//0
//<Encoding>UTF-8</Encoding>
//File updated on 11/18/2025 14:07
//WMO ID: 4902549
//MBARI ID: ODV4902549
//Data source: 4902549_Sprof.nc
//DAC: meds
//Float type: ARVOR
//
//PLEASE READ:
//Data for this file has been extracted from the Synthetic profiles (*SProf.nc)
//Only RAW data parameters were used
//Missing Float profile(s) for station(s): 56 93 102 103 
//
//Missing data value = -1e10
//Argo to ODV QF conversion: Argo 0|99 => ODV 1, Argo 1|2|8 => ODV 0, Argo 3|5 => ODV 4, Argo 4 => ODV 8
//Data quality flags: 0=Good, 4=Questionable, 8=Bad, 1=Missing or not inspected 
Cruise	Station	Type	mon/day/yr	hh:mm	Lon [°E]	Lat [°N]	QF	Pressure[dbar]	QF	Temperature[°C]	QF	Salinity[pss]	QF	Sigma_theta[kg/m^3]	QF	Depth[m]	QF	Oxygen[µmol/kg]	QF	OxygenSat[%]	QF	Nitrate[µmol/kg]	QF	Chl_a[mg/m^3]	QF	b_bp700[1/m]	QF	CDOM[ppb]	QF	pHinsitu[Total]	QF	CP660[1/m]	QF
4902549	1	C	08/19/2020	09:14	-134.614	49.286	0	0.00	0	15.7550	0	32.2030	0	23.653	0	0.000	0	-1e10	1	-1e10	1	-1E+10	1	-1E+10	1	-1E+10	1	-1E+10	1	-1E+10	1	-1E+10	1
4902549	1	C	08/19/2020	09:14	-134.614	49.286	0	0.00	0	15.7550	0	32.2020	0	23.652	0	0.001	0	-1e10	1	-1e10	1	-1E+10	1	-1E+10	1	-1E+10	1	-1E+10	1	-1E+10	1	-1E+10	1
4902549	1	C	08/19/2020	09:14	-134.614	49.286	0	0.00	0	15.7550	0	32.2040	0	23.653	0	0.002	0	-1e10	1	-1e10	1	-1E+10	1	-1E+10	1	-1E+10	1	-1E+10	1	-1E+10	1	-1E+10	1
4902549	1	C	08/19/2020	09:14	-134.614	49.286	0	0.00	0	15.7550	0	32.2060	0	23.655	0	0.003	0	-1e10	1	-1e10	1	-1E+10	1	-1E+10	1	-1E+10	1	-1E+10	1	-1E+10	1	-1E+10	1
4902549	1	C	08/19/2020	09:14	-134.614	49.286	0	0.00	0	15.7560	0	32.2070	0	23.655	0	0.004	0	-1e10	1	-1e10	1	-1E+10	1	-1E+10	1	-1E+10	1	-1E+10	1	-1E+10	1	-1E+10	1
4902549	1	C	08/19/2020	09:14	-134.614	49.286	0	0.00	0	15.7570	0	32.2080	0	23.656	0	0.005	0	-1e10	1	-1e10	1	-1E+10	1	-1E+10	1	-1E+10	1	-1E+10	1	-1E+10	1	-1E+10	1
4902549	1	C	08/19/2020	09:14	-134.614	49.286	0	0.01	0	15.7560	0	32.2070	0	23.655	0	0.006	0	-1e10	1	-1e10	1	-1E+10	1	-1E+10	1	-1E+10	1	-1E+10	1	-1E+10	1	-1E+10	1
4902549	1	C	08/19/2020	09:14	-134.614	49.286	0	0.01	0	15.7560	0	32.2080	0	23.656	0	0.007	0	-1e10	1	-1e10	1	-1E+10	1	-1E+10	1	-1E+10	1	-1E+10	1	-1E+10	1	-1E+10	1
4902549	1	C	08/19/2020	09:14	-134.614	49.286	0	0.01	0	15.7550	0	32.2080	0	23.656	0	0.008	0	-1e10	1	-1e10	1	-1E+10	1	-1E+10	1	-1E+10	1	-1E+10	1	-1E+10	1	-1E+10	1
4902549	1	C	08/19/2020	09:14	-134.614	49.286	0	0.01	0	15.7550	0	32.2060	0	23.655	0	0.009	0	-1e10	1	-1e10	1	-1E+10	1	-1E+10	1	-1E+10	1	-1E+10	1	-1E+10	1	-1E+10	1
4902549	1	C	08/19/2020	09:14	-134.614	49.286	0	0.01	0	15.7280	0	32.2070	0	23.662	0	0.010	0	-1e10	1	-1e10	1	-1E+10	1	-1E+10	1	-1E+10	1	-1E+10	1	-1E+10	1	-1E+10	1
4902549	1	C	08/19/2020	09:14	-134.614	49.286	0	0.01	0	15.6340	0	32.2120	0	23.686	0	0.015	0	-1e10	1	-1e10	1	-1E+10	1	-1E+10	1	-1E+10	1	-1E+10	1	-1E+10	1	-1E+10	1
4902549	1	C	08/19/2020	09:14	-134.614	49.286	0	0.03	0	14.8030	0	32.2310	0	23.881	0	0.025	0	-1e10	1	-1e10	1	-1E+10	1	-1E+10	1	-1E+10	1	-1E+10	1	-1E+10	1	-1E+10	1
4902549	1	C	08/19/2020	09:14	-134.614	49.286	0	0.04	0	12.8800	0	32.2680	0	24.301	0	0.036	0	-1e10	1	-1e10	1	-1E+10	1	-1E+10	1	-1E+10	1	-1E+10	1	-1E+10	1	-1E+10	1
4902549	1	C	08/19/2020	09:14	-134.614	49.286	0	0.05	0	10.7490	0	32.3100	0	24.726	0	0.045	0	-1e10	1	-1e10	1	-1E+10	1	-1E+10	1	-1E+10	1	-1E+10	1	-1E+10	1	-1E+10	1
4902549	1	C	08/19/2020	09:14	-134.614	49.286	0	0.05	0	9.1440	0	32.3530	0	25.024	0	0.055	0	-1e10	1	-1e10	1	-1E+10	1	-1E+10	1	-1E+10	1	-1E+10	1	-1E+10	1	-1E+10	1
4902549	1	C	08/19/2020	09:14	-134.614	49.286	0	0.06	0	8.4040	0	32.3640	0	25.145	0	0.064	0	-1e10	1	-1e10	1	-1E+10	1	-1E+10	1	-1E+10	1	-1E+10	1	-1E+10	1	-1E+10	1
4902549	1	C	08/19/2020	09:14	-134.614	49.286	0	0.08	0	7.8970	0	32.3850	0	25.236	0	0.075	0	-1e10	1	-1e10	1	-1E+10	1	-1E+10	1	-1E+10	1	-1E+10	1	-1E+10	1	-1E+10	1
4902549	1	C	08/19/2020	09:14	-134.614	49.286	0	0.09	0	7.5410	0	32.4270	0	25.319	0	0.084	0	-1e10	1	-1e10	1	-1E+10	1	-1E+10	1	-1E+10	1	-1E+10	1	-1E+10	1	-1E+10	1
4902549	1	C	08/19/2020	09:14	-134.614	49.286	0	0.09	0	7.2260	0	32.4970	0	25.417	0	0.094	0	-1e10	1	-1e10	1	-1E+10	1	-1E+10	1	-1E+10	1	-1E+10	1	-1E+10	1	-1E+10	1
4902549	1	C	08/19/2020	09:14	-134.614	49.286	0	0.10	0	7.0910	0	32.6000	0	25.517	0	0.104	0	-1e10	1	-1e10	1	-1E+10	1	-1E+10	1	-1E+10	1	-1E+10	1	-1E+10	1	-1E+10	1
4902549	1	C	08/19/2020	09:14	-134.614	49.286	0	0.12	0	6.8360	0	32.8580	0	25.754	0	0.115	0	-1e10	1	-1e10	1	-1E+10	1	-1E+10	1	-1E+10	1	-1E+10	1	-1E+10	1	-1E+10	1
4902549	1	C	08/19/2020	09:14	-134.614	49.286	0	0.13	0	6.6310	0	33.0820	0	25.957	0	0.125	0	-1e10	1	-1e10	1	-1E+10	1	-1E+10	1	-1E+10	1	-1E+10	1	-1E+10	1	-1E+10	1
4902549	1	C	08/19/2020	09:14	-134.614	49.286	0	0.14	0	6.5010	0	33.2840	0	26.133	0	0.135	0	-1e10	1	-1e10	1	-1E+10	1	-1E+10	1	-1E+10	1	-1E+10	1	-1E+10	1	-1E+10	1
4902549	1	C	08/19/2020	09:14	-134.614	49.286	0	0.14	0	6.1770	0	33.5010	0	26.346	0	0.144	0	-1e10	1	-1e10	1	-1E+10	1	-1E+10	1	-1E+10	1	-1E+10	1	-1E+10	1	-1E+10	1
4902549	1	C	08/19/2020	09:14	-134.614	49.286	0	0.16	0	6.0340	0	33.6180	0	26.457	0	0.154	0	-1e10	1	-1e10	1	-1E+10	1	-1E+10	1	-1E+10	1	-1E+10	1	-1E+10	1	-1E+10	1
4902549	1	C	08/19/2020	09:14	-134.614	49.286	0	0.17	0	5.8950	0	33.6870	0	26.528	0	0.165	0	-1e10	1	-1e10	1	-1E+10	1	-1E+10	1	-1E+10	1	-1E+10	1	-1E+10	1	-1E+10	1
4902549	1	C	08/19/2020	09:14	-134.614	49.286	0	0.18	0	5.7340	0	33.7160	0	26.571	0	0.175	0	-1e10	1	-1e10	1	-1E+10	1	-1E+10	1	-1E+10	1	-1E+10	1	-1E+10	1	-1E+10	1
4902549	1	C	08/19/2020	09:14	-134.614	49.286	0	0.19	0	5.6390	0	33.7440	0	26.605	0	0.183	0	-1e10	1	-1e10	1	-1E+10	1	-1E+10	1	-1E+10	1	-1E+10	1	-1E+10	1	-1E+10	1
4902549	1	C	08/19/2020	09:14	-134.614	49.286	0	0.19	0	5.5640	0	33.7630	0	26.629	0	0.193	0	-1e10	1	-1e10	1	-1E+10	1	-1E+10	1	-1E+10	1	-1E+10	1	-1E+10	1	-1E+10	1
4902549	1	C	08/19/2020	09:14	-134.614	49.286	0	0.21	0	5.4100	0	33.7860	0	26.665	0	0.211	0	-1e10	1	-1e10	1	-1E+10	1	-1E+10	1	-1E+10	1	-1E+10	1	-1E+10	1	-1E+10	1
4902549	1	C	08/19/2020	09:14	-134.614	49.286	0	0.24	0	5.1680	0	33.8050	0	26.709	0	0.236	0	-1e10	1	-1e10	1	-1E+10	1	-1E+10	1	-1E+10	1	-1E+10	1	-1E+10	1	-1E+10	1
4902549	1	C	08/19/2020	09:14	-134.614	49.286	0	0.26	0	5.0110	0	33.8240	0	26.742	0	0.261	0	-1e10	1	-1e10	1	-1E+10	1	-1E+10	1	-1E+10	1	-1E+10	1	-1E+10	1	-1E+10	1
4902549	1	C	08/19/2020	09:14	-134.614	49.286	0	0.29	0	4.8750	0	33.8470	0	26.775	0	0.286	0	-1e10	1	-1e10	1	-1E+10	1	-1E+10	1	-1E+10	1	-1E+10	1	-1E+10	1	-1E+10	1
4902549	1	C	08/19/2020	09:14	-134.614	49.286	0	0.31	0	4.7640	0	33.8670	0	26.804	0	0.310	0	-1e10	1	-1e10	1	-1E+10	1	-1E+10	1	-1E+10	1	-1E+10	1	-1E+10	1	-1E+10	1
4902549	1	C	08/19/2020	09:14	-134.614	49.286	0	0.34	0	4.6680	0	33.8920	0	26.834	0	0.335	0	-1e10	1	-1e10	1	-1E+10	1	-1E+10	1	-1E+10	1	-1E+10	1	-1E+10	1	-1E+10	1
4902549	1	C	08/19/2020	09:14	-134.614	49.286	0	0.36	0	4.5960	0	33.9140	0	26.859	0	0.360	0	-1e10	1	-1e10	1	-1E+10	1	-1E+10	1	-1E+10	1	-1E+10	1	-1E+10	1	-1E+10	1
4902549	1	C	08/19/2020	09:14	-134.614	49.286	0	0.39	0	4.5340	0	33.9340	0	26.882	0	0.385	0	-1e10	1	-1e10	1	-1E+10	1	-1E+10	1	-1E+10	1	-1E+10	1	-1E+10	1	-1E+10	1
4902549	1	C	08/19/2020	09:14	-134.614	49.286	0	0.41	0	4.4630	0	33.9650	0	26.914	0	0.409	0	-1e10	1	-1e10	1	-1E+10	1	-1E+10	1	-1E+10	1	-1E+10	1	-1E+10	1	-1E+10	1
4902549	1	C	08/19/2020	09:14	-134.614	49.286	0	0.44	0	4.3880	0	33.9890	0	26.941	0	0.433	0	-1e10	1	-1e10	1	-1E+10	1	-1E+10	1	-1E+10	1	-1E+10	1	-1E+10	1	-1E+10	1
4902549	1	C	08/19/2020	09:14	-134.614	49.286	0	0.46	0	4.3440	0	34.0230	0	26.973	0	0.459	0	-1e10	1	-1e10	1	-1E+10	1	-1E+10	1	-1E+10	1	-1E+10	1	-1E+10	1	-1E+10	1
4902549	1	C	08/19/2020	09:14	-134.614	49.286	0	0.49	0	4.3140	0	34.0550	0	27.002	0	0.484	0	-1e10	1	-1e10	1	-1E+10	1	-1E+10	1	-1E+10	1	-1E+10	1	-1E+10	1	-1E+10	1
4902549	1	C	08/19/2020	09:14	-134.614	49.286	0	0.51	0	4.3140	0	34.0890	0	27.029	0	0.509	0	-1e10	1	-1e10	1	-1E+10	1	-1E+10	1	-1E+10	1	-1E+10	1	-1E+10	1	-1E+10	1
4902549	1	C	08/19/2020	09:14	-134.614	49.286	0	0.54	0	4.2920	0	34.1170	0	27.053	0	0.533	0	-1e10	1	-1e10	1	-1E+10	1	-1E+10	1	-1E+10	1	-1E+10	1	-1E+10	1	-1E+10	1
4902549	1	C	08/19/2020	09:14	-134.614	49.286	0	0.56	0	4.2240	0	34.1420	0	27.080	0	0.558	0	-1e10	1	-1e10	1	-1E+10	1	-1E+10	1	-1E+10	1	-1E+10	1	-1E+10	1	-1E+10	1
4902549	1	C	08/19/2020	09:14	-134.614	49.286	0	0.59	0	4.1590	0	34.1600	0	27.102	0	0.583	0	-1e10	1	-1e10	1	-1E+10	1	-1E+10	1	-1E+10	1	-1E+10	1	-1E+10	1	-1E+10	1
4902549	1	C	08/19/2020	09:14	-134.614	49.286	0	0.61	0	4.0870	0	34.1760	0	27.122	0	0.608	0	-1e10	1	-1e10	1	-1E+10	1	-1E+10	1	-1E+10	1	-1E+10	1	-1E+10	1	-1E+10	1
4902549	1	C	08/19/2020	09:14	-134.614	49.286	0	0.64	0	4.0130	0	34.1930	0	27.143	0	0.633	0	-1e10	1	-1e10	1	-1E+10	1	-1E+10	1	-1E+10	1	-1E+10	1	-1E+10	1	-1E+10	1
4902549	1	C	08/19/2020	09:14	-134.614	49.286	0	0.66	0	3.9250	0	34.2100	0	27.165	0	0.658	0	-1e10	1	-1e10	1	-1E+10	1	-1E+10	1	-1E+10	1	-1E+10	1	-1E+10	1	-1E+10	1
4902549	1	C	08/19/2020	09:14	-134.614	49.286	0	0.69	0	3.8460	0	34.2200	0	27.181	0	0.681	0	-1e10	1	-1e10	1	-1E+10	1	-1E+10	1	-1E+10	1	-1E+10	1	-1E+10	1	-1E+10	1
4902549	1	C	08/19/2020	09:14	-134.614	49.286	0	0.71	0	3.7250	0	34.2340	0	27.205	0	0.707	0	-1e10	1	-1e10	1	-1E+10	1	-1E+10	1	-1E+10	1	-1E+10	1	-1E+10	1	-1E+10	1
4902549	1	C	08/19/2020	09:14	-134.614	49.286	0	0.74	0	3.6140	0	34.2450	0	27.224	0	0.732	0	-1e10	1	-1e10	1	-1E+10	1	-1E+10	1	-1E+10	1	-1E+10	1	-1E+10	1	-1E+10	1
4902549	1	C	08/19/2020	09:14	-134.614	49.286	0	0.76	0	3.5580	0	34.2560	0	27.239	0	0.757	0	-1e10	1	-1e10	1	-1E+10	1	-1E+10	1	-1E+10	1	-1E+10	1	-1E+10	1	-1E+10	1
4902549	1	C	08/19/2020	09:14	-134.614	49.286	0	0.79	0	3.4930	0	34.2660	0	27.253	0	0.781	0	-1e10	1	-1e10	1	-1E+10	1	-1E+10	1	-1E+10	1	-1E+10	1	-1E+10	1	-1E+10	1
4902549	1	C	08/19/2020	09:14	-134.614	49.286	0	0.81	0	3.4350	0	34.2780	0	27.268	0	0.806	0	-1e10	1	-1e10	1	-1E+10	1	-1E+10	1	-1E+10	1	-1E+10	1	-1E+10	1	-1E+10	1
4902549	1	C	08/19/2020	09:14	-134.614	49.286	0	0.84	0	3.3760	0	34.2890	0	27.283	0	0.830	0	-1e10	1	-1e10	1	-1E+10	1	-1E+10	1	-1E+10	1	-1E+10	1	-1E+10	1	-1E+10	1
4902549	1	C	08/19/2020	09:14	-134.614	49.286	0	0.86	0	3.3290	0	34.2990	0	27.295	0	0.856	0	-1e10	1	-1e10	1	-1E+10	1	-1E+10	1	-1E+10	1	-1E+10	1	-1E+10	1	-1E+10	1
4902549	1	C	08/19/2020	09:14	-134.614	49.286	0	0.89	0	3.2900	0	34.3070	0	27.305	0	0.880	0	-1e10	1	-1e10	1	-1E+10	1	-1E+10	1	-1E+10	1	-1E+10	1	-1E+10	1	-1E+10	1
4902549	1	C	08/19/2020	09:14	-134.614	49.286	0	0.91	0	3.2380	0	34.3190	0	27.320	0	0.905	0	-1e10	1	-1e10	1	-1E+10	1	-1E+10	1	-1E+10	1	-1E+10	1	-1E+10	1	-1E+10	1
4902549	1	C	08/19/2020	09:14	-134.614	49.286	0	0.94	0	3.1950	0	34.3290	0	27.332	0	0.929	0	-1e10	1	-1e10	1	-1E+10	1	-1E+10	1	-1E+10	1	-1E+10	1	-1E+10	1	-1E+10	1
4902549	1	C	08/19/2020	09:14	-134.614	49.286	0	0.96	0	3.1550	0	34.3380	0	27.342	0	0.955	0	-1e10	1	-1e10	1	-1E+10	1	-1E+10	1	-1E+10	1	-1E+10	1	-1E+10	1	-1E+10	1
4902549	1	C	08/19/2020	09:14	-134.614	49.286	0	0.99	0	3.1080	0	34.3480	0	27.355	0	0.980	0	-1e10	1	-1e10	1	-1E+10	1	-1E+10	1	-1E+10	1	-1E+10	1	-1E+10	1	-1E+10	1
4902549	1	C	08/19/2020	09:14	-134.614	49.286	0	1.01	0	3.0690	0	34.3560	0	27.365	0	1.004	0	-1e10	1	-1e10	1	-1E+10	1	-1E+10	1	-1E+10	1	-1E+10	1	-1E+10	1	-1E+10	1
4902549	1	C	08/19/2020	09:14	-134.614	49.286	0	1.04	0	3.0370	0	34.3630	0	27.373	0	1.029	0	-1e10	1	-1e10	1	-1E+10	1	-1E+10	1	-1E+10	1	-1E+10	1	-1E+10	1	-1E+10	1
4902549	1	C	08/19/2020	09:14	-134.614	49.286	0	1.06	0	3.0050	0	34.3690	0	27.381	0	1.054	0	-1e10	1	-1e10	1	-1E+10	1	-1E+10	1	-1E+10	1	-1E+10	1	-1E+10	1	-1E+10	1
4902549	1	C	08/19/2020	09:14	-134.614	49.286	0	1.09	0	2.9590	0	34.3780	0	27.392	0	1.079	0	-1e10	1	-1e10	1	-1E+10	1	-1E+10	1	-1E+10	1	-1E+10	1	-1E+10	1	-1E+10	1
4902549	1	C	08/19/2020	09:14	-134.614	49.286	0	1.11	0	2.9160	0	34.3860	0	27.403	0	1.104	0	-1e10	1	-1e10	1	-1E+10	1	-1E+10	1	-1E+10	1	-1E+10	1	-1E+10	1	-1E+10	1
4902549	1	C	08/19/2020	09:14	-134.614	49.286	0	1.14	0	2.8620	0	34.3970	0	27.416	0	1.128	0	-1e10	1	-1e10	1	-1E+10	1	-1E+10	1	-1E+10	1	-1E+10	1	-1E+10	1	-1E+10	1
4902549	1	C	08/19/2020	09:14	-134.614	49.286	0	1.16	0	2.8240	0	34.4040	0	27.425	0	1.153	0	-1e10	1	-1e10	1	-1E+10	1	-1E+10	1	-1E+10	1	-1E+10	1	-1E+10	1	-1E+10	1
4902549	1	C	08/19/2020	09:14	-134.614	49.286	0	1.19	0	2.7970	0	34.4090	0	27.432	0	1.178	0	-1e10	1	-1e10	1	-1E+10	1	-1E+10	1	-1E+10	1	-1E+10	1	-1E+10	1	-1E+10	1
4902549	1	C	08/19/2020	09:14	-134.614	49.286	0	1.21	0	2.7830	0	34.4120	0	27.435	0	1.203	0	-1e10	1	-1e10	1	-1E+10	1	-1E+10	1	-1E+10	1	-1E+10	1	-1E+10	1	-1E+10	1
4902549	1	C	08/19/2020	09:14	-134.614	49.286	0	1.24	0	2.7430	0	34.4200	0	27.445	0	1.227	0	-1e10	1	-1e10	1	-1E+10	1	-1E+10	1	-1E+10	1	-1E+10	1	-1E+10	1	-1E+10	1
4902549	1	C	08/19/2020	09:14	-134.614	49.286	0	1.26	0	2.6950	0	34.4290	0	27.457	0	1.252	0	-1e10	1	-1e10	1	-1E+10	1	-1E+10	1	-1E+10	1	-1E+10	1	-1E+10	1	-1E+10	1
4902549	1	C	08/19/2020	09:14	-134.614	49.286	0	1.29	0	2.6550	0	34.4370	0	27.466	0	1.277	0	-1e10	1	-1e10	1	-1E+10	1	-1E+10	1	-1E+10	1	-1E+10	1	-1E+10	1	-1E+10	1
4902549	1	C	08/19/2020	09:14	-134.614	49.286	0	1.31	0	2.6170	0	34.4450	0	27.476	0	1.303	0	-1e10	1	-1e10	1	-1E+10	1	-1E+10	1	-1E+10	1	-1E+10	1	-1E+10	1	-1E+10	1
4902549	1	C	08/19/2020	09:14	-134.614	49.286	0	1.34	0	2.5940	0	34.4500	0	27.482	0	1.327	0	-1e10	1	-1e10	1	-1E+10	1	-1E+10	1	-1E+10	1	-1E+10	1	-1E+10	1	-1E+10	1
4902549	1	C	08/19/2020	09:14	-134.614	49.286	0	1.36	0	2.5670	0	34.4560	0	27.489	0	1.351	0	-1e10	1	-1e10	1	-1E+10	1	-1E+10	1	-1E+10	1	-1E+10	1	-1E+10	1	-1E+10	1
4902549	1	C	08/19/2020	09:14	-134.614	49.286	0	1.39	0	2.5460	0	34.4610	0	27.495	0	1.376	0	-1e10	1	-1e10	1	-1E+10	1	-1E+10	1	-1E+10	1	-1E+10	1	-1E+10	1	-1E+10	1
4902549	1	C	08/19/2020	09:14	-134.614	49.286	0	1.41	0	2.5180	0	34.4680	0	27.503	0	1.401	0	-1e10	1	-1e10	1	-1E+10	1	-1E+10	1	-1E+10	1	-1E+10	1	-1E+10	1	-1E+10	1
4902549	1	C	08/19/2020	09:14	-134.614	49.286	0	1.44	0	2.4860	0	34.4750	0	27.511	0	1.426	0	-1e10	1	-1e10	1	-1E+10	1	-1E+10	1	-1E+10	1	-1E+10	1	-1E+10	1	-1E+10	1
4902549	1	C	08/19/2020	09:14	-134.614	49.286	0	1.46	0	2.4580	0	34.4820	0	27.519	0	1.451	0	-1e10	1	-1e10	1	-1E+10	1	-1E+10	1	-1E+10	1	-1E+10	1	-1E+10	1	-1E+10	1
4902549	1	C	08/19/2020	09:14	-134.614	49.286	0	1.49	0	2.4290	0	34.4880	0	27.527	0	1.475	0	-1e10	1	-1e10	1	-1E+10	1	-1E+10	1	-1E+10	1	-1E+10	1	-1E+10	1	-1E+10	1
4902549	1	C	08/19/2020	09:14	-134.614	49.286	0	1.51	0	2.4010	0	34.4930	0	27.533	0	1.500	0	-1e10	1	-1e10	1	-1E+10	1	-1E+10	1	-1E+10	1	-1E+10	1	-1E+10	1	-1E+10	1
4902549	1	C	08/19/2020	09:14	-134.614	49.286	0	1.54	0	2.3770	0	34.4970	0	27.538	0	1.525	0	-1e10	1	-1e10	1	-1E+10	1	-1E+10	1	-1E+10	1	-1E+10	1	-1E+10	1	-1E+10	1
4902549	1	C	08/19/2020	09:14	-134.614	49.286	0	1.56	0	2.3500	0	34.5020	0	27.544	0	1.550	0	-1e10	1	-1e10	1	-1E+10	1	-1E+10	1	-1E+10	1	-1E+10	1	-1E+10	1	-1E+10	1
4902549	1	C	08/19/2020	09:14	-134.614	49.286	0	1.59	0	2.3290	0	34.5070	0	27.550	0	1.574	0	-1e10	1	-1e10	1	-1E+10	1	-1E+10	1	-1E+10	1	-1E+10	1	-1E+10	1	-1E+10	1
4902549	1	C	08/19/2020	09:14	-134.614	49.286	0	1.61	0	2.3030	0	34.5110	0	27.555	0	1.599	0	-1e10	1	-1e10	1	-1E+10	1	-1E+10	1	-1E+10	1	-1E+10	1	-1E+10	1	-1E+10	1
4902549	1	C	08/19/2020	09:14	-134.614	49.286	0	1.64	0	2.2720	0	34.5180	0	27.564	0	1.624	0	-1e10	1	-1e10	1	-1E+10	1	-1E+10	1	-1E+10	1	-1E+10	1	-1E+10	1	-1E+10	1
4902549	1	C	08/19/2020	09:14	-134.614	49.286	0	1.66	0	2.2390	0	34.5230	0	27.570	0	1.649	0	-1e10	1	-1e10	1	-1E+10	1	-1E+10	1	-1E+10	1	-1E+10	1	-1E+10	1	-1E+10	1
4902549	1	C	08/19/2020	09:14	-134.614	49.286	0	1.69	0	2.2150	0	34.5270	0	27.576	0	1.674	0	-1e10	1	-1e10	1	-1E+10	1	-1E+10	1	-1E+10	1	-1E+10	1	-1E+10	1	-1E+10	1
4902549	1	C	08/19/2020	09:14	-134.614	49.286	0	1.71	0	2.1870	0	34.5330	0	27.583	0	1.698	0	-1e10	1	-1e10	1	-1E+10	1	-1E+10	1	-1E+10	1	-1E+10	1	-1E+10	1	-1E+10	1
4902549	1	C	08/19/2020	09:14	-134.614	49.286	0	1.74	0	2.1610	0	34.5380	0	27.589	0	1.724	0	-1e10	1	-1e10	1	-1E+10	1	-1E+10	1	-1E+10	1	-1E+10	1	-1E+10	1	-1E+10	1
4902549	1	C	08/19/2020	09:14	-134.614	49.286	0	1.76	0	2.1420	0	34.5420	0	27.593	0	1.748	0	-1e10	1	-1e10	1	-1E+10	1	-1E+10	1	-1E+10	1	-1E+10	1	-1E+10	1	-1E+10	1
4902549	1	C	08/19/2020	09:14	-134.614	49.286	0	1.79	0	2.1230	0	34.5460	0	27.598	0	1.773	0	-1e10	1	-1e10	1	-1E+10	1	-1E+10	1	-1E+10	1	-1E+10	1	-1E+10	1	-1E+10	1
4902549	1	C	08/19/2020	09:14	-134.614	49.286	0	1.81	0	2.1070	0	34.5490	0	27.602	0	1.798	0	-1e10	1	-1e10	1	-1E+10	1	-1E+10	1	-1E+10	1	-1E+10	1	-1E+10	1	-1E+10	1
4902549	1	C	08/19/2020	09:14	-134.614	49.286	0	1.84	0	2.0870	0	34.5530	0	27.607	0	1.822	0	-1e10	1	-1e10	1	-1E+10	1	-1E+10	1	-1E+10	1	-1E+10	1	-1E+10	1	-1E+10	1
4902549	1	C	08/19/2020	09:14	-134.614	49.286	0	1.86	0	2.0640	0	34.5570	0	27.612	0	1.847	0	-1e10	1	-1e10	1	-1E+10	1	-1E+10	1	-1E+10	1	-1E+10	1	-1E+10	1	-1E+10	1
4902549	1	C	08/19/2020	09:14	-134.614	49.286	0	1.89	0	2.0400	0	34.5610	0	27.617	0	1.872	0	-1e10	1	-1e10	1	-1E+10	1	-1E+10	1	-1E+10	1	-1E+10	1	-1E+10	1	-1E+10	1
4902549	1	C	08/19/2020	09:14	-134.614	49.286	0	1.91	0	2.0090	0	34.5680	0	27.625	0	1.897	0	-1e10	1	-1e10	1	-1E+10	1	-1E+10	1	-1E+10	1	-1E+10	1	-1E+10	1	-1E+10	1
4902549	1	C	08/19/2020	09:14	-134.614	49.286	0	1.94	0	1.9830	0	34.5730	0	27.631	0	1.922	0	-1e10	1	-1e10	1	-1E+10	1	-1E+10	1	-1E+10	1	-1E+10	1	-1E+10	1	-1E+10	1
4902549	1	C	08/19/2020	09:14	-134.614	49.286	0	1.96	0	1.9640	0	34.5770	0	27.636	0	1.946	0	-1e10	1	-1e10	1	-1E+10	1	-1E+10	1	-1E+10	1	-1E+10	1	-1E+10	1	-1E+10	1
4902549	1	C	08/19/2020	09:14	-134.614	49.286	0	1.99	0	1.9450	0	34.5800	0	27.640	0	1.971	0	-1e10	1	-1e10	1	-1E+10	1	-1E+10	1	-1E+10	1	-1E+10	1	-1E+10	1	-1E+10	1
4902549	1	C	08/19/2020	09:14	-134.614	49.286	0	2.01	0	1.9320	0	34.5830	0	27.643	0	1.994	0	-1e10	1	-1e10	1	-1E+10	1	-1E+10	1	-1E+10	1	-1E+10	1	-1E+10	1	-1E+10	1
4902549	1	C	08/19/2020	09:14	-134.614	49.286	0																										
4902549	2	C	08/29/2020	09:06	-134.601	49.262	0	0.40	0	15.5640	0	32.1980	0	23.691	0	0.397	0	249.7	4	100.0	4	-1E+10	1	-1E+10	1	-1E+10	1	-1E+10	1	-1E+10	1	-1E+10	1
4902549	2	C	08/29/2020	09:06	-134.601	49.262	0	1.00	0	15.5650	0	32.1960	0	23.689	0	0.991	0	249.7	4	99.9	4	-1E+10	1	-1E+10	1	-1E+10	1	-1E+10	1	-1E+10	1	-1E+10	1
4902549	2	C	08/29/2020	09:06	-134.601	49.262	0	1.90	0	15.5660	0	32.1960	0	23.689	0	1.884	0	249.7	4	99.9	4	-1E+10	1	-1E+10	1	-1E+10	1	-1E+10	1	-1E+10	1	-1E+10	1
4902549	2	C	08/29/2020	09:06	-134.601	49.262	0	3.10	0	15.5650	0	32.1960	0	23.689	0	3.074	0	249.7	4	100.0	4	-1E+10	1	-1E+10	1	-1E+10	1	-1E+10	1	-1E+10	1	-1E+10	1
4902549	2	C	08/29/2020	09:06	-134.601	49.262	0	3.90	0	15.5660	0	32.1980	0	23.691	0	3.867	0	249.7	4	100.0	4	-1E+10	1	-1E+10	1	-1E+10	1	-1E+10	1	-1E+10	1	-1E+10	1
4902549	2	C	08/29/2020	09:06	-134.601	49.262	0	4.80	0	15.5660	0	32.1980	0	23.691	0	4.759	0	249.8	4	100.0	4	-1E+10	1	-1E+10	1	-1E+10	1	-1E+10	1	-1E+10	1	-1E+10	1
4902549	2	C	08/29/2020	09:06	-134.601	49.262	0	5.90	0	15.5660	0	32.1990	0	23.691	0	5.850	0	249.8	4	100.0	4	-1E+10	1	-1E+10	1	-1E+10	1	-1E+10	1	-1E+10	1	-1E+10	1
4902549	2	C	08/29/2020	09:06	-134.601	49.262	0	7.00	0	15.5680	0	32.1990	0	23.691	0	6.940	0	249.9	4	100.0	4	-1E+10	1	-1E+10	1	-1E+10	1	-1E+10	1	-1E+10	1	-1E+10	1
4902549	2	C	08/29/2020	09:06	-134.601	49.262	0	7.90	0	15.5700	0	32.1990	0	23.691	0	7.833	0	249.9	4	100.0	4	-1E+10	1	-1E+10	1	-1E+10	1	-1E+10	1	-1E+10	1	-1E+10	1
4902549	2	C	08/29/2020	09:06	-134.601	49.262	0	8.80	0	15.5710	0	32.1980	0	23.690	0	8.725	0	250.0	4	100.1	4	-1E+10	1	-1E+10	1	-1E+10	1	-1E+10	1	-1E+10	1	-1E+10	1
4902549	2	C	08/29/2020	09:06	-134.601	49.262	0	9.90	0	15.5680	0	32.1980	0	23.690	0	9.816	0	250.2	4	100.1	4	-1E+10	1	-1E+10	1	-1E+10	1	-1E+10	1	-1E+10	1	-1E+10	1
4902549	2	C	08/29/2020	09:06	-134.601	49.262	0	15.10	0	15.5730	0	32.1980	0	23.689	0	14.971	0	251.3	4	100.6	4	-1E+10	1	-1E+10	1	-1E+10	1	-1E+10	1	-1E+10	1	-1E+10	1
4902549	2	C	08/29/2020	09:06	-134.601	49.262	0	25.70	0	14.4730	0	32.2250	0	23.947	0	25.480	0	264.2	4	103.5	4	-1E+10	1	-1E+10	1	-1E+10	1	-1E+10	1	-1E+10	1	-1E+10	1
4902549	2	C	08/29/2020	09:06	-134.601	49.262	0	35.70	0	11.0650	0	32.3130	0	24.674	0	35.393	0	274.4	4	100.3	4	-1E+10	1	-1E+10	1	-1E+10	1	-1E+10	1	-1E+10	1	-1E+10	1
4902549	2	C	08/29/2020	09:06	-134.601	49.262	0	45.60	0	10.0890	0	32.3370	0	24.860	0	45.207	0	270.7	4	96.9	4	-1E+10	1	-1E+10	1	-1E+10	1	-1E+10	1	-1E+10	1	-1E+10	1
4902549	2	C	08/29/2020	09:06	-134.601	49.262	0	55.10	0	9.1200	0	32.3580	0	25.032	0	54.624	0	268.6	4	94.2	4	-1E+10	1	-1E+10	1	-1E+10	1	-1E+10	1	-1E+10	1	-1E+10	1
4902549	2	C	08/29/2020	09:06	-134.601	49.262	0	65.50	0	8.2970	0	32.3800	0	25.175	0	64.933	0	268.5	4	92.4	4	-1E+10	1	-1E+10	1	-1E+10	1	-1E+10	1	-1E+10	1	-1E+10	1
4902549	2	C	08/29/2020	09:06	-134.601	49.262	0	75.30	0	7.9120	0	32.3950	0	25.242	0	74.646	0	268.1	4	91.5	4	-1E+10	1	-1E+10	1	-1E+10	1	-1E+10	1	-1E+10	1	-1E+10	1
4902549	2	C	08/29/2020	09:06	-134.601	49.262	0	85.70	0	7.6120	0	32.4100	0	25.297	0	84.953	0	266.5	4	90.3	4	-1E+10	1	-1E+10	1	-1E+10	1	-1E+10	1	-1E+10	1	-1E+10	1
4902549	2	C	08/29/2020	09:06	-134.601	49.262	0	95.60	0	7.2530	0	32.4510	0	25.379	0	94.765	0	260.6	4	87.7	4	-1E+10	1	-1E+10	1	-1E+10	1	-1E+10	1	-1E+10	1	-1E+10	1
4902549	2	C	08/29/2020	09:06	-134.601	49.262	0	105.50	0	6.9540	0	32.6000	0	25.536	0	104.576	0	236.6	4	79.2	4	-1E+10	1	-1E+10	1	-1E+10	1	-1E+10	1	-1E+10	1	-1E+10	1
4902549	2	C	08/29/2020	09:06	-134.601	49.262	0	115.40	0	6.7140	0	32.9510	0	25.844	0	114.386	0	205.5	4	68.5	4	-1E+10	1	-1E+10	1	-1E+10	1	-1E+10	1	-1E+10	1	-1E+10	1
4902549	2	C	08/29/2020	09:06	-134.601	49.262	0	125.40	0	6.5400	0	33.2250	0	26.083	0	124.296	0	179.2	4	59.6	4	-1E+10	1	-1E+10	1	-1E+10	1	-1E+10	1	-1E+10	1	-1E+10	1
4902549	2	C	08/29/2020	09:06	-134.601	49.262	0	135.50	0	6.3550	0	33.4150	0	26.257	0	134.303	0	161.5	4	53.6	4	-1E+10	1	-1E+10	1	-1E+10	1	-1E+10	1	-1E+10	1	-1E+10	1
4902549	2	C	08/29/2020	09:06	-134.601	49.262	0	145.70	0	6.2880	0	33.5550	0	26.376	0	144.410	0	141.7	4	47.0	4	-1E+10	1	-1E+10	1	-1E+10	1	-1E+10	1	-1E+10	1	-1E+10	1
4902549	2	C	08/29/2020	09:06	-134.601	49.262	0	155.80	0	6.4880	0	33.6810	0	26.450	0	154.416	0	127.0	4	42.4	4	-1E+10	1	-1E+10	1	-1E+10	1	-1E+10	1	-1E+10	1	-1E+10	1
4902549	2	C	08/29/2020	09:06	-134.601	49.262	0	165.60	0	6.5250	0	33.7370	0	26.490	0	164.126	0	125.9	4	42.1	4	-1E+10	1	-1E+10	1	-1E+10	1	-1E+10	1	-1E+10	1	-1E+10	1
4902549	2	C	08/29/2020	09:06	-134.601	49.262	0	175.30	0	6.3830	0	33.7550	0	26.522	0	173.735	0	128.8	4	42.9	4	-1E+10	1	-1E+10	1	-1E+10	1	-1E+10	1	-1E+10	1	-1E+10	1
4902549	2	C	08/29/2020	09:06	-134.601	49.262	0	185.30	0	6.1760	0	33.7520	0	26.546	0	183.641	0	136.7	4	45.3	4	-1E+10	1	-1E+10	1	-1E+10	1	-1E+10	1	-1E+10	1	-1E+10	1
4902549	2	C	08/29/2020	09:06	-134.601	49.262	0	195.60	0	5.6850	0	33.7510	0	26.607	0	193.844	0	138.7	4	45.4	4	-1E+10	1	-1E+10	1	-1E+10	1	-1E+10	1	-1E+10	1	-1E+10	1
4902549	2	C	08/29/2020	09:06	-134.601	49.262	0	212.70	0	5.4430	0	33.7730	0	26.653	0	210.782	0	130.1	4	42.4	4	-1E+10	1	-1E+10	1	-1E+10	1	-1E+10	1	-1E+10	1	-1E+10	1
4902549	2	C	08/29/2020	09:06	-134.601	49.262	0	237.30	0	5.1620	0	33.8030	0	26.710	0	235.146	0	116.5	4	37.7	4	-1E+10	1	-1E+10	1	-1E+10	1	-1E+10	1	-1E+10	1	-1E+10	1
4902549	2	C	08/29/2020	09:06	-134.601	49.262	0	262.70	0	4.9710	0	33.8270	0	26.751	0	260.300	0	104.1	4	33.6	4	-1E+10	1	-1E+10	1	-1E+10	1	-1E+10	1	-1E+10	1	-1E+10	1
4902549	2	C	08/29/2020	09:06	-134.601	49.262	0	287.70	0	4.8200	0	33.8530	0	26.789	0	285.054	0	89.5	4	28.7	4	-1E+10	1	-1E+10	1	-1E+10	1	-1E+10	1	-1E+10	1	-1E+10	1
4902549	2	C	08/29/2020	09:06	-134.601	49.262	0	312.70	0	4.6620	0	33.8890	0	26.835	0	309.806	0	75.8	4	24.2	4	-1E+10	1	-1E+10	1	-1E+10	1	-1E+10	1	-1E+10	1	-1E+10	1
4902549	2	C	08/29/2020	09:06	-134.601	49.262	0	337.50	0	4.5680	0	33.9150	0	26.866	0	334.356	0	65.6	4	20.9	4	-1E+10	1	-1E+10	1	-1E+10	1	-1E+10	1	-1E+10	1	-1E+10	1
4902549	2	C	08/29/2020	09:06	-134.601	49.262	0	363.30	0	4.5040	0	33.9400	0	26.893	0	359.893	0	58.6	4	18.7	4	-1E+10	1	-1E+10	1	-1E+10	1	-1E+10	1	-1E+10	1	-1E+10	1
4902549	2	C	08/29/2020	09:06	-134.601	49.262	0	387.50	0	4.4460	0	33.9610	0	26.916	0	383.844	0	54.8	4	17.5	4	-1E+10	1	-1E+10	1	-1E+10	1	-1E+10	1	-1E+10	1	-1E+10	1
4902549	2	C	08/29/2020	09:06	-134.601	49.262	0	412.60	0	4.4020	0	33.9810	0	26.937	0	408.683	0	52.7	4	16.8	4	-1E+10	1	-1E+10	1	-1E+10	1	-1E+10	1	-1E+10	1	-1E+10	1
4902549	2	C	08/29/2020	09:06	-134.601	49.262	0	437.70	0	4.3540	0	34.0010	0	26.958	0	433.518	0	48.0	4	15.3	4	-1E+10	1	-1E+10	1	-1E+10	1	-1E+10	1	-1E+10	1	-1E+10	1
4902549	2	C	08/29/2020	09:06	-134.601	49.262	0	462.70	0	4.3170	0	34.0260	0	26.982	0	458.252	0	40.1	4	12.7	4	-1E+10	1	-1E+10	1	-1E+10	1	-1E+10	1	-1E+10	1	-1E+10	1
4902549	2	C	08/29/2020	09:06	-134.601	49.262	0	487.90	0	4.2920	0	34.0560	0	27.009	0	483.180	0	31.8	4	10.1	4	-1E+10	1	-1E+10	1	-1E+10	1	-1E+10	1	-1E+10	1	-1E+10	1
4902549	2	C	08/29/2020	09:06	-134.601	49.262	0	513.10	0	4.2680	0	34.0820	0	27.032	0	508.105	0	25.6	4	8.1	4	-1E+10	1	-1E+10	1	-1E+10	1	-1E+10	1	-1E+10	1	-1E+10	1
4902549	2	C	08/29/2020	09:06	-134.601	49.262	0	538.60	0	4.2450	0	34.1100	0	27.057	0	533.325	0	20.3	4	6.4	4	-1E+10	1	-1E+10	1	-1E+10	1	-1E+10	1	-1E+10	1	-1E+10	1
4902549	2	C	08/29/2020	09:06	-134.601	49.262	0	562.80	0	4.2340	0	34.1330	0	27.077	0	557.255	0	16.7	4	5.3	4	-1E+10	1	-1E+10	1	-1E+10	1	-1E+10	1	-1E+10	1	-1E+10	1
4902549	2	C	08/29/2020	09:06	-134.601	49.262	0	588.00	0	4.1660	0	34.1520	0	27.099	0	582.172	0	15.0	4	4.7	4	-1E+10	1	-1E+10	1	-1E+10	1	-1E+10	1	-1E+10	1	-1E+10	1
4902549	2	C	08/29/2020	09:06	-134.601	49.262	0	612.90	0	4.1200	0	34.1680	0	27.117	0	606.789	0	13.4	4	4.2	4	-1E+10	1	-1E+10	1	-1E+10	1	-1E+10	1	-1E+10	1	-1E+10	1
4902549	2	C	08/29/2020	09:06	-134.601	49.262	0	637.80	0	4.0680	0	34.1840	0	27.135	0	631.403	0	12.0	4	3.8	4	-1E+10	1	-1E+10	1	-1E+10	1	-1E+10	1	-1E+10	1	-1E+10	1
4902549	2	C	08/29/2020	09:06	-134.601	49.262	0	662.80	0	3.9600	0	34.2040	0	27.162	0	656.112	0	11.1	4	3.5	4	-1E+10	1	-1E+10	1	-1E+10	1	-1E+10	1	-1E+10	1	-1E+10	1
4902549	2	C	08/29/2020	09:06	-134.601	49.262	0	688.00	0	3.8990	0	34.2160	0	27.178	0	681.017	0	10.7	4	3.4	4	-1E+10	1	-1E+10	1	-1E+10	1	-1E+10	1	-1E+10	1	-1E+10	1
4902549	2	C	08/29/2020	09:06	-134.601	49.262	0	713.10	0	3.8120	0	34.2260	0	27.195	0	705.820	0	10.5	4	3.3	4	-1E+10	1	-1E+10	1	-1E+10	1	-1E+10	1	-1E+10	1	-1E+10	1
4902549	2	C	08/29/2020	09:06	-134.601	49.262	0	737.70	0	3.7320	0	34.2360	0	27.211	0	730.126	0	10.6	4	3.3	4	-1E+10	1	-1E+10	1	-1E+10	1	-1E+10	1	-1E+10	1	-1E+10	1
4902549	2	C	08/29/2020	09:06	-134.601	49.262	0	763.10	0	3.6460	0	34.2460	0	27.227	0	755.219	0	10.4	4	3.2	4	-1E+10	1	-1E+10	1	-1E+10	1	-1E+10	1	-1E+10	1	-1E+10	1
4902549	2	C	08/29/2020	09:06	-134.601	49.262	0	787.50	0	3.5710	0	34.2580	0	27.244	0	779.321	0	10.2	4	3.2	4	-1E+10	1	-1E+10	1	-1E+10	1	-1E+10	1	-1E+10	1	-1E+10	1
4902549	2	C	08/29/2020	09:06	-134.601	49.262	0	812.50	0	3.5110	0	34.2670	0	27.258	0	804.014	0	10.1	4	3.2	4	-1E+10	1	-1E+10	1	-1E+10	1	-1E+10	1	-1E+10	1	-1E+10	1
4902549	2	C	08/29/2020	09:06	-134.601	49.262	0	837.90	0	3.4530	0	34.2770	0	27.271	0	829.098	0	9.9	4	3.1	4	-1E+10	1	-1E+10	1	-1E+10	1	-1E+10	1	-1E+10	1	-1E+10	1
4902549	2	C	08/29/2020	09:06	-134.601	49.262	0	862.70	0	3.3880	0	34.2890	0	27.287	0	853.587	0	9.8	4	3.0	4	-1E+10	1	-1E+10	1	-1E+10	1	-1E+10	1	-1E+10	1	-1E+10	1
4902549	2	C	08/29/2020	09:06	-134.601	49.262	0	887.70	0	3.3370	0	34.2980	0	27.299	0	878.270	0	9.6	4	3.0	4	-1E+10	1	-1E+10	1	-1E+10	1	-1E+10	1	-1E+10	1	-1E+10	1
4902549	2	C	08/29/2020	09:06	-134.601	49.262	0	913.00	0	3.2890	0	34.3080	0	27.312	0	903.247	0	9.4	4	2.9	4	-1E+10	1	-1E+10	1	-1E+10	1	-1E+10	1	-1E+10	1	-1E+10	1
4902549	2	C	08/29/2020	09:06	-134.601	49.262	0	938.10	0	3.2490	0	34.3170	0	27.323	0	928.023	0	9.2	4	2.9	4	-1E+10	1	-1E+10	1	-1E+10	1	-1E+10	1	-1E+10	1	-1E+10	1
4902549	2	C	08/29/2020	09:06	-134.601	49.262	0	962.90	0	3.2010	0	34.3290	0	27.337	0	952.500	0	9.4	4	2.9	4	-1E+10	1	-1E+10	1	-1E+10	1	-1E+10	1	-1E+10	1	-1E+10	1
4902549	2	C	08/29/2020	09:06	-134.601	49.262	0	987.70	0	3.1560	0	34.3390	0	27.349	0	976.975	0	9.1	4	2.8	4	-1E+10	1	-1E+10	1	-1E+10	1	-1E+10	1	-1E+10	1	-1E+10	1
4902549	2	C	08/29/2020	09:06	-134.601	49.262	0	1012.60	0	3.0790	0	34.3550	0	27.369	0	1001.545	0	8.7	4	2.7	4	-1E+10	1	-1E+10	1	-1E+10	1	-1E+10	1	-1E+10	1	-1E+10	1
4902549	2	C	08/29/2020	09:06	-134.601	49.262	0	1038.80	0	3.0240	0	34.3660	0	27.383	0	1027.395	0	8.7	4	2.7	4	-1E+10	1	-1E+10	1	-1E+10	1	-1E+10	1	-1E+10	1	-1E+10	1
4902549	2	C	08/29/2020	09:06	-134.601	49.262	0	1062.70	0	2.9740	0	34.3750	0	27.395	0	1050.972	0	8.6	4	2.6	4	-1E+10	1	-1E+10	1	-1E+10	1	-1E+10	1	-1E+10	1	-1E+10	1
4902549	2	C	08/29/2020	09:06	-134.601	49.262	0	1087.40	0	2.9470	0	34.3830	0	27.404	0	1075.337	0	8.4	4	2.6	4	-1E+10	1	-1E+10	1	-1E+10	1	-1E+10	1	-1E+10	1	-1E+10	1
4902549	2	C	08/29/2020	09:06	-134.601	49.262	0	1112.50	0	2.9150	0	34.3900	0	27.413	0	1100.092	0	8.6	4	2.6	4	-1E+10	1	-1E+10	1	-1E+10	1	-1E+10	1	-1E+10	1	-1E+10	1
4902549	2	C	08/29/2020	09:06	-134.601	49.262	0	1137.60	0	2.8760	0	34.3950	0	27.420	0	1124.845	0	8.8	4	2.7	4	-1E+10	1	-1E+10	1	-1E+10	1	-1E+10	1	-1E+10	1	-1E+10	1
4902549	2	C	08/29/2020	09:06	-134.601	49.262	0	1162.50	0	2.8440	0	34.4010	0	27.428	0	1149.398	0	8.9	4	2.7	4	-1E+10	1	-1E+10	1	-1E+10	1	-1E+10	1	-1E+10	1	-1E+10	1
4902549	2	C	08/29/2020	09:06	-134.601	49.262	0	1187.50	0	2.8300	0	34.4060	0	27.433	0	1174.046	0	8.9	4	2.7	4	-1E+10	1	-1E+10	1	-1E+10	1	-1E+10	1	-1E+10	1	-1E+10	1
4902549	2	C	08/29/2020	09:06	-134.601	49.262	0	1213.00	0	2.7890	0	34.4130	0	27.443	0	1199.185	0	9.1	4	2.8	4	-1E+10	1	-1E+10	1	-1E+10	1	-1E+10	1	-1E+10	1	-1E+10	1
4902549	2	C	08/29/2020	09:06	-134.601	49.262	0	1238.00	0	2.7600	0	34.4200	0	27.451	0	1223.827	0	9.2	4	2.8	4	-1E+10	1	-1E+10	1	-1E+10	1	-1E+10	1	-1E+10	1	-1E+10	1
4902549	2	C	08/29/2020	09:06	-134.601	49.262	0	1262.90	0	2.7140	0	34.4280	0	27.462	0	1248.369	0	9.6	4	3.0	4	-1E+10	1	-1E+10	1	-1E+10	1	-1E+10	1	-1E+10	1	-1E+10	1
4902549	2	C	08/29/2020	09:06	-134.601	49.262	0	1287.60	0	2.6720	0	34.4350	0	27.471	0	1272.710	0	10.1	4	3.1	4	-1E+10	1	-1E+10	1	-1E+10	1	-1E+10	1	-1E+10	1	-1E+10	1
4902549	2	C	08/29/2020	09:06	-134.601	49.262	0	1312.90	0	2.6320	0	34.4440	0	27.482	0	1297.639	0	10.5	4	3.2	4	-1E+10	1	-1E+10	1	-1E+10	1	-1E+10	1	-1E+10	1	-1E+10	1
4902549	2	C	08/29/2020	09:06	-134.601	49.262	0	1337.70	0	2.5980	0	34.4510	0	27.490	0	1322.073	0	11.2	4	3.4	4	-1E+10	1	-1E+10	1	-1E+10	1	-1E+10	1	-1E+10	1	-1E+10	1
4902549	2	C	08/29/2020	09:06	-134.601	49.262	0	1363.10	0	2.5530	0	34.4600	0	27.501	0	1347.095	0	12.1	4	3.7	4	-1E+10	1	-1E+10	1	-1E+10	1	-1E+10	1	-1E+10	1	-1E+10	1
4902549	2	C	08/29/2020	09:06	-134.601	49.262	0	1388.00	0	2.5250	0	34.4670	0	27.510	0	1371.622	0	13.0	4	4.0	4	-1E+10	1	-1E+10	1	-1E+10	1	-1E+10	1	-1E+10	1	-1E+10	1
4902549	2	C	08/29/2020	09:06	-134.601	49.262	0	1412.70	0	2.4940	0	34.4740	0	27.518	0	1395.949	0	14.0	4	4.3	4	-1E+10	1	-1E+10	1	-1E+10	1	-1E+10	1	-1E+10	1	-1E+10	1
4902549	2	C	08/29/2020	09:06	-134.601	49.262	0	1437.70	0	2.4680	0	34.4800	0	27.525	0	1420.568	0	15.0	4	4.6	4	-1E+10	1	-1E+10	1	-1E+10	1	-1E+10	1	-1E+10	1	-1E+10	1
4902549	2	C	08/29/2020	09:06	-134.601	49.262	0	1462.70	0	2.4230	0	34.4890	0	27.536	0	1445.185	0	16.7	4	5.1	4	-1E+10	1	-1E+10	1	-1E+10	1	-1E+10	1	-1E+10	1	-1E+10	1
4902549	2	C	08/29/2020	09:06	-134.601	49.262	0	1487.80	0	2.3880	0	34.4960	0	27.545	0	1469.897	0	18.1	4	5.5	4	-1E+10	1	-1E+10	1	-1E+10	1	-1E+10	1	-1E+10	1	-1E+10	1
4902549	2	C	08/29/2020	09:06	-134.601	49.262	0	1513.20	0	2.3610	0	34.5000	0	27.550	0	1494.902	0	19.3	4	5.9	4	-1E+10	1	-1E+10	1	-1E+10	1	-1E+10	1	-1E+10	1	-1E+10	1
4902549	2	C	08/29/2020	09:06	-134.601	49.262	0	1537.60	0	2.3310	0	34.5060	0	27.558	0	1518.919	0	20.6	4	6.3	4	-1E+10	1	-1E+10	1	-1E+10	1	-1E+10	1	-1E+10	1	-1E+10	1
4902549	2	C	08/29/2020	09:06	-134.601	49.262	0	1562.70	0	2.3110	0	34.5100	0	27.563	0	1543.623	0	21.8	4	6.6	4	-1E+10	1	-1E+10	1	-1E+10	1	-1E+10	1	-1E+10	1	-1E+10	1
4902549	2	C	08/29/2020	09:06	-134.601	49.262	0	1587.60	0	2.2790	0	34.5150	0	27.569	0	1568.127	0	23.2	4	7.0	4	-1E+10	1	-1E+10	1	-1E+10	1	-1E+10	1	-1E+10	1	-1E+10	1
4902549	2	C	08/29/2020	09:06	-134.601	49.262	0	1613.20	0	2.2520	0	34.5200	0	27.576	0	1593.316	0	24.5	4	7.4	4	-1E+10	1	-1E+10	1	-1E+10	1	-1E+10	1	-1E+10	1	-1E+10	1
4902549	2	C	08/29/2020	09:06	-134.601	49.262	0	1637.50	0	2.2310	0	34.5240	0	27.581	0	1617.224	0	25.7	4	7.8	4	-1E+10	1	-1E+10	1	-1E+10	1	-1E+10	1	-1E+10	1	-1E+10	1
4902549	2	C	08/29/2020	09:06	-134.601	49.262	0	1662.90	0	2.2160	0	34.5280	0	27.585	0	1642.211	0	26.9	4	8.2	4	-1E+10	1	-1E+10	1	-1E+10	1	-1E+10	1	-1E+10	1	-1E+10	1
4902549	2	C	08/29/2020	09:06	-134.601	49.262	0	1688.10	0	2.1950	0	34.5320	0	27.590	0	1666.999	0	28.3	4	8.6	4	-1E+10	1	-1E+10	1	-1E+10	1	-1E+10	1	-1E+10	1	-1E+10	1
4902549	2	C	08/29/2020	09:06	-134.601	49.262	0	1712.80	0	2.1830	0	34.5340	0	27.593	0	1691.291	0	29.2	4	8.8	4	-1E+10	1	-1E+10	1	-1E+10	1	-1E+10	1	-1E+10	1	-1E+10	1
4902549	2	C	08/29/2020	09:06	-134.601	49.262	0	1737.60	0	2.1660	0	34.5380	0	27.598	0	1715.680	0	30.6	4	9.3	4	-1E+10	1	-1E+10	1	-1E+10	1	-1E+10	1	-1E+10	1	-1E+10	1
4902549	2	C	08/29/2020	09:06	-134.601	49.262	0	1762.60	0	2.1370	0	34.5430	0	27.604	0	1740.262	0	32.9	4	10.0	4	-1E+10	1	-1E+10	1	-1E+10	1	-1E+10	1	-1E+10	1	-1E+10	1
4902549	2	C	08/29/2020	09:06	-134.601	49.262	0	1787.80	0	2.1000	0	34.5510	0	27.614	0	1765.038	0	36.2	4	10.9	4	-1E+10	1	-1E+10	1	-1E+10	1	-1E+10	1	-1E+10	1	-1E+10	1
4902549	2	C	08/29/2020	09:06	-134.601	49.262	0	1812.90	0	2.0700	0	34.5570	0	27.621	0	1789.713	0	38.1	4	11.5	4	-1E+10	1	-1E+10	1	-1E+10	1	-1E+10	1	-1E+10	1	-1E+10	1
4902549	2	C	08/29/2020	09:06	-134.601	49.262	0	1838.00	0	2.0480	0	34.5610	0	27.626	0	1814.384	0	40.0	4	12.1	4	-1E+10	1	-1E+10	1	-1E+10	1	-1E+10	1	-1E+10	1	-1E+10	1
4902549	2	C	08/29/2020	09:06	-134.601	49.262	0	1862.80	0	2.0330	0	34.5640	0	27.630	0	1838.759	0	41.2	4	12.4	4	-1E+10	1	-1E+10	1	-1E+10	1	-1E+10	1	-1E+10	1	-1E+10	1
4902549	2	C	08/29/2020	09:06	-134.601	49.262	0	1888.10	0	2.0200	0	34.5670	0	27.633	0	1863.621	0	42.0	4	12.7	4	-1E+10	1	-1E+10	1	-1E+10	1	-1E+10	1	-1E+10	1	-1E+10	1
4902549	2	C	08/29/2020	09:06	-134.601	49.262	0	1912.90	0	2.0110	0	34.5680	0	27.635	0	1887.990	0	43.0	4	13.0	4	-1E+10	1	-1E+10	1	-1E+10	1	-1E+10	1	-1E+10	1	-1E+10	1
4902549	2	C	08/29/2020	09:06	-134.601	49.262	0	1937.80	0	1.9890	0	34.5720	0	27.640	0	1912.454	0	44.5	4	13.4	4	-1E+10	1	-1E+10	1	-1E+10	1	-1E+10	1	-1E+10	1	-1E+10	1
4902549	2	C	08/29/2020	09:06	-134.601	49.262	0	1962.50	0	1.9770	0	34.5750	0	27.643	0	1936.718	0	45.4	4	13.7	4	-1E+10	1	-1E+10	1	-1E+10	1	-1E+10	1	-1E+10	1	-1E+10	1
4902549	2	C	08/29/2020	09:06	-134.601	49.262	0	1987.70	0	1.9610	0	34.5780	0	27.647	0	1961.471	0	46.1	4	13.9	4	-1E+10	1	-1E+10	1	-1E+10	1	-1E+10	1	-1E+10	1	-1E+10	1
4902549	2	C	08/29/2020	09:06	-134.601	49.262	0																										
4902549	3	C	09/08/2020	08:51	-134.639	49.238	0	0.30	0	16.1400	0	32.1120	0	23.497	0	0.297	0	247.9	4	100.3	4	-1E+10	1	-1E+10	1	-1E+10	1	-1E+10	1	-1E+10	1	-1E+10	1
4902549	3	C	09/08/2020	08:51	-134.639	49.238	0	1.00	0	16.1400	0	32.1140	0	23.498	0	0.991	0	248.0	4	100.3	4	-1E+10	1	-1E+10	1	-1E+10	1	-1E+10	1	-1E+10	1	-1E+10	1
4902549	3	C	09/08/2020	08:51	-134.639	49.238	0	1.90	0	16.1410	0	32.1160	0	23.500	0	1.884	0	247.8	4	100.3	4	-1E+10	1	-1E+10	1	-1E+10	1	-1E+10	1	-1E+10	1	-1E+10	1
4902549	3	C	09/08/2020	08:51	-134.639	49.238	0	3.10	0	16.1410	0	32.1170	0	23.500	0	3.074	0	247.9	4	100.3	4	-1E+10	1	-1E+10	1	-1E+10	1	-1E+10	1	-1E+10	1	-1E+10	1
4902549	3	C	09/08/2020	08:51	-134.639	49.238	0	4.20	0	16.1430	0	32.1180	0	23.501	0	4.164	0	247.9	4	100.3	4	-1E+10	1	-1E+10	1	-1E+10	1	-1E+10	1	-1E+10	1	-1E+10	1
4902549	3	C	09/08/2020	08:51	-134.639	49.238	0	4.80	0	16.1420	0	32.1190	0	23.502	0	4.759	0	247.8	4	100.2	4	-1E+10	1	-1E+10	1	-1E+10	1	-1E+10	1	-1E+10	1	-1E+10	1
4902549	3	C	09/08/2020	08:51	-134.639	49.238	0	5.70	0	16.1420	0	32.1190	0	23.502	0	5.651	0	247.7	4	100.2	4	-1E+10	1	-1E+10	1	-1E+10	1	-1E+10	1	-1E+10	1	-1E+10	1
4902549	3	C	09/08/2020	08:51	-134.639	49.238	0	6.70	0	16.1440	0	32.1180	0	23.501	0	6.643	0	247.7	4	100.2	4	-1E+10	1	-1E+10	1	-1E+10	1	-1E+10	1	-1E+10	1	-1E+10	1
4902549	3	C	09/08/2020	08:51	-134.639	49.238	0	7.80	0	16.1440	0	32.1180	0	23.501	0	7.734	0	247.8	4	100.2	4	-1E+10	1	-1E+10	1	-1E+10	1	-1E+10	1	-1E+10	1	-1E+10	1
4902549	3	C	09/08/2020	08:51	-134.639	49.238	0	8.80	0	16.1480	0	32.1190	0	23.501	0	8.725	0	247.7	4	100.2	4	-1E+10	1	-1E+10	1	-1E+10	1	-1E+10	1	-1E+10	1	-1E+10	1
4902549	3	C	09/08/2020	08:51	-134.639	49.238	0	9.90	0	16.1470	0	32.1180	0	23.500	0	9.816	0	247.7	4	100.2	4	-1E+10	1	-1E+10	1	-1E+10	1	-1E+10	1	-1E+10	1	-1E+10	1
4902549	3	C	09/08/2020	08:51	-134.639	49.238	0	15.60	0	16.1440	0	32.1180	0	23.501	0	15.467	0	247.6	4	100.2	4	-1E+10	1	-1E+10	1	-1E+10	1	-1E+10	1	-1E+10	1	-1E+10	1
4902549	3	C	09/08/2020	08:51	-134.639	49.238	0	25.30	0	15.9120	0	32.1230	0	23.557	0	25.083	0	247.7	4	99.8	4	-1E+10	1	-1E+10	1	-1E+10	1	-1E+10	1	-1E+10	1	-1E+10	1
4902549	3	C	09/08/2020	08:51	-134.639	49.238	0	35.80	0	14.4550	0	32.1800	0	23.916	0	35.492	0	259.9	4	101.7	4	-1E+10	1	-1E+10	1	-1E+10	1	-1E+10	1	-1E+10	1	-1E+10	1
4902549	3	C	09/08/2020	08:51	-134.639	49.238	0	45.50	0	11.3430	0	32.3030	0	24.617	0	45.108	0	268.9	4	98.8	4	-1E+10	1	-1E+10	1	-1E+10	1	-1E+10	1	-1E+10	1	-1E+10	1
4902549	3	C	09/08/2020	08:51	-134.639	49.238	0	55.20	0	9.8870	0	32.3420	0	24.897	0	54.723	0	266.8	4	95.1	4	-1E+10	1	-1E+10	1	-1E+10	1	-1E+10	1	-1E+10	1	-1E+10	1
4902549	3	C	09/08/2020	08:51	-134.639	49.238	0	65.30	0	8.5500	0	32.3790	0	25.136	0	64.734	0	266.1	4	92.1	4	-1E+10	1	-1E+10	1	-1E+10	1	-1E+10	1	-1E+10	1	-1E+10	1
4902549	3	C	09/08/2020	08:51	-134.639	49.238	0	75.30	0	7.8890	0	32.4040	0	25.253	0	74.646	0	265.2	4	90.5	4	-1E+10	1	-1E+10	1	-1E+10	1	-1E+10	1	-1E+10	1	-1E+10	1
4902549	3	C	09/08/2020	08:51	-134.639	49.238	0	85.50	0	7.5640	0	32.4230	0	25.314	0	84.755	0	264.1	4	89.4	4	-1E+10	1	-1E+10	1	-1E+10	1	-1E+10	1	-1E+10	1	-1E+10	1
4902549	3	C	09/08/2020	08:51	-134.639	49.238	0	95.70	0	7.2460	0	32.4540	0	25.382	0	94.864	0	256.7	4	86.4	4	-1E+10	1	-1E+10	1	-1E+10	1	-1E+10	1	-1E+10	1	-1E+10	1
4902549	3	C	09/08/2020	08:51	-134.639	49.238	0	105.90	0	6.7930	0	32.6550	0	25.601	0	104.972	0	232.2	4	77.4	4	-1E+10	1	-1E+10	1	-1E+10	1	-1E+10	1	-1E+10	1	-1E+10	1
4902549	3	C	09/08/2020	08:51	-134.639	49.238	0	115.20	0	6.5820	0	32.8640	0	25.793	0	114.188	0	205.3	4	68.2	4	-1E+10	1	-1E+10	1	-1E+10	1	-1E+10	1	-1E+10	1	-1E+10	1
4902549	3	C	09/08/2020	08:51	-134.639	49.238	0	124.80	0	6.5070	0	33.0660	0	25.962	0	123.701	0	178.7	4	59.4	4	-1E+10	1	-1E+10	1	-1E+10	1	-1E+10	1	-1E+10	1	-1E+10	1
4902549	3	C	09/08/2020	08:51	-134.639	49.238	0	135.30	0	6.5470	0	33.2950	0	26.138	0	134.105	0	154.8	4	51.6	4	-1E+10	1	-1E+10	1	-1E+10	1	-1E+10	1	-1E+10	1	-1E+10	1
4902549	3	C	09/08/2020	08:51	-134.639	49.238	0	145.60	0	6.6020	0	33.5280	0	26.314	0	144.311	0	142.9	4	47.7	4	-1E+10	1	-1E+10	1	-1E+10	1	-1E+10	1	-1E+10	1	-1E+10	1
4902549	3	C	09/08/2020	08:51	-134.639	49.238	0	155.60	0	6.3680	0	33.6240	0	26.421	0	154.219	0	138.1	4	45.9	4	-1E+10	1	-1E+10	1	-1E+10	1	-1E+10	1	-1E+10	1	-1E+10	1
4902549	3	C	09/08/2020	08:51	-134.639	49.238	0	165.40	0	6.2830	0	33.7090	0	26.499	0	163.928	0	136.3	4	45.3	4	-1E+10	1	-1E+10	1	-1E+10	1	-1E+10	1	-1E+10	1	-1E+10	1
4902549	3	C	09/08/2020	08:51	-134.639	49.238	0	175.30	0	6.0160	0	33.7340	0	26.552	0	173.735	0	131.3	4	43.4	4	-1E+10	1	-1E+10	1	-1E+10	1	-1E+10	1	-1E+10	1	-1E+10	1
4902549	3	C	09/08/2020	08:51	-134.639	49.238	0	185.80	0	5.9170	0	33.7840	0	26.604	0	184.137	0	123.9	4	40.8	4	-1E+10	1	-1E+10	1	-1E+10	1	-1E+10	1	-1E+10	1	-1E+10	1
4902549	3	C	09/08/2020	08:51	-134.639	49.238	0	195.40	0	5.8340	0	33.8030	0	26.630	0	193.647	0	120.3	4	39.5	4	-1E+10	1	-1E+10	1	-1E+10	1	-1E+10	1	-1E+10	1	-1E+10	1
4902549	3	C	09/08/2020	08:51	-134.639	49.238	0	212.90	0	5.6310	0	33.8170	0	26.666	0	210.981	0	114.4	4	37.5	4	-1E+10	1	-1E+10	1	-1E+10	1	-1E+10	1	-1E+10	1	-1E+10	1
4902549	3	C	09/08/2020	08:51	-134.639	49.238	0	237.40	0	5.2880	0	33.8260	0	26.714	0	235.246	0	108.4	4	35.2	4	-1E+10	1	-1E+10	1	-1E+10	1	-1E+10	1	-1E+10	1	-1E+10	1
4902549	3	C	09/08/2020	08:51	-134.639	49.238	0	262.60	0	5.0420	0	33.8320	0	26.747	0	260.201	0	102.0	4	32.9	4	-1E+10	1	-1E+10	1	-1E+10	1	-1E+10	1	-1E+10	1	-1E+10	1
4902549	3	C	09/08/2020	08:51	-134.639	49.238	0	288.00	0	4.8590	0	33.8470	0	26.780	0	285.352	0	93.3	4	30.0	4	-1E+10	1	-1E+10	1	-1E+10	1	-1E+10	1	-1E+10	1	-1E+10	1
4902549	3	C	09/08/2020	08:51	-134.639	49.238	0	312.60	0	4.7290	0	33.8680	0	26.811	0	309.707	0	82.8	4	26.5	4	-1E+10	1	-1E+10	1	-1E+10	1	-1E+10	1	-1E+10	1	-1E+10	1
4902549	3	C	09/08/2020	08:51	-134.639	49.238	0	337.70	0	4.6390	0	33.8920	0	26.840	0	334.555	0	73.8	4	23.6	4	-1E+10	1	-1E+10	1	-1E+10	1	-1E+10	1	-1E+10	1	-1E+10	1
4902549	3	C	09/08/2020	08:51	-134.639	49.238	0	363.10	0	4.5500	0	33.9220	0	26.874	0	359.696	0	63.4	4	20.2	4	-1E+10	1	-1E+10	1	-1E+10	1	-1E+10	1	-1E+10	1	-1E+10	1
4902549	3	C	09/08/2020	08:51	-134.639	49.238	0	387.80	0	4.4670	0	33.9520	0	26.907	0	384.142	0	55.1	4	17.6	4	-1E+10	1	-1E+10	1	-1E+10	1	-1E+10	1	-1E+10	1	-1E+10	1
4902549	3	C	09/08/2020	08:51	-134.639	49.238	0	413.00	0	4.4050	0	33.9750	0	26.932	0	409.079	0	49.2	4	15.7	4	-1E+10	1	-1E+10	1	-1E+10	1	-1E+10	1	-1E+10	1	-1E+10	1
4902549	3	C	09/08/2020	08:51	-134.639	49.238	0	438.90	0	4.3440	0	33.9960	0	26.955	0	434.706	0	45.2	4	14.4	4	-1E+10	1	-1E+10	1	-1E+10	1	-1E+10	1	-1E+10	1	-1E+10	1
4902549	3	C	09/08/2020	08:51	-134.639	49.238	0	462.50	0	4.2650	0	34.0240	0	26.986	0	458.055	0	39.1	4	12.4	4	-1E+10	1	-1E+10	1	-1E+10	1	-1E+10	1	-1E+10	1	-1E+10	1
4902549	3	C	09/08/2020	08:51	-134.639	49.238	0	487.70	0	4.1940	0	34.0490	0	27.013	0	482.983	0	35.2	4	11.2	4	-1E+10	1	-1E+10	1	-1E+10	1	-1E+10	1	-1E+10	1	-1E+10	1
4902549	3	C	09/08/2020	08:51	-134.639	49.238	0	513.00	0	4.1380	0	34.0690	0	27.035	0	508.008	0	31.4	4	9.9	4	-1E+10	1	-1E+10	1	-1E+10	1	-1E+10	1	-1E+10	1	-1E+10	1
4902549	3	C	09/08/2020	08:51	-134.639	49.238	0	538.00	0	4.1040	0	34.0950	0	27.060	0	532.732	0	26.5	4	8.4	4	-1E+10	1	-1E+10	1	-1E+10	1	-1E+10	1	-1E+10	1	-1E+10	1
4902549	3	C	09/08/2020	08:51	-134.639	49.238	0	563.10	0	4.0500	0	34.1130	0	27.080	0	557.553	0	23.5	4	7.4	4	-1E+10	1	-1E+10	1	-1E+10	1	-1E+10	1	-1E+10	1	-1E+10	1
4902549	3	C	09/08/2020	08:51	-134.639	49.238	0	587.90	0	3.9920	0	34.1330	0	27.102	0	582.074	0	20.3	4	6.4	4	-1E+10	1	-1E+10	1	-1E+10	1	-1E+10	1	-1E+10	1	-1E+10	1
4902549	3	C	09/08/2020	08:51	-134.639	49.238	0	612.90	0	3.9630	0	34.1520	0	27.120	0	606.790	0	17.4	4	5.5	4	-1E+10	1	-1E+10	1	-1E+10	1	-1E+10	1	-1E+10	1	-1E+10	1
4902549	3	C	09/08/2020	08:51	-134.639	49.238	0	638.10	0	3.9470	0	34.1830	0	27.146	0	631.700	0	12.9	4	4.1	4	-1E+10	1	-1E+10	1	-1E+10	1	-1E+10	1	-1E+10	1	-1E+10	1
4902549	3	C	09/08/2020	08:51	-134.639	49.238	0	663.30	0	3.9250	0	34.2150	0	27.174	0	656.608	0	10.3	4	3.3	4	-1E+10	1	-1E+10	1	-1E+10	1	-1E+10	1	-1E+10	1	-1E+10	1
4902549	3	C	09/08/2020	08:51	-134.639	49.238	0	687.80	0	3.8530	0	34.2280	0	27.192	0	680.821	0	9.9	4	3.1	4	-1E+10	1	-1E+10	1	-1E+10	1	-1E+10	1	-1E+10	1	-1E+10	1
4902549	3	C	09/08/2020	08:51	-134.639	49.238	0	712.70	0	3.7640	0	34.2410	0	27.211	0	705.426	0	9.9	4	3.1	4	-1E+10	1	-1E+10	1	-1E+10	1	-1E+10	1	-1E+10	1	-1E+10	1
4902549	3	C	09/08/2020	08:51	-134.639	49.238	0	737.80	0	3.6500	0	34.2470	0	27.228	0	730.226	0	10.3	4	3.2	4	-1E+10	1	-1E+10	1	-1E+10	1	-1E+10	1	-1E+10	1	-1E+10	1
4902549	3	C	09/08/2020	08:51	-134.639	49.238	0	762.80	0	3.5550	0	34.2600	0	27.247	0	754.924	0	10.1	4	3.2	4	-1E+10	1	-1E+10	1	-1E+10	1	-1E+10	1	-1E+10	1	-1E+10	1
4902549	3	C	09/08/2020	08:51	-134.639	49.238	0	788.40	0	3.4740	0	34.2740	0	27.266	0	780.212	0	9.9	4	3.1	4	-1E+10	1	-1E+10	1	-1E+10	1	-1E+10	1	-1E+10	1	-1E+10	1
4902549	3	C	09/08/2020	08:51	-134.639	49.238	0	812.50	0	3.4160	0	34.2840	0	27.280	0	804.015	0	9.7	4	3.0	4	-1E+10	1	-1E+10	1	-1E+10	1	-1E+10	1	-1E+10	1	-1E+10	1
4902549	3	C	09/08/2020	08:51	-134.639	49.238	0	837.90	0	3.3620	0	34.2940	0	27.293	0	829.100	0	9.6	4	3.0	4	-1E+10	1	-1E+10	1	-1E+10	1	-1E+10	1	-1E+10	1	-1E+10	1
4902549	3	C	09/08/2020	08:51	-134.639	49.238	0	863.10	0	3.3250	0	34.3020	0	27.303	0	853.984	0	9.3	4	2.9	4	-1E+10	1	-1E+10	1	-1E+10	1	-1E+10	1	-1E+10	1	-1E+10	1
4902549	3	C	09/08/2020	08:51	-134.639	49.238	0	887.80	0	3.2880	0	34.3090	0	27.313	0	878.371	0	9.2	4	2.9	4	-1E+10	1	-1E+10	1	-1E+10	1	-1E+10	1	-1E+10	1	-1E+10	1
4902549	3	C	09/08/2020	08:51	-134.639	49.238	0	913.20	0	3.2320	0	34.3210	0	27.328	0	903.446	0	9.2	4	2.9	4	-1E+10	1	-1E+10	1	-1E+10	1	-1E+10	1	-1E+10	1	-1E+10	1
4902549	3	C	09/08/2020	08:51	-134.639	49.238	0	938.00	0	3.1860	0	34.3320	0	27.341	0	927.926	0	9.2	4	2.9	4	-1E+10	1	-1E+10	1	-1E+10	1	-1E+10	1	-1E+10	1	-1E+10	1
4902549	3	C	09/08/2020	08:51	-134.639	49.238	0	962.70	0	3.1420	0	34.3420	0	27.353	0	952.305	0	9.1	4	2.8	4	-1E+10	1	-1E+10	1	-1E+10	1	-1E+10	1	-1E+10	1	-1E+10	1
4902549	3	C	09/08/2020	08:51	-134.639	49.238	0	987.80	0	3.0960	0	34.3520	0	27.365	0	977.075	0	8.7	4	2.7	4	-1E+10	1	-1E+10	1	-1E+10	1	-1E+10	1	-1E+10	1	-1E+10	1
4902549	3	C	09/08/2020	08:51	-134.639	49.238	0	1013.70	0	3.0390	0	34.3630	0	27.379	0	1002.632	0	8.7	4	2.7	4	-1E+10	1	-1E+10	1	-1E+10	1	-1E+10	1	-1E+10	1	-1E+10	1
4902549	3	C	09/08/2020	08:51	-134.639	49.238	0	1038.00	0	2.9880	0	34.3730	0	27.392	0	1026.608	0	8.6	4	2.7	4	-1E+10	1	-1E+10	1	-1E+10	1	-1E+10	1	-1E+10	1	-1E+10	1
4902549	3	C	09/08/2020	08:51	-134.639	49.238	0	1062.80	0	2.9550	0	34.3800	0	27.401	0	1051.073	0	8.6	4	2.6	4	-1E+10	1	-1E+10	1	-1E+10	1	-1E+10	1	-1E+10	1	-1E+10	1
4902549	3	C	09/08/2020	08:51	-134.639	49.238	0	1087.40	0	2.9330	0	34.3850	0	27.407	0	1075.339	0	8.6	4	2.6	4	-1E+10	1	-1E+10	1	-1E+10	1	-1E+10	1	-1E+10	1	-1E+10	1
4902549	3	C	09/08/2020	08:51	-134.639	49.238	0	1112.30	0	2.9010	0	34.3900	0	27.414	0	1099.898	0	8.7	4	2.7	4	-1E+10	1	-1E+10	1	-1E+10	1	-1E+10	1	-1E+10	1	-1E+10	1
4902549	3	C	09/08/2020	08:51	-134.639	49.238	0	1137.80	0	2.8600	0	34.3980	0	27.424	0	1125.045	0	8.8	4	2.7	4	-1E+10	1	-1E+10	1	-1E+10	1	-1E+10	1	-1E+10	1	-1E+10	1
4902549	3	C	09/08/2020	08:51	-134.639	49.238	0	1163.00	0	2.8250	0	34.4050	0	27.433	0	1149.893	0	8.9	4	2.7	4	-1E+10	1	-1E+10	1	-1E+10	1	-1E+10	1	-1E+10	1	-1E+10	1
4902549	3	C	09/08/2020	08:51	-134.639	49.238	0	1187.80	0	2.7940	0	34.4110	0	27.441	0	1174.345	0	9.1	4	2.8	4	-1E+10	1	-1E+10	1	-1E+10	1	-1E+10	1	-1E+10	1	-1E+10	1
4902549	3	C	09/08/2020	08:51	-134.639	49.238	0	1213.10	0	2.7680	0	34.4170	0	27.448	0	1199.286	0	9.2	4	2.8	4	-1E+10	1	-1E+10	1	-1E+10	1	-1E+10	1	-1E+10	1	-1E+10	1
4902549	3	C	09/08/2020	08:51	-134.639	49.238	0	1238.10	0	2.7390	0	34.4230	0	27.455	0	1223.929	0	9.3	4	2.9	4	-1E+10	1	-1E+10	1	-1E+10	1	-1E+10	1	-1E+10	1	-1E+10	1
4902549	3	C	09/08/2020	08:51	-134.639	49.238	0	1262.80	0	2.7120	0	34.4290	0	27.462	0	1248.273	0	9.5	4	2.9	4	-1E+10	1	-1E+10	1	-1E+10	1	-1E+10	1	-1E+10	1	-1E+10	1
4902549	3	C	09/08/2020	08:51	-134.639	49.238	0	1287.80	0	2.6850	0	34.4360	0	27.471	0	1272.910	0	9.8	4	3.0	4	-1E+10	1	-1E+10	1	-1E+10	1	-1E+10	1	-1E+10	1	-1E+10	1
4902549	3	C	09/08/2020	08:51	-134.639	49.238	0	1313.10	0	2.6530	0	34.4440	0	27.480	0	1297.839	0	10.3	4	3.1	4	-1E+10	1	-1E+10	1	-1E+10	1	-1E+10	1	-1E+10	1	-1E+10	1
4902549	3	C	09/08/2020	08:51	-134.639	49.238	0	1338.20	0	2.6080	0	34.4520	0	27.490	0	1322.569	0	11.1	4	3.4	4	-1E+10	1	-1E+10	1	-1E+10	1	-1E+10	1	-1E+10	1	-1E+10	1
4902549	3	C	09/08/2020	08:51	-134.639	49.238	0	1362.80	0	2.5570	0	34.4610	0	27.502	0	1346.803	0	12.1	4	3.7	4	-1E+10	1	-1E+10	1	-1E+10	1	-1E+10	1	-1E+10	1	-1E+10	1
4902549	3	C	09/08/2020	08:51	-134.639	49.238	0	1387.60	0	2.5190	0	34.4700	0	27.512	0	1371.231	0	13.2	4	4.0	4	-1E+10	1	-1E+10	1	-1E+10	1	-1E+10	1	-1E+10	1	-1E+10	1
4902549	3	C	09/08/2020	08:51	-134.639	49.238	0	1412.80	0	2.4900	0	34.4770	0	27.521	0	1396.051	0	14.1	4	4.3	4	-1E+10	1	-1E+10	1	-1E+10	1	-1E+10	1	-1E+10	1	-1E+10	1
4902549	3	C	09/08/2020	08:51	-134.639	49.238	0	1438.80	0	2.4660	0	34.4810	0	27.526	0	1421.655	0	15.1	4	4.6	4	-1E+10	1	-1E+10	1	-1E+10	1	-1E+10	1	-1E+10	1	-1E+10	1
4902549	3	C	09/08/2020	08:51	-134.639	49.238	0	1462.60	0	2.4450	0	34.4850	0	27.531	0	1445.090	0	16.0	4	4.9	4	-1E+10	1	-1E+10	1	-1E+10	1	-1E+10	1	-1E+10	1	-1E+10	1
4902549	3	C	09/08/2020	08:51	-134.639	49.238	0	1487.40	0	2.4130	0	34.4910	0	27.539	0	1469.507	0	17.4	4	5.3	4	-1E+10	1	-1E+10	1	-1E+10	1	-1E+10	1	-1E+10	1	-1E+10	1
4902549	3	C	09/08/2020	08:51	-134.639	49.238	0	1512.40	0	2.3840	0	34.4970	0	27.546	0	1494.118	0	19.0	4	5.8	4	-1E+10	1	-1E+10	1	-1E+10	1	-1E+10	1	-1E+10	1	-1E+10	1
4902549	3	C	09/08/2020	08:51	-134.639	49.238	0	1537.80	0	2.3580	0	34.5020	0	27.552	0	1519.119	0	20.2	4	6.1	4	-1E+10	1	-1E+10	1	-1E+10	1	-1E+10	1	-1E+10	1	-1E+10	1
4902549	3	C	09/08/2020	08:51	-134.639	49.238	0	1563.00	0	2.3400	0	34.5060	0	27.557	0	1543.921	0	21.3	4	6.5	4	-1E+10	1	-1E+10	1	-1E+10	1	-1E+10	1	-1E+10	1	-1E+10	1
4902549	3	C	09/08/2020	08:51	-134.639	49.238	0	1587.90	0	2.3120	0	34.5110	0	27.563	0	1568.425	0	22.7	4	6.9	4	-1E+10	1	-1E+10	1	-1E+10	1	-1E+10	1	-1E+10	1	-1E+10	1
4902549	3	C	09/08/2020	08:51	-134.639	49.238	0	1612.90	0	2.2840	0	34.5170	0	27.571	0	1593.025	0	24.2	4	7.3	4	-1E+10	1	-1E+10	1	-1E+10	1	-1E+10	1	-1E+10	1	-1E+10	1
4902549	3	C	09/08/2020	08:51	-134.639	49.238	0	1638.10	0	2.2610	0	34.5210	0	27.576	0	1617.818	0	25.5	4	7.7	4	-1E+10	1	-1E+10	1	-1E+10	1	-1E+10	1	-1E+10	1	-1E+10	1
4902549	3	C	09/08/2020	08:51	-134.639	49.238	0	1663.60	0	2.2270	0	34.5270	0	27.584	0	1642.903	0	27.2	4	8.2	4	-1E+10	1	-1E+10	1	-1E+10	1	-1E+10	1	-1E+10	1	-1E+10	1
4902549	3	C	09/08/2020	08:51	-134.639	49.238	0	1687.60	0	2.2030	0	34.5320	0	27.590	0	1666.510	0	28.8	4	8.7	4	-1E+10	1	-1E+10	1	-1E+10	1	-1E+10	1	-1E+10	1	-1E+10	1
4902549	3	C	09/08/2020	08:51	-134.639	49.238	0	1712.50	0	2.1860	0	34.5350	0	27.594	0	1691.000	0	30.1	4	9.1	4	-1E+10	1	-1E+10	1	-1E+10	1	-1E+10	1	-1E+10	1	-1E+10	1
4902549	3	C	09/08/2020	08:51	-134.639	49.238	0	1737.40	0	2.1670	0	34.5390	0	27.598	0	1715.487	0	31.7	4	9.6	4	-1E+10	1	-1E+10	1	-1E+10	1	-1E+10	1	-1E+10	1	-1E+10	1
4902549	3	C	09/08/2020	08:51	-134.639	49.238	0	1762.70	0	2.1410	0	34.5440	0	27.605	0	1740.364	0	33.3	4	10.1	4	-1E+10	1	-1E+10	1	-1E+10	1	-1E+10	1	-1E+10	1	-1E+10	1
4902549	3	C	09/08/2020	08:51	-134.639	49.238	0	1787.60	0	2.1280	0	34.5470	0	27.608	0	1764.845	0	34.5	4	10.4	4	-1E+10	1	-1E+10	1	-1E+10	1	-1E+10	1	-1E+10	1	-1E+10	1
4902549	3	C	09/08/2020	08:51	-134.639	49.238	0	1812.50	0	2.1070	0	34.5510	0	27.613	0	1789.323	0	36.4	4	11.0	4	-1E+10	1	-1E+10	1	-1E+10	1	-1E+10	1	-1E+10	1	-1E+10	1
4902549	3	C	09/08/2020	08:51	-134.639	49.238	0	1837.40	0	2.0790	0	34.5560	0	27.620	0	1813.799	0	38.4	4	11.6	4	-1E+10	1	-1E+10	1	-1E+10	1	-1E+10	1	-1E+10	1	-1E+10	1
4902549	3	C	09/08/2020	08:51	-134.639	49.238	0	1863.20	0	2.0520	0	34.5610	0	27.626	0	1839.156	0	40.6	4	12.3	4	-1E+10	1	-1E+10	1	-1E+10	1	-1E+10	1	-1E+10	1	-1E+10	1
4902549	3	C	09/08/2020	08:51	-134.639	49.238	0	1887.90	0	2.0290	0	34.5660	0	27.632	0	1863.429	0	42.0	4	12.7	4	-1E+10	1	-1E+10	1	-1E+10	1	-1E+10	1	-1E+10	1	-1E+10	1
4902549	3	C	09/08/2020	08:51	-134.639	49.238	0	1912.80	0	2.0170	0	34.5680	0	27.634	0	1887.896	0	43.0	4	13.0	4	-1E+10	1	-1E+10	1	-1E+10	1	-1E+10	1	-1E+10	1	-1E+10	1
4902549	3	C	09/08/2020	08:51	-134.639	49.238	0	1937.90	0	2.0060	0	34.5700	0	27.637	0	1912.556	0	43.9	4	13.2	4	-1E+10	1	-1E+10	1	-1E+10	1	-1E+10	1	-1E+10	1	-1E+10	1
4902549	3	C	09/08/2020	08:51	-134.639	49.238	0	1962.80	0	1.9880	0	34.5730	0	27.641	0	1937.017	0	45.0	4	13.6	4	-1E+10	1	-1E+10	1	-1E+10	1	-1E+10	1	-1E+10	1	-1E+10	1
4902549	3	C	09/08/2020	08:51	-134.639	49.238	0	1987.80	0	1.9710	0	34.5760	0	27.645	0	1961.574	0	45.8	4	13.8	4	-1E+10	1	-1E+10	1	-1E+10	1	-1E+10	1	-1E+10	1	-1E+10	1
4902549	3	C	09/08/2020	08:51	-134.639	49.238	0	2009.40	0	1.9620	0	34.5780	0	27.647	0	1982.789	0	45.9	4	13.8	4	-1E+10	1	-1E+10	1	-1E+10	1	-1E+10	1	-1E+10	1	-1E+10	1
4902549	3	C	09/08/2020	08:51	-134.639	49.238	0																										
4902549	4	C	09/18/2020	09:00	-134.710	49.212	0	0.30	0	16.3070	0	32.1310	0	23.474	0	0.297	0	242.8	4	98.5	4	-1E+10	1	-1E+10	1	-1E+10	1	-1E+10	1	-1E+10	1	-1E+10	1
4902549	4	C	09/18/2020	09:00	-134.710	49.212	0	1.10	0	16.3070	0	32.1230	0	23.468	0	1.091	0	242.7	4	98.5	4	-1E+10	1	-1E+10	1	-1E+10	1	-1E+10	1	-1E+10	1	-1E+10	1
4902549	4	C	09/18/2020	09:00	-134.710	49.212	0	1.70	0	16.3050	0	32.1200	0	23.466	0	1.686	0	242.8	4	98.5	4	-1E+10	1	-1E+10	1	-1E+10	1	-1E+10	1	-1E+10	1	-1E+10	1
4902549	4	C	09/18/2020	09:00	-134.710	49.212	0	2.70	0	16.3040	0	32.1160	0	23.463	0	2.677	0	242.9	4	98.6	4	-1E+10	1	-1E+10	1	-1E+10	1	-1E+10	1	-1E+10	1	-1E+10	1
4902549	4	C	09/18/2020	09:00	-134.710	49.212	0	3.80	0	16.2990	0	32.1270	0	23.472	0	3.768	0	242.9	4	98.6	4	-1E+10	1	-1E+10	1	-1E+10	1	-1E+10	1	-1E+10	1	-1E+10	1
4902549	4	C	09/18/2020	09:00	-134.710	49.212	0	5.00	0	16.2820	0	32.1490	0	23.493	0	4.957	0	242.9	4	98.5	4	-1E+10	1	-1E+10	1	-1E+10	1	-1E+10	1	-1E+10	1	-1E+10	1
4902549	4	C	09/18/2020	09:00	-134.710	49.212	0	6.00	0	16.1930	0	32.1490	0	23.513	0	5.949	0	243.3	4	98.6	4	-1E+10	1	-1E+10	1	-1E+10	1	-1E+10	1	-1E+10	1	-1E+10	1
4902549	4	C	09/18/2020	09:00	-134.710	49.212	0	6.90	0	16.1350	0	32.1460	0	23.524	0	6.841	0	243.5	4	98.5	4	-1E+10	1	-1E+10	1	-1E+10	1	-1E+10	1	-1E+10	1	-1E+10	1
4902549	4	C	09/18/2020	09:00	-134.710	49.212	0	7.90	0	16.1200	0	32.1470	0	23.528	0	7.833	0	243.6	4	98.5	4	-1E+10	1	-1E+10	1	-1E+10	1	-1E+10	1	-1E+10	1	-1E+10	1
4902549	4	C	09/18/2020	09:00	-134.710	49.212	0	8.80	0	16.1080	0	32.1490	0	23.533	0	8.725	0	243.7	4	98.6	4	-1E+10	1	-1E+10	1	-1E+10	1	-1E+10	1	-1E+10	1	-1E+10	1
4902549	4	C	09/18/2020	09:00	-134.710	49.212	0	9.90	0	16.0870	0	32.1510	0	23.539	0	9.816	0	243.8	4	98.6	4	-1E+10	1	-1E+10	1	-1E+10	1	-1E+10	1	-1E+10	1	-1E+10	1
4902549	4	C	09/18/2020	09:00	-134.710	49.212	0	15.30	0	16.0300	0	32.1520	0	23.553	0	15.169	0	244.3	4	98.6	4	-1E+10	1	-1E+10	1	-1E+10	1	-1E+10	1	-1E+10	1	-1E+10	1
4902549	4	C	09/18/2020	09:00	-134.710	49.212	0	25.60	0	14.2560	0	32.2160	0	23.985	0	25.381	0	257.0	4	100.2	4	-1E+10	1	-1E+10	1	-1E+10	1	-1E+10	1	-1E+10	1	-1E+10	1
4902549	4	C	09/18/2020	09:00	-134.710	49.212	0	35.20	0	11.5190	0	32.3220	0	24.599	0	34.898	0	269.1	4	99.3	4	-1E+10	1	-1E+10	1	-1E+10	1	-1E+10	1	-1E+10	1	-1E+10	1
4902549	4	C	09/18/2020	09:00	-134.710	49.212	0	45.20	0	10.7350	0	32.3390	0	24.752	0	44.811	0	266.6	4	96.8	4	-1E+10	1	-1E+10	1	-1E+10	1	-1E+10	1	-1E+10	1	-1E+10	1
4902549	4	C	09/18/2020	09:00	-134.710	49.212	0	55.50	0	10.0700	0	32.3540	0	24.876	0	55.021	0	265.5	4	95.0	4	-1E+10	1	-1E+10	1	-1E+10	1	-1E+10	1	-1E+10	1	-1E+10	1
4902549	4	C	09/18/2020	09:00	-134.710	49.212	0	65.50	0	9.3020	0	32.3750	0	25.017	0	64.933	0	264.5	4	93.1	4	-1E+10	1	-1E+10	1	-1E+10	1	-1E+10	1	-1E+10	1	-1E+10	1
4902549	4	C	09/18/2020	09:00	-134.710	49.212	0	75.30	0	8.1170	0	32.3830	0	25.203	0	74.646	0	265.1	4	90.9	4	-1E+10	1	-1E+10	1	-1E+10	1	-1E+10	1	-1E+10	1	-1E+10	1
4902549	4	C	09/18/2020	09:00	-134.710	49.212	0	85.20	0	7.6270	0	32.4090	0	25.294	0	84.458	0	263.2	4	89.3	4	-1E+10	1	-1E+10	1	-1E+10	1	-1E+10	1	-1E+10	1	-1E+10	1
4902549	4	C	09/18/2020	09:00	-134.710	49.212	0	95.40	0	7.1830	0	32.4540	0	25.390	0	94.567	0	258.0	4	86.7	4	-1E+10	1	-1E+10	1	-1E+10	1	-1E+10	1	-1E+10	1	-1E+10	1
4902549	4	C	09/18/2020	09:00	-134.710	49.212	0	105.40	0	6.8810	0	32.5660	0	25.519	0	104.477	0	238.9	4	79.8	4	-1E+10	1	-1E+10	1	-1E+10	1	-1E+10	1	-1E+10	1	-1E+10	1
4902549	4	C	09/18/2020	09:00	-134.710	49.212	0	115.50	0	6.6590	0	32.9000	0	25.811	0	114.486	0	205.1	4	68.3	4	-1E+10	1	-1E+10	1	-1E+10	1	-1E+10	1	-1E+10	1	-1E+10	1
4902549	4	C	09/18/2020	09:00	-134.710	49.212	0	125.10	0	6.5250	0	33.1650	0	26.038	0	123.999	0	178.0	4	59.2	4	-1E+10	1	-1E+10	1	-1E+10	1	-1E+10	1	-1E+10	1	-1E+10	1
4902549	4	C	09/18/2020	09:00	-134.710	49.212	0	135.40	0	6.5450	0	33.3480	0	26.180	0	134.205	0	153.6	4	51.2	4	-1E+10	1	-1E+10	1	-1E+10	1	-1E+10	1	-1E+10	1	-1E+10	1
4902549	4	C	09/18/2020	09:00	-134.710	49.212	0	145.30	0	6.6200	0	33.5430	0	26.324	0	144.014	0	133.3	4	44.5	4	-1E+10	1	-1E+10	1	-1E+10	1	-1E+10	1	-1E+10	1	-1E+10	1
4902549	4	C	09/18/2020	09:00	-134.710	49.212	0	155.50	0	6.5740	0	33.6720	0	26.432	0	154.120	0	122.7	4	41.0	4	-1E+10	1	-1E+10	1	-1E+10	1	-1E+10	1	-1E+10	1	-1E+10	1
4902549	4	C	09/18/2020	09:00	-134.710	49.212	0	165.30	0	6.5240	0	33.7410	0	26.493	0	163.829	0	116.3	4	38.9	4	-1E+10	1	-1E+10	1	-1E+10	1	-1E+10	1	-1E+10	1	-1E+10	1
4902549	4	C	09/18/2020	09:00	-134.710	49.212	0	175.40	0	6.4720	0	33.7820	0	26.532	0	173.835	0	111.7	4	37.3	4	-1E+10	1	-1E+10	1	-1E+10	1	-1E+10	1	-1E+10	1	-1E+10	1
4902549	4	C	09/18/2020	09:00	-134.710	49.212	0	185.80	0	6.4000	0	33.8120	0	26.565	0	184.138	0	109.2	4	36.4	4	-1E+10	1	-1E+10	1	-1E+10	1	-1E+10	1	-1E+10	1	-1E+10	1
4902549	4	C	09/18/2020	09:00	-134.710	49.212	0	195.70	0	6.3660	0	33.8200	0	26.576	0	193.944	0	107.1	4	35.7	4	-1E+10	1	-1E+10	1	-1E+10	1	-1E+10	1	-1E+10	1	-1E+10	1
4902549	4	C	09/18/2020	09:00	-134.710	49.212	0	213.20	0	6.1310	0	33.8390	0	26.621	0	211.278	0	103.9	4	34.4	4	-1E+10	1	-1E+10	1	-1E+10	1	-1E+10	1	-1E+10	1	-1E+10	1
4902549	4	C	09/18/2020	09:00	-134.710	49.212	0	238.20	0	5.7330	0	33.8550	0	26.684	0	236.039	0	97.3	4	31.9	4	-1E+10	1	-1E+10	1	-1E+10	1	-1E+10	1	-1E+10	1	-1E+10	1
4902549	4	C	09/18/2020	09:00	-134.710	49.212	0	262.60	0	5.2910	0	33.8360	0	26.721	0	260.202	0	104.4	4	33.9	4	-1E+10	1	-1E+10	1	-1E+10	1	-1E+10	1	-1E+10	1	-1E+10	1
4902549	4	C	09/18/2020	09:00	-134.710	49.212	0	287.90	0	5.0540	0	33.8380	0	26.751	0	285.254	0	99.1	4	32.0	4	-1E+10	1	-1E+10	1	-1E+10	1	-1E+10	1	-1E+10	1	-1E+10	1
4902549	4	C	09/18/2020	09:00	-134.710	49.212	0	312.70	0	4.8060	0	33.8560	0	26.793	0	309.807	0	86.0	4	27.6	4	-1E+10	1	-1E+10	1	-1E+10	1	-1E+10	1	-1E+10	1	-1E+10	1
4902549	4	C	09/18/2020	09:00	-134.710	49.212	0	338.10	0	4.6420	0	33.8960	0	26.843	0	334.952	0	72.5	4	23.2	4	-1E+10	1	-1E+10	1	-1E+10	1	-1E+10	1	-1E+10	1	-1E+10	1
4902549	4	C	09/18/2020	09:00	-134.710	49.212	0	362.80	0	4.5600	0	33.9220	0	26.873	0	359.400	0	64.7	4	20.7	4	-1E+10	1	-1E+10	1	-1E+10	1	-1E+10	1	-1E+10	1	-1E+10	1
4902549	4	C	09/18/2020	09:00	-134.710	49.212	0	387.50	0	4.4880	0	33.9450	0	26.899	0	383.846	0	56.9	4	18.1	4	-1E+10	1	-1E+10	1	-1E+10	1	-1E+10	1	-1E+10	1	-1E+10	1
4902549	4	C	09/18/2020	09:00	-134.710	49.212	0	413.00	0	4.4070	0	33.9740	0	26.931	0	409.080	0	50.2	4	16.0	4	-1E+10	1	-1E+10	1	-1E+10	1	-1E+10	1	-1E+10	1	-1E+10	1
4902549	4	C	09/18/2020	09:00	-134.710	49.212	0	438.10	0	4.3400	0	33.9980	0	26.957	0	433.916	0	44.8	4	14.3	4	-1E+10	1	-1E+10	1	-1E+10	1	-1E+10	1	-1E+10	1	-1E+10	1
4902549	4	C	09/18/2020	09:00	-134.710	49.212	0	462.90	0	4.2600	0	34.0270	0	26.989	0	458.452	0	39.0	4	12.4	4	-1E+10	1	-1E+10	1	-1E+10	1	-1E+10	1	-1E+10	1	-1E+10	1
4902549	4	C	09/18/2020	09:00	-134.710	49.212	0	488.10	0	4.1790	0	34.0540	0	27.019	0	483.380	0	34.6	4	11.0	4	-1E+10	1	-1E+10	1	-1E+10	1	-1E+10	1	-1E+10	1	-1E+10	1
4902549	4	C	09/18/2020	09:00	-134.710	49.212	0	512.60	0	4.1220	0	34.0730	0	27.040	0	507.613	0	31.3	4	9.9	4	-1E+10	1	-1E+10	1	-1E+10	1	-1E+10	1	-1E+10	1	-1E+10	1
4902549	4	C	09/18/2020	09:00	-134.710	49.212	0	537.40	0	4.0810	0	34.0930	0	27.060	0	532.140	0	27.4	4	8.7	4	-1E+10	1	-1E+10	1	-1E+10	1	-1E+10	1	-1E+10	1	-1E+10	1
4902549	4	C	09/18/2020	09:00	-134.710	49.212	0	562.70	0	4.0400	0	34.1110	0	27.079	0	557.159	0	23.9	4	7.6	4	-1E+10	1	-1E+10	1	-1E+10	1	-1E+10	1	-1E+10	1	-1E+10	1
4902549	4	C	09/18/2020	09:00	-134.710	49.212	0	587.70	0	3.9860	0	34.1320	0	27.102	0	581.878	0	20.6	4	6.5	4	-1E+10	1	-1E+10	1	-1E+10	1	-1E+10	1	-1E+10	1	-1E+10	1
4902549	4	C	09/18/2020	09:00	-134.710	49.212	0	612.60	0	3.9430	0	34.1560	0	27.125	0	606.495	0	17.0	4	5.4	4	-1E+10	1	-1E+10	1	-1E+10	1	-1E+10	1	-1E+10	1	-1E+10	1
4902549	4	C	09/18/2020	09:00	-134.710	49.212	0	637.70	0	3.9250	0	34.1900	0	27.154	0	631.307	0	13.1	4	4.1	4	-1E+10	1	-1E+10	1	-1E+10	1	-1E+10	1	-1E+10	1	-1E+10	1
4902549	4	C	09/18/2020	09:00	-134.710	49.212	0	663.40	0	3.9140	0	34.2110	0	27.172	0	656.708	0	10.9	4	3.4	4	-1E+10	1	-1E+10	1	-1E+10	1	-1E+10	1	-1E+10	1	-1E+10	1
4902549	4	C	09/18/2020	09:00	-134.710	49.212	0	687.60	0	3.8540	0	34.2300	0	27.194	0	680.625	0	9.7	4	3.0	4	-1E+10	1	-1E+10	1	-1E+10	1	-1E+10	1	-1E+10	1	-1E+10	1
4902549	4	C	09/18/2020	09:00	-134.710	49.212	0	712.90	0	3.7730	0	34.2460	0	27.215	0	705.625	0	9.2	4	2.9	4	-1E+10	1	-1E+10	1	-1E+10	1	-1E+10	1	-1E+10	1	-1E+10	1
4902549	4	C	09/18/2020	09:00	-134.710	49.212	0	737.90	0	3.7060	0	34.2540	0	27.228	0	730.327	0	9.2	4	2.9	4	-1E+10	1	-1E+10	1	-1E+10	1	-1E+10	1	-1E+10	1	-1E+10	1
4902549	4	C	09/18/2020	09:00	-134.710	49.212	0	762.80	0	3.6350	0	34.2620	0	27.241	0	754.926	0	9.2	4	2.9	4	-1E+10	1	-1E+10	1	-1E+10	1	-1E+10	1	-1E+10	1	-1E+10	1
4902549	4	C	09/18/2020	09:00	-134.710	49.212	0	788.40	0	3.5670	0	34.2700	0	27.254	0	780.214	0	9.3	4	2.9	4	-1E+10	1	-1E+10	1	-1E+10	1	-1E+10	1	-1E+10	1	-1E+10	1
4902549	4	C	09/18/2020	09:00	-134.710	49.212	0	813.10	0	3.4880	0	34.2780	0	27.269	0	804.610	0	9.4	4	2.9	4	-1E+10	1	-1E+10	1	-1E+10	1	-1E+10	1	-1E+10	1	-1E+10	1
4902549	4	C	09/18/2020	09:00	-134.710	49.212	0	837.50	0	3.4200	0	34.2870	0	27.282	0	828.707	0	9.3	4	2.9	4	-1E+10	1	-1E+10	1	-1E+10	1	-1E+10	1	-1E+10	1	-1E+10	1
4902549	4	C	09/18/2020	09:00	-134.710	49.212	0	862.80	0	3.3740	0	34.2950	0	27.293	0	853.689	0	9.1	4	2.8	4	-1E+10	1	-1E+10	1	-1E+10	1	-1E+10	1	-1E+10	1	-1E+10	1
4902549	4	C	09/18/2020	09:00	-134.710	49.212	0	888.90	0	3.3130	0	34.3080	0	27.309	0	879.459	0	8.9	4	2.8	4	-1E+10	1	-1E+10	1	-1E+10	1	-1E+10	1	-1E+10	1	-1E+10	1
4902549	4	C	09/18/2020	09:00	-134.710	49.212	0	912.60	0	3.2390	0	34.3210	0	27.327	0	902.856	0	8.9	4	2.8	4	-1E+10	1	-1E+10	1	-1E+10	1	-1E+10	1	-1E+10	1	-1E+10	1
4902549	4	C	09/18/2020	09:00	-134.710	49.212	0	937.80	0	3.1910	0	34.3310	0	27.339	0	927.731	0	9.0	4	2.8	4	-1E+10	1	-1E+10	1	-1E+10	1	-1E+10	1	-1E+10	1	-1E+10	1
4902549	4	C	09/18/2020	09:00	-134.710	49.212	0	963.10	0	3.1730	0	34.3350	0	27.345	0	952.702	0	9.0	4	2.8	4	-1E+10	1	-1E+10	1	-1E+10	1	-1E+10	1	-1E+10	1	-1E+10	1
4902549	4	C	09/18/2020	09:00	-134.710	49.212	0	987.60	0	3.1450	0	34.3410	0	27.352	0	976.880	0	9.0	4	2.8	4	-1E+10	1	-1E+10	1	-1E+10	1	-1E+10	1	-1E+10	1	-1E+10	1
4902549	4	C	09/18/2020	09:00	-134.710	49.212	0	1012.80	0	3.0960	0	34.3520	0	27.365	0	1001.747	0	8.8	4	2.7	4	-1E+10	1	-1E+10	1	-1E+10	1	-1E+10	1	-1E+10	1	-1E+10	1
4902549	4	C	09/18/2020	09:00	-134.710	49.212	0	1037.50	0	3.0500	0	34.3610	0	27.377	0	1026.117	0	8.7	4	2.7	4	-1E+10	1	-1E+10	1	-1E+10	1	-1E+10	1	-1E+10	1	-1E+10	1
4902549	4	C	09/18/2020	09:00	-134.710	49.212	0	1062.60	0	3.0010	0	34.3710	0	27.389	0	1050.879	0	8.6	4	2.7	4	-1E+10	1	-1E+10	1	-1E+10	1	-1E+10	1	-1E+10	1	-1E+10	1
4902549	4	C	09/18/2020	09:00	-134.710	49.212	0	1087.90	0	2.9650	0	34.3780	0	27.398	0	1075.835	0	8.6	4	2.7	4	-1E+10	1	-1E+10	1	-1E+10	1	-1E+10	1	-1E+10	1	-1E+10	1
4902549	4	C	09/18/2020	09:00	-134.710	49.212	0	1113.10	0	2.9240	0	34.3860	0	27.409	0	1100.689	0	8.7	4	2.7	4	-1E+10	1	-1E+10	1	-1E+10	1	-1E+10	1	-1E+10	1	-1E+10	1
4902549	4	C	09/18/2020	09:00	-134.710	49.212	0	1137.80	0	2.8640	0	34.3970	0	27.423	0	1125.048	0	8.7	4	2.7	4	-1E+10	1	-1E+10	1	-1E+10	1	-1E+10	1	-1E+10	1	-1E+10	1
4902549	4	C	09/18/2020	09:00	-134.710	49.212	0	1162.40	0	2.8170	0	34.4080	0	27.436	0	1149.305	0	8.7	4	2.7	4	-1E+10	1	-1E+10	1	-1E+10	1	-1E+10	1	-1E+10	1	-1E+10	1
4902549	4	C	09/18/2020	09:00	-134.710	49.212	0	1187.70	0	2.7910	0	34.4170	0	27.446	0	1174.249	0	8.8	4	2.7	4	-1E+10	1	-1E+10	1	-1E+10	1	-1E+10	1	-1E+10	1	-1E+10	1
4902549	4	C	09/18/2020	09:00	-134.710	49.212	0	1213.10	0	2.7700	0	34.4250	0	27.454	0	1199.289	0	8.9	4	2.7	4	-1E+10	1	-1E+10	1	-1E+10	1	-1E+10	1	-1E+10	1	-1E+10	1
4902549	4	C	09/18/2020	09:00	-134.710	49.212	0	1237.80	0	2.7500	0	34.4320	0	27.461	0	1223.636	0	9.5	4	2.9	4	-1E+10	1	-1E+10	1	-1E+10	1	-1E+10	1	-1E+10	1	-1E+10	1
4902549	4	C	09/18/2020	09:00	-134.710	49.212	0	1262.80	0	2.7200	0	34.4410	0	27.471	0	1248.276	0	10.2	4	3.1	4	-1E+10	1	-1E+10	1	-1E+10	1	-1E+10	1	-1E+10	1	-1E+10	1
4902549	4	C	09/18/2020	09:00	-134.710	49.212	0	1287.50	0	2.6790	0	34.4480	0	27.481	0	1272.617	0	10.7	4	3.3	4	-1E+10	1	-1E+10	1	-1E+10	1	-1E+10	1	-1E+10	1	-1E+10	1
4902549	4	C	09/18/2020	09:00	-134.710	49.212	0	1312.70	0	2.6390	0	34.4540	0	27.489	0	1297.448	0	11.5	4	3.5	4	-1E+10	1	-1E+10	1	-1E+10	1	-1E+10	1	-1E+10	1	-1E+10	1
4902549	4	C	09/18/2020	09:00	-134.710	49.212	0	1337.60	0	2.6050	0	34.4600	0	27.497	0	1321.981	0	12.1	4	3.7	4	-1E+10	1	-1E+10	1	-1E+10	1	-1E+10	1	-1E+10	1	-1E+10	1
4902549	4	C	09/18/2020	09:00	-134.710	49.212	0	1362.70	0	2.5710	0	34.4650	0	27.504	0	1346.708	0	12.8	4	3.9	4	-1E+10	1	-1E+10	1	-1E+10	1	-1E+10	1	-1E+10	1	-1E+10	1
4902549	4	C	09/18/2020	09:00	-134.710	49.212	0	1388.10	0	2.5320	0	34.4710	0	27.512	0	1371.727	0	13.7	4	4.2	4	-1E+10	1	-1E+10	1	-1E+10	1	-1E+10	1	-1E+10	1	-1E+10	1
4902549	4	C	09/18/2020	09:00	-134.710	49.212	0	1412.80	0	2.4930	0	34.4780	0	27.521	0	1396.054	0	14.9	4	4.6	4	-1E+10	1	-1E+10	1	-1E+10	1	-1E+10	1	-1E+10	1	-1E+10	1
4902549	4	C	09/18/2020	09:00	-134.710	49.212	0	1437.80	0	2.4640	0	34.4830	0	27.528	0	1420.674	0	16.0	4	4.9	4	-1E+10	1	-1E+10	1	-1E+10	1	-1E+10	1	-1E+10	1	-1E+10	1
4902549	4	C	09/18/2020	09:00	-134.710	49.212	0	1463.10	0	2.4270	0	34.4900	0	27.537	0	1445.586	0	17.4	4	5.3	4	-1E+10	1	-1E+10	1	-1E+10	1	-1E+10	1	-1E+10	1	-1E+10	1
4902549	4	C	09/18/2020	09:00	-134.710	49.212	0	1488.50	0	2.3880	0	34.4970	0	27.545	0	1470.593	0	19.0	4	5.8	4	-1E+10	1	-1E+10	1	-1E+10	1	-1E+10	1	-1E+10	1	-1E+10	1
4902549	4	C	09/18/2020	09:00	-134.710	49.212	0	1512.70	0	2.3540	0	34.5030	0	27.553	0	1494.416	0	20.4	4	6.2	4	-1E+10	1	-1E+10	1	-1E+10	1	-1E+10	1	-1E+10	1	-1E+10	1
4902549	4	C	09/18/2020	09:00	-134.710	49.212	0	1537.70	0	2.3110	0	34.5110	0	27.563	0	1519.025	0	22.7	4	6.9	4	-1E+10	1	-1E+10	1	-1E+10	1	-1E+10	1	-1E+10	1	-1E+10	1
4902549	4	C	09/18/2020	09:00	-134.710	49.212	0	1562.70	0	2.2750	0	34.5180	0	27.572	0	1543.630	0	24.4	4	7.4	4	-1E+10	1	-1E+10	1	-1E+10	1	-1E+10	1	-1E+10	1	-1E+10	1
4902549	4	C	09/18/2020	09:00	-134.710	49.212	0	1588.70	0	2.2510	0	34.5220	0	27.577	0	1569.216	0	25.8	4	7.8	4	-1E+10	1	-1E+10	1	-1E+10	1	-1E+10	1	-1E+10	1	-1E+10	1
4902549	4	C	09/18/2020	09:00	-134.710	49.212	0	1612.90	0	2.2320	0	34.5260	0	27.582	0	1593.028	0	26.7	4	8.1	4	-1E+10	1	-1E+10	1	-1E+10	1	-1E+10	1	-1E+10	1	-1E+10	1
4902549	4	C	09/18/2020	09:00	-134.710	49.212	0	1637.80	0	2.2170	0	34.5290	0	27.586	0	1617.527	0	27.6	4	8.4	4	-1E+10	1	-1E+10	1	-1E+10	1	-1E+10	1	-1E+10	1	-1E+10	1
4902549	4	C	09/18/2020	09:00	-134.710	49.212	0	1662.70	0	2.1980	0	34.5320	0	27.590	0	1642.022	0	28.9	4	8.7	4	-1E+10	1	-1E+10	1	-1E+10	1	-1E+10	1	-1E+10	1	-1E+10	1
4902549	4	C	09/18/2020	09:00	-134.710	49.212	0	1688.10	0	2.1730	0	34.5370	0	27.596	0	1667.006	0	30.4	4	9.2	4	-1E+10	1	-1E+10	1	-1E+10	1	-1E+10	1	-1E+10	1	-1E+10	1
4902549	4	C	09/18/2020	09:00	-134.710	49.212	0	1713.10	0	2.1460	0	34.5420	0	27.602	0	1691.594	0	31.7	4	9.6	4	-1E+10	1	-1E+10	1	-1E+10	1	-1E+10	1	-1E+10	1	-1E+10	1
4902549	4	C	09/18/2020	09:00	-134.710	49.212	0	1737.90	0	2.1320	0	34.5450	0	27.606	0	1715.983	0	32.8	4	9.9	4	-1E+10	1	-1E+10	1	-1E+10	1	-1E+10	1	-1E+10	1	-1E+10	1
4902549	4	C	09/18/2020	09:00	-134.710	49.212	0	1762.40	0	2.1130	0	34.5480	0	27.610	0	1740.073	0	33.8	4	10.2	4	-1E+10	1	-1E+10	1	-1E+10	1	-1E+10	1	-1E+10	1	-1E+10	1
4902549	4	C	09/18/2020	09:00	-134.710	49.212	0	1787.70	0	2.1010	0	34.5500	0	27.613	0	1764.948	0	34.6	4	10.5	4	-1E+10	1	-1E+10	1	-1E+10	1	-1E+10	1	-1E+10	1	-1E+10	1
4902549	4	C	09/18/2020	09:00	-134.710	49.212	0	1813.00	0	2.0930	0	34.5520	0	27.615	0	1789.819	0	35.7	4	10.8	4	-1E+10	1	-1E+10	1	-1E+10	1	-1E+10	1	-1E+10	1	-1E+10	1
4902549	4	C	09/18/2020	09:00	-134.710	49.212	0	1838.30	0	2.0720	0	34.5560	0	27.620	0	1814.688	0	37.3	4	11.3	4	-1E+10	1	-1E+10	1	-1E+10	1	-1E+10	1	-1E+10	1	-1E+10	1
4902549	4	C	09/18/2020	09:00	-134.710	49.212	0	1863.10	0	2.0520	0	34.5600	0	27.625	0	1839.062	0	38.9	4	11.7	4	-1E+10	1	-1E+10	1	-1E+10	1	-1E+10	1	-1E+10	1	-1E+10	1
4902549	4	C	09/18/2020	09:00	-134.710	49.212	0	1887.90	0	2.0360	0	34.5630	0	27.629	0	1863.433	0	40.0	4	12.1	4	-1E+10	1	-1E+10	1	-1E+10	1	-1E+10	1	-1E+10	1	-1E+10	1
4902549	4	C	09/18/2020	09:00	-134.710	49.212	0	1912.70	0	2.0260	0	34.5650	0	27.631	0	1887.802	0	41.2	4	12.4	4	-1E+10	1	-1E+10	1	-1E+10	1	-1E+10	1	-1E+10	1	-1E+10	1
4902549	4	C	09/18/2020	09:00	-134.710	49.212	0	1937.90	0	2.0070	0	34.5690	0	27.636	0	1912.561	0	42.8	4	12.9	4	-1E+10	1	-1E+10	1	-1E+10	1	-1E+10	1	-1E+10	1	-1E+10	1
4902549	4	C	09/18/2020	09:00	-134.710	49.212	0	1963.30	0	1.9890	0	34.5720	0	27.640	0	1937.513	0	44.2	4	13.3	4	-1E+10	1	-1E+10	1	-1E+10	1	-1E+10	1	-1E+10	1	-1E+10	1
4902549	4	C	09/18/2020	09:00	-134.710	49.212	0	1988.10	0	1.9710	0	34.5760	0	27.645	0	1961.873	0	46.2	4	13.9	4	-1E+10	1	-1E+10	1	-1E+10	1	-1E+10	1	-1E+10	1	-1E+10	1
4902549	4	C	09/18/2020	09:00	-134.710	49.212	0	2014.30	0	1.9400	0	34.5820	0	27.652	0	1987.606	0	48.1	4	14.5	4	-1E+10	1	-1E+10	1	-1E+10	1	-1E+10	1	-1E+10	1	-1E+10	1
4902549	4	C	09/18/2020	09:00	-134.710	49.212	0	2026.30	0	1.9340	0	34.5830	0	27.653	0	1999.390	0	47.7	4	14.4	4	-1E+10	1	-1E+10	1	-1E+10	1	-1E+10	1	-1E+10	1	-1E+10	1
4902549	4	C	09/18/2020	09:00	-134.710	49.212	0																										
4902549	5	C	09/28/2020	09:08	-134.818	49.131	0	0.40	0	15.6920	0	32.2030	0	23.667	0	0.397	0	240.6	4	96.6	4	-1E+10	1	-1E+10	1	-1E+10	1	-1E+10	1	-1E+10	1	-1E+10	1
4902549	5	C	09/28/2020	09:08	-134.818	49.131	0	1.10	0	15.6960	0	32.2250	0	23.683	0	1.091	0	240.6	4	96.6	4	-1E+10	1	-1E+10	1	-1E+10	1	-1E+10	1	-1E+10	1	-1E+10	1
4902549	5	C	09/28/2020	09:08	-134.818	49.131	0	2.10	0	15.6960	0	32.2250	0	23.683	0	2.082	0	240.6	4	96.6	4	-1E+10	1	-1E+10	1	-1E+10	1	-1E+10	1	-1E+10	1	-1E+10	1
4902549	5	C	09/28/2020	09:08	-134.818	49.131	0	3.10	0	15.6970	0	32.2300	0	23.686	0	3.074	0	240.6	4	96.6	4	-1E+10	1	-1E+10	1	-1E+10	1	-1E+10	1	-1E+10	1	-1E+10	1
4902549	5	C	09/28/2020	09:08	-134.818	49.131	0	4.00	0	15.6970	0	32.2300	0	23.686	0	3.966	0	240.5	4	96.5	4	-1E+10	1	-1E+10	1	-1E+10	1	-1E+10	1	-1E+10	1	-1E+10	1
4902549	5	C	09/28/2020	09:08	-134.818	49.131	0	4.80	0	15.6980	0	32.2300	0	23.686	0	4.759	0	240.6	4	96.6	4	-1E+10	1	-1E+10	1	-1E+10	1	-1E+10	1	-1E+10	1	-1E+10	1
4902549	5	C	09/28/2020	09:08	-134.818	49.131	0	5.90	0	15.6980	0	32.2300	0	23.686	0	5.850	0	240.6	4	96.6	4	-1E+10	1	-1E+10	1	-1E+10	1	-1E+10	1	-1E+10	1	-1E+10	1
4902549	5	C	09/28/2020	09:08	-134.818	49.131	0	7.10	0	15.6990	0	32.2300	0	23.686	0	7.040	0	240.6	4	96.6	4	-1E+10	1	-1E+10	1	-1E+10	1	-1E+10	1	-1E+10	1	-1E+10	1
4902549	5	C	09/28/2020	09:08	-134.818	49.131	0	7.90	0	15.6990	0	32.2310	0	23.687	0	7.833	0	240.6	4	96.6	4	-1E+10	1	-1E+10	1	-1E+10	1	-1E+10	1	-1E+10	1	-1E+10	1
4902549	5	C	09/28/2020	09:08	-134.818	49.131	0	8.80	0	15.6990	0	32.2310	0	23.687	0	8.725	0	240.5	4	96.5	4	-1E+10	1	-1E+10	1	-1E+10	1	-1E+10	1	-1E+10	1	-1E+10	1
4902549	5	C	09/28/2020	09:08	-134.818	49.131	0	10.00	0	15.7000	0	32.2300	0	23.686	0	9.915	0	240.5	4	96.6	4	-1E+10	1	-1E+10	1	-1E+10	1	-1E+10	1	-1E+10	1	-1E+10	1
4902549	5	C	09/28/2020	09:08	-134.818	49.131	0	15.70	0	15.7010	0	32.2300	0	23.686	0	15.566	0	240.6	4	96.6	4	-1E+10	1	-1E+10	1	-1E+10	1	-1E+10	1	-1E+10	1	-1E+10	1
4902549	5	C	09/28/2020	09:08	-134.818	49.131	0	25.40	0	15.7010	0	32.2300	0	23.686	0	25.183	0	241.0	4	96.7	4	-1E+10	1	-1E+10	1	-1E+10	1	-1E+10	1	-1E+10	1	-1E+10	1
4902549	5	C	09/28/2020	09:08	-134.818	49.131	0	35.80	0	14.9150	0	32.2320	0	23.859	0	35.493	0	248.5	4	98.2	4	-1E+10	1	-1E+10	1	-1E+10	1	-1E+10	1	-1E+10	1	-1E+10	1
4902549	5	C	09/28/2020	09:08	-134.818	49.131	0	45.20	0	10.7070	0	32.3330	0	24.752	0	44.811	0	267.0	4	96.9	4	-1E+10	1	-1E+10	1	-1E+10	1	-1E+10	1	-1E+10	1	-1E+10	1
4902549	5	C	09/28/2020	09:08	-134.818	49.131	0	55.50	0	9.3630	0	32.3580	0	24.994	0	55.021	0	265.3	4	93.5	4	-1E+10	1	-1E+10	1	-1E+10	1	-1E+10	1	-1E+10	1	-1E+10	1
4902549	5	C	09/28/2020	09:08	-134.818	49.131	0	65.30	0	8.2770	0	32.3860	0	25.182	0	64.735	0	265.6	4	91.4	4	-1E+10	1	-1E+10	1	-1E+10	1	-1E+10	1	-1E+10	1	-1E+10	1
4902549	5	C	09/28/2020	09:08	-134.818	49.131	0	75.50	0	7.5860	0	32.4150	0	25.304	0	74.845	0	266.6	4	90.3	4	-1E+10	1	-1E+10	1	-1E+10	1	-1E+10	1	-1E+10	1	-1E+10	1
4902549	5	C	09/28/2020	09:08	-134.818	49.131	0	85.50	0	7.1270	0	32.4350	0	25.383	0	84.756	0	268.0	4	89.9	4	-1E+10	1	-1E+10	1	-1E+10	1	-1E+10	1	-1E+10	1	-1E+10	1
4902549	5	C	09/28/2020	09:08	-134.818	49.131	0	95.70	0	6.7410	0	32.4590	0	25.453	0	94.865	0	266.2	4	88.5	4	-1E+10	1	-1E+10	1	-1E+10	1	-1E+10	1	-1E+10	1	-1E+10	1
4902549	5	C	09/28/2020	09:08	-134.818	49.131	0	105.60	0	6.3720	0	32.5290	0	25.556	0	104.676	0	253.4	4	83.6	4	-1E+10	1	-1E+10	1	-1E+10	1	-1E+10	1	-1E+10	1	-1E+10	1
4902549	5	C	09/28/2020	09:08	-134.818	49.131	0	115.30	0	6.5330	0	32.7710	0	25.726	0	114.289	0	222.3	4	73.7	4	-1E+10	1	-1E+10	1	-1E+10	1	-1E+10	1	-1E+10	1	-1E+10	1
4902549	5	C	09/28/2020	09:08	-134.818	49.131	0	125.30	0	6.5820	0	32.9990	0	25.900	0	124.198	0	201.4	4	67.0	4	-1E+10	1	-1E+10	1	-1E+10	1	-1E+10	1	-1E+10	1	-1E+10	1
4902549	5	C	09/28/2020	09:08	-134.818	49.131	0	135.30	0	6.3490	0	33.2820	0	26.153	0	134.107	0	182.1	4	60.4	4	-1E+10	1	-1E+10	1	-1E+10	1	-1E+10	1	-1E+10	1	-1E+10	1
4902549	5	C	09/28/2020	09:08	-134.818	49.131	0	145.60	0	6.2100	0	33.4810	0	26.328	0	144.312	0	172.6	4	57.1	4	-1E+10	1	-1E+10	1	-1E+10	1	-1E+10	1	-1E+10	1	-1E+10	1
4902549	5	C	09/28/2020	09:08	-134.818	49.131	0	155.30	0	6.1570	0	33.5810	0	26.414	0	153.923	0	161.6	4	53.5	4	-1E+10	1	-1E+10	1	-1E+10	1	-1E+10	1	-1E+10	1	-1E+10	1
4902549	5	C	09/28/2020	09:08	-134.818	49.131	0	165.20	0	6.1310	0	33.6560	0	26.476	0	163.731	0	150.2	4	49.7	4	-1E+10	1	-1E+10	1	-1E+10	1	-1E+10	1	-1E+10	1	-1E+10	1
4902549	5	C	09/28/2020	09:08	-134.818	49.131	0	175.50	0	6.0490	0	33.7170	0	26.535	0	173.935	0	138.8	4	45.8	4	-1E+10	1	-1E+10	1	-1E+10	1	-1E+10	1	-1E+10	1	-1E+10	1
4902549	5	C	09/28/2020	09:08	-134.818	49.131	0	185.40	0	6.0620	0	33.7610	0	26.568	0	183.743	0	124.5	4	41.1	4	-1E+10	1	-1E+10	1	-1E+10	1	-1E+10	1	-1E+10	1	-1E+10	1
4902549	5	C	09/28/2020	09:08	-134.818	49.131	0	195.30	0	5.9600	0	33.7950	0	26.608	0	193.550	0	111.7	4	36.8	4	-1E+10	1	-1E+10	1	-1E+10	1	-1E+10	1	-1E+10	1	-1E+10	1
4902549	5	C	09/28/2020	09:08	-134.818	49.131	0	212.90	0	5.8860	0	33.8500	0	26.661	0	210.983	0	95.5	4	31.5	4	-1E+10	1	-1E+10	1	-1E+10	1	-1E+10	1	-1E+10	1	-1E+10	1
4902549	5	C	09/28/2020	09:08	-134.818	49.131	0	238.00	0	5.6050	0	33.8770	0	26.716	0	235.842	0	81.6	4	26.7	4	-1E+10	1	-1E+10	1	-1E+10	1	-1E+10	1	-1E+10	1	-1E+10	1
4902549	5	C	09/28/2020	09:08	-134.818	49.131	0	262.60	0	5.3230	0	33.8900	0	26.760	0	260.204	0	73.2	4	23.8	4	-1E+10	1	-1E+10	1	-1E+10	1	-1E+10	1	-1E+10	1	-1E+10	1
4902549	5	C	09/28/2020	09:08	-134.818	49.131	0	288.40	0	5.1150	0	33.9060	0	26.797	0	285.751	0	66.0	4	21.4	4	-1E+10	1	-1E+10	1	-1E+10	1	-1E+10	1	-1E+10	1	-1E+10	1
4902549	5	C	09/28/2020	09:08	-134.818	49.131	0	312.60	0	4.9630	0	33.9220	0	26.828	0	309.710	0	60.4	4	19.5	4	-1E+10	1	-1E+10	1	-1E+10	1	-1E+10	1	-1E+10	1	-1E+10	1
4902549	5	C	09/28/2020	09:08	-134.818	49.131	0	337.70	0	4.8050	0	33.9360	0	26.857	0	334.558	0	57.4	4	18.4	4	-1E+10	1	-1E+10	1	-1E+10	1	-1E+10	1	-1E+10	1	-1E+10	1
4902549	5	C	09/28/2020	09:08	-134.818	49.131	0	363.00	0	4.5950	0	33.9380	0	26.882	0	359.601	0	60.1	4	19.2	4	-1E+10	1	-1E+10	1	-1E+10	1	-1E+10	1	-1E+10	1	-1E+10	1
4902549	5	C	09/28/2020	09:08	-134.818	49.131	0	388.20	0	4.4800	0	33.9490	0	26.903	0	384.541	0	56.3	4	18.0	4	-1E+10	1	-1E+10	1	-1E+10	1	-1E+10	1	-1E+10	1	-1E+10	1
4902549	5	C	09/28/2020	09:08	-134.818	49.131	0	412.90	0	4.4150	0	33.9710	0	26.928	0	408.984	0	50.6	4	16.1	4	-1E+10	1	-1E+10	1	-1E+10	1	-1E+10	1	-1E+10	1	-1E+10	1
4902549	5	C	09/28/2020	09:08	-134.818	49.131	0	437.60	0	4.3540	0	33.9920	0	26.951	0	433.424	0	46.0	4	14.6	4	-1E+10	1	-1E+10	1	-1E+10	1	-1E+10	1	-1E+10	1	-1E+10	1
4902549	5	C	09/28/2020	09:08	-134.818	49.131	0	462.90	0	4.2970	0	34.0110	0	26.972	0	458.455	0	41.4	4	13.1	4	-1E+10	1	-1E+10	1	-1E+10	1	-1E+10	1	-1E+10	1	-1E+10	1
4902549	5	C	09/28/2020	09:08	-134.818	49.131	0	488.30	0	4.2350	0	34.0360	0	26.999	0	483.582	0	36.4	4	11.6	4	-1E+10	1	-1E+10	1	-1E+10	1	-1E+10	1	-1E+10	1	-1E+10	1
4902549	5	C	09/28/2020	09:08	-134.818	49.131	0	513.30	0	4.1600	0	34.0610	0	27.027	0	508.309	0	32.5	4	10.3	4	-1E+10	1	-1E+10	1	-1E+10	1	-1E+10	1	-1E+10	1	-1E+10	1
4902549	5	C	09/28/2020	09:08	-134.818	49.131	0	538.10	0	4.0650	0	34.0920	0	27.061	0	532.836	0	27.8	4	8.8	4	-1E+10	1	-1E+10	1	-1E+10	1	-1E+10	1	-1E+10	1	-1E+10	1
4902549	5	C	09/28/2020	09:08	-134.818	49.131	0	562.30	0	4.0070	0	34.1110	0	27.082	0	556.767	0	24.9	4	7.9	4	-1E+10	1	-1E+10	1	-1E+10	1	-1E+10	1	-1E+10	1	-1E+10	1
4902549	5	C	09/28/2020	09:08	-134.818	49.131	0	587.70	0	3.9690	0	34.1300	0	27.102	0	581.882	0	21.6	4	6.8	4	-1E+10	1	-1E+10	1	-1E+10	1	-1E+10	1	-1E+10	1	-1E+10	1
4902549	5	C	09/28/2020	09:08	-134.818	49.131	0	612.60	0	3.9300	0	34.1520	0	27.123	0	606.499	0	18.2	4	5.7	4	-1E+10	1	-1E+10	1	-1E+10	1	-1E+10	1	-1E+10	1	-1E+10	1
4902549	5	C	09/28/2020	09:08	-134.818	49.131	0	637.80	0	3.9200	0	34.1790	0	27.146	0	631.410	0	14.4	4	4.5	4	-1E+10	1	-1E+10	1	-1E+10	1	-1E+10	1	-1E+10	1	-1E+10	1
4902549	5	C	09/28/2020	09:08	-134.818	49.131	0	662.70	0	3.9190	0	34.2060	0	27.168	0	656.021	0	11.4	4	3.6	4	-1E+10	1	-1E+10	1	-1E+10	1	-1E+10	1	-1E+10	1	-1E+10	1
4902549	5	C	09/28/2020	09:08	-134.818	49.131	0	687.50	0	3.8890	0	34.2190	0	27.181	0	680.531	0	10.3	4	3.3	4	-1E+10	1	-1E+10	1	-1E+10	1	-1E+10	1	-1E+10	1	-1E+10	1
4902549	5	C	09/28/2020	09:08	-134.818	49.131	0	713.00	0	3.8410	0	34.2320	0	27.197	0	705.729	0	9.6	4	3.0	4	-1E+10	1	-1E+10	1	-1E+10	1	-1E+10	1	-1E+10	1	-1E+10	1
4902549	5	C	09/28/2020	09:08	-134.818	49.131	0	737.90	0	3.7780	0	34.2440	0	27.213	0	730.332	0	9.3	4	2.9	4	-1E+10	1	-1E+10	1	-1E+10	1	-1E+10	1	-1E+10	1	-1E+10	1
4902549	5	C	09/28/2020	09:08	-134.818	49.131	0	762.70	0	3.7140	0	34.2530	0	27.226	0	754.833	0	9.1	4	2.8	4	-1E+10	1	-1E+10	1	-1E+10	1	-1E+10	1	-1E+10	1	-1E+10	1
4902549	5	C	09/28/2020	09:08	-134.818	49.131	0	787.60	0	3.6600	0	34.2620	0	27.239	0	779.429	0	9.0	4	2.8	4	-1E+10	1	-1E+10	1	-1E+10	1	-1E+10	1	-1E+10	1	-1E+10	1
4902549	5	C	09/28/2020	09:08	-134.818	49.131	0	812.70	0	3.5740	0	34.2710	0	27.255	0	804.221	0	9.2	4	2.9	4	-1E+10	1	-1E+10	1	-1E+10	1	-1E+10	1	-1E+10	1	-1E+10	1
4902549	5	C	09/28/2020	09:08	-134.818	49.131	0	837.70	0	3.4820	0	34.2790	0	27.270	0	828.910	0	9.4	4	2.9	4	-1E+10	1	-1E+10	1	-1E+10	1	-1E+10	1	-1E+10	1	-1E+10	1
4902549	5	C	09/28/2020	09:08	-134.818	49.131	0	862.80	0	3.4180	0	34.2880	0	27.283	0	853.696	0	9.3	4	2.9	4	-1E+10	1	-1E+10	1	-1E+10	1	-1E+10	1	-1E+10	1	-1E+10	1
4902549	5	C	09/28/2020	09:08	-134.818	49.131	0	887.50	0	3.3490	0	34.3000	0	27.300	0	878.083	0	9.0	4	2.8	4	-1E+10	1	-1E+10	1	-1E+10	1	-1E+10	1	-1E+10	1	-1E+10	1
4902549	5	C	09/28/2020	09:08	-134.818	49.131	0	912.80	0	3.2780	0	34.3130	0	27.317	0	903.060	0	8.8	4	2.7	4	-1E+10	1	-1E+10	1	-1E+10	1	-1E+10	1	-1E+10	1	-1E+10	1
4902549	5	C	09/28/2020	09:08	-134.818	49.131	0	938.00	0	3.2330	0	34.3230	0	27.329	0	927.935	0	8.7	4	2.7	4	-1E+10	1	-1E+10	1	-1E+10	1	-1E+10	1	-1E+10	1	-1E+10	1
4902549	5	C	09/28/2020	09:08	-134.818	49.131	0	962.90	0	3.1860	0	34.3320	0	27.341	0	952.512	0	8.8	4	2.7	4	-1E+10	1	-1E+10	1	-1E+10	1	-1E+10	1	-1E+10	1	-1E+10	1
4902549	5	C	09/28/2020	09:08	-134.818	49.131	0	988.10	0	3.1400	0	34.3430	0	27.354	0	977.381	0	8.9	4	2.7	4	-1E+10	1	-1E+10	1	-1E+10	1	-1E+10	1	-1E+10	1	-1E+10	1
4902549	5	C	09/28/2020	09:08	-134.818	49.131	0	1013.70	0	3.0730	0	34.3560	0	27.371	0	1002.642	0	8.7	4	2.7	4	-1E+10	1	-1E+10	1	-1E+10	1	-1E+10	1	-1E+10	1	-1E+10	1
4902549	5	C	09/28/2020	09:08	-134.818	49.131	0	1037.60	0	3.0250	0	34.3660	0	27.383	0	1026.223	0	8.7	4	2.7	4	-1E+10	1	-1E+10	1	-1E+10	1	-1E+10	1	-1E+10	1	-1E+10	1
4902549	5	C	09/28/2020	09:08	-134.818	49.131	0	1062.40	0	2.9830	0	34.3740	0	27.393	0	1050.689	0	8.6	4	2.7	4	-1E+10	1	-1E+10	1	-1E+10	1	-1E+10	1	-1E+10	1	-1E+10	1
4902549	5	C	09/28/2020	09:08	-134.818	49.131	0	1087.80	0	2.9460	0	34.3820	0	27.403	0	1075.744	0	8.6	4	2.6	4	-1E+10	1	-1E+10	1	-1E+10	1	-1E+10	1	-1E+10	1	-1E+10	1
4902549	5	C	09/28/2020	09:08	-134.818	49.131	0	1112.60	0	2.8990	0	34.3910	0	27.415	0	1100.204	0	8.6	4	2.6	4	-1E+10	1	-1E+10	1	-1E+10	1	-1E+10	1	-1E+10	1	-1E+10	1
4902549	5	C	09/28/2020	09:08	-134.818	49.131	0	1138.20	0	2.8740	0	34.3970	0	27.422	0	1125.450	0	8.6	4	2.6	4	-1E+10	1	-1E+10	1	-1E+10	1	-1E+10	1	-1E+10	1	-1E+10	1
4902549	5	C	09/28/2020	09:08	-134.818	49.131	0	1162.40	0	2.8500	0	34.4060	0	27.431	0	1149.313	0	8.5	4	2.6	4	-1E+10	1	-1E+10	1	-1E+10	1	-1E+10	1	-1E+10	1	-1E+10	1
4902549	5	C	09/28/2020	09:08	-134.818	49.131	0	1187.60	0	2.8390	0	34.4180	0	27.442	0	1174.159	0	8.7	4	2.7	4	-1E+10	1	-1E+10	1	-1E+10	1	-1E+10	1	-1E+10	1	-1E+10	1
4902549	5	C	09/28/2020	09:08	-134.818	49.131	0	1212.90	0	2.8190	0	34.4260	0	27.451	0	1199.101	0	9.1	4	2.8	4	-1E+10	1	-1E+10	1	-1E+10	1	-1E+10	1	-1E+10	1	-1E+10	1
4902549	5	C	09/28/2020	09:08	-134.818	49.131	0	1237.70	0	2.7990	0	34.4300	0	27.456	0	1223.546	0	9.4	4	2.9	4	-1E+10	1	-1E+10	1	-1E+10	1	-1E+10	1	-1E+10	1	-1E+10	1
4902549	5	C	09/28/2020	09:08	-134.818	49.131	0	1262.60	0	2.7600	0	34.4350	0	27.463	0	1248.088	0	9.7	4	3.0	4	-1E+10	1	-1E+10	1	-1E+10	1	-1E+10	1	-1E+10	1	-1E+10	1
4902549	5	C	09/28/2020	09:08	-134.818	49.131	0	1287.60	0	2.7270	0	34.4410	0	27.471	0	1272.725	0	10.2	4	3.1	4	-1E+10	1	-1E+10	1	-1E+10	1	-1E+10	1	-1E+10	1	-1E+10	1
4902549	5	C	09/28/2020	09:08	-134.818	49.131	0	1312.40	0	2.6790	0	34.4480	0	27.481	0	1297.162	0	10.8	4	3.3	4	-1E+10	1	-1E+10	1	-1E+10	1	-1E+10	1	-1E+10	1	-1E+10	1
4902549	5	C	09/28/2020	09:08	-134.818	49.131	0	1337.70	0	2.6420	0	34.4540	0	27.489	0	1322.089	0	11.5	4	3.5	4	-1E+10	1	-1E+10	1	-1E+10	1	-1E+10	1	-1E+10	1	-1E+10	1
4902549	5	C	09/28/2020	09:08	-134.818	49.131	0	1363.10	0	2.5960	0	34.4610	0	27.499	0	1347.111	0	12.3	4	3.8	4	-1E+10	1	-1E+10	1	-1E+10	1	-1E+10	1	-1E+10	1	-1E+10	1
4902549	5	C	09/28/2020	09:08	-134.818	49.131	0	1388.40	0	2.5560	0	34.4680	0	27.508	0	1372.032	0	13.1	4	4.0	4	-1E+10	1	-1E+10	1	-1E+10	1	-1E+10	1	-1E+10	1	-1E+10	1
4902549	5	C	09/28/2020	09:08	-134.818	49.131	0	1412.50	0	2.5120	0	34.4750	0	27.517	0	1395.769	0	14.3	4	4.4	4	-1E+10	1	-1E+10	1	-1E+10	1	-1E+10	1	-1E+10	1	-1E+10	1
4902549	5	C	09/28/2020	09:08	-134.818	49.131	0	1437.80	0	2.4840	0	34.4800	0	27.524	0	1420.684	0	15.2	4	4.6	4	-1E+10	1	-1E+10	1	-1E+10	1	-1E+10	1	-1E+10	1	-1E+10	1
4902549	5	C	09/28/2020	09:08	-134.818	49.131	0	1463.10	0	2.4490	0	34.4860	0	27.532	0	1445.596	0	16.3	4	5.0	4	-1E+10	1	-1E+10	1	-1E+10	1	-1E+10	1	-1E+10	1	-1E+10	1
4902549	5	C	09/28/2020	09:08	-134.818	49.131	0	1487.90	0	2.4240	0	34.4910	0	27.538	0	1470.013	0	17.4	4	5.3	4	-1E+10	1	-1E+10	1	-1E+10	1	-1E+10	1	-1E+10	1	-1E+10	1
4902549	5	C	09/28/2020	09:08	-134.818	49.131	0	1512.80	0	2.3990	0	34.4950	0	27.543	0	1494.526	0	18.3	4	5.6	4	-1E+10	1	-1E+10	1	-1E+10	1	-1E+10	1	-1E+10	1	-1E+10	1
4902549	5	C	09/28/2020	09:08	-134.818	49.131	0	1537.90	0	2.3630	0	34.5020	0	27.552	0	1519.233	0	19.8	4	6.0	4	-1E+10	1	-1E+10	1	-1E+10	1	-1E+10	1	-1E+10	1	-1E+10	1
4902549	5	C	09/28/2020	09:08	-134.818	49.131	0	1563.00	0	2.3340	0	34.5070	0	27.558	0	1543.936	0	21.2	4	6.5	4	-1E+10	1	-1E+10	1	-1E+10	1	-1E+10	1	-1E+10	1	-1E+10	1
4902549	5	C	09/28/2020	09:08	-134.818	49.131	0	1587.90	0	2.3050	0	34.5130	0	27.566	0	1568.440	0	22.8	4	6.9	4	-1E+10	1	-1E+10	1	-1E+10	1	-1E+10	1	-1E+10	1	-1E+10	1
4902549	5	C	09/28/2020	09:08	-134.818	49.131	0	1612.90	0	2.2810	0	34.5170	0	27.571	0	1593.040	0	24.2	4	7.4	4	-1E+10	1	-1E+10	1	-1E+10	1	-1E+10	1	-1E+10	1	-1E+10	1
4902549	5	C	09/28/2020	09:08	-134.818	49.131	0	1637.50	0	2.2490	0	34.5230	0	27.578	0	1617.243	0	26.1	4	7.9	4	-1E+10	1	-1E+10	1	-1E+10	1	-1E+10	1	-1E+10	1	-1E+10	1
4902549	5	C	09/28/2020	09:08	-134.818	49.131	0	1663.50	0	2.2130	0	34.5300	0	27.587	0	1642.821	0	27.6	4	8.4	4	-1E+10	1	-1E+10	1	-1E+10	1	-1E+10	1	-1E+10	1	-1E+10	1
4902549	5	C	09/28/2020	09:08	-134.818	49.131	0	1687.80	0	2.1880	0	34.5340	0	27.592	0	1666.723	0	28.6	4	8.7	4	-1E+10	1	-1E+10	1	-1E+10	1	-1E+10	1	-1E+10	1	-1E+10	1
4902549	5	C	09/28/2020	09:08	-134.818	49.131	0	1712.60	0	2.1690	0	34.5380	0	27.597	0	1691.115	0	29.9	4	9.0	4	-1E+10	1	-1E+10	1	-1E+10	1	-1E+10	1	-1E+10	1	-1E+10	1
4902549	5	C	09/28/2020	09:08	-134.818	49.131	0	1738.00	0	2.1450	0	34.5420	0	27.603	0	1716.093	0	31.7	4	9.6	4	-1E+10	1	-1E+10	1	-1E+10	1	-1E+10	1	-1E+10	1	-1E+10	1
4902549	5	C	09/28/2020	09:08	-134.818	49.131	0	1763.20	0	2.1230	0	34.5460	0	27.608	0	1740.873	0	33.3	4	10.1	4	-1E+10	1	-1E+10	1	-1E+10	1	-1E+10	1	-1E+10	1	-1E+10	1
4902549	5	C	09/28/2020	09:08	-134.818	49.131	0	1788.10	0	2.0980	0	34.5510	0	27.614	0	1765.354	0	35.4	4	10.7	4	-1E+10	1	-1E+10	1	-1E+10	1	-1E+10	1	-1E+10	1	-1E+10	1
4902549	5	C	09/28/2020	09:08	-134.818	49.131	0	1812.70	0	2.0720	0	34.5570	0	27.621	0	1789.537	0	37.6	4	11.4	4	-1E+10	1	-1E+10	1	-1E+10	1	-1E+10	1	-1E+10	1	-1E+10	1
4902549	5	C	09/28/2020	09:08	-134.818	49.131	0	1837.60	0	2.0480	0	34.5620	0	27.627	0	1814.013	0	39.4	4	11.9	4	-1E+10	1	-1E+10	1	-1E+10	1	-1E+10	1	-1E+10	1	-1E+10	1
4902549	5	C	09/28/2020	09:08	-134.818	49.131	0	1863.00	0	2.0250	0	34.5660	0	27.632	0	1838.977	0	41.1	4	12.4	4	-1E+10	1	-1E+10	1	-1E+10	1	-1E+10	1	-1E+10	1	-1E+10	1
4902549	5	C	09/28/2020	09:08	-134.818	49.131	0	1887.70	0	2.0060	0	34.5700	0	27.637	0	1863.250	0	42.5	4	12.8	4	-1E+10	1	-1E+10	1	-1E+10	1	-1E+10	1	-1E+10	1	-1E+10	1
4902549	5	C	09/28/2020	09:08	-134.818	49.131	0	1912.70	0	1.9950	0	34.5730	0	27.640	0	1887.816	0	44.0	4	13.3	4	-1E+10	1	-1E+10	1	-1E+10	1	-1E+10	1	-1E+10	1	-1E+10	1
4902549	5	C	09/28/2020	09:08	-134.818	49.131	0	1937.60	0	1.9760	0	34.5760	0	27.644	0	1912.280	0	45.3	4	13.6	4	-1E+10	1	-1E+10	1	-1E+10	1	-1E+10	1	-1E+10	1	-1E+10	1
4902549	5	C	09/28/2020	09:08	-134.818	49.131	0	1959.10	0	1.9740	0	34.5770	0	27.645	0	1933.402	0	45.2	4	13.6	4	-1E+10	1	-1E+10	1	-1E+10	1	-1E+10	1	-1E+10	1	-1E+10	1
4902549	5	C	09/28/2020	09:08	-134.818	49.131	0																										
4902549	6	C	10/08/2020	09:08	-134.859	49.042	0	0.20	0	15.8210	0	32.2190	0	23.650	0	0.198	0	242.3	4	97.5	4	-1E+10	1	-1E+10	1	-1E+10	1	-1E+10	1	-1E+10	1	-1E+10	1
4902549	6	C	10/08/2020	09:08	-134.859	49.042	0	1.00	0	15.8220	0	32.2160	0	23.648	0	0.992	0	242.3	4	97.5	4	-1E+10	1	-1E+10	1	-1E+10	1	-1E+10	1	-1E+10	1	-1E+10	1
4902549	6	C	10/08/2020	09:08	-134.859	49.042	0	1.90	0	15.8240	0	32.2150	0	23.647	0	1.884	0	242.2	4	97.4	4	-1E+10	1	-1E+10	1	-1E+10	1	-1E+10	1	-1E+10	1	-1E+10	1
4902549	6	C	10/08/2020	09:08	-134.859	49.042	0	2.80	0	15.8230	0	32.2160	0	23.648	0	2.776	0	242.3	4	97.5	4	-1E+10	1	-1E+10	1	-1E+10	1	-1E+10	1	-1E+10	1	-1E+10	1
4902549	6	C	10/08/2020	09:08	-134.859	49.042	0	3.80	0	15.8230	0	32.2240	0	23.654	0	3.768	0	242.3	4	97.5	4	-1E+10	1	-1E+10	1	-1E+10	1	-1E+10	1	-1E+10	1	-1E+10	1
4902549	6	C	10/08/2020	09:08	-134.859	49.042	0	4.90	0	15.8230	0	32.2250	0	23.655	0	4.858	0	242.2	4	97.5	4	-1E+10	1	-1E+10	1	-1E+10	1	-1E+10	1	-1E+10	1	-1E+10	1
4902549	6	C	10/08/2020	09:08	-134.859	49.042	0	6.10	0	15.8230	0	32.2250	0	23.655	0	6.048	0	242.2	4	97.5	4	-1E+10	1	-1E+10	1	-1E+10	1	-1E+10	1	-1E+10	1	-1E+10	1
4902549	6	C	10/08/2020	09:08	-134.859	49.042	0	6.90	0	15.8220	0	32.2240	0	23.654	0	6.841	0	242.3	4	97.5	4	-1E+10	1	-1E+10	1	-1E+10	1	-1E+10	1	-1E+10	1	-1E+10	1
4902549	6	C	10/08/2020	09:08	-134.859	49.042	0	7.70	0	15.8220	0	32.2250	0	23.655	0	7.635	0	242.2	4	97.4	4	-1E+10	1	-1E+10	1	-1E+10	1	-1E+10	1	-1E+10	1	-1E+10	1
4902549	6	C	10/08/2020	09:08	-134.859	49.042	0	8.90	0	15.8220	0	32.2250	0	23.655	0	8.824	0	242.2	4	97.5	4	-1E+10	1	-1E+10	1	-1E+10	1	-1E+10	1	-1E+10	1	-1E+10	1
4902549	6	C	10/08/2020	09:08	-134.859	49.042	0	10.10	0	15.8210	0	32.2250	0	23.655	0	10.014	0	242.3	4	97.5	4	-1E+10	1	-1E+10	1	-1E+10	1	-1E+10	1	-1E+10	1	-1E+10	1
4902549	6	C	10/08/2020	09:08	-134.859	49.042	0	15.80	0	15.8230	0	32.2240	0	23.654	0	15.665	0	242.3	4	97.5	4	-1E+10	1	-1E+10	1	-1E+10	1	-1E+10	1	-1E+10	1	-1E+10	1
4902549	6	C	10/08/2020	09:08	-134.859	49.042	0	25.00	0	15.8220	0	32.2240	0	23.655	0	24.786	0	242.8	4	97.7	4	-1E+10	1	-1E+10	1	-1E+10	1	-1E+10	1	-1E+10	1	-1E+10	1
4902549	6	C	10/08/2020	09:08	-134.859	49.042	0	35.10	0	13.3580	0	32.2550	0	24.198	0	34.799	0	256.6	4	98.3	4	-1E+10	1	-1E+10	1	-1E+10	1	-1E+10	1	-1E+10	1	-1E+10	1
4902549	6	C	10/08/2020	09:08	-134.859	49.042	0	45.10	0	10.1410	0	32.3320	0	24.847	0	44.712	0	266.0	4	95.3	4	-1E+10	1	-1E+10	1	-1E+10	1	-1E+10	1	-1E+10	1	-1E+10	1
4902549	6	C	10/08/2020	09:08	-134.859	49.042	0	55.10	0	9.3340	0	32.3630	0	25.003	0	54.625	0	264.6	4	93.2	4	-1E+10	1	-1E+10	1	-1E+10	1	-1E+10	1	-1E+10	1	-1E+10	1
4902549	6	C	10/08/2020	09:08	-134.859	49.042	0	65.50	0	8.7110	0	32.3870	0	25.118	0	64.934	0	263.3	4	91.5	4	-1E+10	1	-1E+10	1	-1E+10	1	-1E+10	1	-1E+10	1	-1E+10	1
4902549	6	C	10/08/2020	09:08	-134.859	49.042	0	75.10	0	8.1100	0	32.4160	0	25.230	0	74.449	0	262.5	4	90.0	4	-1E+10	1	-1E+10	1	-1E+10	1	-1E+10	1	-1E+10	1	-1E+10	1
4902549	6	C	10/08/2020	09:08	-134.859	49.042	0	85.70	0	7.6320	0	32.4420	0	25.319	0	84.955	0	262.9	4	89.2	4	-1E+10	1	-1E+10	1	-1E+10	1	-1E+10	1	-1E+10	1	-1E+10	1
4902549	6	C	10/08/2020	09:08	-134.859	49.042	0	95.20	0	7.2100	0	32.4420	0	25.377	0	94.370	0	262.9	4	88.3	4	-1E+10	1	-1E+10	1	-1E+10	1	-1E+10	1	-1E+10	1	-1E+10	1
4902549	6	C	10/08/2020	09:08	-134.859	49.042	0	105.40	0	6.7410	0	32.4930	0	25.480	0	104.479	0	253.7	4	84.4	4	-1E+10	1	-1E+10	1	-1E+10	1	-1E+10	1	-1E+10	1	-1E+10	1
4902549	6	C	10/08/2020	09:08	-134.859	49.042	0	115.50	0	6.6610	0	32.7440	0	25.688	0	114.488	0	225.9	4	75.1	4	-1E+10	1	-1E+10	1	-1E+10	1	-1E+10	1	-1E+10	1	-1E+10	1
4902549	6	C	10/08/2020	09:08	-134.859	49.042	0	125.40	0	6.7550	0	33.0290	0	25.901	0	124.298	0	205.0	4	68.5	4	-1E+10	1	-1E+10	1	-1E+10	1	-1E+10	1	-1E+10	1	-1E+10	1
4902549	6	C	10/08/2020	09:08	-134.859	49.042	0	135.30	0	6.5430	0	33.2940	0	26.137	0	134.108	0	189.4	4	63.1	4	-1E+10	1	-1E+10	1	-1E+10	1	-1E+10	1	-1E+10	1	-1E+10	1
4902549	6	C	10/08/2020	09:08	-134.859	49.042	0	145.40	0	6.3110	0	33.4380	0	26.281	0	144.115	0	180.1	4	59.7	4	-1E+10	1	-1E+10	1	-1E+10	1	-1E+10	1	-1E+10	1	-1E+10	1
4902549	6	C	10/08/2020	09:08	-134.859	49.042	0	155.40	0	6.1040	0	33.5440	0	26.391	0	154.023	0	172.0	4	56.8	4	-1E+10	1	-1E+10	1	-1E+10	1	-1E+10	1	-1E+10	1	-1E+10	1
4902549	6	C	10/08/2020	09:08	-134.859	49.042	0	165.70	0	6.0170	0	33.6270	0	26.468	0	164.228	0	163.8	4	54.0	4	-1E+10	1	-1E+10	1	-1E+10	1	-1E+10	1	-1E+10	1	-1E+10	1
4902549	6	C	10/08/2020	09:08	-134.859	49.042	0	175.70	0	5.9130	0	33.6660	0	26.511	0	174.135	0	156.3	4	51.4	4	-1E+10	1	-1E+10	1	-1E+10	1	-1E+10	1	-1E+10	1	-1E+10	1
4902549	6	C	10/08/2020	09:08	-134.859	49.042	0	185.50	0	5.8160	0	33.6980	0	26.549	0	183.843	0	150.6	4	49.5	4	-1E+10	1	-1E+10	1	-1E+10	1	-1E+10	1	-1E+10	1	-1E+10	1
4902549	6	C	10/08/2020	09:08	-134.859	49.042	0	195.50	0	5.7110	0	33.7340	0	26.590	0	193.749	0	145.4	4	47.7	4	-1E+10	1	-1E+10	1	-1E+10	1	-1E+10	1	-1E+10	1	-1E+10	1
4902549	6	C	10/08/2020	09:08	-134.859	49.042	0	212.70	0	5.5970	0	33.7590	0	26.624	0	210.786	0	137.4	4	44.9	4	-1E+10	1	-1E+10	1	-1E+10	1	-1E+10	1	-1E+10	1	-1E+10	1
4902549	6	C	10/08/2020	09:08	-134.859	49.042	0	238.50	0	5.3710	0	33.7890	0	26.675	0	236.340	0	123.8	4	40.3	4	-1E+10	1	-1E+10	1	-1E+10	1	-1E+10	1	-1E+10	1	-1E+10	1
4902549	6	C	10/08/2020	09:08	-134.859	49.042	0	262.90	0	5.0940	0	33.8150	0	26.728	0	260.503	0	109.3	4	35.3	4	-1E+10	1	-1E+10	1	-1E+10	1	-1E+10	1	-1E+10	1	-1E+10	1
4902549	6	C	10/08/2020	09:08	-134.859	49.042	0	288.00	0	4.9050	0	33.8400	0	26.769	0	285.357	0	95.1	4	30.6	4	-1E+10	1	-1E+10	1	-1E+10	1	-1E+10	1	-1E+10	1	-1E+10	1
4902549	6	C	10/08/2020	09:08	-134.859	49.042	0	313.00	0	4.7210	0	33.8720	0	26.815	0	310.109	0	80.1	4	25.7	4	-1E+10	1	-1E+10	1	-1E+10	1	-1E+10	1	-1E+10	1	-1E+10	1
4902549	6	C	10/08/2020	09:08	-134.859	49.042	0	337.90	0	4.6140	0	33.9020	0	26.851	0	334.759	0	70.0	4	22.4	4	-1E+10	1	-1E+10	1	-1E+10	1	-1E+10	1	-1E+10	1	-1E+10	1
4902549	6	C	10/08/2020	09:08	-134.859	49.042	0	363.50	0	4.5280	0	33.9310	0	26.883	0	360.099	0	62.0	4	19.8	4	-1E+10	1	-1E+10	1	-1E+10	1	-1E+10	1	-1E+10	1	-1E+10	1
4902549	6	C	10/08/2020	09:08	-134.859	49.042	0	388.00	0	4.4520	0	33.9560	0	26.911	0	384.347	0	56.6	4	18.0	4	-1E+10	1	-1E+10	1	-1E+10	1	-1E+10	1	-1E+10	1	-1E+10	1
4902549	6	C	10/08/2020	09:08	-134.859	49.042	0	413.20	0	4.3940	0	33.9770	0	26.935	0	409.285	0	50.9	4	16.2	4	-1E+10	1	-1E+10	1	-1E+10	1	-1E+10	1	-1E+10	1	-1E+10	1
4902549	6	C	10/08/2020	09:08	-134.859	49.042	0	437.90	0	4.3210	0	34.0020	0	26.962	0	433.725	0	44.4	4	14.1	4	-1E+10	1	-1E+10	1	-1E+10	1	-1E+10	1	-1E+10	1	-1E+10	1
4902549	6	C	10/08/2020	09:08	-134.859	49.042	0	462.80	0	4.2530	0	34.0260	0	26.989	0	458.360	0	39.0	4	12.4	4	-1E+10	1	-1E+10	1	-1E+10	1	-1E+10	1	-1E+10	1	-1E+10	1
4902549	6	C	10/08/2020	09:08	-134.859	49.042	0	487.80	0	4.1940	0	34.0500	0	27.014	0	483.091	0	33.5	4	10.6	4	-1E+10	1	-1E+10	1	-1E+10	1	-1E+10	1	-1E+10	1	-1E+10	1
4902549	6	C	10/08/2020	09:08	-134.859	49.042	0	513.00	0	4.1400	0	34.0720	0	27.037	0	508.017	0	30.0	4	9.5	4	-1E+10	1	-1E+10	1	-1E+10	1	-1E+10	1	-1E+10	1	-1E+10	1
4902549	6	C	10/08/2020	09:08	-134.859	49.042	0	537.70	0	4.0670	0	34.0930	0	27.062	0	532.445	0	27.9	4	8.8	4	-1E+10	1	-1E+10	1	-1E+10	1	-1E+10	1	-1E+10	1	-1E+10	1
4902549	6	C	10/08/2020	09:08	-134.859	49.042	0	563.40	0	4.0290	0	34.1040	0	27.075	0	557.860	0	26.1	4	8.3	4	-1E+10	1	-1E+10	1	-1E+10	1	-1E+10	1	-1E+10	1	-1E+10	1
4902549	6	C	10/08/2020	09:08	-134.859	49.042	0	587.70	0	3.9910	0	34.1180	0	27.090	0	581.887	0	23.5	4	7.4	4	-1E+10	1	-1E+10	1	-1E+10	1	-1E+10	1	-1E+10	1	-1E+10	1
4902549	6	C	10/08/2020	09:08	-134.859	49.042	0	612.50	0	3.9450	0	34.1430	0	27.115	0	606.405	0	18.9	4	5.9	4	-1E+10	1	-1E+10	1	-1E+10	1	-1E+10	1	-1E+10	1	-1E+10	1
4902549	6	C	10/08/2020	09:08	-134.859	49.042	0	637.80	0	3.9410	0	34.1750	0	27.141	0	631.415	0	15.1	4	4.8	4	-1E+10	1	-1E+10	1	-1E+10	1	-1E+10	1	-1E+10	1	-1E+10	1
4902549	6	C	10/08/2020	09:08	-134.859	49.042	0	663.00	0	3.9070	0	34.1920	0	27.158	0	656.323	0	13.1	4	4.1	4	-1E+10	1	-1E+10	1	-1E+10	1	-1E+10	1	-1E+10	1	-1E+10	1
4902549	6	C	10/08/2020	09:08	-134.859	49.042	0	688.10	0	3.8740	0	34.2110	0	27.176	0	681.130	0	11.2	4	3.5	4	-1E+10	1	-1E+10	1	-1E+10	1	-1E+10	1	-1E+10	1	-1E+10	1
4902549	6	C	10/08/2020	09:08	-134.859	49.042	0	713.20	0	3.8450	0	34.2280	0	27.193	0	705.933	0	9.9	4	3.1	4	-1E+10	1	-1E+10	1	-1E+10	1	-1E+10	1	-1E+10	1	-1E+10	1
4902549	6	C	10/08/2020	09:08	-134.859	49.042	0	738.00	0	3.8060	0	34.2380	0	27.205	0	730.437	0	9.4	4	3.0	4	-1E+10	1	-1E+10	1	-1E+10	1	-1E+10	1	-1E+10	1	-1E+10	1
4902549	6	C	10/08/2020	09:08	-134.859	49.042	0	762.80	0	3.7400	0	34.2500	0	27.221	0	754.938	0	9.1	4	2.9	4	-1E+10	1	-1E+10	1	-1E+10	1	-1E+10	1	-1E+10	1	-1E+10	1
4902549	6	C	10/08/2020	09:08	-134.859	49.042	0	787.60	0	3.6490	0	34.2620	0	27.240	0	779.436	0	9.1	4	2.8	4	-1E+10	1	-1E+10	1	-1E+10	1	-1E+10	1	-1E+10	1	-1E+10	1
4902549	6	C	10/08/2020	09:08	-134.859	49.042	0	812.60	0	3.5480	0	34.2720	0	27.258	0	804.129	0	9.3	4	2.9	4	-1E+10	1	-1E+10	1	-1E+10	1	-1E+10	1	-1E+10	1	-1E+10	1
4902549	6	C	10/08/2020	09:08	-134.859	49.042	0	838.70	0	3.4630	0	34.2820	0	27.274	0	829.905	0	9.2	4	2.9	4	-1E+10	1	-1E+10	1	-1E+10	1	-1E+10	1	-1E+10	1	-1E+10	1
4902549	6	C	10/08/2020	09:08	-134.859	49.042	0	862.80	0	3.3820	0	34.2940	0	27.292	0	853.703	0	9.1	4	2.8	4	-1E+10	1	-1E+10	1	-1E+10	1	-1E+10	1	-1E+10	1	-1E+10	1
4902549	6	C	10/08/2020	09:08	-134.859	49.042	0	887.90	0	3.3230	0	34.3050	0	27.306	0	878.485	0	8.9	4	2.8	4	-1E+10	1	-1E+10	1	-1E+10	1	-1E+10	1	-1E+10	1	-1E+10	1
4902549	6	C	10/08/2020	09:08	-134.859	49.042	0	913.20	0	3.2650	0	34.3160	0	27.321	0	903.463	0	8.8	4	2.7	4	-1E+10	1	-1E+10	1	-1E+10	1	-1E+10	1	-1E+10	1	-1E+10	1
4902549	6	C	10/08/2020	09:08	-134.859	49.042	0	937.80	0	3.2060	0	34.3280	0	27.336	0	927.746	0	8.9	4	2.8	4	-1E+10	1	-1E+10	1	-1E+10	1	-1E+10	1	-1E+10	1	-1E+10	1
4902549	6	C	10/08/2020	09:08	-134.859	49.042	0	962.90	0	3.1590	0	34.3390	0	27.349	0	952.520	0	8.9	4	2.8	4	-1E+10	1	-1E+10	1	-1E+10	1	-1E+10	1	-1E+10	1	-1E+10	1
4902549	6	C	10/08/2020	09:08	-134.859	49.042	0	988.20	0	3.1160	0	34.3480	0	27.360	0	977.488	0	8.7	4	2.7	4	-1E+10	1	-1E+10	1	-1E+10	1	-1E+10	1	-1E+10	1	-1E+10	1
4902549	6	C	10/08/2020	09:08	-134.859	49.042	0	1013.10	0	3.0640	0	34.3580	0	27.373	0	1002.058	0	8.6	4	2.6	4	-1E+10	1	-1E+10	1	-1E+10	1	-1E+10	1	-1E+10	1	-1E+10	1
4902549	6	C	10/08/2020	09:08	-134.859	49.042	0	1038.70	0	3.0290	0	34.3700	0	27.386	0	1027.317	0	7.8	4	2.4	4	-1E+10	1	-1E+10	1	-1E+10	1	-1E+10	1	-1E+10	1	-1E+10	1
4902549	6	C	10/08/2020	09:08	-134.859	49.042	0	1062.80	0	3.0080	0	34.3820	0	27.398	0	1051.092	0	7.5	4	2.3	4	-1E+10	1	-1E+10	1	-1E+10	1	-1E+10	1	-1E+10	1	-1E+10	1
4902549	6	C	10/08/2020	09:08	-134.859	49.042	0	1087.70	0	2.9840	0	34.3920	0	27.408	0	1075.654	0	7.6	4	2.3	4	-1E+10	1	-1E+10	1	-1E+10	1	-1E+10	1	-1E+10	1	-1E+10	1
4902549	6	C	10/08/2020	09:08	-134.859	49.042	0	1112.60	0	2.9440	0	34.4020	0	27.420	0	1100.213	0	7.8	4	2.4	4	-1E+10	1	-1E+10	1	-1E+10	1	-1E+10	1	-1E+10	1	-1E+10	1
4902549	6	C	10/08/2020	09:08	-134.859	49.042	0	1137.60	0	2.9140	0	34.4080	0	27.427	0	1124.868	0	8.0	4	2.5	4	-1E+10	1	-1E+10	1	-1E+10	1	-1E+10	1	-1E+10	1	-1E+10	1
4902549	6	C	10/08/2020	09:08	-134.859	49.042	0	1163.00	0	2.8830	0	34.4130	0	27.434	0	1149.914	0	8.3	4	2.5	4	-1E+10	1	-1E+10	1	-1E+10	1	-1E+10	1	-1E+10	1	-1E+10	1
4902549	6	C	10/08/2020	09:08	-134.859	49.042	0	1187.80	0	2.8520	0	34.4180	0	27.441	0	1174.366	0	8.5	4	2.6	4	-1E+10	1	-1E+10	1	-1E+10	1	-1E+10	1	-1E+10	1	-1E+10	1
4902549	6	C	10/08/2020	09:08	-134.859	49.042	0	1212.40	0	2.8150	0	34.4240	0	27.449	0	1198.618	0	8.9	4	2.7	4	-1E+10	1	-1E+10	1	-1E+10	1	-1E+10	1	-1E+10	1	-1E+10	1
4902549	6	C	10/08/2020	09:08	-134.859	49.042	0	1237.50	0	2.7780	0	34.4310	0	27.458	0	1223.359	0	9.4	4	2.9	4	-1E+10	1	-1E+10	1	-1E+10	1	-1E+10	1	-1E+10	1	-1E+10	1
4902549	6	C	10/08/2020	09:08	-134.859	49.042	0	1262.90	0	2.7260	0	34.4390	0	27.469	0	1248.394	0	9.8	4	3.0	4	-1E+10	1	-1E+10	1	-1E+10	1	-1E+10	1	-1E+10	1	-1E+10	1
4902549	6	C	10/08/2020	09:08	-134.859	49.042	0	1288.10	0	2.6790	0	34.4470	0	27.480	0	1273.228	0	10.4	4	3.2	4	-1E+10	1	-1E+10	1	-1E+10	1	-1E+10	1	-1E+10	1	-1E+10	1
4902549	6	C	10/08/2020	09:08	-134.859	49.042	0	1312.70	0	2.6490	0	34.4510	0	27.486	0	1297.468	0	11.0	4	3.4	4	-1E+10	1	-1E+10	1	-1E+10	1	-1E+10	1	-1E+10	1	-1E+10	1
4902549	6	C	10/08/2020	09:08	-134.859	49.042	0	1337.80	0	2.6030	0	34.4590	0	27.496	0	1322.198	0	11.8	4	3.6	4	-1E+10	1	-1E+10	1	-1E+10	1	-1E+10	1	-1E+10	1	-1E+10	1
4902549	6	C	10/08/2020	09:08	-134.859	49.042	0	1363.10	0	2.5650	0	34.4650	0	27.504	0	1347.123	0	12.6	4	3.8	4	-1E+10	1	-1E+10	1	-1E+10	1	-1E+10	1	-1E+10	1	-1E+10	1
4902549	6	C	10/08/2020	09:08	-134.859	49.042	0	1388.00	0	2.5280	0	34.4710	0	27.512	0	1371.650	0	13.6	4	4.1	4	-1E+10	1	-1E+10	1	-1E+10	1	-1E+10	1	-1E+10	1	-1E+10	1
4902549	6	C	10/08/2020	09:08	-134.859	49.042	0	1412.60	0	2.4900	0	34.4780	0	27.521	0	1395.879	0	14.8	4	4.5	4	-1E+10	1	-1E+10	1	-1E+10	1	-1E+10	1	-1E+10	1	-1E+10	1
4902549	6	C	10/08/2020	09:08	-134.859	49.042	0	1438.80	0	2.4650	0	34.4830	0	27.528	0	1421.680	0	15.8	4	4.8	4	-1E+10	1	-1E+10	1	-1E+10	1	-1E+10	1	-1E+10	1	-1E+10	1
4902549	6	C	10/08/2020	09:08	-134.859	49.042	0	1462.90	0	2.4310	0	34.4890	0	27.535	0	1445.411	0	17.0	4	5.2	4	-1E+10	1	-1E+10	1	-1E+10	1	-1E+10	1	-1E+10	1	-1E+10	1
4902549	6	C	10/08/2020	09:08	-134.859	49.042	0	1487.70	0	2.3990	0	34.4940	0	27.542	0	1469.828	0	18.1	4	5.5	4	-1E+10	1	-1E+10	1	-1E+10	1	-1E+10	1	-1E+10	1	-1E+10	1
4902549	6	C	10/08/2020	09:08	-134.859	49.042	0	1512.80	0	2.3620	0	34.5010	0	27.551	0	1494.538	0	19.6	4	6.0	4	-1E+10	1	-1E+10	1	-1E+10	1	-1E+10	1	-1E+10	1	-1E+10	1
4902549	6	C	10/08/2020	09:08	-134.859	49.042	0	1537.70	0	2.3330	0	34.5070	0	27.558	0	1519.048	0	21.1	4	6.4	4	-1E+10	1	-1E+10	1	-1E+10	1	-1E+10	1	-1E+10	1	-1E+10	1
4902549	6	C	10/08/2020	09:08	-134.859	49.042	0	1563.20	0	2.3000	0	34.5130	0	27.566	0	1544.146	0	22.6	4	6.9	4	-1E+10	1	-1E+10	1	-1E+10	1	-1E+10	1	-1E+10	1	-1E+10	1
4902549	6	C	10/08/2020	09:08	-134.859	49.042	0	1588.00	0	2.2720	0	34.5180	0	27.572	0	1568.552	0	23.7	4	7.2	4	-1E+10	1	-1E+10	1	-1E+10	1	-1E+10	1	-1E+10	1	-1E+10	1
4902549	6	C	10/08/2020	09:08	-134.859	49.042	0	1612.60	0	2.2520	0	34.5210	0	27.576	0	1592.758	0	24.6	4	7.5	4	-1E+10	1	-1E+10	1	-1E+10	1	-1E+10	1	-1E+10	1	-1E+10	1
4902549	6	C	10/08/2020	09:08	-134.859	49.042	0	1637.60	0	2.2390	0	34.5240	0	27.580	0	1617.355	0	26.1	4	7.9	4	-1E+10	1	-1E+10	1	-1E+10	1	-1E+10	1	-1E+10	1	-1E+10	1
4902549	6	C	10/08/2020	09:08	-134.859	49.042	0	1664.10	0	2.2120	0	34.5300	0	27.587	0	1643.425	0	28.2	4	8.5	4	-1E+10	1	-1E+10	1	-1E+10	1	-1E+10	1	-1E+10	1	-1E+10	1
4902549	6	C	10/08/2020	09:08	-134.859	49.042	0	1688.00	0	2.1880	0	34.5350	0	27.593	0	1666.934	0	29.8	4	9.0	4	-1E+10	1	-1E+10	1	-1E+10	1	-1E+10	1	-1E+10	1	-1E+10	1
4902549	6	C	10/08/2020	09:08	-134.859	49.042	0	1712.90	0	2.1620	0	34.5400	0	27.599	0	1691.424	0	31.5	4	9.5	4	-1E+10	1	-1E+10	1	-1E+10	1	-1E+10	1	-1E+10	1	-1E+10	1
4902549	6	C	10/08/2020	09:08	-134.859	49.042	0	1737.90	0	2.1360	0	34.5450	0	27.606	0	1716.009	0	33.6	4	10.2	4	-1E+10	1	-1E+10	1	-1E+10	1	-1E+10	1	-1E+10	1	-1E+10	1
4902549	6	C	10/08/2020	09:08	-134.859	49.042	0	1762.80	0	2.1120	0	34.5490	0	27.611	0	1740.494	0	35.3	4	10.7	4	-1E+10	1	-1E+10	1	-1E+10	1	-1E+10	1	-1E+10	1	-1E+10	1
4902549	6	C	10/08/2020	09:08	-134.859	49.042	0	1787.90	0	2.0920	0	34.5530	0	27.616	0	1765.172	0	36.8	4	11.1	4	-1E+10	1	-1E+10	1	-1E+10	1	-1E+10	1	-1E+10	1	-1E+10	1
4902549	6	C	10/08/2020	09:08	-134.859	49.042	0	1813.00	0	2.0730	0	34.5570	0	27.621	0	1789.847	0	38.5	4	11.6	4	-1E+10	1	-1E+10	1	-1E+10	1	-1E+10	1	-1E+10	1	-1E+10	1
4902549	6	C	10/08/2020	09:08	-134.859	49.042	0	1838.00	0	2.0550	0	34.5610	0	27.625	0	1814.421	0	39.9	4	12.0	4	-1E+10	1	-1E+10	1	-1E+10	1	-1E+10	1	-1E+10	1	-1E+10	1
4902549	6	C	10/08/2020	09:08	-134.859	49.042	0	1862.70	0	2.0400	0	34.5640	0	27.629	0	1838.697	0	41.2	4	12.4	4	-1E+10	1	-1E+10	1	-1E+10	1	-1E+10	1	-1E+10	1	-1E+10	1
4902549	6	C	10/08/2020	09:08	-134.859	49.042	0	1887.60	0	2.0270	0	34.5660	0	27.632	0	1863.167	0	42.5	4	12.8	4	-1E+10	1	-1E+10	1	-1E+10	1	-1E+10	1	-1E+10	1	-1E+10	1
4902549	6	C	10/08/2020	09:08	-134.859	49.042	0	1912.60	0	2.0130	0	34.5690	0	27.635	0	1887.733	0	43.5	4	13.1	4	-1E+10	1	-1E+10	1	-1E+10	1	-1E+10	1	-1E+10	1	-1E+10	1
4902549	6	C	10/08/2020	09:08	-134.859	49.042	0	1938.50	0	2.0020	0	34.5720	0	27.639	0	1913.180	0	44.7	4	13.5	4	-1E+10	1	-1E+10	1	-1E+10	1	-1E+10	1	-1E+10	1	-1E+10	1
4902549	6	C	10/08/2020	09:08	-134.859	49.042	0	1962.80	0	1.9860	0	34.5750	0	27.643	0	1937.052	0	46.0	4	13.9	4	-1E+10	1	-1E+10	1	-1E+10	1	-1E+10	1	-1E+10	1	-1E+10	1
4902549	6	C	10/08/2020	09:08	-134.859	49.042	0	1987.80	0	1.9710	0	34.5780	0	27.646	0	1961.609	0	47.1	4	14.2	4	-1E+10	1	-1E+10	1	-1E+10	1	-1E+10	1	-1E+10	1	-1E+10	1
4902549	6	C	10/08/2020	09:08	-134.859	49.042	0	2013.60	0	1.9580	0	34.5810	0	27.650	0	1986.949	0	48.1	4	14.5	4	-1E+10	1	-1E+10	1	-1E+10	1	-1E+10	1	-1E+10	1	-1E+10	1
4902549	6	C	10/08/2020	09:08	-134.859	49.042	0	2026.60	0	1.9500	0	34.5830	0	27.652	0	1999.716	0	48.3	4	14.6	4	-1E+10	1	-1E+10	1	-1E+10	1	-1E+10	1	-1E+10	1	-1E+10	1
4902549	6	C	10/08/2020	09:08	-134.859	49.042	0																										
4902549	7	C	10/18/2020	09:08	-134.903	49.015	0	0.30	0	14.5100	0	32.1220	0	23.859	0	0.297	0	246.4	4	96.5	4	-1E+10	1	-1E+10	1	-1E+10	1	-1E+10	1	-1E+10	1	-1E+10	1
4902549	7	C	10/18/2020	09:08	-134.903	49.015	0	0.90	0	14.5100	0	32.1190	0	23.857	0	0.892	0	246.4	4	96.5	4	-1E+10	1	-1E+10	1	-1E+10	1	-1E+10	1	-1E+10	1	-1E+10	1
4902549	7	C	10/18/2020	09:08	-134.903	49.015	0	2.00	0	14.5110	0	32.1190	0	23.856	0	1.983	0	246.4	4	96.5	4	-1E+10	1	-1E+10	1	-1E+10	1	-1E+10	1	-1E+10	1	-1E+10	1
4902549	7	C	10/18/2020	09:08	-134.903	49.015	0	3.00	0	14.5120	0	32.1230	0	23.859	0	2.975	0	246.3	4	96.5	4	-1E+10	1	-1E+10	1	-1E+10	1	-1E+10	1	-1E+10	1	-1E+10	1
4902549	7	C	10/18/2020	09:08	-134.903	49.015	0	3.90	0	14.5130	0	32.1230	0	23.859	0	3.867	0	246.3	4	96.5	4	-1E+10	1	-1E+10	1	-1E+10	1	-1E+10	1	-1E+10	1	-1E+10	1
4902549	7	C	10/18/2020	09:08	-134.903	49.015	0	5.00	0	14.5140	0	32.1240	0	23.860	0	4.958	0	246.3	4	96.5	4	-1E+10	1	-1E+10	1	-1E+10	1	-1E+10	1	-1E+10	1	-1E+10	1
4902549	7	C	10/18/2020	09:08	-134.903	49.015	0	6.10	0	14.5140	0	32.1240	0	23.860	0	6.048	0	246.3	4	96.5	4	-1E+10	1	-1E+10	1	-1E+10	1	-1E+10	1	-1E+10	1	-1E+10	1
4902549	7	C	10/18/2020	09:08	-134.903	49.015	0	6.90	0	14.5140	0	32.1230	0	23.859	0	6.841	0	246.3	4	96.5	4	-1E+10	1	-1E+10	1	-1E+10	1	-1E+10	1	-1E+10	1	-1E+10	1
4902549	7	C	10/18/2020	09:08	-134.903	49.015	0	7.90	0	14.5150	0	32.1240	0	23.860	0	7.833	0	246.2	4	96.5	4	-1E+10	1	-1E+10	1	-1E+10	1	-1E+10	1	-1E+10	1	-1E+10	1
4902549	7	C	10/18/2020	09:08	-134.903	49.015	0	9.00	0	14.5150	0	32.1240	0	23.860	0	8.923	0	246.2	4	96.5	4	-1E+10	1	-1E+10	1	-1E+10	1	-1E+10	1	-1E+10	1	-1E+10	1
4902549	7	C	10/18/2020	09:08	-134.903	49.015	0	10.20	0	14.5140	0	32.1240	0	23.860	0	10.113	0	246.1	4	96.4	4	-1E+10	1	-1E+10	1	-1E+10	1	-1E+10	1	-1E+10	1	-1E+10	1
4902549	7	C	10/18/2020	09:08	-134.903	49.015	0	15.40	0	14.5160	0	32.1240	0	23.860	0	15.269	0	246.2	4	96.5	4	-1E+10	1	-1E+10	1	-1E+10	1	-1E+10	1	-1E+10	1	-1E+10	1
4902549	7	C	10/18/2020	09:08	-134.903	49.015	0	25.50	0	14.5180	0	32.1240	0	23.860	0	25.282	0	246.0	4	96.4	4	-1E+10	1	-1E+10	1	-1E+10	1	-1E+10	1	-1E+10	1	-1E+10	1
4902549	7	C	10/18/2020	09:08	-134.903	49.015	0	35.40	0	14.5140	0	32.1230	0	23.860	0	35.097	0	245.8	4	96.3	4	-1E+10	1	-1E+10	1	-1E+10	1	-1E+10	1	-1E+10	1	-1E+10	1
4902549	7	C	10/18/2020	09:08	-134.903	49.015	0	45.30	0	14.3200	0	32.1250	0	23.902	0	44.911	0	246.2	4	96.1	4	-1E+10	1	-1E+10	1	-1E+10	1	-1E+10	1	-1E+10	1	-1E+10	1
4902549	7	C	10/18/2020	09:08	-134.903	49.015	0	55.60	0	10.8130	0	32.3220	0	24.725	0	55.121	0	262.7	4	95.5	4	-1E+10	1	-1E+10	1	-1E+10	1	-1E+10	1	-1E+10	1	-1E+10	1
4902549	7	C	10/18/2020	09:08	-134.903	49.015	0	65.70	0	8.8790	0	32.3920	0	25.097	0	65.132	0	264.0	4	92.1	4	-1E+10	1	-1E+10	1	-1E+10	1	-1E+10	1	-1E+10	1	-1E+10	1
4902549	7	C	10/18/2020	09:08	-134.903	49.015	0	75.40	0	8.1950	0	32.4130	0	25.216	0	74.747	0	263.8	4	90.6	4	-1E+10	1	-1E+10	1	-1E+10	1	-1E+10	1	-1E+10	1	-1E+10	1
4902549	7	C	10/18/2020	09:08	-134.903	49.015	0	85.20	0	7.7340	0	32.4410	0	25.304	0	84.460	0	263.0	4	89.4	4	-1E+10	1	-1E+10	1	-1E+10	1	-1E+10	1	-1E+10	1	-1E+10	1
4902549	7	C	10/18/2020	09:08	-134.903	49.015	0	95.40	0	7.3540	0	32.4630	0	25.374	0	94.569	0	261.0	4	88.0	4	-1E+10	1	-1E+10	1	-1E+10	1	-1E+10	1	-1E+10	1	-1E+10	1
4902549	7	C	10/18/2020	09:08	-134.903	49.015	0	106.00	0	6.7880	0	32.5060	0	25.484	0	105.074	0	254.1	4	84.6	4	-1E+10	1	-1E+10	1	-1E+10	1	-1E+10	1	-1E+10	1	-1E+10	1
4902549	7	C	10/18/2020	09:08	-134.903	49.015	0	115.30	0	6.5210	0	32.5990	0	25.592	0	114.290	0	241.0	4	79.8	4	-1E+10	1	-1E+10	1	-1E+10	1	-1E+10	1	-1E+10	1	-1E+10	1
4902549	7	C	10/18/2020	09:08	-134.903	49.015	0	125.20	0	6.4820	0	32.7530	0	25.718	0	124.100	0	216.9	4	71.9	4	-1E+10	1	-1E+10	1	-1E+10	1	-1E+10	1	-1E+10	1	-1E+10	1
4902549	7	C	10/18/2020	09:08	-134.903	49.015	0	135.20	0	6.5600	0	33.1250	0	26.002	0	134.009	0	182.8	4	60.8	4	-1E+10	1	-1E+10	1	-1E+10	1	-1E+10	1	-1E+10	1	-1E+10	1
4902549	7	C	10/18/2020	09:08	-134.903	49.015	0	145.60	0	6.4080	0	33.3550	0	26.203	0	144.314	0	168.1	4	55.8	4	-1E+10	1	-1E+10	1	-1E+10	1	-1E+10	1	-1E+10	1	-1E+10	1
4902549	7	C	10/18/2020	09:08	-134.903	49.015	0	155.40	0	6.2010	0	33.5270	0	26.365	0	154.024	0	155.7	4	51.5	4	-1E+10	1	-1E+10	1	-1E+10	1	-1E+10	1	-1E+10	1	-1E+10	1
4902549	7	C	10/18/2020	09:08	-134.903	49.015	0	165.40	0	6.1020	0	33.6250	0	26.455	0	163.931	0	143.8	4	47.5	4	-1E+10	1	-1E+10	1	-1E+10	1	-1E+10	1	-1E+10	1	-1E+10	1
4902549	7	C	10/18/2020	09:08	-134.903	49.015	0	175.40	0	6.0240	0	33.6990	0	26.524	0	173.838	0	138.7	4	45.8	4	-1E+10	1	-1E+10	1	-1E+10	1	-1E+10	1	-1E+10	1	-1E+10	1
4902549	7	C	10/18/2020	09:08	-134.903	49.015	0	185.50	0	5.9180	0	33.7310	0	26.562	0	183.844	0	138.0	4	45.4	4	-1E+10	1	-1E+10	1	-1E+10	1	-1E+10	1	-1E+10	1	-1E+10	1
4902549	7	C	10/18/2020	09:08	-134.903	49.015	0	195.60	0	5.7510	0	33.7420	0	26.592	0	193.849	0	136.2	4	44.7	4	-1E+10	1	-1E+10	1	-1E+10	1	-1E+10	1	-1E+10	1	-1E+10	1
4902549	7	C	10/18/2020	09:08	-134.903	49.015	0	212.60	0	5.5040	0	33.7730	0	26.646	0	210.688	0	128.5	4	41.9	4	-1E+10	1	-1E+10	1	-1E+10	1	-1E+10	1	-1E+10	1	-1E+10	1
4902549	7	C	10/18/2020	09:08	-134.903	49.015	0	238.00	0	5.2990	0	33.7960	0	26.689	0	235.845	0	119.8	4	38.9	4	-1E+10	1	-1E+10	1	-1E+10	1	-1E+10	1	-1E+10	1	-1E+10	1
4902549	7	C	10/18/2020	09:08	-134.903	49.015	0	263.10	0	5.1180	0	33.8150	0	26.725	0	260.702	0	108.5	4	35.1	4	-1E+10	1	-1E+10	1	-1E+10	1	-1E+10	1	-1E+10	1	-1E+10	1
4902549	7	C	10/18/2020	09:08	-134.903	49.015	0	288.10	0	4.9220	0	33.8380	0	26.765	0	285.457	0	94.1	4	30.3	4	-1E+10	1	-1E+10	1	-1E+10	1	-1E+10	1	-1E+10	1	-1E+10	1
4902549	7	C	10/18/2020	09:08	-134.903	49.015	0	312.70	0	4.7910	0	33.8720	0	26.807	0	309.813	0	78.8	4	25.3	4	-1E+10	1	-1E+10	1	-1E+10	1	-1E+10	1	-1E+10	1	-1E+10	1
4902549	7	C	10/18/2020	09:08	-134.903	49.015	0	337.80	0	4.6890	0	33.9030	0	26.843	0	334.661	0	70.4	4	22.5	4	-1E+10	1	-1E+10	1	-1E+10	1	-1E+10	1	-1E+10	1	-1E+10	1
4902549	7	C	10/18/2020	09:08	-134.903	49.015	0	363.00	0	4.6060	0	33.9280	0	26.872	0	359.605	0	67.0	4	21.4	4	-1E+10	1	-1E+10	1	-1E+10	1	-1E+10	1	-1E+10	1	-1E+10	1
4902549	7	C	10/18/2020	09:08	-134.903	49.015	0	387.90	0	4.5340	0	33.9470	0	26.896	0	384.249	0	61.3	4	19.6	4	-1E+10	1	-1E+10	1	-1E+10	1	-1E+10	1	-1E+10	1	-1E+10	1
4902549	7	C	10/18/2020	09:08	-134.903	49.015	0	412.80	0	4.4410	0	33.9660	0	26.921	0	408.890	0	55.3	4	17.6	4	-1E+10	1	-1E+10	1	-1E+10	1	-1E+10	1	-1E+10	1	-1E+10	1
4902549	7	C	10/18/2020	09:08	-134.903	49.015	0	437.80	0	4.3400	0	33.9960	0	26.956	0	433.627	0	48.8	4	15.5	4	-1E+10	1	-1E+10	1	-1E+10	1	-1E+10	1	-1E+10	1	-1E+10	1
4902549	7	C	10/18/2020	09:08	-134.903	49.015	0	462.70	0	4.2750	0	34.0200	0	26.982	0	458.262	0	43.7	4	13.9	4	-1E+10	1	-1E+10	1	-1E+10	1	-1E+10	1	-1E+10	1	-1E+10	1
4902549	7	C	10/18/2020	09:08	-134.903	49.015	0	487.90	0	4.2240	0	34.0380	0	27.001	0	483.191	0	39.0	4	12.4	4	-1E+10	1	-1E+10	1	-1E+10	1	-1E+10	1	-1E+10	1	-1E+10	1
4902549	7	C	10/18/2020	09:08	-134.903	49.015	0	512.80	0	4.1780	0	34.0540	0	27.019	0	507.820	0	34.4	4	10.9	4	-1E+10	1	-1E+10	1	-1E+10	1	-1E+10	1	-1E+10	1	-1E+10	1
4902549	7	C	10/18/2020	09:08	-134.903	49.015	0	537.70	0	4.1090	0	34.0790	0	27.046	0	532.447	0	29.2	4	9.3	4	-1E+10	1	-1E+10	1	-1E+10	1	-1E+10	1	-1E+10	1	-1E+10	1
4902549	7	C	10/18/2020	09:08	-134.903	49.015	0	562.60	0	4.0190	0	34.1100	0	27.080	0	557.070	0	24.7	4	7.8	4	-1E+10	1	-1E+10	1	-1E+10	1	-1E+10	1	-1E+10	1	-1E+10	1
4902549	7	C	10/18/2020	09:08	-134.903	49.015	0	588.20	0	3.9530	0	34.1320	0	27.105	0	582.383	0	21.9	4	6.9	4	-1E+10	1	-1E+10	1	-1E+10	1	-1E+10	1	-1E+10	1	-1E+10	1
4902549	7	C	10/18/2020	09:08	-134.903	49.015	0	612.90	0	3.8870	0	34.1520	0	27.128	0	606.802	0	19.3	4	6.1	4	-1E+10	1	-1E+10	1	-1E+10	1	-1E+10	1	-1E+10	1	-1E+10	1
4902549	7	C	10/18/2020	09:08	-134.903	49.015	0	637.60	0	3.8410	0	34.1790	0	27.154	0	631.219	0	15.6	4	4.9	4	-1E+10	1	-1E+10	1	-1E+10	1	-1E+10	1	-1E+10	1	-1E+10	1
4902549	7	C	10/18/2020	09:08	-134.903	49.015	0	662.80	0	3.8350	0	34.1940	0	27.167	0	656.127	0	13.4	4	4.2	4	-1E+10	1	-1E+10	1	-1E+10	1	-1E+10	1	-1E+10	1	-1E+10	1
4902549	7	C	10/18/2020	09:08	-134.903	49.015	0	687.70	0	3.8460	0	34.2200	0	27.186	0	680.736	0	10.5	4	3.3	4	-1E+10	1	-1E+10	1	-1E+10	1	-1E+10	1	-1E+10	1	-1E+10	1
4902549	7	C	10/18/2020	09:08	-134.903	49.015	0	712.70	0	3.8020	0	34.2350	0	27.203	0	705.440	0	9.7	4	3.0	4	-1E+10	1	-1E+10	1	-1E+10	1	-1E+10	1	-1E+10	1	-1E+10	1
4902549	7	C	10/18/2020	09:08	-134.903	49.015	0	737.80	0	3.7290	0	34.2460	0	27.219	0	730.241	0	9.5	4	3.0	4	-1E+10	1	-1E+10	1	-1E+10	1	-1E+10	1	-1E+10	1	-1E+10	1
4902549	7	C	10/18/2020	09:08	-134.903	49.015	0	762.80	0	3.6600	0	34.2550	0	27.233	0	754.940	0	9.4	4	2.9	4	-1E+10	1	-1E+10	1	-1E+10	1	-1E+10	1	-1E+10	1	-1E+10	1
4902549	7	C	10/18/2020	09:08	-134.903	49.015	0	787.80	0	3.5850	0	34.2640	0	27.248	0	779.635	0	9.4	4	2.9	4	-1E+10	1	-1E+10	1	-1E+10	1	-1E+10	1	-1E+10	1	-1E+10	1
4902549	7	C	10/18/2020	09:08	-134.903	49.015	0	812.90	0	3.5370	0	34.2720	0	27.259	0	804.427	0	9.3	4	2.9	4	-1E+10	1	-1E+10	1	-1E+10	1	-1E+10	1	-1E+10	1	-1E+10	1
4902549	7	C	10/18/2020	09:08	-134.903	49.015	0	837.60	0	3.4850	0	34.2800	0	27.271	0	828.820	0	9.2	4	2.9	4	-1E+10	1	-1E+10	1	-1E+10	1	-1E+10	1	-1E+10	1	-1E+10	1
4902549	7	C	10/18/2020	09:08	-134.903	49.015	0	863.30	0	3.4010	0	34.2910	0	27.288	0	854.198	0	9.2	4	2.9	4	-1E+10	1	-1E+10	1	-1E+10	1	-1E+10	1	-1E+10	1	-1E+10	1
4902549	7	C	10/18/2020	09:08	-134.903	49.015	0	887.70	0	3.3120	0	34.3070	0	27.309	0	878.290	0	8.9	4	2.8	4	-1E+10	1	-1E+10	1	-1E+10	1	-1E+10	1	-1E+10	1	-1E+10	1
4902549	7	C	10/18/2020	09:08	-134.903	49.015	0	912.60	0	3.2490	0	34.3190	0	27.324	0	902.872	0	8.7	4	2.7	4	-1E+10	1	-1E+10	1	-1E+10	1	-1E+10	1	-1E+10	1	-1E+10	1
4902549	7	C	10/18/2020	09:08	-134.903	49.015	0	937.50	0	3.1800	0	34.3330	0	27.342	0	927.452	0	8.6	4	2.7	4	-1E+10	1	-1E+10	1	-1E+10	1	-1E+10	1	-1E+10	1	-1E+10	1
4902549	7	C	10/18/2020	09:08	-134.903	49.015	0	962.50	0	3.1330	0	34.3430	0	27.355	0	952.127	0	8.6	4	2.7	4	-1E+10	1	-1E+10	1	-1E+10	1	-1E+10	1	-1E+10	1	-1E+10	1
4902549	7	C	10/18/2020	09:08	-134.903	49.015	0	988.50	0	3.0940	0	34.3510	0	27.365	0	977.786	0	8.6	4	2.6	4	-1E+10	1	-1E+10	1	-1E+10	1	-1E+10	1	-1E+10	1	-1E+10	1
4902549	7	C	10/18/2020	09:08	-134.903	49.015	0	1012.60	0	3.0560	0	34.3600	0	27.375	0	1001.567	0	8.5	4	2.6	4	-1E+10	1	-1E+10	1	-1E+10	1	-1E+10	1	-1E+10	1	-1E+10	1
4902549	7	C	10/18/2020	09:08	-134.903	49.015	0	1038.00	0	3.0280	0	34.3650	0	27.382	0	1026.629	0	8.5	4	2.6	4	-1E+10	1	-1E+10	1	-1E+10	1	-1E+10	1	-1E+10	1	-1E+10	1
4902549	7	C	10/18/2020	09:08	-134.903	49.015	0	1063.10	0	3.0000	0	34.3720	0	27.390	0	1051.391	0	8.4	4	2.6	4	-1E+10	1	-1E+10	1	-1E+10	1	-1E+10	1	-1E+10	1	-1E+10	1
4902549	7	C	10/18/2020	09:08	-134.903	49.015	0	1088.20	0	2.9770	0	34.3790	0	27.398	0	1076.150	0	8.0	4	2.5	4	-1E+10	1	-1E+10	1	-1E+10	1	-1E+10	1	-1E+10	1	-1E+10	1
4902549	7	C	10/18/2020	09:08	-134.903	49.015	0	1112.90	0	2.9810	0	34.3910	0	27.408	0	1100.512	0	7.6	4	2.3	4	-1E+10	1	-1E+10	1	-1E+10	1	-1E+10	1	-1E+10	1	-1E+10	1
4902549	7	C	10/18/2020	09:08	-134.903	49.015	0	1137.60	0	2.9620	0	34.3970	0	27.414	0	1124.871	0	7.7	4	2.4	4	-1E+10	1	-1E+10	1	-1E+10	1	-1E+10	1	-1E+10	1	-1E+10	1
4902549	7	C	10/18/2020	09:08	-134.903	49.015	0	1162.90	0	2.9270	0	34.4040	0	27.423	0	1149.818	0	7.9	4	2.4	4	-1E+10	1	-1E+10	1	-1E+10	1	-1E+10	1	-1E+10	1	-1E+10	1
4902549	7	C	10/18/2020	09:08	-134.903	49.015	0	1188.20	0	2.8850	0	34.4110	0	27.433	0	1174.763	0	8.2	4	2.5	4	-1E+10	1	-1E+10	1	-1E+10	1	-1E+10	1	-1E+10	1	-1E+10	1
4902549	7	C	10/18/2020	09:08	-134.903	49.015	0	1212.70	0	2.8430	0	34.4190	0	27.443	0	1198.916	0	8.6	4	2.7	4	-1E+10	1	-1E+10	1	-1E+10	1	-1E+10	1	-1E+10	1	-1E+10	1
4902549	7	C	10/18/2020	09:08	-134.903	49.015	0	1237.60	0	2.7870	0	34.4280	0	27.455	0	1223.461	0	9.0	4	2.8	4	-1E+10	1	-1E+10	1	-1E+10	1	-1E+10	1	-1E+10	1	-1E+10	1
4902549	7	C	10/18/2020	09:08	-134.903	49.015	0	1262.80	0	2.7390	0	34.4350	0	27.465	0	1248.298	0	9.4	4	2.9	4	-1E+10	1	-1E+10	1	-1E+10	1	-1E+10	1	-1E+10	1	-1E+10	1
4902549	7	C	10/18/2020	09:08	-134.903	49.015	0	1288.20	0	2.7100	0	34.4400	0	27.472	0	1273.330	0	9.9	4	3.0	4	-1E+10	1	-1E+10	1	-1E+10	1	-1E+10	1	-1E+10	1	-1E+10	1
4902549	7	C	10/18/2020	09:08	-134.903	49.015	0	1313.50	0	2.6670	0	34.4480	0	27.482	0	1298.260	0	10.6	4	3.3	4	-1E+10	1	-1E+10	1	-1E+10	1	-1E+10	1	-1E+10	1	-1E+10	1
4902549	7	C	10/18/2020	09:08	-134.903	49.015	0	1337.60	0	2.6250	0	34.4550	0	27.491	0	1322.005	0	11.5	4	3.5	4	-1E+10	1	-1E+10	1	-1E+10	1	-1E+10	1	-1E+10	1	-1E+10	1
4902549	7	C	10/18/2020	09:08	-134.903	49.015	0	1362.80	0	2.5810	0	34.4620	0	27.501	0	1346.830	0	12.5	4	3.8	4	-1E+10	1	-1E+10	1	-1E+10	1	-1E+10	1	-1E+10	1	-1E+10	1
4902549	7	C	10/18/2020	09:08	-134.903	49.015	0	1388.00	0	2.5520	0	34.4670	0	27.507	0	1371.653	0	13.4	4	4.1	4	-1E+10	1	-1E+10	1	-1E+10	1	-1E+10	1	-1E+10	1	-1E+10	1
4902549	7	C	10/18/2020	09:08	-134.903	49.015	0	1412.70	0	2.5130	0	34.4740	0	27.516	0	1395.980	0	14.2	4	4.3	4	-1E+10	1	-1E+10	1	-1E+10	1	-1E+10	1	-1E+10	1	-1E+10	1
4902549	7	C	10/18/2020	09:08	-134.903	49.015	0	1438.50	0	2.4710	0	34.4810	0	27.526	0	1421.388	0	15.0	4	4.6	4	-1E+10	1	-1E+10	1	-1E+10	1	-1E+10	1	-1E+10	1	-1E+10	1
4902549	7	C	10/18/2020	09:08	-134.903	49.015	0	1463.00	0	2.4430	0	34.4860	0	27.532	0	1445.513	0	16.1	4	4.9	4	-1E+10	1	-1E+10	1	-1E+10	1	-1E+10	1	-1E+10	1	-1E+10	1
4902549	7	C	10/18/2020	09:08	-134.903	49.015	0	1487.70	0	2.4180	0	34.4920	0	27.539	0	1469.832	0	17.9	4	5.5	4	-1E+10	1	-1E+10	1	-1E+10	1	-1E+10	1	-1E+10	1	-1E+10	1
4902549	7	C	10/18/2020	09:08	-134.903	49.015	0	1512.50	0	2.3900	0	34.4980	0	27.546	0	1494.246	0	19.4	4	5.9	4	-1E+10	1	-1E+10	1	-1E+10	1	-1E+10	1	-1E+10	1	-1E+10	1
4902549	7	C	10/18/2020	09:08	-134.903	49.015	0	1537.70	0	2.3630	0	34.5030	0	27.553	0	1519.052	0	20.6	4	6.3	4	-1E+10	1	-1E+10	1	-1E+10	1	-1E+10	1	-1E+10	1	-1E+10	1
4902549	7	C	10/18/2020	09:08	-134.903	49.015	0	1562.80	0	2.3290	0	34.5090	0	27.560	0	1543.756	0	21.9	4	6.7	4	-1E+10	1	-1E+10	1	-1E+10	1	-1E+10	1	-1E+10	1	-1E+10	1
4902549	7	C	10/18/2020	09:08	-134.903	49.015	0	1587.70	0	2.3080	0	34.5130	0	27.565	0	1568.260	0	23.3	4	7.1	4	-1E+10	1	-1E+10	1	-1E+10	1	-1E+10	1	-1E+10	1	-1E+10	1
4902549	7	C	10/18/2020	09:08	-134.903	49.015	0	1612.60	0	2.2810	0	34.5180	0	27.572	0	1592.762	0	25.1	4	7.6	4	-1E+10	1	-1E+10	1	-1E+10	1	-1E+10	1	-1E+10	1	-1E+10	1
4902549	7	C	10/18/2020	09:08	-134.903	49.015	0	1637.80	0	2.2440	0	34.5250	0	27.580	0	1617.556	0	27.1	4	8.2	4	-1E+10	1	-1E+10	1	-1E+10	1	-1E+10	1	-1E+10	1	-1E+10	1
4902549	7	C	10/18/2020	09:08	-134.903	49.015	0	1663.00	0	2.2120	0	34.5310	0	27.588	0	1642.347	0	28.7	4	8.7	4	-1E+10	1	-1E+10	1	-1E+10	1	-1E+10	1	-1E+10	1	-1E+10	1
4902549	7	C	10/18/2020	09:08	-134.903	49.015	0	1687.60	0	2.1910	0	34.5350	0	27.593	0	1666.544	0	30.2	4	9.1	4	-1E+10	1	-1E+10	1	-1E+10	1	-1E+10	1	-1E+10	1	-1E+10	1
4902549	7	C	10/18/2020	09:08	-134.903	49.015	0	1712.70	0	2.1690	0	34.5390	0	27.598	0	1691.231	0	31.7	4	9.6	4	-1E+10	1	-1E+10	1	-1E+10	1	-1E+10	1	-1E+10	1	-1E+10	1
4902549	7	C	10/18/2020	09:08	-134.903	49.015	0	1738.00	0	2.1460	0	34.5440	0	27.604	0	1716.112	0	33.2	4	10.0	4	-1E+10	1	-1E+10	1	-1E+10	1	-1E+10	1	-1E+10	1	-1E+10	1
4902549	7	C	10/18/2020	09:08	-134.903	49.015	0	1763.20	0	2.1220	0	34.5480	0	27.609	0	1740.891	0	34.9	4	10.5	4	-1E+10	1	-1E+10	1	-1E+10	1	-1E+10	1	-1E+10	1	-1E+10	1
4902549	7	C	10/18/2020	09:08	-134.903	49.015	0	1788.20	0	2.0970	0	34.5530	0	27.615	0	1765.471	0	36.3	4	11.0	4	-1E+10	1	-1E+10	1	-1E+10	1	-1E+10	1	-1E+10	1	-1E+10	1
4902549	7	C	10/18/2020	09:08	-134.903	49.015	0	1813.00	0	2.0750	0	34.5560	0	27.620	0	1789.851	0	37.3	4	11.3	4	-1E+10	1	-1E+10	1	-1E+10	1	-1E+10	1	-1E+10	1	-1E+10	1
4902549	7	C	10/18/2020	09:08	-134.903	49.015	0	1838.10	0	2.0530	0	34.5610	0	27.626	0	1814.524	0	39.4	4	11.9	4	-1E+10	1	-1E+10	1	-1E+10	1	-1E+10	1	-1E+10	1	-1E+10	1
4902549	7	C	10/18/2020	09:08	-134.903	49.015	0	1863.20	0	2.0310	0	34.5650	0	27.631	0	1839.193	0	40.5	4	12.2	4	-1E+10	1	-1E+10	1	-1E+10	1	-1E+10	1	-1E+10	1	-1E+10	1
4902549	7	C	10/18/2020	09:08	-134.903	49.015	0	1888.00	0	2.0140	0	34.5690	0	27.635	0	1863.565	0	42.3	4	12.7	4	-1E+10	1	-1E+10	1	-1E+10	1	-1E+10	1	-1E+10	1	-1E+10	1
4902549	7	C	10/18/2020	09:08	-134.903	49.015	0	1912.70	0	1.9990	0	34.5720	0	27.639	0	1887.836	0	44.5	4	13.4	4	-1E+10	1	-1E+10	1	-1E+10	1	-1E+10	1	-1E+10	1	-1E+10	1
4902549	7	C	10/18/2020	09:08	-134.903	49.015	0	1937.70	0	1.9830	0	34.5750	0	27.643	0	1912.399	0	45.6	4	13.8	4	-1E+10	1	-1E+10	1	-1E+10	1	-1E+10	1	-1E+10	1	-1E+10	1
4902549	7	C	10/18/2020	09:08	-134.903	49.015	0	1962.70	0	1.9670	0	34.5780	0	27.647	0	1936.959	0	46.6	4	14.0	4	-1E+10	1	-1E+10	1	-1E+10	1	-1E+10	1	-1E+10	1	-1E+10	1
4902549	7	C	10/18/2020	09:08	-134.903	49.015	0	1987.80	0	1.9490	0	34.5820	0	27.651	0	1961.614	0	47.8	4	14.4	4	-1E+10	1	-1E+10	1	-1E+10	1	-1E+10	1	-1E+10	1	-1E+10	1
4902549	7	C	10/18/2020	09:08	-134.903	49.015	0	2007.80	0	1.9390	0	34.5840	0	27.654	0	1981.258	0	47.8	4	14.4	4	-1E+10	1	-1E+10	1	-1E+10	1	-1E+10	1	-1E+10	1	-1E+10	1
4902549	7	C	10/18/2020	09:08	-134.903	49.015	0																										
4902549	8	C	10/28/2020	08:58	-134.864	48.911	0	0.40	0	14.1130	0	32.1580	0	23.969	0	0.397	0	249.5	4	97.0	4	-1E+10	1	-1E+10	1	-1E+10	1	-1E+10	1	-1E+10	1	-1E+10	1
4902549	8	C	10/28/2020	08:58	-134.864	48.911	0	1.00	0	14.1130	0	32.1520	0	23.965	0	0.992	0	249.5	4	97.0	4	-1E+10	1	-1E+10	1	-1E+10	1	-1E+10	1	-1E+10	1	-1E+10	1
4902549	8	C	10/28/2020	08:58	-134.864	48.911	0	2.10	0	14.1140	0	32.1580	0	23.969	0	2.082	0	249.5	4	97.0	4	-1E+10	1	-1E+10	1	-1E+10	1	-1E+10	1	-1E+10	1	-1E+10	1
4902549	8	C	10/28/2020	08:58	-134.864	48.911	0	2.90	0	14.1140	0	32.1590	0	23.970	0	2.875	0	249.4	4	97.0	4	-1E+10	1	-1E+10	1	-1E+10	1	-1E+10	1	-1E+10	1	-1E+10	1
4902549	8	C	10/28/2020	08:58	-134.864	48.911	0	4.00	0	14.1140	0	32.1600	0	23.971	0	3.966	0	249.3	4	96.9	4	-1E+10	1	-1E+10	1	-1E+10	1	-1E+10	1	-1E+10	1	-1E+10	1
4902549	8	C	10/28/2020	08:58	-134.864	48.911	0	5.10	0	14.1150	0	32.1610	0	23.971	0	5.057	0	249.3	4	96.9	4	-1E+10	1	-1E+10	1	-1E+10	1	-1E+10	1	-1E+10	1	-1E+10	1
4902549	8	C	10/28/2020	08:58	-134.864	48.911	0	5.90	0	14.1150	0	32.1610	0	23.971	0	5.850	0	249.2	4	96.9	4	-1E+10	1	-1E+10	1	-1E+10	1	-1E+10	1	-1E+10	1	-1E+10	1
4902549	8	C	10/28/2020	08:58	-134.864	48.911	0	6.80	0	14.1140	0	32.1610	0	23.972	0	6.742	0	249.3	4	96.9	4	-1E+10	1	-1E+10	1	-1E+10	1	-1E+10	1	-1E+10	1	-1E+10	1
4902549	8	C	10/28/2020	08:58	-134.864	48.911	0	8.00	0	14.1150	0	32.1610	0	23.971	0	7.932	0	249.2	4	96.9	4	-1E+10	1	-1E+10	1	-1E+10	1	-1E+10	1	-1E+10	1	-1E+10	1
4902549	8	C	10/28/2020	08:58	-134.864	48.911	0	9.00	0	14.1150	0	32.1610	0	23.971	0	8.924	0	249.3	4	96.9	4	-1E+10	1	-1E+10	1	-1E+10	1	-1E+10	1	-1E+10	1	-1E+10	1
4902549	8	C	10/28/2020	08:58	-134.864	48.911	0	9.80	0	14.1160	0	32.1600	0	23.970	0	9.717	0	249.2	4	96.9	4	-1E+10	1	-1E+10	1	-1E+10	1	-1E+10	1	-1E+10	1	-1E+10	1
4902549	8	C	10/28/2020	08:58	-134.864	48.911	0	15.40	0	14.1170	0	32.1610	0	23.971	0	15.269	0	249.1	4	96.8	4	-1E+10	1	-1E+10	1	-1E+10	1	-1E+10	1	-1E+10	1	-1E+10	1
4902549	8	C	10/28/2020	08:58	-134.864	48.911	0	25.10	0	14.1130	0	32.1600	0	23.971	0	24.886	0	249.1	4	96.8	4	-1E+10	1	-1E+10	1	-1E+10	1	-1E+10	1	-1E+10	1	-1E+10	1
4902549	8	C	10/28/2020	08:58	-134.864	48.911	0	35.70	0	14.1150	0	32.1600	0	23.971	0	35.394	0	248.7	4	96.7	4	-1E+10	1	-1E+10	1	-1E+10	1	-1E+10	1	-1E+10	1	-1E+10	1
4902549	8	C	10/28/2020	08:58	-134.864	48.911	0	45.70	0	14.0540	0	32.1650	0	23.988	0	45.308	0	248.0	4	96.3	4	-1E+10	1	-1E+10	1	-1E+10	1	-1E+10	1	-1E+10	1	-1E+10	1
4902549	8	C	10/28/2020	08:58	-134.864	48.911	0	55.60	0	12.1730	0	32.2660	0	24.436	0	55.121	0	254.2	4	95.0	4	-1E+10	1	-1E+10	1	-1E+10	1	-1E+10	1	-1E+10	1	-1E+10	1
4902549	8	C	10/28/2020	08:58	-134.864	48.911	0	65.00	0	9.6750	0	32.3740	0	24.957	0	64.439	0	261.0	4	92.6	4	-1E+10	1	-1E+10	1	-1E+10	1	-1E+10	1	-1E+10	1	-1E+10	1
4902549	8	C	10/28/2020	08:58	-134.864	48.911	0	75.30	0	8.8070	0	32.3880	0	25.105	0	74.648	0	260.2	4	90.6	4	-1E+10	1	-1E+10	1	-1E+10	1	-1E+10	1	-1E+10	1	-1E+10	1
4902549	8	C	10/28/2020	08:58	-134.864	48.911	0	85.70	0	7.9900	0	32.4200	0	25.251	0	84.956	0	260.9	4	89.2	4	-1E+10	1	-1E+10	1	-1E+10	1	-1E+10	1	-1E+10	1	-1E+10	1
4902549	8	C	10/28/2020	08:58	-134.864	48.911	0	95.30	0	7.4810	0	32.4620	0	25.356	0	94.471	0	257.3	4	87.0	4	-1E+10	1	-1E+10	1	-1E+10	1	-1E+10	1	-1E+10	1	-1E+10	1
4902549	8	C	10/28/2020	08:58	-134.864	48.911	0	106.10	0	7.1160	0	32.5660	0	25.488	0	105.174	0	245.2	4	82.3	4	-1E+10	1	-1E+10	1	-1E+10	1	-1E+10	1	-1E+10	1	-1E+10	1
4902549	8	C	10/28/2020	08:58	-134.864	48.911	0	115.40	0	6.9540	0	32.7050	0	25.619	0	114.390	0	226.0	4	75.7	4	-1E+10	1	-1E+10	1	-1E+10	1	-1E+10	1	-1E+10	1	-1E+10	1
4902549	8	C	10/28/2020	08:58	-134.864	48.911	0	125.60	0	6.5760	0	33.0380	0	25.931	0	124.498	0	191.1	4	63.6	4	-1E+10	1	-1E+10	1	-1E+10	1	-1E+10	1	-1E+10	1	-1E+10	1
4902549	8	C	10/28/2020	08:58	-134.864	48.911	0	135.50	0	6.4660	0	33.2340	0	26.100	0	134.308	0	178.3	4	59.3	4	-1E+10	1	-1E+10	1	-1E+10	1	-1E+10	1	-1E+10	1	-1E+10	1
4902549	8	C	10/28/2020	08:58	-134.864	48.911	0	145.50	0	6.3150	0	33.3940	0	26.246	0	144.216	0	170.1	4	56.4	4	-1E+10	1	-1E+10	1	-1E+10	1	-1E+10	1	-1E+10	1	-1E+10	1
4902549	8	C	10/28/2020	08:58	-134.864	48.911	0	155.50	0	6.1710	0	33.4850	0	26.336	0	154.124	0	160.6	4	53.1	4	-1E+10	1	-1E+10	1	-1E+10	1	-1E+10	1	-1E+10	1	-1E+10	1
4902549	8	C	10/28/2020	08:58	-134.864	48.911	0	165.40	0	6.1000	0	33.5820	0	26.422	0	163.933	0	149.0	4	49.2	4	-1E+10	1	-1E+10	1	-1E+10	1	-1E+10	1	-1E+10	1	-1E+10	1
4902549	8	C	10/28/2020	08:58	-134.864	48.911	0	175.40	0	5.9120	0	33.6950	0	26.534	0	173.840	0	142.5	4	46.9	4	-1E+10	1	-1E+10	1	-1E+10	1	-1E+10	1	-1E+10	1	-1E+10	1
4902549	8	C	10/28/2020	08:58	-134.864	48.911	0	185.50	0	5.7390	0	33.7280	0	26.582	0	183.845	0	140.2	4	46.0	4	-1E+10	1	-1E+10	1	-1E+10	1	-1E+10	1	-1E+10	1	-1E+10	1
4902549	8	C	10/28/2020	08:58	-134.864	48.911	0	195.10	0	5.6650	0	33.7460	0	26.605	0	193.355	0	136.1	4	44.6	4	-1E+10	1	-1E+10	1	-1E+10	1	-1E+10	1	-1E+10	1	-1E+10	1
4902549	8	C	10/28/2020	08:58	-134.864	48.911	0	212.80	0	5.5130	0	33.7740	0	26.646	0	210.888	0	127.9	4	41.7	4	-1E+10	1	-1E+10	1	-1E+10	1	-1E+10	1	-1E+10	1	-1E+10	1
4902549	8	C	10/28/2020	08:58	-134.864	48.911	0	238.60	0	5.2500	0	33.8020	0	26.699	0	236.441	0	114.8	4	37.2	4	-1E+10	1	-1E+10	1	-1E+10	1	-1E+10	1	-1E+10	1	-1E+10	1
4902549	8	C	10/28/2020	08:58	-134.864	48.911	0	262.90	0	5.0190	0	33.8240	0	26.743	0	260.506	0	101.4	4	32.7	4	-1E+10	1	-1E+10	1	-1E+10	1	-1E+10	1	-1E+10	1	-1E+10	1
4902549	8	C	10/28/2020	08:58	-134.864	48.911	0	287.70	0	4.9140	0	33.8540	0	26.779	0	285.063	0	87.2	4	28.1	4	-1E+10	1	-1E+10	1	-1E+10	1	-1E+10	1	-1E+10	1	-1E+10	1
4902549	8	C	10/28/2020	08:58	-134.864	48.911	0	312.60	0	4.7970	0	33.8850	0	26.817	0	309.717	0	75.4	4	24.2	4	-1E+10	1	-1E+10	1	-1E+10	1	-1E+10	1	-1E+10	1	-1E+10	1
4902549	8	C	10/28/2020	08:58	-134.864	48.911	0	338.00	0	4.6390	0	33.9160	0	26.859	0	334.862	0	68.4	4	21.9	4	-1E+10	1	-1E+10	1	-1E+10	1	-1E+10	1	-1E+10	1	-1E+10	1
4902549	8	C	10/28/2020	08:58	-134.864	48.911	0	363.10	0	4.5170	0	33.9440	0	26.895	0	359.707	0	61.3	4	19.6	4	-1E+10	1	-1E+10	1	-1E+10	1	-1E+10	1	-1E+10	1	-1E+10	1
4902549	8	C	10/28/2020	08:58	-134.864	48.911	0	388.00	0	4.4240	0	33.9690	0	26.925	0	384.351	0	55.7	4	17.7	4	-1E+10	1	-1E+10	1	-1E+10	1	-1E+10	1	-1E+10	1	-1E+10	1
4902549	8	C	10/28/2020	08:58	-134.864	48.911	0	413.70	0	4.3710	0	33.9850	0	26.943	0	409.784	0	52.0	4	16.6	4	-1E+10	1	-1E+10	1	-1E+10	1	-1E+10	1	-1E+10	1	-1E+10	1
4902549	8	C	10/28/2020	08:58	-134.864	48.911	0	437.90	0	4.3320	0	33.9990	0	26.959	0	433.730	0	47.8	4	15.2	4	-1E+10	1	-1E+10	1	-1E+10	1	-1E+10	1	-1E+10	1	-1E+10	1
4902549	8	C	10/28/2020	08:58	-134.864	48.911	0	463.00	0	4.2680	0	34.0210	0	26.983	0	458.563	0	42.3	4	13.4	4	-1E+10	1	-1E+10	1	-1E+10	1	-1E+10	1	-1E+10	1	-1E+10	1
4902549	8	C	10/28/2020	08:58	-134.864	48.911	0	487.70	0	4.1950	0	34.0480	0	27.012	0	482.998	0	35.9	4	11.4	4	-1E+10	1	-1E+10	1	-1E+10	1	-1E+10	1	-1E+10	1	-1E+10	1
4902549	8	C	10/28/2020	08:58	-134.864	48.911	0	512.80	0	4.1160	0	34.0770	0	27.044	0	507.825	0	30.8	4	9.8	4	-1E+10	1	-1E+10	1	-1E+10	1	-1E+10	1	-1E+10	1	-1E+10	1
4902549	8	C	10/28/2020	08:58	-134.864	48.911	0	537.90	0	4.0450	0	34.1030	0	27.072	0	532.649	0	26.0	4	8.2	4	-1E+10	1	-1E+10	1	-1E+10	1	-1E+10	1	-1E+10	1	-1E+10	1
4902549	8	C	10/28/2020	08:58	-134.864	48.911	0	562.90	0	3.9830	0	34.1230	0	27.094	0	557.372	0	23.6	4	7.4	4	-1E+10	1	-1E+10	1	-1E+10	1	-1E+10	1	-1E+10	1	-1E+10	1
4902549	8	C	10/28/2020	08:58	-134.864	48.911	0	587.80	0	3.9340	0	34.1370	0	27.111	0	581.993	0	21.4	4	6.7	4	-1E+10	1	-1E+10	1	-1E+10	1	-1E+10	1	-1E+10	1	-1E+10	1
4902549	8	C	10/28/2020	08:58	-134.864	48.911	0	613.00	0	3.8630	0	34.1590	0	27.136	0	606.907	0	18.6	4	5.9	4	-1E+10	1	-1E+10	1	-1E+10	1	-1E+10	1	-1E+10	1	-1E+10	1
4902549	8	C	10/28/2020	08:58	-134.864	48.911	0	638.40	0	3.8020	0	34.1790	0	27.158	0	632.016	0	16.4	4	5.1	4	-1E+10	1	-1E+10	1	-1E+10	1	-1E+10	1	-1E+10	1	-1E+10	1
4902549	8	C	10/28/2020	08:58	-134.864	48.911	0	662.70	0	3.7670	0	34.1940	0	27.173	0	656.035	0	14.8	4	4.6	4	-1E+10	1	-1E+10	1	-1E+10	1	-1E+10	1	-1E+10	1	-1E+10	1
4902549	8	C	10/28/2020	08:58	-134.864	48.911	0	687.90	0	3.7600	0	34.2110	0	27.188	0	680.940	0	12.3	4	3.9	4	-1E+10	1	-1E+10	1	-1E+10	1	-1E+10	1	-1E+10	1	-1E+10	1
4902549	8	C	10/28/2020	08:58	-134.864	48.911	0	713.10	0	3.7670	0	34.2340	0	27.206	0	705.842	0	9.9	4	3.1	4	-1E+10	1	-1E+10	1	-1E+10	1	-1E+10	1	-1E+10	1	-1E+10	1
4902549	8	C	10/28/2020	08:58	-134.864	48.911	0	738.00	0	3.7070	0	34.2500	0	27.224	0	730.445	0	9.3	4	2.9	4	-1E+10	1	-1E+10	1	-1E+10	1	-1E+10	1	-1E+10	1	-1E+10	1
4902549	8	C	10/28/2020	08:58	-134.864	48.911	0	762.80	0	3.6390	0	34.2610	0	27.240	0	754.947	0	9.1	4	2.9	4	-1E+10	1	-1E+10	1	-1E+10	1	-1E+10	1	-1E+10	1	-1E+10	1
4902549	8	C	10/28/2020	08:58	-134.864	48.911	0	788.10	0	3.5660	0	34.2680	0	27.253	0	779.939	0	9.3	4	2.9	4	-1E+10	1	-1E+10	1	-1E+10	1	-1E+10	1	-1E+10	1	-1E+10	1
4902549	8	C	10/28/2020	08:58	-134.864	48.911	0	813.40	0	3.4900	0	34.2780	0	27.268	0	804.928	0	9.3	4	2.9	4	-1E+10	1	-1E+10	1	-1E+10	1	-1E+10	1	-1E+10	1	-1E+10	1
4902549	8	C	10/28/2020	08:58	-134.864	48.911	0	838.30	0	3.4280	0	34.2860	0	27.281	0	829.520	0	9.3	4	2.9	4	-1E+10	1	-1E+10	1	-1E+10	1	-1E+10	1	-1E+10	1	-1E+10	1
4902549	8	C	10/28/2020	08:58	-134.864	48.911	0	863.10	0	3.3630	0	34.2970	0	27.296	0	854.009	0	9.1	4	2.8	4	-1E+10	1	-1E+10	1	-1E+10	1	-1E+10	1	-1E+10	1	-1E+10	1
4902549	8	C	10/28/2020	08:58	-134.864	48.911	0	887.80	0	3.2960	0	34.3090	0	27.312	0	878.397	0	8.9	4	2.8	4	-1E+10	1	-1E+10	1	-1E+10	1	-1E+10	1	-1E+10	1	-1E+10	1
4902549	8	C	10/28/2020	08:58	-134.864	48.911	0	913.00	0	3.2290	0	34.3230	0	27.329	0	903.276	0	8.7	4	2.7	4	-1E+10	1	-1E+10	1	-1E+10	1	-1E+10	1	-1E+10	1	-1E+10	1
4902549	8	C	10/28/2020	08:58	-134.864	48.911	0	937.90	0	3.1770	0	34.3340	0	27.343	0	927.856	0	8.6	4	2.7	4	-1E+10	1	-1E+10	1	-1E+10	1	-1E+10	1	-1E+10	1	-1E+10	1
4902549	8	C	10/28/2020	08:58	-134.864	48.911	0	962.60	0	3.1310	0	34.3430	0	27.355	0	952.235	0	8.5	4	2.6	4	-1E+10	1	-1E+10	1	-1E+10	1	-1E+10	1	-1E+10	1	-1E+10	1
4902549	8	C	10/28/2020	08:58	-134.864	48.911	0	987.80	0	3.0990	0	34.3500	0	27.363	0	977.105	0	8.4	4	2.6	4	-1E+10	1	-1E+10	1	-1E+10	1	-1E+10	1	-1E+10	1	-1E+10	1
4902549	8	C	10/28/2020	08:58	-134.864	48.911	0	1012.80	0	3.0500	0	34.3600	0	27.376	0	1001.774	0	8.3	4	2.6	4	-1E+10	1	-1E+10	1	-1E+10	1	-1E+10	1	-1E+10	1	-1E+10	1
4902549	8	C	10/28/2020	08:58	-134.864	48.911	0	1038.00	0	3.0110	0	34.3720	0	27.389	0	1026.638	0	8.1	4	2.5	4	-1E+10	1	-1E+10	1	-1E+10	1	-1E+10	1	-1E+10	1	-1E+10	1
4902549	8	C	10/28/2020	08:58	-134.864	48.911	0	1062.80	0	3.0020	0	34.3820	0	27.398	0	1051.105	0	7.7	4	2.4	4	-1E+10	1	-1E+10	1	-1E+10	1	-1E+10	1	-1E+10	1	-1E+10	1
4902549	8	C	10/28/2020	08:58	-134.864	48.911	0	1087.70	0	2.9600	0	34.3950	0	27.412	0	1075.667	0	7.8	4	2.4	4	-1E+10	1	-1E+10	1	-1E+10	1	-1E+10	1	-1E+10	1	-1E+10	1
4902549	8	C	10/28/2020	08:58	-134.864	48.911	0	1112.70	0	2.9090	0	34.4020	0	27.423	0	1100.325	0	8.1	4	2.5	4	-1E+10	1	-1E+10	1	-1E+10	1	-1E+10	1	-1E+10	1	-1E+10	1
4902549	8	C	10/28/2020	08:58	-134.864	48.911	0	1138.30	0	2.8720	0	34.4070	0	27.430	0	1125.572	0	8.5	4	2.6	4	-1E+10	1	-1E+10	1	-1E+10	1	-1E+10	1	-1E+10	1	-1E+10	1
4902549	8	C	10/28/2020	08:58	-134.864	48.911	0	1162.90	0	2.8430	0	34.4130	0	27.438	0	1149.829	0	8.9	4	2.7	4	-1E+10	1	-1E+10	1	-1E+10	1	-1E+10	1	-1E+10	1	-1E+10	1
4902549	8	C	10/28/2020	08:58	-134.864	48.911	0	1187.80	0	2.8080	0	34.4190	0	27.446	0	1174.380	0	9.4	4	2.9	4	-1E+10	1	-1E+10	1	-1E+10	1	-1E+10	1	-1E+10	1	-1E+10	1
4902549	8	C	10/28/2020	08:58	-134.864	48.911	0	1213.00	0	2.7820	0	34.4270	0	27.455	0	1199.223	0	9.7	4	3.0	4	-1E+10	1	-1E+10	1	-1E+10	1	-1E+10	1	-1E+10	1	-1E+10	1
4902549	8	C	10/28/2020	08:58	-134.864	48.911	0	1237.90	0	2.7670	0	34.4330	0	27.461	0	1223.768	0	10.1	4	3.1	4	-1E+10	1	-1E+10	1	-1E+10	1	-1E+10	1	-1E+10	1	-1E+10	1
4902549	8	C	10/28/2020	08:58	-134.864	48.911	0	1262.70	0	2.7150	0	34.4390	0	27.470	0	1248.211	0	10.6	4	3.3	4	-1E+10	1	-1E+10	1	-1E+10	1	-1E+10	1	-1E+10	1	-1E+10	1
4902549	8	C	10/28/2020	08:58	-134.864	48.911	0	1287.70	0	2.6790	0	34.4460	0	27.479	0	1272.849	0	11.1	4	3.4	4	-1E+10	1	-1E+10	1	-1E+10	1	-1E+10	1	-1E+10	1	-1E+10	1
4902549	8	C	10/28/2020	08:58	-134.864	48.911	0	1312.80	0	2.6520	0	34.4500	0	27.485	0	1297.582	0	11.7	4	3.6	4	-1E+10	1	-1E+10	1	-1E+10	1	-1E+10	1	-1E+10	1	-1E+10	1
4902549	8	C	10/28/2020	08:58	-134.864	48.911	0	1338.40	0	2.6000	0	34.4600	0	27.497	0	1322.805	0	12.7	4	3.9	4	-1E+10	1	-1E+10	1	-1E+10	1	-1E+10	1	-1E+10	1	-1E+10	1
4902549	8	C	10/28/2020	08:58	-134.864	48.911	0	1363.10	0	2.5460	0	34.4690	0	27.509	0	1347.139	0	13.6	4	4.1	4	-1E+10	1	-1E+10	1	-1E+10	1	-1E+10	1	-1E+10	1	-1E+10	1
4902549	8	C	10/28/2020	08:58	-134.864	48.911	0	1388.00	0	2.5080	0	34.4750	0	27.517	0	1371.666	0	14.5	4	4.4	4	-1E+10	1	-1E+10	1	-1E+10	1	-1E+10	1	-1E+10	1	-1E+10	1
4902549	8	C	10/28/2020	08:58	-134.864	48.911	0	1413.10	0	2.4750	0	34.4810	0	27.525	0	1396.388	0	15.5	4	4.7	4	-1E+10	1	-1E+10	1	-1E+10	1	-1E+10	1	-1E+10	1	-1E+10	1
4902549	8	C	10/28/2020	08:58	-134.864	48.911	0	1438.50	0	2.4360	0	34.4880	0	27.534	0	1421.402	0	16.8	4	5.1	4	-1E+10	1	-1E+10	1	-1E+10	1	-1E+10	1	-1E+10	1	-1E+10	1
4902549	8	C	10/28/2020	08:58	-134.864	48.911	0	1462.70	0	2.3960	0	34.4950	0	27.543	0	1445.231	0	18.0	4	5.5	4	-1E+10	1	-1E+10	1	-1E+10	1	-1E+10	1	-1E+10	1	-1E+10	1
4902549	8	C	10/28/2020	08:58	-134.864	48.911	0	1487.50	0	2.3650	0	34.5000	0	27.550	0	1469.649	0	19.2	4	5.8	4	-1E+10	1	-1E+10	1	-1E+10	1	-1E+10	1	-1E+10	1	-1E+10	1
4902549	8	C	10/28/2020	08:58	-134.864	48.911	0	1512.50	0	2.3470	0	34.5050	0	27.555	0	1494.261	0	20.5	4	6.2	4	-1E+10	1	-1E+10	1	-1E+10	1	-1E+10	1	-1E+10	1	-1E+10	1
4902549	8	C	10/28/2020	08:58	-134.864	48.911	0	1537.60	0	2.3280	0	34.5080	0	27.559	0	1518.968	0	21.5	4	6.5	4	-1E+10	1	-1E+10	1	-1E+10	1	-1E+10	1	-1E+10	1	-1E+10	1
4902549	8	C	10/28/2020	08:58	-134.864	48.911	0	1563.00	0	2.3000	0	34.5130	0	27.566	0	1543.968	0	23.2	4	7.0	4	-1E+10	1	-1E+10	1	-1E+10	1	-1E+10	1	-1E+10	1	-1E+10	1
4902549	8	C	10/28/2020	08:58	-134.864	48.911	0	1588.20	0	2.2670	0	34.5200	0	27.574	0	1568.767	0	25.0	4	7.6	4	-1E+10	1	-1E+10	1	-1E+10	1	-1E+10	1	-1E+10	1	-1E+10	1
4902549	8	C	10/28/2020	08:58	-134.864	48.911	0	1613.00	0	2.2370	0	34.5250	0	27.581	0	1593.171	0	26.7	4	8.1	4	-1E+10	1	-1E+10	1	-1E+10	1	-1E+10	1	-1E+10	1	-1E+10	1
4902549	8	C	10/28/2020	08:58	-134.864	48.911	0	1637.80	0	2.2070	0	34.5310	0	27.588	0	1617.571	0	28.4	4	8.6	4	-1E+10	1	-1E+10	1	-1E+10	1	-1E+10	1	-1E+10	1	-1E+10	1
4902549	8	C	10/28/2020	08:58	-134.864	48.911	0	1662.60	0	2.1880	0	34.5340	0	27.592	0	1641.969	0	29.6	4	8.9	4	-1E+10	1	-1E+10	1	-1E+10	1	-1E+10	1	-1E+10	1	-1E+10	1
4902549	8	C	10/28/2020	08:58	-134.864	48.911	0	1687.80	0	2.1650	0	34.5390	0	27.598	0	1666.757	0	31.3	4	9.5	4	-1E+10	1	-1E+10	1	-1E+10	1	-1E+10	1	-1E+10	1	-1E+10	1
4902549	8	C	10/28/2020	08:58	-134.864	48.911	0	1713.00	0	2.1410	0	34.5430	0	27.603	0	1691.542	0	33.0	4	10.0	4	-1E+10	1	-1E+10	1	-1E+10	1	-1E+10	1	-1E+10	1	-1E+10	1
4902549	8	C	10/28/2020	08:58	-134.864	48.911	0	1738.30	0	2.1140	0	34.5480	0	27.610	0	1716.423	0	35.0	4	10.6	4	-1E+10	1	-1E+10	1	-1E+10	1	-1E+10	1	-1E+10	1	-1E+10	1
4902549	8	C	10/28/2020	08:58	-134.864	48.911	0	1762.50	0	2.0880	0	34.5540	0	27.617	0	1740.219	0	37.1	4	11.2	4	-1E+10	1	-1E+10	1	-1E+10	1	-1E+10	1	-1E+10	1	-1E+10	1
4902549	8	C	10/28/2020	08:58	-134.864	48.911	0	1787.70	0	2.0670	0	34.5580	0	27.622	0	1764.996	0	38.8	4	11.7	4	-1E+10	1	-1E+10	1	-1E+10	1	-1E+10	1	-1E+10	1	-1E+10	1
4902549	8	C	10/28/2020	08:58	-134.864	48.911	0	1812.90	0	2.0460	0	34.5620	0	27.627	0	1789.770	0	40.3	4	12.2	4	-1E+10	1	-1E+10	1	-1E+10	1	-1E+10	1	-1E+10	1	-1E+10	1
4902549	8	C	10/28/2020	08:58	-134.864	48.911	0	1837.50	0	2.0350	0	34.5640	0	27.629	0	1813.951	0	41.0	4	12.4	4	-1E+10	1	-1E+10	1	-1E+10	1	-1E+10	1	-1E+10	1	-1E+10	1
4902549	8	C	10/28/2020	08:58	-134.864	48.911	0	1863.30	0	2.0210	0	34.5670	0	27.633	0	1839.309	0	42.1	4	12.7	4	-1E+10	1	-1E+10	1	-1E+10	1	-1E+10	1	-1E+10	1	-1E+10	1
4902549	8	C	10/28/2020	08:58	-134.864	48.911	0	1887.50	0	2.0040	0	34.5710	0	27.638	0	1863.092	0	43.4	4	13.1	4	-1E+10	1	-1E+10	1	-1E+10	1	-1E+10	1	-1E+10	1	-1E+10	1
4902549	8	C	10/28/2020	08:58	-134.864	48.911	0	1912.70	0	1.9860	0	34.5740	0	27.642	0	1887.854	0	45.2	4	13.6	4	-1E+10	1	-1E+10	1	-1E+10	1	-1E+10	1	-1E+10	1	-1E+10	1
4902549	8	C	10/28/2020	08:58	-134.864	48.911	0	1937.70	0	1.9680	0	34.5780	0	27.646	0	1912.417	0	47.0	4	14.2	4	-1E+10	1	-1E+10	1	-1E+10	1	-1E+10	1	-1E+10	1	-1E+10	1
4902549	8	C	10/28/2020	08:58	-134.864	48.911	0	1962.50	0	1.9590	0	34.5800	0	27.649	0	1936.781	0	47.8	4	14.4	4	-1E+10	1	-1E+10	1	-1E+10	1	-1E+10	1	-1E+10	1	-1E+10	1
4902549	8	C	10/28/2020	08:58	-134.864	48.911	0	1987.50	0	1.9460	0	34.5830	0	27.652	0	1961.338	0	49.0	4	14.7	4	-1E+10	1	-1E+10	1	-1E+10	1	-1E+10	1	-1E+10	1	-1E+10	1
4902549	8	C	10/28/2020	08:58	-134.864	48.911	0	2013.00	0	1.9330	0	34.5850	0	27.655	0	1986.384	0	49.7	4	14.9	4	-1E+10	1	-1E+10	1	-1E+10	1	-1E+10	1	-1E+10	1	-1E+10	1
4902549	8	C	10/28/2020	08:58	-134.864	48.911	0																										
4902549	9	C	11/07/2020	08:59	-134.782	48.742	0	0.40	0	12.8200	0	32.1680	0	24.235	0	0.397	0	252.2	4	95.5	4	-1E+10	1	-1E+10	1	-1E+10	1	-1E+10	1	-1E+10	1	-1E+10	1
4902549	9	C	11/07/2020	08:59	-134.782	48.742	0	1.00	0	12.8190	0	32.1680	0	24.236	0	0.992	0	252.2	4	95.5	4	-1E+10	1	-1E+10	1	-1E+10	1	-1E+10	1	-1E+10	1	-1E+10	1
4902549	9	C	11/07/2020	08:59	-134.782	48.742	0	2.00	0	12.8190	0	32.1680	0	24.236	0	1.983	0	252.1	4	95.5	4	-1E+10	1	-1E+10	1	-1E+10	1	-1E+10	1	-1E+10	1	-1E+10	1
4902549	9	C	11/07/2020	08:59	-134.782	48.742	0	3.10	0	12.8180	0	32.1690	0	24.237	0	3.074	0	252.2	4	95.5	4	-1E+10	1	-1E+10	1	-1E+10	1	-1E+10	1	-1E+10	1	-1E+10	1
4902549	9	C	11/07/2020	08:59	-134.782	48.742	0	3.70	0	12.8180	0	32.1680	0	24.236	0	3.669	0	252.2	4	95.5	4	-1E+10	1	-1E+10	1	-1E+10	1	-1E+10	1	-1E+10	1	-1E+10	1
4902549	9	C	11/07/2020	08:59	-134.782	48.742	0	4.80	0	12.8180	0	32.1710	0	24.238	0	4.759	0	252.1	4	95.5	4	-1E+10	1	-1E+10	1	-1E+10	1	-1E+10	1	-1E+10	1	-1E+10	1
4902549	9	C	11/07/2020	08:59	-134.782	48.742	0	5.80	0	12.8180	0	32.1710	0	24.238	0	5.751	0	252.1	4	95.5	4	-1E+10	1	-1E+10	1	-1E+10	1	-1E+10	1	-1E+10	1	-1E+10	1
4902549	9	C	11/07/2020	08:59	-134.782	48.742	0	6.70	0	12.8170	0	32.1700	0	24.238	0	6.643	0	252.1	4	95.5	4	-1E+10	1	-1E+10	1	-1E+10	1	-1E+10	1	-1E+10	1	-1E+10	1
4902549	9	C	11/07/2020	08:59	-134.782	48.742	0	8.00	0	12.8170	0	32.1700	0	24.238	0	7.932	0	252.0	4	95.4	4	-1E+10	1	-1E+10	1	-1E+10	1	-1E+10	1	-1E+10	1	-1E+10	1
4902549	9	C	11/07/2020	08:59	-134.782	48.742	0	9.00	0	12.8170	0	32.1700	0	24.238	0	8.924	0	252.0	4	95.4	4	-1E+10	1	-1E+10	1	-1E+10	1	-1E+10	1	-1E+10	1	-1E+10	1
4902549	9	C	11/07/2020	08:59	-134.782	48.742	0	9.90	0	12.8170	0	32.1700	0	24.238	0	9.816	0	252.0	4	95.4	4	-1E+10	1	-1E+10	1	-1E+10	1	-1E+10	1	-1E+10	1	-1E+10	1
4902549	9	C	11/07/2020	08:59	-134.782	48.742	0	15.60	0	12.8160	0	32.1700	0	24.238	0	15.467	0	252.1	4	95.5	4	-1E+10	1	-1E+10	1	-1E+10	1	-1E+10	1	-1E+10	1	-1E+10	1
4902549	9	C	11/07/2020	08:59	-134.782	48.742	0	25.60	0	12.8180	0	32.1700	0	24.238	0	25.382	0	251.9	4	95.4	4	-1E+10	1	-1E+10	1	-1E+10	1	-1E+10	1	-1E+10	1	-1E+10	1
4902549	9	C	11/07/2020	08:59	-134.782	48.742	0	35.50	0	12.8220	0	32.1700	0	24.238	0	35.197	0	251.5	4	95.3	4	-1E+10	1	-1E+10	1	-1E+10	1	-1E+10	1	-1E+10	1	-1E+10	1
4902549	9	C	11/07/2020	08:59	-134.782	48.742	0	45.50	0	12.8250	0	32.1710	0	24.238	0	45.110	0	251.2	4	95.1	4	-1E+10	1	-1E+10	1	-1E+10	1	-1E+10	1	-1E+10	1	-1E+10	1
4902549	9	C	11/07/2020	08:59	-134.782	48.742	0	55.30	0	12.8180	0	32.1740	0	24.242	0	54.825	0	250.7	4	95.0	4	-1E+10	1	-1E+10	1	-1E+10	1	-1E+10	1	-1E+10	1	-1E+10	1
4902549	9	C	11/07/2020	08:59	-134.782	48.742	0	65.50	0	12.7470	0	32.1790	0	24.260	0	64.936	0	250.0	4	94.6	4	-1E+10	1	-1E+10	1	-1E+10	1	-1E+10	1	-1E+10	1	-1E+10	1
4902549	9	C	11/07/2020	08:59	-134.782	48.742	0	75.60	0	8.3530	0	32.3800	0	25.167	0	74.947	0	261.4	4	90.1	4	-1E+10	1	-1E+10	1	-1E+10	1	-1E+10	1	-1E+10	1	-1E+10	1
4902549	9	C	11/07/2020	08:59	-134.782	48.742	0	85.30	0	7.5470	0	32.4160	0	25.311	0	84.561	0	261.7	4	88.6	4	-1E+10	1	-1E+10	1	-1E+10	1	-1E+10	1	-1E+10	1	-1E+10	1
4902549	9	C	11/07/2020	08:59	-134.782	48.742	0	95.30	0	6.8300	0	32.4670	0	25.448	0	94.472	0	256.1	4	85.3	4	-1E+10	1	-1E+10	1	-1E+10	1	-1E+10	1	-1E+10	1	-1E+10	1
4902549	9	C	11/07/2020	08:59	-134.782	48.742	0	105.60	0	6.5060	0	32.6300	0	25.618	0	104.680	0	233.9	4	77.5	4	-1E+10	1	-1E+10	1	-1E+10	1	-1E+10	1	-1E+10	1	-1E+10	1
4902549	9	C	11/07/2020	08:59	-134.782	48.742	0	116.00	0	6.5340	0	32.8550	0	25.792	0	114.986	0	207.6	4	68.9	4	-1E+10	1	-1E+10	1	-1E+10	1	-1E+10	1	-1E+10	1	-1E+10	1
4902549	9	C	11/07/2020	08:59	-134.782	48.742	0	125.10	0	6.5050	0	33.1310	0	26.014	0	124.004	0	184.6	4	61.3	4	-1E+10	1	-1E+10	1	-1E+10	1	-1E+10	1	-1E+10	1	-1E+10	1
4902549	9	C	11/07/2020	08:59	-134.782	48.742	0	135.30	0	6.3590	0	33.3660	0	26.218	0	134.112	0	172.4	4	57.2	4	-1E+10	1	-1E+10	1	-1E+10	1	-1E+10	1	-1E+10	1	-1E+10	1
4902549	9	C	11/07/2020	08:59	-134.782	48.742	0	145.30	0	6.2280	0	33.4890	0	26.332	0	144.020	0	165.7	4	54.9	4	-1E+10	1	-1E+10	1	-1E+10	1	-1E+10	1	-1E+10	1	-1E+10	1
4902549	9	C	11/07/2020	08:59	-134.782	48.742	0	155.50	0	6.1520	0	33.5530	0	26.392	0	154.127	0	160.4	4	53.0	4	-1E+10	1	-1E+10	1	-1E+10	1	-1E+10	1	-1E+10	1	-1E+10	1
4902549	9	C	11/07/2020	08:59	-134.782	48.742	0	165.70	0	6.0020	0	33.6400	0	26.480	0	164.232	0	150.7	4	49.7	4	-1E+10	1	-1E+10	1	-1E+10	1	-1E+10	1	-1E+10	1	-1E+10	1
4902549	9	C	11/07/2020	08:59	-134.782	48.742	0	175.60	0	5.8830	0	33.6960	0	26.539	0	174.041	0	142.5	4	46.9	4	-1E+10	1	-1E+10	1	-1E+10	1	-1E+10	1	-1E+10	1	-1E+10	1
4902549	9	C	11/07/2020	08:59	-134.782	48.742	0	185.40	0	5.8250	0	33.7300	0	26.573	0	183.749	0	137.6	4	45.2	4	-1E+10	1	-1E+10	1	-1E+10	1	-1E+10	1	-1E+10	1	-1E+10	1
4902549	9	C	11/07/2020	08:59	-134.782	48.742	0	195.40	0	5.7640	0	33.7460	0	26.593	0	193.655	0	133.7	4	43.9	4	-1E+10	1	-1E+10	1	-1E+10	1	-1E+10	1	-1E+10	1	-1E+10	1
4902549	9	C	11/07/2020	08:59	-134.782	48.742	0	212.60	0	5.5770	0	33.7770	0	26.640	0	210.693	0	126.0	4	41.2	4	-1E+10	1	-1E+10	1	-1E+10	1	-1E+10	1	-1E+10	1	-1E+10	1
4902549	9	C	11/07/2020	08:59	-134.782	48.742	0	237.30	0	5.3210	0	33.8050	0	26.693	0	235.158	0	113.3	4	36.8	4	-1E+10	1	-1E+10	1	-1E+10	1	-1E+10	1	-1E+10	1	-1E+10	1
4902549	9	C	11/07/2020	08:59	-134.782	48.742	0	262.70	0	5.0800	0	33.8270	0	26.739	0	260.312	0	102.1	4	33.0	4	-1E+10	1	-1E+10	1	-1E+10	1	-1E+10	1	-1E+10	1	-1E+10	1
4902549	9	C	11/07/2020	08:59	-134.782	48.742	0	288.20	0	4.9380	0	33.8480	0	26.772	0	285.563	0	89.4	4	28.8	4	-1E+10	1	-1E+10	1	-1E+10	1	-1E+10	1	-1E+10	1	-1E+10	1
4902549	9	C	11/07/2020	08:59	-134.782	48.742	0	312.90	0	4.8430	0	33.8770	0	26.805	0	310.018	0	77.6	4	24.9	4	-1E+10	1	-1E+10	1	-1E+10	1	-1E+10	1	-1E+10	1	-1E+10	1
4902549	9	C	11/07/2020	08:59	-134.782	48.742	0	337.60	0	4.7060	0	33.9010	0	26.840	0	334.471	0	70.7	4	22.7	4	-1E+10	1	-1E+10	1	-1E+10	1	-1E+10	1	-1E+10	1	-1E+10	1
4902549	9	C	11/07/2020	08:59	-134.782	48.742	0	362.80	0	4.5730	0	33.9230	0	26.872	0	359.416	0	65.7	4	21.0	4	-1E+10	1	-1E+10	1	-1E+10	1	-1E+10	1	-1E+10	1	-1E+10	1
4902549	9	C	11/07/2020	08:59	-134.782	48.742	0	388.60	0	4.5000	0	33.9440	0	26.897	0	384.951	0	60.8	4	19.4	4	-1E+10	1	-1E+10	1	-1E+10	1	-1E+10	1	-1E+10	1	-1E+10	1
4902549	9	C	11/07/2020	08:59	-134.782	48.742	0	412.90	0	4.4260	0	33.9680	0	26.924	0	408.999	0	54.7	4	17.4	4	-1E+10	1	-1E+10	1	-1E+10	1	-1E+10	1	-1E+10	1	-1E+10	1
4902549	9	C	11/07/2020	08:59	-134.782	48.742	0	437.80	0	4.3370	0	33.9970	0	26.957	0	433.638	0	47.6	4	15.1	4	-1E+10	1	-1E+10	1	-1E+10	1	-1E+10	1	-1E+10	1	-1E+10	1
4902549	9	C	11/07/2020	08:59	-134.782	48.742	0	462.70	0	4.2610	0	34.0230	0	26.986	0	458.273	0	43.0	4	13.6	4	-1E+10	1	-1E+10	1	-1E+10	1	-1E+10	1	-1E+10	1	-1E+10	1
4902549	9	C	11/07/2020	08:59	-134.782	48.742	0	487.80	0	4.2100	0	34.0400	0	27.005	0	483.104	0	38.4	4	12.2	4	-1E+10	1	-1E+10	1	-1E+10	1	-1E+10	1	-1E+10	1	-1E+10	1
4902549	9	C	11/07/2020	08:59	-134.782	48.742	0	513.00	0	4.1480	0	34.0640	0	27.030	0	508.031	0	33.8	4	10.7	4	-1E+10	1	-1E+10	1	-1E+10	1	-1E+10	1	-1E+10	1	-1E+10	1
4902549	9	C	11/07/2020	08:59	-134.782	48.742	0	537.90	0	4.0990	0	34.0820	0	27.050	0	532.658	0	30.4	4	9.6	4	-1E+10	1	-1E+10	1	-1E+10	1	-1E+10	1	-1E+10	1	-1E+10	1
4902549	9	C	11/07/2020	08:59	-134.782	48.742	0	562.80	0	4.0410	0	34.1040	0	27.073	0	557.282	0	26.6	4	8.4	4	-1E+10	1	-1E+10	1	-1E+10	1	-1E+10	1	-1E+10	1	-1E+10	1
4902549	9	C	11/07/2020	08:59	-134.782	48.742	0	587.90	0	3.9870	0	34.1220	0	27.093	0	582.100	0	23.8	4	7.5	4	-1E+10	1	-1E+10	1	-1E+10	1	-1E+10	1	-1E+10	1	-1E+10	1
4902549	9	C	11/07/2020	08:59	-134.782	48.742	0	612.80	0	3.9400	0	34.1380	0	27.111	0	606.719	0	21.6	4	6.8	4	-1E+10	1	-1E+10	1	-1E+10	1	-1E+10	1	-1E+10	1	-1E+10	1
4902549	9	C	11/07/2020	08:59	-134.782	48.742	0	637.50	0	3.8790	0	34.1570	0	27.133	0	631.136	0	19.0	4	6.0	4	-1E+10	1	-1E+10	1	-1E+10	1	-1E+10	1	-1E+10	1	-1E+10	1
4902549	9	C	11/07/2020	08:59	-134.782	48.742	0	662.60	0	3.8240	0	34.1760	0	27.153	0	655.946	0	16.7	4	5.2	4	-1E+10	1	-1E+10	1	-1E+10	1	-1E+10	1	-1E+10	1	-1E+10	1
4902549	9	C	11/07/2020	08:59	-134.782	48.742	0	687.80	0	3.7710	0	34.1900	0	27.170	0	680.852	0	15.4	4	4.8	4	-1E+10	1	-1E+10	1	-1E+10	1	-1E+10	1	-1E+10	1	-1E+10	1
4902549	9	C	11/07/2020	08:59	-134.782	48.742	0	712.60	0	3.7320	0	34.2050	0	27.186	0	705.359	0	14.2	4	4.4	4	-1E+10	1	-1E+10	1	-1E+10	1	-1E+10	1	-1E+10	1	-1E+10	1
4902549	9	C	11/07/2020	08:59	-134.782	48.742	0	738.10	0	3.7170	0	34.2140	0	27.195	0	730.555	0	12.9	4	4.0	4	-1E+10	1	-1E+10	1	-1E+10	1	-1E+10	1	-1E+10	1	-1E+10	1
4902549	9	C	11/07/2020	08:59	-134.782	48.742	0	763.10	0	3.7010	0	34.2360	0	27.214	0	755.255	0	10.4	4	3.3	4	-1E+10	1	-1E+10	1	-1E+10	1	-1E+10	1	-1E+10	1	-1E+10	1
4902549	9	C	11/07/2020	08:59	-134.782	48.742	0	787.90	0	3.6650	0	34.2540	0	27.232	0	779.754	0	9.4	4	3.0	4	-1E+10	1	-1E+10	1	-1E+10	1	-1E+10	1	-1E+10	1	-1E+10	1
4902549	9	C	11/07/2020	08:59	-134.782	48.742	0	813.00	0	3.5950	0	34.2630	0	27.246	0	804.546	0	9.4	4	2.9	4	-1E+10	1	-1E+10	1	-1E+10	1	-1E+10	1	-1E+10	1	-1E+10	1
4902549	9	C	11/07/2020	08:59	-134.782	48.742	0	837.80	0	3.4960	0	34.2760	0	27.266	0	829.039	0	9.4	4	2.9	4	-1E+10	1	-1E+10	1	-1E+10	1	-1E+10	1	-1E+10	1	-1E+10	1
4902549	9	C	11/07/2020	08:59	-134.782	48.742	0	863.60	0	3.4210	0	34.2860	0	27.282	0	854.516	0	9.4	4	2.9	4	-1E+10	1	-1E+10	1	-1E+10	1	-1E+10	1	-1E+10	1	-1E+10	1
4902549	9	C	11/07/2020	08:59	-134.782	48.742	0	887.80	0	3.3470	0	34.2990	0	27.299	0	878.411	0	9.1	4	2.8	4	-1E+10	1	-1E+10	1	-1E+10	1	-1E+10	1	-1E+10	1	-1E+10	1
4902549	9	C	11/07/2020	08:59	-134.782	48.742	0	913.00	0	3.2530	0	34.3190	0	27.324	0	903.290	0	8.7	4	2.7	4	-1E+10	1	-1E+10	1	-1E+10	1	-1E+10	1	-1E+10	1	-1E+10	1
4902549	9	C	11/07/2020	08:59	-134.782	48.742	0	938.10	0	3.1970	0	34.3300	0	27.338	0	928.067	0	8.6	4	2.7	4	-1E+10	1	-1E+10	1	-1E+10	1	-1E+10	1	-1E+10	1	-1E+10	1
4902549	9	C	11/07/2020	08:59	-134.782	48.742	0	962.90	0	3.1600	0	34.3370	0	27.347	0	952.546	0	8.5	4	2.6	4	-1E+10	1	-1E+10	1	-1E+10	1	-1E+10	1	-1E+10	1	-1E+10	1
4902549	9	C	11/07/2020	08:59	-134.782	48.742	0	988.00	0	3.1070	0	34.3490	0	27.362	0	977.317	0	8.4	4	2.6	4	-1E+10	1	-1E+10	1	-1E+10	1	-1E+10	1	-1E+10	1	-1E+10	1
4902549	9	C	11/07/2020	08:59	-134.782	48.742	0	1013.30	0	3.0800	0	34.3570	0	27.371	0	1002.283	0	8.3	4	2.6	4	-1E+10	1	-1E+10	1	-1E+10	1	-1E+10	1	-1E+10	1	-1E+10	1
4902549	9	C	11/07/2020	08:59	-134.782	48.742	0	1038.30	0	3.0570	0	34.3650	0	27.380	0	1026.950	0	7.9	4	2.4	4	-1E+10	1	-1E+10	1	-1E+10	1	-1E+10	1	-1E+10	1	-1E+10	1
4902549	9	C	11/07/2020	08:59	-134.782	48.742	0	1063.20	0	3.0320	0	34.3780	0	27.392	0	1051.516	0	7.5	4	2.3	4	-1E+10	1	-1E+10	1	-1E+10	1	-1E+10	1	-1E+10	1	-1E+10	1
4902549	9	C	11/07/2020	08:59	-134.782	48.742	0	1088.20	0	2.9830	0	34.3880	0	27.405	0	1076.177	0	7.7	4	2.4	4	-1E+10	1	-1E+10	1	-1E+10	1	-1E+10	1	-1E+10	1	-1E+10	1
4902549	9	C	11/07/2020	08:59	-134.782	48.742	0	1113.40	0	2.9460	0	34.3940	0	27.413	0	1101.032	0	7.9	4	2.4	4	-1E+10	1	-1E+10	1	-1E+10	1	-1E+10	1	-1E+10	1	-1E+10	1
4902549	9	C	11/07/2020	08:59	-134.782	48.742	0	1137.80	0	2.8860	0	34.4040	0	27.427	0	1125.096	0	8.6	4	2.7	4	-1E+10	1	-1E+10	1	-1E+10	1	-1E+10	1	-1E+10	1	-1E+10	1
4902549	9	C	11/07/2020	08:59	-134.782	48.742	0	1162.60	0	2.8560	0	34.4100	0	27.434	0	1149.551	0	9.0	4	2.8	4	-1E+10	1	-1E+10	1	-1E+10	1	-1E+10	1	-1E+10	1	-1E+10	1
4902549	9	C	11/07/2020	08:59	-134.782	48.742	0	1187.70	0	2.8330	0	34.4160	0	27.441	0	1174.299	0	9.2	4	2.8	4	-1E+10	1	-1E+10	1	-1E+10	1	-1E+10	1	-1E+10	1	-1E+10	1
4902549	9	C	11/07/2020	08:59	-134.782	48.742	0	1212.60	0	2.8000	0	34.4260	0	27.452	0	1198.847	0	9.4	4	2.9	4	-1E+10	1	-1E+10	1	-1E+10	1	-1E+10	1	-1E+10	1	-1E+10	1
4902549	9	C	11/07/2020	08:59	-134.782	48.742	0	1237.70	0	2.7440	0	34.4340	0	27.464	0	1223.590	0	10.0	4	3.1	4	-1E+10	1	-1E+10	1	-1E+10	1	-1E+10	1	-1E+10	1	-1E+10	1
4902549	9	C	11/07/2020	08:59	-134.782	48.742	0	1263.60	0	2.6720	0	34.4420	0	27.476	0	1249.118	0	10.8	4	3.3	4	-1E+10	1	-1E+10	1	-1E+10	1	-1E+10	1	-1E+10	1	-1E+10	1
4902549	9	C	11/07/2020	08:59	-134.782	48.742	0	1287.40	0	2.6520	0	34.4480	0	27.483	0	1272.573	0	11.1	4	3.4	4	-1E+10	1	-1E+10	1	-1E+10	1	-1E+10	1	-1E+10	1	-1E+10	1
4902549	9	C	11/07/2020	08:59	-134.782	48.742	0	1312.70	0	2.6270	0	34.4550	0	27.491	0	1297.504	0	11.6	4	3.6	4	-1E+10	1	-1E+10	1	-1E+10	1	-1E+10	1	-1E+10	1	-1E+10	1
4902549	9	C	11/07/2020	08:59	-134.782	48.742	0	1337.90	0	2.5880	0	34.4600	0	27.498	0	1322.333	0	12.4	4	3.8	4	-1E+10	1	-1E+10	1	-1E+10	1	-1E+10	1	-1E+10	1	-1E+10	1
4902549	9	C	11/07/2020	08:59	-134.782	48.742	0	1362.80	0	2.5540	0	34.4660	0	27.506	0	1346.864	0	13.2	4	4.0	4	-1E+10	1	-1E+10	1	-1E+10	1	-1E+10	1	-1E+10	1	-1E+10	1
4902549	9	C	11/07/2020	08:59	-134.782	48.742	0	1388.50	0	2.5290	0	34.4710	0	27.512	0	1372.180	0	14.0	4	4.3	4	-1E+10	1	-1E+10	1	-1E+10	1	-1E+10	1	-1E+10	1	-1E+10	1
4902549	9	C	11/07/2020	08:59	-134.782	48.742	0	1412.80	0	2.5010	0	34.4770	0	27.520	0	1396.114	0	15.1	4	4.6	4	-1E+10	1	-1E+10	1	-1E+10	1	-1E+10	1	-1E+10	1	-1E+10	1
4902549	9	C	11/07/2020	08:59	-134.782	48.742	0	1437.80	0	2.4700	0	34.4840	0	27.528	0	1420.735	0	16.5	4	5.0	4	-1E+10	1	-1E+10	1	-1E+10	1	-1E+10	1	-1E+10	1	-1E+10	1
4902549	9	C	11/07/2020	08:59	-134.782	48.742	0	1463.00	0	2.4460	0	34.4900	0	27.535	0	1445.549	0	17.5	4	5.3	4	-1E+10	1	-1E+10	1	-1E+10	1	-1E+10	1	-1E+10	1	-1E+10	1
4902549	9	C	11/07/2020	08:59	-134.782	48.742	0	1488.00	0	2.4270	0	34.4930	0	27.539	0	1470.164	0	18.4	4	5.6	4	-1E+10	1	-1E+10	1	-1E+10	1	-1E+10	1	-1E+10	1	-1E+10	1
4902549	9	C	11/07/2020	08:59	-134.782	48.742	0	1512.90	0	2.3870	0	34.5010	0	27.549	0	1494.678	0	19.9	4	6.1	4	-1E+10	1	-1E+10	1	-1E+10	1	-1E+10	1	-1E+10	1	-1E+10	1
4902549	9	C	11/07/2020	08:59	-134.782	48.742	0	1538.00	0	2.3580	0	34.5050	0	27.555	0	1519.385	0	21.1	4	6.4	4	-1E+10	1	-1E+10	1	-1E+10	1	-1E+10	1	-1E+10	1	-1E+10	1
4902549	9	C	11/07/2020	08:59	-134.782	48.742	0	1562.80	0	2.3270	0	34.5110	0	27.562	0	1543.795	0	22.7	4	6.9	4	-1E+10	1	-1E+10	1	-1E+10	1	-1E+10	1	-1E+10	1	-1E+10	1
4902549	9	C	11/07/2020	08:59	-134.782	48.742	0	1587.70	0	2.2830	0	34.5180	0	27.571	0	1568.299	0	24.5	4	7.4	4	-1E+10	1	-1E+10	1	-1E+10	1	-1E+10	1	-1E+10	1	-1E+10	1
4902549	9	C	11/07/2020	08:59	-134.782	48.742	0	1613.00	0	2.2470	0	34.5250	0	27.580	0	1593.195	0	26.3	4	8.0	4	-1E+10	1	-1E+10	1	-1E+10	1	-1E+10	1	-1E+10	1	-1E+10	1
4902549	9	C	11/07/2020	08:59	-134.782	48.742	0	1638.20	0	2.2090	0	34.5310	0	27.588	0	1617.989	0	28.6	4	8.7	4	-1E+10	1	-1E+10	1	-1E+10	1	-1E+10	1	-1E+10	1	-1E+10	1
4902549	9	C	11/07/2020	08:59	-134.782	48.742	0	1663.00	0	2.1680	0	34.5390	0	27.598	0	1642.388	0	30.9	4	9.4	4	-1E+10	1	-1E+10	1	-1E+10	1	-1E+10	1	-1E+10	1	-1E+10	1
4902549	9	C	11/07/2020	08:59	-134.782	48.742	0	1687.80	0	2.1400	0	34.5440	0	27.604	0	1666.783	0	32.7	4	9.9	4	-1E+10	1	-1E+10	1	-1E+10	1	-1E+10	1	-1E+10	1	-1E+10	1
4902549	9	C	11/07/2020	08:59	-134.782	48.742	0	1713.30	0	2.1150	0	34.5490	0	27.610	0	1691.864	0	34.4	4	10.4	4	-1E+10	1	-1E+10	1	-1E+10	1	-1E+10	1	-1E+10	1	-1E+10	1
4902549	9	C	11/07/2020	08:59	-134.782	48.742	0	1737.50	0	2.0920	0	34.5530	0	27.615	0	1715.663	0	36.1	4	10.9	4	-1E+10	1	-1E+10	1	-1E+10	1	-1E+10	1	-1E+10	1	-1E+10	1
4902549	9	C	11/07/2020	08:59	-134.782	48.742	0	1762.60	0	2.0740	0	34.5560	0	27.619	0	1740.345	0	37.0	4	11.2	4	-1E+10	1	-1E+10	1	-1E+10	1	-1E+10	1	-1E+10	1	-1E+10	1
4902549	9	C	11/07/2020	08:59	-134.782	48.742	0	1787.60	0	2.0580	0	34.5590	0	27.623	0	1764.925	0	38.6	4	11.7	4	-1E+10	1	-1E+10	1	-1E+10	1	-1E+10	1	-1E+10	1	-1E+10	1
4902549	9	C	11/07/2020	08:59	-134.782	48.742	0	1812.50	0	2.0330	0	34.5640	0	27.629	0	1789.404	0	40.4	4	12.2	4	-1E+10	1	-1E+10	1	-1E+10	1	-1E+10	1	-1E+10	1	-1E+10	1
4902549	9	C	11/07/2020	08:59	-134.782	48.742	0	1838.80	0	2.0170	0	34.5670	0	27.633	0	1815.257	0	41.7	4	12.6	4	-1E+10	1	-1E+10	1	-1E+10	1	-1E+10	1	-1E+10	1	-1E+10	1
4902549	9	C	11/07/2020	08:59	-134.782	48.742	0	1862.90	0	2.0020	0	34.5710	0	27.638	0	1838.944	0	43.5	4	13.1	4	-1E+10	1	-1E+10	1	-1E+10	1	-1E+10	1	-1E+10	1	-1E+10	1
4902549	9	C	11/07/2020	08:59	-134.782	48.742	0	1887.90	0	1.9890	0	34.5730	0	27.640	0	1863.513	0	44.4	4	13.4	4	-1E+10	1	-1E+10	1	-1E+10	1	-1E+10	1	-1E+10	1	-1E+10	1
4902549	9	C	11/07/2020	08:59	-134.782	48.742	0	1912.90	0	1.9760	0	34.5760	0	27.644	0	1888.080	0	46.1	4	13.9	4	-1E+10	1	-1E+10	1	-1E+10	1	-1E+10	1	-1E+10	1	-1E+10	1
4902549	9	C	11/07/2020	08:59	-134.782	48.742	0	1937.70	0	1.9640	0	34.5780	0	27.647	0	1912.446	0	47.4	4	14.3	4	-1E+10	1	-1E+10	1	-1E+10	1	-1E+10	1	-1E+10	1	-1E+10	1
4902549	9	C	11/07/2020	08:59	-134.782	48.742	0	1962.60	0	1.9530	0	34.5810	0	27.650	0	1936.909	0	48.5	4	14.6	4	-1E+10	1	-1E+10	1	-1E+10	1	-1E+10	1	-1E+10	1	-1E+10	1
4902549	9	C	11/07/2020	08:59	-134.782	48.742	0	1988.50	0	1.9390	0	34.5840	0	27.654	0	1962.351	0	49.4	4	14.9	4	-1E+10	1	-1E+10	1	-1E+10	1	-1E+10	1	-1E+10	1	-1E+10	1
4902549	9	C	11/07/2020	08:59	-134.782	48.742	0																										
4902549	10	C	11/17/2020	08:57	-134.610	48.533	0	0.00	0	11.4480	0	32.2080	0	24.523	0	0.000	0	257.8	4	94.9	4	-1E+10	1	-1E+10	1	-1E+10	1	-1E+10	1	-1E+10	1	-1E+10	1
4902549	10	C	11/17/2020	08:57	-134.610	48.533	0	0.90	0	11.4460	0	32.2090	0	24.524	0	0.892	0	257.9	4	94.9	4	-1E+10	1	-1E+10	1	-1E+10	1	-1E+10	1	-1E+10	1	-1E+10	1
4902549	10	C	11/17/2020	08:57	-134.610	48.533	0	2.00	0	11.4530	0	32.2040	0	24.519	0	1.983	0	257.8	4	94.9	4	-1E+10	1	-1E+10	1	-1E+10	1	-1E+10	1	-1E+10	1	-1E+10	1
4902549	10	C	11/17/2020	08:57	-134.610	48.533	0	2.90	0	11.4520	0	32.2060	0	24.521	0	2.876	0	257.8	4	94.9	4	-1E+10	1	-1E+10	1	-1E+10	1	-1E+10	1	-1E+10	1	-1E+10	1
4902549	10	C	11/17/2020	08:57	-134.610	48.533	0	3.90	0	11.4510	0	32.2080	0	24.522	0	3.867	0	257.8	4	94.9	4	-1E+10	1	-1E+10	1	-1E+10	1	-1E+10	1	-1E+10	1	-1E+10	1
4902549	10	C	11/17/2020	08:57	-134.610	48.533	0	5.20	0	11.4500	0	32.2080	0	24.523	0	5.156	0	257.8	4	94.9	4	-1E+10	1	-1E+10	1	-1E+10	1	-1E+10	1	-1E+10	1	-1E+10	1
4902549	10	C	11/17/2020	08:57	-134.610	48.533	0	6.10	0	11.4510	0	32.2090	0	24.523	0	6.048	0	257.8	4	94.9	4	-1E+10	1	-1E+10	1	-1E+10	1	-1E+10	1	-1E+10	1	-1E+10	1
4902549	10	C	11/17/2020	08:57	-134.610	48.533	0	7.10	0	11.4550	0	32.2080	0	24.522	0	7.040	0	257.7	4	94.9	4	-1E+10	1	-1E+10	1	-1E+10	1	-1E+10	1	-1E+10	1	-1E+10	1
4902549	10	C	11/17/2020	08:57	-134.610	48.533	0	7.90	0	11.4550	0	32.2080	0	24.522	0	7.833	0	257.7	4	94.9	4	-1E+10	1	-1E+10	1	-1E+10	1	-1E+10	1	-1E+10	1	-1E+10	1
4902549	10	C	11/17/2020	08:57	-134.610	48.533	0	8.80	0	11.4560	0	32.2080	0	24.522	0	8.726	0	257.7	4	94.9	4	-1E+10	1	-1E+10	1	-1E+10	1	-1E+10	1	-1E+10	1	-1E+10	1
4902549	10	C	11/17/2020	08:57	-134.610	48.533	0	10.00	0	11.4560	0	32.2080	0	24.522	0	9.915	0	257.6	4	94.9	4	-1E+10	1	-1E+10	1	-1E+10	1	-1E+10	1	-1E+10	1	-1E+10	1
4902549	10	C	11/17/2020	08:57	-134.610	48.533	0	15.70	0	11.4560	0	32.2080	0	24.522	0	15.567	0	257.7	4	94.9	4	-1E+10	1	-1E+10	1	-1E+10	1	-1E+10	1	-1E+10	1	-1E+10	1
4902549	10	C	11/17/2020	08:57	-134.610	48.533	0	25.70	0	11.4600	0	32.2080	0	24.521	0	25.482	0	257.5	4	94.8	4	-1E+10	1	-1E+10	1	-1E+10	1	-1E+10	1	-1E+10	1	-1E+10	1
4902549	10	C	11/17/2020	08:57	-134.610	48.533	0	35.70	0	11.4600	0	32.2080	0	24.522	0	35.396	0	257.4	4	94.8	4	-1E+10	1	-1E+10	1	-1E+10	1	-1E+10	1	-1E+10	1	-1E+10	1
4902549	10	C	11/17/2020	08:57	-134.610	48.533	0	45.50	0	11.4610	0	32.2080	0	24.522	0	45.111	0	257.2	4	94.7	4	-1E+10	1	-1E+10	1	-1E+10	1	-1E+10	1	-1E+10	1	-1E+10	1
4902549	10	C	11/17/2020	08:57	-134.610	48.533	0	55.10	0	11.4630	0	32.2090	0	24.522	0	54.628	0	256.8	4	94.6	4	-1E+10	1	-1E+10	1	-1E+10	1	-1E+10	1	-1E+10	1	-1E+10	1
4902549	10	C	11/17/2020	08:57	-134.610	48.533	0	65.70	0	11.4650	0	32.2100	0	24.523	0	65.135	0	255.9	4	94.3	4	-1E+10	1	-1E+10	1	-1E+10	1	-1E+10	1	-1E+10	1	-1E+10	1
4902549	10	C	11/17/2020	08:57	-134.610	48.533	0	75.40	0	11.0010	0	32.2320	0	24.623	0	74.750	0	255.2	4	93.1	4	-1E+10	1	-1E+10	1	-1E+10	1	-1E+10	1	-1E+10	1	-1E+10	1
4902549	10	C	11/17/2020	08:57	-134.610	48.533	0	85.60	0	8.6380	0	32.3540	0	25.104	0	84.860	0	258.8	4	89.7	4	-1E+10	1	-1E+10	1	-1E+10	1	-1E+10	1	-1E+10	1	-1E+10	1
4902549	10	C	11/17/2020	08:57	-134.610	48.533	0	95.70	0	6.9220	0	32.4570	0	25.428	0	94.870	0	259.4	4	86.6	4	-1E+10	1	-1E+10	1	-1E+10	1	-1E+10	1	-1E+10	1	-1E+10	1
4902549	10	C	11/17/2020	08:57	-134.610	48.533	0	105.40	0	6.6290	0	32.5240	0	25.519	0	104.484	0	247.1	4	82.0	4	-1E+10	1	-1E+10	1	-1E+10	1	-1E+10	1	-1E+10	1	-1E+10	1
4902549	10	C	11/17/2020	08:57	-134.610	48.533	0	115.80	0	6.4810	0	32.7060	0	25.681	0	114.790	0	219.3	4	72.6	4	-1E+10	1	-1E+10	1	-1E+10	1	-1E+10	1	-1E+10	1	-1E+10	1
4902549	10	C	11/17/2020	08:57	-134.610	48.533	0	125.60	0	6.5350	0	33.0040	0	25.910	0	124.502	0	197.9	4	65.8	4	-1E+10	1	-1E+10	1	-1E+10	1	-1E+10	1	-1E+10	1	-1E+10	1
4902549	10	C	11/17/2020	08:57	-134.610	48.533	0	135.30	0	6.4660	0	33.2480	0	26.111	0	134.114	0	184.6	4	61.3	4	-1E+10	1	-1E+10	1	-1E+10	1	-1E+10	1	-1E+10	1	-1E+10	1
4902549	10	C	11/17/2020	08:57	-134.610	48.533	0	145.10	0	6.3440	0	33.4070	0	26.252	0	143.825	0	175.8	4	58.3	4	-1E+10	1	-1E+10	1	-1E+10	1	-1E+10	1	-1E+10	1	-1E+10	1
4902549	10	C	11/17/2020	08:57	-134.610	48.533	0	155.50	0	6.2320	0	33.4880	0	26.331	0	154.130	0	168.6	4	55.8	4	-1E+10	1	-1E+10	1	-1E+10	1	-1E+10	1	-1E+10	1	-1E+10	1
4902549	10	C	11/17/2020	08:57	-134.610	48.533	0	165.50	0	6.0800	0	33.5730	0	26.417	0	164.037	0	160.5	4	53.0	4	-1E+10	1	-1E+10	1	-1E+10	1	-1E+10	1	-1E+10	1	-1E+10	1
4902549	10	C	11/17/2020	08:57	-134.610	48.533	0	175.40	0	5.9310	0	33.6470	0	26.494	0	173.846	0	153.4	4	50.5	4	-1E+10	1	-1E+10	1	-1E+10	1	-1E+10	1	-1E+10	1	-1E+10	1
4902549	10	C	11/17/2020	08:57	-134.610	48.533	0	185.60	0	5.8440	0	33.6840	0	26.534	0	183.951	0	147.1	4	48.3	4	-1E+10	1	-1E+10	1	-1E+10	1	-1E+10	1	-1E+10	1	-1E+10	1
4902549	10	C	11/17/2020	08:57	-134.610	48.533	0	195.40	0	5.7460	0	33.7180	0	26.573	0	193.659	0	141.3	4	46.4	4	-1E+10	1	-1E+10	1	-1E+10	1	-1E+10	1	-1E+10	1	-1E+10	1
4902549	10	C	11/17/2020	08:57	-134.610	48.533	0	214.00	0	5.5860	0	33.7580	0	26.624	0	212.084	0	134.0	4	43.8	4	-1E+10	1	-1E+10	1	-1E+10	1	-1E+10	1	-1E+10	1	-1E+10	1
4902549	10	C	11/17/2020	08:57	-134.610	48.533	0	237.90	0	5.3680	0	33.7910	0	26.677	0	235.756	0	122.2	4	39.8	4	-1E+10	1	-1E+10	1	-1E+10	1	-1E+10	1	-1E+10	1	-1E+10	1
4902549	10	C	11/17/2020	08:57	-134.610	48.533	0	262.90	0	5.1400	0	33.8180	0	26.725	0	260.515	0	107.3	4	34.7	4	-1E+10	1	-1E+10	1	-1E+10	1	-1E+10	1	-1E+10	1	-1E+10	1
4902549	10	C	11/17/2020	08:57	-134.610	48.533	0	287.70	0	4.9430	0	33.8460	0	26.769	0	285.073	0	92.4	4	29.8	4	-1E+10	1	-1E+10	1	-1E+10	1	-1E+10	1	-1E+10	1	-1E+10	1
4902549	10	C	11/17/2020	08:57	-134.610	48.533	0	312.50	0	4.8090	0	33.8750	0	26.808	0	309.628	0	80.0	4	25.7	4	-1E+10	1	-1E+10	1	-1E+10	1	-1E+10	1	-1E+10	1	-1E+10	1
4902549	10	C	11/17/2020	08:57	-134.610	48.533	0	337.70	0	4.7190	0	33.8980	0	26.836	0	334.576	0	72.6	4	23.3	4	-1E+10	1	-1E+10	1	-1E+10	1	-1E+10	1	-1E+10	1	-1E+10	1
4902549	10	C	11/17/2020	08:57	-134.610	48.533	0	362.90	0	4.5900	0	33.9230	0	26.870	0	359.522	0	66.0	4	21.1	4	-1E+10	1	-1E+10	1	-1E+10	1	-1E+10	1	-1E+10	1	-1E+10	1
4902549	10	C	11/17/2020	08:57	-134.610	48.533	0	387.90	0	4.4840	0	33.9510	0	26.904	0	384.266	0	59.7	4	19.0	4	-1E+10	1	-1E+10	1	-1E+10	1	-1E+10	1	-1E+10	1	-1E+10	1
4902549	10	C	11/17/2020	08:57	-134.610	48.533	0	412.60	0	4.4160	0	33.9710	0	26.927	0	408.710	0	53.8	4	17.1	4	-1E+10	1	-1E+10	1	-1E+10	1	-1E+10	1	-1E+10	1	-1E+10	1
4902549	10	C	11/17/2020	08:57	-134.610	48.533	0	438.20	0	4.3370	0	33.9980	0	26.957	0	434.042	0	47.4	4	15.1	4	-1E+10	1	-1E+10	1	-1E+10	1	-1E+10	1	-1E+10	1	-1E+10	1
4902549	10	C	11/17/2020	08:57	-134.610	48.533	0	462.30	0	4.2620	0	34.0230	0	26.985	0	457.886	0	42.1	4	13.4	4	-1E+10	1	-1E+10	1	-1E+10	1	-1E+10	1	-1E+10	1	-1E+10	1
4902549	10	C	11/17/2020	08:57	-134.610	48.533	0	487.60	0	4.1900	0	34.0480	0	27.013	0	482.916	0	36.7	4	11.6	4	-1E+10	1	-1E+10	1	-1E+10	1	-1E+10	1	-1E+10	1	-1E+10	1
4902549	10	C	11/17/2020	08:57	-134.610	48.533	0	512.90	0	4.1320	0	34.0700	0	27.037	0	507.942	0	32.7	4	10.4	4	-1E+10	1	-1E+10	1	-1E+10	1	-1E+10	1	-1E+10	1	-1E+10	1
4902549	10	C	11/17/2020	08:57	-134.610	48.533	0	538.70	0	4.0720	0	34.0910	0	27.060	0	533.459	0	28.9	4	9.1	4	-1E+10	1	-1E+10	1	-1E+10	1	-1E+10	1	-1E+10	1	-1E+10	1
4902549	10	C	11/17/2020	08:57	-134.610	48.533	0	562.90	0	4.0050	0	34.1150	0	27.086	0	557.391	0	25.1	4	7.9	4	-1E+10	1	-1E+10	1	-1E+10	1	-1E+10	1	-1E+10	1	-1E+10	1
4902549	10	C	11/17/2020	08:57	-134.610	48.533	0	587.80	0	3.9460	0	34.1350	0	27.108	0	582.013	0	21.9	4	6.9	4	-1E+10	1	-1E+10	1	-1E+10	1	-1E+10	1	-1E+10	1	-1E+10	1
4902549	10	C	11/17/2020	08:57	-134.610	48.533	0	612.90	0	3.8730	0	34.1580	0	27.134	0	606.829	0	18.7	4	5.9	4	-1E+10	1	-1E+10	1	-1E+10	1	-1E+10	1	-1E+10	1	-1E+10	1
4902549	10	C	11/17/2020	08:57	-134.610	48.533	0	637.80	0	3.8110	0	34.1790	0	27.157	0	631.445	0	16.4	4	5.1	4	-1E+10	1	-1E+10	1	-1E+10	1	-1E+10	1	-1E+10	1	-1E+10	1
4902549	10	C	11/17/2020	08:57	-134.610	48.533	0	662.80	0	3.7800	0	34.1940	0	27.172	0	656.156	0	14.8	4	4.6	4	-1E+10	1	-1E+10	1	-1E+10	1	-1E+10	1	-1E+10	1	-1E+10	1
4902549	10	C	11/17/2020	08:57	-134.610	48.533	0	688.00	0	3.7450	0	34.2100	0	27.188	0	681.062	0	12.7	4	4.0	4	-1E+10	1	-1E+10	1	-1E+10	1	-1E+10	1	-1E+10	1	-1E+10	1
4902549	10	C	11/17/2020	08:57	-134.610	48.533	0	713.10	0	3.7360	0	34.2320	0	27.207	0	705.867	0	10.5	4	3.3	4	-1E+10	1	-1E+10	1	-1E+10	1	-1E+10	1	-1E+10	1	-1E+10	1
4902549	10	C	11/17/2020	08:57	-134.610	48.533	0	738.70	0	3.6900	0	34.2500	0	27.226	0	731.162	0	9.5	4	3.0	4	-1E+10	1	-1E+10	1	-1E+10	1	-1E+10	1	-1E+10	1	-1E+10	1
4902549	10	C	11/17/2020	08:57	-134.610	48.533	0	762.60	0	3.6110	0	34.2610	0	27.243	0	754.775	0	9.4	4	2.9	4	-1E+10	1	-1E+10	1	-1E+10	1	-1E+10	1	-1E+10	1	-1E+10	1
4902549	10	C	11/17/2020	08:57	-134.610	48.533	0	787.80	0	3.5480	0	34.2700	0	27.256	0	779.670	0	9.2	4	2.9	4	-1E+10	1	-1E+10	1	-1E+10	1	-1E+10	1	-1E+10	1	-1E+10	1
4902549	10	C	11/17/2020	08:57	-134.610	48.533	0	813.30	0	3.4590	0	34.2820	0	27.274	0	804.857	0	9.3	4	2.9	4	-1E+10	1	-1E+10	1	-1E+10	1	-1E+10	1	-1E+10	1	-1E+10	1
4902549	10	C	11/17/2020	08:57	-134.610	48.533	0	838.30	0	3.3930	0	34.2910	0	27.288	0	829.548	0	9.2	4	2.9	4	-1E+10	1	-1E+10	1	-1E+10	1	-1E+10	1	-1E+10	1	-1E+10	1
4902549	10	C	11/17/2020	08:57	-134.610	48.533	0	863.40	0	3.3420	0	34.3000	0	27.300	0	854.335	0	9.0	4	2.8	4	-1E+10	1	-1E+10	1	-1E+10	1	-1E+10	1	-1E+10	1	-1E+10	1
4902549	10	C	11/17/2020	08:57	-134.610	48.533	0	887.90	0	3.2850	0	34.3120	0	27.315	0	878.526	0	8.8	4	2.7	4	-1E+10	1	-1E+10	1	-1E+10	1	-1E+10	1	-1E+10	1	-1E+10	1
4902549	10	C	11/17/2020	08:57	-134.610	48.533	0	912.90	0	3.2390	0	34.3220	0	27.328	0	903.208	0	8.6	4	2.7	4	-1E+10	1	-1E+10	1	-1E+10	1	-1E+10	1	-1E+10	1	-1E+10	1
4902549	10	C	11/17/2020	08:57	-134.610	48.533	0	938.20	0	3.1990	0	34.3300	0	27.338	0	928.184	0	8.6	4	2.7	4	-1E+10	1	-1E+10	1	-1E+10	1	-1E+10	1	-1E+10	1	-1E+10	1
4902549	10	C	11/17/2020	08:57	-134.610	48.533	0	962.80	0	3.1590	0	34.3390	0	27.349	0	952.465	0	8.4	4	2.6	4	-1E+10	1	-1E+10	1	-1E+10	1	-1E+10	1	-1E+10	1	-1E+10	1
4902549	10	C	11/17/2020	08:57	-134.610	48.533	0	988.50	0	3.1060	0	34.3530	0	27.365	0	977.829	0	7.9	4	2.5	4	-1E+10	1	-1E+10	1	-1E+10	1	-1E+10	1	-1E+10	1	-1E+10	1
4902549	10	C	11/17/2020	08:57	-134.610	48.533	0	1012.70	0	3.0780	0	34.3670	0	27.379	0	1001.710	0	7.5	4	2.3	4	-1E+10	1	-1E+10	1	-1E+10	1	-1E+10	1	-1E+10	1	-1E+10	1
4902549	10	C	11/17/2020	08:57	-134.610	48.533	0	1037.70	0	3.0440	0	34.3750	0	27.389	0	1026.378	0	7.6	4	2.3	4	-1E+10	1	-1E+10	1	-1E+10	1	-1E+10	1	-1E+10	1	-1E+10	1
4902549	10	C	11/17/2020	08:57	-134.610	48.533	0	1062.60	0	2.9980	0	34.3830	0	27.399	0	1050.944	0	7.9	4	2.4	4	-1E+10	1	-1E+10	1	-1E+10	1	-1E+10	1	-1E+10	1	-1E+10	1
4902549	10	C	11/17/2020	08:57	-134.610	48.533	0	1087.70	0	2.9530	0	34.3910	0	27.410	0	1075.704	0	8.2	4	2.5	4	-1E+10	1	-1E+10	1	-1E+10	1	-1E+10	1	-1E+10	1	-1E+10	1
4902549	10	C	11/17/2020	08:57	-134.610	48.533	0	1112.70	0	2.9200	0	34.3980	0	27.419	0	1100.363	0	8.5	4	2.6	4	-1E+10	1	-1E+10	1	-1E+10	1	-1E+10	1	-1E+10	1	-1E+10	1
4902549	10	C	11/17/2020	08:57	-134.610	48.533	0	1137.70	0	2.8890	0	34.4030	0	27.426	0	1125.019	0	8.7	4	2.7	4	-1E+10	1	-1E+10	1	-1E+10	1	-1E+10	1	-1E+10	1	-1E+10	1
4902549	10	C	11/17/2020	08:57	-134.610	48.533	0	1163.40	0	2.8450	0	34.4110	0	27.436	0	1150.362	0	9.0	4	2.8	4	-1E+10	1	-1E+10	1	-1E+10	1	-1E+10	1	-1E+10	1	-1E+10	1
4902549	10	C	11/17/2020	08:57	-134.610	48.533	0	1187.70	0	2.8100	0	34.4180	0	27.445	0	1174.322	0	9.4	4	2.9	4	-1E+10	1	-1E+10	1	-1E+10	1	-1E+10	1	-1E+10	1	-1E+10	1
4902549	10	C	11/17/2020	08:57	-134.610	48.533	0	1212.70	0	2.7810	0	34.4250	0	27.453	0	1198.969	0	9.6	4	2.9	4	-1E+10	1	-1E+10	1	-1E+10	1	-1E+10	1	-1E+10	1	-1E+10	1
4902549	10	C	11/17/2020	08:57	-134.610	48.533	0	1237.50	0	2.7380	0	34.4330	0	27.463	0	1223.416	0	10.1	4	3.1	4	-1E+10	1	-1E+10	1	-1E+10	1	-1E+10	1	-1E+10	1	-1E+10	1
4902549	10	C	11/17/2020	08:57	-134.610	48.533	0	1262.80	0	2.6880	0	34.4410	0	27.474	0	1248.353	0	10.6	4	3.3	4	-1E+10	1	-1E+10	1	-1E+10	1	-1E+10	1	-1E+10	1	-1E+10	1
4902549	10	C	11/17/2020	08:57	-134.610	48.533	0	1287.70	0	2.6520	0	34.4480	0	27.483	0	1272.893	0	11.0	4	3.4	4	-1E+10	1	-1E+10	1	-1E+10	1	-1E+10	1	-1E+10	1	-1E+10	1
4902549	10	C	11/17/2020	08:57	-134.610	48.533	0	1312.40	0	2.6280	0	34.4530	0	27.489	0	1297.233	0	11.4	4	3.5	4	-1E+10	1	-1E+10	1	-1E+10	1	-1E+10	1	-1E+10	1	-1E+10	1
4902549	10	C	11/17/2020	08:57	-134.610	48.533	0	1337.70	0	2.6050	0	34.4580	0	27.495	0	1322.161	0	12.1	4	3.7	4	-1E+10	1	-1E+10	1	-1E+10	1	-1E+10	1	-1E+10	1	-1E+10	1
4902549	10	C	11/17/2020	08:57	-134.610	48.533	0	1363.20	0	2.5640	0	34.4650	0	27.504	0	1347.284	0	12.9	4	3.9	4	-1E+10	1	-1E+10	1	-1E+10	1	-1E+10	1	-1E+10	1	-1E+10	1
4902549	10	C	11/17/2020	08:57	-134.610	48.533	0	1388.00	0	2.5380	0	34.4700	0	27.511	0	1371.714	0	13.7	4	4.2	4	-1E+10	1	-1E+10	1	-1E+10	1	-1E+10	1	-1E+10	1	-1E+10	1
4902549	10	C	11/17/2020	08:57	-134.610	48.533	0	1412.80	0	2.5010	0	34.4770	0	27.520	0	1396.141	0	15.0	4	4.6	4	-1E+10	1	-1E+10	1	-1E+10	1	-1E+10	1	-1E+10	1	-1E+10	1
4902549	10	C	11/17/2020	08:57	-134.610	48.533	0	1438.60	0	2.4520	0	34.4850	0	27.530	0	1421.550	0	16.4	4	5.0	4	-1E+10	1	-1E+10	1	-1E+10	1	-1E+10	1	-1E+10	1	-1E+10	1
4902549	10	C	11/17/2020	08:57	-134.610	48.533	0	1462.80	0	2.4130	0	34.4920	0	27.539	0	1445.380	0	17.7	4	5.4	4	-1E+10	1	-1E+10	1	-1E+10	1	-1E+10	1	-1E+10	1	-1E+10	1
4902549	10	C	11/17/2020	08:57	-134.610	48.533	0	1488.30	0	2.3720	0	34.5000	0	27.549	0	1470.488	0	19.4	4	5.9	4	-1E+10	1	-1E+10	1	-1E+10	1	-1E+10	1	-1E+10	1	-1E+10	1
4902549	10	C	11/17/2020	08:57	-134.610	48.533	0	1512.80	0	2.3340	0	34.5070	0	27.558	0	1494.608	0	21.1	4	6.4	4	-1E+10	1	-1E+10	1	-1E+10	1	-1E+10	1	-1E+10	1	-1E+10	1
4902549	10	C	11/17/2020	08:57	-134.610	48.533	0	1537.60	0	2.3000	0	34.5130	0	27.566	0	1519.020	0	22.5	4	6.8	4	-1E+10	1	-1E+10	1	-1E+10	1	-1E+10	1	-1E+10	1	-1E+10	1
4902549	10	C	11/17/2020	08:57	-134.610	48.533	0	1562.80	0	2.2740	0	34.5170	0	27.571	0	1543.824	0	24.0	4	7.3	4	-1E+10	1	-1E+10	1	-1E+10	1	-1E+10	1	-1E+10	1	-1E+10	1
4902549	10	C	11/17/2020	08:57	-134.610	48.533	0	1588.40	0	2.2480	0	34.5230	0	27.578	0	1569.018	0	25.5	4	7.7	4	-1E+10	1	-1E+10	1	-1E+10	1	-1E+10	1	-1E+10	1	-1E+10	1
4902549	10	C	11/17/2020	08:57	-134.610	48.533	0	1612.50	0	2.2240	0	34.5270	0	27.583	0	1592.734	0	27.1	4	8.2	4	-1E+10	1	-1E+10	1	-1E+10	1	-1E+10	1	-1E+10	1	-1E+10	1
4902549	10	C	11/17/2020	08:57	-134.610	48.533	0	1637.60	0	2.1940	0	34.5330	0	27.591	0	1617.430	0	29.0	4	8.8	4	-1E+10	1	-1E+10	1	-1E+10	1	-1E+10	1	-1E+10	1	-1E+10	1
4902549	10	C	11/17/2020	08:57	-134.610	48.533	0	1662.70	0	2.1730	0	34.5370	0	27.596	0	1642.124	0	30.5	4	9.2	4	-1E+10	1	-1E+10	1	-1E+10	1	-1E+10	1	-1E+10	1	-1E+10	1
4902549	10	C	11/17/2020	08:57	-134.610	48.533	0	1687.40	0	2.1550	0	34.5410	0	27.601	0	1666.421	0	32.1	4	9.7	4	-1E+10	1	-1E+10	1	-1E+10	1	-1E+10	1	-1E+10	1	-1E+10	1
4902549	10	C	11/17/2020	08:57	-134.610	48.533	0	1712.90	0	2.1310	0	34.5450	0	27.606	0	1691.503	0	33.8	4	10.2	4	-1E+10	1	-1E+10	1	-1E+10	1	-1E+10	1	-1E+10	1	-1E+10	1
4902549	10	C	11/17/2020	08:57	-134.610	48.533	0	1738.20	0	2.1140	0	34.5490	0	27.611	0	1716.384	0	34.9	4	10.6	4	-1E+10	1	-1E+10	1	-1E+10	1	-1E+10	1	-1E+10	1	-1E+10	1
4902549	10	C	11/17/2020	08:57	-134.610	48.533	0	1763.10	0	2.0970	0	34.5520	0	27.614	0	1740.870	0	36.2	4	10.9	4	-1E+10	1	-1E+10	1	-1E+10	1	-1E+10	1	-1E+10	1	-1E+10	1
4902549	10	C	11/17/2020	08:57	-134.610	48.533	0	1788.00	0	2.0760	0	34.5560	0	27.619	0	1765.352	0	38.0	4	11.5	4	-1E+10	1	-1E+10	1	-1E+10	1	-1E+10	1	-1E+10	1	-1E+10	1
4902549	10	C	11/17/2020	08:57	-134.610	48.533	0	1812.70	0	2.0540	0	34.5600	0	27.624	0	1789.635	0	39.7	4	12.0	4	-1E+10	1	-1E+10	1	-1E+10	1	-1E+10	1	-1E+10	1	-1E+10	1
4902549	10	C	11/17/2020	08:57	-134.610	48.533	0	1837.90	0	2.0370	0	34.5640	0	27.629	0	1814.407	0	41.2	4	12.4	4	-1E+10	1	-1E+10	1	-1E+10	1	-1E+10	1	-1E+10	1	-1E+10	1
4902549	10	C	11/17/2020	08:57	-134.610	48.533	0	1862.70	0	2.0200	0	34.5670	0	27.633	0	1838.783	0	42.5	4	12.8	4	-1E+10	1	-1E+10	1	-1E+10	1	-1E+10	1	-1E+10	1	-1E+10	1
4902549	10	C	11/17/2020	08:57	-134.610	48.533	0	1887.70	0	2.0060	0	34.5700	0	27.637	0	1863.352	0	43.8	4	13.2	4	-1E+10	1	-1E+10	1	-1E+10	1	-1E+10	1	-1E+10	1	-1E+10	1
4902549	10	C	11/17/2020	08:57	-134.610	48.533	0	1912.90	0	1.9880	0	34.5740	0	27.641	0	1888.116	0	45.4	4	13.7	4	-1E+10	1	-1E+10	1	-1E+10	1	-1E+10	1	-1E+10	1	-1E+10	1
4902549	10	C	11/17/2020	08:57	-134.610	48.533	0	1937.70	0	1.9720	0	34.5770	0	27.645	0	1912.483	0	46.6	4	14.0	4	-1E+10	1	-1E+10	1	-1E+10	1	-1E+10	1	-1E+10	1	-1E+10	1
4902549	10	C	11/17/2020	08:57	-134.610	48.533	0	1959.90	0	1.9590	0	34.5790	0	27.648	0	1934.293	0	46.9	4	14.1	4	-1E+10	1	-1E+10	1	-1E+10	1	-1E+10	1	-1E+10	1	-1E+10	1
4902549	10	C	11/17/2020	08:57	-134.610	48.533	0																										
4902549	11	C	11/27/2020	08:50	-134.493	48.358	0	0.40	0	10.7990	0	32.2580	0	24.677	0	0.397	0	260.8	4	94.7	4	-1E+10	1	-1E+10	1	-1E+10	1	-1E+10	1	-1E+10	1	-1E+10	1
4902549	11	C	11/27/2020	08:50	-134.493	48.358	0	1.00	0	10.7990	0	32.2590	0	24.677	0	0.992	0	260.8	4	94.7	4	-1E+10	1	-1E+10	1	-1E+10	1	-1E+10	1	-1E+10	1	-1E+10	1
4902549	11	C	11/27/2020	08:50	-134.493	48.358	0	2.10	0	10.7990	0	32.2620	0	24.680	0	2.082	0	260.8	4	94.7	4	-1E+10	1	-1E+10	1	-1E+10	1	-1E+10	1	-1E+10	1	-1E+10	1
4902549	11	C	11/27/2020	08:50	-134.493	48.358	0	3.30	0	10.8010	0	32.2620	0	24.679	0	3.272	0	260.8	4	94.7	4	-1E+10	1	-1E+10	1	-1E+10	1	-1E+10	1	-1E+10	1	-1E+10	1
4902549	11	C	11/27/2020	08:50	-134.493	48.358	0	4.10	0	10.8010	0	32.2620	0	24.679	0	4.065	0	260.7	4	94.7	4	-1E+10	1	-1E+10	1	-1E+10	1	-1E+10	1	-1E+10	1	-1E+10	1
4902549	11	C	11/27/2020	08:50	-134.493	48.358	0	4.80	0	10.8040	0	32.2580	0	24.676	0	4.760	0	260.6	4	94.7	4	-1E+10	1	-1E+10	1	-1E+10	1	-1E+10	1	-1E+10	1	-1E+10	1
4902549	11	C	11/27/2020	08:50	-134.493	48.358	0	6.10	0	10.8070	0	32.2620	0	24.678	0	6.049	0	260.7	4	94.7	4	-1E+10	1	-1E+10	1	-1E+10	1	-1E+10	1	-1E+10	1	-1E+10	1
4902549	11	C	11/27/2020	08:50	-134.493	48.358	0	7.10	0	10.8050	0	32.2590	0	24.676	0	7.040	0	260.6	4	94.7	4	-1E+10	1	-1E+10	1	-1E+10	1	-1E+10	1	-1E+10	1	-1E+10	1
4902549	11	C	11/27/2020	08:50	-134.493	48.358	0	8.00	0	10.8080	0	32.2600	0	24.677	0	7.932	0	260.6	4	94.7	4	-1E+10	1	-1E+10	1	-1E+10	1	-1E+10	1	-1E+10	1	-1E+10	1
4902549	11	C	11/27/2020	08:50	-134.493	48.358	0	8.80	0	10.8070	0	32.2600	0	24.677	0	8.726	0	260.6	4	94.7	4	-1E+10	1	-1E+10	1	-1E+10	1	-1E+10	1	-1E+10	1	-1E+10	1
4902549	11	C	11/27/2020	08:50	-134.493	48.358	0	9.80	0	10.8110	0	32.2620	0	24.678	0	9.717	0	260.6	4	94.7	4	-1E+10	1	-1E+10	1	-1E+10	1	-1E+10	1	-1E+10	1	-1E+10	1
4902549	11	C	11/27/2020	08:50	-134.493	48.358	0	15.10	0	10.8150	0	32.2630	0	24.678	0	14.972	0	260.5	4	94.7	4	-1E+10	1	-1E+10	1	-1E+10	1	-1E+10	1	-1E+10	1	-1E+10	1
4902549	11	C	11/27/2020	08:50	-134.493	48.358	0	25.30	0	10.8140	0	32.2640	0	24.679	0	25.085	0	260.3	4	94.6	4	-1E+10	1	-1E+10	1	-1E+10	1	-1E+10	1	-1E+10	1	-1E+10	1
4902549	11	C	11/27/2020	08:50	-134.493	48.358	0	35.60	0	10.8100	0	32.2640	0	24.680	0	35.297	0	260.1	4	94.5	4	-1E+10	1	-1E+10	1	-1E+10	1	-1E+10	1	-1E+10	1	-1E+10	1
4902549	11	C	11/27/2020	08:50	-134.493	48.358	0	45.60	0	10.8040	0	32.2640	0	24.681	0	45.211	0	259.8	4	94.4	4	-1E+10	1	-1E+10	1	-1E+10	1	-1E+10	1	-1E+10	1	-1E+10	1
4902549	11	C	11/27/2020	08:50	-134.493	48.358	0	55.50	0	10.7880	0	32.2650	0	24.685	0	55.025	0	259.4	4	94.2	4	-1E+10	1	-1E+10	1	-1E+10	1	-1E+10	1	-1E+10	1	-1E+10	1
4902549	11	C	11/27/2020	08:50	-134.493	48.358	0	65.60	0	10.7500	0	32.2640	0	24.691	0	65.037	0	258.1	4	93.7	4	-1E+10	1	-1E+10	1	-1E+10	1	-1E+10	1	-1E+10	1	-1E+10	1
4902549	11	C	11/27/2020	08:50	-134.493	48.358	0	75.70	0	10.3250	0	32.2820	0	24.778	0	75.049	0	254.6	4	91.6	4	-1E+10	1	-1E+10	1	-1E+10	1	-1E+10	1	-1E+10	1	-1E+10	1
4902549	11	C	11/27/2020	08:50	-134.493	48.358	0	85.70	0	8.5150	0	32.4050	0	25.162	0	84.960	0	255.8	4	88.5	4	-1E+10	1	-1E+10	1	-1E+10	1	-1E+10	1	-1E+10	1	-1E+10	1
4902549	11	C	11/27/2020	08:50	-134.493	48.358	0	95.40	0	7.8510	0	32.4490	0	25.294	0	94.574	0	253.8	4	86.5	4	-1E+10	1	-1E+10	1	-1E+10	1	-1E+10	1	-1E+10	1	-1E+10	1
4902549	11	C	11/27/2020	08:50	-134.493	48.358	0	105.10	0	7.1350	0	32.5820	0	25.498	0	104.188	0	242.6	4	81.5	4	-1E+10	1	-1E+10	1	-1E+10	1	-1E+10	1	-1E+10	1	-1E+10	1
4902549	11	C	11/27/2020	08:50	-134.493	48.358	0	115.40	0	6.9830	0	32.7880	0	25.680	0	114.396	0	223.9	4	75.1	4	-1E+10	1	-1E+10	1	-1E+10	1	-1E+10	1	-1E+10	1	-1E+10	1
4902549	11	C	11/27/2020	08:50	-134.493	48.358	0	125.70	0	6.7200	0	33.0180	0	25.897	0	124.603	0	196.1	4	65.4	4	-1E+10	1	-1E+10	1	-1E+10	1	-1E+10	1	-1E+10	1	-1E+10	1
4902549	11	C	11/27/2020	08:50	-134.493	48.358	0	135.00	0	6.4340	0	33.3290	0	26.179	0	133.819	0	177.0	4	58.8	4	-1E+10	1	-1E+10	1	-1E+10	1	-1E+10	1	-1E+10	1	-1E+10	1
4902549	11	C	11/27/2020	08:50	-134.493	48.358	0	145.20	0	6.2480	0	33.4710	0	26.315	0	143.926	0	167.0	4	55.3	4	-1E+10	1	-1E+10	1	-1E+10	1	-1E+10	1	-1E+10	1	-1E+10	1
4902549	11	C	11/27/2020	08:50	-134.493	48.358	0	155.40	0	6.0910	0	33.5730	0	26.416	0	154.033	0	159.1	4	52.5	4	-1E+10	1	-1E+10	1	-1E+10	1	-1E+10	1	-1E+10	1	-1E+10	1
4902549	11	C	11/27/2020	08:50	-134.493	48.358	0	165.20	0	5.9460	0	33.6350	0	26.483	0	163.743	0	153.8	4	50.6	4	-1E+10	1	-1E+10	1	-1E+10	1	-1E+10	1	-1E+10	1	-1E+10	1
4902549	11	C	11/27/2020	08:50	-134.493	48.358	0	175.20	0	5.8480	0	33.6800	0	26.530	0	173.650	0	147.5	4	48.5	4	-1E+10	1	-1E+10	1	-1E+10	1	-1E+10	1	-1E+10	1	-1E+10	1
4902549	11	C	11/27/2020	08:50	-134.493	48.358	0	185.10	0	5.7550	0	33.7200	0	26.574	0	183.458	0	141.6	4	46.5	4	-1E+10	1	-1E+10	1	-1E+10	1	-1E+10	1	-1E+10	1	-1E+10	1
4902549	11	C	11/27/2020	08:50	-134.493	48.358	0	195.40	0	5.6820	0	33.7420	0	26.600	0	193.662	0	137.5	4	45.0	4	-1E+10	1	-1E+10	1	-1E+10	1	-1E+10	1	-1E+10	1	-1E+10	1
4902549	11	C	11/27/2020	08:50	-134.493	48.358	0	213.00	0	5.5340	0	33.7720	0	26.642	0	211.097	0	130.5	4	42.6	4	-1E+10	1	-1E+10	1	-1E+10	1	-1E+10	1	-1E+10	1	-1E+10	1
4902549	11	C	11/27/2020	08:50	-134.493	48.358	0	237.70	0	5.3490	0	33.8020	0	26.687	0	235.562	0	119.4	4	38.8	4	-1E+10	1	-1E+10	1	-1E+10	1	-1E+10	1	-1E+10	1	-1E+10	1
4902549	11	C	11/27/2020	08:50	-134.493	48.358	0	262.70	0	5.1000	0	33.8250	0	26.735	0	260.321	0	106.2	4	34.3	4	-1E+10	1	-1E+10	1	-1E+10	1	-1E+10	1	-1E+10	1	-1E+10	1
4902549	11	C	11/27/2020	08:50	-134.493	48.358	0	287.50	0	4.9240	0	33.8440	0	26.770	0	284.880	0	93.9	4	30.2	4	-1E+10	1	-1E+10	1	-1E+10	1	-1E+10	1	-1E+10	1	-1E+10	1
4902549	11	C	11/27/2020	08:50	-134.493	48.358	0	313.00	0	4.7820	0	33.8720	0	26.808	0	310.128	0	81.4	4	26.1	4	-1E+10	1	-1E+10	1	-1E+10	1	-1E+10	1	-1E+10	1	-1E+10	1
4902549	11	C	11/27/2020	08:50	-134.493	48.358	0	337.80	0	4.6640	0	33.9020	0	26.845	0	334.681	0	71.8	4	23.0	4	-1E+10	1	-1E+10	1	-1E+10	1	-1E+10	1	-1E+10	1	-1E+10	1
4902549	11	C	11/27/2020	08:50	-134.493	48.358	0	362.50	0	4.5550	0	33.9280	0	26.878	0	359.131	0	62.8	4	20.1	4	-1E+10	1	-1E+10	1	-1E+10	1	-1E+10	1	-1E+10	1	-1E+10	1
4902549	11	C	11/27/2020	08:50	-134.493	48.358	0	387.90	0	4.5040	0	33.9580	0	26.907	0	384.272	0	52.1	4	16.6	4	-1E+10	1	-1E+10	1	-1E+10	1	-1E+10	1	-1E+10	1	-1E+10	1
4902549	11	C	11/27/2020	08:50	-134.493	48.358	0	412.60	0	4.4460	0	33.9830	0	26.934	0	408.716	0	46.8	4	14.9	4	-1E+10	1	-1E+10	1	-1E+10	1	-1E+10	1	-1E+10	1	-1E+10	1
4902549	11	C	11/27/2020	08:50	-134.493	48.358	0	437.80	0	4.3410	0	34.0080	0	26.965	0	433.653	0	42.1	4	13.4	4	-1E+10	1	-1E+10	1	-1E+10	1	-1E+10	1	-1E+10	1	-1E+10	1
4902549	11	C	11/27/2020	08:50	-134.493	48.358	0	462.50	0	4.2690	0	34.0290	0	26.989	0	458.092	0	38.2	4	12.1	4	-1E+10	1	-1E+10	1	-1E+10	1	-1E+10	1	-1E+10	1	-1E+10	1
4902549	11	C	11/27/2020	08:50	-134.493	48.358	0	487.60	0	4.2060	0	34.0490	0	27.012	0	482.923	0	34.0	4	10.8	4	-1E+10	1	-1E+10	1	-1E+10	1	-1E+10	1	-1E+10	1	-1E+10	1
4902549	11	C	11/27/2020	08:50	-134.493	48.358	0	512.80	0	4.1540	0	34.0660	0	27.031	0	507.851	0	30.8	4	9.7	4	-1E+10	1	-1E+10	1	-1E+10	1	-1E+10	1	-1E+10	1	-1E+10	1
4902549	11	C	11/27/2020	08:50	-134.493	48.358	0	537.50	0	4.0940	0	34.0870	0	27.054	0	532.281	0	27.8	4	8.8	4	-1E+10	1	-1E+10	1	-1E+10	1	-1E+10	1	-1E+10	1	-1E+10	1
4902549	11	C	11/27/2020	08:50	-134.493	48.358	0	562.50	0	4.0370	0	34.1030	0	27.073	0	557.005	0	26.4	4	8.3	4	-1E+10	1	-1E+10	1	-1E+10	1	-1E+10	1	-1E+10	1	-1E+10	1
4902549	11	C	11/27/2020	08:50	-134.493	48.358	0	587.50	0	3.9900	0	34.1200	0	27.092	0	581.725	0	23.7	4	7.5	4	-1E+10	1	-1E+10	1	-1E+10	1	-1E+10	1	-1E+10	1	-1E+10	1
4902549	11	C	11/27/2020	08:50	-134.493	48.358	0	612.90	0	3.9150	0	34.1450	0	27.119	0	606.839	0	20.3	4	6.4	4	-1E+10	1	-1E+10	1	-1E+10	1	-1E+10	1	-1E+10	1	-1E+10	1
4902549	11	C	11/27/2020	08:50	-134.493	48.358	0	638.70	0	3.8550	0	34.1640	0	27.141	0	632.344	0	18.0	4	5.7	4	-1E+10	1	-1E+10	1	-1E+10	1	-1E+10	1	-1E+10	1	-1E+10	1
4902549	11	C	11/27/2020	08:50	-134.493	48.358	0	662.70	0	3.7890	0	34.1830	0	27.162	0	656.068	0	15.9	4	5.0	4	-1E+10	1	-1E+10	1	-1E+10	1	-1E+10	1	-1E+10	1	-1E+10	1
4902549	11	C	11/27/2020	08:50	-134.493	48.358	0	687.60	0	3.7370	0	34.2040	0	27.184	0	680.678	0	13.6	4	4.3	4	-1E+10	1	-1E+10	1	-1E+10	1	-1E+10	1	-1E+10	1	-1E+10	1
4902549	11	C	11/27/2020	08:50	-134.493	48.358	0	712.50	0	3.7190	0	34.2270	0	27.205	0	705.285	0	11.1	4	3.5	4	-1E+10	1	-1E+10	1	-1E+10	1	-1E+10	1	-1E+10	1	-1E+10	1
4902549	11	C	11/27/2020	08:50	-134.493	48.358	0	738.00	0	3.6930	0	34.2490	0	27.225	0	730.482	0	9.4	4	2.9	4	-1E+10	1	-1E+10	1	-1E+10	1	-1E+10	1	-1E+10	1	-1E+10	1
4902549	11	C	11/27/2020	08:50	-134.493	48.358	0	763.00	0	3.6490	0	34.2590	0	27.237	0	755.183	0	9.1	4	2.8	4	-1E+10	1	-1E+10	1	-1E+10	1	-1E+10	1	-1E+10	1	-1E+10	1
4902549	11	C	11/27/2020	08:50	-134.493	48.358	0	787.90	0	3.5900	0	34.2680	0	27.251	0	779.781	0	9.0	4	2.8	4	-1E+10	1	-1E+10	1	-1E+10	1	-1E+10	1	-1E+10	1	-1E+10	1
4902549	11	C	11/27/2020	08:50	-134.493	48.358	0	813.00	0	3.4680	0	34.2810	0	27.273	0	804.574	0	9.2	4	2.9	4	-1E+10	1	-1E+10	1	-1E+10	1	-1E+10	1	-1E+10	1	-1E+10	1
4902549	11	C	11/27/2020	08:50	-134.493	48.358	0	837.70	0	3.3740	0	34.2930	0	27.291	0	828.969	0	9.4	4	2.9	4	-1E+10	1	-1E+10	1	-1E+10	1	-1E+10	1	-1E+10	1	-1E+10	1
4902549	11	C	11/27/2020	08:50	-134.493	48.358	0	863.20	0	3.3120	0	34.3040	0	27.306	0	854.151	0	9.3	4	2.9	4	-1E+10	1	-1E+10	1	-1E+10	1	-1E+10	1	-1E+10	1	-1E+10	1
4902549	11	C	11/27/2020	08:50	-134.493	48.358	0	887.60	0	3.2500	0	34.3180	0	27.323	0	878.244	0	9.0	4	2.8	4	-1E+10	1	-1E+10	1	-1E+10	1	-1E+10	1	-1E+10	1	-1E+10	1
4902549	11	C	11/27/2020	08:50	-134.493	48.358	0	912.60	0	3.2040	0	34.3290	0	27.337	0	902.927	0	8.8	4	2.7	4	-1E+10	1	-1E+10	1	-1E+10	1	-1E+10	1	-1E+10	1	-1E+10	1
4902549	11	C	11/27/2020	08:50	-134.493	48.358	0	937.50	0	3.1600	0	34.3390	0	27.349	0	927.508	0	8.4	4	2.6	4	-1E+10	1	-1E+10	1	-1E+10	1	-1E+10	1	-1E+10	1	-1E+10	1
4902549	11	C	11/27/2020	08:50	-134.493	48.358	0	962.90	0	3.1100	0	34.3500	0	27.362	0	952.579	0	8.1	4	2.5	4	-1E+10	1	-1E+10	1	-1E+10	1	-1E+10	1	-1E+10	1	-1E+10	1
4902549	11	C	11/27/2020	08:50	-134.493	48.358	0	987.90	0	3.0850	0	34.3590	0	27.372	0	977.253	0	7.8	4	2.4	4	-1E+10	1	-1E+10	1	-1E+10	1	-1E+10	1	-1E+10	1	-1E+10	1
4902549	11	C	11/27/2020	08:50	-134.493	48.358	0	1012.70	0	3.0680	0	34.3680	0	27.381	0	1001.726	0	7.6	4	2.3	4	-1E+10	1	-1E+10	1	-1E+10	1	-1E+10	1	-1E+10	1	-1E+10	1
4902549	11	C	11/27/2020	08:50	-134.493	48.358	0	1038.00	0	3.0380	0	34.3750	0	27.389	0	1026.690	0	7.7	4	2.4	4	-1E+10	1	-1E+10	1	-1E+10	1	-1E+10	1	-1E+10	1	-1E+10	1
4902549	11	C	11/27/2020	08:50	-134.493	48.358	0	1063.00	0	2.9940	0	34.3830	0	27.400	0	1051.355	0	7.9	4	2.4	4	-1E+10	1	-1E+10	1	-1E+10	1	-1E+10	1	-1E+10	1	-1E+10	1
4902549	11	C	11/27/2020	08:50	-134.493	48.358	0	1087.90	0	2.9580	0	34.3890	0	27.408	0	1075.919	0	8.2	4	2.5	4	-1E+10	1	-1E+10	1	-1E+10	1	-1E+10	1	-1E+10	1	-1E+10	1
4902549	11	C	11/27/2020	08:50	-134.493	48.358	0	1113.00	0	2.9140	0	34.3990	0	27.420	0	1100.676	0	8.4	4	2.6	4	-1E+10	1	-1E+10	1	-1E+10	1	-1E+10	1	-1E+10	1	-1E+10	1
4902549	11	C	11/27/2020	08:50	-134.493	48.358	0	1137.80	0	2.8720	0	34.4070	0	27.430	0	1125.136	0	8.8	4	2.7	4	-1E+10	1	-1E+10	1	-1E+10	1	-1E+10	1	-1E+10	1	-1E+10	1
4902549	11	C	11/27/2020	08:50	-134.493	48.358	0	1162.80	0	2.8190	0	34.4130	0	27.440	0	1149.789	0	9.0	4	2.8	4	-1E+10	1	-1E+10	1	-1E+10	1	-1E+10	1	-1E+10	1	-1E+10	1
4902549	11	C	11/27/2020	08:50	-134.493	48.358	0	1187.90	0	2.7940	0	34.4190	0	27.447	0	1174.538	0	9.2	4	2.8	4	-1E+10	1	-1E+10	1	-1E+10	1	-1E+10	1	-1E+10	1	-1E+10	1
4902549	11	C	11/27/2020	08:50	-134.493	48.358	0	1212.60	0	2.7650	0	34.4250	0	27.454	0	1198.890	0	9.5	4	2.9	4	-1E+10	1	-1E+10	1	-1E+10	1	-1E+10	1	-1E+10	1	-1E+10	1
4902549	11	C	11/27/2020	08:50	-134.493	48.358	0	1237.80	0	2.7360	0	34.4310	0	27.462	0	1223.732	0	9.9	4	3.0	4	-1E+10	1	-1E+10	1	-1E+10	1	-1E+10	1	-1E+10	1	-1E+10	1
4902549	11	C	11/27/2020	08:50	-134.493	48.358	0	1263.00	0	2.7100	0	34.4360	0	27.468	0	1248.570	0	10.4	4	3.2	4	-1E+10	1	-1E+10	1	-1E+10	1	-1E+10	1	-1E+10	1	-1E+10	1
4902549	11	C	11/27/2020	08:50	-134.493	48.358	0	1288.00	0	2.6690	0	34.4440	0	27.478	0	1273.209	0	11.1	4	3.4	4	-1E+10	1	-1E+10	1	-1E+10	1	-1E+10	1	-1E+10	1	-1E+10	1
4902549	11	C	11/27/2020	08:50	-134.493	48.358	0	1313.60	0	2.6190	0	34.4540	0	27.491	0	1298.436	0	12.0	4	3.7	4	-1E+10	1	-1E+10	1	-1E+10	1	-1E+10	1	-1E+10	1	-1E+10	1
4902549	11	C	11/27/2020	08:50	-134.493	48.358	0	1337.70	0	2.5810	0	34.4610	0	27.500	0	1322.183	0	12.6	4	3.9	4	-1E+10	1	-1E+10	1	-1E+10	1	-1E+10	1	-1E+10	1	-1E+10	1
4902549	11	C	11/27/2020	08:50	-134.493	48.358	0	1362.90	0	2.5550	0	34.4660	0	27.506	0	1347.010	0	13.2	4	4.0	4	-1E+10	1	-1E+10	1	-1E+10	1	-1E+10	1	-1E+10	1	-1E+10	1
4902549	11	C	11/27/2020	08:50	-134.493	48.358	0	1387.60	0	2.5200	0	34.4730	0	27.515	0	1371.342	0	14.3	4	4.4	4	-1E+10	1	-1E+10	1	-1E+10	1	-1E+10	1	-1E+10	1	-1E+10	1
4902549	11	C	11/27/2020	08:50	-134.493	48.358	0	1412.50	0	2.4820	0	34.4800	0	27.524	0	1395.867	0	15.7	4	4.8	4	-1E+10	1	-1E+10	1	-1E+10	1	-1E+10	1	-1E+10	1	-1E+10	1
4902549	11	C	11/27/2020	08:50	-134.493	48.358	0	1437.50	0	2.4470	0	34.4870	0	27.532	0	1420.489	0	16.9	4	5.2	4	-1E+10	1	-1E+10	1	-1E+10	1	-1E+10	1	-1E+10	1	-1E+10	1
4902549	11	C	11/27/2020	08:50	-134.493	48.358	0	1462.50	0	2.4130	0	34.4930	0	27.540	0	1445.108	0	18.2	4	5.5	4	-1E+10	1	-1E+10	1	-1E+10	1	-1E+10	1	-1E+10	1	-1E+10	1
4902549	11	C	11/27/2020	08:50	-134.493	48.358	0	1487.40	0	2.3790	0	34.4990	0	27.548	0	1469.625	0	19.5	4	5.9	4	-1E+10	1	-1E+10	1	-1E+10	1	-1E+10	1	-1E+10	1	-1E+10	1
4902549	11	C	11/27/2020	08:50	-134.493	48.358	0	1512.50	0	2.3510	0	34.5040	0	27.554	0	1494.336	0	20.8	4	6.3	4	-1E+10	1	-1E+10	1	-1E+10	1	-1E+10	1	-1E+10	1	-1E+10	1
4902549	11	C	11/27/2020	08:50	-134.493	48.358	0	1538.00	0	2.3220	0	34.5100	0	27.562	0	1519.439	0	22.2	4	6.8	4	-1E+10	1	-1E+10	1	-1E+10	1	-1E+10	1	-1E+10	1	-1E+10	1
4902549	11	C	11/27/2020	08:50	-134.493	48.358	0	1563.00	0	2.3020	0	34.5140	0	27.567	0	1544.046	0	23.3	4	7.1	4	-1E+10	1	-1E+10	1	-1E+10	1	-1E+10	1	-1E+10	1	-1E+10	1
4902549	11	C	11/27/2020	08:50	-134.493	48.358	0	1587.90	0	2.2770	0	34.5180	0	27.572	0	1568.551	0	24.5	4	7.4	4	-1E+10	1	-1E+10	1	-1E+10	1	-1E+10	1	-1E+10	1	-1E+10	1
4902549	11	C	11/27/2020	08:50	-134.493	48.358	0	1613.10	0	2.2600	0	34.5220	0	27.577	0	1593.350	0	25.6	4	7.8	4	-1E+10	1	-1E+10	1	-1E+10	1	-1E+10	1	-1E+10	1	-1E+10	1
4902549	11	C	11/27/2020	08:50	-134.493	48.358	0	1637.70	0	2.2300	0	34.5270	0	27.583	0	1617.554	0	27.3	4	8.3	4	-1E+10	1	-1E+10	1	-1E+10	1	-1E+10	1	-1E+10	1	-1E+10	1
4902549	11	C	11/27/2020	08:50	-134.493	48.358	0	1662.60	0	2.1990	0	34.5320	0	27.590	0	1642.052	0	28.9	4	8.7	4	-1E+10	1	-1E+10	1	-1E+10	1	-1E+10	1	-1E+10	1	-1E+10	1
4902549	11	C	11/27/2020	08:50	-134.493	48.358	0	1688.10	0	2.1820	0	34.5360	0	27.594	0	1667.136	0	30.1	4	9.1	4	-1E+10	1	-1E+10	1	-1E+10	1	-1E+10	1	-1E+10	1	-1E+10	1
4902549	11	C	11/27/2020	08:50	-134.493	48.358	0	1713.10	0	2.1540	0	34.5410	0	27.601	0	1691.726	0	32.0	4	9.7	4	-1E+10	1	-1E+10	1	-1E+10	1	-1E+10	1	-1E+10	1	-1E+10	1
4902549	11	C	11/27/2020	08:50	-134.493	48.358	0	1738.60	0	2.1340	0	34.5450	0	27.606	0	1716.805	0	33.5	4	10.1	4	-1E+10	1	-1E+10	1	-1E+10	1	-1E+10	1	-1E+10	1	-1E+10	1
4902549	11	C	11/27/2020	08:50	-134.493	48.358	0	1762.80	0	2.1120	0	34.5490	0	27.611	0	1740.603	0	35.3	4	10.7	4	-1E+10	1	-1E+10	1	-1E+10	1	-1E+10	1	-1E+10	1	-1E+10	1
4902549	11	C	11/27/2020	08:50	-134.493	48.358	0	1787.90	0	2.0890	0	34.5540	0	27.617	0	1765.282	0	37.0	4	11.2	4	-1E+10	1	-1E+10	1	-1E+10	1	-1E+10	1	-1E+10	1	-1E+10	1
4902549	11	C	11/27/2020	08:50	-134.493	48.358	0	1812.70	0	2.0710	0	34.5570	0	27.621	0	1789.664	0	38.4	4	11.6	4	-1E+10	1	-1E+10	1	-1E+10	1	-1E+10	1	-1E+10	1	-1E+10	1
4902549	11	C	11/27/2020	08:50	-134.493	48.358	0	1837.50	0	2.0530	0	34.5610	0	27.626	0	1814.043	0	39.9	4	12.0	4	-1E+10	1	-1E+10	1	-1E+10	1	-1E+10	1	-1E+10	1	-1E+10	1
4902549	11	C	11/27/2020	08:50	-134.493	48.358	0	1863.50	0	2.0350	0	34.5640	0	27.629	0	1839.599	0	41.5	4	12.5	4	-1E+10	1	-1E+10	1	-1E+10	1	-1E+10	1	-1E+10	1	-1E+10	1
4902549	11	C	11/27/2020	08:50	-134.493	48.358	0	1888.00	0	2.0130	0	34.5690	0	27.635	0	1863.677	0	43.1	4	13.0	4	-1E+10	1	-1E+10	1	-1E+10	1	-1E+10	1	-1E+10	1	-1E+10	1
4902549	11	C	11/27/2020	08:50	-134.493	48.358	0	1912.90	0	1.9980	0	34.5720	0	27.639	0	1888.146	0	44.5	4	13.4	4	-1E+10	1	-1E+10	1	-1E+10	1	-1E+10	1	-1E+10	1	-1E+10	1
4902549	11	C	11/27/2020	08:50	-134.493	48.358	0	1937.70	0	1.9850	0	34.5740	0	27.642	0	1912.514	0	45.3	4	13.6	4	-1E+10	1	-1E+10	1	-1E+10	1	-1E+10	1	-1E+10	1	-1E+10	1
4902549	11	C	11/27/2020	08:50	-134.493	48.358	0	1962.60	0	1.9750	0	34.5770	0	27.645	0	1936.977	0	46.0	4	13.9	4	-1E+10	1	-1E+10	1	-1E+10	1	-1E+10	1	-1E+10	1	-1E+10	1
4902549	11	C	11/27/2020	08:50	-134.493	48.358	0	1987.70	0	1.9600	0	34.5800	0	27.649	0	1961.634	0	47.1	4	14.2	4	-1E+10	1	-1E+10	1	-1E+10	1	-1E+10	1	-1E+10	1	-1E+10	1
4902549	11	C	11/27/2020	08:50	-134.493	48.358	0	2006.90	0	1.9510	0	34.5820	0	27.651	0	1980.493	0	47.5	4	14.3	4	-1E+10	1	-1E+10	1	-1E+10	1	-1E+10	1	-1E+10	1	-1E+10	1
4902549	11	C	11/27/2020	08:50	-134.493	48.358	0																										
4902549	12	C	12/07/2020	08:49	-134.389	48.196	0	0.10	0	10.7300	0	32.2530	0	24.685	0	0.099	0	261.6	4	94.9	4	-1E+10	1	-1E+10	1	-1E+10	1	-1E+10	1	-1E+10	1	-1E+10	1
4902549	12	C	12/07/2020	08:49	-134.389	48.196	0	0.70	0	10.7320	0	32.2510	0	24.683	0	0.694	0	261.6	4	94.9	4	-1E+10	1	-1E+10	1	-1E+10	1	-1E+10	1	-1E+10	1	-1E+10	1
4902549	12	C	12/07/2020	08:49	-134.389	48.196	0	2.00	0	10.7340	0	32.2490	0	24.681	0	1.983	0	261.5	4	94.9	4	-1E+10	1	-1E+10	1	-1E+10	1	-1E+10	1	-1E+10	1	-1E+10	1
4902549	12	C	12/07/2020	08:49	-134.389	48.196	0	3.30	0	10.7310	0	32.2530	0	24.684	0	3.272	0	261.5	4	94.8	4	-1E+10	1	-1E+10	1	-1E+10	1	-1E+10	1	-1E+10	1	-1E+10	1
4902549	12	C	12/07/2020	08:49	-134.389	48.196	0	4.40	0	10.7320	0	32.2530	0	24.684	0	4.363	0	261.4	4	94.8	4	-1E+10	1	-1E+10	1	-1E+10	1	-1E+10	1	-1E+10	1	-1E+10	1
4902549	12	C	12/07/2020	08:49	-134.389	48.196	0	5.50	0	10.7320	0	32.2520	0	24.684	0	5.454	0	261.5	4	94.8	4	-1E+10	1	-1E+10	1	-1E+10	1	-1E+10	1	-1E+10	1	-1E+10	1
4902549	12	C	12/07/2020	08:49	-134.389	48.196	0	6.90	0	10.7320	0	32.2520	0	24.684	0	6.842	0	261.4	4	94.8	4	-1E+10	1	-1E+10	1	-1E+10	1	-1E+10	1	-1E+10	1	-1E+10	1
4902549	12	C	12/07/2020	08:49	-134.389	48.196	0	8.40	0	10.7320	0	32.2530	0	24.684	0	8.329	0	261.3	4	94.8	4	-1E+10	1	-1E+10	1	-1E+10	1	-1E+10	1	-1E+10	1	-1E+10	1
4902549	12	C	12/07/2020	08:49	-134.389	48.196	0	9.30	0	10.7320	0	32.2520	0	24.684	0	9.222	0	261.4	4	94.8	4	-1E+10	1	-1E+10	1	-1E+10	1	-1E+10	1	-1E+10	1	-1E+10	1
4902549	12	C	12/07/2020	08:49	-134.389	48.196	0	9.90	0	10.7340	0	32.2520	0	24.683	0	9.817	0	261.3	4	94.8	4	-1E+10	1	-1E+10	1	-1E+10	1	-1E+10	1	-1E+10	1	-1E+10	1
4902549	12	C	12/07/2020	08:49	-134.389	48.196	0	14.80	0	10.7310	0	32.2520	0	24.684	0	14.675	0	261.2	4	94.8	4	-1E+10	1	-1E+10	1	-1E+10	1	-1E+10	1	-1E+10	1	-1E+10	1
4902549	12	C	12/07/2020	08:49	-134.389	48.196	0	25.20	0	10.7240	0	32.2520	0	24.685	0	24.987	0	261.1	4	94.7	4	-1E+10	1	-1E+10	1	-1E+10	1	-1E+10	1	-1E+10	1	-1E+10	1
4902549	12	C	12/07/2020	08:49	-134.389	48.196	0	35.60	0	10.7230	0	32.2510	0	24.685	0	35.298	0	261.1	4	94.7	4	-1E+10	1	-1E+10	1	-1E+10	1	-1E+10	1	-1E+10	1	-1E+10	1
4902549	12	C	12/07/2020	08:49	-134.389	48.196	0	45.60	0	10.7200	0	32.2520	0	24.686	0	45.212	0	261.0	4	94.6	4	-1E+10	1	-1E+10	1	-1E+10	1	-1E+10	1	-1E+10	1	-1E+10	1
4902549	12	C	12/07/2020	08:49	-134.389	48.196	0	55.20	0	10.7040	0	32.2510	0	24.689	0	54.728	0	260.7	4	94.5	4	-1E+10	1	-1E+10	1	-1E+10	1	-1E+10	1	-1E+10	1	-1E+10	1
4902549	12	C	12/07/2020	08:49	-134.389	48.196	0	65.30	0	10.6730	0	32.2540	0	24.697	0	64.741	0	260.6	4	94.4	4	-1E+10	1	-1E+10	1	-1E+10	1	-1E+10	1	-1E+10	1	-1E+10	1
4902549	12	C	12/07/2020	08:49	-134.389	48.196	0	74.90	0	10.5880	0	32.2550	0	24.712	0	74.257	0	260.2	4	94.1	4	-1E+10	1	-1E+10	1	-1E+10	1	-1E+10	1	-1E+10	1	-1E+10	1
4902549	12	C	12/07/2020	08:49	-134.389	48.196	0	85.50	0	10.4710	0	32.2600	0	24.736	0	84.763	0	259.3	4	93.5	4	-1E+10	1	-1E+10	1	-1E+10	1	-1E+10	1	-1E+10	1	-1E+10	1
4902549	12	C	12/07/2020	08:49	-134.389	48.196	0	95.70	0	9.8440	0	32.2990	0	24.871	0	94.873	0	257.2	4	91.6	4	-1E+10	1	-1E+10	1	-1E+10	1	-1E+10	1	-1E+10	1	-1E+10	1
4902549	12	C	12/07/2020	08:49	-134.389	48.196	0	105.70	0	7.9660	0	32.4350	0	25.267	0	104.784	0	255.9	4	87.5	4	-1E+10	1	-1E+10	1	-1E+10	1	-1E+10	1	-1E+10	1	-1E+10	1
4902549	12	C	12/07/2020	08:49	-134.389	48.196	0	115.50	0	7.0750	0	32.5240	0	25.460	0	114.497	0	251.1	4	84.2	4	-1E+10	1	-1E+10	1	-1E+10	1	-1E+10	1	-1E+10	1	-1E+10	1
4902549	12	C	12/07/2020	08:49	-134.389	48.196	0	125.10	0	6.8570	0	32.6490	0	25.588	0	124.010	0	231.0	4	77.1	4	-1E+10	1	-1E+10	1	-1E+10	1	-1E+10	1	-1E+10	1	-1E+10	1
4902549	12	C	12/07/2020	08:49	-134.389	48.196	0	135.40	0	6.7770	0	32.8810	0	25.781	0	134.217	0	206.5	4	68.9	4	-1E+10	1	-1E+10	1	-1E+10	1	-1E+10	1	-1E+10	1	-1E+10	1
4902549	12	C	12/07/2020	08:49	-134.389	48.196	0	145.60	0	6.6050	0	33.0740	0	25.956	0	144.325	0	190.5	4	63.4	4	-1E+10	1	-1E+10	1	-1E+10	1	-1E+10	1	-1E+10	1	-1E+10	1
4902549	12	C	12/07/2020	08:49	-134.389	48.196	0	155.50	0	6.4810	0	33.3160	0	26.163	0	154.134	0	177.0	4	58.9	4	-1E+10	1	-1E+10	1	-1E+10	1	-1E+10	1	-1E+10	1	-1E+10	1
4902549	12	C	12/07/2020	08:49	-134.389	48.196	0	164.90	0	6.3440	0	33.4890	0	26.317	0	163.448	0	160.4	4	53.3	4	-1E+10	1	-1E+10	1	-1E+10	1	-1E+10	1	-1E+10	1	-1E+10	1
4902549	12	C	12/07/2020	08:49	-134.389	48.196	0	175.40	0	6.1340	0	33.6120	0	26.441	0	173.851	0	147.8	4	48.9	4	-1E+10	1	-1E+10	1	-1E+10	1	-1E+10	1	-1E+10	1	-1E+10	1
4902549	12	C	12/07/2020	08:49	-134.389	48.196	0	185.30	0	6.0220	0	33.6690	0	26.500	0	183.659	0	143.1	4	47.2	4	-1E+10	1	-1E+10	1	-1E+10	1	-1E+10	1	-1E+10	1	-1E+10	1
4902549	12	C	12/07/2020	08:49	-134.389	48.196	0	195.70	0	5.8610	0	33.7280	0	26.567	0	193.962	0	136.5	4	44.9	4	-1E+10	1	-1E+10	1	-1E+10	1	-1E+10	1	-1E+10	1	-1E+10	1
4902549	12	C	12/07/2020	08:49	-134.389	48.196	0	212.70	0	5.6820	0	33.7780	0	26.629	0	210.803	0	124.9	4	40.9	4	-1E+10	1	-1E+10	1	-1E+10	1	-1E+10	1	-1E+10	1	-1E+10	1
4902549	12	C	12/07/2020	08:49	-134.389	48.196	0	237.60	0	5.4290	0	33.8070	0	26.682	0	235.466	0	116.3	4	37.9	4	-1E+10	1	-1E+10	1	-1E+10	1	-1E+10	1	-1E+10	1	-1E+10	1
4902549	12	C	12/07/2020	08:49	-134.389	48.196	0	263.10	0	5.1480	0	33.8170	0	26.723	0	260.721	0	111.1	4	36.0	4	-1E+10	1	-1E+10	1	-1E+10	1	-1E+10	1	-1E+10	1	-1E+10	1
4902549	12	C	12/07/2020	08:49	-134.389	48.196	0	287.90	0	5.0150	0	33.8340	0	26.752	0	285.280	0	101.3	4	32.7	4	-1E+10	1	-1E+10	1	-1E+10	1	-1E+10	1	-1E+10	1	-1E+10	1
4902549	12	C	12/07/2020	08:49	-134.389	48.196	0	312.90	0	4.8970	0	33.8570	0	26.784	0	310.034	0	87.5	4	28.2	4	-1E+10	1	-1E+10	1	-1E+10	1	-1E+10	1	-1E+10	1	-1E+10	1
4902549	12	C	12/07/2020	08:49	-134.389	48.196	0	337.70	0	4.7590	0	33.8830	0	26.820	0	334.587	0	76.0	4	24.4	4	-1E+10	1	-1E+10	1	-1E+10	1	-1E+10	1	-1E+10	1	-1E+10	1
4902549	12	C	12/07/2020	08:49	-134.389	48.196	0	362.70	0	4.6440	0	33.9060	0	26.851	0	359.335	0	68.7	4	22.0	4	-1E+10	1	-1E+10	1	-1E+10	1	-1E+10	1	-1E+10	1	-1E+10	1
4902549	12	C	12/07/2020	08:49	-134.389	48.196	0	387.60	0	4.5510	0	33.9310	0	26.881	0	383.981	0	62.5	4	20.0	4	-1E+10	1	-1E+10	1	-1E+10	1	-1E+10	1	-1E+10	1	-1E+10	1
4902549	12	C	12/07/2020	08:49	-134.389	48.196	0	413.20	0	4.4710	0	33.9540	0	26.908	0	409.316	0	57.4	4	18.3	4	-1E+10	1	-1E+10	1	-1E+10	1	-1E+10	1	-1E+10	1	-1E+10	1
4902549	12	C	12/07/2020	08:49	-134.389	48.196	0	437.40	0	4.4030	0	33.9750	0	26.932	0	433.264	0	51.8	4	16.5	4	-1E+10	1	-1E+10	1	-1E+10	1	-1E+10	1	-1E+10	1	-1E+10	1
4902549	12	C	12/07/2020	08:49	-134.389	48.196	0	462.80	0	4.3070	0	34.0070	0	26.968	0	458.395	0	44.8	4	14.2	4	-1E+10	1	-1E+10	1	-1E+10	1	-1E+10	1	-1E+10	1	-1E+10	1
4902549	12	C	12/07/2020	08:49	-134.389	48.196	0	487.90	0	4.2430	0	34.0270	0	26.991	0	483.227	0	39.9	4	12.6	4	-1E+10	1	-1E+10	1	-1E+10	1	-1E+10	1	-1E+10	1	-1E+10	1
4902549	12	C	12/07/2020	08:49	-134.389	48.196	0	513.00	0	4.1840	0	34.0510	0	27.016	0	508.056	0	34.2	4	10.8	4	-1E+10	1	-1E+10	1	-1E+10	1	-1E+10	1	-1E+10	1	-1E+10	1
4902549	12	C	12/07/2020	08:49	-134.389	48.196	0	538.20	0	4.1320	0	34.0730	0	27.039	0	532.981	0	29.2	4	9.2	4	-1E+10	1	-1E+10	1	-1E+10	1	-1E+10	1	-1E+10	1	-1E+10	1
4902549	12	C	12/07/2020	08:49	-134.389	48.196	0	563.00	0	4.0770	0	34.0960	0	27.063	0	557.507	0	25.8	4	8.2	4	-1E+10	1	-1E+10	1	-1E+10	1	-1E+10	1	-1E+10	1	-1E+10	1
4902549	12	C	12/07/2020	08:49	-134.389	48.196	0	587.90	0	4.0120	0	34.1170	0	27.087	0	582.130	0	22.8	4	7.2	4	-1E+10	1	-1E+10	1	-1E+10	1	-1E+10	1	-1E+10	1	-1E+10	1
4902549	12	C	12/07/2020	08:49	-134.389	48.196	0	613.20	0	3.9130	0	34.1460	0	27.120	0	607.144	0	20.2	4	6.4	4	-1E+10	1	-1E+10	1	-1E+10	1	-1E+10	1	-1E+10	1	-1E+10	1
4902549	12	C	12/07/2020	08:49	-134.389	48.196	0	637.40	0	3.8570	0	34.1630	0	27.140	0	631.069	0	18.3	4	5.8	4	-1E+10	1	-1E+10	1	-1E+10	1	-1E+10	1	-1E+10	1	-1E+10	1
4902549	12	C	12/07/2020	08:49	-134.389	48.196	0	662.40	0	3.8130	0	34.1800	0	27.158	0	655.781	0	16.4	4	5.1	4	-1E+10	1	-1E+10	1	-1E+10	1	-1E+10	1	-1E+10	1	-1E+10	1
4902549	12	C	12/07/2020	08:49	-134.389	48.196	0	687.50	0	3.7750	0	34.1950	0	27.174	0	680.589	0	14.7	4	4.6	4	-1E+10	1	-1E+10	1	-1E+10	1	-1E+10	1	-1E+10	1	-1E+10	1
4902549	12	C	12/07/2020	08:49	-134.389	48.196	0	712.90	0	3.7340	0	34.2130	0	27.192	0	705.691	0	13.1	4	4.1	4	-1E+10	1	-1E+10	1	-1E+10	1	-1E+10	1	-1E+10	1	-1E+10	1
4902549	12	C	12/07/2020	08:49	-134.389	48.196	0	737.50	0	3.6800	0	34.2330	0	27.214	0	729.999	0	11.4	4	3.6	4	-1E+10	1	-1E+10	1	-1E+10	1	-1E+10	1	-1E+10	1	-1E+10	1
4902549	12	C	12/07/2020	08:49	-134.389	48.196	0	763.40	0	3.6330	0	34.2520	0	27.233	0	755.589	0	9.9	4	3.1	4	-1E+10	1	-1E+10	1	-1E+10	1	-1E+10	1	-1E+10	1	-1E+10	1
4902549	12	C	12/07/2020	08:49	-134.389	48.196	0	787.80	0	3.5780	0	34.2660	0	27.250	0	779.694	0	9.3	4	2.9	4	-1E+10	1	-1E+10	1	-1E+10	1	-1E+10	1	-1E+10	1	-1E+10	1
4902549	12	C	12/07/2020	08:49	-134.389	48.196	0	812.70	0	3.5140	0	34.2760	0	27.264	0	804.290	0	9.1	4	2.9	4	-1E+10	1	-1E+10	1	-1E+10	1	-1E+10	1	-1E+10	1	-1E+10	1
4902549	12	C	12/07/2020	08:49	-134.389	48.196	0	837.80	0	3.4510	0	34.2840	0	27.277	0	829.080	0	9.1	4	2.9	4	-1E+10	1	-1E+10	1	-1E+10	1	-1E+10	1	-1E+10	1	-1E+10	1
4902549	12	C	12/07/2020	08:49	-134.389	48.196	0	862.70	0	3.3770	0	34.2950	0	27.293	0	853.670	0	9.1	4	2.8	4	-1E+10	1	-1E+10	1	-1E+10	1	-1E+10	1	-1E+10	1	-1E+10	1
4902549	12	C	12/07/2020	08:49	-134.389	48.196	0	887.30	0	3.3260	0	34.3040	0	27.305	0	877.961	0	9.0	4	2.8	4	-1E+10	1	-1E+10	1	-1E+10	1	-1E+10	1	-1E+10	1	-1E+10	1
4902549	12	C	12/07/2020	08:49	-134.389	48.196	0	912.60	0	3.2790	0	34.3120	0	27.316	0	902.940	0	9.0	4	2.8	4	-1E+10	1	-1E+10	1	-1E+10	1	-1E+10	1	-1E+10	1	-1E+10	1
4902549	12	C	12/07/2020	08:49	-134.389	48.196	0	937.50	0	3.2250	0	34.3250	0	27.332	0	927.521	0	8.7	4	2.7	4	-1E+10	1	-1E+10	1	-1E+10	1	-1E+10	1	-1E+10	1	-1E+10	1
4902549	12	C	12/07/2020	08:49	-134.389	48.196	0	962.40	0	3.1820	0	34.3380	0	27.346	0	952.100	0	8.6	4	2.7	4	-1E+10	1	-1E+10	1	-1E+10	1	-1E+10	1	-1E+10	1	-1E+10	1
4902549	12	C	12/07/2020	08:49	-134.389	48.196	0	987.60	0	3.1300	0	34.3460	0	27.357	0	976.971	0	8.3	4	2.6	4	-1E+10	1	-1E+10	1	-1E+10	1	-1E+10	1	-1E+10	1	-1E+10	1
4902549	12	C	12/07/2020	08:49	-134.389	48.196	0	1012.90	0	3.0750	0	34.3570	0	27.371	0	1001.939	0	8.2	4	2.5	4	-1E+10	1	-1E+10	1	-1E+10	1	-1E+10	1	-1E+10	1	-1E+10	1
4902549	12	C	12/07/2020	08:49	-134.389	48.196	0	1037.90	0	3.0360	0	34.3660	0	27.382	0	1026.607	0	8.1	4	2.5	4	-1E+10	1	-1E+10	1	-1E+10	1	-1E+10	1	-1E+10	1	-1E+10	1
4902549	12	C	12/07/2020	08:49	-134.389	48.196	0	1062.70	0	3.0020	0	34.3760	0	27.393	0	1051.075	0	8.0	4	2.5	4	-1E+10	1	-1E+10	1	-1E+10	1	-1E+10	1	-1E+10	1	-1E+10	1
4902549	12	C	12/07/2020	08:49	-134.389	48.196	0	1087.60	0	2.9730	0	34.3850	0	27.403	0	1075.639	0	8.2	4	2.5	4	-1E+10	1	-1E+10	1	-1E+10	1	-1E+10	1	-1E+10	1	-1E+10	1
4902549	12	C	12/07/2020	08:49	-134.389	48.196	0	1113.30	0	2.9260	0	34.3950	0	27.416	0	1100.989	0	8.5	4	2.6	4	-1E+10	1	-1E+10	1	-1E+10	1	-1E+10	1	-1E+10	1	-1E+10	1
4902549	12	C	12/07/2020	08:49	-134.389	48.196	0	1137.40	0	2.8850	0	34.4040	0	27.427	0	1124.758	0	8.8	4	2.7	4	-1E+10	1	-1E+10	1	-1E+10	1	-1E+10	1	-1E+10	1	-1E+10	1
4902549	12	C	12/07/2020	08:49	-134.389	48.196	0	1162.40	0	2.8350	0	34.4140	0	27.439	0	1149.412	0	9.1	4	2.8	4	-1E+10	1	-1E+10	1	-1E+10	1	-1E+10	1	-1E+10	1	-1E+10	1
4902549	12	C	12/07/2020	08:49	-134.389	48.196	0	1187.90	0	2.8030	0	34.4210	0	27.448	0	1174.555	0	9.3	4	2.9	4	-1E+10	1	-1E+10	1	-1E+10	1	-1E+10	1	-1E+10	1	-1E+10	1
4902549	12	C	12/07/2020	08:49	-134.389	48.196	0	1213.80	0	2.7660	0	34.4280	0	27.457	0	1200.091	0	9.8	4	3.0	4	-1E+10	1	-1E+10	1	-1E+10	1	-1E+10	1	-1E+10	1	-1E+10	1
4902549	12	C	12/07/2020	08:49	-134.389	48.196	0	1237.80	0	2.7300	0	34.4350	0	27.466	0	1223.750	0	10.2	4	3.1	4	-1E+10	1	-1E+10	1	-1E+10	1	-1E+10	1	-1E+10	1	-1E+10	1
4902549	12	C	12/07/2020	08:49	-134.389	48.196	0	1262.80	0	2.7020	0	34.4400	0	27.472	0	1248.392	0	10.5	4	3.2	4	-1E+10	1	-1E+10	1	-1E+10	1	-1E+10	1	-1E+10	1	-1E+10	1
4902549	12	C	12/07/2020	08:49	-134.389	48.196	0	1287.50	0	2.6680	0	34.4460	0	27.480	0	1272.735	0	11.0	4	3.4	4	-1E+10	1	-1E+10	1	-1E+10	1	-1E+10	1	-1E+10	1	-1E+10	1
4902549	12	C	12/07/2020	08:49	-134.389	48.196	0	1313.00	0	2.6320	0	34.4520	0	27.488	0	1297.864	0	11.6	4	3.6	4	-1E+10	1	-1E+10	1	-1E+10	1	-1E+10	1	-1E+10	1	-1E+10	1
4902549	12	C	12/07/2020	08:49	-134.389	48.196	0	1338.20	0	2.5940	0	34.4600	0	27.498	0	1322.695	0	12.4	4	3.8	4	-1E+10	1	-1E+10	1	-1E+10	1	-1E+10	1	-1E+10	1	-1E+10	1
4902549	12	C	12/07/2020	08:49	-134.389	48.196	0	1363.00	0	2.5590	0	34.4660	0	27.506	0	1347.128	0	13.4	4	4.1	4	-1E+10	1	-1E+10	1	-1E+10	1	-1E+10	1	-1E+10	1	-1E+10	1
4902549	12	C	12/07/2020	08:49	-134.389	48.196	0	1388.00	0	2.5130	0	34.4740	0	27.516	0	1371.756	0	14.8	4	4.5	4	-1E+10	1	-1E+10	1	-1E+10	1	-1E+10	1	-1E+10	1	-1E+10	1
4902549	12	C	12/07/2020	08:49	-134.389	48.196	0	1412.80	0	2.4660	0	34.4830	0	27.527	0	1396.184	0	16.0	4	4.9	4	-1E+10	1	-1E+10	1	-1E+10	1	-1E+10	1	-1E+10	1	-1E+10	1
4902549	12	C	12/07/2020	08:49	-134.389	48.196	0	1438.40	0	2.4270	0	34.4900	0	27.536	0	1421.396	0	17.3	4	5.3	4	-1E+10	1	-1E+10	1	-1E+10	1	-1E+10	1	-1E+10	1	-1E+10	1
4902549	12	C	12/07/2020	08:49	-134.389	48.196	0	1462.70	0	2.3910	0	34.4970	0	27.545	0	1445.326	0	18.8	4	5.7	4	-1E+10	1	-1E+10	1	-1E+10	1	-1E+10	1	-1E+10	1	-1E+10	1
4902549	12	C	12/07/2020	08:49	-134.389	48.196	0	1487.90	0	2.3590	0	34.5030	0	27.553	0	1470.139	0	20.2	4	6.2	4	-1E+10	1	-1E+10	1	-1E+10	1	-1E+10	1	-1E+10	1	-1E+10	1
4902549	12	C	12/07/2020	08:49	-134.389	48.196	0	1512.60	0	2.3330	0	34.5070	0	27.558	0	1494.457	0	21.3	4	6.5	4	-1E+10	1	-1E+10	1	-1E+10	1	-1E+10	1	-1E+10	1	-1E+10	1
4902549	12	C	12/07/2020	08:49	-134.389	48.196	0	1538.80	0	2.3070	0	34.5120	0	27.564	0	1520.249	0	22.6	4	6.9	4	-1E+10	1	-1E+10	1	-1E+10	1	-1E+10	1	-1E+10	1	-1E+10	1
4902549	12	C	12/07/2020	08:49	-134.389	48.196	0	1562.90	0	2.2850	0	34.5170	0	27.570	0	1543.970	0	23.9	4	7.3	4	-1E+10	1	-1E+10	1	-1E+10	1	-1E+10	1	-1E+10	1	-1E+10	1
4902549	12	C	12/07/2020	08:49	-134.389	48.196	0	1587.60	0	2.2600	0	34.5220	0	27.576	0	1568.279	0	25.5	4	7.7	4	-1E+10	1	-1E+10	1	-1E+10	1	-1E+10	1	-1E+10	1	-1E+10	1
4902549	12	C	12/07/2020	08:49	-134.389	48.196	0	1613.00	0	2.2300	0	34.5270	0	27.583	0	1593.275	0	26.8	4	8.1	4	-1E+10	1	-1E+10	1	-1E+10	1	-1E+10	1	-1E+10	1	-1E+10	1
4902549	12	C	12/07/2020	08:49	-134.389	48.196	0	1637.80	0	2.2130	0	34.5300	0	27.587	0	1617.677	0	27.8	4	8.4	4	-1E+10	1	-1E+10	1	-1E+10	1	-1E+10	1	-1E+10	1	-1E+10	1
4902549	12	C	12/07/2020	08:49	-134.389	48.196	0	1662.70	0	2.1920	0	34.5340	0	27.592	0	1642.175	0	29.3	4	8.9	4	-1E+10	1	-1E+10	1	-1E+10	1	-1E+10	1	-1E+10	1	-1E+10	1
4902549	12	C	12/07/2020	08:49	-134.389	48.196	0	1687.80	0	2.1660	0	34.5390	0	27.598	0	1666.866	0	31.1	4	9.4	4	-1E+10	1	-1E+10	1	-1E+10	1	-1E+10	1	-1E+10	1	-1E+10	1
4902549	12	C	12/07/2020	08:49	-134.389	48.196	0	1712.50	0	2.1440	0	34.5430	0	27.603	0	1691.161	0	32.6	4	9.9	4	-1E+10	1	-1E+10	1	-1E+10	1	-1E+10	1	-1E+10	1	-1E+10	1
4902549	12	C	12/07/2020	08:49	-134.389	48.196	0	1737.80	0	2.1230	0	34.5470	0	27.608	0	1716.044	0	34.1	4	10.3	4	-1E+10	1	-1E+10	1	-1E+10	1	-1E+10	1	-1E+10	1	-1E+10	1
4902549	12	C	12/07/2020	08:49	-134.389	48.196	0	1763.20	0	2.1100	0	34.5500	0	27.612	0	1741.022	0	35.1	4	10.6	4	-1E+10	1	-1E+10	1	-1E+10	1	-1E+10	1	-1E+10	1	-1E+10	1
4902549	12	C	12/07/2020	08:49	-134.389	48.196	0	1788.30	0	2.0920	0	34.5530	0	27.616	0	1765.702	0	36.8	4	11.1	4	-1E+10	1	-1E+10	1	-1E+10	1	-1E+10	1	-1E+10	1	-1E+10	1
4902549	12	C	12/07/2020	08:49	-134.389	48.196	0	1813.00	0	2.0740	0	34.5570	0	27.621	0	1789.985	0	38.2	4	11.5	4	-1E+10	1	-1E+10	1	-1E+10	1	-1E+10	1	-1E+10	1	-1E+10	1
4902549	12	C	12/07/2020	08:49	-134.389	48.196	0	1837.70	0	2.0560	0	34.5600	0	27.625	0	1814.267	0	39.8	4	12.0	4	-1E+10	1	-1E+10	1	-1E+10	1	-1E+10	1	-1E+10	1	-1E+10	1
4902549	12	C	12/07/2020	08:49	-134.389	48.196	0	1863.70	0	2.0350	0	34.5640	0	27.629	0	1839.823	0	41.3	4	12.5	4	-1E+10	1	-1E+10	1	-1E+10	1	-1E+10	1	-1E+10	1	-1E+10	1
4902549	12	C	12/07/2020	08:49	-134.389	48.196	0	1888.00	0	2.0220	0	34.5670	0	27.633	0	1863.705	0	42.5	4	12.8	4	-1E+10	1	-1E+10	1	-1E+10	1	-1E+10	1	-1E+10	1	-1E+10	1
4902549	12	C	12/07/2020	08:49	-134.389	48.196	0	1913.00	0	2.0020	0	34.5710	0	27.638	0	1888.272	0	44.2	4	13.3	4	-1E+10	1	-1E+10	1	-1E+10	1	-1E+10	1	-1E+10	1	-1E+10	1
4902549	12	C	12/07/2020	08:49	-134.389	48.196	0	1938.10	0	1.9880	0	34.5740	0	27.642	0	1912.935	0	45.5	4	13.7	4	-1E+10	1	-1E+10	1	-1E+10	1	-1E+10	1	-1E+10	1	-1E+10	1
4902549	12	C	12/07/2020	08:49	-134.389	48.196	0	1962.60	0	1.9700	0	34.5770	0	27.645	0	1937.006	0	47.1	4	14.2	4	-1E+10	1	-1E+10	1	-1E+10	1	-1E+10	1	-1E+10	1	-1E+10	1
4902549	12	C	12/07/2020	08:49	-134.389	48.196	0	1982.40	0	1.9530	0	34.5810	0	27.650	0	1956.457	0	47.7	4	14.4	4	-1E+10	1	-1E+10	1	-1E+10	1	-1E+10	1	-1E+10	1	-1E+10	1
4902549	12	C	12/07/2020	08:49	-134.389	48.196	0																										
4902549	13	C	12/17/2020	09:06	-134.364	48.017	0	0.30	0	9.9030	0	32.2780	0	24.844	0	0.297	0	265.1	4	94.5	4	-1E+10	1	-1E+10	1	-1E+10	1	-1E+10	1	-1E+10	1	-1E+10	1
4902549	13	C	12/17/2020	09:06	-134.364	48.017	0	0.80	0	9.9040	0	32.2760	0	24.842	0	0.793	0	265.1	4	94.5	4	-1E+10	1	-1E+10	1	-1E+10	1	-1E+10	1	-1E+10	1	-1E+10	1
4902549	13	C	12/17/2020	09:06	-134.364	48.017	0	2.20	0	9.9040	0	32.2760	0	24.842	0	2.182	0	265.0	4	94.5	4	-1E+10	1	-1E+10	1	-1E+10	1	-1E+10	1	-1E+10	1	-1E+10	1
4902549	13	C	12/17/2020	09:06	-134.364	48.017	0	3.10	0	9.9040	0	32.2760	0	24.842	0	3.074	0	265.0	4	94.5	4	-1E+10	1	-1E+10	1	-1E+10	1	-1E+10	1	-1E+10	1	-1E+10	1
4902549	13	C	12/17/2020	09:06	-134.364	48.017	0	4.10	0	9.9030	0	32.2770	0	24.843	0	4.066	0	265.1	4	94.5	4	-1E+10	1	-1E+10	1	-1E+10	1	-1E+10	1	-1E+10	1	-1E+10	1
4902549	13	C	12/17/2020	09:06	-134.364	48.017	0	5.40	0	9.9040	0	32.2770	0	24.843	0	5.355	0	265.2	4	94.5	4	-1E+10	1	-1E+10	1	-1E+10	1	-1E+10	1	-1E+10	1	-1E+10	1
4902549	13	C	12/17/2020	09:06	-134.364	48.017	0	6.00	0	9.9020	0	32.2780	0	24.844	0	5.950	0	265.1	4	94.5	4	-1E+10	1	-1E+10	1	-1E+10	1	-1E+10	1	-1E+10	1	-1E+10	1
4902549	13	C	12/17/2020	09:06	-134.364	48.017	0	6.80	0	9.9030	0	32.2780	0	24.844	0	6.743	0	265.0	4	94.4	4	-1E+10	1	-1E+10	1	-1E+10	1	-1E+10	1	-1E+10	1	-1E+10	1
4902549	13	C	12/17/2020	09:06	-134.364	48.017	0	7.90	0	9.9040	0	32.2780	0	24.844	0	7.834	0	264.9	4	94.4	4	-1E+10	1	-1E+10	1	-1E+10	1	-1E+10	1	-1E+10	1	-1E+10	1
4902549	13	C	12/17/2020	09:06	-134.364	48.017	0	8.60	0	9.9040	0	32.2780	0	24.844	0	8.528	0	264.9	4	94.4	4	-1E+10	1	-1E+10	1	-1E+10	1	-1E+10	1	-1E+10	1	-1E+10	1
4902549	13	C	12/17/2020	09:06	-134.364	48.017	0	9.50	0	9.9100	0	32.2780	0	24.843	0	9.420	0	264.9	4	94.4	4	-1E+10	1	-1E+10	1	-1E+10	1	-1E+10	1	-1E+10	1	-1E+10	1
4902549	13	C	12/17/2020	09:06	-134.364	48.017	0	14.90	0	9.9100	0	32.2770	0	24.842	0	14.774	0	264.9	4	94.4	4	-1E+10	1	-1E+10	1	-1E+10	1	-1E+10	1	-1E+10	1	-1E+10	1
4902549	13	C	12/17/2020	09:06	-134.364	48.017	0	25.20	0	9.9080	0	32.2770	0	24.842	0	24.987	0	264.9	4	94.4	4	-1E+10	1	-1E+10	1	-1E+10	1	-1E+10	1	-1E+10	1	-1E+10	1
4902549	13	C	12/17/2020	09:06	-134.364	48.017	0	35.10	0	9.9070	0	32.2770	0	24.843	0	34.802	0	264.8	4	94.4	4	-1E+10	1	-1E+10	1	-1E+10	1	-1E+10	1	-1E+10	1	-1E+10	1
4902549	13	C	12/17/2020	09:06	-134.364	48.017	0	45.20	0	9.9080	0	32.2770	0	24.843	0	44.816	0	264.8	4	94.4	4	-1E+10	1	-1E+10	1	-1E+10	1	-1E+10	1	-1E+10	1	-1E+10	1
4902549	13	C	12/17/2020	09:06	-134.364	48.017	0	55.60	0	9.9090	0	32.2780	0	24.844	0	55.126	0	264.8	4	94.4	4	-1E+10	1	-1E+10	1	-1E+10	1	-1E+10	1	-1E+10	1	-1E+10	1
4902549	13	C	12/17/2020	09:06	-134.364	48.017	0	65.40	0	9.9100	0	32.2770	0	24.843	0	64.841	0	264.6	4	94.3	4	-1E+10	1	-1E+10	1	-1E+10	1	-1E+10	1	-1E+10	1	-1E+10	1
4902549	13	C	12/17/2020	09:06	-134.364	48.017	0	75.10	0	9.9130	0	32.2780	0	24.843	0	74.456	0	263.9	4	94.1	4	-1E+10	1	-1E+10	1	-1E+10	1	-1E+10	1	-1E+10	1	-1E+10	1
4902549	13	C	12/17/2020	09:06	-134.364	48.017	0	85.70	0	9.9160	0	32.2780	0	24.843	0	84.963	0	262.7	4	93.6	4	-1E+10	1	-1E+10	1	-1E+10	1	-1E+10	1	-1E+10	1	-1E+10	1
4902549	13	C	12/17/2020	09:06	-134.364	48.017	0	95.60	0	9.8730	0	32.2820	0	24.853	0	94.776	0	258.4	4	92.0	4	-1E+10	1	-1E+10	1	-1E+10	1	-1E+10	1	-1E+10	1	-1E+10	1
4902549	13	C	12/17/2020	09:06	-134.364	48.017	0	105.70	0	8.5920	0	32.4080	0	25.153	0	104.786	0	249.1	4	86.3	4	-1E+10	1	-1E+10	1	-1E+10	1	-1E+10	1	-1E+10	1	-1E+10	1
4902549	13	C	12/17/2020	09:06	-134.364	48.017	0	115.30	0	7.8230	0	32.5180	0	25.352	0	114.300	0	244.2	4	83.3	4	-1E+10	1	-1E+10	1	-1E+10	1	-1E+10	1	-1E+10	1	-1E+10	1
4902549	13	C	12/17/2020	09:06	-134.364	48.017	0	125.20	0	7.6010	0	32.6430	0	25.482	0	124.112	0	235.4	4	79.9	4	-1E+10	1	-1E+10	1	-1E+10	1	-1E+10	1	-1E+10	1	-1E+10	1
4902549	13	C	12/17/2020	09:06	-134.364	48.017	0	135.60	0	7.4010	0	32.8060	0	25.638	0	134.418	0	220.9	4	74.7	4	-1E+10	1	-1E+10	1	-1E+10	1	-1E+10	1	-1E+10	1	-1E+10	1
4902549	13	C	12/17/2020	09:06	-134.364	48.017	0	145.10	0	7.1080	0	33.0640	0	25.881	0	143.832	0	206.9	4	69.7	4	-1E+10	1	-1E+10	1	-1E+10	1	-1E+10	1	-1E+10	1	-1E+10	1
4902549	13	C	12/17/2020	09:06	-134.364	48.017	0	155.40	0	6.8510	0	33.3120	0	26.111	0	154.038	0	196.6	4	65.9	4	-1E+10	1	-1E+10	1	-1E+10	1	-1E+10	1	-1E+10	1	-1E+10	1
4902549	13	C	12/17/2020	09:06	-134.364	48.017	0	165.60	0	6.5970	0	33.4610	0	26.262	0	164.144	0	186.8	4	62.4	4	-1E+10	1	-1E+10	1	-1E+10	1	-1E+10	1	-1E+10	1	-1E+10	1
4902549	13	C	12/17/2020	09:06	-134.364	48.017	0	176.00	0	6.4300	0	33.5520	0	26.356	0	174.448	0	174.9	4	58.2	4	-1E+10	1	-1E+10	1	-1E+10	1	-1E+10	1	-1E+10	1	-1E+10	1
4902549	13	C	12/17/2020	09:06	-134.364	48.017	0	185.30	0	6.1280	0	33.6190	0	26.448	0	183.662	0	162.9	4	53.9	4	-1E+10	1	-1E+10	1	-1E+10	1	-1E+10	1	-1E+10	1	-1E+10	1
4902549	13	C	12/17/2020	09:06	-134.364	48.017	0	195.30	0	5.9590	0	33.6630	0	26.503	0	193.569	0	156.2	4	51.5	4	-1E+10	1	-1E+10	1	-1E+10	1	-1E+10	1	-1E+10	1	-1E+10	1
4902549	13	C	12/17/2020	09:06	-134.364	48.017	0	212.90	0	5.7930	0	33.7210	0	26.570	0	211.004	0	143.3	4	47.0	4	-1E+10	1	-1E+10	1	-1E+10	1	-1E+10	1	-1E+10	1	-1E+10	1
4902549	13	C	12/17/2020	09:06	-134.364	48.017	0	237.70	0	5.5770	0	33.7710	0	26.636	0	235.569	0	128.3	4	41.9	4	-1E+10	1	-1E+10	1	-1E+10	1	-1E+10	1	-1E+10	1	-1E+10	1
4902549	13	C	12/17/2020	09:06	-134.364	48.017	0	262.90	0	5.3600	0	33.7990	0	26.684	0	260.528	0	116.1	4	37.7	4	-1E+10	1	-1E+10	1	-1E+10	1	-1E+10	1	-1E+10	1	-1E+10	1
4902549	13	C	12/17/2020	09:06	-134.364	48.017	0	287.90	0	5.1340	0	33.8240	0	26.730	0	285.285	0	104.6	4	33.9	4	-1E+10	1	-1E+10	1	-1E+10	1	-1E+10	1	-1E+10	1	-1E+10	1
4902549	13	C	12/17/2020	09:06	-134.364	48.017	0	312.60	0	4.9980	0	33.8460	0	26.763	0	309.742	0	92.2	4	29.7	4	-1E+10	1	-1E+10	1	-1E+10	1	-1E+10	1	-1E+10	1	-1E+10	1
4902549	13	C	12/17/2020	09:06	-134.364	48.017	0	337.80	0	4.8450	0	33.8680	0	26.798	0	334.691	0	81.3	4	26.1	4	-1E+10	1	-1E+10	1	-1E+10	1	-1E+10	1	-1E+10	1	-1E+10	1
4902549	13	C	12/17/2020	09:06	-134.364	48.017	0	362.40	0	4.6990	0	33.8920	0	26.834	0	359.044	0	71.9	4	23.0	4	-1E+10	1	-1E+10	1	-1E+10	1	-1E+10	1	-1E+10	1	-1E+10	1
4902549	13	C	12/17/2020	09:06	-134.364	48.017	0	387.80	0	4.6130	0	33.9130	0	26.860	0	384.185	0	65.0	4	20.8	4	-1E+10	1	-1E+10	1	-1E+10	1	-1E+10	1	-1E+10	1	-1E+10	1
4902549	13	C	12/17/2020	09:06	-134.364	48.017	0	412.70	0	4.5300	0	33.9340	0	26.886	0	408.828	0	59.1	4	18.9	4	-1E+10	1	-1E+10	1	-1E+10	1	-1E+10	1	-1E+10	1	-1E+10	1
4902549	13	C	12/17/2020	09:06	-134.364	48.017	0	437.90	0	4.4390	0	33.9640	0	26.920	0	433.765	0	53.5	4	17.0	4	-1E+10	1	-1E+10	1	-1E+10	1	-1E+10	1	-1E+10	1	-1E+10	1
4902549	13	C	12/17/2020	09:06	-134.364	48.017	0	463.10	0	4.3680	0	33.9900	0	26.948	0	458.700	0	48.2	4	15.3	4	-1E+10	1	-1E+10	1	-1E+10	1	-1E+10	1	-1E+10	1	-1E+10	1
4902549	13	C	12/17/2020	09:06	-134.364	48.017	0	487.90	0	4.2870	0	34.0170	0	26.978	0	483.235	0	43.6	4	13.9	4	-1E+10	1	-1E+10	1	-1E+10	1	-1E+10	1	-1E+10	1	-1E+10	1
4902549	13	C	12/17/2020	09:06	-134.364	48.017	0	512.80	0	4.2140	0	34.0400	0	27.004	0	507.867	0	38.1	4	12.1	4	-1E+10	1	-1E+10	1	-1E+10	1	-1E+10	1	-1E+10	1	-1E+10	1
4902549	13	C	12/17/2020	09:06	-134.364	48.017	0	537.40	0	4.1470	0	34.0640	0	27.031	0	532.199	0	33.2	4	10.5	4	-1E+10	1	-1E+10	1	-1E+10	1	-1E+10	1	-1E+10	1	-1E+10	1
4902549	13	C	12/17/2020	09:06	-134.364	48.017	0	563.30	0	4.0610	0	34.0930	0	27.063	0	557.813	0	28.0	4	8.8	4	-1E+10	1	-1E+10	1	-1E+10	1	-1E+10	1	-1E+10	1	-1E+10	1
4902549	13	C	12/17/2020	09:06	-134.364	48.017	0	587.20	0	4.0030	0	34.1140	0	27.085	0	581.447	0	24.8	4	7.8	4	-1E+10	1	-1E+10	1	-1E+10	1	-1E+10	1	-1E+10	1	-1E+10	1
4902549	13	C	12/17/2020	09:06	-134.364	48.017	0	612.70	0	3.9430	0	34.1350	0	27.108	0	606.660	0	22.0	4	6.9	4	-1E+10	1	-1E+10	1	-1E+10	1	-1E+10	1	-1E+10	1	-1E+10	1
4902549	13	C	12/17/2020	09:06	-134.364	48.017	0	637.80	0	3.8760	0	34.1570	0	27.133	0	631.475	0	19.0	4	6.0	4	-1E+10	1	-1E+10	1	-1E+10	1	-1E+10	1	-1E+10	1	-1E+10	1
4902549	13	C	12/17/2020	09:06	-134.364	48.017	0	662.60	0	3.8140	0	34.1760	0	27.154	0	655.990	0	17.2	4	5.4	4	-1E+10	1	-1E+10	1	-1E+10	1	-1E+10	1	-1E+10	1	-1E+10	1
4902549	13	C	12/17/2020	09:06	-134.364	48.017	0	687.40	0	3.7690	0	34.1900	0	27.170	0	680.502	0	15.8	4	5.0	4	-1E+10	1	-1E+10	1	-1E+10	1	-1E+10	1	-1E+10	1	-1E+10	1
4902549	13	C	12/17/2020	09:06	-134.364	48.017	0	712.70	0	3.7290	0	34.2020	0	27.184	0	705.505	0	14.7	4	4.6	4	-1E+10	1	-1E+10	1	-1E+10	1	-1E+10	1	-1E+10	1	-1E+10	1
4902549	13	C	12/17/2020	09:06	-134.364	48.017	0	738.00	0	3.6860	0	34.2150	0	27.199	0	730.505	0	13.4	4	4.2	4	-1E+10	1	-1E+10	1	-1E+10	1	-1E+10	1	-1E+10	1	-1E+10	1
4902549	13	C	12/17/2020	09:06	-134.364	48.017	0	763.10	0	3.6490	0	34.2370	0	27.220	0	755.305	0	11.5	4	3.6	4	-1E+10	1	-1E+10	1	-1E+10	1	-1E+10	1	-1E+10	1	-1E+10	1
4902549	13	C	12/17/2020	09:06	-134.364	48.017	0	788.20	0	3.6060	0	34.2530	0	27.237	0	780.102	0	10.4	4	3.2	4	-1E+10	1	-1E+10	1	-1E+10	1	-1E+10	1	-1E+10	1	-1E+10	1
4902549	13	C	12/17/2020	09:06	-134.364	48.017	0	813.30	0	3.5560	0	34.2680	0	27.254	0	804.895	0	9.4	4	2.9	4	-1E+10	1	-1E+10	1	-1E+10	1	-1E+10	1	-1E+10	1	-1E+10	1
4902549	13	C	12/17/2020	09:06	-134.364	48.017	0	838.10	0	3.4720	0	34.2800	0	27.272	0	829.390	0	9.3	4	2.9	4	-1E+10	1	-1E+10	1	-1E+10	1	-1E+10	1	-1E+10	1	-1E+10	1
4902549	13	C	12/17/2020	09:06	-134.364	48.017	0	862.60	0	3.4040	0	34.2900	0	27.286	0	853.585	0	9.3	4	2.9	4	-1E+10	1	-1E+10	1	-1E+10	1	-1E+10	1	-1E+10	1	-1E+10	1
4902549	13	C	12/17/2020	09:06	-134.364	48.017	0	887.90	0	3.3360	0	34.3020	0	27.303	0	878.568	0	9.0	4	2.8	4	-1E+10	1	-1E+10	1	-1E+10	1	-1E+10	1	-1E+10	1	-1E+10	1
4902549	13	C	12/17/2020	09:06	-134.364	48.017	0	913.00	0	3.2880	0	34.3120	0	27.315	0	903.350	0	8.8	4	2.7	4	-1E+10	1	-1E+10	1	-1E+10	1	-1E+10	1	-1E+10	1	-1E+10	1
4902549	13	C	12/17/2020	09:06	-134.364	48.017	0	938.20	0	3.2370	0	34.3220	0	27.328	0	928.228	0	8.8	4	2.7	4	-1E+10	1	-1E+10	1	-1E+10	1	-1E+10	1	-1E+10	1	-1E+10	1
4902549	13	C	12/17/2020	09:06	-134.364	48.017	0	962.70	0	3.1940	0	34.3320	0	27.340	0	952.412	0	8.7	4	2.7	4	-1E+10	1	-1E+10	1	-1E+10	1	-1E+10	1	-1E+10	1	-1E+10	1
4902549	13	C	12/17/2020	09:06	-134.364	48.017	0	987.90	0	3.1540	0	34.3410	0	27.351	0	977.284	0	8.6	4	2.7	4	-1E+10	1	-1E+10	1	-1E+10	1	-1E+10	1	-1E+10	1	-1E+10	1
4902549	13	C	12/17/2020	09:06	-134.364	48.017	0	1013.00	0	3.1120	0	34.3520	0	27.364	0	1002.054	0	8.5	4	2.6	4	-1E+10	1	-1E+10	1	-1E+10	1	-1E+10	1	-1E+10	1	-1E+10	1
4902549	13	C	12/17/2020	09:06	-134.364	48.017	0	1038.00	0	3.0620	0	34.3650	0	27.379	0	1026.722	0	8.0	4	2.5	4	-1E+10	1	-1E+10	1	-1E+10	1	-1E+10	1	-1E+10	1	-1E+10	1
4902549	13	C	12/17/2020	09:06	-134.364	48.017	0	1062.90	0	3.0120	0	34.3760	0	27.393	0	1051.290	0	8.0	4	2.5	4	-1E+10	1	-1E+10	1	-1E+10	1	-1E+10	1	-1E+10	1	-1E+10	1
4902549	13	C	12/17/2020	09:06	-134.364	48.017	0	1087.90	0	2.9730	0	34.3860	0	27.404	0	1075.952	0	8.0	4	2.5	4	-1E+10	1	-1E+10	1	-1E+10	1	-1E+10	1	-1E+10	1	-1E+10	1
4902549	13	C	12/17/2020	09:06	-134.364	48.017	0	1112.50	0	2.9210	0	34.3960	0	27.417	0	1100.218	0	8.3	4	2.6	4	-1E+10	1	-1E+10	1	-1E+10	1	-1E+10	1	-1E+10	1	-1E+10	1
4902549	13	C	12/17/2020	09:06	-134.364	48.017	0	1137.50	0	2.8720	0	34.4060	0	27.429	0	1124.875	0	8.7	4	2.7	4	-1E+10	1	-1E+10	1	-1E+10	1	-1E+10	1	-1E+10	1	-1E+10	1
4902549	13	C	12/17/2020	09:06	-134.364	48.017	0	1162.60	0	2.8290	0	34.4150	0	27.441	0	1149.628	0	9.0	4	2.8	4	-1E+10	1	-1E+10	1	-1E+10	1	-1E+10	1	-1E+10	1	-1E+10	1
4902549	13	C	12/17/2020	09:06	-134.364	48.017	0	1188.60	0	2.7900	0	34.4230	0	27.450	0	1175.265	0	9.2	4	2.8	4	-1E+10	1	-1E+10	1	-1E+10	1	-1E+10	1	-1E+10	1	-1E+10	1
4902549	13	C	12/17/2020	09:06	-134.364	48.017	0	1212.80	0	2.7590	0	34.4300	0	27.459	0	1199.124	0	9.7	4	3.0	4	-1E+10	1	-1E+10	1	-1E+10	1	-1E+10	1	-1E+10	1	-1E+10	1
4902549	13	C	12/17/2020	09:06	-134.364	48.017	0	1238.00	0	2.7060	0	34.4390	0	27.471	0	1223.967	0	10.4	4	3.2	4	-1E+10	1	-1E+10	1	-1E+10	1	-1E+10	1	-1E+10	1	-1E+10	1
4902549	13	C	12/17/2020	09:06	-134.364	48.017	0	1262.60	0	2.6650	0	34.4450	0	27.479	0	1248.215	0	10.9	4	3.4	4	-1E+10	1	-1E+10	1	-1E+10	1	-1E+10	1	-1E+10	1	-1E+10	1
4902549	13	C	12/17/2020	09:06	-134.364	48.017	0	1287.30	0	2.6400	0	34.4500	0	27.486	0	1272.559	0	11.4	4	3.5	4	-1E+10	1	-1E+10	1	-1E+10	1	-1E+10	1	-1E+10	1	-1E+10	1
4902549	13	C	12/17/2020	09:06	-134.364	48.017	0	1312.80	0	2.6100	0	34.4560	0	27.493	0	1297.689	0	11.9	4	3.7	4	-1E+10	1	-1E+10	1	-1E+10	1	-1E+10	1	-1E+10	1	-1E+10	1
4902549	13	C	12/17/2020	09:06	-134.364	48.017	0	1338.10	0	2.5900	0	34.4600	0	27.498	0	1322.618	0	12.4	4	3.8	4	-1E+10	1	-1E+10	1	-1E+10	1	-1E+10	1	-1E+10	1	-1E+10	1
4902549	13	C	12/17/2020	09:06	-134.364	48.017	0	1362.70	0	2.5650	0	34.4640	0	27.504	0	1346.855	0	13.0	4	4.0	4	-1E+10	1	-1E+10	1	-1E+10	1	-1E+10	1	-1E+10	1	-1E+10	1
4902549	13	C	12/17/2020	09:06	-134.364	48.017	0	1387.70	0	2.5430	0	34.4690	0	27.510	0	1371.483	0	13.5	4	4.1	4	-1E+10	1	-1E+10	1	-1E+10	1	-1E+10	1	-1E+10	1	-1E+10	1
4902549	13	C	12/17/2020	09:06	-134.364	48.017	0	1413.00	0	2.5190	0	34.4730	0	27.515	0	1396.404	0	14.2	4	4.3	4	-1E+10	1	-1E+10	1	-1E+10	1	-1E+10	1	-1E+10	1	-1E+10	1
4902549	13	C	12/17/2020	09:06	-134.364	48.017	0	1438.10	0	2.4830	0	34.4800	0	27.524	0	1421.124	0	15.4	4	4.7	4	-1E+10	1	-1E+10	1	-1E+10	1	-1E+10	1	-1E+10	1	-1E+10	1
4902549	13	C	12/17/2020	09:06	-134.364	48.017	0	1462.70	0	2.4510	0	34.4860	0	27.531	0	1445.350	0	16.6	4	5.1	4	-1E+10	1	-1E+10	1	-1E+10	1	-1E+10	1	-1E+10	1	-1E+10	1
4902549	13	C	12/17/2020	09:06	-134.364	48.017	0	1487.40	0	2.4110	0	34.4940	0	27.541	0	1469.671	0	18.3	4	5.6	4	-1E+10	1	-1E+10	1	-1E+10	1	-1E+10	1	-1E+10	1	-1E+10	1
4902549	13	C	12/17/2020	09:06	-134.364	48.017	0	1512.40	0	2.3710	0	34.5010	0	27.550	0	1494.285	0	19.8	4	6.0	4	-1E+10	1	-1E+10	1	-1E+10	1	-1E+10	1	-1E+10	1	-1E+10	1
4902549	13	C	12/17/2020	09:06	-134.364	48.017	0	1537.70	0	2.3320	0	34.5070	0	27.558	0	1519.191	0	21.2	4	6.5	4	-1E+10	1	-1E+10	1	-1E+10	1	-1E+10	1	-1E+10	1	-1E+10	1
4902549	13	C	12/17/2020	09:06	-134.364	48.017	0	1563.60	0	2.2980	0	34.5130	0	27.566	0	1544.685	0	22.6	4	6.9	4	-1E+10	1	-1E+10	1	-1E+10	1	-1E+10	1	-1E+10	1	-1E+10	1
4902549	13	C	12/17/2020	09:06	-134.364	48.017	0	1587.70	0	2.2770	0	34.5180	0	27.572	0	1568.404	0	24.0	4	7.3	4	-1E+10	1	-1E+10	1	-1E+10	1	-1E+10	1	-1E+10	1	-1E+10	1
4902549	13	C	12/17/2020	09:06	-134.364	48.017	0	1612.60	0	2.2580	0	34.5220	0	27.577	0	1592.907	0	25.5	4	7.7	4	-1E+10	1	-1E+10	1	-1E+10	1	-1E+10	1	-1E+10	1	-1E+10	1
4902549	13	C	12/17/2020	09:06	-134.364	48.017	0	1637.50	0	2.2270	0	34.5280	0	27.584	0	1617.408	0	27.1	4	8.2	4	-1E+10	1	-1E+10	1	-1E+10	1	-1E+10	1	-1E+10	1	-1E+10	1
4902549	13	C	12/17/2020	09:06	-134.364	48.017	0	1662.90	0	2.2030	0	34.5320	0	27.589	0	1642.398	0	28.4	4	8.6	4	-1E+10	1	-1E+10	1	-1E+10	1	-1E+10	1	-1E+10	1	-1E+10	1
4902549	13	C	12/17/2020	09:06	-134.364	48.017	0	1687.90	0	2.1790	0	34.5360	0	27.595	0	1666.992	0	30.0	4	9.1	4	-1E+10	1	-1E+10	1	-1E+10	1	-1E+10	1	-1E+10	1	-1E+10	1
4902549	13	C	12/17/2020	09:06	-134.364	48.017	0	1712.70	0	2.1500	0	34.5420	0	27.602	0	1691.386	0	32.0	4	9.7	4	-1E+10	1	-1E+10	1	-1E+10	1	-1E+10	1	-1E+10	1	-1E+10	1
4902549	13	C	12/17/2020	09:06	-134.364	48.017	0	1737.80	0	2.1240	0	34.5470	0	27.608	0	1716.072	0	33.5	4	10.1	4	-1E+10	1	-1E+10	1	-1E+10	1	-1E+10	1	-1E+10	1	-1E+10	1
4902549	13	C	12/17/2020	09:06	-134.364	48.017	0	1763.20	0	2.1080	0	34.5500	0	27.612	0	1741.050	0	34.5	4	10.4	4	-1E+10	1	-1E+10	1	-1E+10	1	-1E+10	1	-1E+10	1	-1E+10	1
4902549	13	C	12/17/2020	09:06	-134.364	48.017	0	1787.80	0	2.0910	0	34.5530	0	27.616	0	1765.239	0	36.0	4	10.9	4	-1E+10	1	-1E+10	1	-1E+10	1	-1E+10	1	-1E+10	1	-1E+10	1
4902549	13	C	12/17/2020	09:06	-134.364	48.017	0	1812.60	0	2.0650	0	34.5580	0	27.622	0	1789.622	0	38.2	4	11.5	4	-1E+10	1	-1E+10	1	-1E+10	1	-1E+10	1	-1E+10	1	-1E+10	1
4902549	13	C	12/17/2020	09:06	-134.364	48.017	0	1837.90	0	2.0360	0	34.5640	0	27.629	0	1814.493	0	40.8	4	12.3	4	-1E+10	1	-1E+10	1	-1E+10	1	-1E+10	1	-1E+10	1	-1E+10	1
4902549	13	C	12/17/2020	09:06	-134.364	48.017	0	1863.00	0	2.0070	0	34.5690	0	27.636	0	1839.165	0	43.4	4	13.1	4	-1E+10	1	-1E+10	1	-1E+10	1	-1E+10	1	-1E+10	1	-1E+10	1
4902549	13	C	12/17/2020	09:06	-134.364	48.017	0	1888.40	0	1.9820	0	34.5740	0	27.642	0	1864.129	0	45.2	4	13.6	4	-1E+10	1	-1E+10	1	-1E+10	1	-1E+10	1	-1E+10	1	-1E+10	1
4902549	13	C	12/17/2020	09:06	-134.364	48.017	0	1912.80	0	1.9690	0	34.5770	0	27.645	0	1888.107	0	46.1	4	13.9	4	-1E+10	1	-1E+10	1	-1E+10	1	-1E+10	1	-1E+10	1	-1E+10	1
4902549	13	C	12/17/2020	09:06	-134.364	48.017	0	1937.60	0	1.9620	0	34.5790	0	27.648	0	1912.475	0	46.9	4	14.1	4	-1E+10	1	-1E+10	1	-1E+10	1	-1E+10	1	-1E+10	1	-1E+10	1
4902549	13	C	12/17/2020	09:06	-134.364	48.017	0	1957.80	0	1.9500	0	34.5810	0	27.650	0	1932.322	0	47.3	4	14.2	4	-1E+10	1	-1E+10	1	-1E+10	1	-1E+10	1	-1E+10	1	-1E+10	1
4902549	13	C	12/17/2020	09:06	-134.364	48.017	0																										
4902549	14	C	12/27/2020	09:07	-134.301	47.851	0	0.20	0	9.9100	0	32.2840	0	24.847	0	0.198	0	265.0	4	94.4	4	-1E+10	1	-1E+10	1	-1E+10	1	-1E+10	1	-1E+10	1	-1E+10	1
4902549	14	C	12/27/2020	09:07	-134.301	47.851	0	1.00	0	9.9110	0	32.2830	0	24.846	0	0.992	0	264.9	4	94.4	4	-1E+10	1	-1E+10	1	-1E+10	1	-1E+10	1	-1E+10	1	-1E+10	1
4902549	14	C	12/27/2020	09:07	-134.301	47.851	0	1.70	0	9.9110	0	32.2830	0	24.846	0	1.686	0	264.8	4	94.4	4	-1E+10	1	-1E+10	1	-1E+10	1	-1E+10	1	-1E+10	1	-1E+10	1
4902549	14	C	12/27/2020	09:07	-134.301	47.851	0	2.70	0	9.9110	0	32.2840	0	24.847	0	2.677	0	264.9	4	94.4	4	-1E+10	1	-1E+10	1	-1E+10	1	-1E+10	1	-1E+10	1	-1E+10	1
4902549	14	C	12/27/2020	09:07	-134.301	47.851	0	3.90	0	9.9120	0	32.2840	0	24.847	0	3.867	0	264.9	4	94.4	4	-1E+10	1	-1E+10	1	-1E+10	1	-1E+10	1	-1E+10	1	-1E+10	1
4902549	14	C	12/27/2020	09:07	-134.301	47.851	0	4.80	0	9.9120	0	32.2840	0	24.847	0	4.760	0	264.9	4	94.4	4	-1E+10	1	-1E+10	1	-1E+10	1	-1E+10	1	-1E+10	1	-1E+10	1
4902549	14	C	12/27/2020	09:07	-134.301	47.851	0	5.70	0	9.9120	0	32.2840	0	24.847	0	5.652	0	264.8	4	94.4	4	-1E+10	1	-1E+10	1	-1E+10	1	-1E+10	1	-1E+10	1	-1E+10	1
4902549	14	C	12/27/2020	09:07	-134.301	47.851	0	6.80	0	9.9120	0	32.2840	0	24.847	0	6.743	0	264.7	4	94.4	4	-1E+10	1	-1E+10	1	-1E+10	1	-1E+10	1	-1E+10	1	-1E+10	1
4902549	14	C	12/27/2020	09:07	-134.301	47.851	0	7.80	0	9.9120	0	32.2840	0	24.847	0	7.735	0	264.7	4	94.4	4	-1E+10	1	-1E+10	1	-1E+10	1	-1E+10	1	-1E+10	1	-1E+10	1
4902549	14	C	12/27/2020	09:07	-134.301	47.851	0	8.80	0	9.9120	0	32.2850	0	24.848	0	8.726	0	264.8	4	94.4	4	-1E+10	1	-1E+10	1	-1E+10	1	-1E+10	1	-1E+10	1	-1E+10	1
4902549	14	C	12/27/2020	09:07	-134.301	47.851	0	10.00	0	9.9120	0	32.2850	0	24.848	0	9.916	0	264.7	4	94.3	4	-1E+10	1	-1E+10	1	-1E+10	1	-1E+10	1	-1E+10	1	-1E+10	1
4902549	14	C	12/27/2020	09:07	-134.301	47.851	0	15.40	0	9.9120	0	32.2840	0	24.847	0	15.270	0	264.7	4	94.4	4	-1E+10	1	-1E+10	1	-1E+10	1	-1E+10	1	-1E+10	1	-1E+10	1
4902549	14	C	12/27/2020	09:07	-134.301	47.851	0	25.70	0	9.9140	0	32.2840	0	24.847	0	25.483	0	264.7	4	94.3	4	-1E+10	1	-1E+10	1	-1E+10	1	-1E+10	1	-1E+10	1	-1E+10	1
4902549	14	C	12/27/2020	09:07	-134.301	47.851	0	35.60	0	9.9160	0	32.2840	0	24.847	0	35.299	0	264.6	4	94.3	4	-1E+10	1	-1E+10	1	-1E+10	1	-1E+10	1	-1E+10	1	-1E+10	1
4902549	14	C	12/27/2020	09:07	-134.301	47.851	0	45.30	0	9.9150	0	32.2840	0	24.847	0	44.916	0	264.3	4	94.2	4	-1E+10	1	-1E+10	1	-1E+10	1	-1E+10	1	-1E+10	1	-1E+10	1
4902549	14	C	12/27/2020	09:07	-134.301	47.851	0	55.20	0	9.9140	0	32.2840	0	24.847	0	54.730	0	264.0	4	94.1	4	-1E+10	1	-1E+10	1	-1E+10	1	-1E+10	1	-1E+10	1	-1E+10	1
4902549	14	C	12/27/2020	09:07	-134.301	47.851	0	65.40	0	9.9170	0	32.2850	0	24.848	0	64.842	0	263.4	4	93.9	4	-1E+10	1	-1E+10	1	-1E+10	1	-1E+10	1	-1E+10	1	-1E+10	1
4902549	14	C	12/27/2020	09:07	-134.301	47.851	0	75.60	0	9.9180	0	32.2860	0	24.849	0	74.953	0	261.4	4	93.2	4	-1E+10	1	-1E+10	1	-1E+10	1	-1E+10	1	-1E+10	1	-1E+10	1
4902549	14	C	12/27/2020	09:07	-134.301	47.851	0	85.70	0	9.5720	0	32.3210	0	24.932	0	84.964	0	255.2	4	90.3	4	-1E+10	1	-1E+10	1	-1E+10	1	-1E+10	1	-1E+10	1	-1E+10	1
4902549	14	C	12/27/2020	09:07	-134.301	47.851	0	95.90	0	8.5370	0	32.4380	0	25.185	0	95.074	0	248.5	4	86.0	4	-1E+10	1	-1E+10	1	-1E+10	1	-1E+10	1	-1E+10	1	-1E+10	1
4902549	14	C	12/27/2020	09:07	-134.301	47.851	0	105.90	0	7.7450	0	32.5760	0	25.409	0	104.986	0	240.8	4	82.0	4	-1E+10	1	-1E+10	1	-1E+10	1	-1E+10	1	-1E+10	1	-1E+10	1
4902549	14	C	12/27/2020	09:07	-134.301	47.851	0	115.50	0	7.6020	0	32.6790	0	25.510	0	114.500	0	232.9	4	79.1	4	-1E+10	1	-1E+10	1	-1E+10	1	-1E+10	1	-1E+10	1	-1E+10	1
4902549	14	C	12/27/2020	09:07	-134.301	47.851	0	125.10	0	7.3090	0	32.8640	0	25.696	0	124.014	0	219.5	4	74.2	4	-1E+10	1	-1E+10	1	-1E+10	1	-1E+10	1	-1E+10	1	-1E+10	1
4902549	14	C	12/27/2020	09:07	-134.301	47.851	0	135.40	0	7.0070	0	33.0560	0	25.889	0	134.222	0	207.8	4	69.8	4	-1E+10	1	-1E+10	1	-1E+10	1	-1E+10	1	-1E+10	1	-1E+10	1
4902549	14	C	12/27/2020	09:07	-134.301	47.851	0	145.20	0	6.8050	0	33.2710	0	26.085	0	143.933	0	197.0	4	66.0	4	-1E+10	1	-1E+10	1	-1E+10	1	-1E+10	1	-1E+10	1	-1E+10	1
4902549	14	C	12/27/2020	09:07	-134.301	47.851	0	155.50	0	6.6700	0	33.4010	0	26.205	0	154.139	0	189.0	4	63.2	4	-1E+10	1	-1E+10	1	-1E+10	1	-1E+10	1	-1E+10	1	-1E+10	1
4902549	14	C	12/27/2020	09:07	-134.301	47.851	0	165.20	0	6.5460	0	33.5490	0	26.338	0	163.750	0	180.5	4	60.2	4	-1E+10	1	-1E+10	1	-1E+10	1	-1E+10	1	-1E+10	1	-1E+10	1
4902549	14	C	12/27/2020	09:07	-134.301	47.851	0	175.30	0	6.4860	0	33.6350	0	26.414	0	173.758	0	172.0	4	57.3	4	-1E+10	1	-1E+10	1	-1E+10	1	-1E+10	1	-1E+10	1	-1E+10	1
4902549	14	C	12/27/2020	09:07	-134.301	47.851	0	185.30	0	6.4510	0	33.7200	0	26.486	0	183.665	0	163.3	4	54.4	4	-1E+10	1	-1E+10	1	-1E+10	1	-1E+10	1	-1E+10	1	-1E+10	1
4902549	14	C	12/27/2020	09:07	-134.301	47.851	0	195.40	0	6.4160	0	33.7700	0	26.530	0	193.671	0	156.6	4	52.2	4	-1E+10	1	-1E+10	1	-1E+10	1	-1E+10	1	-1E+10	1	-1E+10	1
4902549	14	C	12/27/2020	09:07	-134.301	47.851	0	212.80	0	6.2810	0	33.7980	0	26.570	0	210.908	0	146.8	4	48.8	4	-1E+10	1	-1E+10	1	-1E+10	1	-1E+10	1	-1E+10	1	-1E+10	1
4902549	14	C	12/27/2020	09:07	-134.301	47.851	0	237.70	0	6.0010	0	33.8110	0	26.616	0	235.573	0	136.3	4	45.0	4	-1E+10	1	-1E+10	1	-1E+10	1	-1E+10	1	-1E+10	1	-1E+10	1
4902549	14	C	12/27/2020	09:07	-134.301	47.851	0	262.60	0	5.6930	0	33.8250	0	26.665	0	260.235	0	124.5	4	40.8	4	-1E+10	1	-1E+10	1	-1E+10	1	-1E+10	1	-1E+10	1	-1E+10	1
4902549	14	C	12/27/2020	09:07	-134.301	47.851	0	287.50	0	5.3270	0	33.8160	0	26.702	0	284.893	0	113.6	4	36.9	4	-1E+10	1	-1E+10	1	-1E+10	1	-1E+10	1	-1E+10	1	-1E+10	1
4902549	14	C	12/27/2020	09:07	-134.301	47.851	0	312.40	0	5.0020	0	33.8270	0	26.748	0	309.549	0	101.4	4	32.7	4	-1E+10	1	-1E+10	1	-1E+10	1	-1E+10	1	-1E+10	1	-1E+10	1
4902549	14	C	12/27/2020	09:07	-134.301	47.851	0	337.60	0	4.8610	0	33.8460	0	26.779	0	334.498	0	90.7	4	29.2	4	-1E+10	1	-1E+10	1	-1E+10	1	-1E+10	1	-1E+10	1	-1E+10	1
4902549	14	C	12/27/2020	09:07	-134.301	47.851	0	362.80	0	4.7660	0	33.8710	0	26.810	0	359.445	0	79.6	4	25.5	4	-1E+10	1	-1E+10	1	-1E+10	1	-1E+10	1	-1E+10	1	-1E+10	1
4902549	14	C	12/27/2020	09:07	-134.301	47.851	0	388.00	0	4.6490	0	33.9050	0	26.850	0	384.389	0	68.5	4	21.9	4	-1E+10	1	-1E+10	1	-1E+10	1	-1E+10	1	-1E+10	1	-1E+10	1
4902549	14	C	12/27/2020	09:07	-134.301	47.851	0	413.80	0	4.5470	0	33.9380	0	26.887	0	409.923	0	59.9	4	19.1	4	-1E+10	1	-1E+10	1	-1E+10	1	-1E+10	1	-1E+10	1	-1E+10	1
4902549	14	C	12/27/2020	09:07	-134.301	47.851	0	437.80	0	4.4750	0	33.9650	0	26.917	0	433.673	0	53.4	4	17.0	4	-1E+10	1	-1E+10	1	-1E+10	1	-1E+10	1	-1E+10	1	-1E+10	1
4902549	14	C	12/27/2020	09:07	-134.301	47.851	0	463.00	0	4.4050	0	33.9850	0	26.940	0	458.608	0	48.3	4	15.4	4	-1E+10	1	-1E+10	1	-1E+10	1	-1E+10	1	-1E+10	1	-1E+10	1
4902549	14	C	12/27/2020	09:07	-134.301	47.851	0	487.60	0	4.3300	0	34.0090	0	26.967	0	482.946	0	43.9	4	14.0	4	-1E+10	1	-1E+10	1	-1E+10	1	-1E+10	1	-1E+10	1	-1E+10	1
4902549	14	C	12/27/2020	09:07	-134.301	47.851	0	512.40	0	4.2890	0	34.0340	0	26.992	0	507.479	0	39.4	4	12.5	4	-1E+10	1	-1E+10	1	-1E+10	1	-1E+10	1	-1E+10	1	-1E+10	1
4902549	14	C	12/27/2020	09:07	-134.301	47.851	0	537.40	0	4.2130	0	34.0560	0	27.017	0	532.207	0	35.7	4	11.3	4	-1E+10	1	-1E+10	1	-1E+10	1	-1E+10	1	-1E+10	1	-1E+10	1
4902549	14	C	12/27/2020	09:07	-134.301	47.851	0	562.70	0	4.1190	0	34.0790	0	27.046	0	557.228	0	31.4	4	9.9	4	-1E+10	1	-1E+10	1	-1E+10	1	-1E+10	1	-1E+10	1	-1E+10	1
4902549	14	C	12/27/2020	09:07	-134.301	47.851	0	587.90	0	4.0460	0	34.1030	0	27.072	0	582.148	0	27.5	4	8.7	4	-1E+10	1	-1E+10	1	-1E+10	1	-1E+10	1	-1E+10	1	-1E+10	1
4902549	14	C	12/27/2020	09:07	-134.301	47.851	0	612.90	0	3.9820	0	34.1230	0	27.095	0	606.867	0	23.9	4	7.5	4	-1E+10	1	-1E+10	1	-1E+10	1	-1E+10	1	-1E+10	1	-1E+10	1
4902549	14	C	12/27/2020	09:07	-134.301	47.851	0	638.60	0	3.9220	0	34.1420	0	27.116	0	632.275	0	21.5	4	6.8	4	-1E+10	1	-1E+10	1	-1E+10	1	-1E+10	1	-1E+10	1	-1E+10	1
4902549	14	C	12/27/2020	09:07	-134.301	47.851	0	663.10	0	3.8580	0	34.1640	0	27.140	0	656.494	0	19.6	4	6.2	4	-1E+10	1	-1E+10	1	-1E+10	1	-1E+10	1	-1E+10	1	-1E+10	1
4902549	14	C	12/27/2020	09:07	-134.301	47.851	0	688.20	0	3.8110	0	34.1770	0	27.156	0	681.303	0	17.9	4	5.6	4	-1E+10	1	-1E+10	1	-1E+10	1	-1E+10	1	-1E+10	1	-1E+10	1
4902549	14	C	12/27/2020	09:07	-134.301	47.851	0	713.20	0	3.7450	0	34.1970	0	27.178	0	706.010	0	15.6	4	4.9	4	-1E+10	1	-1E+10	1	-1E+10	1	-1E+10	1	-1E+10	1	-1E+10	1
4902549	14	C	12/27/2020	09:07	-134.301	47.851	0	737.70	0	3.6740	0	34.2170	0	27.201	0	730.220	0	14.0	4	4.4	4	-1E+10	1	-1E+10	1	-1E+10	1	-1E+10	1	-1E+10	1	-1E+10	1
4902549	14	C	12/27/2020	09:07	-134.301	47.851	0	762.70	0	3.6280	0	34.2300	0	27.216	0	754.921	0	12.8	4	4.0	4	-1E+10	1	-1E+10	1	-1E+10	1	-1E+10	1	-1E+10	1	-1E+10	1
4902549	14	C	12/27/2020	09:07	-134.301	47.851	0	788.00	0	3.5930	0	34.2450	0	27.232	0	779.916	0	11.3	4	3.5	4	-1E+10	1	-1E+10	1	-1E+10	1	-1E+10	1	-1E+10	1	-1E+10	1
4902549	14	C	12/27/2020	09:07	-134.301	47.851	0	812.70	0	3.5450	0	34.2680	0	27.255	0	804.315	0	9.5	4	3.0	4	-1E+10	1	-1E+10	1	-1E+10	1	-1E+10	1	-1E+10	1	-1E+10	1
4902549	14	C	12/27/2020	09:07	-134.301	47.851	0	837.80	0	3.4630	0	34.2820	0	27.274	0	829.106	0	9.3	4	2.9	4	-1E+10	1	-1E+10	1	-1E+10	1	-1E+10	1	-1E+10	1	-1E+10	1
4902549	14	C	12/27/2020	09:07	-134.301	47.851	0	863.00	0	3.3880	0	34.2910	0	27.289	0	853.993	0	9.4	4	2.9	4	-1E+10	1	-1E+10	1	-1E+10	1	-1E+10	1	-1E+10	1	-1E+10	1
4902549	14	C	12/27/2020	09:07	-134.301	47.851	0	887.90	0	3.3350	0	34.3020	0	27.303	0	878.581	0	9.1	4	2.8	4	-1E+10	1	-1E+10	1	-1E+10	1	-1E+10	1	-1E+10	1	-1E+10	1
4902549	14	C	12/27/2020	09:07	-134.301	47.851	0	912.50	0	3.2760	0	34.3150	0	27.319	0	902.870	0	8.9	4	2.8	4	-1E+10	1	-1E+10	1	-1E+10	1	-1E+10	1	-1E+10	1	-1E+10	1
4902549	14	C	12/27/2020	09:07	-134.301	47.851	0	937.50	0	3.2340	0	34.3250	0	27.331	0	927.551	0	8.8	4	2.7	4	-1E+10	1	-1E+10	1	-1E+10	1	-1E+10	1	-1E+10	1	-1E+10	1
4902549	14	C	12/27/2020	09:07	-134.301	47.851	0	962.60	0	3.1820	0	34.3360	0	27.344	0	952.327	0	8.7	4	2.7	4	-1E+10	1	-1E+10	1	-1E+10	1	-1E+10	1	-1E+10	1	-1E+10	1
4902549	14	C	12/27/2020	09:07	-134.301	47.851	0	988.00	0	3.1340	0	34.3480	0	27.359	0	977.397	0	8.7	4	2.7	4	-1E+10	1	-1E+10	1	-1E+10	1	-1E+10	1	-1E+10	1	-1E+10	1
4902549	14	C	12/27/2020	09:07	-134.301	47.851	0	1013.10	0	3.0850	0	34.3570	0	27.370	0	1002.168	0	8.5	4	2.6	4	-1E+10	1	-1E+10	1	-1E+10	1	-1E+10	1	-1E+10	1	-1E+10	1
4902549	14	C	12/27/2020	09:07	-134.301	47.851	0	1038.10	0	3.0520	0	34.3640	0	27.379	0	1026.837	0	8.4	4	2.6	4	-1E+10	1	-1E+10	1	-1E+10	1	-1E+10	1	-1E+10	1	-1E+10	1
4902549	14	C	12/27/2020	09:07	-134.301	47.851	0	1062.80	0	3.0200	0	34.3720	0	27.389	0	1051.207	0	8.2	4	2.5	4	-1E+10	1	-1E+10	1	-1E+10	1	-1E+10	1	-1E+10	1	-1E+10	1
4902549	14	C	12/27/2020	09:07	-134.301	47.851	0	1088.00	0	2.9860	0	34.3810	0	27.399	0	1076.067	0	8.1	4	2.5	4	-1E+10	1	-1E+10	1	-1E+10	1	-1E+10	1	-1E+10	1	-1E+10	1
4902549	14	C	12/27/2020	09:07	-134.301	47.851	0	1113.10	0	2.9480	0	34.3890	0	27.409	0	1100.826	0	8.2	4	2.5	4	-1E+10	1	-1E+10	1	-1E+10	1	-1E+10	1	-1E+10	1	-1E+10	1
4902549	14	C	12/27/2020	09:07	-134.301	47.851	0	1137.90	0	2.9010	0	34.3990	0	27.421	0	1125.286	0	8.5	4	2.6	4	-1E+10	1	-1E+10	1	-1E+10	1	-1E+10	1	-1E+10	1	-1E+10	1
4902549	14	C	12/27/2020	09:07	-134.301	47.851	0	1162.80	0	2.8630	0	34.4070	0	27.431	0	1149.842	0	8.7	4	2.7	4	-1E+10	1	-1E+10	1	-1E+10	1	-1E+10	1	-1E+10	1	-1E+10	1
4902549	14	C	12/27/2020	09:07	-134.301	47.851	0	1187.90	0	2.8230	0	34.4150	0	27.441	0	1174.593	0	9.0	4	2.8	4	-1E+10	1	-1E+10	1	-1E+10	1	-1E+10	1	-1E+10	1	-1E+10	1
4902549	14	C	12/27/2020	09:07	-134.301	47.851	0	1213.00	0	2.7960	0	34.4220	0	27.449	0	1199.340	0	9.2	4	2.8	4	-1E+10	1	-1E+10	1	-1E+10	1	-1E+10	1	-1E+10	1	-1E+10	1
4902549	14	C	12/27/2020	09:07	-134.301	47.851	0	1238.80	0	2.7660	0	34.4280	0	27.457	0	1224.774	0	9.6	4	2.9	4	-1E+10	1	-1E+10	1	-1E+10	1	-1E+10	1	-1E+10	1	-1E+10	1
4902549	14	C	12/27/2020	09:07	-134.301	47.851	0	1262.80	0	2.7240	0	34.4360	0	27.467	0	1248.431	0	10.1	4	3.1	4	-1E+10	1	-1E+10	1	-1E+10	1	-1E+10	1	-1E+10	1	-1E+10	1
4902549	14	C	12/27/2020	09:07	-134.301	47.851	0	1287.70	0	2.6830	0	34.4440	0	27.477	0	1272.973	0	10.7	4	3.3	4	-1E+10	1	-1E+10	1	-1E+10	1	-1E+10	1	-1E+10	1	-1E+10	1
4902549	14	C	12/27/2020	09:07	-134.301	47.851	0	1313.10	0	2.6460	0	34.4510	0	27.486	0	1298.004	0	11.3	4	3.5	4	-1E+10	1	-1E+10	1	-1E+10	1	-1E+10	1	-1E+10	1	-1E+10	1
4902549	14	C	12/27/2020	09:07	-134.301	47.851	0	1337.70	0	2.6050	0	34.4590	0	27.496	0	1322.244	0	12.3	4	3.7	4	-1E+10	1	-1E+10	1	-1E+10	1	-1E+10	1	-1E+10	1	-1E+10	1
4902549	14	C	12/27/2020	09:07	-134.301	47.851	0	1362.80	0	2.5640	0	34.4670	0	27.506	0	1346.974	0	13.3	4	4.1	4	-1E+10	1	-1E+10	1	-1E+10	1	-1E+10	1	-1E+10	1	-1E+10	1
4902549	14	C	12/27/2020	09:07	-134.301	47.851	0	1387.90	0	2.5270	0	34.4750	0	27.516	0	1371.701	0	14.6	4	4.4	4	-1E+10	1	-1E+10	1	-1E+10	1	-1E+10	1	-1E+10	1	-1E+10	1
4902549	14	C	12/27/2020	09:07	-134.301	47.851	0	1412.50	0	2.4950	0	34.4820	0	27.524	0	1395.932	0	15.8	4	4.8	4	-1E+10	1	-1E+10	1	-1E+10	1	-1E+10	1	-1E+10	1	-1E+10	1
4902549	14	C	12/27/2020	09:07	-134.301	47.851	0	1437.40	0	2.4590	0	34.4880	0	27.532	0	1420.457	0	16.9	4	5.2	4	-1E+10	1	-1E+10	1	-1E+10	1	-1E+10	1	-1E+10	1	-1E+10	1
4902549	14	C	12/27/2020	09:07	-134.301	47.851	0	1462.90	0	2.4230	0	34.4940	0	27.540	0	1445.569	0	18.2	4	5.5	4	-1E+10	1	-1E+10	1	-1E+10	1	-1E+10	1	-1E+10	1	-1E+10	1
4902549	14	C	12/27/2020	09:07	-134.301	47.851	0	1487.70	0	2.3910	0	34.4990	0	27.547	0	1469.989	0	19.3	4	5.9	4	-1E+10	1	-1E+10	1	-1E+10	1	-1E+10	1	-1E+10	1	-1E+10	1
4902549	14	C	12/27/2020	09:07	-134.301	47.851	0	1512.60	0	2.3570	0	34.5050	0	27.555	0	1494.504	0	20.8	4	6.3	4	-1E+10	1	-1E+10	1	-1E+10	1	-1E+10	1	-1E+10	1	-1E+10	1
4902549	14	C	12/27/2020	09:07	-134.301	47.851	0	1537.80	0	2.3270	0	34.5100	0	27.561	0	1519.312	0	22.1	4	6.7	4	-1E+10	1	-1E+10	1	-1E+10	1	-1E+10	1	-1E+10	1	-1E+10	1
4902549	14	C	12/27/2020	09:07	-134.301	47.851	0	1562.80	0	2.2990	0	34.5150	0	27.568	0	1543.921	0	23.4	4	7.1	4	-1E+10	1	-1E+10	1	-1E+10	1	-1E+10	1	-1E+10	1	-1E+10	1
4902549	14	C	12/27/2020	09:07	-134.301	47.851	0	1587.80	0	2.2690	0	34.5200	0	27.574	0	1568.526	0	24.6	4	7.5	4	-1E+10	1	-1E+10	1	-1E+10	1	-1E+10	1	-1E+10	1	-1E+10	1
4902549	14	C	12/27/2020	09:07	-134.301	47.851	0	1613.20	0	2.2460	0	34.5240	0	27.579	0	1593.522	0	26.1	4	7.9	4	-1E+10	1	-1E+10	1	-1E+10	1	-1E+10	1	-1E+10	1	-1E+10	1
4902549	14	C	12/27/2020	09:07	-134.301	47.851	0	1638.10	0	2.2140	0	34.5300	0	27.587	0	1618.023	0	27.9	4	8.5	4	-1E+10	1	-1E+10	1	-1E+10	1	-1E+10	1	-1E+10	1	-1E+10	1
4902549	14	C	12/27/2020	09:07	-134.301	47.851	0	1663.70	0	2.1870	0	34.5340	0	27.592	0	1643.210	0	29.4	4	8.9	4	-1E+10	1	-1E+10	1	-1E+10	1	-1E+10	1	-1E+10	1	-1E+10	1
4902549	14	C	12/27/2020	09:07	-134.301	47.851	0	1687.70	0	2.1700	0	34.5380	0	27.597	0	1666.820	0	30.7	4	9.3	4	-1E+10	1	-1E+10	1	-1E+10	1	-1E+10	1	-1E+10	1	-1E+10	1
4902549	14	C	12/27/2020	09:07	-134.301	47.851	0	1712.90	0	2.1420	0	34.5430	0	27.603	0	1691.608	0	32.8	4	9.9	4	-1E+10	1	-1E+10	1	-1E+10	1	-1E+10	1	-1E+10	1	-1E+10	1
4902549	14	C	12/27/2020	09:07	-134.301	47.851	0	1738.10	0	2.1120	0	34.5490	0	27.611	0	1716.393	0	34.9	4	10.6	4	-1E+10	1	-1E+10	1	-1E+10	1	-1E+10	1	-1E+10	1	-1E+10	1
4902549	14	C	12/27/2020	09:07	-134.301	47.851	0	1762.80	0	2.0900	0	34.5530	0	27.616	0	1740.683	0	36.5	4	11.0	4	-1E+10	1	-1E+10	1	-1E+10	1	-1E+10	1	-1E+10	1	-1E+10	1
4902549	14	C	12/27/2020	09:07	-134.301	47.851	0	1787.60	0	2.0710	0	34.5570	0	27.621	0	1765.069	0	38.2	4	11.5	4	-1E+10	1	-1E+10	1	-1E+10	1	-1E+10	1	-1E+10	1	-1E+10	1
4902549	14	C	12/27/2020	09:07	-134.301	47.851	0	1812.70	0	2.0480	0	34.5610	0	27.626	0	1789.747	0	40.0	4	12.1	4	-1E+10	1	-1E+10	1	-1E+10	1	-1E+10	1	-1E+10	1	-1E+10	1
4902549	14	C	12/27/2020	09:07	-134.301	47.851	0	1838.20	0	2.0300	0	34.5650	0	27.631	0	1814.815	0	41.4	4	12.5	4	-1E+10	1	-1E+10	1	-1E+10	1	-1E+10	1	-1E+10	1	-1E+10	1
4902549	14	C	12/27/2020	09:07	-134.301	47.851	0	1862.60	0	2.0100	0	34.5690	0	27.635	0	1838.800	0	42.8	4	12.9	4	-1E+10	1	-1E+10	1	-1E+10	1	-1E+10	1	-1E+10	1	-1E+10	1
4902549	14	C	12/27/2020	09:07	-134.301	47.851	0	1887.70	0	1.9950	0	34.5720	0	27.639	0	1863.469	0	44.2	4	13.3	4	-1E+10	1	-1E+10	1	-1E+10	1	-1E+10	1	-1E+10	1	-1E+10	1
4902549	14	C	12/27/2020	09:07	-134.301	47.851	0	1912.90	0	1.9820	0	34.5750	0	27.643	0	1888.234	0	45.4	4	13.7	4	-1E+10	1	-1E+10	1	-1E+10	1	-1E+10	1	-1E+10	1	-1E+10	1
4902549	14	C	12/27/2020	09:07	-134.301	47.851	0	1938.00	0	1.9640	0	34.5780	0	27.647	0	1912.897	0	47.1	4	14.2	4	-1E+10	1	-1E+10	1	-1E+10	1	-1E+10	1	-1E+10	1	-1E+10	1
4902549	14	C	12/27/2020	09:07	-134.301	47.851	0	1963.10	0	1.9480	0	34.5820	0	27.651	0	1937.558	0	48.2	4	14.5	4	-1E+10	1	-1E+10	1	-1E+10	1	-1E+10	1	-1E+10	1	-1E+10	1
4902549	14	C	12/27/2020	09:07	-134.301	47.851	0	1988.10	0	1.9400	0	34.5840	0	27.654	0	1962.118	0	49.1	4	14.8	4	-1E+10	1	-1E+10	1	-1E+10	1	-1E+10	1	-1E+10	1	-1E+10	1
4902549	14	C	12/27/2020	09:07	-134.301	47.851	0	2012.60	0	1.9280	0	34.5860	0	27.656	0	1986.184	0	49.6	4	14.9	4	-1E+10	1	-1E+10	1	-1E+10	1	-1E+10	1	-1E+10	1	-1E+10	1
4902549	14	C	12/27/2020	09:07	-134.301	47.851	0																										
4902549	15	C	01/06/2021	09:05	-134.165	47.722	0	2.00	0	9.6060	0	32.2890	0	24.900	0	1.983	0	264.7	4	93.7	4	-1E+10	1	-1E+10	1	-1E+10	1	-1E+10	1	-1E+10	1	-1E+10	1
4902549	15	C	01/06/2021	09:05	-134.165	47.722	0	3.10	0	9.6080	0	32.2890	0	24.900	0	3.074	0	264.6	4	93.7	4	-1E+10	1	-1E+10	1	-1E+10	1	-1E+10	1	-1E+10	1	-1E+10	1
4902549	15	C	01/06/2021	09:05	-134.165	47.722	0	4.00	0	9.6100	0	32.2890	0	24.900	0	3.966	0	264.6	4	93.7	4	-1E+10	1	-1E+10	1	-1E+10	1	-1E+10	1	-1E+10	1	-1E+10	1
4902549	15	C	01/06/2021	09:05	-134.165	47.722	0	5.00	0	9.6100	0	32.2890	0	24.900	0	4.958	0	264.5	4	93.6	4	-1E+10	1	-1E+10	1	-1E+10	1	-1E+10	1	-1E+10	1	-1E+10	1
4902549	15	C	01/06/2021	09:05	-134.165	47.722	0	5.90	0	9.6110	0	32.2890	0	24.900	0	5.851	0	264.5	4	93.7	4	-1E+10	1	-1E+10	1	-1E+10	1	-1E+10	1	-1E+10	1	-1E+10	1
4902549	15	C	01/06/2021	09:05	-134.165	47.722	0	7.20	0	9.6110	0	32.2890	0	24.900	0	7.140	0	264.4	4	93.6	4	-1E+10	1	-1E+10	1	-1E+10	1	-1E+10	1	-1E+10	1	-1E+10	1
4902549	15	C	01/06/2021	09:05	-134.165	47.722	0	7.90	0	9.6110	0	32.2890	0	24.900	0	7.834	0	264.4	4	93.6	4	-1E+10	1	-1E+10	1	-1E+10	1	-1E+10	1	-1E+10	1	-1E+10	1
4902549	15	C	01/06/2021	09:05	-134.165	47.722	0	9.10	0	9.6110	0	32.2890	0	24.900	0	9.024	0	264.3	4	93.6	4	-1E+10	1	-1E+10	1	-1E+10	1	-1E+10	1	-1E+10	1	-1E+10	1
4902549	15	C	01/06/2021	09:05	-134.165	47.722	0	10.10	0	9.6110	0	32.2890	0	24.900	0	10.015	0	264.4	4	93.6	4	-1E+10	1	-1E+10	1	-1E+10	1	-1E+10	1	-1E+10	1	-1E+10	1
4902549	15	C	01/06/2021	09:05	-134.165	47.722	0	15.40	0	9.6110	0	32.2890	0	24.900	0	15.271	0	264.2	4	93.6	4	-1E+10	1	-1E+10	1	-1E+10	1	-1E+10	1	-1E+10	1	-1E+10	1
4902549	15	C	01/06/2021	09:05	-134.165	47.722	0	25.30	0	9.6120	0	32.2890	0	24.900	0	25.087	0	264.1	4	93.5	4	-1E+10	1	-1E+10	1	-1E+10	1	-1E+10	1	-1E+10	1	-1E+10	1
4902549	15	C	01/06/2021	09:05	-134.165	47.722	0	35.30	0	9.6150	0	32.2890	0	24.900	0	35.002	0	263.9	4	93.5	4	-1E+10	1	-1E+10	1	-1E+10	1	-1E+10	1	-1E+10	1	-1E+10	1
4902549	15	C	01/06/2021	09:05	-134.165	47.722	0	45.60	0	9.6160	0	32.2890	0	24.900	0	45.214	0	263.8	4	93.4	4	-1E+10	1	-1E+10	1	-1E+10	1	-1E+10	1	-1E+10	1	-1E+10	1
4902549	15	C	01/06/2021	09:05	-134.165	47.722	0	55.30	0	9.6160	0	32.2880	0	24.899	0	54.830	0	263.6	4	93.4	4	-1E+10	1	-1E+10	1	-1E+10	1	-1E+10	1	-1E+10	1	-1E+10	1
4902549	15	C	01/06/2021	09:05	-134.165	47.722	0	65.50	0	9.6150	0	32.2890	0	24.900	0	64.942	0	263.2	4	93.2	4	-1E+10	1	-1E+10	1	-1E+10	1	-1E+10	1	-1E+10	1	-1E+10	1
4902549	15	C	01/06/2021	09:05	-134.165	47.722	0	75.50	0	9.6140	0	32.2890	0	24.900	0	74.855	0	262.5	4	93.0	4	-1E+10	1	-1E+10	1	-1E+10	1	-1E+10	1	-1E+10	1	-1E+10	1
4902549	15	C	01/06/2021	09:05	-134.165	47.722	0	85.40	0	9.6150	0	32.2900	0	24.901	0	84.668	0	260.9	4	92.4	4	-1E+10	1	-1E+10	1	-1E+10	1	-1E+10	1	-1E+10	1	-1E+10	1
4902549	15	C	01/06/2021	09:05	-134.165	47.722	0	95.40	0	9.5910	0	32.2970	0	24.911	0	94.580	0	256.0	4	90.6	4	-1E+10	1	-1E+10	1	-1E+10	1	-1E+10	1	-1E+10	1	-1E+10	1
4902549	15	C	01/06/2021	09:05	-134.165	47.722	0	105.20	0	8.3390	0	32.5000	0	25.263	0	104.293	0	239.0	4	82.4	4	-1E+10	1	-1E+10	1	-1E+10	1	-1E+10	1	-1E+10	1	-1E+10	1
4902549	15	C	01/06/2021	09:05	-134.165	47.722	0	115.50	0	7.4310	0	32.7680	0	25.604	0	114.502	0	225.6	4	76.4	4	-1E+10	1	-1E+10	1	-1E+10	1	-1E+10	1	-1E+10	1	-1E+10	1
4902549	15	C	01/06/2021	09:05	-134.165	47.722	0	125.70	0	7.2040	0	32.9610	0	25.787	0	124.610	0	212.2	4	71.6	4	-1E+10	1	-1E+10	1	-1E+10	1	-1E+10	1	-1E+10	1	-1E+10	1
4902549	15	C	01/06/2021	09:05	-134.165	47.722	0	135.10	0	7.0170	0	33.1680	0	25.975	0	133.926	0	203.4	4	68.4	4	-1E+10	1	-1E+10	1	-1E+10	1	-1E+10	1	-1E+10	1	-1E+10	1
4902549	15	C	01/06/2021	09:05	-134.165	47.722	0	145.30	0	6.8510	0	33.2870	0	26.091	0	144.034	0	197.4	4	66.2	4	-1E+10	1	-1E+10	1	-1E+10	1	-1E+10	1	-1E+10	1	-1E+10	1
4902549	15	C	01/06/2021	09:05	-134.165	47.722	0	155.00	0	6.7090	0	33.3930	0	26.194	0	153.646	0	191.3	4	64.0	4	-1E+10	1	-1E+10	1	-1E+10	1	-1E+10	1	-1E+10	1	-1E+10	1
4902549	15	C	01/06/2021	09:05	-134.165	47.722	0	165.30	0	6.5620	0	33.5050	0	26.302	0	163.851	0	183.8	4	61.3	4	-1E+10	1	-1E+10	1	-1E+10	1	-1E+10	1	-1E+10	1	-1E+10	1
4902549	15	C	01/06/2021	09:05	-134.165	47.722	0	175.60	0	6.4600	0	33.6080	0	26.396	0	174.057	0	175.3	4	58.4	4	-1E+10	1	-1E+10	1	-1E+10	1	-1E+10	1	-1E+10	1	-1E+10	1
4902549	15	C	01/06/2021	09:05	-134.165	47.722	0	185.40	0	6.3860	0	33.6710	0	26.456	0	183.766	0	167.5	4	55.7	4	-1E+10	1	-1E+10	1	-1E+10	1	-1E+10	1	-1E+10	1	-1E+10	1
4902549	15	C	01/06/2021	09:05	-134.165	47.722	0	195.30	0	6.3270	0	33.7150	0	26.498	0	193.575	0	160.4	4	53.3	4	-1E+10	1	-1E+10	1	-1E+10	1	-1E+10	1	-1E+10	1	-1E+10	1
4902549	15	C	01/06/2021	09:05	-134.165	47.722	0	213.30	0	6.1900	0	33.7650	0	26.555	0	211.406	0	149.1	4	49.4	4	-1E+10	1	-1E+10	1	-1E+10	1	-1E+10	1	-1E+10	1	-1E+10	1
4902549	15	C	01/06/2021	09:05	-134.165	47.722	0	237.30	0	5.9950	0	33.8080	0	26.614	0	235.180	0	135.9	4	44.8	4	-1E+10	1	-1E+10	1	-1E+10	1	-1E+10	1	-1E+10	1	-1E+10	1
4902549	15	C	01/06/2021	09:05	-134.165	47.722	0	262.50	0	5.7750	0	33.8330	0	26.661	0	260.139	0	123.0	4	40.4	4	-1E+10	1	-1E+10	1	-1E+10	1	-1E+10	1	-1E+10	1	-1E+10	1
4902549	15	C	01/06/2021	09:05	-134.165	47.722	0	287.80	0	5.5200	0	33.8490	0	26.705	0	285.194	0	110.2	4	36.0	4	-1E+10	1	-1E+10	1	-1E+10	1	-1E+10	1	-1E+10	1	-1E+10	1
4902549	15	C	01/06/2021	09:05	-134.165	47.722	0	313.10	0	5.2980	0	33.8660	0	26.745	0	310.245	0	97.0	4	31.5	4	-1E+10	1	-1E+10	1	-1E+10	1	-1E+10	1	-1E+10	1	-1E+10	1
4902549	15	C	01/06/2021	09:05	-134.165	47.722	0	338.30	0	5.1260	0	33.8830	0	26.778	0	335.195	0	85.9	4	27.8	4	-1E+10	1	-1E+10	1	-1E+10	1	-1E+10	1	-1E+10	1	-1E+10	1
4902549	15	C	01/06/2021	09:05	-134.165	47.722	0	363.20	0	4.9130	0	33.8950	0	26.812	0	359.845	0	75.9	4	24.4	4	-1E+10	1	-1E+10	1	-1E+10	1	-1E+10	1	-1E+10	1	-1E+10	1
4902549	15	C	01/06/2021	09:05	-134.165	47.722	0	388.00	0	4.7050	0	33.9120	0	26.849	0	384.393	0	67.7	4	21.7	4	-1E+10	1	-1E+10	1	-1E+10	1	-1E+10	1	-1E+10	1	-1E+10	1
4902549	15	C	01/06/2021	09:05	-134.165	47.722	0	412.30	0	4.5490	0	33.9320	0	26.882	0	408.443	0	61.0	4	19.5	4	-1E+10	1	-1E+10	1	-1E+10	1	-1E+10	1	-1E+10	1	-1E+10	1
4902549	15	C	01/06/2021	09:05	-134.165	47.722	0	437.90	0	4.4620	0	33.9600	0	26.914	0	433.777	0	53.5	4	17.1	4	-1E+10	1	-1E+10	1	-1E+10	1	-1E+10	1	-1E+10	1	-1E+10	1
4902549	15	C	01/06/2021	09:05	-134.165	47.722	0	462.90	0	4.3730	0	33.9970	0	26.953	0	458.514	0	46.2	4	14.7	4	-1E+10	1	-1E+10	1	-1E+10	1	-1E+10	1	-1E+10	1	-1E+10	1
4902549	15	C	01/06/2021	09:05	-134.165	47.722	0	487.80	0	4.3170	0	34.0210	0	26.978	0	483.149	0	41.9	4	13.3	4	-1E+10	1	-1E+10	1	-1E+10	1	-1E+10	1	-1E+10	1	-1E+10	1
4902549	15	C	01/06/2021	09:05	-134.165	47.722	0	512.60	0	4.2510	0	34.0420	0	27.002	0	507.683	0	37.8	4	12.0	4	-1E+10	1	-1E+10	1	-1E+10	1	-1E+10	1	-1E+10	1	-1E+10	1
4902549	15	C	01/06/2021	09:05	-134.165	47.722	0	537.50	0	4.1780	0	34.0650	0	27.028	0	532.312	0	33.2	4	10.5	4	-1E+10	1	-1E+10	1	-1E+10	1	-1E+10	1	-1E+10	1	-1E+10	1
4902549	15	C	01/06/2021	09:05	-134.165	47.722	0	562.60	0	4.1100	0	34.0900	0	27.055	0	557.136	0	29.1	4	9.2	4	-1E+10	1	-1E+10	1	-1E+10	1	-1E+10	1	-1E+10	1	-1E+10	1
4902549	15	C	01/06/2021	09:05	-134.165	47.722	0	588.90	0	4.0370	0	34.1090	0	27.078	0	583.144	0	26.4	4	8.3	4	-1E+10	1	-1E+10	1	-1E+10	1	-1E+10	1	-1E+10	1	-1E+10	1
4902549	15	C	01/06/2021	09:05	-134.165	47.722	0	612.80	0	3.9710	0	34.1280	0	27.100	0	606.775	0	23.9	4	7.5	4	-1E+10	1	-1E+10	1	-1E+10	1	-1E+10	1	-1E+10	1	-1E+10	1
4902549	15	C	01/06/2021	09:05	-134.165	47.722	0	637.80	0	3.9150	0	34.1450	0	27.119	0	631.492	0	21.7	4	6.8	4	-1E+10	1	-1E+10	1	-1E+10	1	-1E+10	1	-1E+10	1	-1E+10	1
4902549	15	C	01/06/2021	09:05	-134.165	47.722	0	662.80	0	3.8700	0	34.1590	0	27.135	0	656.205	0	19.7	4	6.2	4	-1E+10	1	-1E+10	1	-1E+10	1	-1E+10	1	-1E+10	1	-1E+10	1
4902549	15	C	01/06/2021	09:05	-134.165	47.722	0	687.60	0	3.8120	0	34.1770	0	27.156	0	680.718	0	17.8	4	5.6	4	-1E+10	1	-1E+10	1	-1E+10	1	-1E+10	1	-1E+10	1	-1E+10	1
4902549	15	C	01/06/2021	09:05	-134.165	47.722	0	713.00	0	3.7670	0	34.1900	0	27.171	0	705.821	0	16.4	4	5.2	4	-1E+10	1	-1E+10	1	-1E+10	1	-1E+10	1	-1E+10	1	-1E+10	1
4902549	15	C	01/06/2021	09:05	-134.165	47.722	0	738.30	0	3.7120	0	34.2070	0	27.190	0	730.821	0	14.4	4	4.5	4	-1E+10	1	-1E+10	1	-1E+10	1	-1E+10	1	-1E+10	1	-1E+10	1
4902549	15	C	01/06/2021	09:05	-134.165	47.722	0	763.10	0	3.6580	0	34.2270	0	27.211	0	755.325	0	12.1	4	3.8	4	-1E+10	1	-1E+10	1	-1E+10	1	-1E+10	1	-1E+10	1	-1E+10	1
4902549	15	C	01/06/2021	09:05	-134.165	47.722	0	787.90	0	3.6430	0	34.2510	0	27.232	0	779.826	0	10.0	4	3.1	4	-1E+10	1	-1E+10	1	-1E+10	1	-1E+10	1	-1E+10	1	-1E+10	1
4902549	15	C	01/06/2021	09:05	-134.165	47.722	0	813.00	0	3.5650	0	34.2650	0	27.251	0	804.621	0	9.6	4	3.0	4	-1E+10	1	-1E+10	1	-1E+10	1	-1E+10	1	-1E+10	1	-1E+10	1
4902549	15	C	01/06/2021	09:05	-134.165	47.722	0	839.00	0	3.4990	0	34.2770	0	27.267	0	830.301	0	9.2	4	2.9	4	-1E+10	1	-1E+10	1	-1E+10	1	-1E+10	1	-1E+10	1	-1E+10	1
4902549	15	C	01/06/2021	09:05	-134.165	47.722	0	862.90	0	3.4230	0	34.2870	0	27.282	0	853.905	0	9.3	4	2.9	4	-1E+10	1	-1E+10	1	-1E+10	1	-1E+10	1	-1E+10	1	-1E+10	1
4902549	15	C	01/06/2021	09:05	-134.165	47.722	0	887.50	0	3.3600	0	34.2980	0	27.297	0	878.197	0	9.1	4	2.8	4	-1E+10	1	-1E+10	1	-1E+10	1	-1E+10	1	-1E+10	1	-1E+10	1
4902549	15	C	01/06/2021	09:05	-134.165	47.722	0	912.70	0	3.2980	0	34.3110	0	27.313	0	903.078	0	8.8	4	2.7	4	-1E+10	1	-1E+10	1	-1E+10	1	-1E+10	1	-1E+10	1	-1E+10	1
4902549	15	C	01/06/2021	09:05	-134.165	47.722	0	937.80	0	3.2450	0	34.3230	0	27.328	0	927.858	0	8.8	4	2.7	4	-1E+10	1	-1E+10	1	-1E+10	1	-1E+10	1	-1E+10	1	-1E+10	1
4902549	15	C	01/06/2021	09:05	-134.165	47.722	0	962.60	0	3.1960	0	34.3330	0	27.341	0	952.339	0	8.7	4	2.7	4	-1E+10	1	-1E+10	1	-1E+10	1	-1E+10	1	-1E+10	1	-1E+10	1
4902549	15	C	01/06/2021	09:05	-134.165	47.722	0	987.80	0	3.1460	0	34.3440	0	27.354	0	977.211	0	8.5	4	2.6	4	-1E+10	1	-1E+10	1	-1E+10	1	-1E+10	1	-1E+10	1	-1E+10	1
4902549	15	C	01/06/2021	09:05	-134.165	47.722	0	1012.90	0	3.0930	0	34.3540	0	27.367	0	1001.982	0	8.5	4	2.6	4	-1E+10	1	-1E+10	1	-1E+10	1	-1E+10	1	-1E+10	1	-1E+10	1
4902549	15	C	01/06/2021	09:05	-134.165	47.722	0	1038.50	0	3.0490	0	34.3630	0	27.379	0	1027.244	0	8.4	4	2.6	4	-1E+10	1	-1E+10	1	-1E+10	1	-1E+10	1	-1E+10	1	-1E+10	1
4902549	15	C	01/06/2021	09:05	-134.165	47.722	0	1062.70	0	3.0060	0	34.3740	0	27.391	0	1051.121	0	8.3	4	2.6	4	-1E+10	1	-1E+10	1	-1E+10	1	-1E+10	1	-1E+10	1	-1E+10	1
4902549	15	C	01/06/2021	09:05	-134.165	47.722	0	1087.70	0	2.9670	0	34.3840	0	27.403	0	1075.784	0	8.2	4	2.5	4	-1E+10	1	-1E+10	1	-1E+10	1	-1E+10	1	-1E+10	1	-1E+10	1
4902549	15	C	01/06/2021	09:05	-134.165	47.722	0	1112.60	0	2.9290	0	34.3920	0	27.413	0	1100.346	0	8.3	4	2.6	4	-1E+10	1	-1E+10	1	-1E+10	1	-1E+10	1	-1E+10	1	-1E+10	1
4902549	15	C	01/06/2021	09:05	-134.165	47.722	0	1137.70	0	2.8920	0	34.4010	0	27.424	0	1125.102	0	8.4	4	2.6	4	-1E+10	1	-1E+10	1	-1E+10	1	-1E+10	1	-1E+10	1	-1E+10	1
4902549	15	C	01/06/2021	09:05	-134.165	47.722	0	1162.70	0	2.8490	0	34.4100	0	27.435	0	1149.757	0	8.7	4	2.7	4	-1E+10	1	-1E+10	1	-1E+10	1	-1E+10	1	-1E+10	1	-1E+10	1
4902549	15	C	01/06/2021	09:05	-134.165	47.722	0	1187.50	0	2.8120	0	34.4180	0	27.445	0	1174.212	0	9.0	4	2.8	4	-1E+10	1	-1E+10	1	-1E+10	1	-1E+10	1	-1E+10	1	-1E+10	1
4902549	15	C	01/06/2021	09:05	-134.165	47.722	0	1212.70	0	2.7810	0	34.4250	0	27.453	0	1199.058	0	9.3	4	2.9	4	-1E+10	1	-1E+10	1	-1E+10	1	-1E+10	1	-1E+10	1	-1E+10	1
4902549	15	C	01/06/2021	09:05	-134.165	47.722	0	1237.60	0	2.7420	0	34.4320	0	27.462	0	1223.606	0	9.7	4	3.0	4	-1E+10	1	-1E+10	1	-1E+10	1	-1E+10	1	-1E+10	1	-1E+10	1
4902549	15	C	01/06/2021	09:05	-134.165	47.722	0	1262.60	0	2.7130	0	34.4380	0	27.470	0	1248.249	0	10.1	4	3.1	4	-1E+10	1	-1E+10	1	-1E+10	1	-1E+10	1	-1E+10	1	-1E+10	1
4902549	15	C	01/06/2021	09:05	-134.165	47.722	0	1287.80	0	2.6780	0	34.4440	0	27.478	0	1273.086	0	10.7	4	3.3	4	-1E+10	1	-1E+10	1	-1E+10	1	-1E+10	1	-1E+10	1	-1E+10	1
4902549	15	C	01/06/2021	09:05	-134.165	47.722	0	1313.20	0	2.6450	0	34.4510	0	27.486	0	1298.118	0	11.3	4	3.5	4	-1E+10	1	-1E+10	1	-1E+10	1	-1E+10	1	-1E+10	1	-1E+10	1
4902549	15	C	01/06/2021	09:05	-134.165	47.722	0	1338.20	0	2.6060	0	34.4580	0	27.495	0	1322.752	0	12.0	4	3.7	4	-1E+10	1	-1E+10	1	-1E+10	1	-1E+10	1	-1E+10	1	-1E+10	1
4902549	15	C	01/06/2021	09:05	-134.165	47.722	0	1363.00	0	2.5770	0	34.4630	0	27.502	0	1347.187	0	12.8	4	3.9	4	-1E+10	1	-1E+10	1	-1E+10	1	-1E+10	1	-1E+10	1	-1E+10	1
4902549	15	C	01/06/2021	09:05	-134.165	47.722	0	1388.10	0	2.5440	0	34.4700	0	27.510	0	1371.914	0	13.7	4	4.2	4	-1E+10	1	-1E+10	1	-1E+10	1	-1E+10	1	-1E+10	1	-1E+10	1
4902549	15	C	01/06/2021	09:05	-134.165	47.722	0	1412.90	0	2.5160	0	34.4760	0	27.518	0	1396.343	0	14.9	4	4.6	4	-1E+10	1	-1E+10	1	-1E+10	1	-1E+10	1	-1E+10	1	-1E+10	1
4902549	15	C	01/06/2021	09:05	-134.165	47.722	0	1438.80	0	2.4750	0	34.4840	0	27.528	0	1421.852	0	16.2	4	4.9	4	-1E+10	1	-1E+10	1	-1E+10	1	-1E+10	1	-1E+10	1	-1E+10	1
4902549	15	C	01/06/2021	09:05	-134.165	47.722	0	1463.10	0	2.4380	0	34.4910	0	27.536	0	1445.783	0	17.6	4	5.4	4	-1E+10	1	-1E+10	1	-1E+10	1	-1E+10	1	-1E+10	1	-1E+10	1
4902549	15	C	01/06/2021	09:05	-134.165	47.722	0	1487.80	0	2.4030	0	34.4970	0	27.544	0	1470.105	0	18.9	4	5.7	4	-1E+10	1	-1E+10	1	-1E+10	1	-1E+10	1	-1E+10	1	-1E+10	1
4902549	15	C	01/06/2021	09:05	-134.165	47.722	0	1512.60	0	2.3690	0	34.5030	0	27.552	0	1494.522	0	20.3	4	6.2	4	-1E+10	1	-1E+10	1	-1E+10	1	-1E+10	1	-1E+10	1	-1E+10	1
4902549	15	C	01/06/2021	09:05	-134.165	47.722	0	1537.70	0	2.3440	0	34.5080	0	27.558	0	1519.232	0	21.6	4	6.6	4	-1E+10	1	-1E+10	1	-1E+10	1	-1E+10	1	-1E+10	1	-1E+10	1
4902549	15	C	01/06/2021	09:05	-134.165	47.722	0	1562.70	0	2.3140	0	34.5130	0	27.565	0	1543.840	0	23.1	4	7.0	4	-1E+10	1	-1E+10	1	-1E+10	1	-1E+10	1	-1E+10	1	-1E+10	1
4902549	15	C	01/06/2021	09:05	-134.165	47.722	0	1587.70	0	2.2740	0	34.5200	0	27.574	0	1568.446	0	24.8	4	7.5	4	-1E+10	1	-1E+10	1	-1E+10	1	-1E+10	1	-1E+10	1	-1E+10	1
4902549	15	C	01/06/2021	09:05	-134.165	47.722	0	1612.70	0	2.2440	0	34.5250	0	27.580	0	1593.049	0	26.5	4	8.0	4	-1E+10	1	-1E+10	1	-1E+10	1	-1E+10	1	-1E+10	1	-1E+10	1
4902549	15	C	01/06/2021	09:05	-134.165	47.722	0	1637.70	0	2.2150	0	34.5300	0	27.587	0	1617.649	0	28.0	4	8.5	4	-1E+10	1	-1E+10	1	-1E+10	1	-1E+10	1	-1E+10	1	-1E+10	1
4902549	15	C	01/06/2021	09:05	-134.165	47.722	0	1663.30	0	2.1860	0	34.5350	0	27.593	0	1642.836	0	29.5	4	8.9	4	-1E+10	1	-1E+10	1	-1E+10	1	-1E+10	1	-1E+10	1	-1E+10	1
4902549	15	C	01/06/2021	09:05	-134.165	47.722	0	1687.70	0	2.1630	0	34.5390	0	27.598	0	1666.840	0	31.0	4	9.4	4	-1E+10	1	-1E+10	1	-1E+10	1	-1E+10	1	-1E+10	1	-1E+10	1
4902549	15	C	01/06/2021	09:05	-134.165	47.722	0	1712.70	0	2.1380	0	34.5440	0	27.605	0	1691.432	0	32.7	4	9.9	4	-1E+10	1	-1E+10	1	-1E+10	1	-1E+10	1	-1E+10	1	-1E+10	1
4902549	15	C	01/06/2021	09:05	-134.165	47.722	0	1737.60	0	2.1190	0	34.5480	0	27.609	0	1715.922	0	34.1	4	10.3	4	-1E+10	1	-1E+10	1	-1E+10	1	-1E+10	1	-1E+10	1	-1E+10	1
4902549	15	C	01/06/2021	09:05	-134.165	47.722	0	1762.50	0	2.0910	0	34.5530	0	27.616	0	1740.409	0	36.1	4	10.9	4	-1E+10	1	-1E+10	1	-1E+10	1	-1E+10	1	-1E+10	1	-1E+10	1
4902549	15	C	01/06/2021	09:05	-134.165	47.722	0	1787.80	0	2.0690	0	34.5570	0	27.621	0	1765.287	0	37.7	4	11.4	4	-1E+10	1	-1E+10	1	-1E+10	1	-1E+10	1	-1E+10	1	-1E+10	1
4902549	15	C	01/06/2021	09:05	-134.165	47.722	0	1812.90	0	2.0500	0	34.5610	0	27.626	0	1789.965	0	39.2	4	11.8	4	-1E+10	1	-1E+10	1	-1E+10	1	-1E+10	1	-1E+10	1	-1E+10	1
4902549	15	C	01/06/2021	09:05	-134.165	47.722	0	1837.40	0	2.0350	0	34.5640	0	27.629	0	1814.051	0	40.5	4	12.2	4	-1E+10	1	-1E+10	1	-1E+10	1	-1E+10	1	-1E+10	1	-1E+10	1
4902549	15	C	01/06/2021	09:05	-134.165	47.722	0	1862.90	0	2.0180	0	34.5670	0	27.633	0	1839.116	0	41.8	4	12.6	4	-1E+10	1	-1E+10	1	-1E+10	1	-1E+10	1	-1E+10	1	-1E+10	1
4902549	15	C	01/06/2021	09:05	-134.165	47.722	0	1888.00	0	1.9990	0	34.5710	0	27.638	0	1863.786	0	43.5	4	13.1	4	-1E+10	1	-1E+10	1	-1E+10	1	-1E+10	1	-1E+10	1	-1E+10	1
4902549	15	C	01/06/2021	09:05	-134.165	47.722	0	1912.80	0	1.9830	0	34.5750	0	27.643	0	1888.158	0	44.8	4	13.5	4	-1E+10	1	-1E+10	1	-1E+10	1	-1E+10	1	-1E+10	1	-1E+10	1
4902549	15	C	01/06/2021	09:05	-134.165	47.722	0	1937.60	0	1.9720	0	34.5770	0	27.645	0	1912.527	0	45.8	4	13.8	4	-1E+10	1	-1E+10	1	-1E+10	1	-1E+10	1	-1E+10	1	-1E+10	1
4902549	15	C	01/06/2021	09:05	-134.165	47.722	0	1962.50	0	1.9620	0	34.5790	0	27.648	0	1936.992	0	46.7	4	14.1	4	-1E+10	1	-1E+10	1	-1E+10	1	-1E+10	1	-1E+10	1	-1E+10	1
4902549	15	C	01/06/2021	09:05	-134.165	47.722	0	1987.90	0	1.9490	0	34.5820	0	27.651	0	1961.945	0	47.8	4	14.4	4	-1E+10	1	-1E+10	1	-1E+10	1	-1E+10	1	-1E+10	1	-1E+10	1
4902549	15	C	01/06/2021	09:05	-134.165	47.722	0	2009.10	0	1.9390	0	34.5840	0	27.654	0	1982.769	0	48.2	4	14.5	4	-1E+10	1	-1E+10	1	-1E+10	1	-1E+10	1	-1E+10	1	-1E+10	1
4902549	15	C	01/06/2021	09:05	-134.165	47.722	0																										
4902549	16	C	01/16/2021	08:55	-134.013	47.600	0	0.40	0	9.5320	0	32.2900	0	24.913	0	0.397	0	265.9	4	94.0	4	-1E+10	1	-1E+10	1	-1E+10	1	-1E+10	1	-1E+10	1	-1E+10	1
4902549	16	C	01/16/2021	08:55	-134.013	47.600	0	1.30	0	9.5330	0	32.2900	0	24.913	0	1.289	0	266.0	4	94.0	4	-1E+10	1	-1E+10	1	-1E+10	1	-1E+10	1	-1E+10	1	-1E+10	1
4902549	16	C	01/16/2021	08:55	-134.013	47.600	0	2.10	0	9.5330	0	32.2890	0	24.912	0	2.082	0	265.9	4	94.0	4	-1E+10	1	-1E+10	1	-1E+10	1	-1E+10	1	-1E+10	1	-1E+10	1
4902549	16	C	01/16/2021	08:55	-134.013	47.600	0	2.80	0	9.5340	0	32.2890	0	24.912	0	2.777	0	265.9	4	94.0	4	-1E+10	1	-1E+10	1	-1E+10	1	-1E+10	1	-1E+10	1	-1E+10	1
4902549	16	C	01/16/2021	08:55	-134.013	47.600	0	3.80	0	9.5360	0	32.2880	0	24.911	0	3.768	0	265.8	4	94.0	4	-1E+10	1	-1E+10	1	-1E+10	1	-1E+10	1	-1E+10	1	-1E+10	1
4902549	16	C	01/16/2021	08:55	-134.013	47.600	0	4.70	0	9.5330	0	32.2910	0	24.914	0	4.661	0	265.8	4	94.0	4	-1E+10	1	-1E+10	1	-1E+10	1	-1E+10	1	-1E+10	1	-1E+10	1
4902549	16	C	01/16/2021	08:55	-134.013	47.600	0	5.80	0	9.5320	0	32.2910	0	24.914	0	5.751	0	265.8	4	94.0	4	-1E+10	1	-1E+10	1	-1E+10	1	-1E+10	1	-1E+10	1	-1E+10	1
4902549	16	C	01/16/2021	08:55	-134.013	47.600	0	7.00	0	9.5330	0	32.2910	0	24.914	0	6.941	0	265.7	4	93.9	4	-1E+10	1	-1E+10	1	-1E+10	1	-1E+10	1	-1E+10	1	-1E+10	1
4902549	16	C	01/16/2021	08:55	-134.013	47.600	0	7.70	0	9.5330	0	32.2910	0	24.914	0	7.636	0	265.7	4	93.9	4	-1E+10	1	-1E+10	1	-1E+10	1	-1E+10	1	-1E+10	1	-1E+10	1
4902549	16	C	01/16/2021	08:55	-134.013	47.600	0	8.90	0	9.5320	0	32.2910	0	24.914	0	8.825	0	265.6	4	93.9	4	-1E+10	1	-1E+10	1	-1E+10	1	-1E+10	1	-1E+10	1	-1E+10	1
4902549	16	C	01/16/2021	08:55	-134.013	47.600	0	10.00	0	9.5350	0	32.2910	0	24.914	0	9.916	0	265.5	4	93.9	4	-1E+10	1	-1E+10	1	-1E+10	1	-1E+10	1	-1E+10	1	-1E+10	1
4902549	16	C	01/16/2021	08:55	-134.013	47.600	0	15.60	0	9.5430	0	32.2920	0	24.913	0	15.469	0	265.4	4	93.9	4	-1E+10	1	-1E+10	1	-1E+10	1	-1E+10	1	-1E+10	1	-1E+10	1
4902549	16	C	01/16/2021	08:55	-134.013	47.600	0	25.20	0	9.5450	0	32.2920	0	24.913	0	24.988	0	265.3	4	93.8	4	-1E+10	1	-1E+10	1	-1E+10	1	-1E+10	1	-1E+10	1	-1E+10	1
4902549	16	C	01/16/2021	08:55	-134.013	47.600	0	35.10	0	9.5450	0	32.2920	0	24.913	0	34.804	0	265.2	4	93.8	4	-1E+10	1	-1E+10	1	-1E+10	1	-1E+10	1	-1E+10	1	-1E+10	1
4902549	16	C	01/16/2021	08:55	-134.013	47.600	0	45.00	0	9.5430	0	32.2920	0	24.914	0	44.619	0	264.9	4	93.7	4	-1E+10	1	-1E+10	1	-1E+10	1	-1E+10	1	-1E+10	1	-1E+10	1
4902549	16	C	01/16/2021	08:55	-134.013	47.600	0	55.50	0	9.5420	0	32.2910	0	24.913	0	55.029	0	264.7	4	93.6	4	-1E+10	1	-1E+10	1	-1E+10	1	-1E+10	1	-1E+10	1	-1E+10	1
4902549	16	C	01/16/2021	08:55	-134.013	47.600	0	65.50	0	9.5460	0	32.2920	0	24.914	0	64.942	0	264.4	4	93.5	4	-1E+10	1	-1E+10	1	-1E+10	1	-1E+10	1	-1E+10	1	-1E+10	1
4902549	16	C	01/16/2021	08:55	-134.013	47.600	0	75.50	0	9.5460	0	32.2920	0	24.914	0	74.855	0	263.8	4	93.3	4	-1E+10	1	-1E+10	1	-1E+10	1	-1E+10	1	-1E+10	1	-1E+10	1
4902549	16	C	01/16/2021	08:55	-134.013	47.600	0	85.40	0	9.5460	0	32.2920	0	24.914	0	84.669	0	262.0	4	92.7	4	-1E+10	1	-1E+10	1	-1E+10	1	-1E+10	1	-1E+10	1	-1E+10	1
4902549	16	C	01/16/2021	08:55	-134.013	47.600	0	95.20	0	9.4710	0	32.3000	0	24.932	0	94.383	0	257.8	4	91.0	4	-1E+10	1	-1E+10	1	-1E+10	1	-1E+10	1	-1E+10	1	-1E+10	1
4902549	16	C	01/16/2021	08:55	-134.013	47.600	0	105.60	0	9.0840	0	32.3840	0	25.059	0	104.691	0	248.3	4	87.0	4	-1E+10	1	-1E+10	1	-1E+10	1	-1E+10	1	-1E+10	1	-1E+10	1
4902549	16	C	01/16/2021	08:55	-134.013	47.600	0	115.30	0	8.4980	0	32.5050	0	25.244	0	114.305	0	236.3	4	81.8	4	-1E+10	1	-1E+10	1	-1E+10	1	-1E+10	1	-1E+10	1	-1E+10	1
4902549	16	C	01/16/2021	08:55	-134.013	47.600	0	125.30	0	7.8350	0	32.6900	0	25.486	0	124.215	0	222.8	4	76.1	4	-1E+10	1	-1E+10	1	-1E+10	1	-1E+10	1	-1E+10	1	-1E+10	1
4902549	16	C	01/16/2021	08:55	-134.013	47.600	0	135.00	0	7.1110	0	33.0380	0	25.860	0	133.828	0	208.1	4	70.1	4	-1E+10	1	-1E+10	1	-1E+10	1	-1E+10	1	-1E+10	1	-1E+10	1
4902549	16	C	01/16/2021	08:55	-134.013	47.600	0	145.50	0	6.9980	0	33.1630	0	25.974	0	144.233	0	202.2	4	68.0	4	-1E+10	1	-1E+10	1	-1E+10	1	-1E+10	1	-1E+10	1	-1E+10	1
4902549	16	C	01/16/2021	08:55	-134.013	47.600	0	155.70	0	6.8750	0	33.2810	0	26.084	0	154.341	0	196.9	4	66.1	4	-1E+10	1	-1E+10	1	-1E+10	1	-1E+10	1	-1E+10	1	-1E+10	1
4902549	16	C	01/16/2021	08:55	-134.013	47.600	0	165.10	0	6.7260	0	33.4100	0	26.205	0	163.655	0	190.3	4	63.7	4	-1E+10	1	-1E+10	1	-1E+10	1	-1E+10	1	-1E+10	1	-1E+10	1
4902549	16	C	01/16/2021	08:55	-134.013	47.600	0	175.10	0	6.6020	0	33.5230	0	26.311	0	173.563	0	184.4	4	61.6	4	-1E+10	1	-1E+10	1	-1E+10	1	-1E+10	1	-1E+10	1	-1E+10	1
4902549	16	C	01/16/2021	08:55	-134.013	47.600	0	185.40	0	6.5440	0	33.5770	0	26.361	0	183.768	0	180.5	4	60.3	4	-1E+10	1	-1E+10	1	-1E+10	1	-1E+10	1	-1E+10	1	-1E+10	1
4902549	16	C	01/16/2021	08:55	-134.013	47.600	0	195.60	0	6.5020	0	33.6130	0	26.395	0	193.874	0	174.7	4	58.3	4	-1E+10	1	-1E+10	1	-1E+10	1	-1E+10	1	-1E+10	1	-1E+10	1
4902549	16	C	01/16/2021	08:55	-134.013	47.600	0	212.60	0	6.2840	0	33.7120	0	26.501	0	210.715	0	157.2	4	52.2	4	-1E+10	1	-1E+10	1	-1E+10	1	-1E+10	1	-1E+10	1	-1E+10	1
4902549	16	C	01/16/2021	08:55	-134.013	47.600	0	237.50	0	6.0610	0	33.7920	0	26.593	0	235.380	0	139.1	4	46.0	4	-1E+10	1	-1E+10	1	-1E+10	1	-1E+10	1	-1E+10	1	-1E+10	1
4902549	16	C	01/16/2021	08:55	-134.013	47.600	0	263.70	0	5.7570	0	33.8180	0	26.652	0	261.330	0	127.0	4	41.7	4	-1E+10	1	-1E+10	1	-1E+10	1	-1E+10	1	-1E+10	1	-1E+10	1
4902549	16	C	01/16/2021	08:55	-134.013	47.600	0	287.80	0	5.5340	0	33.8370	0	26.694	0	285.197	0	113.3	4	37.0	4	-1E+10	1	-1E+10	1	-1E+10	1	-1E+10	1	-1E+10	1	-1E+10	1
4902549	16	C	01/16/2021	08:55	-134.013	47.600	0	312.90	0	5.3200	0	33.8590	0	26.737	0	310.051	0	100.1	4	32.5	4	-1E+10	1	-1E+10	1	-1E+10	1	-1E+10	1	-1E+10	1	-1E+10	1
4902549	16	C	01/16/2021	08:55	-134.013	47.600	0	338.30	0	5.1390	0	33.8750	0	26.771	0	335.199	0	88.8	4	28.7	4	-1E+10	1	-1E+10	1	-1E+10	1	-1E+10	1	-1E+10	1	-1E+10	1
4902549	16	C	01/16/2021	08:55	-134.013	47.600	0	363.00	0	4.9060	0	33.8890	0	26.808	0	359.651	0	77.8	4	25.1	4	-1E+10	1	-1E+10	1	-1E+10	1	-1E+10	1	-1E+10	1	-1E+10	1
4902549	16	C	01/16/2021	08:55	-134.013	47.600	0	388.00	0	4.7510	0	33.9110	0	26.843	0	384.397	0	67.0	4	21.5	4	-1E+10	1	-1E+10	1	-1E+10	1	-1E+10	1	-1E+10	1	-1E+10	1
4902549	16	C	01/16/2021	08:55	-134.013	47.600	0	412.80	0	4.6910	0	33.9410	0	26.874	0	408.943	0	59.1	4	18.9	4	-1E+10	1	-1E+10	1	-1E+10	1	-1E+10	1	-1E+10	1	-1E+10	1
4902549	16	C	01/16/2021	08:55	-134.013	47.600	0	437.80	0	4.5410	0	33.9540	0	26.901	0	433.683	0	54.4	4	17.4	4	-1E+10	1	-1E+10	1	-1E+10	1	-1E+10	1	-1E+10	1	-1E+10	1
4902549	16	C	01/16/2021	08:55	-134.013	47.600	0	463.60	0	4.4720	0	33.9880	0	26.935	0	459.212	0	46.9	4	15.0	4	-1E+10	1	-1E+10	1	-1E+10	1	-1E+10	1	-1E+10	1	-1E+10	1
4902549	16	C	01/16/2021	08:55	-134.013	47.600	0	487.60	0	4.4160	0	34.0080	0	26.957	0	482.957	0	42.6	4	13.6	4	-1E+10	1	-1E+10	1	-1E+10	1	-1E+10	1	-1E+10	1	-1E+10	1
4902549	16	C	01/16/2021	08:55	-134.013	47.600	0	512.50	0	4.3320	0	34.0350	0	26.988	0	507.589	0	37.0	4	11.8	4	-1E+10	1	-1E+10	1	-1E+10	1	-1E+10	1	-1E+10	1	-1E+10	1
4902549	16	C	01/16/2021	08:55	-134.013	47.600	0	537.60	0	4.2920	0	34.0550	0	27.008	0	532.417	0	31.0	4	9.9	4	-1E+10	1	-1E+10	1	-1E+10	1	-1E+10	1	-1E+10	1	-1E+10	1
4902549	16	C	01/16/2021	08:55	-134.013	47.600	0	562.70	0	4.2460	0	34.0850	0	27.037	0	557.241	0	25.8	4	8.2	4	-1E+10	1	-1E+10	1	-1E+10	1	-1E+10	1	-1E+10	1	-1E+10	1
4902549	16	C	01/16/2021	08:55	-134.013	47.600	0	588.20	0	4.1540	0	34.0980	0	27.057	0	582.458	0	26.6	4	8.4	4	-1E+10	1	-1E+10	1	-1E+10	1	-1E+10	1	-1E+10	1	-1E+10	1
4902549	16	C	01/16/2021	08:55	-134.013	47.600	0	612.50	0	4.0800	0	34.1130	0	27.077	0	606.485	0	23.7	4	7.5	4	-1E+10	1	-1E+10	1	-1E+10	1	-1E+10	1	-1E+10	1	-1E+10	1
4902549	16	C	01/16/2021	08:55	-134.013	47.600	0	637.50	0	4.0020	0	34.1300	0	27.099	0	631.202	0	22.5	4	7.1	4	-1E+10	1	-1E+10	1	-1E+10	1	-1E+10	1	-1E+10	1	-1E+10	1
4902549	16	C	01/16/2021	08:55	-134.013	47.600	0	662.60	0	3.9380	0	34.1490	0	27.120	0	656.015	0	20.0	4	6.3	4	-1E+10	1	-1E+10	1	-1E+10	1	-1E+10	1	-1E+10	1	-1E+10	1
4902549	16	C	01/16/2021	08:55	-134.013	47.600	0	687.80	0	3.8920	0	34.1660	0	27.139	0	680.923	0	18.2	4	5.7	4	-1E+10	1	-1E+10	1	-1E+10	1	-1E+10	1	-1E+10	1	-1E+10	1
4902549	16	C	01/16/2021	08:55	-134.013	47.600	0	712.90	0	3.8200	0	34.1800	0	27.157	0	705.730	0	16.6	4	5.2	4	-1E+10	1	-1E+10	1	-1E+10	1	-1E+10	1	-1E+10	1	-1E+10	1
4902549	16	C	01/16/2021	08:55	-134.013	47.600	0	737.80	0	3.7640	0	34.1980	0	27.177	0	730.336	0	14.7	4	4.6	4	-1E+10	1	-1E+10	1	-1E+10	1	-1E+10	1	-1E+10	1	-1E+10	1
4902549	16	C	01/16/2021	08:55	-134.013	47.600	0	762.90	0	3.6980	0	34.2140	0	27.197	0	755.136	0	13.2	4	4.1	4	-1E+10	1	-1E+10	1	-1E+10	1	-1E+10	1	-1E+10	1	-1E+10	1
4902549	16	C	01/16/2021	08:55	-134.013	47.600	0	787.90	0	3.6430	0	34.2350	0	27.219	0	779.835	0	11.2	4	3.5	4	-1E+10	1	-1E+10	1	-1E+10	1	-1E+10	1	-1E+10	1	-1E+10	1
4902549	16	C	01/16/2021	08:55	-134.013	47.600	0	812.60	0	3.6080	0	34.2580	0	27.241	0	804.235	0	9.7	4	3.0	4	-1E+10	1	-1E+10	1	-1E+10	1	-1E+10	1	-1E+10	1	-1E+10	1
4902549	16	C	01/16/2021	08:55	-134.013	47.600	0	837.90	0	3.5270	0	34.2720	0	27.260	0	829.224	0	9.4	4	2.9	4	-1E+10	1	-1E+10	1	-1E+10	1	-1E+10	1	-1E+10	1	-1E+10	1
4902549	16	C	01/16/2021	08:55	-134.013	47.600	0	862.80	0	3.4550	0	34.2840	0	27.277	0	853.816	0	9.2	4	2.9	4	-1E+10	1	-1E+10	1	-1E+10	1	-1E+10	1	-1E+10	1	-1E+10	1
4902549	16	C	01/16/2021	08:55	-134.013	47.600	0	888.00	0	3.3800	0	34.2950	0	27.293	0	878.700	0	9.1	4	2.8	4	-1E+10	1	-1E+10	1	-1E+10	1	-1E+10	1	-1E+10	1	-1E+10	1
4902549	16	C	01/16/2021	08:55	-134.013	47.600	0	913.20	0	3.3260	0	34.3060	0	27.307	0	903.582	0	9.0	4	2.8	4	-1E+10	1	-1E+10	1	-1E+10	1	-1E+10	1	-1E+10	1	-1E+10	1
4902549	16	C	01/16/2021	08:55	-134.013	47.600	0	938.20	0	3.2720	0	34.3180	0	27.322	0	928.263	0	8.8	4	2.7	4	-1E+10	1	-1E+10	1	-1E+10	1	-1E+10	1	-1E+10	1	-1E+10	1
4902549	16	C	01/16/2021	08:55	-134.013	47.600	0	962.80	0	3.2200	0	34.3290	0	27.335	0	952.547	0	8.7	4	2.7	4	-1E+10	1	-1E+10	1	-1E+10	1	-1E+10	1	-1E+10	1	-1E+10	1
4902549	16	C	01/16/2021	08:55	-134.013	47.600	0	987.90	0	3.1720	0	34.3390	0	27.348	0	977.321	0	8.6	4	2.7	4	-1E+10	1	-1E+10	1	-1E+10	1	-1E+10	1	-1E+10	1	-1E+10	1
4902549	16	C	01/16/2021	08:55	-134.013	47.600	0	1012.80	0	3.1200	0	34.3490	0	27.361	0	1001.895	0	8.5	4	2.6	4	-1E+10	1	-1E+10	1	-1E+10	1	-1E+10	1	-1E+10	1	-1E+10	1
4902549	16	C	01/16/2021	08:55	-134.013	47.600	0	1037.50	0	3.0760	0	34.3590	0	27.373	0	1026.268	0	8.4	4	2.6	4	-1E+10	1	-1E+10	1	-1E+10	1	-1E+10	1	-1E+10	1	-1E+10	1
4902549	16	C	01/16/2021	08:55	-134.013	47.600	0	1062.90	0	3.0380	0	34.3670	0	27.383	0	1051.330	0	8.4	4	2.6	4	-1E+10	1	-1E+10	1	-1E+10	1	-1E+10	1	-1E+10	1	-1E+10	1
4902549	16	C	01/16/2021	08:55	-134.013	47.600	0	1087.80	0	2.9990	0	34.3760	0	27.394	0	1075.895	0	8.3	4	2.6	4	-1E+10	1	-1E+10	1	-1E+10	1	-1E+10	1	-1E+10	1	-1E+10	1
4902549	16	C	01/16/2021	08:55	-134.013	47.600	0	1112.90	0	2.9630	0	34.3830	0	27.403	0	1100.654	0	8.3	4	2.6	4	-1E+10	1	-1E+10	1	-1E+10	1	-1E+10	1	-1E+10	1	-1E+10	1
4902549	16	C	01/16/2021	08:55	-134.013	47.600	0	1138.30	0	2.9330	0	34.3900	0	27.411	0	1125.707	0	8.4	4	2.6	4	-1E+10	1	-1E+10	1	-1E+10	1	-1E+10	1	-1E+10	1	-1E+10	1
4902549	16	C	01/16/2021	08:55	-134.013	47.600	0	1162.90	0	2.9040	0	34.3980	0	27.420	0	1149.968	0	8.5	4	2.6	4	-1E+10	1	-1E+10	1	-1E+10	1	-1E+10	1	-1E+10	1	-1E+10	1
4902549	16	C	01/16/2021	08:55	-134.013	47.600	0	1187.30	0	2.8690	0	34.4080	0	27.432	0	1174.028	0	8.7	4	2.7	4	-1E+10	1	-1E+10	1	-1E+10	1	-1E+10	1	-1E+10	1	-1E+10	1
4902549	16	C	01/16/2021	08:55	-134.013	47.600	0	1213.00	0	2.8340	0	34.4170	0	27.442	0	1199.368	0	9.0	4	2.8	4	-1E+10	1	-1E+10	1	-1E+10	1	-1E+10	1	-1E+10	1	-1E+10	1
4902549	16	C	01/16/2021	08:55	-134.013	47.600	0	1237.60	0	2.8000	0	34.4240	0	27.451	0	1223.620	0	9.3	4	2.9	4	-1E+10	1	-1E+10	1	-1E+10	1	-1E+10	1	-1E+10	1	-1E+10	1
4902549	16	C	01/16/2021	08:55	-134.013	47.600	0	1262.70	0	2.7600	0	34.4310	0	27.460	0	1248.362	0	9.8	4	3.0	4	-1E+10	1	-1E+10	1	-1E+10	1	-1E+10	1	-1E+10	1	-1E+10	1
4902549	16	C	01/16/2021	08:55	-134.013	47.600	0	1288.00	0	2.7210	0	34.4390	0	27.470	0	1273.298	0	10.3	4	3.2	4	-1E+10	1	-1E+10	1	-1E+10	1	-1E+10	1	-1E+10	1	-1E+10	1
4902549	16	C	01/16/2021	08:55	-134.013	47.600	0	1313.00	0	2.6870	0	34.4450	0	27.478	0	1297.935	0	10.8	4	3.3	4	-1E+10	1	-1E+10	1	-1E+10	1	-1E+10	1	-1E+10	1	-1E+10	1
4902549	16	C	01/16/2021	08:55	-134.013	47.600	0	1337.90	0	2.6520	0	34.4510	0	27.486	0	1322.472	0	11.3	4	3.5	4	-1E+10	1	-1E+10	1	-1E+10	1	-1E+10	1	-1E+10	1	-1E+10	1
4902549	16	C	01/16/2021	08:55	-134.013	47.600	0	1362.80	0	2.6120	0	34.4560	0	27.493	0	1347.005	0	11.9	4	3.6	4	-1E+10	1	-1E+10	1	-1E+10	1	-1E+10	1	-1E+10	1	-1E+10	1
4902549	16	C	01/16/2021	08:55	-134.013	47.600	0	1387.60	0	2.5780	0	34.4630	0	27.502	0	1371.437	0	12.7	4	3.9	4	-1E+10	1	-1E+10	1	-1E+10	1	-1E+10	1	-1E+10	1	-1E+10	1
4902549	16	C	01/16/2021	08:55	-134.013	47.600	0	1412.80	0	2.5480	0	34.4680	0	27.509	0	1396.260	0	13.4	4	4.1	4	-1E+10	1	-1E+10	1	-1E+10	1	-1E+10	1	-1E+10	1	-1E+10	1
4902549	16	C	01/16/2021	08:55	-134.013	47.600	0	1438.00	0	2.5230	0	34.4730	0	27.515	0	1421.080	0	14.3	4	4.4	4	-1E+10	1	-1E+10	1	-1E+10	1	-1E+10	1	-1E+10	1	-1E+10	1
4902549	16	C	01/16/2021	08:55	-134.013	47.600	0	1463.30	0	2.4890	0	34.4810	0	27.524	0	1445.996	0	15.5	4	4.7	4	-1E+10	1	-1E+10	1	-1E+10	1	-1E+10	1	-1E+10	1	-1E+10	1
4902549	16	C	01/16/2021	08:55	-134.013	47.600	0	1487.60	0	2.4670	0	34.4860	0	27.530	0	1469.924	0	16.4	4	5.0	4	-1E+10	1	-1E+10	1	-1E+10	1	-1E+10	1	-1E+10	1	-1E+10	1
4902549	16	C	01/16/2021	08:55	-134.013	47.600	0	1512.90	0	2.4410	0	34.4900	0	27.536	0	1494.834	0	17.5	4	5.3	4	-1E+10	1	-1E+10	1	-1E+10	1	-1E+10	1	-1E+10	1	-1E+10	1
4902549	16	C	01/16/2021	08:55	-134.013	47.600	0	1537.70	0	2.4140	0	34.4970	0	27.544	0	1519.249	0	19.0	4	5.8	4	-1E+10	1	-1E+10	1	-1E+10	1	-1E+10	1	-1E+10	1	-1E+10	1
4902549	16	C	01/16/2021	08:55	-134.013	47.600	0	1562.70	0	2.3760	0	34.5030	0	27.552	0	1543.858	0	20.4	4	6.2	4	-1E+10	1	-1E+10	1	-1E+10	1	-1E+10	1	-1E+10	1	-1E+10	1
4902549	16	C	01/16/2021	08:55	-134.013	47.600	0	1587.70	0	2.3390	0	34.5090	0	27.560	0	1568.464	0	22.2	4	6.7	4	-1E+10	1	-1E+10	1	-1E+10	1	-1E+10	1	-1E+10	1	-1E+10	1
4902549	16	C	01/16/2021	08:55	-134.013	47.600	0	1612.80	0	2.2980	0	34.5160	0	27.569	0	1593.165	0	24.2	4	7.4	4	-1E+10	1	-1E+10	1	-1E+10	1	-1E+10	1	-1E+10	1	-1E+10	1
4902549	16	C	01/16/2021	08:55	-134.013	47.600	0	1637.60	0	2.2590	0	34.5230	0	27.578	0	1617.569	0	26.1	4	7.9	4	-1E+10	1	-1E+10	1	-1E+10	1	-1E+10	1	-1E+10	1	-1E+10	1
4902549	16	C	01/16/2021	08:55	-134.013	47.600	0	1662.60	0	2.2280	0	34.5280	0	27.584	0	1642.166	0	27.5	4	8.3	4	-1E+10	1	-1E+10	1	-1E+10	1	-1E+10	1	-1E+10	1	-1E+10	1
4902549	16	C	01/16/2021	08:55	-134.013	47.600	0	1687.50	0	2.2050	0	34.5320	0	27.589	0	1666.662	0	28.8	4	8.7	4	-1E+10	1	-1E+10	1	-1E+10	1	-1E+10	1	-1E+10	1	-1E+10	1
4902549	16	C	01/16/2021	08:55	-134.013	47.600	0	1712.70	0	2.1830	0	34.5360	0	27.595	0	1691.451	0	30.2	4	9.1	4	-1E+10	1	-1E+10	1	-1E+10	1	-1E+10	1	-1E+10	1	-1E+10	1
4902549	16	C	01/16/2021	08:55	-134.013	47.600	0	1738.10	0	2.1650	0	34.5400	0	27.599	0	1716.433	0	31.5	4	9.5	4	-1E+10	1	-1E+10	1	-1E+10	1	-1E+10	1	-1E+10	1	-1E+10	1
4902549	16	C	01/16/2021	08:55	-134.013	47.600	0	1762.90	0	2.1350	0	34.5450	0	27.606	0	1740.822	0	33.3	4	10.1	4	-1E+10	1	-1E+10	1	-1E+10	1	-1E+10	1	-1E+10	1	-1E+10	1
4902549	16	C	01/16/2021	08:55	-134.013	47.600	0	1787.90	0	2.1140	0	34.5490	0	27.611	0	1765.405	0	34.8	4	10.5	4	-1E+10	1	-1E+10	1	-1E+10	1	-1E+10	1	-1E+10	1	-1E+10	1
4902549	16	C	01/16/2021	08:55	-134.013	47.600	0	1812.90	0	2.0920	0	34.5530	0	27.616	0	1789.985	0	36.3	4	11.0	4	-1E+10	1	-1E+10	1	-1E+10	1	-1E+10	1	-1E+10	1	-1E+10	1
4902549	16	C	01/16/2021	08:55	-134.013	47.600	0	1837.60	0	2.0710	0	34.5570	0	27.621	0	1814.268	0	37.9	4	11.5	4	-1E+10	1	-1E+10	1	-1E+10	1	-1E+10	1	-1E+10	1	-1E+10	1
4902549	16	C	01/16/2021	08:55	-134.013	47.600	0	1862.80	0	2.0490	0	34.5620	0	27.627	0	1839.039	0	39.8	4	12.0	4	-1E+10	1	-1E+10	1	-1E+10	1	-1E+10	1	-1E+10	1	-1E+10	1
4902549	16	C	01/16/2021	08:55	-134.013	47.600	0	1888.00	0	2.0300	0	34.5660	0	27.632	0	1863.807	0	41.4	4	12.5	4	-1E+10	1	-1E+10	1	-1E+10	1	-1E+10	1	-1E+10	1	-1E+10	1
4902549	16	C	01/16/2021	08:55	-134.013	47.600	0	1912.70	0	2.0110	0	34.5690	0	27.636	0	1888.081	0	42.9	4	13.0	4	-1E+10	1	-1E+10	1	-1E+10	1	-1E+10	1	-1E+10	1	-1E+10	1
4902549	16	C	01/16/2021	08:55	-134.013	47.600	0	1937.80	0	1.9910	0	34.5740	0	27.641	0	1912.745	0	44.7	4	13.5	4	-1E+10	1	-1E+10	1	-1E+10	1	-1E+10	1	-1E+10	1	-1E+10	1
4902549	16	C	01/16/2021	08:55	-134.013	47.600	0	1963.10	0	1.9720	0	34.5770	0	27.645	0	1937.603	0	46.4	4	14.0	4	-1E+10	1	-1E+10	1	-1E+10	1	-1E+10	1	-1E+10	1	-1E+10	1
4902549	16	C	01/16/2021	08:55	-134.013	47.600	0	1988.10	0	1.9530	0	34.5810	0	27.650	0	1962.163	0	48.0	4	14.5	4	-1E+10	1	-1E+10	1	-1E+10	1	-1E+10	1	-1E+10	1	-1E+10	1
4902549	16	C	01/16/2021	08:55	-134.013	47.600	0	2012.80	0	1.9360	0	34.5850	0	27.655	0	1986.426	0	48.9	4	14.7	4	-1E+10	1	-1E+10	1	-1E+10	1	-1E+10	1	-1E+10	1	-1E+10	1
4902549	16	C	01/16/2021	08:55	-134.013	47.600	0	2029.70	0	1.9300	0	34.5860	0	27.656	0	2003.025	0	49.1	4	14.8	4	-1E+10	1	-1E+10	1	-1E+10	1	-1E+10	1	-1E+10	1	-1E+10	1
4902549	16	C	01/16/2021	08:55	-134.013	47.600	0																										
4902549	17	C	01/26/2021	09:06	-133.895	47.539	0	0.20	0	9.2690	0	32.3060	0	24.967	0	0.198	0	268.8	4	94.5	4	-1E+10	1	-1E+10	1	-1E+10	1	-1E+10	1	-1E+10	1	-1E+10	1
4902549	17	C	01/26/2021	09:06	-133.895	47.539	0	1.10	0	9.2690	0	32.3070	0	24.968	0	1.091	0	268.8	4	94.5	4	-1E+10	1	-1E+10	1	-1E+10	1	-1E+10	1	-1E+10	1	-1E+10	1
4902549	17	C	01/26/2021	09:06	-133.895	47.539	0	2.00	0	9.2690	0	32.3070	0	24.968	0	1.983	0	268.8	4	94.5	4	-1E+10	1	-1E+10	1	-1E+10	1	-1E+10	1	-1E+10	1	-1E+10	1
4902549	17	C	01/26/2021	09:06	-133.895	47.539	0	3.10	0	9.2730	0	32.3070	0	24.968	0	3.074	0	268.7	4	94.5	4	-1E+10	1	-1E+10	1	-1E+10	1	-1E+10	1	-1E+10	1	-1E+10	1
4902549	17	C	01/26/2021	09:06	-133.895	47.539	0	4.10	0	9.2790	0	32.3050	0	24.965	0	4.066	0	268.7	4	94.5	4	-1E+10	1	-1E+10	1	-1E+10	1	-1E+10	1	-1E+10	1	-1E+10	1
4902549	17	C	01/26/2021	09:06	-133.895	47.539	0	5.10	0	9.2810	0	32.3040	0	24.964	0	5.057	0	268.7	4	94.5	4	-1E+10	1	-1E+10	1	-1E+10	1	-1E+10	1	-1E+10	1	-1E+10	1
4902549	17	C	01/26/2021	09:06	-133.895	47.539	0	5.90	0	9.2800	0	32.3050	0	24.965	0	5.851	0	268.6	4	94.4	4	-1E+10	1	-1E+10	1	-1E+10	1	-1E+10	1	-1E+10	1	-1E+10	1
4902549	17	C	01/26/2021	09:06	-133.895	47.539	0	6.80	0	9.2790	0	32.3050	0	24.965	0	6.743	0	268.5	4	94.4	4	-1E+10	1	-1E+10	1	-1E+10	1	-1E+10	1	-1E+10	1	-1E+10	1
4902549	17	C	01/26/2021	09:06	-133.895	47.539	0	7.70	0	9.2790	0	32.3050	0	24.965	0	7.636	0	268.6	4	94.4	4	-1E+10	1	-1E+10	1	-1E+10	1	-1E+10	1	-1E+10	1	-1E+10	1
4902549	17	C	01/26/2021	09:06	-133.895	47.539	0	8.80	0	9.2800	0	32.3050	0	24.965	0	8.726	0	268.6	4	94.5	4	-1E+10	1	-1E+10	1	-1E+10	1	-1E+10	1	-1E+10	1	-1E+10	1
4902549	17	C	01/26/2021	09:06	-133.895	47.539	0	10.10	0	9.2840	0	32.3030	0	24.963	0	10.015	0	268.5	4	94.4	4	-1E+10	1	-1E+10	1	-1E+10	1	-1E+10	1	-1E+10	1	-1E+10	1
4902549	17	C	01/26/2021	09:06	-133.895	47.539	0	15.20	0	9.2830	0	32.3050	0	24.965	0	15.073	0	268.4	4	94.4	4	-1E+10	1	-1E+10	1	-1E+10	1	-1E+10	1	-1E+10	1	-1E+10	1
4902549	17	C	01/26/2021	09:06	-133.895	47.539	0	25.20	0	9.2850	0	32.3050	0	24.965	0	24.988	0	268.4	4	94.4	4	-1E+10	1	-1E+10	1	-1E+10	1	-1E+10	1	-1E+10	1	-1E+10	1
4902549	17	C	01/26/2021	09:06	-133.895	47.539	0	35.70	0	9.2900	0	32.3050	0	24.964	0	35.399	0	268.2	4	94.3	4	-1E+10	1	-1E+10	1	-1E+10	1	-1E+10	1	-1E+10	1	-1E+10	1
4902549	17	C	01/26/2021	09:06	-133.895	47.539	0	45.10	0	9.2910	0	32.3060	0	24.965	0	44.719	0	268.1	4	94.3	4	-1E+10	1	-1E+10	1	-1E+10	1	-1E+10	1	-1E+10	1	-1E+10	1
4902549	17	C	01/26/2021	09:06	-133.895	47.539	0	55.40	0	9.2940	0	32.3060	0	24.964	0	54.930	0	267.9	4	94.2	4	-1E+10	1	-1E+10	1	-1E+10	1	-1E+10	1	-1E+10	1	-1E+10	1
4902549	17	C	01/26/2021	09:06	-133.895	47.539	0	65.70	0	9.2940	0	32.3060	0	24.965	0	65.141	0	267.8	4	94.2	4	-1E+10	1	-1E+10	1	-1E+10	1	-1E+10	1	-1E+10	1	-1E+10	1
4902549	17	C	01/26/2021	09:06	-133.895	47.539	0	75.60	0	9.2950	0	32.3060	0	24.965	0	74.955	0	267.4	4	94.1	4	-1E+10	1	-1E+10	1	-1E+10	1	-1E+10	1	-1E+10	1	-1E+10	1
4902549	17	C	01/26/2021	09:06	-133.895	47.539	0	85.50	0	9.2960	0	32.3060	0	24.965	0	84.769	0	266.7	4	93.8	4	-1E+10	1	-1E+10	1	-1E+10	1	-1E+10	1	-1E+10	1	-1E+10	1
4902549	17	C	01/26/2021	09:06	-133.895	47.539	0	94.70	0	9.2980	0	32.3080	0	24.966	0	93.888	0	265.4	4	93.4	4	-1E+10	1	-1E+10	1	-1E+10	1	-1E+10	1	-1E+10	1	-1E+10	1
4902549	17	C	01/26/2021	09:06	-133.895	47.539	0	105.60	0	9.2980	0	32.3090	0	24.967	0	104.691	0	262.1	4	92.2	4	-1E+10	1	-1E+10	1	-1E+10	1	-1E+10	1	-1E+10	1	-1E+10	1
4902549	17	C	01/26/2021	09:06	-133.895	47.539	0	115.40	0	9.0690	0	32.3790	0	25.058	0	114.404	0	249.8	4	87.5	4	-1E+10	1	-1E+10	1	-1E+10	1	-1E+10	1	-1E+10	1	-1E+10	1
4902549	17	C	01/26/2021	09:06	-133.895	47.539	0	125.10	0	8.3370	0	32.5870	0	25.332	0	124.018	0	235.9	4	81.4	4	-1E+10	1	-1E+10	1	-1E+10	1	-1E+10	1	-1E+10	1	-1E+10	1
4902549	17	C	01/26/2021	09:06	-133.895	47.539	0	135.40	0	7.7630	0	32.7760	0	25.564	0	134.225	0	221.7	4	75.6	4	-1E+10	1	-1E+10	1	-1E+10	1	-1E+10	1	-1E+10	1	-1E+10	1
4902549	17	C	01/26/2021	09:06	-133.895	47.539	0	145.00	0	7.1950	0	33.0400	0	25.851	0	143.739	0	207.4	4	70.0	4	-1E+10	1	-1E+10	1	-1E+10	1	-1E+10	1	-1E+10	1	-1E+10	1
4902549	17	C	01/26/2021	09:06	-133.895	47.539	0	155.20	0	6.9180	0	33.2440	0	26.049	0	153.846	0	200.0	4	67.2	4	-1E+10	1	-1E+10	1	-1E+10	1	-1E+10	1	-1E+10	1	-1E+10	1
4902549	17	C	01/26/2021	09:06	-133.895	47.539	0	165.00	0	6.8250	0	33.3610	0	26.153	0	163.557	0	194.1	4	65.1	4	-1E+10	1	-1E+10	1	-1E+10	1	-1E+10	1	-1E+10	1	-1E+10	1
4902549	17	C	01/26/2021	09:06	-133.895	47.539	0	175.40	0	6.7220	0	33.4820	0	26.263	0	173.862	0	186.8	4	62.6	4	-1E+10	1	-1E+10	1	-1E+10	1	-1E+10	1	-1E+10	1	-1E+10	1
4902549	17	C	01/26/2021	09:06	-133.895	47.539	0	185.60	0	6.5830	0	33.5820	0	26.360	0	183.968	0	179.1	4	59.8	4	-1E+10	1	-1E+10	1	-1E+10	1	-1E+10	1	-1E+10	1	-1E+10	1
4902549	17	C	01/26/2021	09:06	-133.895	47.539	0	195.30	0	6.5010	0	33.6400	0	26.416	0	193.578	0	171.9	4	57.3	4	-1E+10	1	-1E+10	1	-1E+10	1	-1E+10	1	-1E+10	1	-1E+10	1
4902549	17	C	01/26/2021	09:06	-133.895	47.539	0	212.50	0	6.3280	0	33.7310	0	26.511	0	210.617	0	157.1	4	52.2	4	-1E+10	1	-1E+10	1	-1E+10	1	-1E+10	1	-1E+10	1	-1E+10	1
4902549	17	C	01/26/2021	09:06	-133.895	47.539	0	238.20	0	6.0810	0	33.7970	0	26.595	0	236.075	0	139.7	4	46.2	4	-1E+10	1	-1E+10	1	-1E+10	1	-1E+10	1	-1E+10	1	-1E+10	1
4902549	17	C	01/26/2021	09:06	-133.895	47.539	0	263.10	0	5.7010	0	33.8240	0	26.663	0	260.737	0	124.1	4	40.7	4	-1E+10	1	-1E+10	1	-1E+10	1	-1E+10	1	-1E+10	1	-1E+10	1
4902549	17	C	01/26/2021	09:06	-133.895	47.539	0	287.70	0	5.4280	0	33.8410	0	26.710	0	285.099	0	112.6	4	36.7	4	-1E+10	1	-1E+10	1	-1E+10	1	-1E+10	1	-1E+10	1	-1E+10	1
4902549	17	C	01/26/2021	09:06	-133.895	47.539	0	312.60	0	5.2330	0	33.8570	0	26.745	0	309.756	0	99.7	4	32.3	4	-1E+10	1	-1E+10	1	-1E+10	1	-1E+10	1	-1E+10	1	-1E+10	1
4902549	17	C	01/26/2021	09:06	-133.895	47.539	0	337.90	0	5.0590	0	33.8770	0	26.781	0	334.805	0	86.9	4	28.1	4	-1E+10	1	-1E+10	1	-1E+10	1	-1E+10	1	-1E+10	1	-1E+10	1
4902549	17	C	01/26/2021	09:06	-133.895	47.539	0	363.00	0	4.9280	0	33.9030	0	26.817	0	359.653	0	73.3	4	23.6	4	-1E+10	1	-1E+10	1	-1E+10	1	-1E+10	1	-1E+10	1	-1E+10	1
4902549	17	C	01/26/2021	09:06	-133.895	47.539	0	387.80	0	4.8140	0	33.9280	0	26.850	0	384.202	0	64.4	4	20.7	4	-1E+10	1	-1E+10	1	-1E+10	1	-1E+10	1	-1E+10	1	-1E+10	1
4902549	17	C	01/26/2021	09:06	-133.895	47.539	0	413.50	0	4.7180	0	33.9490	0	26.877	0	409.638	0	57.5	4	18.4	4	-1E+10	1	-1E+10	1	-1E+10	1	-1E+10	1	-1E+10	1	-1E+10	1
4902549	17	C	01/26/2021	09:06	-133.895	47.539	0	437.80	0	4.5570	0	33.9670	0	26.909	0	433.685	0	50.9	4	16.3	4	-1E+10	1	-1E+10	1	-1E+10	1	-1E+10	1	-1E+10	1	-1E+10	1
4902549	17	C	01/26/2021	09:06	-133.895	47.539	0	462.80	0	4.4580	0	34.0000	0	26.946	0	458.423	0	45.2	4	14.4	4	-1E+10	1	-1E+10	1	-1E+10	1	-1E+10	1	-1E+10	1	-1E+10	1
4902549	17	C	01/26/2021	09:06	-133.895	47.539	0	487.40	0	4.3630	0	34.0180	0	26.971	0	482.762	0	40.7	4	12.9	4	-1E+10	1	-1E+10	1	-1E+10	1	-1E+10	1	-1E+10	1	-1E+10	1
4902549	17	C	01/26/2021	09:06	-133.895	47.539	0	512.30	0	4.3050	0	34.0460	0	27.000	0	507.394	0	34.9	4	11.1	4	-1E+10	1	-1E+10	1	-1E+10	1	-1E+10	1	-1E+10	1	-1E+10	1
4902549	17	C	01/26/2021	09:06	-133.895	47.539	0	537.50	0	4.2310	0	34.0660	0	27.023	0	532.321	0	32.3	4	10.2	4	-1E+10	1	-1E+10	1	-1E+10	1	-1E+10	1	-1E+10	1	-1E+10	1
4902549	17	C	01/26/2021	09:06	-133.895	47.539	0	562.60	0	4.1790	0	34.0830	0	27.043	0	557.145	0	28.5	4	9.0	4	-1E+10	1	-1E+10	1	-1E+10	1	-1E+10	1	-1E+10	1	-1E+10	1
4902549	17	C	01/26/2021	09:06	-133.895	47.539	0	587.70	0	4.1120	0	34.1030	0	27.066	0	581.967	0	24.8	4	7.9	4	-1E+10	1	-1E+10	1	-1E+10	1	-1E+10	1	-1E+10	1	-1E+10	1
4902549	17	C	01/26/2021	09:06	-133.895	47.539	0	612.90	0	4.0630	0	34.1320	0	27.094	0	606.884	0	19.5	4	6.2	4	-1E+10	1	-1E+10	1	-1E+10	1	-1E+10	1	-1E+10	1	-1E+10	1
4902549	17	C	01/26/2021	09:06	-133.895	47.539	0	638.10	0	4.0050	0	34.1500	0	27.114	0	631.799	0	17.7	4	5.6	4	-1E+10	1	-1E+10	1	-1E+10	1	-1E+10	1	-1E+10	1	-1E+10	1
4902549	17	C	01/26/2021	09:06	-133.895	47.539	0	662.80	0	3.9370	0	34.1700	0	27.137	0	656.216	0	15.8	4	5.0	4	-1E+10	1	-1E+10	1	-1E+10	1	-1E+10	1	-1E+10	1	-1E+10	1
4902549	17	C	01/26/2021	09:06	-133.895	47.539	0	687.70	0	3.8560	0	34.1880	0	27.160	0	680.828	0	15.1	4	4.7	4	-1E+10	1	-1E+10	1	-1E+10	1	-1E+10	1	-1E+10	1	-1E+10	1
4902549	17	C	01/26/2021	09:06	-133.895	47.539	0	712.80	0	3.7880	0	34.1980	0	27.175	0	705.635	0	14.4	4	4.5	4	-1E+10	1	-1E+10	1	-1E+10	1	-1E+10	1	-1E+10	1	-1E+10	1
4902549	17	C	01/26/2021	09:06	-133.895	47.539	0	738.80	0	3.7260	0	34.2100	0	27.191	0	731.328	0	13.6	4	4.3	4	-1E+10	1	-1E+10	1	-1E+10	1	-1E+10	1	-1E+10	1	-1E+10	1
4902549	17	C	01/26/2021	09:06	-133.895	47.539	0	762.70	0	3.6650	0	34.2220	0	27.206	0	754.943	0	13.2	4	4.2	4	-1E+10	1	-1E+10	1	-1E+10	1	-1E+10	1	-1E+10	1	-1E+10	1
4902549	17	C	01/26/2021	09:06	-133.895	47.539	0	787.70	0	3.6170	0	34.2350	0	27.222	0	779.642	0	12.6	4	4.0	4	-1E+10	1	-1E+10	1	-1E+10	1	-1E+10	1	-1E+10	1	-1E+10	1
4902549	17	C	01/26/2021	09:06	-133.895	47.539	0	812.90	0	3.5470	0	34.2480	0	27.239	0	804.536	0	12.2	4	3.8	4	-1E+10	1	-1E+10	1	-1E+10	1	-1E+10	1	-1E+10	1	-1E+10	1
4902549	17	C	01/26/2021	09:06	-133.895	47.539	0	837.60	0	3.5200	0	34.2640	0	27.254	0	828.933	0	10.5	4	3.3	4	-1E+10	1	-1E+10	1	-1E+10	1	-1E+10	1	-1E+10	1	-1E+10	1
4902549	17	C	01/26/2021	09:06	-133.895	47.539	0	862.40	0	3.4740	0	34.2810	0	27.273	0	853.425	0	9.4	4	2.9	4	-1E+10	1	-1E+10	1	-1E+10	1	-1E+10	1	-1E+10	1	-1E+10	1
4902549	17	C	01/26/2021	09:06	-133.895	47.539	0	887.70	0	3.4070	0	34.2930	0	27.289	0	878.409	0	9.0	4	2.8	4	-1E+10	1	-1E+10	1	-1E+10	1	-1E+10	1	-1E+10	1	-1E+10	1
4902549	17	C	01/26/2021	09:06	-133.895	47.539	0	912.70	0	3.3440	0	34.3030	0	27.303	0	903.093	0	9.0	4	2.8	4	-1E+10	1	-1E+10	1	-1E+10	1	-1E+10	1	-1E+10	1	-1E+10	1
4902549	17	C	01/26/2021	09:06	-133.895	47.539	0	937.70	0	3.2840	0	34.3150	0	27.318	0	927.775	0	8.8	4	2.7	4	-1E+10	1	-1E+10	1	-1E+10	1	-1E+10	1	-1E+10	1	-1E+10	1
4902549	17	C	01/26/2021	09:06	-133.895	47.539	0	962.80	0	3.2380	0	34.3260	0	27.331	0	952.552	0	8.5	4	2.7	4	-1E+10	1	-1E+10	1	-1E+10	1	-1E+10	1	-1E+10	1	-1E+10	1
4902549	17	C	01/26/2021	09:06	-133.895	47.539	0	988.00	0	3.1880	0	34.3380	0	27.346	0	977.425	0	8.5	4	2.6	4	-1E+10	1	-1E+10	1	-1E+10	1	-1E+10	1	-1E+10	1	-1E+10	1
4902549	17	C	01/26/2021	09:06	-133.895	47.539	0	1013.70	0	3.1150	0	34.3520	0	27.364	0	1002.789	0	8.5	4	2.6	4	-1E+10	1	-1E+10	1	-1E+10	1	-1E+10	1	-1E+10	1	-1E+10	1
4902549	17	C	01/26/2021	09:06	-133.895	47.539	0	1037.70	0	3.0700	0	34.3620	0	27.376	0	1026.471	0	8.4	4	2.6	4	-1E+10	1	-1E+10	1	-1E+10	1	-1E+10	1	-1E+10	1	-1E+10	1
4902549	17	C	01/26/2021	09:06	-133.895	47.539	0	1062.60	0	3.0270	0	34.3680	0	27.385	0	1051.040	0	8.5	4	2.6	4	-1E+10	1	-1E+10	1	-1E+10	1	-1E+10	1	-1E+10	1	-1E+10	1
4902549	17	C	01/26/2021	09:06	-133.895	47.539	0	1087.70	0	2.9920	0	34.3760	0	27.394	0	1075.802	0	8.4	4	2.6	4	-1E+10	1	-1E+10	1	-1E+10	1	-1E+10	1	-1E+10	1	-1E+10	1
4902549	17	C	01/26/2021	09:06	-133.895	47.539	0	1113.20	0	2.9720	0	34.3830	0	27.402	0	1100.956	0	8.2	4	2.5	4	-1E+10	1	-1E+10	1	-1E+10	1	-1E+10	1	-1E+10	1	-1E+10	1
4902549	17	C	01/26/2021	09:06	-133.895	47.539	0	1139.00	0	2.9580	0	34.3940	0	27.412	0	1126.404	0	8.2	4	2.5	4	-1E+10	1	-1E+10	1	-1E+10	1	-1E+10	1	-1E+10	1	-1E+10	1
4902549	17	C	01/26/2021	09:06	-133.895	47.539	0	1162.70	0	2.9380	0	34.4030	0	27.421	0	1149.777	0	8.2	4	2.5	4	-1E+10	1	-1E+10	1	-1E+10	1	-1E+10	1	-1E+10	1	-1E+10	1
4902549	17	C	01/26/2021	09:06	-133.895	47.539	0	1187.70	0	2.8950	0	34.4110	0	27.432	0	1174.429	0	8.5	4	2.6	4	-1E+10	1	-1E+10	1	-1E+10	1	-1E+10	1	-1E+10	1	-1E+10	1
4902549	17	C	01/26/2021	09:06	-133.895	47.539	0	1212.80	0	2.8440	0	34.4170	0	27.441	0	1199.177	0	8.9	4	2.7	4	-1E+10	1	-1E+10	1	-1E+10	1	-1E+10	1	-1E+10	1	-1E+10	1
4902549	17	C	01/26/2021	09:06	-133.895	47.539	0	1237.70	0	2.8020	0	34.4240	0	27.451	0	1223.725	0	9.3	4	2.9	4	-1E+10	1	-1E+10	1	-1E+10	1	-1E+10	1	-1E+10	1	-1E+10	1
4902549	17	C	01/26/2021	09:06	-133.895	47.539	0	1262.60	0	2.7720	0	34.4310	0	27.459	0	1248.270	0	9.7	4	3.0	4	-1E+10	1	-1E+10	1	-1E+10	1	-1E+10	1	-1E+10	1	-1E+10	1
4902549	17	C	01/26/2021	09:06	-133.895	47.539	0	1287.60	0	2.7300	0	34.4390	0	27.469	0	1272.911	0	10.3	4	3.1	4	-1E+10	1	-1E+10	1	-1E+10	1	-1E+10	1	-1E+10	1	-1E+10	1
4902549	17	C	01/26/2021	09:06	-133.895	47.539	0	1312.80	0	2.6840	0	34.4470	0	27.480	0	1297.746	0	10.9	4	3.4	4	-1E+10	1	-1E+10	1	-1E+10	1	-1E+10	1	-1E+10	1	-1E+10	1
4902549	17	C	01/26/2021	09:06	-133.895	47.539	0	1337.80	0	2.6420	0	34.4540	0	27.489	0	1322.381	0	11.7	4	3.6	4	-1E+10	1	-1E+10	1	-1E+10	1	-1E+10	1	-1E+10	1	-1E+10	1
4902549	17	C	01/26/2021	09:06	-133.895	47.539	0	1363.10	0	2.5950	0	34.4620	0	27.499	0	1347.308	0	12.4	4	3.8	4	-1E+10	1	-1E+10	1	-1E+10	1	-1E+10	1	-1E+10	1	-1E+10	1
4902549	17	C	01/26/2021	09:06	-133.895	47.539	0	1388.60	0	2.5500	0	34.4690	0	27.509	0	1372.430	0	13.5	4	4.1	4	-1E+10	1	-1E+10	1	-1E+10	1	-1E+10	1	-1E+10	1	-1E+10	1
4902549	17	C	01/26/2021	09:06	-133.895	47.539	0	1412.70	0	2.5210	0	34.4740	0	27.516	0	1396.169	0	14.1	4	4.3	4	-1E+10	1	-1E+10	1	-1E+10	1	-1E+10	1	-1E+10	1	-1E+10	1
4902549	17	C	01/26/2021	09:06	-133.895	47.539	0	1438.10	0	2.4980	0	34.4780	0	27.521	0	1421.187	0	15.0	4	4.6	4	-1E+10	1	-1E+10	1	-1E+10	1	-1E+10	1	-1E+10	1	-1E+10	1
4902549	17	C	01/26/2021	09:06	-133.895	47.539	0	1462.90	0	2.4650	0	34.4840	0	27.529	0	1445.610	0	16.2	4	4.9	4	-1E+10	1	-1E+10	1	-1E+10	1	-1E+10	1	-1E+10	1	-1E+10	1
4902549	17	C	01/26/2021	09:06	-133.895	47.539	0	1488.00	0	2.4310	0	34.4910	0	27.537	0	1470.326	0	17.5	4	5.3	4	-1E+10	1	-1E+10	1	-1E+10	1	-1E+10	1	-1E+10	1	-1E+10	1
4902549	17	C	01/26/2021	09:06	-133.895	47.539	0	1512.90	0	2.4020	0	34.4970	0	27.544	0	1494.843	0	18.8	4	5.7	4	-1E+10	1	-1E+10	1	-1E+10	1	-1E+10	1	-1E+10	1	-1E+10	1
4902549	17	C	01/26/2021	09:06	-133.895	47.539	0	1538.00	0	2.3720	0	34.5020	0	27.551	0	1519.553	0	20.1	4	6.1	4	-1E+10	1	-1E+10	1	-1E+10	1	-1E+10	1	-1E+10	1	-1E+10	1
4902549	17	C	01/26/2021	09:06	-133.895	47.539	0	1563.10	0	2.3490	0	34.5070	0	27.557	0	1544.260	0	21.5	4	6.5	4	-1E+10	1	-1E+10	1	-1E+10	1	-1E+10	1	-1E+10	1	-1E+10	1
4902549	17	C	01/26/2021	09:06	-133.895	47.539	0	1587.90	0	2.3080	0	34.5140	0	27.566	0	1568.669	0	23.5	4	7.1	4	-1E+10	1	-1E+10	1	-1E+10	1	-1E+10	1	-1E+10	1	-1E+10	1
4902549	17	C	01/26/2021	09:06	-133.895	47.539	0	1612.80	0	2.2760	0	34.5200	0	27.574	0	1593.174	0	25.0	4	7.6	4	-1E+10	1	-1E+10	1	-1E+10	1	-1E+10	1	-1E+10	1	-1E+10	1
4902549	17	C	01/26/2021	09:06	-133.895	47.539	0	1637.60	0	2.2460	0	34.5250	0	27.580	0	1617.578	0	26.6	4	8.1	4	-1E+10	1	-1E+10	1	-1E+10	1	-1E+10	1	-1E+10	1	-1E+10	1
4902549	17	C	01/26/2021	09:06	-133.895	47.539	0	1663.30	0	2.2140	0	34.5300	0	27.587	0	1642.864	0	28.2	4	8.6	4	-1E+10	1	-1E+10	1	-1E+10	1	-1E+10	1	-1E+10	1	-1E+10	1
4902549	17	C	01/26/2021	09:06	-133.895	47.539	0	1687.60	0	2.1940	0	34.5340	0	27.592	0	1666.770	0	29.5	4	8.9	4	-1E+10	1	-1E+10	1	-1E+10	1	-1E+10	1	-1E+10	1	-1E+10	1
4902549	17	C	01/26/2021	09:06	-133.895	47.539	0	1712.80	0	2.1690	0	34.5390	0	27.598	0	1691.558	0	31.1	4	9.4	4	-1E+10	1	-1E+10	1	-1E+10	1	-1E+10	1	-1E+10	1	-1E+10	1
4902549	17	C	01/26/2021	09:06	-133.895	47.539	0	1737.60	0	2.1460	0	34.5430	0	27.603	0	1715.951	0	32.5	4	9.8	4	-1E+10	1	-1E+10	1	-1E+10	1	-1E+10	1	-1E+10	1	-1E+10	1
4902549	17	C	01/26/2021	09:06	-133.895	47.539	0	1763.20	0	2.1230	0	34.5470	0	27.608	0	1741.127	0	34.0	4	10.3	4	-1E+10	1	-1E+10	1	-1E+10	1	-1E+10	1	-1E+10	1	-1E+10	1
4902549	17	C	01/26/2021	09:06	-133.895	47.539	0	1787.90	0	2.1010	0	34.5510	0	27.613	0	1765.415	0	35.3	4	10.7	4	-1E+10	1	-1E+10	1	-1E+10	1	-1E+10	1	-1E+10	1	-1E+10	1
4902549	17	C	01/26/2021	09:06	-133.895	47.539	0	1813.00	0	2.0820	0	34.5550	0	27.618	0	1790.093	0	36.6	4	11.1	4	-1E+10	1	-1E+10	1	-1E+10	1	-1E+10	1	-1E+10	1	-1E+10	1
4902549	17	C	01/26/2021	09:06	-133.895	47.539	0	1838.10	0	2.0720	0	34.5570	0	27.621	0	1814.769	0	37.6	4	11.4	4	-1E+10	1	-1E+10	1	-1E+10	1	-1E+10	1	-1E+10	1	-1E+10	1
4902549	17	C	01/26/2021	09:06	-133.895	47.539	0	1863.10	0	2.0560	0	34.5610	0	27.625	0	1839.344	0	38.9	4	11.8	4	-1E+10	1	-1E+10	1	-1E+10	1	-1E+10	1	-1E+10	1	-1E+10	1
4902549	17	C	01/26/2021	09:06	-133.895	47.539	0	1887.80	0	2.0350	0	34.5650	0	27.630	0	1863.621	0	40.2	4	12.1	4	-1E+10	1	-1E+10	1	-1E+10	1	-1E+10	1	-1E+10	1	-1E+10	1
4902549	17	C	01/26/2021	09:06	-133.895	47.539	0	1912.90	0	2.0240	0	34.5670	0	27.633	0	1888.288	0	41.2	4	12.4	4	-1E+10	1	-1E+10	1	-1E+10	1	-1E+10	1	-1E+10	1	-1E+10	1
4902549	17	C	01/26/2021	09:06	-133.895	47.539	0	1937.90	0	2.0080	0	34.5700	0	27.637	0	1912.854	0	42.4	4	12.8	4	-1E+10	1	-1E+10	1	-1E+10	1	-1E+10	1	-1E+10	1	-1E+10	1
4902549	17	C	01/26/2021	09:06	-133.895	47.539	0	1962.60	0	1.9940	0	34.5730	0	27.640	0	1937.122	0	43.4	4	13.1	4	-1E+10	1	-1E+10	1	-1E+10	1	-1E+10	1	-1E+10	1	-1E+10	1
4902549	17	C	01/26/2021	09:06	-133.895	47.539	0	1978.40	0	1.9870	0	34.5750	0	27.643	0	1952.645	0	43.7	4	13.2	4	-1E+10	1	-1E+10	1	-1E+10	1	-1E+10	1	-1E+10	1	-1E+10	1
4902549	17	C	01/26/2021	09:06	-133.895	47.539	0																										
4902549	18	C	02/05/2021	08:44	-133.843	47.579	0	1.10	0	8.8600	0	32.3260	0	25.047	0	1.091	0	270.9	4	94.4	4	-1E+10	1	-1E+10	1	-1E+10	1	-1E+10	1	-1E+10	1	-1E+10	1
4902549	18	C	02/05/2021	08:44	-133.843	47.579	0	2.00	0	8.8600	0	32.3260	0	25.047	0	1.983	0	270.9	4	94.4	4	-1E+10	1	-1E+10	1	-1E+10	1	-1E+10	1	-1E+10	1	-1E+10	1
4902549	18	C	02/05/2021	08:44	-133.843	47.579	0	3.10	0	8.8610	0	32.3260	0	25.047	0	3.074	0	270.9	4	94.4	4	-1E+10	1	-1E+10	1	-1E+10	1	-1E+10	1	-1E+10	1	-1E+10	1
4902549	18	C	02/05/2021	08:44	-133.843	47.579	0	3.80	0	8.8610	0	32.3260	0	25.047	0	3.768	0	270.9	4	94.4	4	-1E+10	1	-1E+10	1	-1E+10	1	-1E+10	1	-1E+10	1	-1E+10	1
4902549	18	C	02/05/2021	08:44	-133.843	47.579	0	4.80	0	8.8610	0	32.3260	0	25.047	0	4.760	0	270.9	4	94.4	4	-1E+10	1	-1E+10	1	-1E+10	1	-1E+10	1	-1E+10	1	-1E+10	1
4902549	18	C	02/05/2021	08:44	-133.843	47.579	0	6.10	0	8.8610	0	32.3260	0	25.047	0	6.049	0	270.9	4	94.4	4	-1E+10	1	-1E+10	1	-1E+10	1	-1E+10	1	-1E+10	1	-1E+10	1
4902549	18	C	02/05/2021	08:44	-133.843	47.579	0	7.00	0	8.8610	0	32.3270	0	25.047	0	6.941	0	270.8	4	94.4	4	-1E+10	1	-1E+10	1	-1E+10	1	-1E+10	1	-1E+10	1	-1E+10	1
4902549	18	C	02/05/2021	08:44	-133.843	47.579	0	7.90	0	8.8610	0	32.3260	0	25.047	0	7.834	0	270.8	4	94.4	4	-1E+10	1	-1E+10	1	-1E+10	1	-1E+10	1	-1E+10	1	-1E+10	1
4902549	18	C	02/05/2021	08:44	-133.843	47.579	0	9.10	0	8.8620	0	32.3260	0	25.047	0	9.024	0	270.9	4	94.4	4	-1E+10	1	-1E+10	1	-1E+10	1	-1E+10	1	-1E+10	1	-1E+10	1
4902549	18	C	02/05/2021	08:44	-133.843	47.579	0	10.00	0	8.8620	0	32.3270	0	25.047	0	9.916	0	270.8	4	94.4	4	-1E+10	1	-1E+10	1	-1E+10	1	-1E+10	1	-1E+10	1	-1E+10	1
4902549	18	C	02/05/2021	08:44	-133.843	47.579	0	15.50	0	8.8620	0	32.3260	0	25.047	0	15.370	0	270.8	4	94.3	4	-1E+10	1	-1E+10	1	-1E+10	1	-1E+10	1	-1E+10	1	-1E+10	1
4902549	18	C	02/05/2021	08:44	-133.843	47.579	0	25.50	0	8.8640	0	32.3260	0	25.047	0	25.285	0	270.5	4	94.3	4	-1E+10	1	-1E+10	1	-1E+10	1	-1E+10	1	-1E+10	1	-1E+10	1
4902549	18	C	02/05/2021	08:44	-133.843	47.579	0	35.20	0	8.8520	0	32.3260	0	25.049	0	34.903	0	270.4	4	94.2	4	-1E+10	1	-1E+10	1	-1E+10	1	-1E+10	1	-1E+10	1	-1E+10	1
4902549	18	C	02/05/2021	08:44	-133.843	47.579	0	45.10	0	8.8450	0	32.3250	0	25.049	0	44.718	0	270.3	4	94.2	4	-1E+10	1	-1E+10	1	-1E+10	1	-1E+10	1	-1E+10	1	-1E+10	1
4902549	18	C	02/05/2021	08:44	-133.843	47.579	0	55.30	0	8.8470	0	32.3250	0	25.049	0	54.831	0	270.1	4	94.1	4	-1E+10	1	-1E+10	1	-1E+10	1	-1E+10	1	-1E+10	1	-1E+10	1
4902549	18	C	02/05/2021	08:44	-133.843	47.579	0	65.70	0	8.8440	0	32.3260	0	25.050	0	65.141	0	269.8	4	94.0	4	-1E+10	1	-1E+10	1	-1E+10	1	-1E+10	1	-1E+10	1	-1E+10	1
4902549	18	C	02/05/2021	08:44	-133.843	47.579	0	75.50	0	8.8410	0	32.3250	0	25.050	0	74.856	0	269.6	4	93.9	4	-1E+10	1	-1E+10	1	-1E+10	1	-1E+10	1	-1E+10	1	-1E+10	1
4902549	18	C	02/05/2021	08:44	-133.843	47.579	0	85.50	0	8.8390	0	32.3250	0	25.051	0	84.768	0	269.1	4	93.7	4	-1E+10	1	-1E+10	1	-1E+10	1	-1E+10	1	-1E+10	1	-1E+10	1
4902549	18	C	02/05/2021	08:44	-133.843	47.579	0	95.50	0	8.8350	0	32.3250	0	25.051	0	94.680	0	268.2	4	93.4	4	-1E+10	1	-1E+10	1	-1E+10	1	-1E+10	1	-1E+10	1	-1E+10	1
4902549	18	C	02/05/2021	08:44	-133.843	47.579	0	105.30	0	8.7980	0	32.3230	0	25.056	0	104.394	0	266.4	4	92.7	4	-1E+10	1	-1E+10	1	-1E+10	1	-1E+10	1	-1E+10	1	-1E+10	1
4902549	18	C	02/05/2021	08:44	-133.843	47.579	0	115.70	0	8.7830	0	32.3230	0	25.058	0	114.701	0	260.5	4	90.6	4	-1E+10	1	-1E+10	1	-1E+10	1	-1E+10	1	-1E+10	1	-1E+10	1
4902549	18	C	02/05/2021	08:44	-133.843	47.579	0	125.30	0	8.1000	0	32.6350	0	25.404	0	124.216	0	226.2	4	77.7	4	-1E+10	1	-1E+10	1	-1E+10	1	-1E+10	1	-1E+10	1	-1E+10	1
4902549	18	C	02/05/2021	08:44	-133.843	47.579	0	134.90	0	7.2450	0	33.0130	0	25.822	0	133.729	0	208.9	4	70.5	4	-1E+10	1	-1E+10	1	-1E+10	1	-1E+10	1	-1E+10	1	-1E+10	1
4902549	18	C	02/05/2021	08:44	-133.843	47.579	0	145.20	0	7.0270	0	33.2280	0	26.021	0	143.936	0	202.4	4	68.1	4	-1E+10	1	-1E+10	1	-1E+10	1	-1E+10	1	-1E+10	1	-1E+10	1
4902549	18	C	02/05/2021	08:44	-133.843	47.579	0	155.70	0	6.8770	0	33.3960	0	26.174	0	154.341	0	197.3	4	66.3	4	-1E+10	1	-1E+10	1	-1E+10	1	-1E+10	1	-1E+10	1	-1E+10	1
4902549	18	C	02/05/2021	08:44	-133.843	47.579	0	165.50	0	6.8000	0	33.4910	0	26.259	0	164.052	0	193.2	4	64.8	4	-1E+10	1	-1E+10	1	-1E+10	1	-1E+10	1	-1E+10	1	-1E+10	1
4902549	18	C	02/05/2021	08:44	-133.843	47.579	0	175.70	0	6.6930	0	33.5690	0	26.335	0	174.158	0	188.4	4	63.1	4	-1E+10	1	-1E+10	1	-1E+10	1	-1E+10	1	-1E+10	1	-1E+10	1
4902549	18	C	02/05/2021	08:44	-133.843	47.579	0	185.60	0	6.6000	0	33.6360	0	26.400	0	183.967	0	181.5	4	60.7	4	-1E+10	1	-1E+10	1	-1E+10	1	-1E+10	1	-1E+10	1	-1E+10	1
4902549	18	C	02/05/2021	08:44	-133.843	47.579	0	195.50	0	6.4730	0	33.6820	0	26.453	0	193.775	0	173.2	4	57.8	4	-1E+10	1	-1E+10	1	-1E+10	1	-1E+10	1	-1E+10	1	-1E+10	1
4902549	18	C	02/05/2021	08:44	-133.843	47.579	0	213.00	0	6.3230	0	33.7440	0	26.522	0	211.112	0	156.8	4	52.1	4	-1E+10	1	-1E+10	1	-1E+10	1	-1E+10	1	-1E+10	1	-1E+10	1
4902549	18	C	02/05/2021	08:44	-133.843	47.579	0	238.20	0	6.1080	0	33.7910	0	26.586	0	236.074	0	140.9	4	46.6	4	-1E+10	1	-1E+10	1	-1E+10	1	-1E+10	1	-1E+10	1	-1E+10	1
4902549	18	C	02/05/2021	08:44	-133.843	47.579	0	263.80	0	5.7850	0	33.8220	0	26.651	0	261.429	0	126.5	4	41.6	4	-1E+10	1	-1E+10	1	-1E+10	1	-1E+10	1	-1E+10	1	-1E+10	1
4902549	18	C	02/05/2021	08:44	-133.843	47.579	0	288.10	0	5.4870	0	33.8390	0	26.701	0	285.494	0	114.5	4	37.4	4	-1E+10	1	-1E+10	1	-1E+10	1	-1E+10	1	-1E+10	1	-1E+10	1
4902549	18	C	02/05/2021	08:44	-133.843	47.579	0	313.00	0	5.2570	0	33.8540	0	26.740	0	310.151	0	101.8	4	33.0	4	-1E+10	1	-1E+10	1	-1E+10	1	-1E+10	1	-1E+10	1	-1E+10	1
4902549	18	C	02/05/2021	08:44	-133.843	47.579	0	338.10	0	5.0570	0	33.8710	0	26.777	0	335.002	0	89.0	4	28.8	4	-1E+10	1	-1E+10	1	-1E+10	1	-1E+10	1	-1E+10	1	-1E+10	1
4902549	18	C	02/05/2021	08:44	-133.843	47.579	0	363.20	0	4.9260	0	33.8920	0	26.809	0	359.850	0	77.8	4	25.1	4	-1E+10	1	-1E+10	1	-1E+10	1	-1E+10	1	-1E+10	1	-1E+10	1
4902549	18	C	02/05/2021	08:44	-133.843	47.579	0	388.10	0	4.7700	0	33.9160	0	26.845	0	384.497	0	67.7	4	21.7	4	-1E+10	1	-1E+10	1	-1E+10	1	-1E+10	1	-1E+10	1	-1E+10	1
4902549	18	C	02/05/2021	08:44	-133.843	47.579	0	413.10	0	4.6820	0	33.9470	0	26.880	0	409.240	0	57.2	4	18.3	4	-1E+10	1	-1E+10	1	-1E+10	1	-1E+10	1	-1E+10	1	-1E+10	1
4902549	18	C	02/05/2021	08:44	-133.843	47.579	0	438.60	0	4.5710	0	33.9780	0	26.917	0	434.476	0	49.3	4	15.8	4	-1E+10	1	-1E+10	1	-1E+10	1	-1E+10	1	-1E+10	1	-1E+10	1
4902549	18	C	02/05/2021	08:44	-133.843	47.579	0	462.30	0	4.4710	0	34.0100	0	26.953	0	457.927	0	40.7	4	13.0	4	-1E+10	1	-1E+10	1	-1E+10	1	-1E+10	1	-1E+10	1	-1E+10	1
4902549	18	C	02/05/2021	08:44	-133.843	47.579	0	487.70	0	4.3920	0	34.0300	0	26.977	0	483.057	0	36.7	4	11.7	4	-1E+10	1	-1E+10	1	-1E+10	1	-1E+10	1	-1E+10	1	-1E+10	1
4902549	18	C	02/05/2021	08:44	-133.843	47.579	0	513.10	0	4.2880	0	34.0500	0	27.005	0	508.184	0	33.5	4	10.6	4	-1E+10	1	-1E+10	1	-1E+10	1	-1E+10	1	-1E+10	1	-1E+10	1
4902549	18	C	02/05/2021	08:44	-133.843	47.579	0	538.30	0	4.2230	0	34.0710	0	27.028	0	533.110	0	29.3	4	9.3	4	-1E+10	1	-1E+10	1	-1E+10	1	-1E+10	1	-1E+10	1	-1E+10	1
4902549	18	C	02/05/2021	08:44	-133.843	47.579	0	563.10	0	4.1910	0	34.0910	0	27.048	0	557.638	0	25.7	4	8.1	4	-1E+10	1	-1E+10	1	-1E+10	1	-1E+10	1	-1E+10	1	-1E+10	1
4902549	18	C	02/05/2021	08:44	-133.843	47.579	0	588.00	0	4.1240	0	34.1080	0	27.068	0	582.261	0	23.8	4	7.5	4	-1E+10	1	-1E+10	1	-1E+10	1	-1E+10	1	-1E+10	1	-1E+10	1
4902549	18	C	02/05/2021	08:44	-133.843	47.579	0	612.80	0	4.0310	0	34.1210	0	27.088	0	606.783	0	23.0	4	7.3	4	-1E+10	1	-1E+10	1	-1E+10	1	-1E+10	1	-1E+10	1	-1E+10	1
4902549	18	C	02/05/2021	08:44	-133.843	47.579	0	638.00	0	3.9540	0	34.1400	0	27.112	0	631.698	0	20.9	4	6.6	4	-1E+10	1	-1E+10	1	-1E+10	1	-1E+10	1	-1E+10	1	-1E+10	1
4902549	18	C	02/05/2021	08:44	-133.843	47.579	0	662.40	0	3.8810	0	34.1580	0	27.133	0	655.818	0	19.4	4	6.1	4	-1E+10	1	-1E+10	1	-1E+10	1	-1E+10	1	-1E+10	1	-1E+10	1
4902549	18	C	02/05/2021	08:44	-133.843	47.579	0	687.60	0	3.8170	0	34.1760	0	27.154	0	680.727	0	17.7	4	5.6	4	-1E+10	1	-1E+10	1	-1E+10	1	-1E+10	1	-1E+10	1	-1E+10	1
4902549	18	C	02/05/2021	08:44	-133.843	47.579	0	712.60	0	3.7580	0	34.1930	0	27.174	0	705.435	0	15.9	4	5.0	4	-1E+10	1	-1E+10	1	-1E+10	1	-1E+10	1	-1E+10	1	-1E+10	1
4902549	18	C	02/05/2021	08:44	-133.843	47.579	0	737.80	0	3.6990	0	34.2100	0	27.193	0	730.337	0	14.4	4	4.5	4	-1E+10	1	-1E+10	1	-1E+10	1	-1E+10	1	-1E+10	1	-1E+10	1
4902549	18	C	02/05/2021	08:44	-133.843	47.579	0	763.10	0	3.6350	0	34.2270	0	27.213	0	755.335	0	12.8	4	4.0	4	-1E+10	1	-1E+10	1	-1E+10	1	-1E+10	1	-1E+10	1	-1E+10	1
4902549	18	C	02/05/2021	08:44	-133.843	47.579	0	788.00	0	3.6090	0	34.2500	0	27.234	0	779.936	0	10.3	4	3.2	4	-1E+10	1	-1E+10	1	-1E+10	1	-1E+10	1	-1E+10	1	-1E+10	1
4902549	18	C	02/05/2021	08:44	-133.843	47.579	0	813.00	0	3.5580	0	34.2650	0	27.251	0	804.632	0	9.7	4	3.0	4	-1E+10	1	-1E+10	1	-1E+10	1	-1E+10	1	-1E+10	1	-1E+10	1
4902549	18	C	02/05/2021	08:44	-133.843	47.579	0	838.60	0	3.4880	0	34.2780	0	27.269	0	829.917	0	9.3	4	2.9	4	-1E+10	1	-1E+10	1	-1E+10	1	-1E+10	1	-1E+10	1	-1E+10	1
4902549	18	C	02/05/2021	08:44	-133.843	47.579	0	862.90	0	3.4240	0	34.2890	0	27.284	0	853.916	0	9.1	4	2.8	4	-1E+10	1	-1E+10	1	-1E+10	1	-1E+10	1	-1E+10	1	-1E+10	1
4902549	18	C	02/05/2021	08:44	-133.843	47.579	0	887.80	0	3.3480	0	34.3020	0	27.301	0	878.504	0	8.9	4	2.8	4	-1E+10	1	-1E+10	1	-1E+10	1	-1E+10	1	-1E+10	1	-1E+10	1
4902549	18	C	02/05/2021	08:44	-133.843	47.579	0	912.60	0	3.2830	0	34.3150	0	27.318	0	902.991	0	8.8	4	2.7	4	-1E+10	1	-1E+10	1	-1E+10	1	-1E+10	1	-1E+10	1	-1E+10	1
4902549	18	C	02/05/2021	08:44	-133.843	47.579	0	937.80	0	3.2410	0	34.3240	0	27.329	0	927.870	0	8.6	4	2.7	4	-1E+10	1	-1E+10	1	-1E+10	1	-1E+10	1	-1E+10	1	-1E+10	1
4902549	18	C	02/05/2021	08:44	-133.843	47.579	0	962.80	0	3.1980	0	34.3350	0	27.342	0	952.549	0	8.5	4	2.6	4	-1E+10	1	-1E+10	1	-1E+10	1	-1E+10	1	-1E+10	1	-1E+10	1
4902549	18	C	02/05/2021	08:44	-133.843	47.579	0	987.80	0	3.1570	0	34.3430	0	27.353	0	977.224	0	8.4	4	2.6	4	-1E+10	1	-1E+10	1	-1E+10	1	-1E+10	1	-1E+10	1	-1E+10	1
4902549	18	C	02/05/2021	08:44	-133.843	47.579	0	1013.10	0	3.0990	0	34.3540	0	27.367	0	1002.193	0	8.4	4	2.6	4	-1E+10	1	-1E+10	1	-1E+10	1	-1E+10	1	-1E+10	1	-1E+10	1
4902549	18	C	02/05/2021	08:44	-133.843	47.579	0	1037.60	0	3.0560	0	34.3620	0	27.377	0	1026.369	0	8.4	4	2.6	4	-1E+10	1	-1E+10	1	-1E+10	1	-1E+10	1	-1E+10	1	-1E+10	1
4902549	18	C	02/05/2021	08:44	-133.843	47.579	0	1062.50	0	3.0050	0	34.3730	0	27.391	0	1050.937	0	8.3	4	2.6	4	-1E+10	1	-1E+10	1	-1E+10	1	-1E+10	1	-1E+10	1	-1E+10	1
4902549	18	C	02/05/2021	08:44	-133.843	47.579	0	1087.60	0	2.9850	0	34.3850	0	27.402	0	1075.700	0	8.1	4	2.5	4	-1E+10	1	-1E+10	1	-1E+10	1	-1E+10	1	-1E+10	1	-1E+10	1
4902549	18	C	02/05/2021	08:44	-133.843	47.579	0	1112.70	0	2.9600	0	34.3930	0	27.411	0	1100.459	0	8.1	4	2.5	4	-1E+10	1	-1E+10	1	-1E+10	1	-1E+10	1	-1E+10	1	-1E+10	1
4902549	18	C	02/05/2021	08:44	-133.843	47.579	0	1138.30	0	2.9450	0	34.4030	0	27.421	0	1125.709	0	8.1	4	2.5	4	-1E+10	1	-1E+10	1	-1E+10	1	-1E+10	1	-1E+10	1	-1E+10	1
4902549	18	C	02/05/2021	08:44	-133.843	47.579	0	1162.90	0	2.9140	0	34.4070	0	27.427	0	1149.970	0	8.4	4	2.6	4	-1E+10	1	-1E+10	1	-1E+10	1	-1E+10	1	-1E+10	1	-1E+10	1
4902549	18	C	02/05/2021	08:44	-133.843	47.579	0	1187.90	0	2.8700	0	34.4150	0	27.437	0	1174.622	0	8.7	4	2.7	4	-1E+10	1	-1E+10	1	-1E+10	1	-1E+10	1	-1E+10	1	-1E+10	1
4902549	18	C	02/05/2021	08:44	-133.843	47.579	0	1213.00	0	2.8270	0	34.4200	0	27.445	0	1199.370	0	9.0	4	2.8	4	-1E+10	1	-1E+10	1	-1E+10	1	-1E+10	1	-1E+10	1	-1E+10	1
4902549	18	C	02/05/2021	08:44	-133.843	47.579	0	1238.00	0	2.7930	0	34.4260	0	27.453	0	1224.016	0	9.4	4	2.9	4	-1E+10	1	-1E+10	1	-1E+10	1	-1E+10	1	-1E+10	1	-1E+10	1
4902549	18	C	02/05/2021	08:44	-133.843	47.579	0	1263.40	0	2.7540	0	34.4340	0	27.463	0	1249.054	0	9.9	4	3.0	4	-1E+10	1	-1E+10	1	-1E+10	1	-1E+10	1	-1E+10	1	-1E+10	1
4902549	18	C	02/05/2021	08:44	-133.843	47.579	0	1288.20	0	2.7080	0	34.4430	0	27.474	0	1273.497	0	10.5	4	3.2	4	-1E+10	1	-1E+10	1	-1E+10	1	-1E+10	1	-1E+10	1	-1E+10	1
4902549	18	C	02/05/2021	08:44	-133.843	47.579	0	1312.80	0	2.6680	0	34.4490	0	27.483	0	1297.741	0	10.9	4	3.3	4	-1E+10	1	-1E+10	1	-1E+10	1	-1E+10	1	-1E+10	1	-1E+10	1
4902549	18	C	02/05/2021	08:44	-133.843	47.579	0	1337.30	0	2.6210	0	34.4560	0	27.492	0	1321.883	0	11.5	4	3.5	4	-1E+10	1	-1E+10	1	-1E+10	1	-1E+10	1	-1E+10	1	-1E+10	1
4902549	18	C	02/05/2021	08:44	-133.843	47.579	0	1362.60	0	2.5720	0	34.4640	0	27.503	0	1346.811	0	12.6	4	3.9	4	-1E+10	1	-1E+10	1	-1E+10	1	-1E+10	1	-1E+10	1	-1E+10	1
4902549	18	C	02/05/2021	08:44	-133.843	47.579	0	1387.90	0	2.5280	0	34.4720	0	27.513	0	1371.735	0	13.9	4	4.3	4	-1E+10	1	-1E+10	1	-1E+10	1	-1E+10	1	-1E+10	1	-1E+10	1
4902549	18	C	02/05/2021	08:44	-133.843	47.579	0	1412.50	0	2.4920	0	34.4790	0	27.522	0	1395.967	0	15.0	4	4.6	4	-1E+10	1	-1E+10	1	-1E+10	1	-1E+10	1	-1E+10	1	-1E+10	1
4902549	18	C	02/05/2021	08:44	-133.843	47.579	0	1437.90	0	2.4580	0	34.4850	0	27.530	0	1420.985	0	16.2	4	4.9	4	-1E+10	1	-1E+10	1	-1E+10	1	-1E+10	1	-1E+10	1	-1E+10	1
4902549	18	C	02/05/2021	08:44	-133.843	47.579	0	1462.70	0	2.4240	0	34.4910	0	27.538	0	1445.408	0	17.5	4	5.3	4	-1E+10	1	-1E+10	1	-1E+10	1	-1E+10	1	-1E+10	1	-1E+10	1
4902549	18	C	02/05/2021	08:44	-133.843	47.579	0	1487.80	0	2.3920	0	34.4970	0	27.545	0	1470.124	0	18.8	4	5.7	4	-1E+10	1	-1E+10	1	-1E+10	1	-1E+10	1	-1E+10	1	-1E+10	1
4902549	18	C	02/05/2021	08:44	-133.843	47.579	0	1513.10	0	2.3670	0	34.5020	0	27.551	0	1495.034	0	19.9	4	6.1	4	-1E+10	1	-1E+10	1	-1E+10	1	-1E+10	1	-1E+10	1	-1E+10	1
4902549	18	C	02/05/2021	08:44	-133.843	47.579	0	1538.00	0	2.3450	0	34.5060	0	27.556	0	1519.547	0	21.0	4	6.4	4	-1E+10	1	-1E+10	1	-1E+10	1	-1E+10	1	-1E+10	1	-1E+10	1
4902549	18	C	02/05/2021	08:44	-133.843	47.579	0	1562.80	0	2.3180	0	34.5110	0	27.563	0	1543.959	0	22.4	4	6.8	4	-1E+10	1	-1E+10	1	-1E+10	1	-1E+10	1	-1E+10	1	-1E+10	1
4902549	18	C	02/05/2021	08:44	-133.843	47.579	0	1588.00	0	2.2910	0	34.5160	0	27.569	0	1568.762	0	23.8	4	7.2	4	-1E+10	1	-1E+10	1	-1E+10	1	-1E+10	1	-1E+10	1	-1E+10	1
4902549	18	C	02/05/2021	08:44	-133.843	47.579	0	1613.10	0	2.2640	0	34.5210	0	27.575	0	1593.464	0	25.2	4	7.6	4	-1E+10	1	-1E+10	1	-1E+10	1	-1E+10	1	-1E+10	1	-1E+10	1
4902549	18	C	02/05/2021	08:44	-133.843	47.579	0	1637.80	0	2.2410	0	34.5250	0	27.581	0	1617.769	0	26.7	4	8.1	4	-1E+10	1	-1E+10	1	-1E+10	1	-1E+10	1	-1E+10	1	-1E+10	1
4902549	18	C	02/05/2021	08:44	-133.843	47.579	0	1662.90	0	2.2160	0	34.5300	0	27.587	0	1642.464	0	28.3	4	8.6	4	-1E+10	1	-1E+10	1	-1E+10	1	-1E+10	1	-1E+10	1	-1E+10	1
4902549	18	C	02/05/2021	08:44	-133.843	47.579	0	1687.90	0	2.1920	0	34.5350	0	27.593	0	1667.059	0	29.6	4	9.0	4	-1E+10	1	-1E+10	1	-1E+10	1	-1E+10	1	-1E+10	1	-1E+10	1
4902549	18	C	02/05/2021	08:44	-133.843	47.579	0	1713.50	0	2.1690	0	34.5390	0	27.598	0	1692.241	0	31.1	4	9.4	4	-1E+10	1	-1E+10	1	-1E+10	1	-1E+10	1	-1E+10	1	-1E+10	1
4902549	18	C	02/05/2021	08:44	-133.843	47.579	0	1737.90	0	2.1440	0	34.5430	0	27.603	0	1716.239	0	32.6	4	9.9	4	-1E+10	1	-1E+10	1	-1E+10	1	-1E+10	1	-1E+10	1	-1E+10	1
4902549	18	C	02/05/2021	08:44	-133.843	47.579	0	1762.70	0	2.1220	0	34.5470	0	27.608	0	1740.629	0	34.1	4	10.3	4	-1E+10	1	-1E+10	1	-1E+10	1	-1E+10	1	-1E+10	1	-1E+10	1
4902549	18	C	02/05/2021	08:44	-133.843	47.579	0	1787.60	0	2.1000	0	34.5510	0	27.614	0	1765.113	0	35.4	4	10.7	4	-1E+10	1	-1E+10	1	-1E+10	1	-1E+10	1	-1E+10	1	-1E+10	1
4902549	18	C	02/05/2021	08:44	-133.843	47.579	0	1812.80	0	2.0820	0	34.5550	0	27.618	0	1789.890	0	36.8	4	11.1	4	-1E+10	1	-1E+10	1	-1E+10	1	-1E+10	1	-1E+10	1	-1E+10	1
4902549	18	C	02/05/2021	08:44	-133.843	47.579	0	1838.10	0	2.0620	0	34.5590	0	27.623	0	1814.763	0	38.3	4	11.6	4	-1E+10	1	-1E+10	1	-1E+10	1	-1E+10	1	-1E+10	1	-1E+10	1
4902549	18	C	02/05/2021	08:44	-133.843	47.579	0	1863.10	0	2.0430	0	34.5630	0	27.628	0	1839.337	0	39.7	4	12.0	4	-1E+10	1	-1E+10	1	-1E+10	1	-1E+10	1	-1E+10	1	-1E+10	1
4902549	18	C	02/05/2021	08:44	-133.843	47.579	0	1888.50	0	2.0260	0	34.5660	0	27.632	0	1864.302	0	41.1	4	12.4	4	-1E+10	1	-1E+10	1	-1E+10	1	-1E+10	1	-1E+10	1	-1E+10	1
4902549	18	C	02/05/2021	08:44	-133.843	47.579	0	1912.70	0	2.0090	0	34.5700	0	27.637	0	1888.084	0	42.5	4	12.8	4	-1E+10	1	-1E+10	1	-1E+10	1	-1E+10	1	-1E+10	1	-1E+10	1
4902549	18	C	02/05/2021	08:44	-133.843	47.579	0	1937.80	0	1.9920	0	34.5730	0	27.640	0	1912.749	0	44.0	4	13.3	4	-1E+10	1	-1E+10	1	-1E+10	1	-1E+10	1	-1E+10	1	-1E+10	1
4902549	18	C	02/05/2021	08:44	-133.843	47.579	0	1962.90	0	1.9790	0	34.5760	0	27.644	0	1937.410	0	45.3	4	13.6	4	-1E+10	1	-1E+10	1	-1E+10	1	-1E+10	1	-1E+10	1	-1E+10	1
4902549	18	C	02/05/2021	08:44	-133.843	47.579	0	1988.20	0	1.9640	0	34.5800	0	27.649	0	1962.265	0	46.4	4	14.0	4	-1E+10	1	-1E+10	1	-1E+10	1	-1E+10	1	-1E+10	1	-1E+10	1
4902549	18	C	02/05/2021	08:44	-133.843	47.579	0	2013.70	0	1.9520	0	34.5820	0	27.651	0	1987.314	0	47.4	4	14.3	4	-1E+10	1	-1E+10	1	-1E+10	1	-1E+10	1	-1E+10	1	-1E+10	1
4902549	18	C	02/05/2021	08:44	-133.843	47.579	0	2027.10	0	1.9430	0	34.5840	0	27.654	0	2000.475	0	47.9	4	14.4	4	-1E+10	1	-1E+10	1	-1E+10	1	-1E+10	1	-1E+10	1	-1E+10	1
4902549	18	C	02/05/2021	08:44	-133.843	47.579	0																										
4902549	19	C	02/15/2021	09:01	-133.772	47.592	0	0.30	0	8.8570	0	32.3270	0	25.048	0	0.297	0	271.9	4	94.7	4	-1E+10	1	-1E+10	1	-1E+10	1	-1E+10	1	-1E+10	1	-1E+10	1
4902549	19	C	02/15/2021	09:01	-133.772	47.592	0	1.10	0	8.8590	0	32.3260	0	25.047	0	1.091	0	271.9	4	94.7	4	-1E+10	1	-1E+10	1	-1E+10	1	-1E+10	1	-1E+10	1	-1E+10	1
4902549	19	C	02/15/2021	09:01	-133.772	47.592	0	1.90	0	8.8590	0	32.3260	0	25.047	0	1.884	0	271.8	4	94.7	4	-1E+10	1	-1E+10	1	-1E+10	1	-1E+10	1	-1E+10	1	-1E+10	1
4902549	19	C	02/15/2021	09:01	-133.772	47.592	0	3.00	0	8.8590	0	32.3270	0	25.048	0	2.975	0	271.8	4	94.7	4	-1E+10	1	-1E+10	1	-1E+10	1	-1E+10	1	-1E+10	1	-1E+10	1
4902549	19	C	02/15/2021	09:01	-133.772	47.592	0	4.10	0	8.8590	0	32.3270	0	25.048	0	4.066	0	271.9	4	94.7	4	-1E+10	1	-1E+10	1	-1E+10	1	-1E+10	1	-1E+10	1	-1E+10	1
4902549	19	C	02/15/2021	09:01	-133.772	47.592	0	5.10	0	8.8600	0	32.3270	0	25.048	0	5.057	0	271.8	4	94.7	4	-1E+10	1	-1E+10	1	-1E+10	1	-1E+10	1	-1E+10	1	-1E+10	1
4902549	19	C	02/15/2021	09:01	-133.772	47.592	0	6.00	0	8.8610	0	32.3270	0	25.047	0	5.950	0	271.8	4	94.7	4	-1E+10	1	-1E+10	1	-1E+10	1	-1E+10	1	-1E+10	1	-1E+10	1
4902549	19	C	02/15/2021	09:01	-133.772	47.592	0	7.10	0	8.8610	0	32.3270	0	25.047	0	7.041	0	271.7	4	94.7	4	-1E+10	1	-1E+10	1	-1E+10	1	-1E+10	1	-1E+10	1	-1E+10	1
4902549	19	C	02/15/2021	09:01	-133.772	47.592	0	8.00	0	8.8600	0	32.3270	0	25.048	0	7.933	0	271.7	4	94.7	4	-1E+10	1	-1E+10	1	-1E+10	1	-1E+10	1	-1E+10	1	-1E+10	1
4902549	19	C	02/15/2021	09:01	-133.772	47.592	0	9.00	0	8.8620	0	32.3270	0	25.047	0	8.925	0	271.6	4	94.6	4	-1E+10	1	-1E+10	1	-1E+10	1	-1E+10	1	-1E+10	1	-1E+10	1
4902549	19	C	02/15/2021	09:01	-133.772	47.592	0	9.90	0	8.8620	0	32.3270	0	25.047	0	9.817	0	271.6	4	94.7	4	-1E+10	1	-1E+10	1	-1E+10	1	-1E+10	1	-1E+10	1	-1E+10	1
4902549	19	C	02/15/2021	09:01	-133.772	47.592	0	15.50	0	8.8650	0	32.3270	0	25.047	0	15.370	0	271.5	4	94.6	4	-1E+10	1	-1E+10	1	-1E+10	1	-1E+10	1	-1E+10	1	-1E+10	1
4902549	19	C	02/15/2021	09:01	-133.772	47.592	0	25.50	0	8.8660	0	32.3270	0	25.047	0	25.285	0	271.4	4	94.6	4	-1E+10	1	-1E+10	1	-1E+10	1	-1E+10	1	-1E+10	1	-1E+10	1
4902549	19	C	02/15/2021	09:01	-133.772	47.592	0	35.10	0	8.8630	0	32.3270	0	25.048	0	34.804	0	271.3	4	94.6	4	-1E+10	1	-1E+10	1	-1E+10	1	-1E+10	1	-1E+10	1	-1E+10	1
4902549	19	C	02/15/2021	09:01	-133.772	47.592	0	45.50	0	8.8470	0	32.3250	0	25.049	0	45.115	0	271.3	4	94.5	4	-1E+10	1	-1E+10	1	-1E+10	1	-1E+10	1	-1E+10	1	-1E+10	1
4902549	19	C	02/15/2021	09:01	-133.772	47.592	0	55.60	0	8.8410	0	32.3250	0	25.050	0	55.128	0	271.2	4	94.4	4	-1E+10	1	-1E+10	1	-1E+10	1	-1E+10	1	-1E+10	1	-1E+10	1
4902549	19	C	02/15/2021	09:01	-133.772	47.592	0	65.20	0	8.8410	0	32.3250	0	25.050	0	64.645	0	270.9	4	94.4	4	-1E+10	1	-1E+10	1	-1E+10	1	-1E+10	1	-1E+10	1	-1E+10	1
4902549	19	C	02/15/2021	09:01	-133.772	47.592	0	75.60	0	8.8210	0	32.3240	0	25.052	0	74.955	0	270.6	4	94.2	4	-1E+10	1	-1E+10	1	-1E+10	1	-1E+10	1	-1E+10	1	-1E+10	1
4902549	19	C	02/15/2021	09:01	-133.772	47.592	0	85.40	0	8.8050	0	32.3250	0	25.056	0	84.669	0	270.0	4	93.9	4	-1E+10	1	-1E+10	1	-1E+10	1	-1E+10	1	-1E+10	1	-1E+10	1
4902549	19	C	02/15/2021	09:01	-133.772	47.592	0	95.50	0	8.7920	0	32.3250	0	25.058	0	94.680	0	268.8	4	93.5	4	-1E+10	1	-1E+10	1	-1E+10	1	-1E+10	1	-1E+10	1	-1E+10	1
4902549	19	C	02/15/2021	09:01	-133.772	47.592	0	105.30	0	8.7730	0	32.3280	0	25.063	0	104.394	0	265.3	4	92.3	4	-1E+10	1	-1E+10	1	-1E+10	1	-1E+10	1	-1E+10	1	-1E+10	1
4902549	19	C	02/15/2021	09:01	-133.772	47.592	0	115.40	0	8.4650	0	32.4060	0	25.171	0	114.404	0	247.6	4	85.6	4	-1E+10	1	-1E+10	1	-1E+10	1	-1E+10	1	-1E+10	1	-1E+10	1
4902549	19	C	02/15/2021	09:01	-133.772	47.592	0	125.10	0	7.7400	0	32.8100	0	25.594	0	124.017	0	218.0	4	74.4	4	-1E+10	1	-1E+10	1	-1E+10	1	-1E+10	1	-1E+10	1	-1E+10	1
4902549	19	C	02/15/2021	09:01	-133.772	47.592	0	135.10	0	7.1450	0	33.1140	0	25.916	0	133.927	0	203.4	4	68.6	4	-1E+10	1	-1E+10	1	-1E+10	1	-1E+10	1	-1E+10	1	-1E+10	1
4902549	19	C	02/15/2021	09:01	-133.772	47.592	0	145.50	0	6.8430	0	33.3340	0	26.130	0	144.234	0	195.3	4	65.5	4	-1E+10	1	-1E+10	1	-1E+10	1	-1E+10	1	-1E+10	1	-1E+10	1
4902549	19	C	02/15/2021	09:01	-133.772	47.592	0	155.40	0	6.7630	0	33.4310	0	26.217	0	154.044	0	190.9	4	64.0	4	-1E+10	1	-1E+10	1	-1E+10	1	-1E+10	1	-1E+10	1	-1E+10	1
4902549	19	C	02/15/2021	09:01	-133.772	47.592	0	165.40	0	6.6970	0	33.5100	0	26.288	0	163.952	0	185.5	4	62.1	4	-1E+10	1	-1E+10	1	-1E+10	1	-1E+10	1	-1E+10	1	-1E+10	1
4902549	19	C	02/15/2021	09:01	-133.772	47.592	0	175.40	0	6.6180	0	33.5820	0	26.355	0	173.861	0	177.6	4	59.4	4	-1E+10	1	-1E+10	1	-1E+10	1	-1E+10	1	-1E+10	1	-1E+10	1
4902549	19	C	02/15/2021	09:01	-133.772	47.592	0	185.70	0	6.5090	0	33.6550	0	26.427	0	184.066	0	169.6	4	56.6	4	-1E+10	1	-1E+10	1	-1E+10	1	-1E+10	1	-1E+10	1	-1E+10	1
4902549	19	C	02/15/2021	09:01	-133.772	47.592	0	195.80	0	6.4280	0	33.6990	0	26.472	0	194.072	0	162.1	4	54.0	4	-1E+10	1	-1E+10	1	-1E+10	1	-1E+10	1	-1E+10	1	-1E+10	1
4902549	19	C	02/15/2021	09:01	-133.772	47.592	0	212.90	0	6.2300	0	33.7610	0	26.547	0	211.013	0	148.1	4	49.1	4	-1E+10	1	-1E+10	1	-1E+10	1	-1E+10	1	-1E+10	1	-1E+10	1
4902549	19	C	02/15/2021	09:01	-133.772	47.592	0	238.10	0	5.9330	0	33.8090	0	26.623	0	235.975	0	134.2	4	44.2	4	-1E+10	1	-1E+10	1	-1E+10	1	-1E+10	1	-1E+10	1	-1E+10	1
4902549	19	C	02/15/2021	09:01	-133.772	47.592	0	262.80	0	5.7580	0	33.8260	0	26.658	0	260.439	0	125.1	4	41.1	4	-1E+10	1	-1E+10	1	-1E+10	1	-1E+10	1	-1E+10	1	-1E+10	1
4902549	19	C	02/15/2021	09:01	-133.772	47.592	0	288.10	0	5.5110	0	33.8430	0	26.701	0	285.494	0	113.2	4	37.0	4	-1E+10	1	-1E+10	1	-1E+10	1	-1E+10	1	-1E+10	1	-1E+10	1
4902549	19	C	02/15/2021	09:01	-133.772	47.592	0	312.80	0	5.3210	0	33.8570	0	26.735	0	309.952	0	104.2	4	33.9	4	-1E+10	1	-1E+10	1	-1E+10	1	-1E+10	1	-1E+10	1	-1E+10	1
4902549	19	C	02/15/2021	09:01	-133.772	47.592	0	337.50	0	5.2040	0	33.8660	0	26.756	0	334.407	0	97.4	4	31.6	4	-1E+10	1	-1E+10	1	-1E+10	1	-1E+10	1	-1E+10	1	-1E+10	1
4902549	19	C	02/15/2021	09:01	-133.772	47.592	0	362.60	0	5.0660	0	33.8780	0	26.782	0	359.256	0	89.4	4	28.9	4	-1E+10	1	-1E+10	1	-1E+10	1	-1E+10	1	-1E+10	1	-1E+10	1
4902549	19	C	02/15/2021	09:01	-133.772	47.592	0	388.00	0	4.9320	0	33.8930	0	26.809	0	384.398	0	81.3	4	26.2	4	-1E+10	1	-1E+10	1	-1E+10	1	-1E+10	1	-1E+10	1	-1E+10	1
4902549	19	C	02/15/2021	09:01	-133.772	47.592	0	412.90	0	4.8040	0	33.9110	0	26.838	0	409.042	0	71.9	4	23.1	4	-1E+10	1	-1E+10	1	-1E+10	1	-1E+10	1	-1E+10	1	-1E+10	1
4902549	19	C	02/15/2021	09:01	-133.772	47.592	0	437.60	0	4.6430	0	33.9430	0	26.881	0	433.485	0	60.5	4	19.4	4	-1E+10	1	-1E+10	1	-1E+10	1	-1E+10	1	-1E+10	1	-1E+10	1
4902549	19	C	02/15/2021	09:01	-133.772	47.592	0	462.60	0	4.5350	0	33.9750	0	26.918	0	458.223	0	51.8	4	16.5	4	-1E+10	1	-1E+10	1	-1E+10	1	-1E+10	1	-1E+10	1	-1E+10	1
4902549	19	C	02/15/2021	09:01	-133.772	47.592	0	487.80	0	4.4200	0	34.0080	0	26.957	0	483.155	0	42.8	4	13.6	4	-1E+10	1	-1E+10	1	-1E+10	1	-1E+10	1	-1E+10	1	-1E+10	1
4902549	19	C	02/15/2021	09:01	-133.772	47.592	0	513.00	0	4.3260	0	34.0380	0	26.991	0	508.084	0	36.2	4	11.5	4	-1E+10	1	-1E+10	1	-1E+10	1	-1E+10	1	-1E+10	1	-1E+10	1
4902549	19	C	02/15/2021	09:01	-133.772	47.592	0	538.00	0	4.2500	0	34.0630	0	27.019	0	532.813	0	31.5	4	10.0	4	-1E+10	1	-1E+10	1	-1E+10	1	-1E+10	1	-1E+10	1	-1E+10	1
4902549	19	C	02/15/2021	09:01	-133.772	47.592	0	563.10	0	4.2150	0	34.0770	0	27.034	0	557.637	0	28.2	4	8.9	4	-1E+10	1	-1E+10	1	-1E+10	1	-1E+10	1	-1E+10	1	-1E+10	1
4902549	19	C	02/15/2021	09:01	-133.772	47.592	0	587.60	0	4.1830	0	34.0980	0	27.054	0	581.865	0	23.9	4	7.6	4	-1E+10	1	-1E+10	1	-1E+10	1	-1E+10	1	-1E+10	1	-1E+10	1
4902549	19	C	02/15/2021	09:01	-133.772	47.592	0	612.90	0	4.1370	0	34.1210	0	27.078	0	606.881	0	20.2	4	6.4	4	-1E+10	1	-1E+10	1	-1E+10	1	-1E+10	1	-1E+10	1	-1E+10	1
4902549	19	C	02/15/2021	09:01	-133.772	47.592	0	637.60	0	4.0810	0	34.1430	0	27.101	0	631.301	0	17.2	4	5.4	4	-1E+10	1	-1E+10	1	-1E+10	1	-1E+10	1	-1E+10	1	-1E+10	1
4902549	19	C	02/15/2021	09:01	-133.772	47.592	0	662.40	0	3.9640	0	34.1630	0	27.129	0	655.817	0	17.7	4	5.6	4	-1E+10	1	-1E+10	1	-1E+10	1	-1E+10	1	-1E+10	1	-1E+10	1
4902549	19	C	02/15/2021	09:01	-133.772	47.592	0	687.50	0	3.8370	0	34.1710	0	27.148	0	680.627	0	17.7	4	5.6	4	-1E+10	1	-1E+10	1	-1E+10	1	-1E+10	1	-1E+10	1	-1E+10	1
4902549	19	C	02/15/2021	09:01	-133.772	47.592	0	713.00	0	3.7800	0	34.1890	0	27.168	0	705.829	0	16.0	4	5.0	4	-1E+10	1	-1E+10	1	-1E+10	1	-1E+10	1	-1E+10	1	-1E+10	1
4902549	19	C	02/15/2021	09:01	-133.772	47.592	0	738.10	0	3.7180	0	34.2050	0	27.188	0	730.633	0	14.5	4	4.6	4	-1E+10	1	-1E+10	1	-1E+10	1	-1E+10	1	-1E+10	1	-1E+10	1
4902549	19	C	02/15/2021	09:01	-133.772	47.592	0	762.60	0	3.6640	0	34.2210	0	27.206	0	754.840	0	13.1	4	4.1	4	-1E+10	1	-1E+10	1	-1E+10	1	-1E+10	1	-1E+10	1	-1E+10	1
4902549	19	C	02/15/2021	09:01	-133.772	47.592	0	788.20	0	3.6300	0	34.2400	0	27.224	0	780.132	0	11.3	4	3.5	4	-1E+10	1	-1E+10	1	-1E+10	1	-1E+10	1	-1E+10	1	-1E+10	1
4902549	19	C	02/15/2021	09:01	-133.772	47.592	0	812.40	0	3.5800	0	34.2580	0	27.244	0	804.038	0	10.1	4	3.2	4	-1E+10	1	-1E+10	1	-1E+10	1	-1E+10	1	-1E+10	1	-1E+10	1
4902549	19	C	02/15/2021	09:01	-133.772	47.592	0	837.50	0	3.5130	0	34.2740	0	27.263	0	828.830	0	9.4	4	2.9	4	-1E+10	1	-1E+10	1	-1E+10	1	-1E+10	1	-1E+10	1	-1E+10	1
4902549	19	C	02/15/2021	09:01	-133.772	47.592	0	862.50	0	3.4360	0	34.2870	0	27.281	0	853.520	0	9.1	4	2.8	4	-1E+10	1	-1E+10	1	-1E+10	1	-1E+10	1	-1E+10	1	-1E+10	1
4902549	19	C	02/15/2021	09:01	-133.772	47.592	0	887.70	0	3.3800	0	34.2980	0	27.295	0	878.405	0	8.9	4	2.8	4	-1E+10	1	-1E+10	1	-1E+10	1	-1E+10	1	-1E+10	1	-1E+10	1
4902549	19	C	02/15/2021	09:01	-133.772	47.592	0	912.60	0	3.3280	0	34.3060	0	27.307	0	902.990	0	8.8	4	2.8	4	-1E+10	1	-1E+10	1	-1E+10	1	-1E+10	1	-1E+10	1	-1E+10	1
4902549	19	C	02/15/2021	09:01	-133.772	47.592	0	937.50	0	3.2680	0	34.3180	0	27.322	0	927.573	0	8.7	4	2.7	4	-1E+10	1	-1E+10	1	-1E+10	1	-1E+10	1	-1E+10	1	-1E+10	1
4902549	19	C	02/15/2021	09:01	-133.772	47.592	0	962.60	0	3.2130	0	34.3310	0	27.338	0	952.350	0	8.4	4	2.6	4	-1E+10	1	-1E+10	1	-1E+10	1	-1E+10	1	-1E+10	1	-1E+10	1
4902549	19	C	02/15/2021	09:01	-133.772	47.592	0	987.50	0	3.1670	0	34.3420	0	27.351	0	976.927	0	8.3	4	2.6	4	-1E+10	1	-1E+10	1	-1E+10	1	-1E+10	1	-1E+10	1	-1E+10	1
4902549	19	C	02/15/2021	09:01	-133.772	47.592	0	1012.40	0	3.1380	0	34.3490	0	27.359	0	1001.501	0	8.2	4	2.5	4	-1E+10	1	-1E+10	1	-1E+10	1	-1E+10	1	-1E+10	1	-1E+10	1
4902549	19	C	02/15/2021	09:01	-133.772	47.592	0	1038.10	0	3.0790	0	34.3620	0	27.375	0	1026.861	0	8.2	4	2.5	4	-1E+10	1	-1E+10	1	-1E+10	1	-1E+10	1	-1E+10	1	-1E+10	1
4902549	19	C	02/15/2021	09:01	-133.772	47.592	0	1062.80	0	3.0430	0	34.3700	0	27.385	0	1051.232	0	8.1	4	2.5	4	-1E+10	1	-1E+10	1	-1E+10	1	-1E+10	1	-1E+10	1	-1E+10	1
4902549	19	C	02/15/2021	09:01	-133.772	47.592	0	1088.20	0	3.0100	0	34.3810	0	27.397	0	1076.290	0	7.9	4	2.4	4	-1E+10	1	-1E+10	1	-1E+10	1	-1E+10	1	-1E+10	1	-1E+10	1
4902549	19	C	02/15/2021	09:01	-133.772	47.592	0	1112.90	0	2.9920	0	34.3910	0	27.407	0	1100.655	0	7.9	4	2.4	4	-1E+10	1	-1E+10	1	-1E+10	1	-1E+10	1	-1E+10	1	-1E+10	1
4902549	19	C	02/15/2021	09:01	-133.772	47.592	0	1137.60	0	2.9470	0	34.4000	0	27.418	0	1125.017	0	8.1	4	2.5	4	-1E+10	1	-1E+10	1	-1E+10	1	-1E+10	1	-1E+10	1	-1E+10	1
4902549	19	C	02/15/2021	09:01	-133.772	47.592	0	1162.80	0	2.9040	0	34.4100	0	27.430	0	1149.870	0	8.3	4	2.6	4	-1E+10	1	-1E+10	1	-1E+10	1	-1E+10	1	-1E+10	1	-1E+10	1
4902549	19	C	02/15/2021	09:01	-133.772	47.592	0	1188.00	0	2.8590	0	34.4180	0	27.440	0	1174.719	0	8.5	4	2.6	4	-1E+10	1	-1E+10	1	-1E+10	1	-1E+10	1	-1E+10	1	-1E+10	1
4902549	19	C	02/15/2021	09:01	-133.772	47.592	0	1213.60	0	2.8190	0	34.4240	0	27.449	0	1199.960	0	8.7	4	2.7	4	-1E+10	1	-1E+10	1	-1E+10	1	-1E+10	1	-1E+10	1	-1E+10	1
4902549	19	C	02/15/2021	09:01	-133.772	47.592	0	1237.40	0	2.7760	0	34.4300	0	27.458	0	1223.423	0	9.0	4	2.8	4	-1E+10	1	-1E+10	1	-1E+10	1	-1E+10	1	-1E+10	1	-1E+10	1
4902549	19	C	02/15/2021	09:01	-133.772	47.592	0	1262.80	0	2.7480	0	34.4360	0	27.465	0	1248.461	0	9.5	4	2.9	4	-1E+10	1	-1E+10	1	-1E+10	1	-1E+10	1	-1E+10	1	-1E+10	1
4902549	19	C	02/15/2021	09:01	-133.772	47.592	0	1288.00	0	2.7110	0	34.4420	0	27.473	0	1273.299	0	10.1	4	3.1	4	-1E+10	1	-1E+10	1	-1E+10	1	-1E+10	1	-1E+10	1	-1E+10	1
4902549	19	C	02/15/2021	09:01	-133.772	47.592	0	1312.70	0	2.6820	0	34.4480	0	27.481	0	1297.641	0	10.7	4	3.3	4	-1E+10	1	-1E+10	1	-1E+10	1	-1E+10	1	-1E+10	1	-1E+10	1
4902549	19	C	02/15/2021	09:01	-133.772	47.592	0	1337.70	0	2.6420	0	34.4530	0	27.488	0	1322.276	0	11.1	4	3.4	4	-1E+10	1	-1E+10	1	-1E+10	1	-1E+10	1	-1E+10	1	-1E+10	1
4902549	19	C	02/15/2021	09:01	-133.772	47.592	0	1363.00	0	2.6160	0	34.4590	0	27.495	0	1347.203	0	11.9	4	3.6	4	-1E+10	1	-1E+10	1	-1E+10	1	-1E+10	1	-1E+10	1	-1E+10	1
4902549	19	C	02/15/2021	09:01	-133.772	47.592	0	1387.90	0	2.5790	0	34.4650	0	27.503	0	1371.734	0	12.8	4	3.9	4	-1E+10	1	-1E+10	1	-1E+10	1	-1E+10	1	-1E+10	1	-1E+10	1
4902549	19	C	02/15/2021	09:01	-133.772	47.592	0	1412.80	0	2.5460	0	34.4710	0	27.511	0	1396.261	0	13.4	4	4.1	4	-1E+10	1	-1E+10	1	-1E+10	1	-1E+10	1	-1E+10	1	-1E+10	1
4902549	19	C	02/15/2021	09:01	-133.772	47.592	0	1438.40	0	2.5180	0	34.4760	0	27.518	0	1421.475	0	14.1	4	4.3	4	-1E+10	1	-1E+10	1	-1E+10	1	-1E+10	1	-1E+10	1	-1E+10	1
4902549	19	C	02/15/2021	09:01	-133.772	47.592	0	1462.80	0	2.4870	0	34.4820	0	27.525	0	1445.505	0	15.1	4	4.6	4	-1E+10	1	-1E+10	1	-1E+10	1	-1E+10	1	-1E+10	1	-1E+10	1
4902549	19	C	02/15/2021	09:01	-133.772	47.592	0	1488.00	0	2.4530	0	34.4880	0	27.533	0	1470.319	0	16.2	4	4.9	4	-1E+10	1	-1E+10	1	-1E+10	1	-1E+10	1	-1E+10	1	-1E+10	1
4902549	19	C	02/15/2021	09:01	-133.772	47.592	0	1513.00	0	2.4250	0	34.4920	0	27.539	0	1494.934	0	16.9	4	5.2	4	-1E+10	1	-1E+10	1	-1E+10	1	-1E+10	1	-1E+10	1	-1E+10	1
4902549	19	C	02/15/2021	09:01	-133.772	47.592	0	1537.90	0	2.3910	0	34.4980	0	27.546	0	1519.447	0	18.4	4	5.6	4	-1E+10	1	-1E+10	1	-1E+10	1	-1E+10	1	-1E+10	1	-1E+10	1
4902549	19	C	02/15/2021	09:01	-133.772	47.592	0	1562.70	0	2.3510	0	34.5050	0	27.555	0	1543.859	0	20.3	4	6.2	4	-1E+10	1	-1E+10	1	-1E+10	1	-1E+10	1	-1E+10	1	-1E+10	1
4902549	19	C	02/15/2021	09:01	-133.772	47.592	0	1587.70	0	2.3100	0	34.5120	0	27.564	0	1568.465	0	21.9	4	6.6	4	-1E+10	1	-1E+10	1	-1E+10	1	-1E+10	1	-1E+10	1	-1E+10	1
4902549	19	C	02/15/2021	09:01	-133.772	47.592	0	1612.90	0	2.2800	0	34.5170	0	27.571	0	1593.265	0	23.2	4	7.0	4	-1E+10	1	-1E+10	1	-1E+10	1	-1E+10	1	-1E+10	1	-1E+10	1
4902549	19	C	02/15/2021	09:01	-133.772	47.592	0	1638.00	0	2.2600	0	34.5210	0	27.576	0	1617.963	0	24.5	4	7.4	4	-1E+10	1	-1E+10	1	-1E+10	1	-1E+10	1	-1E+10	1	-1E+10	1
4902549	19	C	02/15/2021	09:01	-133.772	47.592	0	1663.50	0	2.2370	0	34.5270	0	27.583	0	1643.053	0	26.0	4	7.9	4	-1E+10	1	-1E+10	1	-1E+10	1	-1E+10	1	-1E+10	1	-1E+10	1
4902549	19	C	02/15/2021	09:01	-133.772	47.592	0	1687.70	0	2.2000	0	34.5330	0	27.591	0	1666.860	0	28.1	4	8.5	4	-1E+10	1	-1E+10	1	-1E+10	1	-1E+10	1	-1E+10	1	-1E+10	1
4902549	19	C	02/15/2021	09:01	-133.772	47.592	0	1713.10	0	2.1730	0	34.5390	0	27.598	0	1691.845	0	30.4	4	9.2	4	-1E+10	1	-1E+10	1	-1E+10	1	-1E+10	1	-1E+10	1	-1E+10	1
4902549	19	C	02/15/2021	09:01	-133.772	47.592	0	1738.10	0	2.1490	0	34.5440	0	27.604	0	1716.434	0	32.1	4	9.7	4	-1E+10	1	-1E+10	1	-1E+10	1	-1E+10	1	-1E+10	1	-1E+10	1
4902549	19	C	02/15/2021	09:01	-133.772	47.592	0	1762.70	0	2.1240	0	34.5490	0	27.610	0	1740.627	0	34.4	4	10.4	4	-1E+10	1	-1E+10	1	-1E+10	1	-1E+10	1	-1E+10	1	-1E+10	1
4902549	19	C	02/15/2021	09:01	-133.772	47.592	0	1787.50	0	2.1030	0	34.5530	0	27.615	0	1765.013	0	36.4	4	11.0	4	-1E+10	1	-1E+10	1	-1E+10	1	-1E+10	1	-1E+10	1	-1E+10	1
4902549	19	C	02/15/2021	09:01	-133.772	47.592	0	1813.40	0	2.0740	0	34.5580	0	27.621	0	1790.478	0	38.4	4	11.6	4	-1E+10	1	-1E+10	1	-1E+10	1	-1E+10	1	-1E+10	1	-1E+10	1
4902549	19	C	02/15/2021	09:01	-133.772	47.592	0	1837.50	0	2.0520	0	34.5620	0	27.626	0	1814.171	0	39.1	4	11.8	4	-1E+10	1	-1E+10	1	-1E+10	1	-1E+10	1	-1E+10	1	-1E+10	1
4902549	19	C	02/15/2021	09:01	-133.772	47.592	0	1862.90	0	2.0370	0	34.5650	0	27.630	0	1839.138	0	39.9	4	12.0	4	-1E+10	1	-1E+10	1	-1E+10	1	-1E+10	1	-1E+10	1	-1E+10	1
4902549	19	C	02/15/2021	09:01	-133.772	47.592	0	1887.90	0	2.0250	0	34.5680	0	27.634	0	1863.710	0	41.2	4	12.4	4	-1E+10	1	-1E+10	1	-1E+10	1	-1E+10	1	-1E+10	1	-1E+10	1
4902549	19	C	02/15/2021	09:01	-133.772	47.592	0	1912.80	0	2.0130	0	34.5700	0	27.636	0	1888.181	0	42.4	4	12.8	4	-1E+10	1	-1E+10	1	-1E+10	1	-1E+10	1	-1E+10	1	-1E+10	1
4902549	19	C	02/15/2021	09:01	-133.772	47.592	0	1937.90	0	1.9990	0	34.5740	0	27.641	0	1912.845	0	43.9	4	13.2	4	-1E+10	1	-1E+10	1	-1E+10	1	-1E+10	1	-1E+10	1	-1E+10	1
4902549	19	C	02/15/2021	09:01	-133.772	47.592	0	1963.00	0	1.9780	0	34.5780	0	27.646	0	1937.506	0	45.3	4	13.6	4	-1E+10	1	-1E+10	1	-1E+10	1	-1E+10	1	-1E+10	1	-1E+10	1
4902549	19	C	02/15/2021	09:01	-133.772	47.592	0	1979.60	0	1.9620	0	34.5800	0	27.649	0	1953.814	0	45.0	4	13.6	4	-1E+10	1	-1E+10	1	-1E+10	1	-1E+10	1	-1E+10	1	-1E+10	1
4902549	19	C	02/15/2021	09:01	-133.772	47.592	0																										
4902549	20	C	02/25/2021	08:59	-133.708	47.675	0	0.40	0	8.6060	0	32.3390	0	25.096	0	0.397	0	275.9	4	95.6	4	-1E+10	1	-1E+10	1	-1E+10	1	-1E+10	1	-1E+10	1	-1E+10	1
4902549	20	C	02/25/2021	08:59	-133.708	47.675	0	0.90	0	8.6240	0	32.3230	0	25.080	0	0.892	0	275.5	4	95.5	4	-1E+10	1	-1E+10	1	-1E+10	1	-1E+10	1	-1E+10	1	-1E+10	1
4902549	20	C	02/25/2021	08:59	-133.708	47.675	0	2.10	0	8.6270	0	32.3170	0	25.075	0	2.082	0	275.4	4	95.4	4	-1E+10	1	-1E+10	1	-1E+10	1	-1E+10	1	-1E+10	1	-1E+10	1
4902549	20	C	02/25/2021	08:59	-133.708	47.675	0	3.00	0	8.6180	0	32.3270	0	25.084	0	2.975	0	275.3	4	95.4	4	-1E+10	1	-1E+10	1	-1E+10	1	-1E+10	1	-1E+10	1	-1E+10	1
4902549	20	C	02/25/2021	08:59	-133.708	47.675	0	3.80	0	8.6130	0	32.3320	0	25.089	0	3.768	0	275.4	4	95.4	4	-1E+10	1	-1E+10	1	-1E+10	1	-1E+10	1	-1E+10	1	-1E+10	1
4902549	20	C	02/25/2021	08:59	-133.708	47.675	0	4.70	0	8.6110	0	32.3380	0	25.094	0	4.661	0	275.3	4	95.4	4	-1E+10	1	-1E+10	1	-1E+10	1	-1E+10	1	-1E+10	1	-1E+10	1
4902549	20	C	02/25/2021	08:59	-133.708	47.675	0	6.00	0	8.6020	0	32.3350	0	25.093	0	5.950	0	275.4	4	95.4	4	-1E+10	1	-1E+10	1	-1E+10	1	-1E+10	1	-1E+10	1	-1E+10	1
4902549	20	C	02/25/2021	08:59	-133.708	47.675	0	7.10	0	8.6060	0	32.3350	0	25.093	0	7.041	0	275.4	4	95.4	4	-1E+10	1	-1E+10	1	-1E+10	1	-1E+10	1	-1E+10	1	-1E+10	1
4902549	20	C	02/25/2021	08:59	-133.708	47.675	0	7.80	0	8.6030	0	32.3310	0	25.090	0	7.735	0	275.5	4	95.4	4	-1E+10	1	-1E+10	1	-1E+10	1	-1E+10	1	-1E+10	1	-1E+10	1
4902549	20	C	02/25/2021	08:59	-133.708	47.675	0	8.80	0	8.5930	0	32.3350	0	25.094	0	8.726	0	275.4	4	95.4	4	-1E+10	1	-1E+10	1	-1E+10	1	-1E+10	1	-1E+10	1	-1E+10	1
4902549	20	C	02/25/2021	08:59	-133.708	47.675	0	9.80	0	8.5910	0	32.3350	0	25.095	0	9.718	0	275.3	4	95.3	4	-1E+10	1	-1E+10	1	-1E+10	1	-1E+10	1	-1E+10	1	-1E+10	1
4902549	20	C	02/25/2021	08:59	-133.708	47.675	0	15.10	0	8.5910	0	32.3340	0	25.094	0	14.973	0	275.2	4	95.3	4	-1E+10	1	-1E+10	1	-1E+10	1	-1E+10	1	-1E+10	1	-1E+10	1
4902549	20	C	02/25/2021	08:59	-133.708	47.675	0	25.80	0	8.5780	0	32.3340	0	25.096	0	25.583	0	275.3	4	95.3	4	-1E+10	1	-1E+10	1	-1E+10	1	-1E+10	1	-1E+10	1	-1E+10	1
4902549	20	C	02/25/2021	08:59	-133.708	47.675	0	35.80	0	8.5740	0	32.3330	0	25.096	0	35.498	0	275.1	4	95.3	4	-1E+10	1	-1E+10	1	-1E+10	1	-1E+10	1	-1E+10	1	-1E+10	1
4902549	20	C	02/25/2021	08:59	-133.708	47.675	0	45.40	0	8.5490	0	32.3320	0	25.099	0	45.015	0	275.0	4	95.2	4	-1E+10	1	-1E+10	1	-1E+10	1	-1E+10	1	-1E+10	1	-1E+10	1
4902549	20	C	02/25/2021	08:59	-133.708	47.675	0	55.30	0	8.5080	0	32.3300	0	25.104	0	54.830	0	275.0	4	95.1	4	-1E+10	1	-1E+10	1	-1E+10	1	-1E+10	1	-1E+10	1	-1E+10	1
4902549	20	C	02/25/2021	08:59	-133.708	47.675	0	65.50	0	8.4890	0	32.3310	0	25.108	0	64.942	0	274.4	4	94.8	4	-1E+10	1	-1E+10	1	-1E+10	1	-1E+10	1	-1E+10	1	-1E+10	1
4902549	20	C	02/25/2021	08:59	-133.708	47.675	0	75.70	0	8.4370	0	32.3300	0	25.115	0	75.053	0	273.3	4	94.4	4	-1E+10	1	-1E+10	1	-1E+10	1	-1E+10	1	-1E+10	1	-1E+10	1
4902549	20	C	02/25/2021	08:59	-133.708	47.675	0	85.70	0	8.3570	0	32.3330	0	25.129	0	84.966	0	270.8	4	93.3	4	-1E+10	1	-1E+10	1	-1E+10	1	-1E+10	1	-1E+10	1	-1E+10	1
4902549	20	C	02/25/2021	08:59	-133.708	47.675	0	95.70	0	8.2690	0	32.3780	0	25.178	0	94.878	0	257.3	4	88.5	4	-1E+10	1	-1E+10	1	-1E+10	1	-1E+10	1	-1E+10	1	-1E+10	1
4902549	20	C	02/25/2021	08:59	-133.708	47.675	0	105.80	0	7.8870	0	32.6800	0	25.470	0	104.888	0	227.8	4	77.9	4	-1E+10	1	-1E+10	1	-1E+10	1	-1E+10	1	-1E+10	1	-1E+10	1
4902549	20	C	02/25/2021	08:59	-133.708	47.675	0	115.50	0	7.4650	0	33.0170	0	25.795	0	114.502	0	214.1	4	72.7	4	-1E+10	1	-1E+10	1	-1E+10	1	-1E+10	1	-1E+10	1	-1E+10	1
4902549	20	C	02/25/2021	08:59	-133.708	47.675	0	125.30	0	7.4680	0	33.2550	0	25.982	0	124.215	0	205.3	4	69.8	4	-1E+10	1	-1E+10	1	-1E+10	1	-1E+10	1	-1E+10	1	-1E+10	1
4902549	20	C	02/25/2021	08:59	-133.708	47.675	0	135.30	0	7.3060	0	33.4320	0	26.144	0	134.125	0	198.0	4	67.2	4	-1E+10	1	-1E+10	1	-1E+10	1	-1E+10	1	-1E+10	1	-1E+10	1
4902549	20	C	02/25/2021	08:59	-133.708	47.675	0	145.10	0	7.0860	0	33.5170	0	26.241	0	143.836	0	192.0	4	64.9	4	-1E+10	1	-1E+10	1	-1E+10	1	-1E+10	1	-1E+10	1	-1E+10	1
4902549	20	C	02/25/2021	08:59	-133.708	47.675	0	155.30	0	6.8500	0	33.5760	0	26.319	0	153.943	0	185.8	4	62.4	4	-1E+10	1	-1E+10	1	-1E+10	1	-1E+10	1	-1E+10	1	-1E+10	1
4902549	20	C	02/25/2021	08:59	-133.708	47.675	0	165.30	0	6.6350	0	33.6040	0	26.370	0	163.852	0	179.5	4	60.0	4	-1E+10	1	-1E+10	1	-1E+10	1	-1E+10	1	-1E+10	1	-1E+10	1
4902549	20	C	02/25/2021	08:59	-133.708	47.675	0	175.30	0	6.5290	0	33.6600	0	26.428	0	173.760	0	173.0	4	57.8	4	-1E+10	1	-1E+10	1	-1E+10	1	-1E+10	1	-1E+10	1	-1E+10	1
4902549	20	C	02/25/2021	08:59	-133.708	47.675	0	185.10	0	6.4020	0	33.7050	0	26.480	0	183.470	0	164.2	4	54.7	4	-1E+10	1	-1E+10	1	-1E+10	1	-1E+10	1	-1E+10	1	-1E+10	1
4902549	20	C	02/25/2021	08:59	-133.708	47.675	0	195.30	0	6.2810	0	33.7390	0	26.523	0	193.575	0	156.7	4	52.0	4	-1E+10	1	-1E+10	1	-1E+10	1	-1E+10	1	-1E+10	1	-1E+10	1
4902549	20	C	02/25/2021	08:59	-133.708	47.675	0	213.50	0	6.1320	0	33.7750	0	26.571	0	211.605	0	145.6	4	48.2	4	-1E+10	1	-1E+10	1	-1E+10	1	-1E+10	1	-1E+10	1	-1E+10	1
4902549	20	C	02/25/2021	08:59	-133.708	47.675	0	238.00	0	5.8900	0	33.8100	0	26.629	0	235.874	0	132.4	4	43.6	4	-1E+10	1	-1E+10	1	-1E+10	1	-1E+10	1	-1E+10	1	-1E+10	1
4902549	20	C	02/25/2021	08:59	-133.708	47.675	0	263.00	0	5.6720	0	33.8280	0	26.670	0	260.635	0	121.9	4	40.0	4	-1E+10	1	-1E+10	1	-1E+10	1	-1E+10	1	-1E+10	1	-1E+10	1
4902549	20	C	02/25/2021	08:59	-133.708	47.675	0	288.00	0	5.4300	0	33.8440	0	26.712	0	285.393	0	108.7	4	35.4	4	-1E+10	1	-1E+10	1	-1E+10	1	-1E+10	1	-1E+10	1	-1E+10	1
4902549	20	C	02/25/2021	08:59	-133.708	47.675	0	312.90	0	5.1580	0	33.8640	0	26.759	0	310.049	0	94.0	4	30.4	4	-1E+10	1	-1E+10	1	-1E+10	1	-1E+10	1	-1E+10	1	-1E+10	1
4902549	20	C	02/25/2021	08:59	-133.708	47.675	0	337.40	0	4.9670	0	33.8850	0	26.798	0	334.306	0	81.7	4	26.3	4	-1E+10	1	-1E+10	1	-1E+10	1	-1E+10	1	-1E+10	1	-1E+10	1
4902549	20	C	02/25/2021	08:59	-133.708	47.675	0	362.70	0	4.8140	0	33.9080	0	26.834	0	359.352	0	72.5	4	23.3	4	-1E+10	1	-1E+10	1	-1E+10	1	-1E+10	1	-1E+10	1	-1E+10	1
4902549	20	C	02/25/2021	08:59	-133.708	47.675	0	388.10	0	4.6970	0	33.9280	0	26.863	0	384.494	0	65.9	4	21.1	4	-1E+10	1	-1E+10	1	-1E+10	1	-1E+10	1	-1E+10	1	-1E+10	1
4902549	20	C	02/25/2021	08:59	-133.708	47.675	0	412.70	0	4.6190	0	33.9460	0	26.886	0	408.841	0	59.6	4	19.1	4	-1E+10	1	-1E+10	1	-1E+10	1	-1E+10	1	-1E+10	1	-1E+10	1
4902549	20	C	02/25/2021	08:59	-133.708	47.675	0	437.50	0	4.5370	0	33.9730	0	26.916	0	433.383	0	52.5	4	16.8	4	-1E+10	1	-1E+10	1	-1E+10	1	-1E+10	1	-1E+10	1	-1E+10	1
4902549	20	C	02/25/2021	08:59	-133.708	47.675	0	462.50	0	4.4500	0	33.9980	0	26.946	0	458.120	0	45.1	4	14.4	4	-1E+10	1	-1E+10	1	-1E+10	1	-1E+10	1	-1E+10	1	-1E+10	1
4902549	20	C	02/25/2021	08:59	-133.708	47.675	0	487.90	0	4.3580	0	34.0270	0	26.979	0	483.250	0	38.7	4	12.3	4	-1E+10	1	-1E+10	1	-1E+10	1	-1E+10	1	-1E+10	1	-1E+10	1
4902549	20	C	02/25/2021	08:59	-133.708	47.675	0	512.80	0	4.2690	0	34.0550	0	27.011	0	507.883	0	32.2	4	10.2	4	-1E+10	1	-1E+10	1	-1E+10	1	-1E+10	1	-1E+10	1	-1E+10	1
4902549	20	C	02/25/2021	08:59	-133.708	47.675	0	537.90	0	4.2170	0	34.0780	0	27.034	0	532.710	0	27.6	4	8.8	4	-1E+10	1	-1E+10	1	-1E+10	1	-1E+10	1	-1E+10	1	-1E+10	1
4902549	20	C	02/25/2021	08:59	-133.708	47.675	0	563.20	0	4.1660	0	34.1000	0	27.057	0	557.732	0	23.8	4	7.5	4	-1E+10	1	-1E+10	1	-1E+10	1	-1E+10	1	-1E+10	1	-1E+10	1
4902549	20	C	02/25/2021	08:59	-133.708	47.675	0	588.50	0	4.1070	0	34.1170	0	27.077	0	582.751	0	21.9	4	6.9	4	-1E+10	1	-1E+10	1	-1E+10	1	-1E+10	1	-1E+10	1	-1E+10	1
4902549	20	C	02/25/2021	08:59	-133.708	47.675	0	613.00	0	4.0400	0	34.1330	0	27.097	0	606.976	0	20.6	4	6.5	4	-1E+10	1	-1E+10	1	-1E+10	1	-1E+10	1	-1E+10	1	-1E+10	1
4902549	20	C	02/25/2021	08:59	-133.708	47.675	0	637.60	0	3.9370	0	34.1470	0	27.119	0	631.297	0	20.0	4	6.3	4	-1E+10	1	-1E+10	1	-1E+10	1	-1E+10	1	-1E+10	1	-1E+10	1
4902549	20	C	02/25/2021	08:59	-133.708	47.675	0	662.50	0	3.8780	0	34.1600	0	27.135	0	655.911	0	18.9	4	5.9	4	-1E+10	1	-1E+10	1	-1E+10	1	-1E+10	1	-1E+10	1	-1E+10	1
4902549	20	C	02/25/2021	08:59	-133.708	47.675	0	687.60	0	3.8170	0	34.1760	0	27.154	0	680.721	0	17.3	4	5.5	4	-1E+10	1	-1E+10	1	-1E+10	1	-1E+10	1	-1E+10	1	-1E+10	1
4902549	20	C	02/25/2021	08:59	-133.708	47.675	0	712.90	0	3.7620	0	34.1930	0	27.173	0	705.725	0	15.7	4	4.9	4	-1E+10	1	-1E+10	1	-1E+10	1	-1E+10	1	-1E+10	1	-1E+10	1
4902549	20	C	02/25/2021	08:59	-133.708	47.675	0	737.70	0	3.7110	0	34.2070	0	27.190	0	730.232	0	14.3	4	4.5	4	-1E+10	1	-1E+10	1	-1E+10	1	-1E+10	1	-1E+10	1	-1E+10	1
4902549	20	C	02/25/2021	08:59	-133.708	47.675	0	762.90	0	3.6540	0	34.2230	0	27.208	0	755.131	0	13.3	4	4.2	4	-1E+10	1	-1E+10	1	-1E+10	1	-1E+10	1	-1E+10	1	-1E+10	1
4902549	20	C	02/25/2021	08:59	-133.708	47.675	0	787.80	0	3.6060	0	34.2340	0	27.222	0	779.731	0	12.9	4	4.0	4	-1E+10	1	-1E+10	1	-1E+10	1	-1E+10	1	-1E+10	1	-1E+10	1
4902549	20	C	02/25/2021	08:59	-133.708	47.675	0	813.60	0	3.5420	0	34.2500	0	27.241	0	805.217	0	11.9	4	3.7	4	-1E+10	1	-1E+10	1	-1E+10	1	-1E+10	1	-1E+10	1	-1E+10	1
4902549	20	C	02/25/2021	08:59	-133.708	47.675	0	837.40	0	3.4850	0	34.2680	0	27.261	0	828.725	0	10.7	4	3.3	4	-1E+10	1	-1E+10	1	-1E+10	1	-1E+10	1	-1E+10	1	-1E+10	1
4902549	20	C	02/25/2021	08:59	-133.708	47.675	0	862.50	0	3.4410	0	34.2840	0	27.278	0	853.513	0	9.6	4	3.0	4	-1E+10	1	-1E+10	1	-1E+10	1	-1E+10	1	-1E+10	1	-1E+10	1
4902549	20	C	02/25/2021	08:59	-133.708	47.675	0	887.50	0	3.3890	0	34.2960	0	27.293	0	878.200	0	9.0	4	2.8	4	-1E+10	1	-1E+10	1	-1E+10	1	-1E+10	1	-1E+10	1	-1E+10	1
4902549	20	C	02/25/2021	08:59	-133.708	47.675	0	912.40	0	3.3490	0	34.3040	0	27.303	0	902.786	0	8.9	4	2.8	4	-1E+10	1	-1E+10	1	-1E+10	1	-1E+10	1	-1E+10	1	-1E+10	1
4902549	20	C	02/25/2021	08:59	-133.708	47.675	0	937.70	0	3.2950	0	34.3130	0	27.316	0	927.763	0	8.7	4	2.7	4	-1E+10	1	-1E+10	1	-1E+10	1	-1E+10	1	-1E+10	1	-1E+10	1
4902549	20	C	02/25/2021	08:59	-133.708	47.675	0	963.10	0	3.2480	0	34.3230	0	27.328	0	952.836	0	8.6	4	2.7	4	-1E+10	1	-1E+10	1	-1E+10	1	-1E+10	1	-1E+10	1	-1E+10	1
4902549	20	C	02/25/2021	08:59	-133.708	47.675	0	987.70	0	3.2010	0	34.3340	0	27.341	0	977.117	0	8.3	4	2.6	4	-1E+10	1	-1E+10	1	-1E+10	1	-1E+10	1	-1E+10	1	-1E+10	1
4902549	20	C	02/25/2021	08:59	-133.708	47.675	0	1013.10	0	3.1600	0	34.3450	0	27.354	0	1002.184	0	8.1	4	2.5	4	-1E+10	1	-1E+10	1	-1E+10	1	-1E+10	1	-1E+10	1	-1E+10	1
4902549	20	C	02/25/2021	08:59	-133.708	47.675	0	1038.30	0	3.1090	0	34.3560	0	27.368	0	1027.051	0	8.1	4	2.5	4	-1E+10	1	-1E+10	1	-1E+10	1	-1E+10	1	-1E+10	1	-1E+10	1
4902549	20	C	02/25/2021	08:59	-133.708	47.675	0	1062.90	0	3.0720	0	34.3650	0	27.378	0	1051.323	0	8.1	4	2.5	4	-1E+10	1	-1E+10	1	-1E+10	1	-1E+10	1	-1E+10	1	-1E+10	1
4902549	20	C	02/25/2021	08:59	-133.708	47.675	0	1088.10	0	3.0350	0	34.3750	0	27.390	0	1076.183	0	7.9	4	2.4	4	-1E+10	1	-1E+10	1	-1E+10	1	-1E+10	1	-1E+10	1	-1E+10	1
4902549	20	C	02/25/2021	08:59	-133.708	47.675	0	1112.70	0	2.9860	0	34.3880	0	27.405	0	1100.450	0	7.8	4	2.4	4	-1E+10	1	-1E+10	1	-1E+10	1	-1E+10	1	-1E+10	1	-1E+10	1
4902549	20	C	02/25/2021	08:59	-133.708	47.675	0	1137.70	0	2.9370	0	34.4000	0	27.419	0	1125.107	0	8.0	4	2.5	4	-1E+10	1	-1E+10	1	-1E+10	1	-1E+10	1	-1E+10	1	-1E+10	1
4902549	20	C	02/25/2021	08:59	-133.708	47.675	0	1162.90	0	2.8890	0	34.4110	0	27.432	0	1149.960	0	8.2	4	2.5	4	-1E+10	1	-1E+10	1	-1E+10	1	-1E+10	1	-1E+10	1	-1E+10	1
4902549	20	C	02/25/2021	08:59	-133.708	47.675	0	1188.10	0	2.8560	0	34.4230	0	27.445	0	1174.809	0	8.4	4	2.6	4	-1E+10	1	-1E+10	1	-1E+10	1	-1E+10	1	-1E+10	1	-1E+10	1
4902549	20	C	02/25/2021	08:59	-133.708	47.675	0	1212.90	0	2.8130	0	34.4290	0	27.453	0	1199.261	0	8.8	4	2.7	4	-1E+10	1	-1E+10	1	-1E+10	1	-1E+10	1	-1E+10	1	-1E+10	1
4902549	20	C	02/25/2021	08:59	-133.708	47.675	0	1237.60	0	2.7590	0	34.4370	0	27.465	0	1223.611	0	9.3	4	2.9	4	-1E+10	1	-1E+10	1	-1E+10	1	-1E+10	1	-1E+10	1	-1E+10	1
4902549	20	C	02/25/2021	08:59	-133.708	47.675	0	1262.80	0	2.7250	0	34.4420	0	27.472	0	1248.452	0	9.6	4	2.9	4	-1E+10	1	-1E+10	1	-1E+10	1	-1E+10	1	-1E+10	1	-1E+10	1
4902549	20	C	02/25/2021	08:59	-133.708	47.675	0	1287.90	0	2.6870	0	34.4470	0	27.479	0	1273.190	0	10.1	4	3.1	4	-1E+10	1	-1E+10	1	-1E+10	1	-1E+10	1	-1E+10	1	-1E+10	1
4902549	20	C	02/25/2021	08:59	-133.708	47.675	0	1312.70	0	2.6410	0	34.4560	0	27.490	0	1297.631	0	10.7	4	3.3	4	-1E+10	1	-1E+10	1	-1E+10	1	-1E+10	1	-1E+10	1	-1E+10	1
4902549	20	C	02/25/2021	08:59	-133.708	47.675	0	1337.80	0	2.6070	0	34.4610	0	27.498	0	1322.364	0	11.2	4	3.4	4	-1E+10	1	-1E+10	1	-1E+10	1	-1E+10	1	-1E+10	1	-1E+10	1
4902549	20	C	02/25/2021	08:59	-133.708	47.675	0	1363.00	0	2.5810	0	34.4660	0	27.504	0	1347.193	0	11.7	4	3.6	4	-1E+10	1	-1E+10	1	-1E+10	1	-1E+10	1	-1E+10	1	-1E+10	1
4902549	20	C	02/25/2021	08:59	-133.708	47.675	0	1388.10	0	2.5520	0	34.4700	0	27.510	0	1371.920	0	12.5	4	3.8	4	-1E+10	1	-1E+10	1	-1E+10	1	-1E+10	1	-1E+10	1	-1E+10	1
4902549	20	C	02/25/2021	08:59	-133.708	47.675	0	1413.00	0	2.5170	0	34.4760	0	27.518	0	1396.447	0	13.4	4	4.1	4	-1E+10	1	-1E+10	1	-1E+10	1	-1E+10	1	-1E+10	1	-1E+10	1
4902549	20	C	02/25/2021	08:59	-133.708	47.675	0	1437.70	0	2.4850	0	34.4820	0	27.525	0	1420.775	0	14.5	4	4.4	4	-1E+10	1	-1E+10	1	-1E+10	1	-1E+10	1	-1E+10	1	-1E+10	1
4902549	20	C	02/25/2021	08:59	-133.708	47.675	0	1462.80	0	2.4490	0	34.4880	0	27.533	0	1445.494	0	15.6	4	4.8	4	-1E+10	1	-1E+10	1	-1E+10	1	-1E+10	1	-1E+10	1	-1E+10	1
4902549	20	C	02/25/2021	08:59	-133.708	47.675	0	1488.00	0	2.4210	0	34.4940	0	27.540	0	1470.308	0	16.8	4	5.1	4	-1E+10	1	-1E+10	1	-1E+10	1	-1E+10	1	-1E+10	1	-1E+10	1
4902549	20	C	02/25/2021	08:59	-133.708	47.675	0	1512.80	0	2.3940	0	34.4990	0	27.547	0	1494.725	0	18.4	4	5.6	4	-1E+10	1	-1E+10	1	-1E+10	1	-1E+10	1	-1E+10	1	-1E+10	1
4902549	20	C	02/25/2021	08:59	-133.708	47.675	0	1537.60	0	2.3670	0	34.5040	0	27.553	0	1519.140	0	19.8	4	6.0	4	-1E+10	1	-1E+10	1	-1E+10	1	-1E+10	1	-1E+10	1	-1E+10	1
4902549	20	C	02/25/2021	08:59	-133.708	47.675	0	1562.80	0	2.3360	0	34.5100	0	27.561	0	1543.946	0	21.5	4	6.5	4	-1E+10	1	-1E+10	1	-1E+10	1	-1E+10	1	-1E+10	1	-1E+10	1
4902549	20	C	02/25/2021	08:59	-133.708	47.675	0	1587.60	0	2.2970	0	34.5160	0	27.569	0	1568.354	0	23.0	4	7.0	4	-1E+10	1	-1E+10	1	-1E+10	1	-1E+10	1	-1E+10	1	-1E+10	1
4902549	20	C	02/25/2021	08:59	-133.708	47.675	0	1612.60	0	2.2700	0	34.5210	0	27.575	0	1592.957	0	24.6	4	7.5	4	-1E+10	1	-1E+10	1	-1E+10	1	-1E+10	1	-1E+10	1	-1E+10	1
4902549	20	C	02/25/2021	08:59	-133.708	47.675	0	1637.90	0	2.2450	0	34.5260	0	27.581	0	1617.853	0	26.5	4	8.0	4	-1E+10	1	-1E+10	1	-1E+10	1	-1E+10	1	-1E+10	1	-1E+10	1
4902549	20	C	02/25/2021	08:59	-133.708	47.675	0	1662.60	0	2.2180	0	34.5310	0	27.587	0	1642.155	0	27.8	4	8.4	4	-1E+10	1	-1E+10	1	-1E+10	1	-1E+10	1	-1E+10	1	-1E+10	1
4902549	20	C	02/25/2021	08:59	-133.708	47.675	0	1688.20	0	2.1940	0	34.5350	0	27.593	0	1667.339	0	29.2	4	8.8	4	-1E+10	1	-1E+10	1	-1E+10	1	-1E+10	1	-1E+10	1	-1E+10	1
4902549	20	C	02/25/2021	08:59	-133.708	47.675	0	1712.70	0	2.1710	0	34.5400	0	27.599	0	1691.439	0	31.3	4	9.5	4	-1E+10	1	-1E+10	1	-1E+10	1	-1E+10	1	-1E+10	1	-1E+10	1
4902549	20	C	02/25/2021	08:59	-133.708	47.675	0	1737.60	0	2.1470	0	34.5440	0	27.604	0	1715.929	0	33.2	4	10.0	4	-1E+10	1	-1E+10	1	-1E+10	1	-1E+10	1	-1E+10	1	-1E+10	1
4902549	20	C	02/25/2021	08:59	-133.708	47.675	0	1762.70	0	2.1220	0	34.5490	0	27.610	0	1740.613	0	34.7	4	10.5	4	-1E+10	1	-1E+10	1	-1E+10	1	-1E+10	1	-1E+10	1	-1E+10	1
4902549	20	C	02/25/2021	08:59	-133.708	47.675	0	1787.90	0	2.1010	0	34.5530	0	27.615	0	1765.393	0	36.3	4	11.0	4	-1E+10	1	-1E+10	1	-1E+10	1	-1E+10	1	-1E+10	1	-1E+10	1
4902549	20	C	02/25/2021	08:59	-133.708	47.675	0	1812.70	0	2.0750	0	34.5580	0	27.621	0	1789.776	0	38.2	4	11.5	4	-1E+10	1	-1E+10	1	-1E+10	1	-1E+10	1	-1E+10	1	-1E+10	1
4902549	20	C	02/25/2021	08:59	-133.708	47.675	0	1837.40	0	2.0580	0	34.5610	0	27.625	0	1814.058	0	39.5	4	11.9	4	-1E+10	1	-1E+10	1	-1E+10	1	-1E+10	1	-1E+10	1	-1E+10	1
4902549	20	C	02/25/2021	08:59	-133.708	47.675	0	1862.50	0	2.0390	0	34.5650	0	27.630	0	1838.731	0	41.1	4	12.4	4	-1E+10	1	-1E+10	1	-1E+10	1	-1E+10	1	-1E+10	1	-1E+10	1
4902549	20	C	02/25/2021	08:59	-133.708	47.675	0	1887.40	0	2.0210	0	34.5680	0	27.634	0	1863.204	0	42.6	4	12.8	4	-1E+10	1	-1E+10	1	-1E+10	1	-1E+10	1	-1E+10	1	-1E+10	1
4902549	20	C	02/25/2021	08:59	-133.708	47.675	0	1912.50	0	2.0040	0	34.5720	0	27.639	0	1887.871	0	43.9	4	13.2	4	-1E+10	1	-1E+10	1	-1E+10	1	-1E+10	1	-1E+10	1	-1E+10	1
4902549	20	C	02/25/2021	08:59	-133.708	47.675	0	1937.50	0	1.9860	0	34.5750	0	27.643	0	1912.437	0	45.6	4	13.8	4	-1E+10	1	-1E+10	1	-1E+10	1	-1E+10	1	-1E+10	1	-1E+10	1
4902549	20	C	02/25/2021	08:59	-133.708	47.675	0	1962.70	0	1.9710	0	34.5780	0	27.646	0	1937.197	0	46.9	4	14.1	4	-1E+10	1	-1E+10	1	-1E+10	1	-1E+10	1	-1E+10	1	-1E+10	1
4902549	20	C	02/25/2021	08:59	-133.708	47.675	0	1987.70	0	1.9550	0	34.5810	0	27.650	0	1961.757	0	48.0	4	14.5	4	-1E+10	1	-1E+10	1	-1E+10	1	-1E+10	1	-1E+10	1	-1E+10	1
4902549	20	C	02/25/2021	08:59	-133.708	47.675	0	2012.80	0	1.9360	0	34.5850	0	27.655	0	1986.412	0	49.5	4	14.9	4	-1E+10	1	-1E+10	1	-1E+10	1	-1E+10	1	-1E+10	1	-1E+10	1
4902549	20	C	02/25/2021	08:59	-133.708	47.675	0																										
4902549	21	C	03/07/2021	08:59	-133.539	47.770	0	0.10	0	8.0310	0	32.3410	0	25.182	0	0.099	0	279.2	4	95.5	4	-1E+10	1	-1E+10	1	-1E+10	1	-1E+10	1	-1E+10	1	-1E+10	1
4902549	21	C	03/07/2021	08:59	-133.539	47.770	0	0.70	0	8.0380	0	32.3340	0	25.175	0	0.694	0	279.3	4	95.5	4	-1E+10	1	-1E+10	1	-1E+10	1	-1E+10	1	-1E+10	1	-1E+10	1
4902549	21	C	03/07/2021	08:59	-133.539	47.770	0	1.80	0	8.0390	0	32.3340	0	25.175	0	1.785	0	279.3	4	95.6	4	-1E+10	1	-1E+10	1	-1E+10	1	-1E+10	1	-1E+10	1	-1E+10	1
4902549	21	C	03/07/2021	08:59	-133.539	47.770	0	3.00	0	8.0390	0	32.3340	0	25.175	0	2.975	0	279.1	4	95.5	4	-1E+10	1	-1E+10	1	-1E+10	1	-1E+10	1	-1E+10	1	-1E+10	1
4902549	21	C	03/07/2021	08:59	-133.539	47.770	0	3.90	0	8.0400	0	32.3340	0	25.175	0	3.867	0	279.1	4	95.5	4	-1E+10	1	-1E+10	1	-1E+10	1	-1E+10	1	-1E+10	1	-1E+10	1
4902549	21	C	03/07/2021	08:59	-133.539	47.770	0	4.80	0	8.0390	0	32.3340	0	25.175	0	4.760	0	279.1	4	95.5	4	-1E+10	1	-1E+10	1	-1E+10	1	-1E+10	1	-1E+10	1	-1E+10	1
4902549	21	C	03/07/2021	08:59	-133.539	47.770	0	6.00	0	8.0400	0	32.3350	0	25.176	0	5.950	0	279.1	4	95.5	4	-1E+10	1	-1E+10	1	-1E+10	1	-1E+10	1	-1E+10	1	-1E+10	1
4902549	21	C	03/07/2021	08:59	-133.539	47.770	0	7.10	0	8.0400	0	32.3340	0	25.175	0	7.040	0	279.1	4	95.5	4	-1E+10	1	-1E+10	1	-1E+10	1	-1E+10	1	-1E+10	1	-1E+10	1
4902549	21	C	03/07/2021	08:59	-133.539	47.770	0	8.10	0	8.0390	0	32.3350	0	25.176	0	8.032	0	279.1	4	95.5	4	-1E+10	1	-1E+10	1	-1E+10	1	-1E+10	1	-1E+10	1	-1E+10	1
4902549	21	C	03/07/2021	08:59	-133.539	47.770	0	9.10	0	8.0390	0	32.3350	0	25.176	0	9.024	0	279.1	4	95.5	4	-1E+10	1	-1E+10	1	-1E+10	1	-1E+10	1	-1E+10	1	-1E+10	1
4902549	21	C	03/07/2021	08:59	-133.539	47.770	0	10.10	0	8.0390	0	32.3340	0	25.175	0	10.015	0	279.1	4	95.5	4	-1E+10	1	-1E+10	1	-1E+10	1	-1E+10	1	-1E+10	1	-1E+10	1
4902549	21	C	03/07/2021	08:59	-133.539	47.770	0	15.30	0	8.0390	0	32.3350	0	25.176	0	15.171	0	278.9	4	95.4	4	-1E+10	1	-1E+10	1	-1E+10	1	-1E+10	1	-1E+10	1	-1E+10	1
4902549	21	C	03/07/2021	08:59	-133.539	47.770	0	25.30	0	8.0410	0	32.3340	0	25.175	0	25.087	0	278.7	4	95.4	4	-1E+10	1	-1E+10	1	-1E+10	1	-1E+10	1	-1E+10	1	-1E+10	1
4902549	21	C	03/07/2021	08:59	-133.539	47.770	0	35.50	0	8.0420	0	32.3340	0	25.175	0	35.200	0	278.5	4	95.3	4	-1E+10	1	-1E+10	1	-1E+10	1	-1E+10	1	-1E+10	1	-1E+10	1
4902549	21	C	03/07/2021	08:59	-133.539	47.770	0	45.50	0	8.0460	0	32.3340	0	25.175	0	45.114	0	278.2	4	95.2	4	-1E+10	1	-1E+10	1	-1E+10	1	-1E+10	1	-1E+10	1	-1E+10	1
4902549	21	C	03/07/2021	08:59	-133.539	47.770	0	55.10	0	8.0380	0	32.3340	0	25.176	0	54.631	0	277.6	4	95.0	4	-1E+10	1	-1E+10	1	-1E+10	1	-1E+10	1	-1E+10	1	-1E+10	1
4902549	21	C	03/07/2021	08:59	-133.539	47.770	0	65.20	0	8.0130	0	32.3340	0	25.180	0	64.644	0	276.8	4	94.6	4	-1E+10	1	-1E+10	1	-1E+10	1	-1E+10	1	-1E+10	1	-1E+10	1
4902549	21	C	03/07/2021	08:59	-133.539	47.770	0	75.30	0	7.9660	0	32.3330	0	25.186	0	74.656	0	275.6	4	94.1	4	-1E+10	1	-1E+10	1	-1E+10	1	-1E+10	1	-1E+10	1	-1E+10	1
4902549	21	C	03/07/2021	08:59	-133.539	47.770	0	85.10	0	7.8310	0	32.3290	0	25.202	0	84.370	0	273.7	4	93.2	4	-1E+10	1	-1E+10	1	-1E+10	1	-1E+10	1	-1E+10	1	-1E+10	1
4902549	21	C	03/07/2021	08:59	-133.539	47.770	0	95.50	0	7.7800	0	32.3410	0	25.219	0	94.679	0	264.6	4	90.0	4	-1E+10	1	-1E+10	1	-1E+10	1	-1E+10	1	-1E+10	1	-1E+10	1
4902549	21	C	03/07/2021	08:59	-133.539	47.770	0	105.50	0	7.8020	0	32.6230	0	25.438	0	104.590	0	233.1	4	79.5	4	-1E+10	1	-1E+10	1	-1E+10	1	-1E+10	1	-1E+10	1	-1E+10	1
4902549	21	C	03/07/2021	08:59	-133.539	47.770	0	115.50	0	7.4200	0	32.9780	0	25.770	0	114.501	0	212.9	4	72.2	4	-1E+10	1	-1E+10	1	-1E+10	1	-1E+10	1	-1E+10	1	-1E+10	1
4902549	21	C	03/07/2021	08:59	-133.539	47.770	0	125.40	0	7.0560	0	33.2330	0	26.021	0	124.313	0	202.5	4	68.2	4	-1E+10	1	-1E+10	1	-1E+10	1	-1E+10	1	-1E+10	1	-1E+10	1
4902549	21	C	03/07/2021	08:59	-133.539	47.770	0	135.30	0	6.9160	0	33.3700	0	26.148	0	134.124	0	196.8	4	66.1	4	-1E+10	1	-1E+10	1	-1E+10	1	-1E+10	1	-1E+10	1	-1E+10	1
4902549	21	C	03/07/2021	08:59	-133.539	47.770	0	145.20	0	6.7950	0	33.4730	0	26.246	0	143.934	0	191.8	4	64.3	4	-1E+10	1	-1E+10	1	-1E+10	1	-1E+10	1	-1E+10	1	-1E+10	1
4902549	21	C	03/07/2021	08:59	-133.539	47.770	0	155.40	0	6.7020	0	33.5880	0	26.349	0	154.041	0	187.6	4	62.8	4	-1E+10	1	-1E+10	1	-1E+10	1	-1E+10	1	-1E+10	1	-1E+10	1
4902549	21	C	03/07/2021	08:59	-133.539	47.770	0	165.60	0	6.6620	0	33.6330	0	26.389	0	164.148	0	181.8	4	60.9	4	-1E+10	1	-1E+10	1	-1E+10	1	-1E+10	1	-1E+10	1	-1E+10	1
4902549	21	C	03/07/2021	08:59	-133.539	47.770	0	175.60	0	6.5310	0	33.6770	0	26.442	0	174.056	0	171.6	4	57.3	4	-1E+10	1	-1E+10	1	-1E+10	1	-1E+10	1	-1E+10	1	-1E+10	1
4902549	21	C	03/07/2021	08:59	-133.539	47.770	0	185.30	0	6.3670	0	33.7220	0	26.498	0	183.667	0	160.4	4	53.4	4	-1E+10	1	-1E+10	1	-1E+10	1	-1E+10	1	-1E+10	1	-1E+10	1
4902549	21	C	03/07/2021	08:59	-133.539	47.770	0	195.20	0	6.2490	0	33.7500	0	26.536	0	193.475	0	150.4	4	49.9	4	-1E+10	1	-1E+10	1	-1E+10	1	-1E+10	1	-1E+10	1	-1E+10	1
4902549	21	C	03/07/2021	08:59	-133.539	47.770	0	213.00	0	6.0610	0	33.7890	0	26.591	0	211.108	0	140.2	4	46.3	4	-1E+10	1	-1E+10	1	-1E+10	1	-1E+10	1	-1E+10	1	-1E+10	1
4902549	21	C	03/07/2021	08:59	-133.539	47.770	0	238.80	0	5.7980	0	33.8180	0	26.646	0	236.664	0	126.6	4	41.6	4	-1E+10	1	-1E+10	1	-1E+10	1	-1E+10	1	-1E+10	1	-1E+10	1
4902549	21	C	03/07/2021	08:59	-133.539	47.770	0	263.00	0	5.5220	0	33.8370	0	26.695	0	260.633	0	113.9	4	37.2	4	-1E+10	1	-1E+10	1	-1E+10	1	-1E+10	1	-1E+10	1	-1E+10	1
4902549	21	C	03/07/2021	08:59	-133.539	47.770	0	287.60	0	5.2850	0	33.8540	0	26.737	0	284.994	0	102.4	4	33.2	4	-1E+10	1	-1E+10	1	-1E+10	1	-1E+10	1	-1E+10	1	-1E+10	1
4902549	21	C	03/07/2021	08:59	-133.539	47.770	0	312.70	0	5.1160	0	33.8680	0	26.767	0	309.848	0	91.8	4	29.7	4	-1E+10	1	-1E+10	1	-1E+10	1	-1E+10	1	-1E+10	1	-1E+10	1
4902549	21	C	03/07/2021	08:59	-133.539	47.770	0	337.90	0	4.9320	0	33.8900	0	26.806	0	334.798	0	79.3	4	25.6	4	-1E+10	1	-1E+10	1	-1E+10	1	-1E+10	1	-1E+10	1	-1E+10	1
4902549	21	C	03/07/2021	08:59	-133.539	47.770	0	362.60	0	4.8140	0	33.9090	0	26.834	0	359.250	0	71.2	4	22.9	4	-1E+10	1	-1E+10	1	-1E+10	1	-1E+10	1	-1E+10	1	-1E+10	1
4902549	21	C	03/07/2021	08:59	-133.539	47.770	0	387.50	0	4.7110	0	33.9310	0	26.864	0	383.897	0	64.0	4	20.5	4	-1E+10	1	-1E+10	1	-1E+10	1	-1E+10	1	-1E+10	1	-1E+10	1
4902549	21	C	03/07/2021	08:59	-133.539	47.770	0	413.60	0	4.6360	0	33.9510	0	26.888	0	409.728	0	57.6	4	18.4	4	-1E+10	1	-1E+10	1	-1E+10	1	-1E+10	1	-1E+10	1	-1E+10	1
4902549	21	C	03/07/2021	08:59	-133.539	47.770	0	437.80	0	4.5430	0	33.9770	0	26.919	0	433.676	0	50.2	4	16.0	4	-1E+10	1	-1E+10	1	-1E+10	1	-1E+10	1	-1E+10	1	-1E+10	1
4902549	21	C	03/07/2021	08:59	-133.539	47.770	0	462.80	0	4.4520	0	34.0040	0	26.950	0	458.413	0	43.1	4	13.8	4	-1E+10	1	-1E+10	1	-1E+10	1	-1E+10	1	-1E+10	1	-1E+10	1
4902549	21	C	03/07/2021	08:59	-133.539	47.770	0	487.90	0	4.3890	0	34.0270	0	26.975	0	483.246	0	37.9	4	12.1	4	-1E+10	1	-1E+10	1	-1E+10	1	-1E+10	1	-1E+10	1	-1E+10	1
4902549	21	C	03/07/2021	08:59	-133.539	47.770	0	512.70	0	4.3330	0	34.0450	0	26.996	0	507.779	0	33.4	4	10.6	4	-1E+10	1	-1E+10	1	-1E+10	1	-1E+10	1	-1E+10	1	-1E+10	1
4902549	21	C	03/07/2021	08:59	-133.539	47.770	0	537.80	0	4.2770	0	34.0660	0	27.019	0	532.606	0	28.9	4	9.2	4	-1E+10	1	-1E+10	1	-1E+10	1	-1E+10	1	-1E+10	1	-1E+10	1
4902549	21	C	03/07/2021	08:59	-133.539	47.770	0	562.60	0	4.2110	0	34.0890	0	27.044	0	557.134	0	24.8	4	7.9	4	-1E+10	1	-1E+10	1	-1E+10	1	-1E+10	1	-1E+10	1	-1E+10	1
4902549	21	C	03/07/2021	08:59	-133.539	47.770	0	587.80	0	4.1630	0	34.1100	0	27.066	0	582.053	0	21.8	4	6.9	4	-1E+10	1	-1E+10	1	-1E+10	1	-1E+10	1	-1E+10	1	-1E+10	1
4902549	21	C	03/07/2021	08:59	-133.539	47.770	0	613.10	0	4.1030	0	34.1300	0	27.088	0	607.069	0	19.1	4	6.0	4	-1E+10	1	-1E+10	1	-1E+10	1	-1E+10	1	-1E+10	1	-1E+10	1
4902549	21	C	03/07/2021	08:59	-133.539	47.770	0	637.60	0	4.0250	0	34.1530	0	27.115	0	631.291	0	16.2	4	5.1	4	-1E+10	1	-1E+10	1	-1E+10	1	-1E+10	1	-1E+10	1	-1E+10	1
4902549	21	C	03/07/2021	08:59	-133.539	47.770	0	662.60	0	3.9330	0	34.1780	0	27.144	0	656.004	0	14.5	4	4.6	4	-1E+10	1	-1E+10	1	-1E+10	1	-1E+10	1	-1E+10	1	-1E+10	1
4902549	21	C	03/07/2021	08:59	-133.539	47.770	0	688.80	0	3.8690	0	34.1960	0	27.165	0	681.901	0	13.4	4	4.2	4	-1E+10	1	-1E+10	1	-1E+10	1	-1E+10	1	-1E+10	1	-1E+10	1
4902549	21	C	03/07/2021	08:59	-133.539	47.770	0	712.90	0	3.7810	0	34.2060	0	27.182	0	705.719	0	13.8	4	4.3	4	-1E+10	1	-1E+10	1	-1E+10	1	-1E+10	1	-1E+10	1	-1E+10	1
4902549	21	C	03/07/2021	08:59	-133.539	47.770	0	737.80	0	3.6810	0	34.2170	0	27.201	0	730.324	0	13.6	4	4.3	4	-1E+10	1	-1E+10	1	-1E+10	1	-1E+10	1	-1E+10	1	-1E+10	1
4902549	21	C	03/07/2021	08:59	-133.539	47.770	0	762.60	0	3.6170	0	34.2310	0	27.218	0	754.828	0	12.9	4	4.0	4	-1E+10	1	-1E+10	1	-1E+10	1	-1E+10	1	-1E+10	1	-1E+10	1
4902549	21	C	03/07/2021	08:59	-133.539	47.770	0	787.70	0	3.5690	0	34.2450	0	27.234	0	779.625	0	12.0	4	3.8	4	-1E+10	1	-1E+10	1	-1E+10	1	-1E+10	1	-1E+10	1	-1E+10	1
4902549	21	C	03/07/2021	08:59	-133.539	47.770	0	813.60	0	3.5150	0	34.2590	0	27.251	0	805.210	0	11.3	4	3.5	4	-1E+10	1	-1E+10	1	-1E+10	1	-1E+10	1	-1E+10	1	-1E+10	1
4902549	21	C	03/07/2021	08:59	-133.539	47.770	0	837.90	0	3.4890	0	34.2700	0	27.262	0	829.211	0	10.2	4	3.2	4	-1E+10	1	-1E+10	1	-1E+10	1	-1E+10	1	-1E+10	1	-1E+10	1
4902549	21	C	03/07/2021	08:59	-133.539	47.770	0	862.80	0	3.4540	0	34.2860	0	27.278	0	853.802	0	9.0	4	2.8	4	-1E+10	1	-1E+10	1	-1E+10	1	-1E+10	1	-1E+10	1	-1E+10	1
4902549	21	C	03/07/2021	08:59	-133.539	47.770	0	887.90	0	3.3920	0	34.2990	0	27.295	0	878.588	0	8.6	4	2.7	4	-1E+10	1	-1E+10	1	-1E+10	1	-1E+10	1	-1E+10	1	-1E+10	1
4902549	21	C	03/07/2021	08:59	-133.539	47.770	0	913.10	0	3.3270	0	34.3080	0	27.308	0	903.469	0	8.7	4	2.7	4	-1E+10	1	-1E+10	1	-1E+10	1	-1E+10	1	-1E+10	1	-1E+10	1
4902549	21	C	03/07/2021	08:59	-133.539	47.770	0	938.00	0	3.2710	0	34.3190	0	27.323	0	928.051	0	8.5	4	2.6	4	-1E+10	1	-1E+10	1	-1E+10	1	-1E+10	1	-1E+10	1	-1E+10	1
4902549	21	C	03/07/2021	08:59	-133.539	47.770	0	962.60	0	3.2210	0	34.3300	0	27.336	0	952.334	0	8.3	4	2.6	4	-1E+10	1	-1E+10	1	-1E+10	1	-1E+10	1	-1E+10	1	-1E+10	1
4902549	21	C	03/07/2021	08:59	-133.539	47.770	0	987.60	0	3.1730	0	34.3410	0	27.349	0	977.010	0	8.1	4	2.5	4	-1E+10	1	-1E+10	1	-1E+10	1	-1E+10	1	-1E+10	1	-1E+10	1
4902549	21	C	03/07/2021	08:59	-133.539	47.770	0	1013.10	0	3.1310	0	34.3530	0	27.363	0	1002.175	0	7.8	4	2.4	4	-1E+10	1	-1E+10	1	-1E+10	1	-1E+10	1	-1E+10	1	-1E+10	1
4902549	21	C	03/07/2021	08:59	-133.539	47.770	0	1038.30	0	3.0920	0	34.3620	0	27.374	0	1027.042	0	7.8	4	2.4	4	-1E+10	1	-1E+10	1	-1E+10	1	-1E+10	1	-1E+10	1	-1E+10	1
4902549	21	C	03/07/2021	08:59	-133.539	47.770	0	1063.30	0	3.0460	0	34.3740	0	27.388	0	1051.708	0	7.7	4	2.4	4	-1E+10	1	-1E+10	1	-1E+10	1	-1E+10	1	-1E+10	1	-1E+10	1
4902549	21	C	03/07/2021	08:59	-133.539	47.770	0	1088.50	0	3.0050	0	34.3860	0	27.401	0	1076.569	0	7.7	4	2.4	4	-1E+10	1	-1E+10	1	-1E+10	1	-1E+10	1	-1E+10	1	-1E+10	1
4902549	21	C	03/07/2021	08:59	-133.539	47.770	0	1112.60	0	2.9590	0	34.3970	0	27.414	0	1100.341	0	7.8	4	2.4	4	-1E+10	1	-1E+10	1	-1E+10	1	-1E+10	1	-1E+10	1	-1E+10	1
4902549	21	C	03/07/2021	08:59	-133.539	47.770	0	1137.50	0	2.9120	0	34.4080	0	27.427	0	1124.900	0	8.1	4	2.5	4	-1E+10	1	-1E+10	1	-1E+10	1	-1E+10	1	-1E+10	1	-1E+10	1
4902549	21	C	03/07/2021	08:59	-133.539	47.770	0	1162.70	0	2.8690	0	34.4170	0	27.439	0	1149.752	0	8.4	4	2.6	4	-1E+10	1	-1E+10	1	-1E+10	1	-1E+10	1	-1E+10	1	-1E+10	1
4902549	21	C	03/07/2021	08:59	-133.539	47.770	0	1188.30	0	2.8340	0	34.4250	0	27.448	0	1174.996	0	8.6	4	2.6	4	-1E+10	1	-1E+10	1	-1E+10	1	-1E+10	1	-1E+10	1	-1E+10	1
4902549	21	C	03/07/2021	08:59	-133.539	47.770	0	1212.60	0	2.8010	0	34.4310	0	27.456	0	1198.954	0	8.8	4	2.7	4	-1E+10	1	-1E+10	1	-1E+10	1	-1E+10	1	-1E+10	1	-1E+10	1
4902549	21	C	03/07/2021	08:59	-133.539	47.770	0	1237.70	0	2.7630	0	34.4370	0	27.464	0	1223.699	0	9.2	4	2.8	4	-1E+10	1	-1E+10	1	-1E+10	1	-1E+10	1	-1E+10	1	-1E+10	1
4902549	21	C	03/07/2021	08:59	-133.539	47.770	0	1262.70	0	2.7310	0	34.4420	0	27.471	0	1248.342	0	9.6	4	2.9	4	-1E+10	1	-1E+10	1	-1E+10	1	-1E+10	1	-1E+10	1	-1E+10	1
4902549	21	C	03/07/2021	08:59	-133.539	47.770	0	1287.70	0	2.6890	0	34.4480	0	27.480	0	1272.982	0	10.0	4	3.1	4	-1E+10	1	-1E+10	1	-1E+10	1	-1E+10	1	-1E+10	1	-1E+10	1
4902549	21	C	03/07/2021	08:59	-133.539	47.770	0	1313.00	0	2.6510	0	34.4540	0	27.488	0	1297.915	0	10.4	4	3.2	4	-1E+10	1	-1E+10	1	-1E+10	1	-1E+10	1	-1E+10	1	-1E+10	1
4902549	21	C	03/07/2021	08:59	-133.539	47.770	0	1337.90	0	2.6120	0	34.4610	0	27.497	0	1322.451	0	11.1	4	3.4	4	-1E+10	1	-1E+10	1	-1E+10	1	-1E+10	1	-1E+10	1	-1E+10	1
4902549	21	C	03/07/2021	08:59	-133.539	47.770	0	1362.80	0	2.5710	0	34.4670	0	27.506	0	1346.984	0	12.0	4	3.7	4	-1E+10	1	-1E+10	1	-1E+10	1	-1E+10	1	-1E+10	1	-1E+10	1
4902549	21	C	03/07/2021	08:59	-133.539	47.770	0	1388.00	0	2.5350	0	34.4730	0	27.513	0	1371.810	0	12.9	4	3.9	4	-1E+10	1	-1E+10	1	-1E+10	1	-1E+10	1	-1E+10	1	-1E+10	1
4902549	21	C	03/07/2021	08:59	-133.539	47.770	0	1413.10	0	2.4880	0	34.4810	0	27.524	0	1396.534	0	14.1	4	4.3	4	-1E+10	1	-1E+10	1	-1E+10	1	-1E+10	1	-1E+10	1	-1E+10	1
4902549	21	C	03/07/2021	08:59	-133.539	47.770	0	1438.30	0	2.4470	0	34.4890	0	27.534	0	1421.354	0	15.6	4	4.8	4	-1E+10	1	-1E+10	1	-1E+10	1	-1E+10	1	-1E+10	1	-1E+10	1
4902549	21	C	03/07/2021	08:59	-133.539	47.770	0	1462.90	0	2.4150	0	34.4950	0	27.541	0	1445.580	0	17.2	4	5.2	4	-1E+10	1	-1E+10	1	-1E+10	1	-1E+10	1	-1E+10	1	-1E+10	1
4902549	21	C	03/07/2021	08:59	-133.539	47.770	0	1487.90	0	2.3780	0	34.5020	0	27.550	0	1470.197	0	18.8	4	5.7	4	-1E+10	1	-1E+10	1	-1E+10	1	-1E+10	1	-1E+10	1	-1E+10	1
4902549	21	C	03/07/2021	08:59	-133.539	47.770	0	1512.80	0	2.3440	0	34.5080	0	27.558	0	1494.712	0	20.5	4	6.2	4	-1E+10	1	-1E+10	1	-1E+10	1	-1E+10	1	-1E+10	1	-1E+10	1
4902549	21	C	03/07/2021	08:59	-133.539	47.770	0	1537.70	0	2.3150	0	34.5130	0	27.565	0	1519.225	0	21.8	4	6.6	4	-1E+10	1	-1E+10	1	-1E+10	1	-1E+10	1	-1E+10	1	-1E+10	1
4902549	21	C	03/07/2021	08:59	-133.539	47.770	0	1562.90	0	2.2910	0	34.5170	0	27.570	0	1544.031	0	23.0	4	7.0	4	-1E+10	1	-1E+10	1	-1E+10	1	-1E+10	1	-1E+10	1	-1E+10	1
4902549	21	C	03/07/2021	08:59	-133.539	47.770	0	1588.00	0	2.2650	0	34.5220	0	27.576	0	1568.735	0	24.4	4	7.4	4	-1E+10	1	-1E+10	1	-1E+10	1	-1E+10	1	-1E+10	1	-1E+10	1
4902549	21	C	03/07/2021	08:59	-133.539	47.770	0	1613.20	0	2.2390	0	34.5270	0	27.582	0	1593.534	0	25.9	4	7.8	4	-1E+10	1	-1E+10	1	-1E+10	1	-1E+10	1	-1E+10	1	-1E+10	1
4902549	21	C	03/07/2021	08:59	-133.539	47.770	0	1637.70	0	2.2180	0	34.5310	0	27.587	0	1617.642	0	27.3	4	8.3	4	-1E+10	1	-1E+10	1	-1E+10	1	-1E+10	1	-1E+10	1	-1E+10	1
4902549	21	C	03/07/2021	08:59	-133.539	47.770	0	1662.70	0	2.1950	0	34.5350	0	27.593	0	1642.239	0	28.9	4	8.7	4	-1E+10	1	-1E+10	1	-1E+10	1	-1E+10	1	-1E+10	1	-1E+10	1
4902549	21	C	03/07/2021	08:59	-133.539	47.770	0	1687.70	0	2.1740	0	34.5390	0	27.598	0	1666.833	0	30.4	4	9.2	4	-1E+10	1	-1E+10	1	-1E+10	1	-1E+10	1	-1E+10	1	-1E+10	1
4902549	21	C	03/07/2021	08:59	-133.539	47.770	0	1712.40	0	2.1520	0	34.5430	0	27.603	0	1691.129	0	31.9	4	9.7	4	-1E+10	1	-1E+10	1	-1E+10	1	-1E+10	1	-1E+10	1	-1E+10	1
4902549	21	C	03/07/2021	08:59	-133.539	47.770	0	1737.40	0	2.1300	0	34.5470	0	27.608	0	1715.718	0	33.7	4	10.2	4	-1E+10	1	-1E+10	1	-1E+10	1	-1E+10	1	-1E+10	1	-1E+10	1
4902549	21	C	03/07/2021	08:59	-133.539	47.770	0	1762.50	0	2.1040	0	34.5520	0	27.614	0	1740.401	0	35.4	4	10.7	4	-1E+10	1	-1E+10	1	-1E+10	1	-1E+10	1	-1E+10	1	-1E+10	1
4902549	21	C	03/07/2021	08:59	-133.539	47.770	0	1787.60	0	2.0860	0	34.5560	0	27.619	0	1765.082	0	36.8	4	11.1	4	-1E+10	1	-1E+10	1	-1E+10	1	-1E+10	1	-1E+10	1	-1E+10	1
4902549	21	C	03/07/2021	08:59	-133.539	47.770	0	1812.80	0	2.0670	0	34.5590	0	27.623	0	1789.859	0	38.6	4	11.7	4	-1E+10	1	-1E+10	1	-1E+10	1	-1E+10	1	-1E+10	1	-1E+10	1
4902549	21	C	03/07/2021	08:59	-133.539	47.770	0	1838.30	0	2.0420	0	34.5640	0	27.629	0	1814.927	0	40.2	4	12.1	4	-1E+10	1	-1E+10	1	-1E+10	1	-1E+10	1	-1E+10	1	-1E+10	1
4902549	21	C	03/07/2021	08:59	-133.539	47.770	0	1862.50	0	2.0280	0	34.5670	0	27.632	0	1838.715	0	41.7	4	12.6	4	-1E+10	1	-1E+10	1	-1E+10	1	-1E+10	1	-1E+10	1	-1E+10	1
4902549	21	C	03/07/2021	08:59	-133.539	47.770	0	1887.50	0	2.0140	0	34.5710	0	27.637	0	1863.286	0	42.7	4	12.9	4	-1E+10	1	-1E+10	1	-1E+10	1	-1E+10	1	-1E+10	1	-1E+10	1
4902549	21	C	03/07/2021	08:59	-133.539	47.770	0	1912.80	0	2.0020	0	34.5730	0	27.640	0	1888.150	0	44.0	4	13.3	4	-1E+10	1	-1E+10	1	-1E+10	1	-1E+10	1	-1E+10	1	-1E+10	1
4902549	21	C	03/07/2021	08:59	-133.539	47.770	0	1938.00	0	1.9840	0	34.5770	0	27.644	0	1912.912	0	45.6	4	13.8	4	-1E+10	1	-1E+10	1	-1E+10	1	-1E+10	1	-1E+10	1	-1E+10	1
4902549	21	C	03/07/2021	08:59	-133.539	47.770	0	1962.60	0	1.9670	0	34.5790	0	27.647	0	1937.081	0	47.2	4	14.2	4	-1E+10	1	-1E+10	1	-1E+10	1	-1E+10	1	-1E+10	1	-1E+10	1
4902549	21	C	03/07/2021	08:59	-133.539	47.770	0	1987.40	0	1.9490	0	34.5830	0	27.652	0	1961.445	0	48.5	4	14.6	4	-1E+10	1	-1E+10	1	-1E+10	1	-1E+10	1	-1E+10	1	-1E+10	1
4902549	21	C	03/07/2021	08:59	-133.539	47.770	0	2012.60	0	1.9340	0	34.5860	0	27.656	0	1986.198	0	49.7	4	15.0	4	-1E+10	1	-1E+10	1	-1E+10	1	-1E+10	1	-1E+10	1	-1E+10	1
4902549	21	C	03/07/2021	08:59	-133.539	47.770	0	2031.70	0	1.9240	0	34.5880	0	27.658	0	2004.958	0	49.9	4	15.0	4	-1E+10	1	-1E+10	1	-1E+10	1	-1E+10	1	-1E+10	1	-1E+10	1
4902549	21	C	03/07/2021	08:59	-133.539	47.770	0																										
4902549	22	C	03/17/2021	09:08	-133.399	47.807	0	0.40	0	8.3030	0	32.3340	0	25.137	0	0.397	0	277.5	4	95.5	4	-1E+10	1	-1E+10	1	-1E+10	1	-1E+10	1	-1E+10	1	-1E+10	1
4902549	22	C	03/17/2021	09:08	-133.399	47.807	0	1.00	0	8.3020	0	32.3360	0	25.138	0	0.992	0	277.3	4	95.4	4	-1E+10	1	-1E+10	1	-1E+10	1	-1E+10	1	-1E+10	1	-1E+10	1
4902549	22	C	03/17/2021	09:08	-133.399	47.807	0	2.00	0	8.3020	0	32.3360	0	25.139	0	1.983	0	277.4	4	95.5	4	-1E+10	1	-1E+10	1	-1E+10	1	-1E+10	1	-1E+10	1	-1E+10	1
4902549	22	C	03/17/2021	09:08	-133.399	47.807	0	2.90	0	8.3030	0	32.3350	0	25.138	0	2.876	0	277.4	4	95.5	4	-1E+10	1	-1E+10	1	-1E+10	1	-1E+10	1	-1E+10	1	-1E+10	1
4902549	22	C	03/17/2021	09:08	-133.399	47.807	0	4.10	0	8.3050	0	32.3360	0	25.138	0	4.066	0	277.4	4	95.5	4	-1E+10	1	-1E+10	1	-1E+10	1	-1E+10	1	-1E+10	1	-1E+10	1
4902549	22	C	03/17/2021	09:08	-133.399	47.807	0	5.00	0	8.3050	0	32.3350	0	25.137	0	4.958	0	277.3	4	95.5	4	-1E+10	1	-1E+10	1	-1E+10	1	-1E+10	1	-1E+10	1	-1E+10	1
4902549	22	C	03/17/2021	09:08	-133.399	47.807	0	6.00	0	8.3040	0	32.3360	0	25.138	0	5.950	0	277.3	4	95.4	4	-1E+10	1	-1E+10	1	-1E+10	1	-1E+10	1	-1E+10	1	-1E+10	1
4902549	22	C	03/17/2021	09:08	-133.399	47.807	0	7.10	0	8.3040	0	32.3350	0	25.138	0	7.040	0	277.2	4	95.4	4	-1E+10	1	-1E+10	1	-1E+10	1	-1E+10	1	-1E+10	1	-1E+10	1
4902549	22	C	03/17/2021	09:08	-133.399	47.807	0	8.20	0	8.3030	0	32.3360	0	25.138	0	8.131	0	277.1	4	95.4	4	-1E+10	1	-1E+10	1	-1E+10	1	-1E+10	1	-1E+10	1	-1E+10	1
4902549	22	C	03/17/2021	09:08	-133.399	47.807	0	8.90	0	8.3010	0	32.3360	0	25.139	0	8.825	0	277.3	4	95.4	4	-1E+10	1	-1E+10	1	-1E+10	1	-1E+10	1	-1E+10	1	-1E+10	1
4902549	22	C	03/17/2021	09:08	-133.399	47.807	0	10.00	0	8.2970	0	32.3370	0	25.140	0	9.916	0	277.3	4	95.4	4	-1E+10	1	-1E+10	1	-1E+10	1	-1E+10	1	-1E+10	1	-1E+10	1
4902549	22	C	03/17/2021	09:08	-133.399	47.807	0	15.40	0	8.2920	0	32.3370	0	25.141	0	15.270	0	277.3	4	95.4	4	-1E+10	1	-1E+10	1	-1E+10	1	-1E+10	1	-1E+10	1	-1E+10	1
4902549	22	C	03/17/2021	09:08	-133.399	47.807	0	25.60	0	8.2890	0	32.3380	0	25.142	0	25.384	0	277.4	4	95.4	4	-1E+10	1	-1E+10	1	-1E+10	1	-1E+10	1	-1E+10	1	-1E+10	1
4902549	22	C	03/17/2021	09:08	-133.399	47.807	0	35.50	0	8.2870	0	32.3380	0	25.143	0	35.200	0	277.2	4	95.4	4	-1E+10	1	-1E+10	1	-1E+10	1	-1E+10	1	-1E+10	1	-1E+10	1
4902549	22	C	03/17/2021	09:08	-133.399	47.807	0	45.60	0	8.2860	0	32.3390	0	25.144	0	45.213	0	276.9	4	95.3	4	-1E+10	1	-1E+10	1	-1E+10	1	-1E+10	1	-1E+10	1	-1E+10	1
4902549	22	C	03/17/2021	09:08	-133.399	47.807	0	55.50	0	8.2830	0	32.3390	0	25.144	0	55.028	0	276.1	4	95.0	4	-1E+10	1	-1E+10	1	-1E+10	1	-1E+10	1	-1E+10	1	-1E+10	1
4902549	22	C	03/17/2021	09:08	-133.399	47.807	0	65.40	0	8.2570	0	32.3440	0	25.152	0	64.842	0	273.9	4	94.2	4	-1E+10	1	-1E+10	1	-1E+10	1	-1E+10	1	-1E+10	1	-1E+10	1
4902549	22	C	03/17/2021	09:08	-133.399	47.807	0	75.40	0	8.1620	0	32.3690	0	25.186	0	74.755	0	269.7	4	92.6	4	-1E+10	1	-1E+10	1	-1E+10	1	-1E+10	1	-1E+10	1	-1E+10	1
4902549	22	C	03/17/2021	09:08	-133.399	47.807	0	85.50	0	8.1480	0	32.4020	0	25.214	0	84.766	0	266.0	4	91.3	4	-1E+10	1	-1E+10	1	-1E+10	1	-1E+10	1	-1E+10	1	-1E+10	1
4902549	22	C	03/17/2021	09:08	-133.399	47.807	0	95.80	0	7.9660	0	32.4130	0	25.249	0	94.976	0	263.4	4	90.0	4	-1E+10	1	-1E+10	1	-1E+10	1	-1E+10	1	-1E+10	1	-1E+10	1
4902549	22	C	03/17/2021	09:08	-133.399	47.807	0	105.60	0	8.1240	0	32.5000	0	25.295	0	104.689	0	251.9	4	86.4	4	-1E+10	1	-1E+10	1	-1E+10	1	-1E+10	1	-1E+10	1	-1E+10	1
4902549	22	C	03/17/2021	09:08	-133.399	47.807	0	115.20	0	8.1740	0	32.5850	0	25.354	0	114.203	0	241.5	4	83.0	4	-1E+10	1	-1E+10	1	-1E+10	1	-1E+10	1	-1E+10	1	-1E+10	1
4902549	22	C	03/17/2021	09:08	-133.399	47.807	0	125.00	0	7.9440	0	32.6990	0	25.477	0	123.916	0	230.1	4	78.8	4	-1E+10	1	-1E+10	1	-1E+10	1	-1E+10	1	-1E+10	1	-1E+10	1
4902549	22	C	03/17/2021	09:08	-133.399	47.807	0	135.70	0	7.6380	0	33.0400	0	25.789	0	134.519	0	207.5	4	70.7	4	-1E+10	1	-1E+10	1	-1E+10	1	-1E+10	1	-1E+10	1	-1E+10	1
4902549	22	C	03/17/2021	09:08	-133.399	47.807	0	144.90	0	7.3460	0	33.3260	0	26.055	0	143.636	0	198.1	4	67.2	4	-1E+10	1	-1E+10	1	-1E+10	1	-1E+10	1	-1E+10	1	-1E+10	1
4902549	22	C	03/17/2021	09:08	-133.399	47.807	0	155.20	0	7.0730	0	33.4720	0	26.207	0	153.843	0	191.6	4	64.7	4	-1E+10	1	-1E+10	1	-1E+10	1	-1E+10	1	-1E+10	1	-1E+10	1
4902549	22	C	03/17/2021	09:08	-133.399	47.807	0	165.40	0	6.8000	0	33.5400	0	26.298	0	163.949	0	185.7	4	62.3	4	-1E+10	1	-1E+10	1	-1E+10	1	-1E+10	1	-1E+10	1	-1E+10	1
4902549	22	C	03/17/2021	09:08	-133.399	47.807	0	175.40	0	6.6230	0	33.6140	0	26.380	0	173.857	0	179.0	4	59.9	4	-1E+10	1	-1E+10	1	-1E+10	1	-1E+10	1	-1E+10	1	-1E+10	1
4902549	22	C	03/17/2021	09:08	-133.399	47.807	0	185.10	0	6.5170	0	33.6680	0	26.436	0	183.468	0	171.8	4	57.3	4	-1E+10	1	-1E+10	1	-1E+10	1	-1E+10	1	-1E+10	1	-1E+10	1
4902549	22	C	03/17/2021	09:08	-133.399	47.807	0	194.90	0	6.3810	0	33.7140	0	26.490	0	193.177	0	164.1	4	54.6	4	-1E+10	1	-1E+10	1	-1E+10	1	-1E+10	1	-1E+10	1	-1E+10	1
4902549	22	C	03/17/2021	09:08	-133.399	47.807	0	212.90	0	6.1900	0	33.7490	0	26.543	0	211.008	0	152.7	4	50.6	4	-1E+10	1	-1E+10	1	-1E+10	1	-1E+10	1	-1E+10	1	-1E+10	1
4902549	22	C	03/17/2021	09:08	-133.399	47.807	0	238.30	0	5.9170	0	33.7830	0	26.604	0	236.168	0	136.5	4	45.0	4	-1E+10	1	-1E+10	1	-1E+10	1	-1E+10	1	-1E+10	1	-1E+10	1
4902549	22	C	03/17/2021	09:08	-133.399	47.807	0	263.80	0	5.6450	0	33.8260	0	26.672	0	261.424	0	120.1	4	39.3	4	-1E+10	1	-1E+10	1	-1E+10	1	-1E+10	1	-1E+10	1	-1E+10	1
4902549	22	C	03/17/2021	09:08	-133.399	47.807	0	287.30	0	5.3750	0	33.8470	0	26.721	0	284.696	0	106.9	4	34.8	4	-1E+10	1	-1E+10	1	-1E+10	1	-1E+10	1	-1E+10	1	-1E+10	1
4902549	22	C	03/17/2021	09:08	-133.399	47.807	0	312.50	0	5.1650	0	33.8630	0	26.758	0	309.649	0	94.8	4	30.7	4	-1E+10	1	-1E+10	1	-1E+10	1	-1E+10	1	-1E+10	1	-1E+10	1
4902549	22	C	03/17/2021	09:08	-133.399	47.807	0	338.10	0	4.9760	0	33.8820	0	26.795	0	334.995	0	83.4	4	26.9	4	-1E+10	1	-1E+10	1	-1E+10	1	-1E+10	1	-1E+10	1	-1E+10	1
4902549	22	C	03/17/2021	09:08	-133.399	47.807	0	363.20	0	4.8430	0	33.9000	0	26.824	0	359.842	0	74.3	4	23.9	4	-1E+10	1	-1E+10	1	-1E+10	1	-1E+10	1	-1E+10	1	-1E+10	1
4902549	22	C	03/17/2021	09:08	-133.399	47.807	0	388.60	0	4.7130	0	33.9270	0	26.860	0	384.984	0	65.3	4	20.9	4	-1E+10	1	-1E+10	1	-1E+10	1	-1E+10	1	-1E+10	1	-1E+10	1
4902549	22	C	03/17/2021	09:08	-133.399	47.807	0	412.50	0	4.6090	0	33.9500	0	26.890	0	408.638	0	59.1	4	18.9	4	-1E+10	1	-1E+10	1	-1E+10	1	-1E+10	1	-1E+10	1	-1E+10	1
4902549	22	C	03/17/2021	09:08	-133.399	47.807	0	437.70	0	4.5360	0	33.9710	0	26.915	0	433.576	0	52.8	4	16.9	4	-1E+10	1	-1E+10	1	-1E+10	1	-1E+10	1	-1E+10	1	-1E+10	1
4902549	22	C	03/17/2021	09:08	-133.399	47.807	0	462.90	0	4.4440	0	33.9970	0	26.946	0	458.511	0	46.8	4	14.9	4	-1E+10	1	-1E+10	1	-1E+10	1	-1E+10	1	-1E+10	1	-1E+10	1
4902549	22	C	03/17/2021	09:08	-133.399	47.807	0	487.80	0	4.3720	0	34.0190	0	26.971	0	483.146	0	40.6	4	12.9	4	-1E+10	1	-1E+10	1	-1E+10	1	-1E+10	1	-1E+10	1	-1E+10	1
4902549	22	C	03/17/2021	09:08	-133.399	47.807	0	513.00	0	4.3040	0	34.0460	0	27.000	0	508.074	0	33.7	4	10.7	4	-1E+10	1	-1E+10	1	-1E+10	1	-1E+10	1	-1E+10	1	-1E+10	1
4902549	22	C	03/17/2021	09:08	-133.399	47.807	0	537.40	0	4.2420	0	34.0750	0	27.029	0	532.209	0	27.4	4	8.7	4	-1E+10	1	-1E+10	1	-1E+10	1	-1E+10	1	-1E+10	1	-1E+10	1
4902549	22	C	03/17/2021	09:08	-133.399	47.807	0	562.80	0	4.1910	0	34.0980	0	27.053	0	557.329	0	23.4	4	7.4	4	-1E+10	1	-1E+10	1	-1E+10	1	-1E+10	1	-1E+10	1	-1E+10	1
4902549	22	C	03/17/2021	09:08	-133.399	47.807	0	587.80	0	4.1270	0	34.1230	0	27.080	0	582.051	0	19.9	4	6.3	4	-1E+10	1	-1E+10	1	-1E+10	1	-1E+10	1	-1E+10	1	-1E+10	1
4902549	22	C	03/17/2021	09:08	-133.399	47.807	0	612.60	0	4.0740	0	34.1400	0	27.099	0	606.573	0	17.9	4	5.7	4	-1E+10	1	-1E+10	1	-1E+10	1	-1E+10	1	-1E+10	1	-1E+10	1
4902549	22	C	03/17/2021	09:08	-133.399	47.807	0	637.80	0	4.0340	0	34.1540	0	27.115	0	631.487	0	16.1	4	5.1	4	-1E+10	1	-1E+10	1	-1E+10	1	-1E+10	1	-1E+10	1	-1E+10	1
4902549	22	C	03/17/2021	09:08	-133.399	47.807	0	662.80	0	3.9730	0	34.1720	0	27.135	0	656.200	0	14.6	4	4.6	4	-1E+10	1	-1E+10	1	-1E+10	1	-1E+10	1	-1E+10	1	-1E+10	1
4902549	22	C	03/17/2021	09:08	-133.399	47.807	0	687.70	0	3.8780	0	34.1910	0	27.160	0	680.811	0	13.8	4	4.3	4	-1E+10	1	-1E+10	1	-1E+10	1	-1E+10	1	-1E+10	1	-1E+10	1
4902549	22	C	03/17/2021	09:08	-133.399	47.807	0	713.10	0	3.8070	0	34.2070	0	27.180	0	705.914	0	13.0	4	4.1	4	-1E+10	1	-1E+10	1	-1E+10	1	-1E+10	1	-1E+10	1	-1E+10	1
4902549	22	C	03/17/2021	09:08	-133.399	47.807	0	737.70	0	3.7260	0	34.2190	0	27.198	0	730.223	0	12.9	4	4.0	4	-1E+10	1	-1E+10	1	-1E+10	1	-1E+10	1	-1E+10	1	-1E+10	1
4902549	22	C	03/17/2021	09:08	-133.399	47.807	0	762.30	0	3.6490	0	34.2330	0	27.217	0	754.529	0	12.3	4	3.8	4	-1E+10	1	-1E+10	1	-1E+10	1	-1E+10	1	-1E+10	1	-1E+10	1
4902549	22	C	03/17/2021	09:08	-133.399	47.807	0	788.20	0	3.5920	0	34.2450	0	27.232	0	780.117	0	11.8	4	3.7	4	-1E+10	1	-1E+10	1	-1E+10	1	-1E+10	1	-1E+10	1	-1E+10	1
4902549	22	C	03/17/2021	09:08	-133.399	47.807	0	812.90	0	3.5470	0	34.2570	0	27.246	0	804.516	0	10.9	4	3.4	4	-1E+10	1	-1E+10	1	-1E+10	1	-1E+10	1	-1E+10	1	-1E+10	1
4902549	22	C	03/17/2021	09:08	-133.399	47.807	0	837.70	0	3.5040	0	34.2700	0	27.261	0	829.011	0	9.9	4	3.1	4	-1E+10	1	-1E+10	1	-1E+10	1	-1E+10	1	-1E+10	1	-1E+10	1
4902549	22	C	03/17/2021	09:08	-133.399	47.807	0	862.80	0	3.4630	0	34.2830	0	27.275	0	853.799	0	9.2	4	2.9	4	-1E+10	1	-1E+10	1	-1E+10	1	-1E+10	1	-1E+10	1	-1E+10	1
4902549	22	C	03/17/2021	09:08	-133.399	47.807	0	887.90	0	3.4030	0	34.2970	0	27.292	0	878.585	0	8.6	4	2.7	4	-1E+10	1	-1E+10	1	-1E+10	1	-1E+10	1	-1E+10	1	-1E+10	1
4902549	22	C	03/17/2021	09:08	-133.399	47.807	0	912.70	0	3.3400	0	34.3100	0	27.309	0	903.071	0	8.4	4	2.6	4	-1E+10	1	-1E+10	1	-1E+10	1	-1E+10	1	-1E+10	1	-1E+10	1
4902549	22	C	03/17/2021	09:08	-133.399	47.807	0	937.60	0	3.2700	0	34.3230	0	27.326	0	927.653	0	8.3	4	2.6	4	-1E+10	1	-1E+10	1	-1E+10	1	-1E+10	1	-1E+10	1	-1E+10	1
4902549	22	C	03/17/2021	09:08	-133.399	47.807	0	962.80	0	3.2110	0	34.3340	0	27.340	0	952.529	0	8.2	4	2.6	4	-1E+10	1	-1E+10	1	-1E+10	1	-1E+10	1	-1E+10	1	-1E+10	1
4902549	22	C	03/17/2021	09:08	-133.399	47.807	0	988.60	0	3.1800	0	34.3400	0	27.348	0	977.993	0	8.2	4	2.5	4	-1E+10	1	-1E+10	1	-1E+10	1	-1E+10	1	-1E+10	1	-1E+10	1
4902549	22	C	03/17/2021	09:08	-133.399	47.807	0	1012.90	0	3.1490	0	34.3490	0	27.358	0	1001.974	0	8.0	4	2.5	4	-1E+10	1	-1E+10	1	-1E+10	1	-1E+10	1	-1E+10	1	-1E+10	1
4902549	22	C	03/17/2021	09:08	-133.399	47.807	0	1038.00	0	3.0990	0	34.3580	0	27.370	0	1026.742	0	8.0	4	2.5	4	-1E+10	1	-1E+10	1	-1E+10	1	-1E+10	1	-1E+10	1	-1E+10	1
4902549	22	C	03/17/2021	09:08	-133.399	47.807	0	1062.50	0	3.0440	0	34.3670	0	27.382	0	1050.915	0	8.0	4	2.5	4	-1E+10	1	-1E+10	1	-1E+10	1	-1E+10	1	-1E+10	1	-1E+10	1
4902549	22	C	03/17/2021	09:08	-133.399	47.807	0	1087.40	0	3.0030	0	34.3780	0	27.395	0	1075.480	0	7.9	4	2.4	4	-1E+10	1	-1E+10	1	-1E+10	1	-1E+10	1	-1E+10	1	-1E+10	1
4902549	22	C	03/17/2021	09:08	-133.399	47.807	0	1112.70	0	2.9730	0	34.3890	0	27.407	0	1100.436	0	8.0	4	2.5	4	-1E+10	1	-1E+10	1	-1E+10	1	-1E+10	1	-1E+10	1	-1E+10	1
4902549	22	C	03/17/2021	09:08	-133.399	47.807	0	1137.90	0	2.9370	0	34.3940	0	27.414	0	1125.291	0	8.2	4	2.5	4	-1E+10	1	-1E+10	1	-1E+10	1	-1E+10	1	-1E+10	1	-1E+10	1
4902549	22	C	03/17/2021	09:08	-133.399	47.807	0	1162.80	0	2.9250	0	34.4000	0	27.420	0	1149.847	0	8.2	4	2.5	4	-1E+10	1	-1E+10	1	-1E+10	1	-1E+10	1	-1E+10	1	-1E+10	1
4902549	22	C	03/17/2021	09:08	-133.399	47.807	0	1188.10	0	2.8920	0	34.4070	0	27.429	0	1174.794	0	8.4	4	2.6	4	-1E+10	1	-1E+10	1	-1E+10	1	-1E+10	1	-1E+10	1	-1E+10	1
4902549	22	C	03/17/2021	09:08	-133.399	47.807	0	1212.90	0	2.8640	0	34.4170	0	27.439	0	1199.246	0	8.6	4	2.7	4	-1E+10	1	-1E+10	1	-1E+10	1	-1E+10	1	-1E+10	1	-1E+10	1
4902549	22	C	03/17/2021	09:08	-133.399	47.807	0	1238.10	0	2.8090	0	34.4250	0	27.451	0	1224.089	0	9.1	4	2.8	4	-1E+10	1	-1E+10	1	-1E+10	1	-1E+10	1	-1E+10	1	-1E+10	1
4902549	22	C	03/17/2021	09:08	-133.399	47.807	0	1262.90	0	2.7640	0	34.4330	0	27.461	0	1248.535	0	9.6	4	3.0	4	-1E+10	1	-1E+10	1	-1E+10	1	-1E+10	1	-1E+10	1	-1E+10	1
4902549	22	C	03/17/2021	09:08	-133.399	47.807	0	1288.50	0	2.7110	0	34.4410	0	27.472	0	1273.766	0	10.1	4	3.1	4	-1E+10	1	-1E+10	1	-1E+10	1	-1E+10	1	-1E+10	1	-1E+10	1
4902549	22	C	03/17/2021	09:08	-133.399	47.807	0	1312.60	0	2.6590	0	34.4490	0	27.483	0	1297.516	0	10.9	4	3.3	4	-1E+10	1	-1E+10	1	-1E+10	1	-1E+10	1	-1E+10	1	-1E+10	1
4902549	22	C	03/17/2021	09:08	-133.399	47.807	0	1337.70	0	2.6150	0	34.4590	0	27.495	0	1322.249	0	11.6	4	3.5	4	-1E+10	1	-1E+10	1	-1E+10	1	-1E+10	1	-1E+10	1	-1E+10	1
4902549	22	C	03/17/2021	09:08	-133.399	47.807	0	1362.90	0	2.5820	0	34.4640	0	27.502	0	1347.078	0	12.4	4	3.8	4	-1E+10	1	-1E+10	1	-1E+10	1	-1E+10	1	-1E+10	1	-1E+10	1
4902549	22	C	03/17/2021	09:08	-133.399	47.807	0	1388.50	0	2.5450	0	34.4710	0	27.511	0	1372.297	0	12.8	4	3.9	4	-1E+10	1	-1E+10	1	-1E+10	1	-1E+10	1	-1E+10	1	-1E+10	1
4902549	22	C	03/17/2021	09:08	-133.399	47.807	0	1412.90	0	2.5150	0	34.4760	0	27.518	0	1396.332	0	13.4	4	4.1	4	-1E+10	1	-1E+10	1	-1E+10	1	-1E+10	1	-1E+10	1	-1E+10	1
4902549	22	C	03/17/2021	09:08	-133.399	47.807	0	1437.70	0	2.4840	0	34.4820	0	27.525	0	1420.758	0	14.4	4	4.4	4	-1E+10	1	-1E+10	1	-1E+10	1	-1E+10	1	-1E+10	1	-1E+10	1
4902549	22	C	03/17/2021	09:08	-133.399	47.807	0	1462.80	0	2.4530	0	34.4880	0	27.533	0	1445.476	0	15.5	4	4.7	4	-1E+10	1	-1E+10	1	-1E+10	1	-1E+10	1	-1E+10	1	-1E+10	1
4902549	22	C	03/17/2021	09:08	-133.399	47.807	0	1487.80	0	2.4260	0	34.4930	0	27.539	0	1470.093	0	16.6	4	5.1	4	-1E+10	1	-1E+10	1	-1E+10	1	-1E+10	1	-1E+10	1	-1E+10	1
4902549	22	C	03/17/2021	09:08	-133.399	47.807	0	1512.60	0	2.4030	0	34.4970	0	27.544	0	1494.510	0	17.7	4	5.4	4	-1E+10	1	-1E+10	1	-1E+10	1	-1E+10	1	-1E+10	1	-1E+10	1
4902549	22	C	03/17/2021	09:08	-133.399	47.807	0	1537.80	0	2.3730	0	34.5020	0	27.551	0	1519.318	0	19.1	4	5.8	4	-1E+10	1	-1E+10	1	-1E+10	1	-1E+10	1	-1E+10	1	-1E+10	1
4902549	22	C	03/17/2021	09:08	-133.399	47.807	0	1562.80	0	2.3390	0	34.5080	0	27.559	0	1543.927	0	20.7	4	6.3	4	-1E+10	1	-1E+10	1	-1E+10	1	-1E+10	1	-1E+10	1	-1E+10	1
4902549	22	C	03/17/2021	09:08	-133.399	47.807	0	1587.60	0	2.3140	0	34.5130	0	27.565	0	1568.335	0	22.0	4	6.7	4	-1E+10	1	-1E+10	1	-1E+10	1	-1E+10	1	-1E+10	1	-1E+10	1
4902549	22	C	03/17/2021	09:08	-133.399	47.807	0	1613.40	0	2.2920	0	34.5170	0	27.570	0	1593.725	0	23.4	4	7.1	4	-1E+10	1	-1E+10	1	-1E+10	1	-1E+10	1	-1E+10	1	-1E+10	1
4902549	22	C	03/17/2021	09:08	-133.399	47.807	0	1638.00	0	2.2670	0	34.5220	0	27.576	0	1617.931	0	24.9	4	7.6	4	-1E+10	1	-1E+10	1	-1E+10	1	-1E+10	1	-1E+10	1	-1E+10	1
4902549	22	C	03/17/2021	09:08	-133.399	47.807	0	1663.00	0	2.2420	0	34.5270	0	27.582	0	1642.528	0	26.3	4	8.0	4	-1E+10	1	-1E+10	1	-1E+10	1	-1E+10	1	-1E+10	1	-1E+10	1
4902549	22	C	03/17/2021	09:08	-133.399	47.807	0	1687.80	0	2.2180	0	34.5310	0	27.588	0	1666.926	0	27.8	4	8.4	4	-1E+10	1	-1E+10	1	-1E+10	1	-1E+10	1	-1E+10	1	-1E+10	1
4902549	22	C	03/17/2021	09:08	-133.399	47.807	0	1712.80	0	2.1950	0	34.5350	0	27.593	0	1691.517	0	29.3	4	8.9	4	-1E+10	1	-1E+10	1	-1E+10	1	-1E+10	1	-1E+10	1	-1E+10	1
4902549	22	C	03/17/2021	09:08	-133.399	47.807	0	1737.80	0	2.1730	0	34.5400	0	27.599	0	1716.105	0	30.7	4	9.3	4	-1E+10	1	-1E+10	1	-1E+10	1	-1E+10	1	-1E+10	1	-1E+10	1
4902549	22	C	03/17/2021	09:08	-133.399	47.807	0	1762.80	0	2.1540	0	34.5430	0	27.603	0	1740.690	0	32.2	4	9.7	4	-1E+10	1	-1E+10	1	-1E+10	1	-1E+10	1	-1E+10	1	-1E+10	1
4902549	22	C	03/17/2021	09:08	-133.399	47.807	0	1789.00	0	2.1320	0	34.5470	0	27.608	0	1766.453	0	33.7	4	10.2	4	-1E+10	1	-1E+10	1	-1E+10	1	-1E+10	1	-1E+10	1	-1E+10	1
4902549	22	C	03/17/2021	09:08	-133.399	47.807	0	1812.70	0	2.1130	0	34.5510	0	27.613	0	1789.754	0	35.2	4	10.6	4	-1E+10	1	-1E+10	1	-1E+10	1	-1E+10	1	-1E+10	1	-1E+10	1
4902549	22	C	03/17/2021	09:08	-133.399	47.807	0	1837.70	0	2.0930	0	34.5550	0	27.618	0	1814.331	0	36.7	4	11.1	4	-1E+10	1	-1E+10	1	-1E+10	1	-1E+10	1	-1E+10	1	-1E+10	1
4902549	22	C	03/17/2021	09:08	-133.399	47.807	0	1863.10	0	2.0720	0	34.5590	0	27.623	0	1839.298	0	38.4	4	11.6	4	-1E+10	1	-1E+10	1	-1E+10	1	-1E+10	1	-1E+10	1	-1E+10	1
4902549	22	C	03/17/2021	09:08	-133.399	47.807	0	1888.20	0	2.0550	0	34.5620	0	27.627	0	1863.968	0	40.0	4	12.1	4	-1E+10	1	-1E+10	1	-1E+10	1	-1E+10	1	-1E+10	1	-1E+10	1
4902549	22	C	03/17/2021	09:08	-133.399	47.807	0	1912.80	0	2.0280	0	34.5680	0	27.634	0	1888.143	0	41.9	4	12.6	4	-1E+10	1	-1E+10	1	-1E+10	1	-1E+10	1	-1E+10	1	-1E+10	1
4902549	22	C	03/17/2021	09:08	-133.399	47.807	0	1937.80	0	2.0070	0	34.5720	0	27.639	0	1912.709	0	43.5	4	13.1	4	-1E+10	1	-1E+10	1	-1E+10	1	-1E+10	1	-1E+10	1	-1E+10	1
4902549	22	C	03/17/2021	09:08	-133.399	47.807	0	1962.80	0	1.9870	0	34.5760	0	27.643	0	1937.271	0	45.1	4	13.6	4	-1E+10	1	-1E+10	1	-1E+10	1	-1E+10	1	-1E+10	1	-1E+10	1
4902549	22	C	03/17/2021	09:08	-133.399	47.807	0	1979.40	0	1.9750	0	34.5780	0	27.646	0	1953.579	0	45.7	4	13.8	4	-1E+10	1	-1E+10	1	-1E+10	1	-1E+10	1	-1E+10	1	-1E+10	1
4902549	22	C	03/17/2021	09:08	-133.399	47.807	0																										
4902549	23	C	03/27/2021	09:02	-133.390	47.774	0	1.10	0	8.4330	0	32.3410	0	25.123	0	1.091	0	277.9	4	95.9	4	-1E+10	1	-1E+10	1	-1E+10	1	-1E+10	1	-1E+10	1	-1E+10	1
4902549	23	C	03/27/2021	09:02	-133.390	47.774	0	2.20	0	8.4330	0	32.3410	0	25.123	0	2.182	0	277.9	4	95.9	4	-1E+10	1	-1E+10	1	-1E+10	1	-1E+10	1	-1E+10	1	-1E+10	1
4902549	23	C	03/27/2021	09:02	-133.390	47.774	0	3.00	0	8.4330	0	32.3420	0	25.124	0	2.975	0	277.8	4	95.9	4	-1E+10	1	-1E+10	1	-1E+10	1	-1E+10	1	-1E+10	1	-1E+10	1
4902549	23	C	03/27/2021	09:02	-133.390	47.774	0	3.90	0	8.4330	0	32.3420	0	25.124	0	3.867	0	277.8	4	95.9	4	-1E+10	1	-1E+10	1	-1E+10	1	-1E+10	1	-1E+10	1	-1E+10	1
4902549	23	C	03/27/2021	09:02	-133.390	47.774	0	5.30	0	8.4330	0	32.3420	0	25.124	0	5.256	0	277.8	4	95.9	4	-1E+10	1	-1E+10	1	-1E+10	1	-1E+10	1	-1E+10	1	-1E+10	1
4902549	23	C	03/27/2021	09:02	-133.390	47.774	0	6.10	0	8.4310	0	32.3430	0	25.125	0	6.049	0	277.8	4	95.9	4	-1E+10	1	-1E+10	1	-1E+10	1	-1E+10	1	-1E+10	1	-1E+10	1
4902549	23	C	03/27/2021	09:02	-133.390	47.774	0	7.10	0	8.4310	0	32.3430	0	25.125	0	7.040	0	277.7	4	95.9	4	-1E+10	1	-1E+10	1	-1E+10	1	-1E+10	1	-1E+10	1	-1E+10	1
4902549	23	C	03/27/2021	09:02	-133.390	47.774	0	8.00	0	8.4330	0	32.3420	0	25.124	0	7.933	0	277.7	4	95.9	4	-1E+10	1	-1E+10	1	-1E+10	1	-1E+10	1	-1E+10	1	-1E+10	1
4902549	23	C	03/27/2021	09:02	-133.390	47.774	0	9.00	0	8.4340	0	32.3420	0	25.124	0	8.924	0	277.6	4	95.8	4	-1E+10	1	-1E+10	1	-1E+10	1	-1E+10	1	-1E+10	1	-1E+10	1
4902549	23	C	03/27/2021	09:02	-133.390	47.774	0	10.00	0	8.4340	0	32.3420	0	25.124	0	9.916	0	277.6	4	95.8	4	-1E+10	1	-1E+10	1	-1E+10	1	-1E+10	1	-1E+10	1	-1E+10	1
4902549	23	C	03/27/2021	09:02	-133.390	47.774	0	15.50	0	8.4330	0	32.3420	0	25.124	0	15.370	0	277.3	4	95.7	4	-1E+10	1	-1E+10	1	-1E+10	1	-1E+10	1	-1E+10	1	-1E+10	1
4902549	23	C	03/27/2021	09:02	-133.390	47.774	0	25.40	0	8.3970	0	32.3420	0	25.130	0	25.186	0	277.0	4	95.5	4	-1E+10	1	-1E+10	1	-1E+10	1	-1E+10	1	-1E+10	1	-1E+10	1
4902549	23	C	03/27/2021	09:02	-133.390	47.774	0	35.40	0	8.3890	0	32.3420	0	25.131	0	35.101	0	276.8	4	95.5	4	-1E+10	1	-1E+10	1	-1E+10	1	-1E+10	1	-1E+10	1	-1E+10	1
4902549	23	C	03/27/2021	09:02	-133.390	47.774	0	45.30	0	8.3870	0	32.3420	0	25.131	0	44.916	0	276.6	4	95.4	4	-1E+10	1	-1E+10	1	-1E+10	1	-1E+10	1	-1E+10	1	-1E+10	1
4902549	23	C	03/27/2021	09:02	-133.390	47.774	0	55.30	0	8.3830	0	32.3430	0	25.133	0	54.830	0	276.3	4	95.3	4	-1E+10	1	-1E+10	1	-1E+10	1	-1E+10	1	-1E+10	1	-1E+10	1
4902549	23	C	03/27/2021	09:02	-133.390	47.774	0	65.50	0	8.3750	0	32.3440	0	25.135	0	64.941	0	276.0	4	95.2	4	-1E+10	1	-1E+10	1	-1E+10	1	-1E+10	1	-1E+10	1	-1E+10	1
4902549	23	C	03/27/2021	09:02	-133.390	47.774	0	75.40	0	8.3700	0	32.3440	0	25.136	0	74.755	0	275.6	4	95.0	4	-1E+10	1	-1E+10	1	-1E+10	1	-1E+10	1	-1E+10	1	-1E+10	1
4902549	23	C	03/27/2021	09:02	-133.390	47.774	0	85.50	0	8.3680	0	32.3440	0	25.136	0	84.767	0	274.6	4	94.7	4	-1E+10	1	-1E+10	1	-1E+10	1	-1E+10	1	-1E+10	1	-1E+10	1
4902549	23	C	03/27/2021	09:02	-133.390	47.774	0	95.40	0	8.3680	0	32.3450	0	25.137	0	94.580	0	272.4	4	93.9	4	-1E+10	1	-1E+10	1	-1E+10	1	-1E+10	1	-1E+10	1	-1E+10	1
4902549	23	C	03/27/2021	09:02	-133.390	47.774	0	105.30	0	8.2630	0	32.3610	0	25.165	0	104.392	0	266.7	4	91.7	4	-1E+10	1	-1E+10	1	-1E+10	1	-1E+10	1	-1E+10	1	-1E+10	1
4902549	23	C	03/27/2021	09:02	-133.390	47.774	0	115.40	0	8.0970	0	32.4060	0	25.225	0	114.402	0	256.7	4	88.0	4	-1E+10	1	-1E+10	1	-1E+10	1	-1E+10	1	-1E+10	1	-1E+10	1
4902549	23	C	03/27/2021	09:02	-133.390	47.774	0	125.80	0	8.0060	0	32.5970	0	25.388	0	124.709	0	232.6	4	79.7	4	-1E+10	1	-1E+10	1	-1E+10	1	-1E+10	1	-1E+10	1	-1E+10	1
4902549	23	C	03/27/2021	09:02	-133.390	47.774	0	135.30	0	7.6640	0	33.0150	0	25.766	0	134.123	0	211.5	4	72.1	4	-1E+10	1	-1E+10	1	-1E+10	1	-1E+10	1	-1E+10	1	-1E+10	1
4902549	23	C	03/27/2021	09:02	-133.390	47.774	0	145.20	0	7.2510	0	33.2680	0	26.022	0	143.934	0	203.4	4	68.8	4	-1E+10	1	-1E+10	1	-1E+10	1	-1E+10	1	-1E+10	1	-1E+10	1
4902549	23	C	03/27/2021	09:02	-133.390	47.774	0	155.50	0	7.1120	0	33.3520	0	26.108	0	154.140	0	197.4	4	66.6	4	-1E+10	1	-1E+10	1	-1E+10	1	-1E+10	1	-1E+10	1	-1E+10	1
4902549	23	C	03/27/2021	09:02	-133.390	47.774	0	165.40	0	6.9450	0	33.5150	0	26.259	0	163.950	0	193.7	4	65.2	4	-1E+10	1	-1E+10	1	-1E+10	1	-1E+10	1	-1E+10	1	-1E+10	1
4902549	23	C	03/27/2021	09:02	-133.390	47.774	0	175.10	0	6.9400	0	33.6330	0	26.352	0	173.561	0	187.1	4	63.0	4	-1E+10	1	-1E+10	1	-1E+10	1	-1E+10	1	-1E+10	1	-1E+10	1
4902549	23	C	03/27/2021	09:02	-133.390	47.774	0	185.40	0	6.7470	0	33.6830	0	26.418	0	183.766	0	179.1	4	60.1	4	-1E+10	1	-1E+10	1	-1E+10	1	-1E+10	1	-1E+10	1	-1E+10	1
4902549	23	C	03/27/2021	09:02	-133.390	47.774	0	195.40	0	6.5110	0	33.7120	0	26.472	0	193.673	0	169.2	4	56.5	4	-1E+10	1	-1E+10	1	-1E+10	1	-1E+10	1	-1E+10	1	-1E+10	1
4902549	23	C	03/27/2021	09:02	-133.390	47.774	0	212.70	0	6.2520	0	33.7570	0	26.541	0	210.811	0	156.7	4	52.0	4	-1E+10	1	-1E+10	1	-1E+10	1	-1E+10	1	-1E+10	1	-1E+10	1
4902549	23	C	03/27/2021	09:02	-133.390	47.774	0	238.20	0	5.8880	0	33.7890	0	26.612	0	236.070	0	138.3	4	45.5	4	-1E+10	1	-1E+10	1	-1E+10	1	-1E+10	1	-1E+10	1	-1E+10	1
4902549	23	C	03/27/2021	09:02	-133.390	47.774	0	262.60	0	5.6090	0	33.8080	0	26.662	0	260.236	0	123.2	4	40.3	4	-1E+10	1	-1E+10	1	-1E+10	1	-1E+10	1	-1E+10	1	-1E+10	1
4902549	23	C	03/27/2021	09:02	-133.390	47.774	0	287.70	0	5.3910	0	33.8370	0	26.711	0	285.093	0	109.5	4	35.7	4	-1E+10	1	-1E+10	1	-1E+10	1	-1E+10	1	-1E+10	1	-1E+10	1
4902549	23	C	03/27/2021	09:02	-133.390	47.774	0	312.80	0	5.2050	0	33.8570	0	26.749	0	309.947	0	97.3	4	31.5	4	-1E+10	1	-1E+10	1	-1E+10	1	-1E+10	1	-1E+10	1	-1E+10	1
4902549	23	C	03/27/2021	09:02	-133.390	47.774	0	337.70	0	4.9950	0	33.8790	0	26.790	0	334.600	0	83.8	4	27.0	4	-1E+10	1	-1E+10	1	-1E+10	1	-1E+10	1	-1E+10	1	-1E+10	1
4902549	23	C	03/27/2021	09:02	-133.390	47.774	0	362.50	0	4.8060	0	33.9060	0	26.833	0	359.151	0	72.4	4	23.3	4	-1E+10	1	-1E+10	1	-1E+10	1	-1E+10	1	-1E+10	1	-1E+10	1
4902549	23	C	03/27/2021	09:02	-133.390	47.774	0	388.20	0	4.6690	0	33.9320	0	26.869	0	384.589	0	64.2	4	20.6	4	-1E+10	1	-1E+10	1	-1E+10	1	-1E+10	1	-1E+10	1	-1E+10	1
4902549	23	C	03/27/2021	09:02	-133.390	47.774	0	412.60	0	4.5940	0	33.9520	0	26.893	0	408.738	0	58.2	4	18.6	4	-1E+10	1	-1E+10	1	-1E+10	1	-1E+10	1	-1E+10	1	-1E+10	1
4902549	23	C	03/27/2021	09:02	-133.390	47.774	0	437.50	0	4.5420	0	33.9760	0	26.918	0	433.379	0	49.6	4	15.9	4	-1E+10	1	-1E+10	1	-1E+10	1	-1E+10	1	-1E+10	1	-1E+10	1
4902549	23	C	03/27/2021	09:02	-133.390	47.774	0	462.60	0	4.4780	0	34.0000	0	26.944	0	458.215	0	43.0	4	13.7	4	-1E+10	1	-1E+10	1	-1E+10	1	-1E+10	1	-1E+10	1	-1E+10	1
4902549	23	C	03/27/2021	09:02	-133.390	47.774	0	487.80	0	4.4040	0	34.0250	0	26.972	0	483.147	0	37.1	4	11.8	4	-1E+10	1	-1E+10	1	-1E+10	1	-1E+10	1	-1E+10	1	-1E+10	1
4902549	23	C	03/27/2021	09:02	-133.390	47.774	0	512.70	0	4.3050	0	34.0520	0	27.004	0	507.779	0	32.7	4	10.4	4	-1E+10	1	-1E+10	1	-1E+10	1	-1E+10	1	-1E+10	1	-1E+10	1
4902549	23	C	03/27/2021	09:02	-133.390	47.774	0	538.00	0	4.2460	0	34.0710	0	27.026	0	532.804	0	28.7	4	9.1	4	-1E+10	1	-1E+10	1	-1E+10	1	-1E+10	1	-1E+10	1	-1E+10	1
4902549	23	C	03/27/2021	09:02	-133.390	47.774	0	562.80	0	4.1920	0	34.0910	0	27.048	0	557.331	0	25.2	4	8.0	4	-1E+10	1	-1E+10	1	-1E+10	1	-1E+10	1	-1E+10	1	-1E+10	1
4902549	23	C	03/27/2021	09:02	-133.390	47.774	0	588.20	0	4.1300	0	34.1090	0	27.068	0	582.449	0	22.2	4	7.0	4	-1E+10	1	-1E+10	1	-1E+10	1	-1E+10	1	-1E+10	1	-1E+10	1
4902549	23	C	03/27/2021	09:02	-133.390	47.774	0	612.50	0	4.0720	0	34.1280	0	27.090	0	606.476	0	20.0	4	6.3	4	-1E+10	1	-1E+10	1	-1E+10	1	-1E+10	1	-1E+10	1	-1E+10	1
4902549	23	C	03/27/2021	09:02	-133.390	47.774	0	637.80	0	4.0210	0	34.1440	0	27.108	0	631.489	0	18.1	4	5.7	4	-1E+10	1	-1E+10	1	-1E+10	1	-1E+10	1	-1E+10	1	-1E+10	1
4902549	23	C	03/27/2021	09:02	-133.390	47.774	0	662.80	0	3.9610	0	34.1610	0	27.128	0	656.202	0	16.5	4	5.2	4	-1E+10	1	-1E+10	1	-1E+10	1	-1E+10	1	-1E+10	1	-1E+10	1
4902549	23	C	03/27/2021	09:02	-133.390	47.774	0	687.90	0	3.8800	0	34.1830	0	27.154	0	681.011	0	14.7	4	4.6	4	-1E+10	1	-1E+10	1	-1E+10	1	-1E+10	1	-1E+10	1	-1E+10	1
4902549	23	C	03/27/2021	09:02	-133.390	47.774	0	712.80	0	3.7870	0	34.2030	0	27.179	0	705.620	0	14.0	4	4.4	4	-1E+10	1	-1E+10	1	-1E+10	1	-1E+10	1	-1E+10	1	-1E+10	1
4902549	23	C	03/27/2021	09:02	-133.390	47.774	0	737.90	0	3.7110	0	34.2180	0	27.199	0	730.423	0	13.0	4	4.1	4	-1E+10	1	-1E+10	1	-1E+10	1	-1E+10	1	-1E+10	1	-1E+10	1
4902549	23	C	03/27/2021	09:02	-133.390	47.774	0	762.50	0	3.6350	0	34.2360	0	27.221	0	754.729	0	11.9	4	3.7	4	-1E+10	1	-1E+10	1	-1E+10	1	-1E+10	1	-1E+10	1	-1E+10	1
4902549	23	C	03/27/2021	09:02	-133.390	47.774	0	788.60	0	3.5660	0	34.2540	0	27.242	0	780.514	0	10.8	4	3.4	4	-1E+10	1	-1E+10	1	-1E+10	1	-1E+10	1	-1E+10	1	-1E+10	1
4902549	23	C	03/27/2021	09:02	-133.390	47.774	0	812.70	0	3.5140	0	34.2690	0	27.259	0	804.321	0	9.8	4	3.1	4	-1E+10	1	-1E+10	1	-1E+10	1	-1E+10	1	-1E+10	1	-1E+10	1
4902549	23	C	03/27/2021	09:02	-133.390	47.774	0	837.80	0	3.4650	0	34.2820	0	27.274	0	829.112	0	9.2	4	2.9	4	-1E+10	1	-1E+10	1	-1E+10	1	-1E+10	1	-1E+10	1	-1E+10	1
4902549	23	C	03/27/2021	09:02	-133.390	47.774	0	862.90	0	3.4190	0	34.2940	0	27.288	0	853.901	0	8.7	4	2.7	4	-1E+10	1	-1E+10	1	-1E+10	1	-1E+10	1	-1E+10	1	-1E+10	1
4902549	23	C	03/27/2021	09:02	-133.390	47.774	0	887.90	0	3.3620	0	34.3060	0	27.303	0	878.587	0	8.5	4	2.6	4	-1E+10	1	-1E+10	1	-1E+10	1	-1E+10	1	-1E+10	1	-1E+10	1
4902549	23	C	03/27/2021	09:02	-133.390	47.774	0	912.80	0	3.3010	0	34.3170	0	27.318	0	903.173	0	8.3	4	2.6	4	-1E+10	1	-1E+10	1	-1E+10	1	-1E+10	1	-1E+10	1	-1E+10	1
4902549	23	C	03/27/2021	09:02	-133.390	47.774	0	937.60	0	3.2450	0	34.3280	0	27.332	0	927.656	0	8.1	4	2.5	4	-1E+10	1	-1E+10	1	-1E+10	1	-1E+10	1	-1E+10	1	-1E+10	1
4902549	23	C	03/27/2021	09:02	-133.390	47.774	0	963.00	0	3.1840	0	34.3410	0	27.348	0	952.729	0	7.9	4	2.5	4	-1E+10	1	-1E+10	1	-1E+10	1	-1E+10	1	-1E+10	1	-1E+10	1
4902549	23	C	03/27/2021	09:02	-133.390	47.774	0	987.90	0	3.1470	0	34.3480	0	27.357	0	977.305	0	7.9	4	2.5	4	-1E+10	1	-1E+10	1	-1E+10	1	-1E+10	1	-1E+10	1	-1E+10	1
4902549	23	C	03/27/2021	09:02	-133.390	47.774	0	1013.80	0	3.1060	0	34.3610	0	27.372	0	1002.866	0	7.6	4	2.4	4	-1E+10	1	-1E+10	1	-1E+10	1	-1E+10	1	-1E+10	1	-1E+10	1
4902549	23	C	03/27/2021	09:02	-133.390	47.774	0	1037.60	0	3.0770	0	34.3720	0	27.383	0	1026.351	0	7.5	4	2.3	4	-1E+10	1	-1E+10	1	-1E+10	1	-1E+10	1	-1E+10	1	-1E+10	1
4902549	23	C	03/27/2021	09:02	-133.390	47.774	0	1062.40	0	3.0360	0	34.3770	0	27.391	0	1050.820	0	7.7	4	2.4	4	-1E+10	1	-1E+10	1	-1E+10	1	-1E+10	1	-1E+10	1	-1E+10	1
4902549	23	C	03/27/2021	09:02	-133.390	47.774	0	1087.70	0	2.9980	0	34.3870	0	27.403	0	1075.779	0	7.7	4	2.4	4	-1E+10	1	-1E+10	1	-1E+10	1	-1E+10	1	-1E+10	1	-1E+10	1
4902549	23	C	03/27/2021	09:02	-133.390	47.774	0	1112.90	0	2.9580	0	34.3980	0	27.415	0	1100.637	0	7.8	4	2.4	4	-1E+10	1	-1E+10	1	-1E+10	1	-1E+10	1	-1E+10	1	-1E+10	1
4902549	23	C	03/27/2021	09:02	-133.390	47.774	0	1138.10	0	2.9310	0	34.4060	0	27.424	0	1125.492	0	7.9	4	2.4	4	-1E+10	1	-1E+10	1	-1E+10	1	-1E+10	1	-1E+10	1	-1E+10	1
4902549	23	C	03/27/2021	09:02	-133.390	47.774	0	1163.10	0	2.9050	0	34.4140	0	27.433	0	1150.146	0	8.1	4	2.5	4	-1E+10	1	-1E+10	1	-1E+10	1	-1E+10	1	-1E+10	1	-1E+10	1
4902549	23	C	03/27/2021	09:02	-133.390	47.774	0	1187.70	0	2.8580	0	34.4190	0	27.441	0	1174.404	0	8.5	4	2.6	4	-1E+10	1	-1E+10	1	-1E+10	1	-1E+10	1	-1E+10	1	-1E+10	1
4902549	23	C	03/27/2021	09:02	-133.390	47.774	0	1212.60	0	2.8190	0	34.4260	0	27.451	0	1198.954	0	8.8	4	2.7	4	-1E+10	1	-1E+10	1	-1E+10	1	-1E+10	1	-1E+10	1	-1E+10	1
4902549	23	C	03/27/2021	09:02	-133.390	47.774	0	1237.30	0	2.7790	0	34.4320	0	27.459	0	1223.304	0	9.1	4	2.8	4	-1E+10	1	-1E+10	1	-1E+10	1	-1E+10	1	-1E+10	1	-1E+10	1
4902549	23	C	03/27/2021	09:02	-133.390	47.774	0	1263.20	0	2.7500	0	34.4390	0	27.467	0	1248.834	0	9.0	4	2.8	4	-1E+10	1	-1E+10	1	-1E+10	1	-1E+10	1	-1E+10	1	-1E+10	1
4902549	23	C	03/27/2021	09:02	-133.390	47.774	0	1287.70	0	2.7090	0	34.4460	0	27.477	0	1272.982	0	9.4	4	2.9	4	-1E+10	1	-1E+10	1	-1E+10	1	-1E+10	1	-1E+10	1	-1E+10	1
4902549	23	C	03/27/2021	09:02	-133.390	47.774	0	1312.90	0	2.6690	0	34.4520	0	27.485	0	1297.816	0	10.1	4	3.1	4	-1E+10	1	-1E+10	1	-1E+10	1	-1E+10	1	-1E+10	1	-1E+10	1
4902549	23	C	03/27/2021	09:02	-133.390	47.774	0	1338.20	0	2.6320	0	34.4580	0	27.493	0	1322.746	0	10.6	4	3.2	4	-1E+10	1	-1E+10	1	-1E+10	1	-1E+10	1	-1E+10	1	-1E+10	1
4902549	23	C	03/27/2021	09:02	-133.390	47.774	0	1363.10	0	2.6000	0	34.4630	0	27.500	0	1347.279	0	11.4	4	3.5	4	-1E+10	1	-1E+10	1	-1E+10	1	-1E+10	1	-1E+10	1	-1E+10	1
4902549	23	C	03/27/2021	09:02	-133.390	47.774	0	1387.90	0	2.5650	0	34.4680	0	27.507	0	1371.711	0	12.2	4	3.7	4	-1E+10	1	-1E+10	1	-1E+10	1	-1E+10	1	-1E+10	1	-1E+10	1
4902549	23	C	03/27/2021	09:02	-133.390	47.774	0	1412.80	0	2.5350	0	34.4730	0	27.514	0	1396.238	0	13.0	4	4.0	4	-1E+10	1	-1E+10	1	-1E+10	1	-1E+10	1	-1E+10	1	-1E+10	1
4902549	23	C	03/27/2021	09:02	-133.390	47.774	0	1437.70	0	2.5080	0	34.4790	0	27.521	0	1420.762	0	13.7	4	4.2	4	-1E+10	1	-1E+10	1	-1E+10	1	-1E+10	1	-1E+10	1	-1E+10	1
4902549	23	C	03/27/2021	09:02	-133.390	47.774	0	1463.20	0	2.4810	0	34.4840	0	27.527	0	1445.874	0	14.6	4	4.5	4	-1E+10	1	-1E+10	1	-1E+10	1	-1E+10	1	-1E+10	1	-1E+10	1
4902549	23	C	03/27/2021	09:02	-133.390	47.774	0	1488.00	0	2.4490	0	34.4890	0	27.534	0	1470.295	0	15.5	4	4.7	4	-1E+10	1	-1E+10	1	-1E+10	1	-1E+10	1	-1E+10	1	-1E+10	1
4902549	23	C	03/27/2021	09:02	-133.390	47.774	0	1512.50	0	2.4170	0	34.4940	0	27.541	0	1494.416	0	16.7	4	5.1	4	-1E+10	1	-1E+10	1	-1E+10	1	-1E+10	1	-1E+10	1	-1E+10	1
4902549	23	C	03/27/2021	09:02	-133.390	47.774	0	1537.70	0	2.3820	0	34.5000	0	27.549	0	1519.225	0	18.2	4	5.5	4	-1E+10	1	-1E+10	1	-1E+10	1	-1E+10	1	-1E+10	1	-1E+10	1
4902549	23	C	03/27/2021	09:02	-133.390	47.774	0	1562.80	0	2.3490	0	34.5070	0	27.557	0	1543.932	0	20.0	4	6.1	4	-1E+10	1	-1E+10	1	-1E+10	1	-1E+10	1	-1E+10	1	-1E+10	1
4902549	23	C	03/27/2021	09:02	-133.390	47.774	0	1588.00	0	2.3130	0	34.5130	0	27.565	0	1568.734	0	21.9	4	6.7	4	-1E+10	1	-1E+10	1	-1E+10	1	-1E+10	1	-1E+10	1	-1E+10	1
4902549	23	C	03/27/2021	09:02	-133.390	47.774	0	1613.20	0	2.2800	0	34.5200	0	27.573	0	1593.533	0	24.1	4	7.3	4	-1E+10	1	-1E+10	1	-1E+10	1	-1E+10	1	-1E+10	1	-1E+10	1
4902549	23	C	03/27/2021	09:02	-133.390	47.774	0	1638.90	0	2.2410	0	34.5270	0	27.582	0	1618.822	0	26.3	4	8.0	4	-1E+10	1	-1E+10	1	-1E+10	1	-1E+10	1	-1E+10	1	-1E+10	1
4902549	23	C	03/27/2021	09:02	-133.390	47.774	0	1662.80	0	2.2040	0	34.5330	0	27.590	0	1642.337	0	28.8	4	8.7	4	-1E+10	1	-1E+10	1	-1E+10	1	-1E+10	1	-1E+10	1	-1E+10	1
4902549	23	C	03/27/2021	09:02	-133.390	47.774	0	1687.70	0	2.1710	0	34.5390	0	27.598	0	1666.832	0	30.7	4	9.3	4	-1E+10	1	-1E+10	1	-1E+10	1	-1E+10	1	-1E+10	1	-1E+10	1
4902549	23	C	03/27/2021	09:02	-133.390	47.774	0	1713.30	0	2.1380	0	34.5450	0	27.605	0	1692.014	0	33.1	4	10.0	4	-1E+10	1	-1E+10	1	-1E+10	1	-1E+10	1	-1E+10	1	-1E+10	1
4902549	23	C	03/27/2021	09:02	-133.390	47.774	0	1737.60	0	2.1140	0	34.5500	0	27.611	0	1715.914	0	34.8	4	10.5	4	-1E+10	1	-1E+10	1	-1E+10	1	-1E+10	1	-1E+10	1	-1E+10	1
4902549	23	C	03/27/2021	09:02	-133.390	47.774	0	1762.50	0	2.0960	0	34.5530	0	27.615	0	1740.401	0	36.3	4	11.0	4	-1E+10	1	-1E+10	1	-1E+10	1	-1E+10	1	-1E+10	1	-1E+10	1
4902549	23	C	03/27/2021	09:02	-133.390	47.774	0	1787.60	0	2.0800	0	34.5560	0	27.619	0	1765.082	0	37.6	4	11.3	4	-1E+10	1	-1E+10	1	-1E+10	1	-1E+10	1	-1E+10	1	-1E+10	1
4902549	23	C	03/27/2021	09:02	-133.390	47.774	0	1812.80	0	2.0610	0	34.5600	0	27.624	0	1789.858	0	39.2	4	11.8	4	-1E+10	1	-1E+10	1	-1E+10	1	-1E+10	1	-1E+10	1	-1E+10	1
4902549	23	C	03/27/2021	09:02	-133.390	47.774	0	1838.30	0	2.0410	0	34.5640	0	27.629	0	1814.927	0	40.7	4	12.3	4	-1E+10	1	-1E+10	1	-1E+10	1	-1E+10	1	-1E+10	1	-1E+10	1
4902549	23	C	03/27/2021	09:02	-133.390	47.774	0	1862.60	0	2.0220	0	34.5680	0	27.634	0	1838.813	0	42.4	4	12.8	4	-1E+10	1	-1E+10	1	-1E+10	1	-1E+10	1	-1E+10	1	-1E+10	1
4902549	23	C	03/27/2021	09:02	-133.390	47.774	0	1887.70	0	1.9980	0	34.5720	0	27.639	0	1863.482	0	44.4	4	13.4	4	-1E+10	1	-1E+10	1	-1E+10	1	-1E+10	1	-1E+10	1	-1E+10	1
4902549	23	C	03/27/2021	09:02	-133.390	47.774	0	1912.60	0	1.9810	0	34.5760	0	27.644	0	1887.952	0	45.8	4	13.8	4	-1E+10	1	-1E+10	1	-1E+10	1	-1E+10	1	-1E+10	1	-1E+10	1
4902549	23	C	03/27/2021	09:02	-133.390	47.774	0	1937.80	0	1.9680	0	34.5780	0	27.646	0	1912.715	0	46.9	4	14.1	4	-1E+10	1	-1E+10	1	-1E+10	1	-1E+10	1	-1E+10	1	-1E+10	1
4902549	23	C	03/27/2021	09:02	-133.390	47.774	0	1962.70	0	1.9590	0	34.5800	0	27.649	0	1937.179	0	47.9	4	14.4	4	-1E+10	1	-1E+10	1	-1E+10	1	-1E+10	1	-1E+10	1	-1E+10	1
4902549	23	C	03/27/2021	09:02	-133.390	47.774	0	1987.40	0	1.9440	0	34.5830	0	27.652	0	1961.444	0	49.2	4	14.8	4	-1E+10	1	-1E+10	1	-1E+10	1	-1E+10	1	-1E+10	1	-1E+10	1
4902549	23	C	03/27/2021	09:02	-133.390	47.774	0	2013.90	0	1.9320	0	34.5860	0	27.656	0	1987.475	0	49.7	4	15.0	4	-1E+10	1	-1E+10	1	-1E+10	1	-1E+10	1	-1E+10	1	-1E+10	1
4902549	23	C	03/27/2021	09:02	-133.390	47.774	0	2026.70	0	1.9290	0	34.5870	0	27.657	0	2000.047	0	48.9	4	14.7	4	-1E+10	1	-1E+10	1	-1E+10	1	-1E+10	1	-1E+10	1	-1E+10	1
4902549	23	C	03/27/2021	09:02	-133.390	47.774	0																										
4902549	24	C	04/06/2021	08:53	-133.363	47.697	0	0.40	0	8.5420	0	32.3600	0	25.122	0	0.397	0	282.4	4	97.7	4	-1E+10	1	-1E+10	1	-1E+10	1	-1E+10	1	-1E+10	1	-1E+10	1
4902549	24	C	04/06/2021	08:53	-133.363	47.697	0	1.00	0	8.5460	0	32.3590	0	25.120	0	0.992	0	282.3	4	97.7	4	-1E+10	1	-1E+10	1	-1E+10	1	-1E+10	1	-1E+10	1	-1E+10	1
4902549	24	C	04/06/2021	08:53	-133.363	47.697	0	2.10	0	8.5500	0	32.3550	0	25.117	0	2.082	0	282.2	4	97.7	4	-1E+10	1	-1E+10	1	-1E+10	1	-1E+10	1	-1E+10	1	-1E+10	1
4902549	24	C	04/06/2021	08:53	-133.363	47.697	0	3.10	0	8.5500	0	32.3560	0	25.117	0	3.074	0	282.2	4	97.7	4	-1E+10	1	-1E+10	1	-1E+10	1	-1E+10	1	-1E+10	1	-1E+10	1
4902549	24	C	04/06/2021	08:53	-133.363	47.697	0	3.90	0	8.5500	0	32.3560	0	25.117	0	3.867	0	282.2	4	97.7	4	-1E+10	1	-1E+10	1	-1E+10	1	-1E+10	1	-1E+10	1	-1E+10	1
4902549	24	C	04/06/2021	08:53	-133.363	47.697	0	5.10	0	8.5510	0	32.3560	0	25.117	0	5.057	0	282.1	4	97.6	4	-1E+10	1	-1E+10	1	-1E+10	1	-1E+10	1	-1E+10	1	-1E+10	1
4902549	24	C	04/06/2021	08:53	-133.363	47.697	0	5.80	0	8.5500	0	32.3560	0	25.117	0	5.751	0	282.1	4	97.6	4	-1E+10	1	-1E+10	1	-1E+10	1	-1E+10	1	-1E+10	1	-1E+10	1
4902549	24	C	04/06/2021	08:53	-133.363	47.697	0	6.80	0	8.5500	0	32.3570	0	25.118	0	6.743	0	282.1	4	97.6	4	-1E+10	1	-1E+10	1	-1E+10	1	-1E+10	1	-1E+10	1	-1E+10	1
4902549	24	C	04/06/2021	08:53	-133.363	47.697	0	7.90	0	8.5520	0	32.3560	0	25.117	0	7.834	0	282.0	4	97.6	4	-1E+10	1	-1E+10	1	-1E+10	1	-1E+10	1	-1E+10	1	-1E+10	1
4902549	24	C	04/06/2021	08:53	-133.363	47.697	0	8.90	0	8.5490	0	32.3570	0	25.118	0	8.825	0	282.1	4	97.6	4	-1E+10	1	-1E+10	1	-1E+10	1	-1E+10	1	-1E+10	1	-1E+10	1
4902549	24	C	04/06/2021	08:53	-133.363	47.697	0	9.80	0	8.5510	0	32.3560	0	25.117	0	9.718	0	282.0	4	97.6	4	-1E+10	1	-1E+10	1	-1E+10	1	-1E+10	1	-1E+10	1	-1E+10	1
4902549	24	C	04/06/2021	08:53	-133.363	47.697	0	15.30	0	8.5470	0	32.3560	0	25.118	0	15.171	0	282.0	4	97.6	4	-1E+10	1	-1E+10	1	-1E+10	1	-1E+10	1	-1E+10	1	-1E+10	1
4902549	24	C	04/06/2021	08:53	-133.363	47.697	0	25.30	0	8.5300	0	32.3540	0	25.119	0	25.087	0	281.8	4	97.5	4	-1E+10	1	-1E+10	1	-1E+10	1	-1E+10	1	-1E+10	1	-1E+10	1
4902549	24	C	04/06/2021	08:53	-133.363	47.697	0	35.40	0	8.3950	0	32.3470	0	25.134	0	35.101	0	281.8	4	97.2	4	-1E+10	1	-1E+10	1	-1E+10	1	-1E+10	1	-1E+10	1	-1E+10	1
4902549	24	C	04/06/2021	08:53	-133.363	47.697	0	45.40	0	8.3520	0	32.3450	0	25.139	0	45.015	0	280.8	4	96.7	4	-1E+10	1	-1E+10	1	-1E+10	1	-1E+10	1	-1E+10	1	-1E+10	1
4902549	24	C	04/06/2021	08:53	-133.363	47.697	0	55.20	0	8.2690	0	32.3450	0	25.151	0	54.731	0	279.7	4	96.2	4	-1E+10	1	-1E+10	1	-1E+10	1	-1E+10	1	-1E+10	1	-1E+10	1
4902549	24	C	04/06/2021	08:53	-133.363	47.697	0	65.30	0	8.2210	0	32.3520	0	25.164	0	64.744	0	279.1	4	95.9	4	-1E+10	1	-1E+10	1	-1E+10	1	-1E+10	1	-1E+10	1	-1E+10	1
4902549	24	C	04/06/2021	08:53	-133.363	47.697	0	75.30	0	8.1880	0	32.3540	0	25.170	0	74.657	0	276.5	4	94.9	4	-1E+10	1	-1E+10	1	-1E+10	1	-1E+10	1	-1E+10	1	-1E+10	1
4902549	24	C	04/06/2021	08:53	-133.363	47.697	0	85.30	0	8.1340	0	32.3600	0	25.183	0	84.569	0	273.3	4	93.7	4	-1E+10	1	-1E+10	1	-1E+10	1	-1E+10	1	-1E+10	1	-1E+10	1
4902549	24	C	04/06/2021	08:53	-133.363	47.697	0	95.10	0	8.0670	0	32.3780	0	25.207	0	94.283	0	267.5	4	91.6	4	-1E+10	1	-1E+10	1	-1E+10	1	-1E+10	1	-1E+10	1	-1E+10	1
4902549	24	C	04/06/2021	08:53	-133.363	47.697	0	105.80	0	7.9300	0	32.4080	0	25.251	0	104.888	0	257.9	4	88.1	4	-1E+10	1	-1E+10	1	-1E+10	1	-1E+10	1	-1E+10	1	-1E+10	1
4902549	24	C	04/06/2021	08:53	-133.363	47.697	0	115.20	0	7.9170	0	32.5500	0	25.364	0	114.205	0	238.3	4	81.4	4	-1E+10	1	-1E+10	1	-1E+10	1	-1E+10	1	-1E+10	1	-1E+10	1
4902549	24	C	04/06/2021	08:53	-133.363	47.697	0	125.20	0	7.7710	0	32.8720	0	25.638	0	124.115	0	215.8	4	73.7	4	-1E+10	1	-1E+10	1	-1E+10	1	-1E+10	1	-1E+10	1	-1E+10	1
4902549	24	C	04/06/2021	08:53	-133.363	47.697	0	135.20	0	7.5060	0	33.1710	0	25.910	0	134.025	0	202.9	4	69.0	4	-1E+10	1	-1E+10	1	-1E+10	1	-1E+10	1	-1E+10	1	-1E+10	1
4902549	24	C	04/06/2021	08:53	-133.363	47.697	0	145.30	0	7.2820	0	33.4060	0	26.127	0	144.034	0	196.2	4	66.5	4	-1E+10	1	-1E+10	1	-1E+10	1	-1E+10	1	-1E+10	1	-1E+10	1
4902549	24	C	04/06/2021	08:53	-133.363	47.697	0	155.50	0	7.1570	0	33.5670	0	26.271	0	154.141	0	190.9	4	64.6	4	-1E+10	1	-1E+10	1	-1E+10	1	-1E+10	1	-1E+10	1	-1E+10	1
4902549	24	C	04/06/2021	08:53	-133.363	47.697	0	165.40	0	7.0790	0	33.6740	0	26.366	0	163.951	0	186.3	4	63.0	4	-1E+10	1	-1E+10	1	-1E+10	1	-1E+10	1	-1E+10	1	-1E+10	1
4902549	24	C	04/06/2021	08:53	-133.363	47.697	0	175.60	0	7.0380	0	33.7270	0	26.413	0	174.057	0	181.3	4	61.3	4	-1E+10	1	-1E+10	1	-1E+10	1	-1E+10	1	-1E+10	1	-1E+10	1
4902549	24	C	04/06/2021	08:53	-133.363	47.697	0	185.60	0	6.8250	0	33.7330	0	26.447	0	183.965	0	175.6	4	59.1	4	-1E+10	1	-1E+10	1	-1E+10	1	-1E+10	1	-1E+10	1	-1E+10	1
4902549	24	C	04/06/2021	08:53	-133.363	47.697	0	195.70	0	6.6030	0	33.7430	0	26.484	0	193.971	0	168.4	4	56.3	4	-1E+10	1	-1E+10	1	-1E+10	1	-1E+10	1	-1E+10	1	-1E+10	1
4902549	24	C	04/06/2021	08:53	-133.363	47.697	0	213.10	0	6.3440	0	33.7730	0	26.542	0	211.209	0	155.1	4	51.6	4	-1E+10	1	-1E+10	1	-1E+10	1	-1E+10	1	-1E+10	1	-1E+10	1
4902549	24	C	04/06/2021	08:53	-133.363	47.697	0	238.80	0	5.8800	0	33.7860	0	26.611	0	236.666	0	138.2	4	45.5	4	-1E+10	1	-1E+10	1	-1E+10	1	-1E+10	1	-1E+10	1	-1E+10	1
4902549	24	C	04/06/2021	08:53	-133.363	47.697	0	263.00	0	5.6410	0	33.8020	0	26.653	0	260.634	0	126.7	4	41.5	4	-1E+10	1	-1E+10	1	-1E+10	1	-1E+10	1	-1E+10	1	-1E+10	1
4902549	24	C	04/06/2021	08:53	-133.363	47.697	0	287.90	0	5.4320	0	33.8220	0	26.694	0	285.293	0	114.3	4	37.2	4	-1E+10	1	-1E+10	1	-1E+10	1	-1E+10	1	-1E+10	1	-1E+10	1
4902549	24	C	04/06/2021	08:53	-133.363	47.697	0	312.80	0	5.2080	0	33.8440	0	26.738	0	309.949	0	99.5	4	32.2	4	-1E+10	1	-1E+10	1	-1E+10	1	-1E+10	1	-1E+10	1	-1E+10	1
4902549	24	C	04/06/2021	08:53	-133.363	47.697	0	337.80	0	4.9940	0	33.8750	0	26.787	0	334.701	0	84.5	4	27.3	4	-1E+10	1	-1E+10	1	-1E+10	1	-1E+10	1	-1E+10	1	-1E+10	1
4902549	24	C	04/06/2021	08:53	-133.363	47.697	0	362.90	0	4.8190	0	33.9020	0	26.828	0	359.549	0	73.3	4	23.5	4	-1E+10	1	-1E+10	1	-1E+10	1	-1E+10	1	-1E+10	1	-1E+10	1
4902549	24	C	04/06/2021	08:53	-133.363	47.697	0	387.70	0	4.6860	0	33.9290	0	26.865	0	384.097	0	63.8	4	20.4	4	-1E+10	1	-1E+10	1	-1E+10	1	-1E+10	1	-1E+10	1	-1E+10	1
4902549	24	C	04/06/2021	08:53	-133.363	47.697	0	412.90	0	4.5950	0	33.9590	0	26.899	0	409.038	0	55.1	4	17.6	4	-1E+10	1	-1E+10	1	-1E+10	1	-1E+10	1	-1E+10	1	-1E+10	1
4902549	24	C	04/06/2021	08:53	-133.363	47.697	0	438.00	0	4.5230	0	33.9820	0	26.925	0	433.877	0	49.0	4	15.7	4	-1E+10	1	-1E+10	1	-1E+10	1	-1E+10	1	-1E+10	1	-1E+10	1
4902549	24	C	04/06/2021	08:53	-133.363	47.697	0	463.00	0	4.4780	0	33.9990	0	26.943	0	458.614	0	43.8	4	14.0	4	-1E+10	1	-1E+10	1	-1E+10	1	-1E+10	1	-1E+10	1	-1E+10	1
4902549	24	C	04/06/2021	08:53	-133.363	47.697	0	488.20	0	4.3920	0	34.0230	0	26.972	0	483.546	0	37.7	4	12.0	4	-1E+10	1	-1E+10	1	-1E+10	1	-1E+10	1	-1E+10	1	-1E+10	1
4902549	24	C	04/06/2021	08:53	-133.363	47.697	0	513.90	0	4.3020	0	34.0520	0	27.005	0	508.970	0	31.9	4	10.1	4	-1E+10	1	-1E+10	1	-1E+10	1	-1E+10	1	-1E+10	1	-1E+10	1
4902549	24	C	04/06/2021	08:53	-133.363	47.697	0	537.70	0	4.2330	0	34.0770	0	27.032	0	532.511	0	27.7	4	8.8	4	-1E+10	1	-1E+10	1	-1E+10	1	-1E+10	1	-1E+10	1	-1E+10	1
4902549	24	C	04/06/2021	08:53	-133.363	47.697	0	562.30	0	4.1650	0	34.0970	0	27.055	0	556.841	0	24.7	4	7.8	4	-1E+10	1	-1E+10	1	-1E+10	1	-1E+10	1	-1E+10	1	-1E+10	1
4902549	24	C	04/06/2021	08:53	-133.363	47.697	0	587.60	0	4.0970	0	34.1130	0	27.075	0	581.860	0	22.4	4	7.1	4	-1E+10	1	-1E+10	1	-1E+10	1	-1E+10	1	-1E+10	1	-1E+10	1
4902549	24	C	04/06/2021	08:53	-133.363	47.697	0	613.60	0	4.0570	0	34.1290	0	27.092	0	607.568	0	20.2	4	6.4	4	-1E+10	1	-1E+10	1	-1E+10	1	-1E+10	1	-1E+10	1	-1E+10	1
4902549	24	C	04/06/2021	08:53	-133.363	47.697	0	637.70	0	3.9810	0	34.1470	0	27.114	0	631.394	0	18.4	4	5.8	4	-1E+10	1	-1E+10	1	-1E+10	1	-1E+10	1	-1E+10	1	-1E+10	1
4902549	24	C	04/06/2021	08:53	-133.363	47.697	0	662.60	0	3.9090	0	34.1700	0	27.140	0	656.009	0	16.3	4	5.1	4	-1E+10	1	-1E+10	1	-1E+10	1	-1E+10	1	-1E+10	1	-1E+10	1
4902549	24	C	04/06/2021	08:53	-133.363	47.697	0	687.60	0	3.8530	0	34.1840	0	27.157	0	680.719	0	15.3	4	4.8	4	-1E+10	1	-1E+10	1	-1E+10	1	-1E+10	1	-1E+10	1	-1E+10	1
4902549	24	C	04/06/2021	08:53	-133.363	47.697	0	712.70	0	3.7880	0	34.2000	0	27.176	0	705.526	0	14.1	4	4.4	4	-1E+10	1	-1E+10	1	-1E+10	1	-1E+10	1	-1E+10	1	-1E+10	1
4902549	24	C	04/06/2021	08:53	-133.363	47.697	0	737.80	0	3.6960	0	34.2150	0	27.198	0	730.329	0	13.4	4	4.2	4	-1E+10	1	-1E+10	1	-1E+10	1	-1E+10	1	-1E+10	1	-1E+10	1
4902549	24	C	04/06/2021	08:53	-133.363	47.697	0	762.90	0	3.6550	0	34.2290	0	27.213	0	755.130	0	12.5	4	3.9	4	-1E+10	1	-1E+10	1	-1E+10	1	-1E+10	1	-1E+10	1	-1E+10	1
4902549	24	C	04/06/2021	08:53	-133.363	47.697	0	788.60	0	3.6190	0	34.2400	0	27.225	0	780.520	0	11.7	4	3.7	4	-1E+10	1	-1E+10	1	-1E+10	1	-1E+10	1	-1E+10	1	-1E+10	1
4902549	24	C	04/06/2021	08:53	-133.363	47.697	0	812.40	0	3.5710	0	34.2520	0	27.240	0	804.030	0	10.9	4	3.4	4	-1E+10	1	-1E+10	1	-1E+10	1	-1E+10	1	-1E+10	1	-1E+10	1
4902549	24	C	04/06/2021	08:53	-133.363	47.697	0	837.70	0	3.5210	0	34.2670	0	27.257	0	829.019	0	10.0	4	3.1	4	-1E+10	1	-1E+10	1	-1E+10	1	-1E+10	1	-1E+10	1	-1E+10	1
4902549	24	C	04/06/2021	08:53	-133.363	47.697	0	862.90	0	3.4670	0	34.2820	0	27.274	0	853.907	0	9.4	4	2.9	4	-1E+10	1	-1E+10	1	-1E+10	1	-1E+10	1	-1E+10	1	-1E+10	1
4902549	24	C	04/06/2021	08:53	-133.363	47.697	0	887.80	0	3.4000	0	34.2950	0	27.291	0	878.495	0	8.9	4	2.8	4	-1E+10	1	-1E+10	1	-1E+10	1	-1E+10	1	-1E+10	1	-1E+10	1
4902549	24	C	04/06/2021	08:53	-133.363	47.697	0	912.80	0	3.3540	0	34.3060	0	27.304	0	903.179	0	8.5	4	2.6	4	-1E+10	1	-1E+10	1	-1E+10	1	-1E+10	1	-1E+10	1	-1E+10	1
4902549	24	C	04/06/2021	08:53	-133.363	47.697	0	938.10	0	3.2980	0	34.3180	0	27.319	0	928.156	0	8.3	4	2.6	4	-1E+10	1	-1E+10	1	-1E+10	1	-1E+10	1	-1E+10	1	-1E+10	1
4902549	24	C	04/06/2021	08:53	-133.363	47.697	0	962.90	0	3.2490	0	34.3270	0	27.331	0	952.637	0	8.1	4	2.5	4	-1E+10	1	-1E+10	1	-1E+10	1	-1E+10	1	-1E+10	1	-1E+10	1
4902549	24	C	04/06/2021	08:53	-133.363	47.697	0	987.40	0	3.2110	0	34.3400	0	27.345	0	976.819	0	7.7	4	2.4	4	-1E+10	1	-1E+10	1	-1E+10	1	-1E+10	1	-1E+10	1	-1E+10	1
4902549	24	C	04/06/2021	08:53	-133.363	47.697	0	1012.60	0	3.1490	0	34.3520	0	27.361	0	1001.688	0	7.8	4	2.4	4	-1E+10	1	-1E+10	1	-1E+10	1	-1E+10	1	-1E+10	1	-1E+10	1
4902549	24	C	04/06/2021	08:53	-133.363	47.697	0	1037.90	0	3.0970	0	34.3610	0	27.373	0	1026.654	0	7.8	4	2.4	4	-1E+10	1	-1E+10	1	-1E+10	1	-1E+10	1	-1E+10	1	-1E+10	1
4902549	24	C	04/06/2021	08:53	-133.363	47.697	0	1062.70	0	3.0610	0	34.3700	0	27.383	0	1051.123	0	7.8	4	2.4	4	-1E+10	1	-1E+10	1	-1E+10	1	-1E+10	1	-1E+10	1	-1E+10	1
4902549	24	C	04/06/2021	08:53	-133.363	47.697	0	1087.80	0	3.0150	0	34.3790	0	27.395	0	1075.885	0	7.8	4	2.4	4	-1E+10	1	-1E+10	1	-1E+10	1	-1E+10	1	-1E+10	1	-1E+10	1
4902549	24	C	04/06/2021	08:53	-133.363	47.697	0	1112.80	0	2.9870	0	34.3860	0	27.403	0	1100.546	0	7.9	4	2.4	4	-1E+10	1	-1E+10	1	-1E+10	1	-1E+10	1	-1E+10	1	-1E+10	1
4902549	24	C	04/06/2021	08:53	-133.363	47.697	0	1137.60	0	2.9610	0	34.3920	0	27.410	0	1125.007	0	7.9	4	2.4	4	-1E+10	1	-1E+10	1	-1E+10	1	-1E+10	1	-1E+10	1	-1E+10	1
4902549	24	C	04/06/2021	08:53	-133.363	47.697	0	1163.10	0	2.9350	0	34.4030	0	27.422	0	1150.154	0	8.0	4	2.5	4	-1E+10	1	-1E+10	1	-1E+10	1	-1E+10	1	-1E+10	1	-1E+10	1
4902549	24	C	04/06/2021	08:53	-133.363	47.697	0	1187.90	0	2.8910	0	34.4130	0	27.434	0	1174.609	0	8.3	4	2.5	4	-1E+10	1	-1E+10	1	-1E+10	1	-1E+10	1	-1E+10	1	-1E+10	1
4902549	24	C	04/06/2021	08:53	-133.363	47.697	0	1212.60	0	2.8410	0	34.4220	0	27.445	0	1198.962	0	8.6	4	2.6	4	-1E+10	1	-1E+10	1	-1E+10	1	-1E+10	1	-1E+10	1	-1E+10	1
4902549	24	C	04/06/2021	08:53	-133.363	47.697	0	1238.20	0	2.7880	0	34.4300	0	27.457	0	1224.200	0	9.1	4	2.8	4	-1E+10	1	-1E+10	1	-1E+10	1	-1E+10	1	-1E+10	1	-1E+10	1
4902549	24	C	04/06/2021	08:53	-133.363	47.697	0	1262.90	0	2.7480	0	34.4370	0	27.466	0	1248.548	0	9.5	4	2.9	4	-1E+10	1	-1E+10	1	-1E+10	1	-1E+10	1	-1E+10	1	-1E+10	1
4902549	24	C	04/06/2021	08:53	-133.363	47.697	0	1287.70	0	2.7060	0	34.4430	0	27.474	0	1272.991	0	10.0	4	3.1	4	-1E+10	1	-1E+10	1	-1E+10	1	-1E+10	1	-1E+10	1	-1E+10	1
4902549	24	C	04/06/2021	08:53	-133.363	47.697	0	1312.50	0	2.6760	0	34.4480	0	27.481	0	1297.431	0	10.4	4	3.2	4	-1E+10	1	-1E+10	1	-1E+10	1	-1E+10	1	-1E+10	1	-1E+10	1
4902549	24	C	04/06/2021	08:53	-133.363	47.697	0	1337.60	0	2.6470	0	34.4540	0	27.489	0	1322.164	0	10.7	4	3.3	4	-1E+10	1	-1E+10	1	-1E+10	1	-1E+10	1	-1E+10	1	-1E+10	1
4902549	24	C	04/06/2021	08:53	-133.363	47.697	0	1363.10	0	2.6180	0	34.4590	0	27.495	0	1347.289	0	11.4	4	3.5	4	-1E+10	1	-1E+10	1	-1E+10	1	-1E+10	1	-1E+10	1	-1E+10	1
4902549	24	C	04/06/2021	08:53	-133.363	47.697	0	1388.30	0	2.5860	0	34.4640	0	27.502	0	1372.114	0	12.0	4	3.7	4	-1E+10	1	-1E+10	1	-1E+10	1	-1E+10	1	-1E+10	1	-1E+10	1
4902549	24	C	04/06/2021	08:53	-133.363	47.697	0	1412.90	0	2.5550	0	34.4700	0	27.510	0	1396.346	0	12.6	4	3.9	4	-1E+10	1	-1E+10	1	-1E+10	1	-1E+10	1	-1E+10	1	-1E+10	1
4902549	24	C	04/06/2021	08:53	-133.363	47.697	0	1438.70	0	2.5150	0	34.4770	0	27.519	0	1421.757	0	13.8	4	4.2	4	-1E+10	1	-1E+10	1	-1E+10	1	-1E+10	1	-1E+10	1	-1E+10	1
4902549	24	C	04/06/2021	08:53	-133.363	47.697	0	1463.20	0	2.4800	0	34.4830	0	27.527	0	1445.885	0	14.7	4	4.5	4	-1E+10	1	-1E+10	1	-1E+10	1	-1E+10	1	-1E+10	1	-1E+10	1
4902549	24	C	04/06/2021	08:53	-133.363	47.697	0	1488.10	0	2.4420	0	34.4900	0	27.535	0	1470.403	0	16.3	4	5.0	4	-1E+10	1	-1E+10	1	-1E+10	1	-1E+10	1	-1E+10	1	-1E+10	1
4902549	24	C	04/06/2021	08:53	-133.363	47.697	0	1512.80	0	2.4100	0	34.4950	0	27.542	0	1494.722	0	17.4	4	5.3	4	-1E+10	1	-1E+10	1	-1E+10	1	-1E+10	1	-1E+10	1	-1E+10	1
4902549	24	C	04/06/2021	08:53	-133.363	47.697	0	1537.90	0	2.3820	0	34.5000	0	27.549	0	1519.432	0	18.7	4	5.7	4	-1E+10	1	-1E+10	1	-1E+10	1	-1E+10	1	-1E+10	1	-1E+10	1
4902549	24	C	04/06/2021	08:53	-133.363	47.697	0	1563.00	0	2.3520	0	34.5060	0	27.556	0	1544.139	0	20.3	4	6.2	4	-1E+10	1	-1E+10	1	-1E+10	1	-1E+10	1	-1E+10	1	-1E+10	1
4902549	24	C	04/06/2021	08:53	-133.363	47.697	0	1587.70	0	2.3200	0	34.5120	0	27.564	0	1568.450	0	21.9	4	6.7	4	-1E+10	1	-1E+10	1	-1E+10	1	-1E+10	1	-1E+10	1	-1E+10	1
4902549	24	C	04/06/2021	08:53	-133.363	47.697	0	1612.70	0	2.2860	0	34.5190	0	27.572	0	1593.053	0	23.7	4	7.2	4	-1E+10	1	-1E+10	1	-1E+10	1	-1E+10	1	-1E+10	1	-1E+10	1
4902549	24	C	04/06/2021	08:53	-133.363	47.697	0	1637.60	0	2.2520	0	34.5250	0	27.580	0	1617.554	0	25.6	4	7.8	4	-1E+10	1	-1E+10	1	-1E+10	1	-1E+10	1	-1E+10	1	-1E+10	1
4902549	24	C	04/06/2021	08:53	-133.363	47.697	0	1663.50	0	2.2180	0	34.5310	0	27.587	0	1643.037	0	27.7	4	8.4	4	-1E+10	1	-1E+10	1	-1E+10	1	-1E+10	1	-1E+10	1	-1E+10	1
4902549	24	C	04/06/2021	08:53	-133.363	47.697	0	1687.70	0	2.1910	0	34.5350	0	27.593	0	1666.844	0	29.3	4	8.9	4	-1E+10	1	-1E+10	1	-1E+10	1	-1E+10	1	-1E+10	1	-1E+10	1
4902549	24	C	04/06/2021	08:53	-133.363	47.697	0	1712.90	0	2.1730	0	34.5390	0	27.598	0	1691.632	0	30.6	4	9.3	4	-1E+10	1	-1E+10	1	-1E+10	1	-1E+10	1	-1E+10	1	-1E+10	1
4902549	24	C	04/06/2021	08:53	-133.363	47.697	0	1737.60	0	2.1540	0	34.5430	0	27.603	0	1715.926	0	32.2	4	9.7	4	-1E+10	1	-1E+10	1	-1E+10	1	-1E+10	1	-1E+10	1	-1E+10	1
4902549	24	C	04/06/2021	08:53	-133.363	47.697	0	1762.60	0	2.1320	0	34.5470	0	27.608	0	1740.511	0	33.9	4	10.3	4	-1E+10	1	-1E+10	1	-1E+10	1	-1E+10	1	-1E+10	1	-1E+10	1
4902549	24	C	04/06/2021	08:53	-133.363	47.697	0	1787.60	0	2.1080	0	34.5520	0	27.614	0	1765.094	0	35.7	4	10.8	4	-1E+10	1	-1E+10	1	-1E+10	1	-1E+10	1	-1E+10	1	-1E+10	1
4902549	24	C	04/06/2021	08:53	-133.363	47.697	0	1813.00	0	2.0850	0	34.5560	0	27.619	0	1790.068	0	37.6	4	11.4	4	-1E+10	1	-1E+10	1	-1E+10	1	-1E+10	1	-1E+10	1	-1E+10	1
4902549	24	C	04/06/2021	08:53	-133.363	47.697	0	1837.80	0	2.0630	0	34.5600	0	27.624	0	1814.448	0	39.1	4	11.8	4	-1E+10	1	-1E+10	1	-1E+10	1	-1E+10	1	-1E+10	1	-1E+10	1
4902549	24	C	04/06/2021	08:53	-133.363	47.697	0	1862.60	0	2.0460	0	34.5640	0	27.629	0	1838.826	0	40.5	4	12.2	4	-1E+10	1	-1E+10	1	-1E+10	1	-1E+10	1	-1E+10	1	-1E+10	1
4902549	24	C	04/06/2021	08:53	-133.363	47.697	0	1888.00	0	2.0260	0	34.5670	0	27.633	0	1863.790	0	42.0	4	12.7	4	-1E+10	1	-1E+10	1	-1E+10	1	-1E+10	1	-1E+10	1	-1E+10	1
4902549	24	C	04/06/2021	08:53	-133.363	47.697	0	1912.70	0	2.0110	0	34.5700	0	27.636	0	1888.064	0	43.3	4	13.0	4	-1E+10	1	-1E+10	1	-1E+10	1	-1E+10	1	-1E+10	1	-1E+10	1
4902549	24	C	04/06/2021	08:53	-133.363	47.697	0	1938.50	0	1.9980	0	34.5730	0	27.640	0	1913.416	0	44.5	4	13.4	4	-1E+10	1	-1E+10	1	-1E+10	1	-1E+10	1	-1E+10	1	-1E+10	1
4902549	24	C	04/06/2021	08:53	-133.363	47.697	0	1963.00	0	1.9780	0	34.5770	0	27.645	0	1937.487	0	46.2	4	13.9	4	-1E+10	1	-1E+10	1	-1E+10	1	-1E+10	1	-1E+10	1	-1E+10	1
4902549	24	C	04/06/2021	08:53	-133.363	47.697	0	1987.50	0	1.9640	0	34.5800	0	27.649	0	1961.556	0	47.6	4	14.3	4	-1E+10	1	-1E+10	1	-1E+10	1	-1E+10	1	-1E+10	1	-1E+10	1
4902549	24	C	04/06/2021	08:53	-133.363	47.697	0	2012.50	0	1.9460	0	34.5830	0	27.652	0	1986.114	0	48.6	4	14.6	4	-1E+10	1	-1E+10	1	-1E+10	1	-1E+10	1	-1E+10	1	-1E+10	1
4902549	24	C	04/06/2021	08:53	-133.363	47.697	0																										
4902549	25	C	04/16/2021	09:06	-133.346	47.585	0	0.30	0	8.4820	0	32.3930	0	25.156	0	0.297	0	285.4	4	98.7	4	-1E+10	1	-1E+10	1	-1E+10	1	-1E+10	1	-1E+10	1	-1E+10	1
4902549	25	C	04/16/2021	09:06	-133.346	47.585	0	1.00	0	8.4960	0	32.3810	0	25.145	0	0.992	0	285.3	4	98.7	4	-1E+10	1	-1E+10	1	-1E+10	1	-1E+10	1	-1E+10	1	-1E+10	1
4902549	25	C	04/16/2021	09:06	-133.346	47.585	0	2.10	0	8.4980	0	32.3800	0	25.144	0	2.082	0	285.1	4	98.6	4	-1E+10	1	-1E+10	1	-1E+10	1	-1E+10	1	-1E+10	1	-1E+10	1
4902549	25	C	04/16/2021	09:06	-133.346	47.585	0	2.90	0	8.4960	0	32.3810	0	25.145	0	2.876	0	285.1	4	98.6	4	-1E+10	1	-1E+10	1	-1E+10	1	-1E+10	1	-1E+10	1	-1E+10	1
4902549	25	C	04/16/2021	09:06	-133.346	47.585	0	4.20	0	8.4980	0	32.3800	0	25.144	0	4.165	0	285.0	4	98.6	4	-1E+10	1	-1E+10	1	-1E+10	1	-1E+10	1	-1E+10	1	-1E+10	1
4902549	25	C	04/16/2021	09:06	-133.346	47.585	0	5.00	0	8.4990	0	32.3810	0	25.145	0	4.958	0	284.9	4	98.5	4	-1E+10	1	-1E+10	1	-1E+10	1	-1E+10	1	-1E+10	1	-1E+10	1
4902549	25	C	04/16/2021	09:06	-133.346	47.585	0	5.90	0	8.4940	0	32.3810	0	25.145	0	5.851	0	284.9	4	98.5	4	-1E+10	1	-1E+10	1	-1E+10	1	-1E+10	1	-1E+10	1	-1E+10	1
4902549	25	C	04/16/2021	09:06	-133.346	47.585	0	7.30	0	8.4910	0	32.3820	0	25.147	0	7.239	0	284.9	4	98.5	4	-1E+10	1	-1E+10	1	-1E+10	1	-1E+10	1	-1E+10	1	-1E+10	1
4902549	25	C	04/16/2021	09:06	-133.346	47.585	0	8.00	0	8.4900	0	32.3810	0	25.146	0	7.933	0	284.9	4	98.5	4	-1E+10	1	-1E+10	1	-1E+10	1	-1E+10	1	-1E+10	1	-1E+10	1
4902549	25	C	04/16/2021	09:06	-133.346	47.585	0	9.10	0	8.4900	0	32.3800	0	25.145	0	9.024	0	284.9	4	98.5	4	-1E+10	1	-1E+10	1	-1E+10	1	-1E+10	1	-1E+10	1	-1E+10	1
4902549	25	C	04/16/2021	09:06	-133.346	47.585	0	9.80	0	8.4890	0	32.3800	0	25.145	0	9.718	0	284.8	4	98.5	4	-1E+10	1	-1E+10	1	-1E+10	1	-1E+10	1	-1E+10	1	-1E+10	1
4902549	25	C	04/16/2021	09:06	-133.346	47.585	0	15.10	0	8.4810	0	32.3800	0	25.147	0	14.973	0	284.1	4	98.2	4	-1E+10	1	-1E+10	1	-1E+10	1	-1E+10	1	-1E+10	1	-1E+10	1
4902549	25	C	04/16/2021	09:06	-133.346	47.585	0	25.70	0	8.4090	0	32.3760	0	25.154	0	25.484	0	282.4	4	97.5	4	-1E+10	1	-1E+10	1	-1E+10	1	-1E+10	1	-1E+10	1	-1E+10	1
4902549	25	C	04/16/2021	09:06	-133.346	47.585	0	35.70	0	8.3890	0	32.3770	0	25.158	0	35.399	0	280.7	4	96.8	4	-1E+10	1	-1E+10	1	-1E+10	1	-1E+10	1	-1E+10	1	-1E+10	1
4902549	25	C	04/16/2021	09:06	-133.346	47.585	0	45.40	0	8.3840	0	32.3780	0	25.160	0	45.016	0	279.7	4	96.5	4	-1E+10	1	-1E+10	1	-1E+10	1	-1E+10	1	-1E+10	1	-1E+10	1
4902549	25	C	04/16/2021	09:06	-133.346	47.585	0	55.20	0	8.3390	0	32.3750	0	25.164	0	54.732	0	279.2	4	96.2	4	-1E+10	1	-1E+10	1	-1E+10	1	-1E+10	1	-1E+10	1	-1E+10	1
4902549	25	C	04/16/2021	09:06	-133.346	47.585	0	65.30	0	8.3110	0	32.3730	0	25.167	0	64.744	0	278.6	4	95.9	4	-1E+10	1	-1E+10	1	-1E+10	1	-1E+10	1	-1E+10	1	-1E+10	1
4902549	25	C	04/16/2021	09:06	-133.346	47.585	0	75.50	0	8.2850	0	32.3730	0	25.171	0	74.856	0	277.3	4	95.4	4	-1E+10	1	-1E+10	1	-1E+10	1	-1E+10	1	-1E+10	1	-1E+10	1
4902549	25	C	04/16/2021	09:06	-133.346	47.585	0	85.40	0	8.2720	0	32.3790	0	25.178	0	84.669	0	275.5	4	94.8	4	-1E+10	1	-1E+10	1	-1E+10	1	-1E+10	1	-1E+10	1	-1E+10	1
4902549	25	C	04/16/2021	09:06	-133.346	47.585	0	95.50	0	8.0890	0	32.3660	0	25.195	0	94.680	0	276.2	4	94.6	4	-1E+10	1	-1E+10	1	-1E+10	1	-1E+10	1	-1E+10	1	-1E+10	1
4902549	25	C	04/16/2021	09:06	-133.346	47.585	0	105.60	0	7.8090	0	32.3630	0	25.232	0	104.691	0	275.1	4	93.7	4	-1E+10	1	-1E+10	1	-1E+10	1	-1E+10	1	-1E+10	1	-1E+10	1
4902549	25	C	04/16/2021	09:06	-133.346	47.585	0	115.20	0	7.6490	0	32.3640	0	25.256	0	114.206	0	266.9	4	90.6	4	-1E+10	1	-1E+10	1	-1E+10	1	-1E+10	1	-1E+10	1	-1E+10	1
4902549	25	C	04/16/2021	09:06	-133.346	47.585	0	125.60	0	7.7300	0	32.5970	0	25.428	0	124.513	0	233.3	4	79.4	4	-1E+10	1	-1E+10	1	-1E+10	1	-1E+10	1	-1E+10	1	-1E+10	1
4902549	25	C	04/16/2021	09:06	-133.346	47.585	0	135.20	0	7.5710	0	33.1190	0	25.860	0	134.027	0	205.1	4	69.8	4	-1E+10	1	-1E+10	1	-1E+10	1	-1E+10	1	-1E+10	1	-1E+10	1
4902549	25	C	04/16/2021	09:06	-133.346	47.585	0	145.10	0	7.3230	0	33.4260	0	26.137	0	143.837	0	196.9	4	66.8	4	-1E+10	1	-1E+10	1	-1E+10	1	-1E+10	1	-1E+10	1	-1E+10	1
4902549	25	C	04/16/2021	09:06	-133.346	47.585	0	155.50	0	7.2260	0	33.5620	0	26.257	0	154.143	0	192.3	4	65.2	4	-1E+10	1	-1E+10	1	-1E+10	1	-1E+10	1	-1E+10	1	-1E+10	1
4902549	25	C	04/16/2021	09:06	-133.346	47.585	0	165.40	0	7.1230	0	33.6290	0	26.324	0	163.953	0	188.0	4	63.6	4	-1E+10	1	-1E+10	1	-1E+10	1	-1E+10	1	-1E+10	1	-1E+10	1
4902549	25	C	04/16/2021	09:06	-133.346	47.585	0	175.30	0	6.8500	0	33.6630	0	26.388	0	173.762	0	182.8	4	61.5	4	-1E+10	1	-1E+10	1	-1E+10	1	-1E+10	1	-1E+10	1	-1E+10	1
4902549	25	C	04/16/2021	09:06	-133.346	47.585	0	185.70	0	6.7150	0	33.7050	0	26.439	0	184.066	0	177.2	4	59.4	4	-1E+10	1	-1E+10	1	-1E+10	1	-1E+10	1	-1E+10	1	-1E+10	1
4902549	25	C	04/16/2021	09:06	-133.346	47.585	0	195.60	0	6.5280	0	33.7300	0	26.484	0	193.874	0	168.5	4	56.3	4	-1E+10	1	-1E+10	1	-1E+10	1	-1E+10	1	-1E+10	1	-1E+10	1
4902549	25	C	04/16/2021	09:06	-133.346	47.585	0	213.00	0	6.1630	0	33.7490	0	26.546	0	211.112	0	153.1	4	50.7	4	-1E+10	1	-1E+10	1	-1E+10	1	-1E+10	1	-1E+10	1	-1E+10	1
4902549	25	C	04/16/2021	09:06	-133.346	47.585	0	237.70	0	5.8370	0	33.7780	0	26.610	0	235.579	0	136.5	4	44.9	4	-1E+10	1	-1E+10	1	-1E+10	1	-1E+10	1	-1E+10	1	-1E+10	1
4902549	25	C	04/16/2021	09:06	-133.346	47.585	0	262.60	0	5.5780	0	33.8050	0	26.663	0	260.241	0	124.9	4	40.8	4	-1E+10	1	-1E+10	1	-1E+10	1	-1E+10	1	-1E+10	1	-1E+10	1
4902549	25	C	04/16/2021	09:06	-133.346	47.585	0	287.90	0	5.3550	0	33.8210	0	26.702	0	285.296	0	113.7	4	37.0	4	-1E+10	1	-1E+10	1	-1E+10	1	-1E+10	1	-1E+10	1	-1E+10	1
4902549	25	C	04/16/2021	09:06	-133.346	47.585	0	313.30	0	5.1500	0	33.8410	0	26.742	0	310.447	0	100.8	4	32.6	4	-1E+10	1	-1E+10	1	-1E+10	1	-1E+10	1	-1E+10	1	-1E+10	1
4902549	25	C	04/16/2021	09:06	-133.346	47.585	0	338.20	0	5.0050	0	33.8680	0	26.780	0	335.101	0	88.8	4	28.7	4	-1E+10	1	-1E+10	1	-1E+10	1	-1E+10	1	-1E+10	1	-1E+10	1
4902549	25	C	04/16/2021	09:06	-133.346	47.585	0	363.20	0	4.8800	0	33.8900	0	26.812	0	359.850	0	78.6	4	25.3	4	-1E+10	1	-1E+10	1	-1E+10	1	-1E+10	1	-1E+10	1	-1E+10	1
4902549	25	C	04/16/2021	09:06	-133.346	47.585	0	387.70	0	4.7530	0	33.9140	0	26.845	0	384.101	0	69.8	4	22.4	4	-1E+10	1	-1E+10	1	-1E+10	1	-1E+10	1	-1E+10	1	-1E+10	1
4902549	25	C	04/16/2021	09:06	-133.346	47.585	0	412.30	0	4.6460	0	33.9370	0	26.876	0	408.449	0	63.0	4	20.2	4	-1E+10	1	-1E+10	1	-1E+10	1	-1E+10	1	-1E+10	1	-1E+10	1
4902549	25	C	04/16/2021	09:06	-133.346	47.585	0	438.40	0	4.5590	0	33.9630	0	26.906	0	434.277	0	55.6	4	17.8	4	-1E+10	1	-1E+10	1	-1E+10	1	-1E+10	1	-1E+10	1	-1E+10	1
4902549	25	C	04/16/2021	09:06	-133.346	47.585	0	462.40	0	4.4820	0	33.9860	0	26.933	0	458.025	0	49.6	4	15.8	4	-1E+10	1	-1E+10	1	-1E+10	1	-1E+10	1	-1E+10	1	-1E+10	1
4902549	25	C	04/16/2021	09:06	-133.346	47.585	0	487.60	0	4.4220	0	34.0070	0	26.956	0	482.958	0	42.2	4	13.4	4	-1E+10	1	-1E+10	1	-1E+10	1	-1E+10	1	-1E+10	1	-1E+10	1
4902549	25	C	04/16/2021	09:06	-133.346	47.585	0	513.10	0	4.3410	0	34.0400	0	26.991	0	508.184	0	34.2	4	10.9	4	-1E+10	1	-1E+10	1	-1E+10	1	-1E+10	1	-1E+10	1	-1E+10	1
4902549	25	C	04/16/2021	09:06	-133.346	47.585	0	538.30	0	4.2570	0	34.0660	0	27.021	0	533.110	0	29.2	4	9.3	4	-1E+10	1	-1E+10	1	-1E+10	1	-1E+10	1	-1E+10	1	-1E+10	1
4902549	25	C	04/16/2021	09:06	-133.346	47.585	0	563.20	0	4.2040	0	34.0890	0	27.045	0	557.736	0	25.1	4	8.0	4	-1E+10	1	-1E+10	1	-1E+10	1	-1E+10	1	-1E+10	1	-1E+10	1
4902549	25	C	04/16/2021	09:06	-133.346	47.585	0	588.30	0	4.1570	0	34.1050	0	27.063	0	582.558	0	22.8	4	7.2	4	-1E+10	1	-1E+10	1	-1E+10	1	-1E+10	1	-1E+10	1	-1E+10	1
4902549	25	C	04/16/2021	09:06	-133.346	47.585	0	613.10	0	4.0770	0	34.1240	0	27.086	0	607.080	0	20.7	4	6.5	4	-1E+10	1	-1E+10	1	-1E+10	1	-1E+10	1	-1E+10	1	-1E+10	1
4902549	25	C	04/16/2021	09:06	-133.346	47.585	0	638.70	0	3.9850	0	34.1450	0	27.112	0	632.389	0	19.4	4	6.1	4	-1E+10	1	-1E+10	1	-1E+10	1	-1E+10	1	-1E+10	1	-1E+10	1
4902549	25	C	04/16/2021	09:06	-133.346	47.585	0	662.70	0	3.9150	0	34.1590	0	27.131	0	656.114	0	18.5	4	5.8	4	-1E+10	1	-1E+10	1	-1E+10	1	-1E+10	1	-1E+10	1	-1E+10	1
4902549	25	C	04/16/2021	09:06	-133.346	47.585	0	687.80	0	3.8660	0	34.1730	0	27.147	0	680.924	0	16.7	4	5.2	4	-1E+10	1	-1E+10	1	-1E+10	1	-1E+10	1	-1E+10	1	-1E+10	1
4902549	25	C	04/16/2021	09:06	-133.346	47.585	0	712.80	0	3.8070	0	34.1880	0	27.165	0	705.632	0	15.2	4	4.8	4	-1E+10	1	-1E+10	1	-1E+10	1	-1E+10	1	-1E+10	1	-1E+10	1
4902549	25	C	04/16/2021	09:06	-133.346	47.585	0	737.70	0	3.7410	0	34.2040	0	27.184	0	730.238	0	13.9	4	4.4	4	-1E+10	1	-1E+10	1	-1E+10	1	-1E+10	1	-1E+10	1	-1E+10	1
4902549	25	C	04/16/2021	09:06	-133.346	47.585	0	762.60	0	3.6740	0	34.2220	0	27.206	0	754.841	0	12.7	4	4.0	4	-1E+10	1	-1E+10	1	-1E+10	1	-1E+10	1	-1E+10	1	-1E+10	1
4902549	25	C	04/16/2021	09:06	-133.346	47.585	0	788.10	0	3.6200	0	34.2360	0	27.222	0	780.034	0	12.3	4	3.8	4	-1E+10	1	-1E+10	1	-1E+10	1	-1E+10	1	-1E+10	1	-1E+10	1
4902549	25	C	04/16/2021	09:06	-133.346	47.585	0	813.10	0	3.5780	0	34.2480	0	27.236	0	804.730	0	11.2	4	3.5	4	-1E+10	1	-1E+10	1	-1E+10	1	-1E+10	1	-1E+10	1	-1E+10	1
4902549	25	C	04/16/2021	09:06	-133.346	47.585	0	837.70	0	3.5230	0	34.2660	0	27.256	0	829.028	0	10.0	4	3.1	4	-1E+10	1	-1E+10	1	-1E+10	1	-1E+10	1	-1E+10	1	-1E+10	1
4902549	25	C	04/16/2021	09:06	-133.346	47.585	0	862.80	0	3.4860	0	34.2790	0	27.270	0	853.817	0	9.3	4	2.9	4	-1E+10	1	-1E+10	1	-1E+10	1	-1E+10	1	-1E+10	1	-1E+10	1
4902549	25	C	04/16/2021	09:06	-133.346	47.585	0	888.80	0	3.4140	0	34.2940	0	27.289	0	879.491	0	8.8	4	2.7	4	-1E+10	1	-1E+10	1	-1E+10	1	-1E+10	1	-1E+10	1	-1E+10	1
4902549	25	C	04/16/2021	09:06	-133.346	47.585	0	912.50	0	3.3420	0	34.3080	0	27.307	0	902.892	0	8.4	4	2.6	4	-1E+10	1	-1E+10	1	-1E+10	1	-1E+10	1	-1E+10	1	-1E+10	1
4902549	25	C	04/16/2021	09:06	-133.346	47.585	0	937.50	0	3.2830	0	34.3210	0	27.323	0	927.573	0	8.2	4	2.6	4	-1E+10	1	-1E+10	1	-1E+10	1	-1E+10	1	-1E+10	1	-1E+10	1
4902549	25	C	04/16/2021	09:06	-133.346	47.585	0	963.20	0	3.2260	0	34.3310	0	27.336	0	952.943	0	8.1	4	2.5	4	-1E+10	1	-1E+10	1	-1E+10	1	-1E+10	1	-1E+10	1	-1E+10	1
4902549	25	C	04/16/2021	09:06	-133.346	47.585	0	987.90	0	3.1770	0	34.3410	0	27.349	0	977.322	0	8.1	4	2.5	4	-1E+10	1	-1E+10	1	-1E+10	1	-1E+10	1	-1E+10	1	-1E+10	1
4902549	25	C	04/16/2021	09:06	-133.346	47.585	0	1012.70	0	3.1520	0	34.3470	0	27.356	0	1001.798	0	8.0	4	2.5	4	-1E+10	1	-1E+10	1	-1E+10	1	-1E+10	1	-1E+10	1	-1E+10	1
4902549	25	C	04/16/2021	09:06	-133.346	47.585	0	1038.30	0	3.1160	0	34.3570	0	27.368	0	1027.059	0	7.8	4	2.4	4	-1E+10	1	-1E+10	1	-1E+10	1	-1E+10	1	-1E+10	1	-1E+10	1
4902549	25	C	04/16/2021	09:06	-133.346	47.585	0	1063.20	0	3.0840	0	34.3650	0	27.377	0	1051.627	0	7.8	4	2.4	4	-1E+10	1	-1E+10	1	-1E+10	1	-1E+10	1	-1E+10	1	-1E+10	1
4902549	25	C	04/16/2021	09:06	-133.346	47.585	0	1087.90	0	3.0410	0	34.3730	0	27.388	0	1075.995	0	7.8	4	2.4	4	-1E+10	1	-1E+10	1	-1E+10	1	-1E+10	1	-1E+10	1	-1E+10	1
4902549	25	C	04/16/2021	09:06	-133.346	47.585	0	1112.80	0	3.0010	0	34.3840	0	27.400	0	1100.557	0	7.8	4	2.4	4	-1E+10	1	-1E+10	1	-1E+10	1	-1E+10	1	-1E+10	1	-1E+10	1
4902549	25	C	04/16/2021	09:06	-133.346	47.585	0	1137.90	0	2.9650	0	34.3920	0	27.410	0	1125.314	0	7.9	4	2.4	4	-1E+10	1	-1E+10	1	-1E+10	1	-1E+10	1	-1E+10	1	-1E+10	1
4902549	25	C	04/16/2021	09:06	-133.346	47.585	0	1163.10	0	2.9310	0	34.4010	0	27.420	0	1150.166	0	8.1	4	2.5	4	-1E+10	1	-1E+10	1	-1E+10	1	-1E+10	1	-1E+10	1	-1E+10	1
4902549	25	C	04/16/2021	09:06	-133.346	47.585	0	1188.10	0	2.8940	0	34.4090	0	27.430	0	1174.818	0	8.3	4	2.6	4	-1E+10	1	-1E+10	1	-1E+10	1	-1E+10	1	-1E+10	1	-1E+10	1
4902549	25	C	04/16/2021	09:06	-133.346	47.585	0	1212.80	0	2.8370	0	34.4190	0	27.443	0	1199.172	0	8.8	4	2.7	4	-1E+10	1	-1E+10	1	-1E+10	1	-1E+10	1	-1E+10	1	-1E+10	1
4902549	25	C	04/16/2021	09:06	-133.346	47.585	0	1238.00	0	2.7840	0	34.4280	0	27.455	0	1224.016	0	9.3	4	2.8	4	-1E+10	1	-1E+10	1	-1E+10	1	-1E+10	1	-1E+10	1	-1E+10	1
4902549	25	C	04/16/2021	09:06	-133.346	47.585	0	1263.10	0	2.7450	0	34.4350	0	27.464	0	1248.758	0	9.7	4	3.0	4	-1E+10	1	-1E+10	1	-1E+10	1	-1E+10	1	-1E+10	1	-1E+10	1
4902549	25	C	04/16/2021	09:06	-133.346	47.585	0	1287.90	0	2.7030	0	34.4450	0	27.476	0	1273.201	0	10.4	4	3.2	4	-1E+10	1	-1E+10	1	-1E+10	1	-1E+10	1	-1E+10	1	-1E+10	1
4902549	25	C	04/16/2021	09:06	-133.346	47.585	0	1312.80	0	2.6580	0	34.4520	0	27.486	0	1297.740	0	10.9	4	3.3	4	-1E+10	1	-1E+10	1	-1E+10	1	-1E+10	1	-1E+10	1	-1E+10	1
4902549	25	C	04/16/2021	09:06	-133.346	47.585	0	1338.30	0	2.6190	0	34.4600	0	27.496	0	1322.868	0	11.3	4	3.5	4	-1E+10	1	-1E+10	1	-1E+10	1	-1E+10	1	-1E+10	1	-1E+10	1
4902549	25	C	04/16/2021	09:06	-133.346	47.585	0	1362.60	0	2.5740	0	34.4670	0	27.505	0	1346.810	0	12.3	4	3.7	4	-1E+10	1	-1E+10	1	-1E+10	1	-1E+10	1	-1E+10	1	-1E+10	1
4902549	25	C	04/16/2021	09:06	-133.346	47.585	0	1387.50	0	2.5250	0	34.4750	0	27.516	0	1371.340	0	13.7	4	4.2	4	-1E+10	1	-1E+10	1	-1E+10	1	-1E+10	1	-1E+10	1	-1E+10	1
4902549	25	C	04/16/2021	09:06	-133.346	47.585	0	1412.80	0	2.4910	0	34.4810	0	27.524	0	1396.262	0	14.7	4	4.5	4	-1E+10	1	-1E+10	1	-1E+10	1	-1E+10	1	-1E+10	1	-1E+10	1
4902549	25	C	04/16/2021	09:06	-133.346	47.585	0	1437.90	0	2.4560	0	34.4870	0	27.532	0	1420.984	0	15.6	4	4.7	4	-1E+10	1	-1E+10	1	-1E+10	1	-1E+10	1	-1E+10	1	-1E+10	1
4902549	25	C	04/16/2021	09:06	-133.346	47.585	0	1463.40	0	2.4190	0	34.4930	0	27.540	0	1446.097	0	16.9	4	5.2	4	-1E+10	1	-1E+10	1	-1E+10	1	-1E+10	1	-1E+10	1	-1E+10	1
4902549	25	C	04/16/2021	09:06	-133.346	47.585	0	1487.80	0	2.3880	0	34.4990	0	27.547	0	1470.123	0	18.2	4	5.5	4	-1E+10	1	-1E+10	1	-1E+10	1	-1E+10	1	-1E+10	1	-1E+10	1
4902549	25	C	04/16/2021	09:06	-133.346	47.585	0	1512.90	0	2.3580	0	34.5040	0	27.554	0	1494.836	0	19.8	4	6.0	4	-1E+10	1	-1E+10	1	-1E+10	1	-1E+10	1	-1E+10	1	-1E+10	1
4902549	25	C	04/16/2021	09:06	-133.346	47.585	0	1537.50	0	2.3270	0	34.5100	0	27.561	0	1519.054	0	21.3	4	6.5	4	-1E+10	1	-1E+10	1	-1E+10	1	-1E+10	1	-1E+10	1	-1E+10	1
4902549	25	C	04/16/2021	09:06	-133.346	47.585	0	1562.50	0	2.2870	0	34.5170	0	27.570	0	1543.663	0	23.3	4	7.1	4	-1E+10	1	-1E+10	1	-1E+10	1	-1E+10	1	-1E+10	1	-1E+10	1
4902549	25	C	04/16/2021	09:06	-133.346	47.585	0	1587.90	0	2.2560	0	34.5230	0	27.578	0	1568.663	0	25.1	4	7.6	4	-1E+10	1	-1E+10	1	-1E+10	1	-1E+10	1	-1E+10	1	-1E+10	1
4902549	25	C	04/16/2021	09:06	-133.346	47.585	0	1613.20	0	2.2260	0	34.5280	0	27.584	0	1593.561	0	26.8	4	8.1	4	-1E+10	1	-1E+10	1	-1E+10	1	-1E+10	1	-1E+10	1	-1E+10	1
4902549	25	C	04/16/2021	09:06	-133.346	47.585	0	1638.10	0	2.2000	0	34.5330	0	27.590	0	1618.063	0	28.6	4	8.7	4	-1E+10	1	-1E+10	1	-1E+10	1	-1E+10	1	-1E+10	1	-1E+10	1
4902549	25	C	04/16/2021	09:06	-133.346	47.585	0	1662.70	0	2.1750	0	34.5380	0	27.596	0	1642.267	0	30.0	4	9.1	4	-1E+10	1	-1E+10	1	-1E+10	1	-1E+10	1	-1E+10	1	-1E+10	1
4902549	25	C	04/16/2021	09:06	-133.346	47.585	0	1688.20	0	2.1610	0	34.5410	0	27.600	0	1667.353	0	31.3	4	9.5	4	-1E+10	1	-1E+10	1	-1E+10	1	-1E+10	1	-1E+10	1	-1E+10	1
4902549	25	C	04/16/2021	09:06	-133.346	47.585	0	1712.80	0	2.1460	0	34.5440	0	27.604	0	1691.551	0	32.6	4	9.9	4	-1E+10	1	-1E+10	1	-1E+10	1	-1E+10	1	-1E+10	1	-1E+10	1
4902549	25	C	04/16/2021	09:06	-133.346	47.585	0	1737.70	0	2.1280	0	34.5470	0	27.608	0	1716.042	0	34.0	4	10.3	4	-1E+10	1	-1E+10	1	-1E+10	1	-1E+10	1	-1E+10	1	-1E+10	1
4902549	25	C	04/16/2021	09:06	-133.346	47.585	0	1762.60	0	2.1080	0	34.5510	0	27.613	0	1740.529	0	35.6	4	10.8	4	-1E+10	1	-1E+10	1	-1E+10	1	-1E+10	1	-1E+10	1	-1E+10	1
4902549	25	C	04/16/2021	09:06	-133.346	47.585	0	1787.80	0	2.0860	0	34.5550	0	27.618	0	1765.309	0	37.2	4	11.2	4	-1E+10	1	-1E+10	1	-1E+10	1	-1E+10	1	-1E+10	1	-1E+10	1
4902549	25	C	04/16/2021	09:06	-133.346	47.585	0	1812.90	0	2.0670	0	34.5590	0	27.623	0	1789.988	0	38.7	4	11.7	4	-1E+10	1	-1E+10	1	-1E+10	1	-1E+10	1	-1E+10	1	-1E+10	1
4902549	25	C	04/16/2021	09:06	-133.346	47.585	0	1837.70	0	2.0460	0	34.5630	0	27.628	0	1814.368	0	40.6	4	12.2	4	-1E+10	1	-1E+10	1	-1E+10	1	-1E+10	1	-1E+10	1	-1E+10	1
4902549	25	C	04/16/2021	09:06	-133.346	47.585	0	1862.50	0	2.0210	0	34.5670	0	27.633	0	1838.746	0	42.5	4	12.8	4	-1E+10	1	-1E+10	1	-1E+10	1	-1E+10	1	-1E+10	1	-1E+10	1
4902549	25	C	04/16/2021	09:06	-133.346	47.585	0	1888.90	0	2.0010	0	34.5710	0	27.638	0	1864.694	0	44.1	4	13.3	4	-1E+10	1	-1E+10	1	-1E+10	1	-1E+10	1	-1E+10	1	-1E+10	1
4902549	25	C	04/16/2021	09:06	-133.346	47.585	0	1912.80	0	1.9840	0	34.5740	0	27.642	0	1888.182	0	45.4	4	13.7	4	-1E+10	1	-1E+10	1	-1E+10	1	-1E+10	1	-1E+10	1	-1E+10	1
4902549	25	C	04/16/2021	09:06	-133.346	47.585	0	1937.60	0	1.9660	0	34.5780	0	27.646	0	1912.551	0	47.1	4	14.2	4	-1E+10	1	-1E+10	1	-1E+10	1	-1E+10	1	-1E+10	1	-1E+10	1
4902549	25	C	04/16/2021	09:06	-133.346	47.585	0	1962.90	0	1.9520	0	34.5810	0	27.650	0	1937.409	0	48.3	4	14.6	4	-1E+10	1	-1E+10	1	-1E+10	1	-1E+10	1	-1E+10	1	-1E+10	1
4902549	25	C	04/16/2021	09:06	-133.346	47.585	0	1988.10	0	1.9380	0	34.5840	0	27.654	0	1962.166	0	49.6	4	14.9	4	-1E+10	1	-1E+10	1	-1E+10	1	-1E+10	1	-1E+10	1	-1E+10	1
4902549	25	C	04/16/2021	09:06	-133.346	47.585	0	2014.20	0	1.9250	0	34.5860	0	27.656	0	1987.804	0	50.1	4	15.1	4	-1E+10	1	-1E+10	1	-1E+10	1	-1E+10	1	-1E+10	1	-1E+10	1
4902549	25	C	04/16/2021	09:06	-133.346	47.585	0																										
4902549	26	C	04/26/2021	09:07	-133.320	47.502	0	0.30	0	9.4380	0	32.4020	0	25.016	0	0.297	0	280.6	4	99.1	4	-1E+10	1	-1E+10	1	-1E+10	1	-1E+10	1	-1E+10	1	-1E+10	1
4902549	26	C	04/26/2021	09:07	-133.320	47.502	0	0.90	0	9.4390	0	32.4000	0	25.014	0	0.892	0	280.5	4	99.1	4	-1E+10	1	-1E+10	1	-1E+10	1	-1E+10	1	-1E+10	1	-1E+10	1
4902549	26	C	04/26/2021	09:07	-133.320	47.502	0	1.90	0	9.4380	0	32.4000	0	25.014	0	1.884	0	280.5	4	99.1	4	-1E+10	1	-1E+10	1	-1E+10	1	-1E+10	1	-1E+10	1	-1E+10	1
4902549	26	C	04/26/2021	09:07	-133.320	47.502	0	2.80	0	9.4370	0	32.4020	0	25.016	0	2.777	0	280.4	4	99.0	4	-1E+10	1	-1E+10	1	-1E+10	1	-1E+10	1	-1E+10	1	-1E+10	1
4902549	26	C	04/26/2021	09:07	-133.320	47.502	0	3.80	0	9.4360	0	32.4030	0	25.017	0	3.768	0	280.4	4	99.0	4	-1E+10	1	-1E+10	1	-1E+10	1	-1E+10	1	-1E+10	1	-1E+10	1
4902549	26	C	04/26/2021	09:07	-133.320	47.502	0	5.00	0	9.4370	0	32.4040	0	25.018	0	4.958	0	280.4	4	99.0	4	-1E+10	1	-1E+10	1	-1E+10	1	-1E+10	1	-1E+10	1	-1E+10	1
4902549	26	C	04/26/2021	09:07	-133.320	47.502	0	6.00	0	9.4380	0	32.4040	0	25.017	0	5.950	0	280.5	4	99.0	4	-1E+10	1	-1E+10	1	-1E+10	1	-1E+10	1	-1E+10	1	-1E+10	1
4902549	26	C	04/26/2021	09:07	-133.320	47.502	0	6.80	0	9.4380	0	32.4040	0	25.017	0	6.743	0	280.6	4	99.1	4	-1E+10	1	-1E+10	1	-1E+10	1	-1E+10	1	-1E+10	1	-1E+10	1
4902549	26	C	04/26/2021	09:07	-133.320	47.502	0	7.80	0	9.4390	0	32.4040	0	25.017	0	7.735	0	280.6	4	99.1	4	-1E+10	1	-1E+10	1	-1E+10	1	-1E+10	1	-1E+10	1	-1E+10	1
4902549	26	C	04/26/2021	09:07	-133.320	47.502	0	9.00	0	9.4400	0	32.4040	0	25.017	0	8.925	0	280.7	4	99.1	4	-1E+10	1	-1E+10	1	-1E+10	1	-1E+10	1	-1E+10	1	-1E+10	1
4902549	26	C	04/26/2021	09:07	-133.320	47.502	0	9.70	0	9.4400	0	32.4040	0	25.017	0	9.619	0	280.7	4	99.1	4	-1E+10	1	-1E+10	1	-1E+10	1	-1E+10	1	-1E+10	1	-1E+10	1
4902549	26	C	04/26/2021	09:07	-133.320	47.502	0	15.20	0	9.4360	0	32.4030	0	25.017	0	15.073	0	281.4	4	99.4	4	-1E+10	1	-1E+10	1	-1E+10	1	-1E+10	1	-1E+10	1	-1E+10	1
4902549	26	C	04/26/2021	09:07	-133.320	47.502	0	25.00	0	9.0520	0	32.3950	0	25.071	0	24.790	0	285.6	4	100.0	4	-1E+10	1	-1E+10	1	-1E+10	1	-1E+10	1	-1E+10	1	-1E+10	1
4902549	26	C	04/26/2021	09:07	-133.320	47.502	0	35.20	0	8.4210	0	32.3890	0	25.163	0	34.903	0	287.0	4	99.1	4	-1E+10	1	-1E+10	1	-1E+10	1	-1E+10	1	-1E+10	1	-1E+10	1
4902549	26	C	04/26/2021	09:07	-133.320	47.502	0	45.40	0	8.3030	0	32.3880	0	25.180	0	45.016	0	283.4	4	97.6	4	-1E+10	1	-1E+10	1	-1E+10	1	-1E+10	1	-1E+10	1	-1E+10	1
4902549	26	C	04/26/2021	09:07	-133.320	47.502	0	55.50	0	8.2320	0	32.3900	0	25.192	0	55.029	0	278.5	4	95.7	4	-1E+10	1	-1E+10	1	-1E+10	1	-1E+10	1	-1E+10	1	-1E+10	1
4902549	26	C	04/26/2021	09:07	-133.320	47.502	0	65.30	0	8.1700	0	32.3940	0	25.204	0	64.745	0	276.0	4	94.8	4	-1E+10	1	-1E+10	1	-1E+10	1	-1E+10	1	-1E+10	1	-1E+10	1
4902549	26	C	04/26/2021	09:07	-133.320	47.502	0	75.40	0	8.0740	0	32.4020	0	25.225	0	74.757	0	273.3	4	93.6	4	-1E+10	1	-1E+10	1	-1E+10	1	-1E+10	1	-1E+10	1	-1E+10	1
4902549	26	C	04/26/2021	09:07	-133.320	47.502	0	85.50	0	7.9480	0	32.4190	0	25.256	0	84.769	0	269.2	4	92.0	4	-1E+10	1	-1E+10	1	-1E+10	1	-1E+10	1	-1E+10	1	-1E+10	1
4902549	26	C	04/26/2021	09:07	-133.320	47.502	0	95.40	0	7.7250	0	32.4590	0	25.320	0	94.582	0	260.1	4	88.4	4	-1E+10	1	-1E+10	1	-1E+10	1	-1E+10	1	-1E+10	1	-1E+10	1
4902549	26	C	04/26/2021	09:07	-133.320	47.502	0	105.10	0	7.6540	0	32.5920	0	25.434	0	104.196	0	244.0	4	82.9	4	-1E+10	1	-1E+10	1	-1E+10	1	-1E+10	1	-1E+10	1	-1E+10	1
4902549	26	C	04/26/2021	09:07	-133.320	47.502	0	115.60	0	7.7600	0	32.8940	0	25.657	0	114.603	0	220.1	4	75.1	4	-1E+10	1	-1E+10	1	-1E+10	1	-1E+10	1	-1E+10	1	-1E+10	1
4902549	26	C	04/26/2021	09:07	-133.320	47.502	0	125.40	0	7.6170	0	33.1760	0	25.899	0	124.316	0	207.5	4	70.8	4	-1E+10	1	-1E+10	1	-1E+10	1	-1E+10	1	-1E+10	1	-1E+10	1
4902549	26	C	04/26/2021	09:07	-133.320	47.502	0	135.40	0	7.4920	0	33.3560	0	26.058	0	134.226	0	198.7	4	67.6	4	-1E+10	1	-1E+10	1	-1E+10	1	-1E+10	1	-1E+10	1	-1E+10	1
4902549	26	C	04/26/2021	09:07	-133.320	47.502	0	145.30	0	7.2080	0	33.5500	0	26.250	0	144.037	0	190.2	4	64.4	4	-1E+10	1	-1E+10	1	-1E+10	1	-1E+10	1	-1E+10	1	-1E+10	1
4902549	26	C	04/26/2021	09:07	-133.320	47.502	0	155.40	0	6.9820	0	33.6800	0	26.384	0	154.045	0	184.4	4	62.2	4	-1E+10	1	-1E+10	1	-1E+10	1	-1E+10	1	-1E+10	1	-1E+10	1
4902549	26	C	04/26/2021	09:07	-133.320	47.502	0	165.80	0	6.8660	0	33.7160	0	26.428	0	164.350	0	180.5	4	60.8	4	-1E+10	1	-1E+10	1	-1E+10	1	-1E+10	1	-1E+10	1	-1E+10	1
4902549	26	C	04/26/2021	09:07	-133.320	47.502	0	175.70	0	6.8090	0	33.7300	0	26.447	0	174.159	0	177.0	4	59.5	4	-1E+10	1	-1E+10	1	-1E+10	1	-1E+10	1	-1E+10	1	-1E+10	1
4902549	26	C	04/26/2021	09:07	-133.320	47.502	0	185.50	0	6.6810	0	33.7270	0	26.461	0	183.869	0	171.5	4	57.5	4	-1E+10	1	-1E+10	1	-1E+10	1	-1E+10	1	-1E+10	1	-1E+10	1
4902549	26	C	04/26/2021	09:07	-133.320	47.502	0	195.40	0	6.4190	0	33.7300	0	26.498	0	193.678	0	164.8	4	54.9	4	-1E+10	1	-1E+10	1	-1E+10	1	-1E+10	1	-1E+10	1	-1E+10	1
4902549	26	C	04/26/2021	09:07	-133.320	47.502	0	213.60	0	6.1450	0	33.7560	0	26.554	0	211.708	0	152.6	4	50.5	4	-1E+10	1	-1E+10	1	-1E+10	1	-1E+10	1	-1E+10	1	-1E+10	1
4902549	26	C	04/26/2021	09:07	-133.320	47.502	0	237.50	0	5.8970	0	33.7780	0	26.603	0	235.382	0	140.5	4	46.3	4	-1E+10	1	-1E+10	1	-1E+10	1	-1E+10	1	-1E+10	1	-1E+10	1
4902549	26	C	04/26/2021	09:07	-133.320	47.502	0	262.60	0	5.6090	0	33.8040	0	26.658	0	260.243	0	123.8	4	40.5	4	-1E+10	1	-1E+10	1	-1E+10	1	-1E+10	1	-1E+10	1	-1E+10	1
4902549	26	C	04/26/2021	09:07	-133.320	47.502	0	287.60	0	5.2910	0	33.8240	0	26.712	0	285.001	0	109.6	4	35.6	4	-1E+10	1	-1E+10	1	-1E+10	1	-1E+10	1	-1E+10	1	-1E+10	1
4902549	26	C	04/26/2021	09:07	-133.320	47.502	0	312.50	0	5.0920	0	33.8460	0	26.753	0	309.658	0	96.3	4	31.1	4	-1E+10	1	-1E+10	1	-1E+10	1	-1E+10	1	-1E+10	1	-1E+10	1
4902549	26	C	04/26/2021	09:07	-133.320	47.502	0	337.60	0	4.9370	0	33.8640	0	26.785	0	334.509	0	85.9	4	27.7	4	-1E+10	1	-1E+10	1	-1E+10	1	-1E+10	1	-1E+10	1	-1E+10	1
4902549	26	C	04/26/2021	09:07	-133.320	47.502	0	362.90	0	4.7870	0	33.8900	0	26.822	0	359.556	0	76.4	4	24.5	4	-1E+10	1	-1E+10	1	-1E+10	1	-1E+10	1	-1E+10	1	-1E+10	1
4902549	26	C	04/26/2021	09:07	-133.320	47.502	0	388.70	0	4.6710	0	33.9150	0	26.855	0	385.094	0	69.3	4	22.2	4	-1E+10	1	-1E+10	1	-1E+10	1	-1E+10	1	-1E+10	1	-1E+10	1
4902549	26	C	04/26/2021	09:07	-133.320	47.502	0	412.60	0	4.5970	0	33.9320	0	26.877	0	408.749	0	63.3	4	20.2	4	-1E+10	1	-1E+10	1	-1E+10	1	-1E+10	1	-1E+10	1	-1E+10	1
4902549	26	C	04/26/2021	09:07	-133.320	47.502	0	437.80	0	4.5280	0	33.9580	0	26.905	0	433.687	0	56.0	4	17.9	4	-1E+10	1	-1E+10	1	-1E+10	1	-1E+10	1	-1E+10	1	-1E+10	1
4902549	26	C	04/26/2021	09:07	-133.320	47.502	0	462.60	0	4.4650	0	33.9810	0	26.931	0	458.227	0	50.4	4	16.1	4	-1E+10	1	-1E+10	1	-1E+10	1	-1E+10	1	-1E+10	1	-1E+10	1
4902549	26	C	04/26/2021	09:07	-133.320	47.502	0	487.70	0	4.3940	0	34.0050	0	26.957	0	483.060	0	44.1	4	14.0	4	-1E+10	1	-1E+10	1	-1E+10	1	-1E+10	1	-1E+10	1	-1E+10	1
4902549	26	C	04/26/2021	09:07	-133.320	47.502	0	512.60	0	4.2950	0	34.0330	0	26.990	0	507.693	0	38.8	4	12.3	4	-1E+10	1	-1E+10	1	-1E+10	1	-1E+10	1	-1E+10	1	-1E+10	1
4902549	26	C	04/26/2021	09:07	-133.320	47.502	0	537.40	0	4.2210	0	34.0530	0	27.014	0	532.224	0	35.3	4	11.2	4	-1E+10	1	-1E+10	1	-1E+10	1	-1E+10	1	-1E+10	1	-1E+10	1
4902549	26	C	04/26/2021	09:07	-133.320	47.502	0	563.60	0	4.1650	0	34.0720	0	27.035	0	558.136	0	30.1	4	9.5	4	-1E+10	1	-1E+10	1	-1E+10	1	-1E+10	1	-1E+10	1	-1E+10	1
4902549	26	C	04/26/2021	09:07	-133.320	47.502	0	587.60	0	4.1340	0	34.1020	0	27.063	0	581.870	0	23.1	4	7.3	4	-1E+10	1	-1E+10	1	-1E+10	1	-1E+10	1	-1E+10	1	-1E+10	1
4902549	26	C	04/26/2021	09:07	-133.320	47.502	0	612.50	0	4.0880	0	34.1260	0	27.087	0	606.491	0	19.4	4	6.1	4	-1E+10	1	-1E+10	1	-1E+10	1	-1E+10	1	-1E+10	1	-1E+10	1
4902549	26	C	04/26/2021	09:07	-133.320	47.502	0	638.00	0	4.0250	0	34.1500	0	27.112	0	631.702	0	16.8	4	5.3	4	-1E+10	1	-1E+10	1	-1E+10	1	-1E+10	1	-1E+10	1	-1E+10	1
4902549	26	C	04/26/2021	09:07	-133.320	47.502	0	663.20	0	3.9690	0	34.1670	0	27.132	0	656.614	0	15.7	4	5.0	4	-1E+10	1	-1E+10	1	-1E+10	1	-1E+10	1	-1E+10	1	-1E+10	1
4902549	26	C	04/26/2021	09:07	-133.320	47.502	0	688.30	0	3.8660	0	34.1770	0	27.150	0	681.423	0	16.0	4	5.0	4	-1E+10	1	-1E+10	1	-1E+10	1	-1E+10	1	-1E+10	1	-1E+10	1
4902549	26	C	04/26/2021	09:07	-133.320	47.502	0	712.90	0	3.8060	0	34.1920	0	27.168	0	705.736	0	14.5	4	4.6	4	-1E+10	1	-1E+10	1	-1E+10	1	-1E+10	1	-1E+10	1	-1E+10	1
4902549	26	C	04/26/2021	09:07	-133.320	47.502	0	737.70	0	3.7650	0	34.2040	0	27.182	0	730.243	0	13.6	4	4.3	4	-1E+10	1	-1E+10	1	-1E+10	1	-1E+10	1	-1E+10	1	-1E+10	1
4902549	26	C	04/26/2021	09:07	-133.320	47.502	0	762.60	0	3.6770	0	34.2230	0	27.206	0	754.847	0	12.3	4	3.9	4	-1E+10	1	-1E+10	1	-1E+10	1	-1E+10	1	-1E+10	1	-1E+10	1
4902549	26	C	04/26/2021	09:07	-133.320	47.502	0	787.50	0	3.6500	0	34.2370	0	27.220	0	779.447	0	11.1	4	3.5	4	-1E+10	1	-1E+10	1	-1E+10	1	-1E+10	1	-1E+10	1	-1E+10	1
4902549	26	C	04/26/2021	09:07	-133.320	47.502	0	813.10	0	3.6010	0	34.2520	0	27.237	0	804.736	0	10.4	4	3.2	4	-1E+10	1	-1E+10	1	-1E+10	1	-1E+10	1	-1E+10	1	-1E+10	1
4902549	26	C	04/26/2021	09:07	-133.320	47.502	0	838.10	0	3.5510	0	34.2670	0	27.254	0	829.429	0	9.6	4	3.0	4	-1E+10	1	-1E+10	1	-1E+10	1	-1E+10	1	-1E+10	1	-1E+10	1
4902549	26	C	04/26/2021	09:07	-133.320	47.502	0	862.90	0	3.4910	0	34.2800	0	27.270	0	853.922	0	9.1	4	2.8	4	-1E+10	1	-1E+10	1	-1E+10	1	-1E+10	1	-1E+10	1	-1E+10	1
4902549	26	C	04/26/2021	09:07	-133.320	47.502	0	887.90	0	3.4430	0	34.2920	0	27.285	0	878.609	0	8.7	4	2.7	4	-1E+10	1	-1E+10	1	-1E+10	1	-1E+10	1	-1E+10	1	-1E+10	1
4902549	26	C	04/26/2021	09:07	-133.320	47.502	0	912.90	0	3.3880	0	34.3000	0	27.296	0	903.294	0	8.6	4	2.7	4	-1E+10	1	-1E+10	1	-1E+10	1	-1E+10	1	-1E+10	1	-1E+10	1
4902549	26	C	04/26/2021	09:07	-133.320	47.502	0	937.70	0	3.3480	0	34.3080	0	27.307	0	927.778	0	8.4	4	2.6	4	-1E+10	1	-1E+10	1	-1E+10	1	-1E+10	1	-1E+10	1	-1E+10	1
4902549	26	C	04/26/2021	09:07	-133.320	47.502	0	962.40	0	3.2810	0	34.3220	0	27.324	0	952.161	0	8.1	4	2.5	4	-1E+10	1	-1E+10	1	-1E+10	1	-1E+10	1	-1E+10	1	-1E+10	1
4902549	26	C	04/26/2021	09:07	-133.320	47.502	0	988.70	0	3.2070	0	34.3370	0	27.343	0	978.119	0	8.0	4	2.5	4	-1E+10	1	-1E+10	1	-1E+10	1	-1E+10	1	-1E+10	1	-1E+10	1
4902549	26	C	04/26/2021	09:07	-133.320	47.502	0	1012.80	0	3.1510	0	34.3480	0	27.357	0	1001.904	0	7.9	4	2.4	4	-1E+10	1	-1E+10	1	-1E+10	1	-1E+10	1	-1E+10	1	-1E+10	1
4902549	26	C	04/26/2021	09:07	-133.320	47.502	0	1037.60	0	3.1110	0	34.3580	0	27.369	0	1026.376	0	7.8	4	2.4	4	-1E+10	1	-1E+10	1	-1E+10	1	-1E+10	1	-1E+10	1	-1E+10	1
4902549	26	C	04/26/2021	09:07	-133.320	47.502	0	1062.40	0	3.0820	0	34.3650	0	27.377	0	1050.846	0	7.8	4	2.4	4	-1E+10	1	-1E+10	1	-1E+10	1	-1E+10	1	-1E+10	1	-1E+10	1
4902549	26	C	04/26/2021	09:07	-133.320	47.502	0	1087.50	0	3.0510	0	34.3710	0	27.385	0	1075.609	0	7.8	4	2.4	4	-1E+10	1	-1E+10	1	-1E+10	1	-1E+10	1	-1E+10	1	-1E+10	1
4902549	26	C	04/26/2021	09:07	-133.320	47.502	0	1112.50	0	3.0220	0	34.3800	0	27.395	0	1100.270	0	7.8	4	2.4	4	-1E+10	1	-1E+10	1	-1E+10	1	-1E+10	1	-1E+10	1	-1E+10	1
4902549	26	C	04/26/2021	09:07	-133.320	47.502	0	1138.00	0	2.9900	0	34.3870	0	27.404	0	1125.421	0	7.9	4	2.4	4	-1E+10	1	-1E+10	1	-1E+10	1	-1E+10	1	-1E+10	1	-1E+10	1
4902549	26	C	04/26/2021	09:07	-133.320	47.502	0	1163.20	0	2.9490	0	34.3970	0	27.416	0	1150.274	0	8.0	4	2.5	4	-1E+10	1	-1E+10	1	-1E+10	1	-1E+10	1	-1E+10	1	-1E+10	1
4902549	26	C	04/26/2021	09:07	-133.320	47.502	0	1187.90	0	2.9070	0	34.4070	0	27.427	0	1174.630	0	8.2	4	2.5	4	-1E+10	1	-1E+10	1	-1E+10	1	-1E+10	1	-1E+10	1	-1E+10	1
4902549	26	C	04/26/2021	09:07	-133.320	47.502	0	1212.90	0	2.8700	0	34.4150	0	27.437	0	1199.280	0	8.5	4	2.6	4	-1E+10	1	-1E+10	1	-1E+10	1	-1E+10	1	-1E+10	1	-1E+10	1
4902549	26	C	04/26/2021	09:07	-133.320	47.502	0	1238.50	0	2.8350	0	34.4210	0	27.445	0	1224.518	0	8.8	4	2.7	4	-1E+10	1	-1E+10	1	-1E+10	1	-1E+10	1	-1E+10	1	-1E+10	1
4902549	26	C	04/26/2021	09:07	-133.320	47.502	0	1262.90	0	2.7970	0	34.4280	0	27.454	0	1248.570	0	9.1	4	2.8	4	-1E+10	1	-1E+10	1	-1E+10	1	-1E+10	1	-1E+10	1	-1E+10	1
4902549	26	C	04/26/2021	09:07	-133.320	47.502	0	1288.00	0	2.7640	0	34.4360	0	27.464	0	1273.309	0	9.6	4	2.9	4	-1E+10	1	-1E+10	1	-1E+10	1	-1E+10	1	-1E+10	1	-1E+10	1
4902549	26	C	04/26/2021	09:07	-133.320	47.502	0	1312.60	0	2.6980	0	34.4480	0	27.479	0	1297.553	0	10.4	4	3.2	4	-1E+10	1	-1E+10	1	-1E+10	1	-1E+10	1	-1E+10	1	-1E+10	1
4902549	26	C	04/26/2021	09:07	-133.320	47.502	0	1337.90	0	2.6530	0	34.4550	0	27.489	0	1322.484	0	10.9	4	3.3	4	-1E+10	1	-1E+10	1	-1E+10	1	-1E+10	1	-1E+10	1	-1E+10	1
4902549	26	C	04/26/2021	09:07	-133.320	47.502	0	1363.00	0	2.6190	0	34.4610	0	27.497	0	1347.214	0	11.4	4	3.5	4	-1E+10	1	-1E+10	1	-1E+10	1	-1E+10	1	-1E+10	1	-1E+10	1
4902549	26	C	04/26/2021	09:07	-133.320	47.502	0	1387.70	0	2.5880	0	34.4660	0	27.503	0	1371.548	0	12.2	4	3.7	4	-1E+10	1	-1E+10	1	-1E+10	1	-1E+10	1	-1E+10	1	-1E+10	1
4902549	26	C	04/26/2021	09:07	-133.320	47.502	0	1413.00	0	2.5500	0	34.4720	0	27.512	0	1396.470	0	12.7	4	3.9	4	-1E+10	1	-1E+10	1	-1E+10	1	-1E+10	1	-1E+10	1	-1E+10	1
4902549	26	C	04/26/2021	09:07	-133.320	47.502	0	1437.70	0	2.5190	0	34.4760	0	27.518	0	1420.798	0	13.5	4	4.1	4	-1E+10	1	-1E+10	1	-1E+10	1	-1E+10	1	-1E+10	1	-1E+10	1
4902549	26	C	04/26/2021	09:07	-133.320	47.502	0	1462.80	0	2.4790	0	34.4830	0	27.527	0	1445.517	0	14.7	4	4.5	4	-1E+10	1	-1E+10	1	-1E+10	1	-1E+10	1	-1E+10	1	-1E+10	1
4902549	26	C	04/26/2021	09:07	-133.320	47.502	0	1487.90	0	2.4390	0	34.4900	0	27.536	0	1470.233	0	16.1	4	4.9	4	-1E+10	1	-1E+10	1	-1E+10	1	-1E+10	1	-1E+10	1	-1E+10	1
4902549	26	C	04/26/2021	09:07	-133.320	47.502	0	1513.30	0	2.4030	0	34.4960	0	27.544	0	1495.242	0	17.7	4	5.4	4	-1E+10	1	-1E+10	1	-1E+10	1	-1E+10	1	-1E+10	1	-1E+10	1
4902549	26	C	04/26/2021	09:07	-133.320	47.502	0	1537.50	0	2.3650	0	34.5030	0	27.552	0	1519.066	0	19.4	4	5.9	4	-1E+10	1	-1E+10	1	-1E+10	1	-1E+10	1	-1E+10	1	-1E+10	1
4902549	26	C	04/26/2021	09:07	-133.320	47.502	0	1562.60	0	2.3280	0	34.5100	0	27.561	0	1543.773	0	21.2	4	6.5	4	-1E+10	1	-1E+10	1	-1E+10	1	-1E+10	1	-1E+10	1	-1E+10	1
4902549	26	C	04/26/2021	09:07	-133.320	47.502	0	1588.00	0	2.2900	0	34.5170	0	27.570	0	1568.773	0	23.1	4	7.0	4	-1E+10	1	-1E+10	1	-1E+10	1	-1E+10	1	-1E+10	1	-1E+10	1
4902549	26	C	04/26/2021	09:07	-133.320	47.502	0	1613.10	0	2.2690	0	34.5210	0	27.575	0	1593.475	0	24.7	4	7.5	4	-1E+10	1	-1E+10	1	-1E+10	1	-1E+10	1	-1E+10	1	-1E+10	1
4902549	26	C	04/26/2021	09:07	-133.320	47.502	0	1638.00	0	2.2440	0	34.5260	0	27.581	0	1617.977	0	26.6	4	8.1	4	-1E+10	1	-1E+10	1	-1E+10	1	-1E+10	1	-1E+10	1	-1E+10	1
4902549	26	C	04/26/2021	09:07	-133.320	47.502	0	1663.70	0	2.2160	0	34.5310	0	27.588	0	1643.263	0	28.5	4	8.6	4	-1E+10	1	-1E+10	1	-1E+10	1	-1E+10	1	-1E+10	1	-1E+10	1
4902549	26	C	04/26/2021	09:07	-133.320	47.502	0	1687.70	0	2.1870	0	34.5370	0	27.595	0	1666.874	0	30.4	4	9.2	4	-1E+10	1	-1E+10	1	-1E+10	1	-1E+10	1	-1E+10	1	-1E+10	1
4902549	26	C	04/26/2021	09:07	-133.320	47.502	0	1712.50	0	2.1620	0	34.5410	0	27.600	0	1691.269	0	32.2	4	9.7	4	-1E+10	1	-1E+10	1	-1E+10	1	-1E+10	1	-1E+10	1	-1E+10	1
4902549	26	C	04/26/2021	09:07	-133.320	47.502	0	1737.50	0	2.1280	0	34.5470	0	27.608	0	1715.858	0	34.1	4	10.3	4	-1E+10	1	-1E+10	1	-1E+10	1	-1E+10	1	-1E+10	1	-1E+10	1
4902549	26	C	04/26/2021	09:07	-133.320	47.502	0	1763.50	0	2.1070	0	34.5510	0	27.613	0	1741.428	0	35.7	4	10.8	4	-1E+10	1	-1E+10	1	-1E+10	1	-1E+10	1	-1E+10	1	-1E+10	1
4902549	26	C	04/26/2021	09:07	-133.320	47.502	0	1787.70	0	2.0880	0	34.5540	0	27.617	0	1765.224	0	37.0	4	11.2	4	-1E+10	1	-1E+10	1	-1E+10	1	-1E+10	1	-1E+10	1	-1E+10	1
4902549	26	C	04/26/2021	09:07	-133.320	47.502	0	1812.70	0	2.0720	0	34.5580	0	27.622	0	1789.805	0	38.2	4	11.5	4	-1E+10	1	-1E+10	1	-1E+10	1	-1E+10	1	-1E+10	1	-1E+10	1
4902549	26	C	04/26/2021	09:07	-133.320	47.502	0	1837.70	0	2.0540	0	34.5610	0	27.625	0	1814.382	0	39.6	4	12.0	4	-1E+10	1	-1E+10	1	-1E+10	1	-1E+10	1	-1E+10	1	-1E+10	1
4902549	26	C	04/26/2021	09:07	-133.320	47.502	0	1863.00	0	2.0350	0	34.5650	0	27.630	0	1839.252	0	41.2	4	12.4	4	-1E+10	1	-1E+10	1	-1E+10	1	-1E+10	1	-1E+10	1	-1E+10	1
4902549	26	C	04/26/2021	09:07	-133.320	47.502	0	1887.80	0	2.0180	0	34.5680	0	27.634	0	1863.627	0	42.7	4	12.9	4	-1E+10	1	-1E+10	1	-1E+10	1	-1E+10	1	-1E+10	1	-1E+10	1
4902549	26	C	04/26/2021	09:07	-133.320	47.502	0	1912.80	0	2.0010	0	34.5710	0	27.638	0	1888.196	0	44.0	4	13.3	4	-1E+10	1	-1E+10	1	-1E+10	1	-1E+10	1	-1E+10	1	-1E+10	1
4902549	26	C	04/26/2021	09:07	-133.320	47.502	0	1938.10	0	1.9880	0	34.5740	0	27.642	0	1913.057	0	45.1	4	13.6	4	-1E+10	1	-1E+10	1	-1E+10	1	-1E+10	1	-1E+10	1	-1E+10	1
4902549	26	C	04/26/2021	09:07	-133.320	47.502	0	1961.50	0	1.9740	0	34.5770	0	27.645	0	1936.048	0	45.5	4	13.7	4	-1E+10	1	-1E+10	1	-1E+10	1	-1E+10	1	-1E+10	1	-1E+10	1
4902549	26	C	04/26/2021	09:07	-133.320	47.502	0																										
4902549	27	C	05/06/2021	08:41	-133.279	47.405	0	0.30	0	9.6290	0	32.3640	0	24.955	0	0.297	0	278.7	4	98.8	4	-1E+10	1	-1E+10	1	-1E+10	1	-1E+10	1	-1E+10	1	-1E+10	1
4902549	27	C	05/06/2021	08:41	-133.279	47.405	0	1.00	0	9.6300	0	32.3640	0	24.955	0	0.992	0	278.7	4	98.8	4	-1E+10	1	-1E+10	1	-1E+10	1	-1E+10	1	-1E+10	1	-1E+10	1
4902549	27	C	05/06/2021	08:41	-133.279	47.405	0	2.00	0	9.6290	0	32.3650	0	24.956	0	1.983	0	278.6	4	98.8	4	-1E+10	1	-1E+10	1	-1E+10	1	-1E+10	1	-1E+10	1	-1E+10	1
4902549	27	C	05/06/2021	08:41	-133.279	47.405	0	3.10	0	9.6360	0	32.3610	0	24.952	0	3.074	0	278.7	4	98.8	4	-1E+10	1	-1E+10	1	-1E+10	1	-1E+10	1	-1E+10	1	-1E+10	1
4902549	27	C	05/06/2021	08:41	-133.279	47.405	0	4.10	0	9.6350	0	32.3620	0	24.953	0	4.066	0	278.7	4	98.8	4	-1E+10	1	-1E+10	1	-1E+10	1	-1E+10	1	-1E+10	1	-1E+10	1
4902549	27	C	05/06/2021	08:41	-133.279	47.405	0	4.90	0	9.6350	0	32.3620	0	24.953	0	4.859	0	278.6	4	98.8	4	-1E+10	1	-1E+10	1	-1E+10	1	-1E+10	1	-1E+10	1	-1E+10	1
4902549	27	C	05/06/2021	08:41	-133.279	47.405	0	5.80	0	9.6340	0	32.3620	0	24.953	0	5.752	0	278.6	4	98.8	4	-1E+10	1	-1E+10	1	-1E+10	1	-1E+10	1	-1E+10	1	-1E+10	1
4902549	27	C	05/06/2021	08:41	-133.279	47.405	0	6.80	0	9.6340	0	32.3620	0	24.953	0	6.743	0	278.6	4	98.8	4	-1E+10	1	-1E+10	1	-1E+10	1	-1E+10	1	-1E+10	1	-1E+10	1
4902549	27	C	05/06/2021	08:41	-133.279	47.405	0	7.80	0	9.6340	0	32.3620	0	24.953	0	7.735	0	278.6	4	98.8	4	-1E+10	1	-1E+10	1	-1E+10	1	-1E+10	1	-1E+10	1	-1E+10	1
4902549	27	C	05/06/2021	08:41	-133.279	47.405	0	8.80	0	9.6330	0	32.3620	0	24.953	0	8.726	0	278.6	4	98.7	4	-1E+10	1	-1E+10	1	-1E+10	1	-1E+10	1	-1E+10	1	-1E+10	1
4902549	27	C	05/06/2021	08:41	-133.279	47.405	0	10.00	0	9.6320	0	32.3630	0	24.954	0	9.916	0	278.5	4	98.7	4	-1E+10	1	-1E+10	1	-1E+10	1	-1E+10	1	-1E+10	1	-1E+10	1
4902549	27	C	05/06/2021	08:41	-133.279	47.405	0	15.40	0	9.6330	0	32.3620	0	24.953	0	15.271	0	278.5	4	98.7	4	-1E+10	1	-1E+10	1	-1E+10	1	-1E+10	1	-1E+10	1	-1E+10	1
4902549	27	C	05/06/2021	08:41	-133.279	47.405	0	25.40	0	9.6360	0	32.3620	0	24.953	0	25.187	0	278.4	4	98.7	4	-1E+10	1	-1E+10	1	-1E+10	1	-1E+10	1	-1E+10	1	-1E+10	1
4902549	27	C	05/06/2021	08:41	-133.279	47.405	0	35.30	0	9.6180	0	32.3620	0	24.956	0	35.003	0	278.2	4	98.6	4	-1E+10	1	-1E+10	1	-1E+10	1	-1E+10	1	-1E+10	1	-1E+10	1
4902549	27	C	05/06/2021	08:41	-133.279	47.405	0	45.10	0	8.8750	0	32.3740	0	25.083	0	44.719	0	279.6	4	97.5	4	-1E+10	1	-1E+10	1	-1E+10	1	-1E+10	1	-1E+10	1	-1E+10	1
4902549	27	C	05/06/2021	08:41	-133.279	47.405	0	55.70	0	8.2790	0	32.3730	0	25.172	0	55.228	0	279.7	4	96.2	4	-1E+10	1	-1E+10	1	-1E+10	1	-1E+10	1	-1E+10	1	-1E+10	1
4902549	27	C	05/06/2021	08:41	-133.279	47.405	0	65.80	0	8.1750	0	32.3710	0	25.185	0	65.241	0	278.7	4	95.7	4	-1E+10	1	-1E+10	1	-1E+10	1	-1E+10	1	-1E+10	1	-1E+10	1
4902549	27	C	05/06/2021	08:41	-133.279	47.405	0	75.50	0	8.0560	0	32.3710	0	25.203	0	74.857	0	276.5	4	94.7	4	-1E+10	1	-1E+10	1	-1E+10	1	-1E+10	1	-1E+10	1	-1E+10	1
4902549	27	C	05/06/2021	08:41	-133.279	47.405	0	85.90	0	7.9770	0	32.3770	0	25.219	0	85.166	0	273.9	4	93.6	4	-1E+10	1	-1E+10	1	-1E+10	1	-1E+10	1	-1E+10	1	-1E+10	1
4902549	27	C	05/06/2021	08:41	-133.279	47.405	0	95.30	0	7.8860	0	32.3800	0	25.235	0	94.484	0	271.9	4	92.8	4	-1E+10	1	-1E+10	1	-1E+10	1	-1E+10	1	-1E+10	1	-1E+10	1
4902549	27	C	05/06/2021	08:41	-133.279	47.405	0	105.70	0	7.7050	0	32.4020	0	25.278	0	104.792	0	260.8	4	88.6	4	-1E+10	1	-1E+10	1	-1E+10	1	-1E+10	1	-1E+10	1	-1E+10	1
4902549	27	C	05/06/2021	08:41	-133.279	47.405	0	115.30	0	7.7180	0	32.5730	0	25.410	0	114.307	0	243.6	4	82.9	4	-1E+10	1	-1E+10	1	-1E+10	1	-1E+10	1	-1E+10	1	-1E+10	1
4902549	27	C	05/06/2021	08:41	-133.279	47.405	0	125.70	0	7.6430	0	32.7410	0	25.553	0	124.614	0	226.6	4	77.1	4	-1E+10	1	-1E+10	1	-1E+10	1	-1E+10	1	-1E+10	1	-1E+10	1
4902549	27	C	05/06/2021	08:41	-133.279	47.405	0	135.20	0	7.4730	0	33.0890	0	25.851	0	134.029	0	204.5	4	69.5	4	-1E+10	1	-1E+10	1	-1E+10	1	-1E+10	1	-1E+10	1	-1E+10	1
4902549	27	C	05/06/2021	08:41	-133.279	47.405	0	145.30	0	7.2170	0	33.4060	0	26.136	0	144.038	0	192.0	4	65.0	4	-1E+10	1	-1E+10	1	-1E+10	1	-1E+10	1	-1E+10	1	-1E+10	1
4902549	27	C	05/06/2021	08:41	-133.279	47.405	0	155.40	0	6.7650	0	33.5160	0	26.284	0	154.046	0	184.9	4	62.0	4	-1E+10	1	-1E+10	1	-1E+10	1	-1E+10	1	-1E+10	1	-1E+10	1
4902549	27	C	05/06/2021	08:41	-133.279	47.405	0	165.10	0	6.6080	0	33.5870	0	26.360	0	163.658	0	178.4	4	59.6	4	-1E+10	1	-1E+10	1	-1E+10	1	-1E+10	1	-1E+10	1	-1E+10	1
4902549	27	C	05/06/2021	08:41	-133.279	47.405	0	175.10	0	6.4290	0	33.6430	0	26.428	0	173.567	0	171.9	4	57.2	4	-1E+10	1	-1E+10	1	-1E+10	1	-1E+10	1	-1E+10	1	-1E+10	1
4902549	27	C	05/06/2021	08:41	-133.279	47.405	0	185.40	0	6.3320	0	33.6820	0	26.471	0	183.772	0	164.7	4	54.7	4	-1E+10	1	-1E+10	1	-1E+10	1	-1E+10	1	-1E+10	1	-1E+10	1
4902549	27	C	05/06/2021	08:41	-133.279	47.405	0	195.70	0	6.1880	0	33.7140	0	26.515	0	193.976	0	156.7	4	51.9	4	-1E+10	1	-1E+10	1	-1E+10	1	-1E+10	1	-1E+10	1	-1E+10	1
4902549	27	C	05/06/2021	08:41	-133.279	47.405	0	213.20	0	5.9610	0	33.7590	0	26.579	0	211.313	0	144.5	4	47.7	4	-1E+10	1	-1E+10	1	-1E+10	1	-1E+10	1	-1E+10	1	-1E+10	1
4902549	27	C	05/06/2021	08:41	-133.279	47.405	0	237.80	0	5.7090	0	33.7880	0	26.633	0	235.682	0	131.5	4	43.1	4	-1E+10	1	-1E+10	1	-1E+10	1	-1E+10	1	-1E+10	1	-1E+10	1
4902549	27	C	05/06/2021	08:41	-133.279	47.405	0	262.90	0	5.4620	0	33.8100	0	26.681	0	260.542	0	118.8	4	38.7	4	-1E+10	1	-1E+10	1	-1E+10	1	-1E+10	1	-1E+10	1	-1E+10	1
4902549	27	C	05/06/2021	08:41	-133.279	47.405	0	288.00	0	5.2230	0	33.8290	0	26.724	0	285.400	0	107.3	4	34.8	4	-1E+10	1	-1E+10	1	-1E+10	1	-1E+10	1	-1E+10	1	-1E+10	1
4902549	27	C	05/06/2021	08:41	-133.279	47.405	0	313.10	0	5.0560	0	33.8430	0	26.755	0	310.255	0	97.5	4	31.5	4	-1E+10	1	-1E+10	1	-1E+10	1	-1E+10	1	-1E+10	1	-1E+10	1
4902549	27	C	05/06/2021	08:41	-133.279	47.405	0	338.20	0	4.9420	0	33.8700	0	26.789	0	335.106	0	84.2	4	27.1	4	-1E+10	1	-1E+10	1	-1E+10	1	-1E+10	1	-1E+10	1	-1E+10	1
4902549	27	C	05/06/2021	08:41	-133.279	47.405	0	362.90	0	4.8330	0	33.8980	0	26.824	0	359.559	0	74.1	4	23.8	4	-1E+10	1	-1E+10	1	-1E+10	1	-1E+10	1	-1E+10	1	-1E+10	1
4902549	27	C	05/06/2021	08:41	-133.279	47.405	0	388.00	0	4.7460	0	33.9180	0	26.849	0	384.404	0	67.5	4	21.7	4	-1E+10	1	-1E+10	1	-1E+10	1	-1E+10	1	-1E+10	1	-1E+10	1
4902549	27	C	05/06/2021	08:41	-133.279	47.405	0	412.90	0	4.6150	0	33.9340	0	26.877	0	409.049	0	62.2	4	19.9	4	-1E+10	1	-1E+10	1	-1E+10	1	-1E+10	1	-1E+10	1	-1E+10	1
4902549	27	C	05/06/2021	08:41	-133.279	47.405	0	438.90	0	4.5220	0	33.9580	0	26.906	0	434.779	0	55.8	4	17.8	4	-1E+10	1	-1E+10	1	-1E+10	1	-1E+10	1	-1E+10	1	-1E+10	1
4902549	27	C	05/06/2021	08:41	-133.279	47.405	0	463.00	0	4.4430	0	33.9850	0	26.936	0	458.626	0	48.7	4	15.5	4	-1E+10	1	-1E+10	1	-1E+10	1	-1E+10	1	-1E+10	1	-1E+10	1
4902549	27	C	05/06/2021	08:41	-133.279	47.405	0	487.70	0	4.3680	0	34.0130	0	26.966	0	483.064	0	42.6	4	13.5	4	-1E+10	1	-1E+10	1	-1E+10	1	-1E+10	1	-1E+10	1	-1E+10	1
4902549	27	C	05/06/2021	08:41	-133.279	47.405	0	512.50	0	4.2870	0	34.0380	0	26.995	0	507.598	0	37.3	4	11.8	4	-1E+10	1	-1E+10	1	-1E+10	1	-1E+10	1	-1E+10	1	-1E+10	1
4902549	27	C	05/06/2021	08:41	-133.279	47.405	0	537.90	0	4.2060	0	34.0620	0	27.023	0	532.723	0	33.1	4	10.5	4	-1E+10	1	-1E+10	1	-1E+10	1	-1E+10	1	-1E+10	1	-1E+10	1
4902549	27	C	05/06/2021	08:41	-133.279	47.405	0	563.00	0	4.1600	0	34.0770	0	27.040	0	557.548	0	30.4	4	9.6	4	-1E+10	1	-1E+10	1	-1E+10	1	-1E+10	1	-1E+10	1	-1E+10	1
4902549	27	C	05/06/2021	08:41	-133.279	47.405	0	587.80	0	4.1050	0	34.0930	0	27.058	0	582.073	0	27.9	4	8.8	4	-1E+10	1	-1E+10	1	-1E+10	1	-1E+10	1	-1E+10	1	-1E+10	1
4902549	27	C	05/06/2021	08:41	-133.279	47.405	0	612.90	0	4.0570	0	34.1100	0	27.077	0	606.892	0	23.9	4	7.5	4	-1E+10	1	-1E+10	1	-1E+10	1	-1E+10	1	-1E+10	1	-1E+10	1
4902549	27	C	05/06/2021	08:41	-133.279	47.405	0	638.00	0	4.0120	0	34.1390	0	27.105	0	631.708	0	18.6	4	5.9	4	-1E+10	1	-1E+10	1	-1E+10	1	-1E+10	1	-1E+10	1	-1E+10	1
4902549	27	C	05/06/2021	08:41	-133.279	47.405	0	663.20	0	3.9670	0	34.1680	0	27.133	0	656.620	0	14.8	4	4.7	4	-1E+10	1	-1E+10	1	-1E+10	1	-1E+10	1	-1E+10	1	-1E+10	1
4902549	27	C	05/06/2021	08:41	-133.279	47.405	0	687.90	0	3.8520	0	34.1950	0	27.166	0	681.034	0	13.5	4	4.2	4	-1E+10	1	-1E+10	1	-1E+10	1	-1E+10	1	-1E+10	1	-1E+10	1
4902549	27	C	05/06/2021	08:41	-133.279	47.405	0	712.80	0	3.7350	0	34.2120	0	27.191	0	705.643	0	12.8	4	4.0	4	-1E+10	1	-1E+10	1	-1E+10	1	-1E+10	1	-1E+10	1	-1E+10	1
4902549	27	C	05/06/2021	08:41	-133.279	47.405	0	738.30	0	3.6780	0	34.2270	0	27.209	0	730.843	0	11.8	4	3.7	4	-1E+10	1	-1E+10	1	-1E+10	1	-1E+10	1	-1E+10	1	-1E+10	1
4902549	27	C	05/06/2021	08:41	-133.279	47.405	0	762.40	0	3.6440	0	34.2400	0	27.223	0	754.656	0	10.7	4	3.3	4	-1E+10	1	-1E+10	1	-1E+10	1	-1E+10	1	-1E+10	1	-1E+10	1
4902549	27	C	05/06/2021	08:41	-133.279	47.405	0	787.40	0	3.6040	0	34.2570	0	27.240	0	779.355	0	9.6	4	3.0	4	-1E+10	1	-1E+10	1	-1E+10	1	-1E+10	1	-1E+10	1	-1E+10	1
4902549	27	C	05/06/2021	08:41	-133.279	47.405	0	812.60	0	3.5540	0	34.2730	0	27.258	0	804.249	0	8.8	4	2.8	4	-1E+10	1	-1E+10	1	-1E+10	1	-1E+10	1	-1E+10	1	-1E+10	1
4902549	27	C	05/06/2021	08:41	-133.279	47.405	0	837.80	0	3.5210	0	34.2830	0	27.270	0	829.140	0	8.5	4	2.7	4	-1E+10	1	-1E+10	1	-1E+10	1	-1E+10	1	-1E+10	1	-1E+10	1
4902549	27	C	05/06/2021	08:41	-133.279	47.405	0	862.90	0	3.4700	0	34.2920	0	27.282	0	853.930	0	8.4	4	2.6	4	-1E+10	1	-1E+10	1	-1E+10	1	-1E+10	1	-1E+10	1	-1E+10	1
4902549	27	C	05/06/2021	08:41	-133.279	47.405	0	887.80	0	3.3820	0	34.3020	0	27.298	0	878.518	0	8.5	4	2.6	4	-1E+10	1	-1E+10	1	-1E+10	1	-1E+10	1	-1E+10	1	-1E+10	1
4902549	27	C	05/06/2021	08:41	-133.279	47.405	0	912.90	0	3.3210	0	34.3140	0	27.314	0	903.302	0	8.2	4	2.6	4	-1E+10	1	-1E+10	1	-1E+10	1	-1E+10	1	-1E+10	1	-1E+10	1
4902549	27	C	05/06/2021	08:41	-133.279	47.405	0	937.70	0	3.2770	0	34.3230	0	27.325	0	927.786	0	8.1	4	2.5	4	-1E+10	1	-1E+10	1	-1E+10	1	-1E+10	1	-1E+10	1	-1E+10	1
4902549	27	C	05/06/2021	08:41	-133.279	47.405	0	962.60	0	3.2390	0	34.3300	0	27.334	0	952.366	0	8.1	4	2.5	4	-1E+10	1	-1E+10	1	-1E+10	1	-1E+10	1	-1E+10	1	-1E+10	1
4902549	27	C	05/06/2021	08:41	-133.279	47.405	0	988.80	0	3.1860	0	34.3410	0	27.348	0	978.227	0	8.0	4	2.5	4	-1E+10	1	-1E+10	1	-1E+10	1	-1E+10	1	-1E+10	1	-1E+10	1
4902549	27	C	05/06/2021	08:41	-133.279	47.405	0	1012.80	0	3.1450	0	34.3500	0	27.359	0	1001.913	0	7.9	4	2.4	4	-1E+10	1	-1E+10	1	-1E+10	1	-1E+10	1	-1E+10	1	-1E+10	1
4902549	27	C	05/06/2021	08:41	-133.279	47.405	0	1037.70	0	3.0990	0	34.3600	0	27.372	0	1026.484	0	7.8	4	2.4	4	-1E+10	1	-1E+10	1	-1E+10	1	-1E+10	1	-1E+10	1	-1E+10	1
4902549	27	C	05/06/2021	08:41	-133.279	47.405	0	1062.90	0	3.0560	0	34.3700	0	27.384	0	1051.349	0	7.8	4	2.4	4	-1E+10	1	-1E+10	1	-1E+10	1	-1E+10	1	-1E+10	1	-1E+10	1
4902549	27	C	05/06/2021	08:41	-133.279	47.405	0	1087.90	0	3.0150	0	34.3810	0	27.396	0	1076.013	0	7.8	4	2.4	4	-1E+10	1	-1E+10	1	-1E+10	1	-1E+10	1	-1E+10	1	-1E+10	1
4902549	27	C	05/06/2021	08:41	-133.279	47.405	0	1112.90	0	2.9930	0	34.3870	0	27.403	0	1100.674	0	7.8	4	2.4	4	-1E+10	1	-1E+10	1	-1E+10	1	-1E+10	1	-1E+10	1	-1E+10	1
4902549	27	C	05/06/2021	08:41	-133.279	47.405	0	1137.80	0	2.9690	0	34.3940	0	27.411	0	1125.234	0	7.9	4	2.4	4	-1E+10	1	-1E+10	1	-1E+10	1	-1E+10	1	-1E+10	1	-1E+10	1
4902549	27	C	05/06/2021	08:41	-133.279	47.405	0	1162.70	0	2.9240	0	34.4040	0	27.423	0	1149.791	0	8.1	4	2.5	4	-1E+10	1	-1E+10	1	-1E+10	1	-1E+10	1	-1E+10	1	-1E+10	1
4902549	27	C	05/06/2021	08:41	-133.279	47.405	0	1188.00	0	2.8750	0	34.4120	0	27.434	0	1174.739	0	8.5	4	2.6	4	-1E+10	1	-1E+10	1	-1E+10	1	-1E+10	1	-1E+10	1	-1E+10	1
4902549	27	C	05/06/2021	08:41	-133.279	47.405	0	1213.40	0	2.8300	0	34.4210	0	27.446	0	1199.783	0	8.8	4	2.7	4	-1E+10	1	-1E+10	1	-1E+10	1	-1E+10	1	-1E+10	1	-1E+10	1
4902549	27	C	05/06/2021	08:41	-133.279	47.405	0	1237.90	0	2.7930	0	34.4290	0	27.455	0	1223.937	0	9.1	4	2.8	4	-1E+10	1	-1E+10	1	-1E+10	1	-1E+10	1	-1E+10	1	-1E+10	1
4902549	27	C	05/06/2021	08:41	-133.279	47.405	0	1262.90	0	2.7420	0	34.4400	0	27.469	0	1248.581	0	9.8	4	3.0	4	-1E+10	1	-1E+10	1	-1E+10	1	-1E+10	1	-1E+10	1	-1E+10	1
4902549	27	C	05/06/2021	08:41	-133.279	47.405	0	1288.00	0	2.6930	0	34.4480	0	27.479	0	1273.321	0	10.3	4	3.2	4	-1E+10	1	-1E+10	1	-1E+10	1	-1E+10	1	-1E+10	1	-1E+10	1
4902549	27	C	05/06/2021	08:41	-133.279	47.405	0	1313.00	0	2.6660	0	34.4530	0	27.486	0	1297.959	0	10.7	4	3.3	4	-1E+10	1	-1E+10	1	-1E+10	1	-1E+10	1	-1E+10	1	-1E+10	1
4902549	27	C	05/06/2021	08:41	-133.279	47.405	0	1337.70	0	2.6340	0	34.4580	0	27.493	0	1322.298	0	11.4	4	3.5	4	-1E+10	1	-1E+10	1	-1E+10	1	-1E+10	1	-1E+10	1	-1E+10	1
4902549	27	C	05/06/2021	08:41	-133.279	47.405	0	1363.30	0	2.6040	0	34.4630	0	27.500	0	1347.522	0	12.2	4	3.7	4	-1E+10	1	-1E+10	1	-1E+10	1	-1E+10	1	-1E+10	1	-1E+10	1
4902549	27	C	05/06/2021	08:41	-133.279	47.405	0	1388.00	0	2.5710	0	34.4690	0	27.507	0	1371.856	0	13.1	4	4.0	4	-1E+10	1	-1E+10	1	-1E+10	1	-1E+10	1	-1E+10	1	-1E+10	1
4902549	27	C	05/06/2021	08:41	-133.279	47.405	0	1412.80	0	2.5310	0	34.4760	0	27.516	0	1396.285	0	14.4	4	4.4	4	-1E+10	1	-1E+10	1	-1E+10	1	-1E+10	1	-1E+10	1	-1E+10	1
4902549	27	C	05/06/2021	08:41	-133.279	47.405	0	1437.30	0	2.4850	0	34.4830	0	27.526	0	1420.416	0	15.8	4	4.8	4	-1E+10	1	-1E+10	1	-1E+10	1	-1E+10	1	-1E+10	1	-1E+10	1
4902549	27	C	05/06/2021	08:41	-133.279	47.405	0	1462.50	0	2.4440	0	34.4900	0	27.535	0	1445.234	0	17.0	4	5.2	4	-1E+10	1	-1E+10	1	-1E+10	1	-1E+10	1	-1E+10	1	-1E+10	1
4902549	27	C	05/06/2021	08:41	-133.279	47.405	0	1487.70	0	2.4180	0	34.4950	0	27.541	0	1470.049	0	17.7	4	5.4	4	-1E+10	1	-1E+10	1	-1E+10	1	-1E+10	1	-1E+10	1	-1E+10	1
4902549	27	C	05/06/2021	08:41	-133.279	47.405	0	1512.90	0	2.3970	0	34.4970	0	27.545	0	1494.861	0	17.8	4	5.4	4	-1E+10	1	-1E+10	1	-1E+10	1	-1E+10	1	-1E+10	1	-1E+10	1
4902549	27	C	05/06/2021	08:41	-133.279	47.405	0	1537.70	0	2.3720	0	34.5020	0	27.551	0	1519.276	0	19.0	4	5.8	4	-1E+10	1	-1E+10	1	-1E+10	1	-1E+10	1	-1E+10	1	-1E+10	1
4902549	27	C	05/06/2021	08:41	-133.279	47.405	0	1563.60	0	2.3500	0	34.5060	0	27.556	0	1544.771	0	20.4	4	6.2	4	-1E+10	1	-1E+10	1	-1E+10	1	-1E+10	1	-1E+10	1	-1E+10	1
4902549	27	C	05/06/2021	08:41	-133.279	47.405	0	1587.80	0	2.3300	0	34.5100	0	27.561	0	1568.590	0	21.7	4	6.6	4	-1E+10	1	-1E+10	1	-1E+10	1	-1E+10	1	-1E+10	1	-1E+10	1
4902549	27	C	05/06/2021	08:41	-133.279	47.405	0	1612.60	0	2.2980	0	34.5160	0	27.569	0	1592.997	0	24.0	4	7.3	4	-1E+10	1	-1E+10	1	-1E+10	1	-1E+10	1	-1E+10	1	-1E+10	1
4902549	27	C	05/06/2021	08:41	-133.279	47.405	0	1637.90	0	2.2640	0	34.5210	0	27.576	0	1617.893	0	25.7	4	7.8	4	-1E+10	1	-1E+10	1	-1E+10	1	-1E+10	1	-1E+10	1	-1E+10	1
4902549	27	C	05/06/2021	08:41	-133.279	47.405	0	1663.10	0	2.2420	0	34.5250	0	27.581	0	1642.687	0	26.8	4	8.1	4	-1E+10	1	-1E+10	1	-1E+10	1	-1E+10	1	-1E+10	1	-1E+10	1
4902549	27	C	05/06/2021	08:41	-133.279	47.405	0	1687.60	0	2.2180	0	34.5300	0	27.587	0	1666.790	0	28.3	4	8.6	4	-1E+10	1	-1E+10	1	-1E+10	1	-1E+10	1	-1E+10	1	-1E+10	1
4902549	27	C	05/06/2021	08:41	-133.279	47.405	0	1712.50	0	2.1920	0	34.5340	0	27.592	0	1691.284	0	29.8	4	9.0	4	-1E+10	1	-1E+10	1	-1E+10	1	-1E+10	1	-1E+10	1	-1E+10	1
4902549	27	C	05/06/2021	08:41	-133.279	47.405	0	1737.80	0	2.1700	0	34.5380	0	27.597	0	1716.168	0	31.4	4	9.5	4	-1E+10	1	-1E+10	1	-1E+10	1	-1E+10	1	-1E+10	1	-1E+10	1
4902549	27	C	05/06/2021	08:41	-133.279	47.405	0	1762.90	0	2.1460	0	34.5430	0	27.603	0	1740.853	0	32.9	4	9.9	4	-1E+10	1	-1E+10	1	-1E+10	1	-1E+10	1	-1E+10	1	-1E+10	1
4902549	27	C	05/06/2021	08:41	-133.279	47.405	0	1787.90	0	2.1210	0	34.5480	0	27.610	0	1765.437	0	34.5	4	10.4	4	-1E+10	1	-1E+10	1	-1E+10	1	-1E+10	1	-1E+10	1	-1E+10	1
4902549	27	C	05/06/2021	08:41	-133.279	47.405	0	1812.70	0	2.1040	0	34.5510	0	27.613	0	1789.820	0	36.0	4	10.9	4	-1E+10	1	-1E+10	1	-1E+10	1	-1E+10	1	-1E+10	1	-1E+10	1
4902549	27	C	05/06/2021	08:41	-133.279	47.405	0	1837.50	0	2.0770	0	34.5560	0	27.620	0	1814.202	0	38.0	4	11.5	4	-1E+10	1	-1E+10	1	-1E+10	1	-1E+10	1	-1E+10	1	-1E+10	1
4902549	27	C	05/06/2021	08:41	-133.279	47.405	0	1862.50	0	2.0580	0	34.5590	0	27.624	0	1838.777	0	39.2	4	11.8	4	-1E+10	1	-1E+10	1	-1E+10	1	-1E+10	1	-1E+10	1	-1E+10	1
4902549	27	C	05/06/2021	08:41	-133.279	47.405	0	1887.80	0	2.0420	0	34.5630	0	27.628	0	1863.644	0	40.8	4	12.3	4	-1E+10	1	-1E+10	1	-1E+10	1	-1E+10	1	-1E+10	1	-1E+10	1
4902549	27	C	05/06/2021	08:41	-133.279	47.405	0	1913.00	0	2.0150	0	34.5680	0	27.635	0	1888.409	0	42.9	4	12.9	4	-1E+10	1	-1E+10	1	-1E+10	1	-1E+10	1	-1E+10	1	-1E+10	1
4902549	27	C	05/06/2021	08:41	-133.279	47.405	0	1937.60	0	1.9960	0	34.5720	0	27.639	0	1912.583	0	44.3	4	13.4	4	-1E+10	1	-1E+10	1	-1E+10	1	-1E+10	1	-1E+10	1	-1E+10	1
4902549	27	C	05/06/2021	08:41	-133.279	47.405	0	1961.20	0	1.9810	0	34.5750	0	27.643	0	1935.771	0	44.7	4	13.5	4	-1E+10	1	-1E+10	1	-1E+10	1	-1E+10	1	-1E+10	1	-1E+10	1
4902549	27	C	05/06/2021	08:41	-133.279	47.405	0																										
4902549	28	C	05/16/2021	08:59	-133.217	47.340	0	0.40	0	11.4430	0	32.3710	0	24.650	0	0.397	0	277.9	4	102.4	4	-1E+10	1	-1E+10	1	-1E+10	1	-1E+10	1	-1E+10	1	-1E+10	1
4902549	28	C	05/16/2021	08:59	-133.217	47.340	0	0.80	0	11.4440	0	32.3680	0	24.648	0	0.793	0	277.9	4	102.4	4	-1E+10	1	-1E+10	1	-1E+10	1	-1E+10	1	-1E+10	1	-1E+10	1
4902549	28	C	05/16/2021	08:59	-133.217	47.340	0	1.90	0	11.4460	0	32.3620	0	24.643	0	1.884	0	278.0	4	102.5	4	-1E+10	1	-1E+10	1	-1E+10	1	-1E+10	1	-1E+10	1	-1E+10	1
4902549	28	C	05/16/2021	08:59	-133.217	47.340	0	3.10	0	11.4470	0	32.3650	0	24.645	0	3.074	0	277.9	4	102.4	4	-1E+10	1	-1E+10	1	-1E+10	1	-1E+10	1	-1E+10	1	-1E+10	1
4902549	28	C	05/16/2021	08:59	-133.217	47.340	0	4.10	0	11.4380	0	32.3730	0	24.653	0	4.066	0	278.0	4	102.5	4	-1E+10	1	-1E+10	1	-1E+10	1	-1E+10	1	-1E+10	1	-1E+10	1
4902549	28	C	05/16/2021	08:59	-133.217	47.340	0	5.20	0	11.4390	0	32.3730	0	24.653	0	5.157	0	278.1	4	102.5	4	-1E+10	1	-1E+10	1	-1E+10	1	-1E+10	1	-1E+10	1	-1E+10	1
4902549	28	C	05/16/2021	08:59	-133.217	47.340	0	5.90	0	11.4450	0	32.3730	0	24.652	0	5.851	0	278.2	4	102.5	4	-1E+10	1	-1E+10	1	-1E+10	1	-1E+10	1	-1E+10	1	-1E+10	1
4902549	28	C	05/16/2021	08:59	-133.217	47.340	0	7.10	0	11.4430	0	32.3730	0	24.652	0	7.041	0	278.5	4	102.6	4	-1E+10	1	-1E+10	1	-1E+10	1	-1E+10	1	-1E+10	1	-1E+10	1
4902549	28	C	05/16/2021	08:59	-133.217	47.340	0	7.90	0	11.4280	0	32.3730	0	24.655	0	7.834	0	278.5	4	102.6	4	-1E+10	1	-1E+10	1	-1E+10	1	-1E+10	1	-1E+10	1	-1E+10	1
4902549	28	C	05/16/2021	08:59	-133.217	47.340	0	9.00	0	11.4220	0	32.3730	0	24.656	0	8.925	0	278.9	4	102.8	4	-1E+10	1	-1E+10	1	-1E+10	1	-1E+10	1	-1E+10	1	-1E+10	1
4902549	28	C	05/16/2021	08:59	-133.217	47.340	0	10.00	0	11.4180	0	32.3700	0	24.654	0	9.916	0	279.3	4	102.9	4	-1E+10	1	-1E+10	1	-1E+10	1	-1E+10	1	-1E+10	1	-1E+10	1
4902549	28	C	05/16/2021	08:59	-133.217	47.340	0	15.70	0	11.0420	0	32.3630	0	24.716	0	15.569	0	282.8	4	103.3	4	-1E+10	1	-1E+10	1	-1E+10	1	-1E+10	1	-1E+10	1	-1E+10	1
4902549	28	C	05/16/2021	08:59	-133.217	47.340	0	25.20	0	10.4000	0	32.3670	0	24.830	0	24.989	0	284.0	4	102.4	4	-1E+10	1	-1E+10	1	-1E+10	1	-1E+10	1	-1E+10	1	-1E+10	1
4902549	28	C	05/16/2021	08:59	-133.217	47.340	0	35.40	0	10.0760	0	32.3710	0	24.888	0	35.102	0	277.7	4	99.4	4	-1E+10	1	-1E+10	1	-1E+10	1	-1E+10	1	-1E+10	1	-1E+10	1
4902549	28	C	05/16/2021	08:59	-133.217	47.340	0	45.30	0	9.7370	0	32.3800	0	24.951	0	44.918	0	272.9	4	97.0	4	-1E+10	1	-1E+10	1	-1E+10	1	-1E+10	1	-1E+10	1	-1E+10	1
4902549	28	C	05/16/2021	08:59	-133.217	47.340	0	55.20	0	9.3340	0	32.3940	0	25.027	0	54.733	0	271.6	4	95.7	4	-1E+10	1	-1E+10	1	-1E+10	1	-1E+10	1	-1E+10	1	-1E+10	1
4902549	28	C	05/16/2021	08:59	-133.217	47.340	0	65.40	0	9.0290	0	32.3940	0	25.075	0	64.845	0	273.6	4	95.7	4	-1E+10	1	-1E+10	1	-1E+10	1	-1E+10	1	-1E+10	1	-1E+10	1
4902549	28	C	05/16/2021	08:59	-133.217	47.340	0	75.30	0	8.8550	0	32.3960	0	25.103	0	74.659	0	273.3	4	95.3	4	-1E+10	1	-1E+10	1	-1E+10	1	-1E+10	1	-1E+10	1	-1E+10	1
4902549	28	C	05/16/2021	08:59	-133.217	47.340	0	85.60	0	8.6600	0	32.3980	0	25.135	0	84.869	0	273.3	4	94.8	4	-1E+10	1	-1E+10	1	-1E+10	1	-1E+10	1	-1E+10	1	-1E+10	1
4902549	28	C	05/16/2021	08:59	-133.217	47.340	0	95.60	0	8.5050	0	32.4120	0	25.169	0	94.782	0	273.1	4	94.5	4	-1E+10	1	-1E+10	1	-1E+10	1	-1E+10	1	-1E+10	1	-1E+10	1
4902549	28	C	05/16/2021	08:59	-133.217	47.340	0	105.20	0	8.3270	0	32.4120	0	25.196	0	104.297	0	272.1	4	93.7	4	-1E+10	1	-1E+10	1	-1E+10	1	-1E+10	1	-1E+10	1	-1E+10	1
4902549	28	C	05/16/2021	08:59	-133.217	47.340	0	115.80	0	8.2140	0	32.4250	0	25.223	0	114.803	0	263.8	4	90.7	4	-1E+10	1	-1E+10	1	-1E+10	1	-1E+10	1	-1E+10	1	-1E+10	1
4902549	28	C	05/16/2021	08:59	-133.217	47.340	0	125.30	0	8.0980	0	32.4700	0	25.275	0	124.218	0	249.2	4	85.4	4	-1E+10	1	-1E+10	1	-1E+10	1	-1E+10	1	-1E+10	1	-1E+10	1
4902549	28	C	05/16/2021	08:59	-133.217	47.340	0	135.30	0	8.0700	0	32.7210	0	25.476	0	134.129	0	224.4	4	77.1	4	-1E+10	1	-1E+10	1	-1E+10	1	-1E+10	1	-1E+10	1	-1E+10	1
4902549	28	C	05/16/2021	08:59	-133.217	47.340	0	145.20	0	7.9830	0	33.0860	0	25.776	0	143.940	0	203.8	4	70.0	4	-1E+10	1	-1E+10	1	-1E+10	1	-1E+10	1	-1E+10	1	-1E+10	1
4902549	28	C	05/16/2021	08:59	-133.217	47.340	0	155.20	0	7.5910	0	33.3340	0	26.027	0	153.849	0	195.6	4	66.7	4	-1E+10	1	-1E+10	1	-1E+10	1	-1E+10	1	-1E+10	1	-1E+10	1
4902549	28	C	05/16/2021	08:59	-133.217	47.340	0	165.70	0	7.3030	8	33.5020	8	26.200	0	164.254	0	191.8	4	65.1	4	-1E+10	1	-1E+10	1	-1E+10	1	-1E+10	1	-1E+10	1	-1E+10	1
4902549	28	C	05/16/2021	08:59	-133.217	47.340	0	175.50	0	7.3810	0	33.6440	0	26.301	0	173.964	0	187.1	4	63.7	4	-1E+10	1	-1E+10	1	-1E+10	1	-1E+10	1	-1E+10	1	-1E+10	1
4902549	28	C	05/16/2021	08:59	-133.217	47.340	0	185.50	0	7.2650	0	33.7190	0	26.376	0	183.872	0	180.8	4	61.4	4	-1E+10	1	-1E+10	1	-1E+10	1	-1E+10	1	-1E+10	1	-1E+10	1
4902549	28	C	05/16/2021	08:59	-133.217	47.340	0	195.40	0	7.1470	0	33.7590	0	26.424	0	193.680	0	174.4	4	59.1	4	-1E+10	1	-1E+10	1	-1E+10	1	-1E+10	1	-1E+10	1	-1E+10	1
4902549	28	C	05/16/2021	08:59	-133.217	47.340	0	212.80	0	6.9510	0	33.7970	0	26.481	0	210.918	0	166.2	4	56.1	4	-1E+10	1	-1E+10	1	-1E+10	1	-1E+10	1	-1E+10	1	-1E+10	1
4902549	28	C	05/16/2021	08:59	-133.217	47.340	0	238.10	0	6.4200	0	33.7890	0	26.545	0	235.980	0	151.9	4	50.6	4	-1E+10	1	-1E+10	1	-1E+10	1	-1E+10	1	-1E+10	1	-1E+10	1
4902549	28	C	05/16/2021	08:59	-133.217	47.340	0	264.00	0	5.7740	0	33.7840	0	26.623	0	261.633	0	133.2	4	43.7	4	-1E+10	1	-1E+10	1	-1E+10	1	-1E+10	1	-1E+10	1	-1E+10	1
4902549	28	C	05/16/2021	08:59	-133.217	47.340	0	287.40	0	5.4960	0	33.8130	0	26.679	0	284.807	0	118.1	4	38.5	4	-1E+10	1	-1E+10	1	-1E+10	1	-1E+10	1	-1E+10	1	-1E+10	1
4902549	28	C	05/16/2021	08:59	-133.217	47.340	0	312.10	0	5.2610	0	33.8310	0	26.721	0	309.266	0	106.3	4	34.5	4	-1E+10	1	-1E+10	1	-1E+10	1	-1E+10	1	-1E+10	1	-1E+10	1
4902549	28	C	05/16/2021	08:59	-133.217	47.340	0	337.80	0	5.1120	0	33.8450	0	26.750	0	334.712	0	97.5	4	31.5	4	-1E+10	1	-1E+10	1	-1E+10	1	-1E+10	1	-1E+10	1	-1E+10	1
4902549	28	C	05/16/2021	08:59	-133.217	47.340	0	363.30	0	4.9530	0	33.8570	0	26.778	0	359.957	0	88.8	4	28.6	4	-1E+10	1	-1E+10	1	-1E+10	1	-1E+10	1	-1E+10	1	-1E+10	1
4902549	28	C	05/16/2021	08:59	-133.217	47.340	0	388.40	0	4.8010	0	33.8710	0	26.806	0	384.803	0	80.1	4	25.7	4	-1E+10	1	-1E+10	1	-1E+10	1	-1E+10	1	-1E+10	1	-1E+10	1
4902549	28	C	05/16/2021	08:59	-133.217	47.340	0	413.20	0	4.7340	0	33.9060	0	26.841	0	409.348	0	69.8	4	22.4	4	-1E+10	1	-1E+10	1	-1E+10	1	-1E+10	1	-1E+10	1	-1E+10	1
4902549	28	C	05/16/2021	08:59	-133.217	47.340	0	438.00	0	4.6090	0	33.9280	0	26.873	0	433.891	0	63.0	4	20.1	4	-1E+10	1	-1E+10	1	-1E+10	1	-1E+10	1	-1E+10	1	-1E+10	1
4902549	28	C	05/16/2021	08:59	-133.217	47.340	0	462.70	0	4.5290	0	33.9580	0	26.905	0	458.332	0	55.2	4	17.6	4	-1E+10	1	-1E+10	1	-1E+10	1	-1E+10	1	-1E+10	1	-1E+10	1
4902549	28	C	05/16/2021	08:59	-133.217	47.340	0	487.70	0	4.4250	0	33.9900	0	26.942	0	483.067	0	47.8	4	15.2	4	-1E+10	1	-1E+10	1	-1E+10	1	-1E+10	1	-1E+10	1	-1E+10	1
4902549	28	C	05/16/2021	08:59	-133.217	47.340	0	512.40	0	4.3420	0	34.0180	0	26.973	0	507.503	0	41.5	4	13.2	4	-1E+10	1	-1E+10	1	-1E+10	1	-1E+10	1	-1E+10	1	-1E+10	1
4902549	28	C	05/16/2021	08:59	-133.217	47.340	0	537.50	0	4.3000	0	34.0370	0	26.993	0	532.331	0	36.7	4	11.7	4	-1E+10	1	-1E+10	1	-1E+10	1	-1E+10	1	-1E+10	1	-1E+10	1
4902549	28	C	05/16/2021	08:59	-133.217	47.340	0	562.40	0	4.2470	0	34.0530	0	27.012	0	556.958	0	33.5	4	10.6	4	-1E+10	1	-1E+10	1	-1E+10	1	-1E+10	1	-1E+10	1	-1E+10	1
4902549	28	C	05/16/2021	08:59	-133.217	47.340	0	587.70	0	4.1610	0	34.0750	0	27.038	0	581.978	0	30.0	4	9.5	4	-1E+10	1	-1E+10	1	-1E+10	1	-1E+10	1	-1E+10	1	-1E+10	1
4902549	28	C	05/16/2021	08:59	-133.217	47.340	0	613.00	0	4.0930	0	34.0980	0	27.064	0	606.994	0	26.1	4	8.2	4	-1E+10	1	-1E+10	1	-1E+10	1	-1E+10	1	-1E+10	1	-1E+10	1
4902549	28	C	05/16/2021	08:59	-133.217	47.340	0	638.30	0	4.0350	0	34.1210	0	27.088	0	632.008	0	23.0	4	7.3	4	-1E+10	1	-1E+10	1	-1E+10	1	-1E+10	1	-1E+10	1	-1E+10	1
4902549	28	C	05/16/2021	08:59	-133.217	47.340	0	662.80	0	3.9630	0	34.1390	0	27.110	0	656.228	0	20.7	4	6.5	4	-1E+10	1	-1E+10	1	-1E+10	1	-1E+10	1	-1E+10	1	-1E+10	1
4902549	28	C	05/16/2021	08:59	-133.217	47.340	0	687.80	0	3.9060	0	34.1640	0	27.136	0	680.939	0	17.5	4	5.5	4	-1E+10	1	-1E+10	1	-1E+10	1	-1E+10	1	-1E+10	1	-1E+10	1
4902549	28	C	05/16/2021	08:59	-133.217	47.340	0	712.80	0	3.8810	0	34.1840	0	27.154	0	705.648	0	14.1	4	4.4	4	-1E+10	1	-1E+10	1	-1E+10	1	-1E+10	1	-1E+10	1	-1E+10	1
4902549	28	C	05/16/2021	08:59	-133.217	47.340	0	737.30	0	3.8340	0	34.2040	0	27.175	0	729.859	0	12.2	4	3.8	4	-1E+10	1	-1E+10	1	-1E+10	1	-1E+10	1	-1E+10	1	-1E+10	1
4902549	28	C	05/16/2021	08:59	-133.217	47.340	0	762.60	0	3.7280	0	34.2210	0	27.199	0	754.858	0	11.8	4	3.7	4	-1E+10	1	-1E+10	1	-1E+10	1	-1E+10	1	-1E+10	1	-1E+10	1
4902549	28	C	05/16/2021	08:59	-133.217	47.340	0	787.70	0	3.6410	0	34.2360	0	27.220	0	779.656	0	11.1	4	3.5	4	-1E+10	1	-1E+10	1	-1E+10	1	-1E+10	1	-1E+10	1	-1E+10	1
4902549	28	C	05/16/2021	08:59	-133.217	47.340	0	813.20	0	3.6070	0	34.2520	0	27.236	0	804.847	0	10.0	4	3.1	4	-1E+10	1	-1E+10	1	-1E+10	1	-1E+10	1	-1E+10	1	-1E+10	1
4902549	28	C	05/16/2021	08:59	-133.217	47.340	0	837.80	0	3.5720	0	34.2670	0	27.252	0	829.145	0	9.3	4	2.9	4	-1E+10	1	-1E+10	1	-1E+10	1	-1E+10	1	-1E+10	1	-1E+10	1
4902549	28	C	05/16/2021	08:59	-133.217	47.340	0	862.90	0	3.5120	0	34.2750	0	27.264	0	853.935	0	9.2	4	2.9	4	-1E+10	1	-1E+10	1	-1E+10	1	-1E+10	1	-1E+10	1	-1E+10	1
4902549	28	C	05/16/2021	08:59	-133.217	47.340	0	887.90	0	3.4610	0	34.2940	0	27.284	0	878.622	0	8.0	4	2.5	4	-1E+10	1	-1E+10	1	-1E+10	1	-1E+10	1	-1E+10	1	-1E+10	1
4902549	28	C	05/16/2021	08:59	-133.217	47.340	0	912.90	0	3.4140	0	34.3090	0	27.301	0	903.307	0	7.4	4	2.3	4	-1E+10	1	-1E+10	1	-1E+10	1	-1E+10	1	-1E+10	1	-1E+10	1
4902549	28	C	05/16/2021	08:59	-133.217	47.340	0	937.70	0	3.3610	0	34.3220	0	27.317	0	927.792	0	7.0	4	2.2	4	-1E+10	1	-1E+10	1	-1E+10	1	-1E+10	1	-1E+10	1	-1E+10	1
4902549	28	C	05/16/2021	08:59	-133.217	47.340	0	962.80	0	3.3010	0	34.3340	0	27.332	0	952.569	0	7.0	4	2.2	4	-1E+10	1	-1E+10	1	-1E+10	1	-1E+10	1	-1E+10	1	-1E+10	1
4902549	28	C	05/16/2021	08:59	-133.217	47.340	0	988.10	0	3.2500	0	34.3430	0	27.344	0	977.542	0	7.2	4	2.2	4	-1E+10	1	-1E+10	1	-1E+10	1	-1E+10	1	-1E+10	1	-1E+10	1
4902549	28	C	05/16/2021	08:59	-133.217	47.340	0	1012.80	0	3.2040	0	34.3480	0	27.352	0	1001.919	0	7.5	4	2.3	4	-1E+10	1	-1E+10	1	-1E+10	1	-1E+10	1	-1E+10	1	-1E+10	1
4902549	28	C	05/16/2021	08:59	-133.217	47.340	0	1038.00	0	3.1320	0	34.3550	0	27.365	0	1026.786	0	7.7	4	2.4	4	-1E+10	1	-1E+10	1	-1E+10	1	-1E+10	1	-1E+10	1	-1E+10	1
4902549	28	C	05/16/2021	08:59	-133.217	47.340	0	1063.80	0	3.0850	0	34.3680	0	27.380	0	1052.243	0	7.6	4	2.3	4	-1E+10	1	-1E+10	1	-1E+10	1	-1E+10	1	-1E+10	1	-1E+10	1
4902549	28	C	05/16/2021	08:59	-133.217	47.340	0	1087.70	0	3.0470	0	34.3790	0	27.392	0	1075.822	0	7.5	4	2.3	4	-1E+10	1	-1E+10	1	-1E+10	1	-1E+10	1	-1E+10	1	-1E+10	1
4902549	28	C	05/16/2021	08:59	-133.217	47.340	0	1112.60	0	3.0110	0	34.3920	0	27.406	0	1100.385	0	7.5	4	2.3	4	-1E+10	1	-1E+10	1	-1E+10	1	-1E+10	1	-1E+10	1	-1E+10	1
4902549	28	C	05/16/2021	08:59	-133.217	47.340	0	1137.80	0	2.9730	0	34.4030	0	27.418	0	1125.241	0	7.8	4	2.4	4	-1E+10	1	-1E+10	1	-1E+10	1	-1E+10	1	-1E+10	1	-1E+10	1
4902549	28	C	05/16/2021	08:59	-133.217	47.340	0	1162.90	0	2.9210	0	34.4110	0	27.429	0	1149.995	0	8.2	4	2.5	4	-1E+10	1	-1E+10	1	-1E+10	1	-1E+10	1	-1E+10	1	-1E+10	1
4902549	28	C	05/16/2021	08:59	-133.217	47.340	0	1187.90	0	2.8640	0	34.4170	0	27.439	0	1174.648	0	8.5	4	2.6	4	-1E+10	1	-1E+10	1	-1E+10	1	-1E+10	1	-1E+10	1	-1E+10	1
4902549	28	C	05/16/2021	08:59	-133.217	47.340	0	1213.50	0	2.8250	0	34.4260	0	27.450	0	1199.889	0	8.8	4	2.7	4	-1E+10	1	-1E+10	1	-1E+10	1	-1E+10	1	-1E+10	1	-1E+10	1
4902549	28	C	05/16/2021	08:59	-133.217	47.340	0	1237.90	0	2.7770	0	34.4330	0	27.460	0	1223.944	0	9.3	4	2.8	4	-1E+10	1	-1E+10	1	-1E+10	1	-1E+10	1	-1E+10	1	-1E+10	1
4902549	28	C	05/16/2021	08:59	-133.217	47.340	0	1262.80	0	2.7420	0	34.4400	0	27.469	0	1248.490	0	9.7	4	3.0	4	-1E+10	1	-1E+10	1	-1E+10	1	-1E+10	1	-1E+10	1	-1E+10	1
4902549	28	C	05/16/2021	08:59	-133.217	47.340	0	1287.60	0	2.6960	0	34.4480	0	27.479	0	1272.934	0	10.4	4	3.2	4	-1E+10	1	-1E+10	1	-1E+10	1	-1E+10	1	-1E+10	1	-1E+10	1
4902549	28	C	05/16/2021	08:59	-133.217	47.340	0	1312.50	0	2.6490	0	34.4550	0	27.489	0	1297.474	0	11.3	4	3.5	4	-1E+10	1	-1E+10	1	-1E+10	1	-1E+10	1	-1E+10	1	-1E+10	1
4902549	28	C	05/16/2021	08:59	-133.217	47.340	0	1337.80	0	2.6100	0	34.4620	0	27.498	0	1322.405	0	12.1	4	3.7	4	-1E+10	1	-1E+10	1	-1E+10	1	-1E+10	1	-1E+10	1	-1E+10	1
4902549	28	C	05/16/2021	08:59	-133.217	47.340	0	1362.80	0	2.5840	0	34.4670	0	27.504	0	1347.037	0	12.8	4	3.9	4	-1E+10	1	-1E+10	1	-1E+10	1	-1E+10	1	-1E+10	1	-1E+10	1
4902549	28	C	05/16/2021	08:59	-133.217	47.340	0	1387.50	0	2.5450	0	34.4730	0	27.513	0	1371.371	0	13.7	4	4.2	4	-1E+10	1	-1E+10	1	-1E+10	1	-1E+10	1	-1E+10	1	-1E+10	1
4902549	28	C	05/16/2021	08:59	-133.217	47.340	0	1412.80	0	2.5170	0	34.4790	0	27.520	0	1396.293	0	14.8	4	4.5	4	-1E+10	1	-1E+10	1	-1E+10	1	-1E+10	1	-1E+10	1	-1E+10	1
4902549	28	C	05/16/2021	08:59	-133.217	47.340	0	1438.30	0	2.4820	0	34.4840	0	27.527	0	1421.410	0	15.6	4	4.7	4	-1E+10	1	-1E+10	1	-1E+10	1	-1E+10	1	-1E+10	1	-1E+10	1
4902549	28	C	05/16/2021	08:59	-133.217	47.340	0	1462.80	0	2.4420	0	34.4900	0	27.535	0	1445.538	0	16.7	4	5.1	4	-1E+10	1	-1E+10	1	-1E+10	1	-1E+10	1	-1E+10	1	-1E+10	1
4902549	28	C	05/16/2021	08:59	-133.217	47.340	0	1487.90	0	2.4110	0	34.4960	0	27.543	0	1470.255	0	18.3	4	5.6	4	-1E+10	1	-1E+10	1	-1E+10	1	-1E+10	1	-1E+10	1	-1E+10	1
4902549	28	C	05/16/2021	08:59	-133.217	47.340	0	1512.90	0	2.3870	0	34.5000	0	27.548	0	1494.870	0	19.2	4	5.8	4	-1E+10	1	-1E+10	1	-1E+10	1	-1E+10	1	-1E+10	1	-1E+10	1
4902549	28	C	05/16/2021	08:59	-133.217	47.340	0	1538.00	0	2.3600	0	34.5040	0	27.554	0	1519.581	0	20.2	4	6.1	4	-1E+10	1	-1E+10	1	-1E+10	1	-1E+10	1	-1E+10	1	-1E+10	1
4902549	28	C	05/16/2021	08:59	-133.217	47.340	0	1562.90	0	2.3250	0	34.5100	0	27.561	0	1544.092	0	21.4	4	6.5	4	-1E+10	1	-1E+10	1	-1E+10	1	-1E+10	1	-1E+10	1	-1E+10	1
4902549	28	C	05/16/2021	08:59	-133.217	47.340	0	1587.80	0	2.2950	0	34.5160	0	27.569	0	1568.600	0	23.0	4	7.0	4	-1E+10	1	-1E+10	1	-1E+10	1	-1E+10	1	-1E+10	1	-1E+10	1
4902549	28	C	05/16/2021	08:59	-133.217	47.340	0	1613.30	0	2.2630	0	34.5210	0	27.576	0	1593.695	0	24.9	4	7.6	4	-1E+10	1	-1E+10	1	-1E+10	1	-1E+10	1	-1E+10	1	-1E+10	1
4902549	28	C	05/16/2021	08:59	-133.217	47.340	0	1638.60	0	2.2380	0	34.5260	0	27.582	0	1618.591	0	26.6	4	8.1	4	-1E+10	1	-1E+10	1	-1E+10	1	-1E+10	1	-1E+10	1	-1E+10	1
4902549	28	C	05/16/2021	08:59	-133.217	47.340	0	1662.80	0	2.2080	0	34.5310	0	27.588	0	1642.402	0	28.5	4	8.6	4	-1E+10	1	-1E+10	1	-1E+10	1	-1E+10	1	-1E+10	1	-1E+10	1
4902549	28	C	05/16/2021	08:59	-133.217	47.340	0	1688.00	0	2.1870	0	34.5340	0	27.593	0	1667.194	0	29.6	4	8.9	4	-1E+10	1	-1E+10	1	-1E+10	1	-1E+10	1	-1E+10	1	-1E+10	1
4902549	28	C	05/16/2021	08:59	-133.217	47.340	0	1713.10	0	2.1660	0	34.5390	0	27.598	0	1691.884	0	31.2	4	9.5	4	-1E+10	1	-1E+10	1	-1E+10	1	-1E+10	1	-1E+10	1	-1E+10	1
4902549	28	C	05/16/2021	08:59	-133.217	47.340	0	1738.00	0	2.1430	0	34.5440	0	27.604	0	1716.375	0	33.1	4	10.0	4	-1E+10	1	-1E+10	1	-1E+10	1	-1E+10	1	-1E+10	1	-1E+10	1
4902549	28	C	05/16/2021	08:59	-133.217	47.340	0	1762.70	0	2.1120	0	34.5490	0	27.611	0	1740.667	0	35.1	4	10.6	4	-1E+10	1	-1E+10	1	-1E+10	1	-1E+10	1	-1E+10	1	-1E+10	1
4902549	28	C	05/16/2021	08:59	-133.217	47.340	0	1787.70	0	2.0950	0	34.5530	0	27.616	0	1765.250	0	36.4	4	11.0	4	-1E+10	1	-1E+10	1	-1E+10	1	-1E+10	1	-1E+10	1	-1E+10	1
4902549	28	C	05/16/2021	08:59	-133.217	47.340	0	1813.00	0	2.0700	0	34.5570	0	27.621	0	1790.126	0	38.2	4	11.5	4	-1E+10	1	-1E+10	1	-1E+10	1	-1E+10	1	-1E+10	1	-1E+10	1
4902549	28	C	05/16/2021	08:59	-133.217	47.340	0	1838.00	0	2.0520	0	34.5610	0	27.626	0	1814.704	0	39.6	4	12.0	4	-1E+10	1	-1E+10	1	-1E+10	1	-1E+10	1	-1E+10	1	-1E+10	1
4902549	28	C	05/16/2021	08:59	-133.217	47.340	0	1862.60	0	2.0360	0	34.5650	0	27.630	0	1838.886	0	40.9	4	12.3	4	-1E+10	1	-1E+10	1	-1E+10	1	-1E+10	1	-1E+10	1	-1E+10	1
4902549	28	C	05/16/2021	08:59	-133.217	47.340	0	1888.30	0	2.0200	0	34.5680	0	27.634	0	1864.146	0	42.4	4	12.8	4	-1E+10	1	-1E+10	1	-1E+10	1	-1E+10	1	-1E+10	1	-1E+10	1
4902549	28	C	05/16/2021	08:59	-133.217	47.340	0	1913.00	0	2.0020	0	34.5700	0	27.637	0	1888.421	0	44.2	4	13.3	4	-1E+10	1	-1E+10	1	-1E+10	1	-1E+10	1	-1E+10	1	-1E+10	1
4902549	28	C	05/16/2021	08:59	-133.217	47.340	0	1937.70	0	1.9840	0	34.5740	0	27.642	0	1912.692	0	45.7	4	13.8	4	-1E+10	1	-1E+10	1	-1E+10	1	-1E+10	1	-1E+10	1	-1E+10	1
4902549	28	C	05/16/2021	08:59	-133.217	47.340	0	1962.50	0	1.9690	0	34.5770	0	27.646	0	1937.060	0	47.2	4	14.2	4	-1E+10	1	-1E+10	1	-1E+10	1	-1E+10	1	-1E+10	1	-1E+10	1
4902549	28	C	05/16/2021	08:59	-133.217	47.340	0	1987.70	0	1.9540	0	34.5800	0	27.649	0	1961.817	0	48.5	4	14.6	4	-1E+10	1	-1E+10	1	-1E+10	1	-1E+10	1	-1E+10	1	-1E+10	1
4902549	28	C	05/16/2021	08:59	-133.217	47.340	0	2011.50	0	1.9370	0	34.5830	0	27.653	0	1985.196	0	49.9	4	15.0	4	-1E+10	1	-1E+10	1	-1E+10	1	-1E+10	1	-1E+10	1	-1E+10	1
4902549	28	C	05/16/2021	08:59	-133.217	47.340	0																										
4902549	29	C	05/26/2021	08:41	-133.089	47.311	0	1.10	0	11.6860	0	32.3390	0	24.582	0	1.091	0	276.2	4	102.3	4	-1E+10	1	-1E+10	1	-1E+10	1	-1E+10	1	-1E+10	1	-1E+10	1
4902549	29	C	05/26/2021	08:41	-133.089	47.311	0	1.80	0	11.6900	0	32.3400	0	24.582	0	1.785	0	276.2	4	102.3	4	-1E+10	1	-1E+10	1	-1E+10	1	-1E+10	1	-1E+10	1	-1E+10	1
4902549	29	C	05/26/2021	08:41	-133.089	47.311	0	2.80	0	11.6970	0	32.3440	0	24.583	0	2.777	0	276.1	4	102.3	4	-1E+10	1	-1E+10	1	-1E+10	1	-1E+10	1	-1E+10	1	-1E+10	1
4902549	29	C	05/26/2021	08:41	-133.089	47.311	0	3.90	0	11.6970	0	32.3580	0	24.594	0	3.867	0	276.1	4	102.3	4	-1E+10	1	-1E+10	1	-1E+10	1	-1E+10	1	-1E+10	1	-1E+10	1
4902549	29	C	05/26/2021	08:41	-133.089	47.311	0	5.10	0	11.6960	0	32.3600	0	24.596	0	5.057	0	276.3	4	102.4	4	-1E+10	1	-1E+10	1	-1E+10	1	-1E+10	1	-1E+10	1	-1E+10	1
4902549	29	C	05/26/2021	08:41	-133.089	47.311	0	6.20	0	11.6890	0	32.3620	0	24.599	0	6.148	0	276.4	4	102.4	4	-1E+10	1	-1E+10	1	-1E+10	1	-1E+10	1	-1E+10	1	-1E+10	1
4902549	29	C	05/26/2021	08:41	-133.089	47.311	0	7.00	0	11.6810	0	32.3650	0	24.603	0	6.942	0	276.3	4	102.3	4	-1E+10	1	-1E+10	1	-1E+10	1	-1E+10	1	-1E+10	1	-1E+10	1
4902549	29	C	05/26/2021	08:41	-133.089	47.311	0	7.80	0	11.6940	0	32.3600	0	24.597	0	7.735	0	276.3	4	102.4	4	-1E+10	1	-1E+10	1	-1E+10	1	-1E+10	1	-1E+10	1	-1E+10	1
4902549	29	C	05/26/2021	08:41	-133.089	47.311	0	8.70	0	11.6980	0	32.3610	0	24.597	0	8.627	0	276.4	4	102.4	4	-1E+10	1	-1E+10	1	-1E+10	1	-1E+10	1	-1E+10	1	-1E+10	1
4902549	29	C	05/26/2021	08:41	-133.089	47.311	0	9.90	0	11.6970	0	32.3590	0	24.595	0	9.817	0	276.5	4	102.4	4	-1E+10	1	-1E+10	1	-1E+10	1	-1E+10	1	-1E+10	1	-1E+10	1
4902549	29	C	05/26/2021	08:41	-133.089	47.311	0	15.40	0	11.6740	0	32.3630	0	24.603	0	15.271	0	276.8	4	102.5	4	-1E+10	1	-1E+10	1	-1E+10	1	-1E+10	1	-1E+10	1	-1E+10	1
4902549	29	C	05/26/2021	08:41	-133.089	47.311	0	25.70	0	11.6110	0	32.3630	0	24.614	0	25.484	0	278.1	4	102.9	4	-1E+10	1	-1E+10	1	-1E+10	1	-1E+10	1	-1E+10	1	-1E+10	1
4902549	29	C	05/26/2021	08:41	-133.089	47.311	0	35.10	0	10.8490	0	32.3650	0	24.752	0	34.805	0	281.0	4	102.3	4	-1E+10	1	-1E+10	1	-1E+10	1	-1E+10	1	-1E+10	1	-1E+10	1
4902549	29	C	05/26/2021	08:41	-133.089	47.311	0	46.00	0	10.0000	0	32.3770	0	24.906	0	45.612	0	275.6	4	98.5	4	-1E+10	1	-1E+10	1	-1E+10	1	-1E+10	1	-1E+10	1	-1E+10	1
4902549	29	C	05/26/2021	08:41	-133.089	47.311	0	55.40	0	9.3230	0	32.3970	0	25.031	0	54.931	0	275.9	4	97.2	4	-1E+10	1	-1E+10	1	-1E+10	1	-1E+10	1	-1E+10	1	-1E+10	1
4902549	29	C	05/26/2021	08:41	-133.089	47.311	0	65.50	0	8.7280	0	32.4100	0	25.134	0	64.944	0	271.6	4	94.4	4	-1E+10	1	-1E+10	1	-1E+10	1	-1E+10	1	-1E+10	1	-1E+10	1
4902549	29	C	05/26/2021	08:41	-133.089	47.311	0	75.50	0	8.5310	0	32.4220	0	25.173	0	74.857	0	266.9	4	92.4	4	-1E+10	1	-1E+10	1	-1E+10	1	-1E+10	1	-1E+10	1	-1E+10	1
4902549	29	C	05/26/2021	08:41	-133.089	47.311	0	85.50	0	8.3640	0	32.4310	0	25.205	0	84.770	0	264.8	4	91.3	4	-1E+10	1	-1E+10	1	-1E+10	1	-1E+10	1	-1E+10	1	-1E+10	1
4902549	29	C	05/26/2021	08:41	-133.089	47.311	0	95.40	0	8.2030	0	32.4740	0	25.263	0	94.584	0	255.5	4	87.8	4	-1E+10	1	-1E+10	1	-1E+10	1	-1E+10	1	-1E+10	1	-1E+10	1
4902549	29	C	05/26/2021	08:41	-133.089	47.311	0	105.90	0	8.0590	0	32.6370	0	25.412	0	104.991	0	237.3	4	81.4	4	-1E+10	1	-1E+10	1	-1E+10	1	-1E+10	1	-1E+10	1	-1E+10	1
4902549	29	C	05/26/2021	08:41	-133.089	47.311	0	115.70	0	8.0440	0	32.9950	0	25.695	0	114.704	0	213.3	4	73.3	4	-1E+10	1	-1E+10	1	-1E+10	1	-1E+10	1	-1E+10	1	-1E+10	1
4902549	29	C	05/26/2021	08:41	-133.089	47.311	0	125.10	0	7.8650	0	33.3160	0	25.973	0	124.020	0	200.9	4	68.9	4	-1E+10	1	-1E+10	1	-1E+10	1	-1E+10	1	-1E+10	1	-1E+10	1
4902549	29	C	05/26/2021	08:41	-133.089	47.311	0	135.20	0	7.5560	0	33.4270	0	26.105	0	134.030	0	195.7	4	66.8	4	-1E+10	1	-1E+10	1	-1E+10	1	-1E+10	1	-1E+10	1	-1E+10	1
4902549	29	C	05/26/2021	08:41	-133.089	47.311	0	145.40	0	7.3560	0	33.4970	0	26.188	0	144.138	0	191.4	4	65.0	4	-1E+10	1	-1E+10	1	-1E+10	1	-1E+10	1	-1E+10	1	-1E+10	1
4902549	29	C	05/26/2021	08:41	-133.089	47.311	0	155.60	0	7.2230	0	33.5890	0	26.279	0	154.246	0	186.5	4	63.2	4	-1E+10	1	-1E+10	1	-1E+10	1	-1E+10	1	-1E+10	1	-1E+10	1
4902549	29	C	05/26/2021	08:41	-133.089	47.311	0	165.30	0	7.0820	0	33.6680	0	26.361	0	163.858	0	181.4	4	61.3	4	-1E+10	1	-1E+10	1	-1E+10	1	-1E+10	1	-1E+10	1	-1E+10	1
4902549	29	C	05/26/2021	08:41	-133.089	47.311	0	175.40	0	6.9960	0	33.7130	0	26.408	0	173.865	0	175.1	4	59.1	4	-1E+10	1	-1E+10	1	-1E+10	1	-1E+10	1	-1E+10	1	-1E+10	1
4902549	29	C	05/26/2021	08:41	-133.089	47.311	0	185.90	0	6.9340	0	33.7550	0	26.450	0	184.269	0	168.9	4	56.9	4	-1E+10	1	-1E+10	1	-1E+10	1	-1E+10	1	-1E+10	1	-1E+10	1
4902549	29	C	05/26/2021	08:41	-133.089	47.311	0	195.50	0	6.8390	0	33.7850	0	26.486	0	193.780	0	164.1	4	55.2	4	-1E+10	1	-1E+10	1	-1E+10	1	-1E+10	1	-1E+10	1	-1E+10	1
4902549	29	C	05/26/2021	08:41	-133.089	47.311	0	212.60	0	6.7190	0	33.8160	0	26.527	0	210.721	0	154.8	4	52.0	4	-1E+10	1	-1E+10	1	-1E+10	1	-1E+10	1	-1E+10	1	-1E+10	1
4902549	29	C	05/26/2021	08:41	-133.089	47.311	0	237.90	0	6.4320	0	33.8480	0	26.590	0	235.783	0	142.1	4	47.4	4	-1E+10	1	-1E+10	1	-1E+10	1	-1E+10	1	-1E+10	1	-1E+10	1
4902549	29	C	05/26/2021	08:41	-133.089	47.311	0	262.90	0	6.0890	0	33.8560	0	26.640	0	260.545	0	128.3	4	42.4	4	-1E+10	1	-1E+10	1	-1E+10	1	-1E+10	1	-1E+10	1	-1E+10	1
4902549	29	C	05/26/2021	08:41	-133.089	47.311	0	288.20	0	5.7480	0	33.8560	0	26.683	0	285.600	0	117.1	4	38.4	4	-1E+10	1	-1E+10	1	-1E+10	1	-1E+10	1	-1E+10	1	-1E+10	1
4902549	29	C	05/26/2021	08:41	-133.089	47.311	0	313.20	0	5.3660	0	33.8450	0	26.720	0	310.356	0	107.6	4	35.0	4	-1E+10	1	-1E+10	1	-1E+10	1	-1E+10	1	-1E+10	1	-1E+10	1
4902549	29	C	05/26/2021	08:41	-133.089	47.311	0	338.00	0	5.0940	0	33.8550	0	26.760	0	334.911	0	95.1	4	30.7	4	-1E+10	1	-1E+10	1	-1E+10	1	-1E+10	1	-1E+10	1	-1E+10	1
4902549	29	C	05/26/2021	08:41	-133.089	47.311	0	362.80	0	4.8650	0	33.8730	0	26.800	0	359.463	0	82.8	4	26.6	4	-1E+10	1	-1E+10	1	-1E+10	1	-1E+10	1	-1E+10	1	-1E+10	1
4902549	29	C	05/26/2021	08:41	-133.089	47.311	0	388.00	0	4.7020	0	33.8990	0	26.839	0	384.408	0	72.3	4	23.2	4	-1E+10	1	-1E+10	1	-1E+10	1	-1E+10	1	-1E+10	1	-1E+10	1
4902549	29	C	05/26/2021	08:41	-133.089	47.311	0	412.70	0	4.5800	0	33.9310	0	26.878	0	408.855	0	62.6	4	20.0	4	-1E+10	1	-1E+10	1	-1E+10	1	-1E+10	1	-1E+10	1	-1E+10	1
4902549	29	C	05/26/2021	08:41	-133.089	47.311	0	437.90	0	4.4960	0	33.9620	0	26.912	0	433.794	0	56.0	4	17.9	4	-1E+10	1	-1E+10	1	-1E+10	1	-1E+10	1	-1E+10	1	-1E+10	1
4902549	29	C	05/26/2021	08:41	-133.089	47.311	0	462.40	0	4.4410	0	33.9820	0	26.934	0	458.037	0	50.1	4	16.0	4	-1E+10	1	-1E+10	1	-1E+10	1	-1E+10	1	-1E+10	1	-1E+10	1
4902549	29	C	05/26/2021	08:41	-133.089	47.311	0	487.80	0	4.3720	0	34.0090	0	26.963	0	483.168	0	43.8	4	13.9	4	-1E+10	1	-1E+10	1	-1E+10	1	-1E+10	1	-1E+10	1	-1E+10	1
4902549	29	C	05/26/2021	08:41	-133.089	47.311	0	513.20	0	4.3170	0	34.0310	0	26.986	0	508.295	0	38.4	4	12.2	4	-1E+10	1	-1E+10	1	-1E+10	1	-1E+10	1	-1E+10	1	-1E+10	1
4902549	29	C	05/26/2021	08:41	-133.089	47.311	0	537.90	0	4.2510	0	34.0530	0	27.011	0	532.728	0	33.6	4	10.7	4	-1E+10	1	-1E+10	1	-1E+10	1	-1E+10	1	-1E+10	1	-1E+10	1
4902549	29	C	05/26/2021	08:41	-133.089	47.311	0	562.90	0	4.1920	0	34.0760	0	27.036	0	557.454	0	29.0	4	9.2	4	-1E+10	1	-1E+10	1	-1E+10	1	-1E+10	1	-1E+10	1	-1E+10	1
4902549	29	C	05/26/2021	08:41	-133.089	47.311	0	588.90	0	4.1230	0	34.0990	0	27.061	0	583.166	0	25.5	4	8.1	4	-1E+10	1	-1E+10	1	-1E+10	1	-1E+10	1	-1E+10	1	-1E+10	1
4902549	29	C	05/26/2021	08:41	-133.089	47.311	0	612.70	0	4.0580	0	34.1190	0	27.084	0	606.699	0	23.1	4	7.3	4	-1E+10	1	-1E+10	1	-1E+10	1	-1E+10	1	-1E+10	1	-1E+10	1
4902549	29	C	05/26/2021	08:41	-133.089	47.311	0	638.10	0	3.9860	0	34.1350	0	27.104	0	631.812	0	21.9	4	6.9	4	-1E+10	1	-1E+10	1	-1E+10	1	-1E+10	1	-1E+10	1	-1E+10	1
4902549	29	C	05/26/2021	08:41	-133.089	47.311	0	663.00	0	3.9250	0	34.1490	0	27.122	0	656.427	0	20.1	4	6.3	4	-1E+10	1	-1E+10	1	-1E+10	1	-1E+10	1	-1E+10	1	-1E+10	1
4902549	29	C	05/26/2021	08:41	-133.089	47.311	0	687.60	0	3.8730	0	34.1700	0	27.144	0	680.743	0	17.1	4	5.4	4	-1E+10	1	-1E+10	1	-1E+10	1	-1E+10	1	-1E+10	1	-1E+10	1
4902549	29	C	05/26/2021	08:41	-133.089	47.311	0	712.50	0	3.8530	0	34.1870	0	27.160	0	705.353	0	14.5	4	4.6	4	-1E+10	1	-1E+10	1	-1E+10	1	-1E+10	1	-1E+10	1	-1E+10	1
4902549	29	C	05/26/2021	08:41	-133.089	47.311	0	737.80	0	3.8190	0	34.2060	0	27.178	0	730.355	0	12.3	4	3.9	4	-1E+10	1	-1E+10	1	-1E+10	1	-1E+10	1	-1E+10	1	-1E+10	1
4902549	29	C	05/26/2021	08:41	-133.089	47.311	0	763.30	0	3.7430	0	34.2210	0	27.198	0	755.552	0	11.5	4	3.6	4	-1E+10	1	-1E+10	1	-1E+10	1	-1E+10	1	-1E+10	1	-1E+10	1
4902549	29	C	05/26/2021	08:41	-133.089	47.311	0	788.10	0	3.6750	0	34.2320	0	27.214	0	780.053	0	11.3	4	3.5	4	-1E+10	1	-1E+10	1	-1E+10	1	-1E+10	1	-1E+10	1	-1E+10	1
4902549	29	C	05/26/2021	08:41	-133.089	47.311	0	812.70	0	3.6090	0	34.2450	0	27.231	0	804.355	0	10.9	4	3.4	4	-1E+10	1	-1E+10	1	-1E+10	1	-1E+10	1	-1E+10	1	-1E+10	1
4902549	29	C	05/26/2021	08:41	-133.089	47.311	0	838.40	0	3.5470	0	34.2580	0	27.247	0	829.740	0	10.7	4	3.3	4	-1E+10	1	-1E+10	1	-1E+10	1	-1E+10	1	-1E+10	1	-1E+10	1
4902549	29	C	05/26/2021	08:41	-133.089	47.311	0	862.80	0	3.4850	0	34.2710	0	27.264	0	853.838	0	10.0	4	3.1	4	-1E+10	1	-1E+10	1	-1E+10	1	-1E+10	1	-1E+10	1	-1E+10	1
4902549	29	C	05/26/2021	08:41	-133.089	47.311	0	888.00	0	3.4800	0	34.2840	0	27.275	0	878.724	0	8.8	4	2.7	4	-1E+10	1	-1E+10	1	-1E+10	1	-1E+10	1	-1E+10	1	-1E+10	1
4902549	29	C	05/26/2021	08:41	-133.089	47.311	0	912.80	0	3.4480	0	34.3010	0	27.291	0	903.211	0	7.8	4	2.4	4	-1E+10	1	-1E+10	1	-1E+10	1	-1E+10	1	-1E+10	1	-1E+10	1
4902549	29	C	05/26/2021	08:41	-133.089	47.311	0	938.00	0	3.3680	0	34.3180	0	27.313	0	928.090	0	7.5	4	2.3	4	-1E+10	1	-1E+10	1	-1E+10	1	-1E+10	1	-1E+10	1	-1E+10	1
4902549	29	C	05/26/2021	08:41	-133.089	47.311	0	963.20	0	3.2760	0	34.3290	0	27.330	0	952.967	0	7.8	4	2.4	4	-1E+10	1	-1E+10	1	-1E+10	1	-1E+10	1	-1E+10	1	-1E+10	1
4902549	29	C	05/26/2021	08:41	-133.089	47.311	0	988.10	0	3.2020	0	34.3410	0	27.347	0	977.544	0	7.8	4	2.4	4	-1E+10	1	-1E+10	1	-1E+10	1	-1E+10	1	-1E+10	1	-1E+10	1
4902549	29	C	05/26/2021	08:41	-133.089	47.311	0	1012.90	0	3.1440	0	34.3520	0	27.361	0	1002.020	0	7.8	4	2.4	4	-1E+10	1	-1E+10	1	-1E+10	1	-1E+10	1	-1E+10	1	-1E+10	1
4902549	29	C	05/26/2021	08:41	-133.089	47.311	0	1038.80	0	3.0940	0	34.3620	0	27.374	0	1027.578	0	7.7	4	2.4	4	-1E+10	1	-1E+10	1	-1E+10	1	-1E+10	1	-1E+10	1	-1E+10	1
4902549	29	C	05/26/2021	08:41	-133.089	47.311	0	1062.70	0	3.0530	0	34.3720	0	27.386	0	1051.160	0	7.7	4	2.4	4	-1E+10	1	-1E+10	1	-1E+10	1	-1E+10	1	-1E+10	1	-1E+10	1
4902549	29	C	05/26/2021	08:41	-133.089	47.311	0	1087.70	0	3.0200	0	34.3820	0	27.397	0	1075.825	0	7.7	4	2.4	4	-1E+10	1	-1E+10	1	-1E+10	1	-1E+10	1	-1E+10	1	-1E+10	1
4902549	29	C	05/26/2021	08:41	-133.089	47.311	0	1112.60	0	2.9930	0	34.3900	0	27.406	0	1100.388	0	7.7	4	2.4	4	-1E+10	1	-1E+10	1	-1E+10	1	-1E+10	1	-1E+10	1	-1E+10	1
4902549	29	C	05/26/2021	08:41	-133.089	47.311	0	1137.40	0	2.9640	0	34.3990	0	27.416	0	1124.849	0	7.8	4	2.4	4	-1E+10	1	-1E+10	1	-1E+10	1	-1E+10	1	-1E+10	1	-1E+10	1
4902549	29	C	05/26/2021	08:41	-133.089	47.311	0	1162.60	0	2.9170	0	34.4070	0	27.426	0	1149.702	0	8.1	4	2.5	4	-1E+10	1	-1E+10	1	-1E+10	1	-1E+10	1	-1E+10	1	-1E+10	1
4902549	29	C	05/26/2021	08:41	-133.089	47.311	0	1187.90	0	2.8750	0	34.4150	0	27.437	0	1174.651	0	8.4	4	2.6	4	-1E+10	1	-1E+10	1	-1E+10	1	-1E+10	1	-1E+10	1	-1E+10	1
4902549	29	C	05/26/2021	08:41	-133.089	47.311	0	1212.80	0	2.8390	0	34.4230	0	27.446	0	1199.202	0	8.6	4	2.6	4	-1E+10	1	-1E+10	1	-1E+10	1	-1E+10	1	-1E+10	1	-1E+10	1
4902549	29	C	05/26/2021	08:41	-133.089	47.311	0	1238.60	0	2.7990	0	34.4310	0	27.456	0	1224.638	0	8.9	4	2.7	4	-1E+10	1	-1E+10	1	-1E+10	1	-1E+10	1	-1E+10	1	-1E+10	1
4902549	29	C	05/26/2021	08:41	-133.089	47.311	0	1262.70	0	2.7630	0	34.4370	0	27.465	0	1248.395	0	9.2	4	2.8	4	-1E+10	1	-1E+10	1	-1E+10	1	-1E+10	1	-1E+10	1	-1E+10	1
4902549	29	C	05/26/2021	08:41	-133.089	47.311	0	1287.40	0	2.7140	0	34.4440	0	27.474	0	1272.740	0	9.7	4	3.0	4	-1E+10	1	-1E+10	1	-1E+10	1	-1E+10	1	-1E+10	1	-1E+10	1
4902549	29	C	05/26/2021	08:41	-133.089	47.311	0	1312.90	0	2.7070	0	34.4540	0	27.483	0	1297.871	0	11.3	4	3.5	4	-1E+10	1	-1E+10	1	-1E+10	1	-1E+10	1	-1E+10	1	-1E+10	1
4902549	29	C	05/26/2021	08:41	-133.089	47.311	0	1337.80	0	2.6830	0	34.4610	0	27.491	0	1322.408	0	12.0	4	3.7	4	-1E+10	1	-1E+10	1	-1E+10	1	-1E+10	1	-1E+10	1	-1E+10	1
4902549	29	C	05/26/2021	08:41	-133.089	47.311	0	1362.70	0	2.6300	0	34.4660	0	27.500	0	1346.942	0	12.5	4	3.8	4	-1E+10	1	-1E+10	1	-1E+10	1	-1E+10	1	-1E+10	1	-1E+10	1
4902549	29	C	05/26/2021	08:41	-133.089	47.311	0	1388.60	0	2.5700	0	34.4720	0	27.510	0	1372.458	0	13.4	4	4.1	4	-1E+10	1	-1E+10	1	-1E+10	1	-1E+10	1	-1E+10	1	-1E+10	1
4902549	29	C	05/26/2021	08:41	-133.089	47.311	0	1412.50	0	2.5210	0	34.4770	0	27.518	0	1396.002	0	14.1	4	4.3	4	-1E+10	1	-1E+10	1	-1E+10	1	-1E+10	1	-1E+10	1	-1E+10	1
4902549	29	C	05/26/2021	08:41	-133.089	47.311	0	1437.90	0	2.4910	0	34.4820	0	27.525	0	1421.020	0	15.3	4	4.7	4	-1E+10	1	-1E+10	1	-1E+10	1	-1E+10	1	-1E+10	1	-1E+10	1
4902549	29	C	05/26/2021	08:41	-133.089	47.311	0	1463.00	0	2.4620	0	34.4870	0	27.531	0	1445.739	0	16.2	4	4.9	4	-1E+10	1	-1E+10	1	-1E+10	1	-1E+10	1	-1E+10	1	-1E+10	1
4902549	29	C	05/26/2021	08:41	-133.089	47.311	0	1487.70	0	2.4230	0	34.4940	0	27.540	0	1470.062	0	17.3	4	5.3	4	-1E+10	1	-1E+10	1	-1E+10	1	-1E+10	1	-1E+10	1	-1E+10	1
4902549	29	C	05/26/2021	08:41	-133.089	47.311	0	1512.80	0	2.3890	0	34.4990	0	27.547	0	1494.775	0	18.1	4	5.5	4	-1E+10	1	-1E+10	1	-1E+10	1	-1E+10	1	-1E+10	1	-1E+10	1
4902549	29	C	05/26/2021	08:41	-133.089	47.311	0	1538.20	0	2.3670	0	34.5030	0	27.552	0	1519.781	0	19.4	4	5.9	4	-1E+10	1	-1E+10	1	-1E+10	1	-1E+10	1	-1E+10	1	-1E+10	1
4902549	29	C	05/26/2021	08:41	-133.089	47.311	0	1563.00	0	2.3420	0	34.5080	0	27.558	0	1544.194	0	20.6	4	6.3	4	-1E+10	1	-1E+10	1	-1E+10	1	-1E+10	1	-1E+10	1	-1E+10	1
4902549	29	C	05/26/2021	08:41	-133.089	47.311	0	1587.90	0	2.3190	0	34.5120	0	27.564	0	1568.702	0	22.1	4	6.7	4	-1E+10	1	-1E+10	1	-1E+10	1	-1E+10	1	-1E+10	1	-1E+10	1
4902549	29	C	05/26/2021	08:41	-133.089	47.311	0	1612.90	0	2.2810	0	34.5180	0	27.572	0	1593.306	0	24.4	4	7.4	4	-1E+10	1	-1E+10	1	-1E+10	1	-1E+10	1	-1E+10	1	-1E+10	1
4902549	29	C	05/26/2021	08:41	-133.089	47.311	0	1637.70	0	2.2460	0	34.5250	0	27.580	0	1617.710	0	26.6	4	8.1	4	-1E+10	1	-1E+10	1	-1E+10	1	-1E+10	1	-1E+10	1	-1E+10	1
4902549	29	C	05/26/2021	08:41	-133.089	47.311	0	1663.20	0	2.2140	0	34.5300	0	27.587	0	1642.800	0	28.4	4	8.6	4	-1E+10	1	-1E+10	1	-1E+10	1	-1E+10	1	-1E+10	1	-1E+10	1
4902549	29	C	05/26/2021	08:41	-133.089	47.311	0	1687.80	0	2.1860	0	34.5350	0	27.593	0	1667.002	0	30.3	4	9.2	4	-1E+10	1	-1E+10	1	-1E+10	1	-1E+10	1	-1E+10	1	-1E+10	1
4902549	29	C	05/26/2021	08:41	-133.089	47.311	0	1712.60	0	2.1570	0	34.5410	0	27.601	0	1691.397	0	32.1	4	9.7	4	-1E+10	1	-1E+10	1	-1E+10	1	-1E+10	1	-1E+10	1	-1E+10	1
4902549	29	C	05/26/2021	08:41	-133.089	47.311	0	1737.70	0	2.1360	0	34.5450	0	27.606	0	1716.085	0	33.6	4	10.2	4	-1E+10	1	-1E+10	1	-1E+10	1	-1E+10	1	-1E+10	1	-1E+10	1
4902549	29	C	05/26/2021	08:41	-133.089	47.311	0	1763.10	0	2.1140	0	34.5490	0	27.611	0	1741.065	0	35.1	4	10.6	4	-1E+10	1	-1E+10	1	-1E+10	1	-1E+10	1	-1E+10	1	-1E+10	1
4902549	29	C	05/26/2021	08:41	-133.089	47.311	0	1788.20	0	2.0890	0	34.5540	0	27.617	0	1765.747	0	37.0	4	11.2	4	-1E+10	1	-1E+10	1	-1E+10	1	-1E+10	1	-1E+10	1	-1E+10	1
4902549	29	C	05/26/2021	08:41	-133.089	47.311	0	1813.70	0	2.0670	0	34.5580	0	27.622	0	1790.819	0	38.6	4	11.7	4	-1E+10	1	-1E+10	1	-1E+10	1	-1E+10	1	-1E+10	1	-1E+10	1
4902549	29	C	05/26/2021	08:41	-133.089	47.311	0	1837.80	0	2.0490	0	34.5620	0	27.627	0	1814.512	0	39.9	4	12.0	4	-1E+10	1	-1E+10	1	-1E+10	1	-1E+10	1	-1E+10	1	-1E+10	1
4902549	29	C	05/26/2021	08:41	-133.089	47.311	0	1862.80	0	2.0340	0	34.5650	0	27.630	0	1839.088	0	41.1	4	12.4	4	-1E+10	1	-1E+10	1	-1E+10	1	-1E+10	1	-1E+10	1	-1E+10	1
4902549	29	C	05/26/2021	08:41	-133.089	47.311	0	1887.90	0	2.0160	0	34.5680	0	27.634	0	1863.758	0	42.8	4	12.9	4	-1E+10	1	-1E+10	1	-1E+10	1	-1E+10	1	-1E+10	1	-1E+10	1
4902549	29	C	05/26/2021	08:41	-133.089	47.311	0	1912.60	0	2.0000	0	34.5710	0	27.638	0	1888.033	0	44.2	4	13.3	4	-1E+10	1	-1E+10	1	-1E+10	1	-1E+10	1	-1E+10	1	-1E+10	1
4902549	29	C	05/26/2021	08:41	-133.089	47.311	0	1937.50	0	1.9840	0	34.5740	0	27.642	0	1912.501	0	45.5	4	13.7	4	-1E+10	1	-1E+10	1	-1E+10	1	-1E+10	1	-1E+10	1	-1E+10	1
4902549	29	C	05/26/2021	08:41	-133.089	47.311	0	1962.80	0	1.9700	0	34.5770	0	27.645	0	1937.360	0	46.6	4	14.0	4	-1E+10	1	-1E+10	1	-1E+10	1	-1E+10	1	-1E+10	1	-1E+10	1
4902549	29	C	05/26/2021	08:41	-133.089	47.311	0	1979.40	0	1.9610	0	34.5780	0	27.647	0	1953.668	0	46.7	4	14.1	4	-1E+10	1	-1E+10	1	-1E+10	1	-1E+10	1	-1E+10	1	-1E+10	1
4902549	29	C	05/26/2021	08:41	-133.089	47.311	0																										
4902549	30	C	06/05/2021	13:55	-132.890	47.302	0	0.40	0	11.4480	0	32.3490	0	24.632	0	0.397	0	268.2	4	98.8	4	-1E+10	1	-1E+10	1	-1E+10	1	-1E+10	1	-1E+10	1	-1E+10	1
4902549	30	C	06/05/2021	13:55	-132.890	47.302	0	1.10	0	11.4450	0	32.3520	0	24.635	0	1.091	0	268.2	4	98.8	4	-1E+10	1	-1E+10	1	-1E+10	1	-1E+10	1	-1E+10	1	-1E+10	1
4902549	30	C	06/05/2021	13:55	-132.890	47.302	0	2.00	0	11.4480	0	32.3460	0	24.630	0	1.983	0	268.2	4	98.8	4	-1E+10	1	-1E+10	1	-1E+10	1	-1E+10	1	-1E+10	1	-1E+10	1
4902549	30	C	06/05/2021	13:55	-132.890	47.302	0	2.90	0	11.4520	0	32.3480	0	24.631	0	2.876	0	268.2	4	98.8	4	-1E+10	1	-1E+10	1	-1E+10	1	-1E+10	1	-1E+10	1	-1E+10	1
4902549	30	C	06/05/2021	13:55	-132.890	47.302	0	4.00	0	11.4530	0	32.3490	0	24.632	0	3.967	0	268.1	4	98.8	4	-1E+10	1	-1E+10	1	-1E+10	1	-1E+10	1	-1E+10	1	-1E+10	1
4902549	30	C	06/05/2021	13:55	-132.890	47.302	0	5.10	0	11.4530	0	32.3500	0	24.632	0	5.057	0	268.2	4	98.8	4	-1E+10	1	-1E+10	1	-1E+10	1	-1E+10	1	-1E+10	1	-1E+10	1
4902549	30	C	06/05/2021	13:55	-132.890	47.302	0	6.10	0	11.4420	0	32.3480	0	24.633	0	6.049	0	268.4	4	98.9	4	-1E+10	1	-1E+10	1	-1E+10	1	-1E+10	1	-1E+10	1	-1E+10	1
4902549	30	C	06/05/2021	13:55	-132.890	47.302	0	7.20	0	11.4510	0	32.3500	0	24.633	0	7.140	0	268.4	4	98.9	4	-1E+10	1	-1E+10	1	-1E+10	1	-1E+10	1	-1E+10	1	-1E+10	1
4902549	30	C	06/05/2021	13:55	-132.890	47.302	0	7.90	0	11.4290	0	32.3490	0	24.636	0	7.834	0	268.6	4	98.9	4	-1E+10	1	-1E+10	1	-1E+10	1	-1E+10	1	-1E+10	1	-1E+10	1
4902549	30	C	06/05/2021	13:55	-132.890	47.302	0	9.10	0	11.4060	0	32.3500	0	24.641	0	9.024	0	268.8	4	99.0	4	-1E+10	1	-1E+10	1	-1E+10	1	-1E+10	1	-1E+10	1	-1E+10	1
4902549	30	C	06/05/2021	13:55	-132.890	47.302	0	10.20	0	11.4010	0	32.3520	0	24.643	0	10.115	0	268.9	4	99.0	4	-1E+10	1	-1E+10	1	-1E+10	1	-1E+10	1	-1E+10	1	-1E+10	1
4902549	30	C	06/05/2021	13:55	-132.890	47.302	0	10.80	0	11.4110	0	32.3500	0	24.640	0	10.710	0	268.8	4	99.0	4	-1E+10	1	-1E+10	1	-1E+10	1	-1E+10	1	-1E+10	1	-1E+10	1
4902549	30	C	06/05/2021	13:55	-132.890	47.302	0	12.00	0	11.4080	0	32.3510	0	24.641	0	11.900	0	268.9	4	99.0	4	-1E+10	1	-1E+10	1	-1E+10	1	-1E+10	1	-1E+10	1	-1E+10	1
4902549	30	C	06/05/2021	13:55	-132.890	47.302	0	12.80	0	11.4020	0	32.3510	0	24.643	0	12.693	0	268.9	4	99.0	4	-1E+10	1	-1E+10	1	-1E+10	1	-1E+10	1	-1E+10	1	-1E+10	1
4902549	30	C	06/05/2021	13:55	-132.890	47.302	0	13.80	0	11.4030	0	32.3530	0	24.644	0	13.685	0	269.0	4	99.0	4	-1E+10	1	-1E+10	1	-1E+10	1	-1E+10	1	-1E+10	1	-1E+10	1
4902549	30	C	06/05/2021	13:55	-132.890	47.302	0	14.90	0	11.4210	0	32.3500	0	24.638	0	14.775	0	269.0	4	99.1	4	-1E+10	1	-1E+10	1	-1E+10	1	-1E+10	1	-1E+10	1	-1E+10	1
4902549	30	C	06/05/2021	13:55	-132.890	47.302	0	16.00	0	11.4110	0	32.3520	0	24.642	0	15.866	0	269.1	4	99.1	4	-1E+10	1	-1E+10	1	-1E+10	1	-1E+10	1	-1E+10	1	-1E+10	1
4902549	30	C	06/05/2021	13:55	-132.890	47.302	0	16.90	0	11.4110	0	32.3530	0	24.643	0	16.759	0	269.2	4	99.1	4	-1E+10	1	-1E+10	1	-1E+10	1	-1E+10	1	-1E+10	1	-1E+10	1
4902549	30	C	06/05/2021	13:55	-132.890	47.302	0	17.70	0	11.3970	0	32.3500	0	24.643	0	17.552	0	269.3	4	99.1	4	-1E+10	1	-1E+10	1	-1E+10	1	-1E+10	1	-1E+10	1	-1E+10	1
4902549	30	C	06/05/2021	13:55	-132.890	47.302	0	18.70	0	11.3970	0	32.3500	0	24.643	0	18.543	0	269.5	4	99.2	4	-1E+10	1	-1E+10	1	-1E+10	1	-1E+10	1	-1E+10	1	-1E+10	1
4902549	30	C	06/05/2021	13:55	-132.890	47.302	0	20.10	0	11.3810	0	32.3500	0	24.646	0	19.932	0	269.8	4	99.3	4	-1E+10	1	-1E+10	1	-1E+10	1	-1E+10	1	-1E+10	1	-1E+10	1
4902549	30	C	06/05/2021	13:55	-132.890	47.302	0	21.00	0	11.3730	0	32.3490	0	24.646	0	20.824	0	270.1	4	99.4	4	-1E+10	1	-1E+10	1	-1E+10	1	-1E+10	1	-1E+10	1	-1E+10	1
4902549	30	C	06/05/2021	13:55	-132.890	47.302	0	22.00	0	11.3730	0	32.3480	0	24.646	0	21.816	0	270.4	4	99.5	4	-1E+10	1	-1E+10	1	-1E+10	1	-1E+10	1	-1E+10	1	-1E+10	1
4902549	30	C	06/05/2021	13:55	-132.890	47.302	0	23.30	0	11.3750	0	32.3390	0	24.638	0	23.105	0	270.9	4	99.7	4	-1E+10	1	-1E+10	1	-1E+10	1	-1E+10	1	-1E+10	1	-1E+10	1
4902549	30	C	06/05/2021	13:55	-132.890	47.302	0	24.40	0	11.1870	0	32.3460	0	24.677	0	24.195	0	272.2	4	99.7	4	-1E+10	1	-1E+10	1	-1E+10	1	-1E+10	1	-1E+10	1	-1E+10	1
4902549	30	C	06/05/2021	13:55	-132.890	47.302	0	24.90	0	11.1540	0	32.3450	0	24.682	0	24.691	0	272.3	4	99.7	4	-1E+10	1	-1E+10	1	-1E+10	1	-1E+10	1	-1E+10	1	-1E+10	1
4902549	30	C	06/05/2021	13:55	-132.890	47.302	0	25.90	0	11.0570	0	32.3530	0	24.706	0	25.683	0	273.0	4	99.8	4	-1E+10	1	-1E+10	1	-1E+10	1	-1E+10	1	-1E+10	1	-1E+10	1
4902549	30	C	06/05/2021	13:55	-132.890	47.302	0	26.80	0	10.8660	0	32.3510	0	24.738	0	26.575	0	273.8	4	99.7	4	-1E+10	1	-1E+10	1	-1E+10	1	-1E+10	1	-1E+10	1	-1E+10	1
4902549	30	C	06/05/2021	13:55	-132.890	47.302	0	27.80	0	10.7910	0	32.3540	0	24.753	0	27.567	0	274.1	4	99.6	4	-1E+10	1	-1E+10	1	-1E+10	1	-1E+10	1	-1E+10	1	-1E+10	1
4902549	30	C	06/05/2021	13:55	-132.890	47.302	0	29.00	0	10.7660	0	32.3540	0	24.758	0	28.756	0	274.0	4	99.5	4	-1E+10	1	-1E+10	1	-1E+10	1	-1E+10	1	-1E+10	1	-1E+10	1
4902549	30	C	06/05/2021	13:55	-132.890	47.302	0	30.00	0	10.7650	0	32.3570	0	24.760	0	29.748	0	273.6	4	99.4	4	-1E+10	1	-1E+10	1	-1E+10	1	-1E+10	1	-1E+10	1	-1E+10	1
4902549	30	C	06/05/2021	13:55	-132.890	47.302	0	31.20	0	10.7590	0	32.3590	0	24.763	0	30.938	0	273.5	4	99.4	4	-1E+10	1	-1E+10	1	-1E+10	1	-1E+10	1	-1E+10	1	-1E+10	1
4902549	30	C	06/05/2021	13:55	-132.890	47.302	0	31.90	0	10.7470	0	32.3600	0	24.766	0	31.632	0	273.4	4	99.3	4	-1E+10	1	-1E+10	1	-1E+10	1	-1E+10	1	-1E+10	1	-1E+10	1
4902549	30	C	06/05/2021	13:55	-132.890	47.302	0	33.00	0	10.7040	0	32.3580	0	24.772	0	32.723	0	273.5	4	99.2	4	-1E+10	1	-1E+10	1	-1E+10	1	-1E+10	1	-1E+10	1	-1E+10	1
4902549	30	C	06/05/2021	13:55	-132.890	47.302	0	34.10	0	10.6900	0	32.3590	0	24.775	0	33.813	0	273.4	4	99.2	4	-1E+10	1	-1E+10	1	-1E+10	1	-1E+10	1	-1E+10	1	-1E+10	1
4902549	30	C	06/05/2021	13:55	-132.890	47.302	0	34.80	0	10.6790	0	32.3590	0	24.777	0	34.507	0	273.4	4	99.1	4	-1E+10	1	-1E+10	1	-1E+10	1	-1E+10	1	-1E+10	1	-1E+10	1
4902549	30	C	06/05/2021	13:55	-132.890	47.302	0	35.80	0	10.6670	0	32.3570	0	24.777	0	35.499	0	273.2	4	99.0	4	-1E+10	1	-1E+10	1	-1E+10	1	-1E+10	1	-1E+10	1	-1E+10	1
4902549	30	C	06/05/2021	13:55	-132.890	47.302	0	36.90	0	10.6620	0	32.3570	0	24.778	0	36.589	0	273.0	4	99.0	4	-1E+10	1	-1E+10	1	-1E+10	1	-1E+10	1	-1E+10	1	-1E+10	1
4902549	30	C	06/05/2021	13:55	-132.890	47.302	0	37.80	0	10.6460	0	32.3600	0	24.783	0	37.482	0	272.9	4	98.9	4	-1E+10	1	-1E+10	1	-1E+10	1	-1E+10	1	-1E+10	1	-1E+10	1
4902549	30	C	06/05/2021	13:55	-132.890	47.302	0	39.00	0	10.6250	0	32.3610	0	24.788	0	38.672	0	272.7	4	98.8	4	-1E+10	1	-1E+10	1	-1E+10	1	-1E+10	1	-1E+10	1	-1E+10	1
4902549	30	C	06/05/2021	13:55	-132.890	47.302	0	40.00	0	10.6020	0	32.3630	0	24.793	0	39.663	0	272.6	4	98.7	4	-1E+10	1	-1E+10	1	-1E+10	1	-1E+10	1	-1E+10	1	-1E+10	1
4902549	30	C	06/05/2021	13:55	-132.890	47.302	0	41.30	0	10.5140	0	32.3750	0	24.818	0	40.952	0	272.7	4	98.5	4	-1E+10	1	-1E+10	1	-1E+10	1	-1E+10	1	-1E+10	1	-1E+10	1
4902549	30	C	06/05/2021	13:55	-132.890	47.302	0	41.90	0	10.4500	0	32.3710	0	24.825	0	41.547	0	272.9	4	98.5	4	-1E+10	1	-1E+10	1	-1E+10	1	-1E+10	1	-1E+10	1	-1E+10	1
4902549	30	C	06/05/2021	13:55	-132.890	47.302	0	42.90	0	10.3330	0	32.3740	0	24.848	0	42.538	0	273.2	4	98.3	4	-1E+10	1	-1E+10	1	-1E+10	1	-1E+10	1	-1E+10	1	-1E+10	1
4902549	30	C	06/05/2021	13:55	-132.890	47.302	0	44.00	0	10.3050	0	32.3740	0	24.852	0	43.629	0	273.0	4	98.2	4	-1E+10	1	-1E+10	1	-1E+10	1	-1E+10	1	-1E+10	1	-1E+10	1
4902549	30	C	06/05/2021	13:55	-132.890	47.302	0	44.90	0	10.2600	0	32.3720	0	24.858	0	44.521	0	273.0	4	98.1	4	-1E+10	1	-1E+10	1	-1E+10	1	-1E+10	1	-1E+10	1	-1E+10	1
4902549	30	C	06/05/2021	13:55	-132.890	47.302	0	45.80	0	10.1410	0	32.3770	0	24.882	0	45.414	0	273.2	4	97.9	4	-1E+10	1	-1E+10	1	-1E+10	1	-1E+10	1	-1E+10	1	-1E+10	1
4902549	30	C	06/05/2021	13:55	-132.890	47.302	0	47.00	0	10.0630	0	32.3790	0	24.897	0	46.603	0	273.2	4	97.8	4	-1E+10	1	-1E+10	1	-1E+10	1	-1E+10	1	-1E+10	1	-1E+10	1
4902549	30	C	06/05/2021	13:55	-132.890	47.302	0	48.30	0	9.8700	0	32.3840	0	24.933	0	47.892	0	273.7	4	97.5	4	-1E+10	1	-1E+10	1	-1E+10	1	-1E+10	1	-1E+10	1	-1E+10	1
4902549	30	C	06/05/2021	13:55	-132.890	47.302	0	49.00	0	9.8060	0	32.3880	0	24.946	0	48.586	0	273.9	4	97.5	4	-1E+10	1	-1E+10	1	-1E+10	1	-1E+10	1	-1E+10	1	-1E+10	1
4902549	30	C	06/05/2021	13:55	-132.890	47.302	0	50.10	0	9.7660	0	32.3920	0	24.956	0	49.677	0	273.8	4	97.3	4	-1E+10	1	-1E+10	1	-1E+10	1	-1E+10	1	-1E+10	1	-1E+10	1
4902549	30	C	06/05/2021	13:55	-132.890	47.302	0	51.10	0	9.7030	0	32.3890	0	24.964	0	50.668	0	273.8	4	97.2	4	-1E+10	1	-1E+10	1	-1E+10	1	-1E+10	1	-1E+10	1	-1E+10	1
4902549	30	C	06/05/2021	13:55	-132.890	47.302	0	52.00	0	9.6450	0	32.3910	0	24.975	0	51.560	0	273.8	4	97.1	4	-1E+10	1	-1E+10	1	-1E+10	1	-1E+10	1	-1E+10	1	-1E+10	1
4902549	30	C	06/05/2021	13:55	-132.890	47.302	0	52.80	0	9.5940	0	32.3930	0	24.985	0	52.354	0	273.9	4	97.0	4	-1E+10	1	-1E+10	1	-1E+10	1	-1E+10	1	-1E+10	1	-1E+10	1
4902549	30	C	06/05/2021	13:55	-132.890	47.302	0	53.90	0	9.5330	0	32.3930	0	24.994	0	53.444	0	273.8	4	96.9	4	-1E+10	1	-1E+10	1	-1E+10	1	-1E+10	1	-1E+10	1	-1E+10	1
4902549	30	C	06/05/2021	13:55	-132.890	47.302	0	55.10	0	9.3630	0	32.4010	0	25.028	0	54.634	0	274.3	4	96.7	4	-1E+10	1	-1E+10	1	-1E+10	1	-1E+10	1	-1E+10	1	-1E+10	1
4902549	30	C	06/05/2021	13:55	-132.890	47.302	0	56.00	0	9.2850	0	32.4010	0	25.040	0	55.526	0	274.5	4	96.6	4	-1E+10	1	-1E+10	1	-1E+10	1	-1E+10	1	-1E+10	1	-1E+10	1
4902549	30	C	06/05/2021	13:55	-132.890	47.302	0	57.00	0	9.2480	0	32.4030	0	25.048	0	56.518	0	274.4	4	96.5	4	-1E+10	1	-1E+10	1	-1E+10	1	-1E+10	1	-1E+10	1	-1E+10	1
4902549	30	C	06/05/2021	13:55	-132.890	47.302	0	57.90	0	9.1870	0	32.3980	0	25.053	0	57.410	0	274.5	4	96.4	4	-1E+10	1	-1E+10	1	-1E+10	1	-1E+10	1	-1E+10	1	-1E+10	1
4902549	30	C	06/05/2021	13:55	-132.890	47.302	0	58.80	0	9.1160	0	32.3990	0	25.065	0	58.302	0	274.3	4	96.2	4	-1E+10	1	-1E+10	1	-1E+10	1	-1E+10	1	-1E+10	1	-1E+10	1
4902549	30	C	06/05/2021	13:55	-132.890	47.302	0	60.10	0	9.0820	0	32.4010	0	25.072	0	59.591	0	273.7	4	95.9	4	-1E+10	1	-1E+10	1	-1E+10	1	-1E+10	1	-1E+10	1	-1E+10	1
4902549	30	C	06/05/2021	13:55	-132.890	47.302	0	61.00	0	9.0420	0	32.4020	0	25.079	0	60.483	0	273.3	4	95.7	4	-1E+10	1	-1E+10	1	-1E+10	1	-1E+10	1	-1E+10	1	-1E+10	1
4902549	30	C	06/05/2021	13:55	-132.890	47.302	0	62.00	0	8.9930	0	32.4030	0	25.087	0	61.474	0	272.9	4	95.4	4	-1E+10	1	-1E+10	1	-1E+10	1	-1E+10	1	-1E+10	1	-1E+10	1
4902549	30	C	06/05/2021	13:55	-132.890	47.302	0	63.00	0	8.9290	0	32.4020	0	25.097	0	62.466	0	272.5	4	95.1	4	-1E+10	1	-1E+10	1	-1E+10	1	-1E+10	1	-1E+10	1	-1E+10	1
4902549	30	C	06/05/2021	13:55	-132.890	47.302	0	63.90	0	8.8680	0	32.4050	0	25.108	0	63.358	0	272.2	4	94.9	4	-1E+10	1	-1E+10	1	-1E+10	1	-1E+10	1	-1E+10	1	-1E+10	1
4902549	30	C	06/05/2021	13:55	-132.890	47.302	0	64.90	0	8.8420	0	32.4060	0	25.113	0	64.349	0	271.8	4	94.7	4	-1E+10	1	-1E+10	1	-1E+10	1	-1E+10	1	-1E+10	1	-1E+10	1
4902549	30	C	06/05/2021	13:55	-132.890	47.302	0	65.90	0	8.8200	0	32.4070	0	25.117	0	65.341	0	271.5	4	94.6	4	-1E+10	1	-1E+10	1	-1E+10	1	-1E+10	1	-1E+10	1	-1E+10	1
4902549	30	C	06/05/2021	13:55	-132.890	47.302	0	67.10	0	8.7990	0	32.4080	0	25.121	0	66.530	0	270.9	4	94.3	4	-1E+10	1	-1E+10	1	-1E+10	1	-1E+10	1	-1E+10	1	-1E+10	1
4902549	30	C	06/05/2021	13:55	-132.890	47.302	0	68.10	0	8.7930	0	32.4080	0	25.122	0	67.522	0	270.5	4	94.2	4	-1E+10	1	-1E+10	1	-1E+10	1	-1E+10	1	-1E+10	1	-1E+10	1
4902549	30	C	06/05/2021	13:55	-132.890	47.302	0	69.00	0	8.7840	0	32.4070	0	25.123	0	68.414	0	270.0	4	94.0	4	-1E+10	1	-1E+10	1	-1E+10	1	-1E+10	1	-1E+10	1	-1E+10	1
4902549	30	C	06/05/2021	13:55	-132.890	47.302	0	69.90	0	8.7740	0	32.4060	0	25.124	0	69.306	0	269.8	4	93.9	4	-1E+10	1	-1E+10	1	-1E+10	1	-1E+10	1	-1E+10	1	-1E+10	1
4902549	30	C	06/05/2021	13:55	-132.890	47.302	0	70.90	0	8.7490	0	32.4050	0	25.127	0	70.297	0	269.6	4	93.8	4	-1E+10	1	-1E+10	1	-1E+10	1	-1E+10	1	-1E+10	1	-1E+10	1
4902549	30	C	06/05/2021	13:55	-132.890	47.302	0	72.10	0	8.7270	0	32.4070	0	25.132	0	71.487	0	269.5	4	93.7	4	-1E+10	1	-1E+10	1	-1E+10	1	-1E+10	1	-1E+10	1	-1E+10	1
4902549	30	C	06/05/2021	13:55	-132.890	47.302	0	73.10	0	8.6960	0	32.4080	0	25.137	0	72.478	0	269.7	4	93.7	4	-1E+10	1	-1E+10	1	-1E+10	1	-1E+10	1	-1E+10	1	-1E+10	1
4902549	30	C	06/05/2021	13:55	-132.890	47.302	0	73.90	0	8.6700	0	32.4110	0	25.143	0	73.271	0	269.8	4	93.7	4	-1E+10	1	-1E+10	1	-1E+10	1	-1E+10	1	-1E+10	1	-1E+10	1
4902549	30	C	06/05/2021	13:55	-132.890	47.302	0	75.10	0	8.6580	0	32.4120	0	25.146	0	74.461	0	270.0	4	93.7	4	-1E+10	1	-1E+10	1	-1E+10	1	-1E+10	1	-1E+10	1	-1E+10	1
4902549	30	C	06/05/2021	13:55	-132.890	47.302	0	75.90	0	8.6500	0	32.4140	0	25.149	0	75.254	0	269.9	4	93.7	4	-1E+10	1	-1E+10	1	-1E+10	1	-1E+10	1	-1E+10	1	-1E+10	1
4902549	30	C	06/05/2021	13:55	-132.890	47.302	0	76.80	0	8.6340	0	32.4140	0	25.151	0	76.146	0	270.1	4	93.7	4	-1E+10	1	-1E+10	1	-1E+10	1	-1E+10	1	-1E+10	1	-1E+10	1
4902549	30	C	06/05/2021	13:55	-132.890	47.302	0	77.90	0	8.6180	0	32.4140	0	25.154	0	77.237	0	270.2	4	93.7	4	-1E+10	1	-1E+10	1	-1E+10	1	-1E+10	1	-1E+10	1	-1E+10	1
4902549	30	C	06/05/2021	13:55	-132.890	47.302	0	79.10	0	8.5850	0	32.4180	0	25.162	0	78.426	0	270.2	4	93.6	4	-1E+10	1	-1E+10	1	-1E+10	1	-1E+10	1	-1E+10	1	-1E+10	1
4902549	30	C	06/05/2021	13:55	-132.890	47.302	0	79.90	0	8.5650	0	32.4180	0	25.165	0	79.219	0	270.2	4	93.6	4	-1E+10	1	-1E+10	1	-1E+10	1	-1E+10	1	-1E+10	1	-1E+10	1
4902549	30	C	06/05/2021	13:55	-132.890	47.302	0	80.80	0	8.5510	0	32.4190	0	25.168	0	80.111	0	270.1	4	93.5	4	-1E+10	1	-1E+10	1	-1E+10	1	-1E+10	1	-1E+10	1	-1E+10	1
4902549	30	C	06/05/2021	13:55	-132.890	47.302	0	81.90	0	8.5280	0	32.4200	0	25.172	0	81.202	0	269.9	4	93.4	4	-1E+10	1	-1E+10	1	-1E+10	1	-1E+10	1	-1E+10	1	-1E+10	1
4902549	30	C	06/05/2021	13:55	-132.890	47.302	0	83.00	0	8.5080	0	32.4210	0	25.176	0	82.292	0	269.7	4	93.3	4	-1E+10	1	-1E+10	1	-1E+10	1	-1E+10	1	-1E+10	1	-1E+10	1
4902549	30	C	06/05/2021	13:55	-132.890	47.302	0	84.10	0	8.4940	0	32.4210	0	25.178	0	83.383	0	269.4	4	93.2	4	-1E+10	1	-1E+10	1	-1E+10	1	-1E+10	1	-1E+10	1	-1E+10	1
4902549	30	C	06/05/2021	13:55	-132.890	47.302	0	85.00	0	8.4930	0	32.4200	0	25.177	0	84.275	0	269.1	4	93.1	4	-1E+10	1	-1E+10	1	-1E+10	1	-1E+10	1	-1E+10	1	-1E+10	1
4902549	30	C	06/05/2021	13:55	-132.890	47.302	0	85.80	0	8.4840	0	32.4200	0	25.179	0	85.068	0	268.5	4	92.9	4	-1E+10	1	-1E+10	1	-1E+10	1	-1E+10	1	-1E+10	1	-1E+10	1
4902549	30	C	06/05/2021	13:55	-132.890	47.302	0	86.90	0	8.4700	0	32.4230	0	25.183	0	86.158	0	268.1	4	92.7	4	-1E+10	1	-1E+10	1	-1E+10	1	-1E+10	1	-1E+10	1	-1E+10	1
4902549	30	C	06/05/2021	13:55	-132.890	47.302	0	88.00	0	8.4590	0	32.4230	0	25.185	0	87.249	0	267.8	4	92.6	4	-1E+10	1	-1E+10	1	-1E+10	1	-1E+10	1	-1E+10	1	-1E+10	1
4902549	30	C	06/05/2021	13:55	-132.890	47.302	0	88.90	0	8.4210	0	32.4250	0	25.192	0	88.141	0	267.6	4	92.4	4	-1E+10	1	-1E+10	1	-1E+10	1	-1E+10	1	-1E+10	1	-1E+10	1
4902549	30	C	06/05/2021	13:55	-132.890	47.302	0	89.70	0	8.3830	0	32.4220	0	25.195	0	88.934	0	267.5	4	92.3	4	-1E+10	1	-1E+10	1	-1E+10	1	-1E+10	1	-1E+10	1	-1E+10	1
4902549	30	C	06/05/2021	13:55	-132.890	47.302	0	90.80	0	8.3650	0	32.4280	0	25.203	0	90.024	0	267.2	4	92.1	4	-1E+10	1	-1E+10	1	-1E+10	1	-1E+10	1	-1E+10	1	-1E+10	1
4902549	30	C	06/05/2021	13:55	-132.890	47.302	0	91.90	0	8.3080	0	32.4250	0	25.209	0	91.114	0	267.2	4	92.0	4	-1E+10	1	-1E+10	1	-1E+10	1	-1E+10	1	-1E+10	1	-1E+10	1
4902549	30	C	06/05/2021	13:55	-132.890	47.302	0	92.90	0	8.2050	0	32.4210	0	25.221	0	92.106	0	267.0	4	91.8	4	-1E+10	1	-1E+10	1	-1E+10	1	-1E+10	1	-1E+10	1	-1E+10	1
4902549	30	C	06/05/2021	13:55	-132.890	47.302	0	94.00	0	8.1780	0	32.4220	0	25.225	0	93.196	0	266.0	4	91.4	4	-1E+10	1	-1E+10	1	-1E+10	1	-1E+10	1	-1E+10	1	-1E+10	1
4902549	30	C	06/05/2021	13:55	-132.890	47.302	0	94.90	0	8.1760	0	32.4240	0	25.227	0	94.088	0	265.1	4	91.0	4	-1E+10	1	-1E+10	1	-1E+10	1	-1E+10	1	-1E+10	1	-1E+10	1
4902549	30	C	06/05/2021	13:55	-132.890	47.302	0	95.90	0	8.1630	0	32.4260	0	25.231	0	95.079	0	263.7	4	90.5	4	-1E+10	1	-1E+10	1	-1E+10	1	-1E+10	1	-1E+10	1	-1E+10	1
4902549	30	C	06/05/2021	13:55	-132.890	47.302	0	97.10	0	8.1490	0	32.4290	0	25.235	0	96.269	0	262.2	4	90.0	4	-1E+10	1	-1E+10	1	-1E+10	1	-1E+10	1	-1E+10	1	-1E+10	1
4902549	30	C	06/05/2021	13:55	-132.890	47.302	0	98.00	0	8.1350	0	32.4300	0	25.238	0	97.161	0	260.8	4	89.5	4	-1E+10	1	-1E+10	1	-1E+10	1	-1E+10	1	-1E+10	1	-1E+10	1
4902549	30	C	06/05/2021	13:55	-132.890	47.302	0	98.90	0	8.0620	0	32.4330	0	25.251	0	98.053	0	259.3	4	88.8	4	-1E+10	1	-1E+10	1	-1E+10	1	-1E+10	1	-1E+10	1	-1E+10	1
4902549	30	C	06/05/2021	13:55	-132.890	47.302	0	99.80	0	8.0620	0	32.4390	0	25.256	0	98.945	0	257.1	4	88.1	4	-1E+10	1	-1E+10	1	-1E+10	1	-1E+10	1	-1E+10	1	-1E+10	1
4902549	30	C	06/05/2021	13:55	-132.890	47.302	0	101.00	0	8.0890	0	32.4520	0	25.262	0	100.134	0	254.6	4	87.3	4	-1E+10	1	-1E+10	1	-1E+10	1	-1E+10	1	-1E+10	1	-1E+10	1
4902549	30	C	06/05/2021	13:55	-132.890	47.302	0	102.20	0	8.1120	0	32.4690	0	25.272	0	101.324	0	252.0	4	86.4	4	-1E+10	1	-1E+10	1	-1E+10	1	-1E+10	1	-1E+10	1	-1E+10	1
4902549	30	C	06/05/2021	13:55	-132.890	47.302	0	103.00	0	8.1200	0	32.4760	0	25.276	0	102.117	0	250.0	4	85.8	4	-1E+10	1	-1E+10	1	-1E+10	1	-1E+10	1	-1E+10	1	-1E+10	1
4902549	30	C	06/05/2021	13:55	-132.890	47.302	0	104.20	0	8.1630	0	32.4980	0	25.287	0	103.306	0	246.8	4	84.8	4	-1E+10	1	-1E+10	1	-1E+10	1	-1E+10	1	-1E+10	1	-1E+10	1
4902549	30	C	06/05/2021	13:55	-132.890	47.302	0	105.10	0	8.1840	0	32.5190	0	25.301	0	104.198	0	245.0	4	84.2	4	-1E+10	1	-1E+10	1	-1E+10	1	-1E+10	1	-1E+10	1	-1E+10	1
4902549	30	C	06/05/2021	13:55	-132.890	47.302	0	106.00	0	8.2080	0	32.5440	0	25.317	0	105.090	0	243.4	4	83.7	4	-1E+10	1	-1E+10	1	-1E+10	1	-1E+10	1	-1E+10	1	-1E+10	1
4902549	30	C	06/05/2021	13:55	-132.890	47.302	0	106.70	0	8.2210	0	32.5600	0	25.328	0	105.784	0	242.1	4	83.3	4	-1E+10	1	-1E+10	1	-1E+10	1	-1E+10	1	-1E+10	1	-1E+10	1
4902549	30	C	06/05/2021	13:55	-132.890	47.302	0	107.70	0	8.2280	0	32.5750	0	25.338	0	106.775	0	240.2	4	82.7	4	-1E+10	1	-1E+10	1	-1E+10	1	-1E+10	1	-1E+10	1	-1E+10	1
4902549	30	C	06/05/2021	13:55	-132.890	47.302	0	109.10	0	8.2350	0	32.5860	0	25.346	0	108.163	0	237.2	4	81.7	4	-1E+10	1	-1E+10	1	-1E+10	1	-1E+10	1	-1E+10	1	-1E+10	1
4902549	30	C	06/05/2021	13:55	-132.890	47.302	0	110.10	0	8.2460	0	32.6000	0	25.355	0	109.154	0	235.3	4	81.0	4	-1E+10	1	-1E+10	1	-1E+10	1	-1E+10	1	-1E+10	1	-1E+10	1
4902549	30	C	06/05/2021	13:55	-132.890	47.302	0	111.00	0	8.2530	0	32.6170	0	25.368	0	110.046	0	233.4	4	80.4	4	-1E+10	1	-1E+10	1	-1E+10	1	-1E+10	1	-1E+10	1	-1E+10	1
4902549	30	C	06/05/2021	13:55	-132.890	47.302	0	112.10	0	8.2600	0	32.6460	0	25.389	0	111.136	0	231.4	4	79.8	4	-1E+10	1	-1E+10	1	-1E+10	1	-1E+10	1	-1E+10	1	-1E+10	1
4902549	30	C	06/05/2021	13:55	-132.890	47.302	0	113.00	0	8.2600	0	32.6700	0	25.408	0	112.028	0	229.9	4	79.2	4	-1E+10	1	-1E+10	1	-1E+10	1	-1E+10	1	-1E+10	1	-1E+10	1
4902549	30	C	06/05/2021	13:55	-132.890	47.302	0	113.80	0	8.2570	0	32.6960	0	25.429	0	112.821	0	228.7	4	78.8	4	-1E+10	1	-1E+10	1	-1E+10	1	-1E+10	1	-1E+10	1	-1E+10	1
4902549	30	C	06/05/2021	13:55	-132.890	47.302	0	115.00	0	8.2540	0	32.7190	0	25.448	0	114.011	0	227.1	4	78.3	4	-1E+10	1	-1E+10	1	-1E+10	1	-1E+10	1	-1E+10	1	-1E+10	1
4902549	30	C	06/05/2021	13:55	-132.890	47.302	0	115.90	0	8.2520	0	32.7400	0	25.464	0	114.903	0	225.7	4	77.8	4	-1E+10	1	-1E+10	1	-1E+10	1	-1E+10	1	-1E+10	1	-1E+10	1
4902549	30	C	06/05/2021	13:55	-132.890	47.302	0	116.80	0	8.2330	0	32.7700	0	25.491	0	115.795	0	224.5	4	77.4	4	-1E+10	1	-1E+10	1	-1E+10	1	-1E+10	1	-1E+10	1	-1E+10	1
4902549	30	C	06/05/2021	13:55	-132.890	47.302	0	118.00	0	8.2090	0	32.8100	0	25.526	0	116.984	0	223.4	4	77.0	4	-1E+10	1	-1E+10	1	-1E+10	1	-1E+10	1	-1E+10	1	-1E+10	1
4902549	30	C	06/05/2021	13:55	-132.890	47.302	0	119.00	0	8.2010	0	32.8250	0	25.539	0	117.975	0	222.5	4	76.7	4	-1E+10	1	-1E+10	1	-1E+10	1	-1E+10	1	-1E+10	1	-1E+10	1
4902549	30	C	06/05/2021	13:55	-132.890	47.302	0	119.90	0	8.1890	0	32.8420	0	25.554	0	118.867	0	221.7	4	76.4	4	-1E+10	1	-1E+10	1	-1E+10	1	-1E+10	1	-1E+10	1	-1E+10	1
4902549	30	C	06/05/2021	13:55	-132.890	47.302	0	120.90	0	8.1810	0	32.8530	0	25.564	0	119.858	0	220.7	4	76.0	4	-1E+10	1	-1E+10	1	-1E+10	1	-1E+10	1	-1E+10	1	-1E+10	1
4902549	30	C	06/05/2021	13:55	-132.890	47.302	0	122.00	0	8.1730	0	32.8600	0	25.570	0	120.948	0	219.2	4	75.5	4	-1E+10	1	-1E+10	1	-1E+10	1	-1E+10	1	-1E+10	1	-1E+10	1
4902549	30	C	06/05/2021	13:55	-132.890	47.302	0	123.00	0	8.1640	0	32.8690	0	25.579	0	121.939	0	217.3	4	74.8	4	-1E+10	1	-1E+10	1	-1E+10	1	-1E+10	1	-1E+10	1	-1E+10	1
4902549	30	C	06/05/2021	13:55	-132.890	47.302	0	124.00	0	8.1440	0	32.8920	0	25.600	0	122.930	0	214.4	4	73.8	4	-1E+10	1	-1E+10	1	-1E+10	1	-1E+10	1	-1E+10	1	-1E+10	1
4902549	30	C	06/05/2021	13:55	-132.890	47.302	0	125.00	0	8.1390	0	32.9370	0	25.636	0	123.921	0	210.9	4	72.6	4	-1E+10	1	-1E+10	1	-1E+10	1	-1E+10	1	-1E+10	1	-1E+10	1
4902549	30	C	06/05/2021	13:55	-132.890	47.302	0	125.90	0	8.1420	0	33.0060	0	25.689	0	124.813	0	207.7	4	71.6	4	-1E+10	1	-1E+10	1	-1E+10	1	-1E+10	1	-1E+10	1	-1E+10	1
4902549	30	C	06/05/2021	13:55	-132.890	47.302	0	127.10	0	8.0900	0	33.0970	0	25.768	0	126.003	0	205.4	4	70.7	4	-1E+10	1	-1E+10	1	-1E+10	1	-1E+10	1	-1E+10	1	-1E+10	1
4902549	30	C	06/05/2021	13:55	-132.890	47.302	0	127.90	0	8.0480	0	33.1350	0	25.804	0	126.796	0	204.8	4	70.5	4	-1E+10	1	-1E+10	1	-1E+10	1	-1E+10	1	-1E+10	1	-1E+10	1
4902549	30	C	06/05/2021	13:55	-132.890	47.302	0	129.20	0	8.0370	0	33.1610	0	25.826	0	128.084	0	203.8	4	70.1	4	-1E+10	1	-1E+10	1	-1E+10	1	-1E+10	1	-1E+10	1	-1E+10	1
4902549	30	C	06/05/2021	13:55	-132.890	47.302	0	130.10	0	8.0200	0	33.1760	0	25.841	0	128.976	0	203.1	4	69.9	4	-1E+10	1	-1E+10	1	-1E+10	1	-1E+10	1	-1E+10	1	-1E+10	1
4902549	30	C	06/05/2021	13:55	-132.890	47.302	0	130.80	0	7.9980	0	33.1880	0	25.853	0	129.670	0	202.8	4	69.7	4	-1E+10	1	-1E+10	1	-1E+10	1	-1E+10	1	-1E+10	1	-1E+10	1
4902549	30	C	06/05/2021	13:55	-132.890	47.302	0	131.80	0	7.9660	0	33.2060	0	25.872	0	130.661	0	202.2	4	69.5	4	-1E+10	1	-1E+10	1	-1E+10	1	-1E+10	1	-1E+10	1	-1E+10	1
4902549	30	C	06/05/2021	13:55	-132.890	47.302	0	132.70	0	7.9370	0	33.2200	0	25.887	0	131.553	0	201.5	4	69.2	4	-1E+10	1	-1E+10	1	-1E+10	1	-1E+10	1	-1E+10	1	-1E+10	1
4902549	30	C	06/05/2021	13:55	-132.890	47.302	0	133.70	0	7.9170	0	33.2290	0	25.897	0	132.544	0	200.7	4	68.9	4	-1E+10	1	-1E+10	1	-1E+10	1	-1E+10	1	-1E+10	1	-1E+10	1
4902549	30	C	06/05/2021	13:55	-132.890	47.302	0	134.70	0	7.8980	0	33.2380	0	25.907	0	133.535	0	199.9	4	68.6	4	-1E+10	1	-1E+10	1	-1E+10	1	-1E+10	1	-1E+10	1	-1E+10	1
4902549	30	C	06/05/2021	13:55	-132.890	47.302	0	135.70	0	7.8490	0	33.2630	0	25.934	0	134.526	0	199.2	4	68.3	4	-1E+10	1	-1E+10	1	-1E+10	1	-1E+10	1	-1E+10	1	-1E+10	1
4902549	30	C	06/05/2021	13:55	-132.890	47.302	0	136.80	0	7.7650	0	33.3100	0	25.983	0	135.616	0	198.9	4	68.1	4	-1E+10	1	-1E+10	1	-1E+10	1	-1E+10	1	-1E+10	1	-1E+10	1
4902549	30	C	06/05/2021	13:55	-132.890	47.302	0	138.00	0	7.7300	0	33.3360	0	26.008	0	136.805	0	198.5	4	67.9	4	-1E+10	1	-1E+10	1	-1E+10	1	-1E+10	1	-1E+10	1	-1E+10	1
4902549	30	C	06/05/2021	13:55	-132.890	47.302	0	138.90	0	7.7190	0	33.3460	0	26.018	0	137.697	0	198.2	4	67.8	4	-1E+10	1	-1E+10	1	-1E+10	1	-1E+10	1	-1E+10	1	-1E+10	1
4902549	30	C	06/05/2021	13:55	-132.890	47.302	0	139.80	0	7.7120	0	33.3490	0	26.021	0	138.589	0	197.8	4	67.7	4	-1E+10	1	-1E+10	1	-1E+10	1	-1E+10	1	-1E+10	1	-1E+10	1
4902549	30	C	06/05/2021	13:55	-132.890	47.302	0	140.80	0	7.6710	0	33.3780	0	26.050	0	139.580	0	197.5	4	67.5	4	-1E+10	1	-1E+10	1	-1E+10	1	-1E+10	1	-1E+10	1	-1E+10	1
4902549	30	C	06/05/2021	13:55	-132.890	47.302	0	141.80	0	7.6510	0	33.3900	0	26.062	0	140.571	0	197.3	4	67.4	4	-1E+10	1	-1E+10	1	-1E+10	1	-1E+10	1	-1E+10	1	-1E+10	1
4902549	30	C	06/05/2021	13:55	-132.890	47.302	0	142.90	0	7.6360	0	33.3980	0	26.071	0	141.661	0	197.0	4	67.3	4	-1E+10	1	-1E+10	1	-1E+10	1	-1E+10	1	-1E+10	1	-1E+10	1
4902549	30	C	06/05/2021	13:55	-132.890	47.302	0	144.00	0	7.6210	0	33.4060	0	26.079	0	142.751	0	196.7	4	67.2	4	-1E+10	1	-1E+10	1	-1E+10	1	-1E+10	1	-1E+10	1	-1E+10	1
4902549	30	C	06/05/2021	13:55	-132.890	47.302	0	145.10	0	7.6170	0	33.4060	0	26.080	0	143.841	0	196.3	4	67.1	4	-1E+10	1	-1E+10	1	-1E+10	1	-1E+10	1	-1E+10	1	-1E+10	1
4902549	30	C	06/05/2021	13:55	-132.890	47.302	0	145.90	0	7.6010	0	33.4130	0	26.087	0	144.634	0	196.1	4	67.0	4	-1E+10	1	-1E+10	1	-1E+10	1	-1E+10	1	-1E+10	1	-1E+10	1
4902549	30	C	06/05/2021	13:55	-132.890	47.302	0	147.00	0	7.5890	0	33.4170	0	26.092	0	145.724	0	195.7	4	66.8	4	-1E+10	1	-1E+10	1	-1E+10	1	-1E+10	1	-1E+10	1	-1E+10	1
4902549	30	C	06/05/2021	13:55	-132.890	47.302	0	148.10	0	7.5790	0	33.4210	0	26.097	0	146.814	0	195.4	4	66.7	4	-1E+10	1	-1E+10	1	-1E+10	1	-1E+10	1	-1E+10	1	-1E+10	1
4902549	30	C	06/05/2021	13:55	-132.890	47.302	0	148.90	0	7.5650	0	33.4280	0	26.104	0	147.607	0	195.1	4	66.6	4	-1E+10	1	-1E+10	1	-1E+10	1	-1E+10	1	-1E+10	1	-1E+10	1
4902549	30	C	06/05/2021	13:55	-132.890	47.302	0	149.70	0	7.5410	0	33.4390	0	26.116	0	148.399	0	194.9	4	66.5	4	-1E+10	1	-1E+10	1	-1E+10	1	-1E+10	1	-1E+10	1	-1E+10	1
4902549	30	C	06/05/2021	13:55	-132.890	47.302	0	151.00	0	7.4980	0	33.4630	0	26.141	0	149.688	0	194.7	4	66.3	4	-1E+10	1	-1E+10	1	-1E+10	1	-1E+10	1	-1E+10	1	-1E+10	1
4902549	30	C	06/05/2021	13:55	-132.890	47.302	0	152.30	0	7.4890	0	33.4700	0	26.148	0	150.976	0	194.3	4	66.2	4	-1E+10	1	-1E+10	1	-1E+10	1	-1E+10	1	-1E+10	1	-1E+10	1
4902549	30	C	06/05/2021	13:55	-132.890	47.302	0	153.10	0	7.4800	0	33.4750	0	26.153	0	151.769	0	194.1	4	66.1	4	-1E+10	1	-1E+10	1	-1E+10	1	-1E+10	1	-1E+10	1	-1E+10	1
4902549	30	C	06/05/2021	13:55	-132.890	47.302	0	154.00	0	7.4670	0	33.4820	0	26.161	0	152.661	0	193.9	4	66.0	4	-1E+10	1	-1E+10	1	-1E+10	1	-1E+10	1	-1E+10	1	-1E+10	1
4902549	30	C	06/05/2021	13:55	-132.890	47.302	0	154.90	0	7.4640	0	33.4830	0	26.162	0	153.552	0	193.7	4	66.0	4	-1E+10	1	-1E+10	1	-1E+10	1	-1E+10	1	-1E+10	1	-1E+10	1
4902549	30	C	06/05/2021	13:55	-132.890	47.302	0	155.80	0	7.4530	0	33.4920	0	26.171	0	154.444	0	193.4	4	65.8	4	-1E+10	1	-1E+10	1	-1E+10	1	-1E+10	1	-1E+10	1	-1E+10	1
4902549	30	C	06/05/2021	13:55	-132.890	47.302	0	156.70	0	7.4320	0	33.5030	0	26.182	0	155.336	0	193.2	4	65.8	4	-1E+10	1	-1E+10	1	-1E+10	1	-1E+10	1	-1E+10	1	-1E+10	1
4902549	30	C	06/05/2021	13:55	-132.890	47.302	0	157.60	0	7.4310	0	33.5040	0	26.183	0	156.228	0	193.1	4	65.7	4	-1E+10	1	-1E+10	1	-1E+10	1	-1E+10	1	-1E+10	1	-1E+10	1
4902549	30	C	06/05/2021	13:55	-132.890	47.302	0	158.60	0	7.4290	0	33.5050	0	26.184	0	157.219	0	192.9	4	65.6	4	-1E+10	1	-1E+10	1	-1E+10	1	-1E+10	1	-1E+10	1	-1E+10	1
4902549	30	C	06/05/2021	13:55	-132.890	47.302	0	159.90	0	7.4140	0	33.5120	0	26.192	0	158.507	0	192.4	4	65.5	4	-1E+10	1	-1E+10	1	-1E+10	1	-1E+10	1	-1E+10	1	-1E+10	1
4902549	30	C	06/05/2021	13:55	-132.890	47.302	0	161.40	0	7.4050	0	33.5170	0	26.197	0	159.993	0	192.1	4	65.3	4	-1E+10	1	-1E+10	1	-1E+10	1	-1E+10	1	-1E+10	1	-1E+10	1
4902549	30	C	06/05/2021	13:55	-132.890	47.302	0	162.30	0	7.3960	0	33.5200	0	26.201	0	160.885	0	191.8	4	65.2	4	-1E+10	1	-1E+10	1	-1E+10	1	-1E+10	1	-1E+10	1	-1E+10	1
4902549	30	C	06/05/2021	13:55	-132.890	47.302	0	163.20	0	7.3860	0	33.5230	0	26.204	0	161.777	0	191.5	4	65.1	4	-1E+10	1	-1E+10	1	-1E+10	1	-1E+10	1	-1E+10	1	-1E+10	1
4902549	30	C	06/05/2021	13:55	-132.890	47.302	0	164.20	0	7.3820	0	33.5250	0	26.207	0	162.768	0	191.2	4	65.0	4	-1E+10	1	-1E+10	1	-1E+10	1	-1E+10	1	-1E+10	1	-1E+10	1
4902549	30	C	06/05/2021	13:55	-132.890	47.302	0	165.10	0	7.3690	0	33.5310	0	26.213	0	163.660	0	190.9	4	64.9	4	-1E+10	1	-1E+10	1	-1E+10	1	-1E+10	1	-1E+10	1	-1E+10	1
4902549	30	C	06/05/2021	13:55	-132.890	47.302	0	166.00	0	7.3530	0	33.5380	0	26.221	0	164.551	0	190.6	4	64.8	4	-1E+10	1	-1E+10	1	-1E+10	1	-1E+10	1	-1E+10	1	-1E+10	1
4902549	30	C	06/05/2021	13:55	-132.890	47.302	0	166.90	0	7.3430	0	33.5430	0	26.226	0	165.443	0	190.2	4	64.6	4	-1E+10	1	-1E+10	1	-1E+10	1	-1E+10	1	-1E+10	1	-1E+10	1
4902549	30	C	06/05/2021	13:55	-132.890	47.302	0	167.90	0	7.3220	0	33.5540	0	26.238	0	166.434	0	190.0	4	64.5	4	-1E+10	1	-1E+10	1	-1E+10	1	-1E+10	1	-1E+10	1	-1E+10	1
4902549	30	C	06/05/2021	13:55	-132.890	47.302	0	168.80	0	7.3150	0	33.5570	0	26.241	0	167.326	0	189.7	4	64.4	4	-1E+10	1	-1E+10	1	-1E+10	1	-1E+10	1	-1E+10	1	-1E+10	1
4902549	30	C	06/05/2021	13:55	-132.890	47.302	0	169.80	0	7.3010	0	33.5660	0	26.250	0	168.317	0	189.3	4	64.3	4	-1E+10	1	-1E+10	1	-1E+10	1	-1E+10	1	-1E+10	1	-1E+10	1
4902549	30	C	06/05/2021	13:55	-132.890	47.302	0	170.80	0	7.2870	0	33.5740	0	26.258	0	169.308	0	189.1	4	64.2	4	-1E+10	1	-1E+10	1	-1E+10	1	-1E+10	1	-1E+10	1	-1E+10	1
4902549	30	C	06/05/2021	13:55	-132.890	47.302	0	171.70	0	7.2820	0	33.5770	0	26.262	0	170.199	0	188.8	4	64.1	4	-1E+10	1	-1E+10	1	-1E+10	1	-1E+10	1	-1E+10	1	-1E+10	1
4902549	30	C	06/05/2021	13:55	-132.890	47.302	0	172.70	0	7.2790	0	33.5780	0	26.263	0	171.190	0	188.4	4	63.9	4	-1E+10	1	-1E+10	1	-1E+10	1	-1E+10	1	-1E+10	1	-1E+10	1
4902549	30	C	06/05/2021	13:55	-132.890	47.302	0	173.60	0	7.2760	0	33.5790	0	26.264	0	172.082	0	187.9	4	63.8	4	-1E+10	1	-1E+10	1	-1E+10	1	-1E+10	1	-1E+10	1	-1E+10	1
4902549	30	C	06/05/2021	13:55	-132.890	47.302	0	174.50	0	7.2720	0	33.5820	0	26.267	0	172.974	0	187.5	4	63.6	4	-1E+10	1	-1E+10	1	-1E+10	1	-1E+10	1	-1E+10	1	-1E+10	1
4902549	30	C	06/05/2021	13:55	-132.890	47.302	0	175.90	0	7.2640	0	33.5860	0	26.271	0	174.361	0	186.8	4	63.4	4	-1E+10	1	-1E+10	1	-1E+10	1	-1E+10	1	-1E+10	1	-1E+10	1
4902549	30	C	06/05/2021	13:55	-132.890	47.302	0	177.30	0	7.2480	0	33.5980	0	26.283	0	175.748	0	185.9	4	63.1	4	-1E+10	1	-1E+10	1	-1E+10	1	-1E+10	1	-1E+10	1	-1E+10	1
4902549	30	C	06/05/2021	13:55	-132.890	47.302	0	178.20	0	7.2400	0	33.6030	0	26.288	0	176.640	0	185.3	4	62.8	4	-1E+10	1	-1E+10	1	-1E+10	1	-1E+10	1	-1E+10	1	-1E+10	1
4902549	30	C	06/05/2021	13:55	-132.890	47.302	0	179.10	0	7.2330	0	33.6050	0	26.290	0	177.531	0	184.6	4	62.6	4	-1E+10	1	-1E+10	1	-1E+10	1	-1E+10	1	-1E+10	1	-1E+10	1
4902549	30	C	06/05/2021	13:55	-132.890	47.302	0	180.00	0	7.2140	0	33.6160	0	26.302	0	178.423	0	183.8	4	62.3	4	-1E+10	1	-1E+10	1	-1E+10	1	-1E+10	1	-1E+10	1	-1E+10	1
4902549	30	C	06/05/2021	13:55	-132.890	47.302	0	181.00	0	7.2230	0	33.6100	0	26.296	0	179.414	0	182.9	4	62.0	4	-1E+10	1	-1E+10	1	-1E+10	1	-1E+10	1	-1E+10	1	-1E+10	1
4902549	30	C	06/05/2021	13:55	-132.890	47.302	0	182.00	0	7.2010	0	33.6210	0	26.308	0	180.405	0	181.9	4	61.7	4	-1E+10	1	-1E+10	1	-1E+10	1	-1E+10	1	-1E+10	1	-1E+10	1
4902549	30	C	06/05/2021	13:55	-132.890	47.302	0	183.00	0	7.1380	0	33.6500	0	26.339	0	181.396	0	181.5	4	61.4	4	-1E+10	1	-1E+10	1	-1E+10	1	-1E+10	1	-1E+10	1	-1E+10	1
4902549	30	C	06/05/2021	13:55	-132.890	47.302	0	183.90	0	7.1190	0	33.6600	0	26.350	0	182.287	0	181.0	4	61.2	4	-1E+10	1	-1E+10	1	-1E+10	1	-1E+10	1	-1E+10	1	-1E+10	1
4902549	30	C	06/05/2021	13:55	-132.890	47.302	0	184.90	0	7.1040	0	33.6670	0	26.357	0	183.278	0	180.4	4	61.0	4	-1E+10	1	-1E+10	1	-1E+10	1	-1E+10	1	-1E+10	1	-1E+10	1
4902549	30	C	06/05/2021	13:55	-132.890	47.302	0	185.90	0	7.0840	0	33.6780	0	26.369	0	184.269	0	180.0	4	60.9	4	-1E+10	1	-1E+10	1	-1E+10	1	-1E+10	1	-1E+10	1	-1E+10	1
4902549	30	C	06/05/2021	13:55	-132.890	47.302	0	186.90	0	7.0760	0	33.6830	0	26.374	0	185.260	0	179.5	4	60.7	4	-1E+10	1	-1E+10	1	-1E+10	1	-1E+10	1	-1E+10	1	-1E+10	1
4902549	30	C	06/05/2021	13:55	-132.890	47.302	0	187.90	0	7.0690	0	33.6860	0	26.377	0	186.250	0	179.1	4	60.5	4	-1E+10	1	-1E+10	1	-1E+10	1	-1E+10	1	-1E+10	1	-1E+10	1
4902549	30	C	06/05/2021	13:55	-132.890	47.302	0	189.00	0	7.0600	0	33.6920	0	26.383	0	187.340	0	178.5	4	60.3	4	-1E+10	1	-1E+10	1	-1E+10	1	-1E+10	1	-1E+10	1	-1E+10	1
4902549	30	C	06/05/2021	13:55	-132.890	47.302	0	189.90	0	7.0540	0	33.6950	0	26.386	0	188.232	0	178.1	4	60.2	4	-1E+10	1	-1E+10	1	-1E+10	1	-1E+10	1	-1E+10	1	-1E+10	1
4902549	30	C	06/05/2021	13:55	-132.890	47.302	0	191.00	0	7.0440	0	33.7020	0	26.393	0	189.322	0	177.6	4	60.0	4	-1E+10	1	-1E+10	1	-1E+10	1	-1E+10	1	-1E+10	1	-1E+10	1
4902549	30	C	06/05/2021	13:55	-132.890	47.302	0	192.00	0	7.0390	0	33.7040	0	26.395	0	190.313	0	177.1	4	59.8	4	-1E+10	1	-1E+10	1	-1E+10	1	-1E+10	1	-1E+10	1	-1E+10	1
4902549	30	C	06/05/2021	13:55	-132.890	47.302	0	192.90	0	7.0350	0	33.7060	0	26.397	0	191.204	0	176.5	4	59.6	4	-1E+10	1	-1E+10	1	-1E+10	1	-1E+10	1	-1E+10	1	-1E+10	1
4902549	30	C	06/05/2021	13:55	-132.890	47.302	0	194.00	0	7.0220	0	33.7140	0	26.405	0	192.294	0	176.0	4	59.5	4	-1E+10	1	-1E+10	1	-1E+10	1	-1E+10	1	-1E+10	1	-1E+10	1
4902549	30	C	06/05/2021	13:55	-132.890	47.302	0	195.00	0	7.0170	0	33.7180	0	26.409	0	193.285	0	175.5	4	59.3	4	-1E+10	1	-1E+10	1	-1E+10	1	-1E+10	1	-1E+10	1	-1E+10	1
4902549	30	C	06/05/2021	13:55	-132.890	47.302	0	196.00	0	7.0110	0	33.7200	0	26.412	0	194.276	0	175.0	4	59.1	4	-1E+10	1	-1E+10	1	-1E+10	1	-1E+10	1	-1E+10	1	-1E+10	1
4902549	30	C	06/05/2021	13:55	-132.890	47.302	0	197.00	0	7.0050	0	33.7240	0	26.416	0	195.266	0	174.5	4	58.9	4	-1E+10	1	-1E+10	1	-1E+10	1	-1E+10	1	-1E+10	1	-1E+10	1
4902549	30	C	06/05/2021	13:55	-132.890	47.302	0	198.00	0	6.9930	0	33.7300	0	26.422	0	196.257	0	174.0	4	58.8	4	-1E+10	1	-1E+10	1	-1E+10	1	-1E+10	1	-1E+10	1	-1E+10	1
4902549	30	C	06/05/2021	13:55	-132.890	47.302	0	199.00	0	6.9860	0	33.7330	0	26.425	0	197.248	0	173.7	4	58.6	4	-1E+10	1	-1E+10	1	-1E+10	1	-1E+10	1	-1E+10	1	-1E+10	1
4902549	30	C	06/05/2021	13:55	-132.890	47.302	0	200.10	0	6.9830	0	33.7340	0	26.427	0	198.337	0	173.2	4	58.5	4	-1E+10	1	-1E+10	1	-1E+10	1	-1E+10	1	-1E+10	1	-1E+10	1
4902549	30	C	06/05/2021	13:55	-132.890	47.302	0	201.10	0	6.9730	0	33.7400	0	26.433	0	199.328	0	172.8	4	58.3	4	-1E+10	1	-1E+10	1	-1E+10	1	-1E+10	1	-1E+10	1	-1E+10	1
4902549	30	C	06/05/2021	13:55	-132.890	47.302	0	202.10	0	6.9720	0	33.7390	0	26.432	0	200.319	0	172.3	4	58.1	4	-1E+10	1	-1E+10	1	-1E+10	1	-1E+10	1	-1E+10	1	-1E+10	1
4902549	30	C	06/05/2021	13:55	-132.890	47.302	0	203.10	0	6.9670	0	33.7410	0	26.434	0	201.310	0	171.8	4	58.0	4	-1E+10	1	-1E+10	1	-1E+10	1	-1E+10	1	-1E+10	1	-1E+10	1
4902549	30	C	06/05/2021	13:55	-132.890	47.302	0	204.00	0	6.9610	0	33.7440	0	26.437	0	202.201	0	171.3	4	57.8	4	-1E+10	1	-1E+10	1	-1E+10	1	-1E+10	1	-1E+10	1	-1E+10	1
4902549	30	C	06/05/2021	13:55	-132.890	47.302	0	205.00	0	6.9610	0	33.7440	0	26.437	0	203.192	0	170.8	4	57.6	4	-1E+10	1	-1E+10	1	-1E+10	1	-1E+10	1	-1E+10	1	-1E+10	1
4902549	30	C	06/05/2021	13:55	-132.890	47.302	0	206.00	0	6.9550	0	33.7470	0	26.441	0	204.183	0	170.2	4	57.4	4	-1E+10	1	-1E+10	1	-1E+10	1	-1E+10	1	-1E+10	1	-1E+10	1
4902549	30	C	06/05/2021	13:55	-132.890	47.302	0	206.90	0	6.9540	0	33.7470	0	26.441	0	205.074	0	169.5	4	57.2	4	-1E+10	1	-1E+10	1	-1E+10	1	-1E+10	1	-1E+10	1	-1E+10	1
4902549	30	C	06/05/2021	13:55	-132.890	47.302	0	207.90	0	6.9500	0	33.7480	0	26.442	0	206.065	0	168.9	4	57.0	4	-1E+10	1	-1E+10	1	-1E+10	1	-1E+10	1	-1E+10	1	-1E+10	1
4902549	30	C	06/05/2021	13:55	-132.890	47.302	0	208.80	0	6.9480	0	33.7480	0	26.442	0	206.956	0	168.0	4	56.7	4	-1E+10	1	-1E+10	1	-1E+10	1	-1E+10	1	-1E+10	1	-1E+10	1
4902549	30	C	06/05/2021	13:55	-132.890	47.302	0	209.70	0	6.9370	0	33.7520	0	26.447	0	207.848	0	167.1	4	56.4	4	-1E+10	1	-1E+10	1	-1E+10	1	-1E+10	1	-1E+10	1	-1E+10	1
4902549	30	C	06/05/2021	13:55	-132.890	47.302	0	210.70	0	6.9110	0	33.7610	0	26.458	0	208.839	0	166.5	4	56.1	4	-1E+10	1	-1E+10	1	-1E+10	1	-1E+10	1	-1E+10	1	-1E+10	1
4902549	30	C	06/05/2021	13:55	-132.890	47.302	0	211.70	0	6.8900	0	33.7680	0	26.466	0	209.829	0	165.8	4	55.9	4	-1E+10	1	-1E+10	1	-1E+10	1	-1E+10	1	-1E+10	1	-1E+10	1
4902549	30	C	06/05/2021	13:55	-132.890	47.302	0	212.60	0	6.8690	0	33.7760	0	26.475	0	210.721	0	165.2	4	55.6	4	-1E+10	1	-1E+10	1	-1E+10	1	-1E+10	1	-1E+10	1	-1E+10	1
4902549	30	C	06/05/2021	13:55	-132.890	47.302	0	213.60	0	6.8610	0	33.7750	0	26.476	0	211.712	0	164.6	4	55.4	4	-1E+10	1	-1E+10	1	-1E+10	1	-1E+10	1	-1E+10	1	-1E+10	1
4902549	30	C	06/05/2021	13:55	-132.890	47.302	0	214.60	0	6.8540	0	33.7780	0	26.479	0	212.702	0	163.9	4	55.2	4	-1E+10	1	-1E+10	1	-1E+10	1	-1E+10	1	-1E+10	1	-1E+10	1
4902549	30	C	06/05/2021	13:55	-132.890	47.302	0	215.50	0	6.8520	0	33.7750	0	26.477	0	213.594	0	163.1	4	54.9	4	-1E+10	1	-1E+10	1	-1E+10	1	-1E+10	1	-1E+10	1	-1E+10	1
4902549	30	C	06/05/2021	13:55	-132.890	47.302	0	216.50	0	6.8460	0	33.7760	0	26.478	0	214.585	0	162.3	4	54.6	4	-1E+10	1	-1E+10	1	-1E+10	1	-1E+10	1	-1E+10	1	-1E+10	1
4902549	30	C	06/05/2021	13:55	-132.890	47.302	0	217.50	0	6.8210	0	33.7790	0	26.484	0	215.575	0	161.4	4	54.3	4	-1E+10	1	-1E+10	1	-1E+10	1	-1E+10	1	-1E+10	1	-1E+10	1
4902549	30	C	06/05/2021	13:55	-132.890	47.302	0	218.60	0	6.7860	0	33.7860	0	26.494	0	216.665	0	160.5	4	54.0	4	-1E+10	1	-1E+10	1	-1E+10	1	-1E+10	1	-1E+10	1	-1E+10	1
4902549	30	C	06/05/2021	13:55	-132.890	47.302	0	219.60	0	6.7740	0	33.7880	0	26.497	0	217.655	0	159.5	4	53.6	4	-1E+10	1	-1E+10	1	-1E+10	1	-1E+10	1	-1E+10	1	-1E+10	1
4902549	30	C	06/05/2021	13:55	-132.890	47.302	0	220.60	0	6.7510	0	33.7950	0	26.506	0	218.646	0	158.6	4	53.3	4	-1E+10	1	-1E+10	1	-1E+10	1	-1E+10	1	-1E+10	1	-1E+10	1
4902549	30	C	06/05/2021	13:55	-132.890	47.302	0	221.60	0	6.7470	0	33.7990	0	26.510	0	219.637	0	157.8	4	53.0	4	-1E+10	1	-1E+10	1	-1E+10	1	-1E+10	1	-1E+10	1	-1E+10	1
4902549	30	C	06/05/2021	13:55	-132.890	47.302	0	222.60	0	6.7490	0	33.8020	0	26.512	0	220.627	0	157.0	4	52.7	4	-1E+10	1	-1E+10	1	-1E+10	1	-1E+10	1	-1E+10	1	-1E+10	1
4902549	30	C	06/05/2021	13:55	-132.890	47.302	0	223.60	0	6.7490	0	33.8060	0	26.515	0	221.618	0	156.3	4	52.5	4	-1E+10	1	-1E+10	1	-1E+10	1	-1E+10	1	-1E+10	1	-1E+10	1
4902549	30	C	06/05/2021	13:55	-132.890	47.302	0	224.60	0	6.7320	0	33.8150	0	26.524	0	222.608	0	156.0	4	52.4	4	-1E+10	1	-1E+10	1	-1E+10	1	-1E+10	1	-1E+10	1	-1E+10	1
4902549	30	C	06/05/2021	13:55	-132.890	47.302	0	225.60	0	6.7270	0	33.8130	0	26.524	0	223.599	0	155.6	4	52.2	4	-1E+10	1	-1E+10	1	-1E+10	1	-1E+10	1	-1E+10	1	-1E+10	1
4902549	30	C	06/05/2021	13:55	-132.890	47.302	0	226.60	0	6.7230	0	33.8140	0	26.525	0	224.590	0	155.1	4	52.1	4	-1E+10	1	-1E+10	1	-1E+10	1	-1E+10	1	-1E+10	1	-1E+10	1
4902549	30	C	06/05/2021	13:55	-132.890	47.302	0	227.60	0	6.7210	0	33.8130	0	26.524	0	225.580	0	154.7	4	51.9	4	-1E+10	1	-1E+10	1	-1E+10	1	-1E+10	1	-1E+10	1	-1E+10	1
4902549	30	C	06/05/2021	13:55	-132.890	47.302	0	228.60	0	6.7060	0	33.8180	0	26.530	0	226.571	0	154.3	4	51.8	4	-1E+10	1	-1E+10	1	-1E+10	1	-1E+10	1	-1E+10	1	-1E+10	1
4902549	30	C	06/05/2021	13:55	-132.890	47.302	0	229.70	0	6.6890	0	33.8190	0	26.533	0	227.660	0	154.0	4	51.7	4	-1E+10	1	-1E+10	1	-1E+10	1	-1E+10	1	-1E+10	1	-1E+10	1
4902549	30	C	06/05/2021	13:55	-132.890	47.302	0	230.70	0	6.6890	0	33.8190	0	26.533	0	228.651	0	153.7	4	51.5	4	-1E+10	1	-1E+10	1	-1E+10	1	-1E+10	1	-1E+10	1	-1E+10	1
4902549	30	C	06/05/2021	13:55	-132.890	47.302	0	231.70	0	6.6820	0	33.8210	0	26.536	0	229.642	0	153.3	4	51.4	4	-1E+10	1	-1E+10	1	-1E+10	1	-1E+10	1	-1E+10	1	-1E+10	1
4902549	30	C	06/05/2021	13:55	-132.890	47.302	0	232.70	0	6.6710	0	33.8220	0	26.538	0	230.632	0	153.0	4	51.3	4	-1E+10	1	-1E+10	1	-1E+10	1	-1E+10	1	-1E+10	1	-1E+10	1
4902549	30	C	06/05/2021	13:55	-132.890	47.302	0	233.70	0	6.6660	0	33.8220	0	26.539	0	231.623	0	152.6	4	51.2	4	-1E+10	1	-1E+10	1	-1E+10	1	-1E+10	1	-1E+10	1	-1E+10	1
4902549	30	C	06/05/2021	13:55	-132.890	47.302	0	234.80	0	6.6650	0	33.8230	0	26.540	0	232.712	0	152.2	4	51.0	4	-1E+10	1	-1E+10	1	-1E+10	1	-1E+10	1	-1E+10	1	-1E+10	1
4902549	30	C	06/05/2021	13:55	-132.890	47.302	0	235.80	0	6.6580	0	33.8230	0	26.541	0	233.703	0	151.7	4	50.9	4	-1E+10	1	-1E+10	1	-1E+10	1	-1E+10	1	-1E+10	1	-1E+10	1
4902549	30	C	06/05/2021	13:55	-132.890	47.302	0	236.90	0	6.6470	0	33.8240	0	26.543	0	234.792	0	151.3	4	50.7	4	-1E+10	1	-1E+10	1	-1E+10	1	-1E+10	1	-1E+10	1	-1E+10	1
4902549	30	C	06/05/2021	13:55	-132.890	47.302	0	237.90	0	6.6020	0	33.8260	0	26.550	0	235.783	0	150.9	4	50.5	4	-1E+10	1	-1E+10	1	-1E+10	1	-1E+10	1	-1E+10	1	-1E+10	1
4902549	30	C	06/05/2021	13:55	-132.890	47.302	0	238.90	0	6.5690	0	33.8220	0	26.552	0	236.774	0	150.6	4	50.4	4	-1E+10	1	-1E+10	1	-1E+10	1	-1E+10	1	-1E+10	1	-1E+10	1
4902549	30	C	06/05/2021	13:55	-132.890	47.302	0	240.00	0	6.5650	0	33.8220	0	26.552	0	237.863	0	150.1	4	50.2	4	-1E+10	1	-1E+10	1	-1E+10	1	-1E+10	1	-1E+10	1	-1E+10	1
4902549	30	C	06/05/2021	13:55	-132.890	47.302	0	241.00	0	6.5650	0	33.8210	0	26.551	0	238.854	0	149.5	4	50.0	4	-1E+10	1	-1E+10	1	-1E+10	1	-1E+10	1	-1E+10	1	-1E+10	1
4902549	30	C	06/05/2021	13:55	-132.890	47.302	0	242.10	0	6.5420	0	33.8280	0	26.560	0	239.943	0	149.0	4	49.8	4	-1E+10	1	-1E+10	1	-1E+10	1	-1E+10	1	-1E+10	1	-1E+10	1
4902549	30	C	06/05/2021	13:55	-132.890	47.302	0	243.20	0	6.5320	0	33.8270	0	26.560	0	241.033	0	148.5	4	49.7	4	-1E+10	1	-1E+10	1	-1E+10	1	-1E+10	1	-1E+10	1	-1E+10	1
4902549	30	C	06/05/2021	13:55	-132.890	47.302	0	244.20	0	6.5290	0	33.8290	0	26.562	0	242.023	0	148.0	4	49.5	4	-1E+10	1	-1E+10	1	-1E+10	1	-1E+10	1	-1E+10	1	-1E+10	1
4902549	30	C	06/05/2021	13:55	-132.890	47.302	0	245.30	0	6.5170	0	33.8290	0	26.564	0	243.113	0	147.5	4	49.3	4	-1E+10	1	-1E+10	1	-1E+10	1	-1E+10	1	-1E+10	1	-1E+10	1
4902549	30	C	06/05/2021	13:55	-132.890	47.302	0	246.40	0	6.5050	0	33.8310	0	26.567	0	244.202	0	147.1	4	49.1	4	-1E+10	1	-1E+10	1	-1E+10	1	-1E+10	1	-1E+10	1	-1E+10	1
4902549	30	C	06/05/2021	13:55	-132.890	47.302	0	247.50	0	6.5000	0	33.8330	0	26.569	0	245.292	0	146.6	4	49.0	4	-1E+10	1	-1E+10	1	-1E+10	1	-1E+10	1	-1E+10	1	-1E+10	1
4902549	30	C	06/05/2021	13:55	-132.890	47.302	0	248.50	0	6.4870	0	33.8330	0	26.571	0	246.282	0	146.1	4	48.8	4	-1E+10	1	-1E+10	1	-1E+10	1	-1E+10	1	-1E+10	1	-1E+10	1
4902549	30	C	06/05/2021	13:55	-132.890	47.302	0	249.60	0	6.4880	0	33.8340	0	26.572	0	247.372	0	145.6	4	48.6	4	-1E+10	1	-1E+10	1	-1E+10	1	-1E+10	1	-1E+10	1	-1E+10	1
4902549	30	C	06/05/2021	13:55	-132.890	47.302	0	250.70	0	6.4850	0	33.8350	0	26.573	0	248.461	0	145.1	4	48.4	4	-1E+10	1	-1E+10	1	-1E+10	1	-1E+10	1	-1E+10	1	-1E+10	1
4902549	30	C	06/05/2021	13:55	-132.890	47.302	0	251.80	0	6.4800	0	33.8370	0	26.575	0	249.551	0	144.5	4	48.2	4	-1E+10	1	-1E+10	1	-1E+10	1	-1E+10	1	-1E+10	1	-1E+10	1
4902549	30	C	06/05/2021	13:55	-132.890	47.302	0	252.90	0	6.4730	0	33.8370	0	26.576	0	250.640	0	143.9	4	48.0	4	-1E+10	1	-1E+10	1	-1E+10	1	-1E+10	1	-1E+10	1	-1E+10	1
4902549	30	C	06/05/2021	13:55	-132.890	47.302	0	254.00	0	6.4600	0	33.8380	0	26.579	0	251.730	0	143.3	4	47.8	4	-1E+10	1	-1E+10	1	-1E+10	1	-1E+10	1	-1E+10	1	-1E+10	1
4902549	30	C	06/05/2021	13:55	-132.890	47.302	0	255.10	0	6.4320	0	33.8410	0	26.585	0	252.819	0	142.9	4	47.7	4	-1E+10	1	-1E+10	1	-1E+10	1	-1E+10	1	-1E+10	1	-1E+10	1
4902549	30	C	06/05/2021	13:55	-132.890	47.302	0	256.20	0	6.4270	0	33.8410	0	26.585	0	253.909	0	142.4	4	47.5	4	-1E+10	1	-1E+10	1	-1E+10	1	-1E+10	1	-1E+10	1	-1E+10	1
4902549	30	C	06/05/2021	13:55	-132.890	47.302	0	257.30	0	6.4190	0	33.8420	0	26.587	0	254.998	0	141.8	4	47.3	4	-1E+10	1	-1E+10	1	-1E+10	1	-1E+10	1	-1E+10	1	-1E+10	1
4902549	30	C	06/05/2021	13:55	-132.890	47.302	0	258.40	0	6.4160	0	33.8420	0	26.588	0	256.088	0	141.2	4	47.1	4	-1E+10	1	-1E+10	1	-1E+10	1	-1E+10	1	-1E+10	1	-1E+10	1
4902549	30	C	06/05/2021	13:55	-132.890	47.302	0	259.50	0	6.4070	0	33.8440	0	26.590	0	257.177	0	140.6	4	46.9	4	-1E+10	1	-1E+10	1	-1E+10	1	-1E+10	1	-1E+10	1	-1E+10	1
4902549	30	C	06/05/2021	13:55	-132.890	47.302	0	260.60	0	6.4010	0	33.8430	0	26.590	0	258.267	0	139.9	4	46.6	4	-1E+10	1	-1E+10	1	-1E+10	1	-1E+10	1	-1E+10	1	-1E+10	1
4902549	30	C	06/05/2021	13:55	-132.890	47.302	0	261.60	0	6.3830	0	33.8460	0	26.595	0	259.257	0	139.3	4	46.4	4	-1E+10	1	-1E+10	1	-1E+10	1	-1E+10	1	-1E+10	1	-1E+10	1
4902549	30	C	06/05/2021	13:55	-132.890	47.302	0	262.70	0	6.3730	0	33.8470	0	26.597	0	260.347	0	138.8	4	46.2	4	-1E+10	1	-1E+10	1	-1E+10	1	-1E+10	1	-1E+10	1	-1E+10	1
4902549	30	C	06/05/2021	13:55	-132.890	47.302	0	263.80	0	6.3480	0	33.8500	0	26.603	0	261.436	0	138.3	4	46.1	4	-1E+10	1	-1E+10	1	-1E+10	1	-1E+10	1	-1E+10	1	-1E+10	1
4902549	30	C	06/05/2021	13:55	-132.890	47.302	0	264.90	0	6.3320	0	33.8500	0	26.605	0	262.526	0	137.9	4	45.9	4	-1E+10	1	-1E+10	1	-1E+10	1	-1E+10	1	-1E+10	1	-1E+10	1
4902549	30	C	06/05/2021	13:55	-132.890	47.302	0	266.00	0	6.3110	0	33.8510	0	26.608	0	263.615	0	137.5	4	45.7	4	-1E+10	1	-1E+10	1	-1E+10	1	-1E+10	1	-1E+10	1	-1E+10	1
4902549	30	C	06/05/2021	13:55	-132.890	47.302	0	267.10	0	6.2950	0	33.8510	0	26.610	0	264.704	0	137.1	4	45.6	4	-1E+10	1	-1E+10	1	-1E+10	1	-1E+10	1	-1E+10	1	-1E+10	1
4902549	30	C	06/05/2021	13:55	-132.890	47.302	0	268.20	0	6.2770	0	33.8550	0	26.616	0	265.794	0	136.9	4	45.5	4	-1E+10	1	-1E+10	1	-1E+10	1	-1E+10	1	-1E+10	1	-1E+10	1
4902549	30	C	06/05/2021	13:55	-132.890	47.302	0	269.30	0	6.2710	0	33.8550	0	26.617	0	266.883	0	136.6	4	45.4	4	-1E+10	1	-1E+10	1	-1E+10	1	-1E+10	1	-1E+10	1	-1E+10	1
4902549	30	C	06/05/2021	13:55	-132.890	47.302	0	270.90	0	6.2610	0	33.8540	0	26.617	0	268.468	0	136.0	4	45.2	4	-1E+10	1	-1E+10	1	-1E+10	1	-1E+10	1	-1E+10	1	-1E+10	1
4902549	30	C	06/05/2021	13:55	-132.890	47.302	0	272.10	0	6.2580	0	33.8540	0	26.618	0	269.656	0	135.4	4	45.0	4	-1E+10	1	-1E+10	1	-1E+10	1	-1E+10	1	-1E+10	1	-1E+10	1
4902549	30	C	06/05/2021	13:55	-132.890	47.302	0	273.00	0	6.2530	0	33.8530	0	26.617	0	270.548	0	134.9	4	44.8	4	-1E+10	1	-1E+10	1	-1E+10	1	-1E+10	1	-1E+10	1	-1E+10	1
4902549	30	C	06/05/2021	13:55	-132.890	47.302	0	273.80	0	6.2500	0	33.8520	0	26.617	0	271.340	0	134.5	4	44.7	4	-1E+10	1	-1E+10	1	-1E+10	1	-1E+10	1	-1E+10	1	-1E+10	1
4902549	30	C	06/05/2021	13:55	-132.890	47.302	0	275.00	0	6.2320	0	33.8540	0	26.621	0	272.528	0	133.9	4	44.5	4	-1E+10	1	-1E+10	1	-1E+10	1	-1E+10	1	-1E+10	1	-1E+10	1
4902549	30	C	06/05/2021	13:55	-132.890	47.302	0	276.20	0	6.2200	0	33.8550	0	26.623	0	273.717	0	133.3	4	44.2	4	-1E+10	1	-1E+10	1	-1E+10	1	-1E+10	1	-1E+10	1	-1E+10	1
4902549	30	C	06/05/2021	13:55	-132.890	47.302	0	277.00	0	6.1990	0	33.8560	0	26.627	0	274.509	0	132.9	4	44.1	4	-1E+10	1	-1E+10	1	-1E+10	1	-1E+10	1	-1E+10	1	-1E+10	1
4902549	30	C	06/05/2021	13:55	-132.890	47.302	0	277.70	0	6.1960	0	33.8550	0	26.626	0	275.202	0	132.5	4	43.9	4	-1E+10	1	-1E+10	1	-1E+10	1	-1E+10	1	-1E+10	1	-1E+10	1
4902549	30	C	06/05/2021	13:55	-132.890	47.302	0	278.90	0	6.1810	0	33.8560	0	26.629	0	276.391	0	131.9	4	43.7	4	-1E+10	1	-1E+10	1	-1E+10	1	-1E+10	1	-1E+10	1	-1E+10	1
4902549	30	C	06/05/2021	13:55	-132.890	47.302	0	280.10	0	6.1820	0	33.8540	0	26.627	0	277.579	0	131.1	4	43.5	4	-1E+10	1	-1E+10	1	-1E+10	1	-1E+10	1	-1E+10	1	-1E+10	1
4902549	30	C	06/05/2021	13:55	-132.890	47.302	0	280.90	0	6.1500	0	33.8570	0	26.634	0	278.371	0	130.7	4	43.3	4	-1E+10	1	-1E+10	1	-1E+10	1	-1E+10	1	-1E+10	1	-1E+10	1
4902549	30	C	06/05/2021	13:55	-132.890	47.302	0	281.70	0	6.1250	0	33.8580	0	26.638	0	279.164	0	130.4	4	43.2	4	-1E+10	1	-1E+10	1	-1E+10	1	-1E+10	1	-1E+10	1	-1E+10	1
4902549	30	C	06/05/2021	13:55	-132.890	47.302	0	283.00	0	6.1150	0	33.8580	0	26.639	0	280.451	0	129.9	4	43.0	4	-1E+10	1	-1E+10	1	-1E+10	1	-1E+10	1	-1E+10	1	-1E+10	1
4902549	30	C	06/05/2021	13:55	-132.890	47.302	0	284.30	0	6.1120	0	33.8570	0	26.639	0	281.738	0	129.2	4	42.8	4	-1E+10	1	-1E+10	1	-1E+10	1	-1E+10	1	-1E+10	1	-1E+10	1
4902549	30	C	06/05/2021	13:55	-132.890	47.302	0	285.10	0	6.1090	0	33.8570	0	26.639	0	282.531	0	128.8	4	42.6	4	-1E+10	1	-1E+10	1	-1E+10	1	-1E+10	1	-1E+10	1	-1E+10	1
4902549	30	C	06/05/2021	13:55	-132.890	47.302	0	285.90	0	6.1000	0	33.8580	0	26.641	0	283.323	0	128.2	4	42.4	4	-1E+10	1	-1E+10	1	-1E+10	1	-1E+10	1	-1E+10	1	-1E+10	1
4902549	30	C	06/05/2021	13:55	-132.890	47.302	0	286.80	0	6.0890	0	33.8570	0	26.642	0	284.214	0	127.8	4	42.3	4	-1E+10	1	-1E+10	1	-1E+10	1	-1E+10	1	-1E+10	1	-1E+10	1
4902549	30	C	06/05/2021	13:55	-132.890	47.302	0	288.00	0	6.0540	0	33.8590	0	26.648	0	285.403	0	127.2	4	42.0	4	-1E+10	1	-1E+10	1	-1E+10	1	-1E+10	1	-1E+10	1	-1E+10	1
4902549	30	C	06/05/2021	13:55	-132.890	47.302	0	289.20	0	6.0510	0	33.8580	0	26.647	0	286.591	0	126.4	4	41.8	4	-1E+10	1	-1E+10	1	-1E+10	1	-1E+10	1	-1E+10	1	-1E+10	1
4902549	30	C	06/05/2021	13:55	-132.890	47.302	0	290.10	0	6.0330	0	33.8590	0	26.650	0	287.482	0	126.0	4	41.6	4	-1E+10	1	-1E+10	1	-1E+10	1	-1E+10	1	-1E+10	1	-1E+10	1
4902549	30	C	06/05/2021	13:55	-132.890	47.302	0	290.90	0	6.0270	0	33.8590	0	26.651	0	288.274	0	125.5	4	41.5	4	-1E+10	1	-1E+10	1	-1E+10	1	-1E+10	1	-1E+10	1	-1E+10	1
4902549	30	C	06/05/2021	13:55	-132.890	47.302	0	291.80	0	6.0240	0	33.8590	0	26.651	0	289.166	0	125.0	4	41.3	4	-1E+10	1	-1E+10	1	-1E+10	1	-1E+10	1	-1E+10	1	-1E+10	1
4902549	30	C	06/05/2021	13:55	-132.890	47.302	0	293.00	0	5.9910	0	33.8600	0	26.656	0	290.354	0	124.4	4	41.1	4	-1E+10	1	-1E+10	1	-1E+10	1	-1E+10	1	-1E+10	1	-1E+10	1
4902549	30	C	06/05/2021	13:55	-132.890	47.302	0	294.30	0	5.9750	0	33.8620	0	26.660	0	291.641	0	123.7	4	40.8	4	-1E+10	1	-1E+10	1	-1E+10	1	-1E+10	1	-1E+10	1	-1E+10	1
4902549	30	C	06/05/2021	13:55	-132.890	47.302	0	295.10	0	5.9630	0	33.8610	0	26.661	0	292.434	0	123.4	4	40.7	4	-1E+10	1	-1E+10	1	-1E+10	1	-1E+10	1	-1E+10	1	-1E+10	1
4902549	30	C	06/05/2021	13:55	-132.890	47.302	0	296.00	0	5.9410	0	33.8620	0	26.664	0	293.325	0	123.0	4	40.6	4	-1E+10	1	-1E+10	1	-1E+10	1	-1E+10	1	-1E+10	1	-1E+10	1
4902549	30	C	06/05/2021	13:55	-132.890	47.302	0	296.80	0	5.9330	0	33.8630	0	26.666	0	294.117	0	122.7	4	40.5	4	-1E+10	1	-1E+10	1	-1E+10	1	-1E+10	1	-1E+10	1	-1E+10	1
4902549	30	C	06/05/2021	13:55	-132.890	47.302	0	297.70	0	5.9300	0	33.8630	0	26.666	0	295.008	0	122.3	4	40.3	4	-1E+10	1	-1E+10	1	-1E+10	1	-1E+10	1	-1E+10	1	-1E+10	1
4902549	30	C	06/05/2021	13:55	-132.890	47.302	0	299.00	0	5.9230	0	33.8610	0	26.666	0	296.296	0	121.7	4	40.1	4	-1E+10	1	-1E+10	1	-1E+10	1	-1E+10	1	-1E+10	1	-1E+10	1
4902549	30	C	06/05/2021	13:55	-132.890	47.302	0	300.30	0	5.9040	0	33.8620	0	26.669	0	297.583	0	121.1	4	39.9	4	-1E+10	1	-1E+10	1	-1E+10	1	-1E+10	1	-1E+10	1	-1E+10	1
4902549	30	C	06/05/2021	13:55	-132.890	47.302	0	301.20	0	5.8970	0	33.8630	0	26.670	0	298.474	0	120.6	4	39.7	4	-1E+10	1	-1E+10	1	-1E+10	1	-1E+10	1	-1E+10	1	-1E+10	1
4902549	30	C	06/05/2021	13:55	-132.890	47.302	0	302.10	0	5.8930	0	33.8620	0	26.670	0	299.365	0	120.2	4	39.6	4	-1E+10	1	-1E+10	1	-1E+10	1	-1E+10	1	-1E+10	1	-1E+10	1
4902549	30	C	06/05/2021	13:55	-132.890	47.302	0	302.90	0	5.8920	0	33.8610	0	26.669	0	300.157	0	119.6	4	39.4	4	-1E+10	1	-1E+10	1	-1E+10	1	-1E+10	1	-1E+10	1	-1E+10	1
4902549	30	C	06/05/2021	13:55	-132.890	47.302	0	303.80	0	5.8890	0	33.8610	0	26.670	0	301.049	0	119.0	4	39.2	4	-1E+10	1	-1E+10	1	-1E+10	1	-1E+10	1	-1E+10	1	-1E+10	1
4902549	30	C	06/05/2021	13:55	-132.890	47.302	0	304.70	0	5.8560	0	33.8650	0	26.677	0	301.940	0	118.7	4	39.1	4	-1E+10	1	-1E+10	1	-1E+10	1	-1E+10	1	-1E+10	1	-1E+10	1
4902549	30	C	06/05/2021	13:55	-132.890	47.302	0	305.60	0	5.8420	0	33.8640	0	26.678	0	302.831	0	118.4	4	38.9	4	-1E+10	1	-1E+10	1	-1E+10	1	-1E+10	1	-1E+10	1	-1E+10	1
4902549	30	C	06/05/2021	13:55	-132.890	47.302	0	306.90	0	5.8240	0	33.8640	0	26.680	0	304.118	0	117.8	4	38.8	4	-1E+10	1	-1E+10	1	-1E+10	1	-1E+10	1	-1E+10	1	-1E+10	1
4902549	30	C	06/05/2021	13:55	-132.890	47.302	0	308.30	0	5.8150	0	33.8640	0	26.681	0	305.505	0	117.3	4	38.6	4	-1E+10	1	-1E+10	1	-1E+10	1	-1E+10	1	-1E+10	1	-1E+10	1
4902549	30	C	06/05/2021	13:55	-132.890	47.302	0	309.20	0	5.8090	0	33.8640	0	26.682	0	306.396	0	116.9	4	38.4	4	-1E+10	1	-1E+10	1	-1E+10	1	-1E+10	1	-1E+10	1	-1E+10	1
4902549	30	C	06/05/2021	13:55	-132.890	47.302	0	310.10	0	5.7970	0	33.8650	0	26.684	0	307.287	0	116.6	4	38.3	4	-1E+10	1	-1E+10	1	-1E+10	1	-1E+10	1	-1E+10	1	-1E+10	1
4902549	30	C	06/05/2021	13:55	-132.890	47.302	0	311.00	0	5.7930	0	33.8650	0	26.685	0	308.178	0	116.2	4	38.2	4	-1E+10	1	-1E+10	1	-1E+10	1	-1E+10	1	-1E+10	1	-1E+10	1
4902549	30	C	06/05/2021	13:55	-132.890	47.302	0	311.90	0	5.7820	0	33.8630	0	26.685	0	309.069	0	115.8	4	38.0	4	-1E+10	1	-1E+10	1	-1E+10	1	-1E+10	1	-1E+10	1	-1E+10	1
4902549	30	C	06/05/2021	13:55	-132.890	47.302	0	312.80	0	5.7560	0	33.8620	0	26.687	0	309.960	0	115.4	4	37.9	4	-1E+10	1	-1E+10	1	-1E+10	1	-1E+10	1	-1E+10	1	-1E+10	1
4902549	30	C	06/05/2021	13:55	-132.890	47.302	0	313.70	0	5.7410	0	33.8610	0	26.688	0	310.852	0	114.9	4	37.7	4	-1E+10	1	-1E+10	1	-1E+10	1	-1E+10	1	-1E+10	1	-1E+10	1
4902549	30	C	06/05/2021	13:55	-132.890	47.302	0	314.60	0	5.7310	0	33.8600	0	26.688	0	311.743	0	114.5	4	37.6	4	-1E+10	1	-1E+10	1	-1E+10	1	-1E+10	1	-1E+10	1	-1E+10	1
4902549	30	C	06/05/2021	13:55	-132.890	47.302	0	315.90	0	5.7150	0	33.8600	0	26.690	0	313.030	0	113.7	4	37.3	4	-1E+10	1	-1E+10	1	-1E+10	1	-1E+10	1	-1E+10	1	-1E+10	1
4902549	30	C	06/05/2021	13:55	-132.890	47.302	0	317.30	0	5.6890	0	33.8590	0	26.693	0	314.416	0	113.1	4	37.1	4	-1E+10	1	-1E+10	1	-1E+10	1	-1E+10	1	-1E+10	1	-1E+10	1
4902549	30	C	06/05/2021	13:55	-132.890	47.302	0	318.30	0	5.6760	0	33.8620	0	26.697	0	315.406	0	112.6	4	36.9	4	-1E+10	1	-1E+10	1	-1E+10	1	-1E+10	1	-1E+10	1	-1E+10	1
4902549	30	C	06/05/2021	13:55	-132.890	47.302	0	319.20	0	5.6730	0	33.8630	0	26.698	0	316.297	0	112.2	4	36.8	4	-1E+10	1	-1E+10	1	-1E+10	1	-1E+10	1	-1E+10	1	-1E+10	1
4902549	30	C	06/05/2021	13:55	-132.890	47.302	0	320.10	0	5.6730	0	33.8630	0	26.698	0	317.189	0	111.8	4	36.6	4	-1E+10	1	-1E+10	1	-1E+10	1	-1E+10	1	-1E+10	1	-1E+10	1
4902549	30	C	06/05/2021	13:55	-132.890	47.302	0	321.10	0	5.6670	0	33.8660	0	26.701	0	318.179	0	111.5	4	36.5	4	-1E+10	1	-1E+10	1	-1E+10	1	-1E+10	1	-1E+10	1	-1E+10	1
4902549	30	C	06/05/2021	13:55	-132.890	47.302	0	322.00	0	5.6650	0	33.8670	0	26.702	0	319.070	0	111.2	4	36.4	4	-1E+10	1	-1E+10	1	-1E+10	1	-1E+10	1	-1E+10	1	-1E+10	1
4902549	30	C	06/05/2021	13:55	-132.890	47.302	0	322.90	0	5.6640	0	33.8660	0	26.701	0	319.961	0	110.7	4	36.3	4	-1E+10	1	-1E+10	1	-1E+10	1	-1E+10	1	-1E+10	1	-1E+10	1
4902549	30	C	06/05/2021	13:55	-132.890	47.302	0	323.90	0	5.6640	0	33.8660	0	26.701	0	320.951	0	110.3	4	36.2	4	-1E+10	1	-1E+10	1	-1E+10	1	-1E+10	1	-1E+10	1	-1E+10	1
4902549	30	C	06/05/2021	13:55	-132.890	47.302	0	324.80	0	5.6610	0	33.8660	0	26.702	0	321.842	0	109.9	4	36.0	4	-1E+10	1	-1E+10	1	-1E+10	1	-1E+10	1	-1E+10	1	-1E+10	1
4902549	30	C	06/05/2021	13:55	-132.890	47.302	0	325.70	0	5.6500	0	33.8690	0	26.706	0	322.733	0	109.5	4	35.9	4	-1E+10	1	-1E+10	1	-1E+10	1	-1E+10	1	-1E+10	1	-1E+10	1
4902549	30	C	06/05/2021	13:55	-132.890	47.302	0	326.70	0	5.6380	0	33.8690	0	26.707	0	323.723	0	109.2	4	35.8	4	-1E+10	1	-1E+10	1	-1E+10	1	-1E+10	1	-1E+10	1	-1E+10	1
4902549	30	C	06/05/2021	13:55	-132.890	47.302	0	327.60	0	5.6290	0	33.8690	0	26.708	0	324.614	0	108.8	4	35.6	4	-1E+10	1	-1E+10	1	-1E+10	1	-1E+10	1	-1E+10	1	-1E+10	1
4902549	30	C	06/05/2021	13:55	-132.890	47.302	0	328.50	0	5.6260	0	33.8690	0	26.708	0	325.506	0	108.5	4	35.5	4	-1E+10	1	-1E+10	1	-1E+10	1	-1E+10	1	-1E+10	1	-1E+10	1
4902549	30	C	06/05/2021	13:55	-132.890	47.302	0	329.90	0	5.6250	0	33.8720	0	26.711	0	326.892	0	108.0	4	35.4	4	-1E+10	1	-1E+10	1	-1E+10	1	-1E+10	1	-1E+10	1	-1E+10	1
4902549	30	C	06/05/2021	13:55	-132.890	47.302	0	331.40	0	5.6180	0	33.8720	0	26.712	0	328.377	0	107.5	4	35.2	4	-1E+10	1	-1E+10	1	-1E+10	1	-1E+10	1	-1E+10	1	-1E+10	1
4902549	30	C	06/05/2021	13:55	-132.890	47.302	0	332.30	0	5.6130	0	33.8720	0	26.712	0	329.268	0	107.2	4	35.1	4	-1E+10	1	-1E+10	1	-1E+10	1	-1E+10	1	-1E+10	1	-1E+10	1
4902549	30	C	06/05/2021	13:55	-132.890	47.302	0	333.30	0	5.6100	0	33.8720	0	26.713	0	330.258	0	106.8	4	35.0	4	-1E+10	1	-1E+10	1	-1E+10	1	-1E+10	1	-1E+10	1	-1E+10	1
4902549	30	C	06/05/2021	13:55	-132.890	47.302	0	334.30	0	5.5970	0	33.8730	0	26.715	0	331.248	0	106.4	4	34.8	4	-1E+10	1	-1E+10	1	-1E+10	1	-1E+10	1	-1E+10	1	-1E+10	1
4902549	30	C	06/05/2021	13:55	-132.890	47.302	0	335.20	0	5.6000	0	33.8720	0	26.714	0	332.139	0	106.0	4	34.7	4	-1E+10	1	-1E+10	1	-1E+10	1	-1E+10	1	-1E+10	1	-1E+10	1
4902549	30	C	06/05/2021	13:55	-132.890	47.302	0	336.20	0	5.5800	0	33.8730	0	26.717	0	333.129	0	105.6	4	34.5	4	-1E+10	1	-1E+10	1	-1E+10	1	-1E+10	1	-1E+10	1	-1E+10	1
4902549	30	C	06/05/2021	13:55	-132.890	47.302	0	337.10	0	5.5730	0	33.8740	0	26.719	0	334.020	0	105.2	4	34.4	4	-1E+10	1	-1E+10	1	-1E+10	1	-1E+10	1	-1E+10	1	-1E+10	1
4902549	30	C	06/05/2021	13:55	-132.890	47.302	0	338.10	0	5.5610	0	33.8730	0	26.720	0	335.010	0	105.0	4	34.3	4	-1E+10	1	-1E+10	1	-1E+10	1	-1E+10	1	-1E+10	1	-1E+10	1
4902549	30	C	06/05/2021	13:55	-132.890	47.302	0	339.10	0	5.5480	0	33.8740	0	26.722	0	336.000	0	104.7	4	34.2	4	-1E+10	1	-1E+10	1	-1E+10	1	-1E+10	1	-1E+10	1	-1E+10	1
4902549	30	C	06/05/2021	13:55	-132.890	47.302	0	340.00	0	5.5450	0	33.8750	0	26.723	0	336.891	0	104.3	4	34.1	4	-1E+10	1	-1E+10	1	-1E+10	1	-1E+10	1	-1E+10	1	-1E+10	1
4902549	30	C	06/05/2021	13:55	-132.890	47.302	0	341.00	0	5.5410	0	33.8750	0	26.724	0	337.881	0	104.0	4	34.0	4	-1E+10	1	-1E+10	1	-1E+10	1	-1E+10	1	-1E+10	1	-1E+10	1
4902549	30	C	06/05/2021	13:55	-132.890	47.302	0	342.00	0	5.5400	0	33.8750	0	26.724	0	338.871	0	103.6	4	33.9	4	-1E+10	1	-1E+10	1	-1E+10	1	-1E+10	1	-1E+10	1	-1E+10	1
4902549	30	C	06/05/2021	13:55	-132.890	47.302	0	343.00	0	5.5190	0	33.8770	0	26.728	0	339.861	0	103.4	4	33.8	4	-1E+10	1	-1E+10	1	-1E+10	1	-1E+10	1	-1E+10	1	-1E+10	1
4902549	30	C	06/05/2021	13:55	-132.890	47.302	0	344.00	0	5.5180	0	33.8770	0	26.728	0	340.852	0	103.1	4	33.7	4	-1E+10	1	-1E+10	1	-1E+10	1	-1E+10	1	-1E+10	1	-1E+10	1
4902549	30	C	06/05/2021	13:55	-132.890	47.302	0	345.00	0	5.5150	0	33.8770	0	26.728	0	341.842	0	102.7	4	33.5	4	-1E+10	1	-1E+10	1	-1E+10	1	-1E+10	1	-1E+10	1	-1E+10	1
4902549	30	C	06/05/2021	13:55	-132.890	47.302	0	345.90	0	5.5110	0	33.8760	0	26.728	0	342.733	0	102.3	4	33.4	4	-1E+10	1	-1E+10	1	-1E+10	1	-1E+10	1	-1E+10	1	-1E+10	1
4902549	30	C	06/05/2021	13:55	-132.890	47.302	0	346.90	0	5.5080	0	33.8750	0	26.728	0	343.723	0	101.9	4	33.3	4	-1E+10	1	-1E+10	1	-1E+10	1	-1E+10	1	-1E+10	1	-1E+10	1
4902549	30	C	06/05/2021	13:55	-132.890	47.302	0	347.90	0	5.5080	0	33.8750	0	26.728	0	344.713	0	101.3	4	33.1	4	-1E+10	1	-1E+10	1	-1E+10	1	-1E+10	1	-1E+10	1	-1E+10	1
4902549	30	C	06/05/2021	13:55	-132.890	47.302	0	348.90	0	5.5080	0	33.8750	0	26.728	0	345.703	0	100.7	4	32.9	4	-1E+10	1	-1E+10	1	-1E+10	1	-1E+10	1	-1E+10	1	-1E+10	1
4902549	30	C	06/05/2021	13:55	-132.890	47.302	0	349.90	0	5.5000	0	33.8760	0	26.729	0	346.693	0	100.1	4	32.7	4	-1E+10	1	-1E+10	1	-1E+10	1	-1E+10	1	-1E+10	1	-1E+10	1
4902549	30	C	06/05/2021	13:55	-132.890	47.302	0	352.80	0	5.4660	0	33.8790	0	26.736	0	349.564	0	98.3	4	32.1	4	-1E+10	1	-1E+10	1	-1E+10	1	-1E+10	1	-1E+10	1	-1E+10	1
4902549	30	C	06/05/2021	13:55	-132.890	47.302	0	357.80	0	5.4010	0	33.8820	0	26.746	0	354.513	0	95.5	4	31.1	4	-1E+10	1	-1E+10	1	-1E+10	1	-1E+10	1	-1E+10	1	-1E+10	1
4902549	30	C	06/05/2021	13:55	-132.890	47.302	0	362.80	0	5.3050	0	33.8820	0	26.757	0	359.463	0	93.2	4	30.3	4	-1E+10	1	-1E+10	1	-1E+10	1	-1E+10	1	-1E+10	1	-1E+10	1
4902549	30	C	06/05/2021	13:55	-132.890	47.302	0	367.80	0	5.2300	0	33.8830	0	26.767	0	364.413	0	91.0	4	29.5	4	-1E+10	1	-1E+10	1	-1E+10	1	-1E+10	1	-1E+10	1	-1E+10	1
4902549	30	C	06/05/2021	13:55	-132.890	47.302	0	373.00	0	5.1130	0	33.8830	0	26.780	0	369.560	0	88.4	4	28.6	4	-1E+10	1	-1E+10	1	-1E+10	1	-1E+10	1	-1E+10	1	-1E+10	1
4902549	30	C	06/05/2021	13:55	-132.890	47.302	0	378.10	0	5.0370	0	33.8880	0	26.793	0	374.609	0	86.2	4	27.8	4	-1E+10	1	-1E+10	1	-1E+10	1	-1E+10	1	-1E+10	1	-1E+10	1
4902549	30	C	06/05/2021	13:55	-132.890	47.302	0	383.30	0	4.9990	0	33.8900	0	26.799	0	379.756	0	84.3	4	27.2	4	-1E+10	1	-1E+10	1	-1E+10	1	-1E+10	1	-1E+10	1	-1E+10	1
4902549	30	C	06/05/2021	13:55	-132.890	47.302	0	388.10	0	4.9420	0	33.8960	0	26.810	0	384.507	0	82.6	4	26.6	4	-1E+10	1	-1E+10	1	-1E+10	1	-1E+10	1	-1E+10	1	-1E+10	1
4902549	30	C	06/05/2021	13:55	-132.890	47.302	0	392.80	0	4.9000	0	33.8990	0	26.817	0	389.159	0	81.4	4	26.2	4	-1E+10	1	-1E+10	1	-1E+10	1	-1E+10	1	-1E+10	1	-1E+10	1
4902549	30	C	06/05/2021	13:55	-132.890	47.302	0	398.10	0	4.8720	0	33.9010	0	26.822	0	394.405	0	80.4	4	25.9	4	-1E+10	1	-1E+10	1	-1E+10	1	-1E+10	1	-1E+10	1	-1E+10	1
4902549	30	C	06/05/2021	13:55	-132.890	47.302	0	402.90	0	4.8600	0	33.9020	0	26.824	0	399.156	0	79.2	4	25.5	4	-1E+10	1	-1E+10	1	-1E+10	1	-1E+10	1	-1E+10	1	-1E+10	1
4902549	30	C	06/05/2021	13:55	-132.890	47.302	0	407.70	0	4.8450	0	33.9050	0	26.828	0	403.907	0	77.6	4	24.9	4	-1E+10	1	-1E+10	1	-1E+10	1	-1E+10	1	-1E+10	1	-1E+10	1
4902549	30	C	06/05/2021	13:55	-132.890	47.302	0	413.00	0	4.8150	0	33.9110	0	26.836	0	409.152	0	75.9	4	24.4	4	-1E+10	1	-1E+10	1	-1E+10	1	-1E+10	1	-1E+10	1	-1E+10	1
4902549	30	C	06/05/2021	13:55	-132.890	47.302	0	417.80	0	4.7860	0	33.9150	0	26.843	0	413.902	0	74.6	4	24.0	4	-1E+10	1	-1E+10	1	-1E+10	1	-1E+10	1	-1E+10	1	-1E+10	1
4902549	30	C	06/05/2021	13:55	-132.890	47.302	0	422.80	0	4.7660	0	33.9180	0	26.847	0	418.851	0	73.1	4	23.5	4	-1E+10	1	-1E+10	1	-1E+10	1	-1E+10	1	-1E+10	1	-1E+10	1
4902549	30	C	06/05/2021	13:55	-132.890	47.302	0	427.70	0	4.7450	0	33.9230	0	26.854	0	423.700	0	71.7	4	23.0	4	-1E+10	1	-1E+10	1	-1E+10	1	-1E+10	1	-1E+10	1	-1E+10	1
4902549	30	C	06/05/2021	13:55	-132.890	47.302	0	432.70	0	4.7260	0	33.9270	0	26.859	0	428.648	0	70.1	4	22.5	4	-1E+10	1	-1E+10	1	-1E+10	1	-1E+10	1	-1E+10	1	-1E+10	1
4902549	30	C	06/05/2021	13:55	-132.890	47.302	0	438.10	0	4.7000	0	33.9320	0	26.866	0	433.992	0	68.2	4	21.9	4	-1E+10	1	-1E+10	1	-1E+10	1	-1E+10	1	-1E+10	1	-1E+10	1
4902549	30	C	06/05/2021	13:55	-132.890	47.302	0	442.90	0	4.6730	0	33.9380	0	26.874	0	438.742	0	66.6	4	21.3	4	-1E+10	1	-1E+10	1	-1E+10	1	-1E+10	1	-1E+10	1	-1E+10	1
4902549	30	C	06/05/2021	13:55	-132.890	47.302	0	447.80	0	4.6450	0	33.9420	0	26.880	0	443.591	0	65.2	4	20.9	4	-1E+10	1	-1E+10	1	-1E+10	1	-1E+10	1	-1E+10	1	-1E+10	1
4902549	30	C	06/05/2021	13:55	-132.890	47.302	0	453.10	0	4.6190	0	33.9460	0	26.886	0	448.835	0	63.6	4	20.4	4	-1E+10	1	-1E+10	1	-1E+10	1	-1E+10	1	-1E+10	1	-1E+10	1
4902549	30	C	06/05/2021	13:55	-132.890	47.302	0	458.30	0	4.6020	0	33.9500	0	26.891	0	453.980	0	62.2	4	19.9	4	-1E+10	1	-1E+10	1	-1E+10	1	-1E+10	1	-1E+10	1	-1E+10	1
4902549	30	C	06/05/2021	13:55	-132.890	47.302	0	462.90	0	4.5850	0	33.9540	0	26.896	0	458.532	0	60.6	4	19.4	4	-1E+10	1	-1E+10	1	-1E+10	1	-1E+10	1	-1E+10	1	-1E+10	1
4902549	30	C	06/05/2021	13:55	-132.890	47.302	0	467.50	0	4.5620	0	33.9600	0	26.903	0	463.083	0	58.6	4	18.7	4	-1E+10	1	-1E+10	1	-1E+10	1	-1E+10	1	-1E+10	1	-1E+10	1
4902549	30	C	06/05/2021	13:55	-132.890	47.302	0	472.60	0	4.5240	0	33.9690	0	26.915	0	468.129	0	56.6	4	18.1	4	-1E+10	1	-1E+10	1	-1E+10	1	-1E+10	1	-1E+10	1	-1E+10	1
4902549	30	C	06/05/2021	13:55	-132.890	47.302	0	477.50	0	4.5000	0	33.9750	0	26.922	0	472.978	0	54.8	4	17.5	4	-1E+10	1	-1E+10	1	-1E+10	1	-1E+10	1	-1E+10	1	-1E+10	1
4902549	30	C	06/05/2021	13:55	-132.890	47.302	0	482.90	0	4.4740	0	33.9810	0	26.930	0	478.320	0	52.6	4	16.8	4	-1E+10	1	-1E+10	1	-1E+10	1	-1E+10	1	-1E+10	1	-1E+10	1
4902549	30	C	06/05/2021	13:55	-132.890	47.302	0	488.30	0	4.4450	0	33.9870	0	26.938	0	483.663	0	50.4	4	16.1	4	-1E+10	1	-1E+10	1	-1E+10	1	-1E+10	1	-1E+10	1	-1E+10	1
4902549	30	C	06/05/2021	13:55	-132.890	47.302	0	493.20	0	4.4240	0	33.9930	0	26.945	0	488.510	0	48.8	4	15.5	4	-1E+10	1	-1E+10	1	-1E+10	1	-1E+10	1	-1E+10	1	-1E+10	1
4902549	30	C	06/05/2021	13:55	-132.890	47.302	0	498.20	0	4.4070	0	33.9970	0	26.950	0	493.457	0	46.9	4	14.9	4	-1E+10	1	-1E+10	1	-1E+10	1	-1E+10	1	-1E+10	1	-1E+10	1
4902549	30	C	06/05/2021	13:55	-132.890	47.302	0	503.10	0	4.3740	0	34.0080	0	26.962	0	498.304	0	45.3	4	14.4	4	-1E+10	1	-1E+10	1	-1E+10	1	-1E+10	1	-1E+10	1	-1E+10	1
4902549	30	C	06/05/2021	13:55	-132.890	47.302	0	508.00	0	4.3550	0	34.0140	0	26.969	0	503.152	0	43.9	4	14.0	4	-1E+10	1	-1E+10	1	-1E+10	1	-1E+10	1	-1E+10	1	-1E+10	1
4902549	30	C	06/05/2021	13:55	-132.890	47.302	0	513.00	0	4.3370	0	34.0200	0	26.976	0	508.098	0	42.2	4	13.4	4	-1E+10	1	-1E+10	1	-1E+10	1	-1E+10	1	-1E+10	1	-1E+10	1
4902549	30	C	06/05/2021	13:55	-132.890	47.302	0	518.10	0	4.3160	0	34.0260	0	26.983	0	513.143	0	40.3	4	12.8	4	-1E+10	1	-1E+10	1	-1E+10	1	-1E+10	1	-1E+10	1	-1E+10	1
4902549	30	C	06/05/2021	13:55	-132.890	47.302	0	523.00	0	4.2940	0	34.0340	0	26.991	0	517.990	0	39.1	4	12.4	4	-1E+10	1	-1E+10	1	-1E+10	1	-1E+10	1	-1E+10	1	-1E+10	1
4902549	30	C	06/05/2021	13:55	-132.890	47.302	0	528.00	0	4.2870	0	34.0360	0	26.994	0	522.936	0	38.2	4	12.1	4	-1E+10	1	-1E+10	1	-1E+10	1	-1E+10	1	-1E+10	1	-1E+10	1
4902549	30	C	06/05/2021	13:55	-132.890	47.302	0	532.70	0	4.2770	0	34.0400	0	26.998	0	527.585	0	36.9	4	11.7	4	-1E+10	1	-1E+10	1	-1E+10	1	-1E+10	1	-1E+10	1	-1E+10	1
4902549	30	C	06/05/2021	13:55	-132.890	47.302	0	537.70	0	4.2580	0	34.0460	0	27.005	0	532.530	0	35.9	4	11.4	4	-1E+10	1	-1E+10	1	-1E+10	1	-1E+10	1	-1E+10	1	-1E+10	1
4902549	30	C	06/05/2021	13:55	-132.890	47.302	0	542.80	0	4.2480	0	34.0500	0	27.009	0	537.575	0	35.1	4	11.1	4	-1E+10	1	-1E+10	1	-1E+10	1	-1E+10	1	-1E+10	1	-1E+10	1
4902549	30	C	06/05/2021	13:55	-132.890	47.302	0	547.60	0	4.2450	0	34.0510	0	27.010	0	542.322	0	34.1	4	10.8	4	-1E+10	1	-1E+10	1	-1E+10	1	-1E+10	1	-1E+10	1	-1E+10	1
4902549	30	C	06/05/2021	13:55	-132.890	47.302	0	552.50	0	4.2310	0	34.0560	0	27.016	0	547.169	0	32.9	4	10.4	4	-1E+10	1	-1E+10	1	-1E+10	1	-1E+10	1	-1E+10	1	-1E+10	1
4902549	30	C	06/05/2021	13:55	-132.890	47.302	0	557.50	0	4.2130	0	34.0640	0	27.024	0	552.114	0	32.0	4	10.1	4	-1E+10	1	-1E+10	1	-1E+10	1	-1E+10	1	-1E+10	1	-1E+10	1
4902549	30	C	06/05/2021	13:55	-132.890	47.302	0	562.60	0	4.2040	0	34.0670	0	27.027	0	557.158	0	31.4	4	9.9	4	-1E+10	1	-1E+10	1	-1E+10	1	-1E+10	1	-1E+10	1	-1E+10	1
4902549	30	C	06/05/2021	13:55	-132.890	47.302	0	567.80	0	4.1990	0	34.0690	0	27.029	0	562.300	0	30.6	4	9.7	4	-1E+10	1	-1E+10	1	-1E+10	1	-1E+10	1	-1E+10	1	-1E+10	1
4902549	30	C	06/05/2021	13:55	-132.890	47.302	0	573.10	0	4.1890	0	34.0740	0	27.034	0	567.542	0	29.6	4	9.4	4	-1E+10	1	-1E+10	1	-1E+10	1	-1E+10	1	-1E+10	1	-1E+10	1
4902549	30	C	06/05/2021	13:55	-132.890	47.302	0	578.00	0	4.1780	0	34.0790	0	27.040	0	572.387	0	28.7	4	9.1	4	-1E+10	1	-1E+10	1	-1E+10	1	-1E+10	1	-1E+10	1	-1E+10	1
4902549	30	C	06/05/2021	13:55	-132.890	47.302	0	582.80	0	4.1680	0	34.0830	0	27.044	0	577.134	0	28.0	4	8.9	4	-1E+10	1	-1E+10	1	-1E+10	1	-1E+10	1	-1E+10	1	-1E+10	1
4902549	30	C	06/05/2021	13:55	-132.890	47.302	0	587.70	0	4.1580	0	34.0870	0	27.048	0	581.980	0	27.4	4	8.7	4	-1E+10	1	-1E+10	1	-1E+10	1	-1E+10	1	-1E+10	1	-1E+10	1
4902549	30	C	06/05/2021	13:55	-132.890	47.302	0	592.80	0	4.1470	0	34.0910	0	27.052	0	587.023	0	26.9	4	8.5	4	-1E+10	1	-1E+10	1	-1E+10	1	-1E+10	1	-1E+10	1	-1E+10	1
4902549	30	C	06/05/2021	13:55	-132.890	47.302	0	597.70	0	4.1350	0	34.0940	0	27.056	0	591.868	0	26.4	4	8.4	4	-1E+10	1	-1E+10	1	-1E+10	1	-1E+10	1	-1E+10	1	-1E+10	1
4902549	30	C	06/05/2021	13:55	-132.890	47.302	0	602.80	0	4.1260	0	34.0970	0	27.059	0	596.911	0	25.9	4	8.2	4	-1E+10	1	-1E+10	1	-1E+10	1	-1E+10	1	-1E+10	1	-1E+10	1
4902549	30	C	06/05/2021	13:55	-132.890	47.302	0	607.70	0	4.1140	0	34.1000	0	27.063	0	601.756	0	25.3	4	8.0	4	-1E+10	1	-1E+10	1	-1E+10	1	-1E+10	1	-1E+10	1	-1E+10	1
4902549	30	C	06/05/2021	13:55	-132.890	47.302	0	612.70	0	4.1020	0	34.1040	0	27.068	0	606.700	0	24.8	4	7.9	4	-1E+10	1	-1E+10	1	-1E+10	1	-1E+10	1	-1E+10	1	-1E+10	1
4902549	30	C	06/05/2021	13:55	-132.890	47.302	0	617.70	0	4.0860	0	34.1090	0	27.073	0	611.644	0	24.4	4	7.7	4	-1E+10	1	-1E+10	1	-1E+10	1	-1E+10	1	-1E+10	1	-1E+10	1
4902549	30	C	06/05/2021	13:55	-132.890	47.302	0	622.80	0	4.0710	0	34.1130	0	27.078	0	616.686	0	24.0	4	7.6	4	-1E+10	1	-1E+10	1	-1E+10	1	-1E+10	1	-1E+10	1	-1E+10	1
4902549	30	C	06/05/2021	13:55	-132.890	47.302	0	627.90	0	4.0510	0	34.1180	0	27.084	0	621.728	0	23.7	4	7.5	4	-1E+10	1	-1E+10	1	-1E+10	1	-1E+10	1	-1E+10	1	-1E+10	1
4902549	30	C	06/05/2021	13:55	-132.890	47.302	0	632.90	0	4.0400	0	34.1210	0	27.088	0	626.672	0	23.5	4	7.4	4	-1E+10	1	-1E+10	1	-1E+10	1	-1E+10	1	-1E+10	1	-1E+10	1
4902549	30	C	06/05/2021	13:55	-132.890	47.302	0	637.80	0	4.0320	0	34.1220	0	27.089	0	631.516	0	23.3	4	7.4	4	-1E+10	1	-1E+10	1	-1E+10	1	-1E+10	1	-1E+10	1	-1E+10	1
4902549	30	C	06/05/2021	13:55	-132.890	47.302	0	642.60	0	4.0150	0	34.1260	0	27.094	0	636.261	0	22.9	4	7.2	4	-1E+10	1	-1E+10	1	-1E+10	1	-1E+10	1	-1E+10	1	-1E+10	1
4902549	30	C	06/05/2021	13:55	-132.890	47.302	0	648.00	0	3.9910	0	34.1320	0	27.101	0	641.600	0	22.4	4	7.1	4	-1E+10	1	-1E+10	1	-1E+10	1	-1E+10	1	-1E+10	1	-1E+10	1
4902549	30	C	06/05/2021	13:55	-132.890	47.302	0	653.20	0	3.9860	0	34.1340	0	27.104	0	646.740	0	21.8	4	6.9	4	-1E+10	1	-1E+10	1	-1E+10	1	-1E+10	1	-1E+10	1	-1E+10	1
4902549	30	C	06/05/2021	13:55	-132.890	47.302	0	658.30	0	3.9760	0	34.1370	0	27.107	0	651.782	0	21.3	4	6.7	4	-1E+10	1	-1E+10	1	-1E+10	1	-1E+10	1	-1E+10	1	-1E+10	1
4902549	30	C	06/05/2021	13:55	-132.890	47.302	0	662.90	0	3.9610	0	34.1430	0	27.113	0	656.329	0	20.9	4	6.6	4	-1E+10	1	-1E+10	1	-1E+10	1	-1E+10	1	-1E+10	1	-1E+10	1
4902549	30	C	06/05/2021	13:55	-132.890	47.302	0	667.50	0	3.9500	0	34.1460	0	27.117	0	660.876	0	20.6	4	6.5	4	-1E+10	1	-1E+10	1	-1E+10	1	-1E+10	1	-1E+10	1	-1E+10	1
4902549	30	C	06/05/2021	13:55	-132.890	47.302	0	672.60	0	3.9370	0	34.1490	0	27.121	0	665.918	0	20.3	4	6.4	4	-1E+10	1	-1E+10	1	-1E+10	1	-1E+10	1	-1E+10	1	-1E+10	1
4902549	30	C	06/05/2021	13:55	-132.890	47.302	0	677.70	0	3.9260	0	34.1510	0	27.123	0	670.959	0	19.9	4	6.3	4	-1E+10	1	-1E+10	1	-1E+10	1	-1E+10	1	-1E+10	1	-1E+10	1
4902549	30	C	06/05/2021	13:55	-132.890	47.302	0	682.70	0	3.9040	0	34.1560	0	27.130	0	675.901	0	19.4	4	6.1	4	-1E+10	1	-1E+10	1	-1E+10	1	-1E+10	1	-1E+10	1	-1E+10	1
4902549	30	C	06/05/2021	13:55	-132.890	47.302	0	687.70	0	3.8870	0	34.1610	0	27.135	0	680.843	0	18.7	4	5.9	4	-1E+10	1	-1E+10	1	-1E+10	1	-1E+10	1	-1E+10	1	-1E+10	1
4902549	30	C	06/05/2021	13:55	-132.890	47.302	0	692.80	0	3.8760	0	34.1660	0	27.140	0	685.884	0	18.0	4	5.7	4	-1E+10	1	-1E+10	1	-1E+10	1	-1E+10	1	-1E+10	1	-1E+10	1
4902549	30	C	06/05/2021	13:55	-132.890	47.302	0	697.90	0	3.8720	0	34.1700	0	27.144	0	690.924	0	17.4	4	5.5	4	-1E+10	1	-1E+10	1	-1E+10	1	-1E+10	1	-1E+10	1	-1E+10	1
4902549	30	C	06/05/2021	13:55	-132.890	47.302	0	703.00	0	3.8640	0	34.1740	0	27.148	0	695.965	0	16.8	4	5.3	4	-1E+10	1	-1E+10	1	-1E+10	1	-1E+10	1	-1E+10	1	-1E+10	1
4902549	30	C	06/05/2021	13:55	-132.890	47.302	0	708.10	0	3.8550	0	34.1770	0	27.151	0	701.005	0	16.3	4	5.1	4	-1E+10	1	-1E+10	1	-1E+10	1	-1E+10	1	-1E+10	1	-1E+10	1
4902549	30	C	06/05/2021	13:55	-132.890	47.302	0	713.20	0	3.8390	0	34.1830	0	27.158	0	706.045	0	15.7	4	4.9	4	-1E+10	1	-1E+10	1	-1E+10	1	-1E+10	1	-1E+10	1	-1E+10	1
4902549	30	C	06/05/2021	13:55	-132.890	47.302	0	717.90	0	3.8340	0	34.1870	0	27.162	0	710.690	0	15.4	4	4.9	4	-1E+10	1	-1E+10	1	-1E+10	1	-1E+10	1	-1E+10	1	-1E+10	1
4902549	30	C	06/05/2021	13:55	-132.890	47.302	0	722.90	0	3.8300	0	34.1890	0	27.164	0	715.632	0	15.2	4	4.8	4	-1E+10	1	-1E+10	1	-1E+10	1	-1E+10	1	-1E+10	1	-1E+10	1
4902549	30	C	06/05/2021	13:55	-132.890	47.302	0	728.10	0	3.8260	0	34.1910	0	27.166	0	720.770	0	14.8	4	4.6	4	-1E+10	1	-1E+10	1	-1E+10	1	-1E+10	1	-1E+10	1	-1E+10	1
4902549	30	C	06/05/2021	13:55	-132.890	47.302	0	733.00	0	3.8150	0	34.1940	0	27.169	0	725.612	0	14.1	4	4.4	4	-1E+10	1	-1E+10	1	-1E+10	1	-1E+10	1	-1E+10	1	-1E+10	1
4902549	30	C	06/05/2021	13:55	-132.890	47.302	0	738.00	0	3.8040	0	34.1990	0	27.174	0	730.553	0	13.4	4	4.2	4	-1E+10	1	-1E+10	1	-1E+10	1	-1E+10	1	-1E+10	1	-1E+10	1
4902549	30	C	06/05/2021	13:55	-132.890	47.302	0	743.00	0	3.7960	0	34.2040	0	27.179	0	735.494	0	12.6	4	4.0	4	-1E+10	1	-1E+10	1	-1E+10	1	-1E+10	1	-1E+10	1	-1E+10	1
4902549	30	C	06/05/2021	13:55	-132.890	47.302	0	747.80	0	3.7840	0	34.2110	0	27.186	0	740.237	0	12.2	4	3.8	4	-1E+10	1	-1E+10	1	-1E+10	1	-1E+10	1	-1E+10	1	-1E+10	1
4902549	30	C	06/05/2021	13:55	-132.890	47.302	0	752.70	0	3.7750	0	34.2080	0	27.184	0	745.079	0	12.0	4	3.8	4	-1E+10	1	-1E+10	1	-1E+10	1	-1E+10	1	-1E+10	1	-1E+10	1
4902549	30	C	06/05/2021	13:55	-132.890	47.302	0	758.10	0	3.7640	0	34.2160	0	27.192	0	750.414	0	11.7	4	3.7	4	-1E+10	1	-1E+10	1	-1E+10	1	-1E+10	1	-1E+10	1	-1E+10	1
4902549	30	C	06/05/2021	13:55	-132.890	47.302	0	763.10	0	3.7460	0	34.2190	0	27.196	0	755.355	0	11.4	4	3.6	4	-1E+10	1	-1E+10	1	-1E+10	1	-1E+10	1	-1E+10	1	-1E+10	1
4902549	30	C	06/05/2021	13:55	-132.890	47.302	0	767.70	0	3.7230	0	34.2230	0	27.202	0	759.900	0	11.2	4	3.5	4	-1E+10	1	-1E+10	1	-1E+10	1	-1E+10	1	-1E+10	1	-1E+10	1
4902549	30	C	06/05/2021	13:55	-132.890	47.302	0	772.50	0	3.7030	0	34.2270	0	27.207	0	764.642	0	11.1	4	3.5	4	-1E+10	1	-1E+10	1	-1E+10	1	-1E+10	1	-1E+10	1	-1E+10	1
4902549	30	C	06/05/2021	13:55	-132.890	47.302	0	777.90	0	3.6900	0	34.2300	0	27.210	0	769.977	0	11.0	4	3.4	4	-1E+10	1	-1E+10	1	-1E+10	1	-1E+10	1	-1E+10	1	-1E+10	1
4902549	30	C	06/05/2021	13:55	-132.890	47.302	0	783.30	0	3.6830	0	34.2320	0	27.213	0	775.312	0	10.9	4	3.4	4	-1E+10	1	-1E+10	1	-1E+10	1	-1E+10	1	-1E+10	1	-1E+10	1
4902549	30	C	06/05/2021	13:55	-132.890	47.302	0	788.30	0	3.6760	0	34.2330	0	27.214	0	780.252	0	10.8	4	3.4	4	-1E+10	1	-1E+10	1	-1E+10	1	-1E+10	1	-1E+10	1	-1E+10	1
4902549	30	C	06/05/2021	13:55	-132.890	47.302	0	792.90	0	3.6570	0	34.2370	0	27.219	0	784.796	0	10.7	4	3.3	4	-1E+10	1	-1E+10	1	-1E+10	1	-1E+10	1	-1E+10	1	-1E+10	1
4902549	30	C	06/05/2021	13:55	-132.890	47.302	0	797.50	0	3.6430	0	34.2400	0	27.223	0	789.340	0	10.7	4	3.3	4	-1E+10	1	-1E+10	1	-1E+10	1	-1E+10	1	-1E+10	1	-1E+10	1
4902549	30	C	06/05/2021	13:55	-132.890	47.302	0	802.90	0	3.6240	0	34.2420	0	27.227	0	794.675	0	10.7	4	3.4	4	-1E+10	1	-1E+10	1	-1E+10	1	-1E+10	1	-1E+10	1	-1E+10	1
4902549	30	C	06/05/2021	13:55	-132.890	47.302	0	808.00	0	3.6140	0	34.2440	0	27.229	0	799.713	0	10.8	4	3.4	4	-1E+10	1	-1E+10	1	-1E+10	1	-1E+10	1	-1E+10	1	-1E+10	1
4902549	30	C	06/05/2021	13:55	-132.890	47.302	0	812.80	0	3.6080	0	34.2450	0	27.231	0	804.454	0	10.9	4	3.4	4	-1E+10	1	-1E+10	1	-1E+10	1	-1E+10	1	-1E+10	1	-1E+10	1
4902549	30	C	06/05/2021	13:55	-132.890	47.302	0	817.80	0	3.5940	0	34.2480	0	27.234	0	809.393	0	10.8	4	3.4	4	-1E+10	1	-1E+10	1	-1E+10	1	-1E+10	1	-1E+10	1	-1E+10	1
4902549	30	C	06/05/2021	13:55	-132.890	47.302	0	822.80	0	3.5840	0	34.2490	0	27.236	0	814.332	0	10.7	4	3.4	4	-1E+10	1	-1E+10	1	-1E+10	1	-1E+10	1	-1E+10	1	-1E+10	1
4902549	30	C	06/05/2021	13:55	-132.890	47.302	0	827.90	0	3.5660	0	34.2540	0	27.242	0	819.370	0	10.6	4	3.3	4	-1E+10	1	-1E+10	1	-1E+10	1	-1E+10	1	-1E+10	1	-1E+10	1
4902549	30	C	06/05/2021	13:55	-132.890	47.302	0	832.80	0	3.5530	0	34.2570	0	27.246	0	824.210	0	10.5	4	3.3	4	-1E+10	1	-1E+10	1	-1E+10	1	-1E+10	1	-1E+10	1	-1E+10	1
4902549	30	C	06/05/2021	13:55	-132.890	47.302	0	837.60	0	3.5470	0	34.2580	0	27.247	0	828.951	0	10.3	4	3.2	4	-1E+10	1	-1E+10	1	-1E+10	1	-1E+10	1	-1E+10	1	-1E+10	1
4902549	30	C	06/05/2021	13:55	-132.890	47.302	0	843.00	0	3.5360	0	34.2630	0	27.252	0	834.284	0	10.1	4	3.2	4	-1E+10	1	-1E+10	1	-1E+10	1	-1E+10	1	-1E+10	1	-1E+10	1
4902549	30	C	06/05/2021	13:55	-132.890	47.302	0	848.00	0	3.5290	0	34.2640	0	27.254	0	839.222	0	10.0	4	3.1	4	-1E+10	1	-1E+10	1	-1E+10	1	-1E+10	1	-1E+10	1	-1E+10	1
4902549	30	C	06/05/2021	13:55	-132.890	47.302	0	852.90	0	3.5140	0	34.2690	0	27.259	0	844.062	0	9.7	4	3.0	4	-1E+10	1	-1E+10	1	-1E+10	1	-1E+10	1	-1E+10	1	-1E+10	1
4902549	30	C	06/05/2021	13:55	-132.890	47.302	0	858.00	0	3.5000	0	34.2720	0	27.263	0	849.099	0	9.5	4	3.0	4	-1E+10	1	-1E+10	1	-1E+10	1	-1E+10	1	-1E+10	1	-1E+10	1
4902549	30	C	06/05/2021	13:55	-132.890	47.302	0	862.90	0	3.4920	0	34.2760	0	27.267	0	853.938	0	9.1	4	2.8	4	-1E+10	1	-1E+10	1	-1E+10	1	-1E+10	1	-1E+10	1	-1E+10	1
4902549	30	C	06/05/2021	13:55	-132.890	47.302	0	868.00	0	3.4850	0	34.2820	0	27.272	0	858.974	0	8.8	4	2.7	4	-1E+10	1	-1E+10	1	-1E+10	1	-1E+10	1	-1E+10	1	-1E+10	1
4902549	30	C	06/05/2021	13:55	-132.890	47.302	0	873.00	0	3.4800	0	34.2860	0	27.276	0	863.912	0	8.5	4	2.7	4	-1E+10	1	-1E+10	1	-1E+10	1	-1E+10	1	-1E+10	1	-1E+10	1
4902549	30	C	06/05/2021	13:55	-132.890	47.302	0	878.10	0	3.4770	0	34.2890	0	27.279	0	868.948	0	8.4	4	2.6	4	-1E+10	1	-1E+10	1	-1E+10	1	-1E+10	1	-1E+10	1	-1E+10	1
4902549	30	C	06/05/2021	13:55	-132.890	47.302	0	882.70	0	3.4670	0	34.2910	0	27.281	0	873.491	0	8.2	4	2.6	4	-1E+10	1	-1E+10	1	-1E+10	1	-1E+10	1	-1E+10	1	-1E+10	1
4902549	30	C	06/05/2021	13:55	-132.890	47.302	0	887.70	0	3.4540	0	34.2960	0	27.287	0	878.428	0	8.0	4	2.5	4	-1E+10	1	-1E+10	1	-1E+10	1	-1E+10	1	-1E+10	1	-1E+10	1
4902549	30	C	06/05/2021	13:55	-132.890	47.302	0	893.10	0	3.4450	0	34.2990	0	27.290	0	883.760	0	7.8	4	2.4	4	-1E+10	1	-1E+10	1	-1E+10	1	-1E+10	1	-1E+10	1	-1E+10	1
4902549	30	C	06/05/2021	13:55	-132.890	47.302	0	898.00	0	3.4340	0	34.3030	0	27.294	0	888.599	0	7.7	4	2.4	4	-1E+10	1	-1E+10	1	-1E+10	1	-1E+10	1	-1E+10	1	-1E+10	1
4902549	30	C	06/05/2021	13:55	-132.890	47.302	0	902.90	0	3.4280	0	34.3050	0	27.296	0	893.437	0	7.6	4	2.4	4	-1E+10	1	-1E+10	1	-1E+10	1	-1E+10	1	-1E+10	1	-1E+10	1
4902549	30	C	06/05/2021	13:55	-132.890	47.302	0	908.10	0	3.4190	0	34.3080	0	27.300	0	898.571	0	7.5	4	2.3	4	-1E+10	1	-1E+10	1	-1E+10	1	-1E+10	1	-1E+10	1	-1E+10	1
4902549	30	C	06/05/2021	13:55	-132.890	47.302	0	912.90	0	3.4130	0	34.3100	0	27.302	0	903.311	0	7.5	4	2.3	4	-1E+10	1	-1E+10	1	-1E+10	1	-1E+10	1	-1E+10	1	-1E+10	1
4902549	30	C	06/05/2021	13:55	-132.890	47.302	0	917.60	0	3.3980	0	34.3130	0	27.306	0	907.951	0	7.6	4	2.4	4	-1E+10	1	-1E+10	1	-1E+10	1	-1E+10	1	-1E+10	1	-1E+10	1
4902549	30	C	06/05/2021	13:55	-132.890	47.302	0	922.90	0	3.3870	0	34.3130	0	27.307	0	913.184	0	7.6	4	2.4	4	-1E+10	1	-1E+10	1	-1E+10	1	-1E+10	1	-1E+10	1	-1E+10	1
4902549	30	C	06/05/2021	13:55	-132.890	47.302	0	928.10	0	3.3750	0	34.3130	0	27.308	0	918.317	0	7.6	4	2.4	4	-1E+10	1	-1E+10	1	-1E+10	1	-1E+10	1	-1E+10	1	-1E+10	1
4902549	30	C	06/05/2021	13:55	-132.890	47.302	0	932.90	0	3.3540	0	34.3160	0	27.312	0	923.056	0	7.6	4	2.4	4	-1E+10	1	-1E+10	1	-1E+10	1	-1E+10	1	-1E+10	1	-1E+10	1
4902549	30	C	06/05/2021	13:55	-132.890	47.302	0	937.80	0	3.3380	0	34.3180	0	27.315	0	927.894	0	7.4	4	2.3	4	-1E+10	1	-1E+10	1	-1E+10	1	-1E+10	1	-1E+10	1	-1E+10	1
4902549	30	C	06/05/2021	13:55	-132.890	47.302	0	942.80	0	3.3230	0	34.3230	0	27.321	0	932.830	0	7.2	4	2.2	4	-1E+10	1	-1E+10	1	-1E+10	1	-1E+10	1	-1E+10	1	-1E+10	1
4902549	30	C	06/05/2021	13:55	-132.890	47.302	0	947.80	0	3.3130	0	34.3280	0	27.326	0	937.766	0	7.1	4	2.2	4	-1E+10	1	-1E+10	1	-1E+10	1	-1E+10	1	-1E+10	1	-1E+10	1
4902549	30	C	06/05/2021	13:55	-132.890	47.302	0	952.80	0	3.3060	0	34.3300	0	27.328	0	942.702	0	7.0	4	2.2	4	-1E+10	1	-1E+10	1	-1E+10	1	-1E+10	1	-1E+10	1	-1E+10	1
4902549	30	C	06/05/2021	13:55	-132.890	47.302	0	957.90	0	3.3000	0	34.3320	0	27.330	0	947.736	0	7.0	4	2.2	4	-1E+10	1	-1E+10	1	-1E+10	1	-1E+10	1	-1E+10	1	-1E+10	1
4902549	30	C	06/05/2021	13:55	-132.890	47.302	0	963.10	0	3.2930	0	34.3330	0	27.332	0	952.869	0	7.0	4	2.2	4	-1E+10	1	-1E+10	1	-1E+10	1	-1E+10	1	-1E+10	1	-1E+10	1
4902549	30	C	06/05/2021	13:55	-132.890	47.302	0	967.90	0	3.2850	0	34.3350	0	27.334	0	957.607	0	7.1	4	2.2	4	-1E+10	1	-1E+10	1	-1E+10	1	-1E+10	1	-1E+10	1	-1E+10	1
4902549	30	C	06/05/2021	13:55	-132.890	47.302	0	972.50	0	3.2730	0	34.3350	0	27.335	0	962.148	0	7.2	4	2.2	4	-1E+10	1	-1E+10	1	-1E+10	1	-1E+10	1	-1E+10	1	-1E+10	1
4902549	30	C	06/05/2021	13:55	-132.890	47.302	0	977.90	0	3.2570	0	34.3380	0	27.339	0	967.478	0	7.2	4	2.2	4	-1E+10	1	-1E+10	1	-1E+10	1	-1E+10	1	-1E+10	1	-1E+10	1
4902549	30	C	06/05/2021	13:55	-132.890	47.302	0	983.40	0	3.2480	0	34.3410	0	27.343	0	972.906	0	7.1	4	2.2	4	-1E+10	1	-1E+10	1	-1E+10	1	-1E+10	1	-1E+10	1	-1E+10	1
4902549	30	C	06/05/2021	13:55	-132.890	47.302	0	988.40	0	3.2420	0	34.3430	0	27.345	0	977.841	0	7.1	4	2.2	4	-1E+10	1	-1E+10	1	-1E+10	1	-1E+10	1	-1E+10	1	-1E+10	1
4902549	30	C	06/05/2021	13:55	-132.890	47.302	0	993.40	0	3.2400	0	34.3440	0	27.346	0	982.776	0	7.2	4	2.2	4	-1E+10	1	-1E+10	1	-1E+10	1	-1E+10	1	-1E+10	1	-1E+10	1
4902549	30	C	06/05/2021	13:55	-132.890	47.302	0	997.90	0	3.2330	0	34.3440	0	27.346	0	987.217	0	7.3	4	2.3	4	-1E+10	1	-1E+10	1	-1E+10	1	-1E+10	1	-1E+10	1	-1E+10	1
4902549	30	C	06/05/2021	13:55	-132.890	47.302	0	1005.40	0	3.2100	0	34.3440	0	27.349	0	994.619	0	7.5	4	2.3	4	-1E+10	1	-1E+10	1	-1E+10	1	-1E+10	1	-1E+10	1	-1E+10	1
4902549	30	C	06/05/2021	13:55	-132.890	47.302	0	1015.50	0	3.1780	0	34.3470	0	27.354	0	1004.587	0	7.5	4	2.3	4	-1E+10	1	-1E+10	1	-1E+10	1	-1E+10	1	-1E+10	1	-1E+10	1
4902549	30	C	06/05/2021	13:55	-132.890	47.302	0	1025.30	0	3.1730	0	34.3500	0	27.357	0	1014.258	0	7.4	4	2.3	4	-1E+10	1	-1E+10	1	-1E+10	1	-1E+10	1	-1E+10	1	-1E+10	1
4902549	30	C	06/05/2021	13:55	-132.890	47.302	0	1035.70	0	3.1650	0	34.3550	0	27.362	0	1024.520	0	7.4	4	2.3	4	-1E+10	1	-1E+10	1	-1E+10	1	-1E+10	1	-1E+10	1	-1E+10	1
4902549	30	C	06/05/2021	13:55	-132.890	47.302	0	1045.80	0	3.1390	0	34.3570	0	27.366	0	1034.486	0	7.5	4	2.3	4	-1E+10	1	-1E+10	1	-1E+10	1	-1E+10	1	-1E+10	1	-1E+10	1
4902549	30	C	06/05/2021	13:55	-132.890	47.302	0	1055.20	0	3.1130	0	34.3620	0	27.372	0	1043.761	0	7.5	4	2.3	4	-1E+10	1	-1E+10	1	-1E+10	1	-1E+10	1	-1E+10	1	-1E+10	1
4902549	30	C	06/05/2021	13:55	-132.890	47.302	0	1065.40	0	3.0940	0	34.3660	0	27.377	0	1053.825	0	7.6	4	2.3	4	-1E+10	1	-1E+10	1	-1E+10	1	-1E+10	1	-1E+10	1	-1E+10	1
4902549	30	C	06/05/2021	13:55	-132.890	47.302	0	1075.70	0	3.0700	0	34.3710	0	27.383	0	1063.987	0	7.6	4	2.3	4	-1E+10	1	-1E+10	1	-1E+10	1	-1E+10	1	-1E+10	1	-1E+10	1
4902549	30	C	06/05/2021	13:55	-132.890	47.302	0	1085.40	0	3.0530	0	34.3750	0	27.388	0	1073.557	0	7.6	4	2.3	4	-1E+10	1	-1E+10	1	-1E+10	1	-1E+10	1	-1E+10	1	-1E+10	1
4902549	30	C	06/05/2021	13:55	-132.890	47.302	0	1095.20	0	3.0360	0	34.3800	0	27.394	0	1083.225	0	7.6	4	2.3	4	-1E+10	1	-1E+10	1	-1E+10	1	-1E+10	1	-1E+10	1	-1E+10	1
4902549	30	C	06/05/2021	13:55	-132.890	47.302	0	1105.20	0	3.0210	0	34.3830	0	27.398	0	1093.089	0	7.6	4	2.3	4	-1E+10	1	-1E+10	1	-1E+10	1	-1E+10	1	-1E+10	1	-1E+10	1
4902549	30	C	06/05/2021	13:55	-132.890	47.302	0	1115.00	0	3.0020	0	34.3890	0	27.404	0	1102.756	0	7.6	4	2.3	4	-1E+10	1	-1E+10	1	-1E+10	1	-1E+10	1	-1E+10	1	-1E+10	1
4902549	30	C	06/05/2021	13:55	-132.890	47.302	0	1125.10	0	2.9880	0	34.3930	0	27.409	0	1112.718	0	7.6	4	2.3	4	-1E+10	1	-1E+10	1	-1E+10	1	-1E+10	1	-1E+10	1	-1E+10	1
4902549	30	C	06/05/2021	13:55	-132.890	47.302	0	1135.20	0	2.9770	0	34.3950	0	27.411	0	1122.680	0	7.6	4	2.4	4	-1E+10	1	-1E+10	1	-1E+10	1	-1E+10	1	-1E+10	1	-1E+10	1
4902549	30	C	06/05/2021	13:55	-132.890	47.302	0	1145.30	0	2.9670	0	34.3990	0	27.415	0	1132.642	0	7.6	4	2.4	4	-1E+10	1	-1E+10	1	-1E+10	1	-1E+10	1	-1E+10	1	-1E+10	1
4902549	30	C	06/05/2021	13:55	-132.890	47.302	0	1155.40	0	2.9560	0	34.4040	0	27.421	0	1142.603	0	7.7	4	2.4	4	-1E+10	1	-1E+10	1	-1E+10	1	-1E+10	1	-1E+10	1	-1E+10	1
4902549	30	C	06/05/2021	13:55	-132.890	47.302	0	1165.50	0	2.9450	0	34.4060	0	27.423	0	1152.563	0	7.7	4	2.4	4	-1E+10	1	-1E+10	1	-1E+10	1	-1E+10	1	-1E+10	1	-1E+10	1
4902549	30	C	06/05/2021	13:55	-132.890	47.302	0	1175.70	0	2.9360	0	34.4090	0	27.426	0	1162.622	0	7.7	4	2.4	4	-1E+10	1	-1E+10	1	-1E+10	1	-1E+10	1	-1E+10	1	-1E+10	1
4902549	30	C	06/05/2021	13:55	-132.890	47.302	0	1185.50	0	2.9170	0	34.4110	0	27.430	0	1172.285	0	7.8	4	2.4	4	-1E+10	1	-1E+10	1	-1E+10	1	-1E+10	1	-1E+10	1	-1E+10	1
4902549	30	C	06/05/2021	13:55	-132.890	47.302	0	1195.50	0	2.9030	0	34.4130	0	27.433	0	1182.146	0	7.9	4	2.4	4	-1E+10	1	-1E+10	1	-1E+10	1	-1E+10	1	-1E+10	1	-1E+10	1
4902549	30	C	06/05/2021	13:55	-132.890	47.302	0	1205.40	0	2.8900	0	34.4150	0	27.435	0	1191.907	0	8.0	4	2.5	4	-1E+10	1	-1E+10	1	-1E+10	1	-1E+10	1	-1E+10	1	-1E+10	1
4902549	30	C	06/05/2021	13:55	-132.890	47.302	0	1215.40	0	2.8740	0	34.4180	0	27.439	0	1201.767	0	8.2	4	2.5	4	-1E+10	1	-1E+10	1	-1E+10	1	-1E+10	1	-1E+10	1	-1E+10	1
4902549	30	C	06/05/2021	13:55	-132.890	47.302	0	1225.50	0	2.8520	0	34.4230	0	27.445	0	1211.724	0	8.3	4	2.6	4	-1E+10	1	-1E+10	1	-1E+10	1	-1E+10	1	-1E+10	1	-1E+10	1
4902549	30	C	06/05/2021	13:55	-132.890	47.302	0	1235.40	0	2.8350	0	34.4240	0	27.448	0	1221.484	0	8.4	4	2.6	4	-1E+10	1	-1E+10	1	-1E+10	1	-1E+10	1	-1E+10	1	-1E+10	1
4902549	30	C	06/05/2021	13:55	-132.890	47.302	0	1245.30	0	2.8120	0	34.4270	0	27.452	0	1231.244	0	8.6	4	2.6	4	-1E+10	1	-1E+10	1	-1E+10	1	-1E+10	1	-1E+10	1	-1E+10	1
4902549	30	C	06/05/2021	13:55	-132.890	47.302	0	1255.60	0	2.7910	0	34.4300	0	27.456	0	1241.397	0	8.7	4	2.7	4	-1E+10	1	-1E+10	1	-1E+10	1	-1E+10	1	-1E+10	1	-1E+10	1
4902549	30	C	06/05/2021	13:55	-132.890	47.302	0	1265.40	0	2.7760	0	34.4330	0	27.460	0	1251.057	0	8.8	4	2.7	4	-1E+10	1	-1E+10	1	-1E+10	1	-1E+10	1	-1E+10	1	-1E+10	1
4902549	30	C	06/05/2021	13:55	-132.890	47.302	0	1275.20	0	2.7620	0	34.4360	0	27.464	0	1260.717	0	9.0	4	2.8	4	-1E+10	1	-1E+10	1	-1E+10	1	-1E+10	1	-1E+10	1	-1E+10	1
4902549	30	C	06/05/2021	13:55	-132.890	47.302	0	1285.20	0	2.7430	0	34.4390	0	27.468	0	1270.573	0	9.3	4	2.9	4	-1E+10	1	-1E+10	1	-1E+10	1	-1E+10	1	-1E+10	1	-1E+10	1
4902549	30	C	06/05/2021	13:55	-132.890	47.302	0	1295.50	0	2.7250	0	34.4410	0	27.471	0	1280.725	0	9.7	4	3.0	4	-1E+10	1	-1E+10	1	-1E+10	1	-1E+10	1	-1E+10	1	-1E+10	1
4902549	30	C	06/05/2021	13:55	-132.890	47.302	0	1305.40	0	2.7100	0	34.4450	0	27.476	0	1290.481	0	10.3	4	3.2	4	-1E+10	1	-1E+10	1	-1E+10	1	-1E+10	1	-1E+10	1	-1E+10	1
4902549	30	C	06/05/2021	13:55	-132.890	47.302	0	1315.40	0	2.7040	0	34.4510	0	27.481	0	1300.336	0	11.1	4	3.4	4	-1E+10	1	-1E+10	1	-1E+10	1	-1E+10	1	-1E+10	1	-1E+10	1
4902549	30	C	06/05/2021	13:55	-132.890	47.302	0	1325.50	0	2.6870	0	34.4560	0	27.487	0	1310.289	0	11.7	4	3.6	4	-1E+10	1	-1E+10	1	-1E+10	1	-1E+10	1	-1E+10	1	-1E+10	1
4902549	30	C	06/05/2021	13:55	-132.890	47.302	0	1335.50	0	2.6760	0	34.4600	0	27.491	0	1320.143	0	12.2	4	3.7	4	-1E+10	1	-1E+10	1	-1E+10	1	-1E+10	1	-1E+10	1	-1E+10	1
4902549	30	C	06/05/2021	13:55	-132.890	47.302	0	1345.20	0	2.6610	0	34.4630	0	27.495	0	1329.701	0	12.7	4	3.9	4	-1E+10	1	-1E+10	1	-1E+10	1	-1E+10	1	-1E+10	1	-1E+10	1
4902549	30	C	06/05/2021	13:55	-132.890	47.302	0	1355.10	0	2.6500	0	34.4660	0	27.498	0	1339.455	0	13.2	4	4.0	4	-1E+10	1	-1E+10	1	-1E+10	1	-1E+10	1	-1E+10	1	-1E+10	1
4902549	30	C	06/05/2021	13:55	-132.890	47.302	0	1365.00	0	2.6370	0	34.4710	0	27.503	0	1349.209	0	13.8	4	4.2	4	-1E+10	1	-1E+10	1	-1E+10	1	-1E+10	1	-1E+10	1	-1E+10	1
4902549	30	C	06/05/2021	13:55	-132.890	47.302	0	1375.00	0	2.6140	0	34.4730	0	27.507	0	1359.062	0	14.2	4	4.4	4	-1E+10	1	-1E+10	1	-1E+10	1	-1E+10	1	-1E+10	1	-1E+10	1
4902549	30	C	06/05/2021	13:55	-132.890	47.302	0	1385.10	0	2.5810	0	34.4760	0	27.512	0	1369.012	0	14.8	4	4.5	4	-1E+10	1	-1E+10	1	-1E+10	1	-1E+10	1	-1E+10	1	-1E+10	1
4902549	30	C	06/05/2021	13:55	-132.890	47.302	0	1395.30	0	2.5660	0	34.4790	0	27.516	0	1379.060	0	15.1	4	4.6	4	-1E+10	1	-1E+10	1	-1E+10	1	-1E+10	1	-1E+10	1	-1E+10	1
4902549	30	C	06/05/2021	13:55	-132.890	47.302	0	1405.20	0	2.5460	0	34.4810	0	27.519	0	1388.812	0	15.5	4	4.7	4	-1E+10	1	-1E+10	1	-1E+10	1	-1E+10	1	-1E+10	1	-1E+10	1
4902549	30	C	06/05/2021	13:55	-132.890	47.302	0	1415.40	0	2.5300	0	34.4820	0	27.521	0	1398.859	0	15.7	4	4.8	4	-1E+10	1	-1E+10	1	-1E+10	1	-1E+10	1	-1E+10	1	-1E+10	1
4902549	30	C	06/05/2021	13:55	-132.890	47.302	0	1425.40	0	2.5140	0	34.4840	0	27.524	0	1408.709	0	16.0	4	4.9	4	-1E+10	1	-1E+10	1	-1E+10	1	-1E+10	1	-1E+10	1	-1E+10	1
4902549	30	C	06/05/2021	13:55	-132.890	47.302	0	1435.10	0	2.4970	0	34.4850	0	27.527	0	1418.263	0	16.3	4	5.0	4	-1E+10	1	-1E+10	1	-1E+10	1	-1E+10	1	-1E+10	1	-1E+10	1
4902549	30	C	06/05/2021	13:55	-132.890	47.302	0	1445.70	0	2.4830	0	34.4870	0	27.529	0	1428.703	0	16.6	4	5.1	4	-1E+10	1	-1E+10	1	-1E+10	1	-1E+10	1	-1E+10	1	-1E+10	1
4902549	30	C	06/05/2021	13:55	-132.890	47.302	0	1455.50	0	2.4680	0	34.4880	0	27.531	0	1438.354	0	17.0	4	5.2	4	-1E+10	1	-1E+10	1	-1E+10	1	-1E+10	1	-1E+10	1	-1E+10	1
4902549	30	C	06/05/2021	13:55	-132.890	47.302	0	1465.50	0	2.4560	0	34.4900	0	27.534	0	1448.202	0	17.4	4	5.3	4	-1E+10	1	-1E+10	1	-1E+10	1	-1E+10	1	-1E+10	1	-1E+10	1
4902549	30	C	06/05/2021	13:55	-132.890	47.302	0	1475.40	0	2.4440	0	34.4910	0	27.536	0	1457.951	0	17.6	4	5.4	4	-1E+10	1	-1E+10	1	-1E+10	1	-1E+10	1	-1E+10	1	-1E+10	1
4902549	30	C	06/05/2021	13:55	-132.890	47.302	0	1485.30	0	2.4320	0	34.4920	0	27.538	0	1467.700	0	18.0	4	5.5	4	-1E+10	1	-1E+10	1	-1E+10	1	-1E+10	1	-1E+10	1	-1E+10	1
4902549	30	C	06/05/2021	13:55	-132.890	47.302	0	1495.40	0	2.4170	0	34.4950	0	27.542	0	1477.645	0	18.4	4	5.6	4	-1E+10	1	-1E+10	1	-1E+10	1	-1E+10	1	-1E+10	1	-1E+10	1
4902549	30	C	06/05/2021	13:55	-132.890	47.302	0	1505.30	0	2.4050	0	34.4970	0	27.544	0	1487.392	0	18.7	4	5.7	4	-1E+10	1	-1E+10	1	-1E+10	1	-1E+10	1	-1E+10	1	-1E+10	1
4902549	30	C	06/05/2021	13:55	-132.890	47.302	0	1515.30	0	2.3910	0	34.4990	0	27.547	0	1497.238	0	19.2	4	5.8	4	-1E+10	1	-1E+10	1	-1E+10	1	-1E+10	1	-1E+10	1	-1E+10	1
4902549	30	C	06/05/2021	13:55	-132.890	47.302	0	1525.50	0	2.3710	0	34.5020	0	27.551	0	1507.280	0	20.0	4	6.1	4	-1E+10	1	-1E+10	1	-1E+10	1	-1E+10	1	-1E+10	1	-1E+10	1
4902549	30	C	06/05/2021	13:55	-132.890	47.302	0	1535.40	0	2.3600	0	34.5040	0	27.554	0	1517.026	0	20.7	4	6.3	4	-1E+10	1	-1E+10	1	-1E+10	1	-1E+10	1	-1E+10	1	-1E+10	1
4902549	30	C	06/05/2021	13:55	-132.890	47.302	0	1545.40	0	2.3520	0	34.5060	0	27.556	0	1526.871	0	21.2	4	6.5	4	-1E+10	1	-1E+10	1	-1E+10	1	-1E+10	1	-1E+10	1	-1E+10	1
4902549	30	C	06/05/2021	13:55	-132.890	47.302	0	1555.60	0	2.3390	0	34.5080	0	27.559	0	1536.911	0	21.9	4	6.7	4	-1E+10	1	-1E+10	1	-1E+10	1	-1E+10	1	-1E+10	1	-1E+10	1
4902549	30	C	06/05/2021	13:55	-132.890	47.302	0	1565.60	0	2.3260	0	34.5100	0	27.561	0	1546.755	0	22.5	4	6.8	4	-1E+10	1	-1E+10	1	-1E+10	1	-1E+10	1	-1E+10	1	-1E+10	1
4902549	30	C	06/05/2021	13:55	-132.890	47.302	0	1575.20	0	2.3130	0	34.5120	0	27.564	0	1556.204	0	23.0	4	7.0	4	-1E+10	1	-1E+10	1	-1E+10	1	-1E+10	1	-1E+10	1	-1E+10	1
4902549	30	C	06/05/2021	13:55	-132.890	47.302	0	1585.20	0	2.3020	0	34.5140	0	27.567	0	1566.046	0	23.5	4	7.1	4	-1E+10	1	-1E+10	1	-1E+10	1	-1E+10	1	-1E+10	1	-1E+10	1
4902549	30	C	06/05/2021	13:55	-132.890	47.302	0	1595.10	0	2.2910	0	34.5160	0	27.569	0	1575.790	0	23.9	4	7.3	4	-1E+10	1	-1E+10	1	-1E+10	1	-1E+10	1	-1E+10	1	-1E+10	1
4902549	30	C	06/05/2021	13:55	-132.890	47.302	0	1605.40	0	2.2850	0	34.5170	0	27.571	0	1585.927	0	24.4	4	7.4	4	-1E+10	1	-1E+10	1	-1E+10	1	-1E+10	1	-1E+10	1	-1E+10	1
4902549	30	C	06/05/2021	13:55	-132.890	47.302	0	1615.40	0	2.2760	0	34.5180	0	27.572	0	1595.768	0	24.9	4	7.6	4	-1E+10	1	-1E+10	1	-1E+10	1	-1E+10	1	-1E+10	1	-1E+10	1
4902549	30	C	06/05/2021	13:55	-132.890	47.302	0	1625.40	0	2.2690	0	34.5200	0	27.574	0	1605.608	0	25.3	4	7.7	4	-1E+10	1	-1E+10	1	-1E+10	1	-1E+10	1	-1E+10	1	-1E+10	1
4902549	30	C	06/05/2021	13:55	-132.890	47.302	0	1635.70	0	2.2630	0	34.5210	0	27.576	0	1615.743	0	25.8	4	7.8	4	-1E+10	1	-1E+10	1	-1E+10	1	-1E+10	1	-1E+10	1	-1E+10	1
4902549	30	C	06/05/2021	13:55	-132.890	47.302	0	1645.50	0	2.2530	0	34.5230	0	27.578	0	1625.386	0	26.3	4	8.0	4	-1E+10	1	-1E+10	1	-1E+10	1	-1E+10	1	-1E+10	1	-1E+10	1
4902549	30	C	06/05/2021	13:55	-132.890	47.302	0	1655.40	0	2.2410	0	34.5250	0	27.581	0	1635.127	0	26.7	4	8.1	4	-1E+10	1	-1E+10	1	-1E+10	1	-1E+10	1	-1E+10	1	-1E+10	1
4902549	30	C	06/05/2021	13:55	-132.890	47.302	0	1665.50	0	2.2370	0	34.5250	0	27.581	0	1645.064	0	27.2	4	8.2	4	-1E+10	1	-1E+10	1	-1E+10	1	-1E+10	1	-1E+10	1	-1E+10	1
4902549	30	C	06/05/2021	13:55	-132.890	47.302	0	1675.40	0	2.2250	0	34.5280	0	27.585	0	1654.804	0	27.8	4	8.4	4	-1E+10	1	-1E+10	1	-1E+10	1	-1E+10	1	-1E+10	1	-1E+10	1
4902549	30	C	06/05/2021	13:55	-132.890	47.302	0	1685.50	0	2.2170	0	34.5290	0	27.586	0	1664.740	0	28.3	4	8.6	4	-1E+10	1	-1E+10	1	-1E+10	1	-1E+10	1	-1E+10	1	-1E+10	1
4902549	30	C	06/05/2021	13:55	-132.890	47.302	0	1695.30	0	2.2090	0	34.5310	0	27.588	0	1674.381	0	28.9	4	8.7	4	-1E+10	1	-1E+10	1	-1E+10	1	-1E+10	1	-1E+10	1	-1E+10	1
4902549	30	C	06/05/2021	13:55	-132.890	47.302	0	1705.40	0	2.2020	0	34.5320	0	27.590	0	1684.316	0	29.4	4	8.9	4	-1E+10	1	-1E+10	1	-1E+10	1	-1E+10	1	-1E+10	1	-1E+10	1
4902549	30	C	06/05/2021	13:55	-132.890	47.302	0	1715.40	0	2.1930	0	34.5340	0	27.592	0	1694.153	0	30.1	4	9.1	4	-1E+10	1	-1E+10	1	-1E+10	1	-1E+10	1	-1E+10	1	-1E+10	1
4902549	30	C	06/05/2021	13:55	-132.890	47.302	0	1725.10	0	2.1860	0	34.5360	0	27.594	0	1703.694	0	30.6	4	9.3	4	-1E+10	1	-1E+10	1	-1E+10	1	-1E+10	1	-1E+10	1	-1E+10	1
4902549	30	C	06/05/2021	13:55	-132.890	47.302	0	1735.00	0	2.1780	0	34.5370	0	27.596	0	1713.431	0	31.3	4	9.5	4	-1E+10	1	-1E+10	1	-1E+10	1	-1E+10	1	-1E+10	1	-1E+10	1
4902549	30	C	06/05/2021	13:55	-132.890	47.302	0	1745.40	0	2.1680	0	34.5390	0	27.598	0	1723.659	0	31.8	4	9.6	4	-1E+10	1	-1E+10	1	-1E+10	1	-1E+10	1	-1E+10	1	-1E+10	1
4902549	30	C	06/05/2021	13:55	-132.890	47.302	0	1755.80	0	2.1600	0	34.5410	0	27.601	0	1733.887	0	32.4	4	9.8	4	-1E+10	1	-1E+10	1	-1E+10	1	-1E+10	1	-1E+10	1	-1E+10	1
4902549	30	C	06/05/2021	13:55	-132.890	47.302	0	1765.80	0	2.1520	0	34.5420	0	27.602	0	1743.722	0	33.0	4	10.0	4	-1E+10	1	-1E+10	1	-1E+10	1	-1E+10	1	-1E+10	1	-1E+10	1
4902549	30	C	06/05/2021	13:55	-132.890	47.302	0	1775.80	0	2.1400	0	34.5440	0	27.605	0	1753.555	0	33.7	4	10.2	4	-1E+10	1	-1E+10	1	-1E+10	1	-1E+10	1	-1E+10	1	-1E+10	1
4902549	30	C	06/05/2021	13:55	-132.890	47.302	0	1785.90	0	2.1330	0	34.5450	0	27.606	0	1763.487	0	34.2	4	10.3	4	-1E+10	1	-1E+10	1	-1E+10	1	-1E+10	1	-1E+10	1	-1E+10	1
4902549	30	C	06/05/2021	13:55	-132.890	47.302	0	1795.40	0	2.1270	0	34.5470	0	27.608	0	1772.828	0	34.7	4	10.5	4	-1E+10	1	-1E+10	1	-1E+10	1	-1E+10	1	-1E+10	1	-1E+10	1
4902549	30	C	06/05/2021	13:55	-132.890	47.302	0	1805.00	0	2.1200	0	34.5480	0	27.610	0	1782.267	0	35.4	4	10.7	4	-1E+10	1	-1E+10	1	-1E+10	1	-1E+10	1	-1E+10	1	-1E+10	1
4902549	30	C	06/05/2021	13:55	-132.890	47.302	0	1815.10	0	2.1110	0	34.5500	0	27.612	0	1792.197	0	36.0	4	10.9	4	-1E+10	1	-1E+10	1	-1E+10	1	-1E+10	1	-1E+10	1	-1E+10	1
4902549	30	C	06/05/2021	13:55	-132.890	47.302	0	1825.10	0	2.1040	0	34.5520	0	27.614	0	1802.029	0	36.7	4	11.1	4	-1E+10	1	-1E+10	1	-1E+10	1	-1E+10	1	-1E+10	1	-1E+10	1
4902549	30	C	06/05/2021	13:55	-132.890	47.302	0	1835.00	0	2.0930	0	34.5540	0	27.617	0	1811.761	0	37.4	4	11.3	4	-1E+10	1	-1E+10	1	-1E+10	1	-1E+10	1	-1E+10	1	-1E+10	1
4902549	30	C	06/05/2021	13:55	-132.890	47.302	0	1845.50	0	2.0840	0	34.5550	0	27.618	0	1822.083	0	38.0	4	11.5	4	-1E+10	1	-1E+10	1	-1E+10	1	-1E+10	1	-1E+10	1	-1E+10	1
4902549	30	C	06/05/2021	13:55	-132.890	47.302	0	1855.90	0	2.0790	0	34.5570	0	27.620	0	1832.307	0	38.7	4	11.7	4	-1E+10	1	-1E+10	1	-1E+10	1	-1E+10	1	-1E+10	1	-1E+10	1
4902549	30	C	06/05/2021	13:55	-132.890	47.302	0	1865.80	0	2.0650	0	34.5590	0	27.623	0	1842.038	0	39.5	4	11.9	4	-1E+10	1	-1E+10	1	-1E+10	1	-1E+10	1	-1E+10	1	-1E+10	1
4902549	30	C	06/05/2021	13:55	-132.890	47.302	0	1875.80	0	2.0550	0	34.5610	0	27.626	0	1851.867	0	40.1	4	12.1	4	-1E+10	1	-1E+10	1	-1E+10	1	-1E+10	1	-1E+10	1	-1E+10	1
4902549	30	C	06/05/2021	13:55	-132.890	47.302	0	1885.80	0	2.0490	0	34.5620	0	27.627	0	1861.696	0	40.6	4	12.3	4	-1E+10	1	-1E+10	1	-1E+10	1	-1E+10	1	-1E+10	1	-1E+10	1
4902549	30	C	06/05/2021	13:55	-132.890	47.302	0	1895.30	0	2.0430	0	34.5630	0	27.628	0	1871.033	0	41.1	4	12.4	4	-1E+10	1	-1E+10	1	-1E+10	1	-1E+10	1	-1E+10	1	-1E+10	1
4902549	30	C	06/05/2021	13:55	-132.890	47.302	0	1905.00	0	2.0380	0	34.5640	0	27.630	0	1880.566	0	41.6	4	12.5	4	-1E+10	1	-1E+10	1	-1E+10	1	-1E+10	1	-1E+10	1	-1E+10	1
4902549	30	C	06/05/2021	13:55	-132.890	47.302	0	1915.10	0	2.0320	0	34.5650	0	27.631	0	1890.491	0	42.0	4	12.7	4	-1E+10	1	-1E+10	1	-1E+10	1	-1E+10	1	-1E+10	1	-1E+10	1
4902549	30	C	06/05/2021	13:55	-132.890	47.302	0	1925.20	0	2.0270	0	34.5660	0	27.632	0	1900.416	0	42.7	4	12.9	4	-1E+10	1	-1E+10	1	-1E+10	1	-1E+10	1	-1E+10	1	-1E+10	1
4902549	30	C	06/05/2021	13:55	-132.890	47.302	0	1935.60	0	2.0180	0	34.5680	0	27.634	0	1910.636	0	43.4	4	13.1	4	-1E+10	1	-1E+10	1	-1E+10	1	-1E+10	1	-1E+10	1	-1E+10	1
4902549	30	C	06/05/2021	13:55	-132.890	47.302	0	1945.20	0	2.0090	0	34.5700	0	27.637	0	1920.069	0	44.1	4	13.3	4	-1E+10	1	-1E+10	1	-1E+10	1	-1E+10	1	-1E+10	1	-1E+10	1
4902549	30	C	06/05/2021	13:55	-132.890	47.302	0	1955.30	0	2.0020	0	34.5710	0	27.638	0	1929.993	0	44.7	4	13.5	4	-1E+10	1	-1E+10	1	-1E+10	1	-1E+10	1	-1E+10	1	-1E+10	1
4902549	30	C	06/05/2021	13:55	-132.890	47.302	0	1965.60	0	1.9930	0	34.5730	0	27.641	0	1940.112	0	45.3	4	13.7	4	-1E+10	1	-1E+10	1	-1E+10	1	-1E+10	1	-1E+10	1	-1E+10	1
4902549	30	C	06/05/2021	13:55	-132.890	47.302	0	1975.50	0	1.9870	0	34.5740	0	27.642	0	1949.839	0	46.0	4	13.9	4	-1E+10	1	-1E+10	1	-1E+10	1	-1E+10	1	-1E+10	1	-1E+10	1
4902549	30	C	06/05/2021	13:55	-132.890	47.302	0	1985.40	0	1.9790	0	34.5760	0	27.644	0	1959.565	0	46.7	4	14.1	4	-1E+10	1	-1E+10	1	-1E+10	1	-1E+10	1	-1E+10	1	-1E+10	1
4902549	30	C	06/05/2021	13:55	-132.890	47.302	0	1995.50	0	1.9680	0	34.5770	0	27.646	0	1969.486	0	47.6	4	14.4	4	-1E+10	1	-1E+10	1	-1E+10	1	-1E+10	1	-1E+10	1	-1E+10	1
4902549	30	C	06/05/2021	13:55	-132.890	47.302	0	2005.30	0	1.9560	0	34.5790	0	27.648	0	1979.113	0	48.4	4	14.6	4	-1E+10	1	-1E+10	1	-1E+10	1	-1E+10	1	-1E+10	1	-1E+10	1
4902549	30	C	06/05/2021	13:55	-132.890	47.302	0	2015.20	0	1.9480	0	34.5810	0	27.651	0	1988.838	0	49.0	4	14.8	4	-1E+10	1	-1E+10	1	-1E+10	1	-1E+10	1	-1E+10	1	-1E+10	1
4902549	30	C	06/05/2021	13:55	-132.890	47.302	0	2024.40	0	1.9410	0	34.5820	0	27.652	0	1997.874	0	49.2	4	14.8	4	-1E+10	1	-1E+10	1	-1E+10	1	-1E+10	1	-1E+10	1	-1E+10	1
4902549	30	C	06/05/2021	13:55	-132.890	47.302	0																										
4902549	31	C	06/15/2021	19:11	-132.722	47.289	0	0.20	0	12.1440	0	32.2430	0	24.422	0	0.198	0	263.1	4	98.3	4	-1E+10	1	-1E+10	1	-1E+10	1	-1E+10	1	-1E+10	1	-1E+10	1
4902549	31	C	06/15/2021	19:11	-132.722	47.289	0	1.00	0	12.0800	0	32.2760	0	24.460	0	0.992	0	263.1	4	98.2	4	-1E+10	1	-1E+10	1	-1E+10	1	-1E+10	1	-1E+10	1	-1E+10	1
4902549	31	C	06/15/2021	19:11	-132.722	47.289	0	2.10	0	12.0520	0	32.2810	0	24.469	0	2.083	0	263.3	4	98.2	4	-1E+10	1	-1E+10	1	-1E+10	1	-1E+10	1	-1E+10	1	-1E+10	1
4902549	31	C	06/15/2021	19:11	-132.722	47.289	0	3.00	0	12.0280	0	32.2940	0	24.484	0	2.975	0	263.2	4	98.1	4	-1E+10	1	-1E+10	1	-1E+10	1	-1E+10	1	-1E+10	1	-1E+10	1
4902549	31	C	06/15/2021	19:11	-132.722	47.289	0	4.10	0	12.0050	0	32.3120	0	24.502	0	4.066	0	263.2	4	98.1	4	-1E+10	1	-1E+10	1	-1E+10	1	-1E+10	1	-1E+10	1	-1E+10	1
4902549	31	C	06/15/2021	19:11	-132.722	47.289	0	5.10	0	11.9790	0	32.3290	0	24.520	0	5.057	0	263.4	4	98.1	4	-1E+10	1	-1E+10	1	-1E+10	1	-1E+10	1	-1E+10	1	-1E+10	1
4902549	31	C	06/15/2021	19:11	-132.722	47.289	0	6.00	0	11.9700	0	32.3270	0	24.520	0	5.950	0	263.3	4	98.1	4	-1E+10	1	-1E+10	1	-1E+10	1	-1E+10	1	-1E+10	1	-1E+10	1
4902549	31	C	06/15/2021	19:11	-132.722	47.289	0	6.80	0	11.9650	0	32.3280	0	24.522	0	6.743	0	263.4	4	98.1	4	-1E+10	1	-1E+10	1	-1E+10	1	-1E+10	1	-1E+10	1	-1E+10	1
4902549	31	C	06/15/2021	19:11	-132.722	47.289	0	7.90	0	11.9590	0	32.3280	0	24.523	0	7.834	0	263.5	4	98.1	4	-1E+10	1	-1E+10	1	-1E+10	1	-1E+10	1	-1E+10	1	-1E+10	1
4902549	31	C	06/15/2021	19:11	-132.722	47.289	0	9.00	0	11.9550	0	32.3280	0	24.524	0	8.925	0	263.6	4	98.2	4	-1E+10	1	-1E+10	1	-1E+10	1	-1E+10	1	-1E+10	1	-1E+10	1
4902549	31	C	06/15/2021	19:11	-132.722	47.289	0	10.10	0	11.9470	0	32.3280	0	24.525	0	10.016	0	263.7	4	98.2	4	-1E+10	1	-1E+10	1	-1E+10	1	-1E+10	1	-1E+10	1	-1E+10	1
4902549	31	C	06/15/2021	19:11	-132.722	47.289	0	11.00	0	11.9440	0	32.3280	0	24.526	0	10.908	0	263.7	4	98.2	4	-1E+10	1	-1E+10	1	-1E+10	1	-1E+10	1	-1E+10	1	-1E+10	1
4902549	31	C	06/15/2021	19:11	-132.722	47.289	0	11.80	0	11.9380	0	32.3280	0	24.527	0	11.701	0	263.9	4	98.2	4	-1E+10	1	-1E+10	1	-1E+10	1	-1E+10	1	-1E+10	1	-1E+10	1
4902549	31	C	06/15/2021	19:11	-132.722	47.289	0	12.80	0	11.9170	0	32.3270	0	24.530	0	12.693	0	264.0	4	98.2	4	-1E+10	1	-1E+10	1	-1E+10	1	-1E+10	1	-1E+10	1	-1E+10	1
4902549	31	C	06/15/2021	19:11	-132.722	47.289	0	13.90	0	11.8530	0	32.3270	0	24.542	0	13.784	0	264.6	4	98.3	4	-1E+10	1	-1E+10	1	-1E+10	1	-1E+10	1	-1E+10	1	-1E+10	1
4902549	31	C	06/15/2021	19:11	-132.722	47.289	0	14.90	0	11.8260	0	32.3260	0	24.546	0	14.775	0	264.8	4	98.3	4	-1E+10	1	-1E+10	1	-1E+10	1	-1E+10	1	-1E+10	1	-1E+10	1
4902549	31	C	06/15/2021	19:11	-132.722	47.289	0	16.00	0	11.7950	0	32.3240	0	24.550	0	15.866	0	265.1	4	98.4	4	-1E+10	1	-1E+10	1	-1E+10	1	-1E+10	1	-1E+10	1	-1E+10	1
4902549	31	C	06/15/2021	19:11	-132.722	47.289	0	16.90	0	11.7210	0	32.3280	0	24.567	0	16.759	0	265.4	4	98.4	4	-1E+10	1	-1E+10	1	-1E+10	1	-1E+10	1	-1E+10	1	-1E+10	1
4902549	31	C	06/15/2021	19:11	-132.722	47.289	0	17.80	0	11.6390	0	32.3290	0	24.583	0	17.651	0	265.9	4	98.4	4	-1E+10	1	-1E+10	1	-1E+10	1	-1E+10	1	-1E+10	1	-1E+10	1
4902549	31	C	06/15/2021	19:11	-132.722	47.289	0	19.00	0	11.4980	0	32.3350	0	24.613	0	18.841	0	266.7	4	98.4	4	-1E+10	1	-1E+10	1	-1E+10	1	-1E+10	1	-1E+10	1	-1E+10	1
4902549	31	C	06/15/2021	19:11	-132.722	47.289	0	20.00	0	11.4270	0	32.3350	0	24.626	0	19.833	0	266.9	4	98.3	4	-1E+10	1	-1E+10	1	-1E+10	1	-1E+10	1	-1E+10	1	-1E+10	1
4902549	31	C	06/15/2021	19:11	-132.722	47.289	0	20.90	0	11.4190	0	32.3340	0	24.626	0	20.725	0	267.1	4	98.3	4	-1E+10	1	-1E+10	1	-1E+10	1	-1E+10	1	-1E+10	1	-1E+10	1
4902549	31	C	06/15/2021	19:11	-132.722	47.289	0	21.90	0	11.4090	0	32.3350	0	24.629	0	21.716	0	267.1	4	98.3	4	-1E+10	1	-1E+10	1	-1E+10	1	-1E+10	1	-1E+10	1	-1E+10	1
4902549	31	C	06/15/2021	19:11	-132.722	47.289	0	22.80	0	11.3860	0	32.3350	0	24.633	0	22.609	0	267.2	4	98.3	4	-1E+10	1	-1E+10	1	-1E+10	1	-1E+10	1	-1E+10	1	-1E+10	1
4902549	31	C	06/15/2021	19:11	-132.722	47.289	0	24.00	0	11.3620	0	32.3350	0	24.638	0	23.799	0	267.3	4	98.3	4	-1E+10	1	-1E+10	1	-1E+10	1	-1E+10	1	-1E+10	1	-1E+10	1
4902549	31	C	06/15/2021	19:11	-132.722	47.289	0	24.90	0	11.3560	0	32.3360	0	24.639	0	24.691	0	267.3	4	98.3	4	-1E+10	1	-1E+10	1	-1E+10	1	-1E+10	1	-1E+10	1	-1E+10	1
4902549	31	C	06/15/2021	19:11	-132.722	47.289	0	25.80	0	11.3490	0	32.3360	0	24.641	0	25.584	0	267.3	4	98.3	4	-1E+10	1	-1E+10	1	-1E+10	1	-1E+10	1	-1E+10	1	-1E+10	1
4902549	31	C	06/15/2021	19:11	-132.722	47.289	0	27.00	0	11.3380	0	32.3370	0	24.644	0	26.773	0	267.2	4	98.2	4	-1E+10	1	-1E+10	1	-1E+10	1	-1E+10	1	-1E+10	1	-1E+10	1
4902549	31	C	06/15/2021	19:11	-132.722	47.289	0	27.90	0	11.3280	0	32.3370	0	24.645	0	27.666	0	267.3	4	98.2	4	-1E+10	1	-1E+10	1	-1E+10	1	-1E+10	1	-1E+10	1	-1E+10	1
4902549	31	C	06/15/2021	19:11	-132.722	47.289	0	28.80	0	11.3190	0	32.3370	0	24.647	0	28.558	0	267.3	4	98.2	4	-1E+10	1	-1E+10	1	-1E+10	1	-1E+10	1	-1E+10	1	-1E+10	1
4902549	31	C	06/15/2021	19:11	-132.722	47.289	0	29.90	0	11.3090	0	32.3380	0	24.650	0	29.649	0	267.3	4	98.2	4	-1E+10	1	-1E+10	1	-1E+10	1	-1E+10	1	-1E+10	1	-1E+10	1
4902549	31	C	06/15/2021	19:11	-132.722	47.289	0	31.10	0	11.3000	0	32.3370	0	24.650	0	30.839	0	267.3	4	98.2	4	-1E+10	1	-1E+10	1	-1E+10	1	-1E+10	1	-1E+10	1	-1E+10	1
4902549	31	C	06/15/2021	19:11	-132.722	47.289	0	32.00	0	11.2900	0	32.3380	0	24.653	0	31.731	0	267.3	4	98.2	4	-1E+10	1	-1E+10	1	-1E+10	1	-1E+10	1	-1E+10	1	-1E+10	1
4902549	31	C	06/15/2021	19:11	-132.722	47.289	0	32.90	0	11.2600	0	32.3400	0	24.660	0	32.623	0	267.4	4	98.2	4	-1E+10	1	-1E+10	1	-1E+10	1	-1E+10	1	-1E+10	1	-1E+10	1
4902549	31	C	06/15/2021	19:11	-132.722	47.289	0	34.10	0	11.2270	0	32.3410	0	24.667	0	33.813	0	267.5	4	98.1	4	-1E+10	1	-1E+10	1	-1E+10	1	-1E+10	1	-1E+10	1	-1E+10	1
4902549	31	C	06/15/2021	19:11	-132.722	47.289	0	35.00	0	11.2210	0	32.3410	0	24.668	0	34.706	0	267.6	4	98.1	4	-1E+10	1	-1E+10	1	-1E+10	1	-1E+10	1	-1E+10	1	-1E+10	1
4902549	31	C	06/15/2021	19:11	-132.722	47.289	0	35.90	0	11.2130	0	32.3410	0	24.669	0	35.598	0	267.4	4	98.1	4	-1E+10	1	-1E+10	1	-1E+10	1	-1E+10	1	-1E+10	1	-1E+10	1
4902549	31	C	06/15/2021	19:11	-132.722	47.289	0	37.10	0	11.2040	0	32.3420	0	24.672	0	36.788	0	267.3	4	98.0	4	-1E+10	1	-1E+10	1	-1E+10	1	-1E+10	1	-1E+10	1	-1E+10	1
4902549	31	C	06/15/2021	19:11	-132.722	47.289	0	38.00	0	11.1900	0	32.3410	0	24.673	0	37.680	0	267.3	4	98.0	4	-1E+10	1	-1E+10	1	-1E+10	1	-1E+10	1	-1E+10	1	-1E+10	1
4902549	31	C	06/15/2021	19:11	-132.722	47.289	0	38.90	0	11.1780	0	32.3420	0	24.676	0	38.572	0	267.4	4	98.0	4	-1E+10	1	-1E+10	1	-1E+10	1	-1E+10	1	-1E+10	1	-1E+10	1
4902549	31	C	06/15/2021	19:11	-132.722	47.289	0	40.10	0	11.1690	0	32.3410	0	24.677	0	39.762	0	267.5	4	98.0	4	-1E+10	1	-1E+10	1	-1E+10	1	-1E+10	1	-1E+10	1	-1E+10	1
4902549	31	C	06/15/2021	19:11	-132.722	47.289	0	41.00	0	11.1560	0	32.3410	0	24.679	0	40.655	0	267.6	4	98.0	4	-1E+10	1	-1E+10	1	-1E+10	1	-1E+10	1	-1E+10	1	-1E+10	1
4902549	31	C	06/15/2021	19:11	-132.722	47.289	0	41.90	0	11.1460	0	32.3410	0	24.681	0	41.547	0	267.6	4	98.0	4	-1E+10	1	-1E+10	1	-1E+10	1	-1E+10	1	-1E+10	1	-1E+10	1
4902549	31	C	06/15/2021	19:11	-132.722	47.289	0	43.00	0	11.1450	0	32.3420	0	24.682	0	42.638	0	267.8	4	98.0	4	-1E+10	1	-1E+10	1	-1E+10	1	-1E+10	1	-1E+10	1	-1E+10	1
4902549	31	C	06/15/2021	19:11	-132.722	47.289	0	44.10	0	11.0930	0	32.3430	0	24.692	0	43.728	0	268.2	4	98.1	4	-1E+10	1	-1E+10	1	-1E+10	1	-1E+10	1	-1E+10	1	-1E+10	1
4902549	31	C	06/15/2021	19:11	-132.722	47.289	0	45.30	0	11.0040	0	32.3500	0	24.713	0	44.918	0	268.6	4	98.1	4	-1E+10	1	-1E+10	1	-1E+10	1	-1E+10	1	-1E+10	1	-1E+10	1
4902549	31	C	06/15/2021	19:11	-132.722	47.289	0	46.00	0	10.9290	0	32.3470	0	24.724	0	45.612	0	269.4	4	98.2	4	-1E+10	1	-1E+10	1	-1E+10	1	-1E+10	1	-1E+10	1	-1E+10	1
4902549	31	C	06/15/2021	19:11	-132.722	47.289	0	47.00	0	10.7290	0	32.3570	0	24.767	0	46.603	0	270.7	4	98.2	4	-1E+10	1	-1E+10	1	-1E+10	1	-1E+10	1	-1E+10	1	-1E+10	1
4902549	31	C	06/15/2021	19:11	-132.722	47.289	0	48.00	0	10.4310	0	32.3660	0	24.825	0	47.595	0	272.2	4	98.2	4	-1E+10	1	-1E+10	1	-1E+10	1	-1E+10	1	-1E+10	1	-1E+10	1
4902549	31	C	06/15/2021	19:11	-132.722	47.289	0	49.10	0	10.2730	0	32.3720	0	24.856	0	48.685	0	272.9	4	98.1	4	-1E+10	1	-1E+10	1	-1E+10	1	-1E+10	1	-1E+10	1	-1E+10	1
4902549	31	C	06/15/2021	19:11	-132.722	47.289	0	50.10	0	10.1270	0	32.3740	0	24.882	0	49.677	0	273.5	4	98.0	4	-1E+10	1	-1E+10	1	-1E+10	1	-1E+10	1	-1E+10	1	-1E+10	1
4902549	31	C	06/15/2021	19:11	-132.722	47.289	0	51.00	0	9.9850	0	32.3800	0	24.911	0	50.569	0	274.0	4	97.9	4	-1E+10	1	-1E+10	1	-1E+10	1	-1E+10	1	-1E+10	1	-1E+10	1
4902549	31	C	06/15/2021	19:11	-132.722	47.289	0	52.00	0	9.8920	0	32.3770	0	24.924	0	51.561	0	274.0	4	97.7	4	-1E+10	1	-1E+10	1	-1E+10	1	-1E+10	1	-1E+10	1	-1E+10	1
4902549	31	C	06/15/2021	19:11	-132.722	47.289	0	53.00	0	9.6110	0	32.3860	0	24.976	0	52.552	0	274.8	4	97.4	4	-1E+10	1	-1E+10	1	-1E+10	1	-1E+10	1	-1E+10	1	-1E+10	1
4902549	31	C	06/15/2021	19:11	-132.722	47.289	0	54.20	0	9.3470	0	32.4010	0	25.030	0	53.742	0	274.9	4	96.9	4	-1E+10	1	-1E+10	1	-1E+10	1	-1E+10	1	-1E+10	1	-1E+10	1
4902549	31	C	06/15/2021	19:11	-132.722	47.289	0	55.00	0	9.2320	0	32.3890	0	25.039	0	54.535	0	274.9	4	96.6	4	-1E+10	1	-1E+10	1	-1E+10	1	-1E+10	1	-1E+10	1	-1E+10	1
4902549	31	C	06/15/2021	19:11	-132.722	47.289	0	56.20	0	9.1090	0	32.3890	0	25.058	0	55.724	0	273.8	4	96.0	4	-1E+10	1	-1E+10	1	-1E+10	1	-1E+10	1	-1E+10	1	-1E+10	1
4902549	31	C	06/15/2021	19:11	-132.722	47.289	0	56.90	0	8.8540	0	32.4050	0	25.110	0	56.418	0	274.4	4	95.7	4	-1E+10	1	-1E+10	1	-1E+10	1	-1E+10	1	-1E+10	1	-1E+10	1
4902549	31	C	06/15/2021	19:11	-132.722	47.289	0	57.90	0	8.7230	0	32.3990	0	25.126	0	57.410	0	274.3	4	95.3	4	-1E+10	1	-1E+10	1	-1E+10	1	-1E+10	1	-1E+10	1	-1E+10	1
4902549	31	C	06/15/2021	19:11	-132.722	47.289	0	58.80	0	8.6870	0	32.4100	0	25.140	0	58.302	0	274.2	4	95.2	4	-1E+10	1	-1E+10	1	-1E+10	1	-1E+10	1	-1E+10	1	-1E+10	1
4902549	31	C	06/15/2021	19:11	-132.722	47.289	0	59.80	0	8.6110	0	32.4100	0	25.151	0	59.293	0	273.7	4	94.9	4	-1E+10	1	-1E+10	1	-1E+10	1	-1E+10	1	-1E+10	1	-1E+10	1
4902549	31	C	06/15/2021	19:11	-132.722	47.289	0	60.90	0	8.5520	0	32.4080	0	25.159	0	60.384	0	272.9	4	94.5	4	-1E+10	1	-1E+10	1	-1E+10	1	-1E+10	1	-1E+10	1	-1E+10	1
4902549	31	C	06/15/2021	19:11	-132.722	47.289	0	61.90	0	8.4370	0	32.4230	0	25.188	0	61.375	0	272.6	4	94.2	4	-1E+10	1	-1E+10	1	-1E+10	1	-1E+10	1	-1E+10	1	-1E+10	1
4902549	31	C	06/15/2021	19:11	-132.722	47.289	0	62.90	0	8.3660	0	32.4270	0	25.201	0	62.367	0	272.3	4	93.9	4	-1E+10	1	-1E+10	1	-1E+10	1	-1E+10	1	-1E+10	1	-1E+10	1
4902549	31	C	06/15/2021	19:11	-132.722	47.289	0	64.00	0	8.3560	0	32.4330	0	25.207	0	63.457	0	272.1	4	93.8	4	-1E+10	1	-1E+10	1	-1E+10	1	-1E+10	1	-1E+10	1	-1E+10	1
4902549	31	C	06/15/2021	19:11	-132.722	47.289	0	65.00	0	8.3010	0	32.4340	0	25.216	0	64.449	0	272.0	4	93.7	4	-1E+10	1	-1E+10	1	-1E+10	1	-1E+10	1	-1E+10	1	-1E+10	1
4902549	31	C	06/15/2021	19:11	-132.722	47.289	0	66.10	0	8.2430	0	32.4340	0	25.225	0	65.539	0	272.0	4	93.6	4	-1E+10	1	-1E+10	1	-1E+10	1	-1E+10	1	-1E+10	1	-1E+10	1
4902549	31	C	06/15/2021	19:11	-132.722	47.289	0	67.10	0	8.1860	0	32.4380	0	25.236	0	66.530	0	271.9	4	93.4	4	-1E+10	1	-1E+10	1	-1E+10	1	-1E+10	1	-1E+10	1	-1E+10	1
4902549	31	C	06/15/2021	19:11	-132.722	47.289	0	68.00	0	8.1450	0	32.4370	0	25.242	0	67.423	0	272.0	4	93.3	4	-1E+10	1	-1E+10	1	-1E+10	1	-1E+10	1	-1E+10	1	-1E+10	1
4902549	31	C	06/15/2021	19:11	-132.722	47.289	0	68.80	0	8.1590	0	32.4500	0	25.250	0	68.216	0	272.0	4	93.4	4	-1E+10	1	-1E+10	1	-1E+10	1	-1E+10	1	-1E+10	1	-1E+10	1
4902549	31	C	06/15/2021	19:11	-132.722	47.289	0	69.90	0	8.0830	0	32.4500	0	25.261	0	69.306	0	272.9	4	93.5	4	-1E+10	1	-1E+10	1	-1E+10	1	-1E+10	1	-1E+10	1	-1E+10	1
4902549	31	C	06/15/2021	19:11	-132.722	47.289	0	71.10	0	8.0390	0	32.4490	0	25.267	0	70.496	0	273.6	4	93.7	4	-1E+10	1	-1E+10	1	-1E+10	1	-1E+10	1	-1E+10	1	-1E+10	1
4902549	31	C	06/15/2021	19:11	-132.722	47.289	0	71.90	0	8.0100	0	32.4470	0	25.269	0	71.289	0	274.3	4	93.8	4	-1E+10	1	-1E+10	1	-1E+10	1	-1E+10	1	-1E+10	1	-1E+10	1
4902549	31	C	06/15/2021	19:11	-132.722	47.289	0	72.70	0	7.9480	0	32.4420	0	25.274	0	72.082	0	274.7	4	93.9	4	-1E+10	1	-1E+10	1	-1E+10	1	-1E+10	1	-1E+10	1	-1E+10	1
4902549	31	C	06/15/2021	19:11	-132.722	47.289	0	73.80	0	7.8900	0	32.4390	0	25.280	0	73.172	0	275.0	4	93.8	4	-1E+10	1	-1E+10	1	-1E+10	1	-1E+10	1	-1E+10	1	-1E+10	1
4902549	31	C	06/15/2021	19:11	-132.722	47.289	0	75.10	0	7.8640	0	32.4380	0	25.283	0	74.461	0	275.1	4	93.8	4	-1E+10	1	-1E+10	1	-1E+10	1	-1E+10	1	-1E+10	1	-1E+10	1
4902549	31	C	06/15/2021	19:11	-132.722	47.289	0	76.00	0	7.8400	0	32.4380	0	25.287	0	75.353	0	275.1	4	93.8	4	-1E+10	1	-1E+10	1	-1E+10	1	-1E+10	1	-1E+10	1	-1E+10	1
4902549	31	C	06/15/2021	19:11	-132.722	47.289	0	76.80	0	7.8270	0	32.4380	0	25.288	0	76.146	0	275.0	4	93.7	4	-1E+10	1	-1E+10	1	-1E+10	1	-1E+10	1	-1E+10	1	-1E+10	1
4902549	31	C	06/15/2021	19:11	-132.722	47.289	0	78.10	0	7.8190	0	32.4390	0	25.290	0	77.435	0	275.1	4	93.7	4	-1E+10	1	-1E+10	1	-1E+10	1	-1E+10	1	-1E+10	1	-1E+10	1
4902549	31	C	06/15/2021	19:11	-132.722	47.289	0	79.00	0	7.8040	0	32.4390	0	25.292	0	78.327	0	275.0	4	93.7	4	-1E+10	1	-1E+10	1	-1E+10	1	-1E+10	1	-1E+10	1	-1E+10	1
4902549	31	C	06/15/2021	19:11	-132.722	47.289	0	80.00	0	7.7860	0	32.4390	0	25.295	0	79.318	0	275.1	4	93.7	4	-1E+10	1	-1E+10	1	-1E+10	1	-1E+10	1	-1E+10	1	-1E+10	1
4902549	31	C	06/15/2021	19:11	-132.722	47.289	0	81.00	0	7.7670	0	32.4410	0	25.299	0	80.310	0	275.1	4	93.6	4	-1E+10	1	-1E+10	1	-1E+10	1	-1E+10	1	-1E+10	1	-1E+10	1
4902549	31	C	06/15/2021	19:11	-132.722	47.289	0	82.00	0	7.7370	0	32.4430	0	25.305	0	81.301	0	275.1	4	93.5	4	-1E+10	1	-1E+10	1	-1E+10	1	-1E+10	1	-1E+10	1	-1E+10	1
4902549	31	C	06/15/2021	19:11	-132.722	47.289	0	83.00	0	7.7230	0	32.4410	0	25.306	0	82.292	0	275.1	4	93.5	4	-1E+10	1	-1E+10	1	-1E+10	1	-1E+10	1	-1E+10	1	-1E+10	1
4902549	31	C	06/15/2021	19:11	-132.722	47.289	0	84.00	0	7.7080	0	32.4410	0	25.308	0	83.284	0	275.2	4	93.5	4	-1E+10	1	-1E+10	1	-1E+10	1	-1E+10	1	-1E+10	1	-1E+10	1
4902549	31	C	06/15/2021	19:11	-132.722	47.289	0	85.00	0	7.6890	0	32.4420	0	25.311	0	84.275	0	275.2	4	93.5	4	-1E+10	1	-1E+10	1	-1E+10	1	-1E+10	1	-1E+10	1	-1E+10	1
4902549	31	C	06/15/2021	19:11	-132.722	47.289	0	86.00	0	7.6750	0	32.4420	0	25.313	0	85.266	0	275.1	4	93.4	4	-1E+10	1	-1E+10	1	-1E+10	1	-1E+10	1	-1E+10	1	-1E+10	1
4902549	31	C	06/15/2021	19:11	-132.722	47.289	0	87.00	0	7.6650	0	32.4410	0	25.314	0	86.257	0	275.0	4	93.4	4	-1E+10	1	-1E+10	1	-1E+10	1	-1E+10	1	-1E+10	1	-1E+10	1
4902549	31	C	06/15/2021	19:11	-132.722	47.289	0	88.00	0	7.6640	0	32.4430	0	25.315	0	87.249	0	274.9	4	93.3	4	-1E+10	1	-1E+10	1	-1E+10	1	-1E+10	1	-1E+10	1	-1E+10	1
4902549	31	C	06/15/2021	19:11	-132.722	47.289	0	88.90	0	7.6550	0	32.4430	0	25.317	0	88.141	0	274.8	4	93.3	4	-1E+10	1	-1E+10	1	-1E+10	1	-1E+10	1	-1E+10	1	-1E+10	1
4902549	31	C	06/15/2021	19:11	-132.722	47.289	0	89.90	0	7.6460	0	32.4430	0	25.318	0	89.132	0	274.7	4	93.2	4	-1E+10	1	-1E+10	1	-1E+10	1	-1E+10	1	-1E+10	1	-1E+10	1
4902549	31	C	06/15/2021	19:11	-132.722	47.289	0	90.90	0	7.6390	0	32.4420	0	25.318	0	90.123	0	274.7	4	93.2	4	-1E+10	1	-1E+10	1	-1E+10	1	-1E+10	1	-1E+10	1	-1E+10	1
4902549	31	C	06/15/2021	19:11	-132.722	47.289	0	91.90	0	7.6110	0	32.4410	0	25.321	0	91.114	0	274.7	4	93.2	4	-1E+10	1	-1E+10	1	-1E+10	1	-1E+10	1	-1E+10	1	-1E+10	1
4902549	31	C	06/15/2021	19:11	-132.722	47.289	0	92.90	0	7.5880	0	32.4410	0	25.325	0	92.106	0	274.5	4	93.0	4	-1E+10	1	-1E+10	1	-1E+10	1	-1E+10	1	-1E+10	1	-1E+10	1
4902549	31	C	06/15/2021	19:11	-132.722	47.289	0	93.90	0	7.5730	0	32.4390	0	25.325	0	93.097	0	274.3	4	93.0	4	-1E+10	1	-1E+10	1	-1E+10	1	-1E+10	1	-1E+10	1	-1E+10	1
4902549	31	C	06/15/2021	19:11	-132.722	47.289	0	95.00	0	7.5380	0	32.4400	0	25.331	0	94.187	0	274.2	4	92.8	4	-1E+10	1	-1E+10	1	-1E+10	1	-1E+10	1	-1E+10	1	-1E+10	1
4902549	31	C	06/15/2021	19:11	-132.722	47.289	0	96.10	0	7.4980	0	32.4360	0	25.333	0	95.278	0	273.9	4	92.6	4	-1E+10	1	-1E+10	1	-1E+10	1	-1E+10	1	-1E+10	1	-1E+10	1
4902549	31	C	06/15/2021	19:11	-132.722	47.289	0	96.80	0	7.4380	0	32.4290	0	25.336	0	95.971	0	273.6	4	92.4	4	-1E+10	1	-1E+10	1	-1E+10	1	-1E+10	1	-1E+10	1	-1E+10	1
4902549	31	C	06/15/2021	19:11	-132.722	47.289	0	98.00	0	7.3980	0	32.4280	0	25.341	0	97.161	0	272.5	4	92.0	4	-1E+10	1	-1E+10	1	-1E+10	1	-1E+10	1	-1E+10	1	-1E+10	1
4902549	31	C	06/15/2021	19:11	-132.722	47.289	0	99.20	0	7.3830	0	32.4290	0	25.344	0	98.350	0	271.0	4	91.4	4	-1E+10	1	-1E+10	1	-1E+10	1	-1E+10	1	-1E+10	1	-1E+10	1
4902549	31	C	06/15/2021	19:11	-132.722	47.289	0	100.00	0	7.3660	0	32.4270	0	25.344	0	99.143	0	269.8	4	91.0	4	-1E+10	1	-1E+10	1	-1E+10	1	-1E+10	1	-1E+10	1	-1E+10	1
4902549	31	C	06/15/2021	19:11	-132.722	47.289	0	101.10	0	7.3340	0	32.4260	0	25.348	0	100.234	0	267.3	4	90.1	4	-1E+10	1	-1E+10	1	-1E+10	1	-1E+10	1	-1E+10	1	-1E+10	1
4902549	31	C	06/15/2021	19:11	-132.722	47.289	0	101.80	0	7.3140	0	32.4270	0	25.352	0	100.927	0	265.3	4	89.4	4	-1E+10	1	-1E+10	1	-1E+10	1	-1E+10	1	-1E+10	1	-1E+10	1
4902549	31	C	06/15/2021	19:11	-132.722	47.289	0	102.90	0	7.2970	0	32.4300	0	25.356	0	102.018	0	261.4	4	88.0	4	-1E+10	1	-1E+10	1	-1E+10	1	-1E+10	1	-1E+10	1	-1E+10	1
4902549	31	C	06/15/2021	19:11	-132.722	47.289	0	104.00	0	7.2920	0	32.4440	0	25.368	0	103.108	0	256.7	4	86.4	4	-1E+10	1	-1E+10	1	-1E+10	1	-1E+10	1	-1E+10	1	-1E+10	1
4902549	31	C	06/15/2021	19:11	-132.722	47.289	0	105.20	0	7.3930	0	32.5040	0	25.401	0	104.297	0	252.4	4	85.2	4	-1E+10	1	-1E+10	1	-1E+10	1	-1E+10	1	-1E+10	1	-1E+10	1
4902549	31	C	06/15/2021	19:11	-132.722	47.289	0	105.80	0	7.4430	0	32.5430	0	25.425	0	104.892	0	250.6	4	84.7	4	-1E+10	1	-1E+10	1	-1E+10	1	-1E+10	1	-1E+10	1	-1E+10	1
4902549	31	C	06/15/2021	19:11	-132.722	47.289	0	106.70	0	7.5070	0	32.5830	0	25.448	0	105.784	0	248.3	4	84.1	4	-1E+10	1	-1E+10	1	-1E+10	1	-1E+10	1	-1E+10	1	-1E+10	1
4902549	31	C	06/15/2021	19:11	-132.722	47.289	0	107.70	0	7.5730	0	32.6210	0	25.468	0	106.775	0	246.3	4	83.6	4	-1E+10	1	-1E+10	1	-1E+10	1	-1E+10	1	-1E+10	1	-1E+10	1
4902549	31	C	06/15/2021	19:11	-132.722	47.289	0	108.70	0	7.6070	0	32.6730	0	25.504	0	107.767	0	244.6	4	83.1	4	-1E+10	1	-1E+10	1	-1E+10	1	-1E+10	1	-1E+10	1	-1E+10	1
4902549	31	C	06/15/2021	19:11	-132.722	47.289	0	109.80	0	7.6220	0	32.6830	0	25.510	0	108.857	0	243.0	4	82.6	4	-1E+10	1	-1E+10	1	-1E+10	1	-1E+10	1	-1E+10	1	-1E+10	1
4902549	31	C	06/15/2021	19:11	-132.722	47.289	0	110.90	0	7.6370	0	32.6930	0	25.516	0	109.947	0	241.3	4	82.0	4	-1E+10	1	-1E+10	1	-1E+10	1	-1E+10	1	-1E+10	1	-1E+10	1
4902549	31	C	06/15/2021	19:11	-132.722	47.289	0	111.90	0	7.6400	0	32.6960	0	25.518	0	110.938	0	239.2	4	81.3	4	-1E+10	1	-1E+10	1	-1E+10	1	-1E+10	1	-1E+10	1	-1E+10	1
4902549	31	C	06/15/2021	19:11	-132.722	47.289	0	112.90	0	7.6510	0	32.7030	0	25.522	0	111.929	0	236.8	4	80.5	4	-1E+10	1	-1E+10	1	-1E+10	1	-1E+10	1	-1E+10	1	-1E+10	1
4902549	31	C	06/15/2021	19:11	-132.722	47.289	0	114.00	0	7.7160	0	32.7210	0	25.527	0	113.020	0	233.0	4	79.4	4	-1E+10	1	-1E+10	1	-1E+10	1	-1E+10	1	-1E+10	1	-1E+10	1
4902549	31	C	06/15/2021	19:11	-132.722	47.289	0	115.10	0	7.8470	0	32.7740	0	25.550	0	114.110	0	227.6	4	77.8	4	-1E+10	1	-1E+10	1	-1E+10	1	-1E+10	1	-1E+10	1	-1E+10	1
4902549	31	C	06/15/2021	19:11	-132.722	47.289	0	115.90	0	7.9400	0	32.7970	0	25.555	0	114.903	0	224.5	4	76.9	4	-1E+10	1	-1E+10	1	-1E+10	1	-1E+10	1	-1E+10	1	-1E+10	1
4902549	31	C	06/15/2021	19:11	-132.722	47.289	0	117.10	0	7.9670	0	32.8520	0	25.594	0	116.092	0	221.2	4	75.8	4	-1E+10	1	-1E+10	1	-1E+10	1	-1E+10	1	-1E+10	1	-1E+10	1
4902549	31	C	06/15/2021	19:11	-132.722	47.289	0	118.00	0	7.9600	0	32.8680	0	25.607	0	116.984	0	218.7	4	75.0	4	-1E+10	1	-1E+10	1	-1E+10	1	-1E+10	1	-1E+10	1	-1E+10	1
4902549	31	C	06/15/2021	19:11	-132.722	47.289	0	118.90	0	7.9630	0	32.8930	0	25.627	0	117.876	0	216.4	4	74.2	4	-1E+10	1	-1E+10	1	-1E+10	1	-1E+10	1	-1E+10	1	-1E+10	1
4902549	31	C	06/15/2021	19:11	-132.722	47.289	0	120.10	0	7.9960	0	32.9570	0	25.672	0	119.065	0	214.0	4	73.5	4	-1E+10	1	-1E+10	1	-1E+10	1	-1E+10	1	-1E+10	1	-1E+10	1
4902549	31	C	06/15/2021	19:11	-132.722	47.289	0	121.00	0	8.0030	0	33.0060	0	25.710	0	119.957	0	212.5	4	73.0	4	-1E+10	1	-1E+10	1	-1E+10	1	-1E+10	1	-1E+10	1	-1E+10	1
4902549	31	C	06/15/2021	19:11	-132.722	47.289	0	122.10	0	7.9690	0	33.0550	0	25.753	0	121.047	0	211.1	4	72.5	4	-1E+10	1	-1E+10	1	-1E+10	1	-1E+10	1	-1E+10	1	-1E+10	1
4902549	31	C	06/15/2021	19:11	-132.722	47.289	0	123.10	0	7.9600	0	33.0680	0	25.765	0	122.039	0	209.8	4	72.0	4	-1E+10	1	-1E+10	1	-1E+10	1	-1E+10	1	-1E+10	1	-1E+10	1
4902549	31	C	06/15/2021	19:11	-132.722	47.289	0	124.10	0	7.9360	0	33.1000	0	25.793	0	123.030	0	208.7	4	71.7	4	-1E+10	1	-1E+10	1	-1E+10	1	-1E+10	1	-1E+10	1	-1E+10	1
4902549	31	C	06/15/2021	19:11	-132.722	47.289	0	125.10	0	7.9120	0	33.1290	0	25.819	0	124.021	0	207.5	4	71.2	4	-1E+10	1	-1E+10	1	-1E+10	1	-1E+10	1	-1E+10	1	-1E+10	1
4902549	31	C	06/15/2021	19:11	-132.722	47.289	0	126.00	0	7.8940	0	33.1580	0	25.845	0	124.913	0	206.7	4	70.9	4	-1E+10	1	-1E+10	1	-1E+10	1	-1E+10	1	-1E+10	1	-1E+10	1
4902549	31	C	06/15/2021	19:11	-132.722	47.289	0	126.80	0	7.8830	0	33.1770	0	25.861	0	125.706	0	205.9	4	70.6	4	-1E+10	1	-1E+10	1	-1E+10	1	-1E+10	1	-1E+10	1	-1E+10	1
4902549	31	C	06/15/2021	19:11	-132.722	47.289	0	128.00	0	7.8840	0	33.1790	0	25.863	0	126.895	0	204.7	4	70.2	4	-1E+10	1	-1E+10	1	-1E+10	1	-1E+10	1	-1E+10	1	-1E+10	1
4902549	31	C	06/15/2021	19:11	-132.722	47.289	0	129.10	0	7.8850	0	33.1860	0	25.868	0	127.985	0	203.4	4	69.8	4	-1E+10	1	-1E+10	1	-1E+10	1	-1E+10	1	-1E+10	1	-1E+10	1
4902549	31	C	06/15/2021	19:11	-132.722	47.289	0	130.00	0	7.8770	0	33.2000	0	25.880	0	128.877	0	202.5	4	69.5	4	-1E+10	1	-1E+10	1	-1E+10	1	-1E+10	1	-1E+10	1	-1E+10	1
4902549	31	C	06/15/2021	19:11	-132.722	47.289	0	130.90	0	7.8660	0	33.2080	0	25.888	0	129.769	0	201.6	4	69.1	4	-1E+10	1	-1E+10	1	-1E+10	1	-1E+10	1	-1E+10	1	-1E+10	1
4902549	31	C	06/15/2021	19:11	-132.722	47.289	0	131.90	0	7.8000	0	33.2680	0	25.945	0	130.760	0	200.8	4	68.8	4	-1E+10	1	-1E+10	1	-1E+10	1	-1E+10	1	-1E+10	1	-1E+10	1
4902549	31	C	06/15/2021	19:11	-132.722	47.289	0	132.80	0	7.7690	0	33.2930	0	25.969	0	131.652	0	200.0	4	68.5	4	-1E+10	1	-1E+10	1	-1E+10	1	-1E+10	1	-1E+10	1	-1E+10	1
4902549	31	C	06/15/2021	19:11	-132.722	47.289	0	133.90	0	7.7470	0	33.3220	0	25.995	0	132.742	0	199.3	4	68.2	4	-1E+10	1	-1E+10	1	-1E+10	1	-1E+10	1	-1E+10	1	-1E+10	1
4902549	31	C	06/15/2021	19:11	-132.722	47.289	0	134.90	0	7.7360	0	33.3330	0	26.005	0	133.733	0	198.6	4	68.0	4	-1E+10	1	-1E+10	1	-1E+10	1	-1E+10	1	-1E+10	1	-1E+10	1
4902549	31	C	06/15/2021	19:11	-132.722	47.289	0	136.00	0	7.7270	0	33.3510	0	26.021	0	134.823	0	197.8	4	67.7	4	-1E+10	1	-1E+10	1	-1E+10	1	-1E+10	1	-1E+10	1	-1E+10	1
4902549	31	C	06/15/2021	19:11	-132.722	47.289	0	137.00	0	7.7020	0	33.3790	0	26.046	0	135.814	0	197.2	4	67.5	4	-1E+10	1	-1E+10	1	-1E+10	1	-1E+10	1	-1E+10	1	-1E+10	1
4902549	31	C	06/15/2021	19:11	-132.722	47.289	0	138.10	0	7.6990	0	33.3980	0	26.062	0	136.904	0	196.3	4	67.2	4	-1E+10	1	-1E+10	1	-1E+10	1	-1E+10	1	-1E+10	1	-1E+10	1
4902549	31	C	06/15/2021	19:11	-132.722	47.289	0	138.80	0	7.6710	0	33.4160	0	26.080	0	137.598	0	195.9	4	67.0	4	-1E+10	1	-1E+10	1	-1E+10	1	-1E+10	1	-1E+10	1	-1E+10	1
4902549	31	C	06/15/2021	19:11	-132.722	47.289	0	139.80	0	7.6610	0	33.4290	0	26.091	0	138.589	0	195.1	4	66.7	4	-1E+10	1	-1E+10	1	-1E+10	1	-1E+10	1	-1E+10	1	-1E+10	1
4902549	31	C	06/15/2021	19:11	-132.722	47.289	0	140.80	0	7.6520	0	33.4390	0	26.101	0	139.580	0	194.3	4	66.4	4	-1E+10	1	-1E+10	1	-1E+10	1	-1E+10	1	-1E+10	1	-1E+10	1
4902549	31	C	06/15/2021	19:11	-132.722	47.289	0	141.90	0	7.6250	0	33.4700	0	26.129	0	140.670	0	193.4	4	66.1	4	-1E+10	1	-1E+10	1	-1E+10	1	-1E+10	1	-1E+10	1	-1E+10	1
4902549	31	C	06/15/2021	19:11	-132.722	47.289	0	143.10	0	7.6050	0	33.5010	0	26.156	0	141.859	0	192.5	4	65.8	4	-1E+10	1	-1E+10	1	-1E+10	1	-1E+10	1	-1E+10	1	-1E+10	1
4902549	31	C	06/15/2021	19:11	-132.722	47.289	0	143.90	0	7.6030	0	33.5170	0	26.169	0	142.652	0	192.1	4	65.6	4	-1E+10	1	-1E+10	1	-1E+10	1	-1E+10	1	-1E+10	1	-1E+10	1
4902549	31	C	06/15/2021	19:11	-132.722	47.289	0	144.70	0	7.5660	0	33.5340	0	26.188	0	143.445	0	191.7	4	65.5	4	-1E+10	1	-1E+10	1	-1E+10	1	-1E+10	1	-1E+10	1	-1E+10	1
4902549	31	C	06/15/2021	19:11	-132.722	47.289	0	145.90	0	7.5470	0	33.5530	0	26.205	0	144.634	0	191.0	4	65.2	4	-1E+10	1	-1E+10	1	-1E+10	1	-1E+10	1	-1E+10	1	-1E+10	1
4902549	31	C	06/15/2021	19:11	-132.722	47.289	0	147.10	0	7.5290	0	33.5740	0	26.224	0	145.823	0	190.4	4	65.0	4	-1E+10	1	-1E+10	1	-1E+10	1	-1E+10	1	-1E+10	1	-1E+10	1
4902549	31	C	06/15/2021	19:11	-132.722	47.289	0	148.00	0	7.4970	0	33.5840	0	26.237	0	146.715	0	190.1	4	64.8	4	-1E+10	1	-1E+10	1	-1E+10	1	-1E+10	1	-1E+10	1	-1E+10	1
4902549	31	C	06/15/2021	19:11	-132.722	47.289	0	148.80	0	7.4580	0	33.6060	0	26.259	0	147.508	0	189.9	4	64.7	4	-1E+10	1	-1E+10	1	-1E+10	1	-1E+10	1	-1E+10	1	-1E+10	1
4902549	31	C	06/15/2021	19:11	-132.722	47.289	0	149.70	0	7.3970	0	33.6100	0	26.271	0	148.400	0	189.8	4	64.6	4	-1E+10	1	-1E+10	1	-1E+10	1	-1E+10	1	-1E+10	1	-1E+10	1
4902549	31	C	06/15/2021	19:11	-132.722	47.289	0	150.60	0	7.3970	0	33.6190	0	26.278	0	149.292	0	189.5	4	64.5	4	-1E+10	1	-1E+10	1	-1E+10	1	-1E+10	1	-1E+10	1	-1E+10	1
4902549	31	C	06/15/2021	19:11	-132.722	47.289	0	151.90	0	7.3930	0	33.6270	0	26.285	0	150.580	0	189.0	4	64.3	4	-1E+10	1	-1E+10	1	-1E+10	1	-1E+10	1	-1E+10	1	-1E+10	1
4902549	31	C	06/15/2021	19:11	-132.722	47.289	0	153.20	0	7.3670	0	33.6440	0	26.302	0	151.868	0	188.5	4	64.1	4	-1E+10	1	-1E+10	1	-1E+10	1	-1E+10	1	-1E+10	1	-1E+10	1
4902549	31	C	06/15/2021	19:11	-132.722	47.289	0	154.20	0	7.3360	0	33.6540	0	26.314	0	152.859	0	188.3	4	64.0	4	-1E+10	1	-1E+10	1	-1E+10	1	-1E+10	1	-1E+10	1	-1E+10	1
4902549	31	C	06/15/2021	19:11	-132.722	47.289	0	155.10	0	7.3330	0	33.6520	0	26.313	0	153.751	0	188.1	4	64.0	4	-1E+10	1	-1E+10	1	-1E+10	1	-1E+10	1	-1E+10	1	-1E+10	1
4902549	31	C	06/15/2021	19:11	-132.722	47.289	0	156.00	0	7.3240	0	33.6560	0	26.318	0	154.643	0	187.8	4	63.8	4	-1E+10	1	-1E+10	1	-1E+10	1	-1E+10	1	-1E+10	1	-1E+10	1
4902549	31	C	06/15/2021	19:11	-132.722	47.289	0	157.00	0	7.3160	0	33.6580	0	26.320	0	155.634	0	187.5	4	63.7	4	-1E+10	1	-1E+10	1	-1E+10	1	-1E+10	1	-1E+10	1	-1E+10	1
4902549	31	C	06/15/2021	19:11	-132.722	47.289	0	157.90	0	7.3100	0	33.6620	0	26.324	0	156.525	0	187.0	4	63.6	4	-1E+10	1	-1E+10	1	-1E+10	1	-1E+10	1	-1E+10	1	-1E+10	1
4902549	31	C	06/15/2021	19:11	-132.722	47.289	0	158.80	0	7.3000	0	33.6670	0	26.330	0	157.417	0	186.7	4	63.4	4	-1E+10	1	-1E+10	1	-1E+10	1	-1E+10	1	-1E+10	1	-1E+10	1
4902549	31	C	06/15/2021	19:11	-132.722	47.289	0	159.80	0	7.2920	0	33.6710	0	26.334	0	158.408	0	186.3	4	63.3	4	-1E+10	1	-1E+10	1	-1E+10	1	-1E+10	1	-1E+10	1	-1E+10	1
4902549	31	C	06/15/2021	19:11	-132.722	47.289	0	160.70	0	7.2690	0	33.6810	0	26.345	0	159.300	0	185.9	4	63.1	4	-1E+10	1	-1E+10	1	-1E+10	1	-1E+10	1	-1E+10	1	-1E+10	1
4902549	31	C	06/15/2021	19:11	-132.722	47.289	0	161.70	0	7.2610	0	33.6850	0	26.349	0	160.291	0	185.5	4	63.0	4	-1E+10	1	-1E+10	1	-1E+10	1	-1E+10	1	-1E+10	1	-1E+10	1
4902549	31	C	06/15/2021	19:11	-132.722	47.289	0	162.60	0	7.2540	0	33.6860	0	26.351	0	161.183	0	185.1	4	62.8	4	-1E+10	1	-1E+10	1	-1E+10	1	-1E+10	1	-1E+10	1	-1E+10	1
4902549	31	C	06/15/2021	19:11	-132.722	47.289	0	163.50	0	7.2400	0	33.6930	0	26.359	0	162.074	0	184.6	4	62.6	4	-1E+10	1	-1E+10	1	-1E+10	1	-1E+10	1	-1E+10	1	-1E+10	1
4902549	31	C	06/15/2021	19:11	-132.722	47.289	0	164.50	0	7.2110	0	33.7030	0	26.370	0	163.065	0	184.2	4	62.5	4	-1E+10	1	-1E+10	1	-1E+10	1	-1E+10	1	-1E+10	1	-1E+10	1
4902549	31	C	06/15/2021	19:11	-132.722	47.289	0	165.90	0	7.1740	0	33.7130	0	26.383	0	164.453	0	183.8	4	62.3	4	-1E+10	1	-1E+10	1	-1E+10	1	-1E+10	1	-1E+10	1	-1E+10	1
4902549	31	C	06/15/2021	19:11	-132.722	47.289	0	167.40	0	7.1630	0	33.7160	0	26.387	0	165.939	0	183.2	4	62.1	4	-1E+10	1	-1E+10	1	-1E+10	1	-1E+10	1	-1E+10	1	-1E+10	1
4902549	31	C	06/15/2021	19:11	-132.722	47.289	0	168.40	0	7.1540	0	33.7180	0	26.390	0	166.930	0	182.8	4	61.9	4	-1E+10	1	-1E+10	1	-1E+10	1	-1E+10	1	-1E+10	1	-1E+10	1
4902549	31	C	06/15/2021	19:11	-132.722	47.289	0	169.30	0	7.1270	0	33.7270	0	26.401	0	167.821	0	182.4	4	61.8	4	-1E+10	1	-1E+10	1	-1E+10	1	-1E+10	1	-1E+10	1	-1E+10	1
4902549	31	C	06/15/2021	19:11	-132.722	47.289	0	170.30	0	7.1130	0	33.7290	0	26.404	0	168.812	0	182.1	4	61.7	4	-1E+10	1	-1E+10	1	-1E+10	1	-1E+10	1	-1E+10	1	-1E+10	1
4902549	31	C	06/15/2021	19:11	-132.722	47.289	0	171.30	0	7.0940	0	33.7350	0	26.412	0	169.803	0	181.8	4	61.5	4	-1E+10	1	-1E+10	1	-1E+10	1	-1E+10	1	-1E+10	1	-1E+10	1
4902549	31	C	06/15/2021	19:11	-132.722	47.289	0	172.20	0	7.0850	0	33.7350	0	26.413	0	170.695	0	181.5	4	61.4	4	-1E+10	1	-1E+10	1	-1E+10	1	-1E+10	1	-1E+10	1	-1E+10	1
4902549	31	C	06/15/2021	19:11	-132.722	47.289	0	173.20	0	7.0490	0	33.7430	0	26.424	0	171.686	0	181.3	4	61.3	4	-1E+10	1	-1E+10	1	-1E+10	1	-1E+10	1	-1E+10	1	-1E+10	1
4902549	31	C	06/15/2021	19:11	-132.722	47.289	0	174.20	0	7.0360	0	33.7430	0	26.426	0	172.677	0	181.0	4	61.2	4	-1E+10	1	-1E+10	1	-1E+10	1	-1E+10	1	-1E+10	1	-1E+10	1
4902549	31	C	06/15/2021	19:11	-132.722	47.289	0	175.20	0	7.0170	0	33.7440	0	26.429	0	173.667	0	180.6	4	61.0	4	-1E+10	1	-1E+10	1	-1E+10	1	-1E+10	1	-1E+10	1	-1E+10	1
4902549	31	C	06/15/2021	19:11	-132.722	47.289	0	176.20	0	7.0070	0	33.7480	0	26.434	0	174.658	0	180.3	4	60.9	4	-1E+10	1	-1E+10	1	-1E+10	1	-1E+10	1	-1E+10	1	-1E+10	1
4902549	31	C	06/15/2021	19:11	-132.722	47.289	0	177.20	0	6.9900	0	33.7520	0	26.439	0	175.649	0	180.0	4	60.8	4	-1E+10	1	-1E+10	1	-1E+10	1	-1E+10	1	-1E+10	1	-1E+10	1
4902549	31	C	06/15/2021	19:11	-132.722	47.289	0	178.20	0	6.9790	0	33.7530	0	26.442	0	176.640	0	179.7	4	60.6	4	-1E+10	1	-1E+10	1	-1E+10	1	-1E+10	1	-1E+10	1	-1E+10	1
4902549	31	C	06/15/2021	19:11	-132.722	47.289	0	179.10	0	6.9700	0	33.7540	0	26.444	0	177.532	0	179.3	4	60.5	4	-1E+10	1	-1E+10	1	-1E+10	1	-1E+10	1	-1E+10	1	-1E+10	1
4902549	31	C	06/15/2021	19:11	-132.722	47.289	0	180.10	0	6.9600	0	33.7550	0	26.446	0	178.522	0	178.8	4	60.3	4	-1E+10	1	-1E+10	1	-1E+10	1	-1E+10	1	-1E+10	1	-1E+10	1
4902549	31	C	06/15/2021	19:11	-132.722	47.289	0	181.10	0	6.9490	0	33.7570	0	26.449	0	179.513	0	178.5	4	60.2	4	-1E+10	1	-1E+10	1	-1E+10	1	-1E+10	1	-1E+10	1	-1E+10	1
4902549	31	C	06/15/2021	19:11	-132.722	47.289	0	182.10	0	6.9480	0	33.7570	0	26.449	0	180.504	0	178.0	4	60.0	4	-1E+10	1	-1E+10	1	-1E+10	1	-1E+10	1	-1E+10	1	-1E+10	1
4902549	31	C	06/15/2021	19:11	-132.722	47.289	0	183.10	0	6.9380	0	33.7580	0	26.451	0	181.495	0	177.5	4	59.9	4	-1E+10	1	-1E+10	1	-1E+10	1	-1E+10	1	-1E+10	1	-1E+10	1
4902549	31	C	06/15/2021	19:11	-132.722	47.289	0	184.10	0	6.9290	0	33.7590	0	26.453	0	182.486	0	176.9	4	59.6	4	-1E+10	1	-1E+10	1	-1E+10	1	-1E+10	1	-1E+10	1	-1E+10	1
4902549	31	C	06/15/2021	19:11	-132.722	47.289	0	185.10	0	6.9190	0	33.7600	0	26.456	0	183.476	0	176.3	4	59.4	4	-1E+10	1	-1E+10	1	-1E+10	1	-1E+10	1	-1E+10	1	-1E+10	1
4902549	31	C	06/15/2021	19:11	-132.722	47.289	0	186.00	0	6.9080	0	33.7600	0	26.457	0	184.368	0	175.8	4	59.2	4	-1E+10	1	-1E+10	1	-1E+10	1	-1E+10	1	-1E+10	1	-1E+10	1
4902549	31	C	06/15/2021	19:11	-132.722	47.289	0	187.10	0	6.8830	0	33.7640	0	26.464	0	185.458	0	175.3	4	59.0	4	-1E+10	1	-1E+10	1	-1E+10	1	-1E+10	1	-1E+10	1	-1E+10	1
4902549	31	C	06/15/2021	19:11	-132.722	47.289	0	188.10	0	6.8730	0	33.7650	0	26.466	0	186.449	0	174.8	4	58.8	4	-1E+10	1	-1E+10	1	-1E+10	1	-1E+10	1	-1E+10	1	-1E+10	1
4902549	31	C	06/15/2021	19:11	-132.722	47.289	0	189.10	0	6.8560	0	33.7710	0	26.473	0	187.440	0	174.3	4	58.7	4	-1E+10	1	-1E+10	1	-1E+10	1	-1E+10	1	-1E+10	1	-1E+10	1
4902549	31	C	06/15/2021	19:11	-132.722	47.289	0	190.00	0	6.8330	0	33.7710	0	26.476	0	188.331	0	173.9	4	58.5	4	-1E+10	1	-1E+10	1	-1E+10	1	-1E+10	1	-1E+10	1	-1E+10	1
4902549	31	C	06/15/2021	19:11	-132.722	47.289	0	191.00	0	6.8220	0	33.7710	0	26.477	0	189.322	0	173.5	4	58.4	4	-1E+10	1	-1E+10	1	-1E+10	1	-1E+10	1	-1E+10	1	-1E+10	1
4902549	31	C	06/15/2021	19:11	-132.722	47.289	0	192.00	0	6.8160	0	33.7690	0	26.477	0	190.313	0	173.0	4	58.2	4	-1E+10	1	-1E+10	1	-1E+10	1	-1E+10	1	-1E+10	1	-1E+10	1
4902549	31	C	06/15/2021	19:11	-132.722	47.289	0	193.00	0	6.8130	0	33.7710	0	26.479	0	191.304	0	172.3	4	57.9	4	-1E+10	1	-1E+10	1	-1E+10	1	-1E+10	1	-1E+10	1	-1E+10	1
4902549	31	C	06/15/2021	19:11	-132.722	47.289	0	194.00	0	6.8010	0	33.7720	0	26.481	0	192.294	0	171.8	4	57.8	4	-1E+10	1	-1E+10	1	-1E+10	1	-1E+10	1	-1E+10	1	-1E+10	1
4902549	31	C	06/15/2021	19:11	-132.722	47.289	0	195.00	0	6.7920	0	33.7740	0	26.484	0	193.285	0	171.3	4	57.6	4	-1E+10	1	-1E+10	1	-1E+10	1	-1E+10	1	-1E+10	1	-1E+10	1
4902549	31	C	06/15/2021	19:11	-132.722	47.289	0	196.00	0	6.7860	0	33.7750	0	26.485	0	194.276	0	170.7	4	57.4	4	-1E+10	1	-1E+10	1	-1E+10	1	-1E+10	1	-1E+10	1	-1E+10	1
4902549	31	C	06/15/2021	19:11	-132.722	47.289	0	197.00	0	6.7810	0	33.7750	0	26.486	0	195.266	0	170.0	4	57.1	4	-1E+10	1	-1E+10	1	-1E+10	1	-1E+10	1	-1E+10	1	-1E+10	1
4902549	31	C	06/15/2021	19:11	-132.722	47.289	0	198.00	0	6.7780	0	33.7750	0	26.486	0	196.257	0	169.3	4	56.9	4	-1E+10	1	-1E+10	1	-1E+10	1	-1E+10	1	-1E+10	1	-1E+10	1
4902549	31	C	06/15/2021	19:11	-132.722	47.289	0	199.00	0	6.7740	0	33.7740	0	26.486	0	197.248	0	168.5	4	56.6	4	-1E+10	1	-1E+10	1	-1E+10	1	-1E+10	1	-1E+10	1	-1E+10	1
4902549	31	C	06/15/2021	19:11	-132.722	47.289	0	200.00	0	6.7370	0	33.7770	0	26.493	0	198.239	0	167.8	4	56.3	4	-1E+10	1	-1E+10	1	-1E+10	1	-1E+10	1	-1E+10	1	-1E+10	1
4902549	31	C	06/15/2021	19:11	-132.722	47.289	0	201.00	0	6.6930	0	33.7830	0	26.504	0	199.229	0	167.4	4	56.2	4	-1E+10	1	-1E+10	1	-1E+10	1	-1E+10	1	-1E+10	1	-1E+10	1
4902549	31	C	06/15/2021	19:11	-132.722	47.289	0	201.90	0	6.6880	0	33.7840	0	26.506	0	200.121	0	167.0	4	56.0	4	-1E+10	1	-1E+10	1	-1E+10	1	-1E+10	1	-1E+10	1	-1E+10	1
4902549	31	C	06/15/2021	19:11	-132.722	47.289	0	203.00	0	6.6790	0	33.7840	0	26.507	0	201.211	0	166.5	4	55.8	4	-1E+10	1	-1E+10	1	-1E+10	1	-1E+10	1	-1E+10	1	-1E+10	1
4902549	31	C	06/15/2021	19:11	-132.722	47.289	0	204.00	0	6.6730	0	33.7840	0	26.508	0	202.201	0	165.9	4	55.6	4	-1E+10	1	-1E+10	1	-1E+10	1	-1E+10	1	-1E+10	1	-1E+10	1
4902549	31	C	06/15/2021	19:11	-132.722	47.289	0	205.00	0	6.6710	0	33.7850	0	26.509	0	203.192	0	165.3	4	55.4	4	-1E+10	1	-1E+10	1	-1E+10	1	-1E+10	1	-1E+10	1	-1E+10	1
4902549	31	C	06/15/2021	19:11	-132.722	47.289	0	206.00	0	6.6680	0	33.7860	0	26.510	0	204.183	0	164.6	4	55.2	4	-1E+10	1	-1E+10	1	-1E+10	1	-1E+10	1	-1E+10	1	-1E+10	1
4902549	31	C	06/15/2021	19:11	-132.722	47.289	0	206.90	0	6.6660	0	33.7880	0	26.512	0	205.074	0	163.9	4	54.9	4	-1E+10	1	-1E+10	1	-1E+10	1	-1E+10	1	-1E+10	1	-1E+10	1
4902549	31	C	06/15/2021	19:11	-132.722	47.289	0	207.90	0	6.6620	0	33.7880	0	26.512	0	206.065	0	163.2	4	54.7	4	-1E+10	1	-1E+10	1	-1E+10	1	-1E+10	1	-1E+10	1	-1E+10	1
4902549	31	C	06/15/2021	19:11	-132.722	47.289	0	208.90	0	6.6690	0	33.7910	0	26.514	0	207.056	0	162.5	4	54.5	4	-1E+10	1	-1E+10	1	-1E+10	1	-1E+10	1	-1E+10	1	-1E+10	1
4902549	31	C	06/15/2021	19:11	-132.722	47.289	0	209.90	0	6.6680	0	33.7960	0	26.518	0	208.046	0	161.7	4	54.2	4	-1E+10	1	-1E+10	1	-1E+10	1	-1E+10	1	-1E+10	1	-1E+10	1
4902549	31	C	06/15/2021	19:11	-132.722	47.289	0	210.90	0	6.6510	0	33.7980	0	26.522	0	209.037	0	161.2	4	54.0	4	-1E+10	1	-1E+10	1	-1E+10	1	-1E+10	1	-1E+10	1	-1E+10	1
4902549	31	C	06/15/2021	19:11	-132.722	47.289	0	211.90	0	6.6460	0	33.8020	0	26.525	0	210.028	0	160.7	4	53.8	4	-1E+10	1	-1E+10	1	-1E+10	1	-1E+10	1	-1E+10	1	-1E+10	1
4902549	31	C	06/15/2021	19:11	-132.722	47.289	0	212.90	0	6.6380	0	33.8050	0	26.529	0	211.018	0	160.3	4	53.7	4	-1E+10	1	-1E+10	1	-1E+10	1	-1E+10	1	-1E+10	1	-1E+10	1
4902549	31	C	06/15/2021	19:11	-132.722	47.289	0	213.90	0	6.6410	0	33.8070	0	26.530	0	212.009	0	159.9	4	53.6	4	-1E+10	1	-1E+10	1	-1E+10	1	-1E+10	1	-1E+10	1	-1E+10	1
4902549	31	C	06/15/2021	19:11	-132.722	47.289	0	214.90	0	6.6390	0	33.8080	0	26.531	0	213.000	0	159.6	4	53.5	4	-1E+10	1	-1E+10	1	-1E+10	1	-1E+10	1	-1E+10	1	-1E+10	1
4902549	31	C	06/15/2021	19:11	-132.722	47.289	0	215.90	0	6.6370	0	33.8080	0	26.531	0	213.990	0	159.2	4	53.3	4	-1E+10	1	-1E+10	1	-1E+10	1	-1E+10	1	-1E+10	1	-1E+10	1
4902549	31	C	06/15/2021	19:11	-132.722	47.289	0	216.90	0	6.6320	0	33.8090	0	26.533	0	214.981	0	158.8	4	53.2	4	-1E+10	1	-1E+10	1	-1E+10	1	-1E+10	1	-1E+10	1	-1E+10	1
4902549	31	C	06/15/2021	19:11	-132.722	47.289	0	217.90	0	6.6300	0	33.8100	0	26.534	0	215.972	0	158.4	4	53.1	4	-1E+10	1	-1E+10	1	-1E+10	1	-1E+10	1	-1E+10	1	-1E+10	1
4902549	31	C	06/15/2021	19:11	-132.722	47.289	0	218.90	0	6.6290	0	33.8100	0	26.534	0	216.962	0	158.0	4	52.9	4	-1E+10	1	-1E+10	1	-1E+10	1	-1E+10	1	-1E+10	1	-1E+10	1
4902549	31	C	06/15/2021	19:11	-132.722	47.289	0	219.90	0	6.6250	0	33.8110	0	26.535	0	217.953	0	157.5	4	52.7	4	-1E+10	1	-1E+10	1	-1E+10	1	-1E+10	1	-1E+10	1	-1E+10	1
4902549	31	C	06/15/2021	19:11	-132.722	47.289	0	220.90	0	6.6250	0	33.8110	0	26.535	0	218.944	0	157.0	4	52.6	4	-1E+10	1	-1E+10	1	-1E+10	1	-1E+10	1	-1E+10	1	-1E+10	1
4902549	31	C	06/15/2021	19:11	-132.722	47.289	0	221.80	0	6.6230	0	33.8110	0	26.536	0	219.835	0	156.4	4	52.4	4	-1E+10	1	-1E+10	1	-1E+10	1	-1E+10	1	-1E+10	1	-1E+10	1
4902549	31	C	06/15/2021	19:11	-132.722	47.289	0	222.80	0	6.6140	0	33.8110	0	26.537	0	220.826	0	155.8	4	52.2	4	-1E+10	1	-1E+10	1	-1E+10	1	-1E+10	1	-1E+10	1	-1E+10	1
4902549	31	C	06/15/2021	19:11	-132.722	47.289	0	223.80	0	6.6110	0	33.8130	0	26.539	0	221.816	0	155.2	4	52.0	4	-1E+10	1	-1E+10	1	-1E+10	1	-1E+10	1	-1E+10	1	-1E+10	1
4902549	31	C	06/15/2021	19:11	-132.722	47.289	0	224.70	0	6.5870	0	33.8150	0	26.544	0	222.708	0	154.7	4	51.8	4	-1E+10	1	-1E+10	1	-1E+10	1	-1E+10	1	-1E+10	1	-1E+10	1
4902549	31	C	06/15/2021	19:11	-132.722	47.289	0	225.80	0	6.5790	0	33.8210	0	26.549	0	223.797	0	154.2	4	51.6	4	-1E+10	1	-1E+10	1	-1E+10	1	-1E+10	1	-1E+10	1	-1E+10	1
4902549	31	C	06/15/2021	19:11	-132.722	47.289	0	226.80	0	6.5600	0	33.8200	0	26.551	0	224.788	0	153.7	4	51.4	4	-1E+10	1	-1E+10	1	-1E+10	1	-1E+10	1	-1E+10	1	-1E+10	1
4902549	31	C	06/15/2021	19:11	-132.722	47.289	0	227.90	0	6.5500	0	33.8180	0	26.551	0	225.878	0	153.1	4	51.2	4	-1E+10	1	-1E+10	1	-1E+10	1	-1E+10	1	-1E+10	1	-1E+10	1
4902549	31	C	06/15/2021	19:11	-132.722	47.289	0	229.00	0	6.5430	0	33.8170	0	26.551	0	226.967	0	152.3	4	50.9	4	-1E+10	1	-1E+10	1	-1E+10	1	-1E+10	1	-1E+10	1	-1E+10	1
4902549	31	C	06/15/2021	19:11	-132.722	47.289	0	230.20	0	6.5360	0	33.8180	0	26.553	0	228.156	0	151.4	4	50.6	4	-1E+10	1	-1E+10	1	-1E+10	1	-1E+10	1	-1E+10	1	-1E+10	1
4902549	31	C	06/15/2021	19:11	-132.722	47.289	0	230.90	0	6.5320	0	33.8190	0	26.554	0	228.849	0	150.7	4	50.4	4	-1E+10	1	-1E+10	1	-1E+10	1	-1E+10	1	-1E+10	1	-1E+10	1
4902549	31	C	06/15/2021	19:11	-132.722	47.289	0	231.70	0	6.5120	0	33.8230	0	26.560	0	229.642	0	150.3	4	50.2	4	-1E+10	1	-1E+10	1	-1E+10	1	-1E+10	1	-1E+10	1	-1E+10	1
4902549	31	C	06/15/2021	19:11	-132.722	47.289	0	232.90	0	6.5380	0	33.8320	0	26.564	0	230.831	0	149.6	4	50.0	4	-1E+10	1	-1E+10	1	-1E+10	1	-1E+10	1	-1E+10	1	-1E+10	1
4902549	31	C	06/15/2021	19:11	-132.722	47.289	0	234.00	0	6.5350	0	33.8350	0	26.566	0	231.920	0	149.1	4	49.8	4	-1E+10	1	-1E+10	1	-1E+10	1	-1E+10	1	-1E+10	1	-1E+10	1
4902549	31	C	06/15/2021	19:11	-132.722	47.289	0	234.80	0	6.5330	0	33.8350	0	26.567	0	232.713	0	148.6	4	49.7	4	-1E+10	1	-1E+10	1	-1E+10	1	-1E+10	1	-1E+10	1	-1E+10	1
4902549	31	C	06/15/2021	19:11	-132.722	47.289	0	236.00	0	6.5190	0	33.8340	0	26.568	0	233.901	0	148.0	4	49.4	4	-1E+10	1	-1E+10	1	-1E+10	1	-1E+10	1	-1E+10	1	-1E+10	1
4902549	31	C	06/15/2021	19:11	-132.722	47.289	0	237.20	0	6.5090	0	33.8330	0	26.568	0	235.090	0	147.2	4	49.2	4	-1E+10	1	-1E+10	1	-1E+10	1	-1E+10	1	-1E+10	1	-1E+10	1
4902549	31	C	06/15/2021	19:11	-132.722	47.289	0	238.00	0	6.4930	0	33.8330	0	26.570	0	235.882	0	146.6	4	49.0	4	-1E+10	1	-1E+10	1	-1E+10	1	-1E+10	1	-1E+10	1	-1E+10	1
4902549	31	C	06/15/2021	19:11	-132.722	47.289	0	238.80	0	6.4840	0	33.8330	0	26.571	0	236.675	0	146.1	4	48.8	4	-1E+10	1	-1E+10	1	-1E+10	1	-1E+10	1	-1E+10	1	-1E+10	1
4902549	31	C	06/15/2021	19:11	-132.722	47.289	0	239.70	0	6.4510	0	33.8350	0	26.577	0	237.566	0	145.7	4	48.6	4	-1E+10	1	-1E+10	1	-1E+10	1	-1E+10	1	-1E+10	1	-1E+10	1
4902549	31	C	06/15/2021	19:11	-132.722	47.289	0	240.90	0	6.4380	0	33.8360	0	26.580	0	238.755	0	145.1	4	48.4	4	-1E+10	1	-1E+10	1	-1E+10	1	-1E+10	1	-1E+10	1	-1E+10	1
4902549	31	C	06/15/2021	19:11	-132.722	47.289	0	242.10	0	6.4300	0	33.8360	0	26.581	0	239.943	0	144.5	4	48.2	4	-1E+10	1	-1E+10	1	-1E+10	1	-1E+10	1	-1E+10	1	-1E+10	1
4902549	31	C	06/15/2021	19:11	-132.722	47.289	0	242.90	0	6.4310	0	33.8380	0	26.582	0	240.736	0	144.0	4	48.0	4	-1E+10	1	-1E+10	1	-1E+10	1	-1E+10	1	-1E+10	1	-1E+10	1
4902549	31	C	06/15/2021	19:11	-132.722	47.289	0	243.70	0	6.4250	0	33.8400	0	26.585	0	241.528	0	143.5	4	47.9	4	-1E+10	1	-1E+10	1	-1E+10	1	-1E+10	1	-1E+10	1	-1E+10	1
4902549	31	C	06/15/2021	19:11	-132.722	47.289	0	245.00	0	6.4080	0	33.8400	0	26.587	0	242.816	0	142.8	4	47.6	4	-1E+10	1	-1E+10	1	-1E+10	1	-1E+10	1	-1E+10	1	-1E+10	1
4902549	31	C	06/15/2021	19:11	-132.722	47.289	0	246.30	0	6.3650	0	33.8400	0	26.592	0	244.104	0	142.3	4	47.4	4	-1E+10	1	-1E+10	1	-1E+10	1	-1E+10	1	-1E+10	1	-1E+10	1
4902549	31	C	06/15/2021	19:11	-132.722	47.289	0	247.10	0	6.3380	0	33.8420	0	26.598	0	244.896	0	142.0	4	47.3	4	-1E+10	1	-1E+10	1	-1E+10	1	-1E+10	1	-1E+10	1	-1E+10	1
4902549	31	C	06/15/2021	19:11	-132.722	47.289	0	247.90	0	6.3200	0	33.8420	0	26.600	0	245.688	0	141.8	4	47.2	4	-1E+10	1	-1E+10	1	-1E+10	1	-1E+10	1	-1E+10	1	-1E+10	1
4902549	31	C	06/15/2021	19:11	-132.722	47.289	0	248.80	0	6.3020	0	33.8450	0	26.605	0	246.580	0	141.5	4	47.1	4	-1E+10	1	-1E+10	1	-1E+10	1	-1E+10	1	-1E+10	1	-1E+10	1
4902549	31	C	06/15/2021	19:11	-132.722	47.289	0	249.60	0	6.3020	0	33.8410	0	26.601	0	247.372	0	141.2	4	47.0	4	-1E+10	1	-1E+10	1	-1E+10	1	-1E+10	1	-1E+10	1	-1E+10	1
4902549	31	C	06/15/2021	19:11	-132.722	47.289	0	250.90	0	6.3040	0	33.8410	0	26.601	0	248.660	0	140.6	4	46.8	4	-1E+10	1	-1E+10	1	-1E+10	1	-1E+10	1	-1E+10	1	-1E+10	1
4902549	31	C	06/15/2021	19:11	-132.722	47.289	0	252.20	0	6.3050	0	33.8430	0	26.603	0	249.947	0	140.0	4	46.6	4	-1E+10	1	-1E+10	1	-1E+10	1	-1E+10	1	-1E+10	1	-1E+10	1
4902549	31	C	06/15/2021	19:11	-132.722	47.289	0	253.00	0	6.3000	0	33.8420	0	26.603	0	250.740	0	139.6	4	46.4	4	-1E+10	1	-1E+10	1	-1E+10	1	-1E+10	1	-1E+10	1	-1E+10	1
4902549	31	C	06/15/2021	19:11	-132.722	47.289	0	253.90	0	6.2910	0	33.8420	0	26.604	0	251.631	0	139.1	4	46.2	4	-1E+10	1	-1E+10	1	-1E+10	1	-1E+10	1	-1E+10	1	-1E+10	1
4902549	31	C	06/15/2021	19:11	-132.722	47.289	0	254.80	0	6.2880	0	33.8410	0	26.603	0	252.523	0	138.6	4	46.1	4	-1E+10	1	-1E+10	1	-1E+10	1	-1E+10	1	-1E+10	1	-1E+10	1
4902549	31	C	06/15/2021	19:11	-132.722	47.289	0	255.60	0	6.2850	0	33.8400	0	26.603	0	253.315	0	138.0	4	45.9	4	-1E+10	1	-1E+10	1	-1E+10	1	-1E+10	1	-1E+10	1	-1E+10	1
4902549	31	C	06/15/2021	19:11	-132.722	47.289	0	256.90	0	6.2080	0	33.8390	0	26.612	0	254.603	0	137.6	4	45.6	4	-1E+10	1	-1E+10	1	-1E+10	1	-1E+10	1	-1E+10	1	-1E+10	1
4902549	31	C	06/15/2021	19:11	-132.722	47.289	0	258.20	0	6.1840	0	33.8380	0	26.614	0	255.890	0	137.0	4	45.4	4	-1E+10	1	-1E+10	1	-1E+10	1	-1E+10	1	-1E+10	1	-1E+10	1
4902549	31	C	06/15/2021	19:11	-132.722	47.289	0	259.10	0	6.1680	0	33.8390	0	26.617	0	256.781	0	136.5	4	45.3	4	-1E+10	1	-1E+10	1	-1E+10	1	-1E+10	1	-1E+10	1	-1E+10	1
4902549	31	C	06/15/2021	19:11	-132.722	47.289	0	260.00	0	6.1480	0	33.8380	0	26.619	0	257.673	0	136.2	4	45.1	4	-1E+10	1	-1E+10	1	-1E+10	1	-1E+10	1	-1E+10	1	-1E+10	1
4902549	31	C	06/15/2021	19:11	-132.722	47.289	0	260.90	0	6.1360	0	33.8430	0	26.624	0	258.564	0	135.8	4	45.0	4	-1E+10	1	-1E+10	1	-1E+10	1	-1E+10	1	-1E+10	1	-1E+10	1
4902549	31	C	06/15/2021	19:11	-132.722	47.289	0	261.70	0	6.0830	0	33.8380	0	26.627	0	259.357	0	135.6	4	44.9	4	-1E+10	1	-1E+10	1	-1E+10	1	-1E+10	1	-1E+10	1	-1E+10	1
4902549	31	C	06/15/2021	19:11	-132.722	47.289	0	262.60	0	6.0730	0	33.8360	0	26.627	0	260.248	0	135.3	4	44.8	4	-1E+10	1	-1E+10	1	-1E+10	1	-1E+10	1	-1E+10	1	-1E+10	1
4902549	31	C	06/15/2021	19:11	-132.722	47.289	0	263.90	0	6.0730	0	33.8350	0	26.626	0	261.536	0	134.7	4	44.6	4	-1E+10	1	-1E+10	1	-1E+10	1	-1E+10	1	-1E+10	1	-1E+10	1
4902549	31	C	06/15/2021	19:11	-132.722	47.289	0	265.20	0	6.0730	0	33.8350	0	26.626	0	262.823	0	134.0	4	44.3	4	-1E+10	1	-1E+10	1	-1E+10	1	-1E+10	1	-1E+10	1	-1E+10	1
4902549	31	C	06/15/2021	19:11	-132.722	47.289	0	266.10	0	6.0710	0	33.8340	0	26.625	0	263.714	0	133.5	4	44.1	4	-1E+10	1	-1E+10	1	-1E+10	1	-1E+10	1	-1E+10	1	-1E+10	1
4902549	31	C	06/15/2021	19:11	-132.722	47.289	0	267.00	0	6.0530	0	33.8320	0	26.626	0	264.606	0	132.9	4	43.9	4	-1E+10	1	-1E+10	1	-1E+10	1	-1E+10	1	-1E+10	1	-1E+10	1
4902549	31	C	06/15/2021	19:11	-132.722	47.289	0	267.80	0	6.0110	0	33.8330	0	26.632	0	265.398	0	132.5	4	43.8	4	-1E+10	1	-1E+10	1	-1E+10	1	-1E+10	1	-1E+10	1	-1E+10	1
4902549	31	C	06/15/2021	19:11	-132.722	47.289	0	268.70	0	5.9810	0	33.8280	0	26.632	0	266.289	0	132.0	4	43.6	4	-1E+10	1	-1E+10	1	-1E+10	1	-1E+10	1	-1E+10	1	-1E+10	1
4902549	31	C	06/15/2021	19:11	-132.722	47.289	0	269.60	0	5.9610	0	33.8240	0	26.631	0	267.181	0	131.5	4	43.4	4	-1E+10	1	-1E+10	1	-1E+10	1	-1E+10	1	-1E+10	1	-1E+10	1
4902549	31	C	06/15/2021	19:11	-132.722	47.289	0	270.90	0	5.8980	0	33.8220	0	26.638	0	268.468	0	130.9	4	43.1	4	-1E+10	1	-1E+10	1	-1E+10	1	-1E+10	1	-1E+10	1	-1E+10	1
4902549	31	C	06/15/2021	19:11	-132.722	47.289	0	272.20	0	5.8650	0	33.8220	0	26.642	0	269.756	0	130.3	4	42.9	4	-1E+10	1	-1E+10	1	-1E+10	1	-1E+10	1	-1E+10	1	-1E+10	1
4902549	31	C	06/15/2021	19:11	-132.722	47.289	0	273.10	0	5.8540	0	33.8220	0	26.643	0	270.647	0	129.8	4	42.7	4	-1E+10	1	-1E+10	1	-1E+10	1	-1E+10	1	-1E+10	1	-1E+10	1
4902549	31	C	06/15/2021	19:11	-132.722	47.289	0	274.00	0	5.8420	0	33.8240	0	26.646	0	271.538	0	129.3	4	42.5	4	-1E+10	1	-1E+10	1	-1E+10	1	-1E+10	1	-1E+10	1	-1E+10	1
4902549	31	C	06/15/2021	19:11	-132.722	47.289	0	274.90	0	5.8300	0	33.8250	0	26.648	0	272.430	0	128.9	4	42.4	4	-1E+10	1	-1E+10	1	-1E+10	1	-1E+10	1	-1E+10	1	-1E+10	1
4902549	31	C	06/15/2021	19:11	-132.722	47.289	0	275.80	0	5.8170	0	33.8240	0	26.649	0	273.321	0	128.4	4	42.2	4	-1E+10	1	-1E+10	1	-1E+10	1	-1E+10	1	-1E+10	1	-1E+10	1
4902549	31	C	06/15/2021	19:11	-132.722	47.289	0	276.60	0	5.8180	0	33.8230	0	26.648	0	274.113	0	127.8	4	42.0	4	-1E+10	1	-1E+10	1	-1E+10	1	-1E+10	1	-1E+10	1	-1E+10	1
4902549	31	C	06/15/2021	19:11	-132.722	47.289	0	277.90	0	5.8010	0	33.8240	0	26.651	0	275.401	0	126.9	4	41.7	4	-1E+10	1	-1E+10	1	-1E+10	1	-1E+10	1	-1E+10	1	-1E+10	1
4902549	31	C	06/15/2021	19:11	-132.722	47.289	0	279.30	0	5.7890	0	33.8260	0	26.654	0	276.787	0	126.1	4	41.4	4	-1E+10	1	-1E+10	1	-1E+10	1	-1E+10	1	-1E+10	1	-1E+10	1
4902549	31	C	06/15/2021	19:11	-132.722	47.289	0	280.20	0	5.7960	0	33.8250	0	26.653	0	277.679	0	125.4	4	41.2	4	-1E+10	1	-1E+10	1	-1E+10	1	-1E+10	1	-1E+10	1	-1E+10	1
4902549	31	C	06/15/2021	19:11	-132.722	47.289	0	281.00	0	5.7830	0	33.8330	0	26.660	0	278.471	0	124.9	4	41.0	4	-1E+10	1	-1E+10	1	-1E+10	1	-1E+10	1	-1E+10	1	-1E+10	1
4902549	31	C	06/15/2021	19:11	-132.722	47.289	0	281.90	0	5.7290	0	33.8290	0	26.664	0	279.362	0	124.4	4	40.8	4	-1E+10	1	-1E+10	1	-1E+10	1	-1E+10	1	-1E+10	1	-1E+10	1
4902549	31	C	06/15/2021	19:11	-132.722	47.289	0	282.80	0	5.7110	0	33.8280	0	26.665	0	280.253	0	123.9	4	40.6	4	-1E+10	1	-1E+10	1	-1E+10	1	-1E+10	1	-1E+10	1	-1E+10	1
4902549	31	C	06/15/2021	19:11	-132.722	47.289	0	283.70	0	5.7000	0	33.8280	0	26.667	0	281.145	0	123.4	4	40.5	4	-1E+10	1	-1E+10	1	-1E+10	1	-1E+10	1	-1E+10	1	-1E+10	1
4902549	31	C	06/15/2021	19:11	-132.722	47.289	0	284.90	0	5.6890	0	33.8270	0	26.667	0	282.333	0	122.6	4	40.2	4	-1E+10	1	-1E+10	1	-1E+10	1	-1E+10	1	-1E+10	1	-1E+10	1
4902549	31	C	06/15/2021	19:11	-132.722	47.289	0	286.30	0	5.6580	0	33.8290	0	26.673	0	283.719	0	121.7	4	39.9	4	-1E+10	1	-1E+10	1	-1E+10	1	-1E+10	1	-1E+10	1	-1E+10	1
4902549	31	C	06/15/2021	19:11	-132.722	47.289	0	287.20	0	5.6350	0	33.8290	0	26.675	0	284.611	0	121.2	4	39.7	4	-1E+10	1	-1E+10	1	-1E+10	1	-1E+10	1	-1E+10	1	-1E+10	1
4902549	31	C	06/15/2021	19:11	-132.722	47.289	0	288.00	0	5.6270	0	33.8290	0	26.676	0	285.403	0	120.7	4	39.5	4	-1E+10	1	-1E+10	1	-1E+10	1	-1E+10	1	-1E+10	1	-1E+10	1
4902549	31	C	06/15/2021	19:11	-132.722	47.289	0	288.90	0	5.6100	0	33.8310	0	26.680	0	286.294	0	120.2	4	39.3	4	-1E+10	1	-1E+10	1	-1E+10	1	-1E+10	1	-1E+10	1	-1E+10	1
4902549	31	C	06/15/2021	19:11	-132.722	47.289	0	289.80	0	5.5950	0	33.8300	0	26.681	0	287.185	0	119.7	4	39.1	4	-1E+10	1	-1E+10	1	-1E+10	1	-1E+10	1	-1E+10	1	-1E+10	1
4902549	31	C	06/15/2021	19:11	-132.722	47.289	0	290.70	0	5.5890	0	33.8290	0	26.681	0	288.077	0	119.1	4	38.9	4	-1E+10	1	-1E+10	1	-1E+10	1	-1E+10	1	-1E+10	1	-1E+10	1
4902549	31	C	06/15/2021	19:11	-132.722	47.289	0	291.60	0	5.5800	0	33.8290	0	26.682	0	288.968	0	118.5	4	38.7	4	-1E+10	1	-1E+10	1	-1E+10	1	-1E+10	1	-1E+10	1	-1E+10	1
4902549	31	C	06/15/2021	19:11	-132.722	47.289	0	292.90	0	5.5550	0	33.8290	0	26.685	0	290.255	0	117.6	4	38.4	4	-1E+10	1	-1E+10	1	-1E+10	1	-1E+10	1	-1E+10	1	-1E+10	1
4902549	31	C	06/15/2021	19:11	-132.722	47.289	0	294.20	0	5.5300	0	33.8290	0	26.688	0	291.543	0	116.7	4	38.1	4	-1E+10	1	-1E+10	1	-1E+10	1	-1E+10	1	-1E+10	1	-1E+10	1
4902549	31	C	06/15/2021	19:11	-132.722	47.289	0	295.10	0	5.5240	0	33.8300	0	26.689	0	292.434	0	116.0	4	37.9	4	-1E+10	1	-1E+10	1	-1E+10	1	-1E+10	1	-1E+10	1	-1E+10	1
4902549	31	C	06/15/2021	19:11	-132.722	47.289	0	296.00	0	5.5170	0	33.8300	0	26.690	0	293.325	0	115.3	4	37.6	4	-1E+10	1	-1E+10	1	-1E+10	1	-1E+10	1	-1E+10	1	-1E+10	1
4902549	31	C	06/15/2021	19:11	-132.722	47.289	0	296.90	0	5.5120	0	33.8310	0	26.692	0	294.216	0	114.4	4	37.4	4	-1E+10	1	-1E+10	1	-1E+10	1	-1E+10	1	-1E+10	1	-1E+10	1
4902549	31	C	06/15/2021	19:11	-132.722	47.289	0	297.80	0	5.5120	0	33.8320	0	26.693	0	295.108	0	113.4	4	37.0	4	-1E+10	1	-1E+10	1	-1E+10	1	-1E+10	1	-1E+10	1	-1E+10	1
4902549	31	C	06/15/2021	19:11	-132.722	47.289	0	298.70	0	5.5220	0	33.8320	0	26.691	0	295.999	0	112.4	4	36.7	4	-1E+10	1	-1E+10	1	-1E+10	1	-1E+10	1	-1E+10	1	-1E+10	1
4902549	31	C	06/15/2021	19:11	-132.722	47.289	0	299.60	0	5.5950	0	33.8470	0	26.694	0	296.890	0	111.4	4	36.4	4	-1E+10	1	-1E+10	1	-1E+10	1	-1E+10	1	-1E+10	1	-1E+10	1
4902549	31	C	06/15/2021	19:11	-132.722	47.289	0	300.90	0	5.5550	0	33.8450	0	26.698	0	298.177	0	110.1	4	36.0	4	-1E+10	1	-1E+10	1	-1E+10	1	-1E+10	1	-1E+10	1	-1E+10	1
4902549	31	C	06/15/2021	19:11	-132.722	47.289	0	302.30	0	5.5690	0	33.8470	0	26.698	0	299.564	0	108.7	4	35.5	4	-1E+10	1	-1E+10	1	-1E+10	1	-1E+10	1	-1E+10	1	-1E+10	1
4902549	31	C	06/15/2021	19:11	-132.722	47.289	0	303.20	0	5.6590	0	33.8620	0	26.699	0	300.455	0	107.6	4	35.3	4	-1E+10	1	-1E+10	1	-1E+10	1	-1E+10	1	-1E+10	1	-1E+10	1
4902549	31	C	06/15/2021	19:11	-132.722	47.289	0	304.10	0	5.6590	0	33.8720	0	26.707	0	301.346	0	106.9	4	35.0	4	-1E+10	1	-1E+10	1	-1E+10	1	-1E+10	1	-1E+10	1	-1E+10	1
4902549	31	C	06/15/2021	19:11	-132.722	47.289	0	305.00	0	5.6400	0	33.8710	0	26.708	0	302.237	0	106.3	4	34.8	4	-1E+10	1	-1E+10	1	-1E+10	1	-1E+10	1	-1E+10	1	-1E+10	1
4902549	31	C	06/15/2021	19:11	-132.722	47.289	0	305.90	0	5.6280	0	33.8740	0	26.712	0	303.128	0	105.7	4	34.6	4	-1E+10	1	-1E+10	1	-1E+10	1	-1E+10	1	-1E+10	1	-1E+10	1
4902549	31	C	06/15/2021	19:11	-132.722	47.289	0	306.80	0	5.6240	0	33.8730	0	26.712	0	304.020	0	105.1	4	34.4	4	-1E+10	1	-1E+10	1	-1E+10	1	-1E+10	1	-1E+10	1	-1E+10	1
4902549	31	C	06/15/2021	19:11	-132.722	47.289	0	307.70	0	5.6200	0	33.8730	0	26.712	0	304.911	0	104.4	4	34.2	4	-1E+10	1	-1E+10	1	-1E+10	1	-1E+10	1	-1E+10	1	-1E+10	1
4902549	31	C	06/15/2021	19:11	-132.722	47.289	0	309.00	0	5.5950	0	33.8740	0	26.716	0	306.198	0	103.5	4	33.9	4	-1E+10	1	-1E+10	1	-1E+10	1	-1E+10	1	-1E+10	1	-1E+10	1
4902549	31	C	06/15/2021	19:11	-132.722	47.289	0	310.30	0	5.5810	0	33.8760	0	26.719	0	307.485	0	102.8	4	33.6	4	-1E+10	1	-1E+10	1	-1E+10	1	-1E+10	1	-1E+10	1	-1E+10	1
4902549	31	C	06/15/2021	19:11	-132.722	47.289	0	311.20	0	5.5730	0	33.8780	0	26.722	0	308.377	0	102.3	4	33.4	4	-1E+10	1	-1E+10	1	-1E+10	1	-1E+10	1	-1E+10	1	-1E+10	1
4902549	31	C	06/15/2021	19:11	-132.722	47.289	0	312.20	0	5.5660	0	33.8770	0	26.722	0	309.367	0	101.7	4	33.3	4	-1E+10	1	-1E+10	1	-1E+10	1	-1E+10	1	-1E+10	1	-1E+10	1
4902549	31	C	06/15/2021	19:11	-132.722	47.289	0	313.10	0	5.5540	0	33.8780	0	26.724	0	310.258	0	101.2	4	33.1	4	-1E+10	1	-1E+10	1	-1E+10	1	-1E+10	1	-1E+10	1	-1E+10	1
4902549	31	C	06/15/2021	19:11	-132.722	47.289	0	314.00	0	5.5420	0	33.8800	0	26.727	0	311.149	0	100.6	4	32.9	4	-1E+10	1	-1E+10	1	-1E+10	1	-1E+10	1	-1E+10	1	-1E+10	1
4902549	31	C	06/15/2021	19:11	-132.722	47.289	0	314.90	0	5.5310	0	33.8780	0	26.727	0	312.040	0	100.2	4	32.7	4	-1E+10	1	-1E+10	1	-1E+10	1	-1E+10	1	-1E+10	1	-1E+10	1
4902549	31	C	06/15/2021	19:11	-132.722	47.289	0	315.80	0	5.5170	0	33.8780	0	26.729	0	312.931	0	99.6	4	32.5	4	-1E+10	1	-1E+10	1	-1E+10	1	-1E+10	1	-1E+10	1	-1E+10	1
4902549	31	C	06/15/2021	19:11	-132.722	47.289	0	316.70	0	5.5120	0	33.8790	0	26.730	0	313.822	0	99.1	4	32.4	4	-1E+10	1	-1E+10	1	-1E+10	1	-1E+10	1	-1E+10	1	-1E+10	1
4902549	31	C	06/15/2021	19:11	-132.722	47.289	0	317.60	0	5.4700	0	33.8780	0	26.734	0	314.714	0	98.5	4	32.1	4	-1E+10	1	-1E+10	1	-1E+10	1	-1E+10	1	-1E+10	1	-1E+10	1
4902549	31	C	06/15/2021	19:11	-132.722	47.289	0	318.90	0	5.4570	0	33.8780	0	26.736	0	316.001	0	97.7	4	31.9	4	-1E+10	1	-1E+10	1	-1E+10	1	-1E+10	1	-1E+10	1	-1E+10	1
4902549	31	C	06/15/2021	19:11	-132.722	47.289	0	320.30	0	5.4450	0	33.8810	0	26.740	0	317.387	0	96.9	4	31.6	4	-1E+10	1	-1E+10	1	-1E+10	1	-1E+10	1	-1E+10	1	-1E+10	1
4902549	31	C	06/15/2021	19:11	-132.722	47.289	0	321.20	0	5.4340	0	33.8820	0	26.742	0	318.278	0	96.4	4	31.4	4	-1E+10	1	-1E+10	1	-1E+10	1	-1E+10	1	-1E+10	1	-1E+10	1
4902549	31	C	06/15/2021	19:11	-132.722	47.289	0	322.10	0	5.4210	0	33.8830	0	26.744	0	319.169	0	95.9	4	31.3	4	-1E+10	1	-1E+10	1	-1E+10	1	-1E+10	1	-1E+10	1	-1E+10	1
4902549	31	C	06/15/2021	19:11	-132.722	47.289	0	323.10	0	5.4170	0	33.8840	0	26.745	0	320.159	0	95.5	4	31.1	4	-1E+10	1	-1E+10	1	-1E+10	1	-1E+10	1	-1E+10	1	-1E+10	1
4902549	31	C	06/15/2021	19:11	-132.722	47.289	0	324.00	0	5.4090	0	33.8870	0	26.749	0	321.050	0	95.2	4	31.0	4	-1E+10	1	-1E+10	1	-1E+10	1	-1E+10	1	-1E+10	1	-1E+10	1
4902549	31	C	06/15/2021	19:11	-132.722	47.289	0	324.90	0	5.4010	0	33.8880	0	26.750	0	321.942	0	95.0	4	30.9	4	-1E+10	1	-1E+10	1	-1E+10	1	-1E+10	1	-1E+10	1	-1E+10	1
4902549	31	C	06/15/2021	19:11	-132.722	47.289	0	325.80	0	5.4010	0	33.8880	0	26.750	0	322.833	0	94.7	4	30.8	4	-1E+10	1	-1E+10	1	-1E+10	1	-1E+10	1	-1E+10	1	-1E+10	1
4902549	31	C	06/15/2021	19:11	-132.722	47.289	0	326.70	0	5.4000	0	33.8880	0	26.750	0	323.724	0	94.3	4	30.7	4	-1E+10	1	-1E+10	1	-1E+10	1	-1E+10	1	-1E+10	1	-1E+10	1
4902549	31	C	06/15/2021	19:11	-132.722	47.289	0	327.70	0	5.4000	0	33.8870	0	26.750	0	324.714	0	93.9	4	30.6	4	-1E+10	1	-1E+10	1	-1E+10	1	-1E+10	1	-1E+10	1	-1E+10	1
4902549	31	C	06/15/2021	19:11	-132.722	47.289	0	328.60	0	5.3930	0	33.8870	0	26.750	0	325.605	0	93.4	4	30.4	4	-1E+10	1	-1E+10	1	-1E+10	1	-1E+10	1	-1E+10	1	-1E+10	1
4902549	31	C	06/15/2021	19:11	-132.722	47.289	0	329.90	0	5.3830	0	33.8890	0	26.753	0	326.892	0	92.8	4	30.2	4	-1E+10	1	-1E+10	1	-1E+10	1	-1E+10	1	-1E+10	1	-1E+10	1
4902549	31	C	06/15/2021	19:11	-132.722	47.289	0	331.30	0	5.3700	0	33.8900	0	26.756	0	328.278	0	92.3	4	30.0	4	-1E+10	1	-1E+10	1	-1E+10	1	-1E+10	1	-1E+10	1	-1E+10	1
4902549	31	C	06/15/2021	19:11	-132.722	47.289	0	332.20	0	5.3650	0	33.8900	0	26.756	0	329.169	0	91.8	4	29.9	4	-1E+10	1	-1E+10	1	-1E+10	1	-1E+10	1	-1E+10	1	-1E+10	1
4902549	31	C	06/15/2021	19:11	-132.722	47.289	0	333.20	0	5.3630	0	33.8900	0	26.756	0	330.159	0	91.4	4	29.7	4	-1E+10	1	-1E+10	1	-1E+10	1	-1E+10	1	-1E+10	1	-1E+10	1
4902549	31	C	06/15/2021	19:11	-132.722	47.289	0	334.10	0	5.3550	0	33.8910	0	26.758	0	331.050	0	90.9	4	29.6	4	-1E+10	1	-1E+10	1	-1E+10	1	-1E+10	1	-1E+10	1	-1E+10	1
4902549	31	C	06/15/2021	19:11	-132.722	47.289	0	335.00	0	5.3400	0	33.8920	0	26.761	0	331.942	0	90.5	4	29.4	4	-1E+10	1	-1E+10	1	-1E+10	1	-1E+10	1	-1E+10	1	-1E+10	1
4902549	31	C	06/15/2021	19:11	-132.722	47.289	0	335.90	0	5.3310	0	33.8930	0	26.763	0	332.833	0	90.2	4	29.3	4	-1E+10	1	-1E+10	1	-1E+10	1	-1E+10	1	-1E+10	1	-1E+10	1
4902549	31	C	06/15/2021	19:11	-132.722	47.289	0	336.90	0	5.3230	0	33.8930	0	26.764	0	333.823	0	89.8	4	29.2	4	-1E+10	1	-1E+10	1	-1E+10	1	-1E+10	1	-1E+10	1	-1E+10	1
4902549	31	C	06/15/2021	19:11	-132.722	47.289	0	337.80	0	5.3190	0	33.8940	0	26.765	0	334.714	0	89.4	4	29.1	4	-1E+10	1	-1E+10	1	-1E+10	1	-1E+10	1	-1E+10	1	-1E+10	1
4902549	31	C	06/15/2021	19:11	-132.722	47.289	0	338.80	0	5.3180	0	33.8930	0	26.764	0	335.704	0	89.0	4	28.9	4	-1E+10	1	-1E+10	1	-1E+10	1	-1E+10	1	-1E+10	1	-1E+10	1
4902549	31	C	06/15/2021	19:11	-132.722	47.289	0	339.70	0	5.3150	0	33.8930	0	26.764	0	336.595	0	88.5	4	28.8	4	-1E+10	1	-1E+10	1	-1E+10	1	-1E+10	1	-1E+10	1	-1E+10	1
4902549	31	C	06/15/2021	19:11	-132.722	47.289	0	340.70	0	5.3000	0	33.8950	0	26.768	0	337.585	0	88.0	4	28.6	4	-1E+10	1	-1E+10	1	-1E+10	1	-1E+10	1	-1E+10	1	-1E+10	1
4902549	31	C	06/15/2021	19:11	-132.722	47.289	0	341.60	0	5.2870	0	33.8950	0	26.769	0	338.476	0	87.6	4	28.4	4	-1E+10	1	-1E+10	1	-1E+10	1	-1E+10	1	-1E+10	1	-1E+10	1
4902549	31	C	06/15/2021	19:11	-132.722	47.289	0	342.50	0	5.2510	0	33.8990	0	26.777	0	339.367	0	87.3	4	28.3	4	-1E+10	1	-1E+10	1	-1E+10	1	-1E+10	1	-1E+10	1	-1E+10	1
4902549	31	C	06/15/2021	19:11	-132.722	47.289	0	343.50	0	5.2390	0	33.8970	0	26.777	0	340.357	0	87.0	4	28.2	4	-1E+10	1	-1E+10	1	-1E+10	1	-1E+10	1	-1E+10	1	-1E+10	1
4902549	31	C	06/15/2021	19:11	-132.722	47.289	0	344.90	0	5.2270	0	33.8980	0	26.779	0	341.743	0	86.5	4	28.1	4	-1E+10	1	-1E+10	1	-1E+10	1	-1E+10	1	-1E+10	1	-1E+10	1
4902549	31	C	06/15/2021	19:11	-132.722	47.289	0	346.30	0	5.2000	0	33.8980	0	26.782	0	343.129	0	86.1	4	27.9	4	-1E+10	1	-1E+10	1	-1E+10	1	-1E+10	1	-1E+10	1	-1E+10	1
4902549	31	C	06/15/2021	19:11	-132.722	47.289	0	347.20	0	5.1940	0	33.8990	0	26.783	0	344.020	0	85.8	4	27.8	4	-1E+10	1	-1E+10	1	-1E+10	1	-1E+10	1	-1E+10	1	-1E+10	1
4902549	31	C	06/15/2021	19:11	-132.722	47.289	0	348.20	0	5.1930	0	33.8980	0	26.783	0	345.010	0	85.5	4	27.7	4	-1E+10	1	-1E+10	1	-1E+10	1	-1E+10	1	-1E+10	1	-1E+10	1
4902549	31	C	06/15/2021	19:11	-132.722	47.289	0	349.10	0	5.1930	0	33.8990	0	26.784	0	345.901	0	85.1	4	27.6	4	-1E+10	1	-1E+10	1	-1E+10	1	-1E+10	1	-1E+10	1	-1E+10	1
4902549	31	C	06/15/2021	19:11	-132.722	47.289	0	350.00	0	5.1920	0	33.8990	0	26.784	0	346.792	0	84.7	4	27.5	4	-1E+10	1	-1E+10	1	-1E+10	1	-1E+10	1	-1E+10	1	-1E+10	1
4902549	31	C	06/15/2021	19:11	-132.722	47.289	0	352.80	0	5.1500	0	33.9020	0	26.791	0	349.564	0	83.7	4	27.1	4	-1E+10	1	-1E+10	1	-1E+10	1	-1E+10	1	-1E+10	1	-1E+10	1
4902549	31	C	06/15/2021	19:11	-132.722	47.289	0	357.60	0	5.1010	0	33.9030	0	26.797	0	354.316	0	82.3	4	26.6	4	-1E+10	1	-1E+10	1	-1E+10	1	-1E+10	1	-1E+10	1	-1E+10	1
4902549	31	C	06/15/2021	19:11	-132.722	47.289	0	362.50	0	5.0530	0	33.9070	0	26.806	0	359.167	0	80.9	4	26.1	4	-1E+10	1	-1E+10	1	-1E+10	1	-1E+10	1	-1E+10	1	-1E+10	1
4902549	31	C	06/15/2021	19:11	-132.722	47.289	0	367.90	0	5.0060	0	33.9100	0	26.814	0	364.512	0	79.6	4	25.7	4	-1E+10	1	-1E+10	1	-1E+10	1	-1E+10	1	-1E+10	1	-1E+10	1
4902549	31	C	06/15/2021	19:11	-132.722	47.289	0	373.40	0	4.9760	0	33.9130	0	26.820	0	369.957	0	78.1	4	25.2	4	-1E+10	1	-1E+10	1	-1E+10	1	-1E+10	1	-1E+10	1	-1E+10	1
4902549	31	C	06/15/2021	19:11	-132.722	47.289	0	377.90	0	4.9340	0	33.9170	0	26.828	0	374.411	0	76.9	4	24.8	4	-1E+10	1	-1E+10	1	-1E+10	1	-1E+10	1	-1E+10	1	-1E+10	1
4902549	31	C	06/15/2021	19:11	-132.722	47.289	0	382.50	0	4.8840	0	33.9180	0	26.834	0	378.964	0	76.2	4	24.5	4	-1E+10	1	-1E+10	1	-1E+10	1	-1E+10	1	-1E+10	1	-1E+10	1
4902549	31	C	06/15/2021	19:11	-132.722	47.289	0	387.50	0	4.8550	0	33.9180	0	26.837	0	383.914	0	75.3	4	24.2	4	-1E+10	1	-1E+10	1	-1E+10	1	-1E+10	1	-1E+10	1	-1E+10	1
4902549	31	C	06/15/2021	19:11	-132.722	47.289	0	392.50	0	4.8230	0	33.9180	0	26.841	0	388.863	0	73.8	4	23.7	4	-1E+10	1	-1E+10	1	-1E+10	1	-1E+10	1	-1E+10	1	-1E+10	1
4902549	31	C	06/15/2021	19:11	-132.722	47.289	0	397.60	0	4.7730	0	33.9240	0	26.851	0	393.911	0	72.2	4	23.2	4	-1E+10	1	-1E+10	1	-1E+10	1	-1E+10	1	-1E+10	1	-1E+10	1
4902549	31	C	06/15/2021	19:11	-132.722	47.289	0	402.70	0	4.7520	0	33.9280	0	26.857	0	398.958	0	70.6	4	22.7	4	-1E+10	1	-1E+10	1	-1E+10	1	-1E+10	1	-1E+10	1	-1E+10	1
4902549	31	C	06/15/2021	19:11	-132.722	47.289	0	407.90	0	4.7330	0	33.9320	0	26.862	0	404.105	0	69.0	4	22.1	4	-1E+10	1	-1E+10	1	-1E+10	1	-1E+10	1	-1E+10	1	-1E+10	1
4902549	31	C	06/15/2021	19:11	-132.722	47.289	0	413.00	0	4.7070	0	33.9360	0	26.868	0	409.152	0	67.1	4	21.5	4	-1E+10	1	-1E+10	1	-1E+10	1	-1E+10	1	-1E+10	1	-1E+10	1
4902549	31	C	06/15/2021	19:11	-132.722	47.289	0	417.80	0	4.6810	0	33.9410	0	26.875	0	413.903	0	66.1	4	21.2	4	-1E+10	1	-1E+10	1	-1E+10	1	-1E+10	1	-1E+10	1	-1E+10	1
4902549	31	C	06/15/2021	19:11	-132.722	47.289	0	422.50	0	4.6620	0	33.9440	0	26.880	0	418.554	0	65.0	4	20.8	4	-1E+10	1	-1E+10	1	-1E+10	1	-1E+10	1	-1E+10	1	-1E+10	1
4902549	31	C	06/15/2021	19:11	-132.722	47.289	0	427.90	0	4.6340	0	33.9470	0	26.885	0	423.898	0	63.6	4	20.4	4	-1E+10	1	-1E+10	1	-1E+10	1	-1E+10	1	-1E+10	1	-1E+10	1
4902549	31	C	06/15/2021	19:11	-132.722	47.289	0	433.20	0	4.6080	0	33.9520	0	26.892	0	429.143	0	62.2	4	19.9	4	-1E+10	1	-1E+10	1	-1E+10	1	-1E+10	1	-1E+10	1	-1E+10	1
4902549	31	C	06/15/2021	19:11	-132.722	47.289	0	438.20	0	4.5800	0	33.9580	0	26.900	0	434.091	0	61.4	4	19.6	4	-1E+10	1	-1E+10	1	-1E+10	1	-1E+10	1	-1E+10	1	-1E+10	1
4902549	31	C	06/15/2021	19:11	-132.722	47.289	0	442.70	0	4.5650	0	33.9610	0	26.904	0	438.544	0	60.7	4	19.4	4	-1E+10	1	-1E+10	1	-1E+10	1	-1E+10	1	-1E+10	1	-1E+10	1
4902549	31	C	06/15/2021	19:11	-132.722	47.289	0	447.60	0	4.5530	0	33.9630	0	26.907	0	443.393	0	60.0	4	19.2	4	-1E+10	1	-1E+10	1	-1E+10	1	-1E+10	1	-1E+10	1	-1E+10	1
4902549	31	C	06/15/2021	19:11	-132.722	47.289	0	452.90	0	4.5400	0	33.9660	0	26.910	0	448.638	0	59.3	4	18.9	4	-1E+10	1	-1E+10	1	-1E+10	1	-1E+10	1	-1E+10	1	-1E+10	1
4902549	31	C	06/15/2021	19:11	-132.722	47.289	0	457.90	0	4.5310	0	33.9680	0	26.913	0	453.585	0	58.3	4	18.6	4	-1E+10	1	-1E+10	1	-1E+10	1	-1E+10	1	-1E+10	1	-1E+10	1
4902549	31	C	06/15/2021	19:11	-132.722	47.289	0	462.90	0	4.5140	0	33.9720	0	26.918	0	458.532	0	57.3	4	18.3	4	-1E+10	1	-1E+10	1	-1E+10	1	-1E+10	1	-1E+10	1	-1E+10	1
4902549	31	C	06/15/2021	19:11	-132.722	47.289	0	468.20	0	4.5010	0	33.9750	0	26.922	0	463.777	0	56.5	4	18.0	4	-1E+10	1	-1E+10	1	-1E+10	1	-1E+10	1	-1E+10	1	-1E+10	1
4902549	31	C	06/15/2021	19:11	-132.722	47.289	0	473.20	0	4.4900	0	33.9780	0	26.926	0	468.724	0	55.7	4	17.8	4	-1E+10	1	-1E+10	1	-1E+10	1	-1E+10	1	-1E+10	1	-1E+10	1
4902549	31	C	06/15/2021	19:11	-132.722	47.289	0	478.20	0	4.4800	0	33.9810	0	26.929	0	473.671	0	54.7	4	17.4	4	-1E+10	1	-1E+10	1	-1E+10	1	-1E+10	1	-1E+10	1	-1E+10	1
4902549	31	C	06/15/2021	19:11	-132.722	47.289	0	482.90	0	4.4700	0	33.9840	0	26.933	0	478.321	0	53.4	4	17.0	4	-1E+10	1	-1E+10	1	-1E+10	1	-1E+10	1	-1E+10	1	-1E+10	1
4902549	31	C	06/15/2021	19:11	-132.722	47.289	0	487.60	0	4.4540	0	33.9890	0	26.938	0	482.971	0	52.2	4	16.6	4	-1E+10	1	-1E+10	1	-1E+10	1	-1E+10	1	-1E+10	1	-1E+10	1
4902549	31	C	06/15/2021	19:11	-132.722	47.289	0	492.80	0	4.4410	0	33.9930	0	26.943	0	488.115	0	50.8	4	16.2	4	-1E+10	1	-1E+10	1	-1E+10	1	-1E+10	1	-1E+10	1	-1E+10	1
4902549	31	C	06/15/2021	19:11	-132.722	47.289	0	498.00	0	4.4180	0	33.9990	0	26.950	0	493.260	0	49.4	4	15.7	4	-1E+10	1	-1E+10	1	-1E+10	1	-1E+10	1	-1E+10	1	-1E+10	1
4902549	31	C	06/15/2021	19:11	-132.722	47.289	0	502.90	0	4.4000	0	34.0030	0	26.955	0	498.107	0	48.2	4	15.3	4	-1E+10	1	-1E+10	1	-1E+10	1	-1E+10	1	-1E+10	1	-1E+10	1
4902549	31	C	06/15/2021	19:11	-132.722	47.289	0	507.80	0	4.3850	0	34.0080	0	26.961	0	502.954	0	47.2	4	15.0	4	-1E+10	1	-1E+10	1	-1E+10	1	-1E+10	1	-1E+10	1	-1E+10	1
4902549	31	C	06/15/2021	19:11	-132.722	47.289	0	512.80	0	4.3760	0	34.0110	0	26.964	0	507.901	0	45.9	4	14.6	4	-1E+10	1	-1E+10	1	-1E+10	1	-1E+10	1	-1E+10	1	-1E+10	1
4902549	31	C	06/15/2021	19:11	-132.722	47.289	0	517.70	0	4.3640	0	34.0160	0	26.970	0	512.748	0	44.7	4	14.2	4	-1E+10	1	-1E+10	1	-1E+10	1	-1E+10	1	-1E+10	1	-1E+10	1
4902549	31	C	06/15/2021	19:11	-132.722	47.289	0	522.80	0	4.3500	0	34.0200	0	26.974	0	517.793	0	43.3	4	13.8	4	-1E+10	1	-1E+10	1	-1E+10	1	-1E+10	1	-1E+10	1	-1E+10	1
4902549	31	C	06/15/2021	19:11	-132.722	47.289	0	528.00	0	4.3300	0	34.0250	0	26.980	0	522.936	0	42.0	4	13.3	4	-1E+10	1	-1E+10	1	-1E+10	1	-1E+10	1	-1E+10	1	-1E+10	1
4902549	31	C	06/15/2021	19:11	-132.722	47.289	0	533.10	0	4.3110	0	34.0310	0	26.987	0	527.981	0	40.8	4	13.0	4	-1E+10	1	-1E+10	1	-1E+10	1	-1E+10	1	-1E+10	1	-1E+10	1
4902549	31	C	06/15/2021	19:11	-132.722	47.289	0	537.80	0	4.2990	0	34.0350	0	26.992	0	532.630	0	40.0	4	12.7	4	-1E+10	1	-1E+10	1	-1E+10	1	-1E+10	1	-1E+10	1	-1E+10	1
4902549	31	C	06/15/2021	19:11	-132.722	47.289	0	543.00	0	4.2890	0	34.0390	0	26.996	0	537.773	0	39.0	4	12.4	4	-1E+10	1	-1E+10	1	-1E+10	1	-1E+10	1	-1E+10	1	-1E+10	1
4902549	31	C	06/15/2021	19:11	-132.722	47.289	0	548.20	0	4.2710	0	34.0440	0	27.002	0	542.916	0	37.9	4	12.0	4	-1E+10	1	-1E+10	1	-1E+10	1	-1E+10	1	-1E+10	1	-1E+10	1
4902549	31	C	06/15/2021	19:11	-132.722	47.289	0	552.90	0	4.2550	0	34.0490	0	27.008	0	547.565	0	37.1	4	11.8	4	-1E+10	1	-1E+10	1	-1E+10	1	-1E+10	1	-1E+10	1	-1E+10	1
4902549	31	C	06/15/2021	19:11	-132.722	47.289	0	557.70	0	4.2430	0	34.0510	0	27.010	0	552.312	0	36.4	4	11.5	4	-1E+10	1	-1E+10	1	-1E+10	1	-1E+10	1	-1E+10	1	-1E+10	1
4902549	31	C	06/15/2021	19:11	-132.722	47.289	0	562.70	0	4.2340	0	34.0530	0	27.013	0	557.257	0	35.6	4	11.3	4	-1E+10	1	-1E+10	1	-1E+10	1	-1E+10	1	-1E+10	1	-1E+10	1
4902549	31	C	06/15/2021	19:11	-132.722	47.289	0	567.60	0	4.2230	0	34.0570	0	27.017	0	562.103	0	34.6	4	11.0	4	-1E+10	1	-1E+10	1	-1E+10	1	-1E+10	1	-1E+10	1	-1E+10	1
4902549	31	C	06/15/2021	19:11	-132.722	47.289	0	572.60	0	4.2130	0	34.0610	0	27.022	0	567.048	0	33.7	4	10.7	4	-1E+10	1	-1E+10	1	-1E+10	1	-1E+10	1	-1E+10	1	-1E+10	1
4902549	31	C	06/15/2021	19:11	-132.722	47.289	0	577.60	0	4.2020	0	34.0650	0	27.026	0	571.992	0	32.6	4	10.3	4	-1E+10	1	-1E+10	1	-1E+10	1	-1E+10	1	-1E+10	1	-1E+10	1
4902549	31	C	06/15/2021	19:11	-132.722	47.289	0	582.70	0	4.1920	0	34.0700	0	27.031	0	577.036	0	31.6	4	10.0	4	-1E+10	1	-1E+10	1	-1E+10	1	-1E+10	1	-1E+10	1	-1E+10	1
4902549	31	C	06/15/2021	19:11	-132.722	47.289	0	587.80	0	4.1820	0	34.0740	0	27.035	0	582.079	0	30.7	4	9.7	4	-1E+10	1	-1E+10	1	-1E+10	1	-1E+10	1	-1E+10	1	-1E+10	1
4902549	31	C	06/15/2021	19:11	-132.722	47.289	0	593.00	0	4.1740	0	34.0770	0	27.039	0	587.221	0	29.8	4	9.4	4	-1E+10	1	-1E+10	1	-1E+10	1	-1E+10	1	-1E+10	1	-1E+10	1
4902549	31	C	06/15/2021	19:11	-132.722	47.289	0	598.30	0	4.1650	0	34.0810	0	27.043	0	592.462	0	29.0	4	9.2	4	-1E+10	1	-1E+10	1	-1E+10	1	-1E+10	1	-1E+10	1	-1E+10	1
4902549	31	C	06/15/2021	19:11	-132.722	47.289	0	603.40	0	4.1530	0	34.0860	0	27.048	0	597.505	0	28.1	4	8.9	4	-1E+10	1	-1E+10	1	-1E+10	1	-1E+10	1	-1E+10	1	-1E+10	1
4902549	31	C	06/15/2021	19:11	-132.722	47.289	0	608.20	0	4.1390	0	34.0910	0	27.053	0	602.251	0	27.3	4	8.6	4	-1E+10	1	-1E+10	1	-1E+10	1	-1E+10	1	-1E+10	1	-1E+10	1
4902549	31	C	06/15/2021	19:11	-132.722	47.289	0	613.00	0	4.1270	0	34.0960	0	27.059	0	606.997	0	26.5	4	8.4	4	-1E+10	1	-1E+10	1	-1E+10	1	-1E+10	1	-1E+10	1	-1E+10	1
4902549	31	C	06/15/2021	19:11	-132.722	47.289	0	617.90	0	4.1170	0	34.0990	0	27.062	0	611.842	0	25.8	4	8.2	4	-1E+10	1	-1E+10	1	-1E+10	1	-1E+10	1	-1E+10	1	-1E+10	1
4902549	31	C	06/15/2021	19:11	-132.722	47.289	0	622.80	0	4.1010	0	34.1040	0	27.068	0	616.687	0	25.1	4	7.9	4	-1E+10	1	-1E+10	1	-1E+10	1	-1E+10	1	-1E+10	1	-1E+10	1
4902549	31	C	06/15/2021	19:11	-132.722	47.289	0	627.80	0	4.0810	0	34.1100	0	27.075	0	621.630	0	24.6	4	7.8	4	-1E+10	1	-1E+10	1	-1E+10	1	-1E+10	1	-1E+10	1	-1E+10	1
4902549	31	C	06/15/2021	19:11	-132.722	47.289	0	632.90	0	4.0680	0	34.1140	0	27.079	0	626.672	0	24.2	4	7.6	4	-1E+10	1	-1E+10	1	-1E+10	1	-1E+10	1	-1E+10	1	-1E+10	1
4902549	31	C	06/15/2021	19:11	-132.722	47.289	0	638.00	0	4.0580	0	34.1170	0	27.083	0	631.715	0	23.9	4	7.6	4	-1E+10	1	-1E+10	1	-1E+10	1	-1E+10	1	-1E+10	1	-1E+10	1
4902549	31	C	06/15/2021	19:11	-132.722	47.289	0	643.20	0	4.0500	0	34.1180	0	27.084	0	636.855	0	23.6	4	7.4	4	-1E+10	1	-1E+10	1	-1E+10	1	-1E+10	1	-1E+10	1	-1E+10	1
4902549	31	C	06/15/2021	19:11	-132.722	47.289	0	647.80	0	4.0460	0	34.1200	0	27.086	0	641.403	0	23.2	4	7.3	4	-1E+10	1	-1E+10	1	-1E+10	1	-1E+10	1	-1E+10	1	-1E+10	1
4902549	31	C	06/15/2021	19:11	-132.722	47.289	0	652.60	0	4.0340	0	34.1240	0	27.091	0	646.148	0	22.7	4	7.2	4	-1E+10	1	-1E+10	1	-1E+10	1	-1E+10	1	-1E+10	1	-1E+10	1
4902549	31	C	06/15/2021	19:11	-132.722	47.289	0	657.80	0	4.0160	0	34.1280	0	27.096	0	651.288	0	22.3	4	7.1	4	-1E+10	1	-1E+10	1	-1E+10	1	-1E+10	1	-1E+10	1	-1E+10	1
4902549	31	C	06/15/2021	19:11	-132.722	47.289	0	663.10	0	4.0020	0	34.1320	0	27.100	0	656.528	0	22.0	4	7.0	4	-1E+10	1	-1E+10	1	-1E+10	1	-1E+10	1	-1E+10	1	-1E+10	1
4902549	31	C	06/15/2021	19:11	-132.722	47.289	0	667.80	0	3.9890	0	34.1350	0	27.104	0	661.174	0	21.8	4	6.9	4	-1E+10	1	-1E+10	1	-1E+10	1	-1E+10	1	-1E+10	1	-1E+10	1
4902549	31	C	06/15/2021	19:11	-132.722	47.289	0	672.70	0	3.9720	0	34.1390	0	27.109	0	666.017	0	21.5	4	6.8	4	-1E+10	1	-1E+10	1	-1E+10	1	-1E+10	1	-1E+10	1	-1E+10	1
4902549	31	C	06/15/2021	19:11	-132.722	47.289	0	677.80	0	3.9520	0	34.1430	0	27.114	0	671.058	0	21.2	4	6.7	4	-1E+10	1	-1E+10	1	-1E+10	1	-1E+10	1	-1E+10	1	-1E+10	1
4902549	31	C	06/15/2021	19:11	-132.722	47.289	0	683.00	0	3.9390	0	34.1460	0	27.118	0	676.198	0	20.8	4	6.6	4	-1E+10	1	-1E+10	1	-1E+10	1	-1E+10	1	-1E+10	1	-1E+10	1
4902549	31	C	06/15/2021	19:11	-132.722	47.289	0	687.80	0	3.9320	0	34.1490	0	27.121	0	680.943	0	20.4	4	6.4	4	-1E+10	1	-1E+10	1	-1E+10	1	-1E+10	1	-1E+10	1	-1E+10	1
4902549	31	C	06/15/2021	19:11	-132.722	47.289	0	692.60	0	3.9190	0	34.1520	0	27.125	0	685.687	0	20.1	4	6.3	4	-1E+10	1	-1E+10	1	-1E+10	1	-1E+10	1	-1E+10	1	-1E+10	1
4902549	31	C	06/15/2021	19:11	-132.722	47.289	0	697.70	0	3.9070	0	34.1550	0	27.129	0	690.727	0	19.7	4	6.2	4	-1E+10	1	-1E+10	1	-1E+10	1	-1E+10	1	-1E+10	1	-1E+10	1
4902549	31	C	06/15/2021	19:11	-132.722	47.289	0	702.70	0	3.8970	0	34.1580	0	27.132	0	695.669	0	19.2	4	6.1	4	-1E+10	1	-1E+10	1	-1E+10	1	-1E+10	1	-1E+10	1	-1E+10	1
4902549	31	C	06/15/2021	19:11	-132.722	47.289	0	707.70	0	3.8800	0	34.1630	0	27.138	0	700.611	0	18.7	4	5.9	4	-1E+10	1	-1E+10	1	-1E+10	1	-1E+10	1	-1E+10	1	-1E+10	1
4902549	31	C	06/15/2021	19:11	-132.722	47.289	0	712.80	0	3.8720	0	34.1660	0	27.141	0	705.651	0	18.1	4	5.7	4	-1E+10	1	-1E+10	1	-1E+10	1	-1E+10	1	-1E+10	1	-1E+10	1
4902549	31	C	06/15/2021	19:11	-132.722	47.289	0	717.90	0	3.8630	0	34.1710	0	27.146	0	710.691	0	17.4	4	5.5	4	-1E+10	1	-1E+10	1	-1E+10	1	-1E+10	1	-1E+10	1	-1E+10	1
4902549	31	C	06/15/2021	19:11	-132.722	47.289	0	722.90	0	3.8540	0	34.1750	0	27.150	0	715.632	0	16.8	4	5.3	4	-1E+10	1	-1E+10	1	-1E+10	1	-1E+10	1	-1E+10	1	-1E+10	1
4902549	31	C	06/15/2021	19:11	-132.722	47.289	0	727.90	0	3.8390	0	34.1800	0	27.156	0	720.574	0	16.1	4	5.1	4	-1E+10	1	-1E+10	1	-1E+10	1	-1E+10	1	-1E+10	1	-1E+10	1
4902549	31	C	06/15/2021	19:11	-132.722	47.289	0	733.00	0	3.8220	0	34.1860	0	27.162	0	725.613	0	15.6	4	4.9	4	-1E+10	1	-1E+10	1	-1E+10	1	-1E+10	1	-1E+10	1	-1E+10	1
4902549	31	C	06/15/2021	19:11	-132.722	47.289	0	738.00	0	3.8150	0	34.1890	0	27.165	0	730.554	0	15.2	4	4.8	4	-1E+10	1	-1E+10	1	-1E+10	1	-1E+10	1	-1E+10	1	-1E+10	1
4902549	31	C	06/15/2021	19:11	-132.722	47.289	0	743.00	0	3.8020	0	34.1920	0	27.169	0	735.495	0	14.6	4	4.6	4	-1E+10	1	-1E+10	1	-1E+10	1	-1E+10	1	-1E+10	1	-1E+10	1
4902549	31	C	06/15/2021	19:11	-132.722	47.289	0	748.10	0	3.7830	0	34.1980	0	27.176	0	740.534	0	13.8	4	4.3	4	-1E+10	1	-1E+10	1	-1E+10	1	-1E+10	1	-1E+10	1	-1E+10	1
4902549	31	C	06/15/2021	19:11	-132.722	47.289	0	753.10	0	3.7730	0	34.2040	0	27.181	0	745.475	0	13.0	4	4.1	4	-1E+10	1	-1E+10	1	-1E+10	1	-1E+10	1	-1E+10	1	-1E+10	1
4902549	31	C	06/15/2021	19:11	-132.722	47.289	0	757.80	0	3.7520	0	34.2110	0	27.189	0	750.119	0	12.4	4	3.9	4	-1E+10	1	-1E+10	1	-1E+10	1	-1E+10	1	-1E+10	1	-1E+10	1
4902549	31	C	06/15/2021	19:11	-132.722	47.289	0	762.60	0	3.7350	0	34.2150	0	27.194	0	754.861	0	11.9	4	3.7	4	-1E+10	1	-1E+10	1	-1E+10	1	-1E+10	1	-1E+10	1	-1E+10	1
4902549	31	C	06/15/2021	19:11	-132.722	47.289	0	767.90	0	3.7220	0	34.2210	0	27.200	0	760.098	0	11.6	4	3.6	4	-1E+10	1	-1E+10	1	-1E+10	1	-1E+10	1	-1E+10	1	-1E+10	1
4902549	31	C	06/15/2021	19:11	-132.722	47.289	0	772.90	0	3.7050	0	34.2250	0	27.205	0	765.038	0	11.4	4	3.6	4	-1E+10	1	-1E+10	1	-1E+10	1	-1E+10	1	-1E+10	1	-1E+10	1
4902549	31	C	06/15/2021	19:11	-132.722	47.289	0	777.90	0	3.6870	0	34.2270	0	27.208	0	769.978	0	11.3	4	3.5	4	-1E+10	1	-1E+10	1	-1E+10	1	-1E+10	1	-1E+10	1	-1E+10	1
4902549	31	C	06/15/2021	19:11	-132.722	47.289	0	783.00	0	3.6730	0	34.2300	0	27.212	0	775.017	0	11.1	4	3.5	4	-1E+10	1	-1E+10	1	-1E+10	1	-1E+10	1	-1E+10	1	-1E+10	1
4902549	31	C	06/15/2021	19:11	-132.722	47.289	0	787.70	0	3.6600	0	34.2330	0	27.216	0	779.660	0	11.1	4	3.5	4	-1E+10	1	-1E+10	1	-1E+10	1	-1E+10	1	-1E+10	1	-1E+10	1
4902549	31	C	06/15/2021	19:11	-132.722	47.289	0	792.90	0	3.6480	0	34.2350	0	27.219	0	784.797	0	10.9	4	3.4	4	-1E+10	1	-1E+10	1	-1E+10	1	-1E+10	1	-1E+10	1	-1E+10	1
4902549	31	C	06/15/2021	19:11	-132.722	47.289	0	798.20	0	3.6350	0	34.2380	0	27.222	0	790.033	0	10.7	4	3.4	4	-1E+10	1	-1E+10	1	-1E+10	1	-1E+10	1	-1E+10	1	-1E+10	1
4902549	31	C	06/15/2021	19:11	-132.722	47.289	0	803.10	0	3.6230	0	34.2410	0	27.226	0	794.873	0	10.6	4	3.3	4	-1E+10	1	-1E+10	1	-1E+10	1	-1E+10	1	-1E+10	1	-1E+10	1
4902549	31	C	06/15/2021	19:11	-132.722	47.289	0	808.10	0	3.6140	0	34.2420	0	27.228	0	799.813	0	10.4	4	3.2	4	-1E+10	1	-1E+10	1	-1E+10	1	-1E+10	1	-1E+10	1	-1E+10	1
4902549	31	C	06/15/2021	19:11	-132.722	47.289	0	813.20	0	3.6000	0	34.2470	0	27.233	0	804.851	0	10.0	4	3.1	4	-1E+10	1	-1E+10	1	-1E+10	1	-1E+10	1	-1E+10	1	-1E+10	1
4902549	31	C	06/15/2021	19:11	-132.722	47.289	0	818.30	0	3.5820	0	34.2520	0	27.239	0	809.888	0	10.1	4	3.1	4	-1E+10	1	-1E+10	1	-1E+10	1	-1E+10	1	-1E+10	1	-1E+10	1
4902549	31	C	06/15/2021	19:11	-132.722	47.289	0	823.40	0	3.5700	0	34.2540	0	27.242	0	814.926	0	10.2	4	3.2	4	-1E+10	1	-1E+10	1	-1E+10	1	-1E+10	1	-1E+10	1	-1E+10	1
4902549	31	C	06/15/2021	19:11	-132.722	47.289	0	828.10	0	3.5540	0	34.2570	0	27.246	0	819.568	0	10.3	4	3.2	4	-1E+10	1	-1E+10	1	-1E+10	1	-1E+10	1	-1E+10	1	-1E+10	1
4902549	31	C	06/15/2021	19:11	-132.722	47.289	0	832.90	0	3.5410	0	34.2590	0	27.248	0	824.309	0	10.3	4	3.2	4	-1E+10	1	-1E+10	1	-1E+10	1	-1E+10	1	-1E+10	1	-1E+10	1
4902549	31	C	06/15/2021	19:11	-132.722	47.289	0	837.80	0	3.5320	0	34.2610	0	27.251	0	829.149	0	10.2	4	3.2	4	-1E+10	1	-1E+10	1	-1E+10	1	-1E+10	1	-1E+10	1	-1E+10	1
4902549	31	C	06/15/2021	19:11	-132.722	47.289	0	842.80	0	3.5230	0	34.2630	0	27.253	0	834.088	0	10.1	4	3.1	4	-1E+10	1	-1E+10	1	-1E+10	1	-1E+10	1	-1E+10	1	-1E+10	1
4902549	31	C	06/15/2021	19:11	-132.722	47.289	0	847.70	0	3.5110	0	34.2660	0	27.257	0	838.927	0	10.1	4	3.1	4	-1E+10	1	-1E+10	1	-1E+10	1	-1E+10	1	-1E+10	1	-1E+10	1
4902549	31	C	06/15/2021	19:11	-132.722	47.289	0	852.70	0	3.4950	0	34.2690	0	27.261	0	843.865	0	10.0	4	3.1	4	-1E+10	1	-1E+10	1	-1E+10	1	-1E+10	1	-1E+10	1	-1E+10	1
4902549	31	C	06/15/2021	19:11	-132.722	47.289	0	857.80	0	3.4790	0	34.2720	0	27.265	0	848.902	0	9.8	4	3.1	4	-1E+10	1	-1E+10	1	-1E+10	1	-1E+10	1	-1E+10	1	-1E+10	1
4902549	31	C	06/15/2021	19:11	-132.722	47.289	0	863.00	0	3.4680	0	34.2760	0	27.269	0	854.038	0	9.6	4	3.0	4	-1E+10	1	-1E+10	1	-1E+10	1	-1E+10	1	-1E+10	1	-1E+10	1
4902549	31	C	06/15/2021	19:11	-132.722	47.289	0	868.10	0	3.4620	0	34.2790	0	27.272	0	859.074	0	9.3	4	2.9	4	-1E+10	1	-1E+10	1	-1E+10	1	-1E+10	1	-1E+10	1	-1E+10	1
4902549	31	C	06/15/2021	19:11	-132.722	47.289	0	873.20	0	3.4580	0	34.2830	0	27.276	0	864.111	0	9.1	4	2.9	4	-1E+10	1	-1E+10	1	-1E+10	1	-1E+10	1	-1E+10	1	-1E+10	1
4902549	31	C	06/15/2021	19:11	-132.722	47.289	0	878.00	0	3.4460	0	34.2850	0	27.279	0	868.851	0	9.0	4	2.8	4	-1E+10	1	-1E+10	1	-1E+10	1	-1E+10	1	-1E+10	1	-1E+10	1
4902549	31	C	06/15/2021	19:11	-132.722	47.289	0	882.80	0	3.4430	0	34.2880	0	27.281	0	873.591	0	8.7	4	2.7	4	-1E+10	1	-1E+10	1	-1E+10	1	-1E+10	1	-1E+10	1	-1E+10	1
4902549	31	C	06/15/2021	19:11	-132.722	47.289	0	888.00	0	3.4480	0	34.2910	0	27.283	0	878.725	0	8.4	4	2.6	4	-1E+10	1	-1E+10	1	-1E+10	1	-1E+10	1	-1E+10	1	-1E+10	1
4902549	31	C	06/15/2021	19:11	-132.722	47.289	0	892.90	0	3.4410	0	34.2940	0	27.286	0	883.564	0	8.1	4	2.5	4	-1E+10	1	-1E+10	1	-1E+10	1	-1E+10	1	-1E+10	1	-1E+10	1
4902549	31	C	06/15/2021	19:11	-132.722	47.289	0	897.80	0	3.4310	0	34.3010	0	27.293	0	888.402	0	7.8	4	2.4	4	-1E+10	1	-1E+10	1	-1E+10	1	-1E+10	1	-1E+10	1	-1E+10	1
4902549	31	C	06/15/2021	19:11	-132.722	47.289	0	902.80	0	3.4210	0	34.3050	0	27.297	0	893.339	0	7.7	4	2.4	4	-1E+10	1	-1E+10	1	-1E+10	1	-1E+10	1	-1E+10	1	-1E+10	1
4902549	31	C	06/15/2021	19:11	-132.722	47.289	0	907.90	0	3.4120	0	34.3080	0	27.300	0	898.375	0	7.5	4	2.3	4	-1E+10	1	-1E+10	1	-1E+10	1	-1E+10	1	-1E+10	1	-1E+10	1
4902549	31	C	06/15/2021	19:11	-132.722	47.289	0	913.00	0	3.4010	0	34.3110	0	27.304	0	903.410	0	7.5	4	2.3	4	-1E+10	1	-1E+10	1	-1E+10	1	-1E+10	1	-1E+10	1	-1E+10	1
4902549	31	C	06/15/2021	19:11	-132.722	47.289	0	918.10	0	3.3910	0	34.3140	0	27.307	0	908.446	0	7.5	4	2.3	4	-1E+10	1	-1E+10	1	-1E+10	1	-1E+10	1	-1E+10	1	-1E+10	1
4902549	31	C	06/15/2021	19:11	-132.722	47.289	0	923.20	0	3.3790	0	34.3160	0	27.310	0	913.481	0	7.6	4	2.4	4	-1E+10	1	-1E+10	1	-1E+10	1	-1E+10	1	-1E+10	1	-1E+10	1
4902549	31	C	06/15/2021	19:11	-132.722	47.289	0	928.00	0	3.3680	0	34.3170	0	27.312	0	918.220	0	7.6	4	2.4	4	-1E+10	1	-1E+10	1	-1E+10	1	-1E+10	1	-1E+10	1	-1E+10	1
4902549	31	C	06/15/2021	19:11	-132.722	47.289	0	932.70	0	3.3490	0	34.3180	0	27.314	0	922.860	0	7.7	4	2.4	4	-1E+10	1	-1E+10	1	-1E+10	1	-1E+10	1	-1E+10	1	-1E+10	1
4902549	31	C	06/15/2021	19:11	-132.722	47.289	0	937.80	0	3.3280	0	34.3210	0	27.319	0	927.895	0	7.8	4	2.4	4	-1E+10	1	-1E+10	1	-1E+10	1	-1E+10	1	-1E+10	1	-1E+10	1
4902549	31	C	06/15/2021	19:11	-132.722	47.289	0	943.00	0	3.3150	0	34.3220	0	27.321	0	933.028	0	7.8	4	2.4	4	-1E+10	1	-1E+10	1	-1E+10	1	-1E+10	1	-1E+10	1	-1E+10	1
4902549	31	C	06/15/2021	19:11	-132.722	47.289	0	947.70	0	3.2990	0	34.3220	0	27.322	0	937.668	0	7.8	4	2.4	4	-1E+10	1	-1E+10	1	-1E+10	1	-1E+10	1	-1E+10	1	-1E+10	1
4902549	31	C	06/15/2021	19:11	-132.722	47.289	0	953.00	0	3.2890	0	34.3240	0	27.325	0	942.900	0	7.8	4	2.4	4	-1E+10	1	-1E+10	1	-1E+10	1	-1E+10	1	-1E+10	1	-1E+10	1
4902549	31	C	06/15/2021	19:11	-132.722	47.289	0	958.30	0	3.2830	0	34.3260	0	27.327	0	948.132	0	7.7	4	2.4	4	-1E+10	1	-1E+10	1	-1E+10	1	-1E+10	1	-1E+10	1	-1E+10	1
4902549	31	C	06/15/2021	19:11	-132.722	47.289	0	963.10	0	3.2740	0	34.3300	0	27.331	0	952.870	0	7.6	4	2.4	4	-1E+10	1	-1E+10	1	-1E+10	1	-1E+10	1	-1E+10	1	-1E+10	1
4902549	31	C	06/15/2021	19:11	-132.722	47.289	0	967.90	0	3.2600	0	34.3320	0	27.334	0	957.608	0	7.6	4	2.4	4	-1E+10	1	-1E+10	1	-1E+10	1	-1E+10	1	-1E+10	1	-1E+10	1
4902549	31	C	06/15/2021	19:11	-132.722	47.289	0	972.70	0	3.2500	0	34.3330	0	27.336	0	962.346	0	7.6	4	2.4	4	-1E+10	1	-1E+10	1	-1E+10	1	-1E+10	1	-1E+10	1	-1E+10	1
4902549	31	C	06/15/2021	19:11	-132.722	47.289	0	978.00	0	3.2320	0	34.3380	0	27.342	0	967.577	0	7.6	4	2.3	4	-1E+10	1	-1E+10	1	-1E+10	1	-1E+10	1	-1E+10	1	-1E+10	1
4902549	31	C	06/15/2021	19:11	-132.722	47.289	0	983.30	0	3.2290	0	34.3400	0	27.343	0	972.809	0	7.5	4	2.3	4	-1E+10	1	-1E+10	1	-1E+10	1	-1E+10	1	-1E+10	1	-1E+10	1
4902549	31	C	06/15/2021	19:11	-132.722	47.289	0	988.20	0	3.2200	0	34.3410	0	27.345	0	977.645	0	7.6	4	2.3	4	-1E+10	1	-1E+10	1	-1E+10	1	-1E+10	1	-1E+10	1	-1E+10	1
4902549	31	C	06/15/2021	19:11	-132.722	47.289	0	993.00	0	3.2130	0	34.3420	0	27.347	0	982.382	0	7.6	4	2.3	4	-1E+10	1	-1E+10	1	-1E+10	1	-1E+10	1	-1E+10	1	-1E+10	1
4902549	31	C	06/15/2021	19:11	-132.722	47.289	0	997.90	0	3.1990	0	34.3440	0	27.350	0	987.219	0	7.5	4	2.3	4	-1E+10	1	-1E+10	1	-1E+10	1	-1E+10	1	-1E+10	1	-1E+10	1
4902549	31	C	06/15/2021	19:11	-132.722	47.289	0	1005.20	0	3.1930	0	34.3470	0	27.353	0	994.423	0	7.5	4	2.3	4	-1E+10	1	-1E+10	1	-1E+10	1	-1E+10	1	-1E+10	1	-1E+10	1
4902549	31	C	06/15/2021	19:11	-132.722	47.289	0	1015.10	0	3.1680	0	34.3520	0	27.359	0	1004.193	0	7.5	4	2.3	4	-1E+10	1	-1E+10	1	-1E+10	1	-1E+10	1	-1E+10	1	-1E+10	1
4902549	31	C	06/15/2021	19:11	-132.722	47.289	0	1025.20	0	3.1380	0	34.3570	0	27.366	0	1014.160	0	7.6	4	2.3	4	-1E+10	1	-1E+10	1	-1E+10	1	-1E+10	1	-1E+10	1	-1E+10	1
4902549	31	C	06/15/2021	19:11	-132.722	47.289	0	1035.40	0	3.1100	0	34.3610	0	27.372	0	1024.226	0	7.6	4	2.4	4	-1E+10	1	-1E+10	1	-1E+10	1	-1E+10	1	-1E+10	1	-1E+10	1
4902549	31	C	06/15/2021	19:11	-132.722	47.289	0	1045.40	0	3.0910	0	34.3660	0	27.377	0	1034.093	0	7.6	4	2.3	4	-1E+10	1	-1E+10	1	-1E+10	1	-1E+10	1	-1E+10	1	-1E+10	1
4902549	31	C	06/15/2021	19:11	-132.722	47.289	0	1055.40	0	3.0710	0	34.3700	0	27.382	0	1043.960	0	7.6	4	2.3	4	-1E+10	1	-1E+10	1	-1E+10	1	-1E+10	1	-1E+10	1	-1E+10	1
4902549	31	C	06/15/2021	19:11	-132.722	47.289	0	1065.60	0	3.0530	0	34.3750	0	27.388	0	1054.024	0	7.5	4	2.3	4	-1E+10	1	-1E+10	1	-1E+10	1	-1E+10	1	-1E+10	1	-1E+10	1
4902549	31	C	06/15/2021	19:11	-132.722	47.289	0	1075.40	0	3.0380	0	34.3800	0	27.393	0	1063.693	0	7.5	4	2.3	4	-1E+10	1	-1E+10	1	-1E+10	1	-1E+10	1	-1E+10	1	-1E+10	1
4902549	31	C	06/15/2021	19:11	-132.722	47.289	0	1085.30	0	3.0310	0	34.3820	0	27.396	0	1073.459	0	7.5	4	2.3	4	-1E+10	1	-1E+10	1	-1E+10	1	-1E+10	1	-1E+10	1	-1E+10	1
4902549	31	C	06/15/2021	19:11	-132.722	47.289	0	1095.40	0	3.0120	0	34.3860	0	27.401	0	1083.423	0	7.5	4	2.3	4	-1E+10	1	-1E+10	1	-1E+10	1	-1E+10	1	-1E+10	1	-1E+10	1
4902549	31	C	06/15/2021	19:11	-132.722	47.289	0	1105.10	0	2.9970	0	34.3910	0	27.406	0	1092.992	0	7.5	4	2.3	4	-1E+10	1	-1E+10	1	-1E+10	1	-1E+10	1	-1E+10	1	-1E+10	1
4902549	31	C	06/15/2021	19:11	-132.722	47.289	0	1115.10	0	2.9930	0	34.3960	0	27.411	0	1102.856	0	7.5	4	2.3	4	-1E+10	1	-1E+10	1	-1E+10	1	-1E+10	1	-1E+10	1	-1E+10	1
4902549	31	C	06/15/2021	19:11	-132.722	47.289	0	1125.30	0	2.9770	0	34.4000	0	27.415	0	1112.917	0	7.5	4	2.3	4	-1E+10	1	-1E+10	1	-1E+10	1	-1E+10	1	-1E+10	1	-1E+10	1
4902549	31	C	06/15/2021	19:11	-132.722	47.289	0	1135.50	0	2.9580	0	34.4040	0	27.420	0	1122.978	0	7.6	4	2.3	4	-1E+10	1	-1E+10	1	-1E+10	1	-1E+10	1	-1E+10	1	-1E+10	1
4902549	31	C	06/15/2021	19:11	-132.722	47.289	0	1145.40	0	2.9490	0	34.4070	0	27.423	0	1132.742	0	7.7	4	2.4	4	-1E+10	1	-1E+10	1	-1E+10	1	-1E+10	1	-1E+10	1	-1E+10	1
4902549	31	C	06/15/2021	19:11	-132.722	47.289	0	1155.50	0	2.9360	0	34.4100	0	27.427	0	1142.703	0	7.8	4	2.4	4	-1E+10	1	-1E+10	1	-1E+10	1	-1E+10	1	-1E+10	1	-1E+10	1
4902549	31	C	06/15/2021	19:11	-132.722	47.289	0	1165.70	0	2.9290	0	34.4110	0	27.429	0	1152.762	0	7.8	4	2.4	4	-1E+10	1	-1E+10	1	-1E+10	1	-1E+10	1	-1E+10	1	-1E+10	1
4902549	31	C	06/15/2021	19:11	-132.722	47.289	0	1175.30	0	2.9010	0	34.4150	0	27.434	0	1162.229	0	7.9	4	2.4	4	-1E+10	1	-1E+10	1	-1E+10	1	-1E+10	1	-1E+10	1	-1E+10	1
4902549	31	C	06/15/2021	19:11	-132.722	47.289	0	1185.30	0	2.8770	0	34.4180	0	27.439	0	1172.090	0	8.1	4	2.5	4	-1E+10	1	-1E+10	1	-1E+10	1	-1E+10	1	-1E+10	1	-1E+10	1
4902549	31	C	06/15/2021	19:11	-132.722	47.289	0	1195.80	0	2.8670	0	34.4190	0	27.441	0	1182.443	0	8.2	4	2.5	4	-1E+10	1	-1E+10	1	-1E+10	1	-1E+10	1	-1E+10	1	-1E+10	1
4902549	31	C	06/15/2021	19:11	-132.722	47.289	0	1205.80	0	2.8580	0	34.4220	0	27.444	0	1192.303	0	8.3	4	2.6	4	-1E+10	1	-1E+10	1	-1E+10	1	-1E+10	1	-1E+10	1	-1E+10	1
4902549	31	C	06/15/2021	19:11	-132.722	47.289	0	1215.40	0	2.8490	0	34.4240	0	27.446	0	1201.768	0	8.4	4	2.6	4	-1E+10	1	-1E+10	1	-1E+10	1	-1E+10	1	-1E+10	1	-1E+10	1
4902549	31	C	06/15/2021	19:11	-132.722	47.289	0	1225.60	0	2.8190	0	34.4270	0	27.451	0	1211.824	0	8.5	4	2.6	4	-1E+10	1	-1E+10	1	-1E+10	1	-1E+10	1	-1E+10	1	-1E+10	1
4902549	31	C	06/15/2021	19:11	-132.722	47.289	0	1235.50	0	2.8030	0	34.4290	0	27.454	0	1221.584	0	8.6	4	2.6	4	-1E+10	1	-1E+10	1	-1E+10	1	-1E+10	1	-1E+10	1	-1E+10	1
4902549	31	C	06/15/2021	19:11	-132.722	47.289	0	1245.20	0	2.7810	0	34.4320	0	27.459	0	1231.147	0	8.7	4	2.7	4	-1E+10	1	-1E+10	1	-1E+10	1	-1E+10	1	-1E+10	1	-1E+10	1
4902549	31	C	06/15/2021	19:11	-132.722	47.289	0	1255.30	0	2.7700	0	34.4340	0	27.461	0	1241.103	0	8.9	4	2.7	4	-1E+10	1	-1E+10	1	-1E+10	1	-1E+10	1	-1E+10	1	-1E+10	1
4902549	31	C	06/15/2021	19:11	-132.722	47.289	0	1265.60	0	2.7520	0	34.4380	0	27.466	0	1251.256	0	9.1	4	2.8	4	-1E+10	1	-1E+10	1	-1E+10	1	-1E+10	1	-1E+10	1	-1E+10	1
4902549	31	C	06/15/2021	19:11	-132.722	47.289	0	1275.60	0	2.7400	0	34.4400	0	27.469	0	1261.113	0	9.4	4	2.9	4	-1E+10	1	-1E+10	1	-1E+10	1	-1E+10	1	-1E+10	1	-1E+10	1
4902549	31	C	06/15/2021	19:11	-132.722	47.289	0	1285.20	0	2.7240	0	34.4430	0	27.473	0	1270.575	0	9.6	4	3.0	4	-1E+10	1	-1E+10	1	-1E+10	1	-1E+10	1	-1E+10	1	-1E+10	1
4902549	31	C	06/15/2021	19:11	-132.722	47.289	0	1295.00	0	2.7070	0	34.4460	0	27.477	0	1280.233	0	9.9	4	3.0	4	-1E+10	1	-1E+10	1	-1E+10	1	-1E+10	1	-1E+10	1	-1E+10	1
4902549	31	C	06/15/2021	19:11	-132.722	47.289	0	1305.10	0	2.6930	0	34.4480	0	27.480	0	1290.187	0	10.3	4	3.1	4	-1E+10	1	-1E+10	1	-1E+10	1	-1E+10	1	-1E+10	1	-1E+10	1
4902549	31	C	06/15/2021	19:11	-132.722	47.289	0	1315.10	0	2.6810	0	34.4510	0	27.483	0	1300.042	0	10.9	4	3.4	4	-1E+10	1	-1E+10	1	-1E+10	1	-1E+10	1	-1E+10	1	-1E+10	1
4902549	31	C	06/15/2021	19:11	-132.722	47.289	0	1325.30	0	2.6790	0	34.4560	0	27.487	0	1310.094	0	11.7	4	3.6	4	-1E+10	1	-1E+10	1	-1E+10	1	-1E+10	1	-1E+10	1	-1E+10	1
4902549	31	C	06/15/2021	19:11	-132.722	47.289	0	1335.30	0	2.6690	0	34.4600	0	27.491	0	1319.948	0	11.9	4	3.6	4	-1E+10	1	-1E+10	1	-1E+10	1	-1E+10	1	-1E+10	1	-1E+10	1
4902549	31	C	06/15/2021	19:11	-132.722	47.289	0	1345.10	0	2.6490	0	34.4610	0	27.494	0	1329.604	0	12.2	4	3.7	4	-1E+10	1	-1E+10	1	-1E+10	1	-1E+10	1	-1E+10	1	-1E+10	1
4902549	31	C	06/15/2021	19:11	-132.722	47.289	0	1355.60	0	2.6410	0	34.4640	0	27.497	0	1339.950	0	12.6	4	3.9	4	-1E+10	1	-1E+10	1	-1E+10	1	-1E+10	1	-1E+10	1	-1E+10	1
4902549	31	C	06/15/2021	19:11	-132.722	47.289	0	1365.50	0	2.6400	0	34.4660	0	27.499	0	1349.704	0	13.0	4	4.0	4	-1E+10	1	-1E+10	1	-1E+10	1	-1E+10	1	-1E+10	1	-1E+10	1
4902549	31	C	06/15/2021	19:11	-132.722	47.289	0	1375.60	0	2.6320	0	34.4680	0	27.501	0	1359.654	0	13.3	4	4.1	4	-1E+10	1	-1E+10	1	-1E+10	1	-1E+10	1	-1E+10	1	-1E+10	1
4902549	31	C	06/15/2021	19:11	-132.722	47.289	0	1385.80	0	2.6230	0	34.4700	0	27.504	0	1369.703	0	13.6	4	4.2	4	-1E+10	1	-1E+10	1	-1E+10	1	-1E+10	1	-1E+10	1	-1E+10	1
4902549	31	C	06/15/2021	19:11	-132.722	47.289	0	1395.40	0	2.6120	0	34.4720	0	27.506	0	1379.160	0	14.0	4	4.3	4	-1E+10	1	-1E+10	1	-1E+10	1	-1E+10	1	-1E+10	1	-1E+10	1
4902549	31	C	06/15/2021	19:11	-132.722	47.289	0	1405.50	0	2.5900	0	34.4750	0	27.511	0	1389.109	0	14.4	4	4.4	4	-1E+10	1	-1E+10	1	-1E+10	1	-1E+10	1	-1E+10	1	-1E+10	1
4902549	31	C	06/15/2021	19:11	-132.722	47.289	0	1415.70	0	2.5720	0	34.4770	0	27.514	0	1399.157	0	14.8	4	4.5	4	-1E+10	1	-1E+10	1	-1E+10	1	-1E+10	1	-1E+10	1	-1E+10	1
4902549	31	C	06/15/2021	19:11	-132.722	47.289	0	1425.40	0	2.5560	0	34.4800	0	27.518	0	1408.711	0	15.2	4	4.6	4	-1E+10	1	-1E+10	1	-1E+10	1	-1E+10	1	-1E+10	1	-1E+10	1
4902549	31	C	06/15/2021	19:11	-132.722	47.289	0	1435.80	0	2.5400	0	34.4820	0	27.521	0	1418.954	0	15.6	4	4.8	4	-1E+10	1	-1E+10	1	-1E+10	1	-1E+10	1	-1E+10	1	-1E+10	1
4902549	31	C	06/15/2021	19:11	-132.722	47.289	0	1445.80	0	2.5210	0	34.4840	0	27.524	0	1428.803	0	15.8	4	4.8	4	-1E+10	1	-1E+10	1	-1E+10	1	-1E+10	1	-1E+10	1	-1E+10	1
4902549	31	C	06/15/2021	19:11	-132.722	47.289	0	1455.70	0	2.5080	0	34.4850	0	27.526	0	1438.553	0	16.1	4	4.9	4	-1E+10	1	-1E+10	1	-1E+10	1	-1E+10	1	-1E+10	1	-1E+10	1
4902549	31	C	06/15/2021	19:11	-132.722	47.289	0	1465.60	0	2.4900	0	34.4870	0	27.529	0	1448.302	0	16.5	4	5.0	4	-1E+10	1	-1E+10	1	-1E+10	1	-1E+10	1	-1E+10	1	-1E+10	1
4902549	31	C	06/15/2021	19:11	-132.722	47.289	0	1475.70	0	2.4760	0	34.4880	0	27.531	0	1458.248	0	16.8	4	5.1	4	-1E+10	1	-1E+10	1	-1E+10	1	-1E+10	1	-1E+10	1	-1E+10	1
4902549	31	C	06/15/2021	19:11	-132.722	47.289	0	1485.40	0	2.4660	0	34.4900	0	27.533	0	1467.800	0	17.1	4	5.2	4	-1E+10	1	-1E+10	1	-1E+10	1	-1E+10	1	-1E+10	1	-1E+10	1
4902549	31	C	06/15/2021	19:11	-132.722	47.289	0	1495.20	0	2.4480	0	34.4920	0	27.537	0	1477.450	0	17.6	4	5.4	4	-1E+10	1	-1E+10	1	-1E+10	1	-1E+10	1	-1E+10	1	-1E+10	1
4902549	31	C	06/15/2021	19:11	-132.722	47.289	0	1505.50	0	2.4310	0	34.4940	0	27.540	0	1487.591	0	18.1	4	5.5	4	-1E+10	1	-1E+10	1	-1E+10	1	-1E+10	1	-1E+10	1	-1E+10	1
4902549	31	C	06/15/2021	19:11	-132.722	47.289	0	1515.50	0	2.4130	0	34.4970	0	27.544	0	1497.437	0	18.8	4	5.7	4	-1E+10	1	-1E+10	1	-1E+10	1	-1E+10	1	-1E+10	1	-1E+10	1
4902549	31	C	06/15/2021	19:11	-132.722	47.289	0	1525.50	0	2.3980	0	34.4990	0	27.546	0	1507.282	0	19.3	4	5.9	4	-1E+10	1	-1E+10	1	-1E+10	1	-1E+10	1	-1E+10	1	-1E+10	1
4902549	31	C	06/15/2021	19:11	-132.722	47.289	0	1535.70	0	2.3810	0	34.5020	0	27.550	0	1517.324	0	19.7	4	6.0	4	-1E+10	1	-1E+10	1	-1E+10	1	-1E+10	1	-1E+10	1	-1E+10	1
4902549	31	C	06/15/2021	19:11	-132.722	47.289	0	1545.60	0	2.3680	0	34.5040	0	27.553	0	1527.069	0	20.2	4	6.1	4	-1E+10	1	-1E+10	1	-1E+10	1	-1E+10	1	-1E+10	1	-1E+10	1
4902549	31	C	06/15/2021	19:11	-132.722	47.289	0	1555.20	0	2.3570	0	34.5060	0	27.556	0	1536.519	0	20.8	4	6.3	4	-1E+10	1	-1E+10	1	-1E+10	1	-1E+10	1	-1E+10	1	-1E+10	1
4902549	31	C	06/15/2021	19:11	-132.722	47.289	0	1565.30	0	2.3420	0	34.5080	0	27.559	0	1546.461	0	21.4	4	6.5	4	-1E+10	1	-1E+10	1	-1E+10	1	-1E+10	1	-1E+10	1	-1E+10	1
4902549	31	C	06/15/2021	19:11	-132.722	47.289	0	1575.20	0	2.3290	0	34.5100	0	27.561	0	1556.206	0	21.6	4	6.6	4	-1E+10	1	-1E+10	1	-1E+10	1	-1E+10	1	-1E+10	1	-1E+10	1
4902549	31	C	06/15/2021	19:11	-132.722	47.289	0	1585.30	0	2.3210	0	34.5120	0	27.564	0	1566.147	0	21.9	4	6.7	4	-1E+10	1	-1E+10	1	-1E+10	1	-1E+10	1	-1E+10	1	-1E+10	1
4902549	31	C	06/15/2021	19:11	-132.722	47.289	0	1595.50	0	2.3120	0	34.5130	0	27.565	0	1576.185	0	22.3	4	6.8	4	-1E+10	1	-1E+10	1	-1E+10	1	-1E+10	1	-1E+10	1	-1E+10	1
4902549	31	C	06/15/2021	19:11	-132.722	47.289	0	1605.30	0	2.3050	0	34.5140	0	27.567	0	1585.830	0	23.0	4	7.0	4	-1E+10	1	-1E+10	1	-1E+10	1	-1E+10	1	-1E+10	1	-1E+10	1
4902549	31	C	06/15/2021	19:11	-132.722	47.289	0	1615.20	0	2.2930	0	34.5160	0	27.569	0	1595.573	0	23.7	4	7.2	4	-1E+10	1	-1E+10	1	-1E+10	1	-1E+10	1	-1E+10	1	-1E+10	1
4902549	31	C	06/15/2021	19:11	-132.722	47.289	0	1625.30	0	2.2760	0	34.5190	0	27.573	0	1605.512	0	24.8	4	7.5	4	-1E+10	1	-1E+10	1	-1E+10	1	-1E+10	1	-1E+10	1	-1E+10	1
4902549	31	C	06/15/2021	19:11	-132.722	47.289	0	1635.70	0	2.2650	0	34.5210	0	27.576	0	1615.745	0	25.8	4	7.8	4	-1E+10	1	-1E+10	1	-1E+10	1	-1E+10	1	-1E+10	1	-1E+10	1
4902549	31	C	06/15/2021	19:11	-132.722	47.289	0	1645.90	0	2.2470	0	34.5240	0	27.579	0	1625.782	0	26.6	4	8.1	4	-1E+10	1	-1E+10	1	-1E+10	1	-1E+10	1	-1E+10	1	-1E+10	1
4902549	31	C	06/15/2021	19:11	-132.722	47.289	0	1655.20	0	2.2380	0	34.5260	0	27.582	0	1634.932	0	27.1	4	8.2	4	-1E+10	1	-1E+10	1	-1E+10	1	-1E+10	1	-1E+10	1	-1E+10	1
4902549	31	C	06/15/2021	19:11	-132.722	47.289	0	1665.30	0	2.2260	0	34.5280	0	27.584	0	1644.870	0	27.8	4	8.4	4	-1E+10	1	-1E+10	1	-1E+10	1	-1E+10	1	-1E+10	1	-1E+10	1
4902549	31	C	06/15/2021	19:11	-132.722	47.289	0	1675.50	0	2.2180	0	34.5290	0	27.586	0	1654.905	0	28.5	4	8.6	4	-1E+10	1	-1E+10	1	-1E+10	1	-1E+10	1	-1E+10	1	-1E+10	1
4902549	31	C	06/15/2021	19:11	-132.722	47.289	0	1685.60	0	2.2060	0	34.5320	0	27.589	0	1664.841	0	29.2	4	8.8	4	-1E+10	1	-1E+10	1	-1E+10	1	-1E+10	1	-1E+10	1	-1E+10	1
4902549	31	C	06/15/2021	19:11	-132.722	47.289	0	1695.70	0	2.1980	0	34.5330	0	27.591	0	1674.776	0	29.7	4	9.0	4	-1E+10	1	-1E+10	1	-1E+10	1	-1E+10	1	-1E+10	1	-1E+10	1
4902549	31	C	06/15/2021	19:11	-132.722	47.289	0	1705.50	0	2.1900	0	34.5350	0	27.593	0	1684.417	0	30.4	4	9.2	4	-1E+10	1	-1E+10	1	-1E+10	1	-1E+10	1	-1E+10	1	-1E+10	1
4902549	31	C	06/15/2021	19:11	-132.722	47.289	0	1715.20	0	2.1780	0	34.5370	0	27.596	0	1693.958	0	31.3	4	9.5	4	-1E+10	1	-1E+10	1	-1E+10	1	-1E+10	1	-1E+10	1	-1E+10	1
4902549	31	C	06/15/2021	19:11	-132.722	47.289	0	1725.20	0	2.1630	0	34.5400	0	27.599	0	1703.794	0	32.1	4	9.7	4	-1E+10	1	-1E+10	1	-1E+10	1	-1E+10	1	-1E+10	1	-1E+10	1
4902549	31	C	06/15/2021	19:11	-132.722	47.289	0	1735.30	0	2.1520	0	34.5420	0	27.602	0	1713.728	0	32.8	4	9.9	4	-1E+10	1	-1E+10	1	-1E+10	1	-1E+10	1	-1E+10	1	-1E+10	1
4902549	31	C	06/15/2021	19:11	-132.722	47.289	0	1745.10	0	2.1410	0	34.5440	0	27.604	0	1723.366	0	33.5	4	10.1	4	-1E+10	1	-1E+10	1	-1E+10	1	-1E+10	1	-1E+10	1	-1E+10	1
4902549	31	C	06/15/2021	19:11	-132.722	47.289	0	1755.00	0	2.1310	0	34.5460	0	27.607	0	1733.103	0	34.1	4	10.3	4	-1E+10	1	-1E+10	1	-1E+10	1	-1E+10	1	-1E+10	1	-1E+10	1
4902549	31	C	06/15/2021	19:11	-132.722	47.289	0	1765.20	0	2.1220	0	34.5470	0	27.609	0	1743.134	0	34.5	4	10.4	4	-1E+10	1	-1E+10	1	-1E+10	1	-1E+10	1	-1E+10	1	-1E+10	1
4902549	31	C	06/15/2021	19:11	-132.722	47.289	0	1775.40	0	2.1180	0	34.5490	0	27.610	0	1753.164	0	35.1	4	10.6	4	-1E+10	1	-1E+10	1	-1E+10	1	-1E+10	1	-1E+10	1	-1E+10	1
4902549	31	C	06/15/2021	19:11	-132.722	47.289	0	1785.30	0	2.1090	0	34.5500	0	27.612	0	1762.899	0	35.7	4	10.8	4	-1E+10	1	-1E+10	1	-1E+10	1	-1E+10	1	-1E+10	1	-1E+10	1
4902549	31	C	06/15/2021	19:11	-132.722	47.289	0	1795.10	0	2.1000	0	34.5520	0	27.614	0	1772.535	0	36.3	4	11.0	4	-1E+10	1	-1E+10	1	-1E+10	1	-1E+10	1	-1E+10	1	-1E+10	1
4902549	31	C	06/15/2021	19:11	-132.722	47.289	0	1805.40	0	2.0960	0	34.5530	0	27.616	0	1782.662	0	36.9	4	11.1	4	-1E+10	1	-1E+10	1	-1E+10	1	-1E+10	1	-1E+10	1	-1E+10	1
4902549	31	C	06/15/2021	19:11	-132.722	47.289	0	1815.40	0	2.0830	0	34.5550	0	27.618	0	1792.494	0	37.8	4	11.4	4	-1E+10	1	-1E+10	1	-1E+10	1	-1E+10	1	-1E+10	1	-1E+10	1
4902549	31	C	06/15/2021	19:11	-132.722	47.289	0	1825.10	0	2.0740	0	34.5570	0	27.621	0	1802.031	0	38.3	4	11.6	4	-1E+10	1	-1E+10	1	-1E+10	1	-1E+10	1	-1E+10	1	-1E+10	1
4902549	31	C	06/15/2021	19:11	-132.722	47.289	0	1835.40	0	2.0680	0	34.5580	0	27.622	0	1812.157	0	38.8	4	11.7	4	-1E+10	1	-1E+10	1	-1E+10	1	-1E+10	1	-1E+10	1	-1E+10	1
4902549	31	C	06/15/2021	19:11	-132.722	47.289	0	1845.90	0	2.0600	0	34.5600	0	27.624	0	1822.479	0	39.6	4	12.0	4	-1E+10	1	-1E+10	1	-1E+10	1	-1E+10	1	-1E+10	1	-1E+10	1
4902549	31	C	06/15/2021	19:11	-132.722	47.289	0	1855.40	0	2.0500	0	34.5620	0	27.627	0	1831.817	0	40.3	4	12.2	4	-1E+10	1	-1E+10	1	-1E+10	1	-1E+10	1	-1E+10	1	-1E+10	1
4902549	31	C	06/15/2021	19:11	-132.722	47.289	0	1865.00	0	2.0410	0	34.5640	0	27.629	0	1841.254	0	40.9	4	12.3	4	-1E+10	1	-1E+10	1	-1E+10	1	-1E+10	1	-1E+10	1	-1E+10	1
4902549	31	C	06/15/2021	19:11	-132.722	47.289	0	1875.10	0	2.0360	0	34.5640	0	27.629	0	1851.181	0	41.5	4	12.5	4	-1E+10	1	-1E+10	1	-1E+10	1	-1E+10	1	-1E+10	1	-1E+10	1
4902549	31	C	06/15/2021	19:11	-132.722	47.289	0	1885.40	0	2.0240	0	34.5660	0	27.632	0	1861.305	0	42.5	4	12.8	4	-1E+10	1	-1E+10	1	-1E+10	1	-1E+10	1	-1E+10	1	-1E+10	1
4902549	31	C	06/15/2021	19:11	-132.722	47.289	0	1895.80	0	2.0150	0	34.5690	0	27.635	0	1871.526	0	43.1	4	13.0	4	-1E+10	1	-1E+10	1	-1E+10	1	-1E+10	1	-1E+10	1	-1E+10	1
4902549	31	C	06/15/2021	19:11	-132.722	47.289	0	1905.80	0	2.0090	0	34.5690	0	27.636	0	1881.354	0	43.6	4	13.1	4	-1E+10	1	-1E+10	1	-1E+10	1	-1E+10	1	-1E+10	1	-1E+10	1
4902549	31	C	06/15/2021	19:11	-132.722	47.289	0	1915.90	0	2.0030	0	34.5710	0	27.638	0	1891.280	0	44.3	4	13.4	4	-1E+10	1	-1E+10	1	-1E+10	1	-1E+10	1	-1E+10	1	-1E+10	1
4902549	31	C	06/15/2021	19:11	-132.722	47.289	0	1925.50	0	1.9950	0	34.5720	0	27.639	0	1900.713	0	45.1	4	13.6	4	-1E+10	1	-1E+10	1	-1E+10	1	-1E+10	1	-1E+10	1	-1E+10	1
4902549	31	C	06/15/2021	19:11	-132.722	47.289	0	1935.50	0	1.9840	0	34.5750	0	27.643	0	1910.540	0	45.8	4	13.8	4	-1E+10	1	-1E+10	1	-1E+10	1	-1E+10	1	-1E+10	1	-1E+10	1
4902549	31	C	06/15/2021	19:11	-132.722	47.289	0	1945.50	0	1.9770	0	34.5760	0	27.644	0	1920.366	0	46.3	4	13.9	4	-1E+10	1	-1E+10	1	-1E+10	1	-1E+10	1	-1E+10	1	-1E+10	1
4902549	31	C	06/15/2021	19:11	-132.722	47.289	0	1955.40	0	1.9730	0	34.5770	0	27.645	0	1930.093	0	46.7	4	14.1	4	-1E+10	1	-1E+10	1	-1E+10	1	-1E+10	1	-1E+10	1	-1E+10	1
4902549	31	C	06/15/2021	19:11	-132.722	47.289	0	1965.30	0	1.9660	0	34.5780	0	27.647	0	1939.820	0	47.2	4	14.2	4	-1E+10	1	-1E+10	1	-1E+10	1	-1E+10	1	-1E+10	1	-1E+10	1
4902549	31	C	06/15/2021	19:11	-132.722	47.289	0	1975.30	0	1.9610	0	34.5790	0	27.648	0	1949.645	0	47.6	4	14.3	4	-1E+10	1	-1E+10	1	-1E+10	1	-1E+10	1	-1E+10	1	-1E+10	1
4902549	31	C	06/15/2021	19:11	-132.722	47.289	0	1985.10	0	1.9580	0	34.5800	0	27.649	0	1959.272	0	47.8	4	14.4	4	-1E+10	1	-1E+10	1	-1E+10	1	-1E+10	1	-1E+10	1	-1E+10	1
4902549	31	C	06/15/2021	19:11	-132.722	47.289	0	1995.40	0	1.9530	0	34.5810	0	27.650	0	1969.391	0	48.1	4	14.5	4	-1E+10	1	-1E+10	1	-1E+10	1	-1E+10	1	-1E+10	1	-1E+10	1
4902549	31	C	06/15/2021	19:11	-132.722	47.289	0	2005.40	0	1.9500	0	34.5810	0	27.650	0	1979.214	0	48.2	4	14.5	4	-1E+10	1	-1E+10	1	-1E+10	1	-1E+10	1	-1E+10	1	-1E+10	1
4902549	31	C	06/15/2021	19:11	-132.722	47.289	0	2014.50	0	1.9480	0	34.5820	0	27.652	0	1988.153	0	48.1	4	14.5	4	-1E+10	1	-1E+10	1	-1E+10	1	-1E+10	1	-1E+10	1	-1E+10	1
4902549	31	C	06/15/2021	19:11	-132.722	47.289	0																										
4902549	32	C	06/25/2021	23:57	-132.598	47.318	0	0.30	0	14.0970	8	32.2210	8	24.021	0	0.298	0	257.8	4	100.2	4	-1E+10	1	-1E+10	1	-1E+10	1	-1E+10	1	-1E+10	1	-1E+10	1
4902549	32	C	06/25/2021	23:57	-132.598	47.318	0	1.10	0	14.0970	8	32.1190	8	23.942	0	1.091	0	257.9	4	100.2	4	-1E+10	1	-1E+10	1	-1E+10	1	-1E+10	1	-1E+10	1	-1E+10	1
4902549	32	C	06/25/2021	23:57	-132.598	47.318	0	2.10	0	14.0820	8	32.0600	8	23.900	0	2.082	0	258.1	4	100.2	4	-1E+10	1	-1E+10	1	-1E+10	1	-1E+10	1	-1E+10	1	-1E+10	1
4902549	32	C	06/25/2021	23:57	-132.598	47.318	0	3.10	0	14.0620	8	31.9850	8	23.846	0	3.074	0	258.3	4	100.2	4	-1E+10	1	-1E+10	1	-1E+10	1	-1E+10	1	-1E+10	1	-1E+10	1
4902549	32	C	06/25/2021	23:57	-132.598	47.318	0	4.00	0	13.9510	8	32.0660	8	23.932	0	3.967	0	258.2	4	100.0	4	-1E+10	1	-1E+10	1	-1E+10	1	-1E+10	1	-1E+10	1	-1E+10	1
4902549	32	C	06/25/2021	23:57	-132.598	47.318	0	5.00	0	13.6310	0	32.3030	0	24.180	0	4.958	0	259.1	4	99.9	4	-1E+10	1	-1E+10	1	-1E+10	1	-1E+10	1	-1E+10	1	-1E+10	1
4902549	32	C	06/25/2021	23:57	-132.598	47.318	0	6.10	0	13.4430	0	32.3140	0	24.226	0	6.049	0	260.0	4	99.8	4	-1E+10	1	-1E+10	1	-1E+10	1	-1E+10	1	-1E+10	1	-1E+10	1
4902549	32	C	06/25/2021	23:57	-132.598	47.318	0	7.10	0	13.2920	0	32.3070	0	24.251	0	7.041	0	260.8	4	99.8	4	-1E+10	1	-1E+10	1	-1E+10	1	-1E+10	1	-1E+10	1	-1E+10	1
4902549	32	C	06/25/2021	23:57	-132.598	47.318	0	8.20	0	13.1170	0	32.3170	0	24.293	0	8.132	0	261.9	4	99.9	4	-1E+10	1	-1E+10	1	-1E+10	1	-1E+10	1	-1E+10	1	-1E+10	1
4902549	32	C	06/25/2021	23:57	-132.598	47.318	0	9.20	0	12.9950	0	32.3070	0	24.309	0	9.123	0	262.7	4	99.9	4	-1E+10	1	-1E+10	1	-1E+10	1	-1E+10	1	-1E+10	1	-1E+10	1
4902549	32	C	06/25/2021	23:57	-132.598	47.318	0	9.90	0	12.9840	0	32.3060	0	24.311	0	9.817	0	262.8	4	100.0	4	-1E+10	1	-1E+10	1	-1E+10	1	-1E+10	1	-1E+10	1	-1E+10	1
4902549	32	C	06/25/2021	23:57	-132.598	47.318	0	10.90	0	12.9590	0	32.3050	0	24.315	0	10.809	0	262.9	4	99.9	4	-1E+10	1	-1E+10	1	-1E+10	1	-1E+10	1	-1E+10	1	-1E+10	1
4902549	32	C	06/25/2021	23:57	-132.598	47.318	0	11.90	0	12.9350	0	32.3030	0	24.318	0	11.801	0	263.1	4	100.0	4	-1E+10	1	-1E+10	1	-1E+10	1	-1E+10	1	-1E+10	1	-1E+10	1
4902549	32	C	06/25/2021	23:57	-132.598	47.318	0	12.90	0	12.9340	0	32.3040	0	24.319	0	12.792	0	263.3	4	100.0	4	-1E+10	1	-1E+10	1	-1E+10	1	-1E+10	1	-1E+10	1	-1E+10	1
4902549	32	C	06/25/2021	23:57	-132.598	47.318	0	13.90	0	12.9270	0	32.3060	0	24.322	0	13.784	0	263.6	4	100.1	4	-1E+10	1	-1E+10	1	-1E+10	1	-1E+10	1	-1E+10	1	-1E+10	1
4902549	32	C	06/25/2021	23:57	-132.598	47.318	0	15.10	0	12.9170	0	32.3050	0	24.323	0	14.974	0	264.0	4	100.3	4	-1E+10	1	-1E+10	1	-1E+10	1	-1E+10	1	-1E+10	1	-1E+10	1
4902549	32	C	06/25/2021	23:57	-132.598	47.318	0	16.00	0	12.9070	0	32.3040	0	24.324	0	15.866	0	264.4	4	100.4	4	-1E+10	1	-1E+10	1	-1E+10	1	-1E+10	1	-1E+10	1	-1E+10	1
4902549	32	C	06/25/2021	23:57	-132.598	47.318	0	16.70	0	12.8670	0	32.3050	0	24.333	0	16.560	0	264.9	4	100.5	4	-1E+10	1	-1E+10	1	-1E+10	1	-1E+10	1	-1E+10	1	-1E+10	1
4902549	32	C	06/25/2021	23:57	-132.598	47.318	0	18.10	0	12.7360	0	32.3010	0	24.355	0	17.948	0	266.0	4	100.7	4	-1E+10	1	-1E+10	1	-1E+10	1	-1E+10	1	-1E+10	1	-1E+10	1
4902549	32	C	06/25/2021	23:57	-132.598	47.318	0	19.10	0	12.4780	0	32.3040	0	24.407	0	18.940	0	267.4	4	100.6	4	-1E+10	1	-1E+10	1	-1E+10	1	-1E+10	1	-1E+10	1	-1E+10	1
4902549	32	C	06/25/2021	23:57	-132.598	47.318	0	20.30	0	12.4080	0	32.3030	0	24.420	0	20.130	0	267.7	4	100.6	4	-1E+10	1	-1E+10	1	-1E+10	1	-1E+10	1	-1E+10	1	-1E+10	1
4902549	32	C	06/25/2021	23:57	-132.598	47.318	0	21.10	0	12.3710	0	32.2990	0	24.423	0	20.923	0	267.7	4	100.5	4	-1E+10	1	-1E+10	1	-1E+10	1	-1E+10	1	-1E+10	1	-1E+10	1
4902549	32	C	06/25/2021	23:57	-132.598	47.318	0	21.90	0	12.2500	0	32.3080	0	24.453	0	21.716	0	268.0	4	100.4	4	-1E+10	1	-1E+10	1	-1E+10	1	-1E+10	1	-1E+10	1	-1E+10	1
4902549	32	C	06/25/2021	23:57	-132.598	47.318	0	22.80	0	11.9530	0	32.3160	0	24.515	0	22.609	0	269.5	4	100.4	4	-1E+10	1	-1E+10	1	-1E+10	1	-1E+10	1	-1E+10	1	-1E+10	1
4902549	32	C	06/25/2021	23:57	-132.598	47.318	0	24.00	0	11.7680	0	32.3190	0	24.551	0	23.799	0	270.4	4	100.3	4	-1E+10	1	-1E+10	1	-1E+10	1	-1E+10	1	-1E+10	1	-1E+10	1
4902549	32	C	06/25/2021	23:57	-132.598	47.318	0	24.90	0	11.6890	0	32.3230	0	24.569	0	24.691	0	270.8	4	100.3	4	-1E+10	1	-1E+10	1	-1E+10	1	-1E+10	1	-1E+10	1	-1E+10	1
4902549	32	C	06/25/2021	23:57	-132.598	47.318	0	25.80	0	11.5480	0	32.3300	0	24.600	0	25.584	0	271.0	4	100.1	4	-1E+10	1	-1E+10	1	-1E+10	1	-1E+10	1	-1E+10	1	-1E+10	1
4902549	32	C	06/25/2021	23:57	-132.598	47.318	0	27.10	0	11.4290	0	32.3330	0	24.624	0	26.873	0	271.3	4	99.9	4	-1E+10	1	-1E+10	1	-1E+10	1	-1E+10	1	-1E+10	1	-1E+10	1
4902549	32	C	06/25/2021	23:57	-132.598	47.318	0	28.00	0	11.3980	0	32.3350	0	24.631	0	27.765	0	270.9	4	99.7	4	-1E+10	1	-1E+10	1	-1E+10	1	-1E+10	1	-1E+10	1	-1E+10	1
4902549	32	C	06/25/2021	23:57	-132.598	47.318	0	29.00	0	11.3640	0	32.3340	0	24.637	0	28.756	0	270.6	4	99.5	4	-1E+10	1	-1E+10	1	-1E+10	1	-1E+10	1	-1E+10	1	-1E+10	1
4902549	32	C	06/25/2021	23:57	-132.598	47.318	0	29.90	0	11.3390	0	32.3350	0	24.642	0	29.649	0	270.5	4	99.5	4	-1E+10	1	-1E+10	1	-1E+10	1	-1E+10	1	-1E+10	1	-1E+10	1
4902549	32	C	06/25/2021	23:57	-132.598	47.318	0	30.80	0	11.3220	0	32.3350	0	24.645	0	30.541	0	270.3	4	99.3	4	-1E+10	1	-1E+10	1	-1E+10	1	-1E+10	1	-1E+10	1	-1E+10	1
4902549	32	C	06/25/2021	23:57	-132.598	47.318	0	32.00	0	11.2890	0	32.3360	0	24.652	0	31.731	0	270.0	4	99.2	4	-1E+10	1	-1E+10	1	-1E+10	1	-1E+10	1	-1E+10	1	-1E+10	1
4902549	32	C	06/25/2021	23:57	-132.598	47.318	0	33.10	0	11.2710	0	32.3330	0	24.653	0	32.822	0	269.6	4	99.0	4	-1E+10	1	-1E+10	1	-1E+10	1	-1E+10	1	-1E+10	1	-1E+10	1
4902549	32	C	06/25/2021	23:57	-132.598	47.318	0	34.00	0	11.2020	0	32.3320	0	24.664	0	33.714	0	269.7	4	98.9	4	-1E+10	1	-1E+10	1	-1E+10	1	-1E+10	1	-1E+10	1	-1E+10	1
4902549	32	C	06/25/2021	23:57	-132.598	47.318	0	34.80	0	11.0720	0	32.3430	0	24.696	0	34.507	0	270.1	4	98.7	4	-1E+10	1	-1E+10	1	-1E+10	1	-1E+10	1	-1E+10	1	-1E+10	1
4902549	32	C	06/25/2021	23:57	-132.598	47.318	0	35.90	0	10.9700	0	32.3470	0	24.717	0	35.598	0	270.4	4	98.6	4	-1E+10	1	-1E+10	1	-1E+10	1	-1E+10	1	-1E+10	1	-1E+10	1
4902549	32	C	06/25/2021	23:57	-132.598	47.318	0	36.90	0	10.8590	0	32.3440	0	24.734	0	36.589	0	271.0	4	98.6	4	-1E+10	1	-1E+10	1	-1E+10	1	-1E+10	1	-1E+10	1	-1E+10	1
4902549	32	C	06/25/2021	23:57	-132.598	47.318	0	38.00	0	10.7290	0	32.3490	0	24.760	0	37.680	0	271.6	4	98.6	4	-1E+10	1	-1E+10	1	-1E+10	1	-1E+10	1	-1E+10	1	-1E+10	1
4902549	32	C	06/25/2021	23:57	-132.598	47.318	0	39.10	0	10.6560	0	32.3470	0	24.771	0	38.771	0	271.8	4	98.5	4	-1E+10	1	-1E+10	1	-1E+10	1	-1E+10	1	-1E+10	1	-1E+10	1
4902549	32	C	06/25/2021	23:57	-132.598	47.318	0	39.90	0	10.5470	0	32.3560	0	24.797	0	39.564	0	272.3	4	98.4	4	-1E+10	1	-1E+10	1	-1E+10	1	-1E+10	1	-1E+10	1	-1E+10	1
4902549	32	C	06/25/2021	23:57	-132.598	47.318	0	40.80	0	10.3430	0	32.3550	0	24.831	0	40.456	0	273.3	4	98.4	4	-1E+10	1	-1E+10	1	-1E+10	1	-1E+10	1	-1E+10	1	-1E+10	1
4902549	32	C	06/25/2021	23:57	-132.598	47.318	0	41.80	0	10.2170	0	32.3650	0	24.860	0	41.448	0	273.6	4	98.2	4	-1E+10	1	-1E+10	1	-1E+10	1	-1E+10	1	-1E+10	1	-1E+10	1
4902549	32	C	06/25/2021	23:57	-132.598	47.318	0	43.00	0	10.0700	0	32.3650	0	24.885	0	42.637	0	273.7	4	98.0	4	-1E+10	1	-1E+10	1	-1E+10	1	-1E+10	1	-1E+10	1	-1E+10	1
4902549	32	C	06/25/2021	23:57	-132.598	47.318	0	44.20	0	9.9110	0	32.3720	0	24.916	0	43.827	0	274.0	4	97.7	4	-1E+10	1	-1E+10	1	-1E+10	1	-1E+10	1	-1E+10	1	-1E+10	1
4902549	32	C	06/25/2021	23:57	-132.598	47.318	0	45.10	0	9.8090	0	32.3750	0	24.935	0	44.719	0	274.2	4	97.6	4	-1E+10	1	-1E+10	1	-1E+10	1	-1E+10	1	-1E+10	1	-1E+10	1
4902549	32	C	06/25/2021	23:57	-132.598	47.318	0	45.80	0	9.6810	0	32.3740	0	24.956	0	45.413	0	274.7	4	97.5	4	-1E+10	1	-1E+10	1	-1E+10	1	-1E+10	1	-1E+10	1	-1E+10	1
4902549	32	C	06/25/2021	23:57	-132.598	47.318	0	46.90	0	9.4560	0	32.4000	0	25.012	0	46.504	0	275.3	4	97.2	4	-1E+10	1	-1E+10	1	-1E+10	1	-1E+10	1	-1E+10	1	-1E+10	1
4902549	32	C	06/25/2021	23:57	-132.598	47.318	0	48.00	0	9.3220	0	32.3910	0	25.026	0	47.595	0	275.4	4	97.0	4	-1E+10	1	-1E+10	1	-1E+10	1	-1E+10	1	-1E+10	1	-1E+10	1
4902549	32	C	06/25/2021	23:57	-132.598	47.318	0	48.90	0	9.2350	0	32.3930	0	25.042	0	48.487	0	275.6	4	96.9	4	-1E+10	1	-1E+10	1	-1E+10	1	-1E+10	1	-1E+10	1	-1E+10	1
4902549	32	C	06/25/2021	23:57	-132.598	47.318	0	49.80	0	9.2150	0	32.3940	0	25.046	0	49.379	0	275.3	4	96.7	4	-1E+10	1	-1E+10	1	-1E+10	1	-1E+10	1	-1E+10	1	-1E+10	1
4902549	32	C	06/25/2021	23:57	-132.598	47.318	0	51.00	0	9.1590	0	32.3960	0	25.056	0	50.569	0	275.0	4	96.5	4	-1E+10	1	-1E+10	1	-1E+10	1	-1E+10	1	-1E+10	1	-1E+10	1
4902549	32	C	06/25/2021	23:57	-132.598	47.318	0	52.00	0	9.1380	0	32.3950	0	25.059	0	51.560	0	274.6	4	96.3	4	-1E+10	1	-1E+10	1	-1E+10	1	-1E+10	1	-1E+10	1	-1E+10	1
4902549	32	C	06/25/2021	23:57	-132.598	47.318	0	52.90	0	9.0640	0	32.3990	0	25.073	0	52.453	0	274.4	4	96.1	4	-1E+10	1	-1E+10	1	-1E+10	1	-1E+10	1	-1E+10	1	-1E+10	1
4902549	32	C	06/25/2021	23:57	-132.598	47.318	0	53.90	0	8.9410	0	32.4040	0	25.096	0	53.444	0	274.4	4	95.8	4	-1E+10	1	-1E+10	1	-1E+10	1	-1E+10	1	-1E+10	1	-1E+10	1
4902549	32	C	06/25/2021	23:57	-132.598	47.318	0	54.80	0	8.8850	0	32.4090	0	25.109	0	54.336	0	274.2	4	95.6	4	-1E+10	1	-1E+10	1	-1E+10	1	-1E+10	1	-1E+10	1	-1E+10	1
4902549	32	C	06/25/2021	23:57	-132.598	47.318	0	56.00	0	8.8460	0	32.4060	0	25.112	0	55.526	0	273.6	4	95.3	4	-1E+10	1	-1E+10	1	-1E+10	1	-1E+10	1	-1E+10	1	-1E+10	1
4902549	32	C	06/25/2021	23:57	-132.598	47.318	0	57.00	0	8.8120	0	32.4080	0	25.119	0	56.517	0	272.9	4	95.0	4	-1E+10	1	-1E+10	1	-1E+10	1	-1E+10	1	-1E+10	1	-1E+10	1
4902549	32	C	06/25/2021	23:57	-132.598	47.318	0	57.90	0	8.7280	0	32.4130	0	25.136	0	57.410	0	272.8	4	94.8	4	-1E+10	1	-1E+10	1	-1E+10	1	-1E+10	1	-1E+10	1	-1E+10	1
4902549	32	C	06/25/2021	23:57	-132.598	47.318	0	58.90	0	8.6100	0	32.4160	0	25.156	0	58.401	0	273.1	4	94.7	4	-1E+10	1	-1E+10	1	-1E+10	1	-1E+10	1	-1E+10	1	-1E+10	1
4902549	32	C	06/25/2021	23:57	-132.598	47.318	0	59.90	0	8.5940	0	32.4140	0	25.157	0	59.392	0	272.6	4	94.5	4	-1E+10	1	-1E+10	1	-1E+10	1	-1E+10	1	-1E+10	1	-1E+10	1
4902549	32	C	06/25/2021	23:57	-132.598	47.318	0	60.90	0	8.5620	0	32.4170	0	25.164	0	60.384	0	272.2	4	94.3	4	-1E+10	1	-1E+10	1	-1E+10	1	-1E+10	1	-1E+10	1	-1E+10	1
4902549	32	C	06/25/2021	23:57	-132.598	47.318	0	61.90	0	8.4630	0	32.4190	0	25.181	0	61.375	0	272.2	4	94.1	4	-1E+10	1	-1E+10	1	-1E+10	1	-1E+10	1	-1E+10	1	-1E+10	1
4902549	32	C	06/25/2021	23:57	-132.598	47.318	0	62.90	0	8.3800	0	32.4180	0	25.192	0	62.367	0	272.2	4	93.9	4	-1E+10	1	-1E+10	1	-1E+10	1	-1E+10	1	-1E+10	1	-1E+10	1
4902549	32	C	06/25/2021	23:57	-132.598	47.318	0	63.90	0	8.3430	0	32.4170	0	25.197	0	63.358	0	272.0	4	93.7	4	-1E+10	1	-1E+10	1	-1E+10	1	-1E+10	1	-1E+10	1	-1E+10	1
4902549	32	C	06/25/2021	23:57	-132.598	47.318	0	64.90	0	8.2680	0	32.4180	0	25.209	0	64.349	0	272.0	4	93.6	4	-1E+10	1	-1E+10	1	-1E+10	1	-1E+10	1	-1E+10	1	-1E+10	1
4902549	32	C	06/25/2021	23:57	-132.598	47.318	0	65.90	0	8.2280	0	32.4170	0	25.214	0	65.341	0	272.0	4	93.5	4	-1E+10	1	-1E+10	1	-1E+10	1	-1E+10	1	-1E+10	1	-1E+10	1
4902549	32	C	06/25/2021	23:57	-132.598	47.318	0	66.90	0	8.2130	0	32.4160	0	25.215	0	66.332	0	271.8	4	93.4	4	-1E+10	1	-1E+10	1	-1E+10	1	-1E+10	1	-1E+10	1	-1E+10	1
4902549	32	C	06/25/2021	23:57	-132.598	47.318	0	67.90	0	8.1920	0	32.4170	0	25.219	0	67.323	0	271.6	4	93.3	4	-1E+10	1	-1E+10	1	-1E+10	1	-1E+10	1	-1E+10	1	-1E+10	1
4902549	32	C	06/25/2021	23:57	-132.598	47.318	0	68.90	0	8.1820	0	32.4170	0	25.221	0	68.315	0	271.3	4	93.2	4	-1E+10	1	-1E+10	1	-1E+10	1	-1E+10	1	-1E+10	1	-1E+10	1
4902549	32	C	06/25/2021	23:57	-132.598	47.318	0	69.80	0	8.1680	0	32.4160	0	25.222	0	69.207	0	271.0	4	93.0	4	-1E+10	1	-1E+10	1	-1E+10	1	-1E+10	1	-1E+10	1	-1E+10	1
4902549	32	C	06/25/2021	23:57	-132.598	47.318	0	71.00	0	8.1300	0	32.4150	0	25.227	0	70.397	0	270.7	4	92.9	4	-1E+10	1	-1E+10	1	-1E+10	1	-1E+10	1	-1E+10	1	-1E+10	1
4902549	32	C	06/25/2021	23:57	-132.598	47.318	0	71.90	0	8.0880	0	32.4130	0	25.231	0	71.289	0	270.6	4	92.7	4	-1E+10	1	-1E+10	1	-1E+10	1	-1E+10	1	-1E+10	1	-1E+10	1
4902549	32	C	06/25/2021	23:57	-132.598	47.318	0	72.90	0	8.0550	0	32.4160	0	25.238	0	72.280	0	270.3	4	92.6	4	-1E+10	1	-1E+10	1	-1E+10	1	-1E+10	1	-1E+10	1	-1E+10	1
4902549	32	C	06/25/2021	23:57	-132.598	47.318	0	74.00	0	8.0470	0	32.4180	0	25.241	0	73.370	0	269.7	4	92.3	4	-1E+10	1	-1E+10	1	-1E+10	1	-1E+10	1	-1E+10	1	-1E+10	1
4902549	32	C	06/25/2021	23:57	-132.598	47.318	0	75.00	0	8.0270	0	32.4190	0	25.245	0	74.362	0	269.0	4	92.1	4	-1E+10	1	-1E+10	1	-1E+10	1	-1E+10	1	-1E+10	1	-1E+10	1
4902549	32	C	06/25/2021	23:57	-132.598	47.318	0	76.10	0	8.0130	0	32.4240	0	25.251	0	75.452	0	268.4	4	91.8	4	-1E+10	1	-1E+10	1	-1E+10	1	-1E+10	1	-1E+10	1	-1E+10	1
4902549	32	C	06/25/2021	23:57	-132.598	47.318	0	76.90	0	8.0070	0	32.4250	0	25.252	0	76.245	0	267.9	4	91.7	4	-1E+10	1	-1E+10	1	-1E+10	1	-1E+10	1	-1E+10	1	-1E+10	1
4902549	32	C	06/25/2021	23:57	-132.598	47.318	0	77.80	0	7.9800	0	32.4260	0	25.257	0	77.137	0	267.5	4	91.4	4	-1E+10	1	-1E+10	1	-1E+10	1	-1E+10	1	-1E+10	1	-1E+10	1
4902549	32	C	06/25/2021	23:57	-132.598	47.318	0	78.80	0	7.9270	0	32.4300	0	25.268	0	78.129	0	267.2	4	91.2	4	-1E+10	1	-1E+10	1	-1E+10	1	-1E+10	1	-1E+10	1	-1E+10	1
4902549	32	C	06/25/2021	23:57	-132.598	47.318	0	79.80	0	7.9120	0	32.4320	0	25.272	0	79.120	0	266.7	4	91.0	4	-1E+10	1	-1E+10	1	-1E+10	1	-1E+10	1	-1E+10	1	-1E+10	1
4902549	32	C	06/25/2021	23:57	-132.598	47.318	0	80.90	0	7.8930	0	32.4330	0	25.275	0	80.210	0	266.1	4	90.8	4	-1E+10	1	-1E+10	1	-1E+10	1	-1E+10	1	-1E+10	1	-1E+10	1
4902549	32	C	06/25/2021	23:57	-132.598	47.318	0	82.20	0	7.8800	0	32.4340	0	25.278	0	81.499	0	265.5	4	90.6	4	-1E+10	1	-1E+10	1	-1E+10	1	-1E+10	1	-1E+10	1	-1E+10	1
4902549	32	C	06/25/2021	23:57	-132.598	47.318	0	82.80	0	7.8560	0	32.4350	0	25.282	0	82.094	0	265.0	4	90.4	4	-1E+10	1	-1E+10	1	-1E+10	1	-1E+10	1	-1E+10	1	-1E+10	1
4902549	32	C	06/25/2021	23:57	-132.598	47.318	0	84.00	0	7.8200	0	32.4460	0	25.296	0	83.283	0	264.7	4	90.2	4	-1E+10	1	-1E+10	1	-1E+10	1	-1E+10	1	-1E+10	1	-1E+10	1
4902549	32	C	06/25/2021	23:57	-132.598	47.318	0	84.70	0	7.8060	0	32.4500	0	25.301	0	83.977	0	264.6	4	90.1	4	-1E+10	1	-1E+10	1	-1E+10	1	-1E+10	1	-1E+10	1	-1E+10	1
4902549	32	C	06/25/2021	23:57	-132.598	47.318	0	85.70	0	7.7960	0	32.4530	0	25.305	0	84.969	0	264.3	4	90.0	4	-1E+10	1	-1E+10	1	-1E+10	1	-1E+10	1	-1E+10	1	-1E+10	1
4902549	32	C	06/25/2021	23:57	-132.598	47.318	0	86.70	0	7.7920	0	32.4570	0	25.308	0	85.960	0	264.1	4	89.9	4	-1E+10	1	-1E+10	1	-1E+10	1	-1E+10	1	-1E+10	1	-1E+10	1
4902549	32	C	06/25/2021	23:57	-132.598	47.318	0	87.80	0	7.7890	0	32.4580	0	25.310	0	87.050	0	263.8	4	89.8	4	-1E+10	1	-1E+10	1	-1E+10	1	-1E+10	1	-1E+10	1	-1E+10	1
4902549	32	C	06/25/2021	23:57	-132.598	47.318	0	88.80	0	7.7760	0	32.4630	0	25.315	0	88.041	0	263.7	4	89.8	4	-1E+10	1	-1E+10	1	-1E+10	1	-1E+10	1	-1E+10	1	-1E+10	1
4902549	32	C	06/25/2021	23:57	-132.598	47.318	0	89.80	0	7.7570	0	32.4650	0	25.320	0	89.033	0	263.7	4	89.7	4	-1E+10	1	-1E+10	1	-1E+10	1	-1E+10	1	-1E+10	1	-1E+10	1
4902549	32	C	06/25/2021	23:57	-132.598	47.318	0	90.80	0	7.6980	0	32.4650	0	25.328	0	90.024	0	263.0	4	89.4	4	-1E+10	1	-1E+10	1	-1E+10	1	-1E+10	1	-1E+10	1	-1E+10	1
4902549	32	C	06/25/2021	23:57	-132.598	47.318	0	91.80	0	7.6300	0	32.4560	0	25.331	0	91.015	0	261.6	4	88.8	4	-1E+10	1	-1E+10	1	-1E+10	1	-1E+10	1	-1E+10	1	-1E+10	1
4902549	32	C	06/25/2021	23:57	-132.598	47.318	0	93.00	0	7.6300	0	32.4570	0	25.331	0	92.205	0	259.0	4	87.9	4	-1E+10	1	-1E+10	1	-1E+10	1	-1E+10	1	-1E+10	1	-1E+10	1
4902549	32	C	06/25/2021	23:57	-132.598	47.318	0	94.10	0	7.6660	0	32.4730	0	25.339	0	93.295	0	255.6	4	86.8	4	-1E+10	1	-1E+10	1	-1E+10	1	-1E+10	1	-1E+10	1	-1E+10	1
4902549	32	C	06/25/2021	23:57	-132.598	47.318	0	95.00	0	7.6990	0	32.4990	0	25.355	0	94.187	0	253.4	4	86.2	4	-1E+10	1	-1E+10	1	-1E+10	1	-1E+10	1	-1E+10	1	-1E+10	1
4902549	32	C	06/25/2021	23:57	-132.598	47.318	0	96.00	0	7.7520	0	32.5320	0	25.373	0	95.178	0	251.3	4	85.5	4	-1E+10	1	-1E+10	1	-1E+10	1	-1E+10	1	-1E+10	1	-1E+10	1
4902549	32	C	06/25/2021	23:57	-132.598	47.318	0	97.10	0	7.7630	0	32.5600	0	25.394	0	96.269	0	249.6	4	85.0	4	-1E+10	1	-1E+10	1	-1E+10	1	-1E+10	1	-1E+10	1	-1E+10	1
4902549	32	C	06/25/2021	23:57	-132.598	47.318	0	98.00	0	7.7530	0	32.5740	0	25.406	0	97.161	0	248.2	4	84.5	4	-1E+10	1	-1E+10	1	-1E+10	1	-1E+10	1	-1E+10	1	-1E+10	1
4902549	32	C	06/25/2021	23:57	-132.598	47.318	0	99.00	0	7.7480	0	32.5820	0	25.413	0	98.152	0	246.6	4	84.0	4	-1E+10	1	-1E+10	1	-1E+10	1	-1E+10	1	-1E+10	1	-1E+10	1
4902549	32	C	06/25/2021	23:57	-132.598	47.318	0	100.00	0	7.7420	0	32.5940	0	25.423	0	99.143	0	244.8	4	83.3	4	-1E+10	1	-1E+10	1	-1E+10	1	-1E+10	1	-1E+10	1	-1E+10	1
4902549	32	C	06/25/2021	23:57	-132.598	47.318	0	101.10	0	7.7400	0	32.6120	0	25.438	0	100.233	0	242.8	4	82.7	4	-1E+10	1	-1E+10	1	-1E+10	1	-1E+10	1	-1E+10	1	-1E+10	1
4902549	32	C	06/25/2021	23:57	-132.598	47.318	0	102.00	0	7.7410	0	32.6480	0	25.466	0	101.125	0	241.1	4	82.1	4	-1E+10	1	-1E+10	1	-1E+10	1	-1E+10	1	-1E+10	1	-1E+10	1
4902549	32	C	06/25/2021	23:57	-132.598	47.318	0	103.10	0	7.7430	0	32.6630	0	25.477	0	102.216	0	239.1	4	81.5	4	-1E+10	1	-1E+10	1	-1E+10	1	-1E+10	1	-1E+10	1	-1E+10	1
4902549	32	C	06/25/2021	23:57	-132.598	47.318	0	104.10	0	7.7030	0	32.6820	0	25.498	0	103.207	0	236.3	4	80.4	4	-1E+10	1	-1E+10	1	-1E+10	1	-1E+10	1	-1E+10	1	-1E+10	1
4902549	32	C	06/25/2021	23:57	-132.598	47.318	0	105.00	0	7.6930	0	32.7120	0	25.523	0	104.099	0	232.2	4	79.0	4	-1E+10	1	-1E+10	1	-1E+10	1	-1E+10	1	-1E+10	1	-1E+10	1
4902549	32	C	06/25/2021	23:57	-132.598	47.318	0	105.90	0	7.6730	0	32.7340	0	25.543	0	104.991	0	228.0	4	77.6	4	-1E+10	1	-1E+10	1	-1E+10	1	-1E+10	1	-1E+10	1	-1E+10	1
4902549	32	C	06/25/2021	23:57	-132.598	47.318	0	106.80	0	7.7480	0	32.8060	0	25.589	0	105.883	0	224.7	4	76.6	4	-1E+10	1	-1E+10	1	-1E+10	1	-1E+10	1	-1E+10	1	-1E+10	1
4902549	32	C	06/25/2021	23:57	-132.598	47.318	0	108.00	0	7.7550	0	32.9090	0	25.669	0	107.072	0	221.9	4	75.8	4	-1E+10	1	-1E+10	1	-1E+10	1	-1E+10	1	-1E+10	1	-1E+10	1
4902549	32	C	06/25/2021	23:57	-132.598	47.318	0	109.20	0	7.7490	0	32.9630	0	25.712	0	108.262	0	219.5	4	74.9	4	-1E+10	1	-1E+10	1	-1E+10	1	-1E+10	1	-1E+10	1	-1E+10	1
4902549	32	C	06/25/2021	23:57	-132.598	47.318	0	110.00	0	7.7480	0	32.9670	0	25.716	0	109.055	0	217.5	4	74.3	4	-1E+10	1	-1E+10	1	-1E+10	1	-1E+10	1	-1E+10	1	-1E+10	1
4902549	32	C	06/25/2021	23:57	-132.598	47.318	0	111.30	0	7.7700	0	33.0460	0	25.774	0	110.343	0	214.3	4	73.3	4	-1E+10	1	-1E+10	1	-1E+10	1	-1E+10	1	-1E+10	1	-1E+10	1
4902549	32	C	06/25/2021	23:57	-132.598	47.318	0	112.00	0	7.8520	0	33.0770	0	25.787	0	111.037	0	212.9	4	72.9	4	-1E+10	1	-1E+10	1	-1E+10	1	-1E+10	1	-1E+10	1	-1E+10	1
4902549	32	C	06/25/2021	23:57	-132.598	47.318	0	113.10	0	7.8980	0	33.1220	0	25.816	0	112.127	0	211.8	4	72.7	4	-1E+10	1	-1E+10	1	-1E+10	1	-1E+10	1	-1E+10	1	-1E+10	1
4902549	32	C	06/25/2021	23:57	-132.598	47.318	0	113.90	0	7.8140	0	33.1360	0	25.839	0	112.920	0	211.3	4	72.3	4	-1E+10	1	-1E+10	1	-1E+10	1	-1E+10	1	-1E+10	1	-1E+10	1
4902549	32	C	06/25/2021	23:57	-132.598	47.318	0	114.70	0	7.8130	0	33.1410	0	25.843	0	113.713	0	210.3	4	72.0	4	-1E+10	1	-1E+10	1	-1E+10	1	-1E+10	1	-1E+10	1	-1E+10	1
4902549	32	C	06/25/2021	23:57	-132.598	47.318	0	115.90	0	7.8650	0	33.1790	0	25.865	0	114.902	0	209.1	4	71.7	4	-1E+10	1	-1E+10	1	-1E+10	1	-1E+10	1	-1E+10	1	-1E+10	1
4902549	32	C	06/25/2021	23:57	-132.598	47.318	0	117.10	0	7.8110	0	33.2080	0	25.896	0	116.092	0	208.3	4	71.4	4	-1E+10	1	-1E+10	1	-1E+10	1	-1E+10	1	-1E+10	1	-1E+10	1
4902549	32	C	06/25/2021	23:57	-132.598	47.318	0	118.00	0	7.7700	0	33.2230	0	25.914	0	116.984	0	207.7	4	71.1	4	-1E+10	1	-1E+10	1	-1E+10	1	-1E+10	1	-1E+10	1	-1E+10	1
4902549	32	C	06/25/2021	23:57	-132.598	47.318	0	118.90	0	7.7590	0	33.2220	0	25.914	0	117.876	0	206.9	4	70.8	4	-1E+10	1	-1E+10	1	-1E+10	1	-1E+10	1	-1E+10	1	-1E+10	1
4902549	32	C	06/25/2021	23:57	-132.598	47.318	0	119.90	0	7.7490	0	33.2250	0	25.918	0	118.867	0	205.8	4	70.4	4	-1E+10	1	-1E+10	1	-1E+10	1	-1E+10	1	-1E+10	1	-1E+10	1
4902549	32	C	06/25/2021	23:57	-132.598	47.318	0	120.80	0	7.7400	0	33.2380	0	25.930	0	119.759	0	204.4	4	69.9	4	-1E+10	1	-1E+10	1	-1E+10	1	-1E+10	1	-1E+10	1	-1E+10	1
4902549	32	C	06/25/2021	23:57	-132.598	47.318	0	121.90	0	7.7280	0	33.2840	0	25.968	0	120.849	0	203.2	4	69.5	4	-1E+10	1	-1E+10	1	-1E+10	1	-1E+10	1	-1E+10	1	-1E+10	1
4902549	32	C	06/25/2021	23:57	-132.598	47.318	0	122.90	0	7.7170	0	33.3110	0	25.990	0	121.840	0	202.1	4	69.1	4	-1E+10	1	-1E+10	1	-1E+10	1	-1E+10	1	-1E+10	1	-1E+10	1
4902549	32	C	06/25/2021	23:57	-132.598	47.318	0	124.00	0	7.7150	0	33.3140	0	25.993	0	122.930	0	200.9	4	68.7	4	-1E+10	1	-1E+10	1	-1E+10	1	-1E+10	1	-1E+10	1	-1E+10	1
4902549	32	C	06/25/2021	23:57	-132.598	47.318	0	124.80	0	7.7050	0	33.3260	0	26.004	0	123.723	0	200.1	4	68.4	4	-1E+10	1	-1E+10	1	-1E+10	1	-1E+10	1	-1E+10	1	-1E+10	1
4902549	32	C	06/25/2021	23:57	-132.598	47.318	0	125.90	0	7.6780	0	33.3880	0	26.057	0	124.813	0	199.1	4	68.1	4	-1E+10	1	-1E+10	1	-1E+10	1	-1E+10	1	-1E+10	1	-1E+10	1
4902549	32	C	06/25/2021	23:57	-132.598	47.318	0	127.10	0	7.6730	0	33.4120	0	26.076	0	126.003	0	198.1	4	67.8	4	-1E+10	1	-1E+10	1	-1E+10	1	-1E+10	1	-1E+10	1	-1E+10	1
4902549	32	C	06/25/2021	23:57	-132.598	47.318	0	127.90	0	7.6720	0	33.4230	0	26.085	0	126.795	0	197.5	4	67.6	4	-1E+10	1	-1E+10	1	-1E+10	1	-1E+10	1	-1E+10	1	-1E+10	1
4902549	32	C	06/25/2021	23:57	-132.598	47.318	0	128.70	0	7.6780	0	33.4290	0	26.089	0	127.588	0	196.8	4	67.3	4	-1E+10	1	-1E+10	1	-1E+10	1	-1E+10	1	-1E+10	1	-1E+10	1
4902549	32	C	06/25/2021	23:57	-132.598	47.318	0	129.90	0	7.6780	0	33.4460	0	26.102	0	128.777	0	195.7	4	67.0	4	-1E+10	1	-1E+10	1	-1E+10	1	-1E+10	1	-1E+10	1	-1E+10	1
4902549	32	C	06/25/2021	23:57	-132.598	47.318	0	131.10	0	7.6510	0	33.4770	0	26.130	0	129.967	0	194.9	4	66.7	4	-1E+10	1	-1E+10	1	-1E+10	1	-1E+10	1	-1E+10	1	-1E+10	1
4902549	32	C	06/25/2021	23:57	-132.598	47.318	0	131.90	0	7.6430	0	33.5100	0	26.158	0	130.760	0	194.5	4	66.5	4	-1E+10	1	-1E+10	1	-1E+10	1	-1E+10	1	-1E+10	1	-1E+10	1
4902549	32	C	06/25/2021	23:57	-132.598	47.318	0	132.80	0	7.6230	0	33.5300	0	26.176	0	131.652	0	194.1	4	66.4	4	-1E+10	1	-1E+10	1	-1E+10	1	-1E+10	1	-1E+10	1	-1E+10	1
4902549	32	C	06/25/2021	23:57	-132.598	47.318	0	133.60	0	7.6130	0	33.5560	0	26.198	0	132.444	0	193.8	4	66.3	4	-1E+10	1	-1E+10	1	-1E+10	1	-1E+10	1	-1E+10	1	-1E+10	1
4902549	32	C	06/25/2021	23:57	-132.598	47.318	0	135.00	0	7.6150	0	33.5720	0	26.210	0	133.832	0	193.4	4	66.1	4	-1E+10	1	-1E+10	1	-1E+10	1	-1E+10	1	-1E+10	1	-1E+10	1
4902549	32	C	06/25/2021	23:57	-132.598	47.318	0	136.30	0	7.6140	0	33.5910	0	26.225	0	135.120	0	192.9	4	66.0	4	-1E+10	1	-1E+10	1	-1E+10	1	-1E+10	1	-1E+10	1	-1E+10	1
4902549	32	C	06/25/2021	23:57	-132.598	47.318	0	137.20	0	7.6140	0	33.5960	0	26.229	0	136.012	0	192.7	4	65.9	4	-1E+10	1	-1E+10	1	-1E+10	1	-1E+10	1	-1E+10	1	-1E+10	1
4902549	32	C	06/25/2021	23:57	-132.598	47.318	0	138.20	0	7.6140	0	33.5980	0	26.231	0	137.003	0	192.4	4	65.8	4	-1E+10	1	-1E+10	1	-1E+10	1	-1E+10	1	-1E+10	1	-1E+10	1
4902549	32	C	06/25/2021	23:57	-132.598	47.318	0	139.10	0	7.6100	0	33.6040	0	26.236	0	137.895	0	192.1	4	65.7	4	-1E+10	1	-1E+10	1	-1E+10	1	-1E+10	1	-1E+10	1	-1E+10	1
4902549	32	C	06/25/2021	23:57	-132.598	47.318	0	140.00	0	7.6040	0	33.6110	0	26.243	0	138.787	0	191.9	4	65.6	4	-1E+10	1	-1E+10	1	-1E+10	1	-1E+10	1	-1E+10	1	-1E+10	1
4902549	32	C	06/25/2021	23:57	-132.598	47.318	0	140.90	0	7.6030	0	33.6120	0	26.244	0	139.679	0	191.5	4	65.5	4	-1E+10	1	-1E+10	1	-1E+10	1	-1E+10	1	-1E+10	1	-1E+10	1
4902549	32	C	06/25/2021	23:57	-132.598	47.318	0	141.80	0	7.6010	0	33.6160	0	26.247	0	140.571	0	191.2	4	65.4	4	-1E+10	1	-1E+10	1	-1E+10	1	-1E+10	1	-1E+10	1	-1E+10	1
4902549	32	C	06/25/2021	23:57	-132.598	47.318	0	142.70	0	7.5990	0	33.6180	0	26.249	0	141.462	0	190.9	4	65.3	4	-1E+10	1	-1E+10	1	-1E+10	1	-1E+10	1	-1E+10	1	-1E+10	1
4902549	32	C	06/25/2021	23:57	-132.598	47.318	0	143.70	0	7.5870	0	33.6320	0	26.262	0	142.453	0	190.5	4	65.1	4	-1E+10	1	-1E+10	1	-1E+10	1	-1E+10	1	-1E+10	1	-1E+10	1
4902549	32	C	06/25/2021	23:57	-132.598	47.318	0	144.60	0	7.5750	0	33.6400	0	26.270	0	143.345	0	190.3	4	65.0	4	-1E+10	1	-1E+10	1	-1E+10	1	-1E+10	1	-1E+10	1	-1E+10	1
4902549	32	C	06/25/2021	23:57	-132.598	47.318	0	145.90	0	7.5620	0	33.6460	0	26.276	0	144.634	0	189.9	4	64.9	4	-1E+10	1	-1E+10	1	-1E+10	1	-1E+10	1	-1E+10	1	-1E+10	1
4902549	32	C	06/25/2021	23:57	-132.598	47.318	0	147.30	0	7.5560	0	33.6500	0	26.280	0	146.021	0	189.5	4	64.8	4	-1E+10	1	-1E+10	1	-1E+10	1	-1E+10	1	-1E+10	1	-1E+10	1
4902549	32	C	06/25/2021	23:57	-132.598	47.318	0	148.20	0	7.5410	0	33.6570	0	26.288	0	146.913	0	189.4	4	64.7	4	-1E+10	1	-1E+10	1	-1E+10	1	-1E+10	1	-1E+10	1	-1E+10	1
4902549	32	C	06/25/2021	23:57	-132.598	47.318	0	149.20	0	7.5380	0	33.6590	0	26.290	0	147.904	0	189.1	4	64.6	4	-1E+10	1	-1E+10	1	-1E+10	1	-1E+10	1	-1E+10	1	-1E+10	1
4902549	32	C	06/25/2021	23:57	-132.598	47.318	0	150.10	0	7.5340	0	33.6610	0	26.292	0	148.796	0	188.9	4	64.5	4	-1E+10	1	-1E+10	1	-1E+10	1	-1E+10	1	-1E+10	1	-1E+10	1
4902549	32	C	06/25/2021	23:57	-132.598	47.318	0	151.00	0	7.5310	0	33.6610	0	26.292	0	149.688	0	188.6	4	64.4	4	-1E+10	1	-1E+10	1	-1E+10	1	-1E+10	1	-1E+10	1	-1E+10	1
4902549	32	C	06/25/2021	23:57	-132.598	47.318	0	151.90	0	7.5260	0	33.6610	0	26.293	0	150.579	0	188.2	4	64.3	4	-1E+10	1	-1E+10	1	-1E+10	1	-1E+10	1	-1E+10	1	-1E+10	1
4902549	32	C	06/25/2021	23:57	-132.598	47.318	0	152.80	0	7.4930	0	33.6650	0	26.301	0	151.471	0	188.0	4	64.1	4	-1E+10	1	-1E+10	1	-1E+10	1	-1E+10	1	-1E+10	1	-1E+10	1
4902549	32	C	06/25/2021	23:57	-132.598	47.318	0	153.80	0	7.4880	0	33.6680	0	26.304	0	152.462	0	187.6	4	64.0	4	-1E+10	1	-1E+10	1	-1E+10	1	-1E+10	1	-1E+10	1	-1E+10	1
4902549	32	C	06/25/2021	23:57	-132.598	47.318	0	154.70	0	7.4730	0	33.6740	0	26.311	0	153.354	0	187.1	4	63.8	4	-1E+10	1	-1E+10	1	-1E+10	1	-1E+10	1	-1E+10	1	-1E+10	1
4902549	32	C	06/25/2021	23:57	-132.598	47.318	0	155.60	0	7.4410	0	33.6840	0	26.323	0	154.246	0	186.9	4	63.7	4	-1E+10	1	-1E+10	1	-1E+10	1	-1E+10	1	-1E+10	1	-1E+10	1
4902549	32	C	06/25/2021	23:57	-132.598	47.318	0	156.60	0	7.4130	0	33.6890	0	26.331	0	155.237	0	186.7	4	63.6	4	-1E+10	1	-1E+10	1	-1E+10	1	-1E+10	1	-1E+10	1	-1E+10	1
4902549	32	C	06/25/2021	23:57	-132.598	47.318	0	157.50	0	7.4100	0	33.6890	0	26.332	0	156.129	0	186.3	4	63.5	4	-1E+10	1	-1E+10	1	-1E+10	1	-1E+10	1	-1E+10	1	-1E+10	1
4902549	32	C	06/25/2021	23:57	-132.598	47.318	0	158.50	0	7.3880	0	33.6940	0	26.339	0	157.119	0	185.9	4	63.3	4	-1E+10	1	-1E+10	1	-1E+10	1	-1E+10	1	-1E+10	1	-1E+10	1
4902549	32	C	06/25/2021	23:57	-132.598	47.318	0	159.90	0	7.3550	0	33.7000	0	26.348	0	158.507	0	185.4	4	63.1	4	-1E+10	1	-1E+10	1	-1E+10	1	-1E+10	1	-1E+10	1	-1E+10	1
4902549	32	C	06/25/2021	23:57	-132.598	47.318	0	161.40	0	7.3330	0	33.7060	0	26.356	0	159.993	0	184.8	4	62.9	4	-1E+10	1	-1E+10	1	-1E+10	1	-1E+10	1	-1E+10	1	-1E+10	1
4902549	32	C	06/25/2021	23:57	-132.598	47.318	0	162.40	0	7.3320	0	33.7130	0	26.361	0	160.984	0	184.4	4	62.7	4	-1E+10	1	-1E+10	1	-1E+10	1	-1E+10	1	-1E+10	1	-1E+10	1
4902549	32	C	06/25/2021	23:57	-132.598	47.318	0	163.40	0	7.2930	0	33.7160	0	26.369	0	161.975	0	184.2	4	62.6	4	-1E+10	1	-1E+10	1	-1E+10	1	-1E+10	1	-1E+10	1	-1E+10	1
4902549	32	C	06/25/2021	23:57	-132.598	47.318	0	164.30	0	7.2770	0	33.7150	0	26.371	0	162.867	0	183.9	4	62.5	4	-1E+10	1	-1E+10	1	-1E+10	1	-1E+10	1	-1E+10	1	-1E+10	1
4902549	32	C	06/25/2021	23:57	-132.598	47.318	0	165.30	0	7.2550	0	33.7130	0	26.372	0	163.858	0	183.5	4	62.3	4	-1E+10	1	-1E+10	1	-1E+10	1	-1E+10	1	-1E+10	1	-1E+10	1
4902549	32	C	06/25/2021	23:57	-132.598	47.318	0	166.30	0	7.2390	0	33.7170	0	26.378	0	164.848	0	183.1	4	62.1	4	-1E+10	1	-1E+10	1	-1E+10	1	-1E+10	1	-1E+10	1	-1E+10	1
4902549	32	C	06/25/2021	23:57	-132.598	47.318	0	167.30	0	7.2180	0	33.7170	0	26.381	0	165.839	0	182.7	4	62.0	4	-1E+10	1	-1E+10	1	-1E+10	1	-1E+10	1	-1E+10	1	-1E+10	1
4902549	32	C	06/25/2021	23:57	-132.598	47.318	0	168.30	0	7.2170	0	33.7160	0	26.380	0	166.830	0	182.0	4	61.7	4	-1E+10	1	-1E+10	1	-1E+10	1	-1E+10	1	-1E+10	1	-1E+10	1
4902549	32	C	06/25/2021	23:57	-132.598	47.318	0	169.30	0	7.2160	0	33.7200	0	26.383	0	167.821	0	181.5	4	61.6	4	-1E+10	1	-1E+10	1	-1E+10	1	-1E+10	1	-1E+10	1	-1E+10	1
4902549	32	C	06/25/2021	23:57	-132.598	47.318	0	170.30	0	7.1920	0	33.7320	0	26.396	0	168.812	0	180.9	4	61.3	4	-1E+10	1	-1E+10	1	-1E+10	1	-1E+10	1	-1E+10	1	-1E+10	1
4902549	32	C	06/25/2021	23:57	-132.598	47.318	0	171.30	0	7.1780	0	33.7360	0	26.401	0	169.803	0	180.3	4	61.1	4	-1E+10	1	-1E+10	1	-1E+10	1	-1E+10	1	-1E+10	1	-1E+10	1
4902549	32	C	06/25/2021	23:57	-132.598	47.318	0	172.30	0	7.1440	0	33.7400	0	26.409	0	170.794	0	179.9	4	60.9	4	-1E+10	1	-1E+10	1	-1E+10	1	-1E+10	1	-1E+10	1	-1E+10	1
4902549	32	C	06/25/2021	23:57	-132.598	47.318	0	173.30	0	7.1350	0	33.7410	0	26.411	0	171.784	0	179.3	4	60.7	4	-1E+10	1	-1E+10	1	-1E+10	1	-1E+10	1	-1E+10	1	-1E+10	1
4902549	32	C	06/25/2021	23:57	-132.598	47.318	0	174.30	0	7.1160	0	33.7430	0	26.415	0	172.775	0	178.7	4	60.5	4	-1E+10	1	-1E+10	1	-1E+10	1	-1E+10	1	-1E+10	1	-1E+10	1
4902549	32	C	06/25/2021	23:57	-132.598	47.318	0	175.30	0	7.1060	0	33.7430	0	26.417	0	173.766	0	178.2	4	60.3	4	-1E+10	1	-1E+10	1	-1E+10	1	-1E+10	1	-1E+10	1	-1E+10	1
4902549	32	C	06/25/2021	23:57	-132.598	47.318	0	176.30	0	7.0950	0	33.7500	0	26.424	0	174.757	0	177.4	4	60.0	4	-1E+10	1	-1E+10	1	-1E+10	1	-1E+10	1	-1E+10	1	-1E+10	1
4902549	32	C	06/25/2021	23:57	-132.598	47.318	0	177.20	0	7.0670	0	33.7510	0	26.428	0	175.649	0	176.9	4	59.8	4	-1E+10	1	-1E+10	1	-1E+10	1	-1E+10	1	-1E+10	1	-1E+10	1
4902549	32	C	06/25/2021	23:57	-132.598	47.318	0	178.20	0	7.0520	0	33.7580	0	26.436	0	176.639	0	176.5	4	59.7	4	-1E+10	1	-1E+10	1	-1E+10	1	-1E+10	1	-1E+10	1	-1E+10	1
4902549	32	C	06/25/2021	23:57	-132.598	47.318	0	179.30	0	7.0390	0	33.7610	0	26.440	0	177.729	0	176.0	4	59.5	4	-1E+10	1	-1E+10	1	-1E+10	1	-1E+10	1	-1E+10	1	-1E+10	1
4902549	32	C	06/25/2021	23:57	-132.598	47.318	0	180.20	0	7.0290	0	33.7630	0	26.443	0	178.621	0	175.4	4	59.3	4	-1E+10	1	-1E+10	1	-1E+10	1	-1E+10	1	-1E+10	1	-1E+10	1
4902549	32	C	06/25/2021	23:57	-132.598	47.318	0	181.30	0	7.0210	0	33.7630	0	26.444	0	179.711	0	174.9	4	59.1	4	-1E+10	1	-1E+10	1	-1E+10	1	-1E+10	1	-1E+10	1	-1E+10	1
4902549	32	C	06/25/2021	23:57	-132.598	47.318	0	182.30	0	7.0190	0	33.7640	0	26.445	0	180.702	0	174.3	4	58.9	4	-1E+10	1	-1E+10	1	-1E+10	1	-1E+10	1	-1E+10	1	-1E+10	1
4902549	32	C	06/25/2021	23:57	-132.598	47.318	0	183.30	0	7.0080	0	33.7690	0	26.451	0	181.693	0	173.6	4	58.7	4	-1E+10	1	-1E+10	1	-1E+10	1	-1E+10	1	-1E+10	1	-1E+10	1
4902549	32	C	06/25/2021	23:57	-132.598	47.318	0	184.30	0	6.9910	0	33.7710	0	26.454	0	182.683	0	173.2	4	58.5	4	-1E+10	1	-1E+10	1	-1E+10	1	-1E+10	1	-1E+10	1	-1E+10	1
4902549	32	C	06/25/2021	23:57	-132.598	47.318	0	185.30	0	6.9850	0	33.7770	0	26.460	0	183.674	0	172.7	4	58.3	4	-1E+10	1	-1E+10	1	-1E+10	1	-1E+10	1	-1E+10	1	-1E+10	1
4902549	32	C	06/25/2021	23:57	-132.598	47.318	0	186.30	0	6.9740	0	33.7790	0	26.463	0	184.665	0	172.3	4	58.1	4	-1E+10	1	-1E+10	1	-1E+10	1	-1E+10	1	-1E+10	1	-1E+10	1
4902549	32	C	06/25/2021	23:57	-132.598	47.318	0	187.40	0	6.9560	0	33.7820	0	26.468	0	185.755	0	171.9	4	58.0	4	-1E+10	1	-1E+10	1	-1E+10	1	-1E+10	1	-1E+10	1	-1E+10	1
4902549	32	C	06/25/2021	23:57	-132.598	47.318	0	188.40	0	6.9470	0	33.7820	0	26.469	0	186.746	0	171.6	4	57.9	4	-1E+10	1	-1E+10	1	-1E+10	1	-1E+10	1	-1E+10	1	-1E+10	1
4902549	32	C	06/25/2021	23:57	-132.598	47.318	0	189.40	0	6.9410	0	33.7830	0	26.471	0	187.736	0	171.3	4	57.8	4	-1E+10	1	-1E+10	1	-1E+10	1	-1E+10	1	-1E+10	1	-1E+10	1
4902549	32	C	06/25/2021	23:57	-132.598	47.318	0	190.50	0	6.9320	0	33.7840	0	26.473	0	188.826	0	170.9	4	57.6	4	-1E+10	1	-1E+10	1	-1E+10	1	-1E+10	1	-1E+10	1	-1E+10	1
4902549	32	C	06/25/2021	23:57	-132.598	47.318	0	191.60	0	6.9210	0	33.7850	0	26.475	0	189.916	0	170.5	4	57.5	4	-1E+10	1	-1E+10	1	-1E+10	1	-1E+10	1	-1E+10	1	-1E+10	1
4902549	32	C	06/25/2021	23:57	-132.598	47.318	0	192.60	0	6.9140	0	33.7870	0	26.478	0	190.907	0	170.1	4	57.4	4	-1E+10	1	-1E+10	1	-1E+10	1	-1E+10	1	-1E+10	1	-1E+10	1
4902549	32	C	06/25/2021	23:57	-132.598	47.318	0	193.70	0	6.9090	0	33.7840	0	26.476	0	191.997	0	169.8	4	57.2	4	-1E+10	1	-1E+10	1	-1E+10	1	-1E+10	1	-1E+10	1	-1E+10	1
4902549	32	C	06/25/2021	23:57	-132.598	47.318	0	194.70	0	6.8770	0	33.7820	0	26.479	0	192.987	0	169.4	4	57.0	4	-1E+10	1	-1E+10	1	-1E+10	1	-1E+10	1	-1E+10	1	-1E+10	1
4902549	32	C	06/25/2021	23:57	-132.598	47.318	0	195.80	0	6.8800	0	33.7850	0	26.481	0	194.077	0	168.8	4	56.9	4	-1E+10	1	-1E+10	1	-1E+10	1	-1E+10	1	-1E+10	1	-1E+10	1
4902549	32	C	06/25/2021	23:57	-132.598	47.318	0	196.80	0	6.8670	0	33.7880	0	26.485	0	195.068	0	168.4	4	56.7	4	-1E+10	1	-1E+10	1	-1E+10	1	-1E+10	1	-1E+10	1	-1E+10	1
4902549	32	C	06/25/2021	23:57	-132.598	47.318	0	197.90	0	6.8520	0	33.7850	0	26.484	0	196.158	0	168.0	4	56.5	4	-1E+10	1	-1E+10	1	-1E+10	1	-1E+10	1	-1E+10	1	-1E+10	1
4902549	32	C	06/25/2021	23:57	-132.598	47.318	0	199.00	0	6.8720	0	33.7890	0	26.485	0	197.247	0	167.3	4	56.3	4	-1E+10	1	-1E+10	1	-1E+10	1	-1E+10	1	-1E+10	1	-1E+10	1
4902549	32	C	06/25/2021	23:57	-132.598	47.318	0	200.00	0	6.8680	0	33.7920	0	26.488	0	198.238	0	166.7	4	56.2	4	-1E+10	1	-1E+10	1	-1E+10	1	-1E+10	1	-1E+10	1	-1E+10	1
4902549	32	C	06/25/2021	23:57	-132.598	47.318	0	201.00	0	6.8540	0	33.7900	0	26.488	0	199.229	0	166.2	4	56.0	4	-1E+10	1	-1E+10	1	-1E+10	1	-1E+10	1	-1E+10	1	-1E+10	1
4902549	32	C	06/25/2021	23:57	-132.598	47.318	0	202.10	0	6.8270	0	33.7930	0	26.494	0	200.319	0	165.6	4	55.7	4	-1E+10	1	-1E+10	1	-1E+10	1	-1E+10	1	-1E+10	1	-1E+10	1
4902549	32	C	06/25/2021	23:57	-132.598	47.318	0	203.10	0	6.8130	0	33.7910	0	26.494	0	201.309	0	165.0	4	55.5	4	-1E+10	1	-1E+10	1	-1E+10	1	-1E+10	1	-1E+10	1	-1E+10	1
4902549	32	C	06/25/2021	23:57	-132.598	47.318	0	204.10	0	6.8140	0	33.7950	0	26.497	0	202.300	0	164.4	4	55.3	4	-1E+10	1	-1E+10	1	-1E+10	1	-1E+10	1	-1E+10	1	-1E+10	1
4902549	32	C	06/25/2021	23:57	-132.598	47.318	0	205.20	0	6.8080	0	33.7960	0	26.499	0	203.390	0	163.7	4	55.1	4	-1E+10	1	-1E+10	1	-1E+10	1	-1E+10	1	-1E+10	1	-1E+10	1
4902549	32	C	06/25/2021	23:57	-132.598	47.318	0	206.20	0	6.7980	0	33.7990	0	26.503	0	204.380	0	163.1	4	54.8	4	-1E+10	1	-1E+10	1	-1E+10	1	-1E+10	1	-1E+10	1	-1E+10	1
4902549	32	C	06/25/2021	23:57	-132.598	47.318	0	207.20	0	6.7890	0	33.8010	0	26.506	0	205.371	0	162.5	4	54.6	4	-1E+10	1	-1E+10	1	-1E+10	1	-1E+10	1	-1E+10	1	-1E+10	1
4902549	32	C	06/25/2021	23:57	-132.598	47.318	0	208.30	0	6.7830	0	33.8010	0	26.506	0	206.461	0	161.9	4	54.4	4	-1E+10	1	-1E+10	1	-1E+10	1	-1E+10	1	-1E+10	1	-1E+10	1
4902549	32	C	06/25/2021	23:57	-132.598	47.318	0	209.40	0	6.7760	0	33.8010	0	26.507	0	207.551	0	161.3	4	54.2	4	-1E+10	1	-1E+10	1	-1E+10	1	-1E+10	1	-1E+10	1	-1E+10	1
4902549	32	C	06/25/2021	23:57	-132.598	47.318	0	210.40	0	6.7620	0	33.8040	0	26.512	0	208.541	0	160.6	4	54.0	4	-1E+10	1	-1E+10	1	-1E+10	1	-1E+10	1	-1E+10	1	-1E+10	1
4902549	32	C	06/25/2021	23:57	-132.598	47.318	0	211.50	0	6.7430	0	33.8040	0	26.514	0	209.631	0	160.1	4	53.8	4	-1E+10	1	-1E+10	1	-1E+10	1	-1E+10	1	-1E+10	1	-1E+10	1
4902549	32	C	06/25/2021	23:57	-132.598	47.318	0	212.50	0	6.7200	0	33.8050	0	26.518	0	210.622	0	159.5	4	53.5	4	-1E+10	1	-1E+10	1	-1E+10	1	-1E+10	1	-1E+10	1	-1E+10	1
4902549	32	C	06/25/2021	23:57	-132.598	47.318	0	213.60	0	6.7090	0	33.8040	0	26.519	0	211.711	0	158.8	4	53.3	4	-1E+10	1	-1E+10	1	-1E+10	1	-1E+10	1	-1E+10	1	-1E+10	1
4902549	32	C	06/25/2021	23:57	-132.598	47.318	0	214.70	0	6.6960	0	33.8030	0	26.520	0	212.801	0	158.1	4	53.1	4	-1E+10	1	-1E+10	1	-1E+10	1	-1E+10	1	-1E+10	1	-1E+10	1
4902549	32	C	06/25/2021	23:57	-132.598	47.318	0	215.70	0	6.6720	0	33.8080	0	26.527	0	213.792	0	157.5	4	52.8	4	-1E+10	1	-1E+10	1	-1E+10	1	-1E+10	1	-1E+10	1	-1E+10	1
4902549	32	C	06/25/2021	23:57	-132.598	47.318	0	216.80	0	6.6680	0	33.8100	0	26.529	0	214.881	0	156.9	4	52.6	4	-1E+10	1	-1E+10	1	-1E+10	1	-1E+10	1	-1E+10	1	-1E+10	1
4902549	32	C	06/25/2021	23:57	-132.598	47.318	0	217.90	0	6.6540	0	33.8110	0	26.532	0	215.971	0	156.2	4	52.4	4	-1E+10	1	-1E+10	1	-1E+10	1	-1E+10	1	-1E+10	1	-1E+10	1
4902549	32	C	06/25/2021	23:57	-132.598	47.318	0	218.90	0	6.6300	0	33.8140	0	26.537	0	216.962	0	155.7	4	52.1	4	-1E+10	1	-1E+10	1	-1E+10	1	-1E+10	1	-1E+10	1	-1E+10	1
4902549	32	C	06/25/2021	23:57	-132.598	47.318	0	220.00	0	6.5880	0	33.8110	0	26.540	0	218.051	0	155.2	4	51.9	4	-1E+10	1	-1E+10	1	-1E+10	1	-1E+10	1	-1E+10	1	-1E+10	1
4902549	32	C	06/25/2021	23:57	-132.598	47.318	0	221.10	0	6.5820	0	33.8100	0	26.540	0	219.141	0	154.5	4	51.7	4	-1E+10	1	-1E+10	1	-1E+10	1	-1E+10	1	-1E+10	1	-1E+10	1
4902549	32	C	06/25/2021	23:57	-132.598	47.318	0	222.10	0	6.5640	0	33.8110	0	26.543	0	220.132	0	154.0	4	51.5	4	-1E+10	1	-1E+10	1	-1E+10	1	-1E+10	1	-1E+10	1	-1E+10	1
4902549	32	C	06/25/2021	23:57	-132.598	47.318	0	223.20	0	6.5420	0	33.8140	0	26.549	0	221.221	0	153.4	4	51.3	4	-1E+10	1	-1E+10	1	-1E+10	1	-1E+10	1	-1E+10	1	-1E+10	1
4902549	32	C	06/25/2021	23:57	-132.598	47.318	0	224.30	0	6.5360	0	33.8130	0	26.549	0	222.311	0	152.9	4	51.1	4	-1E+10	1	-1E+10	1	-1E+10	1	-1E+10	1	-1E+10	1	-1E+10	1
4902549	32	C	06/25/2021	23:57	-132.598	47.318	0	225.30	0	6.5280	0	33.8130	0	26.550	0	223.302	0	152.2	4	50.9	4	-1E+10	1	-1E+10	1	-1E+10	1	-1E+10	1	-1E+10	1	-1E+10	1
4902549	32	C	06/25/2021	23:57	-132.598	47.318	0	226.40	0	6.5050	0	33.8170	0	26.556	0	224.391	0	151.7	4	50.7	4	-1E+10	1	-1E+10	1	-1E+10	1	-1E+10	1	-1E+10	1	-1E+10	1
4902549	32	C	06/25/2021	23:57	-132.598	47.318	0	227.50	0	6.4910	0	33.8210	0	26.561	0	225.481	0	151.2	4	50.5	4	-1E+10	1	-1E+10	1	-1E+10	1	-1E+10	1	-1E+10	1	-1E+10	1
4902549	32	C	06/25/2021	23:57	-132.598	47.318	0	228.50	0	6.4730	0	33.8180	0	26.561	0	226.471	0	150.8	4	50.3	4	-1E+10	1	-1E+10	1	-1E+10	1	-1E+10	1	-1E+10	1	-1E+10	1
4902549	32	C	06/25/2021	23:57	-132.598	47.318	0	229.50	0	6.4690	0	33.8180	0	26.561	0	227.462	0	150.3	4	50.2	4	-1E+10	1	-1E+10	1	-1E+10	1	-1E+10	1	-1E+10	1	-1E+10	1
4902549	32	C	06/25/2021	23:57	-132.598	47.318	0	230.70	0	6.4550	0	33.8210	0	26.566	0	228.651	0	149.8	4	50.0	4	-1E+10	1	-1E+10	1	-1E+10	1	-1E+10	1	-1E+10	1	-1E+10	1
4902549	32	C	06/25/2021	23:57	-132.598	47.318	0	231.80	0	6.4470	0	33.8190	0	26.565	0	229.740	0	149.1	4	49.7	4	-1E+10	1	-1E+10	1	-1E+10	1	-1E+10	1	-1E+10	1	-1E+10	1
4902549	32	C	06/25/2021	23:57	-132.598	47.318	0	233.00	0	6.4420	0	33.8190	0	26.566	0	230.929	0	148.3	4	49.5	4	-1E+10	1	-1E+10	1	-1E+10	1	-1E+10	1	-1E+10	1	-1E+10	1
4902549	32	C	06/25/2021	23:57	-132.598	47.318	0	233.80	0	6.4270	0	33.8200	0	26.569	0	231.721	0	147.8	4	49.3	4	-1E+10	1	-1E+10	1	-1E+10	1	-1E+10	1	-1E+10	1	-1E+10	1
4902549	32	C	06/25/2021	23:57	-132.598	47.318	0	235.00	0	6.4100	0	33.8220	0	26.572	0	232.910	0	147.1	4	49.0	4	-1E+10	1	-1E+10	1	-1E+10	1	-1E+10	1	-1E+10	1	-1E+10	1
4902549	32	C	06/25/2021	23:57	-132.598	47.318	0	236.20	0	6.3870	0	33.8260	0	26.578	0	234.099	0	146.4	4	48.8	4	-1E+10	1	-1E+10	1	-1E+10	1	-1E+10	1	-1E+10	1	-1E+10	1
4902549	32	C	06/25/2021	23:57	-132.598	47.318	0	237.00	0	6.3800	0	33.8230	0	26.577	0	234.891	0	146.0	4	48.6	4	-1E+10	1	-1E+10	1	-1E+10	1	-1E+10	1	-1E+10	1	-1E+10	1
4902549	32	C	06/25/2021	23:57	-132.598	47.318	0	237.90	0	6.3700	0	33.8250	0	26.580	0	235.783	0	145.5	4	48.5	4	-1E+10	1	-1E+10	1	-1E+10	1	-1E+10	1	-1E+10	1	-1E+10	1
4902549	32	C	06/25/2021	23:57	-132.598	47.318	0	238.70	0	6.3570	0	33.8260	0	26.582	0	236.575	0	145.1	4	48.3	4	-1E+10	1	-1E+10	1	-1E+10	1	-1E+10	1	-1E+10	1	-1E+10	1
4902549	32	C	06/25/2021	23:57	-132.598	47.318	0	239.90	0	6.3280	0	33.8270	0	26.587	0	237.764	0	144.7	4	48.1	4	-1E+10	1	-1E+10	1	-1E+10	1	-1E+10	1	-1E+10	1	-1E+10	1
4902549	32	C	06/25/2021	23:57	-132.598	47.318	0	241.20	0	6.3180	0	33.8260	0	26.587	0	239.051	0	144.1	4	47.9	4	-1E+10	1	-1E+10	1	-1E+10	1	-1E+10	1	-1E+10	1	-1E+10	1
4902549	32	C	06/25/2021	23:57	-132.598	47.318	0	242.00	0	6.2910	0	33.8280	0	26.592	0	239.844	0	143.8	4	47.8	4	-1E+10	1	-1E+10	1	-1E+10	1	-1E+10	1	-1E+10	1	-1E+10	1
4902549	32	C	06/25/2021	23:57	-132.598	47.318	0	242.80	0	6.2840	0	33.8280	0	26.593	0	240.636	0	143.6	4	47.7	4	-1E+10	1	-1E+10	1	-1E+10	1	-1E+10	1	-1E+10	1	-1E+10	1
4902549	32	C	06/25/2021	23:57	-132.598	47.318	0	244.00	0	6.2780	0	33.8280	0	26.594	0	241.825	0	143.1	4	47.5	4	-1E+10	1	-1E+10	1	-1E+10	1	-1E+10	1	-1E+10	1	-1E+10	1
4902549	32	C	06/25/2021	23:57	-132.598	47.318	0	245.30	0	6.2680	0	33.8270	0	26.595	0	243.112	0	142.5	4	47.3	4	-1E+10	1	-1E+10	1	-1E+10	1	-1E+10	1	-1E+10	1	-1E+10	1
4902549	32	C	06/25/2021	23:57	-132.598	47.318	0	246.10	0	6.2640	0	33.8280	0	26.596	0	243.905	0	142.1	4	47.2	4	-1E+10	1	-1E+10	1	-1E+10	1	-1E+10	1	-1E+10	1	-1E+10	1
4902549	32	C	06/25/2021	23:57	-132.598	47.318	0	246.90	0	6.2600	0	33.8270	0	26.596	0	244.697	0	141.6	4	47.0	4	-1E+10	1	-1E+10	1	-1E+10	1	-1E+10	1	-1E+10	1	-1E+10	1
4902549	32	C	06/25/2021	23:57	-132.598	47.318	0	247.70	0	6.2420	0	33.8270	0	26.598	0	245.490	0	141.2	4	46.9	4	-1E+10	1	-1E+10	1	-1E+10	1	-1E+10	1	-1E+10	1	-1E+10	1
4902549	32	C	06/25/2021	23:57	-132.598	47.318	0	248.90	0	6.2150	0	33.8270	0	26.601	0	246.678	0	140.6	4	46.7	4	-1E+10	1	-1E+10	1	-1E+10	1	-1E+10	1	-1E+10	1	-1E+10	1
4902549	32	C	06/25/2021	23:57	-132.598	47.318	0	250.20	0	6.1880	0	33.8360	0	26.612	0	247.966	0	140.0	4	46.4	4	-1E+10	1	-1E+10	1	-1E+10	1	-1E+10	1	-1E+10	1	-1E+10	1
4902549	32	C	06/25/2021	23:57	-132.598	47.318	0	251.00	0	6.1810	0	33.8280	0	26.607	0	248.758	0	139.8	4	46.3	4	-1E+10	1	-1E+10	1	-1E+10	1	-1E+10	1	-1E+10	1	-1E+10	1
4902549	32	C	06/25/2021	23:57	-132.598	47.318	0	251.80	0	6.1700	0	33.8280	0	26.608	0	249.551	0	139.4	4	46.2	4	-1E+10	1	-1E+10	1	-1E+10	1	-1E+10	1	-1E+10	1	-1E+10	1
4902549	32	C	06/25/2021	23:57	-132.598	47.318	0	253.00	0	6.1560	0	33.8280	0	26.610	0	250.739	0	138.8	4	46.0	4	-1E+10	1	-1E+10	1	-1E+10	1	-1E+10	1	-1E+10	1	-1E+10	1
4902549	32	C	06/25/2021	23:57	-132.598	47.318	0	254.30	0	6.1390	0	33.8290	0	26.613	0	252.027	0	138.3	4	45.8	4	-1E+10	1	-1E+10	1	-1E+10	1	-1E+10	1	-1E+10	1	-1E+10	1
4902549	32	C	06/25/2021	23:57	-132.598	47.318	0	255.10	0	6.1300	0	33.8290	0	26.614	0	252.819	0	138.0	4	45.7	4	-1E+10	1	-1E+10	1	-1E+10	1	-1E+10	1	-1E+10	1	-1E+10	1
4902549	32	C	06/25/2021	23:57	-132.598	47.318	0	255.90	0	6.1260	0	33.8290	0	26.614	0	253.611	0	137.6	4	45.6	4	-1E+10	1	-1E+10	1	-1E+10	1	-1E+10	1	-1E+10	1	-1E+10	1
4902549	32	C	06/25/2021	23:57	-132.598	47.318	0	256.70	0	6.1190	0	33.8280	0	26.615	0	254.404	0	137.2	4	45.4	4	-1E+10	1	-1E+10	1	-1E+10	1	-1E+10	1	-1E+10	1	-1E+10	1
4902549	32	C	06/25/2021	23:57	-132.598	47.318	0	257.90	0	6.1080	0	33.8290	0	26.617	0	255.592	0	136.6	4	45.2	4	-1E+10	1	-1E+10	1	-1E+10	1	-1E+10	1	-1E+10	1	-1E+10	1
4902549	32	C	06/25/2021	23:57	-132.598	47.318	0	259.20	0	6.0980	0	33.8290	0	26.618	0	256.880	0	135.9	4	45.0	4	-1E+10	1	-1E+10	1	-1E+10	1	-1E+10	1	-1E+10	1	-1E+10	1
4902549	32	C	06/25/2021	23:57	-132.598	47.318	0	260.00	0	6.0950	0	33.8290	0	26.618	0	257.672	0	135.3	4	44.8	4	-1E+10	1	-1E+10	1	-1E+10	1	-1E+10	1	-1E+10	1	-1E+10	1
4902549	32	C	06/25/2021	23:57	-132.598	47.318	0	260.80	0	6.0910	0	33.8290	0	26.619	0	258.465	0	134.8	4	44.6	4	-1E+10	1	-1E+10	1	-1E+10	1	-1E+10	1	-1E+10	1	-1E+10	1
4902549	32	C	06/25/2021	23:57	-132.598	47.318	0	261.60	0	6.0890	0	33.8260	0	26.617	0	259.257	0	134.1	4	44.4	4	-1E+10	1	-1E+10	1	-1E+10	1	-1E+10	1	-1E+10	1	-1E+10	1
4902549	32	C	06/25/2021	23:57	-132.598	47.318	0	262.90	0	6.0410	0	33.8290	0	26.625	0	260.544	0	133.2	4	44.0	4	-1E+10	1	-1E+10	1	-1E+10	1	-1E+10	1	-1E+10	1	-1E+10	1
4902549	32	C	06/25/2021	23:57	-132.598	47.318	0	264.20	0	5.9900	0	33.8360	0	26.637	0	261.832	0	132.6	4	43.8	4	-1E+10	1	-1E+10	1	-1E+10	1	-1E+10	1	-1E+10	1	-1E+10	1
4902549	32	C	06/25/2021	23:57	-132.598	47.318	0	265.00	0	5.9800	0	33.8330	0	26.636	0	262.624	0	132.2	4	43.6	4	-1E+10	1	-1E+10	1	-1E+10	1	-1E+10	1	-1E+10	1	-1E+10	1
4902549	32	C	06/25/2021	23:57	-132.598	47.318	0	265.80	0	5.9720	0	33.8340	0	26.638	0	263.417	0	131.8	4	43.5	4	-1E+10	1	-1E+10	1	-1E+10	1	-1E+10	1	-1E+10	1	-1E+10	1
4902549	32	C	06/25/2021	23:57	-132.598	47.318	0	266.70	0	5.9600	0	33.8340	0	26.639	0	264.308	0	131.4	4	43.3	4	-1E+10	1	-1E+10	1	-1E+10	1	-1E+10	1	-1E+10	1	-1E+10	1
4902549	32	C	06/25/2021	23:57	-132.598	47.318	0	267.90	0	5.9450	0	33.8340	0	26.641	0	265.496	0	130.8	4	43.1	4	-1E+10	1	-1E+10	1	-1E+10	1	-1E+10	1	-1E+10	1	-1E+10	1
4902549	32	C	06/25/2021	23:57	-132.598	47.318	0	269.20	0	5.9240	0	33.8350	0	26.645	0	266.784	0	130.2	4	42.9	4	-1E+10	1	-1E+10	1	-1E+10	1	-1E+10	1	-1E+10	1	-1E+10	1
4902549	32	C	06/25/2021	23:57	-132.598	47.318	0	270.00	0	5.9200	0	33.8350	0	26.645	0	267.576	0	129.8	4	42.8	4	-1E+10	1	-1E+10	1	-1E+10	1	-1E+10	1	-1E+10	1	-1E+10	1
4902549	32	C	06/25/2021	23:57	-132.598	47.318	0	270.90	0	5.9000	0	33.8360	0	26.648	0	268.468	0	129.5	4	42.7	4	-1E+10	1	-1E+10	1	-1E+10	1	-1E+10	1	-1E+10	1	-1E+10	1
4902549	32	C	06/25/2021	23:57	-132.598	47.318	0	271.70	0	5.8890	0	33.8390	0	26.652	0	269.260	0	129.2	4	42.5	4	-1E+10	1	-1E+10	1	-1E+10	1	-1E+10	1	-1E+10	1	-1E+10	1
4902549	32	C	06/25/2021	23:57	-132.598	47.318	0	273.00	0	5.8780	0	33.8360	0	26.651	0	270.547	0	128.7	4	42.4	4	-1E+10	1	-1E+10	1	-1E+10	1	-1E+10	1	-1E+10	1	-1E+10	1
4902549	32	C	06/25/2021	23:57	-132.598	47.318	0	274.20	0	5.8700	0	33.8370	0	26.653	0	271.736	0	128.2	4	42.2	4	-1E+10	1	-1E+10	1	-1E+10	1	-1E+10	1	-1E+10	1	-1E+10	1
4902549	32	C	06/25/2021	23:57	-132.598	47.318	0	275.10	0	5.8700	0	33.8370	0	26.653	0	272.627	0	127.8	4	42.1	4	-1E+10	1	-1E+10	1	-1E+10	1	-1E+10	1	-1E+10	1	-1E+10	1
4902549	32	C	06/25/2021	23:57	-132.598	47.318	0	275.90	0	5.8660	0	33.8370	0	26.653	0	273.419	0	127.3	4	41.9	4	-1E+10	1	-1E+10	1	-1E+10	1	-1E+10	1	-1E+10	1	-1E+10	1
4902549	32	C	06/25/2021	23:57	-132.598	47.318	0	276.80	0	5.8620	0	33.8380	0	26.655	0	274.311	0	126.8	4	41.8	4	-1E+10	1	-1E+10	1	-1E+10	1	-1E+10	1	-1E+10	1	-1E+10	1
4902549	32	C	06/25/2021	23:57	-132.598	47.318	0	278.00	0	5.8560	0	33.8370	0	26.655	0	275.499	0	126.0	4	41.5	4	-1E+10	1	-1E+10	1	-1E+10	1	-1E+10	1	-1E+10	1	-1E+10	1
4902549	32	C	06/25/2021	23:57	-132.598	47.318	0	279.30	0	5.8410	0	33.8380	0	26.657	0	276.786	0	125.1	4	41.2	4	-1E+10	1	-1E+10	1	-1E+10	1	-1E+10	1	-1E+10	1	-1E+10	1
4902549	32	C	06/25/2021	23:57	-132.598	47.318	0	280.10	0	5.8340	0	33.8390	0	26.659	0	277.579	0	124.5	4	40.9	4	-1E+10	1	-1E+10	1	-1E+10	1	-1E+10	1	-1E+10	1	-1E+10	1
4902549	32	C	06/25/2021	23:57	-132.598	47.318	0	280.90	0	5.8240	0	33.8380	0	26.659	0	278.371	0	123.8	4	40.7	4	-1E+10	1	-1E+10	1	-1E+10	1	-1E+10	1	-1E+10	1	-1E+10	1
4902549	32	C	06/25/2021	23:57	-132.598	47.318	0	281.80	0	5.8070	0	33.8390	0	26.662	0	279.262	0	123.1	4	40.5	4	-1E+10	1	-1E+10	1	-1E+10	1	-1E+10	1	-1E+10	1	-1E+10	1
4902549	32	C	06/25/2021	23:57	-132.598	47.318	0	283.00	0	5.7790	0	33.8400	0	26.666	0	280.451	0	122.3	4	40.2	4	-1E+10	1	-1E+10	1	-1E+10	1	-1E+10	1	-1E+10	1	-1E+10	1
4902549	32	C	06/25/2021	23:57	-132.598	47.318	0	284.20	0	5.7660	0	33.8410	0	26.669	0	281.639	0	121.4	4	39.9	4	-1E+10	1	-1E+10	1	-1E+10	1	-1E+10	1	-1E+10	1	-1E+10	1
4902549	32	C	06/25/2021	23:57	-132.598	47.318	0	285.00	0	5.7530	0	33.8400	0	26.670	0	282.431	0	120.7	4	39.6	4	-1E+10	1	-1E+10	1	-1E+10	1	-1E+10	1	-1E+10	1	-1E+10	1
4902549	32	C	06/25/2021	23:57	-132.598	47.318	0	285.90	0	5.7340	0	33.8420	0	26.674	0	283.323	0	120.1	4	39.4	4	-1E+10	1	-1E+10	1	-1E+10	1	-1E+10	1	-1E+10	1	-1E+10	1
4902549	32	C	06/25/2021	23:57	-132.598	47.318	0	286.70	0	5.7130	0	33.8410	0	26.675	0	284.115	0	119.6	4	39.2	4	-1E+10	1	-1E+10	1	-1E+10	1	-1E+10	1	-1E+10	1	-1E+10	1
4902549	32	C	06/25/2021	23:57	-132.598	47.318	0	288.00	0	5.6680	0	33.8450	0	26.684	0	285.402	0	119.0	4	39.0	4	-1E+10	1	-1E+10	1	-1E+10	1	-1E+10	1	-1E+10	1	-1E+10	1
4902549	32	C	06/25/2021	23:57	-132.598	47.318	0	289.30	0	5.6250	0	33.8460	0	26.690	0	286.690	0	118.6	4	38.8	4	-1E+10	1	-1E+10	1	-1E+10	1	-1E+10	1	-1E+10	1	-1E+10	1
4902549	32	C	06/25/2021	23:57	-132.598	47.318	0	290.20	0	5.6160	0	33.8460	0	26.691	0	287.581	0	118.2	4	38.7	4	-1E+10	1	-1E+10	1	-1E+10	1	-1E+10	1	-1E+10	1	-1E+10	1
4902549	32	C	06/25/2021	23:57	-132.598	47.318	0	291.00	0	5.6120	0	33.8460	0	26.692	0	288.373	0	117.9	4	38.6	4	-1E+10	1	-1E+10	1	-1E+10	1	-1E+10	1	-1E+10	1	-1E+10	1
4902549	32	C	06/25/2021	23:57	-132.598	47.318	0	291.90	0	5.6030	0	33.8470	0	26.693	0	289.264	0	117.6	4	38.5	4	-1E+10	1	-1E+10	1	-1E+10	1	-1E+10	1	-1E+10	1	-1E+10	1
4902549	32	C	06/25/2021	23:57	-132.598	47.318	0	292.80	0	5.5930	0	33.8470	0	26.695	0	290.156	0	117.3	4	38.4	4	-1E+10	1	-1E+10	1	-1E+10	1	-1E+10	1	-1E+10	1	-1E+10	1
4902549	32	C	06/25/2021	23:57	-132.598	47.318	0	293.70	0	5.5890	0	33.8470	0	26.695	0	291.047	0	117.0	4	38.3	4	-1E+10	1	-1E+10	1	-1E+10	1	-1E+10	1	-1E+10	1	-1E+10	1
4902549	32	C	06/25/2021	23:57	-132.598	47.318	0	294.90	0	5.5830	0	33.8460	0	26.695	0	292.235	0	116.5	4	38.1	4	-1E+10	1	-1E+10	1	-1E+10	1	-1E+10	1	-1E+10	1	-1E+10	1
4902549	32	C	06/25/2021	23:57	-132.598	47.318	0	296.30	0	5.5790	0	33.8460	0	26.696	0	293.621	0	115.8	4	37.9	4	-1E+10	1	-1E+10	1	-1E+10	1	-1E+10	1	-1E+10	1	-1E+10	1
4902549	32	C	06/25/2021	23:57	-132.598	47.318	0	297.10	0	5.5650	0	33.8490	0	26.700	0	294.414	0	115.4	4	37.7	4	-1E+10	1	-1E+10	1	-1E+10	1	-1E+10	1	-1E+10	1	-1E+10	1
4902549	32	C	06/25/2021	23:57	-132.598	47.318	0	298.00	0	5.5570	0	33.8470	0	26.699	0	295.305	0	115.1	4	37.6	4	-1E+10	1	-1E+10	1	-1E+10	1	-1E+10	1	-1E+10	1	-1E+10	1
4902549	32	C	06/25/2021	23:57	-132.598	47.318	0	298.90	0	5.5410	0	33.8470	0	26.701	0	296.196	0	114.7	4	37.5	4	-1E+10	1	-1E+10	1	-1E+10	1	-1E+10	1	-1E+10	1	-1E+10	1
4902549	32	C	06/25/2021	23:57	-132.598	47.318	0	299.80	0	5.5370	0	33.8470	0	26.701	0	297.087	0	114.4	4	37.4	4	-1E+10	1	-1E+10	1	-1E+10	1	-1E+10	1	-1E+10	1	-1E+10	1
4902549	32	C	06/25/2021	23:57	-132.598	47.318	0	300.70	0	5.5140	0	33.8530	0	26.709	0	297.979	0	114.1	4	37.3	4	-1E+10	1	-1E+10	1	-1E+10	1	-1E+10	1	-1E+10	1	-1E+10	1
4902549	32	C	06/25/2021	23:57	-132.598	47.318	0	301.60	0	5.5110	0	33.8500	0	26.707	0	298.870	0	113.8	4	37.1	4	-1E+10	1	-1E+10	1	-1E+10	1	-1E+10	1	-1E+10	1	-1E+10	1
4902549	32	C	06/25/2021	23:57	-132.598	47.318	0	302.90	0	5.5050	0	33.8510	0	26.708	0	300.157	0	113.2	4	37.0	4	-1E+10	1	-1E+10	1	-1E+10	1	-1E+10	1	-1E+10	1	-1E+10	1
4902549	32	C	06/25/2021	23:57	-132.598	47.318	0	304.30	0	5.4910	0	33.8510	0	26.710	0	301.543	0	112.7	4	36.8	4	-1E+10	1	-1E+10	1	-1E+10	1	-1E+10	1	-1E+10	1	-1E+10	1
4902549	32	C	06/25/2021	23:57	-132.598	47.318	0	305.20	0	5.4880	0	33.8510	0	26.711	0	302.435	0	112.4	4	36.7	4	-1E+10	1	-1E+10	1	-1E+10	1	-1E+10	1	-1E+10	1	-1E+10	1
4902549	32	C	06/25/2021	23:57	-132.598	47.318	0	306.20	0	5.4810	0	33.8520	0	26.712	0	303.425	0	112.0	4	36.5	4	-1E+10	1	-1E+10	1	-1E+10	1	-1E+10	1	-1E+10	1	-1E+10	1
4902549	32	C	06/25/2021	23:57	-132.598	47.318	0	307.10	0	5.4710	0	33.8520	0	26.713	0	304.316	0	111.7	4	36.4	4	-1E+10	1	-1E+10	1	-1E+10	1	-1E+10	1	-1E+10	1	-1E+10	1
4902549	32	C	06/25/2021	23:57	-132.598	47.318	0	308.00	0	5.4620	0	33.8520	0	26.714	0	305.207	0	111.3	4	36.3	4	-1E+10	1	-1E+10	1	-1E+10	1	-1E+10	1	-1E+10	1	-1E+10	1
4902549	32	C	06/25/2021	23:57	-132.598	47.318	0	308.90	0	5.4580	0	33.8520	0	26.715	0	306.098	0	110.9	4	36.2	4	-1E+10	1	-1E+10	1	-1E+10	1	-1E+10	1	-1E+10	1	-1E+10	1
4902549	32	C	06/25/2021	23:57	-132.598	47.318	0	309.90	0	5.4560	0	33.8530	0	26.716	0	307.088	0	110.6	4	36.0	4	-1E+10	1	-1E+10	1	-1E+10	1	-1E+10	1	-1E+10	1	-1E+10	1
4902549	32	C	06/25/2021	23:57	-132.598	47.318	0	310.80	0	5.4480	0	33.8530	0	26.717	0	307.980	0	110.2	4	35.9	4	-1E+10	1	-1E+10	1	-1E+10	1	-1E+10	1	-1E+10	1	-1E+10	1
4902549	32	C	06/25/2021	23:57	-132.598	47.318	0	311.70	0	5.4290	0	33.8530	0	26.719	0	308.871	0	109.8	4	35.8	4	-1E+10	1	-1E+10	1	-1E+10	1	-1E+10	1	-1E+10	1	-1E+10	1
4902549	32	C	06/25/2021	23:57	-132.598	47.318	0	312.70	0	5.4270	0	33.8520	0	26.719	0	309.861	0	109.4	4	35.6	4	-1E+10	1	-1E+10	1	-1E+10	1	-1E+10	1	-1E+10	1	-1E+10	1
4902549	32	C	06/25/2021	23:57	-132.598	47.318	0	313.60	0	5.4250	0	33.8520	0	26.719	0	310.752	0	108.9	4	35.5	4	-1E+10	1	-1E+10	1	-1E+10	1	-1E+10	1	-1E+10	1	-1E+10	1
4902549	32	C	06/25/2021	23:57	-132.598	47.318	0	314.60	0	5.4120	0	33.8550	0	26.723	0	311.742	0	108.3	4	35.3	4	-1E+10	1	-1E+10	1	-1E+10	1	-1E+10	1	-1E+10	1	-1E+10	1
4902549	32	C	06/25/2021	23:57	-132.598	47.318	0	315.50	0	5.4040	0	33.8540	0	26.723	0	312.633	0	107.8	4	35.1	4	-1E+10	1	-1E+10	1	-1E+10	1	-1E+10	1	-1E+10	1	-1E+10	1
4902549	32	C	06/25/2021	23:57	-132.598	47.318	0	316.90	0	5.3900	0	33.8520	0	26.723	0	314.020	0	106.9	4	34.8	4	-1E+10	1	-1E+10	1	-1E+10	1	-1E+10	1	-1E+10	1	-1E+10	1
4902549	32	C	06/25/2021	23:57	-132.598	47.318	0	318.40	0	5.3780	0	33.8560	0	26.728	0	315.505	0	106.0	4	34.5	4	-1E+10	1	-1E+10	1	-1E+10	1	-1E+10	1	-1E+10	1	-1E+10	1
4902549	32	C	06/25/2021	23:57	-132.598	47.318	0	319.40	0	5.3460	0	33.8550	0	26.731	0	316.495	0	105.7	4	34.4	4	-1E+10	1	-1E+10	1	-1E+10	1	-1E+10	1	-1E+10	1	-1E+10	1
4902549	32	C	06/25/2021	23:57	-132.598	47.318	0	320.40	0	5.3410	0	33.8560	0	26.732	0	317.485	0	105.1	4	34.2	4	-1E+10	1	-1E+10	1	-1E+10	1	-1E+10	1	-1E+10	1	-1E+10	1
4902549	32	C	06/25/2021	23:57	-132.598	47.318	0	321.30	0	5.3330	0	33.8570	0	26.734	0	318.376	0	104.6	4	34.0	4	-1E+10	1	-1E+10	1	-1E+10	1	-1E+10	1	-1E+10	1	-1E+10	1
4902549	32	C	06/25/2021	23:57	-132.598	47.318	0	322.30	0	5.3220	0	33.8580	0	26.736	0	319.366	0	104.1	4	33.8	4	-1E+10	1	-1E+10	1	-1E+10	1	-1E+10	1	-1E+10	1	-1E+10	1
4902549	32	C	06/25/2021	23:57	-132.598	47.318	0	323.30	0	5.2970	0	33.8590	0	26.740	0	320.356	0	103.8	4	33.7	4	-1E+10	1	-1E+10	1	-1E+10	1	-1E+10	1	-1E+10	1	-1E+10	1
4902549	32	C	06/25/2021	23:57	-132.598	47.318	0	324.20	0	5.2890	0	33.8570	0	26.739	0	321.248	0	103.3	4	33.6	4	-1E+10	1	-1E+10	1	-1E+10	1	-1E+10	1	-1E+10	1	-1E+10	1
4902549	32	C	06/25/2021	23:57	-132.598	47.318	0	325.20	0	5.2660	0	33.8600	0	26.744	0	322.238	0	102.9	4	33.4	4	-1E+10	1	-1E+10	1	-1E+10	1	-1E+10	1	-1E+10	1	-1E+10	1
4902549	32	C	06/25/2021	23:57	-132.598	47.318	0	326.20	0	5.2580	0	33.8610	0	26.746	0	323.228	0	102.7	4	33.3	4	-1E+10	1	-1E+10	1	-1E+10	1	-1E+10	1	-1E+10	1	-1E+10	1
4902549	32	C	06/25/2021	23:57	-132.598	47.318	0	327.20	0	5.2520	0	33.8610	0	26.746	0	324.218	0	102.4	4	33.2	4	-1E+10	1	-1E+10	1	-1E+10	1	-1E+10	1	-1E+10	1	-1E+10	1
4902549	32	C	06/25/2021	23:57	-132.598	47.318	0	328.30	0	5.2440	0	33.8620	0	26.748	0	325.307	0	102.1	4	33.1	4	-1E+10	1	-1E+10	1	-1E+10	1	-1E+10	1	-1E+10	1	-1E+10	1
4902549	32	C	06/25/2021	23:57	-132.598	47.318	0	329.30	0	5.2420	0	33.8620	0	26.748	0	326.297	0	101.8	4	33.0	4	-1E+10	1	-1E+10	1	-1E+10	1	-1E+10	1	-1E+10	1	-1E+10	1
4902549	32	C	06/25/2021	23:57	-132.598	47.318	0	330.30	0	5.2350	0	33.8630	0	26.750	0	327.287	0	101.5	4	32.9	4	-1E+10	1	-1E+10	1	-1E+10	1	-1E+10	1	-1E+10	1	-1E+10	1
4902549	32	C	06/25/2021	23:57	-132.598	47.318	0	331.30	0	5.2350	0	33.8640	0	26.751	0	328.277	0	101.2	4	32.8	4	-1E+10	1	-1E+10	1	-1E+10	1	-1E+10	1	-1E+10	1	-1E+10	1
4902549	32	C	06/25/2021	23:57	-132.598	47.318	0	332.40	0	5.2320	0	33.8640	0	26.751	0	329.366	0	100.9	4	32.7	4	-1E+10	1	-1E+10	1	-1E+10	1	-1E+10	1	-1E+10	1	-1E+10	1
4902549	32	C	06/25/2021	23:57	-132.598	47.318	0	333.40	0	5.2250	0	33.8650	0	26.753	0	330.356	0	100.6	4	32.6	4	-1E+10	1	-1E+10	1	-1E+10	1	-1E+10	1	-1E+10	1	-1E+10	1
4902549	32	C	06/25/2021	23:57	-132.598	47.318	0	334.50	0	5.2250	0	33.8650	0	26.753	0	331.446	0	100.2	4	32.5	4	-1E+10	1	-1E+10	1	-1E+10	1	-1E+10	1	-1E+10	1	-1E+10	1
4902549	32	C	06/25/2021	23:57	-132.598	47.318	0	335.50	0	5.2210	0	33.8660	0	26.754	0	332.436	0	99.9	4	32.4	4	-1E+10	1	-1E+10	1	-1E+10	1	-1E+10	1	-1E+10	1	-1E+10	1
4902549	32	C	06/25/2021	23:57	-132.598	47.318	0	336.50	0	5.2130	0	33.8670	0	26.756	0	333.426	0	99.6	4	32.3	4	-1E+10	1	-1E+10	1	-1E+10	1	-1E+10	1	-1E+10	1	-1E+10	1
4902549	32	C	06/25/2021	23:57	-132.598	47.318	0	337.60	0	5.2130	0	33.8660	0	26.755	0	334.515	0	99.3	4	32.2	4	-1E+10	1	-1E+10	1	-1E+10	1	-1E+10	1	-1E+10	1	-1E+10	1
4902549	32	C	06/25/2021	23:57	-132.598	47.318	0	338.60	0	5.2040	0	33.8670	0	26.757	0	335.505	0	98.9	4	32.1	4	-1E+10	1	-1E+10	1	-1E+10	1	-1E+10	1	-1E+10	1	-1E+10	1
4902549	32	C	06/25/2021	23:57	-132.598	47.318	0	339.70	0	5.2020	0	33.8670	0	26.757	0	336.594	0	98.6	4	32.0	4	-1E+10	1	-1E+10	1	-1E+10	1	-1E+10	1	-1E+10	1	-1E+10	1
4902549	32	C	06/25/2021	23:57	-132.598	47.318	0	340.70	0	5.1960	0	33.8680	0	26.759	0	337.584	0	98.2	4	31.8	4	-1E+10	1	-1E+10	1	-1E+10	1	-1E+10	1	-1E+10	1	-1E+10	1
4902549	32	C	06/25/2021	23:57	-132.598	47.318	0	341.80	0	5.1940	0	33.8680	0	26.759	0	338.673	0	97.8	4	31.7	4	-1E+10	1	-1E+10	1	-1E+10	1	-1E+10	1	-1E+10	1	-1E+10	1
4902549	32	C	06/25/2021	23:57	-132.598	47.318	0	342.80	0	5.1900	0	33.8680	0	26.759	0	339.663	0	97.4	4	31.6	4	-1E+10	1	-1E+10	1	-1E+10	1	-1E+10	1	-1E+10	1	-1E+10	1
4902549	32	C	06/25/2021	23:57	-132.598	47.318	0	343.80	0	5.1820	0	33.8680	0	26.760	0	340.653	0	96.9	4	31.4	4	-1E+10	1	-1E+10	1	-1E+10	1	-1E+10	1	-1E+10	1	-1E+10	1
4902549	32	C	06/25/2021	23:57	-132.598	47.318	0	344.90	0	5.1780	0	33.8710	0	26.763	0	341.742	0	96.4	4	31.2	4	-1E+10	1	-1E+10	1	-1E+10	1	-1E+10	1	-1E+10	1	-1E+10	1
4902549	32	C	06/25/2021	23:57	-132.598	47.318	0	345.90	0	5.1690	0	33.8690	0	26.762	0	342.732	0	95.9	4	31.1	4	-1E+10	1	-1E+10	1	-1E+10	1	-1E+10	1	-1E+10	1	-1E+10	1
4902549	32	C	06/25/2021	23:57	-132.598	47.318	0	347.00	0	5.1420	0	33.8710	0	26.767	0	343.821	0	95.6	4	31.0	4	-1E+10	1	-1E+10	1	-1E+10	1	-1E+10	1	-1E+10	1	-1E+10	1
4902549	32	C	06/25/2021	23:57	-132.598	47.318	0	348.00	0	5.1320	0	33.8720	0	26.769	0	344.811	0	95.3	4	30.9	4	-1E+10	1	-1E+10	1	-1E+10	1	-1E+10	1	-1E+10	1	-1E+10	1
4902549	32	C	06/25/2021	23:57	-132.598	47.318	0	349.10	0	5.1280	0	33.8720	0	26.770	0	345.900	0	95.0	4	30.7	4	-1E+10	1	-1E+10	1	-1E+10	1	-1E+10	1	-1E+10	1	-1E+10	1
4902549	32	C	06/25/2021	23:57	-132.598	47.318	0	350.10	0	5.1270	0	33.8720	0	26.770	0	346.890	0	94.6	4	30.6	4	-1E+10	1	-1E+10	1	-1E+10	1	-1E+10	1	-1E+10	1	-1E+10	1
4902549	32	C	06/25/2021	23:57	-132.598	47.318	0	353.10	0	5.1180	0	33.8720	0	26.771	0	349.860	0	93.3	4	30.2	4	-1E+10	1	-1E+10	1	-1E+10	1	-1E+10	1	-1E+10	1	-1E+10	1
4902549	32	C	06/25/2021	23:57	-132.598	47.318	0	358.20	0	5.1000	0	33.8750	0	26.775	0	354.909	0	90.0	4	29.1	4	-1E+10	1	-1E+10	1	-1E+10	1	-1E+10	1	-1E+10	1	-1E+10	1
4902549	32	C	06/25/2021	23:57	-132.598	47.318	0	363.30	0	5.1100	0	33.8890	0	26.785	0	359.958	0	86.8	4	28.1	4	-1E+10	1	-1E+10	1	-1E+10	1	-1E+10	1	-1E+10	1	-1E+10	1
4902549	32	C	06/25/2021	23:57	-132.598	47.318	0	367.90	0	5.1240	0	33.8950	0	26.788	0	364.511	0	84.8	4	27.4	4	-1E+10	1	-1E+10	1	-1E+10	1	-1E+10	1	-1E+10	1	-1E+10	1
4902549	32	C	06/25/2021	23:57	-132.598	47.318	0	372.50	0	5.1040	0	33.8990	0	26.794	0	369.065	0	82.7	4	26.7	4	-1E+10	1	-1E+10	1	-1E+10	1	-1E+10	1	-1E+10	1	-1E+10	1
4902549	32	C	06/25/2021	23:57	-132.598	47.318	0	377.50	0	5.0610	0	33.9050	0	26.804	0	374.014	0	80.6	4	26.0	4	-1E+10	1	-1E+10	1	-1E+10	1	-1E+10	1	-1E+10	1	-1E+10	1
4902549	32	C	06/25/2021	23:57	-132.598	47.318	0	382.50	0	5.0320	0	33.9090	0	26.810	0	378.963	0	78.9	4	25.5	4	-1E+10	1	-1E+10	1	-1E+10	1	-1E+10	1	-1E+10	1	-1E+10	1
4902549	32	C	06/25/2021	23:57	-132.598	47.318	0	387.60	0	4.9990	0	33.9140	0	26.818	0	384.012	0	77.0	4	24.8	4	-1E+10	1	-1E+10	1	-1E+10	1	-1E+10	1	-1E+10	1	-1E+10	1
4902549	32	C	06/25/2021	23:57	-132.598	47.318	0	392.70	0	4.9650	0	33.9170	0	26.824	0	389.060	0	75.6	4	24.4	4	-1E+10	1	-1E+10	1	-1E+10	1	-1E+10	1	-1E+10	1	-1E+10	1
4902549	32	C	06/25/2021	23:57	-132.598	47.318	0	397.80	0	4.9280	0	33.9210	0	26.832	0	394.107	0	74.4	4	24.0	4	-1E+10	1	-1E+10	1	-1E+10	1	-1E+10	1	-1E+10	1	-1E+10	1
4902549	32	C	06/25/2021	23:57	-132.598	47.318	0	402.90	0	4.8950	0	33.9230	0	26.837	0	399.155	0	73.2	4	23.6	4	-1E+10	1	-1E+10	1	-1E+10	1	-1E+10	1	-1E+10	1	-1E+10	1
4902549	32	C	06/25/2021	23:57	-132.598	47.318	0	408.10	0	4.8660	0	33.9250	0	26.842	0	404.302	0	71.8	4	23.1	4	-1E+10	1	-1E+10	1	-1E+10	1	-1E+10	1	-1E+10	1	-1E+10	1
4902549	32	C	06/25/2021	23:57	-132.598	47.318	0	412.80	0	4.8410	0	33.9280	0	26.847	0	408.953	0	70.4	4	22.6	4	-1E+10	1	-1E+10	1	-1E+10	1	-1E+10	1	-1E+10	1	-1E+10	1
4902549	32	C	06/25/2021	23:57	-132.598	47.318	0	417.50	0	4.8050	0	33.9340	0	26.856	0	413.605	0	69.2	4	22.2	4	-1E+10	1	-1E+10	1	-1E+10	1	-1E+10	1	-1E+10	1	-1E+10	1
4902549	32	C	06/25/2021	23:57	-132.598	47.318	0	422.70	0	4.7750	0	33.9350	0	26.860	0	418.751	0	67.8	4	21.8	4	-1E+10	1	-1E+10	1	-1E+10	1	-1E+10	1	-1E+10	1	-1E+10	1
4902549	32	C	06/25/2021	23:57	-132.598	47.318	0	427.70	0	4.7360	0	33.9400	0	26.868	0	423.699	0	66.0	4	21.2	4	-1E+10	1	-1E+10	1	-1E+10	1	-1E+10	1	-1E+10	1	-1E+10	1
4902549	32	C	06/25/2021	23:57	-132.598	47.318	0	432.90	0	4.6940	0	33.9460	0	26.878	0	428.845	0	64.8	4	20.8	4	-1E+10	1	-1E+10	1	-1E+10	1	-1E+10	1	-1E+10	1	-1E+10	1
4902549	32	C	06/25/2021	23:57	-132.598	47.318	0	437.80	0	4.6600	0	33.9480	0	26.883	0	433.694	0	63.5	4	20.3	4	-1E+10	1	-1E+10	1	-1E+10	1	-1E+10	1	-1E+10	1	-1E+10	1
4902549	32	C	06/25/2021	23:57	-132.598	47.318	0	442.60	0	4.6270	0	33.9520	0	26.890	0	438.444	0	61.8	4	19.8	4	-1E+10	1	-1E+10	1	-1E+10	1	-1E+10	1	-1E+10	1	-1E+10	1
4902549	32	C	06/25/2021	23:57	-132.598	47.318	0	447.70	0	4.5960	0	33.9590	0	26.899	0	443.491	0	60.1	4	19.2	4	-1E+10	1	-1E+10	1	-1E+10	1	-1E+10	1	-1E+10	1	-1E+10	1
4902549	32	C	06/25/2021	23:57	-132.598	47.318	0	452.80	0	4.5630	0	33.9660	0	26.908	0	448.537	0	58.7	4	18.8	4	-1E+10	1	-1E+10	1	-1E+10	1	-1E+10	1	-1E+10	1	-1E+10	1
4902549	32	C	06/25/2021	23:57	-132.598	47.318	0	458.00	0	4.5450	0	33.9690	0	26.912	0	453.683	0	57.3	4	18.3	4	-1E+10	1	-1E+10	1	-1E+10	1	-1E+10	1	-1E+10	1	-1E+10	1
4902549	32	C	06/25/2021	23:57	-132.598	47.318	0	462.80	0	4.5250	0	33.9740	0	26.919	0	458.432	0	55.7	4	17.8	4	-1E+10	1	-1E+10	1	-1E+10	1	-1E+10	1	-1E+10	1	-1E+10	1
4902549	32	C	06/25/2021	23:57	-132.598	47.318	0	467.70	0	4.5080	0	33.9790	0	26.924	0	463.281	0	54.3	4	17.3	4	-1E+10	1	-1E+10	1	-1E+10	1	-1E+10	1	-1E+10	1	-1E+10	1
4902549	32	C	06/25/2021	23:57	-132.598	47.318	0	473.10	0	4.4810	0	33.9840	0	26.931	0	468.623	0	52.9	4	16.9	4	-1E+10	1	-1E+10	1	-1E+10	1	-1E+10	1	-1E+10	1	-1E+10	1
4902549	32	C	06/25/2021	23:57	-132.598	47.318	0	478.10	0	4.4520	0	33.9890	0	26.938	0	473.570	0	51.3	4	16.3	4	-1E+10	1	-1E+10	1	-1E+10	1	-1E+10	1	-1E+10	1	-1E+10	1
4902549	32	C	06/25/2021	23:57	-132.598	47.318	0	483.10	0	4.4280	0	33.9960	0	26.947	0	478.517	0	49.6	4	15.8	4	-1E+10	1	-1E+10	1	-1E+10	1	-1E+10	1	-1E+10	1	-1E+10	1
4902549	32	C	06/25/2021	23:57	-132.598	47.318	0	488.10	0	4.4090	0	34.0010	0	26.953	0	483.464	0	47.6	4	15.1	4	-1E+10	1	-1E+10	1	-1E+10	1	-1E+10	1	-1E+10	1	-1E+10	1
4902549	32	C	06/25/2021	23:57	-132.598	47.318	0	492.70	0	4.3840	0	34.0080	0	26.961	0	488.015	0	45.9	4	14.6	4	-1E+10	1	-1E+10	1	-1E+10	1	-1E+10	1	-1E+10	1	-1E+10	1
4902549	32	C	06/25/2021	23:57	-132.598	47.318	0	497.90	0	4.3610	0	34.0170	0	26.970	0	493.159	0	44.2	4	14.0	4	-1E+10	1	-1E+10	1	-1E+10	1	-1E+10	1	-1E+10	1	-1E+10	1
4902549	32	C	06/25/2021	23:57	-132.598	47.318	0	503.10	0	4.3500	0	34.0230	0	26.976	0	498.304	0	42.6	4	13.5	4	-1E+10	1	-1E+10	1	-1E+10	1	-1E+10	1	-1E+10	1	-1E+10	1
4902549	32	C	06/25/2021	23:57	-132.598	47.318	0	507.70	0	4.3280	0	34.0290	0	26.984	0	502.854	0	41.0	4	13.0	4	-1E+10	1	-1E+10	1	-1E+10	1	-1E+10	1	-1E+10	1	-1E+10	1
4902549	32	C	06/25/2021	23:57	-132.598	47.318	0	512.90	0	4.3180	0	34.0350	0	26.989	0	507.998	0	39.5	4	12.6	4	-1E+10	1	-1E+10	1	-1E+10	1	-1E+10	1	-1E+10	1	-1E+10	1
4902549	32	C	06/25/2021	23:57	-132.598	47.318	0	518.10	0	4.2980	0	34.0420	0	26.997	0	513.142	0	38.1	4	12.1	4	-1E+10	1	-1E+10	1	-1E+10	1	-1E+10	1	-1E+10	1	-1E+10	1
4902549	32	C	06/25/2021	23:57	-132.598	47.318	0	522.80	0	4.2860	0	34.0470	0	27.002	0	517.791	0	37.1	4	11.8	4	-1E+10	1	-1E+10	1	-1E+10	1	-1E+10	1	-1E+10	1	-1E+10	1
4902549	32	C	06/25/2021	23:57	-132.598	47.318	0	528.00	0	4.2720	0	34.0520	0	27.008	0	522.935	0	36.4	4	11.6	4	-1E+10	1	-1E+10	1	-1E+10	1	-1E+10	1	-1E+10	1	-1E+10	1
4902549	32	C	06/25/2021	23:57	-132.598	47.318	0	533.20	0	4.2600	0	34.0550	0	27.012	0	528.078	0	35.7	4	11.3	4	-1E+10	1	-1E+10	1	-1E+10	1	-1E+10	1	-1E+10	1	-1E+10	1
4902549	32	C	06/25/2021	23:57	-132.598	47.318	0	537.90	0	4.2450	0	34.0580	0	27.016	0	532.727	0	35.2	4	11.2	4	-1E+10	1	-1E+10	1	-1E+10	1	-1E+10	1	-1E+10	1	-1E+10	1
4902549	32	C	06/25/2021	23:57	-132.598	47.318	0	542.70	0	4.2260	0	34.0610	0	27.020	0	537.475	0	34.4	4	10.9	4	-1E+10	1	-1E+10	1	-1E+10	1	-1E+10	1	-1E+10	1	-1E+10	1
4902549	32	C	06/25/2021	23:57	-132.598	47.318	0	547.90	0	4.2100	0	34.0660	0	27.026	0	542.618	0	33.6	4	10.7	4	-1E+10	1	-1E+10	1	-1E+10	1	-1E+10	1	-1E+10	1	-1E+10	1
4902549	32	C	06/25/2021	23:57	-132.598	47.318	0	553.20	0	4.2030	0	34.0690	0	27.029	0	547.860	0	32.9	4	10.4	4	-1E+10	1	-1E+10	1	-1E+10	1	-1E+10	1	-1E+10	1	-1E+10	1
4902549	32	C	06/25/2021	23:57	-132.598	47.318	0	557.90	0	4.1950	0	34.0710	0	27.031	0	552.508	0	32.3	4	10.2	4	-1E+10	1	-1E+10	1	-1E+10	1	-1E+10	1	-1E+10	1	-1E+10	1
4902549	32	C	06/25/2021	23:57	-132.598	47.318	0	562.60	0	4.1880	0	34.0730	0	27.034	0	557.157	0	31.4	4	10.0	4	-1E+10	1	-1E+10	1	-1E+10	1	-1E+10	1	-1E+10	1	-1E+10	1
4902549	32	C	06/25/2021	23:57	-132.598	47.318	0	567.90	0	4.1780	0	34.0780	0	27.039	0	562.398	0	30.3	4	9.6	4	-1E+10	1	-1E+10	1	-1E+10	1	-1E+10	1	-1E+10	1	-1E+10	1
4902549	32	C	06/25/2021	23:57	-132.598	47.318	0	573.20	0	4.1590	0	34.0840	0	27.045	0	567.640	0	29.2	4	9.2	4	-1E+10	1	-1E+10	1	-1E+10	1	-1E+10	1	-1E+10	1	-1E+10	1
4902549	32	C	06/25/2021	23:57	-132.598	47.318	0	578.10	0	4.1450	0	34.0880	0	27.050	0	572.485	0	28.1	4	8.9	4	-1E+10	1	-1E+10	1	-1E+10	1	-1E+10	1	-1E+10	1	-1E+10	1
4902549	32	C	06/25/2021	23:57	-132.598	47.318	0	583.10	0	4.1400	0	34.0920	0	27.054	0	577.430	0	26.7	4	8.5	4	-1E+10	1	-1E+10	1	-1E+10	1	-1E+10	1	-1E+10	1	-1E+10	1
4902549	32	C	06/25/2021	23:57	-132.598	47.318	0	588.10	0	4.1300	0	34.0990	0	27.061	0	582.374	0	25.9	4	8.2	4	-1E+10	1	-1E+10	1	-1E+10	1	-1E+10	1	-1E+10	1	-1E+10	1
4902549	32	C	06/25/2021	23:57	-132.598	47.318	0	593.30	0	4.1190	0	34.1020	0	27.064	0	587.516	0	25.0	4	7.9	4	-1E+10	1	-1E+10	1	-1E+10	1	-1E+10	1	-1E+10	1	-1E+10	1
4902549	32	C	06/25/2021	23:57	-132.598	47.318	0	598.20	0	4.1100	0	34.1080	0	27.070	0	592.362	0	24.4	4	7.7	4	-1E+10	1	-1E+10	1	-1E+10	1	-1E+10	1	-1E+10	1	-1E+10	1
4902549	32	C	06/25/2021	23:57	-132.598	47.318	0	602.60	0	4.0900	0	34.1120	0	27.075	0	596.712	0	24.3	4	7.7	4	-1E+10	1	-1E+10	1	-1E+10	1	-1E+10	1	-1E+10	1	-1E+10	1
4902549	32	C	06/25/2021	23:57	-132.598	47.318	0	607.60	0	4.0680	0	34.1140	0	27.079	0	601.656	0	23.7	4	7.5	4	-1E+10	1	-1E+10	1	-1E+10	1	-1E+10	1	-1E+10	1	-1E+10	1
4902549	32	C	06/25/2021	23:57	-132.598	47.318	0	612.60	0	4.0600	0	34.1180	0	27.083	0	606.600	0	23.1	4	7.3	4	-1E+10	1	-1E+10	1	-1E+10	1	-1E+10	1	-1E+10	1	-1E+10	1
4902549	32	C	06/25/2021	23:57	-132.598	47.318	0	617.70	0	4.0430	0	34.1220	0	27.088	0	611.643	0	22.4	4	7.1	4	-1E+10	1	-1E+10	1	-1E+10	1	-1E+10	1	-1E+10	1	-1E+10	1
4902549	32	C	06/25/2021	23:57	-132.598	47.318	0	622.90	0	4.0370	0	34.1260	0	27.092	0	616.784	0	21.8	4	6.9	4	-1E+10	1	-1E+10	1	-1E+10	1	-1E+10	1	-1E+10	1	-1E+10	1
4902549	32	C	06/25/2021	23:57	-132.598	47.318	0	628.10	0	4.0340	0	34.1290	0	27.095	0	621.925	0	21.1	4	6.7	4	-1E+10	1	-1E+10	1	-1E+10	1	-1E+10	1	-1E+10	1	-1E+10	1
4902549	32	C	06/25/2021	23:57	-132.598	47.318	0	632.90	0	4.0320	0	34.1320	0	27.097	0	626.671	0	20.7	4	6.6	4	-1E+10	1	-1E+10	1	-1E+10	1	-1E+10	1	-1E+10	1	-1E+10	1
4902549	32	C	06/25/2021	23:57	-132.598	47.318	0	637.80	0	4.0200	0	34.1350	0	27.101	0	631.515	0	20.4	4	6.4	4	-1E+10	1	-1E+10	1	-1E+10	1	-1E+10	1	-1E+10	1	-1E+10	1
4902549	32	C	06/25/2021	23:57	-132.598	47.318	0	643.00	0	4.0140	0	34.1370	0	27.103	0	636.656	0	20.0	4	6.3	4	-1E+10	1	-1E+10	1	-1E+10	1	-1E+10	1	-1E+10	1	-1E+10	1
4902549	32	C	06/25/2021	23:57	-132.598	47.318	0	647.90	0	4.0060	0	34.1400	0	27.106	0	641.500	0	19.7	4	6.2	4	-1E+10	1	-1E+10	1	-1E+10	1	-1E+10	1	-1E+10	1	-1E+10	1
4902549	32	C	06/25/2021	23:57	-132.598	47.318	0	652.80	0	4.0040	0	34.1420	0	27.108	0	646.344	0	19.2	4	6.1	4	-1E+10	1	-1E+10	1	-1E+10	1	-1E+10	1	-1E+10	1	-1E+10	1
4902549	32	C	06/25/2021	23:57	-132.598	47.318	0	658.10	0	3.9860	0	34.1480	0	27.115	0	651.583	0	19.1	4	6.0	4	-1E+10	1	-1E+10	1	-1E+10	1	-1E+10	1	-1E+10	1	-1E+10	1
4902549	32	C	06/25/2021	23:57	-132.598	47.318	0	662.90	0	3.9710	0	34.1510	0	27.119	0	656.328	0	19.1	4	6.0	4	-1E+10	1	-1E+10	1	-1E+10	1	-1E+10	1	-1E+10	1	-1E+10	1
4902549	32	C	06/25/2021	23:57	-132.598	47.318	0	667.70	0	3.9640	0	34.1520	0	27.120	0	661.073	0	19.3	4	6.1	4	-1E+10	1	-1E+10	1	-1E+10	1	-1E+10	1	-1E+10	1	-1E+10	1
4902549	32	C	06/25/2021	23:57	-132.598	47.318	0	672.80	0	3.9290	0	34.1530	0	27.125	0	666.114	0	19.2	4	6.1	4	-1E+10	1	-1E+10	1	-1E+10	1	-1E+10	1	-1E+10	1	-1E+10	1
4902549	32	C	06/25/2021	23:57	-132.598	47.318	0	677.90	0	3.9060	0	34.1570	0	27.130	0	671.155	0	19.0	4	6.0	4	-1E+10	1	-1E+10	1	-1E+10	1	-1E+10	1	-1E+10	1	-1E+10	1
4902549	32	C	06/25/2021	23:57	-132.598	47.318	0	683.00	0	3.8920	0	34.1600	0	27.134	0	676.196	0	18.4	4	5.8	4	-1E+10	1	-1E+10	1	-1E+10	1	-1E+10	1	-1E+10	1	-1E+10	1
4902549	32	C	06/25/2021	23:57	-132.598	47.318	0	688.10	0	3.8810	0	34.1650	0	27.139	0	681.237	0	18.0	4	5.7	4	-1E+10	1	-1E+10	1	-1E+10	1	-1E+10	1	-1E+10	1	-1E+10	1
4902549	32	C	06/25/2021	23:57	-132.598	47.318	0	692.90	0	3.8710	0	34.1680	0	27.143	0	685.982	0	17.7	4	5.6	4	-1E+10	1	-1E+10	1	-1E+10	1	-1E+10	1	-1E+10	1	-1E+10	1
4902549	32	C	06/25/2021	23:57	-132.598	47.318	0	697.60	0	3.8610	0	34.1710	0	27.146	0	690.627	0	17.4	4	5.5	4	-1E+10	1	-1E+10	1	-1E+10	1	-1E+10	1	-1E+10	1	-1E+10	1
4902549	32	C	06/25/2021	23:57	-132.598	47.318	0	702.70	0	3.8560	0	34.1740	0	27.149	0	695.667	0	17.0	4	5.3	4	-1E+10	1	-1E+10	1	-1E+10	1	-1E+10	1	-1E+10	1	-1E+10	1
4902549	32	C	06/25/2021	23:57	-132.598	47.318	0	707.80	0	3.8330	0	34.1800	0	27.156	0	700.708	0	16.4	4	5.1	4	-1E+10	1	-1E+10	1	-1E+10	1	-1E+10	1	-1E+10	1	-1E+10	1
4902549	32	C	06/25/2021	23:57	-132.598	47.318	0	713.00	0	3.8200	0	34.1840	0	27.161	0	705.847	0	15.7	4	5.0	4	-1E+10	1	-1E+10	1	-1E+10	1	-1E+10	1	-1E+10	1	-1E+10	1
4902549	32	C	06/25/2021	23:57	-132.598	47.318	0	717.90	0	3.8150	0	34.1860	0	27.163	0	710.689	0	15.1	4	4.7	4	-1E+10	1	-1E+10	1	-1E+10	1	-1E+10	1	-1E+10	1	-1E+10	1
4902549	32	C	06/25/2021	23:57	-132.598	47.318	0	722.70	0	3.8080	0	34.1920	0	27.168	0	715.433	0	14.2	4	4.5	4	-1E+10	1	-1E+10	1	-1E+10	1	-1E+10	1	-1E+10	1	-1E+10	1
4902549	32	C	06/25/2021	23:57	-132.598	47.318	0	728.10	0	3.7950	0	34.2000	0	27.176	0	720.769	0	13.6	4	4.3	4	-1E+10	1	-1E+10	1	-1E+10	1	-1E+10	1	-1E+10	1	-1E+10	1
4902549	32	C	06/25/2021	23:57	-132.598	47.318	0	733.10	0	3.7820	0	34.2040	0	27.180	0	725.710	0	13.2	4	4.1	4	-1E+10	1	-1E+10	1	-1E+10	1	-1E+10	1	-1E+10	1	-1E+10	1
4902549	32	C	06/25/2021	23:57	-132.598	47.318	0	738.10	0	3.7730	0	34.2070	0	27.184	0	730.651	0	12.9	4	4.0	4	-1E+10	1	-1E+10	1	-1E+10	1	-1E+10	1	-1E+10	1	-1E+10	1
4902549	32	C	06/25/2021	23:57	-132.598	47.318	0	743.20	0	3.7630	0	34.2100	0	27.187	0	735.691	0	12.4	4	3.9	4	-1E+10	1	-1E+10	1	-1E+10	1	-1E+10	1	-1E+10	1	-1E+10	1
4902549	32	C	06/25/2021	23:57	-132.598	47.318	0	747.90	0	3.7510	0	34.2140	0	27.192	0	740.335	0	12.1	4	3.8	4	-1E+10	1	-1E+10	1	-1E+10	1	-1E+10	1	-1E+10	1	-1E+10	1
4902549	32	C	06/25/2021	23:57	-132.598	47.318	0	752.70	0	3.7470	0	34.2160	0	27.194	0	745.078	0	11.9	4	3.7	4	-1E+10	1	-1E+10	1	-1E+10	1	-1E+10	1	-1E+10	1	-1E+10	1
4902549	32	C	06/25/2021	23:57	-132.598	47.318	0	757.50	0	3.7380	0	34.2190	0	27.197	0	749.820	0	11.6	4	3.6	4	-1E+10	1	-1E+10	1	-1E+10	1	-1E+10	1	-1E+10	1	-1E+10	1
4902549	32	C	06/25/2021	23:57	-132.598	47.318	0	762.90	0	3.7280	0	34.2220	0	27.200	0	755.156	0	11.4	4	3.6	4	-1E+10	1	-1E+10	1	-1E+10	1	-1E+10	1	-1E+10	1	-1E+10	1
4902549	32	C	06/25/2021	23:57	-132.598	47.318	0	768.40	0	3.7160	0	34.2240	0	27.203	0	760.590	0	11.1	4	3.5	4	-1E+10	1	-1E+10	1	-1E+10	1	-1E+10	1	-1E+10	1	-1E+10	1
4902549	32	C	06/25/2021	23:57	-132.598	47.318	0	773.40	0	3.6980	0	34.2280	0	27.208	0	765.530	0	10.9	4	3.4	4	-1E+10	1	-1E+10	1	-1E+10	1	-1E+10	1	-1E+10	1	-1E+10	1
4902549	32	C	06/25/2021	23:57	-132.598	47.318	0	778.00	0	3.6830	0	34.2310	0	27.212	0	770.075	0	10.7	4	3.4	4	-1E+10	1	-1E+10	1	-1E+10	1	-1E+10	1	-1E+10	1	-1E+10	1
4902549	32	C	06/25/2021	23:57	-132.598	47.318	0	782.60	0	3.6680	0	34.2350	0	27.217	0	774.619	0	10.6	4	3.3	4	-1E+10	1	-1E+10	1	-1E+10	1	-1E+10	1	-1E+10	1	-1E+10	1
4902549	32	C	06/25/2021	23:57	-132.598	47.318	0	787.80	0	3.6500	0	34.2380	0	27.221	0	779.757	0	10.5	4	3.3	4	-1E+10	1	-1E+10	1	-1E+10	1	-1E+10	1	-1E+10	1	-1E+10	1
4902549	32	C	06/25/2021	23:57	-132.598	47.318	0	792.80	0	3.6390	0	34.2400	0	27.224	0	784.696	0	10.3	4	3.2	4	-1E+10	1	-1E+10	1	-1E+10	1	-1E+10	1	-1E+10	1	-1E+10	1
4902549	32	C	06/25/2021	23:57	-132.598	47.318	0	798.00	0	3.6270	0	34.2420	0	27.226	0	789.833	0	10.3	4	3.2	4	-1E+10	1	-1E+10	1	-1E+10	1	-1E+10	1	-1E+10	1	-1E+10	1
4902549	32	C	06/25/2021	23:57	-132.598	47.318	0	803.20	0	3.6120	0	34.2460	0	27.231	0	794.970	0	10.2	4	3.2	4	-1E+10	1	-1E+10	1	-1E+10	1	-1E+10	1	-1E+10	1	-1E+10	1
4902549	32	C	06/25/2021	23:57	-132.598	47.318	0	808.00	0	3.6000	0	34.2480	0	27.234	0	799.712	0	10.3	4	3.2	4	-1E+10	1	-1E+10	1	-1E+10	1	-1E+10	1	-1E+10	1	-1E+10	1
4902549	32	C	06/25/2021	23:57	-132.598	47.318	0	812.80	0	3.5920	0	34.2490	0	27.235	0	804.453	0	10.3	4	3.2	4	-1E+10	1	-1E+10	1	-1E+10	1	-1E+10	1	-1E+10	1	-1E+10	1
4902549	32	C	06/25/2021	23:57	-132.598	47.318	0	818.00	0	3.5860	0	34.2500	0	27.237	0	809.590	0	10.3	4	3.2	4	-1E+10	1	-1E+10	1	-1E+10	1	-1E+10	1	-1E+10	1	-1E+10	1
4902549	32	C	06/25/2021	23:57	-132.598	47.318	0	822.90	0	3.5740	0	34.2520	0	27.240	0	814.430	0	10.4	4	3.2	4	-1E+10	1	-1E+10	1	-1E+10	1	-1E+10	1	-1E+10	1	-1E+10	1
4902549	32	C	06/25/2021	23:57	-132.598	47.318	0	827.60	0	3.5630	0	34.2550	0	27.243	0	819.072	0	10.4	4	3.3	4	-1E+10	1	-1E+10	1	-1E+10	1	-1E+10	1	-1E+10	1	-1E+10	1
4902549	32	C	06/25/2021	23:57	-132.598	47.318	0	832.80	0	3.5530	0	34.2560	0	27.245	0	824.208	0	10.4	4	3.3	4	-1E+10	1	-1E+10	1	-1E+10	1	-1E+10	1	-1E+10	1	-1E+10	1
4902549	32	C	06/25/2021	23:57	-132.598	47.318	0	838.10	0	3.5480	0	34.2570	0	27.246	0	829.443	0	10.4	4	3.2	4	-1E+10	1	-1E+10	1	-1E+10	1	-1E+10	1	-1E+10	1	-1E+10	1
4902549	32	C	06/25/2021	23:57	-132.598	47.318	0	842.90	0	3.5410	0	34.2590	0	27.249	0	834.184	0	10.3	4	3.2	4	-1E+10	1	-1E+10	1	-1E+10	1	-1E+10	1	-1E+10	1	-1E+10	1
4902549	32	C	06/25/2021	23:57	-132.598	47.318	0	847.60	0	3.5320	0	34.2610	0	27.251	0	838.826	0	10.2	4	3.2	4	-1E+10	1	-1E+10	1	-1E+10	1	-1E+10	1	-1E+10	1	-1E+10	1
4902549	32	C	06/25/2021	23:57	-132.598	47.318	0	852.90	0	3.5180	0	34.2650	0	27.256	0	844.061	0	10.1	4	3.1	4	-1E+10	1	-1E+10	1	-1E+10	1	-1E+10	1	-1E+10	1	-1E+10	1
4902549	32	C	06/25/2021	23:57	-132.598	47.318	0	858.00	0	3.5090	0	34.2660	0	27.257	0	849.097	0	10.0	4	3.1	4	-1E+10	1	-1E+10	1	-1E+10	1	-1E+10	1	-1E+10	1	-1E+10	1
4902549	32	C	06/25/2021	23:57	-132.598	47.318	0	863.20	0	3.4960	0	34.2710	0	27.263	0	854.233	0	9.8	4	3.1	4	-1E+10	1	-1E+10	1	-1E+10	1	-1E+10	1	-1E+10	1	-1E+10	1
4902549	32	C	06/25/2021	23:57	-132.598	47.318	0	868.10	0	3.4870	0	34.2730	0	27.265	0	859.072	0	9.6	4	3.0	4	-1E+10	1	-1E+10	1	-1E+10	1	-1E+10	1	-1E+10	1	-1E+10	1
4902549	32	C	06/25/2021	23:57	-132.598	47.318	0	872.90	0	3.4790	0	34.2760	0	27.268	0	863.812	0	9.4	4	2.9	4	-1E+10	1	-1E+10	1	-1E+10	1	-1E+10	1	-1E+10	1	-1E+10	1
4902549	32	C	06/25/2021	23:57	-132.598	47.318	0	877.80	0	3.4660	0	34.2790	0	27.272	0	868.651	0	9.1	4	2.8	4	-1E+10	1	-1E+10	1	-1E+10	1	-1E+10	1	-1E+10	1	-1E+10	1
4902549	32	C	06/25/2021	23:57	-132.598	47.318	0	882.60	0	3.4610	0	34.2820	0	27.275	0	873.391	0	8.9	4	2.8	4	-1E+10	1	-1E+10	1	-1E+10	1	-1E+10	1	-1E+10	1	-1E+10	1
4902549	32	C	06/25/2021	23:57	-132.598	47.318	0	887.90	0	3.4560	0	34.2850	0	27.278	0	878.624	0	8.5	4	2.7	4	-1E+10	1	-1E+10	1	-1E+10	1	-1E+10	1	-1E+10	1	-1E+10	1
4902549	32	C	06/25/2021	23:57	-132.598	47.318	0	892.90	0	3.4480	0	34.2910	0	27.283	0	883.562	0	8.1	4	2.5	4	-1E+10	1	-1E+10	1	-1E+10	1	-1E+10	1	-1E+10	1	-1E+10	1
4902549	32	C	06/25/2021	23:57	-132.598	47.318	0	897.80	0	3.4390	0	34.2960	0	27.288	0	888.400	0	7.9	4	2.5	4	-1E+10	1	-1E+10	1	-1E+10	1	-1E+10	1	-1E+10	1	-1E+10	1
4902549	32	C	06/25/2021	23:57	-132.598	47.318	0	902.90	0	3.4310	0	34.2990	0	27.291	0	893.436	0	7.8	4	2.4	4	-1E+10	1	-1E+10	1	-1E+10	1	-1E+10	1	-1E+10	1	-1E+10	1
4902549	32	C	06/25/2021	23:57	-132.598	47.318	0	908.00	0	3.4250	0	34.3000	0	27.293	0	898.471	0	7.6	4	2.4	4	-1E+10	1	-1E+10	1	-1E+10	1	-1E+10	1	-1E+10	1	-1E+10	1
4902549	32	C	06/25/2021	23:57	-132.598	47.318	0	913.00	0	3.4160	0	34.3030	0	27.296	0	903.408	0	7.4	4	2.3	4	-1E+10	1	-1E+10	1	-1E+10	1	-1E+10	1	-1E+10	1	-1E+10	1
4902549	32	C	06/25/2021	23:57	-132.598	47.318	0	918.00	0	3.4080	0	34.3070	0	27.300	0	908.345	0	7.3	4	2.3	4	-1E+10	1	-1E+10	1	-1E+10	1	-1E+10	1	-1E+10	1	-1E+10	1
4902549	32	C	06/25/2021	23:57	-132.598	47.318	0	923.10	0	3.4020	0	34.3110	0	27.304	0	913.380	0	7.1	4	2.2	4	-1E+10	1	-1E+10	1	-1E+10	1	-1E+10	1	-1E+10	1	-1E+10	1
4902549	32	C	06/25/2021	23:57	-132.598	47.318	0	927.80	0	3.3990	0	34.3140	0	27.307	0	918.020	0	7.1	4	2.2	4	-1E+10	1	-1E+10	1	-1E+10	1	-1E+10	1	-1E+10	1	-1E+10	1
4902549	32	C	06/25/2021	23:57	-132.598	47.318	0	933.00	0	3.3910	0	34.3160	0	27.309	0	923.154	0	7.0	4	2.2	4	-1E+10	1	-1E+10	1	-1E+10	1	-1E+10	1	-1E+10	1	-1E+10	1
4902549	32	C	06/25/2021	23:57	-132.598	47.318	0	938.10	0	3.3890	0	34.3180	0	27.311	0	928.189	0	7.0	4	2.2	4	-1E+10	1	-1E+10	1	-1E+10	1	-1E+10	1	-1E+10	1	-1E+10	1
4902549	32	C	06/25/2021	23:57	-132.598	47.318	0	942.80	0	3.3690	0	34.3200	0	27.314	0	932.828	0	7.1	4	2.2	4	-1E+10	1	-1E+10	1	-1E+10	1	-1E+10	1	-1E+10	1	-1E+10	1
4902549	32	C	06/25/2021	23:57	-132.598	47.318	0	948.00	0	3.3570	0	34.3220	0	27.317	0	937.962	0	7.1	4	2.2	4	-1E+10	1	-1E+10	1	-1E+10	1	-1E+10	1	-1E+10	1	-1E+10	1
4902549	32	C	06/25/2021	23:57	-132.598	47.318	0	953.10	0	3.3400	0	34.3250	0	27.321	0	942.996	0	7.1	4	2.2	4	-1E+10	1	-1E+10	1	-1E+10	1	-1E+10	1	-1E+10	1	-1E+10	1
4902549	32	C	06/25/2021	23:57	-132.598	47.318	0	957.90	0	3.3300	0	34.3270	0	27.324	0	947.735	0	7.1	4	2.2	4	-1E+10	1	-1E+10	1	-1E+10	1	-1E+10	1	-1E+10	1	-1E+10	1
4902549	32	C	06/25/2021	23:57	-132.598	47.318	0	962.70	0	3.3110	0	34.3280	0	27.326	0	952.473	0	7.1	4	2.2	4	-1E+10	1	-1E+10	1	-1E+10	1	-1E+10	1	-1E+10	1	-1E+10	1
4902549	32	C	06/25/2021	23:57	-132.598	47.318	0	967.90	0	3.3010	0	34.3300	0	27.329	0	957.606	0	6.9	4	2.1	4	-1E+10	1	-1E+10	1	-1E+10	1	-1E+10	1	-1E+10	1	-1E+10	1
4902549	32	C	06/25/2021	23:57	-132.598	47.318	0	973.20	0	3.2980	0	34.3320	0	27.331	0	962.837	0	6.9	4	2.1	4	-1E+10	1	-1E+10	1	-1E+10	1	-1E+10	1	-1E+10	1	-1E+10	1
4902549	32	C	06/25/2021	23:57	-132.598	47.318	0	978.10	0	3.2830	0	34.3350	0	27.334	0	967.674	0	6.8	4	2.1	4	-1E+10	1	-1E+10	1	-1E+10	1	-1E+10	1	-1E+10	1	-1E+10	1
4902549	32	C	06/25/2021	23:57	-132.598	47.318	0	983.10	0	3.2760	0	34.3370	0	27.337	0	972.609	0	6.8	4	2.1	4	-1E+10	1	-1E+10	1	-1E+10	1	-1E+10	1	-1E+10	1	-1E+10	1
4902549	32	C	06/25/2021	23:57	-132.598	47.318	0	988.00	0	3.2700	0	34.3380	0	27.338	0	977.445	0	6.8	4	2.1	4	-1E+10	1	-1E+10	1	-1E+10	1	-1E+10	1	-1E+10	1	-1E+10	1
4902549	32	C	06/25/2021	23:57	-132.598	47.318	0	993.00	0	3.2550	0	34.3410	0	27.342	0	982.380	0	6.8	4	2.1	4	-1E+10	1	-1E+10	1	-1E+10	1	-1E+10	1	-1E+10	1	-1E+10	1
4902549	32	C	06/25/2021	23:57	-132.598	47.318	0	998.00	0	3.2430	0	34.3440	0	27.346	0	987.315	0	6.9	4	2.1	4	-1E+10	1	-1E+10	1	-1E+10	1	-1E+10	1	-1E+10	1	-1E+10	1
4902549	32	C	06/25/2021	23:57	-132.598	47.318	0	1005.30	0	3.2290	0	34.3460	0	27.348	0	994.519	0	7.0	4	2.2	4	-1E+10	1	-1E+10	1	-1E+10	1	-1E+10	1	-1E+10	1	-1E+10	1
4902549	32	C	06/25/2021	23:57	-132.598	47.318	0	1015.20	0	3.1990	0	34.3490	0	27.354	0	1004.289	0	7.2	4	2.2	4	-1E+10	1	-1E+10	1	-1E+10	1	-1E+10	1	-1E+10	1	-1E+10	1
4902549	32	C	06/25/2021	23:57	-132.598	47.318	0	1025.30	0	3.1800	0	34.3520	0	27.358	0	1014.256	0	7.3	4	2.3	4	-1E+10	1	-1E+10	1	-1E+10	1	-1E+10	1	-1E+10	1	-1E+10	1
4902549	32	C	06/25/2021	23:57	-132.598	47.318	0	1035.40	0	3.1510	0	34.3550	0	27.363	0	1024.223	0	7.5	4	2.3	4	-1E+10	1	-1E+10	1	-1E+10	1	-1E+10	1	-1E+10	1	-1E+10	1
4902549	32	C	06/25/2021	23:57	-132.598	47.318	0	1045.60	0	3.1190	0	34.3600	0	27.370	0	1034.288	0	7.6	4	2.4	4	-1E+10	1	-1E+10	1	-1E+10	1	-1E+10	1	-1E+10	1	-1E+10	1
4902549	32	C	06/25/2021	23:57	-132.598	47.318	0	1055.40	0	3.1030	0	34.3630	0	27.374	0	1043.957	0	7.6	4	2.3	4	-1E+10	1	-1E+10	1	-1E+10	1	-1E+10	1	-1E+10	1	-1E+10	1
4902549	32	C	06/25/2021	23:57	-132.598	47.318	0	1065.30	0	3.0880	0	34.3670	0	27.379	0	1053.725	0	7.5	4	2.3	4	-1E+10	1	-1E+10	1	-1E+10	1	-1E+10	1	-1E+10	1	-1E+10	1
4902549	32	C	06/25/2021	23:57	-132.598	47.318	0	1075.20	0	3.0740	0	34.3710	0	27.383	0	1063.492	0	7.4	4	2.3	4	-1E+10	1	-1E+10	1	-1E+10	1	-1E+10	1	-1E+10	1	-1E+10	1
4902549	32	C	06/25/2021	23:57	-132.598	47.318	0	1085.50	0	3.0610	0	34.3760	0	27.388	0	1073.654	0	7.3	4	2.3	4	-1E+10	1	-1E+10	1	-1E+10	1	-1E+10	1	-1E+10	1	-1E+10	1
4902549	32	C	06/25/2021	23:57	-132.598	47.318	0	1095.70	0	3.0510	0	34.3800	0	27.392	0	1083.716	0	7.3	4	2.2	4	-1E+10	1	-1E+10	1	-1E+10	1	-1E+10	1	-1E+10	1	-1E+10	1
4902549	32	C	06/25/2021	23:57	-132.598	47.318	0	1105.50	0	3.0410	0	34.3830	0	27.396	0	1093.384	0	7.3	4	2.3	4	-1E+10	1	-1E+10	1	-1E+10	1	-1E+10	1	-1E+10	1	-1E+10	1
4902549	32	C	06/25/2021	23:57	-132.598	47.318	0	1115.50	0	3.0190	0	34.3880	0	27.402	0	1103.248	0	7.4	4	2.3	4	-1E+10	1	-1E+10	1	-1E+10	1	-1E+10	1	-1E+10	1	-1E+10	1
4902549	32	C	06/25/2021	23:57	-132.598	47.318	0	1125.50	0	3.0120	0	34.3920	0	27.406	0	1113.111	0	7.4	4	2.3	4	-1E+10	1	-1E+10	1	-1E+10	1	-1E+10	1	-1E+10	1	-1E+10	1
4902549	32	C	06/25/2021	23:57	-132.598	47.318	0	1135.30	0	3.0030	0	34.3960	0	27.410	0	1122.777	0	7.4	4	2.3	4	-1E+10	1	-1E+10	1	-1E+10	1	-1E+10	1	-1E+10	1	-1E+10	1
4902549	32	C	06/25/2021	23:57	-132.598	47.318	0	1145.20	0	2.9920	0	34.4000	0	27.414	0	1132.541	0	7.5	4	2.3	4	-1E+10	1	-1E+10	1	-1E+10	1	-1E+10	1	-1E+10	1	-1E+10	1
4902549	32	C	06/25/2021	23:57	-132.598	47.318	0	1155.30	0	2.9720	0	34.4030	0	27.418	0	1142.502	0	7.6	4	2.3	4	-1E+10	1	-1E+10	1	-1E+10	1	-1E+10	1	-1E+10	1	-1E+10	1
4902549	32	C	06/25/2021	23:57	-132.598	47.318	0	1165.40	0	2.9520	0	34.4050	0	27.422	0	1152.463	0	7.7	4	2.4	4	-1E+10	1	-1E+10	1	-1E+10	1	-1E+10	1	-1E+10	1	-1E+10	1
4902549	32	C	06/25/2021	23:57	-132.598	47.318	0	1175.40	0	2.9350	0	34.4090	0	27.427	0	1162.324	0	7.8	4	2.4	4	-1E+10	1	-1E+10	1	-1E+10	1	-1E+10	1	-1E+10	1	-1E+10	1
4902549	32	C	06/25/2021	23:57	-132.598	47.318	0	1185.70	0	2.9080	0	34.4140	0	27.433	0	1172.481	0	8.0	4	2.5	4	-1E+10	1	-1E+10	1	-1E+10	1	-1E+10	1	-1E+10	1	-1E+10	1
4902549	32	C	06/25/2021	23:57	-132.598	47.318	0	1195.60	0	2.8900	0	34.4160	0	27.436	0	1182.243	0	8.1	4	2.5	4	-1E+10	1	-1E+10	1	-1E+10	1	-1E+10	1	-1E+10	1	-1E+10	1
4902549	32	C	06/25/2021	23:57	-132.598	47.318	0	1205.60	0	2.8780	0	34.4170	0	27.438	0	1192.103	0	8.2	4	2.5	4	-1E+10	1	-1E+10	1	-1E+10	1	-1E+10	1	-1E+10	1	-1E+10	1
4902549	32	C	06/25/2021	23:57	-132.598	47.318	0	1215.90	0	2.8570	0	34.4230	0	27.445	0	1202.258	0	8.4	4	2.6	4	-1E+10	1	-1E+10	1	-1E+10	1	-1E+10	1	-1E+10	1	-1E+10	1
4902549	32	C	06/25/2021	23:57	-132.598	47.318	0	1225.70	0	2.8390	0	34.4260	0	27.449	0	1211.920	0	8.6	4	2.7	4	-1E+10	1	-1E+10	1	-1E+10	1	-1E+10	1	-1E+10	1	-1E+10	1
4902549	32	C	06/25/2021	23:57	-132.598	47.318	0	1235.50	0	2.8240	0	34.4300	0	27.453	0	1221.581	0	8.8	4	2.7	4	-1E+10	1	-1E+10	1	-1E+10	1	-1E+10	1	-1E+10	1	-1E+10	1
4902549	32	C	06/25/2021	23:57	-132.598	47.318	0	1245.40	0	2.8100	0	34.4320	0	27.456	0	1231.341	0	8.9	4	2.7	4	-1E+10	1	-1E+10	1	-1E+10	1	-1E+10	1	-1E+10	1	-1E+10	1
4902549	32	C	06/25/2021	23:57	-132.598	47.318	0	1255.40	0	2.7960	0	34.4350	0	27.460	0	1241.198	0	9.1	4	2.8	4	-1E+10	1	-1E+10	1	-1E+10	1	-1E+10	1	-1E+10	1	-1E+10	1
4902549	32	C	06/25/2021	23:57	-132.598	47.318	0	1265.30	0	2.7710	0	34.4390	0	27.465	0	1250.957	0	9.3	4	2.9	4	-1E+10	1	-1E+10	1	-1E+10	1	-1E+10	1	-1E+10	1	-1E+10	1
4902549	32	C	06/25/2021	23:57	-132.598	47.318	0	1275.30	0	2.7420	0	34.4420	0	27.470	0	1260.814	0	9.5	4	2.9	4	-1E+10	1	-1E+10	1	-1E+10	1	-1E+10	1	-1E+10	1	-1E+10	1
4902549	32	C	06/25/2021	23:57	-132.598	47.318	0	1285.50	0	2.7230	0	34.4440	0	27.474	0	1270.867	0	9.7	4	3.0	4	-1E+10	1	-1E+10	1	-1E+10	1	-1E+10	1	-1E+10	1	-1E+10	1
4902549	32	C	06/25/2021	23:57	-132.598	47.318	0	1295.60	0	2.7080	0	34.4470	0	27.477	0	1280.821	0	9.9	4	3.0	4	-1E+10	1	-1E+10	1	-1E+10	1	-1E+10	1	-1E+10	1	-1E+10	1
4902549	32	C	06/25/2021	23:57	-132.598	47.318	0	1305.30	0	2.6860	0	34.4500	0	27.482	0	1290.381	0	10.0	4	3.1	4	-1E+10	1	-1E+10	1	-1E+10	1	-1E+10	1	-1E+10	1	-1E+10	1
4902549	32	C	06/25/2021	23:57	-132.598	47.318	0	1315.20	0	2.6710	0	34.4530	0	27.486	0	1300.137	0	10.3	4	3.1	4	-1E+10	1	-1E+10	1	-1E+10	1	-1E+10	1	-1E+10	1	-1E+10	1
4902549	32	C	06/25/2021	23:57	-132.598	47.318	0	1325.30	0	2.6550	0	34.4550	0	27.489	0	1310.090	0	10.5	4	3.2	4	-1E+10	1	-1E+10	1	-1E+10	1	-1E+10	1	-1E+10	1	-1E+10	1
4902549	32	C	06/25/2021	23:57	-132.598	47.318	0	1335.50	0	2.6400	0	34.4580	0	27.492	0	1320.141	0	10.8	4	3.3	4	-1E+10	1	-1E+10	1	-1E+10	1	-1E+10	1	-1E+10	1	-1E+10	1
4902549	32	C	06/25/2021	23:57	-132.598	47.318	0	1345.60	0	2.6230	0	34.4610	0	27.496	0	1330.093	0	11.2	4	3.4	4	-1E+10	1	-1E+10	1	-1E+10	1	-1E+10	1	-1E+10	1	-1E+10	1
4902549	32	C	06/25/2021	23:57	-132.598	47.318	0	1355.40	0	2.6090	0	34.4630	0	27.499	0	1339.749	0	11.9	4	3.6	4	-1E+10	1	-1E+10	1	-1E+10	1	-1E+10	1	-1E+10	1	-1E+10	1
4902549	32	C	06/25/2021	23:57	-132.598	47.318	0	1365.20	0	2.5980	0	34.4670	0	27.503	0	1349.405	0	12.5	4	3.8	4	-1E+10	1	-1E+10	1	-1E+10	1	-1E+10	1	-1E+10	1	-1E+10	1
4902549	32	C	06/25/2021	23:57	-132.598	47.318	0	1375.20	0	2.5830	0	34.4700	0	27.507	0	1359.257	0	12.9	4	3.9	4	-1E+10	1	-1E+10	1	-1E+10	1	-1E+10	1	-1E+10	1	-1E+10	1
4902549	32	C	06/25/2021	23:57	-132.598	47.318	0	1385.30	0	2.5750	0	34.4720	0	27.509	0	1369.207	0	13.3	4	4.1	4	-1E+10	1	-1E+10	1	-1E+10	1	-1E+10	1	-1E+10	1	-1E+10	1
4902549	32	C	06/25/2021	23:57	-132.598	47.318	0	1395.90	0	2.5660	0	34.4740	0	27.512	0	1379.649	0	13.6	4	4.2	4	-1E+10	1	-1E+10	1	-1E+10	1	-1E+10	1	-1E+10	1	-1E+10	1
4902549	32	C	06/25/2021	23:57	-132.598	47.318	0	1405.40	0	2.5580	0	34.4760	0	27.514	0	1389.007	0	14.0	4	4.3	4	-1E+10	1	-1E+10	1	-1E+10	1	-1E+10	1	-1E+10	1	-1E+10	1
4902549	32	C	06/25/2021	23:57	-132.598	47.318	0	1415.50	0	2.5500	0	34.4780	0	27.516	0	1398.956	0	14.3	4	4.4	4	-1E+10	1	-1E+10	1	-1E+10	1	-1E+10	1	-1E+10	1	-1E+10	1
4902549	32	C	06/25/2021	23:57	-132.598	47.318	0	1425.60	0	2.5370	0	34.4790	0	27.518	0	1408.904	0	14.6	4	4.4	4	-1E+10	1	-1E+10	1	-1E+10	1	-1E+10	1	-1E+10	1	-1E+10	1
4902549	32	C	06/25/2021	23:57	-132.598	47.318	0	1435.70	0	2.5230	0	34.4810	0	27.521	0	1418.852	0	14.8	4	4.5	4	-1E+10	1	-1E+10	1	-1E+10	1	-1E+10	1	-1E+10	1	-1E+10	1
4902549	32	C	06/25/2021	23:57	-132.598	47.318	0	1445.50	0	2.5050	0	34.4830	0	27.524	0	1428.504	0	15.2	4	4.7	4	-1E+10	1	-1E+10	1	-1E+10	1	-1E+10	1	-1E+10	1	-1E+10	1
4902549	32	C	06/25/2021	23:57	-132.598	47.318	0	1455.30	0	2.4970	0	34.4850	0	27.527	0	1438.155	0	15.5	4	4.7	4	-1E+10	1	-1E+10	1	-1E+10	1	-1E+10	1	-1E+10	1	-1E+10	1
4902549	32	C	06/25/2021	23:57	-132.598	47.318	0	1465.30	0	2.4800	0	34.4860	0	27.529	0	1448.003	0	15.6	4	4.8	4	-1E+10	1	-1E+10	1	-1E+10	1	-1E+10	1	-1E+10	1	-1E+10	1
4902549	32	C	06/25/2021	23:57	-132.598	47.318	0	1475.50	0	2.4660	0	34.4880	0	27.532	0	1458.048	0	15.8	4	4.8	4	-1E+10	1	-1E+10	1	-1E+10	1	-1E+10	1	-1E+10	1	-1E+10	1
4902549	32	C	06/25/2021	23:57	-132.598	47.318	0	1485.70	0	2.4500	0	34.4890	0	27.534	0	1468.091	0	16.3	4	5.0	4	-1E+10	1	-1E+10	1	-1E+10	1	-1E+10	1	-1E+10	1	-1E+10	1
4902549	32	C	06/25/2021	23:57	-132.598	47.318	0	1495.60	0	2.4340	0	34.4920	0	27.538	0	1477.840	0	16.7	4	5.1	4	-1E+10	1	-1E+10	1	-1E+10	1	-1E+10	1	-1E+10	1	-1E+10	1
4902549	32	C	06/25/2021	23:57	-132.598	47.318	0	1505.60	0	2.4210	0	34.4950	0	27.541	0	1487.686	0	17.1	4	5.2	4	-1E+10	1	-1E+10	1	-1E+10	1	-1E+10	1	-1E+10	1	-1E+10	1
4902549	32	C	06/25/2021	23:57	-132.598	47.318	0	1515.60	0	2.4070	0	34.4970	0	27.544	0	1497.531	0	17.6	4	5.4	4	-1E+10	1	-1E+10	1	-1E+10	1	-1E+10	1	-1E+10	1	-1E+10	1
4902549	32	C	06/25/2021	23:57	-132.598	47.318	0	1525.50	0	2.3920	0	34.4990	0	27.547	0	1507.278	0	18.1	4	5.5	4	-1E+10	1	-1E+10	1	-1E+10	1	-1E+10	1	-1E+10	1	-1E+10	1
4902549	32	C	06/25/2021	23:57	-132.598	47.318	0	1535.50	0	2.3800	0	34.5020	0	27.550	0	1517.123	0	18.6	4	5.7	4	-1E+10	1	-1E+10	1	-1E+10	1	-1E+10	1	-1E+10	1	-1E+10	1
4902549	32	C	06/25/2021	23:57	-132.598	47.318	0	1545.30	0	2.3670	0	34.5040	0	27.553	0	1526.770	0	19.0	4	5.8	4	-1E+10	1	-1E+10	1	-1E+10	1	-1E+10	1	-1E+10	1	-1E+10	1
4902549	32	C	06/25/2021	23:57	-132.598	47.318	0	1555.20	0	2.3610	0	34.5050	0	27.555	0	1536.515	0	19.5	4	5.9	4	-1E+10	1	-1E+10	1	-1E+10	1	-1E+10	1	-1E+10	1	-1E+10	1
4902549	32	C	06/25/2021	23:57	-132.598	47.318	0	1565.20	0	2.3490	0	34.5070	0	27.557	0	1546.359	0	20.1	4	6.1	4	-1E+10	1	-1E+10	1	-1E+10	1	-1E+10	1	-1E+10	1	-1E+10	1
4902549	32	C	06/25/2021	23:57	-132.598	47.318	0	1575.30	0	2.3370	0	34.5090	0	27.560	0	1556.300	0	20.8	4	6.3	4	-1E+10	1	-1E+10	1	-1E+10	1	-1E+10	1	-1E+10	1	-1E+10	1
4902549	32	C	06/25/2021	23:57	-132.598	47.318	0	1585.70	0	2.3200	0	34.5120	0	27.564	0	1566.536	0	21.7	4	6.6	4	-1E+10	1	-1E+10	1	-1E+10	1	-1E+10	1	-1E+10	1	-1E+10	1
4902549	32	C	06/25/2021	23:57	-132.598	47.318	0	1595.70	0	2.3060	0	34.5150	0	27.567	0	1576.378	0	22.3	4	6.8	4	-1E+10	1	-1E+10	1	-1E+10	1	-1E+10	1	-1E+10	1	-1E+10	1
4902549	32	C	06/25/2021	23:57	-132.598	47.318	0	1605.40	0	2.2920	0	34.5170	0	27.570	0	1585.924	0	22.9	4	7.0	4	-1E+10	1	-1E+10	1	-1E+10	1	-1E+10	1	-1E+10	1	-1E+10	1
4902549	32	C	06/25/2021	23:57	-132.598	47.318	0	1615.30	0	2.2820	0	34.5190	0	27.572	0	1595.667	0	23.4	4	7.1	4	-1E+10	1	-1E+10	1	-1E+10	1	-1E+10	1	-1E+10	1	-1E+10	1
4902549	32	C	06/25/2021	23:57	-132.598	47.318	0	1626.00	0	2.2730	0	34.5210	0	27.575	0	1606.196	0	24.1	4	7.3	4	-1E+10	1	-1E+10	1	-1E+10	1	-1E+10	1	-1E+10	1	-1E+10	1
4902549	32	C	06/25/2021	23:57	-132.598	47.318	0	1635.70	0	2.2630	0	34.5230	0	27.577	0	1615.741	0	24.7	4	7.5	4	-1E+10	1	-1E+10	1	-1E+10	1	-1E+10	1	-1E+10	1	-1E+10	1
4902549	32	C	06/25/2021	23:57	-132.598	47.318	0	1645.40	0	2.2510	0	34.5250	0	27.580	0	1625.286	0	25.2	4	7.6	4	-1E+10	1	-1E+10	1	-1E+10	1	-1E+10	1	-1E+10	1	-1E+10	1
4902549	32	C	06/25/2021	23:57	-132.598	47.318	0	1655.30	0	2.2430	0	34.5260	0	27.581	0	1635.026	0	25.9	4	7.8	4	-1E+10	1	-1E+10	1	-1E+10	1	-1E+10	1	-1E+10	1	-1E+10	1
4902549	32	C	06/25/2021	23:57	-132.598	47.318	0	1665.50	0	2.2310	0	34.5290	0	27.585	0	1645.062	0	26.5	4	8.0	4	-1E+10	1	-1E+10	1	-1E+10	1	-1E+10	1	-1E+10	1	-1E+10	1
4902549	32	C	06/25/2021	23:57	-132.598	47.318	0	1675.50	0	2.2210	0	34.5310	0	27.587	0	1654.900	0	27.1	4	8.2	4	-1E+10	1	-1E+10	1	-1E+10	1	-1E+10	1	-1E+10	1	-1E+10	1
4902549	32	C	06/25/2021	23:57	-132.598	47.318	0	1685.30	0	2.2120	0	34.5320	0	27.589	0	1664.541	0	27.8	4	8.4	4	-1E+10	1	-1E+10	1	-1E+10	1	-1E+10	1	-1E+10	1	-1E+10	1
4902549	32	C	06/25/2021	23:57	-132.598	47.318	0	1695.40	0	2.1990	0	34.5350	0	27.592	0	1674.477	0	28.5	4	8.6	4	-1E+10	1	-1E+10	1	-1E+10	1	-1E+10	1	-1E+10	1	-1E+10	1
4902549	32	C	06/25/2021	23:57	-132.598	47.318	0	1705.70	0	2.1910	0	34.5360	0	27.594	0	1684.609	0	29.0	4	8.8	4	-1E+10	1	-1E+10	1	-1E+10	1	-1E+10	1	-1E+10	1	-1E+10	1
4902549	32	C	06/25/2021	23:57	-132.598	47.318	0	1715.50	0	2.1870	0	34.5370	0	27.595	0	1694.249	0	29.5	4	8.9	4	-1E+10	1	-1E+10	1	-1E+10	1	-1E+10	1	-1E+10	1	-1E+10	1
4902549	32	C	06/25/2021	23:57	-132.598	47.318	0	1725.10	0	2.1740	0	34.5400	0	27.599	0	1703.691	0	30.6	4	9.3	4	-1E+10	1	-1E+10	1	-1E+10	1	-1E+10	1	-1E+10	1	-1E+10	1
4902549	32	C	06/25/2021	23:57	-132.598	47.318	0	1735.30	0	2.1620	0	34.5420	0	27.601	0	1713.723	0	31.2	4	9.4	4	-1E+10	1	-1E+10	1	-1E+10	1	-1E+10	1	-1E+10	1	-1E+10	1
4902549	32	C	06/25/2021	23:57	-132.598	47.318	0	1745.70	0	2.1570	0	34.5430	0	27.602	0	1723.952	0	31.7	4	9.6	4	-1E+10	1	-1E+10	1	-1E+10	1	-1E+10	1	-1E+10	1	-1E+10	1
4902549	32	C	06/25/2021	23:57	-132.598	47.318	0	1755.80	0	2.1480	0	34.5450	0	27.605	0	1733.885	0	32.3	4	9.8	4	-1E+10	1	-1E+10	1	-1E+10	1	-1E+10	1	-1E+10	1	-1E+10	1
4902549	32	C	06/25/2021	23:57	-132.598	47.318	0	1765.40	0	2.1380	0	34.5460	0	27.606	0	1743.326	0	32.9	4	10.0	4	-1E+10	1	-1E+10	1	-1E+10	1	-1E+10	1	-1E+10	1	-1E+10	1
4902549	32	C	06/25/2021	23:57	-132.598	47.318	0	1775.10	0	2.1300	0	34.5480	0	27.609	0	1752.864	0	33.6	4	10.2	4	-1E+10	1	-1E+10	1	-1E+10	1	-1E+10	1	-1E+10	1	-1E+10	1
4902549	32	C	06/25/2021	23:57	-132.598	47.318	0	1785.20	0	2.1200	0	34.5500	0	27.611	0	1762.796	0	34.4	4	10.4	4	-1E+10	1	-1E+10	1	-1E+10	1	-1E+10	1	-1E+10	1	-1E+10	1
4902549	32	C	06/25/2021	23:57	-132.598	47.318	0	1795.30	0	2.1120	0	34.5510	0	27.613	0	1772.727	0	35.0	4	10.6	4	-1E+10	1	-1E+10	1	-1E+10	1	-1E+10	1	-1E+10	1	-1E+10	1
4902549	32	C	06/25/2021	23:57	-132.598	47.318	0	1805.60	0	2.1030	0	34.5530	0	27.615	0	1782.854	0	35.5	4	10.7	4	-1E+10	1	-1E+10	1	-1E+10	1	-1E+10	1	-1E+10	1	-1E+10	1
4902549	32	C	06/25/2021	23:57	-132.598	47.318	0	1815.40	0	2.0970	0	34.5540	0	27.616	0	1792.490	0	36.1	4	10.9	4	-1E+10	1	-1E+10	1	-1E+10	1	-1E+10	1	-1E+10	1	-1E+10	1
4902549	32	C	06/25/2021	23:57	-132.598	47.318	0	1825.30	0	2.0910	0	34.5550	0	27.618	0	1802.223	0	36.6	4	11.1	4	-1E+10	1	-1E+10	1	-1E+10	1	-1E+10	1	-1E+10	1	-1E+10	1
4902549	32	C	06/25/2021	23:57	-132.598	47.318	0	1835.30	0	2.0850	0	34.5570	0	27.620	0	1812.054	0	37.2	4	11.3	4	-1E+10	1	-1E+10	1	-1E+10	1	-1E+10	1	-1E+10	1	-1E+10	1
4902549	32	C	06/25/2021	23:57	-132.598	47.318	0	1845.30	0	2.0750	0	34.5580	0	27.621	0	1821.884	0	38.0	4	11.5	4	-1E+10	1	-1E+10	1	-1E+10	1	-1E+10	1	-1E+10	1	-1E+10	1
4902549	32	C	06/25/2021	23:57	-132.598	47.318	0	1855.40	0	2.0660	0	34.5600	0	27.624	0	1831.813	0	38.7	4	11.7	4	-1E+10	1	-1E+10	1	-1E+10	1	-1E+10	1	-1E+10	1	-1E+10	1
4902549	32	C	06/25/2021	23:57	-132.598	47.318	0	1865.40	0	2.0610	0	34.5610	0	27.625	0	1841.642	0	39.2	4	11.8	4	-1E+10	1	-1E+10	1	-1E+10	1	-1E+10	1	-1E+10	1	-1E+10	1
4902549	32	C	06/25/2021	23:57	-132.598	47.318	0	1875.30	0	2.0540	0	34.5630	0	27.627	0	1851.373	0	39.8	4	12.0	4	-1E+10	1	-1E+10	1	-1E+10	1	-1E+10	1	-1E+10	1	-1E+10	1
4902549	32	C	06/25/2021	23:57	-132.598	47.318	0	1885.20	0	2.0450	0	34.5640	0	27.629	0	1861.103	0	40.6	4	12.2	4	-1E+10	1	-1E+10	1	-1E+10	1	-1E+10	1	-1E+10	1	-1E+10	1
4902549	32	C	06/25/2021	23:57	-132.598	47.318	0	1895.50	0	2.0340	0	34.5670	0	27.632	0	1871.226	0	41.4	4	12.5	4	-1E+10	1	-1E+10	1	-1E+10	1	-1E+10	1	-1E+10	1	-1E+10	1
4902549	32	C	06/25/2021	23:57	-132.598	47.318	0	1905.70	0	2.0310	0	34.5670	0	27.632	0	1881.251	0	41.9	4	12.6	4	-1E+10	1	-1E+10	1	-1E+10	1	-1E+10	1	-1E+10	1	-1E+10	1
4902549	32	C	06/25/2021	23:57	-132.598	47.318	0	1915.50	0	2.0250	0	34.5690	0	27.635	0	1890.881	0	42.9	4	12.9	4	-1E+10	1	-1E+10	1	-1E+10	1	-1E+10	1	-1E+10	1	-1E+10	1
4902549	32	C	06/25/2021	23:57	-132.598	47.318	0	1925.20	0	2.0190	0	34.5710	0	27.637	0	1900.413	0	43.6	4	13.2	4	-1E+10	1	-1E+10	1	-1E+10	1	-1E+10	1	-1E+10	1	-1E+10	1
4902549	32	C	06/25/2021	23:57	-132.598	47.318	0	1935.40	0	2.0100	0	34.5730	0	27.639	0	1910.436	0	44.2	4	13.3	4	-1E+10	1	-1E+10	1	-1E+10	1	-1E+10	1	-1E+10	1	-1E+10	1
4902549	32	C	06/25/2021	23:57	-132.598	47.318	0	1945.70	0	2.0030	0	34.5740	0	27.640	0	1920.557	0	44.8	4	13.5	4	-1E+10	1	-1E+10	1	-1E+10	1	-1E+10	1	-1E+10	1	-1E+10	1
4902549	32	C	06/25/2021	23:57	-132.598	47.318	0	1955.50	0	1.9970	0	34.5750	0	27.642	0	1930.186	0	45.4	4	13.7	4	-1E+10	1	-1E+10	1	-1E+10	1	-1E+10	1	-1E+10	1	-1E+10	1
4902549	32	C	06/25/2021	23:57	-132.598	47.318	0	1965.50	0	1.9950	0	34.5760	0	27.643	0	1940.011	0	45.9	4	13.8	4	-1E+10	1	-1E+10	1	-1E+10	1	-1E+10	1	-1E+10	1	-1E+10	1
4902549	32	C	06/25/2021	23:57	-132.598	47.318	0	1975.40	0	1.9890	0	34.5770	0	27.644	0	1949.738	0	46.5	4	14.0	4	-1E+10	1	-1E+10	1	-1E+10	1	-1E+10	1	-1E+10	1	-1E+10	1
4902549	32	C	06/25/2021	23:57	-132.598	47.318	0	1985.60	0	1.9800	0	34.5790	0	27.646	0	1959.758	0	47.1	4	14.2	4	-1E+10	1	-1E+10	1	-1E+10	1	-1E+10	1	-1E+10	1	-1E+10	1
4902549	32	C	06/25/2021	23:57	-132.598	47.318	0	1993.10	0	1.9750	0	34.5800	0	27.648	0	1967.126	0	47.5	4	14.3	4	-1E+10	1	-1E+10	1	-1E+10	1	-1E+10	1	-1E+10	1	-1E+10	1
4902549	32	C	06/25/2021	23:57	-132.598	47.318	0																										
4902549	33	C	07/06/2021	05:09	-132.494	47.329	0	0.30	0	13.5840	0	32.3190	0	24.201	0	0.298	0	255.2	4	98.3	4	-1E+10	1	-1E+10	1	-1E+10	1	-1E+10	1	-1E+10	1	-1E+10	1
4902549	33	C	07/06/2021	05:09	-132.494	47.329	0	1.00	0	13.5850	0	32.3120	0	24.196	0	0.992	0	255.3	4	98.3	4	-1E+10	1	-1E+10	1	-1E+10	1	-1E+10	1	-1E+10	1	-1E+10	1
4902549	33	C	07/06/2021	05:09	-132.494	47.329	0	1.90	0	13.5850	0	32.3140	0	24.197	0	1.884	0	255.3	4	98.3	4	-1E+10	1	-1E+10	1	-1E+10	1	-1E+10	1	-1E+10	1	-1E+10	1
4902549	33	C	07/06/2021	05:09	-132.494	47.329	0	3.00	0	13.5850	0	32.3170	0	24.200	0	2.975	0	255.4	4	98.3	4	-1E+10	1	-1E+10	1	-1E+10	1	-1E+10	1	-1E+10	1	-1E+10	1
4902549	33	C	07/06/2021	05:09	-132.494	47.329	0	4.00	0	13.5850	0	32.3190	0	24.201	0	3.967	0	255.3	4	98.3	4	-1E+10	1	-1E+10	1	-1E+10	1	-1E+10	1	-1E+10	1	-1E+10	1
4902549	33	C	07/06/2021	05:09	-132.494	47.329	0	5.00	0	13.5850	0	32.3200	0	24.202	0	4.958	0	255.3	4	98.3	4	-1E+10	1	-1E+10	1	-1E+10	1	-1E+10	1	-1E+10	1	-1E+10	1
4902549	33	C	07/06/2021	05:09	-132.494	47.329	0	6.00	0	13.5840	0	32.3200	0	24.202	0	5.950	0	255.3	4	98.3	4	-1E+10	1	-1E+10	1	-1E+10	1	-1E+10	1	-1E+10	1	-1E+10	1
4902549	33	C	07/06/2021	05:09	-132.494	47.329	0	7.10	0	13.5850	0	32.3190	0	24.201	0	7.041	0	255.2	4	98.3	4	-1E+10	1	-1E+10	1	-1E+10	1	-1E+10	1	-1E+10	1	-1E+10	1
4902549	33	C	07/06/2021	05:09	-132.494	47.329	0	8.10	0	13.5860	0	32.3190	0	24.201	0	8.032	0	255.3	4	98.3	4	-1E+10	1	-1E+10	1	-1E+10	1	-1E+10	1	-1E+10	1	-1E+10	1
4902549	33	C	07/06/2021	05:09	-132.494	47.329	0	8.90	0	13.5860	0	32.3190	0	24.201	0	8.826	0	255.3	4	98.3	4	-1E+10	1	-1E+10	1	-1E+10	1	-1E+10	1	-1E+10	1	-1E+10	1
4902549	33	C	07/06/2021	05:09	-132.494	47.329	0	9.70	0	13.5860	0	32.3190	0	24.201	0	9.619	0	255.3	4	98.3	4	-1E+10	1	-1E+10	1	-1E+10	1	-1E+10	1	-1E+10	1	-1E+10	1
4902549	33	C	07/06/2021	05:09	-132.494	47.329	0	10.70	0	13.5870	0	32.3190	0	24.201	0	10.611	0	255.3	4	98.3	4	-1E+10	1	-1E+10	1	-1E+10	1	-1E+10	1	-1E+10	1	-1E+10	1
4902549	33	C	07/06/2021	05:09	-132.494	47.329	0	11.80	0	13.5870	0	32.3190	0	24.201	0	11.701	0	255.3	4	98.3	4	-1E+10	1	-1E+10	1	-1E+10	1	-1E+10	1	-1E+10	1	-1E+10	1
4902549	33	C	07/06/2021	05:09	-132.494	47.329	0	12.90	0	13.5870	0	32.3190	0	24.201	0	12.792	0	255.4	4	98.3	4	-1E+10	1	-1E+10	1	-1E+10	1	-1E+10	1	-1E+10	1	-1E+10	1
4902549	33	C	07/06/2021	05:09	-132.494	47.329	0	14.10	0	13.5870	0	32.3190	0	24.201	0	13.982	0	255.5	4	98.4	4	-1E+10	1	-1E+10	1	-1E+10	1	-1E+10	1	-1E+10	1	-1E+10	1
4902549	33	C	07/06/2021	05:09	-132.494	47.329	0	14.80	0	13.5870	0	32.3190	0	24.201	0	14.676	0	255.5	4	98.4	4	-1E+10	1	-1E+10	1	-1E+10	1	-1E+10	1	-1E+10	1	-1E+10	1
4902549	33	C	07/06/2021	05:09	-132.494	47.329	0	15.90	0	13.5840	0	32.3190	0	24.202	0	15.767	0	255.5	4	98.4	4	-1E+10	1	-1E+10	1	-1E+10	1	-1E+10	1	-1E+10	1	-1E+10	1
4902549	33	C	07/06/2021	05:09	-132.494	47.329	0	17.10	0	13.5820	0	32.3200	0	24.203	0	16.957	0	255.7	4	98.4	4	-1E+10	1	-1E+10	1	-1E+10	1	-1E+10	1	-1E+10	1	-1E+10	1
4902549	33	C	07/06/2021	05:09	-132.494	47.329	0	18.10	0	13.5790	0	32.3200	0	24.204	0	17.948	0	255.7	4	98.5	4	-1E+10	1	-1E+10	1	-1E+10	1	-1E+10	1	-1E+10	1	-1E+10	1
4902549	33	C	07/06/2021	05:09	-132.494	47.329	0	19.10	0	13.5790	0	32.3200	0	24.204	0	18.940	0	255.8	4	98.5	4	-1E+10	1	-1E+10	1	-1E+10	1	-1E+10	1	-1E+10	1	-1E+10	1
4902549	33	C	07/06/2021	05:09	-132.494	47.329	0	20.10	0	13.5790	0	32.3200	0	24.204	0	19.932	0	255.8	4	98.5	4	-1E+10	1	-1E+10	1	-1E+10	1	-1E+10	1	-1E+10	1	-1E+10	1
4902549	33	C	07/06/2021	05:09	-132.494	47.329	0	21.20	0	13.5790	0	32.3210	0	24.204	0	21.022	0	255.9	4	98.5	4	-1E+10	1	-1E+10	1	-1E+10	1	-1E+10	1	-1E+10	1	-1E+10	1
4902549	33	C	07/06/2021	05:09	-132.494	47.329	0	22.00	0	13.5780	0	32.3200	0	24.204	0	21.816	0	256.0	4	98.6	4	-1E+10	1	-1E+10	1	-1E+10	1	-1E+10	1	-1E+10	1	-1E+10	1
4902549	33	C	07/06/2021	05:09	-132.494	47.329	0	23.10	0	13.5780	0	32.3210	0	24.205	0	22.906	0	256.2	4	98.7	4	-1E+10	1	-1E+10	1	-1E+10	1	-1E+10	1	-1E+10	1	-1E+10	1
4902549	33	C	07/06/2021	05:09	-132.494	47.329	0	24.10	0	13.5630	0	32.3220	0	24.209	0	23.898	0	256.5	4	98.7	4	-1E+10	1	-1E+10	1	-1E+10	1	-1E+10	1	-1E+10	1	-1E+10	1
4902549	33	C	07/06/2021	05:09	-132.494	47.329	0	25.20	0	13.5600	0	32.3230	0	24.210	0	24.989	0	256.8	4	98.8	4	-1E+10	1	-1E+10	1	-1E+10	1	-1E+10	1	-1E+10	1	-1E+10	1
4902549	33	C	07/06/2021	05:09	-132.494	47.329	0	25.80	0	13.5600	0	32.3230	0	24.210	0	25.583	0	257.0	4	98.9	4	-1E+10	1	-1E+10	1	-1E+10	1	-1E+10	1	-1E+10	1	-1E+10	1
4902549	33	C	07/06/2021	05:09	-132.494	47.329	0	26.70	0	13.5630	0	32.3200	0	24.207	0	26.476	0	257.2	4	99.0	4	-1E+10	1	-1E+10	1	-1E+10	1	-1E+10	1	-1E+10	1	-1E+10	1
4902549	33	C	07/06/2021	05:09	-132.494	47.329	0	27.70	0	13.5580	0	32.3200	0	24.208	0	27.467	0	257.7	4	99.2	4	-1E+10	1	-1E+10	1	-1E+10	1	-1E+10	1	-1E+10	1	-1E+10	1
4902549	33	C	07/06/2021	05:09	-132.494	47.329	0	28.90	0	13.5510	0	32.3210	0	24.210	0	28.657	0	258.3	4	99.4	4	-1E+10	1	-1E+10	1	-1E+10	1	-1E+10	1	-1E+10	1	-1E+10	1
4902549	33	C	07/06/2021	05:09	-132.494	47.329	0	30.10	0	13.5300	0	32.3240	0	24.217	0	29.847	0	259.2	4	99.7	4	-1E+10	1	-1E+10	1	-1E+10	1	-1E+10	1	-1E+10	1	-1E+10	1
4902549	33	C	07/06/2021	05:09	-132.494	47.329	0	30.80	0	13.5180	0	32.3230	0	24.219	0	30.541	0	259.8	4	99.9	4	-1E+10	1	-1E+10	1	-1E+10	1	-1E+10	1	-1E+10	1	-1E+10	1
4902549	33	C	07/06/2021	05:09	-132.494	47.329	0	31.80	0	13.5030	0	32.3230	0	24.222	0	31.533	0	260.7	4	100.2	4	-1E+10	1	-1E+10	1	-1E+10	1	-1E+10	1	-1E+10	1	-1E+10	1
4902549	33	C	07/06/2021	05:09	-132.494	47.329	0	33.10	0	13.4490	0	32.3160	0	24.227	0	32.822	0	262.3	4	100.7	4	-1E+10	1	-1E+10	1	-1E+10	1	-1E+10	1	-1E+10	1	-1E+10	1
4902549	33	C	07/06/2021	05:09	-132.494	47.329	0	34.10	0	13.4100	0	32.3220	0	24.239	0	33.813	0	263.5	4	101.1	4	-1E+10	1	-1E+10	1	-1E+10	1	-1E+10	1	-1E+10	1	-1E+10	1
4902549	33	C	07/06/2021	05:09	-132.494	47.329	0	35.10	0	12.7350	0	32.3200	0	24.370	0	34.805	0	268.2	4	101.5	4	-1E+10	1	-1E+10	1	-1E+10	1	-1E+10	1	-1E+10	1	-1E+10	1
4902549	33	C	07/06/2021	05:09	-132.494	47.329	0	35.90	0	12.2760	0	32.3160	0	24.455	0	35.598	0	270.0	4	101.2	4	-1E+10	1	-1E+10	1	-1E+10	1	-1E+10	1	-1E+10	1	-1E+10	1
4902549	33	C	07/06/2021	05:09	-132.494	47.329	0	36.80	0	12.0210	0	32.3360	0	24.518	0	36.490	0	270.8	4	101.0	4	-1E+10	1	-1E+10	1	-1E+10	1	-1E+10	1	-1E+10	1	-1E+10	1
4902549	33	C	07/06/2021	05:09	-132.494	47.329	0	38.00	0	11.7370	0	32.3470	0	24.579	0	37.680	0	271.3	4	100.6	4	-1E+10	1	-1E+10	1	-1E+10	1	-1E+10	1	-1E+10	1	-1E+10	1
4902549	33	C	07/06/2021	05:09	-132.494	47.329	0	39.00	0	11.6610	0	32.3430	0	24.590	0	38.671	0	271.0	4	100.3	4	-1E+10	1	-1E+10	1	-1E+10	1	-1E+10	1	-1E+10	1	-1E+10	1
4902549	33	C	07/06/2021	05:09	-132.494	47.329	0	39.90	0	11.6290	0	32.3430	0	24.596	0	39.564	0	270.4	4	100.0	4	-1E+10	1	-1E+10	1	-1E+10	1	-1E+10	1	-1E+10	1	-1E+10	1
4902549	33	C	07/06/2021	05:09	-132.494	47.329	0	40.90	0	11.5330	0	32.3490	0	24.618	0	40.555	0	269.9	4	99.7	4	-1E+10	1	-1E+10	1	-1E+10	1	-1E+10	1	-1E+10	1	-1E+10	1
4902549	33	C	07/06/2021	05:09	-132.494	47.329	0	42.00	0	11.4450	0	32.3480	0	24.633	0	41.646	0	269.9	4	99.5	4	-1E+10	1	-1E+10	1	-1E+10	1	-1E+10	1	-1E+10	1	-1E+10	1
4902549	33	C	07/06/2021	05:09	-132.494	47.329	0	43.00	0	11.3150	0	32.3550	0	24.662	0	42.637	0	270.2	4	99.3	4	-1E+10	1	-1E+10	1	-1E+10	1	-1E+10	1	-1E+10	1	-1E+10	1
4902549	33	C	07/06/2021	05:09	-132.494	47.329	0	43.90	0	11.2450	0	32.3530	0	24.673	0	43.530	0	270.4	4	99.2	4	-1E+10	1	-1E+10	1	-1E+10	1	-1E+10	1	-1E+10	1	-1E+10	1
4902549	33	C	07/06/2021	05:09	-132.494	47.329	0	44.80	0	11.1550	0	32.3560	0	24.691	0	44.422	0	270.5	4	99.1	4	-1E+10	1	-1E+10	1	-1E+10	1	-1E+10	1	-1E+10	1	-1E+10	1
4902549	33	C	07/06/2021	05:09	-132.494	47.329	0	46.00	0	11.0420	0	32.3610	0	24.715	0	45.612	0	270.8	4	99.0	4	-1E+10	1	-1E+10	1	-1E+10	1	-1E+10	1	-1E+10	1	-1E+10	1
4902549	33	C	07/06/2021	05:09	-132.494	47.329	0	47.10	0	10.9110	0	32.3660	0	24.742	0	46.702	0	271.3	4	98.9	4	-1E+10	1	-1E+10	1	-1E+10	1	-1E+10	1	-1E+10	1	-1E+10	1
4902549	33	C	07/06/2021	05:09	-132.494	47.329	0	48.00	0	10.8210	0	32.3680	0	24.759	0	47.595	0	271.7	4	98.8	4	-1E+10	1	-1E+10	1	-1E+10	1	-1E+10	1	-1E+10	1	-1E+10	1
4902549	33	C	07/06/2021	05:09	-132.494	47.329	0	49.10	0	10.6890	0	32.3780	0	24.790	0	48.685	0	272.0	4	98.7	4	-1E+10	1	-1E+10	1	-1E+10	1	-1E+10	1	-1E+10	1	-1E+10	1
4902549	33	C	07/06/2021	05:09	-132.494	47.329	0	50.00	0	10.5350	0	32.3780	0	24.816	0	49.577	0	272.5	4	98.5	4	-1E+10	1	-1E+10	1	-1E+10	1	-1E+10	1	-1E+10	1	-1E+10	1
4902549	33	C	07/06/2021	05:09	-132.494	47.329	0	50.90	0	10.4020	0	32.3810	0	24.841	0	50.470	0	272.6	4	98.3	4	-1E+10	1	-1E+10	1	-1E+10	1	-1E+10	1	-1E+10	1	-1E+10	1
4902549	33	C	07/06/2021	05:09	-132.494	47.329	0	51.90	0	10.1810	0	32.3930	0	24.888	0	51.461	0	273.1	4	98.0	4	-1E+10	1	-1E+10	1	-1E+10	1	-1E+10	1	-1E+10	1	-1E+10	1
4902549	33	C	07/06/2021	05:09	-132.494	47.329	0	53.00	0	9.9780	0	32.4000	0	24.927	0	52.552	0	273.6	4	97.8	4	-1E+10	1	-1E+10	1	-1E+10	1	-1E+10	1	-1E+10	1	-1E+10	1
4902549	33	C	07/06/2021	05:09	-132.494	47.329	0	54.10	0	9.8330	0	32.3960	0	24.948	0	53.642	0	273.9	4	97.5	4	-1E+10	1	-1E+10	1	-1E+10	1	-1E+10	1	-1E+10	1	-1E+10	1
4902549	33	C	07/06/2021	05:09	-132.494	47.329	0	54.80	0	9.7590	0	32.4010	0	24.964	0	54.336	0	273.9	4	97.4	4	-1E+10	1	-1E+10	1	-1E+10	1	-1E+10	1	-1E+10	1	-1E+10	1
4902549	33	C	07/06/2021	05:09	-132.494	47.329	0	56.10	0	9.6900	0	32.3960	0	24.971	0	55.625	0	273.2	4	97.0	4	-1E+10	1	-1E+10	1	-1E+10	1	-1E+10	1	-1E+10	1	-1E+10	1
4902549	33	C	07/06/2021	05:09	-132.494	47.329	0	57.20	0	9.4500	0	32.4070	0	25.019	0	56.716	0	273.2	4	96.5	4	-1E+10	1	-1E+10	1	-1E+10	1	-1E+10	1	-1E+10	1	-1E+10	1
4902549	33	C	07/06/2021	05:09	-132.494	47.329	0	58.10	0	9.3230	0	32.4140	0	25.044	0	57.608	0	273.1	4	96.2	4	-1E+10	1	-1E+10	1	-1E+10	1	-1E+10	1	-1E+10	1	-1E+10	1
4902549	33	C	07/06/2021	05:09	-132.494	47.329	0	58.80	0	9.2420	0	32.4200	0	25.062	0	58.302	0	273.0	4	96.0	4	-1E+10	1	-1E+10	1	-1E+10	1	-1E+10	1	-1E+10	1	-1E+10	1
4902549	33	C	07/06/2021	05:09	-132.494	47.329	0	59.80	0	9.1750	0	32.4230	0	25.075	0	59.293	0	272.8	4	95.8	4	-1E+10	1	-1E+10	1	-1E+10	1	-1E+10	1	-1E+10	1	-1E+10	1
4902549	33	C	07/06/2021	05:09	-132.494	47.329	0	60.90	0	9.1150	0	32.4190	0	25.081	0	60.384	0	272.4	4	95.5	4	-1E+10	1	-1E+10	1	-1E+10	1	-1E+10	1	-1E+10	1	-1E+10	1
4902549	33	C	07/06/2021	05:09	-132.494	47.329	0	62.00	0	8.9860	0	32.4210	0	25.103	0	61.474	0	272.3	4	95.2	4	-1E+10	1	-1E+10	1	-1E+10	1	-1E+10	1	-1E+10	1	-1E+10	1
4902549	33	C	07/06/2021	05:09	-132.494	47.329	0	63.10	0	8.9290	0	32.4260	0	25.115	0	62.565	0	271.9	4	94.9	4	-1E+10	1	-1E+10	1	-1E+10	1	-1E+10	1	-1E+10	1	-1E+10	1
4902549	33	C	07/06/2021	05:09	-132.494	47.329	0	63.90	0	8.8970	0	32.4280	0	25.122	0	63.358	0	271.7	4	94.8	4	-1E+10	1	-1E+10	1	-1E+10	1	-1E+10	1	-1E+10	1	-1E+10	1
4902549	33	C	07/06/2021	05:09	-132.494	47.329	0	64.80	0	8.8380	0	32.4300	0	25.133	0	64.250	0	271.6	4	94.7	4	-1E+10	1	-1E+10	1	-1E+10	1	-1E+10	1	-1E+10	1	-1E+10	1
4902549	33	C	07/06/2021	05:09	-132.494	47.329	0	66.00	0	8.7870	0	32.4300	0	25.140	0	65.440	0	271.3	4	94.5	4	-1E+10	1	-1E+10	1	-1E+10	1	-1E+10	1	-1E+10	1	-1E+10	1
4902549	33	C	07/06/2021	05:09	-132.494	47.329	0	66.90	0	8.7720	0	32.4280	0	25.141	0	66.332	0	271.0	4	94.3	4	-1E+10	1	-1E+10	1	-1E+10	1	-1E+10	1	-1E+10	1	-1E+10	1
4902549	33	C	07/06/2021	05:09	-132.494	47.329	0	67.80	0	8.7430	0	32.4340	0	25.150	0	67.224	0	270.5	4	94.1	4	-1E+10	1	-1E+10	1	-1E+10	1	-1E+10	1	-1E+10	1	-1E+10	1
4902549	33	C	07/06/2021	05:09	-132.494	47.329	0	69.10	0	8.7030	0	32.4360	0	25.158	0	68.513	0	270.1	4	93.9	4	-1E+10	1	-1E+10	1	-1E+10	1	-1E+10	1	-1E+10	1	-1E+10	1
4902549	33	C	07/06/2021	05:09	-132.494	47.329	0	70.10	0	8.6860	0	32.4350	0	25.160	0	69.504	0	269.7	4	93.7	4	-1E+10	1	-1E+10	1	-1E+10	1	-1E+10	1	-1E+10	1	-1E+10	1
4902549	33	C	07/06/2021	05:09	-132.494	47.329	0	71.10	0	8.6700	0	32.4350	0	25.162	0	70.496	0	269.5	4	93.6	4	-1E+10	1	-1E+10	1	-1E+10	1	-1E+10	1	-1E+10	1	-1E+10	1
4902549	33	C	07/06/2021	05:09	-132.494	47.329	0	72.10	0	8.6390	0	32.4370	0	25.168	0	71.487	0	269.4	4	93.5	4	-1E+10	1	-1E+10	1	-1E+10	1	-1E+10	1	-1E+10	1	-1E+10	1
4902549	33	C	07/06/2021	05:09	-132.494	47.329	0	73.00	0	8.6100	0	32.4380	0	25.174	0	72.379	0	269.5	4	93.5	4	-1E+10	1	-1E+10	1	-1E+10	1	-1E+10	1	-1E+10	1	-1E+10	1
4902549	33	C	07/06/2021	05:09	-132.494	47.329	0	74.10	0	8.5850	0	32.4400	0	25.179	0	73.470	0	269.8	4	93.5	4	-1E+10	1	-1E+10	1	-1E+10	1	-1E+10	1	-1E+10	1	-1E+10	1
4902549	33	C	07/06/2021	05:09	-132.494	47.329	0	75.00	0	8.5800	0	32.4410	0	25.180	0	74.362	0	269.6	4	93.4	4	-1E+10	1	-1E+10	1	-1E+10	1	-1E+10	1	-1E+10	1	-1E+10	1
4902549	33	C	07/06/2021	05:09	-132.494	47.329	0	76.20	0	8.5730	0	32.4420	0	25.182	0	75.551	0	269.3	4	93.3	4	-1E+10	1	-1E+10	1	-1E+10	1	-1E+10	1	-1E+10	1	-1E+10	1
4902549	33	C	07/06/2021	05:09	-132.494	47.329	0	76.90	0	8.5700	0	32.4430	0	25.184	0	76.245	0	269.1	4	93.2	4	-1E+10	1	-1E+10	1	-1E+10	1	-1E+10	1	-1E+10	1	-1E+10	1
4902549	33	C	07/06/2021	05:09	-132.494	47.329	0	78.10	0	8.5560	0	32.4450	0	25.187	0	77.435	0	268.5	4	93.0	4	-1E+10	1	-1E+10	1	-1E+10	1	-1E+10	1	-1E+10	1	-1E+10	1
4902549	33	C	07/06/2021	05:09	-132.494	47.329	0	79.00	0	8.5430	0	32.4470	0	25.191	0	78.327	0	268.2	4	92.9	4	-1E+10	1	-1E+10	1	-1E+10	1	-1E+10	1	-1E+10	1	-1E+10	1
4902549	33	C	07/06/2021	05:09	-132.494	47.329	0	80.00	0	8.5310	0	32.4470	0	25.193	0	79.318	0	267.8	4	92.7	4	-1E+10	1	-1E+10	1	-1E+10	1	-1E+10	1	-1E+10	1	-1E+10	1
4902549	33	C	07/06/2021	05:09	-132.494	47.329	0	81.00	0	8.5140	0	32.4470	0	25.195	0	80.309	0	267.5	4	92.6	4	-1E+10	1	-1E+10	1	-1E+10	1	-1E+10	1	-1E+10	1	-1E+10	1
4902549	33	C	07/06/2021	05:09	-132.494	47.329	0	81.90	0	8.5040	0	32.4470	0	25.197	0	81.202	0	267.1	4	92.4	4	-1E+10	1	-1E+10	1	-1E+10	1	-1E+10	1	-1E+10	1	-1E+10	1
4902549	33	C	07/06/2021	05:09	-132.494	47.329	0	82.90	0	8.4970	0	32.4480	0	25.199	0	82.193	0	266.6	4	92.2	4	-1E+10	1	-1E+10	1	-1E+10	1	-1E+10	1	-1E+10	1	-1E+10	1
4902549	33	C	07/06/2021	05:09	-132.494	47.329	0	83.80	0	8.4900	0	32.4500	0	25.201	0	83.085	0	266.0	4	92.0	4	-1E+10	1	-1E+10	1	-1E+10	1	-1E+10	1	-1E+10	1	-1E+10	1
4902549	33	C	07/06/2021	05:09	-132.494	47.329	0	85.10	0	8.4640	0	32.4520	0	25.207	0	84.374	0	265.4	4	91.8	4	-1E+10	1	-1E+10	1	-1E+10	1	-1E+10	1	-1E+10	1	-1E+10	1
4902549	33	C	07/06/2021	05:09	-132.494	47.329	0	86.00	0	8.4410	0	32.4530	0	25.211	0	85.266	0	265.0	4	91.6	4	-1E+10	1	-1E+10	1	-1E+10	1	-1E+10	1	-1E+10	1	-1E+10	1
4902549	33	C	07/06/2021	05:09	-132.494	47.329	0	87.00	0	8.4100	0	32.4550	0	25.217	0	86.257	0	264.7	4	91.4	4	-1E+10	1	-1E+10	1	-1E+10	1	-1E+10	1	-1E+10	1	-1E+10	1
4902549	33	C	07/06/2021	05:09	-132.494	47.329	0	87.90	0	8.3870	0	32.4560	0	25.221	0	87.149	0	264.5	4	91.3	4	-1E+10	1	-1E+10	1	-1E+10	1	-1E+10	1	-1E+10	1	-1E+10	1
4902549	33	C	07/06/2021	05:09	-132.494	47.329	0	89.00	0	8.3550	0	32.4600	0	25.229	0	88.240	0	264.1	4	91.1	4	-1E+10	1	-1E+10	1	-1E+10	1	-1E+10	1	-1E+10	1	-1E+10	1
4902549	33	C	07/06/2021	05:09	-132.494	47.329	0	89.90	0	8.3120	0	32.4630	0	25.238	0	89.132	0	264.1	4	91.0	4	-1E+10	1	-1E+10	1	-1E+10	1	-1E+10	1	-1E+10	1	-1E+10	1
4902549	33	C	07/06/2021	05:09	-132.494	47.329	0	90.90	0	8.2880	0	32.4640	0	25.242	0	90.123	0	264.1	4	91.0	4	-1E+10	1	-1E+10	1	-1E+10	1	-1E+10	1	-1E+10	1	-1E+10	1
4902549	33	C	07/06/2021	05:09	-132.494	47.329	0	91.80	0	8.2530	0	32.4660	0	25.249	0	91.015	0	264.3	4	91.0	4	-1E+10	1	-1E+10	1	-1E+10	1	-1E+10	1	-1E+10	1	-1E+10	1
4902549	33	C	07/06/2021	05:09	-132.494	47.329	0	92.90	0	8.1700	0	32.4640	0	25.260	0	92.105	0	264.4	4	90.8	4	-1E+10	1	-1E+10	1	-1E+10	1	-1E+10	1	-1E+10	1	-1E+10	1
4902549	33	C	07/06/2021	05:09	-132.494	47.329	0	94.00	0	8.1500	0	32.4690	0	25.266	0	93.196	0	264.0	4	90.6	4	-1E+10	1	-1E+10	1	-1E+10	1	-1E+10	1	-1E+10	1	-1E+10	1
4902549	33	C	07/06/2021	05:09	-132.494	47.329	0	95.10	0	8.1390	0	32.4720	0	25.270	0	94.286	0	263.4	4	90.4	4	-1E+10	1	-1E+10	1	-1E+10	1	-1E+10	1	-1E+10	1	-1E+10	1
4902549	33	C	07/06/2021	05:09	-132.494	47.329	0	95.80	0	8.1260	0	32.4760	0	25.275	0	94.980	0	263.3	4	90.4	4	-1E+10	1	-1E+10	1	-1E+10	1	-1E+10	1	-1E+10	1	-1E+10	1
4902549	33	C	07/06/2021	05:09	-132.494	47.329	0	96.90	0	8.1050	0	32.4800	0	25.282	0	96.070	0	263.1	4	90.2	4	-1E+10	1	-1E+10	1	-1E+10	1	-1E+10	1	-1E+10	1	-1E+10	1
4902549	33	C	07/06/2021	05:09	-132.494	47.329	0	98.00	0	8.1000	0	32.4790	0	25.282	0	97.161	0	262.8	4	90.1	4	-1E+10	1	-1E+10	1	-1E+10	1	-1E+10	1	-1E+10	1	-1E+10	1
4902549	33	C	07/06/2021	05:09	-132.494	47.329	0	99.20	0	8.0600	0	32.4790	0	25.287	0	98.350	0	262.3	4	89.9	4	-1E+10	1	-1E+10	1	-1E+10	1	-1E+10	1	-1E+10	1	-1E+10	1
4902549	33	C	07/06/2021	05:09	-132.494	47.329	0	99.90	0	8.0370	0	32.4780	0	25.290	0	99.044	0	261.7	4	89.6	4	-1E+10	1	-1E+10	1	-1E+10	1	-1E+10	1	-1E+10	1	-1E+10	1
4902549	33	C	07/06/2021	05:09	-132.494	47.329	0	101.00	0	8.0270	0	32.4810	0	25.294	0	100.134	0	260.4	4	89.2	4	-1E+10	1	-1E+10	1	-1E+10	1	-1E+10	1	-1E+10	1	-1E+10	1
4902549	33	C	07/06/2021	05:09	-132.494	47.329	0	102.20	0	7.9960	0	32.4900	0	25.305	0	101.324	0	259.0	4	88.6	4	-1E+10	1	-1E+10	1	-1E+10	1	-1E+10	1	-1E+10	1	-1E+10	1
4902549	33	C	07/06/2021	05:09	-132.494	47.329	0	102.90	0	7.9890	0	32.4970	0	25.312	0	102.017	0	258.0	4	88.3	4	-1E+10	1	-1E+10	1	-1E+10	1	-1E+10	1	-1E+10	1	-1E+10	1
4902549	33	C	07/06/2021	05:09	-132.494	47.329	0	104.10	0	7.9790	0	32.5030	0	25.318	0	103.207	0	256.6	4	87.8	4	-1E+10	1	-1E+10	1	-1E+10	1	-1E+10	1	-1E+10	1	-1E+10	1
4902549	33	C	07/06/2021	05:09	-132.494	47.329	0	104.90	0	7.9730	0	32.5110	0	25.325	0	104.000	0	255.5	4	87.4	4	-1E+10	1	-1E+10	1	-1E+10	1	-1E+10	1	-1E+10	1	-1E+10	1
4902549	33	C	07/06/2021	05:09	-132.494	47.329	0	106.10	0	7.9540	0	32.5370	0	25.348	0	105.189	0	254.0	4	86.9	4	-1E+10	1	-1E+10	1	-1E+10	1	-1E+10	1	-1E+10	1	-1E+10	1
4902549	33	C	07/06/2021	05:09	-132.494	47.329	0	106.90	0	7.9590	0	32.5460	0	25.355	0	105.982	0	252.8	4	86.5	4	-1E+10	1	-1E+10	1	-1E+10	1	-1E+10	1	-1E+10	1	-1E+10	1
4902549	33	C	07/06/2021	05:09	-132.494	47.329	0	108.00	0	7.9920	0	32.5580	0	25.359	0	107.072	0	251.3	4	86.0	4	-1E+10	1	-1E+10	1	-1E+10	1	-1E+10	1	-1E+10	1	-1E+10	1
4902549	33	C	07/06/2021	05:09	-132.494	47.329	0	109.20	0	8.0090	0	32.5670	0	25.364	0	108.262	0	249.8	4	85.6	4	-1E+10	1	-1E+10	1	-1E+10	1	-1E+10	1	-1E+10	1	-1E+10	1
4902549	33	C	07/06/2021	05:09	-132.494	47.329	0	110.00	0	7.9640	0	32.5730	0	25.375	0	109.055	0	248.7	4	85.1	4	-1E+10	1	-1E+10	1	-1E+10	1	-1E+10	1	-1E+10	1	-1E+10	1
4902549	33	C	07/06/2021	05:09	-132.494	47.329	0	111.30	0	7.8640	0	32.6000	0	25.411	0	110.343	0	247.1	4	84.4	4	-1E+10	1	-1E+10	1	-1E+10	1	-1E+10	1	-1E+10	1	-1E+10	1
4902549	33	C	07/06/2021	05:09	-132.494	47.329	0	111.90	0	7.8920	0	32.6230	0	25.425	0	110.938	0	245.9	4	84.0	4	-1E+10	1	-1E+10	1	-1E+10	1	-1E+10	1	-1E+10	1	-1E+10	1
4902549	33	C	07/06/2021	05:09	-132.494	47.329	0	113.00	0	7.9150	0	32.6340	0	25.430	0	112.028	0	244.0	4	83.4	4	-1E+10	1	-1E+10	1	-1E+10	1	-1E+10	1	-1E+10	1	-1E+10	1
4902549	33	C	07/06/2021	05:09	-132.494	47.329	0	114.00	0	7.9460	0	32.6520	0	25.440	0	113.019	0	242.0	4	82.8	4	-1E+10	1	-1E+10	1	-1E+10	1	-1E+10	1	-1E+10	1	-1E+10	1
4902549	33	C	07/06/2021	05:09	-132.494	47.329	0	115.10	0	7.9730	0	32.6900	0	25.466	0	114.109	0	240.4	4	82.3	4	-1E+10	1	-1E+10	1	-1E+10	1	-1E+10	1	-1E+10	1	-1E+10	1
4902549	33	C	07/06/2021	05:09	-132.494	47.329	0	115.80	0	7.9740	0	32.7070	0	25.479	0	114.803	0	239.8	4	82.1	4	-1E+10	1	-1E+10	1	-1E+10	1	-1E+10	1	-1E+10	1	-1E+10	1
4902549	33	C	07/06/2021	05:09	-132.494	47.329	0	116.80	0	7.9730	0	32.7220	0	25.491	0	115.794	0	238.8	4	81.8	4	-1E+10	1	-1E+10	1	-1E+10	1	-1E+10	1	-1E+10	1	-1E+10	1
4902549	33	C	07/06/2021	05:09	-132.494	47.329	0	117.70	0	7.9740	0	32.7330	0	25.499	0	116.686	0	237.9	4	81.5	4	-1E+10	1	-1E+10	1	-1E+10	1	-1E+10	1	-1E+10	1	-1E+10	1
4902549	33	C	07/06/2021	05:09	-132.494	47.329	0	118.90	0	7.9750	0	32.7370	0	25.502	0	117.876	0	236.5	4	81.0	4	-1E+10	1	-1E+10	1	-1E+10	1	-1E+10	1	-1E+10	1	-1E+10	1
4902549	33	C	07/06/2021	05:09	-132.494	47.329	0	120.00	0	7.9820	0	32.7460	0	25.509	0	118.966	0	234.0	4	80.2	4	-1E+10	1	-1E+10	1	-1E+10	1	-1E+10	1	-1E+10	1	-1E+10	1
4902549	33	C	07/06/2021	05:09	-132.494	47.329	0	120.90	0	7.9890	0	32.7580	0	25.517	0	119.858	0	232.2	4	79.6	4	-1E+10	1	-1E+10	1	-1E+10	1	-1E+10	1	-1E+10	1	-1E+10	1
4902549	33	C	07/06/2021	05:09	-132.494	47.329	0	122.10	0	7.9990	0	32.8120	0	25.558	0	121.047	0	230.9	4	79.2	4	-1E+10	1	-1E+10	1	-1E+10	1	-1E+10	1	-1E+10	1	-1E+10	1
4902549	33	C	07/06/2021	05:09	-132.494	47.329	0	123.10	0	8.0010	0	32.8380	0	25.578	0	122.038	0	230.0	4	78.9	4	-1E+10	1	-1E+10	1	-1E+10	1	-1E+10	1	-1E+10	1	-1E+10	1
4902549	33	C	07/06/2021	05:09	-132.494	47.329	0	123.80	0	7.9990	0	32.8430	0	25.582	0	122.732	0	229.4	4	78.7	4	-1E+10	1	-1E+10	1	-1E+10	1	-1E+10	1	-1E+10	1	-1E+10	1
4902549	33	C	07/06/2021	05:09	-132.494	47.329	0	125.00	0	7.9740	0	32.8610	0	25.600	0	123.921	0	228.4	4	78.3	4	-1E+10	1	-1E+10	1	-1E+10	1	-1E+10	1	-1E+10	1	-1E+10	1
4902549	33	C	07/06/2021	05:09	-132.494	47.329	0	126.20	0	7.9430	0	32.8620	0	25.605	0	125.110	0	227.5	4	78.0	4	-1E+10	1	-1E+10	1	-1E+10	1	-1E+10	1	-1E+10	1	-1E+10	1
4902549	33	C	07/06/2021	05:09	-132.494	47.329	0	127.00	0	7.9210	0	32.8670	0	25.612	0	125.903	0	226.8	4	77.7	4	-1E+10	1	-1E+10	1	-1E+10	1	-1E+10	1	-1E+10	1	-1E+10	1
4902549	33	C	07/06/2021	05:09	-132.494	47.329	0	128.20	0	7.8730	0	32.8780	0	25.628	0	127.093	0	225.5	4	77.2	4	-1E+10	1	-1E+10	1	-1E+10	1	-1E+10	1	-1E+10	1	-1E+10	1
4902549	33	C	07/06/2021	05:09	-132.494	47.329	0	128.90	0	7.8550	0	32.8750	0	25.628	0	127.786	0	224.3	4	76.7	4	-1E+10	1	-1E+10	1	-1E+10	1	-1E+10	1	-1E+10	1	-1E+10	1
4902549	33	C	07/06/2021	05:09	-132.494	47.329	0	130.10	0	7.8200	0	32.8750	0	25.633	0	128.976	0	222.2	4	76.0	4	-1E+10	1	-1E+10	1	-1E+10	1	-1E+10	1	-1E+10	1	-1E+10	1
4902549	33	C	07/06/2021	05:09	-132.494	47.329	0	130.80	0	7.7840	0	32.8840	0	25.646	0	129.669	0	220.3	4	75.2	4	-1E+10	1	-1E+10	1	-1E+10	1	-1E+10	1	-1E+10	1	-1E+10	1
4902549	33	C	07/06/2021	05:09	-132.494	47.329	0	132.00	0	7.7630	0	32.9100	0	25.669	0	130.859	0	216.9	4	74.1	4	-1E+10	1	-1E+10	1	-1E+10	1	-1E+10	1	-1E+10	1	-1E+10	1
4902549	33	C	07/06/2021	05:09	-132.494	47.329	0	133.00	0	7.7580	0	32.9600	0	25.709	0	131.850	0	213.8	4	73.0	4	-1E+10	1	-1E+10	1	-1E+10	1	-1E+10	1	-1E+10	1	-1E+10	1
4902549	33	C	07/06/2021	05:09	-132.494	47.329	0	133.90	0	7.7590	0	33.0110	0	25.749	0	132.741	0	211.3	4	72.2	4	-1E+10	1	-1E+10	1	-1E+10	1	-1E+10	1	-1E+10	1	-1E+10	1
4902549	33	C	07/06/2021	05:09	-132.494	47.329	0	134.90	0	7.7610	0	33.0860	0	25.808	0	133.733	0	209.0	4	71.4	4	-1E+10	1	-1E+10	1	-1E+10	1	-1E+10	1	-1E+10	1	-1E+10	1
4902549	33	C	07/06/2021	05:09	-132.494	47.329	0	135.90	0	7.7580	0	33.1630	0	25.868	0	134.724	0	207.1	4	70.8	4	-1E+10	1	-1E+10	1	-1E+10	1	-1E+10	1	-1E+10	1	-1E+10	1
4902549	33	C	07/06/2021	05:09	-132.494	47.329	0	136.90	0	7.7660	0	33.1930	0	25.891	0	135.715	0	205.4	4	70.3	4	-1E+10	1	-1E+10	1	-1E+10	1	-1E+10	1	-1E+10	1	-1E+10	1
4902549	33	C	07/06/2021	05:09	-132.494	47.329	0	138.00	0	7.7580	0	33.2420	0	25.931	0	136.805	0	203.9	4	69.8	4	-1E+10	1	-1E+10	1	-1E+10	1	-1E+10	1	-1E+10	1	-1E+10	1
4902549	33	C	07/06/2021	05:09	-132.494	47.329	0	139.10	0	7.7530	0	33.2770	0	25.959	0	137.895	0	202.8	4	69.4	4	-1E+10	1	-1E+10	1	-1E+10	1	-1E+10	1	-1E+10	1	-1E+10	1
4902549	33	C	07/06/2021	05:09	-132.494	47.329	0	139.90	0	7.7520	0	33.2880	0	25.968	0	138.688	0	202.0	4	69.1	4	-1E+10	1	-1E+10	1	-1E+10	1	-1E+10	1	-1E+10	1	-1E+10	1
4902549	33	C	07/06/2021	05:09	-132.494	47.329	0	140.80	0	7.7480	0	33.2920	0	25.971	0	139.579	0	201.0	4	68.8	4	-1E+10	1	-1E+10	1	-1E+10	1	-1E+10	1	-1E+10	1	-1E+10	1
4902549	33	C	07/06/2021	05:09	-132.494	47.329	0	142.00	0	7.7410	0	33.3080	0	25.985	0	140.769	0	199.6	4	68.3	4	-1E+10	1	-1E+10	1	-1E+10	1	-1E+10	1	-1E+10	1	-1E+10	1
4902549	33	C	07/06/2021	05:09	-132.494	47.329	0	142.90	0	7.7440	0	33.3280	0	26.000	0	141.661	0	198.5	4	68.0	4	-1E+10	1	-1E+10	1	-1E+10	1	-1E+10	1	-1E+10	1	-1E+10	1
4902549	33	C	07/06/2021	05:09	-132.494	47.329	0	143.90	0	7.7330	0	33.3550	0	26.023	0	142.652	0	197.5	4	67.6	4	-1E+10	1	-1E+10	1	-1E+10	1	-1E+10	1	-1E+10	1	-1E+10	1
4902549	33	C	07/06/2021	05:09	-132.494	47.329	0	144.90	0	7.7290	0	33.3730	0	26.038	0	143.642	0	196.6	4	67.3	4	-1E+10	1	-1E+10	1	-1E+10	1	-1E+10	1	-1E+10	1	-1E+10	1
4902549	33	C	07/06/2021	05:09	-132.494	47.329	0	145.90	0	7.7050	0	33.4050	0	26.066	0	144.633	0	195.7	4	67.0	4	-1E+10	1	-1E+10	1	-1E+10	1	-1E+10	1	-1E+10	1	-1E+10	1
4902549	33	C	07/06/2021	05:09	-132.494	47.329	0	147.00	0	7.6970	0	33.4170	0	26.077	0	145.724	0	194.7	4	66.6	4	-1E+10	1	-1E+10	1	-1E+10	1	-1E+10	1	-1E+10	1	-1E+10	1
4902549	33	C	07/06/2021	05:09	-132.494	47.329	0	147.80	0	7.6110	0	33.4520	0	26.117	0	146.516	0	194.3	4	66.4	4	-1E+10	1	-1E+10	1	-1E+10	1	-1E+10	1	-1E+10	1	-1E+10	1
4902549	33	C	07/06/2021	05:09	-132.494	47.329	0	148.90	0	7.5810	0	33.4560	0	26.124	0	147.606	0	193.4	4	66.0	4	-1E+10	1	-1E+10	1	-1E+10	1	-1E+10	1	-1E+10	1	-1E+10	1
4902549	33	C	07/06/2021	05:09	-132.494	47.329	0	150.10	0	7.5000	0	33.4770	0	26.152	0	148.796	0	192.8	4	65.7	4	-1E+10	1	-1E+10	1	-1E+10	1	-1E+10	1	-1E+10	1	-1E+10	1
4902549	33	C	07/06/2021	05:09	-132.494	47.329	0	150.90	0	7.4810	0	33.4950	0	26.169	0	149.588	0	192.2	4	65.5	4	-1E+10	1	-1E+10	1	-1E+10	1	-1E+10	1	-1E+10	1	-1E+10	1
4902549	33	C	07/06/2021	05:09	-132.494	47.329	0	151.70	0	7.4680	0	33.5100	0	26.183	0	150.381	0	191.7	4	65.3	4	-1E+10	1	-1E+10	1	-1E+10	1	-1E+10	1	-1E+10	1	-1E+10	1
4902549	33	C	07/06/2021	05:09	-132.494	47.329	0	152.90	0	7.4660	0	33.5300	0	26.199	0	151.570	0	190.9	4	65.0	4	-1E+10	1	-1E+10	1	-1E+10	1	-1E+10	1	-1E+10	1	-1E+10	1
4902549	33	C	07/06/2021	05:09	-132.494	47.329	0	154.20	0	7.4570	0	33.5650	0	26.227	0	152.858	0	190.0	4	64.7	4	-1E+10	1	-1E+10	1	-1E+10	1	-1E+10	1	-1E+10	1	-1E+10	1
4902549	33	C	07/06/2021	05:09	-132.494	47.329	0	155.10	0	7.4400	0	33.5820	0	26.243	0	153.750	0	189.6	4	64.6	4	-1E+10	1	-1E+10	1	-1E+10	1	-1E+10	1	-1E+10	1	-1E+10	1
4902549	33	C	07/06/2021	05:09	-132.494	47.329	0	156.00	0	7.4290	0	33.5940	0	26.254	0	154.642	0	189.2	4	64.4	4	-1E+10	1	-1E+10	1	-1E+10	1	-1E+10	1	-1E+10	1	-1E+10	1
4902549	33	C	07/06/2021	05:09	-132.494	47.329	0	156.90	0	7.4210	0	33.6030	0	26.262	0	155.534	0	188.8	4	64.3	4	-1E+10	1	-1E+10	1	-1E+10	1	-1E+10	1	-1E+10	1	-1E+10	1
4902549	33	C	07/06/2021	05:09	-132.494	47.329	0	157.80	0	7.4200	0	33.6050	0	26.264	0	156.426	0	188.2	4	64.1	4	-1E+10	1	-1E+10	1	-1E+10	1	-1E+10	1	-1E+10	1	-1E+10	1
4902549	33	C	07/06/2021	05:09	-132.494	47.329	0	158.80	0	7.4060	0	33.6130	0	26.272	0	157.417	0	187.7	4	63.9	4	-1E+10	1	-1E+10	1	-1E+10	1	-1E+10	1	-1E+10	1	-1E+10	1
4902549	33	C	07/06/2021	05:09	-132.494	47.329	0	159.70	0	7.3840	0	33.6230	0	26.283	0	158.308	0	187.3	4	63.8	4	-1E+10	1	-1E+10	1	-1E+10	1	-1E+10	1	-1E+10	1	-1E+10	1
4902549	33	C	07/06/2021	05:09	-132.494	47.329	0	160.60	0	7.3710	0	33.6370	0	26.296	0	159.200	0	186.8	4	63.6	4	-1E+10	1	-1E+10	1	-1E+10	1	-1E+10	1	-1E+10	1	-1E+10	1
4902549	33	C	07/06/2021	05:09	-132.494	47.329	0	161.50	0	7.3570	0	33.6470	0	26.306	0	160.092	0	186.4	4	63.4	4	-1E+10	1	-1E+10	1	-1E+10	1	-1E+10	1	-1E+10	1	-1E+10	1
4902549	33	C	07/06/2021	05:09	-132.494	47.329	0	162.50	0	7.3410	0	33.6620	0	26.320	0	161.083	0	186.0	4	63.2	4	-1E+10	1	-1E+10	1	-1E+10	1	-1E+10	1	-1E+10	1	-1E+10	1
4902549	33	C	07/06/2021	05:09	-132.494	47.329	0	163.50	0	7.3280	0	33.6700	0	26.328	0	162.074	0	185.4	4	63.1	4	-1E+10	1	-1E+10	1	-1E+10	1	-1E+10	1	-1E+10	1	-1E+10	1
4902549	33	C	07/06/2021	05:09	-132.494	47.329	0	164.50	0	7.3100	0	33.6820	0	26.340	0	163.065	0	185.1	4	62.9	4	-1E+10	1	-1E+10	1	-1E+10	1	-1E+10	1	-1E+10	1	-1E+10	1
4902549	33	C	07/06/2021	05:09	-132.494	47.329	0	165.90	0	7.2820	0	33.6930	0	26.353	0	164.452	0	184.5	4	62.7	4	-1E+10	1	-1E+10	1	-1E+10	1	-1E+10	1	-1E+10	1	-1E+10	1
4902549	33	C	07/06/2021	05:09	-132.494	47.329	0	167.50	0	7.2710	0	33.6990	0	26.359	0	166.037	0	183.9	4	62.5	4	-1E+10	1	-1E+10	1	-1E+10	1	-1E+10	1	-1E+10	1	-1E+10	1
4902549	33	C	07/06/2021	05:09	-132.494	47.329	0	168.50	0	7.2580	0	33.7100	0	26.369	0	167.028	0	183.4	4	62.3	4	-1E+10	1	-1E+10	1	-1E+10	1	-1E+10	1	-1E+10	1	-1E+10	1
4902549	33	C	07/06/2021	05:09	-132.494	47.329	0	169.50	0	7.2450	0	33.7110	0	26.372	0	168.019	0	183.1	4	62.2	4	-1E+10	1	-1E+10	1	-1E+10	1	-1E+10	1	-1E+10	1	-1E+10	1
4902549	33	C	07/06/2021	05:09	-132.494	47.329	0	170.60	0	7.2230	0	33.7210	0	26.383	0	169.109	0	182.8	4	62.0	4	-1E+10	1	-1E+10	1	-1E+10	1	-1E+10	1	-1E+10	1	-1E+10	1
4902549	33	C	07/06/2021	05:09	-132.494	47.329	0	171.60	0	7.2070	0	33.7240	0	26.388	0	170.100	0	182.6	4	61.9	4	-1E+10	1	-1E+10	1	-1E+10	1	-1E+10	1	-1E+10	1	-1E+10	1
4902549	33	C	07/06/2021	05:09	-132.494	47.329	0	172.70	0	7.2050	0	33.7250	0	26.389	0	171.190	0	182.1	4	61.8	4	-1E+10	1	-1E+10	1	-1E+10	1	-1E+10	1	-1E+10	1	-1E+10	1
4902549	33	C	07/06/2021	05:09	-132.494	47.329	0	173.70	0	7.1940	0	33.7290	0	26.393	0	172.181	0	181.8	4	61.6	4	-1E+10	1	-1E+10	1	-1E+10	1	-1E+10	1	-1E+10	1	-1E+10	1
4902549	33	C	07/06/2021	05:09	-132.494	47.329	0	174.70	0	7.1920	0	33.7350	0	26.398	0	173.171	0	181.4	4	61.5	4	-1E+10	1	-1E+10	1	-1E+10	1	-1E+10	1	-1E+10	1	-1E+10	1
4902549	33	C	07/06/2021	05:09	-132.494	47.329	0	175.70	0	7.1990	0	33.7360	0	26.398	0	174.162	0	181.0	4	61.4	4	-1E+10	1	-1E+10	1	-1E+10	1	-1E+10	1	-1E+10	1	-1E+10	1
4902549	33	C	07/06/2021	05:09	-132.494	47.329	0	176.70	0	7.1950	0	33.7420	0	26.404	0	175.153	0	180.7	4	61.3	4	-1E+10	1	-1E+10	1	-1E+10	1	-1E+10	1	-1E+10	1	-1E+10	1
4902549	33	C	07/06/2021	05:09	-132.494	47.329	0	177.80	0	7.1890	0	33.7450	0	26.407	0	176.243	0	180.3	4	61.1	4	-1E+10	1	-1E+10	1	-1E+10	1	-1E+10	1	-1E+10	1	-1E+10	1
4902549	33	C	07/06/2021	05:09	-132.494	47.329	0	178.80	0	7.1770	0	33.7490	0	26.412	0	177.234	0	180.0	4	61.0	4	-1E+10	1	-1E+10	1	-1E+10	1	-1E+10	1	-1E+10	1	-1E+10	1
4902549	33	C	07/06/2021	05:09	-132.494	47.329	0	179.90	0	7.1710	0	33.7490	0	26.412	0	178.324	0	179.7	4	60.9	4	-1E+10	1	-1E+10	1	-1E+10	1	-1E+10	1	-1E+10	1	-1E+10	1
4902549	33	C	07/06/2021	05:09	-132.494	47.329	0	180.90	0	7.1690	0	33.7490	0	26.413	0	179.314	0	179.2	4	60.7	4	-1E+10	1	-1E+10	1	-1E+10	1	-1E+10	1	-1E+10	1	-1E+10	1
4902549	33	C	07/06/2021	05:09	-132.494	47.329	0	181.90	0	7.1650	0	33.7500	0	26.414	0	180.305	0	178.7	4	60.6	4	-1E+10	1	-1E+10	1	-1E+10	1	-1E+10	1	-1E+10	1	-1E+10	1
4902549	33	C	07/06/2021	05:09	-132.494	47.329	0	183.00	0	7.1620	0	33.7510	0	26.415	0	181.395	0	178.2	4	60.4	4	-1E+10	1	-1E+10	1	-1E+10	1	-1E+10	1	-1E+10	1	-1E+10	1
4902549	33	C	07/06/2021	05:09	-132.494	47.329	0	184.00	0	7.1570	0	33.7520	0	26.417	0	182.386	0	177.6	4	60.2	4	-1E+10	1	-1E+10	1	-1E+10	1	-1E+10	1	-1E+10	1	-1E+10	1
4902549	33	C	07/06/2021	05:09	-132.494	47.329	0	185.00	0	7.1500	0	33.7510	0	26.417	0	183.377	0	177.0	4	60.0	4	-1E+10	1	-1E+10	1	-1E+10	1	-1E+10	1	-1E+10	1	-1E+10	1
4902549	33	C	07/06/2021	05:09	-132.494	47.329	0	186.00	0	7.1350	0	33.7530	0	26.421	0	184.367	0	176.4	4	59.8	4	-1E+10	1	-1E+10	1	-1E+10	1	-1E+10	1	-1E+10	1	-1E+10	1
4902549	33	C	07/06/2021	05:09	-132.494	47.329	0	187.00	0	7.1240	0	33.7610	0	26.428	0	185.358	0	175.7	4	59.5	4	-1E+10	1	-1E+10	1	-1E+10	1	-1E+10	1	-1E+10	1	-1E+10	1
4902549	33	C	07/06/2021	05:09	-132.494	47.329	0	188.10	0	7.1010	0	33.7610	0	26.432	0	186.448	0	175.2	4	59.3	4	-1E+10	1	-1E+10	1	-1E+10	1	-1E+10	1	-1E+10	1	-1E+10	1
4902549	33	C	07/06/2021	05:09	-132.494	47.329	0	189.10	0	7.0880	0	33.7640	0	26.436	0	187.439	0	174.5	4	59.0	4	-1E+10	1	-1E+10	1	-1E+10	1	-1E+10	1	-1E+10	1	-1E+10	1
4902549	33	C	07/06/2021	05:09	-132.494	47.329	0	190.10	0	7.0780	0	33.7690	0	26.441	0	188.430	0	173.8	4	58.8	4	-1E+10	1	-1E+10	1	-1E+10	1	-1E+10	1	-1E+10	1	-1E+10	1
4902549	33	C	07/06/2021	05:09	-132.494	47.329	0	191.10	0	7.0490	0	33.7730	0	26.448	0	189.420	0	173.2	4	58.6	4	-1E+10	1	-1E+10	1	-1E+10	1	-1E+10	1	-1E+10	1	-1E+10	1
4902549	33	C	07/06/2021	05:09	-132.494	47.329	0	192.10	0	7.0230	0	33.7720	0	26.451	0	190.411	0	172.6	4	58.3	4	-1E+10	1	-1E+10	1	-1E+10	1	-1E+10	1	-1E+10	1	-1E+10	1
4902549	33	C	07/06/2021	05:09	-132.494	47.329	0	193.10	0	6.9820	0	33.7710	0	26.456	0	191.402	0	172.1	4	58.1	4	-1E+10	1	-1E+10	1	-1E+10	1	-1E+10	1	-1E+10	1	-1E+10	1
4902549	33	C	07/06/2021	05:09	-132.494	47.329	0	194.00	0	6.9790	0	33.7760	0	26.460	0	192.294	0	171.5	4	57.9	4	-1E+10	1	-1E+10	1	-1E+10	1	-1E+10	1	-1E+10	1	-1E+10	1
4902549	33	C	07/06/2021	05:09	-132.494	47.329	0	195.00	0	6.9690	0	33.7800	0	26.465	0	193.284	0	170.9	4	57.7	4	-1E+10	1	-1E+10	1	-1E+10	1	-1E+10	1	-1E+10	1	-1E+10	1
4902549	33	C	07/06/2021	05:09	-132.494	47.329	0	196.00	0	6.9260	0	33.7820	0	26.472	0	194.275	0	170.5	4	57.5	4	-1E+10	1	-1E+10	1	-1E+10	1	-1E+10	1	-1E+10	1	-1E+10	1
4902549	33	C	07/06/2021	05:09	-132.494	47.329	0	197.00	0	6.9040	0	33.7810	0	26.474	0	195.266	0	170.2	4	57.4	4	-1E+10	1	-1E+10	1	-1E+10	1	-1E+10	1	-1E+10	1	-1E+10	1
4902549	33	C	07/06/2021	05:09	-132.494	47.329	0	198.00	0	6.8970	0	33.7810	0	26.475	0	196.256	0	169.7	4	57.2	4	-1E+10	1	-1E+10	1	-1E+10	1	-1E+10	1	-1E+10	1	-1E+10	1
4902549	33	C	07/06/2021	05:09	-132.494	47.329	0	199.00	0	6.8920	0	33.7810	0	26.476	0	197.247	0	169.3	4	57.0	4	-1E+10	1	-1E+10	1	-1E+10	1	-1E+10	1	-1E+10	1	-1E+10	1
4902549	33	C	07/06/2021	05:09	-132.494	47.329	0	200.00	0	6.8830	0	33.7820	0	26.478	0	198.238	0	168.8	4	56.9	4	-1E+10	1	-1E+10	1	-1E+10	1	-1E+10	1	-1E+10	1	-1E+10	1
4902549	33	C	07/06/2021	05:09	-132.494	47.329	0	201.00	0	6.8590	0	33.7830	0	26.482	0	199.229	0	168.5	4	56.7	4	-1E+10	1	-1E+10	1	-1E+10	1	-1E+10	1	-1E+10	1	-1E+10	1
4902549	33	C	07/06/2021	05:09	-132.494	47.329	0	202.00	0	6.8290	0	33.7840	0	26.487	0	200.219	0	168.1	4	56.6	4	-1E+10	1	-1E+10	1	-1E+10	1	-1E+10	1	-1E+10	1	-1E+10	1
4902549	33	C	07/06/2021	05:09	-132.494	47.329	0	203.00	0	6.8220	0	33.7840	0	26.488	0	201.210	0	167.7	4	56.4	4	-1E+10	1	-1E+10	1	-1E+10	1	-1E+10	1	-1E+10	1	-1E+10	1
4902549	33	C	07/06/2021	05:09	-132.494	47.329	0	203.90	0	6.8160	0	33.7850	0	26.489	0	202.102	0	167.2	4	56.2	4	-1E+10	1	-1E+10	1	-1E+10	1	-1E+10	1	-1E+10	1	-1E+10	1
4902549	33	C	07/06/2021	05:09	-132.494	47.329	0	204.90	0	6.8100	0	33.7850	0	26.490	0	203.092	0	166.7	4	56.0	4	-1E+10	1	-1E+10	1	-1E+10	1	-1E+10	1	-1E+10	1	-1E+10	1
4902549	33	C	07/06/2021	05:09	-132.494	47.329	0	205.90	0	6.8020	0	33.7860	0	26.492	0	204.083	0	166.1	4	55.8	4	-1E+10	1	-1E+10	1	-1E+10	1	-1E+10	1	-1E+10	1	-1E+10	1
4902549	33	C	07/06/2021	05:09	-132.494	47.329	0	206.90	0	6.7990	0	33.7860	0	26.492	0	205.074	0	165.5	4	55.6	4	-1E+10	1	-1E+10	1	-1E+10	1	-1E+10	1	-1E+10	1	-1E+10	1
4902549	33	C	07/06/2021	05:09	-132.494	47.329	0	207.90	0	6.7910	0	33.7880	0	26.495	0	206.064	0	164.8	4	55.4	4	-1E+10	1	-1E+10	1	-1E+10	1	-1E+10	1	-1E+10	1	-1E+10	1
4902549	33	C	07/06/2021	05:09	-132.494	47.329	0	208.80	0	6.7980	0	33.7940	0	26.499	0	206.956	0	164.2	4	55.2	4	-1E+10	1	-1E+10	1	-1E+10	1	-1E+10	1	-1E+10	1	-1E+10	1
4902549	33	C	07/06/2021	05:09	-132.494	47.329	0	209.80	0	6.7980	0	33.7960	0	26.500	0	207.947	0	163.8	4	55.1	4	-1E+10	1	-1E+10	1	-1E+10	1	-1E+10	1	-1E+10	1	-1E+10	1
4902549	33	C	07/06/2021	05:09	-132.494	47.329	0	210.80	0	6.7820	0	33.7960	0	26.503	0	208.937	0	163.3	4	54.9	4	-1E+10	1	-1E+10	1	-1E+10	1	-1E+10	1	-1E+10	1	-1E+10	1
4902549	33	C	07/06/2021	05:09	-132.494	47.329	0	211.80	0	6.7510	0	33.7960	0	26.507	0	209.928	0	162.8	4	54.7	4	-1E+10	1	-1E+10	1	-1E+10	1	-1E+10	1	-1E+10	1	-1E+10	1
4902549	33	C	07/06/2021	05:09	-132.494	47.329	0	212.70	0	6.7490	0	33.7940	0	26.505	0	210.820	0	162.3	4	54.5	4	-1E+10	1	-1E+10	1	-1E+10	1	-1E+10	1	-1E+10	1	-1E+10	1
4902549	33	C	07/06/2021	05:09	-132.494	47.329	0	213.70	0	6.7110	0	33.7980	0	26.514	0	211.810	0	161.9	4	54.3	4	-1E+10	1	-1E+10	1	-1E+10	1	-1E+10	1	-1E+10	1	-1E+10	1
4902549	33	C	07/06/2021	05:09	-132.494	47.329	0	214.70	0	6.6960	0	33.8000	0	26.517	0	212.801	0	161.6	4	54.2	4	-1E+10	1	-1E+10	1	-1E+10	1	-1E+10	1	-1E+10	1	-1E+10	1
4902549	33	C	07/06/2021	05:09	-132.494	47.329	0	215.70	0	6.6930	0	33.8000	0	26.518	0	213.791	0	161.2	4	54.1	4	-1E+10	1	-1E+10	1	-1E+10	1	-1E+10	1	-1E+10	1	-1E+10	1
4902549	33	C	07/06/2021	05:09	-132.494	47.329	0	216.70	0	6.6920	0	33.7990	0	26.517	0	214.782	0	160.9	4	54.0	4	-1E+10	1	-1E+10	1	-1E+10	1	-1E+10	1	-1E+10	1	-1E+10	1
4902549	33	C	07/06/2021	05:09	-132.494	47.329	0	217.70	0	6.6870	0	33.8000	0	26.518	0	215.773	0	160.4	4	53.8	4	-1E+10	1	-1E+10	1	-1E+10	1	-1E+10	1	-1E+10	1	-1E+10	1
4902549	33	C	07/06/2021	05:09	-132.494	47.329	0	218.60	0	6.6810	0	33.8000	0	26.519	0	216.664	0	160.0	4	53.6	4	-1E+10	1	-1E+10	1	-1E+10	1	-1E+10	1	-1E+10	1	-1E+10	1
4902549	33	C	07/06/2021	05:09	-132.494	47.329	0	219.60	0	6.6800	0	33.7990	0	26.519	0	217.655	0	159.5	4	53.5	4	-1E+10	1	-1E+10	1	-1E+10	1	-1E+10	1	-1E+10	1	-1E+10	1
4902549	33	C	07/06/2021	05:09	-132.494	47.329	0	220.60	0	6.6710	0	33.7980	0	26.519	0	218.646	0	158.9	4	53.3	4	-1E+10	1	-1E+10	1	-1E+10	1	-1E+10	1	-1E+10	1	-1E+10	1
4902549	33	C	07/06/2021	05:09	-132.494	47.329	0	221.60	0	6.6390	0	33.8030	0	26.527	0	219.636	0	158.4	4	53.1	4	-1E+10	1	-1E+10	1	-1E+10	1	-1E+10	1	-1E+10	1	-1E+10	1
4902549	33	C	07/06/2021	05:09	-132.494	47.329	0	222.60	0	6.6020	0	33.7960	0	26.527	0	220.627	0	157.8	4	52.8	4	-1E+10	1	-1E+10	1	-1E+10	1	-1E+10	1	-1E+10	1	-1E+10	1
4902549	33	C	07/06/2021	05:09	-132.494	47.329	0	223.60	0	6.5620	0	33.7970	0	26.533	0	221.617	0	157.3	4	52.6	4	-1E+10	1	-1E+10	1	-1E+10	1	-1E+10	1	-1E+10	1	-1E+10	1
4902549	33	C	07/06/2021	05:09	-132.494	47.329	0	224.60	0	6.5500	0	33.7990	0	26.536	0	222.608	0	156.8	4	52.4	4	-1E+10	1	-1E+10	1	-1E+10	1	-1E+10	1	-1E+10	1	-1E+10	1
4902549	33	C	07/06/2021	05:09	-132.494	47.329	0	225.60	0	6.5440	0	33.7990	0	26.537	0	223.599	0	156.1	4	52.2	4	-1E+10	1	-1E+10	1	-1E+10	1	-1E+10	1	-1E+10	1	-1E+10	1
4902549	33	C	07/06/2021	05:09	-132.494	47.329	0	226.60	0	6.5310	0	33.8000	0	26.539	0	224.589	0	155.6	4	52.0	4	-1E+10	1	-1E+10	1	-1E+10	1	-1E+10	1	-1E+10	1	-1E+10	1
4902549	33	C	07/06/2021	05:09	-132.494	47.329	0	227.60	0	6.5170	0	33.8030	0	26.543	0	225.580	0	155.0	4	51.8	4	-1E+10	1	-1E+10	1	-1E+10	1	-1E+10	1	-1E+10	1	-1E+10	1
4902549	33	C	07/06/2021	05:09	-132.494	47.329	0	228.70	0	6.5050	0	33.8010	0	26.543	0	226.669	0	154.6	4	51.6	4	-1E+10	1	-1E+10	1	-1E+10	1	-1E+10	1	-1E+10	1	-1E+10	1
4902549	33	C	07/06/2021	05:09	-132.494	47.329	0	229.70	0	6.4910	0	33.8020	0	26.546	0	227.660	0	154.0	4	51.4	4	-1E+10	1	-1E+10	1	-1E+10	1	-1E+10	1	-1E+10	1	-1E+10	1
4902549	33	C	07/06/2021	05:09	-132.494	47.329	0	230.70	0	6.4860	0	33.8010	0	26.546	0	228.650	0	153.4	4	51.2	4	-1E+10	1	-1E+10	1	-1E+10	1	-1E+10	1	-1E+10	1	-1E+10	1
4902549	33	C	07/06/2021	05:09	-132.494	47.329	0	231.80	0	6.4830	0	33.8010	0	26.546	0	229.740	0	152.6	4	51.0	4	-1E+10	1	-1E+10	1	-1E+10	1	-1E+10	1	-1E+10	1	-1E+10	1
4902549	33	C	07/06/2021	05:09	-132.494	47.329	0	232.80	0	6.4580	0	33.8030	0	26.551	0	230.731	0	151.9	4	50.7	4	-1E+10	1	-1E+10	1	-1E+10	1	-1E+10	1	-1E+10	1	-1E+10	1
4902549	33	C	07/06/2021	05:09	-132.494	47.329	0	233.90	0	6.4380	0	33.8020	0	26.553	0	231.820	0	151.1	4	50.4	4	-1E+10	1	-1E+10	1	-1E+10	1	-1E+10	1	-1E+10	1	-1E+10	1
4902549	33	C	07/06/2021	05:09	-132.494	47.329	0	234.90	0	6.4000	0	33.8040	0	26.559	0	232.811	0	150.4	4	50.1	4	-1E+10	1	-1E+10	1	-1E+10	1	-1E+10	1	-1E+10	1	-1E+10	1
4902549	33	C	07/06/2021	05:09	-132.494	47.329	0	236.00	0	6.3790	0	33.8060	0	26.564	0	233.900	0	149.6	4	49.8	4	-1E+10	1	-1E+10	1	-1E+10	1	-1E+10	1	-1E+10	1	-1E+10	1
4902549	33	C	07/06/2021	05:09	-132.494	47.329	0	237.00	0	6.3580	0	33.8040	0	26.565	0	234.891	0	148.9	4	49.6	4	-1E+10	1	-1E+10	1	-1E+10	1	-1E+10	1	-1E+10	1	-1E+10	1
4902549	33	C	07/06/2021	05:09	-132.494	47.329	0	238.10	0	6.3450	0	33.8080	0	26.570	0	235.981	0	148.1	4	49.3	4	-1E+10	1	-1E+10	1	-1E+10	1	-1E+10	1	-1E+10	1	-1E+10	1
4902549	33	C	07/06/2021	05:09	-132.494	47.329	0	239.20	0	6.3390	0	33.8110	0	26.573	0	237.070	0	147.4	4	49.0	4	-1E+10	1	-1E+10	1	-1E+10	1	-1E+10	1	-1E+10	1	-1E+10	1
4902549	33	C	07/06/2021	05:09	-132.494	47.329	0	240.20	0	6.3150	0	33.8110	0	26.576	0	238.061	0	146.6	4	48.8	4	-1E+10	1	-1E+10	1	-1E+10	1	-1E+10	1	-1E+10	1	-1E+10	1
4902549	33	C	07/06/2021	05:09	-132.494	47.329	0	241.30	0	6.3110	0	33.8100	0	26.576	0	239.150	0	145.9	4	48.5	4	-1E+10	1	-1E+10	1	-1E+10	1	-1E+10	1	-1E+10	1	-1E+10	1
4902549	33	C	07/06/2021	05:09	-132.494	47.329	0	242.40	0	6.2970	0	33.8090	0	26.577	0	240.240	0	145.1	4	48.2	4	-1E+10	1	-1E+10	1	-1E+10	1	-1E+10	1	-1E+10	1	-1E+10	1
4902549	33	C	07/06/2021	05:09	-132.494	47.329	0	243.40	0	6.2820	0	33.8140	0	26.583	0	241.230	0	144.4	4	48.0	4	-1E+10	1	-1E+10	1	-1E+10	1	-1E+10	1	-1E+10	1	-1E+10	1
4902549	33	C	07/06/2021	05:09	-132.494	47.329	0	244.50	0	6.2700	0	33.8150	0	26.585	0	242.320	0	143.8	4	47.8	4	-1E+10	1	-1E+10	1	-1E+10	1	-1E+10	1	-1E+10	1	-1E+10	1
4902549	33	C	07/06/2021	05:09	-132.494	47.329	0	245.50	0	6.2510	0	33.8190	0	26.591	0	243.310	0	143.2	4	47.5	4	-1E+10	1	-1E+10	1	-1E+10	1	-1E+10	1	-1E+10	1	-1E+10	1
4902549	33	C	07/06/2021	05:09	-132.494	47.329	0	246.60	0	6.2270	0	33.8190	0	26.594	0	244.400	0	142.6	4	47.3	4	-1E+10	1	-1E+10	1	-1E+10	1	-1E+10	1	-1E+10	1	-1E+10	1
4902549	33	C	07/06/2021	05:09	-132.494	47.329	0	247.60	0	6.2120	0	33.8180	0	26.595	0	245.390	0	142.1	4	47.1	4	-1E+10	1	-1E+10	1	-1E+10	1	-1E+10	1	-1E+10	1	-1E+10	1
4902549	33	C	07/06/2021	05:09	-132.494	47.329	0	248.60	0	6.2020	0	33.8170	0	26.595	0	246.381	0	141.5	4	46.9	4	-1E+10	1	-1E+10	1	-1E+10	1	-1E+10	1	-1E+10	1	-1E+10	1
4902549	33	C	07/06/2021	05:09	-132.494	47.329	0	249.80	0	6.1740	0	33.8170	0	26.599	0	247.569	0	140.8	4	46.7	4	-1E+10	1	-1E+10	1	-1E+10	1	-1E+10	1	-1E+10	1	-1E+10	1
4902549	33	C	07/06/2021	05:09	-132.494	47.329	0	251.00	0	6.1450	0	33.8180	0	26.603	0	248.758	0	140.0	4	46.4	4	-1E+10	1	-1E+10	1	-1E+10	1	-1E+10	1	-1E+10	1	-1E+10	1
4902549	33	C	07/06/2021	05:09	-132.494	47.329	0	252.20	0	6.1200	0	33.8180	0	26.606	0	249.946	0	139.2	4	46.1	4	-1E+10	1	-1E+10	1	-1E+10	1	-1E+10	1	-1E+10	1	-1E+10	1
4902549	33	C	07/06/2021	05:09	-132.494	47.329	0	253.00	0	6.1140	0	33.8190	0	26.608	0	250.739	0	138.7	4	45.9	4	-1E+10	1	-1E+10	1	-1E+10	1	-1E+10	1	-1E+10	1	-1E+10	1
4902549	33	C	07/06/2021	05:09	-132.494	47.329	0	253.80	0	6.0990	0	33.8200	0	26.611	0	251.531	0	138.2	4	45.7	4	-1E+10	1	-1E+10	1	-1E+10	1	-1E+10	1	-1E+10	1	-1E+10	1
4902549	33	C	07/06/2021	05:09	-132.494	47.329	0	255.00	0	6.0730	0	33.8220	0	26.616	0	252.720	0	137.7	4	45.5	4	-1E+10	1	-1E+10	1	-1E+10	1	-1E+10	1	-1E+10	1	-1E+10	1
4902549	33	C	07/06/2021	05:09	-132.494	47.329	0	256.20	0	6.0580	0	33.8250	0	26.620	0	253.908	0	137.2	4	45.4	4	-1E+10	1	-1E+10	1	-1E+10	1	-1E+10	1	-1E+10	1	-1E+10	1
4902549	33	C	07/06/2021	05:09	-132.494	47.329	0	257.00	0	6.0430	0	33.8230	0	26.620	0	254.701	0	136.9	4	45.3	4	-1E+10	1	-1E+10	1	-1E+10	1	-1E+10	1	-1E+10	1	-1E+10	1
4902549	33	C	07/06/2021	05:09	-132.494	47.329	0	257.80	0	6.0420	0	33.8230	0	26.620	0	255.493	0	136.6	4	45.1	4	-1E+10	1	-1E+10	1	-1E+10	1	-1E+10	1	-1E+10	1	-1E+10	1
4902549	33	C	07/06/2021	05:09	-132.494	47.329	0	259.00	0	6.0370	0	33.8230	0	26.621	0	256.681	0	135.9	4	44.9	4	-1E+10	1	-1E+10	1	-1E+10	1	-1E+10	1	-1E+10	1	-1E+10	1
4902549	33	C	07/06/2021	05:09	-132.494	47.329	0	260.20	0	6.0280	0	33.8240	0	26.623	0	257.870	0	135.3	4	44.7	4	-1E+10	1	-1E+10	1	-1E+10	1	-1E+10	1	-1E+10	1	-1E+10	1
4902549	33	C	07/06/2021	05:09	-132.494	47.329	0	261.00	0	6.0230	0	33.8230	0	26.623	0	258.662	0	134.9	4	44.6	4	-1E+10	1	-1E+10	1	-1E+10	1	-1E+10	1	-1E+10	1	-1E+10	1
4902549	33	C	07/06/2021	05:09	-132.494	47.329	0	261.80	0	6.0180	0	33.8230	0	26.623	0	259.455	0	134.4	4	44.4	4	-1E+10	1	-1E+10	1	-1E+10	1	-1E+10	1	-1E+10	1	-1E+10	1
4902549	33	C	07/06/2021	05:09	-132.494	47.329	0	262.70	0	6.0060	0	33.8230	0	26.625	0	260.346	0	134.0	4	44.2	4	-1E+10	1	-1E+10	1	-1E+10	1	-1E+10	1	-1E+10	1	-1E+10	1
4902549	33	C	07/06/2021	05:09	-132.494	47.329	0	263.90	0	5.9680	0	33.8240	0	26.630	0	261.535	0	133.4	4	44.0	4	-1E+10	1	-1E+10	1	-1E+10	1	-1E+10	1	-1E+10	1	-1E+10	1
4902549	33	C	07/06/2021	05:09	-132.494	47.329	0	265.20	0	5.9550	0	33.8250	0	26.633	0	262.822	0	132.6	4	43.7	4	-1E+10	1	-1E+10	1	-1E+10	1	-1E+10	1	-1E+10	1	-1E+10	1
4902549	33	C	07/06/2021	05:09	-132.494	47.329	0	266.00	0	5.9150	0	33.8270	0	26.639	0	263.614	0	132.4	4	43.6	4	-1E+10	1	-1E+10	1	-1E+10	1	-1E+10	1	-1E+10	1	-1E+10	1
4902549	33	C	07/06/2021	05:09	-132.494	47.329	0	266.90	0	5.9100	0	33.8260	0	26.639	0	264.506	0	132.0	4	43.5	4	-1E+10	1	-1E+10	1	-1E+10	1	-1E+10	1	-1E+10	1	-1E+10	1
4902549	33	C	07/06/2021	05:09	-132.494	47.329	0	267.70	0	5.9080	0	33.8270	0	26.640	0	265.298	0	131.6	4	43.4	4	-1E+10	1	-1E+10	1	-1E+10	1	-1E+10	1	-1E+10	1	-1E+10	1
4902549	33	C	07/06/2021	05:09	-132.494	47.329	0	268.60	0	5.9070	0	33.8260	0	26.640	0	266.189	0	131.2	4	43.2	4	-1E+10	1	-1E+10	1	-1E+10	1	-1E+10	1	-1E+10	1	-1E+10	1
4902549	33	C	07/06/2021	05:09	-132.494	47.329	0	269.90	0	5.9050	0	33.8260	0	26.640	0	267.477	0	130.5	4	43.0	4	-1E+10	1	-1E+10	1	-1E+10	1	-1E+10	1	-1E+10	1	-1E+10	1
4902549	33	C	07/06/2021	05:09	-132.494	47.329	0	271.20	0	5.8930	0	33.8260	0	26.641	0	268.764	0	129.7	4	42.7	4	-1E+10	1	-1E+10	1	-1E+10	1	-1E+10	1	-1E+10	1	-1E+10	1
4902549	33	C	07/06/2021	05:09	-132.494	47.329	0	272.00	0	5.8700	0	33.8310	0	26.648	0	269.557	0	129.2	4	42.5	4	-1E+10	1	-1E+10	1	-1E+10	1	-1E+10	1	-1E+10	1	-1E+10	1
4902549	33	C	07/06/2021	05:09	-132.494	47.329	0	272.90	0	5.8520	0	33.8280	0	26.648	0	270.448	0	128.9	4	42.4	4	-1E+10	1	-1E+10	1	-1E+10	1	-1E+10	1	-1E+10	1	-1E+10	1
4902549	33	C	07/06/2021	05:09	-132.494	47.329	0	273.80	0	5.8440	0	33.8280	0	26.649	0	271.339	0	128.4	4	42.2	4	-1E+10	1	-1E+10	1	-1E+10	1	-1E+10	1	-1E+10	1	-1E+10	1
4902549	33	C	07/06/2021	05:09	-132.494	47.329	0	274.60	0	5.8380	0	33.8270	0	26.649	0	272.132	0	128.0	4	42.1	4	-1E+10	1	-1E+10	1	-1E+10	1	-1E+10	1	-1E+10	1	-1E+10	1
4902549	33	C	07/06/2021	05:09	-132.494	47.329	0	275.90	0	5.8130	0	33.8280	0	26.653	0	273.419	0	127.4	4	41.9	4	-1E+10	1	-1E+10	1	-1E+10	1	-1E+10	1	-1E+10	1	-1E+10	1
4902549	33	C	07/06/2021	05:09	-132.494	47.329	0	277.30	0	5.7910	0	33.8300	0	26.657	0	274.806	0	126.9	4	41.7	4	-1E+10	1	-1E+10	1	-1E+10	1	-1E+10	1	-1E+10	1	-1E+10	1
4902549	33	C	07/06/2021	05:09	-132.494	47.329	0	278.20	0	5.7860	0	33.8300	0	26.658	0	275.697	0	126.6	4	41.6	4	-1E+10	1	-1E+10	1	-1E+10	1	-1E+10	1	-1E+10	1	-1E+10	1
4902549	33	C	07/06/2021	05:09	-132.494	47.329	0	279.10	0	5.7700	0	33.8320	0	26.661	0	276.588	0	126.3	4	41.5	4	-1E+10	1	-1E+10	1	-1E+10	1	-1E+10	1	-1E+10	1	-1E+10	1
4902549	33	C	07/06/2021	05:09	-132.494	47.329	0	280.00	0	5.7610	0	33.8320	0	26.662	0	277.479	0	126.0	4	41.4	4	-1E+10	1	-1E+10	1	-1E+10	1	-1E+10	1	-1E+10	1	-1E+10	1
4902549	33	C	07/06/2021	05:09	-132.494	47.329	0	281.00	0	5.7560	0	33.8320	0	26.663	0	278.470	0	125.7	4	41.3	4	-1E+10	1	-1E+10	1	-1E+10	1	-1E+10	1	-1E+10	1	-1E+10	1
4902549	33	C	07/06/2021	05:09	-132.494	47.329	0	281.90	0	5.7550	0	33.8320	0	26.663	0	279.361	0	125.4	4	41.2	4	-1E+10	1	-1E+10	1	-1E+10	1	-1E+10	1	-1E+10	1	-1E+10	1
4902549	33	C	07/06/2021	05:09	-132.494	47.329	0	282.80	0	5.7530	0	33.8330	0	26.664	0	280.252	0	125.0	4	41.0	4	-1E+10	1	-1E+10	1	-1E+10	1	-1E+10	1	-1E+10	1	-1E+10	1
4902549	33	C	07/06/2021	05:09	-132.494	47.329	0	283.80	0	5.7480	0	33.8350	0	26.666	0	281.243	0	124.6	4	40.9	4	-1E+10	1	-1E+10	1	-1E+10	1	-1E+10	1	-1E+10	1	-1E+10	1
4902549	33	C	07/06/2021	05:09	-132.494	47.329	0	284.70	0	5.7490	0	33.8370	0	26.668	0	282.134	0	124.3	4	40.8	4	-1E+10	1	-1E+10	1	-1E+10	1	-1E+10	1	-1E+10	1	-1E+10	1
4902549	33	C	07/06/2021	05:09	-132.494	47.329	0	285.70	0	5.7500	0	33.8370	0	26.668	0	283.124	0	123.9	4	40.7	4	-1E+10	1	-1E+10	1	-1E+10	1	-1E+10	1	-1E+10	1	-1E+10	1
4902549	33	C	07/06/2021	05:09	-132.494	47.329	0	286.60	0	5.7500	0	33.8370	0	26.668	0	284.016	0	123.4	4	40.5	4	-1E+10	1	-1E+10	1	-1E+10	1	-1E+10	1	-1E+10	1	-1E+10	1
4902549	33	C	07/06/2021	05:09	-132.494	47.329	0	287.60	0	5.7510	0	33.8380	0	26.668	0	285.006	0	122.9	4	40.3	4	-1E+10	1	-1E+10	1	-1E+10	1	-1E+10	1	-1E+10	1	-1E+10	1
4902549	33	C	07/06/2021	05:09	-132.494	47.329	0	288.90	0	5.7510	0	33.8380	0	26.668	0	286.293	0	122.0	4	40.0	4	-1E+10	1	-1E+10	1	-1E+10	1	-1E+10	1	-1E+10	1	-1E+10	1
4902549	33	C	07/06/2021	05:09	-132.494	47.329	0	290.40	0	5.7500	0	33.8380	0	26.669	0	287.779	0	121.0	4	39.7	4	-1E+10	1	-1E+10	1	-1E+10	1	-1E+10	1	-1E+10	1	-1E+10	1
4902549	33	C	07/06/2021	05:09	-132.494	47.329	0	291.30	0	5.7450	0	33.8380	0	26.669	0	288.670	0	120.3	4	39.5	4	-1E+10	1	-1E+10	1	-1E+10	1	-1E+10	1	-1E+10	1	-1E+10	1
4902549	33	C	07/06/2021	05:09	-132.494	47.329	0	292.30	0	5.7390	0	33.8370	0	26.669	0	289.660	0	119.4	4	39.2	4	-1E+10	1	-1E+10	1	-1E+10	1	-1E+10	1	-1E+10	1	-1E+10	1
4902549	33	C	07/06/2021	05:09	-132.494	47.329	0	293.20	0	5.7110	0	33.8440	0	26.678	0	290.551	0	118.7	4	38.9	4	-1E+10	1	-1E+10	1	-1E+10	1	-1E+10	1	-1E+10	1	-1E+10	1
4902549	33	C	07/06/2021	05:09	-132.494	47.329	0	294.10	0	5.6650	0	33.8400	0	26.680	0	291.443	0	118.1	4	38.7	4	-1E+10	1	-1E+10	1	-1E+10	1	-1E+10	1	-1E+10	1	-1E+10	1
4902549	33	C	07/06/2021	05:09	-132.494	47.329	0	295.10	0	5.6210	0	33.8390	0	26.685	0	292.433	0	117.7	4	38.5	4	-1E+10	1	-1E+10	1	-1E+10	1	-1E+10	1	-1E+10	1	-1E+10	1
4902549	33	C	07/06/2021	05:09	-132.494	47.329	0	296.00	0	5.6050	0	33.8390	0	26.687	0	293.324	0	117.3	4	38.4	4	-1E+10	1	-1E+10	1	-1E+10	1	-1E+10	1	-1E+10	1	-1E+10	1
4902549	33	C	07/06/2021	05:09	-132.494	47.329	0	296.90	0	5.5870	0	33.8400	0	26.690	0	294.215	0	116.8	4	38.2	4	-1E+10	1	-1E+10	1	-1E+10	1	-1E+10	1	-1E+10	1	-1E+10	1
4902549	33	C	07/06/2021	05:09	-132.494	47.329	0	297.90	0	5.5670	0	33.8410	0	26.693	0	295.206	0	116.4	4	38.1	4	-1E+10	1	-1E+10	1	-1E+10	1	-1E+10	1	-1E+10	1	-1E+10	1
4902549	33	C	07/06/2021	05:09	-132.494	47.329	0	298.90	0	5.5430	0	33.8410	0	26.696	0	296.196	0	116.1	4	37.9	4	-1E+10	1	-1E+10	1	-1E+10	1	-1E+10	1	-1E+10	1	-1E+10	1
4902549	33	C	07/06/2021	05:09	-132.494	47.329	0	299.80	0	5.5360	0	33.8400	0	26.696	0	297.087	0	115.8	4	37.8	4	-1E+10	1	-1E+10	1	-1E+10	1	-1E+10	1	-1E+10	1	-1E+10	1
4902549	33	C	07/06/2021	05:09	-132.494	47.329	0	300.70	0	5.5300	0	33.8400	0	26.697	0	297.978	0	115.5	4	37.7	4	-1E+10	1	-1E+10	1	-1E+10	1	-1E+10	1	-1E+10	1	-1E+10	1
4902549	33	C	07/06/2021	05:09	-132.494	47.329	0	301.70	0	5.5190	0	33.8410	0	26.699	0	298.968	0	115.1	4	37.6	4	-1E+10	1	-1E+10	1	-1E+10	1	-1E+10	1	-1E+10	1	-1E+10	1
4902549	33	C	07/06/2021	05:09	-132.494	47.329	0	302.60	0	5.5150	0	33.8410	0	26.699	0	299.860	0	114.8	4	37.5	4	-1E+10	1	-1E+10	1	-1E+10	1	-1E+10	1	-1E+10	1	-1E+10	1
4902549	33	C	07/06/2021	05:09	-132.494	47.329	0	303.60	0	5.4970	0	33.8420	0	26.702	0	300.850	0	114.5	4	37.4	4	-1E+10	1	-1E+10	1	-1E+10	1	-1E+10	1	-1E+10	1	-1E+10	1
4902549	33	C	07/06/2021	05:09	-132.494	47.329	0	304.50	0	5.4910	0	33.8420	0	26.703	0	301.741	0	114.3	4	37.3	4	-1E+10	1	-1E+10	1	-1E+10	1	-1E+10	1	-1E+10	1	-1E+10	1
4902549	33	C	07/06/2021	05:09	-132.494	47.329	0	305.90	0	5.4810	0	33.8430	0	26.705	0	303.127	0	113.8	4	37.1	4	-1E+10	1	-1E+10	1	-1E+10	1	-1E+10	1	-1E+10	1	-1E+10	1
4902549	33	C	07/06/2021	05:09	-132.494	47.329	0	307.40	0	5.4780	0	33.8420	0	26.705	0	304.613	0	113.2	4	36.9	4	-1E+10	1	-1E+10	1	-1E+10	1	-1E+10	1	-1E+10	1	-1E+10	1
4902549	33	C	07/06/2021	05:09	-132.494	47.329	0	308.30	0	5.4750	0	33.8420	0	26.705	0	305.504	0	112.8	4	36.8	4	-1E+10	1	-1E+10	1	-1E+10	1	-1E+10	1	-1E+10	1	-1E+10	1
4902549	33	C	07/06/2021	05:09	-132.494	47.329	0	309.30	0	5.4620	0	33.8430	0	26.707	0	306.494	0	112.5	4	36.7	4	-1E+10	1	-1E+10	1	-1E+10	1	-1E+10	1	-1E+10	1	-1E+10	1
4902549	33	C	07/06/2021	05:09	-132.494	47.329	0	310.20	0	5.4540	0	33.8440	0	26.709	0	307.385	0	112.1	4	36.5	4	-1E+10	1	-1E+10	1	-1E+10	1	-1E+10	1	-1E+10	1	-1E+10	1
4902549	33	C	07/06/2021	05:09	-132.494	47.329	0	311.20	0	5.4220	0	33.8440	0	26.713	0	308.375	0	111.9	4	36.5	4	-1E+10	1	-1E+10	1	-1E+10	1	-1E+10	1	-1E+10	1	-1E+10	1
4902549	33	C	07/06/2021	05:09	-132.494	47.329	0	312.20	0	5.4180	0	33.8450	0	26.714	0	309.366	0	111.6	4	36.3	4	-1E+10	1	-1E+10	1	-1E+10	1	-1E+10	1	-1E+10	1	-1E+10	1
4902549	33	C	07/06/2021	05:09	-132.494	47.329	0	313.10	0	5.4160	0	33.8440	0	26.714	0	310.257	0	111.2	4	36.2	4	-1E+10	1	-1E+10	1	-1E+10	1	-1E+10	1	-1E+10	1	-1E+10	1
4902549	33	C	07/06/2021	05:09	-132.494	47.329	0	314.10	0	5.4120	0	33.8440	0	26.714	0	311.247	0	110.9	4	36.1	4	-1E+10	1	-1E+10	1	-1E+10	1	-1E+10	1	-1E+10	1	-1E+10	1
4902549	33	C	07/06/2021	05:09	-132.494	47.329	0	315.00	0	5.4050	0	33.8450	0	26.716	0	312.138	0	110.5	4	36.0	4	-1E+10	1	-1E+10	1	-1E+10	1	-1E+10	1	-1E+10	1	-1E+10	1
4902549	33	C	07/06/2021	05:09	-132.494	47.329	0	316.00	0	5.4050	0	33.8450	0	26.716	0	313.128	0	110.0	4	35.8	4	-1E+10	1	-1E+10	1	-1E+10	1	-1E+10	1	-1E+10	1	-1E+10	1
4902549	33	C	07/06/2021	05:09	-132.494	47.329	0	316.90	0	5.4050	0	33.8440	0	26.715	0	314.019	0	109.5	4	35.6	4	-1E+10	1	-1E+10	1	-1E+10	1	-1E+10	1	-1E+10	1	-1E+10	1
4902549	33	C	07/06/2021	05:09	-132.494	47.329	0	317.80	0	5.3970	0	33.8450	0	26.717	0	314.910	0	108.9	4	35.5	4	-1E+10	1	-1E+10	1	-1E+10	1	-1E+10	1	-1E+10	1	-1E+10	1
4902549	33	C	07/06/2021	05:09	-132.494	47.329	0	318.80	0	5.3830	0	33.8460	0	26.719	0	315.901	0	108.4	4	35.3	4	-1E+10	1	-1E+10	1	-1E+10	1	-1E+10	1	-1E+10	1	-1E+10	1
4902549	33	C	07/06/2021	05:09	-132.494	47.329	0	319.70	0	5.3740	0	33.8460	0	26.720	0	316.792	0	108.0	4	35.1	4	-1E+10	1	-1E+10	1	-1E+10	1	-1E+10	1	-1E+10	1	-1E+10	1
4902549	33	C	07/06/2021	05:09	-132.494	47.329	0	320.70	0	5.3610	0	33.8480	0	26.723	0	317.782	0	107.4	4	35.0	4	-1E+10	1	-1E+10	1	-1E+10	1	-1E+10	1	-1E+10	1	-1E+10	1
4902549	33	C	07/06/2021	05:09	-132.494	47.329	0	321.60	0	5.3490	0	33.8470	0	26.724	0	318.673	0	106.9	4	34.8	4	-1E+10	1	-1E+10	1	-1E+10	1	-1E+10	1	-1E+10	1	-1E+10	1
4902549	33	C	07/06/2021	05:09	-132.494	47.329	0	322.60	0	5.3480	0	33.8460	0	26.723	0	319.663	0	106.3	4	34.6	4	-1E+10	1	-1E+10	1	-1E+10	1	-1E+10	1	-1E+10	1	-1E+10	1
4902549	33	C	07/06/2021	05:09	-132.494	47.329	0	323.50	0	5.3440	0	33.8470	0	26.725	0	320.554	0	105.7	4	34.4	4	-1E+10	1	-1E+10	1	-1E+10	1	-1E+10	1	-1E+10	1	-1E+10	1
4902549	33	C	07/06/2021	05:09	-132.494	47.329	0	324.90	0	5.3040	0	33.8480	0	26.730	0	321.940	0	104.9	4	34.1	4	-1E+10	1	-1E+10	1	-1E+10	1	-1E+10	1	-1E+10	1	-1E+10	1
4902549	33	C	07/06/2021	05:09	-132.494	47.329	0	326.40	0	5.2670	0	33.8530	0	26.738	0	323.426	0	104.3	4	33.9	4	-1E+10	1	-1E+10	1	-1E+10	1	-1E+10	1	-1E+10	1	-1E+10	1
4902549	33	C	07/06/2021	05:09	-132.494	47.329	0	327.30	0	5.2600	0	33.8490	0	26.736	0	324.317	0	103.9	4	33.7	4	-1E+10	1	-1E+10	1	-1E+10	1	-1E+10	1	-1E+10	1	-1E+10	1
4902549	33	C	07/06/2021	05:09	-132.494	47.329	0	328.30	0	5.2590	0	33.8490	0	26.736	0	325.307	0	103.4	4	33.6	4	-1E+10	1	-1E+10	1	-1E+10	1	-1E+10	1	-1E+10	1	-1E+10	1
4902549	33	C	07/06/2021	05:09	-132.494	47.329	0	329.20	0	5.2470	0	33.8500	0	26.738	0	326.198	0	103.0	4	33.4	4	-1E+10	1	-1E+10	1	-1E+10	1	-1E+10	1	-1E+10	1	-1E+10	1
4902549	33	C	07/06/2021	05:09	-132.494	47.329	0	330.20	0	5.2380	0	33.8500	0	26.739	0	327.188	0	102.5	4	33.2	4	-1E+10	1	-1E+10	1	-1E+10	1	-1E+10	1	-1E+10	1	-1E+10	1
4902549	33	C	07/06/2021	05:09	-132.494	47.329	0	331.10	0	5.2220	0	33.8520	0	26.743	0	328.079	0	102.1	4	33.1	4	-1E+10	1	-1E+10	1	-1E+10	1	-1E+10	1	-1E+10	1	-1E+10	1
4902549	33	C	07/06/2021	05:09	-132.494	47.329	0	332.10	0	5.2200	0	33.8510	0	26.742	0	329.069	0	101.6	4	33.0	4	-1E+10	1	-1E+10	1	-1E+10	1	-1E+10	1	-1E+10	1	-1E+10	1
4902549	33	C	07/06/2021	05:09	-132.494	47.329	0	333.00	0	5.2120	0	33.8520	0	26.744	0	329.960	0	101.1	4	32.8	4	-1E+10	1	-1E+10	1	-1E+10	1	-1E+10	1	-1E+10	1	-1E+10	1
4902549	33	C	07/06/2021	05:09	-132.494	47.329	0	334.00	0	5.1970	0	33.8530	0	26.746	0	330.950	0	100.7	4	32.6	4	-1E+10	1	-1E+10	1	-1E+10	1	-1E+10	1	-1E+10	1	-1E+10	1
4902549	33	C	07/06/2021	05:09	-132.494	47.329	0	334.90	0	5.1910	0	33.8530	0	26.747	0	331.841	0	100.4	4	32.5	4	-1E+10	1	-1E+10	1	-1E+10	1	-1E+10	1	-1E+10	1	-1E+10	1
4902549	33	C	07/06/2021	05:09	-132.494	47.329	0	335.80	0	5.1600	0	33.8560	0	26.753	0	332.732	0	100.0	4	32.4	4	-1E+10	1	-1E+10	1	-1E+10	1	-1E+10	1	-1E+10	1	-1E+10	1
4902549	33	C	07/06/2021	05:09	-132.494	47.329	0	336.80	0	5.1480	0	33.8540	0	26.753	0	333.722	0	99.8	4	32.3	4	-1E+10	1	-1E+10	1	-1E+10	1	-1E+10	1	-1E+10	1	-1E+10	1
4902549	33	C	07/06/2021	05:09	-132.494	47.329	0	337.70	0	5.1420	0	33.8550	0	26.754	0	334.613	0	99.4	4	32.2	4	-1E+10	1	-1E+10	1	-1E+10	1	-1E+10	1	-1E+10	1	-1E+10	1
4902549	33	C	07/06/2021	05:09	-132.494	47.329	0	338.60	0	5.1300	0	33.8550	0	26.756	0	335.504	0	99.2	4	32.1	4	-1E+10	1	-1E+10	1	-1E+10	1	-1E+10	1	-1E+10	1	-1E+10	1
4902549	33	C	07/06/2021	05:09	-132.494	47.329	0	339.50	0	5.1270	0	33.8560	0	26.757	0	336.396	0	98.9	4	32.0	4	-1E+10	1	-1E+10	1	-1E+10	1	-1E+10	1	-1E+10	1	-1E+10	1
4902549	33	C	07/06/2021	05:09	-132.494	47.329	0	340.90	0	5.1280	0	33.8580	0	26.758	0	337.782	0	98.6	4	31.9	4	-1E+10	1	-1E+10	1	-1E+10	1	-1E+10	1	-1E+10	1	-1E+10	1
4902549	33	C	07/06/2021	05:09	-132.494	47.329	0	342.30	0	5.1290	0	33.8590	0	26.759	0	339.168	0	98.2	4	31.8	4	-1E+10	1	-1E+10	1	-1E+10	1	-1E+10	1	-1E+10	1	-1E+10	1
4902549	33	C	07/06/2021	05:09	-132.494	47.329	0	343.20	0	5.1270	0	33.8600	0	26.760	0	340.059	0	97.9	4	31.7	4	-1E+10	1	-1E+10	1	-1E+10	1	-1E+10	1	-1E+10	1	-1E+10	1
4902549	33	C	07/06/2021	05:09	-132.494	47.329	0	344.10	0	5.1210	0	33.8600	0	26.761	0	340.950	0	97.7	4	31.6	4	-1E+10	1	-1E+10	1	-1E+10	1	-1E+10	1	-1E+10	1	-1E+10	1
4902549	33	C	07/06/2021	05:09	-132.494	47.329	0	345.10	0	5.1160	0	33.8600	0	26.761	0	341.940	0	97.4	4	31.5	4	-1E+10	1	-1E+10	1	-1E+10	1	-1E+10	1	-1E+10	1	-1E+10	1
4902549	33	C	07/06/2021	05:09	-132.494	47.329	0	346.00	0	5.1110	0	33.8610	0	26.763	0	342.831	0	97.1	4	31.4	4	-1E+10	1	-1E+10	1	-1E+10	1	-1E+10	1	-1E+10	1	-1E+10	1
4902549	33	C	07/06/2021	05:09	-132.494	47.329	0	346.90	0	5.1020	0	33.8610	0	26.764	0	343.722	0	96.9	4	31.3	4	-1E+10	1	-1E+10	1	-1E+10	1	-1E+10	1	-1E+10	1	-1E+10	1
4902549	33	C	07/06/2021	05:09	-132.494	47.329	0	347.80	0	5.0950	0	33.8620	0	26.765	0	344.613	0	96.7	4	31.3	4	-1E+10	1	-1E+10	1	-1E+10	1	-1E+10	1	-1E+10	1	-1E+10	1
4902549	33	C	07/06/2021	05:09	-132.494	47.329	0	348.80	0	5.0910	0	33.8620	0	26.766	0	345.603	0	96.5	4	31.2	4	-1E+10	1	-1E+10	1	-1E+10	1	-1E+10	1	-1E+10	1	-1E+10	1
4902549	33	C	07/06/2021	05:09	-132.494	47.329	0	349.70	0	5.0920	0	33.8620	0	26.766	0	346.494	0	96.2	4	31.1	4	-1E+10	1	-1E+10	1	-1E+10	1	-1E+10	1	-1E+10	1	-1E+10	1
4902549	33	C	07/06/2021	05:09	-132.494	47.329	0	352.90	0	5.0810	0	33.8630	0	26.768	0	349.662	0	95.3	4	30.8	4	-1E+10	1	-1E+10	1	-1E+10	1	-1E+10	1	-1E+10	1	-1E+10	1
4902549	33	C	07/06/2021	05:09	-132.494	47.329	0	358.00	0	5.0740	0	33.8670	0	26.772	0	354.711	0	93.8	4	30.3	4	-1E+10	1	-1E+10	1	-1E+10	1	-1E+10	1	-1E+10	1	-1E+10	1
4902549	33	C	07/06/2021	05:09	-132.494	47.329	0	363.00	0	5.0550	0	33.8700	0	26.776	0	359.660	0	91.7	4	29.6	4	-1E+10	1	-1E+10	1	-1E+10	1	-1E+10	1	-1E+10	1	-1E+10	1
4902549	33	C	07/06/2021	05:09	-132.494	47.329	0	368.00	0	5.0110	0	33.8750	0	26.785	0	364.610	0	89.3	4	28.8	4	-1E+10	1	-1E+10	1	-1E+10	1	-1E+10	1	-1E+10	1	-1E+10	1
4902549	33	C	07/06/2021	05:09	-132.494	47.329	0	373.00	0	4.9820	0	33.8810	0	26.794	0	369.559	0	87.5	4	28.2	4	-1E+10	1	-1E+10	1	-1E+10	1	-1E+10	1	-1E+10	1	-1E+10	1
4902549	33	C	07/06/2021	05:09	-132.494	47.329	0	378.10	0	4.9540	0	33.8840	0	26.799	0	374.608	0	85.5	4	27.6	4	-1E+10	1	-1E+10	1	-1E+10	1	-1E+10	1	-1E+10	1	-1E+10	1
4902549	33	C	07/06/2021	05:09	-132.494	47.329	0	382.80	0	4.9180	0	33.8890	0	26.807	0	379.260	0	83.7	4	27.0	4	-1E+10	1	-1E+10	1	-1E+10	1	-1E+10	1	-1E+10	1	-1E+10	1
4902549	33	C	07/06/2021	05:09	-132.494	47.329	0	387.90	0	4.8920	0	33.8930	0	26.813	0	384.308	0	81.8	4	26.3	4	-1E+10	1	-1E+10	1	-1E+10	1	-1E+10	1	-1E+10	1	-1E+10	1
4902549	33	C	07/06/2021	05:09	-132.494	47.329	0	393.10	0	4.8740	0	33.8980	0	26.819	0	389.455	0	79.3	4	25.5	4	-1E+10	1	-1E+10	1	-1E+10	1	-1E+10	1	-1E+10	1	-1E+10	1
4902549	33	C	07/06/2021	05:09	-132.494	47.329	0	397.90	0	4.8550	0	33.9060	0	26.828	0	394.206	0	77.3	4	24.9	4	-1E+10	1	-1E+10	1	-1E+10	1	-1E+10	1	-1E+10	1	-1E+10	1
4902549	33	C	07/06/2021	05:09	-132.494	47.329	0	402.60	0	4.8150	0	33.9120	0	26.837	0	398.858	0	75.8	4	24.3	4	-1E+10	1	-1E+10	1	-1E+10	1	-1E+10	1	-1E+10	1	-1E+10	1
4902549	33	C	07/06/2021	05:09	-132.494	47.329	0	407.90	0	4.7970	0	33.9160	0	26.842	0	404.103	0	74.2	4	23.8	4	-1E+10	1	-1E+10	1	-1E+10	1	-1E+10	1	-1E+10	1	-1E+10	1
4902549	33	C	07/06/2021	05:09	-132.494	47.329	0	413.30	0	4.7680	0	33.9210	0	26.850	0	409.448	0	72.4	4	23.2	4	-1E+10	1	-1E+10	1	-1E+10	1	-1E+10	1	-1E+10	1	-1E+10	1
4902549	33	C	07/06/2021	05:09	-132.494	47.329	0	418.20	0	4.7350	0	33.9250	0	26.856	0	414.297	0	70.9	4	22.8	4	-1E+10	1	-1E+10	1	-1E+10	1	-1E+10	1	-1E+10	1	-1E+10	1
4902549	33	C	07/06/2021	05:09	-132.494	47.329	0	423.10	0	4.7150	0	33.9290	0	26.862	0	419.147	0	69.3	4	22.2	4	-1E+10	1	-1E+10	1	-1E+10	1	-1E+10	1	-1E+10	1	-1E+10	1
4902549	33	C	07/06/2021	05:09	-132.494	47.329	0	428.10	0	4.6810	0	33.9340	0	26.870	0	424.095	0	67.9	4	21.8	4	-1E+10	1	-1E+10	1	-1E+10	1	-1E+10	1	-1E+10	1	-1E+10	1
4902549	33	C	07/06/2021	05:09	-132.494	47.329	0	433.10	0	4.6600	0	33.9380	0	26.875	0	429.043	0	66.7	4	21.4	4	-1E+10	1	-1E+10	1	-1E+10	1	-1E+10	1	-1E+10	1	-1E+10	1
4902549	33	C	07/06/2021	05:09	-132.494	47.329	0	438.20	0	4.6460	0	33.9410	0	26.879	0	434.090	0	65.3	4	20.9	4	-1E+10	1	-1E+10	1	-1E+10	1	-1E+10	1	-1E+10	1	-1E+10	1
4902549	33	C	07/06/2021	05:09	-132.494	47.329	0	442.90	0	4.6300	0	33.9440	0	26.883	0	438.741	0	63.7	4	20.4	4	-1E+10	1	-1E+10	1	-1E+10	1	-1E+10	1	-1E+10	1	-1E+10	1
4902549	33	C	07/06/2021	05:09	-132.494	47.329	0	447.50	0	4.6200	0	33.9500	0	26.889	0	443.293	0	61.8	4	19.8	4	-1E+10	1	-1E+10	1	-1E+10	1	-1E+10	1	-1E+10	1	-1E+10	1
4902549	33	C	07/06/2021	05:09	-132.494	47.329	0	452.80	0	4.5820	0	33.9570	0	26.899	0	448.537	0	59.4	4	19.0	4	-1E+10	1	-1E+10	1	-1E+10	1	-1E+10	1	-1E+10	1	-1E+10	1
4902549	33	C	07/06/2021	05:09	-132.494	47.329	0	457.70	0	4.5630	0	33.9660	0	26.908	0	453.386	0	57.1	4	18.2	4	-1E+10	1	-1E+10	1	-1E+10	1	-1E+10	1	-1E+10	1	-1E+10	1
4902549	33	C	07/06/2021	05:09	-132.494	47.329	0	462.50	0	4.5400	0	33.9730	0	26.916	0	458.135	0	55.3	4	17.7	4	-1E+10	1	-1E+10	1	-1E+10	1	-1E+10	1	-1E+10	1	-1E+10	1
4902549	33	C	07/06/2021	05:09	-132.494	47.329	0	467.60	0	4.5110	0	33.9790	0	26.924	0	463.181	0	53.5	4	17.1	4	-1E+10	1	-1E+10	1	-1E+10	1	-1E+10	1	-1E+10	1	-1E+10	1
4902549	33	C	07/06/2021	05:09	-132.494	47.329	0	472.60	0	4.4850	0	33.9860	0	26.932	0	468.128	0	51.9	4	16.6	4	-1E+10	1	-1E+10	1	-1E+10	1	-1E+10	1	-1E+10	1	-1E+10	1
4902549	33	C	07/06/2021	05:09	-132.494	47.329	0	477.80	0	4.4630	0	33.9920	0	26.940	0	473.273	0	50.3	4	16.0	4	-1E+10	1	-1E+10	1	-1E+10	1	-1E+10	1	-1E+10	1	-1E+10	1
4902549	33	C	07/06/2021	05:09	-132.494	47.329	0	483.00	0	4.4460	0	33.9970	0	26.945	0	478.418	0	48.9	4	15.6	4	-1E+10	1	-1E+10	1	-1E+10	1	-1E+10	1	-1E+10	1	-1E+10	1
4902549	33	C	07/06/2021	05:09	-132.494	47.329	0	487.90	0	4.4190	0	34.0010	0	26.952	0	483.266	0	47.1	4	15.0	4	-1E+10	1	-1E+10	1	-1E+10	1	-1E+10	1	-1E+10	1	-1E+10	1
4902549	33	C	07/06/2021	05:09	-132.494	47.329	0	492.70	0	4.3940	0	34.0100	0	26.961	0	488.015	0	45.5	4	14.5	4	-1E+10	1	-1E+10	1	-1E+10	1	-1E+10	1	-1E+10	1	-1E+10	1
4902549	33	C	07/06/2021	05:09	-132.494	47.329	0	498.00	0	4.3810	0	34.0160	0	26.968	0	493.258	0	44.3	4	14.1	4	-1E+10	1	-1E+10	1	-1E+10	1	-1E+10	1	-1E+10	1	-1E+10	1
4902549	33	C	07/06/2021	05:09	-132.494	47.329	0	503.00	0	4.3710	0	34.0200	0	26.972	0	498.204	0	43.3	4	13.8	4	-1E+10	1	-1E+10	1	-1E+10	1	-1E+10	1	-1E+10	1	-1E+10	1
4902549	33	C	07/06/2021	05:09	-132.494	47.329	0	507.90	0	4.3490	0	34.0250	0	26.978	0	503.052	0	42.2	4	13.4	4	-1E+10	1	-1E+10	1	-1E+10	1	-1E+10	1	-1E+10	1	-1E+10	1
4902549	33	C	07/06/2021	05:09	-132.494	47.329	0	512.80	0	4.3320	0	34.0300	0	26.984	0	507.899	0	41.2	4	13.1	4	-1E+10	1	-1E+10	1	-1E+10	1	-1E+10	1	-1E+10	1	-1E+10	1
4902549	33	C	07/06/2021	05:09	-132.494	47.329	0	517.70	0	4.3180	0	34.0330	0	26.988	0	512.746	0	40.0	4	12.7	4	-1E+10	1	-1E+10	1	-1E+10	1	-1E+10	1	-1E+10	1	-1E+10	1
4902549	33	C	07/06/2021	05:09	-132.494	47.329	0	522.70	0	4.2940	0	34.0390	0	26.995	0	517.692	0	38.8	4	12.3	4	-1E+10	1	-1E+10	1	-1E+10	1	-1E+10	1	-1E+10	1	-1E+10	1
4902549	33	C	07/06/2021	05:09	-132.494	47.329	0	527.80	0	4.2740	0	34.0440	0	27.001	0	522.737	0	37.9	4	12.0	4	-1E+10	1	-1E+10	1	-1E+10	1	-1E+10	1	-1E+10	1	-1E+10	1
4902549	33	C	07/06/2021	05:09	-132.494	47.329	0	533.00	0	4.2610	0	34.0480	0	27.006	0	527.880	0	37.0	4	11.7	4	-1E+10	1	-1E+10	1	-1E+10	1	-1E+10	1	-1E+10	1	-1E+10	1
4902549	33	C	07/06/2021	05:09	-132.494	47.329	0	537.80	0	4.2520	0	34.0510	0	27.009	0	532.628	0	36.1	4	11.5	4	-1E+10	1	-1E+10	1	-1E+10	1	-1E+10	1	-1E+10	1	-1E+10	1
4902549	33	C	07/06/2021	05:09	-132.494	47.329	0	543.00	0	4.2370	0	34.0550	0	27.014	0	537.771	0	34.8	4	11.1	4	-1E+10	1	-1E+10	1	-1E+10	1	-1E+10	1	-1E+10	1	-1E+10	1
4902549	33	C	07/06/2021	05:09	-132.494	47.329	0	548.30	0	4.2190	0	34.0600	0	27.020	0	543.013	0	33.6	4	10.7	4	-1E+10	1	-1E+10	1	-1E+10	1	-1E+10	1	-1E+10	1	-1E+10	1
4902549	33	C	07/06/2021	05:09	-132.494	47.329	0	553.10	0	4.2020	0	34.0650	0	27.026	0	547.761	0	32.5	4	10.3	4	-1E+10	1	-1E+10	1	-1E+10	1	-1E+10	1	-1E+10	1	-1E+10	1
4902549	33	C	07/06/2021	05:09	-132.494	47.329	0	558.10	0	4.1890	0	34.0700	0	27.031	0	552.706	0	31.6	4	10.0	4	-1E+10	1	-1E+10	1	-1E+10	1	-1E+10	1	-1E+10	1	-1E+10	1
4902549	33	C	07/06/2021	05:09	-132.494	47.329	0	563.10	0	4.1820	0	34.0730	0	27.034	0	557.651	0	30.7	4	9.7	4	-1E+10	1	-1E+10	1	-1E+10	1	-1E+10	1	-1E+10	1	-1E+10	1
4902549	33	C	07/06/2021	05:09	-132.494	47.329	0	568.10	0	4.1750	0	34.0770	0	27.038	0	562.595	0	29.8	4	9.4	4	-1E+10	1	-1E+10	1	-1E+10	1	-1E+10	1	-1E+10	1	-1E+10	1
4902549	33	C	07/06/2021	05:09	-132.494	47.329	0	573.10	0	4.1690	0	34.0800	0	27.041	0	567.540	0	29.0	4	9.2	4	-1E+10	1	-1E+10	1	-1E+10	1	-1E+10	1	-1E+10	1	-1E+10	1
4902549	33	C	07/06/2021	05:09	-132.494	47.329	0	578.10	0	4.1640	0	34.0820	0	27.043	0	572.485	0	27.9	4	8.8	4	-1E+10	1	-1E+10	1	-1E+10	1	-1E+10	1	-1E+10	1	-1E+10	1
4902549	33	C	07/06/2021	05:09	-132.494	47.329	0	583.20	0	4.1490	0	34.0910	0	27.052	0	577.528	0	26.9	4	8.5	4	-1E+10	1	-1E+10	1	-1E+10	1	-1E+10	1	-1E+10	1	-1E+10	1
4902549	33	C	07/06/2021	05:09	-132.494	47.329	0	588.30	0	4.1400	0	34.0940	0	27.056	0	582.571	0	26.3	4	8.3	4	-1E+10	1	-1E+10	1	-1E+10	1	-1E+10	1	-1E+10	1	-1E+10	1
4902549	33	C	07/06/2021	05:09	-132.494	47.329	0	592.90	0	4.1320	0	34.0970	0	27.059	0	587.120	0	25.6	4	8.1	4	-1E+10	1	-1E+10	1	-1E+10	1	-1E+10	1	-1E+10	1	-1E+10	1
4902549	33	C	07/06/2021	05:09	-132.494	47.329	0	597.60	0	4.1190	0	34.1020	0	27.064	0	591.768	0	25.0	4	7.9	4	-1E+10	1	-1E+10	1	-1E+10	1	-1E+10	1	-1E+10	1	-1E+10	1
4902549	33	C	07/06/2021	05:09	-132.494	47.329	0	602.90	0	4.1050	0	34.1060	0	27.069	0	597.008	0	24.6	4	7.8	4	-1E+10	1	-1E+10	1	-1E+10	1	-1E+10	1	-1E+10	1	-1E+10	1
4902549	33	C	07/06/2021	05:09	-132.494	47.329	0	608.20	0	4.0940	0	34.1090	0	27.072	0	602.249	0	24.1	4	7.6	4	-1E+10	1	-1E+10	1	-1E+10	1	-1E+10	1	-1E+10	1	-1E+10	1
4902549	33	C	07/06/2021	05:09	-132.494	47.329	0	613.00	0	4.0700	0	34.1140	0	27.079	0	606.995	0	23.6	4	7.5	4	-1E+10	1	-1E+10	1	-1E+10	1	-1E+10	1	-1E+10	1	-1E+10	1
4902549	33	C	07/06/2021	05:09	-132.494	47.329	0	617.60	0	4.0610	0	34.1180	0	27.083	0	611.543	0	23.0	4	7.3	4	-1E+10	1	-1E+10	1	-1E+10	1	-1E+10	1	-1E+10	1	-1E+10	1
4902549	33	C	07/06/2021	05:09	-132.494	47.329	0	622.80	0	4.0380	0	34.1230	0	27.089	0	616.684	0	22.4	4	7.1	4	-1E+10	1	-1E+10	1	-1E+10	1	-1E+10	1	-1E+10	1	-1E+10	1
4902549	33	C	07/06/2021	05:09	-132.494	47.329	0	628.10	0	4.0160	0	34.1290	0	27.096	0	621.924	0	21.9	4	6.9	4	-1E+10	1	-1E+10	1	-1E+10	1	-1E+10	1	-1E+10	1	-1E+10	1
4902549	33	C	07/06/2021	05:09	-132.494	47.329	0	633.10	0	4.0060	0	34.1320	0	27.100	0	626.868	0	21.7	4	6.8	4	-1E+10	1	-1E+10	1	-1E+10	1	-1E+10	1	-1E+10	1	-1E+10	1
4902549	33	C	07/06/2021	05:09	-132.494	47.329	0	638.20	0	3.9940	0	34.1350	0	27.103	0	631.910	0	21.3	4	6.7	4	-1E+10	1	-1E+10	1	-1E+10	1	-1E+10	1	-1E+10	1	-1E+10	1
4902549	33	C	07/06/2021	05:09	-132.494	47.329	0	643.00	0	3.9820	0	34.1380	0	27.107	0	636.655	0	21.0	4	6.6	4	-1E+10	1	-1E+10	1	-1E+10	1	-1E+10	1	-1E+10	1	-1E+10	1
4902549	33	C	07/06/2021	05:09	-132.494	47.329	0	647.80	0	3.9700	0	34.1410	0	27.111	0	641.400	0	20.7	4	6.5	4	-1E+10	1	-1E+10	1	-1E+10	1	-1E+10	1	-1E+10	1	-1E+10	1
4902549	33	C	07/06/2021	05:09	-132.494	47.329	0	653.00	0	3.9580	0	34.1440	0	27.114	0	646.541	0	20.4	4	6.4	4	-1E+10	1	-1E+10	1	-1E+10	1	-1E+10	1	-1E+10	1	-1E+10	1
4902549	33	C	07/06/2021	05:09	-132.494	47.329	0	657.80	0	3.9460	0	34.1470	0	27.118	0	651.286	0	20.2	4	6.4	4	-1E+10	1	-1E+10	1	-1E+10	1	-1E+10	1	-1E+10	1	-1E+10	1
4902549	33	C	07/06/2021	05:09	-132.494	47.329	0	662.80	0	3.9300	0	34.1510	0	27.123	0	656.229	0	20.0	4	6.3	4	-1E+10	1	-1E+10	1	-1E+10	1	-1E+10	1	-1E+10	1	-1E+10	1
4902549	33	C	07/06/2021	05:09	-132.494	47.329	0	667.80	0	3.9170	0	34.1530	0	27.126	0	661.171	0	19.8	4	6.2	4	-1E+10	1	-1E+10	1	-1E+10	1	-1E+10	1	-1E+10	1	-1E+10	1
4902549	33	C	07/06/2021	05:09	-132.494	47.329	0	672.90	0	3.9120	0	34.1540	0	27.127	0	666.212	0	19.4	4	6.1	4	-1E+10	1	-1E+10	1	-1E+10	1	-1E+10	1	-1E+10	1	-1E+10	1
4902549	33	C	07/06/2021	05:09	-132.494	47.329	0	678.00	0	3.9080	0	34.1560	0	27.129	0	671.254	0	18.9	4	6.0	4	-1E+10	1	-1E+10	1	-1E+10	1	-1E+10	1	-1E+10	1	-1E+10	1
4902549	33	C	07/06/2021	05:09	-132.494	47.329	0	682.70	0	3.8940	0	34.1600	0	27.134	0	675.899	0	18.3	4	5.8	4	-1E+10	1	-1E+10	1	-1E+10	1	-1E+10	1	-1E+10	1	-1E+10	1
4902549	33	C	07/06/2021	05:09	-132.494	47.329	0	687.50	0	3.8790	0	34.1640	0	27.139	0	680.644	0	17.7	4	5.6	4	-1E+10	1	-1E+10	1	-1E+10	1	-1E+10	1	-1E+10	1	-1E+10	1
4902549	33	C	07/06/2021	05:09	-132.494	47.329	0	692.80	0	3.8630	0	34.1700	0	27.145	0	685.882	0	16.8	4	5.3	4	-1E+10	1	-1E+10	1	-1E+10	1	-1E+10	1	-1E+10	1	-1E+10	1
4902549	33	C	07/06/2021	05:09	-132.494	47.329	0	698.20	0	3.8440	0	34.1780	0	27.153	0	691.219	0	15.9	4	5.0	4	-1E+10	1	-1E+10	1	-1E+10	1	-1E+10	1	-1E+10	1	-1E+10	1
4902549	33	C	07/06/2021	05:09	-132.494	47.329	0	703.10	0	3.8300	0	34.1830	0	27.159	0	696.062	0	15.3	4	4.8	4	-1E+10	1	-1E+10	1	-1E+10	1	-1E+10	1	-1E+10	1	-1E+10	1
4902549	33	C	07/06/2021	05:09	-132.494	47.329	0	708.10	0	3.8160	0	34.1880	0	27.164	0	701.003	0	14.5	4	4.6	4	-1E+10	1	-1E+10	1	-1E+10	1	-1E+10	1	-1E+10	1	-1E+10	1
4902549	33	C	07/06/2021	05:09	-132.494	47.329	0	713.20	0	3.8070	0	34.1930	0	27.169	0	706.044	0	14.0	4	4.4	4	-1E+10	1	-1E+10	1	-1E+10	1	-1E+10	1	-1E+10	1	-1E+10	1
4902549	33	C	07/06/2021	05:09	-132.494	47.329	0	718.20	0	3.8000	0	34.1970	0	27.173	0	710.985	0	13.4	4	4.2	4	-1E+10	1	-1E+10	1	-1E+10	1	-1E+10	1	-1E+10	1	-1E+10	1
4902549	33	C	07/06/2021	05:09	-132.494	47.329	0	723.30	0	3.7880	0	34.2020	0	27.178	0	716.025	0	13.0	4	4.1	4	-1E+10	1	-1E+10	1	-1E+10	1	-1E+10	1	-1E+10	1	-1E+10	1
4902549	33	C	07/06/2021	05:09	-132.494	47.329	0	728.30	0	3.7740	0	34.2060	0	27.183	0	720.966	0	12.7	4	4.0	4	-1E+10	1	-1E+10	1	-1E+10	1	-1E+10	1	-1E+10	1	-1E+10	1
4902549	33	C	07/06/2021	05:09	-132.494	47.329	0	732.90	0	3.7610	0	34.2090	0	27.186	0	725.512	0	12.5	4	3.9	4	-1E+10	1	-1E+10	1	-1E+10	1	-1E+10	1	-1E+10	1	-1E+10	1
4902549	33	C	07/06/2021	05:09	-132.494	47.329	0	737.50	0	3.7530	0	34.2110	0	27.189	0	730.057	0	12.3	4	3.9	4	-1E+10	1	-1E+10	1	-1E+10	1	-1E+10	1	-1E+10	1	-1E+10	1
4902549	33	C	07/06/2021	05:09	-132.494	47.329	0	742.60	0	3.7400	0	34.2150	0	27.193	0	735.097	0	12.0	4	3.8	4	-1E+10	1	-1E+10	1	-1E+10	1	-1E+10	1	-1E+10	1	-1E+10	1
4902549	33	C	07/06/2021	05:09	-132.494	47.329	0	747.70	0	3.7320	0	34.2190	0	27.197	0	740.136	0	11.7	4	3.7	4	-1E+10	1	-1E+10	1	-1E+10	1	-1E+10	1	-1E+10	1	-1E+10	1
4902549	33	C	07/06/2021	05:09	-132.494	47.329	0	752.80	0	3.7180	0	34.2220	0	27.201	0	745.176	0	11.4	4	3.6	4	-1E+10	1	-1E+10	1	-1E+10	1	-1E+10	1	-1E+10	1	-1E+10	1
4902549	33	C	07/06/2021	05:09	-132.494	47.329	0	757.80	0	3.7110	0	34.2260	0	27.205	0	750.116	0	11.2	4	3.5	4	-1E+10	1	-1E+10	1	-1E+10	1	-1E+10	1	-1E+10	1	-1E+10	1
4902549	33	C	07/06/2021	05:09	-132.494	47.329	0	762.90	0	3.6940	0	34.2290	0	27.209	0	755.155	0	11.1	4	3.5	4	-1E+10	1	-1E+10	1	-1E+10	1	-1E+10	1	-1E+10	1	-1E+10	1
4902549	33	C	07/06/2021	05:09	-132.494	47.329	0	767.90	0	3.6930	0	34.2300	0	27.210	0	760.095	0	11.0	4	3.5	4	-1E+10	1	-1E+10	1	-1E+10	1	-1E+10	1	-1E+10	1	-1E+10	1
4902549	33	C	07/06/2021	05:09	-132.494	47.329	0	772.90	0	3.6830	0	34.2320	0	27.213	0	765.035	0	10.9	4	3.4	4	-1E+10	1	-1E+10	1	-1E+10	1	-1E+10	1	-1E+10	1	-1E+10	1
4902549	33	C	07/06/2021	05:09	-132.494	47.329	0	777.90	0	3.6600	0	34.2350	0	27.217	0	769.975	0	10.8	4	3.4	4	-1E+10	1	-1E+10	1	-1E+10	1	-1E+10	1	-1E+10	1	-1E+10	1
4902549	33	C	07/06/2021	05:09	-132.494	47.329	0	782.90	0	3.6560	0	34.2360	0	27.219	0	774.915	0	10.7	4	3.4	4	-1E+10	1	-1E+10	1	-1E+10	1	-1E+10	1	-1E+10	1	-1E+10	1
4902549	33	C	07/06/2021	05:09	-132.494	47.329	0	787.90	0	3.6540	0	34.2380	0	27.220	0	779.855	0	10.7	4	3.3	4	-1E+10	1	-1E+10	1	-1E+10	1	-1E+10	1	-1E+10	1	-1E+10	1
4902549	33	C	07/06/2021	05:09	-132.494	47.329	0	792.90	0	3.6280	0	34.2420	0	27.226	0	784.794	0	10.6	4	3.3	4	-1E+10	1	-1E+10	1	-1E+10	1	-1E+10	1	-1E+10	1	-1E+10	1
4902549	33	C	07/06/2021	05:09	-132.494	47.329	0	798.00	0	3.6100	0	34.2460	0	27.231	0	789.832	0	10.5	4	3.3	4	-1E+10	1	-1E+10	1	-1E+10	1	-1E+10	1	-1E+10	1	-1E+10	1
4902549	33	C	07/06/2021	05:09	-132.494	47.329	0	803.00	0	3.5900	0	34.2490	0	27.236	0	794.772	0	10.4	4	3.3	4	-1E+10	1	-1E+10	1	-1E+10	1	-1E+10	1	-1E+10	1	-1E+10	1
4902549	33	C	07/06/2021	05:09	-132.494	47.329	0	808.00	0	3.5770	0	34.2520	0	27.239	0	799.711	0	10.4	4	3.2	4	-1E+10	1	-1E+10	1	-1E+10	1	-1E+10	1	-1E+10	1	-1E+10	1
4902549	33	C	07/06/2021	05:09	-132.494	47.329	0	813.10	0	3.5660	0	34.2540	0	27.242	0	804.749	0	10.3	4	3.2	4	-1E+10	1	-1E+10	1	-1E+10	1	-1E+10	1	-1E+10	1	-1E+10	1
4902549	33	C	07/06/2021	05:09	-132.494	47.329	0	818.20	0	3.5500	0	34.2570	0	27.246	0	809.787	0	10.1	4	3.2	4	-1E+10	1	-1E+10	1	-1E+10	1	-1E+10	1	-1E+10	1	-1E+10	1
4902549	33	C	07/06/2021	05:09	-132.494	47.329	0	823.30	0	3.5390	0	34.2600	0	27.249	0	814.824	0	10.1	4	3.2	4	-1E+10	1	-1E+10	1	-1E+10	1	-1E+10	1	-1E+10	1	-1E+10	1
4902549	33	C	07/06/2021	05:09	-132.494	47.329	0	828.00	0	3.5370	0	34.2610	0	27.250	0	819.467	0	10.1	4	3.1	4	-1E+10	1	-1E+10	1	-1E+10	1	-1E+10	1	-1E+10	1	-1E+10	1
4902549	33	C	07/06/2021	05:09	-132.494	47.329	0	832.60	0	3.5300	0	34.2620	0	27.252	0	824.010	0	10.0	4	3.1	4	-1E+10	1	-1E+10	1	-1E+10	1	-1E+10	1	-1E+10	1	-1E+10	1
4902549	33	C	07/06/2021	05:09	-132.494	47.329	0	837.70	0	3.5110	0	34.2660	0	27.257	0	829.047	0	9.9	4	3.1	4	-1E+10	1	-1E+10	1	-1E+10	1	-1E+10	1	-1E+10	1	-1E+10	1
4902549	33	C	07/06/2021	05:09	-132.494	47.329	0	842.80	0	3.4910	0	34.2710	0	27.263	0	834.084	0	9.7	4	3.0	4	-1E+10	1	-1E+10	1	-1E+10	1	-1E+10	1	-1E+10	1	-1E+10	1
4902549	33	C	07/06/2021	05:09	-132.494	47.329	0	847.90	0	3.4820	0	34.2740	0	27.266	0	839.122	0	9.6	4	3.0	4	-1E+10	1	-1E+10	1	-1E+10	1	-1E+10	1	-1E+10	1	-1E+10	1
4902549	33	C	07/06/2021	05:09	-132.494	47.329	0	852.70	0	3.4760	0	34.2770	0	27.269	0	843.862	0	9.4	4	2.9	4	-1E+10	1	-1E+10	1	-1E+10	1	-1E+10	1	-1E+10	1	-1E+10	1
4902549	33	C	07/06/2021	05:09	-132.494	47.329	0	857.60	0	3.4730	0	34.2800	0	27.272	0	848.701	0	9.1	4	2.8	4	-1E+10	1	-1E+10	1	-1E+10	1	-1E+10	1	-1E+10	1	-1E+10	1
4902549	33	C	07/06/2021	05:09	-132.494	47.329	0	862.70	0	3.4710	0	34.2830	0	27.274	0	853.738	0	8.9	4	2.8	4	-1E+10	1	-1E+10	1	-1E+10	1	-1E+10	1	-1E+10	1	-1E+10	1
4902549	33	C	07/06/2021	05:09	-132.494	47.329	0	867.80	0	3.4620	0	34.2860	0	27.278	0	858.775	0	8.7	4	2.7	4	-1E+10	1	-1E+10	1	-1E+10	1	-1E+10	1	-1E+10	1	-1E+10	1
4902549	33	C	07/06/2021	05:09	-132.494	47.329	0	872.90	0	3.4540	0	34.2890	0	27.281	0	863.811	0	8.5	4	2.6	4	-1E+10	1	-1E+10	1	-1E+10	1	-1E+10	1	-1E+10	1	-1E+10	1
4902549	33	C	07/06/2021	05:09	-132.494	47.329	0	878.10	0	3.4490	0	34.2930	0	27.285	0	868.946	0	8.2	4	2.6	4	-1E+10	1	-1E+10	1	-1E+10	1	-1E+10	1	-1E+10	1	-1E+10	1
4902549	33	C	07/06/2021	05:09	-132.494	47.329	0	883.00	0	3.4420	0	34.2970	0	27.289	0	873.785	0	8.0	4	2.5	4	-1E+10	1	-1E+10	1	-1E+10	1	-1E+10	1	-1E+10	1	-1E+10	1
4902549	33	C	07/06/2021	05:09	-132.494	47.329	0	887.90	0	3.4380	0	34.2990	0	27.291	0	878.623	0	7.9	4	2.5	4	-1E+10	1	-1E+10	1	-1E+10	1	-1E+10	1	-1E+10	1	-1E+10	1
4902549	33	C	07/06/2021	05:09	-132.494	47.329	0	893.00	0	3.4340	0	34.3010	0	27.293	0	883.659	0	7.8	4	2.4	4	-1E+10	1	-1E+10	1	-1E+10	1	-1E+10	1	-1E+10	1	-1E+10	1
4902549	33	C	07/06/2021	05:09	-132.494	47.329	0	897.60	0	3.4260	0	34.3030	0	27.295	0	888.201	0	7.7	4	2.4	4	-1E+10	1	-1E+10	1	-1E+10	1	-1E+10	1	-1E+10	1	-1E+10	1
4902549	33	C	07/06/2021	05:09	-132.494	47.329	0	902.80	0	3.4180	0	34.3050	0	27.297	0	893.336	0	7.7	4	2.4	4	-1E+10	1	-1E+10	1	-1E+10	1	-1E+10	1	-1E+10	1	-1E+10	1
4902549	33	C	07/06/2021	05:09	-132.494	47.329	0	908.10	0	3.4130	0	34.3070	0	27.299	0	898.569	0	7.6	4	2.4	4	-1E+10	1	-1E+10	1	-1E+10	1	-1E+10	1	-1E+10	1	-1E+10	1
4902549	33	C	07/06/2021	05:09	-132.494	47.329	0	913.00	0	3.4010	0	34.3100	0	27.303	0	903.407	0	7.5	4	2.3	4	-1E+10	1	-1E+10	1	-1E+10	1	-1E+10	1	-1E+10	1	-1E+10	1
4902549	33	C	07/06/2021	05:09	-132.494	47.329	0	917.90	0	3.3810	0	34.3130	0	27.307	0	908.245	0	7.5	4	2.3	4	-1E+10	1	-1E+10	1	-1E+10	1	-1E+10	1	-1E+10	1	-1E+10	1
4902549	33	C	07/06/2021	05:09	-132.494	47.329	0	922.90	0	3.3580	0	34.3180	0	27.314	0	913.181	0	7.4	4	2.3	4	-1E+10	1	-1E+10	1	-1E+10	1	-1E+10	1	-1E+10	1	-1E+10	1
4902549	33	C	07/06/2021	05:09	-132.494	47.329	0	927.80	0	3.3490	0	34.3190	0	27.315	0	918.019	0	7.4	4	2.3	4	-1E+10	1	-1E+10	1	-1E+10	1	-1E+10	1	-1E+10	1	-1E+10	1
4902549	33	C	07/06/2021	05:09	-132.494	47.329	0	932.80	0	3.3420	0	34.3210	0	27.317	0	922.955	0	7.3	4	2.3	4	-1E+10	1	-1E+10	1	-1E+10	1	-1E+10	1	-1E+10	1	-1E+10	1
4902549	33	C	07/06/2021	05:09	-132.494	47.329	0	937.90	0	3.3410	0	34.3220	0	27.318	0	927.990	0	7.3	4	2.3	4	-1E+10	1	-1E+10	1	-1E+10	1	-1E+10	1	-1E+10	1	-1E+10	1
4902549	33	C	07/06/2021	05:09	-132.494	47.329	0	942.90	0	3.3330	0	34.3250	0	27.322	0	932.926	0	7.3	4	2.3	4	-1E+10	1	-1E+10	1	-1E+10	1	-1E+10	1	-1E+10	1	-1E+10	1
4902549	33	C	07/06/2021	05:09	-132.494	47.329	0	948.00	0	3.3140	0	34.3260	0	27.324	0	937.961	0	7.5	4	2.3	4	-1E+10	1	-1E+10	1	-1E+10	1	-1E+10	1	-1E+10	1	-1E+10	1
4902549	33	C	07/06/2021	05:09	-132.494	47.329	0	953.10	0	3.2930	0	34.3260	0	27.326	0	942.995	0	7.5	4	2.3	4	-1E+10	1	-1E+10	1	-1E+10	1	-1E+10	1	-1E+10	1	-1E+10	1
4902549	33	C	07/06/2021	05:09	-132.494	47.329	0	958.30	0	3.2900	0	34.3270	0	27.327	0	948.128	0	7.5	4	2.3	4	-1E+10	1	-1E+10	1	-1E+10	1	-1E+10	1	-1E+10	1	-1E+10	1
4902549	33	C	07/06/2021	05:09	-132.494	47.329	0	962.90	0	3.2810	0	34.3300	0	27.331	0	952.669	0	7.5	4	2.3	4	-1E+10	1	-1E+10	1	-1E+10	1	-1E+10	1	-1E+10	1	-1E+10	1
4902549	33	C	07/06/2021	05:09	-132.494	47.329	0	967.60	0	3.2740	0	34.3310	0	27.332	0	957.308	0	7.5	4	2.3	4	-1E+10	1	-1E+10	1	-1E+10	1	-1E+10	1	-1E+10	1	-1E+10	1
4902549	33	C	07/06/2021	05:09	-132.494	47.329	0	972.80	0	3.2670	0	34.3320	0	27.334	0	962.441	0	7.5	4	2.3	4	-1E+10	1	-1E+10	1	-1E+10	1	-1E+10	1	-1E+10	1	-1E+10	1
4902549	33	C	07/06/2021	05:09	-132.494	47.329	0	978.00	0	3.2590	0	34.3340	0	27.336	0	967.574	0	7.5	4	2.3	4	-1E+10	1	-1E+10	1	-1E+10	1	-1E+10	1	-1E+10	1	-1E+10	1
4902549	33	C	07/06/2021	05:09	-132.494	47.329	0	983.20	0	3.2480	0	34.3360	0	27.339	0	972.706	0	7.5	4	2.3	4	-1E+10	1	-1E+10	1	-1E+10	1	-1E+10	1	-1E+10	1	-1E+10	1
4902549	33	C	07/06/2021	05:09	-132.494	47.329	0	988.00	0	3.2310	0	34.3380	0	27.342	0	977.444	0	7.6	4	2.4	4	-1E+10	1	-1E+10	1	-1E+10	1	-1E+10	1	-1E+10	1	-1E+10	1
4902549	33	C	07/06/2021	05:09	-132.494	47.329	0	992.70	0	3.2170	0	34.3390	0	27.344	0	982.083	0	7.6	4	2.3	4	-1E+10	1	-1E+10	1	-1E+10	1	-1E+10	1	-1E+10	1	-1E+10	1
4902549	33	C	07/06/2021	05:09	-132.494	47.329	0	997.70	0	3.2060	0	34.3420	0	27.347	0	987.017	0	7.5	4	2.3	4	-1E+10	1	-1E+10	1	-1E+10	1	-1E+10	1	-1E+10	1	-1E+10	1
4902549	33	C	07/06/2021	05:09	-132.494	47.329	0	1005.20	0	3.1980	0	34.3450	0	27.350	0	994.419	0	7.5	4	2.3	4	-1E+10	1	-1E+10	1	-1E+10	1	-1E+10	1	-1E+10	1	-1E+10	1
4902549	33	C	07/06/2021	05:09	-132.494	47.329	0	1015.40	0	3.1830	0	34.3480	0	27.354	0	1004.486	0	7.5	4	2.3	4	-1E+10	1	-1E+10	1	-1E+10	1	-1E+10	1	-1E+10	1	-1E+10	1
4902549	33	C	07/06/2021	05:09	-132.494	47.329	0	1025.30	0	3.1610	0	34.3510	0	27.359	0	1014.255	0	7.5	4	2.3	4	-1E+10	1	-1E+10	1	-1E+10	1	-1E+10	1	-1E+10	1	-1E+10	1
4902549	33	C	07/06/2021	05:09	-132.494	47.329	0	1035.30	0	3.1540	0	34.3540	0	27.362	0	1024.123	0	7.4	4	2.3	4	-1E+10	1	-1E+10	1	-1E+10	1	-1E+10	1	-1E+10	1	-1E+10	1
4902549	33	C	07/06/2021	05:09	-132.494	47.329	0	1045.30	0	3.1460	0	34.3570	0	27.365	0	1033.991	0	7.4	4	2.3	4	-1E+10	1	-1E+10	1	-1E+10	1	-1E+10	1	-1E+10	1	-1E+10	1
4902549	33	C	07/06/2021	05:09	-132.494	47.329	0	1055.40	0	3.1260	0	34.3590	0	27.369	0	1043.956	0	7.5	4	2.3	4	-1E+10	1	-1E+10	1	-1E+10	1	-1E+10	1	-1E+10	1	-1E+10	1
4902549	33	C	07/06/2021	05:09	-132.494	47.329	0	1065.60	0	3.1050	0	34.3640	0	27.375	0	1054.020	0	7.5	4	2.3	4	-1E+10	1	-1E+10	1	-1E+10	1	-1E+10	1	-1E+10	1	-1E+10	1
4902549	33	C	07/06/2021	05:09	-132.494	47.329	0	1075.40	0	3.0860	0	34.3680	0	27.380	0	1063.689	0	7.5	4	2.3	4	-1E+10	1	-1E+10	1	-1E+10	1	-1E+10	1	-1E+10	1	-1E+10	1
4902549	33	C	07/06/2021	05:09	-132.494	47.329	0	1085.10	0	3.0640	0	34.3720	0	27.385	0	1073.258	0	7.5	4	2.3	4	-1E+10	1	-1E+10	1	-1E+10	1	-1E+10	1	-1E+10	1	-1E+10	1
4902549	33	C	07/06/2021	05:09	-132.494	47.329	0	1095.30	0	3.0480	0	34.3770	0	27.390	0	1083.321	0	7.5	4	2.3	4	-1E+10	1	-1E+10	1	-1E+10	1	-1E+10	1	-1E+10	1	-1E+10	1
4902549	33	C	07/06/2021	05:09	-132.494	47.329	0	1105.60	0	3.0400	0	34.3810	0	27.394	0	1093.481	0	7.4	4	2.3	4	-1E+10	1	-1E+10	1	-1E+10	1	-1E+10	1	-1E+10	1	-1E+10	1
4902549	33	C	07/06/2021	05:09	-132.494	47.329	0	1115.60	0	3.0360	0	34.3850	0	27.398	0	1103.345	0	7.4	4	2.3	4	-1E+10	1	-1E+10	1	-1E+10	1	-1E+10	1	-1E+10	1	-1E+10	1
4902549	33	C	07/06/2021	05:09	-132.494	47.329	0	1125.70	0	3.0240	0	34.3900	0	27.403	0	1113.307	0	7.4	4	2.3	4	-1E+10	1	-1E+10	1	-1E+10	1	-1E+10	1	-1E+10	1	-1E+10	1
4902549	33	C	07/06/2021	05:09	-132.494	47.329	0	1135.50	0	3.0100	0	34.3940	0	27.408	0	1122.973	0	7.4	4	2.3	4	-1E+10	1	-1E+10	1	-1E+10	1	-1E+10	1	-1E+10	1	-1E+10	1
4902549	33	C	07/06/2021	05:09	-132.494	47.329	0	1145.10	0	2.9960	0	34.4000	0	27.414	0	1132.442	0	7.5	4	2.3	4	-1E+10	1	-1E+10	1	-1E+10	1	-1E+10	1	-1E+10	1	-1E+10	1
4902549	33	C	07/06/2021	05:09	-132.494	47.329	0	1155.30	0	2.9800	0	34.4030	0	27.418	0	1142.501	0	7.6	4	2.3	4	-1E+10	1	-1E+10	1	-1E+10	1	-1E+10	1	-1E+10	1	-1E+10	1
4902549	33	C	07/06/2021	05:09	-132.494	47.329	0	1165.70	0	2.9530	0	34.4060	0	27.422	0	1152.757	0	7.7	4	2.4	4	-1E+10	1	-1E+10	1	-1E+10	1	-1E+10	1	-1E+10	1	-1E+10	1
4902549	33	C	07/06/2021	05:09	-132.494	47.329	0	1175.40	0	2.9250	0	34.4090	0	27.427	0	1162.323	0	7.8	4	2.4	4	-1E+10	1	-1E+10	1	-1E+10	1	-1E+10	1	-1E+10	1	-1E+10	1
4902549	33	C	07/06/2021	05:09	-132.494	47.329	0	1185.70	0	2.9150	0	34.4120	0	27.431	0	1172.480	0	7.9	4	2.4	4	-1E+10	1	-1E+10	1	-1E+10	1	-1E+10	1	-1E+10	1	-1E+10	1
4902549	33	C	07/06/2021	05:09	-132.494	47.329	0	1195.40	0	2.9090	0	34.4140	0	27.433	0	1182.044	0	8.0	4	2.5	4	-1E+10	1	-1E+10	1	-1E+10	1	-1E+10	1	-1E+10	1	-1E+10	1
4902549	33	C	07/06/2021	05:09	-132.494	47.329	0	1205.40	0	2.8930	0	34.4160	0	27.436	0	1191.904	0	8.1	4	2.5	4	-1E+10	1	-1E+10	1	-1E+10	1	-1E+10	1	-1E+10	1	-1E+10	1
4902549	33	C	07/06/2021	05:09	-132.494	47.329	0	1215.70	0	2.8660	0	34.4190	0	27.441	0	1202.059	0	8.2	4	2.5	4	-1E+10	1	-1E+10	1	-1E+10	1	-1E+10	1	-1E+10	1	-1E+10	1
4902549	33	C	07/06/2021	05:09	-132.494	47.329	0	1225.40	0	2.8500	0	34.4230	0	27.446	0	1211.623	0	8.4	4	2.6	4	-1E+10	1	-1E+10	1	-1E+10	1	-1E+10	1	-1E+10	1	-1E+10	1
4902549	33	C	07/06/2021	05:09	-132.494	47.329	0	1235.20	0	2.8380	0	34.4250	0	27.448	0	1221.284	0	8.5	4	2.6	4	-1E+10	1	-1E+10	1	-1E+10	1	-1E+10	1	-1E+10	1	-1E+10	1
4902549	33	C	07/06/2021	05:09	-132.494	47.329	0	1245.30	0	2.8180	0	34.4280	0	27.452	0	1231.241	0	8.5	4	2.6	4	-1E+10	1	-1E+10	1	-1E+10	1	-1E+10	1	-1E+10	1	-1E+10	1
4902549	33	C	07/06/2021	05:09	-132.494	47.329	0	1255.30	0	2.8040	0	34.4300	0	27.455	0	1241.098	0	8.6	4	2.6	4	-1E+10	1	-1E+10	1	-1E+10	1	-1E+10	1	-1E+10	1	-1E+10	1
4902549	33	C	07/06/2021	05:09	-132.494	47.329	0	1265.50	0	2.7920	0	34.4320	0	27.458	0	1251.153	0	8.8	4	2.7	4	-1E+10	1	-1E+10	1	-1E+10	1	-1E+10	1	-1E+10	1	-1E+10	1
4902549	33	C	07/06/2021	05:09	-132.494	47.329	0	1275.30	0	2.7770	0	34.4350	0	27.462	0	1260.812	0	9.1	4	2.8	4	-1E+10	1	-1E+10	1	-1E+10	1	-1E+10	1	-1E+10	1	-1E+10	1
4902549	33	C	07/06/2021	05:09	-132.494	47.329	0	1285.10	0	2.7670	0	34.4380	0	27.465	0	1270.471	0	9.2	4	2.8	4	-1E+10	1	-1E+10	1	-1E+10	1	-1E+10	1	-1E+10	1	-1E+10	1
4902549	33	C	07/06/2021	05:09	-132.494	47.329	0	1295.50	0	2.7480	0	34.4400	0	27.468	0	1280.721	0	9.4	4	2.9	4	-1E+10	1	-1E+10	1	-1E+10	1	-1E+10	1	-1E+10	1	-1E+10	1
4902549	33	C	07/06/2021	05:09	-132.494	47.329	0	1305.60	0	2.7340	0	34.4430	0	27.472	0	1290.675	0	9.8	4	3.0	4	-1E+10	1	-1E+10	1	-1E+10	1	-1E+10	1	-1E+10	1	-1E+10	1
4902549	33	C	07/06/2021	05:09	-132.494	47.329	0	1315.40	0	2.7100	0	34.4460	0	27.477	0	1300.333	0	10.1	4	3.1	4	-1E+10	1	-1E+10	1	-1E+10	1	-1E+10	1	-1E+10	1	-1E+10	1
4902549	33	C	07/06/2021	05:09	-132.494	47.329	0	1325.40	0	2.6930	0	34.4490	0	27.481	0	1310.187	0	10.4	4	3.2	4	-1E+10	1	-1E+10	1	-1E+10	1	-1E+10	1	-1E+10	1	-1E+10	1
4902549	33	C	07/06/2021	05:09	-132.494	47.329	0	1335.50	0	2.6750	0	34.4520	0	27.485	0	1320.140	0	10.7	4	3.3	4	-1E+10	1	-1E+10	1	-1E+10	1	-1E+10	1	-1E+10	1	-1E+10	1
4902549	33	C	07/06/2021	05:09	-132.494	47.329	0	1345.70	0	2.6640	0	34.4540	0	27.487	0	1330.190	0	11.0	4	3.4	4	-1E+10	1	-1E+10	1	-1E+10	1	-1E+10	1	-1E+10	1	-1E+10	1
4902549	33	C	07/06/2021	05:09	-132.494	47.329	0	1355.50	0	2.6480	0	34.4580	0	27.492	0	1339.846	0	11.1	4	3.4	4	-1E+10	1	-1E+10	1	-1E+10	1	-1E+10	1	-1E+10	1	-1E+10	1
4902549	33	C	07/06/2021	05:09	-132.494	47.329	0	1365.20	0	2.6360	0	34.4580	0	27.493	0	1349.403	0	11.3	4	3.5	4	-1E+10	1	-1E+10	1	-1E+10	1	-1E+10	1	-1E+10	1	-1E+10	1
4902549	33	C	07/06/2021	05:09	-132.494	47.329	0	1375.30	0	2.6270	0	34.4600	0	27.495	0	1359.354	0	11.7	4	3.6	4	-1E+10	1	-1E+10	1	-1E+10	1	-1E+10	1	-1E+10	1	-1E+10	1
4902549	33	C	07/06/2021	05:09	-132.494	47.329	0	1385.20	0	2.6180	0	34.4620	0	27.498	0	1369.107	0	12.1	4	3.7	4	-1E+10	1	-1E+10	1	-1E+10	1	-1E+10	1	-1E+10	1	-1E+10	1
4902549	33	C	07/06/2021	05:09	-132.494	47.329	0	1395.40	0	2.6060	0	34.4650	0	27.501	0	1379.155	0	12.5	4	3.8	4	-1E+10	1	-1E+10	1	-1E+10	1	-1E+10	1	-1E+10	1	-1E+10	1
4902549	33	C	07/06/2021	05:09	-132.494	47.329	0	1405.50	0	2.5930	0	34.4670	0	27.504	0	1389.104	0	12.8	4	3.9	4	-1E+10	1	-1E+10	1	-1E+10	1	-1E+10	1	-1E+10	1	-1E+10	1
4902549	33	C	07/06/2021	05:09	-132.494	47.329	0	1415.60	0	2.5780	0	34.4690	0	27.507	0	1399.053	0	13.2	4	4.0	4	-1E+10	1	-1E+10	1	-1E+10	1	-1E+10	1	-1E+10	1	-1E+10	1
4902549	33	C	07/06/2021	05:09	-132.494	47.329	0	1425.70	0	2.5650	0	34.4730	0	27.511	0	1409.001	0	13.8	4	4.2	4	-1E+10	1	-1E+10	1	-1E+10	1	-1E+10	1	-1E+10	1	-1E+10	1
4902549	33	C	07/06/2021	05:09	-132.494	47.329	0	1435.30	0	2.5560	0	34.4750	0	27.514	0	1418.457	0	14.4	4	4.4	4	-1E+10	1	-1E+10	1	-1E+10	1	-1E+10	1	-1E+10	1	-1E+10	1
4902549	33	C	07/06/2021	05:09	-132.494	47.329	0	1445.40	0	2.5480	0	34.4790	0	27.518	0	1428.404	0	14.8	4	4.5	4	-1E+10	1	-1E+10	1	-1E+10	1	-1E+10	1	-1E+10	1	-1E+10	1
4902549	33	C	07/06/2021	05:09	-132.494	47.329	0	1455.60	0	2.5330	0	34.4810	0	27.521	0	1438.449	0	15.0	4	4.6	4	-1E+10	1	-1E+10	1	-1E+10	1	-1E+10	1	-1E+10	1	-1E+10	1
4902549	33	C	07/06/2021	05:09	-132.494	47.329	0	1465.50	0	2.5160	0	34.4820	0	27.523	0	1448.199	0	15.1	4	4.6	4	-1E+10	1	-1E+10	1	-1E+10	1	-1E+10	1	-1E+10	1	-1E+10	1
4902549	33	C	07/06/2021	05:09	-132.494	47.329	0	1475.20	0	2.4970	0	34.4840	0	27.526	0	1457.751	0	15.6	4	4.8	4	-1E+10	1	-1E+10	1	-1E+10	1	-1E+10	1	-1E+10	1	-1E+10	1
4902549	33	C	07/06/2021	05:09	-132.494	47.329	0	1485.30	0	2.4750	0	34.4870	0	27.530	0	1467.696	0	15.8	4	4.8	4	-1E+10	1	-1E+10	1	-1E+10	1	-1E+10	1	-1E+10	1	-1E+10	1
4902549	33	C	07/06/2021	05:09	-132.494	47.329	0	1495.30	0	2.4550	0	34.4890	0	27.534	0	1477.543	0	16.2	4	4.9	4	-1E+10	1	-1E+10	1	-1E+10	1	-1E+10	1	-1E+10	1	-1E+10	1
4902549	33	C	07/06/2021	05:09	-132.494	47.329	0	1505.10	0	2.4330	0	34.4920	0	27.538	0	1487.192	0	16.5	4	5.0	4	-1E+10	1	-1E+10	1	-1E+10	1	-1E+10	1	-1E+10	1	-1E+10	1
4902549	33	C	07/06/2021	05:09	-132.494	47.329	0	1515.20	0	2.4200	0	34.4940	0	27.541	0	1497.136	0	17.0	4	5.2	4	-1E+10	1	-1E+10	1	-1E+10	1	-1E+10	1	-1E+10	1	-1E+10	1
4902549	33	C	07/06/2021	05:09	-132.494	47.329	0	1525.60	0	2.4060	0	34.4970	0	27.544	0	1507.375	0	17.5	4	5.3	4	-1E+10	1	-1E+10	1	-1E+10	1	-1E+10	1	-1E+10	1	-1E+10	1
4902549	33	C	07/06/2021	05:09	-132.494	47.329	0	1535.40	0	2.3940	0	34.4990	0	27.547	0	1517.023	0	18.1	4	5.5	4	-1E+10	1	-1E+10	1	-1E+10	1	-1E+10	1	-1E+10	1	-1E+10	1
4902549	33	C	07/06/2021	05:09	-132.494	47.329	0	1545.60	0	2.3750	0	34.5020	0	27.551	0	1527.064	0	18.7	4	5.7	4	-1E+10	1	-1E+10	1	-1E+10	1	-1E+10	1	-1E+10	1	-1E+10	1
4902549	33	C	07/06/2021	05:09	-132.494	47.329	0	1555.50	0	2.3660	0	34.5030	0	27.552	0	1536.809	0	19.2	4	5.9	4	-1E+10	1	-1E+10	1	-1E+10	1	-1E+10	1	-1E+10	1	-1E+10	1
4902549	33	C	07/06/2021	05:09	-132.494	47.329	0	1565.30	0	2.3520	0	34.5060	0	27.556	0	1546.456	0	19.8	4	6.0	4	-1E+10	1	-1E+10	1	-1E+10	1	-1E+10	1	-1E+10	1	-1E+10	1
4902549	33	C	07/06/2021	05:09	-132.494	47.329	0	1575.30	0	2.3400	0	34.5080	0	27.559	0	1556.298	0	20.4	4	6.2	4	-1E+10	1	-1E+10	1	-1E+10	1	-1E+10	1	-1E+10	1	-1E+10	1
4902549	33	C	07/06/2021	05:09	-132.494	47.329	0	1585.60	0	2.3310	0	34.5100	0	27.561	0	1566.436	0	20.8	4	6.3	4	-1E+10	1	-1E+10	1	-1E+10	1	-1E+10	1	-1E+10	1	-1E+10	1
4902549	33	C	07/06/2021	05:09	-132.494	47.329	0	1595.90	0	2.3250	0	34.5120	0	27.563	0	1576.573	0	21.3	4	6.5	4	-1E+10	1	-1E+10	1	-1E+10	1	-1E+10	1	-1E+10	1	-1E+10	1
4902549	33	C	07/06/2021	05:09	-132.494	47.329	0	1605.40	0	2.3150	0	34.5130	0	27.565	0	1585.923	0	21.9	4	6.7	4	-1E+10	1	-1E+10	1	-1E+10	1	-1E+10	1	-1E+10	1	-1E+10	1
4902549	33	C	07/06/2021	05:09	-132.494	47.329	0	1615.10	0	2.3020	0	34.5150	0	27.568	0	1595.468	0	22.7	4	6.9	4	-1E+10	1	-1E+10	1	-1E+10	1	-1E+10	1	-1E+10	1	-1E+10	1
4902549	33	C	07/06/2021	05:09	-132.494	47.329	0	1625.50	0	2.2830	0	34.5180	0	27.572	0	1605.703	0	23.6	4	7.2	4	-1E+10	1	-1E+10	1	-1E+10	1	-1E+10	1	-1E+10	1	-1E+10	1
4902549	33	C	07/06/2021	05:09	-132.494	47.329	0	1635.80	0	2.2710	0	34.5200	0	27.574	0	1615.838	0	24.2	4	7.3	4	-1E+10	1	-1E+10	1	-1E+10	1	-1E+10	1	-1E+10	1	-1E+10	1
4902549	33	C	07/06/2021	05:09	-132.494	47.329	0	1645.20	0	2.2630	0	34.5220	0	27.577	0	1625.087	0	24.9	4	7.6	4	-1E+10	1	-1E+10	1	-1E+10	1	-1E+10	1	-1E+10	1	-1E+10	1
4902549	33	C	07/06/2021	05:09	-132.494	47.329	0	1655.10	0	2.2480	0	34.5240	0	27.579	0	1634.828	0	25.8	4	7.8	4	-1E+10	1	-1E+10	1	-1E+10	1	-1E+10	1	-1E+10	1	-1E+10	1
4902549	33	C	07/06/2021	05:09	-132.494	47.329	0	1665.00	0	2.2280	0	34.5270	0	27.584	0	1644.568	0	26.7	4	8.1	4	-1E+10	1	-1E+10	1	-1E+10	1	-1E+10	1	-1E+10	1	-1E+10	1
4902549	33	C	07/06/2021	05:09	-132.494	47.329	0	1675.20	0	2.2160	0	34.5300	0	27.587	0	1654.603	0	27.5	4	8.3	4	-1E+10	1	-1E+10	1	-1E+10	1	-1E+10	1	-1E+10	1	-1E+10	1
4902549	33	C	07/06/2021	05:09	-132.494	47.329	0	1685.40	0	2.2040	0	34.5320	0	27.590	0	1664.638	0	28.3	4	8.6	4	-1E+10	1	-1E+10	1	-1E+10	1	-1E+10	1	-1E+10	1	-1E+10	1
4902549	33	C	07/06/2021	05:09	-132.494	47.329	0	1695.70	0	2.1920	0	34.5340	0	27.592	0	1674.770	0	29.3	4	8.9	4	-1E+10	1	-1E+10	1	-1E+10	1	-1E+10	1	-1E+10	1	-1E+10	1
4902549	33	C	07/06/2021	05:09	-132.494	47.329	0	1705.60	0	2.1780	0	34.5370	0	27.596	0	1684.509	0	30.4	4	9.2	4	-1E+10	1	-1E+10	1	-1E+10	1	-1E+10	1	-1E+10	1	-1E+10	1
4902549	33	C	07/06/2021	05:09	-132.494	47.329	0	1715.30	0	2.1660	0	34.5400	0	27.599	0	1694.050	0	31.0	4	9.4	4	-1E+10	1	-1E+10	1	-1E+10	1	-1E+10	1	-1E+10	1	-1E+10	1
4902549	33	C	07/06/2021	05:09	-132.494	47.329	0	1725.10	0	2.1630	0	34.5410	0	27.600	0	1703.689	0	31.3	4	9.5	4	-1E+10	1	-1E+10	1	-1E+10	1	-1E+10	1	-1E+10	1	-1E+10	1
4902549	33	C	07/06/2021	05:09	-132.494	47.329	0	1735.40	0	2.1600	0	34.5410	0	27.601	0	1713.820	0	31.6	4	9.6	4	-1E+10	1	-1E+10	1	-1E+10	1	-1E+10	1	-1E+10	1	-1E+10	1
4902549	33	C	07/06/2021	05:09	-132.494	47.329	0	1745.80	0	2.1520	0	34.5420	0	27.602	0	1724.049	0	32.0	4	9.7	4	-1E+10	1	-1E+10	1	-1E+10	1	-1E+10	1	-1E+10	1	-1E+10	1
4902549	33	C	07/06/2021	05:09	-132.494	47.329	0	1755.80	0	2.1390	0	34.5440	0	27.605	0	1733.883	0	32.6	4	9.9	4	-1E+10	1	-1E+10	1	-1E+10	1	-1E+10	1	-1E+10	1	-1E+10	1
4902549	33	C	07/06/2021	05:09	-132.494	47.329	0	1765.80	0	2.1310	0	34.5460	0	27.607	0	1743.717	0	33.2	4	10.0	4	-1E+10	1	-1E+10	1	-1E+10	1	-1E+10	1	-1E+10	1	-1E+10	1
4902549	33	C	07/06/2021	05:09	-132.494	47.329	0	1775.80	0	2.1220	0	34.5480	0	27.609	0	1753.551	0	34.0	4	10.3	4	-1E+10	1	-1E+10	1	-1E+10	1	-1E+10	1	-1E+10	1	-1E+10	1
4902549	33	C	07/06/2021	05:09	-132.494	47.329	0	1785.80	0	2.1130	0	34.5500	0	27.612	0	1763.384	0	34.8	4	10.5	4	-1E+10	1	-1E+10	1	-1E+10	1	-1E+10	1	-1E+10	1	-1E+10	1
4902549	33	C	07/06/2021	05:09	-132.494	47.329	0	1795.50	0	2.1030	0	34.5520	0	27.614	0	1772.922	0	35.6	4	10.8	4	-1E+10	1	-1E+10	1	-1E+10	1	-1E+10	1	-1E+10	1	-1E+10	1
4902549	33	C	07/06/2021	05:09	-132.494	47.329	0	1805.20	0	2.0940	0	34.5540	0	27.617	0	1782.459	0	36.5	4	11.0	4	-1E+10	1	-1E+10	1	-1E+10	1	-1E+10	1	-1E+10	1	-1E+10	1
4902549	33	C	07/06/2021	05:09	-132.494	47.329	0	1815.50	0	2.0860	0	34.5560	0	27.619	0	1792.586	0	37.4	4	11.3	4	-1E+10	1	-1E+10	1	-1E+10	1	-1E+10	1	-1E+10	1	-1E+10	1
4902549	33	C	07/06/2021	05:09	-132.494	47.329	0	1825.50	0	2.0770	0	34.5580	0	27.621	0	1802.417	0	38.1	4	11.5	4	-1E+10	1	-1E+10	1	-1E+10	1	-1E+10	1	-1E+10	1	-1E+10	1
4902549	33	C	07/06/2021	05:09	-132.494	47.329	0	1835.50	0	2.0730	0	34.5590	0	27.622	0	1812.248	0	38.9	4	11.7	4	-1E+10	1	-1E+10	1	-1E+10	1	-1E+10	1	-1E+10	1	-1E+10	1
4902549	33	C	07/06/2021	05:09	-132.494	47.329	0	1845.50	0	2.0680	0	34.5610	0	27.624	0	1822.079	0	39.5	4	11.9	4	-1E+10	1	-1E+10	1	-1E+10	1	-1E+10	1	-1E+10	1	-1E+10	1
4902549	33	C	07/06/2021	05:09	-132.494	47.329	0	1855.50	0	2.0620	0	34.5620	0	27.626	0	1831.909	0	40.3	4	12.2	4	-1E+10	1	-1E+10	1	-1E+10	1	-1E+10	1	-1E+10	1	-1E+10	1
4902549	33	C	07/06/2021	05:09	-132.494	47.329	0	1865.60	0	2.0540	0	34.5650	0	27.629	0	1841.837	0	41.2	4	12.4	4	-1E+10	1	-1E+10	1	-1E+10	1	-1E+10	1	-1E+10	1	-1E+10	1
4902549	33	C	07/06/2021	05:09	-132.494	47.329	0	1875.20	0	2.0460	0	34.5670	0	27.631	0	1851.273	0	42.0	4	12.7	4	-1E+10	1	-1E+10	1	-1E+10	1	-1E+10	1	-1E+10	1	-1E+10	1
4902549	33	C	07/06/2021	05:09	-132.494	47.329	0	1885.40	0	2.0330	0	34.5690	0	27.634	0	1861.298	0	42.8	4	12.9	4	-1E+10	1	-1E+10	1	-1E+10	1	-1E+10	1	-1E+10	1	-1E+10	1
4902549	33	C	07/06/2021	05:09	-132.494	47.329	0	1895.80	0	2.0200	0	34.5710	0	27.636	0	1871.519	0	43.4	4	13.1	4	-1E+10	1	-1E+10	1	-1E+10	1	-1E+10	1	-1E+10	1	-1E+10	1
4902549	33	C	07/06/2021	05:09	-132.494	47.329	0	1905.80	0	2.0120	0	34.5720	0	27.638	0	1881.347	0	43.9	4	13.3	4	-1E+10	1	-1E+10	1	-1E+10	1	-1E+10	1	-1E+10	1	-1E+10	1
4902549	33	C	07/06/2021	05:09	-132.494	47.329	0	1915.80	0	2.0030	0	34.5740	0	27.640	0	1891.174	0	44.7	4	13.5	4	-1E+10	1	-1E+10	1	-1E+10	1	-1E+10	1	-1E+10	1	-1E+10	1
4902549	33	C	07/06/2021	05:09	-132.494	47.329	0	1925.40	0	1.9930	0	34.5750	0	27.642	0	1900.608	0	45.4	4	13.7	4	-1E+10	1	-1E+10	1	-1E+10	1	-1E+10	1	-1E+10	1	-1E+10	1
4902549	33	C	07/06/2021	05:09	-132.494	47.329	0	1935.30	0	1.9840	0	34.5770	0	27.644	0	1910.336	0	46.1	4	13.9	4	-1E+10	1	-1E+10	1	-1E+10	1	-1E+10	1	-1E+10	1	-1E+10	1
4902549	33	C	07/06/2021	05:09	-132.494	47.329	0	1945.60	0	1.9820	0	34.5780	0	27.645	0	1920.457	0	47.1	4	14.2	4	-1E+10	1	-1E+10	1	-1E+10	1	-1E+10	1	-1E+10	1	-1E+10	1
4902549	33	C	07/06/2021	05:09	-132.494	47.329	0	1955.30	0	1.9790	0	34.5800	0	27.647	0	1929.988	0	47.8	4	14.4	4	-1E+10	1	-1E+10	1	-1E+10	1	-1E+10	1	-1E+10	1	-1E+10	1
4902549	33	C	07/06/2021	05:09	-132.494	47.329	0	1965.20	0	1.9700	0	34.5820	0	27.650	0	1939.714	0	48.3	4	14.5	4	-1E+10	1	-1E+10	1	-1E+10	1	-1E+10	1	-1E+10	1	-1E+10	1
4902549	33	C	07/06/2021	05:09	-132.494	47.329	0	1975.60	0	1.9640	0	34.5830	0	27.651	0	1949.932	0	48.7	4	14.7	4	-1E+10	1	-1E+10	1	-1E+10	1	-1E+10	1	-1E+10	1	-1E+10	1
4902549	33	C	07/06/2021	05:09	-132.494	47.329	0	1985.60	0	1.9570	0	34.5830	0	27.651	0	1959.756	0	49.0	4	14.8	4	-1E+10	1	-1E+10	1	-1E+10	1	-1E+10	1	-1E+10	1	-1E+10	1
4902549	33	C	07/06/2021	05:09	-132.494	47.329	0	1995.30	0	1.9510	0	34.5840	0	27.653	0	1969.285	0	49.3	4	14.8	4	-1E+10	1	-1E+10	1	-1E+10	1	-1E+10	1	-1E+10	1	-1E+10	1
4902549	33	C	07/06/2021	05:09	-132.494	47.329	0	2005.20	0	1.9470	0	34.5850	0	27.654	0	1979.010	0	49.6	4	14.9	4	-1E+10	1	-1E+10	1	-1E+10	1	-1E+10	1	-1E+10	1	-1E+10	1
4902549	33	C	07/06/2021	05:09	-132.494	47.329	0	2015.30	0	1.9430	0	34.5860	0	27.655	0	1988.931	0	49.7	4	15.0	4	-1E+10	1	-1E+10	1	-1E+10	1	-1E+10	1	-1E+10	1	-1E+10	1
4902549	33	C	07/06/2021	05:09	-132.494	47.329	0	2023.90	0	1.9380	0	34.5860	0	27.656	0	1997.378	0	49.4	4	14.9	4	-1E+10	1	-1E+10	1	-1E+10	1	-1E+10	1	-1E+10	1	-1E+10	1
4902549	33	C	07/06/2021	05:09	-132.494	47.329	0																										
4902549	34	C	07/16/2021	10:02	-132.385	47.334	0	0.30	0	15.2640	0	32.3150	0	23.847	0	0.298	0	250.0	4	99.6	4	-1E+10	1	-1E+10	1	-1E+10	1	-1E+10	1	-1E+10	1	-1E+10	1
4902549	34	C	07/16/2021	10:02	-132.385	47.334	0	1.00	0	15.2640	0	32.3250	0	23.854	0	0.992	0	250.0	4	99.5	4	-1E+10	1	-1E+10	1	-1E+10	1	-1E+10	1	-1E+10	1	-1E+10	1
4902549	34	C	07/16/2021	10:02	-132.385	47.334	0	2.10	0	15.2640	0	32.3240	0	23.854	0	2.082	0	249.9	4	99.5	4	-1E+10	1	-1E+10	1	-1E+10	1	-1E+10	1	-1E+10	1	-1E+10	1
4902549	34	C	07/16/2021	10:02	-132.385	47.334	0	3.00	0	15.2650	0	32.3220	0	23.852	0	2.975	0	250.0	4	99.6	4	-1E+10	1	-1E+10	1	-1E+10	1	-1E+10	1	-1E+10	1	-1E+10	1
4902549	34	C	07/16/2021	10:02	-132.385	47.334	0	4.10	0	15.2640	0	32.3260	0	23.855	0	4.066	0	250.1	4	99.6	4	-1E+10	1	-1E+10	1	-1E+10	1	-1E+10	1	-1E+10	1	-1E+10	1
4902549	34	C	07/16/2021	10:02	-132.385	47.334	0	5.10	0	15.2650	0	32.3280	0	23.856	0	5.057	0	250.1	4	99.6	4	-1E+10	1	-1E+10	1	-1E+10	1	-1E+10	1	-1E+10	1	-1E+10	1
4902549	34	C	07/16/2021	10:02	-132.385	47.334	0	6.00	0	15.2650	0	32.3280	0	23.857	0	5.950	0	250.4	4	99.7	4	-1E+10	1	-1E+10	1	-1E+10	1	-1E+10	1	-1E+10	1	-1E+10	1
4902549	34	C	07/16/2021	10:02	-132.385	47.334	0	6.90	0	15.2660	0	32.3280	0	23.856	0	6.842	0	250.7	4	99.8	4	-1E+10	1	-1E+10	1	-1E+10	1	-1E+10	1	-1E+10	1	-1E+10	1
4902549	34	C	07/16/2021	10:02	-132.385	47.334	0	7.90	0	15.2660	0	32.3280	0	23.856	0	7.834	0	251.1	4	100.0	4	-1E+10	1	-1E+10	1	-1E+10	1	-1E+10	1	-1E+10	1	-1E+10	1
4902549	34	C	07/16/2021	10:02	-132.385	47.334	0	9.10	0	15.2660	0	32.3280	0	23.856	0	9.024	0	251.9	4	100.3	4	-1E+10	1	-1E+10	1	-1E+10	1	-1E+10	1	-1E+10	1	-1E+10	1
4902549	34	C	07/16/2021	10:02	-132.385	47.334	0	10.10	0	15.2510	0	32.3270	0	23.859	0	10.016	0	253.4	4	100.9	4	-1E+10	1	-1E+10	1	-1E+10	1	-1E+10	1	-1E+10	1	-1E+10	1
4902549	34	C	07/16/2021	10:02	-132.385	47.334	0	11.00	0	15.2150	0	32.3220	0	23.863	0	10.908	0	255.3	4	101.6	4	-1E+10	1	-1E+10	1	-1E+10	1	-1E+10	1	-1E+10	1	-1E+10	1
4902549	34	C	07/16/2021	10:02	-132.385	47.334	0	12.00	0	14.8870	0	32.3260	0	23.937	0	11.900	0	258.2	4	102.1	4	-1E+10	1	-1E+10	1	-1E+10	1	-1E+10	1	-1E+10	1	-1E+10	1
4902549	34	C	07/16/2021	10:02	-132.385	47.334	0	13.00	0	14.7140	0	32.3300	0	23.977	0	12.891	0	260.7	4	102.7	4	-1E+10	1	-1E+10	1	-1E+10	1	-1E+10	1	-1E+10	1	-1E+10	1
4902549	34	C	07/16/2021	10:02	-132.385	47.334	0	14.10	0	14.4070	0	32.3310	0	24.042	0	13.982	0	263.9	4	103.3	4	-1E+10	1	-1E+10	1	-1E+10	1	-1E+10	1	-1E+10	1	-1E+10	1
4902549	34	C	07/16/2021	10:02	-132.385	47.334	0	15.00	0	14.1060	0	32.3270	0	24.102	0	14.874	0	266.2	4	103.6	4	-1E+10	1	-1E+10	1	-1E+10	1	-1E+10	1	-1E+10	1	-1E+10	1
4902549	34	C	07/16/2021	10:02	-132.385	47.334	0	16.00	0	14.0740	0	32.3230	0	24.105	0	15.866	0	267.1	4	103.9	4	-1E+10	1	-1E+10	1	-1E+10	1	-1E+10	1	-1E+10	1	-1E+10	1
4902549	34	C	07/16/2021	10:02	-132.385	47.334	0	17.00	0	14.0280	0	32.3210	0	24.113	0	16.858	0	267.7	4	104.0	4	-1E+10	1	-1E+10	1	-1E+10	1	-1E+10	1	-1E+10	1	-1E+10	1
4902549	34	C	07/16/2021	10:02	-132.385	47.334	0	18.00	0	13.9600	0	32.3240	0	24.129	0	17.849	0	268.1	4	104.0	4	-1E+10	1	-1E+10	1	-1E+10	1	-1E+10	1	-1E+10	1	-1E+10	1
4902549	34	C	07/16/2021	10:02	-132.385	47.334	0	19.00	0	13.9340	0	32.3240	0	24.135	0	18.841	0	268.3	4	104.0	4	-1E+10	1	-1E+10	1	-1E+10	1	-1E+10	1	-1E+10	1	-1E+10	1
4902549	34	C	07/16/2021	10:02	-132.385	47.334	0	19.90	0	13.9220	0	32.3230	0	24.136	0	19.733	0	268.3	4	104.0	4	-1E+10	1	-1E+10	1	-1E+10	1	-1E+10	1	-1E+10	1	-1E+10	1
4902549	34	C	07/16/2021	10:02	-132.385	47.334	0	20.90	0	13.9220	0	32.3230	0	24.136	0	20.725	0	268.4	4	104.1	4	-1E+10	1	-1E+10	1	-1E+10	1	-1E+10	1	-1E+10	1	-1E+10	1
4902549	34	C	07/16/2021	10:02	-132.385	47.334	0	22.10	0	13.9010	0	32.3250	0	24.142	0	21.915	0	269.1	4	104.3	4	-1E+10	1	-1E+10	1	-1E+10	1	-1E+10	1	-1E+10	1	-1E+10	1
4902549	34	C	07/16/2021	10:02	-132.385	47.334	0	22.80	0	13.8420	0	32.3220	0	24.152	0	22.609	0	269.1	4	104.2	4	-1E+10	1	-1E+10	1	-1E+10	1	-1E+10	1	-1E+10	1	-1E+10	1
4902549	34	C	07/16/2021	10:02	-132.385	47.334	0	24.00	0	13.7690	0	32.3240	0	24.168	0	23.799	0	268.8	4	103.9	4	-1E+10	1	-1E+10	1	-1E+10	1	-1E+10	1	-1E+10	1	-1E+10	1
4902549	34	C	07/16/2021	10:02	-132.385	47.334	0	25.10	0	13.7430	0	32.3220	0	24.172	0	24.889	0	269.0	4	103.9	4	-1E+10	1	-1E+10	1	-1E+10	1	-1E+10	1	-1E+10	1	-1E+10	1
4902549	34	C	07/16/2021	10:02	-132.385	47.334	0	26.30	0	13.6970	0	32.3230	0	24.182	0	26.079	0	269.6	4	104.1	4	-1E+10	1	-1E+10	1	-1E+10	1	-1E+10	1	-1E+10	1	-1E+10	1
4902549	34	C	07/16/2021	10:02	-132.385	47.334	0	27.10	0	13.6270	0	32.3240	0	24.197	0	26.872	0	270.4	4	104.2	4	-1E+10	1	-1E+10	1	-1E+10	1	-1E+10	1	-1E+10	1	-1E+10	1
4902549	34	C	07/16/2021	10:02	-132.385	47.334	0	27.70	0	13.5900	0	32.3190	0	24.201	0	27.467	0	271.1	4	104.4	4	-1E+10	1	-1E+10	1	-1E+10	1	-1E+10	1	-1E+10	1	-1E+10	1
4902549	34	C	07/16/2021	10:02	-132.385	47.334	0	29.10	0	13.3830	0	32.3120	0	24.237	0	28.856	0	272.2	4	104.4	4	-1E+10	1	-1E+10	1	-1E+10	1	-1E+10	1	-1E+10	1	-1E+10	1
4902549	34	C	07/16/2021	10:02	-132.385	47.334	0	30.10	0	13.0210	0	32.3290	0	24.322	0	29.847	0	272.9	4	103.9	4	-1E+10	1	-1E+10	1	-1E+10	1	-1E+10	1	-1E+10	1	-1E+10	1
4902549	34	C	07/16/2021	10:02	-132.385	47.334	0	31.30	0	12.7230	0	32.3150	0	24.369	0	31.037	0	273.5	4	103.5	4	-1E+10	1	-1E+10	1	-1E+10	1	-1E+10	1	-1E+10	1	-1E+10	1
4902549	34	C	07/16/2021	10:02	-132.385	47.334	0	32.20	0	12.3810	0	32.3300	0	24.446	0	31.929	0	274.5	4	103.1	4	-1E+10	1	-1E+10	1	-1E+10	1	-1E+10	1	-1E+10	1	-1E+10	1
4902549	34	C	07/16/2021	10:02	-132.385	47.334	0	32.90	0	12.2360	0	32.3250	0	24.469	0	32.623	0	275.1	4	103.0	4	-1E+10	1	-1E+10	1	-1E+10	1	-1E+10	1	-1E+10	1	-1E+10	1
4902549	34	C	07/16/2021	10:02	-132.385	47.334	0	33.90	0	11.9020	0	32.3360	0	24.540	0	33.615	0	276.3	4	102.8	4	-1E+10	1	-1E+10	1	-1E+10	1	-1E+10	1	-1E+10	1	-1E+10	1
4902549	34	C	07/16/2021	10:02	-132.385	47.334	0	35.10	0	11.7030	0	32.3310	0	24.573	0	34.805	0	276.7	4	102.5	4	-1E+10	1	-1E+10	1	-1E+10	1	-1E+10	1	-1E+10	1	-1E+10	1
4902549	34	C	07/16/2021	10:02	-132.385	47.334	0	36.00	0	11.5450	0	32.3330	0	24.603	0	35.697	0	277.1	4	102.3	4	-1E+10	1	-1E+10	1	-1E+10	1	-1E+10	1	-1E+10	1	-1E+10	1
4902549	34	C	07/16/2021	10:02	-132.385	47.334	0	37.00	0	11.4890	0	32.3250	0	24.607	0	36.688	0	276.9	4	102.1	4	-1E+10	1	-1E+10	1	-1E+10	1	-1E+10	1	-1E+10	1	-1E+10	1
4902549	34	C	07/16/2021	10:02	-132.385	47.334	0	38.20	0	11.3390	0	32.3340	0	24.641	0	37.878	0	277.1	4	101.9	4	-1E+10	1	-1E+10	1	-1E+10	1	-1E+10	1	-1E+10	1	-1E+10	1
4902549	34	C	07/16/2021	10:02	-132.385	47.334	0	39.10	0	11.1980	0	32.3350	0	24.667	0	38.771	0	277.9	4	101.9	4	-1E+10	1	-1E+10	1	-1E+10	1	-1E+10	1	-1E+10	1	-1E+10	1
4902549	34	C	07/16/2021	10:02	-132.385	47.334	0	39.90	0	11.1560	0	32.3370	0	24.676	0	39.564	0	277.9	4	101.8	4	-1E+10	1	-1E+10	1	-1E+10	1	-1E+10	1	-1E+10	1	-1E+10	1
4902549	34	C	07/16/2021	10:02	-132.385	47.334	0	41.10	0	11.1460	0	32.3370	0	24.678	0	40.754	0	277.5	4	101.6	4	-1E+10	1	-1E+10	1	-1E+10	1	-1E+10	1	-1E+10	1	-1E+10	1
4902549	34	C	07/16/2021	10:02	-132.385	47.334	0	41.80	0	11.1270	0	32.3370	0	24.681	0	41.448	0	277.2	4	101.4	4	-1E+10	1	-1E+10	1	-1E+10	1	-1E+10	1	-1E+10	1	-1E+10	1
4902549	34	C	07/16/2021	10:02	-132.385	47.334	0	43.00	0	11.0770	0	32.3380	0	24.691	0	42.637	0	276.8	4	101.2	4	-1E+10	1	-1E+10	1	-1E+10	1	-1E+10	1	-1E+10	1	-1E+10	1
4902549	34	C	07/16/2021	10:02	-132.385	47.334	0	44.20	0	11.0160	0	32.3480	0	24.710	0	43.827	0	276.2	4	100.9	4	-1E+10	1	-1E+10	1	-1E+10	1	-1E+10	1	-1E+10	1	-1E+10	1
4902549	34	C	07/16/2021	10:02	-132.385	47.334	0	44.90	0	10.9690	0	32.3470	0	24.717	0	44.521	0	275.9	4	100.6	4	-1E+10	1	-1E+10	1	-1E+10	1	-1E+10	1	-1E+10	1	-1E+10	1
4902549	34	C	07/16/2021	10:02	-132.385	47.334	0	46.00	0	10.8620	0	32.3530	0	24.740	0	45.612	0	275.5	4	100.3	4	-1E+10	1	-1E+10	1	-1E+10	1	-1E+10	1	-1E+10	1	-1E+10	1
4902549	34	C	07/16/2021	10:02	-132.385	47.334	0	47.20	0	10.7450	0	32.3530	0	24.761	0	46.801	0	275.0	4	99.8	4	-1E+10	1	-1E+10	1	-1E+10	1	-1E+10	1	-1E+10	1	-1E+10	1
4902549	34	C	07/16/2021	10:02	-132.385	47.334	0	48.10	0	10.5560	0	32.3610	0	24.800	0	47.694	0	275.1	4	99.5	4	-1E+10	1	-1E+10	1	-1E+10	1	-1E+10	1	-1E+10	1	-1E+10	1
4902549	34	C	07/16/2021	10:02	-132.385	47.334	0	49.20	0	10.3540	0	32.3670	0	24.839	0	48.784	0	275.0	4	99.0	4	-1E+10	1	-1E+10	1	-1E+10	1	-1E+10	1	-1E+10	1	-1E+10	1
4902549	34	C	07/16/2021	10:02	-132.385	47.334	0	49.90	0	10.2330	0	32.3690	0	24.861	0	49.478	0	275.2	4	98.8	4	-1E+10	1	-1E+10	1	-1E+10	1	-1E+10	1	-1E+10	1	-1E+10	1
4902549	34	C	07/16/2021	10:02	-132.385	47.334	0	50.90	0	10.1300	0	32.3680	0	24.877	0	50.470	0	275.2	4	98.6	4	-1E+10	1	-1E+10	1	-1E+10	1	-1E+10	1	-1E+10	1	-1E+10	1
4902549	34	C	07/16/2021	10:02	-132.385	47.334	0	52.00	0	10.0400	0	32.3760	0	24.898	0	51.560	0	274.9	4	98.3	4	-1E+10	1	-1E+10	1	-1E+10	1	-1E+10	1	-1E+10	1	-1E+10	1
4902549	34	C	07/16/2021	10:02	-132.385	47.334	0	52.90	0	9.9330	0	32.3840	0	24.922	0	52.453	0	274.9	4	98.1	4	-1E+10	1	-1E+10	1	-1E+10	1	-1E+10	1	-1E+10	1	-1E+10	1
4902549	34	C	07/16/2021	10:02	-132.385	47.334	0	53.70	0	9.7870	0	32.3850	0	24.947	0	53.246	0	275.3	4	97.9	4	-1E+10	1	-1E+10	1	-1E+10	1	-1E+10	1	-1E+10	1	-1E+10	1
4902549	34	C	07/16/2021	10:02	-132.385	47.334	0	54.90	0	9.7300	0	32.3910	0	24.961	0	54.435	0	274.8	4	97.6	4	-1E+10	1	-1E+10	1	-1E+10	1	-1E+10	1	-1E+10	1	-1E+10	1
4902549	34	C	07/16/2021	10:02	-132.385	47.334	0	55.80	0	9.5620	0	32.3900	0	24.987	0	55.328	0	275.1	4	97.4	4	-1E+10	1	-1E+10	1	-1E+10	1	-1E+10	1	-1E+10	1	-1E+10	1
4902549	34	C	07/16/2021	10:02	-132.385	47.334	0	56.80	0	9.4190	0	32.4020	0	25.020	0	56.319	0	275.2	4	97.1	4	-1E+10	1	-1E+10	1	-1E+10	1	-1E+10	1	-1E+10	1	-1E+10	1
4902549	34	C	07/16/2021	10:02	-132.385	47.334	0	58.10	0	9.3560	0	32.4030	0	25.031	0	57.608	0	274.5	4	96.8	4	-1E+10	1	-1E+10	1	-1E+10	1	-1E+10	1	-1E+10	1	-1E+10	1
4902549	34	C	07/16/2021	10:02	-132.385	47.334	0	59.10	0	9.2980	0	32.4040	0	25.041	0	58.599	0	274.0	4	96.4	4	-1E+10	1	-1E+10	1	-1E+10	1	-1E+10	1	-1E+10	1	-1E+10	1
4902549	34	C	07/16/2021	10:02	-132.385	47.334	0	59.80	0	9.2420	0	32.4050	0	25.050	0	59.293	0	273.8	4	96.2	4	-1E+10	1	-1E+10	1	-1E+10	1	-1E+10	1	-1E+10	1	-1E+10	1
4902549	34	C	07/16/2021	10:02	-132.385	47.334	0	60.80	0	9.1780	0	32.4150	0	25.068	0	60.285	0	273.3	4	96.0	4	-1E+10	1	-1E+10	1	-1E+10	1	-1E+10	1	-1E+10	1	-1E+10	1
4902549	34	C	07/16/2021	10:02	-132.385	47.334	0	61.90	0	9.1320	0	32.4180	0	25.078	0	61.375	0	273.1	4	95.8	4	-1E+10	1	-1E+10	1	-1E+10	1	-1E+10	1	-1E+10	1	-1E+10	1
4902549	34	C	07/16/2021	10:02	-132.385	47.334	0	62.90	0	8.9920	0	32.4320	0	25.110	0	62.366	0	273.3	4	95.6	4	-1E+10	1	-1E+10	1	-1E+10	1	-1E+10	1	-1E+10	1	-1E+10	1
4902549	34	C	07/16/2021	10:02	-132.385	47.334	0	64.00	0	8.9190	0	32.4360	0	25.125	0	63.457	0	273.4	4	95.5	4	-1E+10	1	-1E+10	1	-1E+10	1	-1E+10	1	-1E+10	1	-1E+10	1
4902549	34	C	07/16/2021	10:02	-132.385	47.334	0	64.80	0	8.8940	0	32.4350	0	25.128	0	64.250	0	273.3	4	95.4	4	-1E+10	1	-1E+10	1	-1E+10	1	-1E+10	1	-1E+10	1	-1E+10	1
4902549	34	C	07/16/2021	10:02	-132.385	47.334	0	65.80	0	8.8570	0	32.4370	0	25.135	0	65.241	0	273.0	4	95.2	4	-1E+10	1	-1E+10	1	-1E+10	1	-1E+10	1	-1E+10	1	-1E+10	1
4902549	34	C	07/16/2021	10:02	-132.385	47.334	0	66.90	0	8.8190	0	32.4390	0	25.143	0	66.332	0	272.8	4	95.1	4	-1E+10	1	-1E+10	1	-1E+10	1	-1E+10	1	-1E+10	1	-1E+10	1
4902549	34	C	07/16/2021	10:02	-132.385	47.334	0	68.00	0	8.7580	0	32.4410	0	25.153	0	67.422	0	272.8	4	94.9	4	-1E+10	1	-1E+10	1	-1E+10	1	-1E+10	1	-1E+10	1	-1E+10	1
4902549	34	C	07/16/2021	10:02	-132.385	47.334	0	69.10	0	8.7050	0	32.4510	0	25.169	0	68.513	0	272.8	4	94.8	4	-1E+10	1	-1E+10	1	-1E+10	1	-1E+10	1	-1E+10	1	-1E+10	1
4902549	34	C	07/16/2021	10:02	-132.385	47.334	0	69.90	0	8.6770	0	32.4480	0	25.171	0	69.306	0	272.8	4	94.8	4	-1E+10	1	-1E+10	1	-1E+10	1	-1E+10	1	-1E+10	1	-1E+10	1
4902549	34	C	07/16/2021	10:02	-132.385	47.334	0	70.90	0	8.6650	0	32.4490	0	25.174	0	70.297	0	272.5	4	94.6	4	-1E+10	1	-1E+10	1	-1E+10	1	-1E+10	1	-1E+10	1	-1E+10	1
4902549	34	C	07/16/2021	10:02	-132.385	47.334	0	72.00	0	8.6580	0	32.4490	0	25.175	0	71.388	0	272.4	4	94.6	4	-1E+10	1	-1E+10	1	-1E+10	1	-1E+10	1	-1E+10	1	-1E+10	1
4902549	34	C	07/16/2021	10:02	-132.385	47.334	0	73.00	0	8.6510	0	32.4500	0	25.177	0	72.379	0	271.8	4	94.4	4	-1E+10	1	-1E+10	1	-1E+10	1	-1E+10	1	-1E+10	1	-1E+10	1
4902549	34	C	07/16/2021	10:02	-132.385	47.334	0	73.80	0	8.6240	0	32.4520	0	25.182	0	73.172	0	271.6	4	94.2	4	-1E+10	1	-1E+10	1	-1E+10	1	-1E+10	1	-1E+10	1	-1E+10	1
4902549	34	C	07/16/2021	10:02	-132.385	47.334	0	74.80	0	8.6060	0	32.4520	0	25.185	0	74.163	0	271.1	4	94.0	4	-1E+10	1	-1E+10	1	-1E+10	1	-1E+10	1	-1E+10	1	-1E+10	1
4902549	34	C	07/16/2021	10:02	-132.385	47.334	0	76.10	0	8.5480	0	32.4540	0	25.196	0	75.452	0	270.6	4	93.7	4	-1E+10	1	-1E+10	1	-1E+10	1	-1E+10	1	-1E+10	1	-1E+10	1
4902549	34	C	07/16/2021	10:02	-132.385	47.334	0	77.00	0	8.5030	0	32.4570	0	25.205	0	76.344	0	270.6	4	93.6	4	-1E+10	1	-1E+10	1	-1E+10	1	-1E+10	1	-1E+10	1	-1E+10	1
4902549	34	C	07/16/2021	10:02	-132.385	47.334	0	78.00	0	8.4870	0	32.4610	0	25.210	0	77.336	0	270.5	4	93.6	4	-1E+10	1	-1E+10	1	-1E+10	1	-1E+10	1	-1E+10	1	-1E+10	1
4902549	34	C	07/16/2021	10:02	-132.385	47.334	0	79.00	0	8.4710	0	32.4650	0	25.216	0	78.327	0	270.1	4	93.4	4	-1E+10	1	-1E+10	1	-1E+10	1	-1E+10	1	-1E+10	1	-1E+10	1
4902549	34	C	07/16/2021	10:02	-132.385	47.334	0	80.00	0	8.4180	0	32.4610	0	25.220	0	79.318	0	270.0	4	93.2	4	-1E+10	1	-1E+10	1	-1E+10	1	-1E+10	1	-1E+10	1	-1E+10	1
4902549	34	C	07/16/2021	10:02	-132.385	47.334	0	81.10	0	8.3780	0	32.4610	0	25.226	0	80.409	0	269.7	4	93.0	4	-1E+10	1	-1E+10	1	-1E+10	1	-1E+10	1	-1E+10	1	-1E+10	1
4902549	34	C	07/16/2021	10:02	-132.385	47.334	0	81.90	0	8.3360	0	32.4620	0	25.233	0	81.202	0	269.5	4	92.9	4	-1E+10	1	-1E+10	1	-1E+10	1	-1E+10	1	-1E+10	1	-1E+10	1
4902549	34	C	07/16/2021	10:02	-132.385	47.334	0	83.10	0	8.2810	0	32.4600	0	25.240	0	82.391	0	269.2	4	92.7	4	-1E+10	1	-1E+10	1	-1E+10	1	-1E+10	1	-1E+10	1	-1E+10	1
4902549	34	C	07/16/2021	10:02	-132.385	47.334	0	83.90	0	8.2680	0	32.4650	0	25.246	0	83.184	0	268.8	4	92.5	4	-1E+10	1	-1E+10	1	-1E+10	1	-1E+10	1	-1E+10	1	-1E+10	1
4902549	34	C	07/16/2021	10:02	-132.385	47.334	0	85.20	0	8.2160	0	32.4640	0	25.253	0	84.473	0	268.7	4	92.4	4	-1E+10	1	-1E+10	1	-1E+10	1	-1E+10	1	-1E+10	1	-1E+10	1
4902549	34	C	07/16/2021	10:02	-132.385	47.334	0	85.80	0	8.1610	0	32.4640	0	25.261	0	85.068	0	268.7	4	92.3	4	-1E+10	1	-1E+10	1	-1E+10	1	-1E+10	1	-1E+10	1	-1E+10	1
4902549	34	C	07/16/2021	10:02	-132.385	47.334	0	87.00	0	8.1140	0	32.4660	0	25.269	0	86.257	0	268.7	4	92.2	4	-1E+10	1	-1E+10	1	-1E+10	1	-1E+10	1	-1E+10	1	-1E+10	1
4902549	34	C	07/16/2021	10:02	-132.385	47.334	0	87.90	0	8.1040	0	32.4670	0	25.271	0	87.149	0	268.5	4	92.1	4	-1E+10	1	-1E+10	1	-1E+10	1	-1E+10	1	-1E+10	1	-1E+10	1
4902549	34	C	07/16/2021	10:02	-132.385	47.334	0	89.10	0	8.0700	0	32.4660	0	25.276	0	88.339	0	268.6	4	92.0	4	-1E+10	1	-1E+10	1	-1E+10	1	-1E+10	1	-1E+10	1	-1E+10	1
4902549	34	C	07/16/2021	10:02	-132.385	47.334	0	90.30	0	8.0550	0	32.4670	0	25.279	0	89.528	0	268.4	4	91.9	4	-1E+10	1	-1E+10	1	-1E+10	1	-1E+10	1	-1E+10	1	-1E+10	1
4902549	34	C	07/16/2021	10:02	-132.385	47.334	0	91.00	0	8.0020	0	32.4680	0	25.287	0	90.222	0	268.6	4	91.9	4	-1E+10	1	-1E+10	1	-1E+10	1	-1E+10	1	-1E+10	1	-1E+10	1
4902549	34	C	07/16/2021	10:02	-132.385	47.334	0	92.10	0	7.9580	0	32.4670	0	25.293	0	91.312	0	269.0	4	92.0	4	-1E+10	1	-1E+10	1	-1E+10	1	-1E+10	1	-1E+10	1	-1E+10	1
4902549	34	C	07/16/2021	10:02	-132.385	47.334	0	93.10	0	7.8800	0	32.4700	0	25.306	0	92.304	0	269.4	4	91.9	4	-1E+10	1	-1E+10	1	-1E+10	1	-1E+10	1	-1E+10	1	-1E+10	1
4902549	34	C	07/16/2021	10:02	-132.385	47.334	0	94.00	0	7.8280	0	32.4670	0	25.311	0	93.196	0	269.8	4	92.0	4	-1E+10	1	-1E+10	1	-1E+10	1	-1E+10	1	-1E+10	1	-1E+10	1
4902549	34	C	07/16/2021	10:02	-132.385	47.334	0	94.80	0	7.7410	0	32.4610	0	25.319	0	93.989	0	270.2	4	91.9	4	-1E+10	1	-1E+10	1	-1E+10	1	-1E+10	1	-1E+10	1	-1E+10	1
4902549	34	C	07/16/2021	10:02	-132.385	47.334	0	95.90	0	7.5920	0	32.4540	0	25.334	0	95.079	0	271.1	4	91.9	4	-1E+10	1	-1E+10	1	-1E+10	1	-1E+10	1	-1E+10	1	-1E+10	1
4902549	34	C	07/16/2021	10:02	-132.385	47.334	0	97.10	0	7.5040	0	32.4470	0	25.341	0	96.268	0	271.5	4	91.8	4	-1E+10	1	-1E+10	1	-1E+10	1	-1E+10	1	-1E+10	1	-1E+10	1
4902549	34	C	07/16/2021	10:02	-132.385	47.334	0	98.00	0	7.4410	0	32.4440	0	25.347	0	97.161	0	271.5	4	91.7	4	-1E+10	1	-1E+10	1	-1E+10	1	-1E+10	1	-1E+10	1	-1E+10	1
4902549	34	C	07/16/2021	10:02	-132.385	47.334	0	98.90	0	7.3810	0	32.4380	0	25.351	0	98.053	0	271.6	4	91.6	4	-1E+10	1	-1E+10	1	-1E+10	1	-1E+10	1	-1E+10	1	-1E+10	1
4902549	34	C	07/16/2021	10:02	-132.385	47.334	0	100.10	0	7.3310	0	32.4370	0	25.357	0	99.242	0	271.2	4	91.4	4	-1E+10	1	-1E+10	1	-1E+10	1	-1E+10	1	-1E+10	1	-1E+10	1
4902549	34	C	07/16/2021	10:02	-132.385	47.334	0	101.10	0	7.2940	0	32.4320	0	25.358	0	100.233	0	270.8	4	91.2	4	-1E+10	1	-1E+10	1	-1E+10	1	-1E+10	1	-1E+10	1	-1E+10	1
4902549	34	C	07/16/2021	10:02	-132.385	47.334	0	102.00	0	7.2640	0	32.4320	0	25.362	0	101.125	0	270.2	4	90.9	4	-1E+10	1	-1E+10	1	-1E+10	1	-1E+10	1	-1E+10	1	-1E+10	1
4902549	34	C	07/16/2021	10:02	-132.385	47.334	0	103.00	0	7.2370	0	32.4310	0	25.365	0	102.116	0	269.5	4	90.6	4	-1E+10	1	-1E+10	1	-1E+10	1	-1E+10	1	-1E+10	1	-1E+10	1
4902549	34	C	07/16/2021	10:02	-132.385	47.334	0	103.90	0	7.2310	0	32.4310	0	25.366	0	103.008	0	268.5	4	90.3	4	-1E+10	1	-1E+10	1	-1E+10	1	-1E+10	1	-1E+10	1	-1E+10	1
4902549	34	C	07/16/2021	10:02	-132.385	47.334	0	104.90	0	7.2330	0	32.4320	0	25.367	0	104.000	0	267.3	4	89.9	4	-1E+10	1	-1E+10	1	-1E+10	1	-1E+10	1	-1E+10	1	-1E+10	1
4902549	34	C	07/16/2021	10:02	-132.385	47.334	0	105.80	0	7.2150	0	32.4330	0	25.370	0	104.892	0	266.1	4	89.4	4	-1E+10	1	-1E+10	1	-1E+10	1	-1E+10	1	-1E+10	1	-1E+10	1
4902549	34	C	07/16/2021	10:02	-132.385	47.334	0	107.10	0	7.1700	0	32.4380	0	25.380	0	106.180	0	264.2	4	88.7	4	-1E+10	1	-1E+10	1	-1E+10	1	-1E+10	1	-1E+10	1	-1E+10	1
4902549	34	C	07/16/2021	10:02	-132.385	47.334	0	108.00	0	7.1970	0	32.4330	0	25.372	0	107.072	0	262.5	4	88.2	4	-1E+10	1	-1E+10	1	-1E+10	1	-1E+10	1	-1E+10	1	-1E+10	1
4902549	34	C	07/16/2021	10:02	-132.385	47.334	0	108.90	0	7.2290	8	32.4540	8	25.384	0	107.964	0	260.2	4	87.5	4	-1E+10	1	-1E+10	1	-1E+10	1	-1E+10	1	-1E+10	1	-1E+10	1
4902549	34	C	07/16/2021	10:02	-132.385	47.334	0	110.00	0	7.2980	8	32.4240	8	25.351	0	109.055	0	258.3	4	87.0	4	-1E+10	1	-1E+10	1	-1E+10	1	-1E+10	1	-1E+10	1	-1E+10	1
4902549	34	C	07/16/2021	10:02	-132.385	47.334	0	110.90	0	7.3450	0	32.4940	0	25.400	0	109.947	0	255.9	4	86.3	4	-1E+10	1	-1E+10	1	-1E+10	1	-1E+10	1	-1E+10	1	-1E+10	1
4902549	34	C	07/16/2021	10:02	-132.385	47.334	0	112.10	0	7.4250	0	32.5180	0	25.408	0	111.136	0	253.4	4	85.6	4	-1E+10	1	-1E+10	1	-1E+10	1	-1E+10	1	-1E+10	1	-1E+10	1
4902549	34	C	07/16/2021	10:02	-132.385	47.334	0	113.30	0	7.4420	0	32.5380	0	25.421	0	112.325	0	250.9	4	84.8	4	-1E+10	1	-1E+10	1	-1E+10	1	-1E+10	1	-1E+10	1	-1E+10	1
4902549	34	C	07/16/2021	10:02	-132.385	47.334	0	114.10	0	7.4100	0	32.5350	0	25.423	0	113.118	0	248.4	4	83.9	4	-1E+10	1	-1E+10	1	-1E+10	1	-1E+10	1	-1E+10	1	-1E+10	1
4902549	34	C	07/16/2021	10:02	-132.385	47.334	0	115.00	0	7.4230	0	32.5480	0	25.432	0	114.010	0	245.5	4	83.0	4	-1E+10	1	-1E+10	1	-1E+10	1	-1E+10	1	-1E+10	1	-1E+10	1
4902549	34	C	07/16/2021	10:02	-132.385	47.334	0	115.90	0	7.4890	0	32.5880	0	25.454	0	114.902	0	242.2	4	82.0	4	-1E+10	1	-1E+10	1	-1E+10	1	-1E+10	1	-1E+10	1	-1E+10	1
4902549	34	C	07/16/2021	10:02	-132.385	47.334	0	117.10	0	7.5850	0	32.6370	0	25.479	0	116.092	0	237.6	4	80.6	4	-1E+10	1	-1E+10	1	-1E+10	1	-1E+10	1	-1E+10	1	-1E+10	1
4902549	34	C	07/16/2021	10:02	-132.385	47.334	0	118.00	0	7.7000	0	32.6860	0	25.502	0	116.984	0	233.7	4	79.6	4	-1E+10	1	-1E+10	1	-1E+10	1	-1E+10	1	-1E+10	1	-1E+10	1
4902549	34	C	07/16/2021	10:02	-132.385	47.334	0	118.90	0	7.6990	0	32.7120	0	25.522	0	117.876	0	229.1	4	78.0	4	-1E+10	1	-1E+10	1	-1E+10	1	-1E+10	1	-1E+10	1	-1E+10	1
4902549	34	C	07/16/2021	10:02	-132.385	47.334	0	119.80	0	7.8380	0	32.7790	0	25.555	0	118.767	0	223.8	4	76.5	4	-1E+10	1	-1E+10	1	-1E+10	1	-1E+10	1	-1E+10	1	-1E+10	1
4902549	34	C	07/16/2021	10:02	-132.385	47.334	0	121.00	0	7.9490	0	32.8730	0	25.613	0	119.957	0	219.6	4	75.3	4	-1E+10	1	-1E+10	1	-1E+10	1	-1E+10	1	-1E+10	1	-1E+10	1
4902549	34	C	07/16/2021	10:02	-132.385	47.334	0	122.10	0	7.9530	0	32.9590	0	25.680	0	121.047	0	216.7	4	74.3	4	-1E+10	1	-1E+10	1	-1E+10	1	-1E+10	1	-1E+10	1	-1E+10	1
4902549	34	C	07/16/2021	10:02	-132.385	47.334	0	123.30	0	7.9730	0	33.0160	0	25.722	0	122.236	0	214.4	4	73.6	4	-1E+10	1	-1E+10	1	-1E+10	1	-1E+10	1	-1E+10	1	-1E+10	1
4902549	34	C	07/16/2021	10:02	-132.385	47.334	0	124.10	0	7.9650	0	33.0260	0	25.731	0	123.029	0	213.0	4	73.1	4	-1E+10	1	-1E+10	1	-1E+10	1	-1E+10	1	-1E+10	1	-1E+10	1
4902549	34	C	07/16/2021	10:02	-132.385	47.334	0	125.10	0	7.9520	0	33.0510	0	25.752	0	124.020	0	210.8	4	72.4	4	-1E+10	1	-1E+10	1	-1E+10	1	-1E+10	1	-1E+10	1	-1E+10	1
4902549	34	C	07/16/2021	10:02	-132.385	47.334	0	126.00	0	7.9350	0	33.0810	0	25.778	0	124.912	0	209.3	4	71.8	4	-1E+10	1	-1E+10	1	-1E+10	1	-1E+10	1	-1E+10	1	-1E+10	1
4902549	34	C	07/16/2021	10:02	-132.385	47.334	0	126.80	0	7.9200	0	33.1140	0	25.807	0	125.705	0	207.7	4	71.3	4	-1E+10	1	-1E+10	1	-1E+10	1	-1E+10	1	-1E+10	1	-1E+10	1
4902549	34	C	07/16/2021	10:02	-132.385	47.334	0	128.00	0	7.8950	0	33.1790	0	25.861	0	126.894	0	206.0	4	70.7	4	-1E+10	1	-1E+10	1	-1E+10	1	-1E+10	1	-1E+10	1	-1E+10	1
4902549	34	C	07/16/2021	10:02	-132.385	47.334	0	129.00	0	7.8700	0	33.2190	0	25.896	0	127.885	0	204.9	4	70.3	4	-1E+10	1	-1E+10	1	-1E+10	1	-1E+10	1	-1E+10	1	-1E+10	1
4902549	34	C	07/16/2021	10:02	-132.385	47.334	0	130.00	0	7.8360	0	33.2460	0	25.922	0	128.876	0	204.0	4	70.0	4	-1E+10	1	-1E+10	1	-1E+10	1	-1E+10	1	-1E+10	1	-1E+10	1
4902549	34	C	07/16/2021	10:02	-132.385	47.334	0	131.00	0	7.8360	0	33.2570	0	25.931	0	129.867	0	202.9	4	69.6	4	-1E+10	1	-1E+10	1	-1E+10	1	-1E+10	1	-1E+10	1	-1E+10	1
4902549	34	C	07/16/2021	10:02	-132.385	47.334	0	132.00	0	7.8200	0	33.2740	0	25.947	0	130.858	0	201.6	4	69.1	4	-1E+10	1	-1E+10	1	-1E+10	1	-1E+10	1	-1E+10	1	-1E+10	1
4902549	34	C	07/16/2021	10:02	-132.385	47.334	0	133.20	0	7.7850	0	33.3130	0	25.982	0	132.048	0	200.5	4	68.7	4	-1E+10	1	-1E+10	1	-1E+10	1	-1E+10	1	-1E+10	1	-1E+10	1
4902549	34	C	07/16/2021	10:02	-132.385	47.334	0	133.90	0	7.7740	0	33.3250	0	25.993	0	132.741	0	199.8	4	68.4	4	-1E+10	1	-1E+10	1	-1E+10	1	-1E+10	1	-1E+10	1	-1E+10	1
4902549	34	C	07/16/2021	10:02	-132.385	47.334	0	134.70	0	7.7660	0	33.3330	0	26.001	0	133.534	0	198.9	4	68.1	4	-1E+10	1	-1E+10	1	-1E+10	1	-1E+10	1	-1E+10	1	-1E+10	1
4902549	34	C	07/16/2021	10:02	-132.385	47.334	0	136.00	0	7.7110	0	33.3960	0	26.058	0	134.823	0	197.9	4	67.7	4	-1E+10	1	-1E+10	1	-1E+10	1	-1E+10	1	-1E+10	1	-1E+10	1
4902549	34	C	07/16/2021	10:02	-132.385	47.334	0	137.30	0	7.6670	0	33.4500	0	26.107	0	136.111	0	197.5	4	67.6	4	-1E+10	1	-1E+10	1	-1E+10	1	-1E+10	1	-1E+10	1	-1E+10	1
4902549	34	C	07/16/2021	10:02	-132.385	47.334	0	138.20	0	7.6620	0	33.4570	0	26.113	0	137.003	0	197.1	4	67.4	4	-1E+10	1	-1E+10	1	-1E+10	1	-1E+10	1	-1E+10	1	-1E+10	1
4902549	34	C	07/16/2021	10:02	-132.385	47.334	0	139.20	0	7.6560	0	33.4660	0	26.121	0	137.994	0	196.8	4	67.3	4	-1E+10	1	-1E+10	1	-1E+10	1	-1E+10	1	-1E+10	1	-1E+10	1
4902549	34	C	07/16/2021	10:02	-132.385	47.334	0	140.10	0	7.6550	0	33.4680	0	26.123	0	138.886	0	196.3	4	67.1	4	-1E+10	1	-1E+10	1	-1E+10	1	-1E+10	1	-1E+10	1	-1E+10	1
4902549	34	C	07/16/2021	10:02	-132.385	47.334	0	141.00	0	7.6510	0	33.4710	0	26.126	0	139.778	0	196.0	4	67.0	4	-1E+10	1	-1E+10	1	-1E+10	1	-1E+10	1	-1E+10	1	-1E+10	1
4902549	34	C	07/16/2021	10:02	-132.385	47.334	0	141.90	0	7.6490	0	33.4740	0	26.129	0	140.669	0	195.6	4	66.9	4	-1E+10	1	-1E+10	1	-1E+10	1	-1E+10	1	-1E+10	1	-1E+10	1
4902549	34	C	07/16/2021	10:02	-132.385	47.334	0	142.80	0	7.6460	0	33.4770	0	26.131	0	141.561	0	195.0	4	66.7	4	-1E+10	1	-1E+10	1	-1E+10	1	-1E+10	1	-1E+10	1	-1E+10	1
4902549	34	C	07/16/2021	10:02	-132.385	47.334	0	143.70	0	7.6450	0	33.4780	0	26.132	0	142.453	0	194.4	4	66.5	4	-1E+10	1	-1E+10	1	-1E+10	1	-1E+10	1	-1E+10	1	-1E+10	1
4902549	34	C	07/16/2021	10:02	-132.385	47.334	0	144.60	0	7.6290	0	33.4980	0	26.150	0	143.345	0	193.9	4	66.3	4	-1E+10	1	-1E+10	1	-1E+10	1	-1E+10	1	-1E+10	1	-1E+10	1
4902549	34	C	07/16/2021	10:02	-132.385	47.334	0	145.90	0	7.6060	0	33.5320	0	26.180	0	144.633	0	193.4	4	66.1	4	-1E+10	1	-1E+10	1	-1E+10	1	-1E+10	1	-1E+10	1	-1E+10	1
4902549	34	C	07/16/2021	10:02	-132.385	47.334	0	147.30	0	7.6000	0	33.5400	0	26.187	0	146.021	0	192.7	4	65.9	4	-1E+10	1	-1E+10	1	-1E+10	1	-1E+10	1	-1E+10	1	-1E+10	1
4902549	34	C	07/16/2021	10:02	-132.385	47.334	0	148.30	0	7.5940	0	33.5500	0	26.196	0	147.012	0	192.2	4	65.7	4	-1E+10	1	-1E+10	1	-1E+10	1	-1E+10	1	-1E+10	1	-1E+10	1
4902549	34	C	07/16/2021	10:02	-132.385	47.334	0	149.10	0	7.5880	0	33.5570	0	26.203	0	147.804	0	191.7	4	65.5	4	-1E+10	1	-1E+10	1	-1E+10	1	-1E+10	1	-1E+10	1	-1E+10	1
4902549	34	C	07/16/2021	10:02	-132.385	47.334	0	150.10	0	7.5750	0	33.5720	0	26.216	0	148.795	0	191.2	4	65.3	4	-1E+10	1	-1E+10	1	-1E+10	1	-1E+10	1	-1E+10	1	-1E+10	1
4902549	34	C	07/16/2021	10:02	-132.385	47.334	0	151.00	0	7.5570	0	33.5930	0	26.235	0	149.687	0	190.9	4	65.2	4	-1E+10	1	-1E+10	1	-1E+10	1	-1E+10	1	-1E+10	1	-1E+10	1
4902549	34	C	07/16/2021	10:02	-132.385	47.334	0	151.90	0	7.5480	0	33.6000	0	26.242	0	150.579	0	190.4	4	65.0	4	-1E+10	1	-1E+10	1	-1E+10	1	-1E+10	1	-1E+10	1	-1E+10	1
4902549	34	C	07/16/2021	10:02	-132.385	47.334	0	152.90	0	7.5490	0	33.6010	0	26.243	0	151.570	0	190.0	4	64.9	4	-1E+10	1	-1E+10	1	-1E+10	1	-1E+10	1	-1E+10	1	-1E+10	1
4902549	34	C	07/16/2021	10:02	-132.385	47.334	0	153.80	0	7.5320	0	33.6070	0	26.250	0	152.462	0	189.5	4	64.7	4	-1E+10	1	-1E+10	1	-1E+10	1	-1E+10	1	-1E+10	1	-1E+10	1
4902549	34	C	07/16/2021	10:02	-132.385	47.334	0	154.80	0	7.4750	0	33.6190	0	26.267	0	153.453	0	189.2	4	64.5	4	-1E+10	1	-1E+10	1	-1E+10	1	-1E+10	1	-1E+10	1	-1E+10	1
4902549	34	C	07/16/2021	10:02	-132.385	47.334	0	155.70	0	7.4800	0	33.6230	0	26.270	0	154.345	0	188.7	4	64.4	4	-1E+10	1	-1E+10	1	-1E+10	1	-1E+10	1	-1E+10	1	-1E+10	1
4902549	34	C	07/16/2021	10:02	-132.385	47.334	0	156.70	0	7.4640	0	33.6390	0	26.285	0	155.336	0	188.2	4	64.2	4	-1E+10	1	-1E+10	1	-1E+10	1	-1E+10	1	-1E+10	1	-1E+10	1
4902549	34	C	07/16/2021	10:02	-132.385	47.334	0	157.70	0	7.4500	0	33.6480	0	26.294	0	156.326	0	187.7	4	64.0	4	-1E+10	1	-1E+10	1	-1E+10	1	-1E+10	1	-1E+10	1	-1E+10	1
4902549	34	C	07/16/2021	10:02	-132.385	47.334	0	158.70	0	7.4240	0	33.6630	0	26.309	0	157.317	0	187.3	4	63.8	4	-1E+10	1	-1E+10	1	-1E+10	1	-1E+10	1	-1E+10	1	-1E+10	1
4902549	34	C	07/16/2021	10:02	-132.385	47.334	0	159.70	0	7.4110	0	33.6680	0	26.315	0	158.308	0	186.6	4	63.6	4	-1E+10	1	-1E+10	1	-1E+10	1	-1E+10	1	-1E+10	1	-1E+10	1
4902549	34	C	07/16/2021	10:02	-132.385	47.334	0	160.70	0	7.3940	0	33.6730	0	26.321	0	159.299	0	186.2	4	63.4	4	-1E+10	1	-1E+10	1	-1E+10	1	-1E+10	1	-1E+10	1	-1E+10	1
4902549	34	C	07/16/2021	10:02	-132.385	47.334	0	161.70	0	7.3620	0	33.6820	0	26.333	0	160.290	0	185.7	4	63.2	4	-1E+10	1	-1E+10	1	-1E+10	1	-1E+10	1	-1E+10	1	-1E+10	1
4902549	34	C	07/16/2021	10:02	-132.385	47.334	0	162.70	0	7.3450	0	33.6920	0	26.343	0	161.281	0	185.4	4	63.1	4	-1E+10	1	-1E+10	1	-1E+10	1	-1E+10	1	-1E+10	1	-1E+10	1
4902549	34	C	07/16/2021	10:02	-132.385	47.334	0	163.70	0	7.3210	0	33.6940	0	26.348	0	162.272	0	185.0	4	62.9	4	-1E+10	1	-1E+10	1	-1E+10	1	-1E+10	1	-1E+10	1	-1E+10	1
4902549	34	C	07/16/2021	10:02	-132.385	47.334	0	164.70	0	7.3040	0	33.6980	0	26.354	0	163.263	0	184.6	4	62.7	4	-1E+10	1	-1E+10	1	-1E+10	1	-1E+10	1	-1E+10	1	-1E+10	1
4902549	34	C	07/16/2021	10:02	-132.385	47.334	0	165.70	0	7.2820	0	33.6980	0	26.357	0	164.254	0	184.2	4	62.6	4	-1E+10	1	-1E+10	1	-1E+10	1	-1E+10	1	-1E+10	1	-1E+10	1
4902549	34	C	07/16/2021	10:02	-132.385	47.334	0	166.70	0	7.2590	0	33.6960	0	26.358	0	165.245	0	183.9	4	62.4	4	-1E+10	1	-1E+10	1	-1E+10	1	-1E+10	1	-1E+10	1	-1E+10	1
4902549	34	C	07/16/2021	10:02	-132.385	47.334	0	167.70	0	7.2330	0	33.6980	0	26.364	0	166.235	0	183.6	4	62.3	4	-1E+10	1	-1E+10	1	-1E+10	1	-1E+10	1	-1E+10	1	-1E+10	1
4902549	34	C	07/16/2021	10:02	-132.385	47.334	0	168.70	0	7.2170	0	33.7050	0	26.371	0	167.226	0	183.2	4	62.1	4	-1E+10	1	-1E+10	1	-1E+10	1	-1E+10	1	-1E+10	1	-1E+10	1
4902549	34	C	07/16/2021	10:02	-132.385	47.334	0	169.70	0	7.2080	0	33.7100	0	26.376	0	168.217	0	182.8	4	62.0	4	-1E+10	1	-1E+10	1	-1E+10	1	-1E+10	1	-1E+10	1	-1E+10	1
4902549	34	C	07/16/2021	10:02	-132.385	47.334	0	170.70	0	7.2250	0	33.7190	0	26.381	0	169.208	0	182.2	4	61.8	4	-1E+10	1	-1E+10	1	-1E+10	1	-1E+10	1	-1E+10	1	-1E+10	1
4902549	34	C	07/16/2021	10:02	-132.385	47.334	0	171.70	0	7.2490	0	33.7330	0	26.389	0	170.199	0	181.5	4	61.6	4	-1E+10	1	-1E+10	1	-1E+10	1	-1E+10	1	-1E+10	1	-1E+10	1
4902549	34	C	07/16/2021	10:02	-132.385	47.334	0	172.70	0	7.2470	0	33.7390	0	26.394	0	171.190	0	180.9	4	61.4	4	-1E+10	1	-1E+10	1	-1E+10	1	-1E+10	1	-1E+10	1	-1E+10	1
4902549	34	C	07/16/2021	10:02	-132.385	47.334	0	173.60	0	7.2400	0	33.7400	0	26.396	0	172.081	0	180.2	4	61.2	4	-1E+10	1	-1E+10	1	-1E+10	1	-1E+10	1	-1E+10	1	-1E+10	1
4902549	34	C	07/16/2021	10:02	-132.385	47.334	0	174.60	0	7.2220	0	33.7410	0	26.399	0	173.072	0	179.5	4	60.9	4	-1E+10	1	-1E+10	1	-1E+10	1	-1E+10	1	-1E+10	1	-1E+10	1
4902549	34	C	07/16/2021	10:02	-132.385	47.334	0	175.60	0	7.2090	0	33.7450	0	26.404	0	174.063	0	178.8	4	60.7	4	-1E+10	1	-1E+10	1	-1E+10	1	-1E+10	1	-1E+10	1	-1E+10	1
4902549	34	C	07/16/2021	10:02	-132.385	47.334	0	176.60	0	7.1670	0	33.7510	0	26.414	0	175.054	0	178.3	4	60.4	4	-1E+10	1	-1E+10	1	-1E+10	1	-1E+10	1	-1E+10	1	-1E+10	1
4902549	34	C	07/16/2021	10:02	-132.385	47.334	0	177.60	0	7.1560	0	33.7560	0	26.420	0	176.045	0	177.6	4	60.2	4	-1E+10	1	-1E+10	1	-1E+10	1	-1E+10	1	-1E+10	1	-1E+10	1
4902549	34	C	07/16/2021	10:02	-132.385	47.334	0	178.60	0	7.1340	0	33.7620	0	26.428	0	177.036	0	177.1	4	60.0	4	-1E+10	1	-1E+10	1	-1E+10	1	-1E+10	1	-1E+10	1	-1E+10	1
4902549	34	C	07/16/2021	10:02	-132.385	47.334	0	179.60	0	7.1180	0	33.7640	0	26.431	0	178.026	0	176.6	4	59.8	4	-1E+10	1	-1E+10	1	-1E+10	1	-1E+10	1	-1E+10	1	-1E+10	1
4902549	34	C	07/16/2021	10:02	-132.385	47.334	0	180.50	0	7.0850	0	33.7650	0	26.437	0	178.918	0	176.1	4	59.6	4	-1E+10	1	-1E+10	1	-1E+10	1	-1E+10	1	-1E+10	1	-1E+10	1
4902549	34	C	07/16/2021	10:02	-132.385	47.334	0	181.50	0	7.0510	0	33.7620	0	26.439	0	179.909	0	175.9	4	59.5	4	-1E+10	1	-1E+10	1	-1E+10	1	-1E+10	1	-1E+10	1	-1E+10	1
4902549	34	C	07/16/2021	10:02	-132.385	47.334	0	182.50	0	7.0230	0	33.7690	0	26.448	0	180.900	0	175.5	4	59.3	4	-1E+10	1	-1E+10	1	-1E+10	1	-1E+10	1	-1E+10	1	-1E+10	1
4902549	34	C	07/16/2021	10:02	-132.385	47.334	0	183.50	0	7.0000	0	33.7610	0	26.445	0	181.890	0	175.3	4	59.2	4	-1E+10	1	-1E+10	1	-1E+10	1	-1E+10	1	-1E+10	1	-1E+10	1
4902549	34	C	07/16/2021	10:02	-132.385	47.334	0	184.50	0	6.9920	0	33.7630	0	26.448	0	182.881	0	174.8	4	59.0	4	-1E+10	1	-1E+10	1	-1E+10	1	-1E+10	1	-1E+10	1	-1E+10	1
4902549	34	C	07/16/2021	10:02	-132.385	47.334	0	185.90	0	6.9470	0	33.7630	0	26.454	0	184.268	0	174.3	4	58.8	4	-1E+10	1	-1E+10	1	-1E+10	1	-1E+10	1	-1E+10	1	-1E+10	1
4902549	34	C	07/16/2021	10:02	-132.385	47.334	0	187.40	0	6.9210	0	33.7660	0	26.460	0	185.754	0	173.9	4	58.6	4	-1E+10	1	-1E+10	1	-1E+10	1	-1E+10	1	-1E+10	1	-1E+10	1
4902549	34	C	07/16/2021	10:02	-132.385	47.334	0	188.40	0	6.8990	0	33.7680	0	26.465	0	186.745	0	173.5	4	58.5	4	-1E+10	1	-1E+10	1	-1E+10	1	-1E+10	1	-1E+10	1	-1E+10	1
4902549	34	C	07/16/2021	10:02	-132.385	47.334	0	189.40	0	6.8960	0	33.7690	0	26.466	0	187.736	0	173.2	4	58.4	4	-1E+10	1	-1E+10	1	-1E+10	1	-1E+10	1	-1E+10	1	-1E+10	1
4902549	34	C	07/16/2021	10:02	-132.385	47.334	0	190.40	0	6.8950	0	33.7690	0	26.466	0	188.727	0	172.9	4	58.2	4	-1E+10	1	-1E+10	1	-1E+10	1	-1E+10	1	-1E+10	1	-1E+10	1
4902549	34	C	07/16/2021	10:02	-132.385	47.334	0	191.30	0	6.8940	0	33.7700	0	26.467	0	189.618	0	172.5	4	58.1	4	-1E+10	1	-1E+10	1	-1E+10	1	-1E+10	1	-1E+10	1	-1E+10	1
4902549	34	C	07/16/2021	10:02	-132.385	47.334	0	192.30	0	6.8870	0	33.7710	0	26.469	0	190.609	0	172.0	4	57.9	4	-1E+10	1	-1E+10	1	-1E+10	1	-1E+10	1	-1E+10	1	-1E+10	1
4902549	34	C	07/16/2021	10:02	-132.385	47.334	0	193.30	0	6.8840	0	33.7710	0	26.469	0	191.600	0	171.5	4	57.8	4	-1E+10	1	-1E+10	1	-1E+10	1	-1E+10	1	-1E+10	1	-1E+10	1
4902549	34	C	07/16/2021	10:02	-132.385	47.334	0	194.20	0	6.8770	0	33.7730	0	26.472	0	192.492	0	171.0	4	57.6	4	-1E+10	1	-1E+10	1	-1E+10	1	-1E+10	1	-1E+10	1	-1E+10	1
4902549	34	C	07/16/2021	10:02	-132.385	47.334	0	195.20	0	6.8710	0	33.7720	0	26.472	0	193.482	0	170.5	4	57.4	4	-1E+10	1	-1E+10	1	-1E+10	1	-1E+10	1	-1E+10	1	-1E+10	1
4902549	34	C	07/16/2021	10:02	-132.385	47.334	0	196.20	0	6.8620	0	33.7730	0	26.474	0	194.473	0	169.9	4	57.2	4	-1E+10	1	-1E+10	1	-1E+10	1	-1E+10	1	-1E+10	1	-1E+10	1
4902549	34	C	07/16/2021	10:02	-132.385	47.334	0	197.20	0	6.8430	0	33.7760	0	26.479	0	195.464	0	169.5	4	57.0	4	-1E+10	1	-1E+10	1	-1E+10	1	-1E+10	1	-1E+10	1	-1E+10	1
4902549	34	C	07/16/2021	10:02	-132.385	47.334	0	198.10	0	6.8380	0	33.7770	0	26.480	0	196.355	0	169.0	4	56.9	4	-1E+10	1	-1E+10	1	-1E+10	1	-1E+10	1	-1E+10	1	-1E+10	1
4902549	34	C	07/16/2021	10:02	-132.385	47.334	0	199.10	0	6.8300	0	33.7790	0	26.483	0	197.346	0	168.4	4	56.7	4	-1E+10	1	-1E+10	1	-1E+10	1	-1E+10	1	-1E+10	1	-1E+10	1
4902549	34	C	07/16/2021	10:02	-132.385	47.334	0	200.10	0	6.8240	0	33.7800	0	26.484	0	198.337	0	167.9	4	56.5	4	-1E+10	1	-1E+10	1	-1E+10	1	-1E+10	1	-1E+10	1	-1E+10	1
4902549	34	C	07/16/2021	10:02	-132.385	47.334	0	201.10	0	6.8160	0	33.7840	0	26.488	0	199.328	0	167.4	4	56.3	4	-1E+10	1	-1E+10	1	-1E+10	1	-1E+10	1	-1E+10	1	-1E+10	1
4902549	34	C	07/16/2021	10:02	-132.385	47.334	0	202.10	0	6.8080	0	33.7840	0	26.490	0	200.318	0	167.0	4	56.2	4	-1E+10	1	-1E+10	1	-1E+10	1	-1E+10	1	-1E+10	1	-1E+10	1
4902549	34	C	07/16/2021	10:02	-132.385	47.334	0	203.10	0	6.7900	0	33.7840	0	26.492	0	201.309	0	166.5	4	56.0	4	-1E+10	1	-1E+10	1	-1E+10	1	-1E+10	1	-1E+10	1	-1E+10	1
4902549	34	C	07/16/2021	10:02	-132.385	47.334	0	204.00	0	6.7820	0	33.7830	0	26.492	0	202.201	0	165.9	4	55.7	4	-1E+10	1	-1E+10	1	-1E+10	1	-1E+10	1	-1E+10	1	-1E+10	1
4902549	34	C	07/16/2021	10:02	-132.385	47.334	0	205.00	0	6.7750	0	33.7840	0	26.494	0	203.191	0	165.1	4	55.5	4	-1E+10	1	-1E+10	1	-1E+10	1	-1E+10	1	-1E+10	1	-1E+10	1
4902549	34	C	07/16/2021	10:02	-132.385	47.334	0	206.00	0	6.7600	0	33.7860	0	26.498	0	204.182	0	164.5	4	55.3	4	-1E+10	1	-1E+10	1	-1E+10	1	-1E+10	1	-1E+10	1	-1E+10	1
4902549	34	C	07/16/2021	10:02	-132.385	47.334	0	207.00	0	6.7540	0	33.7870	0	26.499	0	205.173	0	163.7	4	55.0	4	-1E+10	1	-1E+10	1	-1E+10	1	-1E+10	1	-1E+10	1	-1E+10	1
4902549	34	C	07/16/2021	10:02	-132.385	47.334	0	208.00	0	6.7420	0	33.7870	0	26.501	0	206.163	0	163.0	4	54.7	4	-1E+10	1	-1E+10	1	-1E+10	1	-1E+10	1	-1E+10	1	-1E+10	1
4902549	34	C	07/16/2021	10:02	-132.385	47.334	0	209.00	0	6.7270	0	33.7890	0	26.504	0	207.154	0	162.3	4	54.5	4	-1E+10	1	-1E+10	1	-1E+10	1	-1E+10	1	-1E+10	1	-1E+10	1
4902549	34	C	07/16/2021	10:02	-132.385	47.334	0	210.00	0	6.7330	0	33.7930	0	26.507	0	208.145	0	161.6	4	54.3	4	-1E+10	1	-1E+10	1	-1E+10	1	-1E+10	1	-1E+10	1	-1E+10	1
4902549	34	C	07/16/2021	10:02	-132.385	47.334	0	211.00	0	6.7350	0	33.7980	0	26.510	0	209.135	0	160.9	4	54.0	4	-1E+10	1	-1E+10	1	-1E+10	1	-1E+10	1	-1E+10	1	-1E+10	1
4902549	34	C	07/16/2021	10:02	-132.385	47.334	0	212.00	0	6.7200	0	33.7970	0	26.512	0	210.126	0	160.4	4	53.8	4	-1E+10	1	-1E+10	1	-1E+10	1	-1E+10	1	-1E+10	1	-1E+10	1
4902549	34	C	07/16/2021	10:02	-132.385	47.334	0	213.00	0	6.7360	0	33.7990	0	26.511	0	211.117	0	159.6	4	53.6	4	-1E+10	1	-1E+10	1	-1E+10	1	-1E+10	1	-1E+10	1	-1E+10	1
4902549	34	C	07/16/2021	10:02	-132.385	47.334	0	214.00	0	6.6930	0	33.8040	0	26.521	0	212.107	0	159.1	4	53.4	4	-1E+10	1	-1E+10	1	-1E+10	1	-1E+10	1	-1E+10	1	-1E+10	1
4902549	34	C	07/16/2021	10:02	-132.385	47.334	0	215.00	0	6.6630	0	33.8000	0	26.522	0	213.098	0	158.6	4	53.2	4	-1E+10	1	-1E+10	1	-1E+10	1	-1E+10	1	-1E+10	1	-1E+10	1
4902549	34	C	07/16/2021	10:02	-132.385	47.334	0	215.90	0	6.6690	0	33.8010	0	26.522	0	213.989	0	157.9	4	52.9	4	-1E+10	1	-1E+10	1	-1E+10	1	-1E+10	1	-1E+10	1	-1E+10	1
4902549	34	C	07/16/2021	10:02	-132.385	47.334	0	217.00	0	6.6490	0	33.8020	0	26.525	0	215.079	0	157.0	4	52.6	4	-1E+10	1	-1E+10	1	-1E+10	1	-1E+10	1	-1E+10	1	-1E+10	1
4902549	34	C	07/16/2021	10:02	-132.385	47.334	0	217.80	0	6.6140	0	33.8080	0	26.534	0	215.872	0	156.5	4	52.4	4	-1E+10	1	-1E+10	1	-1E+10	1	-1E+10	1	-1E+10	1	-1E+10	1
4902549	34	C	07/16/2021	10:02	-132.385	47.334	0	218.90	0	6.5570	0	33.8010	0	26.536	0	216.961	0	155.9	4	52.1	4	-1E+10	1	-1E+10	1	-1E+10	1	-1E+10	1	-1E+10	1	-1E+10	1
4902549	34	C	07/16/2021	10:02	-132.385	47.334	0	220.00	0	6.5110	0	33.7980	0	26.540	0	218.051	0	155.1	4	51.8	4	-1E+10	1	-1E+10	1	-1E+10	1	-1E+10	1	-1E+10	1	-1E+10	1
4902549	34	C	07/16/2021	10:02	-132.385	47.334	0	220.80	0	6.4860	0	33.8000	0	26.545	0	218.844	0	154.7	4	51.6	4	-1E+10	1	-1E+10	1	-1E+10	1	-1E+10	1	-1E+10	1	-1E+10	1
4902549	34	C	07/16/2021	10:02	-132.385	47.334	0	222.00	0	6.4800	0	33.8010	0	26.547	0	220.032	0	154.1	4	51.4	4	-1E+10	1	-1E+10	1	-1E+10	1	-1E+10	1	-1E+10	1	-1E+10	1
4902549	34	C	07/16/2021	10:02	-132.385	47.334	0	223.20	0	6.4810	0	33.8010	0	26.546	0	221.221	0	153.3	4	51.2	4	-1E+10	1	-1E+10	1	-1E+10	1	-1E+10	1	-1E+10	1	-1E+10	1
4902549	34	C	07/16/2021	10:02	-132.385	47.334	0	224.00	0	6.4710	0	33.8040	0	26.550	0	222.013	0	152.9	4	51.0	4	-1E+10	1	-1E+10	1	-1E+10	1	-1E+10	1	-1E+10	1	-1E+10	1
4902549	34	C	07/16/2021	10:02	-132.385	47.334	0	224.80	0	6.4560	0	33.8050	0	26.553	0	222.806	0	152.4	4	50.8	4	-1E+10	1	-1E+10	1	-1E+10	1	-1E+10	1	-1E+10	1	-1E+10	1
4902549	34	C	07/16/2021	10:02	-132.385	47.334	0	226.00	0	6.4200	0	33.8020	0	26.555	0	223.995	0	151.6	4	50.5	4	-1E+10	1	-1E+10	1	-1E+10	1	-1E+10	1	-1E+10	1	-1E+10	1
4902549	34	C	07/16/2021	10:02	-132.385	47.334	0	227.20	0	6.4000	0	33.8050	0	26.560	0	225.183	0	150.8	4	50.2	4	-1E+10	1	-1E+10	1	-1E+10	1	-1E+10	1	-1E+10	1	-1E+10	1
4902549	34	C	07/16/2021	10:02	-132.385	47.334	0	228.00	0	6.3980	0	33.8060	0	26.561	0	225.976	0	150.3	4	50.1	4	-1E+10	1	-1E+10	1	-1E+10	1	-1E+10	1	-1E+10	1	-1E+10	1
4902549	34	C	07/16/2021	10:02	-132.385	47.334	0	228.80	0	6.4040	0	33.8040	0	26.559	0	226.768	0	149.7	4	49.9	4	-1E+10	1	-1E+10	1	-1E+10	1	-1E+10	1	-1E+10	1	-1E+10	1
4902549	34	C	07/16/2021	10:02	-132.385	47.334	0	230.00	0	6.3540	0	33.8040	0	26.565	0	227.957	0	149.0	4	49.6	4	-1E+10	1	-1E+10	1	-1E+10	1	-1E+10	1	-1E+10	1	-1E+10	1
4902549	34	C	07/16/2021	10:02	-132.385	47.334	0	231.30	0	6.3430	0	33.8040	0	26.567	0	229.245	0	148.1	4	49.3	4	-1E+10	1	-1E+10	1	-1E+10	1	-1E+10	1	-1E+10	1	-1E+10	1
4902549	34	C	07/16/2021	10:02	-132.385	47.334	0	232.10	0	6.3610	0	33.8080	0	26.568	0	230.037	0	147.6	4	49.1	4	-1E+10	1	-1E+10	1	-1E+10	1	-1E+10	1	-1E+10	1	-1E+10	1
4902549	34	C	07/16/2021	10:02	-132.385	47.334	0	232.90	0	6.3190	0	33.8090	0	26.574	0	230.830	0	147.0	4	48.9	4	-1E+10	1	-1E+10	1	-1E+10	1	-1E+10	1	-1E+10	1	-1E+10	1
4902549	34	C	07/16/2021	10:02	-132.385	47.334	0	233.80	0	6.3010	0	33.8060	0	26.574	0	231.721	0	146.5	4	48.7	4	-1E+10	1	-1E+10	1	-1E+10	1	-1E+10	1	-1E+10	1	-1E+10	1
4902549	34	C	07/16/2021	10:02	-132.385	47.334	0	234.60	0	6.3080	0	33.8100	0	26.576	0	232.514	0	146.0	4	48.5	4	-1E+10	1	-1E+10	1	-1E+10	1	-1E+10	1	-1E+10	1	-1E+10	1
4902549	34	C	07/16/2021	10:02	-132.385	47.334	0	235.90	0	6.2660	0	33.8090	0	26.581	0	233.801	0	145.2	4	48.2	4	-1E+10	1	-1E+10	1	-1E+10	1	-1E+10	1	-1E+10	1	-1E+10	1
4902549	34	C	07/16/2021	10:02	-132.385	47.334	0	237.20	0	6.3290	0	33.8250	0	26.585	0	235.089	0	144.3	4	48.0	4	-1E+10	1	-1E+10	1	-1E+10	1	-1E+10	1	-1E+10	1	-1E+10	1
4902549	34	C	07/16/2021	10:02	-132.385	47.334	0	238.00	0	6.3080	0	33.8240	0	26.587	0	235.881	0	143.9	4	47.8	4	-1E+10	1	-1E+10	1	-1E+10	1	-1E+10	1	-1E+10	1	-1E+10	1
4902549	34	C	07/16/2021	10:02	-132.385	47.334	0	238.90	0	6.2950	0	33.8250	0	26.590	0	236.773	0	143.5	4	47.7	4	-1E+10	1	-1E+10	1	-1E+10	1	-1E+10	1	-1E+10	1	-1E+10	1
4902549	34	C	07/16/2021	10:02	-132.385	47.334	0	239.80	0	6.2770	0	33.8220	0	26.590	0	237.664	0	143.2	4	47.6	4	-1E+10	1	-1E+10	1	-1E+10	1	-1E+10	1	-1E+10	1	-1E+10	1
4902549	34	C	07/16/2021	10:02	-132.385	47.334	0	240.70	0	6.2650	0	33.8200	0	26.589	0	238.556	0	142.8	4	47.4	4	-1E+10	1	-1E+10	1	-1E+10	1	-1E+10	1	-1E+10	1	-1E+10	1
4902549	34	C	07/16/2021	10:02	-132.385	47.334	0	241.60	0	6.2280	0	33.8190	0	26.593	0	239.447	0	142.4	4	47.3	4	-1E+10	1	-1E+10	1	-1E+10	1	-1E+10	1	-1E+10	1	-1E+10	1
4902549	34	C	07/16/2021	10:02	-132.385	47.334	0	242.90	0	6.2000	0	33.8170	0	26.595	0	240.735	0	141.8	4	47.0	4	-1E+10	1	-1E+10	1	-1E+10	1	-1E+10	1	-1E+10	1	-1E+10	1
4902549	34	C	07/16/2021	10:02	-132.385	47.334	0	244.20	0	6.1730	0	33.8140	0	26.596	0	242.023	0	141.0	4	46.7	4	-1E+10	1	-1E+10	1	-1E+10	1	-1E+10	1	-1E+10	1	-1E+10	1
4902549	34	C	07/16/2021	10:02	-132.385	47.334	0	245.10	0	6.1630	0	33.8150	0	26.599	0	242.914	0	140.5	4	46.6	4	-1E+10	1	-1E+10	1	-1E+10	1	-1E+10	1	-1E+10	1	-1E+10	1
4902549	34	C	07/16/2021	10:02	-132.385	47.334	0	246.00	0	6.1140	0	33.8170	0	26.606	0	243.805	0	140.1	4	46.4	4	-1E+10	1	-1E+10	1	-1E+10	1	-1E+10	1	-1E+10	1	-1E+10	1
4902549	34	C	07/16/2021	10:02	-132.385	47.334	0	246.90	0	6.0870	0	33.8110	0	26.605	0	244.697	0	139.8	4	46.3	4	-1E+10	1	-1E+10	1	-1E+10	1	-1E+10	1	-1E+10	1	-1E+10	1
4902549	34	C	07/16/2021	10:02	-132.385	47.334	0	247.80	0	6.0770	0	33.8120	0	26.607	0	245.588	0	139.5	4	46.1	4	-1E+10	1	-1E+10	1	-1E+10	1	-1E+10	1	-1E+10	1	-1E+10	1
4902549	34	C	07/16/2021	10:02	-132.385	47.334	0	248.70	0	6.0600	0	33.8130	0	26.610	0	246.480	0	139.2	4	46.0	4	-1E+10	1	-1E+10	1	-1E+10	1	-1E+10	1	-1E+10	1	-1E+10	1
4902549	34	C	07/16/2021	10:02	-132.385	47.334	0	249.70	0	6.0450	0	33.8140	0	26.613	0	247.470	0	138.8	4	45.9	4	-1E+10	1	-1E+10	1	-1E+10	1	-1E+10	1	-1E+10	1	-1E+10	1
4902549	34	C	07/16/2021	10:02	-132.385	47.334	0	250.60	0	6.0380	0	33.8150	0	26.614	0	248.362	0	138.6	4	45.8	4	-1E+10	1	-1E+10	1	-1E+10	1	-1E+10	1	-1E+10	1	-1E+10	1
4902549	34	C	07/16/2021	10:02	-132.385	47.334	0	251.50	0	6.0330	0	33.8140	0	26.614	0	249.253	0	138.3	4	45.7	4	-1E+10	1	-1E+10	1	-1E+10	1	-1E+10	1	-1E+10	1	-1E+10	1
4902549	34	C	07/16/2021	10:02	-132.385	47.334	0	252.90	0	6.0290	0	33.8150	0	26.616	0	250.640	0	137.9	4	45.5	4	-1E+10	1	-1E+10	1	-1E+10	1	-1E+10	1	-1E+10	1	-1E+10	1
4902549	34	C	07/16/2021	10:02	-132.385	47.334	0	254.30	0	6.0270	0	33.8160	0	26.617	0	252.026	0	137.2	4	45.3	4	-1E+10	1	-1E+10	1	-1E+10	1	-1E+10	1	-1E+10	1	-1E+10	1
4902549	34	C	07/16/2021	10:02	-132.385	47.334	0	255.30	0	6.0270	0	33.8150	0	26.616	0	253.017	0	136.8	4	45.2	4	-1E+10	1	-1E+10	1	-1E+10	1	-1E+10	1	-1E+10	1	-1E+10	1
4902549	34	C	07/16/2021	10:02	-132.385	47.334	0	256.20	0	6.0220	0	33.8160	0	26.617	0	253.908	0	136.3	4	45.0	4	-1E+10	1	-1E+10	1	-1E+10	1	-1E+10	1	-1E+10	1	-1E+10	1
4902549	34	C	07/16/2021	10:02	-132.385	47.334	0	257.10	0	6.0180	0	33.8160	0	26.618	0	254.800	0	135.9	4	44.9	4	-1E+10	1	-1E+10	1	-1E+10	1	-1E+10	1	-1E+10	1	-1E+10	1
4902549	34	C	07/16/2021	10:02	-132.385	47.334	0	258.10	0	6.0180	0	33.8180	0	26.619	0	255.790	0	135.3	4	44.7	4	-1E+10	1	-1E+10	1	-1E+10	1	-1E+10	1	-1E+10	1	-1E+10	1
4902549	34	C	07/16/2021	10:02	-132.385	47.334	0	259.00	0	5.9850	0	33.8180	0	26.623	0	256.681	0	134.9	4	44.5	4	-1E+10	1	-1E+10	1	-1E+10	1	-1E+10	1	-1E+10	1	-1E+10	1
4902549	34	C	07/16/2021	10:02	-132.385	47.334	0	260.00	0	5.9750	0	33.8180	0	26.625	0	257.672	0	134.5	4	44.4	4	-1E+10	1	-1E+10	1	-1E+10	1	-1E+10	1	-1E+10	1	-1E+10	1
4902549	34	C	07/16/2021	10:02	-132.385	47.334	0	260.90	0	5.9560	0	33.8190	0	26.628	0	258.563	0	134.1	4	44.2	4	-1E+10	1	-1E+10	1	-1E+10	1	-1E+10	1	-1E+10	1	-1E+10	1
4902549	34	C	07/16/2021	10:02	-132.385	47.334	0	261.80	0	5.9520	0	33.8190	0	26.628	0	259.455	0	133.7	4	44.1	4	-1E+10	1	-1E+10	1	-1E+10	1	-1E+10	1	-1E+10	1	-1E+10	1
4902549	34	C	07/16/2021	10:02	-132.385	47.334	0	262.80	0	5.9470	0	33.8200	0	26.630	0	260.445	0	133.2	4	43.9	4	-1E+10	1	-1E+10	1	-1E+10	1	-1E+10	1	-1E+10	1	-1E+10	1
4902549	34	C	07/16/2021	10:02	-132.385	47.334	0	263.70	0	5.9270	0	33.8220	0	26.634	0	261.336	0	132.8	4	43.8	4	-1E+10	1	-1E+10	1	-1E+10	1	-1E+10	1	-1E+10	1	-1E+10	1
4902549	34	C	07/16/2021	10:02	-132.385	47.334	0	264.70	0	5.9140	0	33.8210	0	26.635	0	262.327	0	132.4	4	43.6	4	-1E+10	1	-1E+10	1	-1E+10	1	-1E+10	1	-1E+10	1	-1E+10	1
4902549	34	C	07/16/2021	10:02	-132.385	47.334	0	265.60	0	5.9000	0	33.8220	0	26.637	0	263.218	0	132.0	4	43.5	4	-1E+10	1	-1E+10	1	-1E+10	1	-1E+10	1	-1E+10	1	-1E+10	1
4902549	34	C	07/16/2021	10:02	-132.385	47.334	0	266.60	0	5.8800	0	33.8220	0	26.640	0	264.208	0	131.7	4	43.4	4	-1E+10	1	-1E+10	1	-1E+10	1	-1E+10	1	-1E+10	1	-1E+10	1
4902549	34	C	07/16/2021	10:02	-132.385	47.334	0	267.60	0	5.8780	0	33.8220	0	26.640	0	265.199	0	131.4	4	43.3	4	-1E+10	1	-1E+10	1	-1E+10	1	-1E+10	1	-1E+10	1	-1E+10	1
4902549	34	C	07/16/2021	10:02	-132.385	47.334	0	268.50	0	5.8770	0	33.8210	0	26.639	0	266.090	0	131.0	4	43.1	4	-1E+10	1	-1E+10	1	-1E+10	1	-1E+10	1	-1E+10	1	-1E+10	1
4902549	34	C	07/16/2021	10:02	-132.385	47.334	0	269.90	0	5.8680	0	33.8220	0	26.641	0	267.477	0	130.3	4	42.9	4	-1E+10	1	-1E+10	1	-1E+10	1	-1E+10	1	-1E+10	1	-1E+10	1
4902549	34	C	07/16/2021	10:02	-132.385	47.334	0	271.30	0	5.8620	0	33.8210	0	26.641	0	268.863	0	129.6	4	42.7	4	-1E+10	1	-1E+10	1	-1E+10	1	-1E+10	1	-1E+10	1	-1E+10	1
4902549	34	C	07/16/2021	10:02	-132.385	47.334	0	272.30	0	5.8490	0	33.8230	0	26.644	0	269.854	0	129.1	4	42.5	4	-1E+10	1	-1E+10	1	-1E+10	1	-1E+10	1	-1E+10	1	-1E+10	1
4902549	34	C	07/16/2021	10:02	-132.385	47.334	0	273.20	0	5.8160	0	33.8240	0	26.649	0	270.745	0	128.8	4	42.3	4	-1E+10	1	-1E+10	1	-1E+10	1	-1E+10	1	-1E+10	1	-1E+10	1
4902549	34	C	07/16/2021	10:02	-132.385	47.334	0	274.10	0	5.7980	0	33.8240	0	26.651	0	271.636	0	128.5	4	42.2	4	-1E+10	1	-1E+10	1	-1E+10	1	-1E+10	1	-1E+10	1	-1E+10	1
4902549	34	C	07/16/2021	10:02	-132.385	47.334	0	275.10	0	5.7930	0	33.8230	0	26.651	0	272.627	0	128.2	4	42.1	4	-1E+10	1	-1E+10	1	-1E+10	1	-1E+10	1	-1E+10	1	-1E+10	1
4902549	34	C	07/16/2021	10:02	-132.385	47.334	0	276.00	0	5.7860	0	33.8230	0	26.652	0	273.518	0	127.8	4	42.0	4	-1E+10	1	-1E+10	1	-1E+10	1	-1E+10	1	-1E+10	1	-1E+10	1
4902549	34	C	07/16/2021	10:02	-132.385	47.334	0	277.00	0	5.7810	0	33.8220	0	26.652	0	274.508	0	127.4	4	41.9	4	-1E+10	1	-1E+10	1	-1E+10	1	-1E+10	1	-1E+10	1	-1E+10	1
4902549	34	C	07/16/2021	10:02	-132.385	47.334	0	277.90	0	5.7730	0	33.8240	0	26.655	0	275.400	0	127.1	4	41.7	4	-1E+10	1	-1E+10	1	-1E+10	1	-1E+10	1	-1E+10	1	-1E+10	1
4902549	34	C	07/16/2021	10:02	-132.385	47.334	0	278.80	0	5.7720	0	33.8250	0	26.655	0	276.291	0	126.6	4	41.6	4	-1E+10	1	-1E+10	1	-1E+10	1	-1E+10	1	-1E+10	1	-1E+10	1
4902549	34	C	07/16/2021	10:02	-132.385	47.334	0	279.80	0	5.7660	0	33.8230	0	26.655	0	277.281	0	126.2	4	41.4	4	-1E+10	1	-1E+10	1	-1E+10	1	-1E+10	1	-1E+10	1	-1E+10	1
4902549	34	C	07/16/2021	10:02	-132.385	47.334	0	280.70	0	5.7630	0	33.8230	0	26.655	0	278.173	0	125.7	4	41.3	4	-1E+10	1	-1E+10	1	-1E+10	1	-1E+10	1	-1E+10	1	-1E+10	1
4902549	34	C	07/16/2021	10:02	-132.385	47.334	0	281.60	0	5.7520	0	33.8240	0	26.657	0	279.064	0	125.2	4	41.1	4	-1E+10	1	-1E+10	1	-1E+10	1	-1E+10	1	-1E+10	1	-1E+10	1
4902549	34	C	07/16/2021	10:02	-132.385	47.334	0	282.60	0	5.7430	0	33.8240	0	26.658	0	280.054	0	124.7	4	40.9	4	-1E+10	1	-1E+10	1	-1E+10	1	-1E+10	1	-1E+10	1	-1E+10	1
4902549	34	C	07/16/2021	10:02	-132.385	47.334	0	283.50	0	5.7250	0	33.8240	0	26.660	0	280.945	0	124.2	4	40.7	4	-1E+10	1	-1E+10	1	-1E+10	1	-1E+10	1	-1E+10	1	-1E+10	1
4902549	34	C	07/16/2021	10:02	-132.385	47.334	0	284.90	0	5.6970	0	33.8250	0	26.665	0	282.332	0	123.6	4	40.5	4	-1E+10	1	-1E+10	1	-1E+10	1	-1E+10	1	-1E+10	1	-1E+10	1
4902549	34	C	07/16/2021	10:02	-132.385	47.334	0	286.30	0	5.6770	0	33.8270	0	26.669	0	283.718	0	123.1	4	40.3	4	-1E+10	1	-1E+10	1	-1E+10	1	-1E+10	1	-1E+10	1	-1E+10	1
4902549	34	C	07/16/2021	10:02	-132.385	47.334	0	287.20	0	5.6820	0	33.8290	0	26.670	0	284.610	0	122.6	4	40.2	4	-1E+10	1	-1E+10	1	-1E+10	1	-1E+10	1	-1E+10	1	-1E+10	1
4902549	34	C	07/16/2021	10:02	-132.385	47.334	0	288.20	0	5.6870	0	33.8300	0	26.670	0	285.600	0	122.1	4	40.0	4	-1E+10	1	-1E+10	1	-1E+10	1	-1E+10	1	-1E+10	1	-1E+10	1
4902549	34	C	07/16/2021	10:02	-132.385	47.334	0	289.10	0	5.6900	0	33.8340	0	26.673	0	286.491	0	121.6	4	39.9	4	-1E+10	1	-1E+10	1	-1E+10	1	-1E+10	1	-1E+10	1	-1E+10	1
4902549	34	C	07/16/2021	10:02	-132.385	47.334	0	290.00	0	5.6880	0	33.8350	0	26.674	0	287.382	0	121.0	4	39.7	4	-1E+10	1	-1E+10	1	-1E+10	1	-1E+10	1	-1E+10	1	-1E+10	1
4902549	34	C	07/16/2021	10:02	-132.385	47.334	0	291.00	0	5.6690	0	33.8380	0	26.678	0	288.373	0	120.6	4	39.5	4	-1E+10	1	-1E+10	1	-1E+10	1	-1E+10	1	-1E+10	1	-1E+10	1
4902549	34	C	07/16/2021	10:02	-132.385	47.334	0	291.90	0	5.6490	0	33.8380	0	26.681	0	289.264	0	120.2	4	39.4	4	-1E+10	1	-1E+10	1	-1E+10	1	-1E+10	1	-1E+10	1	-1E+10	1
4902549	34	C	07/16/2021	10:02	-132.385	47.334	0	292.80	0	5.6480	0	33.8390	0	26.682	0	290.155	0	119.8	4	39.2	4	-1E+10	1	-1E+10	1	-1E+10	1	-1E+10	1	-1E+10	1	-1E+10	1
4902549	34	C	07/16/2021	10:02	-132.385	47.334	0	293.70	0	5.6490	0	33.8390	0	26.682	0	291.046	0	119.3	4	39.1	4	-1E+10	1	-1E+10	1	-1E+10	1	-1E+10	1	-1E+10	1	-1E+10	1
4902549	34	C	07/16/2021	10:02	-132.385	47.334	0	294.60	0	5.6470	0	33.8400	0	26.683	0	291.938	0	118.8	4	38.9	4	-1E+10	1	-1E+10	1	-1E+10	1	-1E+10	1	-1E+10	1	-1E+10	1
4902549	34	C	07/16/2021	10:02	-132.385	47.334	0	295.90	0	5.6380	0	33.8410	0	26.685	0	293.225	0	118.1	4	38.7	4	-1E+10	1	-1E+10	1	-1E+10	1	-1E+10	1	-1E+10	1	-1E+10	1
4902549	34	C	07/16/2021	10:02	-132.385	47.334	0	297.30	0	5.6300	0	33.8410	0	26.686	0	294.611	0	117.2	4	38.4	4	-1E+10	1	-1E+10	1	-1E+10	1	-1E+10	1	-1E+10	1	-1E+10	1
4902549	34	C	07/16/2021	10:02	-132.385	47.334	0	298.20	0	5.6160	0	33.8420	0	26.688	0	295.502	0	116.6	4	38.2	4	-1E+10	1	-1E+10	1	-1E+10	1	-1E+10	1	-1E+10	1	-1E+10	1
4902549	34	C	07/16/2021	10:02	-132.385	47.334	0	299.20	0	5.5640	0	33.8400	0	26.693	0	296.493	0	116.3	4	38.0	4	-1E+10	1	-1E+10	1	-1E+10	1	-1E+10	1	-1E+10	1	-1E+10	1
4902549	34	C	07/16/2021	10:02	-132.385	47.334	0	300.10	0	5.5600	0	33.8400	0	26.693	0	297.384	0	115.8	4	37.9	4	-1E+10	1	-1E+10	1	-1E+10	1	-1E+10	1	-1E+10	1	-1E+10	1
4902549	34	C	07/16/2021	10:02	-132.385	47.334	0	301.00	0	5.5570	0	33.8400	0	26.694	0	298.275	0	115.3	4	37.7	4	-1E+10	1	-1E+10	1	-1E+10	1	-1E+10	1	-1E+10	1	-1E+10	1
4902549	34	C	07/16/2021	10:02	-132.385	47.334	0	301.90	0	5.5520	0	33.8380	0	26.693	0	299.166	0	114.7	4	37.5	4	-1E+10	1	-1E+10	1	-1E+10	1	-1E+10	1	-1E+10	1	-1E+10	1
4902549	34	C	07/16/2021	10:02	-132.385	47.334	0	302.80	0	5.5250	0	33.8390	0	26.697	0	300.058	0	114.3	4	37.3	4	-1E+10	1	-1E+10	1	-1E+10	1	-1E+10	1	-1E+10	1	-1E+10	1
4902549	34	C	07/16/2021	10:02	-132.385	47.334	0	303.70	0	5.4930	0	33.8430	0	26.704	0	300.949	0	113.8	4	37.1	4	-1E+10	1	-1E+10	1	-1E+10	1	-1E+10	1	-1E+10	1	-1E+10	1
4902549	34	C	07/16/2021	10:02	-132.385	47.334	0	304.70	0	5.4820	0	33.8410	0	26.703	0	301.939	0	113.5	4	37.0	4	-1E+10	1	-1E+10	1	-1E+10	1	-1E+10	1	-1E+10	1	-1E+10	1
4902549	34	C	07/16/2021	10:02	-132.385	47.334	0	305.60	0	5.4820	0	33.8410	0	26.703	0	302.830	0	113.0	4	36.9	4	-1E+10	1	-1E+10	1	-1E+10	1	-1E+10	1	-1E+10	1	-1E+10	1
4902549	34	C	07/16/2021	10:02	-132.385	47.334	0	306.90	0	5.4770	0	33.8440	0	26.706	0	304.117	0	112.4	4	36.7	4	-1E+10	1	-1E+10	1	-1E+10	1	-1E+10	1	-1E+10	1	-1E+10	1
4902549	34	C	07/16/2021	10:02	-132.385	47.334	0	308.40	0	5.4470	0	33.8430	0	26.709	0	305.603	0	111.8	4	36.4	4	-1E+10	1	-1E+10	1	-1E+10	1	-1E+10	1	-1E+10	1	-1E+10	1
4902549	34	C	07/16/2021	10:02	-132.385	47.334	0	309.30	0	5.4270	0	33.8420	0	26.711	0	306.494	0	111.5	4	36.3	4	-1E+10	1	-1E+10	1	-1E+10	1	-1E+10	1	-1E+10	1	-1E+10	1
4902549	34	C	07/16/2021	10:02	-132.385	47.334	0	310.20	0	5.4300	0	33.8430	0	26.711	0	307.385	0	111.1	4	36.2	4	-1E+10	1	-1E+10	1	-1E+10	1	-1E+10	1	-1E+10	1	-1E+10	1
4902549	34	C	07/16/2021	10:02	-132.385	47.334	0	311.20	0	5.4290	0	33.8430	0	26.711	0	308.375	0	110.6	4	36.0	4	-1E+10	1	-1E+10	1	-1E+10	1	-1E+10	1	-1E+10	1	-1E+10	1
4902549	34	C	07/16/2021	10:02	-132.385	47.334	0	312.10	0	5.4270	0	33.8430	0	26.711	0	309.266	0	110.1	4	35.9	4	-1E+10	1	-1E+10	1	-1E+10	1	-1E+10	1	-1E+10	1	-1E+10	1
4902549	34	C	07/16/2021	10:02	-132.385	47.334	0	313.10	0	5.4190	0	33.8430	0	26.712	0	310.257	0	109.5	4	35.7	4	-1E+10	1	-1E+10	1	-1E+10	1	-1E+10	1	-1E+10	1	-1E+10	1
4902549	34	C	07/16/2021	10:02	-132.385	47.334	0	314.10	0	5.4040	0	33.8440	0	26.715	0	311.247	0	109.0	4	35.5	4	-1E+10	1	-1E+10	1	-1E+10	1	-1E+10	1	-1E+10	1	-1E+10	1
4902549	34	C	07/16/2021	10:02	-132.385	47.334	0	315.00	0	5.3960	0	33.8430	0	26.715	0	312.138	0	108.4	4	35.3	4	-1E+10	1	-1E+10	1	-1E+10	1	-1E+10	1	-1E+10	1	-1E+10	1
4902549	34	C	07/16/2021	10:02	-132.385	47.334	0	316.00	0	5.3640	0	33.8450	0	26.721	0	313.128	0	107.9	4	35.1	4	-1E+10	1	-1E+10	1	-1E+10	1	-1E+10	1	-1E+10	1	-1E+10	1
4902549	34	C	07/16/2021	10:02	-132.385	47.334	0	317.00	0	5.3570	0	33.8450	0	26.721	0	314.118	0	107.4	4	34.9	4	-1E+10	1	-1E+10	1	-1E+10	1	-1E+10	1	-1E+10	1	-1E+10	1
4902549	34	C	07/16/2021	10:02	-132.385	47.334	0	317.90	0	5.3470	0	33.8440	0	26.722	0	315.009	0	106.9	4	34.8	4	-1E+10	1	-1E+10	1	-1E+10	1	-1E+10	1	-1E+10	1	-1E+10	1
4902549	34	C	07/16/2021	10:02	-132.385	47.334	0	318.90	0	5.3370	0	33.8450	0	26.724	0	315.999	0	106.4	4	34.6	4	-1E+10	1	-1E+10	1	-1E+10	1	-1E+10	1	-1E+10	1	-1E+10	1
4902549	34	C	07/16/2021	10:02	-132.385	47.334	0	319.90	0	5.3270	0	33.8450	0	26.725	0	316.990	0	105.8	4	34.4	4	-1E+10	1	-1E+10	1	-1E+10	1	-1E+10	1	-1E+10	1	-1E+10	1
4902549	34	C	07/16/2021	10:02	-132.385	47.334	0	320.90	0	5.3070	0	33.8440	0	26.726	0	317.980	0	105.4	4	34.2	4	-1E+10	1	-1E+10	1	-1E+10	1	-1E+10	1	-1E+10	1	-1E+10	1
4902549	34	C	07/16/2021	10:02	-132.385	47.334	0	321.90	0	5.2940	0	33.8450	0	26.729	0	318.970	0	104.8	4	34.1	4	-1E+10	1	-1E+10	1	-1E+10	1	-1E+10	1	-1E+10	1	-1E+10	1
4902549	34	C	07/16/2021	10:02	-132.385	47.334	0	322.80	0	5.2920	0	33.8440	0	26.728	0	319.861	0	104.2	4	33.8	4	-1E+10	1	-1E+10	1	-1E+10	1	-1E+10	1	-1E+10	1	-1E+10	1
4902549	34	C	07/16/2021	10:02	-132.385	47.334	0	323.80	0	5.2710	0	33.8460	0	26.732	0	320.851	0	103.7	4	33.6	4	-1E+10	1	-1E+10	1	-1E+10	1	-1E+10	1	-1E+10	1	-1E+10	1
4902549	34	C	07/16/2021	10:02	-132.385	47.334	0	324.80	0	5.2560	0	33.8460	0	26.734	0	321.841	0	103.0	4	33.4	4	-1E+10	1	-1E+10	1	-1E+10	1	-1E+10	1	-1E+10	1	-1E+10	1
4902549	34	C	07/16/2021	10:02	-132.385	47.334	0	325.80	0	5.2320	0	33.8460	0	26.737	0	322.831	0	102.6	4	33.3	4	-1E+10	1	-1E+10	1	-1E+10	1	-1E+10	1	-1E+10	1	-1E+10	1
4902549	34	C	07/16/2021	10:02	-132.385	47.334	0	326.80	0	5.2270	0	33.8460	0	26.737	0	323.821	0	102.0	4	33.1	4	-1E+10	1	-1E+10	1	-1E+10	1	-1E+10	1	-1E+10	1	-1E+10	1
4902549	34	C	07/16/2021	10:02	-132.385	47.334	0	327.80	0	5.2150	0	33.8460	0	26.739	0	324.811	0	101.5	4	32.9	4	-1E+10	1	-1E+10	1	-1E+10	1	-1E+10	1	-1E+10	1	-1E+10	1
4902549	34	C	07/16/2021	10:02	-132.385	47.334	0	328.70	0	5.2030	0	33.8470	0	26.741	0	325.703	0	100.9	4	32.7	4	-1E+10	1	-1E+10	1	-1E+10	1	-1E+10	1	-1E+10	1	-1E+10	1
4902549	34	C	07/16/2021	10:02	-132.385	47.334	0	329.70	0	5.1940	0	33.8480	0	26.743	0	326.693	0	100.4	4	32.6	4	-1E+10	1	-1E+10	1	-1E+10	1	-1E+10	1	-1E+10	1	-1E+10	1
4902549	34	C	07/16/2021	10:02	-132.385	47.334	0	330.70	0	5.1830	0	33.8490	0	26.745	0	327.683	0	99.9	4	32.4	4	-1E+10	1	-1E+10	1	-1E+10	1	-1E+10	1	-1E+10	1	-1E+10	1
4902549	34	C	07/16/2021	10:02	-132.385	47.334	0	331.70	0	5.1820	0	33.8480	0	26.744	0	328.673	0	99.3	4	32.2	4	-1E+10	1	-1E+10	1	-1E+10	1	-1E+10	1	-1E+10	1	-1E+10	1
4902549	34	C	07/16/2021	10:02	-132.385	47.334	0	332.70	0	5.1780	0	33.8480	0	26.745	0	329.663	0	98.7	4	32.0	4	-1E+10	1	-1E+10	1	-1E+10	1	-1E+10	1	-1E+10	1	-1E+10	1
4902549	34	C	07/16/2021	10:02	-132.385	47.334	0	333.70	0	5.1600	0	33.8530	0	26.751	0	330.653	0	98.0	4	31.7	4	-1E+10	1	-1E+10	1	-1E+10	1	-1E+10	1	-1E+10	1	-1E+10	1
4902549	34	C	07/16/2021	10:02	-132.385	47.334	0	334.70	0	5.1330	0	33.8530	0	26.754	0	331.643	0	97.6	4	31.6	4	-1E+10	1	-1E+10	1	-1E+10	1	-1E+10	1	-1E+10	1	-1E+10	1
4902549	34	C	07/16/2021	10:02	-132.385	47.334	0	335.70	0	5.1130	0	33.8540	0	26.757	0	332.633	0	97.3	4	31.5	4	-1E+10	1	-1E+10	1	-1E+10	1	-1E+10	1	-1E+10	1	-1E+10	1
4902549	34	C	07/16/2021	10:02	-132.385	47.334	0	336.70	0	5.1020	0	33.8550	0	26.759	0	333.623	0	96.9	4	31.3	4	-1E+10	1	-1E+10	1	-1E+10	1	-1E+10	1	-1E+10	1	-1E+10	1
4902549	34	C	07/16/2021	10:02	-132.385	47.334	0	337.70	0	5.0890	0	33.8560	0	26.761	0	334.613	0	96.5	4	31.2	4	-1E+10	1	-1E+10	1	-1E+10	1	-1E+10	1	-1E+10	1	-1E+10	1
4902549	34	C	07/16/2021	10:02	-132.385	47.334	0	338.70	0	5.0850	0	33.8560	0	26.762	0	335.603	0	96.1	4	31.1	4	-1E+10	1	-1E+10	1	-1E+10	1	-1E+10	1	-1E+10	1	-1E+10	1
4902549	34	C	07/16/2021	10:02	-132.385	47.334	0	339.70	0	5.0820	0	33.8560	0	26.762	0	336.593	0	95.7	4	30.9	4	-1E+10	1	-1E+10	1	-1E+10	1	-1E+10	1	-1E+10	1	-1E+10	1
4902549	34	C	07/16/2021	10:02	-132.385	47.334	0	340.70	0	5.0760	0	33.8570	0	26.764	0	337.583	0	95.4	4	30.8	4	-1E+10	1	-1E+10	1	-1E+10	1	-1E+10	1	-1E+10	1	-1E+10	1
4902549	34	C	07/16/2021	10:02	-132.385	47.334	0	341.70	0	5.0720	0	33.8590	0	26.766	0	338.573	0	95.0	4	30.7	4	-1E+10	1	-1E+10	1	-1E+10	1	-1E+10	1	-1E+10	1	-1E+10	1
4902549	34	C	07/16/2021	10:02	-132.385	47.334	0	342.70	0	5.0690	0	33.8580	0	26.765	0	339.563	0	94.6	4	30.6	4	-1E+10	1	-1E+10	1	-1E+10	1	-1E+10	1	-1E+10	1	-1E+10	1
4902549	34	C	07/16/2021	10:02	-132.385	47.334	0	343.80	0	5.0640	0	33.8590	0	26.767	0	340.652	0	94.1	4	30.4	4	-1E+10	1	-1E+10	1	-1E+10	1	-1E+10	1	-1E+10	1	-1E+10	1
4902549	34	C	07/16/2021	10:02	-132.385	47.334	0	344.80	0	5.0590	0	33.8590	0	26.767	0	341.642	0	93.6	4	30.2	4	-1E+10	1	-1E+10	1	-1E+10	1	-1E+10	1	-1E+10	1	-1E+10	1
4902549	34	C	07/16/2021	10:02	-132.385	47.334	0	345.80	0	5.0610	0	33.8600	0	26.768	0	342.633	0	93.1	4	30.1	4	-1E+10	1	-1E+10	1	-1E+10	1	-1E+10	1	-1E+10	1	-1E+10	1
4902549	34	C	07/16/2021	10:02	-132.385	47.334	0	346.80	0	5.0530	0	33.8650	0	26.773	0	343.623	0	92.5	4	29.9	4	-1E+10	1	-1E+10	1	-1E+10	1	-1E+10	1	-1E+10	1	-1E+10	1
4902549	34	C	07/16/2021	10:02	-132.385	47.334	0	347.80	0	5.0340	0	33.8700	0	26.779	0	344.613	0	92.1	4	29.7	4	-1E+10	1	-1E+10	1	-1E+10	1	-1E+10	1	-1E+10	1	-1E+10	1
4902549	34	C	07/16/2021	10:02	-132.385	47.334	0	348.80	0	5.0140	0	33.8670	0	26.779	0	345.603	0	91.8	4	29.6	4	-1E+10	1	-1E+10	1	-1E+10	1	-1E+10	1	-1E+10	1	-1E+10	1
4902549	34	C	07/16/2021	10:02	-132.385	47.334	0	349.80	0	4.9960	0	33.8650	0	26.779	0	346.593	0	91.5	4	29.5	4	-1E+10	1	-1E+10	1	-1E+10	1	-1E+10	1	-1E+10	1	-1E+10	1
4902549	34	C	07/16/2021	10:02	-132.385	47.334	0	352.80	0	4.9850	0	33.8650	0	26.780	0	349.562	0	90.3	4	29.1	4	-1E+10	1	-1E+10	1	-1E+10	1	-1E+10	1	-1E+10	1	-1E+10	1
4902549	34	C	07/16/2021	10:02	-132.385	47.334	0	357.90	0	4.9430	0	33.8700	0	26.789	0	354.611	0	88.5	4	28.5	4	-1E+10	1	-1E+10	1	-1E+10	1	-1E+10	1	-1E+10	1	-1E+10	1
4902549	34	C	07/16/2021	10:02	-132.385	47.334	0	363.00	0	4.9240	0	33.8750	0	26.795	0	359.660	0	86.9	4	28.0	4	-1E+10	1	-1E+10	1	-1E+10	1	-1E+10	1	-1E+10	1	-1E+10	1
4902549	34	C	07/16/2021	10:02	-132.385	47.334	0	368.20	0	4.9060	0	33.8810	0	26.802	0	364.808	0	85.1	4	27.4	4	-1E+10	1	-1E+10	1	-1E+10	1	-1E+10	1	-1E+10	1	-1E+10	1
4902549	34	C	07/16/2021	10:02	-132.385	47.334	0	373.40	0	4.8760	0	33.8860	0	26.809	0	369.955	0	83.7	4	26.9	4	-1E+10	1	-1E+10	1	-1E+10	1	-1E+10	1	-1E+10	1	-1E+10	1
4902549	34	C	07/16/2021	10:02	-132.385	47.334	0	378.00	0	4.8550	0	33.8860	0	26.812	0	374.509	0	82.0	4	26.4	4	-1E+10	1	-1E+10	1	-1E+10	1	-1E+10	1	-1E+10	1	-1E+10	1
4902549	34	C	07/16/2021	10:02	-132.385	47.334	0	382.70	0	4.8240	0	33.8910	0	26.819	0	379.161	0	80.6	4	25.9	4	-1E+10	1	-1E+10	1	-1E+10	1	-1E+10	1	-1E+10	1	-1E+10	1
4902549	34	C	07/16/2021	10:02	-132.385	47.334	0	387.90	0	4.8140	0	33.8960	0	26.824	0	384.308	0	78.9	4	25.3	4	-1E+10	1	-1E+10	1	-1E+10	1	-1E+10	1	-1E+10	1	-1E+10	1
4902549	34	C	07/16/2021	10:02	-132.385	47.334	0	393.20	0	4.8050	0	33.9030	0	26.831	0	389.554	0	77.0	4	24.7	4	-1E+10	1	-1E+10	1	-1E+10	1	-1E+10	1	-1E+10	1	-1E+10	1
4902549	34	C	07/16/2021	10:02	-132.385	47.334	0	398.20	0	4.7770	0	33.9090	0	26.839	0	394.503	0	74.9	4	24.1	4	-1E+10	1	-1E+10	1	-1E+10	1	-1E+10	1	-1E+10	1	-1E+10	1
4902549	34	C	07/16/2021	10:02	-132.385	47.334	0	402.90	0	4.7510	0	33.9170	0	26.848	0	399.155	0	73.4	4	23.6	4	-1E+10	1	-1E+10	1	-1E+10	1	-1E+10	1	-1E+10	1	-1E+10	1
4902549	34	C	07/16/2021	10:02	-132.385	47.334	0	407.60	0	4.7360	0	33.9210	0	26.853	0	403.806	0	72.2	4	23.2	4	-1E+10	1	-1E+10	1	-1E+10	1	-1E+10	1	-1E+10	1	-1E+10	1
4902549	34	C	07/16/2021	10:02	-132.385	47.334	0	412.80	0	4.7140	0	33.9260	0	26.859	0	408.953	0	71.2	4	22.8	4	-1E+10	1	-1E+10	1	-1E+10	1	-1E+10	1	-1E+10	1	-1E+10	1
4902549	34	C	07/16/2021	10:02	-132.385	47.334	0	418.10	0	4.7040	0	33.9280	0	26.862	0	414.198	0	70.4	4	22.5	4	-1E+10	1	-1E+10	1	-1E+10	1	-1E+10	1	-1E+10	1	-1E+10	1
4902549	34	C	07/16/2021	10:02	-132.385	47.334	0	422.80	0	4.6950	0	33.9300	0	26.865	0	418.849	0	69.3	4	22.2	4	-1E+10	1	-1E+10	1	-1E+10	1	-1E+10	1	-1E+10	1	-1E+10	1
4902549	34	C	07/16/2021	10:02	-132.385	47.334	0	427.70	0	4.6760	0	33.9350	0	26.871	0	423.699	0	68.2	4	21.9	4	-1E+10	1	-1E+10	1	-1E+10	1	-1E+10	1	-1E+10	1	-1E+10	1
4902549	34	C	07/16/2021	10:02	-132.385	47.334	0	433.00	0	4.6670	0	33.9370	0	26.874	0	428.944	0	67.1	4	21.5	4	-1E+10	1	-1E+10	1	-1E+10	1	-1E+10	1	-1E+10	1	-1E+10	1
4902549	34	C	07/16/2021	10:02	-132.385	47.334	0	437.80	0	4.6510	0	33.9420	0	26.879	0	433.694	0	65.9	4	21.1	4	-1E+10	1	-1E+10	1	-1E+10	1	-1E+10	1	-1E+10	1	-1E+10	1
4902549	34	C	07/16/2021	10:02	-132.385	47.334	0	442.60	0	4.6410	0	33.9450	0	26.883	0	438.444	0	64.5	4	20.6	4	-1E+10	1	-1E+10	1	-1E+10	1	-1E+10	1	-1E+10	1	-1E+10	1
4902549	34	C	07/16/2021	10:02	-132.385	47.334	0	447.90	0	4.6120	0	33.9500	0	26.890	0	443.688	0	62.6	4	20.0	4	-1E+10	1	-1E+10	1	-1E+10	1	-1E+10	1	-1E+10	1	-1E+10	1
4902549	34	C	07/16/2021	10:02	-132.385	47.334	0	453.10	0	4.5810	0	33.9580	0	26.900	0	448.834	0	61.0	4	19.5	4	-1E+10	1	-1E+10	1	-1E+10	1	-1E+10	1	-1E+10	1	-1E+10	1
4902549	34	C	07/16/2021	10:02	-132.385	47.334	0	457.90	0	4.5650	0	33.9630	0	26.905	0	453.583	0	59.7	4	19.1	4	-1E+10	1	-1E+10	1	-1E+10	1	-1E+10	1	-1E+10	1	-1E+10	1
4902549	34	C	07/16/2021	10:02	-132.385	47.334	0	462.60	0	4.5480	0	33.9660	0	26.910	0	458.234	0	58.0	4	18.5	4	-1E+10	1	-1E+10	1	-1E+10	1	-1E+10	1	-1E+10	1	-1E+10	1
4902549	34	C	07/16/2021	10:02	-132.385	47.334	0	467.80	0	4.5190	0	33.9730	0	26.918	0	463.379	0	56.2	4	17.9	4	-1E+10	1	-1E+10	1	-1E+10	1	-1E+10	1	-1E+10	1	-1E+10	1
4902549	34	C	07/16/2021	10:02	-132.385	47.334	0	473.00	0	4.4920	0	33.9810	0	26.928	0	468.524	0	54.6	4	17.4	4	-1E+10	1	-1E+10	1	-1E+10	1	-1E+10	1	-1E+10	1	-1E+10	1
4902549	34	C	07/16/2021	10:02	-132.385	47.334	0	477.90	0	4.4710	0	33.9860	0	26.934	0	473.372	0	53.2	4	17.0	4	-1E+10	1	-1E+10	1	-1E+10	1	-1E+10	1	-1E+10	1	-1E+10	1
4902549	34	C	07/16/2021	10:02	-132.385	47.334	0	482.70	0	4.4600	0	33.9890	0	26.938	0	478.121	0	51.7	4	16.5	4	-1E+10	1	-1E+10	1	-1E+10	1	-1E+10	1	-1E+10	1	-1E+10	1
4902549	34	C	07/16/2021	10:02	-132.385	47.334	0	488.00	0	4.4360	0	33.9960	0	26.946	0	483.364	0	49.7	4	15.8	4	-1E+10	1	-1E+10	1	-1E+10	1	-1E+10	1	-1E+10	1	-1E+10	1
4902549	34	C	07/16/2021	10:02	-132.385	47.334	0	492.80	0	4.4190	0	34.0020	0	26.952	0	488.113	0	48.3	4	15.4	4	-1E+10	1	-1E+10	1	-1E+10	1	-1E+10	1	-1E+10	1	-1E+10	1
4902549	34	C	07/16/2021	10:02	-132.385	47.334	0	497.60	0	4.4020	0	34.0070	0	26.958	0	492.862	0	47.0	4	15.0	4	-1E+10	1	-1E+10	1	-1E+10	1	-1E+10	1	-1E+10	1	-1E+10	1
4902549	34	C	07/16/2021	10:02	-132.385	47.334	0	502.90	0	4.3890	0	34.0110	0	26.963	0	498.105	0	45.5	4	14.5	4	-1E+10	1	-1E+10	1	-1E+10	1	-1E+10	1	-1E+10	1	-1E+10	1
4902549	34	C	07/16/2021	10:02	-132.385	47.334	0	508.10	0	4.3650	0	34.0190	0	26.972	0	503.249	0	44.1	4	14.0	4	-1E+10	1	-1E+10	1	-1E+10	1	-1E+10	1	-1E+10	1	-1E+10	1
4902549	34	C	07/16/2021	10:02	-132.385	47.334	0	513.10	0	4.3550	0	34.0210	0	26.974	0	508.195	0	43.0	4	13.7	4	-1E+10	1	-1E+10	1	-1E+10	1	-1E+10	1	-1E+10	1	-1E+10	1
4902549	34	C	07/16/2021	10:02	-132.385	47.334	0	518.00	0	4.3360	0	34.0270	0	26.981	0	513.042	0	41.7	4	13.3	4	-1E+10	1	-1E+10	1	-1E+10	1	-1E+10	1	-1E+10	1	-1E+10	1
4902549	34	C	07/16/2021	10:02	-132.385	47.334	0	523.00	0	4.3230	0	34.0310	0	26.986	0	517.988	0	40.5	4	12.9	4	-1E+10	1	-1E+10	1	-1E+10	1	-1E+10	1	-1E+10	1	-1E+10	1
4902549	34	C	07/16/2021	10:02	-132.385	47.334	0	528.00	0	4.3070	0	34.0360	0	26.992	0	522.934	0	39.4	4	12.5	4	-1E+10	1	-1E+10	1	-1E+10	1	-1E+10	1	-1E+10	1	-1E+10	1
4902549	34	C	07/16/2021	10:02	-132.385	47.334	0	533.10	0	4.2950	0	34.0400	0	26.996	0	527.979	0	38.4	4	12.2	4	-1E+10	1	-1E+10	1	-1E+10	1	-1E+10	1	-1E+10	1	-1E+10	1
4902549	34	C	07/16/2021	10:02	-132.385	47.334	0	537.70	0	4.2840	0	34.0430	0	27.000	0	532.529	0	37.3	4	11.8	4	-1E+10	1	-1E+10	1	-1E+10	1	-1E+10	1	-1E+10	1	-1E+10	1
4902549	34	C	07/16/2021	10:02	-132.385	47.334	0	542.80	0	4.2620	0	34.0490	0	27.007	0	537.573	0	35.9	4	11.4	4	-1E+10	1	-1E+10	1	-1E+10	1	-1E+10	1	-1E+10	1	-1E+10	1
4902549	34	C	07/16/2021	10:02	-132.385	47.334	0	548.00	0	4.2370	0	34.0560	0	27.015	0	542.716	0	34.7	4	11.0	4	-1E+10	1	-1E+10	1	-1E+10	1	-1E+10	1	-1E+10	1	-1E+10	1
4902549	34	C	07/16/2021	10:02	-132.385	47.334	0	552.80	0	4.2210	0	34.0610	0	27.021	0	547.464	0	33.5	4	10.6	4	-1E+10	1	-1E+10	1	-1E+10	1	-1E+10	1	-1E+10	1	-1E+10	1
4902549	34	C	07/16/2021	10:02	-132.385	47.334	0	557.60	0	4.2080	0	34.0650	0	27.025	0	552.211	0	32.2	4	10.2	4	-1E+10	1	-1E+10	1	-1E+10	1	-1E+10	1	-1E+10	1	-1E+10	1
4902549	34	C	07/16/2021	10:02	-132.385	47.334	0	562.90	0	4.1920	0	34.0690	0	27.030	0	557.453	0	30.7	4	9.7	4	-1E+10	1	-1E+10	1	-1E+10	1	-1E+10	1	-1E+10	1	-1E+10	1
4902549	34	C	07/16/2021	10:02	-132.385	47.334	0	568.00	0	4.1740	0	34.0770	0	27.038	0	562.496	0	29.6	4	9.4	4	-1E+10	1	-1E+10	1	-1E+10	1	-1E+10	1	-1E+10	1	-1E+10	1
4902549	34	C	07/16/2021	10:02	-132.385	47.334	0	572.90	0	4.1650	0	34.0810	0	27.042	0	567.342	0	28.4	4	9.0	4	-1E+10	1	-1E+10	1	-1E+10	1	-1E+10	1	-1E+10	1	-1E+10	1
4902549	34	C	07/16/2021	10:02	-132.385	47.334	0	577.90	0	4.1510	0	34.0880	0	27.050	0	572.287	0	27.4	4	8.7	4	-1E+10	1	-1E+10	1	-1E+10	1	-1E+10	1	-1E+10	1	-1E+10	1
4902549	34	C	07/16/2021	10:02	-132.385	47.334	0	583.00	0	4.1390	0	34.0930	0	27.055	0	577.330	0	26.8	4	8.5	4	-1E+10	1	-1E+10	1	-1E+10	1	-1E+10	1	-1E+10	1	-1E+10	1
4902549	34	C	07/16/2021	10:02	-132.385	47.334	0	588.00	0	4.1290	0	34.0960	0	27.058	0	582.275	0	26.1	4	8.3	4	-1E+10	1	-1E+10	1	-1E+10	1	-1E+10	1	-1E+10	1	-1E+10	1
4902549	34	C	07/16/2021	10:02	-132.385	47.334	0	593.00	0	4.1140	0	34.1000	0	27.063	0	587.219	0	25.4	4	8.0	4	-1E+10	1	-1E+10	1	-1E+10	1	-1E+10	1	-1E+10	1	-1E+10	1
4902549	34	C	07/16/2021	10:02	-132.385	47.334	0	598.10	0	4.0980	0	34.1060	0	27.069	0	592.262	0	24.6	4	7.8	4	-1E+10	1	-1E+10	1	-1E+10	1	-1E+10	1	-1E+10	1	-1E+10	1
4902549	34	C	07/16/2021	10:02	-132.385	47.334	0	602.90	0	4.0800	0	34.1120	0	27.076	0	597.008	0	24.2	4	7.7	4	-1E+10	1	-1E+10	1	-1E+10	1	-1E+10	1	-1E+10	1	-1E+10	1
4902549	34	C	07/16/2021	10:02	-132.385	47.334	0	607.80	0	4.0650	0	34.1150	0	27.080	0	601.853	0	23.9	4	7.6	4	-1E+10	1	-1E+10	1	-1E+10	1	-1E+10	1	-1E+10	1	-1E+10	1
4902549	34	C	07/16/2021	10:02	-132.385	47.334	0	612.80	0	4.0500	0	34.1170	0	27.083	0	606.797	0	23.4	4	7.4	4	-1E+10	1	-1E+10	1	-1E+10	1	-1E+10	1	-1E+10	1	-1E+10	1
4902549	34	C	07/16/2021	10:02	-132.385	47.334	0	617.90	0	4.0470	0	34.1200	0	27.086	0	611.839	0	22.7	4	7.2	4	-1E+10	1	-1E+10	1	-1E+10	1	-1E+10	1	-1E+10	1	-1E+10	1
4902549	34	C	07/16/2021	10:02	-132.385	47.334	0	623.10	0	4.0470	0	34.1250	0	27.090	0	616.981	0	22.2	4	7.0	4	-1E+10	1	-1E+10	1	-1E+10	1	-1E+10	1	-1E+10	1	-1E+10	1
4902549	34	C	07/16/2021	10:02	-132.385	47.334	0	627.80	0	4.0270	0	34.1270	0	27.094	0	621.628	0	21.9	4	6.9	4	-1E+10	1	-1E+10	1	-1E+10	1	-1E+10	1	-1E+10	1	-1E+10	1
4902549	34	C	07/16/2021	10:02	-132.385	47.334	0	633.00	0	4.0130	0	34.1310	0	27.098	0	626.769	0	21.6	4	6.8	4	-1E+10	1	-1E+10	1	-1E+10	1	-1E+10	1	-1E+10	1	-1E+10	1
4902549	34	C	07/16/2021	10:02	-132.385	47.334	0	638.20	0	3.9920	0	34.1350	0	27.104	0	631.910	0	21.2	4	6.7	4	-1E+10	1	-1E+10	1	-1E+10	1	-1E+10	1	-1E+10	1	-1E+10	1
4902549	34	C	07/16/2021	10:02	-132.385	47.334	0	642.90	0	3.9880	0	34.1370	0	27.106	0	636.556	0	20.7	4	6.5	4	-1E+10	1	-1E+10	1	-1E+10	1	-1E+10	1	-1E+10	1	-1E+10	1
4902549	34	C	07/16/2021	10:02	-132.385	47.334	0	647.50	0	3.9850	0	34.1400	0	27.108	0	641.104	0	20.2	4	6.4	4	-1E+10	1	-1E+10	1	-1E+10	1	-1E+10	1	-1E+10	1	-1E+10	1
4902549	34	C	07/16/2021	10:02	-132.385	47.334	0	652.80	0	3.9760	0	34.1450	0	27.113	0	646.343	0	19.9	4	6.3	4	-1E+10	1	-1E+10	1	-1E+10	1	-1E+10	1	-1E+10	1	-1E+10	1
4902549	34	C	07/16/2021	10:02	-132.385	47.334	0	657.90	0	3.9650	0	34.1470	0	27.116	0	651.385	0	19.4	4	6.1	4	-1E+10	1	-1E+10	1	-1E+10	1	-1E+10	1	-1E+10	1	-1E+10	1
4902549	34	C	07/16/2021	10:02	-132.385	47.334	0	662.70	0	3.9520	0	34.1510	0	27.121	0	656.130	0	19.2	4	6.1	4	-1E+10	1	-1E+10	1	-1E+10	1	-1E+10	1	-1E+10	1	-1E+10	1
4902549	34	C	07/16/2021	10:02	-132.385	47.334	0	668.00	0	3.9460	0	34.1530	0	27.123	0	661.369	0	18.9	4	6.0	4	-1E+10	1	-1E+10	1	-1E+10	1	-1E+10	1	-1E+10	1	-1E+10	1
4902549	34	C	07/16/2021	10:02	-132.385	47.334	0	673.30	0	3.9330	0	34.1570	0	27.127	0	666.607	0	18.7	4	5.9	4	-1E+10	1	-1E+10	1	-1E+10	1	-1E+10	1	-1E+10	1	-1E+10	1
4902549	34	C	07/16/2021	10:02	-132.385	47.334	0	678.10	0	3.9200	0	34.1590	0	27.130	0	671.352	0	18.5	4	5.8	4	-1E+10	1	-1E+10	1	-1E+10	1	-1E+10	1	-1E+10	1	-1E+10	1
4902549	34	C	07/16/2021	10:02	-132.385	47.334	0	682.90	0	3.9060	0	34.1620	0	27.134	0	676.097	0	18.3	4	5.8	4	-1E+10	1	-1E+10	1	-1E+10	1	-1E+10	1	-1E+10	1	-1E+10	1
4902549	34	C	07/16/2021	10:02	-132.385	47.334	0	687.80	0	3.8940	0	34.1650	0	27.138	0	680.940	0	18.1	4	5.7	4	-1E+10	1	-1E+10	1	-1E+10	1	-1E+10	1	-1E+10	1	-1E+10	1
4902549	34	C	07/16/2021	10:02	-132.385	47.334	0	692.70	0	3.8840	0	34.1680	0	27.141	0	685.783	0	17.8	4	5.6	4	-1E+10	1	-1E+10	1	-1E+10	1	-1E+10	1	-1E+10	1	-1E+10	1
4902549	34	C	07/16/2021	10:02	-132.385	47.334	0	697.70	0	3.8690	0	34.1700	0	27.144	0	690.725	0	17.6	4	5.5	4	-1E+10	1	-1E+10	1	-1E+10	1	-1E+10	1	-1E+10	1	-1E+10	1
4902549	34	C	07/16/2021	10:02	-132.385	47.334	0	702.60	0	3.8590	0	34.1730	0	27.148	0	695.567	0	17.2	4	5.4	4	-1E+10	1	-1E+10	1	-1E+10	1	-1E+10	1	-1E+10	1	-1E+10	1
4902549	34	C	07/16/2021	10:02	-132.385	47.334	0	707.60	0	3.8440	0	34.1770	0	27.153	0	700.509	0	16.8	4	5.3	4	-1E+10	1	-1E+10	1	-1E+10	1	-1E+10	1	-1E+10	1	-1E+10	1
4902549	34	C	07/16/2021	10:02	-132.385	47.334	0	712.50	0	3.8240	0	34.1820	0	27.159	0	705.352	0	16.2	4	5.1	4	-1E+10	1	-1E+10	1	-1E+10	1	-1E+10	1	-1E+10	1	-1E+10	1
4902549	34	C	07/16/2021	10:02	-132.385	47.334	0	717.50	0	3.8120	0	34.1870	0	27.164	0	710.293	0	15.8	4	5.0	4	-1E+10	1	-1E+10	1	-1E+10	1	-1E+10	1	-1E+10	1	-1E+10	1
4902549	34	C	07/16/2021	10:02	-132.385	47.334	0	722.40	0	3.8010	0	34.1910	0	27.168	0	715.135	0	15.4	4	4.8	4	-1E+10	1	-1E+10	1	-1E+10	1	-1E+10	1	-1E+10	1	-1E+10	1
4902549	34	C	07/16/2021	10:02	-132.385	47.334	0	727.50	0	3.7880	0	34.1940	0	27.172	0	720.175	0	15.0	4	4.7	4	-1E+10	1	-1E+10	1	-1E+10	1	-1E+10	1	-1E+10	1	-1E+10	1
4902549	34	C	07/16/2021	10:02	-132.385	47.334	0	732.50	0	3.7780	0	34.1980	0	27.176	0	725.116	0	14.5	4	4.6	4	-1E+10	1	-1E+10	1	-1E+10	1	-1E+10	1	-1E+10	1	-1E+10	1
4902549	34	C	07/16/2021	10:02	-132.385	47.334	0	737.50	0	3.7760	0	34.2010	0	27.179	0	730.057	0	14.1	4	4.4	4	-1E+10	1	-1E+10	1	-1E+10	1	-1E+10	1	-1E+10	1	-1E+10	1
4902549	34	C	07/16/2021	10:02	-132.385	47.334	0	742.60	0	3.7600	0	34.2050	0	27.183	0	735.097	0	13.6	4	4.3	4	-1E+10	1	-1E+10	1	-1E+10	1	-1E+10	1	-1E+10	1	-1E+10	1
4902549	34	C	07/16/2021	10:02	-132.385	47.334	0	747.70	0	3.7430	0	34.2100	0	27.189	0	740.136	0	13.0	4	4.1	4	-1E+10	1	-1E+10	1	-1E+10	1	-1E+10	1	-1E+10	1	-1E+10	1
4902549	34	C	07/16/2021	10:02	-132.385	47.334	0	752.90	0	3.7380	0	34.2150	0	27.194	0	745.274	0	12.4	4	3.9	4	-1E+10	1	-1E+10	1	-1E+10	1	-1E+10	1	-1E+10	1	-1E+10	1
4902549	34	C	07/16/2021	10:02	-132.385	47.334	0	758.10	0	3.7280	0	34.2190	0	27.198	0	750.412	0	11.9	4	3.7	4	-1E+10	1	-1E+10	1	-1E+10	1	-1E+10	1	-1E+10	1	-1E+10	1
4902549	34	C	07/16/2021	10:02	-132.385	47.334	0	763.30	0	3.7150	0	34.2240	0	27.203	0	755.550	0	11.6	4	3.7	4	-1E+10	1	-1E+10	1	-1E+10	1	-1E+10	1	-1E+10	1	-1E+10	1
4902549	34	C	07/16/2021	10:02	-132.385	47.334	0	768.10	0	3.7100	0	34.2260	0	27.205	0	760.292	0	11.4	4	3.6	4	-1E+10	1	-1E+10	1	-1E+10	1	-1E+10	1	-1E+10	1	-1E+10	1
4902549	34	C	07/16/2021	10:02	-132.385	47.334	0	772.90	0	3.7040	0	34.2290	0	27.208	0	765.035	0	11.2	4	3.5	4	-1E+10	1	-1E+10	1	-1E+10	1	-1E+10	1	-1E+10	1	-1E+10	1
4902549	34	C	07/16/2021	10:02	-132.385	47.334	0	778.20	0	3.6920	0	34.2310	0	27.211	0	770.271	0	11.0	4	3.5	4	-1E+10	1	-1E+10	1	-1E+10	1	-1E+10	1	-1E+10	1	-1E+10	1
4902549	34	C	07/16/2021	10:02	-132.385	47.334	0	783.20	0	3.6840	0	34.2330	0	27.213	0	775.211	0	10.9	4	3.4	4	-1E+10	1	-1E+10	1	-1E+10	1	-1E+10	1	-1E+10	1	-1E+10	1
4902549	34	C	07/16/2021	10:02	-132.385	47.334	0	787.90	0	3.6730	0	34.2350	0	27.216	0	779.854	0	10.8	4	3.4	4	-1E+10	1	-1E+10	1	-1E+10	1	-1E+10	1	-1E+10	1	-1E+10	1
4902549	34	C	07/16/2021	10:02	-132.385	47.334	0	792.60	0	3.6610	0	34.2370	0	27.219	0	784.497	0	10.7	4	3.3	4	-1E+10	1	-1E+10	1	-1E+10	1	-1E+10	1	-1E+10	1	-1E+10	1
4902549	34	C	07/16/2021	10:02	-132.385	47.334	0	797.70	0	3.6440	0	34.2400	0	27.223	0	789.536	0	10.5	4	3.3	4	-1E+10	1	-1E+10	1	-1E+10	1	-1E+10	1	-1E+10	1	-1E+10	1
4902549	34	C	07/16/2021	10:02	-132.385	47.334	0	802.90	0	3.6300	0	34.2430	0	27.227	0	794.673	0	10.4	4	3.3	4	-1E+10	1	-1E+10	1	-1E+10	1	-1E+10	1	-1E+10	1	-1E+10	1
4902549	34	C	07/16/2021	10:02	-132.385	47.334	0	808.10	0	3.6130	0	34.2450	0	27.230	0	799.809	0	10.3	4	3.2	4	-1E+10	1	-1E+10	1	-1E+10	1	-1E+10	1	-1E+10	1	-1E+10	1
4902549	34	C	07/16/2021	10:02	-132.385	47.334	0	813.00	0	3.6030	0	34.2470	0	27.233	0	804.650	0	10.3	4	3.2	4	-1E+10	1	-1E+10	1	-1E+10	1	-1E+10	1	-1E+10	1	-1E+10	1
4902549	34	C	07/16/2021	10:02	-132.385	47.334	0	817.80	0	3.5890	0	34.2500	0	27.237	0	809.391	0	10.2	4	3.2	4	-1E+10	1	-1E+10	1	-1E+10	1	-1E+10	1	-1E+10	1	-1E+10	1
4902549	34	C	07/16/2021	10:02	-132.385	47.334	0	823.00	0	3.5700	0	34.2540	0	27.242	0	814.527	0	10.3	4	3.2	4	-1E+10	1	-1E+10	1	-1E+10	1	-1E+10	1	-1E+10	1	-1E+10	1
4902549	34	C	07/16/2021	10:02	-132.385	47.334	0	827.90	0	3.5560	0	34.2560	0	27.245	0	819.367	0	10.2	4	3.2	4	-1E+10	1	-1E+10	1	-1E+10	1	-1E+10	1	-1E+10	1	-1E+10	1
4902549	34	C	07/16/2021	10:02	-132.385	47.334	0	832.80	0	3.5460	0	34.2580	0	27.247	0	824.207	0	10.1	4	3.2	4	-1E+10	1	-1E+10	1	-1E+10	1	-1E+10	1	-1E+10	1	-1E+10	1
4902549	34	C	07/16/2021	10:02	-132.385	47.334	0	838.10	0	3.5350	0	34.2610	0	27.251	0	829.442	0	10.1	4	3.1	4	-1E+10	1	-1E+10	1	-1E+10	1	-1E+10	1	-1E+10	1	-1E+10	1
4902549	34	C	07/16/2021	10:02	-132.385	47.334	0	843.10	0	3.5270	0	34.2630	0	27.253	0	834.380	0	10.0	4	3.1	4	-1E+10	1	-1E+10	1	-1E+10	1	-1E+10	1	-1E+10	1	-1E+10	1
4902549	34	C	07/16/2021	10:02	-132.385	47.334	0	848.00	0	3.5160	0	34.2660	0	27.257	0	839.220	0	9.9	4	3.1	4	-1E+10	1	-1E+10	1	-1E+10	1	-1E+10	1	-1E+10	1	-1E+10	1
4902549	34	C	07/16/2021	10:02	-132.385	47.334	0	852.90	0	3.5040	0	34.2690	0	27.260	0	844.059	0	9.7	4	3.0	4	-1E+10	1	-1E+10	1	-1E+10	1	-1E+10	1	-1E+10	1	-1E+10	1
4902549	34	C	07/16/2021	10:02	-132.385	47.334	0	857.80	0	3.4880	0	34.2730	0	27.265	0	848.898	0	9.5	4	3.0	4	-1E+10	1	-1E+10	1	-1E+10	1	-1E+10	1	-1E+10	1	-1E+10	1
4902549	34	C	07/16/2021	10:02	-132.385	47.334	0	862.80	0	3.4810	0	34.2770	0	27.269	0	853.836	0	9.3	4	2.9	4	-1E+10	1	-1E+10	1	-1E+10	1	-1E+10	1	-1E+10	1	-1E+10	1
4902549	34	C	07/16/2021	10:02	-132.385	47.334	0	867.70	0	3.4750	0	34.2800	0	27.272	0	858.675	0	9.0	4	2.8	4	-1E+10	1	-1E+10	1	-1E+10	1	-1E+10	1	-1E+10	1	-1E+10	1
4902549	34	C	07/16/2021	10:02	-132.385	47.334	0	872.70	0	3.4710	0	34.2830	0	27.275	0	863.613	0	8.8	4	2.8	4	-1E+10	1	-1E+10	1	-1E+10	1	-1E+10	1	-1E+10	1	-1E+10	1
4902549	34	C	07/16/2021	10:02	-132.385	47.334	0	877.80	0	3.4650	0	34.2860	0	27.278	0	868.649	0	8.6	4	2.7	4	-1E+10	1	-1E+10	1	-1E+10	1	-1E+10	1	-1E+10	1	-1E+10	1
4902549	34	C	07/16/2021	10:02	-132.385	47.334	0	882.90	0	3.4500	0	34.2900	0	27.282	0	873.686	0	8.5	4	2.6	4	-1E+10	1	-1E+10	1	-1E+10	1	-1E+10	1	-1E+10	1	-1E+10	1
4902549	34	C	07/16/2021	10:02	-132.385	47.334	0	888.00	0	3.4450	0	34.2940	0	27.286	0	878.722	0	8.3	4	2.6	4	-1E+10	1	-1E+10	1	-1E+10	1	-1E+10	1	-1E+10	1	-1E+10	1
4902549	34	C	07/16/2021	10:02	-132.385	47.334	0	893.20	0	3.4370	0	34.2960	0	27.288	0	883.856	0	8.1	4	2.5	4	-1E+10	1	-1E+10	1	-1E+10	1	-1E+10	1	-1E+10	1	-1E+10	1
4902549	34	C	07/16/2021	10:02	-132.385	47.334	0	897.90	0	3.4300	0	34.2990	0	27.291	0	888.497	0	8.0	4	2.5	4	-1E+10	1	-1E+10	1	-1E+10	1	-1E+10	1	-1E+10	1	-1E+10	1
4902549	34	C	07/16/2021	10:02	-132.385	47.334	0	902.60	0	3.4250	0	34.3010	0	27.293	0	893.138	0	7.9	4	2.5	4	-1E+10	1	-1E+10	1	-1E+10	1	-1E+10	1	-1E+10	1	-1E+10	1
4902549	34	C	07/16/2021	10:02	-132.385	47.334	0	907.90	0	3.4150	0	34.3030	0	27.296	0	898.371	0	7.8	4	2.4	4	-1E+10	1	-1E+10	1	-1E+10	1	-1E+10	1	-1E+10	1	-1E+10	1
4902549	34	C	07/16/2021	10:02	-132.385	47.334	0	913.10	0	3.4090	0	34.3050	0	27.298	0	903.505	0	7.7	4	2.4	4	-1E+10	1	-1E+10	1	-1E+10	1	-1E+10	1	-1E+10	1	-1E+10	1
4902549	34	C	07/16/2021	10:02	-132.385	47.334	0	917.80	0	3.4050	0	34.3060	0	27.299	0	908.146	0	7.5	4	2.3	4	-1E+10	1	-1E+10	1	-1E+10	1	-1E+10	1	-1E+10	1	-1E+10	1
4902549	34	C	07/16/2021	10:02	-132.385	47.334	0	922.60	0	3.4040	0	34.3100	0	27.303	0	912.885	0	7.5	4	2.3	4	-1E+10	1	-1E+10	1	-1E+10	1	-1E+10	1	-1E+10	1	-1E+10	1
4902549	34	C	07/16/2021	10:02	-132.385	47.334	0	927.90	0	3.3830	0	34.3130	0	27.307	0	918.117	0	7.6	4	2.4	4	-1E+10	1	-1E+10	1	-1E+10	1	-1E+10	1	-1E+10	1	-1E+10	1
4902549	34	C	07/16/2021	10:02	-132.385	47.334	0	932.90	0	3.3600	0	34.3150	0	27.311	0	923.054	0	7.6	4	2.4	4	-1E+10	1	-1E+10	1	-1E+10	1	-1E+10	1	-1E+10	1	-1E+10	1
4902549	34	C	07/16/2021	10:02	-132.385	47.334	0	937.50	0	3.3480	0	34.3170	0	27.314	0	927.595	0	7.6	4	2.4	4	-1E+10	1	-1E+10	1	-1E+10	1	-1E+10	1	-1E+10	1	-1E+10	1
4902549	34	C	07/16/2021	10:02	-132.385	47.334	0	942.50	0	3.3380	0	34.3180	0	27.316	0	932.531	0	7.5	4	2.3	4	-1E+10	1	-1E+10	1	-1E+10	1	-1E+10	1	-1E+10	1	-1E+10	1
4902549	34	C	07/16/2021	10:02	-132.385	47.334	0	947.50	0	3.3290	0	34.3210	0	27.319	0	937.467	0	7.3	4	2.3	4	-1E+10	1	-1E+10	1	-1E+10	1	-1E+10	1	-1E+10	1	-1E+10	1
4902549	34	C	07/16/2021	10:02	-132.385	47.334	0	952.60	0	3.3170	0	34.3250	0	27.323	0	942.501	0	7.2	4	2.3	4	-1E+10	1	-1E+10	1	-1E+10	1	-1E+10	1	-1E+10	1	-1E+10	1
4902549	34	C	07/16/2021	10:02	-132.385	47.334	0	957.60	0	3.3100	0	34.3280	0	27.326	0	947.437	0	7.2	4	2.2	4	-1E+10	1	-1E+10	1	-1E+10	1	-1E+10	1	-1E+10	1	-1E+10	1
4902549	34	C	07/16/2021	10:02	-132.385	47.334	0	962.60	0	3.3010	0	34.3300	0	27.329	0	952.373	0	7.2	4	2.2	4	-1E+10	1	-1E+10	1	-1E+10	1	-1E+10	1	-1E+10	1	-1E+10	1
4902549	34	C	07/16/2021	10:02	-132.385	47.334	0	967.60	0	3.2760	0	34.3340	0	27.334	0	957.308	0	7.3	4	2.3	4	-1E+10	1	-1E+10	1	-1E+10	1	-1E+10	1	-1E+10	1	-1E+10	1
4902549	34	C	07/16/2021	10:02	-132.385	47.334	0	972.70	0	3.2540	0	34.3370	0	27.339	0	962.342	0	7.3	4	2.3	4	-1E+10	1	-1E+10	1	-1E+10	1	-1E+10	1	-1E+10	1	-1E+10	1
4902549	34	C	07/16/2021	10:02	-132.385	47.334	0	977.80	0	3.2410	0	34.3390	0	27.342	0	967.376	0	7.3	4	2.3	4	-1E+10	1	-1E+10	1	-1E+10	1	-1E+10	1	-1E+10	1	-1E+10	1
4902549	34	C	07/16/2021	10:02	-132.385	47.334	0	983.00	0	3.2320	0	34.3390	0	27.342	0	972.508	0	7.3	4	2.3	4	-1E+10	1	-1E+10	1	-1E+10	1	-1E+10	1	-1E+10	1	-1E+10	1
4902549	34	C	07/16/2021	10:02	-132.385	47.334	0	988.20	0	3.2160	0	34.3440	0	27.348	0	977.641	0	7.2	4	2.2	4	-1E+10	1	-1E+10	1	-1E+10	1	-1E+10	1	-1E+10	1	-1E+10	1
4902549	34	C	07/16/2021	10:02	-132.385	47.334	0	992.90	0	3.2080	0	34.3470	0	27.351	0	982.280	0	7.2	4	2.2	4	-1E+10	1	-1E+10	1	-1E+10	1	-1E+10	1	-1E+10	1	-1E+10	1
4902549	34	C	07/16/2021	10:02	-132.385	47.334	0	997.60	0	3.1980	0	34.3470	0	27.352	0	986.918	0	7.3	4	2.3	4	-1E+10	1	-1E+10	1	-1E+10	1	-1E+10	1	-1E+10	1	-1E+10	1
4902549	34	C	07/16/2021	10:02	-132.385	47.334	0	1005.60	0	3.1860	0	34.3490	0	27.355	0	994.814	0	7.2	4	2.2	4	-1E+10	1	-1E+10	1	-1E+10	1	-1E+10	1	-1E+10	1	-1E+10	1
4902549	34	C	07/16/2021	10:02	-132.385	47.334	0	1015.60	0	3.1750	0	34.3520	0	27.358	0	1004.682	0	7.3	4	2.3	4	-1E+10	1	-1E+10	1	-1E+10	1	-1E+10	1	-1E+10	1	-1E+10	1
4902549	34	C	07/16/2021	10:02	-132.385	47.334	0	1025.30	0	3.1520	0	34.3550	0	27.363	0	1014.255	0	7.4	4	2.3	4	-1E+10	1	-1E+10	1	-1E+10	1	-1E+10	1	-1E+10	1	-1E+10	1
4902549	34	C	07/16/2021	10:02	-132.385	47.334	0	1035.10	0	3.1350	0	34.3570	0	27.366	0	1023.925	0	7.5	4	2.3	4	-1E+10	1	-1E+10	1	-1E+10	1	-1E+10	1	-1E+10	1	-1E+10	1
4902549	34	C	07/16/2021	10:02	-132.385	47.334	0	1045.10	0	3.1070	0	34.3620	0	27.373	0	1033.793	0	7.5	4	2.3	4	-1E+10	1	-1E+10	1	-1E+10	1	-1E+10	1	-1E+10	1	-1E+10	1
4902549	34	C	07/16/2021	10:02	-132.385	47.334	0	1055.40	0	3.0910	0	34.3660	0	27.377	0	1043.956	0	7.5	4	2.3	4	-1E+10	1	-1E+10	1	-1E+10	1	-1E+10	1	-1E+10	1	-1E+10	1
4902549	34	C	07/16/2021	10:02	-132.385	47.334	0	1065.50	0	3.0780	0	34.3700	0	27.382	0	1053.921	0	7.5	4	2.3	4	-1E+10	1	-1E+10	1	-1E+10	1	-1E+10	1	-1E+10	1	-1E+10	1
4902549	34	C	07/16/2021	10:02	-132.385	47.334	0	1075.50	0	3.0680	0	34.3730	0	27.385	0	1063.787	0	7.5	4	2.3	4	-1E+10	1	-1E+10	1	-1E+10	1	-1E+10	1	-1E+10	1	-1E+10	1
4902549	34	C	07/16/2021	10:02	-132.385	47.334	0	1085.30	0	3.0560	0	34.3760	0	27.389	0	1073.455	0	7.4	4	2.3	4	-1E+10	1	-1E+10	1	-1E+10	1	-1E+10	1	-1E+10	1	-1E+10	1
4902549	34	C	07/16/2021	10:02	-132.385	47.334	0	1095.40	0	3.0440	0	34.3810	0	27.394	0	1083.419	0	7.4	4	2.3	4	-1E+10	1	-1E+10	1	-1E+10	1	-1E+10	1	-1E+10	1	-1E+10	1
4902549	34	C	07/16/2021	10:02	-132.385	47.334	0	1105.60	0	3.0380	0	34.3870	0	27.399	0	1093.480	0	7.3	4	2.3	4	-1E+10	1	-1E+10	1	-1E+10	1	-1E+10	1	-1E+10	1	-1E+10	1
4902549	34	C	07/16/2021	10:02	-132.385	47.334	0	1115.50	0	3.0260	0	34.3910	0	27.404	0	1103.246	0	7.3	4	2.3	4	-1E+10	1	-1E+10	1	-1E+10	1	-1E+10	1	-1E+10	1	-1E+10	1
4902549	34	C	07/16/2021	10:02	-132.385	47.334	0	1125.50	0	3.0090	0	34.3980	0	27.411	0	1113.110	0	7.4	4	2.3	4	-1E+10	1	-1E+10	1	-1E+10	1	-1E+10	1	-1E+10	1	-1E+10	1
4902549	34	C	07/16/2021	10:02	-132.385	47.334	0	1135.60	0	2.9940	0	34.4000	0	27.414	0	1123.071	0	7.5	4	2.3	4	-1E+10	1	-1E+10	1	-1E+10	1	-1E+10	1	-1E+10	1	-1E+10	1
4902549	34	C	07/16/2021	10:02	-132.385	47.334	0	1145.40	0	2.9810	0	34.4020	0	27.417	0	1132.737	0	7.6	4	2.3	4	-1E+10	1	-1E+10	1	-1E+10	1	-1E+10	1	-1E+10	1	-1E+10	1
4902549	34	C	07/16/2021	10:02	-132.385	47.334	0	1155.50	0	2.9600	0	34.4040	0	27.420	0	1142.698	0	7.6	4	2.4	4	-1E+10	1	-1E+10	1	-1E+10	1	-1E+10	1	-1E+10	1	-1E+10	1
4902549	34	C	07/16/2021	10:02	-132.385	47.334	0	1165.60	0	2.9440	0	34.4070	0	27.424	0	1152.658	0	7.7	4	2.4	4	-1E+10	1	-1E+10	1	-1E+10	1	-1E+10	1	-1E+10	1	-1E+10	1
4902549	34	C	07/16/2021	10:02	-132.385	47.334	0	1175.70	0	2.9390	0	34.4100	0	27.427	0	1162.618	0	7.8	4	2.4	4	-1E+10	1	-1E+10	1	-1E+10	1	-1E+10	1	-1E+10	1	-1E+10	1
4902549	34	C	07/16/2021	10:02	-132.385	47.334	0	1185.70	0	2.9250	0	34.4130	0	27.431	0	1172.479	0	7.9	4	2.4	4	-1E+10	1	-1E+10	1	-1E+10	1	-1E+10	1	-1E+10	1	-1E+10	1
4902549	34	C	07/16/2021	10:02	-132.385	47.334	0	1195.60	0	2.9050	0	34.4150	0	27.434	0	1182.241	0	8.1	4	2.5	4	-1E+10	1	-1E+10	1	-1E+10	1	-1E+10	1	-1E+10	1	-1E+10	1
4902549	34	C	07/16/2021	10:02	-132.385	47.334	0	1205.50	0	2.8810	0	34.4190	0	27.439	0	1192.002	0	8.2	4	2.5	4	-1E+10	1	-1E+10	1	-1E+10	1	-1E+10	1	-1E+10	1	-1E+10	1
4902549	34	C	07/16/2021	10:02	-132.385	47.334	0	1215.30	0	2.8640	0	34.4220	0	27.443	0	1201.664	0	8.4	4	2.6	4	-1E+10	1	-1E+10	1	-1E+10	1	-1E+10	1	-1E+10	1	-1E+10	1
4902549	34	C	07/16/2021	10:02	-132.385	47.334	0	1225.20	0	2.8530	0	34.4250	0	27.447	0	1211.425	0	8.7	4	2.7	4	-1E+10	1	-1E+10	1	-1E+10	1	-1E+10	1	-1E+10	1	-1E+10	1
4902549	34	C	07/16/2021	10:02	-132.385	47.334	0	1235.30	0	2.8310	0	34.4300	0	27.453	0	1221.382	0	9.0	4	2.8	4	-1E+10	1	-1E+10	1	-1E+10	1	-1E+10	1	-1E+10	1	-1E+10	1
4902549	34	C	07/16/2021	10:02	-132.385	47.334	0	1245.10	0	2.8070	0	34.4340	0	27.458	0	1231.043	0	9.2	4	2.8	4	-1E+10	1	-1E+10	1	-1E+10	1	-1E+10	1	-1E+10	1	-1E+10	1
4902549	34	C	07/16/2021	10:02	-132.385	47.334	0	1255.40	0	2.7950	0	34.4360	0	27.461	0	1241.196	0	9.4	4	2.9	4	-1E+10	1	-1E+10	1	-1E+10	1	-1E+10	1	-1E+10	1	-1E+10	1
4902549	34	C	07/16/2021	10:02	-132.385	47.334	0	1265.80	0	2.7820	0	34.4380	0	27.464	0	1251.448	0	9.5	4	2.9	4	-1E+10	1	-1E+10	1	-1E+10	1	-1E+10	1	-1E+10	1	-1E+10	1
4902549	34	C	07/16/2021	10:02	-132.385	47.334	0	1275.70	0	2.7620	0	34.4410	0	27.468	0	1261.206	0	9.6	4	3.0	4	-1E+10	1	-1E+10	1	-1E+10	1	-1E+10	1	-1E+10	1	-1E+10	1
4902549	34	C	07/16/2021	10:02	-132.385	47.334	0	1285.60	0	2.7460	0	34.4430	0	27.471	0	1270.963	0	9.8	4	3.0	4	-1E+10	1	-1E+10	1	-1E+10	1	-1E+10	1	-1E+10	1	-1E+10	1
4902549	34	C	07/16/2021	10:02	-132.385	47.334	0	1295.60	0	2.7330	0	34.4450	0	27.474	0	1280.819	0	10.0	4	3.1	4	-1E+10	1	-1E+10	1	-1E+10	1	-1E+10	1	-1E+10	1	-1E+10	1
4902549	34	C	07/16/2021	10:02	-132.385	47.334	0	1305.20	0	2.7120	0	34.4470	0	27.477	0	1290.280	0	10.2	4	3.1	4	-1E+10	1	-1E+10	1	-1E+10	1	-1E+10	1	-1E+10	1	-1E+10	1
4902549	34	C	07/16/2021	10:02	-132.385	47.334	0	1315.10	0	2.6990	0	34.4490	0	27.480	0	1300.037	0	10.4	4	3.2	4	-1E+10	1	-1E+10	1	-1E+10	1	-1E+10	1	-1E+10	1	-1E+10	1
4902549	34	C	07/16/2021	10:02	-132.385	47.334	0	1325.30	0	2.6860	0	34.4520	0	27.484	0	1310.088	0	10.9	4	3.3	4	-1E+10	1	-1E+10	1	-1E+10	1	-1E+10	1	-1E+10	1	-1E+10	1
4902549	34	C	07/16/2021	10:02	-132.385	47.334	0	1335.60	0	2.6660	0	34.4550	0	27.488	0	1320.238	0	11.1	4	3.4	4	-1E+10	1	-1E+10	1	-1E+10	1	-1E+10	1	-1E+10	1	-1E+10	1
4902549	34	C	07/16/2021	10:02	-132.385	47.334	0	1345.60	0	2.6440	0	34.4570	0	27.491	0	1330.091	0	11.1	4	3.4	4	-1E+10	1	-1E+10	1	-1E+10	1	-1E+10	1	-1E+10	1	-1E+10	1
4902549	34	C	07/16/2021	10:02	-132.385	47.334	0	1355.40	0	2.6270	0	34.4590	0	27.494	0	1339.747	0	11.3	4	3.5	4	-1E+10	1	-1E+10	1	-1E+10	1	-1E+10	1	-1E+10	1	-1E+10	1
4902549	34	C	07/16/2021	10:02	-132.385	47.334	0	1365.40	0	2.6130	0	34.4620	0	27.498	0	1349.600	0	11.9	4	3.7	4	-1E+10	1	-1E+10	1	-1E+10	1	-1E+10	1	-1E+10	1	-1E+10	1
4902549	34	C	07/16/2021	10:02	-132.385	47.334	0	1375.60	0	2.5950	0	34.4650	0	27.502	0	1359.649	0	12.4	4	3.8	4	-1E+10	1	-1E+10	1	-1E+10	1	-1E+10	1	-1E+10	1	-1E+10	1
4902549	34	C	07/16/2021	10:02	-132.385	47.334	0	1385.40	0	2.5860	0	34.4690	0	27.506	0	1369.303	0	12.9	4	3.9	4	-1E+10	1	-1E+10	1	-1E+10	1	-1E+10	1	-1E+10	1	-1E+10	1
4902549	34	C	07/16/2021	10:02	-132.385	47.334	0	1395.50	0	2.5790	0	34.4700	0	27.507	0	1379.253	0	13.1	4	4.0	4	-1E+10	1	-1E+10	1	-1E+10	1	-1E+10	1	-1E+10	1	-1E+10	1
4902549	34	C	07/16/2021	10:02	-132.385	47.334	0	1405.30	0	2.5700	0	34.4720	0	27.510	0	1388.907	0	13.3	4	4.1	4	-1E+10	1	-1E+10	1	-1E+10	1	-1E+10	1	-1E+10	1	-1E+10	1
4902549	34	C	07/16/2021	10:02	-132.385	47.334	0	1415.30	0	2.5530	0	34.4740	0	27.513	0	1398.757	0	13.9	4	4.2	4	-1E+10	1	-1E+10	1	-1E+10	1	-1E+10	1	-1E+10	1	-1E+10	1
4902549	34	C	07/16/2021	10:02	-132.385	47.334	0	1425.60	0	2.5440	0	34.4780	0	27.517	0	1408.902	0	14.2	4	4.3	4	-1E+10	1	-1E+10	1	-1E+10	1	-1E+10	1	-1E+10	1	-1E+10	1
4902549	34	C	07/16/2021	10:02	-132.385	47.334	0	1435.30	0	2.5290	0	34.4790	0	27.519	0	1418.456	0	14.2	4	4.3	4	-1E+10	1	-1E+10	1	-1E+10	1	-1E+10	1	-1E+10	1	-1E+10	1
4902549	34	C	07/16/2021	10:02	-132.385	47.334	0	1445.50	0	2.5130	0	34.4800	0	27.521	0	1428.502	0	14.4	4	4.4	4	-1E+10	1	-1E+10	1	-1E+10	1	-1E+10	1	-1E+10	1	-1E+10	1
4902549	34	C	07/16/2021	10:02	-132.385	47.334	0	1455.70	0	2.4950	0	34.4830	0	27.525	0	1438.547	0	15.2	4	4.6	4	-1E+10	1	-1E+10	1	-1E+10	1	-1E+10	1	-1E+10	1	-1E+10	1
4902549	34	C	07/16/2021	10:02	-132.385	47.334	0	1465.30	0	2.4710	0	34.4870	0	27.531	0	1448.001	0	15.5	4	4.7	4	-1E+10	1	-1E+10	1	-1E+10	1	-1E+10	1	-1E+10	1	-1E+10	1
4902549	34	C	07/16/2021	10:02	-132.385	47.334	0	1475.20	0	2.4510	0	34.4890	0	27.534	0	1457.750	0	15.9	4	4.8	4	-1E+10	1	-1E+10	1	-1E+10	1	-1E+10	1	-1E+10	1	-1E+10	1
4902549	34	C	07/16/2021	10:02	-132.385	47.334	0	1485.20	0	2.4370	0	34.4910	0	27.537	0	1467.597	0	16.4	4	5.0	4	-1E+10	1	-1E+10	1	-1E+10	1	-1E+10	1	-1E+10	1	-1E+10	1
4902549	34	C	07/16/2021	10:02	-132.385	47.334	0	1495.40	0	2.4220	0	34.4940	0	27.540	0	1477.640	0	16.9	4	5.2	4	-1E+10	1	-1E+10	1	-1E+10	1	-1E+10	1	-1E+10	1	-1E+10	1
4902549	34	C	07/16/2021	10:02	-132.385	47.334	0	1505.50	0	2.4100	0	34.4960	0	27.543	0	1487.585	0	17.5	4	5.3	4	-1E+10	1	-1E+10	1	-1E+10	1	-1E+10	1	-1E+10	1	-1E+10	1
4902549	34	C	07/16/2021	10:02	-132.385	47.334	0	1515.50	0	2.3950	0	34.4980	0	27.546	0	1497.430	0	18.0	4	5.5	4	-1E+10	1	-1E+10	1	-1E+10	1	-1E+10	1	-1E+10	1	-1E+10	1
4902549	34	C	07/16/2021	10:02	-132.385	47.334	0	1525.10	0	2.3780	0	34.5010	0	27.550	0	1506.882	0	18.6	4	5.7	4	-1E+10	1	-1E+10	1	-1E+10	1	-1E+10	1	-1E+10	1	-1E+10	1
4902549	34	C	07/16/2021	10:02	-132.385	47.334	0	1535.40	0	2.3690	0	34.5030	0	27.552	0	1517.022	0	19.1	4	5.8	4	-1E+10	1	-1E+10	1	-1E+10	1	-1E+10	1	-1E+10	1	-1E+10	1
4902549	34	C	07/16/2021	10:02	-132.385	47.334	0	1545.40	0	2.3570	0	34.5050	0	27.555	0	1526.866	0	19.6	4	6.0	4	-1E+10	1	-1E+10	1	-1E+10	1	-1E+10	1	-1E+10	1	-1E+10	1
4902549	34	C	07/16/2021	10:02	-132.385	47.334	0	1555.10	0	2.3450	0	34.5070	0	27.557	0	1536.414	0	20.2	4	6.1	4	-1E+10	1	-1E+10	1	-1E+10	1	-1E+10	1	-1E+10	1	-1E+10	1
4902549	34	C	07/16/2021	10:02	-132.385	47.334	0	1565.50	0	2.3340	0	34.5090	0	27.560	0	1546.652	0	20.7	4	6.3	4	-1E+10	1	-1E+10	1	-1E+10	1	-1E+10	1	-1E+10	1	-1E+10	1
4902549	34	C	07/16/2021	10:02	-132.385	47.334	0	1575.50	0	2.3250	0	34.5110	0	27.562	0	1556.494	0	21.1	4	6.4	4	-1E+10	1	-1E+10	1	-1E+10	1	-1E+10	1	-1E+10	1	-1E+10	1
4902549	34	C	07/16/2021	10:02	-132.385	47.334	0	1585.40	0	2.3170	0	34.5130	0	27.565	0	1566.238	0	21.5	4	6.5	4	-1E+10	1	-1E+10	1	-1E+10	1	-1E+10	1	-1E+10	1	-1E+10	1
4902549	34	C	07/16/2021	10:02	-132.385	47.334	0	1595.20	0	2.3090	0	34.5140	0	27.566	0	1575.883	0	22.1	4	6.7	4	-1E+10	1	-1E+10	1	-1E+10	1	-1E+10	1	-1E+10	1	-1E+10	1
4902549	34	C	07/16/2021	10:02	-132.385	47.334	0	1605.50	0	2.2930	0	34.5160	0	27.569	0	1586.020	0	22.8	4	6.9	4	-1E+10	1	-1E+10	1	-1E+10	1	-1E+10	1	-1E+10	1	-1E+10	1
4902549	34	C	07/16/2021	10:02	-132.385	47.334	0	1615.60	0	2.2860	0	34.5180	0	27.571	0	1595.960	0	23.3	4	7.1	4	-1E+10	1	-1E+10	1	-1E+10	1	-1E+10	1	-1E+10	1	-1E+10	1
4902549	34	C	07/16/2021	10:02	-132.385	47.334	0	1625.40	0	2.2760	0	34.5190	0	27.573	0	1605.603	0	24.0	4	7.3	4	-1E+10	1	-1E+10	1	-1E+10	1	-1E+10	1	-1E+10	1	-1E+10	1
4902549	34	C	07/16/2021	10:02	-132.385	47.334	0	1635.40	0	2.2630	0	34.5220	0	27.577	0	1615.443	0	24.7	4	7.5	4	-1E+10	1	-1E+10	1	-1E+10	1	-1E+10	1	-1E+10	1	-1E+10	1
4902549	34	C	07/16/2021	10:02	-132.385	47.334	0	1645.50	0	2.2520	0	34.5240	0	27.579	0	1625.381	0	25.2	4	7.7	4	-1E+10	1	-1E+10	1	-1E+10	1	-1E+10	1	-1E+10	1	-1E+10	1
4902549	34	C	07/16/2021	10:02	-132.385	47.334	0	1655.60	0	2.2440	0	34.5250	0	27.581	0	1635.319	0	25.8	4	7.8	4	-1E+10	1	-1E+10	1	-1E+10	1	-1E+10	1	-1E+10	1	-1E+10	1
4902549	34	C	07/16/2021	10:02	-132.385	47.334	0	1665.60	0	2.2330	0	34.5270	0	27.583	0	1645.158	0	26.6	4	8.1	4	-1E+10	1	-1E+10	1	-1E+10	1	-1E+10	1	-1E+10	1	-1E+10	1
4902549	34	C	07/16/2021	10:02	-132.385	47.334	0	1675.50	0	2.2220	0	34.5290	0	27.586	0	1654.898	0	27.3	4	8.3	4	-1E+10	1	-1E+10	1	-1E+10	1	-1E+10	1	-1E+10	1	-1E+10	1
4902549	34	C	07/16/2021	10:02	-132.385	47.334	0	1685.70	0	2.2130	0	34.5310	0	27.588	0	1664.932	0	28.2	4	8.6	4	-1E+10	1	-1E+10	1	-1E+10	1	-1E+10	1	-1E+10	1	-1E+10	1
4902549	34	C	07/16/2021	10:02	-132.385	47.334	0	1695.60	0	2.2030	0	34.5330	0	27.590	0	1674.671	0	29.1	4	8.8	4	-1E+10	1	-1E+10	1	-1E+10	1	-1E+10	1	-1E+10	1	-1E+10	1
4902549	34	C	07/16/2021	10:02	-132.385	47.334	0	1705.50	0	2.1970	0	34.5360	0	27.593	0	1684.410	0	29.8	4	9.0	4	-1E+10	1	-1E+10	1	-1E+10	1	-1E+10	1	-1E+10	1	-1E+10	1
4902549	34	C	07/16/2021	10:02	-132.385	47.334	0	1715.70	0	2.1900	0	34.5370	0	27.595	0	1694.443	0	30.4	4	9.2	4	-1E+10	1	-1E+10	1	-1E+10	1	-1E+10	1	-1E+10	1	-1E+10	1
4902549	34	C	07/16/2021	10:02	-132.385	47.334	0	1725.50	0	2.1810	0	34.5390	0	27.597	0	1704.082	0	31.2	4	9.4	4	-1E+10	1	-1E+10	1	-1E+10	1	-1E+10	1	-1E+10	1	-1E+10	1
4902549	34	C	07/16/2021	10:02	-132.385	47.334	0	1735.40	0	2.1650	0	34.5420	0	27.601	0	1713.819	0	32.0	4	9.7	4	-1E+10	1	-1E+10	1	-1E+10	1	-1E+10	1	-1E+10	1	-1E+10	1
4902549	34	C	07/16/2021	10:02	-132.385	47.334	0	1745.40	0	2.1550	0	34.5430	0	27.603	0	1723.654	0	32.5	4	9.8	4	-1E+10	1	-1E+10	1	-1E+10	1	-1E+10	1	-1E+10	1	-1E+10	1
4902549	34	C	07/16/2021	10:02	-132.385	47.334	0	1755.60	0	2.1460	0	34.5450	0	27.605	0	1733.685	0	33.2	4	10.1	4	-1E+10	1	-1E+10	1	-1E+10	1	-1E+10	1	-1E+10	1	-1E+10	1
4902549	34	C	07/16/2021	10:02	-132.385	47.334	0	1765.40	0	2.1380	0	34.5470	0	27.607	0	1743.323	0	33.9	4	10.3	4	-1E+10	1	-1E+10	1	-1E+10	1	-1E+10	1	-1E+10	1	-1E+10	1
4902549	34	C	07/16/2021	10:02	-132.385	47.334	0	1775.30	0	2.1290	0	34.5490	0	27.610	0	1753.058	0	34.5	4	10.4	4	-1E+10	1	-1E+10	1	-1E+10	1	-1E+10	1	-1E+10	1	-1E+10	1
4902549	34	C	07/16/2021	10:02	-132.385	47.334	0	1785.30	0	2.1210	0	34.5500	0	27.611	0	1762.892	0	35.0	4	10.6	4	-1E+10	1	-1E+10	1	-1E+10	1	-1E+10	1	-1E+10	1	-1E+10	1
4902549	34	C	07/16/2021	10:02	-132.385	47.334	0	1795.40	0	2.1120	0	34.5520	0	27.613	0	1772.823	0	35.9	4	10.9	4	-1E+10	1	-1E+10	1	-1E+10	1	-1E+10	1	-1E+10	1	-1E+10	1
4902549	34	C	07/16/2021	10:02	-132.385	47.334	0	1805.60	0	2.0990	0	34.5550	0	27.617	0	1782.852	0	36.8	4	11.1	4	-1E+10	1	-1E+10	1	-1E+10	1	-1E+10	1	-1E+10	1	-1E+10	1
4902549	34	C	07/16/2021	10:02	-132.385	47.334	0	1815.20	0	2.0900	0	34.5570	0	27.619	0	1792.290	0	37.4	4	11.3	4	-1E+10	1	-1E+10	1	-1E+10	1	-1E+10	1	-1E+10	1	-1E+10	1
4902549	34	C	07/16/2021	10:02	-132.385	47.334	0	1825.60	0	2.0830	0	34.5580	0	27.621	0	1802.515	0	38.1	4	11.5	4	-1E+10	1	-1E+10	1	-1E+10	1	-1E+10	1	-1E+10	1	-1E+10	1
4902549	34	C	07/16/2021	10:02	-132.385	47.334	0	1835.60	0	2.0750	0	34.5600	0	27.623	0	1812.346	0	38.9	4	11.8	4	-1E+10	1	-1E+10	1	-1E+10	1	-1E+10	1	-1E+10	1	-1E+10	1
4902549	34	C	07/16/2021	10:02	-132.385	47.334	0	1845.40	0	2.0630	0	34.5620	0	27.626	0	1821.980	0	39.8	4	12.0	4	-1E+10	1	-1E+10	1	-1E+10	1	-1E+10	1	-1E+10	1	-1E+10	1
4902549	34	C	07/16/2021	10:02	-132.385	47.334	0	1855.40	0	2.0520	0	34.5640	0	27.628	0	1831.810	0	40.4	4	12.2	4	-1E+10	1	-1E+10	1	-1E+10	1	-1E+10	1	-1E+10	1	-1E+10	1
4902549	34	C	07/16/2021	10:02	-132.385	47.334	0	1865.40	0	2.0440	0	34.5650	0	27.630	0	1841.639	0	41.0	4	12.4	4	-1E+10	1	-1E+10	1	-1E+10	1	-1E+10	1	-1E+10	1	-1E+10	1
4902549	34	C	07/16/2021	10:02	-132.385	47.334	0	1875.50	0	2.0360	0	34.5660	0	27.631	0	1851.567	0	41.5	4	12.5	4	-1E+10	1	-1E+10	1	-1E+10	1	-1E+10	1	-1E+10	1	-1E+10	1
4902549	34	C	07/16/2021	10:02	-132.385	47.334	0	1885.40	0	2.0320	0	34.5670	0	27.632	0	1861.297	0	41.9	4	12.7	4	-1E+10	1	-1E+10	1	-1E+10	1	-1E+10	1	-1E+10	1	-1E+10	1
4902549	34	C	07/16/2021	10:02	-132.385	47.334	0	1895.40	0	2.0260	0	34.5680	0	27.634	0	1871.125	0	42.5	4	12.8	4	-1E+10	1	-1E+10	1	-1E+10	1	-1E+10	1	-1E+10	1	-1E+10	1
4902549	34	C	07/16/2021	10:02	-132.385	47.334	0	1905.80	0	2.0190	0	34.5700	0	27.636	0	1881.346	0	43.1	4	13.0	4	-1E+10	1	-1E+10	1	-1E+10	1	-1E+10	1	-1E+10	1	-1E+10	1
4902549	34	C	07/16/2021	10:02	-132.385	47.334	0	1915.50	0	2.0110	0	34.5710	0	27.637	0	1890.879	0	43.8	4	13.2	4	-1E+10	1	-1E+10	1	-1E+10	1	-1E+10	1	-1E+10	1	-1E+10	1
4902549	34	C	07/16/2021	10:02	-132.385	47.334	0	1925.20	0	2.0050	0	34.5730	0	27.639	0	1900.411	0	44.5	4	13.4	4	-1E+10	1	-1E+10	1	-1E+10	1	-1E+10	1	-1E+10	1	-1E+10	1
4902549	34	C	07/16/2021	10:02	-132.385	47.334	0	1935.00	0	2.0000	0	34.5750	0	27.641	0	1910.040	0	45.2	4	13.6	4	-1E+10	1	-1E+10	1	-1E+10	1	-1E+10	1	-1E+10	1	-1E+10	1
4902549	34	C	07/16/2021	10:02	-132.385	47.334	0	1945.10	0	1.9930	0	34.5760	0	27.643	0	1919.965	0	45.8	4	13.8	4	-1E+10	1	-1E+10	1	-1E+10	1	-1E+10	1	-1E+10	1	-1E+10	1
4902549	34	C	07/16/2021	10:02	-132.385	47.334	0	1955.30	0	1.9860	0	34.5780	0	27.645	0	1929.987	0	46.3	4	13.9	4	-1E+10	1	-1E+10	1	-1E+10	1	-1E+10	1	-1E+10	1	-1E+10	1
4902549	34	C	07/16/2021	10:02	-132.385	47.334	0	1963.60	0	1.9810	0	34.5790	0	27.646	0	1938.141	0	46.2	4	13.9	4	-1E+10	1	-1E+10	1	-1E+10	1	-1E+10	1	-1E+10	1	-1E+10	1
4902549	34	C	07/16/2021	10:02	-132.385	47.334	0																										
4902549	35	C	07/26/2021	15:09	-132.290	47.295	0	0.30	0	15.8950	0	32.3280	0	23.718	0	0.298	0	243.9	4	98.3	4	-1E+10	1	-1E+10	1	-1E+10	1	-1E+10	1	-1E+10	1	-1E+10	1
4902549	35	C	07/26/2021	15:09	-132.290	47.295	0	1.10	0	15.8950	0	32.3270	0	23.717	0	1.091	0	243.9	4	98.3	4	-1E+10	1	-1E+10	1	-1E+10	1	-1E+10	1	-1E+10	1	-1E+10	1
4902549	35	C	07/26/2021	15:09	-132.290	47.295	0	2.00	0	15.8980	0	32.3240	0	23.714	0	1.983	0	244.1	4	98.4	4	-1E+10	1	-1E+10	1	-1E+10	1	-1E+10	1	-1E+10	1	-1E+10	1
4902549	35	C	07/26/2021	15:09	-132.290	47.295	0	2.90	0	15.8970	0	32.3250	0	23.715	0	2.876	0	244.0	4	98.4	4	-1E+10	1	-1E+10	1	-1E+10	1	-1E+10	1	-1E+10	1	-1E+10	1
4902549	35	C	07/26/2021	15:09	-132.290	47.295	0	4.10	0	15.8950	0	32.3280	0	23.718	0	4.066	0	244.3	4	98.5	4	-1E+10	1	-1E+10	1	-1E+10	1	-1E+10	1	-1E+10	1	-1E+10	1
4902549	35	C	07/26/2021	15:09	-132.290	47.295	0	5.00	0	15.8940	0	32.3310	0	23.720	0	4.958	0	244.4	4	98.5	4	-1E+10	1	-1E+10	1	-1E+10	1	-1E+10	1	-1E+10	1	-1E+10	1
4902549	35	C	07/26/2021	15:09	-132.290	47.295	0	6.00	0	15.8950	0	32.3310	0	23.720	0	5.950	0	244.6	4	98.6	4	-1E+10	1	-1E+10	1	-1E+10	1	-1E+10	1	-1E+10	1	-1E+10	1
4902549	35	C	07/26/2021	15:09	-132.290	47.295	0	6.90	0	15.8940	0	32.3300	0	23.720	0	6.842	0	244.6	4	98.6	4	-1E+10	1	-1E+10	1	-1E+10	1	-1E+10	1	-1E+10	1	-1E+10	1
4902549	35	C	07/26/2021	15:09	-132.290	47.295	0	7.80	0	15.8940	0	32.3300	0	23.720	0	7.735	0	244.9	4	98.7	4	-1E+10	1	-1E+10	1	-1E+10	1	-1E+10	1	-1E+10	1	-1E+10	1
4902549	35	C	07/26/2021	15:09	-132.290	47.295	0	9.00	0	15.8920	0	32.3300	0	23.720	0	8.925	0	245.2	4	98.9	4	-1E+10	1	-1E+10	1	-1E+10	1	-1E+10	1	-1E+10	1	-1E+10	1
4902549	35	C	07/26/2021	15:09	-132.290	47.295	0	9.90	0	15.8910	0	32.3310	0	23.721	0	9.817	0	245.6	4	99.0	4	-1E+10	1	-1E+10	1	-1E+10	1	-1E+10	1	-1E+10	1	-1E+10	1
4902549	35	C	07/26/2021	15:09	-132.290	47.295	0	10.80	0	15.8820	0	32.3290	0	23.722	0	10.710	0	246.0	4	99.2	4	-1E+10	1	-1E+10	1	-1E+10	1	-1E+10	1	-1E+10	1	-1E+10	1
4902549	35	C	07/26/2021	15:09	-132.290	47.295	0	11.80	0	15.8730	0	32.3290	0	23.724	0	11.701	0	246.4	4	99.3	4	-1E+10	1	-1E+10	1	-1E+10	1	-1E+10	1	-1E+10	1	-1E+10	1
4902549	35	C	07/26/2021	15:09	-132.290	47.295	0	12.80	0	15.8530	0	32.3320	0	23.730	0	12.693	0	247.2	4	99.6	4	-1E+10	1	-1E+10	1	-1E+10	1	-1E+10	1	-1E+10	1	-1E+10	1
4902549	35	C	07/26/2021	15:09	-132.290	47.295	0	13.80	0	15.8170	0	32.3250	0	23.733	0	13.685	0	248.1	4	99.9	4	-1E+10	1	-1E+10	1	-1E+10	1	-1E+10	1	-1E+10	1	-1E+10	1
4902549	35	C	07/26/2021	15:09	-132.290	47.295	0	14.90	0	15.7570	0	32.3260	0	23.747	0	14.775	0	249.6	4	100.4	4	-1E+10	1	-1E+10	1	-1E+10	1	-1E+10	1	-1E+10	1	-1E+10	1
4902549	35	C	07/26/2021	15:09	-132.290	47.295	0	16.30	0	15.6710	0	32.3250	0	23.766	0	16.164	0	251.6	4	101.0	4	-1E+10	1	-1E+10	1	-1E+10	1	-1E+10	1	-1E+10	1	-1E+10	1
4902549	35	C	07/26/2021	15:09	-132.290	47.295	0	17.10	0	15.5910	0	32.3190	0	23.779	0	16.957	0	253.5	4	101.6	4	-1E+10	1	-1E+10	1	-1E+10	1	-1E+10	1	-1E+10	1	-1E+10	1
4902549	35	C	07/26/2021	15:09	-132.290	47.295	0	17.90	0	15.3850	0	32.3220	0	23.826	0	17.750	0	256.1	4	102.2	4	-1E+10	1	-1E+10	1	-1E+10	1	-1E+10	1	-1E+10	1	-1E+10	1
4902549	35	C	07/26/2021	15:09	-132.290	47.295	0	19.00	0	15.2300	0	32.3200	0	23.858	0	18.841	0	258.8	4	103.0	4	-1E+10	1	-1E+10	1	-1E+10	1	-1E+10	1	-1E+10	1	-1E+10	1
4902549	35	C	07/26/2021	15:09	-132.290	47.295	0	20.00	0	14.9850	0	32.3230	0	23.914	0	19.832	0	261.9	4	103.7	4	-1E+10	1	-1E+10	1	-1E+10	1	-1E+10	1	-1E+10	1	-1E+10	1
4902549	35	C	07/26/2021	15:09	-132.290	47.295	0	21.10	0	14.6790	0	32.3230	0	23.979	0	20.923	0	265.4	4	104.5	4	-1E+10	1	-1E+10	1	-1E+10	1	-1E+10	1	-1E+10	1	-1E+10	1
4902549	35	C	07/26/2021	15:09	-132.290	47.295	0	22.10	0	14.3240	0	32.3230	0	24.053	0	21.915	0	268.9	4	105.1	4	-1E+10	1	-1E+10	1	-1E+10	1	-1E+10	1	-1E+10	1	-1E+10	1
4902549	35	C	07/26/2021	15:09	-132.290	47.295	0	23.00	0	14.1270	0	32.3220	0	24.094	0	22.807	0	271.2	4	105.6	4	-1E+10	1	-1E+10	1	-1E+10	1	-1E+10	1	-1E+10	1	-1E+10	1
4902549	35	C	07/26/2021	15:09	-132.290	47.295	0	24.10	0	13.8390	0	32.3210	0	24.152	0	23.898	0	273.2	4	105.7	4	-1E+10	1	-1E+10	1	-1E+10	1	-1E+10	1	-1E+10	1	-1E+10	1
4902549	35	C	07/26/2021	15:09	-132.290	47.295	0	25.10	0	13.6900	0	32.3310	0	24.190	0	24.889	0	274.1	4	105.8	4	-1E+10	1	-1E+10	1	-1E+10	1	-1E+10	1	-1E+10	1	-1E+10	1
4902549	35	C	07/26/2021	15:09	-132.290	47.295	0	26.00	0	13.5870	0	32.3330	0	24.212	0	25.782	0	274.7	4	105.8	4	-1E+10	1	-1E+10	1	-1E+10	1	-1E+10	1	-1E+10	1	-1E+10	1
4902549	35	C	07/26/2021	15:09	-132.290	47.295	0	26.90	0	13.5230	0	32.3330	0	24.225	0	26.674	0	275.0	4	105.8	4	-1E+10	1	-1E+10	1	-1E+10	1	-1E+10	1	-1E+10	1	-1E+10	1
4902549	35	C	07/26/2021	15:09	-132.290	47.295	0	27.80	0	13.4680	0	32.3350	0	24.238	0	27.567	0	275.2	4	105.7	4	-1E+10	1	-1E+10	1	-1E+10	1	-1E+10	1	-1E+10	1	-1E+10	1
4902549	35	C	07/26/2021	15:09	-132.290	47.295	0	28.70	0	13.4170	0	32.3330	0	24.246	0	28.459	0	275.4	4	105.7	4	-1E+10	1	-1E+10	1	-1E+10	1	-1E+10	1	-1E+10	1	-1E+10	1
4902549	35	C	07/26/2021	15:09	-132.290	47.295	0	30.10	0	13.3580	0	32.3350	0	24.260	0	29.847	0	275.7	4	105.7	4	-1E+10	1	-1E+10	1	-1E+10	1	-1E+10	1	-1E+10	1	-1E+10	1
4902549	35	C	07/26/2021	15:09	-132.290	47.295	0	31.20	0	13.3260	0	32.3340	0	24.265	0	30.938	0	275.7	4	105.6	4	-1E+10	1	-1E+10	1	-1E+10	1	-1E+10	1	-1E+10	1	-1E+10	1
4902549	35	C	07/26/2021	15:09	-132.290	47.295	0	31.90	0	13.2730	0	32.3350	0	24.277	0	31.632	0	275.8	4	105.6	4	-1E+10	1	-1E+10	1	-1E+10	1	-1E+10	1	-1E+10	1	-1E+10	1
4902549	35	C	07/26/2021	15:09	-132.290	47.295	0	33.00	0	13.1850	0	32.3310	0	24.291	0	32.723	0	275.8	4	105.4	4	-1E+10	1	-1E+10	1	-1E+10	1	-1E+10	1	-1E+10	1	-1E+10	1
4902549	35	C	07/26/2021	15:09	-132.290	47.295	0	34.20	0	12.7980	0	32.3390	0	24.373	0	33.912	0	276.5	4	104.8	4	-1E+10	1	-1E+10	1	-1E+10	1	-1E+10	1	-1E+10	1	-1E+10	1
4902549	35	C	07/26/2021	15:09	-132.290	47.295	0	34.80	0	12.5640	0	32.3430	0	24.421	0	34.507	0	276.8	4	104.4	4	-1E+10	1	-1E+10	1	-1E+10	1	-1E+10	1	-1E+10	1	-1E+10	1
4902549	35	C	07/26/2021	15:09	-132.290	47.295	0	35.90	0	12.2230	0	32.3590	0	24.498	0	35.598	0	277.7	4	104.0	4	-1E+10	1	-1E+10	1	-1E+10	1	-1E+10	1	-1E+10	1	-1E+10	1
4902549	35	C	07/26/2021	15:09	-132.290	47.295	0	37.00	0	11.9540	0	32.3510	0	24.542	0	36.689	0	278.7	4	103.8	4	-1E+10	1	-1E+10	1	-1E+10	1	-1E+10	1	-1E+10	1	-1E+10	1
4902549	35	C	07/26/2021	15:09	-132.290	47.295	0	38.10	0	11.5810	0	32.3490	0	24.609	0	37.779	0	279.2	4	103.2	4	-1E+10	1	-1E+10	1	-1E+10	1	-1E+10	1	-1E+10	1	-1E+10	1
4902549	35	C	07/26/2021	15:09	-132.290	47.295	0	39.10	0	11.1810	0	32.3640	0	24.693	0	38.771	0	279.7	4	102.5	4	-1E+10	1	-1E+10	1	-1E+10	1	-1E+10	1	-1E+10	1	-1E+10	1
4902549	35	C	07/26/2021	15:09	-132.290	47.295	0	40.00	0	11.0780	0	32.3630	0	24.710	0	39.663	0	278.7	4	101.9	4	-1E+10	1	-1E+10	1	-1E+10	1	-1E+10	1	-1E+10	1	-1E+10	1
4902549	35	C	07/26/2021	15:09	-132.290	47.295	0	40.90	0	10.9390	0	32.3640	0	24.735	0	40.555	0	278.2	4	101.4	4	-1E+10	1	-1E+10	1	-1E+10	1	-1E+10	1	-1E+10	1	-1E+10	1
4902549	35	C	07/26/2021	15:09	-132.290	47.295	0	41.90	0	10.6880	0	32.3710	0	24.785	0	41.547	0	278.5	4	101.0	4	-1E+10	1	-1E+10	1	-1E+10	1	-1E+10	1	-1E+10	1	-1E+10	1
4902549	35	C	07/26/2021	15:09	-132.290	47.295	0	43.00	0	10.5170	0	32.3870	0	24.826	0	42.637	0	278.0	4	100.5	4	-1E+10	1	-1E+10	1	-1E+10	1	-1E+10	1	-1E+10	1	-1E+10	1
4902549	35	C	07/26/2021	15:09	-132.290	47.295	0	43.90	0	10.4950	0	32.3880	0	24.831	0	43.530	0	277.1	4	100.1	4	-1E+10	1	-1E+10	1	-1E+10	1	-1E+10	1	-1E+10	1	-1E+10	1
4902549	35	C	07/26/2021	15:09	-132.290	47.295	0	45.10	0	10.3500	0	32.3910	0	24.858	0	44.720	0	276.1	4	99.4	4	-1E+10	1	-1E+10	1	-1E+10	1	-1E+10	1	-1E+10	1	-1E+10	1
4902549	35	C	07/26/2021	15:09	-132.290	47.295	0	46.10	0	10.2860	0	32.3920	0	24.870	0	45.711	0	274.8	4	98.8	4	-1E+10	1	-1E+10	1	-1E+10	1	-1E+10	1	-1E+10	1	-1E+10	1
4902549	35	C	07/26/2021	15:09	-132.290	47.295	0	47.00	0	10.1440	0	32.3910	0	24.893	0	46.603	0	274.3	4	98.3	4	-1E+10	1	-1E+10	1	-1E+10	1	-1E+10	1	-1E+10	1	-1E+10	1
4902549	35	C	07/26/2021	15:09	-132.290	47.295	0	48.10	0	9.9800	0	32.3950	0	24.923	0	47.694	0	273.4	4	97.7	4	-1E+10	1	-1E+10	1	-1E+10	1	-1E+10	1	-1E+10	1	-1E+10	1
4902549	35	C	07/26/2021	15:09	-132.290	47.295	0	48.80	0	9.9460	0	32.3960	0	24.929	0	48.388	0	272.5	4	97.3	4	-1E+10	1	-1E+10	1	-1E+10	1	-1E+10	1	-1E+10	1	-1E+10	1
4902549	35	C	07/26/2021	15:09	-132.290	47.295	0	49.90	0	9.8060	0	32.4070	0	24.961	0	49.478	0	271.6	4	96.7	4	-1E+10	1	-1E+10	1	-1E+10	1	-1E+10	1	-1E+10	1	-1E+10	1
4902549	35	C	07/26/2021	15:09	-132.290	47.295	0	51.30	0	9.7140	0	32.4070	0	24.976	0	50.866	0	270.4	4	96.0	4	-1E+10	1	-1E+10	1	-1E+10	1	-1E+10	1	-1E+10	1	-1E+10	1
4902549	35	C	07/26/2021	15:09	-132.290	47.295	0	52.00	0	9.6420	0	32.4080	0	24.989	0	51.560	0	270.0	4	95.8	4	-1E+10	1	-1E+10	1	-1E+10	1	-1E+10	1	-1E+10	1	-1E+10	1
4902549	35	C	07/26/2021	15:09	-132.290	47.295	0	53.00	0	9.4630	0	32.4060	0	25.016	0	52.552	0	270.2	4	95.4	4	-1E+10	1	-1E+10	1	-1E+10	1	-1E+10	1	-1E+10	1	-1E+10	1
4902549	35	C	07/26/2021	15:09	-132.290	47.295	0	54.10	0	9.3650	0	32.4060	0	25.031	0	53.642	0	270.1	4	95.2	4	-1E+10	1	-1E+10	1	-1E+10	1	-1E+10	1	-1E+10	1	-1E+10	1
4902549	35	C	07/26/2021	15:09	-132.290	47.295	0	54.90	0	9.3230	0	32.4070	0	25.039	0	54.436	0	269.8	4	95.0	4	-1E+10	1	-1E+10	1	-1E+10	1	-1E+10	1	-1E+10	1	-1E+10	1
4902549	35	C	07/26/2021	15:09	-132.290	47.295	0	55.80	0	9.2930	0	32.4060	0	25.043	0	55.328	0	269.6	4	94.9	4	-1E+10	1	-1E+10	1	-1E+10	1	-1E+10	1	-1E+10	1	-1E+10	1
4902549	35	C	07/26/2021	15:09	-132.290	47.295	0	56.90	0	9.2170	0	32.4030	0	25.052	0	56.418	0	269.3	4	94.6	4	-1E+10	1	-1E+10	1	-1E+10	1	-1E+10	1	-1E+10	1	-1E+10	1
4902549	35	C	07/26/2021	15:09	-132.290	47.295	0	58.10	0	9.1120	0	32.4000	0	25.067	0	57.608	0	269.4	4	94.4	4	-1E+10	1	-1E+10	1	-1E+10	1	-1E+10	1	-1E+10	1	-1E+10	1
4902549	35	C	07/26/2021	15:09	-132.290	47.295	0	59.00	0	9.0970	0	32.3980	0	25.067	0	58.500	0	269.1	4	94.3	4	-1E+10	1	-1E+10	1	-1E+10	1	-1E+10	1	-1E+10	1	-1E+10	1
4902549	35	C	07/26/2021	15:09	-132.290	47.295	0	59.90	0	9.0630	0	32.3980	0	25.073	0	59.393	0	268.8	4	94.1	4	-1E+10	1	-1E+10	1	-1E+10	1	-1E+10	1	-1E+10	1	-1E+10	1
4902549	35	C	07/26/2021	15:09	-132.290	47.295	0	61.10	0	9.0370	0	32.4000	0	25.078	0	60.582	0	268.3	4	93.9	4	-1E+10	1	-1E+10	1	-1E+10	1	-1E+10	1	-1E+10	1	-1E+10	1
4902549	35	C	07/26/2021	15:09	-132.290	47.295	0	62.00	0	9.0030	0	32.4020	0	25.085	0	61.474	0	268.0	4	93.7	4	-1E+10	1	-1E+10	1	-1E+10	1	-1E+10	1	-1E+10	1	-1E+10	1
4902549	35	C	07/26/2021	15:09	-132.290	47.295	0	62.90	0	8.9810	0	32.4010	0	25.088	0	62.367	0	267.8	4	93.6	4	-1E+10	1	-1E+10	1	-1E+10	1	-1E+10	1	-1E+10	1	-1E+10	1
4902549	35	C	07/26/2021	15:09	-132.290	47.295	0	64.10	0	8.9450	0	32.4020	0	25.094	0	63.556	0	267.4	4	93.4	4	-1E+10	1	-1E+10	1	-1E+10	1	-1E+10	1	-1E+10	1	-1E+10	1
4902549	35	C	07/26/2021	15:09	-132.290	47.295	0	65.00	0	8.9180	0	32.4050	0	25.101	0	64.449	0	267.2	4	93.3	4	-1E+10	1	-1E+10	1	-1E+10	1	-1E+10	1	-1E+10	1	-1E+10	1
4902549	35	C	07/26/2021	15:09	-132.290	47.295	0	65.90	0	8.8970	0	32.4050	0	25.104	0	65.341	0	267.0	4	93.2	4	-1E+10	1	-1E+10	1	-1E+10	1	-1E+10	1	-1E+10	1	-1E+10	1
4902549	35	C	07/26/2021	15:09	-132.290	47.295	0	67.00	0	8.8810	0	32.4100	0	25.110	0	66.431	0	266.8	4	93.1	4	-1E+10	1	-1E+10	1	-1E+10	1	-1E+10	1	-1E+10	1	-1E+10	1
4902549	35	C	07/26/2021	15:09	-132.290	47.295	0	68.10	0	8.8630	0	32.4090	0	25.112	0	67.522	0	266.6	4	93.0	4	-1E+10	1	-1E+10	1	-1E+10	1	-1E+10	1	-1E+10	1	-1E+10	1
4902549	35	C	07/26/2021	15:09	-132.290	47.295	0	68.90	0	8.8500	0	32.4080	0	25.114	0	68.315	0	266.5	4	92.9	4	-1E+10	1	-1E+10	1	-1E+10	1	-1E+10	1	-1E+10	1	-1E+10	1
4902549	35	C	07/26/2021	15:09	-132.290	47.295	0	69.70	0	8.8200	0	32.4110	0	25.121	0	69.108	0	266.6	4	92.9	4	-1E+10	1	-1E+10	1	-1E+10	1	-1E+10	1	-1E+10	1	-1E+10	1
4902549	35	C	07/26/2021	15:09	-132.290	47.295	0	70.70	0	8.7740	0	32.4200	0	25.135	0	70.099	0	266.7	4	92.8	4	-1E+10	1	-1E+10	1	-1E+10	1	-1E+10	1	-1E+10	1	-1E+10	1
4902549	35	C	07/26/2021	15:09	-132.290	47.295	0	71.80	0	8.7560	0	32.4220	0	25.139	0	71.190	0	266.9	4	92.8	4	-1E+10	1	-1E+10	1	-1E+10	1	-1E+10	1	-1E+10	1	-1E+10	1
4902549	35	C	07/26/2021	15:09	-132.290	47.295	0	72.80	0	8.7350	0	32.4260	0	25.145	0	72.181	0	266.5	4	92.7	4	-1E+10	1	-1E+10	1	-1E+10	1	-1E+10	1	-1E+10	1	-1E+10	1
4902549	35	C	07/26/2021	15:09	-132.290	47.295	0	73.80	0	8.6970	0	32.4320	0	25.156	0	73.172	0	266.6	4	92.6	4	-1E+10	1	-1E+10	1	-1E+10	1	-1E+10	1	-1E+10	1	-1E+10	1
4902549	35	C	07/26/2021	15:09	-132.290	47.295	0	74.80	0	8.6320	0	32.4420	0	25.173	0	74.164	0	266.6	4	92.5	4	-1E+10	1	-1E+10	1	-1E+10	1	-1E+10	1	-1E+10	1	-1E+10	1
4902549	35	C	07/26/2021	15:09	-132.290	47.295	0	76.00	0	8.5390	0	32.4500	0	25.194	0	75.353	0	267.0	4	92.4	4	-1E+10	1	-1E+10	1	-1E+10	1	-1E+10	1	-1E+10	1	-1E+10	1
4902549	35	C	07/26/2021	15:09	-132.290	47.295	0	77.10	0	8.5260	0	32.4500	0	25.196	0	76.444	0	266.6	4	92.3	4	-1E+10	1	-1E+10	1	-1E+10	1	-1E+10	1	-1E+10	1	-1E+10	1
4902549	35	C	07/26/2021	15:09	-132.290	47.295	0	78.10	0	8.4860	0	32.4560	0	25.206	0	77.435	0	266.8	4	92.3	4	-1E+10	1	-1E+10	1	-1E+10	1	-1E+10	1	-1E+10	1	-1E+10	1
4902549	35	C	07/26/2021	15:09	-132.290	47.295	0	79.00	0	8.4460	0	32.4580	0	25.214	0	78.327	0	267.3	4	92.4	4	-1E+10	1	-1E+10	1	-1E+10	1	-1E+10	1	-1E+10	1	-1E+10	1
4902549	35	C	07/26/2021	15:09	-132.290	47.295	0	79.90	0	8.4010	0	32.4560	0	25.219	0	79.219	0	267.7	4	92.4	4	-1E+10	1	-1E+10	1	-1E+10	1	-1E+10	1	-1E+10	1	-1E+10	1
4902549	35	C	07/26/2021	15:09	-132.290	47.295	0	81.00	0	8.3250	0	32.4580	0	25.232	0	80.310	0	267.9	4	92.3	4	-1E+10	1	-1E+10	1	-1E+10	1	-1E+10	1	-1E+10	1	-1E+10	1
4902549	35	C	07/26/2021	15:09	-132.290	47.295	0	82.20	0	8.2690	0	32.4620	0	25.243	0	81.499	0	267.6	4	92.1	4	-1E+10	1	-1E+10	1	-1E+10	1	-1E+10	1	-1E+10	1	-1E+10	1
4902549	35	C	07/26/2021	15:09	-132.290	47.295	0	82.90	0	8.2410	0	32.4610	0	25.247	0	82.193	0	267.4	4	92.0	4	-1E+10	1	-1E+10	1	-1E+10	1	-1E+10	1	-1E+10	1	-1E+10	1
4902549	35	C	07/26/2021	15:09	-132.290	47.295	0	83.90	0	8.1820	0	32.4660	0	25.259	0	83.184	0	267.3	4	91.9	4	-1E+10	1	-1E+10	1	-1E+10	1	-1E+10	1	-1E+10	1	-1E+10	1
4902549	35	C	07/26/2021	15:09	-132.290	47.295	0	85.00	0	8.1370	0	32.4690	0	25.268	0	84.275	0	267.4	4	91.8	4	-1E+10	1	-1E+10	1	-1E+10	1	-1E+10	1	-1E+10	1	-1E+10	1
4902549	35	C	07/26/2021	15:09	-132.290	47.295	0	86.20	0	8.1250	0	32.4690	0	25.270	0	85.464	0	267.2	4	91.7	4	-1E+10	1	-1E+10	1	-1E+10	1	-1E+10	1	-1E+10	1	-1E+10	1
4902549	35	C	07/26/2021	15:09	-132.290	47.295	0	87.00	0	8.1140	0	32.4690	0	25.272	0	86.257	0	267.2	4	91.7	4	-1E+10	1	-1E+10	1	-1E+10	1	-1E+10	1	-1E+10	1	-1E+10	1
4902549	35	C	07/26/2021	15:09	-132.290	47.295	0	88.00	0	8.0990	0	32.4680	0	25.273	0	87.249	0	267.1	4	91.6	4	-1E+10	1	-1E+10	1	-1E+10	1	-1E+10	1	-1E+10	1	-1E+10	1
4902549	35	C	07/26/2021	15:09	-132.290	47.295	0	89.10	0	8.0710	0	32.4680	0	25.277	0	88.339	0	267.1	4	91.5	4	-1E+10	1	-1E+10	1	-1E+10	1	-1E+10	1	-1E+10	1	-1E+10	1
4902549	35	C	07/26/2021	15:09	-132.290	47.295	0	89.90	0	8.0510	0	32.4660	0	25.278	0	89.132	0	267.0	4	91.5	4	-1E+10	1	-1E+10	1	-1E+10	1	-1E+10	1	-1E+10	1	-1E+10	1
4902549	35	C	07/26/2021	15:09	-132.290	47.295	0	91.00	0	8.0130	0	32.4670	0	25.285	0	90.222	0	266.8	4	91.3	4	-1E+10	1	-1E+10	1	-1E+10	1	-1E+10	1	-1E+10	1	-1E+10	1
4902549	35	C	07/26/2021	15:09	-132.290	47.295	0	92.20	0	7.9800	0	32.4680	0	25.290	0	91.412	0	266.6	4	91.2	4	-1E+10	1	-1E+10	1	-1E+10	1	-1E+10	1	-1E+10	1	-1E+10	1
4902549	35	C	07/26/2021	15:09	-132.290	47.295	0	93.00	0	7.9620	0	32.4690	0	25.294	0	92.205	0	266.4	4	91.1	4	-1E+10	1	-1E+10	1	-1E+10	1	-1E+10	1	-1E+10	1	-1E+10	1
4902549	35	C	07/26/2021	15:09	-132.290	47.295	0	94.20	0	7.9180	0	32.4750	0	25.305	0	93.394	0	266.6	4	91.1	4	-1E+10	1	-1E+10	1	-1E+10	1	-1E+10	1	-1E+10	1	-1E+10	1
4902549	35	C	07/26/2021	15:09	-132.290	47.295	0	95.00	0	7.8420	0	32.4730	0	25.314	0	94.187	0	267.2	4	91.1	4	-1E+10	1	-1E+10	1	-1E+10	1	-1E+10	1	-1E+10	1	-1E+10	1
4902549	35	C	07/26/2021	15:09	-132.290	47.295	0	96.20	0	7.7750	0	32.4720	0	25.323	0	95.377	0	267.9	4	91.2	4	-1E+10	1	-1E+10	1	-1E+10	1	-1E+10	1	-1E+10	1	-1E+10	1
4902549	35	C	07/26/2021	15:09	-132.290	47.295	0	97.00	0	7.7240	0	32.4630	0	25.323	0	96.170	0	268.1	4	91.2	4	-1E+10	1	-1E+10	1	-1E+10	1	-1E+10	1	-1E+10	1	-1E+10	1
4902549	35	C	07/26/2021	15:09	-132.290	47.295	0	98.20	0	7.5470	0	32.4530	0	25.340	0	97.359	0	268.8	4	91.0	4	-1E+10	1	-1E+10	1	-1E+10	1	-1E+10	1	-1E+10	1	-1E+10	1
4902549	35	C	07/26/2021	15:09	-132.290	47.295	0	99.10	0	7.4860	0	32.4410	0	25.339	0	98.251	0	268.7	4	90.9	4	-1E+10	1	-1E+10	1	-1E+10	1	-1E+10	1	-1E+10	1	-1E+10	1
4902549	35	C	07/26/2021	15:09	-132.290	47.295	0	99.90	0	7.4740	0	32.4430	0	25.342	0	99.044	0	268.0	4	90.6	4	-1E+10	1	-1E+10	1	-1E+10	1	-1E+10	1	-1E+10	1	-1E+10	1
4902549	35	C	07/26/2021	15:09	-132.290	47.295	0	101.00	0	7.4720	0	32.4440	0	25.343	0	100.134	0	267.1	4	90.3	4	-1E+10	1	-1E+10	1	-1E+10	1	-1E+10	1	-1E+10	1	-1E+10	1
4902549	35	C	07/26/2021	15:09	-132.290	47.295	0	102.10	0	7.4930	0	32.4520	0	25.347	0	101.225	0	265.9	4	89.9	4	-1E+10	1	-1E+10	1	-1E+10	1	-1E+10	1	-1E+10	1	-1E+10	1
4902549	35	C	07/26/2021	15:09	-132.290	47.295	0	103.00	0	7.4600	0	32.4510	0	25.350	0	102.117	0	265.0	4	89.6	4	-1E+10	1	-1E+10	1	-1E+10	1	-1E+10	1	-1E+10	1	-1E+10	1
4902549	35	C	07/26/2021	15:09	-132.290	47.295	0	104.30	0	7.4200	0	32.4510	0	25.356	0	103.405	0	263.4	4	88.9	4	-1E+10	1	-1E+10	1	-1E+10	1	-1E+10	1	-1E+10	1	-1E+10	1
4902549	35	C	07/26/2021	15:09	-132.290	47.295	0	105.20	0	7.4260	0	32.4600	0	25.362	0	104.297	0	261.9	4	88.5	4	-1E+10	1	-1E+10	1	-1E+10	1	-1E+10	1	-1E+10	1	-1E+10	1
4902549	35	C	07/26/2021	15:09	-132.290	47.295	0	106.10	0	7.4600	0	32.4790	0	25.372	0	105.189	0	260.4	4	88.0	4	-1E+10	1	-1E+10	1	-1E+10	1	-1E+10	1	-1E+10	1	-1E+10	1
4902549	35	C	07/26/2021	15:09	-132.290	47.295	0	107.00	0	7.4160	0	32.4780	0	25.378	0	106.081	0	259.0	4	87.5	4	-1E+10	1	-1E+10	1	-1E+10	1	-1E+10	1	-1E+10	1	-1E+10	1
4902549	35	C	07/26/2021	15:09	-132.290	47.295	0	108.10	0	7.4840	0	32.5000	0	25.386	0	107.172	0	256.5	4	86.8	4	-1E+10	1	-1E+10	1	-1E+10	1	-1E+10	1	-1E+10	1	-1E+10	1
4902549	35	C	07/26/2021	15:09	-132.290	47.295	0	109.20	0	7.5560	0	32.5200	0	25.391	0	108.262	0	254.5	4	86.2	4	-1E+10	1	-1E+10	1	-1E+10	1	-1E+10	1	-1E+10	1	-1E+10	1
4902549	35	C	07/26/2021	15:09	-132.290	47.295	0	109.90	0	7.5610	0	32.5290	0	25.398	0	108.956	0	253.3	4	85.9	4	-1E+10	1	-1E+10	1	-1E+10	1	-1E+10	1	-1E+10	1	-1E+10	1
4902549	35	C	07/26/2021	15:09	-132.290	47.295	0	110.90	0	7.5340	0	32.5490	0	25.417	0	109.947	0	251.8	4	85.3	4	-1E+10	1	-1E+10	1	-1E+10	1	-1E+10	1	-1E+10	1	-1E+10	1
4902549	35	C	07/26/2021	15:09	-132.290	47.295	0	111.90	0	7.5200	0	32.5500	0	25.420	0	110.938	0	249.8	4	84.6	4	-1E+10	1	-1E+10	1	-1E+10	1	-1E+10	1	-1E+10	1	-1E+10	1
4902549	35	C	07/26/2021	15:09	-132.290	47.295	0	112.90	0	7.4860	0	32.5620	0	25.434	0	111.929	0	247.5	4	83.8	4	-1E+10	1	-1E+10	1	-1E+10	1	-1E+10	1	-1E+10	1	-1E+10	1
4902549	35	C	07/26/2021	15:09	-132.290	47.295	0	114.10	0	7.5840	0	32.5880	0	25.441	0	113.119	0	244.5	4	83.0	4	-1E+10	1	-1E+10	1	-1E+10	1	-1E+10	1	-1E+10	1	-1E+10	1
4902549	35	C	07/26/2021	15:09	-132.290	47.295	0	115.10	0	7.6260	0	32.6190	0	25.459	0	114.110	0	241.3	4	82.0	4	-1E+10	1	-1E+10	1	-1E+10	1	-1E+10	1	-1E+10	1	-1E+10	1
4902549	35	C	07/26/2021	15:09	-132.290	47.295	0	116.10	0	7.6570	0	32.6610	0	25.488	0	115.101	0	236.6	4	80.4	4	-1E+10	1	-1E+10	1	-1E+10	1	-1E+10	1	-1E+10	1	-1E+10	1
4902549	35	C	07/26/2021	15:09	-132.290	47.295	0	117.10	0	7.6550	0	32.7230	0	25.537	0	116.092	0	232.8	4	79.2	4	-1E+10	1	-1E+10	1	-1E+10	1	-1E+10	1	-1E+10	1	-1E+10	1
4902549	35	C	07/26/2021	15:09	-132.290	47.295	0	117.90	0	7.6760	0	32.7450	0	25.551	0	116.885	0	229.5	4	78.1	4	-1E+10	1	-1E+10	1	-1E+10	1	-1E+10	1	-1E+10	1	-1E+10	1
4902549	35	C	07/26/2021	15:09	-132.290	47.295	0	119.10	0	7.6800	0	32.7690	0	25.570	0	118.074	0	224.5	4	76.4	4	-1E+10	1	-1E+10	1	-1E+10	1	-1E+10	1	-1E+10	1	-1E+10	1
4902549	35	C	07/26/2021	15:09	-132.290	47.295	0	120.00	0	7.6950	0	32.8000	0	25.592	0	118.966	0	220.2	4	75.0	4	-1E+10	1	-1E+10	1	-1E+10	1	-1E+10	1	-1E+10	1	-1E+10	1
4902549	35	C	07/26/2021	15:09	-132.290	47.295	0	121.20	0	7.7890	0	32.8780	0	25.640	0	120.155	0	216.3	4	73.9	4	-1E+10	1	-1E+10	1	-1E+10	1	-1E+10	1	-1E+10	1	-1E+10	1
4902549	35	C	07/26/2021	15:09	-132.290	47.295	0	121.90	0	7.8300	0	32.9080	0	25.658	0	120.849	0	214.3	4	73.3	4	-1E+10	1	-1E+10	1	-1E+10	1	-1E+10	1	-1E+10	1	-1E+10	1
4902549	35	C	07/26/2021	15:09	-132.290	47.295	0	123.10	0	7.8810	0	32.9710	0	25.700	0	122.039	0	211.7	4	72.5	4	-1E+10	1	-1E+10	1	-1E+10	1	-1E+10	1	-1E+10	1	-1E+10	1
4902549	35	C	07/26/2021	15:09	-132.290	47.295	0	124.00	0	7.8970	0	32.9930	0	25.715	0	122.930	0	210.1	4	72.0	4	-1E+10	1	-1E+10	1	-1E+10	1	-1E+10	1	-1E+10	1	-1E+10	1
4902549	35	C	07/26/2021	15:09	-132.290	47.295	0	125.20	0	7.9050	0	33.0170	0	25.733	0	124.120	0	208.0	4	71.3	4	-1E+10	1	-1E+10	1	-1E+10	1	-1E+10	1	-1E+10	1	-1E+10	1
4902549	35	C	07/26/2021	15:09	-132.290	47.295	0	125.90	0	7.9080	0	33.0330	0	25.745	0	124.814	0	206.9	4	70.9	4	-1E+10	1	-1E+10	1	-1E+10	1	-1E+10	1	-1E+10	1	-1E+10	1
4902549	35	C	07/26/2021	15:09	-132.290	47.295	0	126.80	0	7.9120	0	33.0700	0	25.773	0	125.705	0	205.6	4	70.5	4	-1E+10	1	-1E+10	1	-1E+10	1	-1E+10	1	-1E+10	1	-1E+10	1
4902549	35	C	07/26/2021	15:09	-132.290	47.295	0	127.80	0	7.9110	0	33.1140	0	25.808	0	126.697	0	204.3	4	70.1	4	-1E+10	1	-1E+10	1	-1E+10	1	-1E+10	1	-1E+10	1	-1E+10	1
4902549	35	C	07/26/2021	15:09	-132.290	47.295	0	128.80	0	7.9050	0	33.1330	0	25.824	0	127.688	0	203.0	4	69.6	4	-1E+10	1	-1E+10	1	-1E+10	1	-1E+10	1	-1E+10	1	-1E+10	1
4902549	35	C	07/26/2021	15:09	-132.290	47.295	0	129.90	0	7.8760	0	33.1910	0	25.873	0	128.778	0	201.8	4	69.2	4	-1E+10	1	-1E+10	1	-1E+10	1	-1E+10	1	-1E+10	1	-1E+10	1
4902549	35	C	07/26/2021	15:09	-132.290	47.295	0	131.00	0	7.8230	0	33.3080	0	25.973	0	129.868	0	200.5	4	68.7	4	-1E+10	1	-1E+10	1	-1E+10	1	-1E+10	1	-1E+10	1	-1E+10	1
4902549	35	C	07/26/2021	15:09	-132.290	47.295	0	132.00	0	7.7940	0	33.3440	0	26.005	0	130.859	0	199.3	4	68.3	4	-1E+10	1	-1E+10	1	-1E+10	1	-1E+10	1	-1E+10	1	-1E+10	1
4902549	35	C	07/26/2021	15:09	-132.290	47.295	0	133.00	0	7.7820	0	33.3650	0	26.024	0	131.850	0	198.1	4	67.9	4	-1E+10	1	-1E+10	1	-1E+10	1	-1E+10	1	-1E+10	1	-1E+10	1
4902549	35	C	07/26/2021	15:09	-132.290	47.295	0	134.00	0	7.7720	0	33.3900	0	26.045	0	132.841	0	196.7	4	67.4	4	-1E+10	1	-1E+10	1	-1E+10	1	-1E+10	1	-1E+10	1	-1E+10	1
4902549	35	C	07/26/2021	15:09	-132.290	47.295	0	135.00	0	7.7490	0	33.4370	0	26.085	0	133.832	0	195.5	4	67.0	4	-1E+10	1	-1E+10	1	-1E+10	1	-1E+10	1	-1E+10	1	-1E+10	1
4902549	35	C	07/26/2021	15:09	-132.290	47.295	0	136.20	0	7.7300	0	33.4740	0	26.117	0	135.021	0	194.8	4	66.7	4	-1E+10	1	-1E+10	1	-1E+10	1	-1E+10	1	-1E+10	1	-1E+10	1
4902549	35	C	07/26/2021	15:09	-132.290	47.295	0	137.00	0	7.7240	0	33.4820	0	26.124	0	135.814	0	194.2	4	66.5	4	-1E+10	1	-1E+10	1	-1E+10	1	-1E+10	1	-1E+10	1	-1E+10	1
4902549	35	C	07/26/2021	15:09	-132.290	47.295	0	137.80	0	7.6940	0	33.5160	0	26.155	0	136.607	0	193.9	4	66.4	4	-1E+10	1	-1E+10	1	-1E+10	1	-1E+10	1	-1E+10	1	-1E+10	1
4902549	35	C	07/26/2021	15:09	-132.290	47.295	0	138.90	0	7.6820	0	33.5430	0	26.178	0	137.697	0	193.3	4	66.2	4	-1E+10	1	-1E+10	1	-1E+10	1	-1E+10	1	-1E+10	1	-1E+10	1
4902549	35	C	07/26/2021	15:09	-132.290	47.295	0	140.20	0	7.6720	0	33.5510	0	26.186	0	138.985	0	192.6	4	65.9	4	-1E+10	1	-1E+10	1	-1E+10	1	-1E+10	1	-1E+10	1	-1E+10	1
4902549	35	C	07/26/2021	15:09	-132.290	47.295	0	141.00	0	7.6640	0	33.5780	0	26.208	0	139.778	0	192.2	4	65.8	4	-1E+10	1	-1E+10	1	-1E+10	1	-1E+10	1	-1E+10	1	-1E+10	1
4902549	35	C	07/26/2021	15:09	-132.290	47.295	0	141.80	0	7.6630	0	33.5830	0	26.212	0	140.571	0	191.8	4	65.7	4	-1E+10	1	-1E+10	1	-1E+10	1	-1E+10	1	-1E+10	1	-1E+10	1
4902549	35	C	07/26/2021	15:09	-132.290	47.295	0	143.00	0	7.6540	0	33.5940	0	26.222	0	141.760	0	191.2	4	65.5	4	-1E+10	1	-1E+10	1	-1E+10	1	-1E+10	1	-1E+10	1	-1E+10	1
4902549	35	C	07/26/2021	15:09	-132.290	47.295	0	144.30	0	7.6430	0	33.6110	0	26.237	0	143.048	0	190.7	4	65.3	4	-1E+10	1	-1E+10	1	-1E+10	1	-1E+10	1	-1E+10	1	-1E+10	1
4902549	35	C	07/26/2021	15:09	-132.290	47.295	0	145.10	0	7.6360	0	33.6150	0	26.241	0	143.841	0	190.3	4	65.1	4	-1E+10	1	-1E+10	1	-1E+10	1	-1E+10	1	-1E+10	1	-1E+10	1
4902549	35	C	07/26/2021	15:09	-132.290	47.295	0	146.00	0	7.6120	0	33.6290	0	26.256	0	144.733	0	190.0	4	65.0	4	-1E+10	1	-1E+10	1	-1E+10	1	-1E+10	1	-1E+10	1	-1E+10	1
4902549	35	C	07/26/2021	15:09	-132.290	47.295	0	146.80	0	7.5890	0	33.6340	0	26.263	0	145.526	0	189.8	4	64.9	4	-1E+10	1	-1E+10	1	-1E+10	1	-1E+10	1	-1E+10	1	-1E+10	1
4902549	35	C	07/26/2021	15:09	-132.290	47.295	0	147.70	0	7.5830	0	33.6360	0	26.265	0	146.418	0	189.4	4	64.8	4	-1E+10	1	-1E+10	1	-1E+10	1	-1E+10	1	-1E+10	1	-1E+10	1
4902549	35	C	07/26/2021	15:09	-132.290	47.295	0	148.90	0	7.6170	0	33.6510	0	26.272	0	147.607	0	188.7	4	64.6	4	-1E+10	1	-1E+10	1	-1E+10	1	-1E+10	1	-1E+10	1	-1E+10	1
4902549	35	C	07/26/2021	15:09	-132.290	47.295	0	150.30	0	7.5710	0	33.6630	0	26.288	0	148.994	0	188.2	4	64.3	4	-1E+10	1	-1E+10	1	-1E+10	1	-1E+10	1	-1E+10	1	-1E+10	1
4902549	35	C	07/26/2021	15:09	-132.290	47.295	0	151.20	0	7.5550	0	33.6890	0	26.311	0	149.886	0	187.8	4	64.2	4	-1E+10	1	-1E+10	1	-1E+10	1	-1E+10	1	-1E+10	1	-1E+10	1
4902549	35	C	07/26/2021	15:09	-132.290	47.295	0	152.10	0	7.5880	0	33.6880	0	26.306	0	150.778	0	187.5	4	64.1	4	-1E+10	1	-1E+10	1	-1E+10	1	-1E+10	1	-1E+10	1	-1E+10	1
4902549	35	C	07/26/2021	15:09	-132.290	47.295	0	152.90	0	7.6210	0	33.6900	0	26.302	0	151.571	0	187.0	4	64.0	4	-1E+10	1	-1E+10	1	-1E+10	1	-1E+10	1	-1E+10	1	-1E+10	1
4902549	35	C	07/26/2021	15:09	-132.290	47.295	0	153.80	0	7.6420	0	33.7000	0	26.307	0	152.462	0	186.4	4	63.8	4	-1E+10	1	-1E+10	1	-1E+10	1	-1E+10	1	-1E+10	1	-1E+10	1
4902549	35	C	07/26/2021	15:09	-132.290	47.295	0	154.70	0	7.6180	0	33.7070	0	26.316	0	153.354	0	186.0	4	63.7	4	-1E+10	1	-1E+10	1	-1E+10	1	-1E+10	1	-1E+10	1	-1E+10	1
4902549	35	C	07/26/2021	15:09	-132.290	47.295	0	156.00	0	7.5620	0	33.7090	0	26.326	0	154.642	0	185.6	4	63.4	4	-1E+10	1	-1E+10	1	-1E+10	1	-1E+10	1	-1E+10	1	-1E+10	1
4902549	35	C	07/26/2021	15:09	-132.290	47.295	0	157.30	0	7.5170	0	33.7070	0	26.331	0	155.931	0	185.0	4	63.2	4	-1E+10	1	-1E+10	1	-1E+10	1	-1E+10	1	-1E+10	1	-1E+10	1
4902549	35	C	07/26/2021	15:09	-132.290	47.295	0	158.20	0	7.4900	0	33.7100	0	26.337	0	156.823	0	184.7	4	63.1	4	-1E+10	1	-1E+10	1	-1E+10	1	-1E+10	1	-1E+10	1	-1E+10	1
4902549	35	C	07/26/2021	15:09	-132.290	47.295	0	159.10	0	7.5350	0	33.7340	0	26.349	0	157.714	0	184.2	4	62.9	4	-1E+10	1	-1E+10	1	-1E+10	1	-1E+10	1	-1E+10	1	-1E+10	1
4902549	35	C	07/26/2021	15:09	-132.290	47.295	0	160.10	0	7.5600	0	33.7440	0	26.354	0	158.705	0	183.5	4	62.8	4	-1E+10	1	-1E+10	1	-1E+10	1	-1E+10	1	-1E+10	1	-1E+10	1
4902549	35	C	07/26/2021	15:09	-132.290	47.295	0	160.90	0	7.5410	0	33.7490	0	26.360	0	159.498	0	183.1	4	62.6	4	-1E+10	1	-1E+10	1	-1E+10	1	-1E+10	1	-1E+10	1	-1E+10	1
4902549	35	C	07/26/2021	15:09	-132.290	47.295	0	161.80	0	7.5350	0	33.7530	0	26.364	0	160.390	0	182.7	4	62.4	4	-1E+10	1	-1E+10	1	-1E+10	1	-1E+10	1	-1E+10	1	-1E+10	1
4902549	35	C	07/26/2021	15:09	-132.290	47.295	0	162.80	0	7.4930	0	33.7540	0	26.371	0	161.381	0	182.4	4	62.3	4	-1E+10	1	-1E+10	1	-1E+10	1	-1E+10	1	-1E+10	1	-1E+10	1
4902549	35	C	07/26/2021	15:09	-132.290	47.295	0	163.70	0	7.4770	0	33.7550	0	26.374	0	162.272	0	182.1	4	62.1	4	-1E+10	1	-1E+10	1	-1E+10	1	-1E+10	1	-1E+10	1	-1E+10	1
4902549	35	C	07/26/2021	15:09	-132.290	47.295	0	164.60	0	7.4600	0	33.7540	0	26.376	0	163.164	0	181.6	4	62.0	4	-1E+10	1	-1E+10	1	-1E+10	1	-1E+10	1	-1E+10	1	-1E+10	1
4902549	35	C	07/26/2021	15:09	-132.290	47.295	0	165.90	0	7.4000	0	33.7550	0	26.385	0	164.452	0	181.1	4	61.7	4	-1E+10	1	-1E+10	1	-1E+10	1	-1E+10	1	-1E+10	1	-1E+10	1
4902549	35	C	07/26/2021	15:09	-132.290	47.295	0	167.30	0	7.3270	0	33.7540	0	26.395	0	165.840	0	180.7	4	61.5	4	-1E+10	1	-1E+10	1	-1E+10	1	-1E+10	1	-1E+10	1	-1E+10	1
4902549	35	C	07/26/2021	15:09	-132.290	47.295	0	168.20	0	7.2620	0	33.7560	0	26.405	0	166.731	0	180.6	4	61.3	4	-1E+10	1	-1E+10	1	-1E+10	1	-1E+10	1	-1E+10	1	-1E+10	1
4902549	35	C	07/26/2021	15:09	-132.290	47.295	0	169.20	0	7.2050	0	33.7530	0	26.411	0	167.722	0	180.3	4	61.2	4	-1E+10	1	-1E+10	1	-1E+10	1	-1E+10	1	-1E+10	1	-1E+10	1
4902549	35	C	07/26/2021	15:09	-132.290	47.295	0	170.10	0	7.1960	0	33.7520	0	26.411	0	168.614	0	179.9	4	61.0	4	-1E+10	1	-1E+10	1	-1E+10	1	-1E+10	1	-1E+10	1	-1E+10	1
4902549	35	C	07/26/2021	15:09	-132.290	47.295	0	171.00	0	7.1640	0	33.7600	0	26.422	0	169.506	0	179.6	4	60.9	4	-1E+10	1	-1E+10	1	-1E+10	1	-1E+10	1	-1E+10	1	-1E+10	1
4902549	35	C	07/26/2021	15:09	-132.290	47.295	0	172.00	0	7.1480	0	33.7590	0	26.423	0	170.497	0	179.1	4	60.7	4	-1E+10	1	-1E+10	1	-1E+10	1	-1E+10	1	-1E+10	1	-1E+10	1
4902549	35	C	07/26/2021	15:09	-132.290	47.295	0	172.90	0	7.1440	0	33.7590	0	26.424	0	171.388	0	178.7	4	60.5	4	-1E+10	1	-1E+10	1	-1E+10	1	-1E+10	1	-1E+10	1	-1E+10	1
4902549	35	C	07/26/2021	15:09	-132.290	47.295	0	173.90	0	7.1240	0	33.7630	0	26.430	0	172.379	0	178.2	4	60.4	4	-1E+10	1	-1E+10	1	-1E+10	1	-1E+10	1	-1E+10	1	-1E+10	1
4902549	35	C	07/26/2021	15:09	-132.290	47.295	0	174.90	0	7.0990	0	33.7650	0	26.435	0	173.370	0	177.9	4	60.2	4	-1E+10	1	-1E+10	1	-1E+10	1	-1E+10	1	-1E+10	1	-1E+10	1
4902549	35	C	07/26/2021	15:09	-132.290	47.295	0	175.80	0	7.0880	0	33.7660	0	26.437	0	174.262	0	177.4	4	60.0	4	-1E+10	1	-1E+10	1	-1E+10	1	-1E+10	1	-1E+10	1	-1E+10	1
4902549	35	C	07/26/2021	15:09	-132.290	47.295	0	176.80	0	7.0810	0	33.7660	0	26.438	0	175.253	0	177.0	4	59.9	4	-1E+10	1	-1E+10	1	-1E+10	1	-1E+10	1	-1E+10	1	-1E+10	1
4902549	35	C	07/26/2021	15:09	-132.290	47.295	0	177.80	0	7.0680	0	33.7670	0	26.441	0	176.244	0	176.6	4	59.7	4	-1E+10	1	-1E+10	1	-1E+10	1	-1E+10	1	-1E+10	1	-1E+10	1
4902549	35	C	07/26/2021	15:09	-132.290	47.295	0	178.80	0	7.0570	0	33.7670	0	26.442	0	177.234	0	176.1	4	59.5	4	-1E+10	1	-1E+10	1	-1E+10	1	-1E+10	1	-1E+10	1	-1E+10	1
4902549	35	C	07/26/2021	15:09	-132.290	47.295	0	179.80	0	7.0320	0	33.7690	0	26.447	0	178.225	0	175.6	4	59.3	4	-1E+10	1	-1E+10	1	-1E+10	1	-1E+10	1	-1E+10	1	-1E+10	1
4902549	35	C	07/26/2021	15:09	-132.290	47.295	0	180.70	0	7.0030	0	33.7680	0	26.450	0	179.117	0	175.2	4	59.2	4	-1E+10	1	-1E+10	1	-1E+10	1	-1E+10	1	-1E+10	1	-1E+10	1
4902549	35	C	07/26/2021	15:09	-132.290	47.295	0	181.70	0	6.9500	0	33.7660	0	26.456	0	180.108	0	174.9	4	59.0	4	-1E+10	1	-1E+10	1	-1E+10	1	-1E+10	1	-1E+10	1	-1E+10	1
4902549	35	C	07/26/2021	15:09	-132.290	47.295	0	182.70	0	6.9330	0	33.7650	0	26.458	0	181.098	0	174.5	4	58.8	4	-1E+10	1	-1E+10	1	-1E+10	1	-1E+10	1	-1E+10	1	-1E+10	1
4902549	35	C	07/26/2021	15:09	-132.290	47.295	0	183.60	0	6.9210	0	33.7620	0	26.457	0	181.990	0	174.1	4	58.7	4	-1E+10	1	-1E+10	1	-1E+10	1	-1E+10	1	-1E+10	1	-1E+10	1
4902549	35	C	07/26/2021	15:09	-132.290	47.295	0	184.60	0	6.8590	0	33.7670	0	26.469	0	182.981	0	173.7	4	58.5	4	-1E+10	1	-1E+10	1	-1E+10	1	-1E+10	1	-1E+10	1	-1E+10	1
4902549	35	C	07/26/2021	15:09	-132.290	47.295	0	185.60	0	6.8370	0	33.7620	0	26.468	0	183.972	0	173.3	4	58.3	4	-1E+10	1	-1E+10	1	-1E+10	1	-1E+10	1	-1E+10	1	-1E+10	1
4902549	35	C	07/26/2021	15:09	-132.290	47.295	0	186.60	0	6.8130	0	33.7620	0	26.471	0	184.963	0	172.9	4	58.1	4	-1E+10	1	-1E+10	1	-1E+10	1	-1E+10	1	-1E+10	1	-1E+10	1
4902549	35	C	07/26/2021	15:09	-132.290	47.295	0	187.50	0	6.7970	0	33.7620	0	26.474	0	185.854	0	172.4	4	58.0	4	-1E+10	1	-1E+10	1	-1E+10	1	-1E+10	1	-1E+10	1	-1E+10	1
4902549	35	C	07/26/2021	15:09	-132.290	47.295	0	188.50	0	6.7950	0	33.7650	0	26.476	0	186.845	0	171.9	4	57.8	4	-1E+10	1	-1E+10	1	-1E+10	1	-1E+10	1	-1E+10	1	-1E+10	1
4902549	35	C	07/26/2021	15:09	-132.290	47.295	0	189.50	0	6.7960	0	33.7660	0	26.477	0	187.836	0	171.4	4	57.6	4	-1E+10	1	-1E+10	1	-1E+10	1	-1E+10	1	-1E+10	1	-1E+10	1
4902549	35	C	07/26/2021	15:09	-132.290	47.295	0	190.50	0	6.7940	0	33.7660	0	26.477	0	188.827	0	170.9	4	57.4	4	-1E+10	1	-1E+10	1	-1E+10	1	-1E+10	1	-1E+10	1	-1E+10	1
4902549	35	C	07/26/2021	15:09	-132.290	47.295	0	191.50	0	6.7860	0	33.7690	0	26.481	0	189.817	0	170.3	4	57.2	4	-1E+10	1	-1E+10	1	-1E+10	1	-1E+10	1	-1E+10	1	-1E+10	1
4902549	35	C	07/26/2021	15:09	-132.290	47.295	0	192.90	0	6.7670	0	33.7680	0	26.482	0	191.204	0	169.4	4	56.9	4	-1E+10	1	-1E+10	1	-1E+10	1	-1E+10	1	-1E+10	1	-1E+10	1
4902549	35	C	07/26/2021	15:09	-132.290	47.295	0	194.40	0	6.7540	0	33.7670	0	26.483	0	192.690	0	168.5	4	56.6	4	-1E+10	1	-1E+10	1	-1E+10	1	-1E+10	1	-1E+10	1	-1E+10	1
4902549	35	C	07/26/2021	15:09	-132.290	47.295	0	195.40	0	6.7130	0	33.7680	0	26.490	0	193.681	0	167.8	4	56.3	4	-1E+10	1	-1E+10	1	-1E+10	1	-1E+10	1	-1E+10	1	-1E+10	1
4902549	35	C	07/26/2021	15:09	-132.290	47.295	0	196.40	0	6.6030	0	33.7630	0	26.500	0	194.672	0	167.9	4	56.2	4	-1E+10	1	-1E+10	1	-1E+10	1	-1E+10	1	-1E+10	1	-1E+10	1
4902549	35	C	07/26/2021	15:09	-132.290	47.295	0	197.40	0	6.5920	0	33.7630	0	26.502	0	195.663	0	167.3	4	56.0	4	-1E+10	1	-1E+10	1	-1E+10	1	-1E+10	1	-1E+10	1	-1E+10	1
4902549	35	C	07/26/2021	15:09	-132.290	47.295	0	198.40	0	6.5800	0	33.7620	0	26.502	0	196.653	0	166.8	4	55.8	4	-1E+10	1	-1E+10	1	-1E+10	1	-1E+10	1	-1E+10	1	-1E+10	1
4902549	35	C	07/26/2021	15:09	-132.290	47.295	0	199.30	0	6.5690	0	33.7620	0	26.504	0	197.545	0	166.2	4	55.6	4	-1E+10	1	-1E+10	1	-1E+10	1	-1E+10	1	-1E+10	1	-1E+10	1
4902549	35	C	07/26/2021	15:09	-132.290	47.295	0	200.30	0	6.5600	0	33.7620	0	26.505	0	198.536	0	165.5	4	55.3	4	-1E+10	1	-1E+10	1	-1E+10	1	-1E+10	1	-1E+10	1	-1E+10	1
4902549	35	C	07/26/2021	15:09	-132.290	47.295	0	201.30	0	6.5470	0	33.7600	0	26.505	0	199.526	0	164.8	4	55.1	4	-1E+10	1	-1E+10	1	-1E+10	1	-1E+10	1	-1E+10	1	-1E+10	1
4902549	35	C	07/26/2021	15:09	-132.290	47.295	0	202.30	0	6.5410	0	33.7590	0	26.505	0	200.517	0	164.0	4	54.8	4	-1E+10	1	-1E+10	1	-1E+10	1	-1E+10	1	-1E+10	1	-1E+10	1
4902549	35	C	07/26/2021	15:09	-132.290	47.295	0	203.30	0	6.5330	0	33.7590	0	26.506	0	201.508	0	163.1	4	54.5	4	-1E+10	1	-1E+10	1	-1E+10	1	-1E+10	1	-1E+10	1	-1E+10	1
4902549	35	C	07/26/2021	15:09	-132.290	47.295	0	204.30	0	6.4970	0	33.7560	0	26.509	0	202.499	0	162.3	4	54.2	4	-1E+10	1	-1E+10	1	-1E+10	1	-1E+10	1	-1E+10	1	-1E+10	1
4902549	35	C	07/26/2021	15:09	-132.290	47.295	0	205.30	0	6.4510	0	33.7540	0	26.513	0	203.489	0	161.4	4	53.8	4	-1E+10	1	-1E+10	1	-1E+10	1	-1E+10	1	-1E+10	1	-1E+10	1
4902549	35	C	07/26/2021	15:09	-132.290	47.295	0	206.30	0	6.3960	0	33.7550	0	26.521	0	204.480	0	160.6	4	53.5	4	-1E+10	1	-1E+10	1	-1E+10	1	-1E+10	1	-1E+10	1	-1E+10	1
4902549	35	C	07/26/2021	15:09	-132.290	47.295	0	207.30	0	6.3810	0	33.7560	0	26.524	0	205.471	0	159.7	4	53.2	4	-1E+10	1	-1E+10	1	-1E+10	1	-1E+10	1	-1E+10	1	-1E+10	1
4902549	35	C	07/26/2021	15:09	-132.290	47.295	0	208.30	0	6.3570	0	33.7590	0	26.529	0	206.461	0	158.8	4	52.8	4	-1E+10	1	-1E+10	1	-1E+10	1	-1E+10	1	-1E+10	1	-1E+10	1
4902549	35	C	07/26/2021	15:09	-132.290	47.295	0	209.20	0	6.3400	0	33.7590	0	26.531	0	207.353	0	157.8	4	52.5	4	-1E+10	1	-1E+10	1	-1E+10	1	-1E+10	1	-1E+10	1	-1E+10	1
4902549	35	C	07/26/2021	15:09	-132.290	47.295	0	210.20	0	6.3220	0	33.7600	0	26.534	0	208.344	0	156.8	4	52.1	4	-1E+10	1	-1E+10	1	-1E+10	1	-1E+10	1	-1E+10	1	-1E+10	1
4902549	35	C	07/26/2021	15:09	-132.290	47.295	0	211.20	0	6.3050	0	33.7600	0	26.537	0	209.334	0	155.7	4	51.8	4	-1E+10	1	-1E+10	1	-1E+10	1	-1E+10	1	-1E+10	1	-1E+10	1
4902549	35	C	07/26/2021	15:09	-132.290	47.295	0	212.20	0	6.2900	0	33.7610	0	26.539	0	210.325	0	154.5	4	51.3	4	-1E+10	1	-1E+10	1	-1E+10	1	-1E+10	1	-1E+10	1	-1E+10	1
4902549	35	C	07/26/2021	15:09	-132.290	47.295	0	213.20	0	6.2310	0	33.7650	0	26.550	0	211.316	0	153.6	4	50.9	4	-1E+10	1	-1E+10	1	-1E+10	1	-1E+10	1	-1E+10	1	-1E+10	1
4902549	35	C	07/26/2021	15:09	-132.290	47.295	0	214.20	0	6.2070	0	33.7650	0	26.553	0	212.306	0	152.8	4	50.7	4	-1E+10	1	-1E+10	1	-1E+10	1	-1E+10	1	-1E+10	1	-1E+10	1
4902549	35	C	07/26/2021	15:09	-132.290	47.295	0	215.20	0	6.1960	0	33.7650	0	26.555	0	213.297	0	151.7	4	50.3	4	-1E+10	1	-1E+10	1	-1E+10	1	-1E+10	1	-1E+10	1	-1E+10	1
4902549	35	C	07/26/2021	15:09	-132.290	47.295	0	216.20	0	6.1880	0	33.7650	0	26.556	0	214.287	0	150.5	4	49.9	4	-1E+10	1	-1E+10	1	-1E+10	1	-1E+10	1	-1E+10	1	-1E+10	1
4902549	35	C	07/26/2021	15:09	-132.290	47.295	0	217.10	0	6.1760	0	33.7650	0	26.557	0	215.179	0	149.3	4	49.5	4	-1E+10	1	-1E+10	1	-1E+10	1	-1E+10	1	-1E+10	1	-1E+10	1
4902549	35	C	07/26/2021	15:09	-132.290	47.295	0	218.10	0	6.1540	0	33.7700	0	26.564	0	216.170	0	148.1	4	49.1	4	-1E+10	1	-1E+10	1	-1E+10	1	-1E+10	1	-1E+10	1	-1E+10	1
4902549	35	C	07/26/2021	15:09	-132.290	47.295	0	219.10	0	6.0960	0	33.7750	0	26.575	0	217.160	0	147.3	4	48.7	4	-1E+10	1	-1E+10	1	-1E+10	1	-1E+10	1	-1E+10	1	-1E+10	1
4902549	35	C	07/26/2021	15:09	-132.290	47.295	0	220.10	0	6.0770	0	33.7750	0	26.578	0	218.151	0	146.5	4	48.4	4	-1E+10	1	-1E+10	1	-1E+10	1	-1E+10	1	-1E+10	1	-1E+10	1
4902549	35	C	07/26/2021	15:09	-132.290	47.295	0	221.10	0	6.0520	0	33.7810	0	26.585	0	219.142	0	145.7	4	48.2	4	-1E+10	1	-1E+10	1	-1E+10	1	-1E+10	1	-1E+10	1	-1E+10	1
4902549	35	C	07/26/2021	15:09	-132.290	47.295	0	222.10	0	6.0250	0	33.7830	0	26.590	0	220.132	0	145.1	4	47.9	4	-1E+10	1	-1E+10	1	-1E+10	1	-1E+10	1	-1E+10	1	-1E+10	1
4902549	35	C	07/26/2021	15:09	-132.290	47.295	0	223.10	0	6.0170	0	33.7810	0	26.590	0	221.123	0	144.4	4	47.7	4	-1E+10	1	-1E+10	1	-1E+10	1	-1E+10	1	-1E+10	1	-1E+10	1
4902549	35	C	07/26/2021	15:09	-132.290	47.295	0	224.10	0	6.0090	0	33.7830	0	26.592	0	222.113	0	143.7	4	47.5	4	-1E+10	1	-1E+10	1	-1E+10	1	-1E+10	1	-1E+10	1	-1E+10	1
4902549	35	C	07/26/2021	15:09	-132.290	47.295	0	225.10	0	5.9940	0	33.7850	0	26.596	0	223.104	0	143.2	4	47.3	4	-1E+10	1	-1E+10	1	-1E+10	1	-1E+10	1	-1E+10	1	-1E+10	1
4902549	35	C	07/26/2021	15:09	-132.290	47.295	0	226.10	0	5.9820	0	33.7860	0	26.598	0	224.095	0	142.6	4	47.1	4	-1E+10	1	-1E+10	1	-1E+10	1	-1E+10	1	-1E+10	1	-1E+10	1
4902549	35	C	07/26/2021	15:09	-132.290	47.295	0	227.10	0	5.9710	0	33.7880	0	26.601	0	225.085	0	142.1	4	46.9	4	-1E+10	1	-1E+10	1	-1E+10	1	-1E+10	1	-1E+10	1	-1E+10	1
4902549	35	C	07/26/2021	15:09	-132.290	47.295	0	228.10	0	5.9710	0	33.7870	0	26.600	0	226.076	0	141.5	4	46.7	4	-1E+10	1	-1E+10	1	-1E+10	1	-1E+10	1	-1E+10	1	-1E+10	1
4902549	35	C	07/26/2021	15:09	-132.290	47.295	0	229.10	0	5.9630	0	33.7880	0	26.602	0	227.066	0	140.8	4	46.4	4	-1E+10	1	-1E+10	1	-1E+10	1	-1E+10	1	-1E+10	1	-1E+10	1
4902549	35	C	07/26/2021	15:09	-132.290	47.295	0	230.10	0	5.9550	0	33.7900	0	26.605	0	228.057	0	140.2	4	46.2	4	-1E+10	1	-1E+10	1	-1E+10	1	-1E+10	1	-1E+10	1	-1E+10	1
4902549	35	C	07/26/2021	15:09	-132.290	47.295	0	231.10	0	5.9440	0	33.7910	0	26.607	0	229.047	0	139.6	4	46.0	4	-1E+10	1	-1E+10	1	-1E+10	1	-1E+10	1	-1E+10	1	-1E+10	1
4902549	35	C	07/26/2021	15:09	-132.290	47.295	0	232.10	0	5.9380	0	33.7910	0	26.608	0	230.038	0	138.9	4	45.8	4	-1E+10	1	-1E+10	1	-1E+10	1	-1E+10	1	-1E+10	1	-1E+10	1
4902549	35	C	07/26/2021	15:09	-132.290	47.295	0	233.10	0	5.9220	0	33.7940	0	26.612	0	231.029	0	138.3	4	45.6	4	-1E+10	1	-1E+10	1	-1E+10	1	-1E+10	1	-1E+10	1	-1E+10	1
4902549	35	C	07/26/2021	15:09	-132.290	47.295	0	234.10	0	5.9120	0	33.7950	0	26.614	0	232.019	0	137.7	4	45.4	4	-1E+10	1	-1E+10	1	-1E+10	1	-1E+10	1	-1E+10	1	-1E+10	1
4902549	35	C	07/26/2021	15:09	-132.290	47.295	0	235.20	0	5.8910	0	33.7970	0	26.618	0	233.109	0	137.3	4	45.2	4	-1E+10	1	-1E+10	1	-1E+10	1	-1E+10	1	-1E+10	1	-1E+10	1
4902549	35	C	07/26/2021	15:09	-132.290	47.295	0	236.20	0	5.8800	0	33.7990	0	26.621	0	234.099	0	137.0	4	45.1	4	-1E+10	1	-1E+10	1	-1E+10	1	-1E+10	1	-1E+10	1	-1E+10	1
4902549	35	C	07/26/2021	15:09	-132.290	47.295	0	237.30	0	5.8750	0	33.8010	0	26.623	0	235.189	0	136.6	4	45.0	4	-1E+10	1	-1E+10	1	-1E+10	1	-1E+10	1	-1E+10	1	-1E+10	1
4902549	35	C	07/26/2021	15:09	-132.290	47.295	0	238.30	0	5.8730	0	33.8000	0	26.623	0	236.179	0	136.1	4	44.8	4	-1E+10	1	-1E+10	1	-1E+10	1	-1E+10	1	-1E+10	1	-1E+10	1
4902549	35	C	07/26/2021	15:09	-132.290	47.295	0	239.30	0	5.8710	0	33.8000	0	26.623	0	237.170	0	135.7	4	44.7	4	-1E+10	1	-1E+10	1	-1E+10	1	-1E+10	1	-1E+10	1	-1E+10	1
4902549	35	C	07/26/2021	15:09	-132.290	47.295	0	240.30	0	5.8670	0	33.8010	0	26.624	0	238.160	0	135.2	4	44.5	4	-1E+10	1	-1E+10	1	-1E+10	1	-1E+10	1	-1E+10	1	-1E+10	1
4902549	35	C	07/26/2021	15:09	-132.290	47.295	0	241.40	0	5.8610	0	33.8020	0	26.626	0	239.250	0	134.7	4	44.3	4	-1E+10	1	-1E+10	1	-1E+10	1	-1E+10	1	-1E+10	1	-1E+10	1
4902549	35	C	07/26/2021	15:09	-132.290	47.295	0	242.40	0	5.8520	0	33.8030	0	26.628	0	240.240	0	134.3	4	44.2	4	-1E+10	1	-1E+10	1	-1E+10	1	-1E+10	1	-1E+10	1	-1E+10	1
4902549	35	C	07/26/2021	15:09	-132.290	47.295	0	243.30	0	5.8520	0	33.8020	0	26.627	0	241.132	0	133.8	4	44.0	4	-1E+10	1	-1E+10	1	-1E+10	1	-1E+10	1	-1E+10	1	-1E+10	1
4902549	35	C	07/26/2021	15:09	-132.290	47.295	0	244.80	0	5.8440	0	33.8030	0	26.629	0	242.618	0	132.7	4	43.6	4	-1E+10	1	-1E+10	1	-1E+10	1	-1E+10	1	-1E+10	1	-1E+10	1
4902549	35	C	07/26/2021	15:09	-132.290	47.295	0	246.00	0	5.8380	0	33.8030	0	26.630	0	243.806	0	131.7	4	43.3	4	-1E+10	1	-1E+10	1	-1E+10	1	-1E+10	1	-1E+10	1	-1E+10	1
4902549	35	C	07/26/2021	15:09	-132.290	47.295	0	246.80	0	5.8250	0	33.8040	0	26.632	0	244.599	0	131.2	4	43.1	4	-1E+10	1	-1E+10	1	-1E+10	1	-1E+10	1	-1E+10	1	-1E+10	1
4902549	35	C	07/26/2021	15:09	-132.290	47.295	0	248.00	0	5.7960	0	33.8080	0	26.639	0	245.787	0	130.5	4	42.9	4	-1E+10	1	-1E+10	1	-1E+10	1	-1E+10	1	-1E+10	1	-1E+10	1
4902549	35	C	07/26/2021	15:09	-132.290	47.295	0	249.20	0	5.7750	0	33.8090	0	26.642	0	246.976	0	130.0	4	42.7	4	-1E+10	1	-1E+10	1	-1E+10	1	-1E+10	1	-1E+10	1	-1E+10	1
4902549	35	C	07/26/2021	15:09	-132.290	47.295	0	250.00	0	5.7660	0	33.8100	0	26.644	0	247.768	0	129.6	4	42.5	4	-1E+10	1	-1E+10	1	-1E+10	1	-1E+10	1	-1E+10	1	-1E+10	1
4902549	35	C	07/26/2021	15:09	-132.290	47.295	0	250.80	0	5.7630	0	33.8100	0	26.644	0	248.561	0	129.1	4	42.4	4	-1E+10	1	-1E+10	1	-1E+10	1	-1E+10	1	-1E+10	1	-1E+10	1
4902549	35	C	07/26/2021	15:09	-132.290	47.295	0	251.70	0	5.7530	0	33.8110	0	26.646	0	249.452	0	128.7	4	42.2	4	-1E+10	1	-1E+10	1	-1E+10	1	-1E+10	1	-1E+10	1	-1E+10	1
4902549	35	C	07/26/2021	15:09	-132.290	47.295	0	252.90	0	5.7450	0	33.8100	0	26.647	0	250.641	0	128.0	4	42.0	4	-1E+10	1	-1E+10	1	-1E+10	1	-1E+10	1	-1E+10	1	-1E+10	1
4902549	35	C	07/26/2021	15:09	-132.290	47.295	0	254.10	0	5.7390	0	33.8110	0	26.648	0	251.829	0	127.3	4	41.8	4	-1E+10	1	-1E+10	1	-1E+10	1	-1E+10	1	-1E+10	1	-1E+10	1
4902549	35	C	07/26/2021	15:09	-132.290	47.295	0	254.90	0	5.7330	0	33.8110	0	26.649	0	252.621	0	126.7	4	41.6	4	-1E+10	1	-1E+10	1	-1E+10	1	-1E+10	1	-1E+10	1	-1E+10	1
4902549	35	C	07/26/2021	15:09	-132.290	47.295	0	255.70	0	5.7270	0	33.8110	0	26.650	0	253.414	0	126.1	4	41.4	4	-1E+10	1	-1E+10	1	-1E+10	1	-1E+10	1	-1E+10	1	-1E+10	1
4902549	35	C	07/26/2021	15:09	-132.290	47.295	0	256.90	0	5.7080	0	33.8130	0	26.654	0	254.602	0	125.3	4	41.1	4	-1E+10	1	-1E+10	1	-1E+10	1	-1E+10	1	-1E+10	1	-1E+10	1
4902549	35	C	07/26/2021	15:09	-132.290	47.295	0	258.20	0	5.6990	0	33.8130	0	26.655	0	255.890	0	124.4	4	40.8	4	-1E+10	1	-1E+10	1	-1E+10	1	-1E+10	1	-1E+10	1	-1E+10	1
4902549	35	C	07/26/2021	15:09	-132.290	47.295	0	259.00	0	5.6890	0	33.8130	0	26.656	0	256.682	0	123.7	4	40.6	4	-1E+10	1	-1E+10	1	-1E+10	1	-1E+10	1	-1E+10	1	-1E+10	1
4902549	35	C	07/26/2021	15:09	-132.290	47.295	0	259.80	0	5.6790	0	33.8140	0	26.658	0	257.475	0	123.1	4	40.3	4	-1E+10	1	-1E+10	1	-1E+10	1	-1E+10	1	-1E+10	1	-1E+10	1
4902549	35	C	07/26/2021	15:09	-132.290	47.295	0	261.00	0	5.6660	0	33.8140	0	26.659	0	258.663	0	121.9	4	39.9	4	-1E+10	1	-1E+10	1	-1E+10	1	-1E+10	1	-1E+10	1	-1E+10	1
4902549	35	C	07/26/2021	15:09	-132.290	47.295	0	262.30	0	5.6330	0	33.8160	0	26.665	0	259.951	0	121.0	4	39.6	4	-1E+10	1	-1E+10	1	-1E+10	1	-1E+10	1	-1E+10	1	-1E+10	1
4902549	35	C	07/26/2021	15:09	-132.290	47.295	0	263.10	0	5.6070	0	33.8200	0	26.671	0	260.743	0	120.5	4	39.4	4	-1E+10	1	-1E+10	1	-1E+10	1	-1E+10	1	-1E+10	1	-1E+10	1
4902549	35	C	07/26/2021	15:09	-132.290	47.295	0	263.90	0	5.5830	0	33.8210	0	26.675	0	261.535	0	120.1	4	39.3	4	-1E+10	1	-1E+10	1	-1E+10	1	-1E+10	1	-1E+10	1	-1E+10	1
4902549	35	C	07/26/2021	15:09	-132.290	47.295	0	264.80	0	5.5750	0	33.8220	0	26.677	0	262.427	0	119.7	4	39.1	4	-1E+10	1	-1E+10	1	-1E+10	1	-1E+10	1	-1E+10	1	-1E+10	1
4902549	35	C	07/26/2021	15:09	-132.290	47.295	0	265.60	0	5.5630	0	33.8230	0	26.679	0	263.219	0	119.4	4	39.0	4	-1E+10	1	-1E+10	1	-1E+10	1	-1E+10	1	-1E+10	1	-1E+10	1
4902549	35	C	07/26/2021	15:09	-132.290	47.295	0	266.90	0	5.5450	0	33.8260	0	26.684	0	264.507	0	119.0	4	38.9	4	-1E+10	1	-1E+10	1	-1E+10	1	-1E+10	1	-1E+10	1	-1E+10	1
4902549	35	C	07/26/2021	15:09	-132.290	47.295	0	268.10	0	5.5290	0	33.8260	0	26.685	0	265.695	0	118.6	4	38.7	4	-1E+10	1	-1E+10	1	-1E+10	1	-1E+10	1	-1E+10	1	-1E+10	1
4902549	35	C	07/26/2021	15:09	-132.290	47.295	0	269.00	0	5.5360	0	33.8260	0	26.685	0	266.586	0	118.3	4	38.6	4	-1E+10	1	-1E+10	1	-1E+10	1	-1E+10	1	-1E+10	1	-1E+10	1
4902549	35	C	07/26/2021	15:09	-132.290	47.295	0	269.80	0	5.5380	0	33.8280	0	26.686	0	267.379	0	117.9	4	38.5	4	-1E+10	1	-1E+10	1	-1E+10	1	-1E+10	1	-1E+10	1	-1E+10	1
4902549	35	C	07/26/2021	15:09	-132.290	47.295	0	271.00	0	5.5410	0	33.8280	0	26.686	0	268.567	0	117.3	4	38.3	4	-1E+10	1	-1E+10	1	-1E+10	1	-1E+10	1	-1E+10	1	-1E+10	1
4902549	35	C	07/26/2021	15:09	-132.290	47.295	0	272.30	0	5.5340	0	33.8310	0	26.689	0	269.855	0	116.6	4	38.1	4	-1E+10	1	-1E+10	1	-1E+10	1	-1E+10	1	-1E+10	1	-1E+10	1
4902549	35	C	07/26/2021	15:09	-132.290	47.295	0	273.10	0	5.5030	0	33.8320	0	26.693	0	270.647	0	116.3	4	38.0	4	-1E+10	1	-1E+10	1	-1E+10	1	-1E+10	1	-1E+10	1	-1E+10	1
4902549	35	C	07/26/2021	15:09	-132.290	47.295	0	273.90	0	5.4900	0	33.8310	0	26.694	0	271.439	0	116.0	4	37.8	4	-1E+10	1	-1E+10	1	-1E+10	1	-1E+10	1	-1E+10	1	-1E+10	1
4902549	35	C	07/26/2021	15:09	-132.290	47.295	0	274.80	0	5.4720	0	33.8310	0	26.696	0	272.330	0	115.7	4	37.7	4	-1E+10	1	-1E+10	1	-1E+10	1	-1E+10	1	-1E+10	1	-1E+10	1
4902549	35	C	07/26/2021	15:09	-132.290	47.295	0	275.60	0	5.4670	0	33.8310	0	26.697	0	273.123	0	115.5	4	37.7	4	-1E+10	1	-1E+10	1	-1E+10	1	-1E+10	1	-1E+10	1	-1E+10	1
4902549	35	C	07/26/2021	15:09	-132.290	47.295	0	276.90	0	5.4680	0	33.8350	0	26.700	0	274.410	0	115.0	4	37.5	4	-1E+10	1	-1E+10	1	-1E+10	1	-1E+10	1	-1E+10	1	-1E+10	1
4902549	35	C	07/26/2021	15:09	-132.290	47.295	0	278.10	0	5.4770	0	33.8400	0	26.703	0	275.599	0	114.6	4	37.4	4	-1E+10	1	-1E+10	1	-1E+10	1	-1E+10	1	-1E+10	1	-1E+10	1
4902549	35	C	07/26/2021	15:09	-132.290	47.295	0	278.90	0	5.5030	0	33.8400	0	26.700	0	276.391	0	114.2	4	37.3	4	-1E+10	1	-1E+10	1	-1E+10	1	-1E+10	1	-1E+10	1	-1E+10	1
4902549	35	C	07/26/2021	15:09	-132.290	47.295	0	279.80	0	5.5160	0	33.8460	0	26.703	0	277.282	0	113.7	4	37.1	4	-1E+10	1	-1E+10	1	-1E+10	1	-1E+10	1	-1E+10	1	-1E+10	1
4902549	35	C	07/26/2021	15:09	-132.290	47.295	0	281.00	0	5.5160	0	33.8480	0	26.705	0	278.471	0	113.2	4	36.9	4	-1E+10	1	-1E+10	1	-1E+10	1	-1E+10	1	-1E+10	1	-1E+10	1
4902549	35	C	07/26/2021	15:09	-132.290	47.295	0	282.30	0	5.5100	0	33.8480	0	26.705	0	279.758	0	112.5	4	36.7	4	-1E+10	1	-1E+10	1	-1E+10	1	-1E+10	1	-1E+10	1	-1E+10	1
4902549	35	C	07/26/2021	15:09	-132.290	47.295	0	283.10	0	5.5150	0	33.8510	0	26.707	0	280.550	0	112.0	4	36.6	4	-1E+10	1	-1E+10	1	-1E+10	1	-1E+10	1	-1E+10	1	-1E+10	1
4902549	35	C	07/26/2021	15:09	-132.290	47.295	0	283.90	0	5.5050	0	33.8540	0	26.711	0	281.343	0	111.6	4	36.4	4	-1E+10	1	-1E+10	1	-1E+10	1	-1E+10	1	-1E+10	1	-1E+10	1
4902549	35	C	07/26/2021	15:09	-132.290	47.295	0	284.80	0	5.4900	0	33.8520	0	26.711	0	282.234	0	111.3	4	36.3	4	-1E+10	1	-1E+10	1	-1E+10	1	-1E+10	1	-1E+10	1	-1E+10	1
4902549	35	C	07/26/2021	15:09	-132.290	47.295	0	285.60	0	5.4830	0	33.8540	0	26.713	0	283.026	0	110.8	4	36.2	4	-1E+10	1	-1E+10	1	-1E+10	1	-1E+10	1	-1E+10	1	-1E+10	1
4902549	35	C	07/26/2021	15:09	-132.290	47.295	0	286.90	0	5.4610	0	33.8540	0	26.716	0	284.313	0	110.4	4	36.0	4	-1E+10	1	-1E+10	1	-1E+10	1	-1E+10	1	-1E+10	1	-1E+10	1
4902549	35	C	07/26/2021	15:09	-132.290	47.295	0	288.20	0	5.4440	0	33.8550	0	26.719	0	285.601	0	110.0	4	35.9	4	-1E+10	1	-1E+10	1	-1E+10	1	-1E+10	1	-1E+10	1	-1E+10	1
4902549	35	C	07/26/2021	15:09	-132.290	47.295	0	289.10	0	5.4390	0	33.8540	0	26.719	0	286.492	0	109.7	4	35.8	4	-1E+10	1	-1E+10	1	-1E+10	1	-1E+10	1	-1E+10	1	-1E+10	1
4902549	35	C	07/26/2021	15:09	-132.290	47.295	0	290.00	0	5.4290	0	33.8550	0	26.721	0	287.383	0	109.4	4	35.6	4	-1E+10	1	-1E+10	1	-1E+10	1	-1E+10	1	-1E+10	1	-1E+10	1
4902549	35	C	07/26/2021	15:09	-132.290	47.295	0	290.80	0	5.4250	0	33.8540	0	26.720	0	288.176	0	109.0	4	35.5	4	-1E+10	1	-1E+10	1	-1E+10	1	-1E+10	1	-1E+10	1	-1E+10	1
4902549	35	C	07/26/2021	15:09	-132.290	47.295	0	291.70	0	5.4200	0	33.8540	0	26.721	0	289.067	0	108.7	4	35.4	4	-1E+10	1	-1E+10	1	-1E+10	1	-1E+10	1	-1E+10	1	-1E+10	1
4902549	35	C	07/26/2021	15:09	-132.290	47.295	0	292.60	0	5.4010	0	33.8550	0	26.724	0	289.958	0	108.4	4	35.3	4	-1E+10	1	-1E+10	1	-1E+10	1	-1E+10	1	-1E+10	1	-1E+10	1
4902549	35	C	07/26/2021	15:09	-132.290	47.295	0	293.90	0	5.3970	0	33.8550	0	26.724	0	291.245	0	107.8	4	35.1	4	-1E+10	1	-1E+10	1	-1E+10	1	-1E+10	1	-1E+10	1	-1E+10	1
4902549	35	C	07/26/2021	15:09	-132.290	47.295	0	295.20	0	5.3930	0	33.8550	0	26.725	0	292.533	0	107.2	4	34.9	4	-1E+10	1	-1E+10	1	-1E+10	1	-1E+10	1	-1E+10	1	-1E+10	1
4902549	35	C	07/26/2021	15:09	-132.290	47.295	0	296.10	0	5.3870	0	33.8550	0	26.726	0	293.424	0	106.8	4	34.8	4	-1E+10	1	-1E+10	1	-1E+10	1	-1E+10	1	-1E+10	1	-1E+10	1
4902549	35	C	07/26/2021	15:09	-132.290	47.295	0	297.00	0	5.3820	0	33.8550	0	26.726	0	294.315	0	106.3	4	34.6	4	-1E+10	1	-1E+10	1	-1E+10	1	-1E+10	1	-1E+10	1	-1E+10	1
4902549	35	C	07/26/2021	15:09	-132.290	47.295	0	297.90	0	5.3720	0	33.8550	0	26.727	0	295.206	0	105.8	4	34.4	4	-1E+10	1	-1E+10	1	-1E+10	1	-1E+10	1	-1E+10	1	-1E+10	1
4902549	35	C	07/26/2021	15:09	-132.290	47.295	0	298.80	0	5.3690	0	33.8560	0	26.728	0	296.098	0	105.3	4	34.3	4	-1E+10	1	-1E+10	1	-1E+10	1	-1E+10	1	-1E+10	1	-1E+10	1
4902549	35	C	07/26/2021	15:09	-132.290	47.295	0	299.70	0	5.3560	0	33.8560	0	26.730	0	296.989	0	104.8	4	34.1	4	-1E+10	1	-1E+10	1	-1E+10	1	-1E+10	1	-1E+10	1	-1E+10	1
4902549	35	C	07/26/2021	15:09	-132.290	47.295	0	300.60	0	5.3510	0	33.8570	0	26.731	0	297.880	0	104.3	4	33.9	4	-1E+10	1	-1E+10	1	-1E+10	1	-1E+10	1	-1E+10	1	-1E+10	1
4902549	35	C	07/26/2021	15:09	-132.290	47.295	0	301.90	0	5.3360	0	33.8580	0	26.734	0	299.167	0	103.5	4	33.6	4	-1E+10	1	-1E+10	1	-1E+10	1	-1E+10	1	-1E+10	1	-1E+10	1
4902549	35	C	07/26/2021	15:09	-132.290	47.295	0	303.30	0	5.3180	0	33.8580	0	26.736	0	300.554	0	102.7	4	33.4	4	-1E+10	1	-1E+10	1	-1E+10	1	-1E+10	1	-1E+10	1	-1E+10	1
4902549	35	C	07/26/2021	15:09	-132.290	47.295	0	304.20	0	5.3050	0	33.8600	0	26.739	0	301.445	0	102.2	4	33.2	4	-1E+10	1	-1E+10	1	-1E+10	1	-1E+10	1	-1E+10	1	-1E+10	1
4902549	35	C	07/26/2021	15:09	-132.290	47.295	0	305.10	0	5.2920	0	33.8600	0	26.741	0	302.336	0	101.8	4	33.1	4	-1E+10	1	-1E+10	1	-1E+10	1	-1E+10	1	-1E+10	1	-1E+10	1
4902549	35	C	07/26/2021	15:09	-132.290	47.295	0	306.00	0	5.2830	0	33.8610	0	26.743	0	303.227	0	101.3	4	32.9	4	-1E+10	1	-1E+10	1	-1E+10	1	-1E+10	1	-1E+10	1	-1E+10	1
4902549	35	C	07/26/2021	15:09	-132.290	47.295	0	306.90	0	5.2750	0	33.8590	0	26.742	0	304.118	0	100.8	4	32.7	4	-1E+10	1	-1E+10	1	-1E+10	1	-1E+10	1	-1E+10	1	-1E+10	1
4902549	35	C	07/26/2021	15:09	-132.290	47.295	0	307.80	0	5.2690	0	33.8620	0	26.745	0	305.010	0	100.3	4	32.6	4	-1E+10	1	-1E+10	1	-1E+10	1	-1E+10	1	-1E+10	1	-1E+10	1
4902549	35	C	07/26/2021	15:09	-132.290	47.295	0	308.70	0	5.2450	0	33.8630	0	26.749	0	305.901	0	99.9	4	32.4	4	-1E+10	1	-1E+10	1	-1E+10	1	-1E+10	1	-1E+10	1	-1E+10	1
4902549	35	C	07/26/2021	15:09	-132.290	47.295	0	309.70	0	5.2360	0	33.8630	0	26.750	0	306.891	0	99.6	4	32.3	4	-1E+10	1	-1E+10	1	-1E+10	1	-1E+10	1	-1E+10	1	-1E+10	1
4902549	35	C	07/26/2021	15:09	-132.290	47.295	0	310.60	0	5.2160	0	33.8660	0	26.754	0	307.782	0	99.3	4	32.2	4	-1E+10	1	-1E+10	1	-1E+10	1	-1E+10	1	-1E+10	1	-1E+10	1
4902549	35	C	07/26/2021	15:09	-132.290	47.295	0	311.90	0	5.2070	0	33.8670	0	26.756	0	309.069	0	98.7	4	32.0	4	-1E+10	1	-1E+10	1	-1E+10	1	-1E+10	1	-1E+10	1	-1E+10	1
4902549	35	C	07/26/2021	15:09	-132.290	47.295	0	313.30	0	5.1940	0	33.8680	0	26.758	0	310.456	0	98.2	4	31.8	4	-1E+10	1	-1E+10	1	-1E+10	1	-1E+10	1	-1E+10	1	-1E+10	1
4902549	35	C	07/26/2021	15:09	-132.290	47.295	0	314.30	0	5.1910	0	33.8680	0	26.759	0	311.446	0	97.9	4	31.7	4	-1E+10	1	-1E+10	1	-1E+10	1	-1E+10	1	-1E+10	1	-1E+10	1
4902549	35	C	07/26/2021	15:09	-132.290	47.295	0	315.20	0	5.1840	0	33.8690	0	26.760	0	312.337	0	97.6	4	31.6	4	-1E+10	1	-1E+10	1	-1E+10	1	-1E+10	1	-1E+10	1	-1E+10	1
4902549	35	C	07/26/2021	15:09	-132.290	47.295	0	316.10	0	5.1730	0	33.8690	0	26.762	0	313.228	0	97.3	4	31.5	4	-1E+10	1	-1E+10	1	-1E+10	1	-1E+10	1	-1E+10	1	-1E+10	1
4902549	35	C	07/26/2021	15:09	-132.290	47.295	0	317.10	0	5.1640	0	33.8700	0	26.764	0	314.218	0	97.0	4	31.4	4	-1E+10	1	-1E+10	1	-1E+10	1	-1E+10	1	-1E+10	1	-1E+10	1
4902549	35	C	07/26/2021	15:09	-132.290	47.295	0	318.00	0	5.1590	0	33.8700	0	26.764	0	315.109	0	96.7	4	31.3	4	-1E+10	1	-1E+10	1	-1E+10	1	-1E+10	1	-1E+10	1	-1E+10	1
4902549	35	C	07/26/2021	15:09	-132.290	47.295	0	318.90	0	5.1580	0	33.8700	0	26.764	0	316.001	0	96.4	4	31.2	4	-1E+10	1	-1E+10	1	-1E+10	1	-1E+10	1	-1E+10	1	-1E+10	1
4902549	35	C	07/26/2021	15:09	-132.290	47.295	0	319.90	0	5.1580	0	33.8700	0	26.764	0	316.991	0	96.0	4	31.1	4	-1E+10	1	-1E+10	1	-1E+10	1	-1E+10	1	-1E+10	1	-1E+10	1
4902549	35	C	07/26/2021	15:09	-132.290	47.295	0	320.80	0	5.1530	0	33.8710	0	26.766	0	317.882	0	95.5	4	30.9	4	-1E+10	1	-1E+10	1	-1E+10	1	-1E+10	1	-1E+10	1	-1E+10	1
4902549	35	C	07/26/2021	15:09	-132.290	47.295	0	321.80	0	5.1500	0	33.8710	0	26.766	0	318.872	0	95.1	4	30.8	4	-1E+10	1	-1E+10	1	-1E+10	1	-1E+10	1	-1E+10	1	-1E+10	1
4902549	35	C	07/26/2021	15:09	-132.290	47.295	0	322.70	0	5.1480	0	33.8710	0	26.766	0	319.763	0	94.6	4	30.6	4	-1E+10	1	-1E+10	1	-1E+10	1	-1E+10	1	-1E+10	1	-1E+10	1
4902549	35	C	07/26/2021	15:09	-132.290	47.295	0	323.70	0	5.1410	0	33.8730	0	26.769	0	320.753	0	94.1	4	30.5	4	-1E+10	1	-1E+10	1	-1E+10	1	-1E+10	1	-1E+10	1	-1E+10	1
4902549	35	C	07/26/2021	15:09	-132.290	47.295	0	324.60	0	5.1260	0	33.8740	0	26.771	0	321.644	0	93.6	4	30.3	4	-1E+10	1	-1E+10	1	-1E+10	1	-1E+10	1	-1E+10	1	-1E+10	1
4902549	35	C	07/26/2021	15:09	-132.290	47.295	0	325.60	0	5.1110	0	33.8730	0	26.772	0	322.634	0	93.2	4	30.1	4	-1E+10	1	-1E+10	1	-1E+10	1	-1E+10	1	-1E+10	1	-1E+10	1
4902549	35	C	07/26/2021	15:09	-132.290	47.295	0	326.60	0	5.1080	0	33.8740	0	26.773	0	323.625	0	92.7	4	30.0	4	-1E+10	1	-1E+10	1	-1E+10	1	-1E+10	1	-1E+10	1	-1E+10	1
4902549	35	C	07/26/2021	15:09	-132.290	47.295	0	327.50	0	5.0870	0	33.8760	0	26.777	0	324.516	0	92.3	4	29.8	4	-1E+10	1	-1E+10	1	-1E+10	1	-1E+10	1	-1E+10	1	-1E+10	1
4902549	35	C	07/26/2021	15:09	-132.290	47.295	0	328.50	0	5.0820	0	33.8780	0	26.779	0	325.506	0	91.9	4	29.7	4	-1E+10	1	-1E+10	1	-1E+10	1	-1E+10	1	-1E+10	1	-1E+10	1
4902549	35	C	07/26/2021	15:09	-132.290	47.295	0	329.90	0	5.0630	0	33.8790	0	26.782	0	326.892	0	91.4	4	29.5	4	-1E+10	1	-1E+10	1	-1E+10	1	-1E+10	1	-1E+10	1	-1E+10	1
4902549	35	C	07/26/2021	15:09	-132.290	47.295	0	331.40	0	5.0550	0	33.8790	0	26.783	0	328.377	0	90.9	4	29.4	4	-1E+10	1	-1E+10	1	-1E+10	1	-1E+10	1	-1E+10	1	-1E+10	1
4902549	35	C	07/26/2021	15:09	-132.290	47.295	0	332.40	0	5.0460	0	33.8810	0	26.786	0	329.367	0	90.6	4	29.3	4	-1E+10	1	-1E+10	1	-1E+10	1	-1E+10	1	-1E+10	1	-1E+10	1
4902549	35	C	07/26/2021	15:09	-132.290	47.295	0	333.40	0	5.0420	0	33.8810	0	26.786	0	330.357	0	90.3	4	29.2	4	-1E+10	1	-1E+10	1	-1E+10	1	-1E+10	1	-1E+10	1	-1E+10	1
4902549	35	C	07/26/2021	15:09	-132.290	47.295	0	334.30	0	5.0400	0	33.8810	0	26.787	0	331.248	0	90.0	4	29.1	4	-1E+10	1	-1E+10	1	-1E+10	1	-1E+10	1	-1E+10	1	-1E+10	1
4902549	35	C	07/26/2021	15:09	-132.290	47.295	0	335.30	0	5.0380	0	33.8820	0	26.788	0	332.238	0	89.6	4	28.9	4	-1E+10	1	-1E+10	1	-1E+10	1	-1E+10	1	-1E+10	1	-1E+10	1
4902549	35	C	07/26/2021	15:09	-132.290	47.295	0	336.30	0	5.0370	0	33.8820	0	26.788	0	333.228	0	89.2	4	28.8	4	-1E+10	1	-1E+10	1	-1E+10	1	-1E+10	1	-1E+10	1	-1E+10	1
4902549	35	C	07/26/2021	15:09	-132.290	47.295	0	337.20	0	5.0270	0	33.8830	0	26.790	0	334.119	0	88.9	4	28.7	4	-1E+10	1	-1E+10	1	-1E+10	1	-1E+10	1	-1E+10	1	-1E+10	1
4902549	35	C	07/26/2021	15:09	-132.290	47.295	0	338.20	0	5.0220	0	33.8840	0	26.791	0	335.109	0	88.5	4	28.6	4	-1E+10	1	-1E+10	1	-1E+10	1	-1E+10	1	-1E+10	1	-1E+10	1
4902549	35	C	07/26/2021	15:09	-132.290	47.295	0	339.10	0	5.0140	0	33.8840	0	26.792	0	336.001	0	88.2	4	28.5	4	-1E+10	1	-1E+10	1	-1E+10	1	-1E+10	1	-1E+10	1	-1E+10	1
4902549	35	C	07/26/2021	15:09	-132.290	47.295	0	340.10	0	5.0040	0	33.8860	0	26.795	0	336.991	0	87.8	4	28.3	4	-1E+10	1	-1E+10	1	-1E+10	1	-1E+10	1	-1E+10	1	-1E+10	1
4902549	35	C	07/26/2021	15:09	-132.290	47.295	0	341.10	0	4.9950	0	33.8850	0	26.795	0	337.981	0	87.5	4	28.2	4	-1E+10	1	-1E+10	1	-1E+10	1	-1E+10	1	-1E+10	1	-1E+10	1
4902549	35	C	07/26/2021	15:09	-132.290	47.295	0	342.10	0	4.9850	0	33.8860	0	26.797	0	338.971	0	87.2	4	28.1	4	-1E+10	1	-1E+10	1	-1E+10	1	-1E+10	1	-1E+10	1	-1E+10	1
4902549	35	C	07/26/2021	15:09	-132.290	47.295	0	343.00	0	4.9820	0	33.8860	0	26.797	0	339.862	0	86.9	4	28.0	4	-1E+10	1	-1E+10	1	-1E+10	1	-1E+10	1	-1E+10	1	-1E+10	1
4902549	35	C	07/26/2021	15:09	-132.290	47.295	0	344.00	0	4.9810	0	33.8870	0	26.798	0	340.852	0	86.5	4	27.9	4	-1E+10	1	-1E+10	1	-1E+10	1	-1E+10	1	-1E+10	1	-1E+10	1
4902549	35	C	07/26/2021	15:09	-132.290	47.295	0	345.00	0	4.9810	0	33.8870	0	26.798	0	341.842	0	86.1	4	27.8	4	-1E+10	1	-1E+10	1	-1E+10	1	-1E+10	1	-1E+10	1	-1E+10	1
4902549	35	C	07/26/2021	15:09	-132.290	47.295	0	346.00	0	4.9750	0	33.8880	0	26.800	0	342.832	0	85.7	4	27.6	4	-1E+10	1	-1E+10	1	-1E+10	1	-1E+10	1	-1E+10	1	-1E+10	1
4902549	35	C	07/26/2021	15:09	-132.290	47.295	0	347.00	0	4.9450	0	33.8900	0	26.805	0	343.822	0	85.3	4	27.5	4	-1E+10	1	-1E+10	1	-1E+10	1	-1E+10	1	-1E+10	1	-1E+10	1
4902549	35	C	07/26/2021	15:09	-132.290	47.295	0	348.00	0	4.9480	0	33.8900	0	26.804	0	344.812	0	84.9	4	27.4	4	-1E+10	1	-1E+10	1	-1E+10	1	-1E+10	1	-1E+10	1	-1E+10	1
4902549	35	C	07/26/2021	15:09	-132.290	47.295	0	349.00	0	4.9490	0	33.8900	0	26.804	0	345.802	0	84.5	4	27.2	4	-1E+10	1	-1E+10	1	-1E+10	1	-1E+10	1	-1E+10	1	-1E+10	1
4902549	35	C	07/26/2021	15:09	-132.290	47.295	0	350.00	0	4.9410	0	33.8910	0	26.806	0	346.792	0	84.0	4	27.1	4	-1E+10	1	-1E+10	1	-1E+10	1	-1E+10	1	-1E+10	1	-1E+10	1
4902549	35	C	07/26/2021	15:09	-132.290	47.295	0	353.00	0	4.9150	0	33.8930	0	26.810	0	349.762	0	83.1	4	26.8	4	-1E+10	1	-1E+10	1	-1E+10	1	-1E+10	1	-1E+10	1	-1E+10	1
4902549	35	C	07/26/2021	15:09	-132.290	47.295	0	358.00	0	4.8780	0	33.8960	0	26.817	0	354.712	0	81.3	4	26.2	4	-1E+10	1	-1E+10	1	-1E+10	1	-1E+10	1	-1E+10	1	-1E+10	1
4902549	35	C	07/26/2021	15:09	-132.290	47.295	0	363.20	0	4.8340	0	33.8980	0	26.824	0	359.859	0	79.8	4	25.6	4	-1E+10	1	-1E+10	1	-1E+10	1	-1E+10	1	-1E+10	1	-1E+10	1
4902549	35	C	07/26/2021	15:09	-132.290	47.295	0	367.90	0	4.8330	0	33.9050	0	26.829	0	364.512	0	78.1	4	25.1	4	-1E+10	1	-1E+10	1	-1E+10	1	-1E+10	1	-1E+10	1	-1E+10	1
4902549	35	C	07/26/2021	15:09	-132.290	47.295	0	373.00	0	4.7900	0	33.9080	0	26.836	0	369.560	0	76.2	4	24.5	4	-1E+10	1	-1E+10	1	-1E+10	1	-1E+10	1	-1E+10	1	-1E+10	1
4902549	35	C	07/26/2021	15:09	-132.290	47.295	0	378.20	0	4.7440	0	33.9080	0	26.842	0	374.708	0	74.6	4	23.9	4	-1E+10	1	-1E+10	1	-1E+10	1	-1E+10	1	-1E+10	1	-1E+10	1
4902549	35	C	07/26/2021	15:09	-132.290	47.295	0	383.10	0	4.7130	0	33.9090	0	26.846	0	379.558	0	73.2	4	23.5	4	-1E+10	1	-1E+10	1	-1E+10	1	-1E+10	1	-1E+10	1	-1E+10	1
4902549	35	C	07/26/2021	15:09	-132.290	47.295	0	388.10	0	4.7030	0	33.9130	0	26.850	0	384.507	0	71.5	4	22.9	4	-1E+10	1	-1E+10	1	-1E+10	1	-1E+10	1	-1E+10	1	-1E+10	1
4902549	35	C	07/26/2021	15:09	-132.290	47.295	0	392.80	0	4.6580	0	33.9150	0	26.857	0	389.159	0	70.0	4	22.4	4	-1E+10	1	-1E+10	1	-1E+10	1	-1E+10	1	-1E+10	1	-1E+10	1
4902549	35	C	07/26/2021	15:09	-132.290	47.295	0	397.60	0	4.6350	0	33.9190	0	26.862	0	393.910	0	68.6	4	22.0	4	-1E+10	1	-1E+10	1	-1E+10	1	-1E+10	1	-1E+10	1	-1E+10	1
4902549	35	C	07/26/2021	15:09	-132.290	47.295	0	403.10	0	4.6210	0	33.9230	0	26.867	0	399.354	0	67.3	4	21.5	4	-1E+10	1	-1E+10	1	-1E+10	1	-1E+10	1	-1E+10	1	-1E+10	1
4902549	35	C	07/26/2021	15:09	-132.290	47.295	0	408.20	0	4.6110	0	33.9310	0	26.875	0	404.402	0	66.1	4	21.1	4	-1E+10	1	-1E+10	1	-1E+10	1	-1E+10	1	-1E+10	1	-1E+10	1
4902549	35	C	07/26/2021	15:09	-132.290	47.295	0	412.90	0	4.6010	0	33.9350	0	26.879	0	409.053	0	65.0	4	20.8	4	-1E+10	1	-1E+10	1	-1E+10	1	-1E+10	1	-1E+10	1	-1E+10	1
4902549	35	C	07/26/2021	15:09	-132.290	47.295	0	417.70	0	4.5850	0	33.9410	0	26.885	0	413.804	0	63.9	4	20.4	4	-1E+10	1	-1E+10	1	-1E+10	1	-1E+10	1	-1E+10	1	-1E+10	1
4902549	35	C	07/26/2021	15:09	-132.290	47.295	0	422.50	0	4.5720	0	33.9440	0	26.889	0	418.554	0	63.0	4	20.1	4	-1E+10	1	-1E+10	1	-1E+10	1	-1E+10	1	-1E+10	1	-1E+10	1
4902549	35	C	07/26/2021	15:09	-132.290	47.295	0	427.90	0	4.5600	0	33.9480	0	26.894	0	423.898	0	61.8	4	19.7	4	-1E+10	1	-1E+10	1	-1E+10	1	-1E+10	1	-1E+10	1	-1E+10	1
4902549	35	C	07/26/2021	15:09	-132.290	47.295	0	433.30	0	4.5490	0	33.9530	0	26.899	0	429.242	0	60.7	4	19.4	4	-1E+10	1	-1E+10	1	-1E+10	1	-1E+10	1	-1E+10	1	-1E+10	1
4902549	35	C	07/26/2021	15:09	-132.290	47.295	0	438.20	0	4.5370	0	33.9560	0	26.903	0	434.091	0	59.4	4	19.0	4	-1E+10	1	-1E+10	1	-1E+10	1	-1E+10	1	-1E+10	1	-1E+10	1
4902549	35	C	07/26/2021	15:09	-132.290	47.295	0	443.00	0	4.5170	0	33.9610	0	26.909	0	438.841	0	58.1	4	18.5	4	-1E+10	1	-1E+10	1	-1E+10	1	-1E+10	1	-1E+10	1	-1E+10	1
4902549	35	C	07/26/2021	15:09	-132.290	47.295	0	447.90	0	4.5010	0	33.9700	0	26.918	0	443.690	0	57.4	4	18.3	4	-1E+10	1	-1E+10	1	-1E+10	1	-1E+10	1	-1E+10	1	-1E+10	1
4902549	35	C	07/26/2021	15:09	-132.290	47.295	0	452.80	0	4.5000	0	33.9720	0	26.920	0	448.538	0	56.7	4	18.1	4	-1E+10	1	-1E+10	1	-1E+10	1	-1E+10	1	-1E+10	1	-1E+10	1
4902549	35	C	07/26/2021	15:09	-132.290	47.295	0	457.70	0	4.4960	0	33.9740	0	26.922	0	453.387	0	55.7	4	17.8	4	-1E+10	1	-1E+10	1	-1E+10	1	-1E+10	1	-1E+10	1	-1E+10	1
4902549	35	C	07/26/2021	15:09	-132.290	47.295	0	462.50	0	4.4870	0	33.9770	0	26.925	0	458.136	0	54.5	4	17.4	4	-1E+10	1	-1E+10	1	-1E+10	1	-1E+10	1	-1E+10	1	-1E+10	1
4902549	35	C	07/26/2021	15:09	-132.290	47.295	0	467.90	0	4.4690	0	33.9830	0	26.932	0	463.479	0	52.9	4	16.9	4	-1E+10	1	-1E+10	1	-1E+10	1	-1E+10	1	-1E+10	1	-1E+10	1
4902549	35	C	07/26/2021	15:09	-132.290	47.295	0	473.10	0	4.4510	0	33.9890	0	26.938	0	468.624	0	51.5	4	16.4	4	-1E+10	1	-1E+10	1	-1E+10	1	-1E+10	1	-1E+10	1	-1E+10	1
4902549	35	C	07/26/2021	15:09	-132.290	47.295	0	477.80	0	4.4310	0	33.9950	0	26.945	0	473.275	0	50.2	4	16.0	4	-1E+10	1	-1E+10	1	-1E+10	1	-1E+10	1	-1E+10	1	-1E+10	1
4902549	35	C	07/26/2021	15:09	-132.290	47.295	0	483.00	0	4.4130	0	34.0010	0	26.952	0	478.419	0	49.2	4	15.7	4	-1E+10	1	-1E+10	1	-1E+10	1	-1E+10	1	-1E+10	1	-1E+10	1
4902549	35	C	07/26/2021	15:09	-132.290	47.295	0	488.10	0	4.4020	0	34.0040	0	26.956	0	483.465	0	48.3	4	15.4	4	-1E+10	1	-1E+10	1	-1E+10	1	-1E+10	1	-1E+10	1	-1E+10	1
4902549	35	C	07/26/2021	15:09	-132.290	47.295	0	492.70	0	4.3960	0	34.0060	0	26.958	0	488.016	0	47.2	4	15.0	4	-1E+10	1	-1E+10	1	-1E+10	1	-1E+10	1	-1E+10	1	-1E+10	1
4902549	35	C	07/26/2021	15:09	-132.290	47.295	0	497.70	0	4.3740	0	34.0130	0	26.966	0	492.963	0	45.9	4	14.6	4	-1E+10	1	-1E+10	1	-1E+10	1	-1E+10	1	-1E+10	1	-1E+10	1
4902549	35	C	07/26/2021	15:09	-132.290	47.295	0	503.10	0	4.3610	0	34.0170	0	26.971	0	498.305	0	45.0	4	14.3	4	-1E+10	1	-1E+10	1	-1E+10	1	-1E+10	1	-1E+10	1	-1E+10	1
4902549	35	C	07/26/2021	15:09	-132.290	47.295	0	507.90	0	4.3540	0	34.0200	0	26.974	0	503.053	0	43.7	4	13.9	4	-1E+10	1	-1E+10	1	-1E+10	1	-1E+10	1	-1E+10	1	-1E+10	1
4902549	35	C	07/26/2021	15:09	-132.290	47.295	0	512.60	0	4.3340	0	34.0260	0	26.981	0	507.702	0	42.0	4	13.3	4	-1E+10	1	-1E+10	1	-1E+10	1	-1E+10	1	-1E+10	1	-1E+10	1
4902549	35	C	07/26/2021	15:09	-132.290	47.295	0	517.70	0	4.3110	0	34.0340	0	26.989	0	512.748	0	40.3	4	12.8	4	-1E+10	1	-1E+10	1	-1E+10	1	-1E+10	1	-1E+10	1	-1E+10	1
4902549	35	C	07/26/2021	15:09	-132.290	47.295	0	522.80	0	4.2890	0	34.0410	0	26.997	0	517.792	0	38.8	4	12.3	4	-1E+10	1	-1E+10	1	-1E+10	1	-1E+10	1	-1E+10	1	-1E+10	1
4902549	35	C	07/26/2021	15:09	-132.290	47.295	0	528.00	0	4.2730	0	34.0470	0	27.004	0	522.936	0	37.7	4	12.0	4	-1E+10	1	-1E+10	1	-1E+10	1	-1E+10	1	-1E+10	1	-1E+10	1
4902549	35	C	07/26/2021	15:09	-132.290	47.295	0	533.20	0	4.2610	0	34.0510	0	27.008	0	528.080	0	36.8	4	11.7	4	-1E+10	1	-1E+10	1	-1E+10	1	-1E+10	1	-1E+10	1	-1E+10	1
4902549	35	C	07/26/2021	15:09	-132.290	47.295	0	538.10	0	4.2540	0	34.0530	0	27.011	0	532.926	0	36.1	4	11.5	4	-1E+10	1	-1E+10	1	-1E+10	1	-1E+10	1	-1E+10	1	-1E+10	1
4902549	35	C	07/26/2021	15:09	-132.290	47.295	0	543.00	0	4.2440	0	34.0560	0	27.014	0	537.773	0	35.1	4	11.1	4	-1E+10	1	-1E+10	1	-1E+10	1	-1E+10	1	-1E+10	1	-1E+10	1
4902549	35	C	07/26/2021	15:09	-132.290	47.295	0	548.00	0	4.2320	0	34.0600	0	27.019	0	542.718	0	33.9	4	10.8	4	-1E+10	1	-1E+10	1	-1E+10	1	-1E+10	1	-1E+10	1	-1E+10	1
4902549	35	C	07/26/2021	15:09	-132.290	47.295	0	552.90	0	4.2160	0	34.0650	0	27.024	0	547.564	0	32.5	4	10.3	4	-1E+10	1	-1E+10	1	-1E+10	1	-1E+10	1	-1E+10	1	-1E+10	1
4902549	35	C	07/26/2021	15:09	-132.290	47.295	0	558.00	0	4.1970	0	34.0720	0	27.032	0	552.608	0	31.1	4	9.9	4	-1E+10	1	-1E+10	1	-1E+10	1	-1E+10	1	-1E+10	1	-1E+10	1
4902549	35	C	07/26/2021	15:09	-132.290	47.295	0	562.80	0	4.1760	0	34.0780	0	27.039	0	557.356	0	29.9	4	9.5	4	-1E+10	1	-1E+10	1	-1E+10	1	-1E+10	1	-1E+10	1	-1E+10	1
4902549	35	C	07/26/2021	15:09	-132.290	47.295	0	567.60	0	4.1630	0	34.0830	0	27.044	0	562.103	0	28.9	4	9.2	4	-1E+10	1	-1E+10	1	-1E+10	1	-1E+10	1	-1E+10	1	-1E+10	1
4902549	35	C	07/26/2021	15:09	-132.290	47.295	0	572.60	0	4.1520	0	34.0880	0	27.049	0	567.047	0	28.1	4	8.9	4	-1E+10	1	-1E+10	1	-1E+10	1	-1E+10	1	-1E+10	1	-1E+10	1
4902549	35	C	07/26/2021	15:09	-132.290	47.295	0	577.60	0	4.1350	0	34.0920	0	27.054	0	571.992	0	27.1	4	8.6	4	-1E+10	1	-1E+10	1	-1E+10	1	-1E+10	1	-1E+10	1	-1E+10	1
4902549	35	C	07/26/2021	15:09	-132.290	47.295	0	582.80	0	4.1280	0	34.0970	0	27.059	0	577.134	0	26.0	4	8.2	4	-1E+10	1	-1E+10	1	-1E+10	1	-1E+10	1	-1E+10	1	-1E+10	1
4902549	35	C	07/26/2021	15:09	-132.290	47.295	0	588.10	0	4.1060	0	34.1040	0	27.067	0	582.375	0	25.1	4	8.0	4	-1E+10	1	-1E+10	1	-1E+10	1	-1E+10	1	-1E+10	1	-1E+10	1
4902549	35	C	07/26/2021	15:09	-132.290	47.295	0	593.30	0	4.0890	0	34.1090	0	27.073	0	587.518	0	24.6	4	7.8	4	-1E+10	1	-1E+10	1	-1E+10	1	-1E+10	1	-1E+10	1	-1E+10	1
4902549	35	C	07/26/2021	15:09	-132.290	47.295	0	598.10	0	4.0840	0	34.1110	0	27.075	0	592.264	0	24.0	4	7.6	4	-1E+10	1	-1E+10	1	-1E+10	1	-1E+10	1	-1E+10	1	-1E+10	1
4902549	35	C	07/26/2021	15:09	-132.290	47.295	0	603.10	0	4.0640	0	34.1160	0	27.081	0	597.208	0	23.3	4	7.4	4	-1E+10	1	-1E+10	1	-1E+10	1	-1E+10	1	-1E+10	1	-1E+10	1
4902549	35	C	07/26/2021	15:09	-132.290	47.295	0	608.20	0	4.0530	0	34.1200	0	27.085	0	602.251	0	22.8	4	7.2	4	-1E+10	1	-1E+10	1	-1E+10	1	-1E+10	1	-1E+10	1	-1E+10	1
4902549	35	C	07/26/2021	15:09	-132.290	47.295	0	613.00	0	4.0450	0	34.1230	0	27.089	0	606.997	0	22.3	4	7.0	4	-1E+10	1	-1E+10	1	-1E+10	1	-1E+10	1	-1E+10	1	-1E+10	1
4902549	35	C	07/26/2021	15:09	-132.290	47.295	0	617.90	0	4.0360	0	34.1260	0	27.092	0	611.842	0	21.8	4	6.9	4	-1E+10	1	-1E+10	1	-1E+10	1	-1E+10	1	-1E+10	1	-1E+10	1
4902549	35	C	07/26/2021	15:09	-132.290	47.295	0	622.90	0	4.0260	0	34.1290	0	27.095	0	616.785	0	21.5	4	6.8	4	-1E+10	1	-1E+10	1	-1E+10	1	-1E+10	1	-1E+10	1	-1E+10	1
4902549	35	C	07/26/2021	15:09	-132.290	47.295	0	627.80	0	4.0100	0	34.1320	0	27.099	0	621.630	0	21.0	4	6.6	4	-1E+10	1	-1E+10	1	-1E+10	1	-1E+10	1	-1E+10	1	-1E+10	1
4902549	35	C	07/26/2021	15:09	-132.290	47.295	0	632.80	0	3.9950	0	34.1370	0	27.105	0	626.573	0	20.5	4	6.5	4	-1E+10	1	-1E+10	1	-1E+10	1	-1E+10	1	-1E+10	1	-1E+10	1
4902549	35	C	07/26/2021	15:09	-132.290	47.295	0	637.90	0	3.9840	0	34.1410	0	27.109	0	631.615	0	20.1	4	6.4	4	-1E+10	1	-1E+10	1	-1E+10	1	-1E+10	1	-1E+10	1	-1E+10	1
4902549	35	C	07/26/2021	15:09	-132.290	47.295	0	643.20	0	3.9720	0	34.1440	0	27.113	0	636.855	0	19.8	4	6.3	4	-1E+10	1	-1E+10	1	-1E+10	1	-1E+10	1	-1E+10	1	-1E+10	1
4902549	35	C	07/26/2021	15:09	-132.290	47.295	0	647.90	0	3.9600	0	34.1480	0	27.117	0	641.501	0	19.6	4	6.2	4	-1E+10	1	-1E+10	1	-1E+10	1	-1E+10	1	-1E+10	1	-1E+10	1
4902549	35	C	07/26/2021	15:09	-132.290	47.295	0	652.70	0	3.9490	0	34.1500	0	27.120	0	646.247	0	19.5	4	6.1	4	-1E+10	1	-1E+10	1	-1E+10	1	-1E+10	1	-1E+10	1	-1E+10	1
4902549	35	C	07/26/2021	15:09	-132.290	47.295	0	657.50	0	3.9340	0	34.1530	0	27.124	0	650.992	0	19.4	4	6.1	4	-1E+10	1	-1E+10	1	-1E+10	1	-1E+10	1	-1E+10	1	-1E+10	1
4902549	35	C	07/26/2021	15:09	-132.290	47.295	0	662.90	0	3.9270	0	34.1540	0	27.126	0	656.330	0	19.3	4	6.1	4	-1E+10	1	-1E+10	1	-1E+10	1	-1E+10	1	-1E+10	1	-1E+10	1
4902549	35	C	07/26/2021	15:09	-132.290	47.295	0	668.30	0	3.9230	0	34.1550	0	27.127	0	661.667	0	19.1	4	6.0	4	-1E+10	1	-1E+10	1	-1E+10	1	-1E+10	1	-1E+10	1	-1E+10	1
4902549	35	C	07/26/2021	15:09	-132.290	47.295	0	673.20	0	3.9110	0	34.1570	0	27.130	0	666.511	0	18.8	4	5.9	4	-1E+10	1	-1E+10	1	-1E+10	1	-1E+10	1	-1E+10	1	-1E+10	1
4902549	35	C	07/26/2021	15:09	-132.290	47.295	0	678.10	0	3.8990	0	34.1590	0	27.132	0	671.354	0	18.5	4	5.8	4	-1E+10	1	-1E+10	1	-1E+10	1	-1E+10	1	-1E+10	1	-1E+10	1
4902549	35	C	07/26/2021	15:09	-132.290	47.295	0	683.00	0	3.8850	0	34.1620	0	27.136	0	676.198	0	18.0	4	5.7	4	-1E+10	1	-1E+10	1	-1E+10	1	-1E+10	1	-1E+10	1	-1E+10	1
4902549	35	C	07/26/2021	15:09	-132.290	47.295	0	687.80	0	3.8630	0	34.1680	0	27.143	0	680.942	0	17.6	4	5.5	4	-1E+10	1	-1E+10	1	-1E+10	1	-1E+10	1	-1E+10	1	-1E+10	1
4902549	35	C	07/26/2021	15:09	-132.290	47.295	0	692.60	0	3.8500	0	34.1720	0	27.148	0	685.686	0	17.1	4	5.4	4	-1E+10	1	-1E+10	1	-1E+10	1	-1E+10	1	-1E+10	1	-1E+10	1
4902549	35	C	07/26/2021	15:09	-132.290	47.295	0	697.90	0	3.8370	0	34.1760	0	27.152	0	690.925	0	16.6	4	5.2	4	-1E+10	1	-1E+10	1	-1E+10	1	-1E+10	1	-1E+10	1	-1E+10	1
4902549	35	C	07/26/2021	15:09	-132.290	47.295	0	703.20	0	3.8280	0	34.1810	0	27.157	0	696.163	0	16.1	4	5.1	4	-1E+10	1	-1E+10	1	-1E+10	1	-1E+10	1	-1E+10	1	-1E+10	1
4902549	35	C	07/26/2021	15:09	-132.290	47.295	0	707.90	0	3.8220	0	34.1840	0	27.160	0	700.808	0	15.6	4	4.9	4	-1E+10	1	-1E+10	1	-1E+10	1	-1E+10	1	-1E+10	1	-1E+10	1
4902549	35	C	07/26/2021	15:09	-132.290	47.295	0	712.70	0	3.8090	0	34.1890	0	27.166	0	705.552	0	15.2	4	4.8	4	-1E+10	1	-1E+10	1	-1E+10	1	-1E+10	1	-1E+10	1	-1E+10	1
4902549	35	C	07/26/2021	15:09	-132.290	47.295	0	717.90	0	3.8000	0	34.1910	0	27.168	0	710.691	0	14.9	4	4.7	4	-1E+10	1	-1E+10	1	-1E+10	1	-1E+10	1	-1E+10	1	-1E+10	1
4902549	35	C	07/26/2021	15:09	-132.290	47.295	0	723.10	0	3.7860	0	34.1950	0	27.173	0	715.830	0	14.5	4	4.5	4	-1E+10	1	-1E+10	1	-1E+10	1	-1E+10	1	-1E+10	1	-1E+10	1
4902549	35	C	07/26/2021	15:09	-132.290	47.295	0	727.80	0	3.7700	0	34.2000	0	27.178	0	720.474	0	14.1	4	4.4	4	-1E+10	1	-1E+10	1	-1E+10	1	-1E+10	1	-1E+10	1	-1E+10	1
4902549	35	C	07/26/2021	15:09	-132.290	47.295	0	732.90	0	3.7630	0	34.2030	0	27.181	0	725.514	0	13.7	4	4.3	4	-1E+10	1	-1E+10	1	-1E+10	1	-1E+10	1	-1E+10	1	-1E+10	1
4902549	35	C	07/26/2021	15:09	-132.290	47.295	0	738.10	0	3.7550	0	34.2060	0	27.185	0	730.652	0	13.2	4	4.1	4	-1E+10	1	-1E+10	1	-1E+10	1	-1E+10	1	-1E+10	1	-1E+10	1
4902549	35	C	07/26/2021	15:09	-132.290	47.295	0	742.90	0	3.7430	0	34.2110	0	27.190	0	735.396	0	12.8	4	4.0	4	-1E+10	1	-1E+10	1	-1E+10	1	-1E+10	1	-1E+10	1	-1E+10	1
4902549	35	C	07/26/2021	15:09	-132.290	47.295	0	747.80	0	3.7350	0	34.2140	0	27.193	0	740.237	0	12.6	4	3.9	4	-1E+10	1	-1E+10	1	-1E+10	1	-1E+10	1	-1E+10	1	-1E+10	1
4902549	35	C	07/26/2021	15:09	-132.290	47.295	0	752.80	0	3.7260	0	34.2160	0	27.196	0	745.178	0	12.3	4	3.8	4	-1E+10	1	-1E+10	1	-1E+10	1	-1E+10	1	-1E+10	1	-1E+10	1
4902549	35	C	07/26/2021	15:09	-132.290	47.295	0	757.70	0	3.7210	0	34.2190	0	27.199	0	750.020	0	11.9	4	3.7	4	-1E+10	1	-1E+10	1	-1E+10	1	-1E+10	1	-1E+10	1	-1E+10	1
4902549	35	C	07/26/2021	15:09	-132.290	47.295	0	762.70	0	3.7140	0	34.2210	0	27.201	0	754.960	0	11.5	4	3.6	4	-1E+10	1	-1E+10	1	-1E+10	1	-1E+10	1	-1E+10	1	-1E+10	1
4902549	35	C	07/26/2021	15:09	-132.290	47.295	0	767.70	0	3.7020	0	34.2250	0	27.205	0	759.900	0	11.3	4	3.5	4	-1E+10	1	-1E+10	1	-1E+10	1	-1E+10	1	-1E+10	1	-1E+10	1
4902549	35	C	07/26/2021	15:09	-132.290	47.295	0	772.80	0	3.6950	0	34.2270	0	27.208	0	764.939	0	11.1	4	3.5	4	-1E+10	1	-1E+10	1	-1E+10	1	-1E+10	1	-1E+10	1	-1E+10	1
4902549	35	C	07/26/2021	15:09	-132.290	47.295	0	777.90	0	3.6790	0	34.2310	0	27.212	0	769.978	0	10.8	4	3.4	4	-1E+10	1	-1E+10	1	-1E+10	1	-1E+10	1	-1E+10	1	-1E+10	1
4902549	35	C	07/26/2021	15:09	-132.290	47.295	0	783.20	0	3.6600	0	34.2370	0	27.219	0	775.214	0	10.7	4	3.3	4	-1E+10	1	-1E+10	1	-1E+10	1	-1E+10	1	-1E+10	1	-1E+10	1
4902549	35	C	07/26/2021	15:09	-132.290	47.295	0	788.30	0	3.6440	0	34.2410	0	27.224	0	780.252	0	10.6	4	3.3	4	-1E+10	1	-1E+10	1	-1E+10	1	-1E+10	1	-1E+10	1	-1E+10	1
4902549	35	C	07/26/2021	15:09	-132.290	47.295	0	793.00	0	3.6280	0	34.2440	0	27.228	0	784.895	0	10.5	4	3.3	4	-1E+10	1	-1E+10	1	-1E+10	1	-1E+10	1	-1E+10	1	-1E+10	1
4902549	35	C	07/26/2021	15:09	-132.290	47.295	0	797.80	0	3.6140	0	34.2460	0	27.231	0	789.637	0	10.5	4	3.3	4	-1E+10	1	-1E+10	1	-1E+10	1	-1E+10	1	-1E+10	1	-1E+10	1
4902549	35	C	07/26/2021	15:09	-132.290	47.295	0	802.80	0	3.5960	0	34.2500	0	27.236	0	794.577	0	10.4	4	3.2	4	-1E+10	1	-1E+10	1	-1E+10	1	-1E+10	1	-1E+10	1	-1E+10	1
4902549	35	C	07/26/2021	15:09	-132.290	47.295	0	808.10	0	3.5860	0	34.2520	0	27.238	0	799.812	0	10.3	4	3.2	4	-1E+10	1	-1E+10	1	-1E+10	1	-1E+10	1	-1E+10	1	-1E+10	1
4902549	35	C	07/26/2021	15:09	-132.290	47.295	0	813.10	0	3.5710	0	34.2550	0	27.242	0	804.751	0	10.1	4	3.2	4	-1E+10	1	-1E+10	1	-1E+10	1	-1E+10	1	-1E+10	1	-1E+10	1
4902549	35	C	07/26/2021	15:09	-132.290	47.295	0	818.10	0	3.5600	0	34.2570	0	27.245	0	809.690	0	10.1	4	3.2	4	-1E+10	1	-1E+10	1	-1E+10	1	-1E+10	1	-1E+10	1	-1E+10	1
4902549	35	C	07/26/2021	15:09	-132.290	47.295	0	823.20	0	3.5600	0	34.2580	0	27.246	0	814.728	0	10.1	4	3.2	4	-1E+10	1	-1E+10	1	-1E+10	1	-1E+10	1	-1E+10	1	-1E+10	1
4902549	35	C	07/26/2021	15:09	-132.290	47.295	0	827.80	0	3.5590	0	34.2580	0	27.246	0	819.272	0	10.0	4	3.1	4	-1E+10	1	-1E+10	1	-1E+10	1	-1E+10	1	-1E+10	1	-1E+10	1
4902549	35	C	07/26/2021	15:09	-132.290	47.295	0	832.60	0	3.5520	0	34.2590	0	27.247	0	824.013	0	10.0	4	3.1	4	-1E+10	1	-1E+10	1	-1E+10	1	-1E+10	1	-1E+10	1	-1E+10	1
4902549	35	C	07/26/2021	15:09	-132.290	47.295	0	837.90	0	3.5380	0	34.2620	0	27.251	0	829.247	0	9.9	4	3.1	4	-1E+10	1	-1E+10	1	-1E+10	1	-1E+10	1	-1E+10	1	-1E+10	1
4902549	35	C	07/26/2021	15:09	-132.290	47.295	0	843.10	0	3.5290	0	34.2640	0	27.254	0	834.383	0	9.9	4	3.1	4	-1E+10	1	-1E+10	1	-1E+10	1	-1E+10	1	-1E+10	1	-1E+10	1
4902549	35	C	07/26/2021	15:09	-132.290	47.295	0	847.90	0	3.5200	0	34.2660	0	27.256	0	839.124	0	9.8	4	3.1	4	-1E+10	1	-1E+10	1	-1E+10	1	-1E+10	1	-1E+10	1	-1E+10	1
4902549	35	C	07/26/2021	15:09	-132.290	47.295	0	852.70	0	3.5160	0	34.2670	0	27.257	0	843.865	0	9.8	4	3.1	4	-1E+10	1	-1E+10	1	-1E+10	1	-1E+10	1	-1E+10	1	-1E+10	1
4902549	35	C	07/26/2021	15:09	-132.290	47.295	0	857.90	0	3.5060	0	34.2690	0	27.260	0	849.000	0	9.7	4	3.0	4	-1E+10	1	-1E+10	1	-1E+10	1	-1E+10	1	-1E+10	1	-1E+10	1
4902549	35	C	07/26/2021	15:09	-132.290	47.295	0	863.10	0	3.4950	0	34.2710	0	27.263	0	854.136	0	9.6	4	3.0	4	-1E+10	1	-1E+10	1	-1E+10	1	-1E+10	1	-1E+10	1	-1E+10	1
4902549	35	C	07/26/2021	15:09	-132.290	47.295	0	867.80	0	3.4880	0	34.2730	0	27.265	0	858.777	0	9.4	4	2.9	4	-1E+10	1	-1E+10	1	-1E+10	1	-1E+10	1	-1E+10	1	-1E+10	1
4902549	35	C	07/26/2021	15:09	-132.290	47.295	0	873.00	0	3.4770	0	34.2760	0	27.268	0	863.912	0	9.2	4	2.9	4	-1E+10	1	-1E+10	1	-1E+10	1	-1E+10	1	-1E+10	1	-1E+10	1
4902549	35	C	07/26/2021	15:09	-132.290	47.295	0	878.10	0	3.4610	0	34.2820	0	27.275	0	868.949	0	8.8	4	2.8	4	-1E+10	1	-1E+10	1	-1E+10	1	-1E+10	1	-1E+10	1	-1E+10	1
4902549	35	C	07/26/2021	15:09	-132.290	47.295	0	883.00	0	3.4510	0	34.2870	0	27.280	0	873.787	0	8.5	4	2.7	4	-1E+10	1	-1E+10	1	-1E+10	1	-1E+10	1	-1E+10	1	-1E+10	1
4902549	35	C	07/26/2021	15:09	-132.290	47.295	0	887.90	0	3.4430	0	34.2910	0	27.284	0	878.626	0	8.3	4	2.6	4	-1E+10	1	-1E+10	1	-1E+10	1	-1E+10	1	-1E+10	1	-1E+10	1
4902549	35	C	07/26/2021	15:09	-132.290	47.295	0	892.80	0	3.4380	0	34.2960	0	27.288	0	883.465	0	8.1	4	2.5	4	-1E+10	1	-1E+10	1	-1E+10	1	-1E+10	1	-1E+10	1	-1E+10	1
4902549	35	C	07/26/2021	15:09	-132.290	47.295	0	898.10	0	3.4280	0	34.3000	0	27.292	0	888.698	0	7.9	4	2.5	4	-1E+10	1	-1E+10	1	-1E+10	1	-1E+10	1	-1E+10	1	-1E+10	1
4902549	35	C	07/26/2021	15:09	-132.290	47.295	0	902.80	0	3.4240	0	34.3020	0	27.294	0	893.339	0	7.8	4	2.4	4	-1E+10	1	-1E+10	1	-1E+10	1	-1E+10	1	-1E+10	1	-1E+10	1
4902549	35	C	07/26/2021	15:09	-132.290	47.295	0	907.60	0	3.4180	0	34.3040	0	27.297	0	898.078	0	7.6	4	2.4	4	-1E+10	1	-1E+10	1	-1E+10	1	-1E+10	1	-1E+10	1	-1E+10	1
4902549	35	C	07/26/2021	15:09	-132.290	47.295	0	912.80	0	3.4080	0	34.3070	0	27.300	0	903.212	0	7.5	4	2.3	4	-1E+10	1	-1E+10	1	-1E+10	1	-1E+10	1	-1E+10	1	-1E+10	1
4902549	35	C	07/26/2021	15:09	-132.290	47.295	0	917.90	0	3.3970	0	34.3110	0	27.304	0	908.248	0	7.4	4	2.3	4	-1E+10	1	-1E+10	1	-1E+10	1	-1E+10	1	-1E+10	1	-1E+10	1
4902549	35	C	07/26/2021	15:09	-132.290	47.295	0	923.00	0	3.3930	0	34.3120	0	27.305	0	913.283	0	7.3	4	2.3	4	-1E+10	1	-1E+10	1	-1E+10	1	-1E+10	1	-1E+10	1	-1E+10	1
4902549	35	C	07/26/2021	15:09	-132.290	47.295	0	928.10	0	3.3860	0	34.3140	0	27.308	0	918.318	0	7.2	4	2.2	4	-1E+10	1	-1E+10	1	-1E+10	1	-1E+10	1	-1E+10	1	-1E+10	1
4902549	35	C	07/26/2021	15:09	-132.290	47.295	0	933.30	0	3.3770	0	34.3170	0	27.311	0	923.452	0	7.1	4	2.2	4	-1E+10	1	-1E+10	1	-1E+10	1	-1E+10	1	-1E+10	1	-1E+10	1
4902549	35	C	07/26/2021	15:09	-132.290	47.295	0	937.90	0	3.3670	0	34.3190	0	27.314	0	927.993	0	7.0	4	2.2	4	-1E+10	1	-1E+10	1	-1E+10	1	-1E+10	1	-1E+10	1	-1E+10	1
4902549	35	C	07/26/2021	15:09	-132.290	47.295	0	942.70	0	3.3610	0	34.3210	0	27.316	0	932.732	0	7.0	4	2.2	4	-1E+10	1	-1E+10	1	-1E+10	1	-1E+10	1	-1E+10	1	-1E+10	1
4902549	35	C	07/26/2021	15:09	-132.290	47.295	0	947.90	0	3.3500	0	34.3240	0	27.319	0	937.865	0	7.0	4	2.2	4	-1E+10	1	-1E+10	1	-1E+10	1	-1E+10	1	-1E+10	1	-1E+10	1
4902549	35	C	07/26/2021	15:09	-132.290	47.295	0	952.80	0	3.3370	0	34.3260	0	27.322	0	942.702	0	7.0	4	2.2	4	-1E+10	1	-1E+10	1	-1E+10	1	-1E+10	1	-1E+10	1	-1E+10	1
4902549	35	C	07/26/2021	15:09	-132.290	47.295	0	957.70	0	3.3170	0	34.3290	0	27.326	0	947.539	0	6.9	4	2.2	4	-1E+10	1	-1E+10	1	-1E+10	1	-1E+10	1	-1E+10	1	-1E+10	1
4902549	35	C	07/26/2021	15:09	-132.290	47.295	0	962.70	0	3.3050	0	34.3320	0	27.330	0	952.475	0	6.9	4	2.2	4	-1E+10	1	-1E+10	1	-1E+10	1	-1E+10	1	-1E+10	1	-1E+10	1
4902549	35	C	07/26/2021	15:09	-132.290	47.295	0	967.70	0	3.2910	0	34.3340	0	27.333	0	957.410	0	7.0	4	2.2	4	-1E+10	1	-1E+10	1	-1E+10	1	-1E+10	1	-1E+10	1	-1E+10	1
4902549	35	C	07/26/2021	15:09	-132.290	47.295	0	972.90	0	3.2760	0	34.3350	0	27.335	0	962.543	0	7.2	4	2.2	4	-1E+10	1	-1E+10	1	-1E+10	1	-1E+10	1	-1E+10	1	-1E+10	1
4902549	35	C	07/26/2021	15:09	-132.290	47.295	0	977.70	0	3.2660	0	34.3360	0	27.337	0	967.281	0	7.4	4	2.3	4	-1E+10	1	-1E+10	1	-1E+10	1	-1E+10	1	-1E+10	1	-1E+10	1
4902549	35	C	07/26/2021	15:09	-132.290	47.295	0	982.50	0	3.2370	0	34.3370	0	27.340	0	972.018	0	7.6	4	2.3	4	-1E+10	1	-1E+10	1	-1E+10	1	-1E+10	1	-1E+10	1	-1E+10	1
4902549	35	C	07/26/2021	15:09	-132.290	47.295	0	987.50	0	3.2180	0	34.3400	0	27.345	0	976.953	0	7.6	4	2.4	4	-1E+10	1	-1E+10	1	-1E+10	1	-1E+10	1	-1E+10	1	-1E+10	1
4902549	35	C	07/26/2021	15:09	-132.290	47.295	0	992.50	0	3.2080	0	34.3400	0	27.345	0	981.888	0	7.6	4	2.4	4	-1E+10	1	-1E+10	1	-1E+10	1	-1E+10	1	-1E+10	1	-1E+10	1
4902549	35	C	07/26/2021	15:09	-132.290	47.295	0	997.60	0	3.2010	0	34.3410	0	27.347	0	986.922	0	7.6	4	2.4	4	-1E+10	1	-1E+10	1	-1E+10	1	-1E+10	1	-1E+10	1	-1E+10	1
4902549	35	C	07/26/2021	15:09	-132.290	47.295	0	1005.30	0	3.1880	0	34.3450	0	27.351	0	994.521	0	7.5	4	2.3	4	-1E+10	1	-1E+10	1	-1E+10	1	-1E+10	1	-1E+10	1	-1E+10	1
4902549	35	C	07/26/2021	15:09	-132.290	47.295	0	1015.70	0	3.1700	0	34.3490	0	27.356	0	1004.785	0	7.4	4	2.3	4	-1E+10	1	-1E+10	1	-1E+10	1	-1E+10	1	-1E+10	1	-1E+10	1
4902549	35	C	07/26/2021	15:09	-132.290	47.295	0	1025.60	0	3.1590	0	34.3520	0	27.360	0	1014.554	0	7.3	4	2.3	4	-1E+10	1	-1E+10	1	-1E+10	1	-1E+10	1	-1E+10	1	-1E+10	1
4902549	35	C	07/26/2021	15:09	-132.290	47.295	0	1035.30	0	3.1610	0	34.3570	0	27.364	0	1024.126	0	7.0	4	2.2	4	-1E+10	1	-1E+10	1	-1E+10	1	-1E+10	1	-1E+10	1	-1E+10	1
4902549	35	C	07/26/2021	15:09	-132.290	47.295	0	1045.30	0	3.1500	0	34.3610	0	27.368	0	1033.994	0	7.1	4	2.2	4	-1E+10	1	-1E+10	1	-1E+10	1	-1E+10	1	-1E+10	1	-1E+10	1
4902549	35	C	07/26/2021	15:09	-132.290	47.295	0	1055.60	0	3.1330	0	34.3630	0	27.371	0	1044.157	0	7.1	4	2.2	4	-1E+10	1	-1E+10	1	-1E+10	1	-1E+10	1	-1E+10	1	-1E+10	1
4902549	35	C	07/26/2021	15:09	-132.290	47.295	0	1065.60	0	3.1230	0	34.3670	0	27.375	0	1054.023	0	7.1	4	2.2	4	-1E+10	1	-1E+10	1	-1E+10	1	-1E+10	1	-1E+10	1	-1E+10	1
4902549	35	C	07/26/2021	15:09	-132.290	47.295	0	1075.40	0	3.1090	0	34.3700	0	27.379	0	1063.692	0	7.2	4	2.2	4	-1E+10	1	-1E+10	1	-1E+10	1	-1E+10	1	-1E+10	1	-1E+10	1
4902549	35	C	07/26/2021	15:09	-132.290	47.295	0	1085.50	0	3.0850	0	34.3730	0	27.384	0	1073.656	0	7.2	4	2.2	4	-1E+10	1	-1E+10	1	-1E+10	1	-1E+10	1	-1E+10	1	-1E+10	1
4902549	35	C	07/26/2021	15:09	-132.290	47.295	0	1095.60	0	3.0750	0	34.3780	0	27.389	0	1083.620	0	7.1	4	2.2	4	-1E+10	1	-1E+10	1	-1E+10	1	-1E+10	1	-1E+10	1	-1E+10	1
4902549	35	C	07/26/2021	15:09	-132.290	47.295	0	1105.30	0	3.0650	0	34.3830	0	27.394	0	1093.189	0	7.2	4	2.2	4	-1E+10	1	-1E+10	1	-1E+10	1	-1E+10	1	-1E+10	1	-1E+10	1
4902549	35	C	07/26/2021	15:09	-132.290	47.295	0	1115.20	0	3.0470	0	34.3860	0	27.398	0	1102.954	0	7.2	4	2.2	4	-1E+10	1	-1E+10	1	-1E+10	1	-1E+10	1	-1E+10	1	-1E+10	1
4902549	35	C	07/26/2021	15:09	-132.290	47.295	0	1125.20	0	3.0330	0	34.3900	0	27.402	0	1112.818	0	7.3	4	2.3	4	-1E+10	1	-1E+10	1	-1E+10	1	-1E+10	1	-1E+10	1	-1E+10	1
4902549	35	C	07/26/2021	15:09	-132.290	47.295	0	1135.30	0	3.0180	0	34.3940	0	27.407	0	1122.780	0	7.4	4	2.3	4	-1E+10	1	-1E+10	1	-1E+10	1	-1E+10	1	-1E+10	1	-1E+10	1
4902549	35	C	07/26/2021	15:09	-132.290	47.295	0	1145.60	0	2.9980	0	34.3980	0	27.412	0	1132.938	0	7.5	4	2.3	4	-1E+10	1	-1E+10	1	-1E+10	1	-1E+10	1	-1E+10	1	-1E+10	1
4902549	35	C	07/26/2021	15:09	-132.290	47.295	0	1155.50	0	2.9750	0	34.4020	0	27.417	0	1142.702	0	7.6	4	2.3	4	-1E+10	1	-1E+10	1	-1E+10	1	-1E+10	1	-1E+10	1	-1E+10	1
4902549	35	C	07/26/2021	15:09	-132.290	47.295	0	1165.20	0	2.9570	0	34.4050	0	27.421	0	1152.268	0	7.7	4	2.4	4	-1E+10	1	-1E+10	1	-1E+10	1	-1E+10	1	-1E+10	1	-1E+10	1
4902549	35	C	07/26/2021	15:09	-132.290	47.295	0	1175.60	0	2.9390	0	34.4080	0	27.425	0	1162.524	0	7.8	4	2.4	4	-1E+10	1	-1E+10	1	-1E+10	1	-1E+10	1	-1E+10	1	-1E+10	1
4902549	35	C	07/26/2021	15:09	-132.290	47.295	0	1185.50	0	2.9260	0	34.4110	0	27.429	0	1172.286	0	7.9	4	2.4	4	-1E+10	1	-1E+10	1	-1E+10	1	-1E+10	1	-1E+10	1	-1E+10	1
4902549	35	C	07/26/2021	15:09	-132.290	47.295	0	1195.50	0	2.9060	0	34.4150	0	27.434	0	1182.146	0	8.1	4	2.5	4	-1E+10	1	-1E+10	1	-1E+10	1	-1E+10	1	-1E+10	1	-1E+10	1
4902549	35	C	07/26/2021	15:09	-132.290	47.295	0	1206.10	0	2.8890	0	34.4190	0	27.439	0	1192.598	0	8.2	4	2.5	4	-1E+10	1	-1E+10	1	-1E+10	1	-1E+10	1	-1E+10	1	-1E+10	1
4902549	35	C	07/26/2021	15:09	-132.290	47.295	0	1215.60	0	2.8740	0	34.4220	0	27.443	0	1201.964	0	8.4	4	2.6	4	-1E+10	1	-1E+10	1	-1E+10	1	-1E+10	1	-1E+10	1	-1E+10	1
4902549	35	C	07/26/2021	15:09	-132.290	47.295	0	1225.50	0	2.8600	0	34.4240	0	27.445	0	1211.725	0	8.6	4	2.6	4	-1E+10	1	-1E+10	1	-1E+10	1	-1E+10	1	-1E+10	1	-1E+10	1
4902549	35	C	07/26/2021	15:09	-132.290	47.295	0	1235.30	0	2.8450	0	34.4280	0	27.450	0	1221.386	0	8.7	4	2.7	4	-1E+10	1	-1E+10	1	-1E+10	1	-1E+10	1	-1E+10	1	-1E+10	1
4902549	35	C	07/26/2021	15:09	-132.290	47.295	0	1245.30	0	2.8280	0	34.4300	0	27.453	0	1231.245	0	8.8	4	2.7	4	-1E+10	1	-1E+10	1	-1E+10	1	-1E+10	1	-1E+10	1	-1E+10	1
4902549	35	C	07/26/2021	15:09	-132.290	47.295	0	1255.40	0	2.8160	0	34.4320	0	27.456	0	1241.201	0	9.1	4	2.8	4	-1E+10	1	-1E+10	1	-1E+10	1	-1E+10	1	-1E+10	1	-1E+10	1
4902549	35	C	07/26/2021	15:09	-132.290	47.295	0	1265.50	0	2.8030	0	34.4350	0	27.459	0	1251.156	0	9.4	4	2.9	4	-1E+10	1	-1E+10	1	-1E+10	1	-1E+10	1	-1E+10	1	-1E+10	1
4902549	35	C	07/26/2021	15:09	-132.290	47.295	0	1275.70	0	2.7850	0	34.4380	0	27.463	0	1261.210	0	9.5	4	2.9	4	-1E+10	1	-1E+10	1	-1E+10	1	-1E+10	1	-1E+10	1	-1E+10	1
4902549	35	C	07/26/2021	15:09	-132.290	47.295	0	1285.50	0	2.7640	0	34.4410	0	27.468	0	1270.869	0	9.8	4	3.0	4	-1E+10	1	-1E+10	1	-1E+10	1	-1E+10	1	-1E+10	1	-1E+10	1
4902549	35	C	07/26/2021	15:09	-132.290	47.295	0	1295.30	0	2.7490	0	34.4440	0	27.472	0	1280.528	0	10.0	4	3.1	4	-1E+10	1	-1E+10	1	-1E+10	1	-1E+10	1	-1E+10	1	-1E+10	1
4902549	35	C	07/26/2021	15:09	-132.290	47.295	0	1305.20	0	2.7280	0	34.4460	0	27.475	0	1290.285	0	10.2	4	3.1	4	-1E+10	1	-1E+10	1	-1E+10	1	-1E+10	1	-1E+10	1	-1E+10	1
4902549	35	C	07/26/2021	15:09	-132.290	47.295	0	1315.10	0	2.7140	0	34.4470	0	27.477	0	1300.041	0	10.3	4	3.2	4	-1E+10	1	-1E+10	1	-1E+10	1	-1E+10	1	-1E+10	1	-1E+10	1
4902549	35	C	07/26/2021	15:09	-132.290	47.295	0	1325.20	0	2.6940	0	34.4500	0	27.481	0	1309.994	0	10.7	4	3.3	4	-1E+10	1	-1E+10	1	-1E+10	1	-1E+10	1	-1E+10	1	-1E+10	1
4902549	35	C	07/26/2021	15:09	-132.290	47.295	0	1335.20	0	2.6780	0	34.4530	0	27.485	0	1319.848	0	11.2	4	3.4	4	-1E+10	1	-1E+10	1	-1E+10	1	-1E+10	1	-1E+10	1	-1E+10	1
4902549	35	C	07/26/2021	15:09	-132.290	47.295	0	1345.20	0	2.6610	0	34.4580	0	27.491	0	1329.702	0	11.7	4	3.6	4	-1E+10	1	-1E+10	1	-1E+10	1	-1E+10	1	-1E+10	1	-1E+10	1
4902549	35	C	07/26/2021	15:09	-132.290	47.295	0	1355.20	0	2.6380	0	34.4620	0	27.496	0	1339.555	0	12.1	4	3.7	4	-1E+10	1	-1E+10	1	-1E+10	1	-1E+10	1	-1E+10	1	-1E+10	1
4902549	35	C	07/26/2021	15:09	-132.290	47.295	0	1365.50	0	2.6220	0	34.4640	0	27.499	0	1349.703	0	12.3	4	3.8	4	-1E+10	1	-1E+10	1	-1E+10	1	-1E+10	1	-1E+10	1	-1E+10	1
4902549	35	C	07/26/2021	15:09	-132.290	47.295	0	1375.40	0	2.6020	0	34.4670	0	27.503	0	1359.456	0	12.6	4	3.9	4	-1E+10	1	-1E+10	1	-1E+10	1	-1E+10	1	-1E+10	1	-1E+10	1
4902549	35	C	07/26/2021	15:09	-132.290	47.295	0	1385.10	0	2.5860	0	34.4700	0	27.507	0	1369.013	0	13.0	4	4.0	4	-1E+10	1	-1E+10	1	-1E+10	1	-1E+10	1	-1E+10	1	-1E+10	1
4902549	35	C	07/26/2021	15:09	-132.290	47.295	0	1395.00	0	2.5740	0	34.4720	0	27.509	0	1378.765	0	13.2	4	4.0	4	-1E+10	1	-1E+10	1	-1E+10	1	-1E+10	1	-1E+10	1	-1E+10	1
4902549	35	C	07/26/2021	15:09	-132.290	47.295	0	1405.00	0	2.5580	0	34.4740	0	27.512	0	1388.616	0	13.5	4	4.1	4	-1E+10	1	-1E+10	1	-1E+10	1	-1E+10	1	-1E+10	1	-1E+10	1
4902549	35	C	07/26/2021	15:09	-132.290	47.295	0	1415.40	0	2.5470	0	34.4760	0	27.515	0	1398.860	0	13.9	4	4.2	4	-1E+10	1	-1E+10	1	-1E+10	1	-1E+10	1	-1E+10	1	-1E+10	1
4902549	35	C	07/26/2021	15:09	-132.290	47.295	0	1425.40	0	2.5340	0	34.4780	0	27.518	0	1408.710	0	14.1	4	4.3	4	-1E+10	1	-1E+10	1	-1E+10	1	-1E+10	1	-1E+10	1	-1E+10	1
4902549	35	C	07/26/2021	15:09	-132.290	47.295	0	1435.40	0	2.5230	0	34.4800	0	27.520	0	1418.559	0	14.5	4	4.4	4	-1E+10	1	-1E+10	1	-1E+10	1	-1E+10	1	-1E+10	1	-1E+10	1
4902549	35	C	07/26/2021	15:09	-132.290	47.295	0	1445.80	0	2.5100	0	34.4810	0	27.522	0	1428.802	0	14.9	4	4.6	4	-1E+10	1	-1E+10	1	-1E+10	1	-1E+10	1	-1E+10	1	-1E+10	1
4902549	35	C	07/26/2021	15:09	-132.290	47.295	0	1455.50	0	2.4900	0	34.4830	0	27.526	0	1438.355	0	15.5	4	4.7	4	-1E+10	1	-1E+10	1	-1E+10	1	-1E+10	1	-1E+10	1	-1E+10	1
4902549	35	C	07/26/2021	15:09	-132.290	47.295	0	1465.30	0	2.4630	0	34.4870	0	27.531	0	1448.006	0	16.2	4	4.9	4	-1E+10	1	-1E+10	1	-1E+10	1	-1E+10	1	-1E+10	1	-1E+10	1
4902549	35	C	07/26/2021	15:09	-132.290	47.295	0	1475.30	0	2.4390	0	34.4900	0	27.536	0	1457.854	0	16.8	4	5.1	4	-1E+10	1	-1E+10	1	-1E+10	1	-1E+10	1	-1E+10	1	-1E+10	1
4902549	35	C	07/26/2021	15:09	-132.290	47.295	0	1485.60	0	2.4220	0	34.4930	0	27.539	0	1467.996	0	17.4	4	5.3	4	-1E+10	1	-1E+10	1	-1E+10	1	-1E+10	1	-1E+10	1	-1E+10	1
4902549	35	C	07/26/2021	15:09	-132.290	47.295	0	1495.50	0	2.4070	0	34.4960	0	27.543	0	1477.744	0	18.1	4	5.5	4	-1E+10	1	-1E+10	1	-1E+10	1	-1E+10	1	-1E+10	1	-1E+10	1
4902549	35	C	07/26/2021	15:09	-132.290	47.295	0	1505.20	0	2.3910	0	34.4980	0	27.546	0	1487.295	0	18.6	4	5.7	4	-1E+10	1	-1E+10	1	-1E+10	1	-1E+10	1	-1E+10	1	-1E+10	1
4902549	35	C	07/26/2021	15:09	-132.290	47.295	0	1515.50	0	2.3790	0	34.5000	0	27.549	0	1497.436	0	19.2	4	5.8	4	-1E+10	1	-1E+10	1	-1E+10	1	-1E+10	1	-1E+10	1	-1E+10	1
4902549	35	C	07/26/2021	15:09	-132.290	47.295	0	1525.80	0	2.3650	0	34.5030	0	27.552	0	1507.576	0	19.8	4	6.0	4	-1E+10	1	-1E+10	1	-1E+10	1	-1E+10	1	-1E+10	1	-1E+10	1
4902549	35	C	07/26/2021	15:09	-132.290	47.295	0	1535.70	0	2.3510	0	34.5050	0	27.555	0	1517.323	0	20.4	4	6.2	4	-1E+10	1	-1E+10	1	-1E+10	1	-1E+10	1	-1E+10	1	-1E+10	1
4902549	35	C	07/26/2021	15:09	-132.290	47.295	0	1545.30	0	2.3390	0	34.5070	0	27.558	0	1526.773	0	21.1	4	6.4	4	-1E+10	1	-1E+10	1	-1E+10	1	-1E+10	1	-1E+10	1	-1E+10	1
4902549	35	C	07/26/2021	15:09	-132.290	47.295	0	1555.30	0	2.3230	0	34.5110	0	27.562	0	1536.617	0	21.8	4	6.6	4	-1E+10	1	-1E+10	1	-1E+10	1	-1E+10	1	-1E+10	1	-1E+10	1
4902549	35	C	07/26/2021	15:09	-132.290	47.295	0	1565.40	0	2.3100	0	34.5130	0	27.565	0	1546.559	0	22.5	4	6.8	4	-1E+10	1	-1E+10	1	-1E+10	1	-1E+10	1	-1E+10	1	-1E+10	1
4902549	35	C	07/26/2021	15:09	-132.290	47.295	0	1575.20	0	2.2980	0	34.5150	0	27.568	0	1556.205	0	23.1	4	7.0	4	-1E+10	1	-1E+10	1	-1E+10	1	-1E+10	1	-1E+10	1	-1E+10	1
4902549	35	C	07/26/2021	15:09	-132.290	47.295	0	1585.50	0	2.2840	0	34.5170	0	27.571	0	1566.342	0	23.6	4	7.2	4	-1E+10	1	-1E+10	1	-1E+10	1	-1E+10	1	-1E+10	1	-1E+10	1
4902549	35	C	07/26/2021	15:09	-132.290	47.295	0	1595.80	0	2.2780	0	34.5180	0	27.572	0	1576.480	0	24.2	4	7.3	4	-1E+10	1	-1E+10	1	-1E+10	1	-1E+10	1	-1E+10	1	-1E+10	1
4902549	35	C	07/26/2021	15:09	-132.290	47.295	0	1605.40	0	2.2660	0	34.5210	0	27.575	0	1585.927	0	24.9	4	7.6	4	-1E+10	1	-1E+10	1	-1E+10	1	-1E+10	1	-1E+10	1	-1E+10	1
4902549	35	C	07/26/2021	15:09	-132.290	47.295	0	1615.00	0	2.2570	0	34.5230	0	27.578	0	1595.375	0	25.7	4	7.8	4	-1E+10	1	-1E+10	1	-1E+10	1	-1E+10	1	-1E+10	1	-1E+10	1
4902549	35	C	07/26/2021	15:09	-132.290	47.295	0	1625.10	0	2.2490	0	34.5250	0	27.580	0	1605.314	0	26.8	4	8.1	4	-1E+10	1	-1E+10	1	-1E+10	1	-1E+10	1	-1E+10	1	-1E+10	1
4902549	35	C	07/26/2021	15:09	-132.290	47.295	0	1635.30	0	2.2420	0	34.5290	0	27.584	0	1615.351	0	27.9	4	8.5	4	-1E+10	1	-1E+10	1	-1E+10	1	-1E+10	1	-1E+10	1	-1E+10	1
4902549	35	C	07/26/2021	15:09	-132.290	47.295	0	1645.20	0	2.2250	0	34.5330	0	27.588	0	1625.092	0	28.8	4	8.7	4	-1E+10	1	-1E+10	1	-1E+10	1	-1E+10	1	-1E+10	1	-1E+10	1
4902549	35	C	07/26/2021	15:09	-132.290	47.295	0	1655.40	0	2.2200	0	34.5340	0	27.590	0	1635.128	0	29.3	4	8.9	4	-1E+10	1	-1E+10	1	-1E+10	1	-1E+10	1	-1E+10	1	-1E+10	1
4902549	35	C	07/26/2021	15:09	-132.290	47.295	0	1665.50	0	2.2150	0	34.5350	0	27.591	0	1645.065	0	30.7	4	9.3	4	-1E+10	1	-1E+10	1	-1E+10	1	-1E+10	1	-1E+10	1	-1E+10	1
4902549	35	C	07/26/2021	15:09	-132.290	47.295	0	1675.30	0	2.1980	0	34.5400	0	27.596	0	1654.707	0	32.1	4	9.7	4	-1E+10	1	-1E+10	1	-1E+10	1	-1E+10	1	-1E+10	1	-1E+10	1
4902549	35	C	07/26/2021	15:09	-132.290	47.295	0	1685.30	0	2.1860	0	34.5440	0	27.601	0	1664.545	0	32.9	4	10.0	4	-1E+10	1	-1E+10	1	-1E+10	1	-1E+10	1	-1E+10	1	-1E+10	1
4902549	35	C	07/26/2021	15:09	-132.290	47.295	0	1695.10	0	2.1780	0	34.5450	0	27.602	0	1674.185	0	33.2	4	10.1	4	-1E+10	1	-1E+10	1	-1E+10	1	-1E+10	1	-1E+10	1	-1E+10	1
4902549	35	C	07/26/2021	15:09	-132.290	47.295	0	1705.40	0	2.1680	0	34.5460	0	27.604	0	1684.317	0	33.6	4	10.2	4	-1E+10	1	-1E+10	1	-1E+10	1	-1E+10	1	-1E+10	1	-1E+10	1
4902549	35	C	07/26/2021	15:09	-132.290	47.295	0	1715.40	0	2.1560	0	34.5470	0	27.606	0	1694.154	0	34.0	4	10.3	4	-1E+10	1	-1E+10	1	-1E+10	1	-1E+10	1	-1E+10	1	-1E+10	1
4902549	35	C	07/26/2021	15:09	-132.290	47.295	0	1725.40	0	2.1430	0	34.5480	0	27.607	0	1703.990	0	34.3	4	10.4	4	-1E+10	1	-1E+10	1	-1E+10	1	-1E+10	1	-1E+10	1	-1E+10	1
4902549	35	C	07/26/2021	15:09	-132.290	47.295	0	1735.60	0	2.1400	0	34.5480	0	27.608	0	1714.022	0	34.5	4	10.4	4	-1E+10	1	-1E+10	1	-1E+10	1	-1E+10	1	-1E+10	1	-1E+10	1
4902549	35	C	07/26/2021	15:09	-132.290	47.295	0	1745.90	0	2.1340	0	34.5500	0	27.610	0	1724.152	0	35.0	4	10.6	4	-1E+10	1	-1E+10	1	-1E+10	1	-1E+10	1	-1E+10	1	-1E+10	1
4902549	35	C	07/26/2021	15:09	-132.290	47.295	0	1755.60	0	2.1290	0	34.5510	0	27.611	0	1733.692	0	35.6	4	10.8	4	-1E+10	1	-1E+10	1	-1E+10	1	-1E+10	1	-1E+10	1	-1E+10	1
4902549	35	C	07/26/2021	15:09	-132.290	47.295	0	1765.40	0	2.1180	0	34.5520	0	27.613	0	1743.329	0	36.3	4	11.0	4	-1E+10	1	-1E+10	1	-1E+10	1	-1E+10	1	-1E+10	1	-1E+10	1
4902549	35	C	07/26/2021	15:09	-132.290	47.295	0	1775.60	0	2.1080	0	34.5550	0	27.616	0	1753.360	0	37.0	4	11.2	4	-1E+10	1	-1E+10	1	-1E+10	1	-1E+10	1	-1E+10	1	-1E+10	1
4902549	35	C	07/26/2021	15:09	-132.290	47.295	0	1785.60	0	2.1040	0	34.5560	0	27.617	0	1763.193	0	37.6	4	11.4	4	-1E+10	1	-1E+10	1	-1E+10	1	-1E+10	1	-1E+10	1	-1E+10	1
4902549	35	C	07/26/2021	15:09	-132.290	47.295	0	1795.20	0	2.1010	0	34.5570	0	27.618	0	1772.632	0	38.2	4	11.5	4	-1E+10	1	-1E+10	1	-1E+10	1	-1E+10	1	-1E+10	1	-1E+10	1
4902549	35	C	07/26/2021	15:09	-132.290	47.295	0	1805.30	0	2.0950	0	34.5590	0	27.620	0	1782.563	0	38.7	4	11.7	4	-1E+10	1	-1E+10	1	-1E+10	1	-1E+10	1	-1E+10	1	-1E+10	1
4902549	35	C	07/26/2021	15:09	-132.290	47.295	0	1815.60	0	2.0910	0	34.5600	0	27.622	0	1792.690	0	39.3	4	11.9	4	-1E+10	1	-1E+10	1	-1E+10	1	-1E+10	1	-1E+10	1	-1E+10	1
4902549	35	C	07/26/2021	15:09	-132.290	47.295	0	1825.60	0	2.0800	0	34.5610	0	27.623	0	1802.521	0	40.1	4	12.1	4	-1E+10	1	-1E+10	1	-1E+10	1	-1E+10	1	-1E+10	1	-1E+10	1
4902549	35	C	07/26/2021	15:09	-132.290	47.295	0	1835.80	0	2.0730	0	34.5630	0	27.626	0	1812.549	0	40.6	4	12.3	4	-1E+10	1	-1E+10	1	-1E+10	1	-1E+10	1	-1E+10	1	-1E+10	1
4902549	35	C	07/26/2021	15:09	-132.290	47.295	0	1845.40	0	2.0690	0	34.5640	0	27.627	0	1821.986	0	41.1	4	12.4	4	-1E+10	1	-1E+10	1	-1E+10	1	-1E+10	1	-1E+10	1	-1E+10	1
4902549	35	C	07/26/2021	15:09	-132.290	47.295	0	1855.40	0	2.0600	0	34.5650	0	27.628	0	1831.816	0	41.4	4	12.5	4	-1E+10	1	-1E+10	1	-1E+10	1	-1E+10	1	-1E+10	1	-1E+10	1
4902549	35	C	07/26/2021	15:09	-132.290	47.295	0	1865.80	0	2.0470	0	34.5660	0	27.630	0	1842.039	0	41.8	4	12.6	4	-1E+10	1	-1E+10	1	-1E+10	1	-1E+10	1	-1E+10	1	-1E+10	1
4902549	35	C	07/26/2021	15:09	-132.290	47.295	0	1875.70	0	2.0380	0	34.5680	0	27.633	0	1851.770	0	42.6	4	12.9	4	-1E+10	1	-1E+10	1	-1E+10	1	-1E+10	1	-1E+10	1	-1E+10	1
4902549	35	C	07/26/2021	15:09	-132.290	47.295	0	1885.60	0	2.0320	0	34.5690	0	27.634	0	1861.500	0	43.2	4	13.0	4	-1E+10	1	-1E+10	1	-1E+10	1	-1E+10	1	-1E+10	1	-1E+10	1
4902549	35	C	07/26/2021	15:09	-132.290	47.295	0	1895.40	0	2.0260	0	34.5710	0	27.636	0	1871.132	0	43.7	4	13.2	4	-1E+10	1	-1E+10	1	-1E+10	1	-1E+10	1	-1E+10	1	-1E+10	1
4902549	35	C	07/26/2021	15:09	-132.290	47.295	0	1905.30	0	2.0200	0	34.5720	0	27.637	0	1880.861	0	44.4	4	13.4	4	-1E+10	1	-1E+10	1	-1E+10	1	-1E+10	1	-1E+10	1	-1E+10	1
4902549	35	C	07/26/2021	15:09	-132.290	47.295	0	1915.50	0	2.0110	0	34.5740	0	27.640	0	1890.885	0	45.3	4	13.7	4	-1E+10	1	-1E+10	1	-1E+10	1	-1E+10	1	-1E+10	1	-1E+10	1
4902549	35	C	07/26/2021	15:09	-132.290	47.295	0	1925.70	0	2.0020	0	34.5760	0	27.642	0	1900.909	0	46.1	4	13.9	4	-1E+10	1	-1E+10	1	-1E+10	1	-1E+10	1	-1E+10	1	-1E+10	1
4902549	35	C	07/26/2021	15:09	-132.290	47.295	0	1935.40	0	1.9910	0	34.5770	0	27.644	0	1910.440	0	46.8	4	14.1	4	-1E+10	1	-1E+10	1	-1E+10	1	-1E+10	1	-1E+10	1	-1E+10	1
4902549	35	C	07/26/2021	15:09	-132.290	47.295	0	1945.10	0	1.9850	0	34.5790	0	27.646	0	1919.972	0	47.4	4	14.3	4	-1E+10	1	-1E+10	1	-1E+10	1	-1E+10	1	-1E+10	1	-1E+10	1
4902549	35	C	07/26/2021	15:09	-132.290	47.295	0	1955.30	0	1.9770	0	34.5800	0	27.647	0	1929.994	0	48.0	4	14.5	4	-1E+10	1	-1E+10	1	-1E+10	1	-1E+10	1	-1E+10	1	-1E+10	1
4902549	35	C	07/26/2021	15:09	-132.290	47.295	0	1965.50	0	1.9680	0	34.5820	0	27.650	0	1940.015	0	48.8	4	14.7	4	-1E+10	1	-1E+10	1	-1E+10	1	-1E+10	1	-1E+10	1	-1E+10	1
4902549	35	C	07/26/2021	15:09	-132.290	47.295	0	1975.30	0	1.9600	0	34.5830	0	27.651	0	1949.643	0	49.4	4	14.9	4	-1E+10	1	-1E+10	1	-1E+10	1	-1E+10	1	-1E+10	1	-1E+10	1
4902549	35	C	07/26/2021	15:09	-132.290	47.295	0	1985.00	0	1.9520	0	34.5850	0	27.653	0	1959.173	0	49.6	4	14.9	4	-1E+10	1	-1E+10	1	-1E+10	1	-1E+10	1	-1E+10	1	-1E+10	1
4902549	35	C	07/26/2021	15:09	-132.290	47.295	0																										
4902549	36	C	08/05/2021	20:18	-132.156	47.273	0	0.10	0	16.6690	0	32.2380	0	23.473	0	0.099	0	241.5	4	98.8	4	-1E+10	1	-1E+10	1	-1E+10	1	-1E+10	1	-1E+10	1	-1E+10	1
4902549	36	C	08/05/2021	20:18	-132.156	47.273	0	0.90	0	16.6610	0	32.2100	0	23.453	0	0.893	0	241.5	4	98.8	4	-1E+10	1	-1E+10	1	-1E+10	1	-1E+10	1	-1E+10	1	-1E+10	1
4902549	36	C	08/05/2021	20:18	-132.156	47.273	0	2.00	0	16.6170	0	32.2330	0	23.481	0	1.983	0	241.8	4	98.8	4	-1E+10	1	-1E+10	1	-1E+10	1	-1E+10	1	-1E+10	1	-1E+10	1
4902549	36	C	08/05/2021	20:18	-132.156	47.273	0	3.00	0	16.5810	0	32.2590	0	23.510	0	2.975	0	242.0	4	98.8	4	-1E+10	1	-1E+10	1	-1E+10	1	-1E+10	1	-1E+10	1	-1E+10	1
4902549	36	C	08/05/2021	20:18	-132.156	47.273	0	3.90	0	16.5750	0	32.2620	0	23.513	0	3.867	0	242.1	4	98.8	4	-1E+10	1	-1E+10	1	-1E+10	1	-1E+10	1	-1E+10	1	-1E+10	1
4902549	36	C	08/05/2021	20:18	-132.156	47.273	0	5.10	0	16.5550	0	32.2770	0	23.529	0	5.057	0	242.2	4	98.9	4	-1E+10	1	-1E+10	1	-1E+10	1	-1E+10	1	-1E+10	1	-1E+10	1
4902549	36	C	08/05/2021	20:18	-132.156	47.273	0	5.80	0	16.5520	0	32.2760	0	23.529	0	5.752	0	242.3	4	98.9	4	-1E+10	1	-1E+10	1	-1E+10	1	-1E+10	1	-1E+10	1	-1E+10	1
4902549	36	C	08/05/2021	20:18	-132.156	47.273	0	6.80	0	16.5490	0	32.2760	0	23.530	0	6.743	0	242.5	4	99.0	4	-1E+10	1	-1E+10	1	-1E+10	1	-1E+10	1	-1E+10	1	-1E+10	1
4902549	36	C	08/05/2021	20:18	-132.156	47.273	0	7.80	0	16.5470	0	32.2760	0	23.531	0	7.735	0	242.7	4	99.1	4	-1E+10	1	-1E+10	1	-1E+10	1	-1E+10	1	-1E+10	1	-1E+10	1
4902549	36	C	08/05/2021	20:18	-132.156	47.273	0	8.80	0	16.5450	0	32.2770	0	23.532	0	8.727	0	243.0	4	99.2	4	-1E+10	1	-1E+10	1	-1E+10	1	-1E+10	1	-1E+10	1	-1E+10	1
4902549	36	C	08/05/2021	20:18	-132.156	47.273	0	9.80	0	16.5420	0	32.2760	0	23.532	0	9.718	0	243.4	4	99.3	4	-1E+10	1	-1E+10	1	-1E+10	1	-1E+10	1	-1E+10	1	-1E+10	1
4902549	36	C	08/05/2021	20:18	-132.156	47.273	0	10.80	0	16.5400	0	32.2760	0	23.532	0	10.710	0	243.7	4	99.5	4	-1E+10	1	-1E+10	1	-1E+10	1	-1E+10	1	-1E+10	1	-1E+10	1
4902549	36	C	08/05/2021	20:18	-132.156	47.273	0	11.80	0	16.5410	0	32.2760	0	23.532	0	11.701	0	244.2	4	99.7	4	-1E+10	1	-1E+10	1	-1E+10	1	-1E+10	1	-1E+10	1	-1E+10	1
4902549	36	C	08/05/2021	20:18	-132.156	47.273	0	12.80	0	16.5390	0	32.2760	0	23.533	0	12.693	0	244.7	4	99.9	4	-1E+10	1	-1E+10	1	-1E+10	1	-1E+10	1	-1E+10	1	-1E+10	1
4902549	36	C	08/05/2021	20:18	-132.156	47.273	0	14.00	0	16.5370	0	32.2750	0	23.532	0	13.883	0	245.5	4	100.2	4	-1E+10	1	-1E+10	1	-1E+10	1	-1E+10	1	-1E+10	1	-1E+10	1
4902549	36	C	08/05/2021	20:18	-132.156	47.273	0	15.30	0	16.5350	0	32.2750	0	23.533	0	15.172	0	247.0	4	100.8	4	-1E+10	1	-1E+10	1	-1E+10	1	-1E+10	1	-1E+10	1	-1E+10	1
4902549	36	C	08/05/2021	20:18	-132.156	47.273	0	16.00	0	16.5280	0	32.2750	0	23.534	0	15.866	0	248.1	4	101.2	4	-1E+10	1	-1E+10	1	-1E+10	1	-1E+10	1	-1E+10	1	-1E+10	1
4902549	36	C	08/05/2021	20:18	-132.156	47.273	0	17.20	0	16.4620	0	32.2740	0	23.549	0	17.056	0	250.5	4	102.1	4	-1E+10	1	-1E+10	1	-1E+10	1	-1E+10	1	-1E+10	1	-1E+10	1
4902549	36	C	08/05/2021	20:18	-132.156	47.273	0	18.00	0	16.3170	0	32.2770	0	23.584	0	17.849	0	252.7	4	102.7	4	-1E+10	1	-1E+10	1	-1E+10	1	-1E+10	1	-1E+10	1	-1E+10	1
4902549	36	C	08/05/2021	20:18	-132.156	47.273	0	19.00	0	16.0510	0	32.2930	0	23.656	0	18.841	0	255.5	4	103.3	4	-1E+10	1	-1E+10	1	-1E+10	1	-1E+10	1	-1E+10	1	-1E+10	1
4902549	36	C	08/05/2021	20:18	-132.156	47.273	0	19.90	0	15.8280	0	32.2860	0	23.701	0	19.733	0	258.0	4	103.9	4	-1E+10	1	-1E+10	1	-1E+10	1	-1E+10	1	-1E+10	1	-1E+10	1
4902549	36	C	08/05/2021	20:18	-132.156	47.273	0	20.90	0	15.6280	0	32.2970	0	23.754	0	20.725	0	260.4	4	104.4	4	-1E+10	1	-1E+10	1	-1E+10	1	-1E+10	1	-1E+10	1	-1E+10	1
4902549	36	C	08/05/2021	20:18	-132.156	47.273	0	21.90	0	15.2770	0	32.2970	0	23.831	0	21.717	0	262.8	4	104.7	4	-1E+10	1	-1E+10	1	-1E+10	1	-1E+10	1	-1E+10	1	-1E+10	1
4902549	36	C	08/05/2021	20:18	-132.156	47.273	0	23.00	0	14.7700	0	32.3120	0	23.951	0	22.807	0	266.0	4	104.9	4	-1E+10	1	-1E+10	1	-1E+10	1	-1E+10	1	-1E+10	1	-1E+10	1
4902549	36	C	08/05/2021	20:18	-132.156	47.273	0	24.10	0	14.5460	0	32.3040	0	23.992	0	23.898	0	268.2	4	105.3	4	-1E+10	1	-1E+10	1	-1E+10	1	-1E+10	1	-1E+10	1	-1E+10	1
4902549	36	C	08/05/2021	20:18	-132.156	47.273	0	24.90	0	14.2420	0	32.3100	0	24.061	0	24.691	0	270.0	4	105.4	4	-1E+10	1	-1E+10	1	-1E+10	1	-1E+10	1	-1E+10	1	-1E+10	1
4902549	36	C	08/05/2021	20:18	-132.156	47.273	0	26.10	0	14.0040	0	32.3030	0	24.104	0	25.881	0	271.7	4	105.5	4	-1E+10	1	-1E+10	1	-1E+10	1	-1E+10	1	-1E+10	1	-1E+10	1
4902549	36	C	08/05/2021	20:18	-132.156	47.273	0	27.00	0	13.8870	0	32.3020	0	24.128	0	26.773	0	272.6	4	105.6	4	-1E+10	1	-1E+10	1	-1E+10	1	-1E+10	1	-1E+10	1	-1E+10	1
4902549	36	C	08/05/2021	20:18	-132.156	47.273	0	28.10	0	13.7150	0	32.3030	0	24.163	0	27.864	0	273.7	4	105.7	4	-1E+10	1	-1E+10	1	-1E+10	1	-1E+10	1	-1E+10	1	-1E+10	1
4902549	36	C	08/05/2021	20:18	-132.156	47.273	0	29.10	0	13.1970	0	32.3070	0	24.270	0	28.856	0	277.1	4	105.9	4	-1E+10	1	-1E+10	1	-1E+10	1	-1E+10	1	-1E+10	1	-1E+10	1
4902549	36	C	08/05/2021	20:18	-132.156	47.273	0	30.10	0	12.6850	0	32.3160	0	24.377	0	29.847	0	279.3	4	105.6	4	-1E+10	1	-1E+10	1	-1E+10	1	-1E+10	1	-1E+10	1	-1E+10	1
4902549	36	C	08/05/2021	20:18	-132.156	47.273	0	31.20	0	12.3800	0	32.3180	0	24.437	0	30.938	0	280.0	4	105.2	4	-1E+10	1	-1E+10	1	-1E+10	1	-1E+10	1	-1E+10	1	-1E+10	1
4902549	36	C	08/05/2021	20:18	-132.156	47.273	0	31.90	0	12.3260	0	32.3230	0	24.451	0	31.632	0	280.0	4	105.1	4	-1E+10	1	-1E+10	1	-1E+10	1	-1E+10	1	-1E+10	1	-1E+10	1
4902549	36	C	08/05/2021	20:18	-132.156	47.273	0	32.90	0	12.0810	0	32.3240	0	24.498	0	32.623	0	280.4	4	104.7	4	-1E+10	1	-1E+10	1	-1E+10	1	-1E+10	1	-1E+10	1	-1E+10	1
4902549	36	C	08/05/2021	20:18	-132.156	47.273	0	34.00	0	11.6210	0	32.3230	0	24.582	0	33.714	0	282.1	4	104.3	4	-1E+10	1	-1E+10	1	-1E+10	1	-1E+10	1	-1E+10	1	-1E+10	1
4902549	36	C	08/05/2021	20:18	-132.156	47.273	0	35.00	0	11.4670	0	32.3250	0	24.611	0	34.706	0	282.0	4	104.0	4	-1E+10	1	-1E+10	1	-1E+10	1	-1E+10	1	-1E+10	1	-1E+10	1
4902549	36	C	08/05/2021	20:18	-132.156	47.273	0	35.90	0	11.3710	0	32.3230	0	24.627	0	35.598	0	281.7	4	103.6	4	-1E+10	1	-1E+10	1	-1E+10	1	-1E+10	1	-1E+10	1	-1E+10	1
4902549	36	C	08/05/2021	20:18	-132.156	47.273	0	36.80	0	11.3020	0	32.3210	0	24.638	0	36.490	0	281.3	4	103.3	4	-1E+10	1	-1E+10	1	-1E+10	1	-1E+10	1	-1E+10	1	-1E+10	1
4902549	36	C	08/05/2021	20:18	-132.156	47.273	0	37.80	0	11.0900	0	32.3290	0	24.682	0	37.482	0	281.6	4	103.0	4	-1E+10	1	-1E+10	1	-1E+10	1	-1E+10	1	-1E+10	1	-1E+10	1
4902549	36	C	08/05/2021	20:18	-132.156	47.273	0	39.10	0	11.0090	0	32.3330	0	24.699	0	38.771	0	281.3	4	102.7	4	-1E+10	1	-1E+10	1	-1E+10	1	-1E+10	1	-1E+10	1	-1E+10	1
4902549	36	C	08/05/2021	20:18	-132.156	47.273	0	39.90	0	10.9100	0	32.3380	0	24.720	0	39.564	0	281.6	4	102.6	4	-1E+10	1	-1E+10	1	-1E+10	1	-1E+10	1	-1E+10	1	-1E+10	1
4902549	36	C	08/05/2021	20:18	-132.156	47.273	0	41.10	0	10.8110	0	32.3400	0	24.739	0	40.754	0	281.6	4	102.4	4	-1E+10	1	-1E+10	1	-1E+10	1	-1E+10	1	-1E+10	1	-1E+10	1
4902549	36	C	08/05/2021	20:18	-132.156	47.273	0	42.30	0	10.7490	0	32.3420	0	24.751	0	41.944	0	281.6	4	102.3	4	-1E+10	1	-1E+10	1	-1E+10	1	-1E+10	1	-1E+10	1	-1E+10	1
4902549	36	C	08/05/2021	20:18	-132.156	47.273	0	43.00	0	10.7160	0	32.3440	0	24.759	0	42.638	0	281.7	4	102.2	4	-1E+10	1	-1E+10	1	-1E+10	1	-1E+10	1	-1E+10	1	-1E+10	1
4902549	36	C	08/05/2021	20:18	-132.156	47.273	0	44.10	0	10.7030	0	32.3450	0	24.762	0	43.728	0	281.4	4	102.1	4	-1E+10	1	-1E+10	1	-1E+10	1	-1E+10	1	-1E+10	1	-1E+10	1
4902549	36	C	08/05/2021	20:18	-132.156	47.273	0	45.00	0	10.7020	0	32.3450	0	24.762	0	44.620	0	280.9	4	101.9	4	-1E+10	1	-1E+10	1	-1E+10	1	-1E+10	1	-1E+10	1	-1E+10	1
4902549	36	C	08/05/2021	20:18	-132.156	47.273	0	45.90	0	10.6860	0	32.3450	0	24.765	0	45.513	0	280.7	4	101.8	4	-1E+10	1	-1E+10	1	-1E+10	1	-1E+10	1	-1E+10	1	-1E+10	1
4902549	36	C	08/05/2021	20:18	-132.156	47.273	0	47.00	0	10.6650	0	32.3470	0	24.770	0	46.603	0	280.3	4	101.6	4	-1E+10	1	-1E+10	1	-1E+10	1	-1E+10	1	-1E+10	1	-1E+10	1
4902549	36	C	08/05/2021	20:18	-132.156	47.273	0	48.20	0	10.6380	0	32.3490	0	24.776	0	47.793	0	279.6	4	101.3	4	-1E+10	1	-1E+10	1	-1E+10	1	-1E+10	1	-1E+10	1	-1E+10	1
4902549	36	C	08/05/2021	20:18	-132.156	47.273	0	48.80	0	10.6260	0	32.3490	0	24.778	0	48.388	0	279.2	4	101.1	4	-1E+10	1	-1E+10	1	-1E+10	1	-1E+10	1	-1E+10	1	-1E+10	1
4902549	36	C	08/05/2021	20:18	-132.156	47.273	0	49.80	0	10.5780	0	32.3500	0	24.787	0	49.379	0	278.4	4	100.7	4	-1E+10	1	-1E+10	1	-1E+10	1	-1E+10	1	-1E+10	1	-1E+10	1
4902549	36	C	08/05/2021	20:18	-132.156	47.273	0	50.80	0	10.5190	0	32.3530	0	24.800	0	50.371	0	277.4	4	100.2	4	-1E+10	1	-1E+10	1	-1E+10	1	-1E+10	1	-1E+10	1	-1E+10	1
4902549	36	C	08/05/2021	20:18	-132.156	47.273	0	51.80	0	10.4360	0	32.3510	0	24.812	0	51.362	0	276.4	4	99.7	4	-1E+10	1	-1E+10	1	-1E+10	1	-1E+10	1	-1E+10	1	-1E+10	1
4902549	36	C	08/05/2021	20:18	-132.156	47.273	0	52.90	0	10.2170	0	32.3490	0	24.848	0	52.453	0	276.1	4	99.1	4	-1E+10	1	-1E+10	1	-1E+10	1	-1E+10	1	-1E+10	1	-1E+10	1
4902549	36	C	08/05/2021	20:18	-132.156	47.273	0	53.90	0	10.0590	0	32.3520	0	24.876	0	53.444	0	275.9	4	98.7	4	-1E+10	1	-1E+10	1	-1E+10	1	-1E+10	1	-1E+10	1	-1E+10	1
4902549	36	C	08/05/2021	20:18	-132.156	47.273	0	54.80	0	9.9780	0	32.3580	0	24.895	0	54.337	0	275.6	4	98.4	4	-1E+10	1	-1E+10	1	-1E+10	1	-1E+10	1	-1E+10	1	-1E+10	1
4902549	36	C	08/05/2021	20:18	-132.156	47.273	0	55.90	0	9.9110	0	32.3740	0	24.918	0	55.427	0	275.0	4	98.1	4	-1E+10	1	-1E+10	1	-1E+10	1	-1E+10	1	-1E+10	1	-1E+10	1
4902549	36	C	08/05/2021	20:18	-132.156	47.273	0	57.10	0	9.8330	0	32.3990	0	24.950	0	56.617	0	274.4	4	97.7	4	-1E+10	1	-1E+10	1	-1E+10	1	-1E+10	1	-1E+10	1	-1E+10	1
4902549	36	C	08/05/2021	20:18	-132.156	47.273	0	58.10	0	9.8020	0	32.3980	0	24.955	0	57.608	0	273.7	4	97.4	4	-1E+10	1	-1E+10	1	-1E+10	1	-1E+10	1	-1E+10	1	-1E+10	1
4902549	36	C	08/05/2021	20:18	-132.156	47.273	0	59.10	0	9.6960	0	32.4080	0	24.980	0	58.600	0	273.4	4	97.1	4	-1E+10	1	-1E+10	1	-1E+10	1	-1E+10	1	-1E+10	1	-1E+10	1
4902549	36	C	08/05/2021	20:18	-132.156	47.273	0	60.10	0	9.6130	0	32.4090	0	24.994	0	59.591	0	272.6	4	96.6	4	-1E+10	1	-1E+10	1	-1E+10	1	-1E+10	1	-1E+10	1	-1E+10	1
4902549	36	C	08/05/2021	20:18	-132.156	47.273	0	61.10	0	9.4770	0	32.3980	0	25.007	0	60.582	0	272.5	4	96.3	4	-1E+10	1	-1E+10	1	-1E+10	1	-1E+10	1	-1E+10	1	-1E+10	1
4902549	36	C	08/05/2021	20:18	-132.156	47.273	0	62.10	0	9.3880	0	32.3940	0	25.018	0	61.574	0	271.6	4	95.8	4	-1E+10	1	-1E+10	1	-1E+10	1	-1E+10	1	-1E+10	1	-1E+10	1
4902549	36	C	08/05/2021	20:18	-132.156	47.273	0	63.00	0	9.1770	0	32.3960	0	25.053	0	62.466	0	271.9	4	95.5	4	-1E+10	1	-1E+10	1	-1E+10	1	-1E+10	1	-1E+10	1	-1E+10	1
4902549	36	C	08/05/2021	20:18	-132.156	47.273	0	63.70	0	9.0450	0	32.3960	0	25.074	0	63.160	0	271.8	4	95.2	4	-1E+10	1	-1E+10	1	-1E+10	1	-1E+10	1	-1E+10	1	-1E+10	1
4902549	36	C	08/05/2021	20:18	-132.156	47.273	0	64.80	0	8.9210	0	32.4070	0	25.102	0	64.250	0	271.5	4	94.8	4	-1E+10	1	-1E+10	1	-1E+10	1	-1E+10	1	-1E+10	1	-1E+10	1
4902549	36	C	08/05/2021	20:18	-132.156	47.273	0	65.80	0	8.8350	0	32.4250	0	25.129	0	65.242	0	271.4	4	94.6	4	-1E+10	1	-1E+10	1	-1E+10	1	-1E+10	1	-1E+10	1	-1E+10	1
4902549	36	C	08/05/2021	20:18	-132.156	47.273	0	66.90	0	8.8060	0	32.4280	0	25.136	0	66.332	0	271.1	4	94.4	4	-1E+10	1	-1E+10	1	-1E+10	1	-1E+10	1	-1E+10	1	-1E+10	1
4902549	36	C	08/05/2021	20:18	-132.156	47.273	0	68.10	0	8.7220	0	32.4320	0	25.152	0	67.522	0	271.0	4	94.2	4	-1E+10	1	-1E+10	1	-1E+10	1	-1E+10	1	-1E+10	1	-1E+10	1
4902549	36	C	08/05/2021	20:18	-132.156	47.273	0	69.10	0	8.5690	0	32.4250	0	25.170	0	68.513	0	270.6	4	93.7	4	-1E+10	1	-1E+10	1	-1E+10	1	-1E+10	1	-1E+10	1	-1E+10	1
4902549	36	C	08/05/2021	20:18	-132.156	47.273	0	69.90	0	8.4910	0	32.4200	0	25.177	0	69.306	0	270.0	4	93.4	4	-1E+10	1	-1E+10	1	-1E+10	1	-1E+10	1	-1E+10	1	-1E+10	1
4902549	36	C	08/05/2021	20:18	-132.156	47.273	0	71.00	0	8.4630	0	32.4240	0	25.185	0	70.397	0	268.5	4	92.8	4	-1E+10	1	-1E+10	1	-1E+10	1	-1E+10	1	-1E+10	1	-1E+10	1
4902549	36	C	08/05/2021	20:18	-132.156	47.273	0	72.00	0	8.4450	0	32.4300	0	25.192	0	71.388	0	267.5	4	92.4	4	-1E+10	1	-1E+10	1	-1E+10	1	-1E+10	1	-1E+10	1	-1E+10	1
4902549	36	C	08/05/2021	20:18	-132.156	47.273	0	73.00	0	8.3700	0	32.4400	0	25.211	0	72.379	0	266.8	4	92.0	4	-1E+10	1	-1E+10	1	-1E+10	1	-1E+10	1	-1E+10	1	-1E+10	1
4902549	36	C	08/05/2021	20:18	-132.156	47.273	0	74.20	0	8.3500	0	32.4430	0	25.216	0	73.569	0	265.9	4	91.7	4	-1E+10	1	-1E+10	1	-1E+10	1	-1E+10	1	-1E+10	1	-1E+10	1
4902549	36	C	08/05/2021	20:18	-132.156	47.273	0	74.90	0	8.3430	0	32.4460	0	25.220	0	74.263	0	265.0	4	91.4	4	-1E+10	1	-1E+10	1	-1E+10	1	-1E+10	1	-1E+10	1	-1E+10	1
4902549	36	C	08/05/2021	20:18	-132.156	47.273	0	76.20	0	8.3320	0	32.4500	0	25.225	0	75.552	0	264.0	4	91.0	4	-1E+10	1	-1E+10	1	-1E+10	1	-1E+10	1	-1E+10	1	-1E+10	1
4902549	36	C	08/05/2021	20:18	-132.156	47.273	0	77.00	0	8.3490	0	32.4650	0	25.234	0	76.345	0	263.3	4	90.8	4	-1E+10	1	-1E+10	1	-1E+10	1	-1E+10	1	-1E+10	1	-1E+10	1
4902549	36	C	08/05/2021	20:18	-132.156	47.273	0	78.20	0	8.3360	0	32.4700	0	25.240	0	77.534	0	262.5	4	90.5	4	-1E+10	1	-1E+10	1	-1E+10	1	-1E+10	1	-1E+10	1	-1E+10	1
4902549	36	C	08/05/2021	20:18	-132.156	47.273	0	79.10	0	8.3240	0	32.4710	0	25.242	0	78.426	0	262.1	4	90.3	4	-1E+10	1	-1E+10	1	-1E+10	1	-1E+10	1	-1E+10	1	-1E+10	1
4902549	36	C	08/05/2021	20:18	-132.156	47.273	0	79.90	0	8.3070	0	32.4750	0	25.248	0	79.219	0	261.7	4	90.2	4	-1E+10	1	-1E+10	1	-1E+10	1	-1E+10	1	-1E+10	1	-1E+10	1
4902549	36	C	08/05/2021	20:18	-132.156	47.273	0	81.10	0	8.2930	0	32.4750	0	25.250	0	80.409	0	261.0	4	89.9	4	-1E+10	1	-1E+10	1	-1E+10	1	-1E+10	1	-1E+10	1	-1E+10	1
4902549	36	C	08/05/2021	20:18	-132.156	47.273	0	81.90	0	8.2800	0	32.4750	0	25.252	0	81.202	0	260.5	4	89.7	4	-1E+10	1	-1E+10	1	-1E+10	1	-1E+10	1	-1E+10	1	-1E+10	1
4902549	36	C	08/05/2021	20:18	-132.156	47.273	0	83.10	0	8.2680	0	32.4770	0	25.255	0	82.392	0	259.6	4	89.4	4	-1E+10	1	-1E+10	1	-1E+10	1	-1E+10	1	-1E+10	1	-1E+10	1
4902549	36	C	08/05/2021	20:18	-132.156	47.273	0	83.80	0	8.2520	0	32.4770	0	25.258	0	83.085	0	258.9	4	89.1	4	-1E+10	1	-1E+10	1	-1E+10	1	-1E+10	1	-1E+10	1	-1E+10	1
4902549	36	C	08/05/2021	20:18	-132.156	47.273	0	85.00	0	8.1250	0	32.4970	0	25.292	0	84.275	0	258.4	4	88.7	4	-1E+10	1	-1E+10	1	-1E+10	1	-1E+10	1	-1E+10	1	-1E+10	1
4902549	36	C	08/05/2021	20:18	-132.156	47.273	0	85.90	0	8.1130	0	32.4910	0	25.289	0	85.167	0	258.0	4	88.5	4	-1E+10	1	-1E+10	1	-1E+10	1	-1E+10	1	-1E+10	1	-1E+10	1
4902549	36	C	08/05/2021	20:18	-132.156	47.273	0	87.10	0	8.0880	0	32.4950	0	25.296	0	86.357	0	257.1	4	88.2	4	-1E+10	1	-1E+10	1	-1E+10	1	-1E+10	1	-1E+10	1	-1E+10	1
4902549	36	C	08/05/2021	20:18	-132.156	47.273	0	87.90	0	8.0700	0	32.4950	0	25.298	0	87.150	0	256.4	4	87.9	4	-1E+10	1	-1E+10	1	-1E+10	1	-1E+10	1	-1E+10	1	-1E+10	1
4902549	36	C	08/05/2021	20:18	-132.156	47.273	0	89.10	0	8.0530	0	32.5010	0	25.306	0	88.339	0	255.5	4	87.5	4	-1E+10	1	-1E+10	1	-1E+10	1	-1E+10	1	-1E+10	1	-1E+10	1
4902549	36	C	08/05/2021	20:18	-132.156	47.273	0	90.00	0	8.0600	0	32.5050	0	25.308	0	89.231	0	255.1	4	87.4	4	-1E+10	1	-1E+10	1	-1E+10	1	-1E+10	1	-1E+10	1	-1E+10	1
4902549	36	C	08/05/2021	20:18	-132.156	47.273	0	90.90	0	8.0340	0	32.5100	0	25.315	0	90.123	0	254.9	4	87.3	4	-1E+10	1	-1E+10	1	-1E+10	1	-1E+10	1	-1E+10	1	-1E+10	1
4902549	36	C	08/05/2021	20:18	-132.156	47.273	0	92.30	0	7.9370	0	32.5100	0	25.329	0	91.511	0	254.2	4	86.9	4	-1E+10	1	-1E+10	1	-1E+10	1	-1E+10	1	-1E+10	1	-1E+10	1
4902549	36	C	08/05/2021	20:18	-132.156	47.273	0	93.00	0	7.9020	0	32.5110	0	25.335	0	92.205	0	253.8	4	86.7	4	-1E+10	1	-1E+10	1	-1E+10	1	-1E+10	1	-1E+10	1	-1E+10	1
4902549	36	C	08/05/2021	20:18	-132.156	47.273	0	94.00	0	7.8750	0	32.5170	0	25.344	0	93.196	0	253.0	4	86.4	4	-1E+10	1	-1E+10	1	-1E+10	1	-1E+10	1	-1E+10	1	-1E+10	1
4902549	36	C	08/05/2021	20:18	-132.156	47.273	0	95.00	0	7.8760	0	32.5330	0	25.356	0	94.187	0	252.0	4	86.0	4	-1E+10	1	-1E+10	1	-1E+10	1	-1E+10	1	-1E+10	1	-1E+10	1
4902549	36	C	08/05/2021	20:18	-132.156	47.273	0	96.10	0	7.8100	0	32.5300	0	25.363	0	95.278	0	251.2	4	85.6	4	-1E+10	1	-1E+10	1	-1E+10	1	-1E+10	1	-1E+10	1	-1E+10	1
4902549	36	C	08/05/2021	20:18	-132.156	47.273	0	96.90	0	7.8010	0	32.5360	0	25.369	0	96.071	0	250.3	4	85.3	4	-1E+10	1	-1E+10	1	-1E+10	1	-1E+10	1	-1E+10	1	-1E+10	1
4902549	36	C	08/05/2021	20:18	-132.156	47.273	0	97.70	0	7.7790	0	32.5440	0	25.379	0	96.864	0	249.3	4	84.9	4	-1E+10	1	-1E+10	1	-1E+10	1	-1E+10	1	-1E+10	1	-1E+10	1
4902549	36	C	08/05/2021	20:18	-132.156	47.273	0	98.80	0	7.7400	0	32.5630	0	25.399	0	97.954	0	248.1	4	84.4	4	-1E+10	1	-1E+10	1	-1E+10	1	-1E+10	1	-1E+10	1	-1E+10	1
4902549	36	C	08/05/2021	20:18	-132.156	47.273	0	99.90	0	7.6910	0	32.5780	0	25.418	0	99.044	0	246.7	4	83.9	4	-1E+10	1	-1E+10	1	-1E+10	1	-1E+10	1	-1E+10	1	-1E+10	1
4902549	36	C	08/05/2021	20:18	-132.156	47.273	0	101.00	0	7.6700	0	32.6000	0	25.438	0	100.135	0	245.0	4	83.3	4	-1E+10	1	-1E+10	1	-1E+10	1	-1E+10	1	-1E+10	1	-1E+10	1
4902549	36	C	08/05/2021	20:18	-132.156	47.273	0	102.10	0	7.7060	0	32.6270	0	25.454	0	101.225	0	243.4	4	82.8	4	-1E+10	1	-1E+10	1	-1E+10	1	-1E+10	1	-1E+10	1	-1E+10	1
4902549	36	C	08/05/2021	20:18	-132.156	47.273	0	102.90	0	7.7110	0	32.6350	0	25.460	0	102.018	0	242.6	4	82.6	4	-1E+10	1	-1E+10	1	-1E+10	1	-1E+10	1	-1E+10	1	-1E+10	1
4902549	36	C	08/05/2021	20:18	-132.156	47.273	0	103.70	0	7.7030	0	32.6380	0	25.463	0	102.811	0	241.7	4	82.3	4	-1E+10	1	-1E+10	1	-1E+10	1	-1E+10	1	-1E+10	1	-1E+10	1
4902549	36	C	08/05/2021	20:18	-132.156	47.273	0	104.80	0	7.7050	0	32.6500	0	25.473	0	103.901	0	240.3	4	81.8	4	-1E+10	1	-1E+10	1	-1E+10	1	-1E+10	1	-1E+10	1	-1E+10	1
4902549	36	C	08/05/2021	20:18	-132.156	47.273	0	105.90	0	7.7090	0	32.6610	0	25.481	0	104.991	0	238.4	4	81.1	4	-1E+10	1	-1E+10	1	-1E+10	1	-1E+10	1	-1E+10	1	-1E+10	1
4902549	36	C	08/05/2021	20:18	-132.156	47.273	0	107.00	0	7.7080	0	32.6770	0	25.493	0	106.082	0	236.1	4	80.4	4	-1E+10	1	-1E+10	1	-1E+10	1	-1E+10	1	-1E+10	1	-1E+10	1
4902549	36	C	08/05/2021	20:18	-132.156	47.273	0	108.00	0	7.7720	0	32.7160	0	25.515	0	107.073	0	233.9	4	79.8	4	-1E+10	1	-1E+10	1	-1E+10	1	-1E+10	1	-1E+10	1	-1E+10	1
4902549	36	C	08/05/2021	20:18	-132.156	47.273	0	109.20	0	7.8030	0	32.7400	0	25.529	0	108.262	0	231.8	4	79.1	4	-1E+10	1	-1E+10	1	-1E+10	1	-1E+10	1	-1E+10	1	-1E+10	1
4902549	36	C	08/05/2021	20:18	-132.156	47.273	0	110.00	0	7.8140	0	32.7530	0	25.538	0	109.055	0	229.5	4	78.4	4	-1E+10	1	-1E+10	1	-1E+10	1	-1E+10	1	-1E+10	1	-1E+10	1
4902549	36	C	08/05/2021	20:18	-132.156	47.273	0	111.00	0	7.7660	0	32.8010	0	25.583	0	110.046	0	226.4	4	77.3	4	-1E+10	1	-1E+10	1	-1E+10	1	-1E+10	1	-1E+10	1	-1E+10	1
4902549	36	C	08/05/2021	20:18	-132.156	47.273	0	111.90	0	7.7610	0	32.8450	0	25.618	0	110.938	0	223.8	4	76.4	4	-1E+10	1	-1E+10	1	-1E+10	1	-1E+10	1	-1E+10	1	-1E+10	1
4902549	36	C	08/05/2021	20:18	-132.156	47.273	0	112.90	0	7.7760	0	32.8920	0	25.653	0	111.929	0	221.2	4	75.5	4	-1E+10	1	-1E+10	1	-1E+10	1	-1E+10	1	-1E+10	1	-1E+10	1
4902549	36	C	08/05/2021	20:18	-132.156	47.273	0	114.10	0	7.7810	0	32.9670	0	25.711	0	113.119	0	218.9	4	74.8	4	-1E+10	1	-1E+10	1	-1E+10	1	-1E+10	1	-1E+10	1	-1E+10	1
4902549	36	C	08/05/2021	20:18	-132.156	47.273	0	114.90	0	7.7730	0	32.9880	0	25.729	0	113.912	0	217.6	4	74.4	4	-1E+10	1	-1E+10	1	-1E+10	1	-1E+10	1	-1E+10	1	-1E+10	1
4902549	36	C	08/05/2021	20:18	-132.156	47.273	0	116.10	0	7.7640	0	33.0160	0	25.752	0	115.101	0	215.9	4	73.8	4	-1E+10	1	-1E+10	1	-1E+10	1	-1E+10	1	-1E+10	1	-1E+10	1
4902549	36	C	08/05/2021	20:18	-132.156	47.273	0	117.10	0	7.7500	0	33.0340	0	25.768	0	116.092	0	214.4	4	73.3	4	-1E+10	1	-1E+10	1	-1E+10	1	-1E+10	1	-1E+10	1	-1E+10	1
4902549	36	C	08/05/2021	20:18	-132.156	47.273	0	118.10	0	7.7140	0	33.0470	0	25.783	0	117.083	0	213.0	4	72.7	4	-1E+10	1	-1E+10	1	-1E+10	1	-1E+10	1	-1E+10	1	-1E+10	1
4902549	36	C	08/05/2021	20:18	-132.156	47.273	0	119.00	0	7.6810	0	33.0530	0	25.793	0	117.975	0	211.5	4	72.2	4	-1E+10	1	-1E+10	1	-1E+10	1	-1E+10	1	-1E+10	1	-1E+10	1
4902549	36	C	08/05/2021	20:18	-132.156	47.273	0	119.80	0	7.6480	0	33.0850	0	25.823	0	118.768	0	209.9	4	71.6	4	-1E+10	1	-1E+10	1	-1E+10	1	-1E+10	1	-1E+10	1	-1E+10	1
4902549	36	C	08/05/2021	20:18	-132.156	47.273	0	121.00	0	7.6290	0	33.1290	0	25.860	0	119.957	0	207.7	4	70.8	4	-1E+10	1	-1E+10	1	-1E+10	1	-1E+10	1	-1E+10	1	-1E+10	1
4902549	36	C	08/05/2021	20:18	-132.156	47.273	0	122.00	0	7.6370	0	33.1530	0	25.878	0	120.949	0	206.0	4	70.3	4	-1E+10	1	-1E+10	1	-1E+10	1	-1E+10	1	-1E+10	1	-1E+10	1
4902549	36	C	08/05/2021	20:18	-132.156	47.273	0	122.70	0	7.6650	0	33.2050	0	25.915	0	121.642	0	204.9	4	69.9	4	-1E+10	1	-1E+10	1	-1E+10	1	-1E+10	1	-1E+10	1	-1E+10	1
4902549	36	C	08/05/2021	20:18	-132.156	47.273	0	123.90	0	7.6970	0	33.2290	0	25.929	0	122.832	0	203.3	4	69.5	4	-1E+10	1	-1E+10	1	-1E+10	1	-1E+10	1	-1E+10	1	-1E+10	1
4902549	36	C	08/05/2021	20:18	-132.156	47.273	0	125.10	0	7.7500	0	33.2960	0	25.974	0	124.021	0	201.6	4	69.0	4	-1E+10	1	-1E+10	1	-1E+10	1	-1E+10	1	-1E+10	1	-1E+10	1
4902549	36	C	08/05/2021	20:18	-132.156	47.273	0	125.90	0	7.7470	0	33.3350	0	26.005	0	124.814	0	201.0	4	68.8	4	-1E+10	1	-1E+10	1	-1E+10	1	-1E+10	1	-1E+10	1	-1E+10	1
4902549	36	C	08/05/2021	20:18	-132.156	47.273	0	126.80	0	7.7220	0	33.3530	0	26.023	0	125.706	0	200.5	4	68.6	4	-1E+10	1	-1E+10	1	-1E+10	1	-1E+10	1	-1E+10	1	-1E+10	1
4902549	36	C	08/05/2021	20:18	-132.156	47.273	0	127.90	0	7.7110	0	33.3570	0	26.028	0	126.796	0	199.5	4	68.3	4	-1E+10	1	-1E+10	1	-1E+10	1	-1E+10	1	-1E+10	1	-1E+10	1
4902549	36	C	08/05/2021	20:18	-132.156	47.273	0	129.20	0	7.7110	0	33.3800	0	26.046	0	128.084	0	198.5	4	67.9	4	-1E+10	1	-1E+10	1	-1E+10	1	-1E+10	1	-1E+10	1	-1E+10	1
4902549	36	C	08/05/2021	20:18	-132.156	47.273	0	130.00	0	7.7250	0	33.3890	0	26.051	0	128.877	0	197.7	4	67.7	4	-1E+10	1	-1E+10	1	-1E+10	1	-1E+10	1	-1E+10	1	-1E+10	1
4902549	36	C	08/05/2021	20:18	-132.156	47.273	0	130.80	0	7.7310	0	33.3940	0	26.054	0	129.670	0	196.9	4	67.4	4	-1E+10	1	-1E+10	1	-1E+10	1	-1E+10	1	-1E+10	1	-1E+10	1
4902549	36	C	08/05/2021	20:18	-132.156	47.273	0	131.60	0	7.7390	0	33.3970	0	26.055	0	130.463	0	195.9	4	67.1	4	-1E+10	1	-1E+10	1	-1E+10	1	-1E+10	1	-1E+10	1	-1E+10	1
4902549	36	C	08/05/2021	20:18	-132.156	47.273	0	132.90	0	7.7230	0	33.4500	0	26.099	0	131.751	0	194.7	4	66.7	4	-1E+10	1	-1E+10	1	-1E+10	1	-1E+10	1	-1E+10	1	-1E+10	1
4902549	36	C	08/05/2021	20:18	-132.156	47.273	0	134.20	0	7.6770	0	33.4850	0	26.133	0	133.039	0	194.0	4	66.4	4	-1E+10	1	-1E+10	1	-1E+10	1	-1E+10	1	-1E+10	1	-1E+10	1
4902549	36	C	08/05/2021	20:18	-132.156	47.273	0	135.10	0	7.6780	0	33.5030	0	26.147	0	133.931	0	193.4	4	66.2	4	-1E+10	1	-1E+10	1	-1E+10	1	-1E+10	1	-1E+10	1	-1E+10	1
4902549	36	C	08/05/2021	20:18	-132.156	47.273	0	136.00	0	7.6590	0	33.5130	0	26.158	0	134.823	0	192.9	4	66.0	4	-1E+10	1	-1E+10	1	-1E+10	1	-1E+10	1	-1E+10	1	-1E+10	1
4902549	36	C	08/05/2021	20:18	-132.156	47.273	0	136.90	0	7.6570	0	33.5280	0	26.170	0	135.715	0	192.4	4	65.8	4	-1E+10	1	-1E+10	1	-1E+10	1	-1E+10	1	-1E+10	1	-1E+10	1
4902549	36	C	08/05/2021	20:18	-132.156	47.273	0	137.80	0	7.6310	0	33.5630	0	26.201	0	136.607	0	192.1	4	65.7	4	-1E+10	1	-1E+10	1	-1E+10	1	-1E+10	1	-1E+10	1	-1E+10	1
4902549	36	C	08/05/2021	20:18	-132.156	47.273	0	138.70	0	7.6260	0	33.5760	0	26.212	0	137.499	0	191.8	4	65.6	4	-1E+10	1	-1E+10	1	-1E+10	1	-1E+10	1	-1E+10	1	-1E+10	1
4902549	36	C	08/05/2021	20:18	-132.156	47.273	0	139.60	0	7.6350	0	33.5860	0	26.219	0	138.391	0	191.4	4	65.5	4	-1E+10	1	-1E+10	1	-1E+10	1	-1E+10	1	-1E+10	1	-1E+10	1
4902549	36	C	08/05/2021	20:18	-132.156	47.273	0	140.60	0	7.6370	0	33.5870	0	26.219	0	139.382	0	191.0	4	65.4	4	-1E+10	1	-1E+10	1	-1E+10	1	-1E+10	1	-1E+10	1	-1E+10	1
4902549	36	C	08/05/2021	20:18	-132.156	47.273	0	141.90	0	7.6310	0	33.5910	0	26.223	0	140.670	0	190.5	4	65.2	4	-1E+10	1	-1E+10	1	-1E+10	1	-1E+10	1	-1E+10	1	-1E+10	1
4902549	36	C	08/05/2021	20:18	-132.156	47.273	0	143.30	0	7.6240	0	33.6010	0	26.232	0	142.058	0	189.9	4	65.0	4	-1E+10	1	-1E+10	1	-1E+10	1	-1E+10	1	-1E+10	1	-1E+10	1
4902549	36	C	08/05/2021	20:18	-132.156	47.273	0	144.20	0	7.6070	0	33.6130	0	26.244	0	142.950	0	189.6	4	64.9	4	-1E+10	1	-1E+10	1	-1E+10	1	-1E+10	1	-1E+10	1	-1E+10	1
4902549	36	C	08/05/2021	20:18	-132.156	47.273	0	145.10	0	7.5990	0	33.6230	0	26.253	0	143.841	0	189.3	4	64.7	4	-1E+10	1	-1E+10	1	-1E+10	1	-1E+10	1	-1E+10	1	-1E+10	1
4902549	36	C	08/05/2021	20:18	-132.156	47.273	0	146.00	0	7.5950	0	33.6300	0	26.259	0	144.733	0	189.0	4	64.6	4	-1E+10	1	-1E+10	1	-1E+10	1	-1E+10	1	-1E+10	1	-1E+10	1
4902549	36	C	08/05/2021	20:18	-132.156	47.273	0	146.90	0	7.5870	0	33.6380	0	26.266	0	145.625	0	188.7	4	64.5	4	-1E+10	1	-1E+10	1	-1E+10	1	-1E+10	1	-1E+10	1	-1E+10	1
4902549	36	C	08/05/2021	20:18	-132.156	47.273	0	147.80	0	7.5790	0	33.6420	0	26.271	0	146.517	0	188.3	4	64.4	4	-1E+10	1	-1E+10	1	-1E+10	1	-1E+10	1	-1E+10	1	-1E+10	1
4902549	36	C	08/05/2021	20:18	-132.156	47.273	0	148.70	0	7.5790	0	33.6450	0	26.273	0	147.409	0	187.9	4	64.3	4	-1E+10	1	-1E+10	1	-1E+10	1	-1E+10	1	-1E+10	1	-1E+10	1
4902549	36	C	08/05/2021	20:18	-132.156	47.273	0	149.60	0	7.5800	0	33.6480	0	26.275	0	148.301	0	187.5	4	64.1	4	-1E+10	1	-1E+10	1	-1E+10	1	-1E+10	1	-1E+10	1	-1E+10	1
4902549	36	C	08/05/2021	20:18	-132.156	47.273	0	150.90	0	7.5560	0	33.6670	0	26.294	0	149.589	0	187.0	4	63.9	4	-1E+10	1	-1E+10	1	-1E+10	1	-1E+10	1	-1E+10	1	-1E+10	1
4902549	36	C	08/05/2021	20:18	-132.156	47.273	0	152.30	0	7.5550	0	33.6870	0	26.309	0	150.976	0	186.5	4	63.7	4	-1E+10	1	-1E+10	1	-1E+10	1	-1E+10	1	-1E+10	1	-1E+10	1
4902549	36	C	08/05/2021	20:18	-132.156	47.273	0	153.10	0	7.5480	0	33.6960	0	26.318	0	151.769	0	186.1	4	63.6	4	-1E+10	1	-1E+10	1	-1E+10	1	-1E+10	1	-1E+10	1	-1E+10	1
4902549	36	C	08/05/2021	20:18	-132.156	47.273	0	154.00	0	7.5380	0	33.7000	0	26.322	0	152.661	0	185.8	4	63.5	4	-1E+10	1	-1E+10	1	-1E+10	1	-1E+10	1	-1E+10	1	-1E+10	1
4902549	36	C	08/05/2021	20:18	-132.156	47.273	0	154.80	0	7.5280	0	33.7020	0	26.325	0	153.454	0	185.4	4	63.4	4	-1E+10	1	-1E+10	1	-1E+10	1	-1E+10	1	-1E+10	1	-1E+10	1
4902549	36	C	08/05/2021	20:18	-132.156	47.273	0	155.70	0	7.5240	0	33.7030	0	26.327	0	154.346	0	185.1	4	63.2	4	-1E+10	1	-1E+10	1	-1E+10	1	-1E+10	1	-1E+10	1	-1E+10	1
4902549	36	C	08/05/2021	20:18	-132.156	47.273	0	156.90	0	7.5080	0	33.7110	0	26.335	0	155.535	0	184.5	4	63.0	4	-1E+10	1	-1E+10	1	-1E+10	1	-1E+10	1	-1E+10	1	-1E+10	1
4902549	36	C	08/05/2021	20:18	-132.156	47.273	0	158.20	0	7.4960	0	33.7210	0	26.345	0	156.823	0	184.0	4	62.8	4	-1E+10	1	-1E+10	1	-1E+10	1	-1E+10	1	-1E+10	1	-1E+10	1
4902549	36	C	08/05/2021	20:18	-132.156	47.273	0	159.00	0	7.4920	0	33.7240	0	26.348	0	157.616	0	183.5	4	62.7	4	-1E+10	1	-1E+10	1	-1E+10	1	-1E+10	1	-1E+10	1	-1E+10	1
4902549	36	C	08/05/2021	20:18	-132.156	47.273	0	159.90	0	7.4780	0	33.7320	0	26.356	0	158.507	0	183.1	4	62.5	4	-1E+10	1	-1E+10	1	-1E+10	1	-1E+10	1	-1E+10	1	-1E+10	1
4902549	36	C	08/05/2021	20:18	-132.156	47.273	0	160.70	0	7.4640	0	33.7350	0	26.360	0	159.300	0	182.6	4	62.3	4	-1E+10	1	-1E+10	1	-1E+10	1	-1E+10	1	-1E+10	1	-1E+10	1
4902549	36	C	08/05/2021	20:18	-132.156	47.273	0	161.90	0	7.4230	0	33.7390	0	26.369	0	160.489	0	182.1	4	62.1	4	-1E+10	1	-1E+10	1	-1E+10	1	-1E+10	1	-1E+10	1	-1E+10	1
4902549	36	C	08/05/2021	20:18	-132.156	47.273	0	163.20	0	7.3900	0	33.7440	0	26.378	0	161.777	0	181.4	4	61.8	4	-1E+10	1	-1E+10	1	-1E+10	1	-1E+10	1	-1E+10	1	-1E+10	1
4902549	36	C	08/05/2021	20:18	-132.156	47.273	0	164.10	0	7.3760	0	33.7460	0	26.381	0	162.669	0	181.1	4	61.7	4	-1E+10	1	-1E+10	1	-1E+10	1	-1E+10	1	-1E+10	1	-1E+10	1
4902549	36	C	08/05/2021	20:18	-132.156	47.273	0	164.90	0	7.3730	0	33.7500	0	26.385	0	163.462	0	180.6	4	61.5	4	-1E+10	1	-1E+10	1	-1E+10	1	-1E+10	1	-1E+10	1	-1E+10	1
4902549	36	C	08/05/2021	20:18	-132.156	47.273	0	165.70	0	7.3580	0	33.7590	0	26.394	0	164.255	0	180.1	4	61.3	4	-1E+10	1	-1E+10	1	-1E+10	1	-1E+10	1	-1E+10	1	-1E+10	1
4902549	36	C	08/05/2021	20:18	-132.156	47.273	0	166.90	0	7.3270	0	33.7620	0	26.401	0	165.444	0	179.5	4	61.1	4	-1E+10	1	-1E+10	1	-1E+10	1	-1E+10	1	-1E+10	1	-1E+10	1
4902549	36	C	08/05/2021	20:18	-132.156	47.273	0	168.20	0	7.2990	0	33.7620	0	26.405	0	166.732	0	179.0	4	60.9	4	-1E+10	1	-1E+10	1	-1E+10	1	-1E+10	1	-1E+10	1	-1E+10	1
4902549	36	C	08/05/2021	20:18	-132.156	47.273	0	169.00	0	7.2830	0	33.7620	0	26.407	0	167.524	0	178.6	4	60.7	4	-1E+10	1	-1E+10	1	-1E+10	1	-1E+10	1	-1E+10	1	-1E+10	1
4902549	36	C	08/05/2021	20:18	-132.156	47.273	0	169.80	0	7.2530	0	33.7610	0	26.410	0	168.317	0	178.2	4	60.5	4	-1E+10	1	-1E+10	1	-1E+10	1	-1E+10	1	-1E+10	1	-1E+10	1
4902549	36	C	08/05/2021	20:18	-132.156	47.273	0	170.60	0	7.2200	0	33.7590	0	26.413	0	169.110	0	177.9	4	60.4	4	-1E+10	1	-1E+10	1	-1E+10	1	-1E+10	1	-1E+10	1	-1E+10	1
4902549	36	C	08/05/2021	20:18	-132.156	47.273	0	171.90	0	7.1740	0	33.7630	0	26.423	0	170.398	0	177.4	4	60.2	4	-1E+10	1	-1E+10	1	-1E+10	1	-1E+10	1	-1E+10	1	-1E+10	1
4902549	36	C	08/05/2021	20:18	-132.156	47.273	0	173.20	0	7.1580	0	33.7660	0	26.427	0	171.686	0	177.0	4	60.0	4	-1E+10	1	-1E+10	1	-1E+10	1	-1E+10	1	-1E+10	1	-1E+10	1
4902549	36	C	08/05/2021	20:18	-132.156	47.273	0	174.00	0	7.1560	0	33.7670	0	26.429	0	172.479	0	176.6	4	59.9	4	-1E+10	1	-1E+10	1	-1E+10	1	-1E+10	1	-1E+10	1	-1E+10	1
4902549	36	C	08/05/2021	20:18	-132.156	47.273	0	174.90	0	7.1500	0	33.7680	0	26.430	0	173.370	0	176.3	4	59.7	4	-1E+10	1	-1E+10	1	-1E+10	1	-1E+10	1	-1E+10	1	-1E+10	1
4902549	36	C	08/05/2021	20:18	-132.156	47.273	0	175.70	0	7.1320	0	33.7710	0	26.435	0	174.163	0	175.9	4	59.6	4	-1E+10	1	-1E+10	1	-1E+10	1	-1E+10	1	-1E+10	1	-1E+10	1
4902549	36	C	08/05/2021	20:18	-132.156	47.273	0	177.00	0	7.1260	0	33.7730	0	26.437	0	175.451	0	175.3	4	59.4	4	-1E+10	1	-1E+10	1	-1E+10	1	-1E+10	1	-1E+10	1	-1E+10	1
4902549	36	C	08/05/2021	20:18	-132.156	47.273	0	178.30	0	7.1180	0	33.7740	0	26.439	0	176.739	0	174.5	4	59.1	4	-1E+10	1	-1E+10	1	-1E+10	1	-1E+10	1	-1E+10	1	-1E+10	1
4902549	36	C	08/05/2021	20:18	-132.156	47.273	0	179.20	0	7.1060	0	33.7790	0	26.445	0	177.631	0	174.0	4	58.9	4	-1E+10	1	-1E+10	1	-1E+10	1	-1E+10	1	-1E+10	1	-1E+10	1
4902549	36	C	08/05/2021	20:18	-132.156	47.273	0	180.00	0	7.0970	0	33.7810	0	26.448	0	178.424	0	173.5	4	58.7	4	-1E+10	1	-1E+10	1	-1E+10	1	-1E+10	1	-1E+10	1	-1E+10	1
4902549	36	C	08/05/2021	20:18	-132.156	47.273	0	180.90	0	7.0890	0	33.7810	0	26.449	0	179.315	0	173.0	4	58.6	4	-1E+10	1	-1E+10	1	-1E+10	1	-1E+10	1	-1E+10	1	-1E+10	1
4902549	36	C	08/05/2021	20:18	-132.156	47.273	0	181.80	0	7.0860	0	33.7810	0	26.449	0	180.207	0	172.3	4	58.3	4	-1E+10	1	-1E+10	1	-1E+10	1	-1E+10	1	-1E+10	1	-1E+10	1
4902549	36	C	08/05/2021	20:18	-132.156	47.273	0	182.70	0	7.0510	0	33.7810	0	26.454	0	181.099	0	171.8	4	58.1	4	-1E+10	1	-1E+10	1	-1E+10	1	-1E+10	1	-1E+10	1	-1E+10	1
4902549	36	C	08/05/2021	20:18	-132.156	47.273	0	183.60	0	7.0210	0	33.7800	0	26.457	0	181.991	0	171.3	4	57.9	4	-1E+10	1	-1E+10	1	-1E+10	1	-1E+10	1	-1E+10	1	-1E+10	1
4902549	36	C	08/05/2021	20:18	-132.156	47.273	0	184.90	0	6.9690	0	33.7790	0	26.464	0	183.279	0	170.5	4	57.6	4	-1E+10	1	-1E+10	1	-1E+10	1	-1E+10	1	-1E+10	1	-1E+10	1
4902549	36	C	08/05/2021	20:18	-132.156	47.273	0	186.30	0	6.9650	0	33.7800	0	26.465	0	184.666	0	169.6	4	57.2	4	-1E+10	1	-1E+10	1	-1E+10	1	-1E+10	1	-1E+10	1	-1E+10	1
4902549	36	C	08/05/2021	20:18	-132.156	47.273	0	187.30	0	6.9480	0	33.7810	0	26.468	0	185.656	0	168.9	4	57.0	4	-1E+10	1	-1E+10	1	-1E+10	1	-1E+10	1	-1E+10	1	-1E+10	1
4902549	36	C	08/05/2021	20:18	-132.156	47.273	0	188.20	0	6.9060	0	33.7830	0	26.475	0	186.548	0	168.5	4	56.8	4	-1E+10	1	-1E+10	1	-1E+10	1	-1E+10	1	-1E+10	1	-1E+10	1
4902549	36	C	08/05/2021	20:18	-132.156	47.273	0	189.20	0	6.8860	0	33.7810	0	26.477	0	187.539	0	168.0	4	56.6	4	-1E+10	1	-1E+10	1	-1E+10	1	-1E+10	1	-1E+10	1	-1E+10	1
4902549	36	C	08/05/2021	20:18	-132.156	47.273	0	190.10	0	6.8460	0	33.7850	0	26.485	0	188.431	0	167.6	4	56.4	4	-1E+10	1	-1E+10	1	-1E+10	1	-1E+10	1	-1E+10	1	-1E+10	1
4902549	36	C	08/05/2021	20:18	-132.156	47.273	0	191.10	0	6.8000	0	33.7820	0	26.489	0	189.421	0	167.2	4	56.2	4	-1E+10	1	-1E+10	1	-1E+10	1	-1E+10	1	-1E+10	1	-1E+10	1
4902549	36	C	08/05/2021	20:18	-132.156	47.273	0	192.00	0	6.7890	0	33.7820	0	26.490	0	190.313	0	166.7	4	56.0	4	-1E+10	1	-1E+10	1	-1E+10	1	-1E+10	1	-1E+10	1	-1E+10	1
4902549	36	C	08/05/2021	20:18	-132.156	47.273	0	193.00	0	6.7800	0	33.7820	0	26.492	0	191.304	0	166.1	4	55.8	4	-1E+10	1	-1E+10	1	-1E+10	1	-1E+10	1	-1E+10	1	-1E+10	1
4902549	36	C	08/05/2021	20:18	-132.156	47.273	0	194.00	0	6.7680	0	33.7810	0	26.492	0	192.295	0	165.5	4	55.6	4	-1E+10	1	-1E+10	1	-1E+10	1	-1E+10	1	-1E+10	1	-1E+10	1
4902549	36	C	08/05/2021	20:18	-132.156	47.273	0	195.00	0	6.7400	0	33.7830	0	26.498	0	193.285	0	164.9	4	55.4	4	-1E+10	1	-1E+10	1	-1E+10	1	-1E+10	1	-1E+10	1	-1E+10	1
4902549	36	C	08/05/2021	20:18	-132.156	47.273	0	196.00	0	6.7380	0	33.7820	0	26.497	0	194.276	0	164.2	4	55.1	4	-1E+10	1	-1E+10	1	-1E+10	1	-1E+10	1	-1E+10	1	-1E+10	1
4902549	36	C	08/05/2021	20:18	-132.156	47.273	0	196.90	0	6.7270	0	33.7820	0	26.499	0	195.168	0	163.4	4	54.9	4	-1E+10	1	-1E+10	1	-1E+10	1	-1E+10	1	-1E+10	1	-1E+10	1
4902549	36	C	08/05/2021	20:18	-132.156	47.273	0	197.90	0	6.6890	0	33.7840	0	26.505	0	196.158	0	162.9	4	54.6	4	-1E+10	1	-1E+10	1	-1E+10	1	-1E+10	1	-1E+10	1	-1E+10	1
4902549	36	C	08/05/2021	20:18	-132.156	47.273	0	198.90	0	6.6690	0	33.7850	0	26.509	0	197.149	0	162.4	4	54.4	4	-1E+10	1	-1E+10	1	-1E+10	1	-1E+10	1	-1E+10	1	-1E+10	1
4902549	36	C	08/05/2021	20:18	-132.156	47.273	0	199.90	0	6.6420	0	33.7880	0	26.515	0	198.140	0	161.8	4	54.2	4	-1E+10	1	-1E+10	1	-1E+10	1	-1E+10	1	-1E+10	1	-1E+10	1
4902549	36	C	08/05/2021	20:18	-132.156	47.273	0	200.80	0	6.6240	0	33.7870	0	26.516	0	199.031	0	161.3	4	54.0	4	-1E+10	1	-1E+10	1	-1E+10	1	-1E+10	1	-1E+10	1	-1E+10	1
4902549	36	C	08/05/2021	20:18	-132.156	47.273	0	201.90	0	6.5900	0	33.7880	0	26.522	0	200.121	0	160.7	4	53.8	4	-1E+10	1	-1E+10	1	-1E+10	1	-1E+10	1	-1E+10	1	-1E+10	1
4902549	36	C	08/05/2021	20:18	-132.156	47.273	0	203.00	0	6.5860	0	33.7880	0	26.522	0	201.211	0	159.9	4	53.5	4	-1E+10	1	-1E+10	1	-1E+10	1	-1E+10	1	-1E+10	1	-1E+10	1
4902549	36	C	08/05/2021	20:18	-132.156	47.273	0	204.20	0	6.5780	0	33.7880	0	26.523	0	202.400	0	159.1	4	53.2	4	-1E+10	1	-1E+10	1	-1E+10	1	-1E+10	1	-1E+10	1	-1E+10	1
4902549	36	C	08/05/2021	20:18	-132.156	47.273	0	205.00	0	6.5810	0	33.7870	0	26.522	0	203.192	0	158.6	4	53.0	4	-1E+10	1	-1E+10	1	-1E+10	1	-1E+10	1	-1E+10	1	-1E+10	1
4902549	36	C	08/05/2021	20:18	-132.156	47.273	0	205.80	0	6.5800	0	33.7970	0	26.530	0	203.985	0	158.1	4	52.9	4	-1E+10	1	-1E+10	1	-1E+10	1	-1E+10	1	-1E+10	1	-1E+10	1
4902549	36	C	08/05/2021	20:18	-132.156	47.273	0	207.00	0	6.5310	0	33.7940	0	26.534	0	205.174	0	157.6	4	52.7	4	-1E+10	1	-1E+10	1	-1E+10	1	-1E+10	1	-1E+10	1	-1E+10	1
4902549	36	C	08/05/2021	20:18	-132.156	47.273	0	208.20	0	6.5270	0	33.7930	0	26.534	0	206.363	0	156.9	4	52.4	4	-1E+10	1	-1E+10	1	-1E+10	1	-1E+10	1	-1E+10	1	-1E+10	1
4902549	36	C	08/05/2021	20:18	-132.156	47.273	0	209.00	0	6.5220	0	33.7950	0	26.536	0	207.155	0	156.4	4	52.3	4	-1E+10	1	-1E+10	1	-1E+10	1	-1E+10	1	-1E+10	1	-1E+10	1
4902549	36	C	08/05/2021	20:18	-132.156	47.273	0	209.80	0	6.5180	0	33.7970	0	26.538	0	207.948	0	155.9	4	52.1	4	-1E+10	1	-1E+10	1	-1E+10	1	-1E+10	1	-1E+10	1	-1E+10	1
4902549	36	C	08/05/2021	20:18	-132.156	47.273	0	211.00	0	6.5090	0	33.7960	0	26.539	0	209.137	0	155.1	4	51.8	4	-1E+10	1	-1E+10	1	-1E+10	1	-1E+10	1	-1E+10	1	-1E+10	1
4902549	36	C	08/05/2021	20:18	-132.156	47.273	0	212.20	0	6.4940	0	33.7990	0	26.543	0	210.325	0	154.4	4	51.5	4	-1E+10	1	-1E+10	1	-1E+10	1	-1E+10	1	-1E+10	1	-1E+10	1
4902549	36	C	08/05/2021	20:18	-132.156	47.273	0	213.00	0	6.4870	0	33.8000	0	26.545	0	211.118	0	153.9	4	51.4	4	-1E+10	1	-1E+10	1	-1E+10	1	-1E+10	1	-1E+10	1	-1E+10	1
4902549	36	C	08/05/2021	20:18	-132.156	47.273	0	213.80	0	6.4810	0	33.8010	0	26.546	0	211.910	0	153.4	4	51.2	4	-1E+10	1	-1E+10	1	-1E+10	1	-1E+10	1	-1E+10	1	-1E+10	1
4902549	36	C	08/05/2021	20:18	-132.156	47.273	0	214.70	0	6.4770	0	33.8020	0	26.548	0	212.802	0	152.8	4	51.0	4	-1E+10	1	-1E+10	1	-1E+10	1	-1E+10	1	-1E+10	1	-1E+10	1
4902549	36	C	08/05/2021	20:18	-132.156	47.273	0	215.90	0	6.4730	0	33.8020	0	26.548	0	213.991	0	152.0	4	50.7	4	-1E+10	1	-1E+10	1	-1E+10	1	-1E+10	1	-1E+10	1	-1E+10	1
4902549	36	C	08/05/2021	20:18	-132.156	47.273	0	217.20	0	6.4650	0	33.8030	0	26.550	0	215.279	0	151.0	4	50.4	4	-1E+10	1	-1E+10	1	-1E+10	1	-1E+10	1	-1E+10	1	-1E+10	1
4902549	36	C	08/05/2021	20:18	-132.156	47.273	0	218.00	0	6.4560	0	33.8080	0	26.555	0	216.071	0	150.4	4	50.2	4	-1E+10	1	-1E+10	1	-1E+10	1	-1E+10	1	-1E+10	1	-1E+10	1
4902549	36	C	08/05/2021	20:18	-132.156	47.273	0	218.90	0	6.4510	0	33.8110	0	26.558	0	216.963	0	149.9	4	50.0	4	-1E+10	1	-1E+10	1	-1E+10	1	-1E+10	1	-1E+10	1	-1E+10	1
4902549	36	C	08/05/2021	20:18	-132.156	47.273	0	219.70	0	6.4490	0	33.8120	0	26.559	0	217.755	0	149.4	4	49.8	4	-1E+10	1	-1E+10	1	-1E+10	1	-1E+10	1	-1E+10	1	-1E+10	1
4902549	36	C	08/05/2021	20:18	-132.156	47.273	0	221.00	0	6.4430	0	33.8140	0	26.562	0	219.043	0	148.7	4	49.6	4	-1E+10	1	-1E+10	1	-1E+10	1	-1E+10	1	-1E+10	1	-1E+10	1
4902549	36	C	08/05/2021	20:18	-132.156	47.273	0	222.30	0	6.4340	0	33.8170	0	26.565	0	220.331	0	147.9	4	49.3	4	-1E+10	1	-1E+10	1	-1E+10	1	-1E+10	1	-1E+10	1	-1E+10	1
4902549	36	C	08/05/2021	20:18	-132.156	47.273	0	223.20	0	6.4230	0	33.8200	0	26.569	0	221.222	0	147.6	4	49.2	4	-1E+10	1	-1E+10	1	-1E+10	1	-1E+10	1	-1E+10	1	-1E+10	1
4902549	36	C	08/05/2021	20:18	-132.156	47.273	0	224.10	0	6.4180	0	33.8220	0	26.571	0	222.114	0	147.2	4	49.1	4	-1E+10	1	-1E+10	1	-1E+10	1	-1E+10	1	-1E+10	1	-1E+10	1
4902549	36	C	08/05/2021	20:18	-132.156	47.273	0	225.00	0	6.4100	0	33.8210	0	26.571	0	223.005	0	146.8	4	48.9	4	-1E+10	1	-1E+10	1	-1E+10	1	-1E+10	1	-1E+10	1	-1E+10	1
4902549	36	C	08/05/2021	20:18	-132.156	47.273	0	225.90	0	6.4000	0	33.8250	0	26.576	0	223.897	0	146.4	4	48.8	4	-1E+10	1	-1E+10	1	-1E+10	1	-1E+10	1	-1E+10	1	-1E+10	1
4902549	36	C	08/05/2021	20:18	-132.156	47.273	0	226.80	0	6.4000	0	33.8240	0	26.575	0	224.788	0	146.0	4	48.7	4	-1E+10	1	-1E+10	1	-1E+10	1	-1E+10	1	-1E+10	1	-1E+10	1
4902549	36	C	08/05/2021	20:18	-132.156	47.273	0	227.70	0	6.3990	0	33.8240	0	26.575	0	225.680	0	145.6	4	48.5	4	-1E+10	1	-1E+10	1	-1E+10	1	-1E+10	1	-1E+10	1	-1E+10	1
4902549	36	C	08/05/2021	20:18	-132.156	47.273	0	228.60	0	6.3870	0	33.8260	0	26.578	0	226.571	0	145.2	4	48.4	4	-1E+10	1	-1E+10	1	-1E+10	1	-1E+10	1	-1E+10	1	-1E+10	1
4902549	36	C	08/05/2021	20:18	-132.156	47.273	0	229.90	0	6.3700	0	33.8270	0	26.581	0	227.859	0	144.7	4	48.2	4	-1E+10	1	-1E+10	1	-1E+10	1	-1E+10	1	-1E+10	1	-1E+10	1
4902549	36	C	08/05/2021	20:18	-132.156	47.273	0	231.30	0	6.3580	0	33.8290	0	26.585	0	229.246	0	144.3	4	48.0	4	-1E+10	1	-1E+10	1	-1E+10	1	-1E+10	1	-1E+10	1	-1E+10	1
4902549	36	C	08/05/2021	20:18	-132.156	47.273	0	232.20	0	6.3540	0	33.8290	0	26.585	0	230.137	0	143.9	4	47.9	4	-1E+10	1	-1E+10	1	-1E+10	1	-1E+10	1	-1E+10	1	-1E+10	1
4902549	36	C	08/05/2021	20:18	-132.156	47.273	0	233.10	0	6.3510	0	33.8300	0	26.586	0	231.029	0	143.6	4	47.8	4	-1E+10	1	-1E+10	1	-1E+10	1	-1E+10	1	-1E+10	1	-1E+10	1
4902549	36	C	08/05/2021	20:18	-132.156	47.273	0	234.00	0	6.3490	0	33.8290	0	26.586	0	231.920	0	143.2	4	47.7	4	-1E+10	1	-1E+10	1	-1E+10	1	-1E+10	1	-1E+10	1	-1E+10	1
4902549	36	C	08/05/2021	20:18	-132.156	47.273	0	234.80	0	6.3500	0	33.8290	0	26.586	0	232.713	0	142.8	4	47.5	4	-1E+10	1	-1E+10	1	-1E+10	1	-1E+10	1	-1E+10	1	-1E+10	1
4902549	36	C	08/05/2021	20:18	-132.156	47.273	0	235.70	0	6.3500	0	33.8280	0	26.585	0	233.604	0	142.4	4	47.4	4	-1E+10	1	-1E+10	1	-1E+10	1	-1E+10	1	-1E+10	1	-1E+10	1
4902549	36	C	08/05/2021	20:18	-132.156	47.273	0	236.60	0	6.3480	0	33.8290	0	26.586	0	234.496	0	141.9	4	47.2	4	-1E+10	1	-1E+10	1	-1E+10	1	-1E+10	1	-1E+10	1	-1E+10	1
4902549	36	C	08/05/2021	20:18	-132.156	47.273	0	237.50	0	6.3230	0	33.8310	0	26.591	0	235.387	0	141.5	4	47.1	4	-1E+10	1	-1E+10	1	-1E+10	1	-1E+10	1	-1E+10	1	-1E+10	1
4902549	36	C	08/05/2021	20:18	-132.156	47.273	0	238.90	0	6.2920	0	33.8320	0	26.595	0	236.774	0	141.0	4	46.9	4	-1E+10	1	-1E+10	1	-1E+10	1	-1E+10	1	-1E+10	1	-1E+10	1
4902549	36	C	08/05/2021	20:18	-132.156	47.273	0	240.20	0	6.2820	0	33.8330	0	26.598	0	238.062	0	140.5	4	46.7	4	-1E+10	1	-1E+10	1	-1E+10	1	-1E+10	1	-1E+10	1	-1E+10	1
4902549	36	C	08/05/2021	20:18	-132.156	47.273	0	241.20	0	6.2780	0	33.8320	0	26.597	0	239.052	0	140.1	4	46.6	4	-1E+10	1	-1E+10	1	-1E+10	1	-1E+10	1	-1E+10	1	-1E+10	1
4902549	36	C	08/05/2021	20:18	-132.156	47.273	0	242.10	0	6.2740	0	33.8320	0	26.598	0	239.944	0	139.7	4	46.4	4	-1E+10	1	-1E+10	1	-1E+10	1	-1E+10	1	-1E+10	1	-1E+10	1
4902549	36	C	08/05/2021	20:18	-132.156	47.273	0	243.00	0	6.2680	0	33.8320	0	26.599	0	240.835	0	139.3	4	46.3	4	-1E+10	1	-1E+10	1	-1E+10	1	-1E+10	1	-1E+10	1	-1E+10	1
4902549	36	C	08/05/2021	20:18	-132.156	47.273	0	243.90	0	6.2350	0	33.8320	0	26.603	0	241.727	0	139.0	4	46.2	4	-1E+10	1	-1E+10	1	-1E+10	1	-1E+10	1	-1E+10	1	-1E+10	1
4902549	36	C	08/05/2021	20:18	-132.156	47.273	0	244.80	0	6.2090	0	33.8330	0	26.607	0	242.618	0	138.7	4	46.0	4	-1E+10	1	-1E+10	1	-1E+10	1	-1E+10	1	-1E+10	1	-1E+10	1
4902549	36	C	08/05/2021	20:18	-132.156	47.273	0	245.80	0	6.1980	0	33.8330	0	26.608	0	243.609	0	138.4	4	45.9	4	-1E+10	1	-1E+10	1	-1E+10	1	-1E+10	1	-1E+10	1	-1E+10	1
4902549	36	C	08/05/2021	20:18	-132.156	47.273	0	246.70	0	6.1840	0	33.8330	0	26.610	0	244.500	0	138.2	4	45.8	4	-1E+10	1	-1E+10	1	-1E+10	1	-1E+10	1	-1E+10	1	-1E+10	1
4902549	36	C	08/05/2021	20:18	-132.156	47.273	0	247.60	0	6.1790	0	33.8330	0	26.611	0	245.392	0	137.8	4	45.7	4	-1E+10	1	-1E+10	1	-1E+10	1	-1E+10	1	-1E+10	1	-1E+10	1
4902549	36	C	08/05/2021	20:18	-132.156	47.273	0	248.90	0	6.1780	0	33.8320	0	26.610	0	246.679	0	137.3	4	45.5	4	-1E+10	1	-1E+10	1	-1E+10	1	-1E+10	1	-1E+10	1	-1E+10	1
4902549	36	C	08/05/2021	20:18	-132.156	47.273	0	250.40	0	6.1760	0	33.8320	0	26.610	0	248.165	0	136.5	4	45.3	4	-1E+10	1	-1E+10	1	-1E+10	1	-1E+10	1	-1E+10	1	-1E+10	1
4902549	36	C	08/05/2021	20:18	-132.156	47.273	0	251.30	0	6.1720	0	33.8320	0	26.611	0	249.056	0	136.0	4	45.1	4	-1E+10	1	-1E+10	1	-1E+10	1	-1E+10	1	-1E+10	1	-1E+10	1
4902549	36	C	08/05/2021	20:18	-132.156	47.273	0	252.20	0	6.1640	0	33.8310	0	26.611	0	249.948	0	135.4	4	44.9	4	-1E+10	1	-1E+10	1	-1E+10	1	-1E+10	1	-1E+10	1	-1E+10	1
4902549	36	C	08/05/2021	20:18	-132.156	47.273	0	253.20	0	6.1540	0	33.8310	0	26.612	0	250.938	0	134.8	4	44.7	4	-1E+10	1	-1E+10	1	-1E+10	1	-1E+10	1	-1E+10	1	-1E+10	1
4902549	36	C	08/05/2021	20:18	-132.156	47.273	0	254.10	0	6.1420	0	33.8300	0	26.613	0	251.830	0	134.2	4	44.4	4	-1E+10	1	-1E+10	1	-1E+10	1	-1E+10	1	-1E+10	1	-1E+10	1
4902549	36	C	08/05/2021	20:18	-132.156	47.273	0	255.00	0	6.1040	0	33.8320	0	26.620	0	252.721	0	133.7	4	44.3	4	-1E+10	1	-1E+10	1	-1E+10	1	-1E+10	1	-1E+10	1	-1E+10	1
4902549	36	C	08/05/2021	20:18	-132.156	47.273	0	256.00	0	6.0680	0	33.8330	0	26.625	0	253.711	0	133.3	4	44.1	4	-1E+10	1	-1E+10	1	-1E+10	1	-1E+10	1	-1E+10	1	-1E+10	1
4902549	36	C	08/05/2021	20:18	-132.156	47.273	0	256.90	0	6.0550	0	33.8310	0	26.625	0	254.603	0	132.9	4	43.9	4	-1E+10	1	-1E+10	1	-1E+10	1	-1E+10	1	-1E+10	1	-1E+10	1
4902549	36	C	08/05/2021	20:18	-132.156	47.273	0	257.80	0	6.0420	0	33.8300	0	26.626	0	255.494	0	132.4	4	43.8	4	-1E+10	1	-1E+10	1	-1E+10	1	-1E+10	1	-1E+10	1	-1E+10	1
4902549	36	C	08/05/2021	20:18	-132.156	47.273	0	258.70	0	6.0130	0	33.8310	0	26.630	0	256.386	0	132.0	4	43.6	4	-1E+10	1	-1E+10	1	-1E+10	1	-1E+10	1	-1E+10	1	-1E+10	1
4902549	36	C	08/05/2021	20:18	-132.156	47.273	0	259.70	0	5.9930	0	33.8290	0	26.631	0	257.376	0	131.5	4	43.4	4	-1E+10	1	-1E+10	1	-1E+10	1	-1E+10	1	-1E+10	1	-1E+10	1
4902549	36	C	08/05/2021	20:18	-132.156	47.273	0	260.60	0	5.9780	0	33.8280	0	26.632	0	258.268	0	131.1	4	43.3	4	-1E+10	1	-1E+10	1	-1E+10	1	-1E+10	1	-1E+10	1	-1E+10	1
4902549	36	C	08/05/2021	20:18	-132.156	47.273	0	261.90	0	5.9550	0	33.8270	0	26.634	0	259.555	0	130.2	4	42.9	4	-1E+10	1	-1E+10	1	-1E+10	1	-1E+10	1	-1E+10	1	-1E+10	1
4902549	36	C	08/05/2021	20:18	-132.156	47.273	0	263.40	0	5.9300	0	33.8280	0	26.638	0	261.041	0	129.4	4	42.6	4	-1E+10	1	-1E+10	1	-1E+10	1	-1E+10	1	-1E+10	1	-1E+10	1
4902549	36	C	08/05/2021	20:18	-132.156	47.273	0	264.30	0	5.9110	0	33.8250	0	26.638	0	261.932	0	128.8	4	42.4	4	-1E+10	1	-1E+10	1	-1E+10	1	-1E+10	1	-1E+10	1	-1E+10	1
4902549	36	C	08/05/2021	20:18	-132.156	47.273	0	265.20	0	5.8890	0	33.8250	0	26.641	0	262.823	0	128.2	4	42.2	4	-1E+10	1	-1E+10	1	-1E+10	1	-1E+10	1	-1E+10	1	-1E+10	1
4902549	36	C	08/05/2021	20:18	-132.156	47.273	0	266.10	0	5.8580	0	33.8280	0	26.647	0	263.715	0	127.8	4	42.1	4	-1E+10	1	-1E+10	1	-1E+10	1	-1E+10	1	-1E+10	1	-1E+10	1
4902549	36	C	08/05/2021	20:18	-132.156	47.273	0	267.00	0	5.8300	0	33.8250	0	26.648	0	264.606	0	127.3	4	41.9	4	-1E+10	1	-1E+10	1	-1E+10	1	-1E+10	1	-1E+10	1	-1E+10	1
4902549	36	C	08/05/2021	20:18	-132.156	47.273	0	268.00	0	5.8260	0	33.8260	0	26.650	0	265.597	0	126.9	4	41.7	4	-1E+10	1	-1E+10	1	-1E+10	1	-1E+10	1	-1E+10	1	-1E+10	1
4902549	36	C	08/05/2021	20:18	-132.156	47.273	0	268.90	0	5.7970	0	33.8250	0	26.652	0	266.488	0	126.5	4	41.6	4	-1E+10	1	-1E+10	1	-1E+10	1	-1E+10	1	-1E+10	1	-1E+10	1
4902549	36	C	08/05/2021	20:18	-132.156	47.273	0	269.80	0	5.7860	0	33.8240	0	26.653	0	267.379	0	126.1	4	41.4	4	-1E+10	1	-1E+10	1	-1E+10	1	-1E+10	1	-1E+10	1	-1E+10	1
4902549	36	C	08/05/2021	20:18	-132.156	47.273	0	270.70	0	5.7810	0	33.8240	0	26.653	0	268.271	0	125.6	4	41.3	4	-1E+10	1	-1E+10	1	-1E+10	1	-1E+10	1	-1E+10	1	-1E+10	1
4902549	36	C	08/05/2021	20:18	-132.156	47.273	0	271.70	0	5.7750	0	33.8230	0	26.653	0	269.261	0	125.0	4	41.1	4	-1E+10	1	-1E+10	1	-1E+10	1	-1E+10	1	-1E+10	1	-1E+10	1
4902549	36	C	08/05/2021	20:18	-132.156	47.273	0	272.60	0	5.7750	0	33.8230	0	26.653	0	270.152	0	124.4	4	40.9	4	-1E+10	1	-1E+10	1	-1E+10	1	-1E+10	1	-1E+10	1	-1E+10	1
4902549	36	C	08/05/2021	20:18	-132.156	47.273	0	273.90	0	5.7560	0	33.8240	0	26.657	0	271.440	0	123.5	4	40.5	4	-1E+10	1	-1E+10	1	-1E+10	1	-1E+10	1	-1E+10	1	-1E+10	1
4902549	36	C	08/05/2021	20:18	-132.156	47.273	0	275.30	0	5.7340	0	33.8230	0	26.658	0	272.826	0	122.6	4	40.2	4	-1E+10	1	-1E+10	1	-1E+10	1	-1E+10	1	-1E+10	1	-1E+10	1
4902549	36	C	08/05/2021	20:18	-132.156	47.273	0	276.20	0	5.7070	0	33.8230	0	26.662	0	273.718	0	122.0	4	40.0	4	-1E+10	1	-1E+10	1	-1E+10	1	-1E+10	1	-1E+10	1	-1E+10	1
4902549	36	C	08/05/2021	20:18	-132.156	47.273	0	277.20	0	5.6740	0	33.8230	0	26.666	0	274.708	0	121.5	4	39.8	4	-1E+10	1	-1E+10	1	-1E+10	1	-1E+10	1	-1E+10	1	-1E+10	1
4902549	36	C	08/05/2021	20:18	-132.156	47.273	0	278.10	0	5.6470	0	33.8240	0	26.670	0	275.599	0	121.1	4	39.6	4	-1E+10	1	-1E+10	1	-1E+10	1	-1E+10	1	-1E+10	1	-1E+10	1
4902549	36	C	08/05/2021	20:18	-132.156	47.273	0	279.00	0	5.6320	0	33.8230	0	26.671	0	276.491	0	120.7	4	39.5	4	-1E+10	1	-1E+10	1	-1E+10	1	-1E+10	1	-1E+10	1	-1E+10	1
4902549	36	C	08/05/2021	20:18	-132.156	47.273	0	279.90	0	5.6190	0	33.8220	0	26.672	0	277.382	0	120.3	4	39.4	4	-1E+10	1	-1E+10	1	-1E+10	1	-1E+10	1	-1E+10	1	-1E+10	1
4902549	36	C	08/05/2021	20:18	-132.156	47.273	0	280.90	0	5.5960	0	33.8230	0	26.675	0	278.372	0	119.8	4	39.2	4	-1E+10	1	-1E+10	1	-1E+10	1	-1E+10	1	-1E+10	1	-1E+10	1
4902549	36	C	08/05/2021	20:18	-132.156	47.273	0	281.80	0	5.5890	0	33.8230	0	26.676	0	279.263	0	119.4	4	39.1	4	-1E+10	1	-1E+10	1	-1E+10	1	-1E+10	1	-1E+10	1	-1E+10	1
4902549	36	C	08/05/2021	20:18	-132.156	47.273	0	282.80	0	5.5720	0	33.8240	0	26.679	0	280.254	0	119.0	4	38.9	4	-1E+10	1	-1E+10	1	-1E+10	1	-1E+10	1	-1E+10	1	-1E+10	1
4902549	36	C	08/05/2021	20:18	-132.156	47.273	0	283.70	0	5.5600	0	33.8230	0	26.680	0	281.145	0	118.6	4	38.8	4	-1E+10	1	-1E+10	1	-1E+10	1	-1E+10	1	-1E+10	1	-1E+10	1
4902549	36	C	08/05/2021	20:18	-132.156	47.273	0	284.60	0	5.5540	0	33.8240	0	26.681	0	282.036	0	118.2	4	38.6	4	-1E+10	1	-1E+10	1	-1E+10	1	-1E+10	1	-1E+10	1	-1E+10	1
4902549	36	C	08/05/2021	20:18	-132.156	47.273	0	285.60	0	5.5490	0	33.8230	0	26.681	0	283.027	0	117.7	4	38.4	4	-1E+10	1	-1E+10	1	-1E+10	1	-1E+10	1	-1E+10	1	-1E+10	1
4902549	36	C	08/05/2021	20:18	-132.156	47.273	0	286.50	0	5.5370	0	33.8220	0	26.682	0	283.918	0	117.2	4	38.3	4	-1E+10	1	-1E+10	1	-1E+10	1	-1E+10	1	-1E+10	1	-1E+10	1
4902549	36	C	08/05/2021	20:18	-132.156	47.273	0	287.90	0	5.5060	0	33.8230	0	26.686	0	285.304	0	116.6	4	38.1	4	-1E+10	1	-1E+10	1	-1E+10	1	-1E+10	1	-1E+10	1	-1E+10	1
4902549	36	C	08/05/2021	20:18	-132.156	47.273	0	289.30	0	5.4890	0	33.8220	0	26.687	0	286.691	0	116.0	4	37.8	4	-1E+10	1	-1E+10	1	-1E+10	1	-1E+10	1	-1E+10	1	-1E+10	1
4902549	36	C	08/05/2021	20:18	-132.156	47.273	0	290.20	0	5.4840	0	33.8220	0	26.688	0	287.582	0	115.5	4	37.7	4	-1E+10	1	-1E+10	1	-1E+10	1	-1E+10	1	-1E+10	1	-1E+10	1
4902549	36	C	08/05/2021	20:18	-132.156	47.273	0	291.20	0	5.4740	0	33.8220	0	26.689	0	288.572	0	115.1	4	37.5	4	-1E+10	1	-1E+10	1	-1E+10	1	-1E+10	1	-1E+10	1	-1E+10	1
4902549	36	C	08/05/2021	20:18	-132.156	47.273	0	292.10	0	5.4500	0	33.8230	0	26.693	0	289.464	0	114.7	4	37.4	4	-1E+10	1	-1E+10	1	-1E+10	1	-1E+10	1	-1E+10	1	-1E+10	1
4902549	36	C	08/05/2021	20:18	-132.156	47.273	0	293.00	0	5.4450	0	33.8240	0	26.694	0	290.355	0	114.2	4	37.2	4	-1E+10	1	-1E+10	1	-1E+10	1	-1E+10	1	-1E+10	1	-1E+10	1
4902549	36	C	08/05/2021	20:18	-132.156	47.273	0	293.90	0	5.4290	0	33.8250	0	26.697	0	291.246	0	113.8	4	37.1	4	-1E+10	1	-1E+10	1	-1E+10	1	-1E+10	1	-1E+10	1	-1E+10	1
4902549	36	C	08/05/2021	20:18	-132.156	47.273	0	294.80	0	5.4150	0	33.8270	0	26.700	0	292.137	0	113.4	4	36.9	4	-1E+10	1	-1E+10	1	-1E+10	1	-1E+10	1	-1E+10	1	-1E+10	1
4902549	36	C	08/05/2021	20:18	-132.156	47.273	0	295.70	0	5.4030	0	33.8250	0	26.700	0	293.029	0	113.0	4	36.8	4	-1E+10	1	-1E+10	1	-1E+10	1	-1E+10	1	-1E+10	1	-1E+10	1
4902549	36	C	08/05/2021	20:18	-132.156	47.273	0	296.60	0	5.4000	0	33.8260	0	26.701	0	293.920	0	112.5	4	36.6	4	-1E+10	1	-1E+10	1	-1E+10	1	-1E+10	1	-1E+10	1	-1E+10	1
4902549	36	C	08/05/2021	20:18	-132.156	47.273	0	297.60	0	5.3960	0	33.8250	0	26.701	0	294.910	0	112.1	4	36.5	4	-1E+10	1	-1E+10	1	-1E+10	1	-1E+10	1	-1E+10	1	-1E+10	1
4902549	36	C	08/05/2021	20:18	-132.156	47.273	0	298.90	0	5.3840	0	33.8250	0	26.702	0	296.197	0	111.2	4	36.2	4	-1E+10	1	-1E+10	1	-1E+10	1	-1E+10	1	-1E+10	1	-1E+10	1
4902549	36	C	08/05/2021	20:18	-132.156	47.273	0	300.30	0	5.3590	0	33.8270	0	26.707	0	297.584	0	110.6	4	36.0	4	-1E+10	1	-1E+10	1	-1E+10	1	-1E+10	1	-1E+10	1	-1E+10	1
4902549	36	C	08/05/2021	20:18	-132.156	47.273	0	301.20	0	5.3470	0	33.8270	0	26.708	0	298.475	0	110.1	4	35.8	4	-1E+10	1	-1E+10	1	-1E+10	1	-1E+10	1	-1E+10	1	-1E+10	1
4902549	36	C	08/05/2021	20:18	-132.156	47.273	0	302.10	0	5.3370	0	33.8280	0	26.710	0	299.366	0	109.7	4	35.7	4	-1E+10	1	-1E+10	1	-1E+10	1	-1E+10	1	-1E+10	1	-1E+10	1
4902549	36	C	08/05/2021	20:18	-132.156	47.273	0	303.00	0	5.3190	0	33.8290	0	26.713	0	300.257	0	109.3	4	35.5	4	-1E+10	1	-1E+10	1	-1E+10	1	-1E+10	1	-1E+10	1	-1E+10	1
4902549	36	C	08/05/2021	20:18	-132.156	47.273	0	303.90	0	5.3160	0	33.8290	0	26.713	0	301.148	0	108.9	4	35.4	4	-1E+10	1	-1E+10	1	-1E+10	1	-1E+10	1	-1E+10	1	-1E+10	1
4902549	36	C	08/05/2021	20:18	-132.156	47.273	0	304.80	0	5.3020	0	33.8310	0	26.717	0	302.040	0	108.4	4	35.2	4	-1E+10	1	-1E+10	1	-1E+10	1	-1E+10	1	-1E+10	1	-1E+10	1
4902549	36	C	08/05/2021	20:18	-132.156	47.273	0	305.70	0	5.2980	0	33.8290	0	26.715	0	302.931	0	108.0	4	35.1	4	-1E+10	1	-1E+10	1	-1E+10	1	-1E+10	1	-1E+10	1	-1E+10	1
4902549	36	C	08/05/2021	20:18	-132.156	47.273	0	306.70	0	5.2820	0	33.8310	0	26.719	0	303.921	0	107.6	4	34.9	4	-1E+10	1	-1E+10	1	-1E+10	1	-1E+10	1	-1E+10	1	-1E+10	1
4902549	36	C	08/05/2021	20:18	-132.156	47.273	0	307.60	0	5.2780	0	33.8310	0	26.719	0	304.812	0	107.1	4	34.8	4	-1E+10	1	-1E+10	1	-1E+10	1	-1E+10	1	-1E+10	1	-1E+10	1
4902549	36	C	08/05/2021	20:18	-132.156	47.273	0	308.90	0	5.2700	0	33.8310	0	26.720	0	306.099	0	106.4	4	34.5	4	-1E+10	1	-1E+10	1	-1E+10	1	-1E+10	1	-1E+10	1	-1E+10	1
4902549	36	C	08/05/2021	20:18	-132.156	47.273	0	310.20	0	5.2490	0	33.8330	0	26.724	0	307.387	0	105.7	4	34.3	4	-1E+10	1	-1E+10	1	-1E+10	1	-1E+10	1	-1E+10	1	-1E+10	1
4902549	36	C	08/05/2021	20:18	-132.156	47.273	0	311.10	0	5.2300	0	33.8340	0	26.727	0	308.278	0	105.2	4	34.1	4	-1E+10	1	-1E+10	1	-1E+10	1	-1E+10	1	-1E+10	1	-1E+10	1
4902549	36	C	08/05/2021	20:18	-132.156	47.273	0	312.00	0	5.2260	0	33.8340	0	26.728	0	309.169	0	104.8	4	34.0	4	-1E+10	1	-1E+10	1	-1E+10	1	-1E+10	1	-1E+10	1	-1E+10	1
4902549	36	C	08/05/2021	20:18	-132.156	47.273	0	312.90	0	5.2190	0	33.8340	0	26.729	0	310.060	0	104.3	4	33.8	4	-1E+10	1	-1E+10	1	-1E+10	1	-1E+10	1	-1E+10	1	-1E+10	1
4902549	36	C	08/05/2021	20:18	-132.156	47.273	0	313.80	0	5.2070	0	33.8360	0	26.732	0	310.951	0	103.9	4	33.7	4	-1E+10	1	-1E+10	1	-1E+10	1	-1E+10	1	-1E+10	1	-1E+10	1
4902549	36	C	08/05/2021	20:18	-132.156	47.273	0	314.70	0	5.2010	0	33.8360	0	26.732	0	311.843	0	103.5	4	33.5	4	-1E+10	1	-1E+10	1	-1E+10	1	-1E+10	1	-1E+10	1	-1E+10	1
4902549	36	C	08/05/2021	20:18	-132.156	47.273	0	315.60	0	5.1970	0	33.8360	0	26.733	0	312.734	0	103.0	4	33.4	4	-1E+10	1	-1E+10	1	-1E+10	1	-1E+10	1	-1E+10	1	-1E+10	1
4902549	36	C	08/05/2021	20:18	-132.156	47.273	0	316.90	0	5.1800	0	33.8370	0	26.736	0	314.021	0	102.3	4	33.1	4	-1E+10	1	-1E+10	1	-1E+10	1	-1E+10	1	-1E+10	1	-1E+10	1
4902549	36	C	08/05/2021	20:18	-132.156	47.273	0	318.30	0	5.1580	0	33.8420	0	26.742	0	315.407	0	101.7	4	32.9	4	-1E+10	1	-1E+10	1	-1E+10	1	-1E+10	1	-1E+10	1	-1E+10	1
4902549	36	C	08/05/2021	20:18	-132.156	47.273	0	319.20	0	5.1530	0	33.8400	0	26.741	0	316.298	0	101.2	4	32.8	4	-1E+10	1	-1E+10	1	-1E+10	1	-1E+10	1	-1E+10	1	-1E+10	1
4902549	36	C	08/05/2021	20:18	-132.156	47.273	0	320.10	0	5.1460	0	33.8420	0	26.743	0	317.189	0	100.7	4	32.6	4	-1E+10	1	-1E+10	1	-1E+10	1	-1E+10	1	-1E+10	1	-1E+10	1
4902549	36	C	08/05/2021	20:18	-132.156	47.273	0	321.00	0	5.1330	0	33.8410	0	26.744	0	318.081	0	100.3	4	32.4	4	-1E+10	1	-1E+10	1	-1E+10	1	-1E+10	1	-1E+10	1	-1E+10	1
4902549	36	C	08/05/2021	20:18	-132.156	47.273	0	321.90	0	5.1260	0	33.8410	0	26.745	0	318.972	0	99.9	4	32.3	4	-1E+10	1	-1E+10	1	-1E+10	1	-1E+10	1	-1E+10	1	-1E+10	1
4902549	36	C	08/05/2021	20:18	-132.156	47.273	0	322.80	0	5.1220	0	33.8410	0	26.745	0	319.863	0	99.4	4	32.2	4	-1E+10	1	-1E+10	1	-1E+10	1	-1E+10	1	-1E+10	1	-1E+10	1
4902549	36	C	08/05/2021	20:18	-132.156	47.273	0	323.80	0	5.1060	0	33.8430	0	26.749	0	320.853	0	98.9	4	32.0	4	-1E+10	1	-1E+10	1	-1E+10	1	-1E+10	1	-1E+10	1	-1E+10	1
4902549	36	C	08/05/2021	20:18	-132.156	47.273	0	324.60	0	5.1030	0	33.8430	0	26.749	0	321.645	0	98.4	4	31.8	4	-1E+10	1	-1E+10	1	-1E+10	1	-1E+10	1	-1E+10	1	-1E+10	1
4902549	36	C	08/05/2021	20:18	-132.156	47.273	0	325.60	0	5.0950	0	33.8440	0	26.751	0	322.635	0	97.9	4	31.7	4	-1E+10	1	-1E+10	1	-1E+10	1	-1E+10	1	-1E+10	1	-1E+10	1
4902549	36	C	08/05/2021	20:18	-132.156	47.273	0	326.90	0	5.0780	0	33.8460	0	26.755	0	323.922	0	97.3	4	31.4	4	-1E+10	1	-1E+10	1	-1E+10	1	-1E+10	1	-1E+10	1	-1E+10	1
4902549	36	C	08/05/2021	20:18	-132.156	47.273	0	328.40	0	5.0710	0	33.8480	0	26.757	0	325.407	0	96.7	4	31.2	4	-1E+10	1	-1E+10	1	-1E+10	1	-1E+10	1	-1E+10	1	-1E+10	1
4902549	36	C	08/05/2021	20:18	-132.156	47.273	0	329.30	0	5.0680	0	33.8470	0	26.756	0	326.298	0	96.2	4	31.1	4	-1E+10	1	-1E+10	1	-1E+10	1	-1E+10	1	-1E+10	1	-1E+10	1
4902549	36	C	08/05/2021	20:18	-132.156	47.273	0	330.30	0	5.0620	0	33.8480	0	26.758	0	327.289	0	95.8	4	30.9	4	-1E+10	1	-1E+10	1	-1E+10	1	-1E+10	1	-1E+10	1	-1E+10	1
4902549	36	C	08/05/2021	20:18	-132.156	47.273	0	331.20	0	5.0550	0	33.8480	0	26.759	0	328.180	0	95.2	4	30.8	4	-1E+10	1	-1E+10	1	-1E+10	1	-1E+10	1	-1E+10	1	-1E+10	1
4902549	36	C	08/05/2021	20:18	-132.156	47.273	0	332.20	0	5.0290	0	33.8510	0	26.764	0	329.170	0	94.9	4	30.6	4	-1E+10	1	-1E+10	1	-1E+10	1	-1E+10	1	-1E+10	1	-1E+10	1
4902549	36	C	08/05/2021	20:18	-132.156	47.273	0	333.20	0	5.0200	0	33.8520	0	26.766	0	330.160	0	94.5	4	30.5	4	-1E+10	1	-1E+10	1	-1E+10	1	-1E+10	1	-1E+10	1	-1E+10	1
4902549	36	C	08/05/2021	20:18	-132.156	47.273	0	334.10	0	5.0100	0	33.8520	0	26.767	0	331.051	0	94.1	4	30.4	4	-1E+10	1	-1E+10	1	-1E+10	1	-1E+10	1	-1E+10	1	-1E+10	1
4902549	36	C	08/05/2021	20:18	-132.156	47.273	0	335.10	0	5.0020	0	33.8520	0	26.768	0	332.041	0	93.7	4	30.2	4	-1E+10	1	-1E+10	1	-1E+10	1	-1E+10	1	-1E+10	1	-1E+10	1
4902549	36	C	08/05/2021	20:18	-132.156	47.273	0	336.10	0	4.9930	0	33.8530	0	26.770	0	333.031	0	93.4	4	30.1	4	-1E+10	1	-1E+10	1	-1E+10	1	-1E+10	1	-1E+10	1	-1E+10	1
4902549	36	C	08/05/2021	20:18	-132.156	47.273	0	337.10	0	4.9870	0	33.8530	0	26.770	0	334.021	0	93.0	4	30.0	4	-1E+10	1	-1E+10	1	-1E+10	1	-1E+10	1	-1E+10	1	-1E+10	1
4902549	36	C	08/05/2021	20:18	-132.156	47.273	0	338.00	0	4.9880	0	33.8530	0	26.770	0	334.912	0	92.7	4	29.9	4	-1E+10	1	-1E+10	1	-1E+10	1	-1E+10	1	-1E+10	1	-1E+10	1
4902549	36	C	08/05/2021	20:18	-132.156	47.273	0	339.00	0	4.9670	0	33.8540	0	26.774	0	335.902	0	92.4	4	29.8	4	-1E+10	1	-1E+10	1	-1E+10	1	-1E+10	1	-1E+10	1	-1E+10	1
4902549	36	C	08/05/2021	20:18	-132.156	47.273	0	340.00	0	4.9570	0	33.8550	0	26.775	0	336.892	0	92.0	4	29.7	4	-1E+10	1	-1E+10	1	-1E+10	1	-1E+10	1	-1E+10	1	-1E+10	1
4902549	36	C	08/05/2021	20:18	-132.156	47.273	0	341.00	0	4.9500	0	33.8560	0	26.777	0	337.882	0	91.8	4	29.6	4	-1E+10	1	-1E+10	1	-1E+10	1	-1E+10	1	-1E+10	1	-1E+10	1
4902549	36	C	08/05/2021	20:18	-132.156	47.273	0	341.90	0	4.9470	0	33.8560	0	26.777	0	338.773	0	91.5	4	29.5	4	-1E+10	1	-1E+10	1	-1E+10	1	-1E+10	1	-1E+10	1	-1E+10	1
4902549	36	C	08/05/2021	20:18	-132.156	47.273	0	343.00	0	4.9320	0	33.8590	0	26.781	0	339.862	0	91.3	4	29.4	4	-1E+10	1	-1E+10	1	-1E+10	1	-1E+10	1	-1E+10	1	-1E+10	1
4902549	36	C	08/05/2021	20:18	-132.156	47.273	0	343.90	0	4.9400	0	33.8620	0	26.783	0	340.753	0	91.1	4	29.3	4	-1E+10	1	-1E+10	1	-1E+10	1	-1E+10	1	-1E+10	1	-1E+10	1
4902549	36	C	08/05/2021	20:18	-132.156	47.273	0	344.90	0	4.9390	0	33.8620	0	26.783	0	341.743	0	90.9	4	29.3	4	-1E+10	1	-1E+10	1	-1E+10	1	-1E+10	1	-1E+10	1	-1E+10	1
4902549	36	C	08/05/2021	20:18	-132.156	47.273	0	345.90	0	4.9430	0	33.8640	0	26.784	0	342.733	0	90.6	4	29.2	4	-1E+10	1	-1E+10	1	-1E+10	1	-1E+10	1	-1E+10	1	-1E+10	1
4902549	36	C	08/05/2021	20:18	-132.156	47.273	0	346.90	0	4.9870	0	33.8680	0	26.782	0	343.723	0	90.3	4	29.1	4	-1E+10	1	-1E+10	1	-1E+10	1	-1E+10	1	-1E+10	1	-1E+10	1
4902549	36	C	08/05/2021	20:18	-132.156	47.273	0	347.90	0	5.0340	0	33.8800	0	26.787	0	344.713	0	89.9	4	29.0	4	-1E+10	1	-1E+10	1	-1E+10	1	-1E+10	1	-1E+10	1	-1E+10	1
4902549	36	C	08/05/2021	20:18	-132.156	47.273	0	348.90	0	5.0360	0	33.8830	0	26.789	0	345.703	0	89.5	4	28.9	4	-1E+10	1	-1E+10	1	-1E+10	1	-1E+10	1	-1E+10	1	-1E+10	1
4902549	36	C	08/05/2021	20:18	-132.156	47.273	0	349.90	0	5.0380	0	33.8830	0	26.789	0	346.693	0	89.2	4	28.8	4	-1E+10	1	-1E+10	1	-1E+10	1	-1E+10	1	-1E+10	1	-1E+10	1
4902549	36	C	08/05/2021	20:18	-132.156	47.273	0	353.00	0	5.0320	0	33.8860	0	26.792	0	349.762	0	88.1	4	28.4	4	-1E+10	1	-1E+10	1	-1E+10	1	-1E+10	1	-1E+10	1	-1E+10	1
4902549	36	C	08/05/2021	20:18	-132.156	47.273	0	358.10	0	5.0050	0	33.8910	0	26.799	0	354.811	0	86.5	4	27.9	4	-1E+10	1	-1E+10	1	-1E+10	1	-1E+10	1	-1E+10	1	-1E+10	1
4902549	36	C	08/05/2021	20:18	-132.156	47.273	0	363.30	0	4.9670	0	33.8940	0	26.805	0	359.959	0	85.1	4	27.4	4	-1E+10	1	-1E+10	1	-1E+10	1	-1E+10	1	-1E+10	1	-1E+10	1
4902549	36	C	08/05/2021	20:18	-132.156	47.273	0	368.20	0	4.9530	0	33.8960	0	26.809	0	364.810	0	84.0	4	27.1	4	-1E+10	1	-1E+10	1	-1E+10	1	-1E+10	1	-1E+10	1	-1E+10	1
4902549	36	C	08/05/2021	20:18	-132.156	47.273	0	373.00	0	4.9390	0	33.9000	0	26.813	0	369.561	0	82.4	4	26.6	4	-1E+10	1	-1E+10	1	-1E+10	1	-1E+10	1	-1E+10	1	-1E+10	1
4902549	36	C	08/05/2021	20:18	-132.156	47.273	0	378.20	0	4.9150	0	33.9050	0	26.820	0	374.709	0	81.2	4	26.1	4	-1E+10	1	-1E+10	1	-1E+10	1	-1E+10	1	-1E+10	1	-1E+10	1
4902549	36	C	08/05/2021	20:18	-132.156	47.273	0	383.00	0	4.9000	0	33.9070	0	26.823	0	379.460	0	80.2	4	25.8	4	-1E+10	1	-1E+10	1	-1E+10	1	-1E+10	1	-1E+10	1	-1E+10	1
4902549	36	C	08/05/2021	20:18	-132.156	47.273	0	388.00	0	4.8900	0	33.9090	0	26.826	0	384.409	0	79.0	4	25.4	4	-1E+10	1	-1E+10	1	-1E+10	1	-1E+10	1	-1E+10	1	-1E+10	1
4902549	36	C	08/05/2021	20:18	-132.156	47.273	0	393.00	0	4.8660	0	33.9120	0	26.831	0	389.358	0	77.6	4	25.0	4	-1E+10	1	-1E+10	1	-1E+10	1	-1E+10	1	-1E+10	1	-1E+10	1
4902549	36	C	08/05/2021	20:18	-132.156	47.273	0	398.10	0	4.8420	0	33.9140	0	26.836	0	394.406	0	76.2	4	24.5	4	-1E+10	1	-1E+10	1	-1E+10	1	-1E+10	1	-1E+10	1	-1E+10	1
4902549	36	C	08/05/2021	20:18	-132.156	47.273	0	402.90	0	4.8140	0	33.9160	0	26.840	0	399.157	0	74.4	4	23.9	4	-1E+10	1	-1E+10	1	-1E+10	1	-1E+10	1	-1E+10	1	-1E+10	1
4902549	36	C	08/05/2021	20:18	-132.156	47.273	0	407.70	0	4.7770	0	33.9210	0	26.849	0	403.908	0	72.9	4	23.4	4	-1E+10	1	-1E+10	1	-1E+10	1	-1E+10	1	-1E+10	1	-1E+10	1
4902549	36	C	08/05/2021	20:18	-132.156	47.273	0	413.00	0	4.7520	0	33.9250	0	26.854	0	409.153	0	71.3	4	22.9	4	-1E+10	1	-1E+10	1	-1E+10	1	-1E+10	1	-1E+10	1	-1E+10	1
4902549	36	C	08/05/2021	20:18	-132.156	47.273	0	418.00	0	4.7240	0	33.9300	0	26.862	0	414.101	0	69.9	4	22.4	4	-1E+10	1	-1E+10	1	-1E+10	1	-1E+10	1	-1E+10	1	-1E+10	1
4902549	36	C	08/05/2021	20:18	-132.156	47.273	0	422.90	0	4.7100	0	33.9330	0	26.866	0	418.951	0	68.4	4	21.9	4	-1E+10	1	-1E+10	1	-1E+10	1	-1E+10	1	-1E+10	1	-1E+10	1
4902549	36	C	08/05/2021	20:18	-132.156	47.273	0	427.90	0	4.6920	0	33.9360	0	26.870	0	423.899	0	66.3	4	21.3	4	-1E+10	1	-1E+10	1	-1E+10	1	-1E+10	1	-1E+10	1	-1E+10	1
4902549	36	C	08/05/2021	20:18	-132.156	47.273	0	432.90	0	4.6500	0	33.9430	0	26.880	0	428.847	0	64.4	4	20.6	4	-1E+10	1	-1E+10	1	-1E+10	1	-1E+10	1	-1E+10	1	-1E+10	1
4902549	36	C	08/05/2021	20:18	-132.156	47.273	0	438.00	0	4.6240	0	33.9490	0	26.888	0	433.894	0	62.6	4	20.0	4	-1E+10	1	-1E+10	1	-1E+10	1	-1E+10	1	-1E+10	1	-1E+10	1
4902549	36	C	08/05/2021	20:18	-132.156	47.273	0	442.70	0	4.5970	0	33.9540	0	26.895	0	438.545	0	61.3	4	19.6	4	-1E+10	1	-1E+10	1	-1E+10	1	-1E+10	1	-1E+10	1	-1E+10	1
4902549	36	C	08/05/2021	20:18	-132.156	47.273	0	447.90	0	4.5700	0	33.9580	0	26.901	0	443.691	0	59.6	4	19.0	4	-1E+10	1	-1E+10	1	-1E+10	1	-1E+10	1	-1E+10	1	-1E+10	1
4902549	36	C	08/05/2021	20:18	-132.156	47.273	0	453.00	0	4.5370	0	33.9620	0	26.908	0	448.737	0	58.0	4	18.5	4	-1E+10	1	-1E+10	1	-1E+10	1	-1E+10	1	-1E+10	1	-1E+10	1
4902549	36	C	08/05/2021	20:18	-132.156	47.273	0	458.00	0	4.5130	0	33.9690	0	26.916	0	453.685	0	56.6	4	18.1	4	-1E+10	1	-1E+10	1	-1E+10	1	-1E+10	1	-1E+10	1	-1E+10	1
4902549	36	C	08/05/2021	20:18	-132.156	47.273	0	463.10	0	4.4950	0	33.9740	0	26.922	0	458.731	0	55.2	4	17.6	4	-1E+10	1	-1E+10	1	-1E+10	1	-1E+10	1	-1E+10	1	-1E+10	1
4902549	36	C	08/05/2021	20:18	-132.156	47.273	0	467.80	0	4.4760	0	33.9790	0	26.928	0	463.381	0	54.1	4	17.3	4	-1E+10	1	-1E+10	1	-1E+10	1	-1E+10	1	-1E+10	1	-1E+10	1
4902549	36	C	08/05/2021	20:18	-132.156	47.273	0	472.90	0	4.4640	0	33.9820	0	26.932	0	468.427	0	53.0	4	16.9	4	-1E+10	1	-1E+10	1	-1E+10	1	-1E+10	1	-1E+10	1	-1E+10	1
4902549	36	C	08/05/2021	20:18	-132.156	47.273	0	477.90	0	4.4550	0	33.9860	0	26.936	0	473.375	0	51.4	4	16.4	4	-1E+10	1	-1E+10	1	-1E+10	1	-1E+10	1	-1E+10	1	-1E+10	1
4902549	36	C	08/05/2021	20:18	-132.156	47.273	0	482.80	0	4.4310	0	33.9930	0	26.944	0	478.222	0	49.6	4	15.8	4	-1E+10	1	-1E+10	1	-1E+10	1	-1E+10	1	-1E+10	1	-1E+10	1
4902549	36	C	08/05/2021	20:18	-132.156	47.273	0	487.90	0	4.4110	0	34.0010	0	26.952	0	483.268	0	48.2	4	15.4	4	-1E+10	1	-1E+10	1	-1E+10	1	-1E+10	1	-1E+10	1	-1E+10	1
4902549	36	C	08/05/2021	20:18	-132.156	47.273	0	492.60	0	4.4020	0	34.0050	0	26.957	0	487.918	0	47.1	4	15.0	4	-1E+10	1	-1E+10	1	-1E+10	1	-1E+10	1	-1E+10	1	-1E+10	1
4902549	36	C	08/05/2021	20:18	-132.156	47.273	0	497.80	0	4.3900	0	34.0090	0	26.961	0	493.062	0	45.7	4	14.6	4	-1E+10	1	-1E+10	1	-1E+10	1	-1E+10	1	-1E+10	1	-1E+10	1
4902549	36	C	08/05/2021	20:18	-132.156	47.273	0	503.10	0	4.3630	0	34.0160	0	26.970	0	498.306	0	44.3	4	14.1	4	-1E+10	1	-1E+10	1	-1E+10	1	-1E+10	1	-1E+10	1	-1E+10	1
4902549	36	C	08/05/2021	20:18	-132.156	47.273	0	508.00	0	4.3470	0	34.0210	0	26.975	0	503.153	0	43.2	4	13.7	4	-1E+10	1	-1E+10	1	-1E+10	1	-1E+10	1	-1E+10	1	-1E+10	1
4902549	36	C	08/05/2021	20:18	-132.156	47.273	0	512.90	0	4.3330	0	34.0260	0	26.981	0	508.000	0	41.9	4	13.3	4	-1E+10	1	-1E+10	1	-1E+10	1	-1E+10	1	-1E+10	1	-1E+10	1
4902549	36	C	08/05/2021	20:18	-132.156	47.273	0	518.00	0	4.3150	0	34.0320	0	26.987	0	513.045	0	40.7	4	12.9	4	-1E+10	1	-1E+10	1	-1E+10	1	-1E+10	1	-1E+10	1	-1E+10	1
4902549	36	C	08/05/2021	20:18	-132.156	47.273	0	523.00	0	4.3050	0	34.0350	0	26.991	0	517.991	0	39.6	4	12.6	4	-1E+10	1	-1E+10	1	-1E+10	1	-1E+10	1	-1E+10	1	-1E+10	1
4902549	36	C	08/05/2021	20:18	-132.156	47.273	0	528.00	0	4.2840	0	34.0420	0	26.999	0	522.937	0	38.4	4	12.2	4	-1E+10	1	-1E+10	1	-1E+10	1	-1E+10	1	-1E+10	1	-1E+10	1
4902549	36	C	08/05/2021	20:18	-132.156	47.273	0	533.10	0	4.2740	0	34.0460	0	27.003	0	527.982	0	37.4	4	11.9	4	-1E+10	1	-1E+10	1	-1E+10	1	-1E+10	1	-1E+10	1	-1E+10	1
4902549	36	C	08/05/2021	20:18	-132.156	47.273	0	538.10	0	4.2660	0	34.0480	0	27.005	0	532.927	0	36.1	4	11.5	4	-1E+10	1	-1E+10	1	-1E+10	1	-1E+10	1	-1E+10	1	-1E+10	1
4902549	36	C	08/05/2021	20:18	-132.156	47.273	0	543.20	0	4.2410	0	34.0550	0	27.014	0	537.972	0	34.6	4	11.0	4	-1E+10	1	-1E+10	1	-1E+10	1	-1E+10	1	-1E+10	1	-1E+10	1
4902549	36	C	08/05/2021	20:18	-132.156	47.273	0	548.30	0	4.2170	0	34.0630	0	27.023	0	543.016	0	33.4	4	10.6	4	-1E+10	1	-1E+10	1	-1E+10	1	-1E+10	1	-1E+10	1	-1E+10	1
4902549	36	C	08/05/2021	20:18	-132.156	47.273	0	553.30	0	4.1980	0	34.0700	0	27.030	0	547.961	0	32.7	4	10.4	4	-1E+10	1	-1E+10	1	-1E+10	1	-1E+10	1	-1E+10	1	-1E+10	1
4902549	36	C	08/05/2021	20:18	-132.156	47.273	0	557.90	0	4.1900	0	34.0720	0	27.033	0	552.511	0	32.3	4	10.2	4	-1E+10	1	-1E+10	1	-1E+10	1	-1E+10	1	-1E+10	1	-1E+10	1
4902549	36	C	08/05/2021	20:18	-132.156	47.273	0	562.40	0	4.1860	0	34.0740	0	27.035	0	556.961	0	31.7	4	10.1	4	-1E+10	1	-1E+10	1	-1E+10	1	-1E+10	1	-1E+10	1	-1E+10	1
4902549	36	C	08/05/2021	20:18	-132.156	47.273	0	567.50	0	4.1780	0	34.0760	0	27.037	0	562.005	0	31.0	4	9.8	4	-1E+10	1	-1E+10	1	-1E+10	1	-1E+10	1	-1E+10	1	-1E+10	1
4902549	36	C	08/05/2021	20:18	-132.156	47.273	0	572.50	0	4.1670	0	34.0790	0	27.041	0	566.950	0	30.2	4	9.6	4	-1E+10	1	-1E+10	1	-1E+10	1	-1E+10	1	-1E+10	1	-1E+10	1
4902549	36	C	08/05/2021	20:18	-132.156	47.273	0	577.50	0	4.1600	0	34.0820	0	27.044	0	571.894	0	29.2	4	9.3	4	-1E+10	1	-1E+10	1	-1E+10	1	-1E+10	1	-1E+10	1	-1E+10	1
4902549	36	C	08/05/2021	20:18	-132.156	47.273	0	582.40	0	4.1380	0	34.0890	0	27.052	0	576.740	0	28.1	4	8.9	4	-1E+10	1	-1E+10	1	-1E+10	1	-1E+10	1	-1E+10	1	-1E+10	1
4902549	36	C	08/05/2021	20:18	-132.156	47.273	0	587.90	0	4.1190	0	34.0950	0	27.058	0	582.179	0	27.5	4	8.7	4	-1E+10	1	-1E+10	1	-1E+10	1	-1E+10	1	-1E+10	1	-1E+10	1
4902549	36	C	08/05/2021	20:18	-132.156	47.273	0	593.30	0	4.1130	0	34.0970	0	27.061	0	587.519	0	26.8	4	8.5	4	-1E+10	1	-1E+10	1	-1E+10	1	-1E+10	1	-1E+10	1	-1E+10	1
4902549	36	C	08/05/2021	20:18	-132.156	47.273	0	598.30	0	4.1010	0	34.1000	0	27.064	0	592.463	0	25.9	4	8.2	4	-1E+10	1	-1E+10	1	-1E+10	1	-1E+10	1	-1E+10	1	-1E+10	1
4902549	36	C	08/05/2021	20:18	-132.156	47.273	0	603.20	0	4.0890	0	34.1040	0	27.069	0	597.308	0	24.7	4	7.8	4	-1E+10	1	-1E+10	1	-1E+10	1	-1E+10	1	-1E+10	1	-1E+10	1
4902549	36	C	08/05/2021	20:18	-132.156	47.273	0	608.30	0	4.0600	0	34.1140	0	27.080	0	602.351	0	23.5	4	7.4	4	-1E+10	1	-1E+10	1	-1E+10	1	-1E+10	1	-1E+10	1	-1E+10	1
4902549	36	C	08/05/2021	20:18	-132.156	47.273	0	613.10	0	4.0460	0	34.1190	0	27.085	0	607.097	0	22.7	4	7.2	4	-1E+10	1	-1E+10	1	-1E+10	1	-1E+10	1	-1E+10	1	-1E+10	1
4902549	36	C	08/05/2021	20:18	-132.156	47.273	0	617.80	0	4.0260	0	34.1260	0	27.093	0	611.744	0	22.1	4	7.0	4	-1E+10	1	-1E+10	1	-1E+10	1	-1E+10	1	-1E+10	1	-1E+10	1
4902549	36	C	08/05/2021	20:18	-132.156	47.273	0	622.80	0	4.0120	0	34.1300	0	27.098	0	616.688	0	21.5	4	6.8	4	-1E+10	1	-1E+10	1	-1E+10	1	-1E+10	1	-1E+10	1	-1E+10	1
4902549	36	C	08/05/2021	20:18	-132.156	47.273	0	627.80	0	4.0090	0	34.1330	0	27.100	0	621.631	0	21.0	4	6.6	4	-1E+10	1	-1E+10	1	-1E+10	1	-1E+10	1	-1E+10	1	-1E+10	1
4902549	36	C	08/05/2021	20:18	-132.156	47.273	0	632.60	0	3.9920	0	34.1370	0	27.105	0	626.377	0	20.7	4	6.5	4	-1E+10	1	-1E+10	1	-1E+10	1	-1E+10	1	-1E+10	1	-1E+10	1
4902549	36	C	08/05/2021	20:18	-132.156	47.273	0	637.90	0	3.9860	0	34.1380	0	27.107	0	631.617	0	20.2	4	6.4	4	-1E+10	1	-1E+10	1	-1E+10	1	-1E+10	1	-1E+10	1	-1E+10	1
4902549	36	C	08/05/2021	20:18	-132.156	47.273	0	643.10	0	3.9720	0	34.1430	0	27.112	0	636.757	0	19.5	4	6.2	4	-1E+10	1	-1E+10	1	-1E+10	1	-1E+10	1	-1E+10	1	-1E+10	1
4902549	36	C	08/05/2021	20:18	-132.156	47.273	0	648.10	0	3.9610	0	34.1480	0	27.117	0	641.700	0	19.1	4	6.0	4	-1E+10	1	-1E+10	1	-1E+10	1	-1E+10	1	-1E+10	1	-1E+10	1
4902549	36	C	08/05/2021	20:18	-132.156	47.273	0	653.20	0	3.9580	0	34.1500	0	27.119	0	646.742	0	18.8	4	5.9	4	-1E+10	1	-1E+10	1	-1E+10	1	-1E+10	1	-1E+10	1	-1E+10	1
4902549	36	C	08/05/2021	20:18	-132.156	47.273	0	657.90	0	3.9560	0	34.1500	0	27.119	0	651.388	0	18.4	4	5.8	4	-1E+10	1	-1E+10	1	-1E+10	1	-1E+10	1	-1E+10	1	-1E+10	1
4902549	36	C	08/05/2021	20:18	-132.156	47.273	0	662.70	0	3.9490	0	34.1530	0	27.123	0	656.133	0	18.0	4	5.7	4	-1E+10	1	-1E+10	1	-1E+10	1	-1E+10	1	-1E+10	1	-1E+10	1
4902549	36	C	08/05/2021	20:18	-132.156	47.273	0	668.00	0	3.9420	0	34.1560	0	27.126	0	661.372	0	17.3	4	5.5	4	-1E+10	1	-1E+10	1	-1E+10	1	-1E+10	1	-1E+10	1	-1E+10	1
4902549	36	C	08/05/2021	20:18	-132.156	47.273	0	673.00	0	3.9210	0	34.1630	0	27.133	0	666.315	0	16.8	4	5.3	4	-1E+10	1	-1E+10	1	-1E+10	1	-1E+10	1	-1E+10	1	-1E+10	1
4902549	36	C	08/05/2021	20:18	-132.156	47.273	0	678.00	0	3.9050	0	34.1680	0	27.139	0	671.257	0	16.5	4	5.2	4	-1E+10	1	-1E+10	1	-1E+10	1	-1E+10	1	-1E+10	1	-1E+10	1
4902549	36	C	08/05/2021	20:18	-132.156	47.273	0	683.10	0	3.8890	0	34.1720	0	27.144	0	676.298	0	16.3	4	5.1	4	-1E+10	1	-1E+10	1	-1E+10	1	-1E+10	1	-1E+10	1	-1E+10	1
4902549	36	C	08/05/2021	20:18	-132.156	47.273	0	687.70	0	3.8820	0	34.1740	0	27.146	0	680.845	0	16.0	4	5.0	4	-1E+10	1	-1E+10	1	-1E+10	1	-1E+10	1	-1E+10	1	-1E+10	1
4902549	36	C	08/05/2021	20:18	-132.156	47.273	0	692.50	0	3.8620	0	34.1780	0	27.151	0	685.589	0	15.9	4	5.0	4	-1E+10	1	-1E+10	1	-1E+10	1	-1E+10	1	-1E+10	1	-1E+10	1
4902549	36	C	08/05/2021	20:18	-132.156	47.273	0	697.90	0	3.8460	0	34.1810	0	27.155	0	690.926	0	15.7	4	4.9	4	-1E+10	1	-1E+10	1	-1E+10	1	-1E+10	1	-1E+10	1	-1E+10	1
4902549	36	C	08/05/2021	20:18	-132.156	47.273	0	703.40	0	3.8320	0	34.1840	0	27.159	0	696.362	0	15.5	4	4.9	4	-1E+10	1	-1E+10	1	-1E+10	1	-1E+10	1	-1E+10	1	-1E+10	1
4902549	36	C	08/05/2021	20:18	-132.156	47.273	0	707.90	0	3.8140	0	34.1870	0	27.163	0	700.809	0	15.3	4	4.8	4	-1E+10	1	-1E+10	1	-1E+10	1	-1E+10	1	-1E+10	1	-1E+10	1
4902549	36	C	08/05/2021	20:18	-132.156	47.273	0	712.50	0	3.8030	0	34.1900	0	27.167	0	705.356	0	15.0	4	4.7	4	-1E+10	1	-1E+10	1	-1E+10	1	-1E+10	1	-1E+10	1	-1E+10	1
4902549	36	C	08/05/2021	20:18	-132.156	47.273	0	717.70	0	3.7910	0	34.1930	0	27.171	0	710.495	0	14.7	4	4.6	4	-1E+10	1	-1E+10	1	-1E+10	1	-1E+10	1	-1E+10	1	-1E+10	1
4902549	36	C	08/05/2021	20:18	-132.156	47.273	0	723.00	0	3.7820	0	34.1970	0	27.175	0	715.732	0	14.4	4	4.5	4	-1E+10	1	-1E+10	1	-1E+10	1	-1E+10	1	-1E+10	1	-1E+10	1
4902549	36	C	08/05/2021	20:18	-132.156	47.273	0	728.30	0	3.7750	0	34.1980	0	27.176	0	720.970	0	14.2	4	4.5	4	-1E+10	1	-1E+10	1	-1E+10	1	-1E+10	1	-1E+10	1	-1E+10	1
4902549	36	C	08/05/2021	20:18	-132.156	47.273	0	733.50	0	3.7670	0	34.2010	0	27.179	0	726.108	0	14.0	4	4.4	4	-1E+10	1	-1E+10	1	-1E+10	1	-1E+10	1	-1E+10	1	-1E+10	1
4902549	36	C	08/05/2021	20:18	-132.156	47.273	0	738.20	0	3.7620	0	34.2030	0	27.182	0	730.753	0	13.6	4	4.3	4	-1E+10	1	-1E+10	1	-1E+10	1	-1E+10	1	-1E+10	1	-1E+10	1
4902549	36	C	08/05/2021	20:18	-132.156	47.273	0	743.00	0	3.7510	0	34.2060	0	27.185	0	735.496	0	13.2	4	4.2	4	-1E+10	1	-1E+10	1	-1E+10	1	-1E+10	1	-1E+10	1	-1E+10	1
4902549	36	C	08/05/2021	20:18	-132.156	47.273	0	747.90	0	3.7420	0	34.2100	0	27.189	0	740.338	0	12.9	4	4.1	4	-1E+10	1	-1E+10	1	-1E+10	1	-1E+10	1	-1E+10	1	-1E+10	1
4902549	36	C	08/05/2021	20:18	-132.156	47.273	0	752.90	0	3.7290	0	34.2140	0	27.194	0	745.278	0	12.6	4	3.9	4	-1E+10	1	-1E+10	1	-1E+10	1	-1E+10	1	-1E+10	1	-1E+10	1
4902549	36	C	08/05/2021	20:18	-132.156	47.273	0	757.90	0	3.7220	0	34.2170	0	27.197	0	750.219	0	12.2	4	3.8	4	-1E+10	1	-1E+10	1	-1E+10	1	-1E+10	1	-1E+10	1	-1E+10	1
4902549	36	C	08/05/2021	20:18	-132.156	47.273	0	763.00	0	3.7130	0	34.2200	0	27.200	0	755.258	0	11.9	4	3.7	4	-1E+10	1	-1E+10	1	-1E+10	1	-1E+10	1	-1E+10	1	-1E+10	1
4902549	36	C	08/05/2021	20:18	-132.156	47.273	0	768.10	0	3.7050	0	34.2220	0	27.203	0	760.297	0	11.7	4	3.7	4	-1E+10	1	-1E+10	1	-1E+10	1	-1E+10	1	-1E+10	1	-1E+10	1
4902549	36	C	08/05/2021	20:18	-132.156	47.273	0	773.20	0	3.6980	0	34.2240	0	27.205	0	765.336	0	11.4	4	3.6	4	-1E+10	1	-1E+10	1	-1E+10	1	-1E+10	1	-1E+10	1	-1E+10	1
4902549	36	C	08/05/2021	20:18	-132.156	47.273	0	777.90	0	3.6870	0	34.2280	0	27.209	0	769.979	0	11.1	4	3.5	4	-1E+10	1	-1E+10	1	-1E+10	1	-1E+10	1	-1E+10	1	-1E+10	1
4902549	36	C	08/05/2021	20:18	-132.156	47.273	0	782.60	0	3.6730	0	34.2320	0	27.214	0	774.623	0	10.8	4	3.4	4	-1E+10	1	-1E+10	1	-1E+10	1	-1E+10	1	-1E+10	1	-1E+10	1
4902549	36	C	08/05/2021	20:18	-132.156	47.273	0	787.80	0	3.6620	0	34.2350	0	27.217	0	779.760	0	10.7	4	3.4	4	-1E+10	1	-1E+10	1	-1E+10	1	-1E+10	1	-1E+10	1	-1E+10	1
4902549	36	C	08/05/2021	20:18	-132.156	47.273	0	793.00	0	3.6580	0	34.2360	0	27.218	0	784.897	0	10.5	4	3.3	4	-1E+10	1	-1E+10	1	-1E+10	1	-1E+10	1	-1E+10	1	-1E+10	1
4902549	36	C	08/05/2021	20:18	-132.156	47.273	0	798.10	0	3.6390	0	34.2400	0	27.224	0	789.935	0	10.4	4	3.3	4	-1E+10	1	-1E+10	1	-1E+10	1	-1E+10	1	-1E+10	1	-1E+10	1
4902549	36	C	08/05/2021	20:18	-132.156	47.273	0	803.10	0	3.6260	0	34.2430	0	27.227	0	794.875	0	10.3	4	3.2	4	-1E+10	1	-1E+10	1	-1E+10	1	-1E+10	1	-1E+10	1	-1E+10	1
4902549	36	C	08/05/2021	20:18	-132.156	47.273	0	807.80	0	3.6140	0	34.2460	0	27.231	0	799.517	0	10.2	4	3.2	4	-1E+10	1	-1E+10	1	-1E+10	1	-1E+10	1	-1E+10	1	-1E+10	1
4902549	36	C	08/05/2021	20:18	-132.156	47.273	0	812.60	0	3.6030	0	34.2480	0	27.234	0	804.259	0	10.1	4	3.2	4	-1E+10	1	-1E+10	1	-1E+10	1	-1E+10	1	-1E+10	1	-1E+10	1
4902549	36	C	08/05/2021	20:18	-132.156	47.273	0	817.70	0	3.5920	0	34.2510	0	27.237	0	809.297	0	10.0	4	3.1	4	-1E+10	1	-1E+10	1	-1E+10	1	-1E+10	1	-1E+10	1	-1E+10	1
4902549	36	C	08/05/2021	20:18	-132.156	47.273	0	822.80	0	3.5800	0	34.2530	0	27.240	0	814.334	0	10.0	4	3.1	4	-1E+10	1	-1E+10	1	-1E+10	1	-1E+10	1	-1E+10	1	-1E+10	1
4902549	36	C	08/05/2021	20:18	-132.156	47.273	0	827.90	0	3.5590	0	34.2580	0	27.246	0	819.372	0	9.8	4	3.1	4	-1E+10	1	-1E+10	1	-1E+10	1	-1E+10	1	-1E+10	1	-1E+10	1
4902549	36	C	08/05/2021	20:18	-132.156	47.273	0	833.10	0	3.5490	0	34.2600	0	27.248	0	824.508	0	9.7	4	3.0	4	-1E+10	1	-1E+10	1	-1E+10	1	-1E+10	1	-1E+10	1	-1E+10	1
4902549	36	C	08/05/2021	20:18	-132.156	47.273	0	837.80	0	3.5340	0	34.2630	0	27.252	0	829.150	0	9.6	4	3.0	4	-1E+10	1	-1E+10	1	-1E+10	1	-1E+10	1	-1E+10	1	-1E+10	1
4902549	36	C	08/05/2021	20:18	-132.156	47.273	0	842.60	0	3.5240	0	34.2660	0	27.256	0	833.891	0	9.5	4	3.0	4	-1E+10	1	-1E+10	1	-1E+10	1	-1E+10	1	-1E+10	1	-1E+10	1
4902549	36	C	08/05/2021	20:18	-132.156	47.273	0	847.90	0	3.5080	0	34.2700	0	27.260	0	839.126	0	9.4	4	2.9	4	-1E+10	1	-1E+10	1	-1E+10	1	-1E+10	1	-1E+10	1	-1E+10	1
4902549	36	C	08/05/2021	20:18	-132.156	47.273	0	853.20	0	3.4980	0	34.2710	0	27.262	0	844.360	0	9.3	4	2.9	4	-1E+10	1	-1E+10	1	-1E+10	1	-1E+10	1	-1E+10	1	-1E+10	1
4902549	36	C	08/05/2021	20:18	-132.156	47.273	0	858.00	0	3.4900	0	34.2740	0	27.265	0	849.101	0	9.2	4	2.9	4	-1E+10	1	-1E+10	1	-1E+10	1	-1E+10	1	-1E+10	1	-1E+10	1
4902549	36	C	08/05/2021	20:18	-132.156	47.273	0	862.90	0	3.4770	0	34.2770	0	27.269	0	853.940	0	9.2	4	2.9	4	-1E+10	1	-1E+10	1	-1E+10	1	-1E+10	1	-1E+10	1	-1E+10	1
4902549	36	C	08/05/2021	20:18	-132.156	47.273	0	867.90	0	3.4690	0	34.2790	0	27.272	0	858.878	0	9.0	4	2.8	4	-1E+10	1	-1E+10	1	-1E+10	1	-1E+10	1	-1E+10	1	-1E+10	1
4902549	36	C	08/05/2021	20:18	-132.156	47.273	0	872.70	0	3.4610	0	34.2820	0	27.275	0	863.618	0	8.8	4	2.8	4	-1E+10	1	-1E+10	1	-1E+10	1	-1E+10	1	-1E+10	1	-1E+10	1
4902549	36	C	08/05/2021	20:18	-132.156	47.273	0	878.10	0	3.4500	0	34.2860	0	27.279	0	868.951	0	8.6	4	2.7	4	-1E+10	1	-1E+10	1	-1E+10	1	-1E+10	1	-1E+10	1	-1E+10	1
4902549	36	C	08/05/2021	20:18	-132.156	47.273	0	883.20	0	3.4410	0	34.2890	0	27.282	0	873.987	0	8.3	4	2.6	4	-1E+10	1	-1E+10	1	-1E+10	1	-1E+10	1	-1E+10	1	-1E+10	1
4902549	36	C	08/05/2021	20:18	-132.156	47.273	0	887.90	0	3.4290	0	34.2950	0	27.288	0	878.628	0	8.0	4	2.5	4	-1E+10	1	-1E+10	1	-1E+10	1	-1E+10	1	-1E+10	1	-1E+10	1
4902549	36	C	08/05/2021	20:18	-132.156	47.273	0	892.60	0	3.4190	0	34.3000	0	27.293	0	883.269	0	7.8	4	2.4	4	-1E+10	1	-1E+10	1	-1E+10	1	-1E+10	1	-1E+10	1	-1E+10	1
4902549	36	C	08/05/2021	20:18	-132.156	47.273	0	897.90	0	3.4150	0	34.3020	0	27.295	0	888.502	0	7.7	4	2.4	4	-1E+10	1	-1E+10	1	-1E+10	1	-1E+10	1	-1E+10	1	-1E+10	1
4902549	36	C	08/05/2021	20:18	-132.156	47.273	0	903.30	0	3.4110	0	34.3050	0	27.298	0	893.834	0	7.5	4	2.3	4	-1E+10	1	-1E+10	1	-1E+10	1	-1E+10	1	-1E+10	1	-1E+10	1
4902549	36	C	08/05/2021	20:18	-132.156	47.273	0	908.20	0	3.4000	0	34.3100	0	27.303	0	898.672	0	7.3	4	2.3	4	-1E+10	1	-1E+10	1	-1E+10	1	-1E+10	1	-1E+10	1	-1E+10	1
4902549	36	C	08/05/2021	20:18	-132.156	47.273	0	913.20	0	3.3910	0	34.3130	0	27.306	0	903.609	0	7.2	4	2.3	4	-1E+10	1	-1E+10	1	-1E+10	1	-1E+10	1	-1E+10	1	-1E+10	1
4902549	36	C	08/05/2021	20:18	-132.156	47.273	0	918.10	0	3.3830	0	34.3150	0	27.309	0	908.447	0	7.2	4	2.2	4	-1E+10	1	-1E+10	1	-1E+10	1	-1E+10	1	-1E+10	1	-1E+10	1
4902549	36	C	08/05/2021	20:18	-132.156	47.273	0	923.10	0	3.3740	0	34.3170	0	27.311	0	913.383	0	7.1	4	2.2	4	-1E+10	1	-1E+10	1	-1E+10	1	-1E+10	1	-1E+10	1	-1E+10	1
4902549	36	C	08/05/2021	20:18	-132.156	47.273	0	928.10	0	3.3630	0	34.3190	0	27.314	0	918.320	0	7.1	4	2.2	4	-1E+10	1	-1E+10	1	-1E+10	1	-1E+10	1	-1E+10	1	-1E+10	1
4902549	36	C	08/05/2021	20:18	-132.156	47.273	0	933.10	0	3.3550	0	34.3210	0	27.316	0	923.256	0	7.0	4	2.2	4	-1E+10	1	-1E+10	1	-1E+10	1	-1E+10	1	-1E+10	1	-1E+10	1
4902549	36	C	08/05/2021	20:18	-132.156	47.273	0	938.20	0	3.3450	0	34.3230	0	27.319	0	928.291	0	7.0	4	2.2	4	-1E+10	1	-1E+10	1	-1E+10	1	-1E+10	1	-1E+10	1	-1E+10	1
4902549	36	C	08/05/2021	20:18	-132.156	47.273	0	943.30	0	3.3360	0	34.3260	0	27.322	0	933.326	0	7.0	4	2.2	4	-1E+10	1	-1E+10	1	-1E+10	1	-1E+10	1	-1E+10	1	-1E+10	1
4902549	36	C	08/05/2021	20:18	-132.156	47.273	0	947.90	0	3.3330	0	34.3260	0	27.322	0	937.867	0	7.0	4	2.2	4	-1E+10	1	-1E+10	1	-1E+10	1	-1E+10	1	-1E+10	1	-1E+10	1
4902549	36	C	08/05/2021	20:18	-132.156	47.273	0	952.70	0	3.3220	0	34.3280	0	27.325	0	942.605	0	7.1	4	2.2	4	-1E+10	1	-1E+10	1	-1E+10	1	-1E+10	1	-1E+10	1	-1E+10	1
4902549	36	C	08/05/2021	20:18	-132.156	47.273	0	957.90	0	3.3100	0	34.3290	0	27.327	0	947.738	0	7.1	4	2.2	4	-1E+10	1	-1E+10	1	-1E+10	1	-1E+10	1	-1E+10	1	-1E+10	1
4902549	36	C	08/05/2021	20:18	-132.156	47.273	0	963.10	0	3.2900	0	34.3320	0	27.331	0	952.871	0	7.1	4	2.2	4	-1E+10	1	-1E+10	1	-1E+10	1	-1E+10	1	-1E+10	1	-1E+10	1
4902549	36	C	08/05/2021	20:18	-132.156	47.273	0	967.80	0	3.2790	0	34.3340	0	27.334	0	957.511	0	7.2	4	2.2	4	-1E+10	1	-1E+10	1	-1E+10	1	-1E+10	1	-1E+10	1	-1E+10	1
4902549	36	C	08/05/2021	20:18	-132.156	47.273	0	973.00	0	3.2640	0	34.3350	0	27.336	0	962.644	0	7.2	4	2.2	4	-1E+10	1	-1E+10	1	-1E+10	1	-1E+10	1	-1E+10	1	-1E+10	1
4902549	36	C	08/05/2021	20:18	-132.156	47.273	0	978.20	0	3.2590	0	34.3370	0	27.338	0	967.776	0	7.2	4	2.2	4	-1E+10	1	-1E+10	1	-1E+10	1	-1E+10	1	-1E+10	1	-1E+10	1
4902549	36	C	08/05/2021	20:18	-132.156	47.273	0	983.00	0	3.2440	0	34.3390	0	27.341	0	972.514	0	7.2	4	2.2	4	-1E+10	1	-1E+10	1	-1E+10	1	-1E+10	1	-1E+10	1	-1E+10	1
4902549	36	C	08/05/2021	20:18	-132.156	47.273	0	987.90	0	3.2320	0	34.3400	0	27.343	0	977.350	0	7.3	4	2.3	4	-1E+10	1	-1E+10	1	-1E+10	1	-1E+10	1	-1E+10	1	-1E+10	1
4902549	36	C	08/05/2021	20:18	-132.156	47.273	0	992.80	0	3.2240	0	34.3420	0	27.346	0	982.186	0	7.3	4	2.3	4	-1E+10	1	-1E+10	1	-1E+10	1	-1E+10	1	-1E+10	1	-1E+10	1
4902549	36	C	08/05/2021	20:18	-132.156	47.273	0	997.70	0	3.2100	0	34.3450	0	27.349	0	987.023	0	7.3	4	2.3	4	-1E+10	1	-1E+10	1	-1E+10	1	-1E+10	1	-1E+10	1	-1E+10	1
4902549	36	C	08/05/2021	20:18	-132.156	47.273	0	1005.10	0	3.1970	0	34.3470	0	27.352	0	994.326	0	7.3	4	2.3	4	-1E+10	1	-1E+10	1	-1E+10	1	-1E+10	1	-1E+10	1	-1E+10	1
4902549	36	C	08/05/2021	20:18	-132.156	47.273	0	1015.20	0	3.1860	0	34.3500	0	27.356	0	1004.293	0	7.2	4	2.2	4	-1E+10	1	-1E+10	1	-1E+10	1	-1E+10	1	-1E+10	1	-1E+10	1
4902549	36	C	08/05/2021	20:18	-132.156	47.273	0	1025.40	0	3.1690	0	34.3550	0	27.361	0	1014.359	0	7.2	4	2.2	4	-1E+10	1	-1E+10	1	-1E+10	1	-1E+10	1	-1E+10	1	-1E+10	1
4902549	36	C	08/05/2021	20:18	-132.156	47.273	0	1035.50	0	3.1430	0	34.3580	0	27.366	0	1024.326	0	7.3	4	2.3	4	-1E+10	1	-1E+10	1	-1E+10	1	-1E+10	1	-1E+10	1	-1E+10	1
4902549	36	C	08/05/2021	20:18	-132.156	47.273	0	1045.50	0	3.1270	0	34.3610	0	27.370	0	1034.193	0	7.3	4	2.3	4	-1E+10	1	-1E+10	1	-1E+10	1	-1E+10	1	-1E+10	1	-1E+10	1
4902549	36	C	08/05/2021	20:18	-132.156	47.273	0	1055.60	0	3.1100	0	34.3650	0	27.375	0	1044.159	0	7.4	4	2.3	4	-1E+10	1	-1E+10	1	-1E+10	1	-1E+10	1	-1E+10	1	-1E+10	1
4902549	36	C	08/05/2021	20:18	-132.156	47.273	0	1065.40	0	3.0910	0	34.3680	0	27.379	0	1053.828	0	7.4	4	2.3	4	-1E+10	1	-1E+10	1	-1E+10	1	-1E+10	1	-1E+10	1	-1E+10	1
4902549	36	C	08/05/2021	20:18	-132.156	47.273	0	1075.30	0	3.0780	0	34.3720	0	27.383	0	1063.595	0	7.3	4	2.2	4	-1E+10	1	-1E+10	1	-1E+10	1	-1E+10	1	-1E+10	1	-1E+10	1
4902549	36	C	08/05/2021	20:18	-132.156	47.273	0	1085.30	0	3.0690	0	34.3790	0	27.390	0	1073.461	0	7.1	4	2.2	4	-1E+10	1	-1E+10	1	-1E+10	1	-1E+10	1	-1E+10	1	-1E+10	1
4902549	36	C	08/05/2021	20:18	-132.156	47.273	0	1095.40	0	3.0640	0	34.3840	0	27.394	0	1083.425	0	7.2	4	2.2	4	-1E+10	1	-1E+10	1	-1E+10	1	-1E+10	1	-1E+10	1	-1E+10	1
4902549	36	C	08/05/2021	20:18	-132.156	47.273	0	1105.80	0	3.0470	0	34.3850	0	27.397	0	1093.684	0	7.3	4	2.3	4	-1E+10	1	-1E+10	1	-1E+10	1	-1E+10	1	-1E+10	1	-1E+10	1
4902549	36	C	08/05/2021	20:18	-132.156	47.273	0	1115.50	0	3.0210	0	34.3890	0	27.402	0	1103.252	0	7.3	4	2.3	4	-1E+10	1	-1E+10	1	-1E+10	1	-1E+10	1	-1E+10	1	-1E+10	1
4902549	36	C	08/05/2021	20:18	-132.156	47.273	0	1125.40	0	3.0140	0	34.3930	0	27.406	0	1113.017	0	7.3	4	2.3	4	-1E+10	1	-1E+10	1	-1E+10	1	-1E+10	1	-1E+10	1	-1E+10	1
4902549	36	C	08/05/2021	20:18	-132.156	47.273	0	1135.50	0	3.0020	0	34.3960	0	27.410	0	1122.979	0	7.4	4	2.3	4	-1E+10	1	-1E+10	1	-1E+10	1	-1E+10	1	-1E+10	1	-1E+10	1
4902549	36	C	08/05/2021	20:18	-132.156	47.273	0	1145.50	0	2.9820	0	34.4000	0	27.415	0	1132.842	0	7.5	4	2.3	4	-1E+10	1	-1E+10	1	-1E+10	1	-1E+10	1	-1E+10	1	-1E+10	1
4902549	36	C	08/05/2021	20:18	-132.156	47.273	0	1155.60	0	2.9670	0	34.4040	0	27.420	0	1142.803	0	7.6	4	2.3	4	-1E+10	1	-1E+10	1	-1E+10	1	-1E+10	1	-1E+10	1	-1E+10	1
4902549	36	C	08/05/2021	20:18	-132.156	47.273	0	1165.40	0	2.9530	0	34.4070	0	27.423	0	1152.467	0	7.7	4	2.4	4	-1E+10	1	-1E+10	1	-1E+10	1	-1E+10	1	-1E+10	1	-1E+10	1
4902549	36	C	08/05/2021	20:18	-132.156	47.273	0	1175.60	0	2.9220	0	34.4100	0	27.428	0	1162.526	0	7.8	4	2.4	4	-1E+10	1	-1E+10	1	-1E+10	1	-1E+10	1	-1E+10	1	-1E+10	1
4902549	36	C	08/05/2021	20:18	-132.156	47.273	0	1185.50	0	2.9090	0	34.4120	0	27.431	0	1172.288	0	7.9	4	2.4	4	-1E+10	1	-1E+10	1	-1E+10	1	-1E+10	1	-1E+10	1	-1E+10	1
4902549	36	C	08/05/2021	20:18	-132.156	47.273	0	1195.50	0	2.8930	0	34.4150	0	27.435	0	1182.149	0	8.0	4	2.5	4	-1E+10	1	-1E+10	1	-1E+10	1	-1E+10	1	-1E+10	1	-1E+10	1
4902549	36	C	08/05/2021	20:18	-132.156	47.273	0	1205.50	0	2.8760	0	34.4180	0	27.439	0	1192.009	0	8.2	4	2.5	4	-1E+10	1	-1E+10	1	-1E+10	1	-1E+10	1	-1E+10	1	-1E+10	1
4902549	36	C	08/05/2021	20:18	-132.156	47.273	0	1215.30	0	2.8580	0	34.4220	0	27.444	0	1201.671	0	8.4	4	2.6	4	-1E+10	1	-1E+10	1	-1E+10	1	-1E+10	1	-1E+10	1	-1E+10	1
4902549	36	C	08/05/2021	20:18	-132.156	47.273	0	1225.20	0	2.8350	0	34.4250	0	27.448	0	1211.432	0	8.6	4	2.6	4	-1E+10	1	-1E+10	1	-1E+10	1	-1E+10	1	-1E+10	1	-1E+10	1
4902549	36	C	08/05/2021	20:18	-132.156	47.273	0	1235.30	0	2.8210	0	34.4290	0	27.453	0	1221.389	0	8.7	4	2.7	4	-1E+10	1	-1E+10	1	-1E+10	1	-1E+10	1	-1E+10	1	-1E+10	1
4902549	36	C	08/05/2021	20:18	-132.156	47.273	0	1245.40	0	2.8070	0	34.4320	0	27.457	0	1231.346	0	8.9	4	2.7	4	-1E+10	1	-1E+10	1	-1E+10	1	-1E+10	1	-1E+10	1	-1E+10	1
4902549	36	C	08/05/2021	20:18	-132.156	47.273	0	1255.50	0	2.7930	0	34.4350	0	27.460	0	1241.302	0	9.2	4	2.8	4	-1E+10	1	-1E+10	1	-1E+10	1	-1E+10	1	-1E+10	1	-1E+10	1
4902549	36	C	08/05/2021	20:18	-132.156	47.273	0	1265.50	0	2.7840	0	34.4380	0	27.464	0	1251.159	0	9.4	4	2.9	4	-1E+10	1	-1E+10	1	-1E+10	1	-1E+10	1	-1E+10	1	-1E+10	1
4902549	36	C	08/05/2021	20:18	-132.156	47.273	0	1275.40	0	2.7750	0	34.4400	0	27.466	0	1260.917	0	9.7	4	3.0	4	-1E+10	1	-1E+10	1	-1E+10	1	-1E+10	1	-1E+10	1	-1E+10	1
4902549	36	C	08/05/2021	20:18	-132.156	47.273	0	1285.10	0	2.7620	0	34.4430	0	27.470	0	1270.478	0	10.0	4	3.1	4	-1E+10	1	-1E+10	1	-1E+10	1	-1E+10	1	-1E+10	1	-1E+10	1
4902549	36	C	08/05/2021	20:18	-132.156	47.273	0	1295.10	0	2.7390	0	34.4460	0	27.474	0	1280.334	0	10.4	4	3.2	4	-1E+10	1	-1E+10	1	-1E+10	1	-1E+10	1	-1E+10	1	-1E+10	1
4902549	36	C	08/05/2021	20:18	-132.156	47.273	0	1305.20	0	2.7170	0	34.4500	0	27.479	0	1290.288	0	10.8	4	3.3	4	-1E+10	1	-1E+10	1	-1E+10	1	-1E+10	1	-1E+10	1	-1E+10	1
4902549	36	C	08/05/2021	20:18	-132.156	47.273	0	1315.50	0	2.6980	0	34.4530	0	27.483	0	1300.438	0	10.9	4	3.4	4	-1E+10	1	-1E+10	1	-1E+10	1	-1E+10	1	-1E+10	1	-1E+10	1
4902549	36	C	08/05/2021	20:18	-132.156	47.273	0	1325.50	0	2.6840	0	34.4540	0	27.485	0	1310.293	0	11.0	4	3.4	4	-1E+10	1	-1E+10	1	-1E+10	1	-1E+10	1	-1E+10	1	-1E+10	1
4902549	36	C	08/05/2021	20:18	-132.156	47.273	0	1335.30	0	2.6630	0	34.4560	0	27.489	0	1319.949	0	11.1	4	3.4	4	-1E+10	1	-1E+10	1	-1E+10	1	-1E+10	1	-1E+10	1	-1E+10	1
4902549	36	C	08/05/2021	20:18	-132.156	47.273	0	1345.10	0	2.6440	0	34.4590	0	27.493	0	1329.606	0	11.4	4	3.5	4	-1E+10	1	-1E+10	1	-1E+10	1	-1E+10	1	-1E+10	1	-1E+10	1
4902549	36	C	08/05/2021	20:18	-132.156	47.273	0	1355.30	0	2.6290	0	34.4610	0	27.496	0	1339.656	0	11.7	4	3.6	4	-1E+10	1	-1E+10	1	-1E+10	1	-1E+10	1	-1E+10	1	-1E+10	1
4902549	36	C	08/05/2021	20:18	-132.156	47.273	0	1365.20	0	2.6150	0	34.4630	0	27.499	0	1349.410	0	12.1	4	3.7	4	-1E+10	1	-1E+10	1	-1E+10	1	-1E+10	1	-1E+10	1	-1E+10	1
4902549	36	C	08/05/2021	20:18	-132.156	47.273	0	1375.40	0	2.6020	0	34.4660	0	27.502	0	1359.459	0	12.4	4	3.8	4	-1E+10	1	-1E+10	1	-1E+10	1	-1E+10	1	-1E+10	1	-1E+10	1
4902549	36	C	08/05/2021	20:18	-132.156	47.273	0	1385.90	0	2.5890	0	34.4680	0	27.505	0	1369.803	0	12.8	4	3.9	4	-1E+10	1	-1E+10	1	-1E+10	1	-1E+10	1	-1E+10	1	-1E+10	1
4902549	36	C	08/05/2021	20:18	-132.156	47.273	0	1395.80	0	2.5660	0	34.4700	0	27.509	0	1379.556	0	13.1	4	4.0	4	-1E+10	1	-1E+10	1	-1E+10	1	-1E+10	1	-1E+10	1	-1E+10	1
4902549	36	C	08/05/2021	20:18	-132.156	47.273	0	1405.30	0	2.5490	0	34.4730	0	27.512	0	1388.914	0	13.4	4	4.1	4	-1E+10	1	-1E+10	1	-1E+10	1	-1E+10	1	-1E+10	1	-1E+10	1
4902549	36	C	08/05/2021	20:18	-132.156	47.273	0	1415.70	0	2.5420	0	34.4740	0	27.514	0	1399.159	0	13.7	4	4.2	4	-1E+10	1	-1E+10	1	-1E+10	1	-1E+10	1	-1E+10	1	-1E+10	1
4902549	36	C	08/05/2021	20:18	-132.156	47.273	0	1425.50	0	2.5310	0	34.4760	0	27.516	0	1408.811	0	14.0	4	4.3	4	-1E+10	1	-1E+10	1	-1E+10	1	-1E+10	1	-1E+10	1	-1E+10	1
4902549	36	C	08/05/2021	20:18	-132.156	47.273	0	1435.30	0	2.5210	0	34.4780	0	27.519	0	1418.464	0	14.4	4	4.4	4	-1E+10	1	-1E+10	1	-1E+10	1	-1E+10	1	-1E+10	1	-1E+10	1
4902549	36	C	08/05/2021	20:18	-132.156	47.273	0	1445.30	0	2.5100	0	34.4800	0	27.522	0	1428.313	0	14.9	4	4.6	4	-1E+10	1	-1E+10	1	-1E+10	1	-1E+10	1	-1E+10	1	-1E+10	1
4902549	36	C	08/05/2021	20:18	-132.156	47.273	0	1455.30	0	2.4870	0	34.4840	0	27.527	0	1438.161	0	15.5	4	4.7	4	-1E+10	1	-1E+10	1	-1E+10	1	-1E+10	1	-1E+10	1	-1E+10	1
4902549	36	C	08/05/2021	20:18	-132.156	47.273	0	1465.50	0	2.4750	0	34.4860	0	27.529	0	1448.206	0	15.7	4	4.8	4	-1E+10	1	-1E+10	1	-1E+10	1	-1E+10	1	-1E+10	1	-1E+10	1
4902549	36	C	08/05/2021	20:18	-132.156	47.273	0	1475.80	0	2.4700	0	34.4870	0	27.531	0	1458.349	0	16.0	4	4.9	4	-1E+10	1	-1E+10	1	-1E+10	1	-1E+10	1	-1E+10	1	-1E+10	1
4902549	36	C	08/05/2021	20:18	-132.156	47.273	0	1485.70	0	2.4580	0	34.4880	0	27.533	0	1468.097	0	16.5	4	5.0	4	-1E+10	1	-1E+10	1	-1E+10	1	-1E+10	1	-1E+10	1	-1E+10	1
4902549	36	C	08/05/2021	20:18	-132.156	47.273	0	1495.70	0	2.4430	0	34.4910	0	27.536	0	1477.944	0	16.9	4	5.1	4	-1E+10	1	-1E+10	1	-1E+10	1	-1E+10	1	-1E+10	1	-1E+10	1
4902549	36	C	08/05/2021	20:18	-132.156	47.273	0	1505.70	0	2.4320	0	34.4920	0	27.538	0	1487.790	0	17.4	4	5.3	4	-1E+10	1	-1E+10	1	-1E+10	1	-1E+10	1	-1E+10	1	-1E+10	1
4902549	36	C	08/05/2021	20:18	-132.156	47.273	0	1515.80	0	2.4210	0	34.4940	0	27.541	0	1497.734	0	18.0	4	5.5	4	-1E+10	1	-1E+10	1	-1E+10	1	-1E+10	1	-1E+10	1	-1E+10	1
4902549	36	C	08/05/2021	20:18	-132.156	47.273	0	1525.90	0	2.4070	0	34.4970	0	27.544	0	1507.678	0	18.7	4	5.7	4	-1E+10	1	-1E+10	1	-1E+10	1	-1E+10	1	-1E+10	1	-1E+10	1
4902549	36	C	08/05/2021	20:18	-132.156	47.273	0	1535.40	0	2.3970	0	34.4990	0	27.547	0	1517.030	0	19.3	4	5.9	4	-1E+10	1	-1E+10	1	-1E+10	1	-1E+10	1	-1E+10	1	-1E+10	1
4902549	36	C	08/05/2021	20:18	-132.156	47.273	0	1545.00	0	2.3890	0	34.5020	0	27.550	0	1526.481	0	20.0	4	6.1	4	-1E+10	1	-1E+10	1	-1E+10	1	-1E+10	1	-1E+10	1	-1E+10	1
4902549	36	C	08/05/2021	20:18	-132.156	47.273	0	1555.00	0	2.3850	0	34.5050	0	27.553	0	1536.325	0	20.8	4	6.3	4	-1E+10	1	-1E+10	1	-1E+10	1	-1E+10	1	-1E+10	1	-1E+10	1
4902549	36	C	08/05/2021	20:18	-132.156	47.273	0	1565.00	0	2.3780	0	34.5080	0	27.556	0	1546.168	0	21.5	4	6.5	4	-1E+10	1	-1E+10	1	-1E+10	1	-1E+10	1	-1E+10	1	-1E+10	1
4902549	36	C	08/05/2021	20:18	-132.156	47.273	0	1575.00	0	2.3700	0	34.5100	0	27.558	0	1556.011	0	22.3	4	6.8	4	-1E+10	1	-1E+10	1	-1E+10	1	-1E+10	1	-1E+10	1	-1E+10	1
4902549	36	C	08/05/2021	20:18	-132.156	47.273	0	1585.00	0	2.3660	0	34.5130	0	27.561	0	1565.853	0	22.8	4	6.9	4	-1E+10	1	-1E+10	1	-1E+10	1	-1E+10	1	-1E+10	1	-1E+10	1
4902549	36	C	08/05/2021	20:18	-132.156	47.273	0	1594.90	0	2.3460	0	34.5140	0	27.563	0	1575.597	0	23.2	4	7.1	4	-1E+10	1	-1E+10	1	-1E+10	1	-1E+10	1	-1E+10	1	-1E+10	1
4902549	36	C	08/05/2021	20:18	-132.156	47.273	0	1605.40	0	2.3380	0	34.5170	0	27.566	0	1585.931	0	24.0	4	7.3	4	-1E+10	1	-1E+10	1	-1E+10	1	-1E+10	1	-1E+10	1	-1E+10	1
4902549	36	C	08/05/2021	20:18	-132.156	47.273	0	1615.60	0	2.3250	0	34.5190	0	27.569	0	1595.969	0	24.6	4	7.5	4	-1E+10	1	-1E+10	1	-1E+10	1	-1E+10	1	-1E+10	1	-1E+10	1
4902549	36	C	08/05/2021	20:18	-132.156	47.273	0	1625.40	0	2.3130	0	34.5210	0	27.572	0	1605.612	0	25.2	4	7.7	4	-1E+10	1	-1E+10	1	-1E+10	1	-1E+10	1	-1E+10	1	-1E+10	1
4902549	36	C	08/05/2021	20:18	-132.156	47.273	0	1635.10	0	2.3020	0	34.5220	0	27.573	0	1615.157	0	25.9	4	7.9	4	-1E+10	1	-1E+10	1	-1E+10	1	-1E+10	1	-1E+10	1	-1E+10	1
4902549	36	C	08/05/2021	20:18	-132.156	47.273	0	1645.10	0	2.2910	0	34.5250	0	27.577	0	1624.997	0	26.8	4	8.1	4	-1E+10	1	-1E+10	1	-1E+10	1	-1E+10	1	-1E+10	1	-1E+10	1
4902549	36	C	08/05/2021	20:18	-132.156	47.273	0	1655.10	0	2.2780	0	34.5280	0	27.580	0	1634.836	0	27.5	4	8.3	4	-1E+10	1	-1E+10	1	-1E+10	1	-1E+10	1	-1E+10	1	-1E+10	1
4902549	36	C	08/05/2021	20:18	-132.156	47.273	0	1665.30	0	2.2670	0	34.5300	0	27.583	0	1644.872	0	27.9	4	8.5	4	-1E+10	1	-1E+10	1	-1E+10	1	-1E+10	1	-1E+10	1	-1E+10	1
4902549	36	C	08/05/2021	20:18	-132.156	47.273	0	1675.60	0	2.2510	0	34.5310	0	27.585	0	1655.005	0	28.2	4	8.6	4	-1E+10	1	-1E+10	1	-1E+10	1	-1E+10	1	-1E+10	1	-1E+10	1
4902549	36	C	08/05/2021	20:18	-132.156	47.273	0	1685.90	0	2.2420	0	34.5320	0	27.587	0	1665.138	0	28.6	4	8.7	4	-1E+10	1	-1E+10	1	-1E+10	1	-1E+10	1	-1E+10	1	-1E+10	1
4902549	36	C	08/05/2021	20:18	-132.156	47.273	0	1695.40	0	2.2180	0	34.5330	0	27.589	0	1674.484	0	28.7	4	8.7	4	-1E+10	1	-1E+10	1	-1E+10	1	-1E+10	1	-1E+10	1	-1E+10	1
4902549	36	C	08/05/2021	20:18	-132.156	47.273	0	1705.30	0	2.2000	0	34.5350	0	27.592	0	1684.222	0	29.3	4	8.9	4	-1E+10	1	-1E+10	1	-1E+10	1	-1E+10	1	-1E+10	1	-1E+10	1
4902549	36	C	08/05/2021	20:18	-132.156	47.273	0	1715.50	0	2.1960	0	34.5370	0	27.594	0	1694.256	0	30.2	4	9.1	4	-1E+10	1	-1E+10	1	-1E+10	1	-1E+10	1	-1E+10	1	-1E+10	1
4902549	36	C	08/05/2021	20:18	-132.156	47.273	0	1725.50	0	2.1880	0	34.5390	0	27.597	0	1704.092	0	30.8	4	9.3	4	-1E+10	1	-1E+10	1	-1E+10	1	-1E+10	1	-1E+10	1	-1E+10	1
4902549	36	C	08/05/2021	20:18	-132.156	47.273	0	1735.30	0	2.1830	0	34.5400	0	27.598	0	1713.730	0	31.6	4	9.6	4	-1E+10	1	-1E+10	1	-1E+10	1	-1E+10	1	-1E+10	1	-1E+10	1
4902549	36	C	08/05/2021	20:18	-132.156	47.273	0	1745.30	0	2.1710	0	34.5430	0	27.601	0	1723.566	0	32.8	4	9.9	4	-1E+10	1	-1E+10	1	-1E+10	1	-1E+10	1	-1E+10	1	-1E+10	1
4902549	36	C	08/05/2021	20:18	-132.156	47.273	0	1755.50	0	2.1610	0	34.5460	0	27.605	0	1733.597	0	33.7	4	10.2	4	-1E+10	1	-1E+10	1	-1E+10	1	-1E+10	1	-1E+10	1	-1E+10	1
4902549	36	C	08/05/2021	20:18	-132.156	47.273	0	1765.60	0	2.1510	0	34.5480	0	27.607	0	1743.529	0	34.3	4	10.4	4	-1E+10	1	-1E+10	1	-1E+10	1	-1E+10	1	-1E+10	1	-1E+10	1
4902549	36	C	08/05/2021	20:18	-132.156	47.273	0	1775.40	0	2.1420	0	34.5490	0	27.609	0	1753.166	0	34.9	4	10.6	4	-1E+10	1	-1E+10	1	-1E+10	1	-1E+10	1	-1E+10	1	-1E+10	1
4902549	36	C	08/05/2021	20:18	-132.156	47.273	0	1785.30	0	2.1350	0	34.5510	0	27.611	0	1762.901	0	35.5	4	10.7	4	-1E+10	1	-1E+10	1	-1E+10	1	-1E+10	1	-1E+10	1	-1E+10	1
4902549	36	C	08/05/2021	20:18	-132.156	47.273	0	1795.50	0	2.1220	0	34.5520	0	27.613	0	1772.931	0	35.8	4	10.8	4	-1E+10	1	-1E+10	1	-1E+10	1	-1E+10	1	-1E+10	1	-1E+10	1
4902549	36	C	08/05/2021	20:18	-132.156	47.273	0	1805.70	0	2.1130	0	34.5530	0	27.614	0	1782.960	0	36.1	4	10.9	4	-1E+10	1	-1E+10	1	-1E+10	1	-1E+10	1	-1E+10	1	-1E+10	1
4902549	36	C	08/05/2021	20:18	-132.156	47.273	0	1815.40	0	2.1040	0	34.5530	0	27.615	0	1792.497	0	36.7	4	11.1	4	-1E+10	1	-1E+10	1	-1E+10	1	-1E+10	1	-1E+10	1	-1E+10	1
4902549	36	C	08/05/2021	20:18	-132.156	47.273	0	1825.30	0	2.0910	0	34.5560	0	27.619	0	1802.230	0	37.5	4	11.3	4	-1E+10	1	-1E+10	1	-1E+10	1	-1E+10	1	-1E+10	1	-1E+10	1
4902549	36	C	08/05/2021	20:18	-132.156	47.273	0	1835.30	0	2.0830	0	34.5580	0	27.621	0	1812.061	0	38.4	4	11.6	4	-1E+10	1	-1E+10	1	-1E+10	1	-1E+10	1	-1E+10	1	-1E+10	1
4902549	36	C	08/05/2021	20:18	-132.156	47.273	0	1845.40	0	2.0750	0	34.5600	0	27.623	0	1821.990	0	38.8	4	11.7	4	-1E+10	1	-1E+10	1	-1E+10	1	-1E+10	1	-1E+10	1	-1E+10	1
4902549	36	C	08/05/2021	20:18	-132.156	47.273	0	1855.30	0	2.0680	0	34.5600	0	27.624	0	1831.722	0	39.2	4	11.8	4	-1E+10	1	-1E+10	1	-1E+10	1	-1E+10	1	-1E+10	1	-1E+10	1
4902549	36	C	08/05/2021	20:18	-132.156	47.273	0	1865.20	0	2.0620	0	34.5620	0	27.626	0	1841.453	0	39.7	4	12.0	4	-1E+10	1	-1E+10	1	-1E+10	1	-1E+10	1	-1E+10	1	-1E+10	1
4902549	36	C	08/05/2021	20:18	-132.156	47.273	0	1875.20	0	2.0570	0	34.5630	0	27.627	0	1851.282	0	40.3	4	12.2	4	-1E+10	1	-1E+10	1	-1E+10	1	-1E+10	1	-1E+10	1	-1E+10	1
4902549	36	C	08/05/2021	20:18	-132.156	47.273	0	1885.10	0	2.0510	0	34.5650	0	27.629	0	1861.013	0	41.0	4	12.4	4	-1E+10	1	-1E+10	1	-1E+10	1	-1E+10	1	-1E+10	1	-1E+10	1
4902549	36	C	08/05/2021	20:18	-132.156	47.273	0	1895.20	0	2.0450	0	34.5660	0	27.631	0	1870.939	0	41.7	4	12.6	4	-1E+10	1	-1E+10	1	-1E+10	1	-1E+10	1	-1E+10	1	-1E+10	1
4902549	36	C	08/05/2021	20:18	-132.156	47.273	0	1905.20	0	2.0400	0	34.5680	0	27.633	0	1880.767	0	42.4	4	12.8	4	-1E+10	1	-1E+10	1	-1E+10	1	-1E+10	1	-1E+10	1	-1E+10	1
4902549	36	C	08/05/2021	20:18	-132.156	47.273	0	1915.40	0	2.0320	0	34.5690	0	27.634	0	1890.791	0	43.1	4	13.0	4	-1E+10	1	-1E+10	1	-1E+10	1	-1E+10	1	-1E+10	1	-1E+10	1
4902549	36	C	08/05/2021	20:18	-132.156	47.273	0	1925.40	0	2.0240	0	34.5710	0	27.636	0	1900.618	0	43.9	4	13.2	4	-1E+10	1	-1E+10	1	-1E+10	1	-1E+10	1	-1E+10	1	-1E+10	1
4902549	36	C	08/05/2021	20:18	-132.156	47.273	0	1935.60	0	2.0170	0	34.5730	0	27.639	0	1910.641	0	44.7	4	13.5	4	-1E+10	1	-1E+10	1	-1E+10	1	-1E+10	1	-1E+10	1	-1E+10	1
4902549	36	C	08/05/2021	20:18	-132.156	47.273	0	1945.40	0	2.0070	0	34.5750	0	27.641	0	1920.270	0	45.5	4	13.7	4	-1E+10	1	-1E+10	1	-1E+10	1	-1E+10	1	-1E+10	1	-1E+10	1
4902549	36	C	08/05/2021	20:18	-132.156	47.273	0	1955.40	0	2.0020	0	34.5760	0	27.642	0	1930.096	0	46.0	4	13.9	4	-1E+10	1	-1E+10	1	-1E+10	1	-1E+10	1	-1E+10	1	-1E+10	1
4902549	36	C	08/05/2021	20:18	-132.156	47.273	0	1965.40	0	1.9940	0	34.5770	0	27.644	0	1939.921	0	46.7	4	14.1	4	-1E+10	1	-1E+10	1	-1E+10	1	-1E+10	1	-1E+10	1	-1E+10	1
4902549	36	C	08/05/2021	20:18	-132.156	47.273	0	1975.20	0	1.9860	0	34.5790	0	27.646	0	1949.549	0	47.2	4	14.2	4	-1E+10	1	-1E+10	1	-1E+10	1	-1E+10	1	-1E+10	1	-1E+10	1
4902549	36	C	08/05/2021	20:18	-132.156	47.273	0	1985.10	0	1.9800	0	34.5800	0	27.647	0	1959.275	0	47.7	4	14.4	4	-1E+10	1	-1E+10	1	-1E+10	1	-1E+10	1	-1E+10	1	-1E+10	1
4902549	36	C	08/05/2021	20:18	-132.156	47.273	0	1995.50	0	1.9760	0	34.5810	0	27.648	0	1969.492	0	48.3	4	14.5	4	-1E+10	1	-1E+10	1	-1E+10	1	-1E+10	1	-1E+10	1	-1E+10	1
4902549	36	C	08/05/2021	20:18	-132.156	47.273	0	2003.60	0	1.9700	0	34.5820	0	27.650	0	1977.448	0	48.7	4	14.7	4	-1E+10	1	-1E+10	1	-1E+10	1	-1E+10	1	-1E+10	1	-1E+10	1
4902549	36	C	08/05/2021	20:18	-132.156	47.273	0																										
4902549	37	C	08/16/2021	01:04	-132.046	47.264	0	0.30	0	17.4740	0	32.2670	0	23.307	0	0.298	0	240.0	4	99.7	4	-1E+10	1	-1E+10	1	-1E+10	1	-1E+10	1	-1E+10	1	-1E+10	1
4902549	37	C	08/16/2021	01:04	-132.046	47.264	0	1.20	0	17.4790	0	32.2410	0	23.286	0	1.190	0	240.2	4	99.8	4	-1E+10	1	-1E+10	1	-1E+10	1	-1E+10	1	-1E+10	1	-1E+10	1
4902549	37	C	08/16/2021	01:04	-132.046	47.264	0	2.10	0	17.4650	0	32.2180	0	23.272	0	2.083	0	240.3	4	99.8	4	-1E+10	1	-1E+10	1	-1E+10	1	-1E+10	1	-1E+10	1	-1E+10	1
4902549	37	C	08/16/2021	01:04	-132.046	47.264	0	3.00	0	17.4580	0	32.1850	0	23.248	0	2.975	0	240.6	4	99.9	4	-1E+10	1	-1E+10	1	-1E+10	1	-1E+10	1	-1E+10	1	-1E+10	1
4902549	37	C	08/16/2021	01:04	-132.046	47.264	0	3.70	0	17.4230	0	32.2200	0	23.283	0	3.669	0	240.8	4	99.9	4	-1E+10	1	-1E+10	1	-1E+10	1	-1E+10	1	-1E+10	1	-1E+10	1
4902549	37	C	08/16/2021	01:04	-132.046	47.264	0	4.80	0	17.3430	0	32.3100	0	23.371	0	4.760	0	241.2	4	100.0	4	-1E+10	1	-1E+10	1	-1E+10	1	-1E+10	1	-1E+10	1	-1E+10	1
4902549	37	C	08/16/2021	01:04	-132.046	47.264	0	6.00	0	17.1560	0	32.3070	0	23.413	0	5.950	0	242.3	4	100.1	4	-1E+10	1	-1E+10	1	-1E+10	1	-1E+10	1	-1E+10	1	-1E+10	1
4902549	37	C	08/16/2021	01:04	-132.046	47.264	0	7.00	0	17.0460	0	32.3060	0	23.438	0	6.942	0	243.0	4	100.2	4	-1E+10	1	-1E+10	1	-1E+10	1	-1E+10	1	-1E+10	1	-1E+10	1
4902549	37	C	08/16/2021	01:04	-132.046	47.264	0	7.90	0	16.9940	0	32.3090	0	23.453	0	7.834	0	243.5	4	100.3	4	-1E+10	1	-1E+10	1	-1E+10	1	-1E+10	1	-1E+10	1	-1E+10	1
4902549	37	C	08/16/2021	01:04	-132.046	47.264	0	9.10	0	16.9530	0	32.3050	0	23.459	0	9.024	0	243.9	4	100.3	4	-1E+10	1	-1E+10	1	-1E+10	1	-1E+10	1	-1E+10	1	-1E+10	1
4902549	37	C	08/16/2021	01:04	-132.046	47.264	0	9.80	0	16.9220	0	32.3070	0	23.468	0	9.718	0	244.3	4	100.5	4	-1E+10	1	-1E+10	1	-1E+10	1	-1E+10	1	-1E+10	1	-1E+10	1
4902549	37	C	08/16/2021	01:04	-132.046	47.264	0	10.80	0	16.9120	0	32.3040	0	23.468	0	10.710	0	244.6	4	100.6	4	-1E+10	1	-1E+10	1	-1E+10	1	-1E+10	1	-1E+10	1	-1E+10	1
4902549	37	C	08/16/2021	01:04	-132.046	47.264	0	11.90	0	16.9000	0	32.3040	0	23.471	0	11.801	0	245.0	4	100.7	4	-1E+10	1	-1E+10	1	-1E+10	1	-1E+10	1	-1E+10	1	-1E+10	1
4902549	37	C	08/16/2021	01:04	-132.046	47.264	0	12.90	0	16.8770	0	32.3030	0	23.475	0	12.792	0	245.4	4	100.8	4	-1E+10	1	-1E+10	1	-1E+10	1	-1E+10	1	-1E+10	1	-1E+10	1
4902549	37	C	08/16/2021	01:04	-132.046	47.264	0	14.00	0	16.8440	0	32.3050	0	23.485	0	13.883	0	245.8	4	100.9	4	-1E+10	1	-1E+10	1	-1E+10	1	-1E+10	1	-1E+10	1	-1E+10	1
4902549	37	C	08/16/2021	01:04	-132.046	47.264	0	15.00	0	16.7370	0	32.3090	0	23.512	0	14.875	0	246.7	4	101.1	4	-1E+10	1	-1E+10	1	-1E+10	1	-1E+10	1	-1E+10	1	-1E+10	1
4902549	37	C	08/16/2021	01:04	-132.046	47.264	0	16.00	0	16.7030	0	32.3070	0	23.519	0	15.866	0	247.4	4	101.3	4	-1E+10	1	-1E+10	1	-1E+10	1	-1E+10	1	-1E+10	1	-1E+10	1
4902549	37	C	08/16/2021	01:04	-132.046	47.264	0	16.90	0	16.7020	0	32.3040	0	23.517	0	16.759	0	247.9	4	101.5	4	-1E+10	1	-1E+10	1	-1E+10	1	-1E+10	1	-1E+10	1	-1E+10	1
4902549	37	C	08/16/2021	01:04	-132.046	47.264	0	18.00	0	16.6980	0	32.3050	0	23.518	0	17.849	0	249.0	4	102.0	4	-1E+10	1	-1E+10	1	-1E+10	1	-1E+10	1	-1E+10	1	-1E+10	1
4902549	37	C	08/16/2021	01:04	-132.046	47.264	0	19.10	0	16.6110	0	32.3050	0	23.539	0	18.940	0	251.0	4	102.6	4	-1E+10	1	-1E+10	1	-1E+10	1	-1E+10	1	-1E+10	1	-1E+10	1
4902549	37	C	08/16/2021	01:04	-132.046	47.264	0	19.80	0	16.5250	0	32.2820	0	23.541	0	19.634	0	257.4	4	105.0	4	-1E+10	1	-1E+10	1	-1E+10	1	-1E+10	1	-1E+10	1	-1E+10	1
4902549	37	C	08/16/2021	01:04	-132.046	47.264	0	21.10	0	14.8280	0	32.2940	0	23.925	0	20.923	0	269.7	4	106.5	4	-1E+10	1	-1E+10	1	-1E+10	1	-1E+10	1	-1E+10	1	-1E+10	1
4902549	37	C	08/16/2021	01:04	-132.046	47.264	0	22.10	0	13.4270	0	32.2970	0	24.216	0	21.915	0	278.0	4	106.7	4	-1E+10	1	-1E+10	1	-1E+10	1	-1E+10	1	-1E+10	1	-1E+10	1
4902549	37	C	08/16/2021	01:04	-132.046	47.264	0	23.10	0	13.2320	0	32.2980	0	24.256	0	22.906	0	279.1	4	106.7	4	-1E+10	1	-1E+10	1	-1E+10	1	-1E+10	1	-1E+10	1	-1E+10	1
4902549	37	C	08/16/2021	01:04	-132.046	47.264	0	24.10	0	13.1960	0	32.2970	0	24.262	0	23.898	0	280.2	4	107.1	4	-1E+10	1	-1E+10	1	-1E+10	1	-1E+10	1	-1E+10	1	-1E+10	1
4902549	37	C	08/16/2021	01:04	-132.046	47.264	0	24.90	0	13.1550	0	32.2950	0	24.269	0	24.691	0	279.8	4	106.8	4	-1E+10	1	-1E+10	1	-1E+10	1	-1E+10	1	-1E+10	1	-1E+10	1
4902549	37	C	08/16/2021	01:04	-132.046	47.264	0	25.70	0	13.0330	0	32.2940	0	24.292	0	25.484	0	280.2	4	106.7	4	-1E+10	1	-1E+10	1	-1E+10	1	-1E+10	1	-1E+10	1	-1E+10	1
4902549	37	C	08/16/2021	01:04	-132.046	47.264	0	26.90	0	12.7610	0	32.2910	0	24.343	0	26.674	0	281.2	4	106.4	4	-1E+10	1	-1E+10	1	-1E+10	1	-1E+10	1	-1E+10	1	-1E+10	1
4902549	37	C	08/16/2021	01:04	-132.046	47.264	0	28.00	0	12.4830	0	32.2920	0	24.397	0	27.765	0	282.1	4	106.2	4	-1E+10	1	-1E+10	1	-1E+10	1	-1E+10	1	-1E+10	1	-1E+10	1
4902549	37	C	08/16/2021	01:04	-132.046	47.264	0	28.80	0	12.2780	0	32.2940	0	24.437	0	28.558	0	283.3	4	106.2	4	-1E+10	1	-1E+10	1	-1E+10	1	-1E+10	1	-1E+10	1	-1E+10	1
4902549	37	C	08/16/2021	01:04	-132.046	47.264	0	29.90	0	12.0190	0	32.3010	0	24.491	0	29.649	0	284.4	4	106.0	4	-1E+10	1	-1E+10	1	-1E+10	1	-1E+10	1	-1E+10	1	-1E+10	1
4902549	37	C	08/16/2021	01:04	-132.046	47.264	0	31.10	0	11.9320	0	32.3030	0	24.509	0	30.839	0	284.8	4	106.0	4	-1E+10	1	-1E+10	1	-1E+10	1	-1E+10	1	-1E+10	1	-1E+10	1
4902549	37	C	08/16/2021	01:04	-132.046	47.264	0	31.90	0	11.8700	0	32.3000	0	24.518	0	31.632	0	284.9	4	105.9	4	-1E+10	1	-1E+10	1	-1E+10	1	-1E+10	1	-1E+10	1	-1E+10	1
4902549	37	C	08/16/2021	01:04	-132.046	47.264	0	33.00	0	11.8340	0	32.3020	0	24.526	0	32.723	0	284.8	4	105.8	4	-1E+10	1	-1E+10	1	-1E+10	1	-1E+10	1	-1E+10	1	-1E+10	1
4902549	37	C	08/16/2021	01:04	-132.046	47.264	0	34.10	0	11.8190	0	32.3060	0	24.532	0	33.813	0	284.3	4	105.6	4	-1E+10	1	-1E+10	1	-1E+10	1	-1E+10	1	-1E+10	1	-1E+10	1
4902549	37	C	08/16/2021	01:04	-132.046	47.264	0	34.80	0	11.8100	0	32.3020	0	24.531	0	34.507	0	284.1	4	105.5	4	-1E+10	1	-1E+10	1	-1E+10	1	-1E+10	1	-1E+10	1	-1E+10	1
4902549	37	C	08/16/2021	01:04	-132.046	47.264	0	35.80	0	11.7670	0	32.2960	0	24.534	0	35.499	0	283.9	4	105.3	4	-1E+10	1	-1E+10	1	-1E+10	1	-1E+10	1	-1E+10	1	-1E+10	1
4902549	37	C	08/16/2021	01:04	-132.046	47.264	0	36.80	0	11.5950	0	32.3150	0	24.580	0	36.490	0	283.9	4	104.9	4	-1E+10	1	-1E+10	1	-1E+10	1	-1E+10	1	-1E+10	1	-1E+10	1
4902549	37	C	08/16/2021	01:04	-132.046	47.264	0	37.80	0	11.4470	0	32.3070	0	24.601	0	37.482	0	284.3	4	104.7	4	-1E+10	1	-1E+10	1	-1E+10	1	-1E+10	1	-1E+10	1	-1E+10	1
4902549	37	C	08/16/2021	01:04	-132.046	47.264	0	38.90	0	11.2670	0	32.3060	0	24.632	0	38.573	0	284.5	4	104.4	4	-1E+10	1	-1E+10	1	-1E+10	1	-1E+10	1	-1E+10	1	-1E+10	1
4902549	37	C	08/16/2021	01:04	-132.046	47.264	0	40.00	0	11.1830	0	32.3120	0	24.652	0	39.663	0	284.1	4	104.1	4	-1E+10	1	-1E+10	1	-1E+10	1	-1E+10	1	-1E+10	1	-1E+10	1
4902549	37	C	08/16/2021	01:04	-132.046	47.264	0	41.00	0	10.9390	0	32.3180	0	24.700	0	40.655	0	284.6	4	103.7	4	-1E+10	1	-1E+10	1	-1E+10	1	-1E+10	1	-1E+10	1	-1E+10	1
4902549	37	C	08/16/2021	01:04	-132.046	47.264	0	42.10	0	10.8110	0	32.3140	0	24.719	0	41.745	0	284.1	4	103.3	4	-1E+10	1	-1E+10	1	-1E+10	1	-1E+10	1	-1E+10	1	-1E+10	1
4902549	37	C	08/16/2021	01:04	-132.046	47.264	0	42.90	0	10.6680	0	32.3160	0	24.745	0	42.538	0	283.6	4	102.8	4	-1E+10	1	-1E+10	1	-1E+10	1	-1E+10	1	-1E+10	1	-1E+10	1
4902549	37	C	08/16/2021	01:04	-132.046	47.264	0	44.10	0	10.4970	0	32.3220	0	24.779	0	43.728	0	282.4	4	102.0	4	-1E+10	1	-1E+10	1	-1E+10	1	-1E+10	1	-1E+10	1	-1E+10	1
4902549	37	C	08/16/2021	01:04	-132.046	47.264	0	44.80	0	10.3910	0	32.3220	0	24.797	0	44.422	0	281.5	4	101.4	4	-1E+10	1	-1E+10	1	-1E+10	1	-1E+10	1	-1E+10	1	-1E+10	1
4902549	37	C	08/16/2021	01:04	-132.046	47.264	0	46.00	0	10.2400	0	32.3360	0	24.834	0	45.612	0	279.8	4	100.5	4	-1E+10	1	-1E+10	1	-1E+10	1	-1E+10	1	-1E+10	1	-1E+10	1
4902549	37	C	08/16/2021	01:04	-132.046	47.264	0	47.00	0	10.1160	0	32.3570	0	24.871	0	46.603	0	278.5	4	99.8	4	-1E+10	1	-1E+10	1	-1E+10	1	-1E+10	1	-1E+10	1	-1E+10	1
4902549	37	C	08/16/2021	01:04	-132.046	47.264	0	48.10	0	9.8650	0	32.3770	0	24.928	0	47.694	0	278.8	4	99.4	4	-1E+10	1	-1E+10	1	-1E+10	1	-1E+10	1	-1E+10	1	-1E+10	1
4902549	37	C	08/16/2021	01:04	-132.046	47.264	0	49.00	0	9.7370	0	32.3780	0	24.950	0	48.586	0	278.8	4	99.1	4	-1E+10	1	-1E+10	1	-1E+10	1	-1E+10	1	-1E+10	1	-1E+10	1
4902549	37	C	08/16/2021	01:04	-132.046	47.264	0	50.10	0	9.6640	0	32.3660	0	24.952	0	49.677	0	277.8	4	98.5	4	-1E+10	1	-1E+10	1	-1E+10	1	-1E+10	1	-1E+10	1	-1E+10	1
4902549	37	C	08/16/2021	01:04	-132.046	47.264	0	51.10	0	9.5210	0	32.3600	0	24.970	0	50.668	0	277.1	4	98.0	4	-1E+10	1	-1E+10	1	-1E+10	1	-1E+10	1	-1E+10	1	-1E+10	1
4902549	37	C	08/16/2021	01:04	-132.046	47.264	0	52.00	0	9.2510	0	32.3740	0	25.024	0	51.561	0	277.3	4	97.5	4	-1E+10	1	-1E+10	1	-1E+10	1	-1E+10	1	-1E+10	1	-1E+10	1
4902549	37	C	08/16/2021	01:04	-132.046	47.264	0	53.10	0	9.0580	0	32.3790	0	25.058	0	52.651	0	277.5	4	97.1	4	-1E+10	1	-1E+10	1	-1E+10	1	-1E+10	1	-1E+10	1	-1E+10	1
4902549	37	C	08/16/2021	01:04	-132.046	47.264	0	54.00	0	9.0130	0	32.3850	0	25.070	0	53.543	0	277.2	4	97.0	4	-1E+10	1	-1E+10	1	-1E+10	1	-1E+10	1	-1E+10	1	-1E+10	1
4902549	37	C	08/16/2021	01:04	-132.046	47.264	0	55.00	0	8.9970	0	32.3870	0	25.074	0	54.535	0	276.6	4	96.7	4	-1E+10	1	-1E+10	1	-1E+10	1	-1E+10	1	-1E+10	1	-1E+10	1
4902549	37	C	08/16/2021	01:04	-132.046	47.264	0	56.10	0	9.0040	0	32.3890	0	25.075	0	55.625	0	275.8	4	96.4	4	-1E+10	1	-1E+10	1	-1E+10	1	-1E+10	1	-1E+10	1	-1E+10	1
4902549	37	C	08/16/2021	01:04	-132.046	47.264	0	56.90	0	8.9740	0	32.3990	0	25.087	0	56.419	0	275.4	4	96.2	4	-1E+10	1	-1E+10	1	-1E+10	1	-1E+10	1	-1E+10	1	-1E+10	1
4902549	37	C	08/16/2021	01:04	-132.046	47.264	0	58.10	0	8.8950	0	32.3870	0	25.090	0	57.608	0	274.8	4	95.9	4	-1E+10	1	-1E+10	1	-1E+10	1	-1E+10	1	-1E+10	1	-1E+10	1
4902549	37	C	08/16/2021	01:04	-132.046	47.264	0	59.10	0	8.8310	0	32.3890	0	25.101	0	58.600	0	274.0	4	95.4	4	-1E+10	1	-1E+10	1	-1E+10	1	-1E+10	1	-1E+10	1	-1E+10	1
4902549	37	C	08/16/2021	01:04	-132.046	47.264	0	60.00	0	8.7930	0	32.3960	0	25.113	0	59.492	0	273.4	4	95.2	4	-1E+10	1	-1E+10	1	-1E+10	1	-1E+10	1	-1E+10	1	-1E+10	1
4902549	37	C	08/16/2021	01:04	-132.046	47.264	0	60.90	0	8.7690	0	32.4090	0	25.127	0	60.384	0	272.9	4	95.0	4	-1E+10	1	-1E+10	1	-1E+10	1	-1E+10	1	-1E+10	1	-1E+10	1
4902549	37	C	08/16/2021	01:04	-132.046	47.264	0	61.80	0	8.6930	0	32.4090	0	25.138	0	61.276	0	272.9	4	94.8	4	-1E+10	1	-1E+10	1	-1E+10	1	-1E+10	1	-1E+10	1	-1E+10	1
4902549	37	C	08/16/2021	01:04	-132.046	47.264	0	63.00	0	8.5770	0	32.4060	0	25.153	0	62.466	0	273.3	4	94.7	4	-1E+10	1	-1E+10	1	-1E+10	1	-1E+10	1	-1E+10	1	-1E+10	1
4902549	37	C	08/16/2021	01:04	-132.046	47.264	0	63.70	0	8.5460	0	32.4050	0	25.157	0	63.160	0	273.0	4	94.5	4	-1E+10	1	-1E+10	1	-1E+10	1	-1E+10	1	-1E+10	1	-1E+10	1
4902549	37	C	08/16/2021	01:04	-132.046	47.264	0	65.10	0	8.3710	0	32.3990	0	25.179	0	64.548	0	273.2	4	94.2	4	-1E+10	1	-1E+10	1	-1E+10	1	-1E+10	1	-1E+10	1	-1E+10	1
4902549	37	C	08/16/2021	01:04	-132.046	47.264	0	66.10	0	8.3330	0	32.3990	0	25.184	0	65.539	0	272.8	4	94.0	4	-1E+10	1	-1E+10	1	-1E+10	1	-1E+10	1	-1E+10	1	-1E+10	1
4902549	37	C	08/16/2021	01:04	-132.046	47.264	0	66.90	0	8.2590	0	32.3990	0	25.195	0	66.332	0	272.7	4	93.8	4	-1E+10	1	-1E+10	1	-1E+10	1	-1E+10	1	-1E+10	1	-1E+10	1
4902549	37	C	08/16/2021	01:04	-132.046	47.264	0	67.70	0	8.2240	0	32.3990	0	25.200	0	67.125	0	272.3	4	93.6	4	-1E+10	1	-1E+10	1	-1E+10	1	-1E+10	1	-1E+10	1	-1E+10	1
4902549	37	C	08/16/2021	01:04	-132.046	47.264	0	68.80	0	8.1340	0	32.3980	0	25.213	0	68.216	0	272.1	4	93.3	4	-1E+10	1	-1E+10	1	-1E+10	1	-1E+10	1	-1E+10	1	-1E+10	1
4902549	37	C	08/16/2021	01:04	-132.046	47.264	0	70.00	0	8.0640	0	32.4000	0	25.224	0	69.406	0	271.7	4	93.1	4	-1E+10	1	-1E+10	1	-1E+10	1	-1E+10	1	-1E+10	1	-1E+10	1
4902549	37	C	08/16/2021	01:04	-132.046	47.264	0	70.90	0	8.0350	0	32.4030	0	25.231	0	70.298	0	271.2	4	92.8	4	-1E+10	1	-1E+10	1	-1E+10	1	-1E+10	1	-1E+10	1	-1E+10	1
4902549	37	C	08/16/2021	01:04	-132.046	47.264	0	71.80	0	8.0230	0	32.4040	0	25.234	0	71.190	0	270.7	4	92.6	4	-1E+10	1	-1E+10	1	-1E+10	1	-1E+10	1	-1E+10	1	-1E+10	1
4902549	37	C	08/16/2021	01:04	-132.046	47.264	0	73.10	0	7.9710	0	32.4060	0	25.243	0	72.479	0	270.0	4	92.3	4	-1E+10	1	-1E+10	1	-1E+10	1	-1E+10	1	-1E+10	1	-1E+10	1
4902549	37	C	08/16/2021	01:04	-132.046	47.264	0	74.10	0	7.9050	0	32.4040	0	25.251	0	73.470	0	269.6	4	92.0	4	-1E+10	1	-1E+10	1	-1E+10	1	-1E+10	1	-1E+10	1	-1E+10	1
4902549	37	C	08/16/2021	01:04	-132.046	47.264	0	75.00	0	7.9160	0	32.4130	0	25.256	0	74.362	0	268.9	4	91.8	4	-1E+10	1	-1E+10	1	-1E+10	1	-1E+10	1	-1E+10	1	-1E+10	1
4902549	37	C	08/16/2021	01:04	-132.046	47.264	0	76.10	0	7.9020	0	32.4240	0	25.267	0	75.453	0	268.7	4	91.7	4	-1E+10	1	-1E+10	1	-1E+10	1	-1E+10	1	-1E+10	1	-1E+10	1
4902549	37	C	08/16/2021	01:04	-132.046	47.264	0	76.80	0	7.8790	0	32.4290	0	25.274	0	76.147	0	268.8	4	91.7	4	-1E+10	1	-1E+10	1	-1E+10	1	-1E+10	1	-1E+10	1	-1E+10	1
4902549	37	C	08/16/2021	01:04	-132.046	47.264	0	77.80	0	7.8450	0	32.4280	0	25.278	0	77.138	0	269.1	4	91.7	4	-1E+10	1	-1E+10	1	-1E+10	1	-1E+10	1	-1E+10	1	-1E+10	1
4902549	37	C	08/16/2021	01:04	-132.046	47.264	0	79.00	0	7.7990	0	32.4310	0	25.287	0	78.327	0	269.4	4	91.7	4	-1E+10	1	-1E+10	1	-1E+10	1	-1E+10	1	-1E+10	1	-1E+10	1
4902549	37	C	08/16/2021	01:04	-132.046	47.264	0	79.70	0	7.7790	0	32.4290	0	25.288	0	79.021	0	269.7	4	91.8	4	-1E+10	1	-1E+10	1	-1E+10	1	-1E+10	1	-1E+10	1	-1E+10	1
4902549	37	C	08/16/2021	01:04	-132.046	47.264	0	80.80	0	7.7490	0	32.4270	0	25.291	0	80.112	0	269.7	4	91.7	4	-1E+10	1	-1E+10	1	-1E+10	1	-1E+10	1	-1E+10	1	-1E+10	1
4902549	37	C	08/16/2021	01:04	-132.046	47.264	0	82.00	0	7.6970	0	32.4250	0	25.297	0	81.301	0	269.8	4	91.7	4	-1E+10	1	-1E+10	1	-1E+10	1	-1E+10	1	-1E+10	1	-1E+10	1
4902549	37	C	08/16/2021	01:04	-132.046	47.264	0	82.70	0	7.6690	0	32.4220	0	25.298	0	81.995	0	269.8	4	91.6	4	-1E+10	1	-1E+10	1	-1E+10	1	-1E+10	1	-1E+10	1	-1E+10	1
4902549	37	C	08/16/2021	01:04	-132.046	47.264	0	83.80	0	7.6490	0	32.4230	0	25.302	0	83.086	0	269.6	4	91.5	4	-1E+10	1	-1E+10	1	-1E+10	1	-1E+10	1	-1E+10	1	-1E+10	1
4902549	37	C	08/16/2021	01:04	-132.046	47.264	0	85.00	0	7.6110	0	32.4240	0	25.308	0	84.275	0	269.5	4	91.4	4	-1E+10	1	-1E+10	1	-1E+10	1	-1E+10	1	-1E+10	1	-1E+10	1
4902549	37	C	08/16/2021	01:04	-132.046	47.264	0	86.00	0	7.5750	0	32.4230	0	25.312	0	85.266	0	269.3	4	91.2	4	-1E+10	1	-1E+10	1	-1E+10	1	-1E+10	1	-1E+10	1	-1E+10	1
4902549	37	C	08/16/2021	01:04	-132.046	47.264	0	87.10	0	7.5450	0	32.4250	0	25.318	0	86.357	0	269.0	4	91.1	4	-1E+10	1	-1E+10	1	-1E+10	1	-1E+10	1	-1E+10	1	-1E+10	1
4902549	37	C	08/16/2021	01:04	-132.046	47.264	0	87.80	0	7.5290	0	32.4240	0	25.319	0	87.051	0	268.9	4	91.0	4	-1E+10	1	-1E+10	1	-1E+10	1	-1E+10	1	-1E+10	1	-1E+10	1
4902549	37	C	08/16/2021	01:04	-132.046	47.264	0	88.80	0	7.5110	0	32.4230	0	25.321	0	88.042	0	268.5	4	90.8	4	-1E+10	1	-1E+10	1	-1E+10	1	-1E+10	1	-1E+10	1	-1E+10	1
4902549	37	C	08/16/2021	01:04	-132.046	47.264	0	89.90	0	7.5130	0	32.4260	0	25.323	0	89.132	0	267.9	4	90.6	4	-1E+10	1	-1E+10	1	-1E+10	1	-1E+10	1	-1E+10	1	-1E+10	1
4902549	37	C	08/16/2021	01:04	-132.046	47.264	0	90.80	0	7.5140	0	32.4280	0	25.325	0	90.024	0	267.4	4	90.5	4	-1E+10	1	-1E+10	1	-1E+10	1	-1E+10	1	-1E+10	1	-1E+10	1
4902549	37	C	08/16/2021	01:04	-132.046	47.264	0	91.80	0	7.5140	0	32.4290	0	25.325	0	91.016	0	266.8	4	90.3	4	-1E+10	1	-1E+10	1	-1E+10	1	-1E+10	1	-1E+10	1	-1E+10	1
4902549	37	C	08/16/2021	01:04	-132.046	47.264	0	92.80	0	7.5090	0	32.4300	0	25.327	0	92.007	0	266.1	4	90.0	4	-1E+10	1	-1E+10	1	-1E+10	1	-1E+10	1	-1E+10	1	-1E+10	1
4902549	37	C	08/16/2021	01:04	-132.046	47.264	0	93.90	0	7.5150	0	32.4620	0	25.351	0	93.097	0	266.1	4	90.0	4	-1E+10	1	-1E+10	1	-1E+10	1	-1E+10	1	-1E+10	1	-1E+10	1
4902549	37	C	08/16/2021	01:04	-132.046	47.264	0	94.90	0	7.4630	0	32.4600	0	25.357	0	94.088	0	266.4	4	90.1	4	-1E+10	1	-1E+10	1	-1E+10	1	-1E+10	1	-1E+10	1	-1E+10	1
4902549	37	C	08/16/2021	01:04	-132.046	47.264	0	96.00	0	7.4140	0	32.4600	0	25.364	0	95.179	0	267.1	4	90.2	4	-1E+10	1	-1E+10	1	-1E+10	1	-1E+10	1	-1E+10	1	-1E+10	1
4902549	37	C	08/16/2021	01:04	-132.046	47.264	0	97.10	0	7.3530	0	32.4470	0	25.362	0	96.269	0	267.5	4	90.2	4	-1E+10	1	-1E+10	1	-1E+10	1	-1E+10	1	-1E+10	1	-1E+10	1
4902549	37	C	08/16/2021	01:04	-132.046	47.264	0	97.90	0	7.2630	0	32.4450	0	25.373	0	97.062	0	267.4	4	90.0	4	-1E+10	1	-1E+10	1	-1E+10	1	-1E+10	1	-1E+10	1	-1E+10	1
4902549	37	C	08/16/2021	01:04	-132.046	47.264	0	99.10	0	7.1880	0	32.4430	0	25.381	0	98.251	0	267.1	4	89.7	4	-1E+10	1	-1E+10	1	-1E+10	1	-1E+10	1	-1E+10	1	-1E+10	1
4902549	37	C	08/16/2021	01:04	-132.046	47.264	0	100.00	0	7.1890	0	32.4470	0	25.384	0	99.144	0	266.2	4	89.4	4	-1E+10	1	-1E+10	1	-1E+10	1	-1E+10	1	-1E+10	1	-1E+10	1
4902549	37	C	08/16/2021	01:04	-132.046	47.264	0	101.00	0	7.1890	0	32.4490	0	25.386	0	100.135	0	265.1	4	89.1	4	-1E+10	1	-1E+10	1	-1E+10	1	-1E+10	1	-1E+10	1	-1E+10	1
4902549	37	C	08/16/2021	01:04	-132.046	47.264	0	102.10	0	7.1810	0	32.4530	0	25.390	0	101.225	0	264.1	4	88.7	4	-1E+10	1	-1E+10	1	-1E+10	1	-1E+10	1	-1E+10	1	-1E+10	1
4902549	37	C	08/16/2021	01:04	-132.046	47.264	0	103.10	0	7.1400	0	32.4570	0	25.399	0	102.216	0	263.0	4	88.3	4	-1E+10	1	-1E+10	1	-1E+10	1	-1E+10	1	-1E+10	1	-1E+10	1
4902549	37	C	08/16/2021	01:04	-132.046	47.264	0	104.20	0	7.1630	0	32.4620	0	25.400	0	103.307	0	261.8	4	87.9	4	-1E+10	1	-1E+10	1	-1E+10	1	-1E+10	1	-1E+10	1	-1E+10	1
4902549	37	C	08/16/2021	01:04	-132.046	47.264	0	105.10	0	7.1860	0	32.4720	0	25.404	0	104.199	0	260.8	4	87.6	4	-1E+10	1	-1E+10	1	-1E+10	1	-1E+10	1	-1E+10	1	-1E+10	1
4902549	37	C	08/16/2021	01:04	-132.046	47.264	0	105.80	0	7.2360	0	32.4850	0	25.408	0	104.892	0	260.1	4	87.5	4	-1E+10	1	-1E+10	1	-1E+10	1	-1E+10	1	-1E+10	1	-1E+10	1
4902549	37	C	08/16/2021	01:04	-132.046	47.264	0	106.70	0	7.1550	0	32.4870	0	25.420	0	105.784	0	259.6	4	87.2	4	-1E+10	1	-1E+10	1	-1E+10	1	-1E+10	1	-1E+10	1	-1E+10	1
4902549	37	C	08/16/2021	01:04	-132.046	47.264	0	107.80	0	7.0190	0	32.4820	0	25.435	0	106.875	0	258.9	4	86.6	4	-1E+10	1	-1E+10	1	-1E+10	1	-1E+10	1	-1E+10	1	-1E+10	1
4902549	37	C	08/16/2021	01:04	-132.046	47.264	0	108.80	0	6.9990	0	32.4820	0	25.437	0	107.866	0	257.5	4	86.1	4	-1E+10	1	-1E+10	1	-1E+10	1	-1E+10	1	-1E+10	1	-1E+10	1
4902549	37	C	08/16/2021	01:04	-132.046	47.264	0	109.80	0	7.0420	0	32.5000	0	25.446	0	108.857	0	255.6	4	85.6	4	-1E+10	1	-1E+10	1	-1E+10	1	-1E+10	1	-1E+10	1	-1E+10	1
4902549	37	C	08/16/2021	01:04	-132.046	47.264	0	110.80	0	7.0110	0	32.5060	0	25.455	0	109.848	0	253.9	4	85.0	4	-1E+10	1	-1E+10	1	-1E+10	1	-1E+10	1	-1E+10	1	-1E+10	1
4902549	37	C	08/16/2021	01:04	-132.046	47.264	0	111.80	0	7.0010	0	32.5070	0	25.457	0	110.839	0	251.8	4	84.3	4	-1E+10	1	-1E+10	1	-1E+10	1	-1E+10	1	-1E+10	1	-1E+10	1
4902549	37	C	08/16/2021	01:04	-132.046	47.264	0	112.80	0	7.0200	0	32.5120	0	25.458	0	111.830	0	249.3	4	83.4	4	-1E+10	1	-1E+10	1	-1E+10	1	-1E+10	1	-1E+10	1	-1E+10	1
4902549	37	C	08/16/2021	01:04	-132.046	47.264	0	113.90	0	7.0260	0	32.5290	0	25.471	0	112.921	0	245.5	4	82.2	4	-1E+10	1	-1E+10	1	-1E+10	1	-1E+10	1	-1E+10	1	-1E+10	1
4902549	37	C	08/16/2021	01:04	-132.046	47.264	0	115.10	0	7.0690	0	32.5560	0	25.486	0	114.110	0	241.7	4	81.0	4	-1E+10	1	-1E+10	1	-1E+10	1	-1E+10	1	-1E+10	1	-1E+10	1
4902549	37	C	08/16/2021	01:04	-132.046	47.264	0	116.00	0	7.1220	0	32.6020	0	25.515	0	115.002	0	238.5	4	80.1	4	-1E+10	1	-1E+10	1	-1E+10	1	-1E+10	1	-1E+10	1	-1E+10	1
4902549	37	C	08/16/2021	01:04	-132.046	47.264	0	116.90	0	7.1360	0	32.6540	0	25.554	0	115.894	0	235.6	4	79.2	4	-1E+10	1	-1E+10	1	-1E+10	1	-1E+10	1	-1E+10	1	-1E+10	1
4902549	37	C	08/16/2021	01:04	-132.046	47.264	0	118.10	0	7.1400	0	32.6670	0	25.564	0	117.083	0	231.9	4	77.9	4	-1E+10	1	-1E+10	1	-1E+10	1	-1E+10	1	-1E+10	1	-1E+10	1
4902549	37	C	08/16/2021	01:04	-132.046	47.264	0	118.90	0	7.2110	0	32.7350	0	25.608	0	117.876	0	229.2	4	77.2	4	-1E+10	1	-1E+10	1	-1E+10	1	-1E+10	1	-1E+10	1	-1E+10	1
4902549	37	C	08/16/2021	01:04	-132.046	47.264	0	120.00	0	7.3940	0	32.8170	0	25.647	0	118.966	0	224.3	4	75.9	4	-1E+10	1	-1E+10	1	-1E+10	1	-1E+10	1	-1E+10	1	-1E+10	1
4902549	37	C	08/16/2021	01:04	-132.046	47.264	0	121.00	0	7.4060	0	32.8800	0	25.695	0	119.958	0	219.8	4	74.4	4	-1E+10	1	-1E+10	1	-1E+10	1	-1E+10	1	-1E+10	1	-1E+10	1
4902549	37	C	08/16/2021	01:04	-132.046	47.264	0	122.10	0	7.3980	0	32.9080	0	25.719	0	121.048	0	215.9	4	73.1	4	-1E+10	1	-1E+10	1	-1E+10	1	-1E+10	1	-1E+10	1	-1E+10	1
4902549	37	C	08/16/2021	01:04	-132.046	47.264	0	123.10	0	7.4210	0	32.9750	0	25.768	0	122.039	0	212.5	4	72.0	4	-1E+10	1	-1E+10	1	-1E+10	1	-1E+10	1	-1E+10	1	-1E+10	1
4902549	37	C	08/16/2021	01:04	-132.046	47.264	0	124.00	0	7.3670	0	33.0360	0	25.824	0	122.931	0	210.1	4	71.2	4	-1E+10	1	-1E+10	1	-1E+10	1	-1E+10	1	-1E+10	1	-1E+10	1
4902549	37	C	08/16/2021	01:04	-132.046	47.264	0	125.00	0	7.2970	0	33.0610	0	25.853	0	123.922	0	208.0	4	70.4	4	-1E+10	1	-1E+10	1	-1E+10	1	-1E+10	1	-1E+10	1	-1E+10	1
4902549	37	C	08/16/2021	01:04	-132.046	47.264	0	126.00	0	7.2100	0	33.0780	0	25.878	0	124.913	0	206.2	4	69.6	4	-1E+10	1	-1E+10	1	-1E+10	1	-1E+10	1	-1E+10	1	-1E+10	1
4902549	37	C	08/16/2021	01:04	-132.046	47.264	0	126.90	0	7.2180	0	33.1010	0	25.895	0	125.805	0	204.5	4	69.1	4	-1E+10	1	-1E+10	1	-1E+10	1	-1E+10	1	-1E+10	1	-1E+10	1
4902549	37	C	08/16/2021	01:04	-132.046	47.264	0	127.80	0	7.1910	0	33.1800	0	25.961	0	126.697	0	203.2	4	68.6	4	-1E+10	1	-1E+10	1	-1E+10	1	-1E+10	1	-1E+10	1	-1E+10	1
4902549	37	C	08/16/2021	01:04	-132.046	47.264	0	128.90	0	7.1660	0	33.2060	0	25.985	0	127.787	0	202.1	4	68.2	4	-1E+10	1	-1E+10	1	-1E+10	1	-1E+10	1	-1E+10	1	-1E+10	1
4902549	37	C	08/16/2021	01:04	-132.046	47.264	0	129.90	0	7.2570	0	33.2600	0	26.015	0	128.778	0	200.3	4	67.8	4	-1E+10	1	-1E+10	1	-1E+10	1	-1E+10	1	-1E+10	1	-1E+10	1
4902549	37	C	08/16/2021	01:04	-132.046	47.264	0	131.10	0	7.3370	0	33.3000	0	26.035	0	129.967	0	198.5	4	67.3	4	-1E+10	1	-1E+10	1	-1E+10	1	-1E+10	1	-1E+10	1	-1E+10	1
4902549	37	C	08/16/2021	01:04	-132.046	47.264	0	131.90	0	7.3960	0	33.3380	0	26.057	0	130.760	0	197.7	4	67.2	4	-1E+10	1	-1E+10	1	-1E+10	1	-1E+10	1	-1E+10	1	-1E+10	1
4902549	37	C	08/16/2021	01:04	-132.046	47.264	0	132.70	0	7.4000	0	33.3520	0	26.068	0	131.553	0	196.8	4	66.9	4	-1E+10	1	-1E+10	1	-1E+10	1	-1E+10	1	-1E+10	1	-1E+10	1
4902549	37	C	08/16/2021	01:04	-132.046	47.264	0	133.60	0	7.4000	0	33.3940	0	26.101	0	132.445	0	196.2	4	66.7	4	-1E+10	1	-1E+10	1	-1E+10	1	-1E+10	1	-1E+10	1	-1E+10	1
4902549	37	C	08/16/2021	01:04	-132.046	47.264	0	134.90	0	7.5110	0	33.4570	0	26.135	0	133.733	0	195.0	4	66.5	4	-1E+10	1	-1E+10	1	-1E+10	1	-1E+10	1	-1E+10	1	-1E+10	1
4902549	37	C	08/16/2021	01:04	-132.046	47.264	0	136.30	0	7.5860	0	33.4690	0	26.133	0	135.121	0	194.1	4	66.3	4	-1E+10	1	-1E+10	1	-1E+10	1	-1E+10	1	-1E+10	1	-1E+10	1
4902549	37	C	08/16/2021	01:04	-132.046	47.264	0	137.30	0	7.5970	0	33.4930	0	26.151	0	136.112	0	193.4	4	66.1	4	-1E+10	1	-1E+10	1	-1E+10	1	-1E+10	1	-1E+10	1	-1E+10	1
4902549	37	C	08/16/2021	01:04	-132.046	47.264	0	138.20	0	7.6310	0	33.5170	0	26.165	0	137.004	0	192.7	4	65.9	4	-1E+10	1	-1E+10	1	-1E+10	1	-1E+10	1	-1E+10	1	-1E+10	1
4902549	37	C	08/16/2021	01:04	-132.046	47.264	0	139.20	0	7.6350	0	33.5230	0	26.169	0	137.995	0	192.1	4	65.7	4	-1E+10	1	-1E+10	1	-1E+10	1	-1E+10	1	-1E+10	1	-1E+10	1
4902549	37	C	08/16/2021	01:04	-132.046	47.264	0	140.10	0	7.6490	0	33.5300	0	26.172	0	138.887	0	191.6	4	65.5	4	-1E+10	1	-1E+10	1	-1E+10	1	-1E+10	1	-1E+10	1	-1E+10	1
4902549	37	C	08/16/2021	01:04	-132.046	47.264	0	141.10	0	7.6480	0	33.5410	0	26.181	0	139.878	0	191.0	4	65.3	4	-1E+10	1	-1E+10	1	-1E+10	1	-1E+10	1	-1E+10	1	-1E+10	1
4902549	37	C	08/16/2021	01:04	-132.046	47.264	0	142.10	0	7.5900	0	33.5550	0	26.201	0	140.869	0	190.6	4	65.1	4	-1E+10	1	-1E+10	1	-1E+10	1	-1E+10	1	-1E+10	1	-1E+10	1
4902549	37	C	08/16/2021	01:04	-132.046	47.264	0	143.10	0	7.5680	0	33.5630	0	26.210	0	141.860	0	190.3	4	65.0	4	-1E+10	1	-1E+10	1	-1E+10	1	-1E+10	1	-1E+10	1	-1E+10	1
4902549	37	C	08/16/2021	01:04	-132.046	47.264	0	144.10	0	7.5690	0	33.5780	0	26.222	0	142.851	0	189.8	4	64.8	4	-1E+10	1	-1E+10	1	-1E+10	1	-1E+10	1	-1E+10	1	-1E+10	1
4902549	37	C	08/16/2021	01:04	-132.046	47.264	0	145.10	0	7.5310	0	33.5900	0	26.237	0	143.842	0	189.5	4	64.7	4	-1E+10	1	-1E+10	1	-1E+10	1	-1E+10	1	-1E+10	1	-1E+10	1
4902549	37	C	08/16/2021	01:04	-132.046	47.264	0	146.20	0	7.5130	0	33.6010	0	26.248	0	144.932	0	189.2	4	64.6	4	-1E+10	1	-1E+10	1	-1E+10	1	-1E+10	1	-1E+10	1	-1E+10	1
4902549	37	C	08/16/2021	01:04	-132.046	47.264	0	147.20	0	7.5060	0	33.6120	0	26.257	0	145.923	0	188.8	4	64.4	4	-1E+10	1	-1E+10	1	-1E+10	1	-1E+10	1	-1E+10	1	-1E+10	1
4902549	37	C	08/16/2021	01:04	-132.046	47.264	0	148.20	0	7.4970	0	33.6140	0	26.260	0	146.914	0	188.4	4	64.3	4	-1E+10	1	-1E+10	1	-1E+10	1	-1E+10	1	-1E+10	1	-1E+10	1
4902549	37	C	08/16/2021	01:04	-132.046	47.264	0	149.30	0	7.4780	0	33.6340	0	26.279	0	148.004	0	188.2	4	64.2	4	-1E+10	1	-1E+10	1	-1E+10	1	-1E+10	1	-1E+10	1	-1E+10	1
4902549	37	C	08/16/2021	01:04	-132.046	47.264	0	150.30	0	7.4660	0	33.6390	0	26.284	0	148.995	0	187.8	4	64.0	4	-1E+10	1	-1E+10	1	-1E+10	1	-1E+10	1	-1E+10	1	-1E+10	1
4902549	37	C	08/16/2021	01:04	-132.046	47.264	0	151.40	0	7.4550	0	33.6440	0	26.290	0	150.085	0	187.6	4	64.0	4	-1E+10	1	-1E+10	1	-1E+10	1	-1E+10	1	-1E+10	1	-1E+10	1
4902549	37	C	08/16/2021	01:04	-132.046	47.264	0	152.40	0	7.4510	0	33.6520	0	26.297	0	151.076	0	187.2	4	63.8	4	-1E+10	1	-1E+10	1	-1E+10	1	-1E+10	1	-1E+10	1	-1E+10	1
4902549	37	C	08/16/2021	01:04	-132.046	47.264	0	153.50	0	7.4580	0	33.6630	0	26.304	0	152.166	0	186.9	4	63.7	4	-1E+10	1	-1E+10	1	-1E+10	1	-1E+10	1	-1E+10	1	-1E+10	1
4902549	37	C	08/16/2021	01:04	-132.046	47.264	0	154.50	0	7.4560	0	33.6720	0	26.312	0	153.157	0	186.5	4	63.6	4	-1E+10	1	-1E+10	1	-1E+10	1	-1E+10	1	-1E+10	1	-1E+10	1
4902549	37	C	08/16/2021	01:04	-132.046	47.264	0	155.60	0	7.4470	0	33.6800	0	26.319	0	154.247	0	186.3	4	63.5	4	-1E+10	1	-1E+10	1	-1E+10	1	-1E+10	1	-1E+10	1	-1E+10	1
4902549	37	C	08/16/2021	01:04	-132.046	47.264	0	156.60	0	7.4390	0	33.6820	0	26.322	0	155.238	0	186.0	4	63.4	4	-1E+10	1	-1E+10	1	-1E+10	1	-1E+10	1	-1E+10	1	-1E+10	1
4902549	37	C	08/16/2021	01:04	-132.046	47.264	0	157.60	0	7.4350	0	33.6840	0	26.324	0	156.228	0	185.7	4	63.3	4	-1E+10	1	-1E+10	1	-1E+10	1	-1E+10	1	-1E+10	1	-1E+10	1
4902549	37	C	08/16/2021	01:04	-132.046	47.264	0	158.60	0	7.4250	0	33.6860	0	26.327	0	157.219	0	185.4	4	63.2	4	-1E+10	1	-1E+10	1	-1E+10	1	-1E+10	1	-1E+10	1	-1E+10	1
4902549	37	C	08/16/2021	01:04	-132.046	47.264	0	159.60	0	7.4310	0	33.6890	0	26.329	0	158.210	0	185.1	4	63.1	4	-1E+10	1	-1E+10	1	-1E+10	1	-1E+10	1	-1E+10	1	-1E+10	1
4902549	37	C	08/16/2021	01:04	-132.046	47.264	0	160.60	0	7.4220	0	33.6900	0	26.331	0	159.201	0	184.7	4	62.9	4	-1E+10	1	-1E+10	1	-1E+10	1	-1E+10	1	-1E+10	1	-1E+10	1
4902549	37	C	08/16/2021	01:04	-132.046	47.264	0	161.60	0	7.3870	0	33.7000	0	26.344	0	160.192	0	184.5	4	62.8	4	-1E+10	1	-1E+10	1	-1E+10	1	-1E+10	1	-1E+10	1	-1E+10	1
4902549	37	C	08/16/2021	01:04	-132.046	47.264	0	162.70	0	7.3550	0	33.7100	0	26.356	0	161.282	0	184.3	4	62.7	4	-1E+10	1	-1E+10	1	-1E+10	1	-1E+10	1	-1E+10	1	-1E+10	1
4902549	37	C	08/16/2021	01:04	-132.046	47.264	0	163.60	0	7.3420	0	33.7130	0	26.360	0	162.174	0	184.0	4	62.6	4	-1E+10	1	-1E+10	1	-1E+10	1	-1E+10	1	-1E+10	1	-1E+10	1
4902549	37	C	08/16/2021	01:04	-132.046	47.264	0	164.60	0	7.3360	0	33.7160	0	26.363	0	163.165	0	183.7	4	62.5	4	-1E+10	1	-1E+10	1	-1E+10	1	-1E+10	1	-1E+10	1	-1E+10	1
4902549	37	C	08/16/2021	01:04	-132.046	47.264	0	165.50	0	7.3360	0	33.7170	0	26.364	0	164.057	0	183.3	4	62.4	4	-1E+10	1	-1E+10	1	-1E+10	1	-1E+10	1	-1E+10	1	-1E+10	1
4902549	37	C	08/16/2021	01:04	-132.046	47.264	0	166.90	0	7.3160	0	33.7220	0	26.371	0	165.444	0	182.8	4	62.2	4	-1E+10	1	-1E+10	1	-1E+10	1	-1E+10	1	-1E+10	1	-1E+10	1
4902549	37	C	08/16/2021	01:04	-132.046	47.264	0	168.40	0	7.2990	0	33.7260	0	26.376	0	166.930	0	182.3	4	62.0	4	-1E+10	1	-1E+10	1	-1E+10	1	-1E+10	1	-1E+10	1	-1E+10	1
4902549	37	C	08/16/2021	01:04	-132.046	47.264	0	169.30	0	7.2840	0	33.7280	0	26.380	0	167.822	0	181.9	4	61.8	4	-1E+10	1	-1E+10	1	-1E+10	1	-1E+10	1	-1E+10	1	-1E+10	1
4902549	37	C	08/16/2021	01:04	-132.046	47.264	0	170.20	0	7.2770	0	33.7300	0	26.383	0	168.714	0	181.6	4	61.7	4	-1E+10	1	-1E+10	1	-1E+10	1	-1E+10	1	-1E+10	1	-1E+10	1
4902549	37	C	08/16/2021	01:04	-132.046	47.264	0	171.10	0	7.2680	0	33.7340	0	26.387	0	169.605	0	181.1	4	61.5	4	-1E+10	1	-1E+10	1	-1E+10	1	-1E+10	1	-1E+10	1	-1E+10	1
4902549	37	C	08/16/2021	01:04	-132.046	47.264	0	172.00	0	7.2540	0	33.7390	0	26.393	0	170.497	0	180.7	4	61.4	4	-1E+10	1	-1E+10	1	-1E+10	1	-1E+10	1	-1E+10	1	-1E+10	1
4902549	37	C	08/16/2021	01:04	-132.046	47.264	0	172.90	0	7.2310	0	33.7420	0	26.398	0	171.389	0	180.4	4	61.2	4	-1E+10	1	-1E+10	1	-1E+10	1	-1E+10	1	-1E+10	1	-1E+10	1
4902549	37	C	08/16/2021	01:04	-132.046	47.264	0	173.80	0	7.2220	0	33.7440	0	26.401	0	172.281	0	179.9	4	61.0	4	-1E+10	1	-1E+10	1	-1E+10	1	-1E+10	1	-1E+10	1	-1E+10	1
4902549	37	C	08/16/2021	01:04	-132.046	47.264	0	174.60	0	7.2050	0	33.7480	0	26.407	0	173.073	0	179.4	4	60.9	4	-1E+10	1	-1E+10	1	-1E+10	1	-1E+10	1	-1E+10	1	-1E+10	1
4902549	37	C	08/16/2021	01:04	-132.046	47.264	0	175.90	0	7.1830	0	33.7490	0	26.411	0	174.361	0	178.8	4	60.6	4	-1E+10	1	-1E+10	1	-1E+10	1	-1E+10	1	-1E+10	1	-1E+10	1
4902549	37	C	08/16/2021	01:04	-132.046	47.264	0	177.20	0	7.1650	0	33.7510	0	26.415	0	175.650	0	178.1	4	60.4	4	-1E+10	1	-1E+10	1	-1E+10	1	-1E+10	1	-1E+10	1	-1E+10	1
4902549	37	C	08/16/2021	01:04	-132.046	47.264	0	178.10	0	7.1350	0	33.7590	0	26.425	0	176.541	0	177.7	4	60.2	4	-1E+10	1	-1E+10	1	-1E+10	1	-1E+10	1	-1E+10	1	-1E+10	1
4902549	37	C	08/16/2021	01:04	-132.046	47.264	0	179.00	0	7.1190	0	33.7620	0	26.430	0	177.433	0	177.2	4	60.0	4	-1E+10	1	-1E+10	1	-1E+10	1	-1E+10	1	-1E+10	1	-1E+10	1
4902549	37	C	08/16/2021	01:04	-132.046	47.264	0	179.90	0	7.0970	0	33.7630	0	26.434	0	178.325	0	176.9	4	59.9	4	-1E+10	1	-1E+10	1	-1E+10	1	-1E+10	1	-1E+10	1	-1E+10	1
4902549	37	C	08/16/2021	01:04	-132.046	47.264	0	180.70	0	7.0580	0	33.7610	0	26.437	0	179.117	0	176.6	4	59.7	4	-1E+10	1	-1E+10	1	-1E+10	1	-1E+10	1	-1E+10	1	-1E+10	1
4902549	37	C	08/16/2021	01:04	-132.046	47.264	0	181.60	0	7.0360	0	33.7630	0	26.442	0	180.009	0	176.2	4	59.6	4	-1E+10	1	-1E+10	1	-1E+10	1	-1E+10	1	-1E+10	1	-1E+10	1
4902549	37	C	08/16/2021	01:04	-132.046	47.264	0	182.90	0	7.0110	0	33.7670	0	26.449	0	181.297	0	175.8	4	59.4	4	-1E+10	1	-1E+10	1	-1E+10	1	-1E+10	1	-1E+10	1	-1E+10	1
4902549	37	C	08/16/2021	01:04	-132.046	47.264	0	184.30	0	6.9880	0	33.7680	0	26.452	0	182.684	0	175.3	4	59.2	4	-1E+10	1	-1E+10	1	-1E+10	1	-1E+10	1	-1E+10	1	-1E+10	1
4902549	37	C	08/16/2021	01:04	-132.046	47.264	0	185.10	0	6.9780	0	33.7680	0	26.454	0	183.477	0	175.0	4	59.1	4	-1E+10	1	-1E+10	1	-1E+10	1	-1E+10	1	-1E+10	1	-1E+10	1
4902549	37	C	08/16/2021	01:04	-132.046	47.264	0	186.00	0	6.9690	0	33.7680	0	26.455	0	184.369	0	174.5	4	58.9	4	-1E+10	1	-1E+10	1	-1E+10	1	-1E+10	1	-1E+10	1	-1E+10	1
4902549	37	C	08/16/2021	01:04	-132.046	47.264	0	186.90	0	6.9640	0	33.7680	0	26.456	0	185.260	0	174.2	4	58.8	4	-1E+10	1	-1E+10	1	-1E+10	1	-1E+10	1	-1E+10	1	-1E+10	1
4902549	37	C	08/16/2021	01:04	-132.046	47.264	0	187.80	0	6.9640	0	33.7680	0	26.456	0	186.152	0	173.7	4	58.6	4	-1E+10	1	-1E+10	1	-1E+10	1	-1E+10	1	-1E+10	1	-1E+10	1
4902549	37	C	08/16/2021	01:04	-132.046	47.264	0	188.70	0	6.9570	0	33.7680	0	26.457	0	187.044	0	173.3	4	58.5	4	-1E+10	1	-1E+10	1	-1E+10	1	-1E+10	1	-1E+10	1	-1E+10	1
4902549	37	C	08/16/2021	01:04	-132.046	47.264	0	189.60	0	6.9160	0	33.7680	0	26.462	0	187.935	0	172.9	4	58.3	4	-1E+10	1	-1E+10	1	-1E+10	1	-1E+10	1	-1E+10	1	-1E+10	1
4902549	37	C	08/16/2021	01:04	-132.046	47.264	0	190.90	0	6.9040	0	33.7720	0	26.467	0	189.223	0	172.3	4	58.1	4	-1E+10	1	-1E+10	1	-1E+10	1	-1E+10	1	-1E+10	1	-1E+10	1
4902549	37	C	08/16/2021	01:04	-132.046	47.264	0	192.30	0	6.8960	0	33.7740	0	26.470	0	190.610	0	171.6	4	57.8	4	-1E+10	1	-1E+10	1	-1E+10	1	-1E+10	1	-1E+10	1	-1E+10	1
4902549	37	C	08/16/2021	01:04	-132.046	47.264	0	193.30	0	6.8880	0	33.7750	0	26.472	0	191.601	0	171.1	4	57.7	4	-1E+10	1	-1E+10	1	-1E+10	1	-1E+10	1	-1E+10	1	-1E+10	1
4902549	37	C	08/16/2021	01:04	-132.046	47.264	0	194.20	0	6.8320	0	33.7760	0	26.480	0	192.493	0	171.0	4	57.5	4	-1E+10	1	-1E+10	1	-1E+10	1	-1E+10	1	-1E+10	1	-1E+10	1
4902549	37	C	08/16/2021	01:04	-132.046	47.264	0	195.10	0	6.8220	0	33.7770	0	26.482	0	193.385	0	170.6	4	57.4	4	-1E+10	1	-1E+10	1	-1E+10	1	-1E+10	1	-1E+10	1	-1E+10	1
4902549	37	C	08/16/2021	01:04	-132.046	47.264	0	196.10	0	6.8190	0	33.7760	0	26.482	0	194.375	0	170.1	4	57.2	4	-1E+10	1	-1E+10	1	-1E+10	1	-1E+10	1	-1E+10	1	-1E+10	1
4902549	37	C	08/16/2021	01:04	-132.046	47.264	0	197.00	0	6.8100	0	33.7770	0	26.484	0	195.267	0	169.8	4	57.1	4	-1E+10	1	-1E+10	1	-1E+10	1	-1E+10	1	-1E+10	1	-1E+10	1
4902549	37	C	08/16/2021	01:04	-132.046	47.264	0	198.00	0	6.7970	0	33.7790	0	26.487	0	196.258	0	169.3	4	56.9	4	-1E+10	1	-1E+10	1	-1E+10	1	-1E+10	1	-1E+10	1	-1E+10	1
4902549	37	C	08/16/2021	01:04	-132.046	47.264	0	199.00	0	6.7830	0	33.7780	0	26.488	0	197.248	0	168.9	4	56.7	4	-1E+10	1	-1E+10	1	-1E+10	1	-1E+10	1	-1E+10	1	-1E+10	1
4902549	37	C	08/16/2021	01:04	-132.046	47.264	0	199.90	0	6.7780	0	33.7790	0	26.490	0	198.140	0	168.4	4	56.6	4	-1E+10	1	-1E+10	1	-1E+10	1	-1E+10	1	-1E+10	1	-1E+10	1
4902549	37	C	08/16/2021	01:04	-132.046	47.264	0	200.90	0	6.7740	0	33.7790	0	26.490	0	199.131	0	167.9	4	56.4	4	-1E+10	1	-1E+10	1	-1E+10	1	-1E+10	1	-1E+10	1	-1E+10	1
4902549	37	C	08/16/2021	01:04	-132.046	47.264	0	201.90	0	6.7650	0	33.7790	0	26.491	0	200.121	0	167.4	4	56.2	4	-1E+10	1	-1E+10	1	-1E+10	1	-1E+10	1	-1E+10	1	-1E+10	1
4902549	37	C	08/16/2021	01:04	-132.046	47.264	0	202.80	0	6.7550	0	33.7790	0	26.493	0	201.013	0	166.8	4	56.0	4	-1E+10	1	-1E+10	1	-1E+10	1	-1E+10	1	-1E+10	1	-1E+10	1
4902549	37	C	08/16/2021	01:04	-132.046	47.264	0	203.80	0	6.7460	0	33.7780	0	26.493	0	202.004	0	166.2	4	55.8	4	-1E+10	1	-1E+10	1	-1E+10	1	-1E+10	1	-1E+10	1	-1E+10	1
4902549	37	C	08/16/2021	01:04	-132.046	47.264	0	204.80	0	6.7370	0	33.7780	0	26.494	0	202.994	0	165.5	4	55.6	4	-1E+10	1	-1E+10	1	-1E+10	1	-1E+10	1	-1E+10	1	-1E+10	1
4902549	37	C	08/16/2021	01:04	-132.046	47.264	0	205.70	0	6.7170	0	33.7800	0	26.499	0	203.886	0	164.9	4	55.3	4	-1E+10	1	-1E+10	1	-1E+10	1	-1E+10	1	-1E+10	1	-1E+10	1
4902549	37	C	08/16/2021	01:04	-132.046	47.264	0	206.70	0	6.7080	0	33.7810	0	26.501	0	204.877	0	164.1	4	55.1	4	-1E+10	1	-1E+10	1	-1E+10	1	-1E+10	1	-1E+10	1	-1E+10	1
4902549	37	C	08/16/2021	01:04	-132.046	47.264	0	207.70	0	6.6960	0	33.7820	0	26.503	0	205.867	0	163.3	4	54.8	4	-1E+10	1	-1E+10	1	-1E+10	1	-1E+10	1	-1E+10	1	-1E+10	1
4902549	37	C	08/16/2021	01:04	-132.046	47.264	0	208.60	0	6.6620	0	33.7840	0	26.509	0	206.759	0	162.5	4	54.5	4	-1E+10	1	-1E+10	1	-1E+10	1	-1E+10	1	-1E+10	1	-1E+10	1
4902549	37	C	08/16/2021	01:04	-132.046	47.264	0	209.60	0	6.6310	0	33.7800	0	26.510	0	207.750	0	161.9	4	54.2	4	-1E+10	1	-1E+10	1	-1E+10	1	-1E+10	1	-1E+10	1	-1E+10	1
4902549	37	C	08/16/2021	01:04	-132.046	47.264	0	210.60	0	6.6180	0	33.7800	0	26.512	0	208.740	0	161.0	4	53.9	4	-1E+10	1	-1E+10	1	-1E+10	1	-1E+10	1	-1E+10	1	-1E+10	1
4902549	37	C	08/16/2021	01:04	-132.046	47.264	0	211.50	0	6.5850	0	33.7800	0	26.516	0	209.632	0	160.2	4	53.6	4	-1E+10	1	-1E+10	1	-1E+10	1	-1E+10	1	-1E+10	1	-1E+10	1
4902549	37	C	08/16/2021	01:04	-132.046	47.264	0	212.50	0	6.5640	0	33.7810	0	26.520	0	210.623	0	159.5	4	53.3	4	-1E+10	1	-1E+10	1	-1E+10	1	-1E+10	1	-1E+10	1	-1E+10	1
4902549	37	C	08/16/2021	01:04	-132.046	47.264	0	213.90	0	6.5370	0	33.7820	0	26.524	0	212.010	0	158.4	4	52.9	4	-1E+10	1	-1E+10	1	-1E+10	1	-1E+10	1	-1E+10	1	-1E+10	1
4902549	37	C	08/16/2021	01:04	-132.046	47.264	0	215.40	0	6.4960	0	33.7880	0	26.534	0	213.496	0	157.4	4	52.6	4	-1E+10	1	-1E+10	1	-1E+10	1	-1E+10	1	-1E+10	1	-1E+10	1
4902549	37	C	08/16/2021	01:04	-132.046	47.264	0	216.40	0	6.4640	0	33.7860	0	26.537	0	214.486	0	157.0	4	52.4	4	-1E+10	1	-1E+10	1	-1E+10	1	-1E+10	1	-1E+10	1	-1E+10	1
4902549	37	C	08/16/2021	01:04	-132.046	47.264	0	217.30	0	6.4240	0	33.7840	0	26.540	0	215.378	0	156.4	4	52.1	4	-1E+10	1	-1E+10	1	-1E+10	1	-1E+10	1	-1E+10	1	-1E+10	1
4902549	37	C	08/16/2021	01:04	-132.046	47.264	0	218.30	0	6.3890	0	33.7810	0	26.543	0	216.368	0	155.9	4	51.9	4	-1E+10	1	-1E+10	1	-1E+10	1	-1E+10	1	-1E+10	1	-1E+10	1
4902549	37	C	08/16/2021	01:04	-132.046	47.264	0	219.30	0	6.3820	0	33.7810	0	26.543	0	217.359	0	155.2	4	51.7	4	-1E+10	1	-1E+10	1	-1E+10	1	-1E+10	1	-1E+10	1	-1E+10	1
4902549	37	C	08/16/2021	01:04	-132.046	47.264	0	220.20	0	6.3740	0	33.7850	0	26.548	0	218.251	0	154.6	4	51.5	4	-1E+10	1	-1E+10	1	-1E+10	1	-1E+10	1	-1E+10	1	-1E+10	1
4902549	37	C	08/16/2021	01:04	-132.046	47.264	0	221.20	0	6.3720	0	33.7800	0	26.544	0	219.241	0	154.0	4	51.3	4	-1E+10	1	-1E+10	1	-1E+10	1	-1E+10	1	-1E+10	1	-1E+10	1
4902549	37	C	08/16/2021	01:04	-132.046	47.264	0	222.20	0	6.3580	0	33.7880	0	26.552	0	220.232	0	153.2	4	51.0	4	-1E+10	1	-1E+10	1	-1E+10	1	-1E+10	1	-1E+10	1	-1E+10	1
4902549	37	C	08/16/2021	01:04	-132.046	47.264	0	223.20	0	6.3300	0	33.7870	0	26.555	0	221.222	0	152.6	4	50.8	4	-1E+10	1	-1E+10	1	-1E+10	1	-1E+10	1	-1E+10	1	-1E+10	1
4902549	37	C	08/16/2021	01:04	-132.046	47.264	0	224.10	0	6.3090	0	33.7820	0	26.554	0	222.114	0	151.9	4	50.5	4	-1E+10	1	-1E+10	1	-1E+10	1	-1E+10	1	-1E+10	1	-1E+10	1
4902549	37	C	08/16/2021	01:04	-132.046	47.264	0	225.10	0	6.2490	0	33.7800	0	26.560	0	223.105	0	151.3	4	50.2	4	-1E+10	1	-1E+10	1	-1E+10	1	-1E+10	1	-1E+10	1	-1E+10	1
4902549	37	C	08/16/2021	01:04	-132.046	47.264	0	226.10	0	6.2520	0	33.7790	0	26.559	0	224.095	0	150.4	4	49.9	4	-1E+10	1	-1E+10	1	-1E+10	1	-1E+10	1	-1E+10	1	-1E+10	1
4902549	37	C	08/16/2021	01:04	-132.046	47.264	0	227.10	0	6.2470	0	33.7890	0	26.567	0	225.086	0	149.8	4	49.7	4	-1E+10	1	-1E+10	1	-1E+10	1	-1E+10	1	-1E+10	1	-1E+10	1
4902549	37	C	08/16/2021	01:04	-132.046	47.264	0	228.20	0	6.2450	0	33.7900	0	26.568	0	226.175	0	149.2	4	49.5	4	-1E+10	1	-1E+10	1	-1E+10	1	-1E+10	1	-1E+10	1	-1E+10	1
4902549	37	C	08/16/2021	01:04	-132.046	47.264	0	229.20	0	6.2020	0	33.7900	0	26.574	0	227.166	0	148.9	4	49.4	4	-1E+10	1	-1E+10	1	-1E+10	1	-1E+10	1	-1E+10	1	-1E+10	1
4902549	37	C	08/16/2021	01:04	-132.046	47.264	0	230.20	0	6.1780	0	33.7880	0	26.575	0	228.157	0	148.4	4	49.2	4	-1E+10	1	-1E+10	1	-1E+10	1	-1E+10	1	-1E+10	1	-1E+10	1
4902549	37	C	08/16/2021	01:04	-132.046	47.264	0	231.20	0	6.1380	0	33.7870	0	26.579	0	229.147	0	148.0	4	49.0	4	-1E+10	1	-1E+10	1	-1E+10	1	-1E+10	1	-1E+10	1	-1E+10	1
4902549	37	C	08/16/2021	01:04	-132.046	47.264	0	232.20	0	6.1840	0	33.7940	0	26.579	0	230.138	0	147.4	4	48.9	4	-1E+10	1	-1E+10	1	-1E+10	1	-1E+10	1	-1E+10	1	-1E+10	1
4902549	37	C	08/16/2021	01:04	-132.046	47.264	0	233.30	0	6.1470	0	33.8010	0	26.589	0	231.227	0	146.9	4	48.7	4	-1E+10	1	-1E+10	1	-1E+10	1	-1E+10	1	-1E+10	1	-1E+10	1
4902549	37	C	08/16/2021	01:04	-132.046	47.264	0	234.30	0	6.1270	0	33.7900	0	26.583	0	232.218	0	146.6	4	48.5	4	-1E+10	1	-1E+10	1	-1E+10	1	-1E+10	1	-1E+10	1	-1E+10	1
4902549	37	C	08/16/2021	01:04	-132.046	47.264	0	235.40	0	6.1140	0	33.7890	0	26.584	0	233.307	0	146.1	4	48.4	4	-1E+10	1	-1E+10	1	-1E+10	1	-1E+10	1	-1E+10	1	-1E+10	1
4902549	37	C	08/16/2021	01:04	-132.046	47.264	0	236.40	0	6.1080	0	33.7890	0	26.585	0	234.298	0	145.6	4	48.2	4	-1E+10	1	-1E+10	1	-1E+10	1	-1E+10	1	-1E+10	1	-1E+10	1
4902549	37	C	08/16/2021	01:04	-132.046	47.264	0	237.40	0	6.1040	0	33.7890	0	26.585	0	235.289	0	145.1	4	48.0	4	-1E+10	1	-1E+10	1	-1E+10	1	-1E+10	1	-1E+10	1	-1E+10	1
4902549	37	C	08/16/2021	01:04	-132.046	47.264	0	238.40	0	6.1010	0	33.7890	0	26.586	0	236.279	0	144.5	4	47.8	4	-1E+10	1	-1E+10	1	-1E+10	1	-1E+10	1	-1E+10	1	-1E+10	1
4902549	37	C	08/16/2021	01:04	-132.046	47.264	0	239.90	0	6.0910	0	33.7900	0	26.588	0	237.765	0	143.3	4	47.4	4	-1E+10	1	-1E+10	1	-1E+10	1	-1E+10	1	-1E+10	1	-1E+10	1
4902549	37	C	08/16/2021	01:04	-132.046	47.264	0	241.10	0	6.0810	0	33.7890	0	26.588	0	238.954	0	142.5	4	47.1	4	-1E+10	1	-1E+10	1	-1E+10	1	-1E+10	1	-1E+10	1	-1E+10	1
4902549	37	C	08/16/2021	01:04	-132.046	47.264	0	241.80	0	6.0930	0	33.7950	0	26.592	0	239.647	0	141.8	4	46.9	4	-1E+10	1	-1E+10	1	-1E+10	1	-1E+10	1	-1E+10	1	-1E+10	1
4902549	37	C	08/16/2021	01:04	-132.046	47.264	0	242.70	0	6.0820	0	33.7950	0	26.593	0	240.538	0	141.2	4	46.7	4	-1E+10	1	-1E+10	1	-1E+10	1	-1E+10	1	-1E+10	1	-1E+10	1
4902549	37	C	08/16/2021	01:04	-132.046	47.264	0	243.90	0	6.0930	0	33.8010	0	26.596	0	241.727	0	140.3	4	46.4	4	-1E+10	1	-1E+10	1	-1E+10	1	-1E+10	1	-1E+10	1	-1E+10	1
4902549	37	C	08/16/2021	01:04	-132.046	47.264	0	245.10	0	6.1030	0	33.8060	0	26.599	0	242.916	0	139.4	4	46.1	4	-1E+10	1	-1E+10	1	-1E+10	1	-1E+10	1	-1E+10	1	-1E+10	1
4902549	37	C	08/16/2021	01:04	-132.046	47.264	0	245.90	0	6.0760	0	33.8050	0	26.602	0	243.708	0	138.9	4	45.9	4	-1E+10	1	-1E+10	1	-1E+10	1	-1E+10	1	-1E+10	1	-1E+10	1
4902549	37	C	08/16/2021	01:04	-132.046	47.264	0	246.80	0	6.0320	0	33.8040	0	26.606	0	244.599	0	138.4	4	45.7	4	-1E+10	1	-1E+10	1	-1E+10	1	-1E+10	1	-1E+10	1	-1E+10	1
4902549	37	C	08/16/2021	01:04	-132.046	47.264	0	248.00	0	6.0440	0	33.8100	0	26.610	0	245.788	0	137.7	4	45.5	4	-1E+10	1	-1E+10	1	-1E+10	1	-1E+10	1	-1E+10	1	-1E+10	1
4902549	37	C	08/16/2021	01:04	-132.046	47.264	0	249.30	0	6.0320	0	33.8140	0	26.614	0	247.076	0	137.0	4	45.3	4	-1E+10	1	-1E+10	1	-1E+10	1	-1E+10	1	-1E+10	1	-1E+10	1
4902549	37	C	08/16/2021	01:04	-132.046	47.264	0	250.10	0	6.0370	0	33.8160	0	26.615	0	247.868	0	136.6	4	45.1	4	-1E+10	1	-1E+10	1	-1E+10	1	-1E+10	1	-1E+10	1	-1E+10	1
4902549	37	C	08/16/2021	01:04	-132.046	47.264	0	250.90	0	6.0390	0	33.8170	0	26.616	0	248.660	0	136.1	4	45.0	4	-1E+10	1	-1E+10	1	-1E+10	1	-1E+10	1	-1E+10	1	-1E+10	1
4902549	37	C	08/16/2021	01:04	-132.046	47.264	0	251.80	0	6.0420	0	33.8210	0	26.619	0	249.552	0	135.8	4	44.9	4	-1E+10	1	-1E+10	1	-1E+10	1	-1E+10	1	-1E+10	1	-1E+10	1
4902549	37	C	08/16/2021	01:04	-132.046	47.264	0	252.60	0	6.0430	0	33.8220	0	26.619	0	250.344	0	135.3	4	44.7	4	-1E+10	1	-1E+10	1	-1E+10	1	-1E+10	1	-1E+10	1	-1E+10	1
4902549	37	C	08/16/2021	01:04	-132.046	47.264	0	253.90	0	6.0430	0	33.8230	0	26.620	0	251.632	0	134.6	4	44.5	4	-1E+10	1	-1E+10	1	-1E+10	1	-1E+10	1	-1E+10	1	-1E+10	1
4902549	37	C	08/16/2021	01:04	-132.046	47.264	0	255.20	0	6.0220	0	33.8290	0	26.627	0	252.919	0	133.9	4	44.2	4	-1E+10	1	-1E+10	1	-1E+10	1	-1E+10	1	-1E+10	1	-1E+10	1
4902549	37	C	08/16/2021	01:04	-132.046	47.264	0	256.00	0	6.0250	0	33.8280	0	26.626	0	253.712	0	133.6	4	44.1	4	-1E+10	1	-1E+10	1	-1E+10	1	-1E+10	1	-1E+10	1	-1E+10	1
4902549	37	C	08/16/2021	01:04	-132.046	47.264	0	256.90	0	6.0270	0	33.8290	0	26.627	0	254.603	0	133.2	4	44.0	4	-1E+10	1	-1E+10	1	-1E+10	1	-1E+10	1	-1E+10	1	-1E+10	1
4902549	37	C	08/16/2021	01:04	-132.046	47.264	0	257.70	0	6.0300	0	33.8310	0	26.628	0	255.395	0	132.6	4	43.8	4	-1E+10	1	-1E+10	1	-1E+10	1	-1E+10	1	-1E+10	1	-1E+10	1
4902549	37	C	08/16/2021	01:04	-132.046	47.264	0	259.00	0	6.0150	0	33.8310	0	26.630	0	256.683	0	132.0	4	43.6	4	-1E+10	1	-1E+10	1	-1E+10	1	-1E+10	1	-1E+10	1	-1E+10	1
4902549	37	C	08/16/2021	01:04	-132.046	47.264	0	260.30	0	6.0000	0	33.8330	0	26.633	0	257.971	0	131.5	4	43.4	4	-1E+10	1	-1E+10	1	-1E+10	1	-1E+10	1	-1E+10	1	-1E+10	1
4902549	37	C	08/16/2021	01:04	-132.046	47.264	0	261.10	0	5.9840	0	33.8340	0	26.636	0	258.763	0	131.1	4	43.3	4	-1E+10	1	-1E+10	1	-1E+10	1	-1E+10	1	-1E+10	1	-1E+10	1
4902549	37	C	08/16/2021	01:04	-132.046	47.264	0	262.00	0	5.9840	0	33.8340	0	26.636	0	259.654	0	130.7	4	43.1	4	-1E+10	1	-1E+10	1	-1E+10	1	-1E+10	1	-1E+10	1	-1E+10	1
4902549	37	C	08/16/2021	01:04	-132.046	47.264	0	262.80	0	5.9910	0	33.8380	0	26.639	0	260.447	0	130.3	4	43.0	4	-1E+10	1	-1E+10	1	-1E+10	1	-1E+10	1	-1E+10	1	-1E+10	1
4902549	37	C	08/16/2021	01:04	-132.046	47.264	0	263.70	0	5.9830	0	33.8380	0	26.640	0	261.338	0	129.9	4	42.9	4	-1E+10	1	-1E+10	1	-1E+10	1	-1E+10	1	-1E+10	1	-1E+10	1
4902549	37	C	08/16/2021	01:04	-132.046	47.264	0	265.00	0	5.9720	0	33.8380	0	26.641	0	262.626	0	129.4	4	42.7	4	-1E+10	1	-1E+10	1	-1E+10	1	-1E+10	1	-1E+10	1	-1E+10	1
4902549	37	C	08/16/2021	01:04	-132.046	47.264	0	266.20	0	5.9630	0	33.8370	0	26.641	0	263.814	0	128.7	4	42.5	4	-1E+10	1	-1E+10	1	-1E+10	1	-1E+10	1	-1E+10	1	-1E+10	1
4902549	37	C	08/16/2021	01:04	-132.046	47.264	0	267.10	0	5.9580	0	33.8370	0	26.642	0	264.705	0	128.2	4	42.3	4	-1E+10	1	-1E+10	1	-1E+10	1	-1E+10	1	-1E+10	1	-1E+10	1
4902549	37	C	08/16/2021	01:04	-132.046	47.264	0	267.90	0	5.9430	0	33.8360	0	26.643	0	265.498	0	127.8	4	42.1	4	-1E+10	1	-1E+10	1	-1E+10	1	-1E+10	1	-1E+10	1	-1E+10	1
4902549	37	C	08/16/2021	01:04	-132.046	47.264	0	268.70	0	5.9120	0	33.8340	0	26.645	0	266.290	0	127.3	4	41.9	4	-1E+10	1	-1E+10	1	-1E+10	1	-1E+10	1	-1E+10	1	-1E+10	1
4902549	37	C	08/16/2021	01:04	-132.046	47.264	0	270.00	0	5.8720	0	33.8320	0	26.649	0	267.578	0	126.6	4	41.7	4	-1E+10	1	-1E+10	1	-1E+10	1	-1E+10	1	-1E+10	1	-1E+10	1
4902549	37	C	08/16/2021	01:04	-132.046	47.264	0	271.20	0	5.8280	0	33.8300	0	26.652	0	268.766	0	126.0	4	41.4	4	-1E+10	1	-1E+10	1	-1E+10	1	-1E+10	1	-1E+10	1	-1E+10	1
4902549	37	C	08/16/2021	01:04	-132.046	47.264	0	272.00	0	5.8070	0	33.8310	0	26.656	0	269.558	0	125.6	4	41.3	4	-1E+10	1	-1E+10	1	-1E+10	1	-1E+10	1	-1E+10	1	-1E+10	1
4902549	37	C	08/16/2021	01:04	-132.046	47.264	0	272.90	0	5.7910	0	33.8290	0	26.656	0	270.450	0	125.2	4	41.1	4	-1E+10	1	-1E+10	1	-1E+10	1	-1E+10	1	-1E+10	1	-1E+10	1
4902549	37	C	08/16/2021	01:04	-132.046	47.264	0	273.70	0	5.7840	0	33.8290	0	26.657	0	271.242	0	124.7	4	41.0	4	-1E+10	1	-1E+10	1	-1E+10	1	-1E+10	1	-1E+10	1	-1E+10	1
4902549	37	C	08/16/2021	01:04	-132.046	47.264	0	274.90	0	5.7600	0	33.8310	0	26.662	0	272.430	0	124.0	4	40.7	4	-1E+10	1	-1E+10	1	-1E+10	1	-1E+10	1	-1E+10	1	-1E+10	1
4902549	37	C	08/16/2021	01:04	-132.046	47.264	0	276.20	0	5.7450	0	33.8300	0	26.663	0	273.718	0	123.2	4	40.5	4	-1E+10	1	-1E+10	1	-1E+10	1	-1E+10	1	-1E+10	1	-1E+10	1
4902549	37	C	08/16/2021	01:04	-132.046	47.264	0	277.00	0	5.7370	0	33.8300	0	26.664	0	274.510	0	122.8	4	40.3	4	-1E+10	1	-1E+10	1	-1E+10	1	-1E+10	1	-1E+10	1	-1E+10	1
4902549	37	C	08/16/2021	01:04	-132.046	47.264	0	277.90	0	5.7130	0	33.8300	0	26.667	0	275.401	0	122.3	4	40.1	4	-1E+10	1	-1E+10	1	-1E+10	1	-1E+10	1	-1E+10	1	-1E+10	1
4902549	37	C	08/16/2021	01:04	-132.046	47.264	0	278.70	0	5.6930	0	33.8300	0	26.669	0	276.194	0	121.8	4	39.9	4	-1E+10	1	-1E+10	1	-1E+10	1	-1E+10	1	-1E+10	1	-1E+10	1
4902549	37	C	08/16/2021	01:04	-132.046	47.264	0	280.00	0	5.6580	0	33.8280	0	26.672	0	277.481	0	121.2	4	39.7	4	-1E+10	1	-1E+10	1	-1E+10	1	-1E+10	1	-1E+10	1	-1E+10	1
4902549	37	C	08/16/2021	01:04	-132.046	47.264	0	281.30	0	5.6410	0	33.8280	0	26.674	0	278.769	0	120.5	4	39.5	4	-1E+10	1	-1E+10	1	-1E+10	1	-1E+10	1	-1E+10	1	-1E+10	1
4902549	37	C	08/16/2021	01:04	-132.046	47.264	0	282.10	0	5.6440	0	33.8320	0	26.677	0	279.561	0	120.0	4	39.3	4	-1E+10	1	-1E+10	1	-1E+10	1	-1E+10	1	-1E+10	1	-1E+10	1
4902549	37	C	08/16/2021	01:04	-132.046	47.264	0	283.00	0	5.6450	0	33.8300	0	26.675	0	280.452	0	119.5	4	39.1	4	-1E+10	1	-1E+10	1	-1E+10	1	-1E+10	1	-1E+10	1	-1E+10	1
4902549	37	C	08/16/2021	01:04	-132.046	47.264	0	283.80	0	5.6260	0	33.8310	0	26.678	0	281.244	0	119.1	4	39.0	4	-1E+10	1	-1E+10	1	-1E+10	1	-1E+10	1	-1E+10	1	-1E+10	1
4902549	37	C	08/16/2021	01:04	-132.046	47.264	0	284.60	0	5.6190	0	33.8320	0	26.680	0	282.037	0	118.6	4	38.8	4	-1E+10	1	-1E+10	1	-1E+10	1	-1E+10	1	-1E+10	1	-1E+10	1
4902549	37	C	08/16/2021	01:04	-132.046	47.264	0	285.90	0	5.6110	0	33.8310	0	26.680	0	283.324	0	117.8	4	38.5	4	-1E+10	1	-1E+10	1	-1E+10	1	-1E+10	1	-1E+10	1	-1E+10	1
4902549	37	C	08/16/2021	01:04	-132.046	47.264	0	287.10	0	5.5950	0	33.8340	0	26.684	0	284.512	0	117.0	4	38.3	4	-1E+10	1	-1E+10	1	-1E+10	1	-1E+10	1	-1E+10	1	-1E+10	1
4902549	37	C	08/16/2021	01:04	-132.046	47.264	0	288.00	0	5.5860	0	33.8330	0	26.684	0	285.404	0	116.5	4	38.1	4	-1E+10	1	-1E+10	1	-1E+10	1	-1E+10	1	-1E+10	1	-1E+10	1
4902549	37	C	08/16/2021	01:04	-132.046	47.264	0	288.80	0	5.5780	0	33.8330	0	26.685	0	286.196	0	116.0	4	37.9	4	-1E+10	1	-1E+10	1	-1E+10	1	-1E+10	1	-1E+10	1	-1E+10	1
4902549	37	C	08/16/2021	01:04	-132.046	47.264	0	289.70	0	5.5680	0	33.8340	0	26.687	0	287.087	0	115.5	4	37.7	4	-1E+10	1	-1E+10	1	-1E+10	1	-1E+10	1	-1E+10	1	-1E+10	1
4902549	37	C	08/16/2021	01:04	-132.046	47.264	0	290.90	0	5.5450	0	33.8350	0	26.691	0	288.275	0	114.7	4	37.5	4	-1E+10	1	-1E+10	1	-1E+10	1	-1E+10	1	-1E+10	1	-1E+10	1
4902549	37	C	08/16/2021	01:04	-132.046	47.264	0	292.20	0	5.5340	0	33.8330	0	26.691	0	289.563	0	113.9	4	37.2	4	-1E+10	1	-1E+10	1	-1E+10	1	-1E+10	1	-1E+10	1	-1E+10	1
4902549	37	C	08/16/2021	01:04	-132.046	47.264	0	293.00	0	5.4940	0	33.8380	0	26.699	0	290.355	0	113.3	4	37.0	4	-1E+10	1	-1E+10	1	-1E+10	1	-1E+10	1	-1E+10	1	-1E+10	1
4902549	37	C	08/16/2021	01:04	-132.046	47.264	0	293.90	0	5.4770	0	33.8340	0	26.698	0	291.246	0	112.9	4	36.8	4	-1E+10	1	-1E+10	1	-1E+10	1	-1E+10	1	-1E+10	1	-1E+10	1
4902549	37	C	08/16/2021	01:04	-132.046	47.264	0	294.80	0	5.4600	0	33.8320	0	26.699	0	292.138	0	112.4	4	36.7	4	-1E+10	1	-1E+10	1	-1E+10	1	-1E+10	1	-1E+10	1	-1E+10	1
4902549	37	C	08/16/2021	01:04	-132.046	47.264	0	295.60	0	5.4510	0	33.8330	0	26.701	0	292.930	0	111.9	4	36.5	4	-1E+10	1	-1E+10	1	-1E+10	1	-1E+10	1	-1E+10	1	-1E+10	1
4902549	37	C	08/16/2021	01:04	-132.046	47.264	0	296.90	0	5.4280	0	33.8330	0	26.703	0	294.217	0	111.2	4	36.2	4	-1E+10	1	-1E+10	1	-1E+10	1	-1E+10	1	-1E+10	1	-1E+10	1
4902549	37	C	08/16/2021	01:04	-132.046	47.264	0	298.30	0	5.4050	0	33.8330	0	26.706	0	295.603	0	110.6	4	36.0	4	-1E+10	1	-1E+10	1	-1E+10	1	-1E+10	1	-1E+10	1	-1E+10	1
4902549	37	C	08/16/2021	01:04	-132.046	47.264	0	299.10	0	5.3800	0	33.8340	0	26.710	0	296.396	0	110.2	4	35.9	4	-1E+10	1	-1E+10	1	-1E+10	1	-1E+10	1	-1E+10	1	-1E+10	1
4902549	37	C	08/16/2021	01:04	-132.046	47.264	0	300.00	0	5.3710	0	33.8320	0	26.709	0	297.287	0	109.9	4	35.7	4	-1E+10	1	-1E+10	1	-1E+10	1	-1E+10	1	-1E+10	1	-1E+10	1
4902549	37	C	08/16/2021	01:04	-132.046	47.264	0	300.90	0	5.3640	0	33.8330	0	26.711	0	298.178	0	109.4	4	35.6	4	-1E+10	1	-1E+10	1	-1E+10	1	-1E+10	1	-1E+10	1	-1E+10	1
4902549	37	C	08/16/2021	01:04	-132.046	47.264	0	301.70	0	5.3530	0	33.8330	0	26.712	0	298.970	0	109.1	4	35.5	4	-1E+10	1	-1E+10	1	-1E+10	1	-1E+10	1	-1E+10	1	-1E+10	1
4902549	37	C	08/16/2021	01:04	-132.046	47.264	0	302.60	0	5.3390	0	33.8360	0	26.716	0	299.861	0	108.8	4	35.4	4	-1E+10	1	-1E+10	1	-1E+10	1	-1E+10	1	-1E+10	1	-1E+10	1
4902549	37	C	08/16/2021	01:04	-132.046	47.264	0	303.90	0	5.3140	0	33.8340	0	26.718	0	301.149	0	108.3	4	35.2	4	-1E+10	1	-1E+10	1	-1E+10	1	-1E+10	1	-1E+10	1	-1E+10	1
4902549	37	C	08/16/2021	01:04	-132.046	47.264	0	305.30	0	5.2940	0	33.8360	0	26.721	0	302.535	0	107.9	4	35.0	4	-1E+10	1	-1E+10	1	-1E+10	1	-1E+10	1	-1E+10	1	-1E+10	1
4902549	37	C	08/16/2021	01:04	-132.046	47.264	0	306.20	0	5.2880	0	33.8350	0	26.721	0	303.426	0	107.7	4	35.0	4	-1E+10	1	-1E+10	1	-1E+10	1	-1E+10	1	-1E+10	1	-1E+10	1
4902549	37	C	08/16/2021	01:04	-132.046	47.264	0	307.00	0	5.2850	0	33.8350	0	26.722	0	304.218	0	107.3	4	34.9	4	-1E+10	1	-1E+10	1	-1E+10	1	-1E+10	1	-1E+10	1	-1E+10	1
4902549	37	C	08/16/2021	01:04	-132.046	47.264	0	307.90	0	5.2770	0	33.8350	0	26.723	0	305.110	0	107.1	4	34.8	4	-1E+10	1	-1E+10	1	-1E+10	1	-1E+10	1	-1E+10	1	-1E+10	1
4902549	37	C	08/16/2021	01:04	-132.046	47.264	0	308.80	0	5.2640	0	33.8370	0	26.726	0	306.001	0	106.8	4	34.7	4	-1E+10	1	-1E+10	1	-1E+10	1	-1E+10	1	-1E+10	1	-1E+10	1
4902549	37	C	08/16/2021	01:04	-132.046	47.264	0	309.70	0	5.2570	0	33.8360	0	26.726	0	306.892	0	106.6	4	34.6	4	-1E+10	1	-1E+10	1	-1E+10	1	-1E+10	1	-1E+10	1	-1E+10	1
4902549	37	C	08/16/2021	01:04	-132.046	47.264	0	311.00	0	5.2530	0	33.8360	0	26.726	0	308.179	0	106.2	4	34.5	4	-1E+10	1	-1E+10	1	-1E+10	1	-1E+10	1	-1E+10	1	-1E+10	1
4902549	37	C	08/16/2021	01:04	-132.046	47.264	0	312.30	0	5.2440	0	33.8370	0	26.728	0	309.466	0	105.8	4	34.3	4	-1E+10	1	-1E+10	1	-1E+10	1	-1E+10	1	-1E+10	1	-1E+10	1
4902549	37	C	08/16/2021	01:04	-132.046	47.264	0	313.20	0	5.2400	0	33.8370	0	26.729	0	310.358	0	105.5	4	34.2	4	-1E+10	1	-1E+10	1	-1E+10	1	-1E+10	1	-1E+10	1	-1E+10	1
4902549	37	C	08/16/2021	01:04	-132.046	47.264	0	314.00	0	5.2300	0	33.8380	0	26.731	0	311.150	0	105.3	4	34.2	4	-1E+10	1	-1E+10	1	-1E+10	1	-1E+10	1	-1E+10	1	-1E+10	1
4902549	37	C	08/16/2021	01:04	-132.046	47.264	0	314.90	0	5.2270	0	33.8380	0	26.731	0	312.041	0	105.0	4	34.1	4	-1E+10	1	-1E+10	1	-1E+10	1	-1E+10	1	-1E+10	1	-1E+10	1
4902549	37	C	08/16/2021	01:04	-132.046	47.264	0	315.80	0	5.2250	0	33.8370	0	26.730	0	312.932	0	104.7	4	34.0	4	-1E+10	1	-1E+10	1	-1E+10	1	-1E+10	1	-1E+10	1	-1E+10	1
4902549	37	C	08/16/2021	01:04	-132.046	47.264	0	316.60	0	5.2230	0	33.8380	0	26.731	0	313.724	0	104.4	4	33.8	4	-1E+10	1	-1E+10	1	-1E+10	1	-1E+10	1	-1E+10	1	-1E+10	1
4902549	37	C	08/16/2021	01:04	-132.046	47.264	0	317.90	0	5.2190	0	33.8380	0	26.732	0	315.011	0	103.9	4	33.7	4	-1E+10	1	-1E+10	1	-1E+10	1	-1E+10	1	-1E+10	1	-1E+10	1
4902549	37	C	08/16/2021	01:04	-132.046	47.264	0	319.20	0	5.2060	0	33.8390	0	26.734	0	316.299	0	103.3	4	33.5	4	-1E+10	1	-1E+10	1	-1E+10	1	-1E+10	1	-1E+10	1	-1E+10	1
4902549	37	C	08/16/2021	01:04	-132.046	47.264	0	320.10	0	5.1990	0	33.8390	0	26.735	0	317.190	0	103.0	4	33.4	4	-1E+10	1	-1E+10	1	-1E+10	1	-1E+10	1	-1E+10	1	-1E+10	1
4902549	37	C	08/16/2021	01:04	-132.046	47.264	0	320.90	0	5.1920	0	33.8400	0	26.737	0	317.982	0	102.6	4	33.2	4	-1E+10	1	-1E+10	1	-1E+10	1	-1E+10	1	-1E+10	1	-1E+10	1
4902549	37	C	08/16/2021	01:04	-132.046	47.264	0	321.80	0	5.1860	0	33.8400	0	26.737	0	318.873	0	102.2	4	33.1	4	-1E+10	1	-1E+10	1	-1E+10	1	-1E+10	1	-1E+10	1	-1E+10	1
4902549	37	C	08/16/2021	01:04	-132.046	47.264	0	322.70	0	5.1820	0	33.8400	0	26.738	0	319.764	0	101.8	4	33.0	4	-1E+10	1	-1E+10	1	-1E+10	1	-1E+10	1	-1E+10	1	-1E+10	1
4902549	37	C	08/16/2021	01:04	-132.046	47.264	0	323.90	0	5.1780	0	33.8410	0	26.739	0	320.952	0	101.2	4	32.8	4	-1E+10	1	-1E+10	1	-1E+10	1	-1E+10	1	-1E+10	1	-1E+10	1
4902549	37	C	08/16/2021	01:04	-132.046	47.264	0	325.20	0	5.1700	0	33.8420	0	26.741	0	322.239	0	100.4	4	32.5	4	-1E+10	1	-1E+10	1	-1E+10	1	-1E+10	1	-1E+10	1	-1E+10	1
4902549	37	C	08/16/2021	01:04	-132.046	47.264	0	326.10	0	5.1670	0	33.8420	0	26.741	0	323.130	0	99.9	4	32.4	4	-1E+10	1	-1E+10	1	-1E+10	1	-1E+10	1	-1E+10	1	-1E+10	1
4902549	37	C	08/16/2021	01:04	-132.046	47.264	0	326.90	0	5.1480	0	33.8430	0	26.744	0	323.923	0	99.4	4	32.2	4	-1E+10	1	-1E+10	1	-1E+10	1	-1E+10	1	-1E+10	1	-1E+10	1
4902549	37	C	08/16/2021	01:04	-132.046	47.264	0	327.80	0	5.1370	0	33.8430	0	26.745	0	324.814	0	98.9	4	32.0	4	-1E+10	1	-1E+10	1	-1E+10	1	-1E+10	1	-1E+10	1	-1E+10	1
4902549	37	C	08/16/2021	01:04	-132.046	47.264	0	328.70	0	5.1270	0	33.8440	0	26.747	0	325.705	0	98.5	4	31.9	4	-1E+10	1	-1E+10	1	-1E+10	1	-1E+10	1	-1E+10	1	-1E+10	1
4902549	37	C	08/16/2021	01:04	-132.046	47.264	0	329.90	0	5.1050	0	33.8470	0	26.752	0	326.893	0	97.7	4	31.6	4	-1E+10	1	-1E+10	1	-1E+10	1	-1E+10	1	-1E+10	1	-1E+10	1
4902549	37	C	08/16/2021	01:04	-132.046	47.264	0	331.20	0	5.0820	0	33.8480	0	26.756	0	328.180	0	97.2	4	31.4	4	-1E+10	1	-1E+10	1	-1E+10	1	-1E+10	1	-1E+10	1	-1E+10	1
4902549	37	C	08/16/2021	01:04	-132.046	47.264	0	332.00	0	5.0770	0	33.8480	0	26.756	0	328.972	0	96.8	4	31.3	4	-1E+10	1	-1E+10	1	-1E+10	1	-1E+10	1	-1E+10	1	-1E+10	1
4902549	37	C	08/16/2021	01:04	-132.046	47.264	0	332.90	0	5.0710	0	33.8480	0	26.757	0	329.863	0	96.4	4	31.1	4	-1E+10	1	-1E+10	1	-1E+10	1	-1E+10	1	-1E+10	1	-1E+10	1
4902549	37	C	08/16/2021	01:04	-132.046	47.264	0	333.70	0	5.0580	0	33.8490	0	26.759	0	330.655	0	96.0	4	31.0	4	-1E+10	1	-1E+10	1	-1E+10	1	-1E+10	1	-1E+10	1	-1E+10	1
4902549	37	C	08/16/2021	01:04	-132.046	47.264	0	334.90	0	5.0550	0	33.8490	0	26.760	0	331.843	0	95.3	4	30.8	4	-1E+10	1	-1E+10	1	-1E+10	1	-1E+10	1	-1E+10	1	-1E+10	1
4902549	37	C	08/16/2021	01:04	-132.046	47.264	0	336.20	0	5.0450	0	33.8510	0	26.762	0	333.130	0	94.5	4	30.5	4	-1E+10	1	-1E+10	1	-1E+10	1	-1E+10	1	-1E+10	1	-1E+10	1
4902549	37	C	08/16/2021	01:04	-132.046	47.264	0	337.00	0	5.0370	0	33.8540	0	26.766	0	333.922	0	94.0	4	30.4	4	-1E+10	1	-1E+10	1	-1E+10	1	-1E+10	1	-1E+10	1	-1E+10	1
4902549	37	C	08/16/2021	01:04	-132.046	47.264	0	337.90	0	5.0330	0	33.8540	0	26.766	0	334.813	0	93.6	4	30.2	4	-1E+10	1	-1E+10	1	-1E+10	1	-1E+10	1	-1E+10	1	-1E+10	1
4902549	37	C	08/16/2021	01:04	-132.046	47.264	0	338.70	0	5.0290	0	33.8540	0	26.767	0	335.606	0	93.1	4	30.1	4	-1E+10	1	-1E+10	1	-1E+10	1	-1E+10	1	-1E+10	1	-1E+10	1
4902549	37	C	08/16/2021	01:04	-132.046	47.264	0	340.00	0	5.0190	0	33.8570	0	26.770	0	336.893	0	92.5	4	29.8	4	-1E+10	1	-1E+10	1	-1E+10	1	-1E+10	1	-1E+10	1	-1E+10	1
4902549	37	C	08/16/2021	01:04	-132.046	47.264	0	341.30	0	5.0030	0	33.8610	0	26.775	0	338.180	0	91.9	4	29.6	4	-1E+10	1	-1E+10	1	-1E+10	1	-1E+10	1	-1E+10	1	-1E+10	1
4902549	37	C	08/16/2021	01:04	-132.046	47.264	0	342.10	0	4.9970	0	33.8610	0	26.776	0	338.972	0	91.6	4	29.5	4	-1E+10	1	-1E+10	1	-1E+10	1	-1E+10	1	-1E+10	1	-1E+10	1
4902549	37	C	08/16/2021	01:04	-132.046	47.264	0	342.90	0	4.9940	0	33.8620	0	26.777	0	339.764	0	91.2	4	29.4	4	-1E+10	1	-1E+10	1	-1E+10	1	-1E+10	1	-1E+10	1	-1E+10	1
4902549	37	C	08/16/2021	01:04	-132.046	47.264	0	343.80	0	4.9890	0	33.8630	0	26.778	0	340.655	0	90.9	4	29.3	4	-1E+10	1	-1E+10	1	-1E+10	1	-1E+10	1	-1E+10	1	-1E+10	1
4902549	37	C	08/16/2021	01:04	-132.046	47.264	0	344.60	0	4.9870	0	33.8630	0	26.778	0	341.447	0	90.5	4	29.2	4	-1E+10	1	-1E+10	1	-1E+10	1	-1E+10	1	-1E+10	1	-1E+10	1
4902549	37	C	08/16/2021	01:04	-132.046	47.264	0	345.90	0	4.9820	0	33.8650	0	26.781	0	342.734	0	89.9	4	29.0	4	-1E+10	1	-1E+10	1	-1E+10	1	-1E+10	1	-1E+10	1	-1E+10	1
4902549	37	C	08/16/2021	01:04	-132.046	47.264	0	347.20	0	4.9770	0	33.8650	0	26.781	0	344.021	0	89.3	4	28.8	4	-1E+10	1	-1E+10	1	-1E+10	1	-1E+10	1	-1E+10	1	-1E+10	1
4902549	37	C	08/16/2021	01:04	-132.046	47.264	0	348.00	0	4.9350	0	33.8640	0	26.785	0	344.813	0	89.0	4	28.7	4	-1E+10	1	-1E+10	1	-1E+10	1	-1E+10	1	-1E+10	1	-1E+10	1
4902549	37	C	08/16/2021	01:04	-132.046	47.264	0	348.90	0	4.9330	0	33.8640	0	26.785	0	345.704	0	88.7	4	28.6	4	-1E+10	1	-1E+10	1	-1E+10	1	-1E+10	1	-1E+10	1	-1E+10	1
4902549	37	C	08/16/2021	01:04	-132.046	47.264	0	349.80	0	4.9450	0	33.8670	0	26.786	0	346.595	0	88.3	4	28.5	4	-1E+10	1	-1E+10	1	-1E+10	1	-1E+10	1	-1E+10	1	-1E+10	1
4902549	37	C	08/16/2021	01:04	-132.046	47.264	0	352.80	0	4.9340	0	33.8710	0	26.791	0	349.565	0	87.1	4	28.0	4	-1E+10	1	-1E+10	1	-1E+10	1	-1E+10	1	-1E+10	1	-1E+10	1
4902549	37	C	08/16/2021	01:04	-132.046	47.264	0	357.80	0	4.8790	0	33.8700	0	26.796	0	354.515	0	85.0	4	27.3	4	-1E+10	1	-1E+10	1	-1E+10	1	-1E+10	1	-1E+10	1	-1E+10	1
4902549	37	C	08/16/2021	01:04	-132.046	47.264	0	362.90	0	4.8430	0	33.8780	0	26.807	0	359.563	0	82.8	4	26.6	4	-1E+10	1	-1E+10	1	-1E+10	1	-1E+10	1	-1E+10	1	-1E+10	1
4902549	37	C	08/16/2021	01:04	-132.046	47.264	0	368.10	0	4.8270	0	33.8850	0	26.814	0	364.711	0	81.0	4	26.0	4	-1E+10	1	-1E+10	1	-1E+10	1	-1E+10	1	-1E+10	1	-1E+10	1
4902549	37	C	08/16/2021	01:04	-132.046	47.264	0	372.90	0	4.8040	0	33.8900	0	26.821	0	369.463	0	79.6	4	25.6	4	-1E+10	1	-1E+10	1	-1E+10	1	-1E+10	1	-1E+10	1	-1E+10	1
4902549	37	C	08/16/2021	01:04	-132.046	47.264	0	377.90	0	4.8010	0	33.8960	0	26.826	0	374.412	0	78.2	4	25.1	4	-1E+10	1	-1E+10	1	-1E+10	1	-1E+10	1	-1E+10	1	-1E+10	1
4902549	37	C	08/16/2021	01:04	-132.046	47.264	0	382.90	0	4.7940	0	33.9040	0	26.833	0	379.361	0	76.5	4	24.6	4	-1E+10	1	-1E+10	1	-1E+10	1	-1E+10	1	-1E+10	1	-1E+10	1
4902549	37	C	08/16/2021	01:04	-132.046	47.264	0	388.00	0	4.7820	0	33.9120	0	26.841	0	384.409	0	75.2	4	24.1	4	-1E+10	1	-1E+10	1	-1E+10	1	-1E+10	1	-1E+10	1	-1E+10	1
4902549	37	C	08/16/2021	01:04	-132.046	47.264	0	392.70	0	4.7680	0	33.9160	0	26.845	0	389.061	0	74.0	4	23.7	4	-1E+10	1	-1E+10	1	-1E+10	1	-1E+10	1	-1E+10	1	-1E+10	1
4902549	37	C	08/16/2021	01:04	-132.046	47.264	0	397.60	0	4.7490	0	33.9190	0	26.850	0	393.911	0	72.8	4	23.4	4	-1E+10	1	-1E+10	1	-1E+10	1	-1E+10	1	-1E+10	1	-1E+10	1
4902549	37	C	08/16/2021	01:04	-132.046	47.264	0	402.90	0	4.7190	0	33.9190	0	26.853	0	399.157	0	71.6	4	22.9	4	-1E+10	1	-1E+10	1	-1E+10	1	-1E+10	1	-1E+10	1	-1E+10	1
4902549	37	C	08/16/2021	01:04	-132.046	47.264	0	407.80	0	4.6750	0	33.9160	0	26.856	0	404.007	0	70.3	4	22.5	4	-1E+10	1	-1E+10	1	-1E+10	1	-1E+10	1	-1E+10	1	-1E+10	1
4902549	37	C	08/16/2021	01:04	-132.046	47.264	0	412.80	0	4.6440	0	33.9180	0	26.861	0	408.955	0	69.1	4	22.1	4	-1E+10	1	-1E+10	1	-1E+10	1	-1E+10	1	-1E+10	1	-1E+10	1
4902549	37	C	08/16/2021	01:04	-132.046	47.264	0	417.80	0	4.6270	0	33.9230	0	26.867	0	413.904	0	68.0	4	21.8	4	-1E+10	1	-1E+10	1	-1E+10	1	-1E+10	1	-1E+10	1	-1E+10	1
4902549	37	C	08/16/2021	01:04	-132.046	47.264	0	422.90	0	4.6210	0	33.9270	0	26.871	0	418.951	0	67.1	4	21.4	4	-1E+10	1	-1E+10	1	-1E+10	1	-1E+10	1	-1E+10	1	-1E+10	1
4902549	37	C	08/16/2021	01:04	-132.046	47.264	0	428.00	0	4.6130	0	33.9310	0	26.875	0	423.998	0	65.8	4	21.0	4	-1E+10	1	-1E+10	1	-1E+10	1	-1E+10	1	-1E+10	1	-1E+10	1
4902549	37	C	08/16/2021	01:04	-132.046	47.264	0	433.10	0	4.5970	0	33.9370	0	26.881	0	429.045	0	64.5	4	20.6	4	-1E+10	1	-1E+10	1	-1E+10	1	-1E+10	1	-1E+10	1	-1E+10	1
4902549	37	C	08/16/2021	01:04	-132.046	47.264	0	438.20	0	4.5880	0	33.9440	0	26.888	0	434.092	0	63.3	4	20.2	4	-1E+10	1	-1E+10	1	-1E+10	1	-1E+10	1	-1E+10	1	-1E+10	1
4902549	37	C	08/16/2021	01:04	-132.046	47.264	0	442.70	0	4.5730	0	33.9510	0	26.895	0	438.545	0	62.2	4	19.9	4	-1E+10	1	-1E+10	1	-1E+10	1	-1E+10	1	-1E+10	1	-1E+10	1
4902549	37	C	08/16/2021	01:04	-132.046	47.264	0	447.80	0	4.5510	0	33.9520	0	26.898	0	443.592	0	61.4	4	19.6	4	-1E+10	1	-1E+10	1	-1E+10	1	-1E+10	1	-1E+10	1	-1E+10	1
4902549	37	C	08/16/2021	01:04	-132.046	47.264	0	452.90	0	4.5460	0	33.9550	0	26.901	0	448.639	0	60.5	4	19.3	4	-1E+10	1	-1E+10	1	-1E+10	1	-1E+10	1	-1E+10	1	-1E+10	1
4902549	37	C	08/16/2021	01:04	-132.046	47.264	0	458.00	0	4.5340	0	33.9590	0	26.906	0	453.685	0	59.5	4	19.0	4	-1E+10	1	-1E+10	1	-1E+10	1	-1E+10	1	-1E+10	1	-1E+10	1
4902549	37	C	08/16/2021	01:04	-132.046	47.264	0	463.10	0	4.5310	0	33.9600	0	26.907	0	458.731	0	58.3	4	18.6	4	-1E+10	1	-1E+10	1	-1E+10	1	-1E+10	1	-1E+10	1	-1E+10	1
4902549	37	C	08/16/2021	01:04	-132.046	47.264	0	468.10	0	4.5180	0	33.9660	0	26.913	0	463.679	0	56.4	4	18.0	4	-1E+10	1	-1E+10	1	-1E+10	1	-1E+10	1	-1E+10	1	-1E+10	1
4902549	37	C	08/16/2021	01:04	-132.046	47.264	0	473.20	0	4.4950	0	33.9760	0	26.923	0	468.725	0	55.0	4	17.5	4	-1E+10	1	-1E+10	1	-1E+10	1	-1E+10	1	-1E+10	1	-1E+10	1
4902549	37	C	08/16/2021	01:04	-132.046	47.264	0	478.20	0	4.4840	0	33.9800	0	26.928	0	473.672	0	53.5	4	17.1	4	-1E+10	1	-1E+10	1	-1E+10	1	-1E+10	1	-1E+10	1	-1E+10	1
4902549	37	C	08/16/2021	01:04	-132.046	47.264	0	483.20	0	4.4680	0	33.9850	0	26.934	0	478.619	0	51.7	4	16.5	4	-1E+10	1	-1E+10	1	-1E+10	1	-1E+10	1	-1E+10	1	-1E+10	1
4902549	37	C	08/16/2021	01:04	-132.046	47.264	0	488.10	0	4.4470	0	33.9920	0	26.941	0	483.467	0	50.0	4	15.9	4	-1E+10	1	-1E+10	1	-1E+10	1	-1E+10	1	-1E+10	1	-1E+10	1
4902549	37	C	08/16/2021	01:04	-132.046	47.264	0	493.00	0	4.4280	0	33.9980	0	26.948	0	488.314	0	48.4	4	15.4	4	-1E+10	1	-1E+10	1	-1E+10	1	-1E+10	1	-1E+10	1	-1E+10	1
4902549	37	C	08/16/2021	01:04	-132.046	47.264	0	497.90	0	4.4110	0	34.0030	0	26.954	0	493.162	0	47.0	4	15.0	4	-1E+10	1	-1E+10	1	-1E+10	1	-1E+10	1	-1E+10	1	-1E+10	1
4902549	37	C	08/16/2021	01:04	-132.046	47.264	0	503.10	0	4.3960	0	34.0080	0	26.960	0	498.306	0	45.2	4	14.4	4	-1E+10	1	-1E+10	1	-1E+10	1	-1E+10	1	-1E+10	1	-1E+10	1
4902549	37	C	08/16/2021	01:04	-132.046	47.264	0	508.30	0	4.3690	0	34.0170	0	26.970	0	503.450	0	43.5	4	13.8	4	-1E+10	1	-1E+10	1	-1E+10	1	-1E+10	1	-1E+10	1	-1E+10	1
4902549	37	C	08/16/2021	01:04	-132.046	47.264	0	512.90	0	4.3550	0	34.0220	0	26.975	0	508.001	0	42.2	4	13.4	4	-1E+10	1	-1E+10	1	-1E+10	1	-1E+10	1	-1E+10	1	-1E+10	1
4902549	37	C	08/16/2021	01:04	-132.046	47.264	0	517.60	0	4.3370	0	34.0270	0	26.981	0	512.650	0	40.8	4	13.0	4	-1E+10	1	-1E+10	1	-1E+10	1	-1E+10	1	-1E+10	1	-1E+10	1
4902549	37	C	08/16/2021	01:04	-132.046	47.264	0	522.70	0	4.3230	0	34.0320	0	26.987	0	517.695	0	39.5	4	12.6	4	-1E+10	1	-1E+10	1	-1E+10	1	-1E+10	1	-1E+10	1	-1E+10	1
4902549	37	C	08/16/2021	01:04	-132.046	47.264	0	527.70	0	4.3070	0	34.0370	0	26.992	0	522.641	0	38.1	4	12.1	4	-1E+10	1	-1E+10	1	-1E+10	1	-1E+10	1	-1E+10	1	-1E+10	1
4902549	37	C	08/16/2021	01:04	-132.046	47.264	0	532.80	0	4.2890	0	34.0430	0	26.999	0	527.685	0	36.7	4	11.7	4	-1E+10	1	-1E+10	1	-1E+10	1	-1E+10	1	-1E+10	1	-1E+10	1
4902549	37	C	08/16/2021	01:04	-132.046	47.264	0	537.70	0	4.2760	0	34.0480	0	27.004	0	532.532	0	35.4	4	11.2	4	-1E+10	1	-1E+10	1	-1E+10	1	-1E+10	1	-1E+10	1	-1E+10	1
4902549	37	C	08/16/2021	01:04	-132.046	47.264	0	542.90	0	4.2530	0	34.0560	0	27.013	0	537.675	0	34.1	4	10.8	4	-1E+10	1	-1E+10	1	-1E+10	1	-1E+10	1	-1E+10	1	-1E+10	1
4902549	37	C	08/16/2021	01:04	-132.046	47.264	0	547.90	0	4.2390	0	34.0600	0	27.018	0	542.621	0	33.2	4	10.5	4	-1E+10	1	-1E+10	1	-1E+10	1	-1E+10	1	-1E+10	1	-1E+10	1
4902549	37	C	08/16/2021	01:04	-132.046	47.264	0	553.00	0	4.2280	0	34.0640	0	27.022	0	547.665	0	32.2	4	10.2	4	-1E+10	1	-1E+10	1	-1E+10	1	-1E+10	1	-1E+10	1	-1E+10	1
4902549	37	C	08/16/2021	01:04	-132.046	47.264	0	557.80	0	4.2100	0	34.0690	0	27.028	0	552.412	0	31.0	4	9.8	4	-1E+10	1	-1E+10	1	-1E+10	1	-1E+10	1	-1E+10	1	-1E+10	1
4902549	37	C	08/16/2021	01:04	-132.046	47.264	0	562.70	0	4.1890	0	34.0760	0	27.036	0	557.258	0	30.0	4	9.5	4	-1E+10	1	-1E+10	1	-1E+10	1	-1E+10	1	-1E+10	1	-1E+10	1
4902549	37	C	08/16/2021	01:04	-132.046	47.264	0	567.70	0	4.1700	0	34.0810	0	27.042	0	562.203	0	29.1	4	9.2	4	-1E+10	1	-1E+10	1	-1E+10	1	-1E+10	1	-1E+10	1	-1E+10	1
4902549	37	C	08/16/2021	01:04	-132.046	47.264	0	572.80	0	4.1560	0	34.0860	0	27.047	0	567.247	0	28.4	4	9.0	4	-1E+10	1	-1E+10	1	-1E+10	1	-1E+10	1	-1E+10	1	-1E+10	1
4902549	37	C	08/16/2021	01:04	-132.046	47.264	0	578.10	0	4.1390	0	34.0900	0	27.052	0	572.488	0	28.1	4	8.9	4	-1E+10	1	-1E+10	1	-1E+10	1	-1E+10	1	-1E+10	1	-1E+10	1
4902549	37	C	08/16/2021	01:04	-132.046	47.264	0	583.00	0	4.1210	0	34.0940	0	27.057	0	577.334	0	27.3	4	8.7	4	-1E+10	1	-1E+10	1	-1E+10	1	-1E+10	1	-1E+10	1	-1E+10	1
4902549	37	C	08/16/2021	01:04	-132.046	47.264	0	588.00	0	4.1070	0	34.0990	0	27.063	0	582.278	0	26.6	4	8.4	4	-1E+10	1	-1E+10	1	-1E+10	1	-1E+10	1	-1E+10	1	-1E+10	1
4902549	37	C	08/16/2021	01:04	-132.046	47.264	0	593.10	0	4.0920	0	34.1030	0	27.068	0	587.321	0	26.0	4	8.2	4	-1E+10	1	-1E+10	1	-1E+10	1	-1E+10	1	-1E+10	1	-1E+10	1
4902549	37	C	08/16/2021	01:04	-132.046	47.264	0	597.90	0	4.0830	0	34.1060	0	27.071	0	592.068	0	25.4	4	8.0	4	-1E+10	1	-1E+10	1	-1E+10	1	-1E+10	1	-1E+10	1	-1E+10	1
4902549	37	C	08/16/2021	01:04	-132.046	47.264	0	602.80	0	4.0700	0	34.1100	0	27.076	0	596.913	0	24.9	4	7.9	4	-1E+10	1	-1E+10	1	-1E+10	1	-1E+10	1	-1E+10	1	-1E+10	1
4902549	37	C	08/16/2021	01:04	-132.046	47.264	0	607.80	0	4.0590	0	34.1130	0	27.079	0	601.857	0	24.4	4	7.7	4	-1E+10	1	-1E+10	1	-1E+10	1	-1E+10	1	-1E+10	1	-1E+10	1
4902549	37	C	08/16/2021	01:04	-132.046	47.264	0	612.80	0	4.0550	0	34.1150	0	27.081	0	606.801	0	23.8	4	7.5	4	-1E+10	1	-1E+10	1	-1E+10	1	-1E+10	1	-1E+10	1	-1E+10	1
4902549	37	C	08/16/2021	01:04	-132.046	47.264	0	618.00	0	4.0440	0	34.1180	0	27.085	0	611.942	0	22.9	4	7.2	4	-1E+10	1	-1E+10	1	-1E+10	1	-1E+10	1	-1E+10	1	-1E+10	1
4902549	37	C	08/16/2021	01:04	-132.046	47.264	0	623.20	0	4.0260	0	34.1250	0	27.092	0	617.084	0	22.3	4	7.0	4	-1E+10	1	-1E+10	1	-1E+10	1	-1E+10	1	-1E+10	1	-1E+10	1
4902549	37	C	08/16/2021	01:04	-132.046	47.264	0	628.30	0	4.0200	0	34.1270	0	27.094	0	622.126	0	21.8	4	6.9	4	-1E+10	1	-1E+10	1	-1E+10	1	-1E+10	1	-1E+10	1	-1E+10	1
4902549	37	C	08/16/2021	01:04	-132.046	47.264	0	632.90	0	4.0110	0	34.1300	0	27.098	0	626.674	0	21.2	4	6.7	4	-1E+10	1	-1E+10	1	-1E+10	1	-1E+10	1	-1E+10	1	-1E+10	1
4902549	37	C	08/16/2021	01:04	-132.046	47.264	0	637.80	0	4.0030	0	34.1340	0	27.102	0	631.518	0	20.4	4	6.4	4	-1E+10	1	-1E+10	1	-1E+10	1	-1E+10	1	-1E+10	1	-1E+10	1
4902549	37	C	08/16/2021	01:04	-132.046	47.264	0	642.90	0	3.9890	0	34.1410	0	27.109	0	636.560	0	19.9	4	6.3	4	-1E+10	1	-1E+10	1	-1E+10	1	-1E+10	1	-1E+10	1	-1E+10	1
4902549	37	C	08/16/2021	01:04	-132.046	47.264	0	648.20	0	3.9710	0	34.1440	0	27.113	0	641.800	0	19.5	4	6.2	4	-1E+10	1	-1E+10	1	-1E+10	1	-1E+10	1	-1E+10	1	-1E+10	1
4902549	37	C	08/16/2021	01:04	-132.046	47.264	0	653.10	0	3.9540	0	34.1490	0	27.119	0	646.644	0	19.2	4	6.1	4	-1E+10	1	-1E+10	1	-1E+10	1	-1E+10	1	-1E+10	1	-1E+10	1
4902549	37	C	08/16/2021	01:04	-132.046	47.264	0	658.10	0	3.9440	0	34.1510	0	27.121	0	651.587	0	19.0	4	6.0	4	-1E+10	1	-1E+10	1	-1E+10	1	-1E+10	1	-1E+10	1	-1E+10	1
4902549	37	C	08/16/2021	01:04	-132.046	47.264	0	663.20	0	3.9370	0	34.1530	0	27.124	0	656.628	0	18.8	4	5.9	4	-1E+10	1	-1E+10	1	-1E+10	1	-1E+10	1	-1E+10	1	-1E+10	1
4902549	37	C	08/16/2021	01:04	-132.046	47.264	0	667.70	0	3.9250	0	34.1550	0	27.127	0	661.076	0	18.5	4	5.8	4	-1E+10	1	-1E+10	1	-1E+10	1	-1E+10	1	-1E+10	1	-1E+10	1
4902549	37	C	08/16/2021	01:04	-132.046	47.264	0	672.70	0	3.9150	0	34.1580	0	27.130	0	666.019	0	17.9	4	5.6	4	-1E+10	1	-1E+10	1	-1E+10	1	-1E+10	1	-1E+10	1	-1E+10	1
4902549	37	C	08/16/2021	01:04	-132.046	47.264	0	677.70	0	3.9130	0	34.1620	0	27.133	0	670.961	0	17.4	4	5.5	4	-1E+10	1	-1E+10	1	-1E+10	1	-1E+10	1	-1E+10	1	-1E+10	1
4902549	37	C	08/16/2021	01:04	-132.046	47.264	0	682.70	0	3.8960	0	34.1650	0	27.138	0	675.903	0	17.0	4	5.4	4	-1E+10	1	-1E+10	1	-1E+10	1	-1E+10	1	-1E+10	1	-1E+10	1
4902549	37	C	08/16/2021	01:04	-132.046	47.264	0	688.10	0	3.8830	0	34.1690	0	27.142	0	681.241	0	16.3	4	5.1	4	-1E+10	1	-1E+10	1	-1E+10	1	-1E+10	1	-1E+10	1	-1E+10	1
4902549	37	C	08/16/2021	01:04	-132.046	47.264	0	693.10	0	3.8720	0	34.1750	0	27.148	0	686.183	0	15.5	4	4.9	4	-1E+10	1	-1E+10	1	-1E+10	1	-1E+10	1	-1E+10	1	-1E+10	1
4902549	37	C	08/16/2021	01:04	-132.046	47.264	0	698.00	0	3.8640	0	34.1800	0	27.153	0	691.026	0	15.2	4	4.8	4	-1E+10	1	-1E+10	1	-1E+10	1	-1E+10	1	-1E+10	1	-1E+10	1
4902549	37	C	08/16/2021	01:04	-132.046	47.264	0	703.00	0	3.8570	0	34.1830	0	27.156	0	695.967	0	15.0	4	4.7	4	-1E+10	1	-1E+10	1	-1E+10	1	-1E+10	1	-1E+10	1	-1E+10	1
4902549	37	C	08/16/2021	01:04	-132.046	47.264	0	707.90	0	3.8400	0	34.1860	0	27.160	0	700.810	0	14.8	4	4.7	4	-1E+10	1	-1E+10	1	-1E+10	1	-1E+10	1	-1E+10	1	-1E+10	1
4902549	37	C	08/16/2021	01:04	-132.046	47.264	0	712.90	0	3.8280	0	34.1880	0	27.163	0	705.751	0	14.6	4	4.6	4	-1E+10	1	-1E+10	1	-1E+10	1	-1E+10	1	-1E+10	1	-1E+10	1
4902549	37	C	08/16/2021	01:04	-132.046	47.264	0	717.80	0	3.8160	0	34.1920	0	27.167	0	710.594	0	14.3	4	4.5	4	-1E+10	1	-1E+10	1	-1E+10	1	-1E+10	1	-1E+10	1	-1E+10	1
4902549	37	C	08/16/2021	01:04	-132.046	47.264	0	723.00	0	3.7940	0	34.1950	0	27.172	0	715.733	0	14.2	4	4.5	4	-1E+10	1	-1E+10	1	-1E+10	1	-1E+10	1	-1E+10	1	-1E+10	1
4902549	37	C	08/16/2021	01:04	-132.046	47.264	0	728.10	0	3.7820	0	34.1980	0	27.176	0	720.773	0	13.8	4	4.3	4	-1E+10	1	-1E+10	1	-1E+10	1	-1E+10	1	-1E+10	1	-1E+10	1
4902549	37	C	08/16/2021	01:04	-132.046	47.264	0	732.90	0	3.7710	0	34.2020	0	27.180	0	725.516	0	13.4	4	4.2	4	-1E+10	1	-1E+10	1	-1E+10	1	-1E+10	1	-1E+10	1	-1E+10	1
4902549	37	C	08/16/2021	01:04	-132.046	47.264	0	737.70	0	3.7560	0	34.2060	0	27.185	0	730.259	0	13.1	4	4.1	4	-1E+10	1	-1E+10	1	-1E+10	1	-1E+10	1	-1E+10	1	-1E+10	1
4902549	37	C	08/16/2021	01:04	-132.046	47.264	0	742.90	0	3.7520	0	34.2080	0	27.187	0	735.398	0	12.7	4	4.0	4	-1E+10	1	-1E+10	1	-1E+10	1	-1E+10	1	-1E+10	1	-1E+10	1
4902549	37	C	08/16/2021	01:04	-132.046	47.264	0	748.10	0	3.7400	0	34.2110	0	27.190	0	740.536	0	12.2	4	3.8	4	-1E+10	1	-1E+10	1	-1E+10	1	-1E+10	1	-1E+10	1	-1E+10	1
4902549	37	C	08/16/2021	01:04	-132.046	47.264	0	752.90	0	3.7240	0	34.2170	0	27.197	0	745.279	0	11.8	4	3.7	4	-1E+10	1	-1E+10	1	-1E+10	1	-1E+10	1	-1E+10	1	-1E+10	1
4902549	37	C	08/16/2021	01:04	-132.046	47.264	0	757.70	0	3.7090	0	34.2210	0	27.201	0	750.022	0	11.4	4	3.6	4	-1E+10	1	-1E+10	1	-1E+10	1	-1E+10	1	-1E+10	1	-1E+10	1
4902549	37	C	08/16/2021	01:04	-132.046	47.264	0	763.00	0	3.6860	0	34.2280	0	27.209	0	755.258	0	11.0	4	3.5	4	-1E+10	1	-1E+10	1	-1E+10	1	-1E+10	1	-1E+10	1	-1E+10	1
4902549	37	C	08/16/2021	01:04	-132.046	47.264	0	767.90	0	3.6630	0	34.2330	0	27.215	0	760.100	0	10.8	4	3.4	4	-1E+10	1	-1E+10	1	-1E+10	1	-1E+10	1	-1E+10	1	-1E+10	1
4902549	37	C	08/16/2021	01:04	-132.046	47.264	0	772.80	0	3.6490	0	34.2360	0	27.219	0	764.941	0	10.6	4	3.3	4	-1E+10	1	-1E+10	1	-1E+10	1	-1E+10	1	-1E+10	1	-1E+10	1
4902549	37	C	08/16/2021	01:04	-132.046	47.264	0	777.70	0	3.6380	0	34.2390	0	27.223	0	769.782	0	10.4	4	3.3	4	-1E+10	1	-1E+10	1	-1E+10	1	-1E+10	1	-1E+10	1	-1E+10	1
4902549	37	C	08/16/2021	01:04	-132.046	47.264	0	782.80	0	3.6240	0	34.2420	0	27.227	0	774.821	0	10.3	4	3.2	4	-1E+10	1	-1E+10	1	-1E+10	1	-1E+10	1	-1E+10	1	-1E+10	1
4902549	37	C	08/16/2021	01:04	-132.046	47.264	0	788.00	0	3.6140	0	34.2450	0	27.230	0	779.958	0	10.2	4	3.2	4	-1E+10	1	-1E+10	1	-1E+10	1	-1E+10	1	-1E+10	1	-1E+10	1
4902549	37	C	08/16/2021	01:04	-132.046	47.264	0	792.70	0	3.6020	0	34.2490	0	27.234	0	784.601	0	10.1	4	3.2	4	-1E+10	1	-1E+10	1	-1E+10	1	-1E+10	1	-1E+10	1	-1E+10	1
4902549	37	C	08/16/2021	01:04	-132.046	47.264	0	798.00	0	3.5880	0	34.2510	0	27.237	0	789.837	0	10.1	4	3.1	4	-1E+10	1	-1E+10	1	-1E+10	1	-1E+10	1	-1E+10	1	-1E+10	1
4902549	37	C	08/16/2021	01:04	-132.046	47.264	0	803.30	0	3.5730	0	34.2550	0	27.242	0	795.073	0	10.0	4	3.1	4	-1E+10	1	-1E+10	1	-1E+10	1	-1E+10	1	-1E+10	1	-1E+10	1
4902549	37	C	08/16/2021	01:04	-132.046	47.264	0	808.10	0	3.5670	0	34.2560	0	27.243	0	799.814	0	9.9	4	3.1	4	-1E+10	1	-1E+10	1	-1E+10	1	-1E+10	1	-1E+10	1	-1E+10	1
4902549	37	C	08/16/2021	01:04	-132.046	47.264	0	812.90	0	3.5540	0	34.2590	0	27.247	0	804.556	0	9.9	4	3.1	4	-1E+10	1	-1E+10	1	-1E+10	1	-1E+10	1	-1E+10	1	-1E+10	1
4902549	37	C	08/16/2021	01:04	-132.046	47.264	0	817.90	0	3.5440	0	34.2610	0	27.250	0	809.495	0	9.8	4	3.1	4	-1E+10	1	-1E+10	1	-1E+10	1	-1E+10	1	-1E+10	1	-1E+10	1
4902549	37	C	08/16/2021	01:04	-132.046	47.264	0	822.90	0	3.5360	0	34.2630	0	27.252	0	814.434	0	9.8	4	3.0	4	-1E+10	1	-1E+10	1	-1E+10	1	-1E+10	1	-1E+10	1	-1E+10	1
4902549	37	C	08/16/2021	01:04	-132.046	47.264	0	827.90	0	3.5260	0	34.2640	0	27.254	0	819.373	0	9.7	4	3.0	4	-1E+10	1	-1E+10	1	-1E+10	1	-1E+10	1	-1E+10	1	-1E+10	1
4902549	37	C	08/16/2021	01:04	-132.046	47.264	0	833.00	0	3.5120	0	34.2680	0	27.258	0	824.410	0	9.6	4	3.0	4	-1E+10	1	-1E+10	1	-1E+10	1	-1E+10	1	-1E+10	1	-1E+10	1
4902549	37	C	08/16/2021	01:04	-132.046	47.264	0	838.10	0	3.5050	0	34.2690	0	27.260	0	829.447	0	9.5	4	3.0	4	-1E+10	1	-1E+10	1	-1E+10	1	-1E+10	1	-1E+10	1	-1E+10	1
4902549	37	C	08/16/2021	01:04	-132.046	47.264	0	843.30	0	3.4970	0	34.2720	0	27.263	0	834.583	0	9.3	4	2.9	4	-1E+10	1	-1E+10	1	-1E+10	1	-1E+10	1	-1E+10	1	-1E+10	1
4902549	37	C	08/16/2021	01:04	-132.046	47.264	0	848.20	0	3.4830	0	34.2750	0	27.267	0	839.423	0	9.2	4	2.9	4	-1E+10	1	-1E+10	1	-1E+10	1	-1E+10	1	-1E+10	1	-1E+10	1
4902549	37	C	08/16/2021	01:04	-132.046	47.264	0	852.70	0	3.4690	0	34.2780	0	27.271	0	843.867	0	9.1	4	2.8	4	-1E+10	1	-1E+10	1	-1E+10	1	-1E+10	1	-1E+10	1	-1E+10	1
4902549	37	C	08/16/2021	01:04	-132.046	47.264	0	857.70	0	3.4540	0	34.2830	0	27.276	0	848.805	0	8.7	4	2.7	4	-1E+10	1	-1E+10	1	-1E+10	1	-1E+10	1	-1E+10	1	-1E+10	1
4902549	37	C	08/16/2021	01:04	-132.046	47.264	0	862.80	0	3.4450	0	34.2880	0	27.281	0	853.842	0	8.4	4	2.6	4	-1E+10	1	-1E+10	1	-1E+10	1	-1E+10	1	-1E+10	1	-1E+10	1
4902549	37	C	08/16/2021	01:04	-132.046	47.264	0	867.90	0	3.4370	0	34.2920	0	27.285	0	858.879	0	8.2	4	2.6	4	-1E+10	1	-1E+10	1	-1E+10	1	-1E+10	1	-1E+10	1	-1E+10	1
4902549	37	C	08/16/2021	01:04	-132.046	47.264	0	873.10	0	3.4260	0	34.2970	0	27.290	0	864.014	0	8.0	4	2.5	4	-1E+10	1	-1E+10	1	-1E+10	1	-1E+10	1	-1E+10	1	-1E+10	1
4902549	37	C	08/16/2021	01:04	-132.046	47.264	0	878.00	0	3.4200	0	34.3000	0	27.293	0	868.853	0	7.9	4	2.5	4	-1E+10	1	-1E+10	1	-1E+10	1	-1E+10	1	-1E+10	1	-1E+10	1
4902549	37	C	08/16/2021	01:04	-132.046	47.264	0	882.90	0	3.4130	0	34.3020	0	27.295	0	873.691	0	7.9	4	2.5	4	-1E+10	1	-1E+10	1	-1E+10	1	-1E+10	1	-1E+10	1	-1E+10	1
4902549	37	C	08/16/2021	01:04	-132.046	47.264	0	888.10	0	3.4060	0	34.3030	0	27.297	0	878.826	0	7.8	4	2.4	4	-1E+10	1	-1E+10	1	-1E+10	1	-1E+10	1	-1E+10	1	-1E+10	1
4902549	37	C	08/16/2021	01:04	-132.046	47.264	0	893.00	0	3.4020	0	34.3050	0	27.299	0	883.665	0	7.7	4	2.4	4	-1E+10	1	-1E+10	1	-1E+10	1	-1E+10	1	-1E+10	1	-1E+10	1
4902549	37	C	08/16/2021	01:04	-132.046	47.264	0	897.90	0	3.3800	0	34.3090	0	27.304	0	888.503	0	7.7	4	2.4	4	-1E+10	1	-1E+10	1	-1E+10	1	-1E+10	1	-1E+10	1	-1E+10	1
4902549	37	C	08/16/2021	01:04	-132.046	47.264	0	902.90	0	3.3670	0	34.3110	0	27.307	0	893.440	0	7.6	4	2.4	4	-1E+10	1	-1E+10	1	-1E+10	1	-1E+10	1	-1E+10	1	-1E+10	1
4902549	37	C	08/16/2021	01:04	-132.046	47.264	0	907.90	0	3.3550	0	34.3130	0	27.310	0	898.377	0	7.5	4	2.3	4	-1E+10	1	-1E+10	1	-1E+10	1	-1E+10	1	-1E+10	1	-1E+10	1
4902549	37	C	08/16/2021	01:04	-132.046	47.264	0	912.90	0	3.3500	0	34.3160	0	27.313	0	903.314	0	7.4	4	2.3	4	-1E+10	1	-1E+10	1	-1E+10	1	-1E+10	1	-1E+10	1	-1E+10	1
4902549	37	C	08/16/2021	01:04	-132.046	47.264	0	917.90	0	3.3400	0	34.3190	0	27.316	0	908.250	0	7.3	4	2.3	4	-1E+10	1	-1E+10	1	-1E+10	1	-1E+10	1	-1E+10	1	-1E+10	1
4902549	37	C	08/16/2021	01:04	-132.046	47.264	0	923.00	0	3.3280	0	34.3220	0	27.320	0	913.286	0	7.1	4	2.2	4	-1E+10	1	-1E+10	1	-1E+10	1	-1E+10	1	-1E+10	1	-1E+10	1
4902549	37	C	08/16/2021	01:04	-132.046	47.264	0	928.00	0	3.3260	0	34.3260	0	27.323	0	918.222	0	7.1	4	2.2	4	-1E+10	1	-1E+10	1	-1E+10	1	-1E+10	1	-1E+10	1	-1E+10	1
4902549	37	C	08/16/2021	01:04	-132.046	47.264	0	933.10	0	3.3150	0	34.3280	0	27.326	0	923.257	0	7.0	4	2.2	4	-1E+10	1	-1E+10	1	-1E+10	1	-1E+10	1	-1E+10	1	-1E+10	1
4902549	37	C	08/16/2021	01:04	-132.046	47.264	0	937.70	0	3.3050	0	34.3300	0	27.328	0	927.798	0	7.0	4	2.2	4	-1E+10	1	-1E+10	1	-1E+10	1	-1E+10	1	-1E+10	1	-1E+10	1
4902549	37	C	08/16/2021	01:04	-132.046	47.264	0	942.70	0	3.2950	0	34.3310	0	27.330	0	932.734	0	7.1	4	2.2	4	-1E+10	1	-1E+10	1	-1E+10	1	-1E+10	1	-1E+10	1	-1E+10	1
4902549	37	C	08/16/2021	01:04	-132.046	47.264	0	947.80	0	3.2790	0	34.3330	0	27.333	0	937.769	0	7.1	4	2.2	4	-1E+10	1	-1E+10	1	-1E+10	1	-1E+10	1	-1E+10	1	-1E+10	1
4902549	37	C	08/16/2021	01:04	-132.046	47.264	0	952.90	0	3.2650	0	34.3350	0	27.336	0	942.804	0	7.1	4	2.2	4	-1E+10	1	-1E+10	1	-1E+10	1	-1E+10	1	-1E+10	1	-1E+10	1
4902549	37	C	08/16/2021	01:04	-132.046	47.264	0	957.90	0	3.2530	0	34.3370	0	27.339	0	947.739	0	7.1	4	2.2	4	-1E+10	1	-1E+10	1	-1E+10	1	-1E+10	1	-1E+10	1	-1E+10	1
4902549	37	C	08/16/2021	01:04	-132.046	47.264	0	962.90	0	3.2460	0	34.3390	0	27.341	0	952.675	0	7.0	4	2.2	4	-1E+10	1	-1E+10	1	-1E+10	1	-1E+10	1	-1E+10	1	-1E+10	1
4902549	37	C	08/16/2021	01:04	-132.046	47.264	0	967.80	0	3.2440	0	34.3420	0	27.344	0	957.512	0	6.9	4	2.1	4	-1E+10	1	-1E+10	1	-1E+10	1	-1E+10	1	-1E+10	1	-1E+10	1
4902549	37	C	08/16/2021	01:04	-132.046	47.264	0	972.70	0	3.2350	0	34.3450	0	27.347	0	962.348	0	6.8	4	2.1	4	-1E+10	1	-1E+10	1	-1E+10	1	-1E+10	1	-1E+10	1	-1E+10	1
4902549	37	C	08/16/2021	01:04	-132.046	47.264	0	977.80	0	3.2150	0	34.3490	0	27.352	0	967.382	0	6.9	4	2.1	4	-1E+10	1	-1E+10	1	-1E+10	1	-1E+10	1	-1E+10	1	-1E+10	1
4902549	37	C	08/16/2021	01:04	-132.046	47.264	0	982.80	0	3.2100	0	34.3500	0	27.353	0	972.317	0	6.9	4	2.1	4	-1E+10	1	-1E+10	1	-1E+10	1	-1E+10	1	-1E+10	1	-1E+10	1
4902549	37	C	08/16/2021	01:04	-132.046	47.264	0	987.80	0	3.1960	0	34.3510	0	27.355	0	977.252	0	7.0	4	2.2	4	-1E+10	1	-1E+10	1	-1E+10	1	-1E+10	1	-1E+10	1	-1E+10	1
4902549	37	C	08/16/2021	01:04	-132.046	47.264	0	992.80	0	3.1910	0	34.3520	0	27.357	0	982.187	0	7.0	4	2.2	4	-1E+10	1	-1E+10	1	-1E+10	1	-1E+10	1	-1E+10	1	-1E+10	1
4902549	37	C	08/16/2021	01:04	-132.046	47.264	0	997.90	0	3.1790	0	34.3540	0	27.359	0	987.221	0	7.1	4	2.2	4	-1E+10	1	-1E+10	1	-1E+10	1	-1E+10	1	-1E+10	1	-1E+10	1
4902549	37	C	08/16/2021	01:04	-132.046	47.264	0	1005.40	0	3.1480	0	34.3570	0	27.365	0	994.623	0	7.2	4	2.2	4	-1E+10	1	-1E+10	1	-1E+10	1	-1E+10	1	-1E+10	1	-1E+10	1
4902549	37	C	08/16/2021	01:04	-132.046	47.264	0	1015.30	0	3.1330	0	34.3600	0	27.368	0	1004.393	0	7.2	4	2.2	4	-1E+10	1	-1E+10	1	-1E+10	1	-1E+10	1	-1E+10	1	-1E+10	1
4902549	37	C	08/16/2021	01:04	-132.046	47.264	0	1025.40	0	3.1160	0	34.3650	0	27.374	0	1014.360	0	7.2	4	2.2	4	-1E+10	1	-1E+10	1	-1E+10	1	-1E+10	1	-1E+10	1	-1E+10	1
4902549	37	C	08/16/2021	01:04	-132.046	47.264	0	1035.60	0	3.0970	0	34.3690	0	27.379	0	1024.425	0	7.2	4	2.2	4	-1E+10	1	-1E+10	1	-1E+10	1	-1E+10	1	-1E+10	1	-1E+10	1
4902549	37	C	08/16/2021	01:04	-132.046	47.264	0	1045.70	0	3.0820	0	34.3720	0	27.383	0	1034.391	0	7.2	4	2.2	4	-1E+10	1	-1E+10	1	-1E+10	1	-1E+10	1	-1E+10	1	-1E+10	1
4902549	37	C	08/16/2021	01:04	-132.046	47.264	0	1055.40	0	3.0750	0	34.3760	0	27.387	0	1043.962	0	7.2	4	2.2	4	-1E+10	1	-1E+10	1	-1E+10	1	-1E+10	1	-1E+10	1	-1E+10	1
4902549	37	C	08/16/2021	01:04	-132.046	47.264	0	1065.60	0	3.0670	0	34.3830	0	27.393	0	1054.026	0	7.2	4	2.2	4	-1E+10	1	-1E+10	1	-1E+10	1	-1E+10	1	-1E+10	1	-1E+10	1
4902549	37	C	08/16/2021	01:04	-132.046	47.264	0	1075.50	0	3.0440	0	34.3860	0	27.398	0	1063.794	0	7.3	4	2.2	4	-1E+10	1	-1E+10	1	-1E+10	1	-1E+10	1	-1E+10	1	-1E+10	1
4902549	37	C	08/16/2021	01:04	-132.046	47.264	0	1085.20	0	3.0370	0	34.3900	0	27.402	0	1073.363	0	7.3	4	2.2	4	-1E+10	1	-1E+10	1	-1E+10	1	-1E+10	1	-1E+10	1	-1E+10	1
4902549	37	C	08/16/2021	01:04	-132.046	47.264	0	1095.00	0	3.0300	0	34.3930	0	27.405	0	1083.031	0	7.4	4	2.3	4	-1E+10	1	-1E+10	1	-1E+10	1	-1E+10	1	-1E+10	1	-1E+10	1
4902549	37	C	08/16/2021	01:04	-132.046	47.264	0	1105.10	0	2.9990	0	34.3930	0	27.408	0	1092.994	0	7.4	4	2.3	4	-1E+10	1	-1E+10	1	-1E+10	1	-1E+10	1	-1E+10	1	-1E+10	1
4902549	37	C	08/16/2021	01:04	-132.046	47.264	0	1115.20	0	2.9820	0	34.3970	0	27.412	0	1102.957	0	7.6	4	2.3	4	-1E+10	1	-1E+10	1	-1E+10	1	-1E+10	1	-1E+10	1	-1E+10	1
4902549	37	C	08/16/2021	01:04	-132.046	47.264	0	1125.10	0	2.9800	0	34.4040	0	27.418	0	1112.722	0	7.7	4	2.4	4	-1E+10	1	-1E+10	1	-1E+10	1	-1E+10	1	-1E+10	1	-1E+10	1
4902549	37	C	08/16/2021	01:04	-132.046	47.264	0	1135.10	0	2.9670	0	34.4090	0	27.423	0	1122.586	0	7.8	4	2.4	4	-1E+10	1	-1E+10	1	-1E+10	1	-1E+10	1	-1E+10	1	-1E+10	1
4902549	37	C	08/16/2021	01:04	-132.046	47.264	0	1145.10	0	2.9470	0	34.4120	0	27.428	0	1132.448	0	7.9	4	2.4	4	-1E+10	1	-1E+10	1	-1E+10	1	-1E+10	1	-1E+10	1	-1E+10	1
4902549	37	C	08/16/2021	01:04	-132.046	47.264	0	1155.30	0	2.9250	0	34.4140	0	27.431	0	1142.508	0	8.0	4	2.5	4	-1E+10	1	-1E+10	1	-1E+10	1	-1E+10	1	-1E+10	1	-1E+10	1
4902549	37	C	08/16/2021	01:04	-132.046	47.264	0	1165.60	0	2.9080	0	34.4160	0	27.434	0	1152.666	0	8.1	4	2.5	4	-1E+10	1	-1E+10	1	-1E+10	1	-1E+10	1	-1E+10	1	-1E+10	1
4902549	37	C	08/16/2021	01:04	-132.046	47.264	0	1175.40	0	2.8890	0	34.4180	0	27.438	0	1162.330	0	8.2	4	2.5	4	-1E+10	1	-1E+10	1	-1E+10	1	-1E+10	1	-1E+10	1	-1E+10	1
4902549	37	C	08/16/2021	01:04	-132.046	47.264	0	1185.40	0	2.8770	0	34.4210	0	27.441	0	1172.191	0	8.4	4	2.6	4	-1E+10	1	-1E+10	1	-1E+10	1	-1E+10	1	-1E+10	1	-1E+10	1
4902549	37	C	08/16/2021	01:04	-132.046	47.264	0	1195.40	0	2.8720	0	34.4240	0	27.444	0	1182.051	0	8.5	4	2.6	4	-1E+10	1	-1E+10	1	-1E+10	1	-1E+10	1	-1E+10	1	-1E+10	1
4902549	37	C	08/16/2021	01:04	-132.046	47.264	0	1205.40	0	2.8580	0	34.4260	0	27.447	0	1191.911	0	8.6	4	2.6	4	-1E+10	1	-1E+10	1	-1E+10	1	-1E+10	1	-1E+10	1	-1E+10	1
4902549	37	C	08/16/2021	01:04	-132.046	47.264	0	1215.50	0	2.8310	0	34.4280	0	27.451	0	1201.869	0	8.6	4	2.6	4	-1E+10	1	-1E+10	1	-1E+10	1	-1E+10	1	-1E+10	1	-1E+10	1
4902549	37	C	08/16/2021	01:04	-132.046	47.264	0	1225.20	0	2.8210	0	34.4290	0	27.453	0	1211.433	0	8.7	4	2.7	4	-1E+10	1	-1E+10	1	-1E+10	1	-1E+10	1	-1E+10	1	-1E+10	1
4902549	37	C	08/16/2021	01:04	-132.046	47.264	0	1235.40	0	2.8050	0	34.4310	0	27.456	0	1221.489	0	8.9	4	2.7	4	-1E+10	1	-1E+10	1	-1E+10	1	-1E+10	1	-1E+10	1	-1E+10	1
4902549	37	C	08/16/2021	01:04	-132.046	47.264	0	1245.50	0	2.7890	0	34.4350	0	27.461	0	1231.445	0	9.2	4	2.8	4	-1E+10	1	-1E+10	1	-1E+10	1	-1E+10	1	-1E+10	1	-1E+10	1
4902549	37	C	08/16/2021	01:04	-132.046	47.264	0	1255.10	0	2.7760	0	34.4380	0	27.464	0	1240.909	0	9.4	4	2.9	4	-1E+10	1	-1E+10	1	-1E+10	1	-1E+10	1	-1E+10	1	-1E+10	1
4902549	37	C	08/16/2021	01:04	-132.046	47.264	0	1265.30	0	2.7620	0	34.4410	0	27.468	0	1250.963	0	9.6	4	2.9	4	-1E+10	1	-1E+10	1	-1E+10	1	-1E+10	1	-1E+10	1	-1E+10	1
4902549	37	C	08/16/2021	01:04	-132.046	47.264	0	1275.40	0	2.7490	0	34.4430	0	27.471	0	1260.918	0	9.8	4	3.0	4	-1E+10	1	-1E+10	1	-1E+10	1	-1E+10	1	-1E+10	1	-1E+10	1
4902549	37	C	08/16/2021	01:04	-132.046	47.264	0	1285.50	0	2.7370	0	34.4450	0	27.473	0	1270.873	0	10.0	4	3.1	4	-1E+10	1	-1E+10	1	-1E+10	1	-1E+10	1	-1E+10	1	-1E+10	1
4902549	37	C	08/16/2021	01:04	-132.046	47.264	0	1295.90	0	2.7150	0	34.4480	0	27.478	0	1281.123	0	10.2	4	3.1	4	-1E+10	1	-1E+10	1	-1E+10	1	-1E+10	1	-1E+10	1	-1E+10	1
4902549	37	C	08/16/2021	01:04	-132.046	47.264	0	1305.70	0	2.6950	0	34.4500	0	27.481	0	1290.781	0	10.4	4	3.2	4	-1E+10	1	-1E+10	1	-1E+10	1	-1E+10	1	-1E+10	1	-1E+10	1
4902549	37	C	08/16/2021	01:04	-132.046	47.264	0	1315.60	0	2.6740	0	34.4530	0	27.485	0	1300.538	0	10.7	4	3.3	4	-1E+10	1	-1E+10	1	-1E+10	1	-1E+10	1	-1E+10	1	-1E+10	1
4902549	37	C	08/16/2021	01:04	-132.046	47.264	0	1325.60	0	2.6610	0	34.4540	0	27.487	0	1310.392	0	10.9	4	3.3	4	-1E+10	1	-1E+10	1	-1E+10	1	-1E+10	1	-1E+10	1	-1E+10	1
4902549	37	C	08/16/2021	01:04	-132.046	47.264	0	1335.30	0	2.6430	0	34.4570	0	27.491	0	1319.951	0	11.3	4	3.5	4	-1E+10	1	-1E+10	1	-1E+10	1	-1E+10	1	-1E+10	1	-1E+10	1
4902549	37	C	08/16/2021	01:04	-132.046	47.264	0	1345.10	0	2.6300	0	34.4600	0	27.495	0	1329.607	0	11.6	4	3.6	4	-1E+10	1	-1E+10	1	-1E+10	1	-1E+10	1	-1E+10	1	-1E+10	1
4902549	37	C	08/16/2021	01:04	-132.046	47.264	0	1355.50	0	2.6210	0	34.4620	0	27.497	0	1339.854	0	12.0	4	3.7	4	-1E+10	1	-1E+10	1	-1E+10	1	-1E+10	1	-1E+10	1	-1E+10	1
4902549	37	C	08/16/2021	01:04	-132.046	47.264	0	1365.50	0	2.6080	0	34.4640	0	27.500	0	1349.707	0	12.4	4	3.8	4	-1E+10	1	-1E+10	1	-1E+10	1	-1E+10	1	-1E+10	1	-1E+10	1
4902549	37	C	08/16/2021	01:04	-132.046	47.264	0	1375.40	0	2.5900	0	34.4660	0	27.503	0	1359.460	0	12.6	4	3.9	4	-1E+10	1	-1E+10	1	-1E+10	1	-1E+10	1	-1E+10	1	-1E+10	1
4902549	37	C	08/16/2021	01:04	-132.046	47.264	0	1385.20	0	2.5830	0	34.4680	0	27.505	0	1369.115	0	13.0	4	4.0	4	-1E+10	1	-1E+10	1	-1E+10	1	-1E+10	1	-1E+10	1	-1E+10	1
4902549	37	C	08/16/2021	01:04	-132.046	47.264	0	1395.40	0	2.5650	0	34.4710	0	27.509	0	1379.163	0	13.6	4	4.2	4	-1E+10	1	-1E+10	1	-1E+10	1	-1E+10	1	-1E+10	1	-1E+10	1
4902549	37	C	08/16/2021	01:04	-132.046	47.264	0	1405.50	0	2.5440	0	34.4740	0	27.514	0	1389.113	0	14.0	4	4.3	4	-1E+10	1	-1E+10	1	-1E+10	1	-1E+10	1	-1E+10	1	-1E+10	1
4902549	37	C	08/16/2021	01:04	-132.046	47.264	0	1415.20	0	2.5320	0	34.4770	0	27.517	0	1398.667	0	14.4	4	4.4	4	-1E+10	1	-1E+10	1	-1E+10	1	-1E+10	1	-1E+10	1	-1E+10	1
4902549	37	C	08/16/2021	01:04	-132.046	47.264	0	1425.00	0	2.5180	0	34.4790	0	27.520	0	1408.320	0	14.6	4	4.5	4	-1E+10	1	-1E+10	1	-1E+10	1	-1E+10	1	-1E+10	1	-1E+10	1
4902549	37	C	08/16/2021	01:04	-132.046	47.264	0	1435.30	0	2.5040	0	34.4800	0	27.522	0	1418.465	0	14.9	4	4.5	4	-1E+10	1	-1E+10	1	-1E+10	1	-1E+10	1	-1E+10	1	-1E+10	1
4902549	37	C	08/16/2021	01:04	-132.046	47.264	0	1445.50	0	2.4890	0	34.4820	0	27.525	0	1428.511	0	15.3	4	4.7	4	-1E+10	1	-1E+10	1	-1E+10	1	-1E+10	1	-1E+10	1	-1E+10	1
4902549	37	C	08/16/2021	01:04	-132.046	47.264	0	1455.40	0	2.4740	0	34.4850	0	27.529	0	1438.261	0	16.0	4	4.9	4	-1E+10	1	-1E+10	1	-1E+10	1	-1E+10	1	-1E+10	1	-1E+10	1
4902549	37	C	08/16/2021	01:04	-132.046	47.264	0	1465.40	0	2.4590	0	34.4880	0	27.532	0	1448.109	0	16.6	4	5.1	4	-1E+10	1	-1E+10	1	-1E+10	1	-1E+10	1	-1E+10	1	-1E+10	1
4902549	37	C	08/16/2021	01:04	-132.046	47.264	0	1475.60	0	2.4470	0	34.4910	0	27.536	0	1458.153	0	17.3	4	5.3	4	-1E+10	1	-1E+10	1	-1E+10	1	-1E+10	1	-1E+10	1	-1E+10	1
4902549	37	C	08/16/2021	01:04	-132.046	47.264	0	1485.30	0	2.4320	0	34.4940	0	27.539	0	1467.705	0	18.0	4	5.5	4	-1E+10	1	-1E+10	1	-1E+10	1	-1E+10	1	-1E+10	1	-1E+10	1
4902549	37	C	08/16/2021	01:04	-132.046	47.264	0	1495.30	0	2.4180	0	34.4970	0	27.543	0	1477.552	0	18.5	4	5.6	4	-1E+10	1	-1E+10	1	-1E+10	1	-1E+10	1	-1E+10	1	-1E+10	1
4902549	37	C	08/16/2021	01:04	-132.046	47.264	0	1505.50	0	2.4060	0	34.4990	0	27.546	0	1487.595	0	19.0	4	5.8	4	-1E+10	1	-1E+10	1	-1E+10	1	-1E+10	1	-1E+10	1	-1E+10	1
4902549	37	C	08/16/2021	01:04	-132.046	47.264	0	1515.30	0	2.3930	0	34.5010	0	27.548	0	1497.243	0	19.6	4	6.0	4	-1E+10	1	-1E+10	1	-1E+10	1	-1E+10	1	-1E+10	1	-1E+10	1
4902549	37	C	08/16/2021	01:04	-132.046	47.264	0	1525.30	0	2.3830	0	34.5040	0	27.552	0	1507.089	0	20.5	4	6.2	4	-1E+10	1	-1E+10	1	-1E+10	1	-1E+10	1	-1E+10	1	-1E+10	1
4902549	37	C	08/16/2021	01:04	-132.046	47.264	0	1535.60	0	2.3680	0	34.5080	0	27.556	0	1517.229	0	21.2	4	6.5	4	-1E+10	1	-1E+10	1	-1E+10	1	-1E+10	1	-1E+10	1	-1E+10	1
4902549	37	C	08/16/2021	01:04	-132.046	47.264	0	1545.40	0	2.3470	0	34.5090	0	27.559	0	1526.876	0	21.7	4	6.6	4	-1E+10	1	-1E+10	1	-1E+10	1	-1E+10	1	-1E+10	1	-1E+10	1
4902549	37	C	08/16/2021	01:04	-132.046	47.264	0	1555.50	0	2.3380	0	34.5110	0	27.561	0	1536.818	0	22.1	4	6.7	4	-1E+10	1	-1E+10	1	-1E+10	1	-1E+10	1	-1E+10	1	-1E+10	1
4902549	37	C	08/16/2021	01:04	-132.046	47.264	0	1565.80	0	2.3300	0	34.5120	0	27.563	0	1546.957	0	22.5	4	6.8	4	-1E+10	1	-1E+10	1	-1E+10	1	-1E+10	1	-1E+10	1	-1E+10	1
4902549	37	C	08/16/2021	01:04	-132.046	47.264	0	1575.50	0	2.3280	0	34.5130	0	27.564	0	1556.505	0	23.1	4	7.0	4	-1E+10	1	-1E+10	1	-1E+10	1	-1E+10	1	-1E+10	1	-1E+10	1
4902549	37	C	08/16/2021	01:04	-132.046	47.264	0	1585.30	0	2.3190	0	34.5160	0	27.567	0	1566.150	0	23.6	4	7.2	4	-1E+10	1	-1E+10	1	-1E+10	1	-1E+10	1	-1E+10	1	-1E+10	1
4902549	37	C	08/16/2021	01:04	-132.046	47.264	0	1595.60	0	2.3030	0	34.5180	0	27.570	0	1576.287	0	24.0	4	7.3	4	-1E+10	1	-1E+10	1	-1E+10	1	-1E+10	1	-1E+10	1	-1E+10	1
4902549	37	C	08/16/2021	01:04	-132.046	47.264	0	1605.50	0	2.2900	0	34.5190	0	27.572	0	1586.031	0	24.4	4	7.4	4	-1E+10	1	-1E+10	1	-1E+10	1	-1E+10	1	-1E+10	1	-1E+10	1
4902549	37	C	08/16/2021	01:04	-132.046	47.264	0	1615.50	0	2.2800	0	34.5210	0	27.574	0	1595.872	0	24.8	4	7.5	4	-1E+10	1	-1E+10	1	-1E+10	1	-1E+10	1	-1E+10	1	-1E+10	1
4902549	37	C	08/16/2021	01:04	-132.046	47.264	0	1625.70	0	2.2680	0	34.5220	0	27.576	0	1605.909	0	25.3	4	7.7	4	-1E+10	1	-1E+10	1	-1E+10	1	-1E+10	1	-1E+10	1	-1E+10	1
4902549	37	C	08/16/2021	01:04	-132.046	47.264	0	1635.10	0	2.2560	0	34.5240	0	27.579	0	1615.159	0	25.9	4	7.8	4	-1E+10	1	-1E+10	1	-1E+10	1	-1E+10	1	-1E+10	1	-1E+10	1
4902549	37	C	08/16/2021	01:04	-132.046	47.264	0	1645.10	0	2.2470	0	34.5260	0	27.581	0	1624.998	0	26.2	4	7.9	4	-1E+10	1	-1E+10	1	-1E+10	1	-1E+10	1	-1E+10	1	-1E+10	1
4902549	37	C	08/16/2021	01:04	-132.046	47.264	0	1655.20	0	2.2450	0	34.5270	0	27.582	0	1634.936	0	26.6	4	8.1	4	-1E+10	1	-1E+10	1	-1E+10	1	-1E+10	1	-1E+10	1	-1E+10	1
4902549	37	C	08/16/2021	01:04	-132.046	47.264	0	1665.30	0	2.2400	0	34.5280	0	27.583	0	1644.873	0	26.9	4	8.2	4	-1E+10	1	-1E+10	1	-1E+10	1	-1E+10	1	-1E+10	1	-1E+10	1
4902549	37	C	08/16/2021	01:04	-132.046	47.264	0	1675.30	0	2.2350	0	34.5290	0	27.585	0	1654.712	0	27.2	4	8.3	4	-1E+10	1	-1E+10	1	-1E+10	1	-1E+10	1	-1E+10	1	-1E+10	1
4902549	37	C	08/16/2021	01:04	-132.046	47.264	0	1685.40	0	2.2300	0	34.5300	0	27.586	0	1664.648	0	27.7	4	8.4	4	-1E+10	1	-1E+10	1	-1E+10	1	-1E+10	1	-1E+10	1	-1E+10	1
4902549	37	C	08/16/2021	01:04	-132.046	47.264	0	1695.50	0	2.2210	0	34.5320	0	27.588	0	1674.584	0	28.4	4	8.6	4	-1E+10	1	-1E+10	1	-1E+10	1	-1E+10	1	-1E+10	1	-1E+10	1
4902549	37	C	08/16/2021	01:04	-132.046	47.264	0	1705.30	0	2.2080	0	34.5340	0	27.591	0	1684.224	0	29.0	4	8.8	4	-1E+10	1	-1E+10	1	-1E+10	1	-1E+10	1	-1E+10	1	-1E+10	1
4902549	37	C	08/16/2021	01:04	-132.046	47.264	0	1715.30	0	2.1920	0	34.5360	0	27.594	0	1694.060	0	29.7	4	9.0	4	-1E+10	1	-1E+10	1	-1E+10	1	-1E+10	1	-1E+10	1	-1E+10	1
4902549	37	C	08/16/2021	01:04	-132.046	47.264	0	1725.70	0	2.1770	0	34.5380	0	27.597	0	1704.290	0	30.7	4	9.3	4	-1E+10	1	-1E+10	1	-1E+10	1	-1E+10	1	-1E+10	1	-1E+10	1
4902549	37	C	08/16/2021	01:04	-132.046	47.264	0	1735.40	0	2.1630	0	34.5410	0	27.600	0	1713.830	0	31.6	4	9.6	4	-1E+10	1	-1E+10	1	-1E+10	1	-1E+10	1	-1E+10	1	-1E+10	1
4902549	37	C	08/16/2021	01:04	-132.046	47.264	0	1745.30	0	2.1550	0	34.5430	0	27.603	0	1723.567	0	32.1	4	9.7	4	-1E+10	1	-1E+10	1	-1E+10	1	-1E+10	1	-1E+10	1	-1E+10	1
4902549	37	C	08/16/2021	01:04	-132.046	47.264	0	1755.30	0	2.1450	0	34.5440	0	27.604	0	1733.402	0	32.6	4	9.9	4	-1E+10	1	-1E+10	1	-1E+10	1	-1E+10	1	-1E+10	1	-1E+10	1
4902549	37	C	08/16/2021	01:04	-132.046	47.264	0	1765.20	0	2.1390	0	34.5460	0	27.606	0	1743.138	0	33.0	4	10.0	4	-1E+10	1	-1E+10	1	-1E+10	1	-1E+10	1	-1E+10	1	-1E+10	1
4902549	37	C	08/16/2021	01:04	-132.046	47.264	0	1775.10	0	2.1310	0	34.5470	0	27.608	0	1752.873	0	33.6	4	10.2	4	-1E+10	1	-1E+10	1	-1E+10	1	-1E+10	1	-1E+10	1	-1E+10	1
4902549	37	C	08/16/2021	01:04	-132.046	47.264	0	1785.20	0	2.1250	0	34.5480	0	27.609	0	1762.805	0	34.2	4	10.3	4	-1E+10	1	-1E+10	1	-1E+10	1	-1E+10	1	-1E+10	1	-1E+10	1
4902549	37	C	08/16/2021	01:04	-132.046	47.264	0	1795.40	0	2.1170	0	34.5500	0	27.611	0	1772.834	0	34.9	4	10.5	4	-1E+10	1	-1E+10	1	-1E+10	1	-1E+10	1	-1E+10	1	-1E+10	1
4902549	37	C	08/16/2021	01:04	-132.046	47.264	0	1805.60	0	2.1100	0	34.5520	0	27.614	0	1782.863	0	35.5	4	10.7	4	-1E+10	1	-1E+10	1	-1E+10	1	-1E+10	1	-1E+10	1	-1E+10	1
4902549	37	C	08/16/2021	01:04	-132.046	47.264	0	1815.40	0	2.1050	0	34.5520	0	27.614	0	1792.498	0	36.1	4	10.9	4	-1E+10	1	-1E+10	1	-1E+10	1	-1E+10	1	-1E+10	1	-1E+10	1
4902549	37	C	08/16/2021	01:04	-132.046	47.264	0	1825.20	0	2.0950	0	34.5540	0	27.617	0	1802.133	0	36.9	4	11.1	4	-1E+10	1	-1E+10	1	-1E+10	1	-1E+10	1	-1E+10	1	-1E+10	1
4902549	37	C	08/16/2021	01:04	-132.046	47.264	0	1835.60	0	2.0850	0	34.5560	0	27.619	0	1812.358	0	37.7	4	11.4	4	-1E+10	1	-1E+10	1	-1E+10	1	-1E+10	1	-1E+10	1	-1E+10	1
4902549	37	C	08/16/2021	01:04	-132.046	47.264	0	1845.70	0	2.0800	0	34.5590	0	27.622	0	1822.286	0	38.8	4	11.7	4	-1E+10	1	-1E+10	1	-1E+10	1	-1E+10	1	-1E+10	1	-1E+10	1
4902549	37	C	08/16/2021	01:04	-132.046	47.264	0	1855.70	0	2.0770	0	34.5610	0	27.624	0	1832.116	0	39.3	4	11.9	4	-1E+10	1	-1E+10	1	-1E+10	1	-1E+10	1	-1E+10	1	-1E+10	1
4902549	37	C	08/16/2021	01:04	-132.046	47.264	0	1865.40	0	2.0730	0	34.5620	0	27.625	0	1841.651	0	40.0	4	12.1	4	-1E+10	1	-1E+10	1	-1E+10	1	-1E+10	1	-1E+10	1	-1E+10	1
4902549	37	C	08/16/2021	01:04	-132.046	47.264	0	1875.20	0	2.0690	0	34.5630	0	27.626	0	1851.284	0	40.6	4	12.3	4	-1E+10	1	-1E+10	1	-1E+10	1	-1E+10	1	-1E+10	1	-1E+10	1
4902549	37	C	08/16/2021	01:04	-132.046	47.264	0	1885.80	0	2.0620	0	34.5650	0	27.628	0	1861.702	0	41.4	4	12.5	4	-1E+10	1	-1E+10	1	-1E+10	1	-1E+10	1	-1E+10	1	-1E+10	1
4902549	37	C	08/16/2021	01:04	-132.046	47.264	0	1895.50	0	2.0540	0	34.5670	0	27.631	0	1871.236	0	42.1	4	12.7	4	-1E+10	1	-1E+10	1	-1E+10	1	-1E+10	1	-1E+10	1	-1E+10	1
4902549	37	C	08/16/2021	01:04	-132.046	47.264	0	1905.20	0	2.0430	0	34.5680	0	27.632	0	1880.769	0	43.0	4	13.0	4	-1E+10	1	-1E+10	1	-1E+10	1	-1E+10	1	-1E+10	1	-1E+10	1
4902549	37	C	08/16/2021	01:04	-132.046	47.264	0	1915.50	0	2.0290	0	34.5710	0	27.636	0	1890.891	0	43.9	4	13.2	4	-1E+10	1	-1E+10	1	-1E+10	1	-1E+10	1	-1E+10	1	-1E+10	1
4902549	37	C	08/16/2021	01:04	-132.046	47.264	0	1925.80	0	2.0190	0	34.5730	0	27.638	0	1901.013	0	44.7	4	13.5	4	-1E+10	1	-1E+10	1	-1E+10	1	-1E+10	1	-1E+10	1	-1E+10	1
4902549	37	C	08/16/2021	01:04	-132.046	47.264	0	1935.40	0	2.0100	0	34.5740	0	27.640	0	1910.446	0	45.5	4	13.7	4	-1E+10	1	-1E+10	1	-1E+10	1	-1E+10	1	-1E+10	1	-1E+10	1
4902549	37	C	08/16/2021	01:04	-132.046	47.264	0	1945.10	0	2.0000	0	34.5760	0	27.642	0	1919.977	0	46.2	4	13.9	4	-1E+10	1	-1E+10	1	-1E+10	1	-1E+10	1	-1E+10	1	-1E+10	1
4902549	37	C	08/16/2021	01:04	-132.046	47.264	0	1955.30	0	1.9950	0	34.5770	0	27.644	0	1929.999	0	46.8	4	14.1	4	-1E+10	1	-1E+10	1	-1E+10	1	-1E+10	1	-1E+10	1	-1E+10	1
4902549	37	C	08/16/2021	01:04	-132.046	47.264	0	1965.40	0	1.9870	0	34.5790	0	27.646	0	1939.923	0	47.7	4	14.4	4	-1E+10	1	-1E+10	1	-1E+10	1	-1E+10	1	-1E+10	1	-1E+10	1
4902549	37	C	08/16/2021	01:04	-132.046	47.264	0	1975.20	0	1.9770	0	34.5800	0	27.647	0	1949.551	0	48.5	4	14.6	4	-1E+10	1	-1E+10	1	-1E+10	1	-1E+10	1	-1E+10	1	-1E+10	1
4902549	37	C	08/16/2021	01:04	-132.046	47.264	0	1985.20	0	1.9670	0	34.5820	0	27.650	0	1959.375	0	49.1	4	14.8	4	-1E+10	1	-1E+10	1	-1E+10	1	-1E+10	1	-1E+10	1	-1E+10	1
4902549	37	C	08/16/2021	01:04	-132.046	47.264	0	1995.20	0	1.9610	0	34.5830	0	27.651	0	1969.199	0	49.6	4	14.9	4	-1E+10	1	-1E+10	1	-1E+10	1	-1E+10	1	-1E+10	1	-1E+10	1
4902549	37	C	08/16/2021	01:04	-132.046	47.264	0	2005.30	0	1.9540	0	34.5840	0	27.653	0	1979.120	0	50.0	4	15.1	4	-1E+10	1	-1E+10	1	-1E+10	1	-1E+10	1	-1E+10	1	-1E+10	1
4902549	37	C	08/16/2021	01:04	-132.046	47.264	0	2015.60	0	1.9500	0	34.5850	0	27.654	0	1989.238	0	50.3	4	15.2	4	-1E+10	1	-1E+10	1	-1E+10	1	-1E+10	1	-1E+10	1	-1E+10	1
4902549	37	C	08/16/2021	01:04	-132.046	47.264	0	2025.80	0	1.9450	0	34.5860	0	27.655	0	1999.257	0	50.7	4	15.3	4	-1E+10	1	-1E+10	1	-1E+10	1	-1E+10	1	-1E+10	1	-1E+10	1
4902549	37	C	08/16/2021	01:04	-132.046	47.264	0	2031.70	0	1.9380	0	34.5870	0	27.656	0	2005.051	0	50.8	4	15.3	4	-1E+10	1	-1E+10	1	-1E+10	1	-1E+10	1	-1E+10	1	-1E+10	1
4902549	37	C	08/16/2021	01:04	-132.046	47.264	0																										
4902549	38	C	08/26/2021	06:03	-131.952	47.233	0	0.40	0	16.5180	0	32.2900	0	23.548	0	0.397	0	241.0	4	98.3	4	-1E+10	1	-1E+10	1	-1E+10	1	-1E+10	1	-1E+10	1	-1E+10	1
4902549	38	C	08/26/2021	06:03	-131.952	47.233	0	1.00	0	16.5170	0	32.2820	0	23.542	0	0.992	0	241.0	4	98.3	4	-1E+10	1	-1E+10	1	-1E+10	1	-1E+10	1	-1E+10	1	-1E+10	1
4902549	38	C	08/26/2021	06:03	-131.952	47.233	0	2.10	0	16.5190	0	32.2830	0	23.542	0	2.083	0	241.0	4	98.3	4	-1E+10	1	-1E+10	1	-1E+10	1	-1E+10	1	-1E+10	1	-1E+10	1
4902549	38	C	08/26/2021	06:03	-131.952	47.233	0	3.00	0	16.5190	0	32.3010	0	23.556	0	2.975	0	241.0	4	98.3	4	-1E+10	1	-1E+10	1	-1E+10	1	-1E+10	1	-1E+10	1	-1E+10	1
4902549	38	C	08/26/2021	06:03	-131.952	47.233	0	4.10	0	16.5190	0	32.3130	0	23.565	0	4.066	0	241.0	4	98.4	4	-1E+10	1	-1E+10	1	-1E+10	1	-1E+10	1	-1E+10	1	-1E+10	1
4902549	38	C	08/26/2021	06:03	-131.952	47.233	0	5.10	0	16.5240	0	32.3100	0	23.562	0	5.057	0	241.0	4	98.4	4	-1E+10	1	-1E+10	1	-1E+10	1	-1E+10	1	-1E+10	1	-1E+10	1
4902549	38	C	08/26/2021	06:03	-131.952	47.233	0	6.20	0	16.5240	0	32.3100	0	23.562	0	6.148	0	241.1	4	98.4	4	-1E+10	1	-1E+10	1	-1E+10	1	-1E+10	1	-1E+10	1	-1E+10	1
4902549	38	C	08/26/2021	06:03	-131.952	47.233	0	7.00	0	16.5240	0	32.3100	0	23.562	0	6.942	0	241.2	4	98.4	4	-1E+10	1	-1E+10	1	-1E+10	1	-1E+10	1	-1E+10	1	-1E+10	1
4902549	38	C	08/26/2021	06:03	-131.952	47.233	0	8.10	0	16.5230	0	32.3110	0	23.563	0	8.032	0	241.1	4	98.4	4	-1E+10	1	-1E+10	1	-1E+10	1	-1E+10	1	-1E+10	1	-1E+10	1
4902549	38	C	08/26/2021	06:03	-131.952	47.233	0	9.10	0	16.5240	0	32.3080	0	23.560	0	9.024	0	241.2	4	98.4	4	-1E+10	1	-1E+10	1	-1E+10	1	-1E+10	1	-1E+10	1	-1E+10	1
4902549	38	C	08/26/2021	06:03	-131.952	47.233	0	10.30	0	16.5230	0	32.3110	0	23.563	0	10.214	0	241.1	4	98.4	4	-1E+10	1	-1E+10	1	-1E+10	1	-1E+10	1	-1E+10	1	-1E+10	1
4902549	38	C	08/26/2021	06:03	-131.952	47.233	0	11.20	0	16.5240	0	32.3110	0	23.563	0	11.106	0	241.3	4	98.5	4	-1E+10	1	-1E+10	1	-1E+10	1	-1E+10	1	-1E+10	1	-1E+10	1
4902549	38	C	08/26/2021	06:03	-131.952	47.233	0	11.90	0	16.5220	0	32.3110	0	23.563	0	11.801	0	241.3	4	98.5	4	-1E+10	1	-1E+10	1	-1E+10	1	-1E+10	1	-1E+10	1	-1E+10	1
4902549	38	C	08/26/2021	06:03	-131.952	47.233	0	13.00	0	16.5230	0	32.3110	0	23.563	0	12.891	0	241.4	4	98.5	4	-1E+10	1	-1E+10	1	-1E+10	1	-1E+10	1	-1E+10	1	-1E+10	1
4902549	38	C	08/26/2021	06:03	-131.952	47.233	0	13.90	0	16.5230	0	32.3120	0	23.564	0	13.784	0	241.5	4	98.6	4	-1E+10	1	-1E+10	1	-1E+10	1	-1E+10	1	-1E+10	1	-1E+10	1
4902549	38	C	08/26/2021	06:03	-131.952	47.233	0	15.10	0	16.5230	0	32.3110	0	23.563	0	14.974	0	241.5	4	98.6	4	-1E+10	1	-1E+10	1	-1E+10	1	-1E+10	1	-1E+10	1	-1E+10	1
4902549	38	C	08/26/2021	06:03	-131.952	47.233	0	15.90	0	16.5230	0	32.3110	0	23.563	0	15.767	0	241.6	4	98.6	4	-1E+10	1	-1E+10	1	-1E+10	1	-1E+10	1	-1E+10	1	-1E+10	1
4902549	38	C	08/26/2021	06:03	-131.952	47.233	0	17.10	0	16.5240	0	32.3110	0	23.563	0	16.957	0	241.8	4	98.7	4	-1E+10	1	-1E+10	1	-1E+10	1	-1E+10	1	-1E+10	1	-1E+10	1
4902549	38	C	08/26/2021	06:03	-131.952	47.233	0	17.80	0	16.5240	0	32.3120	0	23.564	0	17.651	0	242.0	4	98.8	4	-1E+10	1	-1E+10	1	-1E+10	1	-1E+10	1	-1E+10	1	-1E+10	1
4902549	38	C	08/26/2021	06:03	-131.952	47.233	0	19.00	0	16.5240	0	32.3110	0	23.563	0	18.841	0	242.3	4	98.9	4	-1E+10	1	-1E+10	1	-1E+10	1	-1E+10	1	-1E+10	1	-1E+10	1
4902549	38	C	08/26/2021	06:03	-131.952	47.233	0	20.20	0	16.5220	0	32.3120	0	23.564	0	20.031	0	242.8	4	99.1	4	-1E+10	1	-1E+10	1	-1E+10	1	-1E+10	1	-1E+10	1	-1E+10	1
4902549	38	C	08/26/2021	06:03	-131.952	47.233	0	21.00	0	16.5170	0	32.3110	0	23.565	0	20.824	0	243.2	4	99.2	4	-1E+10	1	-1E+10	1	-1E+10	1	-1E+10	1	-1E+10	1	-1E+10	1
4902549	38	C	08/26/2021	06:03	-131.952	47.233	0	22.20	0	16.5230	0	32.3110	0	23.563	0	22.014	0	243.9	4	99.5	4	-1E+10	1	-1E+10	1	-1E+10	1	-1E+10	1	-1E+10	1	-1E+10	1
4902549	38	C	08/26/2021	06:03	-131.952	47.233	0	22.90	0	16.5150	0	32.3080	0	23.563	0	22.708	0	244.6	4	99.8	4	-1E+10	1	-1E+10	1	-1E+10	1	-1E+10	1	-1E+10	1	-1E+10	1
4902549	38	C	08/26/2021	06:03	-131.952	47.233	0	24.00	0	16.5110	0	32.3070	0	23.563	0	23.799	0	246.1	4	100.4	4	-1E+10	1	-1E+10	1	-1E+10	1	-1E+10	1	-1E+10	1	-1E+10	1
4902549	38	C	08/26/2021	06:03	-131.952	47.233	0	25.10	0	16.4880	0	32.3090	0	23.570	0	24.890	0	247.8	4	101.1	4	-1E+10	1	-1E+10	1	-1E+10	1	-1E+10	1	-1E+10	1	-1E+10	1
4902549	38	C	08/26/2021	06:03	-131.952	47.233	0	26.00	0	16.4230	0	32.3080	0	23.584	0	25.782	0	250.2	4	101.9	4	-1E+10	1	-1E+10	1	-1E+10	1	-1E+10	1	-1E+10	1	-1E+10	1
4902549	38	C	08/26/2021	06:03	-131.952	47.233	0	26.90	0	16.3460	0	32.2990	0	23.595	0	26.674	0	253.5	4	103.1	4	-1E+10	1	-1E+10	1	-1E+10	1	-1E+10	1	-1E+10	1	-1E+10	1
4902549	38	C	08/26/2021	06:03	-131.952	47.233	0	27.80	0	16.1650	0	32.2970	0	23.634	0	27.567	0	256.4	4	103.9	4	-1E+10	1	-1E+10	1	-1E+10	1	-1E+10	1	-1E+10	1	-1E+10	1
4902549	38	C	08/26/2021	06:03	-131.952	47.233	0	28.70	0	15.6540	0	32.3030	0	23.753	0	28.459	0	260.0	4	104.3	4	-1E+10	1	-1E+10	1	-1E+10	1	-1E+10	1	-1E+10	1	-1E+10	1
4902549	38	C	08/26/2021	06:03	-131.952	47.233	0	29.70	0	15.0940	0	32.3190	0	23.887	0	29.451	0	263.5	4	104.6	4	-1E+10	1	-1E+10	1	-1E+10	1	-1E+10	1	-1E+10	1	-1E+10	1
4902549	38	C	08/26/2021	06:03	-131.952	47.233	0	31.10	0	14.8910	0	32.3040	0	23.919	0	30.839	0	266.3	4	105.2	4	-1E+10	1	-1E+10	1	-1E+10	1	-1E+10	1	-1E+10	1	-1E+10	1
4902549	38	C	08/26/2021	06:03	-131.952	47.233	0	32.00	0	14.7650	0	32.3020	0	23.945	0	31.731	0	267.8	4	105.6	4	-1E+10	1	-1E+10	1	-1E+10	1	-1E+10	1	-1E+10	1	-1E+10	1
4902549	38	C	08/26/2021	06:03	-131.952	47.233	0	33.10	0	14.4340	0	32.2910	0	24.006	0	32.822	0	272.5	4	106.7	4	-1E+10	1	-1E+10	1	-1E+10	1	-1E+10	1	-1E+10	1	-1E+10	1
4902549	38	C	08/26/2021	06:03	-131.952	47.233	0	34.10	0	13.7610	0	32.2920	0	24.146	0	33.813	0	276.1	4	106.7	4	-1E+10	1	-1E+10	1	-1E+10	1	-1E+10	1	-1E+10	1	-1E+10	1
4902549	38	C	08/26/2021	06:03	-131.952	47.233	0	35.10	0	13.0610	0	32.3060	0	24.296	0	34.805	0	279.5	4	106.5	4	-1E+10	1	-1E+10	1	-1E+10	1	-1E+10	1	-1E+10	1	-1E+10	1
4902549	38	C	08/26/2021	06:03	-131.952	47.233	0	36.10	0	12.6330	0	32.3250	0	24.394	0	35.796	0	280.4	4	105.9	4	-1E+10	1	-1E+10	1	-1E+10	1	-1E+10	1	-1E+10	1	-1E+10	1
4902549	38	C	08/26/2021	06:03	-131.952	47.233	0	37.10	0	12.3890	0	32.3200	0	24.437	0	36.788	0	280.6	4	105.5	4	-1E+10	1	-1E+10	1	-1E+10	1	-1E+10	1	-1E+10	1	-1E+10	1
4902549	38	C	08/26/2021	06:03	-131.952	47.233	0	38.00	0	12.2250	0	32.3350	0	24.479	0	37.680	0	280.6	4	105.1	4	-1E+10	1	-1E+10	1	-1E+10	1	-1E+10	1	-1E+10	1	-1E+10	1
4902549	38	C	08/26/2021	06:03	-131.952	47.233	0	38.90	0	11.9610	0	32.3320	0	24.526	0	38.573	0	281.4	4	104.8	4	-1E+10	1	-1E+10	1	-1E+10	1	-1E+10	1	-1E+10	1	-1E+10	1
4902549	38	C	08/26/2021	06:03	-131.952	47.233	0	40.00	0	11.7530	0	32.3360	0	24.568	0	39.663	0	281.9	4	104.5	4	-1E+10	1	-1E+10	1	-1E+10	1	-1E+10	1	-1E+10	1	-1E+10	1
4902549	38	C	08/26/2021	06:03	-131.952	47.233	0	40.90	0	11.6190	0	32.3420	0	24.597	0	40.556	0	282.0	4	104.3	4	-1E+10	1	-1E+10	1	-1E+10	1	-1E+10	1	-1E+10	1	-1E+10	1
4902549	38	C	08/26/2021	06:03	-131.952	47.233	0	41.80	0	11.5440	0	32.3370	0	24.607	0	41.448	0	282.0	4	104.1	4	-1E+10	1	-1E+10	1	-1E+10	1	-1E+10	1	-1E+10	1	-1E+10	1
4902549	38	C	08/26/2021	06:03	-131.952	47.233	0	42.80	0	11.4530	0	32.3390	0	24.625	0	42.439	0	281.7	4	103.8	4	-1E+10	1	-1E+10	1	-1E+10	1	-1E+10	1	-1E+10	1	-1E+10	1
4902549	38	C	08/26/2021	06:03	-131.952	47.233	0	43.90	0	11.3700	0	32.3420	0	24.642	0	43.530	0	281.0	4	103.4	4	-1E+10	1	-1E+10	1	-1E+10	1	-1E+10	1	-1E+10	1	-1E+10	1
4902549	38	C	08/26/2021	06:03	-131.952	47.233	0	45.00	0	11.2200	0	32.3410	0	24.668	0	44.621	0	279.6	4	102.5	4	-1E+10	1	-1E+10	1	-1E+10	1	-1E+10	1	-1E+10	1	-1E+10	1
4902549	38	C	08/26/2021	06:03	-131.952	47.233	0	46.00	0	10.8920	0	32.3460	0	24.730	0	45.612	0	279.6	4	101.8	4	-1E+10	1	-1E+10	1	-1E+10	1	-1E+10	1	-1E+10	1	-1E+10	1
4902549	38	C	08/26/2021	06:03	-131.952	47.233	0	47.10	0	10.6820	0	32.3450	0	24.765	0	46.703	0	279.2	4	101.2	4	-1E+10	1	-1E+10	1	-1E+10	1	-1E+10	1	-1E+10	1	-1E+10	1
4902549	38	C	08/26/2021	06:03	-131.952	47.233	0	48.10	0	10.4250	0	32.3570	0	24.819	0	47.694	0	279.6	4	100.8	4	-1E+10	1	-1E+10	1	-1E+10	1	-1E+10	1	-1E+10	1	-1E+10	1
4902549	38	C	08/26/2021	06:03	-131.952	47.233	0	48.90	0	10.3580	0	32.3580	0	24.831	0	48.487	0	279.3	4	100.6	4	-1E+10	1	-1E+10	1	-1E+10	1	-1E+10	1	-1E+10	1	-1E+10	1
4902549	38	C	08/26/2021	06:03	-131.952	47.233	0	50.20	0	10.2140	0	32.3630	0	24.859	0	49.776	0	279.2	4	100.2	4	-1E+10	1	-1E+10	1	-1E+10	1	-1E+10	1	-1E+10	1	-1E+10	1
4902549	38	C	08/26/2021	06:03	-131.952	47.233	0	50.90	0	10.1410	0	32.3650	0	24.873	0	50.470	0	279.2	4	100.1	4	-1E+10	1	-1E+10	1	-1E+10	1	-1E+10	1	-1E+10	1	-1E+10	1
4902549	38	C	08/26/2021	06:03	-131.952	47.233	0	51.90	0	10.0920	0	32.3640	0	24.880	0	51.462	0	278.9	4	99.9	4	-1E+10	1	-1E+10	1	-1E+10	1	-1E+10	1	-1E+10	1	-1E+10	1
4902549	38	C	08/26/2021	06:03	-131.952	47.233	0	52.90	0	10.0690	0	32.3640	0	24.884	0	52.453	0	278.4	4	99.6	4	-1E+10	1	-1E+10	1	-1E+10	1	-1E+10	1	-1E+10	1	-1E+10	1
4902549	38	C	08/26/2021	06:03	-131.952	47.233	0	53.90	0	10.0370	0	32.3650	0	24.890	0	53.444	0	278.0	4	99.4	4	-1E+10	1	-1E+10	1	-1E+10	1	-1E+10	1	-1E+10	1	-1E+10	1
4902549	38	C	08/26/2021	06:03	-131.952	47.233	0	54.90	0	10.0150	0	32.3660	0	24.895	0	54.436	0	277.2	4	99.1	4	-1E+10	1	-1E+10	1	-1E+10	1	-1E+10	1	-1E+10	1	-1E+10	1
4902549	38	C	08/26/2021	06:03	-131.952	47.233	0	56.10	0	9.9930	0	32.3660	0	24.898	0	55.626	0	276.1	4	98.6	4	-1E+10	1	-1E+10	1	-1E+10	1	-1E+10	1	-1E+10	1	-1E+10	1
4902549	38	C	08/26/2021	06:03	-131.952	47.233	0	56.90	0	9.9510	0	32.3620	0	24.902	0	56.419	0	275.2	4	98.2	4	-1E+10	1	-1E+10	1	-1E+10	1	-1E+10	1	-1E+10	1	-1E+10	1
4902549	38	C	08/26/2021	06:03	-131.952	47.233	0	58.10	0	9.7880	0	32.3800	0	24.943	0	57.608	0	274.3	4	97.6	4	-1E+10	1	-1E+10	1	-1E+10	1	-1E+10	1	-1E+10	1	-1E+10	1
4902549	38	C	08/26/2021	06:03	-131.952	47.233	0	58.90	0	9.5870	0	32.3760	0	24.973	0	58.402	0	274.5	4	97.2	4	-1E+10	1	-1E+10	1	-1E+10	1	-1E+10	1	-1E+10	1	-1E+10	1
4902549	38	C	08/26/2021	06:03	-131.952	47.233	0	60.10	0	9.4740	0	32.3770	0	24.991	0	59.591	0	273.8	4	96.7	4	-1E+10	1	-1E+10	1	-1E+10	1	-1E+10	1	-1E+10	1	-1E+10	1
4902549	38	C	08/26/2021	06:03	-131.952	47.233	0	61.00	0	9.4100	0	32.3780	0	25.002	0	60.483	0	272.6	4	96.2	4	-1E+10	1	-1E+10	1	-1E+10	1	-1E+10	1	-1E+10	1	-1E+10	1
4902549	38	C	08/26/2021	06:03	-131.952	47.233	0	62.10	0	9.1850	0	32.3950	0	25.051	0	61.574	0	272.4	4	95.7	4	-1E+10	1	-1E+10	1	-1E+10	1	-1E+10	1	-1E+10	1	-1E+10	1
4902549	38	C	08/26/2021	06:03	-131.952	47.233	0	62.80	0	9.0400	0	32.3920	0	25.072	0	62.268	0	272.4	4	95.3	4	-1E+10	1	-1E+10	1	-1E+10	1	-1E+10	1	-1E+10	1	-1E+10	1
4902549	38	C	08/26/2021	06:03	-131.952	47.233	0	63.80	0	8.8790	0	32.3970	0	25.100	0	63.259	0	272.6	4	95.1	4	-1E+10	1	-1E+10	1	-1E+10	1	-1E+10	1	-1E+10	1	-1E+10	1
4902549	38	C	08/26/2021	06:03	-131.952	47.233	0	64.90	0	8.7490	0	32.4020	0	25.124	0	64.350	0	272.9	4	94.9	4	-1E+10	1	-1E+10	1	-1E+10	1	-1E+10	1	-1E+10	1	-1E+10	1
4902549	38	C	08/26/2021	06:03	-131.952	47.233	0	66.10	0	8.6820	0	32.4020	0	25.134	0	65.539	0	272.7	4	94.7	4	-1E+10	1	-1E+10	1	-1E+10	1	-1E+10	1	-1E+10	1	-1E+10	1
4902549	38	C	08/26/2021	06:03	-131.952	47.233	0	67.00	0	8.6520	0	32.4000	0	25.137	0	66.432	0	272.5	4	94.6	4	-1E+10	1	-1E+10	1	-1E+10	1	-1E+10	1	-1E+10	1	-1E+10	1
4902549	38	C	08/26/2021	06:03	-131.952	47.233	0	67.90	0	8.6260	0	32.3990	0	25.141	0	67.324	0	272.2	4	94.4	4	-1E+10	1	-1E+10	1	-1E+10	1	-1E+10	1	-1E+10	1	-1E+10	1
4902549	38	C	08/26/2021	06:03	-131.952	47.233	0	68.90	0	8.5900	0	32.4000	0	25.147	0	68.315	0	271.9	4	94.2	4	-1E+10	1	-1E+10	1	-1E+10	1	-1E+10	1	-1E+10	1	-1E+10	1
4902549	38	C	08/26/2021	06:03	-131.952	47.233	0	69.80	0	8.5500	0	32.3940	0	25.148	0	69.207	0	271.8	4	94.1	4	-1E+10	1	-1E+10	1	-1E+10	1	-1E+10	1	-1E+10	1	-1E+10	1
4902549	38	C	08/26/2021	06:03	-131.952	47.233	0	70.90	0	8.5040	0	32.3950	0	25.156	0	70.298	0	271.6	4	93.9	4	-1E+10	1	-1E+10	1	-1E+10	1	-1E+10	1	-1E+10	1	-1E+10	1
4902549	38	C	08/26/2021	06:03	-131.952	47.233	0	71.80	0	8.4150	0	32.3920	0	25.167	0	71.190	0	271.4	4	93.7	4	-1E+10	1	-1E+10	1	-1E+10	1	-1E+10	1	-1E+10	1	-1E+10	1
4902549	38	C	08/26/2021	06:03	-131.952	47.233	0	72.90	0	8.3700	0	32.3880	0	25.170	0	72.281	0	271.4	4	93.6	4	-1E+10	1	-1E+10	1	-1E+10	1	-1E+10	1	-1E+10	1	-1E+10	1
4902549	38	C	08/26/2021	06:03	-131.952	47.233	0	73.90	0	8.3690	0	32.3970	0	25.177	0	73.272	0	271.0	4	93.4	4	-1E+10	1	-1E+10	1	-1E+10	1	-1E+10	1	-1E+10	1	-1E+10	1
4902549	38	C	08/26/2021	06:03	-131.952	47.233	0	75.00	0	8.3390	0	32.3920	0	25.178	0	74.362	0	270.7	4	93.3	4	-1E+10	1	-1E+10	1	-1E+10	1	-1E+10	1	-1E+10	1	-1E+10	1
4902549	38	C	08/26/2021	06:03	-131.952	47.233	0	76.00	0	8.2500	0	32.3860	0	25.186	0	75.354	0	270.9	4	93.1	4	-1E+10	1	-1E+10	1	-1E+10	1	-1E+10	1	-1E+10	1	-1E+10	1
4902549	38	C	08/26/2021	06:03	-131.952	47.233	0	77.10	0	8.2300	0	32.3860	0	25.189	0	76.444	0	270.5	4	93.0	4	-1E+10	1	-1E+10	1	-1E+10	1	-1E+10	1	-1E+10	1	-1E+10	1
4902549	38	C	08/26/2021	06:03	-131.952	47.233	0	77.80	0	8.2230	0	32.3840	0	25.189	0	77.138	0	270.1	4	92.8	4	-1E+10	1	-1E+10	1	-1E+10	1	-1E+10	1	-1E+10	1	-1E+10	1
4902549	38	C	08/26/2021	06:03	-131.952	47.233	0	78.80	0	8.2300	0	32.3880	0	25.191	0	78.129	0	269.7	4	92.7	4	-1E+10	1	-1E+10	1	-1E+10	1	-1E+10	1	-1E+10	1	-1E+10	1
4902549	38	C	08/26/2021	06:03	-131.952	47.233	0	80.10	0	8.1660	0	32.3960	0	25.207	0	79.418	0	269.6	4	92.6	4	-1E+10	1	-1E+10	1	-1E+10	1	-1E+10	1	-1E+10	1	-1E+10	1
4902549	38	C	08/26/2021	06:03	-131.952	47.233	0	81.10	0	8.1310	0	32.3930	0	25.209	0	80.409	0	269.6	4	92.5	4	-1E+10	1	-1E+10	1	-1E+10	1	-1E+10	1	-1E+10	1	-1E+10	1
4902549	38	C	08/26/2021	06:03	-131.952	47.233	0	82.00	0	8.1070	0	32.3970	0	25.216	0	81.301	0	269.4	4	92.4	4	-1E+10	1	-1E+10	1	-1E+10	1	-1E+10	1	-1E+10	1	-1E+10	1
4902549	38	C	08/26/2021	06:03	-131.952	47.233	0	82.90	0	8.0680	0	32.3900	0	25.216	0	82.194	0	269.5	4	92.3	4	-1E+10	1	-1E+10	1	-1E+10	1	-1E+10	1	-1E+10	1	-1E+10	1
4902549	38	C	08/26/2021	06:03	-131.952	47.233	0	83.80	0	8.0330	0	32.3890	0	25.220	0	83.086	0	269.5	4	92.2	4	-1E+10	1	-1E+10	1	-1E+10	1	-1E+10	1	-1E+10	1	-1E+10	1
4902549	38	C	08/26/2021	06:03	-131.952	47.233	0	85.00	0	8.0050	0	32.3870	0	25.223	0	84.275	0	269.3	4	92.1	4	-1E+10	1	-1E+10	1	-1E+10	1	-1E+10	1	-1E+10	1	-1E+10	1
4902549	38	C	08/26/2021	06:03	-131.952	47.233	0	86.10	0	7.9870	0	32.3860	0	25.225	0	85.366	0	269.1	4	92.0	4	-1E+10	1	-1E+10	1	-1E+10	1	-1E+10	1	-1E+10	1	-1E+10	1
4902549	38	C	08/26/2021	06:03	-131.952	47.233	0	87.10	0	7.9450	0	32.3870	0	25.232	0	86.357	0	269.1	4	91.9	4	-1E+10	1	-1E+10	1	-1E+10	1	-1E+10	1	-1E+10	1	-1E+10	1
4902549	38	C	08/26/2021	06:03	-131.952	47.233	0	88.00	0	7.9360	0	32.3880	0	25.234	0	87.249	0	268.9	4	91.8	4	-1E+10	1	-1E+10	1	-1E+10	1	-1E+10	1	-1E+10	1	-1E+10	1
4902549	38	C	08/26/2021	06:03	-131.952	47.233	0	88.70	0	7.9260	0	32.3880	0	25.235	0	87.943	0	268.8	4	91.8	4	-1E+10	1	-1E+10	1	-1E+10	1	-1E+10	1	-1E+10	1	-1E+10	1
4902549	38	C	08/26/2021	06:03	-131.952	47.233	0	89.80	0	7.9020	0	32.3890	0	25.239	0	89.033	0	268.8	4	91.7	4	-1E+10	1	-1E+10	1	-1E+10	1	-1E+10	1	-1E+10	1	-1E+10	1
4902549	38	C	08/26/2021	06:03	-131.952	47.233	0	90.80	0	7.8820	0	32.3880	0	25.241	0	90.025	0	268.6	4	91.6	4	-1E+10	1	-1E+10	1	-1E+10	1	-1E+10	1	-1E+10	1	-1E+10	1
4902549	38	C	08/26/2021	06:03	-131.952	47.233	0	91.90	0	7.8550	0	32.3890	0	25.246	0	91.115	0	268.5	4	91.5	4	-1E+10	1	-1E+10	1	-1E+10	1	-1E+10	1	-1E+10	1	-1E+10	1
4902549	38	C	08/26/2021	06:03	-131.952	47.233	0	92.90	0	7.8390	0	32.3900	0	25.249	0	92.106	0	268.3	4	91.4	4	-1E+10	1	-1E+10	1	-1E+10	1	-1E+10	1	-1E+10	1	-1E+10	1
4902549	38	C	08/26/2021	06:03	-131.952	47.233	0	94.10	0	7.8130	0	32.3900	0	25.253	0	93.296	0	268.1	4	91.3	4	-1E+10	1	-1E+10	1	-1E+10	1	-1E+10	1	-1E+10	1	-1E+10	1
4902549	38	C	08/26/2021	06:03	-131.952	47.233	0	95.10	0	7.7850	0	32.3900	0	25.257	0	94.287	0	267.9	4	91.2	4	-1E+10	1	-1E+10	1	-1E+10	1	-1E+10	1	-1E+10	1	-1E+10	1
4902549	38	C	08/26/2021	06:03	-131.952	47.233	0	96.10	0	7.7640	0	32.3880	0	25.258	0	95.278	0	267.6	4	91.0	4	-1E+10	1	-1E+10	1	-1E+10	1	-1E+10	1	-1E+10	1	-1E+10	1
4902549	38	C	08/26/2021	06:03	-131.952	47.233	0	97.10	0	7.7140	0	32.3890	0	25.266	0	96.269	0	267.4	4	90.9	4	-1E+10	1	-1E+10	1	-1E+10	1	-1E+10	1	-1E+10	1	-1E+10	1
4902549	38	C	08/26/2021	06:03	-131.952	47.233	0	98.00	0	7.6970	0	32.3900	0	25.269	0	97.161	0	267.1	4	90.7	4	-1E+10	1	-1E+10	1	-1E+10	1	-1E+10	1	-1E+10	1	-1E+10	1
4902549	38	C	08/26/2021	06:03	-131.952	47.233	0	98.90	0	7.6780	0	32.3910	0	25.273	0	98.053	0	266.8	4	90.6	4	-1E+10	1	-1E+10	1	-1E+10	1	-1E+10	1	-1E+10	1	-1E+10	1
4902549	38	C	08/26/2021	06:03	-131.952	47.233	0	99.90	0	7.6660	0	32.3950	0	25.278	0	99.045	0	266.5	4	90.5	4	-1E+10	1	-1E+10	1	-1E+10	1	-1E+10	1	-1E+10	1	-1E+10	1
4902549	38	C	08/26/2021	06:03	-131.952	47.233	0	101.00	0	7.6570	0	32.4040	0	25.286	0	100.135	0	266.0	4	90.3	4	-1E+10	1	-1E+10	1	-1E+10	1	-1E+10	1	-1E+10	1	-1E+10	1
4902549	38	C	08/26/2021	06:03	-131.952	47.233	0	102.20	0	7.6440	0	32.4120	0	25.294	0	101.324	0	265.7	4	90.2	4	-1E+10	1	-1E+10	1	-1E+10	1	-1E+10	1	-1E+10	1	-1E+10	1
4902549	38	C	08/26/2021	06:03	-131.952	47.233	0	102.80	0	7.6310	0	32.4170	0	25.300	0	101.919	0	265.6	4	90.1	4	-1E+10	1	-1E+10	1	-1E+10	1	-1E+10	1	-1E+10	1	-1E+10	1
4902549	38	C	08/26/2021	06:03	-131.952	47.233	0	103.90	0	7.6190	0	32.4220	0	25.305	0	103.009	0	265.2	4	89.9	4	-1E+10	1	-1E+10	1	-1E+10	1	-1E+10	1	-1E+10	1	-1E+10	1
4902549	38	C	08/26/2021	06:03	-131.952	47.233	0	104.90	0	7.6150	0	32.4240	0	25.308	0	104.001	0	264.8	4	89.8	4	-1E+10	1	-1E+10	1	-1E+10	1	-1E+10	1	-1E+10	1	-1E+10	1
4902549	38	C	08/26/2021	06:03	-131.952	47.233	0	105.80	0	7.6070	0	32.4270	0	25.311	0	104.893	0	264.5	4	89.7	4	-1E+10	1	-1E+10	1	-1E+10	1	-1E+10	1	-1E+10	1	-1E+10	1
4902549	38	C	08/26/2021	06:03	-131.952	47.233	0	106.90	0	7.5990	0	32.4290	0	25.314	0	105.983	0	264.1	4	89.5	4	-1E+10	1	-1E+10	1	-1E+10	1	-1E+10	1	-1E+10	1	-1E+10	1
4902549	38	C	08/26/2021	06:03	-131.952	47.233	0	108.20	0	7.5960	0	32.4310	0	25.316	0	107.271	0	263.5	4	89.3	4	-1E+10	1	-1E+10	1	-1E+10	1	-1E+10	1	-1E+10	1	-1E+10	1
4902549	38	C	08/26/2021	06:03	-131.952	47.233	0	108.80	0	7.5950	0	32.4310	0	25.316	0	107.866	0	263.1	4	89.2	4	-1E+10	1	-1E+10	1	-1E+10	1	-1E+10	1	-1E+10	1	-1E+10	1
4902549	38	C	08/26/2021	06:03	-131.952	47.233	0	110.10	0	7.5900	0	32.4320	0	25.317	0	109.155	0	262.1	4	88.8	4	-1E+10	1	-1E+10	1	-1E+10	1	-1E+10	1	-1E+10	1	-1E+10	1
4902549	38	C	08/26/2021	06:03	-131.952	47.233	0	111.00	0	7.5870	0	32.4320	0	25.318	0	110.047	0	261.3	4	88.6	4	-1E+10	1	-1E+10	1	-1E+10	1	-1E+10	1	-1E+10	1	-1E+10	1
4902549	38	C	08/26/2021	06:03	-131.952	47.233	0	111.90	0	7.5820	0	32.4350	0	25.321	0	110.939	0	260.2	4	88.2	4	-1E+10	1	-1E+10	1	-1E+10	1	-1E+10	1	-1E+10	1	-1E+10	1
4902549	38	C	08/26/2021	06:03	-131.952	47.233	0	113.10	0	7.5780	0	32.4370	0	25.323	0	112.128	0	258.6	4	87.6	4	-1E+10	1	-1E+10	1	-1E+10	1	-1E+10	1	-1E+10	1	-1E+10	1
4902549	38	C	08/26/2021	06:03	-131.952	47.233	0	113.80	0	7.5730	0	32.4460	0	25.331	0	112.822	0	257.7	4	87.3	4	-1E+10	1	-1E+10	1	-1E+10	1	-1E+10	1	-1E+10	1	-1E+10	1
4902549	38	C	08/26/2021	06:03	-131.952	47.233	0	114.80	0	7.5590	0	32.4710	0	25.353	0	113.813	0	256.9	4	87.0	4	-1E+10	1	-1E+10	1	-1E+10	1	-1E+10	1	-1E+10	1	-1E+10	1
4902549	38	C	08/26/2021	06:03	-131.952	47.233	0	115.90	0	7.5540	0	32.4780	0	25.359	0	114.903	0	256.1	4	86.8	4	-1E+10	1	-1E+10	1	-1E+10	1	-1E+10	1	-1E+10	1	-1E+10	1
4902549	38	C	08/26/2021	06:03	-131.952	47.233	0	117.00	0	7.5430	0	32.4860	0	25.367	0	115.993	0	255.2	4	86.4	4	-1E+10	1	-1E+10	1	-1E+10	1	-1E+10	1	-1E+10	1	-1E+10	1
4902549	38	C	08/26/2021	06:03	-131.952	47.233	0	118.00	0	7.5210	0	32.4880	0	25.371	0	116.985	0	254.3	4	86.1	4	-1E+10	1	-1E+10	1	-1E+10	1	-1E+10	1	-1E+10	1	-1E+10	1
4902549	38	C	08/26/2021	06:03	-131.952	47.233	0	119.10	0	7.4890	0	32.4930	0	25.380	0	118.075	0	253.1	4	85.6	4	-1E+10	1	-1E+10	1	-1E+10	1	-1E+10	1	-1E+10	1	-1E+10	1
4902549	38	C	08/26/2021	06:03	-131.952	47.233	0	120.00	0	7.4870	0	32.5050	0	25.389	0	118.967	0	252.1	4	85.3	4	-1E+10	1	-1E+10	1	-1E+10	1	-1E+10	1	-1E+10	1	-1E+10	1
4902549	38	C	08/26/2021	06:03	-131.952	47.233	0	120.80	0	7.5130	0	32.5080	0	25.388	0	119.760	0	250.8	4	84.9	4	-1E+10	1	-1E+10	1	-1E+10	1	-1E+10	1	-1E+10	1	-1E+10	1
4902549	38	C	08/26/2021	06:03	-131.952	47.233	0	121.90	0	7.5380	0	32.5130	0	25.389	0	120.850	0	249.1	4	84.4	4	-1E+10	1	-1E+10	1	-1E+10	1	-1E+10	1	-1E+10	1	-1E+10	1
4902549	38	C	08/26/2021	06:03	-131.952	47.233	0	123.10	0	7.5310	0	32.5370	0	25.408	0	122.039	0	247.3	4	83.8	4	-1E+10	1	-1E+10	1	-1E+10	1	-1E+10	1	-1E+10	1	-1E+10	1
4902549	38	C	08/26/2021	06:03	-131.952	47.233	0	124.00	0	7.4140	0	32.5450	0	25.431	0	122.931	0	246.3	4	83.2	4	-1E+10	1	-1E+10	1	-1E+10	1	-1E+10	1	-1E+10	1	-1E+10	1
4902549	38	C	08/26/2021	06:03	-131.952	47.233	0	124.80	0	7.4870	0	32.5610	0	25.433	0	123.724	0	244.7	4	82.8	4	-1E+10	1	-1E+10	1	-1E+10	1	-1E+10	1	-1E+10	1	-1E+10	1
4902549	38	C	08/26/2021	06:03	-131.952	47.233	0	125.90	0	7.5060	0	32.5930	0	25.456	0	124.814	0	243.0	4	82.3	4	-1E+10	1	-1E+10	1	-1E+10	1	-1E+10	1	-1E+10	1	-1E+10	1
4902549	38	C	08/26/2021	06:03	-131.952	47.233	0	127.00	0	7.5140	0	32.6160	0	25.473	0	125.904	0	241.6	4	81.9	4	-1E+10	1	-1E+10	1	-1E+10	1	-1E+10	1	-1E+10	1	-1E+10	1
4902549	38	C	08/26/2021	06:03	-131.952	47.233	0	128.00	0	7.4520	0	32.6200	0	25.485	0	126.895	0	240.6	4	81.4	4	-1E+10	1	-1E+10	1	-1E+10	1	-1E+10	1	-1E+10	1	-1E+10	1
4902549	38	C	08/26/2021	06:03	-131.952	47.233	0	129.00	0	7.4400	0	32.6260	0	25.491	0	127.887	0	238.9	4	80.8	4	-1E+10	1	-1E+10	1	-1E+10	1	-1E+10	1	-1E+10	1	-1E+10	1
4902549	38	C	08/26/2021	06:03	-131.952	47.233	0	130.00	0	7.3940	0	32.6420	0	25.510	0	128.878	0	236.8	4	80.0	4	-1E+10	1	-1E+10	1	-1E+10	1	-1E+10	1	-1E+10	1	-1E+10	1
4902549	38	C	08/26/2021	06:03	-131.952	47.233	0	131.00	0	7.4970	0	32.7210	0	25.558	0	129.869	0	234.6	4	79.5	4	-1E+10	1	-1E+10	1	-1E+10	1	-1E+10	1	-1E+10	1	-1E+10	1
4902549	38	C	08/26/2021	06:03	-131.952	47.233	0	131.90	0	7.4700	0	32.7390	0	25.576	0	130.761	0	233.3	4	79.0	4	-1E+10	1	-1E+10	1	-1E+10	1	-1E+10	1	-1E+10	1	-1E+10	1
4902549	38	C	08/26/2021	06:03	-131.952	47.233	0	132.90	0	7.4530	0	32.7630	0	25.597	0	131.752	0	231.3	4	78.3	4	-1E+10	1	-1E+10	1	-1E+10	1	-1E+10	1	-1E+10	1	-1E+10	1
4902549	38	C	08/26/2021	06:03	-131.952	47.233	0	133.90	0	7.4360	0	32.7760	0	25.610	0	132.743	0	228.8	4	77.5	4	-1E+10	1	-1E+10	1	-1E+10	1	-1E+10	1	-1E+10	1	-1E+10	1
4902549	38	C	08/26/2021	06:03	-131.952	47.233	0	135.00	0	7.4250	0	32.7880	0	25.621	0	133.833	0	225.8	4	76.4	4	-1E+10	1	-1E+10	1	-1E+10	1	-1E+10	1	-1E+10	1	-1E+10	1
4902549	38	C	08/26/2021	06:03	-131.952	47.233	0	135.90	0	7.4060	0	32.8050	0	25.637	0	134.725	0	222.9	4	75.4	4	-1E+10	1	-1E+10	1	-1E+10	1	-1E+10	1	-1E+10	1	-1E+10	1
4902549	38	C	08/26/2021	06:03	-131.952	47.233	0	137.10	0	7.3630	0	32.8350	0	25.666	0	135.914	0	219.5	4	74.2	4	-1E+10	1	-1E+10	1	-1E+10	1	-1E+10	1	-1E+10	1	-1E+10	1
4902549	38	C	08/26/2021	06:03	-131.952	47.233	0	138.00	0	7.3490	0	32.9140	0	25.730	0	136.806	0	217.1	4	73.4	4	-1E+10	1	-1E+10	1	-1E+10	1	-1E+10	1	-1E+10	1	-1E+10	1
4902549	38	C	08/26/2021	06:03	-131.952	47.233	0	138.80	0	7.3640	0	32.9470	0	25.754	0	137.599	0	215.3	4	72.9	4	-1E+10	1	-1E+10	1	-1E+10	1	-1E+10	1	-1E+10	1	-1E+10	1
4902549	38	C	08/26/2021	06:03	-131.952	47.233	0	139.90	0	7.3780	0	32.9790	0	25.777	0	138.689	0	212.8	4	72.1	4	-1E+10	1	-1E+10	1	-1E+10	1	-1E+10	1	-1E+10	1	-1E+10	1
4902549	38	C	08/26/2021	06:03	-131.952	47.233	0	141.10	0	7.3740	0	33.0190	0	25.809	0	139.878	0	210.5	4	71.3	4	-1E+10	1	-1E+10	1	-1E+10	1	-1E+10	1	-1E+10	1	-1E+10	1
4902549	38	C	08/26/2021	06:03	-131.952	47.233	0	142.00	0	7.3670	0	33.0470	0	25.832	0	140.770	0	208.9	4	70.7	4	-1E+10	1	-1E+10	1	-1E+10	1	-1E+10	1	-1E+10	1	-1E+10	1
4902549	38	C	08/26/2021	06:03	-131.952	47.233	0	143.00	0	7.3620	0	33.0610	0	25.844	0	141.761	0	206.9	4	70.1	4	-1E+10	1	-1E+10	1	-1E+10	1	-1E+10	1	-1E+10	1	-1E+10	1
4902549	38	C	08/26/2021	06:03	-131.952	47.233	0	144.00	0	7.3580	0	33.0730	0	25.854	0	142.752	0	204.7	4	69.3	4	-1E+10	1	-1E+10	1	-1E+10	1	-1E+10	1	-1E+10	1	-1E+10	1
4902549	38	C	08/26/2021	06:03	-131.952	47.233	0	144.90	0	7.3170	0	33.1170	0	25.894	0	143.644	0	202.8	4	68.7	4	-1E+10	1	-1E+10	1	-1E+10	1	-1E+10	1	-1E+10	1	-1E+10	1
4902549	38	C	08/26/2021	06:03	-131.952	47.233	0	145.90	0	7.2940	0	33.1330	0	25.910	0	144.635	0	200.7	4	67.9	4	-1E+10	1	-1E+10	1	-1E+10	1	-1E+10	1	-1E+10	1	-1E+10	1
4902549	38	C	08/26/2021	06:03	-131.952	47.233	0	146.90	0	7.2850	0	33.1630	0	25.935	0	145.626	0	198.3	4	67.1	4	-1E+10	1	-1E+10	1	-1E+10	1	-1E+10	1	-1E+10	1	-1E+10	1
4902549	38	C	08/26/2021	06:03	-131.952	47.233	0	148.10	0	7.2930	0	33.1920	0	25.957	0	146.815	0	195.8	4	66.3	4	-1E+10	1	-1E+10	1	-1E+10	1	-1E+10	1	-1E+10	1	-1E+10	1
4902549	38	C	08/26/2021	06:03	-131.952	47.233	0	148.90	0	7.3230	0	33.3110	0	26.046	0	147.608	0	194.2	4	65.9	4	-1E+10	1	-1E+10	1	-1E+10	1	-1E+10	1	-1E+10	1	-1E+10	1
4902549	38	C	08/26/2021	06:03	-131.952	47.233	0	149.70	0	7.2970	0	33.3530	0	26.083	0	148.400	0	193.3	4	65.5	4	-1E+10	1	-1E+10	1	-1E+10	1	-1E+10	1	-1E+10	1	-1E+10	1
4902549	38	C	08/26/2021	06:03	-131.952	47.233	0	150.90	0	7.2720	0	33.3970	0	26.121	0	149.590	0	192.3	4	65.2	4	-1E+10	1	-1E+10	1	-1E+10	1	-1E+10	1	-1E+10	1	-1E+10	1
4902549	38	C	08/26/2021	06:03	-131.952	47.233	0	152.10	0	7.2510	0	33.4280	0	26.148	0	150.779	0	191.3	4	64.8	4	-1E+10	1	-1E+10	1	-1E+10	1	-1E+10	1	-1E+10	1	-1E+10	1
4902549	38	C	08/26/2021	06:03	-131.952	47.233	0	152.90	0	7.2270	0	33.4600	0	26.177	0	151.571	0	190.7	4	64.6	4	-1E+10	1	-1E+10	1	-1E+10	1	-1E+10	1	-1E+10	1	-1E+10	1
4902549	38	C	08/26/2021	06:03	-131.952	47.233	0	153.70	0	7.2160	0	33.4750	0	26.190	0	152.364	0	190.1	4	64.4	4	-1E+10	1	-1E+10	1	-1E+10	1	-1E+10	1	-1E+10	1	-1E+10	1
4902549	38	C	08/26/2021	06:03	-131.952	47.233	0	155.00	0	7.2020	0	33.4930	0	26.206	0	153.652	0	189.2	4	64.1	4	-1E+10	1	-1E+10	1	-1E+10	1	-1E+10	1	-1E+10	1	-1E+10	1
4902549	38	C	08/26/2021	06:03	-131.952	47.233	0	156.20	0	7.1950	0	33.5180	0	26.227	0	154.842	0	188.3	4	63.8	4	-1E+10	1	-1E+10	1	-1E+10	1	-1E+10	1	-1E+10	1	-1E+10	1
4902549	38	C	08/26/2021	06:03	-131.952	47.233	0	157.10	0	7.1930	0	33.5250	0	26.233	0	155.733	0	187.7	4	63.5	4	-1E+10	1	-1E+10	1	-1E+10	1	-1E+10	1	-1E+10	1	-1E+10	1
4902549	38	C	08/26/2021	06:03	-131.952	47.233	0	157.90	0	7.1900	0	33.5300	0	26.237	0	156.526	0	187.0	4	63.3	4	-1E+10	1	-1E+10	1	-1E+10	1	-1E+10	1	-1E+10	1	-1E+10	1
4902549	38	C	08/26/2021	06:03	-131.952	47.233	0	158.80	0	7.1860	0	33.5320	0	26.239	0	157.418	0	186.3	4	63.1	4	-1E+10	1	-1E+10	1	-1E+10	1	-1E+10	1	-1E+10	1	-1E+10	1
4902549	38	C	08/26/2021	06:03	-131.952	47.233	0	159.70	0	7.1320	0	33.5880	0	26.291	0	158.310	0	185.8	4	62.9	4	-1E+10	1	-1E+10	1	-1E+10	1	-1E+10	1	-1E+10	1	-1E+10	1
4902549	38	C	08/26/2021	06:03	-131.952	47.233	0	160.70	0	7.1310	0	33.6200	0	26.316	0	159.301	0	185.5	4	62.8	4	-1E+10	1	-1E+10	1	-1E+10	1	-1E+10	1	-1E+10	1	-1E+10	1
4902549	38	C	08/26/2021	06:03	-131.952	47.233	0	161.60	0	7.1280	0	33.6400	0	26.332	0	160.193	0	185.1	4	62.6	4	-1E+10	1	-1E+10	1	-1E+10	1	-1E+10	1	-1E+10	1	-1E+10	1
4902549	38	C	08/26/2021	06:03	-131.952	47.233	0	162.90	0	7.1270	0	33.6460	0	26.337	0	161.481	0	184.5	4	62.4	4	-1E+10	1	-1E+10	1	-1E+10	1	-1E+10	1	-1E+10	1	-1E+10	1
4902549	38	C	08/26/2021	06:03	-131.952	47.233	0	164.30	0	7.1270	0	33.6480	0	26.339	0	162.868	0	183.8	4	62.2	4	-1E+10	1	-1E+10	1	-1E+10	1	-1E+10	1	-1E+10	1	-1E+10	1
4902549	38	C	08/26/2021	06:03	-131.952	47.233	0	165.20	0	7.1270	0	33.6500	0	26.340	0	163.760	0	183.2	4	62.0	4	-1E+10	1	-1E+10	1	-1E+10	1	-1E+10	1	-1E+10	1	-1E+10	1
4902549	38	C	08/26/2021	06:03	-131.952	47.233	0	166.10	0	7.1220	0	33.6610	0	26.350	0	164.652	0	182.6	4	61.8	4	-1E+10	1	-1E+10	1	-1E+10	1	-1E+10	1	-1E+10	1	-1E+10	1
4902549	38	C	08/26/2021	06:03	-131.952	47.233	0	167.00	0	7.1030	0	33.6890	0	26.374	0	165.543	0	182.3	4	61.7	4	-1E+10	1	-1E+10	1	-1E+10	1	-1E+10	1	-1E+10	1	-1E+10	1
4902549	38	C	08/26/2021	06:03	-131.952	47.233	0	168.00	0	7.1010	0	33.6900	0	26.375	0	166.534	0	181.8	4	61.5	4	-1E+10	1	-1E+10	1	-1E+10	1	-1E+10	1	-1E+10	1	-1E+10	1
4902549	38	C	08/26/2021	06:03	-131.952	47.233	0	168.90	0	7.0980	0	33.6920	0	26.377	0	167.426	0	181.3	4	61.3	4	-1E+10	1	-1E+10	1	-1E+10	1	-1E+10	1	-1E+10	1	-1E+10	1
4902549	38	C	08/26/2021	06:03	-131.952	47.233	0	169.80	0	7.0790	0	33.7000	0	26.386	0	168.318	0	180.8	4	61.1	4	-1E+10	1	-1E+10	1	-1E+10	1	-1E+10	1	-1E+10	1	-1E+10	1
4902549	38	C	08/26/2021	06:03	-131.952	47.233	0	170.80	0	7.0590	0	33.7070	0	26.395	0	169.309	0	180.4	4	61.0	4	-1E+10	1	-1E+10	1	-1E+10	1	-1E+10	1	-1E+10	1	-1E+10	1
4902549	38	C	08/26/2021	06:03	-131.952	47.233	0	171.80	0	7.0580	0	33.7100	0	26.397	0	170.299	0	179.9	4	60.8	4	-1E+10	1	-1E+10	1	-1E+10	1	-1E+10	1	-1E+10	1	-1E+10	1
4902549	38	C	08/26/2021	06:03	-131.952	47.233	0	172.80	0	7.0360	0	33.7120	0	26.402	0	171.290	0	179.4	4	60.6	4	-1E+10	1	-1E+10	1	-1E+10	1	-1E+10	1	-1E+10	1	-1E+10	1
4902549	38	C	08/26/2021	06:03	-131.952	47.233	0	173.70	0	7.0030	0	33.7180	0	26.411	0	172.182	0	179.0	4	60.4	4	-1E+10	1	-1E+10	1	-1E+10	1	-1E+10	1	-1E+10	1	-1E+10	1
4902549	38	C	08/26/2021	06:03	-131.952	47.233	0	174.70	0	7.0000	0	33.7200	0	26.413	0	173.173	0	178.4	4	60.2	4	-1E+10	1	-1E+10	1	-1E+10	1	-1E+10	1	-1E+10	1	-1E+10	1
4902549	38	C	08/26/2021	06:03	-131.952	47.233	0	175.70	0	6.9930	0	33.7220	0	26.415	0	174.164	0	177.8	4	60.0	4	-1E+10	1	-1E+10	1	-1E+10	1	-1E+10	1	-1E+10	1	-1E+10	1
4902549	38	C	08/26/2021	06:03	-131.952	47.233	0	176.70	0	6.9890	0	33.7230	0	26.417	0	175.155	0	177.2	4	59.8	4	-1E+10	1	-1E+10	1	-1E+10	1	-1E+10	1	-1E+10	1	-1E+10	1
4902549	38	C	08/26/2021	06:03	-131.952	47.233	0	177.70	0	6.9880	0	33.7240	0	26.418	0	176.145	0	176.6	4	59.6	4	-1E+10	1	-1E+10	1	-1E+10	1	-1E+10	1	-1E+10	1	-1E+10	1
4902549	38	C	08/26/2021	06:03	-131.952	47.233	0	178.80	0	6.9830	0	33.7260	0	26.420	0	177.235	0	175.8	4	59.3	4	-1E+10	1	-1E+10	1	-1E+10	1	-1E+10	1	-1E+10	1	-1E+10	1
4902549	38	C	08/26/2021	06:03	-131.952	47.233	0	179.80	0	6.9540	0	33.7330	0	26.429	0	178.226	0	175.2	4	59.1	4	-1E+10	1	-1E+10	1	-1E+10	1	-1E+10	1	-1E+10	1	-1E+10	1
4902549	38	C	08/26/2021	06:03	-131.952	47.233	0	180.80	0	6.9170	0	33.7370	0	26.438	0	179.217	0	174.7	4	58.9	4	-1E+10	1	-1E+10	1	-1E+10	1	-1E+10	1	-1E+10	1	-1E+10	1
4902549	38	C	08/26/2021	06:03	-131.952	47.233	0	181.90	0	6.9020	0	33.7400	0	26.442	0	180.307	0	174.1	4	58.7	4	-1E+10	1	-1E+10	1	-1E+10	1	-1E+10	1	-1E+10	1	-1E+10	1
4902549	38	C	08/26/2021	06:03	-131.952	47.233	0	183.00	0	6.8920	0	33.7400	0	26.443	0	181.397	0	173.4	4	58.4	4	-1E+10	1	-1E+10	1	-1E+10	1	-1E+10	1	-1E+10	1	-1E+10	1
4902549	38	C	08/26/2021	06:03	-131.952	47.233	0	184.00	0	6.8770	0	33.7420	0	26.447	0	182.388	0	172.8	4	58.2	4	-1E+10	1	-1E+10	1	-1E+10	1	-1E+10	1	-1E+10	1	-1E+10	1
4902549	38	C	08/26/2021	06:03	-131.952	47.233	0	185.10	0	6.8510	0	33.7460	0	26.454	0	183.477	0	172.1	4	57.9	4	-1E+10	1	-1E+10	1	-1E+10	1	-1E+10	1	-1E+10	1	-1E+10	1
4902549	38	C	08/26/2021	06:03	-131.952	47.233	0	186.20	0	6.8000	0	33.7490	0	26.463	0	184.567	0	171.7	4	57.7	4	-1E+10	1	-1E+10	1	-1E+10	1	-1E+10	1	-1E+10	1	-1E+10	1
4902549	38	C	08/26/2021	06:03	-131.952	47.233	0	187.30	0	6.7300	0	33.7540	0	26.476	0	185.657	0	171.6	4	57.6	4	-1E+10	1	-1E+10	1	-1E+10	1	-1E+10	1	-1E+10	1	-1E+10	1
4902549	38	C	08/26/2021	06:03	-131.952	47.233	0	188.50	0	6.7150	0	33.7560	0	26.480	0	186.846	0	171.4	4	57.5	4	-1E+10	1	-1E+10	1	-1E+10	1	-1E+10	1	-1E+10	1	-1E+10	1
4902549	38	C	08/26/2021	06:03	-131.952	47.233	0	189.60	0	6.7130	0	33.7560	0	26.480	0	187.936	0	171.2	4	57.4	4	-1E+10	1	-1E+10	1	-1E+10	1	-1E+10	1	-1E+10	1	-1E+10	1
4902549	38	C	08/26/2021	06:03	-131.952	47.233	0	190.70	0	6.7080	0	33.7560	0	26.481	0	189.026	0	170.8	4	57.3	4	-1E+10	1	-1E+10	1	-1E+10	1	-1E+10	1	-1E+10	1	-1E+10	1
4902549	38	C	08/26/2021	06:03	-131.952	47.233	0	191.80	0	6.7060	0	33.7570	0	26.482	0	190.116	0	170.5	4	57.2	4	-1E+10	1	-1E+10	1	-1E+10	1	-1E+10	1	-1E+10	1	-1E+10	1
4902549	38	C	08/26/2021	06:03	-131.952	47.233	0	193.00	0	6.7060	0	33.7560	0	26.481	0	191.305	0	170.0	4	57.0	4	-1E+10	1	-1E+10	1	-1E+10	1	-1E+10	1	-1E+10	1	-1E+10	1
4902549	38	C	08/26/2021	06:03	-131.952	47.233	0	194.10	0	6.7030	0	33.7550	0	26.481	0	192.394	0	169.6	4	56.9	4	-1E+10	1	-1E+10	1	-1E+10	1	-1E+10	1	-1E+10	1	-1E+10	1
4902549	38	C	08/26/2021	06:03	-131.952	47.233	0	195.20	0	6.7010	0	33.7550	0	26.481	0	193.484	0	169.0	4	56.7	4	-1E+10	1	-1E+10	1	-1E+10	1	-1E+10	1	-1E+10	1	-1E+10	1
4902549	38	C	08/26/2021	06:03	-131.952	47.233	0	196.30	0	6.6960	0	33.7540	0	26.481	0	194.574	0	168.4	4	56.5	4	-1E+10	1	-1E+10	1	-1E+10	1	-1E+10	1	-1E+10	1	-1E+10	1
4902549	38	C	08/26/2021	06:03	-131.952	47.233	0	197.50	0	6.6830	0	33.7550	0	26.483	0	195.763	0	167.7	4	56.2	4	-1E+10	1	-1E+10	1	-1E+10	1	-1E+10	1	-1E+10	1	-1E+10	1
4902549	38	C	08/26/2021	06:03	-131.952	47.233	0	198.60	0	6.6720	0	33.7560	0	26.486	0	196.853	0	167.1	4	56.0	4	-1E+10	1	-1E+10	1	-1E+10	1	-1E+10	1	-1E+10	1	-1E+10	1
4902549	38	C	08/26/2021	06:03	-131.952	47.233	0	199.80	0	6.6520	0	33.7570	0	26.489	0	198.042	0	166.3	4	55.7	4	-1E+10	1	-1E+10	1	-1E+10	1	-1E+10	1	-1E+10	1	-1E+10	1
4902549	38	C	08/26/2021	06:03	-131.952	47.233	0	200.90	0	6.6050	0	33.7600	0	26.498	0	199.131	0	165.9	4	55.5	4	-1E+10	1	-1E+10	1	-1E+10	1	-1E+10	1	-1E+10	1	-1E+10	1
4902549	38	C	08/26/2021	06:03	-131.952	47.233	0	202.10	0	6.5790	0	33.7610	0	26.502	0	200.320	0	165.5	4	55.4	4	-1E+10	1	-1E+10	1	-1E+10	1	-1E+10	1	-1E+10	1	-1E+10	1
4902549	38	C	08/26/2021	06:03	-131.952	47.233	0	203.20	0	6.5780	0	33.7610	0	26.502	0	201.410	0	164.9	4	55.2	4	-1E+10	1	-1E+10	1	-1E+10	1	-1E+10	1	-1E+10	1	-1E+10	1
4902549	38	C	08/26/2021	06:03	-131.952	47.233	0	204.40	0	6.5750	0	33.7610	0	26.502	0	202.599	0	164.5	4	55.0	4	-1E+10	1	-1E+10	1	-1E+10	1	-1E+10	1	-1E+10	1	-1E+10	1
4902549	38	C	08/26/2021	06:03	-131.952	47.233	0	205.50	0	6.5630	0	33.7620	0	26.505	0	203.689	0	163.9	4	54.8	4	-1E+10	1	-1E+10	1	-1E+10	1	-1E+10	1	-1E+10	1	-1E+10	1
4902549	38	C	08/26/2021	06:03	-131.952	47.233	0	206.70	0	6.5570	0	33.7620	0	26.506	0	204.877	0	163.1	4	54.5	4	-1E+10	1	-1E+10	1	-1E+10	1	-1E+10	1	-1E+10	1	-1E+10	1
4902549	38	C	08/26/2021	06:03	-131.952	47.233	0	207.80	0	6.5510	0	33.7620	0	26.506	0	205.967	0	162.4	4	54.3	4	-1E+10	1	-1E+10	1	-1E+10	1	-1E+10	1	-1E+10	1	-1E+10	1
4902549	38	C	08/26/2021	06:03	-131.952	47.233	0	209.00	0	6.5250	0	33.7650	0	26.512	0	207.156	0	161.6	4	54.0	4	-1E+10	1	-1E+10	1	-1E+10	1	-1E+10	1	-1E+10	1	-1E+10	1
4902549	38	C	08/26/2021	06:03	-131.952	47.233	0	210.10	0	6.4980	0	33.7630	0	26.514	0	208.246	0	161.0	4	53.8	4	-1E+10	1	-1E+10	1	-1E+10	1	-1E+10	1	-1E+10	1	-1E+10	1
4902549	38	C	08/26/2021	06:03	-131.952	47.233	0	211.20	0	6.4800	0	33.7630	0	26.516	0	209.335	0	160.4	4	53.5	4	-1E+10	1	-1E+10	1	-1E+10	1	-1E+10	1	-1E+10	1	-1E+10	1
4902549	38	C	08/26/2021	06:03	-131.952	47.233	0	212.40	0	6.4650	0	33.7620	0	26.518	0	210.524	0	159.7	4	53.3	4	-1E+10	1	-1E+10	1	-1E+10	1	-1E+10	1	-1E+10	1	-1E+10	1
4902549	38	C	08/26/2021	06:03	-131.952	47.233	0	213.50	0	6.4400	0	33.7630	0	26.522	0	211.614	0	159.0	4	53.0	4	-1E+10	1	-1E+10	1	-1E+10	1	-1E+10	1	-1E+10	1	-1E+10	1
4902549	38	C	08/26/2021	06:03	-131.952	47.233	0	214.60	0	6.4050	0	33.7670	0	26.529	0	212.704	0	158.2	4	52.7	4	-1E+10	1	-1E+10	1	-1E+10	1	-1E+10	1	-1E+10	1	-1E+10	1
4902549	38	C	08/26/2021	06:03	-131.952	47.233	0	215.80	0	6.3520	0	33.7710	0	26.539	0	213.892	0	157.6	4	52.4	4	-1E+10	1	-1E+10	1	-1E+10	1	-1E+10	1	-1E+10	1	-1E+10	1
4902549	38	C	08/26/2021	06:03	-131.952	47.233	0	216.90	0	6.3230	0	33.7690	0	26.542	0	214.982	0	157.1	4	52.2	4	-1E+10	1	-1E+10	1	-1E+10	1	-1E+10	1	-1E+10	1	-1E+10	1
4902549	38	C	08/26/2021	06:03	-131.952	47.233	0	218.00	0	6.3050	0	33.7680	0	26.543	0	216.072	0	156.6	4	52.0	4	-1E+10	1	-1E+10	1	-1E+10	1	-1E+10	1	-1E+10	1	-1E+10	1
4902549	38	C	08/26/2021	06:03	-131.952	47.233	0	219.10	0	6.3000	0	33.7690	0	26.544	0	217.162	0	155.9	4	51.8	4	-1E+10	1	-1E+10	1	-1E+10	1	-1E+10	1	-1E+10	1	-1E+10	1
4902549	38	C	08/26/2021	06:03	-131.952	47.233	0	220.30	0	6.2900	0	33.7700	0	26.547	0	218.350	0	155.4	4	51.6	4	-1E+10	1	-1E+10	1	-1E+10	1	-1E+10	1	-1E+10	1	-1E+10	1
4902549	38	C	08/26/2021	06:03	-131.952	47.233	0	221.40	0	6.2840	0	33.7720	0	26.549	0	219.440	0	154.8	4	51.4	4	-1E+10	1	-1E+10	1	-1E+10	1	-1E+10	1	-1E+10	1	-1E+10	1
4902549	38	C	08/26/2021	06:03	-131.952	47.233	0	222.50	0	6.2830	0	33.7720	0	26.549	0	220.530	0	154.2	4	51.2	4	-1E+10	1	-1E+10	1	-1E+10	1	-1E+10	1	-1E+10	1	-1E+10	1
4902549	38	C	08/26/2021	06:03	-131.952	47.233	0	223.60	0	6.2840	0	33.7730	0	26.550	0	221.619	0	153.4	4	51.0	4	-1E+10	1	-1E+10	1	-1E+10	1	-1E+10	1	-1E+10	1	-1E+10	1
4902549	38	C	08/26/2021	06:03	-131.952	47.233	0	224.70	0	6.2820	0	33.7740	0	26.551	0	222.709	0	152.7	4	50.7	4	-1E+10	1	-1E+10	1	-1E+10	1	-1E+10	1	-1E+10	1	-1E+10	1
4902549	38	C	08/26/2021	06:03	-131.952	47.233	0	225.90	0	6.2850	0	33.7780	0	26.554	0	223.898	0	151.9	4	50.5	4	-1E+10	1	-1E+10	1	-1E+10	1	-1E+10	1	-1E+10	1	-1E+10	1
4902549	38	C	08/26/2021	06:03	-131.952	47.233	0	227.00	0	6.2770	0	33.7790	0	26.555	0	224.987	0	151.3	4	50.3	4	-1E+10	1	-1E+10	1	-1E+10	1	-1E+10	1	-1E+10	1	-1E+10	1
4902549	38	C	08/26/2021	06:03	-131.952	47.233	0	228.10	0	6.2520	0	33.7820	0	26.561	0	226.077	0	150.8	4	50.1	4	-1E+10	1	-1E+10	1	-1E+10	1	-1E+10	1	-1E+10	1	-1E+10	1
4902549	38	C	08/26/2021	06:03	-131.952	47.233	0	229.20	0	6.2270	0	33.7790	0	26.562	0	227.167	0	150.2	4	49.8	4	-1E+10	1	-1E+10	1	-1E+10	1	-1E+10	1	-1E+10	1	-1E+10	1
4902549	38	C	08/26/2021	06:03	-131.952	47.233	0	230.30	0	6.2190	0	33.7780	0	26.562	0	228.256	0	149.5	4	49.6	4	-1E+10	1	-1E+10	1	-1E+10	1	-1E+10	1	-1E+10	1	-1E+10	1
4902549	38	C	08/26/2021	06:03	-131.952	47.233	0	231.30	0	6.2020	0	33.7760	0	26.563	0	229.247	0	148.7	4	49.3	4	-1E+10	1	-1E+10	1	-1E+10	1	-1E+10	1	-1E+10	1	-1E+10	1
4902549	38	C	08/26/2021	06:03	-131.952	47.233	0	232.40	0	6.1580	0	33.7770	0	26.569	0	230.336	0	148.0	4	49.0	4	-1E+10	1	-1E+10	1	-1E+10	1	-1E+10	1	-1E+10	1	-1E+10	1
4902549	38	C	08/26/2021	06:03	-131.952	47.233	0	233.50	0	6.1440	0	33.7760	0	26.570	0	231.426	0	147.2	4	48.8	4	-1E+10	1	-1E+10	1	-1E+10	1	-1E+10	1	-1E+10	1	-1E+10	1
4902549	38	C	08/26/2021	06:03	-131.952	47.233	0	234.60	0	6.1230	0	33.7760	0	26.573	0	232.516	0	146.5	4	48.5	4	-1E+10	1	-1E+10	1	-1E+10	1	-1E+10	1	-1E+10	1	-1E+10	1
4902549	38	C	08/26/2021	06:03	-131.952	47.233	0	235.70	0	6.1120	0	33.7790	0	26.576	0	233.605	0	145.7	4	48.2	4	-1E+10	1	-1E+10	1	-1E+10	1	-1E+10	1	-1E+10	1	-1E+10	1
4902549	38	C	08/26/2021	06:03	-131.952	47.233	0	236.70	0	6.0790	0	33.7780	0	26.580	0	234.596	0	145.1	4	48.0	4	-1E+10	1	-1E+10	1	-1E+10	1	-1E+10	1	-1E+10	1	-1E+10	1
4902549	38	C	08/26/2021	06:03	-131.952	47.233	0	237.70	0	6.0680	0	33.7780	0	26.581	0	235.586	0	144.3	4	47.7	4	-1E+10	1	-1E+10	1	-1E+10	1	-1E+10	1	-1E+10	1	-1E+10	1
4902549	38	C	08/26/2021	06:03	-131.952	47.233	0	238.80	0	6.0630	0	33.7780	0	26.582	0	236.676	0	143.4	4	47.4	4	-1E+10	1	-1E+10	1	-1E+10	1	-1E+10	1	-1E+10	1	-1E+10	1
4902549	38	C	08/26/2021	06:03	-131.952	47.233	0	239.80	0	6.0500	0	33.7800	0	26.585	0	237.666	0	142.6	4	47.1	4	-1E+10	1	-1E+10	1	-1E+10	1	-1E+10	1	-1E+10	1	-1E+10	1
4902549	38	C	08/26/2021	06:03	-131.952	47.233	0	240.80	0	6.0390	0	33.7830	0	26.589	0	238.657	0	141.7	4	46.8	4	-1E+10	1	-1E+10	1	-1E+10	1	-1E+10	1	-1E+10	1	-1E+10	1
4902549	38	C	08/26/2021	06:03	-131.952	47.233	0	241.80	0	6.0440	0	33.7830	0	26.588	0	239.648	0	140.9	4	46.6	4	-1E+10	1	-1E+10	1	-1E+10	1	-1E+10	1	-1E+10	1	-1E+10	1
4902549	38	C	08/26/2021	06:03	-131.952	47.233	0	242.90	0	6.0310	0	33.7840	0	26.591	0	240.737	0	140.1	4	46.3	4	-1E+10	1	-1E+10	1	-1E+10	1	-1E+10	1	-1E+10	1	-1E+10	1
4902549	38	C	08/26/2021	06:03	-131.952	47.233	0	243.90	0	6.0250	0	33.7920	0	26.598	0	241.728	0	139.3	4	46.0	4	-1E+10	1	-1E+10	1	-1E+10	1	-1E+10	1	-1E+10	1	-1E+10	1
4902549	38	C	08/26/2021	06:03	-131.952	47.233	0	244.90	0	5.9770	0	33.7870	0	26.600	0	242.718	0	138.6	4	45.7	4	-1E+10	1	-1E+10	1	-1E+10	1	-1E+10	1	-1E+10	1	-1E+10	1
4902549	38	C	08/26/2021	06:03	-131.952	47.233	0	245.90	0	5.9650	0	33.7860	0	26.600	0	243.709	0	137.7	4	45.4	4	-1E+10	1	-1E+10	1	-1E+10	1	-1E+10	1	-1E+10	1	-1E+10	1
4902549	38	C	08/26/2021	06:03	-131.952	47.233	0	246.80	0	5.9560	0	33.7880	0	26.603	0	244.600	0	136.8	4	45.1	4	-1E+10	1	-1E+10	1	-1E+10	1	-1E+10	1	-1E+10	1	-1E+10	1
4902549	38	C	08/26/2021	06:03	-131.952	47.233	0	247.90	0	5.9150	0	33.7900	0	26.610	0	245.690	0	136.0	4	44.8	4	-1E+10	1	-1E+10	1	-1E+10	1	-1E+10	1	-1E+10	1	-1E+10	1
4902549	38	C	08/26/2021	06:03	-131.952	47.233	0	248.80	0	5.8820	0	33.7880	0	26.612	0	246.581	0	135.4	4	44.6	4	-1E+10	1	-1E+10	1	-1E+10	1	-1E+10	1	-1E+10	1	-1E+10	1
4902549	38	C	08/26/2021	06:03	-131.952	47.233	0	249.80	0	5.8650	0	33.7890	0	26.615	0	247.572	0	134.7	4	44.3	4	-1E+10	1	-1E+10	1	-1E+10	1	-1E+10	1	-1E+10	1	-1E+10	1
4902549	38	C	08/26/2021	06:03	-131.952	47.233	0	250.80	0	5.8440	0	33.7910	0	26.619	0	248.562	0	134.1	4	44.1	4	-1E+10	1	-1E+10	1	-1E+10	1	-1E+10	1	-1E+10	1	-1E+10	1
4902549	38	C	08/26/2021	06:03	-131.952	47.233	0	251.80	0	5.8130	0	33.7920	0	26.624	0	249.552	0	133.6	4	43.9	4	-1E+10	1	-1E+10	1	-1E+10	1	-1E+10	1	-1E+10	1	-1E+10	1
4902549	38	C	08/26/2021	06:03	-131.952	47.233	0	252.70	0	5.8110	0	33.7930	0	26.625	0	250.444	0	133.1	4	43.7	4	-1E+10	1	-1E+10	1	-1E+10	1	-1E+10	1	-1E+10	1	-1E+10	1
4902549	38	C	08/26/2021	06:03	-131.952	47.233	0	253.70	0	5.8040	0	33.7950	0	26.628	0	251.434	0	132.5	4	43.6	4	-1E+10	1	-1E+10	1	-1E+10	1	-1E+10	1	-1E+10	1	-1E+10	1
4902549	38	C	08/26/2021	06:03	-131.952	47.233	0	254.70	0	5.7940	0	33.7950	0	26.629	0	252.425	0	132.1	4	43.4	4	-1E+10	1	-1E+10	1	-1E+10	1	-1E+10	1	-1E+10	1	-1E+10	1
4902549	38	C	08/26/2021	06:03	-131.952	47.233	0	255.70	0	5.7890	0	33.7950	0	26.629	0	253.415	0	131.5	4	43.2	4	-1E+10	1	-1E+10	1	-1E+10	1	-1E+10	1	-1E+10	1	-1E+10	1
4902549	38	C	08/26/2021	06:03	-131.952	47.233	0	256.60	0	5.7890	0	33.7940	0	26.629	0	254.307	0	130.9	4	43.0	4	-1E+10	1	-1E+10	1	-1E+10	1	-1E+10	1	-1E+10	1	-1E+10	1
4902549	38	C	08/26/2021	06:03	-131.952	47.233	0	257.60	0	5.7790	0	33.7960	0	26.631	0	255.297	0	130.3	4	42.8	4	-1E+10	1	-1E+10	1	-1E+10	1	-1E+10	1	-1E+10	1	-1E+10	1
4902549	38	C	08/26/2021	06:03	-131.952	47.233	0	258.60	0	5.7770	0	33.7950	0	26.631	0	256.288	0	129.6	4	42.6	4	-1E+10	1	-1E+10	1	-1E+10	1	-1E+10	1	-1E+10	1	-1E+10	1
4902549	38	C	08/26/2021	06:03	-131.952	47.233	0	259.60	0	5.7570	0	33.7990	0	26.637	0	257.278	0	128.9	4	42.3	4	-1E+10	1	-1E+10	1	-1E+10	1	-1E+10	1	-1E+10	1	-1E+10	1
4902549	38	C	08/26/2021	06:03	-131.952	47.233	0	260.50	0	5.7370	0	33.8040	0	26.643	0	258.169	0	128.5	4	42.2	4	-1E+10	1	-1E+10	1	-1E+10	1	-1E+10	1	-1E+10	1	-1E+10	1
4902549	38	C	08/26/2021	06:03	-131.952	47.233	0	261.50	0	5.7320	0	33.8040	0	26.644	0	259.160	0	128.1	4	42.0	4	-1E+10	1	-1E+10	1	-1E+10	1	-1E+10	1	-1E+10	1	-1E+10	1
4902549	38	C	08/26/2021	06:03	-131.952	47.233	0	262.50	0	5.7160	0	33.8030	0	26.645	0	260.150	0	127.7	4	41.9	4	-1E+10	1	-1E+10	1	-1E+10	1	-1E+10	1	-1E+10	1	-1E+10	1
4902549	38	C	08/26/2021	06:03	-131.952	47.233	0	263.50	0	5.7040	0	33.8020	0	26.645	0	261.141	0	127.2	4	41.7	4	-1E+10	1	-1E+10	1	-1E+10	1	-1E+10	1	-1E+10	1	-1E+10	1
4902549	38	C	08/26/2021	06:03	-131.952	47.233	0	264.90	0	5.7000	0	33.8040	0	26.647	0	262.527	0	126.5	4	41.5	4	-1E+10	1	-1E+10	1	-1E+10	1	-1E+10	1	-1E+10	1	-1E+10	1
4902549	38	C	08/26/2021	06:03	-131.952	47.233	0	266.40	0	5.6890	0	33.8060	0	26.650	0	264.013	0	125.8	4	41.2	4	-1E+10	1	-1E+10	1	-1E+10	1	-1E+10	1	-1E+10	1	-1E+10	1
4902549	38	C	08/26/2021	06:03	-131.952	47.233	0	267.30	0	5.6840	0	33.8100	0	26.654	0	264.904	0	125.3	4	41.1	4	-1E+10	1	-1E+10	1	-1E+10	1	-1E+10	1	-1E+10	1	-1E+10	1
4902549	38	C	08/26/2021	06:03	-131.952	47.233	0	268.30	0	5.6730	0	33.8080	0	26.654	0	265.895	0	124.9	4	40.9	4	-1E+10	1	-1E+10	1	-1E+10	1	-1E+10	1	-1E+10	1	-1E+10	1
4902549	38	C	08/26/2021	06:03	-131.952	47.233	0	269.20	0	5.6620	0	33.8100	0	26.657	0	266.786	0	124.5	4	40.8	4	-1E+10	1	-1E+10	1	-1E+10	1	-1E+10	1	-1E+10	1	-1E+10	1
4902549	38	C	08/26/2021	06:03	-131.952	47.233	0	270.30	0	5.6300	0	33.8080	0	26.659	0	267.875	0	123.9	4	40.6	4	-1E+10	1	-1E+10	1	-1E+10	1	-1E+10	1	-1E+10	1	-1E+10	1
4902549	38	C	08/26/2021	06:03	-131.952	47.233	0	271.00	0	5.6270	0	33.8090	0	26.660	0	268.569	0	123.5	4	40.4	4	-1E+10	1	-1E+10	1	-1E+10	1	-1E+10	1	-1E+10	1	-1E+10	1
4902549	38	C	08/26/2021	06:03	-131.952	47.233	0	272.00	0	5.6010	0	33.8080	0	26.663	0	269.559	0	123.0	4	40.2	4	-1E+10	1	-1E+10	1	-1E+10	1	-1E+10	1	-1E+10	1	-1E+10	1
4902549	38	C	08/26/2021	06:03	-131.952	47.233	0	273.20	0	5.5970	0	33.8070	0	26.662	0	270.747	0	122.3	4	40.0	4	-1E+10	1	-1E+10	1	-1E+10	1	-1E+10	1	-1E+10	1	-1E+10	1
4902549	38	C	08/26/2021	06:03	-131.952	47.233	0	273.90	0	5.5970	0	33.8070	0	26.662	0	271.441	0	121.8	4	39.8	4	-1E+10	1	-1E+10	1	-1E+10	1	-1E+10	1	-1E+10	1	-1E+10	1
4902549	38	C	08/26/2021	06:03	-131.952	47.233	0	275.00	0	5.5920	0	33.8090	0	26.665	0	272.530	0	120.9	4	39.5	4	-1E+10	1	-1E+10	1	-1E+10	1	-1E+10	1	-1E+10	1	-1E+10	1
4902549	38	C	08/26/2021	06:03	-131.952	47.233	0	276.10	0	5.5710	0	33.8090	0	26.667	0	273.620	0	120.0	4	39.2	4	-1E+10	1	-1E+10	1	-1E+10	1	-1E+10	1	-1E+10	1	-1E+10	1
4902549	38	C	08/26/2021	06:03	-131.952	47.233	0	276.90	0	5.5300	0	33.8080	0	26.671	0	274.412	0	119.6	4	39.0	4	-1E+10	1	-1E+10	1	-1E+10	1	-1E+10	1	-1E+10	1	-1E+10	1
4902549	38	C	08/26/2021	06:03	-131.952	47.233	0	278.00	0	5.5160	0	33.8090	0	26.674	0	275.501	0	118.8	4	38.8	4	-1E+10	1	-1E+10	1	-1E+10	1	-1E+10	1	-1E+10	1	-1E+10	1
4902549	38	C	08/26/2021	06:03	-131.952	47.233	0	279.20	0	5.5030	0	33.8110	0	26.677	0	276.690	0	118.1	4	38.6	4	-1E+10	1	-1E+10	1	-1E+10	1	-1E+10	1	-1E+10	1	-1E+10	1
4902549	38	C	08/26/2021	06:03	-131.952	47.233	0	279.90	0	5.4930	0	33.8120	0	26.679	0	277.383	0	117.7	4	38.4	4	-1E+10	1	-1E+10	1	-1E+10	1	-1E+10	1	-1E+10	1	-1E+10	1
4902549	38	C	08/26/2021	06:03	-131.952	47.233	0	280.70	0	5.4710	0	33.8140	0	26.683	0	278.175	0	117.3	4	38.3	4	-1E+10	1	-1E+10	1	-1E+10	1	-1E+10	1	-1E+10	1	-1E+10	1
4902549	38	C	08/26/2021	06:03	-131.952	47.233	0	281.90	0	5.4530	0	33.8130	0	26.684	0	279.364	0	116.9	4	38.1	4	-1E+10	1	-1E+10	1	-1E+10	1	-1E+10	1	-1E+10	1	-1E+10	1
4902549	38	C	08/26/2021	06:03	-131.952	47.233	0	283.10	0	5.4420	0	33.8130	0	26.686	0	280.552	0	116.4	4	37.9	4	-1E+10	1	-1E+10	1	-1E+10	1	-1E+10	1	-1E+10	1	-1E+10	1
4902549	38	C	08/26/2021	06:03	-131.952	47.233	0	283.90	0	5.4360	0	33.8130	0	26.686	0	281.344	0	116.1	4	37.8	4	-1E+10	1	-1E+10	1	-1E+10	1	-1E+10	1	-1E+10	1	-1E+10	1
4902549	38	C	08/26/2021	06:03	-131.952	47.233	0	284.70	0	5.4320	0	33.8130	0	26.687	0	282.136	0	115.8	4	37.7	4	-1E+10	1	-1E+10	1	-1E+10	1	-1E+10	1	-1E+10	1	-1E+10	1
4902549	38	C	08/26/2021	06:03	-131.952	47.233	0	285.90	0	5.4190	0	33.8140	0	26.689	0	283.325	0	115.2	4	37.5	4	-1E+10	1	-1E+10	1	-1E+10	1	-1E+10	1	-1E+10	1	-1E+10	1
4902549	38	C	08/26/2021	06:03	-131.952	47.233	0	287.10	0	5.4130	0	33.8150	0	26.691	0	284.513	0	114.7	4	37.4	4	-1E+10	1	-1E+10	1	-1E+10	1	-1E+10	1	-1E+10	1	-1E+10	1
4902549	38	C	08/26/2021	06:03	-131.952	47.233	0	287.90	0	5.4090	0	33.8140	0	26.690	0	285.305	0	114.2	4	37.2	4	-1E+10	1	-1E+10	1	-1E+10	1	-1E+10	1	-1E+10	1	-1E+10	1
4902549	38	C	08/26/2021	06:03	-131.952	47.233	0	288.80	0	5.3840	0	33.8180	0	26.697	0	286.197	0	113.9	4	37.1	4	-1E+10	1	-1E+10	1	-1E+10	1	-1E+10	1	-1E+10	1	-1E+10	1
4902549	38	C	08/26/2021	06:03	-131.952	47.233	0	289.70	0	5.3770	0	33.8170	0	26.697	0	287.088	0	113.7	4	37.0	4	-1E+10	1	-1E+10	1	-1E+10	1	-1E+10	1	-1E+10	1	-1E+10	1
4902549	38	C	08/26/2021	06:03	-131.952	47.233	0	290.90	0	5.3760	0	33.8170	0	26.697	0	288.276	0	113.1	4	36.8	4	-1E+10	1	-1E+10	1	-1E+10	1	-1E+10	1	-1E+10	1	-1E+10	1
4902549	38	C	08/26/2021	06:03	-131.952	47.233	0	292.20	0	5.3680	0	33.8180	0	26.698	0	289.564	0	112.6	4	36.6	4	-1E+10	1	-1E+10	1	-1E+10	1	-1E+10	1	-1E+10	1	-1E+10	1
4902549	38	C	08/26/2021	06:03	-131.952	47.233	0	293.10	0	5.3580	0	33.8190	0	26.700	0	290.455	0	112.2	4	36.5	4	-1E+10	1	-1E+10	1	-1E+10	1	-1E+10	1	-1E+10	1	-1E+10	1
4902549	38	C	08/26/2021	06:03	-131.952	47.233	0	294.00	0	5.3540	0	33.8190	0	26.701	0	291.346	0	111.7	4	36.3	4	-1E+10	1	-1E+10	1	-1E+10	1	-1E+10	1	-1E+10	1	-1E+10	1
4902549	38	C	08/26/2021	06:03	-131.952	47.233	0	294.90	0	5.3430	0	33.8190	0	26.702	0	292.237	0	111.4	4	36.2	4	-1E+10	1	-1E+10	1	-1E+10	1	-1E+10	1	-1E+10	1	-1E+10	1
4902549	38	C	08/26/2021	06:03	-131.952	47.233	0	295.80	0	5.3380	0	33.8200	0	26.704	0	293.129	0	111.0	4	36.1	4	-1E+10	1	-1E+10	1	-1E+10	1	-1E+10	1	-1E+10	1	-1E+10	1
4902549	38	C	08/26/2021	06:03	-131.952	47.233	0	296.70	0	5.3290	0	33.8200	0	26.705	0	294.020	0	110.6	4	36.0	4	-1E+10	1	-1E+10	1	-1E+10	1	-1E+10	1	-1E+10	1	-1E+10	1
4902549	38	C	08/26/2021	06:03	-131.952	47.233	0	297.70	0	5.3230	0	33.8220	0	26.707	0	295.010	0	110.3	4	35.8	4	-1E+10	1	-1E+10	1	-1E+10	1	-1E+10	1	-1E+10	1	-1E+10	1
4902549	38	C	08/26/2021	06:03	-131.952	47.233	0	298.60	0	5.3180	0	33.8220	0	26.708	0	295.901	0	109.9	4	35.7	4	-1E+10	1	-1E+10	1	-1E+10	1	-1E+10	1	-1E+10	1	-1E+10	1
4902549	38	C	08/26/2021	06:03	-131.952	47.233	0	299.90	0	5.3080	0	33.8250	0	26.711	0	297.189	0	109.5	4	35.6	4	-1E+10	1	-1E+10	1	-1E+10	1	-1E+10	1	-1E+10	1	-1E+10	1
4902549	38	C	08/26/2021	06:03	-131.952	47.233	0	301.30	0	5.3590	0	33.8300	0	26.709	0	298.575	0	108.7	4	35.4	4	-1E+10	1	-1E+10	1	-1E+10	1	-1E+10	1	-1E+10	1	-1E+10	1
4902549	38	C	08/26/2021	06:03	-131.952	47.233	0	302.20	0	5.3300	0	33.8340	0	26.716	0	299.466	0	108.3	4	35.2	4	-1E+10	1	-1E+10	1	-1E+10	1	-1E+10	1	-1E+10	1	-1E+10	1
4902549	38	C	08/26/2021	06:03	-131.952	47.233	0	303.10	0	5.3190	0	33.8320	0	26.715	0	300.357	0	108.0	4	35.1	4	-1E+10	1	-1E+10	1	-1E+10	1	-1E+10	1	-1E+10	1	-1E+10	1
4902549	38	C	08/26/2021	06:03	-131.952	47.233	0	304.00	0	5.3110	0	33.8320	0	26.716	0	301.249	0	107.6	4	34.9	4	-1E+10	1	-1E+10	1	-1E+10	1	-1E+10	1	-1E+10	1	-1E+10	1
4902549	38	C	08/26/2021	06:03	-131.952	47.233	0	305.00	0	5.3240	0	33.8340	0	26.716	0	302.239	0	107.0	4	34.8	4	-1E+10	1	-1E+10	1	-1E+10	1	-1E+10	1	-1E+10	1	-1E+10	1
4902549	38	C	08/26/2021	06:03	-131.952	47.233	0	305.90	0	5.2840	0	33.8400	0	26.726	0	303.130	0	106.6	4	34.6	4	-1E+10	1	-1E+10	1	-1E+10	1	-1E+10	1	-1E+10	1	-1E+10	1
4902549	38	C	08/26/2021	06:03	-131.952	47.233	0	306.80	0	5.2840	0	33.8320	0	26.719	0	304.021	0	106.3	4	34.5	4	-1E+10	1	-1E+10	1	-1E+10	1	-1E+10	1	-1E+10	1	-1E+10	1
4902549	38	C	08/26/2021	06:03	-131.952	47.233	0	307.70	0	5.2710	0	33.8320	0	26.721	0	304.912	0	105.9	4	34.4	4	-1E+10	1	-1E+10	1	-1E+10	1	-1E+10	1	-1E+10	1	-1E+10	1
4902549	38	C	08/26/2021	06:03	-131.952	47.233	0	308.60	0	5.2770	0	33.8320	0	26.720	0	305.804	0	105.4	4	34.2	4	-1E+10	1	-1E+10	1	-1E+10	1	-1E+10	1	-1E+10	1	-1E+10	1
4902549	38	C	08/26/2021	06:03	-131.952	47.233	0	309.60	0	5.2490	0	33.8350	0	26.726	0	306.794	0	105.0	4	34.1	4	-1E+10	1	-1E+10	1	-1E+10	1	-1E+10	1	-1E+10	1	-1E+10	1
4902549	38	C	08/26/2021	06:03	-131.952	47.233	0	310.90	0	5.2240	0	33.8320	0	26.726	0	308.081	0	104.6	4	33.9	4	-1E+10	1	-1E+10	1	-1E+10	1	-1E+10	1	-1E+10	1	-1E+10	1
4902549	38	C	08/26/2021	06:03	-131.952	47.233	0	312.30	0	5.2070	0	33.8310	0	26.728	0	309.467	0	104.3	4	33.8	4	-1E+10	1	-1E+10	1	-1E+10	1	-1E+10	1	-1E+10	1	-1E+10	1
4902549	38	C	08/26/2021	06:03	-131.952	47.233	0	313.20	0	5.2070	0	33.8320	0	26.728	0	310.358	0	104.0	4	33.7	4	-1E+10	1	-1E+10	1	-1E+10	1	-1E+10	1	-1E+10	1	-1E+10	1
4902549	38	C	08/26/2021	06:03	-131.952	47.233	0	314.20	0	5.2070	0	33.8340	0	26.730	0	311.349	0	103.6	4	33.6	4	-1E+10	1	-1E+10	1	-1E+10	1	-1E+10	1	-1E+10	1	-1E+10	1
4902549	38	C	08/26/2021	06:03	-131.952	47.233	0	315.10	0	5.2010	0	33.8330	0	26.730	0	312.240	0	103.3	4	33.5	4	-1E+10	1	-1E+10	1	-1E+10	1	-1E+10	1	-1E+10	1	-1E+10	1
4902549	38	C	08/26/2021	06:03	-131.952	47.233	0	316.00	0	5.2010	0	33.8340	0	26.731	0	313.131	0	102.8	4	33.3	4	-1E+10	1	-1E+10	1	-1E+10	1	-1E+10	1	-1E+10	1	-1E+10	1
4902549	38	C	08/26/2021	06:03	-131.952	47.233	0	316.90	0	5.1980	0	33.8370	0	26.734	0	314.022	0	102.4	4	33.2	4	-1E+10	1	-1E+10	1	-1E+10	1	-1E+10	1	-1E+10	1	-1E+10	1
4902549	38	C	08/26/2021	06:03	-131.952	47.233	0	317.80	0	5.1790	0	33.8350	0	26.734	0	314.913	0	102.0	4	33.0	4	-1E+10	1	-1E+10	1	-1E+10	1	-1E+10	1	-1E+10	1	-1E+10	1
4902549	38	C	08/26/2021	06:03	-131.952	47.233	0	318.80	0	5.1730	0	33.8370	0	26.736	0	315.903	0	101.6	4	32.9	4	-1E+10	1	-1E+10	1	-1E+10	1	-1E+10	1	-1E+10	1	-1E+10	1
4902549	38	C	08/26/2021	06:03	-131.952	47.233	0	319.70	0	5.1710	0	33.8370	0	26.737	0	316.795	0	101.2	4	32.8	4	-1E+10	1	-1E+10	1	-1E+10	1	-1E+10	1	-1E+10	1	-1E+10	1
4902549	38	C	08/26/2021	06:03	-131.952	47.233	0	320.60	0	5.1660	0	33.8370	0	26.737	0	317.686	0	100.7	4	32.6	4	-1E+10	1	-1E+10	1	-1E+10	1	-1E+10	1	-1E+10	1	-1E+10	1
4902549	38	C	08/26/2021	06:03	-131.952	47.233	0	321.60	0	5.1570	0	33.8380	0	26.739	0	318.676	0	100.2	4	32.4	4	-1E+10	1	-1E+10	1	-1E+10	1	-1E+10	1	-1E+10	1	-1E+10	1
4902549	38	C	08/26/2021	06:03	-131.952	47.233	0	322.50	0	5.1510	0	33.8360	0	26.738	0	319.567	0	99.7	4	32.3	4	-1E+10	1	-1E+10	1	-1E+10	1	-1E+10	1	-1E+10	1	-1E+10	1
4902549	38	C	08/26/2021	06:03	-131.952	47.233	0	323.90	0	5.1450	0	33.8360	0	26.739	0	320.953	0	98.8	4	32.0	4	-1E+10	1	-1E+10	1	-1E+10	1	-1E+10	1	-1E+10	1	-1E+10	1
4902549	38	C	08/26/2021	06:03	-131.952	47.233	0	325.30	0	5.1300	0	33.8390	0	26.743	0	322.339	0	97.9	4	31.7	4	-1E+10	1	-1E+10	1	-1E+10	1	-1E+10	1	-1E+10	1	-1E+10	1
4902549	38	C	08/26/2021	06:03	-131.952	47.233	0	326.30	0	5.1220	0	33.8370	0	26.742	0	323.329	0	97.3	4	31.5	4	-1E+10	1	-1E+10	1	-1E+10	1	-1E+10	1	-1E+10	1	-1E+10	1
4902549	38	C	08/26/2021	06:03	-131.952	47.233	0	327.30	0	5.1060	0	33.8420	0	26.748	0	324.319	0	96.7	4	31.3	4	-1E+10	1	-1E+10	1	-1E+10	1	-1E+10	1	-1E+10	1	-1E+10	1
4902549	38	C	08/26/2021	06:03	-131.952	47.233	0	328.20	0	5.0860	0	33.8440	0	26.752	0	325.211	0	96.2	4	31.1	4	-1E+10	1	-1E+10	1	-1E+10	1	-1E+10	1	-1E+10	1	-1E+10	1
4902549	38	C	08/26/2021	06:03	-131.952	47.233	0	329.20	0	5.0840	0	33.8420	0	26.751	0	326.201	0	95.7	4	30.9	4	-1E+10	1	-1E+10	1	-1E+10	1	-1E+10	1	-1E+10	1	-1E+10	1
4902549	38	C	08/26/2021	06:03	-131.952	47.233	0	330.20	0	5.0840	0	33.8410	0	26.750	0	327.191	0	95.2	4	30.8	4	-1E+10	1	-1E+10	1	-1E+10	1	-1E+10	1	-1E+10	1	-1E+10	1
4902549	38	C	08/26/2021	06:03	-131.952	47.233	0	331.20	0	5.0780	0	33.8430	0	26.752	0	328.181	0	94.5	4	30.5	4	-1E+10	1	-1E+10	1	-1E+10	1	-1E+10	1	-1E+10	1	-1E+10	1
4902549	38	C	08/26/2021	06:03	-131.952	47.233	0	332.20	0	5.0530	0	33.8460	0	26.757	0	329.171	0	93.9	4	30.3	4	-1E+10	1	-1E+10	1	-1E+10	1	-1E+10	1	-1E+10	1	-1E+10	1
4902549	38	C	08/26/2021	06:03	-131.952	47.233	0	333.20	0	5.0500	0	33.8450	0	26.757	0	330.161	0	93.4	4	30.2	4	-1E+10	1	-1E+10	1	-1E+10	1	-1E+10	1	-1E+10	1	-1E+10	1
4902549	38	C	08/26/2021	06:03	-131.952	47.233	0	334.20	0	5.0390	0	33.8470	0	26.760	0	331.151	0	92.8	4	30.0	4	-1E+10	1	-1E+10	1	-1E+10	1	-1E+10	1	-1E+10	1	-1E+10	1
4902549	38	C	08/26/2021	06:03	-131.952	47.233	0	335.20	0	5.0310	0	33.8480	0	26.762	0	332.141	0	92.3	4	29.8	4	-1E+10	1	-1E+10	1	-1E+10	1	-1E+10	1	-1E+10	1	-1E+10	1
4902549	38	C	08/26/2021	06:03	-131.952	47.233	0	336.20	0	5.0210	0	33.8480	0	26.763	0	333.131	0	91.7	4	29.6	4	-1E+10	1	-1E+10	1	-1E+10	1	-1E+10	1	-1E+10	1	-1E+10	1
4902549	38	C	08/26/2021	06:03	-131.952	47.233	0	337.30	0	4.9990	0	33.8520	0	26.768	0	334.220	0	91.3	4	29.4	4	-1E+10	1	-1E+10	1	-1E+10	1	-1E+10	1	-1E+10	1	-1E+10	1
4902549	38	C	08/26/2021	06:03	-131.952	47.233	0	338.30	0	4.9940	0	33.8530	0	26.770	0	335.210	0	90.8	4	29.3	4	-1E+10	1	-1E+10	1	-1E+10	1	-1E+10	1	-1E+10	1	-1E+10	1
4902549	38	C	08/26/2021	06:03	-131.952	47.233	0	339.30	0	4.9880	0	33.8530	0	26.770	0	336.200	0	90.3	4	29.1	4	-1E+10	1	-1E+10	1	-1E+10	1	-1E+10	1	-1E+10	1	-1E+10	1
4902549	38	C	08/26/2021	06:03	-131.952	47.233	0	340.40	0	4.9830	0	33.8540	0	26.772	0	337.290	0	89.8	4	29.0	4	-1E+10	1	-1E+10	1	-1E+10	1	-1E+10	1	-1E+10	1	-1E+10	1
4902549	38	C	08/26/2021	06:03	-131.952	47.233	0	341.40	0	4.9800	0	33.8540	0	26.772	0	338.280	0	89.3	4	28.8	4	-1E+10	1	-1E+10	1	-1E+10	1	-1E+10	1	-1E+10	1	-1E+10	1
4902549	38	C	08/26/2021	06:03	-131.952	47.233	0	342.50	0	4.9710	0	33.8540	0	26.773	0	339.369	0	88.7	4	28.6	4	-1E+10	1	-1E+10	1	-1E+10	1	-1E+10	1	-1E+10	1	-1E+10	1
4902549	38	C	08/26/2021	06:03	-131.952	47.233	0	343.50	0	4.9670	0	33.8540	0	26.774	0	340.359	0	88.1	4	28.4	4	-1E+10	1	-1E+10	1	-1E+10	1	-1E+10	1	-1E+10	1	-1E+10	1
4902549	38	C	08/26/2021	06:03	-131.952	47.233	0	344.60	0	4.9350	0	33.8590	0	26.781	0	341.448	0	87.6	4	28.2	4	-1E+10	1	-1E+10	1	-1E+10	1	-1E+10	1	-1E+10	1	-1E+10	1
4902549	38	C	08/26/2021	06:03	-131.952	47.233	0	345.70	0	4.9270	0	33.8600	0	26.783	0	342.537	0	87.3	4	28.1	4	-1E+10	1	-1E+10	1	-1E+10	1	-1E+10	1	-1E+10	1	-1E+10	1
4902549	38	C	08/26/2021	06:03	-131.952	47.233	0	346.80	0	4.9170	0	33.8620	0	26.786	0	343.626	0	86.9	4	28.0	4	-1E+10	1	-1E+10	1	-1E+10	1	-1E+10	1	-1E+10	1	-1E+10	1
4902549	38	C	08/26/2021	06:03	-131.952	47.233	0	347.90	0	4.9120	0	33.8620	0	26.786	0	344.715	0	86.6	4	27.9	4	-1E+10	1	-1E+10	1	-1E+10	1	-1E+10	1	-1E+10	1	-1E+10	1
4902549	38	C	08/26/2021	06:03	-131.952	47.233	0	348.90	0	4.9030	0	33.8630	0	26.788	0	345.705	0	86.4	4	27.8	4	-1E+10	1	-1E+10	1	-1E+10	1	-1E+10	1	-1E+10	1	-1E+10	1
4902549	38	C	08/26/2021	06:03	-131.952	47.233	0	350.00	0	4.8980	0	33.8640	0	26.789	0	346.794	0	86.1	4	27.7	4	-1E+10	1	-1E+10	1	-1E+10	1	-1E+10	1	-1E+10	1	-1E+10	1
4902549	38	C	08/26/2021	06:03	-131.952	47.233	0	352.70	0	4.8920	0	33.8650	0	26.791	0	349.467	0	85.5	4	27.5	4	-1E+10	1	-1E+10	1	-1E+10	1	-1E+10	1	-1E+10	1	-1E+10	1
4902549	38	C	08/26/2021	06:03	-131.952	47.233	0	357.80	0	4.8800	0	33.8660	0	26.793	0	354.516	0	83.8	4	27.0	4	-1E+10	1	-1E+10	1	-1E+10	1	-1E+10	1	-1E+10	1	-1E+10	1
4902549	38	C	08/26/2021	06:03	-131.952	47.233	0	362.90	0	4.8500	0	33.8710	0	26.800	0	359.564	0	82.3	4	26.4	4	-1E+10	1	-1E+10	1	-1E+10	1	-1E+10	1	-1E+10	1	-1E+10	1
4902549	38	C	08/26/2021	06:03	-131.952	47.233	0	368.00	0	4.8280	0	33.8740	0	26.805	0	364.613	0	81.2	4	26.1	4	-1E+10	1	-1E+10	1	-1E+10	1	-1E+10	1	-1E+10	1	-1E+10	1
4902549	38	C	08/26/2021	06:03	-131.952	47.233	0	373.20	0	4.8100	0	33.8780	0	26.810	0	369.761	0	80.4	4	25.8	4	-1E+10	1	-1E+10	1	-1E+10	1	-1E+10	1	-1E+10	1	-1E+10	1
4902549	38	C	08/26/2021	06:03	-131.952	47.233	0	377.90	0	4.8060	0	33.8810	0	26.813	0	374.413	0	79.4	4	25.5	4	-1E+10	1	-1E+10	1	-1E+10	1	-1E+10	1	-1E+10	1	-1E+10	1
4902549	38	C	08/26/2021	06:03	-131.952	47.233	0	383.00	0	4.7980	0	33.8890	0	26.821	0	379.461	0	78.0	4	25.1	4	-1E+10	1	-1E+10	1	-1E+10	1	-1E+10	1	-1E+10	1	-1E+10	1
4902549	38	C	08/26/2021	06:03	-131.952	47.233	0	388.20	0	4.7800	0	33.8910	0	26.824	0	384.608	0	76.2	4	24.5	4	-1E+10	1	-1E+10	1	-1E+10	1	-1E+10	1	-1E+10	1	-1E+10	1
4902549	38	C	08/26/2021	06:03	-131.952	47.233	0	392.70	0	4.7520	0	33.8990	0	26.834	0	389.063	0	74.7	4	24.0	4	-1E+10	1	-1E+10	1	-1E+10	1	-1E+10	1	-1E+10	1	-1E+10	1
4902549	38	C	08/26/2021	06:03	-131.952	47.233	0	397.70	0	4.7360	0	33.9030	0	26.839	0	394.012	0	73.0	4	23.4	4	-1E+10	1	-1E+10	1	-1E+10	1	-1E+10	1	-1E+10	1	-1E+10	1
4902549	38	C	08/26/2021	06:03	-131.952	47.233	0	403.20	0	4.7170	0	33.9100	0	26.846	0	399.455	0	70.6	4	22.6	4	-1E+10	1	-1E+10	1	-1E+10	1	-1E+10	1	-1E+10	1	-1E+10	1
4902549	38	C	08/26/2021	06:03	-131.952	47.233	0	408.00	0	4.6820	0	33.9170	0	26.856	0	404.206	0	68.2	4	21.8	4	-1E+10	1	-1E+10	1	-1E+10	1	-1E+10	1	-1E+10	1	-1E+10	1
4902549	38	C	08/26/2021	06:03	-131.952	47.233	0	412.90	0	4.6630	0	33.9190	0	26.859	0	409.056	0	67.0	4	21.4	4	-1E+10	1	-1E+10	1	-1E+10	1	-1E+10	1	-1E+10	1	-1E+10	1
4902549	38	C	08/26/2021	06:03	-131.952	47.233	0	418.20	0	4.6390	0	33.9250	0	26.867	0	414.301	0	65.7	4	21.0	4	-1E+10	1	-1E+10	1	-1E+10	1	-1E+10	1	-1E+10	1	-1E+10	1
4902549	38	C	08/26/2021	06:03	-131.952	47.233	0	423.10	0	4.6220	0	33.9280	0	26.871	0	419.150	0	64.5	4	20.6	4	-1E+10	1	-1E+10	1	-1E+10	1	-1E+10	1	-1E+10	1	-1E+10	1
4902549	38	C	08/26/2021	06:03	-131.952	47.233	0	427.90	0	4.6100	0	33.9320	0	26.876	0	423.901	0	63.3	4	20.2	4	-1E+10	1	-1E+10	1	-1E+10	1	-1E+10	1	-1E+10	1	-1E+10	1
4902549	38	C	08/26/2021	06:03	-131.952	47.233	0	432.80	0	4.5950	0	33.9370	0	26.881	0	428.750	0	61.8	4	19.8	4	-1E+10	1	-1E+10	1	-1E+10	1	-1E+10	1	-1E+10	1	-1E+10	1
4902549	38	C	08/26/2021	06:03	-131.952	47.233	0	437.80	0	4.5740	0	33.9450	0	26.890	0	433.698	0	61.0	4	19.5	4	-1E+10	1	-1E+10	1	-1E+10	1	-1E+10	1	-1E+10	1	-1E+10	1
4902549	38	C	08/26/2021	06:03	-131.952	47.233	0	442.70	0	4.5460	0	33.9500	0	26.897	0	438.547	0	59.9	4	19.1	4	-1E+10	1	-1E+10	1	-1E+10	1	-1E+10	1	-1E+10	1	-1E+10	1
4902549	38	C	08/26/2021	06:03	-131.952	47.233	0	447.60	0	4.5220	0	33.9550	0	26.904	0	443.395	0	58.9	4	18.8	4	-1E+10	1	-1E+10	1	-1E+10	1	-1E+10	1	-1E+10	1	-1E+10	1
4902549	38	C	08/26/2021	06:03	-131.952	47.233	0	453.10	0	4.5040	0	33.9590	0	26.909	0	448.838	0	57.8	4	18.5	4	-1E+10	1	-1E+10	1	-1E+10	1	-1E+10	1	-1E+10	1	-1E+10	1
4902549	38	C	08/26/2021	06:03	-131.952	47.233	0	457.90	0	4.4890	0	33.9650	0	26.915	0	453.587	0	56.9	4	18.1	4	-1E+10	1	-1E+10	1	-1E+10	1	-1E+10	1	-1E+10	1	-1E+10	1
4902549	38	C	08/26/2021	06:03	-131.952	47.233	0	462.80	0	4.4830	0	33.9670	0	26.918	0	458.436	0	56.0	4	17.9	4	-1E+10	1	-1E+10	1	-1E+10	1	-1E+10	1	-1E+10	1	-1E+10	1
4902549	38	C	08/26/2021	06:03	-131.952	47.233	0	468.20	0	4.4750	0	33.9700	0	26.921	0	463.779	0	54.6	4	17.4	4	-1E+10	1	-1E+10	1	-1E+10	1	-1E+10	1	-1E+10	1	-1E+10	1
4902549	38	C	08/26/2021	06:03	-131.952	47.233	0	473.00	0	4.4610	0	33.9740	0	26.925	0	468.528	0	53.0	4	16.9	4	-1E+10	1	-1E+10	1	-1E+10	1	-1E+10	1	-1E+10	1	-1E+10	1
4902549	38	C	08/26/2021	06:03	-131.952	47.233	0	477.80	0	4.4410	0	33.9810	0	26.933	0	473.277	0	51.2	4	16.3	4	-1E+10	1	-1E+10	1	-1E+10	1	-1E+10	1	-1E+10	1	-1E+10	1
4902549	38	C	08/26/2021	06:03	-131.952	47.233	0	483.10	0	4.4200	0	33.9880	0	26.941	0	478.521	0	49.5	4	15.8	4	-1E+10	1	-1E+10	1	-1E+10	1	-1E+10	1	-1E+10	1	-1E+10	1
4902549	38	C	08/26/2021	06:03	-131.952	47.233	0	487.80	0	4.4060	0	33.9940	0	26.947	0	483.171	0	48.1	4	15.3	4	-1E+10	1	-1E+10	1	-1E+10	1	-1E+10	1	-1E+10	1	-1E+10	1
4902549	38	C	08/26/2021	06:03	-131.952	47.233	0	493.00	0	4.3870	0	34.0010	0	26.955	0	488.316	0	46.1	4	14.7	4	-1E+10	1	-1E+10	1	-1E+10	1	-1E+10	1	-1E+10	1	-1E+10	1
4902549	38	C	08/26/2021	06:03	-131.952	47.233	0	498.20	0	4.3620	0	34.0120	0	26.966	0	493.460	0	44.3	4	14.1	4	-1E+10	1	-1E+10	1	-1E+10	1	-1E+10	1	-1E+10	1	-1E+10	1
4902549	38	C	08/26/2021	06:03	-131.952	47.233	0	503.20	0	4.3470	0	34.0170	0	26.972	0	498.406	0	43.0	4	13.7	4	-1E+10	1	-1E+10	1	-1E+10	1	-1E+10	1	-1E+10	1	-1E+10	1
4902549	38	C	08/26/2021	06:03	-131.952	47.233	0	508.20	0	4.3290	0	34.0240	0	26.980	0	503.353	0	41.9	4	13.3	4	-1E+10	1	-1E+10	1	-1E+10	1	-1E+10	1	-1E+10	1	-1E+10	1
4902549	38	C	08/26/2021	06:03	-131.952	47.233	0	512.90	0	4.3230	0	34.0280	0	26.983	0	508.002	0	41.0	4	13.0	4	-1E+10	1	-1E+10	1	-1E+10	1	-1E+10	1	-1E+10	1	-1E+10	1
4902549	38	C	08/26/2021	06:03	-131.952	47.233	0	517.60	0	4.3140	0	34.0310	0	26.987	0	512.652	0	39.6	4	12.6	4	-1E+10	1	-1E+10	1	-1E+10	1	-1E+10	1	-1E+10	1	-1E+10	1
4902549	38	C	08/26/2021	06:03	-131.952	47.233	0	522.90	0	4.2970	0	34.0380	0	26.994	0	517.894	0	38.0	4	12.1	4	-1E+10	1	-1E+10	1	-1E+10	1	-1E+10	1	-1E+10	1	-1E+10	1
4902549	38	C	08/26/2021	06:03	-131.952	47.233	0	527.90	0	4.2780	0	34.0450	0	27.002	0	522.840	0	36.6	4	11.6	4	-1E+10	1	-1E+10	1	-1E+10	1	-1E+10	1	-1E+10	1	-1E+10	1
4902549	38	C	08/26/2021	06:03	-131.952	47.233	0	533.00	0	4.2610	0	34.0500	0	27.008	0	527.885	0	35.5	4	11.3	4	-1E+10	1	-1E+10	1	-1E+10	1	-1E+10	1	-1E+10	1	-1E+10	1
4902549	38	C	08/26/2021	06:03	-131.952	47.233	0	538.20	0	4.2480	0	34.0550	0	27.013	0	533.028	0	34.5	4	11.0	4	-1E+10	1	-1E+10	1	-1E+10	1	-1E+10	1	-1E+10	1	-1E+10	1
4902549	38	C	08/26/2021	06:03	-131.952	47.233	0	543.00	0	4.2320	0	34.0590	0	27.018	0	537.776	0	33.6	4	10.7	4	-1E+10	1	-1E+10	1	-1E+10	1	-1E+10	1	-1E+10	1	-1E+10	1
4902549	38	C	08/26/2021	06:03	-131.952	47.233	0	548.00	0	4.2190	0	34.0620	0	27.022	0	542.721	0	32.5	4	10.3	4	-1E+10	1	-1E+10	1	-1E+10	1	-1E+10	1	-1E+10	1	-1E+10	1
4902549	38	C	08/26/2021	06:03	-131.952	47.233	0	552.90	0	4.2040	0	34.0680	0	27.028	0	547.568	0	31.2	4	9.9	4	-1E+10	1	-1E+10	1	-1E+10	1	-1E+10	1	-1E+10	1	-1E+10	1
4902549	38	C	08/26/2021	06:03	-131.952	47.233	0	558.00	0	4.1890	0	34.0740	0	27.034	0	552.612	0	30.1	4	9.5	4	-1E+10	1	-1E+10	1	-1E+10	1	-1E+10	1	-1E+10	1	-1E+10	1
4902549	38	C	08/26/2021	06:03	-131.952	47.233	0	562.90	0	4.1720	0	34.0800	0	27.041	0	557.458	0	29.1	4	9.2	4	-1E+10	1	-1E+10	1	-1E+10	1	-1E+10	1	-1E+10	1	-1E+10	1
4902549	38	C	08/26/2021	06:03	-131.952	47.233	0	567.70	0	4.1600	0	34.0840	0	27.045	0	562.205	0	28.3	4	9.0	4	-1E+10	1	-1E+10	1	-1E+10	1	-1E+10	1	-1E+10	1	-1E+10	1
4902549	38	C	08/26/2021	06:03	-131.952	47.233	0	572.70	0	4.1500	0	34.0880	0	27.050	0	567.150	0	27.7	4	8.8	4	-1E+10	1	-1E+10	1	-1E+10	1	-1E+10	1	-1E+10	1	-1E+10	1
4902549	38	C	08/26/2021	06:03	-131.952	47.233	0	577.80	0	4.1300	0	34.0940	0	27.056	0	572.193	0	27.3	4	8.6	4	-1E+10	1	-1E+10	1	-1E+10	1	-1E+10	1	-1E+10	1	-1E+10	1
4902549	38	C	08/26/2021	06:03	-131.952	47.233	0	583.10	0	4.1210	0	34.0960	0	27.059	0	577.434	0	26.8	4	8.5	4	-1E+10	1	-1E+10	1	-1E+10	1	-1E+10	1	-1E+10	1	-1E+10	1
4902549	38	C	08/26/2021	06:03	-131.952	47.233	0	588.00	0	4.1120	0	34.0980	0	27.062	0	582.280	0	26.2	4	8.3	4	-1E+10	1	-1E+10	1	-1E+10	1	-1E+10	1	-1E+10	1	-1E+10	1
4902549	38	C	08/26/2021	06:03	-131.952	47.233	0	593.00	0	4.0980	0	34.1020	0	27.066	0	587.224	0	25.6	4	8.1	4	-1E+10	1	-1E+10	1	-1E+10	1	-1E+10	1	-1E+10	1	-1E+10	1
4902549	38	C	08/26/2021	06:03	-131.952	47.233	0	598.10	0	4.0840	0	34.1060	0	27.071	0	592.267	0	24.9	4	7.9	4	-1E+10	1	-1E+10	1	-1E+10	1	-1E+10	1	-1E+10	1	-1E+10	1
4902549	38	C	08/26/2021	06:03	-131.952	47.233	0	602.80	0	4.0760	0	34.1090	0	27.074	0	596.915	0	24.4	4	7.7	4	-1E+10	1	-1E+10	1	-1E+10	1	-1E+10	1	-1E+10	1	-1E+10	1
4902549	38	C	08/26/2021	06:03	-131.952	47.233	0	607.70	0	4.0650	0	34.1120	0	27.078	0	601.760	0	23.8	4	7.5	4	-1E+10	1	-1E+10	1	-1E+10	1	-1E+10	1	-1E+10	1	-1E+10	1
4902549	38	C	08/26/2021	06:03	-131.952	47.233	0	612.50	0	4.0500	0	34.1170	0	27.083	0	606.506	0	23.2	4	7.3	4	-1E+10	1	-1E+10	1	-1E+10	1	-1E+10	1	-1E+10	1	-1E+10	1
4902549	38	C	08/26/2021	06:03	-131.952	47.233	0	617.60	0	4.0350	0	34.1220	0	27.089	0	611.549	0	22.7	4	7.2	4	-1E+10	1	-1E+10	1	-1E+10	1	-1E+10	1	-1E+10	1	-1E+10	1
4902549	38	C	08/26/2021	06:03	-131.952	47.233	0	622.60	0	4.0260	0	34.1250	0	27.092	0	616.492	0	22.1	4	7.0	4	-1E+10	1	-1E+10	1	-1E+10	1	-1E+10	1	-1E+10	1	-1E+10	1
4902549	38	C	08/26/2021	06:03	-131.952	47.233	0	627.60	0	4.0180	0	34.1280	0	27.095	0	621.436	0	21.5	4	6.8	4	-1E+10	1	-1E+10	1	-1E+10	1	-1E+10	1	-1E+10	1	-1E+10	1
4902549	38	C	08/26/2021	06:03	-131.952	47.233	0	632.50	0	4.0080	0	34.1320	0	27.100	0	626.280	0	20.9	4	6.6	4	-1E+10	1	-1E+10	1	-1E+10	1	-1E+10	1	-1E+10	1	-1E+10	1
4902549	38	C	08/26/2021	06:03	-131.952	47.233	0	637.60	0	3.9940	0	34.1360	0	27.104	0	631.322	0	20.5	4	6.5	4	-1E+10	1	-1E+10	1	-1E+10	1	-1E+10	1	-1E+10	1	-1E+10	1
4902549	38	C	08/26/2021	06:03	-131.952	47.233	0	642.60	0	3.9850	0	34.1390	0	27.108	0	636.265	0	19.9	4	6.3	4	-1E+10	1	-1E+10	1	-1E+10	1	-1E+10	1	-1E+10	1	-1E+10	1
4902549	38	C	08/26/2021	06:03	-131.952	47.233	0	647.60	0	3.9720	0	34.1430	0	27.112	0	641.208	0	19.3	4	6.1	4	-1E+10	1	-1E+10	1	-1E+10	1	-1E+10	1	-1E+10	1	-1E+10	1
4902549	38	C	08/26/2021	06:03	-131.952	47.233	0	652.90	0	3.9610	0	34.1480	0	27.117	0	646.448	0	18.7	4	5.9	4	-1E+10	1	-1E+10	1	-1E+10	1	-1E+10	1	-1E+10	1	-1E+10	1
4902549	38	C	08/26/2021	06:03	-131.952	47.233	0	658.30	0	3.9520	0	34.1510	0	27.121	0	651.786	0	18.1	4	5.7	4	-1E+10	1	-1E+10	1	-1E+10	1	-1E+10	1	-1E+10	1	-1E+10	1
4902549	38	C	08/26/2021	06:03	-131.952	47.233	0	663.10	0	3.9290	0	34.1590	0	27.129	0	656.531	0	17.8	4	5.6	4	-1E+10	1	-1E+10	1	-1E+10	1	-1E+10	1	-1E+10	1	-1E+10	1
4902549	38	C	08/26/2021	06:03	-131.952	47.233	0	667.80	0	3.9220	0	34.1610	0	27.132	0	661.177	0	17.6	4	5.5	4	-1E+10	1	-1E+10	1	-1E+10	1	-1E+10	1	-1E+10	1	-1E+10	1
4902549	38	C	08/26/2021	06:03	-131.952	47.233	0	672.90	0	3.9120	0	34.1620	0	27.134	0	666.218	0	17.3	4	5.5	4	-1E+10	1	-1E+10	1	-1E+10	1	-1E+10	1	-1E+10	1	-1E+10	1
4902549	38	C	08/26/2021	06:03	-131.952	47.233	0	677.80	0	3.8920	0	34.1660	0	27.139	0	671.062	0	16.9	4	5.3	4	-1E+10	1	-1E+10	1	-1E+10	1	-1E+10	1	-1E+10	1	-1E+10	1
4902549	38	C	08/26/2021	06:03	-131.952	47.233	0	682.70	0	3.8770	0	34.1710	0	27.144	0	675.905	0	16.4	4	5.2	4	-1E+10	1	-1E+10	1	-1E+10	1	-1E+10	1	-1E+10	1	-1E+10	1
4902549	38	C	08/26/2021	06:03	-131.952	47.233	0	687.90	0	3.8680	0	34.1750	0	27.148	0	681.045	0	15.9	4	5.0	4	-1E+10	1	-1E+10	1	-1E+10	1	-1E+10	1	-1E+10	1	-1E+10	1
4902549	38	C	08/26/2021	06:03	-131.952	47.233	0	693.10	0	3.8520	0	34.1790	0	27.153	0	686.184	0	15.6	4	4.9	4	-1E+10	1	-1E+10	1	-1E+10	1	-1E+10	1	-1E+10	1	-1E+10	1
4902549	38	C	08/26/2021	06:03	-131.952	47.233	0	698.20	0	3.8280	0	34.1860	0	27.161	0	691.225	0	15.2	4	4.8	4	-1E+10	1	-1E+10	1	-1E+10	1	-1E+10	1	-1E+10	1	-1E+10	1
4902549	38	C	08/26/2021	06:03	-131.952	47.233	0	703.00	0	3.8190	0	34.1880	0	27.164	0	695.969	0	14.9	4	4.7	4	-1E+10	1	-1E+10	1	-1E+10	1	-1E+10	1	-1E+10	1	-1E+10	1
4902549	38	C	08/26/2021	06:03	-131.952	47.233	0	707.70	0	3.7990	0	34.1930	0	27.170	0	700.614	0	14.5	4	4.6	4	-1E+10	1	-1E+10	1	-1E+10	1	-1E+10	1	-1E+10	1	-1E+10	1
4902549	38	C	08/26/2021	06:03	-131.952	47.233	0	712.70	0	3.7890	0	34.1960	0	27.173	0	705.556	0	14.2	4	4.5	4	-1E+10	1	-1E+10	1	-1E+10	1	-1E+10	1	-1E+10	1	-1E+10	1
4902549	38	C	08/26/2021	06:03	-131.952	47.233	0	717.80	0	3.7840	0	34.1990	0	27.176	0	710.596	0	13.9	4	4.4	4	-1E+10	1	-1E+10	1	-1E+10	1	-1E+10	1	-1E+10	1	-1E+10	1
4902549	38	C	08/26/2021	06:03	-131.952	47.233	0	722.90	0	3.7800	0	34.2010	0	27.178	0	715.636	0	13.7	4	4.3	4	-1E+10	1	-1E+10	1	-1E+10	1	-1E+10	1	-1E+10	1	-1E+10	1
4902549	38	C	08/26/2021	06:03	-131.952	47.233	0	728.10	0	3.7690	0	34.2030	0	27.181	0	720.775	0	13.5	4	4.2	4	-1E+10	1	-1E+10	1	-1E+10	1	-1E+10	1	-1E+10	1	-1E+10	1
4902549	38	C	08/26/2021	06:03	-131.952	47.233	0	732.90	0	3.7580	0	34.2060	0	27.184	0	725.518	0	13.2	4	4.1	4	-1E+10	1	-1E+10	1	-1E+10	1	-1E+10	1	-1E+10	1	-1E+10	1
4902549	38	C	08/26/2021	06:03	-131.952	47.233	0	737.60	0	3.7510	0	34.2090	0	27.187	0	730.163	0	12.8	4	4.0	4	-1E+10	1	-1E+10	1	-1E+10	1	-1E+10	1	-1E+10	1	-1E+10	1
4902549	38	C	08/26/2021	06:03	-131.952	47.233	0	742.80	0	3.7440	0	34.2110	0	27.190	0	735.301	0	12.6	4	3.9	4	-1E+10	1	-1E+10	1	-1E+10	1	-1E+10	1	-1E+10	1	-1E+10	1
4902549	38	C	08/26/2021	06:03	-131.952	47.233	0	748.00	0	3.7340	0	34.2140	0	27.193	0	740.439	0	12.3	4	3.9	4	-1E+10	1	-1E+10	1	-1E+10	1	-1E+10	1	-1E+10	1	-1E+10	1
4902549	38	C	08/26/2021	06:03	-131.952	47.233	0	753.00	0	3.7230	0	34.2170	0	27.197	0	745.380	0	12.0	4	3.8	4	-1E+10	1	-1E+10	1	-1E+10	1	-1E+10	1	-1E+10	1	-1E+10	1
4902549	38	C	08/26/2021	06:03	-131.952	47.233	0	757.90	0	3.7120	0	34.2200	0	27.200	0	750.221	0	11.6	4	3.6	4	-1E+10	1	-1E+10	1	-1E+10	1	-1E+10	1	-1E+10	1	-1E+10	1
4902549	38	C	08/26/2021	06:03	-131.952	47.233	0	763.00	0	3.6900	0	34.2260	0	27.207	0	755.261	0	11.2	4	3.5	4	-1E+10	1	-1E+10	1	-1E+10	1	-1E+10	1	-1E+10	1	-1E+10	1
4902549	38	C	08/26/2021	06:03	-131.952	47.233	0	767.60	0	3.6760	0	34.2300	0	27.212	0	759.806	0	11.0	4	3.4	4	-1E+10	1	-1E+10	1	-1E+10	1	-1E+10	1	-1E+10	1	-1E+10	1
4902549	38	C	08/26/2021	06:03	-131.952	47.233	0	772.80	0	3.6620	0	34.2330	0	27.216	0	764.943	0	10.8	4	3.4	4	-1E+10	1	-1E+10	1	-1E+10	1	-1E+10	1	-1E+10	1	-1E+10	1
4902549	38	C	08/26/2021	06:03	-131.952	47.233	0	778.10	0	3.6530	0	34.2350	0	27.218	0	770.180	0	10.6	4	3.3	4	-1E+10	1	-1E+10	1	-1E+10	1	-1E+10	1	-1E+10	1	-1E+10	1
4902549	38	C	08/26/2021	06:03	-131.952	47.233	0	782.90	0	3.6440	0	34.2380	0	27.221	0	774.922	0	10.4	4	3.3	4	-1E+10	1	-1E+10	1	-1E+10	1	-1E+10	1	-1E+10	1	-1E+10	1
4902549	38	C	08/26/2021	06:03	-131.952	47.233	0	787.90	0	3.6240	0	34.2430	0	27.227	0	779.862	0	10.2	4	3.2	4	-1E+10	1	-1E+10	1	-1E+10	1	-1E+10	1	-1E+10	1	-1E+10	1
4902549	38	C	08/26/2021	06:03	-131.952	47.233	0	793.00	0	3.6110	0	34.2460	0	27.231	0	784.900	0	10.1	4	3.2	4	-1E+10	1	-1E+10	1	-1E+10	1	-1E+10	1	-1E+10	1	-1E+10	1
4902549	38	C	08/26/2021	06:03	-131.952	47.233	0	798.10	0	3.6040	0	34.2480	0	27.233	0	789.938	0	10.0	4	3.1	4	-1E+10	1	-1E+10	1	-1E+10	1	-1E+10	1	-1E+10	1	-1E+10	1
4902549	38	C	08/26/2021	06:03	-131.952	47.233	0	803.30	0	3.5880	0	34.2510	0	27.237	0	795.075	0	9.8	4	3.1	4	-1E+10	1	-1E+10	1	-1E+10	1	-1E+10	1	-1E+10	1	-1E+10	1
4902549	38	C	08/26/2021	06:03	-131.952	47.233	0	808.20	0	3.5680	0	34.2560	0	27.243	0	799.916	0	9.6	4	3.0	4	-1E+10	1	-1E+10	1	-1E+10	1	-1E+10	1	-1E+10	1	-1E+10	1
4902549	38	C	08/26/2021	06:03	-131.952	47.233	0	812.80	0	3.5600	0	34.2580	0	27.246	0	804.460	0	9.5	4	3.0	4	-1E+10	1	-1E+10	1	-1E+10	1	-1E+10	1	-1E+10	1	-1E+10	1
4902549	38	C	08/26/2021	06:03	-131.952	47.233	0	817.80	0	3.5480	0	34.2610	0	27.249	0	809.399	0	9.4	4	2.9	4	-1E+10	1	-1E+10	1	-1E+10	1	-1E+10	1	-1E+10	1	-1E+10	1
4902549	38	C	08/26/2021	06:03	-131.952	47.233	0	823.00	0	3.5370	0	34.2640	0	27.253	0	814.535	0	9.2	4	2.9	4	-1E+10	1	-1E+10	1	-1E+10	1	-1E+10	1	-1E+10	1	-1E+10	1
4902549	38	C	08/26/2021	06:03	-131.952	47.233	0	827.90	0	3.5320	0	34.2670	0	27.256	0	819.375	0	9.1	4	2.8	4	-1E+10	1	-1E+10	1	-1E+10	1	-1E+10	1	-1E+10	1	-1E+10	1
4902549	38	C	08/26/2021	06:03	-131.952	47.233	0	832.90	0	3.5240	0	34.2690	0	27.258	0	824.314	0	9.0	4	2.8	4	-1E+10	1	-1E+10	1	-1E+10	1	-1E+10	1	-1E+10	1	-1E+10	1
4902549	38	C	08/26/2021	06:03	-131.952	47.233	0	838.00	0	3.5050	0	34.2730	0	27.263	0	829.351	0	9.1	4	2.8	4	-1E+10	1	-1E+10	1	-1E+10	1	-1E+10	1	-1E+10	1	-1E+10	1
4902549	38	C	08/26/2021	06:03	-131.952	47.233	0	842.80	0	3.4910	0	34.2750	0	27.266	0	834.092	0	9.1	4	2.8	4	-1E+10	1	-1E+10	1	-1E+10	1	-1E+10	1	-1E+10	1	-1E+10	1
4902549	38	C	08/26/2021	06:03	-131.952	47.233	0	847.70	0	3.4860	0	34.2760	0	27.267	0	838.931	0	9.0	4	2.8	4	-1E+10	1	-1E+10	1	-1E+10	1	-1E+10	1	-1E+10	1	-1E+10	1
4902549	38	C	08/26/2021	06:03	-131.952	47.233	0	852.50	0	3.4720	0	34.2790	0	27.271	0	843.672	0	8.8	4	2.8	4	-1E+10	1	-1E+10	1	-1E+10	1	-1E+10	1	-1E+10	1	-1E+10	1
4902549	38	C	08/26/2021	06:03	-131.952	47.233	0	857.50	0	3.4580	0	34.2830	0	27.276	0	848.610	0	8.7	4	2.7	4	-1E+10	1	-1E+10	1	-1E+10	1	-1E+10	1	-1E+10	1	-1E+10	1
4902549	38	C	08/26/2021	06:03	-131.952	47.233	0	862.50	0	3.4510	0	34.2860	0	27.279	0	853.548	0	8.6	4	2.7	4	-1E+10	1	-1E+10	1	-1E+10	1	-1E+10	1	-1E+10	1	-1E+10	1
4902549	38	C	08/26/2021	06:03	-131.952	47.233	0	867.50	0	3.4460	0	34.2870	0	27.280	0	858.486	0	8.5	4	2.6	4	-1E+10	1	-1E+10	1	-1E+10	1	-1E+10	1	-1E+10	1	-1E+10	1
4902549	38	C	08/26/2021	06:03	-131.952	47.233	0	872.60	0	3.4390	0	34.2910	0	27.284	0	863.522	0	8.3	4	2.6	4	-1E+10	1	-1E+10	1	-1E+10	1	-1E+10	1	-1E+10	1	-1E+10	1
4902549	38	C	08/26/2021	06:03	-131.952	47.233	0	877.70	0	3.4320	0	34.2940	0	27.287	0	868.559	0	8.2	4	2.6	4	-1E+10	1	-1E+10	1	-1E+10	1	-1E+10	1	-1E+10	1	-1E+10	1
4902549	38	C	08/26/2021	06:03	-131.952	47.233	0	882.80	0	3.4230	0	34.2950	0	27.289	0	873.595	0	8.1	4	2.5	4	-1E+10	1	-1E+10	1	-1E+10	1	-1E+10	1	-1E+10	1	-1E+10	1
4902549	38	C	08/26/2021	06:03	-131.952	47.233	0	887.90	0	3.4170	0	34.2980	0	27.292	0	878.631	0	7.9	4	2.5	4	-1E+10	1	-1E+10	1	-1E+10	1	-1E+10	1	-1E+10	1	-1E+10	1
4902549	38	C	08/26/2021	06:03	-131.952	47.233	0	893.00	0	3.4090	0	34.3020	0	27.296	0	883.667	0	7.7	4	2.4	4	-1E+10	1	-1E+10	1	-1E+10	1	-1E+10	1	-1E+10	1	-1E+10	1
4902549	38	C	08/26/2021	06:03	-131.952	47.233	0	897.80	0	3.4070	0	34.3030	0	27.297	0	888.407	0	7.6	4	2.4	4	-1E+10	1	-1E+10	1	-1E+10	1	-1E+10	1	-1E+10	1	-1E+10	1
4902549	38	C	08/26/2021	06:03	-131.952	47.233	0	902.50	0	3.4020	0	34.3060	0	27.300	0	893.048	0	7.5	4	2.3	4	-1E+10	1	-1E+10	1	-1E+10	1	-1E+10	1	-1E+10	1	-1E+10	1
4902549	38	C	08/26/2021	06:03	-131.952	47.233	0	907.70	0	3.3950	0	34.3080	0	27.302	0	898.182	0	7.4	4	2.3	4	-1E+10	1	-1E+10	1	-1E+10	1	-1E+10	1	-1E+10	1	-1E+10	1
4902549	38	C	08/26/2021	06:03	-131.952	47.233	0	913.00	0	3.3880	0	34.3100	0	27.304	0	903.415	0	7.3	4	2.3	4	-1E+10	1	-1E+10	1	-1E+10	1	-1E+10	1	-1E+10	1	-1E+10	1
4902549	38	C	08/26/2021	06:03	-131.952	47.233	0	917.90	0	3.3780	0	34.3130	0	27.308	0	908.253	0	7.2	4	2.2	4	-1E+10	1	-1E+10	1	-1E+10	1	-1E+10	1	-1E+10	1	-1E+10	1
4902549	38	C	08/26/2021	06:03	-131.952	47.233	0	922.60	0	3.3700	0	34.3170	0	27.312	0	912.893	0	7.2	4	2.2	4	-1E+10	1	-1E+10	1	-1E+10	1	-1E+10	1	-1E+10	1	-1E+10	1
4902549	38	C	08/26/2021	06:03	-131.952	47.233	0	927.80	0	3.3600	0	34.3200	0	27.315	0	918.027	0	7.1	4	2.2	4	-1E+10	1	-1E+10	1	-1E+10	1	-1E+10	1	-1E+10	1	-1E+10	1
4902549	38	C	08/26/2021	06:03	-131.952	47.233	0	932.80	0	3.3530	0	34.3210	0	27.316	0	922.963	0	7.1	4	2.2	4	-1E+10	1	-1E+10	1	-1E+10	1	-1E+10	1	-1E+10	1	-1E+10	1
4902549	38	C	08/26/2021	06:03	-131.952	47.233	0	937.50	0	3.3440	0	34.3230	0	27.319	0	927.603	0	7.0	4	2.2	4	-1E+10	1	-1E+10	1	-1E+10	1	-1E+10	1	-1E+10	1	-1E+10	1
4902549	38	C	08/26/2021	06:03	-131.952	47.233	0	942.70	0	3.3280	0	34.3260	0	27.323	0	932.737	0	7.0	4	2.2	4	-1E+10	1	-1E+10	1	-1E+10	1	-1E+10	1	-1E+10	1	-1E+10	1
4902549	38	C	08/26/2021	06:03	-131.952	47.233	0	948.20	0	3.3200	0	34.3270	0	27.324	0	938.167	0	7.0	4	2.2	4	-1E+10	1	-1E+10	1	-1E+10	1	-1E+10	1	-1E+10	1	-1E+10	1
4902549	38	C	08/26/2021	06:03	-131.952	47.233	0	953.00	0	3.3120	0	34.3290	0	27.327	0	942.905	0	7.0	4	2.2	4	-1E+10	1	-1E+10	1	-1E+10	1	-1E+10	1	-1E+10	1	-1E+10	1
4902549	38	C	08/26/2021	06:03	-131.952	47.233	0	957.80	0	3.3000	0	34.3320	0	27.330	0	947.643	0	7.0	4	2.2	4	-1E+10	1	-1E+10	1	-1E+10	1	-1E+10	1	-1E+10	1	-1E+10	1
4902549	38	C	08/26/2021	06:03	-131.952	47.233	0	963.10	0	3.2810	0	34.3350	0	27.335	0	952.875	0	7.0	4	2.2	4	-1E+10	1	-1E+10	1	-1E+10	1	-1E+10	1	-1E+10	1	-1E+10	1
4902549	38	C	08/26/2021	06:03	-131.952	47.233	0	968.10	0	3.2720	0	34.3360	0	27.336	0	957.810	0	7.1	4	2.2	4	-1E+10	1	-1E+10	1	-1E+10	1	-1E+10	1	-1E+10	1	-1E+10	1
4902549	38	C	08/26/2021	06:03	-131.952	47.233	0	972.80	0	3.2560	0	34.3380	0	27.339	0	962.450	0	7.1	4	2.2	4	-1E+10	1	-1E+10	1	-1E+10	1	-1E+10	1	-1E+10	1	-1E+10	1
4902549	38	C	08/26/2021	06:03	-131.952	47.233	0	977.60	0	3.2450	0	34.3400	0	27.342	0	967.188	0	7.1	4	2.2	4	-1E+10	1	-1E+10	1	-1E+10	1	-1E+10	1	-1E+10	1	-1E+10	1
4902549	38	C	08/26/2021	06:03	-131.952	47.233	0	982.50	0	3.2370	0	34.3410	0	27.344	0	972.024	0	7.1	4	2.2	4	-1E+10	1	-1E+10	1	-1E+10	1	-1E+10	1	-1E+10	1	-1E+10	1
4902549	38	C	08/26/2021	06:03	-131.952	47.233	0	988.10	0	3.2210	0	34.3450	0	27.348	0	977.551	0	7.0	4	2.2	4	-1E+10	1	-1E+10	1	-1E+10	1	-1E+10	1	-1E+10	1	-1E+10	1
4902549	38	C	08/26/2021	06:03	-131.952	47.233	0	993.10	0	3.2160	0	34.3470	0	27.350	0	982.486	0	7.0	4	2.2	4	-1E+10	1	-1E+10	1	-1E+10	1	-1E+10	1	-1E+10	1	-1E+10	1
4902549	38	C	08/26/2021	06:03	-131.952	47.233	0	997.90	0	3.2070	0	34.3490	0	27.353	0	987.224	0	7.0	4	2.2	4	-1E+10	1	-1E+10	1	-1E+10	1	-1E+10	1	-1E+10	1	-1E+10	1
4902549	38	C	08/26/2021	06:03	-131.952	47.233	0	1005.50	0	3.1920	0	34.3520	0	27.357	0	994.724	0	7.0	4	2.2	4	-1E+10	1	-1E+10	1	-1E+10	1	-1E+10	1	-1E+10	1	-1E+10	1
4902549	38	C	08/26/2021	06:03	-131.952	47.233	0	1015.60	0	3.1780	0	34.3550	0	27.360	0	1004.692	0	6.9	4	2.1	4	-1E+10	1	-1E+10	1	-1E+10	1	-1E+10	1	-1E+10	1	-1E+10	1
4902549	38	C	08/26/2021	06:03	-131.952	47.233	0	1025.60	0	3.1600	0	34.3590	0	27.365	0	1014.560	0	7.0	4	2.2	4	-1E+10	1	-1E+10	1	-1E+10	1	-1E+10	1	-1E+10	1	-1E+10	1
4902549	38	C	08/26/2021	06:03	-131.952	47.233	0	1035.30	0	3.1400	0	34.3630	0	27.370	0	1024.132	0	7.0	4	2.2	4	-1E+10	1	-1E+10	1	-1E+10	1	-1E+10	1	-1E+10	1	-1E+10	1
4902549	38	C	08/26/2021	06:03	-131.952	47.233	0	1045.20	0	3.1330	0	34.3650	0	27.373	0	1033.901	0	7.0	4	2.2	4	-1E+10	1	-1E+10	1	-1E+10	1	-1E+10	1	-1E+10	1	-1E+10	1
4902549	38	C	08/26/2021	06:03	-131.952	47.233	0	1055.20	0	3.1270	0	34.3700	0	27.377	0	1043.768	0	7.0	4	2.2	4	-1E+10	1	-1E+10	1	-1E+10	1	-1E+10	1	-1E+10	1	-1E+10	1
4902549	38	C	08/26/2021	06:03	-131.952	47.233	0	1065.30	0	3.1150	0	34.3740	0	27.382	0	1053.733	0	7.0	4	2.2	4	-1E+10	1	-1E+10	1	-1E+10	1	-1E+10	1	-1E+10	1	-1E+10	1
4902549	38	C	08/26/2021	06:03	-131.952	47.233	0	1075.70	0	3.0980	0	34.3790	0	27.387	0	1063.994	0	7.0	4	2.2	4	-1E+10	1	-1E+10	1	-1E+10	1	-1E+10	1	-1E+10	1	-1E+10	1
4902549	38	C	08/26/2021	06:03	-131.952	47.233	0	1085.70	0	3.1000	0	34.3830	0	27.390	0	1073.859	0	7.0	4	2.2	4	-1E+10	1	-1E+10	1	-1E+10	1	-1E+10	1	-1E+10	1	-1E+10	1
4902549	38	C	08/26/2021	06:03	-131.952	47.233	0	1095.70	0	3.0890	0	34.3870	0	27.395	0	1083.725	0	7.1	4	2.2	4	-1E+10	1	-1E+10	1	-1E+10	1	-1E+10	1	-1E+10	1	-1E+10	1
4902549	38	C	08/26/2021	06:03	-131.952	47.233	0	1105.30	0	3.0680	0	34.3900	0	27.399	0	1093.195	0	7.1	4	2.2	4	-1E+10	1	-1E+10	1	-1E+10	1	-1E+10	1	-1E+10	1	-1E+10	1
4902549	38	C	08/26/2021	06:03	-131.952	47.233	0	1115.20	0	3.0450	0	34.3940	0	27.404	0	1102.960	0	7.2	4	2.2	4	-1E+10	1	-1E+10	1	-1E+10	1	-1E+10	1	-1E+10	1	-1E+10	1
4902549	38	C	08/26/2021	06:03	-131.952	47.233	0	1125.30	0	3.0510	0	34.4000	0	27.409	0	1112.923	0	7.3	4	2.3	4	-1E+10	1	-1E+10	1	-1E+10	1	-1E+10	1	-1E+10	1	-1E+10	1
4902549	38	C	08/26/2021	06:03	-131.952	47.233	0	1135.00	0	3.0420	0	34.4040	0	27.413	0	1122.490	0	7.5	4	2.3	4	-1E+10	1	-1E+10	1	-1E+10	1	-1E+10	1	-1E+10	1	-1E+10	1
4902549	38	C	08/26/2021	06:03	-131.952	47.233	0	1145.40	0	3.0200	0	34.4080	0	27.418	0	1132.748	0	7.7	4	2.4	4	-1E+10	1	-1E+10	1	-1E+10	1	-1E+10	1	-1E+10	1	-1E+10	1
4902549	38	C	08/26/2021	06:03	-131.952	47.233	0	1155.40	0	3.0020	0	34.4110	0	27.422	0	1142.610	0	7.8	4	2.4	4	-1E+10	1	-1E+10	1	-1E+10	1	-1E+10	1	-1E+10	1	-1E+10	1
4902549	38	C	08/26/2021	06:03	-131.952	47.233	0	1165.10	0	2.9790	0	34.4130	0	27.426	0	1152.176	0	8.0	4	2.5	4	-1E+10	1	-1E+10	1	-1E+10	1	-1E+10	1	-1E+10	1	-1E+10	1
4902549	38	C	08/26/2021	06:03	-131.952	47.233	0	1175.60	0	2.9780	0	34.4170	0	27.429	0	1162.530	0	8.1	4	2.5	4	-1E+10	1	-1E+10	1	-1E+10	1	-1E+10	1	-1E+10	1	-1E+10	1
4902549	38	C	08/26/2021	06:03	-131.952	47.233	0	1185.80	0	2.9470	0	34.4170	0	27.432	0	1172.589	0	8.1	4	2.5	4	-1E+10	1	-1E+10	1	-1E+10	1	-1E+10	1	-1E+10	1	-1E+10	1
4902549	38	C	08/26/2021	06:03	-131.952	47.233	0	1195.30	0	2.9130	0	34.4180	0	27.436	0	1181.956	0	8.2	4	2.5	4	-1E+10	1	-1E+10	1	-1E+10	1	-1E+10	1	-1E+10	1	-1E+10	1
4902549	38	C	08/26/2021	06:03	-131.952	47.233	0	1205.50	0	2.8910	0	34.4210	0	27.440	0	1192.013	0	8.4	4	2.6	4	-1E+10	1	-1E+10	1	-1E+10	1	-1E+10	1	-1E+10	1	-1E+10	1
4902549	38	C	08/26/2021	06:03	-131.952	47.233	0	1215.20	0	2.8810	0	34.4240	0	27.444	0	1201.577	0	8.7	4	2.7	4	-1E+10	1	-1E+10	1	-1E+10	1	-1E+10	1	-1E+10	1	-1E+10	1
4902549	38	C	08/26/2021	06:03	-131.952	47.233	0	1225.10	0	2.8610	0	34.4280	0	27.449	0	1211.338	0	8.9	4	2.7	4	-1E+10	1	-1E+10	1	-1E+10	1	-1E+10	1	-1E+10	1	-1E+10	1
4902549	38	C	08/26/2021	06:03	-131.952	47.233	0	1235.00	0	2.8420	0	34.4310	0	27.453	0	1221.098	0	9.1	4	2.8	4	-1E+10	1	-1E+10	1	-1E+10	1	-1E+10	1	-1E+10	1	-1E+10	1
4902549	38	C	08/26/2021	06:03	-131.952	47.233	0	1245.10	0	2.8190	0	34.4340	0	27.457	0	1231.054	0	9.3	4	2.9	4	-1E+10	1	-1E+10	1	-1E+10	1	-1E+10	1	-1E+10	1	-1E+10	1
4902549	38	C	08/26/2021	06:03	-131.952	47.233	0	1255.20	0	2.8040	0	34.4360	0	27.460	0	1241.011	0	9.5	4	2.9	4	-1E+10	1	-1E+10	1	-1E+10	1	-1E+10	1	-1E+10	1	-1E+10	1
4902549	38	C	08/26/2021	06:03	-131.952	47.233	0	1265.40	0	2.7870	0	34.4390	0	27.464	0	1251.065	0	9.7	4	3.0	4	-1E+10	1	-1E+10	1	-1E+10	1	-1E+10	1	-1E+10	1	-1E+10	1
4902549	38	C	08/26/2021	06:03	-131.952	47.233	0	1275.30	0	2.7720	0	34.4410	0	27.467	0	1260.823	0	9.7	4	3.0	4	-1E+10	1	-1E+10	1	-1E+10	1	-1E+10	1	-1E+10	1	-1E+10	1
4902549	38	C	08/26/2021	06:03	-131.952	47.233	0	1285.20	0	2.7460	0	34.4430	0	27.471	0	1270.581	0	9.9	4	3.0	4	-1E+10	1	-1E+10	1	-1E+10	1	-1E+10	1	-1E+10	1	-1E+10	1
4902549	38	C	08/26/2021	06:03	-131.952	47.233	0	1295.20	0	2.7190	0	34.4460	0	27.476	0	1280.437	0	10.1	4	3.1	4	-1E+10	1	-1E+10	1	-1E+10	1	-1E+10	1	-1E+10	1	-1E+10	1
4902549	38	C	08/26/2021	06:03	-131.952	47.233	0	1305.40	0	2.7090	0	34.4480	0	27.478	0	1290.489	0	10.2	4	3.1	4	-1E+10	1	-1E+10	1	-1E+10	1	-1E+10	1	-1E+10	1	-1E+10	1
4902549	38	C	08/26/2021	06:03	-131.952	47.233	0	1315.40	0	2.6960	0	34.4490	0	27.480	0	1300.344	0	10.4	4	3.2	4	-1E+10	1	-1E+10	1	-1E+10	1	-1E+10	1	-1E+10	1	-1E+10	1
4902549	38	C	08/26/2021	06:03	-131.952	47.233	0	1325.50	0	2.6840	0	34.4510	0	27.483	0	1310.297	0	10.7	4	3.3	4	-1E+10	1	-1E+10	1	-1E+10	1	-1E+10	1	-1E+10	1	-1E+10	1
4902549	38	C	08/26/2021	06:03	-131.952	47.233	0	1335.50	0	2.6720	0	34.4540	0	27.486	0	1320.151	0	11.0	4	3.4	4	-1E+10	1	-1E+10	1	-1E+10	1	-1E+10	1	-1E+10	1	-1E+10	1
4902549	38	C	08/26/2021	06:03	-131.952	47.233	0	1345.20	0	2.6560	0	34.4560	0	27.489	0	1329.709	0	11.3	4	3.5	4	-1E+10	1	-1E+10	1	-1E+10	1	-1E+10	1	-1E+10	1	-1E+10	1
4902549	38	C	08/26/2021	06:03	-131.952	47.233	0	1355.40	0	2.6390	0	34.4590	0	27.493	0	1339.760	0	11.7	4	3.6	4	-1E+10	1	-1E+10	1	-1E+10	1	-1E+10	1	-1E+10	1	-1E+10	1
4902549	38	C	08/26/2021	06:03	-131.952	47.233	0	1365.40	0	2.6210	0	34.4620	0	27.497	0	1349.612	0	12.1	4	3.7	4	-1E+10	1	-1E+10	1	-1E+10	1	-1E+10	1	-1E+10	1	-1E+10	1
4902549	38	C	08/26/2021	06:03	-131.952	47.233	0	1375.40	0	2.6070	0	34.4640	0	27.500	0	1359.464	0	12.5	4	3.8	4	-1E+10	1	-1E+10	1	-1E+10	1	-1E+10	1	-1E+10	1	-1E+10	1
4902549	38	C	08/26/2021	06:03	-131.952	47.233	0	1385.40	0	2.5840	0	34.4670	0	27.505	0	1369.316	0	13.1	4	4.0	4	-1E+10	1	-1E+10	1	-1E+10	1	-1E+10	1	-1E+10	1	-1E+10	1
4902549	38	C	08/26/2021	06:03	-131.952	47.233	0	1395.40	0	2.5610	0	34.4710	0	27.510	0	1379.167	0	13.6	4	4.1	4	-1E+10	1	-1E+10	1	-1E+10	1	-1E+10	1	-1E+10	1	-1E+10	1
4902549	38	C	08/26/2021	06:03	-131.952	47.233	0	1405.50	0	2.5440	0	34.4740	0	27.514	0	1389.116	0	14.0	4	4.3	4	-1E+10	1	-1E+10	1	-1E+10	1	-1E+10	1	-1E+10	1	-1E+10	1
4902549	38	C	08/26/2021	06:03	-131.952	47.233	0	1415.10	0	2.5310	0	34.4760	0	27.516	0	1398.573	0	14.3	4	4.4	4	-1E+10	1	-1E+10	1	-1E+10	1	-1E+10	1	-1E+10	1	-1E+10	1
4902549	38	C	08/26/2021	06:03	-131.952	47.233	0	1425.20	0	2.5180	0	34.4780	0	27.519	0	1408.521	0	14.6	4	4.5	4	-1E+10	1	-1E+10	1	-1E+10	1	-1E+10	1	-1E+10	1	-1E+10	1
4902549	38	C	08/26/2021	06:03	-131.952	47.233	0	1435.30	0	2.5030	0	34.4810	0	27.523	0	1418.469	0	15.0	4	4.6	4	-1E+10	1	-1E+10	1	-1E+10	1	-1E+10	1	-1E+10	1	-1E+10	1
4902549	38	C	08/26/2021	06:03	-131.952	47.233	0	1445.30	0	2.4910	0	34.4830	0	27.526	0	1428.318	0	15.6	4	4.8	4	-1E+10	1	-1E+10	1	-1E+10	1	-1E+10	1	-1E+10	1	-1E+10	1
4902549	38	C	08/26/2021	06:03	-131.952	47.233	0	1455.40	0	2.4710	0	34.4870	0	27.530	0	1438.265	0	16.4	4	5.0	4	-1E+10	1	-1E+10	1	-1E+10	1	-1E+10	1	-1E+10	1	-1E+10	1
4902549	38	C	08/26/2021	06:03	-131.952	47.233	0	1465.10	0	2.4550	0	34.4900	0	27.534	0	1447.817	0	17.0	4	5.2	4	-1E+10	1	-1E+10	1	-1E+10	1	-1E+10	1	-1E+10	1	-1E+10	1
4902549	38	C	08/26/2021	06:03	-131.952	47.233	0	1475.40	0	2.4430	0	34.4920	0	27.537	0	1457.960	0	17.5	4	5.3	4	-1E+10	1	-1E+10	1	-1E+10	1	-1E+10	1	-1E+10	1	-1E+10	1
4902549	38	C	08/26/2021	06:03	-131.952	47.233	0	1485.80	0	2.4300	0	34.4940	0	27.540	0	1468.201	0	18.1	4	5.5	4	-1E+10	1	-1E+10	1	-1E+10	1	-1E+10	1	-1E+10	1	-1E+10	1
4902549	38	C	08/26/2021	06:03	-131.952	47.233	0	1495.80	0	2.4120	0	34.4970	0	27.544	0	1478.048	0	18.7	4	5.7	4	-1E+10	1	-1E+10	1	-1E+10	1	-1E+10	1	-1E+10	1	-1E+10	1
4902549	38	C	08/26/2021	06:03	-131.952	47.233	0	1505.40	0	2.3930	0	34.5000	0	27.548	0	1487.500	0	19.2	4	5.9	4	-1E+10	1	-1E+10	1	-1E+10	1	-1E+10	1	-1E+10	1	-1E+10	1
4902549	38	C	08/26/2021	06:03	-131.952	47.233	0	1515.40	0	2.3800	0	34.5020	0	27.550	0	1497.346	0	19.8	4	6.0	4	-1E+10	1	-1E+10	1	-1E+10	1	-1E+10	1	-1E+10	1	-1E+10	1
4902549	38	C	08/26/2021	06:03	-131.952	47.233	0	1525.60	0	2.3610	0	34.5050	0	27.554	0	1507.388	0	20.5	4	6.2	4	-1E+10	1	-1E+10	1	-1E+10	1	-1E+10	1	-1E+10	1	-1E+10	1
4902549	38	C	08/26/2021	06:03	-131.952	47.233	0	1535.60	0	2.3470	0	34.5070	0	27.557	0	1517.233	0	21.3	4	6.5	4	-1E+10	1	-1E+10	1	-1E+10	1	-1E+10	1	-1E+10	1	-1E+10	1
4902549	38	C	08/26/2021	06:03	-131.952	47.233	0	1545.50	0	2.3340	0	34.5100	0	27.561	0	1526.979	0	22.1	4	6.7	4	-1E+10	1	-1E+10	1	-1E+10	1	-1E+10	1	-1E+10	1	-1E+10	1
4902549	38	C	08/26/2021	06:03	-131.952	47.233	0	1555.30	0	2.3270	0	34.5130	0	27.564	0	1536.626	0	23.0	4	7.0	4	-1E+10	1	-1E+10	1	-1E+10	1	-1E+10	1	-1E+10	1	-1E+10	1
4902549	38	C	08/26/2021	06:03	-131.952	47.233	0	1565.40	0	2.3130	0	34.5160	0	27.567	0	1546.568	0	24.0	4	7.3	4	-1E+10	1	-1E+10	1	-1E+10	1	-1E+10	1	-1E+10	1	-1E+10	1
4902549	38	C	08/26/2021	06:03	-131.952	47.233	0	1575.40	0	2.3020	0	34.5190	0	27.571	0	1556.411	0	24.7	4	7.5	4	-1E+10	1	-1E+10	1	-1E+10	1	-1E+10	1	-1E+10	1	-1E+10	1
4902549	38	C	08/26/2021	06:03	-131.952	47.233	0	1585.20	0	2.2930	0	34.5210	0	27.573	0	1566.056	0	25.3	4	7.7	4	-1E+10	1	-1E+10	1	-1E+10	1	-1E+10	1	-1E+10	1	-1E+10	1
4902549	38	C	08/26/2021	06:03	-131.952	47.233	0	1595.20	0	2.2840	0	34.5230	0	27.575	0	1575.898	0	25.8	4	7.8	4	-1E+10	1	-1E+10	1	-1E+10	1	-1E+10	1	-1E+10	1	-1E+10	1
4902549	38	C	08/26/2021	06:03	-131.952	47.233	0	1605.10	0	2.2740	0	34.5250	0	27.578	0	1585.641	0	26.4	4	8.0	4	-1E+10	1	-1E+10	1	-1E+10	1	-1E+10	1	-1E+10	1	-1E+10	1
4902549	38	C	08/26/2021	06:03	-131.952	47.233	0	1615.50	0	2.2650	0	34.5270	0	27.580	0	1595.876	0	27.2	4	8.3	4	-1E+10	1	-1E+10	1	-1E+10	1	-1E+10	1	-1E+10	1	-1E+10	1
4902549	38	C	08/26/2021	06:03	-131.952	47.233	0	1625.10	0	2.2610	0	34.5290	0	27.582	0	1605.323	0	27.8	4	8.4	4	-1E+10	1	-1E+10	1	-1E+10	1	-1E+10	1	-1E+10	1	-1E+10	1
4902549	38	C	08/26/2021	06:03	-131.952	47.233	0	1635.10	0	2.2510	0	34.5300	0	27.584	0	1615.163	0	28.3	4	8.6	4	-1E+10	1	-1E+10	1	-1E+10	1	-1E+10	1	-1E+10	1	-1E+10	1
4902549	38	C	08/26/2021	06:03	-131.952	47.233	0	1645.40	0	2.2480	0	34.5330	0	27.587	0	1625.298	0	29.4	4	8.9	4	-1E+10	1	-1E+10	1	-1E+10	1	-1E+10	1	-1E+10	1	-1E+10	1
4902549	38	C	08/26/2021	06:03	-131.952	47.233	0	1655.50	0	2.2460	0	34.5360	0	27.589	0	1635.236	0	30.1	4	9.1	4	-1E+10	1	-1E+10	1	-1E+10	1	-1E+10	1	-1E+10	1	-1E+10	1
4902549	38	C	08/26/2021	06:03	-131.952	47.233	0	1665.40	0	2.2340	0	34.5370	0	27.591	0	1644.976	0	30.7	4	9.3	4	-1E+10	1	-1E+10	1	-1E+10	1	-1E+10	1	-1E+10	1	-1E+10	1
4902549	38	C	08/26/2021	06:03	-131.952	47.233	0	1675.50	0	2.2250	0	34.5390	0	27.593	0	1654.913	0	31.3	4	9.5	4	-1E+10	1	-1E+10	1	-1E+10	1	-1E+10	1	-1E+10	1	-1E+10	1
4902549	38	C	08/26/2021	06:03	-131.952	47.233	0	1685.40	0	2.2110	0	34.5400	0	27.595	0	1664.653	0	31.9	4	9.7	4	-1E+10	1	-1E+10	1	-1E+10	1	-1E+10	1	-1E+10	1	-1E+10	1
4902549	38	C	08/26/2021	06:03	-131.952	47.233	0	1695.50	0	2.1970	0	34.5430	0	27.599	0	1674.588	0	32.5	4	9.9	4	-1E+10	1	-1E+10	1	-1E+10	1	-1E+10	1	-1E+10	1	-1E+10	1
4902549	38	C	08/26/2021	06:03	-131.952	47.233	0	1705.70	0	2.1900	0	34.5440	0	27.600	0	1684.622	0	33.1	4	10.0	4	-1E+10	1	-1E+10	1	-1E+10	1	-1E+10	1	-1E+10	1	-1E+10	1
4902549	38	C	08/26/2021	06:03	-131.952	47.233	0	1715.30	0	2.1760	0	34.5460	0	27.603	0	1694.065	0	33.8	4	10.2	4	-1E+10	1	-1E+10	1	-1E+10	1	-1E+10	1	-1E+10	1	-1E+10	1
4902549	38	C	08/26/2021	06:03	-131.952	47.233	0	1725.40	0	2.1640	0	34.5480	0	27.606	0	1704.000	0	34.5	4	10.4	4	-1E+10	1	-1E+10	1	-1E+10	1	-1E+10	1	-1E+10	1	-1E+10	1
4902549	38	C	08/26/2021	06:03	-131.952	47.233	0	1735.70	0	2.1540	0	34.5500	0	27.608	0	1714.130	0	34.9	4	10.6	4	-1E+10	1	-1E+10	1	-1E+10	1	-1E+10	1	-1E+10	1	-1E+10	1
4902549	38	C	08/26/2021	06:03	-131.952	47.233	0	1745.50	0	2.1450	0	34.5510	0	27.610	0	1723.769	0	35.4	4	10.7	4	-1E+10	1	-1E+10	1	-1E+10	1	-1E+10	1	-1E+10	1	-1E+10	1
4902549	38	C	08/26/2021	06:03	-131.952	47.233	0	1755.30	0	2.1380	0	34.5520	0	27.611	0	1733.407	0	35.8	4	10.8	4	-1E+10	1	-1E+10	1	-1E+10	1	-1E+10	1	-1E+10	1	-1E+10	1
4902549	38	C	08/26/2021	06:03	-131.952	47.233	0	1765.20	0	2.1320	0	34.5530	0	27.613	0	1743.142	0	36.3	4	11.0	4	-1E+10	1	-1E+10	1	-1E+10	1	-1E+10	1	-1E+10	1	-1E+10	1
4902549	38	C	08/26/2021	06:03	-131.952	47.233	0	1775.10	0	2.1200	0	34.5540	0	27.614	0	1752.878	0	37.0	4	11.2	4	-1E+10	1	-1E+10	1	-1E+10	1	-1E+10	1	-1E+10	1	-1E+10	1
4902549	38	C	08/26/2021	06:03	-131.952	47.233	0	1785.20	0	2.1110	0	34.5560	0	27.617	0	1762.810	0	37.6	4	11.4	4	-1E+10	1	-1E+10	1	-1E+10	1	-1E+10	1	-1E+10	1	-1E+10	1
4902549	38	C	08/26/2021	06:03	-131.952	47.233	0	1795.40	0	2.1020	0	34.5580	0	27.619	0	1772.839	0	38.3	4	11.6	4	-1E+10	1	-1E+10	1	-1E+10	1	-1E+10	1	-1E+10	1	-1E+10	1
4902549	38	C	08/26/2021	06:03	-131.952	47.233	0	1805.30	0	2.0930	0	34.5590	0	27.621	0	1782.573	0	38.9	4	11.8	4	-1E+10	1	-1E+10	1	-1E+10	1	-1E+10	1	-1E+10	1	-1E+10	1
4902549	38	C	08/26/2021	06:03	-131.952	47.233	0	1815.20	0	2.0830	0	34.5610	0	27.623	0	1792.307	0	39.6	4	12.0	4	-1E+10	1	-1E+10	1	-1E+10	1	-1E+10	1	-1E+10	1	-1E+10	1
4902549	38	C	08/26/2021	06:03	-131.952	47.233	0	1825.20	0	2.0740	0	34.5620	0	27.625	0	1802.138	0	40.2	4	12.1	4	-1E+10	1	-1E+10	1	-1E+10	1	-1E+10	1	-1E+10	1	-1E+10	1
4902549	38	C	08/26/2021	06:03	-131.952	47.233	0	1835.50	0	2.0640	0	34.5640	0	27.627	0	1812.264	0	40.8	4	12.3	4	-1E+10	1	-1E+10	1	-1E+10	1	-1E+10	1	-1E+10	1	-1E+10	1
4902549	38	C	08/26/2021	06:03	-131.952	47.233	0	1845.70	0	2.0560	0	34.5650	0	27.629	0	1822.291	0	41.4	4	12.5	4	-1E+10	1	-1E+10	1	-1E+10	1	-1E+10	1	-1E+10	1	-1E+10	1
4902549	38	C	08/26/2021	06:03	-131.952	47.233	0	1855.50	0	2.0490	0	34.5670	0	27.631	0	1831.925	0	42.0	4	12.7	4	-1E+10	1	-1E+10	1	-1E+10	1	-1E+10	1	-1E+10	1	-1E+10	1
4902549	38	C	08/26/2021	06:03	-131.952	47.233	0	1865.30	0	2.0400	0	34.5690	0	27.633	0	1841.558	0	42.8	4	12.9	4	-1E+10	1	-1E+10	1	-1E+10	1	-1E+10	1	-1E+10	1	-1E+10	1
4902549	38	C	08/26/2021	06:03	-131.952	47.233	0	1875.30	0	2.0320	0	34.5700	0	27.635	0	1851.387	0	43.5	4	13.1	4	-1E+10	1	-1E+10	1	-1E+10	1	-1E+10	1	-1E+10	1	-1E+10	1
4902549	38	C	08/26/2021	06:03	-131.952	47.233	0	1885.40	0	2.0220	0	34.5720	0	27.637	0	1861.314	0	44.2	4	13.3	4	-1E+10	1	-1E+10	1	-1E+10	1	-1E+10	1	-1E+10	1	-1E+10	1
4902549	38	C	08/26/2021	06:03	-131.952	47.233	0	1895.60	0	2.0150	0	34.5730	0	27.638	0	1871.339	0	44.8	4	13.5	4	-1E+10	1	-1E+10	1	-1E+10	1	-1E+10	1	-1E+10	1	-1E+10	1
4902549	38	C	08/26/2021	06:03	-131.952	47.233	0	1905.40	0	2.0060	0	34.5750	0	27.641	0	1880.971	0	45.4	4	13.7	4	-1E+10	1	-1E+10	1	-1E+10	1	-1E+10	1	-1E+10	1	-1E+10	1
4902549	38	C	08/26/2021	06:03	-131.952	47.233	0	1915.40	0	2.0000	0	34.5760	0	27.642	0	1890.798	0	45.9	4	13.9	4	-1E+10	1	-1E+10	1	-1E+10	1	-1E+10	1	-1E+10	1	-1E+10	1
4902549	38	C	08/26/2021	06:03	-131.952	47.233	0	1925.60	0	1.9930	0	34.5770	0	27.644	0	1900.821	0	46.5	4	14.0	4	-1E+10	1	-1E+10	1	-1E+10	1	-1E+10	1	-1E+10	1	-1E+10	1
4902549	38	C	08/26/2021	06:03	-131.952	47.233	0	1935.60	0	1.9850	0	34.5780	0	27.645	0	1910.648	0	47.1	4	14.2	4	-1E+10	1	-1E+10	1	-1E+10	1	-1E+10	1	-1E+10	1	-1E+10	1
4902549	38	C	08/26/2021	06:03	-131.952	47.233	0	1945.30	0	1.9800	0	34.5790	0	27.646	0	1920.179	0	47.5	4	14.3	4	-1E+10	1	-1E+10	1	-1E+10	1	-1E+10	1	-1E+10	1	-1E+10	1
4902549	38	C	08/26/2021	06:03	-131.952	47.233	0	1955.30	0	1.9760	0	34.5800	0	27.647	0	1930.005	0	47.8	4	14.4	4	-1E+10	1	-1E+10	1	-1E+10	1	-1E+10	1	-1E+10	1	-1E+10	1
4902549	38	C	08/26/2021	06:03	-131.952	47.233	0	1965.20	0	1.9710	0	34.5810	0	27.649	0	1939.732	0	48.2	4	14.5	4	-1E+10	1	-1E+10	1	-1E+10	1	-1E+10	1	-1E+10	1	-1E+10	1
4902549	38	C	08/26/2021	06:03	-131.952	47.233	0	1975.50	0	1.9670	0	34.5820	0	27.650	0	1949.851	0	48.5	4	14.6	4	-1E+10	1	-1E+10	1	-1E+10	1	-1E+10	1	-1E+10	1	-1E+10	1
4902549	38	C	08/26/2021	06:03	-131.952	47.233	0	1982.20	0	1.9630	0	34.5830	0	27.651	0	1956.433	0	48.7	4	14.7	4	-1E+10	1	-1E+10	1	-1E+10	1	-1E+10	1	-1E+10	1	-1E+10	1
4902549	38	C	08/26/2021	06:03	-131.952	47.233	0																										
4902549	39	C	09/05/2021	10:58	-131.885	47.194	0	0.40	0	16.7490	0	32.2890	0	23.494	0	0.397	0	240.8	4	98.7	4	-1E+10	1	-1E+10	1	-1E+10	1	-1E+10	1	-1E+10	1	-1E+10	1
4902549	39	C	09/05/2021	10:58	-131.885	47.194	0	1.30	0	16.7460	0	32.2920	0	23.497	0	1.289	0	240.7	4	98.7	4	-1E+10	1	-1E+10	1	-1E+10	1	-1E+10	1	-1E+10	1	-1E+10	1
4902549	39	C	09/05/2021	10:58	-131.885	47.194	0	2.00	0	16.7510	0	32.2800	0	23.486	0	1.983	0	240.9	4	98.7	4	-1E+10	1	-1E+10	1	-1E+10	1	-1E+10	1	-1E+10	1	-1E+10	1
4902549	39	C	09/05/2021	10:58	-131.885	47.194	0	2.90	0	16.7510	0	32.2900	0	23.494	0	2.876	0	240.8	4	98.7	4	-1E+10	1	-1E+10	1	-1E+10	1	-1E+10	1	-1E+10	1	-1E+10	1
4902549	39	C	09/05/2021	10:58	-131.885	47.194	0	3.80	0	16.7520	0	32.2900	0	23.494	0	3.768	0	241.0	4	98.8	4	-1E+10	1	-1E+10	1	-1E+10	1	-1E+10	1	-1E+10	1	-1E+10	1
4902549	39	C	09/05/2021	10:58	-131.885	47.194	0	5.00	0	16.7530	0	32.2920	0	23.495	0	4.958	0	241.0	4	98.8	4	-1E+10	1	-1E+10	1	-1E+10	1	-1E+10	1	-1E+10	1	-1E+10	1
4902549	39	C	09/05/2021	10:58	-131.885	47.194	0	5.90	0	16.7530	0	32.2930	0	23.496	0	5.851	0	241.1	4	98.8	4	-1E+10	1	-1E+10	1	-1E+10	1	-1E+10	1	-1E+10	1	-1E+10	1
4902549	39	C	09/05/2021	10:58	-131.885	47.194	0	6.90	0	16.7520	0	32.2920	0	23.496	0	6.842	0	241.1	4	98.8	4	-1E+10	1	-1E+10	1	-1E+10	1	-1E+10	1	-1E+10	1	-1E+10	1
4902549	39	C	09/05/2021	10:58	-131.885	47.194	0	8.00	0	16.7520	0	32.2930	0	23.496	0	7.933	0	241.1	4	98.8	4	-1E+10	1	-1E+10	1	-1E+10	1	-1E+10	1	-1E+10	1	-1E+10	1
4902549	39	C	09/05/2021	10:58	-131.885	47.194	0	8.80	0	16.7520	0	32.2930	0	23.496	0	8.727	0	241.2	4	98.9	4	-1E+10	1	-1E+10	1	-1E+10	1	-1E+10	1	-1E+10	1	-1E+10	1
4902549	39	C	09/05/2021	10:58	-131.885	47.194	0	9.90	0	16.7520	0	32.2920	0	23.496	0	9.817	0	241.3	4	98.9	4	-1E+10	1	-1E+10	1	-1E+10	1	-1E+10	1	-1E+10	1	-1E+10	1
4902549	39	C	09/05/2021	10:58	-131.885	47.194	0	11.10	0	16.7520	0	32.2930	0	23.497	0	11.007	0	241.4	4	98.9	4	-1E+10	1	-1E+10	1	-1E+10	1	-1E+10	1	-1E+10	1	-1E+10	1
4902549	39	C	09/05/2021	10:58	-131.885	47.194	0	11.90	0	16.7520	0	32.2920	0	23.496	0	11.801	0	241.5	4	99.0	4	-1E+10	1	-1E+10	1	-1E+10	1	-1E+10	1	-1E+10	1	-1E+10	1
4902549	39	C	09/05/2021	10:58	-131.885	47.194	0	12.80	0	16.7520	0	32.2930	0	23.497	0	12.693	0	241.6	4	99.0	4	-1E+10	1	-1E+10	1	-1E+10	1	-1E+10	1	-1E+10	1	-1E+10	1
4902549	39	C	09/05/2021	10:58	-131.885	47.194	0	13.60	0	16.7520	0	32.2930	0	23.497	0	13.486	0	241.6	4	99.0	4	-1E+10	1	-1E+10	1	-1E+10	1	-1E+10	1	-1E+10	1	-1E+10	1
4902549	39	C	09/05/2021	10:58	-131.885	47.194	0	14.90	0	16.7520	0	32.2920	0	23.496	0	14.776	0	241.9	4	99.1	4	-1E+10	1	-1E+10	1	-1E+10	1	-1E+10	1	-1E+10	1	-1E+10	1
4902549	39	C	09/05/2021	10:58	-131.885	47.194	0	16.30	0	16.7520	0	32.2930	0	23.497	0	16.164	0	242.1	4	99.2	4	-1E+10	1	-1E+10	1	-1E+10	1	-1E+10	1	-1E+10	1	-1E+10	1
4902549	39	C	09/05/2021	10:58	-131.885	47.194	0	17.20	0	16.7520	0	32.2930	0	23.497	0	17.056	0	242.3	4	99.3	4	-1E+10	1	-1E+10	1	-1E+10	1	-1E+10	1	-1E+10	1	-1E+10	1
4902549	39	C	09/05/2021	10:58	-131.885	47.194	0	18.10	0	16.7520	0	32.2930	0	23.497	0	17.949	0	242.4	4	99.4	4	-1E+10	1	-1E+10	1	-1E+10	1	-1E+10	1	-1E+10	1	-1E+10	1
4902549	39	C	09/05/2021	10:58	-131.885	47.194	0	19.00	0	16.7530	0	32.2930	0	23.497	0	18.841	0	242.7	4	99.5	4	-1E+10	1	-1E+10	1	-1E+10	1	-1E+10	1	-1E+10	1	-1E+10	1
4902549	39	C	09/05/2021	10:58	-131.885	47.194	0	19.80	0	16.7530	0	32.2930	0	23.497	0	19.634	0	243.1	4	99.6	4	-1E+10	1	-1E+10	1	-1E+10	1	-1E+10	1	-1E+10	1	-1E+10	1
4902549	39	C	09/05/2021	10:58	-131.885	47.194	0	20.60	0	16.7530	0	32.2930	0	23.497	0	20.428	0	243.4	4	99.7	4	-1E+10	1	-1E+10	1	-1E+10	1	-1E+10	1	-1E+10	1	-1E+10	1
4902549	39	C	09/05/2021	10:58	-131.885	47.194	0	21.90	0	16.7520	0	32.2930	0	23.497	0	21.717	0	243.9	4	100.0	4	-1E+10	1	-1E+10	1	-1E+10	1	-1E+10	1	-1E+10	1	-1E+10	1
4902549	39	C	09/05/2021	10:58	-131.885	47.194	0	23.10	0	16.7520	0	32.2920	0	23.496	0	22.907	0	244.7	4	100.3	4	-1E+10	1	-1E+10	1	-1E+10	1	-1E+10	1	-1E+10	1	-1E+10	1
4902549	39	C	09/05/2021	10:58	-131.885	47.194	0	23.90	0	16.7500	0	32.2940	0	23.498	0	23.700	0	245.2	4	100.5	4	-1E+10	1	-1E+10	1	-1E+10	1	-1E+10	1	-1E+10	1	-1E+10	1
4902549	39	C	09/05/2021	10:58	-131.885	47.194	0	25.00	0	16.7440	0	32.2920	0	23.498	0	24.791	0	246.2	4	100.9	4	-1E+10	1	-1E+10	1	-1E+10	1	-1E+10	1	-1E+10	1	-1E+10	1
4902549	39	C	09/05/2021	10:58	-131.885	47.194	0	26.10	0	16.7330	0	32.2930	0	23.501	0	25.881	0	247.4	4	101.4	4	-1E+10	1	-1E+10	1	-1E+10	1	-1E+10	1	-1E+10	1	-1E+10	1
4902549	39	C	09/05/2021	10:58	-131.885	47.194	0	27.10	0	16.6770	0	32.2940	0	23.515	0	26.873	0	249.0	4	101.9	4	-1E+10	1	-1E+10	1	-1E+10	1	-1E+10	1	-1E+10	1	-1E+10	1
4902549	39	C	09/05/2021	10:58	-131.885	47.194	0	28.00	0	16.6220	0	32.2990	0	23.532	0	27.765	0	250.8	4	102.5	4	-1E+10	1	-1E+10	1	-1E+10	1	-1E+10	1	-1E+10	1	-1E+10	1
4902549	39	C	09/05/2021	10:58	-131.885	47.194	0	29.10	0	16.5730	0	32.2990	0	23.543	0	28.856	0	254.7	4	104.0	4	-1E+10	1	-1E+10	1	-1E+10	1	-1E+10	1	-1E+10	1	-1E+10	1
4902549	39	C	09/05/2021	10:58	-131.885	47.194	0	30.00	0	16.4020	0	32.2970	0	23.581	0	29.748	0	261.0	4	106.3	4	-1E+10	1	-1E+10	1	-1E+10	1	-1E+10	1	-1E+10	1	-1E+10	1
4902549	39	C	09/05/2021	10:58	-131.885	47.194	0	31.10	0	15.1300	0	32.3170	0	23.878	0	30.839	0	267.9	4	106.4	4	-1E+10	1	-1E+10	1	-1E+10	1	-1E+10	1	-1E+10	1	-1E+10	1
4902549	39	C	09/05/2021	10:58	-131.885	47.194	0	32.00	0	14.8790	0	32.3130	0	23.929	0	31.731	0	269.7	4	106.6	4	-1E+10	1	-1E+10	1	-1E+10	1	-1E+10	1	-1E+10	1	-1E+10	1
4902549	39	C	09/05/2021	10:58	-131.885	47.194	0	33.00	0	14.7700	0	32.3100	0	23.950	0	32.723	0	271.7	4	107.1	4	-1E+10	1	-1E+10	1	-1E+10	1	-1E+10	1	-1E+10	1	-1E+10	1
4902549	39	C	09/05/2021	10:58	-131.885	47.194	0	34.10	0	14.5940	0	32.3000	0	23.979	0	33.814	0	272.0	4	106.9	4	-1E+10	1	-1E+10	1	-1E+10	1	-1E+10	1	-1E+10	1	-1E+10	1
4902549	39	C	09/05/2021	10:58	-131.885	47.194	0	35.10	0	14.1480	0	32.3020	0	24.074	0	34.805	0	272.6	4	106.2	4	-1E+10	1	-1E+10	1	-1E+10	1	-1E+10	1	-1E+10	1	-1E+10	1
4902549	39	C	09/05/2021	10:58	-131.885	47.194	0	35.80	0	13.6300	0	32.3120	0	24.188	0	35.499	0	275.7	4	106.2	4	-1E+10	1	-1E+10	1	-1E+10	1	-1E+10	1	-1E+10	1	-1E+10	1
4902549	39	C	09/05/2021	10:58	-131.885	47.194	0	36.80	0	13.3020	0	32.3150	0	24.256	0	36.491	0	276.5	4	105.9	4	-1E+10	1	-1E+10	1	-1E+10	1	-1E+10	1	-1E+10	1	-1E+10	1
4902549	39	C	09/05/2021	10:58	-131.885	47.194	0	37.80	0	13.0180	0	32.3230	0	24.318	0	37.482	0	277.9	4	105.8	4	-1E+10	1	-1E+10	1	-1E+10	1	-1E+10	1	-1E+10	1	-1E+10	1
4902549	39	C	09/05/2021	10:58	-131.885	47.194	0	38.70	0	12.7650	0	32.3200	0	24.365	0	38.374	0	278.6	4	105.5	4	-1E+10	1	-1E+10	1	-1E+10	1	-1E+10	1	-1E+10	1	-1E+10	1
4902549	39	C	09/05/2021	10:58	-131.885	47.194	0	39.90	0	12.6370	0	32.3210	0	24.390	0	39.564	0	278.8	4	105.3	4	-1E+10	1	-1E+10	1	-1E+10	1	-1E+10	1	-1E+10	1	-1E+10	1
4902549	39	C	09/05/2021	10:58	-131.885	47.194	0	41.30	0	12.3300	0	32.3260	0	24.453	0	40.952	0	279.9	4	105.0	4	-1E+10	1	-1E+10	1	-1E+10	1	-1E+10	1	-1E+10	1	-1E+10	1
4902549	39	C	09/05/2021	10:58	-131.885	47.194	0	42.20	0	12.2520	0	32.3210	0	24.464	0	41.845	0	279.6	4	104.8	4	-1E+10	1	-1E+10	1	-1E+10	1	-1E+10	1	-1E+10	1	-1E+10	1
4902549	39	C	09/05/2021	10:58	-131.885	47.194	0	42.90	0	12.1650	0	32.3220	0	24.481	0	42.539	0	279.6	4	104.6	4	-1E+10	1	-1E+10	1	-1E+10	1	-1E+10	1	-1E+10	1	-1E+10	1
4902549	39	C	09/05/2021	10:58	-131.885	47.194	0	43.80	0	11.9870	0	32.3290	0	24.519	0	43.431	0	279.7	4	104.2	4	-1E+10	1	-1E+10	1	-1E+10	1	-1E+10	1	-1E+10	1	-1E+10	1
4902549	39	C	09/05/2021	10:58	-131.885	47.194	0	45.00	0	11.8900	0	32.3260	0	24.535	0	44.621	0	278.8	4	103.7	4	-1E+10	1	-1E+10	1	-1E+10	1	-1E+10	1	-1E+10	1	-1E+10	1
4902549	39	C	09/05/2021	10:58	-131.885	47.194	0	46.10	0	11.6820	0	32.3270	0	24.574	0	45.711	0	277.8	4	102.9	4	-1E+10	1	-1E+10	1	-1E+10	1	-1E+10	1	-1E+10	1	-1E+10	1
4902549	39	C	09/05/2021	10:58	-131.885	47.194	0	46.90	0	11.5390	0	32.3270	0	24.600	0	46.505	0	277.5	4	102.5	4	-1E+10	1	-1E+10	1	-1E+10	1	-1E+10	1	-1E+10	1	-1E+10	1
4902549	39	C	09/05/2021	10:58	-131.885	47.194	0	48.10	0	11.1520	0	32.3480	0	24.686	0	47.694	0	277.8	4	101.7	4	-1E+10	1	-1E+10	1	-1E+10	1	-1E+10	1	-1E+10	1	-1E+10	1
4902549	39	C	09/05/2021	10:58	-131.885	47.194	0	49.10	0	10.8620	0	32.3500	0	24.738	0	48.686	0	278.2	4	101.3	4	-1E+10	1	-1E+10	1	-1E+10	1	-1E+10	1	-1E+10	1	-1E+10	1
4902549	39	C	09/05/2021	10:58	-131.885	47.194	0	50.20	0	10.6890	0	32.3490	0	24.767	0	49.776	0	278.1	4	100.9	4	-1E+10	1	-1E+10	1	-1E+10	1	-1E+10	1	-1E+10	1	-1E+10	1
4902549	39	C	09/05/2021	10:58	-131.885	47.194	0	51.10	0	10.6140	0	32.3490	0	24.780	0	50.669	0	276.8	4	100.2	4	-1E+10	1	-1E+10	1	-1E+10	1	-1E+10	1	-1E+10	1	-1E+10	1
4902549	39	C	09/05/2021	10:58	-131.885	47.194	0	52.00	0	10.4100	0	32.3560	0	24.821	0	51.561	0	275.4	4	99.3	4	-1E+10	1	-1E+10	1	-1E+10	1	-1E+10	1	-1E+10	1	-1E+10	1
4902549	39	C	09/05/2021	10:58	-131.885	47.194	0	52.90	0	10.1540	0	32.3610	0	24.868	0	52.453	0	275.5	4	98.8	4	-1E+10	1	-1E+10	1	-1E+10	1	-1E+10	1	-1E+10	1	-1E+10	1
4902549	39	C	09/05/2021	10:58	-131.885	47.194	0	53.80	0	9.9880	0	32.3670	0	24.900	0	53.346	0	275.0	4	98.2	4	-1E+10	1	-1E+10	1	-1E+10	1	-1E+10	1	-1E+10	1	-1E+10	1
4902549	39	C	09/05/2021	10:58	-131.885	47.194	0	54.80	0	9.9230	0	32.3670	0	24.911	0	54.337	0	273.7	4	97.7	4	-1E+10	1	-1E+10	1	-1E+10	1	-1E+10	1	-1E+10	1	-1E+10	1
4902549	39	C	09/05/2021	10:58	-131.885	47.194	0	55.90	0	9.7740	0	32.3760	0	24.942	0	55.428	0	272.6	4	96.9	4	-1E+10	1	-1E+10	1	-1E+10	1	-1E+10	1	-1E+10	1	-1E+10	1
4902549	39	C	09/05/2021	10:58	-131.885	47.194	0	57.10	0	9.5020	0	32.3850	0	24.993	0	56.617	0	272.7	4	96.4	4	-1E+10	1	-1E+10	1	-1E+10	1	-1E+10	1	-1E+10	1	-1E+10	1
4902549	39	C	09/05/2021	10:58	-131.885	47.194	0	57.90	0	9.4740	0	32.3840	0	24.997	0	57.410	0	271.8	4	96.0	4	-1E+10	1	-1E+10	1	-1E+10	1	-1E+10	1	-1E+10	1	-1E+10	1
4902549	39	C	09/05/2021	10:58	-131.885	47.194	0	58.90	0	9.4070	0	32.3850	0	25.008	0	58.402	0	270.7	4	95.5	4	-1E+10	1	-1E+10	1	-1E+10	1	-1E+10	1	-1E+10	1	-1E+10	1
4902549	39	C	09/05/2021	10:58	-131.885	47.194	0	60.00	0	9.3170	0	32.3870	0	25.024	0	59.492	0	269.6	4	94.9	4	-1E+10	1	-1E+10	1	-1E+10	1	-1E+10	1	-1E+10	1	-1E+10	1
4902549	39	C	09/05/2021	10:58	-131.885	47.194	0	60.90	0	9.1930	0	32.3870	0	25.044	0	60.385	0	269.2	4	94.5	4	-1E+10	1	-1E+10	1	-1E+10	1	-1E+10	1	-1E+10	1	-1E+10	1
4902549	39	C	09/05/2021	10:58	-131.885	47.194	0	61.70	0	8.8570	0	32.4080	0	25.112	0	61.178	0	270.4	4	94.3	4	-1E+10	1	-1E+10	1	-1E+10	1	-1E+10	1	-1E+10	1	-1E+10	1
4902549	39	C	09/05/2021	10:58	-131.885	47.194	0	62.70	0	8.8110	0	32.4090	0	25.120	0	62.169	0	270.1	4	94.1	4	-1E+10	1	-1E+10	1	-1E+10	1	-1E+10	1	-1E+10	1	-1E+10	1
4902549	39	C	09/05/2021	10:58	-131.885	47.194	0	63.80	0	8.7700	0	32.4120	0	25.129	0	63.260	0	269.5	4	93.8	4	-1E+10	1	-1E+10	1	-1E+10	1	-1E+10	1	-1E+10	1	-1E+10	1
4902549	39	C	09/05/2021	10:58	-131.885	47.194	0	64.90	0	8.7310	0	32.4080	0	25.132	0	64.350	0	269.1	4	93.6	4	-1E+10	1	-1E+10	1	-1E+10	1	-1E+10	1	-1E+10	1	-1E+10	1
4902549	39	C	09/05/2021	10:58	-131.885	47.194	0	66.10	0	8.6180	0	32.4100	0	25.150	0	65.540	0	269.2	4	93.4	4	-1E+10	1	-1E+10	1	-1E+10	1	-1E+10	1	-1E+10	1	-1E+10	1
4902549	39	C	09/05/2021	10:58	-131.885	47.194	0	67.10	0	8.5300	0	32.4130	0	25.166	0	66.531	0	269.2	4	93.2	4	-1E+10	1	-1E+10	1	-1E+10	1	-1E+10	1	-1E+10	1	-1E+10	1
4902549	39	C	09/05/2021	10:58	-131.885	47.194	0	68.00	0	8.5310	0	32.4110	0	25.164	0	67.423	0	268.9	4	93.1	4	-1E+10	1	-1E+10	1	-1E+10	1	-1E+10	1	-1E+10	1	-1E+10	1
4902549	39	C	09/05/2021	10:58	-131.885	47.194	0	69.10	0	8.4860	0	32.4190	0	25.177	0	68.514	0	268.8	4	92.9	4	-1E+10	1	-1E+10	1	-1E+10	1	-1E+10	1	-1E+10	1	-1E+10	1
4902549	39	C	09/05/2021	10:58	-131.885	47.194	0	69.80	0	8.4870	0	32.4100	0	25.170	0	69.208	0	268.5	4	92.8	4	-1E+10	1	-1E+10	1	-1E+10	1	-1E+10	1	-1E+10	1	-1E+10	1
4902549	39	C	09/05/2021	10:58	-131.885	47.194	0	70.80	0	8.4620	0	32.4090	0	25.173	0	70.199	0	268.2	4	92.7	4	-1E+10	1	-1E+10	1	-1E+10	1	-1E+10	1	-1E+10	1	-1E+10	1
4902549	39	C	09/05/2021	10:58	-131.885	47.194	0	72.00	0	8.3830	0	32.4120	0	25.187	0	71.389	0	268.1	4	92.5	4	-1E+10	1	-1E+10	1	-1E+10	1	-1E+10	1	-1E+10	1	-1E+10	1
4902549	39	C	09/05/2021	10:58	-131.885	47.194	0	73.00	0	8.3090	0	32.4060	0	25.193	0	72.380	0	268.4	4	92.5	4	-1E+10	1	-1E+10	1	-1E+10	1	-1E+10	1	-1E+10	1	-1E+10	1
4902549	39	C	09/05/2021	10:58	-131.885	47.194	0	74.20	0	8.2670	0	32.4020	0	25.196	0	73.570	0	268.5	4	92.4	4	-1E+10	1	-1E+10	1	-1E+10	1	-1E+10	1	-1E+10	1	-1E+10	1
4902549	39	C	09/05/2021	10:58	-131.885	47.194	0	75.00	0	8.2350	0	32.4020	0	25.201	0	74.363	0	268.6	4	92.3	4	-1E+10	1	-1E+10	1	-1E+10	1	-1E+10	1	-1E+10	1	-1E+10	1
4902549	39	C	09/05/2021	10:58	-131.885	47.194	0	75.80	0	8.1910	0	32.3990	0	25.205	0	75.156	0	268.7	4	92.3	4	-1E+10	1	-1E+10	1	-1E+10	1	-1E+10	1	-1E+10	1	-1E+10	1
4902549	39	C	09/05/2021	10:58	-131.885	47.194	0	76.90	0	8.1670	0	32.3960	0	25.206	0	76.246	0	268.7	4	92.2	4	-1E+10	1	-1E+10	1	-1E+10	1	-1E+10	1	-1E+10	1	-1E+10	1
4902549	39	C	09/05/2021	10:58	-131.885	47.194	0	78.10	0	8.1490	0	32.3960	0	25.209	0	77.436	0	268.6	4	92.2	4	-1E+10	1	-1E+10	1	-1E+10	1	-1E+10	1	-1E+10	1	-1E+10	1
4902549	39	C	09/05/2021	10:58	-131.885	47.194	0	78.80	0	8.1440	0	32.3950	0	25.209	0	78.130	0	268.5	4	92.1	4	-1E+10	1	-1E+10	1	-1E+10	1	-1E+10	1	-1E+10	1	-1E+10	1
4902549	39	C	09/05/2021	10:58	-131.885	47.194	0	79.90	0	8.1320	0	32.3940	0	25.210	0	79.220	0	268.4	4	92.1	4	-1E+10	1	-1E+10	1	-1E+10	1	-1E+10	1	-1E+10	1	-1E+10	1
4902549	39	C	09/05/2021	10:58	-131.885	47.194	0	81.00	0	8.1190	0	32.3930	0	25.211	0	80.310	0	268.3	4	92.0	4	-1E+10	1	-1E+10	1	-1E+10	1	-1E+10	1	-1E+10	1	-1E+10	1
4902549	39	C	09/05/2021	10:58	-131.885	47.194	0	81.80	0	8.0900	0	32.3910	0	25.214	0	81.104	0	268.2	4	91.9	4	-1E+10	1	-1E+10	1	-1E+10	1	-1E+10	1	-1E+10	1	-1E+10	1
4902549	39	C	09/05/2021	10:58	-131.885	47.194	0	82.80	0	8.0620	0	32.3890	0	25.216	0	82.095	0	268.2	4	91.9	4	-1E+10	1	-1E+10	1	-1E+10	1	-1E+10	1	-1E+10	1	-1E+10	1
4902549	39	C	09/05/2021	10:58	-131.885	47.194	0	83.90	0	8.0530	0	32.3880	0	25.217	0	83.185	0	268.0	4	91.8	4	-1E+10	1	-1E+10	1	-1E+10	1	-1E+10	1	-1E+10	1	-1E+10	1
4902549	39	C	09/05/2021	10:58	-131.885	47.194	0	84.90	0	8.0610	0	32.3910	0	25.218	0	84.176	0	267.6	4	91.7	4	-1E+10	1	-1E+10	1	-1E+10	1	-1E+10	1	-1E+10	1	-1E+10	1
4902549	39	C	09/05/2021	10:58	-131.885	47.194	0	86.00	0	8.0480	0	32.3960	0	25.224	0	85.267	0	267.5	4	91.6	4	-1E+10	1	-1E+10	1	-1E+10	1	-1E+10	1	-1E+10	1	-1E+10	1
4902549	39	C	09/05/2021	10:58	-131.885	47.194	0	87.00	0	8.0050	0	32.3930	0	25.228	0	86.258	0	267.6	4	91.5	4	-1E+10	1	-1E+10	1	-1E+10	1	-1E+10	1	-1E+10	1	-1E+10	1
4902549	39	C	09/05/2021	10:58	-131.885	47.194	0	88.00	0	7.9880	0	32.3940	0	25.231	0	87.249	0	267.5	4	91.5	4	-1E+10	1	-1E+10	1	-1E+10	1	-1E+10	1	-1E+10	1	-1E+10	1
4902549	39	C	09/05/2021	10:58	-131.885	47.194	0	88.90	0	7.9560	0	32.3910	0	25.233	0	88.142	0	267.4	4	91.4	4	-1E+10	1	-1E+10	1	-1E+10	1	-1E+10	1	-1E+10	1	-1E+10	1
4902549	39	C	09/05/2021	10:58	-131.885	47.194	0	90.10	0	7.9540	0	32.3940	0	25.236	0	89.331	0	267.1	4	91.3	4	-1E+10	1	-1E+10	1	-1E+10	1	-1E+10	1	-1E+10	1	-1E+10	1
4902549	39	C	09/05/2021	10:58	-131.885	47.194	0	91.00	0	7.9580	0	32.3990	0	25.239	0	90.223	0	267.0	4	91.2	4	-1E+10	1	-1E+10	1	-1E+10	1	-1E+10	1	-1E+10	1	-1E+10	1
4902549	39	C	09/05/2021	10:58	-131.885	47.194	0	91.80	0	7.9690	0	32.4030	0	25.241	0	91.016	0	266.8	4	91.2	4	-1E+10	1	-1E+10	1	-1E+10	1	-1E+10	1	-1E+10	1	-1E+10	1
4902549	39	C	09/05/2021	10:58	-131.885	47.194	0	92.90	0	7.9720	0	32.4060	0	25.243	0	92.107	0	266.4	4	91.0	4	-1E+10	1	-1E+10	1	-1E+10	1	-1E+10	1	-1E+10	1	-1E+10	1
4902549	39	C	09/05/2021	10:58	-131.885	47.194	0	93.90	0	7.9470	0	32.4120	0	25.251	0	93.098	0	266.1	4	90.9	4	-1E+10	1	-1E+10	1	-1E+10	1	-1E+10	1	-1E+10	1	-1E+10	1
4902549	39	C	09/05/2021	10:58	-131.885	47.194	0	95.00	0	7.8730	0	32.4150	0	25.264	0	94.188	0	265.9	4	90.7	4	-1E+10	1	-1E+10	1	-1E+10	1	-1E+10	1	-1E+10	1	-1E+10	1
4902549	39	C	09/05/2021	10:58	-131.885	47.194	0	96.00	0	7.7910	0	32.4170	0	25.277	0	95.179	0	265.9	4	90.5	4	-1E+10	1	-1E+10	1	-1E+10	1	-1E+10	1	-1E+10	1	-1E+10	1
4902549	39	C	09/05/2021	10:58	-131.885	47.194	0	97.10	0	7.7450	0	32.4180	0	25.285	0	96.270	0	265.8	4	90.4	4	-1E+10	1	-1E+10	1	-1E+10	1	-1E+10	1	-1E+10	1	-1E+10	1
4902549	39	C	09/05/2021	10:58	-131.885	47.194	0	98.00	0	7.7260	0	32.4210	0	25.290	0	97.162	0	265.6	4	90.3	4	-1E+10	1	-1E+10	1	-1E+10	1	-1E+10	1	-1E+10	1	-1E+10	1
4902549	39	C	09/05/2021	10:58	-131.885	47.194	0	99.00	0	7.7080	0	32.4280	0	25.298	0	98.153	0	265.4	4	90.2	4	-1E+10	1	-1E+10	1	-1E+10	1	-1E+10	1	-1E+10	1	-1E+10	1
4902549	39	C	09/05/2021	10:58	-131.885	47.194	0	100.20	0	7.6930	0	32.4310	0	25.302	0	99.342	0	265.1	4	90.1	4	-1E+10	1	-1E+10	1	-1E+10	1	-1E+10	1	-1E+10	1	-1E+10	1
4902549	39	C	09/05/2021	10:58	-131.885	47.194	0	101.00	0	7.6620	0	32.4350	0	25.310	0	100.135	0	264.9	4	89.9	4	-1E+10	1	-1E+10	1	-1E+10	1	-1E+10	1	-1E+10	1	-1E+10	1
4902549	39	C	09/05/2021	10:58	-131.885	47.194	0	102.30	0	7.6470	0	32.4360	0	25.313	0	101.424	0	264.6	4	89.8	4	-1E+10	1	-1E+10	1	-1E+10	1	-1E+10	1	-1E+10	1	-1E+10	1
4902549	39	C	09/05/2021	10:58	-131.885	47.194	0	103.10	0	7.6320	0	32.4380	0	25.316	0	102.217	0	264.5	4	89.7	4	-1E+10	1	-1E+10	1	-1E+10	1	-1E+10	1	-1E+10	1	-1E+10	1
4902549	39	C	09/05/2021	10:58	-131.885	47.194	0	103.90	0	7.6200	0	32.4400	0	25.319	0	103.010	0	264.3	4	89.6	4	-1E+10	1	-1E+10	1	-1E+10	1	-1E+10	1	-1E+10	1	-1E+10	1
4902549	39	C	09/05/2021	10:58	-131.885	47.194	0	104.90	0	7.6150	0	32.4390	0	25.319	0	104.001	0	264.1	4	89.6	4	-1E+10	1	-1E+10	1	-1E+10	1	-1E+10	1	-1E+10	1	-1E+10	1
4902549	39	C	09/05/2021	10:58	-131.885	47.194	0	106.10	0	7.6150	0	32.4390	0	25.319	0	105.190	0	263.5	4	89.3	4	-1E+10	1	-1E+10	1	-1E+10	1	-1E+10	1	-1E+10	1	-1E+10	1
4902549	39	C	09/05/2021	10:58	-131.885	47.194	0	106.80	0	7.6010	0	32.4430	0	25.325	0	105.884	0	263.1	4	89.2	4	-1E+10	1	-1E+10	1	-1E+10	1	-1E+10	1	-1E+10	1	-1E+10	1
4902549	39	C	09/05/2021	10:58	-131.885	47.194	0	107.90	0	7.5910	0	32.4420	0	25.325	0	106.975	0	262.7	4	89.0	4	-1E+10	1	-1E+10	1	-1E+10	1	-1E+10	1	-1E+10	1	-1E+10	1
4902549	39	C	09/05/2021	10:58	-131.885	47.194	0	109.00	0	7.5620	0	32.4500	0	25.336	0	108.065	0	262.5	4	88.9	4	-1E+10	1	-1E+10	1	-1E+10	1	-1E+10	1	-1E+10	1	-1E+10	1
4902549	39	C	09/05/2021	10:58	-131.885	47.194	0	110.10	0	7.5360	0	32.4540	0	25.342	0	109.155	0	262.2	4	88.8	4	-1E+10	1	-1E+10	1	-1E+10	1	-1E+10	1	-1E+10	1	-1E+10	1
4902549	39	C	09/05/2021	10:58	-131.885	47.194	0	110.80	0	7.4970	0	32.4560	0	25.349	0	109.849	0	262.0	4	88.6	4	-1E+10	1	-1E+10	1	-1E+10	1	-1E+10	1	-1E+10	1	-1E+10	1
4902549	39	C	09/05/2021	10:58	-131.885	47.194	0	111.70	0	7.4380	0	32.4590	0	25.360	0	110.741	0	261.9	4	88.5	4	-1E+10	1	-1E+10	1	-1E+10	1	-1E+10	1	-1E+10	1	-1E+10	1
4902549	39	C	09/05/2021	10:58	-131.885	47.194	0	112.80	0	7.4300	0	32.4600	0	25.362	0	111.831	0	261.2	4	88.2	4	-1E+10	1	-1E+10	1	-1E+10	1	-1E+10	1	-1E+10	1	-1E+10	1
4902549	39	C	09/05/2021	10:58	-131.885	47.194	0	113.90	0	7.4250	0	32.4620	0	25.364	0	112.921	0	260.4	4	87.9	4	-1E+10	1	-1E+10	1	-1E+10	1	-1E+10	1	-1E+10	1	-1E+10	1
4902549	39	C	09/05/2021	10:58	-131.885	47.194	0	114.90	0	7.4180	0	32.4630	0	25.366	0	113.913	0	259.6	4	87.7	4	-1E+10	1	-1E+10	1	-1E+10	1	-1E+10	1	-1E+10	1	-1E+10	1
4902549	39	C	09/05/2021	10:58	-131.885	47.194	0	115.90	0	7.4040	0	32.4640	0	25.368	0	114.904	0	258.5	4	87.3	4	-1E+10	1	-1E+10	1	-1E+10	1	-1E+10	1	-1E+10	1	-1E+10	1
4902549	39	C	09/05/2021	10:58	-131.885	47.194	0	116.90	0	7.3830	0	32.4710	0	25.377	0	115.895	0	257.5	4	86.9	4	-1E+10	1	-1E+10	1	-1E+10	1	-1E+10	1	-1E+10	1	-1E+10	1
4902549	39	C	09/05/2021	10:58	-131.885	47.194	0	117.90	0	7.3600	0	32.4760	0	25.384	0	116.886	0	256.0	4	86.3	4	-1E+10	1	-1E+10	1	-1E+10	1	-1E+10	1	-1E+10	1	-1E+10	1
4902549	39	C	09/05/2021	10:58	-131.885	47.194	0	118.90	0	7.3460	0	32.4890	0	25.396	0	117.877	0	254.4	4	85.8	4	-1E+10	1	-1E+10	1	-1E+10	1	-1E+10	1	-1E+10	1	-1E+10	1
4902549	39	C	09/05/2021	10:58	-131.885	47.194	0	120.00	0	7.3360	0	32.4950	0	25.402	0	118.967	0	252.2	4	85.0	4	-1E+10	1	-1E+10	1	-1E+10	1	-1E+10	1	-1E+10	1	-1E+10	1
4902549	39	C	09/05/2021	10:58	-131.885	47.194	0	120.90	0	7.3090	0	32.4950	0	25.406	0	119.859	0	249.9	4	84.2	4	-1E+10	1	-1E+10	1	-1E+10	1	-1E+10	1	-1E+10	1	-1E+10	1
4902549	39	C	09/05/2021	10:58	-131.885	47.194	0	122.10	0	7.2870	0	32.5070	0	25.418	0	121.049	0	245.6	4	82.7	4	-1E+10	1	-1E+10	1	-1E+10	1	-1E+10	1	-1E+10	1	-1E+10	1
4902549	39	C	09/05/2021	10:58	-131.885	47.194	0	122.90	0	7.2910	0	32.5350	0	25.440	0	121.841	0	242.3	4	81.6	4	-1E+10	1	-1E+10	1	-1E+10	1	-1E+10	1	-1E+10	1	-1E+10	1
4902549	39	C	09/05/2021	10:58	-131.885	47.194	0	124.00	0	7.3380	0	32.6000	0	25.485	0	122.932	0	236.9	4	80.0	4	-1E+10	1	-1E+10	1	-1E+10	1	-1E+10	1	-1E+10	1	-1E+10	1
4902549	39	C	09/05/2021	10:58	-131.885	47.194	0	125.10	0	7.4350	0	32.7140	0	25.561	0	124.022	0	230.0	4	77.8	4	-1E+10	1	-1E+10	1	-1E+10	1	-1E+10	1	-1E+10	1	-1E+10	1
4902549	39	C	09/05/2021	10:58	-131.885	47.194	0	126.00	0	7.4650	0	32.7550	0	25.589	0	124.914	0	224.8	4	76.2	4	-1E+10	1	-1E+10	1	-1E+10	1	-1E+10	1	-1E+10	1	-1E+10	1
4902549	39	C	09/05/2021	10:58	-131.885	47.194	0	126.90	0	7.4850	0	32.7760	0	25.603	0	125.806	0	220.4	4	74.7	4	-1E+10	1	-1E+10	1	-1E+10	1	-1E+10	1	-1E+10	1	-1E+10	1
4902549	39	C	09/05/2021	10:58	-131.885	47.194	0	128.10	0	7.5000	0	32.9420	0	25.731	0	126.995	0	216.7	4	73.6	4	-1E+10	1	-1E+10	1	-1E+10	1	-1E+10	1	-1E+10	1	-1E+10	1
4902549	39	C	09/05/2021	10:58	-131.885	47.194	0	129.00	0	7.4970	0	32.9730	0	25.756	0	127.887	0	215.1	4	73.0	4	-1E+10	1	-1E+10	1	-1E+10	1	-1E+10	1	-1E+10	1	-1E+10	1
4902549	39	C	09/05/2021	10:58	-131.885	47.194	0	129.70	0	7.4940	0	32.9830	0	25.764	0	128.581	0	213.9	4	72.6	4	-1E+10	1	-1E+10	1	-1E+10	1	-1E+10	1	-1E+10	1	-1E+10	1
4902549	39	C	09/05/2021	10:58	-131.885	47.194	0	130.70	0	7.4910	0	33.0050	0	25.782	0	129.572	0	212.4	4	72.1	4	-1E+10	1	-1E+10	1	-1E+10	1	-1E+10	1	-1E+10	1	-1E+10	1
4902549	39	C	09/05/2021	10:58	-131.885	47.194	0	131.80	0	7.4770	0	33.0370	0	25.809	0	130.662	0	210.9	4	71.6	4	-1E+10	1	-1E+10	1	-1E+10	1	-1E+10	1	-1E+10	1	-1E+10	1
4902549	39	C	09/05/2021	10:58	-131.885	47.194	0	133.00	0	7.4620	0	33.0570	0	25.827	0	131.851	0	209.1	4	71.0	4	-1E+10	1	-1E+10	1	-1E+10	1	-1E+10	1	-1E+10	1	-1E+10	1
4902549	39	C	09/05/2021	10:58	-131.885	47.194	0	133.90	0	7.4630	0	33.0820	0	25.846	0	132.743	0	207.5	4	70.5	4	-1E+10	1	-1E+10	1	-1E+10	1	-1E+10	1	-1E+10	1	-1E+10	1
4902549	39	C	09/05/2021	10:58	-131.885	47.194	0	134.80	0	7.4640	0	33.1120	0	25.870	0	133.635	0	206.2	4	70.0	4	-1E+10	1	-1E+10	1	-1E+10	1	-1E+10	1	-1E+10	1	-1E+10	1
4902549	39	C	09/05/2021	10:58	-131.885	47.194	0	135.90	0	7.4790	0	33.1410	0	25.891	0	134.725	0	204.8	4	69.6	4	-1E+10	1	-1E+10	1	-1E+10	1	-1E+10	1	-1E+10	1	-1E+10	1
4902549	39	C	09/05/2021	10:58	-131.885	47.194	0	137.00	0	7.4750	0	33.1580	0	25.905	0	135.815	0	203.4	4	69.1	4	-1E+10	1	-1E+10	1	-1E+10	1	-1E+10	1	-1E+10	1	-1E+10	1
4902549	39	C	09/05/2021	10:58	-131.885	47.194	0	138.20	0	7.4760	0	33.1730	0	25.916	0	137.005	0	201.8	4	68.6	4	-1E+10	1	-1E+10	1	-1E+10	1	-1E+10	1	-1E+10	1	-1E+10	1
4902549	39	C	09/05/2021	10:58	-131.885	47.194	0	139.00	0	7.4660	0	33.2250	0	25.959	0	137.797	0	200.8	4	68.3	4	-1E+10	1	-1E+10	1	-1E+10	1	-1E+10	1	-1E+10	1	-1E+10	1
4902549	39	C	09/05/2021	10:58	-131.885	47.194	0	139.80	0	7.3760	0	33.2630	0	26.001	0	138.590	0	200.5	4	68.0	4	-1E+10	1	-1E+10	1	-1E+10	1	-1E+10	1	-1E+10	1	-1E+10	1
4902549	39	C	09/05/2021	10:58	-131.885	47.194	0	140.70	0	7.3720	0	33.2700	0	26.007	0	139.482	0	199.9	4	67.8	4	-1E+10	1	-1E+10	1	-1E+10	1	-1E+10	1	-1E+10	1	-1E+10	1
4902549	39	C	09/05/2021	10:58	-131.885	47.194	0	141.60	0	7.3650	0	33.2830	0	26.018	0	140.374	0	199.2	4	67.6	4	-1E+10	1	-1E+10	1	-1E+10	1	-1E+10	1	-1E+10	1	-1E+10	1
4902549	39	C	09/05/2021	10:58	-131.885	47.194	0	142.90	0	7.3600	0	33.3000	0	26.032	0	141.662	0	198.3	4	67.3	4	-1E+10	1	-1E+10	1	-1E+10	1	-1E+10	1	-1E+10	1	-1E+10	1
4902549	39	C	09/05/2021	10:58	-131.885	47.194	0	144.30	0	7.3580	0	33.3190	0	26.048	0	143.050	0	197.1	4	66.9	4	-1E+10	1	-1E+10	1	-1E+10	1	-1E+10	1	-1E+10	1	-1E+10	1
4902549	39	C	09/05/2021	10:58	-131.885	47.194	0	145.20	0	7.3620	0	33.3400	0	26.064	0	143.942	0	196.4	4	66.7	4	-1E+10	1	-1E+10	1	-1E+10	1	-1E+10	1	-1E+10	1	-1E+10	1
4902549	39	C	09/05/2021	10:58	-131.885	47.194	0	146.10	0	7.3660	0	33.3580	0	26.077	0	144.833	0	195.7	4	66.4	4	-1E+10	1	-1E+10	1	-1E+10	1	-1E+10	1	-1E+10	1	-1E+10	1
4902549	39	C	09/05/2021	10:58	-131.885	47.194	0	147.00	0	7.3700	0	33.3630	0	26.081	0	145.725	0	194.9	4	66.2	4	-1E+10	1	-1E+10	1	-1E+10	1	-1E+10	1	-1E+10	1	-1E+10	1
4902549	39	C	09/05/2021	10:58	-131.885	47.194	0	148.00	0	7.3690	0	33.3720	0	26.088	0	146.716	0	194.2	4	65.9	4	-1E+10	1	-1E+10	1	-1E+10	1	-1E+10	1	-1E+10	1	-1E+10	1
4902549	39	C	09/05/2021	10:58	-131.885	47.194	0	149.00	0	7.3840	0	33.4340	0	26.135	0	147.707	0	193.4	4	65.7	4	-1E+10	1	-1E+10	1	-1E+10	1	-1E+10	1	-1E+10	1	-1E+10	1
4902549	39	C	09/05/2021	10:58	-131.885	47.194	0	150.00	0	7.3850	0	33.4350	0	26.135	0	148.698	0	192.8	4	65.5	4	-1E+10	1	-1E+10	1	-1E+10	1	-1E+10	1	-1E+10	1	-1E+10	1
4902549	39	C	09/05/2021	10:58	-131.885	47.194	0	151.00	0	7.3920	0	33.4560	0	26.151	0	149.689	0	192.3	4	65.4	4	-1E+10	1	-1E+10	1	-1E+10	1	-1E+10	1	-1E+10	1	-1E+10	1
4902549	39	C	09/05/2021	10:58	-131.885	47.194	0	151.90	0	7.3960	0	33.4800	0	26.169	0	150.581	0	191.7	4	65.2	4	-1E+10	1	-1E+10	1	-1E+10	1	-1E+10	1	-1E+10	1	-1E+10	1
4902549	39	C	09/05/2021	10:58	-131.885	47.194	0	152.90	0	7.3710	0	33.5040	0	26.191	0	151.572	0	191.3	4	65.0	4	-1E+10	1	-1E+10	1	-1E+10	1	-1E+10	1	-1E+10	1	-1E+10	1
4902549	39	C	09/05/2021	10:58	-131.885	47.194	0	153.90	0	7.3400	0	33.5120	0	26.202	0	152.563	0	191.2	4	64.9	4	-1E+10	1	-1E+10	1	-1E+10	1	-1E+10	1	-1E+10	1	-1E+10	1
4902549	39	C	09/05/2021	10:58	-131.885	47.194	0	155.00	0	7.3330	0	33.5130	0	26.204	0	153.653	0	190.9	4	64.8	4	-1E+10	1	-1E+10	1	-1E+10	1	-1E+10	1	-1E+10	1	-1E+10	1
4902549	39	C	09/05/2021	10:58	-131.885	47.194	0	156.00	0	7.3250	0	33.5190	0	26.210	0	154.644	0	190.6	4	64.7	4	-1E+10	1	-1E+10	1	-1E+10	1	-1E+10	1	-1E+10	1	-1E+10	1
4902549	39	C	09/05/2021	10:58	-131.885	47.194	0	157.00	0	7.3100	0	33.5290	0	26.220	0	155.635	0	190.3	4	64.6	4	-1E+10	1	-1E+10	1	-1E+10	1	-1E+10	1	-1E+10	1	-1E+10	1
4902549	39	C	09/05/2021	10:58	-131.885	47.194	0	157.90	0	7.3050	0	33.5320	0	26.223	0	156.527	0	190.1	4	64.5	4	-1E+10	1	-1E+10	1	-1E+10	1	-1E+10	1	-1E+10	1	-1E+10	1
4902549	39	C	09/05/2021	10:58	-131.885	47.194	0	158.90	0	7.2930	0	33.5370	0	26.228	0	157.518	0	189.8	4	64.4	4	-1E+10	1	-1E+10	1	-1E+10	1	-1E+10	1	-1E+10	1	-1E+10	1
4902549	39	C	09/05/2021	10:58	-131.885	47.194	0	159.90	0	7.2900	0	33.5400	0	26.231	0	158.509	0	189.4	4	64.3	4	-1E+10	1	-1E+10	1	-1E+10	1	-1E+10	1	-1E+10	1	-1E+10	1
4902549	39	C	09/05/2021	10:58	-131.885	47.194	0	160.90	0	7.2900	0	33.5400	0	26.231	0	159.499	0	189.1	4	64.2	4	-1E+10	1	-1E+10	1	-1E+10	1	-1E+10	1	-1E+10	1	-1E+10	1
4902549	39	C	09/05/2021	10:58	-131.885	47.194	0	161.80	0	7.2910	0	33.5400	0	26.231	0	160.391	0	188.6	4	64.0	4	-1E+10	1	-1E+10	1	-1E+10	1	-1E+10	1	-1E+10	1	-1E+10	1
4902549	39	C	09/05/2021	10:58	-131.885	47.194	0	162.80	0	7.2910	0	33.5390	0	26.230	0	161.382	0	188.2	4	63.9	4	-1E+10	1	-1E+10	1	-1E+10	1	-1E+10	1	-1E+10	1	-1E+10	1
4902549	39	C	09/05/2021	10:58	-131.885	47.194	0	163.70	0	7.2870	0	33.5400	0	26.232	0	162.274	0	187.7	4	63.7	4	-1E+10	1	-1E+10	1	-1E+10	1	-1E+10	1	-1E+10	1	-1E+10	1
4902549	39	C	09/05/2021	10:58	-131.885	47.194	0	164.60	0	7.2740	0	33.5430	0	26.236	0	163.166	0	187.3	4	63.5	4	-1E+10	1	-1E+10	1	-1E+10	1	-1E+10	1	-1E+10	1	-1E+10	1
4902549	39	C	09/05/2021	10:58	-131.885	47.194	0	165.90	0	7.2300	0	33.5570	0	26.253	0	164.454	0	186.7	4	63.3	4	-1E+10	1	-1E+10	1	-1E+10	1	-1E+10	1	-1E+10	1	-1E+10	1
4902549	39	C	09/05/2021	10:58	-131.885	47.194	0	167.30	0	7.1850	0	33.5780	0	26.276	0	165.841	0	186.0	4	63.0	4	-1E+10	1	-1E+10	1	-1E+10	1	-1E+10	1	-1E+10	1	-1E+10	1
4902549	39	C	09/05/2021	10:58	-131.885	47.194	0	168.20	0	7.1760	0	33.5830	0	26.281	0	166.733	0	185.5	4	62.8	4	-1E+10	1	-1E+10	1	-1E+10	1	-1E+10	1	-1E+10	1	-1E+10	1
4902549	39	C	09/05/2021	10:58	-131.885	47.194	0	169.20	0	7.1610	0	33.5870	0	26.286	0	167.724	0	185.0	4	62.6	4	-1E+10	1	-1E+10	1	-1E+10	1	-1E+10	1	-1E+10	1	-1E+10	1
4902549	39	C	09/05/2021	10:58	-131.885	47.194	0	170.00	0	7.1410	0	33.6010	0	26.300	0	168.517	0	184.5	4	62.4	4	-1E+10	1	-1E+10	1	-1E+10	1	-1E+10	1	-1E+10	1	-1E+10	1
4902549	39	C	09/05/2021	10:58	-131.885	47.194	0	170.90	0	7.1290	0	33.6130	0	26.311	0	169.408	0	184.0	4	62.3	4	-1E+10	1	-1E+10	1	-1E+10	1	-1E+10	1	-1E+10	1	-1E+10	1
4902549	39	C	09/05/2021	10:58	-131.885	47.194	0	171.80	0	7.1120	0	33.6350	0	26.331	0	170.300	0	183.7	4	62.1	4	-1E+10	1	-1E+10	1	-1E+10	1	-1E+10	1	-1E+10	1	-1E+10	1
4902549	39	C	09/05/2021	10:58	-131.885	47.194	0	172.80	0	7.1080	0	33.6410	0	26.336	0	171.291	0	183.3	4	62.0	4	-1E+10	1	-1E+10	1	-1E+10	1	-1E+10	1	-1E+10	1	-1E+10	1
4902549	39	C	09/05/2021	10:58	-131.885	47.194	0	173.70	0	7.1060	0	33.6430	0	26.338	0	172.183	0	182.9	4	61.8	4	-1E+10	1	-1E+10	1	-1E+10	1	-1E+10	1	-1E+10	1	-1E+10	1
4902549	39	C	09/05/2021	10:58	-131.885	47.194	0	174.70	0	7.1060	0	33.6430	0	26.338	0	173.174	0	182.3	4	61.7	4	-1E+10	1	-1E+10	1	-1E+10	1	-1E+10	1	-1E+10	1	-1E+10	1
4902549	39	C	09/05/2021	10:58	-131.885	47.194	0	175.70	0	7.1000	0	33.6480	0	26.343	0	174.164	0	181.7	4	61.5	4	-1E+10	1	-1E+10	1	-1E+10	1	-1E+10	1	-1E+10	1	-1E+10	1
4902549	39	C	09/05/2021	10:58	-131.885	47.194	0	176.60	0	7.0840	0	33.6620	0	26.356	0	175.056	0	181.2	4	61.3	4	-1E+10	1	-1E+10	1	-1E+10	1	-1E+10	1	-1E+10	1	-1E+10	1
4902549	39	C	09/05/2021	10:58	-131.885	47.194	0	177.60	0	7.0730	0	33.6730	0	26.366	0	176.047	0	180.7	4	61.1	4	-1E+10	1	-1E+10	1	-1E+10	1	-1E+10	1	-1E+10	1	-1E+10	1
4902549	39	C	09/05/2021	10:58	-131.885	47.194	0	178.50	0	7.0550	0	33.6920	0	26.383	0	176.939	0	180.3	4	60.9	4	-1E+10	1	-1E+10	1	-1E+10	1	-1E+10	1	-1E+10	1	-1E+10	1
4902549	39	C	09/05/2021	10:58	-131.885	47.194	0	179.50	0	7.0430	0	33.6980	0	26.390	0	177.930	0	179.9	4	60.8	4	-1E+10	1	-1E+10	1	-1E+10	1	-1E+10	1	-1E+10	1	-1E+10	1
4902549	39	C	09/05/2021	10:58	-131.885	47.194	0	180.90	0	7.0200	0	33.7080	0	26.401	0	179.317	0	179.3	4	60.5	4	-1E+10	1	-1E+10	1	-1E+10	1	-1E+10	1	-1E+10	1	-1E+10	1
4902549	39	C	09/05/2021	10:58	-131.885	47.194	0	182.40	0	7.0060	0	33.7150	0	26.408	0	180.803	0	178.7	4	60.3	4	-1E+10	1	-1E+10	1	-1E+10	1	-1E+10	1	-1E+10	1	-1E+10	1
4902549	39	C	09/05/2021	10:58	-131.885	47.194	0	183.30	0	6.9950	0	33.7190	0	26.413	0	181.695	0	178.3	4	60.2	4	-1E+10	1	-1E+10	1	-1E+10	1	-1E+10	1	-1E+10	1	-1E+10	1
4902549	39	C	09/05/2021	10:58	-131.885	47.194	0	184.30	0	6.9820	0	33.7220	0	26.417	0	182.685	0	178.0	4	60.1	4	-1E+10	1	-1E+10	1	-1E+10	1	-1E+10	1	-1E+10	1	-1E+10	1
4902549	39	C	09/05/2021	10:58	-131.885	47.194	0	185.30	0	6.9770	0	33.7220	0	26.418	0	183.676	0	177.6	4	59.9	4	-1E+10	1	-1E+10	1	-1E+10	1	-1E+10	1	-1E+10	1	-1E+10	1
4902549	39	C	09/05/2021	10:58	-131.885	47.194	0	186.30	0	6.9550	0	33.7290	0	26.426	0	184.667	0	177.3	4	59.8	4	-1E+10	1	-1E+10	1	-1E+10	1	-1E+10	1	-1E+10	1	-1E+10	1
4902549	39	C	09/05/2021	10:58	-131.885	47.194	0	187.30	0	6.9470	0	33.7280	0	26.427	0	185.658	0	176.9	4	59.7	4	-1E+10	1	-1E+10	1	-1E+10	1	-1E+10	1	-1E+10	1	-1E+10	1
4902549	39	C	09/05/2021	10:58	-131.885	47.194	0	188.30	0	6.9460	0	33.7280	0	26.427	0	186.649	0	176.4	4	59.5	4	-1E+10	1	-1E+10	1	-1E+10	1	-1E+10	1	-1E+10	1	-1E+10	1
4902549	39	C	09/05/2021	10:58	-131.885	47.194	0	189.30	0	6.9420	0	33.7280	0	26.427	0	187.639	0	175.9	4	59.3	4	-1E+10	1	-1E+10	1	-1E+10	1	-1E+10	1	-1E+10	1	-1E+10	1
4902549	39	C	09/05/2021	10:58	-131.885	47.194	0	190.30	0	6.9300	0	33.7300	0	26.430	0	188.630	0	175.3	4	59.1	4	-1E+10	1	-1E+10	1	-1E+10	1	-1E+10	1	-1E+10	1	-1E+10	1
4902549	39	C	09/05/2021	10:58	-131.885	47.194	0	191.20	0	6.9180	0	33.7310	0	26.433	0	189.522	0	174.8	4	58.9	4	-1E+10	1	-1E+10	1	-1E+10	1	-1E+10	1	-1E+10	1	-1E+10	1
4902549	39	C	09/05/2021	10:58	-131.885	47.194	0	192.20	0	6.9060	0	33.7320	0	26.435	0	190.513	0	174.3	4	58.7	4	-1E+10	1	-1E+10	1	-1E+10	1	-1E+10	1	-1E+10	1	-1E+10	1
4902549	39	C	09/05/2021	10:58	-131.885	47.194	0	193.20	0	6.9010	0	33.7320	0	26.436	0	191.503	0	173.7	4	58.5	4	-1E+10	1	-1E+10	1	-1E+10	1	-1E+10	1	-1E+10	1	-1E+10	1
4902549	39	C	09/05/2021	10:58	-131.885	47.194	0	194.20	0	6.8760	0	33.7370	0	26.443	0	192.494	0	173.1	4	58.3	4	-1E+10	1	-1E+10	1	-1E+10	1	-1E+10	1	-1E+10	1	-1E+10	1
4902549	39	C	09/05/2021	10:58	-131.885	47.194	0	195.20	0	6.8570	0	33.7380	0	26.447	0	193.485	0	172.6	4	58.1	4	-1E+10	1	-1E+10	1	-1E+10	1	-1E+10	1	-1E+10	1	-1E+10	1
4902549	39	C	09/05/2021	10:58	-131.885	47.194	0	196.20	0	6.8400	0	33.7420	0	26.452	0	194.476	0	172.0	4	57.8	4	-1E+10	1	-1E+10	1	-1E+10	1	-1E+10	1	-1E+10	1	-1E+10	1
4902549	39	C	09/05/2021	10:58	-131.885	47.194	0	197.20	0	6.8070	0	33.7450	0	26.459	0	195.466	0	171.4	4	57.6	4	-1E+10	1	-1E+10	1	-1E+10	1	-1E+10	1	-1E+10	1	-1E+10	1
4902549	39	C	09/05/2021	10:58	-131.885	47.194	0	198.20	0	6.7950	0	33.7470	0	26.462	0	196.457	0	170.8	4	57.4	4	-1E+10	1	-1E+10	1	-1E+10	1	-1E+10	1	-1E+10	1	-1E+10	1
4902549	39	C	09/05/2021	10:58	-131.885	47.194	0	199.20	0	6.7580	0	33.7520	0	26.471	0	197.448	0	170.4	4	57.2	4	-1E+10	1	-1E+10	1	-1E+10	1	-1E+10	1	-1E+10	1	-1E+10	1
4902549	39	C	09/05/2021	10:58	-131.885	47.194	0	200.20	0	6.7410	0	33.7510	0	26.472	0	198.439	0	170.1	4	57.1	4	-1E+10	1	-1E+10	1	-1E+10	1	-1E+10	1	-1E+10	1	-1E+10	1
4902549	39	C	09/05/2021	10:58	-131.885	47.194	0	201.20	0	6.7330	0	33.7500	0	26.473	0	199.429	0	169.6	4	56.9	4	-1E+10	1	-1E+10	1	-1E+10	1	-1E+10	1	-1E+10	1	-1E+10	1
4902549	39	C	09/05/2021	10:58	-131.885	47.194	0	202.20	0	6.6950	0	33.7550	0	26.482	0	200.420	0	169.3	4	56.8	4	-1E+10	1	-1E+10	1	-1E+10	1	-1E+10	1	-1E+10	1	-1E+10	1
4902549	39	C	09/05/2021	10:58	-131.885	47.194	0	203.20	0	6.6900	0	33.7550	0	26.482	0	201.411	0	169.0	4	56.6	4	-1E+10	1	-1E+10	1	-1E+10	1	-1E+10	1	-1E+10	1	-1E+10	1
4902549	39	C	09/05/2021	10:58	-131.885	47.194	0	204.20	0	6.6860	0	33.7550	0	26.483	0	202.401	0	168.4	4	56.5	4	-1E+10	1	-1E+10	1	-1E+10	1	-1E+10	1	-1E+10	1	-1E+10	1
4902549	39	C	09/05/2021	10:58	-131.885	47.194	0	205.20	0	6.6760	0	33.7560	0	26.485	0	203.392	0	168.0	4	56.3	4	-1E+10	1	-1E+10	1	-1E+10	1	-1E+10	1	-1E+10	1	-1E+10	1
4902549	39	C	09/05/2021	10:58	-131.885	47.194	0	206.20	0	6.6740	0	33.7550	0	26.485	0	204.383	0	167.5	4	56.1	4	-1E+10	1	-1E+10	1	-1E+10	1	-1E+10	1	-1E+10	1	-1E+10	1
4902549	39	C	09/05/2021	10:58	-131.885	47.194	0	207.20	0	6.6600	0	33.7560	0	26.487	0	205.373	0	166.9	4	55.9	4	-1E+10	1	-1E+10	1	-1E+10	1	-1E+10	1	-1E+10	1	-1E+10	1
4902549	39	C	09/05/2021	10:58	-131.885	47.194	0	208.20	0	6.6480	0	33.7590	0	26.491	0	206.364	0	166.3	4	55.7	4	-1E+10	1	-1E+10	1	-1E+10	1	-1E+10	1	-1E+10	1	-1E+10	1
4902549	39	C	09/05/2021	10:58	-131.885	47.194	0	209.10	0	6.6250	0	33.7580	0	26.493	0	207.256	0	165.8	4	55.5	4	-1E+10	1	-1E+10	1	-1E+10	1	-1E+10	1	-1E+10	1	-1E+10	1
4902549	39	C	09/05/2021	10:58	-131.885	47.194	0	210.10	0	6.6100	0	33.7600	0	26.497	0	208.246	0	165.3	4	55.3	4	-1E+10	1	-1E+10	1	-1E+10	1	-1E+10	1	-1E+10	1	-1E+10	1
4902549	39	C	09/05/2021	10:58	-131.885	47.194	0	211.10	0	6.6030	0	33.7590	0	26.497	0	209.237	0	164.7	4	55.1	4	-1E+10	1	-1E+10	1	-1E+10	1	-1E+10	1	-1E+10	1	-1E+10	1
4902549	39	C	09/05/2021	10:58	-131.885	47.194	0	212.10	0	6.5830	0	33.7620	0	26.502	0	210.228	0	164.1	4	54.9	4	-1E+10	1	-1E+10	1	-1E+10	1	-1E+10	1	-1E+10	1	-1E+10	1
4902549	39	C	09/05/2021	10:58	-131.885	47.194	0	213.10	0	6.5630	0	33.7610	0	26.504	0	211.218	0	163.6	4	54.7	4	-1E+10	1	-1E+10	1	-1E+10	1	-1E+10	1	-1E+10	1	-1E+10	1
4902549	39	C	09/05/2021	10:58	-131.885	47.194	0	214.00	0	6.5430	0	33.7620	0	26.507	0	212.110	0	163.0	4	54.5	4	-1E+10	1	-1E+10	1	-1E+10	1	-1E+10	1	-1E+10	1	-1E+10	1
4902549	39	C	09/05/2021	10:58	-131.885	47.194	0	215.00	0	6.5260	0	33.7630	0	26.510	0	213.101	0	162.4	4	54.3	4	-1E+10	1	-1E+10	1	-1E+10	1	-1E+10	1	-1E+10	1	-1E+10	1
4902549	39	C	09/05/2021	10:58	-131.885	47.194	0	216.00	0	6.5050	0	33.7680	0	26.517	0	214.091	0	161.9	4	54.1	4	-1E+10	1	-1E+10	1	-1E+10	1	-1E+10	1	-1E+10	1	-1E+10	1
4902549	39	C	09/05/2021	10:58	-131.885	47.194	0	217.00	0	6.4910	0	33.7650	0	26.517	0	215.082	0	161.4	4	53.9	4	-1E+10	1	-1E+10	1	-1E+10	1	-1E+10	1	-1E+10	1	-1E+10	1
4902549	39	C	09/05/2021	10:58	-131.885	47.194	0	217.90	0	6.4840	0	33.7650	0	26.518	0	215.974	0	160.7	4	53.6	4	-1E+10	1	-1E+10	1	-1E+10	1	-1E+10	1	-1E+10	1	-1E+10	1
4902549	39	C	09/05/2021	10:58	-131.885	47.194	0	218.90	0	6.4840	0	33.7640	0	26.517	0	216.964	0	159.8	4	53.3	4	-1E+10	1	-1E+10	1	-1E+10	1	-1E+10	1	-1E+10	1	-1E+10	1
4902549	39	C	09/05/2021	10:58	-131.885	47.194	0	219.80	0	6.4820	0	33.7640	0	26.517	0	217.856	0	159.0	4	53.0	4	-1E+10	1	-1E+10	1	-1E+10	1	-1E+10	1	-1E+10	1	-1E+10	1
4902549	39	C	09/05/2021	10:58	-131.885	47.194	0	220.80	0	6.4730	0	33.7620	0	26.517	0	218.846	0	158.0	4	52.7	4	-1E+10	1	-1E+10	1	-1E+10	1	-1E+10	1	-1E+10	1	-1E+10	1
4902549	39	C	09/05/2021	10:58	-131.885	47.194	0	221.80	0	6.4280	0	33.7690	0	26.528	0	219.837	0	157.1	4	52.3	4	-1E+10	1	-1E+10	1	-1E+10	1	-1E+10	1	-1E+10	1	-1E+10	1
4902549	39	C	09/05/2021	10:58	-131.885	47.194	0	222.70	0	6.3960	0	33.7680	0	26.531	0	220.729	0	156.3	4	52.1	4	-1E+10	1	-1E+10	1	-1E+10	1	-1E+10	1	-1E+10	1	-1E+10	1
4902549	39	C	09/05/2021	10:58	-131.885	47.194	0	223.70	0	6.3880	0	33.7670	0	26.532	0	221.719	0	155.4	4	51.7	4	-1E+10	1	-1E+10	1	-1E+10	1	-1E+10	1	-1E+10	1	-1E+10	1
4902549	39	C	09/05/2021	10:58	-131.885	47.194	0	224.70	0	6.3320	0	33.7720	0	26.543	0	222.710	0	154.8	4	51.5	4	-1E+10	1	-1E+10	1	-1E+10	1	-1E+10	1	-1E+10	1	-1E+10	1
4902549	39	C	09/05/2021	10:58	-131.885	47.194	0	225.60	0	6.3030	0	33.7730	0	26.547	0	223.601	0	154.2	4	51.2	4	-1E+10	1	-1E+10	1	-1E+10	1	-1E+10	1	-1E+10	1	-1E+10	1
4902549	39	C	09/05/2021	10:58	-131.885	47.194	0	226.60	0	6.2990	0	33.7720	0	26.547	0	224.592	0	153.6	4	51.0	4	-1E+10	1	-1E+10	1	-1E+10	1	-1E+10	1	-1E+10	1	-1E+10	1
4902549	39	C	09/05/2021	10:58	-131.885	47.194	0	227.60	0	6.2980	0	33.7710	0	26.546	0	225.582	0	152.9	4	50.8	4	-1E+10	1	-1E+10	1	-1E+10	1	-1E+10	1	-1E+10	1	-1E+10	1
4902549	39	C	09/05/2021	10:58	-131.885	47.194	0	228.60	0	6.2820	0	33.7720	0	26.549	0	226.573	0	152.1	4	50.5	4	-1E+10	1	-1E+10	1	-1E+10	1	-1E+10	1	-1E+10	1	-1E+10	1
4902549	39	C	09/05/2021	10:58	-131.885	47.194	0	229.60	0	6.2480	0	33.7730	0	26.554	0	227.564	0	151.6	4	50.3	4	-1E+10	1	-1E+10	1	-1E+10	1	-1E+10	1	-1E+10	1	-1E+10	1
4902549	39	C	09/05/2021	10:58	-131.885	47.194	0	230.60	0	6.2280	0	33.7760	0	26.559	0	228.554	0	150.9	4	50.1	4	-1E+10	1	-1E+10	1	-1E+10	1	-1E+10	1	-1E+10	1	-1E+10	1
4902549	39	C	09/05/2021	10:58	-131.885	47.194	0	232.00	0	6.1970	0	33.7750	0	26.563	0	229.941	0	150.3	4	49.8	4	-1E+10	1	-1E+10	1	-1E+10	1	-1E+10	1	-1E+10	1	-1E+10	1
4902549	39	C	09/05/2021	10:58	-131.885	47.194	0	233.90	0	6.1940	0	33.7750	0	26.563	0	231.823	0	148.9	4	49.4	4	-1E+10	1	-1E+10	1	-1E+10	1	-1E+10	1	-1E+10	1	-1E+10	1
4902549	39	C	09/05/2021	10:58	-131.885	47.194	0	235.00	0	6.1700	0	33.7780	0	26.568	0	232.913	0	148.0	4	49.1	4	-1E+10	1	-1E+10	1	-1E+10	1	-1E+10	1	-1E+10	1	-1E+10	1
4902549	39	C	09/05/2021	10:58	-131.885	47.194	0	235.80	0	6.1690	0	33.7770	0	26.568	0	233.705	0	147.4	4	48.8	4	-1E+10	1	-1E+10	1	-1E+10	1	-1E+10	1	-1E+10	1	-1E+10	1
4902549	39	C	09/05/2021	10:58	-131.885	47.194	0	237.00	0	6.1530	0	33.7760	0	26.569	0	234.894	0	146.3	4	48.5	4	-1E+10	1	-1E+10	1	-1E+10	1	-1E+10	1	-1E+10	1	-1E+10	1
4902549	39	C	09/05/2021	10:58	-131.885	47.194	0	238.20	0	6.1230	0	33.7800	0	26.576	0	236.082	0	145.5	4	48.2	4	-1E+10	1	-1E+10	1	-1E+10	1	-1E+10	1	-1E+10	1	-1E+10	1
4902549	39	C	09/05/2021	10:58	-131.885	47.194	0	239.00	0	6.0980	0	33.7820	0	26.581	0	236.875	0	145.0	4	48.0	4	-1E+10	1	-1E+10	1	-1E+10	1	-1E+10	1	-1E+10	1	-1E+10	1
4902549	39	C	09/05/2021	10:58	-131.885	47.194	0	239.70	0	6.0860	0	33.7820	0	26.582	0	237.568	0	144.5	4	47.8	4	-1E+10	1	-1E+10	1	-1E+10	1	-1E+10	1	-1E+10	1	-1E+10	1
4902549	39	C	09/05/2021	10:58	-131.885	47.194	0	241.00	0	6.0700	0	33.7830	0	26.585	0	238.856	0	143.7	4	47.5	4	-1E+10	1	-1E+10	1	-1E+10	1	-1E+10	1	-1E+10	1	-1E+10	1
4902549	39	C	09/05/2021	10:58	-131.885	47.194	0	242.20	0	6.0420	0	33.7840	0	26.589	0	240.045	0	143.0	4	47.2	4	-1E+10	1	-1E+10	1	-1E+10	1	-1E+10	1	-1E+10	1	-1E+10	1
4902549	39	C	09/05/2021	10:58	-131.885	47.194	0	243.00	0	6.0360	0	33.7850	0	26.591	0	240.837	0	142.4	4	47.0	4	-1E+10	1	-1E+10	1	-1E+10	1	-1E+10	1	-1E+10	1	-1E+10	1
4902549	39	C	09/05/2021	10:58	-131.885	47.194	0	243.90	0	6.0200	0	33.7850	0	26.593	0	241.728	0	142.0	4	46.9	4	-1E+10	1	-1E+10	1	-1E+10	1	-1E+10	1	-1E+10	1	-1E+10	1
4902549	39	C	09/05/2021	10:58	-131.885	47.194	0	244.70	0	5.9950	0	33.7880	0	26.598	0	242.521	0	141.6	4	46.7	4	-1E+10	1	-1E+10	1	-1E+10	1	-1E+10	1	-1E+10	1	-1E+10	1
4902549	39	C	09/05/2021	10:58	-131.885	47.194	0	246.00	0	5.9820	0	33.7880	0	26.600	0	243.809	0	141.1	4	46.5	4	-1E+10	1	-1E+10	1	-1E+10	1	-1E+10	1	-1E+10	1	-1E+10	1
4902549	39	C	09/05/2021	10:58	-131.885	47.194	0	247.30	0	5.9760	0	33.7880	0	26.601	0	245.096	0	140.5	4	46.3	4	-1E+10	1	-1E+10	1	-1E+10	1	-1E+10	1	-1E+10	1	-1E+10	1
4902549	39	C	09/05/2021	10:58	-131.885	47.194	0	248.10	0	5.9730	0	33.7890	0	26.602	0	245.889	0	140.1	4	46.2	4	-1E+10	1	-1E+10	1	-1E+10	1	-1E+10	1	-1E+10	1	-1E+10	1
4902549	39	C	09/05/2021	10:58	-131.885	47.194	0	249.00	0	5.9650	0	33.7890	0	26.603	0	246.780	0	139.7	4	46.1	4	-1E+10	1	-1E+10	1	-1E+10	1	-1E+10	1	-1E+10	1	-1E+10	1
4902549	39	C	09/05/2021	10:58	-131.885	47.194	0	249.90	0	5.9630	0	33.7890	0	26.603	0	247.671	0	139.3	4	45.9	4	-1E+10	1	-1E+10	1	-1E+10	1	-1E+10	1	-1E+10	1	-1E+10	1
4902549	39	C	09/05/2021	10:58	-131.885	47.194	0	250.70	0	5.9600	0	33.7900	0	26.604	0	248.464	0	138.7	4	45.8	4	-1E+10	1	-1E+10	1	-1E+10	1	-1E+10	1	-1E+10	1	-1E+10	1
4902549	39	C	09/05/2021	10:58	-131.885	47.194	0	251.60	0	5.9570	0	33.7890	0	26.604	0	249.355	0	138.2	4	45.6	4	-1E+10	1	-1E+10	1	-1E+10	1	-1E+10	1	-1E+10	1	-1E+10	1
4902549	39	C	09/05/2021	10:58	-131.885	47.194	0	252.90	0	5.9340	0	33.7920	0	26.609	0	250.643	0	137.5	4	45.3	4	-1E+10	1	-1E+10	1	-1E+10	1	-1E+10	1	-1E+10	1	-1E+10	1
4902549	39	C	09/05/2021	10:58	-131.885	47.194	0	254.30	0	5.9110	0	33.7940	0	26.614	0	252.030	0	137.0	4	45.1	4	-1E+10	1	-1E+10	1	-1E+10	1	-1E+10	1	-1E+10	1	-1E+10	1
4902549	39	C	09/05/2021	10:58	-131.885	47.194	0	255.10	0	5.9020	0	33.7950	0	26.616	0	252.822	0	136.5	4	45.0	4	-1E+10	1	-1E+10	1	-1E+10	1	-1E+10	1	-1E+10	1	-1E+10	1
4902549	39	C	09/05/2021	10:58	-131.885	47.194	0	256.00	0	5.8970	0	33.7950	0	26.616	0	253.713	0	136.2	4	44.9	4	-1E+10	1	-1E+10	1	-1E+10	1	-1E+10	1	-1E+10	1	-1E+10	1
4902549	39	C	09/05/2021	10:58	-131.885	47.194	0	256.90	0	5.8970	0	33.7950	0	26.616	0	254.605	0	135.7	4	44.7	4	-1E+10	1	-1E+10	1	-1E+10	1	-1E+10	1	-1E+10	1	-1E+10	1
4902549	39	C	09/05/2021	10:58	-131.885	47.194	0	257.80	0	5.8970	0	33.7940	0	26.615	0	255.496	0	135.2	4	44.5	4	-1E+10	1	-1E+10	1	-1E+10	1	-1E+10	1	-1E+10	1	-1E+10	1
4902549	39	C	09/05/2021	10:58	-131.885	47.194	0	258.70	0	5.8860	0	33.7950	0	26.618	0	256.388	0	134.8	4	44.4	4	-1E+10	1	-1E+10	1	-1E+10	1	-1E+10	1	-1E+10	1	-1E+10	1
4902549	39	C	09/05/2021	10:58	-131.885	47.194	0	259.60	0	5.8720	0	33.7970	0	26.621	0	257.279	0	134.3	4	44.2	4	-1E+10	1	-1E+10	1	-1E+10	1	-1E+10	1	-1E+10	1	-1E+10	1
4902549	39	C	09/05/2021	10:58	-131.885	47.194	0	260.90	0	5.8530	0	33.7980	0	26.624	0	258.566	0	133.8	4	44.0	4	-1E+10	1	-1E+10	1	-1E+10	1	-1E+10	1	-1E+10	1	-1E+10	1
4902549	39	C	09/05/2021	10:58	-131.885	47.194	0	262.30	0	5.8410	0	33.7990	0	26.626	0	259.953	0	133.2	4	43.8	4	-1E+10	1	-1E+10	1	-1E+10	1	-1E+10	1	-1E+10	1	-1E+10	1
4902549	39	C	09/05/2021	10:58	-131.885	47.194	0	263.20	0	5.8350	0	33.7990	0	26.627	0	260.844	0	132.9	4	43.7	4	-1E+10	1	-1E+10	1	-1E+10	1	-1E+10	1	-1E+10	1	-1E+10	1
4902549	39	C	09/05/2021	10:58	-131.885	47.194	0	264.10	0	5.8330	0	33.7990	0	26.627	0	261.736	0	132.5	4	43.6	4	-1E+10	1	-1E+10	1	-1E+10	1	-1E+10	1	-1E+10	1	-1E+10	1
4902549	39	C	09/05/2021	10:58	-131.885	47.194	0	265.00	0	5.8310	0	33.7990	0	26.628	0	262.627	0	132.0	4	43.4	4	-1E+10	1	-1E+10	1	-1E+10	1	-1E+10	1	-1E+10	1	-1E+10	1
4902549	39	C	09/05/2021	10:58	-131.885	47.194	0	265.80	0	5.8260	0	33.7990	0	26.628	0	263.420	0	131.5	4	43.2	4	-1E+10	1	-1E+10	1	-1E+10	1	-1E+10	1	-1E+10	1	-1E+10	1
4902549	39	C	09/05/2021	10:58	-131.885	47.194	0	266.70	0	5.8140	0	33.8000	0	26.630	0	264.311	0	131.1	4	43.1	4	-1E+10	1	-1E+10	1	-1E+10	1	-1E+10	1	-1E+10	1	-1E+10	1
4902549	39	C	09/05/2021	10:58	-131.885	47.194	0	267.60	0	5.7960	0	33.8010	0	26.633	0	265.202	0	130.6	4	42.9	4	-1E+10	1	-1E+10	1	-1E+10	1	-1E+10	1	-1E+10	1	-1E+10	1
4902549	39	C	09/05/2021	10:58	-131.885	47.194	0	268.90	0	5.7860	0	33.8020	0	26.635	0	266.490	0	129.9	4	42.7	4	-1E+10	1	-1E+10	1	-1E+10	1	-1E+10	1	-1E+10	1	-1E+10	1
4902549	39	C	09/05/2021	10:58	-131.885	47.194	0	270.30	0	5.7560	0	33.8020	0	26.639	0	267.876	0	129.3	4	42.5	4	-1E+10	1	-1E+10	1	-1E+10	1	-1E+10	1	-1E+10	1	-1E+10	1
4902549	39	C	09/05/2021	10:58	-131.885	47.194	0	271.20	0	5.7480	0	33.8020	0	26.640	0	268.768	0	128.9	4	42.3	4	-1E+10	1	-1E+10	1	-1E+10	1	-1E+10	1	-1E+10	1	-1E+10	1
4902549	39	C	09/05/2021	10:58	-131.885	47.194	0	272.10	0	5.7460	0	33.8010	0	26.640	0	269.659	0	128.4	4	42.1	4	-1E+10	1	-1E+10	1	-1E+10	1	-1E+10	1	-1E+10	1	-1E+10	1
4902549	39	C	09/05/2021	10:58	-131.885	47.194	0	273.00	0	5.7460	0	33.8010	0	26.640	0	270.550	0	127.8	4	41.9	4	-1E+10	1	-1E+10	1	-1E+10	1	-1E+10	1	-1E+10	1	-1E+10	1
4902549	39	C	09/05/2021	10:58	-131.885	47.194	0	273.90	0	5.7330	0	33.8010	0	26.641	0	271.442	0	127.2	4	41.7	4	-1E+10	1	-1E+10	1	-1E+10	1	-1E+10	1	-1E+10	1	-1E+10	1
4902549	39	C	09/05/2021	10:58	-131.885	47.194	0	274.80	0	5.7220	0	33.8010	0	26.643	0	272.333	0	126.6	4	41.5	4	-1E+10	1	-1E+10	1	-1E+10	1	-1E+10	1	-1E+10	1	-1E+10	1
4902549	39	C	09/05/2021	10:58	-131.885	47.194	0	275.70	0	5.6900	0	33.8060	0	26.650	0	273.224	0	126.1	4	41.3	4	-1E+10	1	-1E+10	1	-1E+10	1	-1E+10	1	-1E+10	1	-1E+10	1
4902549	39	C	09/05/2021	10:58	-131.885	47.194	0	276.60	0	5.6730	0	33.8040	0	26.651	0	274.116	0	125.7	4	41.2	4	-1E+10	1	-1E+10	1	-1E+10	1	-1E+10	1	-1E+10	1	-1E+10	1
4902549	39	C	09/05/2021	10:58	-131.885	47.194	0	277.90	0	5.6620	0	33.8050	0	26.653	0	275.403	0	125.0	4	41.0	4	-1E+10	1	-1E+10	1	-1E+10	1	-1E+10	1	-1E+10	1	-1E+10	1
4902549	39	C	09/05/2021	10:58	-131.885	47.194	0	279.20	0	5.6520	0	33.8060	0	26.655	0	276.691	0	124.4	4	40.7	4	-1E+10	1	-1E+10	1	-1E+10	1	-1E+10	1	-1E+10	1	-1E+10	1
4902549	39	C	09/05/2021	10:58	-131.885	47.194	0	280.10	0	5.6470	0	33.8050	0	26.655	0	277.582	0	123.8	4	40.5	4	-1E+10	1	-1E+10	1	-1E+10	1	-1E+10	1	-1E+10	1	-1E+10	1
4902549	39	C	09/05/2021	10:58	-131.885	47.194	0	281.00	0	5.6400	0	33.8050	0	26.656	0	278.473	0	123.3	4	40.4	4	-1E+10	1	-1E+10	1	-1E+10	1	-1E+10	1	-1E+10	1	-1E+10	1
4902549	39	C	09/05/2021	10:58	-131.885	47.194	0	281.80	0	5.6350	0	33.8050	0	26.656	0	279.265	0	122.8	4	40.2	4	-1E+10	1	-1E+10	1	-1E+10	1	-1E+10	1	-1E+10	1	-1E+10	1
4902549	39	C	09/05/2021	10:58	-131.885	47.194	0	282.70	0	5.6260	0	33.8060	0	26.658	0	280.157	0	122.2	4	40.0	4	-1E+10	1	-1E+10	1	-1E+10	1	-1E+10	1	-1E+10	1	-1E+10	1
4902549	39	C	09/05/2021	10:58	-131.885	47.194	0	283.60	0	5.6200	0	33.8040	0	26.657	0	281.048	0	121.5	4	39.8	4	-1E+10	1	-1E+10	1	-1E+10	1	-1E+10	1	-1E+10	1	-1E+10	1
4902549	39	C	09/05/2021	10:58	-131.885	47.194	0	284.90	0	5.5910	0	33.8060	0	26.662	0	282.335	0	120.5	4	39.4	4	-1E+10	1	-1E+10	1	-1E+10	1	-1E+10	1	-1E+10	1	-1E+10	1
4902549	39	C	09/05/2021	10:58	-131.885	47.194	0	286.20	0	5.5670	0	33.8060	0	26.665	0	283.623	0	119.6	4	39.1	4	-1E+10	1	-1E+10	1	-1E+10	1	-1E+10	1	-1E+10	1	-1E+10	1
4902549	39	C	09/05/2021	10:58	-131.885	47.194	0	287.10	0	5.5620	0	33.8070	0	26.667	0	284.514	0	118.9	4	38.8	4	-1E+10	1	-1E+10	1	-1E+10	1	-1E+10	1	-1E+10	1	-1E+10	1
4902549	39	C	09/05/2021	10:58	-131.885	47.194	0	288.00	0	5.5420	0	33.8080	0	26.670	0	285.405	0	118.1	4	38.6	4	-1E+10	1	-1E+10	1	-1E+10	1	-1E+10	1	-1E+10	1	-1E+10	1
4902549	39	C	09/05/2021	10:58	-131.885	47.194	0	288.90	0	5.5220	0	33.8090	0	26.673	0	286.297	0	117.5	4	38.3	4	-1E+10	1	-1E+10	1	-1E+10	1	-1E+10	1	-1E+10	1	-1E+10	1
4902549	39	C	09/05/2021	10:58	-131.885	47.194	0	289.80	0	5.5030	0	33.8100	0	26.676	0	287.188	0	116.8	4	38.1	4	-1E+10	1	-1E+10	1	-1E+10	1	-1E+10	1	-1E+10	1	-1E+10	1
4902549	39	C	09/05/2021	10:58	-131.885	47.194	0	290.80	0	5.4840	0	33.8110	0	26.679	0	288.178	0	116.2	4	37.9	4	-1E+10	1	-1E+10	1	-1E+10	1	-1E+10	1	-1E+10	1	-1E+10	1
4902549	39	C	09/05/2021	10:58	-131.885	47.194	0	291.70	0	5.4660	0	33.8130	0	26.683	0	289.070	0	115.8	4	37.8	4	-1E+10	1	-1E+10	1	-1E+10	1	-1E+10	1	-1E+10	1	-1E+10	1
4902549	39	C	09/05/2021	10:58	-131.885	47.194	0	292.50	0	5.4530	0	33.8140	0	26.685	0	289.862	0	115.3	4	37.6	4	-1E+10	1	-1E+10	1	-1E+10	1	-1E+10	1	-1E+10	1	-1E+10	1
4902549	39	C	09/05/2021	10:58	-131.885	47.194	0	293.90	0	5.4450	0	33.8130	0	26.685	0	291.248	0	114.5	4	37.3	4	-1E+10	1	-1E+10	1	-1E+10	1	-1E+10	1	-1E+10	1	-1E+10	1
4902549	39	C	09/05/2021	10:58	-131.885	47.194	0	295.30	0	5.4250	0	33.8150	0	26.689	0	292.635	0	113.7	4	37.0	4	-1E+10	1	-1E+10	1	-1E+10	1	-1E+10	1	-1E+10	1	-1E+10	1
4902549	39	C	09/05/2021	10:58	-131.885	47.194	0	296.20	0	5.4150	0	33.8150	0	26.691	0	293.526	0	113.2	4	36.9	4	-1E+10	1	-1E+10	1	-1E+10	1	-1E+10	1	-1E+10	1	-1E+10	1
4902549	39	C	09/05/2021	10:58	-131.885	47.194	0	297.10	0	5.4080	0	33.8150	0	26.691	0	294.417	0	112.7	4	36.7	4	-1E+10	1	-1E+10	1	-1E+10	1	-1E+10	1	-1E+10	1	-1E+10	1
4902549	39	C	09/05/2021	10:58	-131.885	47.194	0	298.10	0	5.3630	0	33.8200	0	26.701	0	295.407	0	112.4	4	36.5	4	-1E+10	1	-1E+10	1	-1E+10	1	-1E+10	1	-1E+10	1	-1E+10	1
4902549	39	C	09/05/2021	10:58	-131.885	47.194	0	299.00	0	5.3520	0	33.8210	0	26.703	0	296.298	0	112.1	4	36.5	4	-1E+10	1	-1E+10	1	-1E+10	1	-1E+10	1	-1E+10	1	-1E+10	1
4902549	39	C	09/05/2021	10:58	-131.885	47.194	0	299.90	0	5.3370	0	33.8220	0	26.705	0	297.190	0	111.9	4	36.4	4	-1E+10	1	-1E+10	1	-1E+10	1	-1E+10	1	-1E+10	1	-1E+10	1
4902549	39	C	09/05/2021	10:58	-131.885	47.194	0	300.90	0	5.3350	0	33.8230	0	26.706	0	298.180	0	111.6	4	36.3	4	-1E+10	1	-1E+10	1	-1E+10	1	-1E+10	1	-1E+10	1	-1E+10	1
4902549	39	C	09/05/2021	10:58	-131.885	47.194	0	301.80	0	5.3310	0	33.8210	0	26.705	0	299.071	0	111.4	4	36.2	4	-1E+10	1	-1E+10	1	-1E+10	1	-1E+10	1	-1E+10	1	-1E+10	1
4902549	39	C	09/05/2021	10:58	-131.885	47.194	0	302.70	0	5.3250	0	33.8200	0	26.705	0	299.962	0	111.2	4	36.1	4	-1E+10	1	-1E+10	1	-1E+10	1	-1E+10	1	-1E+10	1	-1E+10	1
4902549	39	C	09/05/2021	10:58	-131.885	47.194	0	303.70	0	5.3240	0	33.8210	0	26.706	0	300.953	0	111.0	4	36.1	4	-1E+10	1	-1E+10	1	-1E+10	1	-1E+10	1	-1E+10	1	-1E+10	1
4902549	39	C	09/05/2021	10:58	-131.885	47.194	0	304.50	0	5.3250	0	33.8220	0	26.707	0	301.745	0	110.6	4	35.9	4	-1E+10	1	-1E+10	1	-1E+10	1	-1E+10	1	-1E+10	1	-1E+10	1
4902549	39	C	09/05/2021	10:58	-131.885	47.194	0	305.90	0	5.3170	0	33.8230	0	26.708	0	303.131	0	110.1	4	35.8	4	-1E+10	1	-1E+10	1	-1E+10	1	-1E+10	1	-1E+10	1	-1E+10	1
4902549	39	C	09/05/2021	10:58	-131.885	47.194	0	307.30	0	5.3130	0	33.8230	0	26.709	0	304.517	0	109.5	4	35.6	4	-1E+10	1	-1E+10	1	-1E+10	1	-1E+10	1	-1E+10	1	-1E+10	1
4902549	39	C	09/05/2021	10:58	-131.885	47.194	0	308.10	0	5.3090	0	33.8260	0	26.712	0	305.310	0	109.1	4	35.4	4	-1E+10	1	-1E+10	1	-1E+10	1	-1E+10	1	-1E+10	1	-1E+10	1
4902549	39	C	09/05/2021	10:58	-131.885	47.194	0	309.00	0	5.2960	0	33.8240	0	26.712	0	306.201	0	108.8	4	35.3	4	-1E+10	1	-1E+10	1	-1E+10	1	-1E+10	1	-1E+10	1	-1E+10	1
4902549	39	C	09/05/2021	10:58	-131.885	47.194	0	309.90	0	5.3000	0	33.8230	0	26.711	0	307.092	0	108.4	4	35.2	4	-1E+10	1	-1E+10	1	-1E+10	1	-1E+10	1	-1E+10	1	-1E+10	1
4902549	39	C	09/05/2021	10:58	-131.885	47.194	0	310.80	0	5.2910	0	33.8240	0	26.712	0	307.983	0	107.9	4	35.0	4	-1E+10	1	-1E+10	1	-1E+10	1	-1E+10	1	-1E+10	1	-1E+10	1
4902549	39	C	09/05/2021	10:58	-131.885	47.194	0	311.70	0	5.2780	0	33.8240	0	26.714	0	308.874	0	107.6	4	34.9	4	-1E+10	1	-1E+10	1	-1E+10	1	-1E+10	1	-1E+10	1	-1E+10	1
4902549	39	C	09/05/2021	10:58	-131.885	47.194	0	312.90	0	5.2630	0	33.8250	0	26.716	0	310.062	0	107.1	4	34.8	4	-1E+10	1	-1E+10	1	-1E+10	1	-1E+10	1	-1E+10	1	-1E+10	1
4902549	39	C	09/05/2021	10:58	-131.885	47.194	0	314.30	0	5.2520	0	33.8280	0	26.720	0	311.449	0	106.5	4	34.6	4	-1E+10	1	-1E+10	1	-1E+10	1	-1E+10	1	-1E+10	1	-1E+10	1
4902549	39	C	09/05/2021	10:58	-131.885	47.194	0	315.10	0	5.2490	0	33.8270	0	26.720	0	312.241	0	106.1	4	34.4	4	-1E+10	1	-1E+10	1	-1E+10	1	-1E+10	1	-1E+10	1	-1E+10	1
4902549	39	C	09/05/2021	10:58	-131.885	47.194	0	316.00	0	5.2450	0	33.8270	0	26.720	0	313.132	0	105.6	4	34.3	4	-1E+10	1	-1E+10	1	-1E+10	1	-1E+10	1	-1E+10	1	-1E+10	1
4902549	39	C	09/05/2021	10:58	-131.885	47.194	0	316.80	0	5.2430	0	33.8270	0	26.720	0	313.924	0	105.1	4	34.1	4	-1E+10	1	-1E+10	1	-1E+10	1	-1E+10	1	-1E+10	1	-1E+10	1
4902549	39	C	09/05/2021	10:58	-131.885	47.194	0	317.70	0	5.2310	0	33.8280	0	26.723	0	314.815	0	104.6	4	33.9	4	-1E+10	1	-1E+10	1	-1E+10	1	-1E+10	1	-1E+10	1	-1E+10	1
4902549	39	C	09/05/2021	10:58	-131.885	47.194	0	319.00	0	5.2120	0	33.8300	0	26.726	0	316.103	0	104.0	4	33.7	4	-1E+10	1	-1E+10	1	-1E+10	1	-1E+10	1	-1E+10	1	-1E+10	1
4902549	39	C	09/05/2021	10:58	-131.885	47.194	0	320.30	0	5.1940	0	33.8320	0	26.730	0	317.390	0	103.5	4	33.5	4	-1E+10	1	-1E+10	1	-1E+10	1	-1E+10	1	-1E+10	1	-1E+10	1
4902549	39	C	09/05/2021	10:58	-131.885	47.194	0	321.10	0	5.1810	0	33.8330	0	26.732	0	318.182	0	103.2	4	33.4	4	-1E+10	1	-1E+10	1	-1E+10	1	-1E+10	1	-1E+10	1	-1E+10	1
4902549	39	C	09/05/2021	10:58	-131.885	47.194	0	322.00	0	5.1700	0	33.8360	0	26.736	0	319.073	0	103.0	4	33.4	4	-1E+10	1	-1E+10	1	-1E+10	1	-1E+10	1	-1E+10	1	-1E+10	1
4902549	39	C	09/05/2021	10:58	-131.885	47.194	0	322.80	0	5.1670	0	33.8360	0	26.736	0	319.865	0	102.7	4	33.3	4	-1E+10	1	-1E+10	1	-1E+10	1	-1E+10	1	-1E+10	1	-1E+10	1
4902549	39	C	09/05/2021	10:58	-131.885	47.194	0	323.70	0	5.1650	0	33.8360	0	26.737	0	320.756	0	102.5	4	33.2	4	-1E+10	1	-1E+10	1	-1E+10	1	-1E+10	1	-1E+10	1	-1E+10	1
4902549	39	C	09/05/2021	10:58	-131.885	47.194	0	324.90	0	5.1650	0	33.8360	0	26.737	0	321.944	0	102.1	4	33.1	4	-1E+10	1	-1E+10	1	-1E+10	1	-1E+10	1	-1E+10	1	-1E+10	1
4902549	39	C	09/05/2021	10:58	-131.885	47.194	0	326.30	0	5.1640	0	33.8360	0	26.737	0	323.331	0	101.5	4	32.9	4	-1E+10	1	-1E+10	1	-1E+10	1	-1E+10	1	-1E+10	1	-1E+10	1
4902549	39	C	09/05/2021	10:58	-131.885	47.194	0	327.20	0	5.1620	0	33.8360	0	26.737	0	324.222	0	101.1	4	32.7	4	-1E+10	1	-1E+10	1	-1E+10	1	-1E+10	1	-1E+10	1	-1E+10	1
4902549	39	C	09/05/2021	10:58	-131.885	47.194	0	328.10	0	5.1570	0	33.8370	0	26.738	0	325.113	0	100.7	4	32.6	4	-1E+10	1	-1E+10	1	-1E+10	1	-1E+10	1	-1E+10	1	-1E+10	1
4902549	39	C	09/05/2021	10:58	-131.885	47.194	0	329.00	0	5.1520	0	33.8390	0	26.741	0	326.004	0	100.2	4	32.4	4	-1E+10	1	-1E+10	1	-1E+10	1	-1E+10	1	-1E+10	1	-1E+10	1
4902549	39	C	09/05/2021	10:58	-131.885	47.194	0	329.90	0	5.1480	0	33.8390	0	26.741	0	326.895	0	99.8	4	32.3	4	-1E+10	1	-1E+10	1	-1E+10	1	-1E+10	1	-1E+10	1	-1E+10	1
4902549	39	C	09/05/2021	10:58	-131.885	47.194	0	330.80	0	5.1410	0	33.8400	0	26.743	0	327.786	0	99.3	4	32.1	4	-1E+10	1	-1E+10	1	-1E+10	1	-1E+10	1	-1E+10	1	-1E+10	1
4902549	39	C	09/05/2021	10:58	-131.885	47.194	0	331.70	0	5.1410	0	33.8420	0	26.744	0	328.677	0	98.8	4	32.0	4	-1E+10	1	-1E+10	1	-1E+10	1	-1E+10	1	-1E+10	1	-1E+10	1
4902549	39	C	09/05/2021	10:58	-131.885	47.194	0	332.60	0	5.1400	0	33.8440	0	26.746	0	329.568	0	98.3	4	31.8	4	-1E+10	1	-1E+10	1	-1E+10	1	-1E+10	1	-1E+10	1	-1E+10	1
4902549	39	C	09/05/2021	10:58	-131.885	47.194	0	333.90	0	5.1510	0	33.8470	0	26.747	0	330.855	0	97.5	4	31.5	4	-1E+10	1	-1E+10	1	-1E+10	1	-1E+10	1	-1E+10	1	-1E+10	1
4902549	39	C	09/05/2021	10:58	-131.885	47.194	0	335.30	0	5.1320	0	33.8520	0	26.753	0	332.241	0	96.8	4	31.3	4	-1E+10	1	-1E+10	1	-1E+10	1	-1E+10	1	-1E+10	1	-1E+10	1
4902549	39	C	09/05/2021	10:58	-131.885	47.194	0	336.20	0	5.1150	0	33.8550	0	26.757	0	333.132	0	96.4	4	31.2	4	-1E+10	1	-1E+10	1	-1E+10	1	-1E+10	1	-1E+10	1	-1E+10	1
4902549	39	C	09/05/2021	10:58	-131.885	47.194	0	337.10	0	5.1010	0	33.8550	0	26.759	0	334.024	0	96.1	4	31.1	4	-1E+10	1	-1E+10	1	-1E+10	1	-1E+10	1	-1E+10	1	-1E+10	1
4902549	39	C	09/05/2021	10:58	-131.885	47.194	0	338.00	0	5.0960	0	33.8560	0	26.760	0	334.915	0	95.7	4	30.9	4	-1E+10	1	-1E+10	1	-1E+10	1	-1E+10	1	-1E+10	1	-1E+10	1
4902549	39	C	09/05/2021	10:58	-131.885	47.194	0	338.90	0	5.1000	0	33.8590	0	26.762	0	335.806	0	95.4	4	30.8	4	-1E+10	1	-1E+10	1	-1E+10	1	-1E+10	1	-1E+10	1	-1E+10	1
4902549	39	C	09/05/2021	10:58	-131.885	47.194	0	339.80	0	5.0990	0	33.8610	0	26.764	0	336.697	0	95.0	4	30.7	4	-1E+10	1	-1E+10	1	-1E+10	1	-1E+10	1	-1E+10	1	-1E+10	1
4902549	39	C	09/05/2021	10:58	-131.885	47.194	0	340.70	0	5.0920	0	33.8610	0	26.765	0	337.588	0	94.6	4	30.6	4	-1E+10	1	-1E+10	1	-1E+10	1	-1E+10	1	-1E+10	1	-1E+10	1
4902549	39	C	09/05/2021	10:58	-131.885	47.194	0	341.60	0	5.0830	0	33.8610	0	26.766	0	338.479	0	94.4	4	30.5	4	-1E+10	1	-1E+10	1	-1E+10	1	-1E+10	1	-1E+10	1	-1E+10	1
4902549	39	C	09/05/2021	10:58	-131.885	47.194	0	342.90	0	5.0710	0	33.8620	0	26.768	0	339.766	0	94.0	4	30.4	4	-1E+10	1	-1E+10	1	-1E+10	1	-1E+10	1	-1E+10	1	-1E+10	1
4902549	39	C	09/05/2021	10:58	-131.885	47.194	0	344.30	0	5.0710	0	33.8620	0	26.768	0	341.152	0	93.4	4	30.2	4	-1E+10	1	-1E+10	1	-1E+10	1	-1E+10	1	-1E+10	1	-1E+10	1
4902549	39	C	09/05/2021	10:58	-131.885	47.194	0	345.30	0	5.0640	0	33.8640	0	26.771	0	342.142	0	93.0	4	30.1	4	-1E+10	1	-1E+10	1	-1E+10	1	-1E+10	1	-1E+10	1	-1E+10	1
4902549	39	C	09/05/2021	10:58	-131.885	47.194	0	346.20	0	5.0590	0	33.8640	0	26.771	0	343.033	0	92.7	4	30.0	4	-1E+10	1	-1E+10	1	-1E+10	1	-1E+10	1	-1E+10	1	-1E+10	1
4902549	39	C	09/05/2021	10:58	-131.885	47.194	0	347.10	0	5.0580	0	33.8670	0	26.774	0	343.924	0	92.4	4	29.8	4	-1E+10	1	-1E+10	1	-1E+10	1	-1E+10	1	-1E+10	1	-1E+10	1
4902549	39	C	09/05/2021	10:58	-131.885	47.194	0	348.00	0	5.0560	0	33.8670	0	26.774	0	344.815	0	92.0	4	29.7	4	-1E+10	1	-1E+10	1	-1E+10	1	-1E+10	1	-1E+10	1	-1E+10	1
4902549	39	C	09/05/2021	10:58	-131.885	47.194	0	349.00	0	5.0590	0	33.8690	0	26.775	0	345.805	0	91.6	4	29.6	4	-1E+10	1	-1E+10	1	-1E+10	1	-1E+10	1	-1E+10	1	-1E+10	1
4902549	39	C	09/05/2021	10:58	-131.885	47.194	0	349.90	0	5.0600	0	33.8710	0	26.777	0	346.696	0	91.2	4	29.5	4	-1E+10	1	-1E+10	1	-1E+10	1	-1E+10	1	-1E+10	1	-1E+10	1
4902549	39	C	09/05/2021	10:58	-131.885	47.194	0	352.70	0	5.0600	0	33.8740	0	26.779	0	349.468	0	89.7	4	29.0	4	-1E+10	1	-1E+10	1	-1E+10	1	-1E+10	1	-1E+10	1	-1E+10	1
4902549	39	C	09/05/2021	10:58	-131.885	47.194	0	357.80	0	5.0250	0	33.8810	0	26.789	0	354.517	0	86.3	4	27.8	4	-1E+10	1	-1E+10	1	-1E+10	1	-1E+10	1	-1E+10	1	-1E+10	1
4902549	39	C	09/05/2021	10:58	-131.885	47.194	0	363.20	0	4.9580	0	33.8890	0	26.803	0	359.863	0	82.9	4	26.7	4	-1E+10	1	-1E+10	1	-1E+10	1	-1E+10	1	-1E+10	1	-1E+10	1
4902549	39	C	09/05/2021	10:58	-131.885	47.194	0	368.20	0	4.9070	0	33.8950	0	26.813	0	364.812	0	80.4	4	25.9	4	-1E+10	1	-1E+10	1	-1E+10	1	-1E+10	1	-1E+10	1	-1E+10	1
4902549	39	C	09/05/2021	10:58	-131.885	47.194	0	373.40	0	4.8640	0	33.9040	0	26.825	0	369.960	0	77.9	4	25.1	4	-1E+10	1	-1E+10	1	-1E+10	1	-1E+10	1	-1E+10	1	-1E+10	1
4902549	39	C	09/05/2021	10:58	-131.885	47.194	0	378.00	0	4.8180	0	33.9100	0	26.835	0	374.513	0	76.2	4	24.5	4	-1E+10	1	-1E+10	1	-1E+10	1	-1E+10	1	-1E+10	1	-1E+10	1
4902549	39	C	09/05/2021	10:58	-131.885	47.194	0	382.80	0	4.7860	0	33.9130	0	26.841	0	379.265	0	74.8	4	24.0	4	-1E+10	1	-1E+10	1	-1E+10	1	-1E+10	1	-1E+10	1	-1E+10	1
4902549	39	C	09/05/2021	10:58	-131.885	47.194	0	387.60	0	4.7590	0	33.9180	0	26.848	0	384.016	0	73.6	4	23.6	4	-1E+10	1	-1E+10	1	-1E+10	1	-1E+10	1	-1E+10	1	-1E+10	1
4902549	39	C	09/05/2021	10:58	-131.885	47.194	0	392.60	0	4.7340	0	33.9200	0	26.852	0	388.965	0	72.2	4	23.2	4	-1E+10	1	-1E+10	1	-1E+10	1	-1E+10	1	-1E+10	1	-1E+10	1
4902549	39	C	09/05/2021	10:58	-131.885	47.194	0	397.70	0	4.7080	0	33.9220	0	26.857	0	394.013	0	71.2	4	22.8	4	-1E+10	1	-1E+10	1	-1E+10	1	-1E+10	1	-1E+10	1	-1E+10	1
4902549	39	C	09/05/2021	10:58	-131.885	47.194	0	403.00	0	4.6910	0	33.9250	0	26.861	0	399.259	0	70.0	4	22.4	4	-1E+10	1	-1E+10	1	-1E+10	1	-1E+10	1	-1E+10	1	-1E+10	1
4902549	39	C	09/05/2021	10:58	-131.885	47.194	0	408.00	0	4.6680	0	33.9280	0	26.866	0	404.207	0	69.0	4	22.1	4	-1E+10	1	-1E+10	1	-1E+10	1	-1E+10	1	-1E+10	1	-1E+10	1
4902549	39	C	09/05/2021	10:58	-131.885	47.194	0	413.10	0	4.6570	0	33.9300	0	26.869	0	409.255	0	68.1	4	21.8	4	-1E+10	1	-1E+10	1	-1E+10	1	-1E+10	1	-1E+10	1	-1E+10	1
4902549	39	C	09/05/2021	10:58	-131.885	47.194	0	418.10	0	4.6410	0	33.9320	0	26.872	0	414.203	0	66.9	4	21.4	4	-1E+10	1	-1E+10	1	-1E+10	1	-1E+10	1	-1E+10	1	-1E+10	1
4902549	39	C	09/05/2021	10:58	-131.885	47.194	0	423.00	0	4.6270	0	33.9370	0	26.878	0	419.053	0	65.7	4	21.0	4	-1E+10	1	-1E+10	1	-1E+10	1	-1E+10	1	-1E+10	1	-1E+10	1
4902549	39	C	09/05/2021	10:58	-131.885	47.194	0	428.00	0	4.6150	0	33.9410	0	26.882	0	424.001	0	64.5	4	20.6	4	-1E+10	1	-1E+10	1	-1E+10	1	-1E+10	1	-1E+10	1	-1E+10	1
4902549	39	C	09/05/2021	10:58	-131.885	47.194	0	432.90	0	4.5970	0	33.9440	0	26.887	0	428.850	0	63.1	4	20.2	4	-1E+10	1	-1E+10	1	-1E+10	1	-1E+10	1	-1E+10	1	-1E+10	1
4902549	39	C	09/05/2021	10:58	-131.885	47.194	0	438.00	0	4.5730	0	33.9480	0	26.893	0	433.897	0	61.6	4	19.7	4	-1E+10	1	-1E+10	1	-1E+10	1	-1E+10	1	-1E+10	1	-1E+10	1
4902549	39	C	09/05/2021	10:58	-131.885	47.194	0	443.00	0	4.5560	0	33.9530	0	26.898	0	438.845	0	60.4	4	19.3	4	-1E+10	1	-1E+10	1	-1E+10	1	-1E+10	1	-1E+10	1	-1E+10	1
4902549	39	C	09/05/2021	10:58	-131.885	47.194	0	448.00	0	4.5350	0	33.9570	0	26.904	0	443.793	0	59.1	4	18.9	4	-1E+10	1	-1E+10	1	-1E+10	1	-1E+10	1	-1E+10	1	-1E+10	1
4902549	39	C	09/05/2021	10:58	-131.885	47.194	0	452.70	0	4.5160	0	33.9610	0	26.909	0	448.444	0	58.1	4	18.5	4	-1E+10	1	-1E+10	1	-1E+10	1	-1E+10	1	-1E+10	1	-1E+10	1
4902549	39	C	09/05/2021	10:58	-131.885	47.194	0	457.90	0	4.5020	0	33.9650	0	26.914	0	453.589	0	57.0	4	18.2	4	-1E+10	1	-1E+10	1	-1E+10	1	-1E+10	1	-1E+10	1	-1E+10	1
4902549	39	C	09/05/2021	10:58	-131.885	47.194	0	463.00	0	4.4850	0	33.9690	0	26.919	0	458.635	0	55.9	4	17.8	4	-1E+10	1	-1E+10	1	-1E+10	1	-1E+10	1	-1E+10	1	-1E+10	1
4902549	39	C	09/05/2021	10:58	-131.885	47.194	0	468.10	0	4.4700	0	33.9730	0	26.924	0	463.682	0	55.0	4	17.5	4	-1E+10	1	-1E+10	1	-1E+10	1	-1E+10	1	-1E+10	1	-1E+10	1
4902549	39	C	09/05/2021	10:58	-131.885	47.194	0	473.20	0	4.4620	0	33.9760	0	26.927	0	468.728	0	54.2	4	17.3	4	-1E+10	1	-1E+10	1	-1E+10	1	-1E+10	1	-1E+10	1	-1E+10	1
4902549	39	C	09/05/2021	10:58	-131.885	47.194	0	477.80	0	4.4560	0	33.9790	0	26.930	0	473.279	0	53.2	4	17.0	4	-1E+10	1	-1E+10	1	-1E+10	1	-1E+10	1	-1E+10	1	-1E+10	1
4902549	39	C	09/05/2021	10:58	-131.885	47.194	0	482.80	0	4.4470	0	33.9820	0	26.933	0	478.226	0	51.8	4	16.5	4	-1E+10	1	-1E+10	1	-1E+10	1	-1E+10	1	-1E+10	1	-1E+10	1
4902549	39	C	09/05/2021	10:58	-131.885	47.194	0	487.80	0	4.4250	0	33.9900	0	26.942	0	483.173	0	50.4	4	16.1	4	-1E+10	1	-1E+10	1	-1E+10	1	-1E+10	1	-1E+10	1	-1E+10	1
4902549	39	C	09/05/2021	10:58	-131.885	47.194	0	492.70	0	4.4130	0	33.9940	0	26.947	0	488.021	0	49.1	4	15.6	4	-1E+10	1	-1E+10	1	-1E+10	1	-1E+10	1	-1E+10	1	-1E+10	1
4902549	39	C	09/05/2021	10:58	-131.885	47.194	0	498.00	0	4.4010	0	34.0010	0	26.954	0	493.264	0	47.5	4	15.1	4	-1E+10	1	-1E+10	1	-1E+10	1	-1E+10	1	-1E+10	1	-1E+10	1
4902549	39	C	09/05/2021	10:58	-131.885	47.194	0	502.90	0	4.3840	0	34.0090	0	26.962	0	498.111	0	46.6	4	14.8	4	-1E+10	1	-1E+10	1	-1E+10	1	-1E+10	1	-1E+10	1	-1E+10	1
4902549	39	C	09/05/2021	10:58	-131.885	47.194	0	507.70	0	4.3830	0	34.0090	0	26.962	0	502.860	0	45.4	4	14.5	4	-1E+10	1	-1E+10	1	-1E+10	1	-1E+10	1	-1E+10	1	-1E+10	1
4902549	39	C	09/05/2021	10:58	-131.885	47.194	0	513.10	0	4.3620	0	34.0160	0	26.970	0	508.202	0	43.7	4	13.9	4	-1E+10	1	-1E+10	1	-1E+10	1	-1E+10	1	-1E+10	1	-1E+10	1
4902549	39	C	09/05/2021	10:58	-131.885	47.194	0	517.90	0	4.3390	0	34.0220	0	26.977	0	512.950	0	42.6	4	13.5	4	-1E+10	1	-1E+10	1	-1E+10	1	-1E+10	1	-1E+10	1	-1E+10	1
4902549	39	C	09/05/2021	10:58	-131.885	47.194	0	522.70	0	4.3270	0	34.0250	0	26.981	0	517.698	0	41.3	4	13.1	4	-1E+10	1	-1E+10	1	-1E+10	1	-1E+10	1	-1E+10	1	-1E+10	1
4902549	39	C	09/05/2021	10:58	-131.885	47.194	0	528.10	0	4.3090	0	34.0320	0	26.988	0	523.040	0	39.9	4	12.7	4	-1E+10	1	-1E+10	1	-1E+10	1	-1E+10	1	-1E+10	1	-1E+10	1
4902549	39	C	09/05/2021	10:58	-131.885	47.194	0	533.00	0	4.2970	0	34.0380	0	26.994	0	527.887	0	39.0	4	12.4	4	-1E+10	1	-1E+10	1	-1E+10	1	-1E+10	1	-1E+10	1	-1E+10	1
4902549	39	C	09/05/2021	10:58	-131.885	47.194	0	537.90	0	4.2880	0	34.0410	0	26.998	0	532.733	0	38.2	4	12.1	4	-1E+10	1	-1E+10	1	-1E+10	1	-1E+10	1	-1E+10	1	-1E+10	1
4902549	39	C	09/05/2021	10:58	-131.885	47.194	0	543.00	0	4.2780	0	34.0440	0	27.001	0	537.778	0	37.3	4	11.8	4	-1E+10	1	-1E+10	1	-1E+10	1	-1E+10	1	-1E+10	1	-1E+10	1
4902549	39	C	09/05/2021	10:58	-131.885	47.194	0	548.10	0	4.2670	0	34.0480	0	27.005	0	542.822	0	36.5	4	11.6	4	-1E+10	1	-1E+10	1	-1E+10	1	-1E+10	1	-1E+10	1	-1E+10	1
4902549	39	C	09/05/2021	10:58	-131.885	47.194	0	553.30	0	4.2570	0	34.0500	0	27.008	0	547.965	0	35.6	4	11.3	4	-1E+10	1	-1E+10	1	-1E+10	1	-1E+10	1	-1E+10	1	-1E+10	1
4902549	39	C	09/05/2021	10:58	-131.885	47.194	0	558.20	0	4.2460	0	34.0550	0	27.013	0	552.811	0	34.7	4	11.0	4	-1E+10	1	-1E+10	1	-1E+10	1	-1E+10	1	-1E+10	1	-1E+10	1
4902549	39	C	09/05/2021	10:58	-131.885	47.194	0	563.10	0	4.2390	0	34.0570	0	27.016	0	557.658	0	33.8	4	10.7	4	-1E+10	1	-1E+10	1	-1E+10	1	-1E+10	1	-1E+10	1	-1E+10	1
4902549	39	C	09/05/2021	10:58	-131.885	47.194	0	568.10	0	4.2240	0	34.0620	0	27.021	0	562.602	0	32.7	4	10.4	4	-1E+10	1	-1E+10	1	-1E+10	1	-1E+10	1	-1E+10	1	-1E+10	1
4902549	39	C	09/05/2021	10:58	-131.885	47.194	0	573.20	0	4.2090	0	34.0680	0	27.028	0	567.646	0	31.9	4	10.1	4	-1E+10	1	-1E+10	1	-1E+10	1	-1E+10	1	-1E+10	1	-1E+10	1
4902549	39	C	09/05/2021	10:58	-131.885	47.194	0	578.10	0	4.2000	0	34.0700	0	27.030	0	572.492	0	30.9	4	9.8	4	-1E+10	1	-1E+10	1	-1E+10	1	-1E+10	1	-1E+10	1	-1E+10	1
4902549	39	C	09/05/2021	10:58	-131.885	47.194	0	582.80	0	4.1820	0	34.0770	0	27.038	0	577.140	0	29.8	4	9.4	4	-1E+10	1	-1E+10	1	-1E+10	1	-1E+10	1	-1E+10	1	-1E+10	1
4902549	39	C	09/05/2021	10:58	-131.885	47.194	0	587.90	0	4.1660	0	34.0820	0	27.043	0	582.183	0	29.0	4	9.2	4	-1E+10	1	-1E+10	1	-1E+10	1	-1E+10	1	-1E+10	1	-1E+10	1
4902549	39	C	09/05/2021	10:58	-131.885	47.194	0	592.80	0	4.1550	0	34.0860	0	27.048	0	587.029	0	28.2	4	8.9	4	-1E+10	1	-1E+10	1	-1E+10	1	-1E+10	1	-1E+10	1	-1E+10	1
4902549	39	C	09/05/2021	10:58	-131.885	47.194	0	597.80	0	4.1380	0	34.0910	0	27.053	0	591.973	0	27.5	4	8.7	4	-1E+10	1	-1E+10	1	-1E+10	1	-1E+10	1	-1E+10	1	-1E+10	1
4902549	39	C	09/05/2021	10:58	-131.885	47.194	0	602.90	0	4.1340	0	34.0930	0	27.055	0	597.016	0	27.0	4	8.6	4	-1E+10	1	-1E+10	1	-1E+10	1	-1E+10	1	-1E+10	1	-1E+10	1
4902549	39	C	09/05/2021	10:58	-131.885	47.194	0	608.20	0	4.1280	0	34.0950	0	27.058	0	602.256	0	26.5	4	8.4	4	-1E+10	1	-1E+10	1	-1E+10	1	-1E+10	1	-1E+10	1	-1E+10	1
4902549	39	C	09/05/2021	10:58	-131.885	47.194	0	613.10	0	4.1190	0	34.0980	0	27.061	0	607.101	0	26.0	4	8.2	4	-1E+10	1	-1E+10	1	-1E+10	1	-1E+10	1	-1E+10	1	-1E+10	1
4902549	39	C	09/05/2021	10:58	-131.885	47.194	0	617.70	0	4.1070	0	34.1010	0	27.065	0	611.650	0	25.4	4	8.0	4	-1E+10	1	-1E+10	1	-1E+10	1	-1E+10	1	-1E+10	1	-1E+10	1
4902549	39	C	09/05/2021	10:58	-131.885	47.194	0	622.80	0	4.0990	0	34.1040	0	27.068	0	616.692	0	24.7	4	7.8	4	-1E+10	1	-1E+10	1	-1E+10	1	-1E+10	1	-1E+10	1	-1E+10	1
4902549	39	C	09/05/2021	10:58	-131.885	47.194	0	628.10	0	4.0850	0	34.1080	0	27.073	0	621.932	0	24.1	4	7.6	4	-1E+10	1	-1E+10	1	-1E+10	1	-1E+10	1	-1E+10	1	-1E+10	1
4902549	39	C	09/05/2021	10:58	-131.885	47.194	0	633.10	0	4.0670	0	34.1130	0	27.078	0	626.876	0	23.5	4	7.4	4	-1E+10	1	-1E+10	1	-1E+10	1	-1E+10	1	-1E+10	1	-1E+10	1
4902549	39	C	09/05/2021	10:58	-131.885	47.194	0	638.10	0	4.0550	0	34.1170	0	27.083	0	631.819	0	22.9	4	7.3	4	-1E+10	1	-1E+10	1	-1E+10	1	-1E+10	1	-1E+10	1	-1E+10	1
4902549	39	C	09/05/2021	10:58	-131.885	47.194	0	643.20	0	4.0440	0	34.1200	0	27.086	0	636.861	0	22.4	4	7.1	4	-1E+10	1	-1E+10	1	-1E+10	1	-1E+10	1	-1E+10	1	-1E+10	1
4902549	39	C	09/05/2021	10:58	-131.885	47.194	0	648.30	0	4.0300	0	34.1240	0	27.091	0	641.903	0	21.8	4	6.9	4	-1E+10	1	-1E+10	1	-1E+10	1	-1E+10	1	-1E+10	1	-1E+10	1
4902549	39	C	09/05/2021	10:58	-131.885	47.194	0	652.90	0	4.0170	0	34.1280	0	27.096	0	646.450	0	21.3	4	6.7	4	-1E+10	1	-1E+10	1	-1E+10	1	-1E+10	1	-1E+10	1	-1E+10	1
4902549	39	C	09/05/2021	10:58	-131.885	47.194	0	657.50	0	4.0070	0	34.1310	0	27.099	0	650.998	0	20.9	4	6.6	4	-1E+10	1	-1E+10	1	-1E+10	1	-1E+10	1	-1E+10	1	-1E+10	1
4902549	39	C	09/05/2021	10:58	-131.885	47.194	0	662.70	0	3.9950	0	34.1350	0	27.104	0	656.138	0	20.3	4	6.4	4	-1E+10	1	-1E+10	1	-1E+10	1	-1E+10	1	-1E+10	1	-1E+10	1
4902549	39	C	09/05/2021	10:58	-131.885	47.194	0	667.90	0	3.9810	0	34.1400	0	27.109	0	661.278	0	19.7	4	6.2	4	-1E+10	1	-1E+10	1	-1E+10	1	-1E+10	1	-1E+10	1	-1E+10	1
4902549	39	C	09/05/2021	10:58	-131.885	47.194	0	673.20	0	3.9690	0	34.1440	0	27.113	0	666.517	0	19.1	4	6.0	4	-1E+10	1	-1E+10	1	-1E+10	1	-1E+10	1	-1E+10	1	-1E+10	1
4902549	39	C	09/05/2021	10:58	-131.885	47.194	0	677.80	0	3.9590	0	34.1470	0	27.117	0	671.064	0	18.6	4	5.9	4	-1E+10	1	-1E+10	1	-1E+10	1	-1E+10	1	-1E+10	1	-1E+10	1
4902549	39	C	09/05/2021	10:58	-131.885	47.194	0	682.50	0	3.9450	0	34.1520	0	27.122	0	675.710	0	18.1	4	5.7	4	-1E+10	1	-1E+10	1	-1E+10	1	-1E+10	1	-1E+10	1	-1E+10	1
4902549	39	C	09/05/2021	10:58	-131.885	47.194	0	687.70	0	3.9300	0	34.1570	0	27.128	0	680.850	0	17.7	4	5.6	4	-1E+10	1	-1E+10	1	-1E+10	1	-1E+10	1	-1E+10	1	-1E+10	1
4902549	39	C	09/05/2021	10:58	-131.885	47.194	0	693.00	0	3.9190	0	34.1600	0	27.131	0	686.088	0	17.3	4	5.4	4	-1E+10	1	-1E+10	1	-1E+10	1	-1E+10	1	-1E+10	1	-1E+10	1
4902549	39	C	09/05/2021	10:58	-131.885	47.194	0	698.10	0	3.9000	0	34.1650	0	27.137	0	691.129	0	16.8	4	5.3	4	-1E+10	1	-1E+10	1	-1E+10	1	-1E+10	1	-1E+10	1	-1E+10	1
4902549	39	C	09/05/2021	10:58	-131.885	47.194	0	703.20	0	3.8820	0	34.1700	0	27.143	0	696.169	0	16.4	4	5.2	4	-1E+10	1	-1E+10	1	-1E+10	1	-1E+10	1	-1E+10	1	-1E+10	1
4902549	39	C	09/05/2021	10:58	-131.885	47.194	0	708.20	0	3.8650	0	34.1740	0	27.148	0	701.111	0	16.0	4	5.0	4	-1E+10	1	-1E+10	1	-1E+10	1	-1E+10	1	-1E+10	1	-1E+10	1
4902549	39	C	09/05/2021	10:58	-131.885	47.194	0	713.20	0	3.8420	0	34.1810	0	27.156	0	706.052	0	15.6	4	4.9	4	-1E+10	1	-1E+10	1	-1E+10	1	-1E+10	1	-1E+10	1	-1E+10	1
4902549	39	C	09/05/2021	10:58	-131.885	47.194	0	718.10	0	3.8370	0	34.1820	0	27.157	0	710.895	0	15.3	4	4.8	4	-1E+10	1	-1E+10	1	-1E+10	1	-1E+10	1	-1E+10	1	-1E+10	1
4902549	39	C	09/05/2021	10:58	-131.885	47.194	0	723.00	0	3.8310	0	34.1850	0	27.160	0	715.737	0	14.9	4	4.7	4	-1E+10	1	-1E+10	1	-1E+10	1	-1E+10	1	-1E+10	1	-1E+10	1
4902549	39	C	09/05/2021	10:58	-131.885	47.194	0	727.80	0	3.8220	0	34.1880	0	27.164	0	720.481	0	14.5	4	4.6	4	-1E+10	1	-1E+10	1	-1E+10	1	-1E+10	1	-1E+10	1	-1E+10	1
4902549	39	C	09/05/2021	10:58	-131.885	47.194	0	732.70	0	3.8060	0	34.1930	0	27.169	0	725.323	0	14.1	4	4.4	4	-1E+10	1	-1E+10	1	-1E+10	1	-1E+10	1	-1E+10	1	-1E+10	1
4902549	39	C	09/05/2021	10:58	-131.885	47.194	0	737.60	0	3.7880	0	34.1980	0	27.175	0	730.165	0	13.7	4	4.3	4	-1E+10	1	-1E+10	1	-1E+10	1	-1E+10	1	-1E+10	1	-1E+10	1
4902549	39	C	09/05/2021	10:58	-131.885	47.194	0	742.90	0	3.7700	0	34.2030	0	27.181	0	735.402	0	13.3	4	4.2	4	-1E+10	1	-1E+10	1	-1E+10	1	-1E+10	1	-1E+10	1	-1E+10	1
4902549	39	C	09/05/2021	10:58	-131.885	47.194	0	748.20	0	3.7560	0	34.2060	0	27.185	0	740.640	0	13.0	4	4.1	4	-1E+10	1	-1E+10	1	-1E+10	1	-1E+10	1	-1E+10	1	-1E+10	1
4902549	39	C	09/05/2021	10:58	-131.885	47.194	0	753.10	0	3.7450	0	34.2100	0	27.189	0	745.481	0	12.6	4	4.0	4	-1E+10	1	-1E+10	1	-1E+10	1	-1E+10	1	-1E+10	1	-1E+10	1
4902549	39	C	09/05/2021	10:58	-131.885	47.194	0	757.90	0	3.7310	0	34.2140	0	27.194	0	750.224	0	12.2	4	3.8	4	-1E+10	1	-1E+10	1	-1E+10	1	-1E+10	1	-1E+10	1	-1E+10	1
4902549	39	C	09/05/2021	10:58	-131.885	47.194	0	762.80	0	3.7220	0	34.2170	0	27.197	0	755.066	0	11.9	4	3.7	4	-1E+10	1	-1E+10	1	-1E+10	1	-1E+10	1	-1E+10	1	-1E+10	1
4902549	39	C	09/05/2021	10:58	-131.885	47.194	0	767.60	0	3.7060	0	34.2220	0	27.202	0	759.808	0	11.5	4	3.6	4	-1E+10	1	-1E+10	1	-1E+10	1	-1E+10	1	-1E+10	1	-1E+10	1
4902549	39	C	09/05/2021	10:58	-131.885	47.194	0	772.60	0	3.6960	0	34.2250	0	27.206	0	764.748	0	11.4	4	3.6	4	-1E+10	1	-1E+10	1	-1E+10	1	-1E+10	1	-1E+10	1	-1E+10	1
4902549	39	C	09/05/2021	10:58	-131.885	47.194	0	777.60	0	3.6870	0	34.2270	0	27.208	0	769.688	0	11.2	4	3.5	4	-1E+10	1	-1E+10	1	-1E+10	1	-1E+10	1	-1E+10	1	-1E+10	1
4902549	39	C	09/05/2021	10:58	-131.885	47.194	0	782.60	0	3.6790	0	34.2300	0	27.212	0	774.628	0	10.9	4	3.4	4	-1E+10	1	-1E+10	1	-1E+10	1	-1E+10	1	-1E+10	1	-1E+10	1
4902549	39	C	09/05/2021	10:58	-131.885	47.194	0	787.70	0	3.6690	0	34.2320	0	27.214	0	779.667	0	10.7	4	3.4	4	-1E+10	1	-1E+10	1	-1E+10	1	-1E+10	1	-1E+10	1	-1E+10	1
4902549	39	C	09/05/2021	10:58	-131.885	47.194	0	792.80	0	3.6510	0	34.2370	0	27.220	0	784.705	0	10.5	4	3.3	4	-1E+10	1	-1E+10	1	-1E+10	1	-1E+10	1	-1E+10	1	-1E+10	1
4902549	39	C	09/05/2021	10:58	-131.885	47.194	0	797.80	0	3.6390	0	34.2400	0	27.224	0	789.645	0	10.4	4	3.2	4	-1E+10	1	-1E+10	1	-1E+10	1	-1E+10	1	-1E+10	1	-1E+10	1
4902549	39	C	09/05/2021	10:58	-131.885	47.194	0	803.00	0	3.6260	0	34.2440	0	27.228	0	794.782	0	10.2	4	3.2	4	-1E+10	1	-1E+10	1	-1E+10	1	-1E+10	1	-1E+10	1	-1E+10	1
4902549	39	C	09/05/2021	10:58	-131.885	47.194	0	808.20	0	3.6040	0	34.2490	0	27.234	0	799.918	0	10.2	4	3.2	4	-1E+10	1	-1E+10	1	-1E+10	1	-1E+10	1	-1E+10	1	-1E+10	1
4902549	39	C	09/05/2021	10:58	-131.885	47.194	0	813.10	0	3.5950	0	34.2500	0	27.236	0	804.759	0	10.1	4	3.2	4	-1E+10	1	-1E+10	1	-1E+10	1	-1E+10	1	-1E+10	1	-1E+10	1
4902549	39	C	09/05/2021	10:58	-131.885	47.194	0	818.20	0	3.5870	0	34.2520	0	27.238	0	809.797	0	10.0	4	3.1	4	-1E+10	1	-1E+10	1	-1E+10	1	-1E+10	1	-1E+10	1	-1E+10	1
4902549	39	C	09/05/2021	10:58	-131.885	47.194	0	822.90	0	3.5680	0	34.2560	0	27.243	0	814.439	0	9.9	4	3.1	4	-1E+10	1	-1E+10	1	-1E+10	1	-1E+10	1	-1E+10	1	-1E+10	1
4902549	39	C	09/05/2021	10:58	-131.885	47.194	0	827.90	0	3.5510	0	34.2590	0	27.247	0	819.378	0	9.8	4	3.1	4	-1E+10	1	-1E+10	1	-1E+10	1	-1E+10	1	-1E+10	1	-1E+10	1
4902549	39	C	09/05/2021	10:58	-131.885	47.194	0	833.00	0	3.5450	0	34.2610	0	27.250	0	824.415	0	9.8	4	3.0	4	-1E+10	1	-1E+10	1	-1E+10	1	-1E+10	1	-1E+10	1	-1E+10	1
4902549	39	C	09/05/2021	10:58	-131.885	47.194	0	837.80	0	3.5400	0	34.2620	0	27.251	0	829.156	0	9.7	4	3.0	4	-1E+10	1	-1E+10	1	-1E+10	1	-1E+10	1	-1E+10	1	-1E+10	1
4902549	39	C	09/05/2021	10:58	-131.885	47.194	0	842.70	0	3.5340	0	34.2640	0	27.253	0	833.996	0	9.6	4	3.0	4	-1E+10	1	-1E+10	1	-1E+10	1	-1E+10	1	-1E+10	1	-1E+10	1
4902549	39	C	09/05/2021	10:58	-131.885	47.194	0	847.60	0	3.5280	0	34.2650	0	27.255	0	838.836	0	9.6	4	3.0	4	-1E+10	1	-1E+10	1	-1E+10	1	-1E+10	1	-1E+10	1	-1E+10	1
4902549	39	C	09/05/2021	10:58	-131.885	47.194	0	852.60	0	3.5190	0	34.2670	0	27.257	0	843.774	0	9.6	4	3.0	4	-1E+10	1	-1E+10	1	-1E+10	1	-1E+10	1	-1E+10	1	-1E+10	1
4902549	39	C	09/05/2021	10:58	-131.885	47.194	0	857.60	0	3.5100	0	34.2690	0	27.260	0	848.712	0	9.5	4	3.0	4	-1E+10	1	-1E+10	1	-1E+10	1	-1E+10	1	-1E+10	1	-1E+10	1
4902549	39	C	09/05/2021	10:58	-131.885	47.194	0	862.70	0	3.4990	0	34.2720	0	27.263	0	853.749	0	9.4	4	2.9	4	-1E+10	1	-1E+10	1	-1E+10	1	-1E+10	1	-1E+10	1	-1E+10	1
4902549	39	C	09/05/2021	10:58	-131.885	47.194	0	867.80	0	3.4870	0	34.2750	0	27.267	0	858.785	0	9.3	4	2.9	4	-1E+10	1	-1E+10	1	-1E+10	1	-1E+10	1	-1E+10	1	-1E+10	1
4902549	39	C	09/05/2021	10:58	-131.885	47.194	0	872.90	0	3.4810	0	34.2760	0	27.268	0	863.822	0	9.2	4	2.9	4	-1E+10	1	-1E+10	1	-1E+10	1	-1E+10	1	-1E+10	1	-1E+10	1
4902549	39	C	09/05/2021	10:58	-131.885	47.194	0	878.10	0	3.4750	0	34.2780	0	27.270	0	868.957	0	9.1	4	2.8	4	-1E+10	1	-1E+10	1	-1E+10	1	-1E+10	1	-1E+10	1	-1E+10	1
4902549	39	C	09/05/2021	10:58	-131.885	47.194	0	883.20	0	3.4680	0	34.2810	0	27.273	0	873.993	0	8.9	4	2.8	4	-1E+10	1	-1E+10	1	-1E+10	1	-1E+10	1	-1E+10	1	-1E+10	1
4902549	39	C	09/05/2021	10:58	-131.885	47.194	0	887.90	0	3.4620	0	34.2830	0	27.276	0	878.634	0	8.7	4	2.7	4	-1E+10	1	-1E+10	1	-1E+10	1	-1E+10	1	-1E+10	1	-1E+10	1
4902549	39	C	09/05/2021	10:58	-131.885	47.194	0	892.50	0	3.4540	0	34.2860	0	27.279	0	883.177	0	8.5	4	2.7	4	-1E+10	1	-1E+10	1	-1E+10	1	-1E+10	1	-1E+10	1	-1E+10	1
4902549	39	C	09/05/2021	10:58	-131.885	47.194	0	897.60	0	3.4480	0	34.2890	0	27.282	0	888.212	0	8.2	4	2.6	4	-1E+10	1	-1E+10	1	-1E+10	1	-1E+10	1	-1E+10	1	-1E+10	1
4902549	39	C	09/05/2021	10:58	-131.885	47.194	0	902.80	0	3.4360	0	34.2940	0	27.287	0	893.347	0	8.0	4	2.5	4	-1E+10	1	-1E+10	1	-1E+10	1	-1E+10	1	-1E+10	1	-1E+10	1
4902549	39	C	09/05/2021	10:58	-131.885	47.194	0	907.90	0	3.4260	0	34.2990	0	27.292	0	898.383	0	7.8	4	2.4	4	-1E+10	1	-1E+10	1	-1E+10	1	-1E+10	1	-1E+10	1	-1E+10	1
4902549	39	C	09/05/2021	10:58	-131.885	47.194	0	913.10	0	3.4170	0	34.3030	0	27.296	0	903.517	0	7.7	4	2.4	4	-1E+10	1	-1E+10	1	-1E+10	1	-1E+10	1	-1E+10	1	-1E+10	1
4902549	39	C	09/05/2021	10:58	-131.885	47.194	0	918.30	0	3.4050	0	34.3060	0	27.299	0	908.651	0	7.7	4	2.4	4	-1E+10	1	-1E+10	1	-1E+10	1	-1E+10	1	-1E+10	1	-1E+10	1
4902549	39	C	09/05/2021	10:58	-131.885	47.194	0	923.00	0	3.3860	0	34.3100	0	27.305	0	913.291	0	7.7	4	2.4	4	-1E+10	1	-1E+10	1	-1E+10	1	-1E+10	1	-1E+10	1	-1E+10	1
4902549	39	C	09/05/2021	10:58	-131.885	47.194	0	927.70	0	3.3670	0	34.3120	0	27.308	0	917.932	0	7.8	4	2.4	4	-1E+10	1	-1E+10	1	-1E+10	1	-1E+10	1	-1E+10	1	-1E+10	1
4902549	39	C	09/05/2021	10:58	-131.885	47.194	0	932.90	0	3.3490	0	34.3140	0	27.311	0	923.065	0	7.8	4	2.4	4	-1E+10	1	-1E+10	1	-1E+10	1	-1E+10	1	-1E+10	1	-1E+10	1
4902549	39	C	09/05/2021	10:58	-131.885	47.194	0	938.20	0	3.3330	0	34.3150	0	27.314	0	928.298	0	7.8	4	2.4	4	-1E+10	1	-1E+10	1	-1E+10	1	-1E+10	1	-1E+10	1	-1E+10	1
4902549	39	C	09/05/2021	10:58	-131.885	47.194	0	943.00	0	3.3270	0	34.3170	0	27.316	0	933.036	0	7.6	4	2.4	4	-1E+10	1	-1E+10	1	-1E+10	1	-1E+10	1	-1E+10	1	-1E+10	1
4902549	39	C	09/05/2021	10:58	-131.885	47.194	0	947.70	0	3.3180	0	34.3190	0	27.318	0	937.676	0	7.5	4	2.3	4	-1E+10	1	-1E+10	1	-1E+10	1	-1E+10	1	-1E+10	1	-1E+10	1
4902549	39	C	09/05/2021	10:58	-131.885	47.194	0	952.90	0	3.3150	0	34.3230	0	27.322	0	942.810	0	7.4	4	2.3	4	-1E+10	1	-1E+10	1	-1E+10	1	-1E+10	1	-1E+10	1	-1E+10	1
4902549	39	C	09/05/2021	10:58	-131.885	47.194	0	958.10	0	3.3040	0	34.3260	0	27.325	0	947.943	0	7.4	4	2.3	4	-1E+10	1	-1E+10	1	-1E+10	1	-1E+10	1	-1E+10	1	-1E+10	1
4902549	39	C	09/05/2021	10:58	-131.885	47.194	0	962.80	0	3.2940	0	34.3270	0	27.327	0	952.582	0	7.4	4	2.3	4	-1E+10	1	-1E+10	1	-1E+10	1	-1E+10	1	-1E+10	1	-1E+10	1
4902549	39	C	09/05/2021	10:58	-131.885	47.194	0	967.50	0	3.2840	0	34.3290	0	27.330	0	957.222	0	7.4	4	2.3	4	-1E+10	1	-1E+10	1	-1E+10	1	-1E+10	1	-1E+10	1	-1E+10	1
4902549	39	C	09/05/2021	10:58	-131.885	47.194	0	972.70	0	3.2760	0	34.3310	0	27.332	0	962.354	0	7.4	4	2.3	4	-1E+10	1	-1E+10	1	-1E+10	1	-1E+10	1	-1E+10	1	-1E+10	1
4902549	39	C	09/05/2021	10:58	-131.885	47.194	0	977.90	0	3.2680	0	34.3350	0	27.336	0	967.487	0	7.3	4	2.3	4	-1E+10	1	-1E+10	1	-1E+10	1	-1E+10	1	-1E+10	1	-1E+10	1
4902549	39	C	09/05/2021	10:58	-131.885	47.194	0	983.10	0	3.2620	0	34.3380	0	27.339	0	972.620	0	7.3	4	2.3	4	-1E+10	1	-1E+10	1	-1E+10	1	-1E+10	1	-1E+10	1	-1E+10	1
4902549	39	C	09/05/2021	10:58	-131.885	47.194	0	988.30	0	3.2560	0	34.3390	0	27.340	0	977.752	0	7.3	4	2.3	4	-1E+10	1	-1E+10	1	-1E+10	1	-1E+10	1	-1E+10	1	-1E+10	1
4902549	39	C	09/05/2021	10:58	-131.885	47.194	0	992.90	0	3.2510	0	34.3400	0	27.342	0	982.292	0	7.2	4	2.2	4	-1E+10	1	-1E+10	1	-1E+10	1	-1E+10	1	-1E+10	1	-1E+10	1
4902549	39	C	09/05/2021	10:58	-131.885	47.194	0	997.60	0	3.2520	0	34.3440	0	27.345	0	986.931	0	7.1	4	2.2	4	-1E+10	1	-1E+10	1	-1E+10	1	-1E+10	1	-1E+10	1	-1E+10	1
4902549	39	C	09/05/2021	10:58	-131.885	47.194	0	1005.50	0	3.2460	0	34.3480	0	27.348	0	994.728	0	7.0	4	2.2	4	-1E+10	1	-1E+10	1	-1E+10	1	-1E+10	1	-1E+10	1	-1E+10	1
4902549	39	C	09/05/2021	10:58	-131.885	47.194	0	1015.60	0	3.2290	0	34.3520	0	27.353	0	1004.695	0	6.9	4	2.1	4	-1E+10	1	-1E+10	1	-1E+10	1	-1E+10	1	-1E+10	1	-1E+10	1
4902549	39	C	09/05/2021	10:58	-131.885	47.194	0	1025.70	0	3.2150	0	34.3580	0	27.359	0	1014.662	0	6.8	4	2.1	4	-1E+10	1	-1E+10	1	-1E+10	1	-1E+10	1	-1E+10	1	-1E+10	1
4902549	39	C	09/05/2021	10:58	-131.885	47.194	0	1035.50	0	3.2100	0	34.3640	0	27.365	0	1024.333	0	6.8	4	2.1	4	-1E+10	1	-1E+10	1	-1E+10	1	-1E+10	1	-1E+10	1	-1E+10	1
4902549	39	C	09/05/2021	10:58	-131.885	47.194	0	1045.50	0	3.1970	0	34.3670	0	27.368	0	1034.201	0	6.7	4	2.1	4	-1E+10	1	-1E+10	1	-1E+10	1	-1E+10	1	-1E+10	1	-1E+10	1
4902549	39	C	09/05/2021	10:58	-131.885	47.194	0	1055.60	0	3.1870	0	34.3720	0	27.373	0	1044.166	0	6.7	4	2.1	4	-1E+10	1	-1E+10	1	-1E+10	1	-1E+10	1	-1E+10	1	-1E+10	1
4902549	39	C	09/05/2021	10:58	-131.885	47.194	0	1065.50	0	3.1700	0	34.3770	0	27.379	0	1053.934	0	6.8	4	2.1	4	-1E+10	1	-1E+10	1	-1E+10	1	-1E+10	1	-1E+10	1	-1E+10	1
4902549	39	C	09/05/2021	10:58	-131.885	47.194	0	1075.30	0	3.1540	0	34.3800	0	27.383	0	1063.603	0	6.8	4	2.1	4	-1E+10	1	-1E+10	1	-1E+10	1	-1E+10	1	-1E+10	1	-1E+10	1
4902549	39	C	09/05/2021	10:58	-131.885	47.194	0	1085.60	0	3.1300	0	34.3860	0	27.390	0	1073.765	0	6.9	4	2.1	4	-1E+10	1	-1E+10	1	-1E+10	1	-1E+10	1	-1E+10	1	-1E+10	1
4902549	39	C	09/05/2021	10:58	-131.885	47.194	0	1095.60	0	3.1140	0	34.3900	0	27.395	0	1083.630	0	7.0	4	2.2	4	-1E+10	1	-1E+10	1	-1E+10	1	-1E+10	1	-1E+10	1	-1E+10	1
4902549	39	C	09/05/2021	10:58	-131.885	47.194	0	1105.40	0	3.0970	0	34.3930	0	27.399	0	1093.297	0	7.1	4	2.2	4	-1E+10	1	-1E+10	1	-1E+10	1	-1E+10	1	-1E+10	1	-1E+10	1
4902549	39	C	09/05/2021	10:58	-131.885	47.194	0	1115.40	0	3.0780	0	34.3980	0	27.405	0	1103.162	0	7.3	4	2.2	4	-1E+10	1	-1E+10	1	-1E+10	1	-1E+10	1	-1E+10	1	-1E+10	1
4902549	39	C	09/05/2021	10:58	-131.885	47.194	0	1125.50	0	3.0580	0	34.4020	0	27.410	0	1113.124	0	7.4	4	2.3	4	-1E+10	1	-1E+10	1	-1E+10	1	-1E+10	1	-1E+10	1	-1E+10	1
4902549	39	C	09/05/2021	10:58	-131.885	47.194	0	1135.70	0	3.0350	0	34.4050	0	27.414	0	1123.184	0	7.6	4	2.3	4	-1E+10	1	-1E+10	1	-1E+10	1	-1E+10	1	-1E+10	1	-1E+10	1
4902549	39	C	09/05/2021	10:58	-131.885	47.194	0	1145.50	0	3.0200	0	34.4080	0	27.418	0	1132.850	0	7.8	4	2.4	4	-1E+10	1	-1E+10	1	-1E+10	1	-1E+10	1	-1E+10	1	-1E+10	1
4902549	39	C	09/05/2021	10:58	-131.885	47.194	0	1155.50	0	2.9980	0	34.4110	0	27.422	0	1142.713	0	8.0	4	2.5	4	-1E+10	1	-1E+10	1	-1E+10	1	-1E+10	1	-1E+10	1	-1E+10	1
4902549	39	C	09/05/2021	10:58	-131.885	47.194	0	1165.30	0	2.9710	0	34.4160	0	27.429	0	1152.377	0	8.1	4	2.5	4	-1E+10	1	-1E+10	1	-1E+10	1	-1E+10	1	-1E+10	1	-1E+10	1
4902549	39	C	09/05/2021	10:58	-131.885	47.194	0	1175.00	0	2.9540	0	34.4180	0	27.432	0	1161.943	0	8.3	4	2.6	4	-1E+10	1	-1E+10	1	-1E+10	1	-1E+10	1	-1E+10	1	-1E+10	1
4902549	39	C	09/05/2021	10:58	-131.885	47.194	0	1185.30	0	2.9320	0	34.4200	0	27.436	0	1172.100	0	8.5	4	2.6	4	-1E+10	1	-1E+10	1	-1E+10	1	-1E+10	1	-1E+10	1	-1E+10	1
4902549	39	C	09/05/2021	10:58	-131.885	47.194	0	1195.10	0	2.9140	0	34.4230	0	27.440	0	1181.763	0	8.7	4	2.7	4	-1E+10	1	-1E+10	1	-1E+10	1	-1E+10	1	-1E+10	1	-1E+10	1
4902549	39	C	09/05/2021	10:58	-131.885	47.194	0	1205.20	0	2.8890	0	34.4260	0	27.444	0	1191.722	0	8.9	4	2.7	4	-1E+10	1	-1E+10	1	-1E+10	1	-1E+10	1	-1E+10	1	-1E+10	1
4902549	39	C	09/05/2021	10:58	-131.885	47.194	0	1215.30	0	2.8710	0	34.4290	0	27.448	0	1201.680	0	9.1	4	2.8	4	-1E+10	1	-1E+10	1	-1E+10	1	-1E+10	1	-1E+10	1	-1E+10	1
4902549	39	C	09/05/2021	10:58	-131.885	47.194	0	1225.60	0	2.8580	0	34.4320	0	27.452	0	1211.835	0	9.3	4	2.8	4	-1E+10	1	-1E+10	1	-1E+10	1	-1E+10	1	-1E+10	1	-1E+10	1
4902549	39	C	09/05/2021	10:58	-131.885	47.194	0	1235.60	0	2.8410	0	34.4350	0	27.456	0	1221.693	0	9.4	4	2.9	4	-1E+10	1	-1E+10	1	-1E+10	1	-1E+10	1	-1E+10	1	-1E+10	1
4902549	39	C	09/05/2021	10:58	-131.885	47.194	0	1245.60	0	2.8320	0	34.4360	0	27.458	0	1231.552	0	9.6	4	3.0	4	-1E+10	1	-1E+10	1	-1E+10	1	-1E+10	1	-1E+10	1	-1E+10	1
4902549	39	C	09/05/2021	10:58	-131.885	47.194	0	1255.60	0	2.8100	0	34.4390	0	27.462	0	1241.409	0	9.9	4	3.0	4	-1E+10	1	-1E+10	1	-1E+10	1	-1E+10	1	-1E+10	1	-1E+10	1
4902549	39	C	09/05/2021	10:58	-131.885	47.194	0	1265.60	0	2.7960	0	34.4410	0	27.465	0	1251.267	0	10.1	4	3.1	4	-1E+10	1	-1E+10	1	-1E+10	1	-1E+10	1	-1E+10	1	-1E+10	1
4902549	39	C	09/05/2021	10:58	-131.885	47.194	0	1275.40	0	2.7810	0	34.4440	0	27.469	0	1260.926	0	10.3	4	3.2	4	-1E+10	1	-1E+10	1	-1E+10	1	-1E+10	1	-1E+10	1	-1E+10	1
4902549	39	C	09/05/2021	10:58	-131.885	47.194	0	1285.50	0	2.7680	0	34.4460	0	27.471	0	1270.881	0	10.5	4	3.2	4	-1E+10	1	-1E+10	1	-1E+10	1	-1E+10	1	-1E+10	1	-1E+10	1
4902549	39	C	09/05/2021	10:58	-131.885	47.194	0	1295.70	0	2.7570	0	34.4480	0	27.474	0	1280.934	0	10.8	4	3.3	4	-1E+10	1	-1E+10	1	-1E+10	1	-1E+10	1	-1E+10	1	-1E+10	1
4902549	39	C	09/05/2021	10:58	-131.885	47.194	0	1305.40	0	2.7380	0	34.4520	0	27.479	0	1290.494	0	11.1	4	3.4	4	-1E+10	1	-1E+10	1	-1E+10	1	-1E+10	1	-1E+10	1	-1E+10	1
4902549	39	C	09/05/2021	10:58	-131.885	47.194	0	1315.20	0	2.7200	0	34.4540	0	27.482	0	1300.152	0	11.4	4	3.5	4	-1E+10	1	-1E+10	1	-1E+10	1	-1E+10	1	-1E+10	1	-1E+10	1
4902549	39	C	09/05/2021	10:58	-131.885	47.194	0	1325.50	0	2.7060	0	34.4570	0	27.486	0	1310.302	0	11.6	4	3.6	4	-1E+10	1	-1E+10	1	-1E+10	1	-1E+10	1	-1E+10	1	-1E+10	1
4902549	39	C	09/05/2021	10:58	-131.885	47.194	0	1335.90	0	2.6910	0	34.4580	0	27.488	0	1320.550	0	11.9	4	3.6	4	-1E+10	1	-1E+10	1	-1E+10	1	-1E+10	1	-1E+10	1	-1E+10	1
4902549	39	C	09/05/2021	10:58	-131.885	47.194	0	1345.70	0	2.6830	0	34.4610	0	27.491	0	1330.207	0	12.1	4	3.7	4	-1E+10	1	-1E+10	1	-1E+10	1	-1E+10	1	-1E+10	1	-1E+10	1
4902549	39	C	09/05/2021	10:58	-131.885	47.194	0	1355.50	0	2.6540	0	34.4610	0	27.494	0	1339.863	0	12.3	4	3.8	4	-1E+10	1	-1E+10	1	-1E+10	1	-1E+10	1	-1E+10	1	-1E+10	1
4902549	39	C	09/05/2021	10:58	-131.885	47.194	0	1365.20	0	2.6410	0	34.4640	0	27.497	0	1349.420	0	12.6	4	3.9	4	-1E+10	1	-1E+10	1	-1E+10	1	-1E+10	1	-1E+10	1	-1E+10	1
4902549	39	C	09/05/2021	10:58	-131.885	47.194	0	1375.50	0	2.6390	0	34.4660	0	27.499	0	1359.568	0	13.1	4	4.0	4	-1E+10	1	-1E+10	1	-1E+10	1	-1E+10	1	-1E+10	1	-1E+10	1
4902549	39	C	09/05/2021	10:58	-131.885	47.194	0	1385.60	0	2.6300	0	34.4700	0	27.503	0	1369.518	0	13.6	4	4.2	4	-1E+10	1	-1E+10	1	-1E+10	1	-1E+10	1	-1E+10	1	-1E+10	1
4902549	39	C	09/05/2021	10:58	-131.885	47.194	0	1395.20	0	2.6160	0	34.4720	0	27.506	0	1378.975	0	14.0	4	4.3	4	-1E+10	1	-1E+10	1	-1E+10	1	-1E+10	1	-1E+10	1	-1E+10	1
4902549	39	C	09/05/2021	10:58	-131.885	47.194	0	1405.20	0	2.6070	0	34.4750	0	27.509	0	1388.826	0	14.5	4	4.4	4	-1E+10	1	-1E+10	1	-1E+10	1	-1E+10	1	-1E+10	1	-1E+10	1
4902549	39	C	09/05/2021	10:58	-131.885	47.194	0	1415.30	0	2.5800	0	34.4780	0	27.514	0	1398.775	0	15.1	4	4.6	4	-1E+10	1	-1E+10	1	-1E+10	1	-1E+10	1	-1E+10	1	-1E+10	1
4902549	39	C	09/05/2021	10:58	-131.885	47.194	0	1425.20	0	2.5660	0	34.4810	0	27.518	0	1408.526	0	15.6	4	4.8	4	-1E+10	1	-1E+10	1	-1E+10	1	-1E+10	1	-1E+10	1	-1E+10	1
4902549	39	C	09/05/2021	10:58	-131.885	47.194	0	1435.30	0	2.5480	0	34.4850	0	27.522	0	1418.474	0	16.0	4	4.9	4	-1E+10	1	-1E+10	1	-1E+10	1	-1E+10	1	-1E+10	1	-1E+10	1
4902549	39	C	09/05/2021	10:58	-131.885	47.194	0	1445.60	0	2.5280	0	34.4860	0	27.525	0	1428.618	0	16.5	4	5.0	4	-1E+10	1	-1E+10	1	-1E+10	1	-1E+10	1	-1E+10	1	-1E+10	1
4902549	39	C	09/05/2021	10:58	-131.885	47.194	0	1455.30	0	2.5110	0	34.4890	0	27.529	0	1438.172	0	16.8	4	5.1	4	-1E+10	1	-1E+10	1	-1E+10	1	-1E+10	1	-1E+10	1	-1E+10	1
4902549	39	C	09/05/2021	10:58	-131.885	47.194	0	1465.60	0	2.5010	0	34.4900	0	27.530	0	1448.315	0	17.3	4	5.3	4	-1E+10	1	-1E+10	1	-1E+10	1	-1E+10	1	-1E+10	1	-1E+10	1
4902549	39	C	09/05/2021	10:58	-131.885	47.194	0	1475.50	0	2.4800	0	34.4930	0	27.535	0	1458.064	0	18.0	4	5.5	4	-1E+10	1	-1E+10	1	-1E+10	1	-1E+10	1	-1E+10	1	-1E+10	1
4902549	39	C	09/05/2021	10:58	-131.885	47.194	0	1485.30	0	2.4690	0	34.4960	0	27.538	0	1467.714	0	18.4	4	5.6	4	-1E+10	1	-1E+10	1	-1E+10	1	-1E+10	1	-1E+10	1	-1E+10	1
4902549	39	C	09/05/2021	10:58	-131.885	47.194	0	1495.30	0	2.4640	0	34.4970	0	27.539	0	1477.561	0	18.7	4	5.7	4	-1E+10	1	-1E+10	1	-1E+10	1	-1E+10	1	-1E+10	1	-1E+10	1
4902549	39	C	09/05/2021	10:58	-131.885	47.194	0	1505.40	0	2.4540	0	34.4990	0	27.542	0	1487.506	0	19.2	4	5.8	4	-1E+10	1	-1E+10	1	-1E+10	1	-1E+10	1	-1E+10	1	-1E+10	1
4902549	39	C	09/05/2021	10:58	-131.885	47.194	0	1515.50	0	2.4320	0	34.5000	0	27.544	0	1497.450	0	19.5	4	5.9	4	-1E+10	1	-1E+10	1	-1E+10	1	-1E+10	1	-1E+10	1	-1E+10	1
4902549	39	C	09/05/2021	10:58	-131.885	47.194	0	1525.30	0	2.4170	0	34.5020	0	27.547	0	1507.098	0	20.0	4	6.1	4	-1E+10	1	-1E+10	1	-1E+10	1	-1E+10	1	-1E+10	1	-1E+10	1
4902549	39	C	09/05/2021	10:58	-131.885	47.194	0	1535.40	0	2.4000	0	34.5040	0	27.550	0	1517.041	0	20.8	4	6.3	4	-1E+10	1	-1E+10	1	-1E+10	1	-1E+10	1	-1E+10	1	-1E+10	1
4902549	39	C	09/05/2021	10:58	-131.885	47.194	0	1545.60	0	2.3740	0	34.5080	0	27.556	0	1527.083	0	21.7	4	6.6	4	-1E+10	1	-1E+10	1	-1E+10	1	-1E+10	1	-1E+10	1	-1E+10	1
4902549	39	C	09/05/2021	10:58	-131.885	47.194	0	1555.70	0	2.3560	0	34.5110	0	27.560	0	1537.025	0	22.3	4	6.8	4	-1E+10	1	-1E+10	1	-1E+10	1	-1E+10	1	-1E+10	1	-1E+10	1
4902549	39	C	09/05/2021	10:58	-131.885	47.194	0	1565.50	0	2.3390	0	34.5130	0	27.563	0	1546.671	0	23.0	4	7.0	4	-1E+10	1	-1E+10	1	-1E+10	1	-1E+10	1	-1E+10	1	-1E+10	1
4902549	39	C	09/05/2021	10:58	-131.885	47.194	0	1575.60	0	2.3270	0	34.5150	0	27.565	0	1556.613	0	23.7	4	7.2	4	-1E+10	1	-1E+10	1	-1E+10	1	-1E+10	1	-1E+10	1	-1E+10	1
4902549	39	C	09/05/2021	10:58	-131.885	47.194	0	1585.80	0	2.3210	0	34.5180	0	27.568	0	1566.652	0	24.1	4	7.3	4	-1E+10	1	-1E+10	1	-1E+10	1	-1E+10	1	-1E+10	1	-1E+10	1
4902549	39	C	09/05/2021	10:58	-131.885	47.194	0	1595.80	0	2.3110	0	34.5180	0	27.569	0	1576.494	0	24.4	4	7.4	4	-1E+10	1	-1E+10	1	-1E+10	1	-1E+10	1	-1E+10	1	-1E+10	1
4902549	39	C	09/05/2021	10:58	-131.885	47.194	0	1605.90	0	2.3020	0	34.5200	0	27.572	0	1586.434	0	25.3	4	7.7	4	-1E+10	1	-1E+10	1	-1E+10	1	-1E+10	1	-1E+10	1	-1E+10	1
4902549	39	C	09/05/2021	10:58	-131.885	47.194	0	1615.20	0	2.3020	0	34.5230	0	27.574	0	1595.586	0	25.9	4	7.9	4	-1E+10	1	-1E+10	1	-1E+10	1	-1E+10	1	-1E+10	1	-1E+10	1
4902549	39	C	09/05/2021	10:58	-131.885	47.194	0	1625.00	0	2.2860	0	34.5240	0	27.576	0	1605.230	0	26.4	4	8.0	4	-1E+10	1	-1E+10	1	-1E+10	1	-1E+10	1	-1E+10	1	-1E+10	1
4902549	39	C	09/05/2021	10:58	-131.885	47.194	0	1635.20	0	2.2640	0	34.5270	0	27.580	0	1615.267	0	27.2	4	8.3	4	-1E+10	1	-1E+10	1	-1E+10	1	-1E+10	1	-1E+10	1	-1E+10	1
4902549	39	C	09/05/2021	10:58	-131.885	47.194	0	1645.50	0	2.2510	0	34.5290	0	27.583	0	1625.402	0	27.8	4	8.4	4	-1E+10	1	-1E+10	1	-1E+10	1	-1E+10	1	-1E+10	1	-1E+10	1
4902549	39	C	09/05/2021	10:58	-131.885	47.194	0	1655.40	0	2.2370	0	34.5300	0	27.585	0	1635.143	0	28.3	4	8.6	4	-1E+10	1	-1E+10	1	-1E+10	1	-1E+10	1	-1E+10	1	-1E+10	1
4902549	39	C	09/05/2021	10:58	-131.885	47.194	0	1665.60	0	2.2290	0	34.5330	0	27.588	0	1645.179	0	29.3	4	8.9	4	-1E+10	1	-1E+10	1	-1E+10	1	-1E+10	1	-1E+10	1	-1E+10	1
4902549	39	C	09/05/2021	10:58	-131.885	47.194	0	1675.70	0	2.2280	0	34.5360	0	27.591	0	1655.116	0	30.5	4	9.2	4	-1E+10	1	-1E+10	1	-1E+10	1	-1E+10	1	-1E+10	1	-1E+10	1
4902549	39	C	09/05/2021	10:58	-131.885	47.194	0	1685.30	0	2.2310	0	34.5390	0	27.593	0	1664.560	0	31.5	4	9.6	4	-1E+10	1	-1E+10	1	-1E+10	1	-1E+10	1	-1E+10	1	-1E+10	1
4902549	39	C	09/05/2021	10:58	-131.885	47.194	0	1695.20	0	2.2220	0	34.5410	0	27.595	0	1674.299	0	32.1	4	9.7	4	-1E+10	1	-1E+10	1	-1E+10	1	-1E+10	1	-1E+10	1	-1E+10	1
4902549	39	C	09/05/2021	10:58	-131.885	47.194	0	1705.30	0	2.2100	0	34.5430	0	27.598	0	1684.235	0	32.8	4	9.9	4	-1E+10	1	-1E+10	1	-1E+10	1	-1E+10	1	-1E+10	1	-1E+10	1
4902549	39	C	09/05/2021	10:58	-131.885	47.194	0	1715.40	0	2.1970	0	34.5450	0	27.601	0	1694.170	0	33.4	4	10.1	4	-1E+10	1	-1E+10	1	-1E+10	1	-1E+10	1	-1E+10	1	-1E+10	1
4902549	39	C	09/05/2021	10:58	-131.885	47.194	0	1725.50	0	2.1860	0	34.5470	0	27.603	0	1704.104	0	34.0	4	10.3	4	-1E+10	1	-1E+10	1	-1E+10	1	-1E+10	1	-1E+10	1	-1E+10	1
4902549	39	C	09/05/2021	10:58	-131.885	47.194	0	1735.10	0	2.1750	0	34.5480	0	27.605	0	1713.546	0	34.6	4	10.5	4	-1E+10	1	-1E+10	1	-1E+10	1	-1E+10	1	-1E+10	1	-1E+10	1
4902549	39	C	09/05/2021	10:58	-131.885	47.194	0	1745.40	0	2.1600	0	34.5500	0	27.608	0	1723.676	0	35.2	4	10.7	4	-1E+10	1	-1E+10	1	-1E+10	1	-1E+10	1	-1E+10	1	-1E+10	1
4902549	39	C	09/05/2021	10:58	-131.885	47.194	0	1755.80	0	2.1500	0	34.5510	0	27.609	0	1733.905	0	35.7	4	10.8	4	-1E+10	1	-1E+10	1	-1E+10	1	-1E+10	1	-1E+10	1	-1E+10	1
4902549	39	C	09/05/2021	10:58	-131.885	47.194	0	1765.80	0	2.1430	0	34.5530	0	27.612	0	1743.739	0	36.2	4	10.9	4	-1E+10	1	-1E+10	1	-1E+10	1	-1E+10	1	-1E+10	1	-1E+10	1
4902549	39	C	09/05/2021	10:58	-131.885	47.194	0	1775.90	0	2.1350	0	34.5540	0	27.613	0	1753.671	0	36.7	4	11.1	4	-1E+10	1	-1E+10	1	-1E+10	1	-1E+10	1	-1E+10	1	-1E+10	1
4902549	39	C	09/05/2021	10:58	-131.885	47.194	0	1785.40	0	2.1290	0	34.5550	0	27.615	0	1763.013	0	37.1	4	11.2	4	-1E+10	1	-1E+10	1	-1E+10	1	-1E+10	1	-1E+10	1	-1E+10	1
4902549	39	C	09/05/2021	10:58	-131.885	47.194	0	1795.00	0	2.1220	0	34.5560	0	27.616	0	1772.452	0	37.7	4	11.4	4	-1E+10	1	-1E+10	1	-1E+10	1	-1E+10	1	-1E+10	1	-1E+10	1
4902549	39	C	09/05/2021	10:58	-131.885	47.194	0	1805.10	0	2.1150	0	34.5570	0	27.617	0	1782.383	0	38.4	4	11.6	4	-1E+10	1	-1E+10	1	-1E+10	1	-1E+10	1	-1E+10	1	-1E+10	1
4902549	39	C	09/05/2021	10:58	-131.885	47.194	0	1815.00	0	2.1040	0	34.5590	0	27.620	0	1792.117	0	39.1	4	11.8	4	-1E+10	1	-1E+10	1	-1E+10	1	-1E+10	1	-1E+10	1	-1E+10	1
4902549	39	C	09/05/2021	10:58	-131.885	47.194	0	1825.30	0	2.0930	0	34.5610	0	27.622	0	1802.243	0	39.8	4	12.0	4	-1E+10	1	-1E+10	1	-1E+10	1	-1E+10	1	-1E+10	1	-1E+10	1
4902549	39	C	09/05/2021	10:58	-131.885	47.194	0	1835.50	0	2.0810	0	34.5630	0	27.625	0	1812.271	0	40.4	4	12.2	4	-1E+10	1	-1E+10	1	-1E+10	1	-1E+10	1	-1E+10	1	-1E+10	1
4902549	39	C	09/05/2021	10:58	-131.885	47.194	0	1845.60	0	2.0710	0	34.5640	0	27.627	0	1822.200	0	41.1	4	12.4	4	-1E+10	1	-1E+10	1	-1E+10	1	-1E+10	1	-1E+10	1	-1E+10	1
4902549	39	C	09/05/2021	10:58	-131.885	47.194	0	1855.60	0	2.0600	0	34.5660	0	27.629	0	1832.030	0	41.9	4	12.7	4	-1E+10	1	-1E+10	1	-1E+10	1	-1E+10	1	-1E+10	1	-1E+10	1
4902549	39	C	09/05/2021	10:58	-131.885	47.194	0	1865.20	0	2.0510	0	34.5670	0	27.631	0	1841.466	0	42.5	4	12.8	4	-1E+10	1	-1E+10	1	-1E+10	1	-1E+10	1	-1E+10	1	-1E+10	1
4902549	39	C	09/05/2021	10:58	-131.885	47.194	0	1875.40	0	2.0400	0	34.5690	0	27.633	0	1851.492	0	43.1	4	13.0	4	-1E+10	1	-1E+10	1	-1E+10	1	-1E+10	1	-1E+10	1	-1E+10	1
4902549	39	C	09/05/2021	10:58	-131.885	47.194	0	1885.70	0	2.0340	0	34.5700	0	27.635	0	1861.616	0	43.7	4	13.2	4	-1E+10	1	-1E+10	1	-1E+10	1	-1E+10	1	-1E+10	1	-1E+10	1
4902549	39	C	09/05/2021	10:58	-131.885	47.194	0	1895.70	0	2.0260	0	34.5710	0	27.636	0	1871.444	0	44.5	4	13.4	4	-1E+10	1	-1E+10	1	-1E+10	1	-1E+10	1	-1E+10	1	-1E+10	1
4902549	39	C	09/05/2021	10:58	-131.885	47.194	0	1905.70	0	2.0110	0	34.5740	0	27.640	0	1881.272	0	45.4	4	13.7	4	-1E+10	1	-1E+10	1	-1E+10	1	-1E+10	1	-1E+10	1	-1E+10	1
4902549	39	C	09/05/2021	10:58	-131.885	47.194	0	1915.40	0	2.0030	0	34.5750	0	27.641	0	1890.805	0	45.9	4	13.8	4	-1E+10	1	-1E+10	1	-1E+10	1	-1E+10	1	-1E+10	1	-1E+10	1
4902549	39	C	09/05/2021	10:58	-131.885	47.194	0	1925.70	0	1.9970	0	34.5760	0	27.642	0	1900.926	0	46.4	4	14.0	4	-1E+10	1	-1E+10	1	-1E+10	1	-1E+10	1	-1E+10	1	-1E+10	1
4902549	39	C	09/05/2021	10:58	-131.885	47.194	0	1935.60	0	1.9900	0	34.5780	0	27.645	0	1910.655	0	46.9	4	14.2	4	-1E+10	1	-1E+10	1	-1E+10	1	-1E+10	1	-1E+10	1	-1E+10	1
4902549	39	C	09/05/2021	10:58	-131.885	47.194	0	1945.60	0	1.9820	0	34.5790	0	27.646	0	1920.481	0	47.4	4	14.3	4	-1E+10	1	-1E+10	1	-1E+10	1	-1E+10	1	-1E+10	1	-1E+10	1
4902549	39	C	09/05/2021	10:58	-131.885	47.194	0	1955.60	0	1.9780	0	34.5800	0	27.647	0	1930.306	0	47.9	4	14.4	4	-1E+10	1	-1E+10	1	-1E+10	1	-1E+10	1	-1E+10	1	-1E+10	1
4902549	39	C	09/05/2021	10:58	-131.885	47.194	0	1965.20	0	1.9730	0	34.5810	0	27.648	0	1939.738	0	48.4	4	14.6	4	-1E+10	1	-1E+10	1	-1E+10	1	-1E+10	1	-1E+10	1	-1E+10	1
4902549	39	C	09/05/2021	10:58	-131.885	47.194	0	1975.20	0	1.9650	0	34.5820	0	27.650	0	1949.563	0	49.1	4	14.8	4	-1E+10	1	-1E+10	1	-1E+10	1	-1E+10	1	-1E+10	1	-1E+10	1
4902549	39	C	09/05/2021	10:58	-131.885	47.194	0	1985.60	0	1.9570	0	34.5830	0	27.651	0	1959.780	0	49.7	4	15.0	4	-1E+10	1	-1E+10	1	-1E+10	1	-1E+10	1	-1E+10	1	-1E+10	1
4902549	39	C	09/05/2021	10:58	-131.885	47.194	0	1993.00	0	1.9520	0	34.5840	0	27.653	0	1967.050	0	50.0	4	15.1	4	-1E+10	1	-1E+10	1	-1E+10	1	-1E+10	1	-1E+10	1	-1E+10	1
4902549	39	C	09/05/2021	10:58	-131.885	47.194	0																										
4902549	40	C	09/15/2021	16:06	-131.915	47.163	0	0.20	0	16.8480	0	32.2810	0	23.465	0	0.198	0	237.1	4	97.4	4	-1E+10	1	-1E+10	1	-1E+10	1	-1E+10	1	-1E+10	1	-1E+10	1
4902549	40	C	09/15/2021	16:06	-131.915	47.163	0	0.90	0	16.8440	0	32.2830	0	23.467	0	0.893	0	236.9	4	97.3	4	-1E+10	1	-1E+10	1	-1E+10	1	-1E+10	1	-1E+10	1	-1E+10	1
4902549	40	C	09/15/2021	16:06	-131.915	47.163	0	1.80	0	16.8390	0	32.2870	0	23.471	0	1.785	0	237.0	4	97.3	4	-1E+10	1	-1E+10	1	-1E+10	1	-1E+10	1	-1E+10	1	-1E+10	1
4902549	40	C	09/15/2021	16:06	-131.915	47.163	0	2.70	0	16.8420	0	32.2870	0	23.471	0	2.678	0	237.1	4	97.3	4	-1E+10	1	-1E+10	1	-1E+10	1	-1E+10	1	-1E+10	1	-1E+10	1
4902549	40	C	09/15/2021	16:06	-131.915	47.163	0	3.70	0	16.8440	0	32.2850	0	23.469	0	3.669	0	236.9	4	97.3	4	-1E+10	1	-1E+10	1	-1E+10	1	-1E+10	1	-1E+10	1	-1E+10	1
4902549	40	C	09/15/2021	16:06	-131.915	47.163	0	5.10	0	16.8430	0	32.2870	0	23.471	0	5.058	0	236.9	4	97.3	4	-1E+10	1	-1E+10	1	-1E+10	1	-1E+10	1	-1E+10	1	-1E+10	1
4902549	40	C	09/15/2021	16:06	-131.915	47.163	0	6.00	0	16.8450	0	32.2870	0	23.470	0	5.950	0	237.0	4	97.3	4	-1E+10	1	-1E+10	1	-1E+10	1	-1E+10	1	-1E+10	1	-1E+10	1
4902549	40	C	09/15/2021	16:06	-131.915	47.163	0	6.90	0	16.8410	0	32.2870	0	23.471	0	6.843	0	237.0	4	97.3	4	-1E+10	1	-1E+10	1	-1E+10	1	-1E+10	1	-1E+10	1	-1E+10	1
4902549	40	C	09/15/2021	16:06	-131.915	47.163	0	8.00	0	16.8410	0	32.2870	0	23.471	0	7.933	0	237.0	4	97.3	4	-1E+10	1	-1E+10	1	-1E+10	1	-1E+10	1	-1E+10	1	-1E+10	1
4902549	40	C	09/15/2021	16:06	-131.915	47.163	0	9.20	0	16.8390	0	32.2880	0	23.473	0	9.123	0	237.0	4	97.3	4	-1E+10	1	-1E+10	1	-1E+10	1	-1E+10	1	-1E+10	1	-1E+10	1
4902549	40	C	09/15/2021	16:06	-131.915	47.163	0	9.90	0	16.8410	0	32.2870	0	23.471	0	9.817	0	237.1	4	97.3	4	-1E+10	1	-1E+10	1	-1E+10	1	-1E+10	1	-1E+10	1	-1E+10	1
4902549	40	C	09/15/2021	16:06	-131.915	47.163	0	11.00	0	16.8440	0	32.2880	0	23.471	0	10.908	0	237.2	4	97.4	4	-1E+10	1	-1E+10	1	-1E+10	1	-1E+10	1	-1E+10	1	-1E+10	1
4902549	40	C	09/15/2021	16:06	-131.915	47.163	0	11.80	0	16.8420	0	32.2880	0	23.472	0	11.702	0	237.2	4	97.4	4	-1E+10	1	-1E+10	1	-1E+10	1	-1E+10	1	-1E+10	1	-1E+10	1
4902549	40	C	09/15/2021	16:06	-131.915	47.163	0	12.80	0	16.8430	0	32.2860	0	23.470	0	12.693	0	237.3	4	97.4	4	-1E+10	1	-1E+10	1	-1E+10	1	-1E+10	1	-1E+10	1	-1E+10	1
4902549	40	C	09/15/2021	16:06	-131.915	47.163	0	13.70	0	16.8410	0	32.2870	0	23.471	0	13.586	0	237.3	4	97.4	4	-1E+10	1	-1E+10	1	-1E+10	1	-1E+10	1	-1E+10	1	-1E+10	1
4902549	40	C	09/15/2021	16:06	-131.915	47.163	0	14.80	0	16.8440	0	32.2860	0	23.470	0	14.676	0	237.4	4	97.4	4	-1E+10	1	-1E+10	1	-1E+10	1	-1E+10	1	-1E+10	1	-1E+10	1
4902549	40	C	09/15/2021	16:06	-131.915	47.163	0	15.90	0	16.8430	0	32.2870	0	23.471	0	15.767	0	237.4	4	97.4	4	-1E+10	1	-1E+10	1	-1E+10	1	-1E+10	1	-1E+10	1	-1E+10	1
4902549	40	C	09/15/2021	16:06	-131.915	47.163	0	17.10	0	16.8440	0	32.2870	0	23.471	0	16.957	0	237.4	4	97.5	4	-1E+10	1	-1E+10	1	-1E+10	1	-1E+10	1	-1E+10	1	-1E+10	1
4902549	40	C	09/15/2021	16:06	-131.915	47.163	0	18.00	0	16.8470	0	32.2880	0	23.471	0	17.850	0	237.4	4	97.5	4	-1E+10	1	-1E+10	1	-1E+10	1	-1E+10	1	-1E+10	1	-1E+10	1
4902549	40	C	09/15/2021	16:06	-131.915	47.163	0	19.00	0	16.8450	0	32.2870	0	23.471	0	18.841	0	237.4	4	97.5	4	-1E+10	1	-1E+10	1	-1E+10	1	-1E+10	1	-1E+10	1	-1E+10	1
4902549	40	C	09/15/2021	16:06	-131.915	47.163	0	20.10	0	16.8470	0	32.2880	0	23.471	0	19.932	0	237.6	4	97.6	4	-1E+10	1	-1E+10	1	-1E+10	1	-1E+10	1	-1E+10	1	-1E+10	1
4902549	40	C	09/15/2021	16:06	-131.915	47.163	0	21.10	0	16.8450	0	32.2870	0	23.471	0	20.923	0	237.6	4	97.5	4	-1E+10	1	-1E+10	1	-1E+10	1	-1E+10	1	-1E+10	1	-1E+10	1
4902549	40	C	09/15/2021	16:06	-131.915	47.163	0	22.10	0	16.8470	0	32.2870	0	23.470	0	21.915	0	237.7	4	97.6	4	-1E+10	1	-1E+10	1	-1E+10	1	-1E+10	1	-1E+10	1	-1E+10	1
4902549	40	C	09/15/2021	16:06	-131.915	47.163	0	23.10	0	16.8470	0	32.2870	0	23.470	0	22.907	0	237.7	4	97.6	4	-1E+10	1	-1E+10	1	-1E+10	1	-1E+10	1	-1E+10	1	-1E+10	1
4902549	40	C	09/15/2021	16:06	-131.915	47.163	0	24.10	0	16.8480	0	32.2870	0	23.470	0	23.898	0	237.9	4	97.7	4	-1E+10	1	-1E+10	1	-1E+10	1	-1E+10	1	-1E+10	1	-1E+10	1
4902549	40	C	09/15/2021	16:06	-131.915	47.163	0	24.90	0	16.8470	0	32.2880	0	23.471	0	24.691	0	238.1	4	97.8	4	-1E+10	1	-1E+10	1	-1E+10	1	-1E+10	1	-1E+10	1	-1E+10	1
4902549	40	C	09/15/2021	16:06	-131.915	47.163	0	26.10	0	16.8470	0	32.2870	0	23.471	0	25.881	0	238.4	4	97.9	4	-1E+10	1	-1E+10	1	-1E+10	1	-1E+10	1	-1E+10	1	-1E+10	1
4902549	40	C	09/15/2021	16:06	-131.915	47.163	0	27.10	0	16.8470	0	32.2880	0	23.471	0	26.873	0	238.7	4	98.0	4	-1E+10	1	-1E+10	1	-1E+10	1	-1E+10	1	-1E+10	1	-1E+10	1
4902549	40	C	09/15/2021	16:06	-131.915	47.163	0	28.10	0	16.8500	0	32.2880	0	23.471	0	27.864	0	239.1	4	98.2	4	-1E+10	1	-1E+10	1	-1E+10	1	-1E+10	1	-1E+10	1	-1E+10	1
4902549	40	C	09/15/2021	16:06	-131.915	47.163	0	28.80	0	16.8480	0	32.2870	0	23.470	0	28.559	0	239.8	4	98.5	4	-1E+10	1	-1E+10	1	-1E+10	1	-1E+10	1	-1E+10	1	-1E+10	1
4902549	40	C	09/15/2021	16:06	-131.915	47.163	0	30.00	0	16.8480	0	32.2860	0	23.470	0	29.748	0	241.2	4	99.0	4	-1E+10	1	-1E+10	1	-1E+10	1	-1E+10	1	-1E+10	1	-1E+10	1
4902549	40	C	09/15/2021	16:06	-131.915	47.163	0	31.00	0	16.1570	0	32.3040	0	23.641	0	30.740	0	254.2	4	103.0	4	-1E+10	1	-1E+10	1	-1E+10	1	-1E+10	1	-1E+10	1	-1E+10	1
4902549	40	C	09/15/2021	16:06	-131.915	47.163	0	32.00	0	14.3030	0	32.3100	0	24.048	0	31.731	0	274.4	4	107.2	4	-1E+10	1	-1E+10	1	-1E+10	1	-1E+10	1	-1E+10	1	-1E+10	1
4902549	40	C	09/15/2021	16:06	-131.915	47.163	0	33.10	0	13.1190	0	32.3070	0	24.286	0	32.822	0	278.1	4	106.1	4	-1E+10	1	-1E+10	1	-1E+10	1	-1E+10	1	-1E+10	1	-1E+10	1
4902549	40	C	09/15/2021	16:06	-131.915	47.163	0	34.00	0	12.7120	0	32.3130	0	24.369	0	33.715	0	278.0	4	105.1	4	-1E+10	1	-1E+10	1	-1E+10	1	-1E+10	1	-1E+10	1	-1E+10	1
4902549	40	C	09/15/2021	16:06	-131.915	47.163	0	34.90	0	12.2800	0	32.3350	0	24.469	0	34.607	0	279.3	4	104.7	4	-1E+10	1	-1E+10	1	-1E+10	1	-1E+10	1	-1E+10	1	-1E+10	1
4902549	40	C	09/15/2021	16:06	-131.915	47.163	0	36.10	0	12.1400	0	32.3230	0	24.486	0	35.797	0	279.8	4	104.6	4	-1E+10	1	-1E+10	1	-1E+10	1	-1E+10	1	-1E+10	1	-1E+10	1
4902549	40	C	09/15/2021	16:06	-131.915	47.163	0	37.10	0	11.9850	0	32.3240	0	24.516	0	36.788	0	280.3	4	104.5	4	-1E+10	1	-1E+10	1	-1E+10	1	-1E+10	1	-1E+10	1	-1E+10	1
4902549	40	C	09/15/2021	16:06	-131.915	47.163	0	37.90	0	11.8700	0	32.3300	0	24.542	0	37.581	0	280.3	4	104.2	4	-1E+10	1	-1E+10	1	-1E+10	1	-1E+10	1	-1E+10	1	-1E+10	1
4902549	40	C	09/15/2021	16:06	-131.915	47.163	0	39.10	0	11.5980	0	32.3510	0	24.608	0	38.771	0	280.9	4	103.9	4	-1E+10	1	-1E+10	1	-1E+10	1	-1E+10	1	-1E+10	1	-1E+10	1
4902549	40	C	09/15/2021	16:06	-131.915	47.163	0	40.00	0	11.4890	0	32.3340	0	24.614	0	39.664	0	281.7	4	103.9	4	-1E+10	1	-1E+10	1	-1E+10	1	-1E+10	1	-1E+10	1	-1E+10	1
4902549	40	C	09/15/2021	16:06	-131.915	47.163	0	41.20	0	11.4500	0	32.3350	0	24.622	0	40.853	0	281.5	4	103.7	4	-1E+10	1	-1E+10	1	-1E+10	1	-1E+10	1	-1E+10	1	-1E+10	1
4902549	40	C	09/15/2021	16:06	-131.915	47.163	0	41.90	0	11.4480	0	32.3350	0	24.623	0	41.547	0	281.1	4	103.6	4	-1E+10	1	-1E+10	1	-1E+10	1	-1E+10	1	-1E+10	1	-1E+10	1
4902549	40	C	09/15/2021	16:06	-131.915	47.163	0	43.00	0	11.4340	0	32.3350	0	24.625	0	42.638	0	280.7	4	103.4	4	-1E+10	1	-1E+10	1	-1E+10	1	-1E+10	1	-1E+10	1	-1E+10	1
4902549	40	C	09/15/2021	16:06	-131.915	47.163	0	44.00	0	11.3780	0	32.3400	0	24.639	0	43.629	0	280.4	4	103.2	4	-1E+10	1	-1E+10	1	-1E+10	1	-1E+10	1	-1E+10	1	-1E+10	1
4902549	40	C	09/15/2021	16:06	-131.915	47.163	0	45.00	0	11.2610	0	32.3350	0	24.656	0	44.621	0	280.4	4	102.9	4	-1E+10	1	-1E+10	1	-1E+10	1	-1E+10	1	-1E+10	1	-1E+10	1
4902549	40	C	09/15/2021	16:06	-131.915	47.163	0	46.10	0	11.0730	0	32.3370	0	24.691	0	45.712	0	280.3	4	102.5	4	-1E+10	1	-1E+10	1	-1E+10	1	-1E+10	1	-1E+10	1	-1E+10	1
4902549	40	C	09/15/2021	16:06	-131.915	47.163	0	46.90	0	10.8980	0	32.3380	0	24.723	0	46.505	0	280.5	4	102.2	4	-1E+10	1	-1E+10	1	-1E+10	1	-1E+10	1	-1E+10	1	-1E+10	1
4902549	40	C	09/15/2021	16:06	-131.915	47.163	0	48.20	0	10.7380	0	32.3410	0	24.753	0	47.794	0	279.9	4	101.6	4	-1E+10	1	-1E+10	1	-1E+10	1	-1E+10	1	-1E+10	1	-1E+10	1
4902549	40	C	09/15/2021	16:06	-131.915	47.163	0	49.10	0	10.6930	0	32.3420	0	24.761	0	48.686	0	279.5	4	101.4	4	-1E+10	1	-1E+10	1	-1E+10	1	-1E+10	1	-1E+10	1	-1E+10	1
4902549	40	C	09/15/2021	16:06	-131.915	47.163	0	49.90	0	10.6380	0	32.3420	0	24.771	0	49.479	0	279.0	4	101.1	4	-1E+10	1	-1E+10	1	-1E+10	1	-1E+10	1	-1E+10	1	-1E+10	1
4902549	40	C	09/15/2021	16:06	-131.915	47.163	0	51.00	0	10.5300	0	32.3460	0	24.792	0	50.570	0	278.6	4	100.7	4	-1E+10	1	-1E+10	1	-1E+10	1	-1E+10	1	-1E+10	1	-1E+10	1
4902549	40	C	09/15/2021	16:06	-131.915	47.163	0	51.90	0	10.4750	0	32.3440	0	24.800	0	51.462	0	278.0	4	100.4	4	-1E+10	1	-1E+10	1	-1E+10	1	-1E+10	1	-1E+10	1	-1E+10	1
4902549	40	C	09/15/2021	16:06	-131.915	47.163	0	52.90	0	10.2620	0	32.3460	0	24.838	0	52.453	0	278.1	4	99.9	4	-1E+10	1	-1E+10	1	-1E+10	1	-1E+10	1	-1E+10	1	-1E+10	1
4902549	40	C	09/15/2021	16:06	-131.915	47.163	0	54.10	0	10.2040	0	32.3470	0	24.848	0	53.643	0	277.2	4	99.5	4	-1E+10	1	-1E+10	1	-1E+10	1	-1E+10	1	-1E+10	1	-1E+10	1
4902549	40	C	09/15/2021	16:06	-131.915	47.163	0	54.80	0	10.1920	0	32.3440	0	24.848	0	54.337	0	276.2	4	99.1	4	-1E+10	1	-1E+10	1	-1E+10	1	-1E+10	1	-1E+10	1	-1E+10	1
4902549	40	C	09/15/2021	16:06	-131.915	47.163	0	55.80	0	10.0430	0	32.3390	0	24.869	0	55.329	0	275.5	4	98.5	4	-1E+10	1	-1E+10	1	-1E+10	1	-1E+10	1	-1E+10	1	-1E+10	1
4902549	40	C	09/15/2021	16:06	-131.915	47.163	0	56.80	0	9.8500	0	32.3590	0	24.916	0	56.320	0	275.2	4	98.0	4	-1E+10	1	-1E+10	1	-1E+10	1	-1E+10	1	-1E+10	1	-1E+10	1
4902549	40	C	09/15/2021	16:06	-131.915	47.163	0	58.00	0	9.7650	0	32.3570	0	24.929	0	57.510	0	274.0	4	97.4	4	-1E+10	1	-1E+10	1	-1E+10	1	-1E+10	1	-1E+10	1	-1E+10	1
4902549	40	C	09/15/2021	16:06	-131.915	47.163	0	58.70	0	9.6460	0	32.3690	0	24.958	0	58.204	0	273.6	4	97.0	4	-1E+10	1	-1E+10	1	-1E+10	1	-1E+10	1	-1E+10	1	-1E+10	1
4902549	40	C	09/15/2021	16:06	-131.915	47.163	0	60.00	0	9.2950	0	32.3760	0	25.019	0	59.492	0	274.4	4	96.6	4	-1E+10	1	-1E+10	1	-1E+10	1	-1E+10	1	-1E+10	1	-1E+10	1
4902549	40	C	09/15/2021	16:06	-131.915	47.163	0	61.10	0	9.0720	0	32.3780	0	25.056	0	60.583	0	273.8	4	95.9	4	-1E+10	1	-1E+10	1	-1E+10	1	-1E+10	1	-1E+10	1	-1E+10	1
4902549	40	C	09/15/2021	16:06	-131.915	47.163	0	62.00	0	8.8420	0	32.3910	0	25.101	0	61.475	0	273.6	4	95.3	4	-1E+10	1	-1E+10	1	-1E+10	1	-1E+10	1	-1E+10	1	-1E+10	1
4902549	40	C	09/15/2021	16:06	-131.915	47.163	0	62.90	0	8.7340	0	32.3930	0	25.119	0	62.367	0	273.0	4	94.9	4	-1E+10	1	-1E+10	1	-1E+10	1	-1E+10	1	-1E+10	1	-1E+10	1
4902549	40	C	09/15/2021	16:06	-131.915	47.163	0	63.80	0	8.6680	0	32.3940	0	25.130	0	63.260	0	272.6	4	94.6	4	-1E+10	1	-1E+10	1	-1E+10	1	-1E+10	1	-1E+10	1	-1E+10	1
4902549	40	C	09/15/2021	16:06	-131.915	47.163	0	64.80	0	8.5940	0	32.3950	0	25.142	0	64.251	0	272.3	4	94.4	4	-1E+10	1	-1E+10	1	-1E+10	1	-1E+10	1	-1E+10	1	-1E+10	1
4902549	40	C	09/15/2021	16:06	-131.915	47.163	0	66.00	0	8.4940	0	32.3990	0	25.160	0	65.441	0	272.1	4	94.1	4	-1E+10	1	-1E+10	1	-1E+10	1	-1E+10	1	-1E+10	1	-1E+10	1
4902549	40	C	09/15/2021	16:06	-131.915	47.163	0	67.30	0	8.4690	0	32.4030	0	25.167	0	66.730	0	271.5	4	93.8	4	-1E+10	1	-1E+10	1	-1E+10	1	-1E+10	1	-1E+10	1	-1E+10	1
4902549	40	C	09/15/2021	16:06	-131.915	47.163	0	68.20	0	8.4200	0	32.4010	0	25.173	0	67.622	0	271.2	4	93.6	4	-1E+10	1	-1E+10	1	-1E+10	1	-1E+10	1	-1E+10	1	-1E+10	1
4902549	40	C	09/15/2021	16:06	-131.915	47.163	0	68.90	0	8.3930	0	32.4000	0	25.176	0	68.316	0	270.9	4	93.5	4	-1E+10	1	-1E+10	1	-1E+10	1	-1E+10	1	-1E+10	1	-1E+10	1
4902549	40	C	09/15/2021	16:06	-131.915	47.163	0	69.90	0	8.3500	0	32.3960	0	25.179	0	69.307	0	270.6	4	93.3	4	-1E+10	1	-1E+10	1	-1E+10	1	-1E+10	1	-1E+10	1	-1E+10	1
4902549	40	C	09/15/2021	16:06	-131.915	47.163	0	70.90	0	8.2480	0	32.4000	0	25.198	0	70.298	0	270.7	4	93.1	4	-1E+10	1	-1E+10	1	-1E+10	1	-1E+10	1	-1E+10	1	-1E+10	1
4902549	40	C	09/15/2021	16:06	-131.915	47.163	0	71.90	0	8.1330	0	32.4050	0	25.218	0	71.290	0	270.9	4	92.9	4	-1E+10	1	-1E+10	1	-1E+10	1	-1E+10	1	-1E+10	1	-1E+10	1
4902549	40	C	09/15/2021	16:06	-131.915	47.163	0	73.00	0	8.0890	0	32.4050	0	25.225	0	72.380	0	270.6	4	92.7	4	-1E+10	1	-1E+10	1	-1E+10	1	-1E+10	1	-1E+10	1	-1E+10	1
4902549	40	C	09/15/2021	16:06	-131.915	47.163	0	74.00	0	8.0510	0	32.4080	0	25.233	0	73.372	0	270.3	4	92.6	4	-1E+10	1	-1E+10	1	-1E+10	1	-1E+10	1	-1E+10	1	-1E+10	1
4902549	40	C	09/15/2021	16:06	-131.915	47.163	0	75.10	0	7.9710	0	32.4100	0	25.246	0	74.462	0	270.3	4	92.4	4	-1E+10	1	-1E+10	1	-1E+10	1	-1E+10	1	-1E+10	1	-1E+10	1
4902549	40	C	09/15/2021	16:06	-131.915	47.163	0	75.90	0	7.9310	0	32.4120	0	25.253	0	75.255	0	270.4	4	92.3	4	-1E+10	1	-1E+10	1	-1E+10	1	-1E+10	1	-1E+10	1	-1E+10	1
4902549	40	C	09/15/2021	16:06	-131.915	47.163	0	76.70	0	7.8940	0	32.4120	0	25.258	0	76.048	0	270.3	4	92.2	4	-1E+10	1	-1E+10	1	-1E+10	1	-1E+10	1	-1E+10	1	-1E+10	1
4902549	40	C	09/15/2021	16:06	-131.915	47.163	0	77.80	0	7.8240	0	32.4160	0	25.272	0	77.139	0	270.4	4	92.1	4	-1E+10	1	-1E+10	1	-1E+10	1	-1E+10	1	-1E+10	1	-1E+10	1
4902549	40	C	09/15/2021	16:06	-131.915	47.163	0	78.90	0	7.8050	0	32.4190	0	25.277	0	78.229	0	270.3	4	92.1	4	-1E+10	1	-1E+10	1	-1E+10	1	-1E+10	1	-1E+10	1	-1E+10	1
4902549	40	C	09/15/2021	16:06	-131.915	47.163	0	79.90	0	7.7580	0	32.4210	0	25.285	0	79.220	0	270.5	4	92.0	4	-1E+10	1	-1E+10	1	-1E+10	1	-1E+10	1	-1E+10	1	-1E+10	1
4902549	40	C	09/15/2021	16:06	-131.915	47.163	0	81.00	0	7.7180	0	32.4200	0	25.290	0	80.311	0	270.5	4	91.9	4	-1E+10	1	-1E+10	1	-1E+10	1	-1E+10	1	-1E+10	1	-1E+10	1
4902549	40	C	09/15/2021	16:06	-131.915	47.163	0	82.00	0	7.6940	0	32.4180	0	25.292	0	81.302	0	270.5	4	91.9	4	-1E+10	1	-1E+10	1	-1E+10	1	-1E+10	1	-1E+10	1	-1E+10	1
4902549	40	C	09/15/2021	16:06	-131.915	47.163	0	83.10	0	7.6810	0	32.4160	0	25.292	0	82.392	0	270.4	4	91.8	4	-1E+10	1	-1E+10	1	-1E+10	1	-1E+10	1	-1E+10	1	-1E+10	1
4902549	40	C	09/15/2021	16:06	-131.915	47.163	0	84.10	0	7.6230	0	32.4150	0	25.299	0	83.384	0	270.5	4	91.7	4	-1E+10	1	-1E+10	1	-1E+10	1	-1E+10	1	-1E+10	1	-1E+10	1
4902549	40	C	09/15/2021	16:06	-131.915	47.163	0	85.10	0	7.5900	0	32.4140	0	25.303	0	84.375	0	270.5	4	91.7	4	-1E+10	1	-1E+10	1	-1E+10	1	-1E+10	1	-1E+10	1	-1E+10	1
4902549	40	C	09/15/2021	16:06	-131.915	47.163	0	86.10	0	7.5580	0	32.4150	0	25.308	0	85.366	0	270.4	4	91.6	4	-1E+10	1	-1E+10	1	-1E+10	1	-1E+10	1	-1E+10	1	-1E+10	1
4902549	40	C	09/15/2021	16:06	-131.915	47.163	0	87.10	0	7.5320	0	32.4160	0	25.313	0	86.358	0	270.4	4	91.5	4	-1E+10	1	-1E+10	1	-1E+10	1	-1E+10	1	-1E+10	1	-1E+10	1
4902549	40	C	09/15/2021	16:06	-131.915	47.163	0	88.10	0	7.5040	0	32.4170	0	25.317	0	87.349	0	270.3	4	91.4	4	-1E+10	1	-1E+10	1	-1E+10	1	-1E+10	1	-1E+10	1	-1E+10	1
4902549	40	C	09/15/2021	16:06	-131.915	47.163	0	89.00	0	7.4930	0	32.4180	0	25.320	0	88.241	0	270.2	4	91.4	4	-1E+10	1	-1E+10	1	-1E+10	1	-1E+10	1	-1E+10	1	-1E+10	1
4902549	40	C	09/15/2021	16:06	-131.915	47.163	0	89.70	0	7.4770	0	32.4200	0	25.323	0	88.935	0	270.2	4	91.3	4	-1E+10	1	-1E+10	1	-1E+10	1	-1E+10	1	-1E+10	1	-1E+10	1
4902549	40	C	09/15/2021	16:06	-131.915	47.163	0	90.80	0	7.4570	0	32.4210	0	25.327	0	90.025	0	270.1	4	91.3	4	-1E+10	1	-1E+10	1	-1E+10	1	-1E+10	1	-1E+10	1	-1E+10	1
4902549	40	C	09/15/2021	16:06	-131.915	47.163	0	91.80	0	7.4210	0	32.4220	0	25.333	0	91.016	0	270.1	4	91.2	4	-1E+10	1	-1E+10	1	-1E+10	1	-1E+10	1	-1E+10	1	-1E+10	1
4902549	40	C	09/15/2021	16:06	-131.915	47.163	0	92.90	0	7.4000	0	32.4210	0	25.335	0	92.107	0	270.1	4	91.1	4	-1E+10	1	-1E+10	1	-1E+10	1	-1E+10	1	-1E+10	1	-1E+10	1
4902549	40	C	09/15/2021	16:06	-131.915	47.163	0	94.10	0	7.3610	0	32.4210	0	25.340	0	93.296	0	269.9	4	91.0	4	-1E+10	1	-1E+10	1	-1E+10	1	-1E+10	1	-1E+10	1	-1E+10	1
4902549	40	C	09/15/2021	16:06	-131.915	47.163	0	94.90	0	7.3200	0	32.4240	0	25.348	0	94.089	0	270.1	4	91.0	4	-1E+10	1	-1E+10	1	-1E+10	1	-1E+10	1	-1E+10	1	-1E+10	1
4902549	40	C	09/15/2021	16:06	-131.915	47.163	0	95.80	0	7.2970	0	32.4260	0	25.353	0	94.981	0	270.1	4	90.9	4	-1E+10	1	-1E+10	1	-1E+10	1	-1E+10	1	-1E+10	1	-1E+10	1
4902549	40	C	09/15/2021	16:06	-131.915	47.163	0	96.90	0	7.2860	0	32.4260	0	25.354	0	96.072	0	269.9	4	90.9	4	-1E+10	1	-1E+10	1	-1E+10	1	-1E+10	1	-1E+10	1	-1E+10	1
4902549	40	C	09/15/2021	16:06	-131.915	47.163	0	98.00	0	7.2820	0	32.4250	0	25.354	0	97.162	0	269.7	4	90.8	4	-1E+10	1	-1E+10	1	-1E+10	1	-1E+10	1	-1E+10	1	-1E+10	1
4902549	40	C	09/15/2021	16:06	-131.915	47.163	0	99.10	0	7.2680	0	32.4260	0	25.357	0	98.252	0	269.5	4	90.7	4	-1E+10	1	-1E+10	1	-1E+10	1	-1E+10	1	-1E+10	1	-1E+10	1
4902549	40	C	09/15/2021	16:06	-131.915	47.163	0	100.00	0	7.2550	0	32.4280	0	25.360	0	99.144	0	269.4	4	90.6	4	-1E+10	1	-1E+10	1	-1E+10	1	-1E+10	1	-1E+10	1	-1E+10	1
4902549	40	C	09/15/2021	16:06	-131.915	47.163	0	100.80	0	7.2320	0	32.4260	0	25.362	0	99.937	0	269.3	4	90.5	4	-1E+10	1	-1E+10	1	-1E+10	1	-1E+10	1	-1E+10	1	-1E+10	1
4902549	40	C	09/15/2021	16:06	-131.915	47.163	0	102.00	0	7.1970	0	32.4280	0	25.368	0	101.127	0	269.1	4	90.4	4	-1E+10	1	-1E+10	1	-1E+10	1	-1E+10	1	-1E+10	1	-1E+10	1
4902549	40	C	09/15/2021	16:06	-131.915	47.163	0	102.90	0	7.1880	0	32.4280	0	25.369	0	102.019	0	268.9	4	90.3	4	-1E+10	1	-1E+10	1	-1E+10	1	-1E+10	1	-1E+10	1	-1E+10	1
4902549	40	C	09/15/2021	16:06	-131.915	47.163	0	103.70	0	7.1500	0	32.4300	0	25.376	0	102.812	0	268.8	4	90.2	4	-1E+10	1	-1E+10	1	-1E+10	1	-1E+10	1	-1E+10	1	-1E+10	1
4902549	40	C	09/15/2021	16:06	-131.915	47.163	0	104.90	0	7.0740	0	32.4360	0	25.391	0	104.001	0	269.0	4	90.1	4	-1E+10	1	-1E+10	1	-1E+10	1	-1E+10	1	-1E+10	1	-1E+10	1
4902549	40	C	09/15/2021	16:06	-131.915	47.163	0	106.00	0	7.0460	0	32.4400	0	25.398	0	105.092	0	268.7	4	90.0	4	-1E+10	1	-1E+10	1	-1E+10	1	-1E+10	1	-1E+10	1	-1E+10	1
4902549	40	C	09/15/2021	16:06	-131.915	47.163	0	107.00	0	6.9910	0	32.4420	0	25.407	0	106.083	0	268.7	4	89.8	4	-1E+10	1	-1E+10	1	-1E+10	1	-1E+10	1	-1E+10	1	-1E+10	1
4902549	40	C	09/15/2021	16:06	-131.915	47.163	0	108.20	0	6.9510	0	32.4460	0	25.415	0	107.272	0	268.5	4	89.7	4	-1E+10	1	-1E+10	1	-1E+10	1	-1E+10	1	-1E+10	1	-1E+10	1
4902549	40	C	09/15/2021	16:06	-131.915	47.163	0	108.90	0	6.9340	0	32.4460	0	25.418	0	107.966	0	268.1	4	89.5	4	-1E+10	1	-1E+10	1	-1E+10	1	-1E+10	1	-1E+10	1	-1E+10	1
4902549	40	C	09/15/2021	16:06	-131.915	47.163	0	110.10	0	6.8950	0	32.4510	0	25.427	0	109.155	0	267.2	4	89.2	4	-1E+10	1	-1E+10	1	-1E+10	1	-1E+10	1	-1E+10	1	-1E+10	1
4902549	40	C	09/15/2021	16:06	-131.915	47.163	0	111.10	0	6.8920	0	32.4600	0	25.434	0	110.147	0	266.6	4	88.9	4	-1E+10	1	-1E+10	1	-1E+10	1	-1E+10	1	-1E+10	1	-1E+10	1
4902549	40	C	09/15/2021	16:06	-131.915	47.163	0	112.00	0	6.8600	0	32.4650	0	25.442	0	111.039	0	266.3	4	88.8	4	-1E+10	1	-1E+10	1	-1E+10	1	-1E+10	1	-1E+10	1	-1E+10	1
4902549	40	C	09/15/2021	16:06	-131.915	47.163	0	112.90	0	6.8140	0	32.4650	0	25.448	0	111.931	0	266.0	4	88.6	4	-1E+10	1	-1E+10	1	-1E+10	1	-1E+10	1	-1E+10	1	-1E+10	1
4902549	40	C	09/15/2021	16:06	-131.915	47.163	0	113.80	0	6.7960	0	32.4640	0	25.450	0	112.823	0	265.3	4	88.3	4	-1E+10	1	-1E+10	1	-1E+10	1	-1E+10	1	-1E+10	1	-1E+10	1
4902549	40	C	09/15/2021	16:06	-131.915	47.163	0	114.90	0	6.7660	0	32.4670	0	25.456	0	113.913	0	264.2	4	87.9	4	-1E+10	1	-1E+10	1	-1E+10	1	-1E+10	1	-1E+10	1	-1E+10	1
4902549	40	C	09/15/2021	16:06	-131.915	47.163	0	116.10	0	6.7360	0	32.4680	0	25.461	0	115.102	0	263.0	4	87.4	4	-1E+10	1	-1E+10	1	-1E+10	1	-1E+10	1	-1E+10	1	-1E+10	1
4902549	40	C	09/15/2021	16:06	-131.915	47.163	0	117.00	0	6.7810	0	32.4780	0	25.463	0	115.994	0	261.8	4	87.1	4	-1E+10	1	-1E+10	1	-1E+10	1	-1E+10	1	-1E+10	1	-1E+10	1
4902549	40	C	09/15/2021	16:06	-131.915	47.163	0	117.90	0	6.8710	0	32.4860	0	25.458	0	116.886	0	260.4	4	86.9	4	-1E+10	1	-1E+10	1	-1E+10	1	-1E+10	1	-1E+10	1	-1E+10	1
4902549	40	C	09/15/2021	16:06	-131.915	47.163	0	118.90	0	6.9560	0	32.5120	0	25.467	0	117.877	0	259.1	4	86.6	4	-1E+10	1	-1E+10	1	-1E+10	1	-1E+10	1	-1E+10	1	-1E+10	1
4902549	40	C	09/15/2021	16:06	-131.915	47.163	0	119.90	0	6.9980	0	32.5210	0	25.468	0	118.868	0	257.9	4	86.3	4	-1E+10	1	-1E+10	1	-1E+10	1	-1E+10	1	-1E+10	1	-1E+10	1
4902549	40	C	09/15/2021	16:06	-131.915	47.163	0	120.90	0	6.9470	0	32.5340	0	25.485	0	119.860	0	257.4	4	86.1	4	-1E+10	1	-1E+10	1	-1E+10	1	-1E+10	1	-1E+10	1	-1E+10	1
4902549	40	C	09/15/2021	16:06	-131.915	47.163	0	122.00	0	6.8860	0	32.5470	0	25.504	0	120.950	0	256.8	4	85.7	4	-1E+10	1	-1E+10	1	-1E+10	1	-1E+10	1	-1E+10	1	-1E+10	1
4902549	40	C	09/15/2021	16:06	-131.915	47.163	0	123.20	0	6.8460	0	32.5450	0	25.507	0	122.139	0	255.1	4	85.1	4	-1E+10	1	-1E+10	1	-1E+10	1	-1E+10	1	-1E+10	1	-1E+10	1
4902549	40	C	09/15/2021	16:06	-131.915	47.163	0	123.80	0	6.8180	0	32.5450	0	25.511	0	122.734	0	254.0	4	84.6	4	-1E+10	1	-1E+10	1	-1E+10	1	-1E+10	1	-1E+10	1	-1E+10	1
4902549	40	C	09/15/2021	16:06	-131.915	47.163	0	124.90	0	6.7850	0	32.5500	0	25.519	0	123.824	0	252.5	4	84.1	4	-1E+10	1	-1E+10	1	-1E+10	1	-1E+10	1	-1E+10	1	-1E+10	1
4902549	40	C	09/15/2021	16:06	-131.915	47.163	0	126.20	0	6.8020	0	32.5730	0	25.535	0	125.112	0	248.6	4	82.9	4	-1E+10	1	-1E+10	1	-1E+10	1	-1E+10	1	-1E+10	1	-1E+10	1
4902549	40	C	09/15/2021	16:06	-131.915	47.163	0	127.00	0	6.8230	0	32.5760	0	25.535	0	125.905	0	246.4	4	82.2	4	-1E+10	1	-1E+10	1	-1E+10	1	-1E+10	1	-1E+10	1	-1E+10	1
4902549	40	C	09/15/2021	16:06	-131.915	47.163	0	127.80	0	6.8290	0	32.5830	0	25.540	0	126.698	0	243.2	4	81.1	4	-1E+10	1	-1E+10	1	-1E+10	1	-1E+10	1	-1E+10	1	-1E+10	1
4902549	40	C	09/15/2021	16:06	-131.915	47.163	0	128.80	0	6.8330	0	32.5890	0	25.544	0	127.689	0	239.0	4	79.7	4	-1E+10	1	-1E+10	1	-1E+10	1	-1E+10	1	-1E+10	1	-1E+10	1
4902549	40	C	09/15/2021	16:06	-131.915	47.163	0	130.00	0	6.8340	0	32.6130	0	25.563	0	128.878	0	234.1	4	78.1	4	-1E+10	1	-1E+10	1	-1E+10	1	-1E+10	1	-1E+10	1	-1E+10	1
4902549	40	C	09/15/2021	16:06	-131.915	47.163	0	131.30	0	7.0820	0	32.7450	0	25.634	0	130.167	0	229.0	4	76.9	4	-1E+10	1	-1E+10	1	-1E+10	1	-1E+10	1	-1E+10	1	-1E+10	1
4902549	40	C	09/15/2021	16:06	-131.915	47.163	0	132.40	0	7.1710	0	32.7770	0	25.647	0	131.257	0	226.9	4	76.4	4	-1E+10	1	-1E+10	1	-1E+10	1	-1E+10	1	-1E+10	1	-1E+10	1
4902549	40	C	09/15/2021	16:06	-131.915	47.163	0	133.20	0	7.2180	0	32.8040	0	25.662	0	132.050	0	225.3	4	75.9	4	-1E+10	1	-1E+10	1	-1E+10	1	-1E+10	1	-1E+10	1	-1E+10	1
4902549	40	C	09/15/2021	16:06	-131.915	47.163	0	133.90	0	7.2380	0	32.8220	0	25.673	0	132.744	0	223.9	4	75.5	4	-1E+10	1	-1E+10	1	-1E+10	1	-1E+10	1	-1E+10	1	-1E+10	1
4902549	40	C	09/15/2021	16:06	-131.915	47.163	0	135.00	0	7.2720	0	32.8530	0	25.693	0	133.834	0	221.8	4	74.9	4	-1E+10	1	-1E+10	1	-1E+10	1	-1E+10	1	-1E+10	1	-1E+10	1
4902549	40	C	09/15/2021	16:06	-131.915	47.163	0	136.10	0	7.3100	0	32.9160	0	25.737	0	134.924	0	219.1	4	74.1	4	-1E+10	1	-1E+10	1	-1E+10	1	-1E+10	1	-1E+10	1	-1E+10	1
4902549	40	C	09/15/2021	16:06	-131.915	47.163	0	137.20	0	7.3250	0	32.9390	0	25.753	0	136.014	0	217.2	4	73.5	4	-1E+10	1	-1E+10	1	-1E+10	1	-1E+10	1	-1E+10	1	-1E+10	1
4902549	40	C	09/15/2021	16:06	-131.915	47.163	0	138.10	0	7.3170	0	32.9640	0	25.774	0	136.906	0	215.8	4	73.0	4	-1E+10	1	-1E+10	1	-1E+10	1	-1E+10	1	-1E+10	1	-1E+10	1
4902549	40	C	09/15/2021	16:06	-131.915	47.163	0	139.00	0	7.3350	0	32.9990	0	25.799	0	137.798	0	214.5	4	72.6	4	-1E+10	1	-1E+10	1	-1E+10	1	-1E+10	1	-1E+10	1	-1E+10	1
4902549	40	C	09/15/2021	16:06	-131.915	47.163	0	139.80	0	7.3570	0	33.0250	0	25.816	0	138.591	0	213.4	4	72.3	4	-1E+10	1	-1E+10	1	-1E+10	1	-1E+10	1	-1E+10	1	-1E+10	1
4902549	40	C	09/15/2021	16:06	-131.915	47.163	0	140.60	0	7.3460	0	33.0380	0	25.828	0	139.383	0	211.8	4	71.7	4	-1E+10	1	-1E+10	1	-1E+10	1	-1E+10	1	-1E+10	1	-1E+10	1
4902549	40	C	09/15/2021	16:06	-131.915	47.163	0	141.90	0	7.3610	0	33.0670	0	25.849	0	140.672	0	210.2	4	71.2	4	-1E+10	1	-1E+10	1	-1E+10	1	-1E+10	1	-1E+10	1	-1E+10	1
4902549	40	C	09/15/2021	16:06	-131.915	47.163	0	143.20	0	7.3890	0	33.1090	0	25.878	0	141.960	0	208.7	4	70.8	4	-1E+10	1	-1E+10	1	-1E+10	1	-1E+10	1	-1E+10	1	-1E+10	1
4902549	40	C	09/15/2021	16:06	-131.915	47.163	0	144.00	0	7.3760	0	33.1240	0	25.892	0	142.753	0	207.6	4	70.4	4	-1E+10	1	-1E+10	1	-1E+10	1	-1E+10	1	-1E+10	1	-1E+10	1
4902549	40	C	09/15/2021	16:06	-131.915	47.163	0	145.00	0	7.4130	0	33.1700	0	25.923	0	143.744	0	206.1	4	70.0	4	-1E+10	1	-1E+10	1	-1E+10	1	-1E+10	1	-1E+10	1	-1E+10	1
4902549	40	C	09/15/2021	16:06	-131.915	47.163	0	145.90	0	7.4390	0	33.2370	0	25.972	0	144.636	0	205.0	4	69.7	4	-1E+10	1	-1E+10	1	-1E+10	1	-1E+10	1	-1E+10	1	-1E+10	1
4902549	40	C	09/15/2021	16:06	-131.915	47.163	0	147.10	0	7.4320	0	33.2420	0	25.977	0	145.825	0	204.4	4	69.4	4	-1E+10	1	-1E+10	1	-1E+10	1	-1E+10	1	-1E+10	1	-1E+10	1
4902549	40	C	09/15/2021	16:06	-131.915	47.163	0	147.90	0	7.4280	0	33.2430	0	25.978	0	146.618	0	203.7	4	69.2	4	-1E+10	1	-1E+10	1	-1E+10	1	-1E+10	1	-1E+10	1	-1E+10	1
4902549	40	C	09/15/2021	16:06	-131.915	47.163	0	148.70	0	7.4280	0	33.2460	0	25.981	0	147.410	0	203.2	4	69.0	4	-1E+10	1	-1E+10	1	-1E+10	1	-1E+10	1	-1E+10	1	-1E+10	1
4902549	40	C	09/15/2021	16:06	-131.915	47.163	0	149.60	0	7.4250	0	33.2500	0	25.984	0	148.302	0	202.5	4	68.8	4	-1E+10	1	-1E+10	1	-1E+10	1	-1E+10	1	-1E+10	1	-1E+10	1
4902549	40	C	09/15/2021	16:06	-131.915	47.163	0	150.80	0	7.4090	0	33.2770	0	26.008	0	149.491	0	201.1	4	68.3	4	-1E+10	1	-1E+10	1	-1E+10	1	-1E+10	1	-1E+10	1	-1E+10	1
4902549	40	C	09/15/2021	16:06	-131.915	47.163	0	151.90	0	7.4070	0	33.2880	0	26.017	0	150.581	0	199.4	4	67.7	4	-1E+10	1	-1E+10	1	-1E+10	1	-1E+10	1	-1E+10	1	-1E+10	1
4902549	40	C	09/15/2021	16:06	-131.915	47.163	0	152.90	0	7.4030	0	33.2980	0	26.025	0	151.572	0	197.6	4	67.1	4	-1E+10	1	-1E+10	1	-1E+10	1	-1E+10	1	-1E+10	1	-1E+10	1
4902549	40	C	09/15/2021	16:06	-131.915	47.163	0	153.70	0	7.3970	0	33.3250	0	26.047	0	152.365	0	196.6	4	66.8	4	-1E+10	1	-1E+10	1	-1E+10	1	-1E+10	1	-1E+10	1	-1E+10	1
4902549	40	C	09/15/2021	16:06	-131.915	47.163	0	154.80	0	7.3930	0	33.3520	0	26.069	0	153.455	0	195.0	4	66.2	4	-1E+10	1	-1E+10	1	-1E+10	1	-1E+10	1	-1E+10	1	-1E+10	1
4902549	40	C	09/15/2021	16:06	-131.915	47.163	0	155.80	0	7.3720	0	33.4100	0	26.117	0	154.446	0	193.9	4	65.9	4	-1E+10	1	-1E+10	1	-1E+10	1	-1E+10	1	-1E+10	1	-1E+10	1
4902549	40	C	09/15/2021	16:06	-131.915	47.163	0	156.80	0	7.3600	0	33.4210	0	26.128	0	155.437	0	193.1	4	65.6	4	-1E+10	1	-1E+10	1	-1E+10	1	-1E+10	1	-1E+10	1	-1E+10	1
4902549	40	C	09/15/2021	16:06	-131.915	47.163	0	157.90	0	7.3210	0	33.4470	0	26.154	0	156.527	0	192.5	4	65.3	4	-1E+10	1	-1E+10	1	-1E+10	1	-1E+10	1	-1E+10	1	-1E+10	1
4902549	40	C	09/15/2021	16:06	-131.915	47.163	0	158.90	0	7.3080	0	33.4510	0	26.159	0	157.518	0	191.9	4	65.1	4	-1E+10	1	-1E+10	1	-1E+10	1	-1E+10	1	-1E+10	1	-1E+10	1
4902549	40	C	09/15/2021	16:06	-131.915	47.163	0	160.10	0	7.2920	0	33.4630	0	26.170	0	158.707	0	191.3	4	64.9	4	-1E+10	1	-1E+10	1	-1E+10	1	-1E+10	1	-1E+10	1	-1E+10	1
4902549	40	C	09/15/2021	16:06	-131.915	47.163	0	160.80	0	7.2940	0	33.4610	0	26.168	0	159.401	0	190.7	4	64.7	4	-1E+10	1	-1E+10	1	-1E+10	1	-1E+10	1	-1E+10	1	-1E+10	1
4902549	40	C	09/15/2021	16:06	-131.915	47.163	0	161.60	0	7.2890	0	33.4790	0	26.183	0	160.194	0	190.1	4	64.5	4	-1E+10	1	-1E+10	1	-1E+10	1	-1E+10	1	-1E+10	1	-1E+10	1
4902549	40	C	09/15/2021	16:06	-131.915	47.163	0	162.90	0	7.2550	0	33.4910	0	26.197	0	161.482	0	189.4	4	64.2	4	-1E+10	1	-1E+10	1	-1E+10	1	-1E+10	1	-1E+10	1	-1E+10	1
4902549	40	C	09/15/2021	16:06	-131.915	47.163	0	164.10	0	7.2330	0	33.5040	0	26.211	0	162.671	0	188.8	4	64.0	4	-1E+10	1	-1E+10	1	-1E+10	1	-1E+10	1	-1E+10	1	-1E+10	1
4902549	40	C	09/15/2021	16:06	-131.915	47.163	0	164.90	0	7.2290	0	33.5100	0	26.216	0	163.464	0	188.2	4	63.8	4	-1E+10	1	-1E+10	1	-1E+10	1	-1E+10	1	-1E+10	1	-1E+10	1
4902549	40	C	09/15/2021	16:06	-131.915	47.163	0	165.80	0	7.2130	0	33.5220	0	26.228	0	164.355	0	187.6	4	63.6	4	-1E+10	1	-1E+10	1	-1E+10	1	-1E+10	1	-1E+10	1	-1E+10	1
4902549	40	C	09/15/2021	16:06	-131.915	47.163	0	166.60	0	7.2000	0	33.5400	0	26.244	0	165.148	0	187.2	4	63.4	4	-1E+10	1	-1E+10	1	-1E+10	1	-1E+10	1	-1E+10	1	-1E+10	1
4902549	40	C	09/15/2021	16:06	-131.915	47.163	0	167.90	0	7.1910	0	33.5660	0	26.265	0	166.436	0	186.5	4	63.2	4	-1E+10	1	-1E+10	1	-1E+10	1	-1E+10	1	-1E+10	1	-1E+10	1
4902549	40	C	09/15/2021	16:06	-131.915	47.163	0	169.30	0	7.1740	0	33.5920	0	26.288	0	167.823	0	185.8	4	62.9	4	-1E+10	1	-1E+10	1	-1E+10	1	-1E+10	1	-1E+10	1	-1E+10	1
4902549	40	C	09/15/2021	16:06	-131.915	47.163	0	170.30	0	7.1670	0	33.5950	0	26.292	0	168.814	0	185.5	4	62.8	4	-1E+10	1	-1E+10	1	-1E+10	1	-1E+10	1	-1E+10	1	-1E+10	1
4902549	40	C	09/15/2021	16:06	-131.915	47.163	0	171.20	0	7.1630	0	33.6000	0	26.296	0	169.706	0	185.0	4	62.6	4	-1E+10	1	-1E+10	1	-1E+10	1	-1E+10	1	-1E+10	1	-1E+10	1
4902549	40	C	09/15/2021	16:06	-131.915	47.163	0	172.10	0	7.1550	0	33.6040	0	26.300	0	170.598	0	184.6	4	62.5	4	-1E+10	1	-1E+10	1	-1E+10	1	-1E+10	1	-1E+10	1	-1E+10	1
4902549	40	C	09/15/2021	16:06	-131.915	47.163	0	173.00	0	7.1340	0	33.6120	0	26.310	0	171.490	0	184.1	4	62.3	4	-1E+10	1	-1E+10	1	-1E+10	1	-1E+10	1	-1E+10	1	-1E+10	1
4902549	40	C	09/15/2021	16:06	-131.915	47.163	0	174.00	0	7.1270	0	33.6170	0	26.314	0	172.480	0	183.7	4	62.2	4	-1E+10	1	-1E+10	1	-1E+10	1	-1E+10	1	-1E+10	1	-1E+10	1
4902549	40	C	09/15/2021	16:06	-131.915	47.163	0	174.90	0	7.1200	0	33.6210	0	26.319	0	173.372	0	183.2	4	62.0	4	-1E+10	1	-1E+10	1	-1E+10	1	-1E+10	1	-1E+10	1	-1E+10	1
4902549	40	C	09/15/2021	16:06	-131.915	47.163	0	175.90	0	7.0700	0	33.6540	0	26.351	0	174.363	0	183.0	4	61.8	4	-1E+10	1	-1E+10	1	-1E+10	1	-1E+10	1	-1E+10	1	-1E+10	1
4902549	40	C	09/15/2021	16:06	-131.915	47.163	0	176.90	0	7.0660	0	33.6550	0	26.353	0	175.354	0	182.7	4	61.7	4	-1E+10	1	-1E+10	1	-1E+10	1	-1E+10	1	-1E+10	1	-1E+10	1
4902549	40	C	09/15/2021	16:06	-131.915	47.163	0	177.80	0	7.0580	0	33.6590	0	26.357	0	176.246	0	182.3	4	61.6	4	-1E+10	1	-1E+10	1	-1E+10	1	-1E+10	1	-1E+10	1	-1E+10	1
4902549	40	C	09/15/2021	16:06	-131.915	47.163	0	178.80	0	7.0450	0	33.6650	0	26.363	0	177.236	0	182.1	4	61.5	4	-1E+10	1	-1E+10	1	-1E+10	1	-1E+10	1	-1E+10	1	-1E+10	1
4902549	40	C	09/15/2021	16:06	-131.915	47.163	0	179.80	0	7.0510	0	33.6770	0	26.372	0	178.227	0	181.8	4	61.4	4	-1E+10	1	-1E+10	1	-1E+10	1	-1E+10	1	-1E+10	1	-1E+10	1
4902549	40	C	09/15/2021	16:06	-131.915	47.163	0	180.80	0	7.0420	0	33.6890	0	26.383	0	179.218	0	181.5	4	61.3	4	-1E+10	1	-1E+10	1	-1E+10	1	-1E+10	1	-1E+10	1	-1E+10	1
4902549	40	C	09/15/2021	16:06	-131.915	47.163	0	181.80	0	7.0420	0	33.6930	0	26.386	0	180.209	0	181.3	4	61.2	4	-1E+10	1	-1E+10	1	-1E+10	1	-1E+10	1	-1E+10	1	-1E+10	1
4902549	40	C	09/15/2021	16:06	-131.915	47.163	0	182.80	0	7.0350	0	33.6940	0	26.388	0	181.200	0	181.0	4	61.1	4	-1E+10	1	-1E+10	1	-1E+10	1	-1E+10	1	-1E+10	1	-1E+10	1
4902549	40	C	09/15/2021	16:06	-131.915	47.163	0	183.70	0	7.0370	0	33.7000	0	26.392	0	182.091	0	180.8	4	61.1	4	-1E+10	1	-1E+10	1	-1E+10	1	-1E+10	1	-1E+10	1	-1E+10	1
4902549	40	C	09/15/2021	16:06	-131.915	47.163	0	184.70	0	7.0360	0	33.6990	0	26.392	0	183.082	0	180.5	4	61.0	4	-1E+10	1	-1E+10	1	-1E+10	1	-1E+10	1	-1E+10	1	-1E+10	1
4902549	40	C	09/15/2021	16:06	-131.915	47.163	0	185.60	0	7.0350	0	33.7010	0	26.393	0	183.974	0	180.1	4	60.8	4	-1E+10	1	-1E+10	1	-1E+10	1	-1E+10	1	-1E+10	1	-1E+10	1
4902549	40	C	09/15/2021	16:06	-131.915	47.163	0	186.60	0	7.0590	0	33.7040	0	26.392	0	184.965	0	179.6	4	60.7	4	-1E+10	1	-1E+10	1	-1E+10	1	-1E+10	1	-1E+10	1	-1E+10	1
4902549	40	C	09/15/2021	16:06	-131.915	47.163	0	187.50	0	7.0900	0	33.7110	0	26.394	0	185.856	0	179.0	4	60.6	4	-1E+10	1	-1E+10	1	-1E+10	1	-1E+10	1	-1E+10	1	-1E+10	1
4902549	40	C	09/15/2021	16:06	-131.915	47.163	0	188.90	0	7.1220	0	33.7250	0	26.400	0	187.244	0	177.9	4	60.2	4	-1E+10	1	-1E+10	1	-1E+10	1	-1E+10	1	-1E+10	1	-1E+10	1
4902549	40	C	09/15/2021	16:06	-131.915	47.163	0	190.40	0	7.0430	0	33.7270	0	26.413	0	188.730	0	177.2	4	59.9	4	-1E+10	1	-1E+10	1	-1E+10	1	-1E+10	1	-1E+10	1	-1E+10	1
4902549	40	C	09/15/2021	16:06	-131.915	47.163	0	191.30	0	6.9560	0	33.7230	0	26.421	0	189.621	0	177.1	4	59.7	4	-1E+10	1	-1E+10	1	-1E+10	1	-1E+10	1	-1E+10	1	-1E+10	1
4902549	40	C	09/15/2021	16:06	-131.915	47.163	0	192.30	0	6.9360	0	33.7210	0	26.423	0	190.612	0	177.0	4	59.7	4	-1E+10	1	-1E+10	1	-1E+10	1	-1E+10	1	-1E+10	1	-1E+10	1
4902549	40	C	09/15/2021	16:06	-131.915	47.163	0	193.20	0	6.9280	0	33.7230	0	26.425	0	191.504	0	176.6	4	59.5	4	-1E+10	1	-1E+10	1	-1E+10	1	-1E+10	1	-1E+10	1	-1E+10	1
4902549	40	C	09/15/2021	16:06	-131.915	47.163	0	194.10	0	6.9210	0	33.7240	0	26.427	0	192.396	0	176.0	4	59.3	4	-1E+10	1	-1E+10	1	-1E+10	1	-1E+10	1	-1E+10	1	-1E+10	1
4902549	40	C	09/15/2021	16:06	-131.915	47.163	0	195.10	0	6.9090	0	33.7260	0	26.430	0	193.386	0	175.4	4	59.1	4	-1E+10	1	-1E+10	1	-1E+10	1	-1E+10	1	-1E+10	1	-1E+10	1
4902549	40	C	09/15/2021	16:06	-131.915	47.163	0	196.00	0	6.8980	0	33.7270	0	26.432	0	194.278	0	174.9	4	58.9	4	-1E+10	1	-1E+10	1	-1E+10	1	-1E+10	1	-1E+10	1	-1E+10	1
4902549	40	C	09/15/2021	16:06	-131.915	47.163	0	196.90	0	6.8830	0	33.7300	0	26.437	0	195.170	0	174.4	4	58.7	4	-1E+10	1	-1E+10	1	-1E+10	1	-1E+10	1	-1E+10	1	-1E+10	1
4902549	40	C	09/15/2021	16:06	-131.915	47.163	0	197.90	0	6.8910	0	33.7310	0	26.437	0	196.160	0	173.8	4	58.5	4	-1E+10	1	-1E+10	1	-1E+10	1	-1E+10	1	-1E+10	1	-1E+10	1
4902549	40	C	09/15/2021	16:06	-131.915	47.163	0	198.80	0	6.8880	0	33.7330	0	26.439	0	197.052	0	173.3	4	58.3	4	-1E+10	1	-1E+10	1	-1E+10	1	-1E+10	1	-1E+10	1	-1E+10	1
4902549	40	C	09/15/2021	16:06	-131.915	47.163	0	199.80	0	6.8790	0	33.7340	0	26.441	0	198.043	0	172.6	4	58.1	4	-1E+10	1	-1E+10	1	-1E+10	1	-1E+10	1	-1E+10	1	-1E+10	1
4902549	40	C	09/15/2021	16:06	-131.915	47.163	0	200.70	0	6.8580	0	33.7380	0	26.447	0	198.934	0	172.0	4	57.9	4	-1E+10	1	-1E+10	1	-1E+10	1	-1E+10	1	-1E+10	1	-1E+10	1
4902549	40	C	09/15/2021	16:06	-131.915	47.163	0	201.70	0	6.8380	0	33.7400	0	26.451	0	199.925	0	171.3	4	57.6	4	-1E+10	1	-1E+10	1	-1E+10	1	-1E+10	1	-1E+10	1	-1E+10	1
4902549	40	C	09/15/2021	16:06	-131.915	47.163	0	202.70	0	6.8170	0	33.7420	0	26.455	0	200.916	0	170.7	4	57.4	4	-1E+10	1	-1E+10	1	-1E+10	1	-1E+10	1	-1E+10	1	-1E+10	1
4902549	40	C	09/15/2021	16:06	-131.915	47.163	0	203.60	0	6.7810	0	33.7490	0	26.466	0	201.808	0	170.1	4	57.2	4	-1E+10	1	-1E+10	1	-1E+10	1	-1E+10	1	-1E+10	1	-1E+10	1
4902549	40	C	09/15/2021	16:06	-131.915	47.163	0	204.60	0	6.7590	0	33.7500	0	26.469	0	202.798	0	169.5	4	56.9	4	-1E+10	1	-1E+10	1	-1E+10	1	-1E+10	1	-1E+10	1	-1E+10	1
4902549	40	C	09/15/2021	16:06	-131.915	47.163	0	205.60	0	6.7510	0	33.7510	0	26.471	0	203.789	0	168.9	4	56.7	4	-1E+10	1	-1E+10	1	-1E+10	1	-1E+10	1	-1E+10	1	-1E+10	1
4902549	40	C	09/15/2021	16:06	-131.915	47.163	0	206.70	0	6.7480	0	33.7520	0	26.472	0	204.879	0	168.2	4	56.5	4	-1E+10	1	-1E+10	1	-1E+10	1	-1E+10	1	-1E+10	1	-1E+10	1
4902549	40	C	09/15/2021	16:06	-131.915	47.163	0	207.70	0	6.7340	0	33.7550	0	26.477	0	205.869	0	167.4	4	56.2	4	-1E+10	1	-1E+10	1	-1E+10	1	-1E+10	1	-1E+10	1	-1E+10	1
4902549	40	C	09/15/2021	16:06	-131.915	47.163	0	208.70	0	6.7540	0	33.7600	0	26.478	0	206.860	0	166.5	4	55.9	4	-1E+10	1	-1E+10	1	-1E+10	1	-1E+10	1	-1E+10	1	-1E+10	1
4902549	40	C	09/15/2021	16:06	-131.915	47.163	0	209.70	0	6.7890	0	33.7760	0	26.486	0	207.851	0	165.7	4	55.7	4	-1E+10	1	-1E+10	1	-1E+10	1	-1E+10	1	-1E+10	1	-1E+10	1
4902549	40	C	09/15/2021	16:06	-131.915	47.163	0	210.70	0	6.7860	0	33.7760	0	26.486	0	208.841	0	165.0	4	55.4	4	-1E+10	1	-1E+10	1	-1E+10	1	-1E+10	1	-1E+10	1	-1E+10	1
4902549	40	C	09/15/2021	16:06	-131.915	47.163	0	211.70	0	6.7930	0	33.7800	0	26.489	0	209.832	0	164.3	4	55.2	4	-1E+10	1	-1E+10	1	-1E+10	1	-1E+10	1	-1E+10	1	-1E+10	1
4902549	40	C	09/15/2021	16:06	-131.915	47.163	0	212.70	0	6.7540	0	33.7870	0	26.499	0	210.823	0	163.8	4	55.0	4	-1E+10	1	-1E+10	1	-1E+10	1	-1E+10	1	-1E+10	1	-1E+10	1
4902549	40	C	09/15/2021	16:06	-131.915	47.163	0	213.70	0	6.7330	0	33.7840	0	26.500	0	211.813	0	163.4	4	54.8	4	-1E+10	1	-1E+10	1	-1E+10	1	-1E+10	1	-1E+10	1	-1E+10	1
4902549	40	C	09/15/2021	16:06	-131.915	47.163	0	214.80	0	6.7290	0	33.7820	0	26.499	0	212.903	0	162.9	4	54.7	4	-1E+10	1	-1E+10	1	-1E+10	1	-1E+10	1	-1E+10	1	-1E+10	1
4902549	40	C	09/15/2021	16:06	-131.915	47.163	0	215.80	0	6.7260	0	33.7820	0	26.499	0	213.894	0	162.2	4	54.4	4	-1E+10	1	-1E+10	1	-1E+10	1	-1E+10	1	-1E+10	1	-1E+10	1
4902549	40	C	09/15/2021	16:06	-131.915	47.163	0	216.80	0	6.7180	0	33.7820	0	26.500	0	214.884	0	161.5	4	54.2	4	-1E+10	1	-1E+10	1	-1E+10	1	-1E+10	1	-1E+10	1	-1E+10	1
4902549	40	C	09/15/2021	16:06	-131.915	47.163	0	217.80	0	6.7110	0	33.7830	0	26.502	0	215.875	0	160.7	4	53.9	4	-1E+10	1	-1E+10	1	-1E+10	1	-1E+10	1	-1E+10	1	-1E+10	1
4902549	40	C	09/15/2021	16:06	-131.915	47.163	0	218.80	0	6.7020	0	33.7810	0	26.502	0	216.866	0	159.8	4	53.6	4	-1E+10	1	-1E+10	1	-1E+10	1	-1E+10	1	-1E+10	1	-1E+10	1
4902549	40	C	09/15/2021	16:06	-131.915	47.163	0	219.80	0	6.6800	0	33.7880	0	26.510	0	217.856	0	158.9	4	53.3	4	-1E+10	1	-1E+10	1	-1E+10	1	-1E+10	1	-1E+10	1	-1E+10	1
4902549	40	C	09/15/2021	16:06	-131.915	47.163	0	220.80	0	6.6450	0	33.7870	0	26.514	0	218.847	0	158.2	4	53.0	4	-1E+10	1	-1E+10	1	-1E+10	1	-1E+10	1	-1E+10	1	-1E+10	1
4902549	40	C	09/15/2021	16:06	-131.915	47.163	0	221.80	0	6.6380	0	33.7840	0	26.512	0	219.838	0	157.3	4	52.7	4	-1E+10	1	-1E+10	1	-1E+10	1	-1E+10	1	-1E+10	1	-1E+10	1
4902549	40	C	09/15/2021	16:06	-131.915	47.163	0	222.80	0	6.6040	0	33.7930	0	26.524	0	220.828	0	156.6	4	52.4	4	-1E+10	1	-1E+10	1	-1E+10	1	-1E+10	1	-1E+10	1	-1E+10	1
4902549	40	C	09/15/2021	16:06	-131.915	47.163	0	223.80	0	6.5980	0	33.7930	0	26.525	0	221.819	0	155.8	4	52.1	4	-1E+10	1	-1E+10	1	-1E+10	1	-1E+10	1	-1E+10	1	-1E+10	1
4902549	40	C	09/15/2021	16:06	-131.915	47.163	0	224.80	0	6.5870	0	33.7920	0	26.525	0	222.809	0	155.0	4	51.9	4	-1E+10	1	-1E+10	1	-1E+10	1	-1E+10	1	-1E+10	1	-1E+10	1
4902549	40	C	09/15/2021	16:06	-131.915	47.163	0	225.90	0	6.5820	0	33.7910	0	26.525	0	223.899	0	154.1	4	51.5	4	-1E+10	1	-1E+10	1	-1E+10	1	-1E+10	1	-1E+10	1	-1E+10	1
4902549	40	C	09/15/2021	16:06	-131.915	47.163	0	226.90	0	6.5690	0	33.7910	0	26.527	0	224.890	0	153.0	4	51.2	4	-1E+10	1	-1E+10	1	-1E+10	1	-1E+10	1	-1E+10	1	-1E+10	1
4902549	40	C	09/15/2021	16:06	-131.915	47.163	0	227.80	0	6.5210	0	33.7920	0	26.534	0	225.781	0	152.1	4	50.8	4	-1E+10	1	-1E+10	1	-1E+10	1	-1E+10	1	-1E+10	1	-1E+10	1
4902549	40	C	09/15/2021	16:06	-131.915	47.163	0	228.80	0	6.5700	0	33.8050	0	26.538	0	226.772	0	151.1	4	50.5	4	-1E+10	1	-1E+10	1	-1E+10	1	-1E+10	1	-1E+10	1	-1E+10	1
4902549	40	C	09/15/2021	16:06	-131.915	47.163	0	229.80	0	6.5500	0	33.8080	0	26.543	0	227.762	0	150.1	4	50.2	4	-1E+10	1	-1E+10	1	-1E+10	1	-1E+10	1	-1E+10	1	-1E+10	1
4902549	40	C	09/15/2021	16:06	-131.915	47.163	0	230.80	0	6.4680	0	33.8000	0	26.547	0	228.753	0	149.5	4	49.9	4	-1E+10	1	-1E+10	1	-1E+10	1	-1E+10	1	-1E+10	1	-1E+10	1
4902549	40	C	09/15/2021	16:06	-131.915	47.163	0	231.80	0	6.4070	0	33.7990	0	26.555	0	229.744	0	148.9	4	49.6	4	-1E+10	1	-1E+10	1	-1E+10	1	-1E+10	1	-1E+10	1	-1E+10	1
4902549	40	C	09/15/2021	16:06	-131.915	47.163	0	232.80	0	6.3950	0	33.7980	0	26.555	0	230.734	0	148.0	4	49.3	4	-1E+10	1	-1E+10	1	-1E+10	1	-1E+10	1	-1E+10	1	-1E+10	1
4902549	40	C	09/15/2021	16:06	-131.915	47.163	0	233.80	0	6.3740	0	33.8010	0	26.560	0	231.725	0	147.2	4	49.0	4	-1E+10	1	-1E+10	1	-1E+10	1	-1E+10	1	-1E+10	1	-1E+10	1
4902549	40	C	09/15/2021	16:06	-131.915	47.163	0	234.80	0	6.3700	0	33.8020	0	26.562	0	232.715	0	146.4	4	48.7	4	-1E+10	1	-1E+10	1	-1E+10	1	-1E+10	1	-1E+10	1	-1E+10	1
4902549	40	C	09/15/2021	16:06	-131.915	47.163	0	235.70	0	6.3650	0	33.8030	0	26.563	0	233.607	0	145.5	4	48.4	4	-1E+10	1	-1E+10	1	-1E+10	1	-1E+10	1	-1E+10	1	-1E+10	1
4902549	40	C	09/15/2021	16:06	-131.915	47.163	0	236.80	0	6.3320	0	33.8060	0	26.570	0	234.696	0	144.6	4	48.1	4	-1E+10	1	-1E+10	1	-1E+10	1	-1E+10	1	-1E+10	1	-1E+10	1
4902549	40	C	09/15/2021	16:06	-131.915	47.163	0	237.80	0	6.3080	0	33.8060	0	26.573	0	235.687	0	143.6	4	47.7	4	-1E+10	1	-1E+10	1	-1E+10	1	-1E+10	1	-1E+10	1	-1E+10	1
4902549	40	C	09/15/2021	16:06	-131.915	47.163	0	239.00	0	6.2770	0	33.8090	0	26.579	0	236.876	0	142.7	4	47.4	4	-1E+10	1	-1E+10	1	-1E+10	1	-1E+10	1	-1E+10	1	-1E+10	1
4902549	40	C	09/15/2021	16:06	-131.915	47.163	0	239.80	0	6.2270	0	33.8150	0	26.590	0	237.668	0	142.4	4	47.3	4	-1E+10	1	-1E+10	1	-1E+10	1	-1E+10	1	-1E+10	1	-1E+10	1
4902549	40	C	09/15/2021	16:06	-131.915	47.163	0	240.90	0	6.1960	0	33.8140	0	26.594	0	238.758	0	142.1	4	47.1	4	-1E+10	1	-1E+10	1	-1E+10	1	-1E+10	1	-1E+10	1	-1E+10	1
4902549	40	C	09/15/2021	16:06	-131.915	47.163	0	242.10	0	6.1890	0	33.8140	0	26.594	0	239.946	0	141.6	4	47.0	4	-1E+10	1	-1E+10	1	-1E+10	1	-1E+10	1	-1E+10	1	-1E+10	1
4902549	40	C	09/15/2021	16:06	-131.915	47.163	0	242.90	0	6.1830	0	33.8140	0	26.595	0	240.739	0	141.4	4	46.9	4	-1E+10	1	-1E+10	1	-1E+10	1	-1E+10	1	-1E+10	1	-1E+10	1
4902549	40	C	09/15/2021	16:06	-131.915	47.163	0	244.00	0	6.1650	0	33.8150	0	26.598	0	241.828	0	141.0	4	46.7	4	-1E+10	1	-1E+10	1	-1E+10	1	-1E+10	1	-1E+10	1	-1E+10	1
4902549	40	C	09/15/2021	16:06	-131.915	47.163	0	245.20	0	6.1590	0	33.8140	0	26.598	0	243.017	0	140.6	4	46.6	4	-1E+10	1	-1E+10	1	-1E+10	1	-1E+10	1	-1E+10	1	-1E+10	1
4902549	40	C	09/15/2021	16:06	-131.915	47.163	0	246.00	0	6.1580	0	33.8150	0	26.599	0	243.809	0	140.2	4	46.5	4	-1E+10	1	-1E+10	1	-1E+10	1	-1E+10	1	-1E+10	1	-1E+10	1
4902549	40	C	09/15/2021	16:06	-131.915	47.163	0	246.80	0	6.1580	0	33.8140	0	26.598	0	244.602	0	139.9	4	46.3	4	-1E+10	1	-1E+10	1	-1E+10	1	-1E+10	1	-1E+10	1	-1E+10	1
4902549	40	C	09/15/2021	16:06	-131.915	47.163	0	248.00	0	6.1410	0	33.8150	0	26.601	0	245.790	0	139.3	4	46.1	4	-1E+10	1	-1E+10	1	-1E+10	1	-1E+10	1	-1E+10	1	-1E+10	1
4902549	40	C	09/15/2021	16:06	-131.915	47.163	0	249.20	0	6.1270	0	33.8160	0	26.604	0	246.979	0	138.7	4	45.9	4	-1E+10	1	-1E+10	1	-1E+10	1	-1E+10	1	-1E+10	1	-1E+10	1
4902549	40	C	09/15/2021	16:06	-131.915	47.163	0	250.00	0	6.1220	0	33.8160	0	26.605	0	247.771	0	138.3	4	45.8	4	-1E+10	1	-1E+10	1	-1E+10	1	-1E+10	1	-1E+10	1	-1E+10	1
4902549	40	C	09/15/2021	16:06	-131.915	47.163	0	250.80	0	6.1130	0	33.8160	0	26.606	0	248.564	0	137.9	4	45.6	4	-1E+10	1	-1E+10	1	-1E+10	1	-1E+10	1	-1E+10	1	-1E+10	1
4902549	40	C	09/15/2021	16:06	-131.915	47.163	0	252.00	0	6.1060	0	33.8160	0	26.607	0	249.752	0	137.3	4	45.4	4	-1E+10	1	-1E+10	1	-1E+10	1	-1E+10	1	-1E+10	1	-1E+10	1
4902549	40	C	09/15/2021	16:06	-131.915	47.163	0	253.30	0	6.1050	0	33.8160	0	26.607	0	251.040	0	136.5	4	45.2	4	-1E+10	1	-1E+10	1	-1E+10	1	-1E+10	1	-1E+10	1	-1E+10	1
4902549	40	C	09/15/2021	16:06	-131.915	47.163	0	254.10	0	6.1000	0	33.8170	0	26.608	0	251.832	0	135.9	4	45.0	4	-1E+10	1	-1E+10	1	-1E+10	1	-1E+10	1	-1E+10	1	-1E+10	1
4902549	40	C	09/15/2021	16:06	-131.915	47.163	0	254.90	0	6.0700	0	33.8180	0	26.613	0	252.625	0	135.5	4	44.8	4	-1E+10	1	-1E+10	1	-1E+10	1	-1E+10	1	-1E+10	1	-1E+10	1
4902549	40	C	09/15/2021	16:06	-131.915	47.163	0	255.70	0	6.0540	0	33.8180	0	26.615	0	253.417	0	135.1	4	44.7	4	-1E+10	1	-1E+10	1	-1E+10	1	-1E+10	1	-1E+10	1	-1E+10	1
4902549	40	C	09/15/2021	16:06	-131.915	47.163	0	256.90	0	6.0400	0	33.8190	0	26.617	0	254.605	0	134.3	4	44.4	4	-1E+10	1	-1E+10	1	-1E+10	1	-1E+10	1	-1E+10	1	-1E+10	1
4902549	40	C	09/15/2021	16:06	-131.915	47.163	0	258.20	0	6.0230	0	33.8190	0	26.619	0	255.893	0	133.6	4	44.1	4	-1E+10	1	-1E+10	1	-1E+10	1	-1E+10	1	-1E+10	1	-1E+10	1
4902549	40	C	09/15/2021	16:06	-131.915	47.163	0	259.00	0	6.0130	0	33.8190	0	26.621	0	256.685	0	133.2	4	44.0	4	-1E+10	1	-1E+10	1	-1E+10	1	-1E+10	1	-1E+10	1	-1E+10	1
4902549	40	C	09/15/2021	16:06	-131.915	47.163	0	259.80	0	6.0060	0	33.8200	0	26.622	0	257.478	0	132.7	4	43.8	4	-1E+10	1	-1E+10	1	-1E+10	1	-1E+10	1	-1E+10	1	-1E+10	1
4902549	40	C	09/15/2021	16:06	-131.915	47.163	0	260.70	0	5.9990	0	33.8190	0	26.622	0	258.369	0	132.1	4	43.6	4	-1E+10	1	-1E+10	1	-1E+10	1	-1E+10	1	-1E+10	1	-1E+10	1
4902549	40	C	09/15/2021	16:06	-131.915	47.163	0	261.90	0	5.9820	0	33.8190	0	26.625	0	259.558	0	131.3	4	43.3	4	-1E+10	1	-1E+10	1	-1E+10	1	-1E+10	1	-1E+10	1	-1E+10	1
4902549	40	C	09/15/2021	16:06	-131.915	47.163	0	263.20	0	5.9750	0	33.8180	0	26.625	0	260.845	0	130.3	4	43.0	4	-1E+10	1	-1E+10	1	-1E+10	1	-1E+10	1	-1E+10	1	-1E+10	1
4902549	40	C	09/15/2021	16:06	-131.915	47.163	0	264.00	0	5.9570	0	33.8200	0	26.629	0	261.638	0	129.7	4	42.8	4	-1E+10	1	-1E+10	1	-1E+10	1	-1E+10	1	-1E+10	1	-1E+10	1
4902549	40	C	09/15/2021	16:06	-131.915	47.163	0	264.80	0	5.9430	0	33.8210	0	26.631	0	262.430	0	128.9	4	42.5	4	-1E+10	1	-1E+10	1	-1E+10	1	-1E+10	1	-1E+10	1	-1E+10	1
4902549	40	C	09/15/2021	16:06	-131.915	47.163	0	265.60	0	5.9180	0	33.8190	0	26.633	0	263.222	0	128.3	4	42.3	4	-1E+10	1	-1E+10	1	-1E+10	1	-1E+10	1	-1E+10	1	-1E+10	1
4902549	40	C	09/15/2021	16:06	-131.915	47.163	0	266.90	0	5.8920	0	33.8200	0	26.637	0	264.510	0	127.4	4	42.0	4	-1E+10	1	-1E+10	1	-1E+10	1	-1E+10	1	-1E+10	1	-1E+10	1
4902549	40	C	09/15/2021	16:06	-131.915	47.163	0	268.20	0	5.8650	0	33.8220	0	26.642	0	265.797	0	126.5	4	41.6	4	-1E+10	1	-1E+10	1	-1E+10	1	-1E+10	1	-1E+10	1	-1E+10	1
4902549	40	C	09/15/2021	16:06	-131.915	47.163	0	269.00	0	5.8390	0	33.8200	0	26.643	0	266.590	0	126.0	4	41.4	4	-1E+10	1	-1E+10	1	-1E+10	1	-1E+10	1	-1E+10	1	-1E+10	1
4902549	40	C	09/15/2021	16:06	-131.915	47.163	0	269.90	0	5.7990	0	33.8210	0	26.649	0	267.481	0	125.6	4	41.3	4	-1E+10	1	-1E+10	1	-1E+10	1	-1E+10	1	-1E+10	1	-1E+10	1
4902549	40	C	09/15/2021	16:06	-131.915	47.163	0	270.70	0	5.7800	0	33.8210	0	26.651	0	268.273	0	125.2	4	41.1	4	-1E+10	1	-1E+10	1	-1E+10	1	-1E+10	1	-1E+10	1	-1E+10	1
4902549	40	C	09/15/2021	16:06	-131.915	47.163	0	272.00	0	5.7550	0	33.8250	0	26.657	0	269.561	0	124.5	4	40.9	4	-1E+10	1	-1E+10	1	-1E+10	1	-1E+10	1	-1E+10	1	-1E+10	1
4902549	40	C	09/15/2021	16:06	-131.915	47.163	0	273.30	0	5.7370	0	33.8250	0	26.660	0	270.848	0	123.9	4	40.7	4	-1E+10	1	-1E+10	1	-1E+10	1	-1E+10	1	-1E+10	1	-1E+10	1
4902549	40	C	09/15/2021	16:06	-131.915	47.163	0	274.10	0	5.7310	0	33.8260	0	26.661	0	271.641	0	123.6	4	40.5	4	-1E+10	1	-1E+10	1	-1E+10	1	-1E+10	1	-1E+10	1	-1E+10	1
4902549	40	C	09/15/2021	16:06	-131.915	47.163	0	275.00	0	5.7260	0	33.8260	0	26.662	0	272.532	0	123.2	4	40.4	4	-1E+10	1	-1E+10	1	-1E+10	1	-1E+10	1	-1E+10	1	-1E+10	1
4902549	40	C	09/15/2021	16:06	-131.915	47.163	0	275.80	0	5.7240	0	33.8260	0	26.662	0	273.324	0	122.7	4	40.3	4	-1E+10	1	-1E+10	1	-1E+10	1	-1E+10	1	-1E+10	1	-1E+10	1
4902549	40	C	09/15/2021	16:06	-131.915	47.163	0	276.70	0	5.7220	0	33.8260	0	26.662	0	274.216	0	122.3	4	40.1	4	-1E+10	1	-1E+10	1	-1E+10	1	-1E+10	1	-1E+10	1	-1E+10	1
4902549	40	C	09/15/2021	16:06	-131.915	47.163	0	277.90	0	5.7060	0	33.8270	0	26.665	0	275.404	0	121.6	4	39.9	4	-1E+10	1	-1E+10	1	-1E+10	1	-1E+10	1	-1E+10	1	-1E+10	1
4902549	40	C	09/15/2021	16:06	-131.915	47.163	0	279.30	0	5.6980	0	33.8270	0	26.666	0	276.790	0	120.9	4	39.6	4	-1E+10	1	-1E+10	1	-1E+10	1	-1E+10	1	-1E+10	1	-1E+10	1
4902549	40	C	09/15/2021	16:06	-131.915	47.163	0	280.10	0	5.6970	0	33.8270	0	26.666	0	277.583	0	120.4	4	39.5	4	-1E+10	1	-1E+10	1	-1E+10	1	-1E+10	1	-1E+10	1	-1E+10	1
4902549	40	C	09/15/2021	16:06	-131.915	47.163	0	281.00	0	5.6880	0	33.8270	0	26.667	0	278.474	0	119.8	4	39.3	4	-1E+10	1	-1E+10	1	-1E+10	1	-1E+10	1	-1E+10	1	-1E+10	1
4902549	40	C	09/15/2021	16:06	-131.915	47.163	0	281.80	0	5.6650	0	33.8290	0	26.672	0	279.266	0	119.4	4	39.1	4	-1E+10	1	-1E+10	1	-1E+10	1	-1E+10	1	-1E+10	1	-1E+10	1
4902549	40	C	09/15/2021	16:06	-131.915	47.163	0	282.70	0	5.6250	0	33.8290	0	26.676	0	280.158	0	119.1	4	39.0	4	-1E+10	1	-1E+10	1	-1E+10	1	-1E+10	1	-1E+10	1	-1E+10	1
4902549	40	C	09/15/2021	16:06	-131.915	47.163	0	283.90	0	5.6150	0	33.8300	0	26.678	0	281.346	0	118.6	4	38.8	4	-1E+10	1	-1E+10	1	-1E+10	1	-1E+10	1	-1E+10	1	-1E+10	1
4902549	40	C	09/15/2021	16:06	-131.915	47.163	0	285.30	0	5.6000	0	33.8310	0	26.681	0	282.732	0	118.0	4	38.6	4	-1E+10	1	-1E+10	1	-1E+10	1	-1E+10	1	-1E+10	1	-1E+10	1
4902549	40	C	09/15/2021	16:06	-131.915	47.163	0	286.20	0	5.5950	0	33.8310	0	26.682	0	283.624	0	117.6	4	38.5	4	-1E+10	1	-1E+10	1	-1E+10	1	-1E+10	1	-1E+10	1	-1E+10	1
4902549	40	C	09/15/2021	16:06	-131.915	47.163	0	287.00	0	5.5870	0	33.8320	0	26.683	0	284.416	0	117.2	4	38.3	4	-1E+10	1	-1E+10	1	-1E+10	1	-1E+10	1	-1E+10	1	-1E+10	1
4902549	40	C	09/15/2021	16:06	-131.915	47.163	0	287.90	0	5.5790	0	33.8310	0	26.684	0	285.307	0	116.8	4	38.2	4	-1E+10	1	-1E+10	1	-1E+10	1	-1E+10	1	-1E+10	1	-1E+10	1
4902549	40	C	09/15/2021	16:06	-131.915	47.163	0	288.70	0	5.5760	0	33.8310	0	26.684	0	286.099	0	116.2	4	38.0	4	-1E+10	1	-1E+10	1	-1E+10	1	-1E+10	1	-1E+10	1	-1E+10	1
4902549	40	C	09/15/2021	16:06	-131.915	47.163	0	289.60	0	5.5660	0	33.8330	0	26.687	0	286.991	0	115.7	4	37.8	4	-1E+10	1	-1E+10	1	-1E+10	1	-1E+10	1	-1E+10	1	-1E+10	1
4902549	40	C	09/15/2021	16:06	-131.915	47.163	0	290.90	0	5.5520	0	33.8320	0	26.688	0	288.278	0	115.0	4	37.6	4	-1E+10	1	-1E+10	1	-1E+10	1	-1E+10	1	-1E+10	1	-1E+10	1
4902549	40	C	09/15/2021	16:06	-131.915	47.163	0	292.20	0	5.5350	0	33.8340	0	26.691	0	289.566	0	114.3	4	37.3	4	-1E+10	1	-1E+10	1	-1E+10	1	-1E+10	1	-1E+10	1	-1E+10	1
4902549	40	C	09/15/2021	16:06	-131.915	47.163	0	293.10	0	5.5220	0	33.8350	0	26.694	0	290.457	0	113.7	4	37.1	4	-1E+10	1	-1E+10	1	-1E+10	1	-1E+10	1	-1E+10	1	-1E+10	1
4902549	40	C	09/15/2021	16:06	-131.915	47.163	0	294.00	0	5.5110	0	33.8370	0	26.697	0	291.348	0	113.2	4	37.0	4	-1E+10	1	-1E+10	1	-1E+10	1	-1E+10	1	-1E+10	1	-1E+10	1
4902549	40	C	09/15/2021	16:06	-131.915	47.163	0	294.80	0	5.4930	0	33.8370	0	26.699	0	292.140	0	112.8	4	36.8	4	-1E+10	1	-1E+10	1	-1E+10	1	-1E+10	1	-1E+10	1	-1E+10	1
4902549	40	C	09/15/2021	16:06	-131.915	47.163	0	295.70	0	5.4720	0	33.8380	0	26.702	0	293.031	0	112.4	4	36.7	4	-1E+10	1	-1E+10	1	-1E+10	1	-1E+10	1	-1E+10	1	-1E+10	1
4902549	40	C	09/15/2021	16:06	-131.915	47.163	0	296.60	0	5.4590	0	33.8380	0	26.704	0	293.923	0	112.0	4	36.5	4	-1E+10	1	-1E+10	1	-1E+10	1	-1E+10	1	-1E+10	1	-1E+10	1
4902549	40	C	09/15/2021	16:06	-131.915	47.163	0	297.90	0	5.4400	0	33.8390	0	26.707	0	295.210	0	111.5	4	36.3	4	-1E+10	1	-1E+10	1	-1E+10	1	-1E+10	1	-1E+10	1	-1E+10	1
4902549	40	C	09/15/2021	16:06	-131.915	47.163	0	299.20	0	5.4330	0	33.8390	0	26.707	0	296.497	0	110.9	4	36.1	4	-1E+10	1	-1E+10	1	-1E+10	1	-1E+10	1	-1E+10	1	-1E+10	1
4902549	40	C	09/15/2021	16:06	-131.915	47.163	0	300.10	0	5.4280	0	33.8390	0	26.708	0	297.389	0	110.5	4	36.0	4	-1E+10	1	-1E+10	1	-1E+10	1	-1E+10	1	-1E+10	1	-1E+10	1
4902549	40	C	09/15/2021	16:06	-131.915	47.163	0	300.90	0	5.4230	0	33.8380	0	26.708	0	298.181	0	110.1	4	35.9	4	-1E+10	1	-1E+10	1	-1E+10	1	-1E+10	1	-1E+10	1	-1E+10	1
4902549	40	C	09/15/2021	16:06	-131.915	47.163	0	301.80	0	5.4140	0	33.8390	0	26.710	0	299.072	0	109.6	4	35.7	4	-1E+10	1	-1E+10	1	-1E+10	1	-1E+10	1	-1E+10	1	-1E+10	1
4902549	40	C	09/15/2021	16:06	-131.915	47.163	0	302.70	0	5.4040	0	33.8380	0	26.710	0	299.963	0	109.1	4	35.5	4	-1E+10	1	-1E+10	1	-1E+10	1	-1E+10	1	-1E+10	1	-1E+10	1
4902549	40	C	09/15/2021	16:06	-131.915	47.163	0	303.60	0	5.3940	0	33.8400	0	26.713	0	300.854	0	108.7	4	35.4	4	-1E+10	1	-1E+10	1	-1E+10	1	-1E+10	1	-1E+10	1	-1E+10	1
4902549	40	C	09/15/2021	16:06	-131.915	47.163	0	304.90	0	5.3660	0	33.8390	0	26.715	0	302.142	0	108.1	4	35.2	4	-1E+10	1	-1E+10	1	-1E+10	1	-1E+10	1	-1E+10	1	-1E+10	1
4902549	40	C	09/15/2021	16:06	-131.915	47.163	0	306.20	0	5.3260	0	33.8420	0	26.722	0	303.429	0	107.7	4	35.0	4	-1E+10	1	-1E+10	1	-1E+10	1	-1E+10	1	-1E+10	1	-1E+10	1
4902549	40	C	09/15/2021	16:06	-131.915	47.163	0	307.10	0	5.3220	0	33.8410	0	26.722	0	304.320	0	107.5	4	34.9	4	-1E+10	1	-1E+10	1	-1E+10	1	-1E+10	1	-1E+10	1	-1E+10	1
4902549	40	C	09/15/2021	16:06	-131.915	47.163	0	308.00	0	5.3180	0	33.8410	0	26.723	0	305.211	0	107.2	4	34.8	4	-1E+10	1	-1E+10	1	-1E+10	1	-1E+10	1	-1E+10	1	-1E+10	1
4902549	40	C	09/15/2021	16:06	-131.915	47.163	0	308.90	0	5.3150	0	33.8420	0	26.724	0	306.103	0	106.9	4	34.7	4	-1E+10	1	-1E+10	1	-1E+10	1	-1E+10	1	-1E+10	1	-1E+10	1
4902549	40	C	09/15/2021	16:06	-131.915	47.163	0	309.80	0	5.3140	0	33.8410	0	26.723	0	306.994	0	106.6	4	34.6	4	-1E+10	1	-1E+10	1	-1E+10	1	-1E+10	1	-1E+10	1	-1E+10	1
4902549	40	C	09/15/2021	16:06	-131.915	47.163	0	310.80	0	5.3120	0	33.8420	0	26.724	0	307.984	0	106.2	4	34.5	4	-1E+10	1	-1E+10	1	-1E+10	1	-1E+10	1	-1E+10	1	-1E+10	1
4902549	40	C	09/15/2021	16:06	-131.915	47.163	0	311.70	0	5.3020	0	33.8430	0	26.726	0	308.875	0	105.9	4	34.4	4	-1E+10	1	-1E+10	1	-1E+10	1	-1E+10	1	-1E+10	1	-1E+10	1
4902549	40	C	09/15/2021	16:06	-131.915	47.163	0	312.60	0	5.3020	0	33.8430	0	26.726	0	309.766	0	105.5	4	34.3	4	-1E+10	1	-1E+10	1	-1E+10	1	-1E+10	1	-1E+10	1	-1E+10	1
4902549	40	C	09/15/2021	16:06	-131.915	47.163	0	313.50	0	5.3000	0	33.8440	0	26.727	0	310.657	0	105.1	4	34.1	4	-1E+10	1	-1E+10	1	-1E+10	1	-1E+10	1	-1E+10	1	-1E+10	1
4902549	40	C	09/15/2021	16:06	-131.915	47.163	0	314.90	0	5.2950	0	33.8460	0	26.729	0	312.044	0	104.5	4	33.9	4	-1E+10	1	-1E+10	1	-1E+10	1	-1E+10	1	-1E+10	1	-1E+10	1
4902549	40	C	09/15/2021	16:06	-131.915	47.163	0	316.30	0	5.2900	0	33.8470	0	26.731	0	313.430	0	103.8	4	33.7	4	-1E+10	1	-1E+10	1	-1E+10	1	-1E+10	1	-1E+10	1	-1E+10	1
4902549	40	C	09/15/2021	16:06	-131.915	47.163	0	317.20	0	5.2800	0	33.8480	0	26.733	0	314.321	0	103.4	4	33.6	4	-1E+10	1	-1E+10	1	-1E+10	1	-1E+10	1	-1E+10	1	-1E+10	1
4902549	40	C	09/15/2021	16:06	-131.915	47.163	0	318.10	0	5.2760	0	33.8480	0	26.733	0	315.212	0	103.0	4	33.4	4	-1E+10	1	-1E+10	1	-1E+10	1	-1E+10	1	-1E+10	1	-1E+10	1
4902549	40	C	09/15/2021	16:06	-131.915	47.163	0	319.10	0	5.2640	0	33.8500	0	26.736	0	316.202	0	102.6	4	33.3	4	-1E+10	1	-1E+10	1	-1E+10	1	-1E+10	1	-1E+10	1	-1E+10	1
4902549	40	C	09/15/2021	16:06	-131.915	47.163	0	320.00	0	5.2620	0	33.8510	0	26.737	0	317.094	0	102.1	4	33.1	4	-1E+10	1	-1E+10	1	-1E+10	1	-1E+10	1	-1E+10	1	-1E+10	1
4902549	40	C	09/15/2021	16:06	-131.915	47.163	0	320.90	0	5.2550	0	33.8520	0	26.739	0	317.985	0	101.6	4	33.0	4	-1E+10	1	-1E+10	1	-1E+10	1	-1E+10	1	-1E+10	1	-1E+10	1
4902549	40	C	09/15/2021	16:06	-131.915	47.163	0	321.80	0	5.2440	0	33.8540	0	26.742	0	318.876	0	101.2	4	32.8	4	-1E+10	1	-1E+10	1	-1E+10	1	-1E+10	1	-1E+10	1	-1E+10	1
4902549	40	C	09/15/2021	16:06	-131.915	47.163	0	322.80	0	5.2400	0	33.8540	0	26.742	0	319.866	0	100.8	4	32.7	4	-1E+10	1	-1E+10	1	-1E+10	1	-1E+10	1	-1E+10	1	-1E+10	1
4902549	40	C	09/15/2021	16:06	-131.915	47.163	0	323.70	0	5.2360	0	33.8540	0	26.743	0	320.757	0	100.3	4	32.5	4	-1E+10	1	-1E+10	1	-1E+10	1	-1E+10	1	-1E+10	1	-1E+10	1
4902549	40	C	09/15/2021	16:06	-131.915	47.163	0	324.60	0	5.2340	0	33.8530	0	26.742	0	321.648	0	99.8	4	32.4	4	-1E+10	1	-1E+10	1	-1E+10	1	-1E+10	1	-1E+10	1	-1E+10	1
4902549	40	C	09/15/2021	16:06	-131.915	47.163	0	325.50	0	5.2190	0	33.8580	0	26.748	0	322.539	0	99.3	4	32.2	4	-1E+10	1	-1E+10	1	-1E+10	1	-1E+10	1	-1E+10	1	-1E+10	1
4902549	40	C	09/15/2021	16:06	-131.915	47.163	0	326.90	0	5.2030	0	33.8580	0	26.750	0	323.926	0	98.8	4	32.0	4	-1E+10	1	-1E+10	1	-1E+10	1	-1E+10	1	-1E+10	1	-1E+10	1
4902549	40	C	09/15/2021	16:06	-131.915	47.163	0	328.30	0	5.1940	0	33.8610	0	26.753	0	325.312	0	98.2	4	31.8	4	-1E+10	1	-1E+10	1	-1E+10	1	-1E+10	1	-1E+10	1	-1E+10	1
4902549	40	C	09/15/2021	16:06	-131.915	47.163	0	329.20	0	5.1870	0	33.8610	0	26.754	0	326.203	0	97.8	4	31.7	4	-1E+10	1	-1E+10	1	-1E+10	1	-1E+10	1	-1E+10	1	-1E+10	1
4902549	40	C	09/15/2021	16:06	-131.915	47.163	0	330.10	0	5.1800	0	33.8600	0	26.754	0	327.094	0	97.4	4	31.6	4	-1E+10	1	-1E+10	1	-1E+10	1	-1E+10	1	-1E+10	1	-1E+10	1
4902549	40	C	09/15/2021	16:06	-131.915	47.163	0	331.10	0	5.1650	0	33.8620	0	26.757	0	328.084	0	97.1	4	31.4	4	-1E+10	1	-1E+10	1	-1E+10	1	-1E+10	1	-1E+10	1	-1E+10	1
4902549	40	C	09/15/2021	16:06	-131.915	47.163	0	332.00	0	5.1480	0	33.8660	0	26.762	0	328.975	0	96.8	4	31.3	4	-1E+10	1	-1E+10	1	-1E+10	1	-1E+10	1	-1E+10	1	-1E+10	1
4902549	40	C	09/15/2021	16:06	-131.915	47.163	0	332.90	0	5.1450	0	33.8640	0	26.761	0	329.866	0	96.5	4	31.2	4	-1E+10	1	-1E+10	1	-1E+10	1	-1E+10	1	-1E+10	1	-1E+10	1
4902549	40	C	09/15/2021	16:06	-131.915	47.163	0	333.80	0	5.1440	0	33.8640	0	26.761	0	330.757	0	96.2	4	31.1	4	-1E+10	1	-1E+10	1	-1E+10	1	-1E+10	1	-1E+10	1	-1E+10	1
4902549	40	C	09/15/2021	16:06	-131.915	47.163	0	334.80	0	5.1420	0	33.8650	0	26.762	0	331.747	0	95.8	4	31.0	4	-1E+10	1	-1E+10	1	-1E+10	1	-1E+10	1	-1E+10	1	-1E+10	1
4902549	40	C	09/15/2021	16:06	-131.915	47.163	0	335.70	0	5.1400	0	33.8640	0	26.762	0	332.638	0	95.4	4	30.9	4	-1E+10	1	-1E+10	1	-1E+10	1	-1E+10	1	-1E+10	1	-1E+10	1
4902549	40	C	09/15/2021	16:06	-131.915	47.163	0	336.60	0	5.1370	0	33.8650	0	26.763	0	333.529	0	95.0	4	30.7	4	-1E+10	1	-1E+10	1	-1E+10	1	-1E+10	1	-1E+10	1	-1E+10	1
4902549	40	C	09/15/2021	16:06	-131.915	47.163	0	337.90	0	5.1190	0	33.8680	0	26.767	0	334.817	0	94.5	4	30.6	4	-1E+10	1	-1E+10	1	-1E+10	1	-1E+10	1	-1E+10	1	-1E+10	1
4902549	40	C	09/15/2021	16:06	-131.915	47.163	0	339.30	0	5.1150	0	33.8680	0	26.768	0	336.203	0	94.0	4	30.4	4	-1E+10	1	-1E+10	1	-1E+10	1	-1E+10	1	-1E+10	1	-1E+10	1
4902549	40	C	09/15/2021	16:06	-131.915	47.163	0	340.20	0	5.1130	0	33.8680	0	26.768	0	337.094	0	93.6	4	30.3	4	-1E+10	1	-1E+10	1	-1E+10	1	-1E+10	1	-1E+10	1	-1E+10	1
4902549	40	C	09/15/2021	16:06	-131.915	47.163	0	341.10	0	5.0990	0	33.8710	0	26.772	0	337.985	0	93.2	4	30.1	4	-1E+10	1	-1E+10	1	-1E+10	1	-1E+10	1	-1E+10	1	-1E+10	1
4902549	40	C	09/15/2021	16:06	-131.915	47.163	0	342.00	0	5.0960	0	33.8700	0	26.772	0	338.876	0	92.9	4	30.0	4	-1E+10	1	-1E+10	1	-1E+10	1	-1E+10	1	-1E+10	1	-1E+10	1
4902549	40	C	09/15/2021	16:06	-131.915	47.163	0	342.90	0	5.0910	0	33.8720	0	26.774	0	339.767	0	92.5	4	29.9	4	-1E+10	1	-1E+10	1	-1E+10	1	-1E+10	1	-1E+10	1	-1E+10	1
4902549	40	C	09/15/2021	16:06	-131.915	47.163	0	343.90	0	5.0790	0	33.8720	0	26.775	0	340.757	0	92.2	4	29.8	4	-1E+10	1	-1E+10	1	-1E+10	1	-1E+10	1	-1E+10	1	-1E+10	1
4902549	40	C	09/15/2021	16:06	-131.915	47.163	0	344.80	0	5.0770	0	33.8720	0	26.775	0	341.648	0	91.9	4	29.7	4	-1E+10	1	-1E+10	1	-1E+10	1	-1E+10	1	-1E+10	1	-1E+10	1
4902549	40	C	09/15/2021	16:06	-131.915	47.163	0	345.70	0	5.0760	0	33.8720	0	26.776	0	342.539	0	91.5	4	29.6	4	-1E+10	1	-1E+10	1	-1E+10	1	-1E+10	1	-1E+10	1	-1E+10	1
4902549	40	C	09/15/2021	16:06	-131.915	47.163	0	346.60	0	5.0710	0	33.8730	0	26.777	0	343.430	0	91.1	4	29.4	4	-1E+10	1	-1E+10	1	-1E+10	1	-1E+10	1	-1E+10	1	-1E+10	1
4902549	40	C	09/15/2021	16:06	-131.915	47.163	0	347.60	0	5.0650	0	33.8740	0	26.778	0	344.420	0	90.7	4	29.3	4	-1E+10	1	-1E+10	1	-1E+10	1	-1E+10	1	-1E+10	1	-1E+10	1
4902549	40	C	09/15/2021	16:06	-131.915	47.163	0	348.90	0	5.0390	0	33.8750	0	26.782	0	345.707	0	90.2	4	29.1	4	-1E+10	1	-1E+10	1	-1E+10	1	-1E+10	1	-1E+10	1	-1E+10	1
4902549	40	C	09/15/2021	16:06	-131.915	47.163	0	350.30	0	5.0300	0	33.8780	0	26.786	0	347.093	0	89.8	4	29.0	4	-1E+10	1	-1E+10	1	-1E+10	1	-1E+10	1	-1E+10	1	-1E+10	1
4902549	40	C	09/15/2021	16:06	-131.915	47.163	0	353.10	0	5.0200	0	33.8780	0	26.787	0	349.865	0	88.9	4	28.7	4	-1E+10	1	-1E+10	1	-1E+10	1	-1E+10	1	-1E+10	1	-1E+10	1
4902549	40	C	09/15/2021	16:06	-131.915	47.163	0	357.70	0	5.0030	0	33.8800	0	26.790	0	354.419	0	86.9	4	28.0	4	-1E+10	1	-1E+10	1	-1E+10	1	-1E+10	1	-1E+10	1	-1E+10	1
4902549	40	C	09/15/2021	16:06	-131.915	47.163	0	362.90	0	4.9680	0	33.8880	0	26.801	0	359.567	0	84.4	4	27.2	4	-1E+10	1	-1E+10	1	-1E+10	1	-1E+10	1	-1E+10	1	-1E+10	1
4902549	40	C	09/15/2021	16:06	-131.915	47.163	0	368.10	0	4.9300	0	33.8920	0	26.808	0	364.714	0	82.8	4	26.7	4	-1E+10	1	-1E+10	1	-1E+10	1	-1E+10	1	-1E+10	1	-1E+10	1
4902549	40	C	09/15/2021	16:06	-131.915	47.163	0	373.00	0	4.9050	0	33.8950	0	26.813	0	369.565	0	80.9	4	26.1	4	-1E+10	1	-1E+10	1	-1E+10	1	-1E+10	1	-1E+10	1	-1E+10	1
4902549	40	C	09/15/2021	16:06	-131.915	47.163	0	378.00	0	4.8730	0	33.9000	0	26.821	0	374.514	0	79.1	4	25.5	4	-1E+10	1	-1E+10	1	-1E+10	1	-1E+10	1	-1E+10	1	-1E+10	1
4902549	40	C	09/15/2021	16:06	-131.915	47.163	0	383.10	0	4.8460	0	33.9050	0	26.828	0	379.563	0	77.4	4	24.9	4	-1E+10	1	-1E+10	1	-1E+10	1	-1E+10	1	-1E+10	1	-1E+10	1
4902549	40	C	09/15/2021	16:06	-131.915	47.163	0	388.00	0	4.8190	0	33.9090	0	26.834	0	384.413	0	75.7	4	24.3	4	-1E+10	1	-1E+10	1	-1E+10	1	-1E+10	1	-1E+10	1	-1E+10	1
4902549	40	C	09/15/2021	16:06	-131.915	47.163	0	393.00	0	4.7880	0	33.9120	0	26.840	0	389.362	0	73.9	4	23.7	4	-1E+10	1	-1E+10	1	-1E+10	1	-1E+10	1	-1E+10	1	-1E+10	1
4902549	40	C	09/15/2021	16:06	-131.915	47.163	0	398.10	0	4.7470	0	33.9160	0	26.848	0	394.410	0	71.8	4	23.0	4	-1E+10	1	-1E+10	1	-1E+10	1	-1E+10	1	-1E+10	1	-1E+10	1
4902549	40	C	09/15/2021	16:06	-131.915	47.163	0	403.00	0	4.7110	0	33.9220	0	26.857	0	399.260	0	70.2	4	22.5	4	-1E+10	1	-1E+10	1	-1E+10	1	-1E+10	1	-1E+10	1	-1E+10	1
4902549	40	C	09/15/2021	16:06	-131.915	47.163	0	407.90	0	4.6840	0	33.9250	0	26.862	0	404.110	0	68.7	4	22.0	4	-1E+10	1	-1E+10	1	-1E+10	1	-1E+10	1	-1E+10	1	-1E+10	1
4902549	40	C	09/15/2021	16:06	-131.915	47.163	0	412.90	0	4.6630	0	33.9320	0	26.870	0	409.058	0	67.3	4	21.6	4	-1E+10	1	-1E+10	1	-1E+10	1	-1E+10	1	-1E+10	1	-1E+10	1
4902549	40	C	09/15/2021	16:06	-131.915	47.163	0	417.90	0	4.6440	0	33.9360	0	26.875	0	414.007	0	65.9	4	21.1	4	-1E+10	1	-1E+10	1	-1E+10	1	-1E+10	1	-1E+10	1	-1E+10	1
4902549	40	C	09/15/2021	16:06	-131.915	47.163	0	423.00	0	4.6150	0	33.9420	0	26.883	0	419.054	0	64.7	4	20.7	4	-1E+10	1	-1E+10	1	-1E+10	1	-1E+10	1	-1E+10	1	-1E+10	1
4902549	40	C	09/15/2021	16:06	-131.915	47.163	0	428.10	0	4.6030	0	33.9450	0	26.887	0	424.101	0	63.7	4	20.4	4	-1E+10	1	-1E+10	1	-1E+10	1	-1E+10	1	-1E+10	1	-1E+10	1
4902549	40	C	09/15/2021	16:06	-131.915	47.163	0	433.20	0	4.5960	0	33.9480	0	26.890	0	429.148	0	62.3	4	19.9	4	-1E+10	1	-1E+10	1	-1E+10	1	-1E+10	1	-1E+10	1	-1E+10	1
4902549	40	C	09/15/2021	16:06	-131.915	47.163	0	437.90	0	4.5760	0	33.9540	0	26.897	0	433.799	0	60.7	4	19.4	4	-1E+10	1	-1E+10	1	-1E+10	1	-1E+10	1	-1E+10	1	-1E+10	1
4902549	40	C	09/15/2021	16:06	-131.915	47.163	0	442.50	0	4.5590	0	33.9590	0	26.903	0	438.352	0	59.2	4	18.9	4	-1E+10	1	-1E+10	1	-1E+10	1	-1E+10	1	-1E+10	1	-1E+10	1
4902549	40	C	09/15/2021	16:06	-131.915	47.163	0	447.60	0	4.5360	0	33.9660	0	26.911	0	443.398	0	57.8	4	18.4	4	-1E+10	1	-1E+10	1	-1E+10	1	-1E+10	1	-1E+10	1	-1E+10	1
4902549	40	C	09/15/2021	16:06	-131.915	47.163	0	452.70	0	4.5210	0	33.9700	0	26.916	0	448.445	0	56.4	4	18.0	4	-1E+10	1	-1E+10	1	-1E+10	1	-1E+10	1	-1E+10	1	-1E+10	1
4902549	40	C	09/15/2021	16:06	-131.915	47.163	0	457.90	0	4.4970	0	33.9740	0	26.922	0	453.590	0	55.1	4	17.6	4	-1E+10	1	-1E+10	1	-1E+10	1	-1E+10	1	-1E+10	1	-1E+10	1
4902549	40	C	09/15/2021	16:06	-131.915	47.163	0	462.90	0	4.4810	0	33.9760	0	26.925	0	458.538	0	53.8	4	17.2	4	-1E+10	1	-1E+10	1	-1E+10	1	-1E+10	1	-1E+10	1	-1E+10	1
4902549	40	C	09/15/2021	16:06	-131.915	47.163	0	467.90	0	4.4600	0	33.9790	0	26.930	0	463.485	0	52.3	4	16.7	4	-1E+10	1	-1E+10	1	-1E+10	1	-1E+10	1	-1E+10	1	-1E+10	1
4902549	40	C	09/15/2021	16:06	-131.915	47.163	0	472.80	0	4.4400	0	33.9850	0	26.936	0	468.333	0	50.6	4	16.1	4	-1E+10	1	-1E+10	1	-1E+10	1	-1E+10	1	-1E+10	1	-1E+10	1
4902549	40	C	09/15/2021	16:06	-131.915	47.163	0	477.70	0	4.4190	0	33.9910	0	26.944	0	473.181	0	48.8	4	15.6	4	-1E+10	1	-1E+10	1	-1E+10	1	-1E+10	1	-1E+10	1	-1E+10	1
4902549	40	C	09/15/2021	16:06	-131.915	47.163	0	482.70	0	4.3920	0	34.0000	0	26.954	0	478.128	0	47.4	4	15.1	4	-1E+10	1	-1E+10	1	-1E+10	1	-1E+10	1	-1E+10	1	-1E+10	1
4902549	40	C	09/15/2021	16:06	-131.915	47.163	0	487.70	0	4.3760	0	34.0050	0	26.959	0	483.075	0	46.0	4	14.6	4	-1E+10	1	-1E+10	1	-1E+10	1	-1E+10	1	-1E+10	1	-1E+10	1
4902549	40	C	09/15/2021	16:06	-131.915	47.163	0	492.60	0	4.3630	0	34.0100	0	26.965	0	487.923	0	44.6	4	14.2	4	-1E+10	1	-1E+10	1	-1E+10	1	-1E+10	1	-1E+10	1	-1E+10	1
4902549	40	C	09/15/2021	16:06	-131.915	47.163	0	497.70	0	4.3470	0	34.0170	0	26.972	0	492.969	0	43.0	4	13.7	4	-1E+10	1	-1E+10	1	-1E+10	1	-1E+10	1	-1E+10	1	-1E+10	1
4902549	40	C	09/15/2021	16:06	-131.915	47.163	0	502.90	0	4.3320	0	34.0230	0	26.978	0	498.113	0	41.3	4	13.1	4	-1E+10	1	-1E+10	1	-1E+10	1	-1E+10	1	-1E+10	1	-1E+10	1
4902549	40	C	09/15/2021	16:06	-131.915	47.163	0	508.10	0	4.3060	0	34.0320	0	26.988	0	503.257	0	39.6	4	12.6	4	-1E+10	1	-1E+10	1	-1E+10	1	-1E+10	1	-1E+10	1	-1E+10	1
4902549	40	C	09/15/2021	16:06	-131.915	47.163	0	513.20	0	4.2880	0	34.0390	0	26.996	0	508.302	0	38.6	4	12.3	4	-1E+10	1	-1E+10	1	-1E+10	1	-1E+10	1	-1E+10	1	-1E+10	1
4902549	40	C	09/15/2021	16:06	-131.915	47.163	0	517.70	0	4.2800	0	34.0420	0	26.999	0	512.754	0	37.7	4	12.0	4	-1E+10	1	-1E+10	1	-1E+10	1	-1E+10	1	-1E+10	1	-1E+10	1
4902549	40	C	09/15/2021	16:06	-131.915	47.163	0	522.80	0	4.2750	0	34.0450	0	27.002	0	517.799	0	36.9	4	11.7	4	-1E+10	1	-1E+10	1	-1E+10	1	-1E+10	1	-1E+10	1	-1E+10	1
4902549	40	C	09/15/2021	16:06	-131.915	47.163	0	527.80	0	4.2700	0	34.0470	0	27.004	0	522.745	0	35.7	4	11.3	4	-1E+10	1	-1E+10	1	-1E+10	1	-1E+10	1	-1E+10	1	-1E+10	1
4902549	40	C	09/15/2021	16:06	-131.915	47.163	0	532.90	0	4.2560	0	34.0530	0	27.010	0	527.789	0	34.6	4	11.0	4	-1E+10	1	-1E+10	1	-1E+10	1	-1E+10	1	-1E+10	1	-1E+10	1
4902549	40	C	09/15/2021	16:06	-131.915	47.163	0	538.10	0	4.2450	0	34.0560	0	27.014	0	532.933	0	33.5	4	10.6	4	-1E+10	1	-1E+10	1	-1E+10	1	-1E+10	1	-1E+10	1	-1E+10	1
4902549	40	C	09/15/2021	16:06	-131.915	47.163	0	542.70	0	4.2290	0	34.0620	0	27.020	0	537.483	0	32.6	4	10.3	4	-1E+10	1	-1E+10	1	-1E+10	1	-1E+10	1	-1E+10	1	-1E+10	1
4902549	40	C	09/15/2021	16:06	-131.915	47.163	0	547.80	0	4.2210	0	34.0650	0	27.024	0	542.527	0	31.7	4	10.1	4	-1E+10	1	-1E+10	1	-1E+10	1	-1E+10	1	-1E+10	1	-1E+10	1
4902549	40	C	09/15/2021	16:06	-131.915	47.163	0	552.90	0	4.2130	0	34.0690	0	27.028	0	547.571	0	30.8	4	9.8	4	-1E+10	1	-1E+10	1	-1E+10	1	-1E+10	1	-1E+10	1	-1E+10	1
4902549	40	C	09/15/2021	16:06	-131.915	47.163	0	557.50	0	4.1950	0	34.0730	0	27.033	0	552.121	0	29.7	4	9.4	4	-1E+10	1	-1E+10	1	-1E+10	1	-1E+10	1	-1E+10	1	-1E+10	1
4902549	40	C	09/15/2021	16:06	-131.915	47.163	0	562.90	0	4.1720	0	34.0810	0	27.042	0	557.461	0	28.6	4	9.1	4	-1E+10	1	-1E+10	1	-1E+10	1	-1E+10	1	-1E+10	1	-1E+10	1
4902549	40	C	09/15/2021	16:06	-131.915	47.163	0	568.30	0	4.1610	0	34.0860	0	27.047	0	562.802	0	28.0	4	8.9	4	-1E+10	1	-1E+10	1	-1E+10	1	-1E+10	1	-1E+10	1	-1E+10	1
4902549	40	C	09/15/2021	16:06	-131.915	47.163	0	573.20	0	4.1540	0	34.0880	0	27.049	0	567.648	0	27.5	4	8.7	4	-1E+10	1	-1E+10	1	-1E+10	1	-1E+10	1	-1E+10	1	-1E+10	1
4902549	40	C	09/15/2021	16:06	-131.915	47.163	0	578.20	0	4.1350	0	34.0920	0	27.054	0	572.592	0	26.7	4	8.5	4	-1E+10	1	-1E+10	1	-1E+10	1	-1E+10	1	-1E+10	1	-1E+10	1
4902549	40	C	09/15/2021	16:06	-131.915	47.163	0	583.10	0	4.1260	0	34.0960	0	27.059	0	577.438	0	25.9	4	8.2	4	-1E+10	1	-1E+10	1	-1E+10	1	-1E+10	1	-1E+10	1	-1E+10	1
4902549	40	C	09/15/2021	16:06	-131.915	47.163	0	588.10	0	4.1210	0	34.1020	0	27.064	0	582.383	0	25.0	4	7.9	4	-1E+10	1	-1E+10	1	-1E+10	1	-1E+10	1	-1E+10	1	-1E+10	1
4902549	40	C	09/15/2021	16:06	-131.915	47.163	0	593.00	0	4.1020	0	34.1070	0	27.070	0	587.228	0	24.4	4	7.7	4	-1E+10	1	-1E+10	1	-1E+10	1	-1E+10	1	-1E+10	1	-1E+10	1
4902549	40	C	09/15/2021	16:06	-131.915	47.163	0	597.70	0	4.0870	0	34.1100	0	27.074	0	591.876	0	23.9	4	7.6	4	-1E+10	1	-1E+10	1	-1E+10	1	-1E+10	1	-1E+10	1	-1E+10	1
4902549	40	C	09/15/2021	16:06	-131.915	47.163	0	602.90	0	4.0710	0	34.1140	0	27.079	0	597.018	0	23.4	4	7.4	4	-1E+10	1	-1E+10	1	-1E+10	1	-1E+10	1	-1E+10	1	-1E+10	1
4902549	40	C	09/15/2021	16:06	-131.915	47.163	0	608.20	0	4.0590	0	34.1180	0	27.083	0	602.258	0	22.9	4	7.2	4	-1E+10	1	-1E+10	1	-1E+10	1	-1E+10	1	-1E+10	1	-1E+10	1
4902549	40	C	09/15/2021	16:06	-131.915	47.163	0	612.90	0	4.0550	0	34.1190	0	27.084	0	606.905	0	22.4	4	7.1	4	-1E+10	1	-1E+10	1	-1E+10	1	-1E+10	1	-1E+10	1	-1E+10	1
4902549	40	C	09/15/2021	16:06	-131.915	47.163	0	617.60	0	4.0490	0	34.1230	0	27.088	0	611.552	0	21.8	4	6.9	4	-1E+10	1	-1E+10	1	-1E+10	1	-1E+10	1	-1E+10	1	-1E+10	1
4902549	40	C	09/15/2021	16:06	-131.915	47.163	0	622.70	0	4.0450	0	34.1280	0	27.093	0	616.595	0	21.4	4	6.7	4	-1E+10	1	-1E+10	1	-1E+10	1	-1E+10	1	-1E+10	1	-1E+10	1
4902549	40	C	09/15/2021	16:06	-131.915	47.163	0	628.00	0	4.0260	0	34.1310	0	27.097	0	621.835	0	21.0	4	6.6	4	-1E+10	1	-1E+10	1	-1E+10	1	-1E+10	1	-1E+10	1	-1E+10	1
4902549	40	C	09/15/2021	16:06	-131.915	47.163	0	633.00	0	4.0120	0	34.1340	0	27.101	0	626.779	0	21.0	4	6.6	4	-1E+10	1	-1E+10	1	-1E+10	1	-1E+10	1	-1E+10	1	-1E+10	1
4902549	40	C	09/15/2021	16:06	-131.915	47.163	0	637.80	0	3.9970	0	34.1340	0	27.102	0	631.524	0	20.7	4	6.5	4	-1E+10	1	-1E+10	1	-1E+10	1	-1E+10	1	-1E+10	1	-1E+10	1
4902549	40	C	09/15/2021	16:06	-131.915	47.163	0	642.80	0	3.9830	0	34.1380	0	27.107	0	636.467	0	20.2	4	6.4	4	-1E+10	1	-1E+10	1	-1E+10	1	-1E+10	1	-1E+10	1	-1E+10	1
4902549	40	C	09/15/2021	16:06	-131.915	47.163	0	647.80	0	3.9800	0	34.1390	0	27.108	0	641.410	0	19.6	4	6.2	4	-1E+10	1	-1E+10	1	-1E+10	1	-1E+10	1	-1E+10	1	-1E+10	1
4902549	40	C	09/15/2021	16:06	-131.915	47.163	0	652.70	0	3.9750	0	34.1420	0	27.111	0	646.254	0	18.6	4	5.9	4	-1E+10	1	-1E+10	1	-1E+10	1	-1E+10	1	-1E+10	1	-1E+10	1
4902549	40	C	09/15/2021	16:06	-131.915	47.163	0	657.80	0	3.9790	0	34.1490	0	27.116	0	651.296	0	17.6	4	5.5	4	-1E+10	1	-1E+10	1	-1E+10	1	-1E+10	1	-1E+10	1	-1E+10	1
4902549	40	C	09/15/2021	16:06	-131.915	47.163	0	662.80	0	3.9710	0	34.1550	0	27.122	0	656.239	0	17.3	4	5.4	4	-1E+10	1	-1E+10	1	-1E+10	1	-1E+10	1	-1E+10	1	-1E+10	1
4902549	40	C	09/15/2021	16:06	-131.915	47.163	0	667.90	0	3.9360	0	34.1590	0	27.129	0	661.280	0	16.9	4	5.3	4	-1E+10	1	-1E+10	1	-1E+10	1	-1E+10	1	-1E+10	1	-1E+10	1
4902549	40	C	09/15/2021	16:06	-131.915	47.163	0	673.10	0	3.9200	0	34.1630	0	27.134	0	666.420	0	16.5	4	5.2	4	-1E+10	1	-1E+10	1	-1E+10	1	-1E+10	1	-1E+10	1	-1E+10	1
4902549	40	C	09/15/2021	16:06	-131.915	47.163	0	677.70	0	3.9130	0	34.1660	0	27.137	0	670.967	0	16.1	4	5.1	4	-1E+10	1	-1E+10	1	-1E+10	1	-1E+10	1	-1E+10	1	-1E+10	1
4902549	40	C	09/15/2021	16:06	-131.915	47.163	0	682.90	0	3.8990	0	34.1700	0	27.141	0	676.107	0	15.7	4	4.9	4	-1E+10	1	-1E+10	1	-1E+10	1	-1E+10	1	-1E+10	1	-1E+10	1
4902549	40	C	09/15/2021	16:06	-131.915	47.163	0	688.10	0	3.8960	0	34.1740	0	27.145	0	681.247	0	15.2	4	4.8	4	-1E+10	1	-1E+10	1	-1E+10	1	-1E+10	1	-1E+10	1	-1E+10	1
4902549	40	C	09/15/2021	16:06	-131.915	47.163	0	692.90	0	3.8870	0	34.1790	0	27.150	0	685.991	0	14.9	4	4.7	4	-1E+10	1	-1E+10	1	-1E+10	1	-1E+10	1	-1E+10	1	-1E+10	1
4902549	40	C	09/15/2021	16:06	-131.915	47.163	0	697.60	0	3.8690	0	34.1820	0	27.154	0	690.637	0	14.7	4	4.6	4	-1E+10	1	-1E+10	1	-1E+10	1	-1E+10	1	-1E+10	1	-1E+10	1
4902549	40	C	09/15/2021	16:06	-131.915	47.163	0	702.90	0	3.8590	0	34.1840	0	27.157	0	695.875	0	14.4	4	4.5	4	-1E+10	1	-1E+10	1	-1E+10	1	-1E+10	1	-1E+10	1	-1E+10	1
4902549	40	C	09/15/2021	16:06	-131.915	47.163	0	708.10	0	3.8470	0	34.1870	0	27.160	0	701.014	0	14.2	4	4.5	4	-1E+10	1	-1E+10	1	-1E+10	1	-1E+10	1	-1E+10	1	-1E+10	1
4902549	40	C	09/15/2021	16:06	-131.915	47.163	0	712.90	0	3.8280	0	34.1920	0	27.166	0	705.758	0	14.0	4	4.4	4	-1E+10	1	-1E+10	1	-1E+10	1	-1E+10	1	-1E+10	1	-1E+10	1
4902549	40	C	09/15/2021	16:06	-131.915	47.163	0	717.60	0	3.8190	0	34.1940	0	27.169	0	710.403	0	13.9	4	4.4	4	-1E+10	1	-1E+10	1	-1E+10	1	-1E+10	1	-1E+10	1	-1E+10	1
4902549	40	C	09/15/2021	16:06	-131.915	47.163	0	722.90	0	3.7980	0	34.1960	0	27.172	0	715.641	0	13.8	4	4.3	4	-1E+10	1	-1E+10	1	-1E+10	1	-1E+10	1	-1E+10	1	-1E+10	1
4902549	40	C	09/15/2021	16:06	-131.915	47.163	0	728.20	0	3.7780	0	34.1990	0	27.177	0	720.878	0	13.5	4	4.2	4	-1E+10	1	-1E+10	1	-1E+10	1	-1E+10	1	-1E+10	1	-1E+10	1
4902549	40	C	09/15/2021	16:06	-131.915	47.163	0	733.20	0	3.7670	0	34.2030	0	27.181	0	725.819	0	13.2	4	4.1	4	-1E+10	1	-1E+10	1	-1E+10	1	-1E+10	1	-1E+10	1	-1E+10	1
4902549	40	C	09/15/2021	16:06	-131.915	47.163	0	738.10	0	3.7600	0	34.2060	0	27.184	0	730.661	0	12.9	4	4.1	4	-1E+10	1	-1E+10	1	-1E+10	1	-1E+10	1	-1E+10	1	-1E+10	1
4902549	40	C	09/15/2021	16:06	-131.915	47.163	0	743.00	0	3.7480	0	34.2080	0	27.187	0	735.503	0	12.6	4	4.0	4	-1E+10	1	-1E+10	1	-1E+10	1	-1E+10	1	-1E+10	1	-1E+10	1
4902549	40	C	09/15/2021	16:06	-131.915	47.163	0	747.90	0	3.7410	0	34.2100	0	27.189	0	740.345	0	12.3	4	3.9	4	-1E+10	1	-1E+10	1	-1E+10	1	-1E+10	1	-1E+10	1	-1E+10	1
4902549	40	C	09/15/2021	16:06	-131.915	47.163	0	752.80	0	3.7310	0	34.2130	0	27.193	0	745.187	0	11.8	4	3.7	4	-1E+10	1	-1E+10	1	-1E+10	1	-1E+10	1	-1E+10	1	-1E+10	1
4902549	40	C	09/15/2021	16:06	-131.915	47.163	0	757.80	0	3.7200	0	34.2190	0	27.199	0	750.127	0	11.4	4	3.6	4	-1E+10	1	-1E+10	1	-1E+10	1	-1E+10	1	-1E+10	1	-1E+10	1
4902549	40	C	09/15/2021	16:06	-131.915	47.163	0	762.80	0	3.7020	0	34.2240	0	27.204	0	755.068	0	11.1	4	3.5	4	-1E+10	1	-1E+10	1	-1E+10	1	-1E+10	1	-1E+10	1	-1E+10	1
4902549	40	C	09/15/2021	16:06	-131.915	47.163	0	767.80	0	3.6940	0	34.2270	0	27.208	0	760.008	0	10.9	4	3.4	4	-1E+10	1	-1E+10	1	-1E+10	1	-1E+10	1	-1E+10	1	-1E+10	1
4902549	40	C	09/15/2021	16:06	-131.915	47.163	0	772.80	0	3.6860	0	34.2290	0	27.210	0	764.948	0	10.7	4	3.3	4	-1E+10	1	-1E+10	1	-1E+10	1	-1E+10	1	-1E+10	1	-1E+10	1
4902549	40	C	09/15/2021	16:06	-131.915	47.163	0	777.90	0	3.6730	0	34.2330	0	27.215	0	769.987	0	10.4	4	3.3	4	-1E+10	1	-1E+10	1	-1E+10	1	-1E+10	1	-1E+10	1	-1E+10	1
4902549	40	C	09/15/2021	16:06	-131.915	47.163	0	782.90	0	3.6540	0	34.2380	0	27.220	0	774.927	0	10.2	4	3.2	4	-1E+10	1	-1E+10	1	-1E+10	1	-1E+10	1	-1E+10	1	-1E+10	1
4902549	40	C	09/15/2021	16:06	-131.915	47.163	0	787.90	0	3.6380	0	34.2420	0	27.225	0	779.867	0	10.0	4	3.1	4	-1E+10	1	-1E+10	1	-1E+10	1	-1E+10	1	-1E+10	1	-1E+10	1
4902549	40	C	09/15/2021	16:06	-131.915	47.163	0	792.90	0	3.6270	0	34.2450	0	27.229	0	784.806	0	9.8	4	3.1	4	-1E+10	1	-1E+10	1	-1E+10	1	-1E+10	1	-1E+10	1	-1E+10	1
4902549	40	C	09/15/2021	16:06	-131.915	47.163	0	798.00	0	3.6190	0	34.2480	0	27.232	0	789.844	0	9.7	4	3.0	4	-1E+10	1	-1E+10	1	-1E+10	1	-1E+10	1	-1E+10	1	-1E+10	1
4902549	40	C	09/15/2021	16:06	-131.915	47.163	0	803.00	0	3.6060	0	34.2510	0	27.236	0	794.784	0	9.6	4	3.0	4	-1E+10	1	-1E+10	1	-1E+10	1	-1E+10	1	-1E+10	1	-1E+10	1
4902549	40	C	09/15/2021	16:06	-131.915	47.163	0	808.10	0	3.5900	0	34.2540	0	27.240	0	799.822	0	9.5	4	3.0	4	-1E+10	1	-1E+10	1	-1E+10	1	-1E+10	1	-1E+10	1	-1E+10	1
4902549	40	C	09/15/2021	16:06	-131.915	47.163	0	813.30	0	3.5830	0	34.2560	0	27.242	0	804.959	0	9.5	4	3.0	4	-1E+10	1	-1E+10	1	-1E+10	1	-1E+10	1	-1E+10	1	-1E+10	1
4902549	40	C	09/15/2021	16:06	-131.915	47.163	0	817.90	0	3.5750	0	34.2570	0	27.243	0	809.503	0	9.4	4	2.9	4	-1E+10	1	-1E+10	1	-1E+10	1	-1E+10	1	-1E+10	1	-1E+10	1
4902549	40	C	09/15/2021	16:06	-131.915	47.163	0	822.80	0	3.5590	0	34.2610	0	27.248	0	814.343	0	9.2	4	2.9	4	-1E+10	1	-1E+10	1	-1E+10	1	-1E+10	1	-1E+10	1	-1E+10	1
4902549	40	C	09/15/2021	16:06	-131.915	47.163	0	828.00	0	3.5450	0	34.2640	0	27.252	0	819.479	0	9.1	4	2.8	4	-1E+10	1	-1E+10	1	-1E+10	1	-1E+10	1	-1E+10	1	-1E+10	1
4902549	40	C	09/15/2021	16:06	-131.915	47.163	0	832.80	0	3.5290	0	34.2690	0	27.258	0	824.220	0	9.0	4	2.8	4	-1E+10	1	-1E+10	1	-1E+10	1	-1E+10	1	-1E+10	1	-1E+10	1
4902549	40	C	09/15/2021	16:06	-131.915	47.163	0	837.60	0	3.5170	0	34.2710	0	27.260	0	828.961	0	9.0	4	2.8	4	-1E+10	1	-1E+10	1	-1E+10	1	-1E+10	1	-1E+10	1	-1E+10	1
4902549	40	C	09/15/2021	16:06	-131.915	47.163	0	842.60	0	3.5100	0	34.2730	0	27.263	0	833.900	0	9.0	4	2.8	4	-1E+10	1	-1E+10	1	-1E+10	1	-1E+10	1	-1E+10	1	-1E+10	1
4902549	40	C	09/15/2021	16:06	-131.915	47.163	0	847.70	0	3.4990	0	34.2740	0	27.265	0	838.937	0	8.9	4	2.8	4	-1E+10	1	-1E+10	1	-1E+10	1	-1E+10	1	-1E+10	1	-1E+10	1
4902549	40	C	09/15/2021	16:06	-131.915	47.163	0	852.90	0	3.4920	0	34.2770	0	27.268	0	844.073	0	8.8	4	2.7	4	-1E+10	1	-1E+10	1	-1E+10	1	-1E+10	1	-1E+10	1	-1E+10	1
4902549	40	C	09/15/2021	16:06	-131.915	47.163	0	858.00	0	3.4810	0	34.2790	0	27.270	0	849.109	0	8.7	4	2.7	4	-1E+10	1	-1E+10	1	-1E+10	1	-1E+10	1	-1E+10	1	-1E+10	1
4902549	40	C	09/15/2021	16:06	-131.915	47.163	0	863.20	0	3.4670	0	34.2830	0	27.275	0	854.245	0	8.6	4	2.7	4	-1E+10	1	-1E+10	1	-1E+10	1	-1E+10	1	-1E+10	1	-1E+10	1
4902549	40	C	09/15/2021	16:06	-131.915	47.163	0	868.00	0	3.4630	0	34.2850	0	27.277	0	858.985	0	8.4	4	2.6	4	-1E+10	1	-1E+10	1	-1E+10	1	-1E+10	1	-1E+10	1	-1E+10	1
4902549	40	C	09/15/2021	16:06	-131.915	47.163	0	872.90	0	3.4570	0	34.2870	0	27.279	0	863.824	0	8.2	4	2.6	4	-1E+10	1	-1E+10	1	-1E+10	1	-1E+10	1	-1E+10	1	-1E+10	1
4902549	40	C	09/15/2021	16:06	-131.915	47.163	0	877.80	0	3.4420	0	34.2930	0	27.285	0	868.663	0	8.1	4	2.5	4	-1E+10	1	-1E+10	1	-1E+10	1	-1E+10	1	-1E+10	1	-1E+10	1
4902549	40	C	09/15/2021	16:06	-131.915	47.163	0	882.70	0	3.4330	0	34.2960	0	27.289	0	873.502	0	7.9	4	2.5	4	-1E+10	1	-1E+10	1	-1E+10	1	-1E+10	1	-1E+10	1	-1E+10	1
4902549	40	C	09/15/2021	16:06	-131.915	47.163	0	887.70	0	3.4250	0	34.2990	0	27.292	0	878.439	0	7.7	4	2.4	4	-1E+10	1	-1E+10	1	-1E+10	1	-1E+10	1	-1E+10	1	-1E+10	1
4902549	40	C	09/15/2021	16:06	-131.915	47.163	0	892.80	0	3.4180	0	34.3020	0	27.295	0	883.475	0	7.7	4	2.4	4	-1E+10	1	-1E+10	1	-1E+10	1	-1E+10	1	-1E+10	1	-1E+10	1
4902549	40	C	09/15/2021	16:06	-131.915	47.163	0	897.80	0	3.4050	0	34.3040	0	27.298	0	888.412	0	7.5	4	2.3	4	-1E+10	1	-1E+10	1	-1E+10	1	-1E+10	1	-1E+10	1	-1E+10	1
4902549	40	C	09/15/2021	16:06	-131.915	47.163	0	902.90	0	3.3970	0	34.3080	0	27.302	0	893.448	0	7.4	4	2.3	4	-1E+10	1	-1E+10	1	-1E+10	1	-1E+10	1	-1E+10	1	-1E+10	1
4902549	40	C	09/15/2021	16:06	-131.915	47.163	0	908.00	0	3.3940	0	34.3100	0	27.304	0	898.484	0	7.3	4	2.3	4	-1E+10	1	-1E+10	1	-1E+10	1	-1E+10	1	-1E+10	1	-1E+10	1
4902549	40	C	09/15/2021	16:06	-131.915	47.163	0	912.70	0	3.3870	0	34.3120	0	27.306	0	903.125	0	7.2	4	2.2	4	-1E+10	1	-1E+10	1	-1E+10	1	-1E+10	1	-1E+10	1	-1E+10	1
4902549	40	C	09/15/2021	16:06	-131.915	47.163	0	917.90	0	3.3740	0	34.3160	0	27.310	0	908.259	0	7.1	4	2.2	4	-1E+10	1	-1E+10	1	-1E+10	1	-1E+10	1	-1E+10	1	-1E+10	1
4902549	40	C	09/15/2021	16:06	-131.915	47.163	0	923.20	0	3.3690	0	34.3180	0	27.312	0	913.491	0	7.1	4	2.2	4	-1E+10	1	-1E+10	1	-1E+10	1	-1E+10	1	-1E+10	1	-1E+10	1
4902549	40	C	09/15/2021	16:06	-131.915	47.163	0	928.00	0	3.3610	0	34.3190	0	27.314	0	918.230	0	7.0	4	2.2	4	-1E+10	1	-1E+10	1	-1E+10	1	-1E+10	1	-1E+10	1	-1E+10	1
4902549	40	C	09/15/2021	16:06	-131.915	47.163	0	932.80	0	3.3520	0	34.3220	0	27.317	0	922.969	0	7.0	4	2.2	4	-1E+10	1	-1E+10	1	-1E+10	1	-1E+10	1	-1E+10	1	-1E+10	1
4902549	40	C	09/15/2021	16:06	-131.915	47.163	0	937.70	0	3.3400	0	34.3250	0	27.321	0	927.807	0	6.9	4	2.2	4	-1E+10	1	-1E+10	1	-1E+10	1	-1E+10	1	-1E+10	1	-1E+10	1
4902549	40	C	09/15/2021	16:06	-131.915	47.163	0	942.60	0	3.3310	0	34.3260	0	27.323	0	932.644	0	6.9	4	2.2	4	-1E+10	1	-1E+10	1	-1E+10	1	-1E+10	1	-1E+10	1	-1E+10	1
4902549	40	C	09/15/2021	16:06	-131.915	47.163	0	947.70	0	3.3250	0	34.3290	0	27.326	0	937.679	0	6.9	4	2.2	4	-1E+10	1	-1E+10	1	-1E+10	1	-1E+10	1	-1E+10	1	-1E+10	1
4902549	40	C	09/15/2021	16:06	-131.915	47.163	0	952.70	0	3.3120	0	34.3310	0	27.328	0	942.615	0	7.0	4	2.2	4	-1E+10	1	-1E+10	1	-1E+10	1	-1E+10	1	-1E+10	1	-1E+10	1
4902549	40	C	09/15/2021	16:06	-131.915	47.163	0	957.80	0	3.2910	0	34.3330	0	27.332	0	947.649	0	7.1	4	2.2	4	-1E+10	1	-1E+10	1	-1E+10	1	-1E+10	1	-1E+10	1	-1E+10	1
4902549	40	C	09/15/2021	16:06	-131.915	47.163	0	962.90	0	3.2810	0	34.3340	0	27.334	0	952.684	0	7.2	4	2.2	4	-1E+10	1	-1E+10	1	-1E+10	1	-1E+10	1	-1E+10	1	-1E+10	1
4902549	40	C	09/15/2021	16:06	-131.915	47.163	0	968.00	0	3.2550	0	34.3350	0	27.337	0	957.718	0	7.3	4	2.3	4	-1E+10	1	-1E+10	1	-1E+10	1	-1E+10	1	-1E+10	1	-1E+10	1
4902549	40	C	09/15/2021	16:06	-131.915	47.163	0	973.20	0	3.2450	0	34.3370	0	27.340	0	962.851	0	7.3	4	2.3	4	-1E+10	1	-1E+10	1	-1E+10	1	-1E+10	1	-1E+10	1	-1E+10	1
4902549	40	C	09/15/2021	16:06	-131.915	47.163	0	977.80	0	3.2420	0	34.3380	0	27.341	0	967.391	0	7.3	4	2.3	4	-1E+10	1	-1E+10	1	-1E+10	1	-1E+10	1	-1E+10	1	-1E+10	1
4902549	40	C	09/15/2021	16:06	-131.915	47.163	0	982.50	0	3.2330	0	34.3410	0	27.344	0	972.030	0	7.2	4	2.2	4	-1E+10	1	-1E+10	1	-1E+10	1	-1E+10	1	-1E+10	1	-1E+10	1
4902549	40	C	09/15/2021	16:06	-131.915	47.163	0	987.70	0	3.2220	0	34.3440	0	27.347	0	977.163	0	7.2	4	2.2	4	-1E+10	1	-1E+10	1	-1E+10	1	-1E+10	1	-1E+10	1	-1E+10	1
4902549	40	C	09/15/2021	16:06	-131.915	47.163	0	993.10	0	3.2160	0	34.3460	0	27.350	0	982.492	0	7.2	4	2.2	4	-1E+10	1	-1E+10	1	-1E+10	1	-1E+10	1	-1E+10	1	-1E+10	1
4902549	40	C	09/15/2021	16:06	-131.915	47.163	0	998.40	0	3.2080	0	34.3490	0	27.353	0	987.723	0	7.2	4	2.2	4	-1E+10	1	-1E+10	1	-1E+10	1	-1E+10	1	-1E+10	1	-1E+10	1
4902549	40	C	09/15/2021	16:06	-131.915	47.163	0	1005.50	0	3.2020	0	34.3500	0	27.354	0	994.731	0	7.1	4	2.2	4	-1E+10	1	-1E+10	1	-1E+10	1	-1E+10	1	-1E+10	1	-1E+10	1
4902549	40	C	09/15/2021	16:06	-131.915	47.163	0	1015.30	0	3.1880	0	34.3550	0	27.359	0	1004.402	0	7.0	4	2.2	4	-1E+10	1	-1E+10	1	-1E+10	1	-1E+10	1	-1E+10	1	-1E+10	1
4902549	40	C	09/15/2021	16:06	-131.915	47.163	0	1025.30	0	3.1710	0	34.3600	0	27.365	0	1014.271	0	7.0	4	2.2	4	-1E+10	1	-1E+10	1	-1E+10	1	-1E+10	1	-1E+10	1	-1E+10	1
4902549	40	C	09/15/2021	16:06	-131.915	47.163	0	1035.50	0	3.1550	0	34.3660	0	27.371	0	1024.336	0	6.9	4	2.1	4	-1E+10	1	-1E+10	1	-1E+10	1	-1E+10	1	-1E+10	1	-1E+10	1
4902549	40	C	09/15/2021	16:06	-131.915	47.163	0	1045.40	0	3.1460	0	34.3700	0	27.375	0	1034.105	0	6.9	4	2.1	4	-1E+10	1	-1E+10	1	-1E+10	1	-1E+10	1	-1E+10	1	-1E+10	1
4902549	40	C	09/15/2021	16:06	-131.915	47.163	0	1055.40	0	3.1360	0	34.3750	0	27.380	0	1043.972	0	6.8	4	2.1	4	-1E+10	1	-1E+10	1	-1E+10	1	-1E+10	1	-1E+10	1	-1E+10	1
4902549	40	C	09/15/2021	16:06	-131.915	47.163	0	1065.50	0	3.1330	0	34.3810	0	27.386	0	1053.937	0	6.8	4	2.1	4	-1E+10	1	-1E+10	1	-1E+10	1	-1E+10	1	-1E+10	1	-1E+10	1
4902549	40	C	09/15/2021	16:06	-131.915	47.163	0	1075.30	0	3.1220	0	34.3860	0	27.391	0	1063.606	0	6.9	4	2.1	4	-1E+10	1	-1E+10	1	-1E+10	1	-1E+10	1	-1E+10	1	-1E+10	1
4902549	40	C	09/15/2021	16:06	-131.915	47.163	0	1085.40	0	3.0980	0	34.3920	0	27.398	0	1073.570	0	7.1	4	2.2	4	-1E+10	1	-1E+10	1	-1E+10	1	-1E+10	1	-1E+10	1	-1E+10	1
4902549	40	C	09/15/2021	16:06	-131.915	47.163	0	1095.40	0	3.0660	0	34.3960	0	27.404	0	1083.436	0	7.2	4	2.2	4	-1E+10	1	-1E+10	1	-1E+10	1	-1E+10	1	-1E+10	1	-1E+10	1
4902549	40	C	09/15/2021	16:06	-131.915	47.163	0	1105.10	0	3.0500	0	34.4010	0	27.409	0	1093.004	0	7.4	4	2.3	4	-1E+10	1	-1E+10	1	-1E+10	1	-1E+10	1	-1E+10	1	-1E+10	1
4902549	40	C	09/15/2021	16:06	-131.915	47.163	0	1115.20	0	3.0350	0	34.4050	0	27.414	0	1102.967	0	7.6	4	2.3	4	-1E+10	1	-1E+10	1	-1E+10	1	-1E+10	1	-1E+10	1	-1E+10	1
4902549	40	C	09/15/2021	16:06	-131.915	47.163	0	1125.50	0	3.0140	0	34.4080	0	27.418	0	1113.127	0	7.8	4	2.4	4	-1E+10	1	-1E+10	1	-1E+10	1	-1E+10	1	-1E+10	1	-1E+10	1
4902549	40	C	09/15/2021	16:06	-131.915	47.163	0	1135.60	0	2.9940	0	34.4120	0	27.423	0	1123.089	0	7.9	4	2.4	4	-1E+10	1	-1E+10	1	-1E+10	1	-1E+10	1	-1E+10	1	-1E+10	1
4902549	40	C	09/15/2021	16:06	-131.915	47.163	0	1145.70	0	2.9750	0	34.4140	0	27.427	0	1133.051	0	8.1	4	2.5	4	-1E+10	1	-1E+10	1	-1E+10	1	-1E+10	1	-1E+10	1	-1E+10	1
4902549	40	C	09/15/2021	16:06	-131.915	47.163	0	1155.60	0	2.9580	0	34.4170	0	27.431	0	1142.814	0	8.2	4	2.5	4	-1E+10	1	-1E+10	1	-1E+10	1	-1E+10	1	-1E+10	1	-1E+10	1
4902549	40	C	09/15/2021	16:06	-131.915	47.163	0	1165.40	0	2.9400	0	34.4190	0	27.434	0	1152.479	0	8.4	4	2.6	4	-1E+10	1	-1E+10	1	-1E+10	1	-1E+10	1	-1E+10	1	-1E+10	1
4902549	40	C	09/15/2021	16:06	-131.915	47.163	0	1175.40	0	2.9240	0	34.4210	0	27.437	0	1162.341	0	8.5	4	2.6	4	-1E+10	1	-1E+10	1	-1E+10	1	-1E+10	1	-1E+10	1	-1E+10	1
4902549	40	C	09/15/2021	16:06	-131.915	47.163	0	1185.10	0	2.9120	0	34.4230	0	27.440	0	1171.906	0	8.7	4	2.7	4	-1E+10	1	-1E+10	1	-1E+10	1	-1E+10	1	-1E+10	1	-1E+10	1
4902549	40	C	09/15/2021	16:06	-131.915	47.163	0	1195.40	0	2.8900	0	34.4260	0	27.444	0	1182.062	0	8.9	4	2.7	4	-1E+10	1	-1E+10	1	-1E+10	1	-1E+10	1	-1E+10	1	-1E+10	1
4902549	40	C	09/15/2021	16:06	-131.915	47.163	0	1205.30	0	2.8700	0	34.4290	0	27.448	0	1191.824	0	9.1	4	2.8	4	-1E+10	1	-1E+10	1	-1E+10	1	-1E+10	1	-1E+10	1	-1E+10	1
4902549	40	C	09/15/2021	16:06	-131.915	47.163	0	1215.30	0	2.8580	0	34.4310	0	27.451	0	1201.683	0	9.2	4	2.8	4	-1E+10	1	-1E+10	1	-1E+10	1	-1E+10	1	-1E+10	1	-1E+10	1
4902549	40	C	09/15/2021	16:06	-131.915	47.163	0	1225.40	0	2.8420	0	34.4340	0	27.455	0	1211.641	0	9.4	4	2.9	4	-1E+10	1	-1E+10	1	-1E+10	1	-1E+10	1	-1E+10	1	-1E+10	1
4902549	40	C	09/15/2021	16:06	-131.915	47.163	0	1235.00	0	2.8280	0	34.4360	0	27.458	0	1221.105	0	9.6	4	3.0	4	-1E+10	1	-1E+10	1	-1E+10	1	-1E+10	1	-1E+10	1	-1E+10	1
4902549	40	C	09/15/2021	16:06	-131.915	47.163	0	1245.00	0	2.8180	0	34.4380	0	27.460	0	1230.964	0	9.8	4	3.0	4	-1E+10	1	-1E+10	1	-1E+10	1	-1E+10	1	-1E+10	1	-1E+10	1
4902549	40	C	09/15/2021	16:06	-131.915	47.163	0	1255.00	0	2.8070	0	34.4400	0	27.463	0	1240.822	0	10.0	4	3.1	4	-1E+10	1	-1E+10	1	-1E+10	1	-1E+10	1	-1E+10	1	-1E+10	1
4902549	40	C	09/15/2021	16:06	-131.915	47.163	0	1265.30	0	2.7870	0	34.4430	0	27.467	0	1250.975	0	10.4	4	3.2	4	-1E+10	1	-1E+10	1	-1E+10	1	-1E+10	1	-1E+10	1	-1E+10	1
4902549	40	C	09/15/2021	16:06	-131.915	47.163	0	1275.70	0	2.7640	0	34.4480	0	27.473	0	1261.226	0	10.6	4	3.3	4	-1E+10	1	-1E+10	1	-1E+10	1	-1E+10	1	-1E+10	1	-1E+10	1
4902549	40	C	09/15/2021	16:06	-131.915	47.163	0	1285.60	0	2.7520	0	34.4490	0	27.475	0	1270.983	0	10.8	4	3.3	4	-1E+10	1	-1E+10	1	-1E+10	1	-1E+10	1	-1E+10	1	-1E+10	1
4902549	40	C	09/15/2021	16:06	-131.915	47.163	0	1295.70	0	2.7400	0	34.4510	0	27.478	0	1280.938	0	11.0	4	3.4	4	-1E+10	1	-1E+10	1	-1E+10	1	-1E+10	1	-1E+10	1	-1E+10	1
4902549	40	C	09/15/2021	16:06	-131.915	47.163	0	1305.70	0	2.7320	0	34.4530	0	27.480	0	1290.793	0	11.3	4	3.5	4	-1E+10	1	-1E+10	1	-1E+10	1	-1E+10	1	-1E+10	1	-1E+10	1
4902549	40	C	09/15/2021	16:06	-131.915	47.163	0	1315.70	0	2.7200	0	34.4550	0	27.483	0	1300.648	0	11.5	4	3.5	4	-1E+10	1	-1E+10	1	-1E+10	1	-1E+10	1	-1E+10	1	-1E+10	1
4902549	40	C	09/15/2021	16:06	-131.915	47.163	0	1325.60	0	2.6980	0	34.4570	0	27.487	0	1310.404	0	11.9	4	3.6	4	-1E+10	1	-1E+10	1	-1E+10	1	-1E+10	1	-1E+10	1	-1E+10	1
4902549	40	C	09/15/2021	16:06	-131.915	47.163	0	1335.40	0	2.6830	0	34.4600	0	27.490	0	1320.061	0	12.2	4	3.7	4	-1E+10	1	-1E+10	1	-1E+10	1	-1E+10	1	-1E+10	1	-1E+10	1
4902549	40	C	09/15/2021	16:06	-131.915	47.163	0	1345.70	0	2.6650	0	34.4630	0	27.494	0	1330.210	0	12.4	4	3.8	4	-1E+10	1	-1E+10	1	-1E+10	1	-1E+10	1	-1E+10	1	-1E+10	1
4902549	40	C	09/15/2021	16:06	-131.915	47.163	0	1355.50	0	2.6510	0	34.4640	0	27.496	0	1339.867	0	12.7	4	3.9	4	-1E+10	1	-1E+10	1	-1E+10	1	-1E+10	1	-1E+10	1	-1E+10	1
4902549	40	C	09/15/2021	16:06	-131.915	47.163	0	1365.00	0	2.6410	0	34.4660	0	27.499	0	1349.227	0	13.1	4	4.0	4	-1E+10	1	-1E+10	1	-1E+10	1	-1E+10	1	-1E+10	1	-1E+10	1
4902549	40	C	09/15/2021	16:06	-131.915	47.163	0	1375.40	0	2.6310	0	34.4700	0	27.503	0	1359.473	0	13.5	4	4.1	4	-1E+10	1	-1E+10	1	-1E+10	1	-1E+10	1	-1E+10	1	-1E+10	1
4902549	40	C	09/15/2021	16:06	-131.915	47.163	0	1385.80	0	2.6230	0	34.4710	0	27.504	0	1369.719	0	13.9	4	4.2	4	-1E+10	1	-1E+10	1	-1E+10	1	-1E+10	1	-1E+10	1	-1E+10	1
4902549	40	C	09/15/2021	16:06	-131.915	47.163	0	1395.50	0	2.6100	0	34.4740	0	27.508	0	1379.275	0	14.4	4	4.4	4	-1E+10	1	-1E+10	1	-1E+10	1	-1E+10	1	-1E+10	1	-1E+10	1
4902549	40	C	09/15/2021	16:06	-131.915	47.163	0	1405.30	0	2.5950	0	34.4770	0	27.512	0	1388.928	0	14.8	4	4.5	4	-1E+10	1	-1E+10	1	-1E+10	1	-1E+10	1	-1E+10	1	-1E+10	1
4902549	40	C	09/15/2021	16:06	-131.915	47.163	0	1415.10	0	2.5790	0	34.4790	0	27.515	0	1398.582	0	15.1	4	4.6	4	-1E+10	1	-1E+10	1	-1E+10	1	-1E+10	1	-1E+10	1	-1E+10	1
4902549	40	C	09/15/2021	16:06	-131.915	47.163	0	1425.40	0	2.5520	0	34.4810	0	27.519	0	1408.727	0	15.6	4	4.8	4	-1E+10	1	-1E+10	1	-1E+10	1	-1E+10	1	-1E+10	1	-1E+10	1
4902549	40	C	09/15/2021	16:06	-131.915	47.163	0	1435.70	0	2.5380	0	34.4840	0	27.522	0	1418.872	0	16.1	4	4.9	4	-1E+10	1	-1E+10	1	-1E+10	1	-1E+10	1	-1E+10	1	-1E+10	1
4902549	40	C	09/15/2021	16:06	-131.915	47.163	0	1445.70	0	2.5200	0	34.4870	0	27.526	0	1428.721	0	16.5	4	5.0	4	-1E+10	1	-1E+10	1	-1E+10	1	-1E+10	1	-1E+10	1	-1E+10	1
4902549	40	C	09/15/2021	16:06	-131.915	47.163	0	1455.80	0	2.5070	0	34.4890	0	27.529	0	1438.668	0	17.0	4	5.2	4	-1E+10	1	-1E+10	1	-1E+10	1	-1E+10	1	-1E+10	1	-1E+10	1
4902549	40	C	09/15/2021	16:06	-131.915	47.163	0	1465.80	0	2.4900	0	34.4920	0	27.533	0	1448.516	0	17.7	4	5.4	4	-1E+10	1	-1E+10	1	-1E+10	1	-1E+10	1	-1E+10	1	-1E+10	1
4902549	40	C	09/15/2021	16:06	-131.915	47.163	0	1475.50	0	2.4750	0	34.4940	0	27.536	0	1458.068	0	18.2	4	5.6	4	-1E+10	1	-1E+10	1	-1E+10	1	-1E+10	1	-1E+10	1	-1E+10	1
4902549	40	C	09/15/2021	16:06	-131.915	47.163	0	1485.70	0	2.4650	0	34.4970	0	27.539	0	1468.112	0	18.7	4	5.7	4	-1E+10	1	-1E+10	1	-1E+10	1	-1E+10	1	-1E+10	1	-1E+10	1
4902549	40	C	09/15/2021	16:06	-131.915	47.163	0	1495.60	0	2.4500	0	34.4990	0	27.542	0	1477.861	0	19.1	4	5.8	4	-1E+10	1	-1E+10	1	-1E+10	1	-1E+10	1	-1E+10	1	-1E+10	1
4902549	40	C	09/15/2021	16:06	-131.915	47.163	0	1505.60	0	2.4350	0	34.5000	0	27.544	0	1487.707	0	19.4	4	5.9	4	-1E+10	1	-1E+10	1	-1E+10	1	-1E+10	1	-1E+10	1	-1E+10	1
4902549	40	C	09/15/2021	16:06	-131.915	47.163	0	1515.40	0	2.4170	0	34.5020	0	27.547	0	1497.356	0	20.1	4	6.1	4	-1E+10	1	-1E+10	1	-1E+10	1	-1E+10	1	-1E+10	1	-1E+10	1
4902549	40	C	09/15/2021	16:06	-131.915	47.163	0	1525.50	0	2.4020	0	34.5040	0	27.550	0	1507.299	0	21.0	4	6.4	4	-1E+10	1	-1E+10	1	-1E+10	1	-1E+10	1	-1E+10	1	-1E+10	1
4902549	40	C	09/15/2021	16:06	-131.915	47.163	0	1535.70	0	2.3840	0	34.5080	0	27.555	0	1517.341	0	21.9	4	6.7	4	-1E+10	1	-1E+10	1	-1E+10	1	-1E+10	1	-1E+10	1	-1E+10	1
4902549	40	C	09/15/2021	16:06	-131.915	47.163	0	1545.20	0	2.3640	0	34.5110	0	27.559	0	1526.693	0	22.7	4	6.9	4	-1E+10	1	-1E+10	1	-1E+10	1	-1E+10	1	-1E+10	1	-1E+10	1
4902549	40	C	09/15/2021	16:06	-131.915	47.163	0	1555.20	0	2.3470	0	34.5140	0	27.563	0	1536.537	0	23.6	4	7.2	4	-1E+10	1	-1E+10	1	-1E+10	1	-1E+10	1	-1E+10	1	-1E+10	1
4902549	40	C	09/15/2021	16:06	-131.915	47.163	0	1565.40	0	2.3350	0	34.5170	0	27.566	0	1546.578	0	24.1	4	7.3	4	-1E+10	1	-1E+10	1	-1E+10	1	-1E+10	1	-1E+10	1	-1E+10	1
4902549	40	C	09/15/2021	16:06	-131.915	47.163	0	1575.20	0	2.3280	0	34.5180	0	27.568	0	1556.224	0	24.5	4	7.5	4	-1E+10	1	-1E+10	1	-1E+10	1	-1E+10	1	-1E+10	1	-1E+10	1
4902549	40	C	09/15/2021	16:06	-131.915	47.163	0	1585.00	0	2.3200	0	34.5200	0	27.570	0	1565.869	0	25.2	4	7.6	4	-1E+10	1	-1E+10	1	-1E+10	1	-1E+10	1	-1E+10	1	-1E+10	1
4902549	40	C	09/15/2021	16:06	-131.915	47.163	0	1595.40	0	2.3060	0	34.5230	0	27.574	0	1576.105	0	26.2	4	7.9	4	-1E+10	1	-1E+10	1	-1E+10	1	-1E+10	1	-1E+10	1	-1E+10	1
4902549	40	C	09/15/2021	16:06	-131.915	47.163	0	1605.40	0	2.2960	0	34.5260	0	27.577	0	1585.947	0	26.9	4	8.2	4	-1E+10	1	-1E+10	1	-1E+10	1	-1E+10	1	-1E+10	1	-1E+10	1
4902549	40	C	09/15/2021	16:06	-131.915	47.163	0	1615.40	0	2.2920	0	34.5280	0	27.579	0	1595.788	0	27.3	4	8.3	4	-1E+10	1	-1E+10	1	-1E+10	1	-1E+10	1	-1E+10	1	-1E+10	1
4902549	40	C	09/15/2021	16:06	-131.915	47.163	0	1625.40	0	2.2810	0	34.5280	0	27.580	0	1605.629	0	27.5	4	8.3	4	-1E+10	1	-1E+10	1	-1E+10	1	-1E+10	1	-1E+10	1	-1E+10	1
4902549	40	C	09/15/2021	16:06	-131.915	47.163	0	1635.10	0	2.2610	0	34.5290	0	27.582	0	1615.174	0	28.0	4	8.5	4	-1E+10	1	-1E+10	1	-1E+10	1	-1E+10	1	-1E+10	1	-1E+10	1
4902549	40	C	09/15/2021	16:06	-131.915	47.163	0	1645.20	0	2.2460	0	34.5310	0	27.585	0	1625.112	0	28.8	4	8.7	4	-1E+10	1	-1E+10	1	-1E+10	1	-1E+10	1	-1E+10	1	-1E+10	1
4902549	40	C	09/15/2021	16:06	-131.915	47.163	0	1655.30	0	2.2340	0	34.5340	0	27.589	0	1635.050	0	29.5	4	8.9	4	-1E+10	1	-1E+10	1	-1E+10	1	-1E+10	1	-1E+10	1	-1E+10	1
4902549	40	C	09/15/2021	16:06	-131.915	47.163	0	1665.60	0	2.2310	0	34.5350	0	27.590	0	1645.184	0	30.1	4	9.1	4	-1E+10	1	-1E+10	1	-1E+10	1	-1E+10	1	-1E+10	1	-1E+10	1
4902549	40	C	09/15/2021	16:06	-131.915	47.163	0	1675.30	0	2.2130	0	34.5370	0	27.593	0	1654.727	0	30.8	4	9.3	4	-1E+10	1	-1E+10	1	-1E+10	1	-1E+10	1	-1E+10	1	-1E+10	1
4902549	40	C	09/15/2021	16:06	-131.915	47.163	0	1685.00	0	2.2040	0	34.5390	0	27.595	0	1664.270	0	32.0	4	9.7	4	-1E+10	1	-1E+10	1	-1E+10	1	-1E+10	1	-1E+10	1	-1E+10	1
4902549	40	C	09/15/2021	16:06	-131.915	47.163	0	1695.20	0	2.1960	0	34.5430	0	27.599	0	1674.304	0	33.4	4	10.1	4	-1E+10	1	-1E+10	1	-1E+10	1	-1E+10	1	-1E+10	1	-1E+10	1
4902549	40	C	09/15/2021	16:06	-131.915	47.163	0	1705.50	0	2.1770	0	34.5470	0	27.604	0	1684.436	0	34.3	4	10.4	4	-1E+10	1	-1E+10	1	-1E+10	1	-1E+10	1	-1E+10	1	-1E+10	1
4902549	40	C	09/15/2021	16:06	-131.915	47.163	0	1715.10	0	2.1650	0	34.5490	0	27.606	0	1693.879	0	35.0	4	10.6	4	-1E+10	1	-1E+10	1	-1E+10	1	-1E+10	1	-1E+10	1	-1E+10	1
4902549	40	C	09/15/2021	16:06	-131.915	47.163	0	1725.00	0	2.1570	0	34.5510	0	27.609	0	1703.617	0	35.6	4	10.8	4	-1E+10	1	-1E+10	1	-1E+10	1	-1E+10	1	-1E+10	1	-1E+10	1
4902549	40	C	09/15/2021	16:06	-131.915	47.163	0	1735.20	0	2.1470	0	34.5520	0	27.610	0	1713.649	0	36.3	4	11.0	4	-1E+10	1	-1E+10	1	-1E+10	1	-1E+10	1	-1E+10	1	-1E+10	1
4902549	40	C	09/15/2021	16:06	-131.915	47.163	0	1745.20	0	2.1410	0	34.5530	0	27.612	0	1723.485	0	36.9	4	11.2	4	-1E+10	1	-1E+10	1	-1E+10	1	-1E+10	1	-1E+10	1	-1E+10	1
4902549	40	C	09/15/2021	16:06	-131.915	47.163	0	1755.00	0	2.1270	0	34.5550	0	27.614	0	1733.123	0	37.7	4	11.4	4	-1E+10	1	-1E+10	1	-1E+10	1	-1E+10	1	-1E+10	1	-1E+10	1
4902549	40	C	09/15/2021	16:06	-131.915	47.163	0	1765.10	0	2.1130	0	34.5570	0	27.617	0	1743.055	0	38.5	4	11.6	4	-1E+10	1	-1E+10	1	-1E+10	1	-1E+10	1	-1E+10	1	-1E+10	1
4902549	40	C	09/15/2021	16:06	-131.915	47.163	0	1775.30	0	2.0990	0	34.5590	0	27.620	0	1753.086	0	39.1	4	11.8	4	-1E+10	1	-1E+10	1	-1E+10	1	-1E+10	1	-1E+10	1	-1E+10	1
4902549	40	C	09/15/2021	16:06	-131.915	47.163	0	1785.20	0	2.0900	0	34.5600	0	27.622	0	1762.821	0	39.7	4	12.0	4	-1E+10	1	-1E+10	1	-1E+10	1	-1E+10	1	-1E+10	1	-1E+10	1
4902549	40	C	09/15/2021	16:06	-131.915	47.163	0	1795.30	0	2.0790	0	34.5620	0	27.624	0	1772.752	0	40.4	4	12.2	4	-1E+10	1	-1E+10	1	-1E+10	1	-1E+10	1	-1E+10	1	-1E+10	1
4902549	40	C	09/15/2021	16:06	-131.915	47.163	0	1805.30	0	2.0640	0	34.5640	0	27.627	0	1782.585	0	40.9	4	12.4	4	-1E+10	1	-1E+10	1	-1E+10	1	-1E+10	1	-1E+10	1	-1E+10	1
4902549	40	C	09/15/2021	16:06	-131.915	47.163	0	1815.30	0	2.0590	0	34.5650	0	27.628	0	1792.417	0	41.2	4	12.4	4	-1E+10	1	-1E+10	1	-1E+10	1	-1E+10	1	-1E+10	1	-1E+10	1
4902549	40	C	09/15/2021	16:06	-131.915	47.163	0	1825.60	0	2.0550	0	34.5660	0	27.629	0	1802.543	0	41.5	4	12.5	4	-1E+10	1	-1E+10	1	-1E+10	1	-1E+10	1	-1E+10	1	-1E+10	1
4902549	40	C	09/15/2021	16:06	-131.915	47.163	0	1835.60	0	2.0530	0	34.5660	0	27.630	0	1812.374	0	42.0	4	12.7	4	-1E+10	1	-1E+10	1	-1E+10	1	-1E+10	1	-1E+10	1	-1E+10	1
4902549	40	C	09/15/2021	16:06	-131.915	47.163	0	1846.00	0	2.0430	0	34.5680	0	27.632	0	1822.598	0	42.9	4	12.9	4	-1E+10	1	-1E+10	1	-1E+10	1	-1E+10	1	-1E+10	1	-1E+10	1
4902549	40	C	09/15/2021	16:06	-131.915	47.163	0	1855.40	0	2.0330	0	34.5700	0	27.634	0	1831.839	0	43.4	4	13.1	4	-1E+10	1	-1E+10	1	-1E+10	1	-1E+10	1	-1E+10	1	-1E+10	1
4902549	40	C	09/15/2021	16:06	-131.915	47.163	0	1865.40	0	2.0270	0	34.5710	0	27.636	0	1841.668	0	43.8	4	13.2	4	-1E+10	1	-1E+10	1	-1E+10	1	-1E+10	1	-1E+10	1	-1E+10	1
4902549	40	C	09/15/2021	16:06	-131.915	47.163	0	1875.60	0	2.0220	0	34.5720	0	27.637	0	1851.694	0	44.3	4	13.4	4	-1E+10	1	-1E+10	1	-1E+10	1	-1E+10	1	-1E+10	1	-1E+10	1
4902549	40	C	09/15/2021	16:06	-131.915	47.163	0	1885.30	0	2.0130	0	34.5730	0	27.639	0	1861.228	0	44.9	4	13.5	4	-1E+10	1	-1E+10	1	-1E+10	1	-1E+10	1	-1E+10	1	-1E+10	1
4902549	40	C	09/15/2021	16:06	-131.915	47.163	0	1895.30	0	2.0080	0	34.5740	0	27.640	0	1871.056	0	45.4	4	13.7	4	-1E+10	1	-1E+10	1	-1E+10	1	-1E+10	1	-1E+10	1	-1E+10	1
4902549	40	C	09/15/2021	16:06	-131.915	47.163	0	1905.50	0	2.0030	0	34.5750	0	27.641	0	1881.081	0	45.9	4	13.8	4	-1E+10	1	-1E+10	1	-1E+10	1	-1E+10	1	-1E+10	1	-1E+10	1
4902549	40	C	09/15/2021	16:06	-131.915	47.163	0	1915.30	0	1.9960	0	34.5760	0	27.642	0	1890.712	0	46.5	4	14.0	4	-1E+10	1	-1E+10	1	-1E+10	1	-1E+10	1	-1E+10	1	-1E+10	1
4902549	40	C	09/15/2021	16:06	-131.915	47.163	0	1925.30	0	1.9890	0	34.5770	0	27.644	0	1900.539	0	47.0	4	14.2	4	-1E+10	1	-1E+10	1	-1E+10	1	-1E+10	1	-1E+10	1	-1E+10	1
4902549	40	C	09/15/2021	16:06	-131.915	47.163	0	1935.30	0	1.9830	0	34.5790	0	27.646	0	1910.365	0	47.5	4	14.3	4	-1E+10	1	-1E+10	1	-1E+10	1	-1E+10	1	-1E+10	1	-1E+10	1
4902549	40	C	09/15/2021	16:06	-131.915	47.163	0	1945.20	0	1.9770	0	34.5800	0	27.647	0	1920.093	0	47.9	4	14.4	4	-1E+10	1	-1E+10	1	-1E+10	1	-1E+10	1	-1E+10	1	-1E+10	1
4902549	40	C	09/15/2021	16:06	-131.915	47.163	0	1955.30	0	1.9700	0	34.5810	0	27.649	0	1930.017	0	48.5	4	14.6	4	-1E+10	1	-1E+10	1	-1E+10	1	-1E+10	1	-1E+10	1	-1E+10	1
4902549	40	C	09/15/2021	16:06	-131.915	47.163	0	1965.40	0	1.9630	0	34.5820	0	27.650	0	1939.941	0	49.0	4	14.8	4	-1E+10	1	-1E+10	1	-1E+10	1	-1E+10	1	-1E+10	1	-1E+10	1
4902549	40	C	09/15/2021	16:06	-131.915	47.163	0	1975.30	0	1.9560	0	34.5830	0	27.651	0	1949.667	0	49.5	4	14.9	4	-1E+10	1	-1E+10	1	-1E+10	1	-1E+10	1	-1E+10	1	-1E+10	1
4902549	40	C	09/15/2021	16:06	-131.915	47.163	0	1986.10	0	1.9460	0	34.5850	0	27.654	0	1960.277	0	49.4	4	14.9	4	-1E+10	1	-1E+10	1	-1E+10	1	-1E+10	1	-1E+10	1	-1E+10	1
4902549	40	C	09/15/2021	16:06	-131.915	47.163	0																										
4902549	41	C	09/25/2021	21:03	-131.922	47.117	0	0.30	0	16.4320	0	32.2820	0	23.561	0	0.298	0	239.0	4	97.3	4	-1E+10	1	-1E+10	1	-1E+10	1	-1E+10	1	-1E+10	1	-1E+10	1
4902549	41	C	09/25/2021	21:03	-131.922	47.117	0	1.10	0	16.4310	0	32.2800	0	23.560	0	1.091	0	239.1	4	97.4	4	-1E+10	1	-1E+10	1	-1E+10	1	-1E+10	1	-1E+10	1	-1E+10	1
4902549	41	C	09/25/2021	21:03	-131.922	47.117	0	2.10	0	16.4290	0	32.2820	0	23.562	0	2.083	0	239.1	4	97.4	4	-1E+10	1	-1E+10	1	-1E+10	1	-1E+10	1	-1E+10	1	-1E+10	1
4902549	41	C	09/25/2021	21:03	-131.922	47.117	0	3.10	0	16.4290	0	32.2820	0	23.562	0	3.074	0	239.1	4	97.4	4	-1E+10	1	-1E+10	1	-1E+10	1	-1E+10	1	-1E+10	1	-1E+10	1
4902549	41	C	09/25/2021	21:03	-131.922	47.117	0	4.10	0	16.4300	0	32.2820	0	23.562	0	4.066	0	239.1	4	97.4	4	-1E+10	1	-1E+10	1	-1E+10	1	-1E+10	1	-1E+10	1	-1E+10	1
4902549	41	C	09/25/2021	21:03	-131.922	47.117	0	4.80	0	16.4290	0	32.2830	0	23.563	0	4.760	0	239.1	4	97.4	4	-1E+10	1	-1E+10	1	-1E+10	1	-1E+10	1	-1E+10	1	-1E+10	1
4902549	41	C	09/25/2021	21:03	-131.922	47.117	0	6.00	0	16.4280	0	32.2840	0	23.564	0	5.950	0	239.1	4	97.4	4	-1E+10	1	-1E+10	1	-1E+10	1	-1E+10	1	-1E+10	1	-1E+10	1
4902549	41	C	09/25/2021	21:03	-131.922	47.117	0	7.10	0	16.4290	0	32.2840	0	23.564	0	7.041	0	239.1	4	97.4	4	-1E+10	1	-1E+10	1	-1E+10	1	-1E+10	1	-1E+10	1	-1E+10	1
4902549	41	C	09/25/2021	21:03	-131.922	47.117	0	8.10	0	16.4280	0	32.2840	0	23.564	0	8.033	0	239.1	4	97.4	4	-1E+10	1	-1E+10	1	-1E+10	1	-1E+10	1	-1E+10	1	-1E+10	1
4902549	41	C	09/25/2021	21:03	-131.922	47.117	0	9.00	0	16.4290	0	32.2840	0	23.564	0	8.925	0	239.1	4	97.4	4	-1E+10	1	-1E+10	1	-1E+10	1	-1E+10	1	-1E+10	1	-1E+10	1
4902549	41	C	09/25/2021	21:03	-131.922	47.117	0	10.10	0	16.4240	0	32.2840	0	23.565	0	10.016	0	239.2	4	97.4	4	-1E+10	1	-1E+10	1	-1E+10	1	-1E+10	1	-1E+10	1	-1E+10	1
4902549	41	C	09/25/2021	21:03	-131.922	47.117	0	11.00	0	16.4240	0	32.2840	0	23.565	0	10.908	0	239.2	4	97.4	4	-1E+10	1	-1E+10	1	-1E+10	1	-1E+10	1	-1E+10	1	-1E+10	1
4902549	41	C	09/25/2021	21:03	-131.922	47.117	0	12.00	0	16.4230	0	32.2840	0	23.565	0	11.900	0	239.2	4	97.4	4	-1E+10	1	-1E+10	1	-1E+10	1	-1E+10	1	-1E+10	1	-1E+10	1
4902549	41	C	09/25/2021	21:03	-131.922	47.117	0	12.90	0	16.4280	0	32.2840	0	23.564	0	12.792	0	239.2	4	97.4	4	-1E+10	1	-1E+10	1	-1E+10	1	-1E+10	1	-1E+10	1	-1E+10	1
4902549	41	C	09/25/2021	21:03	-131.922	47.117	0	13.70	0	16.4200	0	32.2820	0	23.564	0	13.586	0	239.2	4	97.4	4	-1E+10	1	-1E+10	1	-1E+10	1	-1E+10	1	-1E+10	1	-1E+10	1
4902549	41	C	09/25/2021	21:03	-131.922	47.117	0	14.90	0	16.4150	0	32.2840	0	23.567	0	14.776	0	239.2	4	97.4	4	-1E+10	1	-1E+10	1	-1E+10	1	-1E+10	1	-1E+10	1	-1E+10	1
4902549	41	C	09/25/2021	21:03	-131.922	47.117	0	16.00	0	16.4160	0	32.2840	0	23.567	0	15.866	0	239.2	4	97.4	4	-1E+10	1	-1E+10	1	-1E+10	1	-1E+10	1	-1E+10	1	-1E+10	1
4902549	41	C	09/25/2021	21:03	-131.922	47.117	0	17.10	0	16.4130	0	32.2840	0	23.568	0	16.957	0	239.2	4	97.4	4	-1E+10	1	-1E+10	1	-1E+10	1	-1E+10	1	-1E+10	1	-1E+10	1
4902549	41	C	09/25/2021	21:03	-131.922	47.117	0	18.00	0	16.4170	0	32.2840	0	23.567	0	17.850	0	239.2	4	97.4	4	-1E+10	1	-1E+10	1	-1E+10	1	-1E+10	1	-1E+10	1	-1E+10	1
4902549	41	C	09/25/2021	21:03	-131.922	47.117	0	18.80	0	16.4130	0	32.2840	0	23.568	0	18.643	0	239.3	4	97.4	4	-1E+10	1	-1E+10	1	-1E+10	1	-1E+10	1	-1E+10	1	-1E+10	1
4902549	41	C	09/25/2021	21:03	-131.922	47.117	0	19.90	0	16.4110	0	32.2850	0	23.569	0	19.734	0	239.3	4	97.4	4	-1E+10	1	-1E+10	1	-1E+10	1	-1E+10	1	-1E+10	1	-1E+10	1
4902549	41	C	09/25/2021	21:03	-131.922	47.117	0	21.00	0	16.4120	0	32.2840	0	23.568	0	20.824	0	239.4	4	97.5	4	-1E+10	1	-1E+10	1	-1E+10	1	-1E+10	1	-1E+10	1	-1E+10	1
4902549	41	C	09/25/2021	21:03	-131.922	47.117	0	22.00	0	16.4100	0	32.2840	0	23.568	0	21.816	0	239.4	4	97.5	4	-1E+10	1	-1E+10	1	-1E+10	1	-1E+10	1	-1E+10	1	-1E+10	1
4902549	41	C	09/25/2021	21:03	-131.922	47.117	0	22.90	0	16.4120	0	32.2840	0	23.568	0	22.708	0	239.4	4	97.5	4	-1E+10	1	-1E+10	1	-1E+10	1	-1E+10	1	-1E+10	1	-1E+10	1
4902549	41	C	09/25/2021	21:03	-131.922	47.117	0	23.90	0	16.4100	0	32.2850	0	23.569	0	23.700	0	239.4	4	97.5	4	-1E+10	1	-1E+10	1	-1E+10	1	-1E+10	1	-1E+10	1	-1E+10	1
4902549	41	C	09/25/2021	21:03	-131.922	47.117	0	25.00	0	16.4110	0	32.2850	0	23.569	0	24.791	0	239.5	4	97.5	4	-1E+10	1	-1E+10	1	-1E+10	1	-1E+10	1	-1E+10	1	-1E+10	1
4902549	41	C	09/25/2021	21:03	-131.922	47.117	0	26.20	0	16.4110	0	32.2850	0	23.569	0	25.981	0	239.7	4	97.6	4	-1E+10	1	-1E+10	1	-1E+10	1	-1E+10	1	-1E+10	1	-1E+10	1
4902549	41	C	09/25/2021	21:03	-131.922	47.117	0	26.80	0	16.4110	0	32.2840	0	23.568	0	26.576	0	239.7	4	97.6	4	-1E+10	1	-1E+10	1	-1E+10	1	-1E+10	1	-1E+10	1	-1E+10	1
4902549	41	C	09/25/2021	21:03	-131.922	47.117	0	27.90	0	16.4080	0	32.2850	0	23.570	0	27.666	0	239.8	4	97.6	4	-1E+10	1	-1E+10	1	-1E+10	1	-1E+10	1	-1E+10	1	-1E+10	1
4902549	41	C	09/25/2021	21:03	-131.922	47.117	0	29.20	0	16.4050	0	32.2850	0	23.571	0	28.955	0	240.0	4	97.7	4	-1E+10	1	-1E+10	1	-1E+10	1	-1E+10	1	-1E+10	1	-1E+10	1
4902549	41	C	09/25/2021	21:03	-131.922	47.117	0	30.00	0	16.4050	0	32.2840	0	23.570	0	29.749	0	240.0	4	97.7	4	-1E+10	1	-1E+10	1	-1E+10	1	-1E+10	1	-1E+10	1	-1E+10	1
4902549	41	C	09/25/2021	21:03	-131.922	47.117	0	30.90	0	16.4030	0	32.2840	0	23.570	0	30.641	0	240.4	4	97.8	4	-1E+10	1	-1E+10	1	-1E+10	1	-1E+10	1	-1E+10	1	-1E+10	1
4902549	41	C	09/25/2021	21:03	-131.922	47.117	0	32.10	0	16.4040	0	32.2840	0	23.570	0	31.831	0	240.7	4	98.0	4	-1E+10	1	-1E+10	1	-1E+10	1	-1E+10	1	-1E+10	1	-1E+10	1
4902549	41	C	09/25/2021	21:03	-131.922	47.117	0	32.90	0	16.4030	0	32.2840	0	23.570	0	32.624	0	241.0	4	98.1	4	-1E+10	1	-1E+10	1	-1E+10	1	-1E+10	1	-1E+10	1	-1E+10	1
4902549	41	C	09/25/2021	21:03	-131.922	47.117	0	34.10	0	16.4030	0	32.2830	0	23.570	0	33.814	0	241.7	4	98.4	4	-1E+10	1	-1E+10	1	-1E+10	1	-1E+10	1	-1E+10	1	-1E+10	1
4902549	41	C	09/25/2021	21:03	-131.922	47.117	0	34.90	0	16.4020	0	32.2830	0	23.570	0	34.607	0	242.2	4	98.6	4	-1E+10	1	-1E+10	1	-1E+10	1	-1E+10	1	-1E+10	1	-1E+10	1
4902549	41	C	09/25/2021	21:03	-131.922	47.117	0	36.10	0	16.3940	0	32.2840	0	23.573	0	35.797	0	243.2	4	99.0	4	-1E+10	1	-1E+10	1	-1E+10	1	-1E+10	1	-1E+10	1	-1E+10	1
4902549	41	C	09/25/2021	21:03	-131.922	47.117	0	36.90	0	16.3960	0	32.2820	0	23.571	0	36.590	0	244.1	4	99.4	4	-1E+10	1	-1E+10	1	-1E+10	1	-1E+10	1	-1E+10	1	-1E+10	1
4902549	41	C	09/25/2021	21:03	-131.922	47.117	0	37.90	0	16.3770	0	32.2810	0	23.574	0	37.582	0	245.6	4	99.9	4	-1E+10	1	-1E+10	1	-1E+10	1	-1E+10	1	-1E+10	1	-1E+10	1
4902549	41	C	09/25/2021	21:03	-131.922	47.117	0	39.00	0	16.3590	0	32.2770	0	23.575	0	38.672	0	247.4	4	100.6	4	-1E+10	1	-1E+10	1	-1E+10	1	-1E+10	1	-1E+10	1	-1E+10	1
4902549	41	C	09/25/2021	21:03	-131.922	47.117	0	40.20	0	16.2300	0	32.2710	0	23.600	0	39.862	0	250.2	4	101.5	4	-1E+10	1	-1E+10	1	-1E+10	1	-1E+10	1	-1E+10	1	-1E+10	1
4902549	41	C	09/25/2021	21:03	-131.922	47.117	0	41.00	0	15.8010	0	32.2900	0	23.711	0	40.655	0	253.7	4	102.1	4	-1E+10	1	-1E+10	1	-1E+10	1	-1E+10	1	-1E+10	1	-1E+10	1
4902549	41	C	09/25/2021	21:03	-131.922	47.117	0	42.00	0	15.4170	0	32.2510	0	23.765	0	41.647	0	271.0	4	108.2	4	-1E+10	1	-1E+10	1	-1E+10	1	-1E+10	1	-1E+10	1	-1E+10	1
4902549	41	C	09/25/2021	21:03	-131.922	47.117	0	42.80	0	14.4710	0	32.2730	0	23.985	0	42.440	0	273.9	4	107.3	4	-1E+10	1	-1E+10	1	-1E+10	1	-1E+10	1	-1E+10	1	-1E+10	1
4902549	41	C	09/25/2021	21:03	-131.922	47.117	0	43.90	0	12.6710	0	32.3490	0	24.405	0	43.531	0	278.7	4	105.4	4	-1E+10	1	-1E+10	1	-1E+10	1	-1E+10	1	-1E+10	1	-1E+10	1
4902549	41	C	09/25/2021	21:03	-131.922	47.117	0	44.90	0	12.1570	0	32.3430	0	24.498	0	44.522	0	279.6	4	104.6	4	-1E+10	1	-1E+10	1	-1E+10	1	-1E+10	1	-1E+10	1	-1E+10	1
4902549	41	C	09/25/2021	21:03	-131.922	47.117	0	46.10	0	11.8940	0	32.3390	0	24.544	0	45.712	0	279.0	4	103.8	4	-1E+10	1	-1E+10	1	-1E+10	1	-1E+10	1	-1E+10	1	-1E+10	1
4902549	41	C	09/25/2021	21:03	-131.922	47.117	0	46.80	0	11.8100	0	32.3440	0	24.564	0	46.406	0	278.4	4	103.4	4	-1E+10	1	-1E+10	1	-1E+10	1	-1E+10	1	-1E+10	1	-1E+10	1
4902549	41	C	09/25/2021	21:03	-131.922	47.117	0	47.90	0	11.6200	0	32.3600	0	24.611	0	47.496	0	277.2	4	102.5	4	-1E+10	1	-1E+10	1	-1E+10	1	-1E+10	1	-1E+10	1	-1E+10	1
4902549	41	C	09/25/2021	21:03	-131.922	47.117	0	49.10	0	11.2570	0	32.3590	0	24.676	0	48.686	0	277.1	4	101.7	4	-1E+10	1	-1E+10	1	-1E+10	1	-1E+10	1	-1E+10	1	-1E+10	1
4902549	41	C	09/25/2021	21:03	-131.922	47.117	0	50.00	0	11.0690	0	32.3370	0	24.692	0	49.578	0	276.9	4	101.2	4	-1E+10	1	-1E+10	1	-1E+10	1	-1E+10	1	-1E+10	1	-1E+10	1
4902549	41	C	09/25/2021	21:03	-131.922	47.117	0	50.90	0	10.8120	0	32.3430	0	24.741	0	50.471	0	277.4	4	100.8	4	-1E+10	1	-1E+10	1	-1E+10	1	-1E+10	1	-1E+10	1	-1E+10	1
4902549	41	C	09/25/2021	21:03	-131.922	47.117	0	52.00	0	10.5680	0	32.3460	0	24.786	0	51.561	0	277.8	4	100.5	4	-1E+10	1	-1E+10	1	-1E+10	1	-1E+10	1	-1E+10	1	-1E+10	1
4902549	41	C	09/25/2021	21:03	-131.922	47.117	0	53.20	0	10.4580	0	32.3550	0	24.812	0	52.751	0	277.7	4	100.2	4	-1E+10	1	-1E+10	1	-1E+10	1	-1E+10	1	-1E+10	1	-1E+10	1
4902549	41	C	09/25/2021	21:03	-131.922	47.117	0	53.90	0	10.4390	0	32.3540	0	24.814	0	53.445	0	277.4	4	100.1	4	-1E+10	1	-1E+10	1	-1E+10	1	-1E+10	1	-1E+10	1	-1E+10	1
4902549	41	C	09/25/2021	21:03	-131.922	47.117	0	54.90	0	10.4150	0	32.3550	0	24.819	0	54.436	0	276.8	4	99.8	4	-1E+10	1	-1E+10	1	-1E+10	1	-1E+10	1	-1E+10	1	-1E+10	1
4902549	41	C	09/25/2021	21:03	-131.922	47.117	0	56.10	0	10.2980	0	32.3560	0	24.840	0	55.626	0	276.4	4	99.4	4	-1E+10	1	-1E+10	1	-1E+10	1	-1E+10	1	-1E+10	1	-1E+10	1
4902549	41	C	09/25/2021	21:03	-131.922	47.117	0	57.00	0	10.2030	0	32.3580	0	24.857	0	56.518	0	276.1	4	99.1	4	-1E+10	1	-1E+10	1	-1E+10	1	-1E+10	1	-1E+10	1	-1E+10	1
4902549	41	C	09/25/2021	21:03	-131.922	47.117	0	58.00	0	10.0370	0	32.3620	0	24.888	0	57.510	0	276.1	4	98.7	4	-1E+10	1	-1E+10	1	-1E+10	1	-1E+10	1	-1E+10	1	-1E+10	1
4902549	41	C	09/25/2021	21:03	-131.922	47.117	0	59.10	0	9.8870	0	32.3620	0	24.913	0	58.600	0	276.1	4	98.4	4	-1E+10	1	-1E+10	1	-1E+10	1	-1E+10	1	-1E+10	1	-1E+10	1
4902549	41	C	09/25/2021	21:03	-131.922	47.117	0	59.90	0	9.8180	0	32.3630	0	24.925	0	59.394	0	275.8	4	98.2	4	-1E+10	1	-1E+10	1	-1E+10	1	-1E+10	1	-1E+10	1	-1E+10	1
4902549	41	C	09/25/2021	21:03	-131.922	47.117	0	61.10	0	9.7220	0	32.3680	0	24.944	0	60.583	0	275.5	4	97.9	4	-1E+10	1	-1E+10	1	-1E+10	1	-1E+10	1	-1E+10	1	-1E+10	1
4902549	41	C	09/25/2021	21:03	-131.922	47.117	0	61.70	0	9.6640	0	32.3690	0	24.955	0	61.178	0	275.4	4	97.7	4	-1E+10	1	-1E+10	1	-1E+10	1	-1E+10	1	-1E+10	1	-1E+10	1
4902549	41	C	09/25/2021	21:03	-131.922	47.117	0	63.10	0	9.5460	0	32.3720	0	24.976	0	62.566	0	275.3	4	97.4	4	-1E+10	1	-1E+10	1	-1E+10	1	-1E+10	1	-1E+10	1	-1E+10	1
4902549	41	C	09/25/2021	21:03	-131.922	47.117	0	64.20	0	9.5060	0	32.3740	0	24.984	0	63.657	0	274.9	4	97.2	4	-1E+10	1	-1E+10	1	-1E+10	1	-1E+10	1	-1E+10	1	-1E+10	1
4902549	41	C	09/25/2021	21:03	-131.922	47.117	0	64.80	0	9.4950	0	32.3730	0	24.985	0	64.251	0	274.6	4	97.1	4	-1E+10	1	-1E+10	1	-1E+10	1	-1E+10	1	-1E+10	1	-1E+10	1
4902549	41	C	09/25/2021	21:03	-131.922	47.117	0	65.90	0	9.4340	0	32.3740	0	24.996	0	65.342	0	274.2	4	96.8	4	-1E+10	1	-1E+10	1	-1E+10	1	-1E+10	1	-1E+10	1	-1E+10	1
4902549	41	C	09/25/2021	21:03	-131.922	47.117	0	67.10	0	9.3570	0	32.3790	0	25.012	0	66.532	0	273.7	4	96.5	4	-1E+10	1	-1E+10	1	-1E+10	1	-1E+10	1	-1E+10	1	-1E+10	1
4902549	41	C	09/25/2021	21:03	-131.922	47.117	0	67.90	0	9.2280	0	32.3800	0	25.033	0	67.325	0	273.9	4	96.3	4	-1E+10	1	-1E+10	1	-1E+10	1	-1E+10	1	-1E+10	1	-1E+10	1
4902549	41	C	09/25/2021	21:03	-131.922	47.117	0	69.10	0	9.1730	0	32.3800	0	25.042	0	68.514	0	273.4	4	96.0	4	-1E+10	1	-1E+10	1	-1E+10	1	-1E+10	1	-1E+10	1	-1E+10	1
4902549	41	C	09/25/2021	21:03	-131.922	47.117	0	69.90	0	9.1110	0	32.3810	0	25.052	0	69.307	0	273.1	4	95.7	4	-1E+10	1	-1E+10	1	-1E+10	1	-1E+10	1	-1E+10	1	-1E+10	1
4902549	41	C	09/25/2021	21:03	-131.922	47.117	0	71.10	0	8.9640	0	32.3870	0	25.080	0	70.497	0	272.9	4	95.3	4	-1E+10	1	-1E+10	1	-1E+10	1	-1E+10	1	-1E+10	1	-1E+10	1
4902549	41	C	09/25/2021	21:03	-131.922	47.117	0	71.80	0	8.8920	0	32.3890	0	25.092	0	71.191	0	273.0	4	95.2	4	-1E+10	1	-1E+10	1	-1E+10	1	-1E+10	1	-1E+10	1	-1E+10	1
4902549	41	C	09/25/2021	21:03	-131.922	47.117	0	72.70	0	8.7890	0	32.3890	0	25.108	0	72.083	0	273.1	4	95.1	4	-1E+10	1	-1E+10	1	-1E+10	1	-1E+10	1	-1E+10	1	-1E+10	1
4902549	41	C	09/25/2021	21:03	-131.922	47.117	0	74.10	0	8.7440	0	32.3910	0	25.117	0	73.471	0	272.6	4	94.8	4	-1E+10	1	-1E+10	1	-1E+10	1	-1E+10	1	-1E+10	1	-1E+10	1
4902549	41	C	09/25/2021	21:03	-131.922	47.117	0	75.30	0	8.7070	0	32.3920	0	25.123	0	74.661	0	271.9	4	94.5	4	-1E+10	1	-1E+10	1	-1E+10	1	-1E+10	1	-1E+10	1	-1E+10	1
4902549	41	C	09/25/2021	21:03	-131.922	47.117	0	76.00	0	8.6790	0	32.3920	0	25.127	0	75.354	0	271.7	4	94.3	4	-1E+10	1	-1E+10	1	-1E+10	1	-1E+10	1	-1E+10	1	-1E+10	1
4902549	41	C	09/25/2021	21:03	-131.922	47.117	0	77.00	0	8.6070	0	32.4010	0	25.145	0	76.346	0	271.2	4	94.0	4	-1E+10	1	-1E+10	1	-1E+10	1	-1E+10	1	-1E+10	1	-1E+10	1
4902549	41	C	09/25/2021	21:03	-131.922	47.117	0	78.10	0	8.5110	0	32.4000	0	25.159	0	77.436	0	271.1	4	93.8	4	-1E+10	1	-1E+10	1	-1E+10	1	-1E+10	1	-1E+10	1	-1E+10	1
4902549	41	C	09/25/2021	21:03	-131.922	47.117	0	79.10	0	8.4730	0	32.3990	0	25.164	0	78.428	0	270.7	4	93.6	4	-1E+10	1	-1E+10	1	-1E+10	1	-1E+10	1	-1E+10	1	-1E+10	1
4902549	41	C	09/25/2021	21:03	-131.922	47.117	0	80.00	0	8.4430	0	32.4030	0	25.171	0	79.320	0	270.3	4	93.4	4	-1E+10	1	-1E+10	1	-1E+10	1	-1E+10	1	-1E+10	1	-1E+10	1
4902549	41	C	09/25/2021	21:03	-131.922	47.117	0	80.70	0	8.3950	0	32.4040	0	25.179	0	80.014	0	270.0	4	93.2	4	-1E+10	1	-1E+10	1	-1E+10	1	-1E+10	1	-1E+10	1	-1E+10	1
4902549	41	C	09/25/2021	21:03	-131.922	47.117	0	81.90	0	8.3060	0	32.4040	0	25.192	0	81.203	0	269.8	4	92.9	4	-1E+10	1	-1E+10	1	-1E+10	1	-1E+10	1	-1E+10	1	-1E+10	1
4902549	41	C	09/25/2021	21:03	-131.922	47.117	0	83.00	0	8.2040	0	32.4070	0	25.210	0	82.294	0	269.7	4	92.7	4	-1E+10	1	-1E+10	1	-1E+10	1	-1E+10	1	-1E+10	1	-1E+10	1
4902549	41	C	09/25/2021	21:03	-131.922	47.117	0	84.10	0	8.1370	0	32.4070	0	25.220	0	83.384	0	269.7	4	92.5	4	-1E+10	1	-1E+10	1	-1E+10	1	-1E+10	1	-1E+10	1	-1E+10	1
4902549	41	C	09/25/2021	21:03	-131.922	47.117	0	85.00	0	8.0960	0	32.4090	0	25.227	0	84.276	0	269.4	4	92.3	4	-1E+10	1	-1E+10	1	-1E+10	1	-1E+10	1	-1E+10	1	-1E+10	1
4902549	41	C	09/25/2021	21:03	-131.922	47.117	0	85.80	0	8.0700	0	32.4080	0	25.230	0	85.069	0	269.3	4	92.2	4	-1E+10	1	-1E+10	1	-1E+10	1	-1E+10	1	-1E+10	1	-1E+10	1
4902549	41	C	09/25/2021	21:03	-131.922	47.117	0	86.90	0	8.0140	0	32.4110	0	25.241	0	86.160	0	269.0	4	92.1	4	-1E+10	1	-1E+10	1	-1E+10	1	-1E+10	1	-1E+10	1	-1E+10	1
4902549	41	C	09/25/2021	21:03	-131.922	47.117	0	88.00	0	7.9680	0	32.4110	0	25.247	0	87.250	0	268.8	4	91.9	4	-1E+10	1	-1E+10	1	-1E+10	1	-1E+10	1	-1E+10	1	-1E+10	1
4902549	41	C	09/25/2021	21:03	-131.922	47.117	0	89.10	0	7.9080	0	32.4110	0	25.256	0	88.340	0	268.4	4	91.6	4	-1E+10	1	-1E+10	1	-1E+10	1	-1E+10	1	-1E+10	1	-1E+10	1
4902549	41	C	09/25/2021	21:03	-131.922	47.117	0	90.10	0	7.8270	0	32.4140	0	25.270	0	89.332	0	268.1	4	91.3	4	-1E+10	1	-1E+10	1	-1E+10	1	-1E+10	1	-1E+10	1	-1E+10	1
4902549	41	C	09/25/2021	21:03	-131.922	47.117	0	91.00	0	7.7210	0	32.4190	0	25.289	0	90.224	0	268.5	4	91.3	4	-1E+10	1	-1E+10	1	-1E+10	1	-1E+10	1	-1E+10	1	-1E+10	1
4902549	41	C	09/25/2021	21:03	-131.922	47.117	0	92.00	0	7.6610	0	32.4190	0	25.297	0	91.215	0	268.5	4	91.1	4	-1E+10	1	-1E+10	1	-1E+10	1	-1E+10	1	-1E+10	1	-1E+10	1
4902549	41	C	09/25/2021	21:03	-131.922	47.117	0	93.00	0	7.5850	0	32.4200	0	25.309	0	92.206	0	268.6	4	91.0	4	-1E+10	1	-1E+10	1	-1E+10	1	-1E+10	1	-1E+10	1	-1E+10	1
4902549	41	C	09/25/2021	21:03	-131.922	47.117	0	94.00	0	7.5180	0	32.4200	0	25.318	0	93.198	0	268.8	4	90.9	4	-1E+10	1	-1E+10	1	-1E+10	1	-1E+10	1	-1E+10	1	-1E+10	1
4902549	41	C	09/25/2021	21:03	-131.922	47.117	0	95.20	0	7.4770	0	32.4220	0	25.325	0	94.387	0	268.8	4	90.9	4	-1E+10	1	-1E+10	1	-1E+10	1	-1E+10	1	-1E+10	1	-1E+10	1
4902549	41	C	09/25/2021	21:03	-131.922	47.117	0	95.80	0	7.4650	0	32.4220	0	25.327	0	94.982	0	268.8	4	90.8	4	-1E+10	1	-1E+10	1	-1E+10	1	-1E+10	1	-1E+10	1	-1E+10	1
4902549	41	C	09/25/2021	21:03	-131.922	47.117	0	96.80	0	7.4460	0	32.4240	0	25.331	0	95.973	0	268.7	4	90.8	4	-1E+10	1	-1E+10	1	-1E+10	1	-1E+10	1	-1E+10	1	-1E+10	1
4902549	41	C	09/25/2021	21:03	-131.922	47.117	0	98.10	0	7.4100	0	32.4230	0	25.335	0	97.262	0	268.8	4	90.7	4	-1E+10	1	-1E+10	1	-1E+10	1	-1E+10	1	-1E+10	1	-1E+10	1
4902549	41	C	09/25/2021	21:03	-131.922	47.117	0	99.10	0	7.3730	0	32.4270	0	25.343	0	98.253	0	268.8	4	90.6	4	-1E+10	1	-1E+10	1	-1E+10	1	-1E+10	1	-1E+10	1	-1E+10	1
4902549	41	C	09/25/2021	21:03	-131.922	47.117	0	100.00	0	7.3460	0	32.4280	0	25.348	0	99.145	0	268.7	4	90.6	4	-1E+10	1	-1E+10	1	-1E+10	1	-1E+10	1	-1E+10	1	-1E+10	1
4902549	41	C	09/25/2021	21:03	-131.922	47.117	0	100.90	0	7.3410	0	32.4280	0	25.349	0	100.037	0	268.6	4	90.5	4	-1E+10	1	-1E+10	1	-1E+10	1	-1E+10	1	-1E+10	1	-1E+10	1
4902549	41	C	09/25/2021	21:03	-131.922	47.117	0	101.90	0	7.3370	0	32.4280	0	25.349	0	101.028	0	268.4	4	90.4	4	-1E+10	1	-1E+10	1	-1E+10	1	-1E+10	1	-1E+10	1	-1E+10	1
4902549	41	C	09/25/2021	21:03	-131.922	47.117	0	103.10	0	7.3230	0	32.4280	0	25.351	0	102.218	0	268.2	4	90.4	4	-1E+10	1	-1E+10	1	-1E+10	1	-1E+10	1	-1E+10	1	-1E+10	1
4902549	41	C	09/25/2021	21:03	-131.922	47.117	0	104.00	0	7.3120	0	32.4290	0	25.353	0	103.110	0	268.0	4	90.3	4	-1E+10	1	-1E+10	1	-1E+10	1	-1E+10	1	-1E+10	1	-1E+10	1
4902549	41	C	09/25/2021	21:03	-131.922	47.117	0	105.10	0	7.3060	0	32.4290	0	25.354	0	104.200	0	267.8	4	90.2	4	-1E+10	1	-1E+10	1	-1E+10	1	-1E+10	1	-1E+10	1	-1E+10	1
4902549	41	C	09/25/2021	21:03	-131.922	47.117	0	105.90	0	7.2780	0	32.4310	0	25.360	0	104.993	0	267.8	4	90.1	4	-1E+10	1	-1E+10	1	-1E+10	1	-1E+10	1	-1E+10	1	-1E+10	1
4902549	41	C	09/25/2021	21:03	-131.922	47.117	0	106.90	0	7.2400	0	32.4300	0	25.364	0	105.984	0	267.8	4	90.1	4	-1E+10	1	-1E+10	1	-1E+10	1	-1E+10	1	-1E+10	1	-1E+10	1
4902549	41	C	09/25/2021	21:03	-131.922	47.117	0	107.80	0	7.2280	0	32.4300	0	25.366	0	106.876	0	267.7	4	90.0	4	-1E+10	1	-1E+10	1	-1E+10	1	-1E+10	1	-1E+10	1	-1E+10	1
4902549	41	C	09/25/2021	21:03	-131.922	47.117	0	108.80	0	7.2170	0	32.4300	0	25.367	0	107.867	0	267.5	4	89.9	4	-1E+10	1	-1E+10	1	-1E+10	1	-1E+10	1	-1E+10	1	-1E+10	1
4902549	41	C	09/25/2021	21:03	-131.922	47.117	0	109.90	0	7.1960	0	32.4300	0	25.370	0	108.958	0	267.3	4	89.8	4	-1E+10	1	-1E+10	1	-1E+10	1	-1E+10	1	-1E+10	1	-1E+10	1
4902549	41	C	09/25/2021	21:03	-131.922	47.117	0	111.00	0	7.1520	0	32.4300	0	25.376	0	110.048	0	267.2	4	89.7	4	-1E+10	1	-1E+10	1	-1E+10	1	-1E+10	1	-1E+10	1	-1E+10	1
4902549	41	C	09/25/2021	21:03	-131.922	47.117	0	112.10	0	7.1220	0	32.4310	0	25.381	0	111.138	0	267.1	4	89.6	4	-1E+10	1	-1E+10	1	-1E+10	1	-1E+10	1	-1E+10	1	-1E+10	1
4902549	41	C	09/25/2021	21:03	-131.922	47.117	0	113.00	0	7.1020	0	32.4320	0	25.384	0	112.030	0	267.0	4	89.5	4	-1E+10	1	-1E+10	1	-1E+10	1	-1E+10	1	-1E+10	1	-1E+10	1
4902549	41	C	09/25/2021	21:03	-131.922	47.117	0	113.90	0	7.0950	0	32.4330	0	25.386	0	112.922	0	266.8	4	89.4	4	-1E+10	1	-1E+10	1	-1E+10	1	-1E+10	1	-1E+10	1	-1E+10	1
4902549	41	C	09/25/2021	21:03	-131.922	47.117	0	115.00	0	7.0820	0	32.4330	0	25.388	0	114.012	0	266.5	4	89.3	4	-1E+10	1	-1E+10	1	-1E+10	1	-1E+10	1	-1E+10	1	-1E+10	1
4902549	41	C	09/25/2021	21:03	-131.922	47.117	0	115.90	0	7.0720	0	32.4330	0	25.389	0	114.904	0	266.2	4	89.2	4	-1E+10	1	-1E+10	1	-1E+10	1	-1E+10	1	-1E+10	1	-1E+10	1
4902549	41	C	09/25/2021	21:03	-131.922	47.117	0	116.80	0	7.0510	0	32.4340	0	25.393	0	115.797	0	265.7	4	89.0	4	-1E+10	1	-1E+10	1	-1E+10	1	-1E+10	1	-1E+10	1	-1E+10	1
4902549	41	C	09/25/2021	21:03	-131.922	47.117	0	118.00	0	7.0220	0	32.4350	0	25.397	0	116.986	0	265.2	4	88.7	4	-1E+10	1	-1E+10	1	-1E+10	1	-1E+10	1	-1E+10	1	-1E+10	1
4902549	41	C	09/25/2021	21:03	-131.922	47.117	0	119.10	0	7.0030	0	32.4360	0	25.401	0	118.076	0	264.4	4	88.4	4	-1E+10	1	-1E+10	1	-1E+10	1	-1E+10	1	-1E+10	1	-1E+10	1
4902549	41	C	09/25/2021	21:03	-131.922	47.117	0	120.00	0	7.0010	0	32.4360	0	25.401	0	118.968	0	263.7	4	88.2	4	-1E+10	1	-1E+10	1	-1E+10	1	-1E+10	1	-1E+10	1	-1E+10	1
4902549	41	C	09/25/2021	21:03	-131.922	47.117	0	120.70	0	6.9930	0	32.4360	0	25.402	0	119.662	0	262.8	4	87.9	4	-1E+10	1	-1E+10	1	-1E+10	1	-1E+10	1	-1E+10	1	-1E+10	1
4902549	41	C	09/25/2021	21:03	-131.922	47.117	0	121.80	0	6.9680	0	32.4430	0	25.411	0	120.752	0	261.6	4	87.4	4	-1E+10	1	-1E+10	1	-1E+10	1	-1E+10	1	-1E+10	1	-1E+10	1
4902549	41	C	09/25/2021	21:03	-131.922	47.117	0	122.80	0	6.9410	0	32.4490	0	25.419	0	121.743	0	260.2	4	86.9	4	-1E+10	1	-1E+10	1	-1E+10	1	-1E+10	1	-1E+10	1	-1E+10	1
4902549	41	C	09/25/2021	21:03	-131.922	47.117	0	123.80	0	6.9180	0	32.4550	0	25.427	0	122.734	0	258.4	4	86.3	4	-1E+10	1	-1E+10	1	-1E+10	1	-1E+10	1	-1E+10	1	-1E+10	1
4902549	41	C	09/25/2021	21:03	-131.922	47.117	0	124.80	0	6.8750	0	32.4690	0	25.444	0	123.725	0	256.7	4	85.6	4	-1E+10	1	-1E+10	1	-1E+10	1	-1E+10	1	-1E+10	1	-1E+10	1
4902549	41	C	09/25/2021	21:03	-131.922	47.117	0	125.70	0	6.8610	0	32.4830	0	25.457	0	124.617	0	254.6	4	84.9	4	-1E+10	1	-1E+10	1	-1E+10	1	-1E+10	1	-1E+10	1	-1E+10	1
4902549	41	C	09/25/2021	21:03	-131.922	47.117	0	127.10	0	6.8490	0	32.5010	0	25.472	0	126.005	0	250.6	4	83.6	4	-1E+10	1	-1E+10	1	-1E+10	1	-1E+10	1	-1E+10	1	-1E+10	1
4902549	41	C	09/25/2021	21:03	-131.922	47.117	0	128.00	0	6.8470	0	32.5240	0	25.491	0	126.897	0	247.6	4	82.6	4	-1E+10	1	-1E+10	1	-1E+10	1	-1E+10	1	-1E+10	1	-1E+10	1
4902549	41	C	09/25/2021	21:03	-131.922	47.117	0	129.20	0	6.9120	0	32.5700	0	25.518	0	128.086	0	243.7	4	81.4	4	-1E+10	1	-1E+10	1	-1E+10	1	-1E+10	1	-1E+10	1	-1E+10	1
4902549	41	C	09/25/2021	21:03	-131.922	47.117	0	129.90	0	6.9500	0	32.5970	0	25.535	0	128.780	0	241.4	4	80.7	4	-1E+10	1	-1E+10	1	-1E+10	1	-1E+10	1	-1E+10	1	-1E+10	1
4902549	41	C	09/25/2021	21:03	-131.922	47.117	0	130.90	0	7.0770	0	32.6390	0	25.551	0	129.771	0	238.3	4	79.9	4	-1E+10	1	-1E+10	1	-1E+10	1	-1E+10	1	-1E+10	1	-1E+10	1
4902549	41	C	09/25/2021	21:03	-131.922	47.117	0	132.00	0	7.2200	0	32.7040	0	25.583	0	130.861	0	234.6	4	79.0	4	-1E+10	1	-1E+10	1	-1E+10	1	-1E+10	1	-1E+10	1	-1E+10	1
4902549	41	C	09/25/2021	21:03	-131.922	47.117	0	133.00	0	7.2640	0	32.7310	0	25.598	0	131.852	0	231.0	4	77.9	4	-1E+10	1	-1E+10	1	-1E+10	1	-1E+10	1	-1E+10	1	-1E+10	1
4902549	41	C	09/25/2021	21:03	-131.922	47.117	0	134.00	0	7.2900	0	32.8060	0	25.653	0	132.843	0	227.0	4	76.6	4	-1E+10	1	-1E+10	1	-1E+10	1	-1E+10	1	-1E+10	1	-1E+10	1
4902549	41	C	09/25/2021	21:03	-131.922	47.117	0	135.10	0	7.2080	0	32.8180	0	25.674	0	133.933	0	224.0	4	75.5	4	-1E+10	1	-1E+10	1	-1E+10	1	-1E+10	1	-1E+10	1	-1E+10	1
4902549	41	C	09/25/2021	21:03	-131.922	47.117	0	136.20	0	7.2590	0	32.8860	0	25.721	0	135.023	0	221.0	4	74.6	4	-1E+10	1	-1E+10	1	-1E+10	1	-1E+10	1	-1E+10	1	-1E+10	1
4902549	41	C	09/25/2021	21:03	-131.922	47.117	0	137.00	0	7.3340	0	32.9130	0	25.731	0	135.816	0	218.9	4	74.0	4	-1E+10	1	-1E+10	1	-1E+10	1	-1E+10	1	-1E+10	1	-1E+10	1
4902549	41	C	09/25/2021	21:03	-131.922	47.117	0	138.20	0	7.3600	0	32.9360	0	25.746	0	137.006	0	216.1	4	73.1	4	-1E+10	1	-1E+10	1	-1E+10	1	-1E+10	1	-1E+10	1	-1E+10	1
4902549	41	C	09/25/2021	21:03	-131.922	47.117	0	138.90	0	7.3310	0	32.9400	0	25.753	0	137.699	0	214.9	4	72.7	4	-1E+10	1	-1E+10	1	-1E+10	1	-1E+10	1	-1E+10	1	-1E+10	1
4902549	41	C	09/25/2021	21:03	-131.922	47.117	0	139.80	0	7.3440	0	32.9750	0	25.779	0	138.591	0	212.8	4	72.0	4	-1E+10	1	-1E+10	1	-1E+10	1	-1E+10	1	-1E+10	1	-1E+10	1
4902549	41	C	09/25/2021	21:03	-131.922	47.117	0	140.80	0	7.3530	0	32.9920	0	25.791	0	139.582	0	210.3	4	71.2	4	-1E+10	1	-1E+10	1	-1E+10	1	-1E+10	1	-1E+10	1	-1E+10	1
4902549	41	C	09/25/2021	21:03	-131.922	47.117	0	141.80	0	7.3620	0	33.0150	0	25.808	0	140.573	0	207.7	4	70.3	4	-1E+10	1	-1E+10	1	-1E+10	1	-1E+10	1	-1E+10	1	-1E+10	1
4902549	41	C	09/25/2021	21:03	-131.922	47.117	0	142.90	0	7.3720	0	33.0340	0	25.821	0	141.663	0	204.9	4	69.4	4	-1E+10	1	-1E+10	1	-1E+10	1	-1E+10	1	-1E+10	1	-1E+10	1
4902549	41	C	09/25/2021	21:03	-131.922	47.117	0	144.10	0	7.4110	0	33.0840	0	25.855	0	142.853	0	202.1	4	68.5	4	-1E+10	1	-1E+10	1	-1E+10	1	-1E+10	1	-1E+10	1	-1E+10	1
4902549	41	C	09/25/2021	21:03	-131.922	47.117	0	145.10	0	7.5090	0	33.1740	0	25.913	0	143.844	0	199.5	4	67.9	4	-1E+10	1	-1E+10	1	-1E+10	1	-1E+10	1	-1E+10	1	-1E+10	1
4902549	41	C	09/25/2021	21:03	-131.922	47.117	0	146.00	0	7.4860	0	33.2440	0	25.971	0	144.735	0	197.9	4	67.3	4	-1E+10	1	-1E+10	1	-1E+10	1	-1E+10	1	-1E+10	1	-1E+10	1
4902549	41	C	09/25/2021	21:03	-131.922	47.117	0	147.20	0	7.4600	0	33.2990	0	26.018	0	145.925	0	196.6	4	66.9	4	-1E+10	1	-1E+10	1	-1E+10	1	-1E+10	1	-1E+10	1	-1E+10	1
4902549	41	C	09/25/2021	21:03	-131.922	47.117	0	148.00	0	7.4410	0	33.3250	0	26.041	0	146.717	0	195.7	4	66.5	4	-1E+10	1	-1E+10	1	-1E+10	1	-1E+10	1	-1E+10	1	-1E+10	1
4902549	41	C	09/25/2021	21:03	-131.922	47.117	0	148.70	0	7.4280	0	33.3750	0	26.082	0	147.411	0	195.1	4	66.3	4	-1E+10	1	-1E+10	1	-1E+10	1	-1E+10	1	-1E+10	1	-1E+10	1
4902549	41	C	09/25/2021	21:03	-131.922	47.117	0	149.90	0	7.4220	0	33.3870	0	26.092	0	148.600	0	194.1	4	66.0	4	-1E+10	1	-1E+10	1	-1E+10	1	-1E+10	1	-1E+10	1	-1E+10	1
4902549	41	C	09/25/2021	21:03	-131.922	47.117	0	151.10	0	7.4150	0	33.4010	0	26.104	0	149.789	0	192.9	4	65.6	4	-1E+10	1	-1E+10	1	-1E+10	1	-1E+10	1	-1E+10	1	-1E+10	1
4902549	41	C	09/25/2021	21:03	-131.922	47.117	0	151.90	0	7.4150	0	33.4010	0	26.104	0	150.582	0	192.0	4	65.3	4	-1E+10	1	-1E+10	1	-1E+10	1	-1E+10	1	-1E+10	1	-1E+10	1
4902549	41	C	09/25/2021	21:03	-131.922	47.117	0	152.70	0	7.4070	0	33.4090	0	26.112	0	151.375	0	191.1	4	65.0	4	-1E+10	1	-1E+10	1	-1E+10	1	-1E+10	1	-1E+10	1	-1E+10	1
4902549	41	C	09/25/2021	21:03	-131.922	47.117	0	153.90	0	7.3880	0	33.4380	0	26.137	0	152.564	0	189.7	4	64.5	4	-1E+10	1	-1E+10	1	-1E+10	1	-1E+10	1	-1E+10	1	-1E+10	1
4902549	41	C	09/25/2021	21:03	-131.922	47.117	0	155.10	0	7.3510	0	33.4830	0	26.178	0	153.753	0	188.6	4	64.1	4	-1E+10	1	-1E+10	1	-1E+10	1	-1E+10	1	-1E+10	1	-1E+10	1
4902549	41	C	09/25/2021	21:03	-131.922	47.117	0	156.00	0	7.3510	0	33.5090	0	26.198	0	154.645	0	187.9	4	63.9	4	-1E+10	1	-1E+10	1	-1E+10	1	-1E+10	1	-1E+10	1	-1E+10	1
4902549	41	C	09/25/2021	21:03	-131.922	47.117	0	156.80	0	7.3610	0	33.5450	0	26.225	0	155.438	0	187.2	4	63.6	4	-1E+10	1	-1E+10	1	-1E+10	1	-1E+10	1	-1E+10	1	-1E+10	1
4902549	41	C	09/25/2021	21:03	-131.922	47.117	0	157.70	0	7.3750	0	33.5720	0	26.244	0	156.330	0	186.4	4	63.4	4	-1E+10	1	-1E+10	1	-1E+10	1	-1E+10	1	-1E+10	1	-1E+10	1
4902549	41	C	09/25/2021	21:03	-131.922	47.117	0	158.60	0	7.3370	0	33.5930	0	26.266	0	157.221	0	185.9	4	63.2	4	-1E+10	1	-1E+10	1	-1E+10	1	-1E+10	1	-1E+10	1	-1E+10	1
4902549	41	C	09/25/2021	21:03	-131.922	47.117	0	159.90	0	7.3390	0	33.6170	0	26.285	0	158.510	0	185.1	4	62.9	4	-1E+10	1	-1E+10	1	-1E+10	1	-1E+10	1	-1E+10	1	-1E+10	1
4902549	41	C	09/25/2021	21:03	-131.922	47.117	0	161.20	0	7.3780	0	33.6490	0	26.305	0	159.798	0	184.1	4	62.7	4	-1E+10	1	-1E+10	1	-1E+10	1	-1E+10	1	-1E+10	1	-1E+10	1
4902549	41	C	09/25/2021	21:03	-131.922	47.117	0	162.10	0	7.3870	0	33.6620	0	26.314	0	160.690	0	183.5	4	62.5	4	-1E+10	1	-1E+10	1	-1E+10	1	-1E+10	1	-1E+10	1	-1E+10	1
4902549	41	C	09/25/2021	21:03	-131.922	47.117	0	163.00	0	7.3940	0	33.6790	0	26.326	0	161.582	0	182.9	4	62.3	4	-1E+10	1	-1E+10	1	-1E+10	1	-1E+10	1	-1E+10	1	-1E+10	1
4902549	41	C	09/25/2021	21:03	-131.922	47.117	0	164.00	0	7.3920	0	33.6990	0	26.342	0	162.572	0	182.3	4	62.1	4	-1E+10	1	-1E+10	1	-1E+10	1	-1E+10	1	-1E+10	1	-1E+10	1
4902549	41	C	09/25/2021	21:03	-131.922	47.117	0	164.90	0	7.3880	0	33.7120	0	26.353	0	163.464	0	181.8	4	61.9	4	-1E+10	1	-1E+10	1	-1E+10	1	-1E+10	1	-1E+10	1	-1E+10	1
4902549	41	C	09/25/2021	21:03	-131.922	47.117	0	165.80	0	7.3730	0	33.7210	0	26.362	0	164.356	0	181.4	4	61.8	4	-1E+10	1	-1E+10	1	-1E+10	1	-1E+10	1	-1E+10	1	-1E+10	1
4902549	41	C	09/25/2021	21:03	-131.922	47.117	0	166.70	0	7.3250	0	33.7250	0	26.372	0	165.248	0	181.1	4	61.6	4	-1E+10	1	-1E+10	1	-1E+10	1	-1E+10	1	-1E+10	1	-1E+10	1
4902549	41	C	09/25/2021	21:03	-131.922	47.117	0	167.60	0	7.2970	0	33.7310	0	26.381	0	166.140	0	180.8	4	61.5	4	-1E+10	1	-1E+10	1	-1E+10	1	-1E+10	1	-1E+10	1	-1E+10	1
4902549	41	C	09/25/2021	21:03	-131.922	47.117	0	168.60	0	7.2770	0	33.7320	0	26.384	0	167.131	0	180.5	4	61.3	4	-1E+10	1	-1E+10	1	-1E+10	1	-1E+10	1	-1E+10	1	-1E+10	1
4902549	41	C	09/25/2021	21:03	-131.922	47.117	0	169.90	0	7.2340	0	33.7370	0	26.394	0	168.419	0	180.0	4	61.1	4	-1E+10	1	-1E+10	1	-1E+10	1	-1E+10	1	-1E+10	1	-1E+10	1
4902549	41	C	09/25/2021	21:03	-131.922	47.117	0	171.30	0	7.2120	0	33.7440	0	26.403	0	169.806	0	179.6	4	60.9	4	-1E+10	1	-1E+10	1	-1E+10	1	-1E+10	1	-1E+10	1	-1E+10	1
4902549	41	C	09/25/2021	21:03	-131.922	47.117	0	172.30	0	7.2100	0	33.7450	0	26.404	0	170.797	0	179.2	4	60.8	4	-1E+10	1	-1E+10	1	-1E+10	1	-1E+10	1	-1E+10	1	-1E+10	1
4902549	41	C	09/25/2021	21:03	-131.922	47.117	0	173.20	0	7.1950	0	33.7490	0	26.409	0	171.688	0	178.8	4	60.7	4	-1E+10	1	-1E+10	1	-1E+10	1	-1E+10	1	-1E+10	1	-1E+10	1
4902549	41	C	09/25/2021	21:03	-131.922	47.117	0	174.20	0	7.1750	0	33.7550	0	26.416	0	172.679	0	178.5	4	60.5	4	-1E+10	1	-1E+10	1	-1E+10	1	-1E+10	1	-1E+10	1	-1E+10	1
4902549	41	C	09/25/2021	21:03	-131.922	47.117	0	175.10	0	7.1560	0	33.7570	0	26.421	0	173.571	0	178.3	4	60.4	4	-1E+10	1	-1E+10	1	-1E+10	1	-1E+10	1	-1E+10	1	-1E+10	1
4902549	41	C	09/25/2021	21:03	-131.922	47.117	0	176.10	0	7.1540	0	33.7560	0	26.420	0	174.562	0	178.0	4	60.3	4	-1E+10	1	-1E+10	1	-1E+10	1	-1E+10	1	-1E+10	1	-1E+10	1
4902549	41	C	09/25/2021	21:03	-131.922	47.117	0	177.00	0	7.1500	0	33.7570	0	26.422	0	175.454	0	177.7	4	60.2	4	-1E+10	1	-1E+10	1	-1E+10	1	-1E+10	1	-1E+10	1	-1E+10	1
4902549	41	C	09/25/2021	21:03	-131.922	47.117	0	177.90	0	7.1500	0	33.7570	0	26.422	0	176.345	0	177.2	4	60.1	4	-1E+10	1	-1E+10	1	-1E+10	1	-1E+10	1	-1E+10	1	-1E+10	1
4902549	41	C	09/25/2021	21:03	-131.922	47.117	0	178.90	0	7.1490	0	33.7570	0	26.422	0	177.336	0	176.7	4	59.9	4	-1E+10	1	-1E+10	1	-1E+10	1	-1E+10	1	-1E+10	1	-1E+10	1
4902549	41	C	09/25/2021	21:03	-131.922	47.117	0	179.80	0	7.1410	0	33.7600	0	26.425	0	178.228	0	176.3	4	59.7	4	-1E+10	1	-1E+10	1	-1E+10	1	-1E+10	1	-1E+10	1	-1E+10	1
4902549	41	C	09/25/2021	21:03	-131.922	47.117	0	180.80	0	7.1310	0	33.7630	0	26.429	0	179.219	0	175.8	4	59.6	4	-1E+10	1	-1E+10	1	-1E+10	1	-1E+10	1	-1E+10	1	-1E+10	1
4902549	41	C	09/25/2021	21:03	-131.922	47.117	0	181.70	0	7.1280	0	33.7630	0	26.429	0	180.111	0	175.3	4	59.4	4	-1E+10	1	-1E+10	1	-1E+10	1	-1E+10	1	-1E+10	1	-1E+10	1
4902549	41	C	09/25/2021	21:03	-131.922	47.117	0	182.70	0	7.1150	0	33.7680	0	26.435	0	181.101	0	174.8	4	59.2	4	-1E+10	1	-1E+10	1	-1E+10	1	-1E+10	1	-1E+10	1	-1E+10	1
4902549	41	C	09/25/2021	21:03	-131.922	47.117	0	183.70	0	7.1100	0	33.7690	0	26.437	0	182.092	0	174.3	4	59.0	4	-1E+10	1	-1E+10	1	-1E+10	1	-1E+10	1	-1E+10	1	-1E+10	1
4902549	41	C	09/25/2021	21:03	-131.922	47.117	0	184.60	0	7.0870	0	33.7740	0	26.444	0	182.984	0	173.8	4	58.8	4	-1E+10	1	-1E+10	1	-1E+10	1	-1E+10	1	-1E+10	1	-1E+10	1
4902549	41	C	09/25/2021	21:03	-131.922	47.117	0	185.60	0	7.0810	0	33.7790	0	26.448	0	183.975	0	173.4	4	58.7	4	-1E+10	1	-1E+10	1	-1E+10	1	-1E+10	1	-1E+10	1	-1E+10	1
4902549	41	C	09/25/2021	21:03	-131.922	47.117	0	186.60	0	7.0690	0	33.7780	0	26.449	0	184.966	0	173.0	4	58.5	4	-1E+10	1	-1E+10	1	-1E+10	1	-1E+10	1	-1E+10	1	-1E+10	1
4902549	41	C	09/25/2021	21:03	-131.922	47.117	0	187.60	0	7.0590	0	33.7800	0	26.452	0	185.956	0	172.5	4	58.3	4	-1E+10	1	-1E+10	1	-1E+10	1	-1E+10	1	-1E+10	1	-1E+10	1
4902549	41	C	09/25/2021	21:03	-131.922	47.117	0	188.60	0	7.0490	0	33.7800	0	26.454	0	186.947	0	172.1	4	58.2	4	-1E+10	1	-1E+10	1	-1E+10	1	-1E+10	1	-1E+10	1	-1E+10	1
4902549	41	C	09/25/2021	21:03	-131.922	47.117	0	189.60	0	7.0330	0	33.7830	0	26.458	0	187.938	0	171.7	4	58.0	4	-1E+10	1	-1E+10	1	-1E+10	1	-1E+10	1	-1E+10	1	-1E+10	1
4902549	41	C	09/25/2021	21:03	-131.922	47.117	0	190.90	0	7.0200	0	33.7850	0	26.462	0	189.226	0	171.1	4	57.8	4	-1E+10	1	-1E+10	1	-1E+10	1	-1E+10	1	-1E+10	1	-1E+10	1
4902549	41	C	09/25/2021	21:03	-131.922	47.117	0	192.80	0	7.0020	0	33.7870	0	26.466	0	191.108	0	170.2	4	57.5	4	-1E+10	1	-1E+10	1	-1E+10	1	-1E+10	1	-1E+10	1	-1E+10	1
4902549	41	C	09/25/2021	21:03	-131.922	47.117	0	193.90	0	6.9820	0	33.7870	0	26.468	0	192.198	0	169.8	4	57.3	4	-1E+10	1	-1E+10	1	-1E+10	1	-1E+10	1	-1E+10	1	-1E+10	1
4902549	41	C	09/25/2021	21:03	-131.922	47.117	0	195.00	0	6.9750	0	33.7870	0	26.469	0	193.288	0	169.1	4	57.1	4	-1E+10	1	-1E+10	1	-1E+10	1	-1E+10	1	-1E+10	1	-1E+10	1
4902549	41	C	09/25/2021	21:03	-131.922	47.117	0	196.10	0	6.9640	0	33.7890	0	26.472	0	194.378	0	168.6	4	56.9	4	-1E+10	1	-1E+10	1	-1E+10	1	-1E+10	1	-1E+10	1	-1E+10	1
4902549	41	C	09/25/2021	21:03	-131.922	47.117	0	196.80	0	6.9610	0	33.7890	0	26.473	0	195.071	0	168.1	4	56.7	4	-1E+10	1	-1E+10	1	-1E+10	1	-1E+10	1	-1E+10	1	-1E+10	1
4902549	41	C	09/25/2021	21:03	-131.922	47.117	0	197.90	0	6.9610	0	33.7880	0	26.472	0	196.161	0	167.3	4	56.4	4	-1E+10	1	-1E+10	1	-1E+10	1	-1E+10	1	-1E+10	1	-1E+10	1
4902549	41	C	09/25/2021	21:03	-131.922	47.117	0	199.10	0	6.9500	0	33.7920	0	26.477	0	197.350	0	166.3	4	56.1	4	-1E+10	1	-1E+10	1	-1E+10	1	-1E+10	1	-1E+10	1	-1E+10	1
4902549	41	C	09/25/2021	21:03	-131.922	47.117	0	199.80	0	6.9400	0	33.7910	0	26.477	0	198.044	0	165.8	4	55.9	4	-1E+10	1	-1E+10	1	-1E+10	1	-1E+10	1	-1E+10	1	-1E+10	1
4902549	41	C	09/25/2021	21:03	-131.922	47.117	0	201.00	0	6.9040	0	33.7940	0	26.485	0	199.232	0	165.3	4	55.7	4	-1E+10	1	-1E+10	1	-1E+10	1	-1E+10	1	-1E+10	1	-1E+10	1
4902549	41	C	09/25/2021	21:03	-131.922	47.117	0	202.20	0	6.8850	0	33.7960	0	26.489	0	200.421	0	164.7	4	55.5	4	-1E+10	1	-1E+10	1	-1E+10	1	-1E+10	1	-1E+10	1	-1E+10	1
4902549	41	C	09/25/2021	21:03	-131.922	47.117	0	203.00	0	6.8800	0	33.7960	0	26.489	0	201.214	0	164.3	4	55.3	4	-1E+10	1	-1E+10	1	-1E+10	1	-1E+10	1	-1E+10	1	-1E+10	1
4902549	41	C	09/25/2021	21:03	-131.922	47.117	0	203.70	0	6.8800	0	33.7950	0	26.489	0	201.907	0	163.8	4	55.2	4	-1E+10	1	-1E+10	1	-1E+10	1	-1E+10	1	-1E+10	1	-1E+10	1
4902549	41	C	09/25/2021	21:03	-131.922	47.117	0	205.00	0	6.8620	0	33.7970	0	26.493	0	203.195	0	163.0	4	54.9	4	-1E+10	1	-1E+10	1	-1E+10	1	-1E+10	1	-1E+10	1	-1E+10	1
4902549	41	C	09/25/2021	21:03	-131.922	47.117	0	206.10	0	6.8450	0	33.7960	0	26.494	0	204.285	0	162.3	4	54.6	4	-1E+10	1	-1E+10	1	-1E+10	1	-1E+10	1	-1E+10	1	-1E+10	1
4902549	41	C	09/25/2021	21:03	-131.922	47.117	0	207.00	0	6.8060	0	33.7990	0	26.502	0	205.177	0	162.0	4	54.5	4	-1E+10	1	-1E+10	1	-1E+10	1	-1E+10	1	-1E+10	1	-1E+10	1
4902549	41	C	09/25/2021	21:03	-131.922	47.117	0	207.80	0	6.7910	0	33.8000	0	26.505	0	205.969	0	161.6	4	54.3	4	-1E+10	1	-1E+10	1	-1E+10	1	-1E+10	1	-1E+10	1	-1E+10	1
4902549	41	C	09/25/2021	21:03	-131.922	47.117	0	208.60	0	6.7630	0	33.8010	0	26.509	0	206.762	0	161.4	4	54.2	4	-1E+10	1	-1E+10	1	-1E+10	1	-1E+10	1	-1E+10	1	-1E+10	1
4902549	41	C	09/25/2021	21:03	-131.922	47.117	0	209.90	0	6.7600	0	33.7990	0	26.508	0	208.050	0	160.8	4	54.0	4	-1E+10	1	-1E+10	1	-1E+10	1	-1E+10	1	-1E+10	1	-1E+10	1
4902549	41	C	09/25/2021	21:03	-131.922	47.117	0	211.10	0	6.7490	0	33.8020	0	26.512	0	209.239	0	160.2	4	53.8	4	-1E+10	1	-1E+10	1	-1E+10	1	-1E+10	1	-1E+10	1	-1E+10	1
4902549	41	C	09/25/2021	21:03	-131.922	47.117	0	211.90	0	6.7400	0	33.8010	0	26.512	0	210.031	0	159.9	4	53.7	4	-1E+10	1	-1E+10	1	-1E+10	1	-1E+10	1	-1E+10	1	-1E+10	1
4902549	41	C	09/25/2021	21:03	-131.922	47.117	0	212.80	0	6.7340	0	33.8010	0	26.513	0	210.923	0	159.5	4	53.5	4	-1E+10	1	-1E+10	1	-1E+10	1	-1E+10	1	-1E+10	1	-1E+10	1
4902549	41	C	09/25/2021	21:03	-131.922	47.117	0	214.00	0	6.7090	0	33.8020	0	26.517	0	212.112	0	159.0	4	53.3	4	-1E+10	1	-1E+10	1	-1E+10	1	-1E+10	1	-1E+10	1	-1E+10	1
4902549	41	C	09/25/2021	21:03	-131.922	47.117	0	215.30	0	6.6890	0	33.8030	0	26.521	0	213.399	0	158.4	4	53.1	4	-1E+10	1	-1E+10	1	-1E+10	1	-1E+10	1	-1E+10	1	-1E+10	1
4902549	41	C	09/25/2021	21:03	-131.922	47.117	0	216.20	0	6.6830	0	33.8020	0	26.521	0	214.291	0	158.0	4	53.0	4	-1E+10	1	-1E+10	1	-1E+10	1	-1E+10	1	-1E+10	1	-1E+10	1
4902549	41	C	09/25/2021	21:03	-131.922	47.117	0	217.00	0	6.6690	0	33.8030	0	26.523	0	215.083	0	157.7	4	52.9	4	-1E+10	1	-1E+10	1	-1E+10	1	-1E+10	1	-1E+10	1	-1E+10	1
4902549	41	C	09/25/2021	21:03	-131.922	47.117	0	217.80	0	6.6520	0	33.8030	0	26.525	0	215.876	0	157.4	4	52.7	4	-1E+10	1	-1E+10	1	-1E+10	1	-1E+10	1	-1E+10	1	-1E+10	1
4902549	41	C	09/25/2021	21:03	-131.922	47.117	0	218.70	0	6.6300	0	33.8060	0	26.531	0	216.768	0	157.0	4	52.6	4	-1E+10	1	-1E+10	1	-1E+10	1	-1E+10	1	-1E+10	1	-1E+10	1
4902549	41	C	09/25/2021	21:03	-131.922	47.117	0	219.90	0	6.6100	0	33.8030	0	26.531	0	217.956	0	156.7	4	52.4	4	-1E+10	1	-1E+10	1	-1E+10	1	-1E+10	1	-1E+10	1	-1E+10	1
4902549	41	C	09/25/2021	21:03	-131.922	47.117	0	221.20	0	6.6020	0	33.8020	0	26.531	0	219.244	0	156.1	4	52.3	4	-1E+10	1	-1E+10	1	-1E+10	1	-1E+10	1	-1E+10	1	-1E+10	1
4902549	41	C	09/25/2021	21:03	-131.922	47.117	0	222.00	0	6.5920	0	33.8040	0	26.534	0	220.037	0	155.8	4	52.1	4	-1E+10	1	-1E+10	1	-1E+10	1	-1E+10	1	-1E+10	1	-1E+10	1
4902549	41	C	09/25/2021	21:03	-131.922	47.117	0	222.90	0	6.5850	0	33.8040	0	26.535	0	220.928	0	155.4	4	52.0	4	-1E+10	1	-1E+10	1	-1E+10	1	-1E+10	1	-1E+10	1	-1E+10	1
4902549	41	C	09/25/2021	21:03	-131.922	47.117	0	223.70	0	6.5830	0	33.8030	0	26.535	0	221.721	0	155.0	4	51.8	4	-1E+10	1	-1E+10	1	-1E+10	1	-1E+10	1	-1E+10	1	-1E+10	1
4902549	41	C	09/25/2021	21:03	-131.922	47.117	0	225.00	0	6.5770	0	33.8030	0	26.535	0	223.009	0	154.2	4	51.6	4	-1E+10	1	-1E+10	1	-1E+10	1	-1E+10	1	-1E+10	1	-1E+10	1
4902549	41	C	09/25/2021	21:03	-131.922	47.117	0	226.20	0	6.5570	0	33.8060	0	26.540	0	224.197	0	153.4	4	51.3	4	-1E+10	1	-1E+10	1	-1E+10	1	-1E+10	1	-1E+10	1	-1E+10	1
4902549	41	C	09/25/2021	21:03	-131.922	47.117	0	227.10	0	6.5440	0	33.8050	0	26.541	0	225.089	0	153.0	4	51.1	4	-1E+10	1	-1E+10	1	-1E+10	1	-1E+10	1	-1E+10	1	-1E+10	1
4902549	41	C	09/25/2021	21:03	-131.922	47.117	0	227.90	0	6.5300	0	33.8050	0	26.543	0	225.881	0	152.5	4	51.0	4	-1E+10	1	-1E+10	1	-1E+10	1	-1E+10	1	-1E+10	1	-1E+10	1
4902549	41	C	09/25/2021	21:03	-131.922	47.117	0	228.70	0	6.5140	0	33.8060	0	26.546	0	226.674	0	152.1	4	50.8	4	-1E+10	1	-1E+10	1	-1E+10	1	-1E+10	1	-1E+10	1	-1E+10	1
4902549	41	C	09/25/2021	21:03	-131.922	47.117	0	230.00	0	6.4920	0	33.8090	0	26.551	0	227.962	0	151.5	4	50.6	4	-1E+10	1	-1E+10	1	-1E+10	1	-1E+10	1	-1E+10	1	-1E+10	1
4902549	41	C	09/25/2021	21:03	-131.922	47.117	0	231.20	0	6.4650	0	33.8090	0	26.555	0	229.150	0	150.9	4	50.4	4	-1E+10	1	-1E+10	1	-1E+10	1	-1E+10	1	-1E+10	1	-1E+10	1
4902549	41	C	09/25/2021	21:03	-131.922	47.117	0	232.00	0	6.4550	0	33.8090	0	26.556	0	229.943	0	150.6	4	50.2	4	-1E+10	1	-1E+10	1	-1E+10	1	-1E+10	1	-1E+10	1	-1E+10	1
4902549	41	C	09/25/2021	21:03	-131.922	47.117	0	232.80	0	6.4480	0	33.8100	0	26.558	0	230.735	0	150.1	4	50.1	4	-1E+10	1	-1E+10	1	-1E+10	1	-1E+10	1	-1E+10	1	-1E+10	1
4902549	41	C	09/25/2021	21:03	-131.922	47.117	0	233.60	0	6.4430	0	33.8110	0	26.559	0	231.528	0	149.8	4	50.0	4	-1E+10	1	-1E+10	1	-1E+10	1	-1E+10	1	-1E+10	1	-1E+10	1
4902549	41	C	09/25/2021	21:03	-131.922	47.117	0	234.90	0	6.4290	0	33.8130	0	26.563	0	232.815	0	149.3	4	49.8	4	-1E+10	1	-1E+10	1	-1E+10	1	-1E+10	1	-1E+10	1	-1E+10	1
4902549	41	C	09/25/2021	21:03	-131.922	47.117	0	236.10	0	6.4250	0	33.8140	0	26.564	0	234.004	0	148.7	4	49.6	4	-1E+10	1	-1E+10	1	-1E+10	1	-1E+10	1	-1E+10	1	-1E+10	1
4902549	41	C	09/25/2021	21:03	-131.922	47.117	0	236.90	0	6.4240	0	33.8140	0	26.564	0	234.796	0	148.3	4	49.4	4	-1E+10	1	-1E+10	1	-1E+10	1	-1E+10	1	-1E+10	1	-1E+10	1
4902549	41	C	09/25/2021	21:03	-131.922	47.117	0	237.80	0	6.4210	0	33.8140	0	26.565	0	235.688	0	147.8	4	49.3	4	-1E+10	1	-1E+10	1	-1E+10	1	-1E+10	1	-1E+10	1	-1E+10	1
4902549	41	C	09/25/2021	21:03	-131.922	47.117	0	239.00	0	6.4180	0	33.8140	0	26.565	0	236.877	0	147.0	4	49.0	4	-1E+10	1	-1E+10	1	-1E+10	1	-1E+10	1	-1E+10	1	-1E+10	1
4902549	41	C	09/25/2021	21:03	-131.922	47.117	0	240.20	0	6.4140	0	33.8140	0	26.566	0	238.065	0	146.1	4	48.7	4	-1E+10	1	-1E+10	1	-1E+10	1	-1E+10	1	-1E+10	1	-1E+10	1
4902549	41	C	09/25/2021	21:03	-131.922	47.117	0	241.00	0	6.3780	0	33.8170	0	26.573	0	238.858	0	145.7	4	48.5	4	-1E+10	1	-1E+10	1	-1E+10	1	-1E+10	1	-1E+10	1	-1E+10	1
4902549	41	C	09/25/2021	21:03	-131.922	47.117	0	241.80	0	6.3630	0	33.8180	0	26.575	0	239.650	0	145.3	4	48.4	4	-1E+10	1	-1E+10	1	-1E+10	1	-1E+10	1	-1E+10	1	-1E+10	1
4902549	41	C	09/25/2021	21:03	-131.922	47.117	0	242.60	0	6.3410	0	33.8190	0	26.579	0	240.443	0	145.0	4	48.2	4	-1E+10	1	-1E+10	1	-1E+10	1	-1E+10	1	-1E+10	1	-1E+10	1
4902549	41	C	09/25/2021	21:03	-131.922	47.117	0	243.90	0	6.3260	0	33.8190	0	26.581	0	241.730	0	144.5	4	48.1	4	-1E+10	1	-1E+10	1	-1E+10	1	-1E+10	1	-1E+10	1	-1E+10	1
4902549	41	C	09/25/2021	21:03	-131.922	47.117	0	245.10	0	6.3180	0	33.8200	0	26.583	0	242.919	0	143.9	4	47.8	4	-1E+10	1	-1E+10	1	-1E+10	1	-1E+10	1	-1E+10	1	-1E+10	1
4902549	41	C	09/25/2021	21:03	-131.922	47.117	0	245.90	0	6.3140	0	33.8210	0	26.584	0	243.711	0	143.5	4	47.7	4	-1E+10	1	-1E+10	1	-1E+10	1	-1E+10	1	-1E+10	1	-1E+10	1
4902549	41	C	09/25/2021	21:03	-131.922	47.117	0	246.70	0	6.3100	0	33.8200	0	26.584	0	244.504	0	143.0	4	47.6	4	-1E+10	1	-1E+10	1	-1E+10	1	-1E+10	1	-1E+10	1	-1E+10	1
4902549	41	C	09/25/2021	21:03	-131.922	47.117	0	248.00	0	6.2900	0	33.8220	0	26.588	0	245.791	0	142.5	4	47.4	4	-1E+10	1	-1E+10	1	-1E+10	1	-1E+10	1	-1E+10	1	-1E+10	1
4902549	41	C	09/25/2021	21:03	-131.922	47.117	0	249.20	0	6.2840	0	33.8220	0	26.589	0	246.980	0	141.9	4	47.1	4	-1E+10	1	-1E+10	1	-1E+10	1	-1E+10	1	-1E+10	1	-1E+10	1
4902549	41	C	09/25/2021	21:03	-131.922	47.117	0	250.10	0	6.2720	0	33.8250	0	26.593	0	247.871	0	141.5	4	47.0	4	-1E+10	1	-1E+10	1	-1E+10	1	-1E+10	1	-1E+10	1	-1E+10	1
4902549	41	C	09/25/2021	21:03	-131.922	47.117	0	250.90	0	6.2600	0	33.8250	0	26.594	0	248.664	0	141.2	4	46.9	4	-1E+10	1	-1E+10	1	-1E+10	1	-1E+10	1	-1E+10	1	-1E+10	1
4902549	41	C	09/25/2021	21:03	-131.922	47.117	0	251.70	0	6.2540	0	33.8260	0	26.596	0	249.456	0	140.8	4	46.8	4	-1E+10	1	-1E+10	1	-1E+10	1	-1E+10	1	-1E+10	1	-1E+10	1
4902549	41	C	09/25/2021	21:03	-131.922	47.117	0	252.90	0	6.2290	0	33.8280	0	26.601	0	250.645	0	140.5	4	46.6	4	-1E+10	1	-1E+10	1	-1E+10	1	-1E+10	1	-1E+10	1	-1E+10	1
4902549	41	C	09/25/2021	21:03	-131.922	47.117	0	254.20	0	6.2110	0	33.8270	0	26.602	0	251.932	0	140.1	4	46.5	4	-1E+10	1	-1E+10	1	-1E+10	1	-1E+10	1	-1E+10	1	-1E+10	1
4902549	41	C	09/25/2021	21:03	-131.922	47.117	0	255.00	0	6.2050	0	33.8270	0	26.603	0	252.725	0	139.9	4	46.4	4	-1E+10	1	-1E+10	1	-1E+10	1	-1E+10	1	-1E+10	1	-1E+10	1
4902549	41	C	09/25/2021	21:03	-131.922	47.117	0	255.80	0	6.2030	0	33.8270	0	26.603	0	253.517	0	139.7	4	46.3	4	-1E+10	1	-1E+10	1	-1E+10	1	-1E+10	1	-1E+10	1	-1E+10	1
4902549	41	C	09/25/2021	21:03	-131.922	47.117	0	257.00	0	6.1950	0	33.8280	0	26.605	0	254.706	0	139.2	4	46.2	4	-1E+10	1	-1E+10	1	-1E+10	1	-1E+10	1	-1E+10	1	-1E+10	1
4902549	41	C	09/25/2021	21:03	-131.922	47.117	0	258.30	0	6.1750	0	33.8250	0	26.605	0	255.993	0	138.8	4	46.0	4	-1E+10	1	-1E+10	1	-1E+10	1	-1E+10	1	-1E+10	1	-1E+10	1
4902549	41	C	09/25/2021	21:03	-131.922	47.117	0	259.10	0	6.1690	0	33.8250	0	26.606	0	256.786	0	138.5	4	45.9	4	-1E+10	1	-1E+10	1	-1E+10	1	-1E+10	1	-1E+10	1	-1E+10	1
4902549	41	C	09/25/2021	21:03	-131.922	47.117	0	259.90	0	6.1660	0	33.8250	0	26.606	0	257.578	0	138.1	4	45.8	4	-1E+10	1	-1E+10	1	-1E+10	1	-1E+10	1	-1E+10	1	-1E+10	1
4902549	41	C	09/25/2021	21:03	-131.922	47.117	0	260.70	0	6.1650	0	33.8250	0	26.606	0	258.370	0	137.7	4	45.6	4	-1E+10	1	-1E+10	1	-1E+10	1	-1E+10	1	-1E+10	1	-1E+10	1
4902549	41	C	09/25/2021	21:03	-131.922	47.117	0	261.90	0	6.1570	0	33.8260	0	26.608	0	259.559	0	137.0	4	45.4	4	-1E+10	1	-1E+10	1	-1E+10	1	-1E+10	1	-1E+10	1	-1E+10	1
4902549	41	C	09/25/2021	21:03	-131.922	47.117	0	263.20	0	6.1380	0	33.8250	0	26.610	0	260.846	0	136.4	4	45.2	4	-1E+10	1	-1E+10	1	-1E+10	1	-1E+10	1	-1E+10	1	-1E+10	1
4902549	41	C	09/25/2021	21:03	-131.922	47.117	0	264.00	0	6.1310	0	33.8270	0	26.612	0	261.639	0	136.0	4	45.0	4	-1E+10	1	-1E+10	1	-1E+10	1	-1E+10	1	-1E+10	1	-1E+10	1
4902549	41	C	09/25/2021	21:03	-131.922	47.117	0	264.90	0	6.1140	0	33.8290	0	26.616	0	262.530	0	135.6	4	44.9	4	-1E+10	1	-1E+10	1	-1E+10	1	-1E+10	1	-1E+10	1	-1E+10	1
4902549	41	C	09/25/2021	21:03	-131.922	47.117	0	265.70	0	6.1090	0	33.8280	0	26.616	0	263.322	0	135.1	4	44.7	4	-1E+10	1	-1E+10	1	-1E+10	1	-1E+10	1	-1E+10	1	-1E+10	1
4902549	41	C	09/25/2021	21:03	-131.922	47.117	0	266.90	0	6.0960	0	33.8290	0	26.618	0	264.511	0	134.4	4	44.5	4	-1E+10	1	-1E+10	1	-1E+10	1	-1E+10	1	-1E+10	1	-1E+10	1
4902549	41	C	09/25/2021	21:03	-131.922	47.117	0	268.20	0	6.0870	0	33.8290	0	26.619	0	265.798	0	133.7	4	44.2	4	-1E+10	1	-1E+10	1	-1E+10	1	-1E+10	1	-1E+10	1	-1E+10	1
4902549	41	C	09/25/2021	21:03	-131.922	47.117	0	269.10	0	6.0650	0	33.8300	0	26.623	0	266.690	0	133.2	4	44.1	4	-1E+10	1	-1E+10	1	-1E+10	1	-1E+10	1	-1E+10	1	-1E+10	1
4902549	41	C	09/25/2021	21:03	-131.922	47.117	0	269.90	0	6.0470	0	33.8280	0	26.624	0	267.482	0	132.7	4	43.9	4	-1E+10	1	-1E+10	1	-1E+10	1	-1E+10	1	-1E+10	1	-1E+10	1
4902549	41	C	09/25/2021	21:03	-131.922	47.117	0	270.70	0	6.0240	0	33.8290	0	26.627	0	268.274	0	132.4	4	43.7	4	-1E+10	1	-1E+10	1	-1E+10	1	-1E+10	1	-1E+10	1	-1E+10	1
4902549	41	C	09/25/2021	21:03	-131.922	47.117	0	272.00	0	6.0250	0	33.8310	0	26.629	0	269.562	0	131.6	4	43.5	4	-1E+10	1	-1E+10	1	-1E+10	1	-1E+10	1	-1E+10	1	-1E+10	1
4902549	41	C	09/25/2021	21:03	-131.922	47.117	0	273.30	0	6.0100	0	33.8330	0	26.632	0	270.849	0	130.9	4	43.2	4	-1E+10	1	-1E+10	1	-1E+10	1	-1E+10	1	-1E+10	1	-1E+10	1
4902549	41	C	09/25/2021	21:03	-131.922	47.117	0	274.10	0	6.0020	0	33.8340	0	26.634	0	271.642	0	130.5	4	43.1	4	-1E+10	1	-1E+10	1	-1E+10	1	-1E+10	1	-1E+10	1	-1E+10	1
4902549	41	C	09/25/2021	21:03	-131.922	47.117	0	274.90	0	5.9920	0	33.8330	0	26.635	0	272.434	0	130.1	4	42.9	4	-1E+10	1	-1E+10	1	-1E+10	1	-1E+10	1	-1E+10	1	-1E+10	1
4902549	41	C	09/25/2021	21:03	-131.922	47.117	0	275.80	0	5.9740	0	33.8370	0	26.640	0	273.325	0	129.7	4	42.8	4	-1E+10	1	-1E+10	1	-1E+10	1	-1E+10	1	-1E+10	1	-1E+10	1
4902549	41	C	09/25/2021	21:03	-131.922	47.117	0	277.00	0	5.9690	0	33.8340	0	26.638	0	274.514	0	129.0	4	42.6	4	-1E+10	1	-1E+10	1	-1E+10	1	-1E+10	1	-1E+10	1	-1E+10	1
4902549	41	C	09/25/2021	21:03	-131.922	47.117	0	278.30	0	5.9640	0	33.8340	0	26.639	0	275.801	0	128.1	4	42.3	4	-1E+10	1	-1E+10	1	-1E+10	1	-1E+10	1	-1E+10	1	-1E+10	1
4902549	41	C	09/25/2021	21:03	-131.922	47.117	0	279.10	0	5.9540	0	33.8340	0	26.640	0	276.594	0	127.6	4	42.1	4	-1E+10	1	-1E+10	1	-1E+10	1	-1E+10	1	-1E+10	1	-1E+10	1
4902549	41	C	09/25/2021	21:03	-131.922	47.117	0	280.00	0	5.9400	0	33.8340	0	26.642	0	277.485	0	127.1	4	41.9	4	-1E+10	1	-1E+10	1	-1E+10	1	-1E+10	1	-1E+10	1	-1E+10	1
4902549	41	C	09/25/2021	21:03	-131.922	47.117	0	280.80	0	5.9170	0	33.8350	0	26.646	0	278.277	0	126.6	4	41.7	4	-1E+10	1	-1E+10	1	-1E+10	1	-1E+10	1	-1E+10	1	-1E+10	1
4902549	41	C	09/25/2021	21:03	-131.922	47.117	0	281.70	0	5.9150	0	33.8340	0	26.645	0	279.168	0	125.9	4	41.5	4	-1E+10	1	-1E+10	1	-1E+10	1	-1E+10	1	-1E+10	1	-1E+10	1
4902549	41	C	09/25/2021	21:03	-131.922	47.117	0	282.90	0	5.8990	0	33.8330	0	26.646	0	280.357	0	124.9	4	41.1	4	-1E+10	1	-1E+10	1	-1E+10	1	-1E+10	1	-1E+10	1	-1E+10	1
4902549	41	C	09/25/2021	21:03	-131.922	47.117	0	284.20	0	5.8700	0	33.8360	0	26.652	0	281.644	0	123.9	4	40.8	4	-1E+10	1	-1E+10	1	-1E+10	1	-1E+10	1	-1E+10	1	-1E+10	1
4902549	41	C	09/25/2021	21:03	-131.922	47.117	0	285.10	0	5.8440	0	33.8350	0	26.655	0	282.536	0	123.2	4	40.5	4	-1E+10	1	-1E+10	1	-1E+10	1	-1E+10	1	-1E+10	1	-1E+10	1
4902549	41	C	09/25/2021	21:03	-131.922	47.117	0	286.00	0	5.8210	0	33.8330	0	26.656	0	283.427	0	122.5	4	40.3	4	-1E+10	1	-1E+10	1	-1E+10	1	-1E+10	1	-1E+10	1	-1E+10	1
4902549	41	C	09/25/2021	21:03	-131.922	47.117	0	286.80	0	5.7620	0	33.8360	0	26.665	0	284.219	0	122.0	4	40.1	4	-1E+10	1	-1E+10	1	-1E+10	1	-1E+10	1	-1E+10	1	-1E+10	1
4902549	41	C	09/25/2021	21:03	-131.922	47.117	0	287.70	0	5.7390	0	33.8350	0	26.667	0	285.110	0	121.6	4	39.9	4	-1E+10	1	-1E+10	1	-1E+10	1	-1E+10	1	-1E+10	1	-1E+10	1
4902549	41	C	09/25/2021	21:03	-131.922	47.117	0	288.60	0	5.7320	0	33.8350	0	26.668	0	286.002	0	121.1	4	39.7	4	-1E+10	1	-1E+10	1	-1E+10	1	-1E+10	1	-1E+10	1	-1E+10	1
4902549	41	C	09/25/2021	21:03	-131.922	47.117	0	289.90	0	5.6990	0	33.8370	0	26.674	0	287.289	0	120.5	4	39.5	4	-1E+10	1	-1E+10	1	-1E+10	1	-1E+10	1	-1E+10	1	-1E+10	1
4902549	41	C	09/25/2021	21:03	-131.922	47.117	0	291.30	0	5.6750	0	33.8360	0	26.676	0	288.675	0	119.9	4	39.3	4	-1E+10	1	-1E+10	1	-1E+10	1	-1E+10	1	-1E+10	1	-1E+10	1
4902549	41	C	09/25/2021	21:03	-131.922	47.117	0	292.20	0	5.6710	0	33.8350	0	26.676	0	289.567	0	119.4	4	39.1	4	-1E+10	1	-1E+10	1	-1E+10	1	-1E+10	1	-1E+10	1	-1E+10	1
4902549	41	C	09/25/2021	21:03	-131.922	47.117	0	293.10	0	5.6540	0	33.8350	0	26.678	0	290.458	0	119.0	4	39.0	4	-1E+10	1	-1E+10	1	-1E+10	1	-1E+10	1	-1E+10	1	-1E+10	1
4902549	41	C	09/25/2021	21:03	-131.922	47.117	0	294.10	0	5.6390	0	33.8350	0	26.680	0	291.448	0	118.5	4	38.8	4	-1E+10	1	-1E+10	1	-1E+10	1	-1E+10	1	-1E+10	1	-1E+10	1
4902549	41	C	09/25/2021	21:03	-131.922	47.117	0	295.00	0	5.6300	0	33.8340	0	26.680	0	292.340	0	118.0	4	38.6	4	-1E+10	1	-1E+10	1	-1E+10	1	-1E+10	1	-1E+10	1	-1E+10	1
4902549	41	C	09/25/2021	21:03	-131.922	47.117	0	295.90	0	5.6100	0	33.8360	0	26.684	0	293.231	0	117.5	4	38.5	4	-1E+10	1	-1E+10	1	-1E+10	1	-1E+10	1	-1E+10	1	-1E+10	1
4902549	41	C	09/25/2021	21:03	-131.922	47.117	0	296.80	0	5.5960	0	33.8320	0	26.682	0	294.122	0	117.1	4	38.3	4	-1E+10	1	-1E+10	1	-1E+10	1	-1E+10	1	-1E+10	1	-1E+10	1
4902549	41	C	09/25/2021	21:03	-131.922	47.117	0	297.80	0	5.5620	0	33.8330	0	26.687	0	295.112	0	116.8	4	38.2	4	-1E+10	1	-1E+10	1	-1E+10	1	-1E+10	1	-1E+10	1	-1E+10	1
4902549	41	C	09/25/2021	21:03	-131.922	47.117	0	298.70	0	5.5430	0	33.8320	0	26.689	0	296.004	0	116.5	4	38.0	4	-1E+10	1	-1E+10	1	-1E+10	1	-1E+10	1	-1E+10	1	-1E+10	1
4902549	41	C	09/25/2021	21:03	-131.922	47.117	0	299.60	0	5.5360	0	33.8320	0	26.690	0	296.895	0	116.2	4	37.9	4	-1E+10	1	-1E+10	1	-1E+10	1	-1E+10	1	-1E+10	1	-1E+10	1
4902549	41	C	09/25/2021	21:03	-131.922	47.117	0	300.50	0	5.5310	0	33.8330	0	26.691	0	297.786	0	115.8	4	37.8	4	-1E+10	1	-1E+10	1	-1E+10	1	-1E+10	1	-1E+10	1	-1E+10	1
4902549	41	C	09/25/2021	21:03	-131.922	47.117	0	301.90	0	5.5260	0	33.8320	0	26.691	0	299.172	0	115.2	4	37.6	4	-1E+10	1	-1E+10	1	-1E+10	1	-1E+10	1	-1E+10	1	-1E+10	1
4902549	41	C	09/25/2021	21:03	-131.922	47.117	0	303.30	0	5.5110	0	33.8320	0	26.693	0	300.559	0	114.6	4	37.4	4	-1E+10	1	-1E+10	1	-1E+10	1	-1E+10	1	-1E+10	1	-1E+10	1
4902549	41	C	09/25/2021	21:03	-131.922	47.117	0	304.20	0	5.5010	0	33.8330	0	26.695	0	301.450	0	114.1	4	37.3	4	-1E+10	1	-1E+10	1	-1E+10	1	-1E+10	1	-1E+10	1	-1E+10	1
4902549	41	C	09/25/2021	21:03	-131.922	47.117	0	305.20	0	5.4850	0	33.8320	0	26.696	0	302.440	0	113.7	4	37.1	4	-1E+10	1	-1E+10	1	-1E+10	1	-1E+10	1	-1E+10	1	-1E+10	1
4902549	41	C	09/25/2021	21:03	-131.922	47.117	0	306.10	0	5.4800	0	33.8330	0	26.697	0	303.331	0	113.4	4	37.0	4	-1E+10	1	-1E+10	1	-1E+10	1	-1E+10	1	-1E+10	1	-1E+10	1
4902549	41	C	09/25/2021	21:03	-131.922	47.117	0	307.00	0	5.4740	0	33.8330	0	26.698	0	304.222	0	112.9	4	36.8	4	-1E+10	1	-1E+10	1	-1E+10	1	-1E+10	1	-1E+10	1	-1E+10	1
4902549	41	C	09/25/2021	21:03	-131.922	47.117	0	307.90	0	5.4720	0	33.8340	0	26.699	0	305.114	0	112.5	4	36.7	4	-1E+10	1	-1E+10	1	-1E+10	1	-1E+10	1	-1E+10	1	-1E+10	1
4902549	41	C	09/25/2021	21:03	-131.922	47.117	0	308.90	0	5.4700	0	33.8340	0	26.699	0	306.104	0	112.0	4	36.5	4	-1E+10	1	-1E+10	1	-1E+10	1	-1E+10	1	-1E+10	1	-1E+10	1
4902549	41	C	09/25/2021	21:03	-131.922	47.117	0	309.80	0	5.4650	0	33.8350	0	26.701	0	306.995	0	111.4	4	36.3	4	-1E+10	1	-1E+10	1	-1E+10	1	-1E+10	1	-1E+10	1	-1E+10	1
4902549	41	C	09/25/2021	21:03	-131.922	47.117	0	310.70	0	5.4550	0	33.8350	0	26.702	0	307.886	0	110.9	4	36.1	4	-1E+10	1	-1E+10	1	-1E+10	1	-1E+10	1	-1E+10	1	-1E+10	1
4902549	41	C	09/25/2021	21:03	-131.922	47.117	0	311.60	0	5.4440	0	33.8360	0	26.704	0	308.777	0	110.4	4	36.0	4	-1E+10	1	-1E+10	1	-1E+10	1	-1E+10	1	-1E+10	1	-1E+10	1
4902549	41	C	09/25/2021	21:03	-131.922	47.117	0	312.50	0	5.4370	0	33.8380	0	26.706	0	309.669	0	109.8	4	35.8	4	-1E+10	1	-1E+10	1	-1E+10	1	-1E+10	1	-1E+10	1	-1E+10	1
4902549	41	C	09/25/2021	21:03	-131.922	47.117	0	313.90	0	5.4280	0	33.8380	0	26.707	0	311.055	0	109.0	4	35.5	4	-1E+10	1	-1E+10	1	-1E+10	1	-1E+10	1	-1E+10	1	-1E+10	1
4902549	41	C	09/25/2021	21:03	-131.922	47.117	0	315.30	0	5.4200	0	33.8390	0	26.709	0	312.441	0	108.1	4	35.2	4	-1E+10	1	-1E+10	1	-1E+10	1	-1E+10	1	-1E+10	1	-1E+10	1
4902549	41	C	09/25/2021	21:03	-131.922	47.117	0	316.30	0	5.4090	0	33.8400	0	26.711	0	313.431	0	107.5	4	35.0	4	-1E+10	1	-1E+10	1	-1E+10	1	-1E+10	1	-1E+10	1	-1E+10	1
4902549	41	C	09/25/2021	21:03	-131.922	47.117	0	317.20	0	5.3930	0	33.8410	0	26.714	0	314.322	0	106.9	4	34.8	4	-1E+10	1	-1E+10	1	-1E+10	1	-1E+10	1	-1E+10	1	-1E+10	1
4902549	41	C	09/25/2021	21:03	-131.922	47.117	0	318.20	0	5.3720	0	33.8420	0	26.717	0	315.313	0	106.2	4	34.6	4	-1E+10	1	-1E+10	1	-1E+10	1	-1E+10	1	-1E+10	1	-1E+10	1
4902549	41	C	09/25/2021	21:03	-131.922	47.117	0	319.10	0	5.3480	0	33.8420	0	26.720	0	316.204	0	105.7	4	34.4	4	-1E+10	1	-1E+10	1	-1E+10	1	-1E+10	1	-1E+10	1	-1E+10	1
4902549	41	C	09/25/2021	21:03	-131.922	47.117	0	320.10	0	5.3490	0	33.8430	0	26.721	0	317.194	0	105.1	4	34.2	4	-1E+10	1	-1E+10	1	-1E+10	1	-1E+10	1	-1E+10	1	-1E+10	1
4902549	41	C	09/25/2021	21:03	-131.922	47.117	0	321.00	0	5.3530	0	33.8450	0	26.722	0	318.085	0	104.5	4	34.0	4	-1E+10	1	-1E+10	1	-1E+10	1	-1E+10	1	-1E+10	1	-1E+10	1
4902549	41	C	09/25/2021	21:03	-131.922	47.117	0	322.00	0	5.3360	0	33.8490	0	26.727	0	319.075	0	103.9	4	33.8	4	-1E+10	1	-1E+10	1	-1E+10	1	-1E+10	1	-1E+10	1	-1E+10	1
4902549	41	C	09/25/2021	21:03	-131.922	47.117	0	323.00	0	5.3250	0	33.8480	0	26.728	0	320.065	0	103.4	4	33.6	4	-1E+10	1	-1E+10	1	-1E+10	1	-1E+10	1	-1E+10	1	-1E+10	1
4902549	41	C	09/25/2021	21:03	-131.922	47.117	0	323.90	0	5.3070	0	33.8500	0	26.731	0	320.956	0	102.8	4	33.4	4	-1E+10	1	-1E+10	1	-1E+10	1	-1E+10	1	-1E+10	1	-1E+10	1
4902549	41	C	09/25/2021	21:03	-131.922	47.117	0	324.90	0	5.2950	0	33.8490	0	26.732	0	321.947	0	102.3	4	33.2	4	-1E+10	1	-1E+10	1	-1E+10	1	-1E+10	1	-1E+10	1	-1E+10	1
4902549	41	C	09/25/2021	21:03	-131.922	47.117	0	325.90	0	5.2730	0	33.8500	0	26.735	0	322.937	0	101.9	4	33.1	4	-1E+10	1	-1E+10	1	-1E+10	1	-1E+10	1	-1E+10	1	-1E+10	1
4902549	41	C	09/25/2021	21:03	-131.922	47.117	0	326.80	0	5.2630	0	33.8500	0	26.736	0	323.828	0	101.4	4	32.9	4	-1E+10	1	-1E+10	1	-1E+10	1	-1E+10	1	-1E+10	1	-1E+10	1
4902549	41	C	09/25/2021	21:03	-131.922	47.117	0	327.80	0	5.2550	0	33.8510	0	26.738	0	324.818	0	100.9	4	32.8	4	-1E+10	1	-1E+10	1	-1E+10	1	-1E+10	1	-1E+10	1	-1E+10	1
4902549	41	C	09/25/2021	21:03	-131.922	47.117	0	328.80	0	5.2440	0	33.8500	0	26.739	0	325.808	0	100.4	4	32.6	4	-1E+10	1	-1E+10	1	-1E+10	1	-1E+10	1	-1E+10	1	-1E+10	1
4902549	41	C	09/25/2021	21:03	-131.922	47.117	0	329.80	0	5.2340	0	33.8530	0	26.742	0	326.798	0	99.8	4	32.4	4	-1E+10	1	-1E+10	1	-1E+10	1	-1E+10	1	-1E+10	1	-1E+10	1
4902549	41	C	09/25/2021	21:03	-131.922	47.117	0	330.80	0	5.2230	0	33.8520	0	26.743	0	327.788	0	99.3	4	32.2	4	-1E+10	1	-1E+10	1	-1E+10	1	-1E+10	1	-1E+10	1	-1E+10	1
4902549	41	C	09/25/2021	21:03	-131.922	47.117	0	331.80	0	5.2110	0	33.8540	0	26.746	0	328.778	0	98.8	4	32.0	4	-1E+10	1	-1E+10	1	-1E+10	1	-1E+10	1	-1E+10	1	-1E+10	1
4902549	41	C	09/25/2021	21:03	-131.922	47.117	0	332.70	0	5.2000	0	33.8530	0	26.746	0	329.670	0	98.3	4	31.9	4	-1E+10	1	-1E+10	1	-1E+10	1	-1E+10	1	-1E+10	1	-1E+10	1
4902549	41	C	09/25/2021	21:03	-131.922	47.117	0	333.70	0	5.1950	0	33.8530	0	26.747	0	330.660	0	97.8	4	31.7	4	-1E+10	1	-1E+10	1	-1E+10	1	-1E+10	1	-1E+10	1	-1E+10	1
4902549	41	C	09/25/2021	21:03	-131.922	47.117	0	334.70	0	5.1900	0	33.8530	0	26.747	0	331.650	0	97.1	4	31.5	4	-1E+10	1	-1E+10	1	-1E+10	1	-1E+10	1	-1E+10	1	-1E+10	1
4902549	41	C	09/25/2021	21:03	-131.922	47.117	0	335.70	0	5.1710	0	33.8530	0	26.749	0	332.640	0	96.5	4	31.2	4	-1E+10	1	-1E+10	1	-1E+10	1	-1E+10	1	-1E+10	1	-1E+10	1
4902549	41	C	09/25/2021	21:03	-131.922	47.117	0	336.70	0	5.1320	0	33.8550	0	26.756	0	333.630	0	95.9	4	31.0	4	-1E+10	1	-1E+10	1	-1E+10	1	-1E+10	1	-1E+10	1	-1E+10	1
4902549	41	C	09/25/2021	21:03	-131.922	47.117	0	337.70	0	5.1040	0	33.8510	0	26.756	0	334.620	0	95.5	4	30.9	4	-1E+10	1	-1E+10	1	-1E+10	1	-1E+10	1	-1E+10	1	-1E+10	1
4902549	41	C	09/25/2021	21:03	-131.922	47.117	0	338.70	0	5.0940	0	33.8510	0	26.757	0	335.610	0	94.9	4	30.7	4	-1E+10	1	-1E+10	1	-1E+10	1	-1E+10	1	-1E+10	1	-1E+10	1
4902549	41	C	09/25/2021	21:03	-131.922	47.117	0	339.70	0	5.0790	0	33.8520	0	26.759	0	336.600	0	94.3	4	30.5	4	-1E+10	1	-1E+10	1	-1E+10	1	-1E+10	1	-1E+10	1	-1E+10	1
4902549	41	C	09/25/2021	21:03	-131.922	47.117	0	340.70	0	5.0680	0	33.8530	0	26.761	0	337.590	0	93.8	4	30.3	4	-1E+10	1	-1E+10	1	-1E+10	1	-1E+10	1	-1E+10	1	-1E+10	1
4902549	41	C	09/25/2021	21:03	-131.922	47.117	0	341.70	0	5.0530	0	33.8550	0	26.765	0	338.580	0	93.4	4	30.2	4	-1E+10	1	-1E+10	1	-1E+10	1	-1E+10	1	-1E+10	1	-1E+10	1
4902549	41	C	09/25/2021	21:03	-131.922	47.117	0	342.70	0	5.0390	0	33.8540	0	26.765	0	339.570	0	92.9	4	30.0	4	-1E+10	1	-1E+10	1	-1E+10	1	-1E+10	1	-1E+10	1	-1E+10	1
4902549	41	C	09/25/2021	21:03	-131.922	47.117	0	343.70	0	5.0340	0	33.8550	0	26.767	0	340.560	0	92.4	4	29.8	4	-1E+10	1	-1E+10	1	-1E+10	1	-1E+10	1	-1E+10	1	-1E+10	1
4902549	41	C	09/25/2021	21:03	-131.922	47.117	0	344.70	0	5.0300	0	33.8550	0	26.767	0	341.550	0	91.8	4	29.6	4	-1E+10	1	-1E+10	1	-1E+10	1	-1E+10	1	-1E+10	1	-1E+10	1
4902549	41	C	09/25/2021	21:03	-131.922	47.117	0	345.60	0	5.0230	0	33.8560	0	26.769	0	342.441	0	91.3	4	29.5	4	-1E+10	1	-1E+10	1	-1E+10	1	-1E+10	1	-1E+10	1	-1E+10	1
4902549	41	C	09/25/2021	21:03	-131.922	47.117	0	346.60	0	5.0110	0	33.8560	0	26.770	0	343.431	0	90.8	4	29.3	4	-1E+10	1	-1E+10	1	-1E+10	1	-1E+10	1	-1E+10	1	-1E+10	1
4902549	41	C	09/25/2021	21:03	-131.922	47.117	0	347.60	0	4.9970	0	33.8580	0	26.773	0	344.421	0	90.3	4	29.1	4	-1E+10	1	-1E+10	1	-1E+10	1	-1E+10	1	-1E+10	1	-1E+10	1
4902549	41	C	09/25/2021	21:03	-131.922	47.117	0	348.60	0	4.9880	0	33.8570	0	26.774	0	345.411	0	89.8	4	29.0	4	-1E+10	1	-1E+10	1	-1E+10	1	-1E+10	1	-1E+10	1	-1E+10	1
4902549	41	C	09/25/2021	21:03	-131.922	47.117	0	349.60	0	4.9800	0	33.8590	0	26.776	0	346.401	0	89.3	4	28.8	4	-1E+10	1	-1E+10	1	-1E+10	1	-1E+10	1	-1E+10	1	-1E+10	1
4902549	41	C	09/25/2021	21:03	-131.922	47.117	0	352.60	0	4.9390	0	33.8610	0	26.782	0	349.372	0	87.9	4	28.3	4	-1E+10	1	-1E+10	1	-1E+10	1	-1E+10	1	-1E+10	1	-1E+10	1
4902549	41	C	09/25/2021	21:03	-131.922	47.117	0	357.50	0	4.9010	0	33.8640	0	26.789	0	354.222	0	85.7	4	27.6	4	-1E+10	1	-1E+10	1	-1E+10	1	-1E+10	1	-1E+10	1	-1E+10	1
4902549	41	C	09/25/2021	21:03	-131.922	47.117	0	362.50	0	4.8670	0	33.8690	0	26.797	0	359.172	0	83.4	4	26.8	4	-1E+10	1	-1E+10	1	-1E+10	1	-1E+10	1	-1E+10	1	-1E+10	1
4902549	41	C	09/25/2021	21:03	-131.922	47.117	0	367.50	0	4.8240	0	33.8720	0	26.804	0	364.122	0	81.2	4	26.1	4	-1E+10	1	-1E+10	1	-1E+10	1	-1E+10	1	-1E+10	1	-1E+10	1
4902549	41	C	09/25/2021	21:03	-131.922	47.117	0	372.50	0	4.7860	0	33.8780	0	26.813	0	369.072	0	79.2	4	25.4	4	-1E+10	1	-1E+10	1	-1E+10	1	-1E+10	1	-1E+10	1	-1E+10	1
4902549	41	C	09/25/2021	21:03	-131.922	47.117	0	377.50	0	4.7600	0	33.8810	0	26.818	0	374.021	0	77.6	4	24.9	4	-1E+10	1	-1E+10	1	-1E+10	1	-1E+10	1	-1E+10	1	-1E+10	1
4902549	41	C	09/25/2021	21:03	-131.922	47.117	0	382.60	0	4.7380	0	33.8860	0	26.825	0	379.069	0	75.9	4	24.3	4	-1E+10	1	-1E+10	1	-1E+10	1	-1E+10	1	-1E+10	1	-1E+10	1
4902549	41	C	09/25/2021	21:03	-131.922	47.117	0	387.70	0	4.7200	0	33.8940	0	26.833	0	384.118	0	74.4	4	23.8	4	-1E+10	1	-1E+10	1	-1E+10	1	-1E+10	1	-1E+10	1	-1E+10	1
4902549	41	C	09/25/2021	21:03	-131.922	47.117	0	392.90	0	4.7020	0	33.9020	0	26.842	0	389.265	0	73.2	4	23.4	4	-1E+10	1	-1E+10	1	-1E+10	1	-1E+10	1	-1E+10	1	-1E+10	1
4902549	41	C	09/25/2021	21:03	-131.922	47.117	0	398.00	0	4.6930	0	33.9030	0	26.843	0	394.313	0	71.9	4	23.0	4	-1E+10	1	-1E+10	1	-1E+10	1	-1E+10	1	-1E+10	1	-1E+10	1
4902549	41	C	09/25/2021	21:03	-131.922	47.117	0	403.20	0	4.6680	0	33.9070	0	26.849	0	399.459	0	70.7	4	22.6	4	-1E+10	1	-1E+10	1	-1E+10	1	-1E+10	1	-1E+10	1	-1E+10	1
4902549	41	C	09/25/2021	21:03	-131.922	47.117	0	408.30	0	4.6750	0	33.9130	0	26.853	0	404.507	0	69.2	4	22.2	4	-1E+10	1	-1E+10	1	-1E+10	1	-1E+10	1	-1E+10	1	-1E+10	1
4902549	41	C	09/25/2021	21:03	-131.922	47.117	0	412.90	0	4.6240	0	33.9120	0	26.858	0	409.060	0	67.4	4	21.6	4	-1E+10	1	-1E+10	1	-1E+10	1	-1E+10	1	-1E+10	1	-1E+10	1
4902549	41	C	09/25/2021	21:03	-131.922	47.117	0	417.50	0	4.5900	0	33.9180	0	26.867	0	413.613	0	66.1	4	21.1	4	-1E+10	1	-1E+10	1	-1E+10	1	-1E+10	1	-1E+10	1	-1E+10	1
4902549	41	C	09/25/2021	21:03	-131.922	47.117	0	422.60	0	4.5760	0	33.9240	0	26.873	0	418.660	0	64.7	4	20.7	4	-1E+10	1	-1E+10	1	-1E+10	1	-1E+10	1	-1E+10	1	-1E+10	1
4902549	41	C	09/25/2021	21:03	-131.922	47.117	0	427.70	0	4.5530	0	33.9330	0	26.883	0	423.707	0	63.9	4	20.4	4	-1E+10	1	-1E+10	1	-1E+10	1	-1E+10	1	-1E+10	1	-1E+10	1
4902549	41	C	09/25/2021	21:03	-131.922	47.117	0	432.80	0	4.5500	0	33.9350	0	26.885	0	428.754	0	63.2	4	20.2	4	-1E+10	1	-1E+10	1	-1E+10	1	-1E+10	1	-1E+10	1	-1E+10	1
4902549	41	C	09/25/2021	21:03	-131.922	47.117	0	437.80	0	4.5650	0	33.9440	0	26.890	0	433.702	0	62.3	4	19.9	4	-1E+10	1	-1E+10	1	-1E+10	1	-1E+10	1	-1E+10	1	-1E+10	1
4902549	41	C	09/25/2021	21:03	-131.922	47.117	0	442.80	0	4.5630	0	33.9500	0	26.895	0	438.650	0	61.3	4	19.6	4	-1E+10	1	-1E+10	1	-1E+10	1	-1E+10	1	-1E+10	1	-1E+10	1
4902549	41	C	09/25/2021	21:03	-131.922	47.117	0	447.80	0	4.5500	0	33.9530	0	26.899	0	443.598	0	60.3	4	19.3	4	-1E+10	1	-1E+10	1	-1E+10	1	-1E+10	1	-1E+10	1	-1E+10	1
4902549	41	C	09/25/2021	21:03	-131.922	47.117	0	452.80	0	4.5380	0	33.9590	0	26.905	0	448.546	0	59.2	4	18.9	4	-1E+10	1	-1E+10	1	-1E+10	1	-1E+10	1	-1E+10	1	-1E+10	1
4902549	41	C	09/25/2021	21:03	-131.922	47.117	0	457.90	0	4.5320	0	33.9620	0	26.908	0	453.592	0	58.1	4	18.6	4	-1E+10	1	-1E+10	1	-1E+10	1	-1E+10	1	-1E+10	1	-1E+10	1
4902549	41	C	09/25/2021	21:03	-131.922	47.117	0	462.80	0	4.4940	0	33.9650	0	26.915	0	458.441	0	57.0	4	18.2	4	-1E+10	1	-1E+10	1	-1E+10	1	-1E+10	1	-1E+10	1	-1E+10	1
4902549	41	C	09/25/2021	21:03	-131.922	47.117	0	467.80	0	4.4790	0	33.9690	0	26.920	0	463.388	0	56.2	4	17.9	4	-1E+10	1	-1E+10	1	-1E+10	1	-1E+10	1	-1E+10	1	-1E+10	1
4902549	41	C	09/25/2021	21:03	-131.922	47.117	0	473.00	0	4.4810	0	33.9730	0	26.923	0	468.533	0	55.4	4	17.7	4	-1E+10	1	-1E+10	1	-1E+10	1	-1E+10	1	-1E+10	1	-1E+10	1
4902549	41	C	09/25/2021	21:03	-131.922	47.117	0	477.80	0	4.4790	0	33.9760	0	26.925	0	473.282	0	54.7	4	17.4	4	-1E+10	1	-1E+10	1	-1E+10	1	-1E+10	1	-1E+10	1	-1E+10	1
4902549	41	C	09/25/2021	21:03	-131.922	47.117	0	482.70	0	4.4750	0	33.9780	0	26.927	0	478.130	0	53.6	4	17.1	4	-1E+10	1	-1E+10	1	-1E+10	1	-1E+10	1	-1E+10	1	-1E+10	1
4902549	41	C	09/25/2021	21:03	-131.922	47.117	0	488.00	0	4.4560	0	33.9820	0	26.933	0	483.374	0	52.1	4	16.6	4	-1E+10	1	-1E+10	1	-1E+10	1	-1E+10	1	-1E+10	1	-1E+10	1
4902549	41	C	09/25/2021	21:03	-131.922	47.117	0	493.00	0	4.4370	0	33.9870	0	26.939	0	488.321	0	51.0	4	16.2	4	-1E+10	1	-1E+10	1	-1E+10	1	-1E+10	1	-1E+10	1	-1E+10	1
4902549	41	C	09/25/2021	21:03	-131.922	47.117	0	498.00	0	4.4230	0	33.9900	0	26.942	0	493.267	0	49.8	4	15.9	4	-1E+10	1	-1E+10	1	-1E+10	1	-1E+10	1	-1E+10	1	-1E+10	1
4902549	41	C	09/25/2021	21:03	-131.922	47.117	0	503.10	0	4.4090	0	33.9950	0	26.948	0	498.313	0	48.6	4	15.5	4	-1E+10	1	-1E+10	1	-1E+10	1	-1E+10	1	-1E+10	1	-1E+10	1
4902549	41	C	09/25/2021	21:03	-131.922	47.117	0	507.80	0	4.3960	0	33.9990	0	26.953	0	502.962	0	47.6	4	15.2	4	-1E+10	1	-1E+10	1	-1E+10	1	-1E+10	1	-1E+10	1	-1E+10	1
4902549	41	C	09/25/2021	21:03	-131.922	47.117	0	513.00	0	4.3870	0	34.0020	0	26.956	0	508.107	0	46.4	4	14.8	4	-1E+10	1	-1E+10	1	-1E+10	1	-1E+10	1	-1E+10	1	-1E+10	1
4902549	41	C	09/25/2021	21:03	-131.922	47.117	0	518.20	0	4.3710	0	34.0080	0	26.962	0	513.251	0	45.1	4	14.3	4	-1E+10	1	-1E+10	1	-1E+10	1	-1E+10	1	-1E+10	1	-1E+10	1
4902549	41	C	09/25/2021	21:03	-131.922	47.117	0	523.10	0	4.3610	0	34.0120	0	26.967	0	518.098	0	44.0	4	14.0	4	-1E+10	1	-1E+10	1	-1E+10	1	-1E+10	1	-1E+10	1	-1E+10	1
4902549	41	C	09/25/2021	21:03	-131.922	47.117	0	528.00	0	4.3460	0	34.0180	0	26.973	0	522.945	0	42.7	4	13.6	4	-1E+10	1	-1E+10	1	-1E+10	1	-1E+10	1	-1E+10	1	-1E+10	1
4902549	41	C	09/25/2021	21:03	-131.922	47.117	0	533.00	0	4.3340	0	34.0220	0	26.978	0	527.890	0	41.4	4	13.2	4	-1E+10	1	-1E+10	1	-1E+10	1	-1E+10	1	-1E+10	1	-1E+10	1
4902549	41	C	09/25/2021	21:03	-131.922	47.117	0	537.90	0	4.3200	0	34.0270	0	26.983	0	532.737	0	40.0	4	12.7	4	-1E+10	1	-1E+10	1	-1E+10	1	-1E+10	1	-1E+10	1	-1E+10	1
4902549	41	C	09/25/2021	21:03	-131.922	47.117	0	542.90	0	4.3000	0	34.0340	0	26.991	0	537.683	0	38.6	4	12.3	4	-1E+10	1	-1E+10	1	-1E+10	1	-1E+10	1	-1E+10	1	-1E+10	1
4902549	41	C	09/25/2021	21:03	-131.922	47.117	0	547.90	0	4.2810	0	34.0400	0	26.998	0	542.628	0	37.6	4	11.9	4	-1E+10	1	-1E+10	1	-1E+10	1	-1E+10	1	-1E+10	1	-1E+10	1
4902549	41	C	09/25/2021	21:03	-131.922	47.117	0	552.90	0	4.2720	0	34.0430	0	27.001	0	547.573	0	36.6	4	11.6	4	-1E+10	1	-1E+10	1	-1E+10	1	-1E+10	1	-1E+10	1	-1E+10	1
4902549	41	C	09/25/2021	21:03	-131.922	47.117	0	557.80	0	4.2570	0	34.0480	0	27.007	0	552.420	0	35.6	4	11.3	4	-1E+10	1	-1E+10	1	-1E+10	1	-1E+10	1	-1E+10	1	-1E+10	1
4902549	41	C	09/25/2021	21:03	-131.922	47.117	0	562.80	0	4.2450	0	34.0520	0	27.011	0	557.365	0	34.5	4	11.0	4	-1E+10	1	-1E+10	1	-1E+10	1	-1E+10	1	-1E+10	1	-1E+10	1
4902549	41	C	09/25/2021	21:03	-131.922	47.117	0	567.80	0	4.2310	0	34.0560	0	27.016	0	562.310	0	33.5	4	10.6	4	-1E+10	1	-1E+10	1	-1E+10	1	-1E+10	1	-1E+10	1	-1E+10	1
4902549	41	C	09/25/2021	21:03	-131.922	47.117	0	572.80	0	4.2180	0	34.0610	0	27.021	0	567.255	0	32.5	4	10.3	4	-1E+10	1	-1E+10	1	-1E+10	1	-1E+10	1	-1E+10	1	-1E+10	1
4902549	41	C	09/25/2021	21:03	-131.922	47.117	0	577.70	0	4.2050	0	34.0650	0	27.026	0	572.100	0	31.3	4	9.9	4	-1E+10	1	-1E+10	1	-1E+10	1	-1E+10	1	-1E+10	1	-1E+10	1
4902549	41	C	09/25/2021	21:03	-131.922	47.117	0	582.60	0	4.1840	0	34.0720	0	27.033	0	576.946	0	30.3	4	9.6	4	-1E+10	1	-1E+10	1	-1E+10	1	-1E+10	1	-1E+10	1	-1E+10	1
4902549	41	C	09/25/2021	21:03	-131.922	47.117	0	587.50	0	4.1730	0	34.0760	0	27.038	0	581.792	0	29.5	4	9.4	4	-1E+10	1	-1E+10	1	-1E+10	1	-1E+10	1	-1E+10	1	-1E+10	1
4902549	41	C	09/25/2021	21:03	-131.922	47.117	0	592.90	0	4.1590	0	34.0810	0	27.043	0	587.132	0	28.7	4	9.1	4	-1E+10	1	-1E+10	1	-1E+10	1	-1E+10	1	-1E+10	1	-1E+10	1
4902549	41	C	09/25/2021	21:03	-131.922	47.117	0	598.20	0	4.1460	0	34.0850	0	27.048	0	592.373	0	28.0	4	8.9	4	-1E+10	1	-1E+10	1	-1E+10	1	-1E+10	1	-1E+10	1	-1E+10	1
4902549	41	C	09/25/2021	21:03	-131.922	47.117	0	603.10	0	4.1330	0	34.0900	0	27.053	0	597.218	0	27.1	4	8.6	4	-1E+10	1	-1E+10	1	-1E+10	1	-1E+10	1	-1E+10	1	-1E+10	1
4902549	41	C	09/25/2021	21:03	-131.922	47.117	0	608.00	0	4.1190	0	34.0950	0	27.059	0	602.063	0	26.3	4	8.3	4	-1E+10	1	-1E+10	1	-1E+10	1	-1E+10	1	-1E+10	1	-1E+10	1
4902549	41	C	09/25/2021	21:03	-131.922	47.117	0	613.00	0	4.1020	0	34.1000	0	27.064	0	607.007	0	25.7	4	8.1	4	-1E+10	1	-1E+10	1	-1E+10	1	-1E+10	1	-1E+10	1	-1E+10	1
4902549	41	C	09/25/2021	21:03	-131.922	47.117	0	617.80	0	4.0910	0	34.1040	0	27.069	0	611.753	0	25.2	4	8.0	4	-1E+10	1	-1E+10	1	-1E+10	1	-1E+10	1	-1E+10	1	-1E+10	1
4902549	41	C	09/25/2021	21:03	-131.922	47.117	0	622.70	0	4.0830	0	34.1070	0	27.072	0	616.598	0	24.6	4	7.8	4	-1E+10	1	-1E+10	1	-1E+10	1	-1E+10	1	-1E+10	1	-1E+10	1
4902549	41	C	09/25/2021	21:03	-131.922	47.117	0	627.50	0	4.0790	0	34.1080	0	27.073	0	621.343	0	23.7	4	7.5	4	-1E+10	1	-1E+10	1	-1E+10	1	-1E+10	1	-1E+10	1	-1E+10	1
4902549	41	C	09/25/2021	21:03	-131.922	47.117	0	632.80	0	4.0650	0	34.1150	0	27.080	0	626.583	0	22.7	4	7.2	4	-1E+10	1	-1E+10	1	-1E+10	1	-1E+10	1	-1E+10	1	-1E+10	1
4902549	41	C	09/25/2021	21:03	-131.922	47.117	0	638.20	0	4.0510	0	34.1200	0	27.086	0	631.922	0	21.9	4	6.9	4	-1E+10	1	-1E+10	1	-1E+10	1	-1E+10	1	-1E+10	1	-1E+10	1
4902549	41	C	09/25/2021	21:03	-131.922	47.117	0	643.10	0	4.0340	0	34.1260	0	27.092	0	636.767	0	21.1	4	6.7	4	-1E+10	1	-1E+10	1	-1E+10	1	-1E+10	1	-1E+10	1	-1E+10	1
4902549	41	C	09/25/2021	21:03	-131.922	47.117	0	647.90	0	4.0160	0	34.1320	0	27.099	0	641.512	0	20.5	4	6.5	4	-1E+10	1	-1E+10	1	-1E+10	1	-1E+10	1	-1E+10	1	-1E+10	1
4902549	41	C	09/25/2021	21:03	-131.922	47.117	0	652.80	0	3.9990	0	34.1380	0	27.105	0	646.356	0	19.8	4	6.2	4	-1E+10	1	-1E+10	1	-1E+10	1	-1E+10	1	-1E+10	1	-1E+10	1
4902549	41	C	09/25/2021	21:03	-131.922	47.117	0	657.80	0	3.9790	0	34.1440	0	27.112	0	651.299	0	19.3	4	6.1	4	-1E+10	1	-1E+10	1	-1E+10	1	-1E+10	1	-1E+10	1	-1E+10	1
4902549	41	C	09/25/2021	21:03	-131.922	47.117	0	662.60	0	3.9680	0	34.1480	0	27.117	0	656.044	0	18.8	4	5.9	4	-1E+10	1	-1E+10	1	-1E+10	1	-1E+10	1	-1E+10	1	-1E+10	1
4902549	41	C	09/25/2021	21:03	-131.922	47.117	0	667.50	0	3.9460	0	34.1520	0	27.122	0	660.888	0	18.5	4	5.8	4	-1E+10	1	-1E+10	1	-1E+10	1	-1E+10	1	-1E+10	1	-1E+10	1
4902549	41	C	09/25/2021	21:03	-131.922	47.117	0	672.60	0	3.9300	0	34.1560	0	27.127	0	665.929	0	18.1	4	5.7	4	-1E+10	1	-1E+10	1	-1E+10	1	-1E+10	1	-1E+10	1	-1E+10	1
4902549	41	C	09/25/2021	21:03	-131.922	47.117	0	677.70	0	3.9180	0	34.1600	0	27.131	0	670.970	0	17.7	4	5.6	4	-1E+10	1	-1E+10	1	-1E+10	1	-1E+10	1	-1E+10	1	-1E+10	1
4902549	41	C	09/25/2021	21:03	-131.922	47.117	0	682.90	0	3.9120	0	34.1620	0	27.134	0	676.110	0	17.5	4	5.5	4	-1E+10	1	-1E+10	1	-1E+10	1	-1E+10	1	-1E+10	1	-1E+10	1
4902549	41	C	09/25/2021	21:03	-131.922	47.117	0	687.80	0	3.9080	0	34.1640	0	27.136	0	680.953	0	17.2	4	5.4	4	-1E+10	1	-1E+10	1	-1E+10	1	-1E+10	1	-1E+10	1	-1E+10	1
4902549	41	C	09/25/2021	21:03	-131.922	47.117	0	692.70	0	3.9000	0	34.1660	0	27.138	0	685.796	0	16.9	4	5.3	4	-1E+10	1	-1E+10	1	-1E+10	1	-1E+10	1	-1E+10	1	-1E+10	1
4902549	41	C	09/25/2021	21:03	-131.922	47.117	0	697.70	0	3.8810	0	34.1700	0	27.143	0	690.738	0	16.5	4	5.2	4	-1E+10	1	-1E+10	1	-1E+10	1	-1E+10	1	-1E+10	1	-1E+10	1
4902549	41	C	09/25/2021	21:03	-131.922	47.117	0	702.80	0	3.8600	0	34.1740	0	27.149	0	695.779	0	16.1	4	5.1	4	-1E+10	1	-1E+10	1	-1E+10	1	-1E+10	1	-1E+10	1	-1E+10	1
4902549	41	C	09/25/2021	21:03	-131.922	47.117	0	708.00	0	3.8540	0	34.1780	0	27.152	0	700.918	0	15.8	4	5.0	4	-1E+10	1	-1E+10	1	-1E+10	1	-1E+10	1	-1E+10	1	-1E+10	1
4902549	41	C	09/25/2021	21:03	-131.922	47.117	0	712.80	0	3.8430	0	34.1790	0	27.154	0	705.662	0	15.6	4	4.9	4	-1E+10	1	-1E+10	1	-1E+10	1	-1E+10	1	-1E+10	1	-1E+10	1
4902549	41	C	09/25/2021	21:03	-131.922	47.117	0	717.60	0	3.8320	0	34.1820	0	27.158	0	710.406	0	15.2	4	4.8	4	-1E+10	1	-1E+10	1	-1E+10	1	-1E+10	1	-1E+10	1	-1E+10	1
4902549	41	C	09/25/2021	21:03	-131.922	47.117	0	722.50	0	3.8200	0	34.1860	0	27.162	0	715.248	0	14.8	4	4.7	4	-1E+10	1	-1E+10	1	-1E+10	1	-1E+10	1	-1E+10	1	-1E+10	1
4902549	41	C	09/25/2021	21:03	-131.922	47.117	0	727.50	0	3.8120	0	34.1890	0	27.165	0	720.190	0	14.4	4	4.5	4	-1E+10	1	-1E+10	1	-1E+10	1	-1E+10	1	-1E+10	1	-1E+10	1
4902549	41	C	09/25/2021	21:03	-131.922	47.117	0	732.50	0	3.7930	0	34.1940	0	27.171	0	725.131	0	14.0	4	4.4	4	-1E+10	1	-1E+10	1	-1E+10	1	-1E+10	1	-1E+10	1	-1E+10	1
4902549	41	C	09/25/2021	21:03	-131.922	47.117	0	737.50	0	3.7810	0	34.1970	0	27.175	0	730.072	0	13.6	4	4.3	4	-1E+10	1	-1E+10	1	-1E+10	1	-1E+10	1	-1E+10	1	-1E+10	1
4902549	41	C	09/25/2021	21:03	-131.922	47.117	0	742.60	0	3.7650	0	34.2010	0	27.180	0	735.111	0	13.0	4	4.1	4	-1E+10	1	-1E+10	1	-1E+10	1	-1E+10	1	-1E+10	1	-1E+10	1
4902549	41	C	09/25/2021	21:03	-131.922	47.117	0	747.60	0	3.7370	0	34.2090	0	27.189	0	740.052	0	12.4	4	3.9	4	-1E+10	1	-1E+10	1	-1E+10	1	-1E+10	1	-1E+10	1	-1E+10	1
4902549	41	C	09/25/2021	21:03	-131.922	47.117	0	752.60	0	3.7210	0	34.2140	0	27.195	0	744.993	0	12.1	4	3.8	4	-1E+10	1	-1E+10	1	-1E+10	1	-1E+10	1	-1E+10	1	-1E+10	1
4902549	41	C	09/25/2021	21:03	-131.922	47.117	0	757.70	0	3.7190	0	34.2160	0	27.196	0	750.032	0	11.8	4	3.7	4	-1E+10	1	-1E+10	1	-1E+10	1	-1E+10	1	-1E+10	1	-1E+10	1
4902549	41	C	09/25/2021	21:03	-131.922	47.117	0	762.80	0	3.7140	0	34.2190	0	27.199	0	755.071	0	11.5	4	3.6	4	-1E+10	1	-1E+10	1	-1E+10	1	-1E+10	1	-1E+10	1	-1E+10	1
4902549	41	C	09/25/2021	21:03	-131.922	47.117	0	767.90	0	3.6970	0	34.2240	0	27.205	0	760.110	0	11.2	4	3.5	4	-1E+10	1	-1E+10	1	-1E+10	1	-1E+10	1	-1E+10	1	-1E+10	1
4902549	41	C	09/25/2021	21:03	-131.922	47.117	0	773.00	0	3.6770	0	34.2260	0	27.209	0	765.149	0	11.0	4	3.4	4	-1E+10	1	-1E+10	1	-1E+10	1	-1E+10	1	-1E+10	1	-1E+10	1
4902549	41	C	09/25/2021	21:03	-131.922	47.117	0	778.00	0	3.6680	0	34.2290	0	27.212	0	770.089	0	10.6	4	3.3	4	-1E+10	1	-1E+10	1	-1E+10	1	-1E+10	1	-1E+10	1	-1E+10	1
4902549	41	C	09/25/2021	21:03	-131.922	47.117	0	783.00	0	3.6520	0	34.2360	0	27.219	0	775.029	0	10.3	4	3.2	4	-1E+10	1	-1E+10	1	-1E+10	1	-1E+10	1	-1E+10	1	-1E+10	1
4902549	41	C	09/25/2021	21:03	-131.922	47.117	0	788.10	0	3.6420	0	34.2380	0	27.222	0	780.067	0	10.2	4	3.2	4	-1E+10	1	-1E+10	1	-1E+10	1	-1E+10	1	-1E+10	1	-1E+10	1
4902549	41	C	09/25/2021	21:03	-131.922	47.117	0	793.20	0	3.6350	0	34.2410	0	27.225	0	785.106	0	9.9	4	3.1	4	-1E+10	1	-1E+10	1	-1E+10	1	-1E+10	1	-1E+10	1	-1E+10	1
4902549	41	C	09/25/2021	21:03	-131.922	47.117	0	798.30	0	3.6160	0	34.2460	0	27.231	0	790.144	0	9.7	4	3.0	4	-1E+10	1	-1E+10	1	-1E+10	1	-1E+10	1	-1E+10	1	-1E+10	1
4902549	41	C	09/25/2021	21:03	-131.922	47.117	0	802.90	0	3.6090	0	34.2490	0	27.234	0	794.688	0	9.6	4	3.0	4	-1E+10	1	-1E+10	1	-1E+10	1	-1E+10	1	-1E+10	1	-1E+10	1
4902549	41	C	09/25/2021	21:03	-131.922	47.117	0	807.50	0	3.6010	0	34.2510	0	27.236	0	799.233	0	9.5	4	3.0	4	-1E+10	1	-1E+10	1	-1E+10	1	-1E+10	1	-1E+10	1	-1E+10	1
4902549	41	C	09/25/2021	21:03	-131.922	47.117	0	812.60	0	3.5940	0	34.2540	0	27.239	0	804.271	0	9.4	4	3.0	4	-1E+10	1	-1E+10	1	-1E+10	1	-1E+10	1	-1E+10	1	-1E+10	1
4902549	41	C	09/25/2021	21:03	-131.922	47.117	0	817.80	0	3.5770	0	34.2570	0	27.243	0	809.407	0	9.4	4	2.9	4	-1E+10	1	-1E+10	1	-1E+10	1	-1E+10	1	-1E+10	1	-1E+10	1
4902549	41	C	09/25/2021	21:03	-131.922	47.117	0	822.90	0	3.5550	0	34.2610	0	27.249	0	814.445	0	9.3	4	2.9	4	-1E+10	1	-1E+10	1	-1E+10	1	-1E+10	1	-1E+10	1	-1E+10	1
4902549	41	C	09/25/2021	21:03	-131.922	47.117	0	828.10	0	3.5420	0	34.2640	0	27.252	0	819.581	0	9.2	4	2.9	4	-1E+10	1	-1E+10	1	-1E+10	1	-1E+10	1	-1E+10	1	-1E+10	1
4902549	41	C	09/25/2021	21:03	-131.922	47.117	0	833.10	0	3.5310	0	34.2680	0	27.257	0	824.520	0	9.1	4	2.8	4	-1E+10	1	-1E+10	1	-1E+10	1	-1E+10	1	-1E+10	1	-1E+10	1
4902549	41	C	09/25/2021	21:03	-131.922	47.117	0	838.20	0	3.5260	0	34.2690	0	27.258	0	829.557	0	9.1	4	2.8	4	-1E+10	1	-1E+10	1	-1E+10	1	-1E+10	1	-1E+10	1	-1E+10	1
4902549	41	C	09/25/2021	21:03	-131.922	47.117	0	843.30	0	3.5170	0	34.2700	0	27.260	0	834.595	0	9.1	4	2.8	4	-1E+10	1	-1E+10	1	-1E+10	1	-1E+10	1	-1E+10	1	-1E+10	1
4902549	41	C	09/25/2021	21:03	-131.922	47.117	0	848.00	0	3.5070	0	34.2710	0	27.261	0	839.237	0	9.0	4	2.8	4	-1E+10	1	-1E+10	1	-1E+10	1	-1E+10	1	-1E+10	1	-1E+10	1
4902549	41	C	09/25/2021	21:03	-131.922	47.117	0	852.60	0	3.5000	0	34.2740	0	27.264	0	843.780	0	8.8	4	2.8	4	-1E+10	1	-1E+10	1	-1E+10	1	-1E+10	1	-1E+10	1	-1E+10	1
4902549	41	C	09/25/2021	21:03	-131.922	47.117	0	857.90	0	3.4910	0	34.2780	0	27.269	0	849.014	0	8.7	4	2.7	4	-1E+10	1	-1E+10	1	-1E+10	1	-1E+10	1	-1E+10	1	-1E+10	1
4902549	41	C	09/25/2021	21:03	-131.922	47.117	0	862.80	0	3.4780	0	34.2810	0	27.272	0	853.853	0	8.6	4	2.7	4	-1E+10	1	-1E+10	1	-1E+10	1	-1E+10	1	-1E+10	1	-1E+10	1
4902549	41	C	09/25/2021	21:03	-131.922	47.117	0	867.60	0	3.4680	0	34.2850	0	27.276	0	858.594	0	8.5	4	2.6	4	-1E+10	1	-1E+10	1	-1E+10	1	-1E+10	1	-1E+10	1	-1E+10	1
4902549	41	C	09/25/2021	21:03	-131.922	47.117	0	872.90	0	3.4580	0	34.2880	0	27.280	0	863.828	0	8.3	4	2.6	4	-1E+10	1	-1E+10	1	-1E+10	1	-1E+10	1	-1E+10	1	-1E+10	1
4902549	41	C	09/25/2021	21:03	-131.922	47.117	0	878.30	0	3.4490	0	34.2900	0	27.282	0	869.161	0	8.2	4	2.6	4	-1E+10	1	-1E+10	1	-1E+10	1	-1E+10	1	-1E+10	1	-1E+10	1
4902549	41	C	09/25/2021	21:03	-131.922	47.117	0	882.90	0	3.4440	0	34.2920	0	27.284	0	873.703	0	8.1	4	2.5	4	-1E+10	1	-1E+10	1	-1E+10	1	-1E+10	1	-1E+10	1	-1E+10	1
4902549	41	C	09/25/2021	21:03	-131.922	47.117	0	887.60	0	3.4330	0	34.2960	0	27.289	0	878.344	0	7.8	4	2.4	4	-1E+10	1	-1E+10	1	-1E+10	1	-1E+10	1	-1E+10	1	-1E+10	1
4902549	41	C	09/25/2021	21:03	-131.922	47.117	0	892.70	0	3.4200	0	34.3020	0	27.295	0	883.380	0	7.6	4	2.4	4	-1E+10	1	-1E+10	1	-1E+10	1	-1E+10	1	-1E+10	1	-1E+10	1
4902549	41	C	09/25/2021	21:03	-131.922	47.117	0	897.90	0	3.4090	0	34.3050	0	27.298	0	888.515	0	7.4	4	2.3	4	-1E+10	1	-1E+10	1	-1E+10	1	-1E+10	1	-1E+10	1	-1E+10	1
4902549	41	C	09/25/2021	21:03	-131.922	47.117	0	903.10	0	3.3950	0	34.3100	0	27.304	0	893.650	0	7.3	4	2.3	4	-1E+10	1	-1E+10	1	-1E+10	1	-1E+10	1	-1E+10	1	-1E+10	1
4902549	41	C	09/25/2021	21:03	-131.922	47.117	0	908.10	0	3.3860	0	34.3120	0	27.306	0	898.586	0	7.2	4	2.3	4	-1E+10	1	-1E+10	1	-1E+10	1	-1E+10	1	-1E+10	1	-1E+10	1
4902549	41	C	09/25/2021	21:03	-131.922	47.117	0	912.70	0	3.3810	0	34.3140	0	27.308	0	903.128	0	7.2	4	2.2	4	-1E+10	1	-1E+10	1	-1E+10	1	-1E+10	1	-1E+10	1	-1E+10	1
4902549	41	C	09/25/2021	21:03	-131.922	47.117	0	917.80	0	3.3750	0	34.3160	0	27.310	0	908.164	0	7.1	4	2.2	4	-1E+10	1	-1E+10	1	-1E+10	1	-1E+10	1	-1E+10	1	-1E+10	1
4902549	41	C	09/25/2021	21:03	-131.922	47.117	0	923.00	0	3.3640	0	34.3190	0	27.314	0	913.298	0	7.0	4	2.2	4	-1E+10	1	-1E+10	1	-1E+10	1	-1E+10	1	-1E+10	1	-1E+10	1
4902549	41	C	09/25/2021	21:03	-131.922	47.117	0	927.80	0	3.3540	0	34.3220	0	27.317	0	918.037	0	7.0	4	2.2	4	-1E+10	1	-1E+10	1	-1E+10	1	-1E+10	1	-1E+10	1	-1E+10	1
4902549	41	C	09/25/2021	21:03	-131.922	47.117	0	932.60	0	3.3470	0	34.3230	0	27.319	0	922.776	0	6.9	4	2.2	4	-1E+10	1	-1E+10	1	-1E+10	1	-1E+10	1	-1E+10	1	-1E+10	1
4902549	41	C	09/25/2021	21:03	-131.922	47.117	0	937.60	0	3.3430	0	34.3240	0	27.320	0	927.712	0	6.9	4	2.1	4	-1E+10	1	-1E+10	1	-1E+10	1	-1E+10	1	-1E+10	1	-1E+10	1
4902549	41	C	09/25/2021	21:03	-131.922	47.117	0	942.60	0	3.3280	0	34.3270	0	27.324	0	932.648	0	6.8	4	2.1	4	-1E+10	1	-1E+10	1	-1E+10	1	-1E+10	1	-1E+10	1	-1E+10	1
4902549	41	C	09/25/2021	21:03	-131.922	47.117	0	947.70	0	3.3260	0	34.3290	0	27.325	0	937.683	0	6.8	4	2.1	4	-1E+10	1	-1E+10	1	-1E+10	1	-1E+10	1	-1E+10	1	-1E+10	1
4902549	41	C	09/25/2021	21:03	-131.922	47.117	0	952.80	0	3.3220	0	34.3290	0	27.326	0	942.718	0	6.8	4	2.1	4	-1E+10	1	-1E+10	1	-1E+10	1	-1E+10	1	-1E+10	1	-1E+10	1
4902549	41	C	09/25/2021	21:03	-131.922	47.117	0	958.00	0	3.3040	0	34.3340	0	27.332	0	947.851	0	6.7	4	2.1	4	-1E+10	1	-1E+10	1	-1E+10	1	-1E+10	1	-1E+10	1	-1E+10	1
4902549	41	C	09/25/2021	21:03	-131.922	47.117	0	963.20	0	3.2910	0	34.3360	0	27.334	0	952.984	0	6.7	4	2.1	4	-1E+10	1	-1E+10	1	-1E+10	1	-1E+10	1	-1E+10	1	-1E+10	1
4902549	41	C	09/25/2021	21:03	-131.922	47.117	0	968.00	0	3.2880	0	34.3370	0	27.336	0	957.722	0	6.7	4	2.1	4	-1E+10	1	-1E+10	1	-1E+10	1	-1E+10	1	-1E+10	1	-1E+10	1
4902549	41	C	09/25/2021	21:03	-131.922	47.117	0	972.90	0	3.2830	0	34.3380	0	27.337	0	962.559	0	6.8	4	2.1	4	-1E+10	1	-1E+10	1	-1E+10	1	-1E+10	1	-1E+10	1	-1E+10	1
4902549	41	C	09/25/2021	21:03	-131.922	47.117	0	977.70	0	3.2670	0	34.3400	0	27.340	0	967.297	0	6.9	4	2.1	4	-1E+10	1	-1E+10	1	-1E+10	1	-1E+10	1	-1E+10	1	-1E+10	1
4902549	41	C	09/25/2021	21:03	-131.922	47.117	0	982.70	0	3.2460	0	34.3420	0	27.344	0	972.232	0	6.8	4	2.1	4	-1E+10	1	-1E+10	1	-1E+10	1	-1E+10	1	-1E+10	1	-1E+10	1
4902549	41	C	09/25/2021	21:03	-131.922	47.117	0	988.20	0	3.2410	0	34.3430	0	27.345	0	977.660	0	6.8	4	2.1	4	-1E+10	1	-1E+10	1	-1E+10	1	-1E+10	1	-1E+10	1	-1E+10	1
4902549	41	C	09/25/2021	21:03	-131.922	47.117	0	993.20	0	3.2370	0	34.3460	0	27.348	0	982.595	0	6.8	4	2.1	4	-1E+10	1	-1E+10	1	-1E+10	1	-1E+10	1	-1E+10	1	-1E+10	1
4902549	41	C	09/25/2021	21:03	-131.922	47.117	0	998.20	0	3.2320	0	34.3470	0	27.349	0	987.530	0	6.9	4	2.1	4	-1E+10	1	-1E+10	1	-1E+10	1	-1E+10	1	-1E+10	1	-1E+10	1
4902549	41	C	09/25/2021	21:03	-131.922	47.117	0	1005.80	0	3.2120	0	34.3480	0	27.352	0	995.031	0	6.9	4	2.1	4	-1E+10	1	-1E+10	1	-1E+10	1	-1E+10	1	-1E+10	1	-1E+10	1
4902549	41	C	09/25/2021	21:03	-131.922	47.117	0	1015.70	0	3.1940	0	34.3530	0	27.357	0	1004.801	0	6.9	4	2.2	4	-1E+10	1	-1E+10	1	-1E+10	1	-1E+10	1	-1E+10	1	-1E+10	1
4902549	41	C	09/25/2021	21:03	-131.922	47.117	0	1025.30	0	3.1760	0	34.3550	0	27.361	0	1014.275	0	7.0	4	2.2	4	-1E+10	1	-1E+10	1	-1E+10	1	-1E+10	1	-1E+10	1	-1E+10	1
4902549	41	C	09/25/2021	21:03	-131.922	47.117	0	1035.40	0	3.1570	0	34.3580	0	27.365	0	1024.242	0	7.1	4	2.2	4	-1E+10	1	-1E+10	1	-1E+10	1	-1E+10	1	-1E+10	1	-1E+10	1
4902549	41	C	09/25/2021	21:03	-131.922	47.117	0	1045.70	0	3.1410	0	34.3630	0	27.370	0	1034.405	0	7.0	4	2.2	4	-1E+10	1	-1E+10	1	-1E+10	1	-1E+10	1	-1E+10	1	-1E+10	1
4902549	41	C	09/25/2021	21:03	-131.922	47.117	0	1055.70	0	3.1270	0	34.3690	0	27.376	0	1044.272	0	7.0	4	2.2	4	-1E+10	1	-1E+10	1	-1E+10	1	-1E+10	1	-1E+10	1	-1E+10	1
4902549	41	C	09/25/2021	21:03	-131.922	47.117	0	1065.40	0	3.1060	0	34.3730	0	27.382	0	1053.843	0	7.0	4	2.2	4	-1E+10	1	-1E+10	1	-1E+10	1	-1E+10	1	-1E+10	1	-1E+10	1
4902549	41	C	09/25/2021	21:03	-131.922	47.117	0	1075.20	0	3.0950	0	34.3770	0	27.386	0	1063.512	0	7.1	4	2.2	4	-1E+10	1	-1E+10	1	-1E+10	1	-1E+10	1	-1E+10	1	-1E+10	1
4902549	41	C	09/25/2021	21:03	-131.922	47.117	0	1085.30	0	3.0810	0	34.3840	0	27.393	0	1073.476	0	7.1	4	2.2	4	-1E+10	1	-1E+10	1	-1E+10	1	-1E+10	1	-1E+10	1	-1E+10	1
4902549	41	C	09/25/2021	21:03	-131.922	47.117	0	1095.40	0	3.0730	0	34.3900	0	27.398	0	1083.440	0	7.2	4	2.2	4	-1E+10	1	-1E+10	1	-1E+10	1	-1E+10	1	-1E+10	1	-1E+10	1
4902549	41	C	09/25/2021	21:03	-131.922	47.117	0	1105.70	0	3.0670	0	34.3960	0	27.404	0	1093.601	0	7.3	4	2.2	4	-1E+10	1	-1E+10	1	-1E+10	1	-1E+10	1	-1E+10	1	-1E+10	1
4902549	41	C	09/25/2021	21:03	-131.922	47.117	0	1115.70	0	3.0540	0	34.4010	0	27.409	0	1103.465	0	7.4	4	2.3	4	-1E+10	1	-1E+10	1	-1E+10	1	-1E+10	1	-1E+10	1	-1E+10	1
4902549	41	C	09/25/2021	21:03	-131.922	47.117	0	1125.70	0	3.0360	0	34.4040	0	27.413	0	1113.329	0	7.5	4	2.3	4	-1E+10	1	-1E+10	1	-1E+10	1	-1E+10	1	-1E+10	1	-1E+10	1
4902549	41	C	09/25/2021	21:03	-131.922	47.117	0	1135.60	0	3.0100	0	34.4070	0	27.418	0	1123.094	0	7.7	4	2.4	4	-1E+10	1	-1E+10	1	-1E+10	1	-1E+10	1	-1E+10	1	-1E+10	1
4902549	41	C	09/25/2021	21:03	-131.922	47.117	0	1145.40	0	3.0000	0	34.4100	0	27.421	0	1132.760	0	7.8	4	2.4	4	-1E+10	1	-1E+10	1	-1E+10	1	-1E+10	1	-1E+10	1	-1E+10	1
4902549	41	C	09/25/2021	21:03	-131.922	47.117	0	1155.30	0	2.9830	0	34.4130	0	27.425	0	1142.523	0	8.0	4	2.5	4	-1E+10	1	-1E+10	1	-1E+10	1	-1E+10	1	-1E+10	1	-1E+10	1
4902549	41	C	09/25/2021	21:03	-131.922	47.117	0	1165.50	0	2.9720	0	34.4150	0	27.428	0	1152.583	0	8.1	4	2.5	4	-1E+10	1	-1E+10	1	-1E+10	1	-1E+10	1	-1E+10	1	-1E+10	1
4902549	41	C	09/25/2021	21:03	-131.922	47.117	0	1175.20	0	2.9590	0	34.4160	0	27.430	0	1162.148	0	8.2	4	2.5	4	-1E+10	1	-1E+10	1	-1E+10	1	-1E+10	1	-1E+10	1	-1E+10	1
4902549	41	C	09/25/2021	21:03	-131.922	47.117	0	1185.20	0	2.9450	0	34.4180	0	27.433	0	1172.009	0	8.3	4	2.6	4	-1E+10	1	-1E+10	1	-1E+10	1	-1E+10	1	-1E+10	1	-1E+10	1
4902549	41	C	09/25/2021	21:03	-131.922	47.117	0	1195.30	0	2.9330	0	34.4200	0	27.436	0	1181.969	0	8.4	4	2.6	4	-1E+10	1	-1E+10	1	-1E+10	1	-1E+10	1	-1E+10	1	-1E+10	1
4902549	41	C	09/25/2021	21:03	-131.922	47.117	0	1205.40	0	2.9180	0	34.4230	0	27.439	0	1191.927	0	8.6	4	2.6	4	-1E+10	1	-1E+10	1	-1E+10	1	-1E+10	1	-1E+10	1	-1E+10	1
4902549	41	C	09/25/2021	21:03	-131.922	47.117	0	1215.50	0	2.9050	0	34.4240	0	27.441	0	1201.886	0	8.7	4	2.7	4	-1E+10	1	-1E+10	1	-1E+10	1	-1E+10	1	-1E+10	1	-1E+10	1
4902549	41	C	09/25/2021	21:03	-131.922	47.117	0	1225.40	0	2.8970	0	34.4260	0	27.444	0	1211.646	0	8.8	4	2.7	4	-1E+10	1	-1E+10	1	-1E+10	1	-1E+10	1	-1E+10	1	-1E+10	1
4902549	41	C	09/25/2021	21:03	-131.922	47.117	0	1235.40	0	2.8830	0	34.4270	0	27.446	0	1221.505	0	9.0	4	2.8	4	-1E+10	1	-1E+10	1	-1E+10	1	-1E+10	1	-1E+10	1	-1E+10	1
4902549	41	C	09/25/2021	21:03	-131.922	47.117	0	1245.20	0	2.8620	0	34.4300	0	27.450	0	1231.166	0	9.1	4	2.8	4	-1E+10	1	-1E+10	1	-1E+10	1	-1E+10	1	-1E+10	1	-1E+10	1
4902549	41	C	09/25/2021	21:03	-131.922	47.117	0	1255.50	0	2.8560	0	34.4310	0	27.452	0	1241.320	0	9.2	4	2.8	4	-1E+10	1	-1E+10	1	-1E+10	1	-1E+10	1	-1E+10	1	-1E+10	1
4902549	41	C	09/25/2021	21:03	-131.922	47.117	0	1265.50	0	2.8450	0	34.4330	0	27.454	0	1251.177	0	9.4	4	2.9	4	-1E+10	1	-1E+10	1	-1E+10	1	-1E+10	1	-1E+10	1	-1E+10	1
4902549	41	C	09/25/2021	21:03	-131.922	47.117	0	1275.50	0	2.8260	0	34.4360	0	27.458	0	1261.034	0	9.7	4	3.0	4	-1E+10	1	-1E+10	1	-1E+10	1	-1E+10	1	-1E+10	1	-1E+10	1
4902549	41	C	09/25/2021	21:03	-131.922	47.117	0	1285.40	0	2.8100	0	34.4390	0	27.462	0	1270.792	0	10.0	4	3.1	4	-1E+10	1	-1E+10	1	-1E+10	1	-1E+10	1	-1E+10	1	-1E+10	1
4902549	41	C	09/25/2021	21:03	-131.922	47.117	0	1295.60	0	2.7850	0	34.4430	0	27.468	0	1280.845	0	10.3	4	3.2	4	-1E+10	1	-1E+10	1	-1E+10	1	-1E+10	1	-1E+10	1	-1E+10	1
4902549	41	C	09/25/2021	21:03	-131.922	47.117	0	1305.60	0	2.7620	0	34.4480	0	27.474	0	1290.700	0	10.7	4	3.3	4	-1E+10	1	-1E+10	1	-1E+10	1	-1E+10	1	-1E+10	1	-1E+10	1
4902549	41	C	09/25/2021	21:03	-131.922	47.117	0	1315.30	0	2.7460	0	34.4510	0	27.478	0	1300.260	0	11.0	4	3.4	4	-1E+10	1	-1E+10	1	-1E+10	1	-1E+10	1	-1E+10	1	-1E+10	1
4902549	41	C	09/25/2021	21:03	-131.922	47.117	0	1325.00	0	2.7320	0	34.4540	0	27.481	0	1309.819	0	11.4	4	3.5	4	-1E+10	1	-1E+10	1	-1E+10	1	-1E+10	1	-1E+10	1	-1E+10	1
4902549	41	C	09/25/2021	21:03	-131.922	47.117	0	1335.10	0	2.7150	0	34.4570	0	27.485	0	1319.771	0	11.8	4	3.6	4	-1E+10	1	-1E+10	1	-1E+10	1	-1E+10	1	-1E+10	1	-1E+10	1
4902549	41	C	09/25/2021	21:03	-131.922	47.117	0	1345.20	0	2.6950	0	34.4610	0	27.490	0	1329.723	0	12.2	4	3.7	4	-1E+10	1	-1E+10	1	-1E+10	1	-1E+10	1	-1E+10	1	-1E+10	1
4902549	41	C	09/25/2021	21:03	-131.922	47.117	0	1355.50	0	2.6610	0	34.4640	0	27.495	0	1339.872	0	12.6	4	3.9	4	-1E+10	1	-1E+10	1	-1E+10	1	-1E+10	1	-1E+10	1	-1E+10	1
4902549	41	C	09/25/2021	21:03	-131.922	47.117	0	1365.60	0	2.6350	0	34.4670	0	27.500	0	1349.824	0	13.1	4	4.0	4	-1E+10	1	-1E+10	1	-1E+10	1	-1E+10	1	-1E+10	1	-1E+10	1
4902549	41	C	09/25/2021	21:03	-131.922	47.117	0	1375.20	0	2.6210	0	34.4700	0	27.504	0	1359.282	0	13.7	4	4.2	4	-1E+10	1	-1E+10	1	-1E+10	1	-1E+10	1	-1E+10	1	-1E+10	1
4902549	41	C	09/25/2021	21:03	-131.922	47.117	0	1385.20	0	2.6070	0	34.4730	0	27.507	0	1369.133	0	14.2	4	4.3	4	-1E+10	1	-1E+10	1	-1E+10	1	-1E+10	1	-1E+10	1	-1E+10	1
4902549	41	C	09/25/2021	21:03	-131.922	47.117	0	1395.30	0	2.5910	0	34.4770	0	27.512	0	1379.083	0	14.7	4	4.5	4	-1E+10	1	-1E+10	1	-1E+10	1	-1E+10	1	-1E+10	1	-1E+10	1
4902549	41	C	09/25/2021	21:03	-131.922	47.117	0	1405.40	0	2.5800	0	34.4790	0	27.515	0	1389.033	0	15.1	4	4.6	4	-1E+10	1	-1E+10	1	-1E+10	1	-1E+10	1	-1E+10	1	-1E+10	1
4902549	41	C	09/25/2021	21:03	-131.922	47.117	0	1415.40	0	2.5610	0	34.4820	0	27.519	0	1398.883	0	15.6	4	4.8	4	-1E+10	1	-1E+10	1	-1E+10	1	-1E+10	1	-1E+10	1	-1E+10	1
4902549	41	C	09/25/2021	21:03	-131.922	47.117	0	1425.70	0	2.5430	0	34.4850	0	27.523	0	1409.029	0	16.0	4	4.9	4	-1E+10	1	-1E+10	1	-1E+10	1	-1E+10	1	-1E+10	1	-1E+10	1
4902549	41	C	09/25/2021	21:03	-131.922	47.117	0	1435.30	0	2.5360	0	34.4860	0	27.524	0	1418.484	0	16.3	4	5.0	4	-1E+10	1	-1E+10	1	-1E+10	1	-1E+10	1	-1E+10	1	-1E+10	1
4902549	41	C	09/25/2021	21:03	-131.922	47.117	0	1445.00	0	2.5260	0	34.4870	0	27.526	0	1428.038	0	16.7	4	5.1	4	-1E+10	1	-1E+10	1	-1E+10	1	-1E+10	1	-1E+10	1	-1E+10	1
4902549	41	C	09/25/2021	21:03	-131.922	47.117	0	1455.20	0	2.5140	0	34.4890	0	27.528	0	1438.083	0	17.3	4	5.3	4	-1E+10	1	-1E+10	1	-1E+10	1	-1E+10	1	-1E+10	1	-1E+10	1
4902549	41	C	09/25/2021	21:03	-131.922	47.117	0	1465.50	0	2.4960	0	34.4920	0	27.532	0	1448.227	0	18.0	4	5.5	4	-1E+10	1	-1E+10	1	-1E+10	1	-1E+10	1	-1E+10	1	-1E+10	1
4902549	41	C	09/25/2021	21:03	-131.922	47.117	0	1475.60	0	2.4790	0	34.4950	0	27.536	0	1458.173	0	18.6	4	5.7	4	-1E+10	1	-1E+10	1	-1E+10	1	-1E+10	1	-1E+10	1	-1E+10	1
4902549	41	C	09/25/2021	21:03	-131.922	47.117	0	1485.50	0	2.4630	0	34.4980	0	27.540	0	1467.922	0	19.3	4	5.9	4	-1E+10	1	-1E+10	1	-1E+10	1	-1E+10	1	-1E+10	1	-1E+10	1
4902549	41	C	09/25/2021	21:03	-131.922	47.117	0	1495.10	0	2.4520	0	34.5010	0	27.543	0	1477.374	0	19.6	4	6.0	4	-1E+10	1	-1E+10	1	-1E+10	1	-1E+10	1	-1E+10	1	-1E+10	1
4902549	41	C	09/25/2021	21:03	-131.922	47.117	0	1505.30	0	2.4430	0	34.5020	0	27.545	0	1487.418	0	20.0	4	6.1	4	-1E+10	1	-1E+10	1	-1E+10	1	-1E+10	1	-1E+10	1	-1E+10	1
4902549	41	C	09/25/2021	21:03	-131.922	47.117	0	1515.80	0	2.4290	0	34.5040	0	27.548	0	1497.756	0	20.4	4	6.2	4	-1E+10	1	-1E+10	1	-1E+10	1	-1E+10	1	-1E+10	1	-1E+10	1
4902549	41	C	09/25/2021	21:03	-131.922	47.117	0	1525.60	0	2.4220	0	34.5050	0	27.549	0	1507.404	0	20.9	4	6.4	4	-1E+10	1	-1E+10	1	-1E+10	1	-1E+10	1	-1E+10	1	-1E+10	1
4902549	41	C	09/25/2021	21:03	-131.922	47.117	0	1535.50	0	2.4160	0	34.5060	0	27.551	0	1517.151	0	21.3	4	6.5	4	-1E+10	1	-1E+10	1	-1E+10	1	-1E+10	1	-1E+10	1	-1E+10	1
4902549	41	C	09/25/2021	21:03	-131.922	47.117	0	1545.40	0	2.4090	0	34.5090	0	27.554	0	1526.897	0	22.2	4	6.8	4	-1E+10	1	-1E+10	1	-1E+10	1	-1E+10	1	-1E+10	1	-1E+10	1
4902549	41	C	09/25/2021	21:03	-131.922	47.117	0	1555.30	0	2.4000	0	34.5130	0	27.558	0	1536.642	0	23.1	4	7.0	4	-1E+10	1	-1E+10	1	-1E+10	1	-1E+10	1	-1E+10	1	-1E+10	1
4902549	41	C	09/25/2021	21:03	-131.922	47.117	0	1565.30	0	2.3950	0	34.5160	0	27.561	0	1546.486	0	24.0	4	7.3	4	-1E+10	1	-1E+10	1	-1E+10	1	-1E+10	1	-1E+10	1	-1E+10	1
4902549	41	C	09/25/2021	21:03	-131.922	47.117	0	1575.40	0	2.3810	0	34.5190	0	27.564	0	1556.427	0	24.2	4	7.4	4	-1E+10	1	-1E+10	1	-1E+10	1	-1E+10	1	-1E+10	1	-1E+10	1
4902549	41	C	09/25/2021	21:03	-131.922	47.117	0	1585.50	0	2.3630	0	34.5190	0	27.566	0	1566.368	0	24.4	4	7.4	4	-1E+10	1	-1E+10	1	-1E+10	1	-1E+10	1	-1E+10	1	-1E+10	1
4902549	41	C	09/25/2021	21:03	-131.922	47.117	0	1595.20	0	2.3420	0	34.5190	0	27.568	0	1575.915	0	24.5	4	7.4	4	-1E+10	1	-1E+10	1	-1E+10	1	-1E+10	1	-1E+10	1	-1E+10	1
4902549	41	C	09/25/2021	21:03	-131.922	47.117	0	1605.30	0	2.3150	0	34.5200	0	27.571	0	1585.855	0	24.8	4	7.5	4	-1E+10	1	-1E+10	1	-1E+10	1	-1E+10	1	-1E+10	1	-1E+10	1
4902549	41	C	09/25/2021	21:03	-131.922	47.117	0	1615.50	0	2.3020	0	34.5210	0	27.572	0	1595.893	0	25.2	4	7.6	4	-1E+10	1	-1E+10	1	-1E+10	1	-1E+10	1	-1E+10	1	-1E+10	1
4902549	41	C	09/25/2021	21:03	-131.922	47.117	0	1625.50	0	2.2890	0	34.5220	0	27.574	0	1605.734	0	25.6	4	7.8	4	-1E+10	1	-1E+10	1	-1E+10	1	-1E+10	1	-1E+10	1	-1E+10	1
4902549	41	C	09/25/2021	21:03	-131.922	47.117	0	1635.40	0	2.2740	0	34.5240	0	27.577	0	1615.476	0	26.2	4	8.0	4	-1E+10	1	-1E+10	1	-1E+10	1	-1E+10	1	-1E+10	1	-1E+10	1
4902549	41	C	09/25/2021	21:03	-131.922	47.117	0	1645.10	0	2.2660	0	34.5260	0	27.580	0	1625.020	0	27.0	4	8.2	4	-1E+10	1	-1E+10	1	-1E+10	1	-1E+10	1	-1E+10	1	-1E+10	1
4902549	41	C	09/25/2021	21:03	-131.922	47.117	0	1655.30	0	2.2480	0	34.5290	0	27.583	0	1635.057	0	27.7	4	8.4	4	-1E+10	1	-1E+10	1	-1E+10	1	-1E+10	1	-1E+10	1	-1E+10	1
4902549	41	C	09/25/2021	21:03	-131.922	47.117	0	1665.40	0	2.2440	0	34.5310	0	27.585	0	1644.994	0	28.4	4	8.6	4	-1E+10	1	-1E+10	1	-1E+10	1	-1E+10	1	-1E+10	1	-1E+10	1
4902549	41	C	09/25/2021	21:03	-131.922	47.117	0	1675.40	0	2.2200	0	34.5330	0	27.589	0	1654.832	0	29.0	4	8.8	4	-1E+10	1	-1E+10	1	-1E+10	1	-1E+10	1	-1E+10	1	-1E+10	1
4902549	41	C	09/25/2021	21:03	-131.922	47.117	0	1685.30	0	2.2090	0	34.5340	0	27.591	0	1664.572	0	29.5	4	8.9	4	-1E+10	1	-1E+10	1	-1E+10	1	-1E+10	1	-1E+10	1	-1E+10	1
4902549	41	C	09/25/2021	21:03	-131.922	47.117	0	1695.10	0	2.1990	0	34.5360	0	27.593	0	1674.213	0	30.2	4	9.1	4	-1E+10	1	-1E+10	1	-1E+10	1	-1E+10	1	-1E+10	1	-1E+10	1
4902549	41	C	09/25/2021	21:03	-131.922	47.117	0	1705.40	0	2.1910	0	34.5380	0	27.596	0	1684.345	0	31.0	4	9.4	4	-1E+10	1	-1E+10	1	-1E+10	1	-1E+10	1	-1E+10	1	-1E+10	1
4902549	41	C	09/25/2021	21:03	-131.922	47.117	0	1715.60	0	2.1790	0	34.5400	0	27.598	0	1694.378	0	31.9	4	9.6	4	-1E+10	1	-1E+10	1	-1E+10	1	-1E+10	1	-1E+10	1	-1E+10	1
4902549	41	C	09/25/2021	21:03	-131.922	47.117	0	1725.30	0	2.1650	0	34.5430	0	27.602	0	1703.919	0	32.9	4	10.0	4	-1E+10	1	-1E+10	1	-1E+10	1	-1E+10	1	-1E+10	1	-1E+10	1
4902549	41	C	09/25/2021	21:03	-131.922	47.117	0	1735.10	0	2.1540	0	34.5460	0	27.605	0	1713.558	0	33.9	4	10.3	4	-1E+10	1	-1E+10	1	-1E+10	1	-1E+10	1	-1E+10	1	-1E+10	1
4902549	41	C	09/25/2021	21:03	-131.922	47.117	0	1745.40	0	2.1440	0	34.5480	0	27.607	0	1723.689	0	34.7	4	10.5	4	-1E+10	1	-1E+10	1	-1E+10	1	-1E+10	1	-1E+10	1	-1E+10	1
4902549	41	C	09/25/2021	21:03	-131.922	47.117	0	1755.80	0	2.1250	0	34.5500	0	27.611	0	1733.917	0	35.6	4	10.8	4	-1E+10	1	-1E+10	1	-1E+10	1	-1E+10	1	-1E+10	1	-1E+10	1
4902549	41	C	09/25/2021	21:03	-131.922	47.117	0	1765.40	0	2.1100	0	34.5530	0	27.614	0	1743.358	0	36.4	4	11.0	4	-1E+10	1	-1E+10	1	-1E+10	1	-1E+10	1	-1E+10	1	-1E+10	1
4902549	41	C	09/25/2021	21:03	-131.922	47.117	0	1775.30	0	2.1020	0	34.5550	0	27.617	0	1753.093	0	37.0	4	11.2	4	-1E+10	1	-1E+10	1	-1E+10	1	-1E+10	1	-1E+10	1	-1E+10	1
4902549	41	C	09/25/2021	21:03	-131.922	47.117	0	1785.30	0	2.0950	0	34.5560	0	27.618	0	1762.927	0	37.7	4	11.4	4	-1E+10	1	-1E+10	1	-1E+10	1	-1E+10	1	-1E+10	1	-1E+10	1
4902549	41	C	09/25/2021	21:03	-131.922	47.117	0	1795.10	0	2.0920	0	34.5580	0	27.620	0	1772.563	0	38.5	4	11.6	4	-1E+10	1	-1E+10	1	-1E+10	1	-1E+10	1	-1E+10	1	-1E+10	1
4902549	41	C	09/25/2021	21:03	-131.922	47.117	0	1805.30	0	2.0860	0	34.5600	0	27.622	0	1782.592	0	39.5	4	11.9	4	-1E+10	1	-1E+10	1	-1E+10	1	-1E+10	1	-1E+10	1	-1E+10	1
4902549	41	C	09/25/2021	21:03	-131.922	47.117	0	1815.50	0	2.0720	0	34.5630	0	27.626	0	1792.621	0	40.7	4	12.3	4	-1E+10	1	-1E+10	1	-1E+10	1	-1E+10	1	-1E+10	1	-1E+10	1
4902549	41	C	09/25/2021	21:03	-131.922	47.117	0	1825.50	0	2.0550	0	34.5650	0	27.629	0	1802.453	0	41.8	4	12.6	4	-1E+10	1	-1E+10	1	-1E+10	1	-1E+10	1	-1E+10	1	-1E+10	1
4902549	41	C	09/25/2021	21:03	-131.922	47.117	0	1835.40	0	2.0460	0	34.5680	0	27.632	0	1812.185	0	42.6	4	12.9	4	-1E+10	1	-1E+10	1	-1E+10	1	-1E+10	1	-1E+10	1	-1E+10	1
4902549	41	C	09/25/2021	21:03	-131.922	47.117	0	1845.60	0	2.0370	0	34.5700	0	27.634	0	1822.213	0	43.3	4	13.1	4	-1E+10	1	-1E+10	1	-1E+10	1	-1E+10	1	-1E+10	1	-1E+10	1
4902549	41	C	09/25/2021	21:03	-131.922	47.117	0	1855.80	0	2.0290	0	34.5710	0	27.636	0	1832.240	0	43.8	4	13.2	4	-1E+10	1	-1E+10	1	-1E+10	1	-1E+10	1	-1E+10	1	-1E+10	1
4902549	41	C	09/25/2021	21:03	-131.922	47.117	0	1865.30	0	2.0220	0	34.5720	0	27.637	0	1841.578	0	44.3	4	13.3	4	-1E+10	1	-1E+10	1	-1E+10	1	-1E+10	1	-1E+10	1	-1E+10	1
4902549	41	C	09/25/2021	21:03	-131.922	47.117	0	1875.30	0	2.0150	0	34.5730	0	27.638	0	1851.407	0	45.0	4	13.6	4	-1E+10	1	-1E+10	1	-1E+10	1	-1E+10	1	-1E+10	1	-1E+10	1
4902549	41	C	09/25/2021	21:03	-131.922	47.117	0	1885.40	0	2.0060	0	34.5740	0	27.640	0	1861.334	0	45.6	4	13.7	4	-1E+10	1	-1E+10	1	-1E+10	1	-1E+10	1	-1E+10	1	-1E+10	1
4902549	41	C	09/25/2021	21:03	-131.922	47.117	0	1895.30	0	1.9990	0	34.5760	0	27.642	0	1871.064	0	46.0	4	13.9	4	-1E+10	1	-1E+10	1	-1E+10	1	-1E+10	1	-1E+10	1	-1E+10	1
4902549	41	C	09/25/2021	21:03	-131.922	47.117	0	1905.20	0	1.9950	0	34.5760	0	27.642	0	1880.794	0	46.4	4	14.0	4	-1E+10	1	-1E+10	1	-1E+10	1	-1E+10	1	-1E+10	1	-1E+10	1
4902549	41	C	09/25/2021	21:03	-131.922	47.117	0	1915.40	0	1.9900	0	34.5770	0	27.644	0	1890.818	0	46.8	4	14.1	4	-1E+10	1	-1E+10	1	-1E+10	1	-1E+10	1	-1E+10	1	-1E+10	1
4902549	41	C	09/25/2021	21:03	-131.922	47.117	0	1925.50	0	1.9850	0	34.5780	0	27.645	0	1900.743	0	47.2	4	14.2	4	-1E+10	1	-1E+10	1	-1E+10	1	-1E+10	1	-1E+10	1	-1E+10	1
4902549	41	C	09/25/2021	21:03	-131.922	47.117	0	1935.60	0	1.9770	0	34.5790	0	27.646	0	1910.668	0	47.8	4	14.4	4	-1E+10	1	-1E+10	1	-1E+10	1	-1E+10	1	-1E+10	1	-1E+10	1
4902549	41	C	09/25/2021	21:03	-131.922	47.117	0	1945.30	0	1.9700	0	34.5800	0	27.648	0	1920.200	0	48.5	4	14.6	4	-1E+10	1	-1E+10	1	-1E+10	1	-1E+10	1	-1E+10	1	-1E+10	1
4902549	41	C	09/25/2021	21:03	-131.922	47.117	0	1955.40	0	1.9600	0	34.5820	0	27.650	0	1930.124	0	49.1	4	14.8	4	-1E+10	1	-1E+10	1	-1E+10	1	-1E+10	1	-1E+10	1	-1E+10	1
4902549	41	C	09/25/2021	21:03	-131.922	47.117	0	1965.70	0	1.9510	0	34.5840	0	27.653	0	1940.243	0	49.7	4	15.0	4	-1E+10	1	-1E+10	1	-1E+10	1	-1E+10	1	-1E+10	1	-1E+10	1
4902549	41	C	09/25/2021	21:03	-131.922	47.117	0	1975.80	0	1.9450	0	34.5850	0	27.654	0	1950.167	0	50.0	4	15.1	4	-1E+10	1	-1E+10	1	-1E+10	1	-1E+10	1	-1E+10	1	-1E+10	1
4902549	41	C	09/25/2021	21:03	-131.922	47.117	0	1985.60	0	1.9410	0	34.5860	0	27.655	0	1959.794	0	50.2	4	15.1	4	-1E+10	1	-1E+10	1	-1E+10	1	-1E+10	1	-1E+10	1	-1E+10	1
4902549	41	C	09/25/2021	21:03	-131.922	47.117	0	1995.70	0	1.9370	0	34.5860	0	27.655	0	1969.716	0	50.2	4	15.1	4	-1E+10	1	-1E+10	1	-1E+10	1	-1E+10	1	-1E+10	1	-1E+10	1
4902549	41	C	09/25/2021	21:03	-131.922	47.117	0	2000.90	0	1.9360	0	34.5870	0	27.656	0	1974.825	0	49.8	4	15.0	4	-1E+10	1	-1E+10	1	-1E+10	1	-1E+10	1	-1E+10	1	-1E+10	1
4902549	41	C	09/25/2021	21:03	-131.922	47.117	0																										
4902549	42	C	10/06/2021	01:51	-131.875	47.101	0	0.10	0	14.8590	0	32.2970	0	23.920	0	0.099	0	242.2	4	95.7	4	-1E+10	1	-1E+10	1	-1E+10	1	-1E+10	1	-1E+10	1	-1E+10	1
4902549	42	C	10/06/2021	01:51	-131.875	47.101	0	0.80	0	14.8600	0	32.2930	0	23.917	0	0.793	0	242.1	4	95.6	4	-1E+10	1	-1E+10	1	-1E+10	1	-1E+10	1	-1E+10	1	-1E+10	1
4902549	42	C	10/06/2021	01:51	-131.875	47.101	0	2.00	0	14.8550	0	32.3020	0	23.925	0	1.983	0	242.0	4	95.6	4	-1E+10	1	-1E+10	1	-1E+10	1	-1E+10	1	-1E+10	1	-1E+10	1
4902549	42	C	10/06/2021	01:51	-131.875	47.101	0	2.70	0	14.8620	0	32.2980	0	23.920	0	2.678	0	241.9	4	95.6	4	-1E+10	1	-1E+10	1	-1E+10	1	-1E+10	1	-1E+10	1	-1E+10	1
4902549	42	C	10/06/2021	01:51	-131.875	47.101	0	3.60	0	14.8660	0	32.2960	0	23.918	0	3.570	0	242.0	4	95.6	4	-1E+10	1	-1E+10	1	-1E+10	1	-1E+10	1	-1E+10	1	-1E+10	1
4902549	42	C	10/06/2021	01:51	-131.875	47.101	0	4.60	0	14.8660	0	32.2960	0	23.918	0	4.562	0	241.9	4	95.6	4	-1E+10	1	-1E+10	1	-1E+10	1	-1E+10	1	-1E+10	1	-1E+10	1
4902549	42	C	10/06/2021	01:51	-131.875	47.101	0	5.90	0	14.8670	0	32.2960	0	23.918	0	5.851	0	242.0	4	95.6	4	-1E+10	1	-1E+10	1	-1E+10	1	-1E+10	1	-1E+10	1	-1E+10	1
4902549	42	C	10/06/2021	01:51	-131.875	47.101	0	7.40	0	14.8670	0	32.2970	0	23.918	0	7.338	0	242.1	4	95.6	4	-1E+10	1	-1E+10	1	-1E+10	1	-1E+10	1	-1E+10	1	-1E+10	1
4902549	42	C	10/06/2021	01:51	-131.875	47.101	0	9.00	0	14.8670	0	32.2960	0	23.918	0	8.925	0	242.0	4	95.6	4	-1E+10	1	-1E+10	1	-1E+10	1	-1E+10	1	-1E+10	1	-1E+10	1
4902549	42	C	10/06/2021	01:51	-131.875	47.101	0	10.20	0	14.8680	0	32.2960	0	23.918	0	10.115	0	242.0	4	95.6	4	-1E+10	1	-1E+10	1	-1E+10	1	-1E+10	1	-1E+10	1	-1E+10	1
4902549	42	C	10/06/2021	01:51	-131.875	47.101	0	11.10	0	14.8680	0	32.2970	0	23.918	0	11.007	0	242.0	4	95.6	4	-1E+10	1	-1E+10	1	-1E+10	1	-1E+10	1	-1E+10	1	-1E+10	1
4902549	42	C	10/06/2021	01:51	-131.875	47.101	0	12.20	0	14.8690	0	32.2960	0	23.917	0	12.098	0	241.9	4	95.6	4	-1E+10	1	-1E+10	1	-1E+10	1	-1E+10	1	-1E+10	1	-1E+10	1
4902549	42	C	10/06/2021	01:51	-131.875	47.101	0	13.00	0	14.8690	0	32.2960	0	23.917	0	12.892	0	241.9	4	95.6	4	-1E+10	1	-1E+10	1	-1E+10	1	-1E+10	1	-1E+10	1	-1E+10	1
4902549	42	C	10/06/2021	01:51	-131.875	47.101	0	14.10	0	14.8690	0	32.2960	0	23.917	0	13.982	0	242.0	4	95.6	4	-1E+10	1	-1E+10	1	-1E+10	1	-1E+10	1	-1E+10	1	-1E+10	1
4902549	42	C	10/06/2021	01:51	-131.875	47.101	0	14.90	0	14.8690	0	32.2970	0	23.918	0	14.776	0	242.0	4	95.6	4	-1E+10	1	-1E+10	1	-1E+10	1	-1E+10	1	-1E+10	1	-1E+10	1
4902549	42	C	10/06/2021	01:51	-131.875	47.101	0	15.90	0	14.8690	0	32.2960	0	23.917	0	15.767	0	242.1	4	95.6	4	-1E+10	1	-1E+10	1	-1E+10	1	-1E+10	1	-1E+10	1	-1E+10	1
4902549	42	C	10/06/2021	01:51	-131.875	47.101	0	16.90	0	14.8680	0	32.2970	0	23.918	0	16.759	0	242.0	4	95.6	4	-1E+10	1	-1E+10	1	-1E+10	1	-1E+10	1	-1E+10	1	-1E+10	1
4902549	42	C	10/06/2021	01:51	-131.875	47.101	0	18.00	0	14.8680	0	32.2960	0	23.918	0	17.850	0	242.1	4	95.6	4	-1E+10	1	-1E+10	1	-1E+10	1	-1E+10	1	-1E+10	1	-1E+10	1
4902549	42	C	10/06/2021	01:51	-131.875	47.101	0	18.80	0	14.8670	0	32.2970	0	23.919	0	18.643	0	242.1	4	95.6	4	-1E+10	1	-1E+10	1	-1E+10	1	-1E+10	1	-1E+10	1	-1E+10	1
4902549	42	C	10/06/2021	01:51	-131.875	47.101	0	19.90	0	14.8670	0	32.2960	0	23.918	0	19.734	0	242.1	4	95.6	4	-1E+10	1	-1E+10	1	-1E+10	1	-1E+10	1	-1E+10	1	-1E+10	1
4902549	42	C	10/06/2021	01:51	-131.875	47.101	0	21.00	0	14.8690	0	32.2980	0	23.919	0	20.824	0	242.0	4	95.6	4	-1E+10	1	-1E+10	1	-1E+10	1	-1E+10	1	-1E+10	1	-1E+10	1
4902549	42	C	10/06/2021	01:51	-131.875	47.101	0	21.80	0	14.8710	0	32.2960	0	23.917	0	21.618	0	242.1	4	95.6	4	-1E+10	1	-1E+10	1	-1E+10	1	-1E+10	1	-1E+10	1	-1E+10	1
4902549	42	C	10/06/2021	01:51	-131.875	47.101	0	22.90	0	14.8710	0	32.2970	0	23.918	0	22.708	0	242.1	4	95.7	4	-1E+10	1	-1E+10	1	-1E+10	1	-1E+10	1	-1E+10	1	-1E+10	1
4902549	42	C	10/06/2021	01:51	-131.875	47.101	0	24.10	0	14.8720	0	32.2960	0	23.917	0	23.898	0	242.2	4	95.7	4	-1E+10	1	-1E+10	1	-1E+10	1	-1E+10	1	-1E+10	1	-1E+10	1
4902549	42	C	10/06/2021	01:51	-131.875	47.101	0	24.80	0	14.8710	0	32.2960	0	23.917	0	24.592	0	242.2	4	95.7	4	-1E+10	1	-1E+10	1	-1E+10	1	-1E+10	1	-1E+10	1	-1E+10	1
4902549	42	C	10/06/2021	01:51	-131.875	47.101	0	25.90	0	14.8690	0	32.2950	0	23.917	0	25.683	0	242.3	4	95.7	4	-1E+10	1	-1E+10	1	-1E+10	1	-1E+10	1	-1E+10	1	-1E+10	1
4902549	42	C	10/06/2021	01:51	-131.875	47.101	0	27.00	0	14.8590	0	32.2970	0	23.921	0	26.774	0	242.4	4	95.8	4	-1E+10	1	-1E+10	1	-1E+10	1	-1E+10	1	-1E+10	1	-1E+10	1
4902549	42	C	10/06/2021	01:51	-131.875	47.101	0	27.80	0	14.8570	0	32.2970	0	23.921	0	27.567	0	242.3	4	95.7	4	-1E+10	1	-1E+10	1	-1E+10	1	-1E+10	1	-1E+10	1	-1E+10	1
4902549	42	C	10/06/2021	01:51	-131.875	47.101	0	28.60	0	14.8530	0	32.2970	0	23.922	0	28.360	0	242.5	4	95.8	4	-1E+10	1	-1E+10	1	-1E+10	1	-1E+10	1	-1E+10	1	-1E+10	1
4902549	42	C	10/06/2021	01:51	-131.875	47.101	0	29.90	0	14.8500	0	32.2970	0	23.923	0	29.649	0	242.6	4	95.8	4	-1E+10	1	-1E+10	1	-1E+10	1	-1E+10	1	-1E+10	1	-1E+10	1
4902549	42	C	10/06/2021	01:51	-131.875	47.101	0	31.30	0	14.8460	0	32.2990	0	23.925	0	31.038	0	242.6	4	95.8	4	-1E+10	1	-1E+10	1	-1E+10	1	-1E+10	1	-1E+10	1	-1E+10	1
4902549	42	C	10/06/2021	01:51	-131.875	47.101	0	32.20	0	14.8470	0	32.2980	0	23.924	0	31.930	0	242.7	4	95.8	4	-1E+10	1	-1E+10	1	-1E+10	1	-1E+10	1	-1E+10	1	-1E+10	1
4902549	42	C	10/06/2021	01:51	-131.875	47.101	0	33.10	0	14.8480	0	32.2880	0	23.916	0	32.822	0	242.8	4	95.9	4	-1E+10	1	-1E+10	1	-1E+10	1	-1E+10	1	-1E+10	1	-1E+10	1
4902549	42	C	10/06/2021	01:51	-131.875	47.101	0	34.00	0	14.8800	0	32.2960	0	23.916	0	33.715	0	242.7	4	95.9	4	-1E+10	1	-1E+10	1	-1E+10	1	-1E+10	1	-1E+10	1	-1E+10	1
4902549	42	C	10/06/2021	01:51	-131.875	47.101	0	35.00	0	14.8780	0	32.2950	0	23.915	0	34.706	0	242.8	4	95.9	4	-1E+10	1	-1E+10	1	-1E+10	1	-1E+10	1	-1E+10	1	-1E+10	1
4902549	42	C	10/06/2021	01:51	-131.875	47.101	0	35.80	0	14.8740	0	32.2950	0	23.916	0	35.499	0	243.1	4	96.0	4	-1E+10	1	-1E+10	1	-1E+10	1	-1E+10	1	-1E+10	1	-1E+10	1
4902549	42	C	10/06/2021	01:51	-131.875	47.101	0	37.00	0	14.8510	0	32.3070	0	23.930	0	36.689	0	243.2	4	96.1	4	-1E+10	1	-1E+10	1	-1E+10	1	-1E+10	1	-1E+10	1	-1E+10	1
4902549	42	C	10/06/2021	01:51	-131.875	47.101	0	38.10	0	14.8310	0	32.2970	0	23.927	0	37.780	0	243.6	4	96.2	4	-1E+10	1	-1E+10	1	-1E+10	1	-1E+10	1	-1E+10	1	-1E+10	1
4902549	42	C	10/06/2021	01:51	-131.875	47.101	0	38.80	0	14.8170	0	32.2980	0	23.931	0	38.474	0	243.8	4	96.2	4	-1E+10	1	-1E+10	1	-1E+10	1	-1E+10	1	-1E+10	1	-1E+10	1
4902549	42	C	10/06/2021	01:51	-131.875	47.101	0	39.80	0	14.8290	0	32.2990	0	23.929	0	39.465	0	244.1	4	96.4	4	-1E+10	1	-1E+10	1	-1E+10	1	-1E+10	1	-1E+10	1	-1E+10	1
4902549	42	C	10/06/2021	01:51	-131.875	47.101	0	41.00	0	14.8230	0	32.2960	0	23.928	0	40.655	0	244.6	4	96.6	4	-1E+10	1	-1E+10	1	-1E+10	1	-1E+10	1	-1E+10	1	-1E+10	1
4902549	42	C	10/06/2021	01:51	-131.875	47.101	0	42.00	0	14.8300	0	32.2980	0	23.928	0	41.647	0	245.0	4	96.7	4	-1E+10	1	-1E+10	1	-1E+10	1	-1E+10	1	-1E+10	1	-1E+10	1
4902549	42	C	10/06/2021	01:51	-131.875	47.101	0	42.90	0	14.8010	0	32.3010	0	23.937	0	42.539	0	245.6	4	96.9	4	-1E+10	1	-1E+10	1	-1E+10	1	-1E+10	1	-1E+10	1	-1E+10	1
4902549	42	C	10/06/2021	01:51	-131.875	47.101	0	44.30	0	14.7240	0	32.3010	0	23.953	0	43.927	0	246.8	4	97.2	4	-1E+10	1	-1E+10	1	-1E+10	1	-1E+10	1	-1E+10	1	-1E+10	1
4902549	42	C	10/06/2021	01:51	-131.875	47.101	0	45.10	0	14.6230	0	32.3080	0	23.980	0	44.720	0	251.3	4	98.8	4	-1E+10	1	-1E+10	1	-1E+10	1	-1E+10	1	-1E+10	1	-1E+10	1
4902549	42	C	10/06/2021	01:51	-131.875	47.101	0	45.90	0	14.3520	0	32.2980	0	24.029	0	45.514	0	256.3	4	100.2	4	-1E+10	1	-1E+10	1	-1E+10	1	-1E+10	1	-1E+10	1	-1E+10	1
4902549	42	C	10/06/2021	01:51	-131.875	47.101	0	47.00	0	13.5220	0	32.3270	0	24.221	0	46.604	0	264.8	4	101.9	4	-1E+10	1	-1E+10	1	-1E+10	1	-1E+10	1	-1E+10	1	-1E+10	1
4902549	42	C	10/06/2021	01:51	-131.875	47.101	0	48.00	0	12.4560	0	32.3260	0	24.429	0	47.596	0	271.4	4	102.1	4	-1E+10	1	-1E+10	1	-1E+10	1	-1E+10	1	-1E+10	1	-1E+10	1
4902549	42	C	10/06/2021	01:51	-131.875	47.101	0	49.00	0	11.7180	0	32.3760	0	24.605	0	48.587	0	274.6	4	101.8	4	-1E+10	1	-1E+10	1	-1E+10	1	-1E+10	1	-1E+10	1	-1E+10	1
4902549	42	C	10/06/2021	01:51	-131.875	47.101	0	50.10	0	11.2580	0	32.3950	0	24.703	0	49.678	0	274.7	4	100.8	4	-1E+10	1	-1E+10	1	-1E+10	1	-1E+10	1	-1E+10	1	-1E+10	1
4902549	42	C	10/06/2021	01:51	-131.875	47.101	0	50.90	0	10.9170	0	32.4000	0	24.768	0	50.471	0	274.6	4	100.1	4	-1E+10	1	-1E+10	1	-1E+10	1	-1E+10	1	-1E+10	1	-1E+10	1
4902549	42	C	10/06/2021	01:51	-131.875	47.101	0	52.00	0	10.6510	0	32.4060	0	24.818	0	51.561	0	273.3	4	99.0	4	-1E+10	1	-1E+10	1	-1E+10	1	-1E+10	1	-1E+10	1	-1E+10	1
4902549	42	C	10/06/2021	01:51	-131.875	47.101	0	53.10	0	10.4720	0	32.4120	0	24.854	0	52.652	0	271.9	4	98.2	4	-1E+10	1	-1E+10	1	-1E+10	1	-1E+10	1	-1E+10	1	-1E+10	1
4902549	42	C	10/06/2021	01:51	-131.875	47.101	0	53.90	0	10.3660	0	32.4140	0	24.873	0	53.445	0	270.7	4	97.5	4	-1E+10	1	-1E+10	1	-1E+10	1	-1E+10	1	-1E+10	1	-1E+10	1
4902549	42	C	10/06/2021	01:51	-131.875	47.101	0	55.00	0	10.2370	0	32.4130	0	24.894	0	54.536	0	269.2	4	96.7	4	-1E+10	1	-1E+10	1	-1E+10	1	-1E+10	1	-1E+10	1	-1E+10	1
4902549	42	C	10/06/2021	01:51	-131.875	47.101	0	56.00	0	10.0670	0	32.4220	0	24.930	0	55.527	0	268.6	4	96.2	4	-1E+10	1	-1E+10	1	-1E+10	1	-1E+10	1	-1E+10	1	-1E+10	1
4902549	42	C	10/06/2021	01:51	-131.875	47.101	0	57.10	0	9.8720	0	32.4270	0	24.966	0	56.618	0	268.1	4	95.6	4	-1E+10	1	-1E+10	1	-1E+10	1	-1E+10	1	-1E+10	1	-1E+10	1
4902549	42	C	10/06/2021	01:51	-131.875	47.101	0	58.00	0	9.7640	0	32.4250	0	24.982	0	57.510	0	267.5	4	95.1	4	-1E+10	1	-1E+10	1	-1E+10	1	-1E+10	1	-1E+10	1	-1E+10	1
4902549	42	C	10/06/2021	01:51	-131.875	47.101	0	58.90	0	9.6750	0	32.4230	0	24.995	0	58.402	0	267.0	4	94.8	4	-1E+10	1	-1E+10	1	-1E+10	1	-1E+10	1	-1E+10	1	-1E+10	1
4902549	42	C	10/06/2021	01:51	-131.875	47.101	0	59.90	0	9.6140	0	32.4220	0	25.004	0	59.394	0	266.4	4	94.4	4	-1E+10	1	-1E+10	1	-1E+10	1	-1E+10	1	-1E+10	1	-1E+10	1
4902549	42	C	10/06/2021	01:51	-131.875	47.101	0	60.80	0	9.5040	0	32.4250	0	25.024	0	60.286	0	266.1	4	94.1	4	-1E+10	1	-1E+10	1	-1E+10	1	-1E+10	1	-1E+10	1	-1E+10	1
4902549	42	C	10/06/2021	01:51	-131.875	47.101	0	61.90	0	9.3680	0	32.4290	0	25.049	0	61.376	0	266.2	4	93.9	4	-1E+10	1	-1E+10	1	-1E+10	1	-1E+10	1	-1E+10	1	-1E+10	1
4902549	42	C	10/06/2021	01:51	-131.875	47.101	0	63.10	0	9.3060	0	32.4280	0	25.058	0	62.566	0	266.0	4	93.7	4	-1E+10	1	-1E+10	1	-1E+10	1	-1E+10	1	-1E+10	1	-1E+10	1
4902549	42	C	10/06/2021	01:51	-131.875	47.101	0	64.10	0	9.1890	0	32.4350	0	25.082	0	63.557	0	265.9	4	93.4	4	-1E+10	1	-1E+10	1	-1E+10	1	-1E+10	1	-1E+10	1	-1E+10	1
4902549	42	C	10/06/2021	01:51	-131.875	47.101	0	64.90	0	9.1290	0	32.4360	0	25.092	0	64.351	0	265.3	4	93.0	4	-1E+10	1	-1E+10	1	-1E+10	1	-1E+10	1	-1E+10	1	-1E+10	1
4902549	42	C	10/06/2021	01:51	-131.875	47.101	0	66.00	0	9.0260	0	32.4430	0	25.114	0	65.441	0	264.4	4	92.6	4	-1E+10	1	-1E+10	1	-1E+10	1	-1E+10	1	-1E+10	1	-1E+10	1
4902549	42	C	10/06/2021	01:51	-131.875	47.101	0	66.90	0	8.9460	0	32.4460	0	25.128	0	66.333	0	264.0	4	92.2	4	-1E+10	1	-1E+10	1	-1E+10	1	-1E+10	1	-1E+10	1	-1E+10	1
4902549	42	C	10/06/2021	01:51	-131.875	47.101	0	67.90	0	8.8870	0	32.4490	0	25.140	0	67.325	0	263.4	4	91.9	4	-1E+10	1	-1E+10	1	-1E+10	1	-1E+10	1	-1E+10	1	-1E+10	1
4902549	42	C	10/06/2021	01:51	-131.875	47.101	0	69.00	0	8.8450	0	32.4530	0	25.150	0	68.415	0	262.7	4	91.6	4	-1E+10	1	-1E+10	1	-1E+10	1	-1E+10	1	-1E+10	1	-1E+10	1
4902549	42	C	10/06/2021	01:51	-131.875	47.101	0	69.80	0	8.8080	0	32.4520	0	25.154	0	69.208	0	262.1	4	91.3	4	-1E+10	1	-1E+10	1	-1E+10	1	-1E+10	1	-1E+10	1	-1E+10	1
4902549	42	C	10/06/2021	01:51	-131.875	47.101	0	70.90	0	8.7240	0	32.4550	0	25.170	0	70.299	0	261.6	4	91.0	4	-1E+10	1	-1E+10	1	-1E+10	1	-1E+10	1	-1E+10	1	-1E+10	1
4902549	42	C	10/06/2021	01:51	-131.875	47.101	0	71.90	0	8.6430	0	32.4570	0	25.183	0	71.290	0	261.3	4	90.7	4	-1E+10	1	-1E+10	1	-1E+10	1	-1E+10	1	-1E+10	1	-1E+10	1
4902549	42	C	10/06/2021	01:51	-131.875	47.101	0	72.90	0	8.6040	0	32.4590	0	25.191	0	72.281	0	260.8	4	90.5	4	-1E+10	1	-1E+10	1	-1E+10	1	-1E+10	1	-1E+10	1	-1E+10	1
4902549	42	C	10/06/2021	01:51	-131.875	47.101	0	74.10	0	8.5600	0	32.4630	0	25.201	0	73.471	0	260.4	4	90.2	4	-1E+10	1	-1E+10	1	-1E+10	1	-1E+10	1	-1E+10	1	-1E+10	1
4902549	42	C	10/06/2021	01:51	-131.875	47.101	0	74.90	0	8.5600	0	32.4640	0	25.202	0	74.264	0	259.8	4	90.0	4	-1E+10	1	-1E+10	1	-1E+10	1	-1E+10	1	-1E+10	1	-1E+10	1
4902549	42	C	10/06/2021	01:51	-131.875	47.101	0	76.10	0	8.4960	0	32.4730	0	25.218	0	75.454	0	259.4	4	89.8	4	-1E+10	1	-1E+10	1	-1E+10	1	-1E+10	1	-1E+10	1	-1E+10	1
4902549	42	C	10/06/2021	01:51	-131.875	47.101	0	76.90	0	8.4590	0	32.4750	0	25.225	0	76.247	0	259.1	4	89.6	4	-1E+10	1	-1E+10	1	-1E+10	1	-1E+10	1	-1E+10	1	-1E+10	1
4902549	42	C	10/06/2021	01:51	-131.875	47.101	0	78.10	0	8.4120	0	32.4770	0	25.234	0	77.436	0	258.5	4	89.3	4	-1E+10	1	-1E+10	1	-1E+10	1	-1E+10	1	-1E+10	1	-1E+10	1
4902549	42	C	10/06/2021	01:51	-131.875	47.101	0	78.80	0	8.3740	0	32.4830	0	25.244	0	78.130	0	258.2	4	89.1	4	-1E+10	1	-1E+10	1	-1E+10	1	-1E+10	1	-1E+10	1	-1E+10	1
4902549	42	C	10/06/2021	01:51	-131.875	47.101	0	79.90	0	8.3610	0	32.4870	0	25.249	0	79.221	0	257.3	4	88.8	4	-1E+10	1	-1E+10	1	-1E+10	1	-1E+10	1	-1E+10	1	-1E+10	1
4902549	42	C	10/06/2021	01:51	-131.875	47.101	0	81.00	0	8.3110	0	32.5000	0	25.267	0	80.311	0	256.8	4	88.5	4	-1E+10	1	-1E+10	1	-1E+10	1	-1E+10	1	-1E+10	1	-1E+10	1
4902549	42	C	10/06/2021	01:51	-131.875	47.101	0	82.20	0	8.2480	0	32.5060	0	25.281	0	81.501	0	256.6	4	88.3	4	-1E+10	1	-1E+10	1	-1E+10	1	-1E+10	1	-1E+10	1	-1E+10	1
4902549	42	C	10/06/2021	01:51	-131.875	47.101	0	82.90	0	8.2190	0	32.5010	0	25.281	0	82.195	0	256.4	4	88.2	4	-1E+10	1	-1E+10	1	-1E+10	1	-1E+10	1	-1E+10	1	-1E+10	1
4902549	42	C	10/06/2021	01:51	-131.875	47.101	0	84.00	0	8.2060	0	32.5090	0	25.289	0	83.285	0	255.7	4	87.9	4	-1E+10	1	-1E+10	1	-1E+10	1	-1E+10	1	-1E+10	1	-1E+10	1
4902549	42	C	10/06/2021	01:51	-131.875	47.101	0	85.20	0	8.1550	0	32.5070	0	25.295	0	84.475	0	255.3	4	87.7	4	-1E+10	1	-1E+10	1	-1E+10	1	-1E+10	1	-1E+10	1	-1E+10	1
4902549	42	C	10/06/2021	01:51	-131.875	47.101	0	86.00	0	8.1250	0	32.5140	0	25.305	0	85.268	0	255.2	4	87.6	4	-1E+10	1	-1E+10	1	-1E+10	1	-1E+10	1	-1E+10	1	-1E+10	1
4902549	42	C	10/06/2021	01:51	-131.875	47.101	0	87.00	0	8.0600	0	32.5230	0	25.322	0	86.259	0	254.9	4	87.4	4	-1E+10	1	-1E+10	1	-1E+10	1	-1E+10	1	-1E+10	1	-1E+10	1
4902549	42	C	10/06/2021	01:51	-131.875	47.101	0	88.20	0	8.0260	0	32.5250	0	25.328	0	87.448	0	254.7	4	87.2	4	-1E+10	1	-1E+10	1	-1E+10	1	-1E+10	1	-1E+10	1	-1E+10	1
4902549	42	C	10/06/2021	01:51	-131.875	47.101	0	89.10	0	7.9580	0	32.5320	0	25.344	0	88.341	0	254.8	4	87.1	4	-1E+10	1	-1E+10	1	-1E+10	1	-1E+10	1	-1E+10	1	-1E+10	1
4902549	42	C	10/06/2021	01:51	-131.875	47.101	0	89.90	0	7.9100	0	32.5350	0	25.353	0	89.134	0	254.8	4	87.0	4	-1E+10	1	-1E+10	1	-1E+10	1	-1E+10	1	-1E+10	1	-1E+10	1
4902549	42	C	10/06/2021	01:51	-131.875	47.101	0	91.00	0	7.8730	0	32.5350	0	25.358	0	90.224	0	254.7	4	86.9	4	-1E+10	1	-1E+10	1	-1E+10	1	-1E+10	1	-1E+10	1	-1E+10	1
4902549	42	C	10/06/2021	01:51	-131.875	47.101	0	92.10	0	7.8480	0	32.5350	0	25.362	0	91.314	0	254.4	4	86.8	4	-1E+10	1	-1E+10	1	-1E+10	1	-1E+10	1	-1E+10	1	-1E+10	1
4902549	42	C	10/06/2021	01:51	-131.875	47.101	0	93.00	0	7.8430	0	32.5360	0	25.363	0	92.206	0	254.1	4	86.7	4	-1E+10	1	-1E+10	1	-1E+10	1	-1E+10	1	-1E+10	1	-1E+10	1
4902549	42	C	10/06/2021	01:51	-131.875	47.101	0	93.80	0	7.8240	0	32.5380	0	25.368	0	92.999	0	253.8	4	86.5	4	-1E+10	1	-1E+10	1	-1E+10	1	-1E+10	1	-1E+10	1	-1E+10	1
4902549	42	C	10/06/2021	01:51	-131.875	47.101	0	95.00	0	7.8130	0	32.5370	0	25.368	0	94.189	0	253.4	4	86.4	4	-1E+10	1	-1E+10	1	-1E+10	1	-1E+10	1	-1E+10	1	-1E+10	1
4902549	42	C	10/06/2021	01:51	-131.875	47.101	0	96.10	0	7.7990	0	32.5370	0	25.370	0	95.279	0	252.8	4	86.1	4	-1E+10	1	-1E+10	1	-1E+10	1	-1E+10	1	-1E+10	1	-1E+10	1
4902549	42	C	10/06/2021	01:51	-131.875	47.101	0	97.00	0	7.7920	0	32.5390	0	25.373	0	96.171	0	252.2	4	85.9	4	-1E+10	1	-1E+10	1	-1E+10	1	-1E+10	1	-1E+10	1	-1E+10	1
4902549	42	C	10/06/2021	01:51	-131.875	47.101	0	97.90	0	7.7670	0	32.5390	0	25.376	0	97.063	0	251.7	4	85.7	4	-1E+10	1	-1E+10	1	-1E+10	1	-1E+10	1	-1E+10	1	-1E+10	1
4902549	42	C	10/06/2021	01:51	-131.875	47.101	0	98.90	0	7.7410	0	32.5420	0	25.383	0	98.055	0	251.2	4	85.5	4	-1E+10	1	-1E+10	1	-1E+10	1	-1E+10	1	-1E+10	1	-1E+10	1
4902549	42	C	10/06/2021	01:51	-131.875	47.101	0	99.80	0	7.7210	0	32.5460	0	25.389	0	98.947	0	250.6	4	85.3	4	-1E+10	1	-1E+10	1	-1E+10	1	-1E+10	1	-1E+10	1	-1E+10	1
4902549	42	C	10/06/2021	01:51	-131.875	47.101	0	100.80	0	7.6180	0	32.5760	0	25.427	0	99.938	0	250.5	4	85.0	4	-1E+10	1	-1E+10	1	-1E+10	1	-1E+10	1	-1E+10	1	-1E+10	1
4902549	42	C	10/06/2021	01:51	-131.875	47.101	0	101.80	0	7.6070	0	32.5790	0	25.431	0	100.929	0	249.9	4	84.8	4	-1E+10	1	-1E+10	1	-1E+10	1	-1E+10	1	-1E+10	1	-1E+10	1
4902549	42	C	10/06/2021	01:51	-131.875	47.101	0	103.10	0	7.6020	0	32.5820	0	25.434	0	102.218	0	248.9	4	84.5	4	-1E+10	1	-1E+10	1	-1E+10	1	-1E+10	1	-1E+10	1	-1E+10	1
4902549	42	C	10/06/2021	01:51	-131.875	47.101	0	104.00	0	7.5950	0	32.5870	0	25.439	0	103.110	0	248.0	4	84.2	4	-1E+10	1	-1E+10	1	-1E+10	1	-1E+10	1	-1E+10	1	-1E+10	1
4902549	42	C	10/06/2021	01:51	-131.875	47.101	0	104.90	0	7.5800	0	32.6050	0	25.455	0	104.002	0	247.3	4	83.9	4	-1E+10	1	-1E+10	1	-1E+10	1	-1E+10	1	-1E+10	1	-1E+10	1
4902549	42	C	10/06/2021	01:51	-131.875	47.101	0	105.90	0	7.5810	0	32.6130	0	25.461	0	104.993	0	246.6	4	83.7	4	-1E+10	1	-1E+10	1	-1E+10	1	-1E+10	1	-1E+10	1	-1E+10	1
4902549	42	C	10/06/2021	01:51	-131.875	47.101	0	106.80	0	7.5820	0	32.6160	0	25.463	0	105.885	0	245.8	4	83.4	4	-1E+10	1	-1E+10	1	-1E+10	1	-1E+10	1	-1E+10	1	-1E+10	1
4902549	42	C	10/06/2021	01:51	-131.875	47.101	0	107.80	0	7.5820	0	32.6180	0	25.465	0	106.876	0	244.6	4	83.0	4	-1E+10	1	-1E+10	1	-1E+10	1	-1E+10	1	-1E+10	1	-1E+10	1
4902549	42	C	10/06/2021	01:51	-131.875	47.101	0	109.10	0	7.5830	0	32.6190	0	25.465	0	108.165	0	242.9	4	82.4	4	-1E+10	1	-1E+10	1	-1E+10	1	-1E+10	1	-1E+10	1	-1E+10	1
4902549	42	C	10/06/2021	01:51	-131.875	47.101	0	110.10	0	7.5860	0	32.6260	0	25.470	0	109.156	0	240.3	4	81.6	4	-1E+10	1	-1E+10	1	-1E+10	1	-1E+10	1	-1E+10	1	-1E+10	1
4902549	42	C	10/06/2021	01:51	-131.875	47.101	0	111.00	0	7.5960	0	32.6440	0	25.483	0	110.048	0	237.2	4	80.5	4	-1E+10	1	-1E+10	1	-1E+10	1	-1E+10	1	-1E+10	1	-1E+10	1
4902549	42	C	10/06/2021	01:51	-131.875	47.101	0	112.00	0	7.6050	0	32.6700	0	25.502	0	111.039	0	234.2	4	79.5	4	-1E+10	1	-1E+10	1	-1E+10	1	-1E+10	1	-1E+10	1	-1E+10	1
4902549	42	C	10/06/2021	01:51	-131.875	47.101	0	113.00	0	7.6140	0	32.7170	0	25.538	0	112.030	0	232.2	4	78.9	4	-1E+10	1	-1E+10	1	-1E+10	1	-1E+10	1	-1E+10	1	-1E+10	1
4902549	42	C	10/06/2021	01:51	-131.875	47.101	0	113.90	0	7.6140	0	32.7520	0	25.566	0	112.922	0	230.0	4	78.2	4	-1E+10	1	-1E+10	1	-1E+10	1	-1E+10	1	-1E+10	1	-1E+10	1
4902549	42	C	10/06/2021	01:51	-131.875	47.101	0	114.90	0	7.6120	0	32.7630	0	25.575	0	113.914	0	227.6	4	77.4	4	-1E+10	1	-1E+10	1	-1E+10	1	-1E+10	1	-1E+10	1	-1E+10	1
4902549	42	C	10/06/2021	01:51	-131.875	47.101	0	116.00	0	7.5990	0	32.7720	0	25.583	0	115.004	0	224.9	4	76.4	4	-1E+10	1	-1E+10	1	-1E+10	1	-1E+10	1	-1E+10	1	-1E+10	1
4902549	42	C	10/06/2021	01:51	-131.875	47.101	0	117.00	0	7.5640	0	32.8050	0	25.614	0	115.995	0	221.9	4	75.4	4	-1E+10	1	-1E+10	1	-1E+10	1	-1E+10	1	-1E+10	1	-1E+10	1
4902549	42	C	10/06/2021	01:51	-131.875	47.101	0	117.90	0	7.5980	0	32.8460	0	25.642	0	116.887	0	219.3	4	74.6	4	-1E+10	1	-1E+10	1	-1E+10	1	-1E+10	1	-1E+10	1	-1E+10	1
4902549	42	C	10/06/2021	01:51	-131.875	47.101	0	118.90	0	7.6620	0	32.9010	0	25.676	0	117.878	0	216.6	4	73.8	4	-1E+10	1	-1E+10	1	-1E+10	1	-1E+10	1	-1E+10	1	-1E+10	1
4902549	42	C	10/06/2021	01:51	-131.875	47.101	0	120.10	0	7.7010	0	32.9530	0	25.711	0	119.067	0	214.3	4	73.1	4	-1E+10	1	-1E+10	1	-1E+10	1	-1E+10	1	-1E+10	1	-1E+10	1
4902549	42	C	10/06/2021	01:51	-131.875	47.101	0	120.90	0	7.7410	0	33.0080	0	25.749	0	119.860	0	212.8	4	72.7	4	-1E+10	1	-1E+10	1	-1E+10	1	-1E+10	1	-1E+10	1	-1E+10	1
4902549	42	C	10/06/2021	01:51	-131.875	47.101	0	121.80	0	7.7370	0	33.0180	0	25.757	0	120.752	0	211.7	4	72.3	4	-1E+10	1	-1E+10	1	-1E+10	1	-1E+10	1	-1E+10	1	-1E+10	1
4902549	42	C	10/06/2021	01:51	-131.875	47.101	0	123.00	0	7.7510	0	33.0850	0	25.808	0	121.942	0	210.2	4	71.9	4	-1E+10	1	-1E+10	1	-1E+10	1	-1E+10	1	-1E+10	1	-1E+10	1
4902549	42	C	10/06/2021	01:51	-131.875	47.101	0	124.00	0	7.7470	0	33.1110	0	25.829	0	122.933	0	209.1	4	71.5	4	-1E+10	1	-1E+10	1	-1E+10	1	-1E+10	1	-1E+10	1	-1E+10	1
4902549	42	C	10/06/2021	01:51	-131.875	47.101	0	125.00	0	7.7410	0	33.1170	0	25.835	0	123.924	0	207.9	4	71.1	4	-1E+10	1	-1E+10	1	-1E+10	1	-1E+10	1	-1E+10	1	-1E+10	1
4902549	42	C	10/06/2021	01:51	-131.875	47.101	0	126.00	0	7.7360	0	33.1240	0	25.841	0	124.915	0	206.5	4	70.6	4	-1E+10	1	-1E+10	1	-1E+10	1	-1E+10	1	-1E+10	1	-1E+10	1
4902549	42	C	10/06/2021	01:51	-131.875	47.101	0	126.90	0	7.7240	0	33.1410	0	25.856	0	125.807	0	205.1	4	70.1	4	-1E+10	1	-1E+10	1	-1E+10	1	-1E+10	1	-1E+10	1	-1E+10	1
4902549	42	C	10/06/2021	01:51	-131.875	47.101	0	127.90	0	7.7200	0	33.1550	0	25.867	0	126.798	0	203.4	4	69.5	4	-1E+10	1	-1E+10	1	-1E+10	1	-1E+10	1	-1E+10	1	-1E+10	1
4902549	42	C	10/06/2021	01:51	-131.875	47.101	0	128.90	0	7.7120	0	33.1970	0	25.902	0	127.789	0	201.8	4	69.0	4	-1E+10	1	-1E+10	1	-1E+10	1	-1E+10	1	-1E+10	1	-1E+10	1
4902549	42	C	10/06/2021	01:51	-131.875	47.101	0	129.90	0	7.7370	0	33.2260	0	25.921	0	128.780	0	200.1	4	68.4	4	-1E+10	1	-1E+10	1	-1E+10	1	-1E+10	1	-1E+10	1	-1E+10	1
4902549	42	C	10/06/2021	01:51	-131.875	47.101	0	130.80	0	7.5790	0	33.2330	0	25.949	0	129.672	0	198.7	4	67.7	4	-1E+10	1	-1E+10	1	-1E+10	1	-1E+10	1	-1E+10	1	-1E+10	1
4902549	42	C	10/06/2021	01:51	-131.875	47.101	0	131.90	0	7.5170	0	33.2280	0	25.954	0	130.762	0	196.9	4	67.0	4	-1E+10	1	-1E+10	1	-1E+10	1	-1E+10	1	-1E+10	1	-1E+10	1
4902549	42	C	10/06/2021	01:51	-131.875	47.101	0	132.90	0	7.3790	0	33.2740	0	26.009	0	131.753	0	195.5	4	66.4	4	-1E+10	1	-1E+10	1	-1E+10	1	-1E+10	1	-1E+10	1	-1E+10	1
4902549	42	C	10/06/2021	01:51	-131.875	47.101	0	134.00	0	7.4120	0	33.3020	0	26.027	0	132.843	0	193.3	4	65.7	4	-1E+10	1	-1E+10	1	-1E+10	1	-1E+10	1	-1E+10	1	-1E+10	1
4902549	42	C	10/06/2021	01:51	-131.875	47.101	0	134.80	0	7.4510	0	33.3240	0	26.038	0	133.636	0	191.7	4	65.2	4	-1E+10	1	-1E+10	1	-1E+10	1	-1E+10	1	-1E+10	1	-1E+10	1
4902549	42	C	10/06/2021	01:51	-131.875	47.101	0	135.80	0	7.4810	0	33.3580	0	26.061	0	134.627	0	189.4	4	64.5	4	-1E+10	1	-1E+10	1	-1E+10	1	-1E+10	1	-1E+10	1	-1E+10	1
4902549	42	C	10/06/2021	01:51	-131.875	47.101	0	137.00	0	7.6200	0	33.4230	0	26.092	0	135.817	0	187.1	4	63.9	4	-1E+10	1	-1E+10	1	-1E+10	1	-1E+10	1	-1E+10	1	-1E+10	1
4902549	42	C	10/06/2021	01:51	-131.875	47.101	0	137.70	0	7.6380	0	33.4680	0	26.125	0	136.510	0	186.2	4	63.6	4	-1E+10	1	-1E+10	1	-1E+10	1	-1E+10	1	-1E+10	1	-1E+10	1
4902549	42	C	10/06/2021	01:51	-131.875	47.101	0	138.90	0	7.5900	0	33.4940	0	26.153	0	137.699	0	185.7	4	63.4	4	-1E+10	1	-1E+10	1	-1E+10	1	-1E+10	1	-1E+10	1	-1E+10	1
4902549	42	C	10/06/2021	01:51	-131.875	47.101	0	140.10	0	7.5550	0	33.5110	0	26.171	0	138.889	0	185.1	4	63.2	4	-1E+10	1	-1E+10	1	-1E+10	1	-1E+10	1	-1E+10	1	-1E+10	1
4902549	42	C	10/06/2021	01:51	-131.875	47.101	0	140.90	0	7.5320	0	33.5210	0	26.182	0	139.681	0	184.7	4	63.0	4	-1E+10	1	-1E+10	1	-1E+10	1	-1E+10	1	-1E+10	1	-1E+10	1
4902549	42	C	10/06/2021	01:51	-131.875	47.101	0	141.70	0	7.5240	0	33.5270	0	26.188	0	140.474	0	184.3	4	62.9	4	-1E+10	1	-1E+10	1	-1E+10	1	-1E+10	1	-1E+10	1	-1E+10	1
4902549	42	C	10/06/2021	01:51	-131.875	47.101	0	143.00	0	7.5200	0	33.5280	0	26.189	0	141.763	0	183.7	4	62.7	4	-1E+10	1	-1E+10	1	-1E+10	1	-1E+10	1	-1E+10	1	-1E+10	1
4902549	42	C	10/06/2021	01:51	-131.875	47.101	0	144.20	0	7.5080	0	33.5330	0	26.195	0	142.952	0	183.0	4	62.4	4	-1E+10	1	-1E+10	1	-1E+10	1	-1E+10	1	-1E+10	1	-1E+10	1
4902549	42	C	10/06/2021	01:51	-131.875	47.101	0	145.10	0	7.4900	0	33.5440	0	26.206	0	143.844	0	182.5	4	62.2	4	-1E+10	1	-1E+10	1	-1E+10	1	-1E+10	1	-1E+10	1	-1E+10	1
4902549	42	C	10/06/2021	01:51	-131.875	47.101	0	146.00	0	7.4670	0	33.5650	0	26.226	0	144.736	0	182.2	4	62.1	4	-1E+10	1	-1E+10	1	-1E+10	1	-1E+10	1	-1E+10	1	-1E+10	1
4902549	42	C	10/06/2021	01:51	-131.875	47.101	0	146.90	0	7.4520	0	33.5700	0	26.232	0	145.627	0	182.2	4	62.1	4	-1E+10	1	-1E+10	1	-1E+10	1	-1E+10	1	-1E+10	1	-1E+10	1
4902549	42	C	10/06/2021	01:51	-131.875	47.101	0	147.80	0	7.4430	0	33.5740	0	26.236	0	146.519	0	181.9	4	62.0	4	-1E+10	1	-1E+10	1	-1E+10	1	-1E+10	1	-1E+10	1	-1E+10	1
4902549	42	C	10/06/2021	01:51	-131.875	47.101	0	149.00	0	7.4310	0	33.5750	0	26.239	0	147.709	0	181.5	4	61.8	4	-1E+10	1	-1E+10	1	-1E+10	1	-1E+10	1	-1E+10	1	-1E+10	1
4902549	42	C	10/06/2021	01:51	-131.875	47.101	0	150.10	0	7.4280	0	33.5770	0	26.241	0	148.799	0	181.0	4	61.6	4	-1E+10	1	-1E+10	1	-1E+10	1	-1E+10	1	-1E+10	1	-1E+10	1
4902549	42	C	10/06/2021	01:51	-131.875	47.101	0	150.90	0	7.4220	0	33.5800	0	26.244	0	149.591	0	180.6	4	61.5	4	-1E+10	1	-1E+10	1	-1E+10	1	-1E+10	1	-1E+10	1	-1E+10	1
4902549	42	C	10/06/2021	01:51	-131.875	47.101	0	151.90	0	7.4150	0	33.5830	0	26.247	0	150.582	0	180.1	4	61.3	4	-1E+10	1	-1E+10	1	-1E+10	1	-1E+10	1	-1E+10	1	-1E+10	1
4902549	42	C	10/06/2021	01:51	-131.875	47.101	0	153.10	0	7.4090	0	33.5870	0	26.251	0	151.772	0	179.4	4	61.1	4	-1E+10	1	-1E+10	1	-1E+10	1	-1E+10	1	-1E+10	1	-1E+10	1
4902549	42	C	10/06/2021	01:51	-131.875	47.101	0	154.00	0	7.4000	0	33.6010	0	26.264	0	152.663	0	178.9	4	60.9	4	-1E+10	1	-1E+10	1	-1E+10	1	-1E+10	1	-1E+10	1	-1E+10	1
4902549	42	C	10/06/2021	01:51	-131.875	47.101	0	154.90	0	7.3880	0	33.6100	0	26.273	0	153.555	0	178.8	4	60.9	4	-1E+10	1	-1E+10	1	-1E+10	1	-1E+10	1	-1E+10	1	-1E+10	1
4902549	42	C	10/06/2021	01:51	-131.875	47.101	0	155.80	0	7.3770	0	33.6170	0	26.280	0	154.447	0	178.9	4	60.9	4	-1E+10	1	-1E+10	1	-1E+10	1	-1E+10	1	-1E+10	1	-1E+10	1
4902549	42	C	10/06/2021	01:51	-131.875	47.101	0	156.90	0	7.3630	0	33.6270	0	26.289	0	155.537	0	179.1	4	60.9	4	-1E+10	1	-1E+10	1	-1E+10	1	-1E+10	1	-1E+10	1	-1E+10	1
4902549	42	C	10/06/2021	01:51	-131.875	47.101	0	157.80	0	7.3510	0	33.6350	0	26.297	0	156.429	0	179.5	4	61.1	4	-1E+10	1	-1E+10	1	-1E+10	1	-1E+10	1	-1E+10	1	-1E+10	1
4902549	42	C	10/06/2021	01:51	-131.875	47.101	0	158.70	0	7.3390	0	33.6420	0	26.305	0	157.321	0	180.1	4	61.2	4	-1E+10	1	-1E+10	1	-1E+10	1	-1E+10	1	-1E+10	1	-1E+10	1
4902549	42	C	10/06/2021	01:51	-131.875	47.101	0	159.60	0	7.3330	0	33.6450	0	26.308	0	158.213	0	180.6	4	61.4	4	-1E+10	1	-1E+10	1	-1E+10	1	-1E+10	1	-1E+10	1	-1E+10	1
4902549	42	C	10/06/2021	01:51	-131.875	47.101	0	160.60	0	7.3070	0	33.6600	0	26.323	0	159.204	0	181.3	4	61.6	4	-1E+10	1	-1E+10	1	-1E+10	1	-1E+10	1	-1E+10	1	-1E+10	1
4902549	42	C	10/06/2021	01:51	-131.875	47.101	0	161.60	0	7.2810	0	33.6790	0	26.342	0	160.194	0	181.7	4	61.7	4	-1E+10	1	-1E+10	1	-1E+10	1	-1E+10	1	-1E+10	1	-1E+10	1
4902549	42	C	10/06/2021	01:51	-131.875	47.101	0	162.60	0	7.2790	0	33.6790	0	26.342	0	161.185	0	181.6	4	61.7	4	-1E+10	1	-1E+10	1	-1E+10	1	-1E+10	1	-1E+10	1	-1E+10	1
4902549	42	C	10/06/2021	01:51	-131.875	47.101	0	163.60	0	7.2640	0	33.6880	0	26.351	0	162.176	0	181.6	4	61.7	4	-1E+10	1	-1E+10	1	-1E+10	1	-1E+10	1	-1E+10	1	-1E+10	1
4902549	42	C	10/06/2021	01:51	-131.875	47.101	0	164.60	0	7.2350	0	33.7040	0	26.368	0	163.167	0	181.5	4	61.6	4	-1E+10	1	-1E+10	1	-1E+10	1	-1E+10	1	-1E+10	1	-1E+10	1
4902549	42	C	10/06/2021	01:51	-131.875	47.101	0	165.60	0	7.2110	0	33.7150	0	26.380	0	164.158	0	181.1	4	61.4	4	-1E+10	1	-1E+10	1	-1E+10	1	-1E+10	1	-1E+10	1	-1E+10	1
4902549	42	C	10/06/2021	01:51	-131.875	47.101	0	166.70	0	7.1940	0	33.7190	0	26.385	0	165.248	0	180.7	4	61.3	4	-1E+10	1	-1E+10	1	-1E+10	1	-1E+10	1	-1E+10	1	-1E+10	1
4902549	42	C	10/06/2021	01:51	-131.875	47.101	0	167.80	0	7.1560	0	33.7310	0	26.400	0	166.338	0	180.4	4	61.1	4	-1E+10	1	-1E+10	1	-1E+10	1	-1E+10	1	-1E+10	1	-1E+10	1
4902549	42	C	10/06/2021	01:51	-131.875	47.101	0	168.80	0	7.1440	0	33.7340	0	26.404	0	167.329	0	180.1	4	61.0	4	-1E+10	1	-1E+10	1	-1E+10	1	-1E+10	1	-1E+10	1	-1E+10	1
4902549	42	C	10/06/2021	01:51	-131.875	47.101	0	169.90	0	7.1360	0	33.7360	0	26.407	0	168.419	0	179.7	4	60.8	4	-1E+10	1	-1E+10	1	-1E+10	1	-1E+10	1	-1E+10	1	-1E+10	1
4902549	42	C	10/06/2021	01:51	-131.875	47.101	0	171.00	0	7.1290	0	33.7380	0	26.409	0	169.509	0	179.3	4	60.7	4	-1E+10	1	-1E+10	1	-1E+10	1	-1E+10	1	-1E+10	1	-1E+10	1
4902549	42	C	10/06/2021	01:51	-131.875	47.101	0	172.10	0	7.1090	0	33.7420	0	26.415	0	170.599	0	178.9	4	60.6	4	-1E+10	1	-1E+10	1	-1E+10	1	-1E+10	1	-1E+10	1	-1E+10	1
4902549	42	C	10/06/2021	01:51	-131.875	47.101	0	173.10	0	7.0920	0	33.7450	0	26.420	0	171.590	0	178.6	4	60.4	4	-1E+10	1	-1E+10	1	-1E+10	1	-1E+10	1	-1E+10	1	-1E+10	1
4902549	42	C	10/06/2021	01:51	-131.875	47.101	0	174.20	0	7.0850	0	33.7460	0	26.422	0	172.680	0	178.1	4	60.3	4	-1E+10	1	-1E+10	1	-1E+10	1	-1E+10	1	-1E+10	1	-1E+10	1
4902549	42	C	10/06/2021	01:51	-131.875	47.101	0	175.30	0	7.0790	0	33.7470	0	26.423	0	173.770	0	177.6	4	60.1	4	-1E+10	1	-1E+10	1	-1E+10	1	-1E+10	1	-1E+10	1	-1E+10	1
4902549	42	C	10/06/2021	01:51	-131.875	47.101	0	176.40	0	7.0700	0	33.7490	0	26.426	0	174.859	0	177.2	4	59.9	4	-1E+10	1	-1E+10	1	-1E+10	1	-1E+10	1	-1E+10	1	-1E+10	1
4902549	42	C	10/06/2021	01:51	-131.875	47.101	0	177.40	0	7.0520	0	33.7530	0	26.432	0	175.850	0	176.7	4	59.7	4	-1E+10	1	-1E+10	1	-1E+10	1	-1E+10	1	-1E+10	1	-1E+10	1
4902549	42	C	10/06/2021	01:51	-131.875	47.101	0	178.50	0	7.0330	0	33.7570	0	26.438	0	176.940	0	176.3	4	59.6	4	-1E+10	1	-1E+10	1	-1E+10	1	-1E+10	1	-1E+10	1	-1E+10	1
4902549	42	C	10/06/2021	01:51	-131.875	47.101	0	179.60	0	7.0210	0	33.7590	0	26.441	0	178.030	0	175.9	4	59.4	4	-1E+10	1	-1E+10	1	-1E+10	1	-1E+10	1	-1E+10	1	-1E+10	1
4902549	42	C	10/06/2021	01:51	-131.875	47.101	0	180.70	0	7.0110	0	33.7610	0	26.444	0	179.120	0	175.5	4	59.3	4	-1E+10	1	-1E+10	1	-1E+10	1	-1E+10	1	-1E+10	1	-1E+10	1
4902549	42	C	10/06/2021	01:51	-131.875	47.101	0	181.80	0	7.0070	0	33.7620	0	26.445	0	180.210	0	174.9	4	59.1	4	-1E+10	1	-1E+10	1	-1E+10	1	-1E+10	1	-1E+10	1	-1E+10	1
4902549	42	C	10/06/2021	01:51	-131.875	47.101	0	182.90	0	7.0010	0	33.7640	0	26.448	0	181.300	0	174.4	4	58.9	4	-1E+10	1	-1E+10	1	-1E+10	1	-1E+10	1	-1E+10	1	-1E+10	1
4902549	42	C	10/06/2021	01:51	-131.875	47.101	0	183.90	0	7.0020	0	33.7650	0	26.448	0	182.291	0	173.9	4	58.7	4	-1E+10	1	-1E+10	1	-1E+10	1	-1E+10	1	-1E+10	1	-1E+10	1
4902549	42	C	10/06/2021	01:51	-131.875	47.101	0	185.00	0	7.0030	0	33.7670	0	26.450	0	183.381	0	173.3	4	58.5	4	-1E+10	1	-1E+10	1	-1E+10	1	-1E+10	1	-1E+10	1	-1E+10	1
4902549	42	C	10/06/2021	01:51	-131.875	47.101	0	186.00	0	7.0040	0	33.7670	0	26.450	0	184.371	0	172.7	4	58.3	4	-1E+10	1	-1E+10	1	-1E+10	1	-1E+10	1	-1E+10	1	-1E+10	1
4902549	42	C	10/06/2021	01:51	-131.875	47.101	0	187.00	0	7.0030	0	33.7710	0	26.453	0	185.362	0	172.1	4	58.1	4	-1E+10	1	-1E+10	1	-1E+10	1	-1E+10	1	-1E+10	1	-1E+10	1
4902549	42	C	10/06/2021	01:51	-131.875	47.101	0	188.10	0	7.0030	0	33.7720	0	26.454	0	186.452	0	171.6	4	58.0	4	-1E+10	1	-1E+10	1	-1E+10	1	-1E+10	1	-1E+10	1	-1E+10	1
4902549	42	C	10/06/2021	01:51	-131.875	47.101	0	189.10	0	6.9970	0	33.7730	0	26.455	0	187.443	0	170.9	4	57.7	4	-1E+10	1	-1E+10	1	-1E+10	1	-1E+10	1	-1E+10	1	-1E+10	1
4902549	42	C	10/06/2021	01:51	-131.875	47.101	0	190.10	0	6.9770	0	33.7730	0	26.458	0	188.434	0	170.3	4	57.5	4	-1E+10	1	-1E+10	1	-1E+10	1	-1E+10	1	-1E+10	1	-1E+10	1
4902549	42	C	10/06/2021	01:51	-131.875	47.101	0	191.20	0	6.9610	0	33.7750	0	26.462	0	189.523	0	169.6	4	57.2	4	-1E+10	1	-1E+10	1	-1E+10	1	-1E+10	1	-1E+10	1	-1E+10	1
4902549	42	C	10/06/2021	01:51	-131.875	47.101	0	192.20	0	6.9380	0	33.7780	0	26.467	0	190.514	0	168.8	4	56.9	4	-1E+10	1	-1E+10	1	-1E+10	1	-1E+10	1	-1E+10	1	-1E+10	1
4902549	42	C	10/06/2021	01:51	-131.875	47.101	0	193.20	0	6.9270	0	33.7790	0	26.469	0	191.505	0	168.0	4	56.7	4	-1E+10	1	-1E+10	1	-1E+10	1	-1E+10	1	-1E+10	1	-1E+10	1
4902549	42	C	10/06/2021	01:51	-131.875	47.101	0	194.30	0	6.9230	0	33.7800	0	26.471	0	192.595	0	167.1	4	56.3	4	-1E+10	1	-1E+10	1	-1E+10	1	-1E+10	1	-1E+10	1	-1E+10	1
4902549	42	C	10/06/2021	01:51	-131.875	47.101	0	195.40	0	6.9240	0	33.7810	0	26.472	0	193.685	0	166.1	4	56.0	4	-1E+10	1	-1E+10	1	-1E+10	1	-1E+10	1	-1E+10	1	-1E+10	1
4902549	42	C	10/06/2021	01:51	-131.875	47.101	0	196.40	0	6.9320	0	33.7820	0	26.471	0	194.675	0	165.0	4	55.6	4	-1E+10	1	-1E+10	1	-1E+10	1	-1E+10	1	-1E+10	1	-1E+10	1
4902549	42	C	10/06/2021	01:51	-131.875	47.101	0	197.50	0	6.9310	0	33.7880	0	26.476	0	195.765	0	164.0	4	55.3	4	-1E+10	1	-1E+10	1	-1E+10	1	-1E+10	1	-1E+10	1	-1E+10	1
4902549	42	C	10/06/2021	01:51	-131.875	47.101	0	198.50	0	6.9130	0	33.7900	0	26.480	0	196.756	0	163.0	4	54.9	4	-1E+10	1	-1E+10	1	-1E+10	1	-1E+10	1	-1E+10	1	-1E+10	1
4902549	42	C	10/06/2021	01:51	-131.875	47.101	0	199.50	0	6.9060	0	33.7940	0	26.484	0	197.747	0	162.1	4	54.6	4	-1E+10	1	-1E+10	1	-1E+10	1	-1E+10	1	-1E+10	1	-1E+10	1
4902549	42	C	10/06/2021	01:51	-131.875	47.101	0	200.60	0	6.8870	0	33.7920	0	26.485	0	198.837	0	161.0	4	54.2	4	-1E+10	1	-1E+10	1	-1E+10	1	-1E+10	1	-1E+10	1	-1E+10	1
4902549	42	C	10/06/2021	01:51	-131.875	47.101	0	201.60	0	6.8900	0	33.7950	0	26.487	0	199.827	0	159.9	4	53.9	4	-1E+10	1	-1E+10	1	-1E+10	1	-1E+10	1	-1E+10	1	-1E+10	1
4902549	42	C	10/06/2021	01:51	-131.875	47.101	0	202.60	0	6.8770	0	33.8030	0	26.495	0	200.818	0	159.0	4	53.6	4	-1E+10	1	-1E+10	1	-1E+10	1	-1E+10	1	-1E+10	1	-1E+10	1
4902549	42	C	10/06/2021	01:51	-131.875	47.101	0	203.70	0	6.8580	0	33.8070	0	26.501	0	201.908	0	158.5	4	53.4	4	-1E+10	1	-1E+10	1	-1E+10	1	-1E+10	1	-1E+10	1	-1E+10	1
4902549	42	C	10/06/2021	01:51	-131.875	47.101	0	204.70	0	6.8510	0	33.8080	0	26.503	0	202.898	0	158.0	4	53.2	4	-1E+10	1	-1E+10	1	-1E+10	1	-1E+10	1	-1E+10	1	-1E+10	1
4902549	42	C	10/06/2021	01:51	-131.875	47.101	0	205.70	0	6.8320	0	33.8110	0	26.508	0	203.889	0	157.6	4	53.0	4	-1E+10	1	-1E+10	1	-1E+10	1	-1E+10	1	-1E+10	1	-1E+10	1
4902549	42	C	10/06/2021	01:51	-131.875	47.101	0	206.70	0	6.8180	0	33.8130	0	26.511	0	204.880	0	157.2	4	52.9	4	-1E+10	1	-1E+10	1	-1E+10	1	-1E+10	1	-1E+10	1	-1E+10	1
4902549	42	C	10/06/2021	01:51	-131.875	47.101	0	207.70	0	6.7990	0	33.8160	0	26.516	0	205.871	0	157.0	4	52.8	4	-1E+10	1	-1E+10	1	-1E+10	1	-1E+10	1	-1E+10	1	-1E+10	1
4902549	42	C	10/06/2021	01:51	-131.875	47.101	0	208.70	0	6.7950	0	33.8150	0	26.516	0	206.861	0	156.7	4	52.7	4	-1E+10	1	-1E+10	1	-1E+10	1	-1E+10	1	-1E+10	1	-1E+10	1
4902549	42	C	10/06/2021	01:51	-131.875	47.101	0	209.70	0	6.7880	0	33.8170	0	26.518	0	207.852	0	156.5	4	52.6	4	-1E+10	1	-1E+10	1	-1E+10	1	-1E+10	1	-1E+10	1	-1E+10	1
4902549	42	C	10/06/2021	01:51	-131.875	47.101	0	210.70	0	6.7760	0	33.8160	0	26.519	0	208.843	0	156.2	4	52.5	4	-1E+10	1	-1E+10	1	-1E+10	1	-1E+10	1	-1E+10	1	-1E+10	1
4902549	42	C	10/06/2021	01:51	-131.875	47.101	0	211.70	0	6.7590	0	33.8150	0	26.521	0	209.833	0	156.0	4	52.4	4	-1E+10	1	-1E+10	1	-1E+10	1	-1E+10	1	-1E+10	1	-1E+10	1
4902549	42	C	10/06/2021	01:51	-131.875	47.101	0	212.70	0	6.7280	0	33.8180	0	26.527	0	210.824	0	155.9	4	52.3	4	-1E+10	1	-1E+10	1	-1E+10	1	-1E+10	1	-1E+10	1	-1E+10	1
4902549	42	C	10/06/2021	01:51	-131.875	47.101	0	213.60	0	6.7210	0	33.8220	0	26.531	0	211.716	0	155.7	4	52.3	4	-1E+10	1	-1E+10	1	-1E+10	1	-1E+10	1	-1E+10	1	-1E+10	1
4902549	42	C	10/06/2021	01:51	-131.875	47.101	0	215.00	0	6.7200	0	33.8180	0	26.528	0	213.102	0	155.3	4	52.1	4	-1E+10	1	-1E+10	1	-1E+10	1	-1E+10	1	-1E+10	1	-1E+10	1
4902549	42	C	10/06/2021	01:51	-131.875	47.101	0	216.10	0	6.7180	0	33.8180	0	26.529	0	214.192	0	154.9	4	52.0	4	-1E+10	1	-1E+10	1	-1E+10	1	-1E+10	1	-1E+10	1	-1E+10	1
4902549	42	C	10/06/2021	01:51	-131.875	47.101	0	216.80	0	6.7200	0	33.8150	0	26.526	0	214.886	0	154.6	4	51.9	4	-1E+10	1	-1E+10	1	-1E+10	1	-1E+10	1	-1E+10	1	-1E+10	1
4902549	42	C	10/06/2021	01:51	-131.875	47.101	0	217.90	0	6.6790	0	33.8150	0	26.531	0	215.975	0	154.3	4	51.8	4	-1E+10	1	-1E+10	1	-1E+10	1	-1E+10	1	-1E+10	1	-1E+10	1
4902549	42	C	10/06/2021	01:51	-131.875	47.101	0	219.00	0	6.6250	0	33.8150	0	26.539	0	217.065	0	154.1	4	51.6	4	-1E+10	1	-1E+10	1	-1E+10	1	-1E+10	1	-1E+10	1	-1E+10	1
4902549	42	C	10/06/2021	01:51	-131.875	47.101	0	220.00	0	6.6080	0	33.8130	0	26.539	0	218.056	0	153.6	4	51.4	4	-1E+10	1	-1E+10	1	-1E+10	1	-1E+10	1	-1E+10	1	-1E+10	1
4902549	42	C	10/06/2021	01:51	-131.875	47.101	0	221.20	0	6.5860	0	33.8120	0	26.541	0	219.244	0	152.9	4	51.2	4	-1E+10	1	-1E+10	1	-1E+10	1	-1E+10	1	-1E+10	1	-1E+10	1
4902549	42	C	10/06/2021	01:51	-131.875	47.101	0	221.90	0	6.5830	0	33.8120	0	26.542	0	219.938	0	152.4	4	51.0	4	-1E+10	1	-1E+10	1	-1E+10	1	-1E+10	1	-1E+10	1	-1E+10	1
4902549	42	C	10/06/2021	01:51	-131.875	47.101	0	223.00	0	6.5680	0	33.8120	0	26.544	0	221.028	0	151.5	4	50.7	4	-1E+10	1	-1E+10	1	-1E+10	1	-1E+10	1	-1E+10	1	-1E+10	1
4902549	42	C	10/06/2021	01:51	-131.875	47.101	0	224.10	0	6.5120	0	33.8150	0	26.553	0	222.117	0	150.9	4	50.4	4	-1E+10	1	-1E+10	1	-1E+10	1	-1E+10	1	-1E+10	1	-1E+10	1
4902549	42	C	10/06/2021	01:51	-131.875	47.101	0	224.90	0	6.4920	0	33.8170	0	26.558	0	222.910	0	150.6	4	50.3	4	-1E+10	1	-1E+10	1	-1E+10	1	-1E+10	1	-1E+10	1	-1E+10	1
4902549	42	C	10/06/2021	01:51	-131.875	47.101	0	226.00	0	6.4860	0	33.8160	0	26.558	0	223.999	0	150.0	4	50.1	4	-1E+10	1	-1E+10	1	-1E+10	1	-1E+10	1	-1E+10	1	-1E+10	1
4902549	42	C	10/06/2021	01:51	-131.875	47.101	0	227.20	0	6.4850	0	33.8160	0	26.558	0	225.188	0	149.4	4	49.9	4	-1E+10	1	-1E+10	1	-1E+10	1	-1E+10	1	-1E+10	1	-1E+10	1
4902549	42	C	10/06/2021	01:51	-131.875	47.101	0	227.90	0	6.4740	0	33.8180	0	26.561	0	225.882	0	148.9	4	49.7	4	-1E+10	1	-1E+10	1	-1E+10	1	-1E+10	1	-1E+10	1	-1E+10	1
4902549	42	C	10/06/2021	01:51	-131.875	47.101	0	228.70	0	6.4500	0	33.8190	0	26.565	0	226.674	0	148.5	4	49.6	4	-1E+10	1	-1E+10	1	-1E+10	1	-1E+10	1	-1E+10	1	-1E+10	1
4902549	42	C	10/06/2021	01:51	-131.875	47.101	0	229.80	0	6.4440	0	33.8180	0	26.565	0	227.764	0	147.9	4	49.3	4	-1E+10	1	-1E+10	1	-1E+10	1	-1E+10	1	-1E+10	1	-1E+10	1
4902549	42	C	10/06/2021	01:51	-131.875	47.101	0	231.00	0	6.4380	0	33.8170	0	26.565	0	228.952	0	147.2	4	49.1	4	-1E+10	1	-1E+10	1	-1E+10	1	-1E+10	1	-1E+10	1	-1E+10	1
4902549	42	C	10/06/2021	01:51	-131.875	47.101	0	231.80	0	6.4240	0	33.8190	0	26.568	0	229.745	0	146.7	4	48.9	4	-1E+10	1	-1E+10	1	-1E+10	1	-1E+10	1	-1E+10	1	-1E+10	1
4902549	42	C	10/06/2021	01:51	-131.875	47.101	0	232.60	0	6.4030	0	33.8190	0	26.571	0	230.537	0	146.4	4	48.8	4	-1E+10	1	-1E+10	1	-1E+10	1	-1E+10	1	-1E+10	1	-1E+10	1
4902549	42	C	10/06/2021	01:51	-131.875	47.101	0	233.90	0	6.3840	0	33.8200	0	26.574	0	231.825	0	145.8	4	48.6	4	-1E+10	1	-1E+10	1	-1E+10	1	-1E+10	1	-1E+10	1	-1E+10	1
4902549	42	C	10/06/2021	01:51	-131.875	47.101	0	235.10	0	6.3820	0	33.8200	0	26.574	0	233.014	0	145.1	4	48.3	4	-1E+10	1	-1E+10	1	-1E+10	1	-1E+10	1	-1E+10	1	-1E+10	1
4902549	42	C	10/06/2021	01:51	-131.875	47.101	0	235.90	0	6.3780	0	33.8200	0	26.575	0	233.806	0	144.6	4	48.2	4	-1E+10	1	-1E+10	1	-1E+10	1	-1E+10	1	-1E+10	1	-1E+10	1
4902549	42	C	10/06/2021	01:51	-131.875	47.101	0	236.80	0	6.3760	0	33.8190	0	26.574	0	234.698	0	144.0	4	48.0	4	-1E+10	1	-1E+10	1	-1E+10	1	-1E+10	1	-1E+10	1	-1E+10	1
4902549	42	C	10/06/2021	01:51	-131.875	47.101	0	237.60	0	6.3710	0	33.8190	0	26.575	0	235.490	0	143.4	4	47.7	4	-1E+10	1	-1E+10	1	-1E+10	1	-1E+10	1	-1E+10	1	-1E+10	1
4902549	42	C	10/06/2021	01:51	-131.875	47.101	0	238.90	0	6.3390	0	33.8210	0	26.581	0	236.778	0	142.5	4	47.4	4	-1E+10	1	-1E+10	1	-1E+10	1	-1E+10	1	-1E+10	1	-1E+10	1
4902549	42	C	10/06/2021	01:51	-131.875	47.101	0	240.10	0	6.3020	0	33.8190	0	26.584	0	237.967	0	141.7	4	47.1	4	-1E+10	1	-1E+10	1	-1E+10	1	-1E+10	1	-1E+10	1	-1E+10	1
4902549	42	C	10/06/2021	01:51	-131.875	47.101	0	241.00	0	6.2680	0	33.8330	0	26.599	0	238.858	0	141.1	4	46.9	4	-1E+10	1	-1E+10	1	-1E+10	1	-1E+10	1	-1E+10	1	-1E+10	1
4902549	42	C	10/06/2021	01:51	-131.875	47.101	0	241.90	0	6.2260	0	33.8210	0	26.595	0	239.749	0	140.8	4	46.7	4	-1E+10	1	-1E+10	1	-1E+10	1	-1E+10	1	-1E+10	1	-1E+10	1
4902549	42	C	10/06/2021	01:51	-131.875	47.101	0	242.80	0	6.2030	0	33.8190	0	26.597	0	240.641	0	140.4	4	46.6	4	-1E+10	1	-1E+10	1	-1E+10	1	-1E+10	1	-1E+10	1	-1E+10	1
4902549	42	C	10/06/2021	01:51	-131.875	47.101	0	243.70	0	6.1980	0	33.8220	0	26.600	0	241.532	0	140.1	4	46.5	4	-1E+10	1	-1E+10	1	-1E+10	1	-1E+10	1	-1E+10	1	-1E+10	1
4902549	42	C	10/06/2021	01:51	-131.875	47.101	0	244.70	0	6.1920	0	33.8220	0	26.600	0	242.523	0	139.6	4	46.3	4	-1E+10	1	-1E+10	1	-1E+10	1	-1E+10	1	-1E+10	1	-1E+10	1
4902549	42	C	10/06/2021	01:51	-131.875	47.101	0	245.70	0	6.1850	0	33.8230	0	26.602	0	243.513	0	139.1	4	46.1	4	-1E+10	1	-1E+10	1	-1E+10	1	-1E+10	1	-1E+10	1	-1E+10	1
4902549	42	C	10/06/2021	01:51	-131.875	47.101	0	246.60	0	6.1820	0	33.8230	0	26.602	0	244.405	0	138.7	4	46.0	4	-1E+10	1	-1E+10	1	-1E+10	1	-1E+10	1	-1E+10	1	-1E+10	1
4902549	42	C	10/06/2021	01:51	-131.875	47.101	0	247.60	0	6.1720	0	33.8230	0	26.604	0	245.395	0	138.2	4	45.8	4	-1E+10	1	-1E+10	1	-1E+10	1	-1E+10	1	-1E+10	1	-1E+10	1
4902549	42	C	10/06/2021	01:51	-131.875	47.101	0	248.50	0	6.1660	0	33.8230	0	26.605	0	246.287	0	137.8	4	45.7	4	-1E+10	1	-1E+10	1	-1E+10	1	-1E+10	1	-1E+10	1	-1E+10	1
4902549	42	C	10/06/2021	01:51	-131.875	47.101	0	249.50	0	6.1710	0	33.8260	0	26.606	0	247.277	0	137.3	4	45.5	4	-1E+10	1	-1E+10	1	-1E+10	1	-1E+10	1	-1E+10	1	-1E+10	1
4902549	42	C	10/06/2021	01:51	-131.875	47.101	0	250.50	0	6.1560	0	33.8280	0	26.610	0	248.268	0	136.9	4	45.4	4	-1E+10	1	-1E+10	1	-1E+10	1	-1E+10	1	-1E+10	1	-1E+10	1
4902549	42	C	10/06/2021	01:51	-131.875	47.101	0	251.90	0	6.1380	0	33.8260	0	26.610	0	249.655	0	136.2	4	45.1	4	-1E+10	1	-1E+10	1	-1E+10	1	-1E+10	1	-1E+10	1	-1E+10	1
4902549	42	C	10/06/2021	01:51	-131.875	47.101	0	253.40	0	6.1340	0	33.8280	0	26.613	0	251.140	0	135.4	4	44.8	4	-1E+10	1	-1E+10	1	-1E+10	1	-1E+10	1	-1E+10	1	-1E+10	1
4902549	42	C	10/06/2021	01:51	-131.875	47.101	0	254.40	0	6.1370	0	33.8300	0	26.614	0	252.131	0	134.9	4	44.7	4	-1E+10	1	-1E+10	1	-1E+10	1	-1E+10	1	-1E+10	1	-1E+10	1
4902549	42	C	10/06/2021	01:51	-131.875	47.101	0	255.40	0	6.1370	0	33.8290	0	26.613	0	253.121	0	134.2	4	44.5	4	-1E+10	1	-1E+10	1	-1E+10	1	-1E+10	1	-1E+10	1	-1E+10	1
4902549	42	C	10/06/2021	01:51	-131.875	47.101	0	256.40	0	6.1420	0	33.8290	0	26.612	0	254.112	0	133.5	4	44.2	4	-1E+10	1	-1E+10	1	-1E+10	1	-1E+10	1	-1E+10	1	-1E+10	1
4902549	42	C	10/06/2021	01:51	-131.875	47.101	0	257.40	0	6.1270	0	33.8300	0	26.615	0	255.102	0	132.9	4	44.0	4	-1E+10	1	-1E+10	1	-1E+10	1	-1E+10	1	-1E+10	1	-1E+10	1
4902549	42	C	10/06/2021	01:51	-131.875	47.101	0	258.40	0	6.1110	0	33.8320	0	26.619	0	256.093	0	132.2	4	43.8	4	-1E+10	1	-1E+10	1	-1E+10	1	-1E+10	1	-1E+10	1	-1E+10	1
4902549	42	C	10/06/2021	01:51	-131.875	47.101	0	259.40	0	6.1010	0	33.8310	0	26.619	0	257.083	0	131.5	4	43.5	4	-1E+10	1	-1E+10	1	-1E+10	1	-1E+10	1	-1E+10	1	-1E+10	1
4902549	42	C	10/06/2021	01:51	-131.875	47.101	0	260.40	0	6.0620	0	33.8370	0	26.629	0	258.073	0	131.0	4	43.3	4	-1E+10	1	-1E+10	1	-1E+10	1	-1E+10	1	-1E+10	1	-1E+10	1
4902549	42	C	10/06/2021	01:51	-131.875	47.101	0	261.40	0	5.9950	0	33.8370	0	26.637	0	259.064	0	130.7	4	43.2	4	-1E+10	1	-1E+10	1	-1E+10	1	-1E+10	1	-1E+10	1	-1E+10	1
4902549	42	C	10/06/2021	01:51	-131.875	47.101	0	262.40	0	5.9640	0	33.8370	0	26.641	0	260.054	0	130.5	4	43.1	4	-1E+10	1	-1E+10	1	-1E+10	1	-1E+10	1	-1E+10	1	-1E+10	1
4902549	42	C	10/06/2021	01:51	-131.875	47.101	0	263.40	0	5.9530	0	33.8360	0	26.642	0	261.045	0	130.2	4	43.0	4	-1E+10	1	-1E+10	1	-1E+10	1	-1E+10	1	-1E+10	1	-1E+10	1
4902549	42	C	10/06/2021	01:51	-131.875	47.101	0	264.50	0	5.9510	0	33.8350	0	26.641	0	262.134	0	129.9	4	42.8	4	-1E+10	1	-1E+10	1	-1E+10	1	-1E+10	1	-1E+10	1	-1E+10	1
4902549	42	C	10/06/2021	01:51	-131.875	47.101	0	265.50	0	5.9480	0	33.8350	0	26.642	0	263.125	0	129.5	4	42.7	4	-1E+10	1	-1E+10	1	-1E+10	1	-1E+10	1	-1E+10	1	-1E+10	1
4902549	42	C	10/06/2021	01:51	-131.875	47.101	0	266.50	0	5.9420	0	33.8340	0	26.642	0	264.115	0	129.1	4	42.6	4	-1E+10	1	-1E+10	1	-1E+10	1	-1E+10	1	-1E+10	1	-1E+10	1
4902549	42	C	10/06/2021	01:51	-131.875	47.101	0	267.60	0	5.9230	0	33.8340	0	26.644	0	265.205	0	128.7	4	42.4	4	-1E+10	1	-1E+10	1	-1E+10	1	-1E+10	1	-1E+10	1	-1E+10	1
4902549	42	C	10/06/2021	01:51	-131.875	47.101	0	268.60	0	5.9060	0	33.8350	0	26.647	0	266.195	0	128.3	4	42.3	4	-1E+10	1	-1E+10	1	-1E+10	1	-1E+10	1	-1E+10	1	-1E+10	1
4902549	42	C	10/06/2021	01:51	-131.875	47.101	0	269.70	0	5.8880	0	33.8360	0	26.650	0	267.284	0	128.0	4	42.1	4	-1E+10	1	-1E+10	1	-1E+10	1	-1E+10	1	-1E+10	1	-1E+10	1
4902549	42	C	10/06/2021	01:51	-131.875	47.101	0	270.70	0	5.8670	0	33.8350	0	26.652	0	268.275	0	127.8	4	42.1	4	-1E+10	1	-1E+10	1	-1E+10	1	-1E+10	1	-1E+10	1	-1E+10	1
4902549	42	C	10/06/2021	01:51	-131.875	47.101	0	271.70	0	5.8590	0	33.8350	0	26.653	0	269.265	0	127.4	4	41.9	4	-1E+10	1	-1E+10	1	-1E+10	1	-1E+10	1	-1E+10	1	-1E+10	1
4902549	42	C	10/06/2021	01:51	-131.875	47.101	0	272.70	0	5.8540	0	33.8350	0	26.653	0	270.256	0	127.1	4	41.8	4	-1E+10	1	-1E+10	1	-1E+10	1	-1E+10	1	-1E+10	1	-1E+10	1
4902549	42	C	10/06/2021	01:51	-131.875	47.101	0	273.80	0	5.8420	0	33.8350	0	26.655	0	271.345	0	126.8	4	41.7	4	-1E+10	1	-1E+10	1	-1E+10	1	-1E+10	1	-1E+10	1	-1E+10	1
4902549	42	C	10/06/2021	01:51	-131.875	47.101	0	274.80	0	5.8270	0	33.8360	0	26.657	0	272.335	0	126.5	4	41.6	4	-1E+10	1	-1E+10	1	-1E+10	1	-1E+10	1	-1E+10	1	-1E+10	1
4902549	42	C	10/06/2021	01:51	-131.875	47.101	0	275.90	0	5.8250	0	33.8350	0	26.657	0	273.425	0	126.2	4	41.5	4	-1E+10	1	-1E+10	1	-1E+10	1	-1E+10	1	-1E+10	1	-1E+10	1
4902549	42	C	10/06/2021	01:51	-131.875	47.101	0	276.90	0	5.8130	0	33.8360	0	26.659	0	274.415	0	125.8	4	41.4	4	-1E+10	1	-1E+10	1	-1E+10	1	-1E+10	1	-1E+10	1	-1E+10	1
4902549	42	C	10/06/2021	01:51	-131.875	47.101	0	278.00	0	5.8030	0	33.8360	0	26.660	0	275.505	0	125.6	4	41.3	4	-1E+10	1	-1E+10	1	-1E+10	1	-1E+10	1	-1E+10	1	-1E+10	1
4902549	42	C	10/06/2021	01:51	-131.875	47.101	0	279.00	0	5.7980	0	33.8360	0	26.661	0	276.495	0	125.2	4	41.2	4	-1E+10	1	-1E+10	1	-1E+10	1	-1E+10	1	-1E+10	1	-1E+10	1
4902549	42	C	10/06/2021	01:51	-131.875	47.101	0	280.10	0	5.7930	0	33.8350	0	26.661	0	277.584	0	124.9	4	41.1	4	-1E+10	1	-1E+10	1	-1E+10	1	-1E+10	1	-1E+10	1	-1E+10	1
4902549	42	C	10/06/2021	01:51	-131.875	47.101	0	281.10	0	5.7900	0	33.8350	0	26.661	0	278.575	0	124.5	4	40.9	4	-1E+10	1	-1E+10	1	-1E+10	1	-1E+10	1	-1E+10	1	-1E+10	1
4902549	42	C	10/06/2021	01:51	-131.875	47.101	0	282.20	0	5.7750	0	33.8370	0	26.665	0	279.664	0	124.2	4	40.8	4	-1E+10	1	-1E+10	1	-1E+10	1	-1E+10	1	-1E+10	1	-1E+10	1
4902549	42	C	10/06/2021	01:51	-131.875	47.101	0	283.20	0	5.7590	0	33.8360	0	26.666	0	280.654	0	123.9	4	40.7	4	-1E+10	1	-1E+10	1	-1E+10	1	-1E+10	1	-1E+10	1	-1E+10	1
4902549	42	C	10/06/2021	01:51	-131.875	47.101	0	284.30	0	5.7510	0	33.8360	0	26.667	0	281.744	0	123.6	4	40.6	4	-1E+10	1	-1E+10	1	-1E+10	1	-1E+10	1	-1E+10	1	-1E+10	1
4902549	42	C	10/06/2021	01:51	-131.875	47.101	0	285.30	0	5.7440	0	33.8360	0	26.668	0	282.734	0	123.2	4	40.5	4	-1E+10	1	-1E+10	1	-1E+10	1	-1E+10	1	-1E+10	1	-1E+10	1
4902549	42	C	10/06/2021	01:51	-131.875	47.101	0	286.30	0	5.7330	0	33.8360	0	26.669	0	283.724	0	122.9	4	40.3	4	-1E+10	1	-1E+10	1	-1E+10	1	-1E+10	1	-1E+10	1	-1E+10	1
4902549	42	C	10/06/2021	01:51	-131.875	47.101	0	287.30	0	5.7300	0	33.8360	0	26.669	0	284.715	0	122.6	4	40.2	4	-1E+10	1	-1E+10	1	-1E+10	1	-1E+10	1	-1E+10	1	-1E+10	1
4902549	42	C	10/06/2021	01:51	-131.875	47.101	0	288.40	0	5.7250	0	33.8360	0	26.670	0	285.804	0	122.1	4	40.1	4	-1E+10	1	-1E+10	1	-1E+10	1	-1E+10	1	-1E+10	1	-1E+10	1
4902549	42	C	10/06/2021	01:51	-131.875	47.101	0	289.40	0	5.7110	0	33.8360	0	26.672	0	286.794	0	121.8	4	40.0	4	-1E+10	1	-1E+10	1	-1E+10	1	-1E+10	1	-1E+10	1	-1E+10	1
4902549	42	C	10/06/2021	01:51	-131.875	47.101	0	290.40	0	5.7070	0	33.8360	0	26.672	0	287.785	0	121.4	4	39.8	4	-1E+10	1	-1E+10	1	-1E+10	1	-1E+10	1	-1E+10	1	-1E+10	1
4902549	42	C	10/06/2021	01:51	-131.875	47.101	0	291.50	0	5.7020	0	33.8360	0	26.673	0	288.874	0	121.0	4	39.7	4	-1E+10	1	-1E+10	1	-1E+10	1	-1E+10	1	-1E+10	1	-1E+10	1
4902549	42	C	10/06/2021	01:51	-131.875	47.101	0	292.50	0	5.6950	0	33.8360	0	26.674	0	289.864	0	120.6	4	39.5	4	-1E+10	1	-1E+10	1	-1E+10	1	-1E+10	1	-1E+10	1	-1E+10	1
4902549	42	C	10/06/2021	01:51	-131.875	47.101	0	293.50	0	5.6880	0	33.8370	0	26.675	0	290.855	0	120.2	4	39.4	4	-1E+10	1	-1E+10	1	-1E+10	1	-1E+10	1	-1E+10	1	-1E+10	1
4902549	42	C	10/06/2021	01:51	-131.875	47.101	0	294.50	0	5.6830	0	33.8380	0	26.677	0	291.845	0	119.7	4	39.2	4	-1E+10	1	-1E+10	1	-1E+10	1	-1E+10	1	-1E+10	1	-1E+10	1
4902549	42	C	10/06/2021	01:51	-131.875	47.101	0	295.50	0	5.6740	0	33.8380	0	26.678	0	292.835	0	119.3	4	39.1	4	-1E+10	1	-1E+10	1	-1E+10	1	-1E+10	1	-1E+10	1	-1E+10	1
4902549	42	C	10/06/2021	01:51	-131.875	47.101	0	296.50	0	5.6680	0	33.8380	0	26.679	0	293.825	0	118.9	4	39.0	4	-1E+10	1	-1E+10	1	-1E+10	1	-1E+10	1	-1E+10	1	-1E+10	1
4902549	42	C	10/06/2021	01:51	-131.875	47.101	0	297.50	0	5.6670	0	33.8370	0	26.678	0	294.816	0	118.4	4	38.8	4	-1E+10	1	-1E+10	1	-1E+10	1	-1E+10	1	-1E+10	1	-1E+10	1
4902549	42	C	10/06/2021	01:51	-131.875	47.101	0	298.50	0	5.6660	0	33.8370	0	26.678	0	295.806	0	117.8	4	38.6	4	-1E+10	1	-1E+10	1	-1E+10	1	-1E+10	1	-1E+10	1	-1E+10	1
4902549	42	C	10/06/2021	01:51	-131.875	47.101	0	299.50	0	5.6190	0	33.8430	0	26.688	0	296.796	0	117.4	4	38.4	4	-1E+10	1	-1E+10	1	-1E+10	1	-1E+10	1	-1E+10	1	-1E+10	1
4902549	42	C	10/06/2021	01:51	-131.875	47.101	0	300.90	0	5.5900	0	33.8370	0	26.687	0	298.182	0	116.8	4	38.2	4	-1E+10	1	-1E+10	1	-1E+10	1	-1E+10	1	-1E+10	1	-1E+10	1
4902549	42	C	10/06/2021	01:51	-131.875	47.101	0	302.40	0	5.5810	0	33.8360	0	26.688	0	299.668	0	116.1	4	38.0	4	-1E+10	1	-1E+10	1	-1E+10	1	-1E+10	1	-1E+10	1	-1E+10	1
4902549	42	C	10/06/2021	01:51	-131.875	47.101	0	303.40	0	5.5580	0	33.8360	0	26.690	0	300.658	0	115.6	4	37.8	4	-1E+10	1	-1E+10	1	-1E+10	1	-1E+10	1	-1E+10	1	-1E+10	1
4902549	42	C	10/06/2021	01:51	-131.875	47.101	0	304.40	0	5.5510	0	33.8370	0	26.692	0	301.648	0	115.2	4	37.7	4	-1E+10	1	-1E+10	1	-1E+10	1	-1E+10	1	-1E+10	1	-1E+10	1
4902549	42	C	10/06/2021	01:51	-131.875	47.101	0	305.40	0	5.5400	0	33.8380	0	26.694	0	302.639	0	114.8	4	37.5	4	-1E+10	1	-1E+10	1	-1E+10	1	-1E+10	1	-1E+10	1	-1E+10	1
4902549	42	C	10/06/2021	01:51	-131.875	47.101	0	306.90	0	5.5050	0	33.8390	0	26.699	0	304.124	0	114.2	4	37.3	4	-1E+10	1	-1E+10	1	-1E+10	1	-1E+10	1	-1E+10	1	-1E+10	1
4902549	42	C	10/06/2021	01:51	-131.875	47.101	0	308.40	0	5.4950	0	33.8390	0	26.700	0	305.609	0	113.6	4	37.1	4	-1E+10	1	-1E+10	1	-1E+10	1	-1E+10	1	-1E+10	1	-1E+10	1
4902549	42	C	10/06/2021	01:51	-131.875	47.101	0	309.40	0	5.4910	0	33.8390	0	26.701	0	306.599	0	113.1	4	36.9	4	-1E+10	1	-1E+10	1	-1E+10	1	-1E+10	1	-1E+10	1	-1E+10	1
4902549	42	C	10/06/2021	01:51	-131.875	47.101	0	310.40	0	5.4850	0	33.8390	0	26.701	0	307.590	0	112.6	4	36.7	4	-1E+10	1	-1E+10	1	-1E+10	1	-1E+10	1	-1E+10	1	-1E+10	1
4902549	42	C	10/06/2021	01:51	-131.875	47.101	0	311.40	0	5.4770	0	33.8410	0	26.704	0	308.580	0	112.1	4	36.6	4	-1E+10	1	-1E+10	1	-1E+10	1	-1E+10	1	-1E+10	1	-1E+10	1
4902549	42	C	10/06/2021	01:51	-131.875	47.101	0	312.40	0	5.4580	0	33.8400	0	26.705	0	309.570	0	111.7	4	36.4	4	-1E+10	1	-1E+10	1	-1E+10	1	-1E+10	1	-1E+10	1	-1E+10	1
4902549	42	C	10/06/2021	01:51	-131.875	47.101	0	313.40	0	5.4280	0	33.8420	0	26.711	0	310.560	0	111.4	4	36.3	4	-1E+10	1	-1E+10	1	-1E+10	1	-1E+10	1	-1E+10	1	-1E+10	1
4902549	42	C	10/06/2021	01:51	-131.875	47.101	0	314.40	0	5.4250	0	33.8400	0	26.709	0	311.550	0	111.0	4	36.1	4	-1E+10	1	-1E+10	1	-1E+10	1	-1E+10	1	-1E+10	1	-1E+10	1
4902549	42	C	10/06/2021	01:51	-131.875	47.101	0	315.40	0	5.4220	0	33.8400	0	26.710	0	312.541	0	110.6	4	36.0	4	-1E+10	1	-1E+10	1	-1E+10	1	-1E+10	1	-1E+10	1	-1E+10	1
4902549	42	C	10/06/2021	01:51	-131.875	47.101	0	316.30	0	5.4090	0	33.8420	0	26.713	0	313.432	0	110.2	4	35.9	4	-1E+10	1	-1E+10	1	-1E+10	1	-1E+10	1	-1E+10	1	-1E+10	1
4902549	42	C	10/06/2021	01:51	-131.875	47.101	0	317.30	0	5.3970	0	33.8460	0	26.717	0	314.422	0	109.9	4	35.8	4	-1E+10	1	-1E+10	1	-1E+10	1	-1E+10	1	-1E+10	1	-1E+10	1
4902549	42	C	10/06/2021	01:51	-131.875	47.101	0	318.30	0	5.3770	0	33.8440	0	26.718	0	315.412	0	109.7	4	35.7	4	-1E+10	1	-1E+10	1	-1E+10	1	-1E+10	1	-1E+10	1	-1E+10	1
4902549	42	C	10/06/2021	01:51	-131.875	47.101	0	319.30	0	5.3730	0	33.8430	0	26.718	0	316.402	0	109.4	4	35.6	4	-1E+10	1	-1E+10	1	-1E+10	1	-1E+10	1	-1E+10	1	-1E+10	1
4902549	42	C	10/06/2021	01:51	-131.875	47.101	0	320.30	0	5.3720	0	33.8430	0	26.718	0	317.392	0	109.1	4	35.5	4	-1E+10	1	-1E+10	1	-1E+10	1	-1E+10	1	-1E+10	1	-1E+10	1
4902549	42	C	10/06/2021	01:51	-131.875	47.101	0	321.30	0	5.3660	0	33.8430	0	26.719	0	318.383	0	108.8	4	35.4	4	-1E+10	1	-1E+10	1	-1E+10	1	-1E+10	1	-1E+10	1	-1E+10	1
4902549	42	C	10/06/2021	01:51	-131.875	47.101	0	322.30	0	5.3650	0	33.8440	0	26.720	0	319.373	0	108.4	4	35.3	4	-1E+10	1	-1E+10	1	-1E+10	1	-1E+10	1	-1E+10	1	-1E+10	1
4902549	42	C	10/06/2021	01:51	-131.875	47.101	0	323.30	0	5.3600	0	33.8430	0	26.719	0	320.363	0	108.1	4	35.2	4	-1E+10	1	-1E+10	1	-1E+10	1	-1E+10	1	-1E+10	1	-1E+10	1
4902549	42	C	10/06/2021	01:51	-131.875	47.101	0	324.30	0	5.3600	0	33.8420	0	26.719	0	321.353	0	107.6	4	35.0	4	-1E+10	1	-1E+10	1	-1E+10	1	-1E+10	1	-1E+10	1	-1E+10	1
4902549	42	C	10/06/2021	01:51	-131.875	47.101	0	325.20	0	5.3500	0	33.8430	0	26.721	0	322.244	0	107.1	4	34.8	4	-1E+10	1	-1E+10	1	-1E+10	1	-1E+10	1	-1E+10	1	-1E+10	1
4902549	42	C	10/06/2021	01:51	-131.875	47.101	0	326.20	0	5.3270	0	33.8440	0	26.724	0	323.234	0	106.7	4	34.7	4	-1E+10	1	-1E+10	1	-1E+10	1	-1E+10	1	-1E+10	1	-1E+10	1
4902549	42	C	10/06/2021	01:51	-131.875	47.101	0	327.20	0	5.3180	0	33.8440	0	26.725	0	324.224	0	106.3	4	34.5	4	-1E+10	1	-1E+10	1	-1E+10	1	-1E+10	1	-1E+10	1	-1E+10	1
4902549	42	C	10/06/2021	01:51	-131.875	47.101	0	328.20	0	5.3050	0	33.8440	0	26.727	0	325.215	0	105.9	4	34.4	4	-1E+10	1	-1E+10	1	-1E+10	1	-1E+10	1	-1E+10	1	-1E+10	1
4902549	42	C	10/06/2021	01:51	-131.875	47.101	0	329.10	0	5.2990	0	33.8440	0	26.727	0	326.106	0	105.5	4	34.3	4	-1E+10	1	-1E+10	1	-1E+10	1	-1E+10	1	-1E+10	1	-1E+10	1
4902549	42	C	10/06/2021	01:51	-131.875	47.101	0	330.10	0	5.2880	0	33.8430	0	26.728	0	327.096	0	105.0	4	34.1	4	-1E+10	1	-1E+10	1	-1E+10	1	-1E+10	1	-1E+10	1	-1E+10	1
4902549	42	C	10/06/2021	01:51	-131.875	47.101	0	331.10	0	5.2750	0	33.8440	0	26.730	0	328.086	0	104.5	4	33.9	4	-1E+10	1	-1E+10	1	-1E+10	1	-1E+10	1	-1E+10	1	-1E+10	1
4902549	42	C	10/06/2021	01:51	-131.875	47.101	0	332.00	0	5.2630	0	33.8450	0	26.732	0	328.977	0	104.1	4	33.8	4	-1E+10	1	-1E+10	1	-1E+10	1	-1E+10	1	-1E+10	1	-1E+10	1
4902549	42	C	10/06/2021	01:51	-131.875	47.101	0	333.00	0	5.2600	0	33.8470	0	26.734	0	329.967	0	103.7	4	33.6	4	-1E+10	1	-1E+10	1	-1E+10	1	-1E+10	1	-1E+10	1	-1E+10	1
4902549	42	C	10/06/2021	01:51	-131.875	47.101	0	334.00	0	5.2520	0	33.8520	0	26.739	0	330.957	0	103.4	4	33.5	4	-1E+10	1	-1E+10	1	-1E+10	1	-1E+10	1	-1E+10	1	-1E+10	1
4902549	42	C	10/06/2021	01:51	-131.875	47.101	0	335.00	0	5.2400	0	33.8490	0	26.738	0	331.947	0	103.0	4	33.4	4	-1E+10	1	-1E+10	1	-1E+10	1	-1E+10	1	-1E+10	1	-1E+10	1
4902549	42	C	10/06/2021	01:51	-131.875	47.101	0	336.00	0	5.2370	0	33.8490	0	26.739	0	332.937	0	102.6	4	33.3	4	-1E+10	1	-1E+10	1	-1E+10	1	-1E+10	1	-1E+10	1	-1E+10	1
4902549	42	C	10/06/2021	01:51	-131.875	47.101	0	337.00	0	5.2290	0	33.8490	0	26.740	0	333.927	0	102.2	4	33.1	4	-1E+10	1	-1E+10	1	-1E+10	1	-1E+10	1	-1E+10	1	-1E+10	1
4902549	42	C	10/06/2021	01:51	-131.875	47.101	0	338.00	0	5.2230	0	33.8500	0	26.741	0	334.917	0	101.8	4	33.0	4	-1E+10	1	-1E+10	1	-1E+10	1	-1E+10	1	-1E+10	1	-1E+10	1
4902549	42	C	10/06/2021	01:51	-131.875	47.101	0	339.00	0	5.2010	0	33.8510	0	26.744	0	335.908	0	101.4	4	32.9	4	-1E+10	1	-1E+10	1	-1E+10	1	-1E+10	1	-1E+10	1	-1E+10	1
4902549	42	C	10/06/2021	01:51	-131.875	47.101	0	340.00	0	5.2010	0	33.8520	0	26.745	0	336.898	0	101.1	4	32.8	4	-1E+10	1	-1E+10	1	-1E+10	1	-1E+10	1	-1E+10	1	-1E+10	1
4902549	42	C	10/06/2021	01:51	-131.875	47.101	0	341.00	0	5.1980	0	33.8540	0	26.747	0	337.888	0	100.8	4	32.7	4	-1E+10	1	-1E+10	1	-1E+10	1	-1E+10	1	-1E+10	1	-1E+10	1
4902549	42	C	10/06/2021	01:51	-131.875	47.101	0	342.00	0	5.2000	0	33.8560	0	26.749	0	338.878	0	100.5	4	32.6	4	-1E+10	1	-1E+10	1	-1E+10	1	-1E+10	1	-1E+10	1	-1E+10	1
4902549	42	C	10/06/2021	01:51	-131.875	47.101	0	343.00	0	5.2030	0	33.8580	0	26.750	0	339.868	0	100.2	4	32.5	4	-1E+10	1	-1E+10	1	-1E+10	1	-1E+10	1	-1E+10	1	-1E+10	1
4902549	42	C	10/06/2021	01:51	-131.875	47.101	0	343.90	0	5.2040	0	33.8590	0	26.750	0	340.759	0	99.9	4	32.4	4	-1E+10	1	-1E+10	1	-1E+10	1	-1E+10	1	-1E+10	1	-1E+10	1
4902549	42	C	10/06/2021	01:51	-131.875	47.101	0	344.90	0	5.2060	0	33.8600	0	26.751	0	341.749	0	99.5	4	32.3	4	-1E+10	1	-1E+10	1	-1E+10	1	-1E+10	1	-1E+10	1	-1E+10	1
4902549	42	C	10/06/2021	01:51	-131.875	47.101	0	345.90	0	5.2060	0	33.8610	0	26.752	0	342.739	0	99.2	4	32.2	4	-1E+10	1	-1E+10	1	-1E+10	1	-1E+10	1	-1E+10	1	-1E+10	1
4902549	42	C	10/06/2021	01:51	-131.875	47.101	0	346.90	0	5.2070	0	33.8620	0	26.753	0	343.729	0	98.8	4	32.0	4	-1E+10	1	-1E+10	1	-1E+10	1	-1E+10	1	-1E+10	1	-1E+10	1
4902549	42	C	10/06/2021	01:51	-131.875	47.101	0	347.90	0	5.2070	0	33.8610	0	26.752	0	344.719	0	98.4	4	31.9	4	-1E+10	1	-1E+10	1	-1E+10	1	-1E+10	1	-1E+10	1	-1E+10	1
4902549	42	C	10/06/2021	01:51	-131.875	47.101	0	348.90	0	5.2040	0	33.8640	0	26.755	0	345.709	0	97.9	4	31.7	4	-1E+10	1	-1E+10	1	-1E+10	1	-1E+10	1	-1E+10	1	-1E+10	1
4902549	42	C	10/06/2021	01:51	-131.875	47.101	0	349.80	0	5.2030	0	33.8620	0	26.753	0	346.600	0	97.4	4	31.6	4	-1E+10	1	-1E+10	1	-1E+10	1	-1E+10	1	-1E+10	1	-1E+10	1
4902549	42	C	10/06/2021	01:51	-131.875	47.101	0	352.60	0	5.1800	0	33.8640	0	26.757	0	349.372	0	95.6	4	31.0	4	-1E+10	1	-1E+10	1	-1E+10	1	-1E+10	1	-1E+10	1	-1E+10	1
4902549	42	C	10/06/2021	01:51	-131.875	47.101	0	357.90	0	5.1060	0	33.8680	0	26.769	0	354.619	0	93.4	4	30.2	4	-1E+10	1	-1E+10	1	-1E+10	1	-1E+10	1	-1E+10	1	-1E+10	1
4902549	42	C	10/06/2021	01:51	-131.875	47.101	0	363.30	0	5.0630	0	33.8700	0	26.776	0	359.965	0	91.4	4	29.5	4	-1E+10	1	-1E+10	1	-1E+10	1	-1E+10	1	-1E+10	1	-1E+10	1
4902549	42	C	10/06/2021	01:51	-131.875	47.101	0	368.10	0	5.0290	0	33.8720	0	26.781	0	364.716	0	89.3	4	28.8	4	-1E+10	1	-1E+10	1	-1E+10	1	-1E+10	1	-1E+10	1	-1E+10	1
4902549	42	C	10/06/2021	01:51	-131.875	47.101	0	373.00	0	4.9770	0	33.8750	0	26.789	0	369.567	0	87.4	4	28.2	4	-1E+10	1	-1E+10	1	-1E+10	1	-1E+10	1	-1E+10	1	-1E+10	1
4902549	42	C	10/06/2021	01:51	-131.875	47.101	0	377.90	0	4.9500	0	33.8770	0	26.794	0	374.418	0	85.3	4	27.5	4	-1E+10	1	-1E+10	1	-1E+10	1	-1E+10	1	-1E+10	1	-1E+10	1
4902549	42	C	10/06/2021	01:51	-131.875	47.101	0	382.70	0	4.9200	0	33.8820	0	26.801	0	379.169	0	82.8	4	26.7	4	-1E+10	1	-1E+10	1	-1E+10	1	-1E+10	1	-1E+10	1	-1E+10	1
4902549	42	C	10/06/2021	01:51	-131.875	47.101	0	387.60	0	4.8540	0	33.8890	0	26.814	0	384.019	0	80.6	4	25.9	4	-1E+10	1	-1E+10	1	-1E+10	1	-1E+10	1	-1E+10	1	-1E+10	1
4902549	42	C	10/06/2021	01:51	-131.875	47.101	0	392.90	0	4.8130	0	33.8900	0	26.820	0	389.265	0	78.8	4	25.3	4	-1E+10	1	-1E+10	1	-1E+10	1	-1E+10	1	-1E+10	1	-1E+10	1
4902549	42	C	10/06/2021	01:51	-131.875	47.101	0	398.20	0	4.7900	0	33.8920	0	26.824	0	394.511	0	76.9	4	24.7	4	-1E+10	1	-1E+10	1	-1E+10	1	-1E+10	1	-1E+10	1	-1E+10	1
4902549	42	C	10/06/2021	01:51	-131.875	47.101	0	403.10	0	4.7650	0	33.8970	0	26.831	0	399.361	0	74.2	4	23.8	4	-1E+10	1	-1E+10	1	-1E+10	1	-1E+10	1	-1E+10	1	-1E+10	1
4902549	42	C	10/06/2021	01:51	-131.875	47.101	0	408.00	0	4.7170	0	33.9040	0	26.842	0	404.211	0	71.8	4	23.0	4	-1E+10	1	-1E+10	1	-1E+10	1	-1E+10	1	-1E+10	1	-1E+10	1
4902549	42	C	10/06/2021	01:51	-131.875	47.101	0	412.90	0	4.6730	0	33.9110	0	26.852	0	409.061	0	69.7	4	22.3	4	-1E+10	1	-1E+10	1	-1E+10	1	-1E+10	1	-1E+10	1	-1E+10	1
4902549	42	C	10/06/2021	01:51	-131.875	47.101	0	417.80	0	4.6490	0	33.9160	0	26.859	0	413.910	0	67.8	4	21.7	4	-1E+10	1	-1E+10	1	-1E+10	1	-1E+10	1	-1E+10	1	-1E+10	1
4902549	42	C	10/06/2021	01:51	-131.875	47.101	0	422.80	0	4.6270	0	33.9240	0	26.867	0	418.858	0	66.1	4	21.2	4	-1E+10	1	-1E+10	1	-1E+10	1	-1E+10	1	-1E+10	1	-1E+10	1
4902549	42	C	10/06/2021	01:51	-131.875	47.101	0	427.70	0	4.6090	0	33.9310	0	26.875	0	423.708	0	64.3	4	20.6	4	-1E+10	1	-1E+10	1	-1E+10	1	-1E+10	1	-1E+10	1	-1E+10	1
4902549	42	C	10/06/2021	01:51	-131.875	47.101	0	432.90	0	4.5860	0	33.9380	0	26.883	0	428.854	0	62.3	4	19.9	4	-1E+10	1	-1E+10	1	-1E+10	1	-1E+10	1	-1E+10	1	-1E+10	1
4902549	42	C	10/06/2021	01:51	-131.875	47.101	0	437.90	0	4.5530	0	33.9490	0	26.895	0	433.802	0	60.1	4	19.2	4	-1E+10	1	-1E+10	1	-1E+10	1	-1E+10	1	-1E+10	1	-1E+10	1
4902549	42	C	10/06/2021	01:51	-131.875	47.101	0	443.00	0	4.5290	0	33.9560	0	26.904	0	438.849	0	58.3	4	18.6	4	-1E+10	1	-1E+10	1	-1E+10	1	-1E+10	1	-1E+10	1	-1E+10	1
4902549	42	C	10/06/2021	01:51	-131.875	47.101	0	447.80	0	4.5070	0	33.9630	0	26.912	0	443.599	0	56.9	4	18.1	4	-1E+10	1	-1E+10	1	-1E+10	1	-1E+10	1	-1E+10	1	-1E+10	1
4902549	42	C	10/06/2021	01:51	-131.875	47.101	0	452.80	0	4.4900	0	33.9680	0	26.917	0	448.546	0	55.5	4	17.7	4	-1E+10	1	-1E+10	1	-1E+10	1	-1E+10	1	-1E+10	1	-1E+10	1
4902549	42	C	10/06/2021	01:51	-131.875	47.101	0	458.00	0	4.4710	0	33.9740	0	26.924	0	453.692	0	54.2	4	17.3	4	-1E+10	1	-1E+10	1	-1E+10	1	-1E+10	1	-1E+10	1	-1E+10	1
4902549	42	C	10/06/2021	01:51	-131.875	47.101	0	462.90	0	4.4610	0	33.9760	0	26.927	0	458.540	0	53.0	4	16.9	4	-1E+10	1	-1E+10	1	-1E+10	1	-1E+10	1	-1E+10	1	-1E+10	1
4902549	42	C	10/06/2021	01:51	-131.875	47.101	0	467.90	0	4.4430	0	33.9810	0	26.933	0	463.488	0	51.1	4	16.3	4	-1E+10	1	-1E+10	1	-1E+10	1	-1E+10	1	-1E+10	1	-1E+10	1
4902549	42	C	10/06/2021	01:51	-131.875	47.101	0	473.10	0	4.4190	0	33.9890	0	26.942	0	468.633	0	49.3	4	15.7	4	-1E+10	1	-1E+10	1	-1E+10	1	-1E+10	1	-1E+10	1	-1E+10	1
4902549	42	C	10/06/2021	01:51	-131.875	47.101	0	478.00	0	4.3900	0	33.9980	0	26.952	0	473.481	0	48.0	4	15.3	4	-1E+10	1	-1E+10	1	-1E+10	1	-1E+10	1	-1E+10	1	-1E+10	1
4902549	42	C	10/06/2021	01:51	-131.875	47.101	0	483.00	0	4.3820	0	34.0020	0	26.956	0	478.428	0	46.9	4	14.9	4	-1E+10	1	-1E+10	1	-1E+10	1	-1E+10	1	-1E+10	1	-1E+10	1
4902549	42	C	10/06/2021	01:51	-131.875	47.101	0	488.00	0	4.3710	0	34.0050	0	26.960	0	483.375	0	45.7	4	14.5	4	-1E+10	1	-1E+10	1	-1E+10	1	-1E+10	1	-1E+10	1	-1E+10	1
4902549	42	C	10/06/2021	01:51	-131.875	47.101	0	493.10	0	4.3530	0	34.0100	0	26.966	0	488.420	0	44.3	4	14.1	4	-1E+10	1	-1E+10	1	-1E+10	1	-1E+10	1	-1E+10	1	-1E+10	1
4902549	42	C	10/06/2021	01:51	-131.875	47.101	0	497.90	0	4.3360	0	34.0170	0	26.973	0	493.169	0	43.4	4	13.8	4	-1E+10	1	-1E+10	1	-1E+10	1	-1E+10	1	-1E+10	1	-1E+10	1
4902549	42	C	10/06/2021	01:51	-131.875	47.101	0	502.80	0	4.3320	0	34.0190	0	26.975	0	498.017	0	42.5	4	13.5	4	-1E+10	1	-1E+10	1	-1E+10	1	-1E+10	1	-1E+10	1	-1E+10	1
4902549	42	C	10/06/2021	01:51	-131.875	47.101	0	507.70	0	4.3200	0	34.0230	0	26.980	0	502.864	0	41.4	4	13.2	4	-1E+10	1	-1E+10	1	-1E+10	1	-1E+10	1	-1E+10	1	-1E+10	1
4902549	42	C	10/06/2021	01:51	-131.875	47.101	0	512.70	0	4.3090	0	34.0280	0	26.985	0	507.811	0	40.5	4	12.9	4	-1E+10	1	-1E+10	1	-1E+10	1	-1E+10	1	-1E+10	1	-1E+10	1
4902549	42	C	10/06/2021	01:51	-131.875	47.101	0	517.80	0	4.3000	0	34.0320	0	26.989	0	512.856	0	39.5	4	12.6	4	-1E+10	1	-1E+10	1	-1E+10	1	-1E+10	1	-1E+10	1	-1E+10	1
4902549	42	C	10/06/2021	01:51	-131.875	47.101	0	522.90	0	4.2890	0	34.0350	0	26.993	0	517.901	0	38.6	4	12.3	4	-1E+10	1	-1E+10	1	-1E+10	1	-1E+10	1	-1E+10	1	-1E+10	1
4902549	42	C	10/06/2021	01:51	-131.875	47.101	0	528.00	0	4.2830	0	34.0390	0	26.996	0	522.945	0	37.5	4	11.9	4	-1E+10	1	-1E+10	1	-1E+10	1	-1E+10	1	-1E+10	1	-1E+10	1
4902549	42	C	10/06/2021	01:51	-131.875	47.101	0	533.10	0	4.2710	0	34.0440	0	27.002	0	527.990	0	36.6	4	11.6	4	-1E+10	1	-1E+10	1	-1E+10	1	-1E+10	1	-1E+10	1	-1E+10	1
4902549	42	C	10/06/2021	01:51	-131.875	47.101	0	538.30	0	4.2610	0	34.0480	0	27.006	0	533.134	0	35.8	4	11.4	4	-1E+10	1	-1E+10	1	-1E+10	1	-1E+10	1	-1E+10	1	-1E+10	1
4902549	42	C	10/06/2021	01:51	-131.875	47.101	0	542.90	0	4.2510	0	34.0520	0	27.010	0	537.683	0	35.2	4	11.2	4	-1E+10	1	-1E+10	1	-1E+10	1	-1E+10	1	-1E+10	1	-1E+10	1
4902549	42	C	10/06/2021	01:51	-131.875	47.101	0	547.60	0	4.2430	0	34.0540	0	27.013	0	542.332	0	34.5	4	10.9	4	-1E+10	1	-1E+10	1	-1E+10	1	-1E+10	1	-1E+10	1	-1E+10	1
4902549	42	C	10/06/2021	01:51	-131.875	47.101	0	553.00	0	4.2340	0	34.0580	0	27.017	0	547.673	0	33.7	4	10.7	4	-1E+10	1	-1E+10	1	-1E+10	1	-1E+10	1	-1E+10	1	-1E+10	1
4902549	42	C	10/06/2021	01:51	-131.875	47.101	0	558.30	0	4.2240	0	34.0610	0	27.020	0	552.915	0	32.9	4	10.4	4	-1E+10	1	-1E+10	1	-1E+10	1	-1E+10	1	-1E+10	1	-1E+10	1
4902549	42	C	10/06/2021	01:51	-131.875	47.101	0	563.00	0	4.2130	0	34.0650	0	27.025	0	557.563	0	32.2	4	10.2	4	-1E+10	1	-1E+10	1	-1E+10	1	-1E+10	1	-1E+10	1	-1E+10	1
4902549	42	C	10/06/2021	01:51	-131.875	47.101	0	567.70	0	4.2030	0	34.0680	0	27.028	0	562.212	0	31.5	4	10.0	4	-1E+10	1	-1E+10	1	-1E+10	1	-1E+10	1	-1E+10	1	-1E+10	1
4902549	42	C	10/06/2021	01:51	-131.875	47.101	0	572.90	0	4.1920	0	34.0720	0	27.033	0	567.354	0	30.7	4	9.7	4	-1E+10	1	-1E+10	1	-1E+10	1	-1E+10	1	-1E+10	1	-1E+10	1
4902549	42	C	10/06/2021	01:51	-131.875	47.101	0	578.10	0	4.1850	0	34.0750	0	27.036	0	572.497	0	29.9	4	9.5	4	-1E+10	1	-1E+10	1	-1E+10	1	-1E+10	1	-1E+10	1	-1E+10	1
4902549	42	C	10/06/2021	01:51	-131.875	47.101	0	582.70	0	4.1780	0	34.0770	0	27.038	0	577.046	0	29.1	4	9.2	4	-1E+10	1	-1E+10	1	-1E+10	1	-1E+10	1	-1E+10	1	-1E+10	1
4902549	42	C	10/06/2021	01:51	-131.875	47.101	0	587.80	0	4.1640	0	34.0830	0	27.044	0	582.089	0	28.2	4	8.9	4	-1E+10	1	-1E+10	1	-1E+10	1	-1E+10	1	-1E+10	1	-1E+10	1
4902549	42	C	10/06/2021	01:51	-131.875	47.101	0	592.80	0	4.1540	0	34.0870	0	27.049	0	587.034	0	27.3	4	8.6	4	-1E+10	1	-1E+10	1	-1E+10	1	-1E+10	1	-1E+10	1	-1E+10	1
4902549	42	C	10/06/2021	01:51	-131.875	47.101	0	597.90	0	4.1400	0	34.0920	0	27.054	0	592.077	0	26.5	4	8.4	4	-1E+10	1	-1E+10	1	-1E+10	1	-1E+10	1	-1E+10	1	-1E+10	1
4902549	42	C	10/06/2021	01:51	-131.875	47.101	0	602.90	0	4.1260	0	34.0960	0	27.059	0	597.021	0	25.7	4	8.1	4	-1E+10	1	-1E+10	1	-1E+10	1	-1E+10	1	-1E+10	1	-1E+10	1
4902549	42	C	10/06/2021	01:51	-131.875	47.101	0	607.90	0	4.1170	0	34.0990	0	27.062	0	601.965	0	24.9	4	7.9	4	-1E+10	1	-1E+10	1	-1E+10	1	-1E+10	1	-1E+10	1	-1E+10	1
4902549	42	C	10/06/2021	01:51	-131.875	47.101	0	612.80	0	4.0970	0	34.1040	0	27.068	0	606.810	0	24.0	4	7.6	4	-1E+10	1	-1E+10	1	-1E+10	1	-1E+10	1	-1E+10	1	-1E+10	1
4902549	42	C	10/06/2021	01:51	-131.875	47.101	0	617.60	0	4.0750	0	34.1110	0	27.076	0	611.556	0	23.1	4	7.3	4	-1E+10	1	-1E+10	1	-1E+10	1	-1E+10	1	-1E+10	1	-1E+10	1
4902549	42	C	10/06/2021	01:51	-131.875	47.101	0	623.00	0	4.0610	0	34.1160	0	27.081	0	616.895	0	22.1	4	7.0	4	-1E+10	1	-1E+10	1	-1E+10	1	-1E+10	1	-1E+10	1	-1E+10	1
4902549	42	C	10/06/2021	01:51	-131.875	47.101	0	627.90	0	4.0450	0	34.1230	0	27.089	0	621.740	0	21.4	4	6.8	4	-1E+10	1	-1E+10	1	-1E+10	1	-1E+10	1	-1E+10	1	-1E+10	1
4902549	42	C	10/06/2021	01:51	-131.875	47.101	0	632.90	0	4.0300	0	34.1280	0	27.094	0	626.683	0	20.7	4	6.5	4	-1E+10	1	-1E+10	1	-1E+10	1	-1E+10	1	-1E+10	1	-1E+10	1
4902549	42	C	10/06/2021	01:51	-131.875	47.101	0	637.90	0	4.0220	0	34.1320	0	27.098	0	631.627	0	20.0	4	6.3	4	-1E+10	1	-1E+10	1	-1E+10	1	-1E+10	1	-1E+10	1	-1E+10	1
4902549	42	C	10/06/2021	01:51	-131.875	47.101	0	642.80	0	4.0010	0	34.1390	0	27.106	0	636.471	0	19.2	4	6.0	4	-1E+10	1	-1E+10	1	-1E+10	1	-1E+10	1	-1E+10	1	-1E+10	1
4902549	42	C	10/06/2021	01:51	-131.875	47.101	0	648.00	0	3.9830	0	34.1460	0	27.113	0	641.612	0	18.4	4	5.8	4	-1E+10	1	-1E+10	1	-1E+10	1	-1E+10	1	-1E+10	1	-1E+10	1
4902549	42	C	10/06/2021	01:51	-131.875	47.101	0	653.20	0	3.9540	0	34.1530	0	27.122	0	646.752	0	18.0	4	5.7	4	-1E+10	1	-1E+10	1	-1E+10	1	-1E+10	1	-1E+10	1	-1E+10	1
4902549	42	C	10/06/2021	01:51	-131.875	47.101	0	658.00	0	3.9320	0	34.1580	0	27.128	0	651.497	0	17.5	4	5.5	4	-1E+10	1	-1E+10	1	-1E+10	1	-1E+10	1	-1E+10	1	-1E+10	1
4902549	42	C	10/06/2021	01:51	-131.875	47.101	0	662.90	0	3.9040	0	34.1650	0	27.137	0	656.341	0	17.0	4	5.4	4	-1E+10	1	-1E+10	1	-1E+10	1	-1E+10	1	-1E+10	1	-1E+10	1
4902549	42	C	10/06/2021	01:51	-131.875	47.101	0	668.00	0	3.8940	0	34.1680	0	27.140	0	661.383	0	16.7	4	5.3	4	-1E+10	1	-1E+10	1	-1E+10	1	-1E+10	1	-1E+10	1	-1E+10	1
4902549	42	C	10/06/2021	01:51	-131.875	47.101	0	673.00	0	3.8780	0	34.1720	0	27.145	0	666.325	0	16.4	4	5.2	4	-1E+10	1	-1E+10	1	-1E+10	1	-1E+10	1	-1E+10	1	-1E+10	1
4902549	42	C	10/06/2021	01:51	-131.875	47.101	0	677.80	0	3.8660	0	34.1750	0	27.149	0	671.070	0	16.1	4	5.1	4	-1E+10	1	-1E+10	1	-1E+10	1	-1E+10	1	-1E+10	1	-1E+10	1
4902549	42	C	10/06/2021	01:51	-131.875	47.101	0	682.70	0	3.8590	0	34.1760	0	27.150	0	675.913	0	15.8	4	5.0	4	-1E+10	1	-1E+10	1	-1E+10	1	-1E+10	1	-1E+10	1	-1E+10	1
4902549	42	C	10/06/2021	01:51	-131.875	47.101	0	688.00	0	3.8450	0	34.1800	0	27.155	0	681.152	0	15.4	4	4.9	4	-1E+10	1	-1E+10	1	-1E+10	1	-1E+10	1	-1E+10	1	-1E+10	1
4902549	42	C	10/06/2021	01:51	-131.875	47.101	0	693.00	0	3.8360	0	34.1820	0	27.157	0	686.094	0	15.1	4	4.8	4	-1E+10	1	-1E+10	1	-1E+10	1	-1E+10	1	-1E+10	1	-1E+10	1
4902549	42	C	10/06/2021	01:51	-131.875	47.101	0	697.70	0	3.8200	0	34.1870	0	27.163	0	690.739	0	14.8	4	4.7	4	-1E+10	1	-1E+10	1	-1E+10	1	-1E+10	1	-1E+10	1	-1E+10	1
4902549	42	C	10/06/2021	01:51	-131.875	47.101	0	702.70	0	3.8110	0	34.1890	0	27.165	0	695.681	0	14.4	4	4.5	4	-1E+10	1	-1E+10	1	-1E+10	1	-1E+10	1	-1E+10	1	-1E+10	1
4902549	42	C	10/06/2021	01:51	-131.875	47.101	0	707.80	0	3.8020	0	34.1920	0	27.169	0	700.722	0	14.0	4	4.4	4	-1E+10	1	-1E+10	1	-1E+10	1	-1E+10	1	-1E+10	1	-1E+10	1
4902549	42	C	10/06/2021	01:51	-131.875	47.101	0	712.60	0	3.7870	0	34.1960	0	27.173	0	705.465	0	13.7	4	4.3	4	-1E+10	1	-1E+10	1	-1E+10	1	-1E+10	1	-1E+10	1	-1E+10	1
4902549	42	C	10/06/2021	01:51	-131.875	47.101	0	717.80	0	3.7660	0	34.2010	0	27.179	0	710.605	0	13.4	4	4.2	4	-1E+10	1	-1E+10	1	-1E+10	1	-1E+10	1	-1E+10	1	-1E+10	1
4902549	42	C	10/06/2021	01:51	-131.875	47.101	0	723.10	0	3.7560	0	34.2030	0	27.182	0	715.842	0	13.0	4	4.1	4	-1E+10	1	-1E+10	1	-1E+10	1	-1E+10	1	-1E+10	1	-1E+10	1
4902549	42	C	10/06/2021	01:51	-131.875	47.101	0	728.00	0	3.7430	0	34.2070	0	27.187	0	720.685	0	12.7	4	4.0	4	-1E+10	1	-1E+10	1	-1E+10	1	-1E+10	1	-1E+10	1	-1E+10	1
4902549	42	C	10/06/2021	01:51	-131.875	47.101	0	733.00	0	3.7350	0	34.2090	0	27.189	0	725.626	0	12.2	4	3.8	4	-1E+10	1	-1E+10	1	-1E+10	1	-1E+10	1	-1E+10	1	-1E+10	1
4902549	42	C	10/06/2021	01:51	-131.875	47.101	0	738.30	0	3.7180	0	34.2150	0	27.195	0	730.863	0	11.7	4	3.7	4	-1E+10	1	-1E+10	1	-1E+10	1	-1E+10	1	-1E+10	1	-1E+10	1
4902549	42	C	10/06/2021	01:51	-131.875	47.101	0	743.10	0	3.7070	0	34.2200	0	27.201	0	735.606	0	11.3	4	3.6	4	-1E+10	1	-1E+10	1	-1E+10	1	-1E+10	1	-1E+10	1	-1E+10	1
4902549	42	C	10/06/2021	01:51	-131.875	47.101	0	747.70	0	3.6940	0	34.2240	0	27.205	0	740.152	0	11.0	4	3.5	4	-1E+10	1	-1E+10	1	-1E+10	1	-1E+10	1	-1E+10	1	-1E+10	1
4902549	42	C	10/06/2021	01:51	-131.875	47.101	0	752.90	0	3.6800	0	34.2290	0	27.210	0	745.290	0	10.8	4	3.4	4	-1E+10	1	-1E+10	1	-1E+10	1	-1E+10	1	-1E+10	1	-1E+10	1
4902549	42	C	10/06/2021	01:51	-131.875	47.101	0	758.30	0	3.6670	0	34.2320	0	27.214	0	750.626	0	10.5	4	3.3	4	-1E+10	1	-1E+10	1	-1E+10	1	-1E+10	1	-1E+10	1	-1E+10	1
4902549	42	C	10/06/2021	01:51	-131.875	47.101	0	763.00	0	3.6600	0	34.2350	0	27.217	0	755.270	0	10.4	4	3.2	4	-1E+10	1	-1E+10	1	-1E+10	1	-1E+10	1	-1E+10	1	-1E+10	1
4902549	42	C	10/06/2021	01:51	-131.875	47.101	0	767.80	0	3.6460	0	34.2370	0	27.220	0	760.012	0	10.2	4	3.2	4	-1E+10	1	-1E+10	1	-1E+10	1	-1E+10	1	-1E+10	1	-1E+10	1
4902549	42	C	10/06/2021	01:51	-131.875	47.101	0	772.70	0	3.6310	0	34.2400	0	27.224	0	764.854	0	10.0	4	3.1	4	-1E+10	1	-1E+10	1	-1E+10	1	-1E+10	1	-1E+10	1	-1E+10	1
4902549	42	C	10/06/2021	01:51	-131.875	47.101	0	777.70	0	3.6230	0	34.2430	0	27.227	0	769.794	0	9.9	4	3.1	4	-1E+10	1	-1E+10	1	-1E+10	1	-1E+10	1	-1E+10	1	-1E+10	1
4902549	42	C	10/06/2021	01:51	-131.875	47.101	0	782.70	0	3.6130	0	34.2450	0	27.230	0	774.734	0	9.7	4	3.0	4	-1E+10	1	-1E+10	1	-1E+10	1	-1E+10	1	-1E+10	1	-1E+10	1
4902549	42	C	10/06/2021	01:51	-131.875	47.101	0	788.00	0	3.6060	0	34.2490	0	27.234	0	779.970	0	9.6	4	3.0	4	-1E+10	1	-1E+10	1	-1E+10	1	-1E+10	1	-1E+10	1	-1E+10	1
4902549	42	C	10/06/2021	01:51	-131.875	47.101	0	793.20	0	3.5940	0	34.2520	0	27.237	0	785.107	0	9.5	4	3.0	4	-1E+10	1	-1E+10	1	-1E+10	1	-1E+10	1	-1E+10	1	-1E+10	1
4902549	42	C	10/06/2021	01:51	-131.875	47.101	0	798.00	0	3.5790	0	34.2550	0	27.241	0	789.849	0	9.4	4	3.0	4	-1E+10	1	-1E+10	1	-1E+10	1	-1E+10	1	-1E+10	1	-1E+10	1
4902549	42	C	10/06/2021	01:51	-131.875	47.101	0	802.80	0	3.5690	0	34.2590	0	27.246	0	794.591	0	9.4	4	2.9	4	-1E+10	1	-1E+10	1	-1E+10	1	-1E+10	1	-1E+10	1	-1E+10	1
4902549	42	C	10/06/2021	01:51	-131.875	47.101	0	807.70	0	3.5690	0	34.2580	0	27.245	0	799.431	0	9.3	4	2.9	4	-1E+10	1	-1E+10	1	-1E+10	1	-1E+10	1	-1E+10	1	-1E+10	1
4902549	42	C	10/06/2021	01:51	-131.875	47.101	0	812.60	0	3.5680	0	34.2590	0	27.246	0	804.272	0	9.2	4	2.9	4	-1E+10	1	-1E+10	1	-1E+10	1	-1E+10	1	-1E+10	1	-1E+10	1
4902549	42	C	10/06/2021	01:51	-131.875	47.101	0	817.60	0	3.5610	0	34.2610	0	27.248	0	809.211	0	9.1	4	2.8	4	-1E+10	1	-1E+10	1	-1E+10	1	-1E+10	1	-1E+10	1	-1E+10	1
4902549	42	C	10/06/2021	01:51	-131.875	47.101	0	822.60	0	3.5490	0	34.2640	0	27.252	0	814.150	0	9.1	4	2.8	4	-1E+10	1	-1E+10	1	-1E+10	1	-1E+10	1	-1E+10	1	-1E+10	1
4902549	42	C	10/06/2021	01:51	-131.875	47.101	0	827.60	0	3.5380	0	34.2670	0	27.255	0	819.089	0	9.0	4	2.8	4	-1E+10	1	-1E+10	1	-1E+10	1	-1E+10	1	-1E+10	1	-1E+10	1
4902549	42	C	10/06/2021	01:51	-131.875	47.101	0	832.70	0	3.5290	0	34.2690	0	27.258	0	824.126	0	9.0	4	2.8	4	-1E+10	1	-1E+10	1	-1E+10	1	-1E+10	1	-1E+10	1	-1E+10	1
4902549	42	C	10/06/2021	01:51	-131.875	47.101	0	837.80	0	3.5210	0	34.2710	0	27.260	0	829.163	0	9.0	4	2.8	4	-1E+10	1	-1E+10	1	-1E+10	1	-1E+10	1	-1E+10	1	-1E+10	1
4902549	42	C	10/06/2021	01:51	-131.875	47.101	0	843.00	0	3.5160	0	34.2710	0	27.260	0	834.299	0	9.0	4	2.8	4	-1E+10	1	-1E+10	1	-1E+10	1	-1E+10	1	-1E+10	1	-1E+10	1
4902549	42	C	10/06/2021	01:51	-131.875	47.101	0	848.20	0	3.5070	0	34.2730	0	27.263	0	839.435	0	9.0	4	2.8	4	-1E+10	1	-1E+10	1	-1E+10	1	-1E+10	1	-1E+10	1	-1E+10	1
4902549	42	C	10/06/2021	01:51	-131.875	47.101	0	853.30	0	3.5060	0	34.2730	0	27.263	0	844.472	0	9.0	4	2.8	4	-1E+10	1	-1E+10	1	-1E+10	1	-1E+10	1	-1E+10	1	-1E+10	1
4902549	42	C	10/06/2021	01:51	-131.875	47.101	0	857.90	0	3.4980	0	34.2750	0	27.265	0	849.015	0	9.0	4	2.8	4	-1E+10	1	-1E+10	1	-1E+10	1	-1E+10	1	-1E+10	1	-1E+10	1
4902549	42	C	10/06/2021	01:51	-131.875	47.101	0	862.50	0	3.4890	0	34.2760	0	27.267	0	853.558	0	8.9	4	2.8	4	-1E+10	1	-1E+10	1	-1E+10	1	-1E+10	1	-1E+10	1	-1E+10	1
4902549	42	C	10/06/2021	01:51	-131.875	47.101	0	867.60	0	3.4760	0	34.2800	0	27.272	0	858.595	0	8.8	4	2.7	4	-1E+10	1	-1E+10	1	-1E+10	1	-1E+10	1	-1E+10	1	-1E+10	1
4902549	42	C	10/06/2021	01:51	-131.875	47.101	0	872.60	0	3.4660	0	34.2830	0	27.275	0	863.533	0	8.7	4	2.7	4	-1E+10	1	-1E+10	1	-1E+10	1	-1E+10	1	-1E+10	1	-1E+10	1
4902549	42	C	10/06/2021	01:51	-131.875	47.101	0	877.60	0	3.4650	0	34.2840	0	27.276	0	868.471	0	8.6	4	2.7	4	-1E+10	1	-1E+10	1	-1E+10	1	-1E+10	1	-1E+10	1	-1E+10	1
4902549	42	C	10/06/2021	01:51	-131.875	47.101	0	882.60	0	3.4640	0	34.2830	0	27.275	0	873.408	0	8.5	4	2.6	4	-1E+10	1	-1E+10	1	-1E+10	1	-1E+10	1	-1E+10	1	-1E+10	1
4902549	42	C	10/06/2021	01:51	-131.875	47.101	0	887.60	0	3.4560	0	34.2870	0	27.279	0	878.346	0	8.3	4	2.6	4	-1E+10	1	-1E+10	1	-1E+10	1	-1E+10	1	-1E+10	1	-1E+10	1
4902549	42	C	10/06/2021	01:51	-131.875	47.101	0	892.50	0	3.4510	0	34.2890	0	27.281	0	883.184	0	8.1	4	2.5	4	-1E+10	1	-1E+10	1	-1E+10	1	-1E+10	1	-1E+10	1	-1E+10	1
4902549	42	C	10/06/2021	01:51	-131.875	47.101	0	897.50	0	3.4380	0	34.2940	0	27.287	0	888.121	0	7.9	4	2.5	4	-1E+10	1	-1E+10	1	-1E+10	1	-1E+10	1	-1E+10	1	-1E+10	1
4902549	42	C	10/06/2021	01:51	-131.875	47.101	0	902.60	0	3.4280	0	34.2980	0	27.291	0	893.157	0	7.7	4	2.4	4	-1E+10	1	-1E+10	1	-1E+10	1	-1E+10	1	-1E+10	1	-1E+10	1
4902549	42	C	10/06/2021	01:51	-131.875	47.101	0	907.60	0	3.4170	0	34.3010	0	27.294	0	898.094	0	7.6	4	2.4	4	-1E+10	1	-1E+10	1	-1E+10	1	-1E+10	1	-1E+10	1	-1E+10	1
4902549	42	C	10/06/2021	01:51	-131.875	47.101	0	912.70	0	3.4060	0	34.3050	0	27.299	0	903.130	0	7.5	4	2.3	4	-1E+10	1	-1E+10	1	-1E+10	1	-1E+10	1	-1E+10	1	-1E+10	1
4902549	42	C	10/06/2021	01:51	-131.875	47.101	0	917.70	0	3.3990	0	34.3080	0	27.302	0	908.066	0	7.4	4	2.3	4	-1E+10	1	-1E+10	1	-1E+10	1	-1E+10	1	-1E+10	1	-1E+10	1
4902549	42	C	10/06/2021	01:51	-131.875	47.101	0	922.70	0	3.3970	0	34.3090	0	27.303	0	913.003	0	7.3	4	2.3	4	-1E+10	1	-1E+10	1	-1E+10	1	-1E+10	1	-1E+10	1	-1E+10	1
4902549	42	C	10/06/2021	01:51	-131.875	47.101	0	927.60	0	3.3890	0	34.3110	0	27.305	0	917.841	0	7.2	4	2.2	4	-1E+10	1	-1E+10	1	-1E+10	1	-1E+10	1	-1E+10	1	-1E+10	1
4902549	42	C	10/06/2021	01:51	-131.875	47.101	0	932.50	0	3.3770	0	34.3150	0	27.309	0	922.678	0	7.1	4	2.2	4	-1E+10	1	-1E+10	1	-1E+10	1	-1E+10	1	-1E+10	1	-1E+10	1
4902549	42	C	10/06/2021	01:51	-131.875	47.101	0	937.90	0	3.3690	0	34.3170	0	27.312	0	928.010	0	7.0	4	2.2	4	-1E+10	1	-1E+10	1	-1E+10	1	-1E+10	1	-1E+10	1	-1E+10	1
4902549	42	C	10/06/2021	01:51	-131.875	47.101	0	943.40	0	3.3570	0	34.3200	0	27.315	0	933.439	0	6.9	4	2.2	4	-1E+10	1	-1E+10	1	-1E+10	1	-1E+10	1	-1E+10	1	-1E+10	1
4902549	42	C	10/06/2021	01:51	-131.875	47.101	0	948.30	0	3.3460	0	34.3230	0	27.319	0	938.277	0	6.9	4	2.1	4	-1E+10	1	-1E+10	1	-1E+10	1	-1E+10	1	-1E+10	1	-1E+10	1
4902549	42	C	10/06/2021	01:51	-131.875	47.101	0	953.30	0	3.3350	0	34.3260	0	27.322	0	943.213	0	6.9	4	2.1	4	-1E+10	1	-1E+10	1	-1E+10	1	-1E+10	1	-1E+10	1	-1E+10	1
4902549	42	C	10/06/2021	01:51	-131.875	47.101	0	958.30	0	3.3160	0	34.3300	0	27.327	0	948.148	0	6.9	4	2.1	4	-1E+10	1	-1E+10	1	-1E+10	1	-1E+10	1	-1E+10	1	-1E+10	1
4902549	42	C	10/06/2021	01:51	-131.875	47.101	0	962.90	0	3.2970	0	34.3320	0	27.331	0	952.689	0	6.8	4	2.1	4	-1E+10	1	-1E+10	1	-1E+10	1	-1E+10	1	-1E+10	1	-1E+10	1
4902549	42	C	10/06/2021	01:51	-131.875	47.101	0	967.50	0	3.2890	0	34.3360	0	27.335	0	957.230	0	6.8	4	2.1	4	-1E+10	1	-1E+10	1	-1E+10	1	-1E+10	1	-1E+10	1	-1E+10	1
4902549	42	C	10/06/2021	01:51	-131.875	47.101	0	973.00	0	3.2850	0	34.3370	0	27.336	0	962.659	0	6.8	4	2.1	4	-1E+10	1	-1E+10	1	-1E+10	1	-1E+10	1	-1E+10	1	-1E+10	1
4902549	42	C	10/06/2021	01:51	-131.875	47.101	0	978.20	0	3.2720	0	34.3390	0	27.339	0	967.792	0	7.0	4	2.2	4	-1E+10	1	-1E+10	1	-1E+10	1	-1E+10	1	-1E+10	1	-1E+10	1
4902549	42	C	10/06/2021	01:51	-131.875	47.101	0	983.00	0	3.2600	0	34.3390	0	27.340	0	972.529	0	7.1	4	2.2	4	-1E+10	1	-1E+10	1	-1E+10	1	-1E+10	1	-1E+10	1	-1E+10	1
4902549	42	C	10/06/2021	01:51	-131.875	47.101	0	988.00	0	3.2460	0	34.3410	0	27.343	0	977.464	0	7.1	4	2.2	4	-1E+10	1	-1E+10	1	-1E+10	1	-1E+10	1	-1E+10	1	-1E+10	1
4902549	42	C	10/06/2021	01:51	-131.875	47.101	0	992.80	0	3.2360	0	34.3430	0	27.345	0	982.202	0	7.1	4	2.2	4	-1E+10	1	-1E+10	1	-1E+10	1	-1E+10	1	-1E+10	1	-1E+10	1
4902549	42	C	10/06/2021	01:51	-131.875	47.101	0	997.70	0	3.2270	0	34.3450	0	27.348	0	987.038	0	7.1	4	2.2	4	-1E+10	1	-1E+10	1	-1E+10	1	-1E+10	1	-1E+10	1	-1E+10	1
4902549	42	C	10/06/2021	01:51	-131.875	47.101	0	1005.40	0	3.2190	0	34.3480	0	27.351	0	994.638	0	7.0	4	2.2	4	-1E+10	1	-1E+10	1	-1E+10	1	-1E+10	1	-1E+10	1	-1E+10	1
4902549	42	C	10/06/2021	01:51	-131.875	47.101	0	1015.30	0	3.2060	0	34.3530	0	27.356	0	1004.408	0	6.9	4	2.2	4	-1E+10	1	-1E+10	1	-1E+10	1	-1E+10	1	-1E+10	1	-1E+10	1
4902549	42	C	10/06/2021	01:51	-131.875	47.101	0	1025.40	0	3.2000	0	34.3570	0	27.360	0	1014.375	0	6.9	4	2.1	4	-1E+10	1	-1E+10	1	-1E+10	1	-1E+10	1	-1E+10	1	-1E+10	1
4902549	42	C	10/06/2021	01:51	-131.875	47.101	0	1035.80	0	3.1960	0	34.3610	0	27.364	0	1024.638	0	6.9	4	2.1	4	-1E+10	1	-1E+10	1	-1E+10	1	-1E+10	1	-1E+10	1	-1E+10	1
4902549	42	C	10/06/2021	01:51	-131.875	47.101	0	1045.80	0	3.1860	0	34.3640	0	27.367	0	1034.506	0	6.8	4	2.1	4	-1E+10	1	-1E+10	1	-1E+10	1	-1E+10	1	-1E+10	1	-1E+10	1
4902549	42	C	10/06/2021	01:51	-131.875	47.101	0	1055.50	0	3.1810	0	34.3680	0	27.371	0	1044.077	0	6.8	4	2.1	4	-1E+10	1	-1E+10	1	-1E+10	1	-1E+10	1	-1E+10	1	-1E+10	1
4902549	42	C	10/06/2021	01:51	-131.875	47.101	0	1065.10	0	3.1740	0	34.3720	0	27.375	0	1053.549	0	6.8	4	2.1	4	-1E+10	1	-1E+10	1	-1E+10	1	-1E+10	1	-1E+10	1	-1E+10	1
4902549	42	C	10/06/2021	01:51	-131.875	47.101	0	1075.30	0	3.1560	0	34.3770	0	27.380	0	1063.612	0	6.8	4	2.1	4	-1E+10	1	-1E+10	1	-1E+10	1	-1E+10	1	-1E+10	1	-1E+10	1
4902549	42	C	10/06/2021	01:51	-131.875	47.101	0	1085.40	0	3.1390	0	34.3830	0	27.387	0	1073.577	0	6.9	4	2.1	4	-1E+10	1	-1E+10	1	-1E+10	1	-1E+10	1	-1E+10	1	-1E+10	1
4902549	42	C	10/06/2021	01:51	-131.875	47.101	0	1095.30	0	3.1210	0	34.3860	0	27.391	0	1083.343	0	6.9	4	2.2	4	-1E+10	1	-1E+10	1	-1E+10	1	-1E+10	1	-1E+10	1	-1E+10	1
4902549	42	C	10/06/2021	01:51	-131.875	47.101	0	1105.20	0	3.0960	0	34.3910	0	27.397	0	1093.109	0	7.1	4	2.2	4	-1E+10	1	-1E+10	1	-1E+10	1	-1E+10	1	-1E+10	1	-1E+10	1
4902549	42	C	10/06/2021	01:51	-131.875	47.101	0	1115.20	0	3.0750	0	34.3970	0	27.404	0	1102.974	0	7.2	4	2.2	4	-1E+10	1	-1E+10	1	-1E+10	1	-1E+10	1	-1E+10	1	-1E+10	1
4902549	42	C	10/06/2021	01:51	-131.875	47.101	0	1125.20	0	3.0570	0	34.4010	0	27.409	0	1112.838	0	7.4	4	2.3	4	-1E+10	1	-1E+10	1	-1E+10	1	-1E+10	1	-1E+10	1	-1E+10	1
4902549	42	C	10/06/2021	01:51	-131.875	47.101	0	1135.10	0	3.0440	0	34.4030	0	27.412	0	1122.602	0	7.5	4	2.3	4	-1E+10	1	-1E+10	1	-1E+10	1	-1E+10	1	-1E+10	1	-1E+10	1
4902549	42	C	10/06/2021	01:51	-131.875	47.101	0	1145.00	0	3.0320	0	34.4050	0	27.414	0	1132.367	0	7.6	4	2.3	4	-1E+10	1	-1E+10	1	-1E+10	1	-1E+10	1	-1E+10	1	-1E+10	1
4902549	42	C	10/06/2021	01:51	-131.875	47.101	0	1155.00	0	3.0140	0	34.4090	0	27.419	0	1142.229	0	7.8	4	2.4	4	-1E+10	1	-1E+10	1	-1E+10	1	-1E+10	1	-1E+10	1	-1E+10	1
4902549	42	C	10/06/2021	01:51	-131.875	47.101	0	1165.10	0	2.9970	0	34.4120	0	27.423	0	1152.190	0	7.9	4	2.5	4	-1E+10	1	-1E+10	1	-1E+10	1	-1E+10	1	-1E+10	1	-1E+10	1
4902549	42	C	10/06/2021	01:51	-131.875	47.101	0	1175.20	0	2.9780	0	34.4150	0	27.427	0	1162.150	0	8.1	4	2.5	4	-1E+10	1	-1E+10	1	-1E+10	1	-1E+10	1	-1E+10	1	-1E+10	1
4902549	42	C	10/06/2021	01:51	-131.875	47.101	0	1185.40	0	2.9570	0	34.4170	0	27.431	0	1172.208	0	8.3	4	2.5	4	-1E+10	1	-1E+10	1	-1E+10	1	-1E+10	1	-1E+10	1	-1E+10	1
4902549	42	C	10/06/2021	01:51	-131.875	47.101	0	1195.60	0	2.9370	0	34.4200	0	27.435	0	1182.266	0	8.4	4	2.6	4	-1E+10	1	-1E+10	1	-1E+10	1	-1E+10	1	-1E+10	1	-1E+10	1
4902549	42	C	10/06/2021	01:51	-131.875	47.101	0	1205.40	0	2.9210	0	34.4220	0	27.438	0	1191.929	0	8.6	4	2.6	4	-1E+10	1	-1E+10	1	-1E+10	1	-1E+10	1	-1E+10	1	-1E+10	1
4902549	42	C	10/06/2021	01:51	-131.875	47.101	0	1215.30	0	2.9010	0	34.4240	0	27.442	0	1201.690	0	8.7	4	2.7	4	-1E+10	1	-1E+10	1	-1E+10	1	-1E+10	1	-1E+10	1	-1E+10	1
4902549	42	C	10/06/2021	01:51	-131.875	47.101	0	1225.80	0	2.8810	0	34.4270	0	27.446	0	1212.042	0	8.9	4	2.7	4	-1E+10	1	-1E+10	1	-1E+10	1	-1E+10	1	-1E+10	1	-1E+10	1
4902549	42	C	10/06/2021	01:51	-131.875	47.101	0	1235.50	0	2.8680	0	34.4290	0	27.449	0	1221.605	0	9.1	4	2.8	4	-1E+10	1	-1E+10	1	-1E+10	1	-1E+10	1	-1E+10	1	-1E+10	1
4902549	42	C	10/06/2021	01:51	-131.875	47.101	0	1245.10	0	2.8490	0	34.4320	0	27.453	0	1231.069	0	9.4	4	2.9	4	-1E+10	1	-1E+10	1	-1E+10	1	-1E+10	1	-1E+10	1	-1E+10	1
4902549	42	C	10/06/2021	01:51	-131.875	47.101	0	1255.10	0	2.8260	0	34.4350	0	27.457	0	1240.927	0	9.7	4	3.0	4	-1E+10	1	-1E+10	1	-1E+10	1	-1E+10	1	-1E+10	1	-1E+10	1
4902549	42	C	10/06/2021	01:51	-131.875	47.101	0	1265.20	0	2.7980	0	34.4400	0	27.464	0	1250.883	0	10.0	4	3.1	4	-1E+10	1	-1E+10	1	-1E+10	1	-1E+10	1	-1E+10	1	-1E+10	1
4902549	42	C	10/06/2021	01:51	-131.875	47.101	0	1275.20	0	2.7730	0	34.4440	0	27.469	0	1260.740	0	10.4	4	3.2	4	-1E+10	1	-1E+10	1	-1E+10	1	-1E+10	1	-1E+10	1	-1E+10	1
4902549	42	C	10/06/2021	01:51	-131.875	47.101	0	1285.00	0	2.7540	0	34.4480	0	27.474	0	1270.399	0	10.7	4	3.3	4	-1E+10	1	-1E+10	1	-1E+10	1	-1E+10	1	-1E+10	1	-1E+10	1
4902549	42	C	10/06/2021	01:51	-131.875	47.101	0	1295.40	0	2.7280	0	34.4510	0	27.479	0	1280.650	0	10.9	4	3.4	4	-1E+10	1	-1E+10	1	-1E+10	1	-1E+10	1	-1E+10	1	-1E+10	1
4902549	42	C	10/06/2021	01:51	-131.875	47.101	0	1305.40	0	2.7120	0	34.4530	0	27.482	0	1290.505	0	11.2	4	3.4	4	-1E+10	1	-1E+10	1	-1E+10	1	-1E+10	1	-1E+10	1	-1E+10	1
4902549	42	C	10/06/2021	01:51	-131.875	47.101	0	1315.30	0	2.6910	0	34.4560	0	27.486	0	1300.262	0	11.4	4	3.5	4	-1E+10	1	-1E+10	1	-1E+10	1	-1E+10	1	-1E+10	1	-1E+10	1
4902549	42	C	10/06/2021	01:51	-131.875	47.101	0	1325.70	0	2.6710	0	34.4560	0	27.488	0	1310.510	0	11.5	4	3.5	4	-1E+10	1	-1E+10	1	-1E+10	1	-1E+10	1	-1E+10	1	-1E+10	1
4902549	42	C	10/06/2021	01:51	-131.875	47.101	0	1335.60	0	2.6590	0	34.4580	0	27.491	0	1320.266	0	11.8	4	3.6	4	-1E+10	1	-1E+10	1	-1E+10	1	-1E+10	1	-1E+10	1	-1E+10	1
4902549	42	C	10/06/2021	01:51	-131.875	47.101	0	1345.30	0	2.6480	0	34.4600	0	27.493	0	1329.824	0	12.1	4	3.7	4	-1E+10	1	-1E+10	1	-1E+10	1	-1E+10	1	-1E+10	1	-1E+10	1
4902549	42	C	10/06/2021	01:51	-131.875	47.101	0	1355.10	0	2.6340	0	34.4630	0	27.497	0	1339.480	0	12.4	4	3.8	4	-1E+10	1	-1E+10	1	-1E+10	1	-1E+10	1	-1E+10	1	-1E+10	1
4902549	42	C	10/06/2021	01:51	-131.875	47.101	0	1365.10	0	2.6120	0	34.4650	0	27.500	0	1349.333	0	12.8	4	3.9	4	-1E+10	1	-1E+10	1	-1E+10	1	-1E+10	1	-1E+10	1	-1E+10	1
4902549	42	C	10/06/2021	01:51	-131.875	47.101	0	1375.20	0	2.5940	0	34.4680	0	27.504	0	1359.284	0	13.3	4	4.1	4	-1E+10	1	-1E+10	1	-1E+10	1	-1E+10	1	-1E+10	1	-1E+10	1
4902549	42	C	10/06/2021	01:51	-131.875	47.101	0	1385.50	0	2.5800	0	34.4710	0	27.508	0	1369.431	0	13.9	4	4.2	4	-1E+10	1	-1E+10	1	-1E+10	1	-1E+10	1	-1E+10	1	-1E+10	1
4902549	42	C	10/06/2021	01:51	-131.875	47.101	0	1395.30	0	2.5800	0	34.4760	0	27.512	0	1379.085	0	14.7	4	4.5	4	-1E+10	1	-1E+10	1	-1E+10	1	-1E+10	1	-1E+10	1	-1E+10	1
4902549	42	C	10/06/2021	01:51	-131.875	47.101	0	1405.40	0	2.5670	0	34.4790	0	27.516	0	1389.035	0	14.9	4	4.6	4	-1E+10	1	-1E+10	1	-1E+10	1	-1E+10	1	-1E+10	1	-1E+10	1
4902549	42	C	10/06/2021	01:51	-131.875	47.101	0	1415.40	0	2.5530	0	34.4810	0	27.519	0	1398.885	0	15.4	4	4.7	4	-1E+10	1	-1E+10	1	-1E+10	1	-1E+10	1	-1E+10	1	-1E+10	1
4902549	42	C	10/06/2021	01:51	-131.875	47.101	0	1425.20	0	2.5300	0	34.4820	0	27.521	0	1408.538	0	15.8	4	4.8	4	-1E+10	1	-1E+10	1	-1E+10	1	-1E+10	1	-1E+10	1	-1E+10	1
4902549	42	C	10/06/2021	01:51	-131.875	47.101	0	1435.00	0	2.5280	0	34.4860	0	27.525	0	1418.191	0	16.5	4	5.0	4	-1E+10	1	-1E+10	1	-1E+10	1	-1E+10	1	-1E+10	1	-1E+10	1
4902549	42	C	10/06/2021	01:51	-131.875	47.101	0	1445.20	0	2.5170	0	34.4890	0	27.528	0	1428.237	0	16.9	4	5.2	4	-1E+10	1	-1E+10	1	-1E+10	1	-1E+10	1	-1E+10	1	-1E+10	1
4902549	42	C	10/06/2021	01:51	-131.875	47.101	0	1455.10	0	2.5030	0	34.4900	0	27.530	0	1437.987	0	17.3	4	5.3	4	-1E+10	1	-1E+10	1	-1E+10	1	-1E+10	1	-1E+10	1	-1E+10	1
4902549	42	C	10/06/2021	01:51	-131.875	47.101	0	1465.20	0	2.4930	0	34.4920	0	27.533	0	1447.933	0	17.8	4	5.4	4	-1E+10	1	-1E+10	1	-1E+10	1	-1E+10	1	-1E+10	1	-1E+10	1
4902549	42	C	10/06/2021	01:51	-131.875	47.101	0	1475.40	0	2.4750	0	34.4940	0	27.536	0	1457.978	0	18.4	4	5.6	4	-1E+10	1	-1E+10	1	-1E+10	1	-1E+10	1	-1E+10	1	-1E+10	1
4902549	42	C	10/06/2021	01:51	-131.875	47.101	0	1485.40	0	2.4620	0	34.4970	0	27.539	0	1467.825	0	18.9	4	5.8	4	-1E+10	1	-1E+10	1	-1E+10	1	-1E+10	1	-1E+10	1	-1E+10	1
4902549	42	C	10/06/2021	01:51	-131.875	47.101	0	1495.50	0	2.4470	0	34.4990	0	27.542	0	1477.771	0	19.4	4	5.9	4	-1E+10	1	-1E+10	1	-1E+10	1	-1E+10	1	-1E+10	1	-1E+10	1
4902549	42	C	10/06/2021	01:51	-131.875	47.101	0	1505.80	0	2.4430	0	34.5010	0	27.544	0	1487.912	0	20.0	4	6.1	4	-1E+10	1	-1E+10	1	-1E+10	1	-1E+10	1	-1E+10	1	-1E+10	1
4902549	42	C	10/06/2021	01:51	-131.875	47.101	0	1515.60	0	2.4260	0	34.5030	0	27.547	0	1497.561	0	20.5	4	6.3	4	-1E+10	1	-1E+10	1	-1E+10	1	-1E+10	1	-1E+10	1	-1E+10	1
4902549	42	C	10/06/2021	01:51	-131.875	47.101	0	1525.60	0	2.4150	0	34.5050	0	27.550	0	1507.406	0	21.1	4	6.4	4	-1E+10	1	-1E+10	1	-1E+10	1	-1E+10	1	-1E+10	1	-1E+10	1
4902549	42	C	10/06/2021	01:51	-131.875	47.101	0	1535.70	0	2.4050	0	34.5080	0	27.553	0	1517.350	0	21.8	4	6.6	4	-1E+10	1	-1E+10	1	-1E+10	1	-1E+10	1	-1E+10	1	-1E+10	1
4902549	42	C	10/06/2021	01:51	-131.875	47.101	0	1545.40	0	2.3970	0	34.5100	0	27.556	0	1526.899	0	22.4	4	6.8	4	-1E+10	1	-1E+10	1	-1E+10	1	-1E+10	1	-1E+10	1	-1E+10	1
4902549	42	C	10/06/2021	01:51	-131.875	47.101	0	1555.20	0	2.3830	0	34.5120	0	27.558	0	1536.546	0	22.8	4	6.9	4	-1E+10	1	-1E+10	1	-1E+10	1	-1E+10	1	-1E+10	1	-1E+10	1
4902549	42	C	10/06/2021	01:51	-131.875	47.101	0	1565.40	0	2.3660	0	34.5130	0	27.561	0	1546.586	0	23.2	4	7.1	4	-1E+10	1	-1E+10	1	-1E+10	1	-1E+10	1	-1E+10	1	-1E+10	1
4902549	42	C	10/06/2021	01:51	-131.875	47.101	0	1575.60	0	2.3540	0	34.5150	0	27.563	0	1556.626	0	23.8	4	7.2	4	-1E+10	1	-1E+10	1	-1E+10	1	-1E+10	1	-1E+10	1	-1E+10	1
4902549	42	C	10/06/2021	01:51	-131.875	47.101	0	1585.30	0	2.3420	0	34.5170	0	27.566	0	1566.174	0	24.6	4	7.5	4	-1E+10	1	-1E+10	1	-1E+10	1	-1E+10	1	-1E+10	1	-1E+10	1
4902549	42	C	10/06/2021	01:51	-131.875	47.101	0	1595.40	0	2.3370	0	34.5200	0	27.569	0	1576.114	0	25.5	4	7.7	4	-1E+10	1	-1E+10	1	-1E+10	1	-1E+10	1	-1E+10	1	-1E+10	1
4902549	42	C	10/06/2021	01:51	-131.875	47.101	0	1605.40	0	2.3280	0	34.5240	0	27.573	0	1585.956	0	26.4	4	8.0	4	-1E+10	1	-1E+10	1	-1E+10	1	-1E+10	1	-1E+10	1	-1E+10	1
4902549	42	C	10/06/2021	01:51	-131.875	47.101	0	1615.40	0	2.3180	0	34.5260	0	27.575	0	1595.797	0	26.9	4	8.2	4	-1E+10	1	-1E+10	1	-1E+10	1	-1E+10	1	-1E+10	1	-1E+10	1
4902549	42	C	10/06/2021	01:51	-131.875	47.101	0	1625.40	0	2.3070	0	34.5280	0	27.578	0	1605.638	0	27.5	4	8.4	4	-1E+10	1	-1E+10	1	-1E+10	1	-1E+10	1	-1E+10	1	-1E+10	1
4902549	42	C	10/06/2021	01:51	-131.875	47.101	0	1635.40	0	2.2990	0	34.5300	0	27.580	0	1615.478	0	28.0	4	8.5	4	-1E+10	1	-1E+10	1	-1E+10	1	-1E+10	1	-1E+10	1	-1E+10	1
4902549	42	C	10/06/2021	01:51	-131.875	47.101	0	1645.40	0	2.2830	0	34.5310	0	27.582	0	1625.318	0	28.6	4	8.7	4	-1E+10	1	-1E+10	1	-1E+10	1	-1E+10	1	-1E+10	1	-1E+10	1
4902549	42	C	10/06/2021	01:51	-131.875	47.101	0	1655.60	0	2.2800	0	34.5330	0	27.584	0	1635.354	0	29.1	4	8.8	4	-1E+10	1	-1E+10	1	-1E+10	1	-1E+10	1	-1E+10	1	-1E+10	1
4902549	42	C	10/06/2021	01:51	-131.875	47.101	0	1665.70	0	2.2700	0	34.5350	0	27.587	0	1645.291	0	29.5	4	8.9	4	-1E+10	1	-1E+10	1	-1E+10	1	-1E+10	1	-1E+10	1	-1E+10	1
4902549	42	C	10/06/2021	01:51	-131.875	47.101	0	1675.20	0	2.2570	0	34.5350	0	27.588	0	1654.638	0	29.9	4	9.1	4	-1E+10	1	-1E+10	1	-1E+10	1	-1E+10	1	-1E+10	1	-1E+10	1
4902549	42	C	10/06/2021	01:51	-131.875	47.101	0	1685.30	0	2.2430	0	34.5370	0	27.590	0	1664.574	0	30.6	4	9.3	4	-1E+10	1	-1E+10	1	-1E+10	1	-1E+10	1	-1E+10	1	-1E+10	1
4902549	42	C	10/06/2021	01:51	-131.875	47.101	0	1695.50	0	2.2300	0	34.5400	0	27.594	0	1674.609	0	31.3	4	9.5	4	-1E+10	1	-1E+10	1	-1E+10	1	-1E+10	1	-1E+10	1	-1E+10	1
4902549	42	C	10/06/2021	01:51	-131.875	47.101	0	1705.60	0	2.2070	0	34.5410	0	27.597	0	1684.544	0	31.6	4	9.6	4	-1E+10	1	-1E+10	1	-1E+10	1	-1E+10	1	-1E+10	1	-1E+10	1
4902549	42	C	10/06/2021	01:51	-131.875	47.101	0	1715.40	0	2.1900	0	34.5420	0	27.599	0	1694.184	0	31.9	4	9.7	4	-1E+10	1	-1E+10	1	-1E+10	1	-1E+10	1	-1E+10	1	-1E+10	1
4902549	42	C	10/06/2021	01:51	-131.875	47.101	0	1725.40	0	2.1790	0	34.5420	0	27.600	0	1704.020	0	32.4	4	9.8	4	-1E+10	1	-1E+10	1	-1E+10	1	-1E+10	1	-1E+10	1	-1E+10	1
4902549	42	C	10/06/2021	01:51	-131.875	47.101	0	1735.60	0	2.1700	0	34.5440	0	27.602	0	1714.053	0	32.8	4	9.9	4	-1E+10	1	-1E+10	1	-1E+10	1	-1E+10	1	-1E+10	1	-1E+10	1
4902549	42	C	10/06/2021	01:51	-131.875	47.101	0	1745.60	0	2.1650	0	34.5450	0	27.603	0	1723.888	0	33.4	4	10.1	4	-1E+10	1	-1E+10	1	-1E+10	1	-1E+10	1	-1E+10	1	-1E+10	1
4902549	42	C	10/06/2021	01:51	-131.875	47.101	0	1755.60	0	2.1580	0	34.5460	0	27.605	0	1733.723	0	34.2	4	10.4	4	-1E+10	1	-1E+10	1	-1E+10	1	-1E+10	1	-1E+10	1	-1E+10	1
4902549	42	C	10/06/2021	01:51	-131.875	47.101	0	1765.50	0	2.1400	0	34.5490	0	27.609	0	1743.459	0	35.1	4	10.6	4	-1E+10	1	-1E+10	1	-1E+10	1	-1E+10	1	-1E+10	1	-1E+10	1
4902549	42	C	10/06/2021	01:51	-131.875	47.101	0	1775.10	0	2.1300	0	34.5510	0	27.611	0	1752.899	0	35.8	4	10.8	4	-1E+10	1	-1E+10	1	-1E+10	1	-1E+10	1	-1E+10	1	-1E+10	1
4902549	42	C	10/06/2021	01:51	-131.875	47.101	0	1785.40	0	2.1190	0	34.5530	0	27.614	0	1763.028	0	36.7	4	11.1	4	-1E+10	1	-1E+10	1	-1E+10	1	-1E+10	1	-1E+10	1	-1E+10	1
4902549	42	C	10/06/2021	01:51	-131.875	47.101	0	1795.80	0	2.1080	0	34.5550	0	27.616	0	1773.254	0	37.4	4	11.3	4	-1E+10	1	-1E+10	1	-1E+10	1	-1E+10	1	-1E+10	1	-1E+10	1
4902549	42	C	10/06/2021	01:51	-131.875	47.101	0	1805.40	0	2.1020	0	34.5560	0	27.618	0	1782.693	0	38.0	4	11.5	4	-1E+10	1	-1E+10	1	-1E+10	1	-1E+10	1	-1E+10	1	-1E+10	1
4902549	42	C	10/06/2021	01:51	-131.875	47.101	0	1815.10	0	2.0940	0	34.5580	0	27.620	0	1792.230	0	38.8	4	11.7	4	-1E+10	1	-1E+10	1	-1E+10	1	-1E+10	1	-1E+10	1	-1E+10	1
4902549	42	C	10/06/2021	01:51	-131.875	47.101	0	1825.60	0	2.0790	0	34.5600	0	27.623	0	1802.553	0	39.6	4	12.0	4	-1E+10	1	-1E+10	1	-1E+10	1	-1E+10	1	-1E+10	1	-1E+10	1
4902549	42	C	10/06/2021	01:51	-131.875	47.101	0	1835.70	0	2.0680	0	34.5620	0	27.625	0	1812.483	0	40.3	4	12.2	4	-1E+10	1	-1E+10	1	-1E+10	1	-1E+10	1	-1E+10	1	-1E+10	1
4902549	42	C	10/06/2021	01:51	-131.875	47.101	0	1845.80	0	2.0590	0	34.5630	0	27.627	0	1822.412	0	40.8	4	12.3	4	-1E+10	1	-1E+10	1	-1E+10	1	-1E+10	1	-1E+10	1	-1E+10	1
4902549	42	C	10/06/2021	01:51	-131.875	47.101	0	1855.60	0	2.0530	0	34.5640	0	27.628	0	1832.046	0	41.4	4	12.5	4	-1E+10	1	-1E+10	1	-1E+10	1	-1E+10	1	-1E+10	1	-1E+10	1
4902549	42	C	10/06/2021	01:51	-131.875	47.101	0	1865.50	0	2.0430	0	34.5660	0	27.630	0	1841.777	0	42.1	4	12.7	4	-1E+10	1	-1E+10	1	-1E+10	1	-1E+10	1	-1E+10	1	-1E+10	1
4902549	42	C	10/06/2021	01:51	-131.875	47.101	0	1875.50	0	2.0320	0	34.5680	0	27.633	0	1851.606	0	42.7	4	12.9	4	-1E+10	1	-1E+10	1	-1E+10	1	-1E+10	1	-1E+10	1	-1E+10	1
4902549	42	C	10/06/2021	01:51	-131.875	47.101	0	1885.30	0	2.0290	0	34.5690	0	27.634	0	1861.239	0	43.2	4	13.0	4	-1E+10	1	-1E+10	1	-1E+10	1	-1E+10	1	-1E+10	1	-1E+10	1
4902549	42	C	10/06/2021	01:51	-131.875	47.101	0	1895.10	0	2.0180	0	34.5700	0	27.636	0	1870.870	0	44.0	4	13.3	4	-1E+10	1	-1E+10	1	-1E+10	1	-1E+10	1	-1E+10	1	-1E+10	1
4902549	42	C	10/06/2021	01:51	-131.875	47.101	0	1905.50	0	2.0090	0	34.5720	0	27.638	0	1881.092	0	44.5	4	13.4	4	-1E+10	1	-1E+10	1	-1E+10	1	-1E+10	1	-1E+10	1	-1E+10	1
4902549	42	C	10/06/2021	01:51	-131.875	47.101	0	1915.70	0	2.0010	0	34.5730	0	27.640	0	1891.116	0	45.2	4	13.6	4	-1E+10	1	-1E+10	1	-1E+10	1	-1E+10	1	-1E+10	1	-1E+10	1
4902549	42	C	10/06/2021	01:51	-131.875	47.101	0	1925.30	0	1.9940	0	34.5750	0	27.642	0	1900.550	0	45.6	4	13.8	4	-1E+10	1	-1E+10	1	-1E+10	1	-1E+10	1	-1E+10	1	-1E+10	1
4902549	42	C	10/06/2021	01:51	-131.875	47.101	0	1935.10	0	1.9860	0	34.5760	0	27.643	0	1910.180	0	46.0	4	13.9	4	-1E+10	1	-1E+10	1	-1E+10	1	-1E+10	1	-1E+10	1	-1E+10	1
4902549	42	C	10/06/2021	01:51	-131.875	47.101	0	1945.50	0	1.9790	0	34.5760	0	27.644	0	1920.399	0	46.3	4	14.0	4	-1E+10	1	-1E+10	1	-1E+10	1	-1E+10	1	-1E+10	1	-1E+10	1
4902549	42	C	10/06/2021	01:51	-131.875	47.101	0	1955.40	0	1.9720	0	34.5780	0	27.646	0	1930.126	0	46.7	4	14.1	4	-1E+10	1	-1E+10	1	-1E+10	1	-1E+10	1	-1E+10	1	-1E+10	1
4902549	42	C	10/06/2021	01:51	-131.875	47.101	0	1965.60	0	1.9680	0	34.5790	0	27.647	0	1940.148	0	46.8	4	14.1	4	-1E+10	1	-1E+10	1	-1E+10	1	-1E+10	1	-1E+10	1	-1E+10	1
4902549	42	C	10/06/2021	01:51	-131.875	47.101	0	1971.40	0	1.9660	0	34.5790	0	27.647	0	1945.847	0	46.7	4	14.1	4	-1E+10	1	-1E+10	1	-1E+10	1	-1E+10	1	-1E+10	1	-1E+10	1
4902549	42	C	10/06/2021	01:51	-131.875	47.101	0																										
4902549	43	C	10/16/2021	07:05	-131.808	47.069	0	0.20	0	13.9480	0	32.2890	0	24.104	0	0.198	0	247.4	4	96.0	4	-1E+10	1	-1E+10	1	-1E+10	1	-1E+10	1	-1E+10	1	-1E+10	1
4902549	43	C	10/16/2021	07:05	-131.808	47.069	0	0.80	0	13.9500	0	32.2860	0	24.102	0	0.793	0	247.4	4	95.9	4	-1E+10	1	-1E+10	1	-1E+10	1	-1E+10	1	-1E+10	1	-1E+10	1
4902549	43	C	10/16/2021	07:05	-131.808	47.069	0	2.00	0	13.9500	0	32.2860	0	24.102	0	1.983	0	247.3	4	95.9	4	-1E+10	1	-1E+10	1	-1E+10	1	-1E+10	1	-1E+10	1	-1E+10	1
4902549	43	C	10/16/2021	07:05	-131.808	47.069	0	2.70	0	13.9500	0	32.2870	0	24.102	0	2.678	0	247.4	4	95.9	4	-1E+10	1	-1E+10	1	-1E+10	1	-1E+10	1	-1E+10	1	-1E+10	1
4902549	43	C	10/16/2021	07:05	-131.808	47.069	0	4.10	0	13.9500	0	32.2880	0	24.103	0	4.066	0	247.4	4	96.0	4	-1E+10	1	-1E+10	1	-1E+10	1	-1E+10	1	-1E+10	1	-1E+10	1
4902549	43	C	10/16/2021	07:05	-131.808	47.069	0	5.10	0	13.9490	0	32.2880	0	24.103	0	5.058	0	247.3	4	95.9	4	-1E+10	1	-1E+10	1	-1E+10	1	-1E+10	1	-1E+10	1	-1E+10	1
4902549	43	C	10/16/2021	07:05	-131.808	47.069	0	6.00	0	13.9500	0	32.2890	0	24.104	0	5.950	0	247.4	4	95.9	4	-1E+10	1	-1E+10	1	-1E+10	1	-1E+10	1	-1E+10	1	-1E+10	1
4902549	43	C	10/16/2021	07:05	-131.808	47.069	0	6.90	0	13.9470	0	32.2900	0	24.105	0	6.843	0	247.3	4	95.9	4	-1E+10	1	-1E+10	1	-1E+10	1	-1E+10	1	-1E+10	1	-1E+10	1
4902549	43	C	10/16/2021	07:05	-131.808	47.069	0	8.30	0	13.9460	0	32.2910	0	24.106	0	8.231	0	247.3	4	95.9	4	-1E+10	1	-1E+10	1	-1E+10	1	-1E+10	1	-1E+10	1	-1E+10	1
4902549	43	C	10/16/2021	07:05	-131.808	47.069	0	9.00	0	13.9510	0	32.2890	0	24.104	0	8.925	0	247.3	4	95.9	4	-1E+10	1	-1E+10	1	-1E+10	1	-1E+10	1	-1E+10	1	-1E+10	1
4902549	43	C	10/16/2021	07:05	-131.808	47.069	0	10.20	0	13.9540	0	32.2890	0	24.103	0	10.115	0	247.4	4	96.0	4	-1E+10	1	-1E+10	1	-1E+10	1	-1E+10	1	-1E+10	1	-1E+10	1
4902549	43	C	10/16/2021	07:05	-131.808	47.069	0	10.80	0	13.9520	0	32.2900	0	24.105	0	10.710	0	247.2	4	95.9	4	-1E+10	1	-1E+10	1	-1E+10	1	-1E+10	1	-1E+10	1	-1E+10	1
4902549	43	C	10/16/2021	07:05	-131.808	47.069	0	11.90	0	13.9530	0	32.2900	0	24.104	0	11.801	0	247.3	4	95.9	4	-1E+10	1	-1E+10	1	-1E+10	1	-1E+10	1	-1E+10	1	-1E+10	1
4902549	43	C	10/16/2021	07:05	-131.808	47.069	0	13.10	0	13.9540	0	32.2900	0	24.104	0	12.991	0	247.3	4	95.9	4	-1E+10	1	-1E+10	1	-1E+10	1	-1E+10	1	-1E+10	1	-1E+10	1
4902549	43	C	10/16/2021	07:05	-131.808	47.069	0	13.90	0	13.9530	0	32.2890	0	24.104	0	13.784	0	247.3	4	95.9	4	-1E+10	1	-1E+10	1	-1E+10	1	-1E+10	1	-1E+10	1	-1E+10	1
4902549	43	C	10/16/2021	07:05	-131.808	47.069	0	15.20	0	13.9520	0	32.2900	0	24.105	0	15.073	0	247.3	4	95.9	4	-1E+10	1	-1E+10	1	-1E+10	1	-1E+10	1	-1E+10	1	-1E+10	1
4902549	43	C	10/16/2021	07:05	-131.808	47.069	0	16.20	0	13.9530	0	32.2900	0	24.104	0	16.065	0	247.3	4	95.9	4	-1E+10	1	-1E+10	1	-1E+10	1	-1E+10	1	-1E+10	1	-1E+10	1
4902549	43	C	10/16/2021	07:05	-131.808	47.069	0	16.90	0	13.9530	0	32.2900	0	24.104	0	16.759	0	247.3	4	95.9	4	-1E+10	1	-1E+10	1	-1E+10	1	-1E+10	1	-1E+10	1	-1E+10	1
4902549	43	C	10/16/2021	07:05	-131.808	47.069	0	18.00	0	13.9530	0	32.2900	0	24.105	0	17.850	0	247.3	4	95.9	4	-1E+10	1	-1E+10	1	-1E+10	1	-1E+10	1	-1E+10	1	-1E+10	1
4902549	43	C	10/16/2021	07:05	-131.808	47.069	0	19.00	0	13.9550	0	32.2900	0	24.104	0	18.841	0	247.3	4	95.9	4	-1E+10	1	-1E+10	1	-1E+10	1	-1E+10	1	-1E+10	1	-1E+10	1
4902549	43	C	10/16/2021	07:05	-131.808	47.069	0	19.90	0	13.9560	0	32.2890	0	24.103	0	19.734	0	247.3	4	95.9	4	-1E+10	1	-1E+10	1	-1E+10	1	-1E+10	1	-1E+10	1	-1E+10	1
4902549	43	C	10/16/2021	07:05	-131.808	47.069	0	20.80	0	13.9570	0	32.2890	0	24.103	0	20.626	0	247.4	4	96.0	4	-1E+10	1	-1E+10	1	-1E+10	1	-1E+10	1	-1E+10	1	-1E+10	1
4902549	43	C	10/16/2021	07:05	-131.808	47.069	0	21.80	0	13.9550	0	32.2900	0	24.104	0	21.618	0	247.3	4	95.9	4	-1E+10	1	-1E+10	1	-1E+10	1	-1E+10	1	-1E+10	1	-1E+10	1
4902549	43	C	10/16/2021	07:05	-131.808	47.069	0	23.00	0	13.9560	0	32.2900	0	24.104	0	22.808	0	247.3	4	95.9	4	-1E+10	1	-1E+10	1	-1E+10	1	-1E+10	1	-1E+10	1	-1E+10	1
4902549	43	C	10/16/2021	07:05	-131.808	47.069	0	23.90	0	13.9550	0	32.2890	0	24.103	0	23.700	0	247.3	4	95.9	4	-1E+10	1	-1E+10	1	-1E+10	1	-1E+10	1	-1E+10	1	-1E+10	1
4902549	43	C	10/16/2021	07:05	-131.808	47.069	0	25.00	0	13.9560	0	32.2890	0	24.103	0	24.791	0	247.3	4	95.9	4	-1E+10	1	-1E+10	1	-1E+10	1	-1E+10	1	-1E+10	1	-1E+10	1
4902549	43	C	10/16/2021	07:05	-131.808	47.069	0	26.00	0	13.9560	0	32.2890	0	24.103	0	25.782	0	247.3	4	95.9	4	-1E+10	1	-1E+10	1	-1E+10	1	-1E+10	1	-1E+10	1	-1E+10	1
4902549	43	C	10/16/2021	07:05	-131.808	47.069	0	26.90	0	13.9560	0	32.2890	0	24.103	0	26.675	0	247.3	4	95.9	4	-1E+10	1	-1E+10	1	-1E+10	1	-1E+10	1	-1E+10	1	-1E+10	1
4902549	43	C	10/16/2021	07:05	-131.808	47.069	0	27.90	0	13.9560	0	32.2890	0	24.103	0	27.666	0	247.3	4	95.9	4	-1E+10	1	-1E+10	1	-1E+10	1	-1E+10	1	-1E+10	1	-1E+10	1
4902549	43	C	10/16/2021	07:05	-131.808	47.069	0	29.00	0	13.9560	0	32.2890	0	24.103	0	28.757	0	247.3	4	95.9	4	-1E+10	1	-1E+10	1	-1E+10	1	-1E+10	1	-1E+10	1	-1E+10	1
4902549	43	C	10/16/2021	07:05	-131.808	47.069	0	30.30	0	13.9550	0	32.2900	0	24.104	0	30.046	0	247.3	4	95.9	4	-1E+10	1	-1E+10	1	-1E+10	1	-1E+10	1	-1E+10	1	-1E+10	1
4902549	43	C	10/16/2021	07:05	-131.808	47.069	0	31.00	0	13.9560	0	32.2890	0	24.103	0	30.740	0	247.3	4	95.9	4	-1E+10	1	-1E+10	1	-1E+10	1	-1E+10	1	-1E+10	1	-1E+10	1
4902549	43	C	10/16/2021	07:05	-131.808	47.069	0	32.10	0	13.9570	0	32.2900	0	24.104	0	31.831	0	247.2	4	95.9	4	-1E+10	1	-1E+10	1	-1E+10	1	-1E+10	1	-1E+10	1	-1E+10	1
4902549	43	C	10/16/2021	07:05	-131.808	47.069	0	33.00	0	13.9570	0	32.2890	0	24.103	0	32.723	0	247.3	4	95.9	4	-1E+10	1	-1E+10	1	-1E+10	1	-1E+10	1	-1E+10	1	-1E+10	1
4902549	43	C	10/16/2021	07:05	-131.808	47.069	0	34.20	0	13.9560	0	32.2900	0	24.104	0	33.913	0	247.3	4	95.9	4	-1E+10	1	-1E+10	1	-1E+10	1	-1E+10	1	-1E+10	1	-1E+10	1
4902549	43	C	10/16/2021	07:05	-131.808	47.069	0	35.00	0	13.9560	0	32.2900	0	24.104	0	34.706	0	247.4	4	95.9	4	-1E+10	1	-1E+10	1	-1E+10	1	-1E+10	1	-1E+10	1	-1E+10	1
4902549	43	C	10/16/2021	07:05	-131.808	47.069	0	36.20	0	13.9530	0	32.2930	0	24.107	0	35.896	0	247.4	4	96.0	4	-1E+10	1	-1E+10	1	-1E+10	1	-1E+10	1	-1E+10	1	-1E+10	1
4902549	43	C	10/16/2021	07:05	-131.808	47.069	0	37.10	0	13.9540	0	32.2900	0	24.105	0	36.789	0	247.4	4	96.0	4	-1E+10	1	-1E+10	1	-1E+10	1	-1E+10	1	-1E+10	1	-1E+10	1
4902549	43	C	10/16/2021	07:05	-131.808	47.069	0	37.90	0	13.9590	0	32.2890	0	24.103	0	37.582	0	247.4	4	96.0	4	-1E+10	1	-1E+10	1	-1E+10	1	-1E+10	1	-1E+10	1	-1E+10	1
4902549	43	C	10/16/2021	07:05	-131.808	47.069	0	39.00	0	13.9590	0	32.2890	0	24.103	0	38.672	0	247.4	4	96.0	4	-1E+10	1	-1E+10	1	-1E+10	1	-1E+10	1	-1E+10	1	-1E+10	1
4902549	43	C	10/16/2021	07:05	-131.808	47.069	0	39.90	0	13.9590	0	32.2900	0	24.104	0	39.565	0	247.5	4	96.0	4	-1E+10	1	-1E+10	1	-1E+10	1	-1E+10	1	-1E+10	1	-1E+10	1
4902549	43	C	10/16/2021	07:05	-131.808	47.069	0	41.10	0	13.9600	0	32.2890	0	24.103	0	40.755	0	247.5	4	96.0	4	-1E+10	1	-1E+10	1	-1E+10	1	-1E+10	1	-1E+10	1	-1E+10	1
4902549	43	C	10/16/2021	07:05	-131.808	47.069	0	41.80	0	13.9580	0	32.2900	0	24.104	0	41.449	0	247.6	4	96.0	4	-1E+10	1	-1E+10	1	-1E+10	1	-1E+10	1	-1E+10	1	-1E+10	1
4902549	43	C	10/16/2021	07:05	-131.808	47.069	0	43.10	0	13.9540	0	32.2890	0	24.104	0	42.738	0	247.9	4	96.2	4	-1E+10	1	-1E+10	1	-1E+10	1	-1E+10	1	-1E+10	1	-1E+10	1
4902549	43	C	10/16/2021	07:05	-131.808	47.069	0	44.00	0	13.9490	0	32.2900	0	24.106	0	43.630	0	248.1	4	96.2	4	-1E+10	1	-1E+10	1	-1E+10	1	-1E+10	1	-1E+10	1	-1E+10	1
4902549	43	C	10/16/2021	07:05	-131.808	47.069	0	44.90	0	13.9300	0	32.2920	0	24.112	0	44.522	0	248.4	4	96.3	4	-1E+10	1	-1E+10	1	-1E+10	1	-1E+10	1	-1E+10	1	-1E+10	1
4902549	43	C	10/16/2021	07:05	-131.808	47.069	0	45.90	0	13.9050	0	32.2930	0	24.117	0	45.514	0	248.9	4	96.5	4	-1E+10	1	-1E+10	1	-1E+10	1	-1E+10	1	-1E+10	1	-1E+10	1
4902549	43	C	10/16/2021	07:05	-131.808	47.069	0	47.00	0	13.8880	0	32.2930	0	24.121	0	46.604	0	249.6	4	96.7	4	-1E+10	1	-1E+10	1	-1E+10	1	-1E+10	1	-1E+10	1	-1E+10	1
4902549	43	C	10/16/2021	07:05	-131.808	47.069	0	48.00	0	13.8600	0	32.2990	0	24.131	0	47.596	0	250.2	4	96.9	4	-1E+10	1	-1E+10	1	-1E+10	1	-1E+10	1	-1E+10	1	-1E+10	1
4902549	43	C	10/16/2021	07:05	-131.808	47.069	0	49.00	0	13.8380	0	32.2960	0	24.134	0	48.587	0	251.2	4	97.2	4	-1E+10	1	-1E+10	1	-1E+10	1	-1E+10	1	-1E+10	1	-1E+10	1
4902549	43	C	10/16/2021	07:05	-131.808	47.069	0	50.00	0	13.7640	0	32.3000	0	24.152	0	49.579	0	252.7	4	97.7	4	-1E+10	1	-1E+10	1	-1E+10	1	-1E+10	1	-1E+10	1	-1E+10	1
4902549	43	C	10/16/2021	07:05	-131.808	47.069	0	50.80	0	13.6830	0	32.2990	0	24.167	0	50.372	0	254.2	4	98.1	4	-1E+10	1	-1E+10	1	-1E+10	1	-1E+10	1	-1E+10	1	-1E+10	1
4902549	43	C	10/16/2021	07:05	-131.808	47.069	0	51.90	0	13.4760	0	32.3240	0	24.228	0	51.462	0	255.3	4	98.1	4	-1E+10	1	-1E+10	1	-1E+10	1	-1E+10	1	-1E+10	1	-1E+10	1
4902549	43	C	10/16/2021	07:05	-131.808	47.069	0	52.90	0	12.9470	0	32.3410	0	24.346	0	52.454	0	258.8	4	98.4	4	-1E+10	1	-1E+10	1	-1E+10	1	-1E+10	1	-1E+10	1	-1E+10	1
4902549	43	C	10/16/2021	07:05	-131.808	47.069	0	53.80	0	12.7340	0	32.3460	0	24.391	0	53.346	0	260.8	4	98.7	4	-1E+10	1	-1E+10	1	-1E+10	1	-1E+10	1	-1E+10	1	-1E+10	1
4902549	43	C	10/16/2021	07:05	-131.808	47.069	0	55.10	0	12.3010	0	32.3670	0	24.490	0	54.635	0	263.5	4	98.9	4	-1E+10	1	-1E+10	1	-1E+10	1	-1E+10	1	-1E+10	1	-1E+10	1
4902549	43	C	10/16/2021	07:05	-131.808	47.069	0	56.10	0	12.0580	0	32.3730	0	24.541	0	55.626	0	264.7	4	98.8	4	-1E+10	1	-1E+10	1	-1E+10	1	-1E+10	1	-1E+10	1	-1E+10	1
4902549	43	C	10/16/2021	07:05	-131.808	47.069	0	57.00	0	11.6640	0	32.3850	0	24.623	0	56.519	0	266.3	4	98.6	4	-1E+10	1	-1E+10	1	-1E+10	1	-1E+10	1	-1E+10	1	-1E+10	1
4902549	43	C	10/16/2021	07:05	-131.808	47.069	0	57.90	0	11.3410	0	32.3980	0	24.691	0	57.411	0	267.3	4	98.3	4	-1E+10	1	-1E+10	1	-1E+10	1	-1E+10	1	-1E+10	1	-1E+10	1
4902549	43	C	10/16/2021	07:05	-131.808	47.069	0	58.90	0	10.9540	0	32.4090	0	24.768	0	58.402	0	268.0	4	97.8	4	-1E+10	1	-1E+10	1	-1E+10	1	-1E+10	1	-1E+10	1	-1E+10	1
4902549	43	C	10/16/2021	07:05	-131.808	47.069	0	59.90	0	10.4350	0	32.4230	0	24.869	0	59.394	0	269.6	4	97.3	4	-1E+10	1	-1E+10	1	-1E+10	1	-1E+10	1	-1E+10	1	-1E+10	1
4902549	43	C	10/16/2021	07:05	-131.808	47.069	0	60.90	0	9.9890	0	32.4310	0	24.950	0	60.385	0	270.7	4	96.8	4	-1E+10	1	-1E+10	1	-1E+10	1	-1E+10	1	-1E+10	1	-1E+10	1
4902549	43	C	10/16/2021	07:05	-131.808	47.069	0	62.00	0	9.9620	0	32.4310	0	24.954	0	61.476	0	269.8	4	96.4	4	-1E+10	1	-1E+10	1	-1E+10	1	-1E+10	1	-1E+10	1	-1E+10	1
4902549	43	C	10/16/2021	07:05	-131.808	47.069	0	63.10	0	9.9200	0	32.4250	0	24.957	0	62.566	0	268.8	4	95.9	4	-1E+10	1	-1E+10	1	-1E+10	1	-1E+10	1	-1E+10	1	-1E+10	1
4902549	43	C	10/16/2021	07:05	-131.808	47.069	0	64.00	0	9.8720	0	32.4170	0	24.958	0	63.459	0	267.9	4	95.5	4	-1E+10	1	-1E+10	1	-1E+10	1	-1E+10	1	-1E+10	1	-1E+10	1
4902549	43	C	10/16/2021	07:05	-131.808	47.069	0	65.00	0	9.4690	0	32.4360	0	25.038	0	64.450	0	269.1	4	95.1	4	-1E+10	1	-1E+10	1	-1E+10	1	-1E+10	1	-1E+10	1	-1E+10	1
4902549	43	C	10/16/2021	07:05	-131.808	47.069	0	66.00	0	9.4350	0	32.4360	0	25.044	0	65.441	0	268.3	4	94.7	4	-1E+10	1	-1E+10	1	-1E+10	1	-1E+10	1	-1E+10	1	-1E+10	1
4902549	43	C	10/16/2021	07:05	-131.808	47.069	0	67.00	0	9.4060	0	32.4370	0	25.049	0	66.433	0	267.2	4	94.3	4	-1E+10	1	-1E+10	1	-1E+10	1	-1E+10	1	-1E+10	1	-1E+10	1
4902549	43	C	10/16/2021	07:05	-131.808	47.069	0	67.90	0	9.3290	0	32.4430	0	25.066	0	67.325	0	266.3	4	93.8	4	-1E+10	1	-1E+10	1	-1E+10	1	-1E+10	1	-1E+10	1	-1E+10	1
4902549	43	C	10/16/2021	07:05	-131.808	47.069	0	68.90	0	9.1550	0	32.4560	0	25.104	0	68.316	0	266.7	4	93.6	4	-1E+10	1	-1E+10	1	-1E+10	1	-1E+10	1	-1E+10	1	-1E+10	1
4902549	43	C	10/16/2021	07:05	-131.808	47.069	0	69.80	0	9.1130	0	32.4610	0	25.114	0	69.208	0	266.1	4	93.3	4	-1E+10	1	-1E+10	1	-1E+10	1	-1E+10	1	-1E+10	1	-1E+10	1
4902549	43	C	10/16/2021	07:05	-131.808	47.069	0	70.80	0	9.0670	0	32.4630	0	25.123	0	70.200	0	265.6	4	93.1	4	-1E+10	1	-1E+10	1	-1E+10	1	-1E+10	1	-1E+10	1	-1E+10	1
4902549	43	C	10/16/2021	07:05	-131.808	47.069	0	72.00	0	8.9860	0	32.4700	0	25.141	0	71.389	0	264.9	4	92.7	4	-1E+10	1	-1E+10	1	-1E+10	1	-1E+10	1	-1E+10	1	-1E+10	1
4902549	43	C	10/16/2021	07:05	-131.808	47.069	0	73.00	0	8.9490	0	32.4750	0	25.151	0	72.381	0	264.4	4	92.4	4	-1E+10	1	-1E+10	1	-1E+10	1	-1E+10	1	-1E+10	1	-1E+10	1
4902549	43	C	10/16/2021	07:05	-131.808	47.069	0	73.90	0	8.9360	0	32.4740	0	25.152	0	73.273	0	263.6	4	92.1	4	-1E+10	1	-1E+10	1	-1E+10	1	-1E+10	1	-1E+10	1	-1E+10	1
4902549	43	C	10/16/2021	07:05	-131.808	47.069	0	75.10	0	8.8870	0	32.4810	0	25.165	0	74.463	0	262.3	4	91.6	4	-1E+10	1	-1E+10	1	-1E+10	1	-1E+10	1	-1E+10	1	-1E+10	1
4902549	43	C	10/16/2021	07:05	-131.808	47.069	0	76.00	0	8.7880	0	32.4800	0	25.180	0	75.355	0	261.6	4	91.1	4	-1E+10	1	-1E+10	1	-1E+10	1	-1E+10	1	-1E+10	1	-1E+10	1
4902549	43	C	10/16/2021	07:05	-131.808	47.069	0	77.10	0	8.6610	0	32.4850	0	25.203	0	76.445	0	261.1	4	90.7	4	-1E+10	1	-1E+10	1	-1E+10	1	-1E+10	1	-1E+10	1	-1E+10	1
4902549	43	C	10/16/2021	07:05	-131.808	47.069	0	78.00	0	8.6080	0	32.4870	0	25.212	0	77.337	0	260.8	4	90.5	4	-1E+10	1	-1E+10	1	-1E+10	1	-1E+10	1	-1E+10	1	-1E+10	1
4902549	43	C	10/16/2021	07:05	-131.808	47.069	0	78.90	0	8.5400	0	32.4910	0	25.226	0	78.230	0	260.6	4	90.3	4	-1E+10	1	-1E+10	1	-1E+10	1	-1E+10	1	-1E+10	1	-1E+10	1
4902549	43	C	10/16/2021	07:05	-131.808	47.069	0	79.80	0	8.4810	0	32.4910	0	25.235	0	79.122	0	260.4	4	90.1	4	-1E+10	1	-1E+10	1	-1E+10	1	-1E+10	1	-1E+10	1	-1E+10	1
4902549	43	C	10/16/2021	07:05	-131.808	47.069	0	80.90	0	8.4280	0	32.4940	0	25.245	0	80.212	0	260.1	4	89.9	4	-1E+10	1	-1E+10	1	-1E+10	1	-1E+10	1	-1E+10	1	-1E+10	1
4902549	43	C	10/16/2021	07:05	-131.808	47.069	0	81.90	0	8.3970	0	32.4930	0	25.249	0	81.204	0	259.8	4	89.7	4	-1E+10	1	-1E+10	1	-1E+10	1	-1E+10	1	-1E+10	1	-1E+10	1
4902549	43	C	10/16/2021	07:05	-131.808	47.069	0	83.00	0	8.3660	0	32.4970	0	25.256	0	82.294	0	259.6	4	89.6	4	-1E+10	1	-1E+10	1	-1E+10	1	-1E+10	1	-1E+10	1	-1E+10	1
4902549	43	C	10/16/2021	07:05	-131.808	47.069	0	84.10	0	8.3420	0	32.4950	0	25.258	0	83.384	0	259.5	4	89.5	4	-1E+10	1	-1E+10	1	-1E+10	1	-1E+10	1	-1E+10	1	-1E+10	1
4902549	43	C	10/16/2021	07:05	-131.808	47.069	0	84.80	0	8.3220	0	32.4970	0	25.263	0	84.078	0	259.4	4	89.4	4	-1E+10	1	-1E+10	1	-1E+10	1	-1E+10	1	-1E+10	1	-1E+10	1
4902549	43	C	10/16/2021	07:05	-131.808	47.069	0	86.00	0	8.2650	0	32.4950	0	25.270	0	85.268	0	259.4	4	89.3	4	-1E+10	1	-1E+10	1	-1E+10	1	-1E+10	1	-1E+10	1	-1E+10	1
4902549	43	C	10/16/2021	07:05	-131.808	47.069	0	87.10	0	8.1800	0	32.4940	0	25.282	0	86.358	0	259.6	4	89.2	4	-1E+10	1	-1E+10	1	-1E+10	1	-1E+10	1	-1E+10	1	-1E+10	1
4902549	43	C	10/16/2021	07:05	-131.808	47.069	0	87.90	0	8.1340	0	32.4940	0	25.288	0	87.151	0	259.6	4	89.1	4	-1E+10	1	-1E+10	1	-1E+10	1	-1E+10	1	-1E+10	1	-1E+10	1
4902549	43	C	10/16/2021	07:05	-131.808	47.069	0	89.10	0	8.0580	0	32.4920	0	25.298	0	88.341	0	259.8	4	89.0	4	-1E+10	1	-1E+10	1	-1E+10	1	-1E+10	1	-1E+10	1	-1E+10	1
4902549	43	C	10/16/2021	07:05	-131.808	47.069	0	89.90	0	8.0480	0	32.4920	0	25.299	0	89.134	0	259.7	4	89.0	4	-1E+10	1	-1E+10	1	-1E+10	1	-1E+10	1	-1E+10	1	-1E+10	1
4902549	43	C	10/16/2021	07:05	-131.808	47.069	0	91.10	0	8.0330	0	32.4920	0	25.301	0	90.323	0	259.4	4	88.8	4	-1E+10	1	-1E+10	1	-1E+10	1	-1E+10	1	-1E+10	1	-1E+10	1
4902549	43	C	10/16/2021	07:05	-131.808	47.069	0	91.90	0	8.0250	0	32.4940	0	25.304	0	91.116	0	259.4	4	88.8	4	-1E+10	1	-1E+10	1	-1E+10	1	-1E+10	1	-1E+10	1	-1E+10	1
4902549	43	C	10/16/2021	07:05	-131.808	47.069	0	92.90	0	7.9810	0	32.5030	0	25.318	0	92.108	0	259.4	4	88.7	4	-1E+10	1	-1E+10	1	-1E+10	1	-1E+10	1	-1E+10	1	-1E+10	1
4902549	43	C	10/16/2021	07:05	-131.808	47.069	0	93.80	0	7.9470	0	32.4970	0	25.318	0	93.000	0	259.6	4	88.7	4	-1E+10	1	-1E+10	1	-1E+10	1	-1E+10	1	-1E+10	1	-1E+10	1
4902549	43	C	10/16/2021	07:05	-131.808	47.069	0	94.90	0	7.8710	0	32.4930	0	25.326	0	94.090	0	259.7	4	88.6	4	-1E+10	1	-1E+10	1	-1E+10	1	-1E+10	1	-1E+10	1	-1E+10	1
4902549	43	C	10/16/2021	07:05	-131.808	47.069	0	96.10	0	7.8220	0	32.4890	0	25.329	0	95.280	0	259.7	4	88.5	4	-1E+10	1	-1E+10	1	-1E+10	1	-1E+10	1	-1E+10	1	-1E+10	1
4902549	43	C	10/16/2021	07:05	-131.808	47.069	0	97.10	0	7.7740	0	32.4900	0	25.337	0	96.271	0	259.5	4	88.4	4	-1E+10	1	-1E+10	1	-1E+10	1	-1E+10	1	-1E+10	1	-1E+10	1
4902549	43	C	10/16/2021	07:05	-131.808	47.069	0	98.10	0	7.6470	0	32.4870	0	25.353	0	97.262	0	259.8	4	88.2	4	-1E+10	1	-1E+10	1	-1E+10	1	-1E+10	1	-1E+10	1	-1E+10	1
4902549	43	C	10/16/2021	07:05	-131.808	47.069	0	99.10	0	7.6380	0	32.4880	0	25.355	0	98.253	0	259.5	4	88.1	4	-1E+10	1	-1E+10	1	-1E+10	1	-1E+10	1	-1E+10	1	-1E+10	1
4902549	43	C	10/16/2021	07:05	-131.808	47.069	0	100.10	0	7.6340	0	32.4870	0	25.354	0	99.244	0	259.0	4	87.9	4	-1E+10	1	-1E+10	1	-1E+10	1	-1E+10	1	-1E+10	1	-1E+10	1
4902549	43	C	10/16/2021	07:05	-131.808	47.069	0	100.90	0	7.6270	0	32.4870	0	25.355	0	100.037	0	258.5	4	87.7	4	-1E+10	1	-1E+10	1	-1E+10	1	-1E+10	1	-1E+10	1	-1E+10	1
4902549	43	C	10/16/2021	07:05	-131.808	47.069	0	101.70	0	7.6020	0	32.4890	0	25.360	0	100.830	0	258.1	4	87.5	4	-1E+10	1	-1E+10	1	-1E+10	1	-1E+10	1	-1E+10	1	-1E+10	1
4902549	43	C	10/16/2021	07:05	-131.808	47.069	0	102.90	0	7.5580	0	32.4910	0	25.368	0	102.020	0	257.6	4	87.3	4	-1E+10	1	-1E+10	1	-1E+10	1	-1E+10	1	-1E+10	1	-1E+10	1
4902549	43	C	10/16/2021	07:05	-131.808	47.069	0	104.00	0	7.5070	0	32.4970	0	25.380	0	103.110	0	257.0	4	87.0	4	-1E+10	1	-1E+10	1	-1E+10	1	-1E+10	1	-1E+10	1	-1E+10	1
4902549	43	C	10/16/2021	07:05	-131.808	47.069	0	105.00	0	7.4880	0	32.4980	0	25.383	0	104.101	0	256.0	4	86.6	4	-1E+10	1	-1E+10	1	-1E+10	1	-1E+10	1	-1E+10	1	-1E+10	1
4902549	43	C	10/16/2021	07:05	-131.808	47.069	0	106.10	0	7.4690	0	32.5010	0	25.388	0	105.192	0	254.9	4	86.2	4	-1E+10	1	-1E+10	1	-1E+10	1	-1E+10	1	-1E+10	1	-1E+10	1
4902549	43	C	10/16/2021	07:05	-131.808	47.069	0	107.00	0	7.4360	0	32.5080	0	25.399	0	106.084	0	254.1	4	85.9	4	-1E+10	1	-1E+10	1	-1E+10	1	-1E+10	1	-1E+10	1	-1E+10	1
4902549	43	C	10/16/2021	07:05	-131.808	47.069	0	107.70	0	7.4310	0	32.5100	0	25.401	0	106.778	0	253.1	4	85.5	4	-1E+10	1	-1E+10	1	-1E+10	1	-1E+10	1	-1E+10	1	-1E+10	1
4902549	43	C	10/16/2021	07:05	-131.808	47.069	0	108.70	0	7.4240	0	32.5130	0	25.404	0	107.769	0	251.7	4	85.1	4	-1E+10	1	-1E+10	1	-1E+10	1	-1E+10	1	-1E+10	1	-1E+10	1
4902549	43	C	10/16/2021	07:05	-131.808	47.069	0	109.70	0	7.4070	0	32.5310	0	25.421	0	108.760	0	250.4	4	84.6	4	-1E+10	1	-1E+10	1	-1E+10	1	-1E+10	1	-1E+10	1	-1E+10	1
4902549	43	C	10/16/2021	07:05	-131.808	47.069	0	110.80	0	7.4080	0	32.5610	0	25.444	0	109.850	0	248.9	4	84.1	4	-1E+10	1	-1E+10	1	-1E+10	1	-1E+10	1	-1E+10	1	-1E+10	1
4902549	43	C	10/16/2021	07:05	-131.808	47.069	0	111.80	0	7.4210	0	32.5950	0	25.469	0	110.841	0	247.8	4	83.8	4	-1E+10	1	-1E+10	1	-1E+10	1	-1E+10	1	-1E+10	1	-1E+10	1
4902549	43	C	10/16/2021	07:05	-131.808	47.069	0	112.90	0	7.4200	0	32.6050	0	25.477	0	111.932	0	246.7	4	83.4	4	-1E+10	1	-1E+10	1	-1E+10	1	-1E+10	1	-1E+10	1	-1E+10	1
4902549	43	C	10/16/2021	07:05	-131.808	47.069	0	113.90	0	7.4140	0	32.6140	0	25.485	0	112.923	0	245.6	4	83.0	4	-1E+10	1	-1E+10	1	-1E+10	1	-1E+10	1	-1E+10	1	-1E+10	1
4902549	43	C	10/16/2021	07:05	-131.808	47.069	0	114.90	0	7.4090	0	32.6160	0	25.487	0	113.914	0	244.3	4	82.6	4	-1E+10	1	-1E+10	1	-1E+10	1	-1E+10	1	-1E+10	1	-1E+10	1
4902549	43	C	10/16/2021	07:05	-131.808	47.069	0	115.90	0	7.4040	0	32.6170	0	25.489	0	114.905	0	242.1	4	81.8	4	-1E+10	1	-1E+10	1	-1E+10	1	-1E+10	1	-1E+10	1	-1E+10	1
4902549	43	C	10/16/2021	07:05	-131.808	47.069	0	117.10	0	7.3780	0	32.6190	0	25.494	0	116.094	0	238.3	4	80.5	4	-1E+10	1	-1E+10	1	-1E+10	1	-1E+10	1	-1E+10	1	-1E+10	1
4902549	43	C	10/16/2021	07:05	-131.808	47.069	0	117.90	0	7.3760	0	32.6220	0	25.497	0	116.887	0	235.8	4	79.7	4	-1E+10	1	-1E+10	1	-1E+10	1	-1E+10	1	-1E+10	1	-1E+10	1
4902549	43	C	10/16/2021	07:05	-131.808	47.069	0	119.00	0	7.3890	0	32.6300	0	25.501	0	117.977	0	232.0	4	78.4	4	-1E+10	1	-1E+10	1	-1E+10	1	-1E+10	1	-1E+10	1	-1E+10	1
4902549	43	C	10/16/2021	07:05	-131.808	47.069	0	119.80	0	7.3700	0	32.6430	0	25.514	0	118.770	0	227.9	4	77.0	4	-1E+10	1	-1E+10	1	-1E+10	1	-1E+10	1	-1E+10	1	-1E+10	1
4902549	43	C	10/16/2021	07:05	-131.808	47.069	0	120.80	0	7.4880	0	32.7230	0	25.561	0	119.762	0	222.1	4	75.3	4	-1E+10	1	-1E+10	1	-1E+10	1	-1E+10	1	-1E+10	1	-1E+10	1
4902549	43	C	10/16/2021	07:05	-131.808	47.069	0	122.00	0	7.6710	0	32.8550	0	25.639	0	120.951	0	217.1	4	73.9	4	-1E+10	1	-1E+10	1	-1E+10	1	-1E+10	1	-1E+10	1	-1E+10	1
4902549	43	C	10/16/2021	07:05	-131.808	47.069	0	123.10	0	7.7650	0	32.9360	0	25.689	0	122.041	0	214.1	4	73.1	4	-1E+10	1	-1E+10	1	-1E+10	1	-1E+10	1	-1E+10	1	-1E+10	1
4902549	43	C	10/16/2021	07:05	-131.808	47.069	0	124.30	0	7.8240	0	32.9920	0	25.725	0	123.230	0	212.1	4	72.6	4	-1E+10	1	-1E+10	1	-1E+10	1	-1E+10	1	-1E+10	1	-1E+10	1
4902549	43	C	10/16/2021	07:05	-131.808	47.069	0	125.20	0	7.8480	0	33.0120	0	25.737	0	124.122	0	210.7	4	72.1	4	-1E+10	1	-1E+10	1	-1E+10	1	-1E+10	1	-1E+10	1	-1E+10	1
4902549	43	C	10/16/2021	07:05	-131.808	47.069	0	126.10	0	7.8530	0	33.0180	0	25.741	0	125.014	0	209.3	4	71.7	4	-1E+10	1	-1E+10	1	-1E+10	1	-1E+10	1	-1E+10	1	-1E+10	1
4902549	43	C	10/16/2021	07:05	-131.808	47.069	0	126.90	0	7.8580	0	33.0310	0	25.750	0	125.807	0	207.7	4	71.1	4	-1E+10	1	-1E+10	1	-1E+10	1	-1E+10	1	-1E+10	1	-1E+10	1
4902549	43	C	10/16/2021	07:05	-131.808	47.069	0	128.10	0	7.8690	0	33.0680	0	25.778	0	126.997	0	205.1	4	70.3	4	-1E+10	1	-1E+10	1	-1E+10	1	-1E+10	1	-1E+10	1	-1E+10	1
4902549	43	C	10/16/2021	07:05	-131.808	47.069	0	129.00	0	7.8640	0	33.1060	0	25.808	0	127.888	0	203.3	4	69.7	4	-1E+10	1	-1E+10	1	-1E+10	1	-1E+10	1	-1E+10	1	-1E+10	1
4902549	43	C	10/16/2021	07:05	-131.808	47.069	0	130.00	0	7.8550	0	33.1460	0	25.841	0	128.880	0	201.1	4	68.9	4	-1E+10	1	-1E+10	1	-1E+10	1	-1E+10	1	-1E+10	1	-1E+10	1
4902549	43	C	10/16/2021	07:05	-131.808	47.069	0	131.00	0	7.8180	0	33.2130	0	25.899	0	129.871	0	199.5	4	68.3	4	-1E+10	1	-1E+10	1	-1E+10	1	-1E+10	1	-1E+10	1	-1E+10	1
4902549	43	C	10/16/2021	07:05	-131.808	47.069	0	132.10	0	7.7780	0	33.2610	0	25.943	0	130.961	0	198.4	4	67.9	4	-1E+10	1	-1E+10	1	-1E+10	1	-1E+10	1	-1E+10	1	-1E+10	1
4902549	43	C	10/16/2021	07:05	-131.808	47.069	0	133.00	0	7.7520	0	33.2740	0	25.956	0	131.853	0	197.5	4	67.6	4	-1E+10	1	-1E+10	1	-1E+10	1	-1E+10	1	-1E+10	1	-1E+10	1
4902549	43	C	10/16/2021	07:05	-131.808	47.069	0	133.80	0	7.7320	0	33.2880	0	25.970	0	132.646	0	196.5	4	67.2	4	-1E+10	1	-1E+10	1	-1E+10	1	-1E+10	1	-1E+10	1	-1E+10	1
4902549	43	C	10/16/2021	07:05	-131.808	47.069	0	135.00	0	7.6770	0	33.3210	0	26.004	0	133.835	0	194.9	4	66.6	4	-1E+10	1	-1E+10	1	-1E+10	1	-1E+10	1	-1E+10	1	-1E+10	1
4902549	43	C	10/16/2021	07:05	-131.808	47.069	0	135.90	0	7.6380	0	33.3430	0	26.027	0	134.727	0	193.6	4	66.1	4	-1E+10	1	-1E+10	1	-1E+10	1	-1E+10	1	-1E+10	1	-1E+10	1
4902549	43	C	10/16/2021	07:05	-131.808	47.069	0	137.00	0	7.6060	0	33.3900	0	26.069	0	135.817	0	192.3	4	65.7	4	-1E+10	1	-1E+10	1	-1E+10	1	-1E+10	1	-1E+10	1	-1E+10	1
4902549	43	C	10/16/2021	07:05	-131.808	47.069	0	138.10	0	7.6460	0	33.4680	0	26.124	0	136.907	0	191.1	4	65.3	4	-1E+10	1	-1E+10	1	-1E+10	1	-1E+10	1	-1E+10	1	-1E+10	1
4902549	43	C	10/16/2021	07:05	-131.808	47.069	0	139.00	0	7.6480	0	33.4910	0	26.142	0	137.799	0	190.5	4	65.2	4	-1E+10	1	-1E+10	1	-1E+10	1	-1E+10	1	-1E+10	1	-1E+10	1
4902549	43	C	10/16/2021	07:05	-131.808	47.069	0	139.80	0	7.6430	0	33.5150	0	26.162	0	138.592	0	190.1	4	65.0	4	-1E+10	1	-1E+10	1	-1E+10	1	-1E+10	1	-1E+10	1	-1E+10	1
4902549	43	C	10/16/2021	07:05	-131.808	47.069	0	141.00	0	7.6400	0	33.5230	0	26.168	0	139.781	0	189.5	4	64.8	4	-1E+10	1	-1E+10	1	-1E+10	1	-1E+10	1	-1E+10	1	-1E+10	1
4902549	43	C	10/16/2021	07:05	-131.808	47.069	0	142.20	0	7.6380	0	33.5330	0	26.176	0	140.970	0	188.8	4	64.6	4	-1E+10	1	-1E+10	1	-1E+10	1	-1E+10	1	-1E+10	1	-1E+10	1
4902549	43	C	10/16/2021	07:05	-131.808	47.069	0	143.10	0	7.6330	0	33.5410	0	26.183	0	141.862	0	188.4	4	64.4	4	-1E+10	1	-1E+10	1	-1E+10	1	-1E+10	1	-1E+10	1	-1E+10	1
4902549	43	C	10/16/2021	07:05	-131.808	47.069	0	144.00	0	7.6330	0	33.5540	0	26.194	0	142.754	0	187.9	4	64.3	4	-1E+10	1	-1E+10	1	-1E+10	1	-1E+10	1	-1E+10	1	-1E+10	1
4902549	43	C	10/16/2021	07:05	-131.808	47.069	0	144.80	0	7.6310	0	33.5680	0	26.205	0	143.547	0	187.3	4	64.1	4	-1E+10	1	-1E+10	1	-1E+10	1	-1E+10	1	-1E+10	1	-1E+10	1
4902549	43	C	10/16/2021	07:05	-131.808	47.069	0	145.70	0	7.6290	0	33.5730	0	26.209	0	144.439	0	186.9	4	63.9	4	-1E+10	1	-1E+10	1	-1E+10	1	-1E+10	1	-1E+10	1	-1E+10	1
4902549	43	C	10/16/2021	07:05	-131.808	47.069	0	146.60	0	7.6190	0	33.5850	0	26.220	0	145.331	0	186.3	4	63.7	4	-1E+10	1	-1E+10	1	-1E+10	1	-1E+10	1	-1E+10	1	-1E+10	1
4902549	43	C	10/16/2021	07:05	-131.808	47.069	0	147.90	0	7.6010	0	33.5960	0	26.231	0	146.619	0	185.4	4	63.4	4	-1E+10	1	-1E+10	1	-1E+10	1	-1E+10	1	-1E+10	1	-1E+10	1
4902549	43	C	10/16/2021	07:05	-131.808	47.069	0	149.20	0	7.5800	0	33.6020	0	26.239	0	147.907	0	184.5	4	63.1	4	-1E+10	1	-1E+10	1	-1E+10	1	-1E+10	1	-1E+10	1	-1E+10	1
4902549	43	C	10/16/2021	07:05	-131.808	47.069	0	150.10	0	7.5650	0	33.6110	0	26.248	0	148.799	0	183.8	4	62.8	4	-1E+10	1	-1E+10	1	-1E+10	1	-1E+10	1	-1E+10	1	-1E+10	1
4902549	43	C	10/16/2021	07:05	-131.808	47.069	0	151.10	0	7.5360	0	33.6190	0	26.259	0	149.790	0	183.3	4	62.6	4	-1E+10	1	-1E+10	1	-1E+10	1	-1E+10	1	-1E+10	1	-1E+10	1
4902549	43	C	10/16/2021	07:05	-131.808	47.069	0	152.00	0	7.4900	0	33.6350	0	26.278	0	150.682	0	182.9	4	62.4	4	-1E+10	1	-1E+10	1	-1E+10	1	-1E+10	1	-1E+10	1	-1E+10	1
4902549	43	C	10/16/2021	07:05	-131.808	47.069	0	152.90	0	7.4840	0	33.6360	0	26.279	0	151.574	0	182.4	4	62.2	4	-1E+10	1	-1E+10	1	-1E+10	1	-1E+10	1	-1E+10	1	-1E+10	1
4902549	43	C	10/16/2021	07:05	-131.808	47.069	0	153.80	0	7.4820	0	33.6370	0	26.281	0	152.466	0	181.8	4	62.0	4	-1E+10	1	-1E+10	1	-1E+10	1	-1E+10	1	-1E+10	1	-1E+10	1
4902549	43	C	10/16/2021	07:05	-131.808	47.069	0	154.70	0	7.4750	0	33.6390	0	26.283	0	153.357	0	181.2	4	61.8	4	-1E+10	1	-1E+10	1	-1E+10	1	-1E+10	1	-1E+10	1	-1E+10	1
4902549	43	C	10/16/2021	07:05	-131.808	47.069	0	155.60	0	7.4740	0	33.6400	0	26.284	0	154.249	0	180.4	4	61.5	4	-1E+10	1	-1E+10	1	-1E+10	1	-1E+10	1	-1E+10	1	-1E+10	1
4902549	43	C	10/16/2021	07:05	-131.808	47.069	0	156.90	0	7.4470	0	33.6510	0	26.297	0	155.538	0	179.2	4	61.1	4	-1E+10	1	-1E+10	1	-1E+10	1	-1E+10	1	-1E+10	1	-1E+10	1
4902549	43	C	10/16/2021	07:05	-131.808	47.069	0	158.40	0	7.4330	0	33.6660	0	26.310	0	157.024	0	178.0	4	60.6	4	-1E+10	1	-1E+10	1	-1E+10	1	-1E+10	1	-1E+10	1	-1E+10	1
4902549	43	C	10/16/2021	07:05	-131.808	47.069	0	159.40	0	7.4000	0	33.6760	0	26.323	0	158.015	0	177.5	4	60.4	4	-1E+10	1	-1E+10	1	-1E+10	1	-1E+10	1	-1E+10	1	-1E+10	1
4902549	43	C	10/16/2021	07:05	-131.808	47.069	0	160.30	0	7.3970	0	33.6770	0	26.324	0	158.907	0	176.8	4	60.2	4	-1E+10	1	-1E+10	1	-1E+10	1	-1E+10	1	-1E+10	1	-1E+10	1
4902549	43	C	10/16/2021	07:05	-131.808	47.069	0	161.30	0	7.3920	0	33.6790	0	26.326	0	159.898	0	176.0	4	59.9	4	-1E+10	1	-1E+10	1	-1E+10	1	-1E+10	1	-1E+10	1	-1E+10	1
4902549	43	C	10/16/2021	07:05	-131.808	47.069	0	162.20	0	7.3700	0	33.6860	0	26.335	0	160.789	0	175.3	4	59.7	4	-1E+10	1	-1E+10	1	-1E+10	1	-1E+10	1	-1E+10	1	-1E+10	1
4902549	43	C	10/16/2021	07:05	-131.808	47.069	0	163.20	0	7.3620	0	33.6910	0	26.340	0	161.780	0	174.6	4	59.4	4	-1E+10	1	-1E+10	1	-1E+10	1	-1E+10	1	-1E+10	1	-1E+10	1
4902549	43	C	10/16/2021	07:05	-131.808	47.069	0	164.20	0	7.3460	0	33.7010	0	26.350	0	162.771	0	173.9	4	59.2	4	-1E+10	1	-1E+10	1	-1E+10	1	-1E+10	1	-1E+10	1	-1E+10	1
4902549	43	C	10/16/2021	07:05	-131.808	47.069	0	165.20	0	7.3400	0	33.7070	0	26.356	0	163.762	0	173.2	4	58.9	4	-1E+10	1	-1E+10	1	-1E+10	1	-1E+10	1	-1E+10	1	-1E+10	1
4902549	43	C	10/16/2021	07:05	-131.808	47.069	0	166.20	0	7.3400	0	33.7070	0	26.356	0	164.753	0	172.4	4	58.6	4	-1E+10	1	-1E+10	1	-1E+10	1	-1E+10	1	-1E+10	1	-1E+10	1
4902549	43	C	10/16/2021	07:05	-131.808	47.069	0	167.20	0	7.3400	0	33.7080	0	26.356	0	165.744	0	171.6	4	58.4	4	-1E+10	1	-1E+10	1	-1E+10	1	-1E+10	1	-1E+10	1	-1E+10	1
4902549	43	C	10/16/2021	07:05	-131.808	47.069	0	168.20	0	7.3430	0	33.7090	0	26.357	0	166.735	0	170.5	4	58.0	4	-1E+10	1	-1E+10	1	-1E+10	1	-1E+10	1	-1E+10	1	-1E+10	1
4902549	43	C	10/16/2021	07:05	-131.808	47.069	0	169.20	0	7.3340	0	33.7270	0	26.372	0	167.726	0	169.5	4	57.7	4	-1E+10	1	-1E+10	1	-1E+10	1	-1E+10	1	-1E+10	1	-1E+10	1
4902549	43	C	10/16/2021	07:05	-131.808	47.069	0	170.10	0	7.3070	0	33.7300	0	26.378	0	168.618	0	168.7	4	57.4	4	-1E+10	1	-1E+10	1	-1E+10	1	-1E+10	1	-1E+10	1	-1E+10	1
4902549	43	C	10/16/2021	07:05	-131.808	47.069	0	171.10	0	7.2830	0	33.7370	0	26.387	0	169.608	0	168.0	4	57.1	4	-1E+10	1	-1E+10	1	-1E+10	1	-1E+10	1	-1E+10	1	-1E+10	1
4902549	43	C	10/16/2021	07:05	-131.808	47.069	0	172.10	0	7.2650	0	33.7360	0	26.389	0	170.599	0	167.3	4	56.8	4	-1E+10	1	-1E+10	1	-1E+10	1	-1E+10	1	-1E+10	1	-1E+10	1
4902549	43	C	10/16/2021	07:05	-131.808	47.069	0	173.10	0	7.2610	0	33.7370	0	26.390	0	171.590	0	166.6	4	56.6	4	-1E+10	1	-1E+10	1	-1E+10	1	-1E+10	1	-1E+10	1	-1E+10	1
4902549	43	C	10/16/2021	07:05	-131.808	47.069	0	174.10	0	7.2610	0	33.7380	0	26.391	0	172.581	0	165.6	4	56.2	4	-1E+10	1	-1E+10	1	-1E+10	1	-1E+10	1	-1E+10	1	-1E+10	1
4902549	43	C	10/16/2021	07:05	-131.808	47.069	0	175.20	0	7.2550	0	33.7410	0	26.394	0	173.671	0	164.6	4	55.9	4	-1E+10	1	-1E+10	1	-1E+10	1	-1E+10	1	-1E+10	1	-1E+10	1
4902549	43	C	10/16/2021	07:05	-131.808	47.069	0	176.20	0	7.2430	0	33.7440	0	26.398	0	174.662	0	163.6	4	55.5	4	-1E+10	1	-1E+10	1	-1E+10	1	-1E+10	1	-1E+10	1	-1E+10	1
4902549	43	C	10/16/2021	07:05	-131.808	47.069	0	177.20	0	7.1810	0	33.7590	0	26.419	0	175.653	0	163.3	4	55.4	4	-1E+10	1	-1E+10	1	-1E+10	1	-1E+10	1	-1E+10	1	-1E+10	1
4902549	43	C	10/16/2021	07:05	-131.808	47.069	0	178.20	0	7.1800	0	33.7600	0	26.420	0	176.644	0	162.8	4	55.2	4	-1E+10	1	-1E+10	1	-1E+10	1	-1E+10	1	-1E+10	1	-1E+10	1
4902549	43	C	10/16/2021	07:05	-131.808	47.069	0	179.10	0	7.1770	0	33.7610	0	26.421	0	177.535	0	162.3	4	55.0	4	-1E+10	1	-1E+10	1	-1E+10	1	-1E+10	1	-1E+10	1	-1E+10	1
4902549	43	C	10/16/2021	07:05	-131.808	47.069	0	180.10	0	7.1660	0	33.7630	0	26.424	0	178.526	0	161.9	4	54.9	4	-1E+10	1	-1E+10	1	-1E+10	1	-1E+10	1	-1E+10	1	-1E+10	1
4902549	43	C	10/16/2021	07:05	-131.808	47.069	0	181.10	0	7.1530	0	33.7680	0	26.430	0	179.517	0	161.4	4	54.7	4	-1E+10	1	-1E+10	1	-1E+10	1	-1E+10	1	-1E+10	1	-1E+10	1
4902549	43	C	10/16/2021	07:05	-131.808	47.069	0	182.10	0	7.1410	0	33.7710	0	26.434	0	180.508	0	160.8	4	54.5	4	-1E+10	1	-1E+10	1	-1E+10	1	-1E+10	1	-1E+10	1	-1E+10	1
4902549	43	C	10/16/2021	07:05	-131.808	47.069	0	183.10	0	7.1060	0	33.7790	0	26.445	0	181.499	0	160.9	4	54.5	4	-1E+10	1	-1E+10	1	-1E+10	1	-1E+10	1	-1E+10	1	-1E+10	1
4902549	43	C	10/16/2021	07:05	-131.808	47.069	0	184.10	0	7.0820	0	33.7890	0	26.456	0	182.489	0	161.2	4	54.6	4	-1E+10	1	-1E+10	1	-1E+10	1	-1E+10	1	-1E+10	1	-1E+10	1
4902549	43	C	10/16/2021	07:05	-131.808	47.069	0	185.20	0	7.0450	0	33.7930	0	26.464	0	183.579	0	161.5	4	54.6	4	-1E+10	1	-1E+10	1	-1E+10	1	-1E+10	1	-1E+10	1	-1E+10	1
4902549	43	C	10/16/2021	07:05	-131.808	47.069	0	186.20	0	7.0350	0	33.7930	0	26.466	0	184.570	0	161.7	4	54.7	4	-1E+10	1	-1E+10	1	-1E+10	1	-1E+10	1	-1E+10	1	-1E+10	1
4902549	43	C	10/16/2021	07:05	-131.808	47.069	0	187.20	0	7.0350	0	33.7960	0	26.468	0	185.561	0	162.1	4	54.8	4	-1E+10	1	-1E+10	1	-1E+10	1	-1E+10	1	-1E+10	1	-1E+10	1
4902549	43	C	10/16/2021	07:05	-131.808	47.069	0	188.20	0	6.9840	0	33.8040	0	26.481	0	186.552	0	162.8	4	55.0	4	-1E+10	1	-1E+10	1	-1E+10	1	-1E+10	1	-1E+10	1	-1E+10	1
4902549	43	C	10/16/2021	07:05	-131.808	47.069	0	189.20	0	6.9610	0	33.7960	0	26.478	0	187.542	0	163.0	4	55.0	4	-1E+10	1	-1E+10	1	-1E+10	1	-1E+10	1	-1E+10	1	-1E+10	1
4902549	43	C	10/16/2021	07:05	-131.808	47.069	0	190.20	0	6.9500	0	33.7970	0	26.481	0	188.533	0	163.1	4	55.0	4	-1E+10	1	-1E+10	1	-1E+10	1	-1E+10	1	-1E+10	1	-1E+10	1
4902549	43	C	10/16/2021	07:05	-131.808	47.069	0	191.20	0	6.9420	0	33.7960	0	26.481	0	189.524	0	163.0	4	55.0	4	-1E+10	1	-1E+10	1	-1E+10	1	-1E+10	1	-1E+10	1	-1E+10	1
4902549	43	C	10/16/2021	07:05	-131.808	47.069	0	192.20	0	6.9050	0	33.7960	0	26.486	0	190.515	0	162.7	4	54.9	4	-1E+10	1	-1E+10	1	-1E+10	1	-1E+10	1	-1E+10	1	-1E+10	1
4902549	43	C	10/16/2021	07:05	-131.808	47.069	0	193.20	0	6.9000	0	33.7940	0	26.485	0	191.506	0	162.1	4	54.6	4	-1E+10	1	-1E+10	1	-1E+10	1	-1E+10	1	-1E+10	1	-1E+10	1
4902549	43	C	10/16/2021	07:05	-131.808	47.069	0	194.20	0	6.8670	0	33.8020	0	26.496	0	192.496	0	161.3	4	54.3	4	-1E+10	1	-1E+10	1	-1E+10	1	-1E+10	1	-1E+10	1	-1E+10	1
4902549	43	C	10/16/2021	07:05	-131.808	47.069	0	195.20	0	6.8250	0	33.7970	0	26.497	0	193.487	0	160.8	4	54.1	4	-1E+10	1	-1E+10	1	-1E+10	1	-1E+10	1	-1E+10	1	-1E+10	1
4902549	43	C	10/16/2021	07:05	-131.808	47.069	0	196.30	0	6.7920	0	33.7970	0	26.502	0	194.577	0	160.0	4	53.8	4	-1E+10	1	-1E+10	1	-1E+10	1	-1E+10	1	-1E+10	1	-1E+10	1
4902549	43	C	10/16/2021	07:05	-131.808	47.069	0	197.30	0	6.7910	0	33.8050	0	26.508	0	195.568	0	159.4	4	53.6	4	-1E+10	1	-1E+10	1	-1E+10	1	-1E+10	1	-1E+10	1	-1E+10	1
4902549	43	C	10/16/2021	07:05	-131.808	47.069	0	198.30	0	6.7870	0	33.8060	0	26.510	0	196.558	0	158.9	4	53.4	4	-1E+10	1	-1E+10	1	-1E+10	1	-1E+10	1	-1E+10	1	-1E+10	1
4902549	43	C	10/16/2021	07:05	-131.808	47.069	0	199.30	0	6.7780	0	33.8080	0	26.512	0	197.549	0	158.5	4	53.3	4	-1E+10	1	-1E+10	1	-1E+10	1	-1E+10	1	-1E+10	1	-1E+10	1
4902549	43	C	10/16/2021	07:05	-131.808	47.069	0	200.30	0	6.7530	0	33.8070	0	26.515	0	198.540	0	158.1	4	53.1	4	-1E+10	1	-1E+10	1	-1E+10	1	-1E+10	1	-1E+10	1	-1E+10	1
4902549	43	C	10/16/2021	07:05	-131.808	47.069	0	201.40	0	6.7370	0	33.8100	0	26.520	0	199.630	0	157.7	4	53.0	4	-1E+10	1	-1E+10	1	-1E+10	1	-1E+10	1	-1E+10	1	-1E+10	1
4902549	43	C	10/16/2021	07:05	-131.808	47.069	0	202.40	0	6.7260	0	33.8080	0	26.519	0	200.620	0	157.2	4	52.8	4	-1E+10	1	-1E+10	1	-1E+10	1	-1E+10	1	-1E+10	1	-1E+10	1
4902549	43	C	10/16/2021	07:05	-131.808	47.069	0	203.40	0	6.7270	0	33.8070	0	26.519	0	201.611	0	156.7	4	52.6	4	-1E+10	1	-1E+10	1	-1E+10	1	-1E+10	1	-1E+10	1	-1E+10	1
4902549	43	C	10/16/2021	07:05	-131.808	47.069	0	204.30	0	6.7110	0	33.8080	0	26.521	0	202.503	0	156.0	4	52.4	4	-1E+10	1	-1E+10	1	-1E+10	1	-1E+10	1	-1E+10	1	-1E+10	1
4902549	43	C	10/16/2021	07:05	-131.808	47.069	0	205.30	0	6.6940	0	33.8070	0	26.523	0	203.493	0	155.4	4	52.1	4	-1E+10	1	-1E+10	1	-1E+10	1	-1E+10	1	-1E+10	1	-1E+10	1
4902549	43	C	10/16/2021	07:05	-131.808	47.069	0	206.20	0	6.6860	0	33.8090	0	26.526	0	204.385	0	154.6	4	51.9	4	-1E+10	1	-1E+10	1	-1E+10	1	-1E+10	1	-1E+10	1	-1E+10	1
4902549	43	C	10/16/2021	07:05	-131.808	47.069	0	207.20	0	6.6730	0	33.8100	0	26.528	0	205.376	0	154.0	4	51.6	4	-1E+10	1	-1E+10	1	-1E+10	1	-1E+10	1	-1E+10	1	-1E+10	1
4902549	43	C	10/16/2021	07:05	-131.808	47.069	0	208.10	0	6.6410	0	33.8130	0	26.535	0	206.267	0	153.4	4	51.4	4	-1E+10	1	-1E+10	1	-1E+10	1	-1E+10	1	-1E+10	1	-1E+10	1
4902549	43	C	10/16/2021	07:05	-131.808	47.069	0	209.10	0	6.6430	0	33.8170	0	26.538	0	207.258	0	152.8	4	51.2	4	-1E+10	1	-1E+10	1	-1E+10	1	-1E+10	1	-1E+10	1	-1E+10	1
4902549	43	C	10/16/2021	07:05	-131.808	47.069	0	210.10	0	6.6260	0	33.8150	0	26.538	0	208.249	0	152.3	4	51.0	4	-1E+10	1	-1E+10	1	-1E+10	1	-1E+10	1	-1E+10	1	-1E+10	1
4902549	43	C	10/16/2021	07:05	-131.808	47.069	0	211.10	0	6.5710	0	33.8190	0	26.549	0	209.240	0	151.6	4	50.7	4	-1E+10	1	-1E+10	1	-1E+10	1	-1E+10	1	-1E+10	1	-1E+10	1
4902549	43	C	10/16/2021	07:05	-131.808	47.069	0	212.00	0	6.5600	0	33.8130	0	26.545	0	210.131	0	151.0	4	50.5	4	-1E+10	1	-1E+10	1	-1E+10	1	-1E+10	1	-1E+10	1	-1E+10	1
4902549	43	C	10/16/2021	07:05	-131.808	47.069	0	213.00	0	6.5640	0	33.8110	0	26.543	0	211.122	0	150.1	4	50.2	4	-1E+10	1	-1E+10	1	-1E+10	1	-1E+10	1	-1E+10	1	-1E+10	1
4902549	43	C	10/16/2021	07:05	-131.808	47.069	0	213.90	0	6.5830	0	33.8170	0	26.546	0	212.013	0	149.3	4	50.0	4	-1E+10	1	-1E+10	1	-1E+10	1	-1E+10	1	-1E+10	1	-1E+10	1
4902549	43	C	10/16/2021	07:05	-131.808	47.069	0	214.90	0	6.5450	0	33.8270	0	26.558	0	213.004	0	148.9	4	49.8	4	-1E+10	1	-1E+10	1	-1E+10	1	-1E+10	1	-1E+10	1	-1E+10	1
4902549	43	C	10/16/2021	07:05	-131.808	47.069	0	215.80	0	6.5290	0	33.8310	0	26.564	0	213.896	0	148.4	4	49.6	4	-1E+10	1	-1E+10	1	-1E+10	1	-1E+10	1	-1E+10	1	-1E+10	1
4902549	43	C	10/16/2021	07:05	-131.808	47.069	0	216.80	0	6.5090	0	33.8260	0	26.562	0	214.886	0	148.1	4	49.5	4	-1E+10	1	-1E+10	1	-1E+10	1	-1E+10	1	-1E+10	1	-1E+10	1
4902549	43	C	10/16/2021	07:05	-131.808	47.069	0	217.80	0	6.5020	0	33.8250	0	26.563	0	215.877	0	147.7	4	49.3	4	-1E+10	1	-1E+10	1	-1E+10	1	-1E+10	1	-1E+10	1	-1E+10	1
4902549	43	C	10/16/2021	07:05	-131.808	47.069	0	218.80	0	6.4850	0	33.8270	0	26.566	0	216.868	0	147.3	4	49.2	4	-1E+10	1	-1E+10	1	-1E+10	1	-1E+10	1	-1E+10	1	-1E+10	1
4902549	43	C	10/16/2021	07:05	-131.808	47.069	0	219.70	0	6.4820	0	33.8260	0	26.566	0	217.759	0	146.9	4	49.0	4	-1E+10	1	-1E+10	1	-1E+10	1	-1E+10	1	-1E+10	1	-1E+10	1
4902549	43	C	10/16/2021	07:05	-131.808	47.069	0	220.70	0	6.4510	0	33.8310	0	26.574	0	218.750	0	146.6	4	48.9	4	-1E+10	1	-1E+10	1	-1E+10	1	-1E+10	1	-1E+10	1	-1E+10	1
4902549	43	C	10/16/2021	07:05	-131.808	47.069	0	221.70	0	6.4400	0	33.8310	0	26.575	0	219.740	0	146.5	4	48.9	4	-1E+10	1	-1E+10	1	-1E+10	1	-1E+10	1	-1E+10	1	-1E+10	1
4902549	43	C	10/16/2021	07:05	-131.808	47.069	0	222.60	0	6.4390	0	33.8320	0	26.576	0	220.632	0	146.3	4	48.8	4	-1E+10	1	-1E+10	1	-1E+10	1	-1E+10	1	-1E+10	1	-1E+10	1
4902549	43	C	10/16/2021	07:05	-131.808	47.069	0	223.60	0	6.4400	0	33.8320	0	26.576	0	221.623	0	146.0	4	48.7	4	-1E+10	1	-1E+10	1	-1E+10	1	-1E+10	1	-1E+10	1	-1E+10	1
4902549	43	C	10/16/2021	07:05	-131.808	47.069	0	224.60	0	6.4400	0	33.8320	0	26.576	0	222.613	0	145.8	4	48.6	4	-1E+10	1	-1E+10	1	-1E+10	1	-1E+10	1	-1E+10	1	-1E+10	1
4902549	43	C	10/16/2021	07:05	-131.808	47.069	0	225.50	0	6.4360	0	33.8340	0	26.578	0	223.505	0	145.5	4	48.5	4	-1E+10	1	-1E+10	1	-1E+10	1	-1E+10	1	-1E+10	1	-1E+10	1
4902549	43	C	10/16/2021	07:05	-131.808	47.069	0	226.50	0	6.4300	0	33.8330	0	26.578	0	224.495	0	145.2	4	48.4	4	-1E+10	1	-1E+10	1	-1E+10	1	-1E+10	1	-1E+10	1	-1E+10	1
4902549	43	C	10/16/2021	07:05	-131.808	47.069	0	227.90	0	6.4180	0	33.8320	0	26.579	0	225.882	0	144.8	4	48.3	4	-1E+10	1	-1E+10	1	-1E+10	1	-1E+10	1	-1E+10	1	-1E+10	1
4902549	43	C	10/16/2021	07:05	-131.808	47.069	0	229.40	0	6.4100	0	33.8330	0	26.581	0	227.368	0	144.3	4	48.1	4	-1E+10	1	-1E+10	1	-1E+10	1	-1E+10	1	-1E+10	1	-1E+10	1
4902549	43	C	10/16/2021	07:05	-131.808	47.069	0	230.30	0	6.4000	0	33.8320	0	26.581	0	228.260	0	144.0	4	48.0	4	-1E+10	1	-1E+10	1	-1E+10	1	-1E+10	1	-1E+10	1	-1E+10	1
4902549	43	C	10/16/2021	07:05	-131.808	47.069	0	231.30	0	6.3910	0	33.8320	0	26.583	0	229.250	0	143.7	4	47.9	4	-1E+10	1	-1E+10	1	-1E+10	1	-1E+10	1	-1E+10	1	-1E+10	1
4902549	43	C	10/16/2021	07:05	-131.808	47.069	0	232.20	0	6.3830	0	33.8320	0	26.584	0	230.142	0	143.3	4	47.7	4	-1E+10	1	-1E+10	1	-1E+10	1	-1E+10	1	-1E+10	1	-1E+10	1
4902549	43	C	10/16/2021	07:05	-131.808	47.069	0	233.20	0	6.3750	0	33.8310	0	26.584	0	231.132	0	142.9	4	47.6	4	-1E+10	1	-1E+10	1	-1E+10	1	-1E+10	1	-1E+10	1	-1E+10	1
4902549	43	C	10/16/2021	07:05	-131.808	47.069	0	234.10	0	6.3660	0	33.8330	0	26.587	0	232.024	0	142.5	4	47.5	4	-1E+10	1	-1E+10	1	-1E+10	1	-1E+10	1	-1E+10	1	-1E+10	1
4902549	43	C	10/16/2021	07:05	-131.808	47.069	0	235.10	0	6.3660	0	33.8330	0	26.587	0	233.014	0	142.1	4	47.3	4	-1E+10	1	-1E+10	1	-1E+10	1	-1E+10	1	-1E+10	1	-1E+10	1
4902549	43	C	10/16/2021	07:05	-131.808	47.069	0	236.00	0	6.3670	0	33.8320	0	26.586	0	233.906	0	141.5	4	47.1	4	-1E+10	1	-1E+10	1	-1E+10	1	-1E+10	1	-1E+10	1	-1E+10	1
4902549	43	C	10/16/2021	07:05	-131.808	47.069	0	237.00	0	6.3660	0	33.8350	0	26.588	0	234.897	0	141.0	4	47.0	4	-1E+10	1	-1E+10	1	-1E+10	1	-1E+10	1	-1E+10	1	-1E+10	1
4902549	43	C	10/16/2021	07:05	-131.808	47.069	0	238.10	0	6.3630	0	33.8350	0	26.589	0	235.986	0	140.5	4	46.8	4	-1E+10	1	-1E+10	1	-1E+10	1	-1E+10	1	-1E+10	1	-1E+10	1
4902549	43	C	10/16/2021	07:05	-131.808	47.069	0	239.00	0	6.3540	0	33.8350	0	26.590	0	236.878	0	139.9	4	46.6	4	-1E+10	1	-1E+10	1	-1E+10	1	-1E+10	1	-1E+10	1	-1E+10	1
4902549	43	C	10/16/2021	07:05	-131.808	47.069	0	240.00	0	6.3040	0	33.8390	0	26.599	0	237.868	0	139.7	4	46.5	4	-1E+10	1	-1E+10	1	-1E+10	1	-1E+10	1	-1E+10	1	-1E+10	1
4902549	43	C	10/16/2021	07:05	-131.808	47.069	0	241.00	0	6.2880	0	33.8360	0	26.599	0	238.859	0	139.3	4	46.3	4	-1E+10	1	-1E+10	1	-1E+10	1	-1E+10	1	-1E+10	1	-1E+10	1
4902549	43	C	10/16/2021	07:05	-131.808	47.069	0	242.00	0	6.2800	0	33.8360	0	26.600	0	239.849	0	138.9	4	46.2	4	-1E+10	1	-1E+10	1	-1E+10	1	-1E+10	1	-1E+10	1	-1E+10	1
4902549	43	C	10/16/2021	07:05	-131.808	47.069	0	243.00	0	6.2670	0	33.8350	0	26.601	0	240.840	0	138.4	4	46.0	4	-1E+10	1	-1E+10	1	-1E+10	1	-1E+10	1	-1E+10	1	-1E+10	1
4902549	43	C	10/16/2021	07:05	-131.808	47.069	0	244.00	0	6.2620	0	33.8360	0	26.603	0	241.830	0	138.0	4	45.8	4	-1E+10	1	-1E+10	1	-1E+10	1	-1E+10	1	-1E+10	1	-1E+10	1
4902549	43	C	10/16/2021	07:05	-131.808	47.069	0	245.00	0	6.2450	0	33.8380	0	26.606	0	242.821	0	137.5	4	45.7	4	-1E+10	1	-1E+10	1	-1E+10	1	-1E+10	1	-1E+10	1	-1E+10	1
4902549	43	C	10/16/2021	07:05	-131.808	47.069	0	245.90	0	6.2400	0	33.8380	0	26.607	0	243.712	0	137.1	4	45.5	4	-1E+10	1	-1E+10	1	-1E+10	1	-1E+10	1	-1E+10	1	-1E+10	1
4902549	43	C	10/16/2021	07:05	-131.808	47.069	0	247.00	0	6.2190	0	33.8370	0	26.609	0	244.802	0	136.5	4	45.3	4	-1E+10	1	-1E+10	1	-1E+10	1	-1E+10	1	-1E+10	1	-1E+10	1
4902549	43	C	10/16/2021	07:05	-131.808	47.069	0	247.80	0	6.1960	0	33.8370	0	26.612	0	245.594	0	136.2	4	45.2	4	-1E+10	1	-1E+10	1	-1E+10	1	-1E+10	1	-1E+10	1	-1E+10	1
4902549	43	C	10/16/2021	07:05	-131.808	47.069	0	248.90	0	6.1830	0	33.8360	0	26.613	0	246.684	0	135.6	4	45.0	4	-1E+10	1	-1E+10	1	-1E+10	1	-1E+10	1	-1E+10	1	-1E+10	1
4902549	43	C	10/16/2021	07:05	-131.808	47.069	0	250.00	0	6.1600	0	33.8330	0	26.613	0	247.773	0	135.0	4	44.8	4	-1E+10	1	-1E+10	1	-1E+10	1	-1E+10	1	-1E+10	1	-1E+10	1
4902549	43	C	10/16/2021	07:05	-131.808	47.069	0	250.80	0	6.1380	0	33.8330	0	26.616	0	248.566	0	134.6	4	44.6	4	-1E+10	1	-1E+10	1	-1E+10	1	-1E+10	1	-1E+10	1	-1E+10	1
4902549	43	C	10/16/2021	07:05	-131.808	47.069	0	252.00	0	6.1340	0	33.8320	0	26.616	0	249.754	0	133.7	4	44.3	4	-1E+10	1	-1E+10	1	-1E+10	1	-1E+10	1	-1E+10	1	-1E+10	1
4902549	43	C	10/16/2021	07:05	-131.808	47.069	0	253.10	0	6.1300	0	33.8300	0	26.615	0	250.844	0	132.8	4	44.0	4	-1E+10	1	-1E+10	1	-1E+10	1	-1E+10	1	-1E+10	1	-1E+10	1
4902549	43	C	10/16/2021	07:05	-131.808	47.069	0	253.90	0	6.0720	0	33.8330	0	26.624	0	251.636	0	132.4	4	43.8	4	-1E+10	1	-1E+10	1	-1E+10	1	-1E+10	1	-1E+10	1	-1E+10	1
4902549	43	C	10/16/2021	07:05	-131.808	47.069	0	254.70	0	6.0430	0	33.8330	0	26.628	0	252.429	0	132.1	4	43.6	4	-1E+10	1	-1E+10	1	-1E+10	1	-1E+10	1	-1E+10	1	-1E+10	1
4902549	43	C	10/16/2021	07:05	-131.808	47.069	0	255.90	0	6.0070	0	33.8330	0	26.633	0	253.617	0	131.6	4	43.5	4	-1E+10	1	-1E+10	1	-1E+10	1	-1E+10	1	-1E+10	1	-1E+10	1
4902549	43	C	10/16/2021	07:05	-131.808	47.069	0	257.10	0	6.0030	0	33.8310	0	26.631	0	254.806	0	131.0	4	43.2	4	-1E+10	1	-1E+10	1	-1E+10	1	-1E+10	1	-1E+10	1	-1E+10	1
4902549	43	C	10/16/2021	07:05	-131.808	47.069	0	257.90	0	5.9980	0	33.8310	0	26.632	0	255.598	0	130.5	4	43.1	4	-1E+10	1	-1E+10	1	-1E+10	1	-1E+10	1	-1E+10	1	-1E+10	1
4902549	43	C	10/16/2021	07:05	-131.808	47.069	0	258.70	0	5.9880	0	33.8320	0	26.634	0	256.391	0	130.0	4	42.9	4	-1E+10	1	-1E+10	1	-1E+10	1	-1E+10	1	-1E+10	1	-1E+10	1
4902549	43	C	10/16/2021	07:05	-131.808	47.069	0	259.90	0	5.9650	0	33.8300	0	26.635	0	257.579	0	129.2	4	42.6	4	-1E+10	1	-1E+10	1	-1E+10	1	-1E+10	1	-1E+10	1	-1E+10	1
4902549	43	C	10/16/2021	07:05	-131.808	47.069	0	261.10	0	5.9450	0	33.8350	0	26.642	0	258.768	0	128.2	4	42.3	4	-1E+10	1	-1E+10	1	-1E+10	1	-1E+10	1	-1E+10	1	-1E+10	1
4902549	43	C	10/16/2021	07:05	-131.808	47.069	0	261.90	0	5.8940	0	33.8300	0	26.644	0	259.560	0	127.9	4	42.1	4	-1E+10	1	-1E+10	1	-1E+10	1	-1E+10	1	-1E+10	1	-1E+10	1
4902549	43	C	10/16/2021	07:05	-131.808	47.069	0	262.70	0	5.8280	0	33.8310	0	26.653	0	260.352	0	127.9	4	42.1	4	-1E+10	1	-1E+10	1	-1E+10	1	-1E+10	1	-1E+10	1	-1E+10	1
4902549	43	C	10/16/2021	07:05	-131.808	47.069	0	264.00	0	5.8250	0	33.8310	0	26.654	0	261.640	0	127.6	4	42.0	4	-1E+10	1	-1E+10	1	-1E+10	1	-1E+10	1	-1E+10	1	-1E+10	1
4902549	43	C	10/16/2021	07:05	-131.808	47.069	0	265.20	0	5.8230	0	33.8320	0	26.655	0	262.828	0	127.2	4	41.8	4	-1E+10	1	-1E+10	1	-1E+10	1	-1E+10	1	-1E+10	1	-1E+10	1
4902549	43	C	10/16/2021	07:05	-131.808	47.069	0	266.10	0	5.8230	0	33.8310	0	26.654	0	263.720	0	126.9	4	41.7	4	-1E+10	1	-1E+10	1	-1E+10	1	-1E+10	1	-1E+10	1	-1E+10	1
4902549	43	C	10/16/2021	07:05	-131.808	47.069	0	267.00	0	5.8220	0	33.8310	0	26.654	0	264.611	0	126.6	4	41.6	4	-1E+10	1	-1E+10	1	-1E+10	1	-1E+10	1	-1E+10	1	-1E+10	1
4902549	43	C	10/16/2021	07:05	-131.808	47.069	0	267.80	0	5.8220	0	33.8310	0	26.654	0	265.403	0	126.1	4	41.5	4	-1E+10	1	-1E+10	1	-1E+10	1	-1E+10	1	-1E+10	1	-1E+10	1
4902549	43	C	10/16/2021	07:05	-131.808	47.069	0	268.70	0	5.8190	0	33.8320	0	26.655	0	266.295	0	125.8	4	41.4	4	-1E+10	1	-1E+10	1	-1E+10	1	-1E+10	1	-1E+10	1	-1E+10	1
4902549	43	C	10/16/2021	07:05	-131.808	47.069	0	269.90	0	5.8170	0	33.8320	0	26.655	0	267.483	0	125.0	4	41.1	4	-1E+10	1	-1E+10	1	-1E+10	1	-1E+10	1	-1E+10	1	-1E+10	1
4902549	43	C	10/16/2021	07:05	-131.808	47.069	0	271.30	0	5.8150	0	33.8320	0	26.656	0	268.870	0	124.2	4	40.8	4	-1E+10	1	-1E+10	1	-1E+10	1	-1E+10	1	-1E+10	1	-1E+10	1
4902549	43	C	10/16/2021	07:05	-131.808	47.069	0	272.10	0	5.8150	0	33.8310	0	26.655	0	269.662	0	123.5	4	40.6	4	-1E+10	1	-1E+10	1	-1E+10	1	-1E+10	1	-1E+10	1	-1E+10	1
4902549	43	C	10/16/2021	07:05	-131.808	47.069	0	273.00	0	5.7970	0	33.8350	0	26.660	0	270.553	0	122.9	4	40.4	4	-1E+10	1	-1E+10	1	-1E+10	1	-1E+10	1	-1E+10	1	-1E+10	1
4902549	43	C	10/16/2021	07:05	-131.808	47.069	0	273.90	0	5.7680	0	33.8370	0	26.665	0	271.445	0	122.5	4	40.2	4	-1E+10	1	-1E+10	1	-1E+10	1	-1E+10	1	-1E+10	1	-1E+10	1
4902549	43	C	10/16/2021	07:05	-131.808	47.069	0	274.80	0	5.7600	0	33.8360	0	26.666	0	272.336	0	122.0	4	40.0	4	-1E+10	1	-1E+10	1	-1E+10	1	-1E+10	1	-1E+10	1	-1E+10	1
4902549	43	C	10/16/2021	07:05	-131.808	47.069	0	275.70	0	5.7550	0	33.8360	0	26.666	0	273.228	0	121.4	4	39.9	4	-1E+10	1	-1E+10	1	-1E+10	1	-1E+10	1	-1E+10	1	-1E+10	1
4902549	43	C	10/16/2021	07:05	-131.808	47.069	0	276.90	0	5.7270	0	33.8410	0	26.674	0	274.416	0	120.8	4	39.6	4	-1E+10	1	-1E+10	1	-1E+10	1	-1E+10	1	-1E+10	1	-1E+10	1
4902549	43	C	10/16/2021	07:05	-131.808	47.069	0	278.30	0	5.7170	0	33.8420	0	26.676	0	275.802	0	120.2	4	39.4	4	-1E+10	1	-1E+10	1	-1E+10	1	-1E+10	1	-1E+10	1	-1E+10	1
4902549	43	C	10/16/2021	07:05	-131.808	47.069	0	279.20	0	5.7170	0	33.8430	0	26.676	0	276.694	0	119.7	4	39.3	4	-1E+10	1	-1E+10	1	-1E+10	1	-1E+10	1	-1E+10	1	-1E+10	1
4902549	43	C	10/16/2021	07:05	-131.808	47.069	0	280.10	0	5.7120	0	33.8450	0	26.679	0	277.585	0	119.2	4	39.1	4	-1E+10	1	-1E+10	1	-1E+10	1	-1E+10	1	-1E+10	1	-1E+10	1
4902549	43	C	10/16/2021	07:05	-131.808	47.069	0	281.00	0	5.7080	0	33.8450	0	26.679	0	278.476	0	118.8	4	39.0	4	-1E+10	1	-1E+10	1	-1E+10	1	-1E+10	1	-1E+10	1	-1E+10	1
4902549	43	C	10/16/2021	07:05	-131.808	47.069	0	281.90	0	5.7050	0	33.8460	0	26.680	0	279.368	0	118.3	4	38.8	4	-1E+10	1	-1E+10	1	-1E+10	1	-1E+10	1	-1E+10	1	-1E+10	1
4902549	43	C	10/16/2021	07:05	-131.808	47.069	0	282.80	0	5.7010	0	33.8460	0	26.681	0	280.259	0	117.8	4	38.6	4	-1E+10	1	-1E+10	1	-1E+10	1	-1E+10	1	-1E+10	1	-1E+10	1
4902549	43	C	10/16/2021	07:05	-131.808	47.069	0	283.70	0	5.6980	0	33.8470	0	26.682	0	281.150	0	117.3	4	38.5	4	-1E+10	1	-1E+10	1	-1E+10	1	-1E+10	1	-1E+10	1	-1E+10	1
4902549	43	C	10/16/2021	07:05	-131.808	47.069	0	284.60	0	5.6890	0	33.8500	0	26.685	0	282.042	0	116.8	4	38.3	4	-1E+10	1	-1E+10	1	-1E+10	1	-1E+10	1	-1E+10	1	-1E+10	1
4902549	43	C	10/16/2021	07:05	-131.808	47.069	0	285.90	0	5.6380	0	33.8450	0	26.688	0	283.329	0	116.2	4	38.1	4	-1E+10	1	-1E+10	1	-1E+10	1	-1E+10	1	-1E+10	1	-1E+10	1
4902549	43	C	10/16/2021	07:05	-131.808	47.069	0	287.30	0	5.6150	0	33.8430	0	26.689	0	284.715	0	115.5	4	37.8	4	-1E+10	1	-1E+10	1	-1E+10	1	-1E+10	1	-1E+10	1	-1E+10	1
4902549	43	C	10/16/2021	07:05	-131.808	47.069	0	288.20	0	5.6060	0	33.8440	0	26.691	0	285.607	0	115.0	4	37.6	4	-1E+10	1	-1E+10	1	-1E+10	1	-1E+10	1	-1E+10	1	-1E+10	1
4902549	43	C	10/16/2021	07:05	-131.808	47.069	0	289.10	0	5.6050	0	33.8450	0	26.692	0	286.498	0	114.5	4	37.5	4	-1E+10	1	-1E+10	1	-1E+10	1	-1E+10	1	-1E+10	1	-1E+10	1
4902549	43	C	10/16/2021	07:05	-131.808	47.069	0	290.10	0	5.5970	0	33.8480	0	26.695	0	287.488	0	114.0	4	37.3	4	-1E+10	1	-1E+10	1	-1E+10	1	-1E+10	1	-1E+10	1	-1E+10	1
4902549	43	C	10/16/2021	07:05	-131.808	47.069	0	291.00	0	5.5710	0	33.8520	0	26.701	0	288.380	0	113.6	4	37.2	4	-1E+10	1	-1E+10	1	-1E+10	1	-1E+10	1	-1E+10	1	-1E+10	1
4902549	43	C	10/16/2021	07:05	-131.808	47.069	0	291.90	0	5.5510	0	33.8490	0	26.701	0	289.271	0	113.4	4	37.0	4	-1E+10	1	-1E+10	1	-1E+10	1	-1E+10	1	-1E+10	1	-1E+10	1
4902549	43	C	10/16/2021	07:05	-131.808	47.069	0	292.80	0	5.5440	0	33.8490	0	26.702	0	290.162	0	113.0	4	36.9	4	-1E+10	1	-1E+10	1	-1E+10	1	-1E+10	1	-1E+10	1	-1E+10	1
4902549	43	C	10/16/2021	07:05	-131.808	47.069	0	293.70	0	5.5230	0	33.8510	0	26.706	0	291.053	0	112.7	4	36.8	4	-1E+10	1	-1E+10	1	-1E+10	1	-1E+10	1	-1E+10	1	-1E+10	1
4902549	43	C	10/16/2021	07:05	-131.808	47.069	0	294.70	0	5.5180	0	33.8520	0	26.708	0	292.044	0	112.5	4	36.7	4	-1E+10	1	-1E+10	1	-1E+10	1	-1E+10	1	-1E+10	1	-1E+10	1
4902549	43	C	10/16/2021	07:05	-131.808	47.069	0	295.60	0	5.5080	0	33.8520	0	26.709	0	292.935	0	112.2	4	36.6	4	-1E+10	1	-1E+10	1	-1E+10	1	-1E+10	1	-1E+10	1	-1E+10	1
4902549	43	C	10/16/2021	07:05	-131.808	47.069	0	296.50	0	5.5070	0	33.8530	0	26.710	0	293.826	0	111.9	4	36.5	4	-1E+10	1	-1E+10	1	-1E+10	1	-1E+10	1	-1E+10	1	-1E+10	1
4902549	43	C	10/16/2021	07:05	-131.808	47.069	0	297.90	0	5.5030	0	33.8530	0	26.710	0	295.213	0	111.5	4	36.4	4	-1E+10	1	-1E+10	1	-1E+10	1	-1E+10	1	-1E+10	1	-1E+10	1
4902549	43	C	10/16/2021	07:05	-131.808	47.069	0	299.40	0	5.4930	0	33.8540	0	26.712	0	296.698	0	111.0	4	36.2	4	-1E+10	1	-1E+10	1	-1E+10	1	-1E+10	1	-1E+10	1	-1E+10	1
4902549	43	C	10/16/2021	07:05	-131.808	47.069	0	300.30	0	5.4950	0	33.8520	0	26.710	0	297.589	0	110.7	4	36.1	4	-1E+10	1	-1E+10	1	-1E+10	1	-1E+10	1	-1E+10	1	-1E+10	1
4902549	43	C	10/16/2021	07:05	-131.808	47.069	0	301.30	0	5.4950	0	33.8540	0	26.712	0	298.579	0	110.3	4	36.0	4	-1E+10	1	-1E+10	1	-1E+10	1	-1E+10	1	-1E+10	1	-1E+10	1
4902549	43	C	10/16/2021	07:05	-131.808	47.069	0	302.30	0	5.4920	0	33.8540	0	26.712	0	299.570	0	109.9	4	35.9	4	-1E+10	1	-1E+10	1	-1E+10	1	-1E+10	1	-1E+10	1	-1E+10	1
4902549	43	C	10/16/2021	07:05	-131.808	47.069	0	303.20	0	5.4880	0	33.8540	0	26.713	0	300.461	0	109.4	4	35.7	4	-1E+10	1	-1E+10	1	-1E+10	1	-1E+10	1	-1E+10	1	-1E+10	1
4902549	43	C	10/16/2021	07:05	-131.808	47.069	0	304.20	0	5.4820	0	33.8550	0	26.714	0	301.451	0	109.0	4	35.5	4	-1E+10	1	-1E+10	1	-1E+10	1	-1E+10	1	-1E+10	1	-1E+10	1
4902549	43	C	10/16/2021	07:05	-131.808	47.069	0	305.10	0	5.4810	0	33.8540	0	26.714	0	302.342	0	108.4	4	35.4	4	-1E+10	1	-1E+10	1	-1E+10	1	-1E+10	1	-1E+10	1	-1E+10	1
4902549	43	C	10/16/2021	07:05	-131.808	47.069	0	306.10	0	5.4760	0	33.8530	0	26.714	0	303.333	0	107.7	4	35.1	4	-1E+10	1	-1E+10	1	-1E+10	1	-1E+10	1	-1E+10	1	-1E+10	1
4902549	43	C	10/16/2021	07:05	-131.808	47.069	0	307.00	0	5.4450	0	33.8530	0	26.717	0	304.224	0	107.3	4	35.0	4	-1E+10	1	-1E+10	1	-1E+10	1	-1E+10	1	-1E+10	1	-1E+10	1
4902549	43	C	10/16/2021	07:05	-131.808	47.069	0	308.00	0	5.4280	0	33.8530	0	26.719	0	305.214	0	106.7	4	34.8	4	-1E+10	1	-1E+10	1	-1E+10	1	-1E+10	1	-1E+10	1	-1E+10	1
4902549	43	C	10/16/2021	07:05	-131.808	47.069	0	309.00	0	5.4140	0	33.8530	0	26.721	0	306.204	0	106.2	4	34.6	4	-1E+10	1	-1E+10	1	-1E+10	1	-1E+10	1	-1E+10	1	-1E+10	1
4902549	43	C	10/16/2021	07:05	-131.808	47.069	0	310.00	0	5.3960	0	33.8560	0	26.725	0	307.194	0	105.7	4	34.4	4	-1E+10	1	-1E+10	1	-1E+10	1	-1E+10	1	-1E+10	1	-1E+10	1
4902549	43	C	10/16/2021	07:05	-131.808	47.069	0	310.90	0	5.3940	0	33.8580	0	26.727	0	308.086	0	105.2	4	34.3	4	-1E+10	1	-1E+10	1	-1E+10	1	-1E+10	1	-1E+10	1	-1E+10	1
4902549	43	C	10/16/2021	07:05	-131.808	47.069	0	311.90	0	5.3820	0	33.8590	0	26.729	0	309.076	0	104.7	4	34.1	4	-1E+10	1	-1E+10	1	-1E+10	1	-1E+10	1	-1E+10	1	-1E+10	1
4902549	43	C	10/16/2021	07:05	-131.808	47.069	0	312.90	0	5.3740	0	33.8580	0	26.730	0	310.066	0	104.2	4	33.9	4	-1E+10	1	-1E+10	1	-1E+10	1	-1E+10	1	-1E+10	1	-1E+10	1
4902549	43	C	10/16/2021	07:05	-131.808	47.069	0	313.90	0	5.3690	0	33.8590	0	26.731	0	311.056	0	103.7	4	33.7	4	-1E+10	1	-1E+10	1	-1E+10	1	-1E+10	1	-1E+10	1	-1E+10	1
4902549	43	C	10/16/2021	07:05	-131.808	47.069	0	315.00	0	5.3300	0	33.8590	0	26.736	0	312.145	0	103.4	4	33.6	4	-1E+10	1	-1E+10	1	-1E+10	1	-1E+10	1	-1E+10	1	-1E+10	1
4902549	43	C	10/16/2021	07:05	-131.808	47.069	0	316.00	0	5.3120	0	33.8620	0	26.740	0	313.136	0	103.1	4	33.5	4	-1E+10	1	-1E+10	1	-1E+10	1	-1E+10	1	-1E+10	1	-1E+10	1
4902549	43	C	10/16/2021	07:05	-131.808	47.069	0	317.00	0	5.3090	0	33.8630	0	26.741	0	314.126	0	102.8	4	33.4	4	-1E+10	1	-1E+10	1	-1E+10	1	-1E+10	1	-1E+10	1	-1E+10	1
4902549	43	C	10/16/2021	07:05	-131.808	47.069	0	318.00	0	5.3100	0	33.8630	0	26.741	0	315.116	0	102.5	4	33.3	4	-1E+10	1	-1E+10	1	-1E+10	1	-1E+10	1	-1E+10	1	-1E+10	1
4902549	43	C	10/16/2021	07:05	-131.808	47.069	0	319.00	0	5.3100	0	33.8630	0	26.741	0	316.106	0	102.1	4	33.2	4	-1E+10	1	-1E+10	1	-1E+10	1	-1E+10	1	-1E+10	1	-1E+10	1
4902549	43	C	10/16/2021	07:05	-131.808	47.069	0	320.00	0	5.3090	0	33.8660	0	26.744	0	317.096	0	101.6	4	33.0	4	-1E+10	1	-1E+10	1	-1E+10	1	-1E+10	1	-1E+10	1	-1E+10	1
4902549	43	C	10/16/2021	07:05	-131.808	47.069	0	321.10	0	5.2990	0	33.8620	0	26.742	0	318.186	0	101.3	4	32.9	4	-1E+10	1	-1E+10	1	-1E+10	1	-1E+10	1	-1E+10	1	-1E+10	1
4902549	43	C	10/16/2021	07:05	-131.808	47.069	0	322.10	0	5.2890	0	33.8610	0	26.742	0	319.176	0	100.8	4	32.7	4	-1E+10	1	-1E+10	1	-1E+10	1	-1E+10	1	-1E+10	1	-1E+10	1
4902549	43	C	10/16/2021	07:05	-131.808	47.069	0	323.10	0	5.2770	0	33.8620	0	26.744	0	320.166	0	100.4	4	32.6	4	-1E+10	1	-1E+10	1	-1E+10	1	-1E+10	1	-1E+10	1	-1E+10	1
4902549	43	C	10/16/2021	07:05	-131.808	47.069	0	324.10	0	5.2730	0	33.8640	0	26.746	0	321.156	0	99.9	4	32.4	4	-1E+10	1	-1E+10	1	-1E+10	1	-1E+10	1	-1E+10	1	-1E+10	1
4902549	43	C	10/16/2021	07:05	-131.808	47.069	0	325.20	0	5.2720	0	33.8640	0	26.746	0	322.245	0	99.4	4	32.3	4	-1E+10	1	-1E+10	1	-1E+10	1	-1E+10	1	-1E+10	1	-1E+10	1
4902549	43	C	10/16/2021	07:05	-131.808	47.069	0	326.20	0	5.2700	0	33.8640	0	26.747	0	323.235	0	98.9	4	32.1	4	-1E+10	1	-1E+10	1	-1E+10	1	-1E+10	1	-1E+10	1	-1E+10	1
4902549	43	C	10/16/2021	07:05	-131.808	47.069	0	327.30	0	5.2310	0	33.8660	0	26.753	0	324.324	0	98.4	4	31.9	4	-1E+10	1	-1E+10	1	-1E+10	1	-1E+10	1	-1E+10	1	-1E+10	1
4902549	43	C	10/16/2021	07:05	-131.808	47.069	0	328.30	0	5.2240	0	33.8650	0	26.753	0	325.314	0	98.0	4	31.8	4	-1E+10	1	-1E+10	1	-1E+10	1	-1E+10	1	-1E+10	1	-1E+10	1
4902549	43	C	10/16/2021	07:05	-131.808	47.069	0	329.40	0	5.2190	0	33.8670	0	26.755	0	326.404	0	97.6	4	31.6	4	-1E+10	1	-1E+10	1	-1E+10	1	-1E+10	1	-1E+10	1	-1E+10	1
4902549	43	C	10/16/2021	07:05	-131.808	47.069	0	330.40	0	5.2110	0	33.8680	0	26.757	0	327.394	0	97.2	4	31.5	4	-1E+10	1	-1E+10	1	-1E+10	1	-1E+10	1	-1E+10	1	-1E+10	1
4902549	43	C	10/16/2021	07:05	-131.808	47.069	0	331.50	0	5.2010	0	33.8680	0	26.758	0	328.483	0	96.8	4	31.4	4	-1E+10	1	-1E+10	1	-1E+10	1	-1E+10	1	-1E+10	1	-1E+10	1
4902549	43	C	10/16/2021	07:05	-131.808	47.069	0	332.50	0	5.1970	0	33.8680	0	26.758	0	329.473	0	96.4	4	31.2	4	-1E+10	1	-1E+10	1	-1E+10	1	-1E+10	1	-1E+10	1	-1E+10	1
4902549	43	C	10/16/2021	07:05	-131.808	47.069	0	333.50	0	5.1920	0	33.8690	0	26.760	0	330.463	0	95.9	4	31.1	4	-1E+10	1	-1E+10	1	-1E+10	1	-1E+10	1	-1E+10	1	-1E+10	1
4902549	43	C	10/16/2021	07:05	-131.808	47.069	0	334.60	0	5.1870	0	33.8690	0	26.760	0	331.552	0	95.5	4	30.9	4	-1E+10	1	-1E+10	1	-1E+10	1	-1E+10	1	-1E+10	1	-1E+10	1
4902549	43	C	10/16/2021	07:05	-131.808	47.069	0	335.60	0	5.1830	0	33.8690	0	26.761	0	332.542	0	94.9	4	30.8	4	-1E+10	1	-1E+10	1	-1E+10	1	-1E+10	1	-1E+10	1	-1E+10	1
4902549	43	C	10/16/2021	07:05	-131.808	47.069	0	336.70	0	5.1720	0	33.8700	0	26.763	0	333.631	0	94.5	4	30.6	4	-1E+10	1	-1E+10	1	-1E+10	1	-1E+10	1	-1E+10	1	-1E+10	1
4902549	43	C	10/16/2021	07:05	-131.808	47.069	0	337.70	0	5.1620	0	33.8710	0	26.765	0	334.621	0	93.9	4	30.4	4	-1E+10	1	-1E+10	1	-1E+10	1	-1E+10	1	-1E+10	1	-1E+10	1
4902549	43	C	10/16/2021	07:05	-131.808	47.069	0	338.80	0	5.1350	0	33.8730	0	26.769	0	335.710	0	93.5	4	30.3	4	-1E+10	1	-1E+10	1	-1E+10	1	-1E+10	1	-1E+10	1	-1E+10	1
4902549	43	C	10/16/2021	07:05	-131.808	47.069	0	339.80	0	5.1230	0	33.8720	0	26.770	0	336.701	0	93.1	4	30.1	4	-1E+10	1	-1E+10	1	-1E+10	1	-1E+10	1	-1E+10	1	-1E+10	1
4902549	43	C	10/16/2021	07:05	-131.808	47.069	0	340.90	0	5.1210	0	33.8720	0	26.770	0	337.790	0	92.6	4	30.0	4	-1E+10	1	-1E+10	1	-1E+10	1	-1E+10	1	-1E+10	1	-1E+10	1
4902549	43	C	10/16/2021	07:05	-131.808	47.069	0	341.90	0	5.1080	0	33.8730	0	26.773	0	338.780	0	92.2	4	29.8	4	-1E+10	1	-1E+10	1	-1E+10	1	-1E+10	1	-1E+10	1	-1E+10	1
4902549	43	C	10/16/2021	07:05	-131.808	47.069	0	343.00	0	5.0980	0	33.8730	0	26.774	0	339.869	0	91.8	4	29.7	4	-1E+10	1	-1E+10	1	-1E+10	1	-1E+10	1	-1E+10	1	-1E+10	1
4902549	43	C	10/16/2021	07:05	-131.808	47.069	0	344.00	0	5.0910	0	33.8730	0	26.775	0	340.859	0	91.3	4	29.5	4	-1E+10	1	-1E+10	1	-1E+10	1	-1E+10	1	-1E+10	1	-1E+10	1
4902549	43	C	10/16/2021	07:05	-131.808	47.069	0	345.10	0	5.0700	0	33.8760	0	26.779	0	341.948	0	90.9	4	29.4	4	-1E+10	1	-1E+10	1	-1E+10	1	-1E+10	1	-1E+10	1	-1E+10	1
4902549	43	C	10/16/2021	07:05	-131.808	47.069	0	346.10	0	5.0510	0	33.8780	0	26.783	0	342.938	0	90.7	4	29.3	4	-1E+10	1	-1E+10	1	-1E+10	1	-1E+10	1	-1E+10	1	-1E+10	1
4902549	43	C	10/16/2021	07:05	-131.808	47.069	0	347.20	0	5.0440	0	33.8780	0	26.784	0	344.027	0	90.4	4	29.2	4	-1E+10	1	-1E+10	1	-1E+10	1	-1E+10	1	-1E+10	1	-1E+10	1
4902549	43	C	10/16/2021	07:05	-131.808	47.069	0	348.20	0	5.0410	0	33.8780	0	26.784	0	345.017	0	90.1	4	29.1	4	-1E+10	1	-1E+10	1	-1E+10	1	-1E+10	1	-1E+10	1	-1E+10	1
4902549	43	C	10/16/2021	07:05	-131.808	47.069	0	349.30	0	5.0360	0	33.8780	0	26.785	0	346.106	0	89.8	4	29.0	4	-1E+10	1	-1E+10	1	-1E+10	1	-1E+10	1	-1E+10	1	-1E+10	1
4902549	43	C	10/16/2021	07:05	-131.808	47.069	0	350.30	0	5.0280	0	33.8790	0	26.787	0	347.096	0	89.5	4	28.9	4	-1E+10	1	-1E+10	1	-1E+10	1	-1E+10	1	-1E+10	1	-1E+10	1
4902549	43	C	10/16/2021	07:05	-131.808	47.069	0	352.90	0	5.0140	0	33.8800	0	26.789	0	349.670	0	88.8	4	28.7	4	-1E+10	1	-1E+10	1	-1E+10	1	-1E+10	1	-1E+10	1	-1E+10	1
4902549	43	C	10/16/2021	07:05	-131.808	47.069	0	357.60	0	4.9940	0	33.8810	0	26.792	0	354.323	0	87.6	4	28.3	4	-1E+10	1	-1E+10	1	-1E+10	1	-1E+10	1	-1E+10	1	-1E+10	1
4902549	43	C	10/16/2021	07:05	-131.808	47.069	0	362.90	0	4.9680	0	33.8830	0	26.797	0	359.570	0	85.8	4	27.7	4	-1E+10	1	-1E+10	1	-1E+10	1	-1E+10	1	-1E+10	1	-1E+10	1
4902549	43	C	10/16/2021	07:05	-131.808	47.069	0	368.10	0	4.9290	0	33.8860	0	26.803	0	364.718	0	83.9	4	27.0	4	-1E+10	1	-1E+10	1	-1E+10	1	-1E+10	1	-1E+10	1	-1E+10	1
4902549	43	C	10/16/2021	07:05	-131.808	47.069	0	373.30	0	4.8910	0	33.8880	0	26.809	0	369.865	0	82.1	4	26.4	4	-1E+10	1	-1E+10	1	-1E+10	1	-1E+10	1	-1E+10	1	-1E+10	1
4902549	43	C	10/16/2021	07:05	-131.808	47.069	0	378.10	0	4.8530	0	33.8900	0	26.815	0	374.617	0	80.5	4	25.9	4	-1E+10	1	-1E+10	1	-1E+10	1	-1E+10	1	-1E+10	1	-1E+10	1
4902549	43	C	10/16/2021	07:05	-131.808	47.069	0	382.70	0	4.8390	0	33.8920	0	26.818	0	379.170	0	78.7	4	25.3	4	-1E+10	1	-1E+10	1	-1E+10	1	-1E+10	1	-1E+10	1	-1E+10	1
4902549	43	C	10/16/2021	07:05	-131.808	47.069	0	388.00	0	4.7960	0	33.8980	0	26.828	0	384.416	0	76.3	4	24.5	4	-1E+10	1	-1E+10	1	-1E+10	1	-1E+10	1	-1E+10	1	-1E+10	1
4902549	43	C	10/16/2021	07:05	-131.808	47.069	0	393.20	0	4.7600	0	33.9000	0	26.834	0	389.563	0	74.1	4	23.8	4	-1E+10	1	-1E+10	1	-1E+10	1	-1E+10	1	-1E+10	1	-1E+10	1
4902549	43	C	10/16/2021	07:05	-131.808	47.069	0	397.80	0	4.7310	0	33.9020	0	26.838	0	394.116	0	71.8	4	23.0	4	-1E+10	1	-1E+10	1	-1E+10	1	-1E+10	1	-1E+10	1	-1E+10	1
4902549	43	C	10/16/2021	07:05	-131.808	47.069	0	402.60	0	4.6700	0	33.9060	0	26.848	0	398.867	0	70.0	4	22.4	4	-1E+10	1	-1E+10	1	-1E+10	1	-1E+10	1	-1E+10	1	-1E+10	1
4902549	43	C	10/16/2021	07:05	-131.808	47.069	0	407.80	0	4.6460	0	33.9110	0	26.855	0	404.014	0	68.4	4	21.9	4	-1E+10	1	-1E+10	1	-1E+10	1	-1E+10	1	-1E+10	1	-1E+10	1
4902549	43	C	10/16/2021	07:05	-131.808	47.069	0	413.10	0	4.6230	0	33.9160	0	26.861	0	409.260	0	66.8	4	21.4	4	-1E+10	1	-1E+10	1	-1E+10	1	-1E+10	1	-1E+10	1	-1E+10	1
4902549	43	C	10/16/2021	07:05	-131.808	47.069	0	417.90	0	4.5940	0	33.9210	0	26.869	0	414.010	0	65.6	4	21.0	4	-1E+10	1	-1E+10	1	-1E+10	1	-1E+10	1	-1E+10	1	-1E+10	1
4902549	43	C	10/16/2021	07:05	-131.808	47.069	0	422.90	0	4.5860	0	33.9240	0	26.872	0	418.959	0	64.3	4	20.6	4	-1E+10	1	-1E+10	1	-1E+10	1	-1E+10	1	-1E+10	1	-1E+10	1
4902549	43	C	10/16/2021	07:05	-131.808	47.069	0	427.90	0	4.5590	0	33.9300	0	26.880	0	423.907	0	62.7	4	20.0	4	-1E+10	1	-1E+10	1	-1E+10	1	-1E+10	1	-1E+10	1	-1E+10	1
4902549	43	C	10/16/2021	07:05	-131.808	47.069	0	432.70	0	4.5420	0	33.9340	0	26.885	0	428.657	0	61.3	4	19.6	4	-1E+10	1	-1E+10	1	-1E+10	1	-1E+10	1	-1E+10	1	-1E+10	1
4902549	43	C	10/16/2021	07:05	-131.808	47.069	0	437.90	0	4.5250	0	33.9430	0	26.894	0	433.803	0	59.7	4	19.1	4	-1E+10	1	-1E+10	1	-1E+10	1	-1E+10	1	-1E+10	1	-1E+10	1
4902549	43	C	10/16/2021	07:05	-131.808	47.069	0	443.20	0	4.5030	0	33.9500	0	26.902	0	439.048	0	58.5	4	18.7	4	-1E+10	1	-1E+10	1	-1E+10	1	-1E+10	1	-1E+10	1	-1E+10	1
4902549	43	C	10/16/2021	07:05	-131.808	47.069	0	448.10	0	4.4980	0	33.9580	0	26.909	0	443.897	0	57.3	4	18.3	4	-1E+10	1	-1E+10	1	-1E+10	1	-1E+10	1	-1E+10	1	-1E+10	1
4902549	43	C	10/16/2021	07:05	-131.808	47.069	0	453.10	0	4.4920	0	33.9650	0	26.915	0	448.845	0	56.0	4	17.9	4	-1E+10	1	-1E+10	1	-1E+10	1	-1E+10	1	-1E+10	1	-1E+10	1
4902549	43	C	10/16/2021	07:05	-131.808	47.069	0	457.80	0	4.4780	0	33.9710	0	26.921	0	453.495	0	54.8	4	17.5	4	-1E+10	1	-1E+10	1	-1E+10	1	-1E+10	1	-1E+10	1	-1E+10	1
4902549	43	C	10/16/2021	07:05	-131.808	47.069	0	462.60	0	4.4640	0	33.9760	0	26.927	0	458.245	0	53.7	4	17.1	4	-1E+10	1	-1E+10	1	-1E+10	1	-1E+10	1	-1E+10	1	-1E+10	1
4902549	43	C	10/16/2021	07:05	-131.808	47.069	0	467.70	0	4.4530	0	33.9810	0	26.932	0	463.291	0	52.7	4	16.8	4	-1E+10	1	-1E+10	1	-1E+10	1	-1E+10	1	-1E+10	1	-1E+10	1
4902549	43	C	10/16/2021	07:05	-131.808	47.069	0	473.00	0	4.4420	0	33.9860	0	26.937	0	468.535	0	51.5	4	16.4	4	-1E+10	1	-1E+10	1	-1E+10	1	-1E+10	1	-1E+10	1	-1E+10	1
4902549	43	C	10/16/2021	07:05	-131.808	47.069	0	478.00	0	4.4300	0	33.9880	0	26.940	0	473.482	0	50.4	4	16.1	4	-1E+10	1	-1E+10	1	-1E+10	1	-1E+10	1	-1E+10	1	-1E+10	1
4902549	43	C	10/16/2021	07:05	-131.808	47.069	0	482.90	0	4.4100	0	33.9940	0	26.947	0	478.330	0	49.4	4	15.7	4	-1E+10	1	-1E+10	1	-1E+10	1	-1E+10	1	-1E+10	1	-1E+10	1
4902549	43	C	10/16/2021	07:05	-131.808	47.069	0	487.80	0	4.4020	0	33.9960	0	26.949	0	483.178	0	48.3	4	15.4	4	-1E+10	1	-1E+10	1	-1E+10	1	-1E+10	1	-1E+10	1	-1E+10	1
4902549	43	C	10/16/2021	07:05	-131.808	47.069	0	492.70	0	4.3830	0	34.0010	0	26.955	0	488.026	0	47.1	4	15.0	4	-1E+10	1	-1E+10	1	-1E+10	1	-1E+10	1	-1E+10	1	-1E+10	1
4902549	43	C	10/16/2021	07:05	-131.808	47.069	0	497.80	0	4.3690	0	34.0050	0	26.960	0	493.072	0	46.0	4	14.6	4	-1E+10	1	-1E+10	1	-1E+10	1	-1E+10	1	-1E+10	1	-1E+10	1
4902549	43	C	10/16/2021	07:05	-131.808	47.069	0	502.70	0	4.3570	0	34.0090	0	26.965	0	497.919	0	44.9	4	14.3	4	-1E+10	1	-1E+10	1	-1E+10	1	-1E+10	1	-1E+10	1	-1E+10	1
4902549	43	C	10/16/2021	07:05	-131.808	47.069	0	507.70	0	4.3430	0	34.0140	0	26.970	0	502.866	0	43.7	4	13.9	4	-1E+10	1	-1E+10	1	-1E+10	1	-1E+10	1	-1E+10	1	-1E+10	1
4902549	43	C	10/16/2021	07:05	-131.808	47.069	0	512.70	0	4.3310	0	34.0180	0	26.975	0	507.812	0	42.4	4	13.5	4	-1E+10	1	-1E+10	1	-1E+10	1	-1E+10	1	-1E+10	1	-1E+10	1
4902549	43	C	10/16/2021	07:05	-131.808	47.069	0	517.80	0	4.3200	0	34.0230	0	26.980	0	512.857	0	40.9	4	13.0	4	-1E+10	1	-1E+10	1	-1E+10	1	-1E+10	1	-1E+10	1	-1E+10	1
4902549	43	C	10/16/2021	07:05	-131.808	47.069	0	523.00	0	4.3040	0	34.0280	0	26.985	0	518.001	0	38.8	4	12.3	4	-1E+10	1	-1E+10	1	-1E+10	1	-1E+10	1	-1E+10	1	-1E+10	1
4902549	43	C	10/16/2021	07:05	-131.808	47.069	0	528.20	0	4.2760	0	34.0400	0	26.998	0	523.145	0	36.7	4	11.7	4	-1E+10	1	-1E+10	1	-1E+10	1	-1E+10	1	-1E+10	1	-1E+10	1
4902549	43	C	10/16/2021	07:05	-131.808	47.069	0	533.00	0	4.2590	0	34.0470	0	27.005	0	527.893	0	35.3	4	11.2	4	-1E+10	1	-1E+10	1	-1E+10	1	-1E+10	1	-1E+10	1	-1E+10	1
4902549	43	C	10/16/2021	07:05	-131.808	47.069	0	537.90	0	4.2350	0	34.0540	0	27.013	0	532.740	0	33.9	4	10.7	4	-1E+10	1	-1E+10	1	-1E+10	1	-1E+10	1	-1E+10	1	-1E+10	1
4902549	43	C	10/16/2021	07:05	-131.808	47.069	0	543.00	0	4.2210	0	34.0610	0	27.021	0	537.784	0	32.6	4	10.3	4	-1E+10	1	-1E+10	1	-1E+10	1	-1E+10	1	-1E+10	1	-1E+10	1
4902549	43	C	10/16/2021	07:05	-131.808	47.069	0	548.00	0	4.2100	0	34.0680	0	27.027	0	542.729	0	32.0	4	10.1	4	-1E+10	1	-1E+10	1	-1E+10	1	-1E+10	1	-1E+10	1	-1E+10	1
4902549	43	C	10/16/2021	07:05	-131.808	47.069	0	552.90	0	4.1980	0	34.0690	0	27.029	0	547.576	0	31.2	4	9.9	4	-1E+10	1	-1E+10	1	-1E+10	1	-1E+10	1	-1E+10	1	-1E+10	1
4902549	43	C	10/16/2021	07:05	-131.808	47.069	0	557.80	0	4.1930	0	34.0730	0	27.033	0	552.422	0	29.8	4	9.4	4	-1E+10	1	-1E+10	1	-1E+10	1	-1E+10	1	-1E+10	1	-1E+10	1
4902549	43	C	10/16/2021	07:05	-131.808	47.069	0	562.90	0	4.1890	0	34.0790	0	27.038	0	557.466	0	29.0	4	9.2	4	-1E+10	1	-1E+10	1	-1E+10	1	-1E+10	1	-1E+10	1	-1E+10	1
4902549	43	C	10/16/2021	07:05	-131.808	47.069	0	568.00	0	4.1640	0	34.0830	0	27.044	0	562.510	0	28.4	4	9.0	4	-1E+10	1	-1E+10	1	-1E+10	1	-1E+10	1	-1E+10	1	-1E+10	1
4902549	43	C	10/16/2021	07:05	-131.808	47.069	0	572.90	0	4.1490	0	34.0860	0	27.048	0	567.356	0	27.2	4	8.6	4	-1E+10	1	-1E+10	1	-1E+10	1	-1E+10	1	-1E+10	1	-1E+10	1
4902549	43	C	10/16/2021	07:05	-131.808	47.069	0	577.50	0	4.1390	0	34.0920	0	27.054	0	571.905	0	25.8	4	8.2	4	-1E+10	1	-1E+10	1	-1E+10	1	-1E+10	1	-1E+10	1	-1E+10	1
4902549	43	C	10/16/2021	07:05	-131.808	47.069	0	582.60	0	4.1320	0	34.0990	0	27.060	0	576.949	0	24.8	4	7.9	4	-1E+10	1	-1E+10	1	-1E+10	1	-1E+10	1	-1E+10	1	-1E+10	1
4902549	43	C	10/16/2021	07:05	-131.808	47.069	0	587.70	0	4.1160	0	34.1040	0	27.066	0	581.992	0	24.3	4	7.7	4	-1E+10	1	-1E+10	1	-1E+10	1	-1E+10	1	-1E+10	1	-1E+10	1
4902549	43	C	10/16/2021	07:05	-131.808	47.069	0	593.00	0	4.0950	0	34.1090	0	27.072	0	587.233	0	24.0	4	7.6	4	-1E+10	1	-1E+10	1	-1E+10	1	-1E+10	1	-1E+10	1	-1E+10	1
4902549	43	C	10/16/2021	07:05	-131.808	47.069	0	597.90	0	4.0870	0	34.1110	0	27.075	0	592.079	0	23.8	4	7.5	4	-1E+10	1	-1E+10	1	-1E+10	1	-1E+10	1	-1E+10	1	-1E+10	1
4902549	43	C	10/16/2021	07:05	-131.808	47.069	0	602.80	0	4.0760	0	34.1130	0	27.077	0	596.924	0	23.4	4	7.4	4	-1E+10	1	-1E+10	1	-1E+10	1	-1E+10	1	-1E+10	1	-1E+10	1
4902549	43	C	10/16/2021	07:05	-131.808	47.069	0	607.90	0	4.0640	0	34.1160	0	27.081	0	601.967	0	23.0	4	7.3	4	-1E+10	1	-1E+10	1	-1E+10	1	-1E+10	1	-1E+10	1	-1E+10	1
4902549	43	C	10/16/2021	07:05	-131.808	47.069	0	612.90	0	4.0490	0	34.1190	0	27.085	0	606.911	0	22.6	4	7.1	4	-1E+10	1	-1E+10	1	-1E+10	1	-1E+10	1	-1E+10	1	-1E+10	1
4902549	43	C	10/16/2021	07:05	-131.808	47.069	0	618.10	0	4.0270	0	34.1240	0	27.091	0	612.052	0	22.0	4	6.9	4	-1E+10	1	-1E+10	1	-1E+10	1	-1E+10	1	-1E+10	1	-1E+10	1
4902549	43	C	10/16/2021	07:05	-131.808	47.069	0	622.80	0	4.0140	0	34.1280	0	27.096	0	616.699	0	21.5	4	6.8	4	-1E+10	1	-1E+10	1	-1E+10	1	-1E+10	1	-1E+10	1	-1E+10	1
4902549	43	C	10/16/2021	07:05	-131.808	47.069	0	628.00	0	4.0060	0	34.1310	0	27.099	0	621.841	0	21.0	4	6.6	4	-1E+10	1	-1E+10	1	-1E+10	1	-1E+10	1	-1E+10	1	-1E+10	1
4902549	43	C	10/16/2021	07:05	-131.808	47.069	0	633.20	0	3.9920	0	34.1360	0	27.104	0	626.982	0	20.5	4	6.5	4	-1E+10	1	-1E+10	1	-1E+10	1	-1E+10	1	-1E+10	1	-1E+10	1
4902549	43	C	10/16/2021	07:05	-131.808	47.069	0	638.10	0	3.9820	0	34.1390	0	27.108	0	631.826	0	20.2	4	6.4	4	-1E+10	1	-1E+10	1	-1E+10	1	-1E+10	1	-1E+10	1	-1E+10	1
4902549	43	C	10/16/2021	07:05	-131.808	47.069	0	642.90	0	3.9750	0	34.1410	0	27.110	0	636.572	0	19.9	4	6.3	4	-1E+10	1	-1E+10	1	-1E+10	1	-1E+10	1	-1E+10	1	-1E+10	1
4902549	43	C	10/16/2021	07:05	-131.808	47.069	0	647.80	0	3.9640	0	34.1430	0	27.113	0	641.416	0	19.6	4	6.2	4	-1E+10	1	-1E+10	1	-1E+10	1	-1E+10	1	-1E+10	1	-1E+10	1
4902549	43	C	10/16/2021	07:05	-131.808	47.069	0	652.60	0	3.9530	0	34.1460	0	27.116	0	646.161	0	19.3	4	6.1	4	-1E+10	1	-1E+10	1	-1E+10	1	-1E+10	1	-1E+10	1	-1E+10	1
4902549	43	C	10/16/2021	07:05	-131.808	47.069	0	658.00	0	3.9470	0	34.1480	0	27.119	0	651.499	0	18.9	4	6.0	4	-1E+10	1	-1E+10	1	-1E+10	1	-1E+10	1	-1E+10	1	-1E+10	1
4902549	43	C	10/16/2021	07:05	-131.808	47.069	0	663.00	0	3.9410	0	34.1510	0	27.122	0	656.442	0	18.5	4	5.8	4	-1E+10	1	-1E+10	1	-1E+10	1	-1E+10	1	-1E+10	1	-1E+10	1
4902549	43	C	10/16/2021	07:05	-131.808	47.069	0	667.90	0	3.9310	0	34.1550	0	27.126	0	661.286	0	18.2	4	5.7	4	-1E+10	1	-1E+10	1	-1E+10	1	-1E+10	1	-1E+10	1	-1E+10	1
4902549	43	C	10/16/2021	07:05	-131.808	47.069	0	673.30	0	3.9150	0	34.1580	0	27.130	0	666.624	0	17.9	4	5.6	4	-1E+10	1	-1E+10	1	-1E+10	1	-1E+10	1	-1E+10	1	-1E+10	1
4902549	43	C	10/16/2021	07:05	-131.808	47.069	0	678.20	0	3.9110	0	34.1590	0	27.131	0	671.467	0	17.6	4	5.5	4	-1E+10	1	-1E+10	1	-1E+10	1	-1E+10	1	-1E+10	1	-1E+10	1
4902549	43	C	10/16/2021	07:05	-131.808	47.069	0	683.10	0	3.9030	0	34.1610	0	27.134	0	676.311	0	17.1	4	5.4	4	-1E+10	1	-1E+10	1	-1E+10	1	-1E+10	1	-1E+10	1	-1E+10	1
4902549	43	C	10/16/2021	07:05	-131.808	47.069	0	688.00	0	3.8970	0	34.1660	0	27.138	0	681.154	0	16.6	4	5.2	4	-1E+10	1	-1E+10	1	-1E+10	1	-1E+10	1	-1E+10	1	-1E+10	1
4902549	43	C	10/16/2021	07:05	-131.808	47.069	0	692.80	0	3.8740	0	34.1700	0	27.144	0	685.898	0	16.3	4	5.1	4	-1E+10	1	-1E+10	1	-1E+10	1	-1E+10	1	-1E+10	1	-1E+10	1
4902549	43	C	10/16/2021	07:05	-131.808	47.069	0	697.60	0	3.8610	0	34.1730	0	27.148	0	690.643	0	15.9	4	5.0	4	-1E+10	1	-1E+10	1	-1E+10	1	-1E+10	1	-1E+10	1	-1E+10	1
4902549	43	C	10/16/2021	07:05	-131.808	47.069	0	702.50	0	3.8490	0	34.1770	0	27.152	0	695.486	0	15.3	4	4.8	4	-1E+10	1	-1E+10	1	-1E+10	1	-1E+10	1	-1E+10	1	-1E+10	1
4902549	43	C	10/16/2021	07:05	-131.808	47.069	0	707.80	0	3.8430	0	34.1810	0	27.156	0	700.724	0	14.6	4	4.6	4	-1E+10	1	-1E+10	1	-1E+10	1	-1E+10	1	-1E+10	1	-1E+10	1
4902549	43	C	10/16/2021	07:05	-131.808	47.069	0	713.10	0	3.8500	0	34.1860	0	27.159	0	705.962	0	13.8	4	4.4	4	-1E+10	1	-1E+10	1	-1E+10	1	-1E+10	1	-1E+10	1	-1E+10	1
4902549	43	C	10/16/2021	07:05	-131.808	47.069	0	717.90	0	3.8480	0	34.1930	0	27.165	0	710.706	0	13.5	4	4.3	4	-1E+10	1	-1E+10	1	-1E+10	1	-1E+10	1	-1E+10	1	-1E+10	1
4902549	43	C	10/16/2021	07:05	-131.808	47.069	0	723.00	0	3.8470	0	34.1930	0	27.165	0	715.746	0	13.4	4	4.2	4	-1E+10	1	-1E+10	1	-1E+10	1	-1E+10	1	-1E+10	1	-1E+10	1
4902549	43	C	10/16/2021	07:05	-131.808	47.069	0	728.10	0	3.8190	0	34.1970	0	27.171	0	720.786	0	13.1	4	4.1	4	-1E+10	1	-1E+10	1	-1E+10	1	-1E+10	1	-1E+10	1	-1E+10	1
4902549	43	C	10/16/2021	07:05	-131.808	47.069	0	732.70	0	3.8100	0	34.2000	0	27.174	0	725.331	0	12.8	4	4.0	4	-1E+10	1	-1E+10	1	-1E+10	1	-1E+10	1	-1E+10	1	-1E+10	1
4902549	43	C	10/16/2021	07:05	-131.808	47.069	0	737.70	0	3.7920	0	34.2050	0	27.180	0	730.272	0	12.6	4	4.0	4	-1E+10	1	-1E+10	1	-1E+10	1	-1E+10	1	-1E+10	1	-1E+10	1
4902549	43	C	10/16/2021	07:05	-131.808	47.069	0	742.80	0	3.7690	0	34.2080	0	27.185	0	735.312	0	12.4	4	3.9	4	-1E+10	1	-1E+10	1	-1E+10	1	-1E+10	1	-1E+10	1	-1E+10	1
4902549	43	C	10/16/2021	07:05	-131.808	47.069	0	747.80	0	3.7480	0	34.2110	0	27.189	0	740.253	0	12.2	4	3.8	4	-1E+10	1	-1E+10	1	-1E+10	1	-1E+10	1	-1E+10	1	-1E+10	1
4902549	43	C	10/16/2021	07:05	-131.808	47.069	0	752.80	0	3.7340	0	34.2140	0	27.193	0	745.193	0	12.0	4	3.8	4	-1E+10	1	-1E+10	1	-1E+10	1	-1E+10	1	-1E+10	1	-1E+10	1
4902549	43	C	10/16/2021	07:05	-131.808	47.069	0	757.80	0	3.7160	0	34.2170	0	27.197	0	750.134	0	11.7	4	3.7	4	-1E+10	1	-1E+10	1	-1E+10	1	-1E+10	1	-1E+10	1	-1E+10	1
4902549	43	C	10/16/2021	07:05	-131.808	47.069	0	762.80	0	3.7000	0	34.2210	0	27.202	0	755.074	0	11.4	4	3.6	4	-1E+10	1	-1E+10	1	-1E+10	1	-1E+10	1	-1E+10	1	-1E+10	1
4902549	43	C	10/16/2021	07:05	-131.808	47.069	0	767.80	0	3.6860	0	34.2250	0	27.207	0	760.015	0	11.0	4	3.5	4	-1E+10	1	-1E+10	1	-1E+10	1	-1E+10	1	-1E+10	1	-1E+10	1
4902549	43	C	10/16/2021	07:05	-131.808	47.069	0	773.00	0	3.6650	0	34.2310	0	27.214	0	765.152	0	10.7	4	3.4	4	-1E+10	1	-1E+10	1	-1E+10	1	-1E+10	1	-1E+10	1	-1E+10	1
4902549	43	C	10/16/2021	07:05	-131.808	47.069	0	777.80	0	3.6580	0	34.2330	0	27.216	0	769.895	0	10.5	4	3.3	4	-1E+10	1	-1E+10	1	-1E+10	1	-1E+10	1	-1E+10	1	-1E+10	1
4902549	43	C	10/16/2021	07:05	-131.808	47.069	0	782.70	0	3.6480	0	34.2350	0	27.219	0	774.736	0	10.3	4	3.2	4	-1E+10	1	-1E+10	1	-1E+10	1	-1E+10	1	-1E+10	1	-1E+10	1
4902549	43	C	10/16/2021	07:05	-131.808	47.069	0	787.70	0	3.6300	0	34.2400	0	27.224	0	779.676	0	10.0	4	3.1	4	-1E+10	1	-1E+10	1	-1E+10	1	-1E+10	1	-1E+10	1	-1E+10	1
4902549	43	C	10/16/2021	07:05	-131.808	47.069	0	792.70	0	3.6180	0	34.2440	0	27.229	0	784.615	0	9.8	4	3.1	4	-1E+10	1	-1E+10	1	-1E+10	1	-1E+10	1	-1E+10	1	-1E+10	1
4902549	43	C	10/16/2021	07:05	-131.808	47.069	0	797.70	0	3.6080	0	34.2470	0	27.232	0	789.555	0	9.7	4	3.0	4	-1E+10	1	-1E+10	1	-1E+10	1	-1E+10	1	-1E+10	1	-1E+10	1
4902549	43	C	10/16/2021	07:05	-131.808	47.069	0	802.80	0	3.5970	0	34.2490	0	27.235	0	794.593	0	9.5	4	3.0	4	-1E+10	1	-1E+10	1	-1E+10	1	-1E+10	1	-1E+10	1	-1E+10	1
4902549	43	C	10/16/2021	07:05	-131.808	47.069	0	807.90	0	3.5880	0	34.2520	0	27.238	0	799.631	0	9.3	4	2.9	4	-1E+10	1	-1E+10	1	-1E+10	1	-1E+10	1	-1E+10	1	-1E+10	1
4902549	43	C	10/16/2021	07:05	-131.808	47.069	0	812.90	0	3.5750	0	34.2550	0	27.242	0	804.570	0	9.1	4	2.8	4	-1E+10	1	-1E+10	1	-1E+10	1	-1E+10	1	-1E+10	1	-1E+10	1
4902549	43	C	10/16/2021	07:05	-131.808	47.069	0	818.00	0	3.5560	0	34.2610	0	27.248	0	809.608	0	8.8	4	2.8	4	-1E+10	1	-1E+10	1	-1E+10	1	-1E+10	1	-1E+10	1	-1E+10	1
4902549	43	C	10/16/2021	07:05	-131.808	47.069	0	822.80	0	3.5430	0	34.2660	0	27.254	0	814.350	0	8.8	4	2.7	4	-1E+10	1	-1E+10	1	-1E+10	1	-1E+10	1	-1E+10	1	-1E+10	1
4902549	43	C	10/16/2021	07:05	-131.808	47.069	0	827.80	0	3.5390	0	34.2670	0	27.255	0	819.289	0	8.7	4	2.7	4	-1E+10	1	-1E+10	1	-1E+10	1	-1E+10	1	-1E+10	1	-1E+10	1
4902549	43	C	10/16/2021	07:05	-131.808	47.069	0	832.80	0	3.5340	0	34.2690	0	27.257	0	824.227	0	8.6	4	2.7	4	-1E+10	1	-1E+10	1	-1E+10	1	-1E+10	1	-1E+10	1	-1E+10	1
4902549	43	C	10/16/2021	07:05	-131.808	47.069	0	838.00	0	3.5290	0	34.2710	0	27.259	0	829.363	0	8.6	4	2.7	4	-1E+10	1	-1E+10	1	-1E+10	1	-1E+10	1	-1E+10	1	-1E+10	1
4902549	43	C	10/16/2021	07:05	-131.808	47.069	0	842.80	0	3.5220	0	34.2720	0	27.261	0	834.104	0	8.5	4	2.7	4	-1E+10	1	-1E+10	1	-1E+10	1	-1E+10	1	-1E+10	1	-1E+10	1
4902549	43	C	10/16/2021	07:05	-131.808	47.069	0	847.70	0	3.5130	0	34.2750	0	27.264	0	838.944	0	8.5	4	2.7	4	-1E+10	1	-1E+10	1	-1E+10	1	-1E+10	1	-1E+10	1	-1E+10	1
4902549	43	C	10/16/2021	07:05	-131.808	47.069	0	853.10	0	3.5050	0	34.2770	0	27.266	0	844.277	0	8.4	4	2.6	4	-1E+10	1	-1E+10	1	-1E+10	1	-1E+10	1	-1E+10	1	-1E+10	1
4902549	43	C	10/16/2021	07:05	-131.808	47.069	0	858.00	0	3.4910	0	34.2800	0	27.270	0	849.117	0	8.4	4	2.6	4	-1E+10	1	-1E+10	1	-1E+10	1	-1E+10	1	-1E+10	1	-1E+10	1
4902549	43	C	10/16/2021	07:05	-131.808	47.069	0	863.00	0	3.4810	0	34.2820	0	27.273	0	854.055	0	8.3	4	2.6	4	-1E+10	1	-1E+10	1	-1E+10	1	-1E+10	1	-1E+10	1	-1E+10	1
4902549	43	C	10/16/2021	07:05	-131.808	47.069	0	868.10	0	3.4750	0	34.2840	0	27.275	0	859.091	0	8.2	4	2.6	4	-1E+10	1	-1E+10	1	-1E+10	1	-1E+10	1	-1E+10	1	-1E+10	1
4902549	43	C	10/16/2021	07:05	-131.808	47.069	0	872.80	0	3.4670	0	34.2870	0	27.278	0	863.733	0	8.1	4	2.5	4	-1E+10	1	-1E+10	1	-1E+10	1	-1E+10	1	-1E+10	1	-1E+10	1
4902549	43	C	10/16/2021	07:05	-131.808	47.069	0	877.60	0	3.4610	0	34.2890	0	27.280	0	868.473	0	8.1	4	2.5	4	-1E+10	1	-1E+10	1	-1E+10	1	-1E+10	1	-1E+10	1	-1E+10	1
4902549	43	C	10/16/2021	07:05	-131.808	47.069	0	882.50	0	3.4570	0	34.2900	0	27.282	0	873.312	0	8.0	4	2.5	4	-1E+10	1	-1E+10	1	-1E+10	1	-1E+10	1	-1E+10	1	-1E+10	1
4902549	43	C	10/16/2021	07:05	-131.808	47.069	0	887.90	0	3.4540	0	34.2920	0	27.283	0	878.644	0	7.8	4	2.4	4	-1E+10	1	-1E+10	1	-1E+10	1	-1E+10	1	-1E+10	1	-1E+10	1
4902549	43	C	10/16/2021	07:05	-131.808	47.069	0	893.30	0	3.4430	0	34.2960	0	27.288	0	883.977	0	7.5	4	2.3	4	-1E+10	1	-1E+10	1	-1E+10	1	-1E+10	1	-1E+10	1	-1E+10	1
4902549	43	C	10/16/2021	07:05	-131.808	47.069	0	898.30	0	3.4340	0	34.3010	0	27.293	0	888.914	0	7.5	4	2.3	4	-1E+10	1	-1E+10	1	-1E+10	1	-1E+10	1	-1E+10	1	-1E+10	1
4902549	43	C	10/16/2021	07:05	-131.808	47.069	0	902.90	0	3.4320	0	34.3020	0	27.294	0	893.456	0	7.5	4	2.3	4	-1E+10	1	-1E+10	1	-1E+10	1	-1E+10	1	-1E+10	1	-1E+10	1
4902549	43	C	10/16/2021	07:05	-131.808	47.069	0	907.50	0	3.4220	0	34.3030	0	27.295	0	897.998	0	7.5	4	2.3	4	-1E+10	1	-1E+10	1	-1E+10	1	-1E+10	1	-1E+10	1	-1E+10	1
4902549	43	C	10/16/2021	07:05	-131.808	47.069	0	912.70	0	3.4160	0	34.3040	0	27.297	0	903.132	0	7.4	4	2.3	4	-1E+10	1	-1E+10	1	-1E+10	1	-1E+10	1	-1E+10	1	-1E+10	1
4902549	43	C	10/16/2021	07:05	-131.808	47.069	0	917.90	0	3.4100	0	34.3060	0	27.299	0	908.267	0	7.3	4	2.3	4	-1E+10	1	-1E+10	1	-1E+10	1	-1E+10	1	-1E+10	1	-1E+10	1
4902549	43	C	10/16/2021	07:05	-131.808	47.069	0	923.20	0	3.3970	0	34.3090	0	27.303	0	913.499	0	7.1	4	2.2	4	-1E+10	1	-1E+10	1	-1E+10	1	-1E+10	1	-1E+10	1	-1E+10	1
4902549	43	C	10/16/2021	07:05	-131.808	47.069	0	927.90	0	3.3870	0	34.3130	0	27.307	0	918.140	0	7.0	4	2.2	4	-1E+10	1	-1E+10	1	-1E+10	1	-1E+10	1	-1E+10	1	-1E+10	1
4902549	43	C	10/16/2021	07:05	-131.808	47.069	0	932.70	0	3.3770	0	34.3160	0	27.310	0	922.879	0	6.8	4	2.1	4	-1E+10	1	-1E+10	1	-1E+10	1	-1E+10	1	-1E+10	1	-1E+10	1
4902549	43	C	10/16/2021	07:05	-131.808	47.069	0	938.00	0	3.3630	0	34.3210	0	27.316	0	928.111	0	6.8	4	2.1	4	-1E+10	1	-1E+10	1	-1E+10	1	-1E+10	1	-1E+10	1	-1E+10	1
4902549	43	C	10/16/2021	07:05	-131.808	47.069	0	943.20	0	3.3530	0	34.3230	0	27.318	0	933.245	0	6.8	4	2.1	4	-1E+10	1	-1E+10	1	-1E+10	1	-1E+10	1	-1E+10	1	-1E+10	1
4902549	43	C	10/16/2021	07:05	-131.808	47.069	0	948.00	0	3.3420	0	34.3260	0	27.322	0	937.983	0	6.8	4	2.1	4	-1E+10	1	-1E+10	1	-1E+10	1	-1E+10	1	-1E+10	1	-1E+10	1
4902549	43	C	10/16/2021	07:05	-131.808	47.069	0	952.70	0	3.3290	0	34.3270	0	27.324	0	942.623	0	6.9	4	2.1	4	-1E+10	1	-1E+10	1	-1E+10	1	-1E+10	1	-1E+10	1	-1E+10	1
4902549	43	C	10/16/2021	07:05	-131.808	47.069	0	958.00	0	3.3170	0	34.3280	0	27.326	0	947.855	0	6.9	4	2.2	4	-1E+10	1	-1E+10	1	-1E+10	1	-1E+10	1	-1E+10	1	-1E+10	1
4902549	43	C	10/16/2021	07:05	-131.808	47.069	0	963.30	0	3.3090	0	34.3290	0	27.327	0	953.087	0	6.9	4	2.2	4	-1E+10	1	-1E+10	1	-1E+10	1	-1E+10	1	-1E+10	1	-1E+10	1
4902549	43	C	10/16/2021	07:05	-131.808	47.069	0	968.00	0	3.3010	0	34.3310	0	27.330	0	957.726	0	6.9	4	2.2	4	-1E+10	1	-1E+10	1	-1E+10	1	-1E+10	1	-1E+10	1	-1E+10	1
4902549	43	C	10/16/2021	07:05	-131.808	47.069	0	972.80	0	3.2890	0	34.3330	0	27.332	0	962.464	0	6.9	4	2.1	4	-1E+10	1	-1E+10	1	-1E+10	1	-1E+10	1	-1E+10	1	-1E+10	1
4902549	43	C	10/16/2021	07:05	-131.808	47.069	0	978.10	0	3.2770	0	34.3350	0	27.335	0	967.696	0	6.9	4	2.1	4	-1E+10	1	-1E+10	1	-1E+10	1	-1E+10	1	-1E+10	1	-1E+10	1
4902549	43	C	10/16/2021	07:05	-131.808	47.069	0	982.90	0	3.2660	0	34.3370	0	27.338	0	972.434	0	6.9	4	2.1	4	-1E+10	1	-1E+10	1	-1E+10	1	-1E+10	1	-1E+10	1	-1E+10	1
4902549	43	C	10/16/2021	07:05	-131.808	47.069	0	987.70	0	3.2590	0	34.3390	0	27.340	0	977.171	0	6.8	4	2.1	4	-1E+10	1	-1E+10	1	-1E+10	1	-1E+10	1	-1E+10	1	-1E+10	1
4902549	43	C	10/16/2021	07:05	-131.808	47.069	0	993.00	0	3.2490	0	34.3410	0	27.343	0	982.402	0	6.8	4	2.1	4	-1E+10	1	-1E+10	1	-1E+10	1	-1E+10	1	-1E+10	1	-1E+10	1
4902549	43	C	10/16/2021	07:05	-131.808	47.069	0	998.30	0	3.2370	0	34.3440	0	27.346	0	987.633	0	6.7	4	2.1	4	-1E+10	1	-1E+10	1	-1E+10	1	-1E+10	1	-1E+10	1	-1E+10	1
4902549	43	C	10/16/2021	07:05	-131.808	47.069	0	1005.70	0	3.2210	0	34.3510	0	27.353	0	994.937	0	6.6	4	2.1	4	-1E+10	1	-1E+10	1	-1E+10	1	-1E+10	1	-1E+10	1	-1E+10	1
4902549	43	C	10/16/2021	07:05	-131.808	47.069	0	1015.30	0	3.2080	0	34.3550	0	27.358	0	1004.411	0	6.6	4	2.1	4	-1E+10	1	-1E+10	1	-1E+10	1	-1E+10	1	-1E+10	1	-1E+10	1
4902549	43	C	10/16/2021	07:05	-131.808	47.069	0	1025.00	0	3.1920	0	34.3600	0	27.363	0	1013.983	0	6.7	4	2.1	4	-1E+10	1	-1E+10	1	-1E+10	1	-1E+10	1	-1E+10	1	-1E+10	1
4902549	43	C	10/16/2021	07:05	-131.808	47.069	0	1035.40	0	3.1760	0	34.3650	0	27.369	0	1024.246	0	6.6	4	2.1	4	-1E+10	1	-1E+10	1	-1E+10	1	-1E+10	1	-1E+10	1	-1E+10	1
4902549	43	C	10/16/2021	07:05	-131.808	47.069	0	1045.40	0	3.1680	0	34.3720	0	27.375	0	1034.114	0	6.6	4	2.1	4	-1E+10	1	-1E+10	1	-1E+10	1	-1E+10	1	-1E+10	1	-1E+10	1
4902549	43	C	10/16/2021	07:05	-131.808	47.069	0	1055.20	0	3.1450	0	34.3780	0	27.382	0	1043.784	0	6.8	4	2.1	4	-1E+10	1	-1E+10	1	-1E+10	1	-1E+10	1	-1E+10	1	-1E+10	1
4902549	43	C	10/16/2021	07:05	-131.808	47.069	0	1065.50	0	3.1310	0	34.3810	0	27.386	0	1053.946	0	6.8	4	2.1	4	-1E+10	1	-1E+10	1	-1E+10	1	-1E+10	1	-1E+10	1	-1E+10	1
4902549	43	C	10/16/2021	07:05	-131.808	47.069	0	1075.50	0	3.1200	0	34.3850	0	27.390	0	1063.813	0	6.8	4	2.1	4	-1E+10	1	-1E+10	1	-1E+10	1	-1E+10	1	-1E+10	1	-1E+10	1
4902549	43	C	10/16/2021	07:05	-131.808	47.069	0	1085.30	0	3.1000	0	34.3860	0	27.393	0	1073.481	0	6.9	4	2.1	4	-1E+10	1	-1E+10	1	-1E+10	1	-1E+10	1	-1E+10	1	-1E+10	1
4902549	43	C	10/16/2021	07:05	-131.808	47.069	0	1095.30	0	3.0950	0	34.3870	0	27.394	0	1083.346	0	7.0	4	2.2	4	-1E+10	1	-1E+10	1	-1E+10	1	-1E+10	1	-1E+10	1	-1E+10	1
4902549	43	C	10/16/2021	07:05	-131.808	47.069	0	1105.20	0	3.0780	0	34.3910	0	27.399	0	1093.113	0	7.1	4	2.2	4	-1E+10	1	-1E+10	1	-1E+10	1	-1E+10	1	-1E+10	1	-1E+10	1
4902549	43	C	10/16/2021	07:05	-131.808	47.069	0	1115.30	0	3.0580	0	34.3950	0	27.404	0	1103.076	0	7.2	4	2.2	4	-1E+10	1	-1E+10	1	-1E+10	1	-1E+10	1	-1E+10	1	-1E+10	1
4902549	43	C	10/16/2021	07:05	-131.808	47.069	0	1125.50	0	3.0450	0	34.4000	0	27.409	0	1113.137	0	7.4	4	2.3	4	-1E+10	1	-1E+10	1	-1E+10	1	-1E+10	1	-1E+10	1	-1E+10	1
4902549	43	C	10/16/2021	07:05	-131.808	47.069	0	1135.40	0	3.0350	0	34.4040	0	27.413	0	1122.902	0	7.5	4	2.3	4	-1E+10	1	-1E+10	1	-1E+10	1	-1E+10	1	-1E+10	1	-1E+10	1
4902549	43	C	10/16/2021	07:05	-131.808	47.069	0	1145.30	0	3.0120	0	34.4070	0	27.418	0	1132.666	0	7.6	4	2.4	4	-1E+10	1	-1E+10	1	-1E+10	1	-1E+10	1	-1E+10	1	-1E+10	1
4902549	43	C	10/16/2021	07:05	-131.808	47.069	0	1155.70	0	2.9860	0	34.4100	0	27.423	0	1142.923	0	7.8	4	2.4	4	-1E+10	1	-1E+10	1	-1E+10	1	-1E+10	1	-1E+10	1	-1E+10	1
4902549	43	C	10/16/2021	07:05	-131.808	47.069	0	1165.40	0	2.9710	0	34.4130	0	27.426	0	1152.489	0	7.8	4	2.4	4	-1E+10	1	-1E+10	1	-1E+10	1	-1E+10	1	-1E+10	1	-1E+10	1
4902549	43	C	10/16/2021	07:05	-131.808	47.069	0	1175.10	0	2.9500	0	34.4150	0	27.430	0	1162.055	0	8.0	4	2.5	4	-1E+10	1	-1E+10	1	-1E+10	1	-1E+10	1	-1E+10	1	-1E+10	1
4902549	43	C	10/16/2021	07:05	-131.808	47.069	0	1185.30	0	2.9310	0	34.4200	0	27.436	0	1172.113	0	8.4	4	2.6	4	-1E+10	1	-1E+10	1	-1E+10	1	-1E+10	1	-1E+10	1	-1E+10	1
4902549	43	C	10/16/2021	07:05	-131.808	47.069	0	1195.60	0	2.9020	0	34.4240	0	27.442	0	1182.270	0	8.7	4	2.7	4	-1E+10	1	-1E+10	1	-1E+10	1	-1E+10	1	-1E+10	1	-1E+10	1
4902549	43	C	10/16/2021	07:05	-131.808	47.069	0	1205.50	0	2.8780	0	34.4270	0	27.446	0	1192.031	0	8.9	4	2.7	4	-1E+10	1	-1E+10	1	-1E+10	1	-1E+10	1	-1E+10	1	-1E+10	1
4902549	43	C	10/16/2021	07:05	-131.808	47.069	0	1215.10	0	2.8610	0	34.4300	0	27.450	0	1201.497	0	9.1	4	2.8	4	-1E+10	1	-1E+10	1	-1E+10	1	-1E+10	1	-1E+10	1	-1E+10	1
4902549	43	C	10/16/2021	07:05	-131.808	47.069	0	1225.30	0	2.8520	0	34.4310	0	27.452	0	1211.553	0	9.2	4	2.8	4	-1E+10	1	-1E+10	1	-1E+10	1	-1E+10	1	-1E+10	1	-1E+10	1
4902549	43	C	10/16/2021	07:05	-131.808	47.069	0	1235.60	0	2.8360	0	34.4340	0	27.456	0	1221.708	0	9.4	4	2.9	4	-1E+10	1	-1E+10	1	-1E+10	1	-1E+10	1	-1E+10	1	-1E+10	1
4902549	43	C	10/16/2021	07:05	-131.808	47.069	0	1245.50	0	2.8180	0	34.4370	0	27.460	0	1231.467	0	9.7	4	3.0	4	-1E+10	1	-1E+10	1	-1E+10	1	-1E+10	1	-1E+10	1	-1E+10	1
4902549	43	C	10/16/2021	07:05	-131.808	47.069	0	1255.50	0	2.7930	0	34.4410	0	27.465	0	1241.325	0	10.0	4	3.1	4	-1E+10	1	-1E+10	1	-1E+10	1	-1E+10	1	-1E+10	1	-1E+10	1
4902549	43	C	10/16/2021	07:05	-131.808	47.069	0	1265.70	0	2.7760	0	34.4440	0	27.469	0	1251.380	0	10.3	4	3.2	4	-1E+10	1	-1E+10	1	-1E+10	1	-1E+10	1	-1E+10	1	-1E+10	1
4902549	43	C	10/16/2021	07:05	-131.808	47.069	0	1275.80	0	2.7630	0	34.4470	0	27.473	0	1261.335	0	10.4	4	3.2	4	-1E+10	1	-1E+10	1	-1E+10	1	-1E+10	1	-1E+10	1	-1E+10	1
4902549	43	C	10/16/2021	07:05	-131.808	47.069	0	1285.30	0	2.7500	0	34.4480	0	27.475	0	1270.699	0	10.5	4	3.2	4	-1E+10	1	-1E+10	1	-1E+10	1	-1E+10	1	-1E+10	1	-1E+10	1
4902549	43	C	10/16/2021	07:05	-131.808	47.069	0	1295.40	0	2.7330	0	34.4500	0	27.478	0	1280.653	0	10.6	4	3.3	4	-1E+10	1	-1E+10	1	-1E+10	1	-1E+10	1	-1E+10	1	-1E+10	1
4902549	43	C	10/16/2021	07:05	-131.808	47.069	0	1305.40	0	2.7230	0	34.4510	0	27.479	0	1290.509	0	10.7	4	3.3	4	-1E+10	1	-1E+10	1	-1E+10	1	-1E+10	1	-1E+10	1	-1E+10	1
4902549	43	C	10/16/2021	07:05	-131.808	47.069	0	1315.30	0	2.7150	0	34.4520	0	27.481	0	1300.265	0	11.0	4	3.4	4	-1E+10	1	-1E+10	1	-1E+10	1	-1E+10	1	-1E+10	1	-1E+10	1
4902549	43	C	10/16/2021	07:05	-131.808	47.069	0	1325.10	0	2.7090	0	34.4540	0	27.483	0	1309.923	0	11.2	4	3.4	4	-1E+10	1	-1E+10	1	-1E+10	1	-1E+10	1	-1E+10	1	-1E+10	1
4902549	43	C	10/16/2021	07:05	-131.808	47.069	0	1335.20	0	2.6940	0	34.4550	0	27.485	0	1319.876	0	11.4	4	3.5	4	-1E+10	1	-1E+10	1	-1E+10	1	-1E+10	1	-1E+10	1	-1E+10	1
4902549	43	C	10/16/2021	07:05	-131.808	47.069	0	1345.60	0	2.6780	0	34.4580	0	27.489	0	1330.123	0	11.7	4	3.6	4	-1E+10	1	-1E+10	1	-1E+10	1	-1E+10	1	-1E+10	1	-1E+10	1
4902549	43	C	10/16/2021	07:05	-131.808	47.069	0	1355.60	0	2.6680	0	34.4600	0	27.492	0	1339.977	0	12.0	4	3.7	4	-1E+10	1	-1E+10	1	-1E+10	1	-1E+10	1	-1E+10	1	-1E+10	1
4902549	43	C	10/16/2021	07:05	-131.808	47.069	0	1365.60	0	2.6500	0	34.4630	0	27.496	0	1349.829	0	12.5	4	3.8	4	-1E+10	1	-1E+10	1	-1E+10	1	-1E+10	1	-1E+10	1	-1E+10	1
4902549	43	C	10/16/2021	07:05	-131.808	47.069	0	1375.80	0	2.6300	0	34.4660	0	27.500	0	1359.879	0	13.0	4	4.0	4	-1E+10	1	-1E+10	1	-1E+10	1	-1E+10	1	-1E+10	1	-1E+10	1
4902549	43	C	10/16/2021	07:05	-131.808	47.069	0	1385.60	0	2.6160	0	34.4700	0	27.504	0	1369.534	0	13.5	4	4.1	4	-1E+10	1	-1E+10	1	-1E+10	1	-1E+10	1	-1E+10	1	-1E+10	1
4902549	43	C	10/16/2021	07:05	-131.808	47.069	0	1395.50	0	2.6020	0	34.4730	0	27.508	0	1379.286	0	13.7	4	4.2	4	-1E+10	1	-1E+10	1	-1E+10	1	-1E+10	1	-1E+10	1	-1E+10	1
4902549	43	C	10/16/2021	07:05	-131.808	47.069	0	1405.70	0	2.5820	0	34.4740	0	27.510	0	1389.334	0	14.0	4	4.3	4	-1E+10	1	-1E+10	1	-1E+10	1	-1E+10	1	-1E+10	1	-1E+10	1
4902549	43	C	10/16/2021	07:05	-131.808	47.069	0	1415.90	0	2.5740	0	34.4750	0	27.512	0	1399.382	0	14.3	4	4.4	4	-1E+10	1	-1E+10	1	-1E+10	1	-1E+10	1	-1E+10	1	-1E+10	1
4902549	43	C	10/16/2021	07:05	-131.808	47.069	0	1425.50	0	2.5500	0	34.4780	0	27.516	0	1408.838	0	14.7	4	4.5	4	-1E+10	1	-1E+10	1	-1E+10	1	-1E+10	1	-1E+10	1	-1E+10	1
4902549	43	C	10/16/2021	07:05	-131.808	47.069	0	1435.20	0	2.5370	0	34.4800	0	27.519	0	1418.392	0	15.2	4	4.6	4	-1E+10	1	-1E+10	1	-1E+10	1	-1E+10	1	-1E+10	1	-1E+10	1
4902549	43	C	10/16/2021	07:05	-131.808	47.069	0	1445.10	0	2.5230	0	34.4820	0	27.522	0	1428.142	0	15.7	4	4.8	4	-1E+10	1	-1E+10	1	-1E+10	1	-1E+10	1	-1E+10	1	-1E+10	1
4902549	43	C	10/16/2021	07:05	-131.808	47.069	0	1455.40	0	2.5110	0	34.4860	0	27.526	0	1438.287	0	16.5	4	5.0	4	-1E+10	1	-1E+10	1	-1E+10	1	-1E+10	1	-1E+10	1	-1E+10	1
4902549	43	C	10/16/2021	07:05	-131.808	47.069	0	1465.40	0	2.4920	0	34.4890	0	27.530	0	1448.135	0	17.2	4	5.2	4	-1E+10	1	-1E+10	1	-1E+10	1	-1E+10	1	-1E+10	1	-1E+10	1
4902549	43	C	10/16/2021	07:05	-131.808	47.069	0	1475.50	0	2.4780	0	34.4930	0	27.535	0	1458.081	0	18.2	4	5.6	4	-1E+10	1	-1E+10	1	-1E+10	1	-1E+10	1	-1E+10	1	-1E+10	1
4902549	43	C	10/16/2021	07:05	-131.808	47.069	0	1485.40	0	2.4640	0	34.4970	0	27.539	0	1467.830	0	18.9	4	5.8	4	-1E+10	1	-1E+10	1	-1E+10	1	-1E+10	1	-1E+10	1	-1E+10	1
4902549	43	C	10/16/2021	07:05	-131.808	47.069	0	1495.00	0	2.4500	0	34.4990	0	27.542	0	1477.283	0	19.5	4	5.9	4	-1E+10	1	-1E+10	1	-1E+10	1	-1E+10	1	-1E+10	1	-1E+10	1
4902549	43	C	10/16/2021	07:05	-131.808	47.069	0	1505.20	0	2.4350	0	34.5020	0	27.546	0	1487.326	0	20.1	4	6.1	4	-1E+10	1	-1E+10	1	-1E+10	1	-1E+10	1	-1E+10	1	-1E+10	1
4902549	43	C	10/16/2021	07:05	-131.808	47.069	0	1515.60	0	2.4210	0	34.5040	0	27.549	0	1497.565	0	20.9	4	6.4	4	-1E+10	1	-1E+10	1	-1E+10	1	-1E+10	1	-1E+10	1	-1E+10	1
4902549	43	C	10/16/2021	07:05	-131.808	47.069	0	1525.50	0	2.4080	0	34.5080	0	27.553	0	1507.312	0	21.6	4	6.6	4	-1E+10	1	-1E+10	1	-1E+10	1	-1E+10	1	-1E+10	1	-1E+10	1
4902549	43	C	10/16/2021	07:05	-131.808	47.069	0	1535.60	0	2.4020	0	34.5100	0	27.555	0	1517.256	0	22.3	4	6.8	4	-1E+10	1	-1E+10	1	-1E+10	1	-1E+10	1	-1E+10	1	-1E+10	1
4902549	43	C	10/16/2021	07:05	-131.808	47.069	0	1545.70	0	2.3980	0	34.5130	0	27.558	0	1527.199	0	23.1	4	7.0	4	-1E+10	1	-1E+10	1	-1E+10	1	-1E+10	1	-1E+10	1	-1E+10	1
4902549	43	C	10/16/2021	07:05	-131.808	47.069	0	1555.40	0	2.3890	0	34.5150	0	27.560	0	1536.747	0	23.7	4	7.2	4	-1E+10	1	-1E+10	1	-1E+10	1	-1E+10	1	-1E+10	1	-1E+10	1
4902549	43	C	10/16/2021	07:05	-131.808	47.069	0	1565.10	0	2.3870	0	34.5180	0	27.563	0	1546.296	0	24.5	4	7.4	4	-1E+10	1	-1E+10	1	-1E+10	1	-1E+10	1	-1E+10	1	-1E+10	1
4902549	43	C	10/16/2021	07:05	-131.808	47.069	0	1575.10	0	2.3790	0	34.5200	0	27.565	0	1556.139	0	25.2	4	7.7	4	-1E+10	1	-1E+10	1	-1E+10	1	-1E+10	1	-1E+10	1	-1E+10	1
4902549	43	C	10/16/2021	07:05	-131.808	47.069	0	1585.10	0	2.3650	0	34.5230	0	27.569	0	1565.981	0	25.9	4	7.9	4	-1E+10	1	-1E+10	1	-1E+10	1	-1E+10	1	-1E+10	1	-1E+10	1
4902549	43	C	10/16/2021	07:05	-131.808	47.069	0	1595.30	0	2.3550	0	34.5250	0	27.571	0	1576.020	0	26.7	4	8.1	4	-1E+10	1	-1E+10	1	-1E+10	1	-1E+10	1	-1E+10	1	-1E+10	1
4902549	43	C	10/16/2021	07:05	-131.808	47.069	0	1605.60	0	2.3390	0	34.5280	0	27.575	0	1586.157	0	27.4	4	8.3	4	-1E+10	1	-1E+10	1	-1E+10	1	-1E+10	1	-1E+10	1	-1E+10	1
4902549	43	C	10/16/2021	07:05	-131.808	47.069	0	1615.40	0	2.3230	0	34.5290	0	27.577	0	1595.802	0	27.8	4	8.5	4	-1E+10	1	-1E+10	1	-1E+10	1	-1E+10	1	-1E+10	1	-1E+10	1
4902549	43	C	10/16/2021	07:05	-131.808	47.069	0	1625.20	0	2.3080	0	34.5310	0	27.580	0	1605.446	0	28.6	4	8.7	4	-1E+10	1	-1E+10	1	-1E+10	1	-1E+10	1	-1E+10	1	-1E+10	1
4902549	43	C	10/16/2021	07:05	-131.808	47.069	0	1635.60	0	2.2890	0	34.5340	0	27.584	0	1615.680	0	29.4	4	8.9	4	-1E+10	1	-1E+10	1	-1E+10	1	-1E+10	1	-1E+10	1	-1E+10	1
4902549	43	C	10/16/2021	07:05	-131.808	47.069	0	1645.40	0	2.2720	0	34.5360	0	27.587	0	1625.323	0	30.1	4	9.1	4	-1E+10	1	-1E+10	1	-1E+10	1	-1E+10	1	-1E+10	1	-1E+10	1
4902549	43	C	10/16/2021	07:05	-131.808	47.069	0	1655.40	0	2.2490	0	34.5390	0	27.591	0	1635.162	0	30.8	4	9.4	4	-1E+10	1	-1E+10	1	-1E+10	1	-1E+10	1	-1E+10	1	-1E+10	1
4902549	43	C	10/16/2021	07:05	-131.808	47.069	0	1665.30	0	2.2380	0	34.5400	0	27.593	0	1644.903	0	31.2	4	9.5	4	-1E+10	1	-1E+10	1	-1E+10	1	-1E+10	1	-1E+10	1	-1E+10	1
4902549	43	C	10/16/2021	07:05	-131.808	47.069	0	1675.30	0	2.2290	0	34.5410	0	27.595	0	1654.741	0	31.8	4	9.6	4	-1E+10	1	-1E+10	1	-1E+10	1	-1E+10	1	-1E+10	1	-1E+10	1
4902549	43	C	10/16/2021	07:05	-131.808	47.069	0	1685.20	0	2.2140	0	34.5430	0	27.598	0	1664.481	0	32.2	4	9.8	4	-1E+10	1	-1E+10	1	-1E+10	1	-1E+10	1	-1E+10	1	-1E+10	1
4902549	43	C	10/16/2021	07:05	-131.808	47.069	0	1695.40	0	2.1990	0	34.5430	0	27.599	0	1674.515	0	32.4	4	9.8	4	-1E+10	1	-1E+10	1	-1E+10	1	-1E+10	1	-1E+10	1	-1E+10	1
4902549	43	C	10/16/2021	07:05	-131.808	47.069	0	1705.40	0	2.1860	0	34.5440	0	27.601	0	1684.352	0	32.8	4	9.9	4	-1E+10	1	-1E+10	1	-1E+10	1	-1E+10	1	-1E+10	1	-1E+10	1
4902549	43	C	10/16/2021	07:05	-131.808	47.069	0	1715.20	0	2.1640	0	34.5450	0	27.603	0	1693.992	0	33.2	4	10.1	4	-1E+10	1	-1E+10	1	-1E+10	1	-1E+10	1	-1E+10	1	-1E+10	1
4902549	43	C	10/16/2021	07:05	-131.808	47.069	0	1725.30	0	2.1550	0	34.5460	0	27.605	0	1703.927	0	33.7	4	10.2	4	-1E+10	1	-1E+10	1	-1E+10	1	-1E+10	1	-1E+10	1	-1E+10	1
4902549	43	C	10/16/2021	07:05	-131.808	47.069	0	1735.20	0	2.1470	0	34.5470	0	27.606	0	1713.664	0	34.3	4	10.4	4	-1E+10	1	-1E+10	1	-1E+10	1	-1E+10	1	-1E+10	1	-1E+10	1
4902549	43	C	10/16/2021	07:05	-131.808	47.069	0	1745.20	0	2.1370	0	34.5490	0	27.609	0	1723.500	0	35.0	4	10.6	4	-1E+10	1	-1E+10	1	-1E+10	1	-1E+10	1	-1E+10	1	-1E+10	1
4902549	43	C	10/16/2021	07:05	-131.808	47.069	0	1755.40	0	2.1290	0	34.5510	0	27.611	0	1733.531	0	35.8	4	10.8	4	-1E+10	1	-1E+10	1	-1E+10	1	-1E+10	1	-1E+10	1	-1E+10	1
4902549	43	C	10/16/2021	07:05	-131.808	47.069	0	1765.60	0	2.1250	0	34.5530	0	27.613	0	1743.562	0	36.4	4	11.0	4	-1E+10	1	-1E+10	1	-1E+10	1	-1E+10	1	-1E+10	1	-1E+10	1
4902549	43	C	10/16/2021	07:05	-131.808	47.069	0	1775.40	0	2.1070	0	34.5540	0	27.615	0	1753.199	0	37.0	4	11.2	4	-1E+10	1	-1E+10	1	-1E+10	1	-1E+10	1	-1E+10	1	-1E+10	1
4902549	43	C	10/16/2021	07:05	-131.808	47.069	0	1785.30	0	2.0980	0	34.5550	0	27.617	0	1762.935	0	37.7	4	11.4	4	-1E+10	1	-1E+10	1	-1E+10	1	-1E+10	1	-1E+10	1	-1E+10	1
4902549	43	C	10/16/2021	07:05	-131.808	47.069	0	1795.30	0	2.0890	0	34.5570	0	27.619	0	1772.768	0	38.7	4	11.7	4	-1E+10	1	-1E+10	1	-1E+10	1	-1E+10	1	-1E+10	1	-1E+10	1
4902549	43	C	10/16/2021	07:05	-131.808	47.069	0	1805.30	0	2.0850	0	34.5610	0	27.623	0	1782.600	0	39.7	4	12.0	4	-1E+10	1	-1E+10	1	-1E+10	1	-1E+10	1	-1E+10	1	-1E+10	1
4902549	43	C	10/16/2021	07:05	-131.808	47.069	0	1815.30	0	2.0760	0	34.5630	0	27.625	0	1792.432	0	40.3	4	12.2	4	-1E+10	1	-1E+10	1	-1E+10	1	-1E+10	1	-1E+10	1	-1E+10	1
4902549	43	C	10/16/2021	07:05	-131.808	47.069	0	1825.40	0	2.0660	0	34.5640	0	27.627	0	1802.362	0	40.8	4	12.3	4	-1E+10	1	-1E+10	1	-1E+10	1	-1E+10	1	-1E+10	1	-1E+10	1
4902549	43	C	10/16/2021	07:05	-131.808	47.069	0	1835.50	0	2.0590	0	34.5650	0	27.628	0	1812.292	0	41.4	4	12.5	4	-1E+10	1	-1E+10	1	-1E+10	1	-1E+10	1	-1E+10	1	-1E+10	1
4902549	43	C	10/16/2021	07:05	-131.808	47.069	0	1845.10	0	2.0520	0	34.5670	0	27.630	0	1821.729	0	41.9	4	12.6	4	-1E+10	1	-1E+10	1	-1E+10	1	-1E+10	1	-1E+10	1	-1E+10	1
4902549	43	C	10/16/2021	07:05	-131.808	47.069	0	1855.30	0	2.0450	0	34.5680	0	27.632	0	1831.756	0	42.5	4	12.8	4	-1E+10	1	-1E+10	1	-1E+10	1	-1E+10	1	-1E+10	1	-1E+10	1
4902549	43	C	10/16/2021	07:05	-131.808	47.069	0	1865.50	0	2.0350	0	34.5700	0	27.634	0	1841.782	0	43.1	4	13.0	4	-1E+10	1	-1E+10	1	-1E+10	1	-1E+10	1	-1E+10	1	-1E+10	1
4902549	43	C	10/16/2021	07:05	-131.808	47.069	0	1875.60	0	2.0290	0	34.5710	0	27.636	0	1851.710	0	43.7	4	13.2	4	-1E+10	1	-1E+10	1	-1E+10	1	-1E+10	1	-1E+10	1	-1E+10	1
4902549	43	C	10/16/2021	07:05	-131.808	47.069	0	1885.40	0	2.0200	0	34.5720	0	27.637	0	1861.342	0	44.4	4	13.4	4	-1E+10	1	-1E+10	1	-1E+10	1	-1E+10	1	-1E+10	1	-1E+10	1
4902549	43	C	10/16/2021	07:05	-131.808	47.069	0	1895.40	0	2.0100	0	34.5740	0	27.640	0	1871.171	0	45.1	4	13.6	4	-1E+10	1	-1E+10	1	-1E+10	1	-1E+10	1	-1E+10	1	-1E+10	1
4902549	43	C	10/16/2021	07:05	-131.808	47.069	0	1905.60	0	1.9990	0	34.5750	0	27.641	0	1881.195	0	45.6	4	13.8	4	-1E+10	1	-1E+10	1	-1E+10	1	-1E+10	1	-1E+10	1	-1E+10	1
4902549	43	C	10/16/2021	07:05	-131.808	47.069	0	1915.50	0	1.9940	0	34.5760	0	27.643	0	1890.925	0	46.2	4	13.9	4	-1E+10	1	-1E+10	1	-1E+10	1	-1E+10	1	-1E+10	1	-1E+10	1
4902549	43	C	10/16/2021	07:05	-131.808	47.069	0	1925.60	0	1.9870	0	34.5780	0	27.645	0	1900.850	0	46.7	4	14.1	4	-1E+10	1	-1E+10	1	-1E+10	1	-1E+10	1	-1E+10	1	-1E+10	1
4902549	43	C	10/16/2021	07:05	-131.808	47.069	0	1935.40	0	1.9820	0	34.5790	0	27.646	0	1910.480	0	47.1	4	14.2	4	-1E+10	1	-1E+10	1	-1E+10	1	-1E+10	1	-1E+10	1	-1E+10	1
4902549	43	C	10/16/2021	07:05	-131.808	47.069	0	1945.30	0	1.9740	0	34.5790	0	27.647	0	1920.208	0	47.5	4	14.3	4	-1E+10	1	-1E+10	1	-1E+10	1	-1E+10	1	-1E+10	1	-1E+10	1
4902549	43	C	10/16/2021	07:05	-131.808	47.069	0	1955.40	0	1.9660	0	34.5810	0	27.649	0	1930.132	0	48.0	4	14.5	4	-1E+10	1	-1E+10	1	-1E+10	1	-1E+10	1	-1E+10	1	-1E+10	1
4902549	43	C	10/16/2021	07:05	-131.808	47.069	0	1965.50	0	1.9580	0	34.5820	0	27.650	0	1940.056	0	48.4	4	14.6	4	-1E+10	1	-1E+10	1	-1E+10	1	-1E+10	1	-1E+10	1	-1E+10	1
4902549	43	C	10/16/2021	07:05	-131.808	47.069	0	1975.60	0	1.9530	0	34.5830	0	27.652	0	1949.979	0	48.6	4	14.6	4	-1E+10	1	-1E+10	1	-1E+10	1	-1E+10	1	-1E+10	1	-1E+10	1
4902549	43	C	10/16/2021	07:05	-131.808	47.069	0	1983.70	0	1.9500	0	34.5840	0	27.653	0	1957.936	0	48.2	4	14.5	4	-1E+10	1	-1E+10	1	-1E+10	1	-1E+10	1	-1E+10	1	-1E+10	1
4902549	43	C	10/16/2021	07:05	-131.808	47.069	0																										
4902549	44	C	10/26/2021	11:55	-131.748	47.109	0	0.40	0	12.4680	0	32.2750	0	24.386	0	0.397	0	247.7	4	93.2	4	-1E+10	1	-1E+10	1	-1E+10	1	-1E+10	1	-1E+10	1	-1E+10	1
4902549	44	C	10/26/2021	11:55	-131.748	47.109	0	1.20	0	12.4680	0	32.2760	0	24.387	0	1.190	0	247.6	4	93.1	4	-1E+10	1	-1E+10	1	-1E+10	1	-1E+10	1	-1E+10	1	-1E+10	1
4902549	44	C	10/26/2021	11:55	-131.748	47.109	0	1.80	0	12.4680	0	32.2750	0	24.386	0	1.785	0	247.5	4	93.1	4	-1E+10	1	-1E+10	1	-1E+10	1	-1E+10	1	-1E+10	1	-1E+10	1
4902549	44	C	10/26/2021	11:55	-131.748	47.109	0	2.80	0	12.4680	0	32.2750	0	24.386	0	2.777	0	247.5	4	93.1	4	-1E+10	1	-1E+10	1	-1E+10	1	-1E+10	1	-1E+10	1	-1E+10	1
4902549	44	C	10/26/2021	11:55	-131.748	47.109	0	4.00	0	12.4680	0	32.2760	0	24.387	0	3.967	0	247.5	4	93.1	4	-1E+10	1	-1E+10	1	-1E+10	1	-1E+10	1	-1E+10	1	-1E+10	1
4902549	44	C	10/26/2021	11:55	-131.748	47.109	0	4.90	0	12.4680	0	32.2770	0	24.388	0	4.859	0	247.4	4	93.1	4	-1E+10	1	-1E+10	1	-1E+10	1	-1E+10	1	-1E+10	1	-1E+10	1
4902549	44	C	10/26/2021	11:55	-131.748	47.109	0	5.90	0	12.4680	0	32.2770	0	24.388	0	5.851	0	247.5	4	93.1	4	-1E+10	1	-1E+10	1	-1E+10	1	-1E+10	1	-1E+10	1	-1E+10	1
4902549	44	C	10/26/2021	11:55	-131.748	47.109	0	7.00	0	12.4680	0	32.2770	0	24.388	0	6.942	0	247.4	4	93.1	4	-1E+10	1	-1E+10	1	-1E+10	1	-1E+10	1	-1E+10	1	-1E+10	1
4902549	44	C	10/26/2021	11:55	-131.748	47.109	0	8.00	0	12.4680	0	32.2770	0	24.388	0	7.933	0	247.4	4	93.1	4	-1E+10	1	-1E+10	1	-1E+10	1	-1E+10	1	-1E+10	1	-1E+10	1
4902549	44	C	10/26/2021	11:55	-131.748	47.109	0	9.10	0	12.4680	0	32.2770	0	24.388	0	9.024	0	247.4	4	93.1	4	-1E+10	1	-1E+10	1	-1E+10	1	-1E+10	1	-1E+10	1	-1E+10	1
4902549	44	C	10/26/2021	11:55	-131.748	47.109	0	9.90	0	12.4690	0	32.2770	0	24.388	0	9.817	0	247.3	4	93.0	4	-1E+10	1	-1E+10	1	-1E+10	1	-1E+10	1	-1E+10	1	-1E+10	1
4902549	44	C	10/26/2021	11:55	-131.748	47.109	0	11.00	0	12.4680	0	32.2770	0	24.388	0	10.908	0	247.4	4	93.1	4	-1E+10	1	-1E+10	1	-1E+10	1	-1E+10	1	-1E+10	1	-1E+10	1
4902549	44	C	10/26/2021	11:55	-131.748	47.109	0	12.10	0	12.4690	0	32.2770	0	24.388	0	11.999	0	247.4	4	93.1	4	-1E+10	1	-1E+10	1	-1E+10	1	-1E+10	1	-1E+10	1	-1E+10	1
4902549	44	C	10/26/2021	11:55	-131.748	47.109	0	12.90	0	12.4700	0	32.2770	0	24.387	0	12.792	0	247.4	4	93.1	4	-1E+10	1	-1E+10	1	-1E+10	1	-1E+10	1	-1E+10	1	-1E+10	1
4902549	44	C	10/26/2021	11:55	-131.748	47.109	0	13.80	0	12.4680	0	32.2770	0	24.388	0	13.685	0	247.3	4	93.1	4	-1E+10	1	-1E+10	1	-1E+10	1	-1E+10	1	-1E+10	1	-1E+10	1
4902549	44	C	10/26/2021	11:55	-131.748	47.109	0	14.60	0	12.4680	0	32.2770	0	24.388	0	14.478	0	247.4	4	93.1	4	-1E+10	1	-1E+10	1	-1E+10	1	-1E+10	1	-1E+10	1	-1E+10	1
4902549	44	C	10/26/2021	11:55	-131.748	47.109	0	15.90	0	12.4690	0	32.2770	0	24.388	0	15.767	0	247.4	4	93.1	4	-1E+10	1	-1E+10	1	-1E+10	1	-1E+10	1	-1E+10	1	-1E+10	1
4902549	44	C	10/26/2021	11:55	-131.748	47.109	0	17.20	0	12.4700	0	32.2770	0	24.388	0	17.056	0	247.3	4	93.0	4	-1E+10	1	-1E+10	1	-1E+10	1	-1E+10	1	-1E+10	1	-1E+10	1
4902549	44	C	10/26/2021	11:55	-131.748	47.109	0	18.00	0	12.4690	0	32.2770	0	24.388	0	17.850	0	247.2	4	93.0	4	-1E+10	1	-1E+10	1	-1E+10	1	-1E+10	1	-1E+10	1	-1E+10	1
4902549	44	C	10/26/2021	11:55	-131.748	47.109	0	18.80	0	12.4700	0	32.2770	0	24.388	0	18.643	0	247.3	4	93.1	4	-1E+10	1	-1E+10	1	-1E+10	1	-1E+10	1	-1E+10	1	-1E+10	1
4902549	44	C	10/26/2021	11:55	-131.748	47.109	0	19.70	0	12.4700	0	32.2770	0	24.388	0	19.535	0	247.2	4	93.0	4	-1E+10	1	-1E+10	1	-1E+10	1	-1E+10	1	-1E+10	1	-1E+10	1
4902549	44	C	10/26/2021	11:55	-131.748	47.109	0	20.90	0	12.4690	0	32.2770	0	24.388	0	20.725	0	247.3	4	93.1	4	-1E+10	1	-1E+10	1	-1E+10	1	-1E+10	1	-1E+10	1	-1E+10	1
4902549	44	C	10/26/2021	11:55	-131.748	47.109	0	22.30	0	12.4690	0	32.2770	0	24.388	0	22.113	0	247.3	4	93.0	4	-1E+10	1	-1E+10	1	-1E+10	1	-1E+10	1	-1E+10	1	-1E+10	1
4902549	44	C	10/26/2021	11:55	-131.748	47.109	0	23.10	0	12.4700	0	32.2770	0	24.388	0	22.907	0	247.3	4	93.0	4	-1E+10	1	-1E+10	1	-1E+10	1	-1E+10	1	-1E+10	1	-1E+10	1
4902549	44	C	10/26/2021	11:55	-131.748	47.109	0	24.00	0	12.4690	0	32.2770	0	24.388	0	23.799	0	247.3	4	93.0	4	-1E+10	1	-1E+10	1	-1E+10	1	-1E+10	1	-1E+10	1	-1E+10	1
4902549	44	C	10/26/2021	11:55	-131.748	47.109	0	24.90	0	12.4710	0	32.2770	0	24.388	0	24.692	0	247.3	4	93.1	4	-1E+10	1	-1E+10	1	-1E+10	1	-1E+10	1	-1E+10	1	-1E+10	1
4902549	44	C	10/26/2021	11:55	-131.748	47.109	0	25.80	0	12.4720	0	32.2770	0	24.387	0	25.584	0	247.3	4	93.0	4	-1E+10	1	-1E+10	1	-1E+10	1	-1E+10	1	-1E+10	1	-1E+10	1
4902549	44	C	10/26/2021	11:55	-131.748	47.109	0	26.70	0	12.4720	0	32.2770	0	24.387	0	26.476	0	247.3	4	93.0	4	-1E+10	1	-1E+10	1	-1E+10	1	-1E+10	1	-1E+10	1	-1E+10	1
4902549	44	C	10/26/2021	11:55	-131.748	47.109	0	27.60	0	12.4730	0	32.2770	0	24.387	0	27.369	0	247.2	4	93.0	4	-1E+10	1	-1E+10	1	-1E+10	1	-1E+10	1	-1E+10	1	-1E+10	1
4902549	44	C	10/26/2021	11:55	-131.748	47.109	0	28.90	0	12.4730	0	32.2770	0	24.387	0	28.658	0	247.2	4	93.0	4	-1E+10	1	-1E+10	1	-1E+10	1	-1E+10	1	-1E+10	1	-1E+10	1
4902549	44	C	10/26/2021	11:55	-131.748	47.109	0	30.30	0	12.4730	0	32.2770	0	24.387	0	30.046	0	247.2	4	93.0	4	-1E+10	1	-1E+10	1	-1E+10	1	-1E+10	1	-1E+10	1	-1E+10	1
4902549	44	C	10/26/2021	11:55	-131.748	47.109	0	31.30	0	12.4730	0	32.2770	0	24.387	0	31.038	0	247.1	4	93.0	4	-1E+10	1	-1E+10	1	-1E+10	1	-1E+10	1	-1E+10	1	-1E+10	1
4902549	44	C	10/26/2021	11:55	-131.748	47.109	0	32.10	0	12.4730	0	32.2770	0	24.387	0	31.831	0	247.2	4	93.0	4	-1E+10	1	-1E+10	1	-1E+10	1	-1E+10	1	-1E+10	1	-1E+10	1
4902549	44	C	10/26/2021	11:55	-131.748	47.109	0	32.90	0	12.4730	0	32.2770	0	24.387	0	32.624	0	247.1	4	93.0	4	-1E+10	1	-1E+10	1	-1E+10	1	-1E+10	1	-1E+10	1	-1E+10	1
4902549	44	C	10/26/2021	11:55	-131.748	47.109	0	33.80	0	12.4730	0	32.2770	0	24.387	0	33.516	0	247.2	4	93.0	4	-1E+10	1	-1E+10	1	-1E+10	1	-1E+10	1	-1E+10	1	-1E+10	1
4902549	44	C	10/26/2021	11:55	-131.748	47.109	0	34.70	0	12.4730	0	32.2770	0	24.387	0	34.409	0	247.2	4	93.0	4	-1E+10	1	-1E+10	1	-1E+10	1	-1E+10	1	-1E+10	1	-1E+10	1
4902549	44	C	10/26/2021	11:55	-131.748	47.109	0	35.90	0	12.4730	0	32.2770	0	24.387	0	35.599	0	247.1	4	93.0	4	-1E+10	1	-1E+10	1	-1E+10	1	-1E+10	1	-1E+10	1	-1E+10	1
4902549	44	C	10/26/2021	11:55	-131.748	47.109	0	37.10	0	12.4750	0	32.2770	0	24.387	0	36.788	0	247.1	4	93.0	4	-1E+10	1	-1E+10	1	-1E+10	1	-1E+10	1	-1E+10	1	-1E+10	1
4902549	44	C	10/26/2021	11:55	-131.748	47.109	0	37.90	0	12.4740	0	32.2770	0	24.387	0	37.582	0	247.2	4	93.0	4	-1E+10	1	-1E+10	1	-1E+10	1	-1E+10	1	-1E+10	1	-1E+10	1
4902549	44	C	10/26/2021	11:55	-131.748	47.109	0	39.00	0	12.4750	0	32.2770	0	24.387	0	38.672	0	247.1	4	93.0	4	-1E+10	1	-1E+10	1	-1E+10	1	-1E+10	1	-1E+10	1	-1E+10	1
4902549	44	C	10/26/2021	11:55	-131.748	47.109	0	40.20	0	12.4740	0	32.2770	0	24.387	0	39.862	0	247.1	4	93.0	4	-1E+10	1	-1E+10	1	-1E+10	1	-1E+10	1	-1E+10	1	-1E+10	1
4902549	44	C	10/26/2021	11:55	-131.748	47.109	0	40.90	0	12.4750	0	32.2760	0	24.386	0	40.556	0	247.1	4	93.0	4	-1E+10	1	-1E+10	1	-1E+10	1	-1E+10	1	-1E+10	1	-1E+10	1
4902549	44	C	10/26/2021	11:55	-131.748	47.109	0	41.80	0	12.4690	0	32.2770	0	24.388	0	41.448	0	247.2	4	93.0	4	-1E+10	1	-1E+10	1	-1E+10	1	-1E+10	1	-1E+10	1	-1E+10	1
4902549	44	C	10/26/2021	11:55	-131.748	47.109	0	43.10	0	12.4700	0	32.2770	0	24.388	0	42.737	0	247.1	4	93.0	4	-1E+10	1	-1E+10	1	-1E+10	1	-1E+10	1	-1E+10	1	-1E+10	1
4902549	44	C	10/26/2021	11:55	-131.748	47.109	0	44.00	0	12.4700	0	32.2760	0	24.387	0	43.630	0	247.2	4	93.0	4	-1E+10	1	-1E+10	1	-1E+10	1	-1E+10	1	-1E+10	1	-1E+10	1
4902549	44	C	10/26/2021	11:55	-131.748	47.109	0	44.90	0	12.4690	0	32.2770	0	24.388	0	44.522	0	247.2	4	93.0	4	-1E+10	1	-1E+10	1	-1E+10	1	-1E+10	1	-1E+10	1	-1E+10	1
4902549	44	C	10/26/2021	11:55	-131.748	47.109	0	46.00	0	12.4660	0	32.2770	0	24.389	0	45.613	0	247.3	4	93.0	4	-1E+10	1	-1E+10	1	-1E+10	1	-1E+10	1	-1E+10	1	-1E+10	1
4902549	44	C	10/26/2021	11:55	-131.748	47.109	0	47.10	0	12.4640	0	32.2770	0	24.389	0	46.703	0	247.2	4	93.0	4	-1E+10	1	-1E+10	1	-1E+10	1	-1E+10	1	-1E+10	1	-1E+10	1
4902549	44	C	10/26/2021	11:55	-131.748	47.109	0	48.10	0	12.4600	0	32.2770	0	24.390	0	47.695	0	247.4	4	93.1	4	-1E+10	1	-1E+10	1	-1E+10	1	-1E+10	1	-1E+10	1	-1E+10	1
4902549	44	C	10/26/2021	11:55	-131.748	47.109	0	49.00	0	12.4630	0	32.2770	0	24.390	0	48.587	0	247.4	4	93.1	4	-1E+10	1	-1E+10	1	-1E+10	1	-1E+10	1	-1E+10	1	-1E+10	1
4902549	44	C	10/26/2021	11:55	-131.748	47.109	0	49.90	0	12.4600	0	32.2760	0	24.389	0	49.479	0	247.4	4	93.1	4	-1E+10	1	-1E+10	1	-1E+10	1	-1E+10	1	-1E+10	1	-1E+10	1
4902549	44	C	10/26/2021	11:55	-131.748	47.109	0	51.20	0	12.4370	0	32.2690	0	24.388	0	50.768	0	247.7	4	93.2	4	-1E+10	1	-1E+10	1	-1E+10	1	-1E+10	1	-1E+10	1	-1E+10	1
4902549	44	C	10/26/2021	11:55	-131.748	47.109	0	52.00	0	12.3240	0	32.2760	0	24.415	0	51.561	0	247.9	4	93.0	4	-1E+10	1	-1E+10	1	-1E+10	1	-1E+10	1	-1E+10	1	-1E+10	1
4902549	44	C	10/26/2021	11:55	-131.748	47.109	0	53.10	0	11.7060	0	32.3060	0	24.553	0	52.652	0	251.0	4	93.0	4	-1E+10	1	-1E+10	1	-1E+10	1	-1E+10	1	-1E+10	1	-1E+10	1
4902549	44	C	10/26/2021	11:55	-131.748	47.109	0	54.10	0	11.0430	0	32.3380	0	24.697	0	53.643	0	254.0	4	92.8	4	-1E+10	1	-1E+10	1	-1E+10	1	-1E+10	1	-1E+10	1	-1E+10	1
4902549	44	C	10/26/2021	11:55	-131.748	47.109	0	55.00	0	10.5240	0	32.3470	0	24.794	0	54.536	0	256.1	4	92.5	4	-1E+10	1	-1E+10	1	-1E+10	1	-1E+10	1	-1E+10	1	-1E+10	1
4902549	44	C	10/26/2021	11:55	-131.748	47.109	0	55.90	0	9.8840	0	32.3930	0	24.937	0	55.428	0	258.4	4	92.1	4	-1E+10	1	-1E+10	1	-1E+10	1	-1E+10	1	-1E+10	1	-1E+10	1
4902549	44	C	10/26/2021	11:55	-131.748	47.109	0	56.90	0	9.1110	0	32.4530	0	25.108	0	56.419	0	260.4	4	91.3	4	-1E+10	1	-1E+10	1	-1E+10	1	-1E+10	1	-1E+10	1	-1E+10	1
4902549	44	C	10/26/2021	11:55	-131.748	47.109	0	58.00	0	8.9010	0	32.4550	0	25.142	0	57.510	0	261.1	4	91.2	4	-1E+10	1	-1E+10	1	-1E+10	1	-1E+10	1	-1E+10	1	-1E+10	1
4902549	44	C	10/26/2021	11:55	-131.748	47.109	0	59.10	0	8.7980	0	32.4640	0	25.165	0	58.600	0	261.2	4	91.0	4	-1E+10	1	-1E+10	1	-1E+10	1	-1E+10	1	-1E+10	1	-1E+10	1
4902549	44	C	10/26/2021	11:55	-131.748	47.109	0	60.10	0	8.6750	0	32.4750	0	25.193	0	59.592	0	261.4	4	90.8	4	-1E+10	1	-1E+10	1	-1E+10	1	-1E+10	1	-1E+10	1	-1E+10	1
4902549	44	C	10/26/2021	11:55	-131.748	47.109	0	61.00	0	8.5800	0	32.4780	0	25.209	0	60.484	0	261.6	4	90.7	4	-1E+10	1	-1E+10	1	-1E+10	1	-1E+10	1	-1E+10	1	-1E+10	1
4902549	44	C	10/26/2021	11:55	-131.748	47.109	0	62.00	0	8.5360	0	32.4790	0	25.217	0	61.476	0	261.4	4	90.5	4	-1E+10	1	-1E+10	1	-1E+10	1	-1E+10	1	-1E+10	1	-1E+10	1
4902549	44	C	10/26/2021	11:55	-131.748	47.109	0	63.00	0	8.4680	0	32.4800	0	25.228	0	62.467	0	261.3	4	90.4	4	-1E+10	1	-1E+10	1	-1E+10	1	-1E+10	1	-1E+10	1	-1E+10	1
4902549	44	C	10/26/2021	11:55	-131.748	47.109	0	63.90	0	8.4150	0	32.4810	0	25.236	0	63.359	0	261.3	4	90.3	4	-1E+10	1	-1E+10	1	-1E+10	1	-1E+10	1	-1E+10	1	-1E+10	1
4902549	44	C	10/26/2021	11:55	-131.748	47.109	0	64.80	0	8.2810	0	32.4760	0	25.252	0	64.251	0	261.9	4	90.2	4	-1E+10	1	-1E+10	1	-1E+10	1	-1E+10	1	-1E+10	1	-1E+10	1
4902549	44	C	10/26/2021	11:55	-131.748	47.109	0	65.80	0	8.1710	0	32.4710	0	25.265	0	65.243	0	262.4	4	90.1	4	-1E+10	1	-1E+10	1	-1E+10	1	-1E+10	1	-1E+10	1	-1E+10	1
4902549	44	C	10/26/2021	11:55	-131.748	47.109	0	66.90	0	8.0680	0	32.4770	0	25.284	0	66.333	0	262.9	4	90.1	4	-1E+10	1	-1E+10	1	-1E+10	1	-1E+10	1	-1E+10	1	-1E+10	1
4902549	44	C	10/26/2021	11:55	-131.748	47.109	0	67.90	0	8.0320	0	32.4620	0	25.278	0	67.325	0	263.2	4	90.1	4	-1E+10	1	-1E+10	1	-1E+10	1	-1E+10	1	-1E+10	1	-1E+10	1
4902549	44	C	10/26/2021	11:55	-131.748	47.109	0	69.00	0	7.9660	0	32.4620	0	25.287	0	68.415	0	263.7	4	90.1	4	-1E+10	1	-1E+10	1	-1E+10	1	-1E+10	1	-1E+10	1	-1E+10	1
4902549	44	C	10/26/2021	11:55	-131.748	47.109	0	70.10	0	7.8530	0	32.4490	0	25.293	0	69.506	0	264.2	4	90.1	4	-1E+10	1	-1E+10	1	-1E+10	1	-1E+10	1	-1E+10	1	-1E+10	1
4902549	44	C	10/26/2021	11:55	-131.748	47.109	0	71.30	0	7.6780	0	32.4300	0	25.303	0	70.695	0	264.9	4	90.0	4	-1E+10	1	-1E+10	1	-1E+10	1	-1E+10	1	-1E+10	1	-1E+10	1
4902549	44	C	10/26/2021	11:55	-131.748	47.109	0	72.10	0	7.6270	0	32.4300	0	25.310	0	71.488	0	265.1	4	89.9	4	-1E+10	1	-1E+10	1	-1E+10	1	-1E+10	1	-1E+10	1	-1E+10	1
4902549	44	C	10/26/2021	11:55	-131.748	47.109	0	73.00	0	7.6020	0	32.4280	0	25.312	0	72.381	0	265.1	4	89.9	4	-1E+10	1	-1E+10	1	-1E+10	1	-1E+10	1	-1E+10	1	-1E+10	1
4902549	44	C	10/26/2021	11:55	-131.748	47.109	0	74.00	0	7.5890	0	32.4280	0	25.314	0	73.372	0	265.1	4	89.8	4	-1E+10	1	-1E+10	1	-1E+10	1	-1E+10	1	-1E+10	1	-1E+10	1
4902549	44	C	10/26/2021	11:55	-131.748	47.109	0	75.00	0	7.5790	0	32.4280	0	25.315	0	74.363	0	264.9	4	89.8	4	-1E+10	1	-1E+10	1	-1E+10	1	-1E+10	1	-1E+10	1	-1E+10	1
4902549	44	C	10/26/2021	11:55	-131.748	47.109	0	76.00	0	7.5690	0	32.4280	0	25.317	0	75.355	0	264.8	4	89.7	4	-1E+10	1	-1E+10	1	-1E+10	1	-1E+10	1	-1E+10	1	-1E+10	1
4902549	44	C	10/26/2021	11:55	-131.748	47.109	0	77.00	0	7.5570	0	32.4280	0	25.319	0	76.346	0	264.7	4	89.6	4	-1E+10	1	-1E+10	1	-1E+10	1	-1E+10	1	-1E+10	1	-1E+10	1
4902549	44	C	10/26/2021	11:55	-131.748	47.109	0	78.00	0	7.5340	0	32.4290	0	25.323	0	77.337	0	264.7	4	89.6	4	-1E+10	1	-1E+10	1	-1E+10	1	-1E+10	1	-1E+10	1	-1E+10	1
4902549	44	C	10/26/2021	11:55	-131.748	47.109	0	79.20	0	7.5040	0	32.4310	0	25.328	0	78.527	0	264.6	4	89.5	4	-1E+10	1	-1E+10	1	-1E+10	1	-1E+10	1	-1E+10	1	-1E+10	1
4902549	44	C	10/26/2021	11:55	-131.748	47.109	0	79.90	0	7.4930	0	32.4310	0	25.330	0	79.221	0	264.5	4	89.5	4	-1E+10	1	-1E+10	1	-1E+10	1	-1E+10	1	-1E+10	1	-1E+10	1
4902549	44	C	10/26/2021	11:55	-131.748	47.109	0	80.90	0	7.4740	0	32.4310	0	25.332	0	80.212	0	264.4	4	89.4	4	-1E+10	1	-1E+10	1	-1E+10	1	-1E+10	1	-1E+10	1	-1E+10	1
4902549	44	C	10/26/2021	11:55	-131.748	47.109	0	81.80	0	7.4110	0	32.4470	0	25.354	0	81.104	0	264.4	4	89.2	4	-1E+10	1	-1E+10	1	-1E+10	1	-1E+10	1	-1E+10	1	-1E+10	1
4902549	44	C	10/26/2021	11:55	-131.748	47.109	0	82.90	0	7.3810	0	32.4380	0	25.351	0	82.195	0	264.3	4	89.2	4	-1E+10	1	-1E+10	1	-1E+10	1	-1E+10	1	-1E+10	1	-1E+10	1
4902549	44	C	10/26/2021	11:55	-131.748	47.109	0	84.10	0	7.3730	0	32.4380	0	25.352	0	83.384	0	263.9	4	89.0	4	-1E+10	1	-1E+10	1	-1E+10	1	-1E+10	1	-1E+10	1	-1E+10	1
4902549	44	C	10/26/2021	11:55	-131.748	47.109	0	84.80	0	7.3720	0	32.4380	0	25.352	0	84.078	0	263.7	4	88.9	4	-1E+10	1	-1E+10	1	-1E+10	1	-1E+10	1	-1E+10	1	-1E+10	1
4902549	44	C	10/26/2021	11:55	-131.748	47.109	0	85.80	0	7.3680	0	32.4380	0	25.353	0	85.069	0	263.3	4	88.8	4	-1E+10	1	-1E+10	1	-1E+10	1	-1E+10	1	-1E+10	1	-1E+10	1
4902549	44	C	10/26/2021	11:55	-131.748	47.109	0	87.00	0	7.3140	0	32.4410	0	25.362	0	86.259	0	263.0	4	88.6	4	-1E+10	1	-1E+10	1	-1E+10	1	-1E+10	1	-1E+10	1	-1E+10	1
4902549	44	C	10/26/2021	11:55	-131.748	47.109	0	87.70	0	7.3100	0	32.4410	0	25.363	0	86.953	0	262.7	4	88.5	4	-1E+10	1	-1E+10	1	-1E+10	1	-1E+10	1	-1E+10	1	-1E+10	1
4902549	44	C	10/26/2021	11:55	-131.748	47.109	0	88.70	0	7.2840	0	32.4430	0	25.368	0	87.944	0	262.2	4	88.3	4	-1E+10	1	-1E+10	1	-1E+10	1	-1E+10	1	-1E+10	1	-1E+10	1
4902549	44	C	10/26/2021	11:55	-131.748	47.109	0	89.70	0	7.2700	0	32.4410	0	25.368	0	88.935	0	261.5	4	88.0	4	-1E+10	1	-1E+10	1	-1E+10	1	-1E+10	1	-1E+10	1	-1E+10	1
4902549	44	C	10/26/2021	11:55	-131.748	47.109	0	90.90	0	7.2010	0	32.4490	0	25.384	0	90.125	0	260.8	4	87.6	4	-1E+10	1	-1E+10	1	-1E+10	1	-1E+10	1	-1E+10	1	-1E+10	1
4902549	44	C	10/26/2021	11:55	-131.748	47.109	0	92.10	0	7.1900	0	32.4500	0	25.386	0	91.314	0	259.6	4	87.2	4	-1E+10	1	-1E+10	1	-1E+10	1	-1E+10	1	-1E+10	1	-1E+10	1
4902549	44	C	10/26/2021	11:55	-131.748	47.109	0	93.10	0	7.1490	0	32.4610	0	25.401	0	92.305	0	258.6	4	86.8	4	-1E+10	1	-1E+10	1	-1E+10	1	-1E+10	1	-1E+10	1	-1E+10	1
4902549	44	C	10/26/2021	11:55	-131.748	47.109	0	94.10	0	7.1050	0	32.4610	0	25.406	0	93.297	0	257.4	4	86.3	4	-1E+10	1	-1E+10	1	-1E+10	1	-1E+10	1	-1E+10	1	-1E+10	1
4902549	44	C	10/26/2021	11:55	-131.748	47.109	0	95.10	0	7.0680	0	32.4690	0	25.418	0	94.288	0	255.8	4	85.7	4	-1E+10	1	-1E+10	1	-1E+10	1	-1E+10	1	-1E+10	1	-1E+10	1
4902549	44	C	10/26/2021	11:55	-131.748	47.109	0	96.10	0	7.0940	0	32.4850	0	25.427	0	95.279	0	253.7	4	85.0	4	-1E+10	1	-1E+10	1	-1E+10	1	-1E+10	1	-1E+10	1	-1E+10	1
4902549	44	C	10/26/2021	11:55	-131.748	47.109	0	96.90	0	7.1790	0	32.5120	0	25.437	0	96.072	0	251.7	4	84.6	4	-1E+10	1	-1E+10	1	-1E+10	1	-1E+10	1	-1E+10	1	-1E+10	1
4902549	44	C	10/26/2021	11:55	-131.748	47.109	0	97.70	0	7.2150	0	32.5270	0	25.444	0	96.865	0	250.1	4	84.1	4	-1E+10	1	-1E+10	1	-1E+10	1	-1E+10	1	-1E+10	1	-1E+10	1
4902549	44	C	10/26/2021	11:55	-131.748	47.109	0	98.80	0	7.2870	0	32.5490	0	25.451	0	97.955	0	247.7	4	83.4	4	-1E+10	1	-1E+10	1	-1E+10	1	-1E+10	1	-1E+10	1	-1E+10	1
4902549	44	C	10/26/2021	11:55	-131.748	47.109	0	99.90	0	7.3260	0	32.5640	0	25.458	0	99.046	0	245.1	4	82.7	4	-1E+10	1	-1E+10	1	-1E+10	1	-1E+10	1	-1E+10	1	-1E+10	1
4902549	44	C	10/26/2021	11:55	-131.748	47.109	0	101.00	0	7.2110	0	32.5810	0	25.487	0	100.136	0	243.2	4	81.8	4	-1E+10	1	-1E+10	1	-1E+10	1	-1E+10	1	-1E+10	1	-1E+10	1
4902549	44	C	10/26/2021	11:55	-131.748	47.109	0	102.10	0	7.2440	0	32.6040	0	25.500	0	101.226	0	240.4	4	80.9	4	-1E+10	1	-1E+10	1	-1E+10	1	-1E+10	1	-1E+10	1	-1E+10	1
4902549	44	C	10/26/2021	11:55	-131.748	47.109	0	103.30	0	7.3620	0	32.6400	0	25.512	0	102.416	0	236.7	4	79.9	4	-1E+10	1	-1E+10	1	-1E+10	1	-1E+10	1	-1E+10	1	-1E+10	1
4902549	44	C	10/26/2021	11:55	-131.748	47.109	0	104.00	0	7.4110	0	32.6680	0	25.528	0	103.110	0	233.6	4	79.0	4	-1E+10	1	-1E+10	1	-1E+10	1	-1E+10	1	-1E+10	1	-1E+10	1
4902549	44	C	10/26/2021	11:55	-131.748	47.109	0	105.10	0	7.5850	0	32.7380	0	25.559	0	104.200	0	228.4	4	77.6	4	-1E+10	1	-1E+10	1	-1E+10	1	-1E+10	1	-1E+10	1	-1E+10	1
4902549	44	C	10/26/2021	11:55	-131.748	47.109	0	106.10	0	7.7010	0	32.7910	0	25.584	0	105.191	0	225.8	4	76.9	4	-1E+10	1	-1E+10	1	-1E+10	1	-1E+10	1	-1E+10	1	-1E+10	1
4902549	44	C	10/26/2021	11:55	-131.748	47.109	0	106.80	0	7.6840	0	32.8070	0	25.599	0	105.885	0	224.2	4	76.4	4	-1E+10	1	-1E+10	1	-1E+10	1	-1E+10	1	-1E+10	1	-1E+10	1
4902549	44	C	10/26/2021	11:55	-131.748	47.109	0	107.90	0	7.6910	0	32.8320	0	25.618	0	106.975	0	221.5	4	75.5	4	-1E+10	1	-1E+10	1	-1E+10	1	-1E+10	1	-1E+10	1	-1E+10	1
4902549	44	C	10/26/2021	11:55	-131.748	47.109	0	109.10	0	7.6950	0	32.8630	0	25.641	0	108.165	0	218.3	4	74.4	4	-1E+10	1	-1E+10	1	-1E+10	1	-1E+10	1	-1E+10	1	-1E+10	1
4902549	44	C	10/26/2021	11:55	-131.748	47.109	0	110.00	0	7.7240	0	32.9210	0	25.683	0	109.057	0	216.3	4	73.8	4	-1E+10	1	-1E+10	1	-1E+10	1	-1E+10	1	-1E+10	1	-1E+10	1
4902549	44	C	10/26/2021	11:55	-131.748	47.109	0	110.80	0	7.7060	0	32.9510	0	25.709	0	109.850	0	215.0	4	73.4	4	-1E+10	1	-1E+10	1	-1E+10	1	-1E+10	1	-1E+10	1	-1E+10	1
4902549	44	C	10/26/2021	11:55	-131.748	47.109	0	111.80	0	7.7130	0	32.9880	0	25.737	0	110.841	0	213.2	4	72.8	4	-1E+10	1	-1E+10	1	-1E+10	1	-1E+10	1	-1E+10	1	-1E+10	1
4902549	44	C	10/26/2021	11:55	-131.748	47.109	0	112.90	0	7.7210	0	33.0110	0	25.754	0	111.931	0	211.5	4	72.2	4	-1E+10	1	-1E+10	1	-1E+10	1	-1E+10	1	-1E+10	1	-1E+10	1
4902549	44	C	10/26/2021	11:55	-131.748	47.109	0	114.00	0	7.7520	0	33.0570	0	25.786	0	113.021	0	209.9	4	71.7	4	-1E+10	1	-1E+10	1	-1E+10	1	-1E+10	1	-1E+10	1	-1E+10	1
4902549	44	C	10/26/2021	11:55	-131.748	47.109	0	115.10	0	7.7680	0	33.0810	0	25.802	0	114.112	0	208.6	4	71.3	4	-1E+10	1	-1E+10	1	-1E+10	1	-1E+10	1	-1E+10	1	-1E+10	1
4902549	44	C	10/26/2021	11:55	-131.748	47.109	0	116.00	0	7.7560	0	33.1010	0	25.820	0	115.004	0	207.7	4	71.0	4	-1E+10	1	-1E+10	1	-1E+10	1	-1E+10	1	-1E+10	1	-1E+10	1
4902549	44	C	10/26/2021	11:55	-131.748	47.109	0	116.80	0	7.7490	0	33.1050	0	25.824	0	115.797	0	206.6	4	70.6	4	-1E+10	1	-1E+10	1	-1E+10	1	-1E+10	1	-1E+10	1	-1E+10	1
4902549	44	C	10/26/2021	11:55	-131.748	47.109	0	118.00	0	7.7380	0	33.1170	0	25.835	0	116.986	0	205.2	4	70.1	4	-1E+10	1	-1E+10	1	-1E+10	1	-1E+10	1	-1E+10	1	-1E+10	1
4902549	44	C	10/26/2021	11:55	-131.748	47.109	0	119.00	0	7.7080	0	33.1580	0	25.871	0	117.977	0	204.1	4	69.7	4	-1E+10	1	-1E+10	1	-1E+10	1	-1E+10	1	-1E+10	1	-1E+10	1
4902549	44	C	10/26/2021	11:55	-131.748	47.109	0	119.90	0	7.6920	0	33.1890	0	25.898	0	118.869	0	203.2	4	69.4	4	-1E+10	1	-1E+10	1	-1E+10	1	-1E+10	1	-1E+10	1	-1E+10	1
4902549	44	C	10/26/2021	11:55	-131.748	47.109	0	120.80	0	7.6890	0	33.1950	0	25.903	0	119.761	0	202.1	4	69.1	4	-1E+10	1	-1E+10	1	-1E+10	1	-1E+10	1	-1E+10	1	-1E+10	1
4902549	44	C	10/26/2021	11:55	-131.748	47.109	0	121.80	0	7.6630	0	33.2520	0	25.952	0	120.752	0	201.4	4	68.8	4	-1E+10	1	-1E+10	1	-1E+10	1	-1E+10	1	-1E+10	1	-1E+10	1
4902549	44	C	10/26/2021	11:55	-131.748	47.109	0	123.00	0	7.6530	0	33.2700	0	25.967	0	121.941	0	200.2	4	68.4	4	-1E+10	1	-1E+10	1	-1E+10	1	-1E+10	1	-1E+10	1	-1E+10	1
4902549	44	C	10/26/2021	11:55	-131.748	47.109	0	124.00	0	7.6490	0	33.2760	0	25.973	0	122.933	0	199.4	4	68.1	4	-1E+10	1	-1E+10	1	-1E+10	1	-1E+10	1	-1E+10	1	-1E+10	1
4902549	44	C	10/26/2021	11:55	-131.748	47.109	0	125.00	0	7.6270	0	33.2950	0	25.991	0	123.924	0	198.6	4	67.8	4	-1E+10	1	-1E+10	1	-1E+10	1	-1E+10	1	-1E+10	1	-1E+10	1
4902549	44	C	10/26/2021	11:55	-131.748	47.109	0	126.10	0	7.6010	0	33.3100	0	26.006	0	125.014	0	197.7	4	67.5	4	-1E+10	1	-1E+10	1	-1E+10	1	-1E+10	1	-1E+10	1	-1E+10	1
4902549	44	C	10/26/2021	11:55	-131.748	47.109	0	126.80	0	7.5680	0	33.3300	0	26.027	0	125.708	0	197.2	4	67.3	4	-1E+10	1	-1E+10	1	-1E+10	1	-1E+10	1	-1E+10	1	-1E+10	1
4902549	44	C	10/26/2021	11:55	-131.748	47.109	0	127.80	0	7.5110	0	33.3530	0	26.053	0	126.699	0	196.5	4	66.9	4	-1E+10	1	-1E+10	1	-1E+10	1	-1E+10	1	-1E+10	1	-1E+10	1
4902549	44	C	10/26/2021	11:55	-131.748	47.109	0	128.90	0	7.4650	0	33.3670	0	26.070	0	127.789	0	195.8	4	66.6	4	-1E+10	1	-1E+10	1	-1E+10	1	-1E+10	1	-1E+10	1	-1E+10	1
4902549	44	C	10/26/2021	11:55	-131.748	47.109	0	129.90	0	7.4590	0	33.3980	0	26.095	0	128.780	0	195.1	4	66.4	4	-1E+10	1	-1E+10	1	-1E+10	1	-1E+10	1	-1E+10	1	-1E+10	1
4902549	44	C	10/26/2021	11:55	-131.748	47.109	0	131.00	0	7.4470	0	33.4160	0	26.111	0	129.870	0	194.3	4	66.1	4	-1E+10	1	-1E+10	1	-1E+10	1	-1E+10	1	-1E+10	1	-1E+10	1
4902549	44	C	10/26/2021	11:55	-131.748	47.109	0	131.80	0	7.4350	0	33.4230	0	26.119	0	130.663	0	193.7	4	65.9	4	-1E+10	1	-1E+10	1	-1E+10	1	-1E+10	1	-1E+10	1	-1E+10	1
4902549	44	C	10/26/2021	11:55	-131.748	47.109	0	132.80	0	7.4120	0	33.4530	0	26.145	0	131.654	0	192.9	4	65.6	4	-1E+10	1	-1E+10	1	-1E+10	1	-1E+10	1	-1E+10	1	-1E+10	1
4902549	44	C	10/26/2021	11:55	-131.748	47.109	0	133.90	0	7.4090	0	33.4700	0	26.159	0	132.744	0	192.1	4	65.3	4	-1E+10	1	-1E+10	1	-1E+10	1	-1E+10	1	-1E+10	1	-1E+10	1
4902549	44	C	10/26/2021	11:55	-131.748	47.109	0	134.70	0	7.4040	0	33.4760	0	26.165	0	133.537	0	191.6	4	65.1	4	-1E+10	1	-1E+10	1	-1E+10	1	-1E+10	1	-1E+10	1	-1E+10	1
4902549	44	C	10/26/2021	11:55	-131.748	47.109	0	135.90	0	7.4000	0	33.5090	0	26.191	0	134.726	0	190.8	4	64.9	4	-1E+10	1	-1E+10	1	-1E+10	1	-1E+10	1	-1E+10	1	-1E+10	1
4902549	44	C	10/26/2021	11:55	-131.748	47.109	0	137.10	0	7.3920	0	33.5390	0	26.216	0	135.916	0	190.1	4	64.7	4	-1E+10	1	-1E+10	1	-1E+10	1	-1E+10	1	-1E+10	1	-1E+10	1
4902549	44	C	10/26/2021	11:55	-131.748	47.109	0	137.90	0	7.3890	0	33.5490	0	26.224	0	136.708	0	189.8	4	64.6	4	-1E+10	1	-1E+10	1	-1E+10	1	-1E+10	1	-1E+10	1	-1E+10	1
4902549	44	C	10/26/2021	11:55	-131.748	47.109	0	138.70	0	7.3880	0	33.5550	0	26.229	0	137.501	0	189.4	4	64.4	4	-1E+10	1	-1E+10	1	-1E+10	1	-1E+10	1	-1E+10	1	-1E+10	1
4902549	44	C	10/26/2021	11:55	-131.748	47.109	0	140.00	0	7.3840	0	33.5690	0	26.241	0	138.789	0	188.8	4	64.2	4	-1E+10	1	-1E+10	1	-1E+10	1	-1E+10	1	-1E+10	1	-1E+10	1
4902549	44	C	10/26/2021	11:55	-131.748	47.109	0	141.30	0	7.3820	0	33.5840	0	26.253	0	140.078	0	188.3	4	64.1	4	-1E+10	1	-1E+10	1	-1E+10	1	-1E+10	1	-1E+10	1	-1E+10	1
4902549	44	C	10/26/2021	11:55	-131.748	47.109	0	142.10	0	7.3820	0	33.5850	0	26.254	0	140.871	0	187.9	4	63.9	4	-1E+10	1	-1E+10	1	-1E+10	1	-1E+10	1	-1E+10	1	-1E+10	1
4902549	44	C	10/26/2021	11:55	-131.748	47.109	0	143.00	0	7.3810	0	33.5880	0	26.256	0	141.763	0	187.4	4	63.7	4	-1E+10	1	-1E+10	1	-1E+10	1	-1E+10	1	-1E+10	1	-1E+10	1
4902549	44	C	10/26/2021	11:55	-131.748	47.109	0	143.80	0	7.3810	0	33.5890	0	26.257	0	142.555	0	186.9	4	63.6	4	-1E+10	1	-1E+10	1	-1E+10	1	-1E+10	1	-1E+10	1	-1E+10	1
4902549	44	C	10/26/2021	11:55	-131.748	47.109	0	144.70	0	7.3790	0	33.5970	0	26.263	0	143.447	0	186.5	4	63.4	4	-1E+10	1	-1E+10	1	-1E+10	1	-1E+10	1	-1E+10	1	-1E+10	1
4902549	44	C	10/26/2021	11:55	-131.748	47.109	0	145.60	0	7.3780	0	33.6040	0	26.269	0	144.339	0	186.0	4	63.3	4	-1E+10	1	-1E+10	1	-1E+10	1	-1E+10	1	-1E+10	1	-1E+10	1
4902549	44	C	10/26/2021	11:55	-131.748	47.109	0	146.50	0	7.3780	0	33.6230	0	26.284	0	145.231	0	185.4	4	63.1	4	-1E+10	1	-1E+10	1	-1E+10	1	-1E+10	1	-1E+10	1	-1E+10	1
4902549	44	C	10/26/2021	11:55	-131.748	47.109	0	147.90	0	7.3760	0	33.6350	0	26.294	0	146.618	0	184.7	4	62.9	4	-1E+10	1	-1E+10	1	-1E+10	1	-1E+10	1	-1E+10	1	-1E+10	1
4902549	44	C	10/26/2021	11:55	-131.748	47.109	0	149.30	0	7.3730	0	33.6430	0	26.300	0	148.006	0	184.0	4	62.6	4	-1E+10	1	-1E+10	1	-1E+10	1	-1E+10	1	-1E+10	1	-1E+10	1
4902549	44	C	10/26/2021	11:55	-131.748	47.109	0	150.30	0	7.3680	0	33.6480	0	26.305	0	148.997	0	183.6	4	62.5	4	-1E+10	1	-1E+10	1	-1E+10	1	-1E+10	1	-1E+10	1	-1E+10	1
4902549	44	C	10/26/2021	11:55	-131.748	47.109	0	151.30	0	7.3590	0	33.6570	0	26.313	0	149.988	0	183.2	4	62.3	4	-1E+10	1	-1E+10	1	-1E+10	1	-1E+10	1	-1E+10	1	-1E+10	1
4902549	44	C	10/26/2021	11:55	-131.748	47.109	0	152.30	0	7.3470	0	33.6710	0	26.326	0	150.979	0	182.8	4	62.2	4	-1E+10	1	-1E+10	1	-1E+10	1	-1E+10	1	-1E+10	1	-1E+10	1
4902549	44	C	10/26/2021	11:55	-131.748	47.109	0	153.20	0	7.3350	0	33.6930	0	26.345	0	151.870	0	182.6	4	62.1	4	-1E+10	1	-1E+10	1	-1E+10	1	-1E+10	1	-1E+10	1	-1E+10	1
4902549	44	C	10/26/2021	11:55	-131.748	47.109	0	154.20	0	7.3330	0	33.6980	0	26.349	0	152.861	0	182.2	4	62.0	4	-1E+10	1	-1E+10	1	-1E+10	1	-1E+10	1	-1E+10	1	-1E+10	1
4902549	44	C	10/26/2021	11:55	-131.748	47.109	0	155.20	0	7.3320	0	33.7020	0	26.353	0	153.852	0	182.0	4	61.9	4	-1E+10	1	-1E+10	1	-1E+10	1	-1E+10	1	-1E+10	1	-1E+10	1
4902549	44	C	10/26/2021	11:55	-131.748	47.109	0	156.20	0	7.3350	0	33.7050	0	26.355	0	154.843	0	181.6	4	61.8	4	-1E+10	1	-1E+10	1	-1E+10	1	-1E+10	1	-1E+10	1	-1E+10	1
4902549	44	C	10/26/2021	11:55	-131.748	47.109	0	157.20	0	7.3340	0	33.7080	0	26.357	0	155.834	0	181.3	4	61.7	4	-1E+10	1	-1E+10	1	-1E+10	1	-1E+10	1	-1E+10	1	-1E+10	1
4902549	44	C	10/26/2021	11:55	-131.748	47.109	0	158.10	0	7.3320	0	33.7140	0	26.362	0	156.726	0	180.9	4	61.5	4	-1E+10	1	-1E+10	1	-1E+10	1	-1E+10	1	-1E+10	1	-1E+10	1
4902549	44	C	10/26/2021	11:55	-131.748	47.109	0	159.10	0	7.3220	0	33.7240	0	26.371	0	157.717	0	180.6	4	61.4	4	-1E+10	1	-1E+10	1	-1E+10	1	-1E+10	1	-1E+10	1	-1E+10	1
4902549	44	C	10/26/2021	11:55	-131.748	47.109	0	160.10	0	7.3200	0	33.7250	0	26.373	0	158.708	0	180.2	4	61.3	4	-1E+10	1	-1E+10	1	-1E+10	1	-1E+10	1	-1E+10	1	-1E+10	1
4902549	44	C	10/26/2021	11:55	-131.748	47.109	0	161.10	0	7.3290	0	33.7320	0	26.377	0	159.699	0	179.9	4	61.2	4	-1E+10	1	-1E+10	1	-1E+10	1	-1E+10	1	-1E+10	1	-1E+10	1
4902549	44	C	10/26/2021	11:55	-131.748	47.109	0	162.10	0	7.3220	0	33.7390	0	26.383	0	160.690	0	179.4	4	61.0	4	-1E+10	1	-1E+10	1	-1E+10	1	-1E+10	1	-1E+10	1	-1E+10	1
4902549	44	C	10/26/2021	11:55	-131.748	47.109	0	163.10	0	7.3080	0	33.7460	0	26.391	0	161.681	0	179.0	4	60.9	4	-1E+10	1	-1E+10	1	-1E+10	1	-1E+10	1	-1E+10	1	-1E+10	1
4902549	44	C	10/26/2021	11:55	-131.748	47.109	0	164.10	0	7.2900	0	33.7520	0	26.398	0	162.672	0	178.8	4	60.8	4	-1E+10	1	-1E+10	1	-1E+10	1	-1E+10	1	-1E+10	1	-1E+10	1
4902549	44	C	10/26/2021	11:55	-131.748	47.109	0	165.00	0	7.2860	0	33.7550	0	26.401	0	163.563	0	178.5	4	60.7	4	-1E+10	1	-1E+10	1	-1E+10	1	-1E+10	1	-1E+10	1	-1E+10	1
4902549	44	C	10/26/2021	11:55	-131.748	47.109	0	166.00	0	7.2840	0	33.7570	0	26.403	0	164.554	0	178.2	4	60.6	4	-1E+10	1	-1E+10	1	-1E+10	1	-1E+10	1	-1E+10	1	-1E+10	1
4902549	44	C	10/26/2021	11:55	-131.748	47.109	0	167.00	0	7.2740	0	33.7600	0	26.407	0	165.545	0	177.8	4	60.4	4	-1E+10	1	-1E+10	1	-1E+10	1	-1E+10	1	-1E+10	1	-1E+10	1
4902549	44	C	10/26/2021	11:55	-131.748	47.109	0	167.90	0	7.2530	0	33.7630	0	26.412	0	166.437	0	177.5	4	60.3	4	-1E+10	1	-1E+10	1	-1E+10	1	-1E+10	1	-1E+10	1	-1E+10	1
4902549	44	C	10/26/2021	11:55	-131.748	47.109	0	168.90	0	7.2150	0	33.7710	0	26.423	0	167.428	0	177.3	4	60.2	4	-1E+10	1	-1E+10	1	-1E+10	1	-1E+10	1	-1E+10	1	-1E+10	1
4902549	44	C	10/26/2021	11:55	-131.748	47.109	0	169.80	0	7.1990	0	33.7650	0	26.421	0	168.320	0	177.1	4	60.1	4	-1E+10	1	-1E+10	1	-1E+10	1	-1E+10	1	-1E+10	1	-1E+10	1
4902549	44	C	10/26/2021	11:55	-131.748	47.109	0	170.80	0	7.2060	0	33.7650	0	26.420	0	169.311	0	176.7	4	60.0	4	-1E+10	1	-1E+10	1	-1E+10	1	-1E+10	1	-1E+10	1	-1E+10	1
4902549	44	C	10/26/2021	11:55	-131.748	47.109	0	171.70	0	7.1800	0	33.7680	0	26.426	0	170.202	0	176.5	4	59.8	4	-1E+10	1	-1E+10	1	-1E+10	1	-1E+10	1	-1E+10	1	-1E+10	1
4902549	44	C	10/26/2021	11:55	-131.748	47.109	0	172.70	0	7.1490	0	33.7650	0	26.428	0	171.193	0	176.2	4	59.7	4	-1E+10	1	-1E+10	1	-1E+10	1	-1E+10	1	-1E+10	1	-1E+10	1
4902549	44	C	10/26/2021	11:55	-131.748	47.109	0	173.60	0	7.1370	0	33.7670	0	26.431	0	172.085	0	175.9	4	59.6	4	-1E+10	1	-1E+10	1	-1E+10	1	-1E+10	1	-1E+10	1	-1E+10	1
4902549	44	C	10/26/2021	11:55	-131.748	47.109	0	174.60	0	7.1420	0	33.7610	0	26.426	0	173.076	0	175.6	4	59.5	4	-1E+10	1	-1E+10	1	-1E+10	1	-1E+10	1	-1E+10	1	-1E+10	1
4902549	44	C	10/26/2021	11:55	-131.748	47.109	0	175.60	0	7.1130	0	33.7650	0	26.433	0	174.067	0	175.1	4	59.3	4	-1E+10	1	-1E+10	1	-1E+10	1	-1E+10	1	-1E+10	1	-1E+10	1
4902549	44	C	10/26/2021	11:55	-131.748	47.109	0	176.90	0	7.0910	0	33.7640	0	26.435	0	175.355	0	174.6	4	59.1	4	-1E+10	1	-1E+10	1	-1E+10	1	-1E+10	1	-1E+10	1	-1E+10	1
4902549	44	C	10/26/2021	11:55	-131.748	47.109	0	178.40	0	7.0780	0	33.7650	0	26.438	0	176.841	0	173.8	4	58.8	4	-1E+10	1	-1E+10	1	-1E+10	1	-1E+10	1	-1E+10	1	-1E+10	1
4902549	44	C	10/26/2021	11:55	-131.748	47.109	0	179.30	0	7.0720	0	33.7660	0	26.439	0	177.733	0	173.3	4	58.6	4	-1E+10	1	-1E+10	1	-1E+10	1	-1E+10	1	-1E+10	1	-1E+10	1
4902549	44	C	10/26/2021	11:55	-131.748	47.109	0	180.30	0	7.0700	0	33.7670	0	26.440	0	178.724	0	172.7	4	58.4	4	-1E+10	1	-1E+10	1	-1E+10	1	-1E+10	1	-1E+10	1	-1E+10	1
4902549	44	C	10/26/2021	11:55	-131.748	47.109	0	181.20	0	7.0630	0	33.7680	0	26.442	0	179.615	0	172.0	4	58.2	4	-1E+10	1	-1E+10	1	-1E+10	1	-1E+10	1	-1E+10	1	-1E+10	1
4902549	44	C	10/26/2021	11:55	-131.748	47.109	0	182.10	0	7.0490	0	33.7690	0	26.445	0	180.507	0	171.1	4	57.8	4	-1E+10	1	-1E+10	1	-1E+10	1	-1E+10	1	-1E+10	1	-1E+10	1
4902549	44	C	10/26/2021	11:55	-131.748	47.109	0	183.00	0	6.9960	0	33.7750	0	26.457	0	181.399	0	170.5	4	57.6	4	-1E+10	1	-1E+10	1	-1E+10	1	-1E+10	1	-1E+10	1	-1E+10	1
4902549	44	C	10/26/2021	11:55	-131.748	47.109	0	183.90	0	6.9760	0	33.7780	0	26.462	0	182.291	0	169.9	4	57.3	4	-1E+10	1	-1E+10	1	-1E+10	1	-1E+10	1	-1E+10	1	-1E+10	1
4902549	44	C	10/26/2021	11:55	-131.748	47.109	0	184.80	0	6.9670	0	33.7740	0	26.460	0	183.182	0	169.1	4	57.1	4	-1E+10	1	-1E+10	1	-1E+10	1	-1E+10	1	-1E+10	1	-1E+10	1
4902549	44	C	10/26/2021	11:55	-131.748	47.109	0	185.80	0	6.9620	0	33.7730	0	26.460	0	184.173	0	168.2	4	56.8	4	-1E+10	1	-1E+10	1	-1E+10	1	-1E+10	1	-1E+10	1	-1E+10	1
4902549	44	C	10/26/2021	11:55	-131.748	47.109	0	186.70	0	6.9390	0	33.7760	0	26.465	0	185.065	0	167.3	4	56.4	4	-1E+10	1	-1E+10	1	-1E+10	1	-1E+10	1	-1E+10	1	-1E+10	1
4902549	44	C	10/26/2021	11:55	-131.748	47.109	0	187.70	0	6.9250	0	33.7770	0	26.468	0	186.056	0	166.5	4	56.1	4	-1E+10	1	-1E+10	1	-1E+10	1	-1E+10	1	-1E+10	1	-1E+10	1
4902549	44	C	10/26/2021	11:55	-131.748	47.109	0	188.60	0	6.8820	0	33.7850	0	26.480	0	186.947	0	165.7	4	55.8	4	-1E+10	1	-1E+10	1	-1E+10	1	-1E+10	1	-1E+10	1	-1E+10	1
4902549	44	C	10/26/2021	11:55	-131.748	47.109	0	189.60	0	6.8570	0	33.7840	0	26.483	0	187.938	0	165.1	4	55.6	4	-1E+10	1	-1E+10	1	-1E+10	1	-1E+10	1	-1E+10	1	-1E+10	1
4902549	44	C	10/26/2021	11:55	-131.748	47.109	0	190.50	0	6.8520	0	33.7850	0	26.484	0	188.830	0	164.3	4	55.3	4	-1E+10	1	-1E+10	1	-1E+10	1	-1E+10	1	-1E+10	1	-1E+10	1
4902549	44	C	10/26/2021	11:55	-131.748	47.109	0	191.50	0	6.8370	0	33.7900	0	26.490	0	189.821	0	163.7	4	55.1	4	-1E+10	1	-1E+10	1	-1E+10	1	-1E+10	1	-1E+10	1	-1E+10	1
4902549	44	C	10/26/2021	11:55	-131.748	47.109	0	192.50	0	6.8250	0	33.7920	0	26.493	0	190.811	0	163.2	4	54.9	4	-1E+10	1	-1E+10	1	-1E+10	1	-1E+10	1	-1E+10	1	-1E+10	1
4902549	44	C	10/26/2021	11:55	-131.748	47.109	0	193.50	0	6.8240	0	33.7930	0	26.494	0	191.802	0	162.6	4	54.7	4	-1E+10	1	-1E+10	1	-1E+10	1	-1E+10	1	-1E+10	1	-1E+10	1
4902549	44	C	10/26/2021	11:55	-131.748	47.109	0	194.50	0	6.8230	0	33.7930	0	26.495	0	192.793	0	161.9	4	54.5	4	-1E+10	1	-1E+10	1	-1E+10	1	-1E+10	1	-1E+10	1	-1E+10	1
4902549	44	C	10/26/2021	11:55	-131.748	47.109	0	195.60	0	6.8190	0	33.7940	0	26.496	0	193.883	0	161.2	4	54.2	4	-1E+10	1	-1E+10	1	-1E+10	1	-1E+10	1	-1E+10	1	-1E+10	1
4902549	44	C	10/26/2021	11:55	-131.748	47.109	0	196.60	0	6.8160	0	33.7950	0	26.497	0	194.873	0	160.3	4	53.9	4	-1E+10	1	-1E+10	1	-1E+10	1	-1E+10	1	-1E+10	1	-1E+10	1
4902549	44	C	10/26/2021	11:55	-131.748	47.109	0	197.60	0	6.8020	0	33.7980	0	26.501	0	195.864	0	159.6	4	53.7	4	-1E+10	1	-1E+10	1	-1E+10	1	-1E+10	1	-1E+10	1	-1E+10	1
4902549	44	C	10/26/2021	11:55	-131.748	47.109	0	198.60	0	6.7910	0	33.8010	0	26.505	0	196.855	0	158.9	4	53.4	4	-1E+10	1	-1E+10	1	-1E+10	1	-1E+10	1	-1E+10	1	-1E+10	1
4902549	44	C	10/26/2021	11:55	-131.748	47.109	0	199.60	0	6.7760	0	33.8030	0	26.509	0	197.846	0	158.2	4	53.2	4	-1E+10	1	-1E+10	1	-1E+10	1	-1E+10	1	-1E+10	1	-1E+10	1
4902549	44	C	10/26/2021	11:55	-131.748	47.109	0	200.60	0	6.7750	0	33.8040	0	26.510	0	198.836	0	157.5	4	52.9	4	-1E+10	1	-1E+10	1	-1E+10	1	-1E+10	1	-1E+10	1	-1E+10	1
4902549	44	C	10/26/2021	11:55	-131.748	47.109	0	201.70	0	6.7710	0	33.8050	0	26.511	0	199.926	0	156.9	4	52.7	4	-1E+10	1	-1E+10	1	-1E+10	1	-1E+10	1	-1E+10	1	-1E+10	1
4902549	44	C	10/26/2021	11:55	-131.748	47.109	0	202.70	0	6.7500	0	33.8100	0	26.518	0	200.917	0	156.3	4	52.5	4	-1E+10	1	-1E+10	1	-1E+10	1	-1E+10	1	-1E+10	1	-1E+10	1
4902549	44	C	10/26/2021	11:55	-131.748	47.109	0	203.60	0	6.7450	0	33.8120	0	26.520	0	201.809	0	155.9	4	52.3	4	-1E+10	1	-1E+10	1	-1E+10	1	-1E+10	1	-1E+10	1	-1E+10	1
4902549	44	C	10/26/2021	11:55	-131.748	47.109	0	204.70	0	6.7450	0	33.8140	0	26.522	0	202.898	0	155.3	4	52.1	4	-1E+10	1	-1E+10	1	-1E+10	1	-1E+10	1	-1E+10	1	-1E+10	1
4902549	44	C	10/26/2021	11:55	-131.748	47.109	0	205.90	0	6.7440	0	33.8140	0	26.522	0	204.087	0	154.5	4	51.9	4	-1E+10	1	-1E+10	1	-1E+10	1	-1E+10	1	-1E+10	1	-1E+10	1
4902549	44	C	10/26/2021	11:55	-131.748	47.109	0	207.10	0	6.7300	0	33.8170	0	26.526	0	205.276	0	153.8	4	51.6	4	-1E+10	1	-1E+10	1	-1E+10	1	-1E+10	1	-1E+10	1	-1E+10	1
4902549	44	C	10/26/2021	11:55	-131.748	47.109	0	207.90	0	6.7240	0	33.8160	0	26.526	0	206.069	0	153.3	4	51.5	4	-1E+10	1	-1E+10	1	-1E+10	1	-1E+10	1	-1E+10	1	-1E+10	1
4902549	44	C	10/26/2021	11:55	-131.748	47.109	0	208.70	0	6.7140	0	33.8190	0	26.530	0	206.861	0	152.8	4	51.3	4	-1E+10	1	-1E+10	1	-1E+10	1	-1E+10	1	-1E+10	1	-1E+10	1
4902549	44	C	10/26/2021	11:55	-131.748	47.109	0	209.90	0	6.7120	0	33.8200	0	26.531	0	208.050	0	152.1	4	51.0	4	-1E+10	1	-1E+10	1	-1E+10	1	-1E+10	1	-1E+10	1	-1E+10	1
4902549	44	C	10/26/2021	11:55	-131.748	47.109	0	211.20	0	6.6950	0	33.8250	0	26.537	0	209.338	0	151.5	4	50.8	4	-1E+10	1	-1E+10	1	-1E+10	1	-1E+10	1	-1E+10	1	-1E+10	1
4902549	44	C	10/26/2021	11:55	-131.748	47.109	0	212.00	0	6.6900	0	33.8260	0	26.539	0	210.130	0	151.1	4	50.7	4	-1E+10	1	-1E+10	1	-1E+10	1	-1E+10	1	-1E+10	1	-1E+10	1
4902549	44	C	10/26/2021	11:55	-131.748	47.109	0	212.80	0	6.6810	0	33.8270	0	26.541	0	210.923	0	150.8	4	50.6	4	-1E+10	1	-1E+10	1	-1E+10	1	-1E+10	1	-1E+10	1	-1E+10	1
4902549	44	C	10/26/2021	11:55	-131.748	47.109	0	214.00	0	6.6610	0	33.8300	0	26.546	0	212.112	0	150.4	4	50.4	4	-1E+10	1	-1E+10	1	-1E+10	1	-1E+10	1	-1E+10	1	-1E+10	1
4902549	44	C	10/26/2021	11:55	-131.748	47.109	0	215.30	0	6.6510	0	33.8310	0	26.548	0	213.400	0	149.9	4	50.2	4	-1E+10	1	-1E+10	1	-1E+10	1	-1E+10	1	-1E+10	1	-1E+10	1
4902549	44	C	10/26/2021	11:55	-131.748	47.109	0	216.10	0	6.6450	0	33.8310	0	26.548	0	214.192	0	149.6	4	50.1	4	-1E+10	1	-1E+10	1	-1E+10	1	-1E+10	1	-1E+10	1	-1E+10	1
4902549	44	C	10/26/2021	11:55	-131.748	47.109	0	216.90	0	6.6440	0	33.8310	0	26.549	0	214.985	0	149.2	4	50.0	4	-1E+10	1	-1E+10	1	-1E+10	1	-1E+10	1	-1E+10	1	-1E+10	1
4902549	44	C	10/26/2021	11:55	-131.748	47.109	0	217.80	0	6.6400	0	33.8310	0	26.549	0	215.876	0	148.8	4	49.9	4	-1E+10	1	-1E+10	1	-1E+10	1	-1E+10	1	-1E+10	1	-1E+10	1
4902549	44	C	10/26/2021	11:55	-131.748	47.109	0	218.60	0	6.6360	0	33.8310	0	26.550	0	216.669	0	148.4	4	49.7	4	-1E+10	1	-1E+10	1	-1E+10	1	-1E+10	1	-1E+10	1	-1E+10	1
4902549	44	C	10/26/2021	11:55	-131.748	47.109	0	219.90	0	6.6170	0	33.8320	0	26.553	0	217.957	0	147.8	4	49.5	4	-1E+10	1	-1E+10	1	-1E+10	1	-1E+10	1	-1E+10	1	-1E+10	1
4902549	44	C	10/26/2021	11:55	-131.748	47.109	0	221.20	0	6.5950	0	33.8350	0	26.558	0	219.244	0	147.2	4	49.3	4	-1E+10	1	-1E+10	1	-1E+10	1	-1E+10	1	-1E+10	1	-1E+10	1
4902549	44	C	10/26/2021	11:55	-131.748	47.109	0	222.10	0	6.5810	0	33.8340	0	26.559	0	220.136	0	146.9	4	49.2	4	-1E+10	1	-1E+10	1	-1E+10	1	-1E+10	1	-1E+10	1	-1E+10	1
4902549	44	C	10/26/2021	11:55	-131.748	47.109	0	222.90	0	6.5660	0	33.8360	0	26.563	0	220.928	0	146.6	4	49.0	4	-1E+10	1	-1E+10	1	-1E+10	1	-1E+10	1	-1E+10	1	-1E+10	1
4902549	44	C	10/26/2021	11:55	-131.748	47.109	0	223.80	0	6.5480	0	33.8360	0	26.565	0	221.820	0	146.3	4	48.9	4	-1E+10	1	-1E+10	1	-1E+10	1	-1E+10	1	-1E+10	1	-1E+10	1
4902549	44	C	10/26/2021	11:55	-131.748	47.109	0	224.60	0	6.5410	0	33.8370	0	26.567	0	222.612	0	145.9	4	48.8	4	-1E+10	1	-1E+10	1	-1E+10	1	-1E+10	1	-1E+10	1	-1E+10	1
4902549	44	C	10/26/2021	11:55	-131.748	47.109	0	225.90	0	6.5340	0	33.8360	0	26.567	0	223.900	0	145.4	4	48.6	4	-1E+10	1	-1E+10	1	-1E+10	1	-1E+10	1	-1E+10	1	-1E+10	1
4902549	44	C	10/26/2021	11:55	-131.748	47.109	0	227.20	0	6.5270	0	33.8370	0	26.569	0	225.188	0	144.7	4	48.4	4	-1E+10	1	-1E+10	1	-1E+10	1	-1E+10	1	-1E+10	1	-1E+10	1
4902549	44	C	10/26/2021	11:55	-131.748	47.109	0	228.10	0	6.5220	0	33.8370	0	26.570	0	226.080	0	144.3	4	48.2	4	-1E+10	1	-1E+10	1	-1E+10	1	-1E+10	1	-1E+10	1	-1E+10	1
4902549	44	C	10/26/2021	11:55	-131.748	47.109	0	229.00	0	6.4990	0	33.8380	0	26.573	0	226.971	0	144.0	4	48.1	4	-1E+10	1	-1E+10	1	-1E+10	1	-1E+10	1	-1E+10	1	-1E+10	1
4902549	44	C	10/26/2021	11:55	-131.748	47.109	0	229.90	0	6.4920	0	33.8370	0	26.573	0	227.863	0	143.6	4	48.0	4	-1E+10	1	-1E+10	1	-1E+10	1	-1E+10	1	-1E+10	1	-1E+10	1
4902549	44	C	10/26/2021	11:55	-131.748	47.109	0	230.70	0	6.4900	0	33.8380	0	26.575	0	228.655	0	143.2	4	47.8	4	-1E+10	1	-1E+10	1	-1E+10	1	-1E+10	1	-1E+10	1	-1E+10	1
4902549	44	C	10/26/2021	11:55	-131.748	47.109	0	231.60	0	6.4860	0	33.8380	0	26.575	0	229.547	0	142.7	4	47.6	4	-1E+10	1	-1E+10	1	-1E+10	1	-1E+10	1	-1E+10	1	-1E+10	1
4902549	44	C	10/26/2021	11:55	-131.748	47.109	0	232.90	0	6.4540	0	33.8390	0	26.580	0	230.834	0	142.2	4	47.4	4	-1E+10	1	-1E+10	1	-1E+10	1	-1E+10	1	-1E+10	1	-1E+10	1
4902549	44	C	10/26/2021	11:55	-131.748	47.109	0	234.20	0	6.4280	0	33.8410	0	26.585	0	232.122	0	141.8	4	47.3	4	-1E+10	1	-1E+10	1	-1E+10	1	-1E+10	1	-1E+10	1	-1E+10	1
4902549	44	C	10/26/2021	11:55	-131.748	47.109	0	235.10	0	6.4170	0	33.8410	0	26.586	0	233.014	0	141.6	4	47.2	4	-1E+10	1	-1E+10	1	-1E+10	1	-1E+10	1	-1E+10	1	-1E+10	1
4902549	44	C	10/26/2021	11:55	-131.748	47.109	0	236.00	0	6.4120	0	33.8410	0	26.587	0	233.905	0	141.3	4	47.1	4	-1E+10	1	-1E+10	1	-1E+10	1	-1E+10	1	-1E+10	1	-1E+10	1
4902549	44	C	10/26/2021	11:55	-131.748	47.109	0	236.90	0	6.4020	0	33.8410	0	26.588	0	234.797	0	141.0	4	47.0	4	-1E+10	1	-1E+10	1	-1E+10	1	-1E+10	1	-1E+10	1	-1E+10	1
4902549	44	C	10/26/2021	11:55	-131.748	47.109	0	237.70	0	6.3920	0	33.8390	0	26.588	0	235.589	0	140.7	4	46.9	4	-1E+10	1	-1E+10	1	-1E+10	1	-1E+10	1	-1E+10	1	-1E+10	1
4902549	44	C	10/26/2021	11:55	-131.748	47.109	0	238.60	0	6.3760	0	33.8400	0	26.591	0	236.481	0	140.4	4	46.8	4	-1E+10	1	-1E+10	1	-1E+10	1	-1E+10	1	-1E+10	1	-1E+10	1
4902549	44	C	10/26/2021	11:55	-131.748	47.109	0	239.90	0	6.3640	0	33.8400	0	26.593	0	237.768	0	140.0	4	46.6	4	-1E+10	1	-1E+10	1	-1E+10	1	-1E+10	1	-1E+10	1	-1E+10	1
4902549	44	C	10/26/2021	11:55	-131.748	47.109	0	241.20	0	6.3570	0	33.8400	0	26.593	0	239.056	0	139.4	4	46.4	4	-1E+10	1	-1E+10	1	-1E+10	1	-1E+10	1	-1E+10	1	-1E+10	1
4902549	44	C	10/26/2021	11:55	-131.748	47.109	0	242.10	0	6.3570	0	33.8390	0	26.593	0	239.947	0	138.9	4	46.3	4	-1E+10	1	-1E+10	1	-1E+10	1	-1E+10	1	-1E+10	1	-1E+10	1
4902549	44	C	10/26/2021	11:55	-131.748	47.109	0	242.90	0	6.3570	0	33.8390	0	26.593	0	240.740	0	138.4	4	46.1	4	-1E+10	1	-1E+10	1	-1E+10	1	-1E+10	1	-1E+10	1	-1E+10	1
4902549	44	C	10/26/2021	11:55	-131.748	47.109	0	243.80	0	6.3470	0	33.8410	0	26.596	0	241.631	0	137.8	4	45.9	4	-1E+10	1	-1E+10	1	-1E+10	1	-1E+10	1	-1E+10	1	-1E+10	1
4902549	44	C	10/26/2021	11:55	-131.748	47.109	0	244.60	0	6.3370	0	33.8400	0	26.596	0	242.424	0	137.3	4	45.7	4	-1E+10	1	-1E+10	1	-1E+10	1	-1E+10	1	-1E+10	1	-1E+10	1
4902549	44	C	10/26/2021	11:55	-131.748	47.109	0	245.90	0	6.3080	0	33.8390	0	26.599	0	243.711	0	136.6	4	45.4	4	-1E+10	1	-1E+10	1	-1E+10	1	-1E+10	1	-1E+10	1	-1E+10	1
4902549	44	C	10/26/2021	11:55	-131.748	47.109	0	247.30	0	6.2860	0	33.8430	0	26.605	0	245.098	0	135.6	4	45.1	4	-1E+10	1	-1E+10	1	-1E+10	1	-1E+10	1	-1E+10	1	-1E+10	1
4902549	44	C	10/26/2021	11:55	-131.748	47.109	0	248.10	0	6.2470	0	33.8410	0	26.608	0	245.891	0	135.2	4	44.9	4	-1E+10	1	-1E+10	1	-1E+10	1	-1E+10	1	-1E+10	1	-1E+10	1
4902549	44	C	10/26/2021	11:55	-131.748	47.109	0	249.00	0	6.2360	0	33.8400	0	26.609	0	246.782	0	134.7	4	44.7	4	-1E+10	1	-1E+10	1	-1E+10	1	-1E+10	1	-1E+10	1	-1E+10	1
4902549	44	C	10/26/2021	11:55	-131.748	47.109	0	249.80	0	6.2050	0	33.8430	0	26.615	0	247.574	0	134.2	4	44.5	4	-1E+10	1	-1E+10	1	-1E+10	1	-1E+10	1	-1E+10	1	-1E+10	1
4902549	44	C	10/26/2021	11:55	-131.748	47.109	0	250.70	0	6.1800	0	33.8410	0	26.617	0	248.466	0	133.8	4	44.4	4	-1E+10	1	-1E+10	1	-1E+10	1	-1E+10	1	-1E+10	1	-1E+10	1
4902549	44	C	10/26/2021	11:55	-131.748	47.109	0	251.60	0	6.1750	0	33.8410	0	26.618	0	249.357	0	133.3	4	44.2	4	-1E+10	1	-1E+10	1	-1E+10	1	-1E+10	1	-1E+10	1	-1E+10	1
4902549	44	C	10/26/2021	11:55	-131.748	47.109	0	252.90	0	6.1570	0	33.8410	0	26.620	0	250.645	0	132.5	4	43.9	4	-1E+10	1	-1E+10	1	-1E+10	1	-1E+10	1	-1E+10	1	-1E+10	1
4902549	44	C	10/26/2021	11:55	-131.748	47.109	0	254.20	0	6.1390	0	33.8430	0	26.624	0	251.932	0	131.7	4	43.6	4	-1E+10	1	-1E+10	1	-1E+10	1	-1E+10	1	-1E+10	1	-1E+10	1
4902549	44	C	10/26/2021	11:55	-131.748	47.109	0	255.10	0	6.1310	0	33.8420	0	26.624	0	252.824	0	131.2	4	43.4	4	-1E+10	1	-1E+10	1	-1E+10	1	-1E+10	1	-1E+10	1	-1E+10	1
4902549	44	C	10/26/2021	11:55	-131.748	47.109	0	255.90	0	6.1230	0	33.8430	0	26.626	0	253.616	0	130.6	4	43.2	4	-1E+10	1	-1E+10	1	-1E+10	1	-1E+10	1	-1E+10	1	-1E+10	1
4902549	44	C	10/26/2021	11:55	-131.748	47.109	0	256.80	0	6.1010	0	33.8460	0	26.631	0	254.508	0	130.0	4	43.0	4	-1E+10	1	-1E+10	1	-1E+10	1	-1E+10	1	-1E+10	1	-1E+10	1
4902549	44	C	10/26/2021	11:55	-131.748	47.109	0	257.70	0	6.0810	0	33.8430	0	26.631	0	255.399	0	129.6	4	42.9	4	-1E+10	1	-1E+10	1	-1E+10	1	-1E+10	1	-1E+10	1	-1E+10	1
4902549	44	C	10/26/2021	11:55	-131.748	47.109	0	258.60	0	6.0520	0	33.8450	0	26.636	0	256.291	0	129.2	4	42.7	4	-1E+10	1	-1E+10	1	-1E+10	1	-1E+10	1	-1E+10	1	-1E+10	1
4902549	44	C	10/26/2021	11:55	-131.748	47.109	0	259.90	0	6.0420	0	33.8450	0	26.638	0	257.578	0	128.4	4	42.4	4	-1E+10	1	-1E+10	1	-1E+10	1	-1E+10	1	-1E+10	1	-1E+10	1
4902549	44	C	10/26/2021	11:55	-131.748	47.109	0	261.20	0	6.0280	0	33.8450	0	26.639	0	258.866	0	127.5	4	42.1	4	-1E+10	1	-1E+10	1	-1E+10	1	-1E+10	1	-1E+10	1	-1E+10	1
4902549	44	C	10/26/2021	11:55	-131.748	47.109	0	262.10	0	6.0070	0	33.8470	0	26.644	0	259.757	0	127.0	4	42.0	4	-1E+10	1	-1E+10	1	-1E+10	1	-1E+10	1	-1E+10	1	-1E+10	1
4902549	44	C	10/26/2021	11:55	-131.748	47.109	0	263.00	0	5.9820	0	33.8480	0	26.648	0	260.648	0	126.6	4	41.8	4	-1E+10	1	-1E+10	1	-1E+10	1	-1E+10	1	-1E+10	1	-1E+10	1
4902549	44	C	10/26/2021	11:55	-131.748	47.109	0	263.90	0	5.9760	0	33.8470	0	26.648	0	261.540	0	126.2	4	41.7	4	-1E+10	1	-1E+10	1	-1E+10	1	-1E+10	1	-1E+10	1	-1E+10	1
4902549	44	C	10/26/2021	11:55	-131.748	47.109	0	264.80	0	5.9640	0	33.8480	0	26.650	0	262.431	0	125.7	4	41.5	4	-1E+10	1	-1E+10	1	-1E+10	1	-1E+10	1	-1E+10	1	-1E+10	1
4902549	44	C	10/26/2021	11:55	-131.748	47.109	0	265.70	0	5.9430	0	33.8500	0	26.654	0	263.323	0	125.4	4	41.4	4	-1E+10	1	-1E+10	1	-1E+10	1	-1E+10	1	-1E+10	1	-1E+10	1
4902549	44	C	10/26/2021	11:55	-131.748	47.109	0	266.70	0	5.9270	0	33.8490	0	26.655	0	264.313	0	125.1	4	41.2	4	-1E+10	1	-1E+10	1	-1E+10	1	-1E+10	1	-1E+10	1	-1E+10	1
4902549	44	C	10/26/2021	11:55	-131.748	47.109	0	267.60	0	5.9230	0	33.8500	0	26.657	0	265.204	0	124.6	4	41.1	4	-1E+10	1	-1E+10	1	-1E+10	1	-1E+10	1	-1E+10	1	-1E+10	1
4902549	44	C	10/26/2021	11:55	-131.748	47.109	0	268.90	0	5.9090	0	33.8500	0	26.658	0	266.492	0	124.0	4	40.9	4	-1E+10	1	-1E+10	1	-1E+10	1	-1E+10	1	-1E+10	1	-1E+10	1
4902549	44	C	10/26/2021	11:55	-131.748	47.109	0	270.30	0	5.9010	0	33.8490	0	26.658	0	267.878	0	123.3	4	40.6	4	-1E+10	1	-1E+10	1	-1E+10	1	-1E+10	1	-1E+10	1	-1E+10	1
4902549	44	C	10/26/2021	11:55	-131.748	47.109	0	271.20	0	5.8990	0	33.8490	0	26.659	0	268.770	0	122.7	4	40.4	4	-1E+10	1	-1E+10	1	-1E+10	1	-1E+10	1	-1E+10	1	-1E+10	1
4902549	44	C	10/26/2021	11:55	-131.748	47.109	0	272.10	0	5.8540	0	33.8610	0	26.674	0	269.661	0	122.3	4	40.3	4	-1E+10	1	-1E+10	1	-1E+10	1	-1E+10	1	-1E+10	1	-1E+10	1
4902549	44	C	10/26/2021	11:55	-131.748	47.109	0	273.00	0	5.8510	0	33.8510	0	26.666	0	270.553	0	121.9	4	40.1	4	-1E+10	1	-1E+10	1	-1E+10	1	-1E+10	1	-1E+10	1	-1E+10	1
4902549	44	C	10/26/2021	11:55	-131.748	47.109	0	273.90	0	5.8490	0	33.8490	0	26.665	0	271.444	0	121.5	4	40.0	4	-1E+10	1	-1E+10	1	-1E+10	1	-1E+10	1	-1E+10	1	-1E+10	1
4902549	44	C	10/26/2021	11:55	-131.748	47.109	0	274.80	0	5.8340	0	33.8510	0	26.668	0	272.335	0	121.0	4	39.8	4	-1E+10	1	-1E+10	1	-1E+10	1	-1E+10	1	-1E+10	1	-1E+10	1
4902549	44	C	10/26/2021	11:55	-131.748	47.109	0	275.70	0	5.8230	0	33.8510	0	26.670	0	273.227	0	120.6	4	39.7	4	-1E+10	1	-1E+10	1	-1E+10	1	-1E+10	1	-1E+10	1	-1E+10	1
4902549	44	C	10/26/2021	11:55	-131.748	47.109	0	276.60	0	5.8180	0	33.8500	0	26.670	0	274.118	0	120.1	4	39.5	4	-1E+10	1	-1E+10	1	-1E+10	1	-1E+10	1	-1E+10	1	-1E+10	1
4902549	44	C	10/26/2021	11:55	-131.748	47.109	0	277.90	0	5.7810	0	33.8530	0	26.676	0	275.405	0	119.5	4	39.3	4	-1E+10	1	-1E+10	1	-1E+10	1	-1E+10	1	-1E+10	1	-1E+10	1
4902549	44	C	10/26/2021	11:55	-131.748	47.109	0	279.30	0	5.7760	0	33.8520	0	26.676	0	276.792	0	118.9	4	39.0	4	-1E+10	1	-1E+10	1	-1E+10	1	-1E+10	1	-1E+10	1	-1E+10	1
4902549	44	C	10/26/2021	11:55	-131.748	47.109	0	280.20	0	5.7740	0	33.8520	0	26.677	0	277.683	0	118.4	4	38.9	4	-1E+10	1	-1E+10	1	-1E+10	1	-1E+10	1	-1E+10	1	-1E+10	1
4902549	44	C	10/26/2021	11:55	-131.748	47.109	0	281.00	0	5.7600	0	33.8530	0	26.679	0	278.475	0	117.9	4	38.7	4	-1E+10	1	-1E+10	1	-1E+10	1	-1E+10	1	-1E+10	1	-1E+10	1
4902549	44	C	10/26/2021	11:55	-131.748	47.109	0	281.90	0	5.7480	0	33.8520	0	26.680	0	279.367	0	117.4	4	38.5	4	-1E+10	1	-1E+10	1	-1E+10	1	-1E+10	1	-1E+10	1	-1E+10	1
4902549	44	C	10/26/2021	11:55	-131.748	47.109	0	282.80	0	5.7380	0	33.8530	0	26.682	0	280.258	0	116.9	4	38.4	4	-1E+10	1	-1E+10	1	-1E+10	1	-1E+10	1	-1E+10	1	-1E+10	1
4902549	44	C	10/26/2021	11:55	-131.748	47.109	0	283.80	0	5.7250	0	33.8530	0	26.683	0	281.248	0	116.4	4	38.2	4	-1E+10	1	-1E+10	1	-1E+10	1	-1E+10	1	-1E+10	1	-1E+10	1
4902549	44	C	10/26/2021	11:55	-131.748	47.109	0	284.70	0	5.7050	0	33.8570	0	26.689	0	282.140	0	115.9	4	38.0	4	-1E+10	1	-1E+10	1	-1E+10	1	-1E+10	1	-1E+10	1	-1E+10	1
4902549	44	C	10/26/2021	11:55	-131.748	47.109	0	285.60	0	5.6840	0	33.8540	0	26.689	0	283.031	0	115.5	4	37.9	4	-1E+10	1	-1E+10	1	-1E+10	1	-1E+10	1	-1E+10	1	-1E+10	1
4902549	44	C	10/26/2021	11:55	-131.748	47.109	0	286.60	0	5.6800	0	33.8540	0	26.690	0	284.021	0	115.0	4	37.7	4	-1E+10	1	-1E+10	1	-1E+10	1	-1E+10	1	-1E+10	1	-1E+10	1
4902549	44	C	10/26/2021	11:55	-131.748	47.109	0	287.90	0	5.6650	0	33.8540	0	26.691	0	285.309	0	114.2	4	37.4	4	-1E+10	1	-1E+10	1	-1E+10	1	-1E+10	1	-1E+10	1	-1E+10	1
4902549	44	C	10/26/2021	11:55	-131.748	47.109	0	289.30	0	5.6460	0	33.8550	0	26.695	0	286.695	0	113.5	4	37.2	4	-1E+10	1	-1E+10	1	-1E+10	1	-1E+10	1	-1E+10	1	-1E+10	1
4902549	44	C	10/26/2021	11:55	-131.748	47.109	0	290.30	0	5.6430	0	33.8540	0	26.694	0	287.685	0	112.9	4	37.0	4	-1E+10	1	-1E+10	1	-1E+10	1	-1E+10	1	-1E+10	1	-1E+10	1
4902549	44	C	10/26/2021	11:55	-131.748	47.109	0	291.20	0	5.6120	0	33.8570	0	26.700	0	288.577	0	112.4	4	36.8	4	-1E+10	1	-1E+10	1	-1E+10	1	-1E+10	1	-1E+10	1	-1E+10	1
4902549	44	C	10/26/2021	11:55	-131.748	47.109	0	292.10	0	5.6070	0	33.8550	0	26.699	0	289.468	0	111.9	4	36.6	4	-1E+10	1	-1E+10	1	-1E+10	1	-1E+10	1	-1E+10	1	-1E+10	1
4902549	44	C	10/26/2021	11:55	-131.748	47.109	0	293.10	0	5.5940	0	33.8580	0	26.703	0	290.458	0	111.3	4	36.4	4	-1E+10	1	-1E+10	1	-1E+10	1	-1E+10	1	-1E+10	1	-1E+10	1
4902549	44	C	10/26/2021	11:55	-131.748	47.109	0	294.00	0	5.5850	0	33.8560	0	26.703	0	291.349	0	110.8	4	36.2	4	-1E+10	1	-1E+10	1	-1E+10	1	-1E+10	1	-1E+10	1	-1E+10	1
4902549	44	C	10/26/2021	11:55	-131.748	47.109	0	295.00	0	5.5750	0	33.8570	0	26.705	0	292.340	0	110.2	4	36.0	4	-1E+10	1	-1E+10	1	-1E+10	1	-1E+10	1	-1E+10	1	-1E+10	1
4902549	44	C	10/26/2021	11:55	-131.748	47.109	0	295.90	0	5.5630	0	33.8570	0	26.706	0	293.231	0	109.6	4	35.8	4	-1E+10	1	-1E+10	1	-1E+10	1	-1E+10	1	-1E+10	1	-1E+10	1
4902549	44	C	10/26/2021	11:55	-131.748	47.109	0	296.80	0	5.5330	0	33.8590	0	26.711	0	294.122	0	109.2	4	35.7	4	-1E+10	1	-1E+10	1	-1E+10	1	-1E+10	1	-1E+10	1	-1E+10	1
4902549	44	C	10/26/2021	11:55	-131.748	47.109	0	297.80	0	5.5130	0	33.8580	0	26.713	0	295.112	0	108.7	4	35.5	4	-1E+10	1	-1E+10	1	-1E+10	1	-1E+10	1	-1E+10	1	-1E+10	1
4902549	44	C	10/26/2021	11:55	-131.748	47.109	0	298.70	0	5.5000	0	33.8590	0	26.715	0	296.004	0	108.3	4	35.4	4	-1E+10	1	-1E+10	1	-1E+10	1	-1E+10	1	-1E+10	1	-1E+10	1
4902549	44	C	10/26/2021	11:55	-131.748	47.109	0	299.70	0	5.4910	0	33.8590	0	26.716	0	296.994	0	107.8	4	35.2	4	-1E+10	1	-1E+10	1	-1E+10	1	-1E+10	1	-1E+10	1	-1E+10	1
4902549	44	C	10/26/2021	11:55	-131.748	47.109	0	300.60	0	5.4810	0	33.8600	0	26.718	0	297.885	0	107.4	4	35.0	4	-1E+10	1	-1E+10	1	-1E+10	1	-1E+10	1	-1E+10	1	-1E+10	1
4902549	44	C	10/26/2021	11:55	-131.748	47.109	0	301.60	0	5.4780	0	33.8590	0	26.718	0	298.875	0	106.8	4	34.8	4	-1E+10	1	-1E+10	1	-1E+10	1	-1E+10	1	-1E+10	1	-1E+10	1
4902549	44	C	10/26/2021	11:55	-131.748	47.109	0	302.50	0	5.4590	0	33.8610	0	26.722	0	299.767	0	106.3	4	34.7	4	-1E+10	1	-1E+10	1	-1E+10	1	-1E+10	1	-1E+10	1	-1E+10	1
4902549	44	C	10/26/2021	11:55	-131.748	47.109	0	303.90	0	5.4420	0	33.8620	0	26.725	0	301.153	0	105.6	4	34.4	4	-1E+10	1	-1E+10	1	-1E+10	1	-1E+10	1	-1E+10	1	-1E+10	1
4902549	44	C	10/26/2021	11:55	-131.748	47.109	0	305.40	0	5.4290	0	33.8610	0	26.725	0	302.638	0	104.8	4	34.1	4	-1E+10	1	-1E+10	1	-1E+10	1	-1E+10	1	-1E+10	1	-1E+10	1
4902549	44	C	10/26/2021	11:55	-131.748	47.109	0	306.40	0	5.4140	0	33.8620	0	26.728	0	303.629	0	104.2	4	33.9	4	-1E+10	1	-1E+10	1	-1E+10	1	-1E+10	1	-1E+10	1	-1E+10	1
4902549	44	C	10/26/2021	11:55	-131.748	47.109	0	307.30	0	5.4010	0	33.8610	0	26.729	0	304.520	0	103.7	4	33.8	4	-1E+10	1	-1E+10	1	-1E+10	1	-1E+10	1	-1E+10	1	-1E+10	1
4902549	44	C	10/26/2021	11:55	-131.748	47.109	0	308.30	0	5.3930	0	33.8610	0	26.730	0	305.510	0	103.0	4	33.6	4	-1E+10	1	-1E+10	1	-1E+10	1	-1E+10	1	-1E+10	1	-1E+10	1
4902549	44	C	10/26/2021	11:55	-131.748	47.109	0	309.30	0	5.3760	0	33.8650	0	26.735	0	306.500	0	102.5	4	33.4	4	-1E+10	1	-1E+10	1	-1E+10	1	-1E+10	1	-1E+10	1	-1E+10	1
4902549	44	C	10/26/2021	11:55	-131.748	47.109	0	310.20	0	5.3350	0	33.8640	0	26.739	0	307.391	0	102.2	4	33.2	4	-1E+10	1	-1E+10	1	-1E+10	1	-1E+10	1	-1E+10	1	-1E+10	1
4902549	44	C	10/26/2021	11:55	-131.748	47.109	0	311.20	0	5.3200	0	33.8650	0	26.741	0	308.382	0	101.9	4	33.1	4	-1E+10	1	-1E+10	1	-1E+10	1	-1E+10	1	-1E+10	1	-1E+10	1
4902549	44	C	10/26/2021	11:55	-131.748	47.109	0	312.20	0	5.3170	0	33.8660	0	26.743	0	309.372	0	101.5	4	33.0	4	-1E+10	1	-1E+10	1	-1E+10	1	-1E+10	1	-1E+10	1	-1E+10	1
4902549	44	C	10/26/2021	11:55	-131.748	47.109	0	313.20	0	5.3160	0	33.8650	0	26.742	0	310.362	0	101.2	4	32.9	4	-1E+10	1	-1E+10	1	-1E+10	1	-1E+10	1	-1E+10	1	-1E+10	1
4902549	44	C	10/26/2021	11:55	-131.748	47.109	0	314.20	0	5.3120	0	33.8650	0	26.742	0	311.352	0	100.7	4	32.7	4	-1E+10	1	-1E+10	1	-1E+10	1	-1E+10	1	-1E+10	1	-1E+10	1
4902549	44	C	10/26/2021	11:55	-131.748	47.109	0	315.20	0	5.3100	0	33.8650	0	26.743	0	312.342	0	100.3	4	32.6	4	-1E+10	1	-1E+10	1	-1E+10	1	-1E+10	1	-1E+10	1	-1E+10	1
4902549	44	C	10/26/2021	11:55	-131.748	47.109	0	316.20	0	5.3050	0	33.8650	0	26.743	0	313.333	0	99.8	4	32.4	4	-1E+10	1	-1E+10	1	-1E+10	1	-1E+10	1	-1E+10	1	-1E+10	1
4902549	44	C	10/26/2021	11:55	-131.748	47.109	0	317.20	0	5.2910	0	33.8680	0	26.747	0	314.323	0	99.3	4	32.3	4	-1E+10	1	-1E+10	1	-1E+10	1	-1E+10	1	-1E+10	1	-1E+10	1
4902549	44	C	10/26/2021	11:55	-131.748	47.109	0	318.20	0	5.2660	0	33.8720	0	26.753	0	315.313	0	99.0	4	32.1	4	-1E+10	1	-1E+10	1	-1E+10	1	-1E+10	1	-1E+10	1	-1E+10	1
4902549	44	C	10/26/2021	11:55	-131.748	47.109	0	319.20	0	5.2520	0	33.8700	0	26.753	0	316.303	0	98.8	4	32.1	4	-1E+10	1	-1E+10	1	-1E+10	1	-1E+10	1	-1E+10	1	-1E+10	1
4902549	44	C	10/26/2021	11:55	-131.748	47.109	0	320.20	0	5.2490	0	33.8700	0	26.754	0	317.293	0	98.4	4	31.9	4	-1E+10	1	-1E+10	1	-1E+10	1	-1E+10	1	-1E+10	1	-1E+10	1
4902549	44	C	10/26/2021	11:55	-131.748	47.109	0	321.20	0	5.2490	0	33.8700	0	26.754	0	318.283	0	98.1	4	31.8	4	-1E+10	1	-1E+10	1	-1E+10	1	-1E+10	1	-1E+10	1	-1E+10	1
4902549	44	C	10/26/2021	11:55	-131.748	47.109	0	322.20	0	5.2480	0	33.8700	0	26.754	0	319.274	0	97.7	4	31.7	4	-1E+10	1	-1E+10	1	-1E+10	1	-1E+10	1	-1E+10	1	-1E+10	1
4902549	44	C	10/26/2021	11:55	-131.748	47.109	0	323.20	0	5.2430	0	33.8700	0	26.755	0	320.264	0	97.2	4	31.6	4	-1E+10	1	-1E+10	1	-1E+10	1	-1E+10	1	-1E+10	1	-1E+10	1
4902549	44	C	10/26/2021	11:55	-131.748	47.109	0	324.30	0	5.2380	0	33.8720	0	26.757	0	321.353	0	96.7	4	31.4	4	-1E+10	1	-1E+10	1	-1E+10	1	-1E+10	1	-1E+10	1	-1E+10	1
4902549	44	C	10/26/2021	11:55	-131.748	47.109	0	325.30	0	5.2330	0	33.8700	0	26.756	0	322.343	0	96.3	4	31.2	4	-1E+10	1	-1E+10	1	-1E+10	1	-1E+10	1	-1E+10	1	-1E+10	1
4902549	44	C	10/26/2021	11:55	-131.748	47.109	0	326.30	0	5.2100	0	33.8720	0	26.760	0	323.333	0	95.9	4	31.1	4	-1E+10	1	-1E+10	1	-1E+10	1	-1E+10	1	-1E+10	1	-1E+10	1
4902549	44	C	10/26/2021	11:55	-131.748	47.109	0	327.30	0	5.2030	0	33.8720	0	26.761	0	324.323	0	95.6	4	31.0	4	-1E+10	1	-1E+10	1	-1E+10	1	-1E+10	1	-1E+10	1	-1E+10	1
4902549	44	C	10/26/2021	11:55	-131.748	47.109	0	328.30	0	5.2010	0	33.8710	0	26.760	0	325.313	0	95.1	4	30.8	4	-1E+10	1	-1E+10	1	-1E+10	1	-1E+10	1	-1E+10	1	-1E+10	1
4902549	44	C	10/26/2021	11:55	-131.748	47.109	0	329.30	0	5.1980	0	33.8720	0	26.761	0	326.303	0	94.6	4	30.7	4	-1E+10	1	-1E+10	1	-1E+10	1	-1E+10	1	-1E+10	1	-1E+10	1
4902549	44	C	10/26/2021	11:55	-131.748	47.109	0	330.40	0	5.1930	0	33.8710	0	26.761	0	327.393	0	94.0	4	30.5	4	-1E+10	1	-1E+10	1	-1E+10	1	-1E+10	1	-1E+10	1	-1E+10	1
4902549	44	C	10/26/2021	11:55	-131.748	47.109	0	331.40	0	5.1750	0	33.8730	0	26.765	0	328.383	0	93.4	4	30.3	4	-1E+10	1	-1E+10	1	-1E+10	1	-1E+10	1	-1E+10	1	-1E+10	1
4902549	44	C	10/26/2021	11:55	-131.748	47.109	0	332.50	0	5.1470	0	33.8750	0	26.770	0	329.472	0	93.1	4	30.1	4	-1E+10	1	-1E+10	1	-1E+10	1	-1E+10	1	-1E+10	1	-1E+10	1
4902549	44	C	10/26/2021	11:55	-131.748	47.109	0	333.50	0	5.1450	0	33.8740	0	26.769	0	330.462	0	92.6	4	30.0	4	-1E+10	1	-1E+10	1	-1E+10	1	-1E+10	1	-1E+10	1	-1E+10	1
4902549	44	C	10/26/2021	11:55	-131.748	47.109	0	334.60	0	5.1450	0	33.8730	0	26.768	0	331.551	0	92.1	4	29.8	4	-1E+10	1	-1E+10	1	-1E+10	1	-1E+10	1	-1E+10	1	-1E+10	1
4902549	44	C	10/26/2021	11:55	-131.748	47.109	0	335.60	0	5.1360	0	33.8740	0	26.770	0	332.541	0	91.5	4	29.6	4	-1E+10	1	-1E+10	1	-1E+10	1	-1E+10	1	-1E+10	1	-1E+10	1
4902549	44	C	10/26/2021	11:55	-131.748	47.109	0	336.70	0	5.1140	0	33.8760	0	26.774	0	333.630	0	91.1	4	29.5	4	-1E+10	1	-1E+10	1	-1E+10	1	-1E+10	1	-1E+10	1	-1E+10	1
4902549	44	C	10/26/2021	11:55	-131.748	47.109	0	337.70	0	5.0950	0	33.8770	0	26.777	0	334.620	0	90.8	4	29.4	4	-1E+10	1	-1E+10	1	-1E+10	1	-1E+10	1	-1E+10	1	-1E+10	1
4902549	44	C	10/26/2021	11:55	-131.748	47.109	0	338.80	0	5.0920	0	33.8770	0	26.778	0	335.709	0	90.3	4	29.2	4	-1E+10	1	-1E+10	1	-1E+10	1	-1E+10	1	-1E+10	1	-1E+10	1
4902549	44	C	10/26/2021	11:55	-131.748	47.109	0	339.90	0	5.0890	0	33.8780	0	26.779	0	336.798	0	89.8	4	29.0	4	-1E+10	1	-1E+10	1	-1E+10	1	-1E+10	1	-1E+10	1	-1E+10	1
4902549	44	C	10/26/2021	11:55	-131.748	47.109	0	340.90	0	5.0800	0	33.8780	0	26.780	0	337.788	0	89.4	4	28.9	4	-1E+10	1	-1E+10	1	-1E+10	1	-1E+10	1	-1E+10	1	-1E+10	1
4902549	44	C	10/26/2021	11:55	-131.748	47.109	0	342.00	0	5.0590	0	33.8780	0	26.782	0	338.877	0	89.0	4	28.8	4	-1E+10	1	-1E+10	1	-1E+10	1	-1E+10	1	-1E+10	1	-1E+10	1
4902549	44	C	10/26/2021	11:55	-131.748	47.109	0	343.10	0	5.0550	0	33.8780	0	26.783	0	339.967	0	88.6	4	28.6	4	-1E+10	1	-1E+10	1	-1E+10	1	-1E+10	1	-1E+10	1	-1E+10	1
4902549	44	C	10/26/2021	11:55	-131.748	47.109	0	344.10	0	5.0510	0	33.8780	0	26.783	0	340.957	0	88.2	4	28.5	4	-1E+10	1	-1E+10	1	-1E+10	1	-1E+10	1	-1E+10	1	-1E+10	1
4902549	44	C	10/26/2021	11:55	-131.748	47.109	0	345.20	0	5.0470	0	33.8780	0	26.784	0	342.046	0	87.6	4	28.3	4	-1E+10	1	-1E+10	1	-1E+10	1	-1E+10	1	-1E+10	1	-1E+10	1
4902549	44	C	10/26/2021	11:55	-131.748	47.109	0	346.20	0	5.0230	0	33.8810	0	26.789	0	343.036	0	87.2	4	28.1	4	-1E+10	1	-1E+10	1	-1E+10	1	-1E+10	1	-1E+10	1	-1E+10	1
4902549	44	C	10/26/2021	11:55	-131.748	47.109	0	347.30	0	5.0020	0	33.8780	0	26.789	0	344.125	0	86.7	4	28.0	4	-1E+10	1	-1E+10	1	-1E+10	1	-1E+10	1	-1E+10	1	-1E+10	1
4902549	44	C	10/26/2021	11:55	-131.748	47.109	0	348.40	0	4.9930	0	33.8790	0	26.791	0	345.214	0	86.3	4	27.8	4	-1E+10	1	-1E+10	1	-1E+10	1	-1E+10	1	-1E+10	1	-1E+10	1
4902549	44	C	10/26/2021	11:55	-131.748	47.109	0	349.40	0	4.9870	0	33.8800	0	26.792	0	346.204	0	85.8	4	27.7	4	-1E+10	1	-1E+10	1	-1E+10	1	-1E+10	1	-1E+10	1	-1E+10	1
4902549	44	C	10/26/2021	11:55	-131.748	47.109	0	352.60	0	4.9720	0	33.8820	0	26.795	0	349.372	0	84.2	4	27.2	4	-1E+10	1	-1E+10	1	-1E+10	1	-1E+10	1	-1E+10	1	-1E+10	1
4902549	44	C	10/26/2021	11:55	-131.748	47.109	0	358.00	0	4.9100	0	33.8850	0	26.805	0	354.718	0	81.4	4	26.2	4	-1E+10	1	-1E+10	1	-1E+10	1	-1E+10	1	-1E+10	1	-1E+10	1
4902549	44	C	10/26/2021	11:55	-131.748	47.109	0	362.90	0	4.8350	0	33.8910	0	26.818	0	359.569	0	79.7	4	25.6	4	-1E+10	1	-1E+10	1	-1E+10	1	-1E+10	1	-1E+10	1	-1E+10	1
4902549	44	C	10/26/2021	11:55	-131.748	47.109	0	367.90	0	4.8190	0	33.8920	0	26.820	0	364.518	0	78.4	4	25.2	4	-1E+10	1	-1E+10	1	-1E+10	1	-1E+10	1	-1E+10	1	-1E+10	1
4902549	44	C	10/26/2021	11:55	-131.748	47.109	0	372.80	0	4.7960	0	33.8940	0	26.825	0	369.369	0	76.4	4	24.5	4	-1E+10	1	-1E+10	1	-1E+10	1	-1E+10	1	-1E+10	1	-1E+10	1
4902549	44	C	10/26/2021	11:55	-131.748	47.109	0	377.70	0	4.7620	0	33.8970	0	26.831	0	374.219	0	74.1	4	23.8	4	-1E+10	1	-1E+10	1	-1E+10	1	-1E+10	1	-1E+10	1	-1E+10	1
4902549	44	C	10/26/2021	11:55	-131.748	47.109	0	383.20	0	4.7100	0	33.9000	0	26.839	0	379.664	0	71.4	4	22.9	4	-1E+10	1	-1E+10	1	-1E+10	1	-1E+10	1	-1E+10	1	-1E+10	1
4902549	44	C	10/26/2021	11:55	-131.748	47.109	0	388.10	0	4.6630	0	33.9060	0	26.849	0	384.514	0	69.5	4	22.2	4	-1E+10	1	-1E+10	1	-1E+10	1	-1E+10	1	-1E+10	1	-1E+10	1
4902549	44	C	10/26/2021	11:55	-131.748	47.109	0	393.10	0	4.6340	0	33.9090	0	26.855	0	389.463	0	68.4	4	21.9	4	-1E+10	1	-1E+10	1	-1E+10	1	-1E+10	1	-1E+10	1	-1E+10	1
4902549	44	C	10/26/2021	11:55	-131.748	47.109	0	397.90	0	4.6180	0	33.9130	0	26.860	0	394.214	0	67.4	4	21.5	4	-1E+10	1	-1E+10	1	-1E+10	1	-1E+10	1	-1E+10	1	-1E+10	1
4902549	44	C	10/26/2021	11:55	-131.748	47.109	0	402.70	0	4.6080	0	33.9150	0	26.862	0	398.965	0	66.2	4	21.2	4	-1E+10	1	-1E+10	1	-1E+10	1	-1E+10	1	-1E+10	1	-1E+10	1
4902549	44	C	10/26/2021	11:55	-131.748	47.109	0	408.00	0	4.5890	0	33.9200	0	26.868	0	404.211	0	64.4	4	20.6	4	-1E+10	1	-1E+10	1	-1E+10	1	-1E+10	1	-1E+10	1	-1E+10	1
4902549	44	C	10/26/2021	11:55	-131.748	47.109	0	413.20	0	4.5640	0	33.9270	0	26.877	0	409.357	0	63.0	4	20.1	4	-1E+10	1	-1E+10	1	-1E+10	1	-1E+10	1	-1E+10	1	-1E+10	1
4902549	44	C	10/26/2021	11:55	-131.748	47.109	0	418.10	0	4.5490	0	33.9320	0	26.882	0	414.207	0	61.8	4	19.7	4	-1E+10	1	-1E+10	1	-1E+10	1	-1E+10	1	-1E+10	1	-1E+10	1
4902549	44	C	10/26/2021	11:55	-131.748	47.109	0	423.00	0	4.5290	0	33.9370	0	26.888	0	419.056	0	60.4	4	19.3	4	-1E+10	1	-1E+10	1	-1E+10	1	-1E+10	1	-1E+10	1	-1E+10	1
4902549	44	C	10/26/2021	11:55	-131.748	47.109	0	428.10	0	4.5090	0	33.9450	0	26.897	0	424.103	0	59.2	4	18.9	4	-1E+10	1	-1E+10	1	-1E+10	1	-1E+10	1	-1E+10	1	-1E+10	1
4902549	44	C	10/26/2021	11:55	-131.748	47.109	0	433.20	0	4.4990	0	33.9490	0	26.901	0	429.150	0	58.1	4	18.5	4	-1E+10	1	-1E+10	1	-1E+10	1	-1E+10	1	-1E+10	1	-1E+10	1
4902549	44	C	10/26/2021	11:55	-131.748	47.109	0	438.10	0	4.4830	0	33.9580	0	26.910	0	434.000	0	56.9	4	18.2	4	-1E+10	1	-1E+10	1	-1E+10	1	-1E+10	1	-1E+10	1	-1E+10	1
4902549	44	C	10/26/2021	11:55	-131.748	47.109	0	443.00	0	4.4730	0	33.9620	0	26.914	0	438.849	0	55.7	4	17.8	4	-1E+10	1	-1E+10	1	-1E+10	1	-1E+10	1	-1E+10	1	-1E+10	1
4902549	44	C	10/26/2021	11:55	-131.748	47.109	0	448.00	0	4.4560	0	33.9700	0	26.923	0	443.796	0	54.5	4	17.4	4	-1E+10	1	-1E+10	1	-1E+10	1	-1E+10	1	-1E+10	1	-1E+10	1
4902549	44	C	10/26/2021	11:55	-131.748	47.109	0	452.70	0	4.4430	0	33.9750	0	26.928	0	448.447	0	53.6	4	17.1	4	-1E+10	1	-1E+10	1	-1E+10	1	-1E+10	1	-1E+10	1	-1E+10	1
4902549	44	C	10/26/2021	11:55	-131.748	47.109	0	457.90	0	4.4320	0	33.9790	0	26.932	0	453.593	0	52.4	4	16.7	4	-1E+10	1	-1E+10	1	-1E+10	1	-1E+10	1	-1E+10	1	-1E+10	1
4902549	44	C	10/26/2021	11:55	-131.748	47.109	0	463.20	0	4.4210	0	33.9840	0	26.938	0	458.837	0	51.3	4	16.3	4	-1E+10	1	-1E+10	1	-1E+10	1	-1E+10	1	-1E+10	1	-1E+10	1
4902549	44	C	10/26/2021	11:55	-131.748	47.109	0	468.00	0	4.4180	0	33.9860	0	26.940	0	463.586	0	49.8	4	15.9	4	-1E+10	1	-1E+10	1	-1E+10	1	-1E+10	1	-1E+10	1	-1E+10	1
4902549	44	C	10/26/2021	11:55	-131.748	47.109	0	472.90	0	4.3990	0	33.9940	0	26.948	0	468.435	0	48.1	4	15.3	4	-1E+10	1	-1E+10	1	-1E+10	1	-1E+10	1	-1E+10	1	-1E+10	1
4902549	44	C	10/26/2021	11:55	-131.748	47.109	0	477.90	0	4.3830	0	34.0000	0	26.954	0	473.382	0	46.6	4	14.8	4	-1E+10	1	-1E+10	1	-1E+10	1	-1E+10	1	-1E+10	1	-1E+10	1
4902549	44	C	10/26/2021	11:55	-131.748	47.109	0	482.90	0	4.3650	0	34.0070	0	26.962	0	478.329	0	45.3	4	14.4	4	-1E+10	1	-1E+10	1	-1E+10	1	-1E+10	1	-1E+10	1	-1E+10	1
4902549	44	C	10/26/2021	11:55	-131.748	47.109	0	488.00	0	4.3550	0	34.0100	0	26.965	0	483.374	0	43.8	4	13.9	4	-1E+10	1	-1E+10	1	-1E+10	1	-1E+10	1	-1E+10	1	-1E+10	1
4902549	44	C	10/26/2021	11:55	-131.748	47.109	0	493.30	0	4.3330	0	34.0190	0	26.975	0	488.618	0	42.5	4	13.5	4	-1E+10	1	-1E+10	1	-1E+10	1	-1E+10	1	-1E+10	1	-1E+10	1
4902549	44	C	10/26/2021	11:55	-131.748	47.109	0	498.10	0	4.3230	0	34.0240	0	26.980	0	493.367	0	41.7	4	13.2	4	-1E+10	1	-1E+10	1	-1E+10	1	-1E+10	1	-1E+10	1	-1E+10	1
4902549	44	C	10/26/2021	11:55	-131.748	47.109	0	502.90	0	4.3120	0	34.0280	0	26.984	0	498.115	0	41.1	4	13.1	4	-1E+10	1	-1E+10	1	-1E+10	1	-1E+10	1	-1E+10	1	-1E+10	1
4902549	44	C	10/26/2021	11:55	-131.748	47.109	0	507.80	0	4.3100	0	34.0290	0	26.985	0	502.963	0	40.5	4	12.9	4	-1E+10	1	-1E+10	1	-1E+10	1	-1E+10	1	-1E+10	1	-1E+10	1
4902549	44	C	10/26/2021	11:55	-131.748	47.109	0	512.70	0	4.3070	0	34.0300	0	26.987	0	507.810	0	39.7	4	12.6	4	-1E+10	1	-1E+10	1	-1E+10	1	-1E+10	1	-1E+10	1	-1E+10	1
4902549	44	C	10/26/2021	11:55	-131.748	47.109	0	518.10	0	4.2990	0	34.0330	0	26.990	0	513.152	0	38.2	4	12.1	4	-1E+10	1	-1E+10	1	-1E+10	1	-1E+10	1	-1E+10	1	-1E+10	1
4902549	44	C	10/26/2021	11:55	-131.748	47.109	0	523.00	0	4.2760	0	34.0430	0	27.000	0	517.999	0	37.2	4	11.8	4	-1E+10	1	-1E+10	1	-1E+10	1	-1E+10	1	-1E+10	1	-1E+10	1
4902549	44	C	10/26/2021	11:55	-131.748	47.109	0	528.00	0	4.2710	0	34.0450	0	27.002	0	522.945	0	36.4	4	11.6	4	-1E+10	1	-1E+10	1	-1E+10	1	-1E+10	1	-1E+10	1	-1E+10	1
4902549	44	C	10/26/2021	11:55	-131.748	47.109	0	532.90	0	4.2660	0	34.0460	0	27.004	0	527.792	0	35.3	4	11.2	4	-1E+10	1	-1E+10	1	-1E+10	1	-1E+10	1	-1E+10	1	-1E+10	1
4902549	44	C	10/26/2021	11:55	-131.748	47.109	0	538.10	0	4.2470	0	34.0540	0	27.012	0	532.935	0	34.2	4	10.9	4	-1E+10	1	-1E+10	1	-1E+10	1	-1E+10	1	-1E+10	1	-1E+10	1
4902549	44	C	10/26/2021	11:55	-131.748	47.109	0	543.10	0	4.2360	0	34.0570	0	27.016	0	537.881	0	33.0	4	10.5	4	-1E+10	1	-1E+10	1	-1E+10	1	-1E+10	1	-1E+10	1	-1E+10	1
4902549	44	C	10/26/2021	11:55	-131.748	47.109	0	547.90	0	4.2150	0	34.0650	0	27.024	0	542.629	0	31.9	4	10.1	4	-1E+10	1	-1E+10	1	-1E+10	1	-1E+10	1	-1E+10	1	-1E+10	1
4902549	44	C	10/26/2021	11:55	-131.748	47.109	0	552.70	0	4.2030	0	34.0690	0	27.029	0	547.376	0	31.2	4	9.9	4	-1E+10	1	-1E+10	1	-1E+10	1	-1E+10	1	-1E+10	1	-1E+10	1
4902549	44	C	10/26/2021	11:55	-131.748	47.109	0	557.50	0	4.1970	0	34.0730	0	27.033	0	552.123	0	30.4	4	9.7	4	-1E+10	1	-1E+10	1	-1E+10	1	-1E+10	1	-1E+10	1	-1E+10	1
4902549	44	C	10/26/2021	11:55	-131.748	47.109	0	562.50	0	4.1940	0	34.0750	0	27.035	0	557.069	0	29.9	4	9.5	4	-1E+10	1	-1E+10	1	-1E+10	1	-1E+10	1	-1E+10	1	-1E+10	1
4902549	44	C	10/26/2021	11:55	-131.748	47.109	0	567.50	0	4.1890	0	34.0780	0	27.038	0	562.013	0	29.1	4	9.2	4	-1E+10	1	-1E+10	1	-1E+10	1	-1E+10	1	-1E+10	1	-1E+10	1
4902549	44	C	10/26/2021	11:55	-131.748	47.109	0	572.50	0	4.1780	0	34.0820	0	27.042	0	566.958	0	28.5	4	9.0	4	-1E+10	1	-1E+10	1	-1E+10	1	-1E+10	1	-1E+10	1	-1E+10	1
4902549	44	C	10/26/2021	11:55	-131.748	47.109	0	577.60	0	4.1620	0	34.0840	0	27.045	0	572.002	0	27.5	4	8.7	4	-1E+10	1	-1E+10	1	-1E+10	1	-1E+10	1	-1E+10	1	-1E+10	1
4902549	44	C	10/26/2021	11:55	-131.748	47.109	0	582.80	0	4.1590	0	34.0900	0	27.050	0	577.144	0	26.0	4	8.2	4	-1E+10	1	-1E+10	1	-1E+10	1	-1E+10	1	-1E+10	1	-1E+10	1
4902549	44	C	10/26/2021	11:55	-131.748	47.109	0	588.10	0	4.1510	0	34.0970	0	27.057	0	582.385	0	25.3	4	8.0	4	-1E+10	1	-1E+10	1	-1E+10	1	-1E+10	1	-1E+10	1	-1E+10	1
4902549	44	C	10/26/2021	11:55	-131.748	47.109	0	593.10	0	4.1430	0	34.0990	0	27.059	0	587.330	0	24.8	4	7.8	4	-1E+10	1	-1E+10	1	-1E+10	1	-1E+10	1	-1E+10	1	-1E+10	1
4902549	44	C	10/26/2021	11:55	-131.748	47.109	0	597.90	0	4.1330	0	34.1030	0	27.063	0	592.076	0	24.2	4	7.7	4	-1E+10	1	-1E+10	1	-1E+10	1	-1E+10	1	-1E+10	1	-1E+10	1
4902549	44	C	10/26/2021	11:55	-131.748	47.109	0	602.80	0	4.1320	0	34.1060	0	27.066	0	596.922	0	23.7	4	7.5	4	-1E+10	1	-1E+10	1	-1E+10	1	-1E+10	1	-1E+10	1	-1E+10	1
4902549	44	C	10/26/2021	11:55	-131.748	47.109	0	607.70	0	4.1240	0	34.1100	0	27.070	0	601.767	0	23.6	4	7.5	4	-1E+10	1	-1E+10	1	-1E+10	1	-1E+10	1	-1E+10	1	-1E+10	1
4902549	44	C	10/26/2021	11:55	-131.748	47.109	0	612.70	0	4.0960	0	34.1120	0	27.075	0	606.711	0	23.3	4	7.4	4	-1E+10	1	-1E+10	1	-1E+10	1	-1E+10	1	-1E+10	1	-1E+10	1
4902549	44	C	10/26/2021	11:55	-131.748	47.109	0	617.90	0	4.0900	0	34.1150	0	27.078	0	611.852	0	22.6	4	7.2	4	-1E+10	1	-1E+10	1	-1E+10	1	-1E+10	1	-1E+10	1	-1E+10	1
4902549	44	C	10/26/2021	11:55	-131.748	47.109	0	623.00	0	4.0800	0	34.1190	0	27.082	0	616.895	0	22.5	4	7.1	4	-1E+10	1	-1E+10	1	-1E+10	1	-1E+10	1	-1E+10	1	-1E+10	1
4902549	44	C	10/26/2021	11:55	-131.748	47.109	0	627.70	0	4.0640	0	34.1190	0	27.084	0	621.542	0	22.2	4	7.0	4	-1E+10	1	-1E+10	1	-1E+10	1	-1E+10	1	-1E+10	1	-1E+10	1
4902549	44	C	10/26/2021	11:55	-131.748	47.109	0	632.60	0	4.0420	0	34.1220	0	27.088	0	626.386	0	21.5	4	6.8	4	-1E+10	1	-1E+10	1	-1E+10	1	-1E+10	1	-1E+10	1	-1E+10	1
4902549	44	C	10/26/2021	11:55	-131.748	47.109	0	637.50	0	4.0340	0	34.1230	0	27.090	0	631.231	0	20.2	4	6.4	4	-1E+10	1	-1E+10	1	-1E+10	1	-1E+10	1	-1E+10	1	-1E+10	1
4902549	44	C	10/26/2021	11:55	-131.748	47.109	0	642.50	0	4.0210	0	34.1300	0	27.097	0	636.174	0	18.2	4	5.7	4	-1E+10	1	-1E+10	1	-1E+10	1	-1E+10	1	-1E+10	1	-1E+10	1
4902549	44	C	10/26/2021	11:55	-131.748	47.109	0	647.50	0	4.0530	0	34.1420	0	27.103	0	641.117	0	15.7	4	5.0	4	-1E+10	1	-1E+10	1	-1E+10	1	-1E+10	1	-1E+10	1	-1E+10	1
4902549	44	C	10/26/2021	11:55	-131.748	47.109	0	652.60	0	4.0860	0	34.1570	0	27.112	0	646.159	0	15.2	4	4.8	4	-1E+10	1	-1E+10	1	-1E+10	1	-1E+10	1	-1E+10	1	-1E+10	1
4902549	44	C	10/26/2021	11:55	-131.748	47.109	0	657.60	0	4.0720	0	34.1630	0	27.118	0	651.102	0	15.5	4	4.9	4	-1E+10	1	-1E+10	1	-1E+10	1	-1E+10	1	-1E+10	1	-1E+10	1
4902549	44	C	10/26/2021	11:55	-131.748	47.109	0	662.60	0	4.0550	0	34.1650	0	27.121	0	656.044	0	16.4	4	5.2	4	-1E+10	1	-1E+10	1	-1E+10	1	-1E+10	1	-1E+10	1	-1E+10	1
4902549	44	C	10/26/2021	11:55	-131.748	47.109	0	667.70	0	3.9940	0	34.1620	0	27.125	0	661.086	0	17.5	4	5.5	4	-1E+10	1	-1E+10	1	-1E+10	1	-1E+10	1	-1E+10	1	-1E+10	1
4902549	44	C	10/26/2021	11:55	-131.748	47.109	0	672.80	0	3.9450	0	34.1570	0	27.126	0	666.127	0	17.8	4	5.6	4	-1E+10	1	-1E+10	1	-1E+10	1	-1E+10	1	-1E+10	1	-1E+10	1
4902549	44	C	10/26/2021	11:55	-131.748	47.109	0	677.90	0	3.9170	0	34.1590	0	27.131	0	671.168	0	17.7	4	5.6	4	-1E+10	1	-1E+10	1	-1E+10	1	-1E+10	1	-1E+10	1	-1E+10	1
4902549	44	C	10/26/2021	11:55	-131.748	47.109	0	683.00	0	3.9030	0	34.1610	0	27.134	0	676.209	0	17.4	4	5.5	4	-1E+10	1	-1E+10	1	-1E+10	1	-1E+10	1	-1E+10	1	-1E+10	1
4902549	44	C	10/26/2021	11:55	-131.748	47.109	0	688.00	0	3.8940	0	34.1640	0	27.137	0	681.151	0	17.1	4	5.4	4	-1E+10	1	-1E+10	1	-1E+10	1	-1E+10	1	-1E+10	1	-1E+10	1
4902549	44	C	10/26/2021	11:55	-131.748	47.109	0	693.10	0	3.8830	0	34.1670	0	27.141	0	686.192	0	16.8	4	5.3	4	-1E+10	1	-1E+10	1	-1E+10	1	-1E+10	1	-1E+10	1	-1E+10	1
4902549	44	C	10/26/2021	11:55	-131.748	47.109	0	698.10	0	3.8750	0	34.1700	0	27.144	0	691.134	0	16.4	4	5.2	4	-1E+10	1	-1E+10	1	-1E+10	1	-1E+10	1	-1E+10	1	-1E+10	1
4902549	44	C	10/26/2021	11:55	-131.748	47.109	0	703.00	0	3.8620	0	34.1730	0	27.148	0	695.977	0	16.1	4	5.1	4	-1E+10	1	-1E+10	1	-1E+10	1	-1E+10	1	-1E+10	1	-1E+10	1
4902549	44	C	10/26/2021	11:55	-131.748	47.109	0	708.00	0	3.8550	0	34.1760	0	27.151	0	700.919	0	15.7	4	4.9	4	-1E+10	1	-1E+10	1	-1E+10	1	-1E+10	1	-1E+10	1	-1E+10	1
4902549	44	C	10/26/2021	11:55	-131.748	47.109	0	712.90	0	3.8430	0	34.1790	0	27.154	0	705.762	0	15.3	4	4.8	4	-1E+10	1	-1E+10	1	-1E+10	1	-1E+10	1	-1E+10	1	-1E+10	1
4902549	44	C	10/26/2021	11:55	-131.748	47.109	0	717.80	0	3.8320	0	34.1830	0	27.159	0	710.604	0	14.9	4	4.7	4	-1E+10	1	-1E+10	1	-1E+10	1	-1E+10	1	-1E+10	1	-1E+10	1
4902549	44	C	10/26/2021	11:55	-131.748	47.109	0	722.80	0	3.8190	0	34.1870	0	27.163	0	715.545	0	14.5	4	4.6	4	-1E+10	1	-1E+10	1	-1E+10	1	-1E+10	1	-1E+10	1	-1E+10	1
4902549	44	C	10/26/2021	11:55	-131.748	47.109	0	727.70	0	3.8090	0	34.1900	0	27.167	0	720.388	0	14.1	4	4.4	4	-1E+10	1	-1E+10	1	-1E+10	1	-1E+10	1	-1E+10	1	-1E+10	1
4902549	44	C	10/26/2021	11:55	-131.748	47.109	0	732.60	0	3.7990	0	34.1930	0	27.170	0	725.230	0	13.6	4	4.3	4	-1E+10	1	-1E+10	1	-1E+10	1	-1E+10	1	-1E+10	1	-1E+10	1
4902549	44	C	10/26/2021	11:55	-131.748	47.109	0	737.50	0	3.7820	0	34.1990	0	27.176	0	730.072	0	13.1	4	4.1	4	-1E+10	1	-1E+10	1	-1E+10	1	-1E+10	1	-1E+10	1	-1E+10	1
4902549	44	C	10/26/2021	11:55	-131.748	47.109	0	742.50	0	3.7760	0	34.2030	0	27.180	0	735.013	0	12.6	4	4.0	4	-1E+10	1	-1E+10	1	-1E+10	1	-1E+10	1	-1E+10	1	-1E+10	1
4902549	44	C	10/26/2021	11:55	-131.748	47.109	0	747.50	0	3.7590	0	34.2080	0	27.186	0	739.954	0	12.4	4	3.9	4	-1E+10	1	-1E+10	1	-1E+10	1	-1E+10	1	-1E+10	1	-1E+10	1
4902549	44	C	10/26/2021	11:55	-131.748	47.109	0	752.50	0	3.7380	0	34.2130	0	27.192	0	744.894	0	12.1	4	3.8	4	-1E+10	1	-1E+10	1	-1E+10	1	-1E+10	1	-1E+10	1	-1E+10	1
4902549	44	C	10/26/2021	11:55	-131.748	47.109	0	757.60	0	3.7250	0	34.2160	0	27.196	0	749.934	0	11.9	4	3.7	4	-1E+10	1	-1E+10	1	-1E+10	1	-1E+10	1	-1E+10	1	-1E+10	1
4902549	44	C	10/26/2021	11:55	-131.748	47.109	0	762.80	0	3.7200	0	34.2170	0	27.197	0	755.072	0	11.6	4	3.6	4	-1E+10	1	-1E+10	1	-1E+10	1	-1E+10	1	-1E+10	1	-1E+10	1
4902549	44	C	10/26/2021	11:55	-131.748	47.109	0	768.10	0	3.7070	0	34.2210	0	27.202	0	760.308	0	11.3	4	3.5	4	-1E+10	1	-1E+10	1	-1E+10	1	-1E+10	1	-1E+10	1	-1E+10	1
4902549	44	C	10/26/2021	11:55	-131.748	47.109	0	773.30	0	3.6980	0	34.2230	0	27.204	0	765.446	0	11.0	4	3.5	4	-1E+10	1	-1E+10	1	-1E+10	1	-1E+10	1	-1E+10	1	-1E+10	1
4902549	44	C	10/26/2021	11:55	-131.748	47.109	0	778.20	0	3.6830	0	34.2270	0	27.209	0	770.287	0	10.7	4	3.4	4	-1E+10	1	-1E+10	1	-1E+10	1	-1E+10	1	-1E+10	1	-1E+10	1
4902549	44	C	10/26/2021	11:55	-131.748	47.109	0	782.60	0	3.6680	0	34.2300	0	27.213	0	774.634	0	10.5	4	3.3	4	-1E+10	1	-1E+10	1	-1E+10	1	-1E+10	1	-1E+10	1	-1E+10	1
4902549	44	C	10/26/2021	11:55	-131.748	47.109	0	787.50	0	3.6530	0	34.2340	0	27.217	0	779.475	0	10.3	4	3.2	4	-1E+10	1	-1E+10	1	-1E+10	1	-1E+10	1	-1E+10	1	-1E+10	1
4902549	44	C	10/26/2021	11:55	-131.748	47.109	0	792.60	0	3.6380	0	34.2380	0	27.222	0	784.514	0	10.2	4	3.2	4	-1E+10	1	-1E+10	1	-1E+10	1	-1E+10	1	-1E+10	1	-1E+10	1
4902549	44	C	10/26/2021	11:55	-131.748	47.109	0	797.70	0	3.6360	0	34.2380	0	27.222	0	789.552	0	10.1	4	3.2	4	-1E+10	1	-1E+10	1	-1E+10	1	-1E+10	1	-1E+10	1	-1E+10	1
4902549	44	C	10/26/2021	11:55	-131.748	47.109	0	802.90	0	3.6270	0	34.2410	0	27.226	0	794.689	0	9.9	4	3.1	4	-1E+10	1	-1E+10	1	-1E+10	1	-1E+10	1	-1E+10	1	-1E+10	1
4902549	44	C	10/26/2021	11:55	-131.748	47.109	0	808.10	0	3.6200	0	34.2430	0	27.228	0	799.826	0	9.8	4	3.1	4	-1E+10	1	-1E+10	1	-1E+10	1	-1E+10	1	-1E+10	1	-1E+10	1
4902549	44	C	10/26/2021	11:55	-131.748	47.109	0	813.10	0	3.6110	0	34.2460	0	27.231	0	804.765	0	9.6	4	3.0	4	-1E+10	1	-1E+10	1	-1E+10	1	-1E+10	1	-1E+10	1	-1E+10	1
4902549	44	C	10/26/2021	11:55	-131.748	47.109	0	818.00	0	3.6040	0	34.2480	0	27.233	0	809.605	0	9.4	4	3.0	4	-1E+10	1	-1E+10	1	-1E+10	1	-1E+10	1	-1E+10	1	-1E+10	1
4902549	44	C	10/26/2021	11:55	-131.748	47.109	0	823.00	0	3.6000	0	34.2500	0	27.236	0	814.544	0	9.3	4	2.9	4	-1E+10	1	-1E+10	1	-1E+10	1	-1E+10	1	-1E+10	1	-1E+10	1
4902549	44	C	10/26/2021	11:55	-131.748	47.109	0	828.00	0	3.5920	0	34.2520	0	27.238	0	819.483	0	9.1	4	2.8	4	-1E+10	1	-1E+10	1	-1E+10	1	-1E+10	1	-1E+10	1	-1E+10	1
4902549	44	C	10/26/2021	11:55	-131.748	47.109	0	833.00	0	3.5850	0	34.2540	0	27.240	0	824.422	0	9.0	4	2.8	4	-1E+10	1	-1E+10	1	-1E+10	1	-1E+10	1	-1E+10	1	-1E+10	1
4902549	44	C	10/26/2021	11:55	-131.748	47.109	0	837.70	0	3.5760	0	34.2570	0	27.244	0	829.064	0	178.1	8	55.7	8	-1E+10	1	-1E+10	1	-1E+10	1	-1E+10	1	-1E+10	1	-1E+10	1
4902549	44	C	10/26/2021	11:55	-131.748	47.109	0	842.90	0	3.5590	0	34.2610	0	27.248	0	834.200	0	8.7	4	2.7	4	-1E+10	1	-1E+10	1	-1E+10	1	-1E+10	1	-1E+10	1	-1E+10	1
4902549	44	C	10/26/2021	11:55	-131.748	47.109	0	848.00	0	3.5490	0	34.2650	0	27.253	0	839.237	0	8.6	4	2.7	4	-1E+10	1	-1E+10	1	-1E+10	1	-1E+10	1	-1E+10	1	-1E+10	1
4902549	44	C	10/26/2021	11:55	-131.748	47.109	0	852.80	0	3.5450	0	34.2660	0	27.254	0	843.978	0	8.6	4	2.7	4	-1E+10	1	-1E+10	1	-1E+10	1	-1E+10	1	-1E+10	1	-1E+10	1
4902549	44	C	10/26/2021	11:55	-131.748	47.109	0	857.60	0	3.5420	0	34.2670	0	27.255	0	848.719	0	8.5	4	2.6	4	-1E+10	1	-1E+10	1	-1E+10	1	-1E+10	1	-1E+10	1	-1E+10	1
4902549	44	C	10/26/2021	11:55	-131.748	47.109	0	862.50	0	3.5300	0	34.2700	0	27.258	0	853.558	0	8.3	4	2.6	4	-1E+10	1	-1E+10	1	-1E+10	1	-1E+10	1	-1E+10	1	-1E+10	1
4902549	44	C	10/26/2021	11:55	-131.748	47.109	0	867.90	0	3.5150	0	34.2740	0	27.263	0	858.891	0	8.1	4	2.5	4	-1E+10	1	-1E+10	1	-1E+10	1	-1E+10	1	-1E+10	1	-1E+10	1
4902549	44	C	10/26/2021	11:55	-131.748	47.109	0	873.20	0	3.5040	0	34.2770	0	27.267	0	864.125	0	8.0	4	2.5	4	-1E+10	1	-1E+10	1	-1E+10	1	-1E+10	1	-1E+10	1	-1E+10	1
4902549	44	C	10/26/2021	11:55	-131.748	47.109	0	878.10	0	3.4900	0	34.2810	0	27.271	0	868.964	0	8.0	4	2.5	4	-1E+10	1	-1E+10	1	-1E+10	1	-1E+10	1	-1E+10	1	-1E+10	1
4902549	44	C	10/26/2021	11:55	-131.748	47.109	0	883.10	0	3.4840	0	34.2830	0	27.273	0	873.901	0	7.9	4	2.5	4	-1E+10	1	-1E+10	1	-1E+10	1	-1E+10	1	-1E+10	1	-1E+10	1
4902549	44	C	10/26/2021	11:55	-131.748	47.109	0	888.00	0	3.4730	0	34.2870	0	27.278	0	878.740	0	7.9	4	2.5	4	-1E+10	1	-1E+10	1	-1E+10	1	-1E+10	1	-1E+10	1	-1E+10	1
4902549	44	C	10/26/2021	11:55	-131.748	47.109	0	892.90	0	3.4640	0	34.2880	0	27.279	0	883.579	0	7.8	4	2.4	4	-1E+10	1	-1E+10	1	-1E+10	1	-1E+10	1	-1E+10	1	-1E+10	1
4902549	44	C	10/26/2021	11:55	-131.748	47.109	0	897.90	0	3.4550	0	34.2920	0	27.283	0	888.516	0	7.7	4	2.4	4	-1E+10	1	-1E+10	1	-1E+10	1	-1E+10	1	-1E+10	1	-1E+10	1
4902549	44	C	10/26/2021	11:55	-131.748	47.109	0	902.90	0	3.4530	0	34.2940	0	27.285	0	893.453	0	7.7	4	2.4	4	-1E+10	1	-1E+10	1	-1E+10	1	-1E+10	1	-1E+10	1	-1E+10	1
4902549	44	C	10/26/2021	11:55	-131.748	47.109	0	907.80	0	3.4470	0	34.2960	0	27.287	0	898.291	0	7.6	4	2.4	4	-1E+10	1	-1E+10	1	-1E+10	1	-1E+10	1	-1E+10	1	-1E+10	1
4902549	44	C	10/26/2021	11:55	-131.748	47.109	0	912.80	0	3.4410	0	34.2980	0	27.290	0	903.228	0	7.5	4	2.3	4	-1E+10	1	-1E+10	1	-1E+10	1	-1E+10	1	-1E+10	1	-1E+10	1
4902549	44	C	10/26/2021	11:55	-131.748	47.109	0	917.80	0	3.4350	0	34.3000	0	27.292	0	908.165	0	7.4	4	2.3	4	-1E+10	1	-1E+10	1	-1E+10	1	-1E+10	1	-1E+10	1	-1E+10	1
4902549	44	C	10/26/2021	11:55	-131.748	47.109	0	922.80	0	3.4300	0	34.3020	0	27.294	0	913.101	0	7.3	4	2.3	4	-1E+10	1	-1E+10	1	-1E+10	1	-1E+10	1	-1E+10	1	-1E+10	1
4902549	44	C	10/26/2021	11:55	-131.748	47.109	0	927.80	0	3.4210	0	34.3050	0	27.297	0	918.038	0	7.2	4	2.3	4	-1E+10	1	-1E+10	1	-1E+10	1	-1E+10	1	-1E+10	1	-1E+10	1
4902549	44	C	10/26/2021	11:55	-131.748	47.109	0	932.80	0	3.4100	0	34.3080	0	27.301	0	922.974	0	7.2	4	2.2	4	-1E+10	1	-1E+10	1	-1E+10	1	-1E+10	1	-1E+10	1	-1E+10	1
4902549	44	C	10/26/2021	11:55	-131.748	47.109	0	937.80	0	3.4040	0	34.3100	0	27.303	0	927.910	0	7.1	4	2.2	4	-1E+10	1	-1E+10	1	-1E+10	1	-1E+10	1	-1E+10	1	-1E+10	1
4902549	44	C	10/26/2021	11:55	-131.748	47.109	0	942.80	0	3.3990	0	34.3110	0	27.304	0	932.846	0	7.0	4	2.2	4	-1E+10	1	-1E+10	1	-1E+10	1	-1E+10	1	-1E+10	1	-1E+10	1
4902549	44	C	10/26/2021	11:55	-131.748	47.109	0	947.80	0	3.3910	0	34.3140	0	27.307	0	937.782	0	6.9	4	2.2	4	-1E+10	1	-1E+10	1	-1E+10	1	-1E+10	1	-1E+10	1	-1E+10	1
4902549	44	C	10/26/2021	11:55	-131.748	47.109	0	952.80	0	3.3820	0	34.3170	0	27.311	0	942.718	0	6.8	4	2.1	4	-1E+10	1	-1E+10	1	-1E+10	1	-1E+10	1	-1E+10	1	-1E+10	1
4902549	44	C	10/26/2021	11:55	-131.748	47.109	0	957.90	0	3.3650	0	34.3210	0	27.316	0	947.753	0	6.8	4	2.1	4	-1E+10	1	-1E+10	1	-1E+10	1	-1E+10	1	-1E+10	1	-1E+10	1
4902549	44	C	10/26/2021	11:55	-131.748	47.109	0	963.00	0	3.3520	0	34.3230	0	27.318	0	952.787	0	6.8	4	2.1	4	-1E+10	1	-1E+10	1	-1E+10	1	-1E+10	1	-1E+10	1	-1E+10	1
4902549	44	C	10/26/2021	11:55	-131.748	47.109	0	968.00	0	3.3370	0	34.3270	0	27.323	0	957.723	0	6.8	4	2.1	4	-1E+10	1	-1E+10	1	-1E+10	1	-1E+10	1	-1E+10	1	-1E+10	1
4902549	44	C	10/26/2021	11:55	-131.748	47.109	0	973.10	0	3.3290	0	34.3270	0	27.324	0	962.757	0	6.9	4	2.1	4	-1E+10	1	-1E+10	1	-1E+10	1	-1E+10	1	-1E+10	1	-1E+10	1
4902549	44	C	10/26/2021	11:55	-131.748	47.109	0	978.30	0	3.3020	0	34.3310	0	27.330	0	967.890	0	7.0	4	2.2	4	-1E+10	1	-1E+10	1	-1E+10	1	-1E+10	1	-1E+10	1	-1E+10	1
4902549	44	C	10/26/2021	11:55	-131.748	47.109	0	982.90	0	3.2920	0	34.3320	0	27.331	0	972.430	0	7.0	4	2.2	4	-1E+10	1	-1E+10	1	-1E+10	1	-1E+10	1	-1E+10	1	-1E+10	1
4902549	44	C	10/26/2021	11:55	-131.748	47.109	0	987.50	0	3.2800	0	34.3340	0	27.334	0	976.970	0	6.9	4	2.2	4	-1E+10	1	-1E+10	1	-1E+10	1	-1E+10	1	-1E+10	1	-1E+10	1
4902549	44	C	10/26/2021	11:55	-131.748	47.109	0	992.60	0	3.2670	0	34.3370	0	27.338	0	982.004	0	7.0	4	2.2	4	-1E+10	1	-1E+10	1	-1E+10	1	-1E+10	1	-1E+10	1	-1E+10	1
4902549	44	C	10/26/2021	11:55	-131.748	47.109	0	997.80	0	3.2570	0	34.3390	0	27.340	0	987.136	0	6.9	4	2.2	4	-1E+10	1	-1E+10	1	-1E+10	1	-1E+10	1	-1E+10	1	-1E+10	1
4902549	44	C	10/26/2021	11:55	-131.748	47.109	0	1005.70	0	3.2430	0	34.3430	0	27.345	0	994.933	0	7.0	4	2.2	4	-1E+10	1	-1E+10	1	-1E+10	1	-1E+10	1	-1E+10	1	-1E+10	1
4902549	44	C	10/26/2021	11:55	-131.748	47.109	0	1015.60	0	3.2270	0	34.3470	0	27.349	0	1004.703	0	6.9	4	2.1	4	-1E+10	1	-1E+10	1	-1E+10	1	-1E+10	1	-1E+10	1	-1E+10	1
4902549	44	C	10/26/2021	11:55	-131.748	47.109	0	1025.50	0	3.2140	0	34.3540	0	27.356	0	1014.473	0	6.9	4	2.1	4	-1E+10	1	-1E+10	1	-1E+10	1	-1E+10	1	-1E+10	1	-1E+10	1
4902549	44	C	10/26/2021	11:55	-131.748	47.109	0	1035.40	0	3.1930	0	34.3580	0	27.362	0	1024.243	0	6.8	4	2.1	4	-1E+10	1	-1E+10	1	-1E+10	1	-1E+10	1	-1E+10	1	-1E+10	1
4902549	44	C	10/26/2021	11:55	-131.748	47.109	0	1045.40	0	3.1780	0	34.3610	0	27.365	0	1034.110	0	6.8	4	2.1	4	-1E+10	1	-1E+10	1	-1E+10	1	-1E+10	1	-1E+10	1	-1E+10	1
4902549	44	C	10/26/2021	11:55	-131.748	47.109	0	1055.30	0	3.1660	0	34.3660	0	27.371	0	1043.879	0	6.7	4	2.1	4	-1E+10	1	-1E+10	1	-1E+10	1	-1E+10	1	-1E+10	1	-1E+10	1
4902549	44	C	10/26/2021	11:55	-131.748	47.109	0	1065.10	0	3.1610	0	34.3720	0	27.376	0	1053.548	0	6.7	4	2.1	4	-1E+10	1	-1E+10	1	-1E+10	1	-1E+10	1	-1E+10	1	-1E+10	1
4902549	44	C	10/26/2021	11:55	-131.748	47.109	0	1075.00	0	3.1470	0	34.3760	0	27.380	0	1063.315	0	6.8	4	2.1	4	-1E+10	1	-1E+10	1	-1E+10	1	-1E+10	1	-1E+10	1	-1E+10	1
4902549	44	C	10/26/2021	11:55	-131.748	47.109	0	1085.10	0	3.1230	0	34.3790	0	27.385	0	1073.280	0	6.8	4	2.1	4	-1E+10	1	-1E+10	1	-1E+10	1	-1E+10	1	-1E+10	1	-1E+10	1
4902549	44	C	10/26/2021	11:55	-131.748	47.109	0	1095.40	0	3.1090	0	34.3830	0	27.390	0	1083.441	0	6.9	4	2.1	4	-1E+10	1	-1E+10	1	-1E+10	1	-1E+10	1	-1E+10	1	-1E+10	1
4902549	44	C	10/26/2021	11:55	-131.748	47.109	0	1105.50	0	3.0890	0	34.3880	0	27.395	0	1093.405	0	6.9	4	2.1	4	-1E+10	1	-1E+10	1	-1E+10	1	-1E+10	1	-1E+10	1	-1E+10	1
4902549	44	C	10/26/2021	11:55	-131.748	47.109	0	1115.20	0	3.0620	0	34.3910	0	27.400	0	1102.973	0	7.0	4	2.2	4	-1E+10	1	-1E+10	1	-1E+10	1	-1E+10	1	-1E+10	1	-1E+10	1
4902549	44	C	10/26/2021	11:55	-131.748	47.109	0	1125.00	0	3.0490	0	34.3970	0	27.406	0	1112.640	0	7.2	4	2.2	4	-1E+10	1	-1E+10	1	-1E+10	1	-1E+10	1	-1E+10	1	-1E+10	1
4902549	44	C	10/26/2021	11:55	-131.748	47.109	0	1135.40	0	3.0350	0	34.4010	0	27.411	0	1122.898	0	7.4	4	2.3	4	-1E+10	1	-1E+10	1	-1E+10	1	-1E+10	1	-1E+10	1	-1E+10	1
4902549	44	C	10/26/2021	11:55	-131.748	47.109	0	1145.50	0	3.0190	0	34.4050	0	27.416	0	1132.859	0	7.5	4	2.3	4	-1E+10	1	-1E+10	1	-1E+10	1	-1E+10	1	-1E+10	1	-1E+10	1
4902549	44	C	10/26/2021	11:55	-131.748	47.109	0	1155.20	0	2.9990	0	34.4090	0	27.421	0	1142.426	0	7.7	4	2.4	4	-1E+10	1	-1E+10	1	-1E+10	1	-1E+10	1	-1E+10	1	-1E+10	1
4902549	44	C	10/26/2021	11:55	-131.748	47.109	0	1165.50	0	2.9810	0	34.4120	0	27.425	0	1152.584	0	7.9	4	2.4	4	-1E+10	1	-1E+10	1	-1E+10	1	-1E+10	1	-1E+10	1	-1E+10	1
4902549	44	C	10/26/2021	11:55	-131.748	47.109	0	1175.40	0	2.9610	0	34.4150	0	27.429	0	1162.346	0	8.0	4	2.5	4	-1E+10	1	-1E+10	1	-1E+10	1	-1E+10	1	-1E+10	1	-1E+10	1
4902549	44	C	10/26/2021	11:55	-131.748	47.109	0	1185.30	0	2.9450	0	34.4180	0	27.433	0	1172.109	0	8.2	4	2.5	4	-1E+10	1	-1E+10	1	-1E+10	1	-1E+10	1	-1E+10	1	-1E+10	1
4902549	44	C	10/26/2021	11:55	-131.748	47.109	0	1195.90	0	2.9260	0	34.4200	0	27.436	0	1182.561	0	8.3	4	2.6	4	-1E+10	1	-1E+10	1	-1E+10	1	-1E+10	1	-1E+10	1	-1E+10	1
4902549	44	C	10/26/2021	11:55	-131.748	47.109	0	1205.50	0	2.9060	0	34.4230	0	27.440	0	1192.027	0	8.6	4	2.6	4	-1E+10	1	-1E+10	1	-1E+10	1	-1E+10	1	-1E+10	1	-1E+10	1
4902549	44	C	10/26/2021	11:55	-131.748	47.109	0	1215.40	0	2.8850	0	34.4260	0	27.445	0	1201.788	0	8.8	4	2.7	4	-1E+10	1	-1E+10	1	-1E+10	1	-1E+10	1	-1E+10	1	-1E+10	1
4902549	44	C	10/26/2021	11:55	-131.748	47.109	0	1225.20	0	2.8760	0	34.4280	0	27.447	0	1211.450	0	8.9	4	2.7	4	-1E+10	1	-1E+10	1	-1E+10	1	-1E+10	1	-1E+10	1	-1E+10	1
4902549	44	C	10/26/2021	11:55	-131.748	47.109	0	1235.20	0	2.8630	0	34.4300	0	27.450	0	1221.309	0	9.1	4	2.8	4	-1E+10	1	-1E+10	1	-1E+10	1	-1E+10	1	-1E+10	1	-1E+10	1
4902549	44	C	10/26/2021	11:55	-131.748	47.109	0	1245.20	0	2.8450	0	34.4320	0	27.453	0	1231.167	0	9.3	4	2.8	4	-1E+10	1	-1E+10	1	-1E+10	1	-1E+10	1	-1E+10	1	-1E+10	1
4902549	44	C	10/26/2021	11:55	-131.748	47.109	0	1255.30	0	2.8240	0	34.4360	0	27.458	0	1241.124	0	9.4	4	2.9	4	-1E+10	1	-1E+10	1	-1E+10	1	-1E+10	1	-1E+10	1	-1E+10	1
4902549	44	C	10/26/2021	11:55	-131.748	47.109	0	1265.50	0	2.8020	0	34.4380	0	27.462	0	1251.178	0	9.5	4	2.9	4	-1E+10	1	-1E+10	1	-1E+10	1	-1E+10	1	-1E+10	1	-1E+10	1
4902549	44	C	10/26/2021	11:55	-131.748	47.109	0	1275.30	0	2.7850	0	34.4400	0	27.465	0	1260.838	0	9.7	4	3.0	4	-1E+10	1	-1E+10	1	-1E+10	1	-1E+10	1	-1E+10	1	-1E+10	1
4902549	44	C	10/26/2021	11:55	-131.748	47.109	0	1285.10	0	2.7720	0	34.4420	0	27.468	0	1270.497	0	9.8	4	3.0	4	-1E+10	1	-1E+10	1	-1E+10	1	-1E+10	1	-1E+10	1	-1E+10	1
4902549	44	C	10/26/2021	11:55	-131.748	47.109	0	1295.00	0	2.7520	0	34.4430	0	27.470	0	1280.254	0	9.9	4	3.0	4	-1E+10	1	-1E+10	1	-1E+10	1	-1E+10	1	-1E+10	1	-1E+10	1
4902549	44	C	10/26/2021	11:55	-131.748	47.109	0	1305.10	0	2.7220	0	34.4460	0	27.476	0	1290.209	0	10.2	4	3.1	4	-1E+10	1	-1E+10	1	-1E+10	1	-1E+10	1	-1E+10	1	-1E+10	1
4902549	44	C	10/26/2021	11:55	-131.748	47.109	0	1315.30	0	2.7190	0	34.4500	0	27.479	0	1300.261	0	10.8	4	3.3	4	-1E+10	1	-1E+10	1	-1E+10	1	-1E+10	1	-1E+10	1	-1E+10	1
4902549	44	C	10/26/2021	11:55	-131.748	47.109	0	1325.20	0	2.7110	0	34.4530	0	27.482	0	1310.017	0	11.2	4	3.4	4	-1E+10	1	-1E+10	1	-1E+10	1	-1E+10	1	-1E+10	1	-1E+10	1
4902549	44	C	10/26/2021	11:55	-131.748	47.109	0	1335.30	0	2.6910	0	34.4560	0	27.486	0	1319.969	0	11.5	4	3.5	4	-1E+10	1	-1E+10	1	-1E+10	1	-1E+10	1	-1E+10	1	-1E+10	1
4902549	44	C	10/26/2021	11:55	-131.748	47.109	0	1345.30	0	2.6770	0	34.4580	0	27.489	0	1329.823	0	11.8	4	3.6	4	-1E+10	1	-1E+10	1	-1E+10	1	-1E+10	1	-1E+10	1	-1E+10	1
4902549	44	C	10/26/2021	11:55	-131.748	47.109	0	1355.30	0	2.6460	0	34.4610	0	27.494	0	1339.676	0	12.2	4	3.7	4	-1E+10	1	-1E+10	1	-1E+10	1	-1E+10	1	-1E+10	1	-1E+10	1
4902549	44	C	10/26/2021	11:55	-131.748	47.109	0	1365.30	0	2.6140	0	34.4650	0	27.500	0	1349.529	0	12.5	4	3.8	4	-1E+10	1	-1E+10	1	-1E+10	1	-1E+10	1	-1E+10	1	-1E+10	1
4902549	44	C	10/26/2021	11:55	-131.748	47.109	0	1375.40	0	2.5980	0	34.4680	0	27.504	0	1359.480	0	13.0	4	4.0	4	-1E+10	1	-1E+10	1	-1E+10	1	-1E+10	1	-1E+10	1	-1E+10	1
4902549	44	C	10/26/2021	11:55	-131.748	47.109	0	1385.40	0	2.5800	0	34.4710	0	27.508	0	1369.332	0	13.6	4	4.1	4	-1E+10	1	-1E+10	1	-1E+10	1	-1E+10	1	-1E+10	1	-1E+10	1
4902549	44	C	10/26/2021	11:55	-131.748	47.109	0	1395.40	0	2.5590	0	34.4750	0	27.513	0	1379.183	0	13.9	4	4.2	4	-1E+10	1	-1E+10	1	-1E+10	1	-1E+10	1	-1E+10	1	-1E+10	1
4902549	44	C	10/26/2021	11:55	-131.748	47.109	0	1405.60	0	2.5370	0	34.4760	0	27.516	0	1389.231	0	14.3	4	4.4	4	-1E+10	1	-1E+10	1	-1E+10	1	-1E+10	1	-1E+10	1	-1E+10	1
4902549	44	C	10/26/2021	11:55	-131.748	47.109	0	1415.20	0	2.5300	0	34.4780	0	27.518	0	1398.687	0	15.1	4	4.6	4	-1E+10	1	-1E+10	1	-1E+10	1	-1E+10	1	-1E+10	1	-1E+10	1
4902549	44	C	10/26/2021	11:55	-131.748	47.109	0	1425.00	0	2.5190	0	34.4830	0	27.523	0	1408.340	0	15.9	4	4.8	4	-1E+10	1	-1E+10	1	-1E+10	1	-1E+10	1	-1E+10	1	-1E+10	1
4902549	44	C	10/26/2021	11:55	-131.748	47.109	0	1434.90	0	2.5030	0	34.4860	0	27.527	0	1418.091	0	16.5	4	5.0	4	-1E+10	1	-1E+10	1	-1E+10	1	-1E+10	1	-1E+10	1	-1E+10	1
4902549	44	C	10/26/2021	11:55	-131.748	47.109	0	1445.00	0	2.4900	0	34.4890	0	27.530	0	1428.039	0	17.2	4	5.2	4	-1E+10	1	-1E+10	1	-1E+10	1	-1E+10	1	-1E+10	1	-1E+10	1
4902549	44	C	10/26/2021	11:55	-131.748	47.109	0	1455.10	0	2.4750	0	34.4930	0	27.535	0	1437.986	0	17.8	4	5.4	4	-1E+10	1	-1E+10	1	-1E+10	1	-1E+10	1	-1E+10	1	-1E+10	1
4902549	44	C	10/26/2021	11:55	-131.748	47.109	0	1465.50	0	2.4570	0	34.4950	0	27.538	0	1448.228	0	17.9	4	5.5	4	-1E+10	1	-1E+10	1	-1E+10	1	-1E+10	1	-1E+10	1	-1E+10	1
4902549	44	C	10/26/2021	11:55	-131.748	47.109	0	1475.40	0	2.4300	0	34.4960	0	27.541	0	1457.977	0	18.4	4	5.6	4	-1E+10	1	-1E+10	1	-1E+10	1	-1E+10	1	-1E+10	1	-1E+10	1
4902549	44	C	10/26/2021	11:55	-131.748	47.109	0	1485.70	0	2.4190	0	34.4990	0	27.545	0	1468.120	0	19.4	4	5.9	4	-1E+10	1	-1E+10	1	-1E+10	1	-1E+10	1	-1E+10	1	-1E+10	1
4902549	44	C	10/26/2021	11:55	-131.748	47.109	0	1495.50	0	2.4250	0	34.5030	0	27.547	0	1477.769	0	20.3	4	6.2	4	-1E+10	1	-1E+10	1	-1E+10	1	-1E+10	1	-1E+10	1	-1E+10	1
4902549	44	C	10/26/2021	11:55	-131.748	47.109	0	1505.50	0	2.4220	0	34.5060	0	27.550	0	1487.616	0	21.0	4	6.4	4	-1E+10	1	-1E+10	1	-1E+10	1	-1E+10	1	-1E+10	1	-1E+10	1
4902549	44	C	10/26/2021	11:55	-131.748	47.109	0	1515.80	0	2.4070	0	34.5070	0	27.552	0	1497.757	0	21.3	4	6.5	4	-1E+10	1	-1E+10	1	-1E+10	1	-1E+10	1	-1E+10	1	-1E+10	1
4902549	44	C	10/26/2021	11:55	-131.748	47.109	0	1525.40	0	2.3890	0	34.5090	0	27.555	0	1507.208	0	21.9	4	6.7	4	-1E+10	1	-1E+10	1	-1E+10	1	-1E+10	1	-1E+10	1	-1E+10	1
4902549	44	C	10/26/2021	11:55	-131.748	47.109	0	1535.10	0	2.3800	0	34.5110	0	27.558	0	1516.758	0	22.6	4	6.9	4	-1E+10	1	-1E+10	1	-1E+10	1	-1E+10	1	-1E+10	1	-1E+10	1
4902549	44	C	10/26/2021	11:55	-131.748	47.109	0	1545.40	0	2.3650	0	34.5140	0	27.561	0	1526.898	0	23.2	4	7.0	4	-1E+10	1	-1E+10	1	-1E+10	1	-1E+10	1	-1E+10	1	-1E+10	1
4902549	44	C	10/26/2021	11:55	-131.748	47.109	0	1555.40	0	2.3490	0	34.5150	0	27.563	0	1536.742	0	23.8	4	7.2	4	-1E+10	1	-1E+10	1	-1E+10	1	-1E+10	1	-1E+10	1	-1E+10	1
4902549	44	C	10/26/2021	11:55	-131.748	47.109	0	1565.20	0	2.3390	0	34.5180	0	27.567	0	1546.388	0	24.6	4	7.5	4	-1E+10	1	-1E+10	1	-1E+10	1	-1E+10	1	-1E+10	1	-1E+10	1
4902549	44	C	10/26/2021	11:55	-131.748	47.109	0	1575.10	0	2.3260	0	34.5210	0	27.570	0	1556.133	0	25.2	4	7.7	4	-1E+10	1	-1E+10	1	-1E+10	1	-1E+10	1	-1E+10	1	-1E+10	1
4902549	44	C	10/26/2021	11:55	-131.748	47.109	0	1585.20	0	2.3060	0	34.5230	0	27.574	0	1566.074	0	25.7	4	7.8	4	-1E+10	1	-1E+10	1	-1E+10	1	-1E+10	1	-1E+10	1	-1E+10	1
4902549	44	C	10/26/2021	11:55	-131.748	47.109	0	1595.80	0	2.2990	0	34.5240	0	27.575	0	1576.507	0	26.1	4	7.9	4	-1E+10	1	-1E+10	1	-1E+10	1	-1E+10	1	-1E+10	1	-1E+10	1
4902549	44	C	10/26/2021	11:55	-131.748	47.109	0	1605.40	0	2.2890	0	34.5250	0	27.577	0	1585.955	0	26.5	4	8.1	4	-1E+10	1	-1E+10	1	-1E+10	1	-1E+10	1	-1E+10	1	-1E+10	1
4902549	44	C	10/26/2021	11:55	-131.748	47.109	0	1615.30	0	2.2790	0	34.5270	0	27.579	0	1595.698	0	27.0	4	8.2	4	-1E+10	1	-1E+10	1	-1E+10	1	-1E+10	1	-1E+10	1	-1E+10	1
4902549	44	C	10/26/2021	11:55	-131.748	47.109	0	1625.50	0	2.2700	0	34.5280	0	27.581	0	1605.735	0	27.6	4	8.4	4	-1E+10	1	-1E+10	1	-1E+10	1	-1E+10	1	-1E+10	1	-1E+10	1
4902549	44	C	10/26/2021	11:55	-131.748	47.109	0	1635.50	0	2.2610	0	34.5300	0	27.583	0	1615.575	0	28.4	4	8.6	4	-1E+10	1	-1E+10	1	-1E+10	1	-1E+10	1	-1E+10	1	-1E+10	1
4902549	44	C	10/26/2021	11:55	-131.748	47.109	0	1645.50	0	2.2530	0	34.5340	0	27.587	0	1625.415	0	29.5	4	9.0	4	-1E+10	1	-1E+10	1	-1E+10	1	-1E+10	1	-1E+10	1	-1E+10	1
4902549	44	C	10/26/2021	11:55	-131.748	47.109	0	1655.30	0	2.2470	0	34.5360	0	27.589	0	1635.058	0	30.2	4	9.1	4	-1E+10	1	-1E+10	1	-1E+10	1	-1E+10	1	-1E+10	1	-1E+10	1
4902549	44	C	10/26/2021	11:55	-131.748	47.109	0	1665.30	0	2.2260	0	34.5390	0	27.593	0	1644.897	0	31.1	4	9.4	4	-1E+10	1	-1E+10	1	-1E+10	1	-1E+10	1	-1E+10	1	-1E+10	1
4902549	44	C	10/26/2021	11:55	-131.748	47.109	0	1675.60	0	2.2090	0	34.5410	0	27.596	0	1655.030	0	31.8	4	9.6	4	-1E+10	1	-1E+10	1	-1E+10	1	-1E+10	1	-1E+10	1	-1E+10	1
4902549	44	C	10/26/2021	11:55	-131.748	47.109	0	1685.50	0	2.1990	0	34.5420	0	27.598	0	1664.770	0	32.5	4	9.9	4	-1E+10	1	-1E+10	1	-1E+10	1	-1E+10	1	-1E+10	1	-1E+10	1
4902549	44	C	10/26/2021	11:55	-131.748	47.109	0	1695.50	0	2.1840	0	34.5450	0	27.602	0	1674.607	0	33.3	4	10.1	4	-1E+10	1	-1E+10	1	-1E+10	1	-1E+10	1	-1E+10	1	-1E+10	1
4902549	44	C	10/26/2021	11:55	-131.748	47.109	0	1705.50	0	2.1730	0	34.5470	0	27.604	0	1684.445	0	34.0	4	10.3	4	-1E+10	1	-1E+10	1	-1E+10	1	-1E+10	1	-1E+10	1	-1E+10	1
4902549	44	C	10/26/2021	11:55	-131.748	47.109	0	1715.30	0	2.1600	0	34.5490	0	27.607	0	1694.085	0	34.6	4	10.5	4	-1E+10	1	-1E+10	1	-1E+10	1	-1E+10	1	-1E+10	1	-1E+10	1
4902549	44	C	10/26/2021	11:55	-131.748	47.109	0	1725.30	0	2.1510	0	34.5500	0	27.608	0	1703.921	0	35.2	4	10.7	4	-1E+10	1	-1E+10	1	-1E+10	1	-1E+10	1	-1E+10	1	-1E+10	1
4902549	44	C	10/26/2021	11:55	-131.748	47.109	0	1735.50	0	2.1420	0	34.5520	0	27.611	0	1713.953	0	36.0	4	10.9	4	-1E+10	1	-1E+10	1	-1E+10	1	-1E+10	1	-1E+10	1	-1E+10	1
4902549	44	C	10/26/2021	11:55	-131.748	47.109	0	1745.30	0	2.1310	0	34.5540	0	27.613	0	1723.592	0	36.7	4	11.1	4	-1E+10	1	-1E+10	1	-1E+10	1	-1E+10	1	-1E+10	1	-1E+10	1
4902549	44	C	10/26/2021	11:55	-131.748	47.109	0	1755.30	0	2.1220	0	34.5550	0	27.615	0	1733.426	0	37.2	4	11.3	4	-1E+10	1	-1E+10	1	-1E+10	1	-1E+10	1	-1E+10	1	-1E+10	1
4902549	44	C	10/26/2021	11:55	-131.748	47.109	0	1765.50	0	2.1120	0	34.5570	0	27.617	0	1743.457	0	37.9	4	11.5	4	-1E+10	1	-1E+10	1	-1E+10	1	-1E+10	1	-1E+10	1	-1E+10	1
4902549	44	C	10/26/2021	11:55	-131.748	47.109	0	1775.30	0	2.1000	0	34.5590	0	27.620	0	1753.095	0	38.6	4	11.7	4	-1E+10	1	-1E+10	1	-1E+10	1	-1E+10	1	-1E+10	1	-1E+10	1
4902549	44	C	10/26/2021	11:55	-131.748	47.109	0	1785.20	0	2.0930	0	34.5600	0	27.621	0	1762.830	0	39.2	4	11.8	4	-1E+10	1	-1E+10	1	-1E+10	1	-1E+10	1	-1E+10	1	-1E+10	1
4902549	44	C	10/26/2021	11:55	-131.748	47.109	0	1795.40	0	2.0810	0	34.5620	0	27.624	0	1772.859	0	39.8	4	12.0	4	-1E+10	1	-1E+10	1	-1E+10	1	-1E+10	1	-1E+10	1	-1E+10	1
4902549	44	C	10/26/2021	11:55	-131.748	47.109	0	1805.40	0	2.0730	0	34.5630	0	27.625	0	1782.692	0	40.2	4	12.1	4	-1E+10	1	-1E+10	1	-1E+10	1	-1E+10	1	-1E+10	1	-1E+10	1
4902549	44	C	10/26/2021	11:55	-131.748	47.109	0	1815.30	0	2.0690	0	34.5640	0	27.627	0	1792.426	0	40.5	4	12.2	4	-1E+10	1	-1E+10	1	-1E+10	1	-1E+10	1	-1E+10	1	-1E+10	1
4902549	44	C	10/26/2021	11:55	-131.748	47.109	0	1825.40	0	2.0610	0	34.5650	0	27.628	0	1802.356	0	41.0	4	12.4	4	-1E+10	1	-1E+10	1	-1E+10	1	-1E+10	1	-1E+10	1	-1E+10	1
4902549	44	C	10/26/2021	11:55	-131.748	47.109	0	1835.40	0	2.0550	0	34.5660	0	27.629	0	1812.187	0	41.3	4	12.5	4	-1E+10	1	-1E+10	1	-1E+10	1	-1E+10	1	-1E+10	1	-1E+10	1
4902549	44	C	10/26/2021	11:55	-131.748	47.109	0	1845.40	0	2.0510	0	34.5670	0	27.631	0	1822.017	0	41.7	4	12.6	4	-1E+10	1	-1E+10	1	-1E+10	1	-1E+10	1	-1E+10	1	-1E+10	1
4902549	44	C	10/26/2021	11:55	-131.748	47.109	0	1855.40	0	2.0440	0	34.5680	0	27.632	0	1831.848	0	42.2	4	12.7	4	-1E+10	1	-1E+10	1	-1E+10	1	-1E+10	1	-1E+10	1	-1E+10	1
4902549	44	C	10/26/2021	11:55	-131.748	47.109	0	1865.30	0	2.0380	0	34.5690	0	27.633	0	1841.579	0	42.6	4	12.9	4	-1E+10	1	-1E+10	1	-1E+10	1	-1E+10	1	-1E+10	1	-1E+10	1
4902549	44	C	10/26/2021	11:55	-131.748	47.109	0	1875.30	0	2.0310	0	34.5700	0	27.635	0	1851.409	0	43.2	4	13.0	4	-1E+10	1	-1E+10	1	-1E+10	1	-1E+10	1	-1E+10	1	-1E+10	1
4902549	44	C	10/26/2021	11:55	-131.748	47.109	0	1885.30	0	2.0220	0	34.5720	0	27.637	0	1861.237	0	44.0	4	13.3	4	-1E+10	1	-1E+10	1	-1E+10	1	-1E+10	1	-1E+10	1	-1E+10	1
4902549	44	C	10/26/2021	11:55	-131.748	47.109	0	1895.40	0	2.0090	0	34.5740	0	27.640	0	1871.164	0	44.7	4	13.5	4	-1E+10	1	-1E+10	1	-1E+10	1	-1E+10	1	-1E+10	1	-1E+10	1
4902549	44	C	10/26/2021	11:55	-131.748	47.109	0	1905.40	0	2.0010	0	34.5750	0	27.641	0	1880.992	0	45.1	4	13.6	4	-1E+10	1	-1E+10	1	-1E+10	1	-1E+10	1	-1E+10	1	-1E+10	1
4902549	44	C	10/26/2021	11:55	-131.748	47.109	0	1915.30	0	1.9940	0	34.5760	0	27.643	0	1890.721	0	45.6	4	13.7	4	-1E+10	1	-1E+10	1	-1E+10	1	-1E+10	1	-1E+10	1	-1E+10	1
4902549	44	C	10/26/2021	11:55	-131.748	47.109	0	1925.10	0	1.9910	0	34.5770	0	27.644	0	1900.352	0	45.9	4	13.8	4	-1E+10	1	-1E+10	1	-1E+10	1	-1E+10	1	-1E+10	1	-1E+10	1
4902549	44	C	10/26/2021	11:55	-131.748	47.109	0	1935.50	0	1.9840	0	34.5780	0	27.645	0	1910.571	0	46.4	4	14.0	4	-1E+10	1	-1E+10	1	-1E+10	1	-1E+10	1	-1E+10	1	-1E+10	1
4902549	44	C	10/26/2021	11:55	-131.748	47.109	0	1945.40	0	1.9760	0	34.5800	0	27.647	0	1920.299	0	46.9	4	14.1	4	-1E+10	1	-1E+10	1	-1E+10	1	-1E+10	1	-1E+10	1	-1E+10	1
4902549	44	C	10/26/2021	11:55	-131.748	47.109	0	1955.50	0	1.9700	0	34.5810	0	27.649	0	1930.223	0	47.1	4	14.2	4	-1E+10	1	-1E+10	1	-1E+10	1	-1E+10	1	-1E+10	1	-1E+10	1
4902549	44	C	10/26/2021	11:55	-131.748	47.109	0	1966.10	0	1.9660	0	34.5810	0	27.649	0	1940.638	0	46.8	4	14.1	4	-1E+10	1	-1E+10	1	-1E+10	1	-1E+10	1	-1E+10	1	-1E+10	1
4902549	44	C	10/26/2021	11:55	-131.748	47.109	0	1972.40	0	1.9610	0	34.5830	0	27.651	0	1946.828	0	45.7	4	13.8	4	-1E+10	1	-1E+10	1	-1E+10	1	-1E+10	1	-1E+10	1	-1E+10	1
4902549	44	C	10/26/2021	11:55	-131.748	47.109	0																										
4902549	45	C	11/05/2021	17:19	-131.751	47.106	0	1.40	0	11.4790	0	32.2550	0	24.554	0	1.388	0	253.3	4	93.4	4	-1E+10	1	-1E+10	1	-1E+10	1	-1E+10	1	-1E+10	1	-1E+10	1
4902549	45	C	11/05/2021	17:19	-131.751	47.106	0	2.10	0	11.4800	0	32.2560	0	24.554	0	2.083	0	253.4	4	93.4	4	-1E+10	1	-1E+10	1	-1E+10	1	-1E+10	1	-1E+10	1	-1E+10	1
4902549	45	C	11/05/2021	17:19	-131.751	47.106	0	3.10	0	11.4870	0	32.2560	0	24.553	0	3.074	0	253.1	4	93.3	4	-1E+10	1	-1E+10	1	-1E+10	1	-1E+10	1	-1E+10	1	-1E+10	1
4902549	45	C	11/05/2021	17:19	-131.751	47.106	0	4.00	0	11.4880	0	32.2560	0	24.553	0	3.967	0	253.2	4	93.3	4	-1E+10	1	-1E+10	1	-1E+10	1	-1E+10	1	-1E+10	1	-1E+10	1
4902549	45	C	11/05/2021	17:19	-131.751	47.106	0	4.80	0	11.4850	0	32.2580	0	24.555	0	4.760	0	253.1	4	93.3	4	-1E+10	1	-1E+10	1	-1E+10	1	-1E+10	1	-1E+10	1	-1E+10	1
4902549	45	C	11/05/2021	17:19	-131.751	47.106	0	5.80	0	11.4820	0	32.2590	0	24.557	0	5.752	0	253.2	4	93.3	4	-1E+10	1	-1E+10	1	-1E+10	1	-1E+10	1	-1E+10	1	-1E+10	1
4902549	45	C	11/05/2021	17:19	-131.751	47.106	0	6.90	0	11.4820	0	32.2590	0	24.557	0	6.843	0	253.1	4	93.3	4	-1E+10	1	-1E+10	1	-1E+10	1	-1E+10	1	-1E+10	1	-1E+10	1
4902549	45	C	11/05/2021	17:19	-131.751	47.106	0	8.10	0	11.4790	0	32.2600	0	24.558	0	8.033	0	253.2	4	93.3	4	-1E+10	1	-1E+10	1	-1E+10	1	-1E+10	1	-1E+10	1	-1E+10	1
4902549	45	C	11/05/2021	17:19	-131.751	47.106	0	8.90	0	11.4790	0	32.2590	0	24.557	0	8.826	0	253.1	4	93.3	4	-1E+10	1	-1E+10	1	-1E+10	1	-1E+10	1	-1E+10	1	-1E+10	1
4902549	45	C	11/05/2021	17:19	-131.751	47.106	0	10.10	0	11.4790	0	32.2590	0	24.557	0	10.016	0	253.1	4	93.3	4	-1E+10	1	-1E+10	1	-1E+10	1	-1E+10	1	-1E+10	1	-1E+10	1
4902549	45	C	11/05/2021	17:19	-131.751	47.106	0	11.00	0	11.4780	0	32.2590	0	24.557	0	10.908	0	253.1	4	93.3	4	-1E+10	1	-1E+10	1	-1E+10	1	-1E+10	1	-1E+10	1	-1E+10	1
4902549	45	C	11/05/2021	17:19	-131.751	47.106	0	12.10	0	11.4850	0	32.2600	0	24.557	0	11.999	0	253.0	4	93.3	4	-1E+10	1	-1E+10	1	-1E+10	1	-1E+10	1	-1E+10	1	-1E+10	1
4902549	45	C	11/05/2021	17:19	-131.751	47.106	0	12.90	0	11.4850	0	32.2590	0	24.556	0	12.792	0	253.0	4	93.2	4	-1E+10	1	-1E+10	1	-1E+10	1	-1E+10	1	-1E+10	1	-1E+10	1
4902549	45	C	11/05/2021	17:19	-131.751	47.106	0	14.10	0	11.4850	0	32.2590	0	24.556	0	13.982	0	252.9	4	93.2	4	-1E+10	1	-1E+10	1	-1E+10	1	-1E+10	1	-1E+10	1	-1E+10	1
4902549	45	C	11/05/2021	17:19	-131.751	47.106	0	15.00	0	11.4850	0	32.2590	0	24.556	0	14.875	0	252.9	4	93.2	4	-1E+10	1	-1E+10	1	-1E+10	1	-1E+10	1	-1E+10	1	-1E+10	1
4902549	45	C	11/05/2021	17:19	-131.751	47.106	0	16.00	0	11.4850	0	32.2590	0	24.556	0	15.866	0	252.9	4	93.2	4	-1E+10	1	-1E+10	1	-1E+10	1	-1E+10	1	-1E+10	1	-1E+10	1
4902549	45	C	11/05/2021	17:19	-131.751	47.106	0	16.90	0	11.4850	0	32.2590	0	24.556	0	16.759	0	253.0	4	93.2	4	-1E+10	1	-1E+10	1	-1E+10	1	-1E+10	1	-1E+10	1	-1E+10	1
4902549	45	C	11/05/2021	17:19	-131.751	47.106	0	17.90	0	11.4890	0	32.2590	0	24.556	0	17.750	0	252.9	4	93.2	4	-1E+10	1	-1E+10	1	-1E+10	1	-1E+10	1	-1E+10	1	-1E+10	1
4902549	45	C	11/05/2021	17:19	-131.751	47.106	0	19.10	0	11.4890	0	32.2600	0	24.556	0	18.940	0	252.9	4	93.2	4	-1E+10	1	-1E+10	1	-1E+10	1	-1E+10	1	-1E+10	1	-1E+10	1
4902549	45	C	11/05/2021	17:19	-131.751	47.106	0	19.80	0	11.4880	0	32.2590	0	24.556	0	19.635	0	252.8	4	93.2	4	-1E+10	1	-1E+10	1	-1E+10	1	-1E+10	1	-1E+10	1	-1E+10	1
4902549	45	C	11/05/2021	17:19	-131.751	47.106	0	20.90	0	11.4860	0	32.2590	0	24.556	0	20.725	0	252.9	4	93.2	4	-1E+10	1	-1E+10	1	-1E+10	1	-1E+10	1	-1E+10	1	-1E+10	1
4902549	45	C	11/05/2021	17:19	-131.751	47.106	0	21.90	0	11.4890	0	32.2590	0	24.556	0	21.717	0	252.9	4	93.2	4	-1E+10	1	-1E+10	1	-1E+10	1	-1E+10	1	-1E+10	1	-1E+10	1
4902549	45	C	11/05/2021	17:19	-131.751	47.106	0	23.00	0	11.4910	0	32.2590	0	24.555	0	22.808	0	252.8	4	93.2	4	-1E+10	1	-1E+10	1	-1E+10	1	-1E+10	1	-1E+10	1	-1E+10	1
4902549	45	C	11/05/2021	17:19	-131.751	47.106	0	23.90	0	11.4900	0	32.2590	0	24.555	0	23.700	0	252.8	4	93.2	4	-1E+10	1	-1E+10	1	-1E+10	1	-1E+10	1	-1E+10	1	-1E+10	1
4902549	45	C	11/05/2021	17:19	-131.751	47.106	0	25.10	0	11.4890	0	32.2590	0	24.556	0	24.890	0	252.9	4	93.2	4	-1E+10	1	-1E+10	1	-1E+10	1	-1E+10	1	-1E+10	1	-1E+10	1
4902549	45	C	11/05/2021	17:19	-131.751	47.106	0	25.90	0	11.4890	0	32.2590	0	24.556	0	25.683	0	252.8	4	93.2	4	-1E+10	1	-1E+10	1	-1E+10	1	-1E+10	1	-1E+10	1	-1E+10	1
4902549	45	C	11/05/2021	17:19	-131.751	47.106	0	27.20	0	11.4890	0	32.2590	0	24.556	0	26.972	0	252.8	4	93.2	4	-1E+10	1	-1E+10	1	-1E+10	1	-1E+10	1	-1E+10	1	-1E+10	1
4902549	45	C	11/05/2021	17:19	-131.751	47.106	0	28.00	0	11.4900	0	32.2590	0	24.556	0	27.765	0	252.9	4	93.2	4	-1E+10	1	-1E+10	1	-1E+10	1	-1E+10	1	-1E+10	1	-1E+10	1
4902549	45	C	11/05/2021	17:19	-131.751	47.106	0	29.30	0	11.4900	0	32.2590	0	24.556	0	29.054	0	252.8	4	93.2	4	-1E+10	1	-1E+10	1	-1E+10	1	-1E+10	1	-1E+10	1	-1E+10	1
4902549	45	C	11/05/2021	17:19	-131.751	47.106	0	30.00	0	11.4930	0	32.2590	0	24.555	0	29.749	0	252.8	4	93.2	4	-1E+10	1	-1E+10	1	-1E+10	1	-1E+10	1	-1E+10	1	-1E+10	1
4902549	45	C	11/05/2021	17:19	-131.751	47.106	0	31.10	0	11.4910	0	32.2590	0	24.555	0	30.839	0	252.8	4	93.2	4	-1E+10	1	-1E+10	1	-1E+10	1	-1E+10	1	-1E+10	1	-1E+10	1
4902549	45	C	11/05/2021	17:19	-131.751	47.106	0	31.80	0	11.4910	0	32.2590	0	24.555	0	31.533	0	252.6	4	93.1	4	-1E+10	1	-1E+10	1	-1E+10	1	-1E+10	1	-1E+10	1	-1E+10	1
4902549	45	C	11/05/2021	17:19	-131.751	47.106	0	32.90	0	11.4910	0	32.2600	0	24.556	0	32.624	0	252.7	4	93.1	4	-1E+10	1	-1E+10	1	-1E+10	1	-1E+10	1	-1E+10	1	-1E+10	1
4902549	45	C	11/05/2021	17:19	-131.751	47.106	0	34.00	0	11.4950	0	32.2590	0	24.555	0	33.715	0	252.7	4	93.2	4	-1E+10	1	-1E+10	1	-1E+10	1	-1E+10	1	-1E+10	1	-1E+10	1
4902549	45	C	11/05/2021	17:19	-131.751	47.106	0	35.00	0	11.4910	0	32.2590	0	24.556	0	34.706	0	252.7	4	93.2	4	-1E+10	1	-1E+10	1	-1E+10	1	-1E+10	1	-1E+10	1	-1E+10	1
4902549	45	C	11/05/2021	17:19	-131.751	47.106	0	36.20	0	11.4920	0	32.2590	0	24.555	0	35.896	0	252.8	4	93.2	4	-1E+10	1	-1E+10	1	-1E+10	1	-1E+10	1	-1E+10	1	-1E+10	1
4902549	45	C	11/05/2021	17:19	-131.751	47.106	0	36.90	0	11.4900	0	32.2590	0	24.556	0	36.590	0	252.6	4	93.1	4	-1E+10	1	-1E+10	1	-1E+10	1	-1E+10	1	-1E+10	1	-1E+10	1
4902549	45	C	11/05/2021	17:19	-131.751	47.106	0	37.90	0	11.4890	0	32.2590	0	24.556	0	37.582	0	252.7	4	93.1	4	-1E+10	1	-1E+10	1	-1E+10	1	-1E+10	1	-1E+10	1	-1E+10	1
4902549	45	C	11/05/2021	17:19	-131.751	47.106	0	39.00	0	11.4910	0	32.2600	0	24.556	0	38.672	0	252.7	4	93.1	4	-1E+10	1	-1E+10	1	-1E+10	1	-1E+10	1	-1E+10	1	-1E+10	1
4902549	45	C	11/05/2021	17:19	-131.751	47.106	0	40.20	0	11.4920	0	32.2600	0	24.556	0	39.862	0	252.6	4	93.1	4	-1E+10	1	-1E+10	1	-1E+10	1	-1E+10	1	-1E+10	1	-1E+10	1
4902549	45	C	11/05/2021	17:19	-131.751	47.106	0	41.10	0	11.4920	0	32.2590	0	24.555	0	40.754	0	252.6	4	93.1	4	-1E+10	1	-1E+10	1	-1E+10	1	-1E+10	1	-1E+10	1	-1E+10	1
4902549	45	C	11/05/2021	17:19	-131.751	47.106	0	42.10	0	11.4920	0	32.2600	0	24.556	0	41.746	0	252.5	4	93.1	4	-1E+10	1	-1E+10	1	-1E+10	1	-1E+10	1	-1E+10	1	-1E+10	1
4902549	45	C	11/05/2021	17:19	-131.751	47.106	0	43.00	0	11.4900	0	32.2600	0	24.557	0	42.638	0	252.4	4	93.1	4	-1E+10	1	-1E+10	1	-1E+10	1	-1E+10	1	-1E+10	1	-1E+10	1
4902549	45	C	11/05/2021	17:19	-131.751	47.106	0	44.10	0	11.4890	0	32.2600	0	24.557	0	43.729	0	252.5	4	93.1	4	-1E+10	1	-1E+10	1	-1E+10	1	-1E+10	1	-1E+10	1	-1E+10	1
4902549	45	C	11/05/2021	17:19	-131.751	47.106	0	44.80	0	11.4880	0	32.2590	0	24.556	0	44.423	0	252.5	4	93.1	4	-1E+10	1	-1E+10	1	-1E+10	1	-1E+10	1	-1E+10	1	-1E+10	1
4902549	45	C	11/05/2021	17:19	-131.751	47.106	0	45.90	0	11.4850	0	32.2600	0	24.558	0	45.514	0	252.5	4	93.1	4	-1E+10	1	-1E+10	1	-1E+10	1	-1E+10	1	-1E+10	1	-1E+10	1
4902549	45	C	11/05/2021	17:19	-131.751	47.106	0	47.10	0	11.4880	0	32.2590	0	24.556	0	46.703	0	252.3	4	93.0	4	-1E+10	1	-1E+10	1	-1E+10	1	-1E+10	1	-1E+10	1	-1E+10	1
4902549	45	C	11/05/2021	17:19	-131.751	47.106	0	48.10	0	11.4850	0	32.2580	0	24.556	0	47.695	0	252.3	4	93.0	4	-1E+10	1	-1E+10	1	-1E+10	1	-1E+10	1	-1E+10	1	-1E+10	1
4902549	45	C	11/05/2021	17:19	-131.751	47.106	0	49.00	0	11.4690	0	32.2570	0	24.558	0	48.587	0	252.0	4	92.8	4	-1E+10	1	-1E+10	1	-1E+10	1	-1E+10	1	-1E+10	1	-1E+10	1
4902549	45	C	11/05/2021	17:19	-131.751	47.106	0	50.20	0	11.1990	0	32.2740	0	24.620	0	49.777	0	252.5	4	92.5	4	-1E+10	1	-1E+10	1	-1E+10	1	-1E+10	1	-1E+10	1	-1E+10	1
4902549	45	C	11/05/2021	17:19	-131.751	47.106	0	51.00	0	10.8630	0	32.2880	0	24.690	0	50.570	0	253.7	4	92.3	4	-1E+10	1	-1E+10	1	-1E+10	1	-1E+10	1	-1E+10	1	-1E+10	1
4902549	45	C	11/05/2021	17:19	-131.751	47.106	0	52.10	0	9.6920	0	32.3480	0	24.934	0	51.661	0	257.9	4	91.5	4	-1E+10	1	-1E+10	1	-1E+10	1	-1E+10	1	-1E+10	1	-1E+10	1
4902549	45	C	11/05/2021	17:19	-131.751	47.106	0	53.00	0	9.1360	0	32.3910	0	25.056	0	52.553	0	260.0	4	91.2	4	-1E+10	1	-1E+10	1	-1E+10	1	-1E+10	1	-1E+10	1	-1E+10	1
4902549	45	C	11/05/2021	17:19	-131.751	47.106	0	54.00	0	8.9230	0	32.4090	0	25.103	0	53.544	0	260.6	4	91.0	4	-1E+10	1	-1E+10	1	-1E+10	1	-1E+10	1	-1E+10	1	-1E+10	1
4902549	45	C	11/05/2021	17:19	-131.751	47.106	0	55.00	0	8.7180	0	32.4220	0	25.144	0	54.536	0	261.5	4	90.9	4	-1E+10	1	-1E+10	1	-1E+10	1	-1E+10	1	-1E+10	1	-1E+10	1
4902549	45	C	11/05/2021	17:19	-131.751	47.106	0	56.00	0	8.5460	0	32.4290	0	25.176	0	55.527	0	262.1	4	90.8	4	-1E+10	1	-1E+10	1	-1E+10	1	-1E+10	1	-1E+10	1	-1E+10	1
4902549	45	C	11/05/2021	17:19	-131.751	47.106	0	57.20	0	8.4250	0	32.4350	0	25.199	0	56.717	0	262.6	4	90.7	4	-1E+10	1	-1E+10	1	-1E+10	1	-1E+10	1	-1E+10	1	-1E+10	1
4902549	45	C	11/05/2021	17:19	-131.751	47.106	0	58.00	0	8.3880	0	32.4380	0	25.207	0	57.510	0	262.6	4	90.6	4	-1E+10	1	-1E+10	1	-1E+10	1	-1E+10	1	-1E+10	1	-1E+10	1
4902549	45	C	11/05/2021	17:19	-131.751	47.106	0	59.00	0	8.2250	0	32.4480	0	25.238	0	58.501	0	263.0	4	90.4	4	-1E+10	1	-1E+10	1	-1E+10	1	-1E+10	1	-1E+10	1	-1E+10	1
4902549	45	C	11/05/2021	17:19	-131.751	47.106	0	60.00	0	8.0920	0	32.4530	0	25.262	0	59.493	0	263.5	4	90.3	4	-1E+10	1	-1E+10	1	-1E+10	1	-1E+10	1	-1E+10	1	-1E+10	1
4902549	45	C	11/05/2021	17:19	-131.751	47.106	0	61.00	0	7.9840	0	32.4580	0	25.281	0	60.484	0	263.9	4	90.3	4	-1E+10	1	-1E+10	1	-1E+10	1	-1E+10	1	-1E+10	1	-1E+10	1
4902549	45	C	11/05/2021	17:19	-131.751	47.106	0	62.00	0	7.9520	0	32.4580	0	25.286	0	61.476	0	264.0	4	90.2	4	-1E+10	1	-1E+10	1	-1E+10	1	-1E+10	1	-1E+10	1	-1E+10	1
4902549	45	C	11/05/2021	17:19	-131.751	47.106	0	63.10	0	7.9360	0	32.4590	0	25.289	0	62.566	0	263.8	4	90.1	4	-1E+10	1	-1E+10	1	-1E+10	1	-1E+10	1	-1E+10	1	-1E+10	1
4902549	45	C	11/05/2021	17:19	-131.751	47.106	0	64.10	0	7.9230	0	32.4570	0	25.289	0	63.557	0	263.8	4	90.1	4	-1E+10	1	-1E+10	1	-1E+10	1	-1E+10	1	-1E+10	1	-1E+10	1
4902549	45	C	11/05/2021	17:19	-131.751	47.106	0	65.00	0	7.8830	0	32.4580	0	25.296	0	64.450	0	263.7	4	90.0	4	-1E+10	1	-1E+10	1	-1E+10	1	-1E+10	1	-1E+10	1	-1E+10	1
4902549	45	C	11/05/2021	17:19	-131.751	47.106	0	65.80	0	7.8500	0	32.4580	0	25.301	0	65.243	0	263.9	4	90.0	4	-1E+10	1	-1E+10	1	-1E+10	1	-1E+10	1	-1E+10	1	-1E+10	1
4902549	45	C	11/05/2021	17:19	-131.751	47.106	0	67.00	0	7.7010	0	32.4600	0	25.323	0	66.432	0	264.6	4	89.9	4	-1E+10	1	-1E+10	1	-1E+10	1	-1E+10	1	-1E+10	1	-1E+10	1
4902549	45	C	11/05/2021	17:19	-131.751	47.106	0	68.10	0	7.5760	0	32.4570	0	25.339	0	67.523	0	265.2	4	89.9	4	-1E+10	1	-1E+10	1	-1E+10	1	-1E+10	1	-1E+10	1	-1E+10	1
4902549	45	C	11/05/2021	17:19	-131.751	47.106	0	69.00	0	7.5460	0	32.4580	0	25.344	0	68.415	0	265.4	4	89.9	4	-1E+10	1	-1E+10	1	-1E+10	1	-1E+10	1	-1E+10	1	-1E+10	1
4902549	45	C	11/05/2021	17:19	-131.751	47.106	0	69.90	0	7.5230	0	32.4560	0	25.345	0	69.307	0	265.4	4	89.8	4	-1E+10	1	-1E+10	1	-1E+10	1	-1E+10	1	-1E+10	1	-1E+10	1
4902549	45	C	11/05/2021	17:19	-131.751	47.106	0	71.00	0	7.5050	0	32.4550	0	25.347	0	70.398	0	265.4	4	89.8	4	-1E+10	1	-1E+10	1	-1E+10	1	-1E+10	1	-1E+10	1	-1E+10	1
4902549	45	C	11/05/2021	17:19	-131.751	47.106	0	72.10	0	7.4960	0	32.4550	0	25.348	0	71.488	0	265.4	4	89.8	4	-1E+10	1	-1E+10	1	-1E+10	1	-1E+10	1	-1E+10	1	-1E+10	1
4902549	45	C	11/05/2021	17:19	-131.751	47.106	0	73.10	0	7.4710	0	32.4530	0	25.350	0	72.480	0	265.4	4	89.7	4	-1E+10	1	-1E+10	1	-1E+10	1	-1E+10	1	-1E+10	1	-1E+10	1
4902549	45	C	11/05/2021	17:19	-131.751	47.106	0	74.10	0	7.4560	0	32.4540	0	25.353	0	73.471	0	265.4	4	89.7	4	-1E+10	1	-1E+10	1	-1E+10	1	-1E+10	1	-1E+10	1	-1E+10	1
4902549	45	C	11/05/2021	17:19	-131.751	47.106	0	75.20	0	7.4250	0	32.4560	0	25.359	0	74.561	0	265.5	4	89.7	4	-1E+10	1	-1E+10	1	-1E+10	1	-1E+10	1	-1E+10	1	-1E+10	1
4902549	45	C	11/05/2021	17:19	-131.751	47.106	0	76.00	0	7.3590	0	32.4570	0	25.369	0	75.355	0	265.8	4	89.6	4	-1E+10	1	-1E+10	1	-1E+10	1	-1E+10	1	-1E+10	1	-1E+10	1
4902549	45	C	11/05/2021	17:19	-131.751	47.106	0	77.10	0	7.2890	0	32.4560	0	25.377	0	76.445	0	266.1	4	89.6	4	-1E+10	1	-1E+10	1	-1E+10	1	-1E+10	1	-1E+10	1	-1E+10	1
4902549	45	C	11/05/2021	17:19	-131.751	47.106	0	78.10	0	7.2590	0	32.4560	0	25.382	0	77.436	0	266.2	4	89.6	4	-1E+10	1	-1E+10	1	-1E+10	1	-1E+10	1	-1E+10	1	-1E+10	1
4902549	45	C	11/05/2021	17:19	-131.751	47.106	0	79.10	0	7.2370	0	32.4560	0	25.385	0	78.428	0	266.3	4	89.6	4	-1E+10	1	-1E+10	1	-1E+10	1	-1E+10	1	-1E+10	1	-1E+10	1
4902549	45	C	11/05/2021	17:19	-131.751	47.106	0	80.10	0	7.2190	0	32.4550	0	25.386	0	79.419	0	266.4	4	89.6	4	-1E+10	1	-1E+10	1	-1E+10	1	-1E+10	1	-1E+10	1	-1E+10	1
4902549	45	C	11/05/2021	17:19	-131.751	47.106	0	81.00	0	7.1830	0	32.4540	0	25.390	0	80.311	0	266.5	4	89.5	4	-1E+10	1	-1E+10	1	-1E+10	1	-1E+10	1	-1E+10	1	-1E+10	1
4902549	45	C	11/05/2021	17:19	-131.751	47.106	0	81.90	0	7.1450	0	32.4530	0	25.395	0	81.203	0	266.7	4	89.5	4	-1E+10	1	-1E+10	1	-1E+10	1	-1E+10	1	-1E+10	1	-1E+10	1
4902549	45	C	11/05/2021	17:19	-131.751	47.106	0	83.10	0	7.1080	0	32.4520	0	25.399	0	82.393	0	266.8	4	89.5	4	-1E+10	1	-1E+10	1	-1E+10	1	-1E+10	1	-1E+10	1	-1E+10	1
4902549	45	C	11/05/2021	17:19	-131.751	47.106	0	84.10	0	7.0910	0	32.4530	0	25.402	0	83.384	0	266.8	4	89.4	4	-1E+10	1	-1E+10	1	-1E+10	1	-1E+10	1	-1E+10	1	-1E+10	1
4902549	45	C	11/05/2021	17:19	-131.751	47.106	0	84.80	0	7.0870	0	32.4530	0	25.402	0	84.078	0	266.8	4	89.4	4	-1E+10	1	-1E+10	1	-1E+10	1	-1E+10	1	-1E+10	1	-1E+10	1
4902549	45	C	11/05/2021	17:19	-131.751	47.106	0	85.90	0	7.0660	0	32.4530	0	25.405	0	85.168	0	266.8	4	89.4	4	-1E+10	1	-1E+10	1	-1E+10	1	-1E+10	1	-1E+10	1	-1E+10	1
4902549	45	C	11/05/2021	17:19	-131.751	47.106	0	87.00	0	7.0500	0	32.4530	0	25.407	0	86.259	0	266.8	4	89.3	4	-1E+10	1	-1E+10	1	-1E+10	1	-1E+10	1	-1E+10	1	-1E+10	1
4902549	45	C	11/05/2021	17:19	-131.751	47.106	0	88.10	0	7.0470	0	32.4530	0	25.408	0	87.349	0	266.8	4	89.3	4	-1E+10	1	-1E+10	1	-1E+10	1	-1E+10	1	-1E+10	1	-1E+10	1
4902549	45	C	11/05/2021	17:19	-131.751	47.106	0	88.80	0	7.0330	0	32.4520	0	25.409	0	88.043	0	266.8	4	89.3	4	-1E+10	1	-1E+10	1	-1E+10	1	-1E+10	1	-1E+10	1	-1E+10	1
4902549	45	C	11/05/2021	17:19	-131.751	47.106	0	89.90	0	6.9630	0	32.4560	0	25.421	0	89.134	0	267.0	4	89.2	4	-1E+10	1	-1E+10	1	-1E+10	1	-1E+10	1	-1E+10	1	-1E+10	1
4902549	45	C	11/05/2021	17:19	-131.751	47.106	0	91.00	0	6.9240	0	32.4530	0	25.424	0	90.224	0	267.1	4	89.2	4	-1E+10	1	-1E+10	1	-1E+10	1	-1E+10	1	-1E+10	1	-1E+10	1
4902549	45	C	11/05/2021	17:19	-131.751	47.106	0	92.00	0	6.9240	0	32.4530	0	25.424	0	91.215	0	266.9	4	89.1	4	-1E+10	1	-1E+10	1	-1E+10	1	-1E+10	1	-1E+10	1	-1E+10	1
4902549	45	C	11/05/2021	17:19	-131.751	47.106	0	93.10	0	6.9120	0	32.4530	0	25.426	0	92.306	0	266.8	4	89.0	4	-1E+10	1	-1E+10	1	-1E+10	1	-1E+10	1	-1E+10	1	-1E+10	1
4902549	45	C	11/05/2021	17:19	-131.751	47.106	0	93.80	0	6.9050	0	32.4530	0	25.427	0	92.999	0	266.6	4	89.0	4	-1E+10	1	-1E+10	1	-1E+10	1	-1E+10	1	-1E+10	1	-1E+10	1
4902549	45	C	11/05/2021	17:19	-131.751	47.106	0	94.80	0	6.8900	0	32.4540	0	25.430	0	93.991	0	266.5	4	88.9	4	-1E+10	1	-1E+10	1	-1E+10	1	-1E+10	1	-1E+10	1	-1E+10	1
4902549	45	C	11/05/2021	17:19	-131.751	47.106	0	96.10	0	6.8770	0	32.4560	0	25.433	0	95.279	0	266.1	4	88.7	4	-1E+10	1	-1E+10	1	-1E+10	1	-1E+10	1	-1E+10	1	-1E+10	1
4902549	45	C	11/05/2021	17:19	-131.751	47.106	0	97.00	0	6.8700	0	32.4560	0	25.434	0	96.171	0	265.8	4	88.7	4	-1E+10	1	-1E+10	1	-1E+10	1	-1E+10	1	-1E+10	1	-1E+10	1
4902549	45	C	11/05/2021	17:19	-131.751	47.106	0	97.90	0	6.8490	0	32.4530	0	25.434	0	97.063	0	265.6	4	88.5	4	-1E+10	1	-1E+10	1	-1E+10	1	-1E+10	1	-1E+10	1	-1E+10	1
4902549	45	C	11/05/2021	17:19	-131.751	47.106	0	98.80	0	6.8120	0	32.4560	0	25.441	0	97.956	0	265.2	4	88.3	4	-1E+10	1	-1E+10	1	-1E+10	1	-1E+10	1	-1E+10	1	-1E+10	1
4902549	45	C	11/05/2021	17:19	-131.751	47.106	0	100.10	0	6.7700	0	32.4590	0	25.449	0	99.244	0	264.4	4	88.0	4	-1E+10	1	-1E+10	1	-1E+10	1	-1E+10	1	-1E+10	1	-1E+10	1
4902549	45	C	11/05/2021	17:19	-131.751	47.106	0	101.10	0	6.7220	0	32.4710	0	25.465	0	100.235	0	263.9	4	87.7	4	-1E+10	1	-1E+10	1	-1E+10	1	-1E+10	1	-1E+10	1	-1E+10	1
4902549	45	C	11/05/2021	17:19	-131.751	47.106	0	101.90	0	6.7110	0	32.4760	0	25.470	0	101.028	0	263.5	4	87.6	4	-1E+10	1	-1E+10	1	-1E+10	1	-1E+10	1	-1E+10	1	-1E+10	1
4902549	45	C	11/05/2021	17:19	-131.751	47.106	0	103.00	0	6.7050	0	32.4820	0	25.476	0	102.119	0	262.6	4	87.2	4	-1E+10	1	-1E+10	1	-1E+10	1	-1E+10	1	-1E+10	1	-1E+10	1
4902549	45	C	11/05/2021	17:19	-131.751	47.106	0	104.30	0	6.6970	0	32.4880	0	25.482	0	103.407	0	261.7	4	86.9	4	-1E+10	1	-1E+10	1	-1E+10	1	-1E+10	1	-1E+10	1	-1E+10	1
4902549	45	C	11/05/2021	17:19	-131.751	47.106	0	104.90	0	6.6890	0	32.4910	0	25.485	0	104.002	0	261.1	4	86.7	4	-1E+10	1	-1E+10	1	-1E+10	1	-1E+10	1	-1E+10	1	-1E+10	1
4902549	45	C	11/05/2021	17:19	-131.751	47.106	0	105.80	0	6.6770	0	32.4950	0	25.490	0	104.894	0	260.3	4	86.5	4	-1E+10	1	-1E+10	1	-1E+10	1	-1E+10	1	-1E+10	1	-1E+10	1
4902549	45	C	11/05/2021	17:19	-131.751	47.106	0	107.10	0	6.6610	0	32.5000	0	25.496	0	106.182	0	259.0	4	86.0	4	-1E+10	1	-1E+10	1	-1E+10	1	-1E+10	1	-1E+10	1	-1E+10	1
4902549	45	C	11/05/2021	17:19	-131.751	47.106	0	108.00	0	6.6560	0	32.5020	0	25.498	0	107.074	0	257.9	4	85.6	4	-1E+10	1	-1E+10	1	-1E+10	1	-1E+10	1	-1E+10	1	-1E+10	1
4902549	45	C	11/05/2021	17:19	-131.751	47.106	0	109.10	0	6.6540	0	32.5070	0	25.502	0	108.165	0	255.9	4	85.0	4	-1E+10	1	-1E+10	1	-1E+10	1	-1E+10	1	-1E+10	1	-1E+10	1
4902549	45	C	11/05/2021	17:19	-131.751	47.106	0	110.00	0	6.6590	0	32.5130	0	25.506	0	109.057	0	254.2	4	84.4	4	-1E+10	1	-1E+10	1	-1E+10	1	-1E+10	1	-1E+10	1	-1E+10	1
4902549	45	C	11/05/2021	17:19	-131.751	47.106	0	110.90	0	6.6580	0	32.5330	0	25.522	0	109.949	0	252.5	4	83.8	4	-1E+10	1	-1E+10	1	-1E+10	1	-1E+10	1	-1E+10	1	-1E+10	1
4902549	45	C	11/05/2021	17:19	-131.751	47.106	0	112.20	0	6.6560	0	32.5470	0	25.534	0	111.237	0	249.5	4	82.8	4	-1E+10	1	-1E+10	1	-1E+10	1	-1E+10	1	-1E+10	1	-1E+10	1
4902549	45	C	11/05/2021	17:19	-131.751	47.106	0	113.10	0	6.6690	0	32.5550	0	25.538	0	112.129	0	247.3	4	82.1	4	-1E+10	1	-1E+10	1	-1E+10	1	-1E+10	1	-1E+10	1	-1E+10	1
4902549	45	C	11/05/2021	17:19	-131.751	47.106	0	113.80	0	6.6840	0	32.5800	0	25.556	0	112.823	0	245.5	4	81.6	4	-1E+10	1	-1E+10	1	-1E+10	1	-1E+10	1	-1E+10	1	-1E+10	1
4902549	45	C	11/05/2021	17:19	-131.751	47.106	0	114.70	0	6.6970	0	32.6150	0	25.582	0	113.715	0	243.0	4	80.8	4	-1E+10	1	-1E+10	1	-1E+10	1	-1E+10	1	-1E+10	1	-1E+10	1
4902549	45	C	11/05/2021	17:19	-131.751	47.106	0	115.90	0	6.7190	0	32.6770	0	25.628	0	114.905	0	240.3	4	80.0	4	-1E+10	1	-1E+10	1	-1E+10	1	-1E+10	1	-1E+10	1	-1E+10	1
4902549	45	C	11/05/2021	17:19	-131.751	47.106	0	117.00	0	6.7420	0	32.7110	0	25.652	0	115.995	0	236.2	4	78.7	4	-1E+10	1	-1E+10	1	-1E+10	1	-1E+10	1	-1E+10	1	-1E+10	1
4902549	45	C	11/05/2021	17:19	-131.751	47.106	0	118.10	0	6.7720	0	32.7610	0	25.687	0	117.085	0	231.9	4	77.3	4	-1E+10	1	-1E+10	1	-1E+10	1	-1E+10	1	-1E+10	1	-1E+10	1
4902549	45	C	11/05/2021	17:19	-131.751	47.106	0	119.10	0	6.7820	0	32.8100	0	25.724	0	118.076	0	228.9	4	76.4	4	-1E+10	1	-1E+10	1	-1E+10	1	-1E+10	1	-1E+10	1	-1E+10	1
4902549	45	C	11/05/2021	17:19	-131.751	47.106	0	120.00	0	6.7400	0	32.8220	0	25.739	0	118.968	0	226.9	4	75.7	4	-1E+10	1	-1E+10	1	-1E+10	1	-1E+10	1	-1E+10	1	-1E+10	1
4902549	45	C	11/05/2021	17:19	-131.751	47.106	0	121.10	0	6.6900	0	32.8320	0	25.754	0	120.058	0	224.4	4	74.7	4	-1E+10	1	-1E+10	1	-1E+10	1	-1E+10	1	-1E+10	1	-1E+10	1
4902549	45	C	11/05/2021	17:19	-131.751	47.106	0	121.90	0	6.6970	0	32.8510	0	25.768	0	120.851	0	222.8	4	74.2	4	-1E+10	1	-1E+10	1	-1E+10	1	-1E+10	1	-1E+10	1	-1E+10	1
4902549	45	C	11/05/2021	17:19	-131.751	47.106	0	122.90	0	6.7290	0	32.8820	0	25.788	0	121.842	0	220.6	4	73.6	4	-1E+10	1	-1E+10	1	-1E+10	1	-1E+10	1	-1E+10	1	-1E+10	1
4902549	45	C	11/05/2021	17:19	-131.751	47.106	0	123.80	0	6.7640	0	32.9110	0	25.806	0	122.734	0	218.6	4	73.0	4	-1E+10	1	-1E+10	1	-1E+10	1	-1E+10	1	-1E+10	1	-1E+10	1
4902549	45	C	11/05/2021	17:19	-131.751	47.106	0	124.80	0	6.7850	0	32.9280	0	25.817	0	123.726	0	216.4	4	72.3	4	-1E+10	1	-1E+10	1	-1E+10	1	-1E+10	1	-1E+10	1	-1E+10	1
4902549	45	C	11/05/2021	17:19	-131.751	47.106	0	125.80	0	6.8350	0	32.9630	0	25.838	0	124.717	0	214.0	4	71.6	4	-1E+10	1	-1E+10	1	-1E+10	1	-1E+10	1	-1E+10	1	-1E+10	1
4902549	45	C	11/05/2021	17:19	-131.751	47.106	0	126.80	0	6.8510	0	32.9850	0	25.853	0	125.708	0	211.5	4	70.8	4	-1E+10	1	-1E+10	1	-1E+10	1	-1E+10	1	-1E+10	1	-1E+10	1
4902549	45	C	11/05/2021	17:19	-131.751	47.106	0	127.80	0	6.8570	0	32.9960	0	25.861	0	126.699	0	208.4	4	69.8	4	-1E+10	1	-1E+10	1	-1E+10	1	-1E+10	1	-1E+10	1	-1E+10	1
4902549	45	C	11/05/2021	17:19	-131.751	47.106	0	128.80	0	6.9440	0	33.0480	0	25.891	0	127.690	0	205.0	4	68.8	4	-1E+10	1	-1E+10	1	-1E+10	1	-1E+10	1	-1E+10	1	-1E+10	1
4902549	45	C	11/05/2021	17:19	-131.751	47.106	0	129.80	0	7.0800	0	33.1490	0	25.952	0	128.681	0	201.7	4	67.9	4	-1E+10	1	-1E+10	1	-1E+10	1	-1E+10	1	-1E+10	1	-1E+10	1
4902549	45	C	11/05/2021	17:19	-131.751	47.106	0	131.00	0	7.1350	0	33.2100	0	25.992	0	129.870	0	199.3	4	67.2	4	-1E+10	1	-1E+10	1	-1E+10	1	-1E+10	1	-1E+10	1	-1E+10	1
4902549	45	C	11/05/2021	17:19	-131.751	47.106	0	132.10	0	7.1680	0	33.2640	0	26.030	0	130.960	0	197.2	4	66.6	4	-1E+10	1	-1E+10	1	-1E+10	1	-1E+10	1	-1E+10	1	-1E+10	1
4902549	45	C	11/05/2021	17:19	-131.751	47.106	0	132.90	0	7.1830	0	33.2930	0	26.051	0	131.753	0	195.7	4	66.1	4	-1E+10	1	-1E+10	1	-1E+10	1	-1E+10	1	-1E+10	1	-1E+10	1
4902549	45	C	11/05/2021	17:19	-131.751	47.106	0	133.80	0	7.2040	0	33.3360	0	26.082	0	132.645	0	194.5	4	65.8	4	-1E+10	1	-1E+10	1	-1E+10	1	-1E+10	1	-1E+10	1	-1E+10	1
4902549	45	C	11/05/2021	17:19	-131.751	47.106	0	135.00	0	7.2300	0	33.3910	0	26.122	0	133.834	0	193.0	4	65.3	4	-1E+10	1	-1E+10	1	-1E+10	1	-1E+10	1	-1E+10	1	-1E+10	1
4902549	45	C	11/05/2021	17:19	-131.751	47.106	0	136.00	0	7.2400	0	33.4210	0	26.144	0	134.825	0	192.0	4	65.0	4	-1E+10	1	-1E+10	1	-1E+10	1	-1E+10	1	-1E+10	1	-1E+10	1
4902549	45	C	11/05/2021	17:19	-131.751	47.106	0	137.00	0	7.2450	0	33.4390	0	26.158	0	135.816	0	191.1	4	64.8	4	-1E+10	1	-1E+10	1	-1E+10	1	-1E+10	1	-1E+10	1	-1E+10	1
4902549	45	C	11/05/2021	17:19	-131.751	47.106	0	138.10	0	7.2530	0	33.4930	0	26.199	0	136.907	0	190.4	4	64.5	4	-1E+10	1	-1E+10	1	-1E+10	1	-1E+10	1	-1E+10	1	-1E+10	1
4902549	45	C	11/05/2021	17:19	-131.751	47.106	0	139.00	0	7.2540	0	33.5000	0	26.204	0	137.799	0	189.7	4	64.3	4	-1E+10	1	-1E+10	1	-1E+10	1	-1E+10	1	-1E+10	1	-1E+10	1
4902549	45	C	11/05/2021	17:19	-131.751	47.106	0	140.10	0	7.2540	0	33.5050	0	26.208	0	138.889	0	189.0	4	64.1	4	-1E+10	1	-1E+10	1	-1E+10	1	-1E+10	1	-1E+10	1	-1E+10	1
4902549	45	C	11/05/2021	17:19	-131.751	47.106	0	140.80	0	7.2580	0	33.5160	0	26.216	0	139.582	0	188.5	4	63.9	4	-1E+10	1	-1E+10	1	-1E+10	1	-1E+10	1	-1E+10	1	-1E+10	1
4902549	45	C	11/05/2021	17:19	-131.751	47.106	0	141.90	0	7.2610	0	33.5390	0	26.234	0	140.672	0	187.8	4	63.7	4	-1E+10	1	-1E+10	1	-1E+10	1	-1E+10	1	-1E+10	1	-1E+10	1
4902549	45	C	11/05/2021	17:19	-131.751	47.106	0	143.00	0	7.2590	0	33.5530	0	26.245	0	141.763	0	187.1	4	63.5	4	-1E+10	1	-1E+10	1	-1E+10	1	-1E+10	1	-1E+10	1	-1E+10	1
4902549	45	C	11/05/2021	17:19	-131.751	47.106	0	143.70	0	7.2600	0	33.5580	0	26.249	0	142.456	0	186.6	4	63.3	4	-1E+10	1	-1E+10	1	-1E+10	1	-1E+10	1	-1E+10	1	-1E+10	1
4902549	45	C	11/05/2021	17:19	-131.751	47.106	0	144.90	0	7.2610	0	33.5760	0	26.263	0	143.645	0	185.8	4	63.0	4	-1E+10	1	-1E+10	1	-1E+10	1	-1E+10	1	-1E+10	1	-1E+10	1
4902549	45	C	11/05/2021	17:19	-131.751	47.106	0	146.10	0	7.2590	0	33.5970	0	26.280	0	144.835	0	185.0	4	62.8	4	-1E+10	1	-1E+10	1	-1E+10	1	-1E+10	1	-1E+10	1	-1E+10	1
4902549	45	C	11/05/2021	17:19	-131.751	47.106	0	146.90	0	7.2490	0	33.6170	0	26.297	0	145.627	0	184.6	4	62.6	4	-1E+10	1	-1E+10	1	-1E+10	1	-1E+10	1	-1E+10	1	-1E+10	1
4902549	45	C	11/05/2021	17:19	-131.751	47.106	0	147.80	0	7.2470	0	33.6250	0	26.304	0	146.519	0	184.3	4	62.5	4	-1E+10	1	-1E+10	1	-1E+10	1	-1E+10	1	-1E+10	1	-1E+10	1
4902549	45	C	11/05/2021	17:19	-131.751	47.106	0	148.60	0	7.2430	0	33.6350	0	26.312	0	147.312	0	183.8	4	62.4	4	-1E+10	1	-1E+10	1	-1E+10	1	-1E+10	1	-1E+10	1	-1E+10	1
4902549	45	C	11/05/2021	17:19	-131.751	47.106	0	149.90	0	7.2360	0	33.6490	0	26.324	0	148.600	0	183.3	4	62.2	4	-1E+10	1	-1E+10	1	-1E+10	1	-1E+10	1	-1E+10	1	-1E+10	1
4902549	45	C	11/05/2021	17:19	-131.751	47.106	0	151.20	0	7.2290	0	33.6560	0	26.331	0	149.889	0	182.8	4	62.0	4	-1E+10	1	-1E+10	1	-1E+10	1	-1E+10	1	-1E+10	1	-1E+10	1
4902549	45	C	11/05/2021	17:19	-131.751	47.106	0	152.10	0	7.2200	0	33.6650	0	26.339	0	150.780	0	182.5	4	61.9	4	-1E+10	1	-1E+10	1	-1E+10	1	-1E+10	1	-1E+10	1	-1E+10	1
4902549	45	C	11/05/2021	17:19	-131.751	47.106	0	153.00	0	7.2110	0	33.6710	0	26.345	0	151.672	0	182.2	4	61.8	4	-1E+10	1	-1E+10	1	-1E+10	1	-1E+10	1	-1E+10	1	-1E+10	1
4902549	45	C	11/05/2021	17:19	-131.751	47.106	0	153.90	0	7.2130	0	33.6730	0	26.346	0	152.564	0	181.9	4	61.7	4	-1E+10	1	-1E+10	1	-1E+10	1	-1E+10	1	-1E+10	1	-1E+10	1
4902549	45	C	11/05/2021	17:19	-131.751	47.106	0	154.80	0	7.2120	0	33.6810	0	26.353	0	153.456	0	181.4	4	61.5	4	-1E+10	1	-1E+10	1	-1E+10	1	-1E+10	1	-1E+10	1	-1E+10	1
4902549	45	C	11/05/2021	17:19	-131.751	47.106	0	155.70	0	7.2120	0	33.6830	0	26.354	0	154.348	0	181.0	4	61.4	4	-1E+10	1	-1E+10	1	-1E+10	1	-1E+10	1	-1E+10	1	-1E+10	1
4902549	45	C	11/05/2021	17:19	-131.751	47.106	0	156.60	0	7.1990	0	33.6980	0	26.368	0	155.240	0	180.6	4	61.2	4	-1E+10	1	-1E+10	1	-1E+10	1	-1E+10	1	-1E+10	1	-1E+10	1
4902549	45	C	11/05/2021	17:19	-131.751	47.106	0	157.60	0	7.1850	0	33.7040	0	26.375	0	156.231	0	180.2	4	61.1	4	-1E+10	1	-1E+10	1	-1E+10	1	-1E+10	1	-1E+10	1	-1E+10	1
4902549	45	C	11/05/2021	17:19	-131.751	47.106	0	158.50	0	7.1640	0	33.7100	0	26.382	0	157.123	0	179.9	4	61.0	4	-1E+10	1	-1E+10	1	-1E+10	1	-1E+10	1	-1E+10	1	-1E+10	1
4902549	45	C	11/05/2021	17:19	-131.751	47.106	0	159.90	0	7.1430	0	33.7150	0	26.389	0	158.510	0	179.4	4	60.8	4	-1E+10	1	-1E+10	1	-1E+10	1	-1E+10	1	-1E+10	1	-1E+10	1
4902549	45	C	11/05/2021	17:19	-131.751	47.106	0	161.40	0	7.1210	0	33.7230	0	26.399	0	159.996	0	179.0	4	60.6	4	-1E+10	1	-1E+10	1	-1E+10	1	-1E+10	1	-1E+10	1	-1E+10	1
4902549	45	C	11/05/2021	17:19	-131.751	47.106	0	162.40	0	7.1200	0	33.7230	0	26.399	0	160.987	0	178.7	4	60.5	4	-1E+10	1	-1E+10	1	-1E+10	1	-1E+10	1	-1E+10	1	-1E+10	1
4902549	45	C	11/05/2021	17:19	-131.751	47.106	0	163.40	0	7.1090	0	33.7300	0	26.406	0	161.978	0	178.4	4	60.4	4	-1E+10	1	-1E+10	1	-1E+10	1	-1E+10	1	-1E+10	1	-1E+10	1
4902549	45	C	11/05/2021	17:19	-131.751	47.106	0	164.40	0	7.1020	0	33.7300	0	26.407	0	162.969	0	178.0	4	60.2	4	-1E+10	1	-1E+10	1	-1E+10	1	-1E+10	1	-1E+10	1	-1E+10	1
4902549	45	C	11/05/2021	17:19	-131.751	47.106	0	165.40	0	7.0910	0	33.7340	0	26.411	0	163.960	0	177.7	4	60.1	4	-1E+10	1	-1E+10	1	-1E+10	1	-1E+10	1	-1E+10	1	-1E+10	1
4902549	45	C	11/05/2021	17:19	-131.751	47.106	0	166.40	0	7.0840	0	33.7380	0	26.415	0	164.951	0	177.3	4	60.0	4	-1E+10	1	-1E+10	1	-1E+10	1	-1E+10	1	-1E+10	1	-1E+10	1
4902549	45	C	11/05/2021	17:19	-131.751	47.106	0	167.40	0	7.0700	0	33.7410	0	26.420	0	165.942	0	177.1	4	59.9	4	-1E+10	1	-1E+10	1	-1E+10	1	-1E+10	1	-1E+10	1	-1E+10	1
4902549	45	C	11/05/2021	17:19	-131.751	47.106	0	168.50	0	7.0600	0	33.7450	0	26.424	0	167.032	0	176.8	4	59.8	4	-1E+10	1	-1E+10	1	-1E+10	1	-1E+10	1	-1E+10	1	-1E+10	1
4902549	45	C	11/05/2021	17:19	-131.751	47.106	0	169.50	0	7.0530	0	33.7460	0	26.426	0	168.022	0	176.5	4	59.7	4	-1E+10	1	-1E+10	1	-1E+10	1	-1E+10	1	-1E+10	1	-1E+10	1
4902549	45	C	11/05/2021	17:19	-131.751	47.106	0	170.60	0	7.0470	0	33.7470	0	26.428	0	169.112	0	176.2	4	59.6	4	-1E+10	1	-1E+10	1	-1E+10	1	-1E+10	1	-1E+10	1	-1E+10	1
4902549	45	C	11/05/2021	17:19	-131.751	47.106	0	171.60	0	7.0410	0	33.7480	0	26.429	0	170.103	0	175.8	4	59.4	4	-1E+10	1	-1E+10	1	-1E+10	1	-1E+10	1	-1E+10	1	-1E+10	1
4902549	45	C	11/05/2021	17:19	-131.751	47.106	0	172.70	0	7.0340	0	33.7490	0	26.431	0	171.193	0	175.5	4	59.3	4	-1E+10	1	-1E+10	1	-1E+10	1	-1E+10	1	-1E+10	1	-1E+10	1
4902549	45	C	11/05/2021	17:19	-131.751	47.106	0	173.70	0	7.0250	0	33.7510	0	26.434	0	172.184	0	175.2	4	59.2	4	-1E+10	1	-1E+10	1	-1E+10	1	-1E+10	1	-1E+10	1	-1E+10	1
4902549	45	C	11/05/2021	17:19	-131.751	47.106	0	174.80	0	7.0100	0	33.7540	0	26.438	0	173.274	0	174.9	4	59.1	4	-1E+10	1	-1E+10	1	-1E+10	1	-1E+10	1	-1E+10	1	-1E+10	1
4902549	45	C	11/05/2021	17:19	-131.751	47.106	0	175.90	0	7.0040	0	33.7540	0	26.439	0	174.364	0	174.5	4	58.9	4	-1E+10	1	-1E+10	1	-1E+10	1	-1E+10	1	-1E+10	1	-1E+10	1
4902549	45	C	11/05/2021	17:19	-131.751	47.106	0	177.00	0	6.9980	0	33.7550	0	26.441	0	175.454	0	174.2	4	58.8	4	-1E+10	1	-1E+10	1	-1E+10	1	-1E+10	1	-1E+10	1	-1E+10	1
4902549	45	C	11/05/2021	17:19	-131.751	47.106	0	178.10	0	6.9970	0	33.7550	0	26.441	0	176.544	0	173.8	4	58.7	4	-1E+10	1	-1E+10	1	-1E+10	1	-1E+10	1	-1E+10	1	-1E+10	1
4902549	45	C	11/05/2021	17:19	-131.751	47.106	0	179.10	0	6.9810	0	33.7580	0	26.445	0	177.535	0	173.4	4	58.5	4	-1E+10	1	-1E+10	1	-1E+10	1	-1E+10	1	-1E+10	1	-1E+10	1
4902549	45	C	11/05/2021	17:19	-131.751	47.106	0	180.20	0	6.9680	0	33.7610	0	26.450	0	178.625	0	173.0	4	58.4	4	-1E+10	1	-1E+10	1	-1E+10	1	-1E+10	1	-1E+10	1	-1E+10	1
4902549	45	C	11/05/2021	17:19	-131.751	47.106	0	181.30	0	6.9470	0	33.7620	0	26.453	0	179.714	0	172.7	4	58.3	4	-1E+10	1	-1E+10	1	-1E+10	1	-1E+10	1	-1E+10	1	-1E+10	1
4902549	45	C	11/05/2021	17:19	-131.751	47.106	0	182.40	0	6.9350	0	33.7620	0	26.455	0	180.804	0	172.4	4	58.1	4	-1E+10	1	-1E+10	1	-1E+10	1	-1E+10	1	-1E+10	1	-1E+10	1
4902549	45	C	11/05/2021	17:19	-131.751	47.106	0	183.50	0	6.9150	0	33.7640	0	26.459	0	181.894	0	172.2	4	58.0	4	-1E+10	1	-1E+10	1	-1E+10	1	-1E+10	1	-1E+10	1	-1E+10	1
4902549	45	C	11/05/2021	17:19	-131.751	47.106	0	184.60	0	6.9140	0	33.7640	0	26.459	0	182.984	0	171.8	4	57.9	4	-1E+10	1	-1E+10	1	-1E+10	1	-1E+10	1	-1E+10	1	-1E+10	1
4902549	45	C	11/05/2021	17:19	-131.751	47.106	0	185.70	0	6.8820	0	33.7670	0	26.466	0	184.074	0	171.6	4	57.8	4	-1E+10	1	-1E+10	1	-1E+10	1	-1E+10	1	-1E+10	1	-1E+10	1
4902549	45	C	11/05/2021	17:19	-131.751	47.106	0	186.70	0	6.8670	0	33.7680	0	26.469	0	185.065	0	171.4	4	57.7	4	-1E+10	1	-1E+10	1	-1E+10	1	-1E+10	1	-1E+10	1	-1E+10	1
4902549	45	C	11/05/2021	17:19	-131.751	47.106	0	187.80	0	6.8630	0	33.7680	0	26.469	0	186.155	0	171.0	4	57.6	4	-1E+10	1	-1E+10	1	-1E+10	1	-1E+10	1	-1E+10	1	-1E+10	1
4902549	45	C	11/05/2021	17:19	-131.751	47.106	0	188.90	0	6.8540	0	33.7690	0	26.471	0	187.245	0	170.8	4	57.5	4	-1E+10	1	-1E+10	1	-1E+10	1	-1E+10	1	-1E+10	1	-1E+10	1
4902549	45	C	11/05/2021	17:19	-131.751	47.106	0	190.00	0	6.8530	0	33.7690	0	26.472	0	188.334	0	170.4	4	57.4	4	-1E+10	1	-1E+10	1	-1E+10	1	-1E+10	1	-1E+10	1	-1E+10	1
4902549	45	C	11/05/2021	17:19	-131.751	47.106	0	191.10	0	6.8520	0	33.7680	0	26.471	0	189.424	0	170.1	4	57.2	4	-1E+10	1	-1E+10	1	-1E+10	1	-1E+10	1	-1E+10	1	-1E+10	1
4902549	45	C	11/05/2021	17:19	-131.751	47.106	0	192.10	0	6.8510	0	33.7690	0	26.472	0	190.415	0	169.7	4	57.1	4	-1E+10	1	-1E+10	1	-1E+10	1	-1E+10	1	-1E+10	1	-1E+10	1
4902549	45	C	11/05/2021	17:19	-131.751	47.106	0	193.20	0	6.8380	0	33.7700	0	26.474	0	191.505	0	169.2	4	56.9	4	-1E+10	1	-1E+10	1	-1E+10	1	-1E+10	1	-1E+10	1	-1E+10	1
4902549	45	C	11/05/2021	17:19	-131.751	47.106	0	194.30	0	6.8270	0	33.7710	0	26.477	0	192.595	0	168.9	4	56.8	4	-1E+10	1	-1E+10	1	-1E+10	1	-1E+10	1	-1E+10	1	-1E+10	1
4902549	45	C	11/05/2021	17:19	-131.751	47.106	0	195.30	0	6.8250	0	33.7730	0	26.479	0	193.585	0	168.5	4	56.7	4	-1E+10	1	-1E+10	1	-1E+10	1	-1E+10	1	-1E+10	1	-1E+10	1
4902549	45	C	11/05/2021	17:19	-131.751	47.106	0	196.40	0	6.8190	0	33.7750	0	26.481	0	194.675	0	168.1	4	56.6	4	-1E+10	1	-1E+10	1	-1E+10	1	-1E+10	1	-1E+10	1	-1E+10	1
4902549	45	C	11/05/2021	17:19	-131.751	47.106	0	197.40	0	6.8040	0	33.7760	0	26.484	0	195.666	0	167.8	4	56.4	4	-1E+10	1	-1E+10	1	-1E+10	1	-1E+10	1	-1E+10	1	-1E+10	1
4902549	45	C	11/05/2021	17:19	-131.751	47.106	0	198.50	0	6.7910	0	33.7740	0	26.484	0	196.756	0	167.5	4	56.3	4	-1E+10	1	-1E+10	1	-1E+10	1	-1E+10	1	-1E+10	1	-1E+10	1
4902549	45	C	11/05/2021	17:19	-131.751	47.106	0	199.50	0	6.7820	0	33.7740	0	26.485	0	197.747	0	167.0	4	56.1	4	-1E+10	1	-1E+10	1	-1E+10	1	-1E+10	1	-1E+10	1	-1E+10	1
4902549	45	C	11/05/2021	17:19	-131.751	47.106	0	200.50	0	6.7590	0	33.7770	0	26.491	0	198.737	0	166.6	4	56.0	4	-1E+10	1	-1E+10	1	-1E+10	1	-1E+10	1	-1E+10	1	-1E+10	1
4902549	45	C	11/05/2021	17:19	-131.751	47.106	0	201.60	0	6.7380	0	33.7760	0	26.493	0	199.827	0	166.3	4	55.8	4	-1E+10	1	-1E+10	1	-1E+10	1	-1E+10	1	-1E+10	1	-1E+10	1
4902549	45	C	11/05/2021	17:19	-131.751	47.106	0	202.60	0	6.7330	0	33.7760	0	26.493	0	200.818	0	166.0	4	55.7	4	-1E+10	1	-1E+10	1	-1E+10	1	-1E+10	1	-1E+10	1	-1E+10	1
4902549	45	C	11/05/2021	17:19	-131.751	47.106	0	203.70	0	6.7320	0	33.7760	0	26.493	0	201.908	0	165.4	4	55.5	4	-1E+10	1	-1E+10	1	-1E+10	1	-1E+10	1	-1E+10	1	-1E+10	1
4902549	45	C	11/05/2021	17:19	-131.751	47.106	0	204.70	0	6.7200	0	33.7770	0	26.496	0	202.898	0	165.0	4	55.4	4	-1E+10	1	-1E+10	1	-1E+10	1	-1E+10	1	-1E+10	1	-1E+10	1
4902549	45	C	11/05/2021	17:19	-131.751	47.106	0	205.70	0	6.6980	0	33.7770	0	26.499	0	203.889	0	164.7	4	55.2	4	-1E+10	1	-1E+10	1	-1E+10	1	-1E+10	1	-1E+10	1	-1E+10	1
4902549	45	C	11/05/2021	17:19	-131.751	47.106	0	206.70	0	6.6830	0	33.7770	0	26.501	0	204.880	0	164.3	4	55.1	4	-1E+10	1	-1E+10	1	-1E+10	1	-1E+10	1	-1E+10	1	-1E+10	1
4902549	45	C	11/05/2021	17:19	-131.751	47.106	0	207.70	0	6.6760	0	33.7770	0	26.502	0	205.870	0	163.8	4	54.9	4	-1E+10	1	-1E+10	1	-1E+10	1	-1E+10	1	-1E+10	1	-1E+10	1
4902549	45	C	11/05/2021	17:19	-131.751	47.106	0	208.80	0	6.6700	0	33.7770	0	26.502	0	206.960	0	163.3	4	54.7	4	-1E+10	1	-1E+10	1	-1E+10	1	-1E+10	1	-1E+10	1	-1E+10	1
4902549	45	C	11/05/2021	17:19	-131.751	47.106	0	209.80	0	6.6660	0	33.7770	0	26.503	0	207.951	0	162.6	4	54.5	4	-1E+10	1	-1E+10	1	-1E+10	1	-1E+10	1	-1E+10	1	-1E+10	1
4902549	45	C	11/05/2021	17:19	-131.751	47.106	0	210.80	0	6.6560	0	33.7760	0	26.504	0	208.942	0	162.1	4	54.3	4	-1E+10	1	-1E+10	1	-1E+10	1	-1E+10	1	-1E+10	1	-1E+10	1
4902549	45	C	11/05/2021	17:19	-131.751	47.106	0	211.80	0	6.6470	0	33.7770	0	26.506	0	209.932	0	161.4	4	54.1	4	-1E+10	1	-1E+10	1	-1E+10	1	-1E+10	1	-1E+10	1	-1E+10	1
4902549	45	C	11/05/2021	17:19	-131.751	47.106	0	212.70	0	6.6160	0	33.7810	0	26.513	0	210.824	0	160.9	4	53.9	4	-1E+10	1	-1E+10	1	-1E+10	1	-1E+10	1	-1E+10	1	-1E+10	1
4902549	45	C	11/05/2021	17:19	-131.751	47.106	0	213.70	0	6.6090	0	33.7800	0	26.513	0	211.815	0	160.4	4	53.7	4	-1E+10	1	-1E+10	1	-1E+10	1	-1E+10	1	-1E+10	1	-1E+10	1
4902549	45	C	11/05/2021	17:19	-131.751	47.106	0	214.70	0	6.5930	0	33.7830	0	26.517	0	212.805	0	159.9	4	53.5	4	-1E+10	1	-1E+10	1	-1E+10	1	-1E+10	1	-1E+10	1	-1E+10	1
4902549	45	C	11/05/2021	17:19	-131.751	47.106	0	215.70	0	6.5750	0	33.7820	0	26.519	0	213.796	0	159.4	4	53.3	4	-1E+10	1	-1E+10	1	-1E+10	1	-1E+10	1	-1E+10	1	-1E+10	1
4902549	45	C	11/05/2021	17:19	-131.751	47.106	0	216.60	0	6.5720	0	33.7830	0	26.520	0	214.687	0	158.8	4	53.1	4	-1E+10	1	-1E+10	1	-1E+10	1	-1E+10	1	-1E+10	1	-1E+10	1
4902549	45	C	11/05/2021	17:19	-131.751	47.106	0	217.60	0	6.5540	0	33.7830	0	26.523	0	215.678	0	158.3	4	52.9	4	-1E+10	1	-1E+10	1	-1E+10	1	-1E+10	1	-1E+10	1	-1E+10	1
4902549	45	C	11/05/2021	17:19	-131.751	47.106	0	218.50	0	6.5370	0	33.7850	0	26.526	0	216.570	0	157.9	4	52.8	4	-1E+10	1	-1E+10	1	-1E+10	1	-1E+10	1	-1E+10	1	-1E+10	1
4902549	45	C	11/05/2021	17:19	-131.751	47.106	0	219.50	0	6.5250	0	33.7840	0	26.527	0	217.560	0	157.4	4	52.6	4	-1E+10	1	-1E+10	1	-1E+10	1	-1E+10	1	-1E+10	1	-1E+10	1
4902549	45	C	11/05/2021	17:19	-131.751	47.106	0	220.90	0	6.5200	0	33.7840	0	26.528	0	218.947	0	156.5	4	52.3	4	-1E+10	1	-1E+10	1	-1E+10	1	-1E+10	1	-1E+10	1	-1E+10	1
4902549	45	C	11/05/2021	17:19	-131.751	47.106	0	222.40	0	6.5100	0	33.7850	0	26.530	0	220.433	0	155.5	4	51.9	4	-1E+10	1	-1E+10	1	-1E+10	1	-1E+10	1	-1E+10	1	-1E+10	1
4902549	45	C	11/05/2021	17:19	-131.751	47.106	0	223.30	0	6.4730	0	33.7900	0	26.539	0	221.325	0	155.0	4	51.7	4	-1E+10	1	-1E+10	1	-1E+10	1	-1E+10	1	-1E+10	1	-1E+10	1
4902549	45	C	11/05/2021	17:19	-131.751	47.106	0	224.30	0	6.4540	0	33.7880	0	26.540	0	222.315	0	154.7	4	51.6	4	-1E+10	1	-1E+10	1	-1E+10	1	-1E+10	1	-1E+10	1	-1E+10	1
4902549	45	C	11/05/2021	17:19	-131.751	47.106	0	225.30	0	6.4360	0	33.7890	0	26.543	0	223.306	0	154.2	4	51.4	4	-1E+10	1	-1E+10	1	-1E+10	1	-1E+10	1	-1E+10	1	-1E+10	1
4902549	45	C	11/05/2021	17:19	-131.751	47.106	0	226.20	0	6.4300	0	33.7890	0	26.544	0	224.197	0	153.7	4	51.3	4	-1E+10	1	-1E+10	1	-1E+10	1	-1E+10	1	-1E+10	1	-1E+10	1
4902549	45	C	11/05/2021	17:19	-131.751	47.106	0	227.10	0	6.4190	0	33.7900	0	26.546	0	225.089	0	153.2	4	51.1	4	-1E+10	1	-1E+10	1	-1E+10	1	-1E+10	1	-1E+10	1	-1E+10	1
4902549	45	C	11/05/2021	17:19	-131.751	47.106	0	228.10	0	6.4010	0	33.7900	0	26.548	0	226.080	0	152.8	4	50.9	4	-1E+10	1	-1E+10	1	-1E+10	1	-1E+10	1	-1E+10	1	-1E+10	1
4902549	45	C	11/05/2021	17:19	-131.751	47.106	0	229.00	0	6.3990	0	33.7900	0	26.548	0	226.971	0	152.2	4	50.7	4	-1E+10	1	-1E+10	1	-1E+10	1	-1E+10	1	-1E+10	1	-1E+10	1
4902549	45	C	11/05/2021	17:19	-131.751	47.106	0	230.00	0	6.3990	0	33.7890	0	26.548	0	227.962	0	151.5	4	50.5	4	-1E+10	1	-1E+10	1	-1E+10	1	-1E+10	1	-1E+10	1	-1E+10	1
4902549	45	C	11/05/2021	17:19	-131.751	47.106	0	230.90	0	6.3960	0	33.7890	0	26.548	0	228.853	0	150.8	4	50.2	4	-1E+10	1	-1E+10	1	-1E+10	1	-1E+10	1	-1E+10	1	-1E+10	1
4902549	45	C	11/05/2021	17:19	-131.751	47.106	0	231.90	0	6.3830	0	33.7900	0	26.551	0	229.844	0	150.0	4	49.9	4	-1E+10	1	-1E+10	1	-1E+10	1	-1E+10	1	-1E+10	1	-1E+10	1
4902549	45	C	11/05/2021	17:19	-131.751	47.106	0	232.80	0	6.3560	0	33.7910	0	26.555	0	230.735	0	149.4	4	49.7	4	-1E+10	1	-1E+10	1	-1E+10	1	-1E+10	1	-1E+10	1	-1E+10	1
4902549	45	C	11/05/2021	17:19	-131.751	47.106	0	233.80	0	6.3440	0	33.7920	0	26.557	0	231.726	0	148.6	4	49.4	4	-1E+10	1	-1E+10	1	-1E+10	1	-1E+10	1	-1E+10	1	-1E+10	1
4902549	45	C	11/05/2021	17:19	-131.751	47.106	0	234.70	0	6.3360	0	33.7910	0	26.557	0	232.617	0	147.7	4	49.1	4	-1E+10	1	-1E+10	1	-1E+10	1	-1E+10	1	-1E+10	1	-1E+10	1
4902549	45	C	11/05/2021	17:19	-131.751	47.106	0	235.60	0	6.3300	0	33.7910	0	26.558	0	233.509	0	146.9	4	48.9	4	-1E+10	1	-1E+10	1	-1E+10	1	-1E+10	1	-1E+10	1	-1E+10	1
4902549	45	C	11/05/2021	17:19	-131.751	47.106	0	236.60	0	6.3160	0	33.7920	0	26.561	0	234.500	0	145.9	4	48.5	4	-1E+10	1	-1E+10	1	-1E+10	1	-1E+10	1	-1E+10	1	-1E+10	1
4902549	45	C	11/05/2021	17:19	-131.751	47.106	0	237.50	0	6.2780	0	33.7940	0	26.567	0	235.391	0	145.3	4	48.3	4	-1E+10	1	-1E+10	1	-1E+10	1	-1E+10	1	-1E+10	1	-1E+10	1
4902549	45	C	11/05/2021	17:19	-131.751	47.106	0	238.90	0	6.2500	0	33.7960	0	26.572	0	236.778	0	144.3	4	47.9	4	-1E+10	1	-1E+10	1	-1E+10	1	-1E+10	1	-1E+10	1	-1E+10	1
4902549	45	C	11/05/2021	17:19	-131.751	47.106	0	240.40	0	6.2090	0	33.7980	0	26.579	0	238.264	0	143.3	4	47.5	4	-1E+10	1	-1E+10	1	-1E+10	1	-1E+10	1	-1E+10	1	-1E+10	1
4902549	45	C	11/05/2021	17:19	-131.751	47.106	0	241.30	0	6.2000	0	33.7990	0	26.581	0	239.155	0	142.7	4	47.3	4	-1E+10	1	-1E+10	1	-1E+10	1	-1E+10	1	-1E+10	1	-1E+10	1
4902549	45	C	11/05/2021	17:19	-131.751	47.106	0	242.30	0	6.1890	0	33.8000	0	26.583	0	240.146	0	142.0	4	47.1	4	-1E+10	1	-1E+10	1	-1E+10	1	-1E+10	1	-1E+10	1	-1E+10	1
4902549	45	C	11/05/2021	17:19	-131.751	47.106	0	243.30	0	6.1660	0	33.8010	0	26.587	0	241.136	0	141.4	4	46.9	4	-1E+10	1	-1E+10	1	-1E+10	1	-1E+10	1	-1E+10	1	-1E+10	1
4902549	45	C	11/05/2021	17:19	-131.751	47.106	0	244.20	0	6.1590	0	33.8020	0	26.589	0	242.028	0	140.8	4	46.7	4	-1E+10	1	-1E+10	1	-1E+10	1	-1E+10	1	-1E+10	1	-1E+10	1
4902549	45	C	11/05/2021	17:19	-131.751	47.106	0	245.20	0	6.1520	0	33.8030	0	26.590	0	243.018	0	140.2	4	46.4	4	-1E+10	1	-1E+10	1	-1E+10	1	-1E+10	1	-1E+10	1	-1E+10	1
4902549	45	C	11/05/2021	17:19	-131.751	47.106	0	246.10	0	6.1520	0	33.8040	0	26.591	0	243.910	0	139.5	4	46.2	4	-1E+10	1	-1E+10	1	-1E+10	1	-1E+10	1	-1E+10	1	-1E+10	1
4902549	45	C	11/05/2021	17:19	-131.751	47.106	0	247.10	0	6.1410	0	33.8040	0	26.593	0	244.900	0	138.7	4	45.9	4	-1E+10	1	-1E+10	1	-1E+10	1	-1E+10	1	-1E+10	1	-1E+10	1
4902549	45	C	11/05/2021	17:19	-131.751	47.106	0	248.00	0	6.1210	0	33.8030	0	26.594	0	245.792	0	137.9	4	45.7	4	-1E+10	1	-1E+10	1	-1E+10	1	-1E+10	1	-1E+10	1	-1E+10	1
4902549	45	C	11/05/2021	17:19	-131.751	47.106	0	249.00	0	6.1070	0	33.8030	0	26.596	0	246.782	0	137.0	4	45.4	4	-1E+10	1	-1E+10	1	-1E+10	1	-1E+10	1	-1E+10	1	-1E+10	1
4902549	45	C	11/05/2021	17:19	-131.751	47.106	0	250.00	0	6.0830	0	33.8030	0	26.599	0	247.773	0	136.2	4	45.0	4	-1E+10	1	-1E+10	1	-1E+10	1	-1E+10	1	-1E+10	1	-1E+10	1
4902549	45	C	11/05/2021	17:19	-131.751	47.106	0	250.90	0	6.0570	0	33.7990	0	26.599	0	248.664	0	135.4	4	44.8	4	-1E+10	1	-1E+10	1	-1E+10	1	-1E+10	1	-1E+10	1	-1E+10	1
4902549	45	C	11/05/2021	17:19	-131.751	47.106	0	251.90	0	6.0290	0	33.8020	0	26.605	0	249.654	0	134.6	4	44.4	4	-1E+10	1	-1E+10	1	-1E+10	1	-1E+10	1	-1E+10	1	-1E+10	1
4902549	45	C	11/05/2021	17:19	-131.751	47.106	0	252.90	0	5.9990	0	33.8060	0	26.612	0	250.645	0	133.8	4	44.2	4	-1E+10	1	-1E+10	1	-1E+10	1	-1E+10	1	-1E+10	1	-1E+10	1
4902549	45	C	11/05/2021	17:19	-131.751	47.106	0	253.90	0	5.9690	0	33.8050	0	26.615	0	251.635	0	133.1	4	43.9	4	-1E+10	1	-1E+10	1	-1E+10	1	-1E+10	1	-1E+10	1	-1E+10	1
4902549	45	C	11/05/2021	17:19	-131.751	47.106	0	254.80	0	5.9380	0	33.8070	0	26.621	0	252.527	0	132.5	4	43.7	4	-1E+10	1	-1E+10	1	-1E+10	1	-1E+10	1	-1E+10	1	-1E+10	1
4902549	45	C	11/05/2021	17:19	-131.751	47.106	0	255.80	0	5.9090	0	33.8080	0	26.625	0	253.517	0	132.1	4	43.5	4	-1E+10	1	-1E+10	1	-1E+10	1	-1E+10	1	-1E+10	1	-1E+10	1
4902549	45	C	11/05/2021	17:19	-131.751	47.106	0	256.70	0	5.9020	0	33.8100	0	26.627	0	254.409	0	131.5	4	43.3	4	-1E+10	1	-1E+10	1	-1E+10	1	-1E+10	1	-1E+10	1	-1E+10	1
4902549	45	C	11/05/2021	17:19	-131.751	47.106	0	257.70	0	5.9020	0	33.8130	0	26.630	0	255.399	0	131.0	4	43.2	4	-1E+10	1	-1E+10	1	-1E+10	1	-1E+10	1	-1E+10	1	-1E+10	1
4902549	45	C	11/05/2021	17:19	-131.751	47.106	0	258.70	0	5.8980	0	33.8140	0	26.631	0	256.390	0	130.5	4	43.0	4	-1E+10	1	-1E+10	1	-1E+10	1	-1E+10	1	-1E+10	1	-1E+10	1
4902549	45	C	11/05/2021	17:19	-131.751	47.106	0	259.70	0	5.8990	0	33.8130	0	26.630	0	257.380	0	129.8	4	42.8	4	-1E+10	1	-1E+10	1	-1E+10	1	-1E+10	1	-1E+10	1	-1E+10	1
4902549	45	C	11/05/2021	17:19	-131.751	47.106	0	260.60	0	5.8930	0	33.8120	0	26.630	0	258.271	0	129.1	4	42.5	4	-1E+10	1	-1E+10	1	-1E+10	1	-1E+10	1	-1E+10	1	-1E+10	1
4902549	45	C	11/05/2021	17:19	-131.751	47.106	0	261.60	0	5.8650	0	33.8150	0	26.636	0	259.262	0	128.5	4	42.3	4	-1E+10	1	-1E+10	1	-1E+10	1	-1E+10	1	-1E+10	1	-1E+10	1
4902549	45	C	11/05/2021	17:19	-131.751	47.106	0	262.60	0	5.8530	0	33.8130	0	26.636	0	260.252	0	127.9	4	42.1	4	-1E+10	1	-1E+10	1	-1E+10	1	-1E+10	1	-1E+10	1	-1E+10	1
4902549	45	C	11/05/2021	17:19	-131.751	47.106	0	263.50	0	5.8340	0	33.8130	0	26.638	0	261.144	0	127.3	4	41.9	4	-1E+10	1	-1E+10	1	-1E+10	1	-1E+10	1	-1E+10	1	-1E+10	1
4902549	45	C	11/05/2021	17:19	-131.751	47.106	0	264.50	0	5.8120	0	33.8140	0	26.642	0	262.134	0	126.8	4	41.7	4	-1E+10	1	-1E+10	1	-1E+10	1	-1E+10	1	-1E+10	1	-1E+10	1
4902549	45	C	11/05/2021	17:19	-131.751	47.106	0	265.50	0	5.7990	0	33.8140	0	26.643	0	263.125	0	126.2	4	41.5	4	-1E+10	1	-1E+10	1	-1E+10	1	-1E+10	1	-1E+10	1	-1E+10	1
4902549	45	C	11/05/2021	17:19	-131.751	47.106	0	266.50	0	5.7960	0	33.8150	0	26.644	0	264.115	0	125.6	4	41.3	4	-1E+10	1	-1E+10	1	-1E+10	1	-1E+10	1	-1E+10	1	-1E+10	1
4902549	45	C	11/05/2021	17:19	-131.751	47.106	0	267.50	0	5.7890	0	33.8200	0	26.649	0	265.105	0	124.9	4	41.0	4	-1E+10	1	-1E+10	1	-1E+10	1	-1E+10	1	-1E+10	1	-1E+10	1
4902549	45	C	11/05/2021	17:19	-131.751	47.106	0	268.50	0	5.7920	0	33.8210	0	26.650	0	266.096	0	124.3	4	40.8	4	-1E+10	1	-1E+10	1	-1E+10	1	-1E+10	1	-1E+10	1	-1E+10	1
4902549	45	C	11/05/2021	17:19	-131.751	47.106	0	269.90	0	5.7840	0	33.8280	0	26.656	0	267.482	0	123.5	4	40.6	4	-1E+10	1	-1E+10	1	-1E+10	1	-1E+10	1	-1E+10	1	-1E+10	1
4902549	45	C	11/05/2021	17:19	-131.751	47.106	0	271.40	0	5.7700	0	33.8330	0	26.662	0	268.968	0	122.8	4	40.3	4	-1E+10	1	-1E+10	1	-1E+10	1	-1E+10	1	-1E+10	1	-1E+10	1
4902549	45	C	11/05/2021	17:19	-131.751	47.106	0	272.50	0	5.7710	0	33.8340	0	26.663	0	270.057	0	122.3	4	40.2	4	-1E+10	1	-1E+10	1	-1E+10	1	-1E+10	1	-1E+10	1	-1E+10	1
4902549	45	C	11/05/2021	17:19	-131.751	47.106	0	273.50	0	5.7660	0	33.8330	0	26.662	0	271.048	0	121.8	4	40.0	4	-1E+10	1	-1E+10	1	-1E+10	1	-1E+10	1	-1E+10	1	-1E+10	1
4902549	45	C	11/05/2021	17:19	-131.751	47.106	0	274.50	0	5.7620	0	33.8330	0	26.663	0	272.038	0	121.2	4	39.8	4	-1E+10	1	-1E+10	1	-1E+10	1	-1E+10	1	-1E+10	1	-1E+10	1
4902549	45	C	11/05/2021	17:19	-131.751	47.106	0	275.50	0	5.7440	0	33.8340	0	26.666	0	273.029	0	120.6	4	39.6	4	-1E+10	1	-1E+10	1	-1E+10	1	-1E+10	1	-1E+10	1	-1E+10	1
4902549	45	C	11/05/2021	17:19	-131.751	47.106	0	276.50	0	5.7250	0	33.8340	0	26.668	0	274.019	0	120.1	4	39.4	4	-1E+10	1	-1E+10	1	-1E+10	1	-1E+10	1	-1E+10	1	-1E+10	1
4902549	45	C	11/05/2021	17:19	-131.751	47.106	0	277.50	0	5.7080	0	33.8330	0	26.670	0	275.009	0	119.5	4	39.2	4	-1E+10	1	-1E+10	1	-1E+10	1	-1E+10	1	-1E+10	1	-1E+10	1
4902549	45	C	11/05/2021	17:19	-131.751	47.106	0	278.50	0	5.6680	0	33.8330	0	26.674	0	276.000	0	119.1	4	39.0	4	-1E+10	1	-1E+10	1	-1E+10	1	-1E+10	1	-1E+10	1	-1E+10	1
4902549	45	C	11/05/2021	17:19	-131.751	47.106	0	279.50	0	5.6700	0	33.8340	0	26.675	0	276.990	0	118.6	4	38.9	4	-1E+10	1	-1E+10	1	-1E+10	1	-1E+10	1	-1E+10	1	-1E+10	1
4902549	45	C	11/05/2021	17:19	-131.751	47.106	0	280.50	0	5.6670	0	33.8340	0	26.675	0	277.980	0	118.0	4	38.7	4	-1E+10	1	-1E+10	1	-1E+10	1	-1E+10	1	-1E+10	1	-1E+10	1
4902549	45	C	11/05/2021	17:19	-131.751	47.106	0	281.50	0	5.6570	0	33.8320	0	26.675	0	278.971	0	117.4	4	38.5	4	-1E+10	1	-1E+10	1	-1E+10	1	-1E+10	1	-1E+10	1	-1E+10	1
4902549	45	C	11/05/2021	17:19	-131.751	47.106	0	282.50	0	5.6350	0	33.8330	0	26.678	0	279.961	0	116.8	4	38.2	4	-1E+10	1	-1E+10	1	-1E+10	1	-1E+10	1	-1E+10	1	-1E+10	1
4902549	45	C	11/05/2021	17:19	-131.751	47.106	0	283.50	0	5.6200	0	33.8300	0	26.678	0	280.951	0	116.2	4	38.0	4	-1E+10	1	-1E+10	1	-1E+10	1	-1E+10	1	-1E+10	1	-1E+10	1
4902549	45	C	11/05/2021	17:19	-131.751	47.106	0	284.50	0	5.6000	0	33.8310	0	26.681	0	281.942	0	115.5	4	37.8	4	-1E+10	1	-1E+10	1	-1E+10	1	-1E+10	1	-1E+10	1	-1E+10	1
4902549	45	C	11/05/2021	17:19	-131.751	47.106	0	285.60	0	5.5550	0	33.8300	0	26.686	0	283.031	0	115.0	4	37.6	4	-1E+10	1	-1E+10	1	-1E+10	1	-1E+10	1	-1E+10	1	-1E+10	1
4902549	45	C	11/05/2021	17:19	-131.751	47.106	0	286.60	0	5.5290	0	33.8310	0	26.690	0	284.021	0	114.6	4	37.4	4	-1E+10	1	-1E+10	1	-1E+10	1	-1E+10	1	-1E+10	1	-1E+10	1
4902549	45	C	11/05/2021	17:19	-131.751	47.106	0	287.60	0	5.5230	0	33.8330	0	26.692	0	285.012	0	114.1	4	37.3	4	-1E+10	1	-1E+10	1	-1E+10	1	-1E+10	1	-1E+10	1	-1E+10	1
4902549	45	C	11/05/2021	17:19	-131.751	47.106	0	288.60	0	5.5150	0	33.8350	0	26.694	0	286.002	0	113.7	4	37.1	4	-1E+10	1	-1E+10	1	-1E+10	1	-1E+10	1	-1E+10	1	-1E+10	1
4902549	45	C	11/05/2021	17:19	-131.751	47.106	0	289.60	0	5.5120	0	33.8340	0	26.694	0	286.992	0	113.2	4	36.9	4	-1E+10	1	-1E+10	1	-1E+10	1	-1E+10	1	-1E+10	1	-1E+10	1
4902549	45	C	11/05/2021	17:19	-131.751	47.106	0	290.70	0	5.5090	0	33.8340	0	26.694	0	288.082	0	112.6	4	36.8	4	-1E+10	1	-1E+10	1	-1E+10	1	-1E+10	1	-1E+10	1	-1E+10	1
4902549	45	C	11/05/2021	17:19	-131.751	47.106	0	291.70	0	5.5020	0	33.8340	0	26.695	0	289.072	0	112.0	4	36.5	4	-1E+10	1	-1E+10	1	-1E+10	1	-1E+10	1	-1E+10	1	-1E+10	1
4902549	45	C	11/05/2021	17:19	-131.751	47.106	0	292.70	0	5.4840	0	33.8340	0	26.697	0	290.062	0	111.4	4	36.3	4	-1E+10	1	-1E+10	1	-1E+10	1	-1E+10	1	-1E+10	1	-1E+10	1
4902549	45	C	11/05/2021	17:19	-131.751	47.106	0	293.80	0	5.4490	0	33.8370	0	26.704	0	291.151	0	111.0	4	36.2	4	-1E+10	1	-1E+10	1	-1E+10	1	-1E+10	1	-1E+10	1	-1E+10	1
4902549	45	C	11/05/2021	17:19	-131.751	47.106	0	294.80	0	5.4430	0	33.8360	0	26.704	0	292.142	0	110.5	4	36.0	4	-1E+10	1	-1E+10	1	-1E+10	1	-1E+10	1	-1E+10	1	-1E+10	1
4902549	45	C	11/05/2021	17:19	-131.751	47.106	0	295.80	0	5.4390	0	33.8380	0	26.706	0	293.132	0	109.9	4	35.8	4	-1E+10	1	-1E+10	1	-1E+10	1	-1E+10	1	-1E+10	1	-1E+10	1
4902549	45	C	11/05/2021	17:19	-131.751	47.106	0	296.80	0	5.4340	0	33.8360	0	26.705	0	294.122	0	109.4	4	35.7	4	-1E+10	1	-1E+10	1	-1E+10	1	-1E+10	1	-1E+10	1	-1E+10	1
4902549	45	C	11/05/2021	17:19	-131.751	47.106	0	297.90	0	5.4090	0	33.8360	0	26.708	0	295.212	0	108.7	4	35.4	4	-1E+10	1	-1E+10	1	-1E+10	1	-1E+10	1	-1E+10	1	-1E+10	1
4902549	45	C	11/05/2021	17:19	-131.751	47.106	0	298.70	0	5.3860	0	33.8370	0	26.711	0	296.004	0	108.3	4	35.2	4	-1E+10	1	-1E+10	1	-1E+10	1	-1E+10	1	-1E+10	1	-1E+10	1
4902549	45	C	11/05/2021	17:19	-131.751	47.106	0	299.90	0	5.3680	0	33.8360	0	26.713	0	297.192	0	107.7	4	35.0	4	-1E+10	1	-1E+10	1	-1E+10	1	-1E+10	1	-1E+10	1	-1E+10	1
4902549	45	C	11/05/2021	17:19	-131.751	47.106	0	301.10	0	5.3630	0	33.8350	0	26.713	0	298.380	0	106.9	4	34.8	4	-1E+10	1	-1E+10	1	-1E+10	1	-1E+10	1	-1E+10	1	-1E+10	1
4902549	45	C	11/05/2021	17:19	-131.751	47.106	0	301.90	0	5.3580	0	33.8360	0	26.714	0	299.173	0	106.3	4	34.6	4	-1E+10	1	-1E+10	1	-1E+10	1	-1E+10	1	-1E+10	1	-1E+10	1
4902549	45	C	11/05/2021	17:19	-131.751	47.106	0	303.00	0	5.3290	0	33.8350	0	26.717	0	300.262	0	105.4	4	34.3	4	-1E+10	1	-1E+10	1	-1E+10	1	-1E+10	1	-1E+10	1	-1E+10	1
4902549	45	C	11/05/2021	17:19	-131.751	47.106	0	304.20	0	5.2970	0	33.8340	0	26.720	0	301.450	0	104.6	4	34.0	4	-1E+10	1	-1E+10	1	-1E+10	1	-1E+10	1	-1E+10	1	-1E+10	1
4902549	45	C	11/05/2021	17:19	-131.751	47.106	0	305.00	0	5.2700	0	33.8370	0	26.725	0	302.242	0	104.1	4	33.8	4	-1E+10	1	-1E+10	1	-1E+10	1	-1E+10	1	-1E+10	1	-1E+10	1
4902549	45	C	11/05/2021	17:19	-131.751	47.106	0	305.80	0	5.2510	0	33.8330	0	26.724	0	303.035	0	103.7	4	33.6	4	-1E+10	1	-1E+10	1	-1E+10	1	-1E+10	1	-1E+10	1	-1E+10	1
4902549	45	C	11/05/2021	17:19	-131.751	47.106	0	307.00	0	5.2290	0	33.8330	0	26.727	0	304.223	0	103.0	4	33.4	4	-1E+10	1	-1E+10	1	-1E+10	1	-1E+10	1	-1E+10	1	-1E+10	1
4902549	45	C	11/05/2021	17:19	-131.751	47.106	0	308.20	0	5.1870	0	33.8370	0	26.735	0	305.411	0	102.5	4	33.2	4	-1E+10	1	-1E+10	1	-1E+10	1	-1E+10	1	-1E+10	1	-1E+10	1
4902549	45	C	11/05/2021	17:19	-131.751	47.106	0	309.00	0	5.1690	0	33.8370	0	26.737	0	306.203	0	102.3	4	33.1	4	-1E+10	1	-1E+10	1	-1E+10	1	-1E+10	1	-1E+10	1	-1E+10	1
4902549	45	C	11/05/2021	17:19	-131.751	47.106	0	309.80	0	5.1640	0	33.8390	0	26.739	0	306.995	0	102.1	4	33.0	4	-1E+10	1	-1E+10	1	-1E+10	1	-1E+10	1	-1E+10	1	-1E+10	1
4902549	45	C	11/05/2021	17:19	-131.751	47.106	0	311.00	0	5.1570	0	33.8370	0	26.738	0	308.184	0	101.6	4	32.9	4	-1E+10	1	-1E+10	1	-1E+10	1	-1E+10	1	-1E+10	1	-1E+10	1
4902549	45	C	11/05/2021	17:19	-131.751	47.106	0	312.30	0	5.1540	0	33.8380	0	26.739	0	309.471	0	101.2	4	32.7	4	-1E+10	1	-1E+10	1	-1E+10	1	-1E+10	1	-1E+10	1	-1E+10	1
4902549	45	C	11/05/2021	17:19	-131.751	47.106	0	313.10	0	5.1500	0	33.8380	0	26.740	0	310.263	0	100.8	4	32.6	4	-1E+10	1	-1E+10	1	-1E+10	1	-1E+10	1	-1E+10	1	-1E+10	1
4902549	45	C	11/05/2021	17:19	-131.751	47.106	0	313.90	0	5.1440	0	33.8390	0	26.741	0	311.055	0	100.5	4	32.5	4	-1E+10	1	-1E+10	1	-1E+10	1	-1E+10	1	-1E+10	1	-1E+10	1
4902549	45	C	11/05/2021	17:19	-131.751	47.106	0	314.80	0	5.1410	0	33.8400	0	26.742	0	311.946	0	100.2	4	32.4	4	-1E+10	1	-1E+10	1	-1E+10	1	-1E+10	1	-1E+10	1	-1E+10	1
4902549	45	C	11/05/2021	17:19	-131.751	47.106	0	316.00	0	5.1350	0	33.8400	0	26.743	0	313.135	0	99.6	4	32.2	4	-1E+10	1	-1E+10	1	-1E+10	1	-1E+10	1	-1E+10	1	-1E+10	1
4902549	45	C	11/05/2021	17:19	-131.751	47.106	0	317.30	0	5.1340	0	33.8440	0	26.746	0	314.422	0	99.0	4	32.0	4	-1E+10	1	-1E+10	1	-1E+10	1	-1E+10	1	-1E+10	1	-1E+10	1
4902549	45	C	11/05/2021	17:19	-131.751	47.106	0	318.20	0	5.1260	0	33.8480	0	26.751	0	315.313	0	98.8	4	32.0	4	-1E+10	1	-1E+10	1	-1E+10	1	-1E+10	1	-1E+10	1	-1E+10	1
4902549	45	C	11/05/2021	17:19	-131.751	47.106	0	319.10	0	5.1160	0	33.8470	0	26.751	0	316.204	0	98.5	4	31.9	4	-1E+10	1	-1E+10	1	-1E+10	1	-1E+10	1	-1E+10	1	-1E+10	1
4902549	45	C	11/05/2021	17:19	-131.751	47.106	0	319.90	0	5.1150	0	33.8470	0	26.751	0	316.996	0	98.2	4	31.8	4	-1E+10	1	-1E+10	1	-1E+10	1	-1E+10	1	-1E+10	1	-1E+10	1
4902549	45	C	11/05/2021	17:19	-131.751	47.106	0	320.80	0	5.1130	0	33.8470	0	26.751	0	317.887	0	97.9	4	31.7	4	-1E+10	1	-1E+10	1	-1E+10	1	-1E+10	1	-1E+10	1	-1E+10	1
4902549	45	C	11/05/2021	17:19	-131.751	47.106	0	321.60	0	5.1110	0	33.8470	0	26.751	0	318.680	0	97.6	4	31.6	4	-1E+10	1	-1E+10	1	-1E+10	1	-1E+10	1	-1E+10	1	-1E+10	1
4902549	45	C	11/05/2021	17:19	-131.751	47.106	0	322.90	0	5.0870	0	33.8480	0	26.755	0	319.967	0	97.4	4	31.5	4	-1E+10	1	-1E+10	1	-1E+10	1	-1E+10	1	-1E+10	1	-1E+10	1
4902549	45	C	11/05/2021	17:19	-131.751	47.106	0	324.20	0	5.0790	0	33.8500	0	26.758	0	321.254	0	97.1	4	31.4	4	-1E+10	1	-1E+10	1	-1E+10	1	-1E+10	1	-1E+10	1	-1E+10	1
4902549	45	C	11/05/2021	17:19	-131.751	47.106	0	325.10	0	5.0770	0	33.8490	0	26.757	0	322.145	0	96.8	4	31.3	4	-1E+10	1	-1E+10	1	-1E+10	1	-1E+10	1	-1E+10	1	-1E+10	1
4902549	45	C	11/05/2021	17:19	-131.751	47.106	0	326.00	0	5.0870	0	33.8530	0	26.759	0	323.036	0	96.5	4	31.2	4	-1E+10	1	-1E+10	1	-1E+10	1	-1E+10	1	-1E+10	1	-1E+10	1
4902549	45	C	11/05/2021	17:19	-131.751	47.106	0	326.90	0	5.0840	0	33.8520	0	26.759	0	323.927	0	96.2	4	31.1	4	-1E+10	1	-1E+10	1	-1E+10	1	-1E+10	1	-1E+10	1	-1E+10	1
4902549	45	C	11/05/2021	17:19	-131.751	47.106	0	327.70	0	5.0800	0	33.8520	0	26.759	0	324.719	0	96.0	4	31.0	4	-1E+10	1	-1E+10	1	-1E+10	1	-1E+10	1	-1E+10	1	-1E+10	1
4902549	45	C	11/05/2021	17:19	-131.751	47.106	0	328.60	0	5.0730	0	33.8520	0	26.760	0	325.610	0	95.6	4	30.9	4	-1E+10	1	-1E+10	1	-1E+10	1	-1E+10	1	-1E+10	1	-1E+10	1
4902549	45	C	11/05/2021	17:19	-131.751	47.106	0	329.90	0	5.0690	0	33.8520	0	26.760	0	326.898	0	95.2	4	30.8	4	-1E+10	1	-1E+10	1	-1E+10	1	-1E+10	1	-1E+10	1	-1E+10	1
4902549	45	C	11/05/2021	17:19	-131.751	47.106	0	331.30	0	5.0670	0	33.8550	0	26.763	0	328.284	0	94.7	4	30.6	4	-1E+10	1	-1E+10	1	-1E+10	1	-1E+10	1	-1E+10	1	-1E+10	1
4902549	45	C	11/05/2021	17:19	-131.751	47.106	0	332.20	0	5.0700	0	33.8580	0	26.765	0	329.175	0	94.4	4	30.5	4	-1E+10	1	-1E+10	1	-1E+10	1	-1E+10	1	-1E+10	1	-1E+10	1
4902549	45	C	11/05/2021	17:19	-131.751	47.106	0	333.10	0	5.0690	0	33.8590	0	26.766	0	330.066	0	94.1	4	30.4	4	-1E+10	1	-1E+10	1	-1E+10	1	-1E+10	1	-1E+10	1	-1E+10	1
4902549	45	C	11/05/2021	17:19	-131.751	47.106	0	334.00	0	5.0690	0	33.8590	0	26.766	0	330.957	0	93.7	4	30.3	4	-1E+10	1	-1E+10	1	-1E+10	1	-1E+10	1	-1E+10	1	-1E+10	1
4902549	45	C	11/05/2021	17:19	-131.751	47.106	0	334.90	0	5.0720	0	33.8600	0	26.766	0	331.848	0	93.3	4	30.1	4	-1E+10	1	-1E+10	1	-1E+10	1	-1E+10	1	-1E+10	1	-1E+10	1
4902549	45	C	11/05/2021	17:19	-131.751	47.106	0	335.70	0	5.0700	0	33.8610	0	26.767	0	332.640	0	92.9	4	30.0	4	-1E+10	1	-1E+10	1	-1E+10	1	-1E+10	1	-1E+10	1	-1E+10	1
4902549	45	C	11/05/2021	17:19	-131.751	47.106	0	336.60	0	5.0650	0	33.8620	0	26.769	0	333.531	0	92.5	4	29.9	4	-1E+10	1	-1E+10	1	-1E+10	1	-1E+10	1	-1E+10	1	-1E+10	1
4902549	45	C	11/05/2021	17:19	-131.751	47.106	0	337.90	0	5.0360	0	33.8620	0	26.772	0	334.818	0	92.0	4	29.7	4	-1E+10	1	-1E+10	1	-1E+10	1	-1E+10	1	-1E+10	1	-1E+10	1
4902549	45	C	11/05/2021	17:19	-131.751	47.106	0	339.30	0	5.0290	0	33.8630	0	26.774	0	336.204	0	91.6	4	29.6	4	-1E+10	1	-1E+10	1	-1E+10	1	-1E+10	1	-1E+10	1	-1E+10	1
4902549	45	C	11/05/2021	17:19	-131.751	47.106	0	340.20	0	5.0280	0	33.8660	0	26.776	0	337.095	0	91.2	4	29.4	4	-1E+10	1	-1E+10	1	-1E+10	1	-1E+10	1	-1E+10	1	-1E+10	1
4902549	45	C	11/05/2021	17:19	-131.751	47.106	0	341.10	0	5.0270	0	33.8670	0	26.777	0	337.987	0	90.9	4	29.3	4	-1E+10	1	-1E+10	1	-1E+10	1	-1E+10	1	-1E+10	1	-1E+10	1
4902549	45	C	11/05/2021	17:19	-131.751	47.106	0	342.00	0	5.0300	0	33.8680	0	26.778	0	338.878	0	90.6	4	29.2	4	-1E+10	1	-1E+10	1	-1E+10	1	-1E+10	1	-1E+10	1	-1E+10	1
4902549	45	C	11/05/2021	17:19	-131.751	47.106	0	342.90	0	5.0350	0	33.8700	0	26.779	0	339.769	0	90.2	4	29.1	4	-1E+10	1	-1E+10	1	-1E+10	1	-1E+10	1	-1E+10	1	-1E+10	1
4902549	45	C	11/05/2021	17:19	-131.751	47.106	0	343.80	0	5.0310	0	33.8700	0	26.779	0	340.660	0	89.9	4	29.0	4	-1E+10	1	-1E+10	1	-1E+10	1	-1E+10	1	-1E+10	1	-1E+10	1
4902549	45	C	11/05/2021	17:19	-131.751	47.106	0	344.70	0	5.0240	0	33.8720	0	26.781	0	341.551	0	89.5	4	28.9	4	-1E+10	1	-1E+10	1	-1E+10	1	-1E+10	1	-1E+10	1	-1E+10	1
4902549	45	C	11/05/2021	17:19	-131.751	47.106	0	345.60	0	5.0210	0	33.8720	0	26.782	0	342.442	0	89.2	4	28.8	4	-1E+10	1	-1E+10	1	-1E+10	1	-1E+10	1	-1E+10	1	-1E+10	1
4902549	45	C	11/05/2021	17:19	-131.751	47.106	0	346.90	0	5.0130	0	33.8730	0	26.783	0	343.729	0	88.6	4	28.6	4	-1E+10	1	-1E+10	1	-1E+10	1	-1E+10	1	-1E+10	1	-1E+10	1
4902549	45	C	11/05/2021	17:19	-131.751	47.106	0	348.30	0	5.0060	0	33.8750	0	26.786	0	345.115	0	88.1	4	28.4	4	-1E+10	1	-1E+10	1	-1E+10	1	-1E+10	1	-1E+10	1	-1E+10	1
4902549	45	C	11/05/2021	17:19	-131.751	47.106	0	349.20	0	5.0040	0	33.8760	0	26.787	0	346.006	0	87.8	4	28.3	4	-1E+10	1	-1E+10	1	-1E+10	1	-1E+10	1	-1E+10	1	-1E+10	1
4902549	45	C	11/05/2021	17:19	-131.751	47.106	0	350.10	0	5.0000	0	33.8770	0	26.788	0	346.897	0	87.5	4	28.2	4	-1E+10	1	-1E+10	1	-1E+10	1	-1E+10	1	-1E+10	1	-1E+10	1
4902549	45	C	11/05/2021	17:19	-131.751	47.106	0	352.90	0	4.9870	0	33.8800	0	26.792	0	349.669	0	86.5	4	27.9	4	-1E+10	1	-1E+10	1	-1E+10	1	-1E+10	1	-1E+10	1	-1E+10	1
4902549	45	C	11/05/2021	17:19	-131.751	47.106	0	358.00	0	4.9730	0	33.8850	0	26.798	0	354.718	0	84.6	4	27.3	4	-1E+10	1	-1E+10	1	-1E+10	1	-1E+10	1	-1E+10	1	-1E+10	1
4902549	45	C	11/05/2021	17:19	-131.751	47.106	0	363.10	0	4.9430	0	33.8910	0	26.806	0	359.767	0	82.9	4	26.7	4	-1E+10	1	-1E+10	1	-1E+10	1	-1E+10	1	-1E+10	1	-1E+10	1
4902549	45	C	11/05/2021	17:19	-131.751	47.106	0	367.90	0	4.9230	0	33.8930	0	26.810	0	364.518	0	81.6	4	26.3	4	-1E+10	1	-1E+10	1	-1E+10	1	-1E+10	1	-1E+10	1	-1E+10	1
4902549	45	C	11/05/2021	17:19	-131.751	47.106	0	372.70	0	4.8870	0	33.8950	0	26.815	0	369.270	0	80.2	4	25.8	4	-1E+10	1	-1E+10	1	-1E+10	1	-1E+10	1	-1E+10	1	-1E+10	1
4902549	45	C	11/05/2021	17:19	-131.751	47.106	0	377.50	0	4.8620	0	33.8970	0	26.820	0	374.021	0	78.7	4	25.3	4	-1E+10	1	-1E+10	1	-1E+10	1	-1E+10	1	-1E+10	1	-1E+10	1
4902549	45	C	11/05/2021	17:19	-131.751	47.106	0	382.50	0	4.8360	0	33.9000	0	26.825	0	378.971	0	77.1	4	24.8	4	-1E+10	1	-1E+10	1	-1E+10	1	-1E+10	1	-1E+10	1	-1E+10	1
4902549	45	C	11/05/2021	17:19	-131.751	47.106	0	387.50	0	4.8090	0	33.9030	0	26.831	0	383.920	0	75.4	4	24.2	4	-1E+10	1	-1E+10	1	-1E+10	1	-1E+10	1	-1E+10	1	-1E+10	1
4902549	45	C	11/05/2021	17:19	-131.751	47.106	0	392.50	0	4.7660	0	33.9060	0	26.838	0	388.869	0	73.7	4	23.6	4	-1E+10	1	-1E+10	1	-1E+10	1	-1E+10	1	-1E+10	1	-1E+10	1
4902549	45	C	11/05/2021	17:19	-131.751	47.106	0	397.50	0	4.7370	0	33.9070	0	26.842	0	393.818	0	71.8	4	23.0	4	-1E+10	1	-1E+10	1	-1E+10	1	-1E+10	1	-1E+10	1	-1E+10	1
4902549	45	C	11/05/2021	17:19	-131.751	47.106	0	402.60	0	4.7000	0	33.9130	0	26.851	0	398.866	0	70.1	4	22.5	4	-1E+10	1	-1E+10	1	-1E+10	1	-1E+10	1	-1E+10	1	-1E+10	1
4902549	45	C	11/05/2021	17:19	-131.751	47.106	0	407.70	0	4.6700	0	33.9190	0	26.859	0	403.914	0	68.4	4	21.9	4	-1E+10	1	-1E+10	1	-1E+10	1	-1E+10	1	-1E+10	1	-1E+10	1
4902549	45	C	11/05/2021	17:19	-131.751	47.106	0	412.80	0	4.6450	0	33.9240	0	26.865	0	408.961	0	67.0	4	21.5	4	-1E+10	1	-1E+10	1	-1E+10	1	-1E+10	1	-1E+10	1	-1E+10	1
4902549	45	C	11/05/2021	17:19	-131.751	47.106	0	417.90	0	4.6250	0	33.9270	0	26.870	0	414.009	0	65.7	4	21.0	4	-1E+10	1	-1E+10	1	-1E+10	1	-1E+10	1	-1E+10	1	-1E+10	1
4902549	45	C	11/05/2021	17:19	-131.751	47.106	0	423.00	0	4.6090	0	33.9320	0	26.876	0	419.056	0	64.0	4	20.5	4	-1E+10	1	-1E+10	1	-1E+10	1	-1E+10	1	-1E+10	1	-1E+10	1
4902549	45	C	11/05/2021	17:19	-131.751	47.106	0	428.20	0	4.5830	0	33.9380	0	26.883	0	424.202	0	62.5	4	20.0	4	-1E+10	1	-1E+10	1	-1E+10	1	-1E+10	1	-1E+10	1	-1E+10	1
4902549	45	C	11/05/2021	17:19	-131.751	47.106	0	432.80	0	4.5650	0	33.9440	0	26.890	0	428.755	0	61.0	4	19.5	4	-1E+10	1	-1E+10	1	-1E+10	1	-1E+10	1	-1E+10	1	-1E+10	1
4902549	45	C	11/05/2021	17:19	-131.751	47.106	0	437.50	0	4.5480	0	33.9480	0	26.895	0	433.406	0	59.3	4	19.0	4	-1E+10	1	-1E+10	1	-1E+10	1	-1E+10	1	-1E+10	1	-1E+10	1
4902549	45	C	11/05/2021	17:19	-131.751	47.106	0	442.70	0	4.5190	0	33.9560	0	26.905	0	438.552	0	57.4	4	18.3	4	-1E+10	1	-1E+10	1	-1E+10	1	-1E+10	1	-1E+10	1	-1E+10	1
4902549	45	C	11/05/2021	17:19	-131.751	47.106	0	447.80	0	4.4870	0	33.9630	0	26.914	0	443.599	0	55.5	4	17.7	4	-1E+10	1	-1E+10	1	-1E+10	1	-1E+10	1	-1E+10	1	-1E+10	1
4902549	45	C	11/05/2021	17:19	-131.751	47.106	0	453.00	0	4.4550	0	33.9690	0	26.922	0	448.744	0	54.2	4	17.3	4	-1E+10	1	-1E+10	1	-1E+10	1	-1E+10	1	-1E+10	1	-1E+10	1
4902549	45	C	11/05/2021	17:19	-131.751	47.106	0	458.20	0	4.4490	0	33.9700	0	26.923	0	453.890	0	52.8	4	16.8	4	-1E+10	1	-1E+10	1	-1E+10	1	-1E+10	1	-1E+10	1	-1E+10	1
4902549	45	C	11/05/2021	17:19	-131.751	47.106	0	462.90	0	4.4290	0	33.9740	0	26.929	0	458.540	0	51.0	4	16.2	4	-1E+10	1	-1E+10	1	-1E+10	1	-1E+10	1	-1E+10	1	-1E+10	1
4902549	45	C	11/05/2021	17:19	-131.751	47.106	0	467.70	0	4.4040	0	33.9850	0	26.940	0	463.290	0	49.7	4	15.8	4	-1E+10	1	-1E+10	1	-1E+10	1	-1E+10	1	-1E+10	1	-1E+10	1
4902549	45	C	11/05/2021	17:19	-131.751	47.106	0	473.00	0	4.3840	0	33.9940	0	26.950	0	468.534	0	48.3	4	15.4	4	-1E+10	1	-1E+10	1	-1E+10	1	-1E+10	1	-1E+10	1	-1E+10	1
4902549	45	C	11/05/2021	17:19	-131.751	47.106	0	478.30	0	4.3670	0	34.0020	0	26.958	0	473.778	0	47.2	4	15.0	4	-1E+10	1	-1E+10	1	-1E+10	1	-1E+10	1	-1E+10	1	-1E+10	1
4902549	45	C	11/05/2021	17:19	-131.751	47.106	0	483.30	0	4.3570	0	34.0050	0	26.961	0	478.725	0	46.3	4	14.7	4	-1E+10	1	-1E+10	1	-1E+10	1	-1E+10	1	-1E+10	1	-1E+10	1
4902549	45	C	11/05/2021	17:19	-131.751	47.106	0	487.80	0	4.3460	0	34.0090	0	26.966	0	483.177	0	45.3	4	14.4	4	-1E+10	1	-1E+10	1	-1E+10	1	-1E+10	1	-1E+10	1	-1E+10	1
4902549	45	C	11/05/2021	17:19	-131.751	47.106	0	492.60	0	4.3320	0	34.0140	0	26.971	0	487.926	0	44.1	4	14.0	4	-1E+10	1	-1E+10	1	-1E+10	1	-1E+10	1	-1E+10	1	-1E+10	1
4902549	45	C	11/05/2021	17:19	-131.751	47.106	0	497.90	0	4.3200	0	34.0180	0	26.976	0	493.169	0	42.8	4	13.6	4	-1E+10	1	-1E+10	1	-1E+10	1	-1E+10	1	-1E+10	1	-1E+10	1
4902549	45	C	11/05/2021	17:19	-131.751	47.106	0	502.90	0	4.3000	0	34.0260	0	26.984	0	498.116	0	41.7	4	13.2	4	-1E+10	1	-1E+10	1	-1E+10	1	-1E+10	1	-1E+10	1	-1E+10	1
4902549	45	C	11/05/2021	17:19	-131.751	47.106	0	507.60	0	4.2900	0	34.0290	0	26.988	0	502.765	0	40.8	4	13.0	4	-1E+10	1	-1E+10	1	-1E+10	1	-1E+10	1	-1E+10	1	-1E+10	1
4902549	45	C	11/05/2021	17:19	-131.751	47.106	0	512.80	0	4.2770	0	34.0340	0	26.993	0	507.909	0	40.0	4	12.7	4	-1E+10	1	-1E+10	1	-1E+10	1	-1E+10	1	-1E+10	1	-1E+10	1
4902549	45	C	11/05/2021	17:19	-131.751	47.106	0	518.00	0	4.2720	0	34.0360	0	26.995	0	513.053	0	39.2	4	12.4	4	-1E+10	1	-1E+10	1	-1E+10	1	-1E+10	1	-1E+10	1	-1E+10	1
4902549	45	C	11/05/2021	17:19	-131.751	47.106	0	522.90	0	4.2650	0	34.0390	0	26.998	0	517.900	0	38.0	4	12.1	4	-1E+10	1	-1E+10	1	-1E+10	1	-1E+10	1	-1E+10	1	-1E+10	1
4902549	45	C	11/05/2021	17:19	-131.751	47.106	0	527.70	0	4.2500	0	34.0440	0	27.004	0	522.648	0	36.9	4	11.7	4	-1E+10	1	-1E+10	1	-1E+10	1	-1E+10	1	-1E+10	1	-1E+10	1
4902549	45	C	11/05/2021	17:19	-131.751	47.106	0	533.00	0	4.2360	0	34.0490	0	27.009	0	527.891	0	35.5	4	11.3	4	-1E+10	1	-1E+10	1	-1E+10	1	-1E+10	1	-1E+10	1	-1E+10	1
4902549	45	C	11/05/2021	17:19	-131.751	47.106	0	538.00	0	4.2180	0	34.0560	0	27.017	0	532.837	0	34.2	4	10.8	4	-1E+10	1	-1E+10	1	-1E+10	1	-1E+10	1	-1E+10	1	-1E+10	1
4902549	45	C	11/05/2021	17:19	-131.751	47.106	0	542.90	0	4.2080	0	34.0590	0	27.020	0	537.683	0	32.9	4	10.4	4	-1E+10	1	-1E+10	1	-1E+10	1	-1E+10	1	-1E+10	1	-1E+10	1
4902549	45	C	11/05/2021	17:19	-131.751	47.106	0	547.90	0	4.1930	0	34.0650	0	27.027	0	542.629	0	31.4	4	9.9	4	-1E+10	1	-1E+10	1	-1E+10	1	-1E+10	1	-1E+10	1	-1E+10	1
4902549	45	C	11/05/2021	17:19	-131.751	47.106	0	552.90	0	4.1820	0	34.0720	0	27.033	0	547.574	0	30.0	4	9.5	4	-1E+10	1	-1E+10	1	-1E+10	1	-1E+10	1	-1E+10	1	-1E+10	1
4902549	45	C	11/05/2021	17:19	-131.751	47.106	0	558.00	0	4.1660	0	34.0780	0	27.040	0	552.618	0	28.7	4	9.1	4	-1E+10	1	-1E+10	1	-1E+10	1	-1E+10	1	-1E+10	1	-1E+10	1
4902549	45	C	11/05/2021	17:19	-131.751	47.106	0	562.70	0	4.1540	0	34.0850	0	27.047	0	557.266	0	27.8	4	8.8	4	-1E+10	1	-1E+10	1	-1E+10	1	-1E+10	1	-1E+10	1	-1E+10	1
4902549	45	C	11/05/2021	17:19	-131.751	47.106	0	567.60	0	4.1440	0	34.0880	0	27.050	0	562.113	0	26.8	4	8.5	4	-1E+10	1	-1E+10	1	-1E+10	1	-1E+10	1	-1E+10	1	-1E+10	1
4902549	45	C	11/05/2021	17:19	-131.751	47.106	0	572.50	0	4.1360	0	34.0940	0	27.056	0	566.958	0	25.9	4	8.2	4	-1E+10	1	-1E+10	1	-1E+10	1	-1E+10	1	-1E+10	1	-1E+10	1
4902549	45	C	11/05/2021	17:19	-131.751	47.106	0	577.50	0	4.1270	0	34.0970	0	27.059	0	571.903	0	25.2	4	8.0	4	-1E+10	1	-1E+10	1	-1E+10	1	-1E+10	1	-1E+10	1	-1E+10	1
4902549	45	C	11/05/2021	17:19	-131.751	47.106	0	582.50	0	4.1030	0	34.1020	0	27.066	0	576.848	0	24.3	4	7.7	4	-1E+10	1	-1E+10	1	-1E+10	1	-1E+10	1	-1E+10	1	-1E+10	1
4902549	45	C	11/05/2021	17:19	-131.751	47.106	0	587.70	0	4.1010	0	34.1070	0	27.070	0	581.990	0	23.2	4	7.3	4	-1E+10	1	-1E+10	1	-1E+10	1	-1E+10	1	-1E+10	1	-1E+10	1
4902549	45	C	11/05/2021	17:19	-131.751	47.106	0	593.00	0	4.0960	0	34.1130	0	27.075	0	587.231	0	22.4	4	7.1	4	-1E+10	1	-1E+10	1	-1E+10	1	-1E+10	1	-1E+10	1	-1E+10	1
4902549	45	C	11/05/2021	17:19	-131.751	47.106	0	598.00	0	4.0830	0	34.1170	0	27.080	0	592.175	0	21.2	4	6.7	4	-1E+10	1	-1E+10	1	-1E+10	1	-1E+10	1	-1E+10	1	-1E+10	1
4902549	45	C	11/05/2021	17:19	-131.751	47.106	0	602.70	0	4.0930	0	34.1220	0	27.083	0	596.823	0	19.9	4	6.3	4	-1E+10	1	-1E+10	1	-1E+10	1	-1E+10	1	-1E+10	1	-1E+10	1
4902549	45	C	11/05/2021	17:19	-131.751	47.106	0	607.90	0	4.1000	0	34.1320	0	27.090	0	601.965	0	19.1	4	6.0	4	-1E+10	1	-1E+10	1	-1E+10	1	-1E+10	1	-1E+10	1	-1E+10	1
4902549	45	C	11/05/2021	17:19	-131.751	47.106	0	613.20	0	4.0910	0	34.1360	0	27.094	0	607.205	0	19.2	4	6.1	4	-1E+10	1	-1E+10	1	-1E+10	1	-1E+10	1	-1E+10	1	-1E+10	1
4902549	45	C	11/05/2021	17:19	-131.751	47.106	0	618.20	0	4.0640	0	34.1360	0	27.097	0	612.149	0	19.4	4	6.1	4	-1E+10	1	-1E+10	1	-1E+10	1	-1E+10	1	-1E+10	1	-1E+10	1
4902549	45	C	11/05/2021	17:19	-131.751	47.106	0	623.30	0	4.0400	0	34.1370	0	27.100	0	617.191	0	19.4	4	6.1	4	-1E+10	1	-1E+10	1	-1E+10	1	-1E+10	1	-1E+10	1	-1E+10	1
4902549	45	C	11/05/2021	17:19	-131.751	47.106	0	627.90	0	4.0190	0	34.1390	0	27.104	0	621.740	0	18.9	4	6.0	4	-1E+10	1	-1E+10	1	-1E+10	1	-1E+10	1	-1E+10	1	-1E+10	1
4902549	45	C	11/05/2021	17:19	-131.751	47.106	0	632.70	0	4.0130	0	34.1420	0	27.107	0	626.485	0	18.4	4	5.8	4	-1E+10	1	-1E+10	1	-1E+10	1	-1E+10	1	-1E+10	1	-1E+10	1
4902549	45	C	11/05/2021	17:19	-131.751	47.106	0	637.80	0	4.0150	0	34.1470	0	27.111	0	631.527	0	17.7	4	5.6	4	-1E+10	1	-1E+10	1	-1E+10	1	-1E+10	1	-1E+10	1	-1E+10	1
4902549	45	C	11/05/2021	17:19	-131.751	47.106	0	643.00	0	4.0190	0	34.1500	0	27.113	0	636.668	0	17.5	4	5.5	4	-1E+10	1	-1E+10	1	-1E+10	1	-1E+10	1	-1E+10	1	-1E+10	1
4902549	45	C	11/05/2021	17:19	-131.751	47.106	0	648.10	0	4.0100	0	34.1520	0	27.115	0	641.710	0	17.2	4	5.4	4	-1E+10	1	-1E+10	1	-1E+10	1	-1E+10	1	-1E+10	1	-1E+10	1
4902549	45	C	11/05/2021	17:19	-131.751	47.106	0	653.10	0	4.0130	0	34.1550	0	27.118	0	646.653	0	17.1	4	5.4	4	-1E+10	1	-1E+10	1	-1E+10	1	-1E+10	1	-1E+10	1	-1E+10	1
4902549	45	C	11/05/2021	17:19	-131.751	47.106	0	658.10	0	3.9790	0	34.1580	0	27.123	0	651.596	0	17.4	4	5.5	4	-1E+10	1	-1E+10	1	-1E+10	1	-1E+10	1	-1E+10	1	-1E+10	1
4902549	45	C	11/05/2021	17:19	-131.751	47.106	0	663.00	0	3.9470	0	34.1580	0	27.127	0	656.440	0	17.3	4	5.4	4	-1E+10	1	-1E+10	1	-1E+10	1	-1E+10	1	-1E+10	1	-1E+10	1
4902549	45	C	11/05/2021	17:19	-131.751	47.106	0	667.90	0	3.9300	0	34.1620	0	27.132	0	661.284	0	17.0	4	5.4	4	-1E+10	1	-1E+10	1	-1E+10	1	-1E+10	1	-1E+10	1	-1E+10	1
4902549	45	C	11/05/2021	17:19	-131.751	47.106	0	672.80	0	3.9060	0	34.1660	0	27.137	0	666.127	0	16.9	4	5.3	4	-1E+10	1	-1E+10	1	-1E+10	1	-1E+10	1	-1E+10	1	-1E+10	1
4902549	45	C	11/05/2021	17:19	-131.751	47.106	0	677.80	0	3.8820	0	34.1680	0	27.141	0	671.070	0	16.6	4	5.2	4	-1E+10	1	-1E+10	1	-1E+10	1	-1E+10	1	-1E+10	1	-1E+10	1
4902549	45	C	11/05/2021	17:19	-131.751	47.106	0	682.70	0	3.8710	0	34.1710	0	27.145	0	675.913	0	16.3	4	5.1	4	-1E+10	1	-1E+10	1	-1E+10	1	-1E+10	1	-1E+10	1	-1E+10	1
4902549	45	C	11/05/2021	17:19	-131.751	47.106	0	687.70	0	3.8590	0	34.1750	0	27.149	0	680.855	0	15.9	4	5.0	4	-1E+10	1	-1E+10	1	-1E+10	1	-1E+10	1	-1E+10	1	-1E+10	1
4902549	45	C	11/05/2021	17:19	-131.751	47.106	0	692.70	0	3.8500	0	34.1770	0	27.152	0	685.797	0	15.5	4	4.9	4	-1E+10	1	-1E+10	1	-1E+10	1	-1E+10	1	-1E+10	1	-1E+10	1
4902549	45	C	11/05/2021	17:19	-131.751	47.106	0	697.70	0	3.8340	0	34.1810	0	27.157	0	690.739	0	15.0	4	4.7	4	-1E+10	1	-1E+10	1	-1E+10	1	-1E+10	1	-1E+10	1	-1E+10	1
4902549	45	C	11/05/2021	17:19	-131.751	47.106	0	702.70	0	3.8180	0	34.1860	0	27.162	0	695.681	0	14.4	4	4.5	4	-1E+10	1	-1E+10	1	-1E+10	1	-1E+10	1	-1E+10	1	-1E+10	1
4902549	45	C	11/05/2021	17:19	-131.751	47.106	0	707.70	0	3.7990	0	34.1920	0	27.169	0	700.623	0	13.9	4	4.4	4	-1E+10	1	-1E+10	1	-1E+10	1	-1E+10	1	-1E+10	1	-1E+10	1
4902549	45	C	11/05/2021	17:19	-131.751	47.106	0	712.80	0	3.7810	0	34.1970	0	27.175	0	705.663	0	13.5	4	4.2	4	-1E+10	1	-1E+10	1	-1E+10	1	-1E+10	1	-1E+10	1	-1E+10	1
4902549	45	C	11/05/2021	17:19	-131.751	47.106	0	718.00	0	3.7630	0	34.2030	0	27.181	0	710.802	0	13.1	4	4.1	4	-1E+10	1	-1E+10	1	-1E+10	1	-1E+10	1	-1E+10	1	-1E+10	1
4902549	45	C	11/05/2021	17:19	-131.751	47.106	0	723.20	0	3.7540	0	34.2060	0	27.185	0	715.941	0	12.7	4	4.0	4	-1E+10	1	-1E+10	1	-1E+10	1	-1E+10	1	-1E+10	1	-1E+10	1
4902549	45	C	11/05/2021	17:19	-131.751	47.106	0	728.10	0	3.7380	0	34.2110	0	27.190	0	720.783	0	12.4	4	3.9	4	-1E+10	1	-1E+10	1	-1E+10	1	-1E+10	1	-1E+10	1	-1E+10	1
4902549	45	C	11/05/2021	17:19	-131.751	47.106	0	733.10	0	3.7290	0	34.2130	0	27.193	0	725.724	0	12.1	4	3.8	4	-1E+10	1	-1E+10	1	-1E+10	1	-1E+10	1	-1E+10	1	-1E+10	1
4902549	45	C	11/05/2021	17:19	-131.751	47.106	0	738.10	0	3.7160	0	34.2170	0	27.197	0	730.665	0	11.8	4	3.7	4	-1E+10	1	-1E+10	1	-1E+10	1	-1E+10	1	-1E+10	1	-1E+10	1
4902549	45	C	11/05/2021	17:19	-131.751	47.106	0	742.80	0	3.7080	0	34.2200	0	27.200	0	735.310	0	11.5	4	3.6	4	-1E+10	1	-1E+10	1	-1E+10	1	-1E+10	1	-1E+10	1	-1E+10	1
4902549	45	C	11/05/2021	17:19	-131.751	47.106	0	748.00	0	3.6950	0	34.2230	0	27.204	0	740.448	0	11.2	4	3.5	4	-1E+10	1	-1E+10	1	-1E+10	1	-1E+10	1	-1E+10	1	-1E+10	1
4902549	45	C	11/05/2021	17:19	-131.751	47.106	0	753.30	0	3.6850	0	34.2270	0	27.208	0	745.685	0	10.9	4	3.4	4	-1E+10	1	-1E+10	1	-1E+10	1	-1E+10	1	-1E+10	1	-1E+10	1
4902549	45	C	11/05/2021	17:19	-131.751	47.106	0	758.10	0	3.6740	0	34.2300	0	27.212	0	750.428	0	10.6	4	3.3	4	-1E+10	1	-1E+10	1	-1E+10	1	-1E+10	1	-1E+10	1	-1E+10	1
4902549	45	C	11/05/2021	17:19	-131.751	47.106	0	763.10	0	3.6610	0	34.2330	0	27.216	0	755.368	0	10.3	4	3.2	4	-1E+10	1	-1E+10	1	-1E+10	1	-1E+10	1	-1E+10	1	-1E+10	1
4902549	45	C	11/05/2021	17:19	-131.751	47.106	0	768.20	0	3.6480	0	34.2370	0	27.220	0	760.407	0	10.0	4	3.1	4	-1E+10	1	-1E+10	1	-1E+10	1	-1E+10	1	-1E+10	1	-1E+10	1
4902549	45	C	11/05/2021	17:19	-131.751	47.106	0	773.20	0	3.6380	0	34.2410	0	27.224	0	765.347	0	9.8	4	3.1	4	-1E+10	1	-1E+10	1	-1E+10	1	-1E+10	1	-1E+10	1	-1E+10	1
4902549	45	C	11/05/2021	17:19	-131.751	47.106	0	778.30	0	3.6260	0	34.2450	0	27.229	0	770.386	0	9.6	4	3.0	4	-1E+10	1	-1E+10	1	-1E+10	1	-1E+10	1	-1E+10	1	-1E+10	1
4902549	45	C	11/05/2021	17:19	-131.751	47.106	0	783.30	0	3.6130	0	34.2480	0	27.232	0	775.326	0	9.5	4	3.0	4	-1E+10	1	-1E+10	1	-1E+10	1	-1E+10	1	-1E+10	1	-1E+10	1
4902549	45	C	11/05/2021	17:19	-131.751	47.106	0	788.00	0	3.6070	0	34.2500	0	27.235	0	779.969	0	9.3	4	2.9	4	-1E+10	1	-1E+10	1	-1E+10	1	-1E+10	1	-1E+10	1	-1E+10	1
4902549	45	C	11/05/2021	17:19	-131.751	47.106	0	792.60	0	3.5980	0	34.2520	0	27.237	0	784.514	0	9.2	4	2.9	4	-1E+10	1	-1E+10	1	-1E+10	1	-1E+10	1	-1E+10	1	-1E+10	1
4902549	45	C	11/05/2021	17:19	-131.751	47.106	0	797.80	0	3.5830	0	34.2560	0	27.242	0	789.651	0	9.0	4	2.8	4	-1E+10	1	-1E+10	1	-1E+10	1	-1E+10	1	-1E+10	1	-1E+10	1
4902549	45	C	11/05/2021	17:19	-131.751	47.106	0	803.00	0	3.5710	0	34.2590	0	27.245	0	794.788	0	8.8	4	2.8	4	-1E+10	1	-1E+10	1	-1E+10	1	-1E+10	1	-1E+10	1	-1E+10	1
4902549	45	C	11/05/2021	17:19	-131.751	47.106	0	808.20	0	3.5610	0	34.2620	0	27.249	0	799.925	0	8.6	4	2.7	4	-1E+10	1	-1E+10	1	-1E+10	1	-1E+10	1	-1E+10	1	-1E+10	1
4902549	45	C	11/05/2021	17:19	-131.751	47.106	0	812.90	0	3.5410	0	34.2670	0	27.255	0	804.568	0	8.4	4	2.6	4	-1E+10	1	-1E+10	1	-1E+10	1	-1E+10	1	-1E+10	1	-1E+10	1
4902549	45	C	11/05/2021	17:19	-131.751	47.106	0	817.60	0	3.5320	0	34.2690	0	27.257	0	809.210	0	8.3	4	2.6	4	-1E+10	1	-1E+10	1	-1E+10	1	-1E+10	1	-1E+10	1	-1E+10	1
4902549	45	C	11/05/2021	17:19	-131.751	47.106	0	822.80	0	3.5230	0	34.2720	0	27.260	0	814.347	0	8.2	4	2.6	4	-1E+10	1	-1E+10	1	-1E+10	1	-1E+10	1	-1E+10	1	-1E+10	1
4902549	45	C	11/05/2021	17:19	-131.751	47.106	0	828.10	0	3.5150	0	34.2740	0	27.263	0	819.582	0	8.1	4	2.5	4	-1E+10	1	-1E+10	1	-1E+10	1	-1E+10	1	-1E+10	1	-1E+10	1
4902549	45	C	11/05/2021	17:19	-131.751	47.106	0	832.80	0	3.5040	0	34.2770	0	27.266	0	824.225	0	8.0	4	2.5	4	-1E+10	1	-1E+10	1	-1E+10	1	-1E+10	1	-1E+10	1	-1E+10	1
4902549	45	C	11/05/2021	17:19	-131.751	47.106	0	838.00	0	3.4900	0	34.2800	0	27.270	0	829.361	0	7.9	4	2.5	4	-1E+10	1	-1E+10	1	-1E+10	1	-1E+10	1	-1E+10	1	-1E+10	1
4902549	45	C	11/05/2021	17:19	-131.751	47.106	0	843.20	0	3.4730	0	34.2850	0	27.276	0	834.497	0	7.9	4	2.4	4	-1E+10	1	-1E+10	1	-1E+10	1	-1E+10	1	-1E+10	1	-1E+10	1
4902549	45	C	11/05/2021	17:19	-131.751	47.106	0	848.00	0	3.4590	0	34.2890	0	27.280	0	839.238	0	7.8	4	2.4	4	-1E+10	1	-1E+10	1	-1E+10	1	-1E+10	1	-1E+10	1	-1E+10	1
4902549	45	C	11/05/2021	17:19	-131.751	47.106	0	852.80	0	3.4530	0	34.2910	0	27.283	0	843.978	0	7.7	4	2.4	4	-1E+10	1	-1E+10	1	-1E+10	1	-1E+10	1	-1E+10	1	-1E+10	1
4902549	45	C	11/05/2021	17:19	-131.751	47.106	0	857.70	0	3.4470	0	34.2930	0	27.285	0	848.818	0	7.6	4	2.4	4	-1E+10	1	-1E+10	1	-1E+10	1	-1E+10	1	-1E+10	1	-1E+10	1
4902549	45	C	11/05/2021	17:19	-131.751	47.106	0	862.70	0	3.4420	0	34.2940	0	27.286	0	853.756	0	7.5	4	2.3	4	-1E+10	1	-1E+10	1	-1E+10	1	-1E+10	1	-1E+10	1	-1E+10	1
4902549	45	C	11/05/2021	17:19	-131.751	47.106	0	867.70	0	3.4370	0	34.2950	0	27.287	0	858.694	0	7.5	4	2.3	4	-1E+10	1	-1E+10	1	-1E+10	1	-1E+10	1	-1E+10	1	-1E+10	1
4902549	45	C	11/05/2021	17:19	-131.751	47.106	0	872.60	0	3.4330	0	34.2970	0	27.289	0	863.533	0	7.5	4	2.3	4	-1E+10	1	-1E+10	1	-1E+10	1	-1E+10	1	-1E+10	1	-1E+10	1
4902549	45	C	11/05/2021	17:19	-131.751	47.106	0	877.60	0	3.4270	0	34.2990	0	27.292	0	868.470	0	7.5	4	2.3	4	-1E+10	1	-1E+10	1	-1E+10	1	-1E+10	1	-1E+10	1	-1E+10	1
4902549	45	C	11/05/2021	17:19	-131.751	47.106	0	882.70	0	3.4180	0	34.3020	0	27.295	0	873.507	0	7.5	4	2.3	4	-1E+10	1	-1E+10	1	-1E+10	1	-1E+10	1	-1E+10	1	-1E+10	1
4902549	45	C	11/05/2021	17:19	-131.751	47.106	0	887.90	0	3.4130	0	34.3040	0	27.297	0	878.641	0	7.4	4	2.3	4	-1E+10	1	-1E+10	1	-1E+10	1	-1E+10	1	-1E+10	1	-1E+10	1
4902549	45	C	11/05/2021	17:19	-131.751	47.106	0	892.90	0	3.4050	0	34.3060	0	27.299	0	883.579	0	7.3	4	2.3	4	-1E+10	1	-1E+10	1	-1E+10	1	-1E+10	1	-1E+10	1	-1E+10	1
4902549	45	C	11/05/2021	17:19	-131.751	47.106	0	897.80	0	3.4020	0	34.3070	0	27.300	0	888.417	0	7.1	4	2.2	4	-1E+10	1	-1E+10	1	-1E+10	1	-1E+10	1	-1E+10	1	-1E+10	1
4902549	45	C	11/05/2021	17:19	-131.751	47.106	0	902.80	0	3.3950	0	34.3110	0	27.304	0	893.354	0	7.1	4	2.2	4	-1E+10	1	-1E+10	1	-1E+10	1	-1E+10	1	-1E+10	1	-1E+10	1
4902549	45	C	11/05/2021	17:19	-131.751	47.106	0	907.90	0	3.3810	0	34.3140	0	27.308	0	898.390	0	7.0	4	2.2	4	-1E+10	1	-1E+10	1	-1E+10	1	-1E+10	1	-1E+10	1	-1E+10	1
4902549	45	C	11/05/2021	17:19	-131.751	47.106	0	913.00	0	3.3760	0	34.3160	0	27.310	0	903.426	0	6.9	4	2.1	4	-1E+10	1	-1E+10	1	-1E+10	1	-1E+10	1	-1E+10	1	-1E+10	1
4902549	45	C	11/05/2021	17:19	-131.751	47.106	0	917.70	0	3.3630	0	34.3190	0	27.314	0	908.066	0	6.8	4	2.1	4	-1E+10	1	-1E+10	1	-1E+10	1	-1E+10	1	-1E+10	1	-1E+10	1
4902549	45	C	11/05/2021	17:19	-131.751	47.106	0	923.00	0	3.3510	0	34.3220	0	27.317	0	913.299	0	6.8	4	2.1	4	-1E+10	1	-1E+10	1	-1E+10	1	-1E+10	1	-1E+10	1	-1E+10	1
4902549	45	C	11/05/2021	17:19	-131.751	47.106	0	928.30	0	3.3430	0	34.3240	0	27.320	0	918.532	0	6.8	4	2.1	4	-1E+10	1	-1E+10	1	-1E+10	1	-1E+10	1	-1E+10	1	-1E+10	1
4902549	45	C	11/05/2021	17:19	-131.751	47.106	0	933.30	0	3.3320	0	34.3260	0	27.322	0	923.468	0	6.8	4	2.1	4	-1E+10	1	-1E+10	1	-1E+10	1	-1E+10	1	-1E+10	1	-1E+10	1
4902549	45	C	11/05/2021	17:19	-131.751	47.106	0	938.30	0	3.3200	0	34.3280	0	27.325	0	928.404	0	6.8	4	2.1	4	-1E+10	1	-1E+10	1	-1E+10	1	-1E+10	1	-1E+10	1	-1E+10	1
4902549	45	C	11/05/2021	17:19	-131.751	47.106	0	943.30	0	3.3100	0	34.3300	0	27.328	0	933.340	0	6.8	4	2.1	4	-1E+10	1	-1E+10	1	-1E+10	1	-1E+10	1	-1E+10	1	-1E+10	1
4902549	45	C	11/05/2021	17:19	-131.751	47.106	0	947.90	0	3.3010	0	34.3320	0	27.330	0	937.881	0	6.8	4	2.1	4	-1E+10	1	-1E+10	1	-1E+10	1	-1E+10	1	-1E+10	1	-1E+10	1
4902549	45	C	11/05/2021	17:19	-131.751	47.106	0	952.70	0	3.2960	0	34.3320	0	27.331	0	942.620	0	6.8	4	2.1	4	-1E+10	1	-1E+10	1	-1E+10	1	-1E+10	1	-1E+10	1	-1E+10	1
4902549	45	C	11/05/2021	17:19	-131.751	47.106	0	958.00	0	3.2870	0	34.3340	0	27.333	0	947.852	0	6.8	4	2.1	4	-1E+10	1	-1E+10	1	-1E+10	1	-1E+10	1	-1E+10	1	-1E+10	1
4902549	45	C	11/05/2021	17:19	-131.751	47.106	0	962.80	0	3.2780	0	34.3370	0	27.336	0	952.590	0	6.8	4	2.1	4	-1E+10	1	-1E+10	1	-1E+10	1	-1E+10	1	-1E+10	1	-1E+10	1
4902549	45	C	11/05/2021	17:19	-131.751	47.106	0	967.80	0	3.2670	0	34.3380	0	27.338	0	957.526	0	6.7	4	2.1	4	-1E+10	1	-1E+10	1	-1E+10	1	-1E+10	1	-1E+10	1	-1E+10	1
4902549	45	C	11/05/2021	17:19	-131.751	47.106	0	972.80	0	3.2620	0	34.3400	0	27.340	0	962.461	0	6.7	4	2.1	4	-1E+10	1	-1E+10	1	-1E+10	1	-1E+10	1	-1E+10	1	-1E+10	1
4902549	45	C	11/05/2021	17:19	-131.751	47.106	0	977.70	0	3.2570	0	34.3420	0	27.342	0	967.298	0	6.8	4	2.1	4	-1E+10	1	-1E+10	1	-1E+10	1	-1E+10	1	-1E+10	1	-1E+10	1
4902549	45	C	11/05/2021	17:19	-131.751	47.106	0	982.60	0	3.2450	0	34.3430	0	27.344	0	972.134	0	6.8	4	2.1	4	-1E+10	1	-1E+10	1	-1E+10	1	-1E+10	1	-1E+10	1	-1E+10	1
4902549	45	C	11/05/2021	17:19	-131.751	47.106	0	987.60	0	3.2430	0	34.3440	0	27.345	0	977.069	0	6.8	4	2.1	4	-1E+10	1	-1E+10	1	-1E+10	1	-1E+10	1	-1E+10	1	-1E+10	1
4902549	45	C	11/05/2021	17:19	-131.751	47.106	0	992.70	0	3.2350	0	34.3450	0	27.347	0	982.103	0	6.8	4	2.1	4	-1E+10	1	-1E+10	1	-1E+10	1	-1E+10	1	-1E+10	1	-1E+10	1
4902549	45	C	11/05/2021	17:19	-131.751	47.106	0	997.70	0	3.2260	0	34.3470	0	27.349	0	987.038	0	6.8	4	2.1	4	-1E+10	1	-1E+10	1	-1E+10	1	-1E+10	1	-1E+10	1	-1E+10	1
4902549	45	C	11/05/2021	17:19	-131.751	47.106	0	1005.30	0	3.2130	0	34.3500	0	27.353	0	994.538	0	6.8	4	2.1	4	-1E+10	1	-1E+10	1	-1E+10	1	-1E+10	1	-1E+10	1	-1E+10	1
4902549	45	C	11/05/2021	17:19	-131.751	47.106	0	1015.60	0	3.1980	0	34.3530	0	27.357	0	1004.704	0	6.8	4	2.1	4	-1E+10	1	-1E+10	1	-1E+10	1	-1E+10	1	-1E+10	1	-1E+10	1
4902549	45	C	11/05/2021	17:19	-131.751	47.106	0	1025.40	0	3.1870	0	34.3560	0	27.360	0	1014.375	0	6.7	4	2.1	4	-1E+10	1	-1E+10	1	-1E+10	1	-1E+10	1	-1E+10	1	-1E+10	1
4902549	45	C	11/05/2021	17:19	-131.751	47.106	0	1035.40	0	3.1820	0	34.3600	0	27.364	0	1024.243	0	6.6	4	2.1	4	-1E+10	1	-1E+10	1	-1E+10	1	-1E+10	1	-1E+10	1	-1E+10	1
4902549	45	C	11/05/2021	17:19	-131.751	47.106	0	1045.50	0	3.1710	0	34.3640	0	27.368	0	1034.209	0	6.5	4	2.0	4	-1E+10	1	-1E+10	1	-1E+10	1	-1E+10	1	-1E+10	1	-1E+10	1
4902549	45	C	11/05/2021	17:19	-131.751	47.106	0	1055.40	0	3.1610	0	34.3690	0	27.373	0	1043.978	0	6.5	4	2.0	4	-1E+10	1	-1E+10	1	-1E+10	1	-1E+10	1	-1E+10	1	-1E+10	1
4902549	45	C	11/05/2021	17:19	-131.751	47.106	0	1065.60	0	3.1460	0	34.3750	0	27.380	0	1054.041	0	6.6	4	2.0	4	-1E+10	1	-1E+10	1	-1E+10	1	-1E+10	1	-1E+10	1	-1E+10	1
4902549	45	C	11/05/2021	17:19	-131.751	47.106	0	1075.30	0	3.1330	0	34.3790	0	27.384	0	1063.612	0	6.7	4	2.1	4	-1E+10	1	-1E+10	1	-1E+10	1	-1E+10	1	-1E+10	1	-1E+10	1
4902549	45	C	11/05/2021	17:19	-131.751	47.106	0	1085.40	0	3.1230	0	34.3820	0	27.387	0	1073.576	0	6.8	4	2.1	4	-1E+10	1	-1E+10	1	-1E+10	1	-1E+10	1	-1E+10	1	-1E+10	1
4902549	45	C	11/05/2021	17:19	-131.751	47.106	0	1095.60	0	3.1080	0	34.3850	0	27.391	0	1083.639	0	6.9	4	2.1	4	-1E+10	1	-1E+10	1	-1E+10	1	-1E+10	1	-1E+10	1	-1E+10	1
4902549	45	C	11/05/2021	17:19	-131.751	47.106	0	1105.20	0	3.0980	0	34.3880	0	27.395	0	1093.109	0	6.9	4	2.1	4	-1E+10	1	-1E+10	1	-1E+10	1	-1E+10	1	-1E+10	1	-1E+10	1
4902549	45	C	11/05/2021	17:19	-131.751	47.106	0	1115.40	0	3.0800	0	34.3910	0	27.399	0	1103.171	0	7.0	4	2.2	4	-1E+10	1	-1E+10	1	-1E+10	1	-1E+10	1	-1E+10	1	-1E+10	1
4902549	45	C	11/05/2021	17:19	-131.751	47.106	0	1125.60	0	3.0560	0	34.3960	0	27.405	0	1113.232	0	7.1	4	2.2	4	-1E+10	1	-1E+10	1	-1E+10	1	-1E+10	1	-1E+10	1	-1E+10	1
4902549	45	C	11/05/2021	17:19	-131.751	47.106	0	1135.50	0	3.0370	0	34.4010	0	27.411	0	1122.996	0	7.2	4	2.2	4	-1E+10	1	-1E+10	1	-1E+10	1	-1E+10	1	-1E+10	1	-1E+10	1
4902549	45	C	11/05/2021	17:19	-131.751	47.106	0	1145.50	0	3.0200	0	34.4040	0	27.415	0	1132.859	0	7.3	4	2.2	4	-1E+10	1	-1E+10	1	-1E+10	1	-1E+10	1	-1E+10	1	-1E+10	1
4902549	45	C	11/05/2021	17:19	-131.751	47.106	0	1155.50	0	3.0000	0	34.4070	0	27.419	0	1142.722	0	7.4	4	2.3	4	-1E+10	1	-1E+10	1	-1E+10	1	-1E+10	1	-1E+10	1	-1E+10	1
4902549	45	C	11/05/2021	17:19	-131.751	47.106	0	1165.20	0	2.9880	0	34.4100	0	27.423	0	1152.288	0	7.7	4	2.4	4	-1E+10	1	-1E+10	1	-1E+10	1	-1E+10	1	-1E+10	1	-1E+10	1
4902549	45	C	11/05/2021	17:19	-131.751	47.106	0	1175.20	0	2.9680	0	34.4140	0	27.428	0	1162.149	0	7.9	4	2.4	4	-1E+10	1	-1E+10	1	-1E+10	1	-1E+10	1	-1E+10	1	-1E+10	1
4902549	45	C	11/05/2021	17:19	-131.751	47.106	0	1185.40	0	2.9470	0	34.4170	0	27.432	0	1172.208	0	8.0	4	2.5	4	-1E+10	1	-1E+10	1	-1E+10	1	-1E+10	1	-1E+10	1	-1E+10	1
4902549	45	C	11/05/2021	17:19	-131.751	47.106	0	1195.40	0	2.9250	0	34.4200	0	27.436	0	1182.068	0	8.2	4	2.5	4	-1E+10	1	-1E+10	1	-1E+10	1	-1E+10	1	-1E+10	1	-1E+10	1
4902549	45	C	11/05/2021	17:19	-131.751	47.106	0	1205.50	0	2.9100	0	34.4220	0	27.439	0	1192.027	0	8.3	4	2.5	4	-1E+10	1	-1E+10	1	-1E+10	1	-1E+10	1	-1E+10	1	-1E+10	1
4902549	45	C	11/05/2021	17:19	-131.751	47.106	0	1215.30	0	2.8840	0	34.4260	0	27.445	0	1201.690	0	8.3	4	2.5	4	-1E+10	1	-1E+10	1	-1E+10	1	-1E+10	1	-1E+10	1	-1E+10	1
4902549	45	C	11/05/2021	17:19	-131.751	47.106	0	1225.40	0	2.8690	0	34.4270	0	27.447	0	1211.648	0	8.4	4	2.6	4	-1E+10	1	-1E+10	1	-1E+10	1	-1E+10	1	-1E+10	1	-1E+10	1
4902549	45	C	11/05/2021	17:19	-131.751	47.106	0	1235.40	0	2.8550	0	34.4290	0	27.450	0	1221.506	0	8.7	4	2.7	4	-1E+10	1	-1E+10	1	-1E+10	1	-1E+10	1	-1E+10	1	-1E+10	1
4902549	45	C	11/05/2021	17:19	-131.751	47.106	0	1245.50	0	2.8340	0	34.4320	0	27.454	0	1231.463	0	8.9	4	2.7	4	-1E+10	1	-1E+10	1	-1E+10	1	-1E+10	1	-1E+10	1	-1E+10	1
4902549	45	C	11/05/2021	17:19	-131.751	47.106	0	1255.30	0	2.8170	0	34.4350	0	27.458	0	1241.124	0	9.2	4	2.8	4	-1E+10	1	-1E+10	1	-1E+10	1	-1E+10	1	-1E+10	1	-1E+10	1
4902549	45	C	11/05/2021	17:19	-131.751	47.106	0	1265.20	0	2.7950	0	34.4380	0	27.463	0	1250.883	0	9.6	4	2.9	4	-1E+10	1	-1E+10	1	-1E+10	1	-1E+10	1	-1E+10	1	-1E+10	1
4902549	45	C	11/05/2021	17:19	-131.751	47.106	0	1275.20	0	2.7720	0	34.4420	0	27.468	0	1260.739	0	9.9	4	3.0	4	-1E+10	1	-1E+10	1	-1E+10	1	-1E+10	1	-1E+10	1	-1E+10	1
4902549	45	C	11/05/2021	17:19	-131.751	47.106	0	1285.30	0	2.7470	0	34.4450	0	27.472	0	1270.695	0	10.2	4	3.1	4	-1E+10	1	-1E+10	1	-1E+10	1	-1E+10	1	-1E+10	1	-1E+10	1
4902549	45	C	11/05/2021	17:19	-131.751	47.106	0	1295.40	0	2.7240	0	34.4480	0	27.477	0	1280.649	0	10.4	4	3.2	4	-1E+10	1	-1E+10	1	-1E+10	1	-1E+10	1	-1E+10	1	-1E+10	1
4902549	45	C	11/05/2021	17:19	-131.751	47.106	0	1305.40	0	2.7100	0	34.4500	0	27.480	0	1290.505	0	10.5	4	3.2	4	-1E+10	1	-1E+10	1	-1E+10	1	-1E+10	1	-1E+10	1	-1E+10	1
4902549	45	C	11/05/2021	17:19	-131.751	47.106	0	1315.30	0	2.7000	0	34.4510	0	27.481	0	1300.261	0	10.7	4	3.3	4	-1E+10	1	-1E+10	1	-1E+10	1	-1E+10	1	-1E+10	1	-1E+10	1
4902549	45	C	11/05/2021	17:19	-131.751	47.106	0	1325.20	0	2.6850	0	34.4530	0	27.484	0	1310.017	0	11.1	4	3.4	4	-1E+10	1	-1E+10	1	-1E+10	1	-1E+10	1	-1E+10	1	-1E+10	1
4902549	45	C	11/05/2021	17:19	-131.751	47.106	0	1335.50	0	2.6700	0	34.4560	0	27.488	0	1320.167	0	11.5	4	3.5	4	-1E+10	1	-1E+10	1	-1E+10	1	-1E+10	1	-1E+10	1	-1E+10	1
4902549	45	C	11/05/2021	17:19	-131.751	47.106	0	1345.80	0	2.6550	0	34.4600	0	27.493	0	1330.316	0	12.0	4	3.7	4	-1E+10	1	-1E+10	1	-1E+10	1	-1E+10	1	-1E+10	1	-1E+10	1
4902549	45	C	11/05/2021	17:19	-131.751	47.106	0	1355.40	0	2.6400	0	34.4630	0	27.496	0	1339.775	0	12.4	4	3.8	4	-1E+10	1	-1E+10	1	-1E+10	1	-1E+10	1	-1E+10	1	-1E+10	1
4902549	45	C	11/05/2021	17:19	-131.751	47.106	0	1365.10	0	2.6370	0	34.4660	0	27.499	0	1349.332	0	12.7	4	3.9	4	-1E+10	1	-1E+10	1	-1E+10	1	-1E+10	1	-1E+10	1	-1E+10	1
4902549	45	C	11/05/2021	17:19	-131.751	47.106	0	1375.30	0	2.6130	0	34.4680	0	27.503	0	1359.382	0	13.1	4	4.0	4	-1E+10	1	-1E+10	1	-1E+10	1	-1E+10	1	-1E+10	1	-1E+10	1
4902549	45	C	11/05/2021	17:19	-131.751	47.106	0	1385.50	0	2.5940	0	34.4720	0	27.508	0	1369.431	0	13.7	4	4.2	4	-1E+10	1	-1E+10	1	-1E+10	1	-1E+10	1	-1E+10	1	-1E+10	1
4902549	45	C	11/05/2021	17:19	-131.751	47.106	0	1395.50	0	2.5730	0	34.4740	0	27.511	0	1379.282	0	13.8	4	4.2	4	-1E+10	1	-1E+10	1	-1E+10	1	-1E+10	1	-1E+10	1	-1E+10	1
4902549	45	C	11/05/2021	17:19	-131.751	47.106	0	1405.60	0	2.5540	0	34.4750	0	27.514	0	1389.231	0	14.2	4	4.3	4	-1E+10	1	-1E+10	1	-1E+10	1	-1E+10	1	-1E+10	1	-1E+10	1
4902549	45	C	11/05/2021	17:19	-131.751	47.106	0	1415.70	0	2.5380	0	34.4780	0	27.517	0	1399.180	0	14.9	4	4.6	4	-1E+10	1	-1E+10	1	-1E+10	1	-1E+10	1	-1E+10	1	-1E+10	1
4902549	45	C	11/05/2021	17:19	-131.751	47.106	0	1425.40	0	2.5310	0	34.4820	0	27.521	0	1408.735	0	15.5	4	4.7	4	-1E+10	1	-1E+10	1	-1E+10	1	-1E+10	1	-1E+10	1	-1E+10	1
4902549	45	C	11/05/2021	17:19	-131.751	47.106	0	1435.20	0	2.5050	0	34.4840	0	27.525	0	1418.387	0	15.9	4	4.9	4	-1E+10	1	-1E+10	1	-1E+10	1	-1E+10	1	-1E+10	1	-1E+10	1
4902549	45	C	11/05/2021	17:19	-131.751	47.106	0	1445.20	0	2.5020	0	34.4860	0	27.527	0	1428.236	0	16.4	4	5.0	4	-1E+10	1	-1E+10	1	-1E+10	1	-1E+10	1	-1E+10	1	-1E+10	1
4902549	45	C	11/05/2021	17:19	-131.751	47.106	0	1455.10	0	2.4900	0	34.4890	0	27.530	0	1437.986	0	17.1	4	5.2	4	-1E+10	1	-1E+10	1	-1E+10	1	-1E+10	1	-1E+10	1	-1E+10	1
4902549	45	C	11/05/2021	17:19	-131.751	47.106	0	1465.00	0	2.4780	0	34.4920	0	27.534	0	1447.736	0	17.8	4	5.4	4	-1E+10	1	-1E+10	1	-1E+10	1	-1E+10	1	-1E+10	1	-1E+10	1
4902549	45	C	11/05/2021	17:19	-131.751	47.106	0	1475.10	0	2.4590	0	34.4950	0	27.538	0	1457.682	0	18.4	4	5.6	4	-1E+10	1	-1E+10	1	-1E+10	1	-1E+10	1	-1E+10	1	-1E+10	1
4902549	45	C	11/05/2021	17:19	-131.751	47.106	0	1485.30	0	2.4500	0	34.4980	0	27.541	0	1467.726	0	19.0	4	5.8	4	-1E+10	1	-1E+10	1	-1E+10	1	-1E+10	1	-1E+10	1	-1E+10	1
4902549	45	C	11/05/2021	17:19	-131.751	47.106	0	1495.60	0	2.4390	0	34.5000	0	27.544	0	1477.868	0	19.6	4	6.0	4	-1E+10	1	-1E+10	1	-1E+10	1	-1E+10	1	-1E+10	1	-1E+10	1
4902549	45	C	11/05/2021	17:19	-131.751	47.106	0	1505.60	0	2.4300	0	34.5030	0	27.547	0	1487.715	0	20.3	4	6.2	4	-1E+10	1	-1E+10	1	-1E+10	1	-1E+10	1	-1E+10	1	-1E+10	1
4902549	45	C	11/05/2021	17:19	-131.751	47.106	0	1515.10	0	2.4180	0	34.5050	0	27.550	0	1497.068	0	20.9	4	6.4	4	-1E+10	1	-1E+10	1	-1E+10	1	-1E+10	1	-1E+10	1	-1E+10	1
4902549	45	C	11/05/2021	17:19	-131.751	47.106	0	1525.20	0	2.4050	0	34.5070	0	27.552	0	1507.012	0	21.4	4	6.5	4	-1E+10	1	-1E+10	1	-1E+10	1	-1E+10	1	-1E+10	1	-1E+10	1
4902549	45	C	11/05/2021	17:19	-131.751	47.106	0	1535.60	0	2.3850	0	34.5100	0	27.556	0	1517.251	0	22.1	4	6.7	4	-1E+10	1	-1E+10	1	-1E+10	1	-1E+10	1	-1E+10	1	-1E+10	1
4902549	45	C	11/05/2021	17:19	-131.751	47.106	0	1545.70	0	2.3700	0	34.5120	0	27.559	0	1527.193	0	22.6	4	6.9	4	-1E+10	1	-1E+10	1	-1E+10	1	-1E+10	1	-1E+10	1	-1E+10	1
4902549	45	C	11/05/2021	17:19	-131.751	47.106	0	1555.70	0	2.3530	0	34.5140	0	27.562	0	1537.037	0	23.3	4	7.1	4	-1E+10	1	-1E+10	1	-1E+10	1	-1E+10	1	-1E+10	1	-1E+10	1
4902549	45	C	11/05/2021	17:19	-131.751	47.106	0	1565.40	0	2.3520	0	34.5170	0	27.565	0	1546.586	0	24.6	4	7.5	4	-1E+10	1	-1E+10	1	-1E+10	1	-1E+10	1	-1E+10	1	-1E+10	1
4902549	45	C	11/05/2021	17:19	-131.751	47.106	0	1575.10	0	2.3540	0	34.5210	0	27.568	0	1556.133	0	25.4	4	7.7	4	-1E+10	1	-1E+10	1	-1E+10	1	-1E+10	1	-1E+10	1	-1E+10	1
4902549	45	C	11/05/2021	17:19	-131.751	47.106	0	1585.20	0	2.3390	0	34.5230	0	27.571	0	1566.074	0	26.0	4	7.9	4	-1E+10	1	-1E+10	1	-1E+10	1	-1E+10	1	-1E+10	1	-1E+10	1
4902549	45	C	11/05/2021	17:19	-131.751	47.106	0	1595.50	0	2.3300	0	34.5250	0	27.573	0	1576.212	0	26.5	4	8.1	4	-1E+10	1	-1E+10	1	-1E+10	1	-1E+10	1	-1E+10	1	-1E+10	1
4902549	45	C	11/05/2021	17:19	-131.751	47.106	0	1605.40	0	2.3200	0	34.5270	0	27.576	0	1585.955	0	27.1	4	8.2	4	-1E+10	1	-1E+10	1	-1E+10	1	-1E+10	1	-1E+10	1	-1E+10	1
4902549	45	C	11/05/2021	17:19	-131.751	47.106	0	1615.10	0	2.3060	0	34.5280	0	27.578	0	1595.501	0	27.5	4	8.3	4	-1E+10	1	-1E+10	1	-1E+10	1	-1E+10	1	-1E+10	1	-1E+10	1
4902549	45	C	11/05/2021	17:19	-131.751	47.106	0	1625.50	0	2.2960	0	34.5300	0	27.580	0	1605.736	0	28.0	4	8.5	4	-1E+10	1	-1E+10	1	-1E+10	1	-1E+10	1	-1E+10	1	-1E+10	1
4902549	45	C	11/05/2021	17:19	-131.751	47.106	0	1636.00	0	2.2830	0	34.5310	0	27.582	0	1616.068	0	28.5	4	8.6	4	-1E+10	1	-1E+10	1	-1E+10	1	-1E+10	1	-1E+10	1	-1E+10	1
4902549	45	C	11/05/2021	17:19	-131.751	47.106	0	1645.60	0	2.2700	0	34.5330	0	27.585	0	1625.514	0	29.2	4	8.9	4	-1E+10	1	-1E+10	1	-1E+10	1	-1E+10	1	-1E+10	1	-1E+10	1
4902549	45	C	11/05/2021	17:19	-131.751	47.106	0	1655.30	0	2.2570	0	34.5350	0	27.588	0	1635.058	0	30.0	4	9.1	4	-1E+10	1	-1E+10	1	-1E+10	1	-1E+10	1	-1E+10	1	-1E+10	1
4902549	45	C	11/05/2021	17:19	-131.751	47.106	0	1665.20	0	2.2440	0	34.5370	0	27.590	0	1644.799	0	30.7	4	9.3	4	-1E+10	1	-1E+10	1	-1E+10	1	-1E+10	1	-1E+10	1	-1E+10	1
4902549	45	C	11/05/2021	17:19	-131.751	47.106	0	1675.30	0	2.2260	0	34.5390	0	27.593	0	1654.736	0	31.5	4	9.6	4	-1E+10	1	-1E+10	1	-1E+10	1	-1E+10	1	-1E+10	1	-1E+10	1
4902549	45	C	11/05/2021	17:19	-131.751	47.106	0	1685.60	0	2.2140	0	34.5420	0	27.597	0	1664.869	0	32.4	4	9.8	4	-1E+10	1	-1E+10	1	-1E+10	1	-1E+10	1	-1E+10	1	-1E+10	1
4902549	45	C	11/05/2021	17:19	-131.751	47.106	0	1695.50	0	2.2010	0	34.5440	0	27.599	0	1674.608	0	33.2	4	10.1	4	-1E+10	1	-1E+10	1	-1E+10	1	-1E+10	1	-1E+10	1	-1E+10	1
4902549	45	C	11/05/2021	17:19	-131.751	47.106	0	1705.50	0	2.1860	0	34.5460	0	27.602	0	1684.445	0	33.8	4	10.2	4	-1E+10	1	-1E+10	1	-1E+10	1	-1E+10	1	-1E+10	1	-1E+10	1
4902549	45	C	11/05/2021	17:19	-131.751	47.106	0	1715.50	0	2.1730	0	34.5480	0	27.605	0	1694.282	0	34.4	4	10.4	4	-1E+10	1	-1E+10	1	-1E+10	1	-1E+10	1	-1E+10	1	-1E+10	1
4902549	45	C	11/05/2021	17:19	-131.751	47.106	0	1725.10	0	2.1650	0	34.5490	0	27.606	0	1703.724	0	34.9	4	10.6	4	-1E+10	1	-1E+10	1	-1E+10	1	-1E+10	1	-1E+10	1	-1E+10	1
4902549	45	C	11/05/2021	17:19	-131.751	47.106	0	1735.00	0	2.1480	0	34.5510	0	27.609	0	1713.462	0	35.6	4	10.8	4	-1E+10	1	-1E+10	1	-1E+10	1	-1E+10	1	-1E+10	1	-1E+10	1
4902549	45	C	11/05/2021	17:19	-131.751	47.106	0	1745.40	0	2.1400	0	34.5530	0	27.612	0	1723.690	0	36.2	4	10.9	4	-1E+10	1	-1E+10	1	-1E+10	1	-1E+10	1	-1E+10	1	-1E+10	1
4902549	45	C	11/05/2021	17:19	-131.751	47.106	0	1755.70	0	2.1310	0	34.5540	0	27.613	0	1733.820	0	36.7	4	11.1	4	-1E+10	1	-1E+10	1	-1E+10	1	-1E+10	1	-1E+10	1	-1E+10	1
4902549	45	C	11/05/2021	17:19	-131.751	47.106	0	1765.50	0	2.1180	0	34.5560	0	27.616	0	1743.458	0	37.4	4	11.3	4	-1E+10	1	-1E+10	1	-1E+10	1	-1E+10	1	-1E+10	1	-1E+10	1
4902549	45	C	11/05/2021	17:19	-131.751	47.106	0	1775.30	0	2.1070	0	34.5580	0	27.619	0	1753.095	0	37.9	4	11.5	4	-1E+10	1	-1E+10	1	-1E+10	1	-1E+10	1	-1E+10	1	-1E+10	1
4902549	45	C	11/05/2021	17:19	-131.751	47.106	0	1785.30	0	2.1010	0	34.5580	0	27.619	0	1762.929	0	38.5	4	11.6	4	-1E+10	1	-1E+10	1	-1E+10	1	-1E+10	1	-1E+10	1	-1E+10	1
4902549	45	C	11/05/2021	17:19	-131.751	47.106	0	1795.20	0	2.0910	0	34.5600	0	27.622	0	1772.663	0	39.0	4	11.8	4	-1E+10	1	-1E+10	1	-1E+10	1	-1E+10	1	-1E+10	1	-1E+10	1
4902549	45	C	11/05/2021	17:19	-131.751	47.106	0	1805.40	0	2.0820	0	34.5620	0	27.624	0	1782.692	0	39.6	4	12.0	4	-1E+10	1	-1E+10	1	-1E+10	1	-1E+10	1	-1E+10	1	-1E+10	1
4902549	45	C	11/05/2021	17:19	-131.751	47.106	0	1815.70	0	2.0740	0	34.5630	0	27.625	0	1792.819	0	40.1	4	12.1	4	-1E+10	1	-1E+10	1	-1E+10	1	-1E+10	1	-1E+10	1	-1E+10	1
4902549	45	C	11/05/2021	17:19	-131.751	47.106	0	1825.60	0	2.0670	0	34.5640	0	27.627	0	1802.553	0	40.7	4	12.3	4	-1E+10	1	-1E+10	1	-1E+10	1	-1E+10	1	-1E+10	1	-1E+10	1
4902549	45	C	11/05/2021	17:19	-131.751	47.106	0	1835.50	0	2.0610	0	34.5650	0	27.628	0	1812.286	0	41.3	4	12.5	4	-1E+10	1	-1E+10	1	-1E+10	1	-1E+10	1	-1E+10	1	-1E+10	1
4902549	45	C	11/05/2021	17:19	-131.751	47.106	0	1845.50	0	2.0500	0	34.5670	0	27.631	0	1822.116	0	42.0	4	12.7	4	-1E+10	1	-1E+10	1	-1E+10	1	-1E+10	1	-1E+10	1	-1E+10	1
4902549	45	C	11/05/2021	17:19	-131.751	47.106	0	1855.30	0	2.0410	0	34.5690	0	27.633	0	1831.750	0	42.6	4	12.9	4	-1E+10	1	-1E+10	1	-1E+10	1	-1E+10	1	-1E+10	1	-1E+10	1
4902549	45	C	11/05/2021	17:19	-131.751	47.106	0	1865.10	0	2.0320	0	34.5700	0	27.635	0	1841.383	0	43.4	4	13.1	4	-1E+10	1	-1E+10	1	-1E+10	1	-1E+10	1	-1E+10	1	-1E+10	1
4902549	45	C	11/05/2021	17:19	-131.751	47.106	0	1875.40	0	2.0210	0	34.5720	0	27.637	0	1851.507	0	44.0	4	13.3	4	-1E+10	1	-1E+10	1	-1E+10	1	-1E+10	1	-1E+10	1	-1E+10	1
4902549	45	C	11/05/2021	17:19	-131.751	47.106	0	1885.40	0	2.0120	0	34.5730	0	27.639	0	1861.336	0	44.6	4	13.4	4	-1E+10	1	-1E+10	1	-1E+10	1	-1E+10	1	-1E+10	1	-1E+10	1
4902549	45	C	11/05/2021	17:19	-131.751	47.106	0	1895.30	0	2.0090	0	34.5740	0	27.640	0	1871.066	0	45.2	4	13.6	4	-1E+10	1	-1E+10	1	-1E+10	1	-1E+10	1	-1E+10	1	-1E+10	1
4902549	45	C	11/05/2021	17:19	-131.751	47.106	0	1905.30	0	2.0000	0	34.5760	0	27.642	0	1880.894	0	45.9	4	13.8	4	-1E+10	1	-1E+10	1	-1E+10	1	-1E+10	1	-1E+10	1	-1E+10	1
4902549	45	C	11/05/2021	17:19	-131.751	47.106	0	1915.10	0	1.9930	0	34.5770	0	27.643	0	1890.525	0	46.4	4	14.0	4	-1E+10	1	-1E+10	1	-1E+10	1	-1E+10	1	-1E+10	1	-1E+10	1
4902549	45	C	11/05/2021	17:19	-131.751	47.106	0	1925.00	0	1.9860	0	34.5780	0	27.645	0	1900.254	0	46.9	4	14.1	4	-1E+10	1	-1E+10	1	-1E+10	1	-1E+10	1	-1E+10	1	-1E+10	1
4902549	45	C	11/05/2021	17:19	-131.751	47.106	0	1935.50	0	1.9810	0	34.5790	0	27.646	0	1910.572	0	47.4	4	14.3	4	-1E+10	1	-1E+10	1	-1E+10	1	-1E+10	1	-1E+10	1	-1E+10	1
4902549	45	C	11/05/2021	17:19	-131.751	47.106	0	1945.50	0	1.9720	0	34.5810	0	27.648	0	1920.398	0	48.1	4	14.5	4	-1E+10	1	-1E+10	1	-1E+10	1	-1E+10	1	-1E+10	1	-1E+10	1
4902549	45	C	11/05/2021	17:19	-131.751	47.106	0	1955.60	0	1.9640	0	34.5820	0	27.650	0	1930.322	0	48.7	4	14.7	4	-1E+10	1	-1E+10	1	-1E+10	1	-1E+10	1	-1E+10	1	-1E+10	1
4902549	45	C	11/05/2021	17:19	-131.751	47.106	0	1965.40	0	1.9580	0	34.5830	0	27.651	0	1939.951	0	49.4	4	14.9	4	-1E+10	1	-1E+10	1	-1E+10	1	-1E+10	1	-1E+10	1	-1E+10	1
4902549	45	C	11/05/2021	17:19	-131.751	47.106	0	1975.40	0	1.9470	0	34.5850	0	27.654	0	1949.776	0	50.2	4	15.1	4	-1E+10	1	-1E+10	1	-1E+10	1	-1E+10	1	-1E+10	1	-1E+10	1
4902549	45	C	11/05/2021	17:19	-131.751	47.106	0	1985.50	0	1.9400	0	34.5860	0	27.655	0	1959.698	0	50.6	4	15.2	4	-1E+10	1	-1E+10	1	-1E+10	1	-1E+10	1	-1E+10	1	-1E+10	1
4902549	45	C	11/05/2021	17:19	-131.751	47.106	0	1995.50	0	1.9310	0	34.5880	0	27.657	0	1969.522	0	51.2	4	15.4	4	-1E+10	1	-1E+10	1	-1E+10	1	-1E+10	1	-1E+10	1	-1E+10	1
4902549	45	C	11/05/2021	17:19	-131.751	47.106	0	2005.30	0	1.9260	0	34.5890	0	27.659	0	1979.149	0	51.5	4	15.5	4	-1E+10	1	-1E+10	1	-1E+10	1	-1E+10	1	-1E+10	1	-1E+10	1
4902549	45	C	11/05/2021	17:19	-131.751	47.106	0	2015.20	0	1.9220	0	34.5890	0	27.659	0	1988.874	0	51.8	4	15.6	4	-1E+10	1	-1E+10	1	-1E+10	1	-1E+10	1	-1E+10	1	-1E+10	1
4902549	45	C	11/05/2021	17:19	-131.751	47.106	0	2025.50	0	1.9150	0	34.5910	0	27.661	0	1998.991	0	52.1	4	15.7	4	-1E+10	1	-1E+10	1	-1E+10	1	-1E+10	1	-1E+10	1	-1E+10	1
4902549	45	C	11/05/2021	17:19	-131.751	47.106	0	2033.00	0	1.9110	0	34.5920	0	27.662	0	2006.357	0	51.8	4	15.6	4	-1E+10	1	-1E+10	1	-1E+10	1	-1E+10	1	-1E+10	1	-1E+10	1
4902549	45	C	11/05/2021	17:19	-131.751	47.106	0																										
4902549	46	C	11/15/2021	22:03	-131.754	47.126	0	0.40	0	10.4690	0	32.2510	0	24.728	0	0.397	0	259.4	4	93.6	4	-1E+10	1	-1E+10	1	-1E+10	1	-1E+10	1	-1E+10	1	-1E+10	1
4902549	46	C	11/15/2021	22:03	-131.754	47.126	0	0.80	0	10.4710	0	32.2510	0	24.727	0	0.793	0	259.5	4	93.6	4	-1E+10	1	-1E+10	1	-1E+10	1	-1E+10	1	-1E+10	1	-1E+10	1
4902549	46	C	11/15/2021	22:03	-131.754	47.126	0	1.90	0	10.4750	0	32.2470	0	24.724	0	1.884	0	259.3	4	93.5	4	-1E+10	1	-1E+10	1	-1E+10	1	-1E+10	1	-1E+10	1	-1E+10	1
4902549	46	C	11/15/2021	22:03	-131.754	47.126	0	3.10	0	10.4780	0	32.2450	0	24.722	0	3.074	0	259.2	4	93.5	4	-1E+10	1	-1E+10	1	-1E+10	1	-1E+10	1	-1E+10	1	-1E+10	1
4902549	46	C	11/15/2021	22:03	-131.754	47.126	0	4.10	0	10.4750	0	32.2480	0	24.725	0	4.066	0	259.1	4	93.5	4	-1E+10	1	-1E+10	1	-1E+10	1	-1E+10	1	-1E+10	1	-1E+10	1
4902549	46	C	11/15/2021	22:03	-131.754	47.126	0	4.90	0	10.4750	0	32.2480	0	24.725	0	4.859	0	259.1	4	93.5	4	-1E+10	1	-1E+10	1	-1E+10	1	-1E+10	1	-1E+10	1	-1E+10	1
4902549	46	C	11/15/2021	22:03	-131.754	47.126	0	5.80	0	10.4750	0	32.2480	0	24.725	0	5.752	0	259.1	4	93.5	4	-1E+10	1	-1E+10	1	-1E+10	1	-1E+10	1	-1E+10	1	-1E+10	1
4902549	46	C	11/15/2021	22:03	-131.754	47.126	0	6.80	0	10.4750	0	32.2480	0	24.725	0	6.743	0	259.1	4	93.4	4	-1E+10	1	-1E+10	1	-1E+10	1	-1E+10	1	-1E+10	1	-1E+10	1
4902549	46	C	11/15/2021	22:03	-131.754	47.126	0	7.80	0	10.4740	0	32.2480	0	24.725	0	7.735	0	259.0	4	93.4	4	-1E+10	1	-1E+10	1	-1E+10	1	-1E+10	1	-1E+10	1	-1E+10	1
4902549	46	C	11/15/2021	22:03	-131.754	47.126	0	9.10	0	10.4750	0	32.2470	0	24.724	0	9.024	0	259.0	4	93.4	4	-1E+10	1	-1E+10	1	-1E+10	1	-1E+10	1	-1E+10	1	-1E+10	1
4902549	46	C	11/15/2021	22:03	-131.754	47.126	0	9.90	0	10.4750	0	32.2480	0	24.725	0	9.817	0	259.0	4	93.4	4	-1E+10	1	-1E+10	1	-1E+10	1	-1E+10	1	-1E+10	1	-1E+10	1
4902549	46	C	11/15/2021	22:03	-131.754	47.126	0	10.70	0	10.4760	0	32.2480	0	24.724	0	10.611	0	259.0	4	93.4	4	-1E+10	1	-1E+10	1	-1E+10	1	-1E+10	1	-1E+10	1	-1E+10	1
4902549	46	C	11/15/2021	22:03	-131.754	47.126	0	11.80	0	10.4760	0	32.2480	0	24.725	0	11.702	0	259.0	4	93.4	4	-1E+10	1	-1E+10	1	-1E+10	1	-1E+10	1	-1E+10	1	-1E+10	1
4902549	46	C	11/15/2021	22:03	-131.754	47.126	0	13.00	0	10.4760	0	32.2480	0	24.725	0	12.892	0	258.9	4	93.4	4	-1E+10	1	-1E+10	1	-1E+10	1	-1E+10	1	-1E+10	1	-1E+10	1
4902549	46	C	11/15/2021	22:03	-131.754	47.126	0	13.80	0	10.4760	0	32.2470	0	24.724	0	13.685	0	258.9	4	93.4	4	-1E+10	1	-1E+10	1	-1E+10	1	-1E+10	1	-1E+10	1	-1E+10	1
4902549	46	C	11/15/2021	22:03	-131.754	47.126	0	14.90	0	10.4760	0	32.2480	0	24.725	0	14.776	0	258.9	4	93.4	4	-1E+10	1	-1E+10	1	-1E+10	1	-1E+10	1	-1E+10	1	-1E+10	1
4902549	46	C	11/15/2021	22:03	-131.754	47.126	0	16.10	0	10.4750	0	32.2480	0	24.725	0	15.966	0	259.0	4	93.4	4	-1E+10	1	-1E+10	1	-1E+10	1	-1E+10	1	-1E+10	1	-1E+10	1
4902549	46	C	11/15/2021	22:03	-131.754	47.126	0	17.00	0	10.4750	0	32.2480	0	24.725	0	16.858	0	258.9	4	93.4	4	-1E+10	1	-1E+10	1	-1E+10	1	-1E+10	1	-1E+10	1	-1E+10	1
4902549	46	C	11/15/2021	22:03	-131.754	47.126	0	18.00	0	10.4750	0	32.2480	0	24.725	0	17.850	0	258.9	4	93.4	4	-1E+10	1	-1E+10	1	-1E+10	1	-1E+10	1	-1E+10	1	-1E+10	1
4902549	46	C	11/15/2021	22:03	-131.754	47.126	0	18.90	0	10.4760	0	32.2480	0	24.725	0	18.742	0	258.9	4	93.4	4	-1E+10	1	-1E+10	1	-1E+10	1	-1E+10	1	-1E+10	1	-1E+10	1
4902549	46	C	11/15/2021	22:03	-131.754	47.126	0	19.90	0	10.4760	0	32.2470	0	24.724	0	19.734	0	258.9	4	93.4	4	-1E+10	1	-1E+10	1	-1E+10	1	-1E+10	1	-1E+10	1	-1E+10	1
4902549	46	C	11/15/2021	22:03	-131.754	47.126	0	20.90	0	10.4760	0	32.2480	0	24.725	0	20.725	0	258.9	4	93.4	4	-1E+10	1	-1E+10	1	-1E+10	1	-1E+10	1	-1E+10	1	-1E+10	1
4902549	46	C	11/15/2021	22:03	-131.754	47.126	0	21.80	0	10.4760	0	32.2480	0	24.725	0	21.618	0	258.9	4	93.4	4	-1E+10	1	-1E+10	1	-1E+10	1	-1E+10	1	-1E+10	1	-1E+10	1
4902549	46	C	11/15/2021	22:03	-131.754	47.126	0	23.00	0	10.4760	0	32.2480	0	24.725	0	22.808	0	258.9	4	93.4	4	-1E+10	1	-1E+10	1	-1E+10	1	-1E+10	1	-1E+10	1	-1E+10	1
4902549	46	C	11/15/2021	22:03	-131.754	47.126	0	24.00	0	10.4770	0	32.2480	0	24.725	0	23.799	0	258.8	4	93.3	4	-1E+10	1	-1E+10	1	-1E+10	1	-1E+10	1	-1E+10	1	-1E+10	1
4902549	46	C	11/15/2021	22:03	-131.754	47.126	0	24.90	0	10.4770	0	32.2480	0	24.725	0	24.692	0	258.8	4	93.4	4	-1E+10	1	-1E+10	1	-1E+10	1	-1E+10	1	-1E+10	1	-1E+10	1
4902549	46	C	11/15/2021	22:03	-131.754	47.126	0	25.90	0	10.4760	0	32.2480	0	24.725	0	25.683	0	258.8	4	93.3	4	-1E+10	1	-1E+10	1	-1E+10	1	-1E+10	1	-1E+10	1	-1E+10	1
4902549	46	C	11/15/2021	22:03	-131.754	47.126	0	26.90	0	10.4770	0	32.2480	0	24.725	0	26.675	0	258.8	4	93.4	4	-1E+10	1	-1E+10	1	-1E+10	1	-1E+10	1	-1E+10	1	-1E+10	1
4902549	46	C	11/15/2021	22:03	-131.754	47.126	0	28.00	0	10.4770	0	32.2480	0	24.725	0	27.765	0	258.8	4	93.3	4	-1E+10	1	-1E+10	1	-1E+10	1	-1E+10	1	-1E+10	1	-1E+10	1
4902549	46	C	11/15/2021	22:03	-131.754	47.126	0	29.00	0	10.4770	0	32.2480	0	24.725	0	28.757	0	258.8	4	93.3	4	-1E+10	1	-1E+10	1	-1E+10	1	-1E+10	1	-1E+10	1	-1E+10	1
4902549	46	C	11/15/2021	22:03	-131.754	47.126	0	30.20	0	10.4780	0	32.2480	0	24.725	0	29.947	0	258.7	4	93.3	4	-1E+10	1	-1E+10	1	-1E+10	1	-1E+10	1	-1E+10	1	-1E+10	1
4902549	46	C	11/15/2021	22:03	-131.754	47.126	0	30.90	0	10.4780	0	32.2480	0	24.725	0	30.641	0	258.7	4	93.3	4	-1E+10	1	-1E+10	1	-1E+10	1	-1E+10	1	-1E+10	1	-1E+10	1
4902549	46	C	11/15/2021	22:03	-131.754	47.126	0	31.90	0	10.4770	0	32.2480	0	24.725	0	31.632	0	258.6	4	93.3	4	-1E+10	1	-1E+10	1	-1E+10	1	-1E+10	1	-1E+10	1	-1E+10	1
4902549	46	C	11/15/2021	22:03	-131.754	47.126	0	33.00	0	10.4780	0	32.2480	0	24.725	0	32.723	0	258.6	4	93.3	4	-1E+10	1	-1E+10	1	-1E+10	1	-1E+10	1	-1E+10	1	-1E+10	1
4902549	46	C	11/15/2021	22:03	-131.754	47.126	0	34.00	0	10.4760	0	32.2480	0	24.725	0	33.715	0	258.6	4	93.3	4	-1E+10	1	-1E+10	1	-1E+10	1	-1E+10	1	-1E+10	1	-1E+10	1
4902549	46	C	11/15/2021	22:03	-131.754	47.126	0	35.10	0	10.4770	0	32.2480	0	24.725	0	34.805	0	258.7	4	93.3	4	-1E+10	1	-1E+10	1	-1E+10	1	-1E+10	1	-1E+10	1	-1E+10	1
4902549	46	C	11/15/2021	22:03	-131.754	47.126	0	35.80	0	10.4770	0	32.2480	0	24.725	0	35.499	0	258.5	4	93.2	4	-1E+10	1	-1E+10	1	-1E+10	1	-1E+10	1	-1E+10	1	-1E+10	1
4902549	46	C	11/15/2021	22:03	-131.754	47.126	0	36.90	0	10.4770	0	32.2480	0	24.725	0	36.590	0	258.6	4	93.3	4	-1E+10	1	-1E+10	1	-1E+10	1	-1E+10	1	-1E+10	1	-1E+10	1
4902549	46	C	11/15/2021	22:03	-131.754	47.126	0	38.10	0	10.4770	0	32.2480	0	24.725	0	37.780	0	258.5	4	93.2	4	-1E+10	1	-1E+10	1	-1E+10	1	-1E+10	1	-1E+10	1	-1E+10	1
4902549	46	C	11/15/2021	22:03	-131.754	47.126	0	38.90	0	10.4760	0	32.2480	0	24.725	0	38.573	0	258.5	4	93.2	4	-1E+10	1	-1E+10	1	-1E+10	1	-1E+10	1	-1E+10	1	-1E+10	1
4902549	46	C	11/15/2021	22:03	-131.754	47.126	0	39.70	0	10.4770	0	32.2480	0	24.725	0	39.366	0	258.5	4	93.2	4	-1E+10	1	-1E+10	1	-1E+10	1	-1E+10	1	-1E+10	1	-1E+10	1
4902549	46	C	11/15/2021	22:03	-131.754	47.126	0	40.90	0	10.4760	0	32.2480	0	24.725	0	40.556	0	258.5	4	93.3	4	-1E+10	1	-1E+10	1	-1E+10	1	-1E+10	1	-1E+10	1	-1E+10	1
4902549	46	C	11/15/2021	22:03	-131.754	47.126	0	42.20	0	10.4760	0	32.2480	0	24.725	0	41.845	0	258.4	4	93.2	4	-1E+10	1	-1E+10	1	-1E+10	1	-1E+10	1	-1E+10	1	-1E+10	1
4902549	46	C	11/15/2021	22:03	-131.754	47.126	0	43.00	0	10.4770	0	32.2480	0	24.725	0	42.638	0	258.3	4	93.2	4	-1E+10	1	-1E+10	1	-1E+10	1	-1E+10	1	-1E+10	1	-1E+10	1
4902549	46	C	11/15/2021	22:03	-131.754	47.126	0	43.80	0	10.4770	0	32.2480	0	24.725	0	43.431	0	258.4	4	93.2	4	-1E+10	1	-1E+10	1	-1E+10	1	-1E+10	1	-1E+10	1	-1E+10	1
4902549	46	C	11/15/2021	22:03	-131.754	47.126	0	44.90	0	10.4770	0	32.2480	0	24.725	0	44.522	0	258.4	4	93.2	4	-1E+10	1	-1E+10	1	-1E+10	1	-1E+10	1	-1E+10	1	-1E+10	1
4902549	46	C	11/15/2021	22:03	-131.754	47.126	0	46.10	0	10.4770	0	32.2480	0	24.725	0	45.712	0	258.4	4	93.2	4	-1E+10	1	-1E+10	1	-1E+10	1	-1E+10	1	-1E+10	1	-1E+10	1
4902549	46	C	11/15/2021	22:03	-131.754	47.126	0	46.80	0	10.4780	0	32.2480	0	24.725	0	46.406	0	258.4	4	93.2	4	-1E+10	1	-1E+10	1	-1E+10	1	-1E+10	1	-1E+10	1	-1E+10	1
4902549	46	C	11/15/2021	22:03	-131.754	47.126	0	47.80	0	10.4780	0	32.2480	0	24.725	0	47.397	0	258.4	4	93.2	4	-1E+10	1	-1E+10	1	-1E+10	1	-1E+10	1	-1E+10	1	-1E+10	1
4902549	46	C	11/15/2021	22:03	-131.754	47.126	0	48.90	0	10.4770	0	32.2480	0	24.725	0	48.488	0	258.3	4	93.2	4	-1E+10	1	-1E+10	1	-1E+10	1	-1E+10	1	-1E+10	1	-1E+10	1
4902549	46	C	11/15/2021	22:03	-131.754	47.126	0	49.90	0	10.4770	0	32.2490	0	24.726	0	49.479	0	258.3	4	93.2	4	-1E+10	1	-1E+10	1	-1E+10	1	-1E+10	1	-1E+10	1	-1E+10	1
4902549	46	C	11/15/2021	22:03	-131.754	47.126	0	50.80	0	10.4740	0	32.2490	0	24.726	0	50.372	0	258.2	4	93.1	4	-1E+10	1	-1E+10	1	-1E+10	1	-1E+10	1	-1E+10	1	-1E+10	1
4902549	46	C	11/15/2021	22:03	-131.754	47.126	0	51.80	0	10.4750	0	32.2480	0	24.725	0	51.363	0	258.2	4	93.1	4	-1E+10	1	-1E+10	1	-1E+10	1	-1E+10	1	-1E+10	1	-1E+10	1
4902549	46	C	11/15/2021	22:03	-131.754	47.126	0	53.00	0	10.4740	0	32.2490	0	24.726	0	52.553	0	258.1	4	93.1	4	-1E+10	1	-1E+10	1	-1E+10	1	-1E+10	1	-1E+10	1	-1E+10	1
4902549	46	C	11/15/2021	22:03	-131.754	47.126	0	53.90	0	10.4730	0	32.2490	0	24.727	0	53.445	0	258.0	4	93.1	4	-1E+10	1	-1E+10	1	-1E+10	1	-1E+10	1	-1E+10	1	-1E+10	1
4902549	46	C	11/15/2021	22:03	-131.754	47.126	0	54.80	0	10.4740	0	32.2480	0	24.726	0	54.337	0	257.9	4	93.0	4	-1E+10	1	-1E+10	1	-1E+10	1	-1E+10	1	-1E+10	1	-1E+10	1
4902549	46	C	11/15/2021	22:03	-131.754	47.126	0	55.90	0	10.4740	0	32.2480	0	24.726	0	55.428	0	257.9	4	93.0	4	-1E+10	1	-1E+10	1	-1E+10	1	-1E+10	1	-1E+10	1	-1E+10	1
4902549	46	C	11/15/2021	22:03	-131.754	47.126	0	57.00	0	10.4740	0	32.2480	0	24.726	0	56.518	0	257.8	4	93.0	4	-1E+10	1	-1E+10	1	-1E+10	1	-1E+10	1	-1E+10	1	-1E+10	1
4902549	46	C	11/15/2021	22:03	-131.754	47.126	0	58.00	0	10.4740	0	32.2480	0	24.726	0	57.510	0	257.7	4	93.0	4	-1E+10	1	-1E+10	1	-1E+10	1	-1E+10	1	-1E+10	1	-1E+10	1
4902549	46	C	11/15/2021	22:03	-131.754	47.126	0	58.90	0	10.4690	0	32.2520	0	24.730	0	58.402	0	257.6	4	92.9	4	-1E+10	1	-1E+10	1	-1E+10	1	-1E+10	1	-1E+10	1	-1E+10	1
4902549	46	C	11/15/2021	22:03	-131.754	47.126	0	59.70	0	10.4670	0	32.2490	0	24.728	0	59.195	0	257.5	4	92.9	4	-1E+10	1	-1E+10	1	-1E+10	1	-1E+10	1	-1E+10	1	-1E+10	1
4902549	46	C	11/15/2021	22:03	-131.754	47.126	0	60.80	0	10.4640	0	32.2500	0	24.729	0	60.286	0	257.2	4	92.7	4	-1E+10	1	-1E+10	1	-1E+10	1	-1E+10	1	-1E+10	1	-1E+10	1
4902549	46	C	11/15/2021	22:03	-131.754	47.126	0	61.80	0	10.4640	0	32.2500	0	24.729	0	61.277	0	257.1	4	92.7	4	-1E+10	1	-1E+10	1	-1E+10	1	-1E+10	1	-1E+10	1	-1E+10	1
4902549	46	C	11/15/2021	22:03	-131.754	47.126	0	62.80	0	10.4640	0	32.2500	0	24.729	0	62.269	0	256.7	4	92.6	4	-1E+10	1	-1E+10	1	-1E+10	1	-1E+10	1	-1E+10	1	-1E+10	1
4902549	46	C	11/15/2021	22:03	-131.754	47.126	0	63.80	0	10.4630	0	32.2490	0	24.729	0	63.260	0	256.4	4	92.5	4	-1E+10	1	-1E+10	1	-1E+10	1	-1E+10	1	-1E+10	1	-1E+10	1
4902549	46	C	11/15/2021	22:03	-131.754	47.126	0	64.70	0	10.4360	0	32.2610	0	24.742	0	64.152	0	256.0	4	92.3	4	-1E+10	1	-1E+10	1	-1E+10	1	-1E+10	1	-1E+10	1	-1E+10	1
4902549	46	C	11/15/2021	22:03	-131.754	47.126	0	65.90	0	10.4050	0	32.2550	0	24.743	0	65.342	0	255.7	4	92.1	4	-1E+10	1	-1E+10	1	-1E+10	1	-1E+10	1	-1E+10	1	-1E+10	1
4902549	46	C	11/15/2021	22:03	-131.754	47.126	0	67.20	0	10.3860	0	32.2600	0	24.750	0	66.631	0	255.1	4	91.8	4	-1E+10	1	-1E+10	1	-1E+10	1	-1E+10	1	-1E+10	1	-1E+10	1
4902549	46	C	11/15/2021	22:03	-131.754	47.126	0	68.10	0	10.3360	0	32.2610	0	24.759	0	67.523	0	254.3	4	91.5	4	-1E+10	1	-1E+10	1	-1E+10	1	-1E+10	1	-1E+10	1	-1E+10	1
4902549	46	C	11/15/2021	22:03	-131.754	47.126	0	69.10	0	9.8310	0	32.3150	0	24.885	0	68.514	0	256.0	4	91.1	4	-1E+10	1	-1E+10	1	-1E+10	1	-1E+10	1	-1E+10	1	-1E+10	1
4902549	46	C	11/15/2021	22:03	-131.754	47.126	0	69.90	0	9.7120	0	32.3220	0	24.910	0	69.307	0	256.0	4	90.9	4	-1E+10	1	-1E+10	1	-1E+10	1	-1E+10	1	-1E+10	1	-1E+10	1
4902549	46	C	11/15/2021	22:03	-131.754	47.126	0	70.90	0	9.3830	0	32.3460	0	24.982	0	70.299	0	257.2	4	90.7	4	-1E+10	1	-1E+10	1	-1E+10	1	-1E+10	1	-1E+10	1	-1E+10	1
4902549	46	C	11/15/2021	22:03	-131.754	47.126	0	72.10	0	9.3180	0	32.3470	0	24.993	0	71.488	0	257.2	4	90.5	4	-1E+10	1	-1E+10	1	-1E+10	1	-1E+10	1	-1E+10	1	-1E+10	1
4902549	46	C	11/15/2021	22:03	-131.754	47.126	0	73.10	0	9.2080	0	32.3550	0	25.017	0	72.480	0	257.5	4	90.4	4	-1E+10	1	-1E+10	1	-1E+10	1	-1E+10	1	-1E+10	1	-1E+10	1
4902549	46	C	11/15/2021	22:03	-131.754	47.126	0	73.90	0	9.1920	0	32.3590	0	25.022	0	73.273	0	257.4	4	90.4	4	-1E+10	1	-1E+10	1	-1E+10	1	-1E+10	1	-1E+10	1	-1E+10	1
4902549	46	C	11/15/2021	22:03	-131.754	47.126	0	75.10	0	9.1090	0	32.3610	0	25.037	0	74.462	0	257.4	4	90.2	4	-1E+10	1	-1E+10	1	-1E+10	1	-1E+10	1	-1E+10	1	-1E+10	1
4902549	46	C	11/15/2021	22:03	-131.754	47.126	0	76.00	0	8.9460	0	32.3700	0	25.069	0	75.354	0	258.0	4	90.1	4	-1E+10	1	-1E+10	1	-1E+10	1	-1E+10	1	-1E+10	1	-1E+10	1
4902549	46	C	11/15/2021	22:03	-131.754	47.126	0	76.70	0	8.8350	0	32.3750	0	25.090	0	76.048	0	258.4	4	90.0	4	-1E+10	1	-1E+10	1	-1E+10	1	-1E+10	1	-1E+10	1	-1E+10	1
4902549	46	C	11/15/2021	22:03	-131.754	47.126	0	77.80	0	8.7270	0	32.3800	0	25.111	0	77.139	0	258.8	4	89.9	4	-1E+10	1	-1E+10	1	-1E+10	1	-1E+10	1	-1E+10	1	-1E+10	1
4902549	46	C	11/15/2021	22:03	-131.754	47.126	0	78.90	0	8.5470	0	32.4050	0	25.157	0	78.229	0	259.3	4	89.8	4	-1E+10	1	-1E+10	1	-1E+10	1	-1E+10	1	-1E+10	1	-1E+10	1
4902549	46	C	11/15/2021	22:03	-131.754	47.126	0	80.00	0	8.4270	0	32.4000	0	25.171	0	79.320	0	260.1	4	89.8	4	-1E+10	1	-1E+10	1	-1E+10	1	-1E+10	1	-1E+10	1	-1E+10	1
4902549	46	C	11/15/2021	22:03	-131.754	47.126	0	80.90	0	8.3590	0	32.4080	0	25.188	0	80.212	0	260.3	4	89.7	4	-1E+10	1	-1E+10	1	-1E+10	1	-1E+10	1	-1E+10	1	-1E+10	1
4902549	46	C	11/15/2021	22:03	-131.754	47.126	0	81.80	0	8.2930	0	32.4120	0	25.201	0	81.104	0	260.3	4	89.6	4	-1E+10	1	-1E+10	1	-1E+10	1	-1E+10	1	-1E+10	1	-1E+10	1
4902549	46	C	11/15/2021	22:03	-131.754	47.126	0	83.00	0	8.2590	0	32.4100	0	25.204	0	82.294	0	260.5	4	89.6	4	-1E+10	1	-1E+10	1	-1E+10	1	-1E+10	1	-1E+10	1	-1E+10	1
4902549	46	C	11/15/2021	22:03	-131.754	47.126	0	83.90	0	8.2520	0	32.4090	0	25.204	0	83.186	0	260.5	4	89.6	4	-1E+10	1	-1E+10	1	-1E+10	1	-1E+10	1	-1E+10	1	-1E+10	1
4902549	46	C	11/15/2021	22:03	-131.754	47.126	0	84.80	0	8.2200	0	32.4130	0	25.212	0	84.078	0	260.5	4	89.5	4	-1E+10	1	-1E+10	1	-1E+10	1	-1E+10	1	-1E+10	1	-1E+10	1
4902549	46	C	11/15/2021	22:03	-131.754	47.126	0	85.90	0	8.1770	0	32.4200	0	25.224	0	85.168	0	260.5	4	89.5	4	-1E+10	1	-1E+10	1	-1E+10	1	-1E+10	1	-1E+10	1	-1E+10	1
4902549	46	C	11/15/2021	22:03	-131.754	47.126	0	86.80	0	8.1300	0	32.4320	0	25.240	0	86.060	0	260.4	4	89.3	4	-1E+10	1	-1E+10	1	-1E+10	1	-1E+10	1	-1E+10	1	-1E+10	1
4902549	46	C	11/15/2021	22:03	-131.754	47.126	0	87.70	0	8.1040	0	32.4190	0	25.234	0	86.953	0	260.5	4	89.3	4	-1E+10	1	-1E+10	1	-1E+10	1	-1E+10	1	-1E+10	1	-1E+10	1
4902549	46	C	11/15/2021	22:03	-131.754	47.126	0	88.80	0	8.0990	0	32.4190	0	25.235	0	88.043	0	260.2	4	89.2	4	-1E+10	1	-1E+10	1	-1E+10	1	-1E+10	1	-1E+10	1	-1E+10	1
4902549	46	C	11/15/2021	22:03	-131.754	47.126	0	89.80	0	8.0660	0	32.4190	0	25.239	0	89.034	0	260.2	4	89.1	4	-1E+10	1	-1E+10	1	-1E+10	1	-1E+10	1	-1E+10	1	-1E+10	1
4902549	46	C	11/15/2021	22:03	-131.754	47.126	0	90.80	0	8.0500	0	32.4200	0	25.242	0	90.025	0	260.0	4	89.0	4	-1E+10	1	-1E+10	1	-1E+10	1	-1E+10	1	-1E+10	1	-1E+10	1
4902549	46	C	11/15/2021	22:03	-131.754	47.126	0	92.10	0	7.9300	0	32.4260	0	25.264	0	91.314	0	260.1	4	88.8	4	-1E+10	1	-1E+10	1	-1E+10	1	-1E+10	1	-1E+10	1	-1E+10	1
4902549	46	C	11/15/2021	22:03	-131.754	47.126	0	92.90	0	7.7170	0	32.4350	0	25.302	0	92.107	0	260.7	4	88.6	4	-1E+10	1	-1E+10	1	-1E+10	1	-1E+10	1	-1E+10	1	-1E+10	1
4902549	46	C	11/15/2021	22:03	-131.754	47.126	0	93.80	0	7.4180	0	32.4530	0	25.358	0	92.999	0	261.6	4	88.3	4	-1E+10	1	-1E+10	1	-1E+10	1	-1E+10	1	-1E+10	1	-1E+10	1
4902549	46	C	11/15/2021	22:03	-131.754	47.126	0	94.80	0	7.2740	0	32.4520	0	25.377	0	93.990	0	261.7	4	88.1	4	-1E+10	1	-1E+10	1	-1E+10	1	-1E+10	1	-1E+10	1	-1E+10	1
4902549	46	C	11/15/2021	22:03	-131.754	47.126	0	95.90	0	7.2040	0	32.4560	0	25.389	0	95.081	0	261.7	4	88.0	4	-1E+10	1	-1E+10	1	-1E+10	1	-1E+10	1	-1E+10	1	-1E+10	1
4902549	46	C	11/15/2021	22:03	-131.754	47.126	0	97.10	0	7.1350	0	32.4570	0	25.399	0	96.270	0	261.7	4	87.8	4	-1E+10	1	-1E+10	1	-1E+10	1	-1E+10	1	-1E+10	1	-1E+10	1
4902549	46	C	11/15/2021	22:03	-131.754	47.126	0	97.90	0	7.1270	0	32.4550	0	25.399	0	97.063	0	261.3	4	87.7	4	-1E+10	1	-1E+10	1	-1E+10	1	-1E+10	1	-1E+10	1	-1E+10	1
4902549	46	C	11/15/2021	22:03	-131.754	47.126	0	98.90	0	7.1150	0	32.4550	0	25.400	0	98.054	0	260.9	4	87.5	4	-1E+10	1	-1E+10	1	-1E+10	1	-1E+10	1	-1E+10	1	-1E+10	1
4902549	46	C	11/15/2021	22:03	-131.754	47.126	0	100.10	0	7.0780	0	32.4580	0	25.408	0	99.244	0	260.4	4	87.3	4	-1E+10	1	-1E+10	1	-1E+10	1	-1E+10	1	-1E+10	1	-1E+10	1
4902549	46	C	11/15/2021	22:03	-131.754	47.126	0	101.30	0	7.0250	0	32.4610	0	25.417	0	100.433	0	259.6	4	86.9	4	-1E+10	1	-1E+10	1	-1E+10	1	-1E+10	1	-1E+10	1	-1E+10	1
4902549	46	C	11/15/2021	22:03	-131.754	47.126	0	101.90	0	6.9720	0	32.4620	0	25.425	0	101.028	0	259.3	4	86.7	4	-1E+10	1	-1E+10	1	-1E+10	1	-1E+10	1	-1E+10	1	-1E+10	1
4902549	46	C	11/15/2021	22:03	-131.754	47.126	0	102.90	0	6.9400	0	32.4690	0	25.435	0	102.019	0	258.5	4	86.3	4	-1E+10	1	-1E+10	1	-1E+10	1	-1E+10	1	-1E+10	1	-1E+10	1
4902549	46	C	11/15/2021	22:03	-131.754	47.126	0	103.90	0	6.9190	0	32.4760	0	25.443	0	103.010	0	257.4	4	85.9	4	-1E+10	1	-1E+10	1	-1E+10	1	-1E+10	1	-1E+10	1	-1E+10	1
4902549	46	C	11/15/2021	22:03	-131.754	47.126	0	105.00	0	6.8960	0	32.4890	0	25.456	0	104.101	0	256.3	4	85.5	4	-1E+10	1	-1E+10	1	-1E+10	1	-1E+10	1	-1E+10	1	-1E+10	1
4902549	46	C	11/15/2021	22:03	-131.754	47.126	0	106.00	0	6.8790	0	32.4950	0	25.463	0	105.092	0	255.0	4	85.1	4	-1E+10	1	-1E+10	1	-1E+10	1	-1E+10	1	-1E+10	1	-1E+10	1
4902549	46	C	11/15/2021	22:03	-131.754	47.126	0	107.30	0	6.8540	0	32.5120	0	25.480	0	106.380	0	253.1	4	84.4	4	-1E+10	1	-1E+10	1	-1E+10	1	-1E+10	1	-1E+10	1	-1E+10	1
4902549	46	C	11/15/2021	22:03	-131.754	47.126	0	108.10	0	6.8370	0	32.5340	0	25.500	0	107.173	0	251.8	4	84.0	4	-1E+10	1	-1E+10	1	-1E+10	1	-1E+10	1	-1E+10	1	-1E+10	1
4902549	46	C	11/15/2021	22:03	-131.754	47.126	0	108.90	0	6.8400	0	32.5570	0	25.517	0	107.966	0	250.6	4	83.6	4	-1E+10	1	-1E+10	1	-1E+10	1	-1E+10	1	-1E+10	1	-1E+10	1
4902549	46	C	11/15/2021	22:03	-131.754	47.126	0	110.10	0	6.8390	0	32.5760	0	25.533	0	109.156	0	248.7	4	83.0	4	-1E+10	1	-1E+10	1	-1E+10	1	-1E+10	1	-1E+10	1	-1E+10	1
4902549	46	C	11/15/2021	22:03	-131.754	47.126	0	111.10	0	6.8340	0	32.5960	0	25.549	0	110.147	0	247.1	4	82.4	4	-1E+10	1	-1E+10	1	-1E+10	1	-1E+10	1	-1E+10	1	-1E+10	1
4902549	46	C	11/15/2021	22:03	-131.754	47.126	0	112.00	0	6.7930	0	32.6350	0	25.585	0	111.039	0	246.2	4	82.0	4	-1E+10	1	-1E+10	1	-1E+10	1	-1E+10	1	-1E+10	1	-1E+10	1
4902549	46	C	11/15/2021	22:03	-131.754	47.126	0	113.10	0	6.7380	0	32.6540	0	25.607	0	112.129	0	245.4	4	81.7	4	-1E+10	1	-1E+10	1	-1E+10	1	-1E+10	1	-1E+10	1	-1E+10	1
4902549	46	C	11/15/2021	22:03	-131.754	47.126	0	114.10	0	6.7350	0	32.6630	0	25.615	0	113.120	0	244.4	4	81.4	4	-1E+10	1	-1E+10	1	-1E+10	1	-1E+10	1	-1E+10	1	-1E+10	1
4902549	46	C	11/15/2021	22:03	-131.754	47.126	0	114.90	0	6.7340	0	32.6680	0	25.619	0	113.913	0	243.6	4	81.1	4	-1E+10	1	-1E+10	1	-1E+10	1	-1E+10	1	-1E+10	1	-1E+10	1
4902549	46	C	11/15/2021	22:03	-131.754	47.126	0	115.70	0	6.7280	0	32.6690	0	25.620	0	114.706	0	242.7	4	80.8	4	-1E+10	1	-1E+10	1	-1E+10	1	-1E+10	1	-1E+10	1	-1E+10	1
4902549	46	C	11/15/2021	22:03	-131.754	47.126	0	117.10	0	6.7280	0	32.6810	0	25.630	0	116.094	0	240.7	4	80.1	4	-1E+10	1	-1E+10	1	-1E+10	1	-1E+10	1	-1E+10	1	-1E+10	1
4902549	46	C	11/15/2021	22:03	-131.754	47.126	0	118.10	0	6.7300	0	32.7020	0	25.646	0	117.085	0	238.8	4	79.5	4	-1E+10	1	-1E+10	1	-1E+10	1	-1E+10	1	-1E+10	1	-1E+10	1
4902549	46	C	11/15/2021	22:03	-131.754	47.126	0	119.00	0	6.7190	0	32.7170	0	25.659	0	117.977	0	236.7	4	78.8	4	-1E+10	1	-1E+10	1	-1E+10	1	-1E+10	1	-1E+10	1	-1E+10	1
4902549	46	C	11/15/2021	22:03	-131.754	47.126	0	120.00	0	6.7200	0	32.7220	0	25.663	0	118.968	0	233.8	4	77.9	4	-1E+10	1	-1E+10	1	-1E+10	1	-1E+10	1	-1E+10	1	-1E+10	1
4902549	46	C	11/15/2021	22:03	-131.754	47.126	0	120.90	0	6.7540	0	32.7670	0	25.694	0	119.860	0	231.1	4	77.0	4	-1E+10	1	-1E+10	1	-1E+10	1	-1E+10	1	-1E+10	1	-1E+10	1
4902549	46	C	11/15/2021	22:03	-131.754	47.126	0	122.00	0	6.7920	0	32.8170	0	25.729	0	120.950	0	228.6	4	76.3	4	-1E+10	1	-1E+10	1	-1E+10	1	-1E+10	1	-1E+10	1	-1E+10	1
4902549	46	C	11/15/2021	22:03	-131.754	47.126	0	123.00	0	6.8220	0	32.8480	0	25.749	0	121.941	0	227.0	4	75.8	4	-1E+10	1	-1E+10	1	-1E+10	1	-1E+10	1	-1E+10	1	-1E+10	1
4902549	46	C	11/15/2021	22:03	-131.754	47.126	0	124.10	0	6.8470	0	32.8700	0	25.763	0	123.032	0	225.5	4	75.4	4	-1E+10	1	-1E+10	1	-1E+10	1	-1E+10	1	-1E+10	1	-1E+10	1
4902549	46	C	11/15/2021	22:03	-131.754	47.126	0	124.80	0	6.8700	0	32.8960	0	25.781	0	123.725	0	224.5	4	75.1	4	-1E+10	1	-1E+10	1	-1E+10	1	-1E+10	1	-1E+10	1	-1E+10	1
4902549	46	C	11/15/2021	22:03	-131.754	47.126	0	125.70	0	6.8800	0	32.9030	0	25.785	0	124.617	0	223.3	4	74.7	4	-1E+10	1	-1E+10	1	-1E+10	1	-1E+10	1	-1E+10	1	-1E+10	1
4902549	46	C	11/15/2021	22:03	-131.754	47.126	0	127.10	0	6.8970	0	32.9230	0	25.798	0	126.005	0	221.1	4	74.0	4	-1E+10	1	-1E+10	1	-1E+10	1	-1E+10	1	-1E+10	1	-1E+10	1
4902549	46	C	11/15/2021	22:03	-131.754	47.126	0	128.00	0	6.9030	0	32.9300	0	25.803	0	126.897	0	219.5	4	73.5	4	-1E+10	1	-1E+10	1	-1E+10	1	-1E+10	1	-1E+10	1	-1E+10	1
4902549	46	C	11/15/2021	22:03	-131.754	47.126	0	129.10	0	6.9230	0	32.9460	0	25.813	0	127.987	0	217.0	4	72.7	4	-1E+10	1	-1E+10	1	-1E+10	1	-1E+10	1	-1E+10	1	-1E+10	1
4902549	46	C	11/15/2021	22:03	-131.754	47.126	0	129.90	0	6.9470	0	32.9740	0	25.832	0	128.780	0	215.0	4	72.1	4	-1E+10	1	-1E+10	1	-1E+10	1	-1E+10	1	-1E+10	1	-1E+10	1
4902549	46	C	11/15/2021	22:03	-131.754	47.126	0	131.00	0	6.9770	0	33.0060	0	25.853	0	129.870	0	211.7	4	71.1	4	-1E+10	1	-1E+10	1	-1E+10	1	-1E+10	1	-1E+10	1	-1E+10	1
4902549	46	C	11/15/2021	22:03	-131.754	47.126	0	132.20	0	7.0220	0	33.0630	0	25.892	0	131.059	0	208.2	4	70.0	4	-1E+10	1	-1E+10	1	-1E+10	1	-1E+10	1	-1E+10	1	-1E+10	1
4902549	46	C	11/15/2021	22:03	-131.754	47.126	0	133.00	0	7.0490	0	33.1210	0	25.934	0	131.852	0	206.4	4	69.5	4	-1E+10	1	-1E+10	1	-1E+10	1	-1E+10	1	-1E+10	1	-1E+10	1
4902549	46	C	11/15/2021	22:03	-131.754	47.126	0	134.20	0	7.0520	0	33.1510	0	25.957	0	133.041	0	203.7	4	68.6	4	-1E+10	1	-1E+10	1	-1E+10	1	-1E+10	1	-1E+10	1	-1E+10	1
4902549	46	C	11/15/2021	22:03	-131.754	47.126	0	135.00	0	7.0580	0	33.1700	0	25.971	0	133.834	0	201.7	4	67.9	4	-1E+10	1	-1E+10	1	-1E+10	1	-1E+10	1	-1E+10	1	-1E+10	1
4902549	46	C	11/15/2021	22:03	-131.754	47.126	0	135.90	0	7.0680	0	33.1950	0	25.990	0	134.726	0	199.5	4	67.2	4	-1E+10	1	-1E+10	1	-1E+10	1	-1E+10	1	-1E+10	1	-1E+10	1
4902549	46	C	11/15/2021	22:03	-131.754	47.126	0	137.10	0	7.0840	0	33.2410	0	26.024	0	135.915	0	195.9	4	66.0	4	-1E+10	1	-1E+10	1	-1E+10	1	-1E+10	1	-1E+10	1	-1E+10	1
4902549	46	C	11/15/2021	22:03	-131.754	47.126	0	137.90	0	7.1200	0	33.3040	0	26.069	0	136.708	0	194.2	4	65.5	4	-1E+10	1	-1E+10	1	-1E+10	1	-1E+10	1	-1E+10	1	-1E+10	1
4902549	46	C	11/15/2021	22:03	-131.754	47.126	0	139.10	0	7.1750	0	33.4190	0	26.152	0	137.897	0	192.4	4	65.1	4	-1E+10	1	-1E+10	1	-1E+10	1	-1E+10	1	-1E+10	1	-1E+10	1
4902549	46	C	11/15/2021	22:03	-131.754	47.126	0	140.10	0	7.1910	0	33.4550	0	26.178	0	138.888	0	191.6	4	64.8	4	-1E+10	1	-1E+10	1	-1E+10	1	-1E+10	1	-1E+10	1	-1E+10	1
4902549	46	C	11/15/2021	22:03	-131.754	47.126	0	140.90	0	7.1960	0	33.4670	0	26.186	0	139.681	0	191.2	4	64.7	4	-1E+10	1	-1E+10	1	-1E+10	1	-1E+10	1	-1E+10	1	-1E+10	1
4902549	46	C	11/15/2021	22:03	-131.754	47.126	0	141.90	0	7.2110	0	33.4960	0	26.207	0	140.672	0	190.6	4	64.5	4	-1E+10	1	-1E+10	1	-1E+10	1	-1E+10	1	-1E+10	1	-1E+10	1
4902549	46	C	11/15/2021	22:03	-131.754	47.126	0	143.10	0	7.2190	0	33.5140	0	26.220	0	141.861	0	190.0	4	64.4	4	-1E+10	1	-1E+10	1	-1E+10	1	-1E+10	1	-1E+10	1	-1E+10	1
4902549	46	C	11/15/2021	22:03	-131.754	47.126	0	143.80	0	7.2210	0	33.5180	0	26.223	0	142.555	0	189.7	4	64.3	4	-1E+10	1	-1E+10	1	-1E+10	1	-1E+10	1	-1E+10	1	-1E+10	1
4902549	46	C	11/15/2021	22:03	-131.754	47.126	0	144.90	0	7.2240	0	33.5250	0	26.228	0	143.645	0	189.2	4	64.1	4	-1E+10	1	-1E+10	1	-1E+10	1	-1E+10	1	-1E+10	1	-1E+10	1
4902549	46	C	11/15/2021	22:03	-131.754	47.126	0	146.10	0	7.2290	0	33.5330	0	26.234	0	144.834	0	188.6	4	63.9	4	-1E+10	1	-1E+10	1	-1E+10	1	-1E+10	1	-1E+10	1	-1E+10	1
4902549	46	C	11/15/2021	22:03	-131.754	47.126	0	146.90	0	7.2340	0	33.5370	0	26.236	0	145.627	0	188.3	4	63.8	4	-1E+10	1	-1E+10	1	-1E+10	1	-1E+10	1	-1E+10	1	-1E+10	1
4902549	46	C	11/15/2021	22:03	-131.754	47.126	0	147.70	0	7.2380	0	33.5510	0	26.247	0	146.420	0	187.9	4	63.7	4	-1E+10	1	-1E+10	1	-1E+10	1	-1E+10	1	-1E+10	1	-1E+10	1
4902549	46	C	11/15/2021	22:03	-131.754	47.126	0	149.00	0	7.2430	0	33.5670	0	26.259	0	147.708	0	187.4	4	63.5	4	-1E+10	1	-1E+10	1	-1E+10	1	-1E+10	1	-1E+10	1	-1E+10	1
4902549	46	C	11/15/2021	22:03	-131.754	47.126	0	150.30	0	7.2440	0	33.5730	0	26.263	0	148.996	0	186.9	4	63.4	4	-1E+10	1	-1E+10	1	-1E+10	1	-1E+10	1	-1E+10	1	-1E+10	1
4902549	46	C	11/15/2021	22:03	-131.754	47.126	0	151.10	0	7.2450	0	33.5770	0	26.266	0	149.789	0	186.6	4	63.3	4	-1E+10	1	-1E+10	1	-1E+10	1	-1E+10	1	-1E+10	1	-1E+10	1
4902549	46	C	11/15/2021	22:03	-131.754	47.126	0	152.00	0	7.2430	0	33.5850	0	26.273	0	150.681	0	186.3	4	63.2	4	-1E+10	1	-1E+10	1	-1E+10	1	-1E+10	1	-1E+10	1	-1E+10	1
4902549	46	C	11/15/2021	22:03	-131.754	47.126	0	152.90	0	7.2420	0	33.5910	0	26.278	0	151.573	0	185.9	4	63.0	4	-1E+10	1	-1E+10	1	-1E+10	1	-1E+10	1	-1E+10	1	-1E+10	1
4902549	46	C	11/15/2021	22:03	-131.754	47.126	0	153.70	0	7.2410	0	33.5930	0	26.280	0	152.366	0	185.6	4	62.9	4	-1E+10	1	-1E+10	1	-1E+10	1	-1E+10	1	-1E+10	1	-1E+10	1
4902549	46	C	11/15/2021	22:03	-131.754	47.126	0	154.60	0	7.2400	0	33.5970	0	26.283	0	153.258	0	185.2	4	62.8	4	-1E+10	1	-1E+10	1	-1E+10	1	-1E+10	1	-1E+10	1	-1E+10	1
4902549	46	C	11/15/2021	22:03	-131.754	47.126	0	155.90	0	7.2380	0	33.6030	0	26.288	0	154.546	0	184.6	4	62.6	4	-1E+10	1	-1E+10	1	-1E+10	1	-1E+10	1	-1E+10	1	-1E+10	1
4902549	46	C	11/15/2021	22:03	-131.754	47.126	0	157.20	0	7.2300	0	33.6280	0	26.309	0	155.834	0	184.0	4	62.4	4	-1E+10	1	-1E+10	1	-1E+10	1	-1E+10	1	-1E+10	1	-1E+10	1
4902549	46	C	11/15/2021	22:03	-131.754	47.126	0	158.20	0	7.2140	0	33.6550	0	26.332	0	156.825	0	183.8	4	62.3	4	-1E+10	1	-1E+10	1	-1E+10	1	-1E+10	1	-1E+10	1	-1E+10	1
4902549	46	C	11/15/2021	22:03	-131.754	47.126	0	159.10	0	7.2060	0	33.6620	0	26.339	0	157.717	0	183.6	4	62.3	4	-1E+10	1	-1E+10	1	-1E+10	1	-1E+10	1	-1E+10	1	-1E+10	1
4902549	46	C	11/15/2021	22:03	-131.754	47.126	0	160.00	0	7.2010	0	33.6660	0	26.343	0	158.609	0	183.5	4	62.2	4	-1E+10	1	-1E+10	1	-1E+10	1	-1E+10	1	-1E+10	1	-1E+10	1
4902549	46	C	11/15/2021	22:03	-131.754	47.126	0	160.90	0	7.2000	0	33.6650	0	26.342	0	159.500	0	183.3	4	62.2	4	-1E+10	1	-1E+10	1	-1E+10	1	-1E+10	1	-1E+10	1	-1E+10	1
4902549	46	C	11/15/2021	22:03	-131.754	47.126	0	161.90	0	7.2000	0	33.6650	0	26.342	0	160.491	0	183.1	4	62.1	4	-1E+10	1	-1E+10	1	-1E+10	1	-1E+10	1	-1E+10	1	-1E+10	1
4902549	46	C	11/15/2021	22:03	-131.754	47.126	0	162.80	0	7.1980	0	33.6660	0	26.343	0	161.383	0	182.9	4	62.0	4	-1E+10	1	-1E+10	1	-1E+10	1	-1E+10	1	-1E+10	1	-1E+10	1
4902549	46	C	11/15/2021	22:03	-131.754	47.126	0	163.70	0	7.1980	0	33.6660	0	26.343	0	162.275	0	182.6	4	61.9	4	-1E+10	1	-1E+10	1	-1E+10	1	-1E+10	1	-1E+10	1	-1E+10	1
4902549	46	C	11/15/2021	22:03	-131.754	47.126	0	164.60	0	7.1950	0	33.6680	0	26.345	0	163.167	0	182.4	4	61.8	4	-1E+10	1	-1E+10	1	-1E+10	1	-1E+10	1	-1E+10	1	-1E+10	1
4902549	46	C	11/15/2021	22:03	-131.754	47.126	0	165.60	0	7.1880	0	33.6740	0	26.351	0	164.158	0	182.1	4	61.7	4	-1E+10	1	-1E+10	1	-1E+10	1	-1E+10	1	-1E+10	1	-1E+10	1
4902549	46	C	11/15/2021	22:03	-131.754	47.126	0	166.90	0	7.1800	0	33.6800	0	26.357	0	165.446	0	181.7	4	61.6	4	-1E+10	1	-1E+10	1	-1E+10	1	-1E+10	1	-1E+10	1	-1E+10	1
4902549	46	C	11/15/2021	22:03	-131.754	47.126	0	168.40	0	7.1790	0	33.6810	0	26.358	0	166.932	0	181.2	4	61.4	4	-1E+10	1	-1E+10	1	-1E+10	1	-1E+10	1	-1E+10	1	-1E+10	1
4902549	46	C	11/15/2021	22:03	-131.754	47.126	0	169.30	0	7.1790	0	33.6810	0	26.358	0	167.824	0	180.9	4	61.3	4	-1E+10	1	-1E+10	1	-1E+10	1	-1E+10	1	-1E+10	1	-1E+10	1
4902549	46	C	11/15/2021	22:03	-131.754	47.126	0	170.20	0	7.1770	0	33.6820	0	26.359	0	168.716	0	180.4	4	61.1	4	-1E+10	1	-1E+10	1	-1E+10	1	-1E+10	1	-1E+10	1	-1E+10	1
4902549	46	C	11/15/2021	22:03	-131.754	47.126	0	171.20	0	7.1740	0	33.6850	0	26.361	0	169.707	0	180.0	4	61.0	4	-1E+10	1	-1E+10	1	-1E+10	1	-1E+10	1	-1E+10	1	-1E+10	1
4902549	46	C	11/15/2021	22:03	-131.754	47.126	0	172.10	0	7.1650	0	33.6920	0	26.368	0	170.598	0	179.5	4	60.8	4	-1E+10	1	-1E+10	1	-1E+10	1	-1E+10	1	-1E+10	1	-1E+10	1
4902549	46	C	11/15/2021	22:03	-131.754	47.126	0	173.00	0	7.1580	0	33.7030	0	26.378	0	171.490	0	179.0	4	60.6	4	-1E+10	1	-1E+10	1	-1E+10	1	-1E+10	1	-1E+10	1	-1E+10	1
4902549	46	C	11/15/2021	22:03	-131.754	47.126	0	174.00	0	7.1500	0	33.7090	0	26.384	0	172.481	0	178.6	4	60.5	4	-1E+10	1	-1E+10	1	-1E+10	1	-1E+10	1	-1E+10	1	-1E+10	1
4902549	46	C	11/15/2021	22:03	-131.754	47.126	0	174.90	0	7.1370	0	33.7150	0	26.390	0	173.373	0	178.1	4	60.3	4	-1E+10	1	-1E+10	1	-1E+10	1	-1E+10	1	-1E+10	1	-1E+10	1
4902549	46	C	11/15/2021	22:03	-131.754	47.126	0	175.90	0	7.1160	0	33.7220	0	26.399	0	174.364	0	177.8	4	60.2	4	-1E+10	1	-1E+10	1	-1E+10	1	-1E+10	1	-1E+10	1	-1E+10	1
4902549	46	C	11/15/2021	22:03	-131.754	47.126	0	176.80	0	7.1160	0	33.7220	0	26.399	0	175.255	0	177.2	4	60.0	4	-1E+10	1	-1E+10	1	-1E+10	1	-1E+10	1	-1E+10	1	-1E+10	1
4902549	46	C	11/15/2021	22:03	-131.754	47.126	0	177.70	0	7.1130	0	33.7220	0	26.399	0	176.147	0	176.7	4	59.8	4	-1E+10	1	-1E+10	1	-1E+10	1	-1E+10	1	-1E+10	1	-1E+10	1
4902549	46	C	11/15/2021	22:03	-131.754	47.126	0	178.70	0	7.0990	0	33.7270	0	26.405	0	177.138	0	176.1	4	59.6	4	-1E+10	1	-1E+10	1	-1E+10	1	-1E+10	1	-1E+10	1	-1E+10	1
4902549	46	C	11/15/2021	22:03	-131.754	47.126	0	179.60	0	7.0500	0	33.7370	0	26.420	0	178.030	0	175.8	4	59.4	4	-1E+10	1	-1E+10	1	-1E+10	1	-1E+10	1	-1E+10	1	-1E+10	1
4902549	46	C	11/15/2021	22:03	-131.754	47.126	0	180.60	0	7.0400	0	33.7390	0	26.422	0	179.021	0	175.4	4	59.3	4	-1E+10	1	-1E+10	1	-1E+10	1	-1E+10	1	-1E+10	1	-1E+10	1
4902549	46	C	11/15/2021	22:03	-131.754	47.126	0	181.60	0	7.0280	0	33.7410	0	26.426	0	180.011	0	174.9	4	59.1	4	-1E+10	1	-1E+10	1	-1E+10	1	-1E+10	1	-1E+10	1	-1E+10	1
4902549	46	C	11/15/2021	22:03	-131.754	47.126	0	182.50	0	7.0070	0	33.7460	0	26.433	0	180.903	0	174.6	4	59.0	4	-1E+10	1	-1E+10	1	-1E+10	1	-1E+10	1	-1E+10	1	-1E+10	1
4902549	46	C	11/15/2021	22:03	-131.754	47.126	0	183.90	0	6.9960	0	33.7470	0	26.435	0	182.290	0	173.9	4	58.7	4	-1E+10	1	-1E+10	1	-1E+10	1	-1E+10	1	-1E+10	1	-1E+10	1
4902549	46	C	11/15/2021	22:03	-131.754	47.126	0	185.40	0	6.9750	0	33.7490	0	26.439	0	183.776	0	173.1	4	58.4	4	-1E+10	1	-1E+10	1	-1E+10	1	-1E+10	1	-1E+10	1	-1E+10	1
4902549	46	C	11/15/2021	22:03	-131.754	47.126	0	186.30	0	6.9580	0	33.7520	0	26.444	0	184.668	0	172.6	4	58.2	4	-1E+10	1	-1E+10	1	-1E+10	1	-1E+10	1	-1E+10	1	-1E+10	1
4902549	46	C	11/15/2021	22:03	-131.754	47.126	0	187.30	0	6.9380	0	33.7530	0	26.447	0	185.659	0	172.0	4	58.0	4	-1E+10	1	-1E+10	1	-1E+10	1	-1E+10	1	-1E+10	1	-1E+10	1
4902549	46	C	11/15/2021	22:03	-131.754	47.126	0	188.20	0	6.9320	0	33.7540	0	26.449	0	186.551	0	171.5	4	57.8	4	-1E+10	1	-1E+10	1	-1E+10	1	-1E+10	1	-1E+10	1	-1E+10	1
4902549	46	C	11/15/2021	22:03	-131.754	47.126	0	189.20	0	6.8970	0	33.7580	0	26.457	0	187.541	0	170.9	4	57.6	4	-1E+10	1	-1E+10	1	-1E+10	1	-1E+10	1	-1E+10	1	-1E+10	1
4902549	46	C	11/15/2021	22:03	-131.754	47.126	0	190.20	0	6.8580	0	33.7620	0	26.465	0	188.532	0	170.6	4	57.4	4	-1E+10	1	-1E+10	1	-1E+10	1	-1E+10	1	-1E+10	1	-1E+10	1
4902549	46	C	11/15/2021	22:03	-131.754	47.126	0	191.10	0	6.8540	0	33.7610	0	26.465	0	189.424	0	170.1	4	57.3	4	-1E+10	1	-1E+10	1	-1E+10	1	-1E+10	1	-1E+10	1	-1E+10	1
4902549	46	C	11/15/2021	22:03	-131.754	47.126	0	192.10	0	6.8500	0	33.7610	0	26.466	0	190.415	0	169.6	4	57.1	4	-1E+10	1	-1E+10	1	-1E+10	1	-1E+10	1	-1E+10	1	-1E+10	1
4902549	46	C	11/15/2021	22:03	-131.754	47.126	0	193.00	0	6.8260	0	33.7630	0	26.470	0	191.306	0	169.1	4	56.9	4	-1E+10	1	-1E+10	1	-1E+10	1	-1E+10	1	-1E+10	1	-1E+10	1
4902549	46	C	11/15/2021	22:03	-131.754	47.126	0	194.00	0	6.8100	0	33.7610	0	26.471	0	192.297	0	168.5	4	56.6	4	-1E+10	1	-1E+10	1	-1E+10	1	-1E+10	1	-1E+10	1	-1E+10	1
4902549	46	C	11/15/2021	22:03	-131.754	47.126	0	194.90	0	6.7950	0	33.7660	0	26.477	0	193.189	0	168.0	4	56.5	4	-1E+10	1	-1E+10	1	-1E+10	1	-1E+10	1	-1E+10	1	-1E+10	1
4902549	46	C	11/15/2021	22:03	-131.754	47.126	0	195.90	0	6.7680	0	33.7660	0	26.481	0	194.180	0	167.5	4	56.3	4	-1E+10	1	-1E+10	1	-1E+10	1	-1E+10	1	-1E+10	1	-1E+10	1
4902549	46	C	11/15/2021	22:03	-131.754	47.126	0	196.80	0	6.7600	0	33.7670	0	26.483	0	195.071	0	166.9	4	56.1	4	-1E+10	1	-1E+10	1	-1E+10	1	-1E+10	1	-1E+10	1	-1E+10	1
4902549	46	C	11/15/2021	22:03	-131.754	47.126	0	197.70	0	6.7280	0	33.7700	0	26.489	0	195.963	0	166.5	4	55.9	4	-1E+10	1	-1E+10	1	-1E+10	1	-1E+10	1	-1E+10	1	-1E+10	1
4902549	46	C	11/15/2021	22:03	-131.754	47.126	0	198.70	0	6.7180	0	33.7690	0	26.490	0	196.954	0	166.0	4	55.7	4	-1E+10	1	-1E+10	1	-1E+10	1	-1E+10	1	-1E+10	1	-1E+10	1
4902549	46	C	11/15/2021	22:03	-131.754	47.126	0	199.60	0	6.7110	0	33.7700	0	26.491	0	197.845	0	165.3	4	55.5	4	-1E+10	1	-1E+10	1	-1E+10	1	-1E+10	1	-1E+10	1	-1E+10	1
4902549	46	C	11/15/2021	22:03	-131.754	47.126	0	200.60	0	6.6970	0	33.7690	0	26.493	0	198.836	0	164.7	4	55.2	4	-1E+10	1	-1E+10	1	-1E+10	1	-1E+10	1	-1E+10	1	-1E+10	1
4902549	46	C	11/15/2021	22:03	-131.754	47.126	0	201.50	0	6.6820	0	33.7700	0	26.495	0	199.728	0	164.0	4	55.0	4	-1E+10	1	-1E+10	1	-1E+10	1	-1E+10	1	-1E+10	1	-1E+10	1
4902549	46	C	11/15/2021	22:03	-131.754	47.126	0	202.90	0	6.6590	0	33.7710	0	26.499	0	201.115	0	162.9	4	54.6	4	-1E+10	1	-1E+10	1	-1E+10	1	-1E+10	1	-1E+10	1	-1E+10	1
4902549	46	C	11/15/2021	22:03	-131.754	47.126	0	204.40	0	6.6660	0	33.7770	0	26.503	0	202.601	0	161.8	4	54.2	4	-1E+10	1	-1E+10	1	-1E+10	1	-1E+10	1	-1E+10	1	-1E+10	1
4902549	46	C	11/15/2021	22:03	-131.754	47.126	0	205.40	0	6.6640	0	33.7780	0	26.504	0	203.591	0	161.1	4	54.0	4	-1E+10	1	-1E+10	1	-1E+10	1	-1E+10	1	-1E+10	1	-1E+10	1
4902549	46	C	11/15/2021	22:03	-131.754	47.126	0	206.30	0	6.6560	0	33.7780	0	26.505	0	204.483	0	160.2	4	53.7	4	-1E+10	1	-1E+10	1	-1E+10	1	-1E+10	1	-1E+10	1	-1E+10	1
4902549	46	C	11/15/2021	22:03	-131.754	47.126	0	207.30	0	6.6480	0	33.7780	0	26.506	0	205.474	0	159.4	4	53.4	4	-1E+10	1	-1E+10	1	-1E+10	1	-1E+10	1	-1E+10	1	-1E+10	1
4902549	46	C	11/15/2021	22:03	-131.754	47.126	0	208.20	0	6.6150	0	33.7820	0	26.514	0	206.365	0	158.6	4	53.1	4	-1E+10	1	-1E+10	1	-1E+10	1	-1E+10	1	-1E+10	1	-1E+10	1
4902549	46	C	11/15/2021	22:03	-131.754	47.126	0	209.20	0	6.6010	0	33.7820	0	26.516	0	207.356	0	157.9	4	52.8	4	-1E+10	1	-1E+10	1	-1E+10	1	-1E+10	1	-1E+10	1	-1E+10	1
4902549	46	C	11/15/2021	22:03	-131.754	47.126	0	210.10	0	6.5650	0	33.7860	0	26.523	0	208.248	0	157.3	4	52.6	4	-1E+10	1	-1E+10	1	-1E+10	1	-1E+10	1	-1E+10	1	-1E+10	1
4902549	46	C	11/15/2021	22:03	-131.754	47.126	0	211.10	0	6.5420	0	33.7870	0	26.527	0	209.238	0	156.7	4	52.4	4	-1E+10	1	-1E+10	1	-1E+10	1	-1E+10	1	-1E+10	1	-1E+10	1
4902549	46	C	11/15/2021	22:03	-131.754	47.126	0	212.10	0	6.5240	0	33.7890	0	26.531	0	210.229	0	156.2	4	52.2	4	-1E+10	1	-1E+10	1	-1E+10	1	-1E+10	1	-1E+10	1	-1E+10	1
4902549	46	C	11/15/2021	22:03	-131.754	47.126	0	213.00	0	6.5180	0	33.7880	0	26.531	0	211.121	0	155.7	4	52.0	4	-1E+10	1	-1E+10	1	-1E+10	1	-1E+10	1	-1E+10	1	-1E+10	1
4902549	46	C	11/15/2021	22:03	-131.754	47.126	0	214.00	0	6.5110	0	33.7890	0	26.533	0	212.111	0	155.1	4	51.8	4	-1E+10	1	-1E+10	1	-1E+10	1	-1E+10	1	-1E+10	1	-1E+10	1
4902549	46	C	11/15/2021	22:03	-131.754	47.126	0	215.10	0	6.4930	0	33.7910	0	26.537	0	213.201	0	154.6	4	51.6	4	-1E+10	1	-1E+10	1	-1E+10	1	-1E+10	1	-1E+10	1	-1E+10	1
4902549	46	C	11/15/2021	22:03	-131.754	47.126	0	216.10	0	6.4780	0	33.7920	0	26.540	0	214.192	0	154.1	4	51.4	4	-1E+10	1	-1E+10	1	-1E+10	1	-1E+10	1	-1E+10	1	-1E+10	1
4902549	46	C	11/15/2021	22:03	-131.754	47.126	0	217.00	0	6.4760	0	33.7930	0	26.541	0	215.083	0	153.5	4	51.2	4	-1E+10	1	-1E+10	1	-1E+10	1	-1E+10	1	-1E+10	1	-1E+10	1
4902549	46	C	11/15/2021	22:03	-131.754	47.126	0	218.10	0	6.4730	0	33.7930	0	26.541	0	216.173	0	152.8	4	51.0	4	-1E+10	1	-1E+10	1	-1E+10	1	-1E+10	1	-1E+10	1	-1E+10	1
4902549	46	C	11/15/2021	22:03	-131.754	47.126	0	219.10	0	6.4710	0	33.7930	0	26.541	0	217.164	0	152.0	4	50.7	4	-1E+10	1	-1E+10	1	-1E+10	1	-1E+10	1	-1E+10	1	-1E+10	1
4902549	46	C	11/15/2021	22:03	-131.754	47.126	0	220.10	0	6.4710	0	33.7920	0	26.541	0	218.154	0	151.2	4	50.4	4	-1E+10	1	-1E+10	1	-1E+10	1	-1E+10	1	-1E+10	1	-1E+10	1
4902549	46	C	11/15/2021	22:03	-131.754	47.126	0	221.10	0	6.4690	0	33.7920	0	26.541	0	219.145	0	150.2	4	50.1	4	-1E+10	1	-1E+10	1	-1E+10	1	-1E+10	1	-1E+10	1	-1E+10	1
4902549	46	C	11/15/2021	22:03	-131.754	47.126	0	222.10	0	6.4140	0	33.8020	0	26.556	0	220.136	0	149.7	4	49.9	4	-1E+10	1	-1E+10	1	-1E+10	1	-1E+10	1	-1E+10	1	-1E+10	1
4902549	46	C	11/15/2021	22:03	-131.754	47.126	0	223.10	0	6.4050	0	33.8020	0	26.557	0	221.126	0	149.2	4	49.7	4	-1E+10	1	-1E+10	1	-1E+10	1	-1E+10	1	-1E+10	1	-1E+10	1
4902549	46	C	11/15/2021	22:03	-131.754	47.126	0	224.10	0	6.3970	0	33.8070	0	26.562	0	222.117	0	148.7	4	49.5	4	-1E+10	1	-1E+10	1	-1E+10	1	-1E+10	1	-1E+10	1	-1E+10	1
4902549	46	C	11/15/2021	22:03	-131.754	47.126	0	225.10	0	6.3890	0	33.8080	0	26.564	0	223.107	0	148.2	4	49.4	4	-1E+10	1	-1E+10	1	-1E+10	1	-1E+10	1	-1E+10	1	-1E+10	1
4902549	46	C	11/15/2021	22:03	-131.754	47.126	0	226.10	0	6.3810	0	33.8070	0	26.564	0	224.098	0	147.7	4	49.2	4	-1E+10	1	-1E+10	1	-1E+10	1	-1E+10	1	-1E+10	1	-1E+10	1
4902549	46	C	11/15/2021	22:03	-131.754	47.126	0	227.10	0	6.3630	0	33.8110	0	26.570	0	225.089	0	147.3	4	49.0	4	-1E+10	1	-1E+10	1	-1E+10	1	-1E+10	1	-1E+10	1	-1E+10	1
4902549	46	C	11/15/2021	22:03	-131.754	47.126	0	228.10	0	6.3550	0	33.8100	0	26.570	0	226.079	0	146.8	4	48.9	4	-1E+10	1	-1E+10	1	-1E+10	1	-1E+10	1	-1E+10	1	-1E+10	1
4902549	46	C	11/15/2021	22:03	-131.754	47.126	0	229.20	0	6.3560	0	33.8110	0	26.571	0	227.169	0	146.4	4	48.7	4	-1E+10	1	-1E+10	1	-1E+10	1	-1E+10	1	-1E+10	1	-1E+10	1
4902549	46	C	11/15/2021	22:03	-131.754	47.126	0	230.20	0	6.3530	0	33.8120	0	26.572	0	228.159	0	145.9	4	48.6	4	-1E+10	1	-1E+10	1	-1E+10	1	-1E+10	1	-1E+10	1	-1E+10	1
4902549	46	C	11/15/2021	22:03	-131.754	47.126	0	231.20	0	6.3500	0	33.8120	0	26.572	0	229.150	0	145.4	4	48.4	4	-1E+10	1	-1E+10	1	-1E+10	1	-1E+10	1	-1E+10	1	-1E+10	1
4902549	46	C	11/15/2021	22:03	-131.754	47.126	0	232.30	0	6.3490	0	33.8130	0	26.573	0	230.240	0	144.9	4	48.2	4	-1E+10	1	-1E+10	1	-1E+10	1	-1E+10	1	-1E+10	1	-1E+10	1
4902549	46	C	11/15/2021	22:03	-131.754	47.126	0	233.30	0	6.3480	0	33.8130	0	26.573	0	231.230	0	144.2	4	48.0	4	-1E+10	1	-1E+10	1	-1E+10	1	-1E+10	1	-1E+10	1	-1E+10	1
4902549	46	C	11/15/2021	22:03	-131.754	47.126	0	234.40	0	6.3460	0	33.8140	0	26.574	0	232.320	0	143.5	4	47.8	4	-1E+10	1	-1E+10	1	-1E+10	1	-1E+10	1	-1E+10	1	-1E+10	1
4902549	46	C	11/15/2021	22:03	-131.754	47.126	0	235.40	0	6.3410	0	33.8160	0	26.577	0	233.310	0	142.8	4	47.5	4	-1E+10	1	-1E+10	1	-1E+10	1	-1E+10	1	-1E+10	1	-1E+10	1
4902549	46	C	11/15/2021	22:03	-131.754	47.126	0	236.40	0	6.3340	0	33.8180	0	26.579	0	234.301	0	142.1	4	47.3	4	-1E+10	1	-1E+10	1	-1E+10	1	-1E+10	1	-1E+10	1	-1E+10	1
4902549	46	C	11/15/2021	22:03	-131.754	47.126	0	237.40	0	6.3250	0	33.8210	0	26.583	0	235.292	0	141.3	4	47.0	4	-1E+10	1	-1E+10	1	-1E+10	1	-1E+10	1	-1E+10	1	-1E+10	1
4902549	46	C	11/15/2021	22:03	-131.754	47.126	0	238.50	0	6.3150	0	33.8220	0	26.585	0	236.381	0	140.6	4	46.8	4	-1E+10	1	-1E+10	1	-1E+10	1	-1E+10	1	-1E+10	1	-1E+10	1
4902549	46	C	11/15/2021	22:03	-131.754	47.126	0	239.60	0	6.2970	0	33.8220	0	26.587	0	237.471	0	139.9	4	46.5	4	-1E+10	1	-1E+10	1	-1E+10	1	-1E+10	1	-1E+10	1	-1E+10	1
4902549	46	C	11/15/2021	22:03	-131.754	47.126	0	240.60	0	6.2710	0	33.8270	0	26.594	0	238.461	0	139.4	4	46.3	4	-1E+10	1	-1E+10	1	-1E+10	1	-1E+10	1	-1E+10	1	-1E+10	1
4902549	46	C	11/15/2021	22:03	-131.754	47.126	0	241.60	0	6.2690	0	33.8250	0	26.593	0	239.452	0	138.8	4	46.1	4	-1E+10	1	-1E+10	1	-1E+10	1	-1E+10	1	-1E+10	1	-1E+10	1
4902549	46	C	11/15/2021	22:03	-131.754	47.126	0	242.70	0	6.2680	0	33.8250	0	26.593	0	240.541	0	138.1	4	45.9	4	-1E+10	1	-1E+10	1	-1E+10	1	-1E+10	1	-1E+10	1	-1E+10	1
4902549	46	C	11/15/2021	22:03	-131.754	47.126	0	243.70	0	6.2360	0	33.8270	0	26.599	0	241.532	0	137.4	4	45.6	4	-1E+10	1	-1E+10	1	-1E+10	1	-1E+10	1	-1E+10	1	-1E+10	1
4902549	46	C	11/15/2021	22:03	-131.754	47.126	0	244.60	0	6.1830	0	33.8260	0	26.605	0	242.423	0	137.1	4	45.4	4	-1E+10	1	-1E+10	1	-1E+10	1	-1E+10	1	-1E+10	1	-1E+10	1
4902549	46	C	11/15/2021	22:03	-131.754	47.126	0	245.80	0	6.1460	0	33.8230	0	26.607	0	243.612	0	136.6	4	45.3	4	-1E+10	1	-1E+10	1	-1E+10	1	-1E+10	1	-1E+10	1	-1E+10	1
4902549	46	C	11/15/2021	22:03	-131.754	47.126	0	246.90	0	6.1120	0	33.8240	0	26.612	0	244.702	0	136.2	4	45.1	4	-1E+10	1	-1E+10	1	-1E+10	1	-1E+10	1	-1E+10	1	-1E+10	1
4902549	46	C	11/15/2021	22:03	-131.754	47.126	0	248.10	0	6.1070	0	33.8240	0	26.613	0	245.890	0	135.7	4	44.9	4	-1E+10	1	-1E+10	1	-1E+10	1	-1E+10	1	-1E+10	1	-1E+10	1
4902549	46	C	11/15/2021	22:03	-131.754	47.126	0	248.90	0	6.1050	0	33.8250	0	26.614	0	246.683	0	135.4	4	44.8	4	-1E+10	1	-1E+10	1	-1E+10	1	-1E+10	1	-1E+10	1	-1E+10	1
4902549	46	C	11/15/2021	22:03	-131.754	47.126	0	249.70	0	6.1020	0	33.8250	0	26.614	0	247.475	0	135.0	4	44.7	4	-1E+10	1	-1E+10	1	-1E+10	1	-1E+10	1	-1E+10	1	-1E+10	1
4902549	46	C	11/15/2021	22:03	-131.754	47.126	0	250.90	0	6.0980	0	33.8240	0	26.614	0	248.664	0	134.3	4	44.4	4	-1E+10	1	-1E+10	1	-1E+10	1	-1E+10	1	-1E+10	1	-1E+10	1
4902549	46	C	11/15/2021	22:03	-131.754	47.126	0	252.10	0	6.0800	0	33.8310	0	26.622	0	249.852	0	133.8	4	44.3	4	-1E+10	1	-1E+10	1	-1E+10	1	-1E+10	1	-1E+10	1	-1E+10	1
4902549	46	C	11/15/2021	22:03	-131.754	47.126	0	253.00	0	6.0800	0	33.8310	0	26.622	0	250.744	0	133.4	4	44.1	4	-1E+10	1	-1E+10	1	-1E+10	1	-1E+10	1	-1E+10	1	-1E+10	1
4902549	46	C	11/15/2021	22:03	-131.754	47.126	0	253.80	0	6.0800	0	33.8310	0	26.622	0	251.536	0	133.0	4	44.0	4	-1E+10	1	-1E+10	1	-1E+10	1	-1E+10	1	-1E+10	1	-1E+10	1
4902549	46	C	11/15/2021	22:03	-131.754	47.126	0	255.00	0	6.0790	0	33.8310	0	26.622	0	252.724	0	132.3	4	43.8	4	-1E+10	1	-1E+10	1	-1E+10	1	-1E+10	1	-1E+10	1	-1E+10	1
4902549	46	C	11/15/2021	22:03	-131.754	47.126	0	256.20	0	6.0770	0	33.8320	0	26.623	0	253.913	0	131.5	4	43.5	4	-1E+10	1	-1E+10	1	-1E+10	1	-1E+10	1	-1E+10	1	-1E+10	1
4902549	46	C	11/15/2021	22:03	-131.754	47.126	0	257.00	0	6.0740	0	33.8340	0	26.625	0	254.705	0	131.0	4	43.3	4	-1E+10	1	-1E+10	1	-1E+10	1	-1E+10	1	-1E+10	1	-1E+10	1
4902549	46	C	11/15/2021	22:03	-131.754	47.126	0	257.80	0	6.0710	0	33.8390	0	26.629	0	255.498	0	130.6	4	43.2	4	-1E+10	1	-1E+10	1	-1E+10	1	-1E+10	1	-1E+10	1	-1E+10	1
4902549	46	C	11/15/2021	22:03	-131.754	47.126	0	258.60	0	6.0640	0	33.8410	0	26.632	0	256.290	0	130.2	4	43.1	4	-1E+10	1	-1E+10	1	-1E+10	1	-1E+10	1	-1E+10	1	-1E+10	1
4902549	46	C	11/15/2021	22:03	-131.754	47.126	0	259.90	0	6.0490	0	33.8390	0	26.632	0	257.578	0	129.6	4	42.8	4	-1E+10	1	-1E+10	1	-1E+10	1	-1E+10	1	-1E+10	1	-1E+10	1
4902549	46	C	11/15/2021	22:03	-131.754	47.126	0	261.10	0	6.0350	0	33.8400	0	26.635	0	258.766	0	128.9	4	42.6	4	-1E+10	1	-1E+10	1	-1E+10	1	-1E+10	1	-1E+10	1	-1E+10	1
4902549	46	C	11/15/2021	22:03	-131.754	47.126	0	261.90	0	6.0290	0	33.8390	0	26.635	0	259.559	0	128.4	4	42.4	4	-1E+10	1	-1E+10	1	-1E+10	1	-1E+10	1	-1E+10	1	-1E+10	1
4902549	46	C	11/15/2021	22:03	-131.754	47.126	0	262.70	0	6.0120	0	33.8410	0	26.638	0	260.351	0	127.9	4	42.2	4	-1E+10	1	-1E+10	1	-1E+10	1	-1E+10	1	-1E+10	1	-1E+10	1
4902549	46	C	11/15/2021	22:03	-131.754	47.126	0	264.00	0	5.9980	0	33.8380	0	26.638	0	261.638	0	127.1	4	42.0	4	-1E+10	1	-1E+10	1	-1E+10	1	-1E+10	1	-1E+10	1	-1E+10	1
4902549	46	C	11/15/2021	22:03	-131.754	47.126	0	265.20	0	5.9580	0	33.8380	0	26.643	0	262.827	0	126.5	4	41.7	4	-1E+10	1	-1E+10	1	-1E+10	1	-1E+10	1	-1E+10	1	-1E+10	1
4902549	46	C	11/15/2021	22:03	-131.754	47.126	0	266.00	0	5.9350	0	33.8360	0	26.644	0	263.619	0	126.0	4	41.5	4	-1E+10	1	-1E+10	1	-1E+10	1	-1E+10	1	-1E+10	1	-1E+10	1
4902549	46	C	11/15/2021	22:03	-131.754	47.126	0	266.90	0	5.9050	0	33.8350	0	26.647	0	264.511	0	125.6	4	41.4	4	-1E+10	1	-1E+10	1	-1E+10	1	-1E+10	1	-1E+10	1	-1E+10	1
4902549	46	C	11/15/2021	22:03	-131.754	47.126	0	267.70	0	5.8750	0	33.8310	0	26.647	0	265.303	0	125.1	4	41.2	4	-1E+10	1	-1E+10	1	-1E+10	1	-1E+10	1	-1E+10	1	-1E+10	1
4902549	46	C	11/15/2021	22:03	-131.754	47.126	0	268.90	0	5.8850	0	33.8370	0	26.651	0	266.491	0	124.1	4	40.9	4	-1E+10	1	-1E+10	1	-1E+10	1	-1E+10	1	-1E+10	1	-1E+10	1
4902549	46	C	11/15/2021	22:03	-131.754	47.126	0	270.10	0	5.8570	0	33.8330	0	26.651	0	267.680	0	123.4	4	40.6	4	-1E+10	1	-1E+10	1	-1E+10	1	-1E+10	1	-1E+10	1	-1E+10	1
4902549	46	C	11/15/2021	22:03	-131.754	47.126	0	271.00	0	5.8420	0	33.8380	0	26.657	0	268.571	0	122.8	4	40.4	4	-1E+10	1	-1E+10	1	-1E+10	1	-1E+10	1	-1E+10	1	-1E+10	1
4902549	46	C	11/15/2021	22:03	-131.754	47.126	0	271.80	0	5.8350	0	33.8370	0	26.657	0	269.364	0	122.3	4	40.2	4	-1E+10	1	-1E+10	1	-1E+10	1	-1E+10	1	-1E+10	1	-1E+10	1
4902549	46	C	11/15/2021	22:03	-131.754	47.126	0	272.60	0	5.8320	0	33.8380	0	26.658	0	270.156	0	121.7	4	40.0	4	-1E+10	1	-1E+10	1	-1E+10	1	-1E+10	1	-1E+10	1	-1E+10	1
4902549	46	C	11/15/2021	22:03	-131.754	47.126	0	273.90	0	5.8020	0	33.8400	0	26.664	0	271.443	0	120.9	4	39.7	4	-1E+10	1	-1E+10	1	-1E+10	1	-1E+10	1	-1E+10	1	-1E+10	1
4902549	46	C	11/15/2021	22:03	-131.754	47.126	0	275.10	0	5.7850	0	33.8390	0	26.665	0	272.632	0	120.1	4	39.5	4	-1E+10	1	-1E+10	1	-1E+10	1	-1E+10	1	-1E+10	1	-1E+10	1
4902549	46	C	11/15/2021	22:03	-131.754	47.126	0	275.90	0	5.7770	0	33.8400	0	26.667	0	273.424	0	119.6	4	39.3	4	-1E+10	1	-1E+10	1	-1E+10	1	-1E+10	1	-1E+10	1	-1E+10	1
4902549	46	C	11/15/2021	22:03	-131.754	47.126	0	276.80	0	5.7510	0	33.8380	0	26.668	0	274.315	0	119.0	4	39.1	4	-1E+10	1	-1E+10	1	-1E+10	1	-1E+10	1	-1E+10	1	-1E+10	1
4902549	46	C	11/15/2021	22:03	-131.754	47.126	0	278.00	0	5.7300	0	33.8370	0	26.670	0	275.504	0	118.1	4	38.8	4	-1E+10	1	-1E+10	1	-1E+10	1	-1E+10	1	-1E+10	1	-1E+10	1
4902549	46	C	11/15/2021	22:03	-131.754	47.126	0	279.30	0	5.7150	0	33.8390	0	26.673	0	276.791	0	117.3	4	38.5	4	-1E+10	1	-1E+10	1	-1E+10	1	-1E+10	1	-1E+10	1	-1E+10	1
4902549	46	C	11/15/2021	22:03	-131.754	47.126	0	280.10	0	5.6870	0	33.8450	0	26.682	0	277.584	0	116.7	4	38.3	4	-1E+10	1	-1E+10	1	-1E+10	1	-1E+10	1	-1E+10	1	-1E+10	1
4902549	46	C	11/15/2021	22:03	-131.754	47.126	0	281.00	0	5.6590	0	33.8390	0	26.680	0	278.475	0	116.3	4	38.1	4	-1E+10	1	-1E+10	1	-1E+10	1	-1E+10	1	-1E+10	1	-1E+10	1
4902549	46	C	11/15/2021	22:03	-131.754	47.126	0	281.80	0	5.6480	0	33.8380	0	26.681	0	279.267	0	115.8	4	37.9	4	-1E+10	1	-1E+10	1	-1E+10	1	-1E+10	1	-1E+10	1	-1E+10	1
4902549	46	C	11/15/2021	22:03	-131.754	47.126	0	282.70	0	5.6250	0	33.8400	0	26.685	0	280.159	0	115.3	4	37.7	4	-1E+10	1	-1E+10	1	-1E+10	1	-1E+10	1	-1E+10	1	-1E+10	1
4902549	46	C	11/15/2021	22:03	-131.754	47.126	0	283.90	0	5.6340	0	33.8440	0	26.687	0	281.347	0	114.5	4	37.5	4	-1E+10	1	-1E+10	1	-1E+10	1	-1E+10	1	-1E+10	1	-1E+10	1
4902549	46	C	11/15/2021	22:03	-131.754	47.126	0	285.20	0	5.6240	0	33.8510	0	26.694	0	282.634	0	113.7	4	37.2	4	-1E+10	1	-1E+10	1	-1E+10	1	-1E+10	1	-1E+10	1	-1E+10	1
4902549	46	C	11/15/2021	22:03	-131.754	47.126	0	286.10	0	5.5800	0	33.8430	0	26.693	0	283.526	0	113.4	4	37.1	4	-1E+10	1	-1E+10	1	-1E+10	1	-1E+10	1	-1E+10	1	-1E+10	1
4902549	46	C	11/15/2021	22:03	-131.754	47.126	0	286.90	0	5.5700	0	33.8420	0	26.693	0	284.318	0	112.9	4	36.9	4	-1E+10	1	-1E+10	1	-1E+10	1	-1E+10	1	-1E+10	1	-1E+10	1
4902549	46	C	11/15/2021	22:03	-131.754	47.126	0	287.80	0	5.5350	0	33.8440	0	26.699	0	285.209	0	112.6	4	36.8	4	-1E+10	1	-1E+10	1	-1E+10	1	-1E+10	1	-1E+10	1	-1E+10	1
4902549	46	C	11/15/2021	22:03	-131.754	47.126	0	288.60	0	5.5250	0	33.8440	0	26.700	0	286.001	0	112.2	4	36.6	4	-1E+10	1	-1E+10	1	-1E+10	1	-1E+10	1	-1E+10	1	-1E+10	1
4902549	46	C	11/15/2021	22:03	-131.754	47.126	0	289.90	0	5.5070	0	33.8450	0	26.703	0	287.289	0	111.7	4	36.5	4	-1E+10	1	-1E+10	1	-1E+10	1	-1E+10	1	-1E+10	1	-1E+10	1
4902549	46	C	11/15/2021	22:03	-131.754	47.126	0	291.20	0	5.4790	0	33.8430	0	26.705	0	288.576	0	111.2	4	36.3	4	-1E+10	1	-1E+10	1	-1E+10	1	-1E+10	1	-1E+10	1	-1E+10	1
4902549	46	C	11/15/2021	22:03	-131.754	47.126	0	292.10	0	5.4780	0	33.8420	0	26.704	0	289.467	0	110.8	4	36.1	4	-1E+10	1	-1E+10	1	-1E+10	1	-1E+10	1	-1E+10	1	-1E+10	1
4902549	46	C	11/15/2021	22:03	-131.754	47.126	0	292.90	0	5.4730	0	33.8410	0	26.704	0	290.260	0	110.3	4	36.0	4	-1E+10	1	-1E+10	1	-1E+10	1	-1E+10	1	-1E+10	1	-1E+10	1
4902549	46	C	11/15/2021	22:03	-131.754	47.126	0	293.80	0	5.4620	0	33.8400	0	26.705	0	291.151	0	109.9	4	35.8	4	-1E+10	1	-1E+10	1	-1E+10	1	-1E+10	1	-1E+10	1	-1E+10	1
4902549	46	C	11/15/2021	22:03	-131.754	47.126	0	294.60	0	5.4500	0	33.8420	0	26.708	0	291.943	0	109.4	4	35.7	4	-1E+10	1	-1E+10	1	-1E+10	1	-1E+10	1	-1E+10	1	-1E+10	1
4902549	46	C	11/15/2021	22:03	-131.754	47.126	0	295.90	0	5.4340	0	33.8400	0	26.708	0	293.231	0	108.6	4	35.4	4	-1E+10	1	-1E+10	1	-1E+10	1	-1E+10	1	-1E+10	1	-1E+10	1
4902549	46	C	11/15/2021	22:03	-131.754	47.126	0	297.20	0	5.4040	0	33.8380	0	26.710	0	294.518	0	107.9	4	35.1	4	-1E+10	1	-1E+10	1	-1E+10	1	-1E+10	1	-1E+10	1	-1E+10	1
4902549	46	C	11/15/2021	22:03	-131.754	47.126	0	298.10	0	5.4350	0	33.8420	0	26.710	0	295.409	0	107.3	4	35.0	4	-1E+10	1	-1E+10	1	-1E+10	1	-1E+10	1	-1E+10	1	-1E+10	1
4902549	46	C	11/15/2021	22:03	-131.754	47.126	0	299.00	0	5.4280	0	33.8510	0	26.718	0	296.300	0	106.8	4	34.8	4	-1E+10	1	-1E+10	1	-1E+10	1	-1E+10	1	-1E+10	1	-1E+10	1
4902549	46	C	11/15/2021	22:03	-131.754	47.126	0	299.90	0	5.4210	0	33.8520	0	26.719	0	297.192	0	106.3	4	34.6	4	-1E+10	1	-1E+10	1	-1E+10	1	-1E+10	1	-1E+10	1	-1E+10	1
4902549	46	C	11/15/2021	22:03	-131.754	47.126	0	300.70	0	5.4220	0	33.8540	0	26.721	0	297.984	0	105.9	4	34.5	4	-1E+10	1	-1E+10	1	-1E+10	1	-1E+10	1	-1E+10	1	-1E+10	1
4902549	46	C	11/15/2021	22:03	-131.754	47.126	0	301.60	0	5.4080	0	33.8580	0	26.725	0	298.875	0	105.5	4	34.4	4	-1E+10	1	-1E+10	1	-1E+10	1	-1E+10	1	-1E+10	1	-1E+10	1
4902549	46	C	11/15/2021	22:03	-131.754	47.126	0	302.90	0	5.4070	0	33.8570	0	26.725	0	300.162	0	104.9	4	34.2	4	-1E+10	1	-1E+10	1	-1E+10	1	-1E+10	1	-1E+10	1	-1E+10	1
4902549	46	C	11/15/2021	22:03	-131.754	47.126	0	304.30	0	5.4070	0	33.8580	0	26.726	0	301.549	0	104.1	4	33.9	4	-1E+10	1	-1E+10	1	-1E+10	1	-1E+10	1	-1E+10	1	-1E+10	1
4902549	46	C	11/15/2021	22:03	-131.754	47.126	0	305.10	0	5.3910	0	33.8620	0	26.731	0	302.341	0	103.7	4	33.8	4	-1E+10	1	-1E+10	1	-1E+10	1	-1E+10	1	-1E+10	1	-1E+10	1
4902549	46	C	11/15/2021	22:03	-131.754	47.126	0	306.00	0	5.3780	0	33.8650	0	26.735	0	303.232	0	103.3	4	33.6	4	-1E+10	1	-1E+10	1	-1E+10	1	-1E+10	1	-1E+10	1	-1E+10	1
4902549	46	C	11/15/2021	22:03	-131.754	47.126	0	306.90	0	5.3710	0	33.8620	0	26.733	0	304.123	0	103.0	4	33.5	4	-1E+10	1	-1E+10	1	-1E+10	1	-1E+10	1	-1E+10	1	-1E+10	1
4902549	46	C	11/15/2021	22:03	-131.754	47.126	0	307.80	0	5.3710	0	33.8630	0	26.734	0	305.014	0	102.6	4	33.4	4	-1E+10	1	-1E+10	1	-1E+10	1	-1E+10	1	-1E+10	1	-1E+10	1
4902549	46	C	11/15/2021	22:03	-131.754	47.126	0	308.70	0	5.3670	0	33.8630	0	26.734	0	305.906	0	102.2	4	33.3	4	-1E+10	1	-1E+10	1	-1E+10	1	-1E+10	1	-1E+10	1	-1E+10	1
4902549	46	C	11/15/2021	22:03	-131.754	47.126	0	309.90	0	5.3550	0	33.8650	0	26.737	0	307.094	0	101.6	4	33.0	4	-1E+10	1	-1E+10	1	-1E+10	1	-1E+10	1	-1E+10	1	-1E+10	1
4902549	46	C	11/15/2021	22:03	-131.754	47.126	0	311.30	0	5.3390	0	33.8650	0	26.739	0	308.480	0	101.0	4	32.8	4	-1E+10	1	-1E+10	1	-1E+10	1	-1E+10	1	-1E+10	1	-1E+10	1
4902549	46	C	11/15/2021	22:03	-131.754	47.126	0	312.20	0	5.3330	0	33.8650	0	26.740	0	309.371	0	100.5	4	32.7	4	-1E+10	1	-1E+10	1	-1E+10	1	-1E+10	1	-1E+10	1	-1E+10	1
4902549	46	C	11/15/2021	22:03	-131.754	47.126	0	313.00	0	5.3270	0	33.8650	0	26.741	0	310.163	0	100.1	4	32.5	4	-1E+10	1	-1E+10	1	-1E+10	1	-1E+10	1	-1E+10	1	-1E+10	1
4902549	46	C	11/15/2021	22:03	-131.754	47.126	0	313.90	0	5.3150	0	33.8680	0	26.744	0	311.055	0	99.7	4	32.4	4	-1E+10	1	-1E+10	1	-1E+10	1	-1E+10	1	-1E+10	1	-1E+10	1
4902549	46	C	11/15/2021	22:03	-131.754	47.126	0	314.70	0	5.3020	0	33.8680	0	26.746	0	311.847	0	99.4	4	32.3	4	-1E+10	1	-1E+10	1	-1E+10	1	-1E+10	1	-1E+10	1	-1E+10	1
4902549	46	C	11/15/2021	22:03	-131.754	47.126	0	315.60	0	5.2950	0	33.8680	0	26.747	0	312.738	0	99.0	4	32.2	4	-1E+10	1	-1E+10	1	-1E+10	1	-1E+10	1	-1E+10	1	-1E+10	1
4902549	46	C	11/15/2021	22:03	-131.754	47.126	0	316.90	0	5.2920	0	33.8670	0	26.746	0	314.025	0	98.4	4	32.0	4	-1E+10	1	-1E+10	1	-1E+10	1	-1E+10	1	-1E+10	1	-1E+10	1
4902549	46	C	11/15/2021	22:03	-131.754	47.126	0	318.20	0	5.2760	0	33.8680	0	26.749	0	315.312	0	97.8	4	31.8	4	-1E+10	1	-1E+10	1	-1E+10	1	-1E+10	1	-1E+10	1	-1E+10	1
4902549	46	C	11/15/2021	22:03	-131.754	47.126	0	319.00	0	5.2670	0	33.8690	0	26.751	0	316.105	0	97.3	4	31.6	4	-1E+10	1	-1E+10	1	-1E+10	1	-1E+10	1	-1E+10	1	-1E+10	1
4902549	46	C	11/15/2021	22:03	-131.754	47.126	0	319.90	0	5.2500	0	33.8700	0	26.754	0	316.996	0	97.0	4	31.5	4	-1E+10	1	-1E+10	1	-1E+10	1	-1E+10	1	-1E+10	1	-1E+10	1
4902549	46	C	11/15/2021	22:03	-131.754	47.126	0	320.70	0	5.2360	0	33.8710	0	26.756	0	317.788	0	96.7	4	31.4	4	-1E+10	1	-1E+10	1	-1E+10	1	-1E+10	1	-1E+10	1	-1E+10	1
4902549	46	C	11/15/2021	22:03	-131.754	47.126	0	321.60	0	5.2300	0	33.8710	0	26.757	0	318.679	0	96.4	4	31.3	4	-1E+10	1	-1E+10	1	-1E+10	1	-1E+10	1	-1E+10	1	-1E+10	1
4902549	46	C	11/15/2021	22:03	-131.754	47.126	0	322.90	0	5.2270	0	33.8710	0	26.757	0	319.966	0	95.8	4	31.1	4	-1E+10	1	-1E+10	1	-1E+10	1	-1E+10	1	-1E+10	1	-1E+10	1
4902549	46	C	11/15/2021	22:03	-131.754	47.126	0	324.20	0	5.2240	0	33.8700	0	26.757	0	321.253	0	95.1	4	30.9	4	-1E+10	1	-1E+10	1	-1E+10	1	-1E+10	1	-1E+10	1	-1E+10	1
4902549	46	C	11/15/2021	22:03	-131.754	47.126	0	325.00	0	5.1960	0	33.8730	0	26.762	0	322.045	0	94.8	4	30.7	4	-1E+10	1	-1E+10	1	-1E+10	1	-1E+10	1	-1E+10	1	-1E+10	1
4902549	46	C	11/15/2021	22:03	-131.754	47.126	0	325.90	0	5.1880	0	33.8720	0	26.762	0	322.936	0	94.5	4	30.6	4	-1E+10	1	-1E+10	1	-1E+10	1	-1E+10	1	-1E+10	1	-1E+10	1
4902549	46	C	11/15/2021	22:03	-131.754	47.126	0	326.80	0	5.1800	0	33.8730	0	26.764	0	323.828	0	94.1	4	30.5	4	-1E+10	1	-1E+10	1	-1E+10	1	-1E+10	1	-1E+10	1	-1E+10	1
4902549	46	C	11/15/2021	22:03	-131.754	47.126	0	327.70	0	5.1740	0	33.8730	0	26.765	0	324.719	0	93.8	4	30.4	4	-1E+10	1	-1E+10	1	-1E+10	1	-1E+10	1	-1E+10	1	-1E+10	1
4902549	46	C	11/15/2021	22:03	-131.754	47.126	0	328.90	0	5.1640	0	33.8730	0	26.766	0	325.907	0	93.2	4	30.2	4	-1E+10	1	-1E+10	1	-1E+10	1	-1E+10	1	-1E+10	1	-1E+10	1
4902549	46	C	11/15/2021	22:03	-131.754	47.126	0	330.30	0	5.1510	0	33.8760	0	26.770	0	327.293	0	92.6	4	30.0	4	-1E+10	1	-1E+10	1	-1E+10	1	-1E+10	1	-1E+10	1	-1E+10	1
4902549	46	C	11/15/2021	22:03	-131.754	47.126	0	331.20	0	5.1460	0	33.8740	0	26.769	0	328.184	0	92.2	4	29.9	4	-1E+10	1	-1E+10	1	-1E+10	1	-1E+10	1	-1E+10	1	-1E+10	1
4902549	46	C	11/15/2021	22:03	-131.754	47.126	0	332.10	0	5.1430	0	33.8740	0	26.769	0	329.075	0	91.8	4	29.7	4	-1E+10	1	-1E+10	1	-1E+10	1	-1E+10	1	-1E+10	1	-1E+10	1
4902549	46	C	11/15/2021	22:03	-131.754	47.126	0	332.90	0	5.1250	0	33.8740	0	26.771	0	329.867	0	91.4	4	29.6	4	-1E+10	1	-1E+10	1	-1E+10	1	-1E+10	1	-1E+10	1	-1E+10	1
4902549	46	C	11/15/2021	22:03	-131.754	47.126	0	333.80	0	5.1160	0	33.8760	0	26.774	0	330.758	0	91.0	4	29.4	4	-1E+10	1	-1E+10	1	-1E+10	1	-1E+10	1	-1E+10	1	-1E+10	1
4902549	46	C	11/15/2021	22:03	-131.754	47.126	0	334.70	0	5.1010	0	33.8760	0	26.776	0	331.649	0	90.7	4	29.3	4	-1E+10	1	-1E+10	1	-1E+10	1	-1E+10	1	-1E+10	1	-1E+10	1
4902549	46	C	11/15/2021	22:03	-131.754	47.126	0	335.60	0	5.0940	0	33.8770	0	26.777	0	332.541	0	90.3	4	29.2	4	-1E+10	1	-1E+10	1	-1E+10	1	-1E+10	1	-1E+10	1	-1E+10	1
4902549	46	C	11/15/2021	22:03	-131.754	47.126	0	336.90	0	5.0840	0	33.8760	0	26.778	0	333.828	0	89.7	4	29.0	4	-1E+10	1	-1E+10	1	-1E+10	1	-1E+10	1	-1E+10	1	-1E+10	1
4902549	46	C	11/15/2021	22:03	-131.754	47.126	0	338.30	0	5.0640	0	33.8780	0	26.782	0	335.214	0	89.1	4	28.8	4	-1E+10	1	-1E+10	1	-1E+10	1	-1E+10	1	-1E+10	1	-1E+10	1
4902549	46	C	11/15/2021	22:03	-131.754	47.126	0	339.20	0	5.0590	0	33.8780	0	26.782	0	336.105	0	88.8	4	28.7	4	-1E+10	1	-1E+10	1	-1E+10	1	-1E+10	1	-1E+10	1	-1E+10	1
4902549	46	C	11/15/2021	22:03	-131.754	47.126	0	340.00	0	5.0650	0	33.8780	0	26.781	0	336.897	0	88.4	4	28.6	4	-1E+10	1	-1E+10	1	-1E+10	1	-1E+10	1	-1E+10	1	-1E+10	1
4902549	46	C	11/15/2021	22:03	-131.754	47.126	0	340.90	0	5.0570	0	33.8800	0	26.784	0	337.788	0	88.0	4	28.4	4	-1E+10	1	-1E+10	1	-1E+10	1	-1E+10	1	-1E+10	1	-1E+10	1
4902549	46	C	11/15/2021	22:03	-131.754	47.126	0	341.80	0	5.0340	0	33.8840	0	26.790	0	338.679	0	87.7	4	28.3	4	-1E+10	1	-1E+10	1	-1E+10	1	-1E+10	1	-1E+10	1	-1E+10	1
4902549	46	C	11/15/2021	22:03	-131.754	47.126	0	342.70	0	5.0230	0	33.8820	0	26.789	0	339.570	0	87.4	4	28.2	4	-1E+10	1	-1E+10	1	-1E+10	1	-1E+10	1	-1E+10	1	-1E+10	1
4902549	46	C	11/15/2021	22:03	-131.754	47.126	0	343.60	0	5.0170	0	33.8820	0	26.790	0	340.461	0	87.1	4	28.1	4	-1E+10	1	-1E+10	1	-1E+10	1	-1E+10	1	-1E+10	1	-1E+10	1
4902549	46	C	11/15/2021	22:03	-131.754	47.126	0	344.90	0	5.0140	0	33.8820	0	26.790	0	341.748	0	86.6	4	28.0	4	-1E+10	1	-1E+10	1	-1E+10	1	-1E+10	1	-1E+10	1	-1E+10	1
4902549	46	C	11/15/2021	22:03	-131.754	47.126	0	346.20	0	5.0040	0	33.8830	0	26.792	0	343.035	0	86.1	4	27.8	4	-1E+10	1	-1E+10	1	-1E+10	1	-1E+10	1	-1E+10	1	-1E+10	1
4902549	46	C	11/15/2021	22:03	-131.754	47.126	0	347.20	0	4.9910	0	33.8830	0	26.794	0	344.025	0	85.8	4	27.7	4	-1E+10	1	-1E+10	1	-1E+10	1	-1E+10	1	-1E+10	1	-1E+10	1
4902549	46	C	11/15/2021	22:03	-131.754	47.126	0	348.10	0	4.9820	0	33.8840	0	26.796	0	344.916	0	85.5	4	27.6	4	-1E+10	1	-1E+10	1	-1E+10	1	-1E+10	1	-1E+10	1	-1E+10	1
4902549	46	C	11/15/2021	22:03	-131.754	47.126	0	349.00	0	4.9790	0	33.8840	0	26.796	0	345.807	0	85.2	4	27.5	4	-1E+10	1	-1E+10	1	-1E+10	1	-1E+10	1	-1E+10	1	-1E+10	1
4902549	46	C	11/15/2021	22:03	-131.754	47.126	0	349.90	0	4.9770	0	33.8850	0	26.797	0	346.698	0	84.9	4	27.4	4	-1E+10	1	-1E+10	1	-1E+10	1	-1E+10	1	-1E+10	1	-1E+10	1
4902549	46	C	11/15/2021	22:03	-131.754	47.126	0	353.00	0	4.9570	0	33.8860	0	26.800	0	349.767	0	83.6	4	26.9	4	-1E+10	1	-1E+10	1	-1E+10	1	-1E+10	1	-1E+10	1	-1E+10	1
4902549	46	C	11/15/2021	22:03	-131.754	47.126	0	358.00	0	4.9160	0	33.8910	0	26.809	0	354.717	0	81.7	4	26.3	4	-1E+10	1	-1E+10	1	-1E+10	1	-1E+10	1	-1E+10	1	-1E+10	1
4902549	46	C	11/15/2021	22:03	-131.754	47.126	0	362.80	0	4.8850	0	33.8930	0	26.814	0	359.469	0	79.8	4	25.7	4	-1E+10	1	-1E+10	1	-1E+10	1	-1E+10	1	-1E+10	1	-1E+10	1
4902549	46	C	11/15/2021	22:03	-131.754	47.126	0	368.10	0	4.8560	0	33.8990	0	26.822	0	364.716	0	77.3	4	24.9	4	-1E+10	1	-1E+10	1	-1E+10	1	-1E+10	1	-1E+10	1	-1E+10	1
4902549	46	C	11/15/2021	22:03	-131.754	47.126	0	373.00	0	4.7980	0	33.9040	0	26.832	0	369.566	0	75.0	4	24.1	4	-1E+10	1	-1E+10	1	-1E+10	1	-1E+10	1	-1E+10	1	-1E+10	1
4902549	46	C	11/15/2021	22:03	-131.754	47.126	0	378.10	0	4.7490	0	33.9040	0	26.838	0	374.615	0	73.2	4	23.5	4	-1E+10	1	-1E+10	1	-1E+10	1	-1E+10	1	-1E+10	1	-1E+10	1
4902549	46	C	11/15/2021	22:03	-131.754	47.126	0	382.80	0	4.7150	0	33.9060	0	26.843	0	379.267	0	71.5	4	22.9	4	-1E+10	1	-1E+10	1	-1E+10	1	-1E+10	1	-1E+10	1	-1E+10	1
4902549	46	C	11/15/2021	22:03	-131.754	47.126	0	387.60	0	4.6960	0	33.9120	0	26.850	0	384.018	0	69.8	4	22.4	4	-1E+10	1	-1E+10	1	-1E+10	1	-1E+10	1	-1E+10	1	-1E+10	1
4902549	46	C	11/15/2021	22:03	-131.754	47.126	0	392.80	0	4.6660	0	33.9160	0	26.857	0	389.165	0	67.7	4	21.7	4	-1E+10	1	-1E+10	1	-1E+10	1	-1E+10	1	-1E+10	1	-1E+10	1
4902549	46	C	11/15/2021	22:03	-131.754	47.126	0	398.20	0	4.6170	0	33.9210	0	26.866	0	394.510	0	66.2	4	21.2	4	-1E+10	1	-1E+10	1	-1E+10	1	-1E+10	1	-1E+10	1	-1E+10	1
4902549	46	C	11/15/2021	22:03	-131.754	47.126	0	403.10	0	4.6080	0	33.9260	0	26.871	0	399.360	0	65.1	4	20.8	4	-1E+10	1	-1E+10	1	-1E+10	1	-1E+10	1	-1E+10	1	-1E+10	1
4902549	46	C	11/15/2021	22:03	-131.754	47.126	0	408.10	0	4.5920	0	33.9270	0	26.874	0	404.309	0	63.6	4	20.3	4	-1E+10	1	-1E+10	1	-1E+10	1	-1E+10	1	-1E+10	1	-1E+10	1
4902549	46	C	11/15/2021	22:03	-131.754	47.126	0	413.10	0	4.5650	0	33.9300	0	26.879	0	409.258	0	62.0	4	19.8	4	-1E+10	1	-1E+10	1	-1E+10	1	-1E+10	1	-1E+10	1	-1E+10	1
4902549	46	C	11/15/2021	22:03	-131.754	47.126	0	418.10	0	4.5380	0	33.9370	0	26.887	0	414.206	0	60.6	4	19.3	4	-1E+10	1	-1E+10	1	-1E+10	1	-1E+10	1	-1E+10	1	-1E+10	1
4902549	46	C	11/15/2021	22:03	-131.754	47.126	0	423.20	0	4.5200	0	33.9440	0	26.895	0	419.253	0	59.3	4	18.9	4	-1E+10	1	-1E+10	1	-1E+10	1	-1E+10	1	-1E+10	1	-1E+10	1
4902549	46	C	11/15/2021	22:03	-131.754	47.126	0	428.20	0	4.5030	0	33.9500	0	26.902	0	424.202	0	57.9	4	18.5	4	-1E+10	1	-1E+10	1	-1E+10	1	-1E+10	1	-1E+10	1	-1E+10	1
4902549	46	C	11/15/2021	22:03	-131.754	47.126	0	432.70	0	4.4830	0	33.9570	0	26.909	0	428.655	0	56.8	4	18.1	4	-1E+10	1	-1E+10	1	-1E+10	1	-1E+10	1	-1E+10	1	-1E+10	1
4902549	46	C	11/15/2021	22:03	-131.754	47.126	0	437.90	0	4.4710	0	33.9620	0	26.915	0	433.801	0	55.6	4	17.7	4	-1E+10	1	-1E+10	1	-1E+10	1	-1E+10	1	-1E+10	1	-1E+10	1
4902549	46	C	11/15/2021	22:03	-131.754	47.126	0	443.20	0	4.4560	0	33.9680	0	26.921	0	439.046	0	54.6	4	17.4	4	-1E+10	1	-1E+10	1	-1E+10	1	-1E+10	1	-1E+10	1	-1E+10	1
4902549	46	C	11/15/2021	22:03	-131.754	47.126	0	448.20	0	4.4470	0	33.9710	0	26.924	0	443.994	0	53.5	4	17.1	4	-1E+10	1	-1E+10	1	-1E+10	1	-1E+10	1	-1E+10	1	-1E+10	1
4902549	46	C	11/15/2021	22:03	-131.754	47.126	0	452.90	0	4.4360	0	33.9740	0	26.928	0	448.644	0	52.2	4	16.6	4	-1E+10	1	-1E+10	1	-1E+10	1	-1E+10	1	-1E+10	1	-1E+10	1
4902549	46	C	11/15/2021	22:03	-131.754	47.126	0	457.70	0	4.4160	0	33.9810	0	26.936	0	453.394	0	51.0	4	16.2	4	-1E+10	1	-1E+10	1	-1E+10	1	-1E+10	1	-1E+10	1	-1E+10	1
4902549	46	C	11/15/2021	22:03	-131.754	47.126	0	463.00	0	4.4000	0	33.9880	0	26.943	0	458.638	0	49.9	4	15.9	4	-1E+10	1	-1E+10	1	-1E+10	1	-1E+10	1	-1E+10	1	-1E+10	1
4902549	46	C	11/15/2021	22:03	-131.754	47.126	0	467.90	0	4.3930	0	33.9930	0	26.948	0	463.487	0	48.9	4	15.6	4	-1E+10	1	-1E+10	1	-1E+10	1	-1E+10	1	-1E+10	1	-1E+10	1
4902549	46	C	11/15/2021	22:03	-131.754	47.126	0	472.70	0	4.3800	0	33.9980	0	26.953	0	468.236	0	47.6	4	15.1	4	-1E+10	1	-1E+10	1	-1E+10	1	-1E+10	1	-1E+10	1	-1E+10	1
4902549	46	C	11/15/2021	22:03	-131.754	47.126	0	478.00	0	4.3590	0	34.0060	0	26.962	0	473.480	0	46.1	4	14.7	4	-1E+10	1	-1E+10	1	-1E+10	1	-1E+10	1	-1E+10	1	-1E+10	1
4902549	46	C	11/15/2021	22:03	-131.754	47.126	0	482.80	0	4.3430	0	34.0110	0	26.968	0	478.229	0	45.1	4	14.4	4	-1E+10	1	-1E+10	1	-1E+10	1	-1E+10	1	-1E+10	1	-1E+10	1
4902549	46	C	11/15/2021	22:03	-131.754	47.126	0	487.70	0	4.3340	0	34.0140	0	26.971	0	483.077	0	44.1	4	14.0	4	-1E+10	1	-1E+10	1	-1E+10	1	-1E+10	1	-1E+10	1	-1E+10	1
4902549	46	C	11/15/2021	22:03	-131.754	47.126	0	492.90	0	4.3210	0	34.0190	0	26.976	0	488.221	0	42.8	4	13.6	4	-1E+10	1	-1E+10	1	-1E+10	1	-1E+10	1	-1E+10	1	-1E+10	1
4902549	46	C	11/15/2021	22:03	-131.754	47.126	0	498.10	0	4.3030	0	34.0260	0	26.984	0	493.366	0	41.5	4	13.2	4	-1E+10	1	-1E+10	1	-1E+10	1	-1E+10	1	-1E+10	1	-1E+10	1
4902549	46	C	11/15/2021	22:03	-131.754	47.126	0	503.00	0	4.2920	0	34.0290	0	26.987	0	498.214	0	40.3	4	12.8	4	-1E+10	1	-1E+10	1	-1E+10	1	-1E+10	1	-1E+10	1	-1E+10	1
4902549	46	C	11/15/2021	22:03	-131.754	47.126	0	507.80	0	4.2780	0	34.0350	0	26.994	0	502.962	0	38.9	4	12.4	4	-1E+10	1	-1E+10	1	-1E+10	1	-1E+10	1	-1E+10	1	-1E+10	1
4902549	46	C	11/15/2021	22:03	-131.754	47.126	0	512.80	0	4.2600	0	34.0400	0	27.000	0	507.908	0	37.6	4	11.9	4	-1E+10	1	-1E+10	1	-1E+10	1	-1E+10	1	-1E+10	1	-1E+10	1
4902549	46	C	11/15/2021	22:03	-131.754	47.126	0	517.80	0	4.2410	0	34.0460	0	27.006	0	512.854	0	36.2	4	11.5	4	-1E+10	1	-1E+10	1	-1E+10	1	-1E+10	1	-1E+10	1	-1E+10	1
4902549	46	C	11/15/2021	22:03	-131.754	47.126	0	522.90	0	4.2250	0	34.0520	0	27.013	0	517.899	0	35.2	4	11.2	4	-1E+10	1	-1E+10	1	-1E+10	1	-1E+10	1	-1E+10	1	-1E+10	1
4902549	46	C	11/15/2021	22:03	-131.754	47.126	0	527.90	0	4.2120	0	34.0570	0	27.018	0	522.845	0	34.1	4	10.8	4	-1E+10	1	-1E+10	1	-1E+10	1	-1E+10	1	-1E+10	1	-1E+10	1
4902549	46	C	11/15/2021	22:03	-131.754	47.126	0	533.10	0	4.2010	0	34.0620	0	27.023	0	527.989	0	33.4	4	10.6	4	-1E+10	1	-1E+10	1	-1E+10	1	-1E+10	1	-1E+10	1	-1E+10	1
4902549	46	C	11/15/2021	22:03	-131.754	47.126	0	537.70	0	4.1910	0	34.0650	0	27.027	0	532.539	0	32.7	4	10.4	4	-1E+10	1	-1E+10	1	-1E+10	1	-1E+10	1	-1E+10	1	-1E+10	1
4902549	46	C	11/15/2021	22:03	-131.754	47.126	0	542.90	0	4.1830	0	34.0680	0	27.030	0	537.682	0	31.9	4	10.1	4	-1E+10	1	-1E+10	1	-1E+10	1	-1E+10	1	-1E+10	1	-1E+10	1
4902549	46	C	11/15/2021	22:03	-131.754	47.126	0	548.10	0	4.1750	0	34.0710	0	27.033	0	542.825	0	31.0	4	9.8	4	-1E+10	1	-1E+10	1	-1E+10	1	-1E+10	1	-1E+10	1	-1E+10	1
4902549	46	C	11/15/2021	22:03	-131.754	47.126	0	552.80	0	4.1630	0	34.0770	0	27.039	0	547.474	0	30.2	4	9.6	4	-1E+10	1	-1E+10	1	-1E+10	1	-1E+10	1	-1E+10	1	-1E+10	1
4902549	46	C	11/15/2021	22:03	-131.754	47.126	0	557.60	0	4.1540	0	34.0800	0	27.043	0	552.221	0	29.6	4	9.4	4	-1E+10	1	-1E+10	1	-1E+10	1	-1E+10	1	-1E+10	1	-1E+10	1
4902549	46	C	11/15/2021	22:03	-131.754	47.126	0	562.50	0	4.1480	0	34.0820	0	27.045	0	557.068	0	29.0	4	9.2	4	-1E+10	1	-1E+10	1	-1E+10	1	-1E+10	1	-1E+10	1	-1E+10	1
4902549	46	C	11/15/2021	22:03	-131.754	47.126	0	567.50	0	4.1420	0	34.0840	0	27.047	0	562.013	0	28.3	4	9.0	4	-1E+10	1	-1E+10	1	-1E+10	1	-1E+10	1	-1E+10	1	-1E+10	1
4902549	46	C	11/15/2021	22:03	-131.754	47.126	0	572.50	0	4.1320	0	34.0880	0	27.051	0	566.957	0	27.5	4	8.7	4	-1E+10	1	-1E+10	1	-1E+10	1	-1E+10	1	-1E+10	1	-1E+10	1
4902549	46	C	11/15/2021	22:03	-131.754	47.126	0	577.60	0	4.1200	0	34.0920	0	27.056	0	572.001	0	26.5	4	8.4	4	-1E+10	1	-1E+10	1	-1E+10	1	-1E+10	1	-1E+10	1	-1E+10	1
4902549	46	C	11/15/2021	22:03	-131.754	47.126	0	582.60	0	4.1000	0	34.0990	0	27.064	0	576.946	0	25.6	4	8.1	4	-1E+10	1	-1E+10	1	-1E+10	1	-1E+10	1	-1E+10	1	-1E+10	1
4902549	46	C	11/15/2021	22:03	-131.754	47.126	0	587.60	0	4.0890	0	34.1030	0	27.068	0	581.890	0	25.0	4	7.9	4	-1E+10	1	-1E+10	1	-1E+10	1	-1E+10	1	-1E+10	1	-1E+10	1
4902549	46	C	11/15/2021	22:03	-131.754	47.126	0	592.60	0	4.0750	0	34.1080	0	27.073	0	586.834	0	24.3	4	7.7	4	-1E+10	1	-1E+10	1	-1E+10	1	-1E+10	1	-1E+10	1	-1E+10	1
4902549	46	C	11/15/2021	22:03	-131.754	47.126	0	597.60	0	4.0650	0	34.1110	0	27.077	0	591.779	0	23.9	4	7.5	4	-1E+10	1	-1E+10	1	-1E+10	1	-1E+10	1	-1E+10	1	-1E+10	1
4902549	46	C	11/15/2021	22:03	-131.754	47.126	0	602.60	0	4.0590	0	34.1130	0	27.079	0	596.723	0	23.3	4	7.4	4	-1E+10	1	-1E+10	1	-1E+10	1	-1E+10	1	-1E+10	1	-1E+10	1
4902549	46	C	11/15/2021	22:03	-131.754	47.126	0	607.70	0	4.0510	0	34.1160	0	27.082	0	601.766	0	22.5	4	7.1	4	-1E+10	1	-1E+10	1	-1E+10	1	-1E+10	1	-1E+10	1	-1E+10	1
4902549	46	C	11/15/2021	22:03	-131.754	47.126	0	612.70	0	4.0380	0	34.1210	0	27.088	0	606.710	0	21.7	4	6.8	4	-1E+10	1	-1E+10	1	-1E+10	1	-1E+10	1	-1E+10	1	-1E+10	1
4902549	46	C	11/15/2021	22:03	-131.754	47.126	0	618.00	0	4.0200	0	34.1280	0	27.095	0	611.950	0	20.7	4	6.5	4	-1E+10	1	-1E+10	1	-1E+10	1	-1E+10	1	-1E+10	1	-1E+10	1
4902549	46	C	11/15/2021	22:03	-131.754	47.126	0	622.90	0	4.0140	0	34.1320	0	27.099	0	616.795	0	20.0	4	6.3	4	-1E+10	1	-1E+10	1	-1E+10	1	-1E+10	1	-1E+10	1	-1E+10	1
4902549	46	C	11/15/2021	22:03	-131.754	47.126	0	627.70	0	4.0090	0	34.1380	0	27.104	0	621.541	0	19.3	4	6.1	4	-1E+10	1	-1E+10	1	-1E+10	1	-1E+10	1	-1E+10	1	-1E+10	1
4902549	46	C	11/15/2021	22:03	-131.754	47.126	0	632.60	0	3.9960	0	34.1430	0	27.110	0	626.385	0	18.9	4	6.0	4	-1E+10	1	-1E+10	1	-1E+10	1	-1E+10	1	-1E+10	1	-1E+10	1
4902549	46	C	11/15/2021	22:03	-131.754	47.126	0	637.50	0	3.9670	0	34.1460	0	27.115	0	631.230	0	18.3	4	5.8	4	-1E+10	1	-1E+10	1	-1E+10	1	-1E+10	1	-1E+10	1	-1E+10	1
4902549	46	C	11/15/2021	22:03	-131.754	47.126	0	642.60	0	3.9590	0	34.1520	0	27.121	0	636.272	0	17.2	4	5.4	4	-1E+10	1	-1E+10	1	-1E+10	1	-1E+10	1	-1E+10	1	-1E+10	1
4902549	46	C	11/15/2021	22:03	-131.754	47.126	0	647.70	0	3.9750	0	34.1590	0	27.125	0	641.314	0	16.8	4	5.3	4	-1E+10	1	-1E+10	1	-1E+10	1	-1E+10	1	-1E+10	1	-1E+10	1
4902549	46	C	11/15/2021	22:03	-131.754	47.126	0	652.80	0	3.9610	0	34.1610	0	27.128	0	646.355	0	16.8	4	5.3	4	-1E+10	1	-1E+10	1	-1E+10	1	-1E+10	1	-1E+10	1	-1E+10	1
4902549	46	C	11/15/2021	22:03	-131.754	47.126	0	658.00	0	3.9260	0	34.1640	0	27.134	0	651.496	0	16.7	4	5.3	4	-1E+10	1	-1E+10	1	-1E+10	1	-1E+10	1	-1E+10	1	-1E+10	1
4902549	46	C	11/15/2021	22:03	-131.754	47.126	0	663.20	0	3.9220	0	34.1650	0	27.135	0	656.636	0	16.4	4	5.2	4	-1E+10	1	-1E+10	1	-1E+10	1	-1E+10	1	-1E+10	1	-1E+10	1
4902549	46	C	11/15/2021	22:03	-131.754	47.126	0	668.00	0	3.9180	0	34.1680	0	27.138	0	661.381	0	16.2	4	5.1	4	-1E+10	1	-1E+10	1	-1E+10	1	-1E+10	1	-1E+10	1	-1E+10	1
4902549	46	C	11/15/2021	22:03	-131.754	47.126	0	672.80	0	3.8960	0	34.1700	0	27.141	0	666.126	0	16.2	4	5.1	4	-1E+10	1	-1E+10	1	-1E+10	1	-1E+10	1	-1E+10	1	-1E+10	1
4902549	46	C	11/15/2021	22:03	-131.754	47.126	0	678.00	0	3.8810	0	34.1720	0	27.145	0	671.266	0	15.9	4	5.0	4	-1E+10	1	-1E+10	1	-1E+10	1	-1E+10	1	-1E+10	1	-1E+10	1
4902549	46	C	11/15/2021	22:03	-131.754	47.126	0	682.80	0	3.8640	0	34.1760	0	27.150	0	676.011	0	15.6	4	4.9	4	-1E+10	1	-1E+10	1	-1E+10	1	-1E+10	1	-1E+10	1	-1E+10	1
4902549	46	C	11/15/2021	22:03	-131.754	47.126	0	687.60	0	3.8500	0	34.1790	0	27.153	0	680.755	0	15.2	4	4.8	4	-1E+10	1	-1E+10	1	-1E+10	1	-1E+10	1	-1E+10	1	-1E+10	1
4902549	46	C	11/15/2021	22:03	-131.754	47.126	0	692.90	0	3.8360	0	34.1830	0	27.158	0	685.994	0	14.8	4	4.7	4	-1E+10	1	-1E+10	1	-1E+10	1	-1E+10	1	-1E+10	1	-1E+10	1
4902549	46	C	11/15/2021	22:03	-131.754	47.126	0	698.20	0	3.8180	0	34.1880	0	27.164	0	691.232	0	14.5	4	4.6	4	-1E+10	1	-1E+10	1	-1E+10	1	-1E+10	1	-1E+10	1	-1E+10	1
4902549	46	C	11/15/2021	22:03	-131.754	47.126	0	703.00	0	3.8130	0	34.1890	0	27.165	0	695.976	0	14.3	4	4.5	4	-1E+10	1	-1E+10	1	-1E+10	1	-1E+10	1	-1E+10	1	-1E+10	1
4902549	46	C	11/15/2021	22:03	-131.754	47.126	0	707.90	0	3.7990	0	34.1930	0	27.170	0	700.819	0	13.9	4	4.4	4	-1E+10	1	-1E+10	1	-1E+10	1	-1E+10	1	-1E+10	1	-1E+10	1
4902549	46	C	11/15/2021	22:03	-131.754	47.126	0	712.80	0	3.7890	0	34.1960	0	27.173	0	705.662	0	13.6	4	4.3	4	-1E+10	1	-1E+10	1	-1E+10	1	-1E+10	1	-1E+10	1	-1E+10	1
4902549	46	C	11/15/2021	22:03	-131.754	47.126	0	717.70	0	3.7790	0	34.1990	0	27.177	0	710.504	0	13.1	4	4.1	4	-1E+10	1	-1E+10	1	-1E+10	1	-1E+10	1	-1E+10	1	-1E+10	1
4902549	46	C	11/15/2021	22:03	-131.754	47.126	0	723.10	0	3.7500	0	34.2070	0	27.186	0	715.841	0	12.7	4	4.0	4	-1E+10	1	-1E+10	1	-1E+10	1	-1E+10	1	-1E+10	1	-1E+10	1
4902549	46	C	11/15/2021	22:03	-131.754	47.126	0	728.20	0	3.7390	0	34.2110	0	27.190	0	720.881	0	12.5	4	3.9	4	-1E+10	1	-1E+10	1	-1E+10	1	-1E+10	1	-1E+10	1	-1E+10	1
4902549	46	C	11/15/2021	22:03	-131.754	47.126	0	732.80	0	3.7360	0	34.2120	0	27.191	0	725.426	0	12.2	4	3.8	4	-1E+10	1	-1E+10	1	-1E+10	1	-1E+10	1	-1E+10	1	-1E+10	1
4902549	46	C	11/15/2021	22:03	-131.754	47.126	0	738.00	0	3.7220	0	34.2160	0	27.196	0	730.565	0	11.9	4	3.7	4	-1E+10	1	-1E+10	1	-1E+10	1	-1E+10	1	-1E+10	1	-1E+10	1
4902549	46	C	11/15/2021	22:03	-131.754	47.126	0	743.20	0	3.7140	0	34.2190	0	27.199	0	735.704	0	11.7	4	3.7	4	-1E+10	1	-1E+10	1	-1E+10	1	-1E+10	1	-1E+10	1	-1E+10	1
4902549	46	C	11/15/2021	22:03	-131.754	47.126	0	747.90	0	3.7060	0	34.2210	0	27.202	0	740.348	0	11.4	4	3.6	4	-1E+10	1	-1E+10	1	-1E+10	1	-1E+10	1	-1E+10	1	-1E+10	1
4902549	46	C	11/15/2021	22:03	-131.754	47.126	0	752.70	0	3.6890	0	34.2250	0	27.206	0	745.091	0	11.1	4	3.5	4	-1E+10	1	-1E+10	1	-1E+10	1	-1E+10	1	-1E+10	1	-1E+10	1
4902549	46	C	11/15/2021	22:03	-131.754	47.126	0	757.60	0	3.6790	0	34.2270	0	27.209	0	749.932	0	10.8	4	3.4	4	-1E+10	1	-1E+10	1	-1E+10	1	-1E+10	1	-1E+10	1	-1E+10	1
4902549	46	C	11/15/2021	22:03	-131.754	47.126	0	762.50	0	3.6650	0	34.2310	0	27.214	0	754.774	0	10.5	4	3.3	4	-1E+10	1	-1E+10	1	-1E+10	1	-1E+10	1	-1E+10	1	-1E+10	1
4902549	46	C	11/15/2021	22:03	-131.754	47.126	0	767.50	0	3.6520	0	34.2360	0	27.219	0	759.714	0	10.1	4	3.2	4	-1E+10	1	-1E+10	1	-1E+10	1	-1E+10	1	-1E+10	1	-1E+10	1
4902549	46	C	11/15/2021	22:03	-131.754	47.126	0	772.50	0	3.6390	0	34.2400	0	27.223	0	764.654	0	10.0	4	3.1	4	-1E+10	1	-1E+10	1	-1E+10	1	-1E+10	1	-1E+10	1	-1E+10	1
4902549	46	C	11/15/2021	22:03	-131.754	47.126	0	777.60	0	3.6320	0	34.2420	0	27.226	0	769.693	0	9.8	4	3.1	4	-1E+10	1	-1E+10	1	-1E+10	1	-1E+10	1	-1E+10	1	-1E+10	1
4902549	46	C	11/15/2021	22:03	-131.754	47.126	0	782.70	0	3.6220	0	34.2450	0	27.229	0	774.732	0	9.6	4	3.0	4	-1E+10	1	-1E+10	1	-1E+10	1	-1E+10	1	-1E+10	1	-1E+10	1
4902549	46	C	11/15/2021	22:03	-131.754	47.126	0	788.00	0	3.6150	0	34.2470	0	27.231	0	779.968	0	9.5	4	3.0	4	-1E+10	1	-1E+10	1	-1E+10	1	-1E+10	1	-1E+10	1	-1E+10	1
4902549	46	C	11/15/2021	22:03	-131.754	47.126	0	793.20	0	3.6050	0	34.2500	0	27.235	0	785.105	0	9.3	4	2.9	4	-1E+10	1	-1E+10	1	-1E+10	1	-1E+10	1	-1E+10	1	-1E+10	1
4902549	46	C	11/15/2021	22:03	-131.754	47.126	0	797.90	0	3.5990	0	34.2510	0	27.236	0	789.748	0	9.2	4	2.9	4	-1E+10	1	-1E+10	1	-1E+10	1	-1E+10	1	-1E+10	1	-1E+10	1
4902549	46	C	11/15/2021	22:03	-131.754	47.126	0	802.80	0	3.5860	0	34.2550	0	27.241	0	794.589	0	9.0	4	2.8	4	-1E+10	1	-1E+10	1	-1E+10	1	-1E+10	1	-1E+10	1	-1E+10	1
4902549	46	C	11/15/2021	22:03	-131.754	47.126	0	808.00	0	3.5700	0	34.2590	0	27.245	0	799.726	0	8.9	4	2.8	4	-1E+10	1	-1E+10	1	-1E+10	1	-1E+10	1	-1E+10	1	-1E+10	1
4902549	46	C	11/15/2021	22:03	-131.754	47.126	0	813.10	0	3.5590	0	34.2630	0	27.250	0	804.764	0	8.8	4	2.7	4	-1E+10	1	-1E+10	1	-1E+10	1	-1E+10	1	-1E+10	1	-1E+10	1
4902549	46	C	11/15/2021	22:03	-131.754	47.126	0	818.10	0	3.5530	0	34.2640	0	27.251	0	809.703	0	8.7	4	2.7	4	-1E+10	1	-1E+10	1	-1E+10	1	-1E+10	1	-1E+10	1	-1E+10	1
4902549	46	C	11/15/2021	22:03	-131.754	47.126	0	823.10	0	3.5470	0	34.2660	0	27.253	0	814.642	0	8.6	4	2.7	4	-1E+10	1	-1E+10	1	-1E+10	1	-1E+10	1	-1E+10	1	-1E+10	1
4902549	46	C	11/15/2021	22:03	-131.754	47.126	0	828.20	0	3.5410	0	34.2670	0	27.255	0	819.679	0	8.5	4	2.7	4	-1E+10	1	-1E+10	1	-1E+10	1	-1E+10	1	-1E+10	1	-1E+10	1
4902549	46	C	11/15/2021	22:03	-131.754	47.126	0	833.00	0	3.5370	0	34.2690	0	27.257	0	824.421	0	8.4	4	2.6	4	-1E+10	1	-1E+10	1	-1E+10	1	-1E+10	1	-1E+10	1	-1E+10	1
4902549	46	C	11/15/2021	22:03	-131.754	47.126	0	837.70	0	3.5290	0	34.2710	0	27.259	0	829.063	0	8.3	4	2.6	4	-1E+10	1	-1E+10	1	-1E+10	1	-1E+10	1	-1E+10	1	-1E+10	1
4902549	46	C	11/15/2021	22:03	-131.754	47.126	0	843.10	0	3.5190	0	34.2740	0	27.263	0	834.396	0	8.2	4	2.6	4	-1E+10	1	-1E+10	1	-1E+10	1	-1E+10	1	-1E+10	1	-1E+10	1
4902549	46	C	11/15/2021	22:03	-131.754	47.126	0	848.10	0	3.5090	0	34.2760	0	27.265	0	839.335	0	8.1	4	2.5	4	-1E+10	1	-1E+10	1	-1E+10	1	-1E+10	1	-1E+10	1	-1E+10	1
4902549	46	C	11/15/2021	22:03	-131.754	47.126	0	853.10	0	3.4980	0	34.2790	0	27.269	0	844.273	0	8.1	4	2.5	4	-1E+10	1	-1E+10	1	-1E+10	1	-1E+10	1	-1E+10	1	-1E+10	1
4902549	46	C	11/15/2021	22:03	-131.754	47.126	0	858.10	0	3.4910	0	34.2810	0	27.271	0	849.211	0	8.0	4	2.5	4	-1E+10	1	-1E+10	1	-1E+10	1	-1E+10	1	-1E+10	1	-1E+10	1
4902549	46	C	11/15/2021	22:03	-131.754	47.126	0	862.70	0	3.4790	0	34.2840	0	27.275	0	853.754	0	7.9	4	2.5	4	-1E+10	1	-1E+10	1	-1E+10	1	-1E+10	1	-1E+10	1	-1E+10	1
4902549	46	C	11/15/2021	22:03	-131.754	47.126	0	867.80	0	3.4700	0	34.2870	0	27.278	0	858.791	0	7.9	4	2.5	4	-1E+10	1	-1E+10	1	-1E+10	1	-1E+10	1	-1E+10	1	-1E+10	1
4902549	46	C	11/15/2021	22:03	-131.754	47.126	0	873.00	0	3.4620	0	34.2900	0	27.281	0	863.926	0	7.8	4	2.4	4	-1E+10	1	-1E+10	1	-1E+10	1	-1E+10	1	-1E+10	1	-1E+10	1
4902549	46	C	11/15/2021	22:03	-131.754	47.126	0	877.70	0	3.4550	0	34.2920	0	27.283	0	868.567	0	7.7	4	2.4	4	-1E+10	1	-1E+10	1	-1E+10	1	-1E+10	1	-1E+10	1	-1E+10	1
4902549	46	C	11/15/2021	22:03	-131.754	47.126	0	882.80	0	3.4450	0	34.2950	0	27.287	0	873.604	0	7.6	4	2.4	4	-1E+10	1	-1E+10	1	-1E+10	1	-1E+10	1	-1E+10	1	-1E+10	1
4902549	46	C	11/15/2021	22:03	-131.754	47.126	0	888.00	0	3.4330	0	34.2990	0	27.291	0	878.739	0	7.7	4	2.4	4	-1E+10	1	-1E+10	1	-1E+10	1	-1E+10	1	-1E+10	1	-1E+10	1
4902549	46	C	11/15/2021	22:03	-131.754	47.126	0	892.80	0	3.4230	0	34.3000	0	27.293	0	883.478	0	7.7	4	2.4	4	-1E+10	1	-1E+10	1	-1E+10	1	-1E+10	1	-1E+10	1	-1E+10	1
4902549	46	C	11/15/2021	22:03	-131.754	47.126	0	897.50	0	3.4180	0	34.3010	0	27.294	0	888.119	0	7.7	4	2.4	4	-1E+10	1	-1E+10	1	-1E+10	1	-1E+10	1	-1E+10	1	-1E+10	1
4902549	46	C	11/15/2021	22:03	-131.754	47.126	0	902.80	0	3.4070	0	34.3020	0	27.296	0	893.353	0	7.7	4	2.4	4	-1E+10	1	-1E+10	1	-1E+10	1	-1E+10	1	-1E+10	1	-1E+10	1
4902549	46	C	11/15/2021	22:03	-131.754	47.126	0	908.10	0	3.4030	0	34.3030	0	27.297	0	898.586	0	7.6	4	2.4	4	-1E+10	1	-1E+10	1	-1E+10	1	-1E+10	1	-1E+10	1	-1E+10	1
4902549	46	C	11/15/2021	22:03	-131.754	47.126	0	913.00	0	3.3980	0	34.3060	0	27.300	0	903.424	0	7.6	4	2.4	4	-1E+10	1	-1E+10	1	-1E+10	1	-1E+10	1	-1E+10	1	-1E+10	1
4902549	46	C	11/15/2021	22:03	-131.754	47.126	0	917.80	0	3.3930	0	34.3060	0	27.301	0	908.163	0	7.6	4	2.4	4	-1E+10	1	-1E+10	1	-1E+10	1	-1E+10	1	-1E+10	1	-1E+10	1
4902549	46	C	11/15/2021	22:03	-131.754	47.126	0	922.60	0	3.3840	0	34.3090	0	27.304	0	912.902	0	7.6	4	2.4	4	-1E+10	1	-1E+10	1	-1E+10	1	-1E+10	1	-1E+10	1	-1E+10	1
4902549	46	C	11/15/2021	22:03	-131.754	47.126	0	927.90	0	3.3660	0	34.3110	0	27.307	0	918.135	0	7.5	4	2.3	4	-1E+10	1	-1E+10	1	-1E+10	1	-1E+10	1	-1E+10	1	-1E+10	1
4902549	46	C	11/15/2021	22:03	-131.754	47.126	0	933.30	0	3.3530	0	34.3140	0	27.311	0	923.466	0	7.4	4	2.3	4	-1E+10	1	-1E+10	1	-1E+10	1	-1E+10	1	-1E+10	1	-1E+10	1
4902549	46	C	11/15/2021	22:03	-131.754	47.126	0	938.10	0	3.3420	0	34.3170	0	27.314	0	928.205	0	7.3	4	2.3	4	-1E+10	1	-1E+10	1	-1E+10	1	-1E+10	1	-1E+10	1	-1E+10	1
4902549	46	C	11/15/2021	22:03	-131.754	47.126	0	942.90	0	3.3330	0	34.3200	0	27.318	0	932.944	0	7.2	4	2.2	4	-1E+10	1	-1E+10	1	-1E+10	1	-1E+10	1	-1E+10	1	-1E+10	1
4902549	46	C	11/15/2021	22:03	-131.754	47.126	0	947.70	0	3.3250	0	34.3220	0	27.320	0	937.682	0	7.2	4	2.2	4	-1E+10	1	-1E+10	1	-1E+10	1	-1E+10	1	-1E+10	1	-1E+10	1
4902549	46	C	11/15/2021	22:03	-131.754	47.126	0	952.60	0	3.3170	0	34.3240	0	27.322	0	942.519	0	7.1	4	2.2	4	-1E+10	1	-1E+10	1	-1E+10	1	-1E+10	1	-1E+10	1	-1E+10	1
4902549	46	C	11/15/2021	22:03	-131.754	47.126	0	957.50	0	3.3030	0	34.3260	0	27.325	0	947.356	0	7.1	4	2.2	4	-1E+10	1	-1E+10	1	-1E+10	1	-1E+10	1	-1E+10	1	-1E+10	1
4902549	46	C	11/15/2021	22:03	-131.754	47.126	0	962.90	0	3.2960	0	34.3290	0	27.328	0	952.687	0	7.0	4	2.2	4	-1E+10	1	-1E+10	1	-1E+10	1	-1E+10	1	-1E+10	1	-1E+10	1
4902549	46	C	11/15/2021	22:03	-131.754	47.126	0	968.30	0	3.2900	0	34.3320	0	27.331	0	958.017	0	6.9	4	2.1	4	-1E+10	1	-1E+10	1	-1E+10	1	-1E+10	1	-1E+10	1	-1E+10	1
4902549	46	C	11/15/2021	22:03	-131.754	47.126	0	973.20	0	3.2820	0	34.3340	0	27.334	0	962.854	0	6.8	4	2.1	4	-1E+10	1	-1E+10	1	-1E+10	1	-1E+10	1	-1E+10	1	-1E+10	1
4902549	46	C	11/15/2021	22:03	-131.754	47.126	0	978.20	0	3.2760	0	34.3370	0	27.337	0	967.789	0	6.8	4	2.1	4	-1E+10	1	-1E+10	1	-1E+10	1	-1E+10	1	-1E+10	1	-1E+10	1
4902549	46	C	11/15/2021	22:03	-131.754	47.126	0	983.10	0	3.2650	0	34.3400	0	27.340	0	972.626	0	6.7	4	2.1	4	-1E+10	1	-1E+10	1	-1E+10	1	-1E+10	1	-1E+10	1	-1E+10	1
4902549	46	C	11/15/2021	22:03	-131.754	47.126	0	988.10	0	3.2620	0	34.3410	0	27.341	0	977.561	0	6.7	4	2.1	4	-1E+10	1	-1E+10	1	-1E+10	1	-1E+10	1	-1E+10	1	-1E+10	1
4902549	46	C	11/15/2021	22:03	-131.754	47.126	0	993.10	0	3.2510	0	34.3430	0	27.344	0	982.496	0	6.8	4	2.1	4	-1E+10	1	-1E+10	1	-1E+10	1	-1E+10	1	-1E+10	1	-1E+10	1
4902549	46	C	11/15/2021	22:03	-131.754	47.126	0	998.10	0	3.2380	0	34.3450	0	27.347	0	987.431	0	6.8	4	2.1	4	-1E+10	1	-1E+10	1	-1E+10	1	-1E+10	1	-1E+10	1	-1E+10	1
4902549	46	C	11/15/2021	22:03	-131.754	47.126	0	1005.50	0	3.2290	0	34.3480	0	27.350	0	994.734	0	6.8	4	2.1	4	-1E+10	1	-1E+10	1	-1E+10	1	-1E+10	1	-1E+10	1	-1E+10	1
4902549	46	C	11/15/2021	22:03	-131.754	47.126	0	1015.50	0	3.2110	0	34.3530	0	27.356	0	1004.603	0	6.7	4	2.1	4	-1E+10	1	-1E+10	1	-1E+10	1	-1E+10	1	-1E+10	1	-1E+10	1
4902549	46	C	11/15/2021	22:03	-131.754	47.126	0	1025.40	0	3.1910	0	34.3600	0	27.363	0	1014.373	0	6.5	4	2.0	4	-1E+10	1	-1E+10	1	-1E+10	1	-1E+10	1	-1E+10	1	-1E+10	1
4902549	46	C	11/15/2021	22:03	-131.754	47.126	0	1035.40	0	3.1810	0	34.3630	0	27.367	0	1024.241	0	6.5	4	2.0	4	-1E+10	1	-1E+10	1	-1E+10	1	-1E+10	1	-1E+10	1	-1E+10	1
4902549	46	C	11/15/2021	22:03	-131.754	47.126	0	1045.40	0	3.1640	0	34.3700	0	27.374	0	1034.108	0	6.6	4	2.0	4	-1E+10	1	-1E+10	1	-1E+10	1	-1E+10	1	-1E+10	1	-1E+10	1
4902549	46	C	11/15/2021	22:03	-131.754	47.126	0	1055.60	0	3.1470	0	34.3750	0	27.379	0	1044.173	0	6.7	4	2.1	4	-1E+10	1	-1E+10	1	-1E+10	1	-1E+10	1	-1E+10	1	-1E+10	1
4902549	46	C	11/15/2021	22:03	-131.754	47.126	0	1065.30	0	3.1250	0	34.3790	0	27.385	0	1053.744	0	6.7	4	2.1	4	-1E+10	1	-1E+10	1	-1E+10	1	-1E+10	1	-1E+10	1	-1E+10	1
4902549	46	C	11/15/2021	22:03	-131.754	47.126	0	1075.50	0	3.1020	0	34.3840	0	27.391	0	1063.807	0	6.8	4	2.1	4	-1E+10	1	-1E+10	1	-1E+10	1	-1E+10	1	-1E+10	1	-1E+10	1
4902549	46	C	11/15/2021	22:03	-131.754	47.126	0	1085.20	0	3.0850	0	34.3890	0	27.396	0	1073.377	0	6.8	4	2.1	4	-1E+10	1	-1E+10	1	-1E+10	1	-1E+10	1	-1E+10	1	-1E+10	1
4902549	46	C	11/15/2021	22:03	-131.754	47.126	0	1095.00	0	3.0690	0	34.3930	0	27.401	0	1083.045	0	6.9	4	2.1	4	-1E+10	1	-1E+10	1	-1E+10	1	-1E+10	1	-1E+10	1	-1E+10	1
4902549	46	C	11/15/2021	22:03	-131.754	47.126	0	1105.20	0	3.0520	0	34.3970	0	27.406	0	1093.107	0	7.1	4	2.2	4	-1E+10	1	-1E+10	1	-1E+10	1	-1E+10	1	-1E+10	1	-1E+10	1
4902549	46	C	11/15/2021	22:03	-131.754	47.126	0	1115.40	0	3.0360	0	34.4010	0	27.411	0	1103.168	0	7.2	4	2.2	4	-1E+10	1	-1E+10	1	-1E+10	1	-1E+10	1	-1E+10	1	-1E+10	1
4902549	46	C	11/15/2021	22:03	-131.754	47.126	0	1125.30	0	3.0190	0	34.4040	0	27.415	0	1112.934	0	7.3	4	2.3	4	-1E+10	1	-1E+10	1	-1E+10	1	-1E+10	1	-1E+10	1	-1E+10	1
4902549	46	C	11/15/2021	22:03	-131.754	47.126	0	1135.60	0	3.0010	0	34.4070	0	27.419	0	1123.093	0	7.4	4	2.3	4	-1E+10	1	-1E+10	1	-1E+10	1	-1E+10	1	-1E+10	1	-1E+10	1
4902549	46	C	11/15/2021	22:03	-131.754	47.126	0	1145.50	0	2.9800	0	34.4110	0	27.424	0	1132.857	0	7.7	4	2.4	4	-1E+10	1	-1E+10	1	-1E+10	1	-1E+10	1	-1E+10	1	-1E+10	1
4902549	46	C	11/15/2021	22:03	-131.754	47.126	0	1155.40	0	2.9580	0	34.4150	0	27.429	0	1142.621	0	7.7	4	2.4	4	-1E+10	1	-1E+10	1	-1E+10	1	-1E+10	1	-1E+10	1	-1E+10	1
4902549	46	C	11/15/2021	22:03	-131.754	47.126	0	1165.50	0	2.9360	0	34.4180	0	27.434	0	1152.582	0	7.9	4	2.4	4	-1E+10	1	-1E+10	1	-1E+10	1	-1E+10	1	-1E+10	1	-1E+10	1
4902549	46	C	11/15/2021	22:03	-131.754	47.126	0	1175.20	0	2.9160	0	34.4210	0	27.438	0	1162.147	0	8.1	4	2.5	4	-1E+10	1	-1E+10	1	-1E+10	1	-1E+10	1	-1E+10	1	-1E+10	1
4902549	46	C	11/15/2021	22:03	-131.754	47.126	0	1185.30	0	2.9030	0	34.4230	0	27.441	0	1172.107	0	8.4	4	2.6	4	-1E+10	1	-1E+10	1	-1E+10	1	-1E+10	1	-1E+10	1	-1E+10	1
4902549	46	C	11/15/2021	22:03	-131.754	47.126	0	1195.40	0	2.8870	0	34.4250	0	27.444	0	1182.066	0	8.6	4	2.7	4	-1E+10	1	-1E+10	1	-1E+10	1	-1E+10	1	-1E+10	1	-1E+10	1
4902549	46	C	11/15/2021	22:03	-131.754	47.126	0	1205.10	0	2.8700	0	34.4270	0	27.447	0	1191.631	0	8.8	4	2.7	4	-1E+10	1	-1E+10	1	-1E+10	1	-1E+10	1	-1E+10	1	-1E+10	1
4902549	46	C	11/15/2021	22:03	-131.754	47.126	0	1215.50	0	2.8620	0	34.4290	0	27.449	0	1201.885	0	8.9	4	2.7	4	-1E+10	1	-1E+10	1	-1E+10	1	-1E+10	1	-1E+10	1	-1E+10	1
4902549	46	C	11/15/2021	22:03	-131.754	47.126	0	1225.80	0	2.8450	0	34.4310	0	27.452	0	1212.040	0	9.0	4	2.8	4	-1E+10	1	-1E+10	1	-1E+10	1	-1E+10	1	-1E+10	1	-1E+10	1
4902549	46	C	11/15/2021	22:03	-131.754	47.126	0	1235.50	0	2.8240	0	34.4340	0	27.457	0	1221.603	0	9.2	4	2.8	4	-1E+10	1	-1E+10	1	-1E+10	1	-1E+10	1	-1E+10	1	-1E+10	1
4902549	46	C	11/15/2021	22:03	-131.754	47.126	0	1245.40	0	2.8070	0	34.4360	0	27.460	0	1231.362	0	9.5	4	2.9	4	-1E+10	1	-1E+10	1	-1E+10	1	-1E+10	1	-1E+10	1	-1E+10	1
4902549	46	C	11/15/2021	22:03	-131.754	47.126	0	1255.30	0	2.7890	0	34.4390	0	27.464	0	1241.122	0	9.7	4	3.0	4	-1E+10	1	-1E+10	1	-1E+10	1	-1E+10	1	-1E+10	1	-1E+10	1
4902549	46	C	11/15/2021	22:03	-131.754	47.126	0	1265.40	0	2.7710	0	34.4410	0	27.467	0	1251.077	0	9.8	4	3.0	4	-1E+10	1	-1E+10	1	-1E+10	1	-1E+10	1	-1E+10	1	-1E+10	1
4902549	46	C	11/15/2021	22:03	-131.754	47.126	0	1275.60	0	2.7610	0	34.4430	0	27.470	0	1261.131	0	10.1	4	3.1	4	-1E+10	1	-1E+10	1	-1E+10	1	-1E+10	1	-1E+10	1	-1E+10	1
4902549	46	C	11/15/2021	22:03	-131.754	47.126	0	1285.40	0	2.7480	0	34.4470	0	27.474	0	1270.791	0	10.5	4	3.2	4	-1E+10	1	-1E+10	1	-1E+10	1	-1E+10	1	-1E+10	1	-1E+10	1
4902549	46	C	11/15/2021	22:03	-131.754	47.126	0	1295.30	0	2.7280	0	34.4500	0	27.478	0	1280.548	0	10.8	4	3.3	4	-1E+10	1	-1E+10	1	-1E+10	1	-1E+10	1	-1E+10	1	-1E+10	1
4902549	46	C	11/15/2021	22:03	-131.754	47.126	0	1305.40	0	2.7140	0	34.4520	0	27.481	0	1290.502	0	11.3	4	3.5	4	-1E+10	1	-1E+10	1	-1E+10	1	-1E+10	1	-1E+10	1	-1E+10	1
4902549	46	C	11/15/2021	22:03	-131.754	47.126	0	1315.70	0	2.6940	0	34.4580	0	27.488	0	1300.653	0	11.9	4	3.6	4	-1E+10	1	-1E+10	1	-1E+10	1	-1E+10	1	-1E+10	1	-1E+10	1
4902549	46	C	11/15/2021	22:03	-131.754	47.126	0	1325.60	0	2.6810	0	34.4610	0	27.491	0	1310.409	0	12.4	4	3.8	4	-1E+10	1	-1E+10	1	-1E+10	1	-1E+10	1	-1E+10	1	-1E+10	1
4902549	46	C	11/15/2021	22:03	-131.754	47.126	0	1335.20	0	2.6720	0	34.4650	0	27.495	0	1319.869	0	12.9	4	3.9	4	-1E+10	1	-1E+10	1	-1E+10	1	-1E+10	1	-1E+10	1	-1E+10	1
4902549	46	C	11/15/2021	22:03	-131.754	47.126	0	1345.20	0	2.6610	0	34.4690	0	27.499	0	1329.722	0	13.4	4	4.1	4	-1E+10	1	-1E+10	1	-1E+10	1	-1E+10	1	-1E+10	1	-1E+10	1
4902549	46	C	11/15/2021	22:03	-131.754	47.126	0	1355.50	0	2.6480	0	34.4730	0	27.504	0	1339.871	0	13.9	4	4.3	4	-1E+10	1	-1E+10	1	-1E+10	1	-1E+10	1	-1E+10	1	-1E+10	1
4902549	46	C	11/15/2021	22:03	-131.754	47.126	0	1365.60	0	2.6310	0	34.4750	0	27.507	0	1349.822	0	14.3	4	4.4	4	-1E+10	1	-1E+10	1	-1E+10	1	-1E+10	1	-1E+10	1	-1E+10	1
4902549	46	C	11/15/2021	22:03	-131.754	47.126	0	1375.30	0	2.6140	0	34.4760	0	27.509	0	1359.379	0	14.7	4	4.5	4	-1E+10	1	-1E+10	1	-1E+10	1	-1E+10	1	-1E+10	1	-1E+10	1
4902549	46	C	11/15/2021	22:03	-131.754	47.126	0	1385.50	0	2.6040	0	34.4810	0	27.514	0	1369.428	0	15.2	4	4.7	4	-1E+10	1	-1E+10	1	-1E+10	1	-1E+10	1	-1E+10	1	-1E+10	1
4902549	46	C	11/15/2021	22:03	-131.754	47.126	0	1395.80	0	2.5770	0	34.4820	0	27.517	0	1379.575	0	15.5	4	4.8	4	-1E+10	1	-1E+10	1	-1E+10	1	-1E+10	1	-1E+10	1	-1E+10	1
4902549	46	C	11/15/2021	22:03	-131.754	47.126	0	1405.80	0	2.5660	0	34.4840	0	27.520	0	1389.426	0	16.1	4	4.9	4	-1E+10	1	-1E+10	1	-1E+10	1	-1E+10	1	-1E+10	1	-1E+10	1
4902549	46	C	11/15/2021	22:03	-131.754	47.126	0	1415.70	0	2.5500	0	34.4870	0	27.524	0	1399.177	0	16.5	4	5.0	4	-1E+10	1	-1E+10	1	-1E+10	1	-1E+10	1	-1E+10	1	-1E+10	1
4902549	46	C	11/15/2021	22:03	-131.754	47.126	0	1425.80	0	2.5340	0	34.4890	0	27.527	0	1409.126	0	16.9	4	5.2	4	-1E+10	1	-1E+10	1	-1E+10	1	-1E+10	1	-1E+10	1	-1E+10	1
4902549	46	C	11/15/2021	22:03	-131.754	47.126	0	1435.80	0	2.5140	0	34.4910	0	27.530	0	1418.975	0	17.5	4	5.3	4	-1E+10	1	-1E+10	1	-1E+10	1	-1E+10	1	-1E+10	1	-1E+10	1
4902549	46	C	11/15/2021	22:03	-131.754	47.126	0	1445.80	0	2.4960	0	34.4940	0	27.534	0	1428.824	0	18.0	4	5.5	4	-1E+10	1	-1E+10	1	-1E+10	1	-1E+10	1	-1E+10	1	-1E+10	1
4902549	46	C	11/15/2021	22:03	-131.754	47.126	0	1455.80	0	2.4790	0	34.4960	0	27.537	0	1438.673	0	18.3	4	5.6	4	-1E+10	1	-1E+10	1	-1E+10	1	-1E+10	1	-1E+10	1	-1E+10	1
4902549	46	C	11/15/2021	22:03	-131.754	47.126	0	1465.90	0	2.4680	0	34.4970	0	27.539	0	1448.620	0	18.7	4	5.7	4	-1E+10	1	-1E+10	1	-1E+10	1	-1E+10	1	-1E+10	1	-1E+10	1
4902549	46	C	11/15/2021	22:03	-131.754	47.126	0	1475.40	0	2.4500	0	34.4990	0	27.542	0	1457.975	0	19.1	4	5.8	4	-1E+10	1	-1E+10	1	-1E+10	1	-1E+10	1	-1E+10	1	-1E+10	1
4902549	46	C	11/15/2021	22:03	-131.754	47.126	0	1485.00	0	2.4410	0	34.5010	0	27.544	0	1467.428	0	19.7	4	6.0	4	-1E+10	1	-1E+10	1	-1E+10	1	-1E+10	1	-1E+10	1	-1E+10	1
4902549	46	C	11/15/2021	22:03	-131.754	47.126	0	1495.00	0	2.4240	0	34.5030	0	27.547	0	1477.275	0	20.3	4	6.2	4	-1E+10	1	-1E+10	1	-1E+10	1	-1E+10	1	-1E+10	1	-1E+10	1
4902549	46	C	11/15/2021	22:03	-131.754	47.126	0	1505.10	0	2.4140	0	34.5050	0	27.550	0	1487.220	0	20.8	4	6.3	4	-1E+10	1	-1E+10	1	-1E+10	1	-1E+10	1	-1E+10	1	-1E+10	1
4902549	46	C	11/15/2021	22:03	-131.754	47.126	0	1515.30	0	2.4060	0	34.5070	0	27.552	0	1497.262	0	21.5	4	6.6	4	-1E+10	1	-1E+10	1	-1E+10	1	-1E+10	1	-1E+10	1	-1E+10	1
4902549	46	C	11/15/2021	22:03	-131.754	47.126	0	1525.40	0	2.4010	0	34.5100	0	27.555	0	1507.206	0	22.4	4	6.8	4	-1E+10	1	-1E+10	1	-1E+10	1	-1E+10	1	-1E+10	1	-1E+10	1
4902549	46	C	11/15/2021	22:03	-131.754	47.126	0	1535.30	0	2.3840	0	34.5130	0	27.559	0	1516.953	0	23.4	4	7.1	4	-1E+10	1	-1E+10	1	-1E+10	1	-1E+10	1	-1E+10	1	-1E+10	1
4902549	46	C	11/15/2021	22:03	-131.754	47.126	0	1545.30	0	2.3740	0	34.5180	0	27.564	0	1526.797	0	24.4	4	7.4	4	-1E+10	1	-1E+10	1	-1E+10	1	-1E+10	1	-1E+10	1	-1E+10	1
4902549	46	C	11/15/2021	22:03	-131.754	47.126	0	1555.10	0	2.3590	0	34.5200	0	27.567	0	1536.444	0	25.0	4	7.6	4	-1E+10	1	-1E+10	1	-1E+10	1	-1E+10	1	-1E+10	1	-1E+10	1
4902549	46	C	11/15/2021	22:03	-131.754	47.126	0	1565.20	0	2.3480	0	34.5220	0	27.569	0	1546.386	0	25.5	4	7.8	4	-1E+10	1	-1E+10	1	-1E+10	1	-1E+10	1	-1E+10	1	-1E+10	1
4902549	46	C	11/15/2021	22:03	-131.754	47.126	0	1575.20	0	2.3380	0	34.5240	0	27.572	0	1556.229	0	25.9	4	7.9	4	-1E+10	1	-1E+10	1	-1E+10	1	-1E+10	1	-1E+10	1	-1E+10	1
4902549	46	C	11/15/2021	22:03	-131.754	47.126	0	1585.40	0	2.3280	0	34.5250	0	27.573	0	1566.268	0	26.2	4	7.9	4	-1E+10	1	-1E+10	1	-1E+10	1	-1E+10	1	-1E+10	1	-1E+10	1
4902549	46	C	11/15/2021	22:03	-131.754	47.126	0	1595.50	0	2.3020	0	34.5250	0	27.576	0	1576.209	0	26.7	4	8.1	4	-1E+10	1	-1E+10	1	-1E+10	1	-1E+10	1	-1E+10	1	-1E+10	1
4902549	46	C	11/15/2021	22:03	-131.754	47.126	0	1605.50	0	2.2950	0	34.5280	0	27.579	0	1586.051	0	27.4	4	8.3	4	-1E+10	1	-1E+10	1	-1E+10	1	-1E+10	1	-1E+10	1	-1E+10	1
4902549	46	C	11/15/2021	22:03	-131.754	47.126	0	1615.80	0	2.2870	0	34.5300	0	27.581	0	1596.187	0	28.1	4	8.5	4	-1E+10	1	-1E+10	1	-1E+10	1	-1E+10	1	-1E+10	1	-1E+10	1
4902549	46	C	11/15/2021	22:03	-131.754	47.126	0	1625.40	0	2.2830	0	34.5320	0	27.583	0	1605.634	0	28.7	4	8.7	4	-1E+10	1	-1E+10	1	-1E+10	1	-1E+10	1	-1E+10	1	-1E+10	1
4902549	46	C	11/15/2021	22:03	-131.754	47.126	0	1635.20	0	2.2700	0	34.5330	0	27.585	0	1615.278	0	29.3	4	8.9	4	-1E+10	1	-1E+10	1	-1E+10	1	-1E+10	1	-1E+10	1	-1E+10	1
4902549	46	C	11/15/2021	22:03	-131.754	47.126	0	1645.00	0	2.2510	0	34.5360	0	27.589	0	1624.921	0	30.2	4	9.2	4	-1E+10	1	-1E+10	1	-1E+10	1	-1E+10	1	-1E+10	1	-1E+10	1
4902549	46	C	11/15/2021	22:03	-131.754	47.126	0	1655.00	0	2.2370	0	34.5380	0	27.592	0	1634.760	0	31.0	4	9.4	4	-1E+10	1	-1E+10	1	-1E+10	1	-1E+10	1	-1E+10	1	-1E+10	1
4902549	46	C	11/15/2021	22:03	-131.754	47.126	0	1665.20	0	2.2230	0	34.5410	0	27.595	0	1644.796	0	31.8	4	9.7	4	-1E+10	1	-1E+10	1	-1E+10	1	-1E+10	1	-1E+10	1	-1E+10	1
4902549	46	C	11/15/2021	22:03	-131.754	47.126	0	1675.30	0	2.2090	0	34.5420	0	27.597	0	1654.733	0	32.5	4	9.8	4	-1E+10	1	-1E+10	1	-1E+10	1	-1E+10	1	-1E+10	1	-1E+10	1
4902549	46	C	11/15/2021	22:03	-131.754	47.126	0	1685.60	0	2.1970	0	34.5440	0	27.600	0	1664.866	0	33.2	4	10.1	4	-1E+10	1	-1E+10	1	-1E+10	1	-1E+10	1	-1E+10	1	-1E+10	1
4902549	46	C	11/15/2021	22:03	-131.754	47.126	0	1695.40	0	2.1820	0	34.5460	0	27.603	0	1674.506	0	33.8	4	10.2	4	-1E+10	1	-1E+10	1	-1E+10	1	-1E+10	1	-1E+10	1	-1E+10	1
4902549	46	C	11/15/2021	22:03	-131.754	47.126	0	1705.20	0	2.1720	0	34.5470	0	27.604	0	1684.147	0	34.2	4	10.4	4	-1E+10	1	-1E+10	1	-1E+10	1	-1E+10	1	-1E+10	1	-1E+10	1
4902549	46	C	11/15/2021	22:03	-131.754	47.126	0	1715.50	0	2.1660	0	34.5490	0	27.606	0	1694.279	0	34.8	4	10.5	4	-1E+10	1	-1E+10	1	-1E+10	1	-1E+10	1	-1E+10	1	-1E+10	1
4902549	46	C	11/15/2021	22:03	-131.754	47.126	0	1725.60	0	2.1550	0	34.5500	0	27.608	0	1704.213	0	35.4	4	10.7	4	-1E+10	1	-1E+10	1	-1E+10	1	-1E+10	1	-1E+10	1	-1E+10	1
4902549	46	C	11/15/2021	22:03	-131.754	47.126	0	1735.50	0	2.1450	0	34.5520	0	27.611	0	1713.950	0	36.0	4	10.9	4	-1E+10	1	-1E+10	1	-1E+10	1	-1E+10	1	-1E+10	1	-1E+10	1
4902549	46	C	11/15/2021	22:03	-131.754	47.126	0	1745.40	0	2.1360	0	34.5530	0	27.612	0	1723.687	0	36.7	4	11.1	4	-1E+10	1	-1E+10	1	-1E+10	1	-1E+10	1	-1E+10	1	-1E+10	1
4902549	46	C	11/15/2021	22:03	-131.754	47.126	0	1755.30	0	2.1250	0	34.5550	0	27.615	0	1733.424	0	37.3	4	11.3	4	-1E+10	1	-1E+10	1	-1E+10	1	-1E+10	1	-1E+10	1	-1E+10	1
4902549	46	C	11/15/2021	22:03	-131.754	47.126	0	1765.40	0	2.1150	0	34.5570	0	27.617	0	1743.356	0	38.0	4	11.5	4	-1E+10	1	-1E+10	1	-1E+10	1	-1E+10	1	-1E+10	1	-1E+10	1
4902549	46	C	11/15/2021	22:03	-131.754	47.126	0	1775.20	0	2.1010	0	34.5590	0	27.620	0	1752.994	0	38.7	4	11.7	4	-1E+10	1	-1E+10	1	-1E+10	1	-1E+10	1	-1E+10	1	-1E+10	1
4902549	46	C	11/15/2021	22:03	-131.754	47.126	0	1785.10	0	2.0920	0	34.5600	0	27.621	0	1762.729	0	39.2	4	11.8	4	-1E+10	1	-1E+10	1	-1E+10	1	-1E+10	1	-1E+10	1	-1E+10	1
4902549	46	C	11/15/2021	22:03	-131.754	47.126	0	1795.10	0	2.0830	0	34.5620	0	27.624	0	1772.562	0	39.6	4	12.0	4	-1E+10	1	-1E+10	1	-1E+10	1	-1E+10	1	-1E+10	1	-1E+10	1
4902549	46	C	11/15/2021	22:03	-131.754	47.126	0	1805.30	0	2.0790	0	34.5620	0	27.624	0	1782.591	0	40.0	4	12.1	4	-1E+10	1	-1E+10	1	-1E+10	1	-1E+10	1	-1E+10	1	-1E+10	1
4902549	46	C	11/15/2021	22:03	-131.754	47.126	0	1815.60	0	2.0670	0	34.5640	0	27.627	0	1792.718	0	40.7	4	12.3	4	-1E+10	1	-1E+10	1	-1E+10	1	-1E+10	1	-1E+10	1	-1E+10	1
4902549	46	C	11/15/2021	22:03	-131.754	47.126	0	1825.60	0	2.0580	0	34.5660	0	27.629	0	1802.549	0	41.2	4	12.4	4	-1E+10	1	-1E+10	1	-1E+10	1	-1E+10	1	-1E+10	1	-1E+10	1
4902549	46	C	11/15/2021	22:03	-131.754	47.126	0	1835.30	0	2.0530	0	34.5660	0	27.630	0	1812.086	0	41.7	4	12.6	4	-1E+10	1	-1E+10	1	-1E+10	1	-1E+10	1	-1E+10	1	-1E+10	1
4902549	46	C	11/15/2021	22:03	-131.754	47.126	0	1845.30	0	2.0450	0	34.5680	0	27.632	0	1821.916	0	42.1	4	12.7	4	-1E+10	1	-1E+10	1	-1E+10	1	-1E+10	1	-1E+10	1	-1E+10	1
4902549	46	C	11/15/2021	22:03	-131.754	47.126	0	1855.40	0	2.0400	0	34.5690	0	27.633	0	1831.845	0	42.6	4	12.8	4	-1E+10	1	-1E+10	1	-1E+10	1	-1E+10	1	-1E+10	1	-1E+10	1
4902549	46	C	11/15/2021	22:03	-131.754	47.126	0	1865.60	0	2.0340	0	34.5700	0	27.634	0	1841.871	0	43.1	4	13.0	4	-1E+10	1	-1E+10	1	-1E+10	1	-1E+10	1	-1E+10	1	-1E+10	1
4902549	46	C	11/15/2021	22:03	-131.754	47.126	0	1875.40	0	2.0270	0	34.5710	0	27.636	0	1851.504	0	43.7	4	13.2	4	-1E+10	1	-1E+10	1	-1E+10	1	-1E+10	1	-1E+10	1	-1E+10	1
4902549	46	C	11/15/2021	22:03	-131.754	47.126	0	1885.40	0	2.0210	0	34.5720	0	27.637	0	1861.333	0	44.4	4	13.4	4	-1E+10	1	-1E+10	1	-1E+10	1	-1E+10	1	-1E+10	1	-1E+10	1
4902549	46	C	11/15/2021	22:03	-131.754	47.126	0	1895.20	0	2.0070	0	34.5740	0	27.640	0	1870.964	0	45.2	4	13.6	4	-1E+10	1	-1E+10	1	-1E+10	1	-1E+10	1	-1E+10	1	-1E+10	1
4902549	46	C	11/15/2021	22:03	-131.754	47.126	0	1905.30	0	1.9980	0	34.5760	0	27.642	0	1880.891	0	45.7	4	13.8	4	-1E+10	1	-1E+10	1	-1E+10	1	-1E+10	1	-1E+10	1	-1E+10	1
4902549	46	C	11/15/2021	22:03	-131.754	47.126	0	1915.20	0	1.9920	0	34.5770	0	27.644	0	1890.620	0	46.2	4	13.9	4	-1E+10	1	-1E+10	1	-1E+10	1	-1E+10	1	-1E+10	1	-1E+10	1
4902549	46	C	11/15/2021	22:03	-131.754	47.126	0	1925.20	0	1.9890	0	34.5780	0	27.645	0	1900.447	0	46.7	4	14.1	4	-1E+10	1	-1E+10	1	-1E+10	1	-1E+10	1	-1E+10	1	-1E+10	1
4902549	46	C	11/15/2021	22:03	-131.754	47.126	0	1935.40	0	1.9820	0	34.5790	0	27.646	0	1910.470	0	47.2	4	14.2	4	-1E+10	1	-1E+10	1	-1E+10	1	-1E+10	1	-1E+10	1	-1E+10	1
4902549	46	C	11/15/2021	22:03	-131.754	47.126	0	1945.30	0	1.9780	0	34.5800	0	27.647	0	1920.198	0	47.5	4	14.3	4	-1E+10	1	-1E+10	1	-1E+10	1	-1E+10	1	-1E+10	1	-1E+10	1
4902549	46	C	11/15/2021	22:03	-131.754	47.126	0	1955.40	0	1.9760	0	34.5800	0	27.647	0	1930.122	0	47.9	4	14.4	4	-1E+10	1	-1E+10	1	-1E+10	1	-1E+10	1	-1E+10	1	-1E+10	1
4902549	46	C	11/15/2021	22:03	-131.754	47.126	0	1965.50	0	1.9690	0	34.5810	0	27.649	0	1940.045	0	48.5	4	14.6	4	-1E+10	1	-1E+10	1	-1E+10	1	-1E+10	1	-1E+10	1	-1E+10	1
4902549	46	C	11/15/2021	22:03	-131.754	47.126	0	1975.20	0	1.9610	0	34.5830	0	27.651	0	1949.575	0	49.1	4	14.8	4	-1E+10	1	-1E+10	1	-1E+10	1	-1E+10	1	-1E+10	1	-1E+10	1
4902549	46	C	11/15/2021	22:03	-131.754	47.126	0	1985.40	0	1.9530	0	34.5840	0	27.653	0	1959.596	0	49.6	4	14.9	4	-1E+10	1	-1E+10	1	-1E+10	1	-1E+10	1	-1E+10	1	-1E+10	1
4902549	46	C	11/15/2021	22:03	-131.754	47.126	0	1995.70	0	1.9480	0	34.5850	0	27.654	0	1969.715	0	49.9	4	15.0	4	-1E+10	1	-1E+10	1	-1E+10	1	-1E+10	1	-1E+10	1	-1E+10	1
4902549	46	C	11/15/2021	22:03	-131.754	47.126	0	2005.70	0	1.9430	0	34.5860	0	27.655	0	1979.538	0	50.3	4	15.1	4	-1E+10	1	-1E+10	1	-1E+10	1	-1E+10	1	-1E+10	1	-1E+10	1
4902549	46	C	11/15/2021	22:03	-131.754	47.126	0	2015.60	0	1.9370	0	34.5870	0	27.656	0	1989.263	0	50.7	4	15.3	4	-1E+10	1	-1E+10	1	-1E+10	1	-1E+10	1	-1E+10	1	-1E+10	1
4902549	46	C	11/15/2021	22:03	-131.754	47.126	0	2025.40	0	1.9330	0	34.5880	0	27.658	0	1998.889	0	50.8	4	15.3	4	-1E+10	1	-1E+10	1	-1E+10	1	-1E+10	1	-1E+10	1	-1E+10	1
4902549	46	C	11/15/2021	22:03	-131.754	47.126	0	2033.60	0	1.9290	0	34.5880	0	27.658	0	2006.943	0	50.8	4	15.3	4	-1E+10	1	-1E+10	1	-1E+10	1	-1E+10	1	-1E+10	1	-1E+10	1
4902549	46	C	11/15/2021	22:03	-131.754	47.126	0																										
4902549	47	C	11/26/2021	03:05	-131.838	47.141	0	0.40	0	10.2270	0	32.2870	0	24.797	0	0.397	0	262.1	4	94.1	4	-1E+10	1	-1E+10	1	-1E+10	1	-1E+10	1	-1E+10	1	-1E+10	1
4902549	47	C	11/26/2021	03:05	-131.838	47.141	0	1.20	0	10.2270	0	32.2870	0	24.797	0	1.190	0	262.1	4	94.1	4	-1E+10	1	-1E+10	1	-1E+10	1	-1E+10	1	-1E+10	1	-1E+10	1
4902549	47	C	11/26/2021	03:05	-131.838	47.141	0	2.10	0	10.2270	0	32.2880	0	24.798	0	2.083	0	262.0	4	94.0	4	-1E+10	1	-1E+10	1	-1E+10	1	-1E+10	1	-1E+10	1	-1E+10	1
4902549	47	C	11/26/2021	03:05	-131.838	47.141	0	3.10	0	10.2250	0	32.2910	0	24.800	0	3.074	0	262.1	4	94.1	4	-1E+10	1	-1E+10	1	-1E+10	1	-1E+10	1	-1E+10	1	-1E+10	1
4902549	47	C	11/26/2021	03:05	-131.838	47.141	0	3.90	0	10.2300	0	32.2880	0	24.797	0	3.868	0	261.9	4	94.0	4	-1E+10	1	-1E+10	1	-1E+10	1	-1E+10	1	-1E+10	1	-1E+10	1
4902549	47	C	11/26/2021	03:05	-131.838	47.141	0	4.80	0	10.2310	0	32.2880	0	24.797	0	4.760	0	261.9	4	94.0	4	-1E+10	1	-1E+10	1	-1E+10	1	-1E+10	1	-1E+10	1	-1E+10	1
4902549	47	C	11/26/2021	03:05	-131.838	47.141	0	5.90	0	10.2300	0	32.2880	0	24.797	0	5.851	0	261.9	4	94.0	4	-1E+10	1	-1E+10	1	-1E+10	1	-1E+10	1	-1E+10	1	-1E+10	1
4902549	47	C	11/26/2021	03:05	-131.838	47.141	0	7.10	0	10.2310	0	32.2880	0	24.797	0	7.041	0	261.9	4	94.0	4	-1E+10	1	-1E+10	1	-1E+10	1	-1E+10	1	-1E+10	1	-1E+10	1
4902549	47	C	11/26/2021	03:05	-131.838	47.141	0	8.10	0	10.2310	0	32.2880	0	24.797	0	8.033	0	262.0	4	94.0	4	-1E+10	1	-1E+10	1	-1E+10	1	-1E+10	1	-1E+10	1	-1E+10	1
4902549	47	C	11/26/2021	03:05	-131.838	47.141	0	9.10	0	10.2320	0	32.2880	0	24.797	0	9.024	0	261.8	4	94.0	4	-1E+10	1	-1E+10	1	-1E+10	1	-1E+10	1	-1E+10	1	-1E+10	1
4902549	47	C	11/26/2021	03:05	-131.838	47.141	0	10.10	0	10.2310	0	32.2880	0	24.797	0	10.016	0	261.9	4	94.0	4	-1E+10	1	-1E+10	1	-1E+10	1	-1E+10	1	-1E+10	1	-1E+10	1
4902549	47	C	11/26/2021	03:05	-131.838	47.141	0	11.10	0	10.2300	0	32.2880	0	24.797	0	11.007	0	261.8	4	94.0	4	-1E+10	1	-1E+10	1	-1E+10	1	-1E+10	1	-1E+10	1	-1E+10	1
4902549	47	C	11/26/2021	03:05	-131.838	47.141	0	11.90	0	10.2300	0	32.2880	0	24.797	0	11.801	0	261.9	4	94.0	4	-1E+10	1	-1E+10	1	-1E+10	1	-1E+10	1	-1E+10	1	-1E+10	1
4902549	47	C	11/26/2021	03:05	-131.838	47.141	0	13.00	0	10.2310	0	32.2870	0	24.796	0	12.892	0	261.8	4	94.0	4	-1E+10	1	-1E+10	1	-1E+10	1	-1E+10	1	-1E+10	1	-1E+10	1
4902549	47	C	11/26/2021	03:05	-131.838	47.141	0	13.80	0	10.2310	0	32.2880	0	24.797	0	13.685	0	261.8	4	94.0	4	-1E+10	1	-1E+10	1	-1E+10	1	-1E+10	1	-1E+10	1	-1E+10	1
4902549	47	C	11/26/2021	03:05	-131.838	47.141	0	14.90	0	10.2310	0	32.2880	0	24.797	0	14.776	0	261.9	4	94.0	4	-1E+10	1	-1E+10	1	-1E+10	1	-1E+10	1	-1E+10	1	-1E+10	1
4902549	47	C	11/26/2021	03:05	-131.838	47.141	0	16.00	0	10.2320	0	32.2870	0	24.796	0	15.866	0	261.8	4	94.0	4	-1E+10	1	-1E+10	1	-1E+10	1	-1E+10	1	-1E+10	1	-1E+10	1
4902549	47	C	11/26/2021	03:05	-131.838	47.141	0	17.30	0	10.2300	0	32.2880	0	24.797	0	17.155	0	261.8	4	94.0	4	-1E+10	1	-1E+10	1	-1E+10	1	-1E+10	1	-1E+10	1	-1E+10	1
4902549	47	C	11/26/2021	03:05	-131.838	47.141	0	18.10	0	10.2300	0	32.2880	0	24.797	0	17.949	0	261.8	4	94.0	4	-1E+10	1	-1E+10	1	-1E+10	1	-1E+10	1	-1E+10	1	-1E+10	1
4902549	47	C	11/26/2021	03:05	-131.838	47.141	0	18.90	0	10.2320	0	32.2870	0	24.796	0	18.742	0	261.7	4	93.9	4	-1E+10	1	-1E+10	1	-1E+10	1	-1E+10	1	-1E+10	1	-1E+10	1
4902549	47	C	11/26/2021	03:05	-131.838	47.141	0	20.10	0	10.2320	0	32.2880	0	24.797	0	19.932	0	261.8	4	94.0	4	-1E+10	1	-1E+10	1	-1E+10	1	-1E+10	1	-1E+10	1	-1E+10	1
4902549	47	C	11/26/2021	03:05	-131.838	47.141	0	20.90	0	10.2330	0	32.2880	0	24.797	0	20.725	0	261.7	4	93.9	4	-1E+10	1	-1E+10	1	-1E+10	1	-1E+10	1	-1E+10	1	-1E+10	1
4902549	47	C	11/26/2021	03:05	-131.838	47.141	0	22.00	0	10.2330	0	32.2880	0	24.797	0	21.816	0	261.7	4	93.9	4	-1E+10	1	-1E+10	1	-1E+10	1	-1E+10	1	-1E+10	1	-1E+10	1
4902549	47	C	11/26/2021	03:05	-131.838	47.141	0	23.20	0	10.2340	0	32.2880	0	24.797	0	23.006	0	261.7	4	93.9	4	-1E+10	1	-1E+10	1	-1E+10	1	-1E+10	1	-1E+10	1	-1E+10	1
4902549	47	C	11/26/2021	03:05	-131.838	47.141	0	23.80	0	10.2340	0	32.2880	0	24.797	0	23.601	0	261.6	4	93.9	4	-1E+10	1	-1E+10	1	-1E+10	1	-1E+10	1	-1E+10	1	-1E+10	1
4902549	47	C	11/26/2021	03:05	-131.838	47.141	0	24.90	0	10.2340	0	32.2880	0	24.797	0	24.692	0	261.5	4	93.9	4	-1E+10	1	-1E+10	1	-1E+10	1	-1E+10	1	-1E+10	1	-1E+10	1
4902549	47	C	11/26/2021	03:05	-131.838	47.141	0	25.90	0	10.2340	0	32.2880	0	24.797	0	25.683	0	261.6	4	93.9	4	-1E+10	1	-1E+10	1	-1E+10	1	-1E+10	1	-1E+10	1	-1E+10	1
4902549	47	C	11/26/2021	03:05	-131.838	47.141	0	26.70	0	10.2290	0	32.2860	0	24.796	0	26.476	0	261.5	4	93.9	4	-1E+10	1	-1E+10	1	-1E+10	1	-1E+10	1	-1E+10	1	-1E+10	1
4902549	47	C	11/26/2021	03:05	-131.838	47.141	0	27.90	0	10.2310	0	32.2870	0	24.797	0	27.666	0	261.5	4	93.9	4	-1E+10	1	-1E+10	1	-1E+10	1	-1E+10	1	-1E+10	1	-1E+10	1
4902549	47	C	11/26/2021	03:05	-131.838	47.141	0	29.10	0	10.2290	0	32.2850	0	24.795	0	28.856	0	261.5	4	93.9	4	-1E+10	1	-1E+10	1	-1E+10	1	-1E+10	1	-1E+10	1	-1E+10	1
4902549	47	C	11/26/2021	03:05	-131.838	47.141	0	30.00	0	10.2270	0	32.2860	0	24.797	0	29.748	0	261.5	4	93.9	4	-1E+10	1	-1E+10	1	-1E+10	1	-1E+10	1	-1E+10	1	-1E+10	1
4902549	47	C	11/26/2021	03:05	-131.838	47.141	0	31.00	0	10.2270	0	32.2870	0	24.797	0	30.740	0	261.4	4	93.8	4	-1E+10	1	-1E+10	1	-1E+10	1	-1E+10	1	-1E+10	1	-1E+10	1
4902549	47	C	11/26/2021	03:05	-131.838	47.141	0	32.00	0	10.2280	0	32.2860	0	24.796	0	31.732	0	261.5	4	93.8	4	-1E+10	1	-1E+10	1	-1E+10	1	-1E+10	1	-1E+10	1	-1E+10	1
4902549	47	C	11/26/2021	03:05	-131.838	47.141	0	32.90	0	10.2280	0	32.2850	0	24.796	0	32.624	0	261.4	4	93.8	4	-1E+10	1	-1E+10	1	-1E+10	1	-1E+10	1	-1E+10	1	-1E+10	1
4902549	47	C	11/26/2021	03:05	-131.838	47.141	0	33.90	0	10.2320	0	32.2880	0	24.797	0	33.615	0	261.4	4	93.8	4	-1E+10	1	-1E+10	1	-1E+10	1	-1E+10	1	-1E+10	1	-1E+10	1
4902549	47	C	11/26/2021	03:05	-131.838	47.141	0	34.80	0	10.2330	0	32.2870	0	24.796	0	34.508	0	261.4	4	93.8	4	-1E+10	1	-1E+10	1	-1E+10	1	-1E+10	1	-1E+10	1	-1E+10	1
4902549	47	C	11/26/2021	03:05	-131.838	47.141	0	36.10	0	10.2310	0	32.2870	0	24.797	0	35.797	0	261.4	4	93.8	4	-1E+10	1	-1E+10	1	-1E+10	1	-1E+10	1	-1E+10	1	-1E+10	1
4902549	47	C	11/26/2021	03:05	-131.838	47.141	0	37.00	0	10.2270	0	32.2870	0	24.797	0	36.689	0	261.4	4	93.8	4	-1E+10	1	-1E+10	1	-1E+10	1	-1E+10	1	-1E+10	1	-1E+10	1
4902549	47	C	11/26/2021	03:05	-131.838	47.141	0	37.90	0	10.2300	0	32.2860	0	24.796	0	37.581	0	261.3	4	93.8	4	-1E+10	1	-1E+10	1	-1E+10	1	-1E+10	1	-1E+10	1	-1E+10	1
4902549	47	C	11/26/2021	03:05	-131.838	47.141	0	38.90	0	10.2320	0	32.2870	0	24.797	0	38.573	0	261.3	4	93.8	4	-1E+10	1	-1E+10	1	-1E+10	1	-1E+10	1	-1E+10	1	-1E+10	1
4902549	47	C	11/26/2021	03:05	-131.838	47.141	0	39.80	0	10.2310	0	32.2850	0	24.795	0	39.465	0	261.3	4	93.8	4	-1E+10	1	-1E+10	1	-1E+10	1	-1E+10	1	-1E+10	1	-1E+10	1
4902549	47	C	11/26/2021	03:05	-131.838	47.141	0	41.10	0	10.2310	0	32.2860	0	24.796	0	40.754	0	261.2	4	93.8	4	-1E+10	1	-1E+10	1	-1E+10	1	-1E+10	1	-1E+10	1	-1E+10	1
4902549	47	C	11/26/2021	03:05	-131.838	47.141	0	42.00	0	10.2270	0	32.2850	0	24.796	0	41.647	0	261.2	4	93.7	4	-1E+10	1	-1E+10	1	-1E+10	1	-1E+10	1	-1E+10	1	-1E+10	1
4902549	47	C	11/26/2021	03:05	-131.838	47.141	0	42.90	0	10.2270	0	32.2850	0	24.796	0	42.539	0	261.2	4	93.7	4	-1E+10	1	-1E+10	1	-1E+10	1	-1E+10	1	-1E+10	1	-1E+10	1
4902549	47	C	11/26/2021	03:05	-131.838	47.141	0	43.90	0	10.2260	0	32.2860	0	24.797	0	43.530	0	261.1	4	93.7	4	-1E+10	1	-1E+10	1	-1E+10	1	-1E+10	1	-1E+10	1	-1E+10	1
4902549	47	C	11/26/2021	03:05	-131.838	47.141	0	44.80	0	10.2260	0	32.2860	0	24.797	0	44.423	0	261.1	4	93.7	4	-1E+10	1	-1E+10	1	-1E+10	1	-1E+10	1	-1E+10	1	-1E+10	1
4902549	47	C	11/26/2021	03:05	-131.838	47.141	0	46.00	0	10.2260	0	32.2860	0	24.797	0	45.613	0	261.1	4	93.7	4	-1E+10	1	-1E+10	1	-1E+10	1	-1E+10	1	-1E+10	1	-1E+10	1
4902549	47	C	11/26/2021	03:05	-131.838	47.141	0	46.90	0	10.2260	0	32.2850	0	24.796	0	46.505	0	261.1	4	93.7	4	-1E+10	1	-1E+10	1	-1E+10	1	-1E+10	1	-1E+10	1	-1E+10	1
4902549	47	C	11/26/2021	03:05	-131.838	47.141	0	47.80	0	10.2260	0	32.2860	0	24.797	0	47.397	0	261.0	4	93.7	4	-1E+10	1	-1E+10	1	-1E+10	1	-1E+10	1	-1E+10	1	-1E+10	1
4902549	47	C	11/26/2021	03:05	-131.838	47.141	0	49.00	0	10.2260	0	32.2860	0	24.797	0	48.587	0	261.0	4	93.7	4	-1E+10	1	-1E+10	1	-1E+10	1	-1E+10	1	-1E+10	1	-1E+10	1
4902549	47	C	11/26/2021	03:05	-131.838	47.141	0	49.90	0	10.2260	0	32.2860	0	24.797	0	49.479	0	261.0	4	93.7	4	-1E+10	1	-1E+10	1	-1E+10	1	-1E+10	1	-1E+10	1	-1E+10	1
4902549	47	C	11/26/2021	03:05	-131.838	47.141	0	50.80	0	10.2260	0	32.2860	0	24.797	0	50.371	0	260.9	4	93.6	4	-1E+10	1	-1E+10	1	-1E+10	1	-1E+10	1	-1E+10	1	-1E+10	1
4902549	47	C	11/26/2021	03:05	-131.838	47.141	0	52.00	0	10.2260	0	32.2860	0	24.797	0	51.561	0	260.8	4	93.6	4	-1E+10	1	-1E+10	1	-1E+10	1	-1E+10	1	-1E+10	1	-1E+10	1
4902549	47	C	11/26/2021	03:05	-131.838	47.141	0	53.00	0	10.2260	0	32.2860	0	24.797	0	52.553	0	260.7	4	93.6	4	-1E+10	1	-1E+10	1	-1E+10	1	-1E+10	1	-1E+10	1	-1E+10	1
4902549	47	C	11/26/2021	03:05	-131.838	47.141	0	53.80	0	10.2240	0	32.2860	0	24.797	0	53.346	0	260.8	4	93.6	4	-1E+10	1	-1E+10	1	-1E+10	1	-1E+10	1	-1E+10	1	-1E+10	1
4902549	47	C	11/26/2021	03:05	-131.838	47.141	0	55.00	0	10.2250	0	32.2850	0	24.797	0	54.536	0	260.8	4	93.6	4	-1E+10	1	-1E+10	1	-1E+10	1	-1E+10	1	-1E+10	1	-1E+10	1
4902549	47	C	11/26/2021	03:05	-131.838	47.141	0	55.90	0	10.2250	0	32.2860	0	24.797	0	55.428	0	260.7	4	93.6	4	-1E+10	1	-1E+10	1	-1E+10	1	-1E+10	1	-1E+10	1	-1E+10	1
4902549	47	C	11/26/2021	03:05	-131.838	47.141	0	56.80	0	10.2240	0	32.2860	0	24.798	0	56.320	0	260.7	4	93.5	4	-1E+10	1	-1E+10	1	-1E+10	1	-1E+10	1	-1E+10	1	-1E+10	1
4902549	47	C	11/26/2021	03:05	-131.838	47.141	0	58.00	0	10.2250	0	32.2850	0	24.797	0	57.510	0	260.5	4	93.5	4	-1E+10	1	-1E+10	1	-1E+10	1	-1E+10	1	-1E+10	1	-1E+10	1
4902549	47	C	11/26/2021	03:05	-131.838	47.141	0	59.00	0	10.2250	0	32.2860	0	24.797	0	58.501	0	260.5	4	93.5	4	-1E+10	1	-1E+10	1	-1E+10	1	-1E+10	1	-1E+10	1	-1E+10	1
4902549	47	C	11/26/2021	03:05	-131.838	47.141	0	59.90	0	10.2240	0	32.2850	0	24.797	0	59.393	0	260.4	4	93.5	4	-1E+10	1	-1E+10	1	-1E+10	1	-1E+10	1	-1E+10	1	-1E+10	1
4902549	47	C	11/26/2021	03:05	-131.838	47.141	0	60.90	0	10.2230	0	32.2860	0	24.798	0	60.385	0	260.5	4	93.5	4	-1E+10	1	-1E+10	1	-1E+10	1	-1E+10	1	-1E+10	1	-1E+10	1
4902549	47	C	11/26/2021	03:05	-131.838	47.141	0	61.80	0	10.2230	0	32.2850	0	24.797	0	61.277	0	260.3	4	93.4	4	-1E+10	1	-1E+10	1	-1E+10	1	-1E+10	1	-1E+10	1	-1E+10	1
4902549	47	C	11/26/2021	03:05	-131.838	47.141	0	62.90	0	10.2230	0	32.2860	0	24.798	0	62.368	0	260.2	4	93.4	4	-1E+10	1	-1E+10	1	-1E+10	1	-1E+10	1	-1E+10	1	-1E+10	1
4902549	47	C	11/26/2021	03:05	-131.838	47.141	0	63.90	0	10.2230	0	32.2850	0	24.797	0	63.359	0	260.2	4	93.4	4	-1E+10	1	-1E+10	1	-1E+10	1	-1E+10	1	-1E+10	1	-1E+10	1
4902549	47	C	11/26/2021	03:05	-131.838	47.141	0	65.00	0	10.2230	0	32.2850	0	24.797	0	64.449	0	260.0	4	93.3	4	-1E+10	1	-1E+10	1	-1E+10	1	-1E+10	1	-1E+10	1	-1E+10	1
4902549	47	C	11/26/2021	03:05	-131.838	47.141	0	66.00	0	10.2210	0	32.2860	0	24.798	0	65.441	0	259.9	4	93.3	4	-1E+10	1	-1E+10	1	-1E+10	1	-1E+10	1	-1E+10	1	-1E+10	1
4902549	47	C	11/26/2021	03:05	-131.838	47.141	0	67.20	0	10.2220	0	32.2860	0	24.798	0	66.630	0	259.9	4	93.3	4	-1E+10	1	-1E+10	1	-1E+10	1	-1E+10	1	-1E+10	1	-1E+10	1
4902549	47	C	11/26/2021	03:05	-131.838	47.141	0	67.80	0	10.2220	0	32.2860	0	24.798	0	67.225	0	259.8	4	93.2	4	-1E+10	1	-1E+10	1	-1E+10	1	-1E+10	1	-1E+10	1	-1E+10	1
4902549	47	C	11/26/2021	03:05	-131.838	47.141	0	68.90	0	10.2200	0	32.2860	0	24.798	0	68.316	0	259.6	4	93.1	4	-1E+10	1	-1E+10	1	-1E+10	1	-1E+10	1	-1E+10	1	-1E+10	1
4902549	47	C	11/26/2021	03:05	-131.838	47.141	0	70.00	0	10.2190	0	32.2860	0	24.799	0	69.406	0	259.5	4	93.1	4	-1E+10	1	-1E+10	1	-1E+10	1	-1E+10	1	-1E+10	1	-1E+10	1
4902549	47	C	11/26/2021	03:05	-131.838	47.141	0	71.00	0	10.2180	0	32.2860	0	24.799	0	70.398	0	259.3	4	93.0	4	-1E+10	1	-1E+10	1	-1E+10	1	-1E+10	1	-1E+10	1	-1E+10	1
4902549	47	C	11/26/2021	03:05	-131.838	47.141	0	72.20	0	10.2150	0	32.2860	0	24.799	0	71.587	0	259.1	4	93.0	4	-1E+10	1	-1E+10	1	-1E+10	1	-1E+10	1	-1E+10	1	-1E+10	1
4902549	47	C	11/26/2021	03:05	-131.838	47.141	0	72.90	0	10.2120	0	32.2870	0	24.801	0	72.281	0	258.9	4	92.9	4	-1E+10	1	-1E+10	1	-1E+10	1	-1E+10	1	-1E+10	1	-1E+10	1
4902549	47	C	11/26/2021	03:05	-131.838	47.141	0	73.90	0	10.1990	0	32.2870	0	24.803	0	73.273	0	258.7	4	92.8	4	-1E+10	1	-1E+10	1	-1E+10	1	-1E+10	1	-1E+10	1	-1E+10	1
4902549	47	C	11/26/2021	03:05	-131.838	47.141	0	75.00	0	10.1920	0	32.2870	0	24.804	0	74.363	0	258.4	4	92.7	4	-1E+10	1	-1E+10	1	-1E+10	1	-1E+10	1	-1E+10	1	-1E+10	1
4902549	47	C	11/26/2021	03:05	-131.838	47.141	0	76.00	0	10.1800	0	32.2860	0	24.805	0	75.354	0	258.2	4	92.6	4	-1E+10	1	-1E+10	1	-1E+10	1	-1E+10	1	-1E+10	1	-1E+10	1
4902549	47	C	11/26/2021	03:05	-131.838	47.141	0	77.10	0	10.1590	0	32.2860	0	24.809	0	76.445	0	257.9	4	92.4	4	-1E+10	1	-1E+10	1	-1E+10	1	-1E+10	1	-1E+10	1	-1E+10	1
4902549	47	C	11/26/2021	03:05	-131.838	47.141	0	78.10	0	10.1460	0	32.2860	0	24.811	0	77.436	0	257.6	4	92.3	4	-1E+10	1	-1E+10	1	-1E+10	1	-1E+10	1	-1E+10	1	-1E+10	1
4902549	47	C	11/26/2021	03:05	-131.838	47.141	0	79.10	0	10.1380	0	32.2850	0	24.812	0	78.427	0	257.0	4	92.1	4	-1E+10	1	-1E+10	1	-1E+10	1	-1E+10	1	-1E+10	1	-1E+10	1
4902549	47	C	11/26/2021	03:05	-131.838	47.141	0	79.80	0	10.0540	0	32.3010	0	24.838	0	79.121	0	256.9	4	91.9	4	-1E+10	1	-1E+10	1	-1E+10	1	-1E+10	1	-1E+10	1	-1E+10	1
4902549	47	C	11/26/2021	03:05	-131.838	47.141	0	80.80	0	9.9340	0	32.3020	0	24.859	0	80.113	0	257.3	4	91.8	4	-1E+10	1	-1E+10	1	-1E+10	1	-1E+10	1	-1E+10	1	-1E+10	1
4902549	47	C	11/26/2021	03:05	-131.838	47.141	0	82.10	0	9.7960	0	32.3140	0	24.891	0	81.401	0	257.2	4	91.5	4	-1E+10	1	-1E+10	1	-1E+10	1	-1E+10	1	-1E+10	1	-1E+10	1
4902549	47	C	11/26/2021	03:05	-131.838	47.141	0	83.00	0	9.6700	0	32.3160	0	24.913	0	82.293	0	257.2	4	91.2	4	-1E+10	1	-1E+10	1	-1E+10	1	-1E+10	1	-1E+10	1	-1E+10	1
4902549	47	C	11/26/2021	03:05	-131.838	47.141	0	84.10	0	9.5600	0	32.3210	0	24.934	0	83.384	0	256.5	4	90.8	4	-1E+10	1	-1E+10	1	-1E+10	1	-1E+10	1	-1E+10	1	-1E+10	1
4902549	47	C	11/26/2021	03:05	-131.838	47.141	0	85.00	0	9.3400	0	32.3390	0	24.983	0	84.276	0	256.5	4	90.3	4	-1E+10	1	-1E+10	1	-1E+10	1	-1E+10	1	-1E+10	1	-1E+10	1
4902549	47	C	11/26/2021	03:05	-131.838	47.141	0	86.00	0	9.0210	0	32.3690	0	25.057	0	85.267	0	257.4	4	90.0	4	-1E+10	1	-1E+10	1	-1E+10	1	-1E+10	1	-1E+10	1	-1E+10	1
4902549	47	C	11/26/2021	03:05	-131.838	47.141	0	87.10	0	8.7770	0	32.3710	0	25.096	0	86.358	0	257.9	4	89.7	4	-1E+10	1	-1E+10	1	-1E+10	1	-1E+10	1	-1E+10	1	-1E+10	1
4902549	47	C	11/26/2021	03:05	-131.838	47.141	0	87.90	0	8.2850	0	32.3960	0	25.189	0	87.151	0	260.0	4	89.5	4	-1E+10	1	-1E+10	1	-1E+10	1	-1E+10	1	-1E+10	1	-1E+10	1
4902549	47	C	11/26/2021	03:05	-131.838	47.141	0	89.10	0	7.7730	0	32.4240	0	25.285	0	88.340	0	262.5	4	89.3	4	-1E+10	1	-1E+10	1	-1E+10	1	-1E+10	1	-1E+10	1	-1E+10	1
4902549	47	C	11/26/2021	03:05	-131.838	47.141	0	90.00	0	7.5340	0	32.4280	0	25.322	0	89.232	0	263.4	4	89.2	4	-1E+10	1	-1E+10	1	-1E+10	1	-1E+10	1	-1E+10	1	-1E+10	1
4902549	47	C	11/26/2021	03:05	-131.838	47.141	0	91.10	0	7.4330	0	32.4380	0	25.344	0	90.323	0	263.9	4	89.1	4	-1E+10	1	-1E+10	1	-1E+10	1	-1E+10	1	-1E+10	1	-1E+10	1
4902549	47	C	11/26/2021	03:05	-131.838	47.141	0	91.80	0	7.4070	0	32.4370	0	25.347	0	91.017	0	264.0	4	89.1	4	-1E+10	1	-1E+10	1	-1E+10	1	-1E+10	1	-1E+10	1	-1E+10	1
4902549	47	C	11/26/2021	03:05	-131.838	47.141	0	93.00	0	7.3340	0	32.4380	0	25.357	0	92.206	0	264.2	4	89.0	4	-1E+10	1	-1E+10	1	-1E+10	1	-1E+10	1	-1E+10	1	-1E+10	1
4902549	47	C	11/26/2021	03:05	-131.838	47.141	0	94.20	0	7.2090	0	32.4400	0	25.376	0	93.396	0	264.8	4	89.0	4	-1E+10	1	-1E+10	1	-1E+10	1	-1E+10	1	-1E+10	1	-1E+10	1
4902549	47	C	11/26/2021	03:05	-131.838	47.141	0	95.00	0	7.1280	0	32.4340	0	25.382	0	94.189	0	265.1	4	88.9	4	-1E+10	1	-1E+10	1	-1E+10	1	-1E+10	1	-1E+10	1	-1E+10	1
4902549	47	C	11/26/2021	03:05	-131.838	47.141	0	96.00	0	7.0240	0	32.4380	0	25.399	0	95.180	0	265.5	4	88.9	4	-1E+10	1	-1E+10	1	-1E+10	1	-1E+10	1	-1E+10	1	-1E+10	1
4902549	47	C	11/26/2021	03:05	-131.838	47.141	0	97.10	0	6.9540	0	32.4400	0	25.410	0	96.270	0	265.6	4	88.7	4	-1E+10	1	-1E+10	1	-1E+10	1	-1E+10	1	-1E+10	1	-1E+10	1
4902549	47	C	11/26/2021	03:05	-131.838	47.141	0	97.90	0	6.9400	0	32.4400	0	25.412	0	97.063	0	265.3	4	88.6	4	-1E+10	1	-1E+10	1	-1E+10	1	-1E+10	1	-1E+10	1	-1E+10	1
4902549	47	C	11/26/2021	03:05	-131.838	47.141	0	99.10	0	6.8970	0	32.4410	0	25.418	0	98.253	0	265.2	4	88.5	4	-1E+10	1	-1E+10	1	-1E+10	1	-1E+10	1	-1E+10	1	-1E+10	1
4902549	47	C	11/26/2021	03:05	-131.838	47.141	0	100.00	0	6.8820	0	32.4400	0	25.420	0	99.145	0	264.8	4	88.3	4	-1E+10	1	-1E+10	1	-1E+10	1	-1E+10	1	-1E+10	1	-1E+10	1
4902549	47	C	11/26/2021	03:05	-131.838	47.141	0	101.00	0	6.8540	0	32.4400	0	25.423	0	100.136	0	264.4	4	88.1	4	-1E+10	1	-1E+10	1	-1E+10	1	-1E+10	1	-1E+10	1	-1E+10	1
4902549	47	C	11/26/2021	03:05	-131.838	47.141	0	101.90	0	6.8070	0	32.4430	0	25.432	0	101.028	0	264.0	4	87.9	4	-1E+10	1	-1E+10	1	-1E+10	1	-1E+10	1	-1E+10	1	-1E+10	1
4902549	47	C	11/26/2021	03:05	-131.838	47.141	0	102.80	0	6.7450	0	32.4520	0	25.447	0	101.920	0	263.5	4	87.6	4	-1E+10	1	-1E+10	1	-1E+10	1	-1E+10	1	-1E+10	1	-1E+10	1
4902549	47	C	11/26/2021	03:05	-131.838	47.141	0	104.00	0	6.7030	0	32.4530	0	25.453	0	103.109	0	262.8	4	87.3	4	-1E+10	1	-1E+10	1	-1E+10	1	-1E+10	1	-1E+10	1	-1E+10	1
4902549	47	C	11/26/2021	03:05	-131.838	47.141	0	104.70	0	6.6900	0	32.4540	0	25.456	0	103.803	0	262.0	4	87.0	4	-1E+10	1	-1E+10	1	-1E+10	1	-1E+10	1	-1E+10	1	-1E+10	1
4902549	47	C	11/26/2021	03:05	-131.838	47.141	0	105.70	0	6.6760	0	32.4570	0	25.460	0	104.794	0	260.9	4	86.6	4	-1E+10	1	-1E+10	1	-1E+10	1	-1E+10	1	-1E+10	1	-1E+10	1
4902549	47	C	11/26/2021	03:05	-131.838	47.141	0	106.80	0	6.6570	0	32.4620	0	25.466	0	105.885	0	259.4	4	86.1	4	-1E+10	1	-1E+10	1	-1E+10	1	-1E+10	1	-1E+10	1	-1E+10	1
4902549	47	C	11/26/2021	03:05	-131.838	47.141	0	107.80	0	6.6230	0	32.4770	0	25.483	0	106.876	0	257.9	4	85.5	4	-1E+10	1	-1E+10	1	-1E+10	1	-1E+10	1	-1E+10	1	-1E+10	1
4902549	47	C	11/26/2021	03:05	-131.838	47.141	0	108.90	0	6.6540	0	32.4960	0	25.494	0	107.966	0	256.0	4	85.0	4	-1E+10	1	-1E+10	1	-1E+10	1	-1E+10	1	-1E+10	1	-1E+10	1
4902549	47	C	11/26/2021	03:05	-131.838	47.141	0	110.00	0	6.6820	0	32.5070	0	25.499	0	109.056	0	254.1	4	84.4	4	-1E+10	1	-1E+10	1	-1E+10	1	-1E+10	1	-1E+10	1	-1E+10	1
4902549	47	C	11/26/2021	03:05	-131.838	47.141	0	111.00	0	6.7140	0	32.5160	0	25.502	0	110.048	0	252.1	4	83.8	4	-1E+10	1	-1E+10	1	-1E+10	1	-1E+10	1	-1E+10	1	-1E+10	1
4902549	47	C	11/26/2021	03:05	-131.838	47.141	0	112.10	0	6.7380	0	32.5260	0	25.506	0	111.138	0	249.9	4	83.1	4	-1E+10	1	-1E+10	1	-1E+10	1	-1E+10	1	-1E+10	1	-1E+10	1
4902549	47	C	11/26/2021	03:05	-131.838	47.141	0	113.00	0	6.7550	0	32.5400	0	25.515	0	112.030	0	248.1	4	82.6	4	-1E+10	1	-1E+10	1	-1E+10	1	-1E+10	1	-1E+10	1	-1E+10	1
4902549	47	C	11/26/2021	03:05	-131.838	47.141	0	113.80	0	6.7740	0	32.5600	0	25.528	0	112.823	0	246.0	4	81.9	4	-1E+10	1	-1E+10	1	-1E+10	1	-1E+10	1	-1E+10	1	-1E+10	1
4902549	47	C	11/26/2021	03:05	-131.838	47.141	0	115.00	0	6.8360	0	32.5980	0	25.550	0	114.012	0	243.2	4	81.1	4	-1E+10	1	-1E+10	1	-1E+10	1	-1E+10	1	-1E+10	1	-1E+10	1
4902549	47	C	11/26/2021	03:05	-131.838	47.141	0	115.90	0	6.8330	0	32.6280	0	25.574	0	114.904	0	241.7	4	80.6	4	-1E+10	1	-1E+10	1	-1E+10	1	-1E+10	1	-1E+10	1	-1E+10	1
4902549	47	C	11/26/2021	03:05	-131.838	47.141	0	116.80	0	6.8450	0	32.6450	0	25.586	0	115.796	0	240.1	4	80.1	4	-1E+10	1	-1E+10	1	-1E+10	1	-1E+10	1	-1E+10	1	-1E+10	1
4902549	47	C	11/26/2021	03:05	-131.838	47.141	0	117.90	0	6.8630	0	32.6670	0	25.601	0	116.886	0	238.1	4	79.5	4	-1E+10	1	-1E+10	1	-1E+10	1	-1E+10	1	-1E+10	1	-1E+10	1
4902549	47	C	11/26/2021	03:05	-131.838	47.141	0	118.90	0	6.8920	0	32.6930	0	25.618	0	117.878	0	235.9	4	78.8	4	-1E+10	1	-1E+10	1	-1E+10	1	-1E+10	1	-1E+10	1	-1E+10	1
4902549	47	C	11/26/2021	03:05	-131.838	47.141	0	120.10	0	6.8870	0	32.7210	0	25.641	0	119.067	0	232.7	4	77.8	4	-1E+10	1	-1E+10	1	-1E+10	1	-1E+10	1	-1E+10	1	-1E+10	1
4902549	47	C	11/26/2021	03:05	-131.838	47.141	0	120.90	0	6.8880	0	32.7260	0	25.644	0	119.860	0	230.2	4	76.9	4	-1E+10	1	-1E+10	1	-1E+10	1	-1E+10	1	-1E+10	1	-1E+10	1
4902549	47	C	11/26/2021	03:05	-131.838	47.141	0	122.00	0	6.9270	0	32.7560	0	25.663	0	120.950	0	226.1	4	75.7	4	-1E+10	1	-1E+10	1	-1E+10	1	-1E+10	1	-1E+10	1	-1E+10	1
4902549	47	C	11/26/2021	03:05	-131.838	47.141	0	122.90	0	7.0040	0	32.8320	0	25.712	0	121.842	0	222.8	4	74.7	4	-1E+10	1	-1E+10	1	-1E+10	1	-1E+10	1	-1E+10	1	-1E+10	1
4902549	47	C	11/26/2021	03:05	-131.838	47.141	0	124.00	0	7.0020	0	32.8720	0	25.744	0	122.932	0	219.9	4	73.8	4	-1E+10	1	-1E+10	1	-1E+10	1	-1E+10	1	-1E+10	1	-1E+10	1
4902549	47	C	11/26/2021	03:05	-131.838	47.141	0	125.10	0	7.0230	0	32.8990	0	25.763	0	124.022	0	216.5	4	72.7	4	-1E+10	1	-1E+10	1	-1E+10	1	-1E+10	1	-1E+10	1	-1E+10	1
4902549	47	C	11/26/2021	03:05	-131.838	47.141	0	125.70	0	6.9990	0	32.9080	0	25.773	0	124.617	0	214.6	4	72.0	4	-1E+10	1	-1E+10	1	-1E+10	1	-1E+10	1	-1E+10	1	-1E+10	1
4902549	47	C	11/26/2021	03:05	-131.838	47.141	0	127.10	0	6.9480	0	32.9490	0	25.812	0	126.005	0	210.5	4	70.6	4	-1E+10	1	-1E+10	1	-1E+10	1	-1E+10	1	-1E+10	1	-1E+10	1
4902549	47	C	11/26/2021	03:05	-131.838	47.141	0	128.00	0	6.9570	0	32.9760	0	25.832	0	126.897	0	206.9	4	69.4	4	-1E+10	1	-1E+10	1	-1E+10	1	-1E+10	1	-1E+10	1	-1E+10	1
4902549	47	C	11/26/2021	03:05	-131.838	47.141	0	128.90	0	6.9750	0	33.0230	0	25.867	0	127.789	0	204.2	4	68.5	4	-1E+10	1	-1E+10	1	-1E+10	1	-1E+10	1	-1E+10	1	-1E+10	1
4902549	47	C	11/26/2021	03:05	-131.838	47.141	0	129.80	0	7.0170	0	33.0930	0	25.916	0	128.680	0	201.2	4	67.6	4	-1E+10	1	-1E+10	1	-1E+10	1	-1E+10	1	-1E+10	1	-1E+10	1
4902549	47	C	11/26/2021	03:05	-131.838	47.141	0	130.80	0	7.1070	0	33.2390	0	26.019	0	129.672	0	198.8	4	67.0	4	-1E+10	1	-1E+10	1	-1E+10	1	-1E+10	1	-1E+10	1	-1E+10	1
4902549	47	C	11/26/2021	03:05	-131.838	47.141	0	131.80	0	7.1240	0	33.2790	0	26.048	0	130.663	0	197.2	4	66.6	4	-1E+10	1	-1E+10	1	-1E+10	1	-1E+10	1	-1E+10	1	-1E+10	1
4902549	47	C	11/26/2021	03:05	-131.838	47.141	0	132.90	0	7.1530	0	33.3440	0	26.095	0	131.753	0	195.9	4	66.2	4	-1E+10	1	-1E+10	1	-1E+10	1	-1E+10	1	-1E+10	1	-1E+10	1
4902549	47	C	11/26/2021	03:05	-131.838	47.141	0	134.00	0	7.1550	0	33.3490	0	26.099	0	132.843	0	194.8	4	65.8	4	-1E+10	1	-1E+10	1	-1E+10	1	-1E+10	1	-1E+10	1	-1E+10	1
4902549	47	C	11/26/2021	03:05	-131.838	47.141	0	135.10	0	7.1580	0	33.3540	0	26.103	0	133.933	0	193.5	4	65.4	4	-1E+10	1	-1E+10	1	-1E+10	1	-1E+10	1	-1E+10	1	-1E+10	1
4902549	47	C	11/26/2021	03:05	-131.838	47.141	0	135.90	0	7.1610	0	33.3630	0	26.109	0	134.726	0	192.5	4	65.1	4	-1E+10	1	-1E+10	1	-1E+10	1	-1E+10	1	-1E+10	1	-1E+10	1
4902549	47	C	11/26/2021	03:05	-131.838	47.141	0	136.90	0	7.1620	0	33.3820	0	26.124	0	135.717	0	191.1	4	64.6	4	-1E+10	1	-1E+10	1	-1E+10	1	-1E+10	1	-1E+10	1	-1E+10	1
4902549	47	C	11/26/2021	03:05	-131.838	47.141	0	138.10	0	7.1690	0	33.4040	0	26.141	0	136.906	0	189.5	4	64.1	4	-1E+10	1	-1E+10	1	-1E+10	1	-1E+10	1	-1E+10	1	-1E+10	1
4902549	47	C	11/26/2021	03:05	-131.838	47.141	0	138.90	0	7.2120	0	33.4750	0	26.191	0	137.699	0	188.4	4	63.8	4	-1E+10	1	-1E+10	1	-1E+10	1	-1E+10	1	-1E+10	1	-1E+10	1
4902549	47	C	11/26/2021	03:05	-131.838	47.141	0	139.70	0	7.2180	0	33.5070	0	26.215	0	138.492	0	187.8	4	63.6	4	-1E+10	1	-1E+10	1	-1E+10	1	-1E+10	1	-1E+10	1	-1E+10	1
4902549	47	C	11/26/2021	03:05	-131.838	47.141	0	141.00	0	7.2200	0	33.5380	0	26.239	0	139.780	0	187.1	4	63.4	4	-1E+10	1	-1E+10	1	-1E+10	1	-1E+10	1	-1E+10	1	-1E+10	1
4902549	47	C	11/26/2021	03:05	-131.838	47.141	0	142.40	0	7.2260	0	33.5760	0	26.268	0	141.167	0	186.5	4	63.2	4	-1E+10	1	-1E+10	1	-1E+10	1	-1E+10	1	-1E+10	1	-1E+10	1
4902549	47	C	11/26/2021	03:05	-131.838	47.141	0	143.20	0	7.2330	0	33.5940	0	26.281	0	141.960	0	186.2	4	63.1	4	-1E+10	1	-1E+10	1	-1E+10	1	-1E+10	1	-1E+10	1	-1E+10	1
4902549	47	C	11/26/2021	03:05	-131.838	47.141	0	144.10	0	7.2300	0	33.5980	0	26.285	0	142.852	0	185.9	4	63.0	4	-1E+10	1	-1E+10	1	-1E+10	1	-1E+10	1	-1E+10	1	-1E+10	1
4902549	47	C	11/26/2021	03:05	-131.838	47.141	0	145.00	0	7.2290	0	33.6000	0	26.287	0	143.744	0	185.6	4	62.9	4	-1E+10	1	-1E+10	1	-1E+10	1	-1E+10	1	-1E+10	1	-1E+10	1
4902549	47	C	11/26/2021	03:05	-131.838	47.141	0	145.90	0	7.2290	0	33.6020	0	26.288	0	144.636	0	185.3	4	62.8	4	-1E+10	1	-1E+10	1	-1E+10	1	-1E+10	1	-1E+10	1	-1E+10	1
4902549	47	C	11/26/2021	03:05	-131.838	47.141	0	146.80	0	7.2280	0	33.6070	0	26.292	0	145.528	0	184.9	4	62.7	4	-1E+10	1	-1E+10	1	-1E+10	1	-1E+10	1	-1E+10	1	-1E+10	1
4902549	47	C	11/26/2021	03:05	-131.838	47.141	0	147.70	0	7.2290	0	33.6130	0	26.297	0	146.420	0	184.6	4	62.6	4	-1E+10	1	-1E+10	1	-1E+10	1	-1E+10	1	-1E+10	1	-1E+10	1
4902549	47	C	11/26/2021	03:05	-131.838	47.141	0	148.60	0	7.2300	0	33.6160	0	26.299	0	147.312	0	184.1	4	62.4	4	-1E+10	1	-1E+10	1	-1E+10	1	-1E+10	1	-1E+10	1	-1E+10	1
4902549	47	C	11/26/2021	03:05	-131.838	47.141	0	149.90	0	7.2210	0	33.6380	0	26.318	0	148.600	0	183.7	4	62.3	4	-1E+10	1	-1E+10	1	-1E+10	1	-1E+10	1	-1E+10	1	-1E+10	1
4902549	47	C	11/26/2021	03:05	-131.838	47.141	0	151.30	0	7.2110	0	33.6540	0	26.332	0	149.987	0	183.3	4	62.1	4	-1E+10	1	-1E+10	1	-1E+10	1	-1E+10	1	-1E+10	1	-1E+10	1
4902549	47	C	11/26/2021	03:05	-131.838	47.141	0	152.20	0	7.2080	0	33.6590	0	26.336	0	150.879	0	183.0	4	62.0	4	-1E+10	1	-1E+10	1	-1E+10	1	-1E+10	1	-1E+10	1	-1E+10	1
4902549	47	C	11/26/2021	03:05	-131.838	47.141	0	153.10	0	7.2060	0	33.6620	0	26.339	0	151.771	0	182.8	4	62.0	4	-1E+10	1	-1E+10	1	-1E+10	1	-1E+10	1	-1E+10	1	-1E+10	1
4902549	47	C	11/26/2021	03:05	-131.838	47.141	0	154.00	0	7.2010	0	33.6690	0	26.345	0	152.663	0	182.5	4	61.9	4	-1E+10	1	-1E+10	1	-1E+10	1	-1E+10	1	-1E+10	1	-1E+10	1
4902549	47	C	11/26/2021	03:05	-131.838	47.141	0	154.90	0	7.1980	0	33.6750	0	26.350	0	153.555	0	182.2	4	61.8	4	-1E+10	1	-1E+10	1	-1E+10	1	-1E+10	1	-1E+10	1	-1E+10	1
4902549	47	C	11/26/2021	03:05	-131.838	47.141	0	155.80	0	7.1950	0	33.6780	0	26.353	0	154.447	0	182.0	4	61.7	4	-1E+10	1	-1E+10	1	-1E+10	1	-1E+10	1	-1E+10	1	-1E+10	1
4902549	47	C	11/26/2021	03:05	-131.838	47.141	0	156.80	0	7.1930	0	33.6810	0	26.356	0	155.437	0	181.7	4	61.6	4	-1E+10	1	-1E+10	1	-1E+10	1	-1E+10	1	-1E+10	1	-1E+10	1
4902549	47	C	11/26/2021	03:05	-131.838	47.141	0	157.70	0	7.1930	0	33.6850	0	26.359	0	156.329	0	181.4	4	61.5	4	-1E+10	1	-1E+10	1	-1E+10	1	-1E+10	1	-1E+10	1	-1E+10	1
4902549	47	C	11/26/2021	03:05	-131.838	47.141	0	158.60	0	7.1840	0	33.6920	0	26.365	0	157.221	0	181.2	4	61.4	4	-1E+10	1	-1E+10	1	-1E+10	1	-1E+10	1	-1E+10	1	-1E+10	1
4902549	47	C	11/26/2021	03:05	-131.838	47.141	0	159.50	0	7.1840	0	33.6920	0	26.365	0	158.113	0	180.9	4	61.3	4	-1E+10	1	-1E+10	1	-1E+10	1	-1E+10	1	-1E+10	1	-1E+10	1
4902549	47	C	11/26/2021	03:05	-131.838	47.141	0	160.90	0	7.1750	0	33.6980	0	26.371	0	159.500	0	180.5	4	61.2	4	-1E+10	1	-1E+10	1	-1E+10	1	-1E+10	1	-1E+10	1	-1E+10	1
4902549	47	C	11/26/2021	03:05	-131.838	47.141	0	162.30	0	7.1670	0	33.7020	0	26.376	0	160.888	0	180.0	4	61.0	4	-1E+10	1	-1E+10	1	-1E+10	1	-1E+10	1	-1E+10	1	-1E+10	1
4902549	47	C	11/26/2021	03:05	-131.838	47.141	0	163.30	0	7.1540	0	33.7080	0	26.382	0	161.878	0	179.7	4	60.9	4	-1E+10	1	-1E+10	1	-1E+10	1	-1E+10	1	-1E+10	1	-1E+10	1
4902549	47	C	11/26/2021	03:05	-131.838	47.141	0	164.20	0	7.1460	0	33.7110	0	26.386	0	162.770	0	179.4	4	60.8	4	-1E+10	1	-1E+10	1	-1E+10	1	-1E+10	1	-1E+10	1	-1E+10	1
4902549	47	C	11/26/2021	03:05	-131.838	47.141	0	165.10	0	7.1390	0	33.7150	0	26.390	0	163.662	0	179.1	4	60.7	4	-1E+10	1	-1E+10	1	-1E+10	1	-1E+10	1	-1E+10	1	-1E+10	1
4902549	47	C	11/26/2021	03:05	-131.838	47.141	0	166.10	0	7.1270	0	33.7200	0	26.395	0	164.653	0	178.8	4	60.5	4	-1E+10	1	-1E+10	1	-1E+10	1	-1E+10	1	-1E+10	1	-1E+10	1
4902549	47	C	11/26/2021	03:05	-131.838	47.141	0	167.00	0	7.1240	0	33.7210	0	26.397	0	165.545	0	178.5	4	60.4	4	-1E+10	1	-1E+10	1	-1E+10	1	-1E+10	1	-1E+10	1	-1E+10	1
4902549	47	C	11/26/2021	03:05	-131.838	47.141	0	168.00	0	7.1120	0	33.7280	0	26.404	0	166.536	0	178.3	4	60.3	4	-1E+10	1	-1E+10	1	-1E+10	1	-1E+10	1	-1E+10	1	-1E+10	1
4902549	47	C	11/26/2021	03:05	-131.838	47.141	0	169.00	0	7.1050	0	33.7300	0	26.406	0	167.526	0	178.0	4	60.2	4	-1E+10	1	-1E+10	1	-1E+10	1	-1E+10	1	-1E+10	1	-1E+10	1
4902549	47	C	11/26/2021	03:05	-131.838	47.141	0	169.90	0	7.1010	0	33.7310	0	26.408	0	168.418	0	177.7	4	60.1	4	-1E+10	1	-1E+10	1	-1E+10	1	-1E+10	1	-1E+10	1	-1E+10	1
4902549	47	C	11/26/2021	03:05	-131.838	47.141	0	170.90	0	7.0940	0	33.7330	0	26.410	0	169.409	0	177.4	4	60.0	4	-1E+10	1	-1E+10	1	-1E+10	1	-1E+10	1	-1E+10	1	-1E+10	1
4902549	47	C	11/26/2021	03:05	-131.838	47.141	0	171.80	0	7.0930	0	33.7330	0	26.410	0	170.301	0	177.2	4	59.9	4	-1E+10	1	-1E+10	1	-1E+10	1	-1E+10	1	-1E+10	1	-1E+10	1
4902549	47	C	11/26/2021	03:05	-131.838	47.141	0	172.80	0	7.0830	0	33.7350	0	26.413	0	171.292	0	176.8	4	59.8	4	-1E+10	1	-1E+10	1	-1E+10	1	-1E+10	1	-1E+10	1	-1E+10	1
4902549	47	C	11/26/2021	03:05	-131.838	47.141	0	173.90	0	7.0710	0	33.7390	0	26.418	0	172.382	0	176.4	4	59.7	4	-1E+10	1	-1E+10	1	-1E+10	1	-1E+10	1	-1E+10	1	-1E+10	1
4902549	47	C	11/26/2021	03:05	-131.838	47.141	0	174.70	0	7.0610	0	33.7410	0	26.421	0	173.174	0	176.2	4	59.6	4	-1E+10	1	-1E+10	1	-1E+10	1	-1E+10	1	-1E+10	1	-1E+10	1
4902549	47	C	11/26/2021	03:05	-131.838	47.141	0	175.70	0	7.0460	0	33.7440	0	26.426	0	174.165	0	175.9	4	59.5	4	-1E+10	1	-1E+10	1	-1E+10	1	-1E+10	1	-1E+10	1	-1E+10	1
4902549	47	C	11/26/2021	03:05	-131.838	47.141	0	176.70	0	7.0460	0	33.7430	0	26.425	0	175.156	0	175.6	4	59.3	4	-1E+10	1	-1E+10	1	-1E+10	1	-1E+10	1	-1E+10	1	-1E+10	1
4902549	47	C	11/26/2021	03:05	-131.838	47.141	0	177.70	0	7.0380	0	33.7460	0	26.428	0	176.147	0	175.1	4	59.2	4	-1E+10	1	-1E+10	1	-1E+10	1	-1E+10	1	-1E+10	1	-1E+10	1
4902549	47	C	11/26/2021	03:05	-131.838	47.141	0	178.70	0	7.0360	0	33.7460	0	26.429	0	177.138	0	174.8	4	59.1	4	-1E+10	1	-1E+10	1	-1E+10	1	-1E+10	1	-1E+10	1	-1E+10	1
4902549	47	C	11/26/2021	03:05	-131.838	47.141	0	179.70	0	7.0150	0	33.7500	0	26.435	0	178.129	0	174.5	4	58.9	4	-1E+10	1	-1E+10	1	-1E+10	1	-1E+10	1	-1E+10	1	-1E+10	1
4902549	47	C	11/26/2021	03:05	-131.838	47.141	0	180.70	0	7.0140	0	33.7490	0	26.434	0	179.119	0	174.0	4	58.8	4	-1E+10	1	-1E+10	1	-1E+10	1	-1E+10	1	-1E+10	1	-1E+10	1
4902549	47	C	11/26/2021	03:05	-131.838	47.141	0	181.70	0	7.0110	0	33.7490	0	26.434	0	180.110	0	173.5	4	58.6	4	-1E+10	1	-1E+10	1	-1E+10	1	-1E+10	1	-1E+10	1	-1E+10	1
4902549	47	C	11/26/2021	03:05	-131.838	47.141	0	182.70	0	6.9960	0	33.7530	0	26.440	0	181.101	0	173.0	4	58.4	4	-1E+10	1	-1E+10	1	-1E+10	1	-1E+10	1	-1E+10	1	-1E+10	1
4902549	47	C	11/26/2021	03:05	-131.838	47.141	0	183.70	0	6.9930	0	33.7510	0	26.438	0	182.092	0	172.4	4	58.2	4	-1E+10	1	-1E+10	1	-1E+10	1	-1E+10	1	-1E+10	1	-1E+10	1
4902549	47	C	11/26/2021	03:05	-131.838	47.141	0	184.60	0	6.9890	0	33.7500	0	26.438	0	182.984	0	171.7	4	58.0	4	-1E+10	1	-1E+10	1	-1E+10	1	-1E+10	1	-1E+10	1	-1E+10	1
4902549	47	C	11/26/2021	03:05	-131.838	47.141	0	185.60	0	6.9490	0	33.7580	0	26.450	0	183.974	0	171.2	4	57.8	4	-1E+10	1	-1E+10	1	-1E+10	1	-1E+10	1	-1E+10	1	-1E+10	1
4902549	47	C	11/26/2021	03:05	-131.838	47.141	0	186.60	0	6.9190	0	33.7640	0	26.459	0	184.965	0	170.8	4	57.6	4	-1E+10	1	-1E+10	1	-1E+10	1	-1E+10	1	-1E+10	1	-1E+10	1
4902549	47	C	11/26/2021	03:05	-131.838	47.141	0	187.60	0	6.8750	0	33.7720	0	26.471	0	185.956	0	170.5	4	57.4	4	-1E+10	1	-1E+10	1	-1E+10	1	-1E+10	1	-1E+10	1	-1E+10	1
4902549	47	C	11/26/2021	03:05	-131.838	47.141	0	188.80	0	6.8570	0	33.7680	0	26.470	0	187.145	0	170.2	4	57.3	4	-1E+10	1	-1E+10	1	-1E+10	1	-1E+10	1	-1E+10	1	-1E+10	1
4902549	47	C	11/26/2021	03:05	-131.838	47.141	0	189.60	0	6.8490	0	33.7700	0	26.473	0	187.938	0	170.0	4	57.2	4	-1E+10	1	-1E+10	1	-1E+10	1	-1E+10	1	-1E+10	1	-1E+10	1
4902549	47	C	11/26/2021	03:05	-131.838	47.141	0	190.60	0	6.8380	0	33.7700	0	26.474	0	188.928	0	169.8	4	57.1	4	-1E+10	1	-1E+10	1	-1E+10	1	-1E+10	1	-1E+10	1	-1E+10	1
4902549	47	C	11/26/2021	03:05	-131.838	47.141	0	191.60	0	6.8350	0	33.7670	0	26.472	0	189.919	0	169.5	4	57.0	4	-1E+10	1	-1E+10	1	-1E+10	1	-1E+10	1	-1E+10	1	-1E+10	1
4902549	47	C	11/26/2021	03:05	-131.838	47.141	0	192.70	0	6.8280	0	33.7710	0	26.477	0	191.009	0	169.2	4	56.9	4	-1E+10	1	-1E+10	1	-1E+10	1	-1E+10	1	-1E+10	1	-1E+10	1
4902549	47	C	11/26/2021	03:05	-131.838	47.141	0	193.70	0	6.8280	0	33.7690	0	26.475	0	192.000	0	168.7	4	56.8	4	-1E+10	1	-1E+10	1	-1E+10	1	-1E+10	1	-1E+10	1	-1E+10	1
4902549	47	C	11/26/2021	03:05	-131.838	47.141	0	194.70	0	6.8220	0	33.7680	0	26.475	0	192.990	0	168.4	4	56.6	4	-1E+10	1	-1E+10	1	-1E+10	1	-1E+10	1	-1E+10	1	-1E+10	1
4902549	47	C	11/26/2021	03:05	-131.838	47.141	0	195.70	0	6.8210	0	33.7680	0	26.475	0	193.981	0	167.9	4	56.5	4	-1E+10	1	-1E+10	1	-1E+10	1	-1E+10	1	-1E+10	1	-1E+10	1
4902549	47	C	11/26/2021	03:05	-131.838	47.141	0	196.70	0	6.8070	0	33.7690	0	26.478	0	194.972	0	167.4	4	56.3	4	-1E+10	1	-1E+10	1	-1E+10	1	-1E+10	1	-1E+10	1	-1E+10	1
4902549	47	C	11/26/2021	03:05	-131.838	47.141	0	197.60	0	6.7970	0	33.7710	0	26.481	0	195.864	0	166.9	4	56.1	4	-1E+10	1	-1E+10	1	-1E+10	1	-1E+10	1	-1E+10	1	-1E+10	1
4902549	47	C	11/26/2021	03:05	-131.838	47.141	0	198.60	0	6.7900	0	33.7700	0	26.481	0	196.854	0	166.4	4	55.9	4	-1E+10	1	-1E+10	1	-1E+10	1	-1E+10	1	-1E+10	1	-1E+10	1
4902549	47	C	11/26/2021	03:05	-131.838	47.141	0	199.60	0	6.7900	0	33.7710	0	26.482	0	197.845	0	165.9	4	55.7	4	-1E+10	1	-1E+10	1	-1E+10	1	-1E+10	1	-1E+10	1	-1E+10	1
4902549	47	C	11/26/2021	03:05	-131.838	47.141	0	200.60	0	6.7760	0	33.7700	0	26.483	0	198.836	0	165.3	4	55.5	4	-1E+10	1	-1E+10	1	-1E+10	1	-1E+10	1	-1E+10	1	-1E+10	1
4902549	47	C	11/26/2021	03:05	-131.838	47.141	0	201.80	0	6.7450	0	33.7720	0	26.489	0	200.025	0	164.6	4	55.3	4	-1E+10	1	-1E+10	1	-1E+10	1	-1E+10	1	-1E+10	1	-1E+10	1
4902549	47	C	11/26/2021	03:05	-131.838	47.141	0	202.60	0	6.7260	0	33.7730	0	26.492	0	200.817	0	164.1	4	55.1	4	-1E+10	1	-1E+10	1	-1E+10	1	-1E+10	1	-1E+10	1	-1E+10	1
4902549	47	C	11/26/2021	03:05	-131.838	47.141	0	203.60	0	6.7070	0	33.7720	0	26.494	0	201.808	0	163.5	4	54.9	4	-1E+10	1	-1E+10	1	-1E+10	1	-1E+10	1	-1E+10	1	-1E+10	1
4902549	47	C	11/26/2021	03:05	-131.838	47.141	0	204.60	0	6.6900	0	33.7750	0	26.498	0	202.799	0	162.9	4	54.6	4	-1E+10	1	-1E+10	1	-1E+10	1	-1E+10	1	-1E+10	1	-1E+10	1
4902549	47	C	11/26/2021	03:05	-131.838	47.141	0	205.80	0	6.6600	0	33.7760	0	26.503	0	203.987	0	162.3	4	54.4	4	-1E+10	1	-1E+10	1	-1E+10	1	-1E+10	1	-1E+10	1	-1E+10	1
4902549	47	C	11/26/2021	03:05	-131.838	47.141	0	206.50	0	6.6520	0	33.7770	0	26.505	0	204.681	0	161.9	4	54.2	4	-1E+10	1	-1E+10	1	-1E+10	1	-1E+10	1	-1E+10	1	-1E+10	1
4902549	47	C	11/26/2021	03:05	-131.838	47.141	0	207.50	0	6.6450	0	33.7780	0	26.507	0	205.672	0	161.3	4	54.0	4	-1E+10	1	-1E+10	1	-1E+10	1	-1E+10	1	-1E+10	1	-1E+10	1
4902549	47	C	11/26/2021	03:05	-131.838	47.141	0	208.50	0	6.6440	0	33.7790	0	26.508	0	206.662	0	160.7	4	53.8	4	-1E+10	1	-1E+10	1	-1E+10	1	-1E+10	1	-1E+10	1	-1E+10	1
4902549	47	C	11/26/2021	03:05	-131.838	47.141	0	209.50	0	6.6330	0	33.7820	0	26.511	0	207.653	0	160.2	4	53.7	4	-1E+10	1	-1E+10	1	-1E+10	1	-1E+10	1	-1E+10	1	-1E+10	1
4902549	47	C	11/26/2021	03:05	-131.838	47.141	0	210.50	0	6.6330	0	33.7820	0	26.511	0	208.644	0	159.7	4	53.5	4	-1E+10	1	-1E+10	1	-1E+10	1	-1E+10	1	-1E+10	1	-1E+10	1
4902549	47	C	11/26/2021	03:05	-131.838	47.141	0	211.50	0	6.6320	0	33.7840	0	26.513	0	209.634	0	159.2	4	53.3	4	-1E+10	1	-1E+10	1	-1E+10	1	-1E+10	1	-1E+10	1	-1E+10	1
4902549	47	C	11/26/2021	03:05	-131.838	47.141	0	212.50	0	6.6130	0	33.7870	0	26.518	0	210.625	0	158.6	4	53.1	4	-1E+10	1	-1E+10	1	-1E+10	1	-1E+10	1	-1E+10	1	-1E+10	1
4902549	47	C	11/26/2021	03:05	-131.838	47.141	0	213.50	0	6.5890	0	33.7820	0	26.517	0	211.616	0	158.1	4	52.9	4	-1E+10	1	-1E+10	1	-1E+10	1	-1E+10	1	-1E+10	1	-1E+10	1
4902549	47	C	11/26/2021	03:05	-131.838	47.141	0	214.90	0	6.5660	0	33.7800	0	26.519	0	213.003	0	157.1	4	52.5	4	-1E+10	1	-1E+10	1	-1E+10	1	-1E+10	1	-1E+10	1	-1E+10	1
4902549	47	C	11/26/2021	03:05	-131.838	47.141	0	216.90	0	6.5130	0	33.7820	0	26.527	0	214.984	0	155.6	4	52.0	4	-1E+10	1	-1E+10	1	-1E+10	1	-1E+10	1	-1E+10	1	-1E+10	1
4902549	47	C	11/26/2021	03:05	-131.838	47.141	0	218.40	0	6.5050	0	33.7850	0	26.531	0	216.470	0	154.5	4	51.6	4	-1E+10	1	-1E+10	1	-1E+10	1	-1E+10	1	-1E+10	1	-1E+10	1
4902549	47	C	11/26/2021	03:05	-131.838	47.141	0	219.40	0	6.5020	0	33.7880	0	26.533	0	217.461	0	153.8	4	51.3	4	-1E+10	1	-1E+10	1	-1E+10	1	-1E+10	1	-1E+10	1	-1E+10	1
4902549	47	C	11/26/2021	03:05	-131.838	47.141	0	220.60	0	6.5020	0	33.7880	0	26.533	0	218.649	0	152.6	4	51.0	4	-1E+10	1	-1E+10	1	-1E+10	1	-1E+10	1	-1E+10	1	-1E+10	1
4902549	47	C	11/26/2021	03:05	-131.838	47.141	0	221.60	0	6.4980	0	33.7900	0	26.535	0	219.640	0	151.7	4	50.6	4	-1E+10	1	-1E+10	1	-1E+10	1	-1E+10	1	-1E+10	1	-1E+10	1
4902549	47	C	11/26/2021	03:05	-131.838	47.141	0	222.50	0	6.4910	0	33.7910	0	26.537	0	220.531	0	150.9	4	50.4	4	-1E+10	1	-1E+10	1	-1E+10	1	-1E+10	1	-1E+10	1	-1E+10	1
4902549	47	C	11/26/2021	03:05	-131.838	47.141	0	223.50	0	6.4670	0	33.7940	0	26.543	0	221.522	0	149.9	4	50.0	4	-1E+10	1	-1E+10	1	-1E+10	1	-1E+10	1	-1E+10	1	-1E+10	1
4902549	47	C	11/26/2021	03:05	-131.838	47.141	0	225.00	0	6.4770	0	33.7980	0	26.545	0	223.008	0	148.3	4	49.5	4	-1E+10	1	-1E+10	1	-1E+10	1	-1E+10	1	-1E+10	1	-1E+10	1
4902549	47	C	11/26/2021	03:05	-131.838	47.141	0	226.40	0	6.4750	0	33.8080	0	26.553	0	224.395	0	146.9	4	49.0	4	-1E+10	1	-1E+10	1	-1E+10	1	-1E+10	1	-1E+10	1	-1E+10	1
4902549	47	C	11/26/2021	03:05	-131.838	47.141	0	227.80	0	6.4290	0	33.8120	0	26.562	0	225.782	0	146.1	4	48.7	4	-1E+10	1	-1E+10	1	-1E+10	1	-1E+10	1	-1E+10	1	-1E+10	1
4902549	47	C	11/26/2021	03:05	-131.838	47.141	0	229.00	0	6.4220	0	33.8110	0	26.562	0	226.970	0	145.2	4	48.4	4	-1E+10	1	-1E+10	1	-1E+10	1	-1E+10	1	-1E+10	1	-1E+10	1
4902549	47	C	11/26/2021	03:05	-131.838	47.141	0	229.80	0	6.4090	0	33.8140	0	26.566	0	227.763	0	144.6	4	48.2	4	-1E+10	1	-1E+10	1	-1E+10	1	-1E+10	1	-1E+10	1	-1E+10	1
4902549	47	C	11/26/2021	03:05	-131.838	47.141	0	231.00	0	6.3760	0	33.8150	0	26.571	0	228.952	0	143.8	4	47.9	4	-1E+10	1	-1E+10	1	-1E+10	1	-1E+10	1	-1E+10	1	-1E+10	1
4902549	47	C	11/26/2021	03:05	-131.838	47.141	0	232.20	0	6.3540	0	33.8160	0	26.575	0	230.140	0	143.1	4	47.6	4	-1E+10	1	-1E+10	1	-1E+10	1	-1E+10	1	-1E+10	1	-1E+10	1
4902549	47	C	11/26/2021	03:05	-131.838	47.141	0	233.00	0	6.3430	0	33.8190	0	26.579	0	230.933	0	142.5	4	47.4	4	-1E+10	1	-1E+10	1	-1E+10	1	-1E+10	1	-1E+10	1	-1E+10	1
4902549	47	C	11/26/2021	03:05	-131.838	47.141	0	233.80	0	6.3340	0	33.8210	0	26.581	0	231.725	0	142.2	4	47.3	4	-1E+10	1	-1E+10	1	-1E+10	1	-1E+10	1	-1E+10	1	-1E+10	1
4902549	47	C	11/26/2021	03:05	-131.838	47.141	0	234.70	0	6.3350	0	33.8220	0	26.582	0	232.617	0	141.7	4	47.2	4	-1E+10	1	-1E+10	1	-1E+10	1	-1E+10	1	-1E+10	1	-1E+10	1
4902549	47	C	11/26/2021	03:05	-131.838	47.141	0	235.90	0	6.3370	0	33.8230	0	26.583	0	233.805	0	140.9	4	46.9	4	-1E+10	1	-1E+10	1	-1E+10	1	-1E+10	1	-1E+10	1	-1E+10	1
4902549	47	C	11/26/2021	03:05	-131.838	47.141	0	237.10	0	6.3370	0	33.8250	0	26.584	0	234.994	0	140.1	4	46.6	4	-1E+10	1	-1E+10	1	-1E+10	1	-1E+10	1	-1E+10	1	-1E+10	1
4902549	47	C	11/26/2021	03:05	-131.838	47.141	0	238.00	0	6.3380	0	33.8270	0	26.586	0	235.886	0	139.6	4	46.4	4	-1E+10	1	-1E+10	1	-1E+10	1	-1E+10	1	-1E+10	1	-1E+10	1
4902549	47	C	11/26/2021	03:05	-131.838	47.141	0	238.80	0	6.3360	0	33.8290	0	26.587	0	236.678	0	139.0	4	46.3	4	-1E+10	1	-1E+10	1	-1E+10	1	-1E+10	1	-1E+10	1	-1E+10	1
4902549	47	C	11/26/2021	03:05	-131.838	47.141	0	239.90	0	6.3290	0	33.8310	0	26.590	0	237.768	0	138.4	4	46.0	4	-1E+10	1	-1E+10	1	-1E+10	1	-1E+10	1	-1E+10	1	-1E+10	1
4902549	47	C	11/26/2021	03:05	-131.838	47.141	0	241.00	0	6.3140	0	33.8310	0	26.592	0	238.857	0	137.6	4	45.8	4	-1E+10	1	-1E+10	1	-1E+10	1	-1E+10	1	-1E+10	1	-1E+10	1
4902549	47	C	11/26/2021	03:05	-131.838	47.141	0	242.30	0	6.3030	0	33.8330	0	26.595	0	240.145	0	136.8	4	45.5	4	-1E+10	1	-1E+10	1	-1E+10	1	-1E+10	1	-1E+10	1	-1E+10	1
4902549	47	C	11/26/2021	03:05	-131.838	47.141	0	243.40	0	6.2790	0	33.8370	0	26.601	0	241.234	0	136.2	4	45.3	4	-1E+10	1	-1E+10	1	-1E+10	1	-1E+10	1	-1E+10	1	-1E+10	1
4902549	47	C	11/26/2021	03:05	-131.838	47.141	0	244.10	0	6.2710	0	33.8360	0	26.601	0	241.928	0	135.8	4	45.1	4	-1E+10	1	-1E+10	1	-1E+10	1	-1E+10	1	-1E+10	1	-1E+10	1
4902549	47	C	11/26/2021	03:05	-131.838	47.141	0	244.90	0	6.2530	0	33.8350	0	26.603	0	242.720	0	135.4	4	45.0	4	-1E+10	1	-1E+10	1	-1E+10	1	-1E+10	1	-1E+10	1	-1E+10	1
4902549	47	C	11/26/2021	03:05	-131.838	47.141	0	246.00	0	6.2420	0	33.8330	0	26.603	0	243.810	0	134.7	4	44.7	4	-1E+10	1	-1E+10	1	-1E+10	1	-1E+10	1	-1E+10	1	-1E+10	1
4902549	47	C	11/26/2021	03:05	-131.838	47.141	0	246.70	0	6.1890	0	33.8420	0	26.617	0	244.503	0	134.4	4	44.6	4	-1E+10	1	-1E+10	1	-1E+10	1	-1E+10	1	-1E+10	1	-1E+10	1
4902549	47	C	11/26/2021	03:05	-131.838	47.141	0	247.60	0	6.1310	0	33.8260	0	26.611	0	245.395	0	134.1	4	44.4	4	-1E+10	1	-1E+10	1	-1E+10	1	-1E+10	1	-1E+10	1	-1E+10	1
4902549	47	C	11/26/2021	03:05	-131.838	47.141	0	248.90	0	6.0840	0	33.8250	0	26.616	0	246.682	0	133.5	4	44.2	4	-1E+10	1	-1E+10	1	-1E+10	1	-1E+10	1	-1E+10	1	-1E+10	1
4902549	47	C	11/26/2021	03:05	-131.838	47.141	0	250.20	0	6.1020	0	33.8280	0	26.617	0	247.970	0	132.7	4	43.9	4	-1E+10	1	-1E+10	1	-1E+10	1	-1E+10	1	-1E+10	1	-1E+10	1
4902549	47	C	11/26/2021	03:05	-131.838	47.141	0	251.10	0	6.1330	0	33.8260	0	26.611	0	248.861	0	132.0	4	43.7	4	-1E+10	1	-1E+10	1	-1E+10	1	-1E+10	1	-1E+10	1	-1E+10	1
4902549	47	C	11/26/2021	03:05	-131.838	47.141	0	252.00	0	6.1540	0	33.8400	0	26.620	0	249.753	0	131.3	4	43.5	4	-1E+10	1	-1E+10	1	-1E+10	1	-1E+10	1	-1E+10	1	-1E+10	1
4902549	47	C	11/26/2021	03:05	-131.838	47.141	0	252.90	0	6.1480	0	33.8430	0	26.623	0	250.644	0	130.8	4	43.3	4	-1E+10	1	-1E+10	1	-1E+10	1	-1E+10	1	-1E+10	1	-1E+10	1
4902549	47	C	11/26/2021	03:05	-131.838	47.141	0	254.00	0	6.1450	0	33.8420	0	26.622	0	251.734	0	130.1	4	43.1	4	-1E+10	1	-1E+10	1	-1E+10	1	-1E+10	1	-1E+10	1	-1E+10	1
4902549	47	C	11/26/2021	03:05	-131.838	47.141	0	254.90	0	6.1380	0	33.8420	0	26.623	0	252.625	0	129.4	4	42.9	4	-1E+10	1	-1E+10	1	-1E+10	1	-1E+10	1	-1E+10	1	-1E+10	1
4902549	47	C	11/26/2021	03:05	-131.838	47.141	0	255.60	0	6.1230	0	33.8450	0	26.627	0	253.318	0	128.9	4	42.7	4	-1E+10	1	-1E+10	1	-1E+10	1	-1E+10	1	-1E+10	1	-1E+10	1
4902549	47	C	11/26/2021	03:05	-131.838	47.141	0	256.50	0	6.0910	0	33.8430	0	26.630	0	254.210	0	128.4	4	42.5	4	-1E+10	1	-1E+10	1	-1E+10	1	-1E+10	1	-1E+10	1	-1E+10	1
4902549	47	C	11/26/2021	03:05	-131.838	47.141	0	257.90	0	6.0720	0	33.8430	0	26.632	0	255.596	0	127.4	4	42.1	4	-1E+10	1	-1E+10	1	-1E+10	1	-1E+10	1	-1E+10	1	-1E+10	1
4902549	47	C	11/26/2021	03:05	-131.838	47.141	0	259.30	0	6.0190	0	33.8420	0	26.638	0	256.983	0	126.7	4	41.9	4	-1E+10	1	-1E+10	1	-1E+10	1	-1E+10	1	-1E+10	1	-1E+10	1
4902549	47	C	11/26/2021	03:05	-131.838	47.141	0	260.30	0	5.9920	0	33.8440	0	26.643	0	257.973	0	126.3	4	41.7	4	-1E+10	1	-1E+10	1	-1E+10	1	-1E+10	1	-1E+10	1	-1E+10	1
4902549	47	C	11/26/2021	03:05	-131.838	47.141	0	261.10	0	5.9760	0	33.8440	0	26.645	0	258.766	0	125.9	4	41.6	4	-1E+10	1	-1E+10	1	-1E+10	1	-1E+10	1	-1E+10	1	-1E+10	1
4902549	47	C	11/26/2021	03:05	-131.838	47.141	0	262.00	0	5.9560	0	33.8430	0	26.647	0	259.657	0	125.6	4	41.4	4	-1E+10	1	-1E+10	1	-1E+10	1	-1E+10	1	-1E+10	1	-1E+10	1
4902549	47	C	11/26/2021	03:05	-131.838	47.141	0	262.90	0	5.9450	0	33.8420	0	26.647	0	260.549	0	125.1	4	41.3	4	-1E+10	1	-1E+10	1	-1E+10	1	-1E+10	1	-1E+10	1	-1E+10	1
4902549	47	C	11/26/2021	03:05	-131.838	47.141	0	263.80	0	5.9230	0	33.8440	0	26.652	0	261.440	0	124.6	4	41.1	4	-1E+10	1	-1E+10	1	-1E+10	1	-1E+10	1	-1E+10	1	-1E+10	1
4902549	47	C	11/26/2021	03:05	-131.838	47.141	0	264.70	0	5.9140	0	33.8410	0	26.650	0	262.331	0	124.1	4	40.9	4	-1E+10	1	-1E+10	1	-1E+10	1	-1E+10	1	-1E+10	1	-1E+10	1
4902549	47	C	11/26/2021	03:05	-131.838	47.141	0	265.60	0	5.8940	0	33.8390	0	26.651	0	263.223	0	123.7	4	40.7	4	-1E+10	1	-1E+10	1	-1E+10	1	-1E+10	1	-1E+10	1	-1E+10	1
4902549	47	C	11/26/2021	03:05	-131.838	47.141	0	267.00	0	5.8650	0	33.8390	0	26.655	0	264.609	0	122.9	4	40.4	4	-1E+10	1	-1E+10	1	-1E+10	1	-1E+10	1	-1E+10	1	-1E+10	1
4902549	47	C	11/26/2021	03:05	-131.838	47.141	0	268.40	0	5.8360	0	33.8400	0	26.659	0	265.996	0	122.1	4	40.2	4	-1E+10	1	-1E+10	1	-1E+10	1	-1E+10	1	-1E+10	1	-1E+10	1
4902549	47	C	11/26/2021	03:05	-131.838	47.141	0	269.40	0	5.7930	0	33.8380	0	26.663	0	266.986	0	121.6	4	40.0	4	-1E+10	1	-1E+10	1	-1E+10	1	-1E+10	1	-1E+10	1	-1E+10	1
4902549	47	C	11/26/2021	03:05	-131.838	47.141	0	270.30	0	5.7770	0	33.8380	0	26.665	0	267.878	0	121.1	4	39.8	4	-1E+10	1	-1E+10	1	-1E+10	1	-1E+10	1	-1E+10	1	-1E+10	1
4902549	47	C	11/26/2021	03:05	-131.838	47.141	0	271.10	0	5.7730	0	33.8380	0	26.666	0	268.670	0	120.6	4	39.6	4	-1E+10	1	-1E+10	1	-1E+10	1	-1E+10	1	-1E+10	1	-1E+10	1
4902549	47	C	11/26/2021	03:05	-131.838	47.141	0	272.00	0	5.7710	0	33.8370	0	26.665	0	269.561	0	120.0	4	39.4	4	-1E+10	1	-1E+10	1	-1E+10	1	-1E+10	1	-1E+10	1	-1E+10	1
4902549	47	C	11/26/2021	03:05	-131.838	47.141	0	272.80	0	5.7670	0	33.8380	0	26.666	0	270.354	0	119.4	4	39.2	4	-1E+10	1	-1E+10	1	-1E+10	1	-1E+10	1	-1E+10	1	-1E+10	1
4902549	47	C	11/26/2021	03:05	-131.838	47.141	0	273.60	0	5.7630	0	33.8360	0	26.665	0	271.146	0	118.6	4	39.0	4	-1E+10	1	-1E+10	1	-1E+10	1	-1E+10	1	-1E+10	1	-1E+10	1
4902549	47	C	11/26/2021	03:05	-131.838	47.141	0	274.70	0	5.7500	0	33.8360	0	26.667	0	272.235	0	117.8	4	38.7	4	-1E+10	1	-1E+10	1	-1E+10	1	-1E+10	1	-1E+10	1	-1E+10	1
4902549	47	C	11/26/2021	03:05	-131.838	47.141	0	275.60	0	5.7200	0	33.8350	0	26.670	0	273.127	0	117.0	4	38.4	4	-1E+10	1	-1E+10	1	-1E+10	1	-1E+10	1	-1E+10	1	-1E+10	1
4902549	47	C	11/26/2021	03:05	-131.838	47.141	0	276.90	0	5.6760	0	33.8350	0	26.675	0	274.414	0	116.1	4	38.0	4	-1E+10	1	-1E+10	1	-1E+10	1	-1E+10	1	-1E+10	1	-1E+10	1
4902549	47	C	11/26/2021	03:05	-131.838	47.141	0	278.20	0	5.6670	0	33.8370	0	26.678	0	275.702	0	115.0	4	37.7	4	-1E+10	1	-1E+10	1	-1E+10	1	-1E+10	1	-1E+10	1	-1E+10	1
4902549	47	C	11/26/2021	03:05	-131.838	47.141	0	278.90	0	5.6180	0	33.8370	0	26.684	0	276.395	0	114.6	4	37.5	4	-1E+10	1	-1E+10	1	-1E+10	1	-1E+10	1	-1E+10	1	-1E+10	1
4902549	47	C	11/26/2021	03:05	-131.838	47.141	0	279.80	0	5.6100	0	33.8370	0	26.685	0	277.286	0	114.0	4	37.3	4	-1E+10	1	-1E+10	1	-1E+10	1	-1E+10	1	-1E+10	1	-1E+10	1
4902549	47	C	11/26/2021	03:05	-131.838	47.141	0	280.90	0	5.5810	0	33.8420	0	26.692	0	278.376	0	113.3	4	37.0	4	-1E+10	1	-1E+10	1	-1E+10	1	-1E+10	1	-1E+10	1	-1E+10	1
4902549	47	C	11/26/2021	03:05	-131.838	47.141	0	281.80	0	5.5690	0	33.8400	0	26.692	0	279.267	0	112.7	4	36.9	4	-1E+10	1	-1E+10	1	-1E+10	1	-1E+10	1	-1E+10	1	-1E+10	1
4902549	47	C	11/26/2021	03:05	-131.838	47.141	0	282.70	0	5.5500	0	33.8430	0	26.697	0	280.158	0	112.2	4	36.7	4	-1E+10	1	-1E+10	1	-1E+10	1	-1E+10	1	-1E+10	1	-1E+10	1
4902549	47	C	11/26/2021	03:05	-131.838	47.141	0	283.60	0	5.5380	0	33.8450	0	26.700	0	281.049	0	111.8	4	36.5	4	-1E+10	1	-1E+10	1	-1E+10	1	-1E+10	1	-1E+10	1	-1E+10	1
4902549	47	C	11/26/2021	03:05	-131.838	47.141	0	284.90	0	5.5350	0	33.8480	0	26.702	0	282.337	0	111.1	4	36.3	4	-1E+10	1	-1E+10	1	-1E+10	1	-1E+10	1	-1E+10	1	-1E+10	1
4902549	47	C	11/26/2021	03:05	-131.838	47.141	0	286.30	0	5.5330	0	33.8480	0	26.703	0	283.723	0	110.4	4	36.1	4	-1E+10	1	-1E+10	1	-1E+10	1	-1E+10	1	-1E+10	1	-1E+10	1
4902549	47	C	11/26/2021	03:05	-131.838	47.141	0	287.20	0	5.5310	0	33.8480	0	26.703	0	284.615	0	109.8	4	35.9	4	-1E+10	1	-1E+10	1	-1E+10	1	-1E+10	1	-1E+10	1	-1E+10	1
4902549	47	C	11/26/2021	03:05	-131.838	47.141	0	288.00	0	5.5170	0	33.8500	0	26.706	0	285.407	0	109.2	4	35.7	4	-1E+10	1	-1E+10	1	-1E+10	1	-1E+10	1	-1E+10	1	-1E+10	1
4902549	47	C	11/26/2021	03:05	-131.838	47.141	0	288.90	0	5.4950	0	33.8530	0	26.711	0	286.298	0	108.8	4	35.5	4	-1E+10	1	-1E+10	1	-1E+10	1	-1E+10	1	-1E+10	1	-1E+10	1
4902549	47	C	11/26/2021	03:05	-131.838	47.141	0	289.80	0	5.4770	0	33.8520	0	26.712	0	287.189	0	108.4	4	35.3	4	-1E+10	1	-1E+10	1	-1E+10	1	-1E+10	1	-1E+10	1	-1E+10	1
4902549	47	C	11/26/2021	03:05	-131.838	47.141	0	290.70	0	5.4730	0	33.8510	0	26.712	0	288.081	0	107.9	4	35.2	4	-1E+10	1	-1E+10	1	-1E+10	1	-1E+10	1	-1E+10	1	-1E+10	1
4902549	47	C	11/26/2021	03:05	-131.838	47.141	0	291.60	0	5.4580	0	33.8540	0	26.716	0	288.972	0	107.4	4	35.0	4	-1E+10	1	-1E+10	1	-1E+10	1	-1E+10	1	-1E+10	1	-1E+10	1
4902549	47	C	11/26/2021	03:05	-131.838	47.141	0	292.90	0	5.4410	0	33.8510	0	26.716	0	290.259	0	106.8	4	34.8	4	-1E+10	1	-1E+10	1	-1E+10	1	-1E+10	1	-1E+10	1	-1E+10	1
4902549	47	C	11/26/2021	03:05	-131.838	47.141	0	294.20	0	5.4170	0	33.8520	0	26.720	0	291.547	0	106.1	4	34.6	4	-1E+10	1	-1E+10	1	-1E+10	1	-1E+10	1	-1E+10	1	-1E+10	1
4902549	47	C	11/26/2021	03:05	-131.838	47.141	0	295.10	0	5.3980	0	33.8530	0	26.723	0	292.438	0	105.7	4	34.4	4	-1E+10	1	-1E+10	1	-1E+10	1	-1E+10	1	-1E+10	1	-1E+10	1
4902549	47	C	11/26/2021	03:05	-131.838	47.141	0	296.00	0	5.3900	0	33.8520	0	26.723	0	293.329	0	105.3	4	34.3	4	-1E+10	1	-1E+10	1	-1E+10	1	-1E+10	1	-1E+10	1	-1E+10	1
4902549	47	C	11/26/2021	03:05	-131.838	47.141	0	296.90	0	5.3730	0	33.8540	0	26.726	0	294.220	0	105.0	4	34.2	4	-1E+10	1	-1E+10	1	-1E+10	1	-1E+10	1	-1E+10	1	-1E+10	1
4902549	47	C	11/26/2021	03:05	-131.838	47.141	0	297.80	0	5.3660	0	33.8550	0	26.728	0	295.112	0	104.7	4	34.1	4	-1E+10	1	-1E+10	1	-1E+10	1	-1E+10	1	-1E+10	1	-1E+10	1
4902549	47	C	11/26/2021	03:05	-131.838	47.141	0	298.70	0	5.3570	0	33.8540	0	26.728	0	296.003	0	104.3	4	33.9	4	-1E+10	1	-1E+10	1	-1E+10	1	-1E+10	1	-1E+10	1	-1E+10	1
4902549	47	C	11/26/2021	03:05	-131.838	47.141	0	299.60	0	5.3580	0	33.8540	0	26.728	0	296.894	0	103.8	4	33.8	4	-1E+10	1	-1E+10	1	-1E+10	1	-1E+10	1	-1E+10	1	-1E+10	1
4902549	47	C	11/26/2021	03:05	-131.838	47.141	0	300.90	0	5.3490	0	33.8540	0	26.729	0	298.181	0	103.1	4	33.5	4	-1E+10	1	-1E+10	1	-1E+10	1	-1E+10	1	-1E+10	1	-1E+10	1
4902549	47	C	11/26/2021	03:05	-131.838	47.141	0	302.30	0	5.3220	0	33.8550	0	26.733	0	299.568	0	102.5	4	33.3	4	-1E+10	1	-1E+10	1	-1E+10	1	-1E+10	1	-1E+10	1	-1E+10	1
4902549	47	C	11/26/2021	03:05	-131.838	47.141	0	303.20	0	5.3170	0	33.8540	0	26.733	0	300.459	0	102.0	4	33.2	4	-1E+10	1	-1E+10	1	-1E+10	1	-1E+10	1	-1E+10	1	-1E+10	1
4902549	47	C	11/26/2021	03:05	-131.838	47.141	0	304.10	0	5.2850	0	33.8560	0	26.738	0	301.350	0	101.7	4	33.0	4	-1E+10	1	-1E+10	1	-1E+10	1	-1E+10	1	-1E+10	1	-1E+10	1
4902549	47	C	11/26/2021	03:05	-131.838	47.141	0	305.00	0	5.2820	0	33.8560	0	26.739	0	302.241	0	101.3	4	32.9	4	-1E+10	1	-1E+10	1	-1E+10	1	-1E+10	1	-1E+10	1	-1E+10	1
4902549	47	C	11/26/2021	03:05	-131.838	47.141	0	305.90	0	5.2700	0	33.8570	0	26.741	0	303.133	0	101.0	4	32.8	4	-1E+10	1	-1E+10	1	-1E+10	1	-1E+10	1	-1E+10	1	-1E+10	1
4902549	47	C	11/26/2021	03:05	-131.838	47.141	0	306.80	0	5.2640	0	33.8570	0	26.742	0	304.024	0	100.7	4	32.7	4	-1E+10	1	-1E+10	1	-1E+10	1	-1E+10	1	-1E+10	1	-1E+10	1
4902549	47	C	11/26/2021	03:05	-131.838	47.141	0	307.70	0	5.2500	0	33.8570	0	26.743	0	304.915	0	100.3	4	32.6	4	-1E+10	1	-1E+10	1	-1E+10	1	-1E+10	1	-1E+10	1	-1E+10	1
4902549	47	C	11/26/2021	03:05	-131.838	47.141	0	308.60	0	5.2470	0	33.8570	0	26.744	0	305.806	0	100.0	4	32.4	4	-1E+10	1	-1E+10	1	-1E+10	1	-1E+10	1	-1E+10	1	-1E+10	1
4902549	47	C	11/26/2021	03:05	-131.838	47.141	0	309.90	0	5.2290	0	33.8580	0	26.746	0	307.093	0	99.5	4	32.3	4	-1E+10	1	-1E+10	1	-1E+10	1	-1E+10	1	-1E+10	1	-1E+10	1
4902549	47	C	11/26/2021	03:05	-131.838	47.141	0	311.30	0	5.2150	0	33.8590	0	26.749	0	308.480	0	99.1	4	32.1	4	-1E+10	1	-1E+10	1	-1E+10	1	-1E+10	1	-1E+10	1	-1E+10	1
4902549	47	C	11/26/2021	03:05	-131.838	47.141	0	312.20	0	5.2020	0	33.8600	0	26.751	0	309.371	0	98.8	4	32.0	4	-1E+10	1	-1E+10	1	-1E+10	1	-1E+10	1	-1E+10	1	-1E+10	1
4902549	47	C	11/26/2021	03:05	-131.838	47.141	0	313.10	0	5.1970	0	33.8600	0	26.752	0	310.262	0	98.6	4	31.9	4	-1E+10	1	-1E+10	1	-1E+10	1	-1E+10	1	-1E+10	1	-1E+10	1
4902549	47	C	11/26/2021	03:05	-131.838	47.141	0	314.00	0	5.1870	0	33.8610	0	26.754	0	311.153	0	98.4	4	31.9	4	-1E+10	1	-1E+10	1	-1E+10	1	-1E+10	1	-1E+10	1	-1E+10	1
4902549	47	C	11/26/2021	03:05	-131.838	47.141	0	314.90	0	5.1850	0	33.8620	0	26.755	0	312.044	0	98.2	4	31.8	4	-1E+10	1	-1E+10	1	-1E+10	1	-1E+10	1	-1E+10	1	-1E+10	1
4902549	47	C	11/26/2021	03:05	-131.838	47.141	0	315.80	0	5.1780	0	33.8610	0	26.755	0	312.936	0	98.0	4	31.7	4	-1E+10	1	-1E+10	1	-1E+10	1	-1E+10	1	-1E+10	1	-1E+10	1
4902549	47	C	11/26/2021	03:05	-131.838	47.141	0	316.70	0	5.1750	0	33.8620	0	26.756	0	313.827	0	97.8	4	31.7	4	-1E+10	1	-1E+10	1	-1E+10	1	-1E+10	1	-1E+10	1	-1E+10	1
4902549	47	C	11/26/2021	03:05	-131.838	47.141	0	317.70	0	5.1740	0	33.8610	0	26.755	0	314.817	0	97.5	4	31.6	4	-1E+10	1	-1E+10	1	-1E+10	1	-1E+10	1	-1E+10	1	-1E+10	1
4902549	47	C	11/26/2021	03:05	-131.838	47.141	0	318.60	0	5.1730	0	33.8610	0	26.755	0	315.708	0	97.3	4	31.5	4	-1E+10	1	-1E+10	1	-1E+10	1	-1E+10	1	-1E+10	1	-1E+10	1
4902549	47	C	11/26/2021	03:05	-131.838	47.141	0	319.90	0	5.1700	0	33.8620	0	26.757	0	316.995	0	96.8	4	31.4	4	-1E+10	1	-1E+10	1	-1E+10	1	-1E+10	1	-1E+10	1	-1E+10	1
4902549	47	C	11/26/2021	03:05	-131.838	47.141	0	321.30	0	5.1700	0	33.8620	0	26.757	0	318.381	0	96.3	4	31.2	4	-1E+10	1	-1E+10	1	-1E+10	1	-1E+10	1	-1E+10	1	-1E+10	1
4902549	47	C	11/26/2021	03:05	-131.838	47.141	0	322.20	0	5.1690	0	33.8620	0	26.757	0	319.273	0	95.9	4	31.1	4	-1E+10	1	-1E+10	1	-1E+10	1	-1E+10	1	-1E+10	1	-1E+10	1
4902549	47	C	11/26/2021	03:05	-131.838	47.141	0	323.20	0	5.1620	0	33.8630	0	26.758	0	320.263	0	95.5	4	30.9	4	-1E+10	1	-1E+10	1	-1E+10	1	-1E+10	1	-1E+10	1	-1E+10	1
4902549	47	C	11/26/2021	03:05	-131.838	47.141	0	324.10	0	5.1600	0	33.8620	0	26.758	0	321.154	0	95.0	4	30.8	4	-1E+10	1	-1E+10	1	-1E+10	1	-1E+10	1	-1E+10	1	-1E+10	1
4902549	47	C	11/26/2021	03:05	-131.838	47.141	0	325.00	0	5.1580	0	33.8620	0	26.758	0	322.045	0	94.5	4	30.6	4	-1E+10	1	-1E+10	1	-1E+10	1	-1E+10	1	-1E+10	1	-1E+10	1
4902549	47	C	11/26/2021	03:05	-131.838	47.141	0	325.90	0	5.1520	0	33.8620	0	26.759	0	322.936	0	93.9	4	30.4	4	-1E+10	1	-1E+10	1	-1E+10	1	-1E+10	1	-1E+10	1	-1E+10	1
4902549	47	C	11/26/2021	03:05	-131.838	47.141	0	326.80	0	5.1370	0	33.8640	0	26.762	0	323.827	0	93.4	4	30.2	4	-1E+10	1	-1E+10	1	-1E+10	1	-1E+10	1	-1E+10	1	-1E+10	1
4902549	47	C	11/26/2021	03:05	-131.838	47.141	0	327.70	0	5.1230	0	33.8640	0	26.764	0	324.718	0	92.8	4	30.0	4	-1E+10	1	-1E+10	1	-1E+10	1	-1E+10	1	-1E+10	1	-1E+10	1
4902549	47	C	11/26/2021	03:05	-131.838	47.141	0	328.60	0	5.1130	0	33.8660	0	26.766	0	325.609	0	92.3	4	29.9	4	-1E+10	1	-1E+10	1	-1E+10	1	-1E+10	1	-1E+10	1	-1E+10	1
4902549	47	C	11/26/2021	03:05	-131.838	47.141	0	329.50	0	5.1010	0	33.8650	0	26.767	0	326.500	0	91.8	4	29.7	4	-1E+10	1	-1E+10	1	-1E+10	1	-1E+10	1	-1E+10	1	-1E+10	1
4902549	47	C	11/26/2021	03:05	-131.838	47.141	0	330.90	0	5.0640	0	33.8640	0	26.770	0	327.887	0	91.2	4	29.5	4	-1E+10	1	-1E+10	1	-1E+10	1	-1E+10	1	-1E+10	1	-1E+10	1
4902549	47	C	11/26/2021	03:05	-131.838	47.141	0	332.30	0	5.0430	0	33.8650	0	26.774	0	329.273	0	90.6	4	29.3	4	-1E+10	1	-1E+10	1	-1E+10	1	-1E+10	1	-1E+10	1	-1E+10	1
4902549	47	C	11/26/2021	03:05	-131.838	47.141	0	333.30	0	5.0410	0	33.8660	0	26.775	0	330.263	0	90.1	4	29.1	4	-1E+10	1	-1E+10	1	-1E+10	1	-1E+10	1	-1E+10	1	-1E+10	1
4902549	47	C	11/26/2021	03:05	-131.838	47.141	0	334.20	0	5.0360	0	33.8670	0	26.776	0	331.154	0	89.7	4	29.0	4	-1E+10	1	-1E+10	1	-1E+10	1	-1E+10	1	-1E+10	1	-1E+10	1
4902549	47	C	11/26/2021	03:05	-131.838	47.141	0	335.10	0	5.0300	0	33.8680	0	26.777	0	332.045	0	89.2	4	28.8	4	-1E+10	1	-1E+10	1	-1E+10	1	-1E+10	1	-1E+10	1	-1E+10	1
4902549	47	C	11/26/2021	03:05	-131.838	47.141	0	336.00	0	5.0260	0	33.8690	0	26.779	0	332.936	0	88.7	4	28.6	4	-1E+10	1	-1E+10	1	-1E+10	1	-1E+10	1	-1E+10	1	-1E+10	1
4902549	47	C	11/26/2021	03:05	-131.838	47.141	0	336.90	0	5.0220	0	33.8700	0	26.780	0	333.827	0	88.3	4	28.5	4	-1E+10	1	-1E+10	1	-1E+10	1	-1E+10	1	-1E+10	1	-1E+10	1
4902549	47	C	11/26/2021	03:05	-131.838	47.141	0	337.90	0	4.9970	0	33.8740	0	26.786	0	334.817	0	87.9	4	28.4	4	-1E+10	1	-1E+10	1	-1E+10	1	-1E+10	1	-1E+10	1	-1E+10	1
4902549	47	C	11/26/2021	03:05	-131.838	47.141	0	338.80	0	4.9950	0	33.8740	0	26.786	0	335.708	0	87.6	4	28.3	4	-1E+10	1	-1E+10	1	-1E+10	1	-1E+10	1	-1E+10	1	-1E+10	1
4902549	47	C	11/26/2021	03:05	-131.838	47.141	0	339.80	0	5.0010	0	33.8780	0	26.789	0	336.698	0	87.3	4	28.2	4	-1E+10	1	-1E+10	1	-1E+10	1	-1E+10	1	-1E+10	1	-1E+10	1
4902549	47	C	11/26/2021	03:05	-131.838	47.141	0	340.80	0	4.9950	0	33.8790	0	26.790	0	337.688	0	87.0	4	28.1	4	-1E+10	1	-1E+10	1	-1E+10	1	-1E+10	1	-1E+10	1	-1E+10	1
4902549	47	C	11/26/2021	03:05	-131.838	47.141	0	341.70	0	4.9930	0	33.8810	0	26.792	0	338.579	0	86.7	4	28.0	4	-1E+10	1	-1E+10	1	-1E+10	1	-1E+10	1	-1E+10	1	-1E+10	1
4902549	47	C	11/26/2021	03:05	-131.838	47.141	0	342.70	0	4.9900	0	33.8800	0	26.792	0	339.570	0	86.4	4	27.9	4	-1E+10	1	-1E+10	1	-1E+10	1	-1E+10	1	-1E+10	1	-1E+10	1
4902549	47	C	11/26/2021	03:05	-131.838	47.141	0	343.70	0	4.9880	0	33.8810	0	26.793	0	340.560	0	86.0	4	27.8	4	-1E+10	1	-1E+10	1	-1E+10	1	-1E+10	1	-1E+10	1	-1E+10	1
4902549	47	C	11/26/2021	03:05	-131.838	47.141	0	344.70	0	4.9830	0	33.8820	0	26.794	0	341.550	0	85.7	4	27.6	4	-1E+10	1	-1E+10	1	-1E+10	1	-1E+10	1	-1E+10	1	-1E+10	1
4902549	47	C	11/26/2021	03:05	-131.838	47.141	0	345.60	0	4.9800	0	33.8820	0	26.794	0	342.441	0	85.4	4	27.5	4	-1E+10	1	-1E+10	1	-1E+10	1	-1E+10	1	-1E+10	1	-1E+10	1
4902549	47	C	11/26/2021	03:05	-131.838	47.141	0	346.60	0	4.9700	0	33.8840	0	26.797	0	343.431	0	85.0	4	27.4	4	-1E+10	1	-1E+10	1	-1E+10	1	-1E+10	1	-1E+10	1	-1E+10	1
4902549	47	C	11/26/2021	03:05	-131.838	47.141	0	347.60	0	4.9630	0	33.8840	0	26.798	0	344.421	0	84.7	4	27.3	4	-1E+10	1	-1E+10	1	-1E+10	1	-1E+10	1	-1E+10	1	-1E+10	1
4902549	47	C	11/26/2021	03:05	-131.838	47.141	0	348.60	0	4.9600	0	33.8840	0	26.798	0	345.411	0	84.4	4	27.2	4	-1E+10	1	-1E+10	1	-1E+10	1	-1E+10	1	-1E+10	1	-1E+10	1
4902549	47	C	11/26/2021	03:05	-131.838	47.141	0	349.60	0	4.9540	0	33.8840	0	26.799	0	346.401	0	84.0	4	27.1	4	-1E+10	1	-1E+10	1	-1E+10	1	-1E+10	1	-1E+10	1	-1E+10	1
4902549	47	C	11/26/2021	03:05	-131.838	47.141	0	352.60	0	4.9350	0	33.8870	0	26.803	0	349.371	0	83.0	4	26.7	4	-1E+10	1	-1E+10	1	-1E+10	1	-1E+10	1	-1E+10	1	-1E+10	1
4902549	47	C	11/26/2021	03:05	-131.838	47.141	0	357.60	0	4.9120	0	33.8900	0	26.808	0	354.321	0	81.3	4	26.2	4	-1E+10	1	-1E+10	1	-1E+10	1	-1E+10	1	-1E+10	1	-1E+10	1
4902549	47	C	11/26/2021	03:05	-131.838	47.141	0	362.70	0	4.8800	0	33.8930	0	26.814	0	359.369	0	79.5	4	25.6	4	-1E+10	1	-1E+10	1	-1E+10	1	-1E+10	1	-1E+10	1	-1E+10	1
4902549	47	C	11/26/2021	03:05	-131.838	47.141	0	367.90	0	4.8350	0	33.8970	0	26.823	0	364.517	0	78.0	4	25.1	4	-1E+10	1	-1E+10	1	-1E+10	1	-1E+10	1	-1E+10	1	-1E+10	1
4902549	47	C	11/26/2021	03:05	-131.838	47.141	0	373.20	0	4.8160	0	33.8980	0	26.826	0	369.764	0	76.3	4	24.5	4	-1E+10	1	-1E+10	1	-1E+10	1	-1E+10	1	-1E+10	1	-1E+10	1
4902549	47	C	11/26/2021	03:05	-131.838	47.141	0	378.00	0	4.7780	0	33.9030	0	26.834	0	374.515	0	74.6	4	24.0	4	-1E+10	1	-1E+10	1	-1E+10	1	-1E+10	1	-1E+10	1	-1E+10	1
4902549	47	C	11/26/2021	03:05	-131.838	47.141	0	382.80	0	4.7490	0	33.9060	0	26.839	0	379.267	0	73.6	4	23.6	4	-1E+10	1	-1E+10	1	-1E+10	1	-1E+10	1	-1E+10	1	-1E+10	1
4902549	47	C	11/26/2021	03:05	-131.838	47.141	0	388.20	0	4.7280	0	33.9100	0	26.845	0	384.612	0	72.3	4	23.2	4	-1E+10	1	-1E+10	1	-1E+10	1	-1E+10	1	-1E+10	1	-1E+10	1
4902549	47	C	11/26/2021	03:05	-131.838	47.141	0	393.00	0	4.7190	0	33.9100	0	26.846	0	389.363	0	70.9	4	22.7	4	-1E+10	1	-1E+10	1	-1E+10	1	-1E+10	1	-1E+10	1	-1E+10	1
4902549	47	C	11/26/2021	03:05	-131.838	47.141	0	398.00	0	4.6950	0	33.9140	0	26.852	0	394.312	0	68.7	4	22.0	4	-1E+10	1	-1E+10	1	-1E+10	1	-1E+10	1	-1E+10	1	-1E+10	1
4902549	47	C	11/26/2021	03:05	-131.838	47.141	0	403.30	0	4.6460	0	33.9200	0	26.862	0	399.558	0	66.6	4	21.3	4	-1E+10	1	-1E+10	1	-1E+10	1	-1E+10	1	-1E+10	1	-1E+10	1
4902549	47	C	11/26/2021	03:05	-131.838	47.141	0	408.30	0	4.6110	0	33.9260	0	26.871	0	404.506	0	65.3	4	20.9	4	-1E+10	1	-1E+10	1	-1E+10	1	-1E+10	1	-1E+10	1	-1E+10	1
4902549	47	C	11/26/2021	03:05	-131.838	47.141	0	413.00	0	4.6090	0	33.9340	0	26.877	0	409.158	0	64.2	4	20.5	4	-1E+10	1	-1E+10	1	-1E+10	1	-1E+10	1	-1E+10	1	-1E+10	1
4902549	47	C	11/26/2021	03:05	-131.838	47.141	0	417.70	0	4.5910	0	33.9390	0	26.883	0	413.810	0	62.9	4	20.1	4	-1E+10	1	-1E+10	1	-1E+10	1	-1E+10	1	-1E+10	1	-1E+10	1
4902549	47	C	11/26/2021	03:05	-131.838	47.141	0	422.90	0	4.5730	0	33.9430	0	26.888	0	418.956	0	61.4	4	19.6	4	-1E+10	1	-1E+10	1	-1E+10	1	-1E+10	1	-1E+10	1	-1E+10	1
4902549	47	C	11/26/2021	03:05	-131.838	47.141	0	428.20	0	4.5450	0	33.9500	0	26.897	0	424.201	0	60.0	4	19.2	4	-1E+10	1	-1E+10	1	-1E+10	1	-1E+10	1	-1E+10	1	-1E+10	1
4902549	47	C	11/26/2021	03:05	-131.838	47.141	0	433.00	0	4.5300	0	33.9540	0	26.902	0	428.951	0	59.0	4	18.8	4	-1E+10	1	-1E+10	1	-1E+10	1	-1E+10	1	-1E+10	1	-1E+10	1
4902549	47	C	11/26/2021	03:05	-131.838	47.141	0	437.70	0	4.5170	0	33.9590	0	26.907	0	433.602	0	57.8	4	18.4	4	-1E+10	1	-1E+10	1	-1E+10	1	-1E+10	1	-1E+10	1	-1E+10	1
4902549	47	C	11/26/2021	03:05	-131.838	47.141	0	442.80	0	4.5000	0	33.9630	0	26.912	0	438.649	0	56.4	4	18.0	4	-1E+10	1	-1E+10	1	-1E+10	1	-1E+10	1	-1E+10	1	-1E+10	1
4902549	47	C	11/26/2021	03:05	-131.838	47.141	0	448.00	0	4.4790	0	33.9690	0	26.919	0	443.795	0	55.0	4	17.5	4	-1E+10	1	-1E+10	1	-1E+10	1	-1E+10	1	-1E+10	1	-1E+10	1
4902549	47	C	11/26/2021	03:05	-131.838	47.141	0	453.10	0	4.4590	0	33.9730	0	26.925	0	448.842	0	53.5	4	17.0	4	-1E+10	1	-1E+10	1	-1E+10	1	-1E+10	1	-1E+10	1	-1E+10	1
4902549	47	C	11/26/2021	03:05	-131.838	47.141	0	458.20	0	4.4380	0	33.9780	0	26.931	0	453.888	0	52.2	4	16.6	4	-1E+10	1	-1E+10	1	-1E+10	1	-1E+10	1	-1E+10	1	-1E+10	1
4902549	47	C	11/26/2021	03:05	-131.838	47.141	0	462.90	0	4.4180	0	33.9830	0	26.937	0	458.539	0	50.8	4	16.2	4	-1E+10	1	-1E+10	1	-1E+10	1	-1E+10	1	-1E+10	1	-1E+10	1
4902549	47	C	11/26/2021	03:05	-131.838	47.141	0	467.60	0	4.4050	0	33.9860	0	26.941	0	463.189	0	49.7	4	15.8	4	-1E+10	1	-1E+10	1	-1E+10	1	-1E+10	1	-1E+10	1	-1E+10	1
4902549	47	C	11/26/2021	03:05	-131.838	47.141	0	472.80	0	4.3840	0	33.9940	0	26.950	0	468.334	0	48.2	4	15.3	4	-1E+10	1	-1E+10	1	-1E+10	1	-1E+10	1	-1E+10	1	-1E+10	1
4902549	47	C	11/26/2021	03:05	-131.838	47.141	0	477.80	0	4.3680	0	33.9980	0	26.954	0	473.281	0	47.1	4	15.0	4	-1E+10	1	-1E+10	1	-1E+10	1	-1E+10	1	-1E+10	1	-1E+10	1
4902549	47	C	11/26/2021	03:05	-131.838	47.141	0	482.90	0	4.3520	0	34.0030	0	26.960	0	478.327	0	45.8	4	14.6	4	-1E+10	1	-1E+10	1	-1E+10	1	-1E+10	1	-1E+10	1	-1E+10	1
4902549	47	C	11/26/2021	03:05	-131.838	47.141	0	488.10	0	4.3390	0	34.0100	0	26.967	0	483.472	0	44.8	4	14.2	4	-1E+10	1	-1E+10	1	-1E+10	1	-1E+10	1	-1E+10	1	-1E+10	1
4902549	47	C	11/26/2021	03:05	-131.838	47.141	0	492.90	0	4.3290	0	34.0140	0	26.971	0	488.221	0	43.8	4	13.9	4	-1E+10	1	-1E+10	1	-1E+10	1	-1E+10	1	-1E+10	1	-1E+10	1
4902549	47	C	11/26/2021	03:05	-131.838	47.141	0	497.80	0	4.3230	0	34.0160	0	26.974	0	493.068	0	42.5	4	13.5	4	-1E+10	1	-1E+10	1	-1E+10	1	-1E+10	1	-1E+10	1	-1E+10	1
4902549	47	C	11/26/2021	03:05	-131.838	47.141	0	503.10	0	4.3060	0	34.0240	0	26.982	0	498.312	0	40.8	4	13.0	4	-1E+10	1	-1E+10	1	-1E+10	1	-1E+10	1	-1E+10	1	-1E+10	1
4902549	47	C	11/26/2021	03:05	-131.838	47.141	0	508.10	0	4.2870	0	34.0300	0	26.989	0	503.258	0	39.6	4	12.6	4	-1E+10	1	-1E+10	1	-1E+10	1	-1E+10	1	-1E+10	1	-1E+10	1
4902549	47	C	11/26/2021	03:05	-131.838	47.141	0	513.00	0	4.2730	0	34.0340	0	26.993	0	508.105	0	38.6	4	12.2	4	-1E+10	1	-1E+10	1	-1E+10	1	-1E+10	1	-1E+10	1	-1E+10	1
4902549	47	C	11/26/2021	03:05	-131.838	47.141	0	518.00	0	4.2580	0	34.0380	0	26.998	0	513.052	0	37.1	4	11.8	4	-1E+10	1	-1E+10	1	-1E+10	1	-1E+10	1	-1E+10	1	-1E+10	1
4902549	47	C	11/26/2021	03:05	-131.838	47.141	0	522.90	0	4.2440	0	34.0460	0	27.006	0	517.899	0	36.1	4	11.4	4	-1E+10	1	-1E+10	1	-1E+10	1	-1E+10	1	-1E+10	1	-1E+10	1
4902549	47	C	11/26/2021	03:05	-131.838	47.141	0	528.00	0	4.2320	0	34.0490	0	27.010	0	522.943	0	34.8	4	11.0	4	-1E+10	1	-1E+10	1	-1E+10	1	-1E+10	1	-1E+10	1	-1E+10	1
4902549	47	C	11/26/2021	03:05	-131.838	47.141	0	532.60	0	4.2130	0	34.0560	0	27.017	0	527.494	0	33.7	4	10.7	4	-1E+10	1	-1E+10	1	-1E+10	1	-1E+10	1	-1E+10	1	-1E+10	1
4902549	47	C	11/26/2021	03:05	-131.838	47.141	0	537.80	0	4.2060	0	34.0610	0	27.022	0	532.637	0	32.5	4	10.3	4	-1E+10	1	-1E+10	1	-1E+10	1	-1E+10	1	-1E+10	1	-1E+10	1
4902549	47	C	11/26/2021	03:05	-131.838	47.141	0	543.10	0	4.1930	0	34.0670	0	27.028	0	537.879	0	31.5	4	10.0	4	-1E+10	1	-1E+10	1	-1E+10	1	-1E+10	1	-1E+10	1	-1E+10	1
4902549	47	C	11/26/2021	03:05	-131.838	47.141	0	547.80	0	4.1840	0	34.0700	0	27.032	0	542.528	0	30.6	4	9.7	4	-1E+10	1	-1E+10	1	-1E+10	1	-1E+10	1	-1E+10	1	-1E+10	1
4902549	47	C	11/26/2021	03:05	-131.838	47.141	0	552.60	0	4.1720	0	34.0740	0	27.036	0	547.275	0	29.5	4	9.4	4	-1E+10	1	-1E+10	1	-1E+10	1	-1E+10	1	-1E+10	1	-1E+10	1
4902549	47	C	11/26/2021	03:05	-131.838	47.141	0	557.50	0	4.1570	0	34.0800	0	27.042	0	552.122	0	28.5	4	9.0	4	-1E+10	1	-1E+10	1	-1E+10	1	-1E+10	1	-1E+10	1	-1E+10	1
4902549	47	C	11/26/2021	03:05	-131.838	47.141	0	562.50	0	4.1410	0	34.0850	0	27.048	0	557.067	0	27.3	4	8.6	4	-1E+10	1	-1E+10	1	-1E+10	1	-1E+10	1	-1E+10	1	-1E+10	1
4902549	47	C	11/26/2021	03:05	-131.838	47.141	0	567.50	0	4.1220	0	34.0920	0	27.056	0	562.012	0	26.1	4	8.3	4	-1E+10	1	-1E+10	1	-1E+10	1	-1E+10	1	-1E+10	1	-1E+10	1
4902549	47	C	11/26/2021	03:05	-131.838	47.141	0	572.60	0	4.1000	0	34.0990	0	27.063	0	567.056	0	25.0	4	7.9	4	-1E+10	1	-1E+10	1	-1E+10	1	-1E+10	1	-1E+10	1	-1E+10	1
4902549	47	C	11/26/2021	03:05	-131.838	47.141	0	577.70	0	4.0800	0	34.1060	0	27.071	0	572.099	0	24.0	4	7.6	4	-1E+10	1	-1E+10	1	-1E+10	1	-1E+10	1	-1E+10	1	-1E+10	1
4902549	47	C	11/26/2021	03:05	-131.838	47.141	0	583.00	0	4.0610	0	34.1120	0	27.078	0	577.340	0	23.2	4	7.3	4	-1E+10	1	-1E+10	1	-1E+10	1	-1E+10	1	-1E+10	1	-1E+10	1
4902549	47	C	11/26/2021	03:05	-131.838	47.141	0	588.10	0	4.0480	0	34.1180	0	27.084	0	582.384	0	22.5	4	7.1	4	-1E+10	1	-1E+10	1	-1E+10	1	-1E+10	1	-1E+10	1	-1E+10	1
4902549	47	C	11/26/2021	03:05	-131.838	47.141	0	592.90	0	4.0360	0	34.1220	0	27.089	0	587.130	0	21.9	4	6.9	4	-1E+10	1	-1E+10	1	-1E+10	1	-1E+10	1	-1E+10	1	-1E+10	1
4902549	47	C	11/26/2021	03:05	-131.838	47.141	0	597.60	0	4.0280	0	34.1250	0	27.092	0	591.778	0	21.4	4	6.8	4	-1E+10	1	-1E+10	1	-1E+10	1	-1E+10	1	-1E+10	1	-1E+10	1
4902549	47	C	11/26/2021	03:05	-131.838	47.141	0	603.10	0	4.0170	0	34.1290	0	27.096	0	597.216	0	20.7	4	6.5	4	-1E+10	1	-1E+10	1	-1E+10	1	-1E+10	1	-1E+10	1	-1E+10	1
4902549	47	C	11/26/2021	03:05	-131.838	47.141	0	607.90	0	4.0030	0	34.1330	0	27.101	0	601.963	0	20.2	4	6.4	4	-1E+10	1	-1E+10	1	-1E+10	1	-1E+10	1	-1E+10	1	-1E+10	1
4902549	47	C	11/26/2021	03:05	-131.838	47.141	0	613.00	0	3.9890	0	34.1380	0	27.106	0	607.005	0	19.5	4	6.2	4	-1E+10	1	-1E+10	1	-1E+10	1	-1E+10	1	-1E+10	1	-1E+10	1
4902549	47	C	11/26/2021	03:05	-131.838	47.141	0	618.10	0	3.9700	0	34.1440	0	27.113	0	612.048	0	18.9	4	6.0	4	-1E+10	1	-1E+10	1	-1E+10	1	-1E+10	1	-1E+10	1	-1E+10	1
4902549	47	C	11/26/2021	03:05	-131.838	47.141	0	622.90	0	3.9550	0	34.1480	0	27.118	0	616.794	0	18.4	4	5.8	4	-1E+10	1	-1E+10	1	-1E+10	1	-1E+10	1	-1E+10	1	-1E+10	1
4902549	47	C	11/26/2021	03:05	-131.838	47.141	0	627.80	0	3.9390	0	34.1540	0	27.124	0	621.639	0	17.9	4	5.6	4	-1E+10	1	-1E+10	1	-1E+10	1	-1E+10	1	-1E+10	1	-1E+10	1
4902549	47	C	11/26/2021	03:05	-131.838	47.141	0	632.80	0	3.9310	0	34.1580	0	27.128	0	626.582	0	17.6	4	5.5	4	-1E+10	1	-1E+10	1	-1E+10	1	-1E+10	1	-1E+10	1	-1E+10	1
4902549	47	C	11/26/2021	03:05	-131.838	47.141	0	637.90	0	3.9140	0	34.1600	0	27.131	0	631.624	0	17.3	4	5.4	4	-1E+10	1	-1E+10	1	-1E+10	1	-1E+10	1	-1E+10	1	-1E+10	1
4902549	47	C	11/26/2021	03:05	-131.838	47.141	0	643.20	0	3.8990	0	34.1630	0	27.135	0	636.864	0	16.9	4	5.3	4	-1E+10	1	-1E+10	1	-1E+10	1	-1E+10	1	-1E+10	1	-1E+10	1
4902549	47	C	11/26/2021	03:05	-131.838	47.141	0	648.00	0	3.8850	0	34.1680	0	27.141	0	641.609	0	16.4	4	5.2	4	-1E+10	1	-1E+10	1	-1E+10	1	-1E+10	1	-1E+10	1	-1E+10	1
4902549	47	C	11/26/2021	03:05	-131.838	47.141	0	652.90	0	3.8740	0	34.1710	0	27.144	0	646.453	0	16.1	4	5.1	4	-1E+10	1	-1E+10	1	-1E+10	1	-1E+10	1	-1E+10	1	-1E+10	1
4902549	47	C	11/26/2021	03:05	-131.838	47.141	0	657.90	0	3.8570	0	34.1750	0	27.149	0	651.396	0	15.8	4	5.0	4	-1E+10	1	-1E+10	1	-1E+10	1	-1E+10	1	-1E+10	1	-1E+10	1
4902549	47	C	11/26/2021	03:05	-131.838	47.141	0	662.80	0	3.8440	0	34.1790	0	27.154	0	656.240	0	15.5	4	4.9	4	-1E+10	1	-1E+10	1	-1E+10	1	-1E+10	1	-1E+10	1	-1E+10	1
4902549	47	C	11/26/2021	03:05	-131.838	47.141	0	667.90	0	3.8390	0	34.1800	0	27.155	0	661.281	0	15.3	4	4.8	4	-1E+10	1	-1E+10	1	-1E+10	1	-1E+10	1	-1E+10	1	-1E+10	1
4902549	47	C	11/26/2021	03:05	-131.838	47.141	0	672.90	0	3.8330	0	34.1830	0	27.158	0	666.224	0	14.9	4	4.7	4	-1E+10	1	-1E+10	1	-1E+10	1	-1E+10	1	-1E+10	1	-1E+10	1
4902549	47	C	11/26/2021	03:05	-131.838	47.141	0	678.00	0	3.8250	0	34.1870	0	27.162	0	671.265	0	14.7	4	4.6	4	-1E+10	1	-1E+10	1	-1E+10	1	-1E+10	1	-1E+10	1	-1E+10	1
4902549	47	C	11/26/2021	03:05	-131.838	47.141	0	682.70	0	3.8180	0	34.1870	0	27.163	0	675.911	0	14.4	4	4.5	4	-1E+10	1	-1E+10	1	-1E+10	1	-1E+10	1	-1E+10	1	-1E+10	1
4902549	47	C	11/26/2021	03:05	-131.838	47.141	0	687.90	0	3.8060	0	34.1910	0	27.167	0	681.051	0	14.1	4	4.4	4	-1E+10	1	-1E+10	1	-1E+10	1	-1E+10	1	-1E+10	1	-1E+10	1
4902549	47	C	11/26/2021	03:05	-131.838	47.141	0	693.10	0	3.7940	0	34.1950	0	27.172	0	686.190	0	13.7	4	4.3	4	-1E+10	1	-1E+10	1	-1E+10	1	-1E+10	1	-1E+10	1	-1E+10	1
4902549	47	C	11/26/2021	03:05	-131.838	47.141	0	698.10	0	3.7870	0	34.1980	0	27.175	0	691.132	0	13.5	4	4.2	4	-1E+10	1	-1E+10	1	-1E+10	1	-1E+10	1	-1E+10	1	-1E+10	1
4902549	47	C	11/26/2021	03:05	-131.838	47.141	0	703.10	0	3.7810	0	34.2000	0	27.177	0	696.074	0	13.2	4	4.1	4	-1E+10	1	-1E+10	1	-1E+10	1	-1E+10	1	-1E+10	1	-1E+10	1
4902549	47	C	11/26/2021	03:05	-131.838	47.141	0	708.20	0	3.7660	0	34.2040	0	27.182	0	701.114	0	12.9	4	4.0	4	-1E+10	1	-1E+10	1	-1E+10	1	-1E+10	1	-1E+10	1	-1E+10	1
4902549	47	C	11/26/2021	03:05	-131.838	47.141	0	713.30	0	3.7520	0	34.2080	0	27.186	0	706.155	0	12.6	4	3.9	4	-1E+10	1	-1E+10	1	-1E+10	1	-1E+10	1	-1E+10	1	-1E+10	1
4902549	47	C	11/26/2021	03:05	-131.838	47.141	0	718.00	0	3.7410	0	34.2110	0	27.190	0	710.800	0	12.3	4	3.9	4	-1E+10	1	-1E+10	1	-1E+10	1	-1E+10	1	-1E+10	1	-1E+10	1
4902549	47	C	11/26/2021	03:05	-131.838	47.141	0	722.70	0	3.7230	0	34.2160	0	27.196	0	715.444	0	12.1	4	3.8	4	-1E+10	1	-1E+10	1	-1E+10	1	-1E+10	1	-1E+10	1	-1E+10	1
4902549	47	C	11/26/2021	03:05	-131.838	47.141	0	728.00	0	3.7170	0	34.2170	0	27.197	0	720.682	0	12.0	4	3.8	4	-1E+10	1	-1E+10	1	-1E+10	1	-1E+10	1	-1E+10	1	-1E+10	1
4902549	47	C	11/26/2021	03:05	-131.838	47.141	0	732.80	0	3.7150	0	34.2180	0	27.198	0	725.425	0	11.8	4	3.7	4	-1E+10	1	-1E+10	1	-1E+10	1	-1E+10	1	-1E+10	1	-1E+10	1
4902549	47	C	11/26/2021	03:05	-131.838	47.141	0	737.70	0	3.7060	0	34.2210	0	27.201	0	730.268	0	11.5	4	3.6	4	-1E+10	1	-1E+10	1	-1E+10	1	-1E+10	1	-1E+10	1	-1E+10	1
4902549	47	C	11/26/2021	03:05	-131.838	47.141	0	742.70	0	3.6860	0	34.2270	0	27.208	0	735.208	0	11.2	4	3.5	4	-1E+10	1	-1E+10	1	-1E+10	1	-1E+10	1	-1E+10	1	-1E+10	1
4902549	47	C	11/26/2021	03:05	-131.838	47.141	0	747.90	0	3.6780	0	34.2290	0	27.211	0	740.347	0	11.1	4	3.5	4	-1E+10	1	-1E+10	1	-1E+10	1	-1E+10	1	-1E+10	1	-1E+10	1
4902549	47	C	11/26/2021	03:05	-131.838	47.141	0	752.90	0	3.6710	0	34.2310	0	27.213	0	745.287	0	10.9	4	3.4	4	-1E+10	1	-1E+10	1	-1E+10	1	-1E+10	1	-1E+10	1	-1E+10	1
4902549	47	C	11/26/2021	03:05	-131.838	47.141	0	757.80	0	3.6660	0	34.2320	0	27.214	0	750.129	0	10.7	4	3.3	4	-1E+10	1	-1E+10	1	-1E+10	1	-1E+10	1	-1E+10	1	-1E+10	1
4902549	47	C	11/26/2021	03:05	-131.838	47.141	0	762.70	0	3.6580	0	34.2340	0	27.217	0	754.971	0	10.5	4	3.3	4	-1E+10	1	-1E+10	1	-1E+10	1	-1E+10	1	-1E+10	1	-1E+10	1
4902549	47	C	11/26/2021	03:05	-131.838	47.141	0	767.60	0	3.6530	0	34.2350	0	27.218	0	759.812	0	10.2	4	3.2	4	-1E+10	1	-1E+10	1	-1E+10	1	-1E+10	1	-1E+10	1	-1E+10	1
4902549	47	C	11/26/2021	03:05	-131.838	47.141	0	772.60	0	3.6340	0	34.2400	0	27.224	0	764.752	0	9.9	4	3.1	4	-1E+10	1	-1E+10	1	-1E+10	1	-1E+10	1	-1E+10	1	-1E+10	1
4902549	47	C	11/26/2021	03:05	-131.838	47.141	0	777.60	0	3.6250	0	34.2430	0	27.227	0	769.692	0	9.8	4	3.1	4	-1E+10	1	-1E+10	1	-1E+10	1	-1E+10	1	-1E+10	1	-1E+10	1
4902549	47	C	11/26/2021	03:05	-131.838	47.141	0	782.70	0	3.6160	0	34.2450	0	27.230	0	774.731	0	9.7	4	3.0	4	-1E+10	1	-1E+10	1	-1E+10	1	-1E+10	1	-1E+10	1	-1E+10	1
4902549	47	C	11/26/2021	03:05	-131.838	47.141	0	787.80	0	3.6040	0	34.2480	0	27.233	0	779.769	0	9.5	4	3.0	4	-1E+10	1	-1E+10	1	-1E+10	1	-1E+10	1	-1E+10	1	-1E+10	1
4902549	47	C	11/26/2021	03:05	-131.838	47.141	0	792.80	0	3.6000	0	34.2490	0	27.234	0	784.709	0	9.4	4	3.0	4	-1E+10	1	-1E+10	1	-1E+10	1	-1E+10	1	-1E+10	1	-1E+10	1
4902549	47	C	11/26/2021	03:05	-131.838	47.141	0	797.90	0	3.5930	0	34.2510	0	27.237	0	789.747	0	9.3	4	2.9	4	-1E+10	1	-1E+10	1	-1E+10	1	-1E+10	1	-1E+10	1	-1E+10	1
4902549	47	C	11/26/2021	03:05	-131.838	47.141	0	803.00	0	3.5810	0	34.2540	0	27.240	0	794.785	0	9.1	4	2.8	4	-1E+10	1	-1E+10	1	-1E+10	1	-1E+10	1	-1E+10	1	-1E+10	1
4902549	47	C	11/26/2021	03:05	-131.838	47.141	0	808.10	0	3.5710	0	34.2570	0	27.244	0	799.823	0	8.9	4	2.8	4	-1E+10	1	-1E+10	1	-1E+10	1	-1E+10	1	-1E+10	1	-1E+10	1
4902549	47	C	11/26/2021	03:05	-131.838	47.141	0	813.30	0	3.5570	0	34.2620	0	27.249	0	804.960	0	8.7	4	2.7	4	-1E+10	1	-1E+10	1	-1E+10	1	-1E+10	1	-1E+10	1	-1E+10	1
4902549	47	C	11/26/2021	03:05	-131.838	47.141	0	817.90	0	3.5530	0	34.2630	0	27.250	0	809.504	0	8.6	4	2.7	4	-1E+10	1	-1E+10	1	-1E+10	1	-1E+10	1	-1E+10	1	-1E+10	1
4902549	47	C	11/26/2021	03:05	-131.838	47.141	0	822.70	0	3.5450	0	34.2660	0	27.254	0	814.246	0	8.4	4	2.6	4	-1E+10	1	-1E+10	1	-1E+10	1	-1E+10	1	-1E+10	1	-1E+10	1
4902549	47	C	11/26/2021	03:05	-131.838	47.141	0	827.90	0	3.5300	0	34.2700	0	27.258	0	819.382	0	8.4	4	2.6	4	-1E+10	1	-1E+10	1	-1E+10	1	-1E+10	1	-1E+10	1	-1E+10	1
4902549	47	C	11/26/2021	03:05	-131.838	47.141	0	833.00	0	3.5220	0	34.2720	0	27.261	0	824.419	0	8.3	4	2.6	4	-1E+10	1	-1E+10	1	-1E+10	1	-1E+10	1	-1E+10	1	-1E+10	1
4902549	47	C	11/26/2021	03:05	-131.838	47.141	0	837.90	0	3.5200	0	34.2720	0	27.261	0	829.259	0	8.3	4	2.6	4	-1E+10	1	-1E+10	1	-1E+10	1	-1E+10	1	-1E+10	1	-1E+10	1
4902549	47	C	11/26/2021	03:05	-131.838	47.141	0	842.70	0	3.5140	0	34.2740	0	27.263	0	834.000	0	8.2	4	2.6	4	-1E+10	1	-1E+10	1	-1E+10	1	-1E+10	1	-1E+10	1	-1E+10	1
4902549	47	C	11/26/2021	03:05	-131.838	47.141	0	848.10	0	3.4990	0	34.2780	0	27.268	0	839.333	0	8.1	4	2.5	4	-1E+10	1	-1E+10	1	-1E+10	1	-1E+10	1	-1E+10	1	-1E+10	1
4902549	47	C	11/26/2021	03:05	-131.838	47.141	0	853.10	0	3.4820	0	34.2830	0	27.273	0	844.272	0	8.0	4	2.5	4	-1E+10	1	-1E+10	1	-1E+10	1	-1E+10	1	-1E+10	1	-1E+10	1
4902549	47	C	11/26/2021	03:05	-131.838	47.141	0	857.80	0	3.4680	0	34.2870	0	27.278	0	848.914	0	8.0	4	2.5	4	-1E+10	1	-1E+10	1	-1E+10	1	-1E+10	1	-1E+10	1	-1E+10	1
4902549	47	C	11/26/2021	03:05	-131.838	47.141	0	863.00	0	3.4640	0	34.2870	0	27.278	0	854.049	0	8.0	4	2.5	4	-1E+10	1	-1E+10	1	-1E+10	1	-1E+10	1	-1E+10	1	-1E+10	1
4902549	47	C	11/26/2021	03:05	-131.838	47.141	0	868.30	0	3.4610	0	34.2880	0	27.279	0	859.283	0	7.9	4	2.5	4	-1E+10	1	-1E+10	1	-1E+10	1	-1E+10	1	-1E+10	1	-1E+10	1
4902549	47	C	11/26/2021	03:05	-131.838	47.141	0	873.10	0	3.4440	0	34.2930	0	27.285	0	864.023	0	7.8	4	2.4	4	-1E+10	1	-1E+10	1	-1E+10	1	-1E+10	1	-1E+10	1	-1E+10	1
4902549	47	C	11/26/2021	03:05	-131.838	47.141	0	877.90	0	3.4340	0	34.2960	0	27.288	0	868.764	0	7.7	4	2.4	4	-1E+10	1	-1E+10	1	-1E+10	1	-1E+10	1	-1E+10	1	-1E+10	1
4902549	47	C	11/26/2021	03:05	-131.838	47.141	0	882.90	0	3.4200	0	34.2990	0	27.292	0	873.701	0	7.6	4	2.4	4	-1E+10	1	-1E+10	1	-1E+10	1	-1E+10	1	-1E+10	1	-1E+10	1
4902549	47	C	11/26/2021	03:05	-131.838	47.141	0	887.90	0	3.4120	0	34.3020	0	27.295	0	878.639	0	7.5	4	2.3	4	-1E+10	1	-1E+10	1	-1E+10	1	-1E+10	1	-1E+10	1	-1E+10	1
4902549	47	C	11/26/2021	03:05	-131.838	47.141	0	892.90	0	3.4030	0	34.3050	0	27.299	0	883.576	0	7.4	4	2.3	4	-1E+10	1	-1E+10	1	-1E+10	1	-1E+10	1	-1E+10	1	-1E+10	1
4902549	47	C	11/26/2021	03:05	-131.838	47.141	0	897.90	0	3.4000	0	34.3070	0	27.301	0	888.513	0	7.4	4	2.3	4	-1E+10	1	-1E+10	1	-1E+10	1	-1E+10	1	-1E+10	1	-1E+10	1
4902549	47	C	11/26/2021	03:05	-131.838	47.141	0	903.10	0	3.3830	0	34.3100	0	27.305	0	893.648	0	7.4	4	2.3	4	-1E+10	1	-1E+10	1	-1E+10	1	-1E+10	1	-1E+10	1	-1E+10	1
4902549	47	C	11/26/2021	03:05	-131.838	47.141	0	908.30	0	3.3750	0	34.3110	0	27.306	0	898.782	0	7.4	4	2.3	4	-1E+10	1	-1E+10	1	-1E+10	1	-1E+10	1	-1E+10	1	-1E+10	1
4902549	47	C	11/26/2021	03:05	-131.838	47.141	0	913.10	0	3.3570	0	34.3140	0	27.310	0	903.521	0	7.3	4	2.3	4	-1E+10	1	-1E+10	1	-1E+10	1	-1E+10	1	-1E+10	1	-1E+10	1
4902549	47	C	11/26/2021	03:05	-131.838	47.141	0	917.90	0	3.3470	0	34.3160	0	27.313	0	908.261	0	7.2	4	2.3	4	-1E+10	1	-1E+10	1	-1E+10	1	-1E+10	1	-1E+10	1	-1E+10	1
4902549	47	C	11/26/2021	03:05	-131.838	47.141	0	923.20	0	3.3410	0	34.3190	0	27.316	0	913.493	0	7.1	4	2.2	4	-1E+10	1	-1E+10	1	-1E+10	1	-1E+10	1	-1E+10	1	-1E+10	1
4902549	47	C	11/26/2021	03:05	-131.838	47.141	0	928.00	0	3.3380	0	34.3210	0	27.318	0	918.232	0	7.1	4	2.2	4	-1E+10	1	-1E+10	1	-1E+10	1	-1E+10	1	-1E+10	1	-1E+10	1
4902549	47	C	11/26/2021	03:05	-131.838	47.141	0	932.80	0	3.3330	0	34.3220	0	27.319	0	922.971	0	7.0	4	2.2	4	-1E+10	1	-1E+10	1	-1E+10	1	-1E+10	1	-1E+10	1	-1E+10	1
4902549	47	C	11/26/2021	03:05	-131.838	47.141	0	937.80	0	3.3260	0	34.3240	0	27.321	0	927.907	0	7.0	4	2.2	4	-1E+10	1	-1E+10	1	-1E+10	1	-1E+10	1	-1E+10	1	-1E+10	1
4902549	47	C	11/26/2021	03:05	-131.838	47.141	0	943.00	0	3.3160	0	34.3250	0	27.323	0	933.041	0	7.0	4	2.2	4	-1E+10	1	-1E+10	1	-1E+10	1	-1E+10	1	-1E+10	1	-1E+10	1
4902549	47	C	11/26/2021	03:05	-131.838	47.141	0	947.80	0	3.2980	0	34.3280	0	27.327	0	937.780	0	7.0	4	2.2	4	-1E+10	1	-1E+10	1	-1E+10	1	-1E+10	1	-1E+10	1	-1E+10	1
4902549	47	C	11/26/2021	03:05	-131.838	47.141	0	952.70	0	3.2850	0	34.3320	0	27.332	0	942.617	0	6.9	4	2.1	4	-1E+10	1	-1E+10	1	-1E+10	1	-1E+10	1	-1E+10	1	-1E+10	1
4902549	47	C	11/26/2021	03:05	-131.838	47.141	0	957.60	0	3.2760	0	34.3350	0	27.335	0	947.454	0	6.8	4	2.1	4	-1E+10	1	-1E+10	1	-1E+10	1	-1E+10	1	-1E+10	1	-1E+10	1
4902549	47	C	11/26/2021	03:05	-131.838	47.141	0	962.90	0	3.2720	0	34.3370	0	27.337	0	952.686	0	6.8	4	2.1	4	-1E+10	1	-1E+10	1	-1E+10	1	-1E+10	1	-1E+10	1	-1E+10	1
4902549	47	C	11/26/2021	03:05	-131.838	47.141	0	968.30	0	3.2700	0	34.3380	0	27.338	0	958.016	0	6.7	4	2.1	4	-1E+10	1	-1E+10	1	-1E+10	1	-1E+10	1	-1E+10	1	-1E+10	1
4902549	47	C	11/26/2021	03:05	-131.838	47.141	0	973.20	0	3.2680	0	34.3380	0	27.338	0	962.853	0	6.7	4	2.1	4	-1E+10	1	-1E+10	1	-1E+10	1	-1E+10	1	-1E+10	1	-1E+10	1
4902549	47	C	11/26/2021	03:05	-131.838	47.141	0	978.20	0	3.2610	0	34.3420	0	27.342	0	967.788	0	6.6	4	2.0	4	-1E+10	1	-1E+10	1	-1E+10	1	-1E+10	1	-1E+10	1	-1E+10	1
4902549	47	C	11/26/2021	03:05	-131.838	47.141	0	983.20	0	3.2480	0	34.3450	0	27.346	0	972.723	0	6.6	4	2.0	4	-1E+10	1	-1E+10	1	-1E+10	1	-1E+10	1	-1E+10	1	-1E+10	1
4902549	47	C	11/26/2021	03:05	-131.838	47.141	0	988.20	0	3.2350	0	34.3480	0	27.349	0	977.658	0	6.5	4	2.0	4	-1E+10	1	-1E+10	1	-1E+10	1	-1E+10	1	-1E+10	1	-1E+10	1
4902549	47	C	11/26/2021	03:05	-131.838	47.141	0	993.20	0	3.2290	0	34.3510	0	27.352	0	982.593	0	6.4	4	2.0	4	-1E+10	1	-1E+10	1	-1E+10	1	-1E+10	1	-1E+10	1	-1E+10	1
4902549	47	C	11/26/2021	03:05	-131.838	47.141	0	997.90	0	3.2230	0	34.3530	0	27.355	0	987.232	0	6.3	4	2.0	4	-1E+10	1	-1E+10	1	-1E+10	1	-1E+10	1	-1E+10	1	-1E+10	1
4902549	47	C	11/26/2021	03:05	-131.838	47.141	0	1005.20	0	3.2090	0	34.3570	0	27.359	0	994.437	0	6.3	4	1.9	4	-1E+10	1	-1E+10	1	-1E+10	1	-1E+10	1	-1E+10	1	-1E+10	1
4902549	47	C	11/26/2021	03:05	-131.838	47.141	0	1015.70	0	3.1900	0	34.3620	0	27.365	0	1004.799	0	6.3	4	1.9	4	-1E+10	1	-1E+10	1	-1E+10	1	-1E+10	1	-1E+10	1	-1E+10	1
4902549	47	C	11/26/2021	03:05	-131.838	47.141	0	1025.50	0	3.1740	0	34.3660	0	27.370	0	1014.470	0	6.3	4	1.9	4	-1E+10	1	-1E+10	1	-1E+10	1	-1E+10	1	-1E+10	1	-1E+10	1
4902549	47	C	11/26/2021	03:05	-131.838	47.141	0	1035.40	0	3.1500	0	34.3710	0	27.376	0	1024.239	0	6.4	4	2.0	4	-1E+10	1	-1E+10	1	-1E+10	1	-1E+10	1	-1E+10	1	-1E+10	1
4902549	47	C	11/26/2021	03:05	-131.838	47.141	0	1045.40	0	3.1290	0	34.3780	0	27.383	0	1034.107	0	6.5	4	2.0	4	-1E+10	1	-1E+10	1	-1E+10	1	-1E+10	1	-1E+10	1	-1E+10	1
4902549	47	C	11/26/2021	03:05	-131.838	47.141	0	1055.50	0	3.1110	0	34.3830	0	27.389	0	1044.073	0	6.6	4	2.0	4	-1E+10	1	-1E+10	1	-1E+10	1	-1E+10	1	-1E+10	1	-1E+10	1
4902549	47	C	11/26/2021	03:05	-131.838	47.141	0	1065.70	0	3.0930	0	34.3880	0	27.395	0	1054.137	0	6.7	4	2.1	4	-1E+10	1	-1E+10	1	-1E+10	1	-1E+10	1	-1E+10	1	-1E+10	1
4902549	47	C	11/26/2021	03:05	-131.838	47.141	0	1075.50	0	3.0800	0	34.3910	0	27.398	0	1063.806	0	6.7	4	2.1	4	-1E+10	1	-1E+10	1	-1E+10	1	-1E+10	1	-1E+10	1	-1E+10	1
4902549	47	C	11/26/2021	03:05	-131.838	47.141	0	1085.50	0	3.0650	0	34.3940	0	27.402	0	1073.671	0	6.8	4	2.1	4	-1E+10	1	-1E+10	1	-1E+10	1	-1E+10	1	-1E+10	1	-1E+10	1
4902549	47	C	11/26/2021	03:05	-131.838	47.141	0	1095.20	0	3.0450	0	34.3980	0	27.407	0	1083.240	0	6.9	4	2.1	4	-1E+10	1	-1E+10	1	-1E+10	1	-1E+10	1	-1E+10	1	-1E+10	1
4902549	47	C	11/26/2021	03:05	-131.838	47.141	0	1105.40	0	3.0310	0	34.4010	0	27.411	0	1093.303	0	7.0	4	2.2	4	-1E+10	1	-1E+10	1	-1E+10	1	-1E+10	1	-1E+10	1	-1E+10	1
4902549	47	C	11/26/2021	03:05	-131.838	47.141	0	1115.70	0	3.0060	0	34.4050	0	27.417	0	1103.463	0	7.2	4	2.2	4	-1E+10	1	-1E+10	1	-1E+10	1	-1E+10	1	-1E+10	1	-1E+10	1
4902549	47	C	11/26/2021	03:05	-131.838	47.141	0	1125.50	0	2.9810	0	34.4090	0	27.422	0	1113.129	0	7.3	4	2.3	4	-1E+10	1	-1E+10	1	-1E+10	1	-1E+10	1	-1E+10	1	-1E+10	1
4902549	47	C	11/26/2021	03:05	-131.838	47.141	0	1135.60	0	2.9700	0	34.4120	0	27.426	0	1123.091	0	7.5	4	2.3	4	-1E+10	1	-1E+10	1	-1E+10	1	-1E+10	1	-1E+10	1	-1E+10	1
4902549	47	C	11/26/2021	03:05	-131.838	47.141	0	1145.70	0	2.9580	0	34.4140	0	27.428	0	1133.053	0	7.7	4	2.4	4	-1E+10	1	-1E+10	1	-1E+10	1	-1E+10	1	-1E+10	1	-1E+10	1
4902549	47	C	11/26/2021	03:05	-131.838	47.141	0	1155.60	0	2.9480	0	34.4160	0	27.431	0	1142.817	0	7.8	4	2.4	4	-1E+10	1	-1E+10	1	-1E+10	1	-1E+10	1	-1E+10	1	-1E+10	1
4902549	47	C	11/26/2021	03:05	-131.838	47.141	0	1165.70	0	2.9370	0	34.4180	0	27.433	0	1152.777	0	8.0	4	2.5	4	-1E+10	1	-1E+10	1	-1E+10	1	-1E+10	1	-1E+10	1	-1E+10	1
4902549	47	C	11/26/2021	03:05	-131.838	47.141	0	1175.60	0	2.9230	0	34.4200	0	27.436	0	1162.540	0	8.2	4	2.5	4	-1E+10	1	-1E+10	1	-1E+10	1	-1E+10	1	-1E+10	1	-1E+10	1
4902549	47	C	11/26/2021	03:05	-131.838	47.141	0	1185.20	0	2.9110	0	34.4220	0	27.439	0	1172.007	0	8.4	4	2.6	4	-1E+10	1	-1E+10	1	-1E+10	1	-1E+10	1	-1E+10	1	-1E+10	1
4902549	47	C	11/26/2021	03:05	-131.838	47.141	0	1195.50	0	2.8930	0	34.4250	0	27.443	0	1182.163	0	8.6	4	2.6	4	-1E+10	1	-1E+10	1	-1E+10	1	-1E+10	1	-1E+10	1	-1E+10	1
4902549	47	C	11/26/2021	03:05	-131.838	47.141	0	1205.50	0	2.8810	0	34.4260	0	27.445	0	1192.023	0	8.7	4	2.7	4	-1E+10	1	-1E+10	1	-1E+10	1	-1E+10	1	-1E+10	1	-1E+10	1
4902549	47	C	11/26/2021	03:05	-131.838	47.141	0	1215.50	0	2.8680	0	34.4280	0	27.448	0	1201.883	0	8.9	4	2.7	4	-1E+10	1	-1E+10	1	-1E+10	1	-1E+10	1	-1E+10	1	-1E+10	1
4902549	47	C	11/26/2021	03:05	-131.838	47.141	0	1225.60	0	2.8510	0	34.4310	0	27.452	0	1211.841	0	9.1	4	2.8	4	-1E+10	1	-1E+10	1	-1E+10	1	-1E+10	1	-1E+10	1	-1E+10	1
4902549	47	C	11/26/2021	03:05	-131.838	47.141	0	1235.40	0	2.8400	0	34.4330	0	27.454	0	1221.502	0	9.3	4	2.8	4	-1E+10	1	-1E+10	1	-1E+10	1	-1E+10	1	-1E+10	1	-1E+10	1
4902549	47	C	11/26/2021	03:05	-131.838	47.141	0	1245.40	0	2.8270	0	34.4350	0	27.457	0	1231.361	0	9.4	4	2.9	4	-1E+10	1	-1E+10	1	-1E+10	1	-1E+10	1	-1E+10	1	-1E+10	1
4902549	47	C	11/26/2021	03:05	-131.838	47.141	0	1255.50	0	2.8110	0	34.4380	0	27.461	0	1241.317	0	9.7	4	3.0	4	-1E+10	1	-1E+10	1	-1E+10	1	-1E+10	1	-1E+10	1	-1E+10	1
4902549	47	C	11/26/2021	03:05	-131.838	47.141	0	1265.70	0	2.7920	0	34.4400	0	27.464	0	1251.371	0	9.8	4	3.0	4	-1E+10	1	-1E+10	1	-1E+10	1	-1E+10	1	-1E+10	1	-1E+10	1
4902549	47	C	11/26/2021	03:05	-131.838	47.141	0	1275.20	0	2.7780	0	34.4430	0	27.468	0	1260.735	0	10.2	4	3.1	4	-1E+10	1	-1E+10	1	-1E+10	1	-1E+10	1	-1E+10	1	-1E+10	1
4902549	47	C	11/26/2021	03:05	-131.838	47.141	0	1285.10	0	2.7690	0	34.4470	0	27.472	0	1270.493	0	10.5	4	3.2	4	-1E+10	1	-1E+10	1	-1E+10	1	-1E+10	1	-1E+10	1	-1E+10	1
4902549	47	C	11/26/2021	03:05	-131.838	47.141	0	1295.40	0	2.7560	0	34.4520	0	27.477	0	1280.645	0	11.0	4	3.4	4	-1E+10	1	-1E+10	1	-1E+10	1	-1E+10	1	-1E+10	1	-1E+10	1
4902549	47	C	11/26/2021	03:05	-131.838	47.141	0	1305.70	0	2.7360	0	34.4550	0	27.482	0	1290.796	0	11.5	4	3.5	4	-1E+10	1	-1E+10	1	-1E+10	1	-1E+10	1	-1E+10	1	-1E+10	1
4902549	47	C	11/26/2021	03:05	-131.838	47.141	0	1315.40	0	2.7310	0	34.4600	0	27.486	0	1300.355	0	11.8	4	3.6	4	-1E+10	1	-1E+10	1	-1E+10	1	-1E+10	1	-1E+10	1	-1E+10	1
4902549	47	C	11/26/2021	03:05	-131.838	47.141	0	1325.10	0	2.7250	0	34.4620	0	27.488	0	1309.914	0	12.2	4	3.8	4	-1E+10	1	-1E+10	1	-1E+10	1	-1E+10	1	-1E+10	1	-1E+10	1
4902549	47	C	11/26/2021	03:05	-131.838	47.141	0	1335.30	0	2.7110	0	34.4660	0	27.493	0	1319.965	0	12.8	4	3.9	4	-1E+10	1	-1E+10	1	-1E+10	1	-1E+10	1	-1E+10	1	-1E+10	1
4902549	47	C	11/26/2021	03:05	-131.838	47.141	0	1345.50	0	2.6750	0	34.4670	0	27.497	0	1330.016	0	13.3	4	4.1	4	-1E+10	1	-1E+10	1	-1E+10	1	-1E+10	1	-1E+10	1	-1E+10	1
4902549	47	C	11/26/2021	03:05	-131.838	47.141	0	1355.40	0	2.6520	0	34.4720	0	27.503	0	1339.771	0	13.9	4	4.3	4	-1E+10	1	-1E+10	1	-1E+10	1	-1E+10	1	-1E+10	1	-1E+10	1
4902549	47	C	11/26/2021	03:05	-131.838	47.141	0	1365.20	0	2.6390	0	34.4750	0	27.506	0	1349.426	0	14.4	4	4.4	4	-1E+10	1	-1E+10	1	-1E+10	1	-1E+10	1	-1E+10	1	-1E+10	1
4902549	47	C	11/26/2021	03:05	-131.838	47.141	0	1375.30	0	2.6270	0	34.4770	0	27.509	0	1359.377	0	14.8	4	4.5	4	-1E+10	1	-1E+10	1	-1E+10	1	-1E+10	1	-1E+10	1	-1E+10	1
4902549	47	C	11/26/2021	03:05	-131.838	47.141	0	1385.50	0	2.6170	0	34.4790	0	27.511	0	1369.426	0	15.3	4	4.7	4	-1E+10	1	-1E+10	1	-1E+10	1	-1E+10	1	-1E+10	1	-1E+10	1
4902549	47	C	11/26/2021	03:05	-131.838	47.141	0	1395.40	0	2.5930	0	34.4830	0	27.517	0	1379.179	0	16.0	4	4.9	4	-1E+10	1	-1E+10	1	-1E+10	1	-1E+10	1	-1E+10	1	-1E+10	1
4902549	47	C	11/26/2021	03:05	-131.838	47.141	0	1405.20	0	2.5760	0	34.4860	0	27.521	0	1388.833	0	16.6	4	5.1	4	-1E+10	1	-1E+10	1	-1E+10	1	-1E+10	1	-1E+10	1	-1E+10	1
4902549	47	C	11/26/2021	03:05	-131.838	47.141	0	1415.20	0	2.5600	0	34.4890	0	27.524	0	1398.683	0	16.9	4	5.2	4	-1E+10	1	-1E+10	1	-1E+10	1	-1E+10	1	-1E+10	1	-1E+10	1
4902549	47	C	11/26/2021	03:05	-131.838	47.141	0	1425.70	0	2.5460	0	34.4910	0	27.527	0	1409.025	0	17.4	4	5.3	4	-1E+10	1	-1E+10	1	-1E+10	1	-1E+10	1	-1E+10	1	-1E+10	1
4902549	47	C	11/26/2021	03:05	-131.838	47.141	0	1435.40	0	2.5350	0	34.4930	0	27.530	0	1418.579	0	17.8	4	5.4	4	-1E+10	1	-1E+10	1	-1E+10	1	-1E+10	1	-1E+10	1	-1E+10	1
4902549	47	C	11/26/2021	03:05	-131.838	47.141	0	1445.40	0	2.5240	0	34.4940	0	27.532	0	1428.428	0	18.1	4	5.5	4	-1E+10	1	-1E+10	1	-1E+10	1	-1E+10	1	-1E+10	1	-1E+10	1
4902549	47	C	11/26/2021	03:05	-131.838	47.141	0	1455.60	0	2.5100	0	34.4960	0	27.534	0	1438.474	0	18.5	4	5.6	4	-1E+10	1	-1E+10	1	-1E+10	1	-1E+10	1	-1E+10	1	-1E+10	1
4902549	47	C	11/26/2021	03:05	-131.838	47.141	0	1465.70	0	2.5020	0	34.4970	0	27.536	0	1448.420	0	18.8	4	5.7	4	-1E+10	1	-1E+10	1	-1E+10	1	-1E+10	1	-1E+10	1	-1E+10	1
4902549	47	C	11/26/2021	03:05	-131.838	47.141	0	1475.70	0	2.4850	0	34.4990	0	27.539	0	1458.268	0	19.3	4	5.9	4	-1E+10	1	-1E+10	1	-1E+10	1	-1E+10	1	-1E+10	1	-1E+10	1
4902549	47	C	11/26/2021	03:05	-131.838	47.141	0	1485.50	0	2.4710	0	34.5010	0	27.542	0	1467.918	0	19.7	4	6.0	4	-1E+10	1	-1E+10	1	-1E+10	1	-1E+10	1	-1E+10	1	-1E+10	1
4902549	47	C	11/26/2021	03:05	-131.838	47.141	0	1495.30	0	2.4670	0	34.5020	0	27.543	0	1477.568	0	20.3	4	6.2	4	-1E+10	1	-1E+10	1	-1E+10	1	-1E+10	1	-1E+10	1	-1E+10	1
4902549	47	C	11/26/2021	03:05	-131.838	47.141	0	1505.30	0	2.4570	0	34.5050	0	27.546	0	1487.414	0	20.9	4	6.4	4	-1E+10	1	-1E+10	1	-1E+10	1	-1E+10	1	-1E+10	1	-1E+10	1
4902549	47	C	11/26/2021	03:05	-131.838	47.141	0	1515.30	0	2.4520	0	34.5070	0	27.548	0	1497.260	0	21.5	4	6.6	4	-1E+10	1	-1E+10	1	-1E+10	1	-1E+10	1	-1E+10	1	-1E+10	1
4902549	47	C	11/26/2021	03:05	-131.838	47.141	0	1525.50	0	2.4330	0	34.5100	0	27.552	0	1507.302	0	22.3	4	6.8	4	-1E+10	1	-1E+10	1	-1E+10	1	-1E+10	1	-1E+10	1	-1E+10	1
4902549	47	C	11/26/2021	03:05	-131.838	47.141	0	1535.50	0	2.4030	0	34.5130	0	27.557	0	1517.147	0	23.1	4	7.0	4	-1E+10	1	-1E+10	1	-1E+10	1	-1E+10	1	-1E+10	1	-1E+10	1
4902549	47	C	11/26/2021	03:05	-131.838	47.141	0	1545.30	0	2.3790	0	34.5150	0	27.561	0	1526.795	0	23.8	4	7.2	4	-1E+10	1	-1E+10	1	-1E+10	1	-1E+10	1	-1E+10	1	-1E+10	1
4902549	47	C	11/26/2021	03:05	-131.838	47.141	0	1555.30	0	2.3690	0	34.5180	0	27.564	0	1536.639	0	24.6	4	7.5	4	-1E+10	1	-1E+10	1	-1E+10	1	-1E+10	1	-1E+10	1	-1E+10	1
4902549	47	C	11/26/2021	03:05	-131.838	47.141	0	1565.70	0	2.3540	0	34.5210	0	27.568	0	1546.876	0	25.3	4	7.7	4	-1E+10	1	-1E+10	1	-1E+10	1	-1E+10	1	-1E+10	1	-1E+10	1
4902549	47	C	11/26/2021	03:05	-131.838	47.141	0	1575.60	0	2.3380	0	34.5230	0	27.571	0	1556.620	0	25.8	4	7.9	4	-1E+10	1	-1E+10	1	-1E+10	1	-1E+10	1	-1E+10	1	-1E+10	1
4902549	47	C	11/26/2021	03:05	-131.838	47.141	0	1585.60	0	2.3290	0	34.5250	0	27.573	0	1566.463	0	26.3	4	8.0	4	-1E+10	1	-1E+10	1	-1E+10	1	-1E+10	1	-1E+10	1	-1E+10	1
4902549	47	C	11/26/2021	03:05	-131.838	47.141	0	1595.40	0	2.3210	0	34.5260	0	27.575	0	1576.108	0	26.7	4	8.1	4	-1E+10	1	-1E+10	1	-1E+10	1	-1E+10	1	-1E+10	1	-1E+10	1
4902549	47	C	11/26/2021	03:05	-131.838	47.141	0	1605.50	0	2.3120	0	34.5280	0	27.577	0	1586.048	0	27.2	4	8.2	4	-1E+10	1	-1E+10	1	-1E+10	1	-1E+10	1	-1E+10	1	-1E+10	1
4902549	47	C	11/26/2021	03:05	-131.838	47.141	0	1615.30	0	2.3040	0	34.5290	0	27.579	0	1595.693	0	27.5	4	8.3	4	-1E+10	1	-1E+10	1	-1E+10	1	-1E+10	1	-1E+10	1	-1E+10	1
4902549	47	C	11/26/2021	03:05	-131.838	47.141	0	1625.20	0	2.2980	0	34.5290	0	27.579	0	1605.435	0	28.0	4	8.5	4	-1E+10	1	-1E+10	1	-1E+10	1	-1E+10	1	-1E+10	1	-1E+10	1
4902549	47	C	11/26/2021	03:05	-131.838	47.141	0	1635.20	0	2.2820	0	34.5310	0	27.582	0	1615.275	0	28.6	4	8.7	4	-1E+10	1	-1E+10	1	-1E+10	1	-1E+10	1	-1E+10	1	-1E+10	1
4902549	47	C	11/26/2021	03:05	-131.838	47.141	0	1645.30	0	2.2680	0	34.5330	0	27.585	0	1625.214	0	29.1	4	8.8	4	-1E+10	1	-1E+10	1	-1E+10	1	-1E+10	1	-1E+10	1	-1E+10	1
4902549	47	C	11/26/2021	03:05	-131.838	47.141	0	1655.40	0	2.2620	0	34.5350	0	27.587	0	1635.151	0	29.5	4	8.9	4	-1E+10	1	-1E+10	1	-1E+10	1	-1E+10	1	-1E+10	1	-1E+10	1
4902549	47	C	11/26/2021	03:05	-131.838	47.141	0	1665.20	0	2.2490	0	34.5350	0	27.588	0	1644.793	0	30.0	4	9.1	4	-1E+10	1	-1E+10	1	-1E+10	1	-1E+10	1	-1E+10	1	-1E+10	1
4902549	47	C	11/26/2021	03:05	-131.838	47.141	0	1675.10	0	2.2390	0	34.5370	0	27.591	0	1654.533	0	30.6	4	9.3	4	-1E+10	1	-1E+10	1	-1E+10	1	-1E+10	1	-1E+10	1	-1E+10	1
4902549	47	C	11/26/2021	03:05	-131.838	47.141	0	1685.20	0	2.2300	0	34.5390	0	27.593	0	1664.470	0	31.2	4	9.5	4	-1E+10	1	-1E+10	1	-1E+10	1	-1E+10	1	-1E+10	1	-1E+10	1
4902549	47	C	11/26/2021	03:05	-131.838	47.141	0	1695.50	0	2.2210	0	34.5410	0	27.595	0	1674.602	0	31.7	4	9.6	4	-1E+10	1	-1E+10	1	-1E+10	1	-1E+10	1	-1E+10	1	-1E+10	1
4902549	47	C	11/26/2021	03:05	-131.838	47.141	0	1705.50	0	2.2150	0	34.5420	0	27.597	0	1684.440	0	32.1	4	9.7	4	-1E+10	1	-1E+10	1	-1E+10	1	-1E+10	1	-1E+10	1	-1E+10	1
4902549	47	C	11/26/2021	03:05	-131.838	47.141	0	1715.60	0	2.2070	0	34.5430	0	27.598	0	1694.374	0	32.7	4	9.9	4	-1E+10	1	-1E+10	1	-1E+10	1	-1E+10	1	-1E+10	1	-1E+10	1
4902549	47	C	11/26/2021	03:05	-131.838	47.141	0	1725.70	0	2.1950	0	34.5450	0	27.601	0	1704.309	0	33.3	4	10.1	4	-1E+10	1	-1E+10	1	-1E+10	1	-1E+10	1	-1E+10	1	-1E+10	1
4902549	47	C	11/26/2021	03:05	-131.838	47.141	0	1735.40	0	2.1850	0	34.5460	0	27.603	0	1713.850	0	33.7	4	10.2	4	-1E+10	1	-1E+10	1	-1E+10	1	-1E+10	1	-1E+10	1	-1E+10	1
4902549	47	C	11/26/2021	03:05	-131.838	47.141	0	1745.50	0	2.1790	0	34.5470	0	27.604	0	1723.783	0	34.3	4	10.4	4	-1E+10	1	-1E+10	1	-1E+10	1	-1E+10	1	-1E+10	1	-1E+10	1
4902549	47	C	11/26/2021	03:05	-131.838	47.141	0	1755.50	0	2.1680	0	34.5480	0	27.606	0	1733.618	0	34.8	4	10.5	4	-1E+10	1	-1E+10	1	-1E+10	1	-1E+10	1	-1E+10	1	-1E+10	1
4902549	47	C	11/26/2021	03:05	-131.838	47.141	0	1765.40	0	2.1580	0	34.5500	0	27.608	0	1743.354	0	35.5	4	10.7	4	-1E+10	1	-1E+10	1	-1E+10	1	-1E+10	1	-1E+10	1	-1E+10	1
4902549	47	C	11/26/2021	03:05	-131.838	47.141	0	1775.40	0	2.1490	0	34.5520	0	27.610	0	1753.188	0	36.1	4	10.9	4	-1E+10	1	-1E+10	1	-1E+10	1	-1E+10	1	-1E+10	1	-1E+10	1
4902549	47	C	11/26/2021	03:05	-131.838	47.141	0	1785.50	0	2.1370	0	34.5540	0	27.613	0	1763.119	0	37.0	4	11.2	4	-1E+10	1	-1E+10	1	-1E+10	1	-1E+10	1	-1E+10	1	-1E+10	1
4902549	47	C	11/26/2021	03:05	-131.838	47.141	0	1795.60	0	2.1220	0	34.5560	0	27.616	0	1773.051	0	37.9	4	11.5	4	-1E+10	1	-1E+10	1	-1E+10	1	-1E+10	1	-1E+10	1	-1E+10	1
4902549	47	C	11/26/2021	03:05	-131.838	47.141	0	1805.60	0	2.1040	0	34.5590	0	27.620	0	1782.883	0	38.7	4	11.7	4	-1E+10	1	-1E+10	1	-1E+10	1	-1E+10	1	-1E+10	1	-1E+10	1
4902549	47	C	11/26/2021	03:05	-131.838	47.141	0	1815.60	0	2.0920	0	34.5600	0	27.622	0	1792.715	0	39.5	4	11.9	4	-1E+10	1	-1E+10	1	-1E+10	1	-1E+10	1	-1E+10	1	-1E+10	1
4902549	47	C	11/26/2021	03:05	-131.838	47.141	0	1825.20	0	2.0820	0	34.5620	0	27.624	0	1802.154	0	40.1	4	12.1	4	-1E+10	1	-1E+10	1	-1E+10	1	-1E+10	1	-1E+10	1	-1E+10	1
4902549	47	C	11/26/2021	03:05	-131.838	47.141	0	1835.50	0	2.0720	0	34.5640	0	27.626	0	1812.280	0	40.7	4	12.3	4	-1E+10	1	-1E+10	1	-1E+10	1	-1E+10	1	-1E+10	1	-1E+10	1
4902549	47	C	11/26/2021	03:05	-131.838	47.141	0	1845.40	0	2.0600	0	34.5660	0	27.629	0	1822.012	0	41.4	4	12.5	4	-1E+10	1	-1E+10	1	-1E+10	1	-1E+10	1	-1E+10	1	-1E+10	1
4902549	47	C	11/26/2021	03:05	-131.838	47.141	0	1855.00	0	2.0490	0	34.5670	0	27.631	0	1831.449	0	42.1	4	12.7	4	-1E+10	1	-1E+10	1	-1E+10	1	-1E+10	1	-1E+10	1	-1E+10	1
4902549	47	C	11/26/2021	03:05	-131.838	47.141	0	1865.10	0	2.0400	0	34.5690	0	27.633	0	1841.377	0	42.9	4	12.9	4	-1E+10	1	-1E+10	1	-1E+10	1	-1E+10	1	-1E+10	1	-1E+10	1
4902549	47	C	11/26/2021	03:05	-131.838	47.141	0	1875.10	0	2.0240	0	34.5710	0	27.636	0	1851.206	0	43.7	4	13.2	4	-1E+10	1	-1E+10	1	-1E+10	1	-1E+10	1	-1E+10	1	-1E+10	1
4902549	47	C	11/26/2021	03:05	-131.838	47.141	0	1885.60	0	2.0160	0	34.5730	0	27.638	0	1861.527	0	44.4	4	13.4	4	-1E+10	1	-1E+10	1	-1E+10	1	-1E+10	1	-1E+10	1	-1E+10	1
4902549	47	C	11/26/2021	03:05	-131.838	47.141	0	1895.30	0	2.0070	0	34.5740	0	27.640	0	1871.060	0	45.0	4	13.6	4	-1E+10	1	-1E+10	1	-1E+10	1	-1E+10	1	-1E+10	1	-1E+10	1
4902549	47	C	11/26/2021	03:05	-131.838	47.141	0	1905.10	0	1.9980	0	34.5760	0	27.642	0	1880.692	0	45.7	4	13.8	4	-1E+10	1	-1E+10	1	-1E+10	1	-1E+10	1	-1E+10	1	-1E+10	1
4902549	47	C	11/26/2021	03:05	-131.838	47.141	0	1915.20	0	1.9920	0	34.5770	0	27.644	0	1890.617	0	46.2	4	13.9	4	-1E+10	1	-1E+10	1	-1E+10	1	-1E+10	1	-1E+10	1	-1E+10	1
4902549	47	C	11/26/2021	03:05	-131.838	47.141	0	1925.50	0	1.9860	0	34.5780	0	27.645	0	1900.739	0	46.7	4	14.1	4	-1E+10	1	-1E+10	1	-1E+10	1	-1E+10	1	-1E+10	1	-1E+10	1
4902549	47	C	11/26/2021	03:05	-131.838	47.141	0	1935.60	0	1.9810	0	34.5790	0	27.646	0	1910.664	0	47.1	4	14.2	4	-1E+10	1	-1E+10	1	-1E+10	1	-1E+10	1	-1E+10	1	-1E+10	1
4902549	47	C	11/26/2021	03:05	-131.838	47.141	0	1945.40	0	1.9730	0	34.5800	0	27.648	0	1920.294	0	47.5	4	14.3	4	-1E+10	1	-1E+10	1	-1E+10	1	-1E+10	1	-1E+10	1	-1E+10	1
4902549	47	C	11/26/2021	03:05	-131.838	47.141	0	1955.30	0	1.9690	0	34.5810	0	27.649	0	1930.021	0	47.7	4	14.4	4	-1E+10	1	-1E+10	1	-1E+10	1	-1E+10	1	-1E+10	1	-1E+10	1
4902549	47	C	11/26/2021	03:05	-131.838	47.141	0	1965.50	0	1.9640	0	34.5820	0	27.650	0	1940.043	0	48.1	4	14.5	4	-1E+10	1	-1E+10	1	-1E+10	1	-1E+10	1	-1E+10	1	-1E+10	1
4902549	47	C	11/26/2021	03:05	-131.838	47.141	0	1975.40	0	1.9580	0	34.5830	0	27.651	0	1949.769	0	48.4	4	14.6	4	-1E+10	1	-1E+10	1	-1E+10	1	-1E+10	1	-1E+10	1	-1E+10	1
4902549	47	C	11/26/2021	03:05	-131.838	47.141	0	1985.40	0	1.9550	0	34.5840	0	27.652	0	1959.593	0	48.4	4	14.6	4	-1E+10	1	-1E+10	1	-1E+10	1	-1E+10	1	-1E+10	1	-1E+10	1
4902549	47	C	11/26/2021	03:05	-131.838	47.141	0	1993.30	0	1.9520	0	34.5840	0	27.653	0	1967.354	0	48.0	4	14.4	4	-1E+10	1	-1E+10	1	-1E+10	1	-1E+10	1	-1E+10	1	-1E+10	1
4902549	47	C	11/26/2021	03:05	-131.838	47.141	0																										
4902549	48	C	12/06/2021	07:54	-131.923	47.142	0	0.40	0	10.1580	0	32.2740	0	24.798	0	0.397	0	263.1	4	94.3	4	-1E+10	1	-1E+10	1	-1E+10	1	-1E+10	1	-1E+10	1	-1E+10	1
4902549	48	C	12/06/2021	07:54	-131.923	47.142	0	1.10	0	10.1590	0	32.2740	0	24.798	0	1.091	0	263.1	4	94.3	4	-1E+10	1	-1E+10	1	-1E+10	1	-1E+10	1	-1E+10	1	-1E+10	1
4902549	48	C	12/06/2021	07:54	-131.923	47.142	0	2.00	0	10.1590	0	32.2740	0	24.798	0	1.983	0	263.0	4	94.2	4	-1E+10	1	-1E+10	1	-1E+10	1	-1E+10	1	-1E+10	1	-1E+10	1
4902549	48	C	12/06/2021	07:54	-131.923	47.142	0	3.00	0	10.1580	0	32.2750	0	24.799	0	2.975	0	262.9	4	94.2	4	-1E+10	1	-1E+10	1	-1E+10	1	-1E+10	1	-1E+10	1	-1E+10	1
4902549	48	C	12/06/2021	07:54	-131.923	47.142	0	3.90	0	10.1590	0	32.2750	0	24.799	0	3.868	0	262.9	4	94.2	4	-1E+10	1	-1E+10	1	-1E+10	1	-1E+10	1	-1E+10	1	-1E+10	1
4902549	48	C	12/06/2021	07:54	-131.923	47.142	0	5.00	0	10.1580	0	32.2760	0	24.800	0	4.958	0	262.9	4	94.2	4	-1E+10	1	-1E+10	1	-1E+10	1	-1E+10	1	-1E+10	1	-1E+10	1
4902549	48	C	12/06/2021	07:54	-131.923	47.142	0	5.80	0	10.1570	0	32.2760	0	24.800	0	5.752	0	262.9	4	94.2	4	-1E+10	1	-1E+10	1	-1E+10	1	-1E+10	1	-1E+10	1	-1E+10	1
4902549	48	C	12/06/2021	07:54	-131.923	47.142	0	6.90	0	10.1580	0	32.2760	0	24.800	0	6.843	0	262.8	4	94.2	4	-1E+10	1	-1E+10	1	-1E+10	1	-1E+10	1	-1E+10	1	-1E+10	1
4902549	48	C	12/06/2021	07:54	-131.923	47.142	0	8.10	0	10.1600	0	32.2760	0	24.800	0	8.033	0	262.8	4	94.2	4	-1E+10	1	-1E+10	1	-1E+10	1	-1E+10	1	-1E+10	1	-1E+10	1
4902549	48	C	12/06/2021	07:54	-131.923	47.142	0	8.90	0	10.1600	0	32.2760	0	24.800	0	8.826	0	262.8	4	94.2	4	-1E+10	1	-1E+10	1	-1E+10	1	-1E+10	1	-1E+10	1	-1E+10	1
4902549	48	C	12/06/2021	07:54	-131.923	47.142	0	10.00	0	10.1600	0	32.2770	0	24.800	0	9.917	0	262.7	4	94.2	4	-1E+10	1	-1E+10	1	-1E+10	1	-1E+10	1	-1E+10	1	-1E+10	1
4902549	48	C	12/06/2021	07:54	-131.923	47.142	0	10.80	0	10.1610	0	32.2760	0	24.799	0	10.710	0	262.8	4	94.2	4	-1E+10	1	-1E+10	1	-1E+10	1	-1E+10	1	-1E+10	1	-1E+10	1
4902549	48	C	12/06/2021	07:54	-131.923	47.142	0	11.70	0	10.1610	0	32.2770	0	24.800	0	11.602	0	262.7	4	94.1	4	-1E+10	1	-1E+10	1	-1E+10	1	-1E+10	1	-1E+10	1	-1E+10	1
4902549	48	C	12/06/2021	07:54	-131.923	47.142	0	12.70	0	10.1610	0	32.2770	0	24.800	0	12.594	0	262.7	4	94.1	4	-1E+10	1	-1E+10	1	-1E+10	1	-1E+10	1	-1E+10	1	-1E+10	1
4902549	48	C	12/06/2021	07:54	-131.923	47.142	0	13.80	0	10.1600	0	32.2770	0	24.800	0	13.685	0	262.7	4	94.1	4	-1E+10	1	-1E+10	1	-1E+10	1	-1E+10	1	-1E+10	1	-1E+10	1
4902549	48	C	12/06/2021	07:54	-131.923	47.142	0	15.00	0	10.1570	0	32.2760	0	24.800	0	14.875	0	262.6	4	94.1	4	-1E+10	1	-1E+10	1	-1E+10	1	-1E+10	1	-1E+10	1	-1E+10	1
4902549	48	C	12/06/2021	07:54	-131.923	47.142	0	16.10	0	10.1580	0	32.2760	0	24.800	0	15.966	0	262.7	4	94.1	4	-1E+10	1	-1E+10	1	-1E+10	1	-1E+10	1	-1E+10	1	-1E+10	1
4902549	48	C	12/06/2021	07:54	-131.923	47.142	0	16.80	0	10.1550	0	32.2780	0	24.802	0	16.660	0	262.7	4	94.1	4	-1E+10	1	-1E+10	1	-1E+10	1	-1E+10	1	-1E+10	1	-1E+10	1
4902549	48	C	12/06/2021	07:54	-131.923	47.142	0	17.80	0	10.1520	0	32.2770	0	24.802	0	17.651	0	262.6	4	94.1	4	-1E+10	1	-1E+10	1	-1E+10	1	-1E+10	1	-1E+10	1	-1E+10	1
4902549	48	C	12/06/2021	07:54	-131.923	47.142	0	19.00	0	10.1510	0	32.2750	0	24.800	0	18.841	0	262.7	4	94.1	4	-1E+10	1	-1E+10	1	-1E+10	1	-1E+10	1	-1E+10	1	-1E+10	1
4902549	48	C	12/06/2021	07:54	-131.923	47.142	0	20.00	0	10.1480	0	32.2750	0	24.801	0	19.833	0	262.7	4	94.1	4	-1E+10	1	-1E+10	1	-1E+10	1	-1E+10	1	-1E+10	1	-1E+10	1
4902549	48	C	12/06/2021	07:54	-131.923	47.142	0	20.80	0	10.1460	0	32.2750	0	24.801	0	20.626	0	262.6	4	94.1	4	-1E+10	1	-1E+10	1	-1E+10	1	-1E+10	1	-1E+10	1	-1E+10	1
4902549	48	C	12/06/2021	07:54	-131.923	47.142	0	22.00	0	10.1470	0	32.2740	0	24.800	0	21.816	0	262.7	4	94.1	4	-1E+10	1	-1E+10	1	-1E+10	1	-1E+10	1	-1E+10	1	-1E+10	1
4902549	48	C	12/06/2021	07:54	-131.923	47.142	0	23.00	0	10.1470	0	32.2740	0	24.800	0	22.808	0	262.6	4	94.1	4	-1E+10	1	-1E+10	1	-1E+10	1	-1E+10	1	-1E+10	1	-1E+10	1
4902549	48	C	12/06/2021	07:54	-131.923	47.142	0	23.90	0	10.1470	0	32.2740	0	24.800	0	23.700	0	262.5	4	94.0	4	-1E+10	1	-1E+10	1	-1E+10	1	-1E+10	1	-1E+10	1	-1E+10	1
4902549	48	C	12/06/2021	07:54	-131.923	47.142	0	24.90	0	10.1460	0	32.2760	0	24.802	0	24.692	0	262.7	4	94.1	4	-1E+10	1	-1E+10	1	-1E+10	1	-1E+10	1	-1E+10	1	-1E+10	1
4902549	48	C	12/06/2021	07:54	-131.923	47.142	0	25.80	0	10.1470	0	32.2750	0	24.801	0	25.584	0	262.6	4	94.1	4	-1E+10	1	-1E+10	1	-1E+10	1	-1E+10	1	-1E+10	1	-1E+10	1
4902549	48	C	12/06/2021	07:54	-131.923	47.142	0	26.90	0	10.1520	0	32.2760	0	24.801	0	26.675	0	262.6	4	94.1	4	-1E+10	1	-1E+10	1	-1E+10	1	-1E+10	1	-1E+10	1	-1E+10	1
4902549	48	C	12/06/2021	07:54	-131.923	47.142	0	27.90	0	10.1500	0	32.2750	0	24.801	0	27.666	0	262.6	4	94.1	4	-1E+10	1	-1E+10	1	-1E+10	1	-1E+10	1	-1E+10	1	-1E+10	1
4902549	48	C	12/06/2021	07:54	-131.923	47.142	0	28.90	0	10.1500	0	32.2750	0	24.801	0	28.658	0	262.6	4	94.1	4	-1E+10	1	-1E+10	1	-1E+10	1	-1E+10	1	-1E+10	1	-1E+10	1
4902549	48	C	12/06/2021	07:54	-131.923	47.142	0	29.90	0	10.1490	0	32.2750	0	24.801	0	29.649	0	262.6	4	94.1	4	-1E+10	1	-1E+10	1	-1E+10	1	-1E+10	1	-1E+10	1	-1E+10	1
4902549	48	C	12/06/2021	07:54	-131.923	47.142	0	30.90	0	10.1470	0	32.2750	0	24.801	0	30.641	0	262.6	4	94.1	4	-1E+10	1	-1E+10	1	-1E+10	1	-1E+10	1	-1E+10	1	-1E+10	1
4902549	48	C	12/06/2021	07:54	-131.923	47.142	0	31.80	0	10.1480	0	32.2750	0	24.801	0	31.533	0	262.6	4	94.1	4	-1E+10	1	-1E+10	1	-1E+10	1	-1E+10	1	-1E+10	1	-1E+10	1
4902549	48	C	12/06/2021	07:54	-131.923	47.142	0	33.10	0	10.1490	0	32.2760	0	24.802	0	32.822	0	262.6	4	94.1	4	-1E+10	1	-1E+10	1	-1E+10	1	-1E+10	1	-1E+10	1	-1E+10	1
4902549	48	C	12/06/2021	07:54	-131.923	47.142	0	34.00	0	10.1520	0	32.2790	0	24.804	0	33.715	0	262.5	4	94.1	4	-1E+10	1	-1E+10	1	-1E+10	1	-1E+10	1	-1E+10	1	-1E+10	1
4902549	48	C	12/06/2021	07:54	-131.923	47.142	0	35.00	0	10.1520	0	32.2770	0	24.802	0	34.706	0	262.5	4	94.0	4	-1E+10	1	-1E+10	1	-1E+10	1	-1E+10	1	-1E+10	1	-1E+10	1
4902549	48	C	12/06/2021	07:54	-131.923	47.142	0	36.10	0	10.1530	0	32.2770	0	24.802	0	35.797	0	262.5	4	94.1	4	-1E+10	1	-1E+10	1	-1E+10	1	-1E+10	1	-1E+10	1	-1E+10	1
4902549	48	C	12/06/2021	07:54	-131.923	47.142	0	36.80	0	10.1530	0	32.2760	0	24.801	0	36.491	0	262.4	4	94.0	4	-1E+10	1	-1E+10	1	-1E+10	1	-1E+10	1	-1E+10	1	-1E+10	1
4902549	48	C	12/06/2021	07:54	-131.923	47.142	0	37.80	0	10.1510	0	32.2760	0	24.802	0	37.482	0	262.4	4	94.0	4	-1E+10	1	-1E+10	1	-1E+10	1	-1E+10	1	-1E+10	1	-1E+10	1
4902549	48	C	12/06/2021	07:54	-131.923	47.142	0	38.90	0	10.1450	0	32.2740	0	24.801	0	38.573	0	262.4	4	94.0	4	-1E+10	1	-1E+10	1	-1E+10	1	-1E+10	1	-1E+10	1	-1E+10	1
4902549	48	C	12/06/2021	07:54	-131.923	47.142	0	39.90	0	10.1450	0	32.2740	0	24.801	0	39.564	0	262.5	4	94.0	4	-1E+10	1	-1E+10	1	-1E+10	1	-1E+10	1	-1E+10	1	-1E+10	1
4902549	48	C	12/06/2021	07:54	-131.923	47.142	0	41.00	0	10.1450	0	32.2740	0	24.801	0	40.655	0	262.4	4	94.0	4	-1E+10	1	-1E+10	1	-1E+10	1	-1E+10	1	-1E+10	1	-1E+10	1
4902549	48	C	12/06/2021	07:54	-131.923	47.142	0	42.00	0	10.1450	0	32.2750	0	24.802	0	41.647	0	262.4	4	94.0	4	-1E+10	1	-1E+10	1	-1E+10	1	-1E+10	1	-1E+10	1	-1E+10	1
4902549	48	C	12/06/2021	07:54	-131.923	47.142	0	43.00	0	10.1450	0	32.2750	0	24.802	0	42.638	0	262.3	4	94.0	4	-1E+10	1	-1E+10	1	-1E+10	1	-1E+10	1	-1E+10	1	-1E+10	1
4902549	48	C	12/06/2021	07:54	-131.923	47.142	0	44.00	0	10.1460	0	32.2740	0	24.801	0	43.630	0	262.4	4	94.0	4	-1E+10	1	-1E+10	1	-1E+10	1	-1E+10	1	-1E+10	1	-1E+10	1
4902549	48	C	12/06/2021	07:54	-131.923	47.142	0	45.10	0	10.1450	0	32.2750	0	24.802	0	44.720	0	262.4	4	94.0	4	-1E+10	1	-1E+10	1	-1E+10	1	-1E+10	1	-1E+10	1	-1E+10	1
4902549	48	C	12/06/2021	07:54	-131.923	47.142	0	46.10	0	10.1440	0	32.2750	0	24.802	0	45.712	0	262.3	4	94.0	4	-1E+10	1	-1E+10	1	-1E+10	1	-1E+10	1	-1E+10	1	-1E+10	1
4902549	48	C	12/06/2021	07:54	-131.923	47.142	0	47.10	0	10.1450	0	32.2740	0	24.801	0	46.703	0	262.3	4	94.0	4	-1E+10	1	-1E+10	1	-1E+10	1	-1E+10	1	-1E+10	1	-1E+10	1
4902549	48	C	12/06/2021	07:54	-131.923	47.142	0	48.00	0	10.1450	0	32.2740	0	24.801	0	47.595	0	262.3	4	94.0	4	-1E+10	1	-1E+10	1	-1E+10	1	-1E+10	1	-1E+10	1	-1E+10	1
4902549	48	C	12/06/2021	07:54	-131.923	47.142	0	49.10	0	10.1470	0	32.2740	0	24.801	0	48.686	0	262.2	4	93.9	4	-1E+10	1	-1E+10	1	-1E+10	1	-1E+10	1	-1E+10	1	-1E+10	1
4902549	48	C	12/06/2021	07:54	-131.923	47.142	0	49.80	0	10.1440	0	32.2740	0	24.801	0	49.380	0	262.2	4	93.9	4	-1E+10	1	-1E+10	1	-1E+10	1	-1E+10	1	-1E+10	1	-1E+10	1
4902549	48	C	12/06/2021	07:54	-131.923	47.142	0	50.80	0	10.1470	0	32.2750	0	24.802	0	50.371	0	262.2	4	93.9	4	-1E+10	1	-1E+10	1	-1E+10	1	-1E+10	1	-1E+10	1	-1E+10	1
4902549	48	C	12/06/2021	07:54	-131.923	47.142	0	51.90	0	10.1460	0	32.2740	0	24.801	0	51.462	0	262.2	4	93.9	4	-1E+10	1	-1E+10	1	-1E+10	1	-1E+10	1	-1E+10	1	-1E+10	1
4902549	48	C	12/06/2021	07:54	-131.923	47.142	0	52.80	0	10.1450	0	32.2740	0	24.801	0	52.354	0	262.1	4	93.9	4	-1E+10	1	-1E+10	1	-1E+10	1	-1E+10	1	-1E+10	1	-1E+10	1
4902549	48	C	12/06/2021	07:54	-131.923	47.142	0	54.00	0	10.1450	0	32.2750	0	24.802	0	53.544	0	262.1	4	93.9	4	-1E+10	1	-1E+10	1	-1E+10	1	-1E+10	1	-1E+10	1	-1E+10	1
4902549	48	C	12/06/2021	07:54	-131.923	47.142	0	55.00	0	10.1450	0	32.2740	0	24.801	0	54.535	0	262.1	4	93.9	4	-1E+10	1	-1E+10	1	-1E+10	1	-1E+10	1	-1E+10	1	-1E+10	1
4902549	48	C	12/06/2021	07:54	-131.923	47.142	0	56.10	0	10.1440	0	32.2750	0	24.802	0	55.626	0	262.1	4	93.9	4	-1E+10	1	-1E+10	1	-1E+10	1	-1E+10	1	-1E+10	1	-1E+10	1
4902549	48	C	12/06/2021	07:54	-131.923	47.142	0	56.90	0	10.1440	0	32.2740	0	24.802	0	56.419	0	261.9	4	93.8	4	-1E+10	1	-1E+10	1	-1E+10	1	-1E+10	1	-1E+10	1	-1E+10	1
4902549	48	C	12/06/2021	07:54	-131.923	47.142	0	58.00	0	10.1440	0	32.2740	0	24.802	0	57.510	0	261.9	4	93.8	4	-1E+10	1	-1E+10	1	-1E+10	1	-1E+10	1	-1E+10	1	-1E+10	1
4902549	48	C	12/06/2021	07:54	-131.923	47.142	0	59.10	0	10.1410	0	32.2740	0	24.802	0	58.600	0	261.9	4	93.8	4	-1E+10	1	-1E+10	1	-1E+10	1	-1E+10	1	-1E+10	1	-1E+10	1
4902549	48	C	12/06/2021	07:54	-131.923	47.142	0	59.90	0	10.1400	0	32.2740	0	24.802	0	59.393	0	261.9	4	93.8	4	-1E+10	1	-1E+10	1	-1E+10	1	-1E+10	1	-1E+10	1	-1E+10	1
4902549	48	C	12/06/2021	07:54	-131.923	47.142	0	60.90	0	10.1380	0	32.2740	0	24.803	0	60.385	0	261.9	4	93.8	4	-1E+10	1	-1E+10	1	-1E+10	1	-1E+10	1	-1E+10	1	-1E+10	1
4902549	48	C	12/06/2021	07:54	-131.923	47.142	0	61.90	0	10.1410	0	32.2750	0	24.803	0	61.376	0	261.9	4	93.8	4	-1E+10	1	-1E+10	1	-1E+10	1	-1E+10	1	-1E+10	1	-1E+10	1
4902549	48	C	12/06/2021	07:54	-131.923	47.142	0	62.80	0	10.1380	0	32.2740	0	24.803	0	62.268	0	261.8	4	93.8	4	-1E+10	1	-1E+10	1	-1E+10	1	-1E+10	1	-1E+10	1	-1E+10	1
4902549	48	C	12/06/2021	07:54	-131.923	47.142	0	63.80	0	10.1400	0	32.2750	0	24.803	0	63.260	0	261.6	4	93.7	4	-1E+10	1	-1E+10	1	-1E+10	1	-1E+10	1	-1E+10	1	-1E+10	1
4902549	48	C	12/06/2021	07:54	-131.923	47.142	0	64.80	0	10.1390	0	32.2740	0	24.803	0	64.251	0	261.6	4	93.7	4	-1E+10	1	-1E+10	1	-1E+10	1	-1E+10	1	-1E+10	1	-1E+10	1
4902549	48	C	12/06/2021	07:54	-131.923	47.142	0	66.00	0	10.1370	0	32.2740	0	24.803	0	65.441	0	261.6	4	93.7	4	-1E+10	1	-1E+10	1	-1E+10	1	-1E+10	1	-1E+10	1	-1E+10	1
4902549	48	C	12/06/2021	07:54	-131.923	47.142	0	67.00	0	10.1380	0	32.2740	0	24.803	0	66.432	0	261.4	4	93.6	4	-1E+10	1	-1E+10	1	-1E+10	1	-1E+10	1	-1E+10	1	-1E+10	1
4902549	48	C	12/06/2021	07:54	-131.923	47.142	0	67.90	0	10.1310	0	32.2740	0	24.804	0	67.324	0	261.4	4	93.6	4	-1E+10	1	-1E+10	1	-1E+10	1	-1E+10	1	-1E+10	1	-1E+10	1
4902549	48	C	12/06/2021	07:54	-131.923	47.142	0	68.90	0	10.1340	0	32.2730	0	24.803	0	68.316	0	261.2	4	93.6	4	-1E+10	1	-1E+10	1	-1E+10	1	-1E+10	1	-1E+10	1	-1E+10	1
4902549	48	C	12/06/2021	07:54	-131.923	47.142	0	70.00	0	10.1240	0	32.2740	0	24.805	0	69.406	0	261.1	4	93.5	4	-1E+10	1	-1E+10	1	-1E+10	1	-1E+10	1	-1E+10	1	-1E+10	1
4902549	48	C	12/06/2021	07:54	-131.923	47.142	0	71.00	0	10.1160	0	32.2750	0	24.807	0	70.398	0	261.1	4	93.5	4	-1E+10	1	-1E+10	1	-1E+10	1	-1E+10	1	-1E+10	1	-1E+10	1
4902549	48	C	12/06/2021	07:54	-131.923	47.142	0	72.00	0	10.1150	0	32.2750	0	24.807	0	71.389	0	260.9	4	93.4	4	-1E+10	1	-1E+10	1	-1E+10	1	-1E+10	1	-1E+10	1	-1E+10	1
4902549	48	C	12/06/2021	07:54	-131.923	47.142	0	73.10	0	10.1140	0	32.2760	0	24.808	0	72.479	0	260.8	4	93.4	4	-1E+10	1	-1E+10	1	-1E+10	1	-1E+10	1	-1E+10	1	-1E+10	1
4902549	48	C	12/06/2021	07:54	-131.923	47.142	0	74.00	0	10.1170	0	32.2750	0	24.807	0	73.372	0	260.6	4	93.3	4	-1E+10	1	-1E+10	1	-1E+10	1	-1E+10	1	-1E+10	1	-1E+10	1
4902549	48	C	12/06/2021	07:54	-131.923	47.142	0	75.00	0	10.1130	0	32.2750	0	24.808	0	74.363	0	260.4	4	93.2	4	-1E+10	1	-1E+10	1	-1E+10	1	-1E+10	1	-1E+10	1	-1E+10	1
4902549	48	C	12/06/2021	07:54	-131.923	47.142	0	75.90	0	10.1070	0	32.2760	0	24.810	0	75.255	0	260.2	4	93.1	4	-1E+10	1	-1E+10	1	-1E+10	1	-1E+10	1	-1E+10	1	-1E+10	1
4902549	48	C	12/06/2021	07:54	-131.923	47.142	0	76.90	0	10.1060	0	32.2750	0	24.809	0	76.246	0	259.7	4	93.0	4	-1E+10	1	-1E+10	1	-1E+10	1	-1E+10	1	-1E+10	1	-1E+10	1
4902549	48	C	12/06/2021	07:54	-131.923	47.142	0	77.90	0	10.0930	0	32.2760	0	24.812	0	77.238	0	259.2	4	92.8	4	-1E+10	1	-1E+10	1	-1E+10	1	-1E+10	1	-1E+10	1	-1E+10	1
4902549	48	C	12/06/2021	07:54	-131.923	47.142	0	79.00	0	10.0450	0	32.2820	0	24.825	0	78.328	0	258.8	4	92.5	4	-1E+10	1	-1E+10	1	-1E+10	1	-1E+10	1	-1E+10	1	-1E+10	1
4902549	48	C	12/06/2021	07:54	-131.923	47.142	0	80.00	0	10.0170	0	32.2820	0	24.829	0	79.320	0	257.7	4	92.1	4	-1E+10	1	-1E+10	1	-1E+10	1	-1E+10	1	-1E+10	1	-1E+10	1
4902549	48	C	12/06/2021	07:54	-131.923	47.142	0	81.10	0	9.9480	0	32.2850	0	24.843	0	80.410	0	255.2	4	91.0	4	-1E+10	1	-1E+10	1	-1E+10	1	-1E+10	1	-1E+10	1	-1E+10	1
4902549	48	C	12/06/2021	07:54	-131.923	47.142	0	82.00	0	9.7210	0	32.3050	0	24.896	0	81.302	0	254.8	4	90.5	4	-1E+10	1	-1E+10	1	-1E+10	1	-1E+10	1	-1E+10	1	-1E+10	1
4902549	48	C	12/06/2021	07:54	-131.923	47.142	0	83.10	0	9.4670	0	32.3370	0	24.962	0	82.393	0	254.9	4	90.0	4	-1E+10	1	-1E+10	1	-1E+10	1	-1E+10	1	-1E+10	1	-1E+10	1
4902549	48	C	12/06/2021	07:54	-131.923	47.142	0	84.00	0	9.2860	0	32.3580	0	25.007	0	83.285	0	255.2	4	89.8	4	-1E+10	1	-1E+10	1	-1E+10	1	-1E+10	1	-1E+10	1	-1E+10	1
4902549	48	C	12/06/2021	07:54	-131.923	47.142	0	85.10	0	9.1640	0	32.3680	0	25.034	0	84.375	0	255.2	4	89.5	4	-1E+10	1	-1E+10	1	-1E+10	1	-1E+10	1	-1E+10	1	-1E+10	1
4902549	48	C	12/06/2021	07:54	-131.923	47.142	0	86.00	0	9.0490	0	32.3770	0	25.059	0	85.267	0	255.5	4	89.4	4	-1E+10	1	-1E+10	1	-1E+10	1	-1E+10	1	-1E+10	1	-1E+10	1
4902549	48	C	12/06/2021	07:54	-131.923	47.142	0	87.00	0	8.8060	0	32.4060	0	25.119	0	86.259	0	256.1	4	89.2	4	-1E+10	1	-1E+10	1	-1E+10	1	-1E+10	1	-1E+10	1	-1E+10	1
4902549	48	C	12/06/2021	07:54	-131.923	47.142	0	88.10	0	8.6480	0	32.4160	0	25.151	0	87.349	0	256.8	4	89.1	4	-1E+10	1	-1E+10	1	-1E+10	1	-1E+10	1	-1E+10	1	-1E+10	1
4902549	48	C	12/06/2021	07:54	-131.923	47.142	0	89.00	0	8.5410	0	32.4180	0	25.169	0	88.241	0	256.9	4	88.9	4	-1E+10	1	-1E+10	1	-1E+10	1	-1E+10	1	-1E+10	1	-1E+10	1
4902549	48	C	12/06/2021	07:54	-131.923	47.142	0	90.00	0	8.3920	0	32.4270	0	25.198	0	89.232	0	257.2	4	88.7	4	-1E+10	1	-1E+10	1	-1E+10	1	-1E+10	1	-1E+10	1	-1E+10	1
4902549	48	C	12/06/2021	07:54	-131.923	47.142	0	91.10	0	7.9460	0	32.4560	0	25.286	0	90.323	0	259.0	4	88.5	4	-1E+10	1	-1E+10	1	-1E+10	1	-1E+10	1	-1E+10	1	-1E+10	1
4902549	48	C	12/06/2021	07:54	-131.923	47.142	0	92.10	0	7.6840	0	32.4660	0	25.331	0	91.314	0	260.7	4	88.6	4	-1E+10	1	-1E+10	1	-1E+10	1	-1E+10	1	-1E+10	1	-1E+10	1
4902549	48	C	12/06/2021	07:54	-131.923	47.142	0	93.20	0	7.6370	0	32.4700	0	25.341	0	92.404	0	260.8	4	88.5	4	-1E+10	1	-1E+10	1	-1E+10	1	-1E+10	1	-1E+10	1	-1E+10	1
4902549	48	C	12/06/2021	07:54	-131.923	47.142	0	94.10	0	7.6090	0	32.4690	0	25.344	0	93.296	0	260.8	4	88.5	4	-1E+10	1	-1E+10	1	-1E+10	1	-1E+10	1	-1E+10	1	-1E+10	1
4902549	48	C	12/06/2021	07:54	-131.923	47.142	0	95.10	0	7.5470	0	32.4690	0	25.352	0	94.288	0	261.0	4	88.4	4	-1E+10	1	-1E+10	1	-1E+10	1	-1E+10	1	-1E+10	1	-1E+10	1
4902549	48	C	12/06/2021	07:54	-131.923	47.142	0	95.90	0	7.4020	0	32.4760	0	25.378	0	95.081	0	261.5	4	88.3	4	-1E+10	1	-1E+10	1	-1E+10	1	-1E+10	1	-1E+10	1	-1E+10	1
4902549	48	C	12/06/2021	07:54	-131.923	47.142	0	96.90	0	7.2600	0	32.4670	0	25.390	0	96.072	0	262.3	4	88.3	4	-1E+10	1	-1E+10	1	-1E+10	1	-1E+10	1	-1E+10	1	-1E+10	1
4902549	48	C	12/06/2021	07:54	-131.923	47.142	0	98.10	0	7.2310	0	32.4650	0	25.393	0	97.261	0	262.3	4	88.2	4	-1E+10	1	-1E+10	1	-1E+10	1	-1E+10	1	-1E+10	1	-1E+10	1
4902549	48	C	12/06/2021	07:54	-131.923	47.142	0	98.80	0	7.2240	0	32.4650	0	25.394	0	97.955	0	262.1	4	88.1	4	-1E+10	1	-1E+10	1	-1E+10	1	-1E+10	1	-1E+10	1	-1E+10	1
4902549	48	C	12/06/2021	07:54	-131.923	47.142	0	99.90	0	7.2130	0	32.4650	0	25.395	0	99.046	0	261.6	4	87.9	4	-1E+10	1	-1E+10	1	-1E+10	1	-1E+10	1	-1E+10	1	-1E+10	1
4902549	48	C	12/06/2021	07:54	-131.923	47.142	0	100.90	0	7.1660	0	32.4670	0	25.403	0	100.037	0	261.4	4	87.8	4	-1E+10	1	-1E+10	1	-1E+10	1	-1E+10	1	-1E+10	1	-1E+10	1
4902549	48	C	12/06/2021	07:54	-131.923	47.142	0	101.90	0	7.0820	0	32.4800	0	25.425	0	101.028	0	261.2	4	87.5	4	-1E+10	1	-1E+10	1	-1E+10	1	-1E+10	1	-1E+10	1	-1E+10	1
4902549	48	C	12/06/2021	07:54	-131.923	47.142	0	103.00	0	7.0110	0	32.4800	0	25.434	0	102.118	0	261.0	4	87.3	4	-1E+10	1	-1E+10	1	-1E+10	1	-1E+10	1	-1E+10	1	-1E+10	1
4902549	48	C	12/06/2021	07:54	-131.923	47.142	0	104.20	0	6.9080	0	32.4870	0	25.453	0	103.308	0	260.5	4	87.0	4	-1E+10	1	-1E+10	1	-1E+10	1	-1E+10	1	-1E+10	1	-1E+10	1
4902549	48	C	12/06/2021	07:54	-131.923	47.142	0	104.80	0	6.9130	0	32.4880	0	25.453	0	103.902	0	259.9	4	86.8	4	-1E+10	1	-1E+10	1	-1E+10	1	-1E+10	1	-1E+10	1	-1E+10	1
4902549	48	C	12/06/2021	07:54	-131.923	47.142	0	106.10	0	6.8850	0	32.4850	0	25.455	0	105.191	0	258.7	4	86.3	4	-1E+10	1	-1E+10	1	-1E+10	1	-1E+10	1	-1E+10	1	-1E+10	1
4902549	48	C	12/06/2021	07:54	-131.923	47.142	0	107.20	0	6.8330	0	32.5170	0	25.487	0	106.281	0	257.1	4	85.7	4	-1E+10	1	-1E+10	1	-1E+10	1	-1E+10	1	-1E+10	1	-1E+10	1
4902549	48	C	12/06/2021	07:54	-131.923	47.142	0	107.80	0	6.8010	0	32.4930	0	25.472	0	106.876	0	256.6	4	85.4	4	-1E+10	1	-1E+10	1	-1E+10	1	-1E+10	1	-1E+10	1	-1E+10	1
4902549	48	C	12/06/2021	07:54	-131.923	47.142	0	108.70	0	6.7750	0	32.4960	0	25.478	0	107.768	0	255.2	4	84.9	4	-1E+10	1	-1E+10	1	-1E+10	1	-1E+10	1	-1E+10	1	-1E+10	1
4902549	48	C	12/06/2021	07:54	-131.923	47.142	0	109.70	0	6.7600	0	32.5130	0	25.493	0	108.759	0	253.6	4	84.4	4	-1E+10	1	-1E+10	1	-1E+10	1	-1E+10	1	-1E+10	1	-1E+10	1
4902549	48	C	12/06/2021	07:54	-131.923	47.142	0	110.80	0	6.7650	0	32.5240	0	25.501	0	109.849	0	251.6	4	83.8	4	-1E+10	1	-1E+10	1	-1E+10	1	-1E+10	1	-1E+10	1	-1E+10	1
4902549	48	C	12/06/2021	07:54	-131.923	47.142	0	111.80	0	6.7810	0	32.5490	0	25.519	0	110.841	0	249.4	4	83.1	4	-1E+10	1	-1E+10	1	-1E+10	1	-1E+10	1	-1E+10	1	-1E+10	1
4902549	48	C	12/06/2021	07:54	-131.923	47.142	0	112.80	0	6.7800	0	32.5590	0	25.527	0	111.832	0	246.9	4	82.2	4	-1E+10	1	-1E+10	1	-1E+10	1	-1E+10	1	-1E+10	1	-1E+10	1
4902549	48	C	12/06/2021	07:54	-131.923	47.142	0	113.80	0	6.7680	0	32.5790	0	25.544	0	112.823	0	244.3	4	81.4	4	-1E+10	1	-1E+10	1	-1E+10	1	-1E+10	1	-1E+10	1	-1E+10	1
4902549	48	C	12/06/2021	07:54	-131.923	47.142	0	114.80	0	6.7680	0	32.6200	0	25.577	0	113.814	0	241.7	4	80.5	4	-1E+10	1	-1E+10	1	-1E+10	1	-1E+10	1	-1E+10	1	-1E+10	1
4902549	48	C	12/06/2021	07:54	-131.923	47.142	0	115.80	0	6.7820	0	32.6690	0	25.613	0	114.805	0	239.3	4	79.8	4	-1E+10	1	-1E+10	1	-1E+10	1	-1E+10	1	-1E+10	1	-1E+10	1
4902549	48	C	12/06/2021	07:54	-131.923	47.142	0	116.90	0	6.8000	0	32.7170	0	25.649	0	115.895	0	236.5	4	78.9	4	-1E+10	1	-1E+10	1	-1E+10	1	-1E+10	1	-1E+10	1	-1E+10	1
4902549	48	C	12/06/2021	07:54	-131.923	47.142	0	117.80	0	6.8200	0	32.7620	0	25.682	0	116.787	0	234.4	4	78.3	4	-1E+10	1	-1E+10	1	-1E+10	1	-1E+10	1	-1E+10	1	-1E+10	1
4902549	48	C	12/06/2021	07:54	-131.923	47.142	0	119.10	0	6.8540	0	32.8030	0	25.709	0	118.076	0	231.9	4	77.5	4	-1E+10	1	-1E+10	1	-1E+10	1	-1E+10	1	-1E+10	1	-1E+10	1
4902549	48	C	12/06/2021	07:54	-131.923	47.142	0	120.00	0	6.8700	0	32.8190	0	25.720	0	118.968	0	230.2	4	77.0	4	-1E+10	1	-1E+10	1	-1E+10	1	-1E+10	1	-1E+10	1	-1E+10	1
4902549	48	C	12/06/2021	07:54	-131.923	47.142	0	120.90	0	6.8890	0	32.8370	0	25.732	0	119.860	0	228.5	4	76.4	4	-1E+10	1	-1E+10	1	-1E+10	1	-1E+10	1	-1E+10	1	-1E+10	1
4902549	48	C	12/06/2021	07:54	-131.923	47.142	0	122.00	0	6.9130	0	32.8620	0	25.748	0	120.950	0	226.8	4	75.9	4	-1E+10	1	-1E+10	1	-1E+10	1	-1E+10	1	-1E+10	1	-1E+10	1
4902549	48	C	12/06/2021	07:54	-131.923	47.142	0	123.00	0	6.9160	0	32.8680	0	25.752	0	121.941	0	224.8	4	75.3	4	-1E+10	1	-1E+10	1	-1E+10	1	-1E+10	1	-1E+10	1	-1E+10	1
4902549	48	C	12/06/2021	07:54	-131.923	47.142	0	124.00	0	6.9190	0	32.8720	0	25.755	0	122.932	0	222.4	4	74.5	4	-1E+10	1	-1E+10	1	-1E+10	1	-1E+10	1	-1E+10	1	-1E+10	1
4902549	48	C	12/06/2021	07:54	-131.923	47.142	0	125.00	0	6.9240	0	32.8820	0	25.762	0	123.923	0	219.7	4	73.6	4	-1E+10	1	-1E+10	1	-1E+10	1	-1E+10	1	-1E+10	1	-1E+10	1
4902549	48	C	12/06/2021	07:54	-131.923	47.142	0	126.00	0	6.9370	0	32.9050	0	25.779	0	124.914	0	215.9	4	72.3	4	-1E+10	1	-1E+10	1	-1E+10	1	-1E+10	1	-1E+10	1	-1E+10	1
4902549	48	C	12/06/2021	07:54	-131.923	47.142	0	127.10	0	6.9890	0	32.9880	0	25.837	0	126.005	0	211.8	4	71.1	4	-1E+10	1	-1E+10	1	-1E+10	1	-1E+10	1	-1E+10	1	-1E+10	1
4902549	48	C	12/06/2021	07:54	-131.923	47.142	0	127.90	0	7.0430	0	33.0710	0	25.895	0	126.797	0	209.8	4	70.6	4	-1E+10	1	-1E+10	1	-1E+10	1	-1E+10	1	-1E+10	1	-1E+10	1
4902549	48	C	12/06/2021	07:54	-131.923	47.142	0	128.90	0	7.0450	0	33.1080	0	25.924	0	127.788	0	207.8	4	69.9	4	-1E+10	1	-1E+10	1	-1E+10	1	-1E+10	1	-1E+10	1	-1E+10	1
4902549	48	C	12/06/2021	07:54	-131.923	47.142	0	129.80	0	7.0610	0	33.1440	0	25.950	0	128.680	0	206.4	4	69.5	4	-1E+10	1	-1E+10	1	-1E+10	1	-1E+10	1	-1E+10	1	-1E+10	1
4902549	48	C	12/06/2021	07:54	-131.923	47.142	0	130.80	0	7.0720	0	33.1670	0	25.967	0	129.672	0	205.0	4	69.0	4	-1E+10	1	-1E+10	1	-1E+10	1	-1E+10	1	-1E+10	1	-1E+10	1
4902549	48	C	12/06/2021	07:54	-131.923	47.142	0	131.90	0	7.1080	0	33.2070	0	25.994	0	130.762	0	203.7	4	68.7	4	-1E+10	1	-1E+10	1	-1E+10	1	-1E+10	1	-1E+10	1	-1E+10	1
4902549	48	C	12/06/2021	07:54	-131.923	47.142	0	133.00	0	7.1260	0	33.2260	0	26.006	0	131.852	0	202.6	4	68.3	4	-1E+10	1	-1E+10	1	-1E+10	1	-1E+10	1	-1E+10	1	-1E+10	1
4902549	48	C	12/06/2021	07:54	-131.923	47.142	0	133.90	0	7.1360	0	33.2430	0	26.018	0	132.744	0	201.9	4	68.1	4	-1E+10	1	-1E+10	1	-1E+10	1	-1E+10	1	-1E+10	1	-1E+10	1
4902549	48	C	12/06/2021	07:54	-131.923	47.142	0	134.80	0	7.1450	0	33.2530	0	26.025	0	133.636	0	201.1	4	67.9	4	-1E+10	1	-1E+10	1	-1E+10	1	-1E+10	1	-1E+10	1	-1E+10	1
4902549	48	C	12/06/2021	07:54	-131.923	47.142	0	136.00	0	7.1480	0	33.2580	0	26.028	0	134.825	0	199.9	4	67.5	4	-1E+10	1	-1E+10	1	-1E+10	1	-1E+10	1	-1E+10	1	-1E+10	1
4902549	48	C	12/06/2021	07:54	-131.923	47.142	0	136.90	0	7.1530	0	33.2710	0	26.038	0	135.717	0	198.8	4	67.1	4	-1E+10	1	-1E+10	1	-1E+10	1	-1E+10	1	-1E+10	1	-1E+10	1
4902549	48	C	12/06/2021	07:54	-131.923	47.142	0	137.90	0	7.1540	0	33.2760	0	26.042	0	136.708	0	197.8	4	66.8	4	-1E+10	1	-1E+10	1	-1E+10	1	-1E+10	1	-1E+10	1	-1E+10	1
4902549	48	C	12/06/2021	07:54	-131.923	47.142	0	138.80	0	7.1570	0	33.2820	0	26.046	0	137.600	0	196.6	4	66.4	4	-1E+10	1	-1E+10	1	-1E+10	1	-1E+10	1	-1E+10	1	-1E+10	1
4902549	48	C	12/06/2021	07:54	-131.923	47.142	0	139.80	0	7.1620	0	33.2930	0	26.054	0	138.591	0	195.1	4	65.9	4	-1E+10	1	-1E+10	1	-1E+10	1	-1E+10	1	-1E+10	1	-1E+10	1
4902549	48	C	12/06/2021	07:54	-131.923	47.142	0	140.90	0	7.1840	0	33.3260	0	26.077	0	139.681	0	193.7	4	65.5	4	-1E+10	1	-1E+10	1	-1E+10	1	-1E+10	1	-1E+10	1	-1E+10	1
4902549	48	C	12/06/2021	07:54	-131.923	47.142	0	142.00	0	7.1940	0	33.3600	0	26.103	0	140.771	0	192.4	4	65.1	4	-1E+10	1	-1E+10	1	-1E+10	1	-1E+10	1	-1E+10	1	-1E+10	1
4902549	48	C	12/06/2021	07:54	-131.923	47.142	0	143.10	0	7.2120	0	33.3990	0	26.131	0	141.861	0	191.2	4	64.7	4	-1E+10	1	-1E+10	1	-1E+10	1	-1E+10	1	-1E+10	1	-1E+10	1
4902549	48	C	12/06/2021	07:54	-131.923	47.142	0	143.90	0	7.2430	0	33.4070	0	26.133	0	142.654	0	190.3	4	64.5	4	-1E+10	1	-1E+10	1	-1E+10	1	-1E+10	1	-1E+10	1	-1E+10	1
4902549	48	C	12/06/2021	07:54	-131.923	47.142	0	145.00	0	7.2610	0	33.4410	0	26.157	0	143.744	0	189.0	4	64.1	4	-1E+10	1	-1E+10	1	-1E+10	1	-1E+10	1	-1E+10	1	-1E+10	1
4902549	48	C	12/06/2021	07:54	-131.923	47.142	0	146.20	0	7.2910	0	33.4920	0	26.193	0	144.933	0	187.9	4	63.7	4	-1E+10	1	-1E+10	1	-1E+10	1	-1E+10	1	-1E+10	1	-1E+10	1
4902549	48	C	12/06/2021	07:54	-131.923	47.142	0	147.00	0	7.2840	0	33.5050	0	26.204	0	145.726	0	187.3	4	63.5	4	-1E+10	1	-1E+10	1	-1E+10	1	-1E+10	1	-1E+10	1	-1E+10	1
4902549	48	C	12/06/2021	07:54	-131.923	47.142	0	147.80	0	7.2770	0	33.5110	0	26.210	0	146.519	0	186.8	4	63.3	4	-1E+10	1	-1E+10	1	-1E+10	1	-1E+10	1	-1E+10	1	-1E+10	1
4902549	48	C	12/06/2021	07:54	-131.923	47.142	0	148.70	0	7.2850	0	33.5420	0	26.233	0	147.411	0	186.1	4	63.2	4	-1E+10	1	-1E+10	1	-1E+10	1	-1E+10	1	-1E+10	1	-1E+10	1
4902549	48	C	12/06/2021	07:54	-131.923	47.142	0	149.90	0	7.2840	0	33.5540	0	26.243	0	148.600	0	185.3	4	62.9	4	-1E+10	1	-1E+10	1	-1E+10	1	-1E+10	1	-1E+10	1	-1E+10	1
4902549	48	C	12/06/2021	07:54	-131.923	47.142	0	151.20	0	7.2820	0	33.5610	0	26.249	0	149.888	0	184.4	4	62.6	4	-1E+10	1	-1E+10	1	-1E+10	1	-1E+10	1	-1E+10	1	-1E+10	1
4902549	48	C	12/06/2021	07:54	-131.923	47.142	0	152.00	0	7.2780	0	33.5670	0	26.254	0	150.681	0	183.7	4	62.4	4	-1E+10	1	-1E+10	1	-1E+10	1	-1E+10	1	-1E+10	1	-1E+10	1
4902549	48	C	12/06/2021	07:54	-131.923	47.142	0	152.80	0	7.2710	0	33.5760	0	26.262	0	151.474	0	183.0	4	62.1	4	-1E+10	1	-1E+10	1	-1E+10	1	-1E+10	1	-1E+10	1	-1E+10	1
4902549	48	C	12/06/2021	07:54	-131.923	47.142	0	153.70	0	7.2710	0	33.5840	0	26.268	0	152.366	0	182.3	4	61.9	4	-1E+10	1	-1E+10	1	-1E+10	1	-1E+10	1	-1E+10	1	-1E+10	1
4902549	48	C	12/06/2021	07:54	-131.923	47.142	0	154.60	0	7.2510	0	33.6100	0	26.292	0	153.257	0	181.7	4	61.6	4	-1E+10	1	-1E+10	1	-1E+10	1	-1E+10	1	-1E+10	1	-1E+10	1
4902549	48	C	12/06/2021	07:54	-131.923	47.142	0	155.90	0	7.2170	0	33.6460	0	26.325	0	154.546	0	181.1	4	61.4	4	-1E+10	1	-1E+10	1	-1E+10	1	-1E+10	1	-1E+10	1	-1E+10	1
4902549	48	C	12/06/2021	07:54	-131.923	47.142	0	157.20	0	7.2040	0	33.6620	0	26.339	0	155.834	0	180.3	4	61.1	4	-1E+10	1	-1E+10	1	-1E+10	1	-1E+10	1	-1E+10	1	-1E+10	1
4902549	48	C	12/06/2021	07:54	-131.923	47.142	0	158.20	0	7.1970	0	33.6730	0	26.349	0	156.825	0	179.8	4	60.9	4	-1E+10	1	-1E+10	1	-1E+10	1	-1E+10	1	-1E+10	1	-1E+10	1
4902549	48	C	12/06/2021	07:54	-131.923	47.142	0	159.10	0	7.2200	0	33.6870	0	26.357	0	157.717	0	179.1	4	60.7	4	-1E+10	1	-1E+10	1	-1E+10	1	-1E+10	1	-1E+10	1	-1E+10	1
4902549	48	C	12/06/2021	07:54	-131.923	47.142	0	160.00	0	7.2280	0	33.6890	0	26.357	0	158.608	0	178.4	4	60.5	4	-1E+10	1	-1E+10	1	-1E+10	1	-1E+10	1	-1E+10	1	-1E+10	1
4902549	48	C	12/06/2021	07:54	-131.923	47.142	0	160.90	0	7.2270	0	33.6880	0	26.356	0	159.500	0	177.7	4	60.3	4	-1E+10	1	-1E+10	1	-1E+10	1	-1E+10	1	-1E+10	1	-1E+10	1
4902549	48	C	12/06/2021	07:54	-131.923	47.142	0	161.70	0	7.2240	0	33.6900	0	26.358	0	160.293	0	177.0	4	60.0	4	-1E+10	1	-1E+10	1	-1E+10	1	-1E+10	1	-1E+10	1	-1E+10	1
4902549	48	C	12/06/2021	07:54	-131.923	47.142	0	162.60	0	7.2130	0	33.7030	0	26.370	0	161.185	0	176.3	4	59.8	4	-1E+10	1	-1E+10	1	-1E+10	1	-1E+10	1	-1E+10	1	-1E+10	1
4902549	48	C	12/06/2021	07:54	-131.923	47.142	0	163.50	0	7.1710	0	33.7090	0	26.381	0	162.077	0	175.9	4	59.6	4	-1E+10	1	-1E+10	1	-1E+10	1	-1E+10	1	-1E+10	1	-1E+10	1
4902549	48	C	12/06/2021	07:54	-131.923	47.142	0	164.90	0	7.1330	0	33.7280	0	26.401	0	163.464	0	174.9	4	59.2	4	-1E+10	1	-1E+10	1	-1E+10	1	-1E+10	1	-1E+10	1	-1E+10	1
4902549	48	C	12/06/2021	07:54	-131.923	47.142	0	166.30	0	7.1200	0	33.7400	0	26.412	0	164.851	0	173.8	4	58.9	4	-1E+10	1	-1E+10	1	-1E+10	1	-1E+10	1	-1E+10	1	-1E+10	1
4902549	48	C	12/06/2021	07:54	-131.923	47.142	0	167.20	0	7.1180	0	33.7410	0	26.413	0	165.743	0	173.1	4	58.6	4	-1E+10	1	-1E+10	1	-1E+10	1	-1E+10	1	-1E+10	1	-1E+10	1
4902549	48	C	12/06/2021	07:54	-131.923	47.142	0	168.10	0	7.1120	0	33.7430	0	26.416	0	166.635	0	172.2	4	58.3	4	-1E+10	1	-1E+10	1	-1E+10	1	-1E+10	1	-1E+10	1	-1E+10	1
4902549	48	C	12/06/2021	07:54	-131.923	47.142	0	169.00	0	7.0970	0	33.7450	0	26.419	0	167.526	0	171.4	4	58.0	4	-1E+10	1	-1E+10	1	-1E+10	1	-1E+10	1	-1E+10	1	-1E+10	1
4902549	48	C	12/06/2021	07:54	-131.923	47.142	0	170.00	0	7.1050	0	33.7580	0	26.428	0	168.517	0	170.6	4	57.8	4	-1E+10	1	-1E+10	1	-1E+10	1	-1E+10	1	-1E+10	1	-1E+10	1
4902549	48	C	12/06/2021	07:54	-131.923	47.142	0	170.90	0	7.0400	0	33.7580	0	26.437	0	169.409	0	170.2	4	57.5	4	-1E+10	1	-1E+10	1	-1E+10	1	-1E+10	1	-1E+10	1	-1E+10	1
4902549	48	C	12/06/2021	07:54	-131.923	47.142	0	171.90	0	7.0280	0	33.7680	0	26.447	0	170.400	0	169.5	4	57.3	4	-1E+10	1	-1E+10	1	-1E+10	1	-1E+10	1	-1E+10	1	-1E+10	1
4902549	48	C	12/06/2021	07:54	-131.923	47.142	0	172.90	0	6.9980	0	33.7730	0	26.455	0	171.391	0	169.0	4	57.1	4	-1E+10	1	-1E+10	1	-1E+10	1	-1E+10	1	-1E+10	1	-1E+10	1
4902549	48	C	12/06/2021	07:54	-131.923	47.142	0	173.80	0	6.9950	0	33.7750	0	26.457	0	172.283	0	168.5	4	56.9	4	-1E+10	1	-1E+10	1	-1E+10	1	-1E+10	1	-1E+10	1	-1E+10	1
4902549	48	C	12/06/2021	07:54	-131.923	47.142	0	174.80	0	6.9970	0	33.7790	0	26.460	0	173.273	0	167.9	4	56.7	4	-1E+10	1	-1E+10	1	-1E+10	1	-1E+10	1	-1E+10	1	-1E+10	1
4902549	48	C	12/06/2021	07:54	-131.923	47.142	0	175.80	0	6.9950	0	33.7790	0	26.460	0	174.264	0	167.5	4	56.6	4	-1E+10	1	-1E+10	1	-1E+10	1	-1E+10	1	-1E+10	1	-1E+10	1
4902549	48	C	12/06/2021	07:54	-131.923	47.142	0	176.70	0	6.9830	0	33.7800	0	26.462	0	175.156	0	167.0	4	56.4	4	-1E+10	1	-1E+10	1	-1E+10	1	-1E+10	1	-1E+10	1	-1E+10	1
4902549	48	C	12/06/2021	07:54	-131.923	47.142	0	177.60	0	6.9720	0	33.7810	0	26.465	0	176.048	0	166.5	4	56.2	4	-1E+10	1	-1E+10	1	-1E+10	1	-1E+10	1	-1E+10	1	-1E+10	1
4902549	48	C	12/06/2021	07:54	-131.923	47.142	0	178.60	0	6.9420	0	33.7800	0	26.468	0	177.039	0	166.0	4	56.0	4	-1E+10	1	-1E+10	1	-1E+10	1	-1E+10	1	-1E+10	1	-1E+10	1
4902549	48	C	12/06/2021	07:54	-131.923	47.142	0	179.50	0	6.9290	0	33.7800	0	26.470	0	177.930	0	165.5	4	55.8	4	-1E+10	1	-1E+10	1	-1E+10	1	-1E+10	1	-1E+10	1	-1E+10	1
4902549	48	C	12/06/2021	07:54	-131.923	47.142	0	180.50	0	6.9050	0	33.7840	0	26.476	0	178.921	0	165.1	4	55.6	4	-1E+10	1	-1E+10	1	-1E+10	1	-1E+10	1	-1E+10	1	-1E+10	1
4902549	48	C	12/06/2021	07:54	-131.923	47.142	0	181.50	0	6.8960	0	33.7820	0	26.476	0	179.912	0	164.6	4	55.5	4	-1E+10	1	-1E+10	1	-1E+10	1	-1E+10	1	-1E+10	1	-1E+10	1
4902549	48	C	12/06/2021	07:54	-131.923	47.142	0	182.50	0	6.8820	0	33.7870	0	26.482	0	180.903	0	164.1	4	55.3	4	-1E+10	1	-1E+10	1	-1E+10	1	-1E+10	1	-1E+10	1	-1E+10	1
4902549	48	C	12/06/2021	07:54	-131.923	47.142	0	183.50	0	6.8650	0	33.7820	0	26.480	0	181.894	0	163.4	4	55.0	4	-1E+10	1	-1E+10	1	-1E+10	1	-1E+10	1	-1E+10	1	-1E+10	1
4902549	48	C	12/06/2021	07:54	-131.923	47.142	0	184.50	0	6.8680	0	33.7870	0	26.484	0	182.884	0	162.8	4	54.8	4	-1E+10	1	-1E+10	1	-1E+10	1	-1E+10	1	-1E+10	1	-1E+10	1
4902549	48	C	12/06/2021	07:54	-131.923	47.142	0	185.50	0	6.8840	0	33.7920	0	26.485	0	183.875	0	162.2	4	54.6	4	-1E+10	1	-1E+10	1	-1E+10	1	-1E+10	1	-1E+10	1	-1E+10	1
4902549	48	C	12/06/2021	07:54	-131.923	47.142	0	186.50	0	6.8730	0	33.7950	0	26.489	0	184.866	0	161.8	4	54.5	4	-1E+10	1	-1E+10	1	-1E+10	1	-1E+10	1	-1E+10	1	-1E+10	1
4902549	48	C	12/06/2021	07:54	-131.923	47.142	0	187.50	0	6.8600	0	33.7950	0	26.491	0	185.857	0	161.3	4	54.3	4	-1E+10	1	-1E+10	1	-1E+10	1	-1E+10	1	-1E+10	1	-1E+10	1
4902549	48	C	12/06/2021	07:54	-131.923	47.142	0	188.50	0	6.8570	0	33.7960	0	26.492	0	186.848	0	160.8	4	54.1	4	-1E+10	1	-1E+10	1	-1E+10	1	-1E+10	1	-1E+10	1	-1E+10	1
4902549	48	C	12/06/2021	07:54	-131.923	47.142	0	189.50	0	6.8360	0	33.8000	0	26.498	0	187.838	0	160.5	4	54.0	4	-1E+10	1	-1E+10	1	-1E+10	1	-1E+10	1	-1E+10	1	-1E+10	1
4902549	48	C	12/06/2021	07:54	-131.923	47.142	0	190.60	0	6.8290	0	33.8010	0	26.500	0	188.928	0	160.2	4	53.9	4	-1E+10	1	-1E+10	1	-1E+10	1	-1E+10	1	-1E+10	1	-1E+10	1
4902549	48	C	12/06/2021	07:54	-131.923	47.142	0	191.60	0	6.8260	0	33.8000	0	26.500	0	189.919	0	159.8	4	53.8	4	-1E+10	1	-1E+10	1	-1E+10	1	-1E+10	1	-1E+10	1	-1E+10	1
4902549	48	C	12/06/2021	07:54	-131.923	47.142	0	192.70	0	6.8240	0	33.7990	0	26.499	0	191.009	0	159.3	4	53.6	4	-1E+10	1	-1E+10	1	-1E+10	1	-1E+10	1	-1E+10	1	-1E+10	1
4902549	48	C	12/06/2021	07:54	-131.923	47.142	0	193.70	0	6.8150	0	33.8010	0	26.502	0	192.000	0	158.8	4	53.4	4	-1E+10	1	-1E+10	1	-1E+10	1	-1E+10	1	-1E+10	1	-1E+10	1
4902549	48	C	12/06/2021	07:54	-131.923	47.142	0	194.80	0	6.7860	0	33.7990	0	26.504	0	193.089	0	158.5	4	53.3	4	-1E+10	1	-1E+10	1	-1E+10	1	-1E+10	1	-1E+10	1	-1E+10	1
4902549	48	C	12/06/2021	07:54	-131.923	47.142	0	195.80	0	6.7700	0	33.8000	0	26.507	0	194.080	0	158.1	4	53.1	4	-1E+10	1	-1E+10	1	-1E+10	1	-1E+10	1	-1E+10	1	-1E+10	1
4902549	48	C	12/06/2021	07:54	-131.923	47.142	0	196.80	0	6.7350	0	33.7970	0	26.509	0	195.071	0	157.7	4	52.9	4	-1E+10	1	-1E+10	1	-1E+10	1	-1E+10	1	-1E+10	1	-1E+10	1
4902549	48	C	12/06/2021	07:54	-131.923	47.142	0	197.80	0	6.7140	0	33.7960	0	26.512	0	196.062	0	157.1	4	52.7	4	-1E+10	1	-1E+10	1	-1E+10	1	-1E+10	1	-1E+10	1	-1E+10	1
4902549	48	C	12/06/2021	07:54	-131.923	47.142	0	198.90	0	6.6980	0	33.7960	0	26.514	0	197.152	0	156.5	4	52.5	4	-1E+10	1	-1E+10	1	-1E+10	1	-1E+10	1	-1E+10	1	-1E+10	1
4902549	48	C	12/06/2021	07:54	-131.923	47.142	0	199.90	0	6.7080	0	33.7960	0	26.512	0	198.142	0	155.8	4	52.3	4	-1E+10	1	-1E+10	1	-1E+10	1	-1E+10	1	-1E+10	1	-1E+10	1
4902549	48	C	12/06/2021	07:54	-131.923	47.142	0	201.00	0	6.6940	0	33.8010	0	26.518	0	199.232	0	155.2	4	52.1	4	-1E+10	1	-1E+10	1	-1E+10	1	-1E+10	1	-1E+10	1	-1E+10	1
4902549	48	C	12/06/2021	07:54	-131.923	47.142	0	202.00	0	6.6470	0	33.7930	0	26.518	0	200.223	0	154.9	4	51.9	4	-1E+10	1	-1E+10	1	-1E+10	1	-1E+10	1	-1E+10	1	-1E+10	1
4902549	48	C	12/06/2021	07:54	-131.923	47.142	0	203.10	0	6.6090	0	33.8090	0	26.536	0	201.313	0	154.2	4	51.6	4	-1E+10	1	-1E+10	1	-1E+10	1	-1E+10	1	-1E+10	1	-1E+10	1
4902549	48	C	12/06/2021	07:54	-131.923	47.142	0	204.10	0	6.5760	0	33.7950	0	26.529	0	202.303	0	153.7	4	51.4	4	-1E+10	1	-1E+10	1	-1E+10	1	-1E+10	1	-1E+10	1	-1E+10	1
4902549	48	C	12/06/2021	07:54	-131.923	47.142	0	205.20	0	6.5660	0	33.7940	0	26.530	0	203.393	0	153.0	4	51.2	4	-1E+10	1	-1E+10	1	-1E+10	1	-1E+10	1	-1E+10	1	-1E+10	1
4902549	48	C	12/06/2021	07:54	-131.923	47.142	0	206.20	0	6.5720	0	33.7990	0	26.533	0	204.384	0	152.1	4	50.9	4	-1E+10	1	-1E+10	1	-1E+10	1	-1E+10	1	-1E+10	1	-1E+10	1
4902549	48	C	12/06/2021	07:54	-131.923	47.142	0	207.30	0	6.5720	0	33.8040	0	26.537	0	205.473	0	151.5	4	50.7	4	-1E+10	1	-1E+10	1	-1E+10	1	-1E+10	1	-1E+10	1	-1E+10	1
4902549	48	C	12/06/2021	07:54	-131.923	47.142	0	208.40	0	6.5650	0	33.8080	0	26.541	0	206.563	0	150.8	4	50.4	4	-1E+10	1	-1E+10	1	-1E+10	1	-1E+10	1	-1E+10	1	-1E+10	1
4902549	48	C	12/06/2021	07:54	-131.923	47.142	0	209.40	0	6.5560	0	33.8100	0	26.544	0	207.554	0	150.2	4	50.2	4	-1E+10	1	-1E+10	1	-1E+10	1	-1E+10	1	-1E+10	1	-1E+10	1
4902549	48	C	12/06/2021	07:54	-131.923	47.142	0	210.50	0	6.5490	0	33.8100	0	26.544	0	208.644	0	149.7	4	50.1	4	-1E+10	1	-1E+10	1	-1E+10	1	-1E+10	1	-1E+10	1	-1E+10	1
4902549	48	C	12/06/2021	07:54	-131.923	47.142	0	211.50	0	6.5450	0	33.8100	0	26.545	0	209.634	0	149.1	4	49.8	4	-1E+10	1	-1E+10	1	-1E+10	1	-1E+10	1	-1E+10	1	-1E+10	1
4902549	48	C	12/06/2021	07:54	-131.923	47.142	0	212.60	0	6.5390	0	33.8120	0	26.547	0	210.724	0	148.5	4	49.6	4	-1E+10	1	-1E+10	1	-1E+10	1	-1E+10	1	-1E+10	1	-1E+10	1
4902549	48	C	12/06/2021	07:54	-131.923	47.142	0	213.70	0	6.5190	0	33.8150	0	26.552	0	211.814	0	148.0	4	49.4	4	-1E+10	1	-1E+10	1	-1E+10	1	-1E+10	1	-1E+10	1	-1E+10	1
4902549	48	C	12/06/2021	07:54	-131.923	47.142	0	214.80	0	6.5030	0	33.8150	0	26.554	0	212.904	0	147.4	4	49.2	4	-1E+10	1	-1E+10	1	-1E+10	1	-1E+10	1	-1E+10	1	-1E+10	1
4902549	48	C	12/06/2021	07:54	-131.923	47.142	0	215.80	0	6.4880	0	33.8170	0	26.558	0	213.894	0	147.0	4	49.1	4	-1E+10	1	-1E+10	1	-1E+10	1	-1E+10	1	-1E+10	1	-1E+10	1
4902549	48	C	12/06/2021	07:54	-131.923	47.142	0	216.90	0	6.4790	0	33.8200	0	26.562	0	214.984	0	146.4	4	48.9	4	-1E+10	1	-1E+10	1	-1E+10	1	-1E+10	1	-1E+10	1	-1E+10	1
4902549	48	C	12/06/2021	07:54	-131.923	47.142	0	218.00	0	6.4750	0	33.8190	0	26.561	0	216.074	0	145.8	4	48.7	4	-1E+10	1	-1E+10	1	-1E+10	1	-1E+10	1	-1E+10	1	-1E+10	1
4902549	48	C	12/06/2021	07:54	-131.923	47.142	0	219.10	0	6.4640	0	33.8220	0	26.565	0	217.163	0	145.3	4	48.5	4	-1E+10	1	-1E+10	1	-1E+10	1	-1E+10	1	-1E+10	1	-1E+10	1
4902549	48	C	12/06/2021	07:54	-131.923	47.142	0	220.10	0	6.4610	0	33.8220	0	26.566	0	218.154	0	144.7	4	48.3	4	-1E+10	1	-1E+10	1	-1E+10	1	-1E+10	1	-1E+10	1	-1E+10	1
4902549	48	C	12/06/2021	07:54	-131.923	47.142	0	221.20	0	6.4490	0	33.8260	0	26.570	0	219.244	0	144.2	4	48.1	4	-1E+10	1	-1E+10	1	-1E+10	1	-1E+10	1	-1E+10	1	-1E+10	1
4902549	48	C	12/06/2021	07:54	-131.923	47.142	0	222.30	0	6.4380	0	33.8270	0	26.573	0	220.333	0	143.7	4	47.9	4	-1E+10	1	-1E+10	1	-1E+10	1	-1E+10	1	-1E+10	1	-1E+10	1
4902549	48	C	12/06/2021	07:54	-131.923	47.142	0	223.40	0	6.4360	0	33.8270	0	26.573	0	221.423	0	143.2	4	47.8	4	-1E+10	1	-1E+10	1	-1E+10	1	-1E+10	1	-1E+10	1	-1E+10	1
4902549	48	C	12/06/2021	07:54	-131.923	47.142	0	224.40	0	6.4300	0	33.8270	0	26.574	0	222.414	0	142.7	4	47.6	4	-1E+10	1	-1E+10	1	-1E+10	1	-1E+10	1	-1E+10	1	-1E+10	1
4902549	48	C	12/06/2021	07:54	-131.923	47.142	0	225.50	0	6.4150	0	33.8310	0	26.579	0	223.503	0	142.3	4	47.4	4	-1E+10	1	-1E+10	1	-1E+10	1	-1E+10	1	-1E+10	1	-1E+10	1
4902549	48	C	12/06/2021	07:54	-131.923	47.142	0	226.60	0	6.4140	0	33.8300	0	26.578	0	224.593	0	141.8	4	47.3	4	-1E+10	1	-1E+10	1	-1E+10	1	-1E+10	1	-1E+10	1	-1E+10	1
4902549	48	C	12/06/2021	07:54	-131.923	47.142	0	227.70	0	6.4050	0	33.8300	0	26.579	0	225.683	0	141.3	4	47.1	4	-1E+10	1	-1E+10	1	-1E+10	1	-1E+10	1	-1E+10	1	-1E+10	1
4902549	48	C	12/06/2021	07:54	-131.923	47.142	0	228.80	0	6.3920	0	33.8300	0	26.581	0	226.772	0	140.8	4	46.9	4	-1E+10	1	-1E+10	1	-1E+10	1	-1E+10	1	-1E+10	1	-1E+10	1
4902549	48	C	12/06/2021	07:54	-131.923	47.142	0	229.80	0	6.3740	0	33.8310	0	26.584	0	227.763	0	140.2	4	46.7	4	-1E+10	1	-1E+10	1	-1E+10	1	-1E+10	1	-1E+10	1	-1E+10	1
4902549	48	C	12/06/2021	07:54	-131.923	47.142	0	230.90	0	6.3680	0	33.8300	0	26.584	0	228.852	0	139.6	4	46.5	4	-1E+10	1	-1E+10	1	-1E+10	1	-1E+10	1	-1E+10	1	-1E+10	1
4902549	48	C	12/06/2021	07:54	-131.923	47.142	0	231.90	0	6.3660	0	33.8300	0	26.584	0	229.843	0	138.9	4	46.3	4	-1E+10	1	-1E+10	1	-1E+10	1	-1E+10	1	-1E+10	1	-1E+10	1
4902549	48	C	12/06/2021	07:54	-131.923	47.142	0	233.00	0	6.3620	0	33.8310	0	26.586	0	230.933	0	138.2	4	46.0	4	-1E+10	1	-1E+10	1	-1E+10	1	-1E+10	1	-1E+10	1	-1E+10	1
4902549	48	C	12/06/2021	07:54	-131.923	47.142	0	234.10	0	6.3240	0	33.8350	0	26.594	0	232.022	0	137.5	4	45.7	4	-1E+10	1	-1E+10	1	-1E+10	1	-1E+10	1	-1E+10	1	-1E+10	1
4902549	48	C	12/06/2021	07:54	-131.923	47.142	0	235.10	0	6.3010	0	33.8340	0	26.596	0	233.013	0	136.9	4	45.5	4	-1E+10	1	-1E+10	1	-1E+10	1	-1E+10	1	-1E+10	1	-1E+10	1
4902549	48	C	12/06/2021	07:54	-131.923	47.142	0	236.20	0	6.2820	0	33.8340	0	26.598	0	234.103	0	136.3	4	45.3	4	-1E+10	1	-1E+10	1	-1E+10	1	-1E+10	1	-1E+10	1	-1E+10	1
4902549	48	C	12/06/2021	07:54	-131.923	47.142	0	237.20	0	6.2560	0	33.8370	0	26.604	0	235.093	0	135.9	4	45.1	4	-1E+10	1	-1E+10	1	-1E+10	1	-1E+10	1	-1E+10	1	-1E+10	1
4902549	48	C	12/06/2021	07:54	-131.923	47.142	0	238.30	0	6.2550	0	33.8370	0	26.604	0	236.183	0	135.3	4	44.9	4	-1E+10	1	-1E+10	1	-1E+10	1	-1E+10	1	-1E+10	1	-1E+10	1
4902549	48	C	12/06/2021	07:54	-131.923	47.142	0	239.40	0	6.2550	0	33.8370	0	26.604	0	237.272	0	134.6	4	44.7	4	-1E+10	1	-1E+10	1	-1E+10	1	-1E+10	1	-1E+10	1	-1E+10	1
4902549	48	C	12/06/2021	07:54	-131.923	47.142	0	240.40	0	6.2500	0	33.8370	0	26.605	0	238.263	0	133.9	4	44.5	4	-1E+10	1	-1E+10	1	-1E+10	1	-1E+10	1	-1E+10	1	-1E+10	1
4902549	48	C	12/06/2021	07:54	-131.923	47.142	0	241.50	0	6.2420	0	33.8360	0	26.605	0	239.352	0	133.0	4	44.2	4	-1E+10	1	-1E+10	1	-1E+10	1	-1E+10	1	-1E+10	1	-1E+10	1
4902549	48	C	12/06/2021	07:54	-131.923	47.142	0	242.60	0	6.2180	0	33.8390	0	26.610	0	240.442	0	132.2	4	43.9	4	-1E+10	1	-1E+10	1	-1E+10	1	-1E+10	1	-1E+10	1	-1E+10	1
4902549	48	C	12/06/2021	07:54	-131.923	47.142	0	243.60	0	6.1970	0	33.8370	0	26.612	0	241.432	0	131.4	4	43.6	4	-1E+10	1	-1E+10	1	-1E+10	1	-1E+10	1	-1E+10	1	-1E+10	1
4902549	48	C	12/06/2021	07:54	-131.923	47.142	0	244.70	0	6.1650	0	33.8420	0	26.620	0	242.522	0	130.6	4	43.3	4	-1E+10	1	-1E+10	1	-1E+10	1	-1E+10	1	-1E+10	1	-1E+10	1
4902549	48	C	12/06/2021	07:54	-131.923	47.142	0	245.70	0	6.0880	0	33.8420	0	26.629	0	243.513	0	130.2	4	43.1	4	-1E+10	1	-1E+10	1	-1E+10	1	-1E+10	1	-1E+10	1	-1E+10	1
4902549	48	C	12/06/2021	07:54	-131.923	47.142	0	246.80	0	6.0720	0	33.8410	0	26.631	0	244.602	0	129.8	4	42.9	4	-1E+10	1	-1E+10	1	-1E+10	1	-1E+10	1	-1E+10	1	-1E+10	1
4902549	48	C	12/06/2021	07:54	-131.923	47.142	0	247.80	0	6.0650	0	33.8420	0	26.632	0	245.593	0	129.3	4	42.8	4	-1E+10	1	-1E+10	1	-1E+10	1	-1E+10	1	-1E+10	1	-1E+10	1
4902549	48	C	12/06/2021	07:54	-131.923	47.142	0	248.90	0	6.0490	0	33.8420	0	26.634	0	246.682	0	128.8	4	42.6	4	-1E+10	1	-1E+10	1	-1E+10	1	-1E+10	1	-1E+10	1	-1E+10	1
4902549	48	C	12/06/2021	07:54	-131.923	47.142	0	250.00	0	6.0370	0	33.8420	0	26.636	0	247.772	0	128.3	4	42.4	4	-1E+10	1	-1E+10	1	-1E+10	1	-1E+10	1	-1E+10	1	-1E+10	1
4902549	48	C	12/06/2021	07:54	-131.923	47.142	0	251.00	0	6.0170	0	33.8450	0	26.641	0	248.762	0	127.8	4	42.2	4	-1E+10	1	-1E+10	1	-1E+10	1	-1E+10	1	-1E+10	1	-1E+10	1
4902549	48	C	12/06/2021	07:54	-131.923	47.142	0	252.10	0	5.9960	0	33.8470	0	26.645	0	249.852	0	127.5	4	42.1	4	-1E+10	1	-1E+10	1	-1E+10	1	-1E+10	1	-1E+10	1	-1E+10	1
4902549	48	C	12/06/2021	07:54	-131.923	47.142	0	253.10	0	5.9920	0	33.8460	0	26.645	0	250.842	0	127.1	4	42.0	4	-1E+10	1	-1E+10	1	-1E+10	1	-1E+10	1	-1E+10	1	-1E+10	1
4902549	48	C	12/06/2021	07:54	-131.923	47.142	0	254.20	0	5.9890	0	33.8460	0	26.645	0	251.932	0	126.7	4	41.8	4	-1E+10	1	-1E+10	1	-1E+10	1	-1E+10	1	-1E+10	1	-1E+10	1
4902549	48	C	12/06/2021	07:54	-131.923	47.142	0	255.20	0	5.9810	0	33.8460	0	26.646	0	252.922	0	126.2	4	41.7	4	-1E+10	1	-1E+10	1	-1E+10	1	-1E+10	1	-1E+10	1	-1E+10	1
4902549	48	C	12/06/2021	07:54	-131.923	47.142	0	256.30	0	5.9740	0	33.8470	0	26.648	0	254.012	0	125.8	4	41.5	4	-1E+10	1	-1E+10	1	-1E+10	1	-1E+10	1	-1E+10	1	-1E+10	1
4902549	48	C	12/06/2021	07:54	-131.923	47.142	0	257.40	0	5.9670	0	33.8480	0	26.649	0	255.101	0	125.4	4	41.4	4	-1E+10	1	-1E+10	1	-1E+10	1	-1E+10	1	-1E+10	1	-1E+10	1
4902549	48	C	12/06/2021	07:54	-131.923	47.142	0	258.40	0	5.9600	0	33.8480	0	26.650	0	256.092	0	125.0	4	41.2	4	-1E+10	1	-1E+10	1	-1E+10	1	-1E+10	1	-1E+10	1	-1E+10	1
4902549	48	C	12/06/2021	07:54	-131.923	47.142	0	259.50	0	5.9500	0	33.8480	0	26.651	0	257.181	0	124.4	4	41.0	4	-1E+10	1	-1E+10	1	-1E+10	1	-1E+10	1	-1E+10	1	-1E+10	1
4902549	48	C	12/06/2021	07:54	-131.923	47.142	0	260.50	0	5.9300	0	33.8480	0	26.654	0	258.172	0	123.9	4	40.9	4	-1E+10	1	-1E+10	1	-1E+10	1	-1E+10	1	-1E+10	1	-1E+10	1
4902549	48	C	12/06/2021	07:54	-131.923	47.142	0	261.50	0	5.9150	0	33.8490	0	26.657	0	259.162	0	123.5	4	40.7	4	-1E+10	1	-1E+10	1	-1E+10	1	-1E+10	1	-1E+10	1	-1E+10	1
4902549	48	C	12/06/2021	07:54	-131.923	47.142	0	262.60	0	5.9050	0	33.8490	0	26.658	0	260.251	0	122.9	4	40.5	4	-1E+10	1	-1E+10	1	-1E+10	1	-1E+10	1	-1E+10	1	-1E+10	1
4902549	48	C	12/06/2021	07:54	-131.923	47.142	0	263.60	0	5.8990	0	33.8490	0	26.659	0	261.242	0	122.5	4	40.3	4	-1E+10	1	-1E+10	1	-1E+10	1	-1E+10	1	-1E+10	1	-1E+10	1
4902549	48	C	12/06/2021	07:54	-131.923	47.142	0	264.70	0	5.8940	0	33.8490	0	26.659	0	262.331	0	121.9	4	40.2	4	-1E+10	1	-1E+10	1	-1E+10	1	-1E+10	1	-1E+10	1	-1E+10	1
4902549	48	C	12/06/2021	07:54	-131.923	47.142	0	265.70	0	5.8710	0	33.8520	0	26.665	0	263.322	0	121.3	4	40.0	4	-1E+10	1	-1E+10	1	-1E+10	1	-1E+10	1	-1E+10	1	-1E+10	1
4902549	48	C	12/06/2021	07:54	-131.923	47.142	0	266.80	0	5.8640	0	33.8490	0	26.663	0	264.411	0	120.8	4	39.8	4	-1E+10	1	-1E+10	1	-1E+10	1	-1E+10	1	-1E+10	1	-1E+10	1
4902549	48	C	12/06/2021	07:54	-131.923	47.142	0	267.80	0	5.8470	0	33.8500	0	26.666	0	265.402	0	120.3	4	39.6	4	-1E+10	1	-1E+10	1	-1E+10	1	-1E+10	1	-1E+10	1	-1E+10	1
4902549	48	C	12/06/2021	07:54	-131.923	47.142	0	268.90	0	5.8300	0	33.8510	0	26.669	0	266.491	0	119.7	4	39.4	4	-1E+10	1	-1E+10	1	-1E+10	1	-1E+10	1	-1E+10	1	-1E+10	1
4902549	48	C	12/06/2021	07:54	-131.923	47.142	0	269.90	0	5.8090	0	33.8510	0	26.671	0	267.481	0	119.2	4	39.2	4	-1E+10	1	-1E+10	1	-1E+10	1	-1E+10	1	-1E+10	1	-1E+10	1
4902549	48	C	12/06/2021	07:54	-131.923	47.142	0	271.00	0	5.7980	0	33.8510	0	26.673	0	268.571	0	118.6	4	39.0	4	-1E+10	1	-1E+10	1	-1E+10	1	-1E+10	1	-1E+10	1	-1E+10	1
4902549	48	C	12/06/2021	07:54	-131.923	47.142	0	272.00	0	5.7850	0	33.8510	0	26.674	0	269.561	0	118.1	4	38.8	4	-1E+10	1	-1E+10	1	-1E+10	1	-1E+10	1	-1E+10	1	-1E+10	1
4902549	48	C	12/06/2021	07:54	-131.923	47.142	0	273.10	0	5.7780	0	33.8500	0	26.674	0	270.651	0	117.5	4	38.6	4	-1E+10	1	-1E+10	1	-1E+10	1	-1E+10	1	-1E+10	1	-1E+10	1
4902549	48	C	12/06/2021	07:54	-131.923	47.142	0	274.10	0	5.7530	0	33.8510	0	26.678	0	271.641	0	116.9	4	38.4	4	-1E+10	1	-1E+10	1	-1E+10	1	-1E+10	1	-1E+10	1	-1E+10	1
4902549	48	C	12/06/2021	07:54	-131.923	47.142	0	275.10	0	5.7340	0	33.8490	0	26.679	0	272.631	0	116.3	4	38.2	4	-1E+10	1	-1E+10	1	-1E+10	1	-1E+10	1	-1E+10	1	-1E+10	1
4902549	48	C	12/06/2021	07:54	-131.923	47.142	0	276.20	0	5.7120	0	33.8500	0	26.682	0	273.721	0	115.7	4	38.0	4	-1E+10	1	-1E+10	1	-1E+10	1	-1E+10	1	-1E+10	1	-1E+10	1
4902549	48	C	12/06/2021	07:54	-131.923	47.142	0	277.20	0	5.7070	0	33.8490	0	26.682	0	274.711	0	115.0	4	37.7	4	-1E+10	1	-1E+10	1	-1E+10	1	-1E+10	1	-1E+10	1	-1E+10	1
4902549	48	C	12/06/2021	07:54	-131.923	47.142	0	278.30	0	5.7010	0	33.8500	0	26.684	0	275.801	0	114.3	4	37.5	4	-1E+10	1	-1E+10	1	-1E+10	1	-1E+10	1	-1E+10	1	-1E+10	1
4902549	48	C	12/06/2021	07:54	-131.923	47.142	0	279.30	0	5.6750	0	33.8500	0	26.687	0	276.791	0	113.6	4	37.2	4	-1E+10	1	-1E+10	1	-1E+10	1	-1E+10	1	-1E+10	1	-1E+10	1
4902549	48	C	12/06/2021	07:54	-131.923	47.142	0	280.40	0	5.6490	0	33.8500	0	26.690	0	277.880	0	112.9	4	37.0	4	-1E+10	1	-1E+10	1	-1E+10	1	-1E+10	1	-1E+10	1	-1E+10	1
4902549	48	C	12/06/2021	07:54	-131.923	47.142	0	281.40	0	5.6300	0	33.8520	0	26.694	0	278.871	0	112.2	4	36.7	4	-1E+10	1	-1E+10	1	-1E+10	1	-1E+10	1	-1E+10	1	-1E+10	1
4902549	48	C	12/06/2021	07:54	-131.923	47.142	0	282.90	0	5.5820	0	33.8540	0	26.701	0	280.356	0	111.6	4	36.5	4	-1E+10	1	-1E+10	1	-1E+10	1	-1E+10	1	-1E+10	1	-1E+10	1
4902549	48	C	12/06/2021	07:54	-131.923	47.142	0	285.00	0	5.5600	0	33.8560	0	26.706	0	282.436	0	110.6	4	36.2	4	-1E+10	1	-1E+10	1	-1E+10	1	-1E+10	1	-1E+10	1	-1E+10	1
4902549	48	C	12/06/2021	07:54	-131.923	47.142	0	286.20	0	5.5570	0	33.8550	0	26.705	0	283.624	0	110.1	4	36.0	4	-1E+10	1	-1E+10	1	-1E+10	1	-1E+10	1	-1E+10	1	-1E+10	1
4902549	48	C	12/06/2021	07:54	-131.923	47.142	0	287.00	0	5.5390	0	33.8570	0	26.709	0	284.417	0	109.7	4	35.8	4	-1E+10	1	-1E+10	1	-1E+10	1	-1E+10	1	-1E+10	1	-1E+10	1
4902549	48	C	12/06/2021	07:54	-131.923	47.142	0	287.80	0	5.5330	0	33.8570	0	26.710	0	285.209	0	109.3	4	35.7	4	-1E+10	1	-1E+10	1	-1E+10	1	-1E+10	1	-1E+10	1	-1E+10	1
4902549	48	C	12/06/2021	07:54	-131.923	47.142	0	289.00	0	5.5240	0	33.8540	0	26.708	0	286.397	0	108.7	4	35.5	4	-1E+10	1	-1E+10	1	-1E+10	1	-1E+10	1	-1E+10	1	-1E+10	1
4902549	48	C	12/06/2021	07:54	-131.923	47.142	0	290.20	0	5.4960	0	33.8570	0	26.714	0	287.585	0	108.2	4	35.3	4	-1E+10	1	-1E+10	1	-1E+10	1	-1E+10	1	-1E+10	1	-1E+10	1
4902549	48	C	12/06/2021	07:54	-131.923	47.142	0	291.00	0	5.4900	0	33.8620	0	26.719	0	288.378	0	107.9	4	35.2	4	-1E+10	1	-1E+10	1	-1E+10	1	-1E+10	1	-1E+10	1	-1E+10	1
4902549	48	C	12/06/2021	07:54	-131.923	47.142	0	291.80	0	5.4770	0	33.8600	0	26.719	0	289.170	0	107.7	4	35.1	4	-1E+10	1	-1E+10	1	-1E+10	1	-1E+10	1	-1E+10	1	-1E+10	1
4902549	48	C	12/06/2021	07:54	-131.923	47.142	0	293.00	0	5.4620	0	33.8600	0	26.721	0	290.358	0	107.3	4	35.0	4	-1E+10	1	-1E+10	1	-1E+10	1	-1E+10	1	-1E+10	1	-1E+10	1
4902549	48	C	12/06/2021	07:54	-131.923	47.142	0	294.20	0	5.4550	0	33.8600	0	26.721	0	291.547	0	106.9	4	34.8	4	-1E+10	1	-1E+10	1	-1E+10	1	-1E+10	1	-1E+10	1	-1E+10	1
4902549	48	C	12/06/2021	07:54	-131.923	47.142	0	295.00	0	5.4530	0	33.8590	0	26.721	0	292.339	0	106.5	4	34.7	4	-1E+10	1	-1E+10	1	-1E+10	1	-1E+10	1	-1E+10	1	-1E+10	1
4902549	48	C	12/06/2021	07:54	-131.923	47.142	0	295.90	0	5.4460	0	33.8600	0	26.723	0	293.230	0	106.3	4	34.6	4	-1E+10	1	-1E+10	1	-1E+10	1	-1E+10	1	-1E+10	1	-1E+10	1
4902549	48	C	12/06/2021	07:54	-131.923	47.142	0	296.70	0	5.4380	0	33.8600	0	26.723	0	294.022	0	106.0	4	34.5	4	-1E+10	1	-1E+10	1	-1E+10	1	-1E+10	1	-1E+10	1	-1E+10	1
4902549	48	C	12/06/2021	07:54	-131.923	47.142	0	298.00	0	5.4200	0	33.8600	0	26.726	0	295.310	0	105.6	4	34.4	4	-1E+10	1	-1E+10	1	-1E+10	1	-1E+10	1	-1E+10	1	-1E+10	1
4902549	48	C	12/06/2021	07:54	-131.923	47.142	0	299.20	0	5.4080	0	33.8610	0	26.728	0	296.498	0	105.2	4	34.3	4	-1E+10	1	-1E+10	1	-1E+10	1	-1E+10	1	-1E+10	1	-1E+10	1
4902549	48	C	12/06/2021	07:54	-131.923	47.142	0	300.10	0	5.4030	0	33.8610	0	26.728	0	297.389	0	104.9	4	34.1	4	-1E+10	1	-1E+10	1	-1E+10	1	-1E+10	1	-1E+10	1	-1E+10	1
4902549	48	C	12/06/2021	07:54	-131.923	47.142	0	300.90	0	5.4010	0	33.8600	0	26.728	0	298.181	0	104.6	4	34.0	4	-1E+10	1	-1E+10	1	-1E+10	1	-1E+10	1	-1E+10	1	-1E+10	1
4902549	48	C	12/06/2021	07:54	-131.923	47.142	0	301.80	0	5.3960	0	33.8600	0	26.728	0	299.073	0	104.2	4	33.9	4	-1E+10	1	-1E+10	1	-1E+10	1	-1E+10	1	-1E+10	1	-1E+10	1
4902549	48	C	12/06/2021	07:54	-131.923	47.142	0	302.70	0	5.3760	0	33.8610	0	26.732	0	299.964	0	103.9	4	33.8	4	-1E+10	1	-1E+10	1	-1E+10	1	-1E+10	1	-1E+10	1	-1E+10	1
4902549	48	C	12/06/2021	07:54	-131.923	47.142	0	303.90	0	5.3630	0	33.8610	0	26.733	0	301.152	0	103.5	4	33.7	4	-1E+10	1	-1E+10	1	-1E+10	1	-1E+10	1	-1E+10	1	-1E+10	1
4902549	48	C	12/06/2021	07:54	-131.923	47.142	0	305.30	0	5.3580	0	33.8620	0	26.735	0	302.538	0	103.0	4	33.5	4	-1E+10	1	-1E+10	1	-1E+10	1	-1E+10	1	-1E+10	1	-1E+10	1
4902549	48	C	12/06/2021	07:54	-131.923	47.142	0	306.20	0	5.3560	0	33.8620	0	26.735	0	303.430	0	102.7	4	33.4	4	-1E+10	1	-1E+10	1	-1E+10	1	-1E+10	1	-1E+10	1	-1E+10	1
4902549	48	C	12/06/2021	07:54	-131.923	47.142	0	307.00	0	5.3520	0	33.8620	0	26.735	0	304.222	0	102.3	4	33.3	4	-1E+10	1	-1E+10	1	-1E+10	1	-1E+10	1	-1E+10	1	-1E+10	1
4902549	48	C	12/06/2021	07:54	-131.923	47.142	0	307.90	0	5.3490	0	33.8610	0	26.735	0	305.113	0	101.9	4	33.2	4	-1E+10	1	-1E+10	1	-1E+10	1	-1E+10	1	-1E+10	1	-1E+10	1
4902549	48	C	12/06/2021	07:54	-131.923	47.142	0	308.80	0	5.3490	0	33.8610	0	26.735	0	306.004	0	101.5	4	33.0	4	-1E+10	1	-1E+10	1	-1E+10	1	-1E+10	1	-1E+10	1	-1E+10	1
4902549	48	C	12/06/2021	07:54	-131.923	47.142	0	309.70	0	5.3360	0	33.8630	0	26.738	0	306.895	0	101.0	4	32.8	4	-1E+10	1	-1E+10	1	-1E+10	1	-1E+10	1	-1E+10	1	-1E+10	1
4902549	48	C	12/06/2021	07:54	-131.923	47.142	0	310.60	0	5.3270	0	33.8620	0	26.738	0	307.787	0	100.6	4	32.7	4	-1E+10	1	-1E+10	1	-1E+10	1	-1E+10	1	-1E+10	1	-1E+10	1
4902549	48	C	12/06/2021	07:54	-131.923	47.142	0	311.90	0	5.2970	0	33.8640	0	26.743	0	309.074	0	100.0	4	32.5	4	-1E+10	1	-1E+10	1	-1E+10	1	-1E+10	1	-1E+10	1	-1E+10	1
4902549	48	C	12/06/2021	07:54	-131.923	47.142	0	313.30	0	5.2800	0	33.8650	0	26.746	0	310.460	0	99.6	4	32.4	4	-1E+10	1	-1E+10	1	-1E+10	1	-1E+10	1	-1E+10	1	-1E+10	1
4902549	48	C	12/06/2021	07:54	-131.923	47.142	0	314.20	0	5.2780	0	33.8650	0	26.746	0	311.351	0	99.3	4	32.2	4	-1E+10	1	-1E+10	1	-1E+10	1	-1E+10	1	-1E+10	1	-1E+10	1
4902549	48	C	12/06/2021	07:54	-131.923	47.142	0	315.10	0	5.2750	0	33.8650	0	26.747	0	312.242	0	99.0	4	32.1	4	-1E+10	1	-1E+10	1	-1E+10	1	-1E+10	1	-1E+10	1	-1E+10	1
4902549	48	C	12/06/2021	07:54	-131.923	47.142	0	316.00	0	5.2700	0	33.8650	0	26.747	0	313.134	0	98.6	4	32.0	4	-1E+10	1	-1E+10	1	-1E+10	1	-1E+10	1	-1E+10	1	-1E+10	1
4902549	48	C	12/06/2021	07:54	-131.923	47.142	0	316.90	0	5.2640	0	33.8650	0	26.748	0	314.025	0	98.2	4	31.9	4	-1E+10	1	-1E+10	1	-1E+10	1	-1E+10	1	-1E+10	1	-1E+10	1
4902549	48	C	12/06/2021	07:54	-131.923	47.142	0	317.80	0	5.2550	0	33.8680	0	26.751	0	314.916	0	97.9	4	31.8	4	-1E+10	1	-1E+10	1	-1E+10	1	-1E+10	1	-1E+10	1	-1E+10	1
4902549	48	C	12/06/2021	07:54	-131.923	47.142	0	318.70	0	5.2480	0	33.8660	0	26.751	0	315.807	0	97.5	4	31.6	4	-1E+10	1	-1E+10	1	-1E+10	1	-1E+10	1	-1E+10	1	-1E+10	1
4902549	48	C	12/06/2021	07:54	-131.923	47.142	0	319.60	0	5.2370	0	33.8670	0	26.753	0	316.698	0	97.1	4	31.5	4	-1E+10	1	-1E+10	1	-1E+10	1	-1E+10	1	-1E+10	1	-1E+10	1
4902549	48	C	12/06/2021	07:54	-131.923	47.142	0	320.50	0	5.2300	0	33.8670	0	26.754	0	317.589	0	96.8	4	31.4	4	-1E+10	1	-1E+10	1	-1E+10	1	-1E+10	1	-1E+10	1	-1E+10	1
4902549	48	C	12/06/2021	07:54	-131.923	47.142	0	321.90	0	5.2250	0	33.8670	0	26.754	0	318.975	0	96.2	4	31.2	4	-1E+10	1	-1E+10	1	-1E+10	1	-1E+10	1	-1E+10	1	-1E+10	1
4902549	48	C	12/06/2021	07:54	-131.923	47.142	0	323.30	0	5.2120	0	33.8690	0	26.757	0	320.362	0	95.5	4	31.0	4	-1E+10	1	-1E+10	1	-1E+10	1	-1E+10	1	-1E+10	1	-1E+10	1
4902549	48	C	12/06/2021	07:54	-131.923	47.142	0	324.20	0	5.2040	0	33.8690	0	26.758	0	321.253	0	95.1	4	30.8	4	-1E+10	1	-1E+10	1	-1E+10	1	-1E+10	1	-1E+10	1	-1E+10	1
4902549	48	C	12/06/2021	07:54	-131.923	47.142	0	325.20	0	5.1860	0	33.8670	0	26.759	0	322.243	0	94.6	4	30.7	4	-1E+10	1	-1E+10	1	-1E+10	1	-1E+10	1	-1E+10	1	-1E+10	1
4902549	48	C	12/06/2021	07:54	-131.923	47.142	0	326.10	0	5.1750	0	33.8670	0	26.760	0	323.134	0	94.2	4	30.5	4	-1E+10	1	-1E+10	1	-1E+10	1	-1E+10	1	-1E+10	1	-1E+10	1
4902549	48	C	12/06/2021	07:54	-131.923	47.142	0	327.00	0	5.1690	0	33.8690	0	26.762	0	324.025	0	93.7	4	30.3	4	-1E+10	1	-1E+10	1	-1E+10	1	-1E+10	1	-1E+10	1	-1E+10	1
4902549	48	C	12/06/2021	07:54	-131.923	47.142	0	327.90	0	5.1640	0	33.8710	0	26.764	0	324.916	0	93.2	4	30.2	4	-1E+10	1	-1E+10	1	-1E+10	1	-1E+10	1	-1E+10	1	-1E+10	1
4902549	48	C	12/06/2021	07:54	-131.923	47.142	0	328.80	0	5.1610	0	33.8700	0	26.764	0	325.807	0	92.7	4	30.0	4	-1E+10	1	-1E+10	1	-1E+10	1	-1E+10	1	-1E+10	1	-1E+10	1
4902549	48	C	12/06/2021	07:54	-131.923	47.142	0	329.80	0	5.1590	0	33.8710	0	26.765	0	326.797	0	92.2	4	29.8	4	-1E+10	1	-1E+10	1	-1E+10	1	-1E+10	1	-1E+10	1	-1E+10	1
4902549	48	C	12/06/2021	07:54	-131.923	47.142	0	330.70	0	5.1520	0	33.8710	0	26.766	0	327.689	0	91.5	4	29.6	4	-1E+10	1	-1E+10	1	-1E+10	1	-1E+10	1	-1E+10	1	-1E+10	1
4902549	48	C	12/06/2021	07:54	-131.923	47.142	0	331.60	0	5.1410	0	33.8710	0	26.767	0	328.580	0	91.0	4	29.4	4	-1E+10	1	-1E+10	1	-1E+10	1	-1E+10	1	-1E+10	1	-1E+10	1
4902549	48	C	12/06/2021	07:54	-131.923	47.142	0	332.60	0	5.1310	0	33.8710	0	26.768	0	329.570	0	90.3	4	29.2	4	-1E+10	1	-1E+10	1	-1E+10	1	-1E+10	1	-1E+10	1	-1E+10	1
4902549	48	C	12/06/2021	07:54	-131.923	47.142	0	333.90	0	5.0920	0	33.8750	0	26.776	0	330.857	0	89.6	4	29.0	4	-1E+10	1	-1E+10	1	-1E+10	1	-1E+10	1	-1E+10	1	-1E+10	1
4902549	48	C	12/06/2021	07:54	-131.923	47.142	0	335.40	0	5.0660	0	33.8770	0	26.781	0	332.342	0	89.0	4	28.7	4	-1E+10	1	-1E+10	1	-1E+10	1	-1E+10	1	-1E+10	1	-1E+10	1
4902549	48	C	12/06/2021	07:54	-131.923	47.142	0	336.30	0	5.0620	0	33.8780	0	26.782	0	333.233	0	88.6	4	28.6	4	-1E+10	1	-1E+10	1	-1E+10	1	-1E+10	1	-1E+10	1	-1E+10	1
4902549	48	C	12/06/2021	07:54	-131.923	47.142	0	337.30	0	5.0560	0	33.8770	0	26.782	0	334.223	0	88.2	4	28.5	4	-1E+10	1	-1E+10	1	-1E+10	1	-1E+10	1	-1E+10	1	-1E+10	1
4902549	48	C	12/06/2021	07:54	-131.923	47.142	0	338.20	0	5.0520	0	33.8780	0	26.783	0	335.114	0	87.7	4	28.3	4	-1E+10	1	-1E+10	1	-1E+10	1	-1E+10	1	-1E+10	1	-1E+10	1
4902549	48	C	12/06/2021	07:54	-131.923	47.142	0	339.20	0	5.0430	0	33.8790	0	26.785	0	336.104	0	87.3	4	28.2	4	-1E+10	1	-1E+10	1	-1E+10	1	-1E+10	1	-1E+10	1	-1E+10	1
4902549	48	C	12/06/2021	07:54	-131.923	47.142	0	340.20	0	5.0340	0	33.8790	0	26.786	0	337.094	0	86.9	4	28.0	4	-1E+10	1	-1E+10	1	-1E+10	1	-1E+10	1	-1E+10	1	-1E+10	1
4902549	48	C	12/06/2021	07:54	-131.923	47.142	0	341.10	0	5.0240	0	33.8800	0	26.788	0	337.985	0	86.4	4	27.9	4	-1E+10	1	-1E+10	1	-1E+10	1	-1E+10	1	-1E+10	1	-1E+10	1
4902549	48	C	12/06/2021	07:54	-131.923	47.142	0	342.10	0	5.0080	0	33.8810	0	26.790	0	338.975	0	86.1	4	27.8	4	-1E+10	1	-1E+10	1	-1E+10	1	-1E+10	1	-1E+10	1	-1E+10	1
4902549	48	C	12/06/2021	07:54	-131.923	47.142	0	343.10	0	4.9920	0	33.8810	0	26.792	0	339.965	0	85.8	4	27.7	4	-1E+10	1	-1E+10	1	-1E+10	1	-1E+10	1	-1E+10	1	-1E+10	1
4902549	48	C	12/06/2021	07:54	-131.923	47.142	0	344.00	0	4.9860	0	33.8800	0	26.792	0	340.857	0	85.5	4	27.6	4	-1E+10	1	-1E+10	1	-1E+10	1	-1E+10	1	-1E+10	1	-1E+10	1
4902549	48	C	12/06/2021	07:54	-131.923	47.142	0	345.00	0	4.9800	0	33.8810	0	26.794	0	341.847	0	85.1	4	27.4	4	-1E+10	1	-1E+10	1	-1E+10	1	-1E+10	1	-1E+10	1	-1E+10	1
4902549	48	C	12/06/2021	07:54	-131.923	47.142	0	346.00	0	4.9730	0	33.8800	0	26.794	0	342.837	0	84.7	4	27.3	4	-1E+10	1	-1E+10	1	-1E+10	1	-1E+10	1	-1E+10	1	-1E+10	1
4902549	48	C	12/06/2021	07:54	-131.923	47.142	0	347.00	0	4.9680	0	33.8810	0	26.795	0	343.827	0	84.3	4	27.2	4	-1E+10	1	-1E+10	1	-1E+10	1	-1E+10	1	-1E+10	1	-1E+10	1
4902549	48	C	12/06/2021	07:54	-131.923	47.142	0	347.90	0	4.9510	0	33.8790	0	26.795	0	344.718	0	83.8	4	27.0	4	-1E+10	1	-1E+10	1	-1E+10	1	-1E+10	1	-1E+10	1	-1E+10	1
4902549	48	C	12/06/2021	07:54	-131.923	47.142	0	348.90	0	4.9510	0	33.8790	0	26.795	0	345.708	0	83.3	4	26.9	4	-1E+10	1	-1E+10	1	-1E+10	1	-1E+10	1	-1E+10	1	-1E+10	1
4902549	48	C	12/06/2021	07:54	-131.923	47.142	0	350.00	0	4.9070	0	33.8810	0	26.802	0	346.797	0	83.0	4	26.7	4	-1E+10	1	-1E+10	1	-1E+10	1	-1E+10	1	-1E+10	1	-1E+10	1
4902549	48	C	12/06/2021	07:54	-131.923	47.142	0	353.00	0	4.8520	0	33.8780	0	26.806	0	349.767	0	82.3	4	26.5	4	-1E+10	1	-1E+10	1	-1E+10	1	-1E+10	1	-1E+10	1	-1E+10	1
4902549	48	C	12/06/2021	07:54	-131.923	47.142	0	358.00	0	4.8310	0	33.8790	0	26.809	0	354.717	0	80.7	4	25.9	4	-1E+10	1	-1E+10	1	-1E+10	1	-1E+10	1	-1E+10	1	-1E+10	1
4902549	48	C	12/06/2021	07:54	-131.923	47.142	0	363.10	0	4.8090	0	33.8850	0	26.816	0	359.765	0	79.2	4	25.4	4	-1E+10	1	-1E+10	1	-1E+10	1	-1E+10	1	-1E+10	1	-1E+10	1
4902549	48	C	12/06/2021	07:54	-131.923	47.142	0	368.30	0	4.8370	0	33.8980	0	26.823	0	364.913	0	77.6	4	24.9	4	-1E+10	1	-1E+10	1	-1E+10	1	-1E+10	1	-1E+10	1	-1E+10	1
4902549	48	C	12/06/2021	07:54	-131.923	47.142	0	373.00	0	4.8270	0	33.9040	0	26.829	0	369.566	0	76.2	4	24.5	4	-1E+10	1	-1E+10	1	-1E+10	1	-1E+10	1	-1E+10	1	-1E+10	1
4902549	48	C	12/06/2021	07:54	-131.923	47.142	0	377.80	0	4.8010	0	33.9060	0	26.834	0	374.317	0	74.7	4	24.0	4	-1E+10	1	-1E+10	1	-1E+10	1	-1E+10	1	-1E+10	1	-1E+10	1
4902549	48	C	12/06/2021	07:54	-131.923	47.142	0	383.10	0	4.7630	0	33.9110	0	26.842	0	379.563	0	73.3	4	23.5	4	-1E+10	1	-1E+10	1	-1E+10	1	-1E+10	1	-1E+10	1	-1E+10	1
4902549	48	C	12/06/2021	07:54	-131.923	47.142	0	387.80	0	4.7430	0	33.9130	0	26.846	0	384.216	0	72.2	4	23.1	4	-1E+10	1	-1E+10	1	-1E+10	1	-1E+10	1	-1E+10	1	-1E+10	1
4902549	48	C	12/06/2021	07:54	-131.923	47.142	0	392.50	0	4.7300	0	33.9170	0	26.850	0	388.868	0	70.9	4	22.7	4	-1E+10	1	-1E+10	1	-1E+10	1	-1E+10	1	-1E+10	1	-1E+10	1
4902549	48	C	12/06/2021	07:54	-131.923	47.142	0	397.70	0	4.7090	0	33.9230	0	26.858	0	394.015	0	69.6	4	22.3	4	-1E+10	1	-1E+10	1	-1E+10	1	-1E+10	1	-1E+10	1	-1E+10	1
4902549	48	C	12/06/2021	07:54	-131.923	47.142	0	402.90	0	4.6910	0	33.9260	0	26.862	0	399.162	0	68.4	4	21.9	4	-1E+10	1	-1E+10	1	-1E+10	1	-1E+10	1	-1E+10	1	-1E+10	1
4902549	48	C	12/06/2021	07:54	-131.923	47.142	0	408.10	0	4.6680	0	33.9300	0	26.868	0	404.308	0	67.3	4	21.5	4	-1E+10	1	-1E+10	1	-1E+10	1	-1E+10	1	-1E+10	1	-1E+10	1
4902549	48	C	12/06/2021	07:54	-131.923	47.142	0	412.80	0	4.6540	0	33.9320	0	26.871	0	408.960	0	66.3	4	21.2	4	-1E+10	1	-1E+10	1	-1E+10	1	-1E+10	1	-1E+10	1	-1E+10	1
4902549	48	C	12/06/2021	07:54	-131.923	47.142	0	417.50	0	4.6360	0	33.9330	0	26.874	0	413.612	0	64.9	4	20.8	4	-1E+10	1	-1E+10	1	-1E+10	1	-1E+10	1	-1E+10	1	-1E+10	1
4902549	48	C	12/06/2021	07:54	-131.923	47.142	0	422.60	0	4.6040	0	33.9360	0	26.879	0	418.659	0	63.4	4	20.3	4	-1E+10	1	-1E+10	1	-1E+10	1	-1E+10	1	-1E+10	1	-1E+10	1
4902549	48	C	12/06/2021	07:54	-131.923	47.142	0	427.80	0	4.5840	0	33.9400	0	26.885	0	423.805	0	61.9	4	19.8	4	-1E+10	1	-1E+10	1	-1E+10	1	-1E+10	1	-1E+10	1	-1E+10	1
4902549	48	C	12/06/2021	07:54	-131.923	47.142	0	432.90	0	4.5550	0	33.9440	0	26.891	0	428.852	0	60.4	4	19.3	4	-1E+10	1	-1E+10	1	-1E+10	1	-1E+10	1	-1E+10	1	-1E+10	1
4902549	48	C	12/06/2021	07:54	-131.923	47.142	0	437.90	0	4.5350	0	33.9520	0	26.900	0	433.800	0	58.8	4	18.8	4	-1E+10	1	-1E+10	1	-1E+10	1	-1E+10	1	-1E+10	1	-1E+10	1
4902549	48	C	12/06/2021	07:54	-131.923	47.142	0	443.00	0	4.5090	0	33.9600	0	26.909	0	438.847	0	57.2	4	18.2	4	-1E+10	1	-1E+10	1	-1E+10	1	-1E+10	1	-1E+10	1	-1E+10	1
4902549	48	C	12/06/2021	07:54	-131.923	47.142	0	448.20	0	4.4820	0	33.9650	0	26.916	0	443.993	0	56.0	4	17.9	4	-1E+10	1	-1E+10	1	-1E+10	1	-1E+10	1	-1E+10	1	-1E+10	1
4902549	48	C	12/06/2021	07:54	-131.923	47.142	0	453.20	0	4.4730	0	33.9680	0	26.919	0	448.941	0	54.9	4	17.5	4	-1E+10	1	-1E+10	1	-1E+10	1	-1E+10	1	-1E+10	1	-1E+10	1
4902549	48	C	12/06/2021	07:54	-131.923	47.142	0	458.20	0	4.4560	0	33.9750	0	26.927	0	453.888	0	53.7	4	17.1	4	-1E+10	1	-1E+10	1	-1E+10	1	-1E+10	1	-1E+10	1	-1E+10	1
4902549	48	C	12/06/2021	07:54	-131.923	47.142	0	462.90	0	4.4430	0	33.9790	0	26.931	0	458.539	0	52.7	4	16.8	4	-1E+10	1	-1E+10	1	-1E+10	1	-1E+10	1	-1E+10	1	-1E+10	1
4902549	48	C	12/06/2021	07:54	-131.923	47.142	0	467.80	0	4.4310	0	33.9830	0	26.936	0	463.387	0	51.6	4	16.4	4	-1E+10	1	-1E+10	1	-1E+10	1	-1E+10	1	-1E+10	1	-1E+10	1
4902549	48	C	12/06/2021	07:54	-131.923	47.142	0	473.10	0	4.4120	0	33.9880	0	26.942	0	468.631	0	50.4	4	16.1	4	-1E+10	1	-1E+10	1	-1E+10	1	-1E+10	1	-1E+10	1	-1E+10	1
4902549	48	C	12/06/2021	07:54	-131.923	47.142	0	478.20	0	4.4010	0	33.9910	0	26.945	0	473.677	0	49.3	4	15.7	4	-1E+10	1	-1E+10	1	-1E+10	1	-1E+10	1	-1E+10	1	-1E+10	1
4902549	48	C	12/06/2021	07:54	-131.923	47.142	0	482.80	0	4.3840	0	33.9960	0	26.951	0	478.228	0	48.4	4	15.4	4	-1E+10	1	-1E+10	1	-1E+10	1	-1E+10	1	-1E+10	1	-1E+10	1
4902549	48	C	12/06/2021	07:54	-131.923	47.142	0	487.90	0	4.3760	0	33.9980	0	26.954	0	483.274	0	47.4	4	15.1	4	-1E+10	1	-1E+10	1	-1E+10	1	-1E+10	1	-1E+10	1	-1E+10	1
4902549	48	C	12/06/2021	07:54	-131.923	47.142	0	493.10	0	4.3640	0	34.0010	0	26.957	0	488.419	0	46.0	4	14.6	4	-1E+10	1	-1E+10	1	-1E+10	1	-1E+10	1	-1E+10	1	-1E+10	1
4902549	48	C	12/06/2021	07:54	-131.923	47.142	0	497.90	0	4.3460	0	34.0070	0	26.964	0	493.167	0	44.6	4	14.2	4	-1E+10	1	-1E+10	1	-1E+10	1	-1E+10	1	-1E+10	1	-1E+10	1
4902549	48	C	12/06/2021	07:54	-131.923	47.142	0	502.90	0	4.3280	0	34.0120	0	26.970	0	498.114	0	43.4	4	13.8	4	-1E+10	1	-1E+10	1	-1E+10	1	-1E+10	1	-1E+10	1	-1E+10	1
4902549	48	C	12/06/2021	07:54	-131.923	47.142	0	507.80	0	4.3190	0	34.0170	0	26.975	0	502.961	0	42.1	4	13.4	4	-1E+10	1	-1E+10	1	-1E+10	1	-1E+10	1	-1E+10	1	-1E+10	1
4902549	48	C	12/06/2021	07:54	-131.923	47.142	0	512.80	0	4.3060	0	34.0240	0	26.982	0	507.908	0	40.6	4	12.9	4	-1E+10	1	-1E+10	1	-1E+10	1	-1E+10	1	-1E+10	1	-1E+10	1
4902549	48	C	12/06/2021	07:54	-131.923	47.142	0	517.80	0	4.2890	0	34.0310	0	26.989	0	512.854	0	39.7	4	12.6	4	-1E+10	1	-1E+10	1	-1E+10	1	-1E+10	1	-1E+10	1	-1E+10	1
4902549	48	C	12/06/2021	07:54	-131.923	47.142	0	522.80	0	4.2800	0	34.0340	0	26.993	0	517.800	0	38.9	4	12.3	4	-1E+10	1	-1E+10	1	-1E+10	1	-1E+10	1	-1E+10	1	-1E+10	1
4902549	48	C	12/06/2021	07:54	-131.923	47.142	0	527.80	0	4.2610	0	34.0390	0	26.999	0	522.746	0	38.1	4	12.1	4	-1E+10	1	-1E+10	1	-1E+10	1	-1E+10	1	-1E+10	1	-1E+10	1
4902549	48	C	12/06/2021	07:54	-131.923	47.142	0	532.90	0	4.2430	0	34.0410	0	27.002	0	527.790	0	37.3	4	11.8	4	-1E+10	1	-1E+10	1	-1E+10	1	-1E+10	1	-1E+10	1	-1E+10	1
4902549	48	C	12/06/2021	07:54	-131.923	47.142	0	538.00	0	4.2340	0	34.0450	0	27.006	0	532.835	0	36.4	4	11.5	4	-1E+10	1	-1E+10	1	-1E+10	1	-1E+10	1	-1E+10	1	-1E+10	1
4902549	48	C	12/06/2021	07:54	-131.923	47.142	0	543.20	0	4.2230	0	34.0480	0	27.010	0	537.978	0	35.3	4	11.2	4	-1E+10	1	-1E+10	1	-1E+10	1	-1E+10	1	-1E+10	1	-1E+10	1
4902549	48	C	12/06/2021	07:54	-131.923	47.142	0	547.90	0	4.2080	0	34.0540	0	27.016	0	542.627	0	34.3	4	10.9	4	-1E+10	1	-1E+10	1	-1E+10	1	-1E+10	1	-1E+10	1	-1E+10	1
4902549	48	C	12/06/2021	07:54	-131.923	47.142	0	552.60	0	4.1960	0	34.0580	0	27.021	0	547.275	0	33.3	4	10.5	4	-1E+10	1	-1E+10	1	-1E+10	1	-1E+10	1	-1E+10	1	-1E+10	1
4902549	48	C	12/06/2021	07:54	-131.923	47.142	0	557.70	0	4.1930	0	34.0630	0	27.025	0	552.320	0	32.3	4	10.2	4	-1E+10	1	-1E+10	1	-1E+10	1	-1E+10	1	-1E+10	1	-1E+10	1
4902549	48	C	12/06/2021	07:54	-131.923	47.142	0	562.90	0	4.1810	0	34.0670	0	27.030	0	557.462	0	31.2	4	9.9	4	-1E+10	1	-1E+10	1	-1E+10	1	-1E+10	1	-1E+10	1	-1E+10	1
4902549	48	C	12/06/2021	07:54	-131.923	47.142	0	568.00	0	4.1650	0	34.0730	0	27.036	0	562.506	0	30.2	4	9.6	4	-1E+10	1	-1E+10	1	-1E+10	1	-1E+10	1	-1E+10	1	-1E+10	1
4902549	48	C	12/06/2021	07:54	-131.923	47.142	0	573.30	0	4.1580	0	34.0780	0	27.041	0	567.748	0	29.2	4	9.2	4	-1E+10	1	-1E+10	1	-1E+10	1	-1E+10	1	-1E+10	1	-1E+10	1
4902549	48	C	12/06/2021	07:54	-131.923	47.142	0	578.00	0	4.1390	0	34.0830	0	27.047	0	572.396	0	28.4	4	9.0	4	-1E+10	1	-1E+10	1	-1E+10	1	-1E+10	1	-1E+10	1	-1E+10	1
4902549	48	C	12/06/2021	07:54	-131.923	47.142	0	582.80	0	4.1240	0	34.0880	0	27.052	0	577.143	0	27.8	4	8.8	4	-1E+10	1	-1E+10	1	-1E+10	1	-1E+10	1	-1E+10	1	-1E+10	1
4902549	48	C	12/06/2021	07:54	-131.923	47.142	0	588.10	0	4.1140	0	34.0920	0	27.057	0	582.384	0	27.0	4	8.5	4	-1E+10	1	-1E+10	1	-1E+10	1	-1E+10	1	-1E+10	1	-1E+10	1
4902549	48	C	12/06/2021	07:54	-131.923	47.142	0	593.00	0	4.1060	0	34.0950	0	27.060	0	587.229	0	26.4	4	8.3	4	-1E+10	1	-1E+10	1	-1E+10	1	-1E+10	1	-1E+10	1	-1E+10	1
4902549	48	C	12/06/2021	07:54	-131.923	47.142	0	597.80	0	4.0990	0	34.0970	0	27.062	0	591.976	0	25.6	4	8.1	4	-1E+10	1	-1E+10	1	-1E+10	1	-1E+10	1	-1E+10	1	-1E+10	1
4902549	48	C	12/06/2021	07:54	-131.923	47.142	0	603.20	0	4.0810	0	34.1050	0	27.070	0	597.315	0	24.6	4	7.8	4	-1E+10	1	-1E+10	1	-1E+10	1	-1E+10	1	-1E+10	1	-1E+10	1
4902549	48	C	12/06/2021	07:54	-131.923	47.142	0	608.00	0	4.0670	0	34.1100	0	27.076	0	602.062	0	24.0	4	7.6	4	-1E+10	1	-1E+10	1	-1E+10	1	-1E+10	1	-1E+10	1	-1E+10	1
4902549	48	C	12/06/2021	07:54	-131.923	47.142	0	612.70	0	4.0560	0	34.1130	0	27.079	0	606.709	0	23.3	4	7.4	4	-1E+10	1	-1E+10	1	-1E+10	1	-1E+10	1	-1E+10	1	-1E+10	1
4902549	48	C	12/06/2021	07:54	-131.923	47.142	0	617.80	0	4.0410	0	34.1180	0	27.085	0	611.751	0	22.7	4	7.2	4	-1E+10	1	-1E+10	1	-1E+10	1	-1E+10	1	-1E+10	1	-1E+10	1
4902549	48	C	12/06/2021	07:54	-131.923	47.142	0	623.00	0	4.0300	0	34.1220	0	27.089	0	616.893	0	21.9	4	6.9	4	-1E+10	1	-1E+10	1	-1E+10	1	-1E+10	1	-1E+10	1	-1E+10	1
4902549	48	C	12/06/2021	07:54	-131.923	47.142	0	627.80	0	4.0140	0	34.1280	0	27.096	0	621.639	0	21.1	4	6.7	4	-1E+10	1	-1E+10	1	-1E+10	1	-1E+10	1	-1E+10	1	-1E+10	1
4902549	48	C	12/06/2021	07:54	-131.923	47.142	0	632.70	0	4.0010	0	34.1320	0	27.100	0	626.483	0	20.3	4	6.4	4	-1E+10	1	-1E+10	1	-1E+10	1	-1E+10	1	-1E+10	1	-1E+10	1
4902549	48	C	12/06/2021	07:54	-131.923	47.142	0	637.60	0	3.9830	0	34.1380	0	27.107	0	631.328	0	19.5	4	6.2	4	-1E+10	1	-1E+10	1	-1E+10	1	-1E+10	1	-1E+10	1	-1E+10	1
4902549	48	C	12/06/2021	07:54	-131.923	47.142	0	642.60	0	3.9730	0	34.1430	0	27.112	0	636.271	0	19.0	4	6.0	4	-1E+10	1	-1E+10	1	-1E+10	1	-1E+10	1	-1E+10	1	-1E+10	1
4902549	48	C	12/06/2021	07:54	-131.923	47.142	0	647.70	0	3.9550	0	34.1480	0	27.118	0	641.313	0	18.5	4	5.8	4	-1E+10	1	-1E+10	1	-1E+10	1	-1E+10	1	-1E+10	1	-1E+10	1
4902549	48	C	12/06/2021	07:54	-131.923	47.142	0	652.80	0	3.9470	0	34.1510	0	27.121	0	646.354	0	17.9	4	5.6	4	-1E+10	1	-1E+10	1	-1E+10	1	-1E+10	1	-1E+10	1	-1E+10	1
4902549	48	C	12/06/2021	07:54	-131.923	47.142	0	657.90	0	3.9310	0	34.1560	0	27.127	0	651.396	0	17.3	4	5.4	4	-1E+10	1	-1E+10	1	-1E+10	1	-1E+10	1	-1E+10	1	-1E+10	1
4902549	48	C	12/06/2021	07:54	-131.923	47.142	0	663.20	0	3.9140	0	34.1620	0	27.133	0	656.635	0	16.7	4	5.3	4	-1E+10	1	-1E+10	1	-1E+10	1	-1E+10	1	-1E+10	1	-1E+10	1
4902549	48	C	12/06/2021	07:54	-131.923	47.142	0	668.10	0	3.9010	0	34.1660	0	27.138	0	661.479	0	16.3	4	5.1	4	-1E+10	1	-1E+10	1	-1E+10	1	-1E+10	1	-1E+10	1	-1E+10	1
4902549	48	C	12/06/2021	07:54	-131.923	47.142	0	673.00	0	3.8830	0	34.1710	0	27.144	0	666.323	0	15.9	4	5.0	4	-1E+10	1	-1E+10	1	-1E+10	1	-1E+10	1	-1E+10	1	-1E+10	1
4902549	48	C	12/06/2021	07:54	-131.923	47.142	0	678.10	0	3.8660	0	34.1760	0	27.149	0	671.364	0	15.6	4	4.9	4	-1E+10	1	-1E+10	1	-1E+10	1	-1E+10	1	-1E+10	1	-1E+10	1
4902549	48	C	12/06/2021	07:54	-131.923	47.142	0	682.70	0	3.8560	0	34.1780	0	27.152	0	675.911	0	15.3	4	4.8	4	-1E+10	1	-1E+10	1	-1E+10	1	-1E+10	1	-1E+10	1	-1E+10	1
4902549	48	C	12/06/2021	07:54	-131.923	47.142	0	687.80	0	3.8450	0	34.1800	0	27.155	0	680.952	0	14.9	4	4.7	4	-1E+10	1	-1E+10	1	-1E+10	1	-1E+10	1	-1E+10	1	-1E+10	1
4902549	48	C	12/06/2021	07:54	-131.923	47.142	0	693.00	0	3.8310	0	34.1850	0	27.160	0	686.091	0	14.4	4	4.5	4	-1E+10	1	-1E+10	1	-1E+10	1	-1E+10	1	-1E+10	1	-1E+10	1
4902549	48	C	12/06/2021	07:54	-131.923	47.142	0	697.90	0	3.8120	0	34.1910	0	27.167	0	690.934	0	14.0	4	4.4	4	-1E+10	1	-1E+10	1	-1E+10	1	-1E+10	1	-1E+10	1	-1E+10	1
4902549	48	C	12/06/2021	07:54	-131.923	47.142	0	702.80	0	3.7980	0	34.1950	0	27.171	0	695.777	0	13.8	4	4.3	4	-1E+10	1	-1E+10	1	-1E+10	1	-1E+10	1	-1E+10	1	-1E+10	1
4902549	48	C	12/06/2021	07:54	-131.923	47.142	0	707.90	0	3.7880	0	34.1980	0	27.175	0	700.818	0	13.6	4	4.3	4	-1E+10	1	-1E+10	1	-1E+10	1	-1E+10	1	-1E+10	1	-1E+10	1
4902549	48	C	12/06/2021	07:54	-131.923	47.142	0	713.10	0	3.7770	0	34.2010	0	27.178	0	705.957	0	13.3	4	4.2	4	-1E+10	1	-1E+10	1	-1E+10	1	-1E+10	1	-1E+10	1	-1E+10	1
4902549	48	C	12/06/2021	07:54	-131.923	47.142	0	718.10	0	3.7710	0	34.2030	0	27.181	0	710.898	0	13.1	4	4.1	4	-1E+10	1	-1E+10	1	-1E+10	1	-1E+10	1	-1E+10	1	-1E+10	1
4902549	48	C	12/06/2021	07:54	-131.923	47.142	0	723.10	0	3.7630	0	34.2060	0	27.184	0	715.840	0	12.9	4	4.0	4	-1E+10	1	-1E+10	1	-1E+10	1	-1E+10	1	-1E+10	1	-1E+10	1
4902549	48	C	12/06/2021	07:54	-131.923	47.142	0	728.10	0	3.7560	0	34.2070	0	27.185	0	720.781	0	12.7	4	4.0	4	-1E+10	1	-1E+10	1	-1E+10	1	-1E+10	1	-1E+10	1	-1E+10	1
4902549	48	C	12/06/2021	07:54	-131.923	47.142	0	732.80	0	3.7480	0	34.2100	0	27.189	0	725.425	0	12.4	4	3.9	4	-1E+10	1	-1E+10	1	-1E+10	1	-1E+10	1	-1E+10	1	-1E+10	1
4902549	48	C	12/06/2021	07:54	-131.923	47.142	0	737.60	0	3.7360	0	34.2130	0	27.192	0	730.169	0	12.2	4	3.8	4	-1E+10	1	-1E+10	1	-1E+10	1	-1E+10	1	-1E+10	1	-1E+10	1
4902549	48	C	12/06/2021	07:54	-131.923	47.142	0	743.00	0	3.7180	0	34.2170	0	27.197	0	735.505	0	11.9	4	3.7	4	-1E+10	1	-1E+10	1	-1E+10	1	-1E+10	1	-1E+10	1	-1E+10	1
4902549	48	C	12/06/2021	07:54	-131.923	47.142	0	747.90	0	3.7040	0	34.2210	0	27.202	0	740.347	0	11.7	4	3.7	4	-1E+10	1	-1E+10	1	-1E+10	1	-1E+10	1	-1E+10	1	-1E+10	1
4902549	48	C	12/06/2021	07:54	-131.923	47.142	0	752.70	0	3.6990	0	34.2220	0	27.203	0	745.090	0	11.6	4	3.6	4	-1E+10	1	-1E+10	1	-1E+10	1	-1E+10	1	-1E+10	1	-1E+10	1
4902549	48	C	12/06/2021	07:54	-131.923	47.142	0	758.20	0	3.6900	0	34.2240	0	27.206	0	750.524	0	11.3	4	3.5	4	-1E+10	1	-1E+10	1	-1E+10	1	-1E+10	1	-1E+10	1	-1E+10	1
4902549	48	C	12/06/2021	07:54	-131.923	47.142	0	763.00	0	3.6810	0	34.2270	0	27.209	0	755.267	0	11.0	4	3.4	4	-1E+10	1	-1E+10	1	-1E+10	1	-1E+10	1	-1E+10	1	-1E+10	1
4902549	48	C	12/06/2021	07:54	-131.923	47.142	0	768.00	0	3.6690	0	34.2310	0	27.213	0	760.207	0	10.7	4	3.4	4	-1E+10	1	-1E+10	1	-1E+10	1	-1E+10	1	-1E+10	1	-1E+10	1
4902549	48	C	12/06/2021	07:54	-131.923	47.142	0	772.90	0	3.6590	0	34.2340	0	27.217	0	765.048	0	10.5	4	3.3	4	-1E+10	1	-1E+10	1	-1E+10	1	-1E+10	1	-1E+10	1	-1E+10	1
4902549	48	C	12/06/2021	07:54	-131.923	47.142	0	777.80	0	3.6510	0	34.2360	0	27.219	0	769.890	0	10.3	4	3.2	4	-1E+10	1	-1E+10	1	-1E+10	1	-1E+10	1	-1E+10	1	-1E+10	1
4902549	48	C	12/06/2021	07:54	-131.923	47.142	0	782.70	0	3.6460	0	34.2380	0	27.221	0	774.731	0	10.1	4	3.2	4	-1E+10	1	-1E+10	1	-1E+10	1	-1E+10	1	-1E+10	1	-1E+10	1
4902549	48	C	12/06/2021	07:54	-131.923	47.142	0	787.70	0	3.6380	0	34.2400	0	27.224	0	779.670	0	9.9	4	3.1	4	-1E+10	1	-1E+10	1	-1E+10	1	-1E+10	1	-1E+10	1	-1E+10	1
4902549	48	C	12/06/2021	07:54	-131.923	47.142	0	792.80	0	3.6250	0	34.2440	0	27.228	0	784.709	0	9.7	4	3.0	4	-1E+10	1	-1E+10	1	-1E+10	1	-1E+10	1	-1E+10	1	-1E+10	1
4902549	48	C	12/06/2021	07:54	-131.923	47.142	0	797.80	0	3.6140	0	34.2470	0	27.232	0	789.648	0	9.6	4	3.0	4	-1E+10	1	-1E+10	1	-1E+10	1	-1E+10	1	-1E+10	1	-1E+10	1
4902549	48	C	12/06/2021	07:54	-131.923	47.142	0	802.70	0	3.6100	0	34.2480	0	27.233	0	794.489	0	9.4	4	3.0	4	-1E+10	1	-1E+10	1	-1E+10	1	-1E+10	1	-1E+10	1	-1E+10	1
4902549	48	C	12/06/2021	07:54	-131.923	47.142	0	807.70	0	3.6000	0	34.2500	0	27.235	0	799.428	0	9.3	4	2.9	4	-1E+10	1	-1E+10	1	-1E+10	1	-1E+10	1	-1E+10	1	-1E+10	1
4902549	48	C	12/06/2021	07:54	-131.923	47.142	0	813.20	0	3.5920	0	34.2520	0	27.238	0	804.861	0	9.2	4	2.9	4	-1E+10	1	-1E+10	1	-1E+10	1	-1E+10	1	-1E+10	1	-1E+10	1
4902549	48	C	12/06/2021	07:54	-131.923	47.142	0	818.10	0	3.5860	0	34.2540	0	27.240	0	809.702	0	9.0	4	2.8	4	-1E+10	1	-1E+10	1	-1E+10	1	-1E+10	1	-1E+10	1	-1E+10	1
4902549	48	C	12/06/2021	07:54	-131.923	47.142	0	823.00	0	3.5740	0	34.2570	0	27.244	0	814.542	0	8.8	4	2.8	4	-1E+10	1	-1E+10	1	-1E+10	1	-1E+10	1	-1E+10	1	-1E+10	1
4902549	48	C	12/06/2021	07:54	-131.923	47.142	0	827.80	0	3.5620	0	34.2610	0	27.248	0	819.283	0	8.7	4	2.7	4	-1E+10	1	-1E+10	1	-1E+10	1	-1E+10	1	-1E+10	1	-1E+10	1
4902549	48	C	12/06/2021	07:54	-131.923	47.142	0	833.00	0	3.5480	0	34.2650	0	27.253	0	824.419	0	8.5	4	2.7	4	-1E+10	1	-1E+10	1	-1E+10	1	-1E+10	1	-1E+10	1	-1E+10	1
4902549	48	C	12/06/2021	07:54	-131.923	47.142	0	838.20	0	3.5350	0	34.2680	0	27.256	0	829.555	0	8.4	4	2.6	4	-1E+10	1	-1E+10	1	-1E+10	1	-1E+10	1	-1E+10	1	-1E+10	1
4902549	48	C	12/06/2021	07:54	-131.923	47.142	0	843.00	0	3.5260	0	34.2710	0	27.260	0	834.296	0	8.4	4	2.6	4	-1E+10	1	-1E+10	1	-1E+10	1	-1E+10	1	-1E+10	1	-1E+10	1
4902549	48	C	12/06/2021	07:54	-131.923	47.142	0	847.80	0	3.5100	0	34.2750	0	27.264	0	839.037	0	8.4	4	2.6	4	-1E+10	1	-1E+10	1	-1E+10	1	-1E+10	1	-1E+10	1	-1E+10	1
4902549	48	C	12/06/2021	07:54	-131.923	47.142	0	852.70	0	3.4980	0	34.2770	0	27.267	0	843.877	0	8.3	4	2.6	4	-1E+10	1	-1E+10	1	-1E+10	1	-1E+10	1	-1E+10	1	-1E+10	1
4902549	48	C	12/06/2021	07:54	-131.923	47.142	0	857.60	0	3.4840	0	34.2810	0	27.272	0	848.716	0	8.2	4	2.6	4	-1E+10	1	-1E+10	1	-1E+10	1	-1E+10	1	-1E+10	1	-1E+10	1
4902549	48	C	12/06/2021	07:54	-131.923	47.142	0	862.50	0	3.4700	0	34.2850	0	27.276	0	853.555	0	8.1	4	2.5	4	-1E+10	1	-1E+10	1	-1E+10	1	-1E+10	1	-1E+10	1	-1E+10	1
4902549	48	C	12/06/2021	07:54	-131.923	47.142	0	867.50	0	3.4620	0	34.2870	0	27.279	0	858.493	0	8.1	4	2.5	4	-1E+10	1	-1E+10	1	-1E+10	1	-1E+10	1	-1E+10	1	-1E+10	1
4902549	48	C	12/06/2021	07:54	-131.923	47.142	0	872.50	0	3.4560	0	34.2890	0	27.281	0	863.431	0	8.0	4	2.5	4	-1E+10	1	-1E+10	1	-1E+10	1	-1E+10	1	-1E+10	1	-1E+10	1
4902549	48	C	12/06/2021	07:54	-131.923	47.142	0	877.60	0	3.4470	0	34.2910	0	27.283	0	868.467	0	7.9	4	2.5	4	-1E+10	1	-1E+10	1	-1E+10	1	-1E+10	1	-1E+10	1	-1E+10	1
4902549	48	C	12/06/2021	07:54	-131.923	47.142	0	882.60	0	3.4360	0	34.2950	0	27.288	0	873.405	0	7.8	4	2.4	4	-1E+10	1	-1E+10	1	-1E+10	1	-1E+10	1	-1E+10	1	-1E+10	1
4902549	48	C	12/06/2021	07:54	-131.923	47.142	0	887.80	0	3.4320	0	34.2960	0	27.289	0	878.540	0	7.7	4	2.4	4	-1E+10	1	-1E+10	1	-1E+10	1	-1E+10	1	-1E+10	1	-1E+10	1
4902549	48	C	12/06/2021	07:54	-131.923	47.142	0	893.10	0	3.4230	0	34.2990	0	27.292	0	883.773	0	7.6	4	2.4	4	-1E+10	1	-1E+10	1	-1E+10	1	-1E+10	1	-1E+10	1	-1E+10	1
4902549	48	C	12/06/2021	07:54	-131.923	47.142	0	898.00	0	3.4160	0	34.3010	0	27.294	0	888.612	0	7.5	4	2.3	4	-1E+10	1	-1E+10	1	-1E+10	1	-1E+10	1	-1E+10	1	-1E+10	1
4902549	48	C	12/06/2021	07:54	-131.923	47.142	0	902.80	0	3.4070	0	34.3030	0	27.297	0	893.351	0	7.4	4	2.3	4	-1E+10	1	-1E+10	1	-1E+10	1	-1E+10	1	-1E+10	1	-1E+10	1
4902549	48	C	12/06/2021	07:54	-131.923	47.142	0	907.80	0	3.3920	0	34.3070	0	27.301	0	898.288	0	7.3	4	2.3	4	-1E+10	1	-1E+10	1	-1E+10	1	-1E+10	1	-1E+10	1	-1E+10	1
4902549	48	C	12/06/2021	07:54	-131.923	47.142	0	912.70	0	3.3830	0	34.3100	0	27.305	0	903.126	0	7.1	4	2.2	4	-1E+10	1	-1E+10	1	-1E+10	1	-1E+10	1	-1E+10	1	-1E+10	1
4902549	48	C	12/06/2021	07:54	-131.923	47.142	0	918.10	0	3.3730	0	34.3130	0	27.308	0	908.458	0	7.0	4	2.2	4	-1E+10	1	-1E+10	1	-1E+10	1	-1E+10	1	-1E+10	1	-1E+10	1
4902549	48	C	12/06/2021	07:54	-131.923	47.142	0	923.10	0	3.3550	0	34.3190	0	27.315	0	913.394	0	6.9	4	2.2	4	-1E+10	1	-1E+10	1	-1E+10	1	-1E+10	1	-1E+10	1	-1E+10	1
4902549	48	C	12/06/2021	07:54	-131.923	47.142	0	927.80	0	3.3480	0	34.3200	0	27.316	0	918.035	0	6.9	4	2.2	4	-1E+10	1	-1E+10	1	-1E+10	1	-1E+10	1	-1E+10	1	-1E+10	1
4902549	48	C	12/06/2021	07:54	-131.923	47.142	0	932.80	0	3.3420	0	34.3210	0	27.317	0	922.971	0	6.9	4	2.2	4	-1E+10	1	-1E+10	1	-1E+10	1	-1E+10	1	-1E+10	1	-1E+10	1
4902549	48	C	12/06/2021	07:54	-131.923	47.142	0	937.90	0	3.3290	0	34.3240	0	27.321	0	928.006	0	6.9	4	2.1	4	-1E+10	1	-1E+10	1	-1E+10	1	-1E+10	1	-1E+10	1	-1E+10	1
4902549	48	C	12/06/2021	07:54	-131.923	47.142	0	942.60	0	3.3210	0	34.3260	0	27.323	0	932.646	0	6.9	4	2.1	4	-1E+10	1	-1E+10	1	-1E+10	1	-1E+10	1	-1E+10	1	-1E+10	1
4902549	48	C	12/06/2021	07:54	-131.923	47.142	0	947.90	0	3.3080	0	34.3290	0	27.327	0	937.878	0	6.8	4	2.1	4	-1E+10	1	-1E+10	1	-1E+10	1	-1E+10	1	-1E+10	1	-1E+10	1
4902549	48	C	12/06/2021	07:54	-131.923	47.142	0	953.30	0	3.3040	0	34.3310	0	27.329	0	943.209	0	6.7	4	2.1	4	-1E+10	1	-1E+10	1	-1E+10	1	-1E+10	1	-1E+10	1	-1E+10	1
4902549	48	C	12/06/2021	07:54	-131.923	47.142	0	958.20	0	3.2950	0	34.3330	0	27.332	0	948.046	0	6.7	4	2.1	4	-1E+10	1	-1E+10	1	-1E+10	1	-1E+10	1	-1E+10	1	-1E+10	1
4902549	48	C	12/06/2021	07:54	-131.923	47.142	0	963.20	0	3.2900	0	34.3350	0	27.334	0	952.982	0	6.6	4	2.1	4	-1E+10	1	-1E+10	1	-1E+10	1	-1E+10	1	-1E+10	1	-1E+10	1
4902549	48	C	12/06/2021	07:54	-131.923	47.142	0	968.20	0	3.2850	0	34.3370	0	27.336	0	957.917	0	6.6	4	2.0	4	-1E+10	1	-1E+10	1	-1E+10	1	-1E+10	1	-1E+10	1	-1E+10	1
4902549	48	C	12/06/2021	07:54	-131.923	47.142	0	973.20	0	3.2790	0	34.3380	0	27.337	0	962.853	0	6.5	4	2.0	4	-1E+10	1	-1E+10	1	-1E+10	1	-1E+10	1	-1E+10	1	-1E+10	1
4902549	48	C	12/06/2021	07:54	-131.923	47.142	0	978.20	0	3.2690	0	34.3410	0	27.341	0	967.788	0	6.5	4	2.0	4	-1E+10	1	-1E+10	1	-1E+10	1	-1E+10	1	-1E+10	1	-1E+10	1
4902549	48	C	12/06/2021	07:54	-131.923	47.142	0	983.20	0	3.2610	0	34.3440	0	27.344	0	972.723	0	6.5	4	2.0	4	-1E+10	1	-1E+10	1	-1E+10	1	-1E+10	1	-1E+10	1	-1E+10	1
4902549	48	C	12/06/2021	07:54	-131.923	47.142	0	987.90	0	3.2540	0	34.3450	0	27.345	0	977.362	0	6.5	4	2.0	4	-1E+10	1	-1E+10	1	-1E+10	1	-1E+10	1	-1E+10	1	-1E+10	1
4902549	48	C	12/06/2021	07:54	-131.923	47.142	0	992.50	0	3.2430	0	34.3480	0	27.349	0	981.902	0	6.4	4	2.0	4	-1E+10	1	-1E+10	1	-1E+10	1	-1E+10	1	-1E+10	1	-1E+10	1
4902549	48	C	12/06/2021	07:54	-131.923	47.142	0	997.60	0	3.2370	0	34.3490	0	27.350	0	986.936	0	6.4	4	2.0	4	-1E+10	1	-1E+10	1	-1E+10	1	-1E+10	1	-1E+10	1	-1E+10	1
4902549	48	C	12/06/2021	07:54	-131.923	47.142	0	1005.40	0	3.2260	0	34.3530	0	27.354	0	994.634	0	6.4	4	2.0	4	-1E+10	1	-1E+10	1	-1E+10	1	-1E+10	1	-1E+10	1	-1E+10	1
4902549	48	C	12/06/2021	07:54	-131.923	47.142	0	1015.40	0	3.2080	0	34.3570	0	27.359	0	1004.503	0	6.4	4	2.0	4	-1E+10	1	-1E+10	1	-1E+10	1	-1E+10	1	-1E+10	1	-1E+10	1
4902549	48	C	12/06/2021	07:54	-131.923	47.142	0	1025.50	0	3.1890	0	34.3620	0	27.365	0	1014.470	0	6.4	4	2.0	4	-1E+10	1	-1E+10	1	-1E+10	1	-1E+10	1	-1E+10	1	-1E+10	1
4902549	48	C	12/06/2021	07:54	-131.923	47.142	0	1035.60	0	3.1760	0	34.3660	0	27.369	0	1024.437	0	6.5	4	2.0	4	-1E+10	1	-1E+10	1	-1E+10	1	-1E+10	1	-1E+10	1	-1E+10	1
4902549	48	C	12/06/2021	07:54	-131.923	47.142	0	1045.40	0	3.1560	0	34.3710	0	27.375	0	1034.107	0	6.4	4	2.0	4	-1E+10	1	-1E+10	1	-1E+10	1	-1E+10	1	-1E+10	1	-1E+10	1
4902549	48	C	12/06/2021	07:54	-131.923	47.142	0	1055.50	0	3.1390	0	34.3750	0	27.380	0	1044.073	0	6.5	4	2.0	4	-1E+10	1	-1E+10	1	-1E+10	1	-1E+10	1	-1E+10	1	-1E+10	1
4902549	48	C	12/06/2021	07:54	-131.923	47.142	0	1065.50	0	3.1260	0	34.3800	0	27.385	0	1053.939	0	6.7	4	2.1	4	-1E+10	1	-1E+10	1	-1E+10	1	-1E+10	1	-1E+10	1	-1E+10	1
4902549	48	C	12/06/2021	07:54	-131.923	47.142	0	1075.40	0	3.1070	0	34.3860	0	27.392	0	1063.707	0	6.7	4	2.1	4	-1E+10	1	-1E+10	1	-1E+10	1	-1E+10	1	-1E+10	1	-1E+10	1
4902549	48	C	12/06/2021	07:54	-131.923	47.142	0	1085.50	0	3.0860	0	34.3910	0	27.398	0	1073.671	0	6.7	4	2.1	4	-1E+10	1	-1E+10	1	-1E+10	1	-1E+10	1	-1E+10	1	-1E+10	1
4902549	48	C	12/06/2021	07:54	-131.923	47.142	0	1095.40	0	3.0680	0	34.3950	0	27.403	0	1083.438	0	6.9	4	2.1	4	-1E+10	1	-1E+10	1	-1E+10	1	-1E+10	1	-1E+10	1	-1E+10	1
4902549	48	C	12/06/2021	07:54	-131.923	47.142	0	1105.20	0	3.0560	0	34.3970	0	27.406	0	1093.105	0	7.0	4	2.2	4	-1E+10	1	-1E+10	1	-1E+10	1	-1E+10	1	-1E+10	1	-1E+10	1
4902549	48	C	12/06/2021	07:54	-131.923	47.142	0	1115.00	0	3.0380	0	34.4000	0	27.410	0	1102.772	0	7.1	4	2.2	4	-1E+10	1	-1E+10	1	-1E+10	1	-1E+10	1	-1E+10	1	-1E+10	1
4902549	48	C	12/06/2021	07:54	-131.923	47.142	0	1125.00	0	3.0200	0	34.4040	0	27.415	0	1112.636	0	7.2	4	2.2	4	-1E+10	1	-1E+10	1	-1E+10	1	-1E+10	1	-1E+10	1	-1E+10	1
4902549	48	C	12/06/2021	07:54	-131.923	47.142	0	1135.10	0	3.0050	0	34.4070	0	27.418	0	1122.598	0	7.4	4	2.3	4	-1E+10	1	-1E+10	1	-1E+10	1	-1E+10	1	-1E+10	1	-1E+10	1
4902549	48	C	12/06/2021	07:54	-131.923	47.142	0	1145.30	0	2.9880	0	34.4100	0	27.422	0	1132.658	0	7.6	4	2.3	4	-1E+10	1	-1E+10	1	-1E+10	1	-1E+10	1	-1E+10	1	-1E+10	1
4902549	48	C	12/06/2021	07:54	-131.923	47.142	0	1155.60	0	2.9720	0	34.4130	0	27.426	0	1142.817	0	7.8	4	2.4	4	-1E+10	1	-1E+10	1	-1E+10	1	-1E+10	1	-1E+10	1	-1E+10	1
4902549	48	C	12/06/2021	07:54	-131.923	47.142	0	1165.40	0	2.9570	0	34.4150	0	27.429	0	1152.481	0	8.0	4	2.5	4	-1E+10	1	-1E+10	1	-1E+10	1	-1E+10	1	-1E+10	1	-1E+10	1
4902549	48	C	12/06/2021	07:54	-131.923	47.142	0	1175.30	0	2.9360	0	34.4180	0	27.434	0	1162.244	0	8.2	4	2.5	4	-1E+10	1	-1E+10	1	-1E+10	1	-1E+10	1	-1E+10	1	-1E+10	1
4902549	48	C	12/06/2021	07:54	-131.923	47.142	0	1185.30	0	2.9180	0	34.4210	0	27.438	0	1172.105	0	8.4	4	2.6	4	-1E+10	1	-1E+10	1	-1E+10	1	-1E+10	1	-1E+10	1	-1E+10	1
4902549	48	C	12/06/2021	07:54	-131.923	47.142	0	1195.30	0	2.9050	0	34.4220	0	27.440	0	1181.966	0	8.5	4	2.6	4	-1E+10	1	-1E+10	1	-1E+10	1	-1E+10	1	-1E+10	1	-1E+10	1
4902549	48	C	12/06/2021	07:54	-131.923	47.142	0	1205.30	0	2.8840	0	34.4250	0	27.444	0	1191.826	0	8.6	4	2.7	4	-1E+10	1	-1E+10	1	-1E+10	1	-1E+10	1	-1E+10	1	-1E+10	1
4902549	48	C	12/06/2021	07:54	-131.923	47.142	0	1215.50	0	2.8710	0	34.4270	0	27.447	0	1201.883	0	8.8	4	2.7	4	-1E+10	1	-1E+10	1	-1E+10	1	-1E+10	1	-1E+10	1	-1E+10	1
4902549	48	C	12/06/2021	07:54	-131.923	47.142	0	1225.70	0	2.8580	0	34.4290	0	27.450	0	1211.939	0	8.9	4	2.7	4	-1E+10	1	-1E+10	1	-1E+10	1	-1E+10	1	-1E+10	1	-1E+10	1
4902549	48	C	12/06/2021	07:54	-131.923	47.142	0	1235.30	0	2.8450	0	34.4310	0	27.452	0	1221.404	0	9.1	4	2.8	4	-1E+10	1	-1E+10	1	-1E+10	1	-1E+10	1	-1E+10	1	-1E+10	1
4902549	48	C	12/06/2021	07:54	-131.923	47.142	0	1245.40	0	2.8310	0	34.4340	0	27.456	0	1231.360	0	9.4	4	2.9	4	-1E+10	1	-1E+10	1	-1E+10	1	-1E+10	1	-1E+10	1	-1E+10	1
4902549	48	C	12/06/2021	07:54	-131.923	47.142	0	1255.50	0	2.8090	0	34.4380	0	27.461	0	1241.317	0	9.6	4	3.0	4	-1E+10	1	-1E+10	1	-1E+10	1	-1E+10	1	-1E+10	1	-1E+10	1
4902549	48	C	12/06/2021	07:54	-131.923	47.142	0	1265.60	0	2.7900	0	34.4410	0	27.465	0	1251.273	0	9.9	4	3.0	4	-1E+10	1	-1E+10	1	-1E+10	1	-1E+10	1	-1E+10	1	-1E+10	1
4902549	48	C	12/06/2021	07:54	-131.923	47.142	0	1275.60	0	2.7720	0	34.4440	0	27.469	0	1261.130	0	10.3	4	3.2	4	-1E+10	1	-1E+10	1	-1E+10	1	-1E+10	1	-1E+10	1	-1E+10	1
4902549	48	C	12/06/2021	07:54	-131.923	47.142	0	1285.30	0	2.7520	0	34.4490	0	27.475	0	1270.690	0	10.8	4	3.3	4	-1E+10	1	-1E+10	1	-1E+10	1	-1E+10	1	-1E+10	1	-1E+10	1
4902549	48	C	12/06/2021	07:54	-131.923	47.142	0	1295.10	0	2.7410	0	34.4520	0	27.479	0	1280.349	0	11.0	4	3.4	4	-1E+10	1	-1E+10	1	-1E+10	1	-1E+10	1	-1E+10	1	-1E+10	1
4902549	48	C	12/06/2021	07:54	-131.923	47.142	0	1305.30	0	2.7290	0	34.4540	0	27.481	0	1290.402	0	11.3	4	3.5	4	-1E+10	1	-1E+10	1	-1E+10	1	-1E+10	1	-1E+10	1	-1E+10	1
4902549	48	C	12/06/2021	07:54	-131.923	47.142	0	1315.30	0	2.7130	0	34.4560	0	27.484	0	1300.257	0	11.6	4	3.6	4	-1E+10	1	-1E+10	1	-1E+10	1	-1E+10	1	-1E+10	1	-1E+10	1
4902549	48	C	12/06/2021	07:54	-131.923	47.142	0	1325.40	0	2.6950	0	34.4600	0	27.489	0	1310.210	0	12.1	4	3.7	4	-1E+10	1	-1E+10	1	-1E+10	1	-1E+10	1	-1E+10	1	-1E+10	1
4902549	48	C	12/06/2021	07:54	-131.923	47.142	0	1335.60	0	2.6820	0	34.4640	0	27.494	0	1320.261	0	12.4	4	3.8	4	-1E+10	1	-1E+10	1	-1E+10	1	-1E+10	1	-1E+10	1	-1E+10	1
4902549	48	C	12/06/2021	07:54	-131.923	47.142	0	1345.60	0	2.6540	0	34.4650	0	27.497	0	1330.115	0	12.7	4	3.9	4	-1E+10	1	-1E+10	1	-1E+10	1	-1E+10	1	-1E+10	1	-1E+10	1
4902549	48	C	12/06/2021	07:54	-131.923	47.142	0	1355.40	0	2.6540	0	34.4680	0	27.499	0	1339.771	0	13.2	4	4.0	4	-1E+10	1	-1E+10	1	-1E+10	1	-1E+10	1	-1E+10	1	-1E+10	1
4902549	48	C	12/06/2021	07:54	-131.923	47.142	0	1365.10	0	2.6440	0	34.4710	0	27.503	0	1349.328	0	13.5	4	4.1	4	-1E+10	1	-1E+10	1	-1E+10	1	-1E+10	1	-1E+10	1	-1E+10	1
4902549	48	C	12/06/2021	07:54	-131.923	47.142	0	1375.00	0	2.6280	0	34.4730	0	27.506	0	1359.082	0	13.8	4	4.2	4	-1E+10	1	-1E+10	1	-1E+10	1	-1E+10	1	-1E+10	1	-1E+10	1
4902549	48	C	12/06/2021	07:54	-131.923	47.142	0	1385.00	0	2.6050	0	34.4740	0	27.508	0	1368.933	0	14.0	4	4.3	4	-1E+10	1	-1E+10	1	-1E+10	1	-1E+10	1	-1E+10	1	-1E+10	1
4902549	48	C	12/06/2021	07:54	-131.923	47.142	0	1395.20	0	2.5800	0	34.4760	0	27.512	0	1378.982	0	14.6	4	4.4	4	-1E+10	1	-1E+10	1	-1E+10	1	-1E+10	1	-1E+10	1	-1E+10	1
4902549	48	C	12/06/2021	07:54	-131.923	47.142	0	1405.50	0	2.5710	0	34.4800	0	27.516	0	1389.128	0	15.0	4	4.6	4	-1E+10	1	-1E+10	1	-1E+10	1	-1E+10	1	-1E+10	1	-1E+10	1
4902549	48	C	12/06/2021	07:54	-131.923	47.142	0	1415.50	0	2.5560	0	34.4810	0	27.518	0	1398.978	0	15.2	4	4.7	4	-1E+10	1	-1E+10	1	-1E+10	1	-1E+10	1	-1E+10	1	-1E+10	1
4902549	48	C	12/06/2021	07:54	-131.923	47.142	0	1425.60	0	2.5400	0	34.4830	0	27.521	0	1408.927	0	15.9	4	4.8	4	-1E+10	1	-1E+10	1	-1E+10	1	-1E+10	1	-1E+10	1	-1E+10	1
4902549	48	C	12/06/2021	07:54	-131.923	47.142	0	1435.60	0	2.5240	0	34.4870	0	27.526	0	1418.776	0	16.5	4	5.0	4	-1E+10	1	-1E+10	1	-1E+10	1	-1E+10	1	-1E+10	1	-1E+10	1
4902549	48	C	12/06/2021	07:54	-131.923	47.142	0	1445.60	0	2.4960	0	34.4900	0	27.531	0	1428.625	0	16.9	4	5.2	4	-1E+10	1	-1E+10	1	-1E+10	1	-1E+10	1	-1E+10	1	-1E+10	1
4902549	48	C	12/06/2021	07:54	-131.923	47.142	0	1455.30	0	2.4830	0	34.4910	0	27.533	0	1438.178	0	17.2	4	5.2	4	-1E+10	1	-1E+10	1	-1E+10	1	-1E+10	1	-1E+10	1	-1E+10	1
4902549	48	C	12/06/2021	07:54	-131.923	47.142	0	1465.10	0	2.4640	0	34.4930	0	27.536	0	1447.830	0	17.8	4	5.4	4	-1E+10	1	-1E+10	1	-1E+10	1	-1E+10	1	-1E+10	1	-1E+10	1
4902549	48	C	12/06/2021	07:54	-131.923	47.142	0	1475.00	0	2.4530	0	34.4960	0	27.539	0	1457.579	0	18.4	4	5.6	4	-1E+10	1	-1E+10	1	-1E+10	1	-1E+10	1	-1E+10	1	-1E+10	1
4902549	48	C	12/06/2021	07:54	-131.923	47.142	0	1485.10	0	2.4430	0	34.4990	0	27.543	0	1467.524	0	19.2	4	5.8	4	-1E+10	1	-1E+10	1	-1E+10	1	-1E+10	1	-1E+10	1	-1E+10	1
4902549	48	C	12/06/2021	07:54	-131.923	47.142	0	1495.20	0	2.4260	0	34.5020	0	27.546	0	1477.470	0	20.1	4	6.1	4	-1E+10	1	-1E+10	1	-1E+10	1	-1E+10	1	-1E+10	1	-1E+10	1
4902549	48	C	12/06/2021	07:54	-131.923	47.142	0	1505.50	0	2.4150	0	34.5060	0	27.551	0	1487.611	0	20.7	4	6.3	4	-1E+10	1	-1E+10	1	-1E+10	1	-1E+10	1	-1E+10	1	-1E+10	1
4902549	48	C	12/06/2021	07:54	-131.923	47.142	0	1515.60	0	2.3930	0	34.5070	0	27.553	0	1497.555	0	21.3	4	6.5	4	-1E+10	1	-1E+10	1	-1E+10	1	-1E+10	1	-1E+10	1	-1E+10	1
4902549	48	C	12/06/2021	07:54	-131.923	47.142	0	1525.20	0	2.3880	0	34.5100	0	27.556	0	1507.007	0	22.1	4	6.7	4	-1E+10	1	-1E+10	1	-1E+10	1	-1E+10	1	-1E+10	1	-1E+10	1
4902549	48	C	12/06/2021	07:54	-131.923	47.142	0	1535.20	0	2.3810	0	34.5120	0	27.558	0	1516.852	0	22.8	4	6.9	4	-1E+10	1	-1E+10	1	-1E+10	1	-1E+10	1	-1E+10	1	-1E+10	1
4902549	48	C	12/06/2021	07:54	-131.923	47.142	0	1545.50	0	2.3690	0	34.5150	0	27.562	0	1526.992	0	23.3	4	7.1	4	-1E+10	1	-1E+10	1	-1E+10	1	-1E+10	1	-1E+10	1	-1E+10	1
4902549	48	C	12/06/2021	07:54	-131.923	47.142	0	1555.50	0	2.3490	0	34.5160	0	27.564	0	1536.835	0	23.6	4	7.2	4	-1E+10	1	-1E+10	1	-1E+10	1	-1E+10	1	-1E+10	1	-1E+10	1
4902549	48	C	12/06/2021	07:54	-131.923	47.142	0	1565.60	0	2.3370	0	34.5170	0	27.566	0	1546.777	0	23.8	4	7.2	4	-1E+10	1	-1E+10	1	-1E+10	1	-1E+10	1	-1E+10	1	-1E+10	1
4902549	48	C	12/06/2021	07:54	-131.923	47.142	0	1575.50	0	2.3280	0	34.5180	0	27.568	0	1556.522	0	24.1	4	7.3	4	-1E+10	1	-1E+10	1	-1E+10	1	-1E+10	1	-1E+10	1	-1E+10	1
4902549	48	C	12/06/2021	07:54	-131.923	47.142	0	1585.50	0	2.3150	0	34.5200	0	27.570	0	1566.365	0	24.1	4	7.3	4	-1E+10	1	-1E+10	1	-1E+10	1	-1E+10	1	-1E+10	1	-1E+10	1
4902549	48	C	12/06/2021	07:54	-131.923	47.142	0	1595.70	0	2.2970	0	34.5190	0	27.571	0	1576.403	0	24.3	4	7.4	4	-1E+10	1	-1E+10	1	-1E+10	1	-1E+10	1	-1E+10	1	-1E+10	1
4902549	48	C	12/06/2021	07:54	-131.923	47.142	0	1605.50	0	2.2920	0	34.5200	0	27.572	0	1586.048	0	24.9	4	7.6	4	-1E+10	1	-1E+10	1	-1E+10	1	-1E+10	1	-1E+10	1	-1E+10	1
4902549	48	C	12/06/2021	07:54	-131.923	47.142	0	1615.30	0	2.2820	0	34.5220	0	27.575	0	1595.693	0	25.5	4	7.7	4	-1E+10	1	-1E+10	1	-1E+10	1	-1E+10	1	-1E+10	1	-1E+10	1
4902549	48	C	12/06/2021	07:54	-131.923	47.142	0	1625.50	0	2.2740	0	34.5240	0	27.577	0	1605.730	0	26.1	4	7.9	4	-1E+10	1	-1E+10	1	-1E+10	1	-1E+10	1	-1E+10	1	-1E+10	1
4902549	48	C	12/06/2021	07:54	-131.923	47.142	0	1635.80	0	2.2650	0	34.5260	0	27.580	0	1615.866	0	26.8	4	8.1	4	-1E+10	1	-1E+10	1	-1E+10	1	-1E+10	1	-1E+10	1	-1E+10	1
4902549	48	C	12/06/2021	07:54	-131.923	47.142	0	1645.30	0	2.2580	0	34.5280	0	27.582	0	1625.213	0	27.3	4	8.3	4	-1E+10	1	-1E+10	1	-1E+10	1	-1E+10	1	-1E+10	1	-1E+10	1
4902549	48	C	12/06/2021	07:54	-131.923	47.142	0	1655.50	0	2.2470	0	34.5300	0	27.584	0	1635.250	0	27.8	4	8.4	4	-1E+10	1	-1E+10	1	-1E+10	1	-1E+10	1	-1E+10	1	-1E+10	1
4902549	48	C	12/06/2021	07:54	-131.923	47.142	0	1665.40	0	2.2410	0	34.5310	0	27.586	0	1644.990	0	28.3	4	8.6	4	-1E+10	1	-1E+10	1	-1E+10	1	-1E+10	1	-1E+10	1	-1E+10	1
4902549	48	C	12/06/2021	07:54	-131.923	47.142	0	1675.40	0	2.2320	0	34.5330	0	27.588	0	1654.829	0	29.0	4	8.8	4	-1E+10	1	-1E+10	1	-1E+10	1	-1E+10	1	-1E+10	1	-1E+10	1
4902549	48	C	12/06/2021	07:54	-131.923	47.142	0	1685.50	0	2.2200	0	34.5350	0	27.591	0	1664.765	0	29.9	4	9.1	4	-1E+10	1	-1E+10	1	-1E+10	1	-1E+10	1	-1E+10	1	-1E+10	1
4902549	48	C	12/06/2021	07:54	-131.923	47.142	0	1695.20	0	2.2060	0	34.5380	0	27.594	0	1674.307	0	30.6	4	9.3	4	-1E+10	1	-1E+10	1	-1E+10	1	-1E+10	1	-1E+10	1	-1E+10	1
4902549	48	C	12/06/2021	07:54	-131.923	47.142	0	1705.30	0	2.2000	0	34.5390	0	27.596	0	1684.243	0	31.3	4	9.5	4	-1E+10	1	-1E+10	1	-1E+10	1	-1E+10	1	-1E+10	1	-1E+10	1
4902549	48	C	12/06/2021	07:54	-131.923	47.142	0	1715.40	0	2.1890	0	34.5420	0	27.599	0	1694.178	0	32.1	4	9.7	4	-1E+10	1	-1E+10	1	-1E+10	1	-1E+10	1	-1E+10	1	-1E+10	1
4902549	48	C	12/06/2021	07:54	-131.923	47.142	0	1725.50	0	2.1750	0	34.5440	0	27.602	0	1704.112	0	32.9	4	10.0	4	-1E+10	1	-1E+10	1	-1E+10	1	-1E+10	1	-1E+10	1	-1E+10	1
4902549	48	C	12/06/2021	07:54	-131.923	47.142	0	1735.60	0	2.1640	0	34.5460	0	27.604	0	1714.046	0	33.6	4	10.2	4	-1E+10	1	-1E+10	1	-1E+10	1	-1E+10	1	-1E+10	1	-1E+10	1
4902549	48	C	12/06/2021	07:54	-131.923	47.142	0	1745.50	0	2.1550	0	34.5470	0	27.606	0	1723.783	0	34.2	4	10.3	4	-1E+10	1	-1E+10	1	-1E+10	1	-1E+10	1	-1E+10	1	-1E+10	1
4902549	48	C	12/06/2021	07:54	-131.923	47.142	0	1755.20	0	2.1480	0	34.5490	0	27.608	0	1733.323	0	34.8	4	10.5	4	-1E+10	1	-1E+10	1	-1E+10	1	-1E+10	1	-1E+10	1	-1E+10	1
4902549	48	C	12/06/2021	07:54	-131.923	47.142	0	1765.30	0	2.1370	0	34.5510	0	27.611	0	1743.255	0	35.8	4	10.8	4	-1E+10	1	-1E+10	1	-1E+10	1	-1E+10	1	-1E+10	1	-1E+10	1
4902549	48	C	12/06/2021	07:54	-131.923	47.142	0	1775.50	0	2.1210	0	34.5530	0	27.613	0	1753.286	0	36.7	4	11.1	4	-1E+10	1	-1E+10	1	-1E+10	1	-1E+10	1	-1E+10	1	-1E+10	1
4902549	48	C	12/06/2021	07:54	-131.923	47.142	0	1785.50	0	2.1050	0	34.5550	0	27.616	0	1763.119	0	37.6	4	11.4	4	-1E+10	1	-1E+10	1	-1E+10	1	-1E+10	1	-1E+10	1	-1E+10	1
4902549	48	C	12/06/2021	07:54	-131.923	47.142	0	1795.20	0	2.0950	0	34.5580	0	27.620	0	1772.657	0	38.4	4	11.6	4	-1E+10	1	-1E+10	1	-1E+10	1	-1E+10	1	-1E+10	1	-1E+10	1
4902549	48	C	12/06/2021	07:54	-131.923	47.142	0	1805.10	0	2.0830	0	34.5600	0	27.622	0	1782.391	0	39.2	4	11.8	4	-1E+10	1	-1E+10	1	-1E+10	1	-1E+10	1	-1E+10	1	-1E+10	1
4902549	48	C	12/06/2021	07:54	-131.923	47.142	0	1815.20	0	2.0750	0	34.5620	0	27.624	0	1792.322	0	39.9	4	12.1	4	-1E+10	1	-1E+10	1	-1E+10	1	-1E+10	1	-1E+10	1	-1E+10	1
4902549	48	C	12/06/2021	07:54	-131.923	47.142	0	1825.30	0	2.0660	0	34.5630	0	27.626	0	1802.252	0	40.6	4	12.3	4	-1E+10	1	-1E+10	1	-1E+10	1	-1E+10	1	-1E+10	1	-1E+10	1
4902549	48	C	12/06/2021	07:54	-131.923	47.142	0	1835.50	0	2.0540	0	34.5650	0	27.629	0	1812.279	0	41.4	4	12.5	4	-1E+10	1	-1E+10	1	-1E+10	1	-1E+10	1	-1E+10	1	-1E+10	1
4902549	48	C	12/06/2021	07:54	-131.923	47.142	0	1845.30	0	2.0440	0	34.5660	0	27.630	0	1821.914	0	42.0	4	12.7	4	-1E+10	1	-1E+10	1	-1E+10	1	-1E+10	1	-1E+10	1	-1E+10	1
4902549	48	C	12/06/2021	07:54	-131.923	47.142	0	1855.70	0	2.0340	0	34.5690	0	27.634	0	1832.137	0	42.9	4	12.9	4	-1E+10	1	-1E+10	1	-1E+10	1	-1E+10	1	-1E+10	1	-1E+10	1
4902549	48	C	12/06/2021	07:54	-131.923	47.142	0	1865.50	0	2.0210	0	34.5700	0	27.635	0	1841.770	0	43.7	4	13.2	4	-1E+10	1	-1E+10	1	-1E+10	1	-1E+10	1	-1E+10	1	-1E+10	1
4902549	48	C	12/06/2021	07:54	-131.923	47.142	0	1875.20	0	2.0110	0	34.5720	0	27.638	0	1851.304	0	44.3	4	13.4	4	-1E+10	1	-1E+10	1	-1E+10	1	-1E+10	1	-1E+10	1	-1E+10	1
4902549	48	C	12/06/2021	07:54	-131.923	47.142	0	1885.40	0	2.0040	0	34.5740	0	27.640	0	1861.330	0	44.9	4	13.5	4	-1E+10	1	-1E+10	1	-1E+10	1	-1E+10	1	-1E+10	1	-1E+10	1
4902549	48	C	12/06/2021	07:54	-131.923	47.142	0	1895.40	0	1.9980	0	34.5750	0	27.641	0	1871.158	0	45.3	4	13.6	4	-1E+10	1	-1E+10	1	-1E+10	1	-1E+10	1	-1E+10	1	-1E+10	1
4902549	48	C	12/06/2021	07:54	-131.923	47.142	0	1905.10	0	1.9940	0	34.5760	0	27.643	0	1880.691	0	45.9	4	13.8	4	-1E+10	1	-1E+10	1	-1E+10	1	-1E+10	1	-1E+10	1	-1E+10	1
4902549	48	C	12/06/2021	07:54	-131.923	47.142	0	1915.10	0	1.9830	0	34.5780	0	27.645	0	1890.519	0	46.6	4	14.0	4	-1E+10	1	-1E+10	1	-1E+10	1	-1E+10	1	-1E+10	1	-1E+10	1
4902549	48	C	12/06/2021	07:54	-131.923	47.142	0	1925.30	0	1.9770	0	34.5790	0	27.646	0	1900.543	0	47.1	4	14.2	4	-1E+10	1	-1E+10	1	-1E+10	1	-1E+10	1	-1E+10	1	-1E+10	1
4902549	48	C	12/06/2021	07:54	-131.923	47.142	0	1935.70	0	1.9690	0	34.5810	0	27.649	0	1910.762	0	47.6	4	14.3	4	-1E+10	1	-1E+10	1	-1E+10	1	-1E+10	1	-1E+10	1	-1E+10	1
4902549	48	C	12/06/2021	07:54	-131.923	47.142	0	1945.30	0	1.9630	0	34.5820	0	27.650	0	1920.195	0	48.1	4	14.5	4	-1E+10	1	-1E+10	1	-1E+10	1	-1E+10	1	-1E+10	1	-1E+10	1
4902549	48	C	12/06/2021	07:54	-131.923	47.142	0	1955.10	0	1.9570	0	34.5830	0	27.651	0	1929.824	0	48.6	4	14.6	4	-1E+10	1	-1E+10	1	-1E+10	1	-1E+10	1	-1E+10	1	-1E+10	1
4902549	48	C	12/06/2021	07:54	-131.923	47.142	0	1965.30	0	1.9500	0	34.5840	0	27.653	0	1939.846	0	49.1	4	14.8	4	-1E+10	1	-1E+10	1	-1E+10	1	-1E+10	1	-1E+10	1	-1E+10	1
4902549	48	C	12/06/2021	07:54	-131.923	47.142	0	1975.60	0	1.9430	0	34.5850	0	27.654	0	1949.965	0	49.7	4	15.0	4	-1E+10	1	-1E+10	1	-1E+10	1	-1E+10	1	-1E+10	1	-1E+10	1
4902549	48	C	12/06/2021	07:54	-131.923	47.142	0	1985.50	0	1.9350	0	34.5870	0	27.656	0	1959.692	0	50.2	4	15.1	4	-1E+10	1	-1E+10	1	-1E+10	1	-1E+10	1	-1E+10	1	-1E+10	1
4902549	48	C	12/06/2021	07:54	-131.923	47.142	0	1995.10	0	1.9260	0	34.5880	0	27.658	0	1969.122	0	50.3	4	15.1	4	-1E+10	1	-1E+10	1	-1E+10	1	-1E+10	1	-1E+10	1	-1E+10	1
4902549	48	C	12/06/2021	07:54	-131.923	47.142	0																										
4902549	49	C	12/16/2021	12:55	-132.002	47.187	0	0.30	0	9.4350	0	32.2950	0	24.933	0	0.298	0	264.6	4	93.3	4	-1E+10	1	-1E+10	1	-1E+10	1	-1E+10	1	-1E+10	1	-1E+10	1
4902549	49	C	12/16/2021	12:55	-132.002	47.187	0	0.40	0	9.4420	0	32.2950	0	24.931	0	0.397	0	264.5	4	93.3	4	-1E+10	1	-1E+10	1	-1E+10	1	-1E+10	1	-1E+10	1	-1E+10	1
4902549	49	C	12/16/2021	12:55	-132.002	47.187	0	0.50	0	9.4423	0	32.2945	0	24.931	0	0.496	0	-1e10	1	-1e10	1	-1E+10	1	-1E+10	1	-1E+10	1	-1E+10	1	-1E+10	1	-1E+10	1
4902549	49	C	12/16/2021	12:55	-132.002	47.187	0	1.00	0	9.4440	0	32.2920	0	24.929	0	0.992	0	264.4	4	93.3	4	-1E+10	1	-1E+10	1	-1E+10	1	-1E+10	1	-1E+10	1	-1E+10	1
4902549	49	C	12/16/2021	12:55	-132.002	47.187	0	1.10	0	9.4439	0	32.2922	0	24.929	0	1.091	0	-1e10	1	-1e10	1	-1E+10	1	-1E+10	1	-1E+10	1	-1E+10	1	-1E+10	1	-1E+10	1
4902549	49	C	12/16/2021	12:55	-132.002	47.187	0	2.00	0	9.4430	0	32.2940	0	24.931	0	1.983	0	264.3	4	93.3	4	-1E+10	1	-1E+10	1	-1E+10	1	-1E+10	1	-1E+10	1	-1E+10	1
4902549	49	C	12/16/2021	12:55	-132.002	47.187	0	2.90	0	9.4450	0	32.2930	0	24.929	0	2.876	0	264.3	4	93.3	4	-1E+10	1	-1E+10	1	-1E+10	1	-1E+10	1	-1E+10	1	-1E+10	1
4902549	49	C	12/16/2021	12:55	-132.002	47.187	0	3.80	0	9.4460	0	32.2920	0	24.929	0	3.768	0	264.3	4	93.3	4	-1E+10	1	-1E+10	1	-1E+10	1	-1E+10	1	-1E+10	1	-1E+10	1
4902549	49	C	12/16/2021	12:55	-132.002	47.187	0	4.90	0	9.4460	0	32.2930	0	24.929	0	4.859	0	264.2	4	93.2	4	-1E+10	1	-1E+10	1	-1E+10	1	-1E+10	1	-1E+10	1	-1E+10	1
4902549	49	C	12/16/2021	12:55	-132.002	47.187	0	5.90	0	9.4430	0	32.2930	0	24.930	0	5.851	0	264.3	4	93.2	4	-1E+10	1	-1E+10	1	-1E+10	1	-1E+10	1	-1E+10	1	-1E+10	1
4902549	49	C	12/16/2021	12:55	-132.002	47.187	0	7.10	0	9.4400	0	32.2940	0	24.931	0	7.041	0	264.2	4	93.2	4	-1E+10	1	-1E+10	1	-1E+10	1	-1E+10	1	-1E+10	1	-1E+10	1
4902549	49	C	12/16/2021	12:55	-132.002	47.187	0	8.30	0	9.4390	0	32.2940	0	24.931	0	8.231	0	264.2	4	93.2	4	-1E+10	1	-1E+10	1	-1E+10	1	-1E+10	1	-1E+10	1	-1E+10	1
4902549	49	C	12/16/2021	12:55	-132.002	47.187	0	9.10	0	9.4430	0	32.2940	0	24.931	0	9.024	0	264.2	4	93.2	4	-1E+10	1	-1E+10	1	-1E+10	1	-1E+10	1	-1E+10	1	-1E+10	1
4902549	49	C	12/16/2021	12:55	-132.002	47.187	0	9.70	0	9.4440	0	32.2930	0	24.930	0	9.619	0	264.1	4	93.2	4	-1E+10	1	-1E+10	1	-1E+10	1	-1E+10	1	-1E+10	1	-1E+10	1
4902549	49	C	12/16/2021	12:55	-132.002	47.187	0	10.70	0	9.4440	0	32.2940	0	24.931	0	10.611	0	264.1	4	93.2	4	-1E+10	1	-1E+10	1	-1E+10	1	-1E+10	1	-1E+10	1	-1E+10	1
4902549	49	C	12/16/2021	12:55	-132.002	47.187	0	11.80	0	9.4450	0	32.2930	0	24.930	0	11.702	0	264.0	4	93.2	4	-1E+10	1	-1E+10	1	-1E+10	1	-1E+10	1	-1E+10	1	-1E+10	1
4902549	49	C	12/16/2021	12:55	-132.002	47.187	0	12.90	0	9.4460	0	32.2940	0	24.930	0	12.792	0	264.1	4	93.2	4	-1E+10	1	-1E+10	1	-1E+10	1	-1E+10	1	-1E+10	1	-1E+10	1
4902549	49	C	12/16/2021	12:55	-132.002	47.187	0	13.90	0	9.4460	0	32.2940	0	24.930	0	13.784	0	264.0	4	93.2	4	-1E+10	1	-1E+10	1	-1E+10	1	-1E+10	1	-1E+10	1	-1E+10	1
4902549	49	C	12/16/2021	12:55	-132.002	47.187	0	14.90	0	9.4460	0	32.2940	0	24.930	0	14.776	0	264.0	4	93.2	4	-1E+10	1	-1E+10	1	-1E+10	1	-1E+10	1	-1E+10	1	-1E+10	1
4902549	49	C	12/16/2021	12:55	-132.002	47.187	0	16.00	0	9.4470	0	32.2940	0	24.930	0	15.866	0	264.0	4	93.2	4	-1E+10	1	-1E+10	1	-1E+10	1	-1E+10	1	-1E+10	1	-1E+10	1
4902549	49	C	12/16/2021	12:55	-132.002	47.187	0	17.10	0	9.4470	0	32.2940	0	24.930	0	16.957	0	264.0	4	93.1	4	-1E+10	1	-1E+10	1	-1E+10	1	-1E+10	1	-1E+10	1	-1E+10	1
4902549	49	C	12/16/2021	12:55	-132.002	47.187	0	18.00	0	9.4460	0	32.2940	0	24.930	0	17.850	0	264.0	4	93.2	4	-1E+10	1	-1E+10	1	-1E+10	1	-1E+10	1	-1E+10	1	-1E+10	1
4902549	49	C	12/16/2021	12:55	-132.002	47.187	0	18.80	0	9.4460	0	32.2940	0	24.930	0	18.643	0	264.0	4	93.2	4	-1E+10	1	-1E+10	1	-1E+10	1	-1E+10	1	-1E+10	1	-1E+10	1
4902549	49	C	12/16/2021	12:55	-132.002	47.187	0	19.90	0	9.4460	0	32.2930	0	24.930	0	19.734	0	264.0	4	93.2	4	-1E+10	1	-1E+10	1	-1E+10	1	-1E+10	1	-1E+10	1	-1E+10	1
4902549	49	C	12/16/2021	12:55	-132.002	47.187	0	21.10	0	9.4500	0	32.2940	0	24.930	0	20.923	0	264.0	4	93.2	4	-1E+10	1	-1E+10	1	-1E+10	1	-1E+10	1	-1E+10	1	-1E+10	1
4902549	49	C	12/16/2021	12:55	-132.002	47.187	0	22.00	0	9.4520	0	32.2930	0	24.929	0	21.816	0	263.8	4	93.1	4	-1E+10	1	-1E+10	1	-1E+10	1	-1E+10	1	-1E+10	1	-1E+10	1
4902549	49	C	12/16/2021	12:55	-132.002	47.187	0	23.00	0	9.4490	0	32.2940	0	24.930	0	22.807	0	264.0	4	93.1	4	-1E+10	1	-1E+10	1	-1E+10	1	-1E+10	1	-1E+10	1	-1E+10	1
4902549	49	C	12/16/2021	12:55	-132.002	47.187	0	23.90	0	9.4500	0	32.2940	0	24.930	0	23.700	0	263.9	4	93.1	4	-1E+10	1	-1E+10	1	-1E+10	1	-1E+10	1	-1E+10	1	-1E+10	1
4902549	49	C	12/16/2021	12:55	-132.002	47.187	0	24.90	0	9.4520	0	32.2930	0	24.929	0	24.691	0	263.9	4	93.1	4	-1E+10	1	-1E+10	1	-1E+10	1	-1E+10	1	-1E+10	1	-1E+10	1
4902549	49	C	12/16/2021	12:55	-132.002	47.187	0	25.90	0	9.4530	0	32.2940	0	24.929	0	25.683	0	263.9	4	93.2	4	-1E+10	1	-1E+10	1	-1E+10	1	-1E+10	1	-1E+10	1	-1E+10	1
4902549	49	C	12/16/2021	12:55	-132.002	47.187	0	26.90	0	9.4530	0	32.2940	0	24.929	0	26.675	0	263.9	4	93.1	4	-1E+10	1	-1E+10	1	-1E+10	1	-1E+10	1	-1E+10	1	-1E+10	1
4902549	49	C	12/16/2021	12:55	-132.002	47.187	0	27.90	0	9.4540	0	32.2940	0	24.929	0	27.666	0	263.8	4	93.1	4	-1E+10	1	-1E+10	1	-1E+10	1	-1E+10	1	-1E+10	1	-1E+10	1
4902549	49	C	12/16/2021	12:55	-132.002	47.187	0	28.90	0	9.4540	0	32.2940	0	24.929	0	28.658	0	263.8	4	93.1	4	-1E+10	1	-1E+10	1	-1E+10	1	-1E+10	1	-1E+10	1	-1E+10	1
4902549	49	C	12/16/2021	12:55	-132.002	47.187	0	30.00	0	9.4530	0	32.2940	0	24.929	0	29.748	0	263.8	4	93.1	4	-1E+10	1	-1E+10	1	-1E+10	1	-1E+10	1	-1E+10	1	-1E+10	1
4902549	49	C	12/16/2021	12:55	-132.002	47.187	0	30.70	0	9.4520	0	32.2940	0	24.930	0	30.442	0	263.8	4	93.1	4	-1E+10	1	-1E+10	1	-1E+10	1	-1E+10	1	-1E+10	1	-1E+10	1
4902549	49	C	12/16/2021	12:55	-132.002	47.187	0	31.90	0	9.4520	0	32.2940	0	24.930	0	31.632	0	263.8	4	93.1	4	-1E+10	1	-1E+10	1	-1E+10	1	-1E+10	1	-1E+10	1	-1E+10	1
4902549	49	C	12/16/2021	12:55	-132.002	47.187	0	33.00	0	9.4540	0	32.2930	0	24.929	0	32.723	0	263.7	4	93.1	4	-1E+10	1	-1E+10	1	-1E+10	1	-1E+10	1	-1E+10	1	-1E+10	1
4902549	49	C	12/16/2021	12:55	-132.002	47.187	0	33.80	0	9.4530	0	32.2940	0	24.929	0	33.516	0	263.8	4	93.1	4	-1E+10	1	-1E+10	1	-1E+10	1	-1E+10	1	-1E+10	1	-1E+10	1
4902549	49	C	12/16/2021	12:55	-132.002	47.187	0	34.90	0	9.4530	0	32.2940	0	24.930	0	34.607	0	263.7	4	93.1	4	-1E+10	1	-1E+10	1	-1E+10	1	-1E+10	1	-1E+10	1	-1E+10	1
4902549	49	C	12/16/2021	12:55	-132.002	47.187	0	36.00	0	9.4540	0	32.2940	0	24.929	0	35.697	0	263.7	4	93.1	4	-1E+10	1	-1E+10	1	-1E+10	1	-1E+10	1	-1E+10	1	-1E+10	1
4902549	49	C	12/16/2021	12:55	-132.002	47.187	0	36.80	0	9.4540	0	32.2940	0	24.929	0	36.491	0	263.7	4	93.1	4	-1E+10	1	-1E+10	1	-1E+10	1	-1E+10	1	-1E+10	1	-1E+10	1
4902549	49	C	12/16/2021	12:55	-132.002	47.187	0	37.90	0	9.4540	0	32.2940	0	24.929	0	37.581	0	263.7	4	93.1	4	-1E+10	1	-1E+10	1	-1E+10	1	-1E+10	1	-1E+10	1	-1E+10	1
4902549	49	C	12/16/2021	12:55	-132.002	47.187	0	39.00	0	9.4550	0	32.2930	0	24.928	0	38.672	0	263.6	4	93.1	4	-1E+10	1	-1E+10	1	-1E+10	1	-1E+10	1	-1E+10	1	-1E+10	1
4902549	49	C	12/16/2021	12:55	-132.002	47.187	0	39.80	0	9.4540	0	32.2940	0	24.929	0	39.465	0	263.7	4	93.1	4	-1E+10	1	-1E+10	1	-1E+10	1	-1E+10	1	-1E+10	1	-1E+10	1
4902549	49	C	12/16/2021	12:55	-132.002	47.187	0	40.90	0	9.4540	0	32.2940	0	24.929	0	40.556	0	263.5	4	93.0	4	-1E+10	1	-1E+10	1	-1E+10	1	-1E+10	1	-1E+10	1	-1E+10	1
4902549	49	C	12/16/2021	12:55	-132.002	47.187	0	42.10	0	9.4550	0	32.2940	0	24.929	0	41.746	0	263.6	4	93.0	4	-1E+10	1	-1E+10	1	-1E+10	1	-1E+10	1	-1E+10	1	-1E+10	1
4902549	49	C	12/16/2021	12:55	-132.002	47.187	0	42.90	0	9.4550	0	32.2940	0	24.929	0	42.539	0	263.4	4	93.0	4	-1E+10	1	-1E+10	1	-1E+10	1	-1E+10	1	-1E+10	1	-1E+10	1
4902549	49	C	12/16/2021	12:55	-132.002	47.187	0	43.90	0	9.4550	0	32.2940	0	24.929	0	43.530	0	263.5	4	93.0	4	-1E+10	1	-1E+10	1	-1E+10	1	-1E+10	1	-1E+10	1	-1E+10	1
4902549	49	C	12/16/2021	12:55	-132.002	47.187	0	45.10	0	9.4550	0	32.2940	0	24.929	0	44.720	0	263.5	4	93.0	4	-1E+10	1	-1E+10	1	-1E+10	1	-1E+10	1	-1E+10	1	-1E+10	1
4902549	49	C	12/16/2021	12:55	-132.002	47.187	0	45.90	0	9.4550	0	32.2940	0	24.929	0	45.513	0	263.4	4	93.0	4	-1E+10	1	-1E+10	1	-1E+10	1	-1E+10	1	-1E+10	1	-1E+10	1
4902549	49	C	12/16/2021	12:55	-132.002	47.187	0	47.00	0	9.4550	0	32.2940	0	24.929	0	46.604	0	263.4	4	93.0	4	-1E+10	1	-1E+10	1	-1E+10	1	-1E+10	1	-1E+10	1	-1E+10	1
4902549	49	C	12/16/2021	12:55	-132.002	47.187	0	48.20	0	9.4550	0	32.2930	0	24.929	0	47.794	0	263.3	4	92.9	4	-1E+10	1	-1E+10	1	-1E+10	1	-1E+10	1	-1E+10	1	-1E+10	1
4902549	49	C	12/16/2021	12:55	-132.002	47.187	0	48.90	0	9.4550	0	32.2940	0	24.929	0	48.488	0	263.3	4	92.9	4	-1E+10	1	-1E+10	1	-1E+10	1	-1E+10	1	-1E+10	1	-1E+10	1
4902549	49	C	12/16/2021	12:55	-132.002	47.187	0	49.70	0	9.4550	0	32.2940	0	24.929	0	49.281	0	263.3	4	92.9	4	-1E+10	1	-1E+10	1	-1E+10	1	-1E+10	1	-1E+10	1	-1E+10	1
4902549	49	C	12/16/2021	12:55	-132.002	47.187	0	51.00	0	9.4560	0	32.2940	0	24.929	0	50.570	0	263.2	4	92.9	4	-1E+10	1	-1E+10	1	-1E+10	1	-1E+10	1	-1E+10	1	-1E+10	1
4902549	49	C	12/16/2021	12:55	-132.002	47.187	0	52.20	0	9.4560	0	32.2940	0	24.929	0	51.759	0	263.1	4	92.9	4	-1E+10	1	-1E+10	1	-1E+10	1	-1E+10	1	-1E+10	1	-1E+10	1
4902549	49	C	12/16/2021	12:55	-132.002	47.187	0	53.00	0	9.4560	0	32.2940	0	24.929	0	52.552	0	263.1	4	92.9	4	-1E+10	1	-1E+10	1	-1E+10	1	-1E+10	1	-1E+10	1	-1E+10	1
4902549	49	C	12/16/2021	12:55	-132.002	47.187	0	53.70	0	9.4560	0	32.2940	0	24.929	0	53.246	0	263.1	4	92.9	4	-1E+10	1	-1E+10	1	-1E+10	1	-1E+10	1	-1E+10	1	-1E+10	1
4902549	49	C	12/16/2021	12:55	-132.002	47.187	0	55.00	0	9.4570	0	32.2940	0	24.929	0	54.535	0	263.1	4	92.8	4	-1E+10	1	-1E+10	1	-1E+10	1	-1E+10	1	-1E+10	1	-1E+10	1
4902549	49	C	12/16/2021	12:55	-132.002	47.187	0	56.20	0	9.4570	0	32.2940	0	24.929	0	55.725	0	262.9	4	92.8	4	-1E+10	1	-1E+10	1	-1E+10	1	-1E+10	1	-1E+10	1	-1E+10	1
4902549	49	C	12/16/2021	12:55	-132.002	47.187	0	56.90	0	9.4580	0	32.2940	0	24.929	0	56.419	0	262.9	4	92.8	4	-1E+10	1	-1E+10	1	-1E+10	1	-1E+10	1	-1E+10	1	-1E+10	1
4902549	49	C	12/16/2021	12:55	-132.002	47.187	0	57.80	0	9.4580	0	32.2940	0	24.929	0	57.311	0	262.9	4	92.8	4	-1E+10	1	-1E+10	1	-1E+10	1	-1E+10	1	-1E+10	1	-1E+10	1
4902549	49	C	12/16/2021	12:55	-132.002	47.187	0	58.90	0	9.4580	0	32.2940	0	24.929	0	58.402	0	262.7	4	92.7	4	-1E+10	1	-1E+10	1	-1E+10	1	-1E+10	1	-1E+10	1	-1E+10	1
4902549	49	C	12/16/2021	12:55	-132.002	47.187	0	60.10	0	9.4580	0	32.2940	0	24.929	0	59.591	0	262.7	4	92.7	4	-1E+10	1	-1E+10	1	-1E+10	1	-1E+10	1	-1E+10	1	-1E+10	1
4902549	49	C	12/16/2021	12:55	-132.002	47.187	0	60.90	0	9.4580	0	32.2940	0	24.929	0	60.385	0	262.6	4	92.7	4	-1E+10	1	-1E+10	1	-1E+10	1	-1E+10	1	-1E+10	1	-1E+10	1
4902549	49	C	12/16/2021	12:55	-132.002	47.187	0	61.70	0	9.4580	0	32.2940	0	24.929	0	61.178	0	262.5	4	92.7	4	-1E+10	1	-1E+10	1	-1E+10	1	-1E+10	1	-1E+10	1	-1E+10	1
4902549	49	C	12/16/2021	12:55	-132.002	47.187	0	63.00	0	9.4580	0	32.2940	0	24.929	0	62.466	0	262.4	4	92.6	4	-1E+10	1	-1E+10	1	-1E+10	1	-1E+10	1	-1E+10	1	-1E+10	1
4902549	49	C	12/16/2021	12:55	-132.002	47.187	0	64.20	0	9.4590	0	32.2940	0	24.929	0	63.656	0	262.1	4	92.5	4	-1E+10	1	-1E+10	1	-1E+10	1	-1E+10	1	-1E+10	1	-1E+10	1
4902549	49	C	12/16/2021	12:55	-132.002	47.187	0	65.00	0	9.4580	0	32.2940	0	24.929	0	64.449	0	262.1	4	92.5	4	-1E+10	1	-1E+10	1	-1E+10	1	-1E+10	1	-1E+10	1	-1E+10	1
4902549	49	C	12/16/2021	12:55	-132.002	47.187	0	65.80	0	9.4590	0	32.2930	0	24.928	0	65.242	0	261.9	4	92.5	4	-1E+10	1	-1E+10	1	-1E+10	1	-1E+10	1	-1E+10	1	-1E+10	1
4902549	49	C	12/16/2021	12:55	-132.002	47.187	0	67.00	0	9.4580	0	32.2940	0	24.929	0	66.432	0	261.7	4	92.4	4	-1E+10	1	-1E+10	1	-1E+10	1	-1E+10	1	-1E+10	1	-1E+10	1
4902549	49	C	12/16/2021	12:55	-132.002	47.187	0	68.20	0	9.4570	0	32.2950	0	24.930	0	67.622	0	261.5	4	92.3	4	-1E+10	1	-1E+10	1	-1E+10	1	-1E+10	1	-1E+10	1	-1E+10	1
4902549	49	C	12/16/2021	12:55	-132.002	47.187	0	69.00	0	9.4580	0	32.2940	0	24.929	0	68.415	0	261.2	4	92.2	4	-1E+10	1	-1E+10	1	-1E+10	1	-1E+10	1	-1E+10	1	-1E+10	1
4902549	49	C	12/16/2021	12:55	-132.002	47.187	0	69.80	0	9.4570	0	32.2940	0	24.929	0	69.208	0	261.0	4	92.1	4	-1E+10	1	-1E+10	1	-1E+10	1	-1E+10	1	-1E+10	1	-1E+10	1
4902549	49	C	12/16/2021	12:55	-132.002	47.187	0	71.00	0	9.4550	0	32.2940	0	24.930	0	70.397	0	260.5	4	92.0	4	-1E+10	1	-1E+10	1	-1E+10	1	-1E+10	1	-1E+10	1	-1E+10	1
4902549	49	C	12/16/2021	12:55	-132.002	47.187	0	72.20	0	9.4560	0	32.2930	0	24.929	0	71.587	0	260.1	4	91.8	4	-1E+10	1	-1E+10	1	-1E+10	1	-1E+10	1	-1E+10	1	-1E+10	1
4902549	49	C	12/16/2021	12:55	-132.002	47.187	0	72.90	0	9.4570	0	32.2930	0	24.929	0	72.281	0	259.7	4	91.7	4	-1E+10	1	-1E+10	1	-1E+10	1	-1E+10	1	-1E+10	1	-1E+10	1
4902549	49	C	12/16/2021	12:55	-132.002	47.187	0	73.90	0	9.4550	0	32.2920	0	24.928	0	73.272	0	259.0	4	91.4	4	-1E+10	1	-1E+10	1	-1E+10	1	-1E+10	1	-1E+10	1	-1E+10	1
4902549	49	C	12/16/2021	12:55	-132.002	47.187	0	75.10	0	9.4010	0	32.2990	0	24.942	0	74.462	0	258.4	4	91.1	4	-1E+10	1	-1E+10	1	-1E+10	1	-1E+10	1	-1E+10	1	-1E+10	1
4902549	49	C	12/16/2021	12:55	-132.002	47.187	0	76.40	0	9.2810	0	32.3210	0	24.979	0	75.751	0	257.9	4	90.7	4	-1E+10	1	-1E+10	1	-1E+10	1	-1E+10	1	-1E+10	1	-1E+10	1
4902549	49	C	12/16/2021	12:55	-132.002	47.187	0	77.20	0	9.2470	0	32.3200	0	24.983	0	76.544	0	257.3	4	90.4	4	-1E+10	1	-1E+10	1	-1E+10	1	-1E+10	1	-1E+10	1	-1E+10	1
4902549	49	C	12/16/2021	12:55	-132.002	47.187	0	78.10	0	9.1780	0	32.3290	0	25.001	0	77.436	0	256.3	4	89.9	4	-1E+10	1	-1E+10	1	-1E+10	1	-1E+10	1	-1E+10	1	-1E+10	1
4902549	49	C	12/16/2021	12:55	-132.002	47.187	0	79.10	0	8.7180	0	32.3750	0	25.108	0	78.427	0	255.2	4	88.7	4	-1E+10	1	-1E+10	1	-1E+10	1	-1E+10	1	-1E+10	1	-1E+10	1
4902549	49	C	12/16/2021	12:55	-132.002	47.187	0	80.00	0	7.9820	0	32.4410	0	25.269	0	79.319	0	256.1	4	87.6	4	-1E+10	1	-1E+10	1	-1E+10	1	-1E+10	1	-1E+10	1	-1E+10	1
4902549	49	C	12/16/2021	12:55	-132.002	47.187	0	80.90	0	7.6140	0	32.4580	0	25.334	0	80.211	0	256.7	4	87.1	4	-1E+10	1	-1E+10	1	-1E+10	1	-1E+10	1	-1E+10	1	-1E+10	1
4902549	49	C	12/16/2021	12:55	-132.002	47.187	0	82.00	0	7.3420	0	32.4540	0	25.369	0	81.302	0	256.6	4	86.5	4	-1E+10	1	-1E+10	1	-1E+10	1	-1E+10	1	-1E+10	1	-1E+10	1
4902549	49	C	12/16/2021	12:55	-132.002	47.187	0	83.10	0	7.2730	0	32.4680	0	25.389	0	82.392	0	261.9	4	88.1	4	-1E+10	1	-1E+10	1	-1E+10	1	-1E+10	1	-1E+10	1	-1E+10	1
4902549	49	C	12/16/2021	12:55	-132.002	47.187	0	84.10	0	7.2970	0	32.4760	0	25.392	0	83.384	0	260.5	4	87.7	4	-1E+10	1	-1E+10	1	-1E+10	1	-1E+10	1	-1E+10	1	-1E+10	1
4902549	49	C	12/16/2021	12:55	-132.002	47.187	0	85.30	0	7.3220	0	32.4930	0	25.402	0	84.573	0	258.8	4	87.2	4	-1E+10	1	-1E+10	1	-1E+10	1	-1E+10	1	-1E+10	1	-1E+10	1
4902549	49	C	12/16/2021	12:55	-132.002	47.187	0	86.00	0	7.3210	0	32.4940	0	25.403	0	85.267	0	257.7	4	86.8	4	-1E+10	1	-1E+10	1	-1E+10	1	-1E+10	1	-1E+10	1	-1E+10	1
4902549	49	C	12/16/2021	12:55	-132.002	47.187	0	87.00	0	7.3200	0	32.5010	0	25.409	0	86.258	0	255.9	4	86.2	4	-1E+10	1	-1E+10	1	-1E+10	1	-1E+10	1	-1E+10	1	-1E+10	1
4902549	49	C	12/16/2021	12:55	-132.002	47.187	0	88.10	0	7.3310	0	32.5230	0	25.425	0	87.349	0	254.0	4	85.6	4	-1E+10	1	-1E+10	1	-1E+10	1	-1E+10	1	-1E+10	1	-1E+10	1
4902549	49	C	12/16/2021	12:55	-132.002	47.187	0	89.00	0	7.3380	0	32.5310	0	25.430	0	88.241	0	252.8	4	85.3	4	-1E+10	1	-1E+10	1	-1E+10	1	-1E+10	1	-1E+10	1	-1E+10	1
4902549	49	C	12/16/2021	12:55	-132.002	47.187	0	89.80	0	7.3510	0	32.5430	0	25.438	0	89.034	0	251.6	4	84.9	4	-1E+10	1	-1E+10	1	-1E+10	1	-1E+10	1	-1E+10	1	-1E+10	1
4902549	49	C	12/16/2021	12:55	-132.002	47.187	0	91.00	0	7.3920	0	32.5640	0	25.448	0	90.223	0	250.3	4	84.5	4	-1E+10	1	-1E+10	1	-1E+10	1	-1E+10	1	-1E+10	1	-1E+10	1
4902549	49	C	12/16/2021	12:55	-132.002	47.187	0	92.10	0	7.4200	0	32.5790	0	25.456	0	91.314	0	249.2	4	84.2	4	-1E+10	1	-1E+10	1	-1E+10	1	-1E+10	1	-1E+10	1	-1E+10	1
4902549	49	C	12/16/2021	12:55	-132.002	47.187	0	93.00	0	7.4080	0	32.5850	0	25.463	0	92.206	0	248.6	4	84.0	4	-1E+10	1	-1E+10	1	-1E+10	1	-1E+10	1	-1E+10	1	-1E+10	1
4902549	49	C	12/16/2021	12:55	-132.002	47.187	0	93.80	0	7.4010	0	32.5880	0	25.466	0	92.999	0	247.9	4	83.8	4	-1E+10	1	-1E+10	1	-1E+10	1	-1E+10	1	-1E+10	1	-1E+10	1
4902549	49	C	12/16/2021	12:55	-132.002	47.187	0	94.90	0	7.3910	0	32.5930	0	25.471	0	94.089	0	247.0	4	83.5	4	-1E+10	1	-1E+10	1	-1E+10	1	-1E+10	1	-1E+10	1	-1E+10	1
4902549	49	C	12/16/2021	12:55	-132.002	47.187	0	96.00	0	7.3880	0	32.6030	0	25.480	0	95.179	0	246.3	4	83.2	4	-1E+10	1	-1E+10	1	-1E+10	1	-1E+10	1	-1E+10	1	-1E+10	1
4902549	49	C	12/16/2021	12:55	-132.002	47.187	0	96.90	0	7.3850	0	32.6090	0	25.485	0	96.071	0	245.6	4	83.0	4	-1E+10	1	-1E+10	1	-1E+10	1	-1E+10	1	-1E+10	1	-1E+10	1
4902549	49	C	12/16/2021	12:55	-132.002	47.187	0	97.70	0	7.3810	0	32.6130	0	25.489	0	96.864	0	244.9	4	82.7	4	-1E+10	1	-1E+10	1	-1E+10	1	-1E+10	1	-1E+10	1	-1E+10	1
4902549	49	C	12/16/2021	12:55	-132.002	47.187	0	98.90	0	7.3860	0	32.6250	0	25.497	0	98.054	0	244.1	4	82.5	4	-1E+10	1	-1E+10	1	-1E+10	1	-1E+10	1	-1E+10	1	-1E+10	1
4902549	49	C	12/16/2021	12:55	-132.002	47.187	0	100.00	0	7.3510	0	32.6470	0	25.519	0	99.144	0	243.4	4	82.2	4	-1E+10	1	-1E+10	1	-1E+10	1	-1E+10	1	-1E+10	1	-1E+10	1
4902549	49	C	12/16/2021	12:55	-132.002	47.187	0	101.10	0	7.2900	0	32.6720	0	25.548	0	100.235	0	243.0	4	82.0	4	-1E+10	1	-1E+10	1	-1E+10	1	-1E+10	1	-1E+10	1	-1E+10	1
4902549	49	C	12/16/2021	12:55	-132.002	47.187	0	102.00	0	7.2850	0	32.6800	0	25.554	0	101.127	0	242.6	4	81.8	4	-1E+10	1	-1E+10	1	-1E+10	1	-1E+10	1	-1E+10	1	-1E+10	1
4902549	49	C	12/16/2021	12:55	-132.002	47.187	0	102.70	0	7.2860	0	32.6800	0	25.554	0	101.820	0	242.1	4	81.6	4	-1E+10	1	-1E+10	1	-1E+10	1	-1E+10	1	-1E+10	1	-1E+10	1
4902549	49	C	12/16/2021	12:55	-132.002	47.187	0	103.90	0	7.2850	0	32.6840	0	25.558	0	103.010	0	241.1	4	81.3	4	-1E+10	1	-1E+10	1	-1E+10	1	-1E+10	1	-1E+10	1	-1E+10	1
4902549	49	C	12/16/2021	12:55	-132.002	47.187	0	105.00	0	7.2830	0	32.6940	0	25.566	0	104.100	0	239.8	4	80.9	4	-1E+10	1	-1E+10	1	-1E+10	1	-1E+10	1	-1E+10	1	-1E+10	1
4902549	49	C	12/16/2021	12:55	-132.002	47.187	0	106.00	0	7.2830	0	32.7100	0	25.578	0	105.091	0	238.9	4	80.6	4	-1E+10	1	-1E+10	1	-1E+10	1	-1E+10	1	-1E+10	1	-1E+10	1
4902549	49	C	12/16/2021	12:55	-132.002	47.187	0	106.90	0	7.2720	0	32.7210	0	25.589	0	105.983	0	238.0	4	80.2	4	-1E+10	1	-1E+10	1	-1E+10	1	-1E+10	1	-1E+10	1	-1E+10	1
4902549	49	C	12/16/2021	12:55	-132.002	47.187	0	108.00	0	7.2530	0	32.7300	0	25.598	0	107.074	0	237.1	4	79.9	4	-1E+10	1	-1E+10	1	-1E+10	1	-1E+10	1	-1E+10	1	-1E+10	1
4902549	49	C	12/16/2021	12:55	-132.002	47.187	0	109.10	0	7.2240	0	32.7420	0	25.612	0	108.164	0	235.7	4	79.4	4	-1E+10	1	-1E+10	1	-1E+10	1	-1E+10	1	-1E+10	1	-1E+10	1
4902549	49	C	12/16/2021	12:55	-132.002	47.187	0	110.20	0	7.2190	0	32.7610	0	25.627	0	109.254	0	234.4	4	79.0	4	-1E+10	1	-1E+10	1	-1E+10	1	-1E+10	1	-1E+10	1	-1E+10	1
4902549	49	C	12/16/2021	12:55	-132.002	47.187	0	110.90	0	7.2040	0	32.7860	0	25.649	0	109.948	0	233.5	4	78.7	4	-1E+10	1	-1E+10	1	-1E+10	1	-1E+10	1	-1E+10	1	-1E+10	1
4902549	49	C	12/16/2021	12:55	-132.002	47.187	0	112.10	0	7.1930	0	32.7910	0	25.654	0	111.137	0	231.8	4	78.1	4	-1E+10	1	-1E+10	1	-1E+10	1	-1E+10	1	-1E+10	1	-1E+10	1
4902549	49	C	12/16/2021	12:55	-132.002	47.187	0	113.10	0	7.1800	0	32.8170	0	25.677	0	112.129	0	230.3	4	77.5	4	-1E+10	1	-1E+10	1	-1E+10	1	-1E+10	1	-1E+10	1	-1E+10	1
4902549	49	C	12/16/2021	12:55	-132.002	47.187	0	114.10	0	7.1680	0	32.8490	0	25.704	0	113.120	0	228.7	4	77.0	4	-1E+10	1	-1E+10	1	-1E+10	1	-1E+10	1	-1E+10	1	-1E+10	1
4902549	49	C	12/16/2021	12:55	-132.002	47.187	0	114.90	0	7.1640	0	32.8640	0	25.716	0	113.913	0	227.4	4	76.6	4	-1E+10	1	-1E+10	1	-1E+10	1	-1E+10	1	-1E+10	1	-1E+10	1
4902549	49	C	12/16/2021	12:55	-132.002	47.187	0	115.70	0	7.1520	0	32.9120	0	25.755	0	114.706	0	226.4	4	76.3	4	-1E+10	1	-1E+10	1	-1E+10	1	-1E+10	1	-1E+10	1	-1E+10	1
4902549	49	C	12/16/2021	12:55	-132.002	47.187	0	116.80	0	7.1510	0	32.9270	0	25.767	0	115.796	0	225.0	4	75.8	4	-1E+10	1	-1E+10	1	-1E+10	1	-1E+10	1	-1E+10	1	-1E+10	1
4902549	49	C	12/16/2021	12:55	-132.002	47.187	0	117.80	0	7.1500	0	32.9310	0	25.771	0	116.787	0	223.4	4	75.2	4	-1E+10	1	-1E+10	1	-1E+10	1	-1E+10	1	-1E+10	1	-1E+10	1
4902549	49	C	12/16/2021	12:55	-132.002	47.187	0	118.90	0	7.1500	0	32.9380	0	25.776	0	117.877	0	221.3	4	74.6	4	-1E+10	1	-1E+10	1	-1E+10	1	-1E+10	1	-1E+10	1	-1E+10	1
4902549	49	C	12/16/2021	12:55	-132.002	47.187	0	119.90	0	7.1470	0	32.9560	0	25.791	0	118.868	0	219.0	4	73.8	4	-1E+10	1	-1E+10	1	-1E+10	1	-1E+10	1	-1E+10	1	-1E+10	1
4902549	49	C	12/16/2021	12:55	-132.002	47.187	0	121.00	0	7.1700	0	32.9980	0	25.821	0	119.958	0	216.2	4	72.9	4	-1E+10	1	-1E+10	1	-1E+10	1	-1E+10	1	-1E+10	1	-1E+10	1
4902549	49	C	12/16/2021	12:55	-132.002	47.187	0	121.90	0	7.1930	0	33.0250	0	25.839	0	120.850	0	214.6	4	72.4	4	-1E+10	1	-1E+10	1	-1E+10	1	-1E+10	1	-1E+10	1	-1E+10	1
4902549	49	C	12/16/2021	12:55	-132.002	47.187	0	122.80	0	7.2230	0	33.0750	0	25.874	0	121.742	0	213.2	4	72.0	4	-1E+10	1	-1E+10	1	-1E+10	1	-1E+10	1	-1E+10	1	-1E+10	1
4902549	49	C	12/16/2021	12:55	-132.002	47.187	0	124.10	0	7.2460	0	33.1080	0	25.897	0	123.031	0	211.3	4	71.4	4	-1E+10	1	-1E+10	1	-1E+10	1	-1E+10	1	-1E+10	1	-1E+10	1
4902549	49	C	12/16/2021	12:55	-132.002	47.187	0	125.00	0	7.2620	0	33.1290	0	25.911	0	123.923	0	209.9	4	71.0	4	-1E+10	1	-1E+10	1	-1E+10	1	-1E+10	1	-1E+10	1	-1E+10	1
4902549	49	C	12/16/2021	12:55	-132.002	47.187	0	125.90	0	7.2670	0	33.1360	0	25.916	0	124.815	0	208.3	4	70.5	4	-1E+10	1	-1E+10	1	-1E+10	1	-1E+10	1	-1E+10	1	-1E+10	1
4902549	49	C	12/16/2021	12:55	-132.002	47.187	0	126.80	0	7.2720	0	33.1420	0	25.920	0	125.707	0	206.6	4	69.9	4	-1E+10	1	-1E+10	1	-1E+10	1	-1E+10	1	-1E+10	1	-1E+10	1
4902549	49	C	12/16/2021	12:55	-132.002	47.187	0	127.80	0	7.3010	0	33.1860	0	25.951	0	126.698	0	205.1	4	69.4	4	-1E+10	1	-1E+10	1	-1E+10	1	-1E+10	1	-1E+10	1	-1E+10	1
4902549	49	C	12/16/2021	12:55	-132.002	47.187	0	129.00	0	7.3260	0	33.2120	0	25.968	0	127.887	0	203.1	4	68.8	4	-1E+10	1	-1E+10	1	-1E+10	1	-1E+10	1	-1E+10	1	-1E+10	1
4902549	49	C	12/16/2021	12:55	-132.002	47.187	0	130.00	0	7.3310	0	33.2250	0	25.977	0	128.878	0	201.6	4	68.3	4	-1E+10	1	-1E+10	1	-1E+10	1	-1E+10	1	-1E+10	1	-1E+10	1
4902549	49	C	12/16/2021	12:55	-132.002	47.187	0	131.00	0	7.3160	0	33.2630	0	26.009	0	129.869	0	200.3	4	67.9	4	-1E+10	1	-1E+10	1	-1E+10	1	-1E+10	1	-1E+10	1	-1E+10	1
4902549	49	C	12/16/2021	12:55	-132.002	47.187	0	132.10	0	7.3280	0	33.3070	0	26.042	0	130.959	0	198.9	4	67.4	4	-1E+10	1	-1E+10	1	-1E+10	1	-1E+10	1	-1E+10	1	-1E+10	1
4902549	49	C	12/16/2021	12:55	-132.002	47.187	0	132.80	0	7.3380	0	33.3600	0	26.083	0	131.653	0	198.2	4	67.2	4	-1E+10	1	-1E+10	1	-1E+10	1	-1E+10	1	-1E+10	1	-1E+10	1
4902549	49	C	12/16/2021	12:55	-132.002	47.187	0	133.90	0	7.3560	0	33.3930	0	26.106	0	132.743	0	197.6	4	67.1	4	-1E+10	1	-1E+10	1	-1E+10	1	-1E+10	1	-1E+10	1	-1E+10	1
4902549	49	C	12/16/2021	12:55	-132.002	47.187	0	135.10	0	7.3620	0	33.4040	0	26.114	0	133.932	0	197.1	4	66.9	4	-1E+10	1	-1E+10	1	-1E+10	1	-1E+10	1	-1E+10	1	-1E+10	1
4902549	49	C	12/16/2021	12:55	-132.002	47.187	0	135.90	0	7.3820	0	33.4330	0	26.134	0	134.725	0	197.0	4	66.9	4	-1E+10	1	-1E+10	1	-1E+10	1	-1E+10	1	-1E+10	1	-1E+10	1
4902549	49	C	12/16/2021	12:55	-132.002	47.187	0	136.70	0	7.3700	0	33.4360	0	26.138	0	135.518	0	196.8	4	66.9	4	-1E+10	1	-1E+10	1	-1E+10	1	-1E+10	1	-1E+10	1	-1E+10	1
4902549	49	C	12/16/2021	12:55	-132.002	47.187	0	137.80	0	7.3550	0	33.4410	0	26.144	0	136.608	0	196.4	4	66.7	4	-1E+10	1	-1E+10	1	-1E+10	1	-1E+10	1	-1E+10	1	-1E+10	1
4902549	49	C	12/16/2021	12:55	-132.002	47.187	0	139.00	0	7.3540	0	33.4450	0	26.147	0	137.797	0	195.9	4	66.5	4	-1E+10	1	-1E+10	1	-1E+10	1	-1E+10	1	-1E+10	1	-1E+10	1
4902549	49	C	12/16/2021	12:55	-132.002	47.187	0	139.80	0	7.3500	0	33.4530	0	26.154	0	138.590	0	195.6	4	66.4	4	-1E+10	1	-1E+10	1	-1E+10	1	-1E+10	1	-1E+10	1	-1E+10	1
4902549	49	C	12/16/2021	12:55	-132.002	47.187	0	141.00	0	7.3370	0	33.4650	0	26.165	0	139.779	0	195.0	4	66.2	4	-1E+10	1	-1E+10	1	-1E+10	1	-1E+10	1	-1E+10	1	-1E+10	1
4902549	49	C	12/16/2021	12:55	-132.002	47.187	0	142.10	0	7.3300	0	33.4670	0	26.168	0	140.870	0	194.3	4	66.0	4	-1E+10	1	-1E+10	1	-1E+10	1	-1E+10	1	-1E+10	1	-1E+10	1
4902549	49	C	12/16/2021	12:55	-132.002	47.187	0	142.90	0	7.3260	0	33.4810	0	26.180	0	141.662	0	193.9	4	65.8	4	-1E+10	1	-1E+10	1	-1E+10	1	-1E+10	1	-1E+10	1	-1E+10	1
4902549	49	C	12/16/2021	12:55	-132.002	47.187	0	144.00	0	7.3340	0	33.4900	0	26.185	0	142.752	0	193.3	4	65.6	4	-1E+10	1	-1E+10	1	-1E+10	1	-1E+10	1	-1E+10	1	-1E+10	1
4902549	49	C	12/16/2021	12:55	-132.002	47.187	0	145.30	0	7.3290	0	33.5260	0	26.215	0	144.041	0	192.7	4	65.5	4	-1E+10	1	-1E+10	1	-1E+10	1	-1E+10	1	-1E+10	1	-1E+10	1
4902549	49	C	12/16/2021	12:55	-132.002	47.187	0	146.10	0	7.3100	0	33.5380	0	26.227	0	144.834	0	192.5	4	65.4	4	-1E+10	1	-1E+10	1	-1E+10	1	-1E+10	1	-1E+10	1	-1E+10	1
4902549	49	C	12/16/2021	12:55	-132.002	47.187	0	147.00	0	7.3010	0	33.5460	0	26.234	0	145.725	0	192.2	4	65.2	4	-1E+10	1	-1E+10	1	-1E+10	1	-1E+10	1	-1E+10	1	-1E+10	1
4902549	49	C	12/16/2021	12:55	-132.002	47.187	0	147.90	0	7.2860	0	33.5490	0	26.239	0	146.617	0	191.8	4	65.1	4	-1E+10	1	-1E+10	1	-1E+10	1	-1E+10	1	-1E+10	1	-1E+10	1
4902549	49	C	12/16/2021	12:55	-132.002	47.187	0	148.80	0	7.2750	0	33.5560	0	26.246	0	147.509	0	191.5	4	65.0	4	-1E+10	1	-1E+10	1	-1E+10	1	-1E+10	1	-1E+10	1	-1E+10	1
4902549	49	C	12/16/2021	12:55	-132.002	47.187	0	149.70	0	7.2660	0	33.5610	0	26.251	0	148.401	0	191.1	4	64.8	4	-1E+10	1	-1E+10	1	-1E+10	1	-1E+10	1	-1E+10	1	-1E+10	1
4902549	49	C	12/16/2021	12:55	-132.002	47.187	0	150.90	0	7.2570	0	33.5670	0	26.257	0	149.590	0	190.4	4	64.6	4	-1E+10	1	-1E+10	1	-1E+10	1	-1E+10	1	-1E+10	1	-1E+10	1
4902549	49	C	12/16/2021	12:55	-132.002	47.187	0	152.40	0	7.2680	0	33.5780	0	26.264	0	151.077	0	189.7	4	64.4	4	-1E+10	1	-1E+10	1	-1E+10	1	-1E+10	1	-1E+10	1	-1E+10	1
4902549	49	C	12/16/2021	12:55	-132.002	47.187	0	153.30	0	7.2620	0	33.5920	0	26.276	0	151.968	0	189.2	4	64.2	4	-1E+10	1	-1E+10	1	-1E+10	1	-1E+10	1	-1E+10	1	-1E+10	1
4902549	49	C	12/16/2021	12:55	-132.002	47.187	0	154.10	0	7.2550	0	33.5940	0	26.278	0	152.761	0	188.7	4	64.0	4	-1E+10	1	-1E+10	1	-1E+10	1	-1E+10	1	-1E+10	1	-1E+10	1
4902549	49	C	12/16/2021	12:55	-132.002	47.187	0	155.00	0	7.2540	0	33.5950	0	26.279	0	153.653	0	188.1	4	63.8	4	-1E+10	1	-1E+10	1	-1E+10	1	-1E+10	1	-1E+10	1	-1E+10	1
4902549	49	C	12/16/2021	12:55	-132.002	47.187	0	155.90	0	7.2560	0	33.5990	0	26.282	0	154.545	0	187.4	4	63.6	4	-1E+10	1	-1E+10	1	-1E+10	1	-1E+10	1	-1E+10	1	-1E+10	1
4902549	49	C	12/16/2021	12:55	-132.002	47.187	0	156.80	0	7.2790	0	33.6400	0	26.311	0	155.437	0	186.8	4	63.4	4	-1E+10	1	-1E+10	1	-1E+10	1	-1E+10	1	-1E+10	1	-1E+10	1
4902549	49	C	12/16/2021	12:55	-132.002	47.187	0	157.70	0	7.2680	0	33.6570	0	26.326	0	156.329	0	186.4	4	63.3	4	-1E+10	1	-1E+10	1	-1E+10	1	-1E+10	1	-1E+10	1	-1E+10	1
4902549	49	C	12/16/2021	12:55	-132.002	47.187	0	158.60	0	7.2610	0	33.6640	0	26.333	0	157.220	0	186.1	4	63.2	4	-1E+10	1	-1E+10	1	-1E+10	1	-1E+10	1	-1E+10	1	-1E+10	1
4902549	49	C	12/16/2021	12:55	-132.002	47.187	0	159.90	0	7.2390	0	33.6790	0	26.348	0	158.509	0	185.6	4	63.0	4	-1E+10	1	-1E+10	1	-1E+10	1	-1E+10	1	-1E+10	1	-1E+10	1
4902549	49	C	12/16/2021	12:55	-132.002	47.187	0	161.40	0	7.2230	0	33.6910	0	26.359	0	159.995	0	185.2	4	62.8	4	-1E+10	1	-1E+10	1	-1E+10	1	-1E+10	1	-1E+10	1	-1E+10	1
4902549	49	C	12/16/2021	12:55	-132.002	47.187	0	162.30	0	7.2290	0	33.6980	0	26.364	0	160.887	0	184.9	4	62.7	4	-1E+10	1	-1E+10	1	-1E+10	1	-1E+10	1	-1E+10	1	-1E+10	1
4902549	49	C	12/16/2021	12:55	-132.002	47.187	0	163.20	0	7.2350	0	33.7020	0	26.366	0	161.779	0	184.7	4	62.7	4	-1E+10	1	-1E+10	1	-1E+10	1	-1E+10	1	-1E+10	1	-1E+10	1
4902549	49	C	12/16/2021	12:55	-132.002	47.187	0	164.10	0	7.2370	0	33.7030	0	26.367	0	162.670	0	184.3	4	62.6	4	-1E+10	1	-1E+10	1	-1E+10	1	-1E+10	1	-1E+10	1	-1E+10	1
4902549	49	C	12/16/2021	12:55	-132.002	47.187	0	165.00	0	7.2380	0	33.7020	0	26.366	0	163.562	0	184.1	4	62.5	4	-1E+10	1	-1E+10	1	-1E+10	1	-1E+10	1	-1E+10	1	-1E+10	1
4902549	49	C	12/16/2021	12:55	-132.002	47.187	0	165.90	0	7.2370	0	33.7040	0	26.368	0	164.454	0	183.8	4	62.4	4	-1E+10	1	-1E+10	1	-1E+10	1	-1E+10	1	-1E+10	1	-1E+10	1
4902549	49	C	12/16/2021	12:55	-132.002	47.187	0	166.80	0	7.2380	0	33.7060	0	26.369	0	165.346	0	183.4	4	62.3	4	-1E+10	1	-1E+10	1	-1E+10	1	-1E+10	1	-1E+10	1	-1E+10	1
4902549	49	C	12/16/2021	12:55	-132.002	47.187	0	167.60	0	7.2290	0	33.7050	0	26.370	0	166.139	0	183.1	4	62.1	4	-1E+10	1	-1E+10	1	-1E+10	1	-1E+10	1	-1E+10	1	-1E+10	1
4902549	49	C	12/16/2021	12:55	-132.002	47.187	0	168.90	0	7.1830	0	33.7210	0	26.389	0	167.427	0	182.8	4	62.0	4	-1E+10	1	-1E+10	1	-1E+10	1	-1E+10	1	-1E+10	1	-1E+10	1
4902549	49	C	12/16/2021	12:55	-132.002	47.187	0	170.30	0	7.1670	0	33.7270	0	26.395	0	168.814	0	182.4	4	61.8	4	-1E+10	1	-1E+10	1	-1E+10	1	-1E+10	1	-1E+10	1	-1E+10	1
4902549	49	C	12/16/2021	12:55	-132.002	47.187	0	171.20	0	7.1640	0	33.7300	0	26.398	0	169.706	0	182.1	4	61.7	4	-1E+10	1	-1E+10	1	-1E+10	1	-1E+10	1	-1E+10	1	-1E+10	1
4902549	49	C	12/16/2021	12:55	-132.002	47.187	0	172.10	0	7.1630	0	33.7320	0	26.400	0	170.597	0	181.8	4	61.6	4	-1E+10	1	-1E+10	1	-1E+10	1	-1E+10	1	-1E+10	1	-1E+10	1
4902549	49	C	12/16/2021	12:55	-132.002	47.187	0	173.00	0	7.1620	0	33.7320	0	26.400	0	171.489	0	181.4	4	61.5	4	-1E+10	1	-1E+10	1	-1E+10	1	-1E+10	1	-1E+10	1	-1E+10	1
4902549	49	C	12/16/2021	12:55	-132.002	47.187	0	173.90	0	7.1600	0	33.7340	0	26.402	0	172.381	0	180.9	4	61.3	4	-1E+10	1	-1E+10	1	-1E+10	1	-1E+10	1	-1E+10	1	-1E+10	1
4902549	49	C	12/16/2021	12:55	-132.002	47.187	0	174.90	0	7.1540	0	33.7360	0	26.404	0	173.372	0	180.5	4	61.2	4	-1E+10	1	-1E+10	1	-1E+10	1	-1E+10	1	-1E+10	1	-1E+10	1
4902549	49	C	12/16/2021	12:55	-132.002	47.187	0	175.80	0	7.1520	0	33.7380	0	26.406	0	174.264	0	180.1	4	61.0	4	-1E+10	1	-1E+10	1	-1E+10	1	-1E+10	1	-1E+10	1	-1E+10	1
4902549	49	C	12/16/2021	12:55	-132.002	47.187	0	176.80	0	7.1480	0	33.7440	0	26.412	0	175.254	0	179.5	4	60.8	4	-1E+10	1	-1E+10	1	-1E+10	1	-1E+10	1	-1E+10	1	-1E+10	1
4902549	49	C	12/16/2021	12:55	-132.002	47.187	0	177.70	0	7.1500	0	33.7460	0	26.413	0	176.146	0	179.1	4	60.7	4	-1E+10	1	-1E+10	1	-1E+10	1	-1E+10	1	-1E+10	1	-1E+10	1
4902549	49	C	12/16/2021	12:55	-132.002	47.187	0	178.70	0	7.1220	0	33.7530	0	26.422	0	177.137	0	178.7	4	60.5	4	-1E+10	1	-1E+10	1	-1E+10	1	-1E+10	1	-1E+10	1	-1E+10	1
4902549	49	C	12/16/2021	12:55	-132.002	47.187	0	179.70	0	7.1110	0	33.7530	0	26.424	0	178.128	0	178.3	4	60.4	4	-1E+10	1	-1E+10	1	-1E+10	1	-1E+10	1	-1E+10	1	-1E+10	1
4902549	49	C	12/16/2021	12:55	-132.002	47.187	0	180.60	0	7.1050	0	33.7550	0	26.426	0	179.020	0	177.8	4	60.2	4	-1E+10	1	-1E+10	1	-1E+10	1	-1E+10	1	-1E+10	1	-1E+10	1
4902549	49	C	12/16/2021	12:55	-132.002	47.187	0	181.60	0	7.1000	0	33.7540	0	26.426	0	180.010	0	177.3	4	60.0	4	-1E+10	1	-1E+10	1	-1E+10	1	-1E+10	1	-1E+10	1	-1E+10	1
4902549	49	C	12/16/2021	12:55	-132.002	47.187	0	182.50	0	7.0650	0	33.7610	0	26.436	0	180.902	0	177.0	4	59.9	4	-1E+10	1	-1E+10	1	-1E+10	1	-1E+10	1	-1E+10	1	-1E+10	1
4902549	49	C	12/16/2021	12:55	-132.002	47.187	0	183.90	0	7.0130	0	33.7650	0	26.447	0	182.289	0	176.7	4	59.7	4	-1E+10	1	-1E+10	1	-1E+10	1	-1E+10	1	-1E+10	1	-1E+10	1
4902549	49	C	12/16/2021	12:55	-132.002	47.187	0	185.40	0	6.9960	0	33.7680	0	26.451	0	183.775	0	176.1	4	59.5	4	-1E+10	1	-1E+10	1	-1E+10	1	-1E+10	1	-1E+10	1	-1E+10	1
4902549	49	C	12/16/2021	12:55	-132.002	47.187	0	186.30	0	6.9910	0	33.7670	0	26.451	0	184.667	0	175.8	4	59.4	4	-1E+10	1	-1E+10	1	-1E+10	1	-1E+10	1	-1E+10	1	-1E+10	1
4902549	49	C	12/16/2021	12:55	-132.002	47.187	0	187.30	0	6.9880	0	33.7680	0	26.452	0	185.658	0	175.5	4	59.2	4	-1E+10	1	-1E+10	1	-1E+10	1	-1E+10	1	-1E+10	1	-1E+10	1
4902549	49	C	12/16/2021	12:55	-132.002	47.187	0	188.20	0	6.9810	0	33.7690	0	26.454	0	186.550	0	175.0	4	59.1	4	-1E+10	1	-1E+10	1	-1E+10	1	-1E+10	1	-1E+10	1	-1E+10	1
4902549	49	C	12/16/2021	12:55	-132.002	47.187	0	189.20	0	6.9740	0	33.7710	0	26.457	0	187.540	0	174.6	4	58.9	4	-1E+10	1	-1E+10	1	-1E+10	1	-1E+10	1	-1E+10	1	-1E+10	1
4902549	49	C	12/16/2021	12:55	-132.002	47.187	0	190.20	0	6.9710	0	33.7720	0	26.458	0	188.531	0	174.2	4	58.8	4	-1E+10	1	-1E+10	1	-1E+10	1	-1E+10	1	-1E+10	1	-1E+10	1
4902549	49	C	12/16/2021	12:55	-132.002	47.187	0	191.10	0	6.9700	0	33.7720	0	26.458	0	189.423	0	173.7	4	58.6	4	-1E+10	1	-1E+10	1	-1E+10	1	-1E+10	1	-1E+10	1	-1E+10	1
4902549	49	C	12/16/2021	12:55	-132.002	47.187	0	192.10	0	6.9660	0	33.7720	0	26.459	0	190.414	0	173.0	4	58.4	4	-1E+10	1	-1E+10	1	-1E+10	1	-1E+10	1	-1E+10	1	-1E+10	1
4902549	49	C	12/16/2021	12:55	-132.002	47.187	0	193.00	0	6.9610	0	33.7720	0	26.459	0	191.305	0	172.4	4	58.2	4	-1E+10	1	-1E+10	1	-1E+10	1	-1E+10	1	-1E+10	1	-1E+10	1
4902549	49	C	12/16/2021	12:55	-132.002	47.187	0	194.00	0	6.9410	0	33.7750	0	26.464	0	192.296	0	171.9	4	58.0	4	-1E+10	1	-1E+10	1	-1E+10	1	-1E+10	1	-1E+10	1	-1E+10	1
4902549	49	C	12/16/2021	12:55	-132.002	47.187	0	194.90	0	6.9290	0	33.7760	0	26.467	0	193.188	0	171.3	4	57.8	4	-1E+10	1	-1E+10	1	-1E+10	1	-1E+10	1	-1E+10	1	-1E+10	1
4902549	49	C	12/16/2021	12:55	-132.002	47.187	0	195.90	0	6.9020	0	33.7780	0	26.472	0	194.178	0	170.7	4	57.5	4	-1E+10	1	-1E+10	1	-1E+10	1	-1E+10	1	-1E+10	1	-1E+10	1
4902549	49	C	12/16/2021	12:55	-132.002	47.187	0	196.80	0	6.8890	0	33.7780	0	26.474	0	195.070	0	170.1	4	57.3	4	-1E+10	1	-1E+10	1	-1E+10	1	-1E+10	1	-1E+10	1	-1E+10	1
4902549	49	C	12/16/2021	12:55	-132.002	47.187	0	197.80	0	6.8840	0	33.7780	0	26.475	0	196.061	0	169.4	4	57.0	4	-1E+10	1	-1E+10	1	-1E+10	1	-1E+10	1	-1E+10	1	-1E+10	1
4902549	49	C	12/16/2021	12:55	-132.002	47.187	0	198.70	0	6.8830	0	33.7800	0	26.476	0	196.953	0	168.6	4	56.8	4	-1E+10	1	-1E+10	1	-1E+10	1	-1E+10	1	-1E+10	1	-1E+10	1
4902549	49	C	12/16/2021	12:55	-132.002	47.187	0	199.60	0	6.8710	0	33.7800	0	26.478	0	197.844	0	167.8	4	56.5	4	-1E+10	1	-1E+10	1	-1E+10	1	-1E+10	1	-1E+10	1	-1E+10	1
4902549	49	C	12/16/2021	12:55	-132.002	47.187	0	200.60	0	6.8170	0	33.7830	0	26.488	0	198.835	0	167.2	4	56.2	4	-1E+10	1	-1E+10	1	-1E+10	1	-1E+10	1	-1E+10	1	-1E+10	1
4902549	49	C	12/16/2021	12:55	-132.002	47.187	0	201.50	0	6.7920	0	33.7840	0	26.492	0	199.727	0	166.6	4	56.0	4	-1E+10	1	-1E+10	1	-1E+10	1	-1E+10	1	-1E+10	1	-1E+10	1
4902549	49	C	12/16/2021	12:55	-132.002	47.187	0	202.90	0	6.7960	0	33.7860	0	26.493	0	201.114	0	165.6	4	55.7	4	-1E+10	1	-1E+10	1	-1E+10	1	-1E+10	1	-1E+10	1	-1E+10	1
4902549	49	C	12/16/2021	12:55	-132.002	47.187	0	204.40	0	6.7970	0	33.7860	0	26.493	0	202.600	0	164.4	4	55.3	4	-1E+10	1	-1E+10	1	-1E+10	1	-1E+10	1	-1E+10	1	-1E+10	1
4902549	49	C	12/16/2021	12:55	-132.002	47.187	0	205.40	0	6.7770	0	33.7890	0	26.498	0	203.590	0	163.5	4	55.0	4	-1E+10	1	-1E+10	1	-1E+10	1	-1E+10	1	-1E+10	1	-1E+10	1
4902549	49	C	12/16/2021	12:55	-132.002	47.187	0	206.30	0	6.7430	0	33.7900	0	26.503	0	204.482	0	162.8	4	54.7	4	-1E+10	1	-1E+10	1	-1E+10	1	-1E+10	1	-1E+10	1	-1E+10	1
4902549	49	C	12/16/2021	12:55	-132.002	47.187	0	207.30	0	6.7170	0	33.7940	0	26.510	0	205.473	0	162.1	4	54.4	4	-1E+10	1	-1E+10	1	-1E+10	1	-1E+10	1	-1E+10	1	-1E+10	1
4902549	49	C	12/16/2021	12:55	-132.002	47.187	0	208.30	0	6.6930	0	33.7930	0	26.512	0	206.463	0	161.6	4	54.2	4	-1E+10	1	-1E+10	1	-1E+10	1	-1E+10	1	-1E+10	1	-1E+10	1
4902549	49	C	12/16/2021	12:55	-132.002	47.187	0	209.20	0	6.6600	0	33.7960	0	26.519	0	207.355	0	161.2	4	54.0	4	-1E+10	1	-1E+10	1	-1E+10	1	-1E+10	1	-1E+10	1	-1E+10	1
4902549	49	C	12/16/2021	12:55	-132.002	47.187	0	210.20	0	6.6240	0	33.7940	0	26.522	0	208.346	0	160.8	4	53.8	4	-1E+10	1	-1E+10	1	-1E+10	1	-1E+10	1	-1E+10	1	-1E+10	1
4902549	49	C	12/16/2021	12:55	-132.002	47.187	0	211.10	0	6.6120	0	33.7940	0	26.524	0	209.237	0	160.3	4	53.7	4	-1E+10	1	-1E+10	1	-1E+10	1	-1E+10	1	-1E+10	1	-1E+10	1
4902549	49	C	12/16/2021	12:55	-132.002	47.187	0	212.10	0	6.6000	0	33.7940	0	26.525	0	210.228	0	159.9	4	53.5	4	-1E+10	1	-1E+10	1	-1E+10	1	-1E+10	1	-1E+10	1	-1E+10	1
4902549	49	C	12/16/2021	12:55	-132.002	47.187	0	213.10	0	6.5780	0	33.7990	0	26.532	0	211.219	0	159.4	4	53.3	4	-1E+10	1	-1E+10	1	-1E+10	1	-1E+10	1	-1E+10	1	-1E+10	1
4902549	49	C	12/16/2021	12:55	-132.002	47.187	0	214.00	0	6.5710	0	33.7960	0	26.531	0	212.110	0	159.1	4	53.2	4	-1E+10	1	-1E+10	1	-1E+10	1	-1E+10	1	-1E+10	1	-1E+10	1
4902549	49	C	12/16/2021	12:55	-132.002	47.187	0	214.90	0	6.5640	0	33.7990	0	26.534	0	213.002	0	158.8	4	53.1	4	-1E+10	1	-1E+10	1	-1E+10	1	-1E+10	1	-1E+10	1	-1E+10	1
4902549	49	C	12/16/2021	12:55	-132.002	47.187	0	215.90	0	6.5640	0	33.7970	0	26.532	0	213.992	0	158.2	4	52.9	4	-1E+10	1	-1E+10	1	-1E+10	1	-1E+10	1	-1E+10	1	-1E+10	1
4902549	49	C	12/16/2021	12:55	-132.002	47.187	0	217.00	0	6.5290	0	33.7970	0	26.537	0	215.082	0	157.8	4	52.7	4	-1E+10	1	-1E+10	1	-1E+10	1	-1E+10	1	-1E+10	1	-1E+10	1
4902549	49	C	12/16/2021	12:55	-132.002	47.187	0	218.20	0	6.4790	0	33.8010	0	26.547	0	216.271	0	157.4	4	52.5	4	-1E+10	1	-1E+10	1	-1E+10	1	-1E+10	1	-1E+10	1	-1E+10	1
4902549	49	C	12/16/2021	12:55	-132.002	47.187	0	218.90	0	6.5180	0	33.8010	0	26.542	0	216.964	0	156.9	4	52.4	4	-1E+10	1	-1E+10	1	-1E+10	1	-1E+10	1	-1E+10	1	-1E+10	1
4902549	49	C	12/16/2021	12:55	-132.002	47.187	0	220.00	0	6.5110	0	33.8010	0	26.542	0	218.054	0	156.3	4	52.2	4	-1E+10	1	-1E+10	1	-1E+10	1	-1E+10	1	-1E+10	1	-1E+10	1
4902549	49	C	12/16/2021	12:55	-132.002	47.187	0	221.20	0	6.5140	0	33.8030	0	26.544	0	219.243	0	155.7	4	52.0	4	-1E+10	1	-1E+10	1	-1E+10	1	-1E+10	1	-1E+10	1	-1E+10	1
4902549	49	C	12/16/2021	12:55	-132.002	47.187	0	221.90	0	6.5080	0	33.8040	0	26.545	0	219.936	0	155.3	4	51.9	4	-1E+10	1	-1E+10	1	-1E+10	1	-1E+10	1	-1E+10	1	-1E+10	1
4902549	49	C	12/16/2021	12:55	-132.002	47.187	0	222.70	0	6.4950	0	33.8020	0	26.545	0	220.729	0	155.0	4	51.7	4	-1E+10	1	-1E+10	1	-1E+10	1	-1E+10	1	-1E+10	1	-1E+10	1
4902549	49	C	12/16/2021	12:55	-132.002	47.187	0	223.90	0	6.4620	0	33.8000	0	26.548	0	221.917	0	154.4	4	51.5	4	-1E+10	1	-1E+10	1	-1E+10	1	-1E+10	1	-1E+10	1	-1E+10	1
4902549	49	C	12/16/2021	12:55	-132.002	47.187	0	225.10	0	6.4310	0	33.7990	0	26.551	0	223.106	0	153.8	4	51.3	4	-1E+10	1	-1E+10	1	-1E+10	1	-1E+10	1	-1E+10	1	-1E+10	1
4902549	49	C	12/16/2021	12:55	-132.002	47.187	0	225.80	0	6.4160	0	33.8000	0	26.554	0	223.800	0	153.4	4	51.1	4	-1E+10	1	-1E+10	1	-1E+10	1	-1E+10	1	-1E+10	1	-1E+10	1
4902549	49	C	12/16/2021	12:55	-132.002	47.187	0	226.70	0	6.4190	0	33.8040	0	26.557	0	224.691	0	152.9	4	51.0	4	-1E+10	1	-1E+10	1	-1E+10	1	-1E+10	1	-1E+10	1	-1E+10	1
4902549	49	C	12/16/2021	12:55	-132.002	47.187	0	227.90	0	6.4130	0	33.8040	0	26.558	0	225.880	0	152.3	4	50.8	4	-1E+10	1	-1E+10	1	-1E+10	1	-1E+10	1	-1E+10	1	-1E+10	1
4902549	49	C	12/16/2021	12:55	-132.002	47.187	0	229.10	0	6.4100	0	33.8040	0	26.558	0	227.069	0	151.5	4	50.5	4	-1E+10	1	-1E+10	1	-1E+10	1	-1E+10	1	-1E+10	1	-1E+10	1
4902549	49	C	12/16/2021	12:55	-132.002	47.187	0	229.90	0	6.4080	0	33.8030	0	26.558	0	227.861	0	150.9	4	50.3	4	-1E+10	1	-1E+10	1	-1E+10	1	-1E+10	1	-1E+10	1	-1E+10	1
4902549	49	C	12/16/2021	12:55	-132.002	47.187	0	230.80	0	6.3970	0	33.8060	0	26.561	0	228.752	0	150.3	4	50.1	4	-1E+10	1	-1E+10	1	-1E+10	1	-1E+10	1	-1E+10	1	-1E+10	1
4902549	49	C	12/16/2021	12:55	-132.002	47.187	0	232.00	0	6.3770	0	33.8030	0	26.562	0	229.941	0	149.5	4	49.8	4	-1E+10	1	-1E+10	1	-1E+10	1	-1E+10	1	-1E+10	1	-1E+10	1
4902549	49	C	12/16/2021	12:55	-132.002	47.187	0	233.30	0	6.2710	0	33.7990	0	26.572	0	231.229	0	149.1	4	49.5	4	-1E+10	1	-1E+10	1	-1E+10	1	-1E+10	1	-1E+10	1	-1E+10	1
4902549	49	C	12/16/2021	12:55	-132.002	47.187	0	234.20	0	6.2750	0	33.8010	0	26.573	0	232.120	0	148.7	4	49.4	4	-1E+10	1	-1E+10	1	-1E+10	1	-1E+10	1	-1E+10	1	-1E+10	1
4902549	49	C	12/16/2021	12:55	-132.002	47.187	0	235.00	0	6.2970	0	33.8100	0	26.577	0	232.913	0	148.3	4	49.3	4	-1E+10	1	-1E+10	1	-1E+10	1	-1E+10	1	-1E+10	1	-1E+10	1
4902549	49	C	12/16/2021	12:55	-132.002	47.187	0	235.90	0	6.2940	0	33.8090	0	26.577	0	233.804	0	147.9	4	49.2	4	-1E+10	1	-1E+10	1	-1E+10	1	-1E+10	1	-1E+10	1	-1E+10	1
4902549	49	C	12/16/2021	12:55	-132.002	47.187	0	236.80	0	6.2720	0	33.8090	0	26.580	0	234.696	0	147.5	4	49.0	4	-1E+10	1	-1E+10	1	-1E+10	1	-1E+10	1	-1E+10	1	-1E+10	1
4902549	49	C	12/16/2021	12:55	-132.002	47.187	0	237.70	0	6.2370	0	33.8020	0	26.579	0	235.587	0	147.2	4	48.8	4	-1E+10	1	-1E+10	1	-1E+10	1	-1E+10	1	-1E+10	1	-1E+10	1
4902549	49	C	12/16/2021	12:55	-132.002	47.187	0	239.00	0	6.2120	0	33.8040	0	26.584	0	236.875	0	146.4	4	48.6	4	-1E+10	1	-1E+10	1	-1E+10	1	-1E+10	1	-1E+10	1	-1E+10	1
4902549	49	C	12/16/2021	12:55	-132.002	47.187	0	240.30	0	6.1880	0	33.8020	0	26.585	0	238.163	0	145.6	4	48.3	4	-1E+10	1	-1E+10	1	-1E+10	1	-1E+10	1	-1E+10	1	-1E+10	1
4902549	49	C	12/16/2021	12:55	-132.002	47.187	0	241.20	0	6.2470	0	33.7860	0	26.565	0	239.054	0	144.9	4	48.1	4	-1E+10	1	-1E+10	1	-1E+10	1	-1E+10	1	-1E+10	1	-1E+10	1
4902549	49	C	12/16/2021	12:55	-132.002	47.187	0	242.10	0	6.2790	0	33.8210	0	26.588	0	239.946	0	144.4	4	48.0	4	-1E+10	1	-1E+10	1	-1E+10	1	-1E+10	1	-1E+10	1	-1E+10	1
4902549	49	C	12/16/2021	12:55	-132.002	47.187	0	243.00	0	6.2730	0	33.8230	0	26.591	0	240.837	0	144.0	4	47.8	4	-1E+10	1	-1E+10	1	-1E+10	1	-1E+10	1	-1E+10	1	-1E+10	1
4902549	49	C	12/16/2021	12:55	-132.002	47.187	0	243.80	0	6.2680	0	33.8230	0	26.591	0	241.630	0	143.6	4	47.7	4	-1E+10	1	-1E+10	1	-1E+10	1	-1E+10	1	-1E+10	1	-1E+10	1
4902549	49	C	12/16/2021	12:55	-132.002	47.187	0	244.70	0	6.2620	0	33.8260	0	26.595	0	242.521	0	143.3	4	47.6	4	-1E+10	1	-1E+10	1	-1E+10	1	-1E+10	1	-1E+10	1	-1E+10	1
4902549	49	C	12/16/2021	12:55	-132.002	47.187	0	245.60	0	6.2450	0	33.8280	0	26.598	0	243.412	0	143.1	4	47.5	4	-1E+10	1	-1E+10	1	-1E+10	1	-1E+10	1	-1E+10	1	-1E+10	1
4902549	49	C	12/16/2021	12:55	-132.002	47.187	0	246.90	0	6.2400	0	33.8290	0	26.600	0	244.700	0	142.7	4	47.4	4	-1E+10	1	-1E+10	1	-1E+10	1	-1E+10	1	-1E+10	1	-1E+10	1
4902549	49	C	12/16/2021	12:55	-132.002	47.187	0	248.30	0	6.2360	0	33.8290	0	26.600	0	246.087	0	142.3	4	47.3	4	-1E+10	1	-1E+10	1	-1E+10	1	-1E+10	1	-1E+10	1	-1E+10	1
4902549	49	C	12/16/2021	12:55	-132.002	47.187	0	249.20	0	6.2330	0	33.8300	0	26.602	0	246.978	0	142.0	4	47.2	4	-1E+10	1	-1E+10	1	-1E+10	1	-1E+10	1	-1E+10	1	-1E+10	1
4902549	49	C	12/16/2021	12:55	-132.002	47.187	0	250.10	0	6.2240	0	33.8310	0	26.603	0	247.870	0	141.8	4	47.1	4	-1E+10	1	-1E+10	1	-1E+10	1	-1E+10	1	-1E+10	1	-1E+10	1
4902549	49	C	12/16/2021	12:55	-132.002	47.187	0	251.00	0	6.2240	0	33.8310	0	26.604	0	248.761	0	141.6	4	47.0	4	-1E+10	1	-1E+10	1	-1E+10	1	-1E+10	1	-1E+10	1	-1E+10	1
4902549	49	C	12/16/2021	12:55	-132.002	47.187	0	251.90	0	6.2200	0	33.8320	0	26.605	0	249.653	0	141.3	4	46.9	4	-1E+10	1	-1E+10	1	-1E+10	1	-1E+10	1	-1E+10	1	-1E+10	1
4902549	49	C	12/16/2021	12:55	-132.002	47.187	0	252.80	0	6.2190	0	33.8330	0	26.606	0	250.544	0	141.1	4	46.8	4	-1E+10	1	-1E+10	1	-1E+10	1	-1E+10	1	-1E+10	1	-1E+10	1
4902549	49	C	12/16/2021	12:55	-132.002	47.187	0	253.70	0	6.2170	0	33.8330	0	26.606	0	251.435	0	140.8	4	46.7	4	-1E+10	1	-1E+10	1	-1E+10	1	-1E+10	1	-1E+10	1	-1E+10	1
4902549	49	C	12/16/2021	12:55	-132.002	47.187	0	254.60	0	6.2180	0	33.8320	0	26.605	0	252.327	0	140.4	4	46.6	4	-1E+10	1	-1E+10	1	-1E+10	1	-1E+10	1	-1E+10	1	-1E+10	1
4902549	49	C	12/16/2021	12:55	-132.002	47.187	0	255.90	0	6.2090	0	33.8330	0	26.607	0	253.614	0	140.0	4	46.4	4	-1E+10	1	-1E+10	1	-1E+10	1	-1E+10	1	-1E+10	1	-1E+10	1
4902549	49	C	12/16/2021	12:55	-132.002	47.187	0	257.30	0	6.2020	0	33.8320	0	26.607	0	255.001	0	139.4	4	46.3	4	-1E+10	1	-1E+10	1	-1E+10	1	-1E+10	1	-1E+10	1	-1E+10	1
4902549	49	C	12/16/2021	12:55	-132.002	47.187	0	258.20	0	6.2020	0	33.8330	0	26.608	0	255.892	0	139.0	4	46.1	4	-1E+10	1	-1E+10	1	-1E+10	1	-1E+10	1	-1E+10	1	-1E+10	1
4902549	49	C	12/16/2021	12:55	-132.002	47.187	0	259.10	0	6.2010	0	33.8330	0	26.608	0	256.784	0	138.5	4	45.9	4	-1E+10	1	-1E+10	1	-1E+10	1	-1E+10	1	-1E+10	1	-1E+10	1
4902549	49	C	12/16/2021	12:55	-132.002	47.187	0	260.00	0	6.1970	0	33.8350	0	26.610	0	257.675	0	138.1	4	45.8	4	-1E+10	1	-1E+10	1	-1E+10	1	-1E+10	1	-1E+10	1	-1E+10	1
4902549	49	C	12/16/2021	12:55	-132.002	47.187	0	260.90	0	6.1900	0	33.8330	0	26.610	0	258.567	0	137.6	4	45.6	4	-1E+10	1	-1E+10	1	-1E+10	1	-1E+10	1	-1E+10	1	-1E+10	1
4902549	49	C	12/16/2021	12:55	-132.002	47.187	0	261.70	0	6.1680	0	33.8350	0	26.614	0	259.359	0	137.1	4	45.4	4	-1E+10	1	-1E+10	1	-1E+10	1	-1E+10	1	-1E+10	1	-1E+10	1
4902549	49	C	12/16/2021	12:55	-132.002	47.187	0	262.60	0	6.1490	0	33.8310	0	26.613	0	260.250	0	136.7	4	45.3	4	-1E+10	1	-1E+10	1	-1E+10	1	-1E+10	1	-1E+10	1	-1E+10	1
4902549	49	C	12/16/2021	12:55	-132.002	47.187	0	263.90	0	6.1030	0	33.8300	0	26.618	0	261.538	0	136.0	4	45.0	4	-1E+10	1	-1E+10	1	-1E+10	1	-1E+10	1	-1E+10	1	-1E+10	1
4902549	49	C	12/16/2021	12:55	-132.002	47.187	0	265.20	0	6.0830	0	33.8310	0	26.622	0	262.825	0	135.4	4	44.8	4	-1E+10	1	-1E+10	1	-1E+10	1	-1E+10	1	-1E+10	1	-1E+10	1
4902549	49	C	12/16/2021	12:55	-132.002	47.187	0	266.10	0	6.0680	0	33.8330	0	26.625	0	263.717	0	134.9	4	44.6	4	-1E+10	1	-1E+10	1	-1E+10	1	-1E+10	1	-1E+10	1	-1E+10	1
4902549	49	C	12/16/2021	12:55	-132.002	47.187	0	266.90	0	6.0520	0	33.8330	0	26.627	0	264.509	0	134.6	4	44.5	4	-1E+10	1	-1E+10	1	-1E+10	1	-1E+10	1	-1E+10	1	-1E+10	1
4902549	49	C	12/16/2021	12:55	-132.002	47.187	0	267.80	0	6.0460	0	33.8320	0	26.627	0	265.401	0	134.1	4	44.3	4	-1E+10	1	-1E+10	1	-1E+10	1	-1E+10	1	-1E+10	1	-1E+10	1
4902549	49	C	12/16/2021	12:55	-132.002	47.187	0	268.70	0	6.0210	0	33.8360	0	26.633	0	266.292	0	133.7	4	44.2	4	-1E+10	1	-1E+10	1	-1E+10	1	-1E+10	1	-1E+10	1	-1E+10	1
4902549	49	C	12/16/2021	12:55	-132.002	47.187	0	269.60	0	6.0190	0	33.8330	0	26.631	0	267.183	0	133.4	4	44.1	4	-1E+10	1	-1E+10	1	-1E+10	1	-1E+10	1	-1E+10	1	-1E+10	1
4902549	49	C	12/16/2021	12:55	-132.002	47.187	0	270.90	0	5.9940	0	33.8330	0	26.634	0	268.471	0	132.7	4	43.8	4	-1E+10	1	-1E+10	1	-1E+10	1	-1E+10	1	-1E+10	1	-1E+10	1
4902549	49	C	12/16/2021	12:55	-132.002	47.187	0	272.30	0	5.9760	0	33.8340	0	26.637	0	269.857	0	132.2	4	43.6	4	-1E+10	1	-1E+10	1	-1E+10	1	-1E+10	1	-1E+10	1	-1E+10	1
4902549	49	C	12/16/2021	12:55	-132.002	47.187	0	273.10	0	5.9610	0	33.8340	0	26.639	0	270.650	0	131.8	4	43.5	4	-1E+10	1	-1E+10	1	-1E+10	1	-1E+10	1	-1E+10	1	-1E+10	1
4902549	49	C	12/16/2021	12:55	-132.002	47.187	0	274.00	0	5.9490	0	33.8340	0	26.641	0	271.541	0	131.5	4	43.4	4	-1E+10	1	-1E+10	1	-1E+10	1	-1E+10	1	-1E+10	1	-1E+10	1
4902549	49	C	12/16/2021	12:55	-132.002	47.187	0	274.90	0	5.9430	0	33.8350	0	26.642	0	272.432	0	131.1	4	43.2	4	-1E+10	1	-1E+10	1	-1E+10	1	-1E+10	1	-1E+10	1	-1E+10	1
4902549	49	C	12/16/2021	12:55	-132.002	47.187	0	275.80	0	5.9380	0	33.8350	0	26.643	0	273.324	0	130.6	4	43.1	4	-1E+10	1	-1E+10	1	-1E+10	1	-1E+10	1	-1E+10	1	-1E+10	1
4902549	49	C	12/16/2021	12:55	-132.002	47.187	0	276.70	0	5.9300	0	33.8350	0	26.644	0	274.215	0	130.3	4	42.9	4	-1E+10	1	-1E+10	1	-1E+10	1	-1E+10	1	-1E+10	1	-1E+10	1
4902549	49	C	12/16/2021	12:55	-132.002	47.187	0	277.60	0	5.9220	0	33.8350	0	26.645	0	275.106	0	129.9	4	42.8	4	-1E+10	1	-1E+10	1	-1E+10	1	-1E+10	1	-1E+10	1	-1E+10	1
4902549	49	C	12/16/2021	12:55	-132.002	47.187	0	278.90	0	5.9070	0	33.8350	0	26.647	0	276.394	0	129.1	4	42.6	4	-1E+10	1	-1E+10	1	-1E+10	1	-1E+10	1	-1E+10	1	-1E+10	1
4902549	49	C	12/16/2021	12:55	-132.002	47.187	0	280.30	0	5.8830	0	33.8360	0	26.651	0	277.780	0	128.6	4	42.3	4	-1E+10	1	-1E+10	1	-1E+10	1	-1E+10	1	-1E+10	1	-1E+10	1
4902549	49	C	12/16/2021	12:55	-132.002	47.187	0	281.20	0	5.8700	0	33.8350	0	26.651	0	278.671	0	128.2	4	42.2	4	-1E+10	1	-1E+10	1	-1E+10	1	-1E+10	1	-1E+10	1	-1E+10	1
4902549	49	C	12/16/2021	12:55	-132.002	47.187	0	282.10	0	5.8620	0	33.8360	0	26.653	0	279.563	0	127.7	4	42.0	4	-1E+10	1	-1E+10	1	-1E+10	1	-1E+10	1	-1E+10	1	-1E+10	1
4902549	49	C	12/16/2021	12:55	-132.002	47.187	0	283.00	0	5.8520	0	33.8360	0	26.654	0	280.454	0	127.3	4	41.9	4	-1E+10	1	-1E+10	1	-1E+10	1	-1E+10	1	-1E+10	1	-1E+10	1
4902549	49	C	12/16/2021	12:55	-132.002	47.187	0	283.90	0	5.8430	0	33.8360	0	26.655	0	281.345	0	126.9	4	41.7	4	-1E+10	1	-1E+10	1	-1E+10	1	-1E+10	1	-1E+10	1	-1E+10	1
4902549	49	C	12/16/2021	12:55	-132.002	47.187	0	284.80	0	5.8390	0	33.8360	0	26.656	0	282.237	0	126.4	4	41.6	4	-1E+10	1	-1E+10	1	-1E+10	1	-1E+10	1	-1E+10	1	-1E+10	1
4902549	49	C	12/16/2021	12:55	-132.002	47.187	0	285.70	0	5.8360	0	33.8360	0	26.656	0	283.128	0	125.8	4	41.4	4	-1E+10	1	-1E+10	1	-1E+10	1	-1E+10	1	-1E+10	1	-1E+10	1
4902549	49	C	12/16/2021	12:55	-132.002	47.187	0	287.00	0	5.8000	0	33.8370	0	26.662	0	284.415	0	125.1	4	41.1	4	-1E+10	1	-1E+10	1	-1E+10	1	-1E+10	1	-1E+10	1	-1E+10	1
4902549	49	C	12/16/2021	12:55	-132.002	47.187	0	288.30	0	5.7750	0	33.8380	0	26.665	0	285.703	0	124.5	4	40.9	4	-1E+10	1	-1E+10	1	-1E+10	1	-1E+10	1	-1E+10	1	-1E+10	1
4902549	49	C	12/16/2021	12:55	-132.002	47.187	0	289.20	0	5.7670	0	33.8380	0	26.666	0	286.594	0	124.1	4	40.8	4	-1E+10	1	-1E+10	1	-1E+10	1	-1E+10	1	-1E+10	1	-1E+10	1
4902549	49	C	12/16/2021	12:55	-132.002	47.187	0	290.10	0	5.7640	0	33.8380	0	26.667	0	287.485	0	123.6	4	40.6	4	-1E+10	1	-1E+10	1	-1E+10	1	-1E+10	1	-1E+10	1	-1E+10	1
4902549	49	C	12/16/2021	12:55	-132.002	47.187	0	291.00	0	5.7610	0	33.8370	0	26.666	0	288.377	0	123.1	4	40.4	4	-1E+10	1	-1E+10	1	-1E+10	1	-1E+10	1	-1E+10	1	-1E+10	1
4902549	49	C	12/16/2021	12:55	-132.002	47.187	0	291.90	0	5.7340	0	33.8380	0	26.670	0	289.268	0	122.6	4	40.2	4	-1E+10	1	-1E+10	1	-1E+10	1	-1E+10	1	-1E+10	1	-1E+10	1
4902549	49	C	12/16/2021	12:55	-132.002	47.187	0	292.80	0	5.7030	0	33.8410	0	26.677	0	290.159	0	122.2	4	40.1	4	-1E+10	1	-1E+10	1	-1E+10	1	-1E+10	1	-1E+10	1	-1E+10	1
4902549	49	C	12/16/2021	12:55	-132.002	47.187	0	293.70	0	5.6970	0	33.8400	0	26.677	0	291.050	0	121.9	4	40.0	4	-1E+10	1	-1E+10	1	-1E+10	1	-1E+10	1	-1E+10	1	-1E+10	1
4902549	49	C	12/16/2021	12:55	-132.002	47.187	0	294.60	0	5.6910	0	33.8410	0	26.678	0	291.942	0	121.4	4	39.8	4	-1E+10	1	-1E+10	1	-1E+10	1	-1E+10	1	-1E+10	1	-1E+10	1
4902549	49	C	12/16/2021	12:55	-132.002	47.187	0	295.60	0	5.6860	0	33.8410	0	26.679	0	292.932	0	121.0	4	39.7	4	-1E+10	1	-1E+10	1	-1E+10	1	-1E+10	1	-1E+10	1	-1E+10	1
4902549	49	C	12/16/2021	12:55	-132.002	47.187	0	296.90	0	5.6850	0	33.8430	0	26.680	0	294.219	0	120.3	4	39.4	4	-1E+10	1	-1E+10	1	-1E+10	1	-1E+10	1	-1E+10	1	-1E+10	1
4902549	49	C	12/16/2021	12:55	-132.002	47.187	0	298.30	0	5.6740	0	33.8440	0	26.683	0	295.605	0	119.7	4	39.2	4	-1E+10	1	-1E+10	1	-1E+10	1	-1E+10	1	-1E+10	1	-1E+10	1
4902549	49	C	12/16/2021	12:55	-132.002	47.187	0	299.20	0	5.6670	0	33.8430	0	26.683	0	296.497	0	119.2	4	39.1	4	-1E+10	1	-1E+10	1	-1E+10	1	-1E+10	1	-1E+10	1	-1E+10	1
4902549	49	C	12/16/2021	12:55	-132.002	47.187	0	300.20	0	5.6630	0	33.8430	0	26.683	0	297.487	0	118.7	4	38.9	4	-1E+10	1	-1E+10	1	-1E+10	1	-1E+10	1	-1E+10	1	-1E+10	1
4902549	49	C	12/16/2021	12:55	-132.002	47.187	0	301.10	0	5.6510	0	33.8440	0	26.685	0	298.378	0	118.2	4	38.7	4	-1E+10	1	-1E+10	1	-1E+10	1	-1E+10	1	-1E+10	1	-1E+10	1
4902549	49	C	12/16/2021	12:55	-132.002	47.187	0	302.00	0	5.6380	0	33.8440	0	26.687	0	299.269	0	117.6	4	38.5	4	-1E+10	1	-1E+10	1	-1E+10	1	-1E+10	1	-1E+10	1	-1E+10	1
4902549	49	C	12/16/2021	12:55	-132.002	47.187	0	302.90	0	5.6200	0	33.8460	0	26.691	0	300.161	0	117.2	4	38.4	4	-1E+10	1	-1E+10	1	-1E+10	1	-1E+10	1	-1E+10	1	-1E+10	1
4902549	49	C	12/16/2021	12:55	-132.002	47.187	0	303.90	0	5.6110	0	33.8460	0	26.692	0	301.151	0	116.7	4	38.2	4	-1E+10	1	-1E+10	1	-1E+10	1	-1E+10	1	-1E+10	1	-1E+10	1
4902549	49	C	12/16/2021	12:55	-132.002	47.187	0	304.80	0	5.6090	0	33.8460	0	26.692	0	302.042	0	116.2	4	38.0	4	-1E+10	1	-1E+10	1	-1E+10	1	-1E+10	1	-1E+10	1	-1E+10	1
4902549	49	C	12/16/2021	12:55	-132.002	47.187	0	305.80	0	5.6080	0	33.8470	0	26.693	0	303.032	0	115.6	4	37.8	4	-1E+10	1	-1E+10	1	-1E+10	1	-1E+10	1	-1E+10	1	-1E+10	1
4902549	49	C	12/16/2021	12:55	-132.002	47.187	0	306.70	0	5.5960	0	33.8520	0	26.698	0	303.923	0	115.1	4	37.6	4	-1E+10	1	-1E+10	1	-1E+10	1	-1E+10	1	-1E+10	1	-1E+10	1
4902549	49	C	12/16/2021	12:55	-132.002	47.187	0	307.70	0	5.5870	0	33.8520	0	26.699	0	304.914	0	114.7	4	37.5	4	-1E+10	1	-1E+10	1	-1E+10	1	-1E+10	1	-1E+10	1	-1E+10	1
4902549	49	C	12/16/2021	12:55	-132.002	47.187	0	308.60	0	5.5750	0	33.8520	0	26.701	0	305.805	0	114.2	4	37.4	4	-1E+10	1	-1E+10	1	-1E+10	1	-1E+10	1	-1E+10	1	-1E+10	1
4902549	49	C	12/16/2021	12:55	-132.002	47.187	0	309.60	0	5.5670	0	33.8530	0	26.703	0	306.795	0	113.8	4	37.2	4	-1E+10	1	-1E+10	1	-1E+10	1	-1E+10	1	-1E+10	1	-1E+10	1
4902549	49	C	12/16/2021	12:55	-132.002	47.187	0	310.50	0	5.5550	0	33.8500	0	26.702	0	307.686	0	113.3	4	37.0	4	-1E+10	1	-1E+10	1	-1E+10	1	-1E+10	1	-1E+10	1	-1E+10	1
4902549	49	C	12/16/2021	12:55	-132.002	47.187	0	311.90	0	5.5430	0	33.8510	0	26.704	0	309.072	0	112.6	4	36.8	4	-1E+10	1	-1E+10	1	-1E+10	1	-1E+10	1	-1E+10	1	-1E+10	1
4902549	49	C	12/16/2021	12:55	-132.002	47.187	0	313.40	0	5.5260	0	33.8520	0	26.707	0	310.558	0	111.8	4	36.5	4	-1E+10	1	-1E+10	1	-1E+10	1	-1E+10	1	-1E+10	1	-1E+10	1
4902549	49	C	12/16/2021	12:55	-132.002	47.187	0	314.30	0	5.5140	0	33.8520	0	26.708	0	311.449	0	111.3	4	36.3	4	-1E+10	1	-1E+10	1	-1E+10	1	-1E+10	1	-1E+10	1	-1E+10	1
4902549	49	C	12/16/2021	12:55	-132.002	47.187	0	315.30	0	5.5010	0	33.8510	0	26.709	0	312.439	0	110.7	4	36.1	4	-1E+10	1	-1E+10	1	-1E+10	1	-1E+10	1	-1E+10	1	-1E+10	1
4902549	49	C	12/16/2021	12:55	-132.002	47.187	0	316.30	0	5.4860	0	33.8510	0	26.711	0	313.429	0	110.2	4	35.9	4	-1E+10	1	-1E+10	1	-1E+10	1	-1E+10	1	-1E+10	1	-1E+10	1
4902549	49	C	12/16/2021	12:55	-132.002	47.187	0	317.30	0	5.4800	0	33.8530	0	26.713	0	314.419	0	109.6	4	35.8	4	-1E+10	1	-1E+10	1	-1E+10	1	-1E+10	1	-1E+10	1	-1E+10	1
4902549	49	C	12/16/2021	12:55	-132.002	47.187	0	318.20	0	5.4530	0	33.8590	0	26.721	0	315.311	0	109.1	4	35.6	4	-1E+10	1	-1E+10	1	-1E+10	1	-1E+10	1	-1E+10	1	-1E+10	1
4902549	49	C	12/16/2021	12:55	-132.002	47.187	0	319.20	0	5.4460	0	33.8540	0	26.718	0	316.301	0	108.6	4	35.4	4	-1E+10	1	-1E+10	1	-1E+10	1	-1E+10	1	-1E+10	1	-1E+10	1
4902549	49	C	12/16/2021	12:55	-132.002	47.187	0	320.10	0	5.4290	0	33.8550	0	26.721	0	317.192	0	108.1	4	35.2	4	-1E+10	1	-1E+10	1	-1E+10	1	-1E+10	1	-1E+10	1	-1E+10	1
4902549	49	C	12/16/2021	12:55	-132.002	47.187	0	321.10	0	5.4120	0	33.8540	0	26.722	0	318.182	0	107.6	4	35.0	4	-1E+10	1	-1E+10	1	-1E+10	1	-1E+10	1	-1E+10	1	-1E+10	1
4902549	49	C	12/16/2021	12:55	-132.002	47.187	0	322.10	0	5.4100	0	33.8550	0	26.723	0	319.172	0	107.0	4	34.9	4	-1E+10	1	-1E+10	1	-1E+10	1	-1E+10	1	-1E+10	1	-1E+10	1
4902549	49	C	12/16/2021	12:55	-132.002	47.187	0	323.10	0	5.3990	0	33.8550	0	26.724	0	320.162	0	106.5	4	34.7	4	-1E+10	1	-1E+10	1	-1E+10	1	-1E+10	1	-1E+10	1	-1E+10	1
4902549	49	C	12/16/2021	12:55	-132.002	47.187	0	324.10	0	5.3800	0	33.8560	0	26.727	0	321.152	0	106.0	4	34.5	4	-1E+10	1	-1E+10	1	-1E+10	1	-1E+10	1	-1E+10	1	-1E+10	1
4902549	49	C	12/16/2021	12:55	-132.002	47.187	0	325.00	0	5.3650	0	33.8560	0	26.729	0	322.044	0	105.5	4	34.3	4	-1E+10	1	-1E+10	1	-1E+10	1	-1E+10	1	-1E+10	1	-1E+10	1
4902549	49	C	12/16/2021	12:55	-132.002	47.187	0	326.00	0	5.3540	0	33.8570	0	26.731	0	323.034	0	105.0	4	34.2	4	-1E+10	1	-1E+10	1	-1E+10	1	-1E+10	1	-1E+10	1	-1E+10	1
4902549	49	C	12/16/2021	12:55	-132.002	47.187	0	327.00	0	5.3430	0	33.8560	0	26.732	0	324.024	0	104.5	4	34.0	4	-1E+10	1	-1E+10	1	-1E+10	1	-1E+10	1	-1E+10	1	-1E+10	1
4902549	49	C	12/16/2021	12:55	-132.002	47.187	0	328.00	0	5.3370	0	33.8550	0	26.732	0	325.014	0	103.9	4	33.8	4	-1E+10	1	-1E+10	1	-1E+10	1	-1E+10	1	-1E+10	1	-1E+10	1
4902549	49	C	12/16/2021	12:55	-132.002	47.187	0	329.00	0	5.3060	0	33.8570	0	26.737	0	326.004	0	103.5	4	33.6	4	-1E+10	1	-1E+10	1	-1E+10	1	-1E+10	1	-1E+10	1	-1E+10	1
4902549	49	C	12/16/2021	12:55	-132.002	47.187	0	330.00	0	5.2830	0	33.8570	0	26.740	0	326.994	0	103.1	4	33.5	4	-1E+10	1	-1E+10	1	-1E+10	1	-1E+10	1	-1E+10	1	-1E+10	1
4902549	49	C	12/16/2021	12:55	-132.002	47.187	0	331.00	0	5.2750	0	33.8570	0	26.741	0	327.984	0	102.7	4	33.3	4	-1E+10	1	-1E+10	1	-1E+10	1	-1E+10	1	-1E+10	1	-1E+10	1
4902549	49	C	12/16/2021	12:55	-132.002	47.187	0	332.00	0	5.2650	0	33.8580	0	26.743	0	328.974	0	102.3	4	33.2	4	-1E+10	1	-1E+10	1	-1E+10	1	-1E+10	1	-1E+10	1	-1E+10	1
4902549	49	C	12/16/2021	12:55	-132.002	47.187	0	333.00	0	5.2590	0	33.8580	0	26.743	0	329.964	0	101.9	4	33.1	4	-1E+10	1	-1E+10	1	-1E+10	1	-1E+10	1	-1E+10	1	-1E+10	1
4902549	49	C	12/16/2021	12:55	-132.002	47.187	0	333.90	0	5.2490	0	33.8570	0	26.744	0	330.855	0	101.5	4	32.9	4	-1E+10	1	-1E+10	1	-1E+10	1	-1E+10	1	-1E+10	1	-1E+10	1
4902549	49	C	12/16/2021	12:55	-132.002	47.187	0	335.00	0	5.2440	0	33.8580	0	26.745	0	331.945	0	101.0	4	32.8	4	-1E+10	1	-1E+10	1	-1E+10	1	-1E+10	1	-1E+10	1	-1E+10	1
4902549	49	C	12/16/2021	12:55	-132.002	47.187	0	335.90	0	5.2410	0	33.8580	0	26.745	0	332.836	0	100.6	4	32.6	4	-1E+10	1	-1E+10	1	-1E+10	1	-1E+10	1	-1E+10	1	-1E+10	1
4902549	49	C	12/16/2021	12:55	-132.002	47.187	0	336.90	0	5.2380	0	33.8580	0	26.746	0	333.826	0	100.0	4	32.5	4	-1E+10	1	-1E+10	1	-1E+10	1	-1E+10	1	-1E+10	1	-1E+10	1
4902549	49	C	12/16/2021	12:55	-132.002	47.187	0	337.90	0	5.2310	0	33.8610	0	26.749	0	334.816	0	99.5	4	32.3	4	-1E+10	1	-1E+10	1	-1E+10	1	-1E+10	1	-1E+10	1	-1E+10	1
4902549	49	C	12/16/2021	12:55	-132.002	47.187	0	338.90	0	5.2110	0	33.8600	0	26.750	0	335.806	0	99.0	4	32.1	4	-1E+10	1	-1E+10	1	-1E+10	1	-1E+10	1	-1E+10	1	-1E+10	1
4902549	49	C	12/16/2021	12:55	-132.002	47.187	0	339.90	0	5.2090	0	33.8590	0	26.750	0	336.796	0	98.5	4	31.9	4	-1E+10	1	-1E+10	1	-1E+10	1	-1E+10	1	-1E+10	1	-1E+10	1
4902549	49	C	12/16/2021	12:55	-132.002	47.187	0	340.90	0	5.2090	0	33.8580	0	26.749	0	337.786	0	97.9	4	31.7	4	-1E+10	1	-1E+10	1	-1E+10	1	-1E+10	1	-1E+10	1	-1E+10	1
4902549	49	C	12/16/2021	12:55	-132.002	47.187	0	342.00	0	5.2070	0	33.8600	0	26.751	0	338.875	0	97.2	4	31.5	4	-1E+10	1	-1E+10	1	-1E+10	1	-1E+10	1	-1E+10	1	-1E+10	1
4902549	49	C	12/16/2021	12:55	-132.002	47.187	0	343.00	0	5.1570	0	33.8650	0	26.761	0	339.865	0	96.7	4	31.3	4	-1E+10	1	-1E+10	1	-1E+10	1	-1E+10	1	-1E+10	1	-1E+10	1
4902549	49	C	12/16/2021	12:55	-132.002	47.187	0	344.00	0	5.1400	0	33.8600	0	26.759	0	340.855	0	96.2	4	31.2	4	-1E+10	1	-1E+10	1	-1E+10	1	-1E+10	1	-1E+10	1	-1E+10	1
4902549	49	C	12/16/2021	12:55	-132.002	47.187	0	345.00	0	5.1370	0	33.8610	0	26.760	0	341.845	0	95.6	4	31.0	4	-1E+10	1	-1E+10	1	-1E+10	1	-1E+10	1	-1E+10	1	-1E+10	1
4902549	49	C	12/16/2021	12:55	-132.002	47.187	0	346.00	0	5.1440	0	33.8600	0	26.758	0	342.835	0	95.1	4	30.8	4	-1E+10	1	-1E+10	1	-1E+10	1	-1E+10	1	-1E+10	1	-1E+10	1
4902549	49	C	12/16/2021	12:55	-132.002	47.187	0	347.00	0	5.1080	0	33.8700	0	26.770	0	343.825	0	94.7	4	30.6	4	-1E+10	1	-1E+10	1	-1E+10	1	-1E+10	1	-1E+10	1	-1E+10	1
4902549	49	C	12/16/2021	12:55	-132.002	47.187	0	348.10	0	5.0900	0	33.8650	0	26.768	0	344.914	0	94.4	4	30.5	4	-1E+10	1	-1E+10	1	-1E+10	1	-1E+10	1	-1E+10	1	-1E+10	1
4902549	49	C	12/16/2021	12:55	-132.002	47.187	0	349.10	0	5.0780	0	33.8660	0	26.771	0	345.904	0	94.0	4	30.4	4	-1E+10	1	-1E+10	1	-1E+10	1	-1E+10	1	-1E+10	1	-1E+10	1
4902549	49	C	12/16/2021	12:55	-132.002	47.187	0	350.20	0	5.0730	0	33.8650	0	26.770	0	346.993	0	93.7	4	30.3	4	-1E+10	1	-1E+10	1	-1E+10	1	-1E+10	1	-1E+10	1	-1E+10	1
4902549	49	C	12/16/2021	12:55	-132.002	47.187	0	353.30	0	5.0560	0	33.8670	0	26.774	0	350.062	0	92.4	4	29.9	4	-1E+10	1	-1E+10	1	-1E+10	1	-1E+10	1	-1E+10	1	-1E+10	1
4902549	49	C	12/16/2021	12:55	-132.002	47.187	0	358.00	0	5.0170	0	33.8700	0	26.781	0	354.715	0	90.8	4	29.3	4	-1E+10	1	-1E+10	1	-1E+10	1	-1E+10	1	-1E+10	1	-1E+10	1
4902549	49	C	12/16/2021	12:55	-132.002	47.187	0	362.70	0	4.9990	0	33.8720	0	26.784	0	359.368	0	88.7	4	28.6	4	-1E+10	1	-1E+10	1	-1E+10	1	-1E+10	1	-1E+10	1	-1E+10	1
4902549	49	C	12/16/2021	12:55	-132.002	47.187	0	368.00	0	4.9420	0	33.8770	0	26.795	0	364.615	0	86.6	4	27.9	4	-1E+10	1	-1E+10	1	-1E+10	1	-1E+10	1	-1E+10	1	-1E+10	1
4902549	49	C	12/16/2021	12:55	-132.002	47.187	0	373.30	0	4.9000	0	33.8800	0	26.802	0	369.861	0	85.2	4	27.4	4	-1E+10	1	-1E+10	1	-1E+10	1	-1E+10	1	-1E+10	1	-1E+10	1
4902549	49	C	12/16/2021	12:55	-132.002	47.187	0	378.00	0	4.8840	0	33.8810	0	26.805	0	374.514	0	83.8	4	27.0	4	-1E+10	1	-1E+10	1	-1E+10	1	-1E+10	1	-1E+10	1	-1E+10	1
4902549	49	C	12/16/2021	12:55	-132.002	47.187	0	382.80	0	4.8640	0	33.8840	0	26.809	0	379.265	0	82.3	4	26.5	4	-1E+10	1	-1E+10	1	-1E+10	1	-1E+10	1	-1E+10	1	-1E+10	1
4902549	49	C	12/16/2021	12:55	-132.002	47.187	0	387.90	0	4.8400	0	33.8880	0	26.815	0	384.313	0	80.5	4	25.9	4	-1E+10	1	-1E+10	1	-1E+10	1	-1E+10	1	-1E+10	1	-1E+10	1
4902549	49	C	12/16/2021	12:55	-132.002	47.187	0	393.10	0	4.8110	0	33.8910	0	26.821	0	389.460	0	78.5	4	25.2	4	-1E+10	1	-1E+10	1	-1E+10	1	-1E+10	1	-1E+10	1	-1E+10	1
4902549	49	C	12/16/2021	12:55	-132.002	47.187	0	398.20	0	4.7850	0	33.8940	0	26.826	0	394.508	0	75.7	4	24.3	4	-1E+10	1	-1E+10	1	-1E+10	1	-1E+10	1	-1E+10	1	-1E+10	1
4902549	49	C	12/16/2021	12:55	-132.002	47.187	0	403.30	0	4.7160	0	33.9020	0	26.840	0	399.556	0	73.1	4	23.4	4	-1E+10	1	-1E+10	1	-1E+10	1	-1E+10	1	-1E+10	1	-1E+10	1
4902549	49	C	12/16/2021	12:55	-132.002	47.187	0	408.00	0	4.6930	0	33.9090	0	26.848	0	404.208	0	71.2	4	22.8	4	-1E+10	1	-1E+10	1	-1E+10	1	-1E+10	1	-1E+10	1	-1E+10	1
4902549	49	C	12/16/2021	12:55	-132.002	47.187	0	412.80	0	4.6650	0	33.9170	0	26.858	0	408.958	0	69.4	4	22.2	4	-1E+10	1	-1E+10	1	-1E+10	1	-1E+10	1	-1E+10	1	-1E+10	1
4902549	49	C	12/16/2021	12:55	-132.002	47.187	0	418.00	0	4.6470	0	33.9230	0	26.864	0	414.105	0	67.5	4	21.6	4	-1E+10	1	-1E+10	1	-1E+10	1	-1E+10	1	-1E+10	1	-1E+10	1
4902549	49	C	12/16/2021	12:55	-132.002	47.187	0	423.20	0	4.6040	0	33.9290	0	26.874	0	419.251	0	66.2	4	21.2	4	-1E+10	1	-1E+10	1	-1E+10	1	-1E+10	1	-1E+10	1	-1E+10	1
4902549	49	C	12/16/2021	12:55	-132.002	47.187	0	427.80	0	4.6000	0	33.9340	0	26.878	0	423.803	0	65.2	4	20.8	4	-1E+10	1	-1E+10	1	-1E+10	1	-1E+10	1	-1E+10	1	-1E+10	1
4902549	49	C	12/16/2021	12:55	-132.002	47.187	0	432.50	0	4.5860	0	33.9410	0	26.886	0	428.455	0	64.0	4	20.5	4	-1E+10	1	-1E+10	1	-1E+10	1	-1E+10	1	-1E+10	1	-1E+10	1
4902549	49	C	12/16/2021	12:55	-132.002	47.187	0	437.70	0	4.5670	0	33.9460	0	26.892	0	433.601	0	62.9	4	20.1	4	-1E+10	1	-1E+10	1	-1E+10	1	-1E+10	1	-1E+10	1	-1E+10	1
4902549	49	C	12/16/2021	12:55	-132.002	47.187	0	442.80	0	4.5570	0	33.9490	0	26.895	0	438.647	0	61.6	4	19.7	4	-1E+10	1	-1E+10	1	-1E+10	1	-1E+10	1	-1E+10	1	-1E+10	1
4902549	49	C	12/16/2021	12:55	-132.002	47.187	0	447.80	0	4.5370	0	33.9540	0	26.901	0	443.595	0	60.0	4	19.2	4	-1E+10	1	-1E+10	1	-1E+10	1	-1E+10	1	-1E+10	1	-1E+10	1
4902549	49	C	12/16/2021	12:55	-132.002	47.187	0	452.90	0	4.5240	0	33.9570	0	26.905	0	448.642	0	58.3	4	18.6	4	-1E+10	1	-1E+10	1	-1E+10	1	-1E+10	1	-1E+10	1	-1E+10	1
4902549	49	C	12/16/2021	12:55	-132.002	47.187	0	458.10	0	4.4950	0	33.9650	0	26.915	0	453.787	0	56.0	4	17.9	4	-1E+10	1	-1E+10	1	-1E+10	1	-1E+10	1	-1E+10	1	-1E+10	1
4902549	49	C	12/16/2021	12:55	-132.002	47.187	0	463.30	0	4.4610	0	33.9730	0	26.925	0	458.933	0	53.9	4	17.2	4	-1E+10	1	-1E+10	1	-1E+10	1	-1E+10	1	-1E+10	1	-1E+10	1
4902549	49	C	12/16/2021	12:55	-132.002	47.187	0	467.90	0	4.4330	0	33.9790	0	26.932	0	463.484	0	52.0	4	16.6	4	-1E+10	1	-1E+10	1	-1E+10	1	-1E+10	1	-1E+10	1	-1E+10	1
4902549	49	C	12/16/2021	12:55	-132.002	47.187	0	472.90	0	4.4040	0	33.9890	0	26.943	0	468.431	0	49.9	4	15.9	4	-1E+10	1	-1E+10	1	-1E+10	1	-1E+10	1	-1E+10	1	-1E+10	1
4902549	49	C	12/16/2021	12:55	-132.002	47.187	0	478.20	0	4.3720	0	34.0000	0	26.956	0	473.675	0	47.8	4	15.2	4	-1E+10	1	-1E+10	1	-1E+10	1	-1E+10	1	-1E+10	1	-1E+10	1
4902549	49	C	12/16/2021	12:55	-132.002	47.187	0	483.10	0	4.3500	0	34.0070	0	26.964	0	478.523	0	46.2	4	14.7	4	-1E+10	1	-1E+10	1	-1E+10	1	-1E+10	1	-1E+10	1	-1E+10	1
4902549	49	C	12/16/2021	12:55	-132.002	47.187	0	487.90	0	4.3280	0	34.0140	0	26.972	0	483.272	0	44.7	4	14.2	4	-1E+10	1	-1E+10	1	-1E+10	1	-1E+10	1	-1E+10	1	-1E+10	1
4902549	49	C	12/16/2021	12:55	-132.002	47.187	0	492.80	0	4.3080	0	34.0200	0	26.978	0	488.120	0	43.6	4	13.9	4	-1E+10	1	-1E+10	1	-1E+10	1	-1E+10	1	-1E+10	1	-1E+10	1
4902549	49	C	12/16/2021	12:55	-132.002	47.187	0	497.80	0	4.2940	0	34.0250	0	26.984	0	493.066	0	42.7	4	13.6	4	-1E+10	1	-1E+10	1	-1E+10	1	-1E+10	1	-1E+10	1	-1E+10	1
4902549	49	C	12/16/2021	12:55	-132.002	47.187	0	502.60	0	4.2850	0	34.0280	0	26.987	0	497.815	0	41.8	4	13.3	4	-1E+10	1	-1E+10	1	-1E+10	1	-1E+10	1	-1E+10	1	-1E+10	1
4902549	49	C	12/16/2021	12:55	-132.002	47.187	0	507.50	0	4.2760	0	34.0310	0	26.991	0	502.662	0	40.6	4	12.9	4	-1E+10	1	-1E+10	1	-1E+10	1	-1E+10	1	-1E+10	1	-1E+10	1
4902549	49	C	12/16/2021	12:55	-132.002	47.187	0	512.50	0	4.2550	0	34.0370	0	26.998	0	507.609	0	39.5	4	12.5	4	-1E+10	1	-1E+10	1	-1E+10	1	-1E+10	1	-1E+10	1	-1E+10	1
4902549	49	C	12/16/2021	12:55	-132.002	47.187	0	517.60	0	4.2440	0	34.0420	0	27.003	0	512.654	0	38.7	4	12.3	4	-1E+10	1	-1E+10	1	-1E+10	1	-1E+10	1	-1E+10	1	-1E+10	1
4902549	49	C	12/16/2021	12:55	-132.002	47.187	0	522.80	0	4.2390	0	34.0440	0	27.005	0	517.798	0	38.0	4	12.1	4	-1E+10	1	-1E+10	1	-1E+10	1	-1E+10	1	-1E+10	1	-1E+10	1
4902549	49	C	12/16/2021	12:55	-132.002	47.187	0	528.00	0	4.2320	0	34.0470	0	27.008	0	522.941	0	37.3	4	11.8	4	-1E+10	1	-1E+10	1	-1E+10	1	-1E+10	1	-1E+10	1	-1E+10	1
4902549	49	C	12/16/2021	12:55	-132.002	47.187	0	533.30	0	4.2270	0	34.0490	0	27.010	0	528.184	0	36.6	4	11.6	4	-1E+10	1	-1E+10	1	-1E+10	1	-1E+10	1	-1E+10	1	-1E+10	1
4902549	49	C	12/16/2021	12:55	-132.002	47.187	0	538.30	0	4.2210	0	34.0520	0	27.013	0	533.129	0	35.8	4	11.3	4	-1E+10	1	-1E+10	1	-1E+10	1	-1E+10	1	-1E+10	1	-1E+10	1
4902549	49	C	12/16/2021	12:55	-132.002	47.187	0	542.90	0	4.2090	0	34.0560	0	27.018	0	537.679	0	35.0	4	11.1	4	-1E+10	1	-1E+10	1	-1E+10	1	-1E+10	1	-1E+10	1	-1E+10	1
4902549	49	C	12/16/2021	12:55	-132.002	47.187	0	547.70	0	4.2020	0	34.0590	0	27.021	0	542.427	0	34.3	4	10.9	4	-1E+10	1	-1E+10	1	-1E+10	1	-1E+10	1	-1E+10	1	-1E+10	1
4902549	49	C	12/16/2021	12:55	-132.002	47.187	0	552.70	0	4.1970	0	34.0620	0	27.024	0	547.372	0	33.2	4	10.5	4	-1E+10	1	-1E+10	1	-1E+10	1	-1E+10	1	-1E+10	1	-1E+10	1
4902549	49	C	12/16/2021	12:55	-132.002	47.187	0	557.80	0	4.1800	0	34.0690	0	27.031	0	552.416	0	32.4	4	10.3	4	-1E+10	1	-1E+10	1	-1E+10	1	-1E+10	1	-1E+10	1	-1E+10	1
4902549	49	C	12/16/2021	12:55	-132.002	47.187	0	563.00	0	4.1710	0	34.0720	0	27.035	0	557.559	0	31.8	4	10.1	4	-1E+10	1	-1E+10	1	-1E+10	1	-1E+10	1	-1E+10	1	-1E+10	1
4902549	49	C	12/16/2021	12:55	-132.002	47.187	0	568.20	0	4.1670	0	34.0740	0	27.037	0	562.702	0	31.1	4	9.8	4	-1E+10	1	-1E+10	1	-1E+10	1	-1E+10	1	-1E+10	1	-1E+10	1
4902549	49	C	12/16/2021	12:55	-132.002	47.187	0	572.90	0	4.1600	0	34.0760	0	27.039	0	567.350	0	30.2	4	9.6	4	-1E+10	1	-1E+10	1	-1E+10	1	-1E+10	1	-1E+10	1	-1E+10	1
4902549	49	C	12/16/2021	12:55	-132.002	47.187	0	577.60	0	4.1460	0	34.0810	0	27.044	0	571.998	0	29.3	4	9.3	4	-1E+10	1	-1E+10	1	-1E+10	1	-1E+10	1	-1E+10	1	-1E+10	1
4902549	49	C	12/16/2021	12:55	-132.002	47.187	0	582.70	0	4.1340	0	34.0860	0	27.050	0	577.041	0	28.4	4	9.0	4	-1E+10	1	-1E+10	1	-1E+10	1	-1E+10	1	-1E+10	1	-1E+10	1
4902549	49	C	12/16/2021	12:55	-132.002	47.187	0	587.80	0	4.1230	0	34.0900	0	27.054	0	582.085	0	27.3	4	8.6	4	-1E+10	1	-1E+10	1	-1E+10	1	-1E+10	1	-1E+10	1	-1E+10	1
4902549	49	C	12/16/2021	12:55	-132.002	47.187	0	592.90	0	4.0950	0	34.0990	0	27.064	0	587.128	0	26.0	4	8.2	4	-1E+10	1	-1E+10	1	-1E+10	1	-1E+10	1	-1E+10	1	-1E+10	1
4902549	49	C	12/16/2021	12:55	-132.002	47.187	0	598.00	0	4.0770	0	34.1050	0	27.071	0	592.171	0	25.4	4	8.0	4	-1E+10	1	-1E+10	1	-1E+10	1	-1E+10	1	-1E+10	1	-1E+10	1
4902549	49	C	12/16/2021	12:55	-132.002	47.187	0	603.10	0	4.0690	0	34.1090	0	27.075	0	597.214	0	24.6	4	7.8	4	-1E+10	1	-1E+10	1	-1E+10	1	-1E+10	1	-1E+10	1	-1E+10	1
4902549	49	C	12/16/2021	12:55	-132.002	47.187	0	607.90	0	4.0550	0	34.1140	0	27.080	0	601.960	0	24.0	4	7.6	4	-1E+10	1	-1E+10	1	-1E+10	1	-1E+10	1	-1E+10	1	-1E+10	1
4902549	49	C	12/16/2021	12:55	-132.002	47.187	0	612.60	0	4.0450	0	34.1180	0	27.085	0	606.607	0	23.4	4	7.4	4	-1E+10	1	-1E+10	1	-1E+10	1	-1E+10	1	-1E+10	1	-1E+10	1
4902549	49	C	12/16/2021	12:55	-132.002	47.187	0	617.70	0	4.0330	0	34.1220	0	27.089	0	611.650	0	22.8	4	7.2	4	-1E+10	1	-1E+10	1	-1E+10	1	-1E+10	1	-1E+10	1	-1E+10	1
4902549	49	C	12/16/2021	12:55	-132.002	47.187	0	622.90	0	4.0290	0	34.1240	0	27.091	0	616.791	0	22.3	4	7.1	4	-1E+10	1	-1E+10	1	-1E+10	1	-1E+10	1	-1E+10	1	-1E+10	1
4902549	49	C	12/16/2021	12:55	-132.002	47.187	0	628.10	0	4.0270	0	34.1260	0	27.093	0	621.933	0	21.7	4	6.9	4	-1E+10	1	-1E+10	1	-1E+10	1	-1E+10	1	-1E+10	1	-1E+10	1
4902549	49	C	12/16/2021	12:55	-132.002	47.187	0	633.10	0	4.0200	0	34.1290	0	27.096	0	626.876	0	21.0	4	6.6	4	-1E+10	1	-1E+10	1	-1E+10	1	-1E+10	1	-1E+10	1	-1E+10	1
4902549	49	C	12/16/2021	12:55	-132.002	47.187	0	638.30	0	4.0060	0	34.1340	0	27.101	0	632.017	0	20.4	4	6.4	4	-1E+10	1	-1E+10	1	-1E+10	1	-1E+10	1	-1E+10	1	-1E+10	1
4902549	49	C	12/16/2021	12:55	-132.002	47.187	0	643.00	0	3.9930	0	34.1390	0	27.107	0	636.664	0	19.9	4	6.3	4	-1E+10	1	-1E+10	1	-1E+10	1	-1E+10	1	-1E+10	1	-1E+10	1
4902549	49	C	12/16/2021	12:55	-132.002	47.187	0	647.80	0	3.9810	0	34.1420	0	27.110	0	641.409	0	19.5	4	6.1	4	-1E+10	1	-1E+10	1	-1E+10	1	-1E+10	1	-1E+10	1	-1E+10	1
4902549	49	C	12/16/2021	12:55	-132.002	47.187	0	653.00	0	3.9710	0	34.1460	0	27.115	0	646.549	0	19.0	4	6.0	4	-1E+10	1	-1E+10	1	-1E+10	1	-1E+10	1	-1E+10	1	-1E+10	1
4902549	49	C	12/16/2021	12:55	-132.002	47.187	0	657.80	0	3.9590	0	34.1500	0	27.119	0	651.295	0	18.5	4	5.8	4	-1E+10	1	-1E+10	1	-1E+10	1	-1E+10	1	-1E+10	1	-1E+10	1
4902549	49	C	12/16/2021	12:55	-132.002	47.187	0	662.60	0	3.9460	0	34.1540	0	27.124	0	656.040	0	18.1	4	5.7	4	-1E+10	1	-1E+10	1	-1E+10	1	-1E+10	1	-1E+10	1	-1E+10	1
4902549	49	C	12/16/2021	12:55	-132.002	47.187	0	667.80	0	3.9390	0	34.1560	0	27.126	0	661.180	0	17.6	4	5.6	4	-1E+10	1	-1E+10	1	-1E+10	1	-1E+10	1	-1E+10	1	-1E+10	1
4902549	49	C	12/16/2021	12:55	-132.002	47.187	0	673.10	0	3.9220	0	34.1610	0	27.132	0	666.419	0	17.1	4	5.4	4	-1E+10	1	-1E+10	1	-1E+10	1	-1E+10	1	-1E+10	1	-1E+10	1
4902549	49	C	12/16/2021	12:55	-132.002	47.187	0	677.90	0	3.9040	0	34.1670	0	27.138	0	671.163	0	16.7	4	5.3	4	-1E+10	1	-1E+10	1	-1E+10	1	-1E+10	1	-1E+10	1	-1E+10	1
4902549	49	C	12/16/2021	12:55	-132.002	47.187	0	682.70	0	3.8900	0	34.1700	0	27.142	0	675.908	0	16.4	4	5.1	4	-1E+10	1	-1E+10	1	-1E+10	1	-1E+10	1	-1E+10	1	-1E+10	1
4902549	49	C	12/16/2021	12:55	-132.002	47.187	0	688.00	0	3.8730	0	34.1740	0	27.147	0	681.147	0	16.0	4	5.0	4	-1E+10	1	-1E+10	1	-1E+10	1	-1E+10	1	-1E+10	1	-1E+10	1
4902549	49	C	12/16/2021	12:55	-132.002	47.187	0	692.80	0	3.8500	0	34.1800	0	27.154	0	685.891	0	15.6	4	4.9	4	-1E+10	1	-1E+10	1	-1E+10	1	-1E+10	1	-1E+10	1	-1E+10	1
4902549	49	C	12/16/2021	12:55	-132.002	47.187	0	697.60	0	3.8340	0	34.1840	0	27.159	0	690.635	0	15.3	4	4.8	4	-1E+10	1	-1E+10	1	-1E+10	1	-1E+10	1	-1E+10	1	-1E+10	1
4902549	49	C	12/16/2021	12:55	-132.002	47.187	0	702.80	0	3.8180	0	34.1880	0	27.164	0	695.774	0	15.0	4	4.7	4	-1E+10	1	-1E+10	1	-1E+10	1	-1E+10	1	-1E+10	1	-1E+10	1
4902549	49	C	12/16/2021	12:55	-132.002	47.187	0	708.10	0	3.8030	0	34.1920	0	27.169	0	701.013	0	14.7	4	4.6	4	-1E+10	1	-1E+10	1	-1E+10	1	-1E+10	1	-1E+10	1	-1E+10	1
4902549	49	C	12/16/2021	12:55	-132.002	47.187	0	712.80	0	3.7940	0	34.1950	0	27.172	0	705.658	0	14.4	4	4.5	4	-1E+10	1	-1E+10	1	-1E+10	1	-1E+10	1	-1E+10	1	-1E+10	1
4902549	49	C	12/16/2021	12:55	-132.002	47.187	0	717.60	0	3.7830	0	34.1980	0	27.175	0	710.401	0	14.2	4	4.4	4	-1E+10	1	-1E+10	1	-1E+10	1	-1E+10	1	-1E+10	1	-1E+10	1
4902549	49	C	12/16/2021	12:55	-132.002	47.187	0	722.90	0	3.7720	0	34.2000	0	27.178	0	715.639	0	13.9	4	4.4	4	-1E+10	1	-1E+10	1	-1E+10	1	-1E+10	1	-1E+10	1	-1E+10	1
4902549	49	C	12/16/2021	12:55	-132.002	47.187	0	727.90	0	3.7570	0	34.2040	0	27.183	0	720.580	0	13.6	4	4.3	4	-1E+10	1	-1E+10	1	-1E+10	1	-1E+10	1	-1E+10	1	-1E+10	1
4902549	49	C	12/16/2021	12:55	-132.002	47.187	0	732.90	0	3.7470	0	34.2060	0	27.185	0	725.521	0	13.3	4	4.2	4	-1E+10	1	-1E+10	1	-1E+10	1	-1E+10	1	-1E+10	1	-1E+10	1
4902549	49	C	12/16/2021	12:55	-132.002	47.187	0	737.90	0	3.7320	0	34.2100	0	27.190	0	730.462	0	12.9	4	4.0	4	-1E+10	1	-1E+10	1	-1E+10	1	-1E+10	1	-1E+10	1	-1E+10	1
4902549	49	C	12/16/2021	12:55	-132.002	47.187	0	742.80	0	3.7200	0	34.2150	0	27.195	0	735.304	0	12.5	4	3.9	4	-1E+10	1	-1E+10	1	-1E+10	1	-1E+10	1	-1E+10	1	-1E+10	1
4902549	49	C	12/16/2021	12:55	-132.002	47.187	0	748.10	0	3.7060	0	34.2200	0	27.201	0	740.541	0	12.1	4	3.8	4	-1E+10	1	-1E+10	1	-1E+10	1	-1E+10	1	-1E+10	1	-1E+10	1
4902549	49	C	12/16/2021	12:55	-132.002	47.187	0	752.90	0	3.6940	0	34.2230	0	27.204	0	745.284	0	11.9	4	3.7	4	-1E+10	1	-1E+10	1	-1E+10	1	-1E+10	1	-1E+10	1	-1E+10	1
4902549	49	C	12/16/2021	12:55	-132.002	47.187	0	757.80	0	3.6890	0	34.2250	0	27.206	0	750.126	0	11.7	4	3.7	4	-1E+10	1	-1E+10	1	-1E+10	1	-1E+10	1	-1E+10	1	-1E+10	1
4902549	49	C	12/16/2021	12:55	-132.002	47.187	0	762.80	0	3.6790	0	34.2280	0	27.210	0	755.066	0	11.5	4	3.6	4	-1E+10	1	-1E+10	1	-1E+10	1	-1E+10	1	-1E+10	1	-1E+10	1
4902549	49	C	12/16/2021	12:55	-132.002	47.187	0	767.80	0	3.6710	0	34.2310	0	27.213	0	760.006	0	11.2	4	3.5	4	-1E+10	1	-1E+10	1	-1E+10	1	-1E+10	1	-1E+10	1	-1E+10	1
4902549	49	C	12/16/2021	12:55	-132.002	47.187	0	773.00	0	3.6650	0	34.2320	0	27.214	0	765.144	0	11.0	4	3.4	4	-1E+10	1	-1E+10	1	-1E+10	1	-1E+10	1	-1E+10	1	-1E+10	1
4902549	49	C	12/16/2021	12:55	-132.002	47.187	0	778.00	0	3.6510	0	34.2360	0	27.219	0	770.084	0	10.7	4	3.3	4	-1E+10	1	-1E+10	1	-1E+10	1	-1E+10	1	-1E+10	1	-1E+10	1
4902549	49	C	12/16/2021	12:55	-132.002	47.187	0	782.70	0	3.6420	0	34.2390	0	27.222	0	774.727	0	10.5	4	3.3	4	-1E+10	1	-1E+10	1	-1E+10	1	-1E+10	1	-1E+10	1	-1E+10	1
4902549	49	C	12/16/2021	12:55	-132.002	47.187	0	787.90	0	3.6350	0	34.2410	0	27.225	0	779.865	0	10.3	4	3.2	4	-1E+10	1	-1E+10	1	-1E+10	1	-1E+10	1	-1E+10	1	-1E+10	1
4902549	49	C	12/16/2021	12:55	-132.002	47.187	0	793.20	0	3.6260	0	34.2440	0	27.228	0	785.101	0	10.1	4	3.2	4	-1E+10	1	-1E+10	1	-1E+10	1	-1E+10	1	-1E+10	1	-1E+10	1
4902549	49	C	12/16/2021	12:55	-132.002	47.187	0	798.20	0	3.6160	0	34.2460	0	27.231	0	790.040	0	9.9	4	3.1	4	-1E+10	1	-1E+10	1	-1E+10	1	-1E+10	1	-1E+10	1	-1E+10	1
4902549	49	C	12/16/2021	12:55	-132.002	47.187	0	803.30	0	3.6040	0	34.2500	0	27.235	0	795.078	0	9.8	4	3.1	4	-1E+10	1	-1E+10	1	-1E+10	1	-1E+10	1	-1E+10	1	-1E+10	1
4902549	49	C	12/16/2021	12:55	-132.002	47.187	0	808.00	0	3.6010	0	34.2510	0	27.236	0	799.721	0	9.7	4	3.0	4	-1E+10	1	-1E+10	1	-1E+10	1	-1E+10	1	-1E+10	1	-1E+10	1
4902549	49	C	12/16/2021	12:55	-132.002	47.187	0	813.00	0	3.5960	0	34.2520	0	27.237	0	804.660	0	9.6	4	3.0	4	-1E+10	1	-1E+10	1	-1E+10	1	-1E+10	1	-1E+10	1	-1E+10	1
4902549	49	C	12/16/2021	12:55	-132.002	47.187	0	818.20	0	3.5860	0	34.2550	0	27.241	0	809.797	0	9.4	4	2.9	4	-1E+10	1	-1E+10	1	-1E+10	1	-1E+10	1	-1E+10	1	-1E+10	1
4902549	49	C	12/16/2021	12:55	-132.002	47.187	0	823.00	0	3.5750	0	34.2580	0	27.244	0	814.538	0	9.3	4	2.9	4	-1E+10	1	-1E+10	1	-1E+10	1	-1E+10	1	-1E+10	1	-1E+10	1
4902549	49	C	12/16/2021	12:55	-132.002	47.187	0	828.00	0	3.5660	0	34.2600	0	27.247	0	819.477	0	9.1	4	2.9	4	-1E+10	1	-1E+10	1	-1E+10	1	-1E+10	1	-1E+10	1	-1E+10	1
4902549	49	C	12/16/2021	12:55	-132.002	47.187	0	832.90	0	3.5550	0	34.2630	0	27.250	0	824.317	0	9.0	4	2.8	4	-1E+10	1	-1E+10	1	-1E+10	1	-1E+10	1	-1E+10	1	-1E+10	1
4902549	49	C	12/16/2021	12:55	-132.002	47.187	0	837.80	0	3.5480	0	34.2650	0	27.253	0	829.157	0	9.0	4	2.8	4	-1E+10	1	-1E+10	1	-1E+10	1	-1E+10	1	-1E+10	1	-1E+10	1
4902549	49	C	12/16/2021	12:55	-132.002	47.187	0	843.10	0	3.5440	0	34.2660	0	27.254	0	834.392	0	8.9	4	2.8	4	-1E+10	1	-1E+10	1	-1E+10	1	-1E+10	1	-1E+10	1	-1E+10	1
4902549	49	C	12/16/2021	12:55	-132.002	47.187	0	848.10	0	3.5340	0	34.2680	0	27.256	0	839.330	0	8.8	4	2.8	4	-1E+10	1	-1E+10	1	-1E+10	1	-1E+10	1	-1E+10	1	-1E+10	1
4902549	49	C	12/16/2021	12:55	-132.002	47.187	0	853.10	0	3.5240	0	34.2710	0	27.260	0	844.268	0	8.8	4	2.7	4	-1E+10	1	-1E+10	1	-1E+10	1	-1E+10	1	-1E+10	1	-1E+10	1
4902549	49	C	12/16/2021	12:55	-132.002	47.187	0	858.10	0	3.5160	0	34.2730	0	27.262	0	849.206	0	8.7	4	2.7	4	-1E+10	1	-1E+10	1	-1E+10	1	-1E+10	1	-1E+10	1	-1E+10	1
4902549	49	C	12/16/2021	12:55	-132.002	47.187	0	863.00	0	3.5080	0	34.2750	0	27.265	0	854.045	0	8.6	4	2.7	4	-1E+10	1	-1E+10	1	-1E+10	1	-1E+10	1	-1E+10	1	-1E+10	1
4902549	49	C	12/16/2021	12:55	-132.002	47.187	0	867.90	0	3.4990	0	34.2770	0	27.267	0	858.885	0	8.4	4	2.6	4	-1E+10	1	-1E+10	1	-1E+10	1	-1E+10	1	-1E+10	1	-1E+10	1
4902549	49	C	12/16/2021	12:55	-132.002	47.187	0	872.80	0	3.4900	0	34.2800	0	27.270	0	863.724	0	8.4	4	2.6	4	-1E+10	1	-1E+10	1	-1E+10	1	-1E+10	1	-1E+10	1	-1E+10	1
4902549	49	C	12/16/2021	12:55	-132.002	47.187	0	877.80	0	3.4810	0	34.2820	0	27.273	0	868.661	0	8.3	4	2.6	4	-1E+10	1	-1E+10	1	-1E+10	1	-1E+10	1	-1E+10	1	-1E+10	1
4902549	49	C	12/16/2021	12:55	-132.002	47.187	0	882.70	0	3.4730	0	34.2850	0	27.276	0	873.500	0	8.2	4	2.6	4	-1E+10	1	-1E+10	1	-1E+10	1	-1E+10	1	-1E+10	1	-1E+10	1
4902549	49	C	12/16/2021	12:55	-132.002	47.187	0	888.10	0	3.4580	0	34.2890	0	27.281	0	878.832	0	8.2	4	2.5	4	-1E+10	1	-1E+10	1	-1E+10	1	-1E+10	1	-1E+10	1	-1E+10	1
4902549	49	C	12/16/2021	12:55	-132.002	47.187	0	893.10	0	3.4460	0	34.2920	0	27.284	0	883.770	0	8.1	4	2.5	4	-1E+10	1	-1E+10	1	-1E+10	1	-1E+10	1	-1E+10	1	-1E+10	1
4902549	49	C	12/16/2021	12:55	-132.002	47.187	0	898.10	0	3.4390	0	34.2940	0	27.287	0	888.707	0	8.0	4	2.5	4	-1E+10	1	-1E+10	1	-1E+10	1	-1E+10	1	-1E+10	1	-1E+10	1
4902549	49	C	12/16/2021	12:55	-132.002	47.187	0	903.10	0	3.4340	0	34.2960	0	27.289	0	893.644	0	7.9	4	2.5	4	-1E+10	1	-1E+10	1	-1E+10	1	-1E+10	1	-1E+10	1	-1E+10	1
4902549	49	C	12/16/2021	12:55	-132.002	47.187	0	907.70	0	3.4240	0	34.2990	0	27.292	0	898.186	0	7.8	4	2.4	4	-1E+10	1	-1E+10	1	-1E+10	1	-1E+10	1	-1E+10	1	-1E+10	1
4902549	49	C	12/16/2021	12:55	-132.002	47.187	0	912.90	0	3.4070	0	34.3030	0	27.297	0	903.320	0	7.6	4	2.4	4	-1E+10	1	-1E+10	1	-1E+10	1	-1E+10	1	-1E+10	1	-1E+10	1
4902549	49	C	12/16/2021	12:55	-132.002	47.187	0	918.10	0	3.3950	0	34.3070	0	27.301	0	908.454	0	7.5	4	2.3	4	-1E+10	1	-1E+10	1	-1E+10	1	-1E+10	1	-1E+10	1	-1E+10	1
4902549	49	C	12/16/2021	12:55	-132.002	47.187	0	922.90	0	3.3840	0	34.3100	0	27.305	0	913.193	0	7.4	4	2.3	4	-1E+10	1	-1E+10	1	-1E+10	1	-1E+10	1	-1E+10	1	-1E+10	1
4902549	49	C	12/16/2021	12:55	-132.002	47.187	0	927.80	0	3.3800	0	34.3120	0	27.307	0	918.031	0	7.3	4	2.3	4	-1E+10	1	-1E+10	1	-1E+10	1	-1E+10	1	-1E+10	1	-1E+10	1
4902549	49	C	12/16/2021	12:55	-132.002	47.187	0	932.60	0	3.3750	0	34.3130	0	27.308	0	922.770	0	7.2	4	2.3	4	-1E+10	1	-1E+10	1	-1E+10	1	-1E+10	1	-1E+10	1	-1E+10	1
4902549	49	C	12/16/2021	12:55	-132.002	47.187	0	937.50	0	3.3600	0	34.3160	0	27.312	0	927.607	0	7.2	4	2.2	4	-1E+10	1	-1E+10	1	-1E+10	1	-1E+10	1	-1E+10	1	-1E+10	1
4902549	49	C	12/16/2021	12:55	-132.002	47.187	0	942.90	0	3.3510	0	34.3190	0	27.315	0	932.938	0	7.1	4	2.2	4	-1E+10	1	-1E+10	1	-1E+10	1	-1E+10	1	-1E+10	1	-1E+10	1
4902549	49	C	12/16/2021	12:55	-132.002	47.187	0	948.40	0	3.3400	0	34.3210	0	27.318	0	938.368	0	7.0	4	2.2	4	-1E+10	1	-1E+10	1	-1E+10	1	-1E+10	1	-1E+10	1	-1E+10	1
4902549	49	C	12/16/2021	12:55	-132.002	47.187	0	952.90	0	3.3260	0	34.3250	0	27.322	0	942.810	0	7.0	4	2.2	4	-1E+10	1	-1E+10	1	-1E+10	1	-1E+10	1	-1E+10	1	-1E+10	1
4902549	49	C	12/16/2021	12:55	-132.002	47.187	0	957.60	0	3.3200	0	34.3270	0	27.324	0	947.450	0	7.0	4	2.2	4	-1E+10	1	-1E+10	1	-1E+10	1	-1E+10	1	-1E+10	1	-1E+10	1
4902549	49	C	12/16/2021	12:55	-132.002	47.187	0	962.60	0	3.3120	0	34.3290	0	27.327	0	952.385	0	6.9	4	2.1	4	-1E+10	1	-1E+10	1	-1E+10	1	-1E+10	1	-1E+10	1	-1E+10	1
4902549	49	C	12/16/2021	12:55	-132.002	47.187	0	967.80	0	3.3080	0	34.3310	0	27.329	0	957.518	0	6.8	4	2.1	4	-1E+10	1	-1E+10	1	-1E+10	1	-1E+10	1	-1E+10	1	-1E+10	1
4902549	49	C	12/16/2021	12:55	-132.002	47.187	0	972.90	0	3.2990	0	34.3340	0	27.332	0	962.553	0	6.8	4	2.1	4	-1E+10	1	-1E+10	1	-1E+10	1	-1E+10	1	-1E+10	1	-1E+10	1
4902549	49	C	12/16/2021	12:55	-132.002	47.187	0	977.70	0	3.2930	0	34.3350	0	27.334	0	967.290	0	6.8	4	2.1	4	-1E+10	1	-1E+10	1	-1E+10	1	-1E+10	1	-1E+10	1	-1E+10	1
4902549	49	C	12/16/2021	12:55	-132.002	47.187	0	982.50	0	3.2910	0	34.3360	0	27.335	0	972.028	0	6.7	4	2.1	4	-1E+10	1	-1E+10	1	-1E+10	1	-1E+10	1	-1E+10	1	-1E+10	1
4902549	49	C	12/16/2021	12:55	-132.002	47.187	0	987.50	0	3.2770	0	34.3390	0	27.338	0	976.963	0	6.7	4	2.1	4	-1E+10	1	-1E+10	1	-1E+10	1	-1E+10	1	-1E+10	1	-1E+10	1
4902549	49	C	12/16/2021	12:55	-132.002	47.187	0	992.60	0	3.2720	0	34.3410	0	27.340	0	981.997	0	6.7	4	2.1	4	-1E+10	1	-1E+10	1	-1E+10	1	-1E+10	1	-1E+10	1	-1E+10	1
4902549	49	C	12/16/2021	12:55	-132.002	47.187	0	997.70	0	3.2630	0	34.3430	0	27.343	0	987.030	0	6.6	4	2.1	4	-1E+10	1	-1E+10	1	-1E+10	1	-1E+10	1	-1E+10	1	-1E+10	1
4902549	49	C	12/16/2021	12:55	-132.002	47.187	0	1005.40	0	3.2450	0	34.3470	0	27.348	0	994.630	0	6.6	4	2.0	4	-1E+10	1	-1E+10	1	-1E+10	1	-1E+10	1	-1E+10	1	-1E+10	1
4902549	49	C	12/16/2021	12:55	-132.002	47.187	0	1015.40	0	3.2220	0	34.3530	0	27.355	0	1004.499	0	6.5	4	2.0	4	-1E+10	1	-1E+10	1	-1E+10	1	-1E+10	1	-1E+10	1	-1E+10	1
4902549	49	C	12/16/2021	12:55	-132.002	47.187	0	1025.20	0	3.1960	0	34.3600	0	27.363	0	1014.170	0	6.5	4	2.0	4	-1E+10	1	-1E+10	1	-1E+10	1	-1E+10	1	-1E+10	1	-1E+10	1
4902549	49	C	12/16/2021	12:55	-132.002	47.187	0	1035.10	0	3.1810	0	34.3640	0	27.367	0	1023.939	0	6.5	4	2.0	4	-1E+10	1	-1E+10	1	-1E+10	1	-1E+10	1	-1E+10	1	-1E+10	1
4902549	49	C	12/16/2021	12:55	-132.002	47.187	0	1045.10	0	3.1730	0	34.3670	0	27.371	0	1033.807	0	6.6	4	2.0	4	-1E+10	1	-1E+10	1	-1E+10	1	-1E+10	1	-1E+10	1	-1E+10	1
4902549	49	C	12/16/2021	12:55	-132.002	47.187	0	1055.10	0	3.1590	0	34.3720	0	27.376	0	1043.674	0	6.7	4	2.1	4	-1E+10	1	-1E+10	1	-1E+10	1	-1E+10	1	-1E+10	1	-1E+10	1
4902549	49	C	12/16/2021	12:55	-132.002	47.187	0	1065.10	0	3.1460	0	34.3750	0	27.380	0	1053.540	0	6.7	4	2.1	4	-1E+10	1	-1E+10	1	-1E+10	1	-1E+10	1	-1E+10	1	-1E+10	1
4902549	49	C	12/16/2021	12:55	-132.002	47.187	0	1075.20	0	3.1310	0	34.3790	0	27.384	0	1063.505	0	6.7	4	2.1	4	-1E+10	1	-1E+10	1	-1E+10	1	-1E+10	1	-1E+10	1	-1E+10	1
4902549	49	C	12/16/2021	12:55	-132.002	47.187	0	1085.50	0	3.1180	0	34.3830	0	27.389	0	1073.667	0	6.7	4	2.1	4	-1E+10	1	-1E+10	1	-1E+10	1	-1E+10	1	-1E+10	1	-1E+10	1
4902549	49	C	12/16/2021	12:55	-132.002	47.187	0	1095.30	0	3.1050	0	34.3860	0	27.392	0	1083.335	0	6.7	4	2.1	4	-1E+10	1	-1E+10	1	-1E+10	1	-1E+10	1	-1E+10	1	-1E+10	1
4902549	49	C	12/16/2021	12:55	-132.002	47.187	0	1105.40	0	3.0930	0	34.3890	0	27.396	0	1093.298	0	6.9	4	2.1	4	-1E+10	1	-1E+10	1	-1E+10	1	-1E+10	1	-1E+10	1	-1E+10	1
4902549	49	C	12/16/2021	12:55	-132.002	47.187	0	1115.70	0	3.0710	0	34.3940	0	27.402	0	1103.458	0	7.0	4	2.2	4	-1E+10	1	-1E+10	1	-1E+10	1	-1E+10	1	-1E+10	1	-1E+10	1
4902549	49	C	12/16/2021	12:55	-132.002	47.187	0	1125.70	0	3.0500	0	34.3980	0	27.407	0	1113.322	0	7.2	4	2.2	4	-1E+10	1	-1E+10	1	-1E+10	1	-1E+10	1	-1E+10	1	-1E+10	1
4902549	49	C	12/16/2021	12:55	-132.002	47.187	0	1135.70	0	3.0230	0	34.4030	0	27.414	0	1123.185	0	7.3	4	2.3	4	-1E+10	1	-1E+10	1	-1E+10	1	-1E+10	1	-1E+10	1	-1E+10	1
4902549	49	C	12/16/2021	12:55	-132.002	47.187	0	1145.80	0	2.9990	0	34.4070	0	27.419	0	1133.147	0	7.6	4	2.3	4	-1E+10	1	-1E+10	1	-1E+10	1	-1E+10	1	-1E+10	1	-1E+10	1
4902549	49	C	12/16/2021	12:55	-132.002	47.187	0	1155.40	0	2.9890	0	34.4100	0	27.422	0	1142.615	0	7.7	4	2.4	4	-1E+10	1	-1E+10	1	-1E+10	1	-1E+10	1	-1E+10	1	-1E+10	1
4902549	49	C	12/16/2021	12:55	-132.002	47.187	0	1165.00	0	2.9730	0	34.4120	0	27.425	0	1152.082	0	7.8	4	2.4	4	-1E+10	1	-1E+10	1	-1E+10	1	-1E+10	1	-1E+10	1	-1E+10	1
4902549	49	C	12/16/2021	12:55	-132.002	47.187	0	1175.20	0	2.9450	0	34.4160	0	27.431	0	1162.141	0	8.0	4	2.5	4	-1E+10	1	-1E+10	1	-1E+10	1	-1E+10	1	-1E+10	1	-1E+10	1
4902549	49	C	12/16/2021	12:55	-132.002	47.187	0	1185.30	0	2.9330	0	34.4180	0	27.434	0	1172.100	0	8.2	4	2.5	4	-1E+10	1	-1E+10	1	-1E+10	1	-1E+10	1	-1E+10	1	-1E+10	1
4902549	49	C	12/16/2021	12:55	-132.002	47.187	0	1195.50	0	2.9130	0	34.4210	0	27.438	0	1182.158	0	8.5	4	2.6	4	-1E+10	1	-1E+10	1	-1E+10	1	-1E+10	1	-1E+10	1	-1E+10	1
4902549	49	C	12/16/2021	12:55	-132.002	47.187	0	1205.30	0	2.8930	0	34.4250	0	27.443	0	1191.821	0	8.8	4	2.7	4	-1E+10	1	-1E+10	1	-1E+10	1	-1E+10	1	-1E+10	1	-1E+10	1
4902549	49	C	12/16/2021	12:55	-132.002	47.187	0	1215.50	0	2.8710	0	34.4280	0	27.448	0	1201.878	0	8.9	4	2.7	4	-1E+10	1	-1E+10	1	-1E+10	1	-1E+10	1	-1E+10	1	-1E+10	1
4902549	49	C	12/16/2021	12:55	-132.002	47.187	0	1225.70	0	2.8510	0	34.4300	0	27.451	0	1211.934	0	9.1	4	2.8	4	-1E+10	1	-1E+10	1	-1E+10	1	-1E+10	1	-1E+10	1	-1E+10	1
4902549	49	C	12/16/2021	12:55	-132.002	47.187	0	1235.60	0	2.8370	0	34.4320	0	27.454	0	1221.694	0	9.3	4	2.9	4	-1E+10	1	-1E+10	1	-1E+10	1	-1E+10	1	-1E+10	1	-1E+10	1
4902549	49	C	12/16/2021	12:55	-132.002	47.187	0	1245.70	0	2.8210	0	34.4350	0	27.458	0	1231.651	0	9.6	4	2.9	4	-1E+10	1	-1E+10	1	-1E+10	1	-1E+10	1	-1E+10	1	-1E+10	1
4902549	49	C	12/16/2021	12:55	-132.002	47.187	0	1255.50	0	2.8090	0	34.4380	0	27.461	0	1241.312	0	9.8	4	3.0	4	-1E+10	1	-1E+10	1	-1E+10	1	-1E+10	1	-1E+10	1	-1E+10	1
4902549	49	C	12/16/2021	12:55	-132.002	47.187	0	1265.30	0	2.7950	0	34.4400	0	27.464	0	1250.972	0	10.1	4	3.1	4	-1E+10	1	-1E+10	1	-1E+10	1	-1E+10	1	-1E+10	1	-1E+10	1
4902549	49	C	12/16/2021	12:55	-132.002	47.187	0	1275.30	0	2.7810	0	34.4430	0	27.468	0	1260.829	0	10.3	4	3.2	4	-1E+10	1	-1E+10	1	-1E+10	1	-1E+10	1	-1E+10	1	-1E+10	1
4902549	49	C	12/16/2021	12:55	-132.002	47.187	0	1285.50	0	2.7690	0	34.4450	0	27.471	0	1270.882	0	10.6	4	3.2	4	-1E+10	1	-1E+10	1	-1E+10	1	-1E+10	1	-1E+10	1	-1E+10	1
4902549	49	C	12/16/2021	12:55	-132.002	47.187	0	1295.50	0	2.7510	0	34.4480	0	27.475	0	1280.738	0	11.0	4	3.4	4	-1E+10	1	-1E+10	1	-1E+10	1	-1E+10	1	-1E+10	1	-1E+10	1
4902549	49	C	12/16/2021	12:55	-132.002	47.187	0	1305.10	0	2.7380	0	34.4510	0	27.478	0	1290.199	0	11.2	4	3.4	4	-1E+10	1	-1E+10	1	-1E+10	1	-1E+10	1	-1E+10	1	-1E+10	1
4902549	49	C	12/16/2021	12:55	-132.002	47.187	0	1315.10	0	2.7330	0	34.4530	0	27.480	0	1300.054	0	11.5	4	3.5	4	-1E+10	1	-1E+10	1	-1E+10	1	-1E+10	1	-1E+10	1	-1E+10	1
4902549	49	C	12/16/2021	12:55	-132.002	47.187	0	1325.20	0	2.7220	0	34.4560	0	27.484	0	1310.007	0	11.8	4	3.6	4	-1E+10	1	-1E+10	1	-1E+10	1	-1E+10	1	-1E+10	1	-1E+10	1
4902549	49	C	12/16/2021	12:55	-132.002	47.187	0	1335.60	0	2.7120	0	34.4580	0	27.486	0	1320.255	0	12.1	4	3.7	4	-1E+10	1	-1E+10	1	-1E+10	1	-1E+10	1	-1E+10	1	-1E+10	1
4902549	49	C	12/16/2021	12:55	-132.002	47.187	0	1345.50	0	2.6930	0	34.4600	0	27.489	0	1330.011	0	12.5	4	3.8	4	-1E+10	1	-1E+10	1	-1E+10	1	-1E+10	1	-1E+10	1	-1E+10	1
4902549	49	C	12/16/2021	12:55	-132.002	47.187	0	1355.40	0	2.6790	0	34.4640	0	27.494	0	1339.765	0	12.9	4	4.0	4	-1E+10	1	-1E+10	1	-1E+10	1	-1E+10	1	-1E+10	1	-1E+10	1
4902549	49	C	12/16/2021	12:55	-132.002	47.187	0	1365.30	0	2.6600	0	34.4660	0	27.497	0	1349.519	0	13.2	4	4.1	4	-1E+10	1	-1E+10	1	-1E+10	1	-1E+10	1	-1E+10	1	-1E+10	1
4902549	49	C	12/16/2021	12:55	-132.002	47.187	0	1375.30	0	2.6440	0	34.4680	0	27.500	0	1359.371	0	13.6	4	4.2	4	-1E+10	1	-1E+10	1	-1E+10	1	-1E+10	1	-1E+10	1	-1E+10	1
4902549	49	C	12/16/2021	12:55	-132.002	47.187	0	1385.20	0	2.6330	0	34.4710	0	27.504	0	1369.125	0	14.1	4	4.3	4	-1E+10	1	-1E+10	1	-1E+10	1	-1E+10	1	-1E+10	1	-1E+10	1
4902549	49	C	12/16/2021	12:55	-132.002	47.187	0	1395.30	0	2.6160	0	34.4740	0	27.508	0	1379.075	0	14.5	4	4.4	4	-1E+10	1	-1E+10	1	-1E+10	1	-1E+10	1	-1E+10	1	-1E+10	1
4902549	49	C	12/16/2021	12:55	-132.002	47.187	0	1405.50	0	2.5970	0	34.4760	0	27.511	0	1389.122	0	14.9	4	4.6	4	-1E+10	1	-1E+10	1	-1E+10	1	-1E+10	1	-1E+10	1	-1E+10	1
4902549	49	C	12/16/2021	12:55	-132.002	47.187	0	1415.30	0	2.5900	0	34.4780	0	27.513	0	1398.776	0	15.5	4	4.7	4	-1E+10	1	-1E+10	1	-1E+10	1	-1E+10	1	-1E+10	1	-1E+10	1
4902549	49	C	12/16/2021	12:55	-132.002	47.187	0	1425.50	0	2.5710	0	34.4820	0	27.518	0	1408.823	0	16.3	4	5.0	4	-1E+10	1	-1E+10	1	-1E+10	1	-1E+10	1	-1E+10	1	-1E+10	1
4902549	49	C	12/16/2021	12:55	-132.002	47.187	0	1435.70	0	2.5580	0	34.4870	0	27.523	0	1418.869	0	17.0	4	5.2	4	-1E+10	1	-1E+10	1	-1E+10	1	-1E+10	1	-1E+10	1	-1E+10	1
4902549	49	C	12/16/2021	12:55	-132.002	47.187	0	1445.10	0	2.5450	0	34.4900	0	27.527	0	1428.127	0	17.6	4	5.4	4	-1E+10	1	-1E+10	1	-1E+10	1	-1E+10	1	-1E+10	1	-1E+10	1
4902549	49	C	12/16/2021	12:55	-132.002	47.187	0	1455.00	0	2.5230	0	34.4920	0	27.530	0	1437.877	0	18.3	4	5.6	4	-1E+10	1	-1E+10	1	-1E+10	1	-1E+10	1	-1E+10	1	-1E+10	1
4902549	49	C	12/16/2021	12:55	-132.002	47.187	0	1465.00	0	2.5050	0	34.4950	0	27.534	0	1447.725	0	19.0	4	5.8	4	-1E+10	1	-1E+10	1	-1E+10	1	-1E+10	1	-1E+10	1	-1E+10	1
4902549	49	C	12/16/2021	12:55	-132.002	47.187	0	1475.20	0	2.4880	0	34.4980	0	27.538	0	1457.770	0	19.7	4	6.0	4	-1E+10	1	-1E+10	1	-1E+10	1	-1E+10	1	-1E+10	1	-1E+10	1
4902549	49	C	12/16/2021	12:55	-132.002	47.187	0	1485.20	0	2.4720	0	34.5010	0	27.542	0	1467.617	0	20.3	4	6.2	4	-1E+10	1	-1E+10	1	-1E+10	1	-1E+10	1	-1E+10	1	-1E+10	1
4902549	49	C	12/16/2021	12:55	-132.002	47.187	0	1495.40	0	2.4560	0	34.5030	0	27.545	0	1477.660	0	20.7	4	6.3	4	-1E+10	1	-1E+10	1	-1E+10	1	-1E+10	1	-1E+10	1	-1E+10	1
4902549	49	C	12/16/2021	12:55	-132.002	47.187	0	1505.70	0	2.4400	0	34.5050	0	27.548	0	1487.802	0	21.2	4	6.4	4	-1E+10	1	-1E+10	1	-1E+10	1	-1E+10	1	-1E+10	1	-1E+10	1
4902549	49	C	12/16/2021	12:55	-132.002	47.187	0	1515.70	0	2.4190	0	34.5070	0	27.551	0	1497.648	0	21.7	4	6.6	4	-1E+10	1	-1E+10	1	-1E+10	1	-1E+10	1	-1E+10	1	-1E+10	1
4902549	49	C	12/16/2021	12:55	-132.002	47.187	0	1525.40	0	2.4090	0	34.5090	0	27.554	0	1507.198	0	22.3	4	6.8	4	-1E+10	1	-1E+10	1	-1E+10	1	-1E+10	1	-1E+10	1	-1E+10	1
4902549	49	C	12/16/2021	12:55	-132.002	47.187	0	1535.10	0	2.3910	0	34.5110	0	27.557	0	1516.747	0	22.8	4	7.0	4	-1E+10	1	-1E+10	1	-1E+10	1	-1E+10	1	-1E+10	1	-1E+10	1
4902549	49	C	12/16/2021	12:55	-132.002	47.187	0	1545.30	0	2.3790	0	34.5130	0	27.559	0	1526.788	0	23.6	4	7.2	4	-1E+10	1	-1E+10	1	-1E+10	1	-1E+10	1	-1E+10	1	-1E+10	1
4902549	49	C	12/16/2021	12:55	-132.002	47.187	0	1555.60	0	2.3620	0	34.5160	0	27.563	0	1536.927	0	24.3	4	7.4	4	-1E+10	1	-1E+10	1	-1E+10	1	-1E+10	1	-1E+10	1	-1E+10	1
4902549	49	C	12/16/2021	12:55	-132.002	47.187	0	1565.60	0	2.3450	0	34.5180	0	27.566	0	1546.771	0	24.8	4	7.5	4	-1E+10	1	-1E+10	1	-1E+10	1	-1E+10	1	-1E+10	1	-1E+10	1
4902549	49	C	12/16/2021	12:55	-132.002	47.187	0	1575.30	0	2.3340	0	34.5190	0	27.568	0	1556.319	0	25.3	4	7.7	4	-1E+10	1	-1E+10	1	-1E+10	1	-1E+10	1	-1E+10	1	-1E+10	1
4902549	49	C	12/16/2021	12:55	-132.002	47.187	0	1585.50	0	2.3190	0	34.5210	0	27.571	0	1566.358	0	26.0	4	7.9	4	-1E+10	1	-1E+10	1	-1E+10	1	-1E+10	1	-1E+10	1	-1E+10	1
4902549	49	C	12/16/2021	12:55	-132.002	47.187	0	1595.40	0	2.3100	0	34.5230	0	27.573	0	1576.102	0	26.5	4	8.0	4	-1E+10	1	-1E+10	1	-1E+10	1	-1E+10	1	-1E+10	1	-1E+10	1
4902549	49	C	12/16/2021	12:55	-132.002	47.187	0	1605.00	0	2.3020	0	34.5240	0	27.575	0	1585.550	0	26.8	4	8.1	4	-1E+10	1	-1E+10	1	-1E+10	1	-1E+10	1	-1E+10	1	-1E+10	1
4902549	49	C	12/16/2021	12:55	-132.002	47.187	0	1615.00	0	2.2970	0	34.5250	0	27.576	0	1595.391	0	27.3	4	8.3	4	-1E+10	1	-1E+10	1	-1E+10	1	-1E+10	1	-1E+10	1	-1E+10	1
4902549	49	C	12/16/2021	12:55	-132.002	47.187	0	1625.20	0	2.2830	0	34.5280	0	27.580	0	1605.428	0	28.2	4	8.6	4	-1E+10	1	-1E+10	1	-1E+10	1	-1E+10	1	-1E+10	1	-1E+10	1
4902549	49	C	12/16/2021	12:55	-132.002	47.187	0	1635.30	0	2.2690	0	34.5300	0	27.582	0	1615.367	0	28.9	4	8.8	4	-1E+10	1	-1E+10	1	-1E+10	1	-1E+10	1	-1E+10	1	-1E+10	1
4902549	49	C	12/16/2021	12:55	-132.002	47.187	0	1645.60	0	2.2480	0	34.5320	0	27.586	0	1625.502	0	29.5	4	8.9	4	-1E+10	1	-1E+10	1	-1E+10	1	-1E+10	1	-1E+10	1	-1E+10	1
4902549	49	C	12/16/2021	12:55	-132.002	47.187	0	1655.50	0	2.2300	0	34.5340	0	27.589	0	1635.243	0	30.2	4	9.1	4	-1E+10	1	-1E+10	1	-1E+10	1	-1E+10	1	-1E+10	1	-1E+10	1
4902549	49	C	12/16/2021	12:55	-132.002	47.187	0	1665.30	0	2.2150	0	34.5360	0	27.592	0	1644.885	0	30.9	4	9.4	4	-1E+10	1	-1E+10	1	-1E+10	1	-1E+10	1	-1E+10	1	-1E+10	1
4902549	49	C	12/16/2021	12:55	-132.002	47.187	0	1675.30	0	2.2040	0	34.5380	0	27.594	0	1654.723	0	31.5	4	9.5	4	-1E+10	1	-1E+10	1	-1E+10	1	-1E+10	1	-1E+10	1	-1E+10	1
4902549	49	C	12/16/2021	12:55	-132.002	47.187	0	1685.50	0	2.1980	0	34.5400	0	27.596	0	1664.758	0	32.3	4	9.8	4	-1E+10	1	-1E+10	1	-1E+10	1	-1E+10	1	-1E+10	1	-1E+10	1
4902549	49	C	12/16/2021	12:55	-132.002	47.187	0	1695.70	0	2.1880	0	34.5420	0	27.599	0	1674.792	0	33.0	4	10.0	4	-1E+10	1	-1E+10	1	-1E+10	1	-1E+10	1	-1E+10	1	-1E+10	1
4902549	49	C	12/16/2021	12:55	-132.002	47.187	0	1705.80	0	2.1830	0	34.5430	0	27.600	0	1684.728	0	33.4	4	10.1	4	-1E+10	1	-1E+10	1	-1E+10	1	-1E+10	1	-1E+10	1	-1E+10	1
4902549	49	C	12/16/2021	12:55	-132.002	47.187	0	1715.50	0	2.1730	0	34.5450	0	27.603	0	1694.269	0	34.1	4	10.3	4	-1E+10	1	-1E+10	1	-1E+10	1	-1E+10	1	-1E+10	1	-1E+10	1
4902549	49	C	12/16/2021	12:55	-132.002	47.187	0	1725.40	0	2.1610	0	34.5470	0	27.605	0	1704.007	0	34.7	4	10.5	4	-1E+10	1	-1E+10	1	-1E+10	1	-1E+10	1	-1E+10	1	-1E+10	1
4902549	49	C	12/16/2021	12:55	-132.002	47.187	0	1735.70	0	2.1510	0	34.5480	0	27.607	0	1714.137	0	35.4	4	10.7	4	-1E+10	1	-1E+10	1	-1E+10	1	-1E+10	1	-1E+10	1	-1E+10	1
4902549	49	C	12/16/2021	12:55	-132.002	47.187	0	1745.70	0	2.1400	0	34.5500	0	27.609	0	1723.972	0	36.3	4	11.0	4	-1E+10	1	-1E+10	1	-1E+10	1	-1E+10	1	-1E+10	1	-1E+10	1
4902549	49	C	12/16/2021	12:55	-132.002	47.187	0	1755.60	0	2.1260	0	34.5520	0	27.612	0	1733.709	0	37.0	4	11.2	4	-1E+10	1	-1E+10	1	-1E+10	1	-1E+10	1	-1E+10	1	-1E+10	1
4902549	49	C	12/16/2021	12:55	-132.002	47.187	0	1765.20	0	2.1170	0	34.5540	0	27.615	0	1743.150	0	37.5	4	11.3	4	-1E+10	1	-1E+10	1	-1E+10	1	-1E+10	1	-1E+10	1	-1E+10	1
4902549	49	C	12/16/2021	12:55	-132.002	47.187	0	1775.40	0	2.1110	0	34.5550	0	27.616	0	1753.180	0	38.1	4	11.5	4	-1E+10	1	-1E+10	1	-1E+10	1	-1E+10	1	-1E+10	1	-1E+10	1
4902549	49	C	12/16/2021	12:55	-132.002	47.187	0	1785.80	0	2.1000	0	34.5570	0	27.618	0	1763.407	0	38.7	4	11.7	4	-1E+10	1	-1E+10	1	-1E+10	1	-1E+10	1	-1E+10	1	-1E+10	1
4902549	49	C	12/16/2021	12:55	-132.002	47.187	0	1795.70	0	2.0950	0	34.5580	0	27.620	0	1773.142	0	39.2	4	11.9	4	-1E+10	1	-1E+10	1	-1E+10	1	-1E+10	1	-1E+10	1	-1E+10	1
4902549	49	C	12/16/2021	12:55	-132.002	47.187	0	1805.50	0	2.0880	0	34.5590	0	27.621	0	1782.777	0	39.8	4	12.0	4	-1E+10	1	-1E+10	1	-1E+10	1	-1E+10	1	-1E+10	1	-1E+10	1
4902549	49	C	12/16/2021	12:55	-132.002	47.187	0	1815.40	0	2.0800	0	34.5600	0	27.623	0	1792.511	0	40.3	4	12.2	4	-1E+10	1	-1E+10	1	-1E+10	1	-1E+10	1	-1E+10	1	-1E+10	1
4902549	49	C	12/16/2021	12:55	-132.002	47.187	0	1826.00	0	2.0710	0	34.5620	0	27.625	0	1802.932	0	40.9	4	12.4	4	-1E+10	1	-1E+10	1	-1E+10	1	-1E+10	1	-1E+10	1	-1E+10	1
4902549	49	C	12/16/2021	12:55	-132.002	47.187	0	1835.60	0	2.0640	0	34.5630	0	27.626	0	1812.370	0	41.5	4	12.5	4	-1E+10	1	-1E+10	1	-1E+10	1	-1E+10	1	-1E+10	1	-1E+10	1
4902549	49	C	12/16/2021	12:55	-132.002	47.187	0	1845.40	0	2.0560	0	34.5650	0	27.629	0	1822.004	0	42.2	4	12.7	4	-1E+10	1	-1E+10	1	-1E+10	1	-1E+10	1	-1E+10	1	-1E+10	1
4902549	49	C	12/16/2021	12:55	-132.002	47.187	0	1855.40	0	2.0460	0	34.5660	0	27.630	0	1831.834	0	42.7	4	12.9	4	-1E+10	1	-1E+10	1	-1E+10	1	-1E+10	1	-1E+10	1	-1E+10	1
4902549	49	C	12/16/2021	12:55	-132.002	47.187	0	1865.30	0	2.0420	0	34.5670	0	27.631	0	1841.566	0	43.2	4	13.0	4	-1E+10	1	-1E+10	1	-1E+10	1	-1E+10	1	-1E+10	1	-1E+10	1
4902549	49	C	12/16/2021	12:55	-132.002	47.187	0	1875.20	0	2.0340	0	34.5680	0	27.633	0	1851.297	0	43.7	4	13.2	4	-1E+10	1	-1E+10	1	-1E+10	1	-1E+10	1	-1E+10	1	-1E+10	1
4902549	49	C	12/16/2021	12:55	-132.002	47.187	0	1885.20	0	2.0280	0	34.5690	0	27.634	0	1861.126	0	44.2	4	13.3	4	-1E+10	1	-1E+10	1	-1E+10	1	-1E+10	1	-1E+10	1	-1E+10	1
4902549	49	C	12/16/2021	12:55	-132.002	47.187	0	1895.30	0	2.0200	0	34.5710	0	27.636	0	1871.052	0	44.7	4	13.5	4	-1E+10	1	-1E+10	1	-1E+10	1	-1E+10	1	-1E+10	1	-1E+10	1
4902549	49	C	12/16/2021	12:55	-132.002	47.187	0	1905.70	0	2.0150	0	34.5720	0	27.638	0	1881.273	0	45.1	4	13.6	4	-1E+10	1	-1E+10	1	-1E+10	1	-1E+10	1	-1E+10	1	-1E+10	1
4902549	49	C	12/16/2021	12:55	-132.002	47.187	0	1915.70	0	2.0130	0	34.5720	0	27.638	0	1891.101	0	45.4	4	13.7	4	-1E+10	1	-1E+10	1	-1E+10	1	-1E+10	1	-1E+10	1	-1E+10	1
4902549	49	C	12/16/2021	12:55	-132.002	47.187	0	1925.30	0	2.0080	0	34.5740	0	27.640	0	1900.535	0	45.9	4	13.8	4	-1E+10	1	-1E+10	1	-1E+10	1	-1E+10	1	-1E+10	1	-1E+10	1
4902549	49	C	12/16/2021	12:55	-132.002	47.187	0	1935.10	0	2.0010	0	34.5740	0	27.641	0	1910.165	0	46.2	4	13.9	4	-1E+10	1	-1E+10	1	-1E+10	1	-1E+10	1	-1E+10	1	-1E+10	1
4902549	49	C	12/16/2021	12:55	-132.002	47.187	0	1945.40	0	1.9960	0	34.5760	0	27.643	0	1920.285	0	46.7	4	14.1	4	-1E+10	1	-1E+10	1	-1E+10	1	-1E+10	1	-1E+10	1	-1E+10	1
4902549	49	C	12/16/2021	12:55	-132.002	47.187	0	1955.30	0	1.9910	0	34.5770	0	27.644	0	1930.013	0	47.2	4	14.2	4	-1E+10	1	-1E+10	1	-1E+10	1	-1E+10	1	-1E+10	1	-1E+10	1
4902549	49	C	12/16/2021	12:55	-132.002	47.187	0	1965.30	0	1.9810	0	34.5790	0	27.646	0	1939.838	0	47.6	4	14.3	4	-1E+10	1	-1E+10	1	-1E+10	1	-1E+10	1	-1E+10	1	-1E+10	1
4902549	49	C	12/16/2021	12:55	-132.002	47.187	0	1976.10	0	1.9770	0	34.5800	0	27.647	0	1950.449	0	47.5	4	14.3	4	-1E+10	1	-1E+10	1	-1E+10	1	-1E+10	1	-1E+10	1	-1E+10	1
4902549	49	C	12/16/2021	12:55	-132.002	47.187	0	1981.30	0	1.9750	0	34.5810	0	27.648	0	1955.557	0	47.3	4	14.3	4	-1E+10	1	-1E+10	1	-1E+10	1	-1E+10	1	-1E+10	1	-1E+10	1
4902549	49	C	12/16/2021	12:55	-132.002	47.187	0																										
4902549	50	C	12/26/2021	17:45	-132.071	47.253	0	0.20	0	8.4820	0	32.3180	0	25.098	0	0.198	0	269.0	4	92.9	4	-1E+10	1	-1E+10	1	-1E+10	1	-1E+10	1	-1E+10	1	-1E+10	1
4902549	50	C	12/26/2021	17:45	-132.071	47.253	0	0.50	0	8.4820	0	32.3183	0	25.098	0	0.496	0	269.0	4	92.9	4	-1E+10	1	-1E+10	1	-1E+10	1	-1E+10	1	-1E+10	1	-1E+10	1
4902549	50	C	12/26/2021	17:45	-132.071	47.253	0	1.10	0	8.4820	0	32.3190	0	25.098	0	1.091	0	269.0	4	92.9	4	-1E+10	1	-1E+10	1	-1E+10	1	-1E+10	1	-1E+10	1	-1E+10	1
4902549	50	C	12/26/2021	17:45	-132.071	47.253	0	2.00	0	8.4870	0	32.3140	0	25.094	0	1.983	0	268.9	4	92.9	4	-1E+10	1	-1E+10	1	-1E+10	1	-1E+10	1	-1E+10	1	-1E+10	1
4902549	50	C	12/26/2021	17:45	-132.071	47.253	0	3.10	0	8.4870	0	32.3150	0	25.095	0	3.074	0	268.9	4	92.9	4	-1E+10	1	-1E+10	1	-1E+10	1	-1E+10	1	-1E+10	1	-1E+10	1
4902549	50	C	12/26/2021	17:45	-132.071	47.253	0	4.10	0	8.4870	0	32.3160	0	25.095	0	4.066	0	268.8	4	92.9	4	-1E+10	1	-1E+10	1	-1E+10	1	-1E+10	1	-1E+10	1	-1E+10	1
4902549	50	C	12/26/2021	17:45	-132.071	47.253	0	4.80	0	8.4870	0	32.3160	0	25.095	0	4.760	0	268.8	4	92.9	4	-1E+10	1	-1E+10	1	-1E+10	1	-1E+10	1	-1E+10	1	-1E+10	1
4902549	50	C	12/26/2021	17:45	-132.071	47.253	0	5.70	0	8.4870	0	32.3160	0	25.095	0	5.652	0	268.7	4	92.8	4	-1E+10	1	-1E+10	1	-1E+10	1	-1E+10	1	-1E+10	1	-1E+10	1
4902549	50	C	12/26/2021	17:45	-132.071	47.253	0	6.80	0	8.4870	0	32.3160	0	25.095	0	6.743	0	268.8	4	92.9	4	-1E+10	1	-1E+10	1	-1E+10	1	-1E+10	1	-1E+10	1	-1E+10	1
4902549	50	C	12/26/2021	17:45	-132.071	47.253	0	7.80	0	8.4870	0	32.3150	0	25.095	0	7.735	0	268.6	4	92.8	4	-1E+10	1	-1E+10	1	-1E+10	1	-1E+10	1	-1E+10	1	-1E+10	1
4902549	50	C	12/26/2021	17:45	-132.071	47.253	0	8.90	0	8.4870	0	32.3160	0	25.095	0	8.826	0	268.7	4	92.8	4	-1E+10	1	-1E+10	1	-1E+10	1	-1E+10	1	-1E+10	1	-1E+10	1
4902549	50	C	12/26/2021	17:45	-132.071	47.253	0	10.10	0	8.4870	0	32.3160	0	25.096	0	10.016	0	268.6	4	92.8	4	-1E+10	1	-1E+10	1	-1E+10	1	-1E+10	1	-1E+10	1	-1E+10	1
4902549	50	C	12/26/2021	17:45	-132.071	47.253	0	11.30	0	8.4870	0	32.3160	0	25.096	0	11.206	0	268.7	4	92.8	4	-1E+10	1	-1E+10	1	-1E+10	1	-1E+10	1	-1E+10	1	-1E+10	1
4902549	50	C	12/26/2021	17:45	-132.071	47.253	0	12.50	0	8.4870	0	32.3160	0	25.096	0	12.396	0	268.6	4	92.8	4	-1E+10	1	-1E+10	1	-1E+10	1	-1E+10	1	-1E+10	1	-1E+10	1
4902549	50	C	12/26/2021	17:45	-132.071	47.253	0	13.80	0	8.4880	0	32.3160	0	25.095	0	13.685	0	268.7	4	92.8	4	-1E+10	1	-1E+10	1	-1E+10	1	-1E+10	1	-1E+10	1	-1E+10	1
4902549	50	C	12/26/2021	17:45	-132.071	47.253	0	15.10	0	8.4870	0	32.3160	0	25.096	0	14.974	0	268.6	4	92.8	4	-1E+10	1	-1E+10	1	-1E+10	1	-1E+10	1	-1E+10	1	-1E+10	1
4902549	50	C	12/26/2021	17:45	-132.071	47.253	0	16.50	0	8.4880	0	32.3160	0	25.095	0	16.362	0	268.6	4	92.8	4	-1E+10	1	-1E+10	1	-1E+10	1	-1E+10	1	-1E+10	1	-1E+10	1
4902549	50	C	12/26/2021	17:45	-132.071	47.253	0	17.50	0	8.4870	0	32.3160	0	25.096	0	17.354	0	268.6	4	92.8	4	-1E+10	1	-1E+10	1	-1E+10	1	-1E+10	1	-1E+10	1	-1E+10	1
4902549	50	C	12/26/2021	17:45	-132.071	47.253	0	18.80	0	8.4880	0	32.3160	0	25.095	0	18.643	0	268.6	4	92.8	4	-1E+10	1	-1E+10	1	-1E+10	1	-1E+10	1	-1E+10	1	-1E+10	1
4902549	50	C	12/26/2021	17:45	-132.071	47.253	0	20.20	0	8.4880	0	32.3150	0	25.095	0	20.031	0	268.5	4	92.8	4	-1E+10	1	-1E+10	1	-1E+10	1	-1E+10	1	-1E+10	1	-1E+10	1
4902549	50	C	12/26/2021	17:45	-132.071	47.253	0	21.60	0	8.4900	0	32.3160	0	25.095	0	21.419	0	268.6	4	92.8	4	-1E+10	1	-1E+10	1	-1E+10	1	-1E+10	1	-1E+10	1	-1E+10	1
4902549	50	C	12/26/2021	17:45	-132.071	47.253	0	22.80	0	8.4900	0	32.3160	0	25.095	0	22.609	0	268.5	4	92.8	4	-1E+10	1	-1E+10	1	-1E+10	1	-1E+10	1	-1E+10	1	-1E+10	1
4902549	50	C	12/26/2021	17:45	-132.071	47.253	0	24.20	0	8.4880	0	32.3160	0	25.096	0	23.997	0	268.5	4	92.8	4	-1E+10	1	-1E+10	1	-1E+10	1	-1E+10	1	-1E+10	1	-1E+10	1
4902549	50	C	12/26/2021	17:45	-132.071	47.253	0	25.50	0	8.4900	0	32.3160	0	25.095	0	25.286	0	268.5	4	92.8	4	-1E+10	1	-1E+10	1	-1E+10	1	-1E+10	1	-1E+10	1	-1E+10	1
4902549	50	C	12/26/2021	17:45	-132.071	47.253	0	26.80	0	8.4890	0	32.3160	0	25.095	0	26.575	0	268.5	4	92.8	4	-1E+10	1	-1E+10	1	-1E+10	1	-1E+10	1	-1E+10	1	-1E+10	1
4902549	50	C	12/26/2021	17:45	-132.071	47.253	0	28.20	0	8.4890	0	32.3150	0	25.095	0	27.963	0	268.4	4	92.8	4	-1E+10	1	-1E+10	1	-1E+10	1	-1E+10	1	-1E+10	1	-1E+10	1
4902549	50	C	12/26/2021	17:45	-132.071	47.253	0	29.50	0	8.4900	0	32.3150	0	25.095	0	29.252	0	268.4	4	92.8	4	-1E+10	1	-1E+10	1	-1E+10	1	-1E+10	1	-1E+10	1	-1E+10	1
4902549	50	C	12/26/2021	17:45	-132.071	47.253	0	30.80	0	8.4910	0	32.3160	0	25.095	0	30.541	0	268.4	4	92.8	4	-1E+10	1	-1E+10	1	-1E+10	1	-1E+10	1	-1E+10	1	-1E+10	1
4902549	50	C	12/26/2021	17:45	-132.071	47.253	0	32.20	0	8.4900	0	32.3160	0	25.095	0	31.929	0	268.4	4	92.7	4	-1E+10	1	-1E+10	1	-1E+10	1	-1E+10	1	-1E+10	1	-1E+10	1
4902549	50	C	12/26/2021	17:45	-132.071	47.253	0	33.40	0	8.4890	0	32.3160	0	25.096	0	33.119	0	268.4	4	92.8	4	-1E+10	1	-1E+10	1	-1E+10	1	-1E+10	1	-1E+10	1	-1E+10	1
4902549	50	C	12/26/2021	17:45	-132.071	47.253	0	34.70	0	8.4890	0	32.3160	0	25.096	0	34.408	0	268.4	4	92.7	4	-1E+10	1	-1E+10	1	-1E+10	1	-1E+10	1	-1E+10	1	-1E+10	1
4902549	50	C	12/26/2021	17:45	-132.071	47.253	0	36.10	0	8.4920	0	32.3160	0	25.095	0	35.796	0	268.4	4	92.8	4	-1E+10	1	-1E+10	1	-1E+10	1	-1E+10	1	-1E+10	1	-1E+10	1
4902549	50	C	12/26/2021	17:45	-132.071	47.253	0	37.50	0	8.4890	0	32.3160	0	25.096	0	37.184	0	268.3	4	92.7	4	-1E+10	1	-1E+10	1	-1E+10	1	-1E+10	1	-1E+10	1	-1E+10	1
4902549	50	C	12/26/2021	17:45	-132.071	47.253	0	38.90	0	8.4900	0	32.3150	0	25.095	0	38.573	0	268.4	4	92.7	4	-1E+10	1	-1E+10	1	-1E+10	1	-1E+10	1	-1E+10	1	-1E+10	1
4902549	50	C	12/26/2021	17:45	-132.071	47.253	0	40.30	0	8.4890	0	32.3160	0	25.096	0	39.961	0	268.3	4	92.7	4	-1E+10	1	-1E+10	1	-1E+10	1	-1E+10	1	-1E+10	1	-1E+10	1
4902549	50	C	12/26/2021	17:45	-132.071	47.253	0	41.60	0	8.4890	0	32.3160	0	25.096	0	41.250	0	268.2	4	92.7	4	-1E+10	1	-1E+10	1	-1E+10	1	-1E+10	1	-1E+10	1	-1E+10	1
4902549	50	C	12/26/2021	17:45	-132.071	47.253	0	43.00	0	8.4920	0	32.3150	0	25.094	0	42.638	0	268.2	4	92.7	4	-1E+10	1	-1E+10	1	-1E+10	1	-1E+10	1	-1E+10	1	-1E+10	1
4902549	50	C	12/26/2021	17:45	-132.071	47.253	0	44.20	0	8.4920	0	32.3150	0	25.094	0	43.827	0	268.2	4	92.7	4	-1E+10	1	-1E+10	1	-1E+10	1	-1E+10	1	-1E+10	1	-1E+10	1
4902549	50	C	12/26/2021	17:45	-132.071	47.253	0	45.50	0	8.4910	0	32.3160	0	25.095	0	45.116	0	268.1	4	92.7	4	-1E+10	1	-1E+10	1	-1E+10	1	-1E+10	1	-1E+10	1	-1E+10	1
4902549	50	C	12/26/2021	17:45	-132.071	47.253	0	46.70	0	8.4920	0	32.3160	0	25.095	0	46.306	0	268.2	4	92.7	4	-1E+10	1	-1E+10	1	-1E+10	1	-1E+10	1	-1E+10	1	-1E+10	1
4902549	50	C	12/26/2021	17:45	-132.071	47.253	0	47.90	0	8.4890	0	32.3170	0	25.097	0	47.496	0	268.2	4	92.7	4	-1E+10	1	-1E+10	1	-1E+10	1	-1E+10	1	-1E+10	1	-1E+10	1
4902549	50	C	12/26/2021	17:45	-132.071	47.253	0	49.00	0	8.4900	0	32.3160	0	25.096	0	48.586	0	268.2	4	92.7	4	-1E+10	1	-1E+10	1	-1E+10	1	-1E+10	1	-1E+10	1	-1E+10	1
4902549	50	C	12/26/2021	17:45	-132.071	47.253	0	50.10	0	8.4890	0	32.3180	0	25.097	0	49.677	0	268.1	4	92.6	4	-1E+10	1	-1E+10	1	-1E+10	1	-1E+10	1	-1E+10	1	-1E+10	1
4902549	50	C	12/26/2021	17:45	-132.071	47.253	0	51.20	0	8.4880	0	32.3170	0	25.097	0	50.768	0	268.1	4	92.6	4	-1E+10	1	-1E+10	1	-1E+10	1	-1E+10	1	-1E+10	1	-1E+10	1
4902549	50	C	12/26/2021	17:45	-132.071	47.253	0	52.30	0	8.4910	0	32.3160	0	25.096	0	51.858	0	268.1	4	92.6	4	-1E+10	1	-1E+10	1	-1E+10	1	-1E+10	1	-1E+10	1	-1E+10	1
4902549	50	C	12/26/2021	17:45	-132.071	47.253	0	53.30	0	8.4920	0	32.3160	0	25.095	0	52.850	0	268.1	4	92.7	4	-1E+10	1	-1E+10	1	-1E+10	1	-1E+10	1	-1E+10	1	-1E+10	1
4902549	50	C	12/26/2021	17:45	-132.071	47.253	0	54.40	0	8.4920	0	32.3160	0	25.095	0	53.940	0	268.0	4	92.6	4	-1E+10	1	-1E+10	1	-1E+10	1	-1E+10	1	-1E+10	1	-1E+10	1
4902549	50	C	12/26/2021	17:45	-132.071	47.253	0	55.30	0	8.4920	0	32.3160	0	25.095	0	54.832	0	268.0	4	92.6	4	-1E+10	1	-1E+10	1	-1E+10	1	-1E+10	1	-1E+10	1	-1E+10	1
4902549	50	C	12/26/2021	17:45	-132.071	47.253	0	56.30	0	8.4920	0	32.3160	0	25.095	0	55.824	0	267.9	4	92.6	4	-1E+10	1	-1E+10	1	-1E+10	1	-1E+10	1	-1E+10	1	-1E+10	1
4902549	50	C	12/26/2021	17:45	-132.071	47.253	0	57.20	0	8.4930	0	32.3160	0	25.095	0	56.716	0	267.9	4	92.6	4	-1E+10	1	-1E+10	1	-1E+10	1	-1E+10	1	-1E+10	1	-1E+10	1
4902549	50	C	12/26/2021	17:45	-132.071	47.253	0	58.20	0	8.4930	0	32.3160	0	25.095	0	57.707	0	267.9	4	92.6	4	-1E+10	1	-1E+10	1	-1E+10	1	-1E+10	1	-1E+10	1	-1E+10	1
4902549	50	C	12/26/2021	17:45	-132.071	47.253	0	59.00	0	8.4930	0	32.3160	0	25.095	0	58.501	0	267.9	4	92.6	4	-1E+10	1	-1E+10	1	-1E+10	1	-1E+10	1	-1E+10	1	-1E+10	1
4902549	50	C	12/26/2021	17:45	-132.071	47.253	0	59.80	0	8.4920	0	32.3160	0	25.096	0	59.294	0	267.8	4	92.6	4	-1E+10	1	-1E+10	1	-1E+10	1	-1E+10	1	-1E+10	1	-1E+10	1
4902549	50	C	12/26/2021	17:45	-132.071	47.253	0	61.00	0	8.4930	0	32.3160	0	25.095	0	60.483	0	267.7	4	92.5	4	-1E+10	1	-1E+10	1	-1E+10	1	-1E+10	1	-1E+10	1	-1E+10	1
4902549	50	C	12/26/2021	17:45	-132.071	47.253	0	62.10	0	8.4930	0	32.3160	0	25.095	0	61.574	0	267.7	4	92.5	4	-1E+10	1	-1E+10	1	-1E+10	1	-1E+10	1	-1E+10	1	-1E+10	1
4902549	50	C	12/26/2021	17:45	-132.071	47.253	0	62.90	0	8.4930	0	32.3160	0	25.095	0	62.367	0	267.7	4	92.5	4	-1E+10	1	-1E+10	1	-1E+10	1	-1E+10	1	-1E+10	1	-1E+10	1
4902549	50	C	12/26/2021	17:45	-132.071	47.253	0	63.80	0	8.4930	0	32.3160	0	25.095	0	63.259	0	267.5	4	92.4	4	-1E+10	1	-1E+10	1	-1E+10	1	-1E+10	1	-1E+10	1	-1E+10	1
4902549	50	C	12/26/2021	17:45	-132.071	47.253	0	64.90	0	8.4910	0	32.3160	0	25.096	0	64.350	0	267.4	4	92.4	4	-1E+10	1	-1E+10	1	-1E+10	1	-1E+10	1	-1E+10	1	-1E+10	1
4902549	50	C	12/26/2021	17:45	-132.071	47.253	0	66.10	0	8.4910	0	32.3160	0	25.096	0	65.539	0	267.4	4	92.4	4	-1E+10	1	-1E+10	1	-1E+10	1	-1E+10	1	-1E+10	1	-1E+10	1
4902549	50	C	12/26/2021	17:45	-132.071	47.253	0	66.90	0	8.4920	0	32.3170	0	25.096	0	66.332	0	267.3	4	92.4	4	-1E+10	1	-1E+10	1	-1E+10	1	-1E+10	1	-1E+10	1	-1E+10	1
4902549	50	C	12/26/2021	17:45	-132.071	47.253	0	67.70	0	8.4900	0	32.3170	0	25.097	0	67.125	0	267.3	4	92.4	4	-1E+10	1	-1E+10	1	-1E+10	1	-1E+10	1	-1E+10	1	-1E+10	1
4902549	50	C	12/26/2021	17:45	-132.071	47.253	0	69.00	0	8.4900	0	32.3170	0	25.097	0	68.414	0	267.2	4	92.3	4	-1E+10	1	-1E+10	1	-1E+10	1	-1E+10	1	-1E+10	1	-1E+10	1
4902549	50	C	12/26/2021	17:45	-132.071	47.253	0	70.20	0	8.4900	0	32.3160	0	25.096	0	69.604	0	267.0	4	92.3	4	-1E+10	1	-1E+10	1	-1E+10	1	-1E+10	1	-1E+10	1	-1E+10	1
4902549	50	C	12/26/2021	17:45	-132.071	47.253	0	71.10	0	8.4860	0	32.3180	0	25.098	0	70.496	0	267.1	4	92.3	4	-1E+10	1	-1E+10	1	-1E+10	1	-1E+10	1	-1E+10	1	-1E+10	1
4902549	50	C	12/26/2021	17:45	-132.071	47.253	0	72.00	0	8.4870	0	32.3170	0	25.097	0	71.388	0	266.9	4	92.2	4	-1E+10	1	-1E+10	1	-1E+10	1	-1E+10	1	-1E+10	1	-1E+10	1
4902549	50	C	12/26/2021	17:45	-132.071	47.253	0	72.90	0	8.4870	0	32.3180	0	25.098	0	72.280	0	266.8	4	92.2	4	-1E+10	1	-1E+10	1	-1E+10	1	-1E+10	1	-1E+10	1	-1E+10	1
4902549	50	C	12/26/2021	17:45	-132.071	47.253	0	73.70	0	8.4880	0	32.3160	0	25.096	0	73.074	0	266.8	4	92.2	4	-1E+10	1	-1E+10	1	-1E+10	1	-1E+10	1	-1E+10	1	-1E+10	1
4902549	50	C	12/26/2021	17:45	-132.071	47.253	0	74.60	0	8.4840	0	32.3180	0	25.098	0	73.966	0	266.7	4	92.1	4	-1E+10	1	-1E+10	1	-1E+10	1	-1E+10	1	-1E+10	1	-1E+10	1
4902549	50	C	12/26/2021	17:45	-132.071	47.253	0	75.90	0	8.4800	0	32.3170	0	25.098	0	75.254	0	266.5	4	92.1	4	-1E+10	1	-1E+10	1	-1E+10	1	-1E+10	1	-1E+10	1	-1E+10	1
4902549	50	C	12/26/2021	17:45	-132.071	47.253	0	77.20	0	8.4850	0	32.3180	0	25.098	0	76.543	0	266.3	4	92.0	4	-1E+10	1	-1E+10	1	-1E+10	1	-1E+10	1	-1E+10	1	-1E+10	1
4902549	50	C	12/26/2021	17:45	-132.071	47.253	0	78.10	0	8.4870	0	32.3170	0	25.097	0	77.435	0	266.2	4	92.0	4	-1E+10	1	-1E+10	1	-1E+10	1	-1E+10	1	-1E+10	1	-1E+10	1
4902549	50	C	12/26/2021	17:45	-132.071	47.253	0	79.00	0	8.4840	0	32.3180	0	25.099	0	78.327	0	266.0	4	91.9	4	-1E+10	1	-1E+10	1	-1E+10	1	-1E+10	1	-1E+10	1	-1E+10	1
4902549	50	C	12/26/2021	17:45	-132.071	47.253	0	79.90	0	8.4850	0	32.3190	0	25.099	0	79.220	0	265.8	4	91.9	4	-1E+10	1	-1E+10	1	-1E+10	1	-1E+10	1	-1E+10	1	-1E+10	1
4902549	50	C	12/26/2021	17:45	-132.071	47.253	0	80.80	0	8.4850	0	32.3180	0	25.098	0	80.112	0	265.6	4	91.8	4	-1E+10	1	-1E+10	1	-1E+10	1	-1E+10	1	-1E+10	1	-1E+10	1
4902549	50	C	12/26/2021	17:45	-132.071	47.253	0	82.00	0	8.4840	0	32.3180	0	25.099	0	81.301	0	265.3	4	91.7	4	-1E+10	1	-1E+10	1	-1E+10	1	-1E+10	1	-1E+10	1	-1E+10	1
4902549	50	C	12/26/2021	17:45	-132.071	47.253	0	83.10	0	8.4870	0	32.3180	0	25.098	0	82.392	0	265.0	4	91.6	4	-1E+10	1	-1E+10	1	-1E+10	1	-1E+10	1	-1E+10	1	-1E+10	1
4902549	50	C	12/26/2021	17:45	-132.071	47.253	0	83.90	0	8.4850	0	32.3180	0	25.098	0	83.185	0	264.6	4	91.4	4	-1E+10	1	-1E+10	1	-1E+10	1	-1E+10	1	-1E+10	1	-1E+10	1
4902549	50	C	12/26/2021	17:45	-132.071	47.253	0	84.90	0	8.4820	0	32.3180	0	25.099	0	84.176	0	264.1	4	91.2	4	-1E+10	1	-1E+10	1	-1E+10	1	-1E+10	1	-1E+10	1	-1E+10	1
4902549	50	C	12/26/2021	17:45	-132.071	47.253	0	86.10	0	8.4820	0	32.3160	0	25.097	0	85.366	0	263.6	4	91.1	4	-1E+10	1	-1E+10	1	-1E+10	1	-1E+10	1	-1E+10	1	-1E+10	1
4902549	50	C	12/26/2021	17:45	-132.071	47.253	0	86.90	0	8.4800	0	32.3190	0	25.100	0	86.159	0	263.2	4	90.9	4	-1E+10	1	-1E+10	1	-1E+10	1	-1E+10	1	-1E+10	1	-1E+10	1
4902549	50	C	12/26/2021	17:45	-132.071	47.253	0	87.90	0	8.4900	0	32.3160	0	25.096	0	87.150	0	262.3	4	90.7	4	-1E+10	1	-1E+10	1	-1E+10	1	-1E+10	1	-1E+10	1	-1E+10	1
4902549	50	C	12/26/2021	17:45	-132.071	47.253	0	89.10	0	8.4870	0	32.3170	0	25.097	0	88.339	0	261.0	4	90.2	4	-1E+10	1	-1E+10	1	-1E+10	1	-1E+10	1	-1E+10	1	-1E+10	1
4902549	50	C	12/26/2021	17:45	-132.071	47.253	0	90.30	0	8.4810	0	32.3160	0	25.098	0	89.529	0	259.3	4	89.6	4	-1E+10	1	-1E+10	1	-1E+10	1	-1E+10	1	-1E+10	1	-1E+10	1
4902549	50	C	12/26/2021	17:45	-132.071	47.253	0	90.90	0	8.4630	0	32.3190	0	25.103	0	90.124	0	264.2	4	91.2	4	-1E+10	1	-1E+10	1	-1E+10	1	-1E+10	1	-1E+10	1	-1E+10	1
4902549	50	C	12/26/2021	17:45	-132.071	47.253	0	91.80	0	8.3320	0	32.3280	0	25.129	0	91.016	0	255.3	4	87.9	4	-1E+10	1	-1E+10	1	-1E+10	1	-1E+10	1	-1E+10	1	-1E+10	1
4902549	50	C	12/26/2021	17:45	-132.071	47.253	0	92.70	0	7.6560	0	32.4780	0	25.344	0	91.908	0	247.7	4	84.1	4	-1E+10	1	-1E+10	1	-1E+10	1	-1E+10	1	-1E+10	1	-1E+10	1
4902549	50	C	12/26/2021	17:45	-132.071	47.253	0	93.80	0	7.3370	0	32.5700	0	25.461	0	92.998	0	245.5	4	82.8	4	-1E+10	1	-1E+10	1	-1E+10	1	-1E+10	1	-1E+10	1	-1E+10	1
4902549	50	C	12/26/2021	17:45	-132.071	47.253	0	95.00	0	7.3450	0	32.6200	0	25.499	0	94.188	0	244.6	4	82.6	4	-1E+10	1	-1E+10	1	-1E+10	1	-1E+10	1	-1E+10	1	-1E+10	1
4902549	50	C	12/26/2021	17:45	-132.071	47.253	0	95.90	0	7.3520	0	32.6370	0	25.511	0	95.080	0	244.3	4	82.5	4	-1E+10	1	-1E+10	1	-1E+10	1	-1E+10	1	-1E+10	1	-1E+10	1
4902549	50	C	12/26/2021	17:45	-132.071	47.253	0	96.70	0	7.3650	0	32.6550	0	25.524	0	95.873	0	244.3	4	82.5	4	-1E+10	1	-1E+10	1	-1E+10	1	-1E+10	1	-1E+10	1	-1E+10	1
4902549	50	C	12/26/2021	17:45	-132.071	47.253	0	97.80	0	7.3480	0	32.6650	0	25.534	0	96.963	0	244.3	4	82.5	4	-1E+10	1	-1E+10	1	-1E+10	1	-1E+10	1	-1E+10	1	-1E+10	1
4902549	50	C	12/26/2021	17:45	-132.071	47.253	0	99.00	0	7.2960	0	32.6680	0	25.544	0	98.152	0	244.6	4	82.5	4	-1E+10	1	-1E+10	1	-1E+10	1	-1E+10	1	-1E+10	1	-1E+10	1
4902549	50	C	12/26/2021	17:45	-132.071	47.253	0	100.10	0	7.2360	0	32.6820	0	25.563	0	99.243	0	244.6	4	82.4	4	-1E+10	1	-1E+10	1	-1E+10	1	-1E+10	1	-1E+10	1	-1E+10	1
4902549	50	C	12/26/2021	17:45	-132.071	47.253	0	101.10	0	7.0970	0	32.6950	0	25.592	0	100.234	0	244.1	4	82.0	4	-1E+10	1	-1E+10	1	-1E+10	1	-1E+10	1	-1E+10	1	-1E+10	1
4902549	50	C	12/26/2021	17:45	-132.071	47.253	0	102.10	0	7.0750	0	32.7000	0	25.599	0	101.225	0	242.4	4	81.4	4	-1E+10	1	-1E+10	1	-1E+10	1	-1E+10	1	-1E+10	1	-1E+10	1
4902549	50	C	12/26/2021	17:45	-132.071	47.253	0	103.00	0	7.0560	0	32.7130	0	25.611	0	102.117	0	240.8	4	80.8	4	-1E+10	1	-1E+10	1	-1E+10	1	-1E+10	1	-1E+10	1	-1E+10	1
4902549	50	C	12/26/2021	17:45	-132.071	47.253	0	103.90	0	7.0610	0	32.7470	0	25.638	0	103.009	0	238.8	4	80.1	4	-1E+10	1	-1E+10	1	-1E+10	1	-1E+10	1	-1E+10	1	-1E+10	1
4902549	50	C	12/26/2021	17:45	-132.071	47.253	0	104.90	0	7.0910	0	32.7860	0	25.664	0	104.000	0	237.3	4	79.7	4	-1E+10	1	-1E+10	1	-1E+10	1	-1E+10	1	-1E+10	1	-1E+10	1
4902549	50	C	12/26/2021	17:45	-132.071	47.253	0	106.10	0	7.1010	0	32.8060	0	25.679	0	105.190	0	236.0	4	79.3	4	-1E+10	1	-1E+10	1	-1E+10	1	-1E+10	1	-1E+10	1	-1E+10	1
4902549	50	C	12/26/2021	17:45	-132.071	47.253	0	106.90	0	7.1050	0	32.8120	0	25.683	0	105.983	0	234.9	4	79.0	4	-1E+10	1	-1E+10	1	-1E+10	1	-1E+10	1	-1E+10	1	-1E+10	1
4902549	50	C	12/26/2021	17:45	-132.071	47.253	0	108.10	0	7.1060	0	32.8160	0	25.686	0	107.172	0	233.1	4	78.4	4	-1E+10	1	-1E+10	1	-1E+10	1	-1E+10	1	-1E+10	1	-1E+10	1
4902549	50	C	12/26/2021	17:45	-132.071	47.253	0	108.80	0	7.1090	0	32.8270	0	25.694	0	107.866	0	231.8	4	77.9	4	-1E+10	1	-1E+10	1	-1E+10	1	-1E+10	1	-1E+10	1	-1E+10	1
4902549	50	C	12/26/2021	17:45	-132.071	47.253	0	109.80	0	7.1060	0	32.8510	0	25.713	0	108.857	0	229.6	4	77.2	4	-1E+10	1	-1E+10	1	-1E+10	1	-1E+10	1	-1E+10	1	-1E+10	1
4902549	50	C	12/26/2021	17:45	-132.071	47.253	0	111.10	0	7.1160	0	32.8780	0	25.733	0	110.146	0	225.9	4	76.0	4	-1E+10	1	-1E+10	1	-1E+10	1	-1E+10	1	-1E+10	1	-1E+10	1
4902549	50	C	12/26/2021	17:45	-132.071	47.253	0	112.10	0	7.1080	0	32.9190	0	25.767	0	111.137	0	222.8	4	74.9	4	-1E+10	1	-1E+10	1	-1E+10	1	-1E+10	1	-1E+10	1	-1E+10	1
4902549	50	C	12/26/2021	17:45	-132.071	47.253	0	112.90	0	7.1240	0	32.9650	0	25.801	0	111.930	0	220.7	4	74.3	4	-1E+10	1	-1E+10	1	-1E+10	1	-1E+10	1	-1E+10	1	-1E+10	1
4902549	50	C	12/26/2021	17:45	-132.071	47.253	0	114.20	0	7.1360	0	33.0260	0	25.847	0	113.218	0	217.9	4	73.4	4	-1E+10	1	-1E+10	1	-1E+10	1	-1E+10	1	-1E+10	1	-1E+10	1
4902549	50	C	12/26/2021	17:45	-132.071	47.253	0	114.90	0	7.1390	0	33.0350	0	25.854	0	113.912	0	216.6	4	73.0	4	-1E+10	1	-1E+10	1	-1E+10	1	-1E+10	1	-1E+10	1	-1E+10	1
4902549	50	C	12/26/2021	17:45	-132.071	47.253	0	116.00	0	7.1430	0	33.0740	0	25.884	0	115.002	0	214.7	4	72.4	4	-1E+10	1	-1E+10	1	-1E+10	1	-1E+10	1	-1E+10	1	-1E+10	1
4902549	50	C	12/26/2021	17:45	-132.071	47.253	0	116.90	0	7.1470	0	33.0910	0	25.897	0	115.894	0	213.3	4	71.9	4	-1E+10	1	-1E+10	1	-1E+10	1	-1E+10	1	-1E+10	1	-1E+10	1
4902549	50	C	12/26/2021	17:45	-132.071	47.253	0	117.90	0	7.1480	0	33.1000	0	25.904	0	116.885	0	211.7	4	71.4	4	-1E+10	1	-1E+10	1	-1E+10	1	-1E+10	1	-1E+10	1	-1E+10	1
4902549	50	C	12/26/2021	17:45	-132.071	47.253	0	119.00	0	7.1530	0	33.1230	0	25.921	0	117.975	0	210.1	4	70.9	4	-1E+10	1	-1E+10	1	-1E+10	1	-1E+10	1	-1E+10	1	-1E+10	1
4902549	50	C	12/26/2021	17:45	-132.071	47.253	0	119.80	0	7.1580	0	33.1640	0	25.953	0	118.768	0	209.2	4	70.6	4	-1E+10	1	-1E+10	1	-1E+10	1	-1E+10	1	-1E+10	1	-1E+10	1
4902549	50	C	12/26/2021	17:45	-132.071	47.253	0	121.00	0	7.1650	0	33.2230	0	25.998	0	119.958	0	208.1	4	70.3	4	-1E+10	1	-1E+10	1	-1E+10	1	-1E+10	1	-1E+10	1	-1E+10	1
4902549	50	C	12/26/2021	17:45	-132.071	47.253	0	122.20	0	7.1660	0	33.2310	0	26.005	0	121.147	0	207.0	4	69.9	4	-1E+10	1	-1E+10	1	-1E+10	1	-1E+10	1	-1E+10	1	-1E+10	1
4902549	50	C	12/26/2021	17:45	-132.071	47.253	0	123.00	0	7.1650	0	33.2320	0	26.006	0	121.940	0	206.2	4	69.6	4	-1E+10	1	-1E+10	1	-1E+10	1	-1E+10	1	-1E+10	1	-1E+10	1
4902549	50	C	12/26/2021	17:45	-132.071	47.253	0	123.80	0	7.1660	0	33.2420	0	26.013	0	122.733	0	205.4	4	69.4	4	-1E+10	1	-1E+10	1	-1E+10	1	-1E+10	1	-1E+10	1	-1E+10	1
4902549	50	C	12/26/2021	17:45	-132.071	47.253	0	124.70	0	7.1660	0	33.2510	0	26.020	0	123.625	0	204.7	4	69.1	4	-1E+10	1	-1E+10	1	-1E+10	1	-1E+10	1	-1E+10	1	-1E+10	1
4902549	50	C	12/26/2021	17:45	-132.071	47.253	0	126.00	0	7.1690	0	33.3080	0	26.065	0	124.913	0	203.8	4	68.9	4	-1E+10	1	-1E+10	1	-1E+10	1	-1E+10	1	-1E+10	1	-1E+10	1
4902549	50	C	12/26/2021	17:45	-132.071	47.253	0	127.30	0	7.1740	0	33.3280	0	26.080	0	126.202	0	203.0	4	68.6	4	-1E+10	1	-1E+10	1	-1E+10	1	-1E+10	1	-1E+10	1	-1E+10	1
4902549	50	C	12/26/2021	17:45	-132.071	47.253	0	128.20	0	7.1760	0	33.3280	0	26.080	0	127.093	0	202.5	4	68.4	4	-1E+10	1	-1E+10	1	-1E+10	1	-1E+10	1	-1E+10	1	-1E+10	1
4902549	50	C	12/26/2021	17:45	-132.071	47.253	0	129.00	0	7.1800	0	33.3310	0	26.081	0	127.886	0	202.0	4	68.3	4	-1E+10	1	-1E+10	1	-1E+10	1	-1E+10	1	-1E+10	1	-1E+10	1
4902549	50	C	12/26/2021	17:45	-132.071	47.253	0	129.90	0	7.1830	0	33.3350	0	26.084	0	128.778	0	201.3	4	68.0	4	-1E+10	1	-1E+10	1	-1E+10	1	-1E+10	1	-1E+10	1	-1E+10	1
4902549	50	C	12/26/2021	17:45	-132.071	47.253	0	130.80	0	7.1860	0	33.3470	0	26.093	0	129.670	0	200.6	4	67.8	4	-1E+10	1	-1E+10	1	-1E+10	1	-1E+10	1	-1E+10	1	-1E+10	1
4902549	50	C	12/26/2021	17:45	-132.071	47.253	0	131.70	0	7.1920	0	33.3660	0	26.107	0	130.562	0	200.0	4	67.6	4	-1E+10	1	-1E+10	1	-1E+10	1	-1E+10	1	-1E+10	1	-1E+10	1
4902549	50	C	12/26/2021	17:45	-132.071	47.253	0	132.60	0	7.2100	0	33.3880	0	26.122	0	131.454	0	199.6	4	67.5	4	-1E+10	1	-1E+10	1	-1E+10	1	-1E+10	1	-1E+10	1	-1E+10	1
4902549	50	C	12/26/2021	17:45	-132.071	47.253	0	133.90	0	7.2130	0	33.3990	0	26.130	0	132.742	0	198.9	4	67.3	4	-1E+10	1	-1E+10	1	-1E+10	1	-1E+10	1	-1E+10	1	-1E+10	1
4902549	50	C	12/26/2021	17:45	-132.071	47.253	0	135.40	0	7.2160	0	33.4010	0	26.132	0	134.229	0	198.2	4	67.1	4	-1E+10	1	-1E+10	1	-1E+10	1	-1E+10	1	-1E+10	1	-1E+10	1
4902549	50	C	12/26/2021	17:45	-132.071	47.253	0	136.30	0	7.2150	0	33.4060	0	26.136	0	135.121	0	197.8	4	66.9	4	-1E+10	1	-1E+10	1	-1E+10	1	-1E+10	1	-1E+10	1	-1E+10	1
4902549	50	C	12/26/2021	17:45	-132.071	47.253	0	137.30	0	7.2000	0	33.4160	0	26.146	0	136.112	0	197.4	4	66.8	4	-1E+10	1	-1E+10	1	-1E+10	1	-1E+10	1	-1E+10	1	-1E+10	1
4902549	50	C	12/26/2021	17:45	-132.071	47.253	0	138.20	0	7.1870	0	33.4170	0	26.148	0	137.004	0	196.9	4	66.6	4	-1E+10	1	-1E+10	1	-1E+10	1	-1E+10	1	-1E+10	1	-1E+10	1
4902549	50	C	12/26/2021	17:45	-132.071	47.253	0	139.20	0	7.1770	0	33.4270	0	26.158	0	137.995	0	196.4	4	66.4	4	-1E+10	1	-1E+10	1	-1E+10	1	-1E+10	1	-1E+10	1	-1E+10	1
4902549	50	C	12/26/2021	17:45	-132.071	47.253	0	140.10	0	7.1760	0	33.4330	0	26.162	0	138.887	0	195.9	4	66.2	4	-1E+10	1	-1E+10	1	-1E+10	1	-1E+10	1	-1E+10	1	-1E+10	1
4902549	50	C	12/26/2021	17:45	-132.071	47.253	0	141.00	0	7.1900	0	33.4470	0	26.172	0	139.779	0	195.3	4	66.1	4	-1E+10	1	-1E+10	1	-1E+10	1	-1E+10	1	-1E+10	1	-1E+10	1
4902549	50	C	12/26/2021	17:45	-132.071	47.253	0	141.90	0	7.1990	0	33.4580	0	26.179	0	140.671	0	194.7	4	65.9	4	-1E+10	1	-1E+10	1	-1E+10	1	-1E+10	1	-1E+10	1	-1E+10	1
4902549	50	C	12/26/2021	17:45	-132.071	47.253	0	142.90	0	7.1990	0	33.4620	0	26.182	0	141.662	0	194.1	4	65.7	4	-1E+10	1	-1E+10	1	-1E+10	1	-1E+10	1	-1E+10	1	-1E+10	1
4902549	50	C	12/26/2021	17:45	-132.071	47.253	0	143.80	0	7.1950	0	33.4740	0	26.192	0	142.553	0	193.7	4	65.6	4	-1E+10	1	-1E+10	1	-1E+10	1	-1E+10	1	-1E+10	1	-1E+10	1
4902549	50	C	12/26/2021	17:45	-132.071	47.253	0	144.80	0	7.1950	0	33.4840	0	26.200	0	143.544	0	193.1	4	65.4	4	-1E+10	1	-1E+10	1	-1E+10	1	-1E+10	1	-1E+10	1	-1E+10	1
4902549	50	C	12/26/2021	17:45	-132.071	47.253	0	145.70	0	7.1970	0	33.4910	0	26.205	0	144.436	0	192.6	4	65.2	4	-1E+10	1	-1E+10	1	-1E+10	1	-1E+10	1	-1E+10	1	-1E+10	1
4902549	50	C	12/26/2021	17:45	-132.071	47.253	0	146.70	0	7.2080	0	33.5090	0	26.218	0	145.427	0	192.1	4	65.1	4	-1E+10	1	-1E+10	1	-1E+10	1	-1E+10	1	-1E+10	1	-1E+10	1
4902549	50	C	12/26/2021	17:45	-132.071	47.253	0	147.70	0	7.2190	0	33.5200	0	26.225	0	146.418	0	191.5	4	64.9	4	-1E+10	1	-1E+10	1	-1E+10	1	-1E+10	1	-1E+10	1	-1E+10	1
4902549	50	C	12/26/2021	17:45	-132.071	47.253	0	148.70	0	7.2290	0	33.5420	0	26.241	0	147.409	0	190.9	4	64.7	4	-1E+10	1	-1E+10	1	-1E+10	1	-1E+10	1	-1E+10	1	-1E+10	1
4902549	50	C	12/26/2021	17:45	-132.071	47.253	0	149.70	0	7.2260	0	33.5750	0	26.267	0	148.400	0	190.6	4	64.6	4	-1E+10	1	-1E+10	1	-1E+10	1	-1E+10	1	-1E+10	1	-1E+10	1
4902549	50	C	12/26/2021	17:45	-132.071	47.253	0	150.60	0	7.2260	0	33.5840	0	26.275	0	149.292	0	190.3	4	64.5	4	-1E+10	1	-1E+10	1	-1E+10	1	-1E+10	1	-1E+10	1	-1E+10	1
4902549	50	C	12/26/2021	17:45	-132.071	47.253	0	151.60	0	7.2250	0	33.5880	0	26.278	0	150.283	0	190.0	4	64.4	4	-1E+10	1	-1E+10	1	-1E+10	1	-1E+10	1	-1E+10	1	-1E+10	1
4902549	50	C	12/26/2021	17:45	-132.071	47.253	0	152.50	0	7.2240	0	33.5940	0	26.283	0	151.175	0	189.6	4	64.3	4	-1E+10	1	-1E+10	1	-1E+10	1	-1E+10	1	-1E+10	1	-1E+10	1
4902549	50	C	12/26/2021	17:45	-132.071	47.253	0	153.50	0	7.2210	0	33.6020	0	26.289	0	152.166	0	189.3	4	64.2	4	-1E+10	1	-1E+10	1	-1E+10	1	-1E+10	1	-1E+10	1	-1E+10	1
4902549	50	C	12/26/2021	17:45	-132.071	47.253	0	154.90	0	7.2180	0	33.6050	0	26.292	0	153.553	0	188.8	4	64.0	4	-1E+10	1	-1E+10	1	-1E+10	1	-1E+10	1	-1E+10	1	-1E+10	1
4902549	50	C	12/26/2021	17:45	-132.071	47.253	0	156.40	0	7.2160	0	33.6090	0	26.296	0	155.039	0	188.3	4	63.8	4	-1E+10	1	-1E+10	1	-1E+10	1	-1E+10	1	-1E+10	1	-1E+10	1
4902549	50	C	12/26/2021	17:45	-132.071	47.253	0	157.30	0	7.2120	0	33.6120	0	26.299	0	155.931	0	187.8	4	63.7	4	-1E+10	1	-1E+10	1	-1E+10	1	-1E+10	1	-1E+10	1	-1E+10	1
4902549	50	C	12/26/2021	17:45	-132.071	47.253	0	158.20	0	7.2070	0	33.6160	0	26.302	0	156.823	0	187.4	4	63.5	4	-1E+10	1	-1E+10	1	-1E+10	1	-1E+10	1	-1E+10	1	-1E+10	1
4902549	50	C	12/26/2021	17:45	-132.071	47.253	0	159.10	0	7.2010	0	33.6220	0	26.308	0	157.715	0	187.0	4	63.4	4	-1E+10	1	-1E+10	1	-1E+10	1	-1E+10	1	-1E+10	1	-1E+10	1
4902549	50	C	12/26/2021	17:45	-132.071	47.253	0	160.00	0	7.1950	0	33.6290	0	26.314	0	158.607	0	186.6	4	63.2	4	-1E+10	1	-1E+10	1	-1E+10	1	-1E+10	1	-1E+10	1	-1E+10	1
4902549	50	C	12/26/2021	17:45	-132.071	47.253	0	160.90	0	7.1910	0	33.6330	0	26.318	0	159.499	0	186.2	4	63.1	4	-1E+10	1	-1E+10	1	-1E+10	1	-1E+10	1	-1E+10	1	-1E+10	1
4902549	50	C	12/26/2021	17:45	-132.071	47.253	0	161.90	0	7.1790	0	33.6430	0	26.328	0	160.489	0	185.7	4	62.9	4	-1E+10	1	-1E+10	1	-1E+10	1	-1E+10	1	-1E+10	1	-1E+10	1
4902549	50	C	12/26/2021	17:45	-132.071	47.253	0	162.80	0	7.1750	0	33.6570	0	26.339	0	161.381	0	185.3	4	62.8	4	-1E+10	1	-1E+10	1	-1E+10	1	-1E+10	1	-1E+10	1	-1E+10	1
4902549	50	C	12/26/2021	17:45	-132.071	47.253	0	163.70	0	7.1740	0	33.6600	0	26.342	0	162.273	0	184.9	4	62.6	4	-1E+10	1	-1E+10	1	-1E+10	1	-1E+10	1	-1E+10	1	-1E+10	1
4902549	50	C	12/26/2021	17:45	-132.071	47.253	0	164.60	0	7.1620	0	33.6740	0	26.354	0	163.165	0	184.6	4	62.5	4	-1E+10	1	-1E+10	1	-1E+10	1	-1E+10	1	-1E+10	1	-1E+10	1
4902549	50	C	12/26/2021	17:45	-132.071	47.253	0	165.90	0	7.1540	0	33.6750	0	26.356	0	164.453	0	184.0	4	62.3	4	-1E+10	1	-1E+10	1	-1E+10	1	-1E+10	1	-1E+10	1	-1E+10	1
4902549	50	C	12/26/2021	17:45	-132.071	47.253	0	167.20	0	7.1490	0	33.6790	0	26.360	0	165.741	0	183.4	4	62.1	4	-1E+10	1	-1E+10	1	-1E+10	1	-1E+10	1	-1E+10	1	-1E+10	1
4902549	50	C	12/26/2021	17:45	-132.071	47.253	0	168.10	0	7.1400	0	33.6850	0	26.366	0	166.633	0	182.9	4	61.9	4	-1E+10	1	-1E+10	1	-1E+10	1	-1E+10	1	-1E+10	1	-1E+10	1
4902549	50	C	12/26/2021	17:45	-132.071	47.253	0	169.00	0	7.1320	0	33.6880	0	26.370	0	167.525	0	182.6	4	61.8	4	-1E+10	1	-1E+10	1	-1E+10	1	-1E+10	1	-1E+10	1	-1E+10	1
4902549	50	C	12/26/2021	17:45	-132.071	47.253	0	169.90	0	7.1330	0	33.6910	0	26.372	0	168.417	0	182.0	4	61.6	4	-1E+10	1	-1E+10	1	-1E+10	1	-1E+10	1	-1E+10	1	-1E+10	1
4902549	50	C	12/26/2021	17:45	-132.071	47.253	0	170.80	0	7.1320	0	33.6930	0	26.374	0	169.308	0	181.4	4	61.4	4	-1E+10	1	-1E+10	1	-1E+10	1	-1E+10	1	-1E+10	1	-1E+10	1
4902549	50	C	12/26/2021	17:45	-132.071	47.253	0	171.70	0	7.1330	0	33.6970	0	26.377	0	170.200	0	180.8	4	61.2	4	-1E+10	1	-1E+10	1	-1E+10	1	-1E+10	1	-1E+10	1	-1E+10	1
4902549	50	C	12/26/2021	17:45	-132.071	47.253	0	172.60	0	7.1170	0	33.7120	0	26.391	0	171.092	0	180.3	4	61.0	4	-1E+10	1	-1E+10	1	-1E+10	1	-1E+10	1	-1E+10	1	-1E+10	1
4902549	50	C	12/26/2021	17:45	-132.071	47.253	0	173.90	0	7.0890	0	33.7210	0	26.402	0	172.380	0	179.6	4	60.8	4	-1E+10	1	-1E+10	1	-1E+10	1	-1E+10	1	-1E+10	1	-1E+10	1
4902549	50	C	12/26/2021	17:45	-132.071	47.253	0	175.40	0	7.0710	0	33.7250	0	26.407	0	173.866	0	178.9	4	60.5	4	-1E+10	1	-1E+10	1	-1E+10	1	-1E+10	1	-1E+10	1	-1E+10	1
4902549	50	C	12/26/2021	17:45	-132.071	47.253	0	176.30	0	7.0610	0	33.7290	0	26.412	0	174.758	0	178.3	4	60.3	4	-1E+10	1	-1E+10	1	-1E+10	1	-1E+10	1	-1E+10	1	-1E+10	1
4902549	50	C	12/26/2021	17:45	-132.071	47.253	0	177.30	0	7.0500	0	33.7300	0	26.414	0	175.749	0	177.7	4	60.1	4	-1E+10	1	-1E+10	1	-1E+10	1	-1E+10	1	-1E+10	1	-1E+10	1
4902549	50	C	12/26/2021	17:45	-132.071	47.253	0	178.20	0	7.0310	0	33.7320	0	26.418	0	176.641	0	177.1	4	59.8	4	-1E+10	1	-1E+10	1	-1E+10	1	-1E+10	1	-1E+10	1	-1E+10	1
4902549	50	C	12/26/2021	17:45	-132.071	47.253	0	179.10	0	7.0180	0	33.7320	0	26.420	0	177.532	0	176.5	4	59.6	4	-1E+10	1	-1E+10	1	-1E+10	1	-1E+10	1	-1E+10	1	-1E+10	1
4902549	50	C	12/26/2021	17:45	-132.071	47.253	0	180.00	0	6.9670	0	33.7440	0	26.436	0	178.424	0	176.1	4	59.4	4	-1E+10	1	-1E+10	1	-1E+10	1	-1E+10	1	-1E+10	1	-1E+10	1
4902549	50	C	12/26/2021	17:45	-132.071	47.253	0	181.00	0	6.9310	0	33.7420	0	26.440	0	179.415	0	175.7	4	59.2	4	-1E+10	1	-1E+10	1	-1E+10	1	-1E+10	1	-1E+10	1	-1E+10	1
4902549	50	C	12/26/2021	17:45	-132.071	47.253	0	181.90	0	6.9020	0	33.7460	0	26.447	0	180.307	0	175.2	4	59.0	4	-1E+10	1	-1E+10	1	-1E+10	1	-1E+10	1	-1E+10	1	-1E+10	1
4902549	50	C	12/26/2021	17:45	-132.071	47.253	0	182.90	0	6.8920	0	33.7450	0	26.447	0	181.297	0	174.7	4	58.8	4	-1E+10	1	-1E+10	1	-1E+10	1	-1E+10	1	-1E+10	1	-1E+10	1
4902549	50	C	12/26/2021	17:45	-132.071	47.253	0	183.80	0	6.8820	0	33.7460	0	26.449	0	182.189	0	174.2	4	58.7	4	-1E+10	1	-1E+10	1	-1E+10	1	-1E+10	1	-1E+10	1	-1E+10	1
4902549	50	C	12/26/2021	17:45	-132.071	47.253	0	184.80	0	6.8900	0	33.7510	0	26.452	0	183.180	0	173.5	4	58.4	4	-1E+10	1	-1E+10	1	-1E+10	1	-1E+10	1	-1E+10	1	-1E+10	1
4902549	50	C	12/26/2021	17:45	-132.071	47.253	0	185.70	0	6.8880	0	33.7530	0	26.454	0	184.072	0	172.7	4	58.2	4	-1E+10	1	-1E+10	1	-1E+10	1	-1E+10	1	-1E+10	1	-1E+10	1
4902549	50	C	12/26/2021	17:45	-132.071	47.253	0	186.80	0	6.8810	0	33.7530	0	26.455	0	185.161	0	172.0	4	57.9	4	-1E+10	1	-1E+10	1	-1E+10	1	-1E+10	1	-1E+10	1	-1E+10	1
4902549	50	C	12/26/2021	17:45	-132.071	47.253	0	187.80	0	6.8280	0	33.7620	0	26.469	0	186.152	0	171.5	4	57.7	4	-1E+10	1	-1E+10	1	-1E+10	1	-1E+10	1	-1E+10	1	-1E+10	1
4902549	50	C	12/26/2021	17:45	-132.071	47.253	0	188.80	0	6.8070	0	33.7620	0	26.472	0	187.143	0	170.9	4	57.5	4	-1E+10	1	-1E+10	1	-1E+10	1	-1E+10	1	-1E+10	1	-1E+10	1
4902549	50	C	12/26/2021	17:45	-132.071	47.253	0	189.70	0	6.7980	0	33.7610	0	26.473	0	188.035	0	170.3	4	57.2	4	-1E+10	1	-1E+10	1	-1E+10	1	-1E+10	1	-1E+10	1	-1E+10	1
4902549	50	C	12/26/2021	17:45	-132.071	47.253	0	190.70	0	6.7810	0	33.7620	0	26.476	0	189.025	0	169.6	4	57.0	4	-1E+10	1	-1E+10	1	-1E+10	1	-1E+10	1	-1E+10	1	-1E+10	1
4902549	50	C	12/26/2021	17:45	-132.071	47.253	0	191.70	0	6.7670	0	33.7640	0	26.479	0	190.016	0	168.8	4	56.7	4	-1E+10	1	-1E+10	1	-1E+10	1	-1E+10	1	-1E+10	1	-1E+10	1
4902549	50	C	12/26/2021	17:45	-132.071	47.253	0	192.70	0	6.7470	0	33.7670	0	26.484	0	191.007	0	168.2	4	56.5	4	-1E+10	1	-1E+10	1	-1E+10	1	-1E+10	1	-1E+10	1	-1E+10	1
4902549	50	C	12/26/2021	17:45	-132.071	47.253	0	193.60	0	6.7440	0	33.7680	0	26.485	0	191.899	0	167.6	4	56.3	4	-1E+10	1	-1E+10	1	-1E+10	1	-1E+10	1	-1E+10	1	-1E+10	1
4902549	50	C	12/26/2021	17:45	-132.071	47.253	0	194.60	0	6.7450	0	33.7700	0	26.487	0	192.889	0	166.9	4	56.0	4	-1E+10	1	-1E+10	1	-1E+10	1	-1E+10	1	-1E+10	1	-1E+10	1
4902549	50	C	12/26/2021	17:45	-132.071	47.253	0	195.50	0	6.7470	0	33.7720	0	26.488	0	193.781	0	166.3	4	55.8	4	-1E+10	1	-1E+10	1	-1E+10	1	-1E+10	1	-1E+10	1	-1E+10	1
4902549	50	C	12/26/2021	17:45	-132.071	47.253	0	196.50	0	6.7210	0	33.7740	0	26.493	0	194.772	0	165.7	4	55.6	4	-1E+10	1	-1E+10	1	-1E+10	1	-1E+10	1	-1E+10	1	-1E+10	1
4902549	50	C	12/26/2021	17:45	-132.071	47.253	0	197.50	0	6.6930	0	33.7770	0	26.499	0	195.762	0	165.2	4	55.4	4	-1E+10	1	-1E+10	1	-1E+10	1	-1E+10	1	-1E+10	1	-1E+10	1
4902549	50	C	12/26/2021	17:45	-132.071	47.253	0	198.60	0	6.6410	0	33.7730	0	26.503	0	196.852	0	164.8	4	55.2	4	-1E+10	1	-1E+10	1	-1E+10	1	-1E+10	1	-1E+10	1	-1E+10	1
4902549	50	C	12/26/2021	17:45	-132.071	47.253	0	199.60	0	6.6410	0	33.7780	0	26.507	0	197.843	0	164.2	4	55.0	4	-1E+10	1	-1E+10	1	-1E+10	1	-1E+10	1	-1E+10	1	-1E+10	1
4902549	50	C	12/26/2021	17:45	-132.071	47.253	0	200.60	0	6.6430	0	33.7800	0	26.508	0	198.834	0	163.6	4	54.8	4	-1E+10	1	-1E+10	1	-1E+10	1	-1E+10	1	-1E+10	1	-1E+10	1
4902549	50	C	12/26/2021	17:45	-132.071	47.253	0	201.60	0	6.6430	0	33.7810	0	26.509	0	199.824	0	162.9	4	54.6	4	-1E+10	1	-1E+10	1	-1E+10	1	-1E+10	1	-1E+10	1	-1E+10	1
4902549	50	C	12/26/2021	17:45	-132.071	47.253	0	202.60	0	6.6430	0	33.7810	0	26.509	0	200.815	0	162.3	4	54.4	4	-1E+10	1	-1E+10	1	-1E+10	1	-1E+10	1	-1E+10	1	-1E+10	1
4902549	50	C	12/26/2021	17:45	-132.071	47.253	0	203.60	0	6.6400	0	33.7850	0	26.513	0	201.806	0	161.6	4	54.1	4	-1E+10	1	-1E+10	1	-1E+10	1	-1E+10	1	-1E+10	1	-1E+10	1
4902549	50	C	12/26/2021	17:45	-132.071	47.253	0	204.60	0	6.6360	0	33.7850	0	26.513	0	202.797	0	161.0	4	53.9	4	-1E+10	1	-1E+10	1	-1E+10	1	-1E+10	1	-1E+10	1	-1E+10	1
4902549	50	C	12/26/2021	17:45	-132.071	47.253	0	205.60	0	6.6230	0	33.7870	0	26.517	0	203.787	0	160.4	4	53.7	4	-1E+10	1	-1E+10	1	-1E+10	1	-1E+10	1	-1E+10	1	-1E+10	1
4902549	50	C	12/26/2021	17:45	-132.071	47.253	0	206.60	0	6.5910	0	33.7840	0	26.518	0	204.778	0	159.8	4	53.5	4	-1E+10	1	-1E+10	1	-1E+10	1	-1E+10	1	-1E+10	1	-1E+10	1
4902549	50	C	12/26/2021	17:45	-132.071	47.253	0	207.60	0	6.5120	0	33.7840	0	26.529	0	205.769	0	159.5	4	53.3	4	-1E+10	1	-1E+10	1	-1E+10	1	-1E+10	1	-1E+10	1	-1E+10	1
4902549	50	C	12/26/2021	17:45	-132.071	47.253	0	208.60	0	6.4840	0	33.7870	0	26.535	0	206.759	0	159.1	4	53.1	4	-1E+10	1	-1E+10	1	-1E+10	1	-1E+10	1	-1E+10	1	-1E+10	1
4902549	50	C	12/26/2021	17:45	-132.071	47.253	0	209.60	0	6.4750	0	33.7810	0	26.531	0	207.750	0	158.6	4	52.9	4	-1E+10	1	-1E+10	1	-1E+10	1	-1E+10	1	-1E+10	1	-1E+10	1
4902549	50	C	12/26/2021	17:45	-132.071	47.253	0	210.60	0	6.4480	0	33.7800	0	26.534	0	208.741	0	158.1	4	52.7	4	-1E+10	1	-1E+10	1	-1E+10	1	-1E+10	1	-1E+10	1	-1E+10	1
4902549	50	C	12/26/2021	17:45	-132.071	47.253	0	211.50	0	6.4400	0	33.7800	0	26.535	0	209.632	0	157.4	4	52.5	4	-1E+10	1	-1E+10	1	-1E+10	1	-1E+10	1	-1E+10	1	-1E+10	1
4902549	50	C	12/26/2021	17:45	-132.071	47.253	0	212.90	0	6.3940	0	33.7780	0	26.539	0	211.019	0	156.4	4	52.1	4	-1E+10	1	-1E+10	1	-1E+10	1	-1E+10	1	-1E+10	1	-1E+10	1
4902549	50	C	12/26/2021	17:45	-132.071	47.253	0	214.80	0	6.3970	0	33.7850	0	26.545	0	212.901	0	155.0	4	51.6	4	-1E+10	1	-1E+10	1	-1E+10	1	-1E+10	1	-1E+10	1	-1E+10	1
4902549	50	C	12/26/2021	17:45	-132.071	47.253	0	215.90	0	6.4140	0	33.7900	0	26.546	0	213.991	0	154.1	4	51.4	4	-1E+10	1	-1E+10	1	-1E+10	1	-1E+10	1	-1E+10	1	-1E+10	1
4902549	50	C	12/26/2021	17:45	-132.071	47.253	0	217.00	0	6.4030	0	33.7930	0	26.550	0	215.081	0	153.3	4	51.1	4	-1E+10	1	-1E+10	1	-1E+10	1	-1E+10	1	-1E+10	1	-1E+10	1
4902549	50	C	12/26/2021	17:45	-132.071	47.253	0	218.20	0	6.3760	0	33.7940	0	26.554	0	216.270	0	152.5	4	50.8	4	-1E+10	1	-1E+10	1	-1E+10	1	-1E+10	1	-1E+10	1	-1E+10	1
4902549	50	C	12/26/2021	17:45	-132.071	47.253	0	218.90	0	6.3660	0	33.7920	0	26.554	0	216.963	0	151.8	4	50.5	4	-1E+10	1	-1E+10	1	-1E+10	1	-1E+10	1	-1E+10	1	-1E+10	1
4902549	50	C	12/26/2021	17:45	-132.071	47.253	0	220.00	0	6.3570	0	33.7970	0	26.559	0	218.053	0	150.9	4	50.2	4	-1E+10	1	-1E+10	1	-1E+10	1	-1E+10	1	-1E+10	1	-1E+10	1
4902549	50	C	12/26/2021	17:45	-132.071	47.253	0	221.20	0	6.3290	0	33.7970	0	26.563	0	219.241	0	150.2	4	50.0	4	-1E+10	1	-1E+10	1	-1E+10	1	-1E+10	1	-1E+10	1	-1E+10	1
4902549	50	C	12/26/2021	17:45	-132.071	47.253	0	221.90	0	6.3300	0	33.7980	0	26.564	0	219.935	0	149.6	4	49.7	4	-1E+10	1	-1E+10	1	-1E+10	1	-1E+10	1	-1E+10	1	-1E+10	1
4902549	50	C	12/26/2021	17:45	-132.071	47.253	0	223.00	0	6.3220	0	33.8010	0	26.567	0	221.025	0	148.6	4	49.4	4	-1E+10	1	-1E+10	1	-1E+10	1	-1E+10	1	-1E+10	1	-1E+10	1
4902549	50	C	12/26/2021	17:45	-132.071	47.253	0	224.20	0	6.3050	0	33.8000	0	26.568	0	222.213	0	147.6	4	49.1	4	-1E+10	1	-1E+10	1	-1E+10	1	-1E+10	1	-1E+10	1	-1E+10	1
4902549	50	C	12/26/2021	17:45	-132.071	47.253	0	225.00	0	6.2910	0	33.8000	0	26.570	0	223.006	0	147.0	4	48.8	4	-1E+10	1	-1E+10	1	-1E+10	1	-1E+10	1	-1E+10	1	-1E+10	1
4902549	50	C	12/26/2021	17:45	-132.071	47.253	0	225.80	0	6.2610	0	33.8000	0	26.574	0	223.798	0	146.4	4	48.6	4	-1E+10	1	-1E+10	1	-1E+10	1	-1E+10	1	-1E+10	1	-1E+10	1
4902549	50	C	12/26/2021	17:45	-132.071	47.253	0	226.90	0	6.2070	0	33.7920	0	26.575	0	224.888	0	145.7	4	48.3	4	-1E+10	1	-1E+10	1	-1E+10	1	-1E+10	1	-1E+10	1	-1E+10	1
4902549	50	C	12/26/2021	17:45	-132.071	47.253	0	228.10	0	6.2050	0	33.8030	0	26.584	0	226.077	0	144.8	4	48.0	4	-1E+10	1	-1E+10	1	-1E+10	1	-1E+10	1	-1E+10	1	-1E+10	1
4902549	50	C	12/26/2021	17:45	-132.071	47.253	0	228.90	0	6.2230	0	33.8040	0	26.582	0	226.869	0	144.2	4	47.9	4	-1E+10	1	-1E+10	1	-1E+10	1	-1E+10	1	-1E+10	1	-1E+10	1
4902549	50	C	12/26/2021	17:45	-132.071	47.253	0	229.80	0	6.1250	0	33.7940	0	26.587	0	227.761	0	144.0	4	47.7	4	-1E+10	1	-1E+10	1	-1E+10	1	-1E+10	1	-1E+10	1	-1E+10	1
4902549	50	C	12/26/2021	17:45	-132.071	47.253	0	230.60	0	6.1030	0	33.7980	0	26.593	0	228.553	0	143.6	4	47.5	4	-1E+10	1	-1E+10	1	-1E+10	1	-1E+10	1	-1E+10	1	-1E+10	1
4902549	50	C	12/26/2021	17:45	-132.071	47.253	0	231.90	0	6.1290	0	33.8060	0	26.596	0	229.841	0	142.8	4	47.3	4	-1E+10	1	-1E+10	1	-1E+10	1	-1E+10	1	-1E+10	1	-1E+10	1
4902549	50	C	12/26/2021	17:45	-132.071	47.253	0	233.20	0	6.1090	0	33.8080	0	26.600	0	231.128	0	142.2	4	47.1	4	-1E+10	1	-1E+10	1	-1E+10	1	-1E+10	1	-1E+10	1	-1E+10	1
4902549	50	C	12/26/2021	17:45	-132.071	47.253	0	234.00	0	6.1050	0	33.8080	0	26.600	0	231.921	0	141.8	4	46.9	4	-1E+10	1	-1E+10	1	-1E+10	1	-1E+10	1	-1E+10	1	-1E+10	1
4902549	50	C	12/26/2021	17:45	-132.071	47.253	0	234.90	0	6.0990	0	33.8080	0	26.601	0	232.812	0	141.4	4	46.8	4	-1E+10	1	-1E+10	1	-1E+10	1	-1E+10	1	-1E+10	1	-1E+10	1
4902549	50	C	12/26/2021	17:45	-132.071	47.253	0	235.70	0	6.0940	0	33.8090	0	26.602	0	233.605	0	140.8	4	46.6	4	-1E+10	1	-1E+10	1	-1E+10	1	-1E+10	1	-1E+10	1	-1E+10	1
4902549	50	C	12/26/2021	17:45	-132.071	47.253	0	236.60	0	6.0870	0	33.8080	0	26.603	0	234.496	0	140.3	4	46.4	4	-1E+10	1	-1E+10	1	-1E+10	1	-1E+10	1	-1E+10	1	-1E+10	1
4902549	50	C	12/26/2021	17:45	-132.071	47.253	0	237.90	0	6.0890	0	33.8080	0	26.602	0	235.784	0	139.5	4	46.1	4	-1E+10	1	-1E+10	1	-1E+10	1	-1E+10	1	-1E+10	1	-1E+10	1
4902549	50	C	12/26/2021	17:45	-132.071	47.253	0	239.20	0	6.0950	0	33.8170	0	26.609	0	237.072	0	138.7	4	45.9	4	-1E+10	1	-1E+10	1	-1E+10	1	-1E+10	1	-1E+10	1	-1E+10	1
4902549	50	C	12/26/2021	17:45	-132.071	47.253	0	240.10	0	6.0800	0	33.8160	0	26.610	0	237.963	0	138.3	4	45.7	4	-1E+10	1	-1E+10	1	-1E+10	1	-1E+10	1	-1E+10	1	-1E+10	1
4902549	50	C	12/26/2021	17:45	-132.071	47.253	0	241.00	0	6.0810	0	33.8170	0	26.610	0	238.855	0	137.8	4	45.6	4	-1E+10	1	-1E+10	1	-1E+10	1	-1E+10	1	-1E+10	1	-1E+10	1
4902549	50	C	12/26/2021	17:45	-132.071	47.253	0	241.80	0	6.0680	0	33.8170	0	26.612	0	239.647	0	137.3	4	45.4	4	-1E+10	1	-1E+10	1	-1E+10	1	-1E+10	1	-1E+10	1	-1E+10	1
4902549	50	C	12/26/2021	17:45	-132.071	47.253	0	242.70	0	6.0310	0	33.8160	0	26.616	0	240.539	0	136.9	4	45.2	4	-1E+10	1	-1E+10	1	-1E+10	1	-1E+10	1	-1E+10	1	-1E+10	1
4902549	50	C	12/26/2021	17:45	-132.071	47.253	0	243.60	0	5.9950	0	33.8150	0	26.620	0	241.430	0	136.7	4	45.1	4	-1E+10	1	-1E+10	1	-1E+10	1	-1E+10	1	-1E+10	1	-1E+10	1
4902549	50	C	12/26/2021	17:45	-132.071	47.253	0	244.90	0	5.9860	0	33.8150	0	26.621	0	242.718	0	136.1	4	44.9	4	-1E+10	1	-1E+10	1	-1E+10	1	-1E+10	1	-1E+10	1	-1E+10	1
4902549	50	C	12/26/2021	17:45	-132.071	47.253	0	246.40	0	5.9880	0	33.8160	0	26.621	0	244.203	0	135.4	4	44.7	4	-1E+10	1	-1E+10	1	-1E+10	1	-1E+10	1	-1E+10	1	-1E+10	1
4902549	50	C	12/26/2021	17:45	-132.071	47.253	0	247.20	0	5.9700	0	33.8140	0	26.622	0	244.996	0	135.0	4	44.5	4	-1E+10	1	-1E+10	1	-1E+10	1	-1E+10	1	-1E+10	1	-1E+10	1
4902549	50	C	12/26/2021	17:45	-132.071	47.253	0	248.10	0	5.9720	0	33.8160	0	26.623	0	245.887	0	134.5	4	44.4	4	-1E+10	1	-1E+10	1	-1E+10	1	-1E+10	1	-1E+10	1	-1E+10	1
4902549	50	C	12/26/2021	17:45	-132.071	47.253	0	249.00	0	5.9600	0	33.8170	0	26.626	0	246.779	0	134.0	4	44.2	4	-1E+10	1	-1E+10	1	-1E+10	1	-1E+10	1	-1E+10	1	-1E+10	1
4902549	50	C	12/26/2021	17:45	-132.071	47.253	0	249.90	0	5.9560	0	33.8190	0	26.628	0	247.670	0	133.6	4	44.1	4	-1E+10	1	-1E+10	1	-1E+10	1	-1E+10	1	-1E+10	1	-1E+10	1
4902549	50	C	12/26/2021	17:45	-132.071	47.253	0	250.80	0	5.9730	0	33.8240	0	26.630	0	248.562	0	133.0	4	43.9	4	-1E+10	1	-1E+10	1	-1E+10	1	-1E+10	1	-1E+10	1	-1E+10	1
4902549	50	C	12/26/2021	17:45	-132.071	47.253	0	251.70	0	5.9830	0	33.8270	0	26.631	0	249.453	0	132.5	4	43.7	4	-1E+10	1	-1E+10	1	-1E+10	1	-1E+10	1	-1E+10	1	-1E+10	1
4902549	50	C	12/26/2021	17:45	-132.071	47.253	0	252.60	0	5.9800	0	33.8270	0	26.631	0	250.344	0	132.0	4	43.6	4	-1E+10	1	-1E+10	1	-1E+10	1	-1E+10	1	-1E+10	1	-1E+10	1
4902549	50	C	12/26/2021	17:45	-132.071	47.253	0	253.90	0	5.9530	0	33.8270	0	26.634	0	251.632	0	131.3	4	43.3	4	-1E+10	1	-1E+10	1	-1E+10	1	-1E+10	1	-1E+10	1	-1E+10	1
4902549	50	C	12/26/2021	17:45	-132.071	47.253	0	255.30	0	5.9450	0	33.8270	0	26.635	0	253.019	0	130.4	4	43.0	4	-1E+10	1	-1E+10	1	-1E+10	1	-1E+10	1	-1E+10	1	-1E+10	1
4902549	50	C	12/26/2021	17:45	-132.071	47.253	0	256.30	0	5.9140	0	33.8290	0	26.641	0	254.009	0	130.0	4	42.8	4	-1E+10	1	-1E+10	1	-1E+10	1	-1E+10	1	-1E+10	1	-1E+10	1
4902549	50	C	12/26/2021	17:45	-132.071	47.253	0	257.20	0	5.9060	0	33.8290	0	26.642	0	254.901	0	129.5	4	42.7	4	-1E+10	1	-1E+10	1	-1E+10	1	-1E+10	1	-1E+10	1	-1E+10	1
4902549	50	C	12/26/2021	17:45	-132.071	47.253	0	258.10	0	5.8980	0	33.8300	0	26.644	0	255.792	0	128.9	4	42.5	4	-1E+10	1	-1E+10	1	-1E+10	1	-1E+10	1	-1E+10	1	-1E+10	1
4902549	50	C	12/26/2021	17:45	-132.071	47.253	0	259.10	0	5.8940	0	33.8300	0	26.644	0	256.782	0	128.4	4	42.3	4	-1E+10	1	-1E+10	1	-1E+10	1	-1E+10	1	-1E+10	1	-1E+10	1
4902549	50	C	12/26/2021	17:45	-132.071	47.253	0	260.00	0	5.8930	0	33.8290	0	26.644	0	257.674	0	127.7	4	42.1	4	-1E+10	1	-1E+10	1	-1E+10	1	-1E+10	1	-1E+10	1	-1E+10	1
4902549	50	C	12/26/2021	17:45	-132.071	47.253	0	260.90	0	5.8890	0	33.8300	0	26.645	0	258.565	0	126.9	4	41.8	4	-1E+10	1	-1E+10	1	-1E+10	1	-1E+10	1	-1E+10	1	-1E+10	1
4902549	50	C	12/26/2021	17:45	-132.071	47.253	0	261.90	0	5.8750	0	33.8300	0	26.647	0	259.556	0	126.2	4	41.5	4	-1E+10	1	-1E+10	1	-1E+10	1	-1E+10	1	-1E+10	1	-1E+10	1
4902549	50	C	12/26/2021	17:45	-132.071	47.253	0	262.80	0	5.8490	0	33.8380	0	26.656	0	260.447	0	125.6	4	41.3	4	-1E+10	1	-1E+10	1	-1E+10	1	-1E+10	1	-1E+10	1	-1E+10	1
4902549	50	C	12/26/2021	17:45	-132.071	47.253	0	263.80	0	5.8310	0	33.8370	0	26.658	0	261.437	0	125.1	4	41.1	4	-1E+10	1	-1E+10	1	-1E+10	1	-1E+10	1	-1E+10	1	-1E+10	1
4902549	50	C	12/26/2021	17:45	-132.071	47.253	0	264.80	0	5.8070	0	33.8410	0	26.664	0	262.428	0	124.6	4	41.0	4	-1E+10	1	-1E+10	1	-1E+10	1	-1E+10	1	-1E+10	1	-1E+10	1
4902549	50	C	12/26/2021	17:45	-132.071	47.253	0	265.80	0	5.7900	0	33.8400	0	26.665	0	263.418	0	124.2	4	40.8	4	-1E+10	1	-1E+10	1	-1E+10	1	-1E+10	1	-1E+10	1	-1E+10	1
4902549	50	C	12/26/2021	17:45	-132.071	47.253	0	266.70	0	5.7680	0	33.8410	0	26.668	0	264.310	0	123.8	4	40.7	4	-1E+10	1	-1E+10	1	-1E+10	1	-1E+10	1	-1E+10	1	-1E+10	1
4902549	50	C	12/26/2021	17:45	-132.071	47.253	0	267.70	0	5.7490	0	33.8420	0	26.672	0	265.300	0	123.5	4	40.5	4	-1E+10	1	-1E+10	1	-1E+10	1	-1E+10	1	-1E+10	1	-1E+10	1
4902549	50	C	12/26/2021	17:45	-132.071	47.253	0	268.70	0	5.7420	0	33.8410	0	26.672	0	266.290	0	123.1	4	40.4	4	-1E+10	1	-1E+10	1	-1E+10	1	-1E+10	1	-1E+10	1	-1E+10	1
4902549	50	C	12/26/2021	17:45	-132.071	47.253	0	269.70	0	5.7350	0	33.8420	0	26.673	0	267.281	0	122.7	4	40.3	4	-1E+10	1	-1E+10	1	-1E+10	1	-1E+10	1	-1E+10	1	-1E+10	1
4902549	50	C	12/26/2021	17:45	-132.071	47.253	0	270.70	0	5.7340	0	33.8410	0	26.673	0	268.271	0	122.2	4	40.1	4	-1E+10	1	-1E+10	1	-1E+10	1	-1E+10	1	-1E+10	1	-1E+10	1
4902549	50	C	12/26/2021	17:45	-132.071	47.253	0	271.60	0	5.7290	0	33.8410	0	26.673	0	269.162	0	121.7	4	39.9	4	-1E+10	1	-1E+10	1	-1E+10	1	-1E+10	1	-1E+10	1	-1E+10	1
4902549	50	C	12/26/2021	17:45	-132.071	47.253	0	272.60	0	5.7140	0	33.8420	0	26.676	0	270.153	0	121.1	4	39.7	4	-1E+10	1	-1E+10	1	-1E+10	1	-1E+10	1	-1E+10	1	-1E+10	1
4902549	50	C	12/26/2021	17:45	-132.071	47.253	0	273.60	0	5.7110	0	33.8410	0	26.675	0	271.143	0	120.6	4	39.6	4	-1E+10	1	-1E+10	1	-1E+10	1	-1E+10	1	-1E+10	1	-1E+10	1
4902549	50	C	12/26/2021	17:45	-132.071	47.253	0	274.50	0	5.7020	0	33.8410	0	26.677	0	272.034	0	120.1	4	39.4	4	-1E+10	1	-1E+10	1	-1E+10	1	-1E+10	1	-1E+10	1	-1E+10	1
4902549	50	C	12/26/2021	17:45	-132.071	47.253	0	275.50	0	5.6800	0	33.8420	0	26.680	0	273.025	0	119.5	4	39.2	4	-1E+10	1	-1E+10	1	-1E+10	1	-1E+10	1	-1E+10	1	-1E+10	1
4902549	50	C	12/26/2021	17:45	-132.071	47.253	0	276.50	0	5.6710	0	33.8420	0	26.681	0	274.015	0	119.0	4	39.0	4	-1E+10	1	-1E+10	1	-1E+10	1	-1E+10	1	-1E+10	1	-1E+10	1
4902549	50	C	12/26/2021	17:45	-132.071	47.253	0	277.90	0	5.6370	0	33.8450	0	26.688	0	275.402	0	118.3	4	38.7	4	-1E+10	1	-1E+10	1	-1E+10	1	-1E+10	1	-1E+10	1	-1E+10	1
4902549	50	C	12/26/2021	17:45	-132.071	47.253	0	279.40	0	5.6290	0	33.8440	0	26.688	0	276.887	0	117.6	4	38.5	4	-1E+10	1	-1E+10	1	-1E+10	1	-1E+10	1	-1E+10	1	-1E+10	1
4902549	50	C	12/26/2021	17:45	-132.071	47.253	0	280.40	0	5.6220	0	33.8460	0	26.690	0	277.878	0	117.1	4	38.3	4	-1E+10	1	-1E+10	1	-1E+10	1	-1E+10	1	-1E+10	1	-1E+10	1
4902549	50	C	12/26/2021	17:45	-132.071	47.253	0	281.30	0	5.6130	0	33.8450	0	26.691	0	278.769	0	116.5	4	38.1	4	-1E+10	1	-1E+10	1	-1E+10	1	-1E+10	1	-1E+10	1	-1E+10	1
4902549	50	C	12/26/2021	17:45	-132.071	47.253	0	282.30	0	5.5870	0	33.8520	0	26.699	0	279.759	0	116.0	4	38.0	4	-1E+10	1	-1E+10	1	-1E+10	1	-1E+10	1	-1E+10	1	-1E+10	1
4902549	50	C	12/26/2021	17:45	-132.071	47.253	0	283.30	0	5.5770	0	33.8450	0	26.695	0	280.749	0	115.6	4	37.8	4	-1E+10	1	-1E+10	1	-1E+10	1	-1E+10	1	-1E+10	1	-1E+10	1
4902549	50	C	12/26/2021	17:45	-132.071	47.253	0	284.30	0	5.5670	0	33.8450	0	26.696	0	281.740	0	115.1	4	37.6	4	-1E+10	1	-1E+10	1	-1E+10	1	-1E+10	1	-1E+10	1	-1E+10	1
4902549	50	C	12/26/2021	17:45	-132.071	47.253	0	285.30	0	5.5550	0	33.8440	0	26.697	0	282.730	0	114.6	4	37.4	4	-1E+10	1	-1E+10	1	-1E+10	1	-1E+10	1	-1E+10	1	-1E+10	1
4902549	50	C	12/26/2021	17:45	-132.071	47.253	0	286.20	0	5.5420	0	33.8450	0	26.699	0	283.621	0	114.0	4	37.3	4	-1E+10	1	-1E+10	1	-1E+10	1	-1E+10	1	-1E+10	1	-1E+10	1
4902549	50	C	12/26/2021	17:45	-132.071	47.253	0	287.10	0	5.5270	0	33.8450	0	26.701	0	284.513	0	113.5	4	37.1	4	-1E+10	1	-1E+10	1	-1E+10	1	-1E+10	1	-1E+10	1	-1E+10	1
4902549	50	C	12/26/2021	17:45	-132.071	47.253	0	288.10	0	5.5220	0	33.8450	0	26.702	0	285.503	0	112.9	4	36.9	4	-1E+10	1	-1E+10	1	-1E+10	1	-1E+10	1	-1E+10	1	-1E+10	1
4902549	50	C	12/26/2021	17:45	-132.071	47.253	0	289.10	0	5.5010	0	33.8470	0	26.706	0	286.493	0	112.4	4	36.7	4	-1E+10	1	-1E+10	1	-1E+10	1	-1E+10	1	-1E+10	1	-1E+10	1
4902549	50	C	12/26/2021	17:45	-132.071	47.253	0	290.00	0	5.4790	0	33.8480	0	26.709	0	287.384	0	112.0	4	36.5	4	-1E+10	1	-1E+10	1	-1E+10	1	-1E+10	1	-1E+10	1	-1E+10	1
4902549	50	C	12/26/2021	17:45	-132.071	47.253	0	291.00	0	5.4670	0	33.8510	0	26.713	0	288.375	0	111.7	4	36.4	4	-1E+10	1	-1E+10	1	-1E+10	1	-1E+10	1	-1E+10	1	-1E+10	1
4902549	50	C	12/26/2021	17:45	-132.071	47.253	0	291.90	0	5.4620	0	33.8510	0	26.713	0	289.266	0	111.3	4	36.3	4	-1E+10	1	-1E+10	1	-1E+10	1	-1E+10	1	-1E+10	1	-1E+10	1
4902549	50	C	12/26/2021	17:45	-132.071	47.253	0	292.90	0	5.4530	0	33.8520	0	26.715	0	290.256	0	111.0	4	36.2	4	-1E+10	1	-1E+10	1	-1E+10	1	-1E+10	1	-1E+10	1	-1E+10	1
4902549	50	C	12/26/2021	17:45	-132.071	47.253	0	293.90	0	5.4520	0	33.8520	0	26.715	0	291.247	0	110.6	4	36.1	4	-1E+10	1	-1E+10	1	-1E+10	1	-1E+10	1	-1E+10	1	-1E+10	1
4902549	50	C	12/26/2021	17:45	-132.071	47.253	0	294.90	0	5.4500	0	33.8520	0	26.716	0	292.237	0	110.2	4	35.9	4	-1E+10	1	-1E+10	1	-1E+10	1	-1E+10	1	-1E+10	1	-1E+10	1
4902549	50	C	12/26/2021	17:45	-132.071	47.253	0	295.80	0	5.4400	0	33.8530	0	26.718	0	293.128	0	109.8	4	35.8	4	-1E+10	1	-1E+10	1	-1E+10	1	-1E+10	1	-1E+10	1	-1E+10	1
4902549	50	C	12/26/2021	17:45	-132.071	47.253	0	296.80	0	5.4260	0	33.8540	0	26.720	0	294.118	0	109.5	4	35.7	4	-1E+10	1	-1E+10	1	-1E+10	1	-1E+10	1	-1E+10	1	-1E+10	1
4902549	50	C	12/26/2021	17:45	-132.071	47.253	0	297.80	0	5.4150	0	33.8550	0	26.722	0	295.109	0	109.2	4	35.6	4	-1E+10	1	-1E+10	1	-1E+10	1	-1E+10	1	-1E+10	1	-1E+10	1
4902549	50	C	12/26/2021	17:45	-132.071	47.253	0	298.80	0	5.4060	0	33.8560	0	26.724	0	296.099	0	108.9	4	35.5	4	-1E+10	1	-1E+10	1	-1E+10	1	-1E+10	1	-1E+10	1	-1E+10	1
4902549	50	C	12/26/2021	17:45	-132.071	47.253	0	299.70	0	5.4040	0	33.8570	0	26.725	0	296.990	0	108.7	4	35.4	4	-1E+10	1	-1E+10	1	-1E+10	1	-1E+10	1	-1E+10	1	-1E+10	1
4902549	50	C	12/26/2021	17:45	-132.071	47.253	0	300.70	0	5.4070	0	33.8580	0	26.726	0	297.980	0	108.4	4	35.3	4	-1E+10	1	-1E+10	1	-1E+10	1	-1E+10	1	-1E+10	1	-1E+10	1
4902549	50	C	12/26/2021	17:45	-132.071	47.253	0	301.70	0	5.4060	0	33.8570	0	26.725	0	298.971	0	108.1	4	35.2	4	-1E+10	1	-1E+10	1	-1E+10	1	-1E+10	1	-1E+10	1	-1E+10	1
4902549	50	C	12/26/2021	17:45	-132.071	47.253	0	302.70	0	5.3870	0	33.8570	0	26.727	0	299.961	0	107.9	4	35.1	4	-1E+10	1	-1E+10	1	-1E+10	1	-1E+10	1	-1E+10	1	-1E+10	1
4902549	50	C	12/26/2021	17:45	-132.071	47.253	0	303.60	0	5.3800	0	33.8570	0	26.728	0	300.852	0	107.5	4	35.0	4	-1E+10	1	-1E+10	1	-1E+10	1	-1E+10	1	-1E+10	1	-1E+10	1
4902549	50	C	12/26/2021	17:45	-132.071	47.253	0	304.60	0	5.3800	0	33.8560	0	26.727	0	301.842	0	107.2	4	34.9	4	-1E+10	1	-1E+10	1	-1E+10	1	-1E+10	1	-1E+10	1	-1E+10	1
4902549	50	C	12/26/2021	17:45	-132.071	47.253	0	305.60	0	5.3730	0	33.8570	0	26.729	0	302.832	0	106.9	4	34.8	4	-1E+10	1	-1E+10	1	-1E+10	1	-1E+10	1	-1E+10	1	-1E+10	1
4902549	50	C	12/26/2021	17:45	-132.071	47.253	0	306.60	0	5.3540	0	33.8560	0	26.730	0	303.823	0	106.5	4	34.7	4	-1E+10	1	-1E+10	1	-1E+10	1	-1E+10	1	-1E+10	1	-1E+10	1
4902549	50	C	12/26/2021	17:45	-132.071	47.253	0	307.60	0	5.3400	0	33.8560	0	26.732	0	304.813	0	106.2	4	34.5	4	-1E+10	1	-1E+10	1	-1E+10	1	-1E+10	1	-1E+10	1	-1E+10	1
4902549	50	C	12/26/2021	17:45	-132.071	47.253	0	308.50	0	5.3390	0	33.8550	0	26.731	0	305.704	0	105.8	4	34.4	4	-1E+10	1	-1E+10	1	-1E+10	1	-1E+10	1	-1E+10	1	-1E+10	1
4902549	50	C	12/26/2021	17:45	-132.071	47.253	0	309.50	0	5.3360	0	33.8560	0	26.732	0	306.694	0	105.5	4	34.3	4	-1E+10	1	-1E+10	1	-1E+10	1	-1E+10	1	-1E+10	1	-1E+10	1
4902549	50	C	12/26/2021	17:45	-132.071	47.253	0	310.90	0	5.3060	0	33.8560	0	26.736	0	308.080	0	105.1	4	34.1	4	-1E+10	1	-1E+10	1	-1E+10	1	-1E+10	1	-1E+10	1	-1E+10	1
4902549	50	C	12/26/2021	17:45	-132.071	47.253	0	312.40	0	5.2920	0	33.8560	0	26.738	0	309.566	0	104.6	4	34.0	4	-1E+10	1	-1E+10	1	-1E+10	1	-1E+10	1	-1E+10	1	-1E+10	1
4902549	50	C	12/26/2021	17:45	-132.071	47.253	0	313.40	0	5.2910	0	33.8560	0	26.738	0	310.556	0	104.4	4	33.9	4	-1E+10	1	-1E+10	1	-1E+10	1	-1E+10	1	-1E+10	1	-1E+10	1
4902549	50	C	12/26/2021	17:45	-132.071	47.253	0	314.30	0	5.2830	0	33.8570	0	26.739	0	311.447	0	104.1	4	33.8	4	-1E+10	1	-1E+10	1	-1E+10	1	-1E+10	1	-1E+10	1	-1E+10	1
4902549	50	C	12/26/2021	17:45	-132.071	47.253	0	315.30	0	5.2790	0	33.8570	0	26.740	0	312.437	0	103.8	4	33.7	4	-1E+10	1	-1E+10	1	-1E+10	1	-1E+10	1	-1E+10	1	-1E+10	1
4902549	50	C	12/26/2021	17:45	-132.071	47.253	0	316.20	0	5.2780	0	33.8570	0	26.740	0	313.328	0	103.5	4	33.6	4	-1E+10	1	-1E+10	1	-1E+10	1	-1E+10	1	-1E+10	1	-1E+10	1
4902549	50	C	12/26/2021	17:45	-132.071	47.253	0	317.20	0	5.2740	0	33.8570	0	26.741	0	314.319	0	103.1	4	33.5	4	-1E+10	1	-1E+10	1	-1E+10	1	-1E+10	1	-1E+10	1	-1E+10	1
4902549	50	C	12/26/2021	17:45	-132.071	47.253	0	318.10	0	5.2730	0	33.8570	0	26.741	0	315.210	0	102.8	4	33.4	4	-1E+10	1	-1E+10	1	-1E+10	1	-1E+10	1	-1E+10	1	-1E+10	1
4902549	50	C	12/26/2021	17:45	-132.071	47.253	0	319.10	0	5.2720	0	33.8570	0	26.741	0	316.200	0	102.3	4	33.2	4	-1E+10	1	-1E+10	1	-1E+10	1	-1E+10	1	-1E+10	1	-1E+10	1
4902549	50	C	12/26/2021	17:45	-132.071	47.253	0	320.00	0	5.2750	0	33.8580	0	26.741	0	317.091	0	101.8	4	33.1	4	-1E+10	1	-1E+10	1	-1E+10	1	-1E+10	1	-1E+10	1	-1E+10	1
4902549	50	C	12/26/2021	17:45	-132.071	47.253	0	321.00	0	5.2760	0	33.8590	0	26.742	0	318.081	0	101.3	4	32.9	4	-1E+10	1	-1E+10	1	-1E+10	1	-1E+10	1	-1E+10	1	-1E+10	1
4902549	50	C	12/26/2021	17:45	-132.071	47.253	0	321.90	0	5.2770	0	33.8600	0	26.743	0	318.972	0	100.7	4	32.7	4	-1E+10	1	-1E+10	1	-1E+10	1	-1E+10	1	-1E+10	1	-1E+10	1
4902549	50	C	12/26/2021	17:45	-132.071	47.253	0	322.90	0	5.2650	0	33.8600	0	26.744	0	319.962	0	100.1	4	32.5	4	-1E+10	1	-1E+10	1	-1E+10	1	-1E+10	1	-1E+10	1	-1E+10	1
4902549	50	C	12/26/2021	17:45	-132.071	47.253	0	323.80	0	5.2610	0	33.8610	0	26.745	0	320.853	0	99.5	4	32.3	4	-1E+10	1	-1E+10	1	-1E+10	1	-1E+10	1	-1E+10	1	-1E+10	1
4902549	50	C	12/26/2021	17:45	-132.071	47.253	0	324.80	0	5.2380	0	33.8620	0	26.749	0	321.844	0	98.9	4	32.1	4	-1E+10	1	-1E+10	1	-1E+10	1	-1E+10	1	-1E+10	1	-1E+10	1
4902549	50	C	12/26/2021	17:45	-132.071	47.253	0	325.70	0	5.2240	0	33.8610	0	26.750	0	322.735	0	98.4	4	31.9	4	-1E+10	1	-1E+10	1	-1E+10	1	-1E+10	1	-1E+10	1	-1E+10	1
4902549	50	C	12/26/2021	17:45	-132.071	47.253	0	326.70	0	5.1820	0	33.8620	0	26.755	0	323.725	0	98.1	4	31.8	4	-1E+10	1	-1E+10	1	-1E+10	1	-1E+10	1	-1E+10	1	-1E+10	1
4902549	50	C	12/26/2021	17:45	-132.071	47.253	0	327.60	0	5.1730	0	33.8630	0	26.757	0	324.616	0	97.7	4	31.6	4	-1E+10	1	-1E+10	1	-1E+10	1	-1E+10	1	-1E+10	1	-1E+10	1
4902549	50	C	12/26/2021	17:45	-132.071	47.253	0	328.60	0	5.1730	0	33.8630	0	26.757	0	325.606	0	97.3	4	31.5	4	-1E+10	1	-1E+10	1	-1E+10	1	-1E+10	1	-1E+10	1	-1E+10	1
4902549	50	C	12/26/2021	17:45	-132.071	47.253	0	329.60	0	5.1620	0	33.8640	0	26.759	0	326.596	0	96.9	4	31.4	4	-1E+10	1	-1E+10	1	-1E+10	1	-1E+10	1	-1E+10	1	-1E+10	1
4902549	50	C	12/26/2021	17:45	-132.071	47.253	0	330.50	0	5.1570	0	33.8650	0	26.761	0	327.487	0	96.4	4	31.2	4	-1E+10	1	-1E+10	1	-1E+10	1	-1E+10	1	-1E+10	1	-1E+10	1
4902549	50	C	12/26/2021	17:45	-132.071	47.253	0	331.90	0	5.1560	0	33.8650	0	26.761	0	328.873	0	95.7	4	31.0	4	-1E+10	1	-1E+10	1	-1E+10	1	-1E+10	1	-1E+10	1	-1E+10	1
4902549	50	C	12/26/2021	17:45	-132.071	47.253	0	333.30	0	5.1560	0	33.8650	0	26.761	0	330.259	0	94.8	4	30.7	4	-1E+10	1	-1E+10	1	-1E+10	1	-1E+10	1	-1E+10	1	-1E+10	1
4902549	50	C	12/26/2021	17:45	-132.071	47.253	0	334.20	0	5.1520	0	33.8640	0	26.760	0	331.151	0	94.1	4	30.5	4	-1E+10	1	-1E+10	1	-1E+10	1	-1E+10	1	-1E+10	1	-1E+10	1
4902549	50	C	12/26/2021	17:45	-132.071	47.253	0	335.10	0	5.0940	0	33.8680	0	26.770	0	332.042	0	93.9	4	30.3	4	-1E+10	1	-1E+10	1	-1E+10	1	-1E+10	1	-1E+10	1	-1E+10	1
4902549	50	C	12/26/2021	17:45	-132.071	47.253	0	336.00	0	5.0810	0	33.8690	0	26.772	0	332.933	0	93.5	4	30.2	4	-1E+10	1	-1E+10	1	-1E+10	1	-1E+10	1	-1E+10	1	-1E+10	1
4902549	50	C	12/26/2021	17:45	-132.071	47.253	0	337.00	0	5.0750	0	33.8680	0	26.772	0	333.923	0	93.1	4	30.1	4	-1E+10	1	-1E+10	1	-1E+10	1	-1E+10	1	-1E+10	1	-1E+10	1
4902549	50	C	12/26/2021	17:45	-132.071	47.253	0	337.90	0	5.0720	0	33.8680	0	26.773	0	334.814	0	92.7	4	30.0	4	-1E+10	1	-1E+10	1	-1E+10	1	-1E+10	1	-1E+10	1	-1E+10	1
4902549	50	C	12/26/2021	17:45	-132.071	47.253	0	338.80	0	5.0670	0	33.8700	0	26.775	0	335.705	0	92.2	4	29.8	4	-1E+10	1	-1E+10	1	-1E+10	1	-1E+10	1	-1E+10	1	-1E+10	1
4902549	50	C	12/26/2021	17:45	-132.071	47.253	0	339.70	0	5.0540	0	33.8700	0	26.776	0	336.596	0	91.8	4	29.7	4	-1E+10	1	-1E+10	1	-1E+10	1	-1E+10	1	-1E+10	1	-1E+10	1
4902549	50	C	12/26/2021	17:45	-132.071	47.253	0	340.70	0	5.0420	0	33.8700	0	26.778	0	337.586	0	91.5	4	29.5	4	-1E+10	1	-1E+10	1	-1E+10	1	-1E+10	1	-1E+10	1	-1E+10	1
4902549	50	C	12/26/2021	17:45	-132.071	47.253	0	341.60	0	5.0340	0	33.8700	0	26.779	0	338.477	0	91.1	4	29.4	4	-1E+10	1	-1E+10	1	-1E+10	1	-1E+10	1	-1E+10	1	-1E+10	1
4902549	50	C	12/26/2021	17:45	-132.071	47.253	0	342.60	0	5.0240	0	33.8700	0	26.780	0	339.467	0	90.7	4	29.3	4	-1E+10	1	-1E+10	1	-1E+10	1	-1E+10	1	-1E+10	1	-1E+10	1
4902549	50	C	12/26/2021	17:45	-132.071	47.253	0	343.60	0	5.0180	0	33.8710	0	26.781	0	340.457	0	90.2	4	29.1	4	-1E+10	1	-1E+10	1	-1E+10	1	-1E+10	1	-1E+10	1	-1E+10	1
4902549	50	C	12/26/2021	17:45	-132.071	47.253	0	344.60	0	5.0110	0	33.8710	0	26.782	0	341.447	0	89.9	4	29.0	4	-1E+10	1	-1E+10	1	-1E+10	1	-1E+10	1	-1E+10	1	-1E+10	1
4902549	50	C	12/26/2021	17:45	-132.071	47.253	0	345.50	0	5.0050	0	33.8710	0	26.783	0	342.338	0	89.4	4	28.8	4	-1E+10	1	-1E+10	1	-1E+10	1	-1E+10	1	-1E+10	1	-1E+10	1
4902549	50	C	12/26/2021	17:45	-132.071	47.253	0	346.50	0	5.0050	0	33.8700	0	26.782	0	343.328	0	88.8	4	28.7	4	-1E+10	1	-1E+10	1	-1E+10	1	-1E+10	1	-1E+10	1	-1E+10	1
4902549	50	C	12/26/2021	17:45	-132.071	47.253	0	347.90	0	4.9860	0	33.8720	0	26.786	0	344.714	0	88.1	4	28.4	4	-1E+10	1	-1E+10	1	-1E+10	1	-1E+10	1	-1E+10	1	-1E+10	1
4902549	50	C	12/26/2021	17:45	-132.071	47.253	0	349.40	0	4.9700	0	33.8720	0	26.788	0	346.199	0	87.3	4	28.2	4	-1E+10	1	-1E+10	1	-1E+10	1	-1E+10	1	-1E+10	1	-1E+10	1
4902549	50	C	12/26/2021	17:45	-132.071	47.253	0	350.40	0	4.9640	0	33.8730	0	26.789	0	347.189	0	86.8	4	28.0	4	-1E+10	1	-1E+10	1	-1E+10	1	-1E+10	1	-1E+10	1	-1E+10	1
4902549	50	C	12/26/2021	17:45	-132.071	47.253	0	353.30	0	4.9280	0	33.8740	0	26.794	0	350.060	0	85.1	4	27.4	4	-1E+10	1	-1E+10	1	-1E+10	1	-1E+10	1	-1E+10	1	-1E+10	1
4902549	50	C	12/26/2021	17:45	-132.071	47.253	0	358.00	0	4.8730	0	33.8780	0	26.803	0	354.713	0	82.9	4	26.7	4	-1E+10	1	-1E+10	1	-1E+10	1	-1E+10	1	-1E+10	1	-1E+10	1
4902549	50	C	12/26/2021	17:45	-132.071	47.253	0	362.90	0	4.8410	0	33.8820	0	26.810	0	359.564	0	80.5	4	25.9	4	-1E+10	1	-1E+10	1	-1E+10	1	-1E+10	1	-1E+10	1	-1E+10	1
4902549	50	C	12/26/2021	17:45	-132.071	47.253	0	367.70	0	4.7970	0	33.8860	0	26.818	0	364.315	0	78.0	4	25.0	4	-1E+10	1	-1E+10	1	-1E+10	1	-1E+10	1	-1E+10	1	-1E+10	1
4902549	50	C	12/26/2021	17:45	-132.071	47.253	0	372.60	0	4.7510	0	33.8910	0	26.827	0	369.166	0	75.4	4	24.2	4	-1E+10	1	-1E+10	1	-1E+10	1	-1E+10	1	-1E+10	1	-1E+10	1
4902549	50	C	12/26/2021	17:45	-132.071	47.253	0	377.60	0	4.7000	0	33.8990	0	26.839	0	374.115	0	73.4	4	23.5	4	-1E+10	1	-1E+10	1	-1E+10	1	-1E+10	1	-1E+10	1	-1E+10	1
4902549	50	C	12/26/2021	17:45	-132.071	47.253	0	382.60	0	4.6740	0	33.9040	0	26.846	0	379.065	0	72.1	4	23.1	4	-1E+10	1	-1E+10	1	-1E+10	1	-1E+10	1	-1E+10	1	-1E+10	1
4902549	50	C	12/26/2021	17:45	-132.071	47.253	0	387.60	0	4.6700	0	33.9100	0	26.851	0	384.014	0	70.7	4	22.6	4	-1E+10	1	-1E+10	1	-1E+10	1	-1E+10	1	-1E+10	1	-1E+10	1
4902549	50	C	12/26/2021	17:45	-132.071	47.253	0	393.10	0	4.6500	0	33.9160	0	26.858	0	389.458	0	69.0	4	22.1	4	-1E+10	1	-1E+10	1	-1E+10	1	-1E+10	1	-1E+10	1	-1E+10	1
4902549	50	C	12/26/2021	17:45	-132.071	47.253	0	397.90	0	4.6200	0	33.9210	0	26.866	0	394.209	0	67.3	4	21.5	4	-1E+10	1	-1E+10	1	-1E+10	1	-1E+10	1	-1E+10	1	-1E+10	1
4902549	50	C	12/26/2021	17:45	-132.071	47.253	0	403.00	0	4.6020	0	33.9240	0	26.870	0	399.257	0	65.8	4	21.0	4	-1E+10	1	-1E+10	1	-1E+10	1	-1E+10	1	-1E+10	1	-1E+10	1
4902549	50	C	12/26/2021	17:45	-132.071	47.253	0	408.30	0	4.5710	0	33.9300	0	26.878	0	404.502	0	64.1	4	20.5	4	-1E+10	1	-1E+10	1	-1E+10	1	-1E+10	1	-1E+10	1	-1E+10	1
4902549	50	C	12/26/2021	17:45	-132.071	47.253	0	413.20	0	4.5530	0	33.9350	0	26.884	0	409.352	0	63.0	4	20.1	4	-1E+10	1	-1E+10	1	-1E+10	1	-1E+10	1	-1E+10	1	-1E+10	1
4902549	50	C	12/26/2021	17:45	-132.071	47.253	0	418.30	0	4.5370	0	33.9400	0	26.890	0	414.399	0	61.9	4	19.8	4	-1E+10	1	-1E+10	1	-1E+10	1	-1E+10	1	-1E+10	1	-1E+10	1
4902549	50	C	12/26/2021	17:45	-132.071	47.253	0	423.00	0	4.5250	0	33.9450	0	26.895	0	419.051	0	61.0	4	19.5	4	-1E+10	1	-1E+10	1	-1E+10	1	-1E+10	1	-1E+10	1	-1E+10	1
4902549	50	C	12/26/2021	17:45	-132.071	47.253	0	427.70	0	4.5150	0	33.9480	0	26.899	0	423.702	0	60.1	4	19.2	4	-1E+10	1	-1E+10	1	-1E+10	1	-1E+10	1	-1E+10	1	-1E+10	1
4902549	50	C	12/26/2021	17:45	-132.071	47.253	0	433.00	0	4.5090	0	33.9510	0	26.902	0	428.947	0	58.7	4	18.7	4	-1E+10	1	-1E+10	1	-1E+10	1	-1E+10	1	-1E+10	1	-1E+10	1
4902549	50	C	12/26/2021	17:45	-132.071	47.253	0	437.90	0	4.4880	0	33.9580	0	26.910	0	433.796	0	57.1	4	18.2	4	-1E+10	1	-1E+10	1	-1E+10	1	-1E+10	1	-1E+10	1	-1E+10	1
4902549	50	C	12/26/2021	17:45	-132.071	47.253	0	442.60	0	4.4680	0	33.9640	0	26.917	0	438.447	0	55.8	4	17.8	4	-1E+10	1	-1E+10	1	-1E+10	1	-1E+10	1	-1E+10	1	-1E+10	1
4902549	50	C	12/26/2021	17:45	-132.071	47.253	0	447.80	0	4.4530	0	33.9690	0	26.922	0	443.593	0	54.6	4	17.4	4	-1E+10	1	-1E+10	1	-1E+10	1	-1E+10	1	-1E+10	1	-1E+10	1
4902549	50	C	12/26/2021	17:45	-132.071	47.253	0	452.90	0	4.4420	0	33.9750	0	26.928	0	448.639	0	53.2	4	17.0	4	-1E+10	1	-1E+10	1	-1E+10	1	-1E+10	1	-1E+10	1	-1E+10	1
4902549	50	C	12/26/2021	17:45	-132.071	47.253	0	457.80	0	4.4210	0	33.9820	0	26.936	0	453.488	0	52.0	4	16.6	4	-1E+10	1	-1E+10	1	-1E+10	1	-1E+10	1	-1E+10	1	-1E+10	1
4902549	50	C	12/26/2021	17:45	-132.071	47.253	0	463.00	0	4.4050	0	33.9880	0	26.943	0	458.633	0	51.0	4	16.2	4	-1E+10	1	-1E+10	1	-1E+10	1	-1E+10	1	-1E+10	1	-1E+10	1
4902549	50	C	12/26/2021	17:45	-132.071	47.253	0	468.10	0	4.3980	0	33.9910	0	26.946	0	463.679	0	50.1	4	16.0	4	-1E+10	1	-1E+10	1	-1E+10	1	-1E+10	1	-1E+10	1	-1E+10	1
4902549	50	C	12/26/2021	17:45	-132.071	47.253	0	472.90	0	4.3910	0	33.9950	0	26.950	0	468.428	0	49.3	4	15.7	4	-1E+10	1	-1E+10	1	-1E+10	1	-1E+10	1	-1E+10	1	-1E+10	1
4902549	50	C	12/26/2021	17:45	-132.071	47.253	0	477.70	0	4.3800	0	33.9970	0	26.952	0	473.178	0	48.0	4	15.3	4	-1E+10	1	-1E+10	1	-1E+10	1	-1E+10	1	-1E+10	1	-1E+10	1
4902549	50	C	12/26/2021	17:45	-132.071	47.253	0	483.00	0	4.3660	0	34.0050	0	26.960	0	478.421	0	46.6	4	14.8	4	-1E+10	1	-1E+10	1	-1E+10	1	-1E+10	1	-1E+10	1	-1E+10	1
4902549	50	C	12/26/2021	17:45	-132.071	47.253	0	488.30	0	4.3640	0	34.0110	0	26.965	0	483.665	0	45.6	4	14.5	4	-1E+10	1	-1E+10	1	-1E+10	1	-1E+10	1	-1E+10	1	-1E+10	1
4902549	50	C	12/26/2021	17:45	-132.071	47.253	0	493.20	0	4.3530	0	34.0140	0	26.969	0	488.513	0	45.1	4	14.3	4	-1E+10	1	-1E+10	1	-1E+10	1	-1E+10	1	-1E+10	1	-1E+10	1
4902549	50	C	12/26/2021	17:45	-132.071	47.253	0	498.30	0	4.3400	0	34.0150	0	26.971	0	493.558	0	44.3	4	14.1	4	-1E+10	1	-1E+10	1	-1E+10	1	-1E+10	1	-1E+10	1	-1E+10	1
4902549	50	C	12/26/2021	17:45	-132.071	47.253	0	503.30	0	4.3410	0	34.0190	0	26.974	0	498.504	0	42.8	4	13.6	4	-1E+10	1	-1E+10	1	-1E+10	1	-1E+10	1	-1E+10	1	-1E+10	1
4902549	50	C	12/26/2021	17:45	-132.071	47.253	0	508.40	0	4.3410	0	34.0240	0	26.978	0	503.550	0	41.9	4	13.3	4	-1E+10	1	-1E+10	1	-1E+10	1	-1E+10	1	-1E+10	1	-1E+10	1
4902549	50	C	12/26/2021	17:45	-132.071	47.253	0	512.90	0	4.3280	0	34.0260	0	26.981	0	508.001	0	40.7	4	12.9	4	-1E+10	1	-1E+10	1	-1E+10	1	-1E+10	1	-1E+10	1	-1E+10	1
4902549	50	C	12/26/2021	17:45	-132.071	47.253	0	517.60	0	4.3230	0	34.0320	0	26.987	0	512.651	0	39.5	4	12.5	4	-1E+10	1	-1E+10	1	-1E+10	1	-1E+10	1	-1E+10	1	-1E+10	1
4902549	50	C	12/26/2021	17:45	-132.071	47.253	0	522.90	0	4.3030	0	34.0380	0	26.994	0	517.893	0	38.7	4	12.3	4	-1E+10	1	-1E+10	1	-1E+10	1	-1E+10	1	-1E+10	1	-1E+10	1
4902549	50	C	12/26/2021	17:45	-132.071	47.253	0	528.20	0	4.2920	0	34.0400	0	26.996	0	523.136	0	37.7	4	12.0	4	-1E+10	1	-1E+10	1	-1E+10	1	-1E+10	1	-1E+10	1	-1E+10	1
4902549	50	C	12/26/2021	17:45	-132.071	47.253	0	532.90	0	4.2820	0	34.0450	0	27.001	0	527.785	0	36.8	4	11.7	4	-1E+10	1	-1E+10	1	-1E+10	1	-1E+10	1	-1E+10	1	-1E+10	1
4902549	50	C	12/26/2021	17:45	-132.071	47.253	0	537.80	0	4.2680	0	34.0490	0	27.006	0	532.632	0	36.2	4	11.5	4	-1E+10	1	-1E+10	1	-1E+10	1	-1E+10	1	-1E+10	1	-1E+10	1
4902549	50	C	12/26/2021	17:45	-132.071	47.253	0	543.20	0	4.2380	0	34.0520	0	27.012	0	537.973	0	35.5	4	11.2	4	-1E+10	1	-1E+10	1	-1E+10	1	-1E+10	1	-1E+10	1	-1E+10	1
4902549	50	C	12/26/2021	17:45	-132.071	47.253	0	548.10	0	4.2160	0	34.0570	0	27.018	0	542.819	0	34.7	4	11.0	4	-1E+10	1	-1E+10	1	-1E+10	1	-1E+10	1	-1E+10	1	-1E+10	1
4902549	50	C	12/26/2021	17:45	-132.071	47.253	0	553.10	0	4.2060	0	34.0580	0	27.020	0	547.764	0	33.7	4	10.7	4	-1E+10	1	-1E+10	1	-1E+10	1	-1E+10	1	-1E+10	1	-1E+10	1
4902549	50	C	12/26/2021	17:45	-132.071	47.253	0	558.10	0	4.1900	0	34.0640	0	27.026	0	552.710	0	32.5	4	10.3	4	-1E+10	1	-1E+10	1	-1E+10	1	-1E+10	1	-1E+10	1	-1E+10	1
4902549	50	C	12/26/2021	17:45	-132.071	47.253	0	563.00	0	4.1770	0	34.0690	0	27.032	0	557.556	0	31.4	4	10.0	4	-1E+10	1	-1E+10	1	-1E+10	1	-1E+10	1	-1E+10	1	-1E+10	1
4902549	50	C	12/26/2021	17:45	-132.071	47.253	0	568.00	0	4.1650	0	34.0740	0	27.037	0	562.501	0	30.1	4	9.5	4	-1E+10	1	-1E+10	1	-1E+10	1	-1E+10	1	-1E+10	1	-1E+10	1
4902549	50	C	12/26/2021	17:45	-132.071	47.253	0	573.00	0	4.1380	0	34.0840	0	27.048	0	567.445	0	29.2	4	9.2	4	-1E+10	1	-1E+10	1	-1E+10	1	-1E+10	1	-1E+10	1	-1E+10	1
4902549	50	C	12/26/2021	17:45	-132.071	47.253	0	578.10	0	4.1350	0	34.0850	0	27.049	0	572.489	0	28.4	4	9.0	4	-1E+10	1	-1E+10	1	-1E+10	1	-1E+10	1	-1E+10	1	-1E+10	1
4902549	50	C	12/26/2021	17:45	-132.071	47.253	0	582.70	0	4.1250	0	34.0890	0	27.053	0	577.038	0	27.5	4	8.7	4	-1E+10	1	-1E+10	1	-1E+10	1	-1E+10	1	-1E+10	1	-1E+10	1
4902549	50	C	12/26/2021	17:45	-132.071	47.253	0	587.80	0	4.1060	0	34.0960	0	27.061	0	582.081	0	26.6	4	8.4	4	-1E+10	1	-1E+10	1	-1E+10	1	-1E+10	1	-1E+10	1	-1E+10	1
4902549	50	C	12/26/2021	17:45	-132.071	47.253	0	592.80	0	4.0920	0	34.1010	0	27.066	0	587.025	0	25.8	4	8.2	4	-1E+10	1	-1E+10	1	-1E+10	1	-1E+10	1	-1E+10	1	-1E+10	1
4902549	50	C	12/26/2021	17:45	-132.071	47.253	0	597.80	0	4.0790	0	34.1060	0	27.071	0	591.970	0	25.3	4	8.0	4	-1E+10	1	-1E+10	1	-1E+10	1	-1E+10	1	-1E+10	1	-1E+10	1
4902549	50	C	12/26/2021	17:45	-132.071	47.253	0	602.80	0	4.0710	0	34.1090	0	27.075	0	596.914	0	24.7	4	7.8	4	-1E+10	1	-1E+10	1	-1E+10	1	-1E+10	1	-1E+10	1	-1E+10	1
4902549	50	C	12/26/2021	17:45	-132.071	47.253	0	607.70	0	4.0650	0	34.1110	0	27.077	0	601.759	0	24.1	4	7.6	4	-1E+10	1	-1E+10	1	-1E+10	1	-1E+10	1	-1E+10	1	-1E+10	1
4902549	50	C	12/26/2021	17:45	-132.071	47.253	0	613.10	0	4.0550	0	34.1140	0	27.080	0	607.098	0	23.0	4	7.3	4	-1E+10	1	-1E+10	1	-1E+10	1	-1E+10	1	-1E+10	1	-1E+10	1
4902549	50	C	12/26/2021	17:45	-132.071	47.253	0	618.00	0	4.0340	0	34.1240	0	27.091	0	611.943	0	22.3	4	7.1	4	-1E+10	1	-1E+10	1	-1E+10	1	-1E+10	1	-1E+10	1	-1E+10	1
4902549	50	C	12/26/2021	17:45	-132.071	47.253	0	622.90	0	4.0270	0	34.1260	0	27.093	0	616.788	0	21.9	4	6.9	4	-1E+10	1	-1E+10	1	-1E+10	1	-1E+10	1	-1E+10	1	-1E+10	1
4902549	50	C	12/26/2021	17:45	-132.071	47.253	0	628.30	0	4.0170	0	34.1290	0	27.096	0	622.127	0	21.5	4	6.8	4	-1E+10	1	-1E+10	1	-1E+10	1	-1E+10	1	-1E+10	1	-1E+10	1
4902549	50	C	12/26/2021	17:45	-132.071	47.253	0	633.30	0	4.0080	0	34.1320	0	27.100	0	627.070	0	21.0	4	6.6	4	-1E+10	1	-1E+10	1	-1E+10	1	-1E+10	1	-1E+10	1	-1E+10	1
4902549	50	C	12/26/2021	17:45	-132.071	47.253	0	637.70	0	3.9950	0	34.1350	0	27.103	0	631.420	0	20.4	4	6.4	4	-1E+10	1	-1E+10	1	-1E+10	1	-1E+10	1	-1E+10	1	-1E+10	1
4902549	50	C	12/26/2021	17:45	-132.071	47.253	0	642.90	0	3.9760	0	34.1420	0	27.111	0	636.561	0	19.7	4	6.2	4	-1E+10	1	-1E+10	1	-1E+10	1	-1E+10	1	-1E+10	1	-1E+10	1
4902549	50	C	12/26/2021	17:45	-132.071	47.253	0	648.20	0	3.9650	0	34.1450	0	27.114	0	641.800	0	19.2	4	6.0	4	-1E+10	1	-1E+10	1	-1E+10	1	-1E+10	1	-1E+10	1	-1E+10	1
4902549	50	C	12/26/2021	17:45	-132.071	47.253	0	653.00	0	3.9490	0	34.1510	0	27.121	0	646.546	0	18.7	4	5.9	4	-1E+10	1	-1E+10	1	-1E+10	1	-1E+10	1	-1E+10	1	-1E+10	1
4902549	50	C	12/26/2021	17:45	-132.071	47.253	0	657.80	0	3.9430	0	34.1530	0	27.123	0	651.291	0	18.5	4	5.8	4	-1E+10	1	-1E+10	1	-1E+10	1	-1E+10	1	-1E+10	1	-1E+10	1
4902549	50	C	12/26/2021	17:45	-132.071	47.253	0	662.70	0	3.9410	0	34.1540	0	27.124	0	656.134	0	18.1	4	5.7	4	-1E+10	1	-1E+10	1	-1E+10	1	-1E+10	1	-1E+10	1	-1E+10	1
4902549	50	C	12/26/2021	17:45	-132.071	47.253	0	667.60	0	3.9180	0	34.1600	0	27.131	0	660.978	0	17.6	4	5.5	4	-1E+10	1	-1E+10	1	-1E+10	1	-1E+10	1	-1E+10	1	-1E+10	1
4902549	50	C	12/26/2021	17:45	-132.071	47.253	0	672.70	0	3.9050	0	34.1640	0	27.136	0	666.019	0	17.3	4	5.4	4	-1E+10	1	-1E+10	1	-1E+10	1	-1E+10	1	-1E+10	1	-1E+10	1
4902549	50	C	12/26/2021	17:45	-132.071	47.253	0	677.90	0	3.8980	0	34.1660	0	27.138	0	671.159	0	16.9	4	5.3	4	-1E+10	1	-1E+10	1	-1E+10	1	-1E+10	1	-1E+10	1	-1E+10	1
4902549	50	C	12/26/2021	17:45	-132.071	47.253	0	683.20	0	3.8720	0	34.1720	0	27.146	0	676.398	0	16.4	4	5.2	4	-1E+10	1	-1E+10	1	-1E+10	1	-1E+10	1	-1E+10	1	-1E+10	1
4902549	50	C	12/26/2021	17:45	-132.071	47.253	0	688.10	0	3.8570	0	34.1760	0	27.150	0	681.241	0	16.1	4	5.1	4	-1E+10	1	-1E+10	1	-1E+10	1	-1E+10	1	-1E+10	1	-1E+10	1
4902549	50	C	12/26/2021	17:45	-132.071	47.253	0	693.10	0	3.8470	0	34.1790	0	27.154	0	686.183	0	15.8	4	5.0	4	-1E+10	1	-1E+10	1	-1E+10	1	-1E+10	1	-1E+10	1	-1E+10	1
4902549	50	C	12/26/2021	17:45	-132.071	47.253	0	698.10	0	3.8380	0	34.1820	0	27.157	0	691.125	0	15.6	4	4.9	4	-1E+10	1	-1E+10	1	-1E+10	1	-1E+10	1	-1E+10	1	-1E+10	1
4902549	50	C	12/26/2021	17:45	-132.071	47.253	0	702.80	0	3.8310	0	34.1830	0	27.159	0	695.770	0	15.2	4	4.8	4	-1E+10	1	-1E+10	1	-1E+10	1	-1E+10	1	-1E+10	1	-1E+10	1
4902549	50	C	12/26/2021	17:45	-132.071	47.253	0	707.60	0	3.8080	0	34.1890	0	27.166	0	700.514	0	14.9	4	4.7	4	-1E+10	1	-1E+10	1	-1E+10	1	-1E+10	1	-1E+10	1	-1E+10	1
4902549	50	C	12/26/2021	17:45	-132.071	47.253	0	712.50	0	3.8040	0	34.1900	0	27.167	0	705.357	0	14.6	4	4.6	4	-1E+10	1	-1E+10	1	-1E+10	1	-1E+10	1	-1E+10	1	-1E+10	1
4902549	50	C	12/26/2021	17:45	-132.071	47.253	0	717.50	0	3.7850	0	34.1950	0	27.173	0	710.298	0	14.2	4	4.4	4	-1E+10	1	-1E+10	1	-1E+10	1	-1E+10	1	-1E+10	1	-1E+10	1
4902549	50	C	12/26/2021	17:45	-132.071	47.253	0	722.50	0	3.7600	0	34.2020	0	27.181	0	715.239	0	13.8	4	4.3	4	-1E+10	1	-1E+10	1	-1E+10	1	-1E+10	1	-1E+10	1	-1E+10	1
4902549	50	C	12/26/2021	17:45	-132.071	47.253	0	727.60	0	3.7530	0	34.2040	0	27.183	0	720.279	0	13.5	4	4.2	4	-1E+10	1	-1E+10	1	-1E+10	1	-1E+10	1	-1E+10	1	-1E+10	1
4902549	50	C	12/26/2021	17:45	-132.071	47.253	0	732.70	0	3.7480	0	34.2050	0	27.185	0	725.319	0	13.1	4	4.1	4	-1E+10	1	-1E+10	1	-1E+10	1	-1E+10	1	-1E+10	1	-1E+10	1
4902549	50	C	12/26/2021	17:45	-132.071	47.253	0	737.80	0	3.7260	0	34.2130	0	27.193	0	730.359	0	12.7	4	4.0	4	-1E+10	1	-1E+10	1	-1E+10	1	-1E+10	1	-1E+10	1	-1E+10	1
4902549	50	C	12/26/2021	17:45	-132.071	47.253	0	742.90	0	3.7160	0	34.2160	0	27.197	0	735.399	0	12.4	4	3.9	4	-1E+10	1	-1E+10	1	-1E+10	1	-1E+10	1	-1E+10	1	-1E+10	1
4902549	50	C	12/26/2021	17:45	-132.071	47.253	0	748.20	0	3.7080	0	34.2190	0	27.200	0	740.636	0	12.1	4	3.8	4	-1E+10	1	-1E+10	1	-1E+10	1	-1E+10	1	-1E+10	1	-1E+10	1
4902549	50	C	12/26/2021	17:45	-132.071	47.253	0	752.90	0	3.6990	0	34.2220	0	27.203	0	745.280	0	11.8	4	3.7	4	-1E+10	1	-1E+10	1	-1E+10	1	-1E+10	1	-1E+10	1	-1E+10	1
4902549	50	C	12/26/2021	17:45	-132.071	47.253	0	757.70	0	3.6930	0	34.2250	0	27.206	0	750.023	0	11.5	4	3.6	4	-1E+10	1	-1E+10	1	-1E+10	1	-1E+10	1	-1E+10	1	-1E+10	1
4902549	50	C	12/26/2021	17:45	-132.071	47.253	0	763.00	0	3.6830	0	34.2280	0	27.209	0	755.259	0	11.2	4	3.5	4	-1E+10	1	-1E+10	1	-1E+10	1	-1E+10	1	-1E+10	1	-1E+10	1
4902549	50	C	12/26/2021	17:45	-132.071	47.253	0	767.80	0	3.6700	0	34.2320	0	27.214	0	760.002	0	10.8	4	3.4	4	-1E+10	1	-1E+10	1	-1E+10	1	-1E+10	1	-1E+10	1	-1E+10	1
4902549	50	C	12/26/2021	17:45	-132.071	47.253	0	772.60	0	3.6520	0	34.2370	0	27.220	0	764.744	0	10.5	4	3.3	4	-1E+10	1	-1E+10	1	-1E+10	1	-1E+10	1	-1E+10	1	-1E+10	1
4902549	50	C	12/26/2021	17:45	-132.071	47.253	0	778.10	0	3.6320	0	34.2420	0	27.226	0	770.178	0	10.2	4	3.2	4	-1E+10	1	-1E+10	1	-1E+10	1	-1E+10	1	-1E+10	1	-1E+10	1
4902549	50	C	12/26/2021	17:45	-132.071	47.253	0	783.00	0	3.6240	0	34.2450	0	27.229	0	775.019	0	10.0	4	3.1	4	-1E+10	1	-1E+10	1	-1E+10	1	-1E+10	1	-1E+10	1	-1E+10	1
4902549	50	C	12/26/2021	17:45	-132.071	47.253	0	787.80	0	3.6100	0	34.2490	0	27.233	0	779.761	0	9.7	4	3.0	4	-1E+10	1	-1E+10	1	-1E+10	1	-1E+10	1	-1E+10	1	-1E+10	1
4902549	50	C	12/26/2021	17:45	-132.071	47.253	0	793.00	0	3.5910	0	34.2540	0	27.239	0	784.898	0	9.5	4	3.0	4	-1E+10	1	-1E+10	1	-1E+10	1	-1E+10	1	-1E+10	1	-1E+10	1
4902549	50	C	12/26/2021	17:45	-132.071	47.253	0	798.20	0	3.5800	0	34.2570	0	27.243	0	790.036	0	9.3	4	2.9	4	-1E+10	1	-1E+10	1	-1E+10	1	-1E+10	1	-1E+10	1	-1E+10	1
4902549	50	C	12/26/2021	17:45	-132.071	47.253	0	803.20	0	3.5660	0	34.2600	0	27.247	0	794.975	0	9.2	4	2.9	4	-1E+10	1	-1E+10	1	-1E+10	1	-1E+10	1	-1E+10	1	-1E+10	1
4902549	50	C	12/26/2021	17:45	-132.071	47.253	0	808.10	0	3.5540	0	34.2630	0	27.250	0	799.815	0	9.0	4	2.8	4	-1E+10	1	-1E+10	1	-1E+10	1	-1E+10	1	-1E+10	1	-1E+10	1
4902549	50	C	12/26/2021	17:45	-132.071	47.253	0	813.10	0	3.5400	0	34.2660	0	27.254	0	804.754	0	8.8	4	2.8	4	-1E+10	1	-1E+10	1	-1E+10	1	-1E+10	1	-1E+10	1	-1E+10	1
4902549	50	C	12/26/2021	17:45	-132.071	47.253	0	818.20	0	3.5200	0	34.2710	0	27.260	0	809.792	0	8.6	4	2.7	4	-1E+10	1	-1E+10	1	-1E+10	1	-1E+10	1	-1E+10	1	-1E+10	1
4902549	50	C	12/26/2021	17:45	-132.071	47.253	0	823.30	0	3.5090	0	34.2740	0	27.263	0	814.830	0	8.6	4	2.7	4	-1E+10	1	-1E+10	1	-1E+10	1	-1E+10	1	-1E+10	1	-1E+10	1
4902549	50	C	12/26/2021	17:45	-132.071	47.253	0	828.00	0	3.5000	0	34.2770	0	27.267	0	819.472	0	8.5	4	2.7	4	-1E+10	1	-1E+10	1	-1E+10	1	-1E+10	1	-1E+10	1	-1E+10	1
4902549	50	C	12/26/2021	17:45	-132.071	47.253	0	832.80	0	3.4950	0	34.2780	0	27.268	0	824.213	0	8.5	4	2.7	4	-1E+10	1	-1E+10	1	-1E+10	1	-1E+10	1	-1E+10	1	-1E+10	1
4902549	50	C	12/26/2021	17:45	-132.071	47.253	0	838.10	0	3.4840	0	34.2800	0	27.271	0	829.448	0	8.5	4	2.7	4	-1E+10	1	-1E+10	1	-1E+10	1	-1E+10	1	-1E+10	1	-1E+10	1
4902549	50	C	12/26/2021	17:45	-132.071	47.253	0	843.00	0	3.4730	0	34.2830	0	27.274	0	834.288	0	8.5	4	2.7	4	-1E+10	1	-1E+10	1	-1E+10	1	-1E+10	1	-1E+10	1	-1E+10	1
4902549	50	C	12/26/2021	17:45	-132.071	47.253	0	847.90	0	3.4660	0	34.2840	0	27.276	0	839.127	0	8.5	4	2.6	4	-1E+10	1	-1E+10	1	-1E+10	1	-1E+10	1	-1E+10	1	-1E+10	1
4902549	50	C	12/26/2021	17:45	-132.071	47.253	0	853.20	0	3.4640	0	34.2860	0	27.277	0	844.362	0	8.4	4	2.6	4	-1E+10	1	-1E+10	1	-1E+10	1	-1E+10	1	-1E+10	1	-1E+10	1
4902549	50	C	12/26/2021	17:45	-132.071	47.253	0	858.00	0	3.4570	0	34.2870	0	27.279	0	849.102	0	8.4	4	2.6	4	-1E+10	1	-1E+10	1	-1E+10	1	-1E+10	1	-1E+10	1	-1E+10	1
4902549	50	C	12/26/2021	17:45	-132.071	47.253	0	862.80	0	3.4480	0	34.2900	0	27.282	0	853.843	0	8.3	4	2.6	4	-1E+10	1	-1E+10	1	-1E+10	1	-1E+10	1	-1E+10	1	-1E+10	1
4902549	50	C	12/26/2021	17:45	-132.071	47.253	0	868.10	0	3.4410	0	34.2910	0	27.284	0	859.077	0	8.2	4	2.6	4	-1E+10	1	-1E+10	1	-1E+10	1	-1E+10	1	-1E+10	1	-1E+10	1
4902549	50	C	12/26/2021	17:45	-132.071	47.253	0	872.90	0	3.4300	0	34.2940	0	27.287	0	863.817	0	8.1	4	2.5	4	-1E+10	1	-1E+10	1	-1E+10	1	-1E+10	1	-1E+10	1	-1E+10	1
4902549	50	C	12/26/2021	17:45	-132.071	47.253	0	877.60	0	3.4170	0	34.2980	0	27.292	0	868.458	0	8.0	4	2.5	4	-1E+10	1	-1E+10	1	-1E+10	1	-1E+10	1	-1E+10	1	-1E+10	1
4902549	50	C	12/26/2021	17:45	-132.071	47.253	0	882.70	0	3.4130	0	34.2990	0	27.293	0	873.495	0	7.9	4	2.4	4	-1E+10	1	-1E+10	1	-1E+10	1	-1E+10	1	-1E+10	1	-1E+10	1
4902549	50	C	12/26/2021	17:45	-132.071	47.253	0	887.90	0	3.4010	0	34.3030	0	27.297	0	878.630	0	7.7	4	2.4	4	-1E+10	1	-1E+10	1	-1E+10	1	-1E+10	1	-1E+10	1	-1E+10	1
4902549	50	C	12/26/2021	17:45	-132.071	47.253	0	893.20	0	3.3910	0	34.3060	0	27.301	0	883.863	0	7.6	4	2.4	4	-1E+10	1	-1E+10	1	-1E+10	1	-1E+10	1	-1E+10	1	-1E+10	1
4902549	50	C	12/26/2021	17:45	-132.071	47.253	0	898.10	0	3.3800	0	34.3090	0	27.304	0	888.701	0	7.4	4	2.3	4	-1E+10	1	-1E+10	1	-1E+10	1	-1E+10	1	-1E+10	1	-1E+10	1
4902549	50	C	12/26/2021	17:45	-132.071	47.253	0	903.00	0	3.3670	0	34.3130	0	27.309	0	893.540	0	7.3	4	2.3	4	-1E+10	1	-1E+10	1	-1E+10	1	-1E+10	1	-1E+10	1	-1E+10	1
4902549	50	C	12/26/2021	17:45	-132.071	47.253	0	908.10	0	3.3500	0	34.3180	0	27.314	0	898.575	0	7.3	4	2.3	4	-1E+10	1	-1E+10	1	-1E+10	1	-1E+10	1	-1E+10	1	-1E+10	1
4902549	50	C	12/26/2021	17:45	-132.071	47.253	0	912.70	0	3.3370	0	34.3190	0	27.316	0	903.117	0	7.3	4	2.3	4	-1E+10	1	-1E+10	1	-1E+10	1	-1E+10	1	-1E+10	1	-1E+10	1
4902549	50	C	12/26/2021	17:45	-132.071	47.253	0	917.80	0	3.3210	0	34.3230	0	27.321	0	908.152	0	7.1	4	2.2	4	-1E+10	1	-1E+10	1	-1E+10	1	-1E+10	1	-1E+10	1	-1E+10	1
4902549	50	C	12/26/2021	17:45	-132.071	47.253	0	923.00	0	3.3050	0	34.3290	0	27.327	0	913.287	0	6.9	4	2.1	4	-1E+10	1	-1E+10	1	-1E+10	1	-1E+10	1	-1E+10	1	-1E+10	1
4902549	50	C	12/26/2021	17:45	-132.071	47.253	0	927.80	0	3.3000	0	34.3310	0	27.329	0	918.025	0	6.8	4	2.1	4	-1E+10	1	-1E+10	1	-1E+10	1	-1E+10	1	-1E+10	1	-1E+10	1
4902549	50	C	12/26/2021	17:45	-132.071	47.253	0	932.70	0	3.2930	0	34.3340	0	27.332	0	922.863	0	6.7	4	2.1	4	-1E+10	1	-1E+10	1	-1E+10	1	-1E+10	1	-1E+10	1	-1E+10	1
4902549	50	C	12/26/2021	17:45	-132.071	47.253	0	937.70	0	3.2880	0	34.3360	0	27.335	0	927.799	0	6.7	4	2.1	4	-1E+10	1	-1E+10	1	-1E+10	1	-1E+10	1	-1E+10	1	-1E+10	1
4902549	50	C	12/26/2021	17:45	-132.071	47.253	0	942.70	0	3.2640	0	34.3400	0	27.340	0	932.735	0	6.7	4	2.1	4	-1E+10	1	-1E+10	1	-1E+10	1	-1E+10	1	-1E+10	1	-1E+10	1
4902549	50	C	12/26/2021	17:45	-132.071	47.253	0	947.80	0	3.2570	0	34.3430	0	27.343	0	937.770	0	6.7	4	2.1	4	-1E+10	1	-1E+10	1	-1E+10	1	-1E+10	1	-1E+10	1	-1E+10	1
4902549	50	C	12/26/2021	17:45	-132.071	47.253	0	952.80	0	3.2500	0	34.3450	0	27.345	0	942.706	0	6.6	4	2.0	4	-1E+10	1	-1E+10	1	-1E+10	1	-1E+10	1	-1E+10	1	-1E+10	1
4902549	50	C	12/26/2021	17:45	-132.071	47.253	0	957.90	0	3.2420	0	34.3480	0	27.348	0	947.740	0	6.5	4	2.0	4	-1E+10	1	-1E+10	1	-1E+10	1	-1E+10	1	-1E+10	1	-1E+10	1
4902549	50	C	12/26/2021	17:45	-132.071	47.253	0	962.70	0	3.2270	0	34.3520	0	27.353	0	952.478	0	6.5	4	2.0	4	-1E+10	1	-1E+10	1	-1E+10	1	-1E+10	1	-1E+10	1	-1E+10	1
4902549	50	C	12/26/2021	17:45	-132.071	47.253	0	967.60	0	3.2220	0	34.3530	0	27.354	0	957.315	0	6.5	4	2.0	4	-1E+10	1	-1E+10	1	-1E+10	1	-1E+10	1	-1E+10	1	-1E+10	1
4902549	50	C	12/26/2021	17:45	-132.071	47.253	0	972.60	0	3.2110	0	34.3560	0	27.358	0	962.251	0	6.5	4	2.0	4	-1E+10	1	-1E+10	1	-1E+10	1	-1E+10	1	-1E+10	1	-1E+10	1
4902549	50	C	12/26/2021	17:45	-132.071	47.253	0	977.70	0	3.2030	0	34.3580	0	27.360	0	967.285	0	6.4	4	2.0	4	-1E+10	1	-1E+10	1	-1E+10	1	-1E+10	1	-1E+10	1	-1E+10	1
4902549	50	C	12/26/2021	17:45	-132.071	47.253	0	982.80	0	3.1960	0	34.3590	0	27.362	0	972.318	0	6.4	4	2.0	4	-1E+10	1	-1E+10	1	-1E+10	1	-1E+10	1	-1E+10	1	-1E+10	1
4902549	50	C	12/26/2021	17:45	-132.071	47.253	0	988.00	0	3.1890	0	34.3610	0	27.364	0	977.451	0	6.5	4	2.0	4	-1E+10	1	-1E+10	1	-1E+10	1	-1E+10	1	-1E+10	1	-1E+10	1
4902549	50	C	12/26/2021	17:45	-132.071	47.253	0	992.90	0	3.1810	0	34.3630	0	27.366	0	982.287	0	6.4	4	2.0	4	-1E+10	1	-1E+10	1	-1E+10	1	-1E+10	1	-1E+10	1	-1E+10	1
4902549	50	C	12/26/2021	17:45	-132.071	47.253	0	997.80	0	3.1720	0	34.3660	0	27.370	0	987.123	0	6.4	4	2.0	4	-1E+10	1	-1E+10	1	-1E+10	1	-1E+10	1	-1E+10	1	-1E+10	1
4902549	50	C	12/26/2021	17:45	-132.071	47.253	0	1005.60	0	3.1640	0	34.3680	0	27.372	0	994.821	0	6.4	4	2.0	4	-1E+10	1	-1E+10	1	-1E+10	1	-1E+10	1	-1E+10	1	-1E+10	1
4902549	50	C	12/26/2021	17:45	-132.071	47.253	0	1015.50	0	3.1530	0	34.3710	0	27.375	0	1004.591	0	6.5	4	2.0	4	-1E+10	1	-1E+10	1	-1E+10	1	-1E+10	1	-1E+10	1	-1E+10	1
4902549	50	C	12/26/2021	17:45	-132.071	47.253	0	1025.20	0	3.1430	0	34.3740	0	27.379	0	1014.164	0	6.5	4	2.0	4	-1E+10	1	-1E+10	1	-1E+10	1	-1E+10	1	-1E+10	1	-1E+10	1
4902549	50	C	12/26/2021	17:45	-132.071	47.253	0	1035.00	0	3.1410	0	34.3740	0	27.379	0	1023.834	0	6.5	4	2.0	4	-1E+10	1	-1E+10	1	-1E+10	1	-1E+10	1	-1E+10	1	-1E+10	1
4902549	50	C	12/26/2021	17:45	-132.071	47.253	0	1045.00	0	3.1330	0	34.3770	0	27.382	0	1033.702	0	6.6	4	2.0	4	-1E+10	1	-1E+10	1	-1E+10	1	-1E+10	1	-1E+10	1	-1E+10	1
4902549	50	C	12/26/2021	17:45	-132.071	47.253	0	1055.10	0	3.1210	0	34.3810	0	27.387	0	1043.667	0	6.7	4	2.1	4	-1E+10	1	-1E+10	1	-1E+10	1	-1E+10	1	-1E+10	1	-1E+10	1
4902549	50	C	12/26/2021	17:45	-132.071	47.253	0	1065.20	0	3.1110	0	34.3840	0	27.390	0	1053.633	0	6.8	4	2.1	4	-1E+10	1	-1E+10	1	-1E+10	1	-1E+10	1	-1E+10	1	-1E+10	1
4902549	50	C	12/26/2021	17:45	-132.071	47.253	0	1075.40	0	3.1020	0	34.3870	0	27.393	0	1063.696	0	6.9	4	2.1	4	-1E+10	1	-1E+10	1	-1E+10	1	-1E+10	1	-1E+10	1	-1E+10	1
4902549	50	C	12/26/2021	17:45	-132.071	47.253	0	1085.30	0	3.0970	0	34.3900	0	27.396	0	1073.463	0	7.1	4	2.2	4	-1E+10	1	-1E+10	1	-1E+10	1	-1E+10	1	-1E+10	1	-1E+10	1
4902549	50	C	12/26/2021	17:45	-132.071	47.253	0	1095.10	0	3.0830	0	34.3940	0	27.401	0	1083.131	0	7.2	4	2.2	4	-1E+10	1	-1E+10	1	-1E+10	1	-1E+10	1	-1E+10	1	-1E+10	1
4902549	50	C	12/26/2021	17:45	-132.071	47.253	0	1105.40	0	3.0680	0	34.3970	0	27.405	0	1093.291	0	7.3	4	2.3	4	-1E+10	1	-1E+10	1	-1E+10	1	-1E+10	1	-1E+10	1	-1E+10	1
4902549	50	C	12/26/2021	17:45	-132.071	47.253	0	1115.70	0	3.0510	0	34.4000	0	27.409	0	1103.451	0	7.4	4	2.3	4	-1E+10	1	-1E+10	1	-1E+10	1	-1E+10	1	-1E+10	1	-1E+10	1
4902549	50	C	12/26/2021	17:45	-132.071	47.253	0	1125.50	0	3.0290	0	34.4030	0	27.413	0	1113.118	0	7.6	4	2.3	4	-1E+10	1	-1E+10	1	-1E+10	1	-1E+10	1	-1E+10	1	-1E+10	1
4902549	50	C	12/26/2021	17:45	-132.071	47.253	0	1135.60	0	3.0140	0	34.4060	0	27.417	0	1123.080	0	7.7	4	2.4	4	-1E+10	1	-1E+10	1	-1E+10	1	-1E+10	1	-1E+10	1	-1E+10	1
4902549	50	C	12/26/2021	17:45	-132.071	47.253	0	1145.50	0	2.9830	0	34.4090	0	27.422	0	1132.844	0	7.9	4	2.4	4	-1E+10	1	-1E+10	1	-1E+10	1	-1E+10	1	-1E+10	1	-1E+10	1
4902549	50	C	12/26/2021	17:45	-132.071	47.253	0	1155.30	0	2.9670	0	34.4100	0	27.424	0	1142.509	0	8.0	4	2.5	4	-1E+10	1	-1E+10	1	-1E+10	1	-1E+10	1	-1E+10	1	-1E+10	1
4902549	50	C	12/26/2021	17:45	-132.071	47.253	0	1165.10	0	2.9520	0	34.4130	0	27.428	0	1152.174	0	8.1	4	2.5	4	-1E+10	1	-1E+10	1	-1E+10	1	-1E+10	1	-1E+10	1	-1E+10	1
4902549	50	C	12/26/2021	17:45	-132.071	47.253	0	1174.90	0	2.9330	0	34.4160	0	27.432	0	1161.838	0	8.2	4	2.5	4	-1E+10	1	-1E+10	1	-1E+10	1	-1E+10	1	-1E+10	1	-1E+10	1
4902549	50	C	12/26/2021	17:45	-132.071	47.253	0	1185.40	0	2.9250	0	34.4170	0	27.434	0	1172.192	0	8.4	4	2.6	4	-1E+10	1	-1E+10	1	-1E+10	1	-1E+10	1	-1E+10	1	-1E+10	1
4902549	50	C	12/26/2021	17:45	-132.071	47.253	0	1195.50	0	2.9080	0	34.4190	0	27.437	0	1182.151	0	8.5	4	2.6	4	-1E+10	1	-1E+10	1	-1E+10	1	-1E+10	1	-1E+10	1	-1E+10	1
4902549	50	C	12/26/2021	17:45	-132.071	47.253	0	1205.30	0	2.8920	0	34.4220	0	27.441	0	1191.814	0	8.6	4	2.7	4	-1E+10	1	-1E+10	1	-1E+10	1	-1E+10	1	-1E+10	1	-1E+10	1
4902549	50	C	12/26/2021	17:45	-132.071	47.253	0	1215.20	0	2.8850	0	34.4230	0	27.442	0	1201.575	0	8.8	4	2.7	4	-1E+10	1	-1E+10	1	-1E+10	1	-1E+10	1	-1E+10	1	-1E+10	1
4902549	50	C	12/26/2021	17:45	-132.071	47.253	0	1225.50	0	2.8690	0	34.4260	0	27.446	0	1211.730	0	9.0	4	2.8	4	-1E+10	1	-1E+10	1	-1E+10	1	-1E+10	1	-1E+10	1	-1E+10	1
4902549	50	C	12/26/2021	17:45	-132.071	47.253	0	1235.50	0	2.8490	0	34.4290	0	27.450	0	1221.588	0	9.2	4	2.8	4	-1E+10	1	-1E+10	1	-1E+10	1	-1E+10	1	-1E+10	1	-1E+10	1
4902549	50	C	12/26/2021	17:45	-132.071	47.253	0	1245.50	0	2.8310	0	34.4320	0	27.454	0	1231.446	0	9.4	4	2.9	4	-1E+10	1	-1E+10	1	-1E+10	1	-1E+10	1	-1E+10	1	-1E+10	1
4902549	50	C	12/26/2021	17:45	-132.071	47.253	0	1255.40	0	2.8190	0	34.4340	0	27.457	0	1241.206	0	9.7	4	3.0	4	-1E+10	1	-1E+10	1	-1E+10	1	-1E+10	1	-1E+10	1	-1E+10	1
4902549	50	C	12/26/2021	17:45	-132.071	47.253	0	1265.10	0	2.8020	0	34.4380	0	27.462	0	1250.767	0	10.1	4	3.1	4	-1E+10	1	-1E+10	1	-1E+10	1	-1E+10	1	-1E+10	1	-1E+10	1
4902549	50	C	12/26/2021	17:45	-132.071	47.253	0	1275.10	0	2.7880	0	34.4420	0	27.466	0	1260.624	0	10.5	4	3.2	4	-1E+10	1	-1E+10	1	-1E+10	1	-1E+10	1	-1E+10	1	-1E+10	1
4902549	50	C	12/26/2021	17:45	-132.071	47.253	0	1285.40	0	2.7770	0	34.4480	0	27.472	0	1270.776	0	10.9	4	3.3	4	-1E+10	1	-1E+10	1	-1E+10	1	-1E+10	1	-1E+10	1	-1E+10	1
4902549	50	C	12/26/2021	17:45	-132.071	47.253	0	1295.40	0	2.7610	0	34.4500	0	27.475	0	1280.632	0	11.2	4	3.4	4	-1E+10	1	-1E+10	1	-1E+10	1	-1E+10	1	-1E+10	1	-1E+10	1
4902549	50	C	12/26/2021	17:45	-132.071	47.253	0	1305.10	0	2.7430	0	34.4540	0	27.480	0	1290.191	0	11.4	4	3.5	4	-1E+10	1	-1E+10	1	-1E+10	1	-1E+10	1	-1E+10	1	-1E+10	1
4902549	50	C	12/26/2021	17:45	-132.071	47.253	0	1315.40	0	2.7280	0	34.4550	0	27.482	0	1300.342	0	11.5	4	3.5	4	-1E+10	1	-1E+10	1	-1E+10	1	-1E+10	1	-1E+10	1	-1E+10	1
4902549	50	C	12/26/2021	17:45	-132.071	47.253	0	1325.70	0	2.7140	0	34.4550	0	27.484	0	1310.492	0	11.8	4	3.6	4	-1E+10	1	-1E+10	1	-1E+10	1	-1E+10	1	-1E+10	1	-1E+10	1
4902549	50	C	12/26/2021	17:45	-132.071	47.253	0	1335.70	0	2.6940	0	34.4570	0	27.487	0	1320.346	0	12.3	4	3.8	4	-1E+10	1	-1E+10	1	-1E+10	1	-1E+10	1	-1E+10	1	-1E+10	1
4902549	50	C	12/26/2021	17:45	-132.071	47.253	0	1345.40	0	2.6820	0	34.4630	0	27.493	0	1329.904	0	12.9	4	4.0	4	-1E+10	1	-1E+10	1	-1E+10	1	-1E+10	1	-1E+10	1	-1E+10	1
4902549	50	C	12/26/2021	17:45	-132.071	47.253	0	1355.20	0	2.6730	0	34.4660	0	27.496	0	1339.560	0	13.3	4	4.1	4	-1E+10	1	-1E+10	1	-1E+10	1	-1E+10	1	-1E+10	1	-1E+10	1
4902549	50	C	12/26/2021	17:45	-132.071	47.253	0	1365.60	0	2.6590	0	34.4690	0	27.500	0	1349.807	0	13.8	4	4.2	4	-1E+10	1	-1E+10	1	-1E+10	1	-1E+10	1	-1E+10	1	-1E+10	1
4902549	50	C	12/26/2021	17:45	-132.071	47.253	0	1375.60	0	2.6370	0	34.4720	0	27.504	0	1359.659	0	14.2	4	4.3	4	-1E+10	1	-1E+10	1	-1E+10	1	-1E+10	1	-1E+10	1	-1E+10	1
4902549	50	C	12/26/2021	17:45	-132.071	47.253	0	1385.70	0	2.6160	0	34.4740	0	27.507	0	1369.609	0	14.6	4	4.5	4	-1E+10	1	-1E+10	1	-1E+10	1	-1E+10	1	-1E+10	1	-1E+10	1
4902549	50	C	12/26/2021	17:45	-132.071	47.253	0	1395.40	0	2.5920	0	34.4770	0	27.512	0	1379.165	0	15.1	4	4.6	4	-1E+10	1	-1E+10	1	-1E+10	1	-1E+10	1	-1E+10	1	-1E+10	1
4902549	50	C	12/26/2021	17:45	-132.071	47.253	0	1405.50	0	2.5720	0	34.4790	0	27.515	0	1389.114	0	15.4	4	4.7	4	-1E+10	1	-1E+10	1	-1E+10	1	-1E+10	1	-1E+10	1	-1E+10	1
4902549	50	C	12/26/2021	17:45	-132.071	47.253	0	1415.60	0	2.5480	0	34.4810	0	27.519	0	1399.063	0	15.8	4	4.8	4	-1E+10	1	-1E+10	1	-1E+10	1	-1E+10	1	-1E+10	1	-1E+10	1
4902549	50	C	12/26/2021	17:45	-132.071	47.253	0	1425.70	0	2.5300	0	34.4840	0	27.523	0	1409.011	0	16.3	4	5.0	4	-1E+10	1	-1E+10	1	-1E+10	1	-1E+10	1	-1E+10	1	-1E+10	1
4902549	50	C	12/26/2021	17:45	-132.071	47.253	0	1435.50	0	2.5340	0	34.4870	0	27.525	0	1418.663	0	16.9	4	5.1	4	-1E+10	1	-1E+10	1	-1E+10	1	-1E+10	1	-1E+10	1	-1E+10	1
4902549	50	C	12/26/2021	17:45	-132.071	47.253	0	1445.40	0	2.5170	0	34.4880	0	27.527	0	1428.414	0	17.3	4	5.3	4	-1E+10	1	-1E+10	1	-1E+10	1	-1E+10	1	-1E+10	1	-1E+10	1
4902549	50	C	12/26/2021	17:45	-132.071	47.253	0	1455.40	0	2.5070	0	34.4900	0	27.530	0	1438.262	0	17.7	4	5.4	4	-1E+10	1	-1E+10	1	-1E+10	1	-1E+10	1	-1E+10	1	-1E+10	1
4902549	50	C	12/26/2021	17:45	-132.071	47.253	0	1465.40	0	2.4870	0	34.4920	0	27.533	0	1448.110	0	18.3	4	5.6	4	-1E+10	1	-1E+10	1	-1E+10	1	-1E+10	1	-1E+10	1	-1E+10	1
4902549	50	C	12/26/2021	17:45	-132.071	47.253	0	1475.40	0	2.4680	0	34.4960	0	27.538	0	1457.958	0	19.0	4	5.8	4	-1E+10	1	-1E+10	1	-1E+10	1	-1E+10	1	-1E+10	1	-1E+10	1
4902549	50	C	12/26/2021	17:45	-132.071	47.253	0	1485.40	0	2.4580	0	34.4990	0	27.541	0	1467.805	0	19.5	4	6.0	4	-1E+10	1	-1E+10	1	-1E+10	1	-1E+10	1	-1E+10	1	-1E+10	1
4902549	50	C	12/26/2021	17:45	-132.071	47.253	0	1495.40	0	2.4460	0	34.5000	0	27.543	0	1477.651	0	20.2	4	6.1	4	-1E+10	1	-1E+10	1	-1E+10	1	-1E+10	1	-1E+10	1	-1E+10	1
4902549	50	C	12/26/2021	17:45	-132.071	47.253	0	1505.10	0	2.4320	0	34.5030	0	27.547	0	1487.202	0	21.3	4	6.5	4	-1E+10	1	-1E+10	1	-1E+10	1	-1E+10	1	-1E+10	1	-1E+10	1
4902549	50	C	12/26/2021	17:45	-132.071	47.253	0	1515.40	0	2.4150	0	34.5080	0	27.552	0	1497.343	0	22.4	4	6.8	4	-1E+10	1	-1E+10	1	-1E+10	1	-1E+10	1	-1E+10	1	-1E+10	1
4902549	50	C	12/26/2021	17:45	-132.071	47.253	0	1525.80	0	2.4050	0	34.5100	0	27.555	0	1507.582	0	23.2	4	7.0	4	-1E+10	1	-1E+10	1	-1E+10	1	-1E+10	1	-1E+10	1	-1E+10	1
4902549	50	C	12/26/2021	17:45	-132.071	47.253	0	1535.40	0	2.3930	0	34.5130	0	27.558	0	1517.033	0	23.9	4	7.3	4	-1E+10	1	-1E+10	1	-1E+10	1	-1E+10	1	-1E+10	1	-1E+10	1
4902549	50	C	12/26/2021	17:45	-132.071	47.253	0	1545.10	0	2.3720	0	34.5160	0	27.562	0	1526.582	0	24.6	4	7.5	4	-1E+10	1	-1E+10	1	-1E+10	1	-1E+10	1	-1E+10	1	-1E+10	1
4902549	50	C	12/26/2021	17:45	-132.071	47.253	0	1555.30	0	2.3510	0	34.5180	0	27.566	0	1536.623	0	25.1	4	7.6	4	-1E+10	1	-1E+10	1	-1E+10	1	-1E+10	1	-1E+10	1	-1E+10	1
4902549	50	C	12/26/2021	17:45	-132.071	47.253	0	1565.20	0	2.3360	0	34.5200	0	27.569	0	1546.368	0	25.9	4	7.9	4	-1E+10	1	-1E+10	1	-1E+10	1	-1E+10	1	-1E+10	1	-1E+10	1
4902549	50	C	12/26/2021	17:45	-132.071	47.253	0	1575.30	0	2.3280	0	34.5230	0	27.572	0	1556.309	0	26.7	4	8.1	4	-1E+10	1	-1E+10	1	-1E+10	1	-1E+10	1	-1E+10	1	-1E+10	1
4902549	50	C	12/26/2021	17:45	-132.071	47.253	0	1585.50	0	2.3150	0	34.5250	0	27.574	0	1566.349	0	27.3	4	8.3	4	-1E+10	1	-1E+10	1	-1E+10	1	-1E+10	1	-1E+10	1	-1E+10	1
4902549	50	C	12/26/2021	17:45	-132.071	47.253	0	1595.50	0	2.3000	0	34.5260	0	27.577	0	1576.191	0	27.8	4	8.4	4	-1E+10	1	-1E+10	1	-1E+10	1	-1E+10	1	-1E+10	1	-1E+10	1
4902549	50	C	12/26/2021	17:45	-132.071	47.253	0	1605.60	0	2.2810	0	34.5280	0	27.580	0	1586.131	0	28.2	4	8.6	4	-1E+10	1	-1E+10	1	-1E+10	1	-1E+10	1	-1E+10	1	-1E+10	1
4902549	50	C	12/26/2021	17:45	-132.071	47.253	0	1616.00	0	2.2630	0	34.5300	0	27.583	0	1596.365	0	28.6	4	8.7	4	-1E+10	1	-1E+10	1	-1E+10	1	-1E+10	1	-1E+10	1	-1E+10	1
4902549	50	C	12/26/2021	17:45	-132.071	47.253	0	1625.50	0	2.2520	0	34.5310	0	27.585	0	1605.714	0	29.0	4	8.8	4	-1E+10	1	-1E+10	1	-1E+10	1	-1E+10	1	-1E+10	1	-1E+10	1
4902549	50	C	12/26/2021	17:45	-132.071	47.253	0	1635.50	0	2.2390	0	34.5310	0	27.586	0	1615.554	0	29.6	4	9.0	4	-1E+10	1	-1E+10	1	-1E+10	1	-1E+10	1	-1E+10	1	-1E+10	1
4902549	50	C	12/26/2021	17:45	-132.071	47.253	0	1645.40	0	2.2280	0	34.5350	0	27.590	0	1625.295	0	30.4	4	9.2	4	-1E+10	1	-1E+10	1	-1E+10	1	-1E+10	1	-1E+10	1	-1E+10	1
4902549	50	C	12/26/2021	17:45	-132.071	47.253	0	1655.40	0	2.2100	0	34.5360	0	27.592	0	1635.135	0	30.7	4	9.3	4	-1E+10	1	-1E+10	1	-1E+10	1	-1E+10	1	-1E+10	1	-1E+10	1
4902549	50	C	12/26/2021	17:45	-132.071	47.253	0	1665.70	0	2.1890	0	34.5370	0	27.595	0	1645.268	0	31.5	4	9.5	4	-1E+10	1	-1E+10	1	-1E+10	1	-1E+10	1	-1E+10	1	-1E+10	1
4902549	50	C	12/26/2021	17:45	-132.071	47.253	0	1675.70	0	2.1880	0	34.5400	0	27.597	0	1655.107	0	32.4	4	9.8	4	-1E+10	1	-1E+10	1	-1E+10	1	-1E+10	1	-1E+10	1	-1E+10	1
4902549	50	C	12/26/2021	17:45	-132.071	47.253	0	1685.60	0	2.1780	0	34.5420	0	27.600	0	1664.846	0	33.0	4	10.0	4	-1E+10	1	-1E+10	1	-1E+10	1	-1E+10	1	-1E+10	1	-1E+10	1
4902549	50	C	12/26/2021	17:45	-132.071	47.253	0	1695.20	0	2.1720	0	34.5430	0	27.601	0	1674.290	0	33.5	4	10.1	4	-1E+10	1	-1E+10	1	-1E+10	1	-1E+10	1	-1E+10	1	-1E+10	1
4902549	50	C	12/26/2021	17:45	-132.071	47.253	0	1705.10	0	2.1640	0	34.5450	0	27.603	0	1684.029	0	33.9	4	10.3	4	-1E+10	1	-1E+10	1	-1E+10	1	-1E+10	1	-1E+10	1	-1E+10	1
4902549	50	C	12/26/2021	17:45	-132.071	47.253	0	1715.10	0	2.1390	0	34.5460	0	27.606	0	1693.865	0	34.6	4	10.5	4	-1E+10	1	-1E+10	1	-1E+10	1	-1E+10	1	-1E+10	1	-1E+10	1
4902549	50	C	12/26/2021	17:45	-132.071	47.253	0	1725.30	0	2.1320	0	34.5480	0	27.608	0	1703.898	0	35.5	4	10.7	4	-1E+10	1	-1E+10	1	-1E+10	1	-1E+10	1	-1E+10	1	-1E+10	1
4902549	50	C	12/26/2021	17:45	-132.071	47.253	0	1735.60	0	2.1340	0	34.5500	0	27.610	0	1714.029	0	36.5	4	11.0	4	-1E+10	1	-1E+10	1	-1E+10	1	-1E+10	1	-1E+10	1	-1E+10	1
4902549	50	C	12/26/2021	17:45	-132.071	47.253	0	1745.60	0	2.1280	0	34.5530	0	27.613	0	1723.864	0	37.0	4	11.2	4	-1E+10	1	-1E+10	1	-1E+10	1	-1E+10	1	-1E+10	1	-1E+10	1
4902549	50	C	12/26/2021	17:45	-132.071	47.253	0	1755.40	0	2.1250	0	34.5540	0	27.614	0	1733.502	0	37.3	4	11.3	4	-1E+10	1	-1E+10	1	-1E+10	1	-1E+10	1	-1E+10	1	-1E+10	1
4902549	50	C	12/26/2021	17:45	-132.071	47.253	0	1765.50	0	2.1210	0	34.5540	0	27.614	0	1743.434	0	37.6	4	11.4	4	-1E+10	1	-1E+10	1	-1E+10	1	-1E+10	1	-1E+10	1	-1E+10	1
4902549	50	C	12/26/2021	17:45	-132.071	47.253	0	1775.40	0	2.1160	0	34.5550	0	27.615	0	1753.170	0	38.1	4	11.5	4	-1E+10	1	-1E+10	1	-1E+10	1	-1E+10	1	-1E+10	1	-1E+10	1
4902549	50	C	12/26/2021	17:45	-132.071	47.253	0	1785.60	0	2.1050	0	34.5560	0	27.617	0	1763.200	0	38.7	4	11.7	4	-1E+10	1	-1E+10	1	-1E+10	1	-1E+10	1	-1E+10	1	-1E+10	1
4902549	50	C	12/26/2021	17:45	-132.071	47.253	0	1795.60	0	2.0960	0	34.5580	0	27.620	0	1773.033	0	39.1	4	11.8	4	-1E+10	1	-1E+10	1	-1E+10	1	-1E+10	1	-1E+10	1	-1E+10	1
4902549	50	C	12/26/2021	17:45	-132.071	47.253	0	1805.30	0	2.0900	0	34.5590	0	27.621	0	1782.570	0	39.6	4	12.0	4	-1E+10	1	-1E+10	1	-1E+10	1	-1E+10	1	-1E+10	1	-1E+10	1
4902549	50	C	12/26/2021	17:45	-132.071	47.253	0	1815.20	0	2.0830	0	34.5600	0	27.622	0	1792.304	0	40.0	4	12.1	4	-1E+10	1	-1E+10	1	-1E+10	1	-1E+10	1	-1E+10	1	-1E+10	1
4902549	50	C	12/26/2021	17:45	-132.071	47.253	0	1825.30	0	2.0790	0	34.5610	0	27.623	0	1802.233	0	40.5	4	12.2	4	-1E+10	1	-1E+10	1	-1E+10	1	-1E+10	1	-1E+10	1	-1E+10	1
4902549	50	C	12/26/2021	17:45	-132.071	47.253	0	1835.50	0	2.0720	0	34.5630	0	27.626	0	1812.261	0	41.1	4	12.4	4	-1E+10	1	-1E+10	1	-1E+10	1	-1E+10	1	-1E+10	1	-1E+10	1
4902549	50	C	12/26/2021	17:45	-132.071	47.253	0	1845.60	0	2.0670	0	34.5640	0	27.627	0	1822.190	0	41.5	4	12.5	4	-1E+10	1	-1E+10	1	-1E+10	1	-1E+10	1	-1E+10	1	-1E+10	1
4902549	50	C	12/26/2021	17:45	-132.071	47.253	0	1855.40	0	2.0630	0	34.5640	0	27.627	0	1831.823	0	41.9	4	12.7	4	-1E+10	1	-1E+10	1	-1E+10	1	-1E+10	1	-1E+10	1	-1E+10	1
4902549	50	C	12/26/2021	17:45	-132.071	47.253	0	1865.50	0	2.0560	0	34.5660	0	27.629	0	1841.751	0	42.5	4	12.8	4	-1E+10	1	-1E+10	1	-1E+10	1	-1E+10	1	-1E+10	1	-1E+10	1
4902549	50	C	12/26/2021	17:45	-132.071	47.253	0	1875.30	0	2.0470	0	34.5670	0	27.631	0	1851.384	0	43.1	4	13.0	4	-1E+10	1	-1E+10	1	-1E+10	1	-1E+10	1	-1E+10	1	-1E+10	1
4902549	50	C	12/26/2021	17:45	-132.071	47.253	0	1885.20	0	2.0410	0	34.5680	0	27.632	0	1861.114	0	43.6	4	13.2	4	-1E+10	1	-1E+10	1	-1E+10	1	-1E+10	1	-1E+10	1	-1E+10	1
4902549	50	C	12/26/2021	17:45	-132.071	47.253	0	1895.60	0	2.0350	0	34.5690	0	27.634	0	1871.336	0	44.1	4	13.3	4	-1E+10	1	-1E+10	1	-1E+10	1	-1E+10	1	-1E+10	1	-1E+10	1
4902549	50	C	12/26/2021	17:45	-132.071	47.253	0	1905.40	0	2.0270	0	34.5710	0	27.636	0	1880.967	0	44.7	4	13.5	4	-1E+10	1	-1E+10	1	-1E+10	1	-1E+10	1	-1E+10	1	-1E+10	1
4902549	50	C	12/26/2021	17:45	-132.071	47.253	0	1915.30	0	2.0180	0	34.5720	0	27.638	0	1890.696	0	45.3	4	13.7	4	-1E+10	1	-1E+10	1	-1E+10	1	-1E+10	1	-1E+10	1	-1E+10	1
4902549	50	C	12/26/2021	17:45	-132.071	47.253	0	1925.60	0	2.0080	0	34.5740	0	27.640	0	1900.818	0	45.8	4	13.8	4	-1E+10	1	-1E+10	1	-1E+10	1	-1E+10	1	-1E+10	1	-1E+10	1
4902549	50	C	12/26/2021	17:45	-132.071	47.253	0	1935.70	0	2.0010	0	34.5750	0	27.641	0	1910.743	0	46.2	4	13.9	4	-1E+10	1	-1E+10	1	-1E+10	1	-1E+10	1	-1E+10	1	-1E+10	1
4902549	50	C	12/26/2021	17:45	-132.071	47.253	0	1945.80	0	1.9960	0	34.5760	0	27.643	0	1920.667	0	46.6	4	14.0	4	-1E+10	1	-1E+10	1	-1E+10	1	-1E+10	1	-1E+10	1	-1E+10	1
4902549	50	C	12/26/2021	17:45	-132.071	47.253	0	1955.70	0	1.9900	0	34.5770	0	27.644	0	1930.394	0	47.0	4	14.2	4	-1E+10	1	-1E+10	1	-1E+10	1	-1E+10	1	-1E+10	1	-1E+10	1
4902549	50	C	12/26/2021	17:45	-132.071	47.253	0	1966.00	0	1.9820	0	34.5780	0	27.645	0	1940.514	0	47.1	4	14.2	4	-1E+10	1	-1E+10	1	-1E+10	1	-1E+10	1	-1E+10	1	-1E+10	1
4902549	50	C	12/26/2021	17:45	-132.071	47.253	0	1972.10	0	1.9790	0	34.5790	0	27.646	0	1946.507	0	46.6	4	14.0	4	-1E+10	1	-1E+10	1	-1E+10	1	-1E+10	1	-1E+10	1	-1E+10	1
4902549	50	C	12/26/2021	17:45	-132.071	47.253	0																										
4902549	51	C	01/05/2022	23:02	-132.188	47.350	0	0.30	0	8.1500	0	32.3340	0	25.159	0	0.298	0	279.2	4	95.8	4	-1E+10	1	-1E+10	1	-1E+10	1	-1E+10	1	-1E+10	1	-1E+10	1
4902549	51	C	01/05/2022	23:02	-132.188	47.350	0	0.40	0	8.1460	0	32.3350	0	25.161	0	0.397	0	-1e10	1	-1e10	1	-1E+10	1	-1E+10	1	-1E+10	1	-1E+10	1	-1E+10	1	-1E+10	1
4902549	51	C	01/05/2022	23:02	-132.188	47.350	0	0.70	0	8.1460	0	32.3345	0	25.160	0	0.694	0	272.2	4	93.4	4	-1E+10	1	-1E+10	1	-1E+10	1	-1E+10	1	-1E+10	1	-1E+10	1
4902549	51	C	01/05/2022	23:02	-132.188	47.350	0	1.00	0	8.1460	0	32.3340	0	25.160	0	0.992	0	-1e10	1	-1e10	1	-1E+10	1	-1E+10	1	-1E+10	1	-1E+10	1	-1E+10	1	-1E+10	1
4902549	51	C	01/05/2022	23:02	-132.188	47.350	0	1.20	0	8.1462	0	32.3340	0	25.160	0	1.190	0	272.2	4	93.3	4	-1E+10	1	-1E+10	1	-1E+10	1	-1E+10	1	-1E+10	1	-1E+10	1
4902549	51	C	01/05/2022	23:02	-132.188	47.350	0	1.90	0	8.1470	0	32.3340	0	25.160	0	1.884	0	272.2	4	93.4	4	-1E+10	1	-1E+10	1	-1E+10	1	-1E+10	1	-1E+10	1	-1E+10	1
4902549	51	C	01/05/2022	23:02	-132.188	47.350	0	2.90	0	8.1480	0	32.3330	0	25.159	0	2.876	0	272.2	4	93.4	4	-1E+10	1	-1E+10	1	-1E+10	1	-1E+10	1	-1E+10	1	-1E+10	1
4902549	51	C	01/05/2022	23:02	-132.188	47.350	0	3.90	0	8.1480	0	32.3330	0	25.159	0	3.867	0	272.1	4	93.3	4	-1E+10	1	-1E+10	1	-1E+10	1	-1E+10	1	-1E+10	1	-1E+10	1
4902549	51	C	01/05/2022	23:02	-132.188	47.350	0	5.10	0	8.1470	0	32.3350	0	25.160	0	5.057	0	272.1	4	93.3	4	-1E+10	1	-1E+10	1	-1E+10	1	-1E+10	1	-1E+10	1	-1E+10	1
4902549	51	C	01/05/2022	23:02	-132.188	47.350	0	6.00	0	8.1450	0	32.3350	0	25.161	0	5.950	0	272.1	4	93.3	4	-1E+10	1	-1E+10	1	-1E+10	1	-1E+10	1	-1E+10	1	-1E+10	1
4902549	51	C	01/05/2022	23:02	-132.188	47.350	0	7.10	0	8.1470	0	32.3350	0	25.161	0	7.041	0	272.0	4	93.3	4	-1E+10	1	-1E+10	1	-1E+10	1	-1E+10	1	-1E+10	1	-1E+10	1
4902549	51	C	01/05/2022	23:02	-132.188	47.350	0	7.90	0	8.1490	0	32.3340	0	25.159	0	7.834	0	272.0	4	93.3	4	-1E+10	1	-1E+10	1	-1E+10	1	-1E+10	1	-1E+10	1	-1E+10	1
4902549	51	C	01/05/2022	23:02	-132.188	47.350	0	8.80	0	8.1480	0	32.3340	0	25.160	0	8.726	0	272.0	4	93.3	4	-1E+10	1	-1E+10	1	-1E+10	1	-1E+10	1	-1E+10	1	-1E+10	1
4902549	51	C	01/05/2022	23:02	-132.188	47.350	0	9.80	0	8.1470	0	32.3350	0	25.161	0	9.718	0	271.9	4	93.3	4	-1E+10	1	-1E+10	1	-1E+10	1	-1E+10	1	-1E+10	1	-1E+10	1
4902549	51	C	01/05/2022	23:02	-132.188	47.350	0	10.80	0	8.1460	0	32.3350	0	25.161	0	10.710	0	271.9	4	93.2	4	-1E+10	1	-1E+10	1	-1E+10	1	-1E+10	1	-1E+10	1	-1E+10	1
4902549	51	C	01/05/2022	23:02	-132.188	47.350	0	11.90	0	8.1460	0	32.3350	0	25.161	0	11.801	0	271.8	4	93.2	4	-1E+10	1	-1E+10	1	-1E+10	1	-1E+10	1	-1E+10	1	-1E+10	1
4902549	51	C	01/05/2022	23:02	-132.188	47.350	0	12.90	0	8.1460	0	32.3350	0	25.161	0	12.792	0	271.6	4	93.1	4	-1E+10	1	-1E+10	1	-1E+10	1	-1E+10	1	-1E+10	1	-1E+10	1
4902549	51	C	01/05/2022	23:02	-132.188	47.350	0	14.00	0	8.1280	0	32.3400	0	25.167	0	13.883	0	271.7	4	93.1	4	-1E+10	1	-1E+10	1	-1E+10	1	-1E+10	1	-1E+10	1	-1E+10	1
4902549	51	C	01/05/2022	23:02	-132.188	47.350	0	15.00	0	8.1290	0	32.3380	0	25.166	0	14.874	0	271.6	4	93.1	4	-1E+10	1	-1E+10	1	-1E+10	1	-1E+10	1	-1E+10	1	-1E+10	1
4902549	51	C	01/05/2022	23:02	-132.188	47.350	0	16.10	0	8.1300	0	32.3390	0	25.166	0	15.965	0	271.5	4	93.1	4	-1E+10	1	-1E+10	1	-1E+10	1	-1E+10	1	-1E+10	1	-1E+10	1
4902549	51	C	01/05/2022	23:02	-132.188	47.350	0	16.90	0	8.1290	0	32.3390	0	25.166	0	16.758	0	271.5	4	93.1	4	-1E+10	1	-1E+10	1	-1E+10	1	-1E+10	1	-1E+10	1	-1E+10	1
4902549	51	C	01/05/2022	23:02	-132.188	47.350	0	18.20	0	8.1300	0	32.3390	0	25.166	0	18.048	0	271.4	4	93.1	4	-1E+10	1	-1E+10	1	-1E+10	1	-1E+10	1	-1E+10	1	-1E+10	1
4902549	51	C	01/05/2022	23:02	-132.188	47.350	0	19.00	0	8.1260	0	32.3400	0	25.168	0	18.841	0	271.5	4	93.1	4	-1E+10	1	-1E+10	1	-1E+10	1	-1E+10	1	-1E+10	1	-1E+10	1
4902549	51	C	01/05/2022	23:02	-132.188	47.350	0	20.20	0	8.1240	0	32.3420	0	25.170	0	20.031	0	271.4	4	93.1	4	-1E+10	1	-1E+10	1	-1E+10	1	-1E+10	1	-1E+10	1	-1E+10	1
4902549	51	C	01/05/2022	23:02	-132.188	47.350	0	21.00	0	8.1240	0	32.3420	0	25.170	0	20.824	0	271.5	4	93.1	4	-1E+10	1	-1E+10	1	-1E+10	1	-1E+10	1	-1E+10	1	-1E+10	1
4902549	51	C	01/05/2022	23:02	-132.188	47.350	0	21.90	0	8.1240	0	32.3420	0	25.170	0	21.716	0	271.4	4	93.0	4	-1E+10	1	-1E+10	1	-1E+10	1	-1E+10	1	-1E+10	1	-1E+10	1
4902549	51	C	01/05/2022	23:02	-132.188	47.350	0	23.20	0	8.1240	0	32.3420	0	25.170	0	23.005	0	271.5	4	93.1	4	-1E+10	1	-1E+10	1	-1E+10	1	-1E+10	1	-1E+10	1	-1E+10	1
4902549	51	C	01/05/2022	23:02	-132.188	47.350	0	24.10	0	8.1240	0	32.3420	0	25.170	0	23.898	0	271.4	4	93.0	4	-1E+10	1	-1E+10	1	-1E+10	1	-1E+10	1	-1E+10	1	-1E+10	1
4902549	51	C	01/05/2022	23:02	-132.188	47.350	0	25.00	0	8.1240	0	32.3430	0	25.170	0	24.790	0	271.4	4	93.0	4	-1E+10	1	-1E+10	1	-1E+10	1	-1E+10	1	-1E+10	1	-1E+10	1
4902549	51	C	01/05/2022	23:02	-132.188	47.350	0	25.90	0	8.1240	0	32.3420	0	25.170	0	25.683	0	271.3	4	93.0	4	-1E+10	1	-1E+10	1	-1E+10	1	-1E+10	1	-1E+10	1	-1E+10	1
4902549	51	C	01/05/2022	23:02	-132.188	47.350	0	27.00	0	8.1240	0	32.3420	0	25.170	0	26.773	0	271.4	4	93.0	4	-1E+10	1	-1E+10	1	-1E+10	1	-1E+10	1	-1E+10	1	-1E+10	1
4902549	51	C	01/05/2022	23:02	-132.188	47.350	0	27.90	0	8.1240	0	32.3420	0	25.170	0	27.666	0	271.3	4	93.0	4	-1E+10	1	-1E+10	1	-1E+10	1	-1E+10	1	-1E+10	1	-1E+10	1
4902549	51	C	01/05/2022	23:02	-132.188	47.350	0	28.90	0	8.1240	0	32.3420	0	25.170	0	28.657	0	271.3	4	93.0	4	-1E+10	1	-1E+10	1	-1E+10	1	-1E+10	1	-1E+10	1	-1E+10	1
4902549	51	C	01/05/2022	23:02	-132.188	47.350	0	29.80	0	8.1250	0	32.3420	0	25.170	0	29.550	0	271.2	4	93.0	4	-1E+10	1	-1E+10	1	-1E+10	1	-1E+10	1	-1E+10	1	-1E+10	1
4902549	51	C	01/05/2022	23:02	-132.188	47.350	0	31.00	0	8.1250	0	32.3420	0	25.170	0	30.739	0	271.2	4	93.0	4	-1E+10	1	-1E+10	1	-1E+10	1	-1E+10	1	-1E+10	1	-1E+10	1
4902549	51	C	01/05/2022	23:02	-132.188	47.350	0	31.70	0	8.1250	0	32.3430	0	25.170	0	31.433	0	271.1	4	92.9	4	-1E+10	1	-1E+10	1	-1E+10	1	-1E+10	1	-1E+10	1	-1E+10	1
4902549	51	C	01/05/2022	23:02	-132.188	47.350	0	32.70	0	8.1250	0	32.3420	0	25.170	0	32.425	0	271.2	4	93.0	4	-1E+10	1	-1E+10	1	-1E+10	1	-1E+10	1	-1E+10	1	-1E+10	1
4902549	51	C	01/05/2022	23:02	-132.188	47.350	0	33.90	0	8.1250	0	32.3430	0	25.170	0	33.615	0	271.2	4	93.0	4	-1E+10	1	-1E+10	1	-1E+10	1	-1E+10	1	-1E+10	1	-1E+10	1
4902549	51	C	01/05/2022	23:02	-132.188	47.350	0	35.10	0	8.1250	0	32.3430	0	25.170	0	34.805	0	271.2	4	93.0	4	-1E+10	1	-1E+10	1	-1E+10	1	-1E+10	1	-1E+10	1	-1E+10	1
4902549	51	C	01/05/2022	23:02	-132.188	47.350	0	36.00	0	8.1250	0	32.3430	0	25.170	0	35.697	0	271.0	4	92.9	4	-1E+10	1	-1E+10	1	-1E+10	1	-1E+10	1	-1E+10	1	-1E+10	1
4902549	51	C	01/05/2022	23:02	-132.188	47.350	0	37.20	0	8.1250	0	32.3430	0	25.170	0	36.887	0	271.1	4	92.9	4	-1E+10	1	-1E+10	1	-1E+10	1	-1E+10	1	-1E+10	1	-1E+10	1
4902549	51	C	01/05/2022	23:02	-132.188	47.350	0	37.80	0	8.1250	0	32.3440	0	25.171	0	37.482	0	271.0	4	92.9	4	-1E+10	1	-1E+10	1	-1E+10	1	-1E+10	1	-1E+10	1	-1E+10	1
4902549	51	C	01/05/2022	23:02	-132.188	47.350	0	39.00	0	8.1260	0	32.3430	0	25.170	0	38.671	0	270.9	4	92.9	4	-1E+10	1	-1E+10	1	-1E+10	1	-1E+10	1	-1E+10	1	-1E+10	1
4902549	51	C	01/05/2022	23:02	-132.188	47.350	0	40.10	0	8.1260	0	32.3430	0	25.170	0	39.762	0	270.9	4	92.9	4	-1E+10	1	-1E+10	1	-1E+10	1	-1E+10	1	-1E+10	1	-1E+10	1
4902549	51	C	01/05/2022	23:02	-132.188	47.350	0	41.00	0	8.1260	0	32.3430	0	25.170	0	40.654	0	270.8	4	92.8	4	-1E+10	1	-1E+10	1	-1E+10	1	-1E+10	1	-1E+10	1	-1E+10	1
4902549	51	C	01/05/2022	23:02	-132.188	47.350	0	41.90	0	8.1260	0	32.3430	0	25.170	0	41.547	0	270.8	4	92.9	4	-1E+10	1	-1E+10	1	-1E+10	1	-1E+10	1	-1E+10	1	-1E+10	1
4902549	51	C	01/05/2022	23:02	-132.188	47.350	0	42.80	0	8.1260	0	32.3450	0	25.172	0	42.439	0	270.8	4	92.9	4	-1E+10	1	-1E+10	1	-1E+10	1	-1E+10	1	-1E+10	1	-1E+10	1
4902549	51	C	01/05/2022	23:02	-132.188	47.350	0	43.90	0	8.1260	0	32.3440	0	25.171	0	43.530	0	270.7	4	92.8	4	-1E+10	1	-1E+10	1	-1E+10	1	-1E+10	1	-1E+10	1	-1E+10	1
4902549	51	C	01/05/2022	23:02	-132.188	47.350	0	45.10	0	8.1270	0	32.3450	0	25.172	0	44.719	0	270.7	4	92.8	4	-1E+10	1	-1E+10	1	-1E+10	1	-1E+10	1	-1E+10	1	-1E+10	1
4902549	51	C	01/05/2022	23:02	-132.188	47.350	0	46.00	0	8.1270	0	32.3450	0	25.172	0	45.612	0	270.8	4	92.8	4	-1E+10	1	-1E+10	1	-1E+10	1	-1E+10	1	-1E+10	1	-1E+10	1
4902549	51	C	01/05/2022	23:02	-132.188	47.350	0	47.00	0	8.1270	0	32.3450	0	25.172	0	46.603	0	270.7	4	92.8	4	-1E+10	1	-1E+10	1	-1E+10	1	-1E+10	1	-1E+10	1	-1E+10	1
4902549	51	C	01/05/2022	23:02	-132.188	47.350	0	48.00	0	8.1270	0	32.3450	0	25.172	0	47.595	0	270.7	4	92.8	4	-1E+10	1	-1E+10	1	-1E+10	1	-1E+10	1	-1E+10	1	-1E+10	1
4902549	51	C	01/05/2022	23:02	-132.188	47.350	0	49.20	0	8.1280	0	32.3460	0	25.172	0	48.784	0	270.7	4	92.8	4	-1E+10	1	-1E+10	1	-1E+10	1	-1E+10	1	-1E+10	1	-1E+10	1
4902549	51	C	01/05/2022	23:02	-132.188	47.350	0	49.90	0	8.1280	0	32.3450	0	25.172	0	49.478	0	270.5	4	92.8	4	-1E+10	1	-1E+10	1	-1E+10	1	-1E+10	1	-1E+10	1	-1E+10	1
4902549	51	C	01/05/2022	23:02	-132.188	47.350	0	50.90	0	8.1280	0	32.3460	0	25.173	0	50.470	0	270.5	4	92.8	4	-1E+10	1	-1E+10	1	-1E+10	1	-1E+10	1	-1E+10	1	-1E+10	1
4902549	51	C	01/05/2022	23:02	-132.188	47.350	0	51.90	0	8.1290	0	32.3460	0	25.172	0	51.461	0	270.5	4	92.8	4	-1E+10	1	-1E+10	1	-1E+10	1	-1E+10	1	-1E+10	1	-1E+10	1
4902549	51	C	01/05/2022	23:02	-132.188	47.350	0	52.90	0	8.1290	0	32.3460	0	25.172	0	52.452	0	270.5	4	92.7	4	-1E+10	1	-1E+10	1	-1E+10	1	-1E+10	1	-1E+10	1	-1E+10	1
4902549	51	C	01/05/2022	23:02	-132.188	47.350	0	53.80	0	8.1290	0	32.3460	0	25.172	0	53.345	0	270.5	4	92.7	4	-1E+10	1	-1E+10	1	-1E+10	1	-1E+10	1	-1E+10	1	-1E+10	1
4902549	51	C	01/05/2022	23:02	-132.188	47.350	0	55.10	0	8.1290	0	32.3460	0	25.172	0	54.634	0	270.3	4	92.7	4	-1E+10	1	-1E+10	1	-1E+10	1	-1E+10	1	-1E+10	1	-1E+10	1
4902549	51	C	01/05/2022	23:02	-132.188	47.350	0	56.00	0	8.1310	0	32.3460	0	25.172	0	55.526	0	270.3	4	92.7	4	-1E+10	1	-1E+10	1	-1E+10	1	-1E+10	1	-1E+10	1	-1E+10	1
4902549	51	C	01/05/2022	23:02	-132.188	47.350	0	56.90	0	8.1300	0	32.3470	0	25.173	0	56.418	0	270.2	4	92.7	4	-1E+10	1	-1E+10	1	-1E+10	1	-1E+10	1	-1E+10	1	-1E+10	1
4902549	51	C	01/05/2022	23:02	-132.188	47.350	0	57.80	0	8.1310	0	32.3460	0	25.172	0	57.310	0	270.2	4	92.6	4	-1E+10	1	-1E+10	1	-1E+10	1	-1E+10	1	-1E+10	1	-1E+10	1
4902549	51	C	01/05/2022	23:02	-132.188	47.350	0	58.80	0	8.1310	0	32.3470	0	25.173	0	58.302	0	270.2	4	92.6	4	-1E+10	1	-1E+10	1	-1E+10	1	-1E+10	1	-1E+10	1	-1E+10	1
4902549	51	C	01/05/2022	23:02	-132.188	47.350	0	59.80	0	8.1320	0	32.3470	0	25.173	0	59.293	0	270.1	4	92.6	4	-1E+10	1	-1E+10	1	-1E+10	1	-1E+10	1	-1E+10	1	-1E+10	1
4902549	51	C	01/05/2022	23:02	-132.188	47.350	0	60.70	0	8.1320	0	32.3470	0	25.173	0	60.185	0	270.0	4	92.6	4	-1E+10	1	-1E+10	1	-1E+10	1	-1E+10	1	-1E+10	1	-1E+10	1
4902549	51	C	01/05/2022	23:02	-132.188	47.350	0	62.00	0	8.1350	0	32.3470	0	25.172	0	61.474	0	269.9	4	92.6	4	-1E+10	1	-1E+10	1	-1E+10	1	-1E+10	1	-1E+10	1	-1E+10	1
4902549	51	C	01/05/2022	23:02	-132.188	47.350	0	62.80	0	8.1400	0	32.3490	0	25.173	0	62.267	0	269.9	4	92.6	4	-1E+10	1	-1E+10	1	-1E+10	1	-1E+10	1	-1E+10	1	-1E+10	1
4902549	51	C	01/05/2022	23:02	-132.188	47.350	0	63.80	0	8.1400	0	32.3490	0	25.173	0	63.259	0	269.9	4	92.5	4	-1E+10	1	-1E+10	1	-1E+10	1	-1E+10	1	-1E+10	1	-1E+10	1
4902549	51	C	01/05/2022	23:02	-132.188	47.350	0	64.90	0	8.1390	0	32.3500	0	25.174	0	64.349	0	269.8	4	92.5	4	-1E+10	1	-1E+10	1	-1E+10	1	-1E+10	1	-1E+10	1	-1E+10	1
4902549	51	C	01/05/2022	23:02	-132.188	47.350	0	66.00	0	8.1400	0	32.3490	0	25.173	0	65.440	0	269.7	4	92.5	4	-1E+10	1	-1E+10	1	-1E+10	1	-1E+10	1	-1E+10	1	-1E+10	1
4902549	51	C	01/05/2022	23:02	-132.188	47.350	0	67.10	0	8.1380	0	32.3490	0	25.174	0	66.530	0	269.6	4	92.5	4	-1E+10	1	-1E+10	1	-1E+10	1	-1E+10	1	-1E+10	1	-1E+10	1
4902549	51	C	01/05/2022	23:02	-132.188	47.350	0	68.10	0	8.1430	0	32.3500	0	25.174	0	67.521	0	269.5	4	92.4	4	-1E+10	1	-1E+10	1	-1E+10	1	-1E+10	1	-1E+10	1	-1E+10	1
4902549	51	C	01/05/2022	23:02	-132.188	47.350	0	68.90	0	8.1430	0	32.3510	0	25.175	0	68.314	0	269.5	4	92.4	4	-1E+10	1	-1E+10	1	-1E+10	1	-1E+10	1	-1E+10	1	-1E+10	1
4902549	51	C	01/05/2022	23:02	-132.188	47.350	0	69.70	0	8.1440	0	32.3510	0	25.174	0	69.108	0	269.4	4	92.4	4	-1E+10	1	-1E+10	1	-1E+10	1	-1E+10	1	-1E+10	1	-1E+10	1
4902549	51	C	01/05/2022	23:02	-132.188	47.350	0	70.80	0	8.1450	0	32.3510	0	25.174	0	70.198	0	269.3	4	92.4	4	-1E+10	1	-1E+10	1	-1E+10	1	-1E+10	1	-1E+10	1	-1E+10	1
4902549	51	C	01/05/2022	23:02	-132.188	47.350	0	71.80	0	8.1450	0	32.3510	0	25.174	0	71.189	0	269.3	4	92.4	4	-1E+10	1	-1E+10	1	-1E+10	1	-1E+10	1	-1E+10	1	-1E+10	1
4902549	51	C	01/05/2022	23:02	-132.188	47.350	0	72.90	0	8.1460	0	32.3510	0	25.174	0	72.280	0	269.1	4	92.3	4	-1E+10	1	-1E+10	1	-1E+10	1	-1E+10	1	-1E+10	1	-1E+10	1
4902549	51	C	01/05/2022	23:02	-132.188	47.350	0	74.00	0	8.1460	0	32.3520	0	25.175	0	73.370	0	269.0	4	92.3	4	-1E+10	1	-1E+10	1	-1E+10	1	-1E+10	1	-1E+10	1	-1E+10	1
4902549	51	C	01/05/2022	23:02	-132.188	47.350	0	75.10	0	8.1470	0	32.3520	0	25.175	0	74.461	0	268.9	4	92.2	4	-1E+10	1	-1E+10	1	-1E+10	1	-1E+10	1	-1E+10	1	-1E+10	1
4902549	51	C	01/05/2022	23:02	-132.188	47.350	0	76.00	0	8.1480	0	32.3520	0	25.175	0	75.353	0	268.7	4	92.2	4	-1E+10	1	-1E+10	1	-1E+10	1	-1E+10	1	-1E+10	1	-1E+10	1
4902549	51	C	01/05/2022	23:02	-132.188	47.350	0	76.80	0	8.1480	0	32.3530	0	25.175	0	76.146	0	268.6	4	92.1	4	-1E+10	1	-1E+10	1	-1E+10	1	-1E+10	1	-1E+10	1	-1E+10	1
4902549	51	C	01/05/2022	23:02	-132.188	47.350	0	78.00	0	8.1490	0	32.3530	0	25.175	0	77.335	0	268.4	4	92.1	4	-1E+10	1	-1E+10	1	-1E+10	1	-1E+10	1	-1E+10	1	-1E+10	1
4902549	51	C	01/05/2022	23:02	-132.188	47.350	0	78.90	0	8.1490	0	32.3530	0	25.175	0	78.228	0	268.3	4	92.0	4	-1E+10	1	-1E+10	1	-1E+10	1	-1E+10	1	-1E+10	1	-1E+10	1
4902549	51	C	01/05/2022	23:02	-132.188	47.350	0	79.80	0	8.1490	0	32.3530	0	25.175	0	79.120	0	268.1	4	92.0	4	-1E+10	1	-1E+10	1	-1E+10	1	-1E+10	1	-1E+10	1	-1E+10	1
4902549	51	C	01/05/2022	23:02	-132.188	47.350	0	81.00	0	8.1460	0	32.3540	0	25.177	0	80.309	0	267.9	4	91.9	4	-1E+10	1	-1E+10	1	-1E+10	1	-1E+10	1	-1E+10	1	-1E+10	1
4902549	51	C	01/05/2022	23:02	-132.188	47.350	0	81.90	0	8.1470	0	32.3540	0	25.176	0	81.201	0	267.7	4	91.8	4	-1E+10	1	-1E+10	1	-1E+10	1	-1E+10	1	-1E+10	1	-1E+10	1
4902549	51	C	01/05/2022	23:02	-132.188	47.350	0	82.80	0	8.1460	0	32.3540	0	25.177	0	82.094	0	274.3	4	94.1	4	-1E+10	1	-1E+10	1	-1E+10	1	-1E+10	1	-1E+10	1	-1E+10	1
4902549	51	C	01/05/2022	23:02	-132.188	47.350	0	84.10	0	8.1460	0	32.3540	0	25.177	0	83.382	0	274.0	4	94.0	4	-1E+10	1	-1E+10	1	-1E+10	1	-1E+10	1	-1E+10	1	-1E+10	1
4902549	51	C	01/05/2022	23:02	-132.188	47.350	0	85.00	0	8.1460	0	32.3540	0	25.177	0	84.274	0	273.7	4	93.9	4	-1E+10	1	-1E+10	1	-1E+10	1	-1E+10	1	-1E+10	1	-1E+10	1
4902549	51	C	01/05/2022	23:02	-132.188	47.350	0	86.00	0	8.1450	0	32.3550	0	25.178	0	85.266	0	273.5	4	93.8	4	-1E+10	1	-1E+10	1	-1E+10	1	-1E+10	1	-1E+10	1	-1E+10	1
4902549	51	C	01/05/2022	23:02	-132.188	47.350	0	87.00	0	8.1460	0	32.3540	0	25.177	0	86.257	0	273.2	4	93.7	4	-1E+10	1	-1E+10	1	-1E+10	1	-1E+10	1	-1E+10	1	-1E+10	1
4902549	51	C	01/05/2022	23:02	-132.188	47.350	0	87.90	0	8.1450	0	32.3550	0	25.178	0	87.149	0	272.9	4	93.6	4	-1E+10	1	-1E+10	1	-1E+10	1	-1E+10	1	-1E+10	1	-1E+10	1
4902549	51	C	01/05/2022	23:02	-132.188	47.350	0	89.10	0	8.1430	0	32.3560	0	25.179	0	88.339	0	272.4	4	93.4	4	-1E+10	1	-1E+10	1	-1E+10	1	-1E+10	1	-1E+10	1	-1E+10	1
4902549	51	C	01/05/2022	23:02	-132.188	47.350	0	90.00	0	8.1400	0	32.3570	0	25.180	0	89.231	0	272.1	4	93.3	4	-1E+10	1	-1E+10	1	-1E+10	1	-1E+10	1	-1E+10	1	-1E+10	1
4902549	51	C	01/05/2022	23:02	-132.188	47.350	0	90.90	0	8.1370	0	32.3570	0	25.180	0	90.123	0	271.5	4	93.1	4	-1E+10	1	-1E+10	1	-1E+10	1	-1E+10	1	-1E+10	1	-1E+10	1
4902549	51	C	01/05/2022	23:02	-132.188	47.350	0	92.10	0	8.1360	0	32.3570	0	25.181	0	91.312	0	270.8	4	92.9	4	-1E+10	1	-1E+10	1	-1E+10	1	-1E+10	1	-1E+10	1	-1E+10	1
4902549	51	C	01/05/2022	23:02	-132.188	47.350	0	93.00	0	8.1320	0	32.3580	0	25.182	0	92.204	0	270.3	4	92.7	4	-1E+10	1	-1E+10	1	-1E+10	1	-1E+10	1	-1E+10	1	-1E+10	1
4902549	51	C	01/05/2022	23:02	-132.188	47.350	0	93.80	0	8.1310	0	32.3590	0	25.183	0	92.997	0	269.4	4	92.4	4	-1E+10	1	-1E+10	1	-1E+10	1	-1E+10	1	-1E+10	1	-1E+10	1
4902549	51	C	01/05/2022	23:02	-132.188	47.350	0	94.80	0	8.1290	0	32.3600	0	25.184	0	93.989	0	268.3	4	92.0	4	-1E+10	1	-1E+10	1	-1E+10	1	-1E+10	1	-1E+10	1	-1E+10	1
4902549	51	C	01/05/2022	23:02	-132.188	47.350	0	95.90	0	8.1230	0	32.3600	0	25.185	0	95.079	0	266.7	4	91.4	4	-1E+10	1	-1E+10	1	-1E+10	1	-1E+10	1	-1E+10	1	-1E+10	1
4902549	51	C	01/05/2022	23:02	-132.188	47.350	0	97.20	0	8.1110	0	32.3630	0	25.189	0	96.367	0	264.3	4	90.6	4	-1E+10	1	-1E+10	1	-1E+10	1	-1E+10	1	-1E+10	1	-1E+10	1
4902549	51	C	01/05/2022	23:02	-132.188	47.350	0	98.00	0	8.0420	0	32.3670	0	25.202	0	97.160	0	256.3	4	87.7	4	-1E+10	1	-1E+10	1	-1E+10	1	-1E+10	1	-1E+10	1	-1E+10	1
4902549	51	C	01/05/2022	23:02	-132.188	47.350	0	99.00	0	7.4580	0	32.4890	0	25.380	0	98.152	0	246.7	4	83.4	4	-1E+10	1	-1E+10	1	-1E+10	1	-1E+10	1	-1E+10	1	-1E+10	1
4902549	51	C	01/05/2022	23:02	-132.188	47.350	0	100.00	0	7.1530	0	32.5630	0	25.480	0	99.143	0	243.3	4	81.7	4	-1E+10	1	-1E+10	1	-1E+10	1	-1E+10	1	-1E+10	1	-1E+10	1
4902549	51	C	01/05/2022	23:02	-132.188	47.350	0	101.20	0	6.9820	0	32.6460	0	25.569	0	100.332	0	239.3	4	80.1	4	-1E+10	1	-1E+10	1	-1E+10	1	-1E+10	1	-1E+10	1	-1E+10	1
4902549	51	C	01/05/2022	23:02	-132.188	47.350	0	101.80	0	6.9410	0	32.6750	0	25.597	0	100.927	0	237.2	4	79.4	4	-1E+10	1	-1E+10	1	-1E+10	1	-1E+10	1	-1E+10	1	-1E+10	1
4902549	51	C	01/05/2022	23:02	-132.188	47.350	0	102.90	0	7.0540	0	32.7570	0	25.646	0	102.017	0	234.9	4	78.9	4	-1E+10	1	-1E+10	1	-1E+10	1	-1E+10	1	-1E+10	1	-1E+10	1
4902549	51	C	01/05/2022	23:02	-132.188	47.350	0	104.10	0	7.0730	0	32.7860	0	25.667	0	103.207	0	233.1	4	78.3	4	-1E+10	1	-1E+10	1	-1E+10	1	-1E+10	1	-1E+10	1	-1E+10	1
4902549	51	C	01/05/2022	23:02	-132.188	47.350	0	104.90	0	7.0780	0	32.7890	0	25.668	0	104.000	0	231.6	4	77.8	4	-1E+10	1	-1E+10	1	-1E+10	1	-1E+10	1	-1E+10	1	-1E+10	1
4902549	51	C	01/05/2022	23:02	-132.188	47.350	0	106.10	0	7.0890	0	32.7930	0	25.670	0	105.189	0	228.7	4	76.8	4	-1E+10	1	-1E+10	1	-1E+10	1	-1E+10	1	-1E+10	1	-1E+10	1
4902549	51	C	01/05/2022	23:02	-132.188	47.350	0	107.10	0	7.1000	0	32.8060	0	25.679	0	106.180	0	225.9	4	75.9	4	-1E+10	1	-1E+10	1	-1E+10	1	-1E+10	1	-1E+10	1	-1E+10	1
4902549	51	C	01/05/2022	23:02	-132.188	47.350	0	108.00	0	7.1130	0	32.8230	0	25.690	0	107.072	0	223.7	4	75.2	4	-1E+10	1	-1E+10	1	-1E+10	1	-1E+10	1	-1E+10	1	-1E+10	1
4902549	51	C	01/05/2022	23:02	-132.188	47.350	0	108.90	0	7.1310	0	32.8470	0	25.707	0	107.964	0	221.3	4	74.4	4	-1E+10	1	-1E+10	1	-1E+10	1	-1E+10	1	-1E+10	1	-1E+10	1
4902549	51	C	01/05/2022	23:02	-132.188	47.350	0	110.00	0	7.1460	0	32.8930	0	25.741	0	109.054	0	218.3	4	73.5	4	-1E+10	1	-1E+10	1	-1E+10	1	-1E+10	1	-1E+10	1	-1E+10	1
4902549	51	C	01/05/2022	23:02	-132.188	47.350	0	111.10	0	7.1750	0	32.9360	0	25.771	0	110.145	0	213.8	4	72.1	4	-1E+10	1	-1E+10	1	-1E+10	1	-1E+10	1	-1E+10	1	-1E+10	1
4902549	51	C	01/05/2022	23:02	-132.188	47.350	0	111.90	0	7.2200	0	32.9860	0	25.804	0	110.938	0	211.4	4	71.4	4	-1E+10	1	-1E+10	1	-1E+10	1	-1E+10	1	-1E+10	1	-1E+10	1
4902549	51	C	01/05/2022	23:02	-132.188	47.350	0	113.30	0	7.2500	0	33.0510	0	25.851	0	112.325	0	208.4	4	70.4	4	-1E+10	1	-1E+10	1	-1E+10	1	-1E+10	1	-1E+10	1	-1E+10	1
4902549	51	C	01/05/2022	23:02	-132.188	47.350	0	114.00	0	7.2610	0	33.0740	0	25.868	0	113.019	0	207.0	4	70.0	4	-1E+10	1	-1E+10	1	-1E+10	1	-1E+10	1	-1E+10	1	-1E+10	1
4902549	51	C	01/05/2022	23:02	-132.188	47.350	0	115.20	0	7.2930	0	33.1080	0	25.890	0	114.208	0	204.9	4	69.3	4	-1E+10	1	-1E+10	1	-1E+10	1	-1E+10	1	-1E+10	1	-1E+10	1
4902549	51	C	01/05/2022	23:02	-132.188	47.350	0	116.00	0	7.3140	0	33.1180	0	25.895	0	115.001	0	203.8	4	69.0	4	-1E+10	1	-1E+10	1	-1E+10	1	-1E+10	1	-1E+10	1	-1E+10	1
4902549	51	C	01/05/2022	23:02	-132.188	47.350	0	117.00	0	7.3370	0	33.1530	0	25.920	0	115.992	0	202.6	4	68.6	4	-1E+10	1	-1E+10	1	-1E+10	1	-1E+10	1	-1E+10	1	-1E+10	1
4902549	51	C	01/05/2022	23:02	-132.188	47.350	0	118.00	0	7.3510	0	33.1820	0	25.940	0	116.983	0	201.7	4	68.4	4	-1E+10	1	-1E+10	1	-1E+10	1	-1E+10	1	-1E+10	1	-1E+10	1
4902549	51	C	01/05/2022	23:02	-132.188	47.350	0	119.00	0	7.3710	0	33.2160	0	25.964	0	117.974	0	201.3	4	68.3	4	-1E+10	1	-1E+10	1	-1E+10	1	-1E+10	1	-1E+10	1	-1E+10	1
4902549	51	C	01/05/2022	23:02	-132.188	47.350	0	119.90	0	7.3440	0	33.2480	0	25.993	0	118.866	0	201.4	4	68.3	4	-1E+10	1	-1E+10	1	-1E+10	1	-1E+10	1	-1E+10	1	-1E+10	1
4902549	51	C	01/05/2022	23:02	-132.188	47.350	0	120.80	0	7.2980	0	33.2700	0	26.017	0	119.758	0	201.7	4	68.3	4	-1E+10	1	-1E+10	1	-1E+10	1	-1E+10	1	-1E+10	1	-1E+10	1
4902549	51	C	01/05/2022	23:02	-132.188	47.350	0	122.00	0	7.2130	0	33.3090	0	26.060	0	120.948	0	201.4	4	68.1	4	-1E+10	1	-1E+10	1	-1E+10	1	-1E+10	1	-1E+10	1	-1E+10	1
4902549	51	C	01/05/2022	23:02	-132.188	47.350	0	123.10	0	7.2240	0	33.3220	0	26.068	0	122.038	0	201.0	4	68.0	4	-1E+10	1	-1E+10	1	-1E+10	1	-1E+10	1	-1E+10	1	-1E+10	1
4902549	51	C	01/05/2022	23:02	-132.188	47.350	0	123.80	0	7.2280	0	33.3260	0	26.071	0	122.732	0	200.6	4	67.9	4	-1E+10	1	-1E+10	1	-1E+10	1	-1E+10	1	-1E+10	1	-1E+10	1
4902549	51	C	01/05/2022	23:02	-132.188	47.350	0	124.80	0	7.2030	0	33.3580	0	26.099	0	123.723	0	200.3	4	67.7	4	-1E+10	1	-1E+10	1	-1E+10	1	-1E+10	1	-1E+10	1	-1E+10	1
4902549	51	C	01/05/2022	23:02	-132.188	47.350	0	125.90	0	7.1940	0	33.3740	0	26.113	0	124.813	0	199.7	4	67.5	4	-1E+10	1	-1E+10	1	-1E+10	1	-1E+10	1	-1E+10	1	-1E+10	1
4902549	51	C	01/05/2022	23:02	-132.188	47.350	0	127.00	0	7.1950	0	33.3800	0	26.118	0	125.903	0	199.0	4	67.3	4	-1E+10	1	-1E+10	1	-1E+10	1	-1E+10	1	-1E+10	1	-1E+10	1
4902549	51	C	01/05/2022	23:02	-132.188	47.350	0	128.10	0	7.1970	0	33.3890	0	26.125	0	126.993	0	198.4	4	67.1	4	-1E+10	1	-1E+10	1	-1E+10	1	-1E+10	1	-1E+10	1	-1E+10	1
4902549	51	C	01/05/2022	23:02	-132.188	47.350	0	128.90	0	7.1970	0	33.3940	0	26.129	0	127.786	0	198.0	4	67.0	4	-1E+10	1	-1E+10	1	-1E+10	1	-1E+10	1	-1E+10	1	-1E+10	1
4902549	51	C	01/05/2022	23:02	-132.188	47.350	0	129.90	0	7.1990	0	33.3990	0	26.132	0	128.777	0	197.3	4	66.8	4	-1E+10	1	-1E+10	1	-1E+10	1	-1E+10	1	-1E+10	1	-1E+10	1
4902549	51	C	01/05/2022	23:02	-132.188	47.350	0	131.10	0	7.1970	0	33.4020	0	26.135	0	129.966	0	196.6	4	66.5	4	-1E+10	1	-1E+10	1	-1E+10	1	-1E+10	1	-1E+10	1	-1E+10	1
4902549	51	C	01/05/2022	23:02	-132.188	47.350	0	131.80	0	7.1940	0	33.4070	0	26.139	0	130.660	0	196.0	4	66.3	4	-1E+10	1	-1E+10	1	-1E+10	1	-1E+10	1	-1E+10	1	-1E+10	1
4902549	51	C	01/05/2022	23:02	-132.188	47.350	0	132.80	0	7.1930	0	33.4330	0	26.160	0	131.651	0	195.0	4	66.0	4	-1E+10	1	-1E+10	1	-1E+10	1	-1E+10	1	-1E+10	1	-1E+10	1
4902549	51	C	01/05/2022	23:02	-132.188	47.350	0	134.00	0	7.1890	0	33.4810	0	26.198	0	132.840	0	194.3	4	65.8	4	-1E+10	1	-1E+10	1	-1E+10	1	-1E+10	1	-1E+10	1	-1E+10	1
4902549	51	C	01/05/2022	23:02	-132.188	47.350	0	134.80	0	7.1890	0	33.4850	0	26.202	0	133.633	0	193.9	4	65.6	4	-1E+10	1	-1E+10	1	-1E+10	1	-1E+10	1	-1E+10	1	-1E+10	1
4902549	51	C	01/05/2022	23:02	-132.188	47.350	0	135.90	0	7.1880	0	33.4900	0	26.206	0	134.723	0	193.1	4	65.3	4	-1E+10	1	-1E+10	1	-1E+10	1	-1E+10	1	-1E+10	1	-1E+10	1
4902549	51	C	01/05/2022	23:02	-132.188	47.350	0	137.10	0	7.1880	0	33.4970	0	26.211	0	135.913	0	192.2	4	65.1	4	-1E+10	1	-1E+10	1	-1E+10	1	-1E+10	1	-1E+10	1	-1E+10	1
4902549	51	C	01/05/2022	23:02	-132.188	47.350	0	137.80	0	7.1910	0	33.5050	0	26.217	0	136.606	0	191.5	4	64.8	4	-1E+10	1	-1E+10	1	-1E+10	1	-1E+10	1	-1E+10	1	-1E+10	1
4902549	51	C	01/05/2022	23:02	-132.188	47.350	0	138.60	0	7.1900	0	33.5160	0	26.226	0	137.399	0	190.9	4	64.6	4	-1E+10	1	-1E+10	1	-1E+10	1	-1E+10	1	-1E+10	1	-1E+10	1
4902549	51	C	01/05/2022	23:02	-132.188	47.350	0	139.90	0	7.1880	0	33.5590	0	26.260	0	138.687	0	190.1	4	64.4	4	-1E+10	1	-1E+10	1	-1E+10	1	-1E+10	1	-1E+10	1	-1E+10	1
4902549	51	C	01/05/2022	23:02	-132.188	47.350	0	141.10	0	7.1980	0	33.5780	0	26.274	0	139.877	0	189.5	4	64.2	4	-1E+10	1	-1E+10	1	-1E+10	1	-1E+10	1	-1E+10	1	-1E+10	1
4902549	51	C	01/05/2022	23:02	-132.188	47.350	0	142.00	0	7.1970	0	33.5870	0	26.281	0	140.768	0	189.1	4	64.1	4	-1E+10	1	-1E+10	1	-1E+10	1	-1E+10	1	-1E+10	1	-1E+10	1
4902549	51	C	01/05/2022	23:02	-132.188	47.350	0	142.80	0	7.1920	0	33.5950	0	26.288	0	141.561	0	188.7	4	63.9	4	-1E+10	1	-1E+10	1	-1E+10	1	-1E+10	1	-1E+10	1	-1E+10	1
4902549	51	C	01/05/2022	23:02	-132.188	47.350	0	143.70	0	7.1830	0	33.6090	0	26.300	0	142.453	0	188.3	4	63.8	4	-1E+10	1	-1E+10	1	-1E+10	1	-1E+10	1	-1E+10	1	-1E+10	1
4902549	51	C	01/05/2022	23:02	-132.188	47.350	0	144.90	0	7.1760	0	33.6200	0	26.310	0	143.642	0	187.9	4	63.6	4	-1E+10	1	-1E+10	1	-1E+10	1	-1E+10	1	-1E+10	1	-1E+10	1
4902549	51	C	01/05/2022	23:02	-132.188	47.350	0	146.20	0	7.1700	0	33.6300	0	26.318	0	144.930	0	187.4	4	63.5	4	-1E+10	1	-1E+10	1	-1E+10	1	-1E+10	1	-1E+10	1	-1E+10	1
4902549	51	C	01/05/2022	23:02	-132.188	47.350	0	147.00	0	7.1660	0	33.6330	0	26.321	0	145.723	0	187.0	4	63.3	4	-1E+10	1	-1E+10	1	-1E+10	1	-1E+10	1	-1E+10	1	-1E+10	1
4902549	51	C	01/05/2022	23:02	-132.188	47.350	0	147.80	0	7.1640	0	33.6340	0	26.322	0	146.516	0	186.8	4	63.2	4	-1E+10	1	-1E+10	1	-1E+10	1	-1E+10	1	-1E+10	1	-1E+10	1
4902549	51	C	01/05/2022	23:02	-132.188	47.350	0	149.00	0	7.1590	0	33.6370	0	26.325	0	147.705	0	186.1	4	63.0	4	-1E+10	1	-1E+10	1	-1E+10	1	-1E+10	1	-1E+10	1	-1E+10	1
4902549	51	C	01/05/2022	23:02	-132.188	47.350	0	150.20	0	7.1530	0	33.6450	0	26.333	0	148.894	0	185.5	4	62.8	4	-1E+10	1	-1E+10	1	-1E+10	1	-1E+10	1	-1E+10	1	-1E+10	1
4902549	51	C	01/05/2022	23:02	-132.188	47.350	0	151.00	0	7.1540	0	33.6510	0	26.337	0	149.687	0	185.0	4	62.7	4	-1E+10	1	-1E+10	1	-1E+10	1	-1E+10	1	-1E+10	1	-1E+10	1
4902549	51	C	01/05/2022	23:02	-132.188	47.350	0	151.80	0	7.1530	0	33.6520	0	26.338	0	150.480	0	184.4	4	62.4	4	-1E+10	1	-1E+10	1	-1E+10	1	-1E+10	1	-1E+10	1	-1E+10	1
4902549	51	C	01/05/2022	23:02	-132.188	47.350	0	153.00	0	7.1430	0	33.6680	0	26.352	0	151.669	0	183.7	4	62.2	4	-1E+10	1	-1E+10	1	-1E+10	1	-1E+10	1	-1E+10	1	-1E+10	1
4902549	51	C	01/05/2022	23:02	-132.188	47.350	0	154.20	0	7.0990	0	33.6760	0	26.364	0	152.858	0	183.2	4	62.0	4	-1E+10	1	-1E+10	1	-1E+10	1	-1E+10	1	-1E+10	1	-1E+10	1
4902549	51	C	01/05/2022	23:02	-132.188	47.350	0	155.00	0	7.0850	0	33.6790	0	26.369	0	153.651	0	182.7	4	61.8	4	-1E+10	1	-1E+10	1	-1E+10	1	-1E+10	1	-1E+10	1	-1E+10	1
4902549	51	C	01/05/2022	23:02	-132.188	47.350	0	155.80	0	7.0760	0	33.6830	0	26.373	0	154.444	0	182.3	4	61.6	4	-1E+10	1	-1E+10	1	-1E+10	1	-1E+10	1	-1E+10	1	-1E+10	1
4902549	51	C	01/05/2022	23:02	-132.188	47.350	0	157.00	0	7.0580	0	33.6930	0	26.384	0	155.633	0	181.6	4	61.4	4	-1E+10	1	-1E+10	1	-1E+10	1	-1E+10	1	-1E+10	1	-1E+10	1
4902549	51	C	01/05/2022	23:02	-132.188	47.350	0	158.20	0	7.0390	0	33.7060	0	26.396	0	156.822	0	181.0	4	61.1	4	-1E+10	1	-1E+10	1	-1E+10	1	-1E+10	1	-1E+10	1	-1E+10	1
4902549	51	C	01/05/2022	23:02	-132.188	47.350	0	159.00	0	7.0350	0	33.7060	0	26.397	0	157.614	0	180.6	4	61.0	4	-1E+10	1	-1E+10	1	-1E+10	1	-1E+10	1	-1E+10	1	-1E+10	1
4902549	51	C	01/05/2022	23:02	-132.188	47.350	0	159.80	0	7.0260	0	33.7080	0	26.400	0	158.407	0	180.0	4	60.8	4	-1E+10	1	-1E+10	1	-1E+10	1	-1E+10	1	-1E+10	1	-1E+10	1
4902549	51	C	01/05/2022	23:02	-132.188	47.350	0	161.00	0	6.9990	0	33.7160	0	26.410	0	159.596	0	179.3	4	60.5	4	-1E+10	1	-1E+10	1	-1E+10	1	-1E+10	1	-1E+10	1	-1E+10	1
4902549	51	C	01/05/2022	23:02	-132.188	47.350	0	162.20	0	6.9660	0	33.7260	0	26.422	0	160.785	0	178.7	4	60.3	4	-1E+10	1	-1E+10	1	-1E+10	1	-1E+10	1	-1E+10	1	-1E+10	1
4902549	51	C	01/05/2022	23:02	-132.188	47.350	0	163.00	0	6.9640	0	33.7270	0	26.423	0	161.578	0	178.3	4	60.1	4	-1E+10	1	-1E+10	1	-1E+10	1	-1E+10	1	-1E+10	1	-1E+10	1
4902549	51	C	01/05/2022	23:02	-132.188	47.350	0	163.80	0	6.9650	0	33.7300	0	26.425	0	162.371	0	177.7	4	60.0	4	-1E+10	1	-1E+10	1	-1E+10	1	-1E+10	1	-1E+10	1	-1E+10	1
4902549	51	C	01/05/2022	23:02	-132.188	47.350	0	164.60	0	6.9640	0	33.7280	0	26.424	0	163.163	0	177.2	4	59.8	4	-1E+10	1	-1E+10	1	-1E+10	1	-1E+10	1	-1E+10	1	-1E+10	1
4902549	51	C	01/05/2022	23:02	-132.188	47.350	0	165.90	0	6.9180	0	33.7370	0	26.437	0	164.452	0	176.6	4	59.5	4	-1E+10	1	-1E+10	1	-1E+10	1	-1E+10	1	-1E+10	1	-1E+10	1
4902549	51	C	01/05/2022	23:02	-132.188	47.350	0	167.10	0	6.9190	0	33.7480	0	26.446	0	165.641	0	175.8	4	59.3	4	-1E+10	1	-1E+10	1	-1E+10	1	-1E+10	1	-1E+10	1	-1E+10	1
4902549	51	C	01/05/2022	23:02	-132.188	47.350	0	168.00	0	6.9120	0	33.7500	0	26.448	0	166.532	0	175.3	4	59.1	4	-1E+10	1	-1E+10	1	-1E+10	1	-1E+10	1	-1E+10	1	-1E+10	1
4902549	51	C	01/05/2022	23:02	-132.188	47.350	0	168.80	0	6.8960	0	33.7510	0	26.451	0	167.325	0	174.8	4	58.9	4	-1E+10	1	-1E+10	1	-1E+10	1	-1E+10	1	-1E+10	1	-1E+10	1
4902549	51	C	01/05/2022	23:02	-132.188	47.350	0	169.70	0	6.8560	0	33.7540	0	26.459	0	168.217	0	174.6	4	58.8	4	-1E+10	1	-1E+10	1	-1E+10	1	-1E+10	1	-1E+10	1	-1E+10	1
4902549	51	C	01/05/2022	23:02	-132.188	47.350	0	170.90	0	6.8520	0	33.7530	0	26.459	0	169.406	0	173.7	4	58.5	4	-1E+10	1	-1E+10	1	-1E+10	1	-1E+10	1	-1E+10	1	-1E+10	1
4902549	51	C	01/05/2022	23:02	-132.188	47.350	0	172.30	0	6.8340	0	33.7560	0	26.464	0	170.793	0	172.8	4	58.1	4	-1E+10	1	-1E+10	1	-1E+10	1	-1E+10	1	-1E+10	1	-1E+10	1
4902549	51	C	01/05/2022	23:02	-132.188	47.350	0	173.20	0	6.7890	0	33.7580	0	26.471	0	171.685	0	172.4	4	57.9	4	-1E+10	1	-1E+10	1	-1E+10	1	-1E+10	1	-1E+10	1	-1E+10	1
4902549	51	C	01/05/2022	23:02	-132.188	47.350	0	174.10	0	6.7740	0	33.7590	0	26.474	0	172.577	0	172.0	4	57.8	4	-1E+10	1	-1E+10	1	-1E+10	1	-1E+10	1	-1E+10	1	-1E+10	1
4902549	51	C	01/05/2022	23:02	-132.188	47.350	0	175.00	0	6.7620	0	33.7590	0	26.476	0	173.468	0	171.5	4	57.6	4	-1E+10	1	-1E+10	1	-1E+10	1	-1E+10	1	-1E+10	1	-1E+10	1
4902549	51	C	01/05/2022	23:02	-132.188	47.350	0	175.90	0	6.7450	0	33.7600	0	26.479	0	174.360	0	171.0	4	57.4	4	-1E+10	1	-1E+10	1	-1E+10	1	-1E+10	1	-1E+10	1	-1E+10	1
4902549	51	C	01/05/2022	23:02	-132.188	47.350	0	176.80	0	6.7380	0	33.7610	0	26.480	0	175.252	0	170.3	4	57.2	4	-1E+10	1	-1E+10	1	-1E+10	1	-1E+10	1	-1E+10	1	-1E+10	1
4902549	51	C	01/05/2022	23:02	-132.188	47.350	0	177.70	0	6.7260	0	33.7600	0	26.481	0	176.144	0	169.7	4	57.0	4	-1E+10	1	-1E+10	1	-1E+10	1	-1E+10	1	-1E+10	1	-1E+10	1
4902549	51	C	01/05/2022	23:02	-132.188	47.350	0	178.60	0	6.6980	0	33.7620	0	26.487	0	177.035	0	169.2	4	56.7	4	-1E+10	1	-1E+10	1	-1E+10	1	-1E+10	1	-1E+10	1	-1E+10	1
4902549	51	C	01/05/2022	23:02	-132.188	47.350	0	179.90	0	6.6800	0	33.7650	0	26.491	0	178.323	0	168.3	4	56.4	4	-1E+10	1	-1E+10	1	-1E+10	1	-1E+10	1	-1E+10	1	-1E+10	1
4902549	51	C	01/05/2022	23:02	-132.188	47.350	0	181.30	0	6.6620	0	33.7660	0	26.495	0	179.710	0	167.4	4	56.1	4	-1E+10	1	-1E+10	1	-1E+10	1	-1E+10	1	-1E+10	1	-1E+10	1
4902549	51	C	01/05/2022	23:02	-132.188	47.350	0	182.30	0	6.6490	0	33.7680	0	26.498	0	180.701	0	166.7	4	55.8	4	-1E+10	1	-1E+10	1	-1E+10	1	-1E+10	1	-1E+10	1	-1E+10	1
4902549	51	C	01/05/2022	23:02	-132.188	47.350	0	183.20	0	6.6300	0	33.7680	0	26.500	0	181.593	0	166.1	4	55.6	4	-1E+10	1	-1E+10	1	-1E+10	1	-1E+10	1	-1E+10	1	-1E+10	1
4902549	51	C	01/05/2022	23:02	-132.188	47.350	0	184.10	0	6.6250	0	33.7680	0	26.501	0	182.485	0	165.5	4	55.4	4	-1E+10	1	-1E+10	1	-1E+10	1	-1E+10	1	-1E+10	1	-1E+10	1
4902549	51	C	01/05/2022	23:02	-132.188	47.350	0	185.00	0	6.6130	0	33.7670	0	26.502	0	183.376	0	164.8	4	55.2	4	-1E+10	1	-1E+10	1	-1E+10	1	-1E+10	1	-1E+10	1	-1E+10	1
4902549	51	C	01/05/2022	23:02	-132.188	47.350	0	186.00	0	6.5970	0	33.7680	0	26.505	0	184.367	0	164.0	4	54.9	4	-1E+10	1	-1E+10	1	-1E+10	1	-1E+10	1	-1E+10	1	-1E+10	1
4902549	51	C	01/05/2022	23:02	-132.188	47.350	0	186.90	0	6.5250	0	33.7710	0	26.517	0	185.259	0	163.7	4	54.7	4	-1E+10	1	-1E+10	1	-1E+10	1	-1E+10	1	-1E+10	1	-1E+10	1
4902549	51	C	01/05/2022	23:02	-132.188	47.350	0	187.80	0	6.5130	0	33.7670	0	26.515	0	186.151	0	163.1	4	54.5	4	-1E+10	1	-1E+10	1	-1E+10	1	-1E+10	1	-1E+10	1	-1E+10	1
4902549	51	C	01/05/2022	23:02	-132.188	47.350	0	188.80	0	6.5070	0	33.7670	0	26.516	0	187.141	0	162.5	4	54.3	4	-1E+10	1	-1E+10	1	-1E+10	1	-1E+10	1	-1E+10	1	-1E+10	1
4902549	51	C	01/05/2022	23:02	-132.188	47.350	0	189.70	0	6.5080	0	33.7680	0	26.516	0	188.033	0	161.8	4	54.0	4	-1E+10	1	-1E+10	1	-1E+10	1	-1E+10	1	-1E+10	1	-1E+10	1
4902549	51	C	01/05/2022	23:02	-132.188	47.350	0	190.60	0	6.4970	0	33.7710	0	26.520	0	188.925	0	161.0	4	53.8	4	-1E+10	1	-1E+10	1	-1E+10	1	-1E+10	1	-1E+10	1	-1E+10	1
4902549	51	C	01/05/2022	23:02	-132.188	47.350	0	191.60	0	6.4840	0	33.7710	0	26.522	0	189.915	0	160.4	4	53.5	4	-1E+10	1	-1E+10	1	-1E+10	1	-1E+10	1	-1E+10	1	-1E+10	1
4902549	51	C	01/05/2022	23:02	-132.188	47.350	0	192.90	0	6.4620	0	33.7730	0	26.526	0	191.203	0	159.3	4	53.1	4	-1E+10	1	-1E+10	1	-1E+10	1	-1E+10	1	-1E+10	1	-1E+10	1
4902549	51	C	01/05/2022	23:02	-132.188	47.350	0	194.40	0	6.4190	0	33.7750	0	26.534	0	192.689	0	158.4	4	52.8	4	-1E+10	1	-1E+10	1	-1E+10	1	-1E+10	1	-1E+10	1	-1E+10	1
4902549	51	C	01/05/2022	23:02	-132.188	47.350	0	195.30	0	6.4020	0	33.7750	0	26.536	0	193.581	0	157.7	4	52.5	4	-1E+10	1	-1E+10	1	-1E+10	1	-1E+10	1	-1E+10	1	-1E+10	1
4902549	51	C	01/05/2022	23:02	-132.188	47.350	0	196.30	0	6.3820	0	33.7770	0	26.540	0	194.572	0	157.2	4	52.4	4	-1E+10	1	-1E+10	1	-1E+10	1	-1E+10	1	-1E+10	1	-1E+10	1
4902549	51	C	01/05/2022	23:02	-132.188	47.350	0	197.30	0	6.3510	0	33.7770	0	26.544	0	195.563	0	156.8	4	52.2	4	-1E+10	1	-1E+10	1	-1E+10	1	-1E+10	1	-1E+10	1	-1E+10	1
4902549	51	C	01/05/2022	23:02	-132.188	47.350	0	198.20	0	6.3160	0	33.7790	0	26.550	0	196.454	0	156.6	4	52.1	4	-1E+10	1	-1E+10	1	-1E+10	1	-1E+10	1	-1E+10	1	-1E+10	1
4902549	51	C	01/05/2022	23:02	-132.188	47.350	0	199.10	0	6.3070	0	33.7790	0	26.551	0	197.346	0	156.2	4	51.9	4	-1E+10	1	-1E+10	1	-1E+10	1	-1E+10	1	-1E+10	1	-1E+10	1
4902549	51	C	01/05/2022	23:02	-132.188	47.350	0	200.10	0	6.2990	0	33.7790	0	26.552	0	198.337	0	155.8	4	51.8	4	-1E+10	1	-1E+10	1	-1E+10	1	-1E+10	1	-1E+10	1	-1E+10	1
4902549	51	C	01/05/2022	23:02	-132.188	47.350	0	201.10	0	6.2850	0	33.7820	0	26.556	0	199.327	0	155.4	4	51.6	4	-1E+10	1	-1E+10	1	-1E+10	1	-1E+10	1	-1E+10	1	-1E+10	1
4902549	51	C	01/05/2022	23:02	-132.188	47.350	0	202.00	0	6.2750	0	33.7780	0	26.555	0	200.219	0	155.1	4	51.5	4	-1E+10	1	-1E+10	1	-1E+10	1	-1E+10	1	-1E+10	1	-1E+10	1
4902549	51	C	01/05/2022	23:02	-132.188	47.350	0	203.00	0	6.2680	0	33.7790	0	26.556	0	201.210	0	154.7	4	51.4	4	-1E+10	1	-1E+10	1	-1E+10	1	-1E+10	1	-1E+10	1	-1E+10	1
4902549	51	C	01/05/2022	23:02	-132.188	47.350	0	204.00	0	6.2480	0	33.7790	0	26.559	0	202.200	0	154.3	4	51.2	4	-1E+10	1	-1E+10	1	-1E+10	1	-1E+10	1	-1E+10	1	-1E+10	1
4902549	51	C	01/05/2022	23:02	-132.188	47.350	0	205.00	0	6.2370	0	33.7780	0	26.559	0	203.191	0	153.9	4	51.1	4	-1E+10	1	-1E+10	1	-1E+10	1	-1E+10	1	-1E+10	1	-1E+10	1
4902549	51	C	01/05/2022	23:02	-132.188	47.350	0	206.00	0	6.2370	0	33.7800	0	26.561	0	204.182	0	153.4	4	50.9	4	-1E+10	1	-1E+10	1	-1E+10	1	-1E+10	1	-1E+10	1	-1E+10	1
4902549	51	C	01/05/2022	23:02	-132.188	47.350	0	206.90	0	6.2270	0	33.7800	0	26.562	0	205.073	0	153.0	4	50.8	4	-1E+10	1	-1E+10	1	-1E+10	1	-1E+10	1	-1E+10	1	-1E+10	1
4902549	51	C	01/05/2022	23:02	-132.188	47.350	0	207.90	0	6.2170	0	33.7810	0	26.564	0	206.064	0	152.6	4	50.6	4	-1E+10	1	-1E+10	1	-1E+10	1	-1E+10	1	-1E+10	1	-1E+10	1
4902549	51	C	01/05/2022	23:02	-132.188	47.350	0	208.90	0	6.2080	0	33.7810	0	26.566	0	207.055	0	152.1	4	50.5	4	-1E+10	1	-1E+10	1	-1E+10	1	-1E+10	1	-1E+10	1	-1E+10	1
4902549	51	C	01/05/2022	23:02	-132.188	47.350	0	209.90	0	6.2060	0	33.7810	0	26.566	0	208.045	0	151.7	4	50.3	4	-1E+10	1	-1E+10	1	-1E+10	1	-1E+10	1	-1E+10	1	-1E+10	1
4902549	51	C	01/05/2022	23:02	-132.188	47.350	0	210.90	0	6.2060	0	33.7800	0	26.565	0	209.036	0	151.1	4	50.1	4	-1E+10	1	-1E+10	1	-1E+10	1	-1E+10	1	-1E+10	1	-1E+10	1
4902549	51	C	01/05/2022	23:02	-132.188	47.350	0	211.80	0	6.2010	0	33.7800	0	26.566	0	209.928	0	150.5	4	49.9	4	-1E+10	1	-1E+10	1	-1E+10	1	-1E+10	1	-1E+10	1	-1E+10	1
4902549	51	C	01/05/2022	23:02	-132.188	47.350	0	212.80	0	6.1740	0	33.7790	0	26.568	0	210.918	0	149.8	4	49.7	4	-1E+10	1	-1E+10	1	-1E+10	1	-1E+10	1	-1E+10	1	-1E+10	1
4902549	51	C	01/05/2022	23:02	-132.188	47.350	0	213.80	0	6.1370	0	33.7750	0	26.570	0	211.909	0	149.2	4	49.4	4	-1E+10	1	-1E+10	1	-1E+10	1	-1E+10	1	-1E+10	1	-1E+10	1
4902549	51	C	01/05/2022	23:02	-132.188	47.350	0	214.80	0	6.1120	0	33.7760	0	26.574	0	212.899	0	148.6	4	49.2	4	-1E+10	1	-1E+10	1	-1E+10	1	-1E+10	1	-1E+10	1	-1E+10	1
4902549	51	C	01/05/2022	23:02	-132.188	47.350	0	215.80	0	6.1050	0	33.7750	0	26.574	0	213.890	0	147.9	4	48.9	4	-1E+10	1	-1E+10	1	-1E+10	1	-1E+10	1	-1E+10	1	-1E+10	1
4902549	51	C	01/05/2022	23:02	-132.188	47.350	0	216.70	0	6.0880	0	33.7770	0	26.578	0	214.782	0	147.1	4	48.7	4	-1E+10	1	-1E+10	1	-1E+10	1	-1E+10	1	-1E+10	1	-1E+10	1
4902549	51	C	01/05/2022	23:02	-132.188	47.350	0	217.70	0	6.0850	0	33.7770	0	26.578	0	215.772	0	146.3	4	48.4	4	-1E+10	1	-1E+10	1	-1E+10	1	-1E+10	1	-1E+10	1	-1E+10	1
4902549	51	C	01/05/2022	23:02	-132.188	47.350	0	218.70	0	6.0560	0	33.7810	0	26.585	0	216.763	0	145.4	4	48.1	4	-1E+10	1	-1E+10	1	-1E+10	1	-1E+10	1	-1E+10	1	-1E+10	1
4902549	51	C	01/05/2022	23:02	-132.188	47.350	0	219.70	0	6.0420	0	33.7810	0	26.587	0	217.754	0	144.8	4	47.8	4	-1E+10	1	-1E+10	1	-1E+10	1	-1E+10	1	-1E+10	1	-1E+10	1
4902549	51	C	01/05/2022	23:02	-132.188	47.350	0	220.60	0	6.0410	0	33.7820	0	26.588	0	218.645	0	143.9	4	47.6	4	-1E+10	1	-1E+10	1	-1E+10	1	-1E+10	1	-1E+10	1	-1E+10	1
4902549	51	C	01/05/2022	23:02	-132.188	47.350	0	221.60	0	6.0310	0	33.7810	0	26.588	0	219.636	0	143.1	4	47.3	4	-1E+10	1	-1E+10	1	-1E+10	1	-1E+10	1	-1E+10	1	-1E+10	1
4902549	51	C	01/05/2022	23:02	-132.188	47.350	0	222.60	0	6.0170	0	33.7850	0	26.593	0	220.626	0	142.3	4	47.0	4	-1E+10	1	-1E+10	1	-1E+10	1	-1E+10	1	-1E+10	1	-1E+10	1
4902549	51	C	01/05/2022	23:02	-132.188	47.350	0	223.60	0	6.0030	0	33.7830	0	26.593	0	221.617	0	141.5	4	46.7	4	-1E+10	1	-1E+10	1	-1E+10	1	-1E+10	1	-1E+10	1	-1E+10	1
4902549	51	C	01/05/2022	23:02	-132.188	47.350	0	224.60	0	5.9620	0	33.7860	0	26.601	0	222.608	0	140.8	4	46.4	4	-1E+10	1	-1E+10	1	-1E+10	1	-1E+10	1	-1E+10	1	-1E+10	1
4902549	51	C	01/05/2022	23:02	-132.188	47.350	0	225.60	0	5.9510	0	33.7850	0	26.601	0	223.598	0	140.2	4	46.2	4	-1E+10	1	-1E+10	1	-1E+10	1	-1E+10	1	-1E+10	1	-1E+10	1
4902549	51	C	01/05/2022	23:02	-132.188	47.350	0	226.60	0	5.9430	0	33.7850	0	26.602	0	224.589	0	139.4	4	45.9	4	-1E+10	1	-1E+10	1	-1E+10	1	-1E+10	1	-1E+10	1	-1E+10	1
4902549	51	C	01/05/2022	23:02	-132.188	47.350	0	227.60	0	5.9120	0	33.7880	0	26.608	0	225.579	0	138.6	4	45.7	4	-1E+10	1	-1E+10	1	-1E+10	1	-1E+10	1	-1E+10	1	-1E+10	1
4902549	51	C	01/05/2022	23:02	-132.188	47.350	0	228.60	0	5.8910	0	33.7860	0	26.609	0	226.570	0	138.0	4	45.4	4	-1E+10	1	-1E+10	1	-1E+10	1	-1E+10	1	-1E+10	1	-1E+10	1
4902549	51	C	01/05/2022	23:02	-132.188	47.350	0	229.50	0	5.8880	0	33.7870	0	26.611	0	227.461	0	137.3	4	45.2	4	-1E+10	1	-1E+10	1	-1E+10	1	-1E+10	1	-1E+10	1	-1E+10	1
4902549	51	C	01/05/2022	23:02	-132.188	47.350	0	230.50	0	5.8770	0	33.7930	0	26.617	0	228.452	0	136.6	4	45.0	4	-1E+10	1	-1E+10	1	-1E+10	1	-1E+10	1	-1E+10	1	-1E+10	1
4902549	51	C	01/05/2022	23:02	-132.188	47.350	0	231.50	0	5.8520	0	33.7930	0	26.620	0	229.442	0	136.0	4	44.7	4	-1E+10	1	-1E+10	1	-1E+10	1	-1E+10	1	-1E+10	1	-1E+10	1
4902549	51	C	01/05/2022	23:02	-132.188	47.350	0	232.90	0	5.8220	0	33.7910	0	26.622	0	230.829	0	135.1	4	44.4	4	-1E+10	1	-1E+10	1	-1E+10	1	-1E+10	1	-1E+10	1	-1E+10	1
4902549	51	C	01/05/2022	23:02	-132.188	47.350	0	234.90	0	5.7890	0	33.7930	0	26.628	0	232.810	0	133.9	4	44.0	4	-1E+10	1	-1E+10	1	-1E+10	1	-1E+10	1	-1E+10	1	-1E+10	1
4902549	51	C	01/05/2022	23:02	-132.188	47.350	0	236.40	0	5.7750	0	33.7960	0	26.632	0	234.296	0	133.1	4	43.7	4	-1E+10	1	-1E+10	1	-1E+10	1	-1E+10	1	-1E+10	1	-1E+10	1
4902549	51	C	01/05/2022	23:02	-132.188	47.350	0	237.50	0	5.7760	0	33.7960	0	26.632	0	235.386	0	132.5	4	43.5	4	-1E+10	1	-1E+10	1	-1E+10	1	-1E+10	1	-1E+10	1	-1E+10	1
4902549	51	C	01/05/2022	23:02	-132.188	47.350	0	238.90	0	5.7680	0	33.7970	0	26.633	0	236.772	0	131.5	4	43.2	4	-1E+10	1	-1E+10	1	-1E+10	1	-1E+10	1	-1E+10	1	-1E+10	1
4902549	51	C	01/05/2022	23:02	-132.188	47.350	0	240.40	0	5.7270	0	33.8020	0	26.642	0	238.258	0	130.6	4	42.8	4	-1E+10	1	-1E+10	1	-1E+10	1	-1E+10	1	-1E+10	1	-1E+10	1
4902549	51	C	01/05/2022	23:02	-132.188	47.350	0	241.40	0	5.7170	0	33.8020	0	26.644	0	239.249	0	130.3	4	42.7	4	-1E+10	1	-1E+10	1	-1E+10	1	-1E+10	1	-1E+10	1	-1E+10	1
4902549	51	C	01/05/2022	23:02	-132.188	47.350	0	242.40	0	5.7110	0	33.8020	0	26.644	0	240.239	0	129.8	4	42.6	4	-1E+10	1	-1E+10	1	-1E+10	1	-1E+10	1	-1E+10	1	-1E+10	1
4902549	51	C	01/05/2022	23:02	-132.188	47.350	0	243.40	0	5.7040	0	33.8020	0	26.645	0	241.230	0	129.3	4	42.4	4	-1E+10	1	-1E+10	1	-1E+10	1	-1E+10	1	-1E+10	1	-1E+10	1
4902549	51	C	01/05/2022	23:02	-132.188	47.350	0	244.40	0	5.7150	0	33.8040	0	26.645	0	242.220	0	128.7	4	42.2	4	-1E+10	1	-1E+10	1	-1E+10	1	-1E+10	1	-1E+10	1	-1E+10	1
4902549	51	C	01/05/2022	23:02	-132.188	47.350	0	245.40	0	5.7110	0	33.8060	0	26.648	0	243.211	0	128.1	4	42.0	4	-1E+10	1	-1E+10	1	-1E+10	1	-1E+10	1	-1E+10	1	-1E+10	1
4902549	51	C	01/05/2022	23:02	-132.188	47.350	0	246.40	0	5.6890	0	33.8070	0	26.651	0	244.201	0	127.6	4	41.8	4	-1E+10	1	-1E+10	1	-1E+10	1	-1E+10	1	-1E+10	1	-1E+10	1
4902549	51	C	01/05/2022	23:02	-132.188	47.350	0	247.40	0	5.6810	0	33.8110	0	26.655	0	245.192	0	127.2	4	41.7	4	-1E+10	1	-1E+10	1	-1E+10	1	-1E+10	1	-1E+10	1	-1E+10	1
4902549	51	C	01/05/2022	23:02	-132.188	47.350	0	248.40	0	5.6790	0	33.8110	0	26.655	0	246.182	0	126.7	4	41.5	4	-1E+10	1	-1E+10	1	-1E+10	1	-1E+10	1	-1E+10	1	-1E+10	1
4902549	51	C	01/05/2022	23:02	-132.188	47.350	0	249.40	0	5.6660	0	33.8130	0	26.659	0	247.173	0	126.3	4	41.4	4	-1E+10	1	-1E+10	1	-1E+10	1	-1E+10	1	-1E+10	1	-1E+10	1
4902549	51	C	01/05/2022	23:02	-132.188	47.350	0	250.40	0	5.6670	0	33.8120	0	26.658	0	248.163	0	125.8	4	41.2	4	-1E+10	1	-1E+10	1	-1E+10	1	-1E+10	1	-1E+10	1	-1E+10	1
4902549	51	C	01/05/2022	23:02	-132.188	47.350	0	251.40	0	5.6660	0	33.8130	0	26.659	0	249.154	0	125.3	4	41.0	4	-1E+10	1	-1E+10	1	-1E+10	1	-1E+10	1	-1E+10	1	-1E+10	1
4902549	51	C	01/05/2022	23:02	-132.188	47.350	0	252.40	0	5.6680	0	33.8120	0	26.658	0	250.144	0	124.7	4	40.8	4	-1E+10	1	-1E+10	1	-1E+10	1	-1E+10	1	-1E+10	1	-1E+10	1
4902549	51	C	01/05/2022	23:02	-132.188	47.350	0	253.30	0	5.6570	0	33.8140	0	26.660	0	251.035	0	124.0	4	40.6	4	-1E+10	1	-1E+10	1	-1E+10	1	-1E+10	1	-1E+10	1	-1E+10	1
4902549	51	C	01/05/2022	23:02	-132.188	47.350	0	254.30	0	5.6480	0	33.8150	0	26.662	0	252.026	0	123.3	4	40.4	4	-1E+10	1	-1E+10	1	-1E+10	1	-1E+10	1	-1E+10	1	-1E+10	1
4902549	51	C	01/05/2022	23:02	-132.188	47.350	0	255.10	0	5.6210	0	33.8160	0	26.666	0	252.818	0	122.8	4	40.2	4	-1E+10	1	-1E+10	1	-1E+10	1	-1E+10	1	-1E+10	1	-1E+10	1
4902549	51	C	01/05/2022	23:02	-132.188	47.350	0	255.80	0	5.5900	0	33.8170	0	26.671	0	253.512	0	122.4	4	40.0	4	-1E+10	1	-1E+10	1	-1E+10	1	-1E+10	1	-1E+10	1	-1E+10	1
4902549	51	C	01/05/2022	23:02	-132.188	47.350	0	256.90	0	5.5710	0	33.8150	0	26.672	0	254.601	0	121.9	4	39.8	4	-1E+10	1	-1E+10	1	-1E+10	1	-1E+10	1	-1E+10	1	-1E+10	1
4902549	51	C	01/05/2022	23:02	-132.188	47.350	0	258.10	0	5.5530	0	33.8150	0	26.674	0	255.790	0	121.3	4	39.6	4	-1E+10	1	-1E+10	1	-1E+10	1	-1E+10	1	-1E+10	1	-1E+10	1
4902549	51	C	01/05/2022	23:02	-132.188	47.350	0	258.80	0	5.5430	0	33.8130	0	26.673	0	256.483	0	120.9	4	39.5	4	-1E+10	1	-1E+10	1	-1E+10	1	-1E+10	1	-1E+10	1	-1E+10	1
4902549	51	C	01/05/2022	23:02	-132.188	47.350	0	259.90	0	5.5360	0	33.8130	0	26.674	0	257.572	0	120.1	4	39.2	4	-1E+10	1	-1E+10	1	-1E+10	1	-1E+10	1	-1E+10	1	-1E+10	1
4902549	51	C	01/05/2022	23:02	-132.188	47.350	0	261.10	0	5.5070	0	33.8120	0	26.677	0	258.761	0	119.4	4	39.0	4	-1E+10	1	-1E+10	1	-1E+10	1	-1E+10	1	-1E+10	1	-1E+10	1
4902549	51	C	01/05/2022	23:02	-132.188	47.350	0	261.90	0	5.4910	0	33.8120	0	26.679	0	259.553	0	118.9	4	38.8	4	-1E+10	1	-1E+10	1	-1E+10	1	-1E+10	1	-1E+10	1	-1E+10	1
4902549	51	C	01/05/2022	23:02	-132.188	47.350	0	263.00	0	5.4740	0	33.8140	0	26.682	0	260.643	0	118.3	4	38.6	4	-1E+10	1	-1E+10	1	-1E+10	1	-1E+10	1	-1E+10	1	-1E+10	1
4902549	51	C	01/05/2022	23:02	-132.188	47.350	0	264.20	0	5.4570	0	33.8150	0	26.685	0	261.831	0	117.6	4	38.3	4	-1E+10	1	-1E+10	1	-1E+10	1	-1E+10	1	-1E+10	1	-1E+10	1
4902549	51	C	01/05/2022	23:02	-132.188	47.350	0	264.90	0	5.4540	0	33.8140	0	26.685	0	262.524	0	117.1	4	38.2	4	-1E+10	1	-1E+10	1	-1E+10	1	-1E+10	1	-1E+10	1	-1E+10	1
4902549	51	C	01/05/2022	23:02	-132.188	47.350	0	265.70	0	5.4430	0	33.8160	0	26.688	0	263.317	0	116.6	4	38.0	4	-1E+10	1	-1E+10	1	-1E+10	1	-1E+10	1	-1E+10	1	-1E+10	1
4902549	51	C	01/05/2022	23:02	-132.188	47.350	0	266.90	0	5.4380	0	33.8200	0	26.692	0	264.505	0	116.0	4	37.8	4	-1E+10	1	-1E+10	1	-1E+10	1	-1E+10	1	-1E+10	1	-1E+10	1
4902549	51	C	01/05/2022	23:02	-132.188	47.350	0	268.10	0	5.4360	0	33.8220	0	26.693	0	265.694	0	115.2	4	37.5	4	-1E+10	1	-1E+10	1	-1E+10	1	-1E+10	1	-1E+10	1	-1E+10	1
4902549	51	C	01/05/2022	23:02	-132.188	47.350	0	268.90	0	5.4240	0	33.8230	0	26.696	0	266.486	0	114.9	4	37.4	4	-1E+10	1	-1E+10	1	-1E+10	1	-1E+10	1	-1E+10	1	-1E+10	1
4902549	51	C	01/05/2022	23:02	-132.188	47.350	0	269.70	0	5.4200	0	33.8230	0	26.696	0	267.278	0	114.5	4	37.3	4	-1E+10	1	-1E+10	1	-1E+10	1	-1E+10	1	-1E+10	1	-1E+10	1
4902549	51	C	01/05/2022	23:02	-132.188	47.350	0	270.90	0	5.3830	0	33.8230	0	26.700	0	268.467	0	113.9	4	37.1	4	-1E+10	1	-1E+10	1	-1E+10	1	-1E+10	1	-1E+10	1	-1E+10	1
4902549	51	C	01/05/2022	23:02	-132.188	47.350	0	272.10	0	5.3730	0	33.8230	0	26.702	0	269.655	0	113.3	4	36.9	4	-1E+10	1	-1E+10	1	-1E+10	1	-1E+10	1	-1E+10	1	-1E+10	1
4902549	51	C	01/05/2022	23:02	-132.188	47.350	0	273.00	0	5.3720	0	33.8240	0	26.703	0	270.546	0	112.9	4	36.7	4	-1E+10	1	-1E+10	1	-1E+10	1	-1E+10	1	-1E+10	1	-1E+10	1
4902549	51	C	01/05/2022	23:02	-132.188	47.350	0	273.80	0	5.3620	0	33.8270	0	26.706	0	271.339	0	112.4	4	36.6	4	-1E+10	1	-1E+10	1	-1E+10	1	-1E+10	1	-1E+10	1	-1E+10	1
4902549	51	C	01/05/2022	23:02	-132.188	47.350	0	274.70	0	5.3540	0	33.8220	0	26.703	0	272.230	0	112.0	4	36.4	4	-1E+10	1	-1E+10	1	-1E+10	1	-1E+10	1	-1E+10	1	-1E+10	1
4902549	51	C	01/05/2022	23:02	-132.188	47.350	0	275.90	0	5.3270	0	33.8240	0	26.708	0	273.419	0	111.4	4	36.2	4	-1E+10	1	-1E+10	1	-1E+10	1	-1E+10	1	-1E+10	1	-1E+10	1
4902549	51	C	01/05/2022	23:02	-132.188	47.350	0	277.20	0	5.3210	0	33.8240	0	26.709	0	274.706	0	110.7	4	36.0	4	-1E+10	1	-1E+10	1	-1E+10	1	-1E+10	1	-1E+10	1	-1E+10	1
4902549	51	C	01/05/2022	23:02	-132.188	47.350	0	278.00	0	5.3210	0	33.8270	0	26.711	0	275.498	0	110.2	4	35.8	4	-1E+10	1	-1E+10	1	-1E+10	1	-1E+10	1	-1E+10	1	-1E+10	1
4902549	51	C	01/05/2022	23:02	-132.188	47.350	0	278.90	0	5.3190	0	33.8260	0	26.710	0	276.390	0	109.7	4	35.7	4	-1E+10	1	-1E+10	1	-1E+10	1	-1E+10	1	-1E+10	1	-1E+10	1
4902549	51	C	01/05/2022	23:02	-132.188	47.350	0	279.70	0	5.3000	0	33.8300	0	26.716	0	277.182	0	109.3	4	35.5	4	-1E+10	1	-1E+10	1	-1E+10	1	-1E+10	1	-1E+10	1	-1E+10	1
4902549	51	C	01/05/2022	23:02	-132.188	47.350	0	281.00	0	5.2750	0	33.8280	0	26.717	0	278.469	0	108.7	4	35.3	4	-1E+10	1	-1E+10	1	-1E+10	1	-1E+10	1	-1E+10	1	-1E+10	1
4902549	51	C	01/05/2022	23:02	-132.188	47.350	0	282.30	0	5.2640	0	33.8290	0	26.719	0	279.757	0	108.1	4	35.1	4	-1E+10	1	-1E+10	1	-1E+10	1	-1E+10	1	-1E+10	1	-1E+10	1
4902549	51	C	01/05/2022	23:02	-132.188	47.350	0	283.10	0	5.2540	0	33.8300	0	26.721	0	280.549	0	107.6	4	34.9	4	-1E+10	1	-1E+10	1	-1E+10	1	-1E+10	1	-1E+10	1	-1E+10	1
4902549	51	C	01/05/2022	23:02	-132.188	47.350	0	284.00	0	5.2500	0	33.8290	0	26.721	0	281.440	0	107.2	4	34.8	4	-1E+10	1	-1E+10	1	-1E+10	1	-1E+10	1	-1E+10	1	-1E+10	1
4902549	51	C	01/05/2022	23:02	-132.188	47.350	0	284.80	0	5.2450	0	33.8290	0	26.721	0	282.232	0	106.7	4	34.6	4	-1E+10	1	-1E+10	1	-1E+10	1	-1E+10	1	-1E+10	1	-1E+10	1
4902549	51	C	01/05/2022	23:02	-132.188	47.350	0	285.70	0	5.2350	0	33.8310	0	26.724	0	283.124	0	106.3	4	34.5	4	-1E+10	1	-1E+10	1	-1E+10	1	-1E+10	1	-1E+10	1	-1E+10	1
4902549	51	C	01/05/2022	23:02	-132.188	47.350	0	286.60	0	5.2070	0	33.8350	0	26.731	0	284.015	0	106.0	4	34.4	4	-1E+10	1	-1E+10	1	-1E+10	1	-1E+10	1	-1E+10	1	-1E+10	1
4902549	51	C	01/05/2022	23:02	-132.188	47.350	0	287.90	0	5.1830	0	33.8330	0	26.732	0	285.302	0	105.8	4	34.3	4	-1E+10	1	-1E+10	1	-1E+10	1	-1E+10	1	-1E+10	1	-1E+10	1
4902549	51	C	01/05/2022	23:02	-132.188	47.350	0	289.30	0	5.1820	0	33.8340	0	26.733	0	286.689	0	105.5	4	34.2	4	-1E+10	1	-1E+10	1	-1E+10	1	-1E+10	1	-1E+10	1	-1E+10	1
4902549	51	C	01/05/2022	23:02	-132.188	47.350	0	290.20	0	5.1800	0	33.8330	0	26.732	0	287.580	0	105.3	4	34.1	4	-1E+10	1	-1E+10	1	-1E+10	1	-1E+10	1	-1E+10	1	-1E+10	1
4902549	51	C	01/05/2022	23:02	-132.188	47.350	0	291.10	0	5.1750	0	33.8330	0	26.733	0	288.471	0	105.0	4	34.0	4	-1E+10	1	-1E+10	1	-1E+10	1	-1E+10	1	-1E+10	1	-1E+10	1
4902549	51	C	01/05/2022	23:02	-132.188	47.350	0	291.90	0	5.1740	0	33.8340	0	26.734	0	289.263	0	104.8	4	33.9	4	-1E+10	1	-1E+10	1	-1E+10	1	-1E+10	1	-1E+10	1	-1E+10	1
4902549	51	C	01/05/2022	23:02	-132.188	47.350	0	292.80	0	5.1730	0	33.8330	0	26.733	0	290.155	0	104.5	4	33.9	4	-1E+10	1	-1E+10	1	-1E+10	1	-1E+10	1	-1E+10	1	-1E+10	1
4902549	51	C	01/05/2022	23:02	-132.188	47.350	0	293.70	0	5.1730	0	33.8340	0	26.734	0	291.046	0	104.3	4	33.8	4	-1E+10	1	-1E+10	1	-1E+10	1	-1E+10	1	-1E+10	1	-1E+10	1
4902549	51	C	01/05/2022	23:02	-132.188	47.350	0	294.60	0	5.1730	0	33.8340	0	26.734	0	291.937	0	103.9	4	33.7	4	-1E+10	1	-1E+10	1	-1E+10	1	-1E+10	1	-1E+10	1	-1E+10	1
4902549	51	C	01/05/2022	23:02	-132.188	47.350	0	295.90	0	5.1680	0	33.8340	0	26.734	0	293.224	0	103.4	4	33.5	4	-1E+10	1	-1E+10	1	-1E+10	1	-1E+10	1	-1E+10	1	-1E+10	1
4902549	51	C	01/05/2022	23:02	-132.188	47.350	0	297.30	0	5.1420	0	33.8390	0	26.741	0	294.611	0	103.1	4	33.4	4	-1E+10	1	-1E+10	1	-1E+10	1	-1E+10	1	-1E+10	1	-1E+10	1
4902549	51	C	01/05/2022	23:02	-132.188	47.350	0	298.20	0	5.1270	0	33.8390	0	26.743	0	295.502	0	103.0	4	33.3	4	-1E+10	1	-1E+10	1	-1E+10	1	-1E+10	1	-1E+10	1	-1E+10	1
4902549	51	C	01/05/2022	23:02	-132.188	47.350	0	299.10	0	5.1270	0	33.8400	0	26.744	0	296.393	0	102.8	4	33.3	4	-1E+10	1	-1E+10	1	-1E+10	1	-1E+10	1	-1E+10	1	-1E+10	1
4902549	51	C	01/05/2022	23:02	-132.188	47.350	0	300.10	0	5.1290	0	33.8390	0	26.743	0	297.383	0	102.7	4	33.2	4	-1E+10	1	-1E+10	1	-1E+10	1	-1E+10	1	-1E+10	1	-1E+10	1
4902549	51	C	01/05/2022	23:02	-132.188	47.350	0	301.00	0	5.1290	0	33.8400	0	26.744	0	298.275	0	102.5	4	33.1	4	-1E+10	1	-1E+10	1	-1E+10	1	-1E+10	1	-1E+10	1	-1E+10	1
4902549	51	C	01/05/2022	23:02	-132.188	47.350	0	301.90	0	5.1310	0	33.8390	0	26.743	0	299.166	0	102.3	4	33.1	4	-1E+10	1	-1E+10	1	-1E+10	1	-1E+10	1	-1E+10	1	-1E+10	1
4902549	51	C	01/05/2022	23:02	-132.188	47.350	0	302.80	0	5.1320	0	33.8410	0	26.744	0	300.057	0	102.0	4	33.0	4	-1E+10	1	-1E+10	1	-1E+10	1	-1E+10	1	-1E+10	1	-1E+10	1
4902549	51	C	01/05/2022	23:02	-132.188	47.350	0	303.70	0	5.1310	0	33.8410	0	26.744	0	300.948	0	101.7	4	32.9	4	-1E+10	1	-1E+10	1	-1E+10	1	-1E+10	1	-1E+10	1	-1E+10	1
4902549	51	C	01/05/2022	23:02	-132.188	47.350	0	304.60	0	5.1350	0	33.8410	0	26.744	0	301.839	0	101.3	4	32.8	4	-1E+10	1	-1E+10	1	-1E+10	1	-1E+10	1	-1E+10	1	-1E+10	1
4902549	51	C	01/05/2022	23:02	-132.188	47.350	0	305.60	0	5.1330	0	33.8410	0	26.744	0	302.830	0	100.9	4	32.7	4	-1E+10	1	-1E+10	1	-1E+10	1	-1E+10	1	-1E+10	1	-1E+10	1
4902549	51	C	01/05/2022	23:02	-132.188	47.350	0	306.90	0	5.1230	0	33.8430	0	26.747	0	304.117	0	100.3	4	32.5	4	-1E+10	1	-1E+10	1	-1E+10	1	-1E+10	1	-1E+10	1	-1E+10	1
4902549	51	C	01/05/2022	23:02	-132.188	47.350	0	308.40	0	5.1190	0	33.8430	0	26.747	0	305.602	0	99.7	4	32.2	4	-1E+10	1	-1E+10	1	-1E+10	1	-1E+10	1	-1E+10	1	-1E+10	1
4902549	51	C	01/05/2022	23:02	-132.188	47.350	0	309.30	0	5.1080	0	33.8440	0	26.749	0	306.493	0	99.2	4	32.1	4	-1E+10	1	-1E+10	1	-1E+10	1	-1E+10	1	-1E+10	1	-1E+10	1
4902549	51	C	01/05/2022	23:02	-132.188	47.350	0	310.20	0	5.0950	0	33.8430	0	26.750	0	307.385	0	98.9	4	32.0	4	-1E+10	1	-1E+10	1	-1E+10	1	-1E+10	1	-1E+10	1	-1E+10	1
4902549	51	C	01/05/2022	23:02	-132.188	47.350	0	311.10	0	5.0850	0	33.8430	0	26.751	0	308.276	0	98.5	4	31.8	4	-1E+10	1	-1E+10	1	-1E+10	1	-1E+10	1	-1E+10	1	-1E+10	1
4902549	51	C	01/05/2022	23:02	-132.188	47.350	0	312.10	0	5.0750	0	33.8440	0	26.753	0	309.266	0	98.2	4	31.7	4	-1E+10	1	-1E+10	1	-1E+10	1	-1E+10	1	-1E+10	1	-1E+10	1
4902549	51	C	01/05/2022	23:02	-132.188	47.350	0	313.00	0	5.0630	0	33.8440	0	26.754	0	310.157	0	97.8	4	31.6	4	-1E+10	1	-1E+10	1	-1E+10	1	-1E+10	1	-1E+10	1	-1E+10	1
4902549	51	C	01/05/2022	23:02	-132.188	47.350	0	313.90	0	5.0520	0	33.8450	0	26.757	0	311.048	0	97.6	4	31.5	4	-1E+10	1	-1E+10	1	-1E+10	1	-1E+10	1	-1E+10	1	-1E+10	1
4902549	51	C	01/05/2022	23:02	-132.188	47.350	0	314.90	0	5.0480	0	33.8440	0	26.756	0	312.038	0	97.4	4	31.4	4	-1E+10	1	-1E+10	1	-1E+10	1	-1E+10	1	-1E+10	1	-1E+10	1
4902549	51	C	01/05/2022	23:02	-132.188	47.350	0	315.80	0	5.0440	0	33.8450	0	26.757	0	312.930	0	97.1	4	31.3	4	-1E+10	1	-1E+10	1	-1E+10	1	-1E+10	1	-1E+10	1	-1E+10	1
4902549	51	C	01/05/2022	23:02	-132.188	47.350	0	316.70	0	5.0440	0	33.8450	0	26.757	0	313.821	0	96.8	4	31.2	4	-1E+10	1	-1E+10	1	-1E+10	1	-1E+10	1	-1E+10	1	-1E+10	1
4902549	51	C	01/05/2022	23:02	-132.188	47.350	0	317.70	0	5.0360	0	33.8460	0	26.759	0	314.811	0	96.5	4	31.1	4	-1E+10	1	-1E+10	1	-1E+10	1	-1E+10	1	-1E+10	1	-1E+10	1
4902549	51	C	01/05/2022	23:02	-132.188	47.350	0	318.60	0	5.0300	0	33.8470	0	26.761	0	315.702	0	96.2	4	31.1	4	-1E+10	1	-1E+10	1	-1E+10	1	-1E+10	1	-1E+10	1	-1E+10	1
4902549	51	C	01/05/2022	23:02	-132.188	47.350	0	319.60	0	5.0230	0	33.8480	0	26.762	0	316.692	0	96.0	4	31.0	4	-1E+10	1	-1E+10	1	-1E+10	1	-1E+10	1	-1E+10	1	-1E+10	1
4902549	51	C	01/05/2022	23:02	-132.188	47.350	0	320.50	0	5.0210	0	33.8470	0	26.762	0	317.583	0	95.6	4	30.9	4	-1E+10	1	-1E+10	1	-1E+10	1	-1E+10	1	-1E+10	1	-1E+10	1
4902549	51	C	01/05/2022	23:02	-132.188	47.350	0	321.90	0	5.0200	0	33.8470	0	26.762	0	318.969	0	95.2	4	30.7	4	-1E+10	1	-1E+10	1	-1E+10	1	-1E+10	1	-1E+10	1	-1E+10	1
4902549	51	C	01/05/2022	23:02	-132.188	47.350	0	323.40	0	5.0200	0	33.8470	0	26.762	0	320.455	0	94.6	4	30.5	4	-1E+10	1	-1E+10	1	-1E+10	1	-1E+10	1	-1E+10	1	-1E+10	1
4902549	51	C	01/05/2022	23:02	-132.188	47.350	0	324.30	0	5.0160	0	33.8470	0	26.762	0	321.346	0	94.1	4	30.4	4	-1E+10	1	-1E+10	1	-1E+10	1	-1E+10	1	-1E+10	1	-1E+10	1
4902549	51	C	01/05/2022	23:02	-132.188	47.350	0	325.20	0	5.0100	0	33.8490	0	26.765	0	322.237	0	93.7	4	30.2	4	-1E+10	1	-1E+10	1	-1E+10	1	-1E+10	1	-1E+10	1	-1E+10	1
4902549	51	C	01/05/2022	23:02	-132.188	47.350	0	326.20	0	5.0040	0	33.8480	0	26.764	0	323.227	0	93.2	4	30.1	4	-1E+10	1	-1E+10	1	-1E+10	1	-1E+10	1	-1E+10	1	-1E+10	1
4902549	51	C	01/05/2022	23:02	-132.188	47.350	0	327.10	0	4.9960	0	33.8490	0	26.766	0	324.118	0	92.7	4	29.9	4	-1E+10	1	-1E+10	1	-1E+10	1	-1E+10	1	-1E+10	1	-1E+10	1
4902549	51	C	01/05/2022	23:02	-132.188	47.350	0	328.10	0	4.9810	0	33.8510	0	26.769	0	325.108	0	92.4	4	29.8	4	-1E+10	1	-1E+10	1	-1E+10	1	-1E+10	1	-1E+10	1	-1E+10	1
4902549	51	C	01/05/2022	23:02	-132.188	47.350	0	329.00	0	4.9710	0	33.8510	0	26.771	0	325.999	0	92.0	4	29.7	4	-1E+10	1	-1E+10	1	-1E+10	1	-1E+10	1	-1E+10	1	-1E+10	1
4902549	51	C	01/05/2022	23:02	-132.188	47.350	0	330.00	0	4.9680	0	33.8520	0	26.772	0	326.989	0	91.6	4	29.5	4	-1E+10	1	-1E+10	1	-1E+10	1	-1E+10	1	-1E+10	1	-1E+10	1
4902549	51	C	01/05/2022	23:02	-132.188	47.350	0	330.90	0	4.9650	0	33.8530	0	26.773	0	327.880	0	91.2	4	29.4	4	-1E+10	1	-1E+10	1	-1E+10	1	-1E+10	1	-1E+10	1	-1E+10	1
4902549	51	C	01/05/2022	23:02	-132.188	47.350	0	331.80	0	4.9600	0	33.8530	0	26.773	0	328.771	0	90.7	4	29.2	4	-1E+10	1	-1E+10	1	-1E+10	1	-1E+10	1	-1E+10	1	-1E+10	1
4902549	51	C	01/05/2022	23:02	-132.188	47.350	0	332.70	0	4.9510	0	33.8540	0	26.775	0	329.662	0	90.3	4	29.1	4	-1E+10	1	-1E+10	1	-1E+10	1	-1E+10	1	-1E+10	1	-1E+10	1
4902549	51	C	01/05/2022	23:02	-132.188	47.350	0	333.60	0	4.9470	0	33.8530	0	26.775	0	330.554	0	89.9	4	29.0	4	-1E+10	1	-1E+10	1	-1E+10	1	-1E+10	1	-1E+10	1	-1E+10	1
4902549	51	C	01/05/2022	23:02	-132.188	47.350	0	334.50	0	4.9460	0	33.8540	0	26.776	0	331.445	0	89.5	4	28.8	4	-1E+10	1	-1E+10	1	-1E+10	1	-1E+10	1	-1E+10	1	-1E+10	1
4902549	51	C	01/05/2022	23:02	-132.188	47.350	0	335.90	0	4.9260	0	33.8590	0	26.782	0	332.831	0	88.9	4	28.6	4	-1E+10	1	-1E+10	1	-1E+10	1	-1E+10	1	-1E+10	1	-1E+10	1
4902549	51	C	01/05/2022	23:02	-132.188	47.350	0	337.30	0	4.9180	0	33.8570	0	26.781	0	334.217	0	88.4	4	28.5	4	-1E+10	1	-1E+10	1	-1E+10	1	-1E+10	1	-1E+10	1	-1E+10	1
4902549	51	C	01/05/2022	23:02	-132.188	47.350	0	338.30	0	4.9140	0	33.8570	0	26.782	0	335.207	0	88.1	4	28.4	4	-1E+10	1	-1E+10	1	-1E+10	1	-1E+10	1	-1E+10	1	-1E+10	1
4902549	51	C	01/05/2022	23:02	-132.188	47.350	0	339.20	0	4.9070	0	33.8580	0	26.783	0	336.098	0	87.8	4	28.3	4	-1E+10	1	-1E+10	1	-1E+10	1	-1E+10	1	-1E+10	1	-1E+10	1
4902549	51	C	01/05/2022	23:02	-132.188	47.350	0	340.10	0	4.9020	0	33.8580	0	26.784	0	336.989	0	87.5	4	28.1	4	-1E+10	1	-1E+10	1	-1E+10	1	-1E+10	1	-1E+10	1	-1E+10	1
4902549	51	C	01/05/2022	23:02	-132.188	47.350	0	341.00	0	4.8930	0	33.8600	0	26.787	0	337.880	0	87.2	4	28.0	4	-1E+10	1	-1E+10	1	-1E+10	1	-1E+10	1	-1E+10	1	-1E+10	1
4902549	51	C	01/05/2022	23:02	-132.188	47.350	0	342.00	0	4.8890	0	33.8600	0	26.787	0	338.870	0	86.9	4	28.0	4	-1E+10	1	-1E+10	1	-1E+10	1	-1E+10	1	-1E+10	1	-1E+10	1
4902549	51	C	01/05/2022	23:02	-132.188	47.350	0	342.90	0	4.8820	0	33.8620	0	26.789	0	339.761	0	86.6	4	27.9	4	-1E+10	1	-1E+10	1	-1E+10	1	-1E+10	1	-1E+10	1	-1E+10	1
4902549	51	C	01/05/2022	23:02	-132.188	47.350	0	343.80	0	4.8810	0	33.8610	0	26.789	0	340.652	0	86.3	4	27.8	4	-1E+10	1	-1E+10	1	-1E+10	1	-1E+10	1	-1E+10	1	-1E+10	1
4902549	51	C	01/05/2022	23:02	-132.188	47.350	0	344.80	0	4.8800	0	33.8620	0	26.790	0	341.642	0	86.0	4	27.7	4	-1E+10	1	-1E+10	1	-1E+10	1	-1E+10	1	-1E+10	1	-1E+10	1
4902549	51	C	01/05/2022	23:02	-132.188	47.350	0	345.70	0	4.8800	0	33.8610	0	26.789	0	342.533	0	85.6	4	27.5	4	-1E+10	1	-1E+10	1	-1E+10	1	-1E+10	1	-1E+10	1	-1E+10	1
4902549	51	C	01/05/2022	23:02	-132.188	47.350	0	346.60	0	4.8750	0	33.8620	0	26.790	0	343.424	0	85.3	4	27.4	4	-1E+10	1	-1E+10	1	-1E+10	1	-1E+10	1	-1E+10	1	-1E+10	1
4902549	51	C	01/05/2022	23:02	-132.188	47.350	0	347.60	0	4.8720	0	33.8620	0	26.791	0	344.414	0	84.9	4	27.3	4	-1E+10	1	-1E+10	1	-1E+10	1	-1E+10	1	-1E+10	1	-1E+10	1
4902549	51	C	01/05/2022	23:02	-132.188	47.350	0	348.90	0	4.8660	0	33.8640	0	26.793	0	345.701	0	84.2	4	27.1	4	-1E+10	1	-1E+10	1	-1E+10	1	-1E+10	1	-1E+10	1	-1E+10	1
4902549	51	C	01/05/2022	23:02	-132.188	47.350	0	350.40	0	4.8530	0	33.8660	0	26.796	0	347.186	0	83.6	4	26.9	4	-1E+10	1	-1E+10	1	-1E+10	1	-1E+10	1	-1E+10	1	-1E+10	1
4902549	51	C	01/05/2022	23:02	-132.188	47.350	0	353.10	0	4.8380	0	33.8670	0	26.798	0	349.859	0	82.3	4	26.4	4	-1E+10	1	-1E+10	1	-1E+10	1	-1E+10	1	-1E+10	1	-1E+10	1
4902549	51	C	01/05/2022	23:02	-132.188	47.350	0	357.80	0	4.8090	0	33.8710	0	26.805	0	354.512	0	80.1	4	25.7	4	-1E+10	1	-1E+10	1	-1E+10	1	-1E+10	1	-1E+10	1	-1E+10	1
4902549	51	C	01/05/2022	23:02	-132.188	47.350	0	363.00	0	4.7800	0	33.8770	0	26.813	0	359.660	0	77.8	4	25.0	4	-1E+10	1	-1E+10	1	-1E+10	1	-1E+10	1	-1E+10	1	-1E+10	1
4902549	51	C	01/05/2022	23:02	-132.188	47.350	0	368.20	0	4.7440	0	33.8840	0	26.822	0	364.807	0	75.5	4	24.2	4	-1E+10	1	-1E+10	1	-1E+10	1	-1E+10	1	-1E+10	1	-1E+10	1
4902549	51	C	01/05/2022	23:02	-132.188	47.350	0	373.00	0	4.7160	0	33.8890	0	26.830	0	369.559	0	73.7	4	23.6	4	-1E+10	1	-1E+10	1	-1E+10	1	-1E+10	1	-1E+10	1	-1E+10	1
4902549	51	C	01/05/2022	23:02	-132.188	47.350	0	377.90	0	4.6900	0	33.8960	0	26.838	0	374.409	0	72.2	4	23.1	4	-1E+10	1	-1E+10	1	-1E+10	1	-1E+10	1	-1E+10	1	-1E+10	1
4902549	51	C	01/05/2022	23:02	-132.188	47.350	0	382.90	0	4.6730	0	33.9000	0	26.843	0	379.358	0	70.2	4	22.5	4	-1E+10	1	-1E+10	1	-1E+10	1	-1E+10	1	-1E+10	1	-1E+10	1
4902549	51	C	01/05/2022	23:02	-132.188	47.350	0	387.90	0	4.6440	0	33.9070	0	26.852	0	384.307	0	68.2	4	21.8	4	-1E+10	1	-1E+10	1	-1E+10	1	-1E+10	1	-1E+10	1	-1E+10	1
4902549	51	C	01/05/2022	23:02	-132.188	47.350	0	393.00	0	4.6300	0	33.9110	0	26.857	0	389.355	0	66.7	4	21.3	4	-1E+10	1	-1E+10	1	-1E+10	1	-1E+10	1	-1E+10	1	-1E+10	1
4902549	51	C	01/05/2022	23:02	-132.188	47.350	0	398.20	0	4.6050	0	33.9180	0	26.865	0	394.502	0	65.5	4	21.0	4	-1E+10	1	-1E+10	1	-1E+10	1	-1E+10	1	-1E+10	1	-1E+10	1
4902549	51	C	01/05/2022	23:02	-132.188	47.350	0	402.90	0	4.5960	0	33.9200	0	26.867	0	399.154	0	64.6	4	20.7	4	-1E+10	1	-1E+10	1	-1E+10	1	-1E+10	1	-1E+10	1	-1E+10	1
4902549	51	C	01/05/2022	23:02	-132.188	47.350	0	407.90	0	4.5840	0	33.9230	0	26.871	0	404.103	0	63.5	4	20.3	4	-1E+10	1	-1E+10	1	-1E+10	1	-1E+10	1	-1E+10	1	-1E+10	1
4902549	51	C	01/05/2022	23:02	-132.188	47.350	0	412.70	0	4.5730	0	33.9270	0	26.876	0	408.853	0	62.1	4	19.8	4	-1E+10	1	-1E+10	1	-1E+10	1	-1E+10	1	-1E+10	1	-1E+10	1
4902549	51	C	01/05/2022	23:02	-132.188	47.350	0	417.80	0	4.5490	0	33.9330	0	26.883	0	413.901	0	60.5	4	19.3	4	-1E+10	1	-1E+10	1	-1E+10	1	-1E+10	1	-1E+10	1	-1E+10	1
4902549	51	C	01/05/2022	23:02	-132.188	47.350	0	423.10	0	4.5350	0	33.9390	0	26.889	0	419.146	0	59.1	4	18.9	4	-1E+10	1	-1E+10	1	-1E+10	1	-1E+10	1	-1E+10	1	-1E+10	1
4902549	51	C	01/05/2022	23:02	-132.188	47.350	0	427.90	0	4.5160	0	33.9440	0	26.895	0	423.896	0	57.8	4	18.4	4	-1E+10	1	-1E+10	1	-1E+10	1	-1E+10	1	-1E+10	1	-1E+10	1
4902549	51	C	01/05/2022	23:02	-132.188	47.350	0	432.90	0	4.5000	0	33.9510	0	26.903	0	428.844	0	56.7	4	18.1	4	-1E+10	1	-1E+10	1	-1E+10	1	-1E+10	1	-1E+10	1	-1E+10	1
4902549	51	C	01/05/2022	23:02	-132.188	47.350	0	438.00	0	4.4910	0	33.9550	0	26.907	0	433.891	0	55.7	4	17.8	4	-1E+10	1	-1E+10	1	-1E+10	1	-1E+10	1	-1E+10	1	-1E+10	1
4902549	51	C	01/05/2022	23:02	-132.188	47.350	0	443.10	0	4.4780	0	33.9580	0	26.911	0	438.938	0	54.6	4	17.4	4	-1E+10	1	-1E+10	1	-1E+10	1	-1E+10	1	-1E+10	1	-1E+10	1
4902549	51	C	01/05/2022	23:02	-132.188	47.350	0	447.80	0	4.4640	0	33.9630	0	26.916	0	443.589	0	53.5	4	17.1	4	-1E+10	1	-1E+10	1	-1E+10	1	-1E+10	1	-1E+10	1	-1E+10	1
4902549	51	C	01/05/2022	23:02	-132.188	47.350	0	452.60	0	4.4540	0	33.9660	0	26.920	0	448.338	0	52.6	4	16.8	4	-1E+10	1	-1E+10	1	-1E+10	1	-1E+10	1	-1E+10	1	-1E+10	1
4902549	51	C	01/05/2022	23:02	-132.188	47.350	0	457.90	0	4.4460	0	33.9690	0	26.923	0	453.583	0	51.2	4	16.3	4	-1E+10	1	-1E+10	1	-1E+10	1	-1E+10	1	-1E+10	1	-1E+10	1
4902549	51	C	01/05/2022	23:02	-132.188	47.350	0	463.10	0	4.4250	0	33.9760	0	26.931	0	458.728	0	49.9	4	15.9	4	-1E+10	1	-1E+10	1	-1E+10	1	-1E+10	1	-1E+10	1	-1E+10	1
4902549	51	C	01/05/2022	23:02	-132.188	47.350	0	467.90	0	4.4150	0	33.9790	0	26.934	0	463.477	0	48.8	4	15.5	4	-1E+10	1	-1E+10	1	-1E+10	1	-1E+10	1	-1E+10	1	-1E+10	1
4902549	51	C	01/05/2022	23:02	-132.188	47.350	0	472.60	0	4.4010	0	33.9850	0	26.941	0	468.127	0	47.4	4	15.1	4	-1E+10	1	-1E+10	1	-1E+10	1	-1E+10	1	-1E+10	1	-1E+10	1
4902549	51	C	01/05/2022	23:02	-132.188	47.350	0	477.90	0	4.3780	0	33.9930	0	26.949	0	473.371	0	45.9	4	14.6	4	-1E+10	1	-1E+10	1	-1E+10	1	-1E+10	1	-1E+10	1	-1E+10	1
4902549	51	C	01/05/2022	23:02	-132.188	47.350	0	483.10	0	4.3580	0	34.0010	0	26.958	0	478.516	0	44.6	4	14.2	4	-1E+10	1	-1E+10	1	-1E+10	1	-1E+10	1	-1E+10	1	-1E+10	1
4902549	51	C	01/05/2022	23:02	-132.188	47.350	0	487.90	0	4.3390	0	34.0080	0	26.966	0	483.265	0	43.4	4	13.8	4	-1E+10	1	-1E+10	1	-1E+10	1	-1E+10	1	-1E+10	1	-1E+10	1
4902549	51	C	01/05/2022	23:02	-132.188	47.350	0	492.70	0	4.3210	0	34.0150	0	26.973	0	488.014	0	42.5	4	13.5	4	-1E+10	1	-1E+10	1	-1E+10	1	-1E+10	1	-1E+10	1	-1E+10	1
4902549	51	C	01/05/2022	23:02	-132.188	47.350	0	498.00	0	4.3120	0	34.0190	0	26.977	0	493.257	0	41.8	4	13.3	4	-1E+10	1	-1E+10	1	-1E+10	1	-1E+10	1	-1E+10	1	-1E+10	1
4902549	51	C	01/05/2022	23:02	-132.188	47.350	0	502.90	0	4.3070	0	34.0220	0	26.980	0	498.104	0	40.9	4	13.0	4	-1E+10	1	-1E+10	1	-1E+10	1	-1E+10	1	-1E+10	1	-1E+10	1
4902549	51	C	01/05/2022	23:02	-132.188	47.350	0	507.80	0	4.2910	0	34.0270	0	26.986	0	502.952	0	40.0	4	12.7	4	-1E+10	1	-1E+10	1	-1E+10	1	-1E+10	1	-1E+10	1	-1E+10	1
4902549	51	C	01/05/2022	23:02	-132.188	47.350	0	512.80	0	4.2840	0	34.0300	0	26.989	0	507.898	0	39.3	4	12.5	4	-1E+10	1	-1E+10	1	-1E+10	1	-1E+10	1	-1E+10	1	-1E+10	1
4902549	51	C	01/05/2022	23:02	-132.188	47.350	0	517.70	0	4.2720	0	34.0330	0	26.993	0	512.745	0	38.5	4	12.2	4	-1E+10	1	-1E+10	1	-1E+10	1	-1E+10	1	-1E+10	1	-1E+10	1
4902549	51	C	01/05/2022	23:02	-132.188	47.350	0	523.10	0	4.2630	0	34.0360	0	26.996	0	518.086	0	37.6	4	11.9	4	-1E+10	1	-1E+10	1	-1E+10	1	-1E+10	1	-1E+10	1	-1E+10	1
4902549	51	C	01/05/2022	23:02	-132.188	47.350	0	527.90	0	4.2520	0	34.0400	0	27.000	0	522.835	0	36.7	4	11.7	4	-1E+10	1	-1E+10	1	-1E+10	1	-1E+10	1	-1E+10	1	-1E+10	1
4902549	51	C	01/05/2022	23:02	-132.188	47.350	0	532.80	0	4.2430	0	34.0430	0	27.004	0	527.681	0	35.6	4	11.3	4	-1E+10	1	-1E+10	1	-1E+10	1	-1E+10	1	-1E+10	1	-1E+10	1
4902549	51	C	01/05/2022	23:02	-132.188	47.350	0	537.80	0	4.2260	0	34.0500	0	27.011	0	532.627	0	34.3	4	10.9	4	-1E+10	1	-1E+10	1	-1E+10	1	-1E+10	1	-1E+10	1	-1E+10	1
4902549	51	C	01/05/2022	23:02	-132.188	47.350	0	542.80	0	4.2070	0	34.0560	0	27.018	0	537.572	0	33.0	4	10.5	4	-1E+10	1	-1E+10	1	-1E+10	1	-1E+10	1	-1E+10	1	-1E+10	1
4902549	51	C	01/05/2022	23:02	-132.188	47.350	0	547.90	0	4.1830	0	34.0650	0	27.028	0	542.617	0	32.1	4	10.2	4	-1E+10	1	-1E+10	1	-1E+10	1	-1E+10	1	-1E+10	1	-1E+10	1
4902549	51	C	01/05/2022	23:02	-132.188	47.350	0	552.90	0	4.1730	0	34.0680	0	27.031	0	547.562	0	31.5	4	10.0	4	-1E+10	1	-1E+10	1	-1E+10	1	-1E+10	1	-1E+10	1	-1E+10	1
4902549	51	C	01/05/2022	23:02	-132.188	47.350	0	557.90	0	4.1650	0	34.0710	0	27.034	0	552.507	0	30.9	4	9.8	4	-1E+10	1	-1E+10	1	-1E+10	1	-1E+10	1	-1E+10	1	-1E+10	1
4902549	51	C	01/05/2022	23:02	-132.188	47.350	0	562.80	0	4.1520	0	34.0750	0	27.039	0	557.353	0	30.2	4	9.6	4	-1E+10	1	-1E+10	1	-1E+10	1	-1E+10	1	-1E+10	1	-1E+10	1
4902549	51	C	01/05/2022	23:02	-132.188	47.350	0	567.80	0	4.1400	0	34.0790	0	27.043	0	562.298	0	29.4	4	9.3	4	-1E+10	1	-1E+10	1	-1E+10	1	-1E+10	1	-1E+10	1	-1E+10	1
4902549	51	C	01/05/2022	23:02	-132.188	47.350	0	572.70	0	4.1270	0	34.0840	0	27.049	0	567.144	0	28.7	4	9.1	4	-1E+10	1	-1E+10	1	-1E+10	1	-1E+10	1	-1E+10	1	-1E+10	1
4902549	51	C	01/05/2022	23:02	-132.188	47.350	0	578.10	0	4.1170	0	34.0880	0	27.053	0	572.484	0	28.0	4	8.9	4	-1E+10	1	-1E+10	1	-1E+10	1	-1E+10	1	-1E+10	1	-1E+10	1
4902549	51	C	01/05/2022	23:02	-132.188	47.350	0	583.10	0	4.1090	0	34.0910	0	27.056	0	577.428	0	27.2	4	8.6	4	-1E+10	1	-1E+10	1	-1E+10	1	-1E+10	1	-1E+10	1	-1E+10	1
4902549	51	C	01/05/2022	23:02	-132.188	47.350	0	588.10	0	4.0920	0	34.0970	0	27.063	0	582.373	0	26.3	4	8.3	4	-1E+10	1	-1E+10	1	-1E+10	1	-1E+10	1	-1E+10	1	-1E+10	1
4902549	51	C	01/05/2022	23:02	-132.188	47.350	0	593.10	0	4.0830	0	34.1010	0	27.067	0	587.317	0	25.5	4	8.1	4	-1E+10	1	-1E+10	1	-1E+10	1	-1E+10	1	-1E+10	1	-1E+10	1
4902549	51	C	01/05/2022	23:02	-132.188	47.350	0	597.70	0	4.0720	0	34.1050	0	27.071	0	591.865	0	24.8	4	7.9	4	-1E+10	1	-1E+10	1	-1E+10	1	-1E+10	1	-1E+10	1	-1E+10	1
4902549	51	C	01/05/2022	23:02	-132.188	47.350	0	602.80	0	4.0620	0	34.1090	0	27.076	0	596.908	0	24.0	4	7.6	4	-1E+10	1	-1E+10	1	-1E+10	1	-1E+10	1	-1E+10	1	-1E+10	1
4902549	51	C	01/05/2022	23:02	-132.188	47.350	0	608.00	0	4.0490	0	34.1150	0	27.082	0	602.050	0	23.3	4	7.3	4	-1E+10	1	-1E+10	1	-1E+10	1	-1E+10	1	-1E+10	1	-1E+10	1
4902549	51	C	01/05/2022	23:02	-132.188	47.350	0	612.60	0	4.0410	0	34.1180	0	27.085	0	606.598	0	22.6	4	7.1	4	-1E+10	1	-1E+10	1	-1E+10	1	-1E+10	1	-1E+10	1	-1E+10	1
4902549	51	C	01/05/2022	23:02	-132.188	47.350	0	617.80	0	4.0270	0	34.1240	0	27.091	0	611.740	0	22.0	4	6.9	4	-1E+10	1	-1E+10	1	-1E+10	1	-1E+10	1	-1E+10	1	-1E+10	1
4902549	51	C	01/05/2022	23:02	-132.188	47.350	0	623.00	0	4.0200	0	34.1270	0	27.094	0	616.881	0	21.4	4	6.8	4	-1E+10	1	-1E+10	1	-1E+10	1	-1E+10	1	-1E+10	1	-1E+10	1
4902549	51	C	01/05/2022	23:02	-132.188	47.350	0	627.80	0	4.0090	0	34.1310	0	27.099	0	621.627	0	20.7	4	6.5	4	-1E+10	1	-1E+10	1	-1E+10	1	-1E+10	1	-1E+10	1	-1E+10	1
4902549	51	C	01/05/2022	23:02	-132.188	47.350	0	633.00	0	3.9920	0	34.1370	0	27.105	0	626.768	0	20.2	4	6.4	4	-1E+10	1	-1E+10	1	-1E+10	1	-1E+10	1	-1E+10	1	-1E+10	1
4902549	51	C	01/05/2022	23:02	-132.188	47.350	0	638.40	0	3.9850	0	34.1390	0	27.108	0	632.106	0	19.6	4	6.2	4	-1E+10	1	-1E+10	1	-1E+10	1	-1E+10	1	-1E+10	1	-1E+10	1
4902549	51	C	01/05/2022	23:02	-132.188	47.350	0	643.30	0	3.9730	0	34.1440	0	27.113	0	636.951	0	18.9	4	6.0	4	-1E+10	1	-1E+10	1	-1E+10	1	-1E+10	1	-1E+10	1	-1E+10	1
4902549	51	C	01/05/2022	23:02	-132.188	47.350	0	648.30	0	3.9560	0	34.1500	0	27.119	0	641.894	0	18.4	4	5.8	4	-1E+10	1	-1E+10	1	-1E+10	1	-1E+10	1	-1E+10	1	-1E+10	1
4902549	51	C	01/05/2022	23:02	-132.188	47.350	0	653.30	0	3.9480	0	34.1530	0	27.123	0	646.836	0	18.0	4	5.7	4	-1E+10	1	-1E+10	1	-1E+10	1	-1E+10	1	-1E+10	1	-1E+10	1
4902549	51	C	01/05/2022	23:02	-132.188	47.350	0	658.30	0	3.9430	0	34.1550	0	27.125	0	651.779	0	17.6	4	5.5	4	-1E+10	1	-1E+10	1	-1E+10	1	-1E+10	1	-1E+10	1	-1E+10	1
4902549	51	C	01/05/2022	23:02	-132.188	47.350	0	663.00	0	3.9290	0	34.1590	0	27.129	0	656.425	0	17.1	4	5.4	4	-1E+10	1	-1E+10	1	-1E+10	1	-1E+10	1	-1E+10	1	-1E+10	1
4902549	51	C	01/05/2022	23:02	-132.188	47.350	0	667.90	0	3.9120	0	34.1640	0	27.135	0	661.269	0	16.4	4	5.2	4	-1E+10	1	-1E+10	1	-1E+10	1	-1E+10	1	-1E+10	1	-1E+10	1
4902549	51	C	01/05/2022	23:02	-132.188	47.350	0	672.90	0	3.8950	0	34.1710	0	27.142	0	666.211	0	15.8	4	5.0	4	-1E+10	1	-1E+10	1	-1E+10	1	-1E+10	1	-1E+10	1	-1E+10	1
4902549	51	C	01/05/2022	23:02	-132.188	47.350	0	677.80	0	3.8760	0	34.1770	0	27.149	0	671.055	0	15.2	4	4.8	4	-1E+10	1	-1E+10	1	-1E+10	1	-1E+10	1	-1E+10	1	-1E+10	1
4902549	51	C	01/05/2022	23:02	-132.188	47.350	0	682.80	0	3.8590	0	34.1820	0	27.155	0	675.997	0	14.8	4	4.7	4	-1E+10	1	-1E+10	1	-1E+10	1	-1E+10	1	-1E+10	1	-1E+10	1
4902549	51	C	01/05/2022	23:02	-132.188	47.350	0	687.80	0	3.8440	0	34.1870	0	27.160	0	680.939	0	14.4	4	4.5	4	-1E+10	1	-1E+10	1	-1E+10	1	-1E+10	1	-1E+10	1	-1E+10	1
4902549	51	C	01/05/2022	23:02	-132.188	47.350	0	692.90	0	3.8290	0	34.1910	0	27.165	0	685.979	0	14.0	4	4.4	4	-1E+10	1	-1E+10	1	-1E+10	1	-1E+10	1	-1E+10	1	-1E+10	1
4902549	51	C	01/05/2022	23:02	-132.188	47.350	0	698.10	0	3.8090	0	34.1970	0	27.172	0	691.119	0	13.7	4	4.3	4	-1E+10	1	-1E+10	1	-1E+10	1	-1E+10	1	-1E+10	1	-1E+10	1
4902549	51	C	01/05/2022	23:02	-132.188	47.350	0	703.00	0	3.7950	0	34.2010	0	27.176	0	695.962	0	13.5	4	4.3	4	-1E+10	1	-1E+10	1	-1E+10	1	-1E+10	1	-1E+10	1	-1E+10	1
4902549	51	C	01/05/2022	23:02	-132.188	47.350	0	707.90	0	3.7810	0	34.2040	0	27.180	0	700.804	0	13.4	4	4.2	4	-1E+10	1	-1E+10	1	-1E+10	1	-1E+10	1	-1E+10	1	-1E+10	1
4902549	51	C	01/05/2022	23:02	-132.188	47.350	0	712.70	0	3.7650	0	34.2070	0	27.184	0	705.548	0	13.2	4	4.1	4	-1E+10	1	-1E+10	1	-1E+10	1	-1E+10	1	-1E+10	1	-1E+10	1
4902549	51	C	01/05/2022	23:02	-132.188	47.350	0	717.70	0	3.7550	0	34.2090	0	27.187	0	710.490	0	13.0	4	4.1	4	-1E+10	1	-1E+10	1	-1E+10	1	-1E+10	1	-1E+10	1	-1E+10	1
4902549	51	C	01/05/2022	23:02	-132.188	47.350	0	722.80	0	3.7470	0	34.2120	0	27.190	0	715.530	0	12.8	4	4.0	4	-1E+10	1	-1E+10	1	-1E+10	1	-1E+10	1	-1E+10	1	-1E+10	1
4902549	51	C	01/05/2022	23:02	-132.188	47.350	0	727.80	0	3.7400	0	34.2140	0	27.192	0	720.471	0	12.6	4	4.0	4	-1E+10	1	-1E+10	1	-1E+10	1	-1E+10	1	-1E+10	1	-1E+10	1
4902549	51	C	01/05/2022	23:02	-132.188	47.350	0	732.90	0	3.7340	0	34.2160	0	27.195	0	725.510	0	12.4	4	3.9	4	-1E+10	1	-1E+10	1	-1E+10	1	-1E+10	1	-1E+10	1	-1E+10	1
4902549	51	C	01/05/2022	23:02	-132.188	47.350	0	737.90	0	3.7160	0	34.2190	0	27.199	0	730.451	0	12.1	4	3.8	4	-1E+10	1	-1E+10	1	-1E+10	1	-1E+10	1	-1E+10	1	-1E+10	1
4902549	51	C	01/05/2022	23:02	-132.188	47.350	0	743.00	0	3.6960	0	34.2240	0	27.205	0	735.491	0	11.9	4	3.7	4	-1E+10	1	-1E+10	1	-1E+10	1	-1E+10	1	-1E+10	1	-1E+10	1
4902549	51	C	01/05/2022	23:02	-132.188	47.350	0	747.70	0	3.6850	0	34.2260	0	27.208	0	740.135	0	11.6	4	3.6	4	-1E+10	1	-1E+10	1	-1E+10	1	-1E+10	1	-1E+10	1	-1E+10	1
4902549	51	C	01/05/2022	23:02	-132.188	47.350	0	752.90	0	3.6680	0	34.2310	0	27.213	0	745.273	0	11.3	4	3.6	4	-1E+10	1	-1E+10	1	-1E+10	1	-1E+10	1	-1E+10	1	-1E+10	1
4902549	51	C	01/05/2022	23:02	-132.188	47.350	0	758.20	0	3.6590	0	34.2340	0	27.217	0	750.510	0	11.1	4	3.5	4	-1E+10	1	-1E+10	1	-1E+10	1	-1E+10	1	-1E+10	1	-1E+10	1
4902549	51	C	01/05/2022	23:02	-132.188	47.350	0	763.00	0	3.6530	0	34.2360	0	27.219	0	755.252	0	10.9	4	3.4	4	-1E+10	1	-1E+10	1	-1E+10	1	-1E+10	1	-1E+10	1	-1E+10	1
4902549	51	C	01/05/2022	23:02	-132.188	47.350	0	767.80	0	3.6360	0	34.2410	0	27.224	0	759.995	0	10.7	4	3.3	4	-1E+10	1	-1E+10	1	-1E+10	1	-1E+10	1	-1E+10	1	-1E+10	1
4902549	51	C	01/05/2022	23:02	-132.188	47.350	0	772.50	0	3.6330	0	34.2420	0	27.226	0	764.639	0	10.5	4	3.3	4	-1E+10	1	-1E+10	1	-1E+10	1	-1E+10	1	-1E+10	1	-1E+10	1
4902549	51	C	01/05/2022	23:02	-132.188	47.350	0	777.80	0	3.6220	0	34.2450	0	27.229	0	769.875	0	10.3	4	3.2	4	-1E+10	1	-1E+10	1	-1E+10	1	-1E+10	1	-1E+10	1	-1E+10	1
4902549	51	C	01/05/2022	23:02	-132.188	47.350	0	783.10	0	3.6130	0	34.2480	0	27.232	0	775.111	0	10.1	4	3.2	4	-1E+10	1	-1E+10	1	-1E+10	1	-1E+10	1	-1E+10	1	-1E+10	1
4902549	51	C	01/05/2022	23:02	-132.188	47.350	0	787.80	0	3.6070	0	34.2500	0	27.235	0	779.754	0	9.9	4	3.1	4	-1E+10	1	-1E+10	1	-1E+10	1	-1E+10	1	-1E+10	1	-1E+10	1
4902549	51	C	01/05/2022	23:02	-132.188	47.350	0	792.80	0	3.6000	0	34.2520	0	27.237	0	784.694	0	9.7	4	3.0	4	-1E+10	1	-1E+10	1	-1E+10	1	-1E+10	1	-1E+10	1	-1E+10	1
4902549	51	C	01/05/2022	23:02	-132.188	47.350	0	797.70	0	3.5870	0	34.2550	0	27.241	0	789.535	0	9.5	4	3.0	4	-1E+10	1	-1E+10	1	-1E+10	1	-1E+10	1	-1E+10	1	-1E+10	1
4902549	51	C	01/05/2022	23:02	-132.188	47.350	0	802.70	0	3.5720	0	34.2580	0	27.244	0	794.474	0	9.3	4	2.9	4	-1E+10	1	-1E+10	1	-1E+10	1	-1E+10	1	-1E+10	1	-1E+10	1
4902549	51	C	01/05/2022	23:02	-132.188	47.350	0	807.80	0	3.5520	0	34.2640	0	27.251	0	799.512	0	9.2	4	2.9	4	-1E+10	1	-1E+10	1	-1E+10	1	-1E+10	1	-1E+10	1	-1E+10	1
4902549	51	C	01/05/2022	23:02	-132.188	47.350	0	812.90	0	3.5420	0	34.2660	0	27.254	0	804.550	0	9.0	4	2.8	4	-1E+10	1	-1E+10	1	-1E+10	1	-1E+10	1	-1E+10	1	-1E+10	1
4902549	51	C	01/05/2022	23:02	-132.188	47.350	0	818.00	0	3.5280	0	34.2690	0	27.258	0	809.587	0	8.9	4	2.8	4	-1E+10	1	-1E+10	1	-1E+10	1	-1E+10	1	-1E+10	1	-1E+10	1
4902549	51	C	01/05/2022	23:02	-132.188	47.350	0	823.30	0	3.5110	0	34.2730	0	27.262	0	814.823	0	8.9	4	2.8	4	-1E+10	1	-1E+10	1	-1E+10	1	-1E+10	1	-1E+10	1	-1E+10	1
4902549	51	C	01/05/2022	23:02	-132.188	47.350	0	828.10	0	3.5040	0	34.2750	0	27.265	0	819.564	0	8.8	4	2.7	4	-1E+10	1	-1E+10	1	-1E+10	1	-1E+10	1	-1E+10	1	-1E+10	1
4902549	51	C	01/05/2022	23:02	-132.188	47.350	0	832.80	0	3.4940	0	34.2760	0	27.266	0	824.206	0	8.7	4	2.7	4	-1E+10	1	-1E+10	1	-1E+10	1	-1E+10	1	-1E+10	1	-1E+10	1
4902549	51	C	01/05/2022	23:02	-132.188	47.350	0	837.60	0	3.4840	0	34.2790	0	27.270	0	828.947	0	8.6	4	2.7	4	-1E+10	1	-1E+10	1	-1E+10	1	-1E+10	1	-1E+10	1	-1E+10	1
4902549	51	C	01/05/2022	23:02	-132.188	47.350	0	842.90	0	3.4770	0	34.2810	0	27.272	0	834.182	0	8.5	4	2.7	4	-1E+10	1	-1E+10	1	-1E+10	1	-1E+10	1	-1E+10	1	-1E+10	1
4902549	51	C	01/05/2022	23:02	-132.188	47.350	0	848.20	0	3.4680	0	34.2840	0	27.275	0	839.416	0	8.4	4	2.6	4	-1E+10	1	-1E+10	1	-1E+10	1	-1E+10	1	-1E+10	1	-1E+10	1
4902549	51	C	01/05/2022	23:02	-132.188	47.350	0	852.90	0	3.4600	0	34.2860	0	27.278	0	844.058	0	8.4	4	2.6	4	-1E+10	1	-1E+10	1	-1E+10	1	-1E+10	1	-1E+10	1	-1E+10	1
4902549	51	C	01/05/2022	23:02	-132.188	47.350	0	857.80	0	3.4490	0	34.2880	0	27.281	0	848.897	0	8.4	4	2.6	4	-1E+10	1	-1E+10	1	-1E+10	1	-1E+10	1	-1E+10	1	-1E+10	1
4902549	51	C	01/05/2022	23:02	-132.188	47.350	0	862.70	0	3.4420	0	34.2910	0	27.284	0	853.736	0	8.3	4	2.6	4	-1E+10	1	-1E+10	1	-1E+10	1	-1E+10	1	-1E+10	1	-1E+10	1
4902549	51	C	01/05/2022	23:02	-132.188	47.350	0	867.80	0	3.4360	0	34.2920	0	27.285	0	858.773	0	8.3	4	2.6	4	-1E+10	1	-1E+10	1	-1E+10	1	-1E+10	1	-1E+10	1	-1E+10	1
4902549	51	C	01/05/2022	23:02	-132.188	47.350	0	872.90	0	3.4310	0	34.2930	0	27.286	0	863.809	0	8.3	4	2.6	4	-1E+10	1	-1E+10	1	-1E+10	1	-1E+10	1	-1E+10	1	-1E+10	1
4902549	51	C	01/05/2022	23:02	-132.188	47.350	0	878.00	0	3.4230	0	34.2950	0	27.289	0	868.846	0	8.2	4	2.6	4	-1E+10	1	-1E+10	1	-1E+10	1	-1E+10	1	-1E+10	1	-1E+10	1
4902549	51	C	01/05/2022	23:02	-132.188	47.350	0	883.20	0	3.4170	0	34.2960	0	27.290	0	873.981	0	8.1	4	2.5	4	-1E+10	1	-1E+10	1	-1E+10	1	-1E+10	1	-1E+10	1	-1E+10	1
4902549	51	C	01/05/2022	23:02	-132.188	47.350	0	887.90	0	3.4100	0	34.2980	0	27.292	0	878.622	0	8.1	4	2.5	4	-1E+10	1	-1E+10	1	-1E+10	1	-1E+10	1	-1E+10	1	-1E+10	1
4902549	51	C	01/05/2022	23:02	-132.188	47.350	0	892.60	0	3.4050	0	34.3000	0	27.295	0	883.263	0	8.0	4	2.5	4	-1E+10	1	-1E+10	1	-1E+10	1	-1E+10	1	-1E+10	1	-1E+10	1
4902549	51	C	01/05/2022	23:02	-132.188	47.350	0	897.90	0	3.3970	0	34.3020	0	27.297	0	888.496	0	7.9	4	2.4	4	-1E+10	1	-1E+10	1	-1E+10	1	-1E+10	1	-1E+10	1	-1E+10	1
4902549	51	C	01/05/2022	23:02	-132.188	47.350	0	903.10	0	3.3880	0	34.3050	0	27.300	0	893.630	0	7.7	4	2.4	4	-1E+10	1	-1E+10	1	-1E+10	1	-1E+10	1	-1E+10	1	-1E+10	1
4902549	51	C	01/05/2022	23:02	-132.188	47.350	0	908.00	0	3.3820	0	34.3070	0	27.302	0	898.468	0	7.7	4	2.4	4	-1E+10	1	-1E+10	1	-1E+10	1	-1E+10	1	-1E+10	1	-1E+10	1
4902549	51	C	01/05/2022	23:02	-132.188	47.350	0	912.90	0	3.3700	0	34.3100	0	27.306	0	903.307	0	7.6	4	2.4	4	-1E+10	1	-1E+10	1	-1E+10	1	-1E+10	1	-1E+10	1	-1E+10	1
4902549	51	C	01/05/2022	23:02	-132.188	47.350	0	917.80	0	3.3620	0	34.3120	0	27.308	0	908.144	0	7.6	4	2.4	4	-1E+10	1	-1E+10	1	-1E+10	1	-1E+10	1	-1E+10	1	-1E+10	1
4902549	51	C	01/05/2022	23:02	-132.188	47.350	0	922.80	0	3.3520	0	34.3140	0	27.311	0	913.081	0	7.5	4	2.3	4	-1E+10	1	-1E+10	1	-1E+10	1	-1E+10	1	-1E+10	1	-1E+10	1
4902549	51	C	01/05/2022	23:02	-132.188	47.350	0	927.70	0	3.3390	0	34.3170	0	27.315	0	917.919	0	7.4	4	2.3	4	-1E+10	1	-1E+10	1	-1E+10	1	-1E+10	1	-1E+10	1	-1E+10	1
4902549	51	C	01/05/2022	23:02	-132.188	47.350	0	932.80	0	3.3240	0	34.3210	0	27.319	0	922.953	0	7.4	4	2.3	4	-1E+10	1	-1E+10	1	-1E+10	1	-1E+10	1	-1E+10	1	-1E+10	1
4902549	51	C	01/05/2022	23:02	-132.188	47.350	0	937.80	0	3.3210	0	34.3220	0	27.320	0	927.890	0	7.3	4	2.3	4	-1E+10	1	-1E+10	1	-1E+10	1	-1E+10	1	-1E+10	1	-1E+10	1
4902549	51	C	01/05/2022	23:02	-132.188	47.350	0	942.90	0	3.3130	0	34.3250	0	27.323	0	932.924	0	7.2	4	2.2	4	-1E+10	1	-1E+10	1	-1E+10	1	-1E+10	1	-1E+10	1	-1E+10	1
4902549	51	C	01/05/2022	23:02	-132.188	47.350	0	947.80	0	3.3090	0	34.3250	0	27.324	0	937.762	0	7.1	4	2.2	4	-1E+10	1	-1E+10	1	-1E+10	1	-1E+10	1	-1E+10	1	-1E+10	1
4902549	51	C	01/05/2022	23:02	-132.188	47.350	0	952.80	0	3.3000	0	34.3290	0	27.328	0	942.697	0	7.0	4	2.2	4	-1E+10	1	-1E+10	1	-1E+10	1	-1E+10	1	-1E+10	1	-1E+10	1
4902549	51	C	01/05/2022	23:02	-132.188	47.350	0	957.80	0	3.2970	0	34.3310	0	27.330	0	947.633	0	6.9	4	2.2	4	-1E+10	1	-1E+10	1	-1E+10	1	-1E+10	1	-1E+10	1	-1E+10	1
4902549	51	C	01/05/2022	23:02	-132.188	47.350	0	962.90	0	3.2890	0	34.3330	0	27.332	0	952.667	0	6.8	4	2.1	4	-1E+10	1	-1E+10	1	-1E+10	1	-1E+10	1	-1E+10	1	-1E+10	1
4902549	51	C	01/05/2022	23:02	-132.188	47.350	0	967.90	0	3.2710	0	34.3390	0	27.339	0	957.603	0	6.8	4	2.1	4	-1E+10	1	-1E+10	1	-1E+10	1	-1E+10	1	-1E+10	1	-1E+10	1
4902549	51	C	01/05/2022	23:02	-132.188	47.350	0	972.90	0	3.2600	0	34.3420	0	27.342	0	962.538	0	6.8	4	2.1	4	-1E+10	1	-1E+10	1	-1E+10	1	-1E+10	1	-1E+10	1	-1E+10	1
4902549	51	C	01/05/2022	23:02	-132.188	47.350	0	977.90	0	3.2520	0	34.3430	0	27.344	0	967.473	0	6.8	4	2.1	4	-1E+10	1	-1E+10	1	-1E+10	1	-1E+10	1	-1E+10	1	-1E+10	1
4902549	51	C	01/05/2022	23:02	-132.188	47.350	0	983.00	0	3.2460	0	34.3450	0	27.346	0	972.507	0	6.7	4	2.1	4	-1E+10	1	-1E+10	1	-1E+10	1	-1E+10	1	-1E+10	1	-1E+10	1
4902549	51	C	01/05/2022	23:02	-132.188	47.350	0	988.00	0	3.2430	0	34.3470	0	27.348	0	977.442	0	6.6	4	2.1	4	-1E+10	1	-1E+10	1	-1E+10	1	-1E+10	1	-1E+10	1	-1E+10	1
4902549	51	C	01/05/2022	23:02	-132.188	47.350	0	993.10	0	3.2390	0	34.3480	0	27.349	0	982.476	0	6.6	4	2.1	4	-1E+10	1	-1E+10	1	-1E+10	1	-1E+10	1	-1E+10	1	-1E+10	1
4902549	51	C	01/05/2022	23:02	-132.188	47.350	0	998.20	0	3.2310	0	34.3510	0	27.352	0	987.509	0	6.6	4	2.1	4	-1E+10	1	-1E+10	1	-1E+10	1	-1E+10	1	-1E+10	1	-1E+10	1
4902549	51	C	01/05/2022	23:02	-132.188	47.350	0	1005.40	0	3.2160	0	34.3540	0	27.356	0	994.615	0	6.7	4	2.1	4	-1E+10	1	-1E+10	1	-1E+10	1	-1E+10	1	-1E+10	1	-1E+10	1
4902549	51	C	01/05/2022	23:02	-132.188	47.350	0	1015.00	0	3.1970	0	34.3560	0	27.359	0	1004.089	0	6.9	4	2.1	4	-1E+10	1	-1E+10	1	-1E+10	1	-1E+10	1	-1E+10	1	-1E+10	1
4902549	51	C	01/05/2022	23:02	-132.188	47.350	0	1025.20	0	3.1660	0	34.3590	0	27.365	0	1014.155	0	7.0	4	2.2	4	-1E+10	1	-1E+10	1	-1E+10	1	-1E+10	1	-1E+10	1	-1E+10	1
4902549	51	C	01/05/2022	23:02	-132.188	47.350	0	1035.40	0	3.1530	0	34.3620	0	27.368	0	1024.220	0	6.8	4	2.1	4	-1E+10	1	-1E+10	1	-1E+10	1	-1E+10	1	-1E+10	1	-1E+10	1
4902549	51	C	01/05/2022	23:02	-132.188	47.350	0	1045.70	0	3.1500	0	34.3690	0	27.374	0	1034.383	0	6.7	4	2.1	4	-1E+10	1	-1E+10	1	-1E+10	1	-1E+10	1	-1E+10	1	-1E+10	1
4902549	51	C	01/05/2022	23:02	-132.188	47.350	0	1055.80	0	3.1400	0	34.3740	0	27.379	0	1044.349	0	6.9	4	2.1	4	-1E+10	1	-1E+10	1	-1E+10	1	-1E+10	1	-1E+10	1	-1E+10	1
4902549	51	C	01/05/2022	23:02	-132.188	47.350	0	1065.20	0	3.1050	0	34.3760	0	27.384	0	1053.623	0	7.1	4	2.2	4	-1E+10	1	-1E+10	1	-1E+10	1	-1E+10	1	-1E+10	1	-1E+10	1
4902549	51	C	01/05/2022	23:02	-132.188	47.350	0	1075.10	0	3.0920	0	34.3780	0	27.387	0	1063.390	0	7.1	4	2.2	4	-1E+10	1	-1E+10	1	-1E+10	1	-1E+10	1	-1E+10	1	-1E+10	1
4902549	51	C	01/05/2022	23:02	-132.188	47.350	0	1085.10	0	3.0940	0	34.3830	0	27.391	0	1073.256	0	7.1	4	2.2	4	-1E+10	1	-1E+10	1	-1E+10	1	-1E+10	1	-1E+10	1	-1E+10	1
4902549	51	C	01/05/2022	23:02	-132.188	47.350	0	1095.30	0	3.0570	0	34.3870	0	27.397	0	1083.318	0	7.2	4	2.2	4	-1E+10	1	-1E+10	1	-1E+10	1	-1E+10	1	-1E+10	1	-1E+10	1
4902549	51	C	01/05/2022	23:02	-132.188	47.350	0	1105.60	0	3.0500	0	34.3930	0	27.403	0	1093.479	0	7.3	4	2.2	4	-1E+10	1	-1E+10	1	-1E+10	1	-1E+10	1	-1E+10	1	-1E+10	1
4902549	51	C	01/05/2022	23:02	-132.188	47.350	0	1115.70	0	3.0340	0	34.3950	0	27.406	0	1103.442	0	7.4	4	2.3	4	-1E+10	1	-1E+10	1	-1E+10	1	-1E+10	1	-1E+10	1	-1E+10	1
4902549	51	C	01/05/2022	23:02	-132.188	47.350	0	1125.70	0	3.0140	0	34.3990	0	27.411	0	1113.305	0	7.5	4	2.3	4	-1E+10	1	-1E+10	1	-1E+10	1	-1E+10	1	-1E+10	1	-1E+10	1
4902549	51	C	01/05/2022	23:02	-132.188	47.350	0	1135.50	0	3.0010	0	34.4030	0	27.416	0	1122.971	0	7.6	4	2.3	4	-1E+10	1	-1E+10	1	-1E+10	1	-1E+10	1	-1E+10	1	-1E+10	1
4902549	51	C	01/05/2022	23:02	-132.188	47.350	0	1145.30	0	2.9980	0	34.4060	0	27.418	0	1132.637	0	7.7	4	2.4	4	-1E+10	1	-1E+10	1	-1E+10	1	-1E+10	1	-1E+10	1	-1E+10	1
4902549	51	C	01/05/2022	23:02	-132.188	47.350	0	1155.20	0	2.9740	0	34.4090	0	27.423	0	1142.400	0	7.8	4	2.4	4	-1E+10	1	-1E+10	1	-1E+10	1	-1E+10	1	-1E+10	1	-1E+10	1
4902549	51	C	01/05/2022	23:02	-132.188	47.350	0	1165.40	0	2.9590	0	34.4110	0	27.426	0	1152.459	0	8.0	4	2.5	4	-1E+10	1	-1E+10	1	-1E+10	1	-1E+10	1	-1E+10	1	-1E+10	1
4902549	51	C	01/05/2022	23:02	-132.188	47.350	0	1175.70	0	2.9430	0	34.4140	0	27.430	0	1162.616	0	8.2	4	2.5	4	-1E+10	1	-1E+10	1	-1E+10	1	-1E+10	1	-1E+10	1	-1E+10	1
4902549	51	C	01/05/2022	23:02	-132.188	47.350	0	1185.40	0	2.9240	0	34.4180	0	27.435	0	1172.182	0	8.4	4	2.6	4	-1E+10	1	-1E+10	1	-1E+10	1	-1E+10	1	-1E+10	1	-1E+10	1
4902549	51	C	01/05/2022	23:02	-132.188	47.350	0	1195.50	0	2.9080	0	34.4210	0	27.439	0	1182.140	0	8.5	4	2.6	4	-1E+10	1	-1E+10	1	-1E+10	1	-1E+10	1	-1E+10	1	-1E+10	1
4902549	51	C	01/05/2022	23:02	-132.188	47.350	0	1205.50	0	2.8930	0	34.4230	0	27.442	0	1192.000	0	8.7	4	2.7	4	-1E+10	1	-1E+10	1	-1E+10	1	-1E+10	1	-1E+10	1	-1E+10	1
4902549	51	C	01/05/2022	23:02	-132.188	47.350	0	1215.70	0	2.8720	0	34.4260	0	27.446	0	1202.057	0	8.9	4	2.7	4	-1E+10	1	-1E+10	1	-1E+10	1	-1E+10	1	-1E+10	1	-1E+10	1
4902549	51	C	01/05/2022	23:02	-132.188	47.350	0	1225.40	0	2.8560	0	34.4280	0	27.449	0	1211.620	0	9.1	4	2.8	4	-1E+10	1	-1E+10	1	-1E+10	1	-1E+10	1	-1E+10	1	-1E+10	1
4902549	51	C	01/05/2022	23:02	-132.188	47.350	0	1235.30	0	2.8440	0	34.4300	0	27.452	0	1221.380	0	9.3	4	2.9	4	-1E+10	1	-1E+10	1	-1E+10	1	-1E+10	1	-1E+10	1	-1E+10	1
4902549	51	C	01/05/2022	23:02	-132.188	47.350	0	1245.30	0	2.8230	0	34.4340	0	27.457	0	1231.238	0	9.7	4	3.0	4	-1E+10	1	-1E+10	1	-1E+10	1	-1E+10	1	-1E+10	1	-1E+10	1
4902549	51	C	01/05/2022	23:02	-132.188	47.350	0	1255.40	0	2.8040	0	34.4380	0	27.462	0	1241.195	0	10.0	4	3.1	4	-1E+10	1	-1E+10	1	-1E+10	1	-1E+10	1	-1E+10	1	-1E+10	1
4902549	51	C	01/05/2022	23:02	-132.188	47.350	0	1265.70	0	2.7870	0	34.4420	0	27.466	0	1251.347	0	10.3	4	3.2	4	-1E+10	1	-1E+10	1	-1E+10	1	-1E+10	1	-1E+10	1	-1E+10	1
4902549	51	C	01/05/2022	23:02	-132.188	47.350	0	1275.50	0	2.7740	0	34.4450	0	27.470	0	1261.007	0	10.5	4	3.2	4	-1E+10	1	-1E+10	1	-1E+10	1	-1E+10	1	-1E+10	1	-1E+10	1
4902549	51	C	01/05/2022	23:02	-132.188	47.350	0	1285.60	0	2.7620	0	34.4470	0	27.473	0	1270.962	0	10.7	4	3.3	4	-1E+10	1	-1E+10	1	-1E+10	1	-1E+10	1	-1E+10	1	-1E+10	1
4902549	51	C	01/05/2022	23:02	-132.188	47.350	0	1295.70	0	2.7550	0	34.4490	0	27.475	0	1280.916	0	11.1	4	3.4	4	-1E+10	1	-1E+10	1	-1E+10	1	-1E+10	1	-1E+10	1	-1E+10	1
4902549	51	C	01/05/2022	23:02	-132.188	47.350	0	1305.70	0	2.7400	0	34.4520	0	27.479	0	1290.771	0	11.4	4	3.5	4	-1E+10	1	-1E+10	1	-1E+10	1	-1E+10	1	-1E+10	1	-1E+10	1
4902549	51	C	01/05/2022	23:02	-132.188	47.350	0	1315.40	0	2.7200	0	34.4550	0	27.483	0	1300.330	0	11.8	4	3.6	4	-1E+10	1	-1E+10	1	-1E+10	1	-1E+10	1	-1E+10	1	-1E+10	1
4902549	51	C	01/05/2022	23:02	-132.188	47.350	0	1325.20	0	2.7060	0	34.4580	0	27.487	0	1309.988	0	12.1	4	3.7	4	-1E+10	1	-1E+10	1	-1E+10	1	-1E+10	1	-1E+10	1	-1E+10	1
4902549	51	C	01/05/2022	23:02	-132.188	47.350	0	1335.50	0	2.6900	0	34.4610	0	27.490	0	1320.137	0	12.5	4	3.8	4	-1E+10	1	-1E+10	1	-1E+10	1	-1E+10	1	-1E+10	1	-1E+10	1
4902549	51	C	01/05/2022	23:02	-132.188	47.350	0	1345.70	0	2.6760	0	34.4630	0	27.493	0	1330.188	0	12.8	4	3.9	4	-1E+10	1	-1E+10	1	-1E+10	1	-1E+10	1	-1E+10	1	-1E+10	1
4902549	51	C	01/05/2022	23:02	-132.188	47.350	0	1355.60	0	2.6580	0	34.4660	0	27.497	0	1339.942	0	13.2	4	4.1	4	-1E+10	1	-1E+10	1	-1E+10	1	-1E+10	1	-1E+10	1	-1E+10	1
4902549	51	C	01/05/2022	23:02	-132.188	47.350	0	1365.40	0	2.6340	0	34.4690	0	27.502	0	1349.598	0	13.7	4	4.2	4	-1E+10	1	-1E+10	1	-1E+10	1	-1E+10	1	-1E+10	1	-1E+10	1
4902549	51	C	01/05/2022	23:02	-132.188	47.350	0	1375.40	0	2.6180	0	34.4710	0	27.505	0	1359.450	0	14.0	4	4.3	4	-1E+10	1	-1E+10	1	-1E+10	1	-1E+10	1	-1E+10	1	-1E+10	1
4902549	51	C	01/05/2022	23:02	-132.188	47.350	0	1385.10	0	2.5930	0	34.4740	0	27.509	0	1369.006	0	14.5	4	4.4	4	-1E+10	1	-1E+10	1	-1E+10	1	-1E+10	1	-1E+10	1	-1E+10	1
4902549	51	C	01/05/2022	23:02	-132.188	47.350	0	1394.90	0	2.5780	0	34.4760	0	27.512	0	1378.660	0	14.9	4	4.5	4	-1E+10	1	-1E+10	1	-1E+10	1	-1E+10	1	-1E+10	1	-1E+10	1
4902549	51	C	01/05/2022	23:02	-132.188	47.350	0	1404.90	0	2.5670	0	34.4790	0	27.516	0	1388.510	0	15.2	4	4.6	4	-1E+10	1	-1E+10	1	-1E+10	1	-1E+10	1	-1E+10	1	-1E+10	1
4902549	51	C	01/05/2022	23:02	-132.188	47.350	0	1415.10	0	2.5580	0	34.4800	0	27.517	0	1398.558	0	15.6	4	4.8	4	-1E+10	1	-1E+10	1	-1E+10	1	-1E+10	1	-1E+10	1	-1E+10	1
4902549	51	C	01/05/2022	23:02	-132.188	47.350	0	1425.40	0	2.5450	0	34.4820	0	27.520	0	1408.703	0	16.1	4	4.9	4	-1E+10	1	-1E+10	1	-1E+10	1	-1E+10	1	-1E+10	1	-1E+10	1
4902549	51	C	01/05/2022	23:02	-132.188	47.350	0	1435.30	0	2.5270	0	34.4850	0	27.524	0	1418.454	0	16.8	4	5.1	4	-1E+10	1	-1E+10	1	-1E+10	1	-1E+10	1	-1E+10	1	-1E+10	1
4902549	51	C	01/05/2022	23:02	-132.188	47.350	0	1445.40	0	2.5060	0	34.4890	0	27.529	0	1428.401	0	17.4	4	5.3	4	-1E+10	1	-1E+10	1	-1E+10	1	-1E+10	1	-1E+10	1	-1E+10	1
4902549	51	C	01/05/2022	23:02	-132.188	47.350	0	1455.50	0	2.4930	0	34.4910	0	27.532	0	1438.348	0	17.8	4	5.4	4	-1E+10	1	-1E+10	1	-1E+10	1	-1E+10	1	-1E+10	1	-1E+10	1
4902549	51	C	01/05/2022	23:02	-132.188	47.350	0	1465.50	0	2.4820	0	34.4930	0	27.534	0	1448.196	0	18.3	4	5.6	4	-1E+10	1	-1E+10	1	-1E+10	1	-1E+10	1	-1E+10	1	-1E+10	1
4902549	51	C	01/05/2022	23:02	-132.188	47.350	0	1475.60	0	2.4740	0	34.4960	0	27.538	0	1458.142	0	18.7	4	5.7	4	-1E+10	1	-1E+10	1	-1E+10	1	-1E+10	1	-1E+10	1	-1E+10	1
4902549	51	C	01/05/2022	23:02	-132.188	47.350	0	1485.40	0	2.4450	0	34.4970	0	27.541	0	1467.792	0	19.0	4	5.8	4	-1E+10	1	-1E+10	1	-1E+10	1	-1E+10	1	-1E+10	1	-1E+10	1
4902549	51	C	01/05/2022	23:02	-132.188	47.350	0	1495.50	0	2.4180	0	34.4980	0	27.544	0	1477.737	0	19.3	4	5.9	4	-1E+10	1	-1E+10	1	-1E+10	1	-1E+10	1	-1E+10	1	-1E+10	1
4902549	51	C	01/05/2022	23:02	-132.188	47.350	0	1505.70	0	2.4090	0	34.5000	0	27.546	0	1487.780	0	19.8	4	6.0	4	-1E+10	1	-1E+10	1	-1E+10	1	-1E+10	1	-1E+10	1	-1E+10	1
4902549	51	C	01/05/2022	23:02	-132.188	47.350	0	1515.50	0	2.3960	0	34.5020	0	27.549	0	1497.428	0	20.3	4	6.2	4	-1E+10	1	-1E+10	1	-1E+10	1	-1E+10	1	-1E+10	1	-1E+10	1
4902549	51	C	01/05/2022	23:02	-132.188	47.350	0	1525.50	0	2.3830	0	34.5040	0	27.552	0	1507.273	0	20.8	4	6.3	4	-1E+10	1	-1E+10	1	-1E+10	1	-1E+10	1	-1E+10	1	-1E+10	1
4902549	51	C	01/05/2022	23:02	-132.188	47.350	0	1535.60	0	2.3750	0	34.5060	0	27.554	0	1517.217	0	21.2	4	6.4	4	-1E+10	1	-1E+10	1	-1E+10	1	-1E+10	1	-1E+10	1	-1E+10	1
4902549	51	C	01/05/2022	23:02	-132.188	47.350	0	1545.30	0	2.3580	0	34.5070	0	27.556	0	1526.765	0	21.7	4	6.6	4	-1E+10	1	-1E+10	1	-1E+10	1	-1E+10	1	-1E+10	1	-1E+10	1
4902549	51	C	01/05/2022	23:02	-132.188	47.350	0	1555.20	0	2.3490	0	34.5090	0	27.559	0	1536.511	0	22.4	4	6.8	4	-1E+10	1	-1E+10	1	-1E+10	1	-1E+10	1	-1E+10	1	-1E+10	1
4902549	51	C	01/05/2022	23:02	-132.188	47.350	0	1565.20	0	2.3270	0	34.5130	0	27.564	0	1546.354	0	23.3	4	7.1	4	-1E+10	1	-1E+10	1	-1E+10	1	-1E+10	1	-1E+10	1	-1E+10	1
4902549	51	C	01/05/2022	23:02	-132.188	47.350	0	1575.40	0	2.3120	0	34.5150	0	27.567	0	1556.394	0	23.8	4	7.2	4	-1E+10	1	-1E+10	1	-1E+10	1	-1E+10	1	-1E+10	1	-1E+10	1
4902549	51	C	01/05/2022	23:02	-132.188	47.350	0	1585.60	0	2.3030	0	34.5170	0	27.569	0	1566.433	0	24.2	4	7.3	4	-1E+10	1	-1E+10	1	-1E+10	1	-1E+10	1	-1E+10	1	-1E+10	1
4902549	51	C	01/05/2022	23:02	-132.188	47.350	0	1595.40	0	2.2980	0	34.5180	0	27.570	0	1576.078	0	24.6	4	7.5	4	-1E+10	1	-1E+10	1	-1E+10	1	-1E+10	1	-1E+10	1	-1E+10	1
4902549	51	C	01/05/2022	23:02	-132.188	47.350	0	1605.40	0	2.2890	0	34.5190	0	27.572	0	1585.920	0	25.2	4	7.7	4	-1E+10	1	-1E+10	1	-1E+10	1	-1E+10	1	-1E+10	1	-1E+10	1
4902549	51	C	01/05/2022	23:02	-132.188	47.350	0	1615.20	0	2.2740	0	34.5220	0	27.576	0	1595.564	0	26.0	4	7.9	4	-1E+10	1	-1E+10	1	-1E+10	1	-1E+10	1	-1E+10	1	-1E+10	1
4902549	51	C	01/05/2022	23:02	-132.188	47.350	0	1625.30	0	2.2620	0	34.5240	0	27.578	0	1605.503	0	26.5	4	8.0	4	-1E+10	1	-1E+10	1	-1E+10	1	-1E+10	1	-1E+10	1	-1E+10	1
4902549	51	C	01/05/2022	23:02	-132.188	47.350	0	1635.40	0	2.2530	0	34.5260	0	27.581	0	1615.441	0	27.1	4	8.2	4	-1E+10	1	-1E+10	1	-1E+10	1	-1E+10	1	-1E+10	1	-1E+10	1
4902549	51	C	01/05/2022	23:02	-132.188	47.350	0	1645.50	0	2.2420	0	34.5270	0	27.582	0	1625.379	0	27.7	4	8.4	4	-1E+10	1	-1E+10	1	-1E+10	1	-1E+10	1	-1E+10	1	-1E+10	1
4902549	51	C	01/05/2022	23:02	-132.188	47.350	0	1655.50	0	2.2320	0	34.5290	0	27.585	0	1635.218	0	28.2	4	8.6	4	-1E+10	1	-1E+10	1	-1E+10	1	-1E+10	1	-1E+10	1	-1E+10	1
4902549	51	C	01/05/2022	23:02	-132.188	47.350	0	1665.60	0	2.2210	0	34.5310	0	27.587	0	1645.155	0	28.7	4	8.7	4	-1E+10	1	-1E+10	1	-1E+10	1	-1E+10	1	-1E+10	1	-1E+10	1
4902549	51	C	01/05/2022	23:02	-132.188	47.350	0	1675.40	0	2.2130	0	34.5320	0	27.589	0	1654.797	0	29.4	4	8.9	4	-1E+10	1	-1E+10	1	-1E+10	1	-1E+10	1	-1E+10	1	-1E+10	1
4902549	51	C	01/05/2022	23:02	-132.188	47.350	0	1685.20	0	2.1990	0	34.5350	0	27.592	0	1664.438	0	30.1	4	9.1	4	-1E+10	1	-1E+10	1	-1E+10	1	-1E+10	1	-1E+10	1	-1E+10	1
4902549	51	C	01/05/2022	23:02	-132.188	47.350	0	1695.30	0	2.1880	0	34.5370	0	27.595	0	1674.374	0	30.6	4	9.3	4	-1E+10	1	-1E+10	1	-1E+10	1	-1E+10	1	-1E+10	1	-1E+10	1
4902549	51	C	01/05/2022	23:02	-132.188	47.350	0	1705.40	0	2.1840	0	34.5370	0	27.595	0	1684.309	0	31.0	4	9.4	4	-1E+10	1	-1E+10	1	-1E+10	1	-1E+10	1	-1E+10	1	-1E+10	1
4902549	51	C	01/05/2022	23:02	-132.188	47.350	0	1715.50	0	2.1750	0	34.5390	0	27.598	0	1694.244	0	31.8	4	9.6	4	-1E+10	1	-1E+10	1	-1E+10	1	-1E+10	1	-1E+10	1	-1E+10	1
4902549	51	C	01/05/2022	23:02	-132.188	47.350	0	1725.30	0	2.1610	0	34.5410	0	27.600	0	1703.883	0	32.5	4	9.8	4	-1E+10	1	-1E+10	1	-1E+10	1	-1E+10	1	-1E+10	1	-1E+10	1
4902549	51	C	01/05/2022	23:02	-132.188	47.350	0	1735.30	0	2.1520	0	34.5430	0	27.603	0	1713.718	0	33.3	4	10.1	4	-1E+10	1	-1E+10	1	-1E+10	1	-1E+10	1	-1E+10	1	-1E+10	1
4902549	51	C	01/05/2022	23:02	-132.188	47.350	0	1745.30	0	2.1430	0	34.5450	0	27.605	0	1723.553	0	34.3	4	10.4	4	-1E+10	1	-1E+10	1	-1E+10	1	-1E+10	1	-1E+10	1	-1E+10	1
4902549	51	C	01/05/2022	23:02	-132.188	47.350	0	1755.20	0	2.1290	0	34.5480	0	27.609	0	1733.290	0	35.6	4	10.8	4	-1E+10	1	-1E+10	1	-1E+10	1	-1E+10	1	-1E+10	1	-1E+10	1
4902549	51	C	01/05/2022	23:02	-132.188	47.350	0	1765.30	0	2.1160	0	34.5500	0	27.611	0	1743.222	0	36.5	4	11.0	4	-1E+10	1	-1E+10	1	-1E+10	1	-1E+10	1	-1E+10	1	-1E+10	1
4902549	51	C	01/05/2022	23:02	-132.188	47.350	0	1775.70	0	2.1050	0	34.5520	0	27.614	0	1753.449	0	37.1	4	11.2	4	-1E+10	1	-1E+10	1	-1E+10	1	-1E+10	1	-1E+10	1	-1E+10	1
4902549	51	C	01/05/2022	23:02	-132.188	47.350	0	1785.30	0	2.0970	0	34.5530	0	27.615	0	1762.889	0	37.7	4	11.4	4	-1E+10	1	-1E+10	1	-1E+10	1	-1E+10	1	-1E+10	1	-1E+10	1
4902549	51	C	01/05/2022	23:02	-132.188	47.350	0	1795.20	0	2.0870	0	34.5560	0	27.619	0	1772.623	0	38.6	4	11.6	4	-1E+10	1	-1E+10	1	-1E+10	1	-1E+10	1	-1E+10	1	-1E+10	1
4902549	51	C	01/05/2022	23:02	-132.188	47.350	0	1805.40	0	2.0750	0	34.5580	0	27.621	0	1782.652	0	39.5	4	11.9	4	-1E+10	1	-1E+10	1	-1E+10	1	-1E+10	1	-1E+10	1	-1E+10	1
4902549	51	C	01/05/2022	23:02	-132.188	47.350	0	1815.20	0	2.0670	0	34.5590	0	27.623	0	1792.288	0	40.2	4	12.1	4	-1E+10	1	-1E+10	1	-1E+10	1	-1E+10	1	-1E+10	1	-1E+10	1
4902549	51	C	01/05/2022	23:02	-132.188	47.350	0	1825.20	0	2.0550	0	34.5610	0	27.625	0	1802.119	0	41.0	4	12.4	4	-1E+10	1	-1E+10	1	-1E+10	1	-1E+10	1	-1E+10	1	-1E+10	1
4902549	51	C	01/05/2022	23:02	-132.188	47.350	0	1835.20	0	2.0480	0	34.5630	0	27.628	0	1811.950	0	41.8	4	12.6	4	-1E+10	1	-1E+10	1	-1E+10	1	-1E+10	1	-1E+10	1	-1E+10	1
4902549	51	C	01/05/2022	23:02	-132.188	47.350	0	1845.30	0	2.0390	0	34.5650	0	27.630	0	1821.879	0	42.4	4	12.8	4	-1E+10	1	-1E+10	1	-1E+10	1	-1E+10	1	-1E+10	1	-1E+10	1
4902549	51	C	01/05/2022	23:02	-132.188	47.350	0	1855.30	0	2.0290	0	34.5660	0	27.631	0	1831.709	0	43.0	4	13.0	4	-1E+10	1	-1E+10	1	-1E+10	1	-1E+10	1	-1E+10	1	-1E+10	1
4902549	51	C	01/05/2022	23:02	-132.188	47.350	0	1865.20	0	2.0250	0	34.5670	0	27.633	0	1841.440	0	43.8	4	13.2	4	-1E+10	1	-1E+10	1	-1E+10	1	-1E+10	1	-1E+10	1	-1E+10	1
4902549	51	C	01/05/2022	23:02	-132.188	47.350	0	1875.40	0	2.0160	0	34.5690	0	27.635	0	1851.466	0	44.8	4	13.5	4	-1E+10	1	-1E+10	1	-1E+10	1	-1E+10	1	-1E+10	1	-1E+10	1
4902549	51	C	01/05/2022	23:02	-132.188	47.350	0	1885.60	0	2.0050	0	34.5710	0	27.638	0	1861.491	0	45.6	4	13.7	4	-1E+10	1	-1E+10	1	-1E+10	1	-1E+10	1	-1E+10	1	-1E+10	1
4902549	51	C	01/05/2022	23:02	-132.188	47.350	0	1895.20	0	1.9970	0	34.5730	0	27.640	0	1870.926	0	46.4	4	14.0	4	-1E+10	1	-1E+10	1	-1E+10	1	-1E+10	1	-1E+10	1	-1E+10	1
4902549	51	C	01/05/2022	23:02	-132.188	47.350	0	1905.40	0	1.9860	0	34.5750	0	27.642	0	1880.950	0	47.2	4	14.2	4	-1E+10	1	-1E+10	1	-1E+10	1	-1E+10	1	-1E+10	1	-1E+10	1
4902549	51	C	01/05/2022	23:02	-132.188	47.350	0	1915.80	0	1.9770	0	34.5760	0	27.644	0	1891.171	0	48.0	4	14.4	4	-1E+10	1	-1E+10	1	-1E+10	1	-1E+10	1	-1E+10	1	-1E+10	1
4902549	51	C	01/05/2022	23:02	-132.188	47.350	0	1925.80	0	1.9700	0	34.5780	0	27.646	0	1900.997	0	48.5	4	14.6	4	-1E+10	1	-1E+10	1	-1E+10	1	-1E+10	1	-1E+10	1	-1E+10	1
4902549	51	C	01/05/2022	23:02	-132.188	47.350	0	1935.40	0	1.9640	0	34.5790	0	27.647	0	1910.431	0	49.0	4	14.8	4	-1E+10	1	-1E+10	1	-1E+10	1	-1E+10	1	-1E+10	1	-1E+10	1
4902549	51	C	01/05/2022	23:02	-132.188	47.350	0	1945.00	0	1.9590	0	34.5800	0	27.649	0	1919.864	0	49.7	4	15.0	4	-1E+10	1	-1E+10	1	-1E+10	1	-1E+10	1	-1E+10	1	-1E+10	1
4902549	51	C	01/05/2022	23:02	-132.188	47.350	0	1955.20	0	1.9520	0	34.5820	0	27.651	0	1929.886	0	50.2	4	15.1	4	-1E+10	1	-1E+10	1	-1E+10	1	-1E+10	1	-1E+10	1	-1E+10	1
4902549	51	C	01/05/2022	23:02	-132.188	47.350	0	1965.20	0	1.9480	0	34.5820	0	27.651	0	1939.711	0	50.7	4	15.3	4	-1E+10	1	-1E+10	1	-1E+10	1	-1E+10	1	-1E+10	1	-1E+10	1
4902549	51	C	01/05/2022	23:02	-132.188	47.350	0	1975.30	0	1.9420	0	34.5830	0	27.653	0	1949.634	0	51.0	4	15.4	4	-1E+10	1	-1E+10	1	-1E+10	1	-1E+10	1	-1E+10	1	-1E+10	1
4902549	51	C	01/05/2022	23:02	-132.188	47.350	0	1985.50	0	1.9370	0	34.5840	0	27.654	0	1959.654	0	51.3	4	15.5	4	-1E+10	1	-1E+10	1	-1E+10	1	-1E+10	1	-1E+10	1	-1E+10	1
4902549	51	C	01/05/2022	23:02	-132.188	47.350	0	1995.60	0	1.9320	0	34.5850	0	27.655	0	1969.576	0	51.8	4	15.6	4	-1E+10	1	-1E+10	1	-1E+10	1	-1E+10	1	-1E+10	1	-1E+10	1
4902549	51	C	01/05/2022	23:02	-132.188	47.350	0	2005.80	0	1.9240	0	34.5870	0	27.657	0	1979.596	0	52.2	4	15.7	4	-1E+10	1	-1E+10	1	-1E+10	1	-1E+10	1	-1E+10	1	-1E+10	1
4902549	51	C	01/05/2022	23:02	-132.188	47.350	0	2011.50	0	1.9210	0	34.5870	0	27.658	0	1985.195	0	51.8	4	15.6	4	-1E+10	1	-1E+10	1	-1E+10	1	-1E+10	1	-1E+10	1	-1E+10	1
4902549	51	C	01/05/2022	23:02	-132.188	47.350	0																										
4902549	52	C	01/16/2022	03:59	-132.113	47.451	0	0.50	0	7.9960	0	32.3390	0	25.185	0	0.496	0	282.4	4	96.5	4	-1E+10	1	-1E+10	1	-1E+10	1	-1E+10	1	-1E+10	1	-1E+10	1
4902549	52	C	01/16/2022	03:59	-132.113	47.451	0	0.60	0	7.9930	0	32.3410	0	25.187	0	0.595	0	282.4	4	96.5	4	-1E+10	1	-1E+10	1	-1E+10	1	-1E+10	1	-1E+10	1	-1E+10	1
4902549	52	C	01/16/2022	03:59	-132.113	47.451	0	0.80	0	7.9980	0	32.3340	0	25.181	0	0.793	0	275.2	4	94.1	4	-1E+10	1	-1E+10	1	-1E+10	1	-1E+10	1	-1E+10	1	-1E+10	1
4902549	52	C	01/16/2022	03:59	-132.113	47.451	0	1.10	0	7.9985	0	32.3338	0	25.181	0	1.091	0	275.2	4	94.1	4	-1E+10	1	-1E+10	1	-1E+10	1	-1E+10	1	-1E+10	1	-1E+10	1
4902549	52	C	01/16/2022	03:59	-132.113	47.451	0	2.10	0	8.0000	0	32.3330	0	25.180	0	2.082	0	275.1	4	94.0	4	-1E+10	1	-1E+10	1	-1E+10	1	-1E+10	1	-1E+10	1	-1E+10	1
4902549	52	C	01/16/2022	03:59	-132.113	47.451	0	2.80	0	7.9970	0	32.3350	0	25.182	0	2.777	0	275.1	4	94.0	4	-1E+10	1	-1E+10	1	-1E+10	1	-1E+10	1	-1E+10	1	-1E+10	1
4902549	52	C	01/16/2022	03:59	-132.113	47.451	0	3.90	0	7.9970	0	32.3370	0	25.184	0	3.867	0	275.1	4	94.0	4	-1E+10	1	-1E+10	1	-1E+10	1	-1E+10	1	-1E+10	1	-1E+10	1
4902549	52	C	01/16/2022	03:59	-132.113	47.451	0	5.00	0	7.9980	0	32.3370	0	25.184	0	4.958	0	275.1	4	94.0	4	-1E+10	1	-1E+10	1	-1E+10	1	-1E+10	1	-1E+10	1	-1E+10	1
4902549	52	C	01/16/2022	03:59	-132.113	47.451	0	6.10	0	7.9970	0	32.3370	0	25.184	0	6.049	0	275.0	4	94.0	4	-1E+10	1	-1E+10	1	-1E+10	1	-1E+10	1	-1E+10	1	-1E+10	1
4902549	52	C	01/16/2022	03:59	-132.113	47.451	0	6.80	0	7.9950	0	32.3370	0	25.184	0	6.743	0	274.9	4	94.0	4	-1E+10	1	-1E+10	1	-1E+10	1	-1E+10	1	-1E+10	1	-1E+10	1
4902549	52	C	01/16/2022	03:59	-132.113	47.451	0	7.80	0	7.9940	0	32.3370	0	25.184	0	7.735	0	274.9	4	93.9	4	-1E+10	1	-1E+10	1	-1E+10	1	-1E+10	1	-1E+10	1	-1E+10	1
4902549	52	C	01/16/2022	03:59	-132.113	47.451	0	8.90	0	7.9900	0	32.3370	0	25.185	0	8.826	0	274.8	4	93.9	4	-1E+10	1	-1E+10	1	-1E+10	1	-1E+10	1	-1E+10	1	-1E+10	1
4902549	52	C	01/16/2022	03:59	-132.113	47.451	0	10.10	0	7.9880	0	32.3370	0	25.185	0	10.016	0	274.9	4	93.9	4	-1E+10	1	-1E+10	1	-1E+10	1	-1E+10	1	-1E+10	1	-1E+10	1
4902549	52	C	01/16/2022	03:59	-132.113	47.451	0	11.00	0	7.9900	0	32.3380	0	25.186	0	10.908	0	274.7	4	93.9	4	-1E+10	1	-1E+10	1	-1E+10	1	-1E+10	1	-1E+10	1	-1E+10	1
4902549	52	C	01/16/2022	03:59	-132.113	47.451	0	11.90	0	7.9970	0	32.3380	0	25.185	0	11.800	0	274.7	4	93.9	4	-1E+10	1	-1E+10	1	-1E+10	1	-1E+10	1	-1E+10	1	-1E+10	1
4902549	52	C	01/16/2022	03:59	-132.113	47.451	0	13.10	0	7.9930	0	32.3370	0	25.184	0	12.990	0	274.6	4	93.9	4	-1E+10	1	-1E+10	1	-1E+10	1	-1E+10	1	-1E+10	1	-1E+10	1
4902549	52	C	01/16/2022	03:59	-132.113	47.451	0	14.00	0	7.9860	0	32.3380	0	25.186	0	13.883	0	274.5	4	93.8	4	-1E+10	1	-1E+10	1	-1E+10	1	-1E+10	1	-1E+10	1	-1E+10	1
4902549	52	C	01/16/2022	03:59	-132.113	47.451	0	14.90	0	7.9910	0	32.3380	0	25.186	0	14.775	0	274.6	4	93.8	4	-1E+10	1	-1E+10	1	-1E+10	1	-1E+10	1	-1E+10	1	-1E+10	1
4902549	52	C	01/16/2022	03:59	-132.113	47.451	0	16.00	0	7.9840	0	32.3390	0	25.187	0	15.866	0	274.4	4	93.8	4	-1E+10	1	-1E+10	1	-1E+10	1	-1E+10	1	-1E+10	1	-1E+10	1
4902549	52	C	01/16/2022	03:59	-132.113	47.451	0	17.00	0	7.9820	0	32.3380	0	25.187	0	16.858	0	274.5	4	93.8	4	-1E+10	1	-1E+10	1	-1E+10	1	-1E+10	1	-1E+10	1	-1E+10	1
4902549	52	C	01/16/2022	03:59	-132.113	47.451	0	18.00	0	7.9850	0	32.3370	0	25.186	0	17.849	0	274.2	4	93.7	4	-1E+10	1	-1E+10	1	-1E+10	1	-1E+10	1	-1E+10	1	-1E+10	1
4902549	52	C	01/16/2022	03:59	-132.113	47.451	0	18.90	0	7.9840	0	32.3370	0	25.186	0	18.741	0	274.1	4	93.7	4	-1E+10	1	-1E+10	1	-1E+10	1	-1E+10	1	-1E+10	1	-1E+10	1
4902549	52	C	01/16/2022	03:59	-132.113	47.451	0	19.70	0	7.9750	0	32.3370	0	25.187	0	19.535	0	274.2	4	93.7	4	-1E+10	1	-1E+10	1	-1E+10	1	-1E+10	1	-1E+10	1	-1E+10	1
4902549	52	C	01/16/2022	03:59	-132.113	47.451	0	20.70	0	7.9620	0	32.3380	0	25.190	0	20.526	0	274.2	4	93.7	4	-1E+10	1	-1E+10	1	-1E+10	1	-1E+10	1	-1E+10	1	-1E+10	1
4902549	52	C	01/16/2022	03:59	-132.113	47.451	0	21.80	0	7.9620	0	32.3380	0	25.190	0	21.617	0	274.2	4	93.7	4	-1E+10	1	-1E+10	1	-1E+10	1	-1E+10	1	-1E+10	1	-1E+10	1
4902549	52	C	01/16/2022	03:59	-132.113	47.451	0	22.90	0	7.9630	0	32.3380	0	25.190	0	22.708	0	274.2	4	93.7	4	-1E+10	1	-1E+10	1	-1E+10	1	-1E+10	1	-1E+10	1	-1E+10	1
4902549	52	C	01/16/2022	03:59	-132.113	47.451	0	23.90	0	7.9630	0	32.3380	0	25.190	0	23.699	0	274.2	4	93.7	4	-1E+10	1	-1E+10	1	-1E+10	1	-1E+10	1	-1E+10	1	-1E+10	1
4902549	52	C	01/16/2022	03:59	-132.113	47.451	0	25.00	0	7.9620	0	32.3380	0	25.190	0	24.790	0	274.2	4	93.6	4	-1E+10	1	-1E+10	1	-1E+10	1	-1E+10	1	-1E+10	1	-1E+10	1
4902549	52	C	01/16/2022	03:59	-132.113	47.451	0	26.00	0	7.9620	0	32.3380	0	25.190	0	25.781	0	274.1	4	93.6	4	-1E+10	1	-1E+10	1	-1E+10	1	-1E+10	1	-1E+10	1	-1E+10	1
4902549	52	C	01/16/2022	03:59	-132.113	47.451	0	27.10	0	7.9620	0	32.3380	0	25.190	0	26.872	0	274.1	4	93.6	4	-1E+10	1	-1E+10	1	-1E+10	1	-1E+10	1	-1E+10	1	-1E+10	1
4902549	52	C	01/16/2022	03:59	-132.113	47.451	0	27.90	0	7.9620	0	32.3380	0	25.190	0	27.665	0	274.1	4	93.6	4	-1E+10	1	-1E+10	1	-1E+10	1	-1E+10	1	-1E+10	1	-1E+10	1
4902549	52	C	01/16/2022	03:59	-132.113	47.451	0	28.70	0	7.9620	0	32.3380	0	25.190	0	28.459	0	274.2	4	93.6	4	-1E+10	1	-1E+10	1	-1E+10	1	-1E+10	1	-1E+10	1	-1E+10	1
4902549	52	C	01/16/2022	03:59	-132.113	47.451	0	29.80	0	7.9620	0	32.3380	0	25.190	0	29.549	0	274.1	4	93.6	4	-1E+10	1	-1E+10	1	-1E+10	1	-1E+10	1	-1E+10	1	-1E+10	1
4902549	52	C	01/16/2022	03:59	-132.113	47.451	0	30.90	0	7.9620	0	32.3380	0	25.190	0	30.640	0	274.1	4	93.6	4	-1E+10	1	-1E+10	1	-1E+10	1	-1E+10	1	-1E+10	1	-1E+10	1
4902549	52	C	01/16/2022	03:59	-132.113	47.451	0	32.00	0	7.9620	0	32.3380	0	25.190	0	31.731	0	274.0	4	93.6	4	-1E+10	1	-1E+10	1	-1E+10	1	-1E+10	1	-1E+10	1	-1E+10	1
4902549	52	C	01/16/2022	03:59	-132.113	47.451	0	33.10	0	7.9620	0	32.3380	0	25.190	0	32.821	0	274.0	4	93.6	4	-1E+10	1	-1E+10	1	-1E+10	1	-1E+10	1	-1E+10	1	-1E+10	1
4902549	52	C	01/16/2022	03:59	-132.113	47.451	0	34.00	0	7.9630	0	32.3380	0	25.190	0	33.714	0	274.0	4	93.6	4	-1E+10	1	-1E+10	1	-1E+10	1	-1E+10	1	-1E+10	1	-1E+10	1
4902549	52	C	01/16/2022	03:59	-132.113	47.451	0	34.80	0	7.9630	0	32.3380	0	25.190	0	34.507	0	274.0	4	93.6	4	-1E+10	1	-1E+10	1	-1E+10	1	-1E+10	1	-1E+10	1	-1E+10	1
4902549	52	C	01/16/2022	03:59	-132.113	47.451	0	35.90	0	7.9630	0	32.3380	0	25.190	0	35.597	0	274.0	4	93.6	4	-1E+10	1	-1E+10	1	-1E+10	1	-1E+10	1	-1E+10	1	-1E+10	1
4902549	52	C	01/16/2022	03:59	-132.113	47.451	0	37.00	0	7.9630	0	32.3380	0	25.190	0	36.688	0	274.0	4	93.6	4	-1E+10	1	-1E+10	1	-1E+10	1	-1E+10	1	-1E+10	1	-1E+10	1
4902549	52	C	01/16/2022	03:59	-132.113	47.451	0	38.10	0	7.9620	0	32.3380	0	25.190	0	37.779	0	273.9	4	93.6	4	-1E+10	1	-1E+10	1	-1E+10	1	-1E+10	1	-1E+10	1	-1E+10	1
4902549	52	C	01/16/2022	03:59	-132.113	47.451	0	38.90	0	7.9620	0	32.3380	0	25.190	0	38.572	0	273.9	4	93.6	4	-1E+10	1	-1E+10	1	-1E+10	1	-1E+10	1	-1E+10	1	-1E+10	1
4902549	52	C	01/16/2022	03:59	-132.113	47.451	0	39.70	0	7.9620	0	32.3380	0	25.190	0	39.365	0	273.9	4	93.5	4	-1E+10	1	-1E+10	1	-1E+10	1	-1E+10	1	-1E+10	1	-1E+10	1
4902549	52	C	01/16/2022	03:59	-132.113	47.451	0	40.90	0	7.9620	0	32.3380	0	25.190	0	40.555	0	273.8	4	93.5	4	-1E+10	1	-1E+10	1	-1E+10	1	-1E+10	1	-1E+10	1	-1E+10	1
4902549	52	C	01/16/2022	03:59	-132.113	47.451	0	42.00	0	7.9620	0	32.3380	0	25.190	0	41.645	0	273.7	4	93.5	4	-1E+10	1	-1E+10	1	-1E+10	1	-1E+10	1	-1E+10	1	-1E+10	1
4902549	52	C	01/16/2022	03:59	-132.113	47.451	0	42.90	0	7.9620	0	32.3380	0	25.190	0	42.538	0	273.7	4	93.5	4	-1E+10	1	-1E+10	1	-1E+10	1	-1E+10	1	-1E+10	1	-1E+10	1
4902549	52	C	01/16/2022	03:59	-132.113	47.451	0	43.70	0	7.9620	0	32.3380	0	25.190	0	43.331	0	273.7	4	93.5	4	-1E+10	1	-1E+10	1	-1E+10	1	-1E+10	1	-1E+10	1	-1E+10	1
4902549	52	C	01/16/2022	03:59	-132.113	47.451	0	44.80	0	7.9630	0	32.3380	0	25.190	0	44.421	0	273.7	4	93.5	4	-1E+10	1	-1E+10	1	-1E+10	1	-1E+10	1	-1E+10	1	-1E+10	1
4902549	52	C	01/16/2022	03:59	-132.113	47.451	0	46.00	0	7.9630	0	32.3380	0	25.190	0	45.611	0	273.5	4	93.4	4	-1E+10	1	-1E+10	1	-1E+10	1	-1E+10	1	-1E+10	1	-1E+10	1
4902549	52	C	01/16/2022	03:59	-132.113	47.451	0	46.90	0	7.9630	0	32.3380	0	25.190	0	46.504	0	273.6	4	93.4	4	-1E+10	1	-1E+10	1	-1E+10	1	-1E+10	1	-1E+10	1	-1E+10	1
4902549	52	C	01/16/2022	03:59	-132.113	47.451	0	47.70	0	7.9620	0	32.3380	0	25.190	0	47.297	0	273.5	4	93.4	4	-1E+10	1	-1E+10	1	-1E+10	1	-1E+10	1	-1E+10	1	-1E+10	1
4902549	52	C	01/16/2022	03:59	-132.113	47.451	0	48.90	0	7.9630	0	32.3380	0	25.190	0	48.486	0	273.4	4	93.4	4	-1E+10	1	-1E+10	1	-1E+10	1	-1E+10	1	-1E+10	1	-1E+10	1
4902549	52	C	01/16/2022	03:59	-132.113	47.451	0	50.00	0	7.9630	0	32.3380	0	25.190	0	49.577	0	273.3	4	93.3	4	-1E+10	1	-1E+10	1	-1E+10	1	-1E+10	1	-1E+10	1	-1E+10	1
4902549	52	C	01/16/2022	03:59	-132.113	47.451	0	50.90	0	7.9640	0	32.3390	0	25.191	0	50.469	0	273.1	4	93.3	4	-1E+10	1	-1E+10	1	-1E+10	1	-1E+10	1	-1E+10	1	-1E+10	1
4902549	52	C	01/16/2022	03:59	-132.113	47.451	0	51.70	0	7.9640	0	32.3390	0	25.191	0	51.262	0	273.0	4	93.2	4	-1E+10	1	-1E+10	1	-1E+10	1	-1E+10	1	-1E+10	1	-1E+10	1
4902549	52	C	01/16/2022	03:59	-132.113	47.451	0	52.90	0	7.9670	0	32.3390	0	25.190	0	52.452	0	273.0	4	93.3	4	-1E+10	1	-1E+10	1	-1E+10	1	-1E+10	1	-1E+10	1	-1E+10	1
4902549	52	C	01/16/2022	03:59	-132.113	47.451	0	54.00	0	7.9690	0	32.3400	0	25.191	0	53.543	0	272.8	4	93.2	4	-1E+10	1	-1E+10	1	-1E+10	1	-1E+10	1	-1E+10	1	-1E+10	1
4902549	52	C	01/16/2022	03:59	-132.113	47.451	0	55.10	0	7.9710	0	32.3400	0	25.191	0	54.633	0	272.6	4	93.1	4	-1E+10	1	-1E+10	1	-1E+10	1	-1E+10	1	-1E+10	1	-1E+10	1
4902549	52	C	01/16/2022	03:59	-132.113	47.451	0	56.00	0	7.9720	0	32.3400	0	25.190	0	55.525	0	272.6	4	93.1	4	-1E+10	1	-1E+10	1	-1E+10	1	-1E+10	1	-1E+10	1	-1E+10	1
4902549	52	C	01/16/2022	03:59	-132.113	47.451	0	56.80	0	7.9730	0	32.3410	0	25.191	0	56.318	0	272.5	4	93.1	4	-1E+10	1	-1E+10	1	-1E+10	1	-1E+10	1	-1E+10	1	-1E+10	1
4902549	52	C	01/16/2022	03:59	-132.113	47.451	0	57.90	0	7.9750	0	32.3420	0	25.192	0	57.409	0	272.3	4	93.1	4	-1E+10	1	-1E+10	1	-1E+10	1	-1E+10	1	-1E+10	1	-1E+10	1
4902549	52	C	01/16/2022	03:59	-132.113	47.451	0	59.00	0	7.9750	0	32.3420	0	25.192	0	58.499	0	272.3	4	93.0	4	-1E+10	1	-1E+10	1	-1E+10	1	-1E+10	1	-1E+10	1	-1E+10	1
4902549	52	C	01/16/2022	03:59	-132.113	47.451	0	60.10	0	7.9760	0	32.3430	0	25.192	0	59.590	0	272.0	4	93.0	4	-1E+10	1	-1E+10	1	-1E+10	1	-1E+10	1	-1E+10	1	-1E+10	1
4902549	52	C	01/16/2022	03:59	-132.113	47.451	0	61.00	0	7.9760	0	32.3430	0	25.192	0	60.482	0	272.0	4	92.9	4	-1E+10	1	-1E+10	1	-1E+10	1	-1E+10	1	-1E+10	1	-1E+10	1
4902549	52	C	01/16/2022	03:59	-132.113	47.451	0	61.80	0	7.9750	0	32.3440	0	25.193	0	61.275	0	272.0	4	92.9	4	-1E+10	1	-1E+10	1	-1E+10	1	-1E+10	1	-1E+10	1	-1E+10	1
4902549	52	C	01/16/2022	03:59	-132.113	47.451	0	62.80	0	7.9750	0	32.3440	0	25.193	0	62.267	0	271.8	4	92.9	4	-1E+10	1	-1E+10	1	-1E+10	1	-1E+10	1	-1E+10	1	-1E+10	1
4902549	52	C	01/16/2022	03:59	-132.113	47.451	0	63.80	0	7.9740	0	32.3450	0	25.194	0	63.258	0	271.8	4	92.9	4	-1E+10	1	-1E+10	1	-1E+10	1	-1E+10	1	-1E+10	1	-1E+10	1
4902549	52	C	01/16/2022	03:59	-132.113	47.451	0	64.80	0	7.9740	0	32.3450	0	25.194	0	64.249	0	271.6	4	92.8	4	-1E+10	1	-1E+10	1	-1E+10	1	-1E+10	1	-1E+10	1	-1E+10	1
4902549	52	C	01/16/2022	03:59	-132.113	47.451	0	65.70	0	7.9740	0	32.3460	0	25.195	0	65.142	0	271.6	4	92.8	4	-1E+10	1	-1E+10	1	-1E+10	1	-1E+10	1	-1E+10	1	-1E+10	1
4902549	52	C	01/16/2022	03:59	-132.113	47.451	0	66.80	0	7.9740	0	32.3460	0	25.195	0	66.232	0	271.4	4	92.7	4	-1E+10	1	-1E+10	1	-1E+10	1	-1E+10	1	-1E+10	1	-1E+10	1
4902549	52	C	01/16/2022	03:59	-132.113	47.451	0	67.90	0	7.9740	0	32.3460	0	25.195	0	67.323	0	271.3	4	92.7	4	-1E+10	1	-1E+10	1	-1E+10	1	-1E+10	1	-1E+10	1	-1E+10	1
4902549	52	C	01/16/2022	03:59	-132.113	47.451	0	69.00	0	7.9700	0	32.3470	0	25.196	0	68.413	0	271.1	4	92.6	4	-1E+10	1	-1E+10	1	-1E+10	1	-1E+10	1	-1E+10	1	-1E+10	1
4902549	52	C	01/16/2022	03:59	-132.113	47.451	0	70.00	0	7.9680	0	32.3470	0	25.197	0	69.404	0	271.1	4	92.6	4	-1E+10	1	-1E+10	1	-1E+10	1	-1E+10	1	-1E+10	1	-1E+10	1
4902549	52	C	01/16/2022	03:59	-132.113	47.451	0	71.10	0	7.9660	0	32.3470	0	25.197	0	70.495	0	270.9	4	92.5	4	-1E+10	1	-1E+10	1	-1E+10	1	-1E+10	1	-1E+10	1	-1E+10	1
4902549	52	C	01/16/2022	03:59	-132.113	47.451	0	72.10	0	7.9670	0	32.3470	0	25.197	0	71.486	0	270.8	4	92.5	4	-1E+10	1	-1E+10	1	-1E+10	1	-1E+10	1	-1E+10	1	-1E+10	1
4902549	52	C	01/16/2022	03:59	-132.113	47.451	0	73.00	0	7.9680	0	32.3470	0	25.197	0	72.378	0	270.6	4	92.4	4	-1E+10	1	-1E+10	1	-1E+10	1	-1E+10	1	-1E+10	1	-1E+10	1
4902549	52	C	01/16/2022	03:59	-132.113	47.451	0	73.70	0	7.9630	0	32.3480	0	25.198	0	73.072	0	270.5	4	92.4	4	-1E+10	1	-1E+10	1	-1E+10	1	-1E+10	1	-1E+10	1	-1E+10	1
4902549	52	C	01/16/2022	03:59	-132.113	47.451	0	74.80	0	7.9610	0	32.3480	0	25.199	0	74.163	0	270.4	4	92.4	4	-1E+10	1	-1E+10	1	-1E+10	1	-1E+10	1	-1E+10	1	-1E+10	1
4902549	52	C	01/16/2022	03:59	-132.113	47.451	0	75.90	0	7.9600	0	32.3470	0	25.198	0	75.253	0	270.1	4	92.3	4	-1E+10	1	-1E+10	1	-1E+10	1	-1E+10	1	-1E+10	1	-1E+10	1
4902549	52	C	01/16/2022	03:59	-132.113	47.451	0	76.90	0	7.9580	0	32.3480	0	25.199	0	76.244	0	269.9	4	92.2	4	-1E+10	1	-1E+10	1	-1E+10	1	-1E+10	1	-1E+10	1	-1E+10	1
4902549	52	C	01/16/2022	03:59	-132.113	47.451	0	77.90	0	7.9560	0	32.3480	0	25.199	0	77.236	0	269.6	4	92.1	4	-1E+10	1	-1E+10	1	-1E+10	1	-1E+10	1	-1E+10	1	-1E+10	1
4902549	52	C	01/16/2022	03:59	-132.113	47.451	0	78.90	0	7.9580	0	32.3480	0	25.199	0	78.227	0	269.3	4	92.0	4	-1E+10	1	-1E+10	1	-1E+10	1	-1E+10	1	-1E+10	1	-1E+10	1
4902549	52	C	01/16/2022	03:59	-132.113	47.451	0	80.00	0	7.9570	0	32.3480	0	25.199	0	79.317	0	269.0	4	91.9	4	-1E+10	1	-1E+10	1	-1E+10	1	-1E+10	1	-1E+10	1	-1E+10	1
4902549	52	C	01/16/2022	03:59	-132.113	47.451	0	81.10	0	7.9560	0	32.3480	0	25.199	0	80.408	0	268.5	4	91.7	4	-1E+10	1	-1E+10	1	-1E+10	1	-1E+10	1	-1E+10	1	-1E+10	1
4902549	52	C	01/16/2022	03:59	-132.113	47.451	0	82.00	0	7.9560	0	32.3480	0	25.199	0	81.300	0	268.2	4	91.6	4	-1E+10	1	-1E+10	1	-1E+10	1	-1E+10	1	-1E+10	1	-1E+10	1
4902549	52	C	01/16/2022	03:59	-132.113	47.451	0	82.90	0	7.9480	0	32.3480	0	25.201	0	82.192	0	274.6	4	93.8	4	-1E+10	1	-1E+10	1	-1E+10	1	-1E+10	1	-1E+10	1	-1E+10	1
4902549	52	C	01/16/2022	03:59	-132.113	47.451	0	84.10	0	7.9380	0	32.3490	0	25.203	0	83.381	0	274.1	4	93.6	4	-1E+10	1	-1E+10	1	-1E+10	1	-1E+10	1	-1E+10	1	-1E+10	1
4902549	52	C	01/16/2022	03:59	-132.113	47.451	0	85.00	0	7.9330	0	32.3500	0	25.204	0	84.274	0	273.6	4	93.4	4	-1E+10	1	-1E+10	1	-1E+10	1	-1E+10	1	-1E+10	1	-1E+10	1
4902549	52	C	01/16/2022	03:59	-132.113	47.451	0	85.90	0	7.9290	0	32.3500	0	25.205	0	85.166	0	273.0	4	93.2	4	-1E+10	1	-1E+10	1	-1E+10	1	-1E+10	1	-1E+10	1	-1E+10	1
4902549	52	C	01/16/2022	03:59	-132.113	47.451	0	86.90	0	7.9270	0	32.3510	0	25.206	0	86.157	0	272.3	4	92.9	4	-1E+10	1	-1E+10	1	-1E+10	1	-1E+10	1	-1E+10	1	-1E+10	1
4902549	52	C	01/16/2022	03:59	-132.113	47.451	0	87.80	0	7.9220	0	32.3520	0	25.207	0	87.049	0	271.6	4	92.7	4	-1E+10	1	-1E+10	1	-1E+10	1	-1E+10	1	-1E+10	1	-1E+10	1
4902549	52	C	01/16/2022	03:59	-132.113	47.451	0	89.00	0	7.9190	0	32.3530	0	25.209	0	88.239	0	270.2	4	92.2	4	-1E+10	1	-1E+10	1	-1E+10	1	-1E+10	1	-1E+10	1	-1E+10	1
4902549	52	C	01/16/2022	03:59	-132.113	47.451	0	90.00	0	7.9150	0	32.3550	0	25.211	0	89.230	0	269.2	4	91.9	4	-1E+10	1	-1E+10	1	-1E+10	1	-1E+10	1	-1E+10	1	-1E+10	1
4902549	52	C	01/16/2022	03:59	-132.113	47.451	0	90.80	0	7.9090	0	32.3570	0	25.213	0	90.023	0	267.8	4	91.4	4	-1E+10	1	-1E+10	1	-1E+10	1	-1E+10	1	-1E+10	1	-1E+10	1
4902549	52	C	01/16/2022	03:59	-132.113	47.451	0	92.10	0	7.8930	0	32.3650	0	25.222	0	91.311	0	265.7	4	90.6	4	-1E+10	1	-1E+10	1	-1E+10	1	-1E+10	1	-1E+10	1	-1E+10	1
4902549	52	C	01/16/2022	03:59	-132.113	47.451	0	93.10	0	7.8820	0	32.3700	0	25.227	0	92.303	0	263.0	4	89.7	4	-1E+10	1	-1E+10	1	-1E+10	1	-1E+10	1	-1E+10	1	-1E+10	1
4902549	52	C	01/16/2022	03:59	-132.113	47.451	0	94.10	0	7.8340	0	32.3920	0	25.251	0	93.294	0	257.1	4	87.6	4	-1E+10	1	-1E+10	1	-1E+10	1	-1E+10	1	-1E+10	1	-1E+10	1
4902549	52	C	01/16/2022	03:59	-132.113	47.451	0	95.00	0	7.7650	0	32.4310	0	25.292	0	94.186	0	250.9	4	85.4	4	-1E+10	1	-1E+10	1	-1E+10	1	-1E+10	1	-1E+10	1	-1E+10	1
4902549	52	C	01/16/2022	03:59	-132.113	47.451	0	95.90	0	7.7080	0	32.4730	0	25.333	0	95.078	0	246.0	4	83.6	4	-1E+10	1	-1E+10	1	-1E+10	1	-1E+10	1	-1E+10	1	-1E+10	1
4902549	52	C	01/16/2022	03:59	-132.113	47.451	0	96.90	0	7.6730	0	32.5080	0	25.365	0	96.069	0	241.8	4	82.2	4	-1E+10	1	-1E+10	1	-1E+10	1	-1E+10	1	-1E+10	1	-1E+10	1
4902549	52	C	01/16/2022	03:59	-132.113	47.451	0	98.00	0	7.6530	0	32.5290	0	25.385	0	97.159	0	236.0	4	80.2	4	-1E+10	1	-1E+10	1	-1E+10	1	-1E+10	1	-1E+10	1	-1E+10	1
4902549	52	C	01/16/2022	03:59	-132.113	47.451	0	99.30	0	7.5510	0	32.6300	0	25.478	0	98.448	0	230.8	4	78.3	4	-1E+10	1	-1E+10	1	-1E+10	1	-1E+10	1	-1E+10	1	-1E+10	1
4902549	52	C	01/16/2022	03:59	-132.113	47.451	0	100.00	0	7.4960	0	32.6900	0	25.533	0	99.142	0	229.1	4	77.6	4	-1E+10	1	-1E+10	1	-1E+10	1	-1E+10	1	-1E+10	1	-1E+10	1
4902549	52	C	01/16/2022	03:59	-132.113	47.451	0	100.90	0	7.4800	0	32.7080	0	25.550	0	100.034	0	226.5	4	76.7	4	-1E+10	1	-1E+10	1	-1E+10	1	-1E+10	1	-1E+10	1	-1E+10	1
4902549	52	C	01/16/2022	03:59	-132.113	47.451	0	102.10	0	7.4330	0	32.7720	0	25.606	0	101.223	0	223.9	4	75.8	4	-1E+10	1	-1E+10	1	-1E+10	1	-1E+10	1	-1E+10	1	-1E+10	1
4902549	52	C	01/16/2022	03:59	-132.113	47.451	0	102.90	0	7.4120	0	32.7960	0	25.628	0	102.016	0	222.4	4	75.3	4	-1E+10	1	-1E+10	1	-1E+10	1	-1E+10	1	-1E+10	1	-1E+10	1
4902549	52	C	01/16/2022	03:59	-132.113	47.451	0	103.90	0	7.4080	0	32.8010	0	25.633	0	103.007	0	220.4	4	74.6	4	-1E+10	1	-1E+10	1	-1E+10	1	-1E+10	1	-1E+10	1	-1E+10	1
4902549	52	C	01/16/2022	03:59	-132.113	47.451	0	104.90	0	7.3930	0	32.8190	0	25.649	0	103.999	0	218.0	4	73.8	4	-1E+10	1	-1E+10	1	-1E+10	1	-1E+10	1	-1E+10	1	-1E+10	1
4902549	52	C	01/16/2022	03:59	-132.113	47.451	0	106.10	0	7.3680	0	32.8630	0	25.687	0	105.188	0	215.3	4	72.8	4	-1E+10	1	-1E+10	1	-1E+10	1	-1E+10	1	-1E+10	1	-1E+10	1
4902549	52	C	01/16/2022	03:59	-132.113	47.451	0	107.00	0	7.3320	0	32.8770	0	25.703	0	106.080	0	213.4	4	72.2	4	-1E+10	1	-1E+10	1	-1E+10	1	-1E+10	1	-1E+10	1	-1E+10	1
4902549	52	C	01/16/2022	03:59	-132.113	47.451	0	108.10	0	7.3430	0	32.9470	0	25.757	0	107.170	0	211.0	4	71.4	4	-1E+10	1	-1E+10	1	-1E+10	1	-1E+10	1	-1E+10	1	-1E+10	1
4902549	52	C	01/16/2022	03:59	-132.113	47.451	0	109.10	0	7.3260	0	32.9560	0	25.766	0	108.161	0	209.0	4	70.7	4	-1E+10	1	-1E+10	1	-1E+10	1	-1E+10	1	-1E+10	1	-1E+10	1
4902549	52	C	01/16/2022	03:59	-132.113	47.451	0	110.10	0	7.3360	0	32.9710	0	25.776	0	109.152	0	206.7	4	69.9	4	-1E+10	1	-1E+10	1	-1E+10	1	-1E+10	1	-1E+10	1	-1E+10	1
4902549	52	C	01/16/2022	03:59	-132.113	47.451	0	111.00	0	7.3340	0	32.9800	0	25.784	0	110.044	0	205.0	4	69.3	4	-1E+10	1	-1E+10	1	-1E+10	1	-1E+10	1	-1E+10	1	-1E+10	1
4902549	52	C	01/16/2022	03:59	-132.113	47.451	0	111.80	0	7.3630	0	33.0160	0	25.808	0	110.837	0	203.6	4	68.9	4	-1E+10	1	-1E+10	1	-1E+10	1	-1E+10	1	-1E+10	1	-1E+10	1
4902549	52	C	01/16/2022	03:59	-132.113	47.451	0	113.00	0	7.3770	0	33.0290	0	25.816	0	112.027	0	201.8	4	68.4	4	-1E+10	1	-1E+10	1	-1E+10	1	-1E+10	1	-1E+10	1	-1E+10	1
4902549	52	C	01/16/2022	03:59	-132.113	47.451	0	114.10	0	7.4010	0	33.0770	0	25.851	0	113.117	0	200.6	4	68.0	4	-1E+10	1	-1E+10	1	-1E+10	1	-1E+10	1	-1E+10	1	-1E+10	1
4902549	52	C	01/16/2022	03:59	-132.113	47.451	0	114.90	0	7.4570	0	33.1540	0	25.904	0	113.910	0	199.4	4	67.7	4	-1E+10	1	-1E+10	1	-1E+10	1	-1E+10	1	-1E+10	1	-1E+10	1
4902549	52	C	01/16/2022	03:59	-132.113	47.451	0	115.90	0	7.4680	0	33.1660	0	25.912	0	114.901	0	198.0	4	67.3	4	-1E+10	1	-1E+10	1	-1E+10	1	-1E+10	1	-1E+10	1	-1E+10	1
4902549	52	C	01/16/2022	03:59	-132.113	47.451	0	116.80	0	7.4720	0	33.1840	0	25.925	0	115.793	0	196.5	4	66.8	4	-1E+10	1	-1E+10	1	-1E+10	1	-1E+10	1	-1E+10	1	-1E+10	1
4902549	52	C	01/16/2022	03:59	-132.113	47.451	0	117.80	0	7.4760	0	33.2020	0	25.939	0	116.784	0	195.0	4	66.3	4	-1E+10	1	-1E+10	1	-1E+10	1	-1E+10	1	-1E+10	1	-1E+10	1
4902549	52	C	01/16/2022	03:59	-132.113	47.451	0	118.80	0	7.4830	0	33.2280	0	25.958	0	117.775	0	193.4	4	65.8	4	-1E+10	1	-1E+10	1	-1E+10	1	-1E+10	1	-1E+10	1	-1E+10	1
4902549	52	C	01/16/2022	03:59	-132.113	47.451	0	119.90	0	7.4930	0	33.2610	0	25.983	0	118.865	0	192.2	4	65.4	4	-1E+10	1	-1E+10	1	-1E+10	1	-1E+10	1	-1E+10	1	-1E+10	1
4902549	52	C	01/16/2022	03:59	-132.113	47.451	0	121.00	0	7.4980	0	33.2820	0	25.999	0	119.956	0	191.4	4	65.1	4	-1E+10	1	-1E+10	1	-1E+10	1	-1E+10	1	-1E+10	1	-1E+10	1
4902549	52	C	01/16/2022	03:59	-132.113	47.451	0	122.10	0	7.4990	0	33.2960	0	26.010	0	121.046	0	190.7	4	64.9	4	-1E+10	1	-1E+10	1	-1E+10	1	-1E+10	1	-1E+10	1	-1E+10	1
4902549	52	C	01/16/2022	03:59	-132.113	47.451	0	122.80	0	7.4980	0	33.3030	0	26.015	0	121.739	0	190.3	4	64.8	4	-1E+10	1	-1E+10	1	-1E+10	1	-1E+10	1	-1E+10	1	-1E+10	1
4902549	52	C	01/16/2022	03:59	-132.113	47.451	0	123.90	0	7.4900	0	33.3240	0	26.033	0	122.830	0	190.0	4	64.7	4	-1E+10	1	-1E+10	1	-1E+10	1	-1E+10	1	-1E+10	1	-1E+10	1
4902549	52	C	01/16/2022	03:59	-132.113	47.451	0	124.90	0	7.4770	0	33.3420	0	26.049	0	123.821	0	189.5	4	64.5	4	-1E+10	1	-1E+10	1	-1E+10	1	-1E+10	1	-1E+10	1	-1E+10	1
4902549	52	C	01/16/2022	03:59	-132.113	47.451	0	126.00	0	7.4550	0	33.3630	0	26.068	0	124.911	0	188.8	4	64.2	4	-1E+10	1	-1E+10	1	-1E+10	1	-1E+10	1	-1E+10	1	-1E+10	1
4902549	52	C	01/16/2022	03:59	-132.113	47.451	0	127.10	0	7.4480	0	33.3700	0	26.075	0	126.001	0	187.8	4	63.9	4	-1E+10	1	-1E+10	1	-1E+10	1	-1E+10	1	-1E+10	1	-1E+10	1
4902549	52	C	01/16/2022	03:59	-132.113	47.451	0	127.80	0	7.4400	0	33.3730	0	26.078	0	126.695	0	187.0	4	63.6	4	-1E+10	1	-1E+10	1	-1E+10	1	-1E+10	1	-1E+10	1	-1E+10	1
4902549	52	C	01/16/2022	03:59	-132.113	47.451	0	128.80	0	7.4350	0	33.3830	0	26.087	0	127.686	0	185.6	4	63.1	4	-1E+10	1	-1E+10	1	-1E+10	1	-1E+10	1	-1E+10	1	-1E+10	1
4902549	52	C	01/16/2022	03:59	-132.113	47.451	0	129.90	0	7.4250	0	33.3920	0	26.096	0	128.776	0	184.0	4	62.6	4	-1E+10	1	-1E+10	1	-1E+10	1	-1E+10	1	-1E+10	1	-1E+10	1
4902549	52	C	01/16/2022	03:59	-132.113	47.451	0	130.90	0	7.4170	0	33.3950	0	26.099	0	129.767	0	181.8	4	61.8	4	-1E+10	1	-1E+10	1	-1E+10	1	-1E+10	1	-1E+10	1	-1E+10	1
4902549	52	C	01/16/2022	03:59	-132.113	47.451	0	132.00	0	7.4120	0	33.3990	0	26.103	0	130.857	0	179.1	4	60.9	4	-1E+10	1	-1E+10	1	-1E+10	1	-1E+10	1	-1E+10	1	-1E+10	1
4902549	52	C	01/16/2022	03:59	-132.113	47.451	0	133.00	0	7.3990	0	33.4230	0	26.124	0	131.848	0	176.4	4	60.0	4	-1E+10	1	-1E+10	1	-1E+10	1	-1E+10	1	-1E+10	1	-1E+10	1
4902549	52	C	01/16/2022	03:59	-132.113	47.451	0	134.10	0	7.4180	0	33.4340	0	26.130	0	132.938	0	174.0	4	59.2	4	-1E+10	1	-1E+10	1	-1E+10	1	-1E+10	1	-1E+10	1	-1E+10	1
4902549	52	C	01/16/2022	03:59	-132.113	47.451	0	134.80	0	7.4450	0	33.4640	0	26.149	0	133.632	0	172.6	4	58.8	4	-1E+10	1	-1E+10	1	-1E+10	1	-1E+10	1	-1E+10	1	-1E+10	1
4902549	52	C	01/16/2022	03:59	-132.113	47.451	0	135.80	0	7.4540	0	33.4650	0	26.149	0	134.623	0	170.9	4	58.2	4	-1E+10	1	-1E+10	1	-1E+10	1	-1E+10	1	-1E+10	1	-1E+10	1
4902549	52	C	01/16/2022	03:59	-132.113	47.451	0	137.00	0	7.4600	0	33.4790	0	26.159	0	135.812	0	169.3	4	57.6	4	-1E+10	1	-1E+10	1	-1E+10	1	-1E+10	1	-1E+10	1	-1E+10	1
4902549	52	C	01/16/2022	03:59	-132.113	47.451	0	137.80	0	7.4830	0	33.5060	0	26.177	0	136.605	0	168.6	4	57.5	4	-1E+10	1	-1E+10	1	-1E+10	1	-1E+10	1	-1E+10	1	-1E+10	1
4902549	52	C	01/16/2022	03:59	-132.113	47.451	0	138.90	0	7.4720	0	33.5300	0	26.198	0	137.695	0	168.0	4	57.3	4	-1E+10	1	-1E+10	1	-1E+10	1	-1E+10	1	-1E+10	1	-1E+10	1
4902549	52	C	01/16/2022	03:59	-132.113	47.451	0	140.20	0	7.4360	0	33.5610	0	26.227	0	138.983	0	167.4	4	57.0	4	-1E+10	1	-1E+10	1	-1E+10	1	-1E+10	1	-1E+10	1	-1E+10	1
4902549	52	C	01/16/2022	03:59	-132.113	47.451	0	141.00	0	7.4340	0	33.5690	0	26.234	0	139.776	0	166.8	4	56.8	4	-1E+10	1	-1E+10	1	-1E+10	1	-1E+10	1	-1E+10	1	-1E+10	1
4902549	52	C	01/16/2022	03:59	-132.113	47.451	0	141.90	0	7.4370	0	33.5760	0	26.239	0	140.668	0	166.1	4	56.6	4	-1E+10	1	-1E+10	1	-1E+10	1	-1E+10	1	-1E+10	1	-1E+10	1
4902549	52	C	01/16/2022	03:59	-132.113	47.451	0	142.70	0	7.4480	0	33.5830	0	26.243	0	141.461	0	165.8	4	56.5	4	-1E+10	1	-1E+10	1	-1E+10	1	-1E+10	1	-1E+10	1	-1E+10	1
4902549	52	C	01/16/2022	03:59	-132.113	47.451	0	144.00	0	7.4590	0	33.5900	0	26.247	0	142.749	0	165.7	4	56.5	4	-1E+10	1	-1E+10	1	-1E+10	1	-1E+10	1	-1E+10	1	-1E+10	1
4902549	52	C	01/16/2022	03:59	-132.113	47.451	0	145.30	0	7.4590	0	33.6100	0	26.262	0	144.037	0	166.0	4	56.6	4	-1E+10	1	-1E+10	1	-1E+10	1	-1E+10	1	-1E+10	1	-1E+10	1
4902549	52	C	01/16/2022	03:59	-132.113	47.451	0	146.20	0	7.4570	0	33.6140	0	26.266	0	144.929	0	166.5	4	56.7	4	-1E+10	1	-1E+10	1	-1E+10	1	-1E+10	1	-1E+10	1	-1E+10	1
4902549	52	C	01/16/2022	03:59	-132.113	47.451	0	147.10	0	7.4480	0	33.6210	0	26.273	0	145.821	0	167.1	4	56.9	4	-1E+10	1	-1E+10	1	-1E+10	1	-1E+10	1	-1E+10	1	-1E+10	1
4902549	52	C	01/16/2022	03:59	-132.113	47.451	0	148.00	0	7.4200	0	33.6500	0	26.299	0	146.713	0	167.9	4	57.2	4	-1E+10	1	-1E+10	1	-1E+10	1	-1E+10	1	-1E+10	1	-1E+10	1
4902549	52	C	01/16/2022	03:59	-132.113	47.451	0	149.00	0	7.3780	0	33.6690	0	26.320	0	147.704	0	168.8	4	57.4	4	-1E+10	1	-1E+10	1	-1E+10	1	-1E+10	1	-1E+10	1	-1E+10	1
4902549	52	C	01/16/2022	03:59	-132.113	47.451	0	149.90	0	7.3600	0	33.6850	0	26.335	0	148.596	0	169.7	4	57.7	4	-1E+10	1	-1E+10	1	-1E+10	1	-1E+10	1	-1E+10	1	-1E+10	1
4902549	52	C	01/16/2022	03:59	-132.113	47.451	0	150.90	0	7.3530	0	33.6900	0	26.340	0	149.587	0	170.6	4	58.0	4	-1E+10	1	-1E+10	1	-1E+10	1	-1E+10	1	-1E+10	1	-1E+10	1
4902549	52	C	01/16/2022	03:59	-132.113	47.451	0	151.80	0	7.3450	0	33.6910	0	26.342	0	150.478	0	171.7	4	58.4	4	-1E+10	1	-1E+10	1	-1E+10	1	-1E+10	1	-1E+10	1	-1E+10	1
4902549	52	C	01/16/2022	03:59	-132.113	47.451	0	152.80	0	7.3280	0	33.6970	0	26.349	0	151.469	0	172.6	4	58.7	4	-1E+10	1	-1E+10	1	-1E+10	1	-1E+10	1	-1E+10	1	-1E+10	1
4902549	52	C	01/16/2022	03:59	-132.113	47.451	0	153.80	0	7.3030	0	33.7010	0	26.356	0	152.460	0	173.3	4	58.9	4	-1E+10	1	-1E+10	1	-1E+10	1	-1E+10	1	-1E+10	1	-1E+10	1
4902549	52	C	01/16/2022	03:59	-132.113	47.451	0	154.70	0	7.3000	0	33.7000	0	26.356	0	153.352	0	173.8	4	59.1	4	-1E+10	1	-1E+10	1	-1E+10	1	-1E+10	1	-1E+10	1	-1E+10	1
4902549	52	C	01/16/2022	03:59	-132.113	47.451	0	155.70	0	7.2850	0	33.7000	0	26.358	0	154.343	0	174.3	4	59.2	4	-1E+10	1	-1E+10	1	-1E+10	1	-1E+10	1	-1E+10	1	-1E+10	1
4902549	52	C	01/16/2022	03:59	-132.113	47.451	0	156.60	0	7.2490	0	33.7050	0	26.367	0	155.235	0	174.6	4	59.3	4	-1E+10	1	-1E+10	1	-1E+10	1	-1E+10	1	-1E+10	1	-1E+10	1
4902549	52	C	01/16/2022	03:59	-132.113	47.451	0	157.60	0	7.2450	0	33.7060	0	26.368	0	156.226	0	174.7	4	59.3	4	-1E+10	1	-1E+10	1	-1E+10	1	-1E+10	1	-1E+10	1	-1E+10	1
4902549	52	C	01/16/2022	03:59	-132.113	47.451	0	158.50	0	7.2320	0	33.7070	0	26.371	0	157.118	0	174.7	4	59.3	4	-1E+10	1	-1E+10	1	-1E+10	1	-1E+10	1	-1E+10	1	-1E+10	1
4902549	52	C	01/16/2022	03:59	-132.113	47.451	0	159.50	0	7.1890	0	33.7090	0	26.378	0	158.108	0	174.4	4	59.1	4	-1E+10	1	-1E+10	1	-1E+10	1	-1E+10	1	-1E+10	1	-1E+10	1
4902549	52	C	01/16/2022	03:59	-132.113	47.451	0	160.50	0	7.1670	0	33.7130	0	26.384	0	159.099	0	173.8	4	58.9	4	-1E+10	1	-1E+10	1	-1E+10	1	-1E+10	1	-1E+10	1	-1E+10	1
4902549	52	C	01/16/2022	03:59	-132.113	47.451	0	161.50	0	7.1490	0	33.7210	0	26.393	0	160.090	0	173.2	4	58.7	4	-1E+10	1	-1E+10	1	-1E+10	1	-1E+10	1	-1E+10	1	-1E+10	1
4902549	52	C	01/16/2022	03:59	-132.113	47.451	0	162.90	0	7.1370	0	33.7270	0	26.400	0	161.477	0	172.3	4	58.4	4	-1E+10	1	-1E+10	1	-1E+10	1	-1E+10	1	-1E+10	1	-1E+10	1
4902549	52	C	01/16/2022	03:59	-132.113	47.451	0	164.40	0	7.1310	0	33.7290	0	26.402	0	162.964	0	171.1	4	57.9	4	-1E+10	1	-1E+10	1	-1E+10	1	-1E+10	1	-1E+10	1	-1E+10	1
4902549	52	C	01/16/2022	03:59	-132.113	47.451	0	165.40	0	7.1300	0	33.7320	0	26.404	0	163.955	0	170.2	4	57.6	4	-1E+10	1	-1E+10	1	-1E+10	1	-1E+10	1	-1E+10	1	-1E+10	1
4902549	52	C	01/16/2022	03:59	-132.113	47.451	0	166.30	0	7.1180	0	33.7360	0	26.409	0	164.846	0	169.4	4	57.4	4	-1E+10	1	-1E+10	1	-1E+10	1	-1E+10	1	-1E+10	1	-1E+10	1
4902549	52	C	01/16/2022	03:59	-132.113	47.451	0	167.30	0	7.1120	0	33.7380	0	26.412	0	165.837	0	168.4	4	57.0	4	-1E+10	1	-1E+10	1	-1E+10	1	-1E+10	1	-1E+10	1	-1E+10	1
4902549	52	C	01/16/2022	03:59	-132.113	47.451	0	168.20	0	7.1100	0	33.7400	0	26.414	0	166.729	0	167.5	4	56.7	4	-1E+10	1	-1E+10	1	-1E+10	1	-1E+10	1	-1E+10	1	-1E+10	1
4902549	52	C	01/16/2022	03:59	-132.113	47.451	0	169.20	0	7.1110	0	33.7440	0	26.417	0	167.720	0	166.6	4	56.4	4	-1E+10	1	-1E+10	1	-1E+10	1	-1E+10	1	-1E+10	1	-1E+10	1
4902549	52	C	01/16/2022	03:59	-132.113	47.451	0	170.10	0	7.1100	0	33.7460	0	26.418	0	168.612	0	165.7	4	56.1	4	-1E+10	1	-1E+10	1	-1E+10	1	-1E+10	1	-1E+10	1	-1E+10	1
4902549	52	C	01/16/2022	03:59	-132.113	47.451	0	171.00	0	7.0930	0	33.7550	0	26.428	0	169.503	0	165.2	4	55.9	4	-1E+10	1	-1E+10	1	-1E+10	1	-1E+10	1	-1E+10	1	-1E+10	1
4902549	52	C	01/16/2022	03:59	-132.113	47.451	0	172.00	0	7.0520	0	33.7680	0	26.444	0	170.494	0	165.0	4	55.8	4	-1E+10	1	-1E+10	1	-1E+10	1	-1E+10	1	-1E+10	1	-1E+10	1
4902549	52	C	01/16/2022	03:59	-132.113	47.451	0	172.90	0	6.9900	0	33.7700	0	26.454	0	171.386	0	164.8	4	55.7	4	-1E+10	1	-1E+10	1	-1E+10	1	-1E+10	1	-1E+10	1	-1E+10	1
4902549	52	C	01/16/2022	03:59	-132.113	47.451	0	173.80	0	6.9670	0	33.7720	0	26.458	0	172.278	0	164.4	4	55.5	4	-1E+10	1	-1E+10	1	-1E+10	1	-1E+10	1	-1E+10	1	-1E+10	1
4902549	52	C	01/16/2022	03:59	-132.113	47.451	0	174.80	0	6.9580	0	33.7760	0	26.463	0	173.269	0	164.0	4	55.3	4	-1E+10	1	-1E+10	1	-1E+10	1	-1E+10	1	-1E+10	1	-1E+10	1
4902549	52	C	01/16/2022	03:59	-132.113	47.451	0	175.70	0	6.9080	0	33.7820	0	26.474	0	174.160	0	164.1	4	55.3	4	-1E+10	1	-1E+10	1	-1E+10	1	-1E+10	1	-1E+10	1	-1E+10	1
4902549	52	C	01/16/2022	03:59	-132.113	47.451	0	176.70	0	6.9100	0	33.7810	0	26.473	0	175.151	0	164.0	4	55.3	4	-1E+10	1	-1E+10	1	-1E+10	1	-1E+10	1	-1E+10	1	-1E+10	1
4902549	52	C	01/16/2022	03:59	-132.113	47.451	0	177.70	0	6.9020	0	33.7830	0	26.476	0	176.142	0	164.0	4	55.3	4	-1E+10	1	-1E+10	1	-1E+10	1	-1E+10	1	-1E+10	1	-1E+10	1
4902549	52	C	01/16/2022	03:59	-132.113	47.451	0	178.70	0	6.9000	0	33.7850	0	26.478	0	177.133	0	163.9	4	55.2	4	-1E+10	1	-1E+10	1	-1E+10	1	-1E+10	1	-1E+10	1	-1E+10	1
4902549	52	C	01/16/2022	03:59	-132.113	47.451	0	179.70	0	6.9030	0	33.7820	0	26.475	0	178.124	0	163.9	4	55.2	4	-1E+10	1	-1E+10	1	-1E+10	1	-1E+10	1	-1E+10	1	-1E+10	1
4902549	52	C	01/16/2022	03:59	-132.113	47.451	0	180.70	0	6.8990	0	33.7850	0	26.478	0	179.114	0	163.8	4	55.2	4	-1E+10	1	-1E+10	1	-1E+10	1	-1E+10	1	-1E+10	1	-1E+10	1
4902549	52	C	01/16/2022	03:59	-132.113	47.451	0	181.70	0	6.8970	0	33.7840	0	26.477	0	180.105	0	163.7	4	55.1	4	-1E+10	1	-1E+10	1	-1E+10	1	-1E+10	1	-1E+10	1	-1E+10	1
4902549	52	C	01/16/2022	03:59	-132.113	47.451	0	182.70	0	6.8940	0	33.7830	0	26.477	0	181.096	0	163.5	4	55.1	4	-1E+10	1	-1E+10	1	-1E+10	1	-1E+10	1	-1E+10	1	-1E+10	1
4902549	52	C	01/16/2022	03:59	-132.113	47.451	0	183.60	0	6.8890	0	33.7830	0	26.478	0	181.988	0	163.3	4	55.0	4	-1E+10	1	-1E+10	1	-1E+10	1	-1E+10	1	-1E+10	1	-1E+10	1
4902549	52	C	01/16/2022	03:59	-132.113	47.451	0	184.60	0	6.8850	0	33.7820	0	26.477	0	182.978	0	162.9	4	54.9	4	-1E+10	1	-1E+10	1	-1E+10	1	-1E+10	1	-1E+10	1	-1E+10	1
4902549	52	C	01/16/2022	03:59	-132.113	47.451	0	185.70	0	6.8690	0	33.7870	0	26.484	0	184.068	0	162.6	4	54.7	4	-1E+10	1	-1E+10	1	-1E+10	1	-1E+10	1	-1E+10	1	-1E+10	1
4902549	52	C	01/16/2022	03:59	-132.113	47.451	0	186.70	0	6.8290	0	33.7870	0	26.489	0	185.059	0	162.0	4	54.5	4	-1E+10	1	-1E+10	1	-1E+10	1	-1E+10	1	-1E+10	1	-1E+10	1
4902549	52	C	01/16/2022	03:59	-132.113	47.451	0	187.60	0	6.7730	0	33.7850	0	26.495	0	185.951	0	161.6	4	54.3	4	-1E+10	1	-1E+10	1	-1E+10	1	-1E+10	1	-1E+10	1	-1E+10	1
4902549	52	C	01/16/2022	03:59	-132.113	47.451	0	188.60	0	6.7530	0	33.7850	0	26.498	0	186.941	0	160.9	4	54.0	4	-1E+10	1	-1E+10	1	-1E+10	1	-1E+10	1	-1E+10	1	-1E+10	1
4902549	52	C	01/16/2022	03:59	-132.113	47.451	0	189.60	0	6.7290	0	33.7860	0	26.502	0	187.932	0	160.1	4	53.7	4	-1E+10	1	-1E+10	1	-1E+10	1	-1E+10	1	-1E+10	1	-1E+10	1
4902549	52	C	01/16/2022	03:59	-132.113	47.451	0	190.60	0	6.7290	0	33.7840	0	26.500	0	188.923	0	159.2	4	53.4	4	-1E+10	1	-1E+10	1	-1E+10	1	-1E+10	1	-1E+10	1	-1E+10	1
4902549	52	C	01/16/2022	03:59	-132.113	47.451	0	191.60	0	6.6960	0	33.7880	0	26.508	0	189.914	0	158.3	4	53.1	4	-1E+10	1	-1E+10	1	-1E+10	1	-1E+10	1	-1E+10	1	-1E+10	1
4902549	52	C	01/16/2022	03:59	-132.113	47.451	0	192.60	0	6.7010	0	33.7890	0	26.508	0	190.904	0	157.2	4	52.8	4	-1E+10	1	-1E+10	1	-1E+10	1	-1E+10	1	-1E+10	1	-1E+10	1
4902549	52	C	01/16/2022	03:59	-132.113	47.451	0	193.60	0	6.6820	0	33.7870	0	26.509	0	191.895	0	156.1	4	52.3	4	-1E+10	1	-1E+10	1	-1E+10	1	-1E+10	1	-1E+10	1	-1E+10	1
4902549	52	C	01/16/2022	03:59	-132.113	47.451	0	194.50	0	6.6740	0	33.7870	0	26.510	0	192.787	0	154.6	4	51.8	4	-1E+10	1	-1E+10	1	-1E+10	1	-1E+10	1	-1E+10	1	-1E+10	1
4902549	52	C	01/16/2022	03:59	-132.113	47.451	0	195.50	0	6.6620	0	33.7890	0	26.513	0	193.777	0	152.9	4	51.3	4	-1E+10	1	-1E+10	1	-1E+10	1	-1E+10	1	-1E+10	1	-1E+10	1
4902549	52	C	01/16/2022	03:59	-132.113	47.451	0	196.50	0	6.6090	0	33.8000	0	26.529	0	194.768	0	151.3	4	50.6	4	-1E+10	1	-1E+10	1	-1E+10	1	-1E+10	1	-1E+10	1	-1E+10	1
4902549	52	C	01/16/2022	03:59	-132.113	47.451	0	197.50	0	6.5970	0	33.8010	0	26.531	0	195.759	0	150.0	4	50.2	4	-1E+10	1	-1E+10	1	-1E+10	1	-1E+10	1	-1E+10	1	-1E+10	1
4902549	52	C	01/16/2022	03:59	-132.113	47.451	0	198.50	0	6.5960	0	33.8040	0	26.533	0	196.750	0	148.8	4	49.8	4	-1E+10	1	-1E+10	1	-1E+10	1	-1E+10	1	-1E+10	1	-1E+10	1
4902549	52	C	01/16/2022	03:59	-132.113	47.451	0	199.50	0	6.5930	0	33.8130	0	26.541	0	197.740	0	147.9	4	49.5	4	-1E+10	1	-1E+10	1	-1E+10	1	-1E+10	1	-1E+10	1	-1E+10	1
4902549	52	C	01/16/2022	03:59	-132.113	47.451	0	200.50	0	6.5930	0	33.8130	0	26.541	0	198.731	0	147.0	4	49.2	4	-1E+10	1	-1E+10	1	-1E+10	1	-1E+10	1	-1E+10	1	-1E+10	1
4902549	52	C	01/16/2022	03:59	-132.113	47.451	0	201.50	0	6.5780	0	33.8170	0	26.546	0	199.722	0	146.2	4	48.9	4	-1E+10	1	-1E+10	1	-1E+10	1	-1E+10	1	-1E+10	1	-1E+10	1
4902549	52	C	01/16/2022	03:59	-132.113	47.451	0	202.60	0	6.5610	0	33.8180	0	26.549	0	200.811	0	145.5	4	48.7	4	-1E+10	1	-1E+10	1	-1E+10	1	-1E+10	1	-1E+10	1	-1E+10	1
4902549	52	C	01/16/2022	03:59	-132.113	47.451	0	203.70	0	6.5520	0	33.8200	0	26.552	0	201.901	0	144.9	4	48.4	4	-1E+10	1	-1E+10	1	-1E+10	1	-1E+10	1	-1E+10	1	-1E+10	1
4902549	52	C	01/16/2022	03:59	-132.113	47.451	0	204.70	0	6.5460	0	33.8210	0	26.553	0	202.892	0	144.2	4	48.2	4	-1E+10	1	-1E+10	1	-1E+10	1	-1E+10	1	-1E+10	1	-1E+10	1
4902549	52	C	01/16/2022	03:59	-132.113	47.451	0	205.70	0	6.5390	0	33.8210	0	26.554	0	203.883	0	143.5	4	48.0	4	-1E+10	1	-1E+10	1	-1E+10	1	-1E+10	1	-1E+10	1	-1E+10	1
4902549	52	C	01/16/2022	03:59	-132.113	47.451	0	206.80	0	6.5310	0	33.8220	0	26.556	0	204.972	0	142.8	4	47.7	4	-1E+10	1	-1E+10	1	-1E+10	1	-1E+10	1	-1E+10	1	-1E+10	1
4902549	52	C	01/16/2022	03:59	-132.113	47.451	0	207.90	0	6.5240	0	33.8230	0	26.558	0	206.062	0	142.1	4	47.5	4	-1E+10	1	-1E+10	1	-1E+10	1	-1E+10	1	-1E+10	1	-1E+10	1
4902549	52	C	01/16/2022	03:59	-132.113	47.451	0	208.90	0	6.4910	0	33.8260	0	26.565	0	207.053	0	141.4	4	47.2	4	-1E+10	1	-1E+10	1	-1E+10	1	-1E+10	1	-1E+10	1	-1E+10	1
4902549	52	C	01/16/2022	03:59	-132.113	47.451	0	210.00	0	6.4910	0	33.8240	0	26.563	0	208.142	0	140.6	4	47.0	4	-1E+10	1	-1E+10	1	-1E+10	1	-1E+10	1	-1E+10	1	-1E+10	1
4902549	52	C	01/16/2022	03:59	-132.113	47.451	0	211.00	0	6.4830	0	33.8260	0	26.566	0	209.133	0	139.8	4	46.7	4	-1E+10	1	-1E+10	1	-1E+10	1	-1E+10	1	-1E+10	1	-1E+10	1
4902549	52	C	01/16/2022	03:59	-132.113	47.451	0	212.10	0	6.4710	0	33.8270	0	26.568	0	210.223	0	139.1	4	46.4	4	-1E+10	1	-1E+10	1	-1E+10	1	-1E+10	1	-1E+10	1	-1E+10	1
4902549	52	C	01/16/2022	03:59	-132.113	47.451	0	213.20	0	6.4670	0	33.8280	0	26.569	0	211.312	0	138.3	4	46.2	4	-1E+10	1	-1E+10	1	-1E+10	1	-1E+10	1	-1E+10	1	-1E+10	1
4902549	52	C	01/16/2022	03:59	-132.113	47.451	0	214.20	0	6.4330	0	33.8380	0	26.582	0	212.303	0	137.6	4	45.9	4	-1E+10	1	-1E+10	1	-1E+10	1	-1E+10	1	-1E+10	1	-1E+10	1
4902549	52	C	01/16/2022	03:59	-132.113	47.451	0	215.30	0	6.4080	0	33.8310	0	26.579	0	213.393	0	136.9	4	45.6	4	-1E+10	1	-1E+10	1	-1E+10	1	-1E+10	1	-1E+10	1	-1E+10	1
4902549	52	C	01/16/2022	03:59	-132.113	47.451	0	216.40	0	6.4040	0	33.8320	0	26.581	0	214.483	0	136.2	4	45.4	4	-1E+10	1	-1E+10	1	-1E+10	1	-1E+10	1	-1E+10	1	-1E+10	1
4902549	52	C	01/16/2022	03:59	-132.113	47.451	0	217.50	0	6.4070	0	33.8330	0	26.581	0	215.572	0	135.5	4	45.2	4	-1E+10	1	-1E+10	1	-1E+10	1	-1E+10	1	-1E+10	1	-1E+10	1
4902549	52	C	01/16/2022	03:59	-132.113	47.451	0	218.60	0	6.4040	0	33.8340	0	26.582	0	216.662	0	134.9	4	45.0	4	-1E+10	1	-1E+10	1	-1E+10	1	-1E+10	1	-1E+10	1	-1E+10	1
4902549	52	C	01/16/2022	03:59	-132.113	47.451	0	219.70	0	6.3850	0	33.8390	0	26.589	0	217.752	0	134.4	4	44.8	4	-1E+10	1	-1E+10	1	-1E+10	1	-1E+10	1	-1E+10	1	-1E+10	1
4902549	52	C	01/16/2022	03:59	-132.113	47.451	0	220.80	0	6.3800	0	33.8400	0	26.590	0	218.841	0	133.9	4	44.6	4	-1E+10	1	-1E+10	1	-1E+10	1	-1E+10	1	-1E+10	1	-1E+10	1
4902549	52	C	01/16/2022	03:59	-132.113	47.451	0	222.00	0	6.3790	0	33.8410	0	26.591	0	220.030	0	133.5	4	44.5	4	-1E+10	1	-1E+10	1	-1E+10	1	-1E+10	1	-1E+10	1	-1E+10	1
4902549	52	C	01/16/2022	03:59	-132.113	47.451	0	223.10	0	6.3540	0	33.8410	0	26.594	0	221.120	0	133.2	4	44.3	4	-1E+10	1	-1E+10	1	-1E+10	1	-1E+10	1	-1E+10	1	-1E+10	1
4902549	52	C	01/16/2022	03:59	-132.113	47.451	0	224.20	0	6.3510	0	33.8400	0	26.594	0	222.209	0	132.6	4	44.2	4	-1E+10	1	-1E+10	1	-1E+10	1	-1E+10	1	-1E+10	1	-1E+10	1
4902549	52	C	01/16/2022	03:59	-132.113	47.451	0	225.30	0	6.3320	0	33.8420	0	26.598	0	223.299	0	132.2	4	44.0	4	-1E+10	1	-1E+10	1	-1E+10	1	-1E+10	1	-1E+10	1	-1E+10	1
4902549	52	C	01/16/2022	03:59	-132.113	47.451	0	226.50	0	6.2650	0	33.8420	0	26.607	0	224.488	0	132.1	4	43.9	4	-1E+10	1	-1E+10	1	-1E+10	1	-1E+10	1	-1E+10	1	-1E+10	1
4902549	52	C	01/16/2022	03:59	-132.113	47.451	0	227.60	0	6.2520	0	33.8430	0	26.609	0	225.577	0	131.5	4	43.7	4	-1E+10	1	-1E+10	1	-1E+10	1	-1E+10	1	-1E+10	1	-1E+10	1
4902549	52	C	01/16/2022	03:59	-132.113	47.451	0	228.70	0	6.2440	0	33.8410	0	26.609	0	226.667	0	131.1	4	43.6	4	-1E+10	1	-1E+10	1	-1E+10	1	-1E+10	1	-1E+10	1	-1E+10	1
4902549	52	C	01/16/2022	03:59	-132.113	47.451	0	229.90	0	6.1990	0	33.8440	0	26.617	0	227.855	0	131.1	4	43.5	4	-1E+10	1	-1E+10	1	-1E+10	1	-1E+10	1	-1E+10	1	-1E+10	1
4902549	52	C	01/16/2022	03:59	-132.113	47.451	0	231.10	0	6.1540	0	33.8450	0	26.623	0	229.044	0	131.0	4	43.4	4	-1E+10	1	-1E+10	1	-1E+10	1	-1E+10	1	-1E+10	1	-1E+10	1
4902549	52	C	01/16/2022	03:59	-132.113	47.451	0	232.20	0	6.0900	0	33.8400	0	26.627	0	230.134	0	130.9	4	43.3	4	-1E+10	1	-1E+10	1	-1E+10	1	-1E+10	1	-1E+10	1	-1E+10	1
4902549	52	C	01/16/2022	03:59	-132.113	47.451	0	233.40	0	6.0710	0	33.8380	0	26.628	0	231.322	0	130.5	4	43.2	4	-1E+10	1	-1E+10	1	-1E+10	1	-1E+10	1	-1E+10	1	-1E+10	1
4902549	52	C	01/16/2022	03:59	-132.113	47.451	0	234.60	0	6.0520	0	33.8390	0	26.631	0	232.511	0	130.0	4	43.0	4	-1E+10	1	-1E+10	1	-1E+10	1	-1E+10	1	-1E+10	1	-1E+10	1
4902549	52	C	01/16/2022	03:59	-132.113	47.451	0	235.70	0	6.0190	0	33.8380	0	26.635	0	233.601	0	129.7	4	42.9	4	-1E+10	1	-1E+10	1	-1E+10	1	-1E+10	1	-1E+10	1	-1E+10	1
4902549	52	C	01/16/2022	03:59	-132.113	47.451	0	236.90	0	6.0150	0	33.8380	0	26.635	0	234.789	0	129.4	4	42.7	4	-1E+10	1	-1E+10	1	-1E+10	1	-1E+10	1	-1E+10	1	-1E+10	1
4902549	52	C	01/16/2022	03:59	-132.113	47.451	0	238.10	0	6.0120	0	33.8390	0	26.636	0	235.978	0	128.9	4	42.6	4	-1E+10	1	-1E+10	1	-1E+10	1	-1E+10	1	-1E+10	1	-1E+10	1
4902549	52	C	01/16/2022	03:59	-132.113	47.451	0	239.30	0	5.9940	0	33.8400	0	26.639	0	237.166	0	128.7	4	42.5	4	-1E+10	1	-1E+10	1	-1E+10	1	-1E+10	1	-1E+10	1	-1E+10	1
4902549	52	C	01/16/2022	03:59	-132.113	47.451	0	240.40	0	5.9850	0	33.8420	0	26.642	0	238.256	0	128.5	4	42.4	4	-1E+10	1	-1E+10	1	-1E+10	1	-1E+10	1	-1E+10	1	-1E+10	1
4902549	52	C	01/16/2022	03:59	-132.113	47.451	0	241.60	0	5.9840	0	33.8410	0	26.642	0	239.445	0	128.2	4	42.3	4	-1E+10	1	-1E+10	1	-1E+10	1	-1E+10	1	-1E+10	1	-1E+10	1
4902549	52	C	01/16/2022	03:59	-132.113	47.451	0	242.80	0	5.9800	0	33.8420	0	26.643	0	240.633	0	128.1	4	42.3	4	-1E+10	1	-1E+10	1	-1E+10	1	-1E+10	1	-1E+10	1	-1E+10	1
4902549	52	C	01/16/2022	03:59	-132.113	47.451	0	244.00	0	5.9780	0	33.8420	0	26.643	0	241.822	0	127.8	4	42.2	4	-1E+10	1	-1E+10	1	-1E+10	1	-1E+10	1	-1E+10	1	-1E+10	1
4902549	52	C	01/16/2022	03:59	-132.113	47.451	0	245.10	0	5.9750	0	33.8400	0	26.642	0	242.911	0	127.6	4	42.1	4	-1E+10	1	-1E+10	1	-1E+10	1	-1E+10	1	-1E+10	1	-1E+10	1
4902549	52	C	01/16/2022	03:59	-132.113	47.451	0	246.30	0	5.9490	0	33.8390	0	26.644	0	244.100	0	127.5	4	42.0	4	-1E+10	1	-1E+10	1	-1E+10	1	-1E+10	1	-1E+10	1	-1E+10	1
4902549	52	C	01/16/2022	03:59	-132.113	47.451	0	247.50	0	5.9480	0	33.8430	0	26.648	0	245.289	0	127.3	4	42.0	4	-1E+10	1	-1E+10	1	-1E+10	1	-1E+10	1	-1E+10	1	-1E+10	1
4902549	52	C	01/16/2022	03:59	-132.113	47.451	0	248.70	0	5.9310	0	33.8410	0	26.648	0	246.477	0	127.1	4	41.9	4	-1E+10	1	-1E+10	1	-1E+10	1	-1E+10	1	-1E+10	1	-1E+10	1
4902549	52	C	01/16/2022	03:59	-132.113	47.451	0	249.90	0	5.9240	0	33.8410	0	26.649	0	247.666	0	126.8	4	41.8	4	-1E+10	1	-1E+10	1	-1E+10	1	-1E+10	1	-1E+10	1	-1E+10	1
4902549	52	C	01/16/2022	03:59	-132.113	47.451	0	251.10	0	5.9240	0	33.8410	0	26.649	0	248.854	0	126.6	4	41.7	4	-1E+10	1	-1E+10	1	-1E+10	1	-1E+10	1	-1E+10	1	-1E+10	1
4902549	52	C	01/16/2022	03:59	-132.113	47.451	0	252.30	0	5.8950	0	33.8410	0	26.653	0	250.043	0	126.4	4	41.7	4	-1E+10	1	-1E+10	1	-1E+10	1	-1E+10	1	-1E+10	1	-1E+10	1
4902549	52	C	01/16/2022	03:59	-132.113	47.451	0	253.50	0	5.8770	0	33.8360	0	26.651	0	251.231	0	126.2	4	41.6	4	-1E+10	1	-1E+10	1	-1E+10	1	-1E+10	1	-1E+10	1	-1E+10	1
4902549	52	C	01/16/2022	03:59	-132.113	47.451	0	254.60	0	5.8770	0	33.8390	0	26.653	0	252.321	0	125.9	4	41.4	4	-1E+10	1	-1E+10	1	-1E+10	1	-1E+10	1	-1E+10	1	-1E+10	1
4902549	52	C	01/16/2022	03:59	-132.113	47.451	0	255.80	0	5.8500	0	33.8400	0	26.658	0	253.509	0	125.6	4	41.3	4	-1E+10	1	-1E+10	1	-1E+10	1	-1E+10	1	-1E+10	1	-1E+10	1
4902549	52	C	01/16/2022	03:59	-132.113	47.451	0	257.00	0	5.8430	0	33.8400	0	26.658	0	254.698	0	125.3	4	41.2	4	-1E+10	1	-1E+10	1	-1E+10	1	-1E+10	1	-1E+10	1	-1E+10	1
4902549	52	C	01/16/2022	03:59	-132.113	47.451	0	258.10	0	5.8370	0	33.8390	0	26.658	0	255.787	0	125.0	4	41.1	4	-1E+10	1	-1E+10	1	-1E+10	1	-1E+10	1	-1E+10	1	-1E+10	1
4902549	52	C	01/16/2022	03:59	-132.113	47.451	0	259.30	0	5.8280	0	33.8400	0	26.660	0	256.976	0	124.6	4	41.0	4	-1E+10	1	-1E+10	1	-1E+10	1	-1E+10	1	-1E+10	1	-1E+10	1
4902549	52	C	01/16/2022	03:59	-132.113	47.451	0	260.40	0	5.8070	0	33.8380	0	26.661	0	258.065	0	124.1	4	40.8	4	-1E+10	1	-1E+10	1	-1E+10	1	-1E+10	1	-1E+10	1	-1E+10	1
4902549	52	C	01/16/2022	03:59	-132.113	47.451	0	261.60	0	5.8010	0	33.8360	0	26.660	0	259.254	0	123.5	4	40.6	4	-1E+10	1	-1E+10	1	-1E+10	1	-1E+10	1	-1E+10	1	-1E+10	1
4902549	52	C	01/16/2022	03:59	-132.113	47.451	0	262.70	0	5.7910	0	33.8350	0	26.661	0	260.343	0	122.8	4	40.3	4	-1E+10	1	-1E+10	1	-1E+10	1	-1E+10	1	-1E+10	1	-1E+10	1
4902549	52	C	01/16/2022	03:59	-132.113	47.451	0	263.90	0	5.7650	0	33.8370	0	26.666	0	261.532	0	122.2	4	40.1	4	-1E+10	1	-1E+10	1	-1E+10	1	-1E+10	1	-1E+10	1	-1E+10	1
4902549	52	C	01/16/2022	03:59	-132.113	47.451	0	265.00	0	5.7640	0	33.8370	0	26.666	0	262.621	0	121.5	4	39.9	4	-1E+10	1	-1E+10	1	-1E+10	1	-1E+10	1	-1E+10	1	-1E+10	1
4902549	52	C	01/16/2022	03:59	-132.113	47.451	0	266.20	0	5.7440	0	33.8360	0	26.667	0	263.810	0	120.8	4	39.6	4	-1E+10	1	-1E+10	1	-1E+10	1	-1E+10	1	-1E+10	1	-1E+10	1
4902549	52	C	01/16/2022	03:59	-132.113	47.451	0	267.30	0	5.6950	0	33.8440	0	26.680	0	264.899	0	120.4	4	39.5	4	-1E+10	1	-1E+10	1	-1E+10	1	-1E+10	1	-1E+10	1	-1E+10	1
4902549	52	C	01/16/2022	03:59	-132.113	47.451	0	268.50	0	5.6670	0	33.8420	0	26.682	0	266.087	0	120.1	4	39.3	4	-1E+10	1	-1E+10	1	-1E+10	1	-1E+10	1	-1E+10	1	-1E+10	1
4902549	52	C	01/16/2022	03:59	-132.113	47.451	0	269.60	0	5.6650	0	33.8420	0	26.682	0	267.177	0	119.6	4	39.2	4	-1E+10	1	-1E+10	1	-1E+10	1	-1E+10	1	-1E+10	1	-1E+10	1
4902549	52	C	01/16/2022	03:59	-132.113	47.451	0	270.80	0	5.6640	0	33.8410	0	26.681	0	268.365	0	119.2	4	39.0	4	-1E+10	1	-1E+10	1	-1E+10	1	-1E+10	1	-1E+10	1	-1E+10	1
4902549	52	C	01/16/2022	03:59	-132.113	47.451	0	271.90	0	5.6610	0	33.8420	0	26.682	0	269.455	0	118.6	4	38.9	4	-1E+10	1	-1E+10	1	-1E+10	1	-1E+10	1	-1E+10	1	-1E+10	1
4902549	52	C	01/16/2022	03:59	-132.113	47.451	0	273.00	0	5.6420	0	33.8470	0	26.689	0	270.544	0	118.2	4	38.7	4	-1E+10	1	-1E+10	1	-1E+10	1	-1E+10	1	-1E+10	1	-1E+10	1
4902549	52	C	01/16/2022	03:59	-132.113	47.451	0	274.10	0	5.6350	0	33.8440	0	26.687	0	271.633	0	117.8	4	38.6	4	-1E+10	1	-1E+10	1	-1E+10	1	-1E+10	1	-1E+10	1	-1E+10	1
4902549	52	C	01/16/2022	03:59	-132.113	47.451	0	275.20	0	5.6290	0	33.8430	0	26.687	0	272.723	0	117.4	4	38.4	4	-1E+10	1	-1E+10	1	-1E+10	1	-1E+10	1	-1E+10	1	-1E+10	1
4902549	52	C	01/16/2022	03:59	-132.113	47.451	0	276.30	0	5.6080	0	33.8460	0	26.692	0	273.812	0	117.1	4	38.3	4	-1E+10	1	-1E+10	1	-1E+10	1	-1E+10	1	-1E+10	1	-1E+10	1
4902549	52	C	01/16/2022	03:59	-132.113	47.451	0	277.30	0	5.5980	0	33.8460	0	26.693	0	274.802	0	116.8	4	38.2	4	-1E+10	1	-1E+10	1	-1E+10	1	-1E+10	1	-1E+10	1	-1E+10	1
4902549	52	C	01/16/2022	03:59	-132.113	47.451	0	278.90	0	5.5900	0	33.8450	0	26.693	0	276.387	0	116.2	4	38.0	4	-1E+10	1	-1E+10	1	-1E+10	1	-1E+10	1	-1E+10	1	-1E+10	1
4902549	52	C	01/16/2022	03:59	-132.113	47.451	0	280.20	0	5.5760	0	33.8460	0	26.696	0	277.674	0	115.8	4	37.9	4	-1E+10	1	-1E+10	1	-1E+10	1	-1E+10	1	-1E+10	1	-1E+10	1
4902549	52	C	01/16/2022	03:59	-132.113	47.451	0	281.00	0	5.5730	0	33.8460	0	26.696	0	278.467	0	115.6	4	37.8	4	-1E+10	1	-1E+10	1	-1E+10	1	-1E+10	1	-1E+10	1	-1E+10	1
4902549	52	C	01/16/2022	03:59	-132.113	47.451	0	281.80	0	5.5720	0	33.8460	0	26.696	0	279.259	0	115.3	4	37.7	4	-1E+10	1	-1E+10	1	-1E+10	1	-1E+10	1	-1E+10	1	-1E+10	1
4902549	52	C	01/16/2022	03:59	-132.113	47.451	0	282.60	0	5.5670	0	33.8460	0	26.697	0	280.051	0	115.0	4	37.6	4	-1E+10	1	-1E+10	1	-1E+10	1	-1E+10	1	-1E+10	1	-1E+10	1
4902549	52	C	01/16/2022	03:59	-132.113	47.451	0	283.90	0	5.5570	0	33.8460	0	26.698	0	281.339	0	114.5	4	37.4	4	-1E+10	1	-1E+10	1	-1E+10	1	-1E+10	1	-1E+10	1	-1E+10	1
4902549	52	C	01/16/2022	03:59	-132.113	47.451	0	285.10	0	5.5410	0	33.8460	0	26.700	0	282.527	0	113.9	4	37.2	4	-1E+10	1	-1E+10	1	-1E+10	1	-1E+10	1	-1E+10	1	-1E+10	1
4902549	52	C	01/16/2022	03:59	-132.113	47.451	0	285.90	0	5.5040	0	33.8520	0	26.709	0	283.319	0	113.7	4	37.1	4	-1E+10	1	-1E+10	1	-1E+10	1	-1E+10	1	-1E+10	1	-1E+10	1
4902549	52	C	01/16/2022	03:59	-132.113	47.451	0	286.70	0	5.5000	0	33.8460	0	26.705	0	284.111	0	113.4	4	37.0	4	-1E+10	1	-1E+10	1	-1E+10	1	-1E+10	1	-1E+10	1	-1E+10	1
4902549	52	C	01/16/2022	03:59	-132.113	47.451	0	287.90	0	5.4970	0	33.8450	0	26.705	0	285.300	0	112.9	4	36.8	4	-1E+10	1	-1E+10	1	-1E+10	1	-1E+10	1	-1E+10	1	-1E+10	1
4902549	52	C	01/16/2022	03:59	-132.113	47.451	0	289.20	0	5.4790	0	33.8470	0	26.708	0	286.587	0	112.3	4	36.6	4	-1E+10	1	-1E+10	1	-1E+10	1	-1E+10	1	-1E+10	1	-1E+10	1
4902549	52	C	01/16/2022	03:59	-132.113	47.451	0	290.00	0	5.4490	0	33.8470	0	26.712	0	287.379	0	112.1	4	36.5	4	-1E+10	1	-1E+10	1	-1E+10	1	-1E+10	1	-1E+10	1	-1E+10	1
4902549	52	C	01/16/2022	03:59	-132.113	47.451	0	290.80	0	5.4410	0	33.8460	0	26.712	0	288.171	0	111.8	4	36.4	4	-1E+10	1	-1E+10	1	-1E+10	1	-1E+10	1	-1E+10	1	-1E+10	1
4902549	52	C	01/16/2022	03:59	-132.113	47.451	0	291.60	0	5.4350	0	33.8450	0	26.712	0	288.964	0	111.5	4	36.3	4	-1E+10	1	-1E+10	1	-1E+10	1	-1E+10	1	-1E+10	1	-1E+10	1
4902549	52	C	01/16/2022	03:59	-132.113	47.451	0	292.90	0	5.4280	0	33.8450	0	26.713	0	290.251	0	111.0	4	36.2	4	-1E+10	1	-1E+10	1	-1E+10	1	-1E+10	1	-1E+10	1	-1E+10	1
4902549	52	C	01/16/2022	03:59	-132.113	47.451	0	294.10	0	5.4210	0	33.8460	0	26.714	0	291.439	0	110.4	4	36.0	4	-1E+10	1	-1E+10	1	-1E+10	1	-1E+10	1	-1E+10	1	-1E+10	1
4902549	52	C	01/16/2022	03:59	-132.113	47.451	0	295.00	0	5.4150	0	33.8450	0	26.714	0	292.331	0	110.0	4	35.8	4	-1E+10	1	-1E+10	1	-1E+10	1	-1E+10	1	-1E+10	1	-1E+10	1
4902549	52	C	01/16/2022	03:59	-132.113	47.451	0	295.80	0	5.4090	0	33.8450	0	26.715	0	293.123	0	109.5	4	35.7	4	-1E+10	1	-1E+10	1	-1E+10	1	-1E+10	1	-1E+10	1	-1E+10	1
4902549	52	C	01/16/2022	03:59	-132.113	47.451	0	296.60	0	5.4030	0	33.8450	0	26.716	0	293.915	0	109.0	4	35.5	4	-1E+10	1	-1E+10	1	-1E+10	1	-1E+10	1	-1E+10	1	-1E+10	1
4902549	52	C	01/16/2022	03:59	-132.113	47.451	0	297.90	0	5.3990	0	33.8440	0	26.715	0	295.202	0	108.1	4	35.2	4	-1E+10	1	-1E+10	1	-1E+10	1	-1E+10	1	-1E+10	1	-1E+10	1
4902549	52	C	01/16/2022	03:59	-132.113	47.451	0	299.10	0	5.3860	0	33.8460	0	26.719	0	296.391	0	107.2	4	34.9	4	-1E+10	1	-1E+10	1	-1E+10	1	-1E+10	1	-1E+10	1	-1E+10	1
4902549	52	C	01/16/2022	03:59	-132.113	47.451	0	300.00	0	5.3770	0	33.8470	0	26.720	0	297.282	0	106.6	4	34.7	4	-1E+10	1	-1E+10	1	-1E+10	1	-1E+10	1	-1E+10	1	-1E+10	1
4902549	52	C	01/16/2022	03:59	-132.113	47.451	0	300.80	0	5.3530	0	33.8480	0	26.724	0	298.074	0	106.1	4	34.5	4	-1E+10	1	-1E+10	1	-1E+10	1	-1E+10	1	-1E+10	1	-1E+10	1
4902549	52	C	01/16/2022	03:59	-132.113	47.451	0	301.70	0	5.3410	0	33.8480	0	26.725	0	298.965	0	105.6	4	34.3	4	-1E+10	1	-1E+10	1	-1E+10	1	-1E+10	1	-1E+10	1	-1E+10	1
4902549	52	C	01/16/2022	03:59	-132.113	47.451	0	302.90	0	5.3230	0	33.8510	0	26.730	0	300.153	0	104.9	4	34.1	4	-1E+10	1	-1E+10	1	-1E+10	1	-1E+10	1	-1E+10	1	-1E+10	1
4902549	52	C	01/16/2022	03:59	-132.113	47.451	0	304.30	0	5.3120	0	33.8520	0	26.732	0	301.540	0	104.3	4	33.9	4	-1E+10	1	-1E+10	1	-1E+10	1	-1E+10	1	-1E+10	1	-1E+10	1
4902549	52	C	01/16/2022	03:59	-132.113	47.451	0	305.10	0	5.2960	0	33.8530	0	26.735	0	302.332	0	103.9	4	33.8	4	-1E+10	1	-1E+10	1	-1E+10	1	-1E+10	1	-1E+10	1	-1E+10	1
4902549	52	C	01/16/2022	03:59	-132.113	47.451	0	306.00	0	5.2850	0	33.8540	0	26.737	0	303.223	0	103.6	4	33.6	4	-1E+10	1	-1E+10	1	-1E+10	1	-1E+10	1	-1E+10	1	-1E+10	1
4902549	52	C	01/16/2022	03:59	-132.113	47.451	0	306.90	0	5.2810	0	33.8540	0	26.737	0	304.114	0	103.1	4	33.5	4	-1E+10	1	-1E+10	1	-1E+10	1	-1E+10	1	-1E+10	1	-1E+10	1
4902549	52	C	01/16/2022	03:59	-132.113	47.451	0	307.80	0	5.2800	0	33.8540	0	26.737	0	305.005	0	102.7	4	33.4	4	-1E+10	1	-1E+10	1	-1E+10	1	-1E+10	1	-1E+10	1	-1E+10	1
4902549	52	C	01/16/2022	03:59	-132.113	47.451	0	308.70	0	5.2770	0	33.8540	0	26.738	0	305.896	0	102.1	4	33.2	4	-1E+10	1	-1E+10	1	-1E+10	1	-1E+10	1	-1E+10	1	-1E+10	1
4902549	52	C	01/16/2022	03:59	-132.113	47.451	0	309.60	0	5.2710	0	33.8540	0	26.738	0	306.788	0	101.6	4	33.0	4	-1E+10	1	-1E+10	1	-1E+10	1	-1E+10	1	-1E+10	1	-1E+10	1
4902549	52	C	01/16/2022	03:59	-132.113	47.451	0	310.90	0	5.2580	0	33.8570	0	26.742	0	308.075	0	100.7	4	32.7	4	-1E+10	1	-1E+10	1	-1E+10	1	-1E+10	1	-1E+10	1	-1E+10	1
4902549	52	C	01/16/2022	03:59	-132.113	47.451	0	312.30	0	5.2380	0	33.8590	0	26.746	0	309.461	0	100.0	4	32.4	4	-1E+10	1	-1E+10	1	-1E+10	1	-1E+10	1	-1E+10	1	-1E+10	1
4902549	52	C	01/16/2022	03:59	-132.113	47.451	0	313.20	0	5.2140	0	33.8600	0	26.750	0	310.352	0	99.7	4	32.3	4	-1E+10	1	-1E+10	1	-1E+10	1	-1E+10	1	-1E+10	1	-1E+10	1
4902549	52	C	01/16/2022	03:59	-132.113	47.451	0	314.10	0	5.2090	0	33.8600	0	26.750	0	311.243	0	99.2	4	32.2	4	-1E+10	1	-1E+10	1	-1E+10	1	-1E+10	1	-1E+10	1	-1E+10	1
4902549	52	C	01/16/2022	03:59	-132.113	47.451	0	315.10	0	5.2010	0	33.8600	0	26.751	0	312.234	0	98.8	4	32.0	4	-1E+10	1	-1E+10	1	-1E+10	1	-1E+10	1	-1E+10	1	-1E+10	1
4902549	52	C	01/16/2022	03:59	-132.113	47.451	0	316.00	0	5.1920	0	33.8610	0	26.753	0	313.125	0	98.4	4	31.9	4	-1E+10	1	-1E+10	1	-1E+10	1	-1E+10	1	-1E+10	1	-1E+10	1
4902549	52	C	01/16/2022	03:59	-132.113	47.451	0	316.90	0	5.1690	0	33.8620	0	26.757	0	314.016	0	98.0	4	31.8	4	-1E+10	1	-1E+10	1	-1E+10	1	-1E+10	1	-1E+10	1	-1E+10	1
4902549	52	C	01/16/2022	03:59	-132.113	47.451	0	317.80	0	5.1600	0	33.8620	0	26.758	0	314.907	0	97.8	4	31.7	4	-1E+10	1	-1E+10	1	-1E+10	1	-1E+10	1	-1E+10	1	-1E+10	1
4902549	52	C	01/16/2022	03:59	-132.113	47.451	0	318.70	0	5.1540	0	33.8630	0	26.759	0	315.798	0	97.5	4	31.6	4	-1E+10	1	-1E+10	1	-1E+10	1	-1E+10	1	-1E+10	1	-1E+10	1
4902549	52	C	01/16/2022	03:59	-132.113	47.451	0	319.60	0	5.1450	0	33.8630	0	26.760	0	316.689	0	97.1	4	31.4	4	-1E+10	1	-1E+10	1	-1E+10	1	-1E+10	1	-1E+10	1	-1E+10	1
4902549	52	C	01/16/2022	03:59	-132.113	47.451	0	320.60	0	5.1400	0	33.8630	0	26.761	0	317.679	0	96.8	4	31.3	4	-1E+10	1	-1E+10	1	-1E+10	1	-1E+10	1	-1E+10	1	-1E+10	1
4902549	52	C	01/16/2022	03:59	-132.113	47.451	0	321.90	0	5.1290	0	33.8640	0	26.763	0	318.966	0	96.3	4	31.2	4	-1E+10	1	-1E+10	1	-1E+10	1	-1E+10	1	-1E+10	1	-1E+10	1
4902549	52	C	01/16/2022	03:59	-132.113	47.451	0	323.40	0	5.1220	0	33.8640	0	26.764	0	320.452	0	95.8	4	31.0	4	-1E+10	1	-1E+10	1	-1E+10	1	-1E+10	1	-1E+10	1	-1E+10	1
4902549	52	C	01/16/2022	03:59	-132.113	47.451	0	324.30	0	5.1190	0	33.8640	0	26.764	0	321.343	0	95.5	4	30.9	4	-1E+10	1	-1E+10	1	-1E+10	1	-1E+10	1	-1E+10	1	-1E+10	1
4902549	52	C	01/16/2022	03:59	-132.113	47.451	0	325.20	0	5.1150	0	33.8640	0	26.765	0	322.234	0	95.1	4	30.8	4	-1E+10	1	-1E+10	1	-1E+10	1	-1E+10	1	-1E+10	1	-1E+10	1
4902549	52	C	01/16/2022	03:59	-132.113	47.451	0	326.20	0	5.1140	0	33.8640	0	26.765	0	323.224	0	94.6	4	30.6	4	-1E+10	1	-1E+10	1	-1E+10	1	-1E+10	1	-1E+10	1	-1E+10	1
4902549	52	C	01/16/2022	03:59	-132.113	47.451	0	327.10	0	5.1100	0	33.8640	0	26.765	0	324.115	0	94.2	4	30.5	4	-1E+10	1	-1E+10	1	-1E+10	1	-1E+10	1	-1E+10	1	-1E+10	1
4902549	52	C	01/16/2022	03:59	-132.113	47.451	0	328.10	0	5.1070	0	33.8650	0	26.766	0	325.105	0	93.7	4	30.3	4	-1E+10	1	-1E+10	1	-1E+10	1	-1E+10	1	-1E+10	1	-1E+10	1
4902549	52	C	01/16/2022	03:59	-132.113	47.451	0	329.00	0	5.0960	0	33.8660	0	26.768	0	325.996	0	93.1	4	30.1	4	-1E+10	1	-1E+10	1	-1E+10	1	-1E+10	1	-1E+10	1	-1E+10	1
4902549	52	C	01/16/2022	03:59	-132.113	47.451	0	330.00	0	5.0890	0	33.8650	0	26.768	0	326.986	0	92.6	4	29.9	4	-1E+10	1	-1E+10	1	-1E+10	1	-1E+10	1	-1E+10	1	-1E+10	1
4902549	52	C	01/16/2022	03:59	-132.113	47.451	0	330.90	0	5.0630	0	33.8660	0	26.772	0	327.877	0	92.2	4	29.8	4	-1E+10	1	-1E+10	1	-1E+10	1	-1E+10	1	-1E+10	1	-1E+10	1
4902549	52	C	01/16/2022	03:59	-132.113	47.451	0	331.90	0	5.0400	0	33.8730	0	26.780	0	328.867	0	91.9	4	29.7	4	-1E+10	1	-1E+10	1	-1E+10	1	-1E+10	1	-1E+10	1	-1E+10	1
4902549	52	C	01/16/2022	03:59	-132.113	47.451	0	332.90	0	5.0340	0	33.8670	0	26.776	0	329.857	0	91.5	4	29.5	4	-1E+10	1	-1E+10	1	-1E+10	1	-1E+10	1	-1E+10	1	-1E+10	1
4902549	52	C	01/16/2022	03:59	-132.113	47.451	0	333.80	0	5.0220	0	33.8670	0	26.778	0	330.748	0	91.1	4	29.4	4	-1E+10	1	-1E+10	1	-1E+10	1	-1E+10	1	-1E+10	1	-1E+10	1
4902549	52	C	01/16/2022	03:59	-132.113	47.451	0	334.80	0	5.0180	0	33.8680	0	26.779	0	331.739	0	90.7	4	29.3	4	-1E+10	1	-1E+10	1	-1E+10	1	-1E+10	1	-1E+10	1	-1E+10	1
4902549	52	C	01/16/2022	03:59	-132.113	47.451	0	335.90	0	5.0030	0	33.8690	0	26.781	0	332.828	0	90.4	4	29.2	4	-1E+10	1	-1E+10	1	-1E+10	1	-1E+10	1	-1E+10	1	-1E+10	1
4902549	52	C	01/16/2022	03:59	-132.113	47.451	0	336.90	0	4.9990	0	33.8680	0	26.781	0	333.818	0	90.0	4	29.0	4	-1E+10	1	-1E+10	1	-1E+10	1	-1E+10	1	-1E+10	1	-1E+10	1
4902549	52	C	01/16/2022	03:59	-132.113	47.451	0	337.90	0	4.9940	0	33.8690	0	26.782	0	334.808	0	89.5	4	28.9	4	-1E+10	1	-1E+10	1	-1E+10	1	-1E+10	1	-1E+10	1	-1E+10	1
4902549	52	C	01/16/2022	03:59	-132.113	47.451	0	338.90	0	4.9840	0	33.8680	0	26.783	0	335.798	0	89.1	4	28.7	4	-1E+10	1	-1E+10	1	-1E+10	1	-1E+10	1	-1E+10	1	-1E+10	1
4902549	52	C	01/16/2022	03:59	-132.113	47.451	0	339.90	0	4.9810	0	33.8680	0	26.783	0	336.788	0	88.6	4	28.6	4	-1E+10	1	-1E+10	1	-1E+10	1	-1E+10	1	-1E+10	1	-1E+10	1
4902549	52	C	01/16/2022	03:59	-132.113	47.451	0	341.00	0	4.9730	0	33.8660	0	26.782	0	337.877	0	88.2	4	28.4	4	-1E+10	1	-1E+10	1	-1E+10	1	-1E+10	1	-1E+10	1	-1E+10	1
4902549	52	C	01/16/2022	03:59	-132.113	47.451	0	342.00	0	4.9680	0	33.8680	0	26.785	0	338.867	0	87.6	4	28.2	4	-1E+10	1	-1E+10	1	-1E+10	1	-1E+10	1	-1E+10	1	-1E+10	1
4902549	52	C	01/16/2022	03:59	-132.113	47.451	0	343.00	0	4.9510	0	33.8690	0	26.787	0	339.857	0	87.1	4	28.1	4	-1E+10	1	-1E+10	1	-1E+10	1	-1E+10	1	-1E+10	1	-1E+10	1
4902549	52	C	01/16/2022	03:59	-132.113	47.451	0	344.10	0	4.9450	0	33.8700	0	26.789	0	340.946	0	86.6	4	27.9	4	-1E+10	1	-1E+10	1	-1E+10	1	-1E+10	1	-1E+10	1	-1E+10	1
4902549	52	C	01/16/2022	03:59	-132.113	47.451	0	345.10	0	4.9280	0	33.8720	0	26.792	0	341.936	0	86.2	4	27.8	4	-1E+10	1	-1E+10	1	-1E+10	1	-1E+10	1	-1E+10	1	-1E+10	1
4902549	52	C	01/16/2022	03:59	-132.113	47.451	0	346.20	0	4.9180	0	33.8730	0	26.794	0	343.025	0	85.8	4	27.6	4	-1E+10	1	-1E+10	1	-1E+10	1	-1E+10	1	-1E+10	1	-1E+10	1
4902549	52	C	01/16/2022	03:59	-132.113	47.451	0	347.20	0	4.9110	0	33.8730	0	26.795	0	344.015	0	85.4	4	27.5	4	-1E+10	1	-1E+10	1	-1E+10	1	-1E+10	1	-1E+10	1	-1E+10	1
4902549	52	C	01/16/2022	03:59	-132.113	47.451	0	348.30	0	4.9070	0	33.8740	0	26.796	0	345.104	0	84.9	4	27.3	4	-1E+10	1	-1E+10	1	-1E+10	1	-1E+10	1	-1E+10	1	-1E+10	1
4902549	52	C	01/16/2022	03:59	-132.113	47.451	0	349.30	0	4.9070	0	33.8730	0	26.795	0	346.094	0	84.4	4	27.2	4	-1E+10	1	-1E+10	1	-1E+10	1	-1E+10	1	-1E+10	1	-1E+10	1
4902549	52	C	01/16/2022	03:59	-132.113	47.451	0	350.40	0	4.8990	0	33.8750	0	26.798	0	347.183	0	83.9	4	27.0	4	-1E+10	1	-1E+10	1	-1E+10	1	-1E+10	1	-1E+10	1	-1E+10	1
4902549	52	C	01/16/2022	03:59	-132.113	47.451	0	352.90	0	4.8780	0	33.8770	0	26.802	0	349.658	0	82.6	4	26.6	4	-1E+10	1	-1E+10	1	-1E+10	1	-1E+10	1	-1E+10	1	-1E+10	1
4902549	52	C	01/16/2022	03:59	-132.113	47.451	0	358.00	0	4.8320	0	33.8830	0	26.812	0	354.707	0	80.4	4	25.9	4	-1E+10	1	-1E+10	1	-1E+10	1	-1E+10	1	-1E+10	1	-1E+10	1
4902549	52	C	01/16/2022	03:59	-132.113	47.451	0	363.20	0	4.8020	0	33.8870	0	26.818	0	359.854	0	77.7	4	24.9	4	-1E+10	1	-1E+10	1	-1E+10	1	-1E+10	1	-1E+10	1	-1E+10	1
4902549	52	C	01/16/2022	03:59	-132.113	47.451	0	368.20	0	4.7470	0	33.8930	0	26.829	0	364.804	0	75.5	4	24.2	4	-1E+10	1	-1E+10	1	-1E+10	1	-1E+10	1	-1E+10	1	-1E+10	1
4902549	52	C	01/16/2022	03:59	-132.113	47.451	0	372.80	0	4.7150	0	33.8980	0	26.837	0	369.357	0	73.9	4	23.7	4	-1E+10	1	-1E+10	1	-1E+10	1	-1E+10	1	-1E+10	1	-1E+10	1
4902549	52	C	01/16/2022	03:59	-132.113	47.451	0	377.60	0	4.6930	0	33.9030	0	26.843	0	374.109	0	72.8	4	23.3	4	-1E+10	1	-1E+10	1	-1E+10	1	-1E+10	1	-1E+10	1	-1E+10	1
4902549	52	C	01/16/2022	03:59	-132.113	47.451	0	382.80	0	4.6790	0	33.9070	0	26.848	0	379.256	0	71.4	4	22.9	4	-1E+10	1	-1E+10	1	-1E+10	1	-1E+10	1	-1E+10	1	-1E+10	1
4902549	52	C	01/16/2022	03:59	-132.113	47.451	0	388.00	0	4.6640	0	33.9110	0	26.853	0	384.403	0	70.0	4	22.4	4	-1E+10	1	-1E+10	1	-1E+10	1	-1E+10	1	-1E+10	1	-1E+10	1
4902549	52	C	01/16/2022	03:59	-132.113	47.451	0	393.20	0	4.6390	0	33.9180	0	26.861	0	389.550	0	68.6	4	21.9	4	-1E+10	1	-1E+10	1	-1E+10	1	-1E+10	1	-1E+10	1	-1E+10	1
4902549	52	C	01/16/2022	03:59	-132.113	47.451	0	398.00	0	4.6310	0	33.9200	0	26.864	0	394.301	0	67.3	4	21.5	4	-1E+10	1	-1E+10	1	-1E+10	1	-1E+10	1	-1E+10	1	-1E+10	1
4902549	52	C	01/16/2022	03:59	-132.113	47.451	0	402.70	0	4.6180	0	33.9240	0	26.868	0	398.952	0	65.4	4	20.9	4	-1E+10	1	-1E+10	1	-1E+10	1	-1E+10	1	-1E+10	1	-1E+10	1
4902549	52	C	01/16/2022	03:59	-132.113	47.451	0	408.00	0	4.5820	0	33.9350	0	26.881	0	404.198	0	63.2	4	20.2	4	-1E+10	1	-1E+10	1	-1E+10	1	-1E+10	1	-1E+10	1	-1E+10	1
4902549	52	C	01/16/2022	03:59	-132.113	47.451	0	412.80	0	4.5470	0	33.9420	0	26.890	0	408.948	0	61.9	4	19.8	4	-1E+10	1	-1E+10	1	-1E+10	1	-1E+10	1	-1E+10	1	-1E+10	1
4902549	52	C	01/16/2022	03:59	-132.113	47.451	0	417.70	0	4.5340	0	33.9460	0	26.895	0	413.798	0	60.8	4	19.4	4	-1E+10	1	-1E+10	1	-1E+10	1	-1E+10	1	-1E+10	1	-1E+10	1
4902549	52	C	01/16/2022	03:59	-132.113	47.451	0	423.00	0	4.5170	0	33.9500	0	26.900	0	419.043	0	59.4	4	18.9	4	-1E+10	1	-1E+10	1	-1E+10	1	-1E+10	1	-1E+10	1	-1E+10	1
4902549	52	C	01/16/2022	03:59	-132.113	47.451	0	428.00	0	4.5020	0	33.9550	0	26.906	0	423.991	0	58.1	4	18.5	4	-1E+10	1	-1E+10	1	-1E+10	1	-1E+10	1	-1E+10	1	-1E+10	1
4902549	52	C	01/16/2022	03:59	-132.113	47.451	0	432.90	0	4.5040	0	33.9600	0	26.909	0	428.840	0	57.2	4	18.2	4	-1E+10	1	-1E+10	1	-1E+10	1	-1E+10	1	-1E+10	1	-1E+10	1
4902549	52	C	01/16/2022	03:59	-132.113	47.451	0	437.90	0	4.4970	0	33.9620	0	26.912	0	433.788	0	56.3	4	18.0	4	-1E+10	1	-1E+10	1	-1E+10	1	-1E+10	1	-1E+10	1	-1E+10	1
4902549	52	C	01/16/2022	03:59	-132.113	47.451	0	442.90	0	4.4800	0	33.9680	0	26.918	0	438.736	0	55.3	4	17.6	4	-1E+10	1	-1E+10	1	-1E+10	1	-1E+10	1	-1E+10	1	-1E+10	1
4902549	52	C	01/16/2022	03:59	-132.113	47.451	0	448.00	0	4.4510	0	33.9720	0	26.925	0	443.782	0	54.0	4	17.2	4	-1E+10	1	-1E+10	1	-1E+10	1	-1E+10	1	-1E+10	1	-1E+10	1
4902549	52	C	01/16/2022	03:59	-132.113	47.451	0	452.70	0	4.4390	0	33.9770	0	26.930	0	448.433	0	52.7	4	16.8	4	-1E+10	1	-1E+10	1	-1E+10	1	-1E+10	1	-1E+10	1	-1E+10	1
4902549	52	C	01/16/2022	03:59	-132.113	47.451	0	458.00	0	4.4190	0	33.9850	0	26.939	0	453.677	0	51.4	4	16.4	4	-1E+10	1	-1E+10	1	-1E+10	1	-1E+10	1	-1E+10	1	-1E+10	1
4902549	52	C	01/16/2022	03:59	-132.113	47.451	0	463.30	0	4.4100	0	33.9910	0	26.944	0	458.921	0	50.2	4	16.0	4	-1E+10	1	-1E+10	1	-1E+10	1	-1E+10	1	-1E+10	1	-1E+10	1
4902549	52	C	01/16/2022	03:59	-132.113	47.451	0	468.00	0	4.3910	0	33.9950	0	26.950	0	463.572	0	49.7	4	15.8	4	-1E+10	1	-1E+10	1	-1E+10	1	-1E+10	1	-1E+10	1	-1E+10	1
4902549	52	C	01/16/2022	03:59	-132.113	47.451	0	472.70	0	4.3920	0	33.9960	0	26.950	0	468.222	0	48.9	4	15.6	4	-1E+10	1	-1E+10	1	-1E+10	1	-1E+10	1	-1E+10	1	-1E+10	1
4902549	52	C	01/16/2022	03:59	-132.113	47.451	0	477.80	0	4.3760	0	33.9980	0	26.954	0	473.268	0	47.7	4	15.2	4	-1E+10	1	-1E+10	1	-1E+10	1	-1E+10	1	-1E+10	1	-1E+10	1
4902549	52	C	01/16/2022	03:59	-132.113	47.451	0	482.80	0	4.3550	0	34.0050	0	26.961	0	478.215	0	46.1	4	14.7	4	-1E+10	1	-1E+10	1	-1E+10	1	-1E+10	1	-1E+10	1	-1E+10	1
4902549	52	C	01/16/2022	03:59	-132.113	47.451	0	487.90	0	4.3430	0	34.0100	0	26.967	0	483.260	0	44.4	4	14.1	4	-1E+10	1	-1E+10	1	-1E+10	1	-1E+10	1	-1E+10	1	-1E+10	1
4902549	52	C	01/16/2022	03:59	-132.113	47.451	0	492.90	0	4.3230	0	34.0150	0	26.973	0	488.207	0	43.0	4	13.7	4	-1E+10	1	-1E+10	1	-1E+10	1	-1E+10	1	-1E+10	1	-1E+10	1
4902549	52	C	01/16/2022	03:59	-132.113	47.451	0	498.00	0	4.3120	0	34.0190	0	26.977	0	493.252	0	42.2	4	13.4	4	-1E+10	1	-1E+10	1	-1E+10	1	-1E+10	1	-1E+10	1	-1E+10	1
4902549	52	C	01/16/2022	03:59	-132.113	47.451	0	502.90	0	4.2980	0	34.0240	0	26.983	0	498.100	0	41.4	4	13.1	4	-1E+10	1	-1E+10	1	-1E+10	1	-1E+10	1	-1E+10	1	-1E+10	1
4902549	52	C	01/16/2022	03:59	-132.113	47.451	0	507.80	0	4.2930	0	34.0260	0	26.985	0	502.947	0	40.2	4	12.8	4	-1E+10	1	-1E+10	1	-1E+10	1	-1E+10	1	-1E+10	1	-1E+10	1
4902549	52	C	01/16/2022	03:59	-132.113	47.451	0	512.80	0	4.2800	0	34.0300	0	26.989	0	507.893	0	39.0	4	12.4	4	-1E+10	1	-1E+10	1	-1E+10	1	-1E+10	1	-1E+10	1	-1E+10	1
4902549	52	C	01/16/2022	03:59	-132.113	47.451	0	517.70	0	4.2660	0	34.0340	0	26.994	0	512.740	0	38.0	4	12.1	4	-1E+10	1	-1E+10	1	-1E+10	1	-1E+10	1	-1E+10	1	-1E+10	1
4902549	52	C	01/16/2022	03:59	-132.113	47.451	0	522.80	0	4.2530	0	34.0390	0	27.000	0	517.785	0	37.2	4	11.8	4	-1E+10	1	-1E+10	1	-1E+10	1	-1E+10	1	-1E+10	1	-1E+10	1
4902549	52	C	01/16/2022	03:59	-132.113	47.451	0	527.80	0	4.2450	0	34.0410	0	27.002	0	522.731	0	36.0	4	11.4	4	-1E+10	1	-1E+10	1	-1E+10	1	-1E+10	1	-1E+10	1	-1E+10	1
4902549	52	C	01/16/2022	03:59	-132.113	47.451	0	532.80	0	4.2270	0	34.0480	0	27.009	0	527.676	0	34.6	4	11.0	4	-1E+10	1	-1E+10	1	-1E+10	1	-1E+10	1	-1E+10	1	-1E+10	1
4902549	52	C	01/16/2022	03:59	-132.113	47.451	0	537.90	0	4.2070	0	34.0550	0	27.017	0	532.721	0	33.4	4	10.6	4	-1E+10	1	-1E+10	1	-1E+10	1	-1E+10	1	-1E+10	1	-1E+10	1
4902549	52	C	01/16/2022	03:59	-132.113	47.451	0	542.90	0	4.1860	0	34.0620	0	27.025	0	537.666	0	32.4	4	10.3	4	-1E+10	1	-1E+10	1	-1E+10	1	-1E+10	1	-1E+10	1	-1E+10	1
4902549	52	C	01/16/2022	03:59	-132.113	47.451	0	547.50	0	4.1750	0	34.0660	0	27.029	0	542.216	0	31.7	4	10.0	4	-1E+10	1	-1E+10	1	-1E+10	1	-1E+10	1	-1E+10	1	-1E+10	1
4902549	52	C	01/16/2022	03:59	-132.113	47.451	0	552.70	0	4.1610	0	34.0710	0	27.035	0	547.359	0	30.8	4	9.8	4	-1E+10	1	-1E+10	1	-1E+10	1	-1E+10	1	-1E+10	1	-1E+10	1
4902549	52	C	01/16/2022	03:59	-132.113	47.451	0	557.90	0	4.1520	0	34.0750	0	27.039	0	552.502	0	30.0	4	9.5	4	-1E+10	1	-1E+10	1	-1E+10	1	-1E+10	1	-1E+10	1	-1E+10	1
4902549	52	C	01/16/2022	03:59	-132.113	47.451	0	562.70	0	4.1390	0	34.0800	0	27.044	0	557.249	0	29.4	4	9.3	4	-1E+10	1	-1E+10	1	-1E+10	1	-1E+10	1	-1E+10	1	-1E+10	1
4902549	52	C	01/16/2022	03:59	-132.113	47.451	0	567.80	0	4.1260	0	34.0840	0	27.049	0	562.292	0	28.8	4	9.1	4	-1E+10	1	-1E+10	1	-1E+10	1	-1E+10	1	-1E+10	1	-1E+10	1
4902549	52	C	01/16/2022	03:59	-132.113	47.451	0	572.70	0	4.1180	0	34.0860	0	27.051	0	567.138	0	28.1	4	8.9	4	-1E+10	1	-1E+10	1	-1E+10	1	-1E+10	1	-1E+10	1	-1E+10	1
4902549	52	C	01/16/2022	03:59	-132.113	47.451	0	577.80	0	4.1100	0	34.0890	0	27.055	0	572.182	0	27.4	4	8.7	4	-1E+10	1	-1E+10	1	-1E+10	1	-1E+10	1	-1E+10	1	-1E+10	1
4902549	52	C	01/16/2022	03:59	-132.113	47.451	0	582.80	0	4.1010	0	34.0930	0	27.059	0	577.126	0	26.3	4	8.3	4	-1E+10	1	-1E+10	1	-1E+10	1	-1E+10	1	-1E+10	1	-1E+10	1
4902549	52	C	01/16/2022	03:59	-132.113	47.451	0	587.80	0	4.0830	0	34.1010	0	27.067	0	582.071	0	25.4	4	8.0	4	-1E+10	1	-1E+10	1	-1E+10	1	-1E+10	1	-1E+10	1	-1E+10	1
4902549	52	C	01/16/2022	03:59	-132.113	47.451	0	592.80	0	4.0730	0	34.1050	0	27.071	0	587.015	0	24.6	4	7.8	4	-1E+10	1	-1E+10	1	-1E+10	1	-1E+10	1	-1E+10	1	-1E+10	1
4902549	52	C	01/16/2022	03:59	-132.113	47.451	0	597.80	0	4.0630	0	34.1100	0	27.076	0	591.959	0	23.7	4	7.5	4	-1E+10	1	-1E+10	1	-1E+10	1	-1E+10	1	-1E+10	1	-1E+10	1
4902549	52	C	01/16/2022	03:59	-132.113	47.451	0	602.90	0	4.0460	0	34.1160	0	27.083	0	597.002	0	23.1	4	7.3	4	-1E+10	1	-1E+10	1	-1E+10	1	-1E+10	1	-1E+10	1	-1E+10	1
4902549	52	C	01/16/2022	03:59	-132.113	47.451	0	607.90	0	4.0390	0	34.1180	0	27.085	0	601.946	0	22.5	4	7.1	4	-1E+10	1	-1E+10	1	-1E+10	1	-1E+10	1	-1E+10	1	-1E+10	1
4902549	52	C	01/16/2022	03:59	-132.113	47.451	0	613.00	0	4.0250	0	34.1240	0	27.091	0	606.988	0	21.6	4	6.8	4	-1E+10	1	-1E+10	1	-1E+10	1	-1E+10	1	-1E+10	1	-1E+10	1
4902549	52	C	01/16/2022	03:59	-132.113	47.451	0	618.10	0	3.9970	0	34.1320	0	27.101	0	612.031	0	21.0	4	6.6	4	-1E+10	1	-1E+10	1	-1E+10	1	-1E+10	1	-1E+10	1	-1E+10	1
4902549	52	C	01/16/2022	03:59	-132.113	47.451	0	623.10	0	3.9830	0	34.1360	0	27.105	0	616.974	0	20.3	4	6.4	4	-1E+10	1	-1E+10	1	-1E+10	1	-1E+10	1	-1E+10	1	-1E+10	1
4902549	52	C	01/16/2022	03:59	-132.113	47.451	0	628.20	0	3.9710	0	34.1410	0	27.111	0	622.016	0	19.5	4	6.2	4	-1E+10	1	-1E+10	1	-1E+10	1	-1E+10	1	-1E+10	1	-1E+10	1
4902549	52	C	01/16/2022	03:59	-132.113	47.451	0	633.20	0	3.9590	0	34.1460	0	27.116	0	626.960	0	18.9	4	6.0	4	-1E+10	1	-1E+10	1	-1E+10	1	-1E+10	1	-1E+10	1	-1E+10	1
4902549	52	C	01/16/2022	03:59	-132.113	47.451	0	638.00	0	3.9360	0	34.1520	0	27.123	0	631.705	0	18.3	4	5.8	4	-1E+10	1	-1E+10	1	-1E+10	1	-1E+10	1	-1E+10	1	-1E+10	1
4902549	52	C	01/16/2022	03:59	-132.113	47.451	0	642.80	0	3.9210	0	34.1570	0	27.128	0	636.450	0	17.7	4	5.6	4	-1E+10	1	-1E+10	1	-1E+10	1	-1E+10	1	-1E+10	1	-1E+10	1
4902549	52	C	01/16/2022	03:59	-132.113	47.451	0	647.60	0	3.9040	0	34.1620	0	27.134	0	641.196	0	17.2	4	5.4	4	-1E+10	1	-1E+10	1	-1E+10	1	-1E+10	1	-1E+10	1	-1E+10	1
4902549	52	C	01/16/2022	03:59	-132.113	47.451	0	652.60	0	3.8840	0	34.1680	0	27.141	0	646.138	0	16.8	4	5.3	4	-1E+10	1	-1E+10	1	-1E+10	1	-1E+10	1	-1E+10	1	-1E+10	1
4902549	52	C	01/16/2022	03:59	-132.113	47.451	0	657.80	0	3.8720	0	34.1720	0	27.145	0	651.279	0	16.5	4	5.2	4	-1E+10	1	-1E+10	1	-1E+10	1	-1E+10	1	-1E+10	1	-1E+10	1
4902549	52	C	01/16/2022	03:59	-132.113	47.451	0	663.00	0	3.8610	0	34.1750	0	27.149	0	656.419	0	16.1	4	5.1	4	-1E+10	1	-1E+10	1	-1E+10	1	-1E+10	1	-1E+10	1	-1E+10	1
4902549	52	C	01/16/2022	03:59	-132.113	47.451	0	668.10	0	3.8490	0	34.1780	0	27.153	0	661.460	0	15.9	4	5.0	4	-1E+10	1	-1E+10	1	-1E+10	1	-1E+10	1	-1E+10	1	-1E+10	1
4902549	52	C	01/16/2022	03:59	-132.113	47.451	0	673.10	0	3.8410	0	34.1800	0	27.155	0	666.403	0	15.7	4	4.9	4	-1E+10	1	-1E+10	1	-1E+10	1	-1E+10	1	-1E+10	1	-1E+10	1
4902549	52	C	01/16/2022	03:59	-132.113	47.451	0	678.20	0	3.8350	0	34.1820	0	27.157	0	671.444	0	15.4	4	4.9	4	-1E+10	1	-1E+10	1	-1E+10	1	-1E+10	1	-1E+10	1	-1E+10	1
4902549	52	C	01/16/2022	03:59	-132.113	47.451	0	682.90	0	3.8320	0	34.1830	0	27.158	0	676.089	0	15.0	4	4.7	4	-1E+10	1	-1E+10	1	-1E+10	1	-1E+10	1	-1E+10	1	-1E+10	1
4902549	52	C	01/16/2022	03:59	-132.113	47.451	0	687.70	0	3.8120	0	34.1890	0	27.165	0	680.834	0	14.6	4	4.6	4	-1E+10	1	-1E+10	1	-1E+10	1	-1E+10	1	-1E+10	1	-1E+10	1
4902549	52	C	01/16/2022	03:59	-132.113	47.451	0	692.60	0	3.7930	0	34.1940	0	27.171	0	685.677	0	14.2	4	4.5	4	-1E+10	1	-1E+10	1	-1E+10	1	-1E+10	1	-1E+10	1	-1E+10	1
4902549	52	C	01/16/2022	03:59	-132.113	47.451	0	697.60	0	3.7810	0	34.1980	0	27.175	0	690.618	0	13.9	4	4.4	4	-1E+10	1	-1E+10	1	-1E+10	1	-1E+10	1	-1E+10	1	-1E+10	1
4902549	52	C	01/16/2022	03:59	-132.113	47.451	0	702.60	0	3.7700	0	34.2020	0	27.180	0	695.560	0	13.6	4	4.3	4	-1E+10	1	-1E+10	1	-1E+10	1	-1E+10	1	-1E+10	1	-1E+10	1
4902549	52	C	01/16/2022	03:59	-132.113	47.451	0	707.80	0	3.7600	0	34.2050	0	27.183	0	700.699	0	13.4	4	4.2	4	-1E+10	1	-1E+10	1	-1E+10	1	-1E+10	1	-1E+10	1	-1E+10	1
4902549	52	C	01/16/2022	03:59	-132.113	47.451	0	713.10	0	3.7510	0	34.2080	0	27.186	0	705.937	0	13.1	4	4.1	4	-1E+10	1	-1E+10	1	-1E+10	1	-1E+10	1	-1E+10	1	-1E+10	1
4902549	52	C	01/16/2022	03:59	-132.113	47.451	0	717.80	0	3.7450	0	34.2100	0	27.189	0	710.582	0	12.9	4	4.1	4	-1E+10	1	-1E+10	1	-1E+10	1	-1E+10	1	-1E+10	1	-1E+10	1
4902549	52	C	01/16/2022	03:59	-132.113	47.451	0	722.60	0	3.7340	0	34.2130	0	27.192	0	715.325	0	12.7	4	4.0	4	-1E+10	1	-1E+10	1	-1E+10	1	-1E+10	1	-1E+10	1	-1E+10	1
4902549	52	C	01/16/2022	03:59	-132.113	47.451	0	728.00	0	3.7280	0	34.2140	0	27.194	0	720.662	0	12.6	4	3.9	4	-1E+10	1	-1E+10	1	-1E+10	1	-1E+10	1	-1E+10	1	-1E+10	1
4902549	52	C	01/16/2022	03:59	-132.113	47.451	0	732.80	0	3.7220	0	34.2160	0	27.196	0	725.405	0	12.4	4	3.9	4	-1E+10	1	-1E+10	1	-1E+10	1	-1E+10	1	-1E+10	1	-1E+10	1
4902549	52	C	01/16/2022	03:59	-132.113	47.451	0	737.70	0	3.7200	0	34.2170	0	27.197	0	730.247	0	12.2	4	3.8	4	-1E+10	1	-1E+10	1	-1E+10	1	-1E+10	1	-1E+10	1	-1E+10	1
4902549	52	C	01/16/2022	03:59	-132.113	47.451	0	743.00	0	3.7080	0	34.2200	0	27.200	0	735.484	0	11.9	4	3.7	4	-1E+10	1	-1E+10	1	-1E+10	1	-1E+10	1	-1E+10	1	-1E+10	1
4902549	52	C	01/16/2022	03:59	-132.113	47.451	0	747.80	0	3.7000	0	34.2230	0	27.204	0	740.227	0	11.6	4	3.6	4	-1E+10	1	-1E+10	1	-1E+10	1	-1E+10	1	-1E+10	1	-1E+10	1
4902549	52	C	01/16/2022	03:59	-132.113	47.451	0	752.50	0	3.6860	0	34.2260	0	27.207	0	744.871	0	11.4	4	3.6	4	-1E+10	1	-1E+10	1	-1E+10	1	-1E+10	1	-1E+10	1	-1E+10	1
4902549	52	C	01/16/2022	03:59	-132.113	47.451	0	757.70	0	3.6790	0	34.2290	0	27.211	0	750.009	0	11.2	4	3.5	4	-1E+10	1	-1E+10	1	-1E+10	1	-1E+10	1	-1E+10	1	-1E+10	1
4902549	52	C	01/16/2022	03:59	-132.113	47.451	0	763.00	0	3.6670	0	34.2320	0	27.214	0	755.245	0	11.0	4	3.4	4	-1E+10	1	-1E+10	1	-1E+10	1	-1E+10	1	-1E+10	1	-1E+10	1
4902549	52	C	01/16/2022	03:59	-132.113	47.451	0	768.10	0	3.6490	0	34.2370	0	27.220	0	760.284	0	10.7	4	3.3	4	-1E+10	1	-1E+10	1	-1E+10	1	-1E+10	1	-1E+10	1	-1E+10	1
4902549	52	C	01/16/2022	03:59	-132.113	47.451	0	773.00	0	3.6390	0	34.2400	0	27.223	0	765.125	0	10.4	4	3.3	4	-1E+10	1	-1E+10	1	-1E+10	1	-1E+10	1	-1E+10	1	-1E+10	1
4902549	52	C	01/16/2022	03:59	-132.113	47.451	0	777.80	0	3.6280	0	34.2430	0	27.227	0	769.868	0	10.2	4	3.2	4	-1E+10	1	-1E+10	1	-1E+10	1	-1E+10	1	-1E+10	1	-1E+10	1
4902549	52	C	01/16/2022	03:59	-132.113	47.451	0	782.70	0	3.6250	0	34.2440	0	27.228	0	774.709	0	10.1	4	3.2	4	-1E+10	1	-1E+10	1	-1E+10	1	-1E+10	1	-1E+10	1	-1E+10	1
4902549	52	C	01/16/2022	03:59	-132.113	47.451	0	787.90	0	3.6140	0	34.2470	0	27.232	0	779.846	0	9.9	4	3.1	4	-1E+10	1	-1E+10	1	-1E+10	1	-1E+10	1	-1E+10	1	-1E+10	1
4902549	52	C	01/16/2022	03:59	-132.113	47.451	0	793.20	0	3.5990	0	34.2510	0	27.236	0	785.082	0	9.7	4	3.0	4	-1E+10	1	-1E+10	1	-1E+10	1	-1E+10	1	-1E+10	1	-1E+10	1
4902549	52	C	01/16/2022	03:59	-132.113	47.451	0	798.20	0	3.5860	0	34.2540	0	27.240	0	790.021	0	9.5	4	3.0	4	-1E+10	1	-1E+10	1	-1E+10	1	-1E+10	1	-1E+10	1	-1E+10	1
4902549	52	C	01/16/2022	03:59	-132.113	47.451	0	803.10	0	3.5730	0	34.2570	0	27.244	0	794.862	0	9.3	4	2.9	4	-1E+10	1	-1E+10	1	-1E+10	1	-1E+10	1	-1E+10	1	-1E+10	1
4902549	52	C	01/16/2022	03:59	-132.113	47.451	0	808.10	0	3.5640	0	34.2600	0	27.247	0	799.801	0	9.2	4	2.9	4	-1E+10	1	-1E+10	1	-1E+10	1	-1E+10	1	-1E+10	1	-1E+10	1
4902549	52	C	01/16/2022	03:59	-132.113	47.451	0	813.20	0	3.5510	0	34.2640	0	27.251	0	804.839	0	9.2	4	2.9	4	-1E+10	1	-1E+10	1	-1E+10	1	-1E+10	1	-1E+10	1	-1E+10	1
4902549	52	C	01/16/2022	03:59	-132.113	47.451	0	817.90	0	3.5470	0	34.2640	0	27.252	0	809.481	0	9.1	4	2.8	4	-1E+10	1	-1E+10	1	-1E+10	1	-1E+10	1	-1E+10	1	-1E+10	1
4902549	52	C	01/16/2022	03:59	-132.113	47.451	0	822.50	0	3.5420	0	34.2660	0	27.254	0	814.025	0	9.0	4	2.8	4	-1E+10	1	-1E+10	1	-1E+10	1	-1E+10	1	-1E+10	1	-1E+10	1
4902549	52	C	01/16/2022	03:59	-132.113	47.451	0	827.60	0	3.5360	0	34.2670	0	27.255	0	819.062	0	8.9	4	2.8	4	-1E+10	1	-1E+10	1	-1E+10	1	-1E+10	1	-1E+10	1	-1E+10	1
4902549	52	C	01/16/2022	03:59	-132.113	47.451	0	832.50	0	3.5260	0	34.2700	0	27.259	0	823.902	0	8.8	4	2.8	4	-1E+10	1	-1E+10	1	-1E+10	1	-1E+10	1	-1E+10	1	-1E+10	1
4902549	52	C	01/16/2022	03:59	-132.113	47.451	0	837.60	0	3.5110	0	34.2730	0	27.263	0	828.939	0	8.7	4	2.7	4	-1E+10	1	-1E+10	1	-1E+10	1	-1E+10	1	-1E+10	1	-1E+10	1
4902549	52	C	01/16/2022	03:59	-132.113	47.451	0	842.50	0	3.5020	0	34.2760	0	27.266	0	833.779	0	8.6	4	2.7	4	-1E+10	1	-1E+10	1	-1E+10	1	-1E+10	1	-1E+10	1	-1E+10	1
4902549	52	C	01/16/2022	03:59	-132.113	47.451	0	847.60	0	3.4890	0	34.2790	0	27.269	0	838.816	0	8.5	4	2.7	4	-1E+10	1	-1E+10	1	-1E+10	1	-1E+10	1	-1E+10	1	-1E+10	1
4902549	52	C	01/16/2022	03:59	-132.113	47.451	0	852.70	0	3.4820	0	34.2810	0	27.272	0	843.853	0	8.4	4	2.6	4	-1E+10	1	-1E+10	1	-1E+10	1	-1E+10	1	-1E+10	1	-1E+10	1
4902549	52	C	01/16/2022	03:59	-132.113	47.451	0	857.90	0	3.4690	0	34.2840	0	27.275	0	848.988	0	8.3	4	2.6	4	-1E+10	1	-1E+10	1	-1E+10	1	-1E+10	1	-1E+10	1	-1E+10	1
4902549	52	C	01/16/2022	03:59	-132.113	47.451	0	863.10	0	3.4580	0	34.2870	0	27.279	0	854.124	0	8.2	4	2.6	4	-1E+10	1	-1E+10	1	-1E+10	1	-1E+10	1	-1E+10	1	-1E+10	1
4902549	52	C	01/16/2022	03:59	-132.113	47.451	0	867.90	0	3.4500	0	34.2890	0	27.281	0	858.864	0	8.2	4	2.5	4	-1E+10	1	-1E+10	1	-1E+10	1	-1E+10	1	-1E+10	1	-1E+10	1
4902549	52	C	01/16/2022	03:59	-132.113	47.451	0	872.80	0	3.4360	0	34.2930	0	27.286	0	863.703	0	8.1	4	2.5	4	-1E+10	1	-1E+10	1	-1E+10	1	-1E+10	1	-1E+10	1	-1E+10	1
4902549	52	C	01/16/2022	03:59	-132.113	47.451	0	878.00	0	3.4300	0	34.2940	0	27.287	0	868.838	0	8.0	4	2.5	4	-1E+10	1	-1E+10	1	-1E+10	1	-1E+10	1	-1E+10	1	-1E+10	1
4902549	52	C	01/16/2022	03:59	-132.113	47.451	0	883.00	0	3.4210	0	34.2970	0	27.291	0	873.775	0	7.9	4	2.5	4	-1E+10	1	-1E+10	1	-1E+10	1	-1E+10	1	-1E+10	1	-1E+10	1
4902549	52	C	01/16/2022	03:59	-132.113	47.451	0	887.90	0	3.4060	0	34.3010	0	27.295	0	878.614	0	7.8	4	2.4	4	-1E+10	1	-1E+10	1	-1E+10	1	-1E+10	1	-1E+10	1	-1E+10	1
4902549	52	C	01/16/2022	03:59	-132.113	47.451	0	892.80	0	3.3960	0	34.3030	0	27.298	0	883.452	0	7.7	4	2.4	4	-1E+10	1	-1E+10	1	-1E+10	1	-1E+10	1	-1E+10	1	-1E+10	1
4902549	52	C	01/16/2022	03:59	-132.113	47.451	0	897.70	0	3.3880	0	34.3060	0	27.301	0	888.290	0	7.7	4	2.4	4	-1E+10	1	-1E+10	1	-1E+10	1	-1E+10	1	-1E+10	1	-1E+10	1
4902549	52	C	01/16/2022	03:59	-132.113	47.451	0	902.70	0	3.3730	0	34.3090	0	27.305	0	893.227	0	7.6	4	2.4	4	-1E+10	1	-1E+10	1	-1E+10	1	-1E+10	1	-1E+10	1	-1E+10	1
4902549	52	C	01/16/2022	03:59	-132.113	47.451	0	907.80	0	3.3590	0	34.3130	0	27.309	0	898.263	0	7.6	4	2.3	4	-1E+10	1	-1E+10	1	-1E+10	1	-1E+10	1	-1E+10	1	-1E+10	1
4902549	52	C	01/16/2022	03:59	-132.113	47.451	0	913.00	0	3.3500	0	34.3150	0	27.312	0	903.397	0	7.5	4	2.3	4	-1E+10	1	-1E+10	1	-1E+10	1	-1E+10	1	-1E+10	1	-1E+10	1
4902549	52	C	01/16/2022	03:59	-132.113	47.451	0	917.70	0	3.3420	0	34.3170	0	27.314	0	908.037	0	7.5	4	2.3	4	-1E+10	1	-1E+10	1	-1E+10	1	-1E+10	1	-1E+10	1	-1E+10	1
4902549	52	C	01/16/2022	03:59	-132.113	47.451	0	923.00	0	3.3350	0	34.3180	0	27.316	0	913.270	0	7.4	4	2.3	4	-1E+10	1	-1E+10	1	-1E+10	1	-1E+10	1	-1E+10	1	-1E+10	1
4902549	52	C	01/16/2022	03:59	-132.113	47.451	0	928.40	0	3.3230	0	34.3210	0	27.319	0	918.601	0	7.4	4	2.3	4	-1E+10	1	-1E+10	1	-1E+10	1	-1E+10	1	-1E+10	1	-1E+10	1
4902549	52	C	01/16/2022	03:59	-132.113	47.451	0	933.30	0	3.3160	0	34.3230	0	27.322	0	923.439	0	7.3	4	2.3	4	-1E+10	1	-1E+10	1	-1E+10	1	-1E+10	1	-1E+10	1	-1E+10	1
4902549	52	C	01/16/2022	03:59	-132.113	47.451	0	938.20	0	3.3060	0	34.3260	0	27.325	0	928.276	0	7.3	4	2.3	4	-1E+10	1	-1E+10	1	-1E+10	1	-1E+10	1	-1E+10	1	-1E+10	1
4902549	52	C	01/16/2022	03:59	-132.113	47.451	0	943.20	0	3.3010	0	34.3270	0	27.326	0	933.212	0	7.2	4	2.2	4	-1E+10	1	-1E+10	1	-1E+10	1	-1E+10	1	-1E+10	1	-1E+10	1
4902549	52	C	01/16/2022	03:59	-132.113	47.451	0	948.10	0	3.2920	0	34.3300	0	27.329	0	938.049	0	7.1	4	2.2	4	-1E+10	1	-1E+10	1	-1E+10	1	-1E+10	1	-1E+10	1	-1E+10	1
4902549	52	C	01/16/2022	03:59	-132.113	47.451	0	953.10	0	3.2790	0	34.3340	0	27.334	0	942.985	0	6.9	4	2.2	4	-1E+10	1	-1E+10	1	-1E+10	1	-1E+10	1	-1E+10	1	-1E+10	1
4902549	52	C	01/16/2022	03:59	-132.113	47.451	0	958.10	0	3.2700	0	34.3380	0	27.338	0	947.920	0	6.8	4	2.1	4	-1E+10	1	-1E+10	1	-1E+10	1	-1E+10	1	-1E+10	1	-1E+10	1
4902549	52	C	01/16/2022	03:59	-132.113	47.451	0	962.80	0	3.2600	0	34.3410	0	27.341	0	952.560	0	6.8	4	2.1	4	-1E+10	1	-1E+10	1	-1E+10	1	-1E+10	1	-1E+10	1	-1E+10	1
4902549	52	C	01/16/2022	03:59	-132.113	47.451	0	967.70	0	3.2510	0	34.3440	0	27.345	0	957.396	0	6.7	4	2.1	4	-1E+10	1	-1E+10	1	-1E+10	1	-1E+10	1	-1E+10	1	-1E+10	1
4902549	52	C	01/16/2022	03:59	-132.113	47.451	0	972.90	0	3.2430	0	34.3470	0	27.348	0	962.529	0	6.7	4	2.1	4	-1E+10	1	-1E+10	1	-1E+10	1	-1E+10	1	-1E+10	1	-1E+10	1
4902549	52	C	01/16/2022	03:59	-132.113	47.451	0	977.70	0	3.2360	0	34.3490	0	27.350	0	967.267	0	6.7	4	2.1	4	-1E+10	1	-1E+10	1	-1E+10	1	-1E+10	1	-1E+10	1	-1E+10	1
4902549	52	C	01/16/2022	03:59	-132.113	47.451	0	982.90	0	3.2290	0	34.3520	0	27.353	0	972.399	0	6.7	4	2.1	4	-1E+10	1	-1E+10	1	-1E+10	1	-1E+10	1	-1E+10	1	-1E+10	1
4902549	52	C	01/16/2022	03:59	-132.113	47.451	0	988.30	0	3.2270	0	34.3520	0	27.353	0	977.729	0	6.7	4	2.1	4	-1E+10	1	-1E+10	1	-1E+10	1	-1E+10	1	-1E+10	1	-1E+10	1
4902549	52	C	01/16/2022	03:59	-132.113	47.451	0	993.20	0	3.2220	0	34.3530	0	27.355	0	982.565	0	6.7	4	2.1	4	-1E+10	1	-1E+10	1	-1E+10	1	-1E+10	1	-1E+10	1	-1E+10	1
4902549	52	C	01/16/2022	03:59	-132.113	47.451	0	998.30	0	3.2120	0	34.3560	0	27.358	0	987.599	0	6.7	4	2.1	4	-1E+10	1	-1E+10	1	-1E+10	1	-1E+10	1	-1E+10	1	-1E+10	1
4902549	52	C	01/16/2022	03:59	-132.113	47.451	0	1005.80	0	3.2030	0	34.3590	0	27.361	0	995.000	0	6.6	4	2.1	4	-1E+10	1	-1E+10	1	-1E+10	1	-1E+10	1	-1E+10	1	-1E+10	1
4902549	52	C	01/16/2022	03:59	-132.113	47.451	0	1015.40	0	3.1820	0	34.3630	0	27.366	0	1004.474	0	6.6	4	2.1	4	-1E+10	1	-1E+10	1	-1E+10	1	-1E+10	1	-1E+10	1	-1E+10	1
4902549	52	C	01/16/2022	03:59	-132.113	47.451	0	1025.30	0	3.1680	0	34.3670	0	27.371	0	1014.244	0	6.7	4	2.1	4	-1E+10	1	-1E+10	1	-1E+10	1	-1E+10	1	-1E+10	1	-1E+10	1
4902549	52	C	01/16/2022	03:59	-132.113	47.451	0	1035.30	0	3.1590	0	34.3710	0	27.375	0	1024.112	0	6.8	4	2.1	4	-1E+10	1	-1E+10	1	-1E+10	1	-1E+10	1	-1E+10	1	-1E+10	1
4902549	52	C	01/16/2022	03:59	-132.113	47.451	0	1045.40	0	3.1440	0	34.3740	0	27.379	0	1034.078	0	6.8	4	2.1	4	-1E+10	1	-1E+10	1	-1E+10	1	-1E+10	1	-1E+10	1	-1E+10	1
4902549	52	C	01/16/2022	03:59	-132.113	47.451	0	1055.70	0	3.1370	0	34.3780	0	27.383	0	1044.240	0	6.8	4	2.1	4	-1E+10	1	-1E+10	1	-1E+10	1	-1E+10	1	-1E+10	1	-1E+10	1
4902549	52	C	01/16/2022	03:59	-132.113	47.451	0	1065.60	0	3.1260	0	34.3810	0	27.386	0	1054.008	0	6.8	4	2.1	4	-1E+10	1	-1E+10	1	-1E+10	1	-1E+10	1	-1E+10	1	-1E+10	1
4902549	52	C	01/16/2022	03:59	-132.113	47.451	0	1075.50	0	3.1110	0	34.3840	0	27.390	0	1063.775	0	6.9	4	2.1	4	-1E+10	1	-1E+10	1	-1E+10	1	-1E+10	1	-1E+10	1	-1E+10	1
4902549	52	C	01/16/2022	03:59	-132.113	47.451	0	1085.60	0	3.0890	0	34.3890	0	27.396	0	1073.739	0	7.0	4	2.2	4	-1E+10	1	-1E+10	1	-1E+10	1	-1E+10	1	-1E+10	1	-1E+10	1
4902549	52	C	01/16/2022	03:59	-132.113	47.451	0	1095.40	0	3.0730	0	34.3930	0	27.401	0	1083.407	0	7.1	4	2.2	4	-1E+10	1	-1E+10	1	-1E+10	1	-1E+10	1	-1E+10	1	-1E+10	1
4902549	52	C	01/16/2022	03:59	-132.113	47.451	0	1105.30	0	3.0490	0	34.3960	0	27.405	0	1093.173	0	7.2	4	2.2	4	-1E+10	1	-1E+10	1	-1E+10	1	-1E+10	1	-1E+10	1	-1E+10	1
4902549	52	C	01/16/2022	03:59	-132.113	47.451	0	1115.20	0	3.0220	0	34.3970	0	27.409	0	1102.938	0	7.4	4	2.3	4	-1E+10	1	-1E+10	1	-1E+10	1	-1E+10	1	-1E+10	1	-1E+10	1
4902549	52	C	01/16/2022	03:59	-132.113	47.451	0	1125.40	0	3.0100	0	34.4040	0	27.415	0	1112.999	0	7.6	4	2.3	4	-1E+10	1	-1E+10	1	-1E+10	1	-1E+10	1	-1E+10	1	-1E+10	1
4902549	52	C	01/16/2022	03:59	-132.113	47.451	0	1135.60	0	2.9850	0	34.4060	0	27.419	0	1123.059	0	7.6	4	2.4	4	-1E+10	1	-1E+10	1	-1E+10	1	-1E+10	1	-1E+10	1	-1E+10	1
4902549	52	C	01/16/2022	03:59	-132.113	47.451	0	1145.50	0	2.9670	0	34.4080	0	27.423	0	1132.823	0	7.8	4	2.4	4	-1E+10	1	-1E+10	1	-1E+10	1	-1E+10	1	-1E+10	1	-1E+10	1
4902549	52	C	01/16/2022	03:59	-132.113	47.451	0	1155.60	0	2.9570	0	34.4120	0	27.427	0	1142.784	0	7.9	4	2.4	4	-1E+10	1	-1E+10	1	-1E+10	1	-1E+10	1	-1E+10	1	-1E+10	1
4902549	52	C	01/16/2022	03:59	-132.113	47.451	0	1165.60	0	2.9410	0	34.4130	0	27.429	0	1152.646	0	7.9	4	2.4	4	-1E+10	1	-1E+10	1	-1E+10	1	-1E+10	1	-1E+10	1	-1E+10	1
4902549	52	C	01/16/2022	03:59	-132.113	47.451	0	1175.70	0	2.9340	0	34.4150	0	27.431	0	1162.606	0	8.1	4	2.5	4	-1E+10	1	-1E+10	1	-1E+10	1	-1E+10	1	-1E+10	1	-1E+10	1
4902549	52	C	01/16/2022	03:59	-132.113	47.451	0	1185.50	0	2.9210	0	34.4160	0	27.433	0	1172.269	0	8.2	4	2.5	4	-1E+10	1	-1E+10	1	-1E+10	1	-1E+10	1	-1E+10	1	-1E+10	1
4902549	52	C	01/16/2022	03:59	-132.113	47.451	0	1195.20	0	2.8950	0	34.4190	0	27.438	0	1181.834	0	8.4	4	2.6	4	-1E+10	1	-1E+10	1	-1E+10	1	-1E+10	1	-1E+10	1	-1E+10	1
4902549	52	C	01/16/2022	03:59	-132.113	47.451	0	1205.50	0	2.8770	0	34.4220	0	27.442	0	1191.989	0	8.6	4	2.6	4	-1E+10	1	-1E+10	1	-1E+10	1	-1E+10	1	-1E+10	1	-1E+10	1
4902549	52	C	01/16/2022	03:59	-132.113	47.451	0	1215.40	0	2.8550	0	34.4250	0	27.447	0	1201.750	0	8.8	4	2.7	4	-1E+10	1	-1E+10	1	-1E+10	1	-1E+10	1	-1E+10	1	-1E+10	1
4902549	52	C	01/16/2022	03:59	-132.113	47.451	0	1225.40	0	2.8310	0	34.4290	0	27.452	0	1211.609	0	9.1	4	2.8	4	-1E+10	1	-1E+10	1	-1E+10	1	-1E+10	1	-1E+10	1	-1E+10	1
4902549	52	C	01/16/2022	03:59	-132.113	47.451	0	1236.00	0	2.8160	0	34.4310	0	27.455	0	1222.059	0	9.3	4	2.9	4	-1E+10	1	-1E+10	1	-1E+10	1	-1E+10	1	-1E+10	1	-1E+10	1
4902549	52	C	01/16/2022	03:59	-132.113	47.451	0	1245.60	0	2.8070	0	34.4340	0	27.458	0	1231.523	0	9.7	4	3.0	4	-1E+10	1	-1E+10	1	-1E+10	1	-1E+10	1	-1E+10	1	-1E+10	1
4902549	52	C	01/16/2022	03:59	-132.113	47.451	0	1255.30	0	2.7920	0	34.4410	0	27.465	0	1241.084	0	10.2	4	3.1	4	-1E+10	1	-1E+10	1	-1E+10	1	-1E+10	1	-1E+10	1	-1E+10	1
4902549	52	C	01/16/2022	03:59	-132.113	47.451	0	1265.10	0	2.7820	0	34.4430	0	27.468	0	1250.744	0	10.3	4	3.2	4	-1E+10	1	-1E+10	1	-1E+10	1	-1E+10	1	-1E+10	1	-1E+10	1
4902549	52	C	01/16/2022	03:59	-132.113	47.451	0	1275.00	0	2.7680	0	34.4450	0	27.471	0	1260.502	0	10.5	4	3.2	4	-1E+10	1	-1E+10	1	-1E+10	1	-1E+10	1	-1E+10	1	-1E+10	1
4902549	52	C	01/16/2022	03:59	-132.113	47.451	0	1285.20	0	2.7500	0	34.4470	0	27.474	0	1270.556	0	10.7	4	3.3	4	-1E+10	1	-1E+10	1	-1E+10	1	-1E+10	1	-1E+10	1	-1E+10	1
4902549	52	C	01/16/2022	03:59	-132.113	47.451	0	1295.30	0	2.7410	0	34.4480	0	27.475	0	1280.510	0	11.0	4	3.4	4	-1E+10	1	-1E+10	1	-1E+10	1	-1E+10	1	-1E+10	1	-1E+10	1
4902549	52	C	01/16/2022	03:59	-132.113	47.451	0	1305.60	0	2.7160	0	34.4510	0	27.480	0	1290.661	0	11.2	4	3.4	4	-1E+10	1	-1E+10	1	-1E+10	1	-1E+10	1	-1E+10	1	-1E+10	1
4902549	52	C	01/16/2022	03:59	-132.113	47.451	0	1315.70	0	2.6980	0	34.4530	0	27.483	0	1300.614	0	11.6	4	3.5	4	-1E+10	1	-1E+10	1	-1E+10	1	-1E+10	1	-1E+10	1	-1E+10	1
4902549	52	C	01/16/2022	03:59	-132.113	47.451	0	1325.60	0	2.6820	0	34.4560	0	27.487	0	1310.370	0	12.0	4	3.7	4	-1E+10	1	-1E+10	1	-1E+10	1	-1E+10	1	-1E+10	1	-1E+10	1
4902549	52	C	01/16/2022	03:59	-132.113	47.451	0	1335.40	0	2.6700	0	34.4590	0	27.491	0	1320.026	0	12.4	4	3.8	4	-1E+10	1	-1E+10	1	-1E+10	1	-1E+10	1	-1E+10	1	-1E+10	1
4902549	52	C	01/16/2022	03:59	-132.113	47.451	0	1345.20	0	2.6530	0	34.4620	0	27.494	0	1329.683	0	12.8	4	3.9	4	-1E+10	1	-1E+10	1	-1E+10	1	-1E+10	1	-1E+10	1	-1E+10	1
4902549	52	C	01/16/2022	03:59	-132.113	47.451	0	1355.20	0	2.6300	0	34.4660	0	27.500	0	1339.536	0	13.2	4	4.0	4	-1E+10	1	-1E+10	1	-1E+10	1	-1E+10	1	-1E+10	1	-1E+10	1
4902549	52	C	01/16/2022	03:59	-132.113	47.451	0	1365.40	0	2.6110	0	34.4680	0	27.503	0	1349.585	0	13.5	4	4.1	4	-1E+10	1	-1E+10	1	-1E+10	1	-1E+10	1	-1E+10	1	-1E+10	1
4902549	52	C	01/16/2022	03:59	-132.113	47.451	0	1375.20	0	2.5940	0	34.4700	0	27.506	0	1359.240	0	13.7	4	4.2	4	-1E+10	1	-1E+10	1	-1E+10	1	-1E+10	1	-1E+10	1	-1E+10	1
4902549	52	C	01/16/2022	03:59	-132.113	47.451	0	1385.20	0	2.5750	0	34.4720	0	27.509	0	1369.091	0	14.0	4	4.3	4	-1E+10	1	-1E+10	1	-1E+10	1	-1E+10	1	-1E+10	1	-1E+10	1
4902549	52	C	01/16/2022	03:59	-132.113	47.451	0	1395.20	0	2.5600	0	34.4740	0	27.512	0	1378.942	0	14.5	4	4.4	4	-1E+10	1	-1E+10	1	-1E+10	1	-1E+10	1	-1E+10	1	-1E+10	1
4902549	52	C	01/16/2022	03:59	-132.113	47.451	0	1405.40	0	2.5400	0	34.4770	0	27.516	0	1388.990	0	14.9	4	4.5	4	-1E+10	1	-1E+10	1	-1E+10	1	-1E+10	1	-1E+10	1	-1E+10	1
4902549	52	C	01/16/2022	03:59	-132.113	47.451	0	1415.20	0	2.5250	0	34.4790	0	27.519	0	1398.643	0	15.5	4	4.7	4	-1E+10	1	-1E+10	1	-1E+10	1	-1E+10	1	-1E+10	1	-1E+10	1
4902549	52	C	01/16/2022	03:59	-132.113	47.451	0	1425.20	0	2.5040	0	34.4830	0	27.524	0	1408.493	0	16.1	4	4.9	4	-1E+10	1	-1E+10	1	-1E+10	1	-1E+10	1	-1E+10	1	-1E+10	1
4902549	52	C	01/16/2022	03:59	-132.113	47.451	0	1435.30	0	2.4900	0	34.4850	0	27.527	0	1418.441	0	16.4	4	5.0	4	-1E+10	1	-1E+10	1	-1E+10	1	-1E+10	1	-1E+10	1	-1E+10	1
4902549	52	C	01/16/2022	03:59	-132.113	47.451	0	1445.30	0	2.4790	0	34.4860	0	27.529	0	1428.289	0	16.8	4	5.1	4	-1E+10	1	-1E+10	1	-1E+10	1	-1E+10	1	-1E+10	1	-1E+10	1
4902549	52	C	01/16/2022	03:59	-132.113	47.451	0	1455.50	0	2.4610	0	34.4890	0	27.533	0	1438.335	0	17.5	4	5.3	4	-1E+10	1	-1E+10	1	-1E+10	1	-1E+10	1	-1E+10	1	-1E+10	1
4902549	52	C	01/16/2022	03:59	-132.113	47.451	0	1465.60	0	2.4400	0	34.4920	0	27.537	0	1448.281	0	18.2	4	5.5	4	-1E+10	1	-1E+10	1	-1E+10	1	-1E+10	1	-1E+10	1	-1E+10	1
4902549	52	C	01/16/2022	03:59	-132.113	47.451	0	1475.60	0	2.4260	0	34.4950	0	27.541	0	1458.128	0	18.9	4	5.8	4	-1E+10	1	-1E+10	1	-1E+10	1	-1E+10	1	-1E+10	1	-1E+10	1
4902549	52	C	01/16/2022	03:59	-132.113	47.451	0	1485.60	0	2.4130	0	34.4970	0	27.543	0	1467.975	0	19.4	4	5.9	4	-1E+10	1	-1E+10	1	-1E+10	1	-1E+10	1	-1E+10	1	-1E+10	1
4902549	52	C	01/16/2022	03:59	-132.113	47.451	0	1495.50	0	2.4010	0	34.5000	0	27.547	0	1477.723	0	20.1	4	6.1	4	-1E+10	1	-1E+10	1	-1E+10	1	-1E+10	1	-1E+10	1	-1E+10	1
4902549	52	C	01/16/2022	03:59	-132.113	47.451	0	1505.80	0	2.3910	0	34.5020	0	27.549	0	1487.864	0	20.6	4	6.3	4	-1E+10	1	-1E+10	1	-1E+10	1	-1E+10	1	-1E+10	1	-1E+10	1
4902549	52	C	01/16/2022	03:59	-132.113	47.451	0	1515.60	0	2.3820	0	34.5040	0	27.552	0	1497.513	0	21.3	4	6.5	4	-1E+10	1	-1E+10	1	-1E+10	1	-1E+10	1	-1E+10	1	-1E+10	1
4902549	52	C	01/16/2022	03:59	-132.113	47.451	0	1525.40	0	2.3640	0	34.5070	0	27.556	0	1507.161	0	22.0	4	6.7	4	-1E+10	1	-1E+10	1	-1E+10	1	-1E+10	1	-1E+10	1	-1E+10	1
4902549	52	C	01/16/2022	03:59	-132.113	47.451	0	1535.30	0	2.3550	0	34.5100	0	27.559	0	1516.907	0	22.9	4	7.0	4	-1E+10	1	-1E+10	1	-1E+10	1	-1E+10	1	-1E+10	1	-1E+10	1
4902549	52	C	01/16/2022	03:59	-132.113	47.451	0	1545.30	0	2.3460	0	34.5130	0	27.562	0	1526.751	0	23.8	4	7.2	4	-1E+10	1	-1E+10	1	-1E+10	1	-1E+10	1	-1E+10	1	-1E+10	1
4902549	52	C	01/16/2022	03:59	-132.113	47.451	0	1555.20	0	2.3290	0	34.5160	0	27.566	0	1536.496	0	24.6	4	7.5	4	-1E+10	1	-1E+10	1	-1E+10	1	-1E+10	1	-1E+10	1	-1E+10	1
4902549	52	C	01/16/2022	03:59	-132.113	47.451	0	1565.20	0	2.3120	0	34.5180	0	27.569	0	1546.340	0	25.2	4	7.7	4	-1E+10	1	-1E+10	1	-1E+10	1	-1E+10	1	-1E+10	1	-1E+10	1
4902549	52	C	01/16/2022	03:59	-132.113	47.451	0	1575.10	0	2.2960	0	34.5210	0	27.573	0	1556.084	0	25.7	4	7.8	4	-1E+10	1	-1E+10	1	-1E+10	1	-1E+10	1	-1E+10	1	-1E+10	1
4902549	52	C	01/16/2022	03:59	-132.113	47.451	0	1585.50	0	2.2840	0	34.5220	0	27.575	0	1566.320	0	26.1	4	7.9	4	-1E+10	1	-1E+10	1	-1E+10	1	-1E+10	1	-1E+10	1	-1E+10	1
4902549	52	C	01/16/2022	03:59	-132.113	47.451	0	1595.50	0	2.2780	0	34.5230	0	27.576	0	1576.162	0	26.7	4	8.1	4	-1E+10	1	-1E+10	1	-1E+10	1	-1E+10	1	-1E+10	1	-1E+10	1
4902549	52	C	01/16/2022	03:59	-132.113	47.451	0	1605.10	0	2.2640	0	34.5250	0	27.579	0	1585.610	0	27.2	4	8.2	4	-1E+10	1	-1E+10	1	-1E+10	1	-1E+10	1	-1E+10	1	-1E+10	1
4902549	52	C	01/16/2022	03:59	-132.113	47.451	0	1615.00	0	2.2530	0	34.5270	0	27.581	0	1595.352	0	27.8	4	8.4	4	-1E+10	1	-1E+10	1	-1E+10	1	-1E+10	1	-1E+10	1	-1E+10	1
4902549	52	C	01/16/2022	03:59	-132.113	47.451	0	1625.00	0	2.2450	0	34.5290	0	27.583	0	1605.193	0	28.5	4	8.6	4	-1E+10	1	-1E+10	1	-1E+10	1	-1E+10	1	-1E+10	1	-1E+10	1
4902549	52	C	01/16/2022	03:59	-132.113	47.451	0	1635.20	0	2.2360	0	34.5310	0	27.586	0	1615.229	0	29.1	4	8.8	4	-1E+10	1	-1E+10	1	-1E+10	1	-1E+10	1	-1E+10	1	-1E+10	1
4902549	52	C	01/16/2022	03:59	-132.113	47.451	0	1645.40	0	2.2280	0	34.5320	0	27.587	0	1625.266	0	29.5	4	8.9	4	-1E+10	1	-1E+10	1	-1E+10	1	-1E+10	1	-1E+10	1	-1E+10	1
4902549	52	C	01/16/2022	03:59	-132.113	47.451	0	1655.30	0	2.2140	0	34.5340	0	27.590	0	1635.006	0	30.4	4	9.2	4	-1E+10	1	-1E+10	1	-1E+10	1	-1E+10	1	-1E+10	1	-1E+10	1
4902549	52	C	01/16/2022	03:59	-132.113	47.451	0	1665.30	0	2.2000	0	34.5370	0	27.594	0	1644.845	0	31.3	4	9.5	4	-1E+10	1	-1E+10	1	-1E+10	1	-1E+10	1	-1E+10	1	-1E+10	1
4902549	52	C	01/16/2022	03:59	-132.113	47.451	0	1675.30	0	2.1860	0	34.5390	0	27.597	0	1654.683	0	32.0	4	9.7	4	-1E+10	1	-1E+10	1	-1E+10	1	-1E+10	1	-1E+10	1	-1E+10	1
4902549	52	C	01/16/2022	03:59	-132.113	47.451	0	1685.20	0	2.1670	0	34.5410	0	27.600	0	1664.422	0	32.6	4	9.9	4	-1E+10	1	-1E+10	1	-1E+10	1	-1E+10	1	-1E+10	1	-1E+10	1
4902549	52	C	01/16/2022	03:59	-132.113	47.451	0	1695.30	0	2.1560	0	34.5430	0	27.602	0	1674.358	0	33.2	4	10.0	4	-1E+10	1	-1E+10	1	-1E+10	1	-1E+10	1	-1E+10	1	-1E+10	1
4902549	52	C	01/16/2022	03:59	-132.113	47.451	0	1705.10	0	2.1470	0	34.5440	0	27.604	0	1683.998	0	33.6	4	10.2	4	-1E+10	1	-1E+10	1	-1E+10	1	-1E+10	1	-1E+10	1	-1E+10	1
4902549	52	C	01/16/2022	03:59	-132.113	47.451	0	1715.30	0	2.1420	0	34.5450	0	27.605	0	1694.031	0	34.1	4	10.3	4	-1E+10	1	-1E+10	1	-1E+10	1	-1E+10	1	-1E+10	1	-1E+10	1
4902549	52	C	01/16/2022	03:59	-132.113	47.451	0	1725.30	0	2.1350	0	34.5460	0	27.606	0	1703.867	0	35.0	4	10.6	4	-1E+10	1	-1E+10	1	-1E+10	1	-1E+10	1	-1E+10	1	-1E+10	1
4902549	52	C	01/16/2022	03:59	-132.113	47.451	0	1735.40	0	2.1300	0	34.5490	0	27.609	0	1713.801	0	35.9	4	10.9	4	-1E+10	1	-1E+10	1	-1E+10	1	-1E+10	1	-1E+10	1	-1E+10	1
4902549	52	C	01/16/2022	03:59	-132.113	47.451	0	1745.50	0	2.1190	0	34.5510	0	27.612	0	1723.734	0	37.0	4	11.2	4	-1E+10	1	-1E+10	1	-1E+10	1	-1E+10	1	-1E+10	1	-1E+10	1
4902549	52	C	01/16/2022	03:59	-132.113	47.451	0	1755.30	0	2.1060	0	34.5540	0	27.615	0	1733.372	0	37.9	4	11.4	4	-1E+10	1	-1E+10	1	-1E+10	1	-1E+10	1	-1E+10	1	-1E+10	1
4902549	52	C	01/16/2022	03:59	-132.113	47.451	0	1765.40	0	2.0960	0	34.5550	0	27.617	0	1743.304	0	38.5	4	11.6	4	-1E+10	1	-1E+10	1	-1E+10	1	-1E+10	1	-1E+10	1	-1E+10	1
4902549	52	C	01/16/2022	03:59	-132.113	47.451	0	1775.50	0	2.0880	0	34.5570	0	27.619	0	1753.236	0	39.2	4	11.9	4	-1E+10	1	-1E+10	1	-1E+10	1	-1E+10	1	-1E+10	1	-1E+10	1
4902549	52	C	01/16/2022	03:59	-132.113	47.451	0	1785.40	0	2.0730	0	34.5590	0	27.622	0	1762.971	0	39.9	4	12.1	4	-1E+10	1	-1E+10	1	-1E+10	1	-1E+10	1	-1E+10	1	-1E+10	1
4902549	52	C	01/16/2022	03:59	-132.113	47.451	0	1795.70	0	2.0660	0	34.5600	0	27.623	0	1773.099	0	40.4	4	12.2	4	-1E+10	1	-1E+10	1	-1E+10	1	-1E+10	1	-1E+10	1	-1E+10	1
4902549	52	C	01/16/2022	03:59	-132.113	47.451	0	1805.40	0	2.0580	0	34.5610	0	27.625	0	1782.636	0	41.2	4	12.4	4	-1E+10	1	-1E+10	1	-1E+10	1	-1E+10	1	-1E+10	1	-1E+10	1
4902549	52	C	01/16/2022	03:59	-132.113	47.451	0	1815.20	0	2.0480	0	34.5630	0	27.627	0	1792.271	0	42.1	4	12.7	4	-1E+10	1	-1E+10	1	-1E+10	1	-1E+10	1	-1E+10	1	-1E+10	1
4902549	52	C	01/16/2022	03:59	-132.113	47.451	0	1825.30	0	2.0400	0	34.5650	0	27.630	0	1802.201	0	42.6	4	12.9	4	-1E+10	1	-1E+10	1	-1E+10	1	-1E+10	1	-1E+10	1	-1E+10	1
4902549	52	C	01/16/2022	03:59	-132.113	47.451	0	1835.20	0	2.0290	0	34.5670	0	27.632	0	1811.933	0	43.3	4	13.1	4	-1E+10	1	-1E+10	1	-1E+10	1	-1E+10	1	-1E+10	1	-1E+10	1
4902549	52	C	01/16/2022	03:59	-132.113	47.451	0	1845.30	0	2.0250	0	34.5680	0	27.633	0	1821.862	0	43.7	4	13.2	4	-1E+10	1	-1E+10	1	-1E+10	1	-1E+10	1	-1E+10	1	-1E+10	1
4902549	52	C	01/16/2022	03:59	-132.113	47.451	0	1855.70	0	2.0180	0	34.5690	0	27.635	0	1832.085	0	44.4	4	13.4	4	-1E+10	1	-1E+10	1	-1E+10	1	-1E+10	1	-1E+10	1	-1E+10	1
4902549	52	C	01/16/2022	03:59	-132.113	47.451	0	1865.60	0	2.0070	0	34.5710	0	27.637	0	1841.816	0	45.1	4	13.6	4	-1E+10	1	-1E+10	1	-1E+10	1	-1E+10	1	-1E+10	1	-1E+10	1
4902549	52	C	01/16/2022	03:59	-132.113	47.451	0	1875.70	0	1.9990	0	34.5720	0	27.639	0	1851.743	0	45.5	4	13.7	4	-1E+10	1	-1E+10	1	-1E+10	1	-1E+10	1	-1E+10	1	-1E+10	1
4902549	52	C	01/16/2022	03:59	-132.113	47.451	0	1885.50	0	1.9970	0	34.5730	0	27.640	0	1861.375	0	45.8	4	13.8	4	-1E+10	1	-1E+10	1	-1E+10	1	-1E+10	1	-1E+10	1	-1E+10	1
4902549	52	C	01/16/2022	03:59	-132.113	47.451	0	1895.40	0	1.9920	0	34.5740	0	27.641	0	1871.105	0	46.2	4	13.9	4	-1E+10	1	-1E+10	1	-1E+10	1	-1E+10	1	-1E+10	1	-1E+10	1
4902549	52	C	01/16/2022	03:59	-132.113	47.451	0	1905.40	0	1.9890	0	34.5740	0	27.641	0	1880.933	0	46.6	4	14.0	4	-1E+10	1	-1E+10	1	-1E+10	1	-1E+10	1	-1E+10	1	-1E+10	1
4902549	52	C	01/16/2022	03:59	-132.113	47.451	0	1915.40	0	1.9850	0	34.5750	0	27.642	0	1890.760	0	47.0	4	14.2	4	-1E+10	1	-1E+10	1	-1E+10	1	-1E+10	1	-1E+10	1	-1E+10	1
4902549	52	C	01/16/2022	03:59	-132.113	47.451	0	1925.60	0	1.9810	0	34.5760	0	27.644	0	1900.783	0	47.4	4	14.3	4	-1E+10	1	-1E+10	1	-1E+10	1	-1E+10	1	-1E+10	1	-1E+10	1
4902549	52	C	01/16/2022	03:59	-132.113	47.451	0	1935.80	0	1.9740	0	34.5770	0	27.645	0	1910.806	0	48.1	4	14.5	4	-1E+10	1	-1E+10	1	-1E+10	1	-1E+10	1	-1E+10	1	-1E+10	1
4902549	52	C	01/16/2022	03:59	-132.113	47.451	0	1945.50	0	1.9660	0	34.5780	0	27.646	0	1920.337	0	48.7	4	14.7	4	-1E+10	1	-1E+10	1	-1E+10	1	-1E+10	1	-1E+10	1	-1E+10	1
4902549	52	C	01/16/2022	03:59	-132.113	47.451	0	1955.20	0	1.9580	0	34.5800	0	27.649	0	1929.868	0	49.1	4	14.8	4	-1E+10	1	-1E+10	1	-1E+10	1	-1E+10	1	-1E+10	1	-1E+10	1
4902549	52	C	01/16/2022	03:59	-132.113	47.451	0	1965.60	0	1.9530	0	34.5810	0	27.650	0	1940.086	0	49.5	4	14.9	4	-1E+10	1	-1E+10	1	-1E+10	1	-1E+10	1	-1E+10	1	-1E+10	1
4902549	52	C	01/16/2022	03:59	-132.113	47.451	0	1975.80	0	1.9470	0	34.5820	0	27.651	0	1950.107	0	49.8	4	15.0	4	-1E+10	1	-1E+10	1	-1E+10	1	-1E+10	1	-1E+10	1	-1E+10	1
4902549	52	C	01/16/2022	03:59	-132.113	47.451	0	1982.70	0	1.9440	0	34.5830	0	27.652	0	1956.885	0	49.6	4	14.9	4	-1E+10	1	-1E+10	1	-1E+10	1	-1E+10	1	-1E+10	1	-1E+10	1
4902549	52	C	01/16/2022	03:59	-132.113	47.451	0																										
4902549	53	C	01/26/2022	08:57	-132.041	47.478	0	0.30	0	7.9560	0	32.3530	0	25.202	0	0.297	0	278.1	4	95.0	4	-1E+10	1	-1E+10	1	-1E+10	1	-1E+10	1	-1E+10	1	-1E+10	1
4902549	53	C	01/26/2022	08:57	-132.041	47.478	0	0.40	0	7.9574	0	32.3516	0	25.201	0	0.397	0	278.1	4	95.0	4	-1E+10	1	-1E+10	1	-1E+10	1	-1E+10	1	-1E+10	1	-1E+10	1
4902549	53	C	01/26/2022	08:57	-132.041	47.478	0	1.00	0	7.9660	0	32.3430	0	25.193	0	0.992	0	278.1	4	95.0	4	-1E+10	1	-1E+10	1	-1E+10	1	-1E+10	1	-1E+10	1	-1E+10	1
4902549	53	C	01/26/2022	08:57	-132.041	47.478	0	2.10	0	7.9670	0	32.3440	0	25.194	0	2.082	0	278.0	4	95.0	4	-1E+10	1	-1E+10	1	-1E+10	1	-1E+10	1	-1E+10	1	-1E+10	1
4902549	53	C	01/26/2022	08:57	-132.041	47.478	0	3.10	0	7.9680	0	32.3440	0	25.193	0	3.074	0	278.0	4	95.0	4	-1E+10	1	-1E+10	1	-1E+10	1	-1E+10	1	-1E+10	1	-1E+10	1
4902549	53	C	01/26/2022	08:57	-132.041	47.478	0	4.00	0	7.9700	0	32.3420	0	25.192	0	3.967	0	278.0	4	95.0	4	-1E+10	1	-1E+10	1	-1E+10	1	-1E+10	1	-1E+10	1	-1E+10	1
4902549	53	C	01/26/2022	08:57	-132.041	47.478	0	4.80	0	7.9700	0	32.3420	0	25.192	0	4.760	0	277.9	4	95.0	4	-1E+10	1	-1E+10	1	-1E+10	1	-1E+10	1	-1E+10	1	-1E+10	1
4902549	53	C	01/26/2022	08:57	-132.041	47.478	0	6.00	0	7.9710	0	32.3420	0	25.191	0	5.950	0	278.0	4	95.0	4	-1E+10	1	-1E+10	1	-1E+10	1	-1E+10	1	-1E+10	1	-1E+10	1
4902549	53	C	01/26/2022	08:57	-132.041	47.478	0	7.10	0	7.9710	0	32.3420	0	25.191	0	7.041	0	277.9	4	94.9	4	-1E+10	1	-1E+10	1	-1E+10	1	-1E+10	1	-1E+10	1	-1E+10	1
4902549	53	C	01/26/2022	08:57	-132.041	47.478	0	8.00	0	7.9720	0	32.3420	0	25.191	0	7.933	0	278.0	4	95.0	4	-1E+10	1	-1E+10	1	-1E+10	1	-1E+10	1	-1E+10	1	-1E+10	1
4902549	53	C	01/26/2022	08:57	-132.041	47.478	0	9.00	0	7.9740	0	32.3420	0	25.191	0	8.925	0	277.9	4	94.9	4	-1E+10	1	-1E+10	1	-1E+10	1	-1E+10	1	-1E+10	1	-1E+10	1
4902549	53	C	01/26/2022	08:57	-132.041	47.478	0	9.80	0	7.9750	0	32.3420	0	25.191	0	9.718	0	277.9	4	95.0	4	-1E+10	1	-1E+10	1	-1E+10	1	-1E+10	1	-1E+10	1	-1E+10	1
4902549	53	C	01/26/2022	08:57	-132.041	47.478	0	11.10	0	7.9750	0	32.3420	0	25.191	0	11.007	0	277.9	4	94.9	4	-1E+10	1	-1E+10	1	-1E+10	1	-1E+10	1	-1E+10	1	-1E+10	1
4902549	53	C	01/26/2022	08:57	-132.041	47.478	0	11.90	0	7.9750	0	32.3410	0	25.190	0	11.800	0	277.9	4	95.0	4	-1E+10	1	-1E+10	1	-1E+10	1	-1E+10	1	-1E+10	1	-1E+10	1
4902549	53	C	01/26/2022	08:57	-132.041	47.478	0	13.00	0	7.9750	0	32.3420	0	25.191	0	12.891	0	277.9	4	95.0	4	-1E+10	1	-1E+10	1	-1E+10	1	-1E+10	1	-1E+10	1	-1E+10	1
4902549	53	C	01/26/2022	08:57	-132.041	47.478	0	14.10	0	7.9750	0	32.3420	0	25.191	0	13.982	0	277.9	4	95.0	4	-1E+10	1	-1E+10	1	-1E+10	1	-1E+10	1	-1E+10	1	-1E+10	1
4902549	53	C	01/26/2022	08:57	-132.041	47.478	0	14.80	0	7.9740	0	32.3430	0	25.192	0	14.676	0	277.9	4	95.0	4	-1E+10	1	-1E+10	1	-1E+10	1	-1E+10	1	-1E+10	1	-1E+10	1
4902549	53	C	01/26/2022	08:57	-132.041	47.478	0	15.90	0	7.9750	0	32.3410	0	25.190	0	15.767	0	277.9	4	95.0	4	-1E+10	1	-1E+10	1	-1E+10	1	-1E+10	1	-1E+10	1	-1E+10	1
4902549	53	C	01/26/2022	08:57	-132.041	47.478	0	17.10	0	7.9780	0	32.3420	0	25.191	0	16.957	0	277.8	4	94.9	4	-1E+10	1	-1E+10	1	-1E+10	1	-1E+10	1	-1E+10	1	-1E+10	1
4902549	53	C	01/26/2022	08:57	-132.041	47.478	0	18.00	0	7.9790	0	32.3420	0	25.190	0	17.849	0	277.8	4	94.9	4	-1E+10	1	-1E+10	1	-1E+10	1	-1E+10	1	-1E+10	1	-1E+10	1
4902549	53	C	01/26/2022	08:57	-132.041	47.478	0	19.30	0	7.9810	0	32.3420	0	25.190	0	19.138	0	277.8	4	94.9	4	-1E+10	1	-1E+10	1	-1E+10	1	-1E+10	1	-1E+10	1	-1E+10	1
4902549	53	C	01/26/2022	08:57	-132.041	47.478	0	20.00	0	7.9810	0	32.3420	0	25.190	0	19.832	0	277.8	4	94.9	4	-1E+10	1	-1E+10	1	-1E+10	1	-1E+10	1	-1E+10	1	-1E+10	1
4902549	53	C	01/26/2022	08:57	-132.041	47.478	0	21.20	0	7.9800	0	32.3430	0	25.191	0	21.022	0	277.8	4	94.9	4	-1E+10	1	-1E+10	1	-1E+10	1	-1E+10	1	-1E+10	1	-1E+10	1
4902549	53	C	01/26/2022	08:57	-132.041	47.478	0	21.90	0	7.9830	0	32.3420	0	25.190	0	21.716	0	277.8	4	94.9	4	-1E+10	1	-1E+10	1	-1E+10	1	-1E+10	1	-1E+10	1	-1E+10	1
4902549	53	C	01/26/2022	08:57	-132.041	47.478	0	22.80	0	7.9820	0	32.3420	0	25.190	0	22.609	0	277.7	4	94.9	4	-1E+10	1	-1E+10	1	-1E+10	1	-1E+10	1	-1E+10	1	-1E+10	1
4902549	53	C	01/26/2022	08:57	-132.041	47.478	0	23.90	0	7.9810	0	32.3420	0	25.190	0	23.699	0	277.8	4	94.9	4	-1E+10	1	-1E+10	1	-1E+10	1	-1E+10	1	-1E+10	1	-1E+10	1
4902549	53	C	01/26/2022	08:57	-132.041	47.478	0	24.90	0	7.9800	0	32.3420	0	25.190	0	24.691	0	277.8	4	94.9	4	-1E+10	1	-1E+10	1	-1E+10	1	-1E+10	1	-1E+10	1	-1E+10	1
4902549	53	C	01/26/2022	08:57	-132.041	47.478	0	26.00	0	7.9810	0	32.3420	0	25.190	0	25.781	0	277.7	4	94.9	4	-1E+10	1	-1E+10	1	-1E+10	1	-1E+10	1	-1E+10	1	-1E+10	1
4902549	53	C	01/26/2022	08:57	-132.041	47.478	0	26.70	0	7.9800	0	32.3420	0	25.190	0	26.476	0	277.6	4	94.9	4	-1E+10	1	-1E+10	1	-1E+10	1	-1E+10	1	-1E+10	1	-1E+10	1
4902549	53	C	01/26/2022	08:57	-132.041	47.478	0	27.70	0	7.9810	0	32.3420	0	25.190	0	27.467	0	277.7	4	94.9	4	-1E+10	1	-1E+10	1	-1E+10	1	-1E+10	1	-1E+10	1	-1E+10	1
4902549	53	C	01/26/2022	08:57	-132.041	47.478	0	28.70	0	7.9810	0	32.3420	0	25.190	0	28.459	0	277.7	4	94.9	4	-1E+10	1	-1E+10	1	-1E+10	1	-1E+10	1	-1E+10	1	-1E+10	1
4902549	53	C	01/26/2022	08:57	-132.041	47.478	0	29.80	0	7.9810	0	32.3420	0	25.190	0	29.549	0	277.6	4	94.9	4	-1E+10	1	-1E+10	1	-1E+10	1	-1E+10	1	-1E+10	1	-1E+10	1
4902549	53	C	01/26/2022	08:57	-132.041	47.478	0	30.80	0	7.9820	0	32.3410	0	25.189	0	30.541	0	277.6	4	94.9	4	-1E+10	1	-1E+10	1	-1E+10	1	-1E+10	1	-1E+10	1	-1E+10	1
4902549	53	C	01/26/2022	08:57	-132.041	47.478	0	31.90	0	7.9820	0	32.3410	0	25.189	0	31.631	0	277.6	4	94.9	4	-1E+10	1	-1E+10	1	-1E+10	1	-1E+10	1	-1E+10	1	-1E+10	1
4902549	53	C	01/26/2022	08:57	-132.041	47.478	0	32.90	0	7.9810	0	32.3420	0	25.190	0	32.623	0	277.7	4	94.9	4	-1E+10	1	-1E+10	1	-1E+10	1	-1E+10	1	-1E+10	1	-1E+10	1
4902549	53	C	01/26/2022	08:57	-132.041	47.478	0	33.90	0	7.9810	0	32.3420	0	25.190	0	33.614	0	277.7	4	94.9	4	-1E+10	1	-1E+10	1	-1E+10	1	-1E+10	1	-1E+10	1	-1E+10	1
4902549	53	C	01/26/2022	08:57	-132.041	47.478	0	34.90	0	7.9800	0	32.3420	0	25.191	0	34.606	0	277.7	4	94.9	4	-1E+10	1	-1E+10	1	-1E+10	1	-1E+10	1	-1E+10	1	-1E+10	1
4902549	53	C	01/26/2022	08:57	-132.041	47.478	0	35.90	0	7.9810	0	32.3420	0	25.190	0	35.597	0	277.5	4	94.8	4	-1E+10	1	-1E+10	1	-1E+10	1	-1E+10	1	-1E+10	1	-1E+10	1
4902549	53	C	01/26/2022	08:57	-132.041	47.478	0	36.90	0	7.9800	0	32.3410	0	25.190	0	36.589	0	277.6	4	94.9	4	-1E+10	1	-1E+10	1	-1E+10	1	-1E+10	1	-1E+10	1	-1E+10	1
4902549	53	C	01/26/2022	08:57	-132.041	47.478	0	37.90	0	7.9810	0	32.3420	0	25.190	0	37.580	0	277.6	4	94.8	4	-1E+10	1	-1E+10	1	-1E+10	1	-1E+10	1	-1E+10	1	-1E+10	1
4902549	53	C	01/26/2022	08:57	-132.041	47.478	0	38.90	0	7.9820	0	32.3410	0	25.190	0	38.572	0	277.5	4	94.8	4	-1E+10	1	-1E+10	1	-1E+10	1	-1E+10	1	-1E+10	1	-1E+10	1
4902549	53	C	01/26/2022	08:57	-132.041	47.478	0	39.90	0	7.9820	0	32.3410	0	25.190	0	39.563	0	277.5	4	94.8	4	-1E+10	1	-1E+10	1	-1E+10	1	-1E+10	1	-1E+10	1	-1E+10	1
4902549	53	C	01/26/2022	08:57	-132.041	47.478	0	40.90	0	7.9820	0	32.3410	0	25.190	0	40.555	0	277.5	4	94.8	4	-1E+10	1	-1E+10	1	-1E+10	1	-1E+10	1	-1E+10	1	-1E+10	1
4902549	53	C	01/26/2022	08:57	-132.041	47.478	0	41.90	0	7.9820	0	32.3410	0	25.190	0	41.546	0	277.6	4	94.8	4	-1E+10	1	-1E+10	1	-1E+10	1	-1E+10	1	-1E+10	1	-1E+10	1
4902549	53	C	01/26/2022	08:57	-132.041	47.478	0	42.90	0	7.9810	0	32.3410	0	25.190	0	42.538	0	277.5	4	94.8	4	-1E+10	1	-1E+10	1	-1E+10	1	-1E+10	1	-1E+10	1	-1E+10	1
4902549	53	C	01/26/2022	08:57	-132.041	47.478	0	43.90	0	7.9810	0	32.3410	0	25.190	0	43.529	0	277.4	4	94.8	4	-1E+10	1	-1E+10	1	-1E+10	1	-1E+10	1	-1E+10	1	-1E+10	1
4902549	53	C	01/26/2022	08:57	-132.041	47.478	0	44.90	0	7.9810	0	32.3410	0	25.190	0	44.521	0	277.4	4	94.8	4	-1E+10	1	-1E+10	1	-1E+10	1	-1E+10	1	-1E+10	1	-1E+10	1
4902549	53	C	01/26/2022	08:57	-132.041	47.478	0	45.80	0	7.9790	0	32.3410	0	25.190	0	45.413	0	277.3	4	94.8	4	-1E+10	1	-1E+10	1	-1E+10	1	-1E+10	1	-1E+10	1	-1E+10	1
4902549	53	C	01/26/2022	08:57	-132.041	47.478	0	46.80	0	7.9790	0	32.3410	0	25.190	0	46.404	0	277.3	4	94.8	4	-1E+10	1	-1E+10	1	-1E+10	1	-1E+10	1	-1E+10	1	-1E+10	1
4902549	53	C	01/26/2022	08:57	-132.041	47.478	0	47.90	0	7.9790	0	32.3410	0	25.190	0	47.495	0	277.3	4	94.7	4	-1E+10	1	-1E+10	1	-1E+10	1	-1E+10	1	-1E+10	1	-1E+10	1
4902549	53	C	01/26/2022	08:57	-132.041	47.478	0	48.90	0	7.9790	0	32.3410	0	25.190	0	48.486	0	277.2	4	94.7	4	-1E+10	1	-1E+10	1	-1E+10	1	-1E+10	1	-1E+10	1	-1E+10	1
4902549	53	C	01/26/2022	08:57	-132.041	47.478	0	49.90	0	7.9790	0	32.3410	0	25.190	0	49.478	0	277.2	4	94.7	4	-1E+10	1	-1E+10	1	-1E+10	1	-1E+10	1	-1E+10	1	-1E+10	1
4902549	53	C	01/26/2022	08:57	-132.041	47.478	0	51.00	0	7.9780	0	32.3410	0	25.190	0	50.568	0	277.1	4	94.7	4	-1E+10	1	-1E+10	1	-1E+10	1	-1E+10	1	-1E+10	1	-1E+10	1
4902549	53	C	01/26/2022	08:57	-132.041	47.478	0	52.10	0	7.9780	0	32.3410	0	25.190	0	51.659	0	277.1	4	94.7	4	-1E+10	1	-1E+10	1	-1E+10	1	-1E+10	1	-1E+10	1	-1E+10	1
4902549	53	C	01/26/2022	08:57	-132.041	47.478	0	52.90	0	7.9790	0	32.3420	0	25.191	0	52.452	0	276.9	4	94.6	4	-1E+10	1	-1E+10	1	-1E+10	1	-1E+10	1	-1E+10	1	-1E+10	1
4902549	53	C	01/26/2022	08:57	-132.041	47.478	0	53.70	0	7.9780	0	32.3410	0	25.190	0	53.245	0	276.9	4	94.6	4	-1E+10	1	-1E+10	1	-1E+10	1	-1E+10	1	-1E+10	1	-1E+10	1
4902549	53	C	01/26/2022	08:57	-132.041	47.478	0	54.80	0	7.9780	0	32.3410	0	25.190	0	54.336	0	276.7	4	94.6	4	-1E+10	1	-1E+10	1	-1E+10	1	-1E+10	1	-1E+10	1	-1E+10	1
4902549	53	C	01/26/2022	08:57	-132.041	47.478	0	55.90	0	7.9770	0	32.3410	0	25.190	0	55.426	0	276.6	4	94.5	4	-1E+10	1	-1E+10	1	-1E+10	1	-1E+10	1	-1E+10	1	-1E+10	1
4902549	53	C	01/26/2022	08:57	-132.041	47.478	0	57.00	0	7.9740	0	32.3410	0	25.191	0	56.517	0	276.5	4	94.5	4	-1E+10	1	-1E+10	1	-1E+10	1	-1E+10	1	-1E+10	1	-1E+10	1
4902549	53	C	01/26/2022	08:57	-132.041	47.478	0	58.10	0	7.9740	0	32.3410	0	25.191	0	57.607	0	276.3	4	94.4	4	-1E+10	1	-1E+10	1	-1E+10	1	-1E+10	1	-1E+10	1	-1E+10	1
4902549	53	C	01/26/2022	08:57	-132.041	47.478	0	58.90	0	7.9740	0	32.3410	0	25.191	0	58.400	0	276.3	4	94.4	4	-1E+10	1	-1E+10	1	-1E+10	1	-1E+10	1	-1E+10	1	-1E+10	1
4902549	53	C	01/26/2022	08:57	-132.041	47.478	0	59.70	0	7.9740	0	32.3410	0	25.191	0	59.193	0	276.2	4	94.4	4	-1E+10	1	-1E+10	1	-1E+10	1	-1E+10	1	-1E+10	1	-1E+10	1
4902549	53	C	01/26/2022	08:57	-132.041	47.478	0	60.80	0	7.9740	0	32.3410	0	25.191	0	60.284	0	276.0	4	94.3	4	-1E+10	1	-1E+10	1	-1E+10	1	-1E+10	1	-1E+10	1	-1E+10	1
4902549	53	C	01/26/2022	08:57	-132.041	47.478	0	61.90	0	7.9690	0	32.3400	0	25.191	0	61.374	0	275.9	4	94.2	4	-1E+10	1	-1E+10	1	-1E+10	1	-1E+10	1	-1E+10	1	-1E+10	1
4902549	53	C	01/26/2022	08:57	-132.041	47.478	0	63.00	0	7.9670	0	32.3400	0	25.191	0	62.465	0	275.8	4	94.2	4	-1E+10	1	-1E+10	1	-1E+10	1	-1E+10	1	-1E+10	1	-1E+10	1
4902549	53	C	01/26/2022	08:57	-132.041	47.478	0	64.10	0	7.9630	0	32.3400	0	25.192	0	63.555	0	275.7	4	94.2	4	-1E+10	1	-1E+10	1	-1E+10	1	-1E+10	1	-1E+10	1	-1E+10	1
4902549	53	C	01/26/2022	08:57	-132.041	47.478	0	65.00	0	7.9610	0	32.3410	0	25.193	0	64.447	0	275.6	4	94.1	4	-1E+10	1	-1E+10	1	-1E+10	1	-1E+10	1	-1E+10	1	-1E+10	1
4902549	53	C	01/26/2022	08:57	-132.041	47.478	0	65.80	0	7.9600	0	32.3400	0	25.192	0	65.241	0	275.5	4	94.1	4	-1E+10	1	-1E+10	1	-1E+10	1	-1E+10	1	-1E+10	1	-1E+10	1
4902549	53	C	01/26/2022	08:57	-132.041	47.478	0	66.90	0	7.9580	0	32.3400	0	25.193	0	66.331	0	275.4	4	94.1	4	-1E+10	1	-1E+10	1	-1E+10	1	-1E+10	1	-1E+10	1	-1E+10	1
4902549	53	C	01/26/2022	08:57	-132.041	47.478	0	68.00	0	7.9550	0	32.3400	0	25.193	0	67.422	0	275.3	4	94.0	4	-1E+10	1	-1E+10	1	-1E+10	1	-1E+10	1	-1E+10	1	-1E+10	1
4902549	53	C	01/26/2022	08:57	-132.041	47.478	0	69.10	0	7.9520	0	32.3400	0	25.193	0	68.512	0	275.2	4	94.0	4	-1E+10	1	-1E+10	1	-1E+10	1	-1E+10	1	-1E+10	1	-1E+10	1
4902549	53	C	01/26/2022	08:57	-132.041	47.478	0	69.90	0	7.9520	0	32.3400	0	25.193	0	69.305	0	275.1	4	93.9	4	-1E+10	1	-1E+10	1	-1E+10	1	-1E+10	1	-1E+10	1	-1E+10	1
4902549	53	C	01/26/2022	08:57	-132.041	47.478	0	70.70	0	7.9520	0	32.3400	0	25.193	0	70.098	0	275.1	4	93.9	4	-1E+10	1	-1E+10	1	-1E+10	1	-1E+10	1	-1E+10	1	-1E+10	1
4902549	53	C	01/26/2022	08:57	-132.041	47.478	0	71.80	0	7.9520	0	32.3400	0	25.194	0	71.189	0	274.8	4	93.8	4	-1E+10	1	-1E+10	1	-1E+10	1	-1E+10	1	-1E+10	1	-1E+10	1
4902549	53	C	01/26/2022	08:57	-132.041	47.478	0	72.90	0	7.9500	0	32.3400	0	25.194	0	72.279	0	274.7	4	93.8	4	-1E+10	1	-1E+10	1	-1E+10	1	-1E+10	1	-1E+10	1	-1E+10	1
4902549	53	C	01/26/2022	08:57	-132.041	47.478	0	73.90	0	7.9480	0	32.3400	0	25.194	0	73.270	0	274.5	4	93.7	4	-1E+10	1	-1E+10	1	-1E+10	1	-1E+10	1	-1E+10	1	-1E+10	1
4902549	53	C	01/26/2022	08:57	-132.041	47.478	0	75.00	0	7.9440	0	32.3400	0	25.195	0	74.361	0	274.3	4	93.6	4	-1E+10	1	-1E+10	1	-1E+10	1	-1E+10	1	-1E+10	1	-1E+10	1
4902549	53	C	01/26/2022	08:57	-132.041	47.478	0	76.00	0	7.9380	0	32.3400	0	25.196	0	75.352	0	274.1	4	93.6	4	-1E+10	1	-1E+10	1	-1E+10	1	-1E+10	1	-1E+10	1	-1E+10	1
4902549	53	C	01/26/2022	08:57	-132.041	47.478	0	77.10	0	7.9360	0	32.3400	0	25.196	0	76.442	0	273.9	4	93.5	4	-1E+10	1	-1E+10	1	-1E+10	1	-1E+10	1	-1E+10	1	-1E+10	1
4902549	53	C	01/26/2022	08:57	-132.041	47.478	0	78.10	0	7.9340	0	32.3400	0	25.196	0	77.434	0	273.7	4	93.4	4	-1E+10	1	-1E+10	1	-1E+10	1	-1E+10	1	-1E+10	1	-1E+10	1
4902549	53	C	01/26/2022	08:57	-132.041	47.478	0	79.00	0	7.9310	0	32.3400	0	25.197	0	78.326	0	273.5	4	93.4	4	-1E+10	1	-1E+10	1	-1E+10	1	-1E+10	1	-1E+10	1	-1E+10	1
4902549	53	C	01/26/2022	08:57	-132.041	47.478	0	79.70	0	7.9230	0	32.3400	0	25.198	0	79.020	0	273.3	4	93.3	4	-1E+10	1	-1E+10	1	-1E+10	1	-1E+10	1	-1E+10	1	-1E+10	1
4902549	53	C	01/26/2022	08:57	-132.041	47.478	0	80.70	0	7.9190	0	32.3400	0	25.198	0	80.011	0	273.1	4	93.2	4	-1E+10	1	-1E+10	1	-1E+10	1	-1E+10	1	-1E+10	1	-1E+10	1
4902549	53	C	01/26/2022	08:57	-132.041	47.478	0	81.70	0	7.9190	0	32.3400	0	25.198	0	81.002	0	272.8	4	93.1	4	-1E+10	1	-1E+10	1	-1E+10	1	-1E+10	1	-1E+10	1	-1E+10	1
4902549	53	C	01/26/2022	08:57	-132.041	47.478	0	82.80	0	7.9150	0	32.3400	0	25.199	0	82.093	0	279.4	4	95.3	4	-1E+10	1	-1E+10	1	-1E+10	1	-1E+10	1	-1E+10	1	-1E+10	1
4902549	53	C	01/26/2022	08:57	-132.041	47.478	0	83.80	0	7.9120	0	32.3400	0	25.199	0	83.084	0	279.0	4	95.2	4	-1E+10	1	-1E+10	1	-1E+10	1	-1E+10	1	-1E+10	1	-1E+10	1
4902549	53	C	01/26/2022	08:57	-132.041	47.478	0	84.90	0	7.9040	0	32.3400	0	25.201	0	84.174	0	278.7	4	95.1	4	-1E+10	1	-1E+10	1	-1E+10	1	-1E+10	1	-1E+10	1	-1E+10	1
4902549	53	C	01/26/2022	08:57	-132.041	47.478	0	86.00	0	7.8950	0	32.3410	0	25.203	0	85.265	0	278.5	4	95.0	4	-1E+10	1	-1E+10	1	-1E+10	1	-1E+10	1	-1E+10	1	-1E+10	1
4902549	53	C	01/26/2022	08:57	-132.041	47.478	0	87.10	0	7.8840	0	32.3410	0	25.204	0	86.355	0	278.3	4	94.9	4	-1E+10	1	-1E+10	1	-1E+10	1	-1E+10	1	-1E+10	1	-1E+10	1
4902549	53	C	01/26/2022	08:57	-132.041	47.478	0	87.90	0	7.8810	0	32.3410	0	25.205	0	87.148	0	278.1	4	94.8	4	-1E+10	1	-1E+10	1	-1E+10	1	-1E+10	1	-1E+10	1	-1E+10	1
4902549	53	C	01/26/2022	08:57	-132.041	47.478	0	88.80	0	7.8760	0	32.3420	0	25.206	0	88.040	0	278.0	4	94.8	4	-1E+10	1	-1E+10	1	-1E+10	1	-1E+10	1	-1E+10	1	-1E+10	1
4902549	53	C	01/26/2022	08:57	-132.041	47.478	0	89.90	0	7.8710	0	32.3420	0	25.207	0	89.130	0	277.7	4	94.7	4	-1E+10	1	-1E+10	1	-1E+10	1	-1E+10	1	-1E+10	1	-1E+10	1
4902549	53	C	01/26/2022	08:57	-132.041	47.478	0	91.00	0	7.8650	0	32.3420	0	25.208	0	90.221	0	277.5	4	94.6	4	-1E+10	1	-1E+10	1	-1E+10	1	-1E+10	1	-1E+10	1	-1E+10	1
4902549	53	C	01/26/2022	08:57	-132.041	47.478	0	91.90	0	7.8650	0	32.3420	0	25.208	0	91.113	0	277.3	4	94.5	4	-1E+10	1	-1E+10	1	-1E+10	1	-1E+10	1	-1E+10	1	-1E+10	1
4902549	53	C	01/26/2022	08:57	-132.041	47.478	0	92.70	0	7.8630	0	32.3420	0	25.208	0	91.906	0	277.0	4	94.4	4	-1E+10	1	-1E+10	1	-1E+10	1	-1E+10	1	-1E+10	1	-1E+10	1
4902549	53	C	01/26/2022	08:57	-132.041	47.478	0	93.90	0	7.8570	0	32.3430	0	25.210	0	93.095	0	276.7	4	94.3	4	-1E+10	1	-1E+10	1	-1E+10	1	-1E+10	1	-1E+10	1	-1E+10	1
4902549	53	C	01/26/2022	08:57	-132.041	47.478	0	95.00	0	7.8530	0	32.3440	0	25.211	0	94.186	0	276.4	4	94.2	4	-1E+10	1	-1E+10	1	-1E+10	1	-1E+10	1	-1E+10	1	-1E+10	1
4902549	53	C	01/26/2022	08:57	-132.041	47.478	0	95.90	0	7.8510	0	32.3440	0	25.211	0	95.078	0	275.9	4	94.0	4	-1E+10	1	-1E+10	1	-1E+10	1	-1E+10	1	-1E+10	1	-1E+10	1
4902549	53	C	01/26/2022	08:57	-132.041	47.478	0	96.70	0	7.8490	0	32.3440	0	25.212	0	95.871	0	275.6	4	93.9	4	-1E+10	1	-1E+10	1	-1E+10	1	-1E+10	1	-1E+10	1	-1E+10	1
4902549	53	C	01/26/2022	08:57	-132.041	47.478	0	97.90	0	7.8480	0	32.3450	0	25.213	0	97.060	0	275.0	4	93.7	4	-1E+10	1	-1E+10	1	-1E+10	1	-1E+10	1	-1E+10	1	-1E+10	1
4902549	53	C	01/26/2022	08:57	-132.041	47.478	0	99.00	0	7.8430	0	32.3460	0	25.214	0	98.150	0	274.3	4	93.5	4	-1E+10	1	-1E+10	1	-1E+10	1	-1E+10	1	-1E+10	1	-1E+10	1
4902549	53	C	01/26/2022	08:57	-132.041	47.478	0	100.00	0	7.8410	0	32.3470	0	25.215	0	99.142	0	273.6	4	93.2	4	-1E+10	1	-1E+10	1	-1E+10	1	-1E+10	1	-1E+10	1	-1E+10	1
4902549	53	C	01/26/2022	08:57	-132.041	47.478	0	101.20	0	7.8390	0	32.3500	0	25.218	0	100.331	0	272.4	4	92.8	4	-1E+10	1	-1E+10	1	-1E+10	1	-1E+10	1	-1E+10	1	-1E+10	1
4902549	53	C	01/26/2022	08:57	-132.041	47.478	0	102.10	0	7.8090	0	32.3630	0	25.232	0	101.223	0	271.6	4	92.5	4	-1E+10	1	-1E+10	1	-1E+10	1	-1E+10	1	-1E+10	1	-1E+10	1
4902549	53	C	01/26/2022	08:57	-132.041	47.478	0	103.10	0	7.7660	0	32.3770	0	25.249	0	102.214	0	270.6	4	92.0	4	-1E+10	1	-1E+10	1	-1E+10	1	-1E+10	1	-1E+10	1	-1E+10	1
4902549	53	C	01/26/2022	08:57	-132.041	47.478	0	104.10	0	7.7530	0	32.3790	0	25.253	0	103.205	0	269.2	4	91.5	4	-1E+10	1	-1E+10	1	-1E+10	1	-1E+10	1	-1E+10	1	-1E+10	1
4902549	53	C	01/26/2022	08:57	-132.041	47.478	0	104.90	0	7.7150	0	32.3910	0	25.268	0	103.998	0	268.3	4	91.2	4	-1E+10	1	-1E+10	1	-1E+10	1	-1E+10	1	-1E+10	1	-1E+10	1
4902549	53	C	01/26/2022	08:57	-132.041	47.478	0	106.10	0	7.6770	0	32.4030	0	25.282	0	105.188	0	267.2	4	90.7	4	-1E+10	1	-1E+10	1	-1E+10	1	-1E+10	1	-1E+10	1	-1E+10	1
4902549	53	C	01/26/2022	08:57	-132.041	47.478	0	107.00	0	7.6310	0	32.4150	0	25.298	0	106.080	0	266.6	4	90.4	4	-1E+10	1	-1E+10	1	-1E+10	1	-1E+10	1	-1E+10	1	-1E+10	1
4902549	53	C	01/26/2022	08:57	-132.041	47.478	0	108.00	0	7.5910	0	32.4260	0	25.313	0	107.071	0	265.9	4	90.1	4	-1E+10	1	-1E+10	1	-1E+10	1	-1E+10	1	-1E+10	1	-1E+10	1
4902549	53	C	01/26/2022	08:57	-132.041	47.478	0	109.10	0	7.5710	0	32.4310	0	25.319	0	108.161	0	264.9	4	89.7	4	-1E+10	1	-1E+10	1	-1E+10	1	-1E+10	1	-1E+10	1	-1E+10	1
4902549	53	C	01/26/2022	08:57	-132.041	47.478	0	109.80	0	7.5490	0	32.4360	0	25.326	0	108.855	0	264.2	4	89.5	4	-1E+10	1	-1E+10	1	-1E+10	1	-1E+10	1	-1E+10	1	-1E+10	1
4902549	53	C	01/26/2022	08:57	-132.041	47.478	0	111.00	0	7.5200	0	32.4470	0	25.339	0	110.044	0	262.7	4	88.9	4	-1E+10	1	-1E+10	1	-1E+10	1	-1E+10	1	-1E+10	1	-1E+10	1
4902549	53	C	01/26/2022	08:57	-132.041	47.478	0	112.30	0	7.5020	0	32.4520	0	25.345	0	111.333	0	260.8	4	88.2	4	-1E+10	1	-1E+10	1	-1E+10	1	-1E+10	1	-1E+10	1	-1E+10	1
4902549	53	C	01/26/2022	08:57	-132.041	47.478	0	112.90	0	7.4720	0	32.4600	0	25.356	0	111.927	0	259.9	4	87.9	4	-1E+10	1	-1E+10	1	-1E+10	1	-1E+10	1	-1E+10	1	-1E+10	1
4902549	53	C	01/26/2022	08:57	-132.041	47.478	0	113.80	0	7.4560	0	32.4640	0	25.361	0	112.819	0	258.4	4	87.3	4	-1E+10	1	-1E+10	1	-1E+10	1	-1E+10	1	-1E+10	1	-1E+10	1
4902549	53	C	01/26/2022	08:57	-132.041	47.478	0	115.10	0	7.4340	0	32.4750	0	25.373	0	114.108	0	255.5	4	86.3	4	-1E+10	1	-1E+10	1	-1E+10	1	-1E+10	1	-1E+10	1	-1E+10	1
4902549	53	C	01/26/2022	08:57	-132.041	47.478	0	116.20	0	7.4150	0	32.4850	0	25.383	0	115.198	0	252.9	4	85.4	4	-1E+10	1	-1E+10	1	-1E+10	1	-1E+10	1	-1E+10	1	-1E+10	1
4902549	53	C	01/26/2022	08:57	-132.041	47.478	0	117.10	0	7.3680	0	32.5030	0	25.404	0	116.090	0	250.3	4	84.5	4	-1E+10	1	-1E+10	1	-1E+10	1	-1E+10	1	-1E+10	1	-1E+10	1
4902549	53	C	01/26/2022	08:57	-132.041	47.478	0	117.70	0	7.3330	0	32.5210	0	25.423	0	116.685	0	248.1	4	83.7	4	-1E+10	1	-1E+10	1	-1E+10	1	-1E+10	1	-1E+10	1	-1E+10	1
4902549	53	C	01/26/2022	08:57	-132.041	47.478	0	119.10	0	7.2870	0	32.5440	0	25.447	0	118.072	0	243.5	4	82.0	4	-1E+10	1	-1E+10	1	-1E+10	1	-1E+10	1	-1E+10	1	-1E+10	1
4902549	53	C	01/26/2022	08:57	-132.041	47.478	0	120.40	0	7.2240	0	32.5820	0	25.486	0	119.361	0	238.7	4	80.3	4	-1E+10	1	-1E+10	1	-1E+10	1	-1E+10	1	-1E+10	1	-1E+10	1
4902549	53	C	01/26/2022	08:57	-132.041	47.478	0	121.10	0	7.2130	0	32.5920	0	25.495	0	120.054	0	235.3	4	79.2	4	-1E+10	1	-1E+10	1	-1E+10	1	-1E+10	1	-1E+10	1	-1E+10	1
4902549	53	C	01/26/2022	08:57	-132.041	47.478	0	122.10	0	7.2770	0	32.6450	0	25.528	0	121.045	0	230.2	4	77.6	4	-1E+10	1	-1E+10	1	-1E+10	1	-1E+10	1	-1E+10	1	-1E+10	1
4902549	53	C	01/26/2022	08:57	-132.041	47.478	0	122.90	0	7.2930	0	32.7270	0	25.591	0	121.838	0	227.1	4	76.6	4	-1E+10	1	-1E+10	1	-1E+10	1	-1E+10	1	-1E+10	1	-1E+10	1
4902549	53	C	01/26/2022	08:57	-132.041	47.478	0	123.90	0	7.2720	0	32.7970	0	25.649	0	122.829	0	224.1	4	75.6	4	-1E+10	1	-1E+10	1	-1E+10	1	-1E+10	1	-1E+10	1	-1E+10	1
4902549	53	C	01/26/2022	08:57	-132.041	47.478	0	125.10	0	7.2740	0	32.8480	0	25.688	0	124.019	0	218.1	4	73.6	4	-1E+10	1	-1E+10	1	-1E+10	1	-1E+10	1	-1E+10	1	-1E+10	1
4902549	53	C	01/26/2022	08:57	-132.041	47.478	0	126.10	0	7.2760	0	32.8840	0	25.717	0	125.010	0	211.7	4	71.5	4	-1E+10	1	-1E+10	1	-1E+10	1	-1E+10	1	-1E+10	1	-1E+10	1
4902549	53	C	01/26/2022	08:57	-132.041	47.478	0	126.90	0	7.2890	0	32.9150	0	25.739	0	125.802	0	205.7	4	69.5	4	-1E+10	1	-1E+10	1	-1E+10	1	-1E+10	1	-1E+10	1	-1E+10	1
4902549	53	C	01/26/2022	08:57	-132.041	47.478	0	127.80	0	7.3390	0	32.9940	0	25.794	0	126.694	0	199.3	4	67.4	4	-1E+10	1	-1E+10	1	-1E+10	1	-1E+10	1	-1E+10	1	-1E+10	1
4902549	53	C	01/26/2022	08:57	-132.041	47.478	0	128.90	0	7.4010	0	33.0790	0	25.853	0	127.785	0	195.0	4	66.1	4	-1E+10	1	-1E+10	1	-1E+10	1	-1E+10	1	-1E+10	1	-1E+10	1
4902549	53	C	01/26/2022	08:57	-132.041	47.478	0	129.90	0	7.4500	0	33.1180	0	25.877	0	128.776	0	191.5	4	65.0	4	-1E+10	1	-1E+10	1	-1E+10	1	-1E+10	1	-1E+10	1	-1E+10	1
4902549	53	C	01/26/2022	08:57	-132.041	47.478	0	130.80	0	7.4820	0	33.1790	0	25.920	0	129.668	0	189.0	4	64.3	4	-1E+10	1	-1E+10	1	-1E+10	1	-1E+10	1	-1E+10	1	-1E+10	1
4902549	53	C	01/26/2022	08:57	-132.041	47.478	0	131.80	0	7.4830	0	33.2050	0	25.940	0	130.659	0	186.8	4	63.5	4	-1E+10	1	-1E+10	1	-1E+10	1	-1E+10	1	-1E+10	1	-1E+10	1
4902549	53	C	01/26/2022	08:57	-132.041	47.478	0	132.90	0	7.4850	0	33.2700	0	25.991	0	131.749	0	184.9	4	62.9	4	-1E+10	1	-1E+10	1	-1E+10	1	-1E+10	1	-1E+10	1	-1E+10	1
4902549	53	C	01/26/2022	08:57	-132.041	47.478	0	134.10	0	7.4860	0	33.2900	0	26.007	0	132.938	0	183.1	4	62.3	4	-1E+10	1	-1E+10	1	-1E+10	1	-1E+10	1	-1E+10	1	-1E+10	1
4902549	53	C	01/26/2022	08:57	-132.041	47.478	0	135.00	0	7.4880	0	33.3020	0	26.016	0	133.830	0	181.7	4	61.8	4	-1E+10	1	-1E+10	1	-1E+10	1	-1E+10	1	-1E+10	1	-1E+10	1
4902549	53	C	01/26/2022	08:57	-132.041	47.478	0	135.90	0	7.4920	0	33.3360	0	26.042	0	134.722	0	180.6	4	61.5	4	-1E+10	1	-1E+10	1	-1E+10	1	-1E+10	1	-1E+10	1	-1E+10	1
4902549	53	C	01/26/2022	08:57	-132.041	47.478	0	137.00	0	7.4930	0	33.3560	0	26.058	0	135.812	0	179.5	4	61.1	4	-1E+10	1	-1E+10	1	-1E+10	1	-1E+10	1	-1E+10	1	-1E+10	1
4902549	53	C	01/26/2022	08:57	-132.041	47.478	0	138.00	0	7.4940	0	33.3740	0	26.072	0	136.803	0	178.4	4	60.8	4	-1E+10	1	-1E+10	1	-1E+10	1	-1E+10	1	-1E+10	1	-1E+10	1
4902549	53	C	01/26/2022	08:57	-132.041	47.478	0	139.10	0	7.4970	0	33.3860	0	26.081	0	137.893	0	177.4	4	60.4	4	-1E+10	1	-1E+10	1	-1E+10	1	-1E+10	1	-1E+10	1	-1E+10	1
4902549	53	C	01/26/2022	08:57	-132.041	47.478	0	139.90	0	7.5020	0	33.3940	0	26.086	0	138.686	0	176.7	4	60.2	4	-1E+10	1	-1E+10	1	-1E+10	1	-1E+10	1	-1E+10	1	-1E+10	1
4902549	53	C	01/26/2022	08:57	-132.041	47.478	0	141.00	0	7.5070	0	33.4220	0	26.108	0	139.776	0	176.0	4	60.0	4	-1E+10	1	-1E+10	1	-1E+10	1	-1E+10	1	-1E+10	1	-1E+10	1
4902549	53	C	01/26/2022	08:57	-132.041	47.478	0	142.30	0	7.4950	0	33.4500	0	26.131	0	141.064	0	175.5	4	59.8	4	-1E+10	1	-1E+10	1	-1E+10	1	-1E+10	1	-1E+10	1	-1E+10	1
4902549	53	C	01/26/2022	08:57	-132.041	47.478	0	143.10	0	7.4930	0	33.4710	0	26.148	0	141.857	0	175.3	4	59.7	4	-1E+10	1	-1E+10	1	-1E+10	1	-1E+10	1	-1E+10	1	-1E+10	1
4902549	53	C	01/26/2022	08:57	-132.041	47.478	0	143.90	0	7.4580	0	33.4850	0	26.164	0	142.650	0	174.9	4	59.5	4	-1E+10	1	-1E+10	1	-1E+10	1	-1E+10	1	-1E+10	1	-1E+10	1
4902549	53	C	01/26/2022	08:57	-132.041	47.478	0	144.80	0	7.4540	0	33.4970	0	26.174	0	143.541	0	174.2	4	59.3	4	-1E+10	1	-1E+10	1	-1E+10	1	-1E+10	1	-1E+10	1	-1E+10	1
4902549	53	C	01/26/2022	08:57	-132.041	47.478	0	145.70	0	7.4590	0	33.5000	0	26.176	0	144.433	0	173.7	4	59.1	4	-1E+10	1	-1E+10	1	-1E+10	1	-1E+10	1	-1E+10	1	-1E+10	1
4902549	53	C	01/26/2022	08:57	-132.041	47.478	0	146.90	0	7.4600	0	33.5080	0	26.182	0	145.622	0	172.8	4	58.9	4	-1E+10	1	-1E+10	1	-1E+10	1	-1E+10	1	-1E+10	1	-1E+10	1
4902549	53	C	01/26/2022	08:57	-132.041	47.478	0	148.20	0	7.4770	0	33.5130	0	26.184	0	146.911	0	172.1	4	58.7	4	-1E+10	1	-1E+10	1	-1E+10	1	-1E+10	1	-1E+10	1	-1E+10	1
4902549	53	C	01/26/2022	08:57	-132.041	47.478	0	149.10	0	7.4820	0	33.5130	0	26.183	0	147.803	0	171.8	4	58.6	4	-1E+10	1	-1E+10	1	-1E+10	1	-1E+10	1	-1E+10	1	-1E+10	1
4902549	53	C	01/26/2022	08:57	-132.041	47.478	0	149.90	0	7.4880	0	33.5320	0	26.197	0	148.595	0	171.8	4	58.6	4	-1E+10	1	-1E+10	1	-1E+10	1	-1E+10	1	-1E+10	1	-1E+10	1
4902549	53	C	01/26/2022	08:57	-132.041	47.478	0	150.80	0	7.4860	0	33.5440	0	26.207	0	149.487	0	171.9	4	58.6	4	-1E+10	1	-1E+10	1	-1E+10	1	-1E+10	1	-1E+10	1	-1E+10	1
4902549	53	C	01/26/2022	08:57	-132.041	47.478	0	151.70	0	7.4800	0	33.5510	0	26.213	0	150.379	0	172.0	4	58.6	4	-1E+10	1	-1E+10	1	-1E+10	1	-1E+10	1	-1E+10	1	-1E+10	1
4902549	53	C	01/26/2022	08:57	-132.041	47.478	0	152.60	0	7.4690	0	33.5620	0	26.223	0	151.271	0	172.1	4	58.6	4	-1E+10	1	-1E+10	1	-1E+10	1	-1E+10	1	-1E+10	1	-1E+10	1
4902549	53	C	01/26/2022	08:57	-132.041	47.478	0	153.90	0	7.4520	0	33.5660	0	26.229	0	152.559	0	171.9	4	58.6	4	-1E+10	1	-1E+10	1	-1E+10	1	-1E+10	1	-1E+10	1	-1E+10	1
4902549	53	C	01/26/2022	08:57	-132.041	47.478	0	155.30	0	7.4240	0	33.5770	0	26.242	0	153.946	0	171.6	4	58.4	4	-1E+10	1	-1E+10	1	-1E+10	1	-1E+10	1	-1E+10	1	-1E+10	1
4902549	53	C	01/26/2022	08:57	-132.041	47.478	0	156.20	0	7.4280	0	33.5970	0	26.257	0	154.838	0	171.5	4	58.4	4	-1E+10	1	-1E+10	1	-1E+10	1	-1E+10	1	-1E+10	1	-1E+10	1
4902549	53	C	01/26/2022	08:57	-132.041	47.478	0	157.10	0	7.4250	0	33.6010	0	26.260	0	155.730	0	171.5	4	58.4	4	-1E+10	1	-1E+10	1	-1E+10	1	-1E+10	1	-1E+10	1	-1E+10	1
4902549	53	C	01/26/2022	08:57	-132.041	47.478	0	158.00	0	7.4260	0	33.6030	0	26.262	0	156.622	0	171.4	4	58.4	4	-1E+10	1	-1E+10	1	-1E+10	1	-1E+10	1	-1E+10	1	-1E+10	1
4902549	53	C	01/26/2022	08:57	-132.041	47.478	0	158.90	0	7.4260	0	33.6050	0	26.263	0	157.514	0	171.4	4	58.4	4	-1E+10	1	-1E+10	1	-1E+10	1	-1E+10	1	-1E+10	1	-1E+10	1
4902549	53	C	01/26/2022	08:57	-132.041	47.478	0	159.80	0	7.4280	0	33.6100	0	26.267	0	158.405	0	171.5	4	58.4	4	-1E+10	1	-1E+10	1	-1E+10	1	-1E+10	1	-1E+10	1	-1E+10	1
4902549	53	C	01/26/2022	08:57	-132.041	47.478	0	160.70	0	7.4310	0	33.6170	0	26.272	0	159.297	0	171.8	4	58.5	4	-1E+10	1	-1E+10	1	-1E+10	1	-1E+10	1	-1E+10	1	-1E+10	1
4902549	53	C	01/26/2022	08:57	-132.041	47.478	0	161.60	0	7.4260	0	33.6260	0	26.280	0	160.189	0	172.2	4	58.6	4	-1E+10	1	-1E+10	1	-1E+10	1	-1E+10	1	-1E+10	1	-1E+10	1
4902549	53	C	01/26/2022	08:57	-132.041	47.478	0	162.90	0	7.3920	0	33.6400	0	26.296	0	161.477	0	172.7	4	58.8	4	-1E+10	1	-1E+10	1	-1E+10	1	-1E+10	1	-1E+10	1	-1E+10	1
4902549	53	C	01/26/2022	08:57	-132.041	47.478	0	164.30	0	7.3740	0	33.6520	0	26.308	0	162.864	0	173.0	4	58.9	4	-1E+10	1	-1E+10	1	-1E+10	1	-1E+10	1	-1E+10	1	-1E+10	1
4902549	53	C	01/26/2022	08:57	-132.041	47.478	0	165.20	0	7.3590	0	33.6580	0	26.314	0	163.756	0	173.1	4	58.9	4	-1E+10	1	-1E+10	1	-1E+10	1	-1E+10	1	-1E+10	1	-1E+10	1
4902549	53	C	01/26/2022	08:57	-132.041	47.478	0	166.10	0	7.3380	0	33.6600	0	26.319	0	164.648	0	173.0	4	58.8	4	-1E+10	1	-1E+10	1	-1E+10	1	-1E+10	1	-1E+10	1	-1E+10	1
4902549	53	C	01/26/2022	08:57	-132.041	47.478	0	167.00	0	7.3450	0	33.6670	0	26.324	0	165.540	0	173.0	4	58.8	4	-1E+10	1	-1E+10	1	-1E+10	1	-1E+10	1	-1E+10	1	-1E+10	1
4902549	53	C	01/26/2022	08:57	-132.041	47.478	0	167.90	0	7.3510	0	33.6740	0	26.328	0	166.431	0	173.4	4	59.0	4	-1E+10	1	-1E+10	1	-1E+10	1	-1E+10	1	-1E+10	1	-1E+10	1
4902549	53	C	01/26/2022	08:57	-132.041	47.478	0	168.90	0	7.3540	0	33.6770	0	26.330	0	167.422	0	174.1	4	59.2	4	-1E+10	1	-1E+10	1	-1E+10	1	-1E+10	1	-1E+10	1	-1E+10	1
4902549	53	C	01/26/2022	08:57	-132.041	47.478	0	169.70	0	7.3580	0	33.6900	0	26.340	0	168.215	0	175.2	4	59.6	4	-1E+10	1	-1E+10	1	-1E+10	1	-1E+10	1	-1E+10	1	-1E+10	1
4902549	53	C	01/26/2022	08:57	-132.041	47.478	0	170.70	0	7.3390	0	33.7000	0	26.350	0	169.206	0	176.4	4	60.0	4	-1E+10	1	-1E+10	1	-1E+10	1	-1E+10	1	-1E+10	1	-1E+10	1
4902549	53	C	01/26/2022	08:57	-132.041	47.478	0	171.60	0	7.3220	0	33.6990	0	26.352	0	170.097	0	177.5	4	60.4	4	-1E+10	1	-1E+10	1	-1E+10	1	-1E+10	1	-1E+10	1	-1E+10	1
4902549	53	C	01/26/2022	08:57	-132.041	47.478	0	172.90	0	7.2980	0	33.7060	0	26.361	0	171.386	0	178.7	4	60.7	4	-1E+10	1	-1E+10	1	-1E+10	1	-1E+10	1	-1E+10	1	-1E+10	1
4902549	53	C	01/26/2022	08:57	-132.041	47.478	0	174.30	0	7.2520	0	33.7150	0	26.374	0	172.773	0	179.5	4	61.0	4	-1E+10	1	-1E+10	1	-1E+10	1	-1E+10	1	-1E+10	1	-1E+10	1
4902549	53	C	01/26/2022	08:57	-132.041	47.478	0	175.20	0	7.2370	0	33.7200	0	26.380	0	173.664	0	179.6	4	61.0	4	-1E+10	1	-1E+10	1	-1E+10	1	-1E+10	1	-1E+10	1	-1E+10	1
4902549	53	C	01/26/2022	08:57	-132.041	47.478	0	176.10	0	7.2310	0	33.7210	0	26.382	0	174.556	0	179.7	4	61.0	4	-1E+10	1	-1E+10	1	-1E+10	1	-1E+10	1	-1E+10	1	-1E+10	1
4902549	53	C	01/26/2022	08:57	-132.041	47.478	0	177.00	0	7.2280	0	33.7200	0	26.382	0	175.448	0	179.7	4	61.0	4	-1E+10	1	-1E+10	1	-1E+10	1	-1E+10	1	-1E+10	1	-1E+10	1
4902549	53	C	01/26/2022	08:57	-132.041	47.478	0	177.90	0	7.2180	0	33.7230	0	26.385	0	176.340	0	179.7	4	61.0	4	-1E+10	1	-1E+10	1	-1E+10	1	-1E+10	1	-1E+10	1	-1E+10	1
4902549	53	C	01/26/2022	08:57	-132.041	47.478	0	178.80	0	7.2000	0	33.7260	0	26.390	0	177.231	0	179.5	4	60.9	4	-1E+10	1	-1E+10	1	-1E+10	1	-1E+10	1	-1E+10	1	-1E+10	1
4902549	53	C	01/26/2022	08:57	-132.041	47.478	0	179.70	0	7.1760	0	33.7320	0	26.398	0	178.123	0	179.2	4	60.7	4	-1E+10	1	-1E+10	1	-1E+10	1	-1E+10	1	-1E+10	1	-1E+10	1
4902549	53	C	01/26/2022	08:57	-132.041	47.478	0	180.60	0	7.1510	0	33.7360	0	26.405	0	179.015	0	178.8	4	60.6	4	-1E+10	1	-1E+10	1	-1E+10	1	-1E+10	1	-1E+10	1	-1E+10	1
4902549	53	C	01/26/2022	08:57	-132.041	47.478	0	181.60	0	7.1380	0	33.7450	0	26.414	0	180.006	0	178.4	4	60.4	4	-1E+10	1	-1E+10	1	-1E+10	1	-1E+10	1	-1E+10	1	-1E+10	1
4902549	53	C	01/26/2022	08:57	-132.041	47.478	0	182.90	0	7.0980	0	33.7400	0	26.415	0	181.294	0	177.9	4	60.2	4	-1E+10	1	-1E+10	1	-1E+10	1	-1E+10	1	-1E+10	1	-1E+10	1
4902549	53	C	01/26/2022	08:57	-132.041	47.478	0	184.40	0	7.0720	0	33.7450	0	26.423	0	182.780	0	177.2	4	59.9	4	-1E+10	1	-1E+10	1	-1E+10	1	-1E+10	1	-1E+10	1	-1E+10	1
4902549	53	C	01/26/2022	08:57	-132.041	47.478	0	185.30	0	7.0510	0	33.7430	0	26.424	0	183.671	0	176.7	4	59.7	4	-1E+10	1	-1E+10	1	-1E+10	1	-1E+10	1	-1E+10	1	-1E+10	1
4902549	53	C	01/26/2022	08:57	-132.041	47.478	0	186.30	0	7.0310	0	33.7490	0	26.432	0	184.662	0	176.2	4	59.5	4	-1E+10	1	-1E+10	1	-1E+10	1	-1E+10	1	-1E+10	1	-1E+10	1
4902549	53	C	01/26/2022	08:57	-132.041	47.478	0	187.20	0	7.0140	0	33.7510	0	26.436	0	185.554	0	175.8	4	59.4	4	-1E+10	1	-1E+10	1	-1E+10	1	-1E+10	1	-1E+10	1	-1E+10	1
4902549	53	C	01/26/2022	08:57	-132.041	47.478	0	188.20	0	6.9960	0	33.7550	0	26.441	0	186.545	0	175.3	4	59.2	4	-1E+10	1	-1E+10	1	-1E+10	1	-1E+10	1	-1E+10	1	-1E+10	1
4902549	53	C	01/26/2022	08:57	-132.041	47.478	0	189.10	0	6.9830	0	33.7560	0	26.444	0	187.436	0	174.8	4	59.0	4	-1E+10	1	-1E+10	1	-1E+10	1	-1E+10	1	-1E+10	1	-1E+10	1
4902549	53	C	01/26/2022	08:57	-132.041	47.478	0	190.10	0	6.9550	0	33.7580	0	26.449	0	188.427	0	174.4	4	58.8	4	-1E+10	1	-1E+10	1	-1E+10	1	-1E+10	1	-1E+10	1	-1E+10	1
4902549	53	C	01/26/2022	08:57	-132.041	47.478	0	191.10	0	6.9270	0	33.7600	0	26.455	0	189.418	0	174.1	4	58.7	4	-1E+10	1	-1E+10	1	-1E+10	1	-1E+10	1	-1E+10	1	-1E+10	1
4902549	53	C	01/26/2022	08:57	-132.041	47.478	0	192.10	0	6.9180	0	33.7600	0	26.456	0	190.409	0	173.5	4	58.5	4	-1E+10	1	-1E+10	1	-1E+10	1	-1E+10	1	-1E+10	1	-1E+10	1
4902549	53	C	01/26/2022	08:57	-132.041	47.478	0	193.00	0	6.9170	0	33.7580	0	26.454	0	191.300	0	173.0	4	58.3	4	-1E+10	1	-1E+10	1	-1E+10	1	-1E+10	1	-1E+10	1	-1E+10	1
4902549	53	C	01/26/2022	08:57	-132.041	47.478	0	194.00	0	6.8960	0	33.7630	0	26.461	0	192.291	0	172.4	4	58.1	4	-1E+10	1	-1E+10	1	-1E+10	1	-1E+10	1	-1E+10	1	-1E+10	1
4902549	53	C	01/26/2022	08:57	-132.041	47.478	0	195.00	0	6.8640	0	33.7640	0	26.466	0	193.282	0	172.1	4	57.9	4	-1E+10	1	-1E+10	1	-1E+10	1	-1E+10	1	-1E+10	1	-1E+10	1
4902549	53	C	01/26/2022	08:57	-132.041	47.478	0	196.00	0	6.8570	0	33.7670	0	26.470	0	194.272	0	171.5	4	57.7	4	-1E+10	1	-1E+10	1	-1E+10	1	-1E+10	1	-1E+10	1	-1E+10	1
4902549	53	C	01/26/2022	08:57	-132.041	47.478	0	197.00	0	6.8380	0	33.7680	0	26.473	0	195.263	0	171.1	4	57.6	4	-1E+10	1	-1E+10	1	-1E+10	1	-1E+10	1	-1E+10	1	-1E+10	1
4902549	53	C	01/26/2022	08:57	-132.041	47.478	0	198.00	0	6.8300	0	33.7700	0	26.476	0	196.254	0	170.5	4	57.4	4	-1E+10	1	-1E+10	1	-1E+10	1	-1E+10	1	-1E+10	1	-1E+10	1
4902549	53	C	01/26/2022	08:57	-132.041	47.478	0	199.00	0	6.8080	0	33.7720	0	26.480	0	197.244	0	169.9	4	57.1	4	-1E+10	1	-1E+10	1	-1E+10	1	-1E+10	1	-1E+10	1	-1E+10	1
4902549	53	C	01/26/2022	08:57	-132.041	47.478	0	200.00	0	6.7860	0	33.7700	0	26.481	0	198.235	0	169.5	4	57.0	4	-1E+10	1	-1E+10	1	-1E+10	1	-1E+10	1	-1E+10	1	-1E+10	1
4902549	53	C	01/26/2022	08:57	-132.041	47.478	0	201.00	0	6.7850	0	33.7700	0	26.482	0	199.226	0	168.9	4	56.8	4	-1E+10	1	-1E+10	1	-1E+10	1	-1E+10	1	-1E+10	1	-1E+10	1
4902549	53	C	01/26/2022	08:57	-132.041	47.478	0	202.00	0	6.7730	0	33.7750	0	26.487	0	200.217	0	168.2	4	56.5	4	-1E+10	1	-1E+10	1	-1E+10	1	-1E+10	1	-1E+10	1	-1E+10	1
4902549	53	C	01/26/2022	08:57	-132.041	47.478	0	203.00	0	6.7490	0	33.7750	0	26.490	0	201.207	0	167.7	4	56.3	4	-1E+10	1	-1E+10	1	-1E+10	1	-1E+10	1	-1E+10	1	-1E+10	1
4902549	53	C	01/26/2022	08:57	-132.041	47.478	0	204.00	0	6.7280	0	33.7760	0	26.494	0	202.198	0	167.2	4	56.1	4	-1E+10	1	-1E+10	1	-1E+10	1	-1E+10	1	-1E+10	1	-1E+10	1
4902549	53	C	01/26/2022	08:57	-132.041	47.478	0	205.10	0	6.7230	0	33.7750	0	26.494	0	203.288	0	166.5	4	55.9	4	-1E+10	1	-1E+10	1	-1E+10	1	-1E+10	1	-1E+10	1	-1E+10	1
4902549	53	C	01/26/2022	08:57	-132.041	47.478	0	206.10	0	6.7020	0	33.7770	0	26.498	0	204.278	0	166.1	4	55.7	4	-1E+10	1	-1E+10	1	-1E+10	1	-1E+10	1	-1E+10	1	-1E+10	1
4902549	53	C	01/26/2022	08:57	-132.041	47.478	0	207.10	0	6.6900	0	33.7780	0	26.501	0	205.269	0	165.5	4	55.5	4	-1E+10	1	-1E+10	1	-1E+10	1	-1E+10	1	-1E+10	1	-1E+10	1
4902549	53	C	01/26/2022	08:57	-132.041	47.478	0	208.20	0	6.6800	0	33.7770	0	26.501	0	206.359	0	164.9	4	55.3	4	-1E+10	1	-1E+10	1	-1E+10	1	-1E+10	1	-1E+10	1	-1E+10	1
4902549	53	C	01/26/2022	08:57	-132.041	47.478	0	209.20	0	6.6760	0	33.7770	0	26.502	0	207.349	0	164.2	4	55.1	4	-1E+10	1	-1E+10	1	-1E+10	1	-1E+10	1	-1E+10	1	-1E+10	1
4902549	53	C	01/26/2022	08:57	-132.041	47.478	0	210.20	0	6.6460	0	33.7790	0	26.507	0	208.340	0	163.6	4	54.8	4	-1E+10	1	-1E+10	1	-1E+10	1	-1E+10	1	-1E+10	1	-1E+10	1
4902549	53	C	01/26/2022	08:57	-132.041	47.478	0	211.30	0	6.6200	0	33.7790	0	26.511	0	209.430	0	163.1	4	54.6	4	-1E+10	1	-1E+10	1	-1E+10	1	-1E+10	1	-1E+10	1	-1E+10	1
4902549	53	C	01/26/2022	08:57	-132.041	47.478	0	212.30	0	6.6000	0	33.7830	0	26.517	0	210.420	0	162.6	4	54.4	4	-1E+10	1	-1E+10	1	-1E+10	1	-1E+10	1	-1E+10	1	-1E+10	1
4902549	53	C	01/26/2022	08:57	-132.041	47.478	0	213.40	0	6.5860	0	33.7800	0	26.516	0	211.510	0	162.0	4	54.2	4	-1E+10	1	-1E+10	1	-1E+10	1	-1E+10	1	-1E+10	1	-1E+10	1
4902549	53	C	01/26/2022	08:57	-132.041	47.478	0	214.40	0	6.5860	0	33.7800	0	26.516	0	212.501	0	161.3	4	54.0	4	-1E+10	1	-1E+10	1	-1E+10	1	-1E+10	1	-1E+10	1	-1E+10	1
4902549	53	C	01/26/2022	08:57	-132.041	47.478	0	215.40	0	6.5820	0	33.7810	0	26.517	0	213.491	0	160.5	4	53.7	4	-1E+10	1	-1E+10	1	-1E+10	1	-1E+10	1	-1E+10	1	-1E+10	1
4902549	53	C	01/26/2022	08:57	-132.041	47.478	0	216.40	0	6.5750	0	33.7800	0	26.517	0	214.482	0	159.6	4	53.4	4	-1E+10	1	-1E+10	1	-1E+10	1	-1E+10	1	-1E+10	1	-1E+10	1
4902549	53	C	01/26/2022	08:57	-132.041	47.478	0	217.50	0	6.5380	0	33.7800	0	26.522	0	215.572	0	158.8	4	53.1	4	-1E+10	1	-1E+10	1	-1E+10	1	-1E+10	1	-1E+10	1	-1E+10	1
4902549	53	C	01/26/2022	08:57	-132.041	47.478	0	218.50	0	6.5080	0	33.7830	0	26.529	0	216.562	0	157.9	4	52.7	4	-1E+10	1	-1E+10	1	-1E+10	1	-1E+10	1	-1E+10	1	-1E+10	1
4902549	53	C	01/26/2022	08:57	-132.041	47.478	0	219.50	0	6.4770	0	33.7840	0	26.533	0	217.553	0	157.2	4	52.5	4	-1E+10	1	-1E+10	1	-1E+10	1	-1E+10	1	-1E+10	1	-1E+10	1
4902549	53	C	01/26/2022	08:57	-132.041	47.478	0	220.60	0	6.4490	0	33.7810	0	26.535	0	218.643	0	156.5	4	52.2	4	-1E+10	1	-1E+10	1	-1E+10	1	-1E+10	1	-1E+10	1	-1E+10	1
4902549	53	C	01/26/2022	08:57	-132.041	47.478	0	221.60	0	6.4290	0	33.7820	0	26.538	0	219.633	0	155.8	4	51.9	4	-1E+10	1	-1E+10	1	-1E+10	1	-1E+10	1	-1E+10	1	-1E+10	1
4902549	53	C	01/26/2022	08:57	-132.041	47.478	0	222.70	0	6.4270	0	33.7820	0	26.538	0	220.723	0	154.9	4	51.6	4	-1E+10	1	-1E+10	1	-1E+10	1	-1E+10	1	-1E+10	1	-1E+10	1
4902549	53	C	01/26/2022	08:57	-132.041	47.478	0	223.80	0	6.4260	0	33.7820	0	26.539	0	221.812	0	154.0	4	51.3	4	-1E+10	1	-1E+10	1	-1E+10	1	-1E+10	1	-1E+10	1	-1E+10	1
4902549	53	C	01/26/2022	08:57	-132.041	47.478	0	224.80	0	6.3590	0	33.7870	0	26.551	0	222.803	0	153.3	4	51.0	4	-1E+10	1	-1E+10	1	-1E+10	1	-1E+10	1	-1E+10	1	-1E+10	1
4902549	53	C	01/26/2022	08:57	-132.041	47.478	0	225.90	0	6.3510	0	33.7860	0	26.551	0	223.893	0	152.6	4	50.8	4	-1E+10	1	-1E+10	1	-1E+10	1	-1E+10	1	-1E+10	1	-1E+10	1
4902549	53	C	01/26/2022	08:57	-132.041	47.478	0	226.90	0	6.3410	0	33.7850	0	26.552	0	224.883	0	151.7	4	50.5	4	-1E+10	1	-1E+10	1	-1E+10	1	-1E+10	1	-1E+10	1	-1E+10	1
4902549	53	C	01/26/2022	08:57	-132.041	47.478	0	228.00	0	6.3240	0	33.7880	0	26.557	0	225.973	0	150.9	4	50.2	4	-1E+10	1	-1E+10	1	-1E+10	1	-1E+10	1	-1E+10	1	-1E+10	1
4902549	53	C	01/26/2022	08:57	-132.041	47.478	0	229.00	0	6.2960	0	33.7860	0	26.559	0	226.963	0	150.1	4	49.9	4	-1E+10	1	-1E+10	1	-1E+10	1	-1E+10	1	-1E+10	1	-1E+10	1
4902549	53	C	01/26/2022	08:57	-132.041	47.478	0	230.10	0	6.2790	0	33.7850	0	26.560	0	228.053	0	149.2	4	49.6	4	-1E+10	1	-1E+10	1	-1E+10	1	-1E+10	1	-1E+10	1	-1E+10	1
4902549	53	C	01/26/2022	08:57	-132.041	47.478	0	231.10	0	6.2450	0	33.7920	0	26.570	0	229.044	0	148.4	4	49.3	4	-1E+10	1	-1E+10	1	-1E+10	1	-1E+10	1	-1E+10	1	-1E+10	1
4902549	53	C	01/26/2022	08:57	-132.041	47.478	0	232.20	0	6.1910	0	33.7890	0	26.574	0	230.133	0	148.1	4	49.1	4	-1E+10	1	-1E+10	1	-1E+10	1	-1E+10	1	-1E+10	1	-1E+10	1
4902549	53	C	01/26/2022	08:57	-132.041	47.478	0	233.30	0	6.1890	0	33.7890	0	26.575	0	231.223	0	147.5	4	48.9	4	-1E+10	1	-1E+10	1	-1E+10	1	-1E+10	1	-1E+10	1	-1E+10	1
4902549	53	C	01/26/2022	08:57	-132.041	47.478	0	234.40	0	6.1790	0	33.7910	0	26.577	0	232.312	0	146.9	4	48.7	4	-1E+10	1	-1E+10	1	-1E+10	1	-1E+10	1	-1E+10	1	-1E+10	1
4902549	53	C	01/26/2022	08:57	-132.041	47.478	0	235.40	0	6.1640	0	33.7900	0	26.579	0	233.303	0	146.2	4	48.5	4	-1E+10	1	-1E+10	1	-1E+10	1	-1E+10	1	-1E+10	1	-1E+10	1
4902549	53	C	01/26/2022	08:57	-132.041	47.478	0	236.50	0	6.1510	0	33.7900	0	26.580	0	234.392	0	145.7	4	48.2	4	-1E+10	1	-1E+10	1	-1E+10	1	-1E+10	1	-1E+10	1	-1E+10	1
4902549	53	C	01/26/2022	08:57	-132.041	47.478	0	237.60	0	6.1450	0	33.7900	0	26.581	0	235.482	0	145.0	4	48.0	4	-1E+10	1	-1E+10	1	-1E+10	1	-1E+10	1	-1E+10	1	-1E+10	1
4902549	53	C	01/26/2022	08:57	-132.041	47.478	0	238.60	0	6.1350	0	33.7890	0	26.581	0	236.473	0	144.3	4	47.8	4	-1E+10	1	-1E+10	1	-1E+10	1	-1E+10	1	-1E+10	1	-1E+10	1
4902549	53	C	01/26/2022	08:57	-132.041	47.478	0	239.70	0	6.1230	0	33.7910	0	26.585	0	237.562	0	143.5	4	47.5	4	-1E+10	1	-1E+10	1	-1E+10	1	-1E+10	1	-1E+10	1	-1E+10	1
4902549	53	C	01/26/2022	08:57	-132.041	47.478	0	240.80	0	6.0680	0	33.7930	0	26.593	0	238.652	0	143.1	4	47.3	4	-1E+10	1	-1E+10	1	-1E+10	1	-1E+10	1	-1E+10	1	-1E+10	1
4902549	53	C	01/26/2022	08:57	-132.041	47.478	0	241.80	0	6.0480	0	33.7920	0	26.595	0	239.642	0	142.6	4	47.1	4	-1E+10	1	-1E+10	1	-1E+10	1	-1E+10	1	-1E+10	1	-1E+10	1
4902549	53	C	01/26/2022	08:57	-132.041	47.478	0	242.90	0	6.0340	0	33.7920	0	26.597	0	240.732	0	142.2	4	47.0	4	-1E+10	1	-1E+10	1	-1E+10	1	-1E+10	1	-1E+10	1	-1E+10	1
4902549	53	C	01/26/2022	08:57	-132.041	47.478	0	244.00	0	6.0250	0	33.7930	0	26.599	0	241.821	0	141.8	4	46.8	4	-1E+10	1	-1E+10	1	-1E+10	1	-1E+10	1	-1E+10	1	-1E+10	1
4902549	53	C	01/26/2022	08:57	-132.041	47.478	0	245.10	0	6.0190	0	33.7930	0	26.599	0	242.911	0	141.2	4	46.6	4	-1E+10	1	-1E+10	1	-1E+10	1	-1E+10	1	-1E+10	1	-1E+10	1
4902549	53	C	01/26/2022	08:57	-132.041	47.478	0	246.10	0	6.0150	0	33.7930	0	26.600	0	243.901	0	140.7	4	46.5	4	-1E+10	1	-1E+10	1	-1E+10	1	-1E+10	1	-1E+10	1	-1E+10	1
4902549	53	C	01/26/2022	08:57	-132.041	47.478	0	247.20	0	6.0150	0	33.7930	0	26.600	0	244.991	0	140.1	4	46.3	4	-1E+10	1	-1E+10	1	-1E+10	1	-1E+10	1	-1E+10	1	-1E+10	1
4902549	53	C	01/26/2022	08:57	-132.041	47.478	0	248.20	0	6.0130	0	33.7930	0	26.600	0	245.981	0	139.3	4	46.0	4	-1E+10	1	-1E+10	1	-1E+10	1	-1E+10	1	-1E+10	1	-1E+10	1
4902549	53	C	01/26/2022	08:57	-132.041	47.478	0	249.30	0	6.0110	0	33.7930	0	26.600	0	247.071	0	138.5	4	45.7	4	-1E+10	1	-1E+10	1	-1E+10	1	-1E+10	1	-1E+10	1	-1E+10	1
4902549	53	C	01/26/2022	08:57	-132.041	47.478	0	250.40	0	6.0010	0	33.7930	0	26.602	0	248.160	0	137.7	4	45.4	4	-1E+10	1	-1E+10	1	-1E+10	1	-1E+10	1	-1E+10	1	-1E+10	1
4902549	53	C	01/26/2022	08:57	-132.041	47.478	0	251.40	0	5.9970	0	33.7930	0	26.602	0	249.151	0	136.7	4	45.1	4	-1E+10	1	-1E+10	1	-1E+10	1	-1E+10	1	-1E+10	1	-1E+10	1
4902549	53	C	01/26/2022	08:57	-132.041	47.478	0	252.50	0	5.9720	0	33.7950	0	26.607	0	250.240	0	135.8	4	44.8	4	-1E+10	1	-1E+10	1	-1E+10	1	-1E+10	1	-1E+10	1	-1E+10	1
4902549	53	C	01/26/2022	08:57	-132.041	47.478	0	253.50	0	5.9260	0	33.7970	0	26.614	0	251.231	0	135.1	4	44.5	4	-1E+10	1	-1E+10	1	-1E+10	1	-1E+10	1	-1E+10	1	-1E+10	1
4902549	53	C	01/26/2022	08:57	-132.041	47.478	0	254.60	0	5.9140	0	33.7980	0	26.616	0	252.320	0	134.4	4	44.3	4	-1E+10	1	-1E+10	1	-1E+10	1	-1E+10	1	-1E+10	1	-1E+10	1
4902549	53	C	01/26/2022	08:57	-132.041	47.478	0	255.60	0	5.9070	0	33.7980	0	26.617	0	253.311	0	133.4	4	43.9	4	-1E+10	1	-1E+10	1	-1E+10	1	-1E+10	1	-1E+10	1	-1E+10	1
4902549	53	C	01/26/2022	08:57	-132.041	47.478	0	256.60	0	5.8910	0	33.8010	0	26.622	0	254.301	0	132.5	4	43.6	4	-1E+10	1	-1E+10	1	-1E+10	1	-1E+10	1	-1E+10	1	-1E+10	1
4902549	53	C	01/26/2022	08:57	-132.041	47.478	0	257.60	0	5.8660	0	33.8040	0	26.627	0	255.291	0	131.8	4	43.4	4	-1E+10	1	-1E+10	1	-1E+10	1	-1E+10	1	-1E+10	1	-1E+10	1
4902549	53	C	01/26/2022	08:57	-132.041	47.478	0	258.80	0	5.8320	0	33.8060	0	26.633	0	256.480	0	130.9	4	43.0	4	-1E+10	1	-1E+10	1	-1E+10	1	-1E+10	1	-1E+10	1	-1E+10	1
4902549	53	C	01/26/2022	08:57	-132.041	47.478	0	259.90	0	5.8160	0	33.8040	0	26.633	0	257.569	0	129.9	4	42.7	4	-1E+10	1	-1E+10	1	-1E+10	1	-1E+10	1	-1E+10	1	-1E+10	1
4902549	53	C	01/26/2022	08:57	-132.041	47.478	0	261.10	0	5.8090	0	33.8050	0	26.635	0	258.758	0	128.8	4	42.3	4	-1E+10	1	-1E+10	1	-1E+10	1	-1E+10	1	-1E+10	1	-1E+10	1
4902549	53	C	01/26/2022	08:57	-132.041	47.478	0	261.90	0	5.7990	0	33.8040	0	26.635	0	259.550	0	128.0	4	42.0	4	-1E+10	1	-1E+10	1	-1E+10	1	-1E+10	1	-1E+10	1	-1E+10	1
4902549	53	C	01/26/2022	08:57	-132.041	47.478	0	262.70	0	5.7640	0	33.8070	0	26.642	0	260.342	0	127.3	4	41.8	4	-1E+10	1	-1E+10	1	-1E+10	1	-1E+10	1	-1E+10	1	-1E+10	1
4902549	53	C	01/26/2022	08:57	-132.041	47.478	0	263.90	0	5.7340	0	33.8070	0	26.646	0	261.531	0	126.5	4	41.5	4	-1E+10	1	-1E+10	1	-1E+10	1	-1E+10	1	-1E+10	1	-1E+10	1
4902549	53	C	01/26/2022	08:57	-132.041	47.478	0	265.10	0	5.7170	0	33.8090	0	26.649	0	262.719	0	125.7	4	41.2	4	-1E+10	1	-1E+10	1	-1E+10	1	-1E+10	1	-1E+10	1	-1E+10	1
4902549	53	C	01/26/2022	08:57	-132.041	47.478	0	265.90	0	5.6790	0	33.8140	0	26.658	0	263.512	0	125.4	4	41.1	4	-1E+10	1	-1E+10	1	-1E+10	1	-1E+10	1	-1E+10	1	-1E+10	1
4902549	53	C	01/26/2022	08:57	-132.041	47.478	0	266.70	0	5.6750	0	33.8150	0	26.659	0	264.304	0	125.0	4	41.0	4	-1E+10	1	-1E+10	1	-1E+10	1	-1E+10	1	-1E+10	1	-1E+10	1
4902549	53	C	01/26/2022	08:57	-132.041	47.478	0	267.90	0	5.6700	0	33.8150	0	26.660	0	265.492	0	124.3	4	40.7	4	-1E+10	1	-1E+10	1	-1E+10	1	-1E+10	1	-1E+10	1	-1E+10	1
4902549	53	C	01/26/2022	08:57	-132.041	47.478	0	269.10	0	5.6560	0	33.8160	0	26.662	0	266.681	0	123.6	4	40.5	4	-1E+10	1	-1E+10	1	-1E+10	1	-1E+10	1	-1E+10	1	-1E+10	1
4902549	53	C	01/26/2022	08:57	-132.041	47.478	0	270.00	0	5.6520	0	33.8170	0	26.664	0	267.572	0	123.1	4	40.3	4	-1E+10	1	-1E+10	1	-1E+10	1	-1E+10	1	-1E+10	1	-1E+10	1
4902549	53	C	01/26/2022	08:57	-132.041	47.478	0	270.80	0	5.6460	0	33.8170	0	26.664	0	268.365	0	122.5	4	40.1	4	-1E+10	1	-1E+10	1	-1E+10	1	-1E+10	1	-1E+10	1	-1E+10	1
4902549	53	C	01/26/2022	08:57	-132.041	47.478	0	272.00	0	5.6280	0	33.8200	0	26.669	0	269.553	0	121.7	4	39.8	4	-1E+10	1	-1E+10	1	-1E+10	1	-1E+10	1	-1E+10	1	-1E+10	1
4902549	53	C	01/26/2022	08:57	-132.041	47.478	0	273.20	0	5.6070	0	33.8230	0	26.674	0	270.741	0	121.2	4	39.6	4	-1E+10	1	-1E+10	1	-1E+10	1	-1E+10	1	-1E+10	1	-1E+10	1
4902549	53	C	01/26/2022	08:57	-132.041	47.478	0	274.00	0	5.6060	0	33.8230	0	26.674	0	271.534	0	120.7	4	39.5	4	-1E+10	1	-1E+10	1	-1E+10	1	-1E+10	1	-1E+10	1	-1E+10	1
4902549	53	C	01/26/2022	08:57	-132.041	47.478	0	274.80	0	5.6010	0	33.8240	0	26.675	0	272.326	0	120.3	4	39.3	4	-1E+10	1	-1E+10	1	-1E+10	1	-1E+10	1	-1E+10	1	-1E+10	1
4902549	53	C	01/26/2022	08:57	-132.041	47.478	0	275.60	0	5.5960	0	33.8250	0	26.677	0	273.118	0	119.9	4	39.2	4	-1E+10	1	-1E+10	1	-1E+10	1	-1E+10	1	-1E+10	1	-1E+10	1
4902549	53	C	01/26/2022	08:57	-132.041	47.478	0	276.90	0	5.5840	0	33.8280	0	26.681	0	274.406	0	119.2	4	39.0	4	-1E+10	1	-1E+10	1	-1E+10	1	-1E+10	1	-1E+10	1	-1E+10	1
4902549	53	C	01/26/2022	08:57	-132.041	47.478	0	278.10	0	5.5720	0	33.8300	0	26.684	0	275.594	0	118.6	4	38.8	4	-1E+10	1	-1E+10	1	-1E+10	1	-1E+10	1	-1E+10	1	-1E+10	1
4902549	53	C	01/26/2022	08:57	-132.041	47.478	0	278.90	0	5.5700	0	33.8310	0	26.685	0	276.386	0	118.2	4	38.6	4	-1E+10	1	-1E+10	1	-1E+10	1	-1E+10	1	-1E+10	1	-1E+10	1
4902549	53	C	01/26/2022	08:57	-132.041	47.478	0	279.70	0	5.5660	0	33.8310	0	26.685	0	277.179	0	117.7	4	38.5	4	-1E+10	1	-1E+10	1	-1E+10	1	-1E+10	1	-1E+10	1	-1E+10	1
4902549	53	C	01/26/2022	08:57	-132.041	47.478	0	280.90	0	5.5640	0	33.8300	0	26.685	0	278.367	0	116.7	4	38.2	4	-1E+10	1	-1E+10	1	-1E+10	1	-1E+10	1	-1E+10	1	-1E+10	1
4902549	53	C	01/26/2022	08:57	-132.041	47.478	0	282.10	0	5.5610	0	33.8290	0	26.684	0	279.555	0	115.6	4	37.8	4	-1E+10	1	-1E+10	1	-1E+10	1	-1E+10	1	-1E+10	1	-1E+10	1
4902549	53	C	01/26/2022	08:57	-132.041	47.478	0	283.00	0	5.5590	0	33.8270	0	26.683	0	280.447	0	114.9	4	37.5	4	-1E+10	1	-1E+10	1	-1E+10	1	-1E+10	1	-1E+10	1	-1E+10	1
4902549	53	C	01/26/2022	08:57	-132.041	47.478	0	283.80	0	5.5210	0	33.8300	0	26.690	0	281.239	0	114.2	4	37.3	4	-1E+10	1	-1E+10	1	-1E+10	1	-1E+10	1	-1E+10	1	-1E+10	1
4902549	53	C	01/26/2022	08:57	-132.041	47.478	0	285.00	0	5.5000	0	33.8340	0	26.695	0	282.427	0	113.2	4	37.0	4	-1E+10	1	-1E+10	1	-1E+10	1	-1E+10	1	-1E+10	1	-1E+10	1
4902549	53	C	01/26/2022	08:57	-132.041	47.478	0	286.30	0	5.4760	0	33.8370	0	26.701	0	283.715	0	112.5	4	36.7	4	-1E+10	1	-1E+10	1	-1E+10	1	-1E+10	1	-1E+10	1	-1E+10	1
4902549	53	C	01/26/2022	08:57	-132.041	47.478	0	287.10	0	5.4670	0	33.8390	0	26.703	0	284.507	0	111.9	4	36.5	4	-1E+10	1	-1E+10	1	-1E+10	1	-1E+10	1	-1E+10	1	-1E+10	1
4902549	53	C	01/26/2022	08:57	-132.041	47.478	0	287.90	0	5.4330	0	33.8400	0	26.708	0	285.299	0	111.5	4	36.3	4	-1E+10	1	-1E+10	1	-1E+10	1	-1E+10	1	-1E+10	1	-1E+10	1
4902549	53	C	01/26/2022	08:57	-132.041	47.478	0	288.80	0	5.4270	0	33.8400	0	26.709	0	286.190	0	111.1	4	36.2	4	-1E+10	1	-1E+10	1	-1E+10	1	-1E+10	1	-1E+10	1	-1E+10	1
4902549	53	C	01/26/2022	08:57	-132.041	47.478	0	289.70	0	5.4190	0	33.8410	0	26.711	0	287.081	0	110.7	4	36.1	4	-1E+10	1	-1E+10	1	-1E+10	1	-1E+10	1	-1E+10	1	-1E+10	1
4902549	53	C	01/26/2022	08:57	-132.041	47.478	0	290.90	0	5.4170	0	33.8440	0	26.713	0	288.270	0	110.2	4	35.9	4	-1E+10	1	-1E+10	1	-1E+10	1	-1E+10	1	-1E+10	1	-1E+10	1
4902549	53	C	01/26/2022	08:57	-132.041	47.478	0	292.20	0	5.4090	0	33.8470	0	26.717	0	289.557	0	109.6	4	35.7	4	-1E+10	1	-1E+10	1	-1E+10	1	-1E+10	1	-1E+10	1	-1E+10	1
4902549	53	C	01/26/2022	08:57	-132.041	47.478	0	293.10	0	5.4020	0	33.8470	0	26.717	0	290.448	0	109.3	4	35.6	4	-1E+10	1	-1E+10	1	-1E+10	1	-1E+10	1	-1E+10	1	-1E+10	1
4902549	53	C	01/26/2022	08:57	-132.041	47.478	0	294.00	0	5.3990	0	33.8480	0	26.719	0	291.340	0	109.0	4	35.5	4	-1E+10	1	-1E+10	1	-1E+10	1	-1E+10	1	-1E+10	1	-1E+10	1
4902549	53	C	01/26/2022	08:57	-132.041	47.478	0	294.80	0	5.3970	0	33.8490	0	26.720	0	292.132	0	108.5	4	35.3	4	-1E+10	1	-1E+10	1	-1E+10	1	-1E+10	1	-1E+10	1	-1E+10	1
4902549	53	C	01/26/2022	08:57	-132.041	47.478	0	295.70	0	5.3960	0	33.8490	0	26.720	0	293.023	0	108.1	4	35.2	4	-1E+10	1	-1E+10	1	-1E+10	1	-1E+10	1	-1E+10	1	-1E+10	1
4902549	53	C	01/26/2022	08:57	-132.041	47.478	0	296.60	0	5.3980	0	33.8510	0	26.721	0	293.914	0	107.7	4	35.1	4	-1E+10	1	-1E+10	1	-1E+10	1	-1E+10	1	-1E+10	1	-1E+10	1
4902549	53	C	01/26/2022	08:57	-132.041	47.478	0	297.90	0	5.3810	0	33.8490	0	26.722	0	295.201	0	107.1	4	34.9	4	-1E+10	1	-1E+10	1	-1E+10	1	-1E+10	1	-1E+10	1	-1E+10	1
4902549	53	C	01/26/2022	08:57	-132.041	47.478	0	299.20	0	5.3800	0	33.8530	0	26.725	0	296.489	0	106.6	4	34.7	4	-1E+10	1	-1E+10	1	-1E+10	1	-1E+10	1	-1E+10	1	-1E+10	1
4902549	53	C	01/26/2022	08:57	-132.041	47.478	0	300.10	0	5.3800	0	33.8550	0	26.726	0	297.380	0	106.2	4	34.6	4	-1E+10	1	-1E+10	1	-1E+10	1	-1E+10	1	-1E+10	1	-1E+10	1
4902549	53	C	01/26/2022	08:57	-132.041	47.478	0	301.00	0	5.3830	0	33.8550	0	26.726	0	298.271	0	105.8	4	34.4	4	-1E+10	1	-1E+10	1	-1E+10	1	-1E+10	1	-1E+10	1	-1E+10	1
4902549	53	C	01/26/2022	08:57	-132.041	47.478	0	301.90	0	5.3710	0	33.8590	0	26.731	0	299.162	0	105.5	4	34.3	4	-1E+10	1	-1E+10	1	-1E+10	1	-1E+10	1	-1E+10	1	-1E+10	1
4902549	53	C	01/26/2022	08:57	-132.041	47.478	0	302.80	0	5.3730	0	33.8590	0	26.730	0	300.054	0	105.3	4	34.3	4	-1E+10	1	-1E+10	1	-1E+10	1	-1E+10	1	-1E+10	1	-1E+10	1
4902549	53	C	01/26/2022	08:57	-132.041	47.478	0	303.70	0	5.3730	0	33.8600	0	26.731	0	300.945	0	105.0	4	34.2	4	-1E+10	1	-1E+10	1	-1E+10	1	-1E+10	1	-1E+10	1	-1E+10	1
4902549	53	C	01/26/2022	08:57	-132.041	47.478	0	304.60	0	5.3730	0	33.8590	0	26.730	0	301.836	0	104.7	4	34.1	4	-1E+10	1	-1E+10	1	-1E+10	1	-1E+10	1	-1E+10	1	-1E+10	1
4902549	53	C	01/26/2022	08:57	-132.041	47.478	0	305.60	0	5.3690	0	33.8590	0	26.731	0	302.826	0	104.3	4	33.9	4	-1E+10	1	-1E+10	1	-1E+10	1	-1E+10	1	-1E+10	1	-1E+10	1
4902549	53	C	01/26/2022	08:57	-132.041	47.478	0	306.90	0	5.3540	0	33.8580	0	26.732	0	304.113	0	103.7	4	33.7	4	-1E+10	1	-1E+10	1	-1E+10	1	-1E+10	1	-1E+10	1	-1E+10	1
4902549	53	C	01/26/2022	08:57	-132.041	47.478	0	308.40	0	5.3450	0	33.8600	0	26.735	0	305.599	0	103.2	4	33.6	4	-1E+10	1	-1E+10	1	-1E+10	1	-1E+10	1	-1E+10	1	-1E+10	1
4902549	53	C	01/26/2022	08:57	-132.041	47.478	0	309.30	0	5.3430	0	33.8610	0	26.736	0	306.490	0	102.7	4	33.4	4	-1E+10	1	-1E+10	1	-1E+10	1	-1E+10	1	-1E+10	1	-1E+10	1
4902549	53	C	01/26/2022	08:57	-132.041	47.478	0	310.20	0	5.3410	0	33.8600	0	26.735	0	307.381	0	102.2	4	33.2	4	-1E+10	1	-1E+10	1	-1E+10	1	-1E+10	1	-1E+10	1	-1E+10	1
4902549	53	C	01/26/2022	08:57	-132.041	47.478	0	311.20	0	5.3360	0	33.8610	0	26.736	0	308.371	0	101.6	4	33.0	4	-1E+10	1	-1E+10	1	-1E+10	1	-1E+10	1	-1E+10	1	-1E+10	1
4902549	53	C	01/26/2022	08:57	-132.041	47.478	0	312.10	0	5.3320	0	33.8600	0	26.736	0	309.262	0	101.0	4	32.8	4	-1E+10	1	-1E+10	1	-1E+10	1	-1E+10	1	-1E+10	1	-1E+10	1
4902549	53	C	01/26/2022	08:57	-132.041	47.478	0	313.00	0	5.3320	0	33.8610	0	26.737	0	310.153	0	100.3	4	32.6	4	-1E+10	1	-1E+10	1	-1E+10	1	-1E+10	1	-1E+10	1	-1E+10	1
4902549	53	C	01/26/2022	08:57	-132.041	47.478	0	314.00	0	5.3320	0	33.8610	0	26.737	0	311.144	0	99.5	4	32.4	4	-1E+10	1	-1E+10	1	-1E+10	1	-1E+10	1	-1E+10	1	-1E+10	1
4902549	53	C	01/26/2022	08:57	-132.041	47.478	0	314.90	0	5.3320	0	33.8630	0	26.739	0	312.035	0	98.7	4	32.1	4	-1E+10	1	-1E+10	1	-1E+10	1	-1E+10	1	-1E+10	1	-1E+10	1
4902549	53	C	01/26/2022	08:57	-132.041	47.478	0	315.90	0	5.3310	0	33.8630	0	26.739	0	313.025	0	97.9	4	31.8	4	-1E+10	1	-1E+10	1	-1E+10	1	-1E+10	1	-1E+10	1	-1E+10	1
4902549	53	C	01/26/2022	08:57	-132.041	47.478	0	316.90	0	5.3250	0	33.8700	0	26.745	0	314.015	0	97.2	4	31.6	4	-1E+10	1	-1E+10	1	-1E+10	1	-1E+10	1	-1E+10	1	-1E+10	1
4902549	53	C	01/26/2022	08:57	-132.041	47.478	0	317.80	0	5.3040	0	33.8670	0	26.745	0	314.906	0	96.6	4	31.4	4	-1E+10	1	-1E+10	1	-1E+10	1	-1E+10	1	-1E+10	1	-1E+10	1
4902549	53	C	01/26/2022	08:57	-132.041	47.478	0	318.80	0	5.3030	0	33.8660	0	26.744	0	315.896	0	95.8	4	31.1	4	-1E+10	1	-1E+10	1	-1E+10	1	-1E+10	1	-1E+10	1	-1E+10	1
4902549	53	C	01/26/2022	08:57	-132.041	47.478	0	319.80	0	5.2850	0	33.8690	0	26.749	0	316.886	0	95.1	4	30.9	4	-1E+10	1	-1E+10	1	-1E+10	1	-1E+10	1	-1E+10	1	-1E+10	1
4902549	53	C	01/26/2022	08:57	-132.041	47.478	0	320.80	0	5.2690	0	33.8710	0	26.752	0	317.876	0	94.6	4	30.7	4	-1E+10	1	-1E+10	1	-1E+10	1	-1E+10	1	-1E+10	1	-1E+10	1
4902549	53	C	01/26/2022	08:57	-132.041	47.478	0	321.70	0	5.2670	0	33.8720	0	26.753	0	318.768	0	94.0	4	30.5	4	-1E+10	1	-1E+10	1	-1E+10	1	-1E+10	1	-1E+10	1	-1E+10	1
4902549	53	C	01/26/2022	08:57	-132.041	47.478	0	322.70	0	5.2600	0	33.8730	0	26.755	0	319.758	0	93.5	4	30.4	4	-1E+10	1	-1E+10	1	-1E+10	1	-1E+10	1	-1E+10	1	-1E+10	1
4902549	53	C	01/26/2022	08:57	-132.041	47.478	0	323.70	0	5.2540	0	33.8750	0	26.757	0	320.748	0	93.1	4	30.2	4	-1E+10	1	-1E+10	1	-1E+10	1	-1E+10	1	-1E+10	1	-1E+10	1
4902549	53	C	01/26/2022	08:57	-132.041	47.478	0	324.70	0	5.2410	0	33.8750	0	26.759	0	321.738	0	92.6	4	30.1	4	-1E+10	1	-1E+10	1	-1E+10	1	-1E+10	1	-1E+10	1	-1E+10	1
4902549	53	C	01/26/2022	08:57	-132.041	47.478	0	325.70	0	5.2320	0	33.8750	0	26.760	0	322.728	0	92.2	4	29.9	4	-1E+10	1	-1E+10	1	-1E+10	1	-1E+10	1	-1E+10	1	-1E+10	1
4902549	53	C	01/26/2022	08:57	-132.041	47.478	0	326.80	0	5.2210	0	33.8740	0	26.760	0	323.817	0	91.7	4	29.8	4	-1E+10	1	-1E+10	1	-1E+10	1	-1E+10	1	-1E+10	1	-1E+10	1
4902549	53	C	01/26/2022	08:57	-132.041	47.478	0	327.80	0	5.2080	0	33.8750	0	26.763	0	324.807	0	91.2	4	29.6	4	-1E+10	1	-1E+10	1	-1E+10	1	-1E+10	1	-1E+10	1	-1E+10	1
4902549	53	C	01/26/2022	08:57	-132.041	47.478	0	328.80	0	5.1880	0	33.8780	0	26.767	0	325.797	0	90.7	4	29.4	4	-1E+10	1	-1E+10	1	-1E+10	1	-1E+10	1	-1E+10	1	-1E+10	1
4902549	53	C	01/26/2022	08:57	-132.041	47.478	0	329.90	0	5.1710	0	33.8760	0	26.768	0	326.886	0	90.3	4	29.3	4	-1E+10	1	-1E+10	1	-1E+10	1	-1E+10	1	-1E+10	1	-1E+10	1
4902549	53	C	01/26/2022	08:57	-132.041	47.478	0	330.90	0	5.1590	0	33.8760	0	26.769	0	327.876	0	89.9	4	29.1	4	-1E+10	1	-1E+10	1	-1E+10	1	-1E+10	1	-1E+10	1	-1E+10	1
4902549	53	C	01/26/2022	08:57	-132.041	47.478	0	331.90	0	5.1290	0	33.8750	0	26.772	0	328.867	0	89.5	4	29.0	4	-1E+10	1	-1E+10	1	-1E+10	1	-1E+10	1	-1E+10	1	-1E+10	1
4902549	53	C	01/26/2022	08:57	-132.041	47.478	0	333.00	0	5.1160	0	33.8750	0	26.773	0	329.956	0	89.2	4	28.8	4	-1E+10	1	-1E+10	1	-1E+10	1	-1E+10	1	-1E+10	1	-1E+10	1
4902549	53	C	01/26/2022	08:57	-132.041	47.478	0	334.00	0	5.1040	0	33.8750	0	26.775	0	330.946	0	88.7	4	28.7	4	-1E+10	1	-1E+10	1	-1E+10	1	-1E+10	1	-1E+10	1	-1E+10	1
4902549	53	C	01/26/2022	08:57	-132.041	47.478	0	335.10	0	5.1010	0	33.8750	0	26.775	0	332.035	0	88.2	4	28.5	4	-1E+10	1	-1E+10	1	-1E+10	1	-1E+10	1	-1E+10	1	-1E+10	1
4902549	53	C	01/26/2022	08:57	-132.041	47.478	0	336.20	0	5.0970	0	33.8760	0	26.776	0	333.124	0	87.7	4	28.4	4	-1E+10	1	-1E+10	1	-1E+10	1	-1E+10	1	-1E+10	1	-1E+10	1
4902549	53	C	01/26/2022	08:57	-132.041	47.478	0	337.20	0	5.0920	0	33.8760	0	26.777	0	334.114	0	87.2	4	28.2	4	-1E+10	1	-1E+10	1	-1E+10	1	-1E+10	1	-1E+10	1	-1E+10	1
4902549	53	C	01/26/2022	08:57	-132.041	47.478	0	338.30	0	5.0830	0	33.8770	0	26.779	0	335.203	0	86.7	4	28.0	4	-1E+10	1	-1E+10	1	-1E+10	1	-1E+10	1	-1E+10	1	-1E+10	1
4902549	53	C	01/26/2022	08:57	-132.041	47.478	0	339.40	0	5.0730	0	33.8780	0	26.781	0	336.292	0	86.1	4	27.8	4	-1E+10	1	-1E+10	1	-1E+10	1	-1E+10	1	-1E+10	1	-1E+10	1
4902549	53	C	01/26/2022	08:57	-132.041	47.478	0	340.40	0	5.0550	0	33.8790	0	26.783	0	337.282	0	85.6	4	27.6	4	-1E+10	1	-1E+10	1	-1E+10	1	-1E+10	1	-1E+10	1	-1E+10	1
4902549	53	C	01/26/2022	08:57	-132.041	47.478	0	341.50	0	5.0460	0	33.8790	0	26.784	0	338.371	0	85.0	4	27.5	4	-1E+10	1	-1E+10	1	-1E+10	1	-1E+10	1	-1E+10	1	-1E+10	1
4902549	53	C	01/26/2022	08:57	-132.041	47.478	0	342.60	0	5.0360	0	33.8790	0	26.786	0	339.460	0	84.5	4	27.3	4	-1E+10	1	-1E+10	1	-1E+10	1	-1E+10	1	-1E+10	1	-1E+10	1
4902549	53	C	01/26/2022	08:57	-132.041	47.478	0	343.60	0	5.0220	0	33.8810	0	26.789	0	340.450	0	84.0	4	27.1	4	-1E+10	1	-1E+10	1	-1E+10	1	-1E+10	1	-1E+10	1	-1E+10	1
4902549	53	C	01/26/2022	08:57	-132.041	47.478	0	344.70	0	5.0130	0	33.8780	0	26.787	0	341.539	0	83.5	4	26.9	4	-1E+10	1	-1E+10	1	-1E+10	1	-1E+10	1	-1E+10	1	-1E+10	1
4902549	53	C	01/26/2022	08:57	-132.041	47.478	0	345.80	0	4.9870	0	33.8850	0	26.796	0	342.628	0	82.9	4	26.8	4	-1E+10	1	-1E+10	1	-1E+10	1	-1E+10	1	-1E+10	1	-1E+10	1
4902549	53	C	01/26/2022	08:57	-132.041	47.478	0	346.80	0	4.9590	0	33.8810	0	26.796	0	343.618	0	82.5	4	26.6	4	-1E+10	1	-1E+10	1	-1E+10	1	-1E+10	1	-1E+10	1	-1E+10	1
4902549	53	C	01/26/2022	08:57	-132.041	47.478	0	347.90	0	4.9540	0	33.8820	0	26.797	0	344.707	0	82.0	4	26.4	4	-1E+10	1	-1E+10	1	-1E+10	1	-1E+10	1	-1E+10	1	-1E+10	1
4902549	53	C	01/26/2022	08:57	-132.041	47.478	0	349.00	0	4.9410	0	33.8870	0	26.803	0	345.796	0	81.4	4	26.2	4	-1E+10	1	-1E+10	1	-1E+10	1	-1E+10	1	-1E+10	1	-1E+10	1
4902549	53	C	01/26/2022	08:57	-132.041	47.478	0	350.10	0	4.9460	0	33.8870	0	26.802	0	346.885	0	81.0	4	26.1	4	-1E+10	1	-1E+10	1	-1E+10	1	-1E+10	1	-1E+10	1	-1E+10	1
4902549	53	C	01/26/2022	08:57	-132.041	47.478	0	352.70	0	4.9360	0	33.8880	0	26.804	0	349.459	0	80.0	4	25.8	4	-1E+10	1	-1E+10	1	-1E+10	1	-1E+10	1	-1E+10	1	-1E+10	1
4902549	53	C	01/26/2022	08:57	-132.041	47.478	0	357.60	0	4.8930	0	33.8930	0	26.813	0	354.310	0	78.0	4	25.1	4	-1E+10	1	-1E+10	1	-1E+10	1	-1E+10	1	-1E+10	1	-1E+10	1
4902549	53	C	01/26/2022	08:57	-132.041	47.478	0	363.00	0	4.8640	0	33.8950	0	26.818	0	359.655	0	76.4	4	24.6	4	-1E+10	1	-1E+10	1	-1E+10	1	-1E+10	1	-1E+10	1	-1E+10	1
4902549	53	C	01/26/2022	08:57	-132.041	47.478	0	367.90	0	4.7830	0	33.8950	0	26.827	0	364.506	0	74.9	4	24.0	4	-1E+10	1	-1E+10	1	-1E+10	1	-1E+10	1	-1E+10	1	-1E+10	1
4902549	53	C	01/26/2022	08:57	-132.041	47.478	0	372.90	0	4.7560	0	33.8980	0	26.832	0	369.455	0	73.1	4	23.4	4	-1E+10	1	-1E+10	1	-1E+10	1	-1E+10	1	-1E+10	1	-1E+10	1
4902549	53	C	01/26/2022	08:57	-132.041	47.478	0	377.70	0	4.7310	0	33.9030	0	26.839	0	374.207	0	71.0	4	22.8	4	-1E+10	1	-1E+10	1	-1E+10	1	-1E+10	1	-1E+10	1	-1E+10	1
4902549	53	C	01/26/2022	08:57	-132.041	47.478	0	382.50	0	4.7090	0	33.9120	0	26.849	0	378.958	0	69.0	4	22.1	4	-1E+10	1	-1E+10	1	-1E+10	1	-1E+10	1	-1E+10	1	-1E+10	1
4902549	53	C	01/26/2022	08:57	-132.041	47.478	0	387.80	0	4.7170	0	33.9210	0	26.855	0	384.204	0	67.1	4	21.5	4	-1E+10	1	-1E+10	1	-1E+10	1	-1E+10	1	-1E+10	1	-1E+10	1
4902549	53	C	01/26/2022	08:57	-132.041	47.478	0	393.10	0	4.7300	0	33.9290	0	26.860	0	389.450	0	65.4	4	21.0	4	-1E+10	1	-1E+10	1	-1E+10	1	-1E+10	1	-1E+10	1	-1E+10	1
4902549	53	C	01/26/2022	08:57	-132.041	47.478	0	397.80	0	4.7260	0	33.9370	0	26.867	0	394.102	0	64.3	4	20.6	4	-1E+10	1	-1E+10	1	-1E+10	1	-1E+10	1	-1E+10	1	-1E+10	1
4902549	53	C	01/26/2022	08:57	-132.041	47.478	0	402.50	0	4.7110	0	33.9390	0	26.870	0	398.753	0	63.2	4	20.3	4	-1E+10	1	-1E+10	1	-1E+10	1	-1E+10	1	-1E+10	1	-1E+10	1
4902549	53	C	01/26/2022	08:57	-132.041	47.478	0	407.50	0	4.6890	0	33.9430	0	26.876	0	403.702	0	61.6	4	19.7	4	-1E+10	1	-1E+10	1	-1E+10	1	-1E+10	1	-1E+10	1	-1E+10	1
4902549	53	C	01/26/2022	08:57	-132.041	47.478	0	412.50	0	4.6540	0	33.9470	0	26.883	0	408.650	0	59.9	4	19.2	4	-1E+10	1	-1E+10	1	-1E+10	1	-1E+10	1	-1E+10	1	-1E+10	1
4902549	53	C	01/26/2022	08:57	-132.041	47.478	0	417.50	0	4.6260	0	33.9520	0	26.890	0	413.599	0	58.5	4	18.7	4	-1E+10	1	-1E+10	1	-1E+10	1	-1E+10	1	-1E+10	1	-1E+10	1
4902549	53	C	01/26/2022	08:57	-132.041	47.478	0	422.90	0	4.6110	0	33.9560	0	26.895	0	418.943	0	56.7	4	18.1	4	-1E+10	1	-1E+10	1	-1E+10	1	-1E+10	1	-1E+10	1	-1E+10	1
4902549	53	C	01/26/2022	08:57	-132.041	47.478	0	428.40	0	4.5770	0	33.9640	0	26.905	0	424.386	0	55.0	4	17.6	4	-1E+10	1	-1E+10	1	-1E+10	1	-1E+10	1	-1E+10	1	-1E+10	1
4902549	53	C	01/26/2022	08:57	-132.041	47.478	0	433.30	0	4.5520	0	33.9690	0	26.911	0	429.235	0	53.5	4	17.1	4	-1E+10	1	-1E+10	1	-1E+10	1	-1E+10	1	-1E+10	1	-1E+10	1
4902549	53	C	01/26/2022	08:57	-132.041	47.478	0	438.20	0	4.5340	0	33.9770	0	26.920	0	434.084	0	52.0	4	16.6	4	-1E+10	1	-1E+10	1	-1E+10	1	-1E+10	1	-1E+10	1	-1E+10	1
4902549	53	C	01/26/2022	08:57	-132.041	47.478	0	443.20	0	4.5290	0	33.9820	0	26.924	0	439.032	0	51.0	4	16.3	4	-1E+10	1	-1E+10	1	-1E+10	1	-1E+10	1	-1E+10	1	-1E+10	1
4902549	53	C	01/26/2022	08:57	-132.041	47.478	0	448.20	0	4.5180	0	33.9840	0	26.927	0	443.979	0	49.8	4	15.9	4	-1E+10	1	-1E+10	1	-1E+10	1	-1E+10	1	-1E+10	1	-1E+10	1
4902549	53	C	01/26/2022	08:57	-132.041	47.478	0	452.90	0	4.5110	0	33.9880	0	26.931	0	448.630	0	48.5	4	15.5	4	-1E+10	1	-1E+10	1	-1E+10	1	-1E+10	1	-1E+10	1	-1E+10	1
4902549	53	C	01/26/2022	08:57	-132.041	47.478	0	457.80	0	4.4870	0	33.9960	0	26.940	0	453.478	0	47.1	4	15.0	4	-1E+10	1	-1E+10	1	-1E+10	1	-1E+10	1	-1E+10	1	-1E+10	1
4902549	53	C	01/26/2022	08:57	-132.041	47.478	0	462.70	0	4.4740	0	33.9990	0	26.944	0	458.327	0	45.6	4	14.5	4	-1E+10	1	-1E+10	1	-1E+10	1	-1E+10	1	-1E+10	1	-1E+10	1
4902549	53	C	01/26/2022	08:57	-132.041	47.478	0	467.60	0	4.4610	0	34.0050	0	26.950	0	463.175	0	43.2	4	13.8	4	-1E+10	1	-1E+10	1	-1E+10	1	-1E+10	1	-1E+10	1	-1E+10	1
4902549	53	C	01/26/2022	08:57	-132.041	47.478	0	472.50	0	4.4430	0	34.0150	0	26.960	0	468.023	0	41.0	4	13.1	4	-1E+10	1	-1E+10	1	-1E+10	1	-1E+10	1	-1E+10	1	-1E+10	1
4902549	53	C	01/26/2022	08:57	-132.041	47.478	0	477.60	0	4.4220	0	34.0250	0	26.970	0	473.069	0	39.2	4	12.5	4	-1E+10	1	-1E+10	1	-1E+10	1	-1E+10	1	-1E+10	1	-1E+10	1
4902549	53	C	01/26/2022	08:57	-132.041	47.478	0	482.80	0	4.4080	0	34.0310	0	26.977	0	478.213	0	37.6	4	12.0	4	-1E+10	1	-1E+10	1	-1E+10	1	-1E+10	1	-1E+10	1	-1E+10	1
4902549	53	C	01/26/2022	08:57	-132.041	47.478	0	487.70	0	4.3850	0	34.0370	0	26.984	0	483.061	0	36.4	4	11.6	4	-1E+10	1	-1E+10	1	-1E+10	1	-1E+10	1	-1E+10	1	-1E+10	1
4902549	53	C	01/26/2022	08:57	-132.041	47.478	0	492.80	0	4.3610	0	34.0440	0	26.992	0	488.107	0	35.3	4	11.2	4	-1E+10	1	-1E+10	1	-1E+10	1	-1E+10	1	-1E+10	1	-1E+10	1
4902549	53	C	01/26/2022	08:57	-132.041	47.478	0	498.00	0	4.3490	0	34.0490	0	26.997	0	493.251	0	34.4	4	11.0	4	-1E+10	1	-1E+10	1	-1E+10	1	-1E+10	1	-1E+10	1	-1E+10	1
4902549	53	C	01/26/2022	08:57	-132.041	47.478	0	502.90	0	4.3380	0	34.0510	0	27.000	0	498.098	0	33.8	4	10.7	4	-1E+10	1	-1E+10	1	-1E+10	1	-1E+10	1	-1E+10	1	-1E+10	1
4902549	53	C	01/26/2022	08:57	-132.041	47.478	0	508.00	0	4.3220	0	34.0550	0	27.005	0	503.144	0	33.1	4	10.5	4	-1E+10	1	-1E+10	1	-1E+10	1	-1E+10	1	-1E+10	1	-1E+10	1
4902549	53	C	01/26/2022	08:57	-132.041	47.478	0	513.10	0	4.2980	0	34.0590	0	27.011	0	508.189	0	32.6	4	10.4	4	-1E+10	1	-1E+10	1	-1E+10	1	-1E+10	1	-1E+10	1	-1E+10	1
4902549	53	C	01/26/2022	08:57	-132.041	47.478	0	517.90	0	4.2770	0	34.0630	0	27.016	0	512.937	0	32.2	4	10.2	4	-1E+10	1	-1E+10	1	-1E+10	1	-1E+10	1	-1E+10	1	-1E+10	1
4902549	53	C	01/26/2022	08:57	-132.041	47.478	0	522.60	0	4.2670	0	34.0650	0	27.019	0	517.586	0	31.9	4	10.1	4	-1E+10	1	-1E+10	1	-1E+10	1	-1E+10	1	-1E+10	1	-1E+10	1
4902549	53	C	01/26/2022	08:57	-132.041	47.478	0	528.00	0	4.2540	0	34.0670	0	27.022	0	522.927	0	31.5	4	10.0	4	-1E+10	1	-1E+10	1	-1E+10	1	-1E+10	1	-1E+10	1	-1E+10	1
4902549	53	C	01/26/2022	08:57	-132.041	47.478	0	532.80	0	4.2430	0	34.0690	0	27.025	0	527.675	0	31.1	4	9.9	4	-1E+10	1	-1E+10	1	-1E+10	1	-1E+10	1	-1E+10	1	-1E+10	1
4902549	53	C	01/26/2022	08:57	-132.041	47.478	0	537.60	0	4.2400	0	34.0710	0	27.026	0	532.423	0	30.7	4	9.7	4	-1E+10	1	-1E+10	1	-1E+10	1	-1E+10	1	-1E+10	1	-1E+10	1
4902549	53	C	01/26/2022	08:57	-132.041	47.478	0	543.00	0	4.2140	0	34.0740	0	27.032	0	537.764	0	30.1	4	9.6	4	-1E+10	1	-1E+10	1	-1E+10	1	-1E+10	1	-1E+10	1	-1E+10	1
4902549	53	C	01/26/2022	08:57	-132.041	47.478	0	547.80	0	4.2120	0	34.0770	0	27.034	0	542.511	0	29.6	4	9.4	4	-1E+10	1	-1E+10	1	-1E+10	1	-1E+10	1	-1E+10	1	-1E+10	1
4902549	53	C	01/26/2022	08:57	-132.041	47.478	0	552.70	0	4.1940	0	34.0810	0	27.039	0	547.357	0	29.2	4	9.3	4	-1E+10	1	-1E+10	1	-1E+10	1	-1E+10	1	-1E+10	1	-1E+10	1
4902549	53	C	01/26/2022	08:57	-132.041	47.478	0	558.00	0	4.1800	0	34.0830	0	27.042	0	552.599	0	28.8	4	9.1	4	-1E+10	1	-1E+10	1	-1E+10	1	-1E+10	1	-1E+10	1	-1E+10	1
4902549	53	C	01/26/2022	08:57	-132.041	47.478	0	563.20	0	4.1750	0	34.0840	0	27.044	0	557.742	0	28.1	4	8.9	4	-1E+10	1	-1E+10	1	-1E+10	1	-1E+10	1	-1E+10	1	-1E+10	1
4902549	53	C	01/26/2022	08:57	-132.041	47.478	0	567.90	0	4.1800	0	34.0860	0	27.045	0	562.390	0	27.2	4	8.6	4	-1E+10	1	-1E+10	1	-1E+10	1	-1E+10	1	-1E+10	1	-1E+10	1
4902549	53	C	01/26/2022	08:57	-132.041	47.478	0	572.50	0	4.1590	0	34.0900	0	27.050	0	566.939	0	26.4	4	8.4	4	-1E+10	1	-1E+10	1	-1E+10	1	-1E+10	1	-1E+10	1	-1E+10	1
4902549	53	C	01/26/2022	08:57	-132.041	47.478	0	577.50	0	4.1510	0	34.0980	0	27.057	0	571.884	0	25.7	4	8.1	4	-1E+10	1	-1E+10	1	-1E+10	1	-1E+10	1	-1E+10	1	-1E+10	1
4902549	53	C	01/26/2022	08:57	-132.041	47.478	0	582.90	0	4.1420	0	34.1010	0	27.061	0	577.224	0	25.4	4	8.0	4	-1E+10	1	-1E+10	1	-1E+10	1	-1E+10	1	-1E+10	1	-1E+10	1
4902549	53	C	01/26/2022	08:57	-132.041	47.478	0	588.20	0	4.1280	0	34.1040	0	27.065	0	582.465	0	25.1	4	8.0	4	-1E+10	1	-1E+10	1	-1E+10	1	-1E+10	1	-1E+10	1	-1E+10	1
4902549	53	C	01/26/2022	08:57	-132.041	47.478	0	593.00	0	4.0950	0	34.1070	0	27.071	0	587.211	0	25.1	4	7.9	4	-1E+10	1	-1E+10	1	-1E+10	1	-1E+10	1	-1E+10	1	-1E+10	1
4902549	53	C	01/26/2022	08:57	-132.041	47.478	0	597.70	0	4.0770	0	34.1090	0	27.074	0	591.859	0	24.8	4	7.8	4	-1E+10	1	-1E+10	1	-1E+10	1	-1E+10	1	-1E+10	1	-1E+10	1
4902549	53	C	01/26/2022	08:57	-132.041	47.478	0	602.90	0	4.0700	0	34.1110	0	27.076	0	597.000	0	24.2	4	7.7	4	-1E+10	1	-1E+10	1	-1E+10	1	-1E+10	1	-1E+10	1	-1E+10	1
4902549	53	C	01/26/2022	08:57	-132.041	47.478	0	608.00	0	4.0590	0	34.1140	0	27.080	0	602.043	0	23.5	4	7.4	4	-1E+10	1	-1E+10	1	-1E+10	1	-1E+10	1	-1E+10	1	-1E+10	1
4902549	53	C	01/26/2022	08:57	-132.041	47.478	0	613.00	0	4.0440	0	34.1190	0	27.085	0	606.987	0	22.8	4	7.2	4	-1E+10	1	-1E+10	1	-1E+10	1	-1E+10	1	-1E+10	1	-1E+10	1
4902549	53	C	01/26/2022	08:57	-132.041	47.478	0	618.10	0	4.0370	0	34.1220	0	27.089	0	612.029	0	22.0	4	7.0	4	-1E+10	1	-1E+10	1	-1E+10	1	-1E+10	1	-1E+10	1	-1E+10	1
4902549	53	C	01/26/2022	08:57	-132.041	47.478	0	622.80	0	4.0240	0	34.1270	0	27.094	0	616.676	0	21.3	4	6.7	4	-1E+10	1	-1E+10	1	-1E+10	1	-1E+10	1	-1E+10	1	-1E+10	1
4902549	53	C	01/26/2022	08:57	-132.041	47.478	0	628.00	0	4.0070	0	34.1340	0	27.101	0	621.817	0	20.7	4	6.5	4	-1E+10	1	-1E+10	1	-1E+10	1	-1E+10	1	-1E+10	1	-1E+10	1
4902549	53	C	01/26/2022	08:57	-132.041	47.478	0	633.30	0	3.9970	0	34.1370	0	27.105	0	627.057	0	20.4	4	6.4	4	-1E+10	1	-1E+10	1	-1E+10	1	-1E+10	1	-1E+10	1	-1E+10	1
4902549	53	C	01/26/2022	08:57	-132.041	47.478	0	638.20	0	3.9900	0	34.1390	0	27.107	0	631.901	0	20.0	4	6.3	4	-1E+10	1	-1E+10	1	-1E+10	1	-1E+10	1	-1E+10	1	-1E+10	1
4902549	53	C	01/26/2022	08:57	-132.041	47.478	0	643.10	0	3.9720	0	34.1430	0	27.112	0	636.745	0	19.6	4	6.2	4	-1E+10	1	-1E+10	1	-1E+10	1	-1E+10	1	-1E+10	1	-1E+10	1
4902549	53	C	01/26/2022	08:57	-132.041	47.478	0	647.90	0	3.9650	0	34.1450	0	27.114	0	641.491	0	19.1	4	6.0	4	-1E+10	1	-1E+10	1	-1E+10	1	-1E+10	1	-1E+10	1	-1E+10	1
4902549	53	C	01/26/2022	08:57	-132.041	47.478	0	652.80	0	3.9520	0	34.1490	0	27.119	0	646.334	0	18.5	4	5.8	4	-1E+10	1	-1E+10	1	-1E+10	1	-1E+10	1	-1E+10	1	-1E+10	1
4902549	53	C	01/26/2022	08:57	-132.041	47.478	0	657.80	0	3.9310	0	34.1550	0	27.126	0	651.277	0	18.0	4	5.7	4	-1E+10	1	-1E+10	1	-1E+10	1	-1E+10	1	-1E+10	1	-1E+10	1
4902549	53	C	01/26/2022	08:57	-132.041	47.478	0	662.80	0	3.9190	0	34.1590	0	27.130	0	656.220	0	17.4	4	5.5	4	-1E+10	1	-1E+10	1	-1E+10	1	-1E+10	1	-1E+10	1	-1E+10	1
4902549	53	C	01/26/2022	08:57	-132.041	47.478	0	667.70	0	3.9030	0	34.1640	0	27.136	0	661.063	0	17.0	4	5.4	4	-1E+10	1	-1E+10	1	-1E+10	1	-1E+10	1	-1E+10	1	-1E+10	1
4902549	53	C	01/26/2022	08:57	-132.041	47.478	0	672.70	0	3.8930	0	34.1680	0	27.140	0	666.006	0	16.7	4	5.3	4	-1E+10	1	-1E+10	1	-1E+10	1	-1E+10	1	-1E+10	1	-1E+10	1
4902549	53	C	01/26/2022	08:57	-132.041	47.478	0	678.00	0	3.8860	0	34.1700	0	27.143	0	671.244	0	16.3	4	5.1	4	-1E+10	1	-1E+10	1	-1E+10	1	-1E+10	1	-1E+10	1	-1E+10	1
4902549	53	C	01/26/2022	08:57	-132.041	47.478	0	683.00	0	3.8670	0	34.1750	0	27.148	0	676.186	0	15.9	4	5.0	4	-1E+10	1	-1E+10	1	-1E+10	1	-1E+10	1	-1E+10	1	-1E+10	1
4902549	53	C	01/26/2022	08:57	-132.041	47.478	0	687.60	0	3.8570	0	34.1780	0	27.152	0	680.733	0	15.7	4	4.9	4	-1E+10	1	-1E+10	1	-1E+10	1	-1E+10	1	-1E+10	1	-1E+10	1
4902549	53	C	01/26/2022	08:57	-132.041	47.478	0	692.80	0	3.8480	0	34.1800	0	27.154	0	685.873	0	15.3	4	4.8	4	-1E+10	1	-1E+10	1	-1E+10	1	-1E+10	1	-1E+10	1	-1E+10	1
4902549	53	C	01/26/2022	08:57	-132.041	47.478	0	698.20	0	3.8360	0	34.1840	0	27.159	0	691.210	0	14.9	4	4.7	4	-1E+10	1	-1E+10	1	-1E+10	1	-1E+10	1	-1E+10	1	-1E+10	1
4902549	53	C	01/26/2022	08:57	-132.041	47.478	0	703.20	0	3.8200	0	34.1890	0	27.164	0	696.151	0	14.6	4	4.6	4	-1E+10	1	-1E+10	1	-1E+10	1	-1E+10	1	-1E+10	1	-1E+10	1
4902549	53	C	01/26/2022	08:57	-132.041	47.478	0	708.20	0	3.8130	0	34.1910	0	27.167	0	701.093	0	14.3	4	4.5	4	-1E+10	1	-1E+10	1	-1E+10	1	-1E+10	1	-1E+10	1	-1E+10	1
4902549	53	C	01/26/2022	08:57	-132.041	47.478	0	712.80	0	3.8020	0	34.1940	0	27.170	0	705.639	0	14.0	4	4.4	4	-1E+10	1	-1E+10	1	-1E+10	1	-1E+10	1	-1E+10	1	-1E+10	1
4902549	53	C	01/26/2022	08:57	-132.041	47.478	0	717.60	0	3.7890	0	34.1980	0	27.175	0	710.382	0	13.6	4	4.3	4	-1E+10	1	-1E+10	1	-1E+10	1	-1E+10	1	-1E+10	1	-1E+10	1
4902549	53	C	01/26/2022	08:57	-132.041	47.478	0	722.90	0	3.7790	0	34.2010	0	27.178	0	715.620	0	13.2	4	4.1	4	-1E+10	1	-1E+10	1	-1E+10	1	-1E+10	1	-1E+10	1	-1E+10	1
4902549	53	C	01/26/2022	08:57	-132.041	47.478	0	728.20	0	3.7580	0	34.2070	0	27.185	0	720.857	0	12.8	4	4.0	4	-1E+10	1	-1E+10	1	-1E+10	1	-1E+10	1	-1E+10	1	-1E+10	1
4902549	53	C	01/26/2022	08:57	-132.041	47.478	0	733.10	0	3.7460	0	34.2100	0	27.189	0	725.699	0	12.5	4	3.9	4	-1E+10	1	-1E+10	1	-1E+10	1	-1E+10	1	-1E+10	1	-1E+10	1
4902549	53	C	01/26/2022	08:57	-132.041	47.478	0	738.10	0	3.7330	0	34.2140	0	27.193	0	730.640	0	12.2	4	3.8	4	-1E+10	1	-1E+10	1	-1E+10	1	-1E+10	1	-1E+10	1	-1E+10	1
4902549	53	C	01/26/2022	08:57	-132.041	47.478	0	743.00	0	3.7210	0	34.2180	0	27.198	0	735.482	0	12.0	4	3.8	4	-1E+10	1	-1E+10	1	-1E+10	1	-1E+10	1	-1E+10	1	-1E+10	1
4902549	53	C	01/26/2022	08:57	-132.041	47.478	0	747.90	0	3.7150	0	34.2200	0	27.200	0	740.324	0	11.8	4	3.7	4	-1E+10	1	-1E+10	1	-1E+10	1	-1E+10	1	-1E+10	1	-1E+10	1
4902549	53	C	01/26/2022	08:57	-132.041	47.478	0	752.80	0	3.7090	0	34.2220	0	27.202	0	745.165	0	11.5	4	3.6	4	-1E+10	1	-1E+10	1	-1E+10	1	-1E+10	1	-1E+10	1	-1E+10	1
4902549	53	C	01/26/2022	08:57	-132.041	47.478	0	757.80	0	3.6960	0	34.2250	0	27.206	0	750.106	0	11.2	4	3.5	4	-1E+10	1	-1E+10	1	-1E+10	1	-1E+10	1	-1E+10	1	-1E+10	1
4902549	53	C	01/26/2022	08:57	-132.041	47.478	0	763.20	0	3.6810	0	34.2290	0	27.210	0	755.441	0	10.8	4	3.4	4	-1E+10	1	-1E+10	1	-1E+10	1	-1E+10	1	-1E+10	1	-1E+10	1
4902549	53	C	01/26/2022	08:57	-132.041	47.478	0	768.10	0	3.6660	0	34.2330	0	27.215	0	760.282	0	10.6	4	3.3	4	-1E+10	1	-1E+10	1	-1E+10	1	-1E+10	1	-1E+10	1	-1E+10	1
4902549	53	C	01/26/2022	08:57	-132.041	47.478	0	773.00	0	3.6560	0	34.2350	0	27.218	0	765.124	0	10.5	4	3.3	4	-1E+10	1	-1E+10	1	-1E+10	1	-1E+10	1	-1E+10	1	-1E+10	1
4902549	53	C	01/26/2022	08:57	-132.041	47.478	0	777.80	0	3.6490	0	34.2380	0	27.221	0	769.866	0	10.3	4	3.2	4	-1E+10	1	-1E+10	1	-1E+10	1	-1E+10	1	-1E+10	1	-1E+10	1
4902549	53	C	01/26/2022	08:57	-132.041	47.478	0	782.70	0	3.6400	0	34.2400	0	27.223	0	774.707	0	10.1	4	3.2	4	-1E+10	1	-1E+10	1	-1E+10	1	-1E+10	1	-1E+10	1	-1E+10	1
4902549	53	C	01/26/2022	08:57	-132.041	47.478	0	788.10	0	3.6250	0	34.2440	0	27.228	0	780.042	0	9.9	4	3.1	4	-1E+10	1	-1E+10	1	-1E+10	1	-1E+10	1	-1E+10	1	-1E+10	1
4902549	53	C	01/26/2022	08:57	-132.041	47.478	0	792.90	0	3.6140	0	34.2480	0	27.232	0	784.783	0	9.8	4	3.1	4	-1E+10	1	-1E+10	1	-1E+10	1	-1E+10	1	-1E+10	1	-1E+10	1
4902549	53	C	01/26/2022	08:57	-132.041	47.478	0	797.60	0	3.6060	0	34.2500	0	27.235	0	789.426	0	9.6	4	3.0	4	-1E+10	1	-1E+10	1	-1E+10	1	-1E+10	1	-1E+10	1	-1E+10	1
4902549	53	C	01/26/2022	08:57	-132.041	47.478	0	802.90	0	3.5910	0	34.2530	0	27.239	0	794.662	0	9.5	4	3.0	4	-1E+10	1	-1E+10	1	-1E+10	1	-1E+10	1	-1E+10	1	-1E+10	1
4902549	53	C	01/26/2022	08:57	-132.041	47.478	0	808.20	0	3.5750	0	34.2580	0	27.244	0	799.898	0	9.3	4	2.9	4	-1E+10	1	-1E+10	1	-1E+10	1	-1E+10	1	-1E+10	1	-1E+10	1
4902549	53	C	01/26/2022	08:57	-132.041	47.478	0	812.90	0	3.5630	0	34.2610	0	27.248	0	804.540	0	9.2	4	2.9	4	-1E+10	1	-1E+10	1	-1E+10	1	-1E+10	1	-1E+10	1	-1E+10	1
4902549	53	C	01/26/2022	08:57	-132.041	47.478	0	817.60	0	3.5490	0	34.2640	0	27.252	0	809.183	0	9.1	4	2.9	4	-1E+10	1	-1E+10	1	-1E+10	1	-1E+10	1	-1E+10	1	-1E+10	1
4902549	53	C	01/26/2022	08:57	-132.041	47.478	0	823.10	0	3.5350	0	34.2670	0	27.255	0	814.615	0	9.1	4	2.8	4	-1E+10	1	-1E+10	1	-1E+10	1	-1E+10	1	-1E+10	1	-1E+10	1
4902549	53	C	01/26/2022	08:57	-132.041	47.478	0	828.10	0	3.5220	0	34.2700	0	27.259	0	819.554	0	9.0	4	2.8	4	-1E+10	1	-1E+10	1	-1E+10	1	-1E+10	1	-1E+10	1	-1E+10	1
4902549	53	C	01/26/2022	08:57	-132.041	47.478	0	832.80	0	3.5150	0	34.2720	0	27.261	0	824.196	0	8.9	4	2.8	4	-1E+10	1	-1E+10	1	-1E+10	1	-1E+10	1	-1E+10	1	-1E+10	1
4902549	53	C	01/26/2022	08:57	-132.041	47.478	0	837.60	0	3.5090	0	34.2740	0	27.263	0	828.937	0	8.8	4	2.8	4	-1E+10	1	-1E+10	1	-1E+10	1	-1E+10	1	-1E+10	1	-1E+10	1
4902549	53	C	01/26/2022	08:57	-132.041	47.478	0	842.90	0	3.4990	0	34.2760	0	27.266	0	834.172	0	8.8	4	2.7	4	-1E+10	1	-1E+10	1	-1E+10	1	-1E+10	1	-1E+10	1	-1E+10	1
4902549	53	C	01/26/2022	08:57	-132.041	47.478	0	848.10	0	3.4850	0	34.2790	0	27.270	0	839.308	0	8.7	4	2.7	4	-1E+10	1	-1E+10	1	-1E+10	1	-1E+10	1	-1E+10	1	-1E+10	1
4902549	53	C	01/26/2022	08:57	-132.041	47.478	0	853.10	0	3.4730	0	34.2820	0	27.273	0	844.246	0	8.6	4	2.7	4	-1E+10	1	-1E+10	1	-1E+10	1	-1E+10	1	-1E+10	1	-1E+10	1
4902549	53	C	01/26/2022	08:57	-132.041	47.478	0	858.20	0	3.4650	0	34.2840	0	27.276	0	849.282	0	8.5	4	2.7	4	-1E+10	1	-1E+10	1	-1E+10	1	-1E+10	1	-1E+10	1	-1E+10	1
4902549	53	C	01/26/2022	08:57	-132.041	47.478	0	862.90	0	3.4500	0	34.2880	0	27.280	0	853.924	0	8.4	4	2.6	4	-1E+10	1	-1E+10	1	-1E+10	1	-1E+10	1	-1E+10	1	-1E+10	1
4902549	53	C	01/26/2022	08:57	-132.041	47.478	0	867.60	0	3.4390	0	34.2900	0	27.283	0	858.565	0	8.3	4	2.6	4	-1E+10	1	-1E+10	1	-1E+10	1	-1E+10	1	-1E+10	1	-1E+10	1
4902549	53	C	01/26/2022	08:57	-132.041	47.478	0	872.90	0	3.4270	0	34.2940	0	27.288	0	863.799	0	8.1	4	2.5	4	-1E+10	1	-1E+10	1	-1E+10	1	-1E+10	1	-1E+10	1	-1E+10	1
4902549	53	C	01/26/2022	08:57	-132.041	47.478	0	877.90	0	3.4160	0	34.2980	0	27.292	0	868.737	0	8.0	4	2.5	4	-1E+10	1	-1E+10	1	-1E+10	1	-1E+10	1	-1E+10	1	-1E+10	1
4902549	53	C	01/26/2022	08:57	-132.041	47.478	0	882.80	0	3.4070	0	34.3000	0	27.294	0	873.575	0	7.9	4	2.5	4	-1E+10	1	-1E+10	1	-1E+10	1	-1E+10	1	-1E+10	1	-1E+10	1
4902549	53	C	01/26/2022	08:57	-132.041	47.478	0	887.90	0	3.3940	0	34.3030	0	27.298	0	878.611	0	7.8	4	2.4	4	-1E+10	1	-1E+10	1	-1E+10	1	-1E+10	1	-1E+10	1	-1E+10	1
4902549	53	C	01/26/2022	08:57	-132.041	47.478	0	892.80	0	3.3830	0	34.3050	0	27.301	0	883.450	0	7.7	4	2.4	4	-1E+10	1	-1E+10	1	-1E+10	1	-1E+10	1	-1E+10	1	-1E+10	1
4902549	53	C	01/26/2022	08:57	-132.041	47.478	0	897.90	0	3.3680	0	34.3080	0	27.304	0	888.486	0	7.6	4	2.4	4	-1E+10	1	-1E+10	1	-1E+10	1	-1E+10	1	-1E+10	1	-1E+10	1
4902549	53	C	01/26/2022	08:57	-132.041	47.478	0	902.90	0	3.3530	0	34.3120	0	27.309	0	893.422	0	7.5	4	2.3	4	-1E+10	1	-1E+10	1	-1E+10	1	-1E+10	1	-1E+10	1	-1E+10	1
4902549	53	C	01/26/2022	08:57	-132.041	47.478	0	907.90	0	3.3350	0	34.3160	0	27.314	0	898.359	0	7.5	4	2.3	4	-1E+10	1	-1E+10	1	-1E+10	1	-1E+10	1	-1E+10	1	-1E+10	1
4902549	53	C	01/26/2022	08:57	-132.041	47.478	0	913.00	0	3.3190	0	34.3190	0	27.318	0	903.395	0	7.4	4	2.3	4	-1E+10	1	-1E+10	1	-1E+10	1	-1E+10	1	-1E+10	1	-1E+10	1
4902549	53	C	01/26/2022	08:57	-132.041	47.478	0	918.20	0	3.3070	0	34.3240	0	27.323	0	908.529	0	7.3	4	2.3	4	-1E+10	1	-1E+10	1	-1E+10	1	-1E+10	1	-1E+10	1	-1E+10	1
4902549	53	C	01/26/2022	08:57	-132.041	47.478	0	922.90	0	3.3030	0	34.3250	0	27.324	0	913.169	0	7.3	4	2.3	4	-1E+10	1	-1E+10	1	-1E+10	1	-1E+10	1	-1E+10	1	-1E+10	1
4902549	53	C	01/26/2022	08:57	-132.041	47.478	0	928.00	0	3.2990	0	34.3260	0	27.325	0	918.204	0	7.3	4	2.3	4	-1E+10	1	-1E+10	1	-1E+10	1	-1E+10	1	-1E+10	1	-1E+10	1
4902549	53	C	01/26/2022	08:57	-132.041	47.478	0	933.20	0	3.2890	0	34.3290	0	27.329	0	923.338	0	7.2	4	2.2	4	-1E+10	1	-1E+10	1	-1E+10	1	-1E+10	1	-1E+10	1	-1E+10	1
4902549	53	C	01/26/2022	08:57	-132.041	47.478	0	937.90	0	3.2800	0	34.3310	0	27.331	0	927.977	0	7.2	4	2.2	4	-1E+10	1	-1E+10	1	-1E+10	1	-1E+10	1	-1E+10	1	-1E+10	1
4902549	53	C	01/26/2022	08:57	-132.041	47.478	0	942.70	0	3.2700	0	34.3330	0	27.334	0	932.716	0	7.2	4	2.2	4	-1E+10	1	-1E+10	1	-1E+10	1	-1E+10	1	-1E+10	1	-1E+10	1
4902549	53	C	01/26/2022	08:57	-132.041	47.478	0	947.90	0	3.2570	0	34.3360	0	27.337	0	937.849	0	7.1	4	2.2	4	-1E+10	1	-1E+10	1	-1E+10	1	-1E+10	1	-1E+10	1	-1E+10	1
4902549	53	C	01/26/2022	08:57	-132.041	47.478	0	953.20	0	3.2520	0	34.3380	0	27.340	0	943.081	0	7.1	4	2.2	4	-1E+10	1	-1E+10	1	-1E+10	1	-1E+10	1	-1E+10	1	-1E+10	1
4902549	53	C	01/26/2022	08:57	-132.041	47.478	0	958.10	0	3.2510	0	34.3380	0	27.340	0	947.918	0	7.0	4	2.2	4	-1E+10	1	-1E+10	1	-1E+10	1	-1E+10	1	-1E+10	1	-1E+10	1
4902549	53	C	01/26/2022	08:57	-132.041	47.478	0	963.00	0	3.2390	0	34.3420	0	27.344	0	952.755	0	7.0	4	2.2	4	-1E+10	1	-1E+10	1	-1E+10	1	-1E+10	1	-1E+10	1	-1E+10	1
4902549	53	C	01/26/2022	08:57	-132.041	47.478	0	968.00	0	3.2330	0	34.3440	0	27.346	0	957.690	0	6.9	4	2.2	4	-1E+10	1	-1E+10	1	-1E+10	1	-1E+10	1	-1E+10	1	-1E+10	1
4902549	53	C	01/26/2022	08:57	-132.041	47.478	0	972.90	0	3.2290	0	34.3470	0	27.349	0	962.527	0	6.9	4	2.1	4	-1E+10	1	-1E+10	1	-1E+10	1	-1E+10	1	-1E+10	1	-1E+10	1
4902549	53	C	01/26/2022	08:57	-132.041	47.478	0	977.90	0	3.2240	0	34.3480	0	27.350	0	967.462	0	6.9	4	2.1	4	-1E+10	1	-1E+10	1	-1E+10	1	-1E+10	1	-1E+10	1	-1E+10	1
4902549	53	C	01/26/2022	08:57	-132.041	47.478	0	982.90	0	3.2170	0	34.3500	0	27.353	0	972.397	0	6.9	4	2.1	4	-1E+10	1	-1E+10	1	-1E+10	1	-1E+10	1	-1E+10	1	-1E+10	1
4902549	53	C	01/26/2022	08:57	-132.041	47.478	0	987.90	0	3.2120	0	34.3510	0	27.354	0	977.332	0	6.8	4	2.1	4	-1E+10	1	-1E+10	1	-1E+10	1	-1E+10	1	-1E+10	1	-1E+10	1
4902549	53	C	01/26/2022	08:57	-132.041	47.478	0	992.90	0	3.2090	0	34.3540	0	27.357	0	982.267	0	6.7	4	2.1	4	-1E+10	1	-1E+10	1	-1E+10	1	-1E+10	1	-1E+10	1	-1E+10	1
4902549	53	C	01/26/2022	08:57	-132.041	47.478	0	997.90	0	3.2010	0	34.3570	0	27.360	0	987.201	0	6.7	4	2.1	4	-1E+10	1	-1E+10	1	-1E+10	1	-1E+10	1	-1E+10	1	-1E+10	1
4902549	53	C	01/26/2022	08:57	-132.041	47.478	0	1005.40	0	3.1910	0	34.3590	0	27.362	0	994.603	0	6.7	4	2.1	4	-1E+10	1	-1E+10	1	-1E+10	1	-1E+10	1	-1E+10	1	-1E+10	1
4902549	53	C	01/26/2022	08:57	-132.041	47.478	0	1015.50	0	3.1750	0	34.3650	0	27.369	0	1004.571	0	6.7	4	2.1	4	-1E+10	1	-1E+10	1	-1E+10	1	-1E+10	1	-1E+10	1	-1E+10	1
4902549	53	C	01/26/2022	08:57	-132.041	47.478	0	1025.40	0	3.1630	0	34.3680	0	27.372	0	1014.340	0	6.7	4	2.1	4	-1E+10	1	-1E+10	1	-1E+10	1	-1E+10	1	-1E+10	1	-1E+10	1
4902549	53	C	01/26/2022	08:57	-132.041	47.478	0	1035.10	0	3.1540	0	34.3710	0	27.375	0	1023.912	0	6.7	4	2.1	4	-1E+10	1	-1E+10	1	-1E+10	1	-1E+10	1	-1E+10	1	-1E+10	1
4902549	53	C	01/26/2022	08:57	-132.041	47.478	0	1045.20	0	3.1390	0	34.3750	0	27.380	0	1033.878	0	6.7	4	2.1	4	-1E+10	1	-1E+10	1	-1E+10	1	-1E+10	1	-1E+10	1	-1E+10	1
4902549	53	C	01/26/2022	08:57	-132.041	47.478	0	1055.50	0	3.1260	0	34.3770	0	27.383	0	1044.040	0	6.8	4	2.1	4	-1E+10	1	-1E+10	1	-1E+10	1	-1E+10	1	-1E+10	1	-1E+10	1
4902549	53	C	01/26/2022	08:57	-132.041	47.478	0	1065.50	0	3.1100	0	34.3820	0	27.388	0	1053.907	0	6.9	4	2.1	4	-1E+10	1	-1E+10	1	-1E+10	1	-1E+10	1	-1E+10	1	-1E+10	1
4902549	53	C	01/26/2022	08:57	-132.041	47.478	0	1075.40	0	3.0940	0	34.3860	0	27.393	0	1063.674	0	6.9	4	2.1	4	-1E+10	1	-1E+10	1	-1E+10	1	-1E+10	1	-1E+10	1	-1E+10	1
4902549	53	C	01/26/2022	08:57	-132.041	47.478	0	1085.60	0	3.0780	0	34.3890	0	27.397	0	1073.737	0	7.0	4	2.1	4	-1E+10	1	-1E+10	1	-1E+10	1	-1E+10	1	-1E+10	1	-1E+10	1
4902549	53	C	01/26/2022	08:57	-132.041	47.478	0	1095.60	0	3.0550	0	34.3900	0	27.400	0	1083.602	0	7.0	4	2.2	4	-1E+10	1	-1E+10	1	-1E+10	1	-1E+10	1	-1E+10	1	-1E+10	1
4902549	53	C	01/26/2022	08:57	-132.041	47.478	0	1105.30	0	3.0520	0	34.3930	0	27.403	0	1093.170	0	7.1	4	2.2	4	-1E+10	1	-1E+10	1	-1E+10	1	-1E+10	1	-1E+10	1	-1E+10	1
4902549	53	C	01/26/2022	08:57	-132.041	47.478	0	1115.10	0	3.0420	0	34.3960	0	27.406	0	1102.837	0	7.2	4	2.2	4	-1E+10	1	-1E+10	1	-1E+10	1	-1E+10	1	-1E+10	1	-1E+10	1
4902549	53	C	01/26/2022	08:57	-132.041	47.478	0	1125.00	0	3.0280	0	34.3990	0	27.410	0	1112.602	0	7.3	4	2.3	4	-1E+10	1	-1E+10	1	-1E+10	1	-1E+10	1	-1E+10	1	-1E+10	1
4902549	53	C	01/26/2022	08:57	-132.041	47.478	0	1135.00	0	2.9990	0	34.4010	0	27.414	0	1122.465	0	7.4	4	2.3	4	-1E+10	1	-1E+10	1	-1E+10	1	-1E+10	1	-1E+10	1	-1E+10	1
4902549	53	C	01/26/2022	08:57	-132.041	47.478	0	1145.20	0	2.9760	0	34.4040	0	27.419	0	1132.525	0	7.6	4	2.3	4	-1E+10	1	-1E+10	1	-1E+10	1	-1E+10	1	-1E+10	1	-1E+10	1
4902549	53	C	01/26/2022	08:57	-132.041	47.478	0	1155.40	0	2.9630	0	34.4070	0	27.422	0	1142.584	0	7.7	4	2.4	4	-1E+10	1	-1E+10	1	-1E+10	1	-1E+10	1	-1E+10	1	-1E+10	1
4902549	53	C	01/26/2022	08:57	-132.041	47.478	0	1165.30	0	2.9450	0	34.4100	0	27.426	0	1152.347	0	7.9	4	2.4	4	-1E+10	1	-1E+10	1	-1E+10	1	-1E+10	1	-1E+10	1	-1E+10	1
4902549	53	C	01/26/2022	08:57	-132.041	47.478	0	1175.30	0	2.9220	0	34.4150	0	27.432	0	1162.208	0	8.2	4	2.5	4	-1E+10	1	-1E+10	1	-1E+10	1	-1E+10	1	-1E+10	1	-1E+10	1
4902549	53	C	01/26/2022	08:57	-132.041	47.478	0	1185.40	0	2.9130	0	34.4200	0	27.437	0	1172.168	0	8.4	4	2.6	4	-1E+10	1	-1E+10	1	-1E+10	1	-1E+10	1	-1E+10	1	-1E+10	1
4902549	53	C	01/26/2022	08:57	-132.041	47.478	0	1195.50	0	2.9000	0	34.4220	0	27.440	0	1182.127	0	8.5	4	2.6	4	-1E+10	1	-1E+10	1	-1E+10	1	-1E+10	1	-1E+10	1	-1E+10	1
4902549	53	C	01/26/2022	08:57	-132.041	47.478	0	1205.80	0	2.8910	0	34.4250	0	27.443	0	1192.282	0	8.7	4	2.7	4	-1E+10	1	-1E+10	1	-1E+10	1	-1E+10	1	-1E+10	1	-1E+10	1
4902549	53	C	01/26/2022	08:57	-132.041	47.478	0	1215.20	0	2.8830	0	34.4270	0	27.446	0	1201.550	0	8.8	4	2.7	4	-1E+10	1	-1E+10	1	-1E+10	1	-1E+10	1	-1E+10	1	-1E+10	1
4902549	53	C	01/26/2022	08:57	-132.041	47.478	0	1225.00	0	2.8690	0	34.4280	0	27.448	0	1211.212	0	9.0	4	2.8	4	-1E+10	1	-1E+10	1	-1E+10	1	-1E+10	1	-1E+10	1	-1E+10	1
4902549	53	C	01/26/2022	08:57	-132.041	47.478	0	1235.10	0	2.8460	0	34.4310	0	27.452	0	1221.169	0	9.4	4	2.9	4	-1E+10	1	-1E+10	1	-1E+10	1	-1E+10	1	-1E+10	1	-1E+10	1
4902549	53	C	01/26/2022	08:57	-132.041	47.478	0	1245.20	0	2.8180	0	34.4350	0	27.458	0	1231.125	0	9.7	4	3.0	4	-1E+10	1	-1E+10	1	-1E+10	1	-1E+10	1	-1E+10	1	-1E+10	1
4902549	53	C	01/26/2022	08:57	-132.041	47.478	0	1255.30	0	2.8060	0	34.4400	0	27.463	0	1241.081	0	10.0	4	3.1	4	-1E+10	1	-1E+10	1	-1E+10	1	-1E+10	1	-1E+10	1	-1E+10	1
4902549	53	C	01/26/2022	08:57	-132.041	47.478	0	1265.40	0	2.7770	0	34.4410	0	27.467	0	1251.037	0	10.2	4	3.1	4	-1E+10	1	-1E+10	1	-1E+10	1	-1E+10	1	-1E+10	1	-1E+10	1
4902549	53	C	01/26/2022	08:57	-132.041	47.478	0	1275.40	0	2.7650	0	34.4430	0	27.469	0	1260.894	0	10.4	4	3.2	4	-1E+10	1	-1E+10	1	-1E+10	1	-1E+10	1	-1E+10	1	-1E+10	1
4902549	53	C	01/26/2022	08:57	-132.041	47.478	0	1285.50	0	2.7460	0	34.4450	0	27.473	0	1270.848	0	10.7	4	3.3	4	-1E+10	1	-1E+10	1	-1E+10	1	-1E+10	1	-1E+10	1	-1E+10	1
4902549	53	C	01/26/2022	08:57	-132.041	47.478	0	1295.60	0	2.7240	0	34.4490	0	27.478	0	1280.802	0	11.1	4	3.4	4	-1E+10	1	-1E+10	1	-1E+10	1	-1E+10	1	-1E+10	1	-1E+10	1
4902549	53	C	01/26/2022	08:57	-132.041	47.478	0	1305.30	0	2.7130	0	34.4520	0	27.481	0	1290.362	0	11.5	4	3.5	4	-1E+10	1	-1E+10	1	-1E+10	1	-1E+10	1	-1E+10	1	-1E+10	1
4902549	53	C	01/26/2022	08:57	-132.041	47.478	0	1315.40	0	2.7100	0	34.4560	0	27.485	0	1300.315	0	12.0	4	3.7	4	-1E+10	1	-1E+10	1	-1E+10	1	-1E+10	1	-1E+10	1	-1E+10	1
4902549	53	C	01/26/2022	08:57	-132.041	47.478	0	1325.60	0	2.6850	0	34.4600	0	27.490	0	1310.366	0	12.4	4	3.8	4	-1E+10	1	-1E+10	1	-1E+10	1	-1E+10	1	-1E+10	1	-1E+10	1
4902549	53	C	01/26/2022	08:57	-132.041	47.478	0	1335.40	0	2.6510	0	34.4640	0	27.496	0	1320.023	0	12.8	4	3.9	4	-1E+10	1	-1E+10	1	-1E+10	1	-1E+10	1	-1E+10	1	-1E+10	1
4902549	53	C	01/26/2022	08:57	-132.041	47.478	0	1345.40	0	2.6330	0	34.4660	0	27.499	0	1329.876	0	13.1	4	4.0	4	-1E+10	1	-1E+10	1	-1E+10	1	-1E+10	1	-1E+10	1	-1E+10	1
4902549	53	C	01/26/2022	08:57	-132.041	47.478	0	1355.50	0	2.6190	0	34.4670	0	27.501	0	1339.828	0	13.4	4	4.1	4	-1E+10	1	-1E+10	1	-1E+10	1	-1E+10	1	-1E+10	1	-1E+10	1
4902549	53	C	01/26/2022	08:57	-132.041	47.478	0	1365.40	0	2.5980	0	34.4700	0	27.506	0	1349.582	0	13.8	4	4.2	4	-1E+10	1	-1E+10	1	-1E+10	1	-1E+10	1	-1E+10	1	-1E+10	1
4902549	53	C	01/26/2022	08:57	-132.041	47.478	0	1375.50	0	2.5770	0	34.4720	0	27.509	0	1359.532	0	14.2	4	4.3	4	-1E+10	1	-1E+10	1	-1E+10	1	-1E+10	1	-1E+10	1	-1E+10	1
4902549	53	C	01/26/2022	08:57	-132.041	47.478	0	1385.60	0	2.5570	0	34.4750	0	27.513	0	1369.482	0	14.8	4	4.5	4	-1E+10	1	-1E+10	1	-1E+10	1	-1E+10	1	-1E+10	1	-1E+10	1
4902549	53	C	01/26/2022	08:57	-132.041	47.478	0	1395.50	0	2.5360	0	34.4780	0	27.517	0	1379.235	0	15.3	4	4.7	4	-1E+10	1	-1E+10	1	-1E+10	1	-1E+10	1	-1E+10	1	-1E+10	1
4902549	53	C	01/26/2022	08:57	-132.041	47.478	0	1405.70	0	2.5160	0	34.4810	0	27.522	0	1389.282	0	15.8	4	4.8	4	-1E+10	1	-1E+10	1	-1E+10	1	-1E+10	1	-1E+10	1	-1E+10	1
4902549	53	C	01/26/2022	08:57	-132.041	47.478	0	1416.00	0	2.5040	0	34.4830	0	27.524	0	1399.428	0	16.2	4	4.9	4	-1E+10	1	-1E+10	1	-1E+10	1	-1E+10	1	-1E+10	1	-1E+10	1
4902549	53	C	01/26/2022	08:57	-132.041	47.478	0	1425.50	0	2.4910	0	34.4850	0	27.527	0	1408.785	0	16.7	4	5.1	4	-1E+10	1	-1E+10	1	-1E+10	1	-1E+10	1	-1E+10	1	-1E+10	1
4902549	53	C	01/26/2022	08:57	-132.041	47.478	0	1435.40	0	2.4780	0	34.4880	0	27.531	0	1418.536	0	17.3	4	5.3	4	-1E+10	1	-1E+10	1	-1E+10	1	-1E+10	1	-1E+10	1	-1E+10	1
4902549	53	C	01/26/2022	08:57	-132.041	47.478	0	1445.30	0	2.4630	0	34.4900	0	27.533	0	1428.286	0	17.9	4	5.4	4	-1E+10	1	-1E+10	1	-1E+10	1	-1E+10	1	-1E+10	1	-1E+10	1
4902549	53	C	01/26/2022	08:57	-132.041	47.478	0	1455.10	0	2.4460	0	34.4930	0	27.537	0	1437.937	0	18.5	4	5.6	4	-1E+10	1	-1E+10	1	-1E+10	1	-1E+10	1	-1E+10	1	-1E+10	1
4902549	53	C	01/26/2022	08:57	-132.041	47.478	0	1465.30	0	2.4280	0	34.4960	0	27.541	0	1447.982	0	18.9	4	5.8	4	-1E+10	1	-1E+10	1	-1E+10	1	-1E+10	1	-1E+10	1	-1E+10	1
4902549	53	C	01/26/2022	08:57	-132.041	47.478	0	1475.20	0	2.4250	0	34.4960	0	27.542	0	1457.731	0	19.3	4	5.9	4	-1E+10	1	-1E+10	1	-1E+10	1	-1E+10	1	-1E+10	1	-1E+10	1
4902549	53	C	01/26/2022	08:57	-132.041	47.478	0	1485.30	0	2.4120	0	34.4990	0	27.545	0	1467.676	0	19.8	4	6.0	4	-1E+10	1	-1E+10	1	-1E+10	1	-1E+10	1	-1E+10	1	-1E+10	1
4902549	53	C	01/26/2022	08:57	-132.041	47.478	0	1495.60	0	2.4010	0	34.5010	0	27.548	0	1477.818	0	20.2	4	6.1	4	-1E+10	1	-1E+10	1	-1E+10	1	-1E+10	1	-1E+10	1	-1E+10	1
4902549	53	C	01/26/2022	08:57	-132.041	47.478	0	1505.50	0	2.3960	0	34.5020	0	27.549	0	1487.565	0	20.5	4	6.2	4	-1E+10	1	-1E+10	1	-1E+10	1	-1E+10	1	-1E+10	1	-1E+10	1
4902549	53	C	01/26/2022	08:57	-132.041	47.478	0	1515.40	0	2.3890	0	34.5030	0	27.550	0	1497.312	0	20.9	4	6.4	4	-1E+10	1	-1E+10	1	-1E+10	1	-1E+10	1	-1E+10	1	-1E+10	1
4902549	53	C	01/26/2022	08:57	-132.041	47.478	0	1525.30	0	2.3730	0	34.5050	0	27.553	0	1507.059	0	21.6	4	6.6	4	-1E+10	1	-1E+10	1	-1E+10	1	-1E+10	1	-1E+10	1	-1E+10	1
4902549	53	C	01/26/2022	08:57	-132.041	47.478	0	1535.40	0	2.3600	0	34.5080	0	27.557	0	1517.002	0	22.1	4	6.7	4	-1E+10	1	-1E+10	1	-1E+10	1	-1E+10	1	-1E+10	1	-1E+10	1
4902549	53	C	01/26/2022	08:57	-132.041	47.478	0	1545.50	0	2.3550	0	34.5090	0	27.558	0	1526.944	0	22.8	4	6.9	4	-1E+10	1	-1E+10	1	-1E+10	1	-1E+10	1	-1E+10	1	-1E+10	1
4902549	53	C	01/26/2022	08:57	-132.041	47.478	0	1555.30	0	2.3320	0	34.5130	0	27.563	0	1536.591	0	23.6	4	7.2	4	-1E+10	1	-1E+10	1	-1E+10	1	-1E+10	1	-1E+10	1	-1E+10	1
4902549	53	C	01/26/2022	08:57	-132.041	47.478	0	1565.10	0	2.3210	0	34.5150	0	27.566	0	1546.237	0	24.1	4	7.3	4	-1E+10	1	-1E+10	1	-1E+10	1	-1E+10	1	-1E+10	1	-1E+10	1
4902549	53	C	01/26/2022	08:57	-132.041	47.478	0	1575.30	0	2.3060	0	34.5170	0	27.569	0	1556.277	0	24.8	4	7.5	4	-1E+10	1	-1E+10	1	-1E+10	1	-1E+10	1	-1E+10	1	-1E+10	1
4902549	53	C	01/26/2022	08:57	-132.041	47.478	0	1585.60	0	2.2960	0	34.5190	0	27.571	0	1566.415	0	25.1	4	7.6	4	-1E+10	1	-1E+10	1	-1E+10	1	-1E+10	1	-1E+10	1	-1E+10	1
4902549	53	C	01/26/2022	08:57	-132.041	47.478	0	1595.30	0	2.2920	0	34.5200	0	27.572	0	1575.961	0	25.5	4	7.7	4	-1E+10	1	-1E+10	1	-1E+10	1	-1E+10	1	-1E+10	1	-1E+10	1
4902549	53	C	01/26/2022	08:57	-132.041	47.478	0	1605.00	0	2.2850	0	34.5210	0	27.574	0	1585.507	0	26.1	4	7.9	4	-1E+10	1	-1E+10	1	-1E+10	1	-1E+10	1	-1E+10	1	-1E+10	1
4902549	53	C	01/26/2022	08:57	-132.041	47.478	0	1615.20	0	2.2660	0	34.5240	0	27.578	0	1595.545	0	26.9	4	8.2	4	-1E+10	1	-1E+10	1	-1E+10	1	-1E+10	1	-1E+10	1	-1E+10	1
4902549	53	C	01/26/2022	08:57	-132.041	47.478	0	1625.30	0	2.2540	0	34.5260	0	27.580	0	1605.484	0	27.5	4	8.3	4	-1E+10	1	-1E+10	1	-1E+10	1	-1E+10	1	-1E+10	1	-1E+10	1
4902549	53	C	01/26/2022	08:57	-132.041	47.478	0	1635.60	0	2.2450	0	34.5280	0	27.583	0	1615.619	0	28.1	4	8.5	4	-1E+10	1	-1E+10	1	-1E+10	1	-1E+10	1	-1E+10	1	-1E+10	1
4902549	53	C	01/26/2022	08:57	-132.041	47.478	0	1645.30	0	2.2330	0	34.5300	0	27.585	0	1625.163	0	28.8	4	8.7	4	-1E+10	1	-1E+10	1	-1E+10	1	-1E+10	1	-1E+10	1	-1E+10	1
4902549	53	C	01/26/2022	08:57	-132.041	47.478	0	1655.30	0	2.2220	0	34.5320	0	27.588	0	1635.002	0	29.3	4	8.9	4	-1E+10	1	-1E+10	1	-1E+10	1	-1E+10	1	-1E+10	1	-1E+10	1
4902549	53	C	01/26/2022	08:57	-132.041	47.478	0	1665.10	0	2.2140	0	34.5330	0	27.589	0	1644.644	0	29.9	4	9.1	4	-1E+10	1	-1E+10	1	-1E+10	1	-1E+10	1	-1E+10	1	-1E+10	1
4902549	53	C	01/26/2022	08:57	-132.041	47.478	0	1675.10	0	2.2020	0	34.5350	0	27.592	0	1654.482	0	30.8	4	9.3	4	-1E+10	1	-1E+10	1	-1E+10	1	-1E+10	1	-1E+10	1	-1E+10	1
4902549	53	C	01/26/2022	08:57	-132.041	47.478	0	1685.30	0	2.1860	0	34.5380	0	27.596	0	1664.517	0	31.9	4	9.7	4	-1E+10	1	-1E+10	1	-1E+10	1	-1E+10	1	-1E+10	1	-1E+10	1
4902549	53	C	01/26/2022	08:57	-132.041	47.478	0	1695.50	0	2.1670	0	34.5410	0	27.600	0	1674.551	0	32.9	4	10.0	4	-1E+10	1	-1E+10	1	-1E+10	1	-1E+10	1	-1E+10	1	-1E+10	1
4902549	53	C	01/26/2022	08:57	-132.041	47.478	0	1705.70	0	2.1500	0	34.5440	0	27.604	0	1684.584	0	33.8	4	10.2	4	-1E+10	1	-1E+10	1	-1E+10	1	-1E+10	1	-1E+10	1	-1E+10	1
4902549	53	C	01/26/2022	08:57	-132.041	47.478	0	1715.60	0	2.1380	0	34.5460	0	27.606	0	1694.322	0	34.4	4	10.4	4	-1E+10	1	-1E+10	1	-1E+10	1	-1E+10	1	-1E+10	1	-1E+10	1
4902549	53	C	01/26/2022	08:57	-132.041	47.478	0	1725.30	0	2.1310	0	34.5470	0	27.608	0	1703.863	0	35.0	4	10.6	4	-1E+10	1	-1E+10	1	-1E+10	1	-1E+10	1	-1E+10	1	-1E+10	1
4902549	53	C	01/26/2022	08:57	-132.041	47.478	0	1735.30	0	2.1230	0	34.5490	0	27.610	0	1713.698	0	35.6	4	10.8	4	-1E+10	1	-1E+10	1	-1E+10	1	-1E+10	1	-1E+10	1	-1E+10	1
4902549	53	C	01/26/2022	08:57	-132.041	47.478	0	1745.50	0	2.1130	0	34.5510	0	27.612	0	1723.730	0	36.1	4	10.9	4	-1E+10	1	-1E+10	1	-1E+10	1	-1E+10	1	-1E+10	1	-1E+10	1
4902549	53	C	01/26/2022	08:57	-132.041	47.478	0	1755.40	0	2.1070	0	34.5520	0	27.614	0	1733.466	0	36.4	4	11.0	4	-1E+10	1	-1E+10	1	-1E+10	1	-1E+10	1	-1E+10	1	-1E+10	1
4902549	53	C	01/26/2022	08:57	-132.041	47.478	0	1765.50	0	2.1050	0	34.5520	0	27.614	0	1743.398	0	36.8	4	11.1	4	-1E+10	1	-1E+10	1	-1E+10	1	-1E+10	1	-1E+10	1	-1E+10	1
4902549	53	C	01/26/2022	08:57	-132.041	47.478	0	1775.70	0	2.0990	0	34.5530	0	27.615	0	1753.428	0	37.3	4	11.3	4	-1E+10	1	-1E+10	1	-1E+10	1	-1E+10	1	-1E+10	1	-1E+10	1
4902549	53	C	01/26/2022	08:57	-132.041	47.478	0	1785.40	0	2.0920	0	34.5550	0	27.617	0	1762.967	0	37.8	4	11.4	4	-1E+10	1	-1E+10	1	-1E+10	1	-1E+10	1	-1E+10	1	-1E+10	1
4902549	53	C	01/26/2022	08:57	-132.041	47.478	0	1795.10	0	2.0860	0	34.5560	0	27.619	0	1772.504	0	38.4	4	11.6	4	-1E+10	1	-1E+10	1	-1E+10	1	-1E+10	1	-1E+10	1	-1E+10	1
4902549	53	C	01/26/2022	08:57	-132.041	47.478	0	1805.40	0	2.0770	0	34.5580	0	27.621	0	1782.631	0	39.1	4	11.8	4	-1E+10	1	-1E+10	1	-1E+10	1	-1E+10	1	-1E+10	1	-1E+10	1
4902549	53	C	01/26/2022	08:57	-132.041	47.478	0	1815.40	0	2.0670	0	34.5590	0	27.623	0	1792.463	0	40.0	4	12.1	4	-1E+10	1	-1E+10	1	-1E+10	1	-1E+10	1	-1E+10	1	-1E+10	1
4902549	53	C	01/26/2022	08:57	-132.041	47.478	0	1825.30	0	2.0540	0	34.5620	0	27.626	0	1802.196	0	40.8	4	12.3	4	-1E+10	1	-1E+10	1	-1E+10	1	-1E+10	1	-1E+10	1	-1E+10	1
4902549	53	C	01/26/2022	08:57	-132.041	47.478	0	1835.40	0	2.0470	0	34.5630	0	27.628	0	1812.125	0	41.3	4	12.5	4	-1E+10	1	-1E+10	1	-1E+10	1	-1E+10	1	-1E+10	1	-1E+10	1
4902549	53	C	01/26/2022	08:57	-132.041	47.478	0	1845.60	0	2.0400	0	34.5650	0	27.630	0	1822.152	0	42.0	4	12.7	4	-1E+10	1	-1E+10	1	-1E+10	1	-1E+10	1	-1E+10	1	-1E+10	1
4902549	53	C	01/26/2022	08:57	-132.041	47.478	0	1855.70	0	2.0340	0	34.5660	0	27.631	0	1832.080	0	42.8	4	12.9	4	-1E+10	1	-1E+10	1	-1E+10	1	-1E+10	1	-1E+10	1	-1E+10	1
4902549	53	C	01/26/2022	08:57	-132.041	47.478	0	1865.50	0	2.0250	0	34.5680	0	27.633	0	1841.713	0	43.4	4	13.1	4	-1E+10	1	-1E+10	1	-1E+10	1	-1E+10	1	-1E+10	1	-1E+10	1
4902549	53	C	01/26/2022	08:57	-132.041	47.478	0	1875.30	0	2.0210	0	34.5690	0	27.635	0	1851.346	0	43.8	4	13.2	4	-1E+10	1	-1E+10	1	-1E+10	1	-1E+10	1	-1E+10	1	-1E+10	1
4902549	53	C	01/26/2022	08:57	-132.041	47.478	0	1885.60	0	2.0160	0	34.5700	0	27.636	0	1861.469	0	44.5	4	13.4	4	-1E+10	1	-1E+10	1	-1E+10	1	-1E+10	1	-1E+10	1	-1E+10	1
4902549	53	C	01/26/2022	08:57	-132.041	47.478	0	1895.50	0	2.0100	0	34.5710	0	27.637	0	1871.199	0	45.2	4	13.6	4	-1E+10	1	-1E+10	1	-1E+10	1	-1E+10	1	-1E+10	1	-1E+10	1
4902549	53	C	01/26/2022	08:57	-132.041	47.478	0	1905.50	0	1.9990	0	34.5730	0	27.640	0	1881.026	0	46.2	4	13.9	4	-1E+10	1	-1E+10	1	-1E+10	1	-1E+10	1	-1E+10	1	-1E+10	1
4902549	53	C	01/26/2022	08:57	-132.041	47.478	0	1915.60	0	1.9860	0	34.5750	0	27.642	0	1890.952	0	46.9	4	14.1	4	-1E+10	1	-1E+10	1	-1E+10	1	-1E+10	1	-1E+10	1	-1E+10	1
4902549	53	C	01/26/2022	08:57	-132.041	47.478	0	1925.20	0	1.9800	0	34.5760	0	27.644	0	1900.385	0	47.2	4	14.2	4	-1E+10	1	-1E+10	1	-1E+10	1	-1E+10	1	-1E+10	1	-1E+10	1
4902549	53	C	01/26/2022	08:57	-132.041	47.478	0	1935.40	0	1.9780	0	34.5770	0	27.645	0	1910.408	0	47.5	4	14.3	4	-1E+10	1	-1E+10	1	-1E+10	1	-1E+10	1	-1E+10	1	-1E+10	1
4902549	53	C	01/26/2022	08:57	-132.041	47.478	0	1945.30	0	1.9760	0	34.5770	0	27.645	0	1920.136	0	47.9	4	14.4	4	-1E+10	1	-1E+10	1	-1E+10	1	-1E+10	1	-1E+10	1	-1E+10	1
4902549	53	C	01/26/2022	08:57	-132.041	47.478	0	1955.20	0	1.9700	0	34.5790	0	27.647	0	1929.863	0	48.6	4	14.7	4	-1E+10	1	-1E+10	1	-1E+10	1	-1E+10	1	-1E+10	1	-1E+10	1
4902549	53	C	01/26/2022	08:57	-132.041	47.478	0	1965.30	0	1.9590	0	34.5800	0	27.649	0	1939.786	0	49.4	4	14.9	4	-1E+10	1	-1E+10	1	-1E+10	1	-1E+10	1	-1E+10	1	-1E+10	1
4902549	53	C	01/26/2022	08:57	-132.041	47.478	0	1975.40	0	1.9500	0	34.5820	0	27.651	0	1949.709	0	49.9	4	15.0	4	-1E+10	1	-1E+10	1	-1E+10	1	-1E+10	1	-1E+10	1	-1E+10	1
4902549	53	C	01/26/2022	08:57	-132.041	47.478	0	1986.00	0	1.9430	0	34.5830	0	27.653	0	1960.122	0	50.2	4	15.1	4	-1E+10	1	-1E+10	1	-1E+10	1	-1E+10	1	-1E+10	1	-1E+10	1
4902549	53	C	01/26/2022	08:57	-132.041	47.478	0	1991.40	0	1.9390	0	34.5840	0	27.654	0	1965.427	0	49.8	4	15.0	4	-1E+10	1	-1E+10	1	-1E+10	1	-1E+10	1	-1E+10	1	-1E+10	1
4902549	53	C	01/26/2022	08:57	-132.041	47.478	0																										
4902549	54	C	02/05/2022	14:04	-132.017	47.483	0	0.40	0	7.6780	0	32.3420	0	25.233	0	0.397	0	280.8	4	95.3	4	-1E+10	1	-1E+10	1	-1E+10	1	-1E+10	1	-1E+10	1	-1E+10	1
4902549	54	C	02/05/2022	14:04	-132.017	47.483	0	0.50	0	7.6788	0	32.3418	0	25.233	0	0.496	0	280.7	4	95.3	4	-1E+10	1	-1E+10	1	-1E+10	1	-1E+10	1	-1E+10	1	-1E+10	1
4902549	54	C	02/05/2022	14:04	-132.017	47.483	0	1.00	0	7.6830	0	32.3410	0	25.232	0	0.992	0	280.7	4	95.3	4	-1E+10	1	-1E+10	1	-1E+10	1	-1E+10	1	-1E+10	1	-1E+10	1
4902549	54	C	02/05/2022	14:04	-132.017	47.483	0	2.10	0	7.6850	0	32.3430	0	25.233	0	2.082	0	280.6	4	95.3	4	-1E+10	1	-1E+10	1	-1E+10	1	-1E+10	1	-1E+10	1	-1E+10	1
4902549	54	C	02/05/2022	14:04	-132.017	47.483	0	3.10	0	7.6920	0	32.3380	0	25.228	0	3.074	0	280.6	4	95.2	4	-1E+10	1	-1E+10	1	-1E+10	1	-1E+10	1	-1E+10	1	-1E+10	1
4902549	54	C	02/05/2022	14:04	-132.017	47.483	0	4.00	0	7.6920	0	32.3370	0	25.227	0	3.967	0	280.6	4	95.3	4	-1E+10	1	-1E+10	1	-1E+10	1	-1E+10	1	-1E+10	1	-1E+10	1
4902549	54	C	02/05/2022	14:04	-132.017	47.483	0	4.90	0	7.6920	0	32.3380	0	25.228	0	4.859	0	280.6	4	95.2	4	-1E+10	1	-1E+10	1	-1E+10	1	-1E+10	1	-1E+10	1	-1E+10	1
4902549	54	C	02/05/2022	14:04	-132.017	47.483	0	6.10	0	7.6930	0	32.3380	0	25.228	0	6.049	0	280.5	4	95.2	4	-1E+10	1	-1E+10	1	-1E+10	1	-1E+10	1	-1E+10	1	-1E+10	1
4902549	54	C	02/05/2022	14:04	-132.017	47.483	0	7.00	0	7.6910	0	32.3380	0	25.228	0	6.941	0	280.5	4	95.2	4	-1E+10	1	-1E+10	1	-1E+10	1	-1E+10	1	-1E+10	1	-1E+10	1
4902549	54	C	02/05/2022	14:04	-132.017	47.483	0	7.90	0	7.6900	0	32.3380	0	25.228	0	7.834	0	280.4	4	95.2	4	-1E+10	1	-1E+10	1	-1E+10	1	-1E+10	1	-1E+10	1	-1E+10	1
4902549	54	C	02/05/2022	14:04	-132.017	47.483	0	8.90	0	7.6900	0	32.3390	0	25.229	0	8.826	0	280.5	4	95.2	4	-1E+10	1	-1E+10	1	-1E+10	1	-1E+10	1	-1E+10	1	-1E+10	1
4902549	54	C	02/05/2022	14:04	-132.017	47.483	0	9.80	0	7.6910	0	32.3380	0	25.228	0	9.718	0	280.4	4	95.2	4	-1E+10	1	-1E+10	1	-1E+10	1	-1E+10	1	-1E+10	1	-1E+10	1
4902549	54	C	02/05/2022	14:04	-132.017	47.483	0	11.00	0	7.6910	0	32.3380	0	25.228	0	10.908	0	280.4	4	95.2	4	-1E+10	1	-1E+10	1	-1E+10	1	-1E+10	1	-1E+10	1	-1E+10	1
4902549	54	C	02/05/2022	14:04	-132.017	47.483	0	12.10	0	7.6910	0	32.3380	0	25.228	0	11.999	0	280.4	4	95.2	4	-1E+10	1	-1E+10	1	-1E+10	1	-1E+10	1	-1E+10	1	-1E+10	1
4902549	54	C	02/05/2022	14:04	-132.017	47.483	0	13.10	0	7.6900	0	32.3380	0	25.228	0	12.990	0	280.3	4	95.2	4	-1E+10	1	-1E+10	1	-1E+10	1	-1E+10	1	-1E+10	1	-1E+10	1
4902549	54	C	02/05/2022	14:04	-132.017	47.483	0	14.10	0	7.6940	0	32.3380	0	25.228	0	13.982	0	280.2	4	95.1	4	-1E+10	1	-1E+10	1	-1E+10	1	-1E+10	1	-1E+10	1	-1E+10	1
4902549	54	C	02/05/2022	14:04	-132.017	47.483	0	14.80	0	7.6930	0	32.3390	0	25.229	0	14.676	0	280.3	4	95.2	4	-1E+10	1	-1E+10	1	-1E+10	1	-1E+10	1	-1E+10	1	-1E+10	1
4902549	54	C	02/05/2022	14:04	-132.017	47.483	0	15.90	0	7.6940	0	32.3380	0	25.228	0	15.767	0	280.4	4	95.2	4	-1E+10	1	-1E+10	1	-1E+10	1	-1E+10	1	-1E+10	1	-1E+10	1
4902549	54	C	02/05/2022	14:04	-132.017	47.483	0	17.00	0	7.6930	0	32.3380	0	25.228	0	16.857	0	280.3	4	95.1	4	-1E+10	1	-1E+10	1	-1E+10	1	-1E+10	1	-1E+10	1	-1E+10	1
4902549	54	C	02/05/2022	14:04	-132.017	47.483	0	18.10	0	7.6930	0	32.3380	0	25.228	0	17.948	0	280.3	4	95.2	4	-1E+10	1	-1E+10	1	-1E+10	1	-1E+10	1	-1E+10	1	-1E+10	1
4902549	54	C	02/05/2022	14:04	-132.017	47.483	0	18.80	0	7.6930	0	32.3380	0	25.228	0	18.642	0	280.3	4	95.1	4	-1E+10	1	-1E+10	1	-1E+10	1	-1E+10	1	-1E+10	1	-1E+10	1
4902549	54	C	02/05/2022	14:04	-132.017	47.483	0	20.10	0	7.6920	0	32.3380	0	25.228	0	19.931	0	280.3	4	95.1	4	-1E+10	1	-1E+10	1	-1E+10	1	-1E+10	1	-1E+10	1	-1E+10	1
4902549	54	C	02/05/2022	14:04	-132.017	47.483	0	20.90	0	7.6890	0	32.3370	0	25.228	0	20.725	0	280.3	4	95.2	4	-1E+10	1	-1E+10	1	-1E+10	1	-1E+10	1	-1E+10	1	-1E+10	1
4902549	54	C	02/05/2022	14:04	-132.017	47.483	0	22.00	0	7.6880	0	32.3370	0	25.228	0	21.815	0	280.3	4	95.1	4	-1E+10	1	-1E+10	1	-1E+10	1	-1E+10	1	-1E+10	1	-1E+10	1
4902549	54	C	02/05/2022	14:04	-132.017	47.483	0	22.90	0	7.6860	0	32.3370	0	25.228	0	22.708	0	280.2	4	95.1	4	-1E+10	1	-1E+10	1	-1E+10	1	-1E+10	1	-1E+10	1	-1E+10	1
4902549	54	C	02/05/2022	14:04	-132.017	47.483	0	23.80	0	7.6870	0	32.3360	0	25.227	0	23.600	0	280.3	4	95.2	4	-1E+10	1	-1E+10	1	-1E+10	1	-1E+10	1	-1E+10	1	-1E+10	1
4902549	54	C	02/05/2022	14:04	-132.017	47.483	0	24.80	0	7.6850	0	32.3370	0	25.228	0	24.592	0	280.3	4	95.1	4	-1E+10	1	-1E+10	1	-1E+10	1	-1E+10	1	-1E+10	1	-1E+10	1
4902549	54	C	02/05/2022	14:04	-132.017	47.483	0	25.70	0	7.6860	0	32.3370	0	25.228	0	25.484	0	280.2	4	95.1	4	-1E+10	1	-1E+10	1	-1E+10	1	-1E+10	1	-1E+10	1	-1E+10	1
4902549	54	C	02/05/2022	14:04	-132.017	47.483	0	26.70	0	7.6890	0	32.3370	0	25.228	0	26.475	0	280.3	4	95.1	4	-1E+10	1	-1E+10	1	-1E+10	1	-1E+10	1	-1E+10	1	-1E+10	1
4902549	54	C	02/05/2022	14:04	-132.017	47.483	0	27.80	0	7.6900	0	32.3370	0	25.228	0	27.566	0	280.2	4	95.1	4	-1E+10	1	-1E+10	1	-1E+10	1	-1E+10	1	-1E+10	1	-1E+10	1
4902549	54	C	02/05/2022	14:04	-132.017	47.483	0	28.70	0	7.6900	0	32.3370	0	25.228	0	28.459	0	280.3	4	95.2	4	-1E+10	1	-1E+10	1	-1E+10	1	-1E+10	1	-1E+10	1	-1E+10	1
4902549	54	C	02/05/2022	14:04	-132.017	47.483	0	29.70	0	7.6880	0	32.3370	0	25.228	0	29.450	0	280.2	4	95.1	4	-1E+10	1	-1E+10	1	-1E+10	1	-1E+10	1	-1E+10	1	-1E+10	1
4902549	54	C	02/05/2022	14:04	-132.017	47.483	0	30.70	0	7.6890	0	32.3370	0	25.228	0	30.442	0	280.2	4	95.1	4	-1E+10	1	-1E+10	1	-1E+10	1	-1E+10	1	-1E+10	1	-1E+10	1
4902549	54	C	02/05/2022	14:04	-132.017	47.483	0	31.70	0	7.6880	0	32.3370	0	25.228	0	31.433	0	280.2	4	95.1	4	-1E+10	1	-1E+10	1	-1E+10	1	-1E+10	1	-1E+10	1	-1E+10	1
4902549	54	C	02/05/2022	14:04	-132.017	47.483	0	32.70	0	7.6880	0	32.3370	0	25.228	0	32.425	0	280.1	4	95.1	4	-1E+10	1	-1E+10	1	-1E+10	1	-1E+10	1	-1E+10	1	-1E+10	1
4902549	54	C	02/05/2022	14:04	-132.017	47.483	0	33.90	0	7.6870	0	32.3380	0	25.229	0	33.614	0	280.1	4	95.1	4	-1E+10	1	-1E+10	1	-1E+10	1	-1E+10	1	-1E+10	1	-1E+10	1
4902549	54	C	02/05/2022	14:04	-132.017	47.483	0	35.00	0	7.6860	0	32.3380	0	25.229	0	34.705	0	280.3	4	95.2	4	-1E+10	1	-1E+10	1	-1E+10	1	-1E+10	1	-1E+10	1	-1E+10	1
4902549	54	C	02/05/2022	14:04	-132.017	47.483	0	36.10	0	7.6830	0	32.3370	0	25.229	0	35.796	0	280.1	4	95.1	4	-1E+10	1	-1E+10	1	-1E+10	1	-1E+10	1	-1E+10	1	-1E+10	1
4902549	54	C	02/05/2022	14:04	-132.017	47.483	0	37.10	0	7.6820	0	32.3360	0	25.228	0	36.787	0	280.2	4	95.1	4	-1E+10	1	-1E+10	1	-1E+10	1	-1E+10	1	-1E+10	1	-1E+10	1
4902549	54	C	02/05/2022	14:04	-132.017	47.483	0	38.30	0	7.6820	0	32.3340	0	25.227	0	37.977	0	280.1	4	95.1	4	-1E+10	1	-1E+10	1	-1E+10	1	-1E+10	1	-1E+10	1	-1E+10	1
4902549	54	C	02/05/2022	14:04	-132.017	47.483	0	39.20	0	7.6810	0	32.3400	0	25.232	0	38.869	0	280.2	4	95.1	4	-1E+10	1	-1E+10	1	-1E+10	1	-1E+10	1	-1E+10	1	-1E+10	1
4902549	54	C	02/05/2022	14:04	-132.017	47.483	0	39.90	0	7.6850	0	32.3370	0	25.229	0	39.563	0	280.1	4	95.1	4	-1E+10	1	-1E+10	1	-1E+10	1	-1E+10	1	-1E+10	1	-1E+10	1
4902549	54	C	02/05/2022	14:04	-132.017	47.483	0	40.90	0	7.6860	0	32.3370	0	25.228	0	40.555	0	280.2	4	95.1	4	-1E+10	1	-1E+10	1	-1E+10	1	-1E+10	1	-1E+10	1	-1E+10	1
4902549	54	C	02/05/2022	14:04	-132.017	47.483	0	41.80	0	7.6820	0	32.3360	0	25.228	0	41.447	0	280.1	4	95.1	4	-1E+10	1	-1E+10	1	-1E+10	1	-1E+10	1	-1E+10	1	-1E+10	1
4902549	54	C	02/05/2022	14:04	-132.017	47.483	0	42.70	0	7.6820	0	32.3360	0	25.228	0	42.339	0	280.1	4	95.1	4	-1E+10	1	-1E+10	1	-1E+10	1	-1E+10	1	-1E+10	1	-1E+10	1
4902549	54	C	02/05/2022	14:04	-132.017	47.483	0	43.90	0	7.6840	0	32.3360	0	25.228	0	43.529	0	280.0	4	95.0	4	-1E+10	1	-1E+10	1	-1E+10	1	-1E+10	1	-1E+10	1	-1E+10	1
4902549	54	C	02/05/2022	14:04	-132.017	47.483	0	45.20	0	7.6860	0	32.3370	0	25.229	0	44.818	0	280.0	4	95.0	4	-1E+10	1	-1E+10	1	-1E+10	1	-1E+10	1	-1E+10	1	-1E+10	1
4902549	54	C	02/05/2022	14:04	-132.017	47.483	0	45.90	0	7.6830	0	32.3360	0	25.228	0	45.512	0	280.0	4	95.0	4	-1E+10	1	-1E+10	1	-1E+10	1	-1E+10	1	-1E+10	1	-1E+10	1
4902549	54	C	02/05/2022	14:04	-132.017	47.483	0	47.20	0	7.6810	0	32.3360	0	25.228	0	46.801	0	280.0	4	95.0	4	-1E+10	1	-1E+10	1	-1E+10	1	-1E+10	1	-1E+10	1	-1E+10	1
4902549	54	C	02/05/2022	14:04	-132.017	47.483	0	48.00	0	7.6830	0	32.3350	0	25.227	0	47.594	0	279.9	4	95.0	4	-1E+10	1	-1E+10	1	-1E+10	1	-1E+10	1	-1E+10	1	-1E+10	1
4902549	54	C	02/05/2022	14:04	-132.017	47.483	0	48.90	0	7.6660	0	32.3410	0	25.235	0	48.486	0	279.9	4	95.0	4	-1E+10	1	-1E+10	1	-1E+10	1	-1E+10	1	-1E+10	1	-1E+10	1
4902549	54	C	02/05/2022	14:04	-132.017	47.483	0	50.10	0	7.6460	0	32.3330	0	25.231	0	49.676	0	280.0	4	95.0	4	-1E+10	1	-1E+10	1	-1E+10	1	-1E+10	1	-1E+10	1	-1E+10	1
4902549	54	C	02/05/2022	14:04	-132.017	47.483	0	50.90	0	7.6420	0	32.3330	0	25.232	0	50.469	0	280.0	4	94.9	4	-1E+10	1	-1E+10	1	-1E+10	1	-1E+10	1	-1E+10	1	-1E+10	1
4902549	54	C	02/05/2022	14:04	-132.017	47.483	0	52.20	0	7.6250	0	32.3320	0	25.233	0	51.758	0	280.2	4	95.0	4	-1E+10	1	-1E+10	1	-1E+10	1	-1E+10	1	-1E+10	1	-1E+10	1
4902549	54	C	02/05/2022	14:04	-132.017	47.483	0	53.10	0	7.6230	0	32.3330	0	25.234	0	52.650	0	280.0	4	94.9	4	-1E+10	1	-1E+10	1	-1E+10	1	-1E+10	1	-1E+10	1	-1E+10	1
4902549	54	C	02/05/2022	14:04	-132.017	47.483	0	54.00	0	7.6150	0	32.3320	0	25.235	0	53.542	0	280.1	4	94.9	4	-1E+10	1	-1E+10	1	-1E+10	1	-1E+10	1	-1E+10	1	-1E+10	1
4902549	54	C	02/05/2022	14:04	-132.017	47.483	0	55.20	0	7.6120	0	32.3320	0	25.235	0	54.732	0	280.1	4	94.9	4	-1E+10	1	-1E+10	1	-1E+10	1	-1E+10	1	-1E+10	1	-1E+10	1
4902549	54	C	02/05/2022	14:04	-132.017	47.483	0	55.80	0	7.6080	0	32.3310	0	25.235	0	55.327	0	280.0	4	94.9	4	-1E+10	1	-1E+10	1	-1E+10	1	-1E+10	1	-1E+10	1	-1E+10	1
4902549	54	C	02/05/2022	14:04	-132.017	47.483	0	57.10	0	7.5790	0	32.3290	0	25.237	0	56.616	0	280.1	4	94.8	4	-1E+10	1	-1E+10	1	-1E+10	1	-1E+10	1	-1E+10	1	-1E+10	1
4902549	54	C	02/05/2022	14:04	-132.017	47.483	0	58.20	0	7.5670	0	32.3270	0	25.237	0	57.706	0	280.1	4	94.8	4	-1E+10	1	-1E+10	1	-1E+10	1	-1E+10	1	-1E+10	1	-1E+10	1
4902549	54	C	02/05/2022	14:04	-132.017	47.483	0	58.80	0	7.5440	0	32.3270	0	25.241	0	58.301	0	280.2	4	94.8	4	-1E+10	1	-1E+10	1	-1E+10	1	-1E+10	1	-1E+10	1	-1E+10	1
4902549	54	C	02/05/2022	14:04	-132.017	47.483	0	60.10	0	7.5130	0	32.3260	0	25.244	0	59.590	0	280.4	4	94.8	4	-1E+10	1	-1E+10	1	-1E+10	1	-1E+10	1	-1E+10	1	-1E+10	1
4902549	54	C	02/05/2022	14:04	-132.017	47.483	0	61.30	0	7.4820	0	32.3240	0	25.247	0	60.779	0	280.6	4	94.8	4	-1E+10	1	-1E+10	1	-1E+10	1	-1E+10	1	-1E+10	1	-1E+10	1
4902549	54	C	02/05/2022	14:04	-132.017	47.483	0	62.20	0	7.4680	0	32.3250	0	25.250	0	61.672	0	280.7	4	94.8	4	-1E+10	1	-1E+10	1	-1E+10	1	-1E+10	1	-1E+10	1	-1E+10	1
4902549	54	C	02/05/2022	14:04	-132.017	47.483	0	63.10	0	7.4590	0	32.3230	0	25.249	0	62.564	0	280.6	4	94.7	4	-1E+10	1	-1E+10	1	-1E+10	1	-1E+10	1	-1E+10	1	-1E+10	1
4902549	54	C	02/05/2022	14:04	-132.017	47.483	0	64.00	0	7.4260	0	32.3210	0	25.252	0	63.456	0	280.7	4	94.7	4	-1E+10	1	-1E+10	1	-1E+10	1	-1E+10	1	-1E+10	1	-1E+10	1
4902549	54	C	02/05/2022	14:04	-132.017	47.483	0	65.10	0	7.4130	0	32.3210	0	25.254	0	64.547	0	280.7	4	94.7	4	-1E+10	1	-1E+10	1	-1E+10	1	-1E+10	1	-1E+10	1	-1E+10	1
4902549	54	C	02/05/2022	14:04	-132.017	47.483	0	66.30	0	7.4010	0	32.3210	0	25.256	0	65.736	0	280.6	4	94.6	4	-1E+10	1	-1E+10	1	-1E+10	1	-1E+10	1	-1E+10	1	-1E+10	1
4902549	54	C	02/05/2022	14:04	-132.017	47.483	0	66.90	0	7.4010	0	32.3200	0	25.255	0	66.331	0	280.6	4	94.6	4	-1E+10	1	-1E+10	1	-1E+10	1	-1E+10	1	-1E+10	1	-1E+10	1
4902549	54	C	02/05/2022	14:04	-132.017	47.483	0	67.80	0	7.3920	0	32.3200	0	25.256	0	67.223	0	280.5	4	94.6	4	-1E+10	1	-1E+10	1	-1E+10	1	-1E+10	1	-1E+10	1	-1E+10	1
4902549	54	C	02/05/2022	14:04	-132.017	47.483	0	69.00	0	7.3880	0	32.3210	0	25.258	0	68.413	0	280.4	4	94.5	4	-1E+10	1	-1E+10	1	-1E+10	1	-1E+10	1	-1E+10	1	-1E+10	1
4902549	54	C	02/05/2022	14:04	-132.017	47.483	0	70.10	0	7.3770	0	32.3200	0	25.258	0	69.503	0	280.4	4	94.5	4	-1E+10	1	-1E+10	1	-1E+10	1	-1E+10	1	-1E+10	1	-1E+10	1
4902549	54	C	02/05/2022	14:04	-132.017	47.483	0	71.30	0	7.3710	0	32.3200	0	25.259	0	70.693	0	280.3	4	94.4	4	-1E+10	1	-1E+10	1	-1E+10	1	-1E+10	1	-1E+10	1	-1E+10	1
4902549	54	C	02/05/2022	14:04	-132.017	47.483	0	72.00	0	7.3640	0	32.3190	0	25.259	0	71.387	0	280.2	4	94.4	4	-1E+10	1	-1E+10	1	-1E+10	1	-1E+10	1	-1E+10	1	-1E+10	1
4902549	54	C	02/05/2022	14:04	-132.017	47.483	0	72.90	0	7.3570	0	32.3190	0	25.260	0	72.279	0	280.0	4	94.3	4	-1E+10	1	-1E+10	1	-1E+10	1	-1E+10	1	-1E+10	1	-1E+10	1
4902549	54	C	02/05/2022	14:04	-132.017	47.483	0	73.80	0	7.3480	0	32.3180	0	25.261	0	73.171	0	279.9	4	94.3	4	-1E+10	1	-1E+10	1	-1E+10	1	-1E+10	1	-1E+10	1	-1E+10	1
4902549	54	C	02/05/2022	14:04	-132.017	47.483	0	74.80	0	7.3460	0	32.3180	0	25.261	0	74.162	0	279.6	4	94.2	4	-1E+10	1	-1E+10	1	-1E+10	1	-1E+10	1	-1E+10	1	-1E+10	1
4902549	54	C	02/05/2022	14:04	-132.017	47.483	0	76.00	0	7.3380	0	32.3180	0	25.262	0	75.352	0	279.4	4	94.1	4	-1E+10	1	-1E+10	1	-1E+10	1	-1E+10	1	-1E+10	1	-1E+10	1
4902549	54	C	02/05/2022	14:04	-132.017	47.483	0	76.70	0	7.3300	0	32.3190	0	25.264	0	76.046	0	279.3	4	94.0	4	-1E+10	1	-1E+10	1	-1E+10	1	-1E+10	1	-1E+10	1	-1E+10	1
4902549	54	C	02/05/2022	14:04	-132.017	47.483	0	77.70	0	7.3260	0	32.3190	0	25.265	0	77.037	0	279.1	4	93.9	4	-1E+10	1	-1E+10	1	-1E+10	1	-1E+10	1	-1E+10	1	-1E+10	1
4902549	54	C	02/05/2022	14:04	-132.017	47.483	0	78.70	0	7.3230	0	32.3200	0	25.266	0	78.028	0	278.9	4	93.9	4	-1E+10	1	-1E+10	1	-1E+10	1	-1E+10	1	-1E+10	1	-1E+10	1
4902549	54	C	02/05/2022	14:04	-132.017	47.483	0	79.70	0	7.3210	0	32.3200	0	25.266	0	79.020	0	278.7	4	93.8	4	-1E+10	1	-1E+10	1	-1E+10	1	-1E+10	1	-1E+10	1	-1E+10	1
4902549	54	C	02/05/2022	14:04	-132.017	47.483	0	81.10	0	7.3200	0	32.3200	0	25.266	0	80.407	0	278.4	4	93.7	4	-1E+10	1	-1E+10	1	-1E+10	1	-1E+10	1	-1E+10	1	-1E+10	1
4902549	54	C	02/05/2022	14:04	-132.017	47.483	0	82.10	0	7.3190	0	32.3200	0	25.266	0	81.399	0	278.2	4	93.6	4	-1E+10	1	-1E+10	1	-1E+10	1	-1E+10	1	-1E+10	1	-1E+10	1
4902549	54	C	02/05/2022	14:04	-132.017	47.483	0	83.10	0	7.3190	0	32.3210	0	25.267	0	82.390	0	277.8	4	93.5	4	-1E+10	1	-1E+10	1	-1E+10	1	-1E+10	1	-1E+10	1	-1E+10	1
4902549	54	C	02/05/2022	14:04	-132.017	47.483	0	84.00	0	7.3200	0	32.3210	0	25.267	0	83.282	0	284.5	4	95.8	4	-1E+10	1	-1E+10	1	-1E+10	1	-1E+10	1	-1E+10	1	-1E+10	1
4902549	54	C	02/05/2022	14:04	-132.017	47.483	0	85.00	0	7.3180	0	32.3210	0	25.267	0	84.273	0	284.2	4	95.6	4	-1E+10	1	-1E+10	1	-1E+10	1	-1E+10	1	-1E+10	1	-1E+10	1
4902549	54	C	02/05/2022	14:04	-132.017	47.483	0	86.00	0	7.3150	0	32.3210	0	25.268	0	85.265	0	283.6	4	95.4	4	-1E+10	1	-1E+10	1	-1E+10	1	-1E+10	1	-1E+10	1	-1E+10	1
4902549	54	C	02/05/2022	14:04	-132.017	47.483	0	87.20	0	7.3140	0	32.3210	0	25.268	0	86.454	0	282.7	4	95.1	4	-1E+10	1	-1E+10	1	-1E+10	1	-1E+10	1	-1E+10	1	-1E+10	1
4902549	54	C	02/05/2022	14:04	-132.017	47.483	0	87.90	0	7.3160	0	32.3220	0	25.269	0	87.148	0	282.2	4	95.0	4	-1E+10	1	-1E+10	1	-1E+10	1	-1E+10	1	-1E+10	1	-1E+10	1
4902549	54	C	02/05/2022	14:04	-132.017	47.483	0	88.80	0	7.3250	0	32.3250	0	25.270	0	88.040	0	281.4	4	94.7	4	-1E+10	1	-1E+10	1	-1E+10	1	-1E+10	1	-1E+10	1	-1E+10	1
4902549	54	C	02/05/2022	14:04	-132.017	47.483	0	90.00	0	7.3360	0	32.3300	0	25.272	0	89.230	0	280.7	4	94.5	4	-1E+10	1	-1E+10	1	-1E+10	1	-1E+10	1	-1E+10	1	-1E+10	1
4902549	54	C	02/05/2022	14:04	-132.017	47.483	0	91.30	0	7.3430	0	32.3360	0	25.276	0	90.518	0	279.7	4	94.2	4	-1E+10	1	-1E+10	1	-1E+10	1	-1E+10	1	-1E+10	1	-1E+10	1
4902549	54	C	02/05/2022	14:04	-132.017	47.483	0	92.20	0	7.3340	0	32.3380	0	25.279	0	91.410	0	279.2	4	94.0	4	-1E+10	1	-1E+10	1	-1E+10	1	-1E+10	1	-1E+10	1	-1E+10	1
4902549	54	C	02/05/2022	14:04	-132.017	47.483	0	92.80	0	7.3260	0	32.3390	0	25.281	0	92.005	0	278.7	4	93.8	4	-1E+10	1	-1E+10	1	-1E+10	1	-1E+10	1	-1E+10	1	-1E+10	1
4902549	54	C	02/05/2022	14:04	-132.017	47.483	0	93.90	0	7.3100	0	32.3410	0	25.284	0	93.095	0	277.8	4	93.5	4	-1E+10	1	-1E+10	1	-1E+10	1	-1E+10	1	-1E+10	1	-1E+10	1
4902549	54	C	02/05/2022	14:04	-132.017	47.483	0	95.00	0	7.2970	0	32.3440	0	25.288	0	94.186	0	276.9	4	93.2	4	-1E+10	1	-1E+10	1	-1E+10	1	-1E+10	1	-1E+10	1	-1E+10	1
4902549	54	C	02/05/2022	14:04	-132.017	47.483	0	96.20	0	7.2770	0	32.3470	0	25.294	0	95.375	0	275.9	4	92.8	4	-1E+10	1	-1E+10	1	-1E+10	1	-1E+10	1	-1E+10	1	-1E+10	1
4902549	54	C	02/05/2022	14:04	-132.017	47.483	0	97.10	0	7.2660	0	32.3550	0	25.301	0	96.267	0	275.3	4	92.6	4	-1E+10	1	-1E+10	1	-1E+10	1	-1E+10	1	-1E+10	1	-1E+10	1
4902549	54	C	02/05/2022	14:04	-132.017	47.483	0	97.80	0	7.2740	0	32.3640	0	25.307	0	96.961	0	274.6	4	92.4	4	-1E+10	1	-1E+10	1	-1E+10	1	-1E+10	1	-1E+10	1	-1E+10	1
4902549	54	C	02/05/2022	14:04	-132.017	47.483	0	98.80	0	7.2570	0	32.3670	0	25.312	0	97.952	0	274.0	4	92.1	4	-1E+10	1	-1E+10	1	-1E+10	1	-1E+10	1	-1E+10	1	-1E+10	1
4902549	54	C	02/05/2022	14:04	-132.017	47.483	0	99.80	0	7.1940	0	32.3630	0	25.317	0	98.943	0	273.5	4	91.8	4	-1E+10	1	-1E+10	1	-1E+10	1	-1E+10	1	-1E+10	1	-1E+10	1
4902549	54	C	02/05/2022	14:04	-132.017	47.483	0	100.80	0	7.1300	0	32.3660	0	25.328	0	99.934	0	272.9	4	91.5	4	-1E+10	1	-1E+10	1	-1E+10	1	-1E+10	1	-1E+10	1	-1E+10	1
4902549	54	C	02/05/2022	14:04	-132.017	47.483	0	101.80	0	7.0980	0	32.3730	0	25.338	0	100.926	0	271.9	4	91.1	4	-1E+10	1	-1E+10	1	-1E+10	1	-1E+10	1	-1E+10	1	-1E+10	1
4902549	54	C	02/05/2022	14:04	-132.017	47.483	0	102.80	0	7.0680	0	32.3780	0	25.346	0	101.917	0	270.5	4	90.6	4	-1E+10	1	-1E+10	1	-1E+10	1	-1E+10	1	-1E+10	1	-1E+10	1
4902549	54	C	02/05/2022	14:04	-132.017	47.483	0	103.90	0	7.1310	0	32.3940	0	25.350	0	103.007	0	268.6	4	90.1	4	-1E+10	1	-1E+10	1	-1E+10	1	-1E+10	1	-1E+10	1	-1E+10	1
4902549	54	C	02/05/2022	14:04	-132.017	47.483	0	105.10	0	7.2010	0	32.4190	0	25.361	0	104.196	0	266.6	4	89.6	4	-1E+10	1	-1E+10	1	-1E+10	1	-1E+10	1	-1E+10	1	-1E+10	1
4902549	54	C	02/05/2022	14:04	-132.017	47.483	0	106.10	0	7.1860	0	32.4230	0	25.366	0	105.188	0	264.8	4	88.9	4	-1E+10	1	-1E+10	1	-1E+10	1	-1E+10	1	-1E+10	1	-1E+10	1
4902549	54	C	02/05/2022	14:04	-132.017	47.483	0	107.00	0	7.1230	0	32.4340	0	25.383	0	106.080	0	263.6	4	88.4	4	-1E+10	1	-1E+10	1	-1E+10	1	-1E+10	1	-1E+10	1	-1E+10	1
4902549	54	C	02/05/2022	14:04	-132.017	47.483	0	108.00	0	7.1200	0	32.4650	0	25.408	0	107.071	0	262.0	4	87.9	4	-1E+10	1	-1E+10	1	-1E+10	1	-1E+10	1	-1E+10	1	-1E+10	1
4902549	54	C	02/05/2022	14:04	-132.017	47.483	0	109.00	0	7.0580	0	32.4850	0	25.432	0	108.062	0	260.6	4	87.3	4	-1E+10	1	-1E+10	1	-1E+10	1	-1E+10	1	-1E+10	1	-1E+10	1
4902549	54	C	02/05/2022	14:04	-132.017	47.483	0	110.10	0	7.0390	0	32.5000	0	25.446	0	109.152	0	258.8	4	86.7	4	-1E+10	1	-1E+10	1	-1E+10	1	-1E+10	1	-1E+10	1	-1E+10	1
4902549	54	C	02/05/2022	14:04	-132.017	47.483	0	110.80	0	7.0220	0	32.5070	0	25.454	0	109.846	0	257.6	4	86.2	4	-1E+10	1	-1E+10	1	-1E+10	1	-1E+10	1	-1E+10	1	-1E+10	1
4902549	54	C	02/05/2022	14:04	-132.017	47.483	0	112.00	0	6.9990	0	32.5190	0	25.467	0	111.035	0	255.7	4	85.6	4	-1E+10	1	-1E+10	1	-1E+10	1	-1E+10	1	-1E+10	1	-1E+10	1
4902549	54	C	02/05/2022	14:04	-132.017	47.483	0	112.90	0	6.9890	0	32.5540	0	25.495	0	111.927	0	254.1	4	85.0	4	-1E+10	1	-1E+10	1	-1E+10	1	-1E+10	1	-1E+10	1	-1E+10	1
4902549	54	C	02/05/2022	14:04	-132.017	47.483	0	113.90	0	6.9570	0	32.5970	0	25.534	0	112.918	0	252.5	4	84.5	4	-1E+10	1	-1E+10	1	-1E+10	1	-1E+10	1	-1E+10	1	-1E+10	1
4902549	54	C	02/05/2022	14:04	-132.017	47.483	0	114.80	0	6.9450	0	32.6140	0	25.549	0	113.810	0	251.3	4	84.0	4	-1E+10	1	-1E+10	1	-1E+10	1	-1E+10	1	-1E+10	1	-1E+10	1
4902549	54	C	02/05/2022	14:04	-132.017	47.483	0	115.80	0	6.9390	0	32.6430	0	25.572	0	114.802	0	250.2	4	83.7	4	-1E+10	1	-1E+10	1	-1E+10	1	-1E+10	1	-1E+10	1	-1E+10	1
4902549	54	C	02/05/2022	14:04	-132.017	47.483	0	116.90	0	6.9450	0	32.6670	0	25.590	0	115.892	0	248.8	4	83.2	4	-1E+10	1	-1E+10	1	-1E+10	1	-1E+10	1	-1E+10	1	-1E+10	1
4902549	54	C	02/05/2022	14:04	-132.017	47.483	0	118.30	0	6.9860	0	32.6770	0	25.593	0	117.279	0	246.6	4	82.6	4	-1E+10	1	-1E+10	1	-1E+10	1	-1E+10	1	-1E+10	1	-1E+10	1
4902549	54	C	02/05/2022	14:04	-132.017	47.483	0	119.00	0	7.0080	0	32.6970	0	25.606	0	117.973	0	245.1	4	82.1	4	-1E+10	1	-1E+10	1	-1E+10	1	-1E+10	1	-1E+10	1	-1E+10	1
4902549	54	C	02/05/2022	14:04	-132.017	47.483	0	120.10	0	7.0620	0	32.7420	0	25.634	0	119.063	0	234.6	4	78.8	4	-1E+10	1	-1E+10	1	-1E+10	1	-1E+10	1	-1E+10	1	-1E+10	1
4902549	54	C	02/05/2022	14:04	-132.017	47.483	0	120.90	0	7.0560	0	32.7860	0	25.669	0	119.856	0	232.0	4	77.9	4	-1E+10	1	-1E+10	1	-1E+10	1	-1E+10	1	-1E+10	1	-1E+10	1
4902549	54	C	02/05/2022	14:04	-132.017	47.483	0	122.10	0	7.0450	0	32.9170	0	25.774	0	121.045	0	229.0	4	76.9	4	-1E+10	1	-1E+10	1	-1E+10	1	-1E+10	1	-1E+10	1	-1E+10	1
4902549	54	C	02/05/2022	14:04	-132.017	47.483	0	122.90	0	7.0510	0	32.9280	0	25.782	0	121.838	0	226.9	4	76.2	4	-1E+10	1	-1E+10	1	-1E+10	1	-1E+10	1	-1E+10	1	-1E+10	1
4902549	54	C	02/05/2022	14:04	-132.017	47.483	0	124.10	0	7.0670	0	32.9540	0	25.800	0	123.027	0	222.9	4	75.0	4	-1E+10	1	-1E+10	1	-1E+10	1	-1E+10	1	-1E+10	1	-1E+10	1
4902549	54	C	02/05/2022	14:04	-132.017	47.483	0	125.20	0	7.1020	0	32.9880	0	25.822	0	124.118	0	219.7	4	73.9	4	-1E+10	1	-1E+10	1	-1E+10	1	-1E+10	1	-1E+10	1	-1E+10	1
4902549	54	C	02/05/2022	14:04	-132.017	47.483	0	126.00	0	7.1060	0	33.0540	0	25.873	0	124.910	0	218.0	4	73.4	4	-1E+10	1	-1E+10	1	-1E+10	1	-1E+10	1	-1E+10	1	-1E+10	1
4902549	54	C	02/05/2022	14:04	-132.017	47.483	0	127.30	0	7.1200	0	33.0990	0	25.907	0	126.199	0	214.8	4	72.4	4	-1E+10	1	-1E+10	1	-1E+10	1	-1E+10	1	-1E+10	1	-1E+10	1
4902549	54	C	02/05/2022	14:04	-132.017	47.483	0	128.00	0	7.1200	0	33.1400	0	25.939	0	126.893	0	213.5	4	72.0	4	-1E+10	1	-1E+10	1	-1E+10	1	-1E+10	1	-1E+10	1	-1E+10	1
4902549	54	C	02/05/2022	14:04	-132.017	47.483	0	129.00	0	7.1210	0	33.1640	0	25.958	0	127.884	0	211.5	4	71.3	4	-1E+10	1	-1E+10	1	-1E+10	1	-1E+10	1	-1E+10	1	-1E+10	1
4902549	54	C	02/05/2022	14:04	-132.017	47.483	0	130.10	0	7.1260	0	33.1840	0	25.973	0	128.974	0	209.3	4	70.6	4	-1E+10	1	-1E+10	1	-1E+10	1	-1E+10	1	-1E+10	1	-1E+10	1
4902549	54	C	02/05/2022	14:04	-132.017	47.483	0	131.10	0	7.1520	0	33.2260	0	26.003	0	129.965	0	207.2	4	69.9	4	-1E+10	1	-1E+10	1	-1E+10	1	-1E+10	1	-1E+10	1	-1E+10	1
4902549	54	C	02/05/2022	14:04	-132.017	47.483	0	132.00	0	7.1820	0	33.2680	0	26.032	0	130.857	0	205.3	4	69.4	4	-1E+10	1	-1E+10	1	-1E+10	1	-1E+10	1	-1E+10	1	-1E+10	1
4902549	54	C	02/05/2022	14:04	-132.017	47.483	0	132.90	0	7.2030	0	33.3290	0	26.077	0	131.749	0	204.0	4	69.0	4	-1E+10	1	-1E+10	1	-1E+10	1	-1E+10	1	-1E+10	1	-1E+10	1
4902549	54	C	02/05/2022	14:04	-132.017	47.483	0	133.90	0	7.2220	0	33.3670	0	26.104	0	132.740	0	203.0	4	68.7	4	-1E+10	1	-1E+10	1	-1E+10	1	-1E+10	1	-1E+10	1	-1E+10	1
4902549	54	C	02/05/2022	14:04	-132.017	47.483	0	134.80	0	7.2320	0	33.3750	0	26.109	0	133.632	0	202.0	4	68.4	4	-1E+10	1	-1E+10	1	-1E+10	1	-1E+10	1	-1E+10	1	-1E+10	1
4902549	54	C	02/05/2022	14:04	-132.017	47.483	0	136.00	0	7.2450	0	33.3820	0	26.113	0	134.821	0	200.6	4	67.9	4	-1E+10	1	-1E+10	1	-1E+10	1	-1E+10	1	-1E+10	1	-1E+10	1
4902549	54	C	02/05/2022	14:04	-132.017	47.483	0	136.90	0	7.2500	0	33.3870	0	26.116	0	135.713	0	199.6	4	67.6	4	-1E+10	1	-1E+10	1	-1E+10	1	-1E+10	1	-1E+10	1	-1E+10	1
4902549	54	C	02/05/2022	14:04	-132.017	47.483	0	137.80	0	7.2520	0	33.3980	0	26.124	0	136.605	0	198.4	4	67.2	4	-1E+10	1	-1E+10	1	-1E+10	1	-1E+10	1	-1E+10	1	-1E+10	1
4902549	54	C	02/05/2022	14:04	-132.017	47.483	0	139.10	0	7.2440	0	33.4450	0	26.162	0	137.893	0	197.0	4	66.8	4	-1E+10	1	-1E+10	1	-1E+10	1	-1E+10	1	-1E+10	1	-1E+10	1
4902549	54	C	02/05/2022	14:04	-132.017	47.483	0	140.10	0	7.2420	0	33.4790	0	26.190	0	138.884	0	196.1	4	66.5	4	-1E+10	1	-1E+10	1	-1E+10	1	-1E+10	1	-1E+10	1	-1E+10	1
4902549	54	C	02/05/2022	14:04	-132.017	47.483	0	141.00	0	7.2390	0	33.5000	0	26.206	0	139.776	0	195.3	4	66.2	4	-1E+10	1	-1E+10	1	-1E+10	1	-1E+10	1	-1E+10	1	-1E+10	1
4902549	54	C	02/05/2022	14:04	-132.017	47.483	0	142.10	0	7.2360	0	33.5120	0	26.216	0	140.866	0	194.4	4	65.9	4	-1E+10	1	-1E+10	1	-1E+10	1	-1E+10	1	-1E+10	1	-1E+10	1
4902549	54	C	02/05/2022	14:04	-132.017	47.483	0	142.80	0	7.2340	0	33.5170	0	26.221	0	141.559	0	193.7	4	65.6	4	-1E+10	1	-1E+10	1	-1E+10	1	-1E+10	1	-1E+10	1	-1E+10	1
4902549	54	C	02/05/2022	14:04	-132.017	47.483	0	143.90	0	7.2310	0	33.5330	0	26.234	0	142.649	0	192.8	4	65.4	4	-1E+10	1	-1E+10	1	-1E+10	1	-1E+10	1	-1E+10	1	-1E+10	1
4902549	54	C	02/05/2022	14:04	-132.017	47.483	0	145.10	0	7.2280	0	33.5470	0	26.245	0	143.839	0	191.9	4	65.0	4	-1E+10	1	-1E+10	1	-1E+10	1	-1E+10	1	-1E+10	1	-1E+10	1
4902549	54	C	02/05/2022	14:04	-132.017	47.483	0	145.80	0	7.2280	0	33.5480	0	26.246	0	144.532	0	191.2	4	64.8	4	-1E+10	1	-1E+10	1	-1E+10	1	-1E+10	1	-1E+10	1	-1E+10	1
4902549	54	C	02/05/2022	14:04	-132.017	47.483	0	146.90	0	7.2190	0	33.5670	0	26.262	0	145.622	0	190.1	4	64.4	4	-1E+10	1	-1E+10	1	-1E+10	1	-1E+10	1	-1E+10	1	-1E+10	1
4902549	54	C	02/05/2022	14:04	-132.017	47.483	0	148.10	0	7.1950	0	33.6040	0	26.295	0	146.812	0	189.2	4	64.1	4	-1E+10	1	-1E+10	1	-1E+10	1	-1E+10	1	-1E+10	1	-1E+10	1
4902549	54	C	02/05/2022	14:04	-132.017	47.483	0	148.90	0	7.1810	0	33.6170	0	26.307	0	147.604	0	188.8	4	64.0	4	-1E+10	1	-1E+10	1	-1E+10	1	-1E+10	1	-1E+10	1	-1E+10	1
4902549	54	C	02/05/2022	14:04	-132.017	47.483	0	149.70	0	7.1640	0	33.6340	0	26.322	0	148.397	0	188.3	4	63.8	4	-1E+10	1	-1E+10	1	-1E+10	1	-1E+10	1	-1E+10	1	-1E+10	1
4902549	54	C	02/05/2022	14:04	-132.017	47.483	0	150.90	0	7.1600	0	33.6370	0	26.325	0	149.586	0	187.7	4	63.5	4	-1E+10	1	-1E+10	1	-1E+10	1	-1E+10	1	-1E+10	1	-1E+10	1
4902549	54	C	02/05/2022	14:04	-132.017	47.483	0	152.10	0	7.1500	0	33.6430	0	26.331	0	150.775	0	186.9	4	63.3	4	-1E+10	1	-1E+10	1	-1E+10	1	-1E+10	1	-1E+10	1	-1E+10	1
4902549	54	C	02/05/2022	14:04	-132.017	47.483	0	152.90	0	7.1370	0	33.6500	0	26.339	0	151.568	0	186.4	4	63.1	4	-1E+10	1	-1E+10	1	-1E+10	1	-1E+10	1	-1E+10	1	-1E+10	1
4902549	54	C	02/05/2022	14:04	-132.017	47.483	0	153.70	0	7.1170	0	33.6660	0	26.354	0	152.361	0	185.9	4	62.9	4	-1E+10	1	-1E+10	1	-1E+10	1	-1E+10	1	-1E+10	1	-1E+10	1
4902549	54	C	02/05/2022	14:04	-132.017	47.483	0	154.90	0	7.0960	0	33.6780	0	26.366	0	153.550	0	185.3	4	62.7	4	-1E+10	1	-1E+10	1	-1E+10	1	-1E+10	1	-1E+10	1	-1E+10	1
4902549	54	C	02/05/2022	14:04	-132.017	47.483	0	156.30	0	7.0790	0	33.6850	0	26.374	0	154.937	0	184.7	4	62.5	4	-1E+10	1	-1E+10	1	-1E+10	1	-1E+10	1	-1E+10	1	-1E+10	1
4902549	54	C	02/05/2022	14:04	-132.017	47.483	0	157.10	0	7.0730	0	33.6870	0	26.377	0	155.730	0	184.3	4	62.3	4	-1E+10	1	-1E+10	1	-1E+10	1	-1E+10	1	-1E+10	1	-1E+10	1
4902549	54	C	02/05/2022	14:04	-132.017	47.483	0	158.10	0	7.0410	0	33.6960	0	26.388	0	156.721	0	183.9	4	62.1	4	-1E+10	1	-1E+10	1	-1E+10	1	-1E+10	1	-1E+10	1	-1E+10	1
4902549	54	C	02/05/2022	14:04	-132.017	47.483	0	159.00	0	7.0200	0	33.6990	0	26.393	0	157.613	0	183.6	4	62.0	4	-1E+10	1	-1E+10	1	-1E+10	1	-1E+10	1	-1E+10	1	-1E+10	1
4902549	54	C	02/05/2022	14:04	-132.017	47.483	0	159.90	0	6.9950	0	33.6970	0	26.395	0	158.504	0	183.4	4	61.9	4	-1E+10	1	-1E+10	1	-1E+10	1	-1E+10	1	-1E+10	1	-1E+10	1
4902549	54	C	02/05/2022	14:04	-132.017	47.483	0	160.80	0	7.0040	0	33.7020	0	26.398	0	159.396	0	183.0	4	61.8	4	-1E+10	1	-1E+10	1	-1E+10	1	-1E+10	1	-1E+10	1	-1E+10	1
4902549	54	C	02/05/2022	14:04	-132.017	47.483	0	161.80	0	7.0200	0	33.7070	0	26.400	0	160.387	0	182.6	4	61.7	4	-1E+10	1	-1E+10	1	-1E+10	1	-1E+10	1	-1E+10	1	-1E+10	1
4902549	54	C	02/05/2022	14:04	-132.017	47.483	0	162.70	0	7.0220	0	33.7120	0	26.403	0	161.279	0	182.1	4	61.5	4	-1E+10	1	-1E+10	1	-1E+10	1	-1E+10	1	-1E+10	1	-1E+10	1
4902549	54	C	02/05/2022	14:04	-132.017	47.483	0	163.70	0	7.0340	0	33.7180	0	26.407	0	162.270	0	181.7	4	61.4	4	-1E+10	1	-1E+10	1	-1E+10	1	-1E+10	1	-1E+10	1	-1E+10	1
4902549	54	C	02/05/2022	14:04	-132.017	47.483	0	164.70	0	7.0260	0	33.7230	0	26.412	0	163.261	0	181.3	4	61.3	4	-1E+10	1	-1E+10	1	-1E+10	1	-1E+10	1	-1E+10	1	-1E+10	1
4902549	54	C	02/05/2022	14:04	-132.017	47.483	0	165.70	0	7.0270	0	33.7250	0	26.413	0	164.251	0	180.9	4	61.1	4	-1E+10	1	-1E+10	1	-1E+10	1	-1E+10	1	-1E+10	1	-1E+10	1
4902549	54	C	02/05/2022	14:04	-132.017	47.483	0	166.60	0	7.0280	0	33.7260	0	26.414	0	165.143	0	180.4	4	60.9	4	-1E+10	1	-1E+10	1	-1E+10	1	-1E+10	1	-1E+10	1	-1E+10	1
4902549	54	C	02/05/2022	14:04	-132.017	47.483	0	167.60	0	7.0270	0	33.7260	0	26.414	0	166.134	0	179.8	4	60.8	4	-1E+10	1	-1E+10	1	-1E+10	1	-1E+10	1	-1E+10	1	-1E+10	1
4902549	54	C	02/05/2022	14:04	-132.017	47.483	0	168.60	0	7.0240	0	33.7260	0	26.414	0	167.125	0	179.3	4	60.6	4	-1E+10	1	-1E+10	1	-1E+10	1	-1E+10	1	-1E+10	1	-1E+10	1
4902549	54	C	02/05/2022	14:04	-132.017	47.483	0	169.60	0	6.9790	0	33.7390	0	26.431	0	168.116	0	178.9	4	60.4	4	-1E+10	1	-1E+10	1	-1E+10	1	-1E+10	1	-1E+10	1	-1E+10	1
4902549	54	C	02/05/2022	14:04	-132.017	47.483	0	170.70	0	6.9600	0	33.7400	0	26.434	0	169.206	0	178.5	4	60.2	4	-1E+10	1	-1E+10	1	-1E+10	1	-1E+10	1	-1E+10	1	-1E+10	1
4902549	54	C	02/05/2022	14:04	-132.017	47.483	0	171.70	0	6.9390	0	33.7420	0	26.438	0	170.196	0	178.1	4	60.0	4	-1E+10	1	-1E+10	1	-1E+10	1	-1E+10	1	-1E+10	1	-1E+10	1
4902549	54	C	02/05/2022	14:04	-132.017	47.483	0	172.80	0	6.9150	0	33.7440	0	26.443	0	171.286	0	177.6	4	59.9	4	-1E+10	1	-1E+10	1	-1E+10	1	-1E+10	1	-1E+10	1	-1E+10	1
4902549	54	C	02/05/2022	14:04	-132.017	47.483	0	173.80	0	6.9100	0	33.7440	0	26.444	0	172.277	0	177.2	4	59.7	4	-1E+10	1	-1E+10	1	-1E+10	1	-1E+10	1	-1E+10	1	-1E+10	1
4902549	54	C	02/05/2022	14:04	-132.017	47.483	0	174.80	0	6.9060	0	33.7460	0	26.446	0	173.268	0	176.6	4	59.5	4	-1E+10	1	-1E+10	1	-1E+10	1	-1E+10	1	-1E+10	1	-1E+10	1
4902549	54	C	02/05/2022	14:04	-132.017	47.483	0	175.90	0	6.9000	0	33.7480	0	26.449	0	174.358	0	176.1	4	59.3	4	-1E+10	1	-1E+10	1	-1E+10	1	-1E+10	1	-1E+10	1	-1E+10	1
4902549	54	C	02/05/2022	14:04	-132.017	47.483	0	176.90	0	6.8950	0	33.7500	0	26.451	0	175.349	0	175.5	4	59.1	4	-1E+10	1	-1E+10	1	-1E+10	1	-1E+10	1	-1E+10	1	-1E+10	1
4902549	54	C	02/05/2022	14:04	-132.017	47.483	0	177.90	0	6.8940	0	33.7510	0	26.452	0	176.340	0	174.8	4	58.9	4	-1E+10	1	-1E+10	1	-1E+10	1	-1E+10	1	-1E+10	1	-1E+10	1
4902549	54	C	02/05/2022	14:04	-132.017	47.483	0	179.00	0	6.8870	0	33.7560	0	26.457	0	177.429	0	174.2	4	58.7	4	-1E+10	1	-1E+10	1	-1E+10	1	-1E+10	1	-1E+10	1	-1E+10	1
4902549	54	C	02/05/2022	14:04	-132.017	47.483	0	180.00	0	6.8720	0	33.7600	0	26.462	0	178.420	0	173.7	4	58.5	4	-1E+10	1	-1E+10	1	-1E+10	1	-1E+10	1	-1E+10	1	-1E+10	1
4902549	54	C	02/05/2022	14:04	-132.017	47.483	0	181.10	0	6.8660	0	33.7580	0	26.461	0	179.510	0	173.1	4	58.3	4	-1E+10	1	-1E+10	1	-1E+10	1	-1E+10	1	-1E+10	1	-1E+10	1
4902549	54	C	02/05/2022	14:04	-132.017	47.483	0	182.20	0	6.8510	0	33.7680	0	26.471	0	180.600	0	172.5	4	58.1	4	-1E+10	1	-1E+10	1	-1E+10	1	-1E+10	1	-1E+10	1	-1E+10	1
4902549	54	C	02/05/2022	14:04	-132.017	47.483	0	183.30	0	6.8050	0	33.7690	0	26.478	0	181.690	0	172.2	4	57.9	4	-1E+10	1	-1E+10	1	-1E+10	1	-1E+10	1	-1E+10	1	-1E+10	1
4902549	54	C	02/05/2022	14:04	-132.017	47.483	0	184.40	0	6.7790	0	33.7650	0	26.478	0	182.780	0	171.7	4	57.7	4	-1E+10	1	-1E+10	1	-1E+10	1	-1E+10	1	-1E+10	1	-1E+10	1
4902549	54	C	02/05/2022	14:04	-132.017	47.483	0	185.50	0	6.7710	0	33.7650	0	26.479	0	183.869	0	171.2	4	57.5	4	-1E+10	1	-1E+10	1	-1E+10	1	-1E+10	1	-1E+10	1	-1E+10	1
4902549	54	C	02/05/2022	14:04	-132.017	47.483	0	186.60	0	6.7570	0	33.7670	0	26.483	0	184.959	0	170.7	4	57.3	4	-1E+10	1	-1E+10	1	-1E+10	1	-1E+10	1	-1E+10	1	-1E+10	1
4902549	54	C	02/05/2022	14:04	-132.017	47.483	0	187.70	0	6.7370	0	33.7710	0	26.489	0	186.049	0	170.3	4	57.2	4	-1E+10	1	-1E+10	1	-1E+10	1	-1E+10	1	-1E+10	1	-1E+10	1
4902549	54	C	02/05/2022	14:04	-132.017	47.483	0	188.80	0	6.7380	0	33.7730	0	26.490	0	187.139	0	169.8	4	57.0	4	-1E+10	1	-1E+10	1	-1E+10	1	-1E+10	1	-1E+10	1	-1E+10	1
4902549	54	C	02/05/2022	14:04	-132.017	47.483	0	189.90	0	6.7410	0	33.7750	0	26.491	0	188.229	0	169.4	4	56.9	4	-1E+10	1	-1E+10	1	-1E+10	1	-1E+10	1	-1E+10	1	-1E+10	1
4902549	54	C	02/05/2022	14:04	-132.017	47.483	0	191.00	0	6.7380	0	33.7770	0	26.493	0	189.319	0	169.0	4	56.7	4	-1E+10	1	-1E+10	1	-1E+10	1	-1E+10	1	-1E+10	1	-1E+10	1
4902549	54	C	02/05/2022	14:04	-132.017	47.483	0	192.00	0	6.7280	0	33.7780	0	26.495	0	190.309	0	168.5	4	56.6	4	-1E+10	1	-1E+10	1	-1E+10	1	-1E+10	1	-1E+10	1	-1E+10	1
4902549	54	C	02/05/2022	14:04	-132.017	47.483	0	193.10	0	6.7220	0	33.7770	0	26.495	0	191.399	0	168.1	4	56.4	4	-1E+10	1	-1E+10	1	-1E+10	1	-1E+10	1	-1E+10	1	-1E+10	1
4902549	54	C	02/05/2022	14:04	-132.017	47.483	0	194.20	0	6.7210	0	33.7770	0	26.496	0	192.489	0	167.5	4	56.2	4	-1E+10	1	-1E+10	1	-1E+10	1	-1E+10	1	-1E+10	1	-1E+10	1
4902549	54	C	02/05/2022	14:04	-132.017	47.483	0	195.20	0	6.6900	0	33.7900	0	26.510	0	193.480	0	167.0	4	56.0	4	-1E+10	1	-1E+10	1	-1E+10	1	-1E+10	1	-1E+10	1	-1E+10	1
4902549	54	C	02/05/2022	14:04	-132.017	47.483	0	196.30	0	6.6810	0	33.7790	0	26.502	0	194.569	0	166.6	4	55.9	4	-1E+10	1	-1E+10	1	-1E+10	1	-1E+10	1	-1E+10	1	-1E+10	1
4902549	54	C	02/05/2022	14:04	-132.017	47.483	0	197.40	0	6.6720	0	33.7790	0	26.504	0	195.659	0	166.0	4	55.7	4	-1E+10	1	-1E+10	1	-1E+10	1	-1E+10	1	-1E+10	1	-1E+10	1
4902549	54	C	02/05/2022	14:04	-132.017	47.483	0	198.50	0	6.6700	0	33.7780	0	26.503	0	196.749	0	165.4	4	55.4	4	-1E+10	1	-1E+10	1	-1E+10	1	-1E+10	1	-1E+10	1	-1E+10	1
4902549	54	C	02/05/2022	14:04	-132.017	47.483	0	199.50	0	6.6640	0	33.7790	0	26.505	0	197.740	0	164.7	4	55.2	4	-1E+10	1	-1E+10	1	-1E+10	1	-1E+10	1	-1E+10	1	-1E+10	1
4902549	54	C	02/05/2022	14:04	-132.017	47.483	0	200.60	0	6.6550	0	33.7830	0	26.509	0	198.830	0	164.1	4	55.0	4	-1E+10	1	-1E+10	1	-1E+10	1	-1E+10	1	-1E+10	1	-1E+10	1
4902549	54	C	02/05/2022	14:04	-132.017	47.483	0	201.60	0	6.6440	0	33.7850	0	26.512	0	199.820	0	163.7	4	54.8	4	-1E+10	1	-1E+10	1	-1E+10	1	-1E+10	1	-1E+10	1	-1E+10	1
4902549	54	C	02/05/2022	14:04	-132.017	47.483	0	202.60	0	6.6440	0	33.7850	0	26.512	0	200.811	0	163.0	4	54.6	4	-1E+10	1	-1E+10	1	-1E+10	1	-1E+10	1	-1E+10	1	-1E+10	1
4902549	54	C	02/05/2022	14:04	-132.017	47.483	0	203.60	0	6.6450	0	33.7850	0	26.512	0	201.802	0	162.4	4	54.4	4	-1E+10	1	-1E+10	1	-1E+10	1	-1E+10	1	-1E+10	1	-1E+10	1
4902549	54	C	02/05/2022	14:04	-132.017	47.483	0	204.70	0	6.6440	0	33.7840	0	26.511	0	202.891	0	161.7	4	54.2	4	-1E+10	1	-1E+10	1	-1E+10	1	-1E+10	1	-1E+10	1	-1E+10	1
4902549	54	C	02/05/2022	14:04	-132.017	47.483	0	205.70	0	6.6040	0	33.7920	0	26.523	0	203.882	0	161.0	4	53.9	4	-1E+10	1	-1E+10	1	-1E+10	1	-1E+10	1	-1E+10	1	-1E+10	1
4902549	54	C	02/05/2022	14:04	-132.017	47.483	0	206.70	0	6.5840	0	33.7860	0	26.521	0	204.873	0	160.6	4	53.7	4	-1E+10	1	-1E+10	1	-1E+10	1	-1E+10	1	-1E+10	1	-1E+10	1
4902549	54	C	02/05/2022	14:04	-132.017	47.483	0	207.70	0	6.5630	0	33.7860	0	26.524	0	205.863	0	160.0	4	53.5	4	-1E+10	1	-1E+10	1	-1E+10	1	-1E+10	1	-1E+10	1	-1E+10	1
4902549	54	C	02/05/2022	14:04	-132.017	47.483	0	208.70	0	6.5510	0	33.7860	0	26.525	0	206.854	0	159.4	4	53.3	4	-1E+10	1	-1E+10	1	-1E+10	1	-1E+10	1	-1E+10	1	-1E+10	1
4902549	54	C	02/05/2022	14:04	-132.017	47.483	0	209.60	0	6.5410	0	33.7860	0	26.527	0	207.746	0	158.8	4	53.1	4	-1E+10	1	-1E+10	1	-1E+10	1	-1E+10	1	-1E+10	1	-1E+10	1
4902549	54	C	02/05/2022	14:04	-132.017	47.483	0	210.60	0	6.5390	0	33.7870	0	26.528	0	208.736	0	158.1	4	52.8	4	-1E+10	1	-1E+10	1	-1E+10	1	-1E+10	1	-1E+10	1	-1E+10	1
4902549	54	C	02/05/2022	14:04	-132.017	47.483	0	211.60	0	6.5350	0	33.7870	0	26.528	0	209.727	0	157.4	4	52.6	4	-1E+10	1	-1E+10	1	-1E+10	1	-1E+10	1	-1E+10	1	-1E+10	1
4902549	54	C	02/05/2022	14:04	-132.017	47.483	0	212.60	0	6.4970	0	33.7930	0	26.538	0	210.717	0	156.9	4	52.4	4	-1E+10	1	-1E+10	1	-1E+10	1	-1E+10	1	-1E+10	1	-1E+10	1
4902549	54	C	02/05/2022	14:04	-132.017	47.483	0	213.50	0	6.4870	0	33.7930	0	26.539	0	211.609	0	156.2	4	52.1	4	-1E+10	1	-1E+10	1	-1E+10	1	-1E+10	1	-1E+10	1	-1E+10	1
4902549	54	C	02/05/2022	14:04	-132.017	47.483	0	214.50	0	6.4870	0	33.7920	0	26.538	0	212.600	0	155.6	4	51.9	4	-1E+10	1	-1E+10	1	-1E+10	1	-1E+10	1	-1E+10	1	-1E+10	1
4902549	54	C	02/05/2022	14:04	-132.017	47.483	0	215.90	0	6.4660	0	33.7940	0	26.543	0	213.987	0	154.5	4	51.5	4	-1E+10	1	-1E+10	1	-1E+10	1	-1E+10	1	-1E+10	1	-1E+10	1
4902549	54	C	02/05/2022	14:04	-132.017	47.483	0	217.40	0	6.4640	0	33.7980	0	26.546	0	215.472	0	153.3	4	51.2	4	-1E+10	1	-1E+10	1	-1E+10	1	-1E+10	1	-1E+10	1	-1E+10	1
4902549	54	C	02/05/2022	14:04	-132.017	47.483	0	218.40	0	6.4330	0	33.7990	0	26.551	0	216.463	0	152.8	4	50.9	4	-1E+10	1	-1E+10	1	-1E+10	1	-1E+10	1	-1E+10	1	-1E+10	1
4902549	54	C	02/05/2022	14:04	-132.017	47.483	0	219.30	0	6.4090	0	33.7960	0	26.552	0	217.355	0	152.2	4	50.7	4	-1E+10	1	-1E+10	1	-1E+10	1	-1E+10	1	-1E+10	1	-1E+10	1
4902549	54	C	02/05/2022	14:04	-132.017	47.483	0	220.30	0	6.3390	0	33.7990	0	26.563	0	218.345	0	151.7	4	50.5	4	-1E+10	1	-1E+10	1	-1E+10	1	-1E+10	1	-1E+10	1	-1E+10	1
4902549	54	C	02/05/2022	14:04	-132.017	47.483	0	221.20	0	6.3240	0	33.7940	0	26.561	0	219.237	0	151.3	4	50.3	4	-1E+10	1	-1E+10	1	-1E+10	1	-1E+10	1	-1E+10	1	-1E+10	1
4902549	54	C	02/05/2022	14:04	-132.017	47.483	0	222.20	0	6.3200	0	33.7940	0	26.562	0	220.227	0	150.6	4	50.1	4	-1E+10	1	-1E+10	1	-1E+10	1	-1E+10	1	-1E+10	1	-1E+10	1
4902549	54	C	02/05/2022	14:04	-132.017	47.483	0	223.10	0	6.3340	0	33.7970	0	26.562	0	221.119	0	149.9	4	49.9	4	-1E+10	1	-1E+10	1	-1E+10	1	-1E+10	1	-1E+10	1	-1E+10	1
4902549	54	C	02/05/2022	14:04	-132.017	47.483	0	224.00	0	6.3340	0	33.7950	0	26.561	0	222.010	0	149.2	4	49.6	4	-1E+10	1	-1E+10	1	-1E+10	1	-1E+10	1	-1E+10	1	-1E+10	1
4902549	54	C	02/05/2022	14:04	-132.017	47.483	0	225.00	0	6.2780	0	33.7980	0	26.570	0	223.001	0	148.5	4	49.3	4	-1E+10	1	-1E+10	1	-1E+10	1	-1E+10	1	-1E+10	1	-1E+10	1
4902549	54	C	02/05/2022	14:04	-132.017	47.483	0	225.90	0	6.2150	0	33.7880	0	26.570	0	223.893	0	148.0	4	49.1	4	-1E+10	1	-1E+10	1	-1E+10	1	-1E+10	1	-1E+10	1	-1E+10	1
4902549	54	C	02/05/2022	14:04	-132.017	47.483	0	226.80	0	6.2130	0	33.7870	0	26.570	0	224.784	0	147.0	4	48.8	4	-1E+10	1	-1E+10	1	-1E+10	1	-1E+10	1	-1E+10	1	-1E+10	1
4902549	54	C	02/05/2022	14:04	-132.017	47.483	0	227.70	0	6.1880	0	33.7880	0	26.574	0	225.676	0	146.2	4	48.5	4	-1E+10	1	-1E+10	1	-1E+10	1	-1E+10	1	-1E+10	1	-1E+10	1
4902549	54	C	02/05/2022	14:04	-132.017	47.483	0	228.70	0	6.1450	0	33.7880	0	26.579	0	226.666	0	145.3	4	48.1	4	-1E+10	1	-1E+10	1	-1E+10	1	-1E+10	1	-1E+10	1	-1E+10	1
4902549	54	C	02/05/2022	14:04	-132.017	47.483	0	229.60	0	6.1310	0	33.7870	0	26.580	0	227.558	0	144.4	4	47.8	4	-1E+10	1	-1E+10	1	-1E+10	1	-1E+10	1	-1E+10	1	-1E+10	1
4902549	54	C	02/05/2022	14:04	-132.017	47.483	0	230.90	0	6.0990	0	33.7890	0	26.586	0	228.845	0	143.1	4	47.4	4	-1E+10	1	-1E+10	1	-1E+10	1	-1E+10	1	-1E+10	1	-1E+10	1
4902549	54	C	02/05/2022	14:04	-132.017	47.483	0	232.30	0	6.0680	0	33.7910	0	26.591	0	230.232	0	142.0	4	46.9	4	-1E+10	1	-1E+10	1	-1E+10	1	-1E+10	1	-1E+10	1	-1E+10	1
4902549	54	C	02/05/2022	14:04	-132.017	47.483	0	233.20	0	6.0610	0	33.7900	0	26.592	0	231.124	0	141.0	4	46.6	4	-1E+10	1	-1E+10	1	-1E+10	1	-1E+10	1	-1E+10	1	-1E+10	1
4902549	54	C	02/05/2022	14:04	-132.017	47.483	0	234.10	0	6.0500	0	33.7910	0	26.594	0	232.015	0	140.0	4	46.3	4	-1E+10	1	-1E+10	1	-1E+10	1	-1E+10	1	-1E+10	1	-1E+10	1
4902549	54	C	02/05/2022	14:04	-132.017	47.483	0	235.10	0	6.0480	0	33.7890	0	26.592	0	233.006	0	139.1	4	46.0	4	-1E+10	1	-1E+10	1	-1E+10	1	-1E+10	1	-1E+10	1	-1E+10	1
4902549	54	C	02/05/2022	14:04	-132.017	47.483	0	236.00	0	6.0860	0	33.7980	0	26.595	0	233.897	0	138.0	4	45.7	4	-1E+10	1	-1E+10	1	-1E+10	1	-1E+10	1	-1E+10	1	-1E+10	1
4902549	54	C	02/05/2022	14:04	-132.017	47.483	0	236.90	0	6.0060	0	33.8040	0	26.610	0	234.789	0	137.3	4	45.3	4	-1E+10	1	-1E+10	1	-1E+10	1	-1E+10	1	-1E+10	1	-1E+10	1
4902549	54	C	02/05/2022	14:04	-132.017	47.483	0	237.90	0	5.9810	0	33.8070	0	26.615	0	235.779	0	136.9	4	45.2	4	-1E+10	1	-1E+10	1	-1E+10	1	-1E+10	1	-1E+10	1	-1E+10	1
4902549	54	C	02/05/2022	14:04	-132.017	47.483	0	238.90	0	5.9700	0	33.8050	0	26.615	0	236.770	0	136.3	4	45.0	4	-1E+10	1	-1E+10	1	-1E+10	1	-1E+10	1	-1E+10	1	-1E+10	1
4902549	54	C	02/05/2022	14:04	-132.017	47.483	0	239.80	0	5.9730	0	33.8060	0	26.615	0	237.661	0	135.7	4	44.8	4	-1E+10	1	-1E+10	1	-1E+10	1	-1E+10	1	-1E+10	1	-1E+10	1
4902549	54	C	02/05/2022	14:04	-132.017	47.483	0	240.70	0	5.9720	0	33.8060	0	26.615	0	238.552	0	135.0	4	44.6	4	-1E+10	1	-1E+10	1	-1E+10	1	-1E+10	1	-1E+10	1	-1E+10	1
4902549	54	C	02/05/2022	14:04	-132.017	47.483	0	241.70	0	5.9670	0	33.8060	0	26.616	0	239.543	0	134.3	4	44.3	4	-1E+10	1	-1E+10	1	-1E+10	1	-1E+10	1	-1E+10	1	-1E+10	1
4902549	54	C	02/05/2022	14:04	-132.017	47.483	0	242.60	0	5.9430	0	33.8070	0	26.620	0	240.434	0	133.6	4	44.0	4	-1E+10	1	-1E+10	1	-1E+10	1	-1E+10	1	-1E+10	1	-1E+10	1
4902549	54	C	02/05/2022	14:04	-132.017	47.483	0	243.50	0	5.9250	0	33.8060	0	26.621	0	241.326	0	133.0	4	43.8	4	-1E+10	1	-1E+10	1	-1E+10	1	-1E+10	1	-1E+10	1	-1E+10	1
4902549	54	C	02/05/2022	14:04	-132.017	47.483	0	244.90	0	5.8960	0	33.8080	0	26.626	0	242.713	0	131.9	4	43.4	4	-1E+10	1	-1E+10	1	-1E+10	1	-1E+10	1	-1E+10	1	-1E+10	1
4902549	54	C	02/05/2022	14:04	-132.017	47.483	0	246.30	0	5.9000	0	33.8130	0	26.630	0	244.099	0	130.7	4	43.1	4	-1E+10	1	-1E+10	1	-1E+10	1	-1E+10	1	-1E+10	1	-1E+10	1
4902549	54	C	02/05/2022	14:04	-132.017	47.483	0	247.20	0	5.8490	0	33.8130	0	26.636	0	244.991	0	130.4	4	42.9	4	-1E+10	1	-1E+10	1	-1E+10	1	-1E+10	1	-1E+10	1	-1E+10	1
4902549	54	C	02/05/2022	14:04	-132.017	47.483	0	248.10	0	5.8460	0	33.8140	0	26.637	0	245.882	0	129.8	4	42.7	4	-1E+10	1	-1E+10	1	-1E+10	1	-1E+10	1	-1E+10	1	-1E+10	1
4902549	54	C	02/05/2022	14:04	-132.017	47.483	0	249.00	0	5.8410	0	33.8180	0	26.641	0	246.773	0	129.3	4	42.5	4	-1E+10	1	-1E+10	1	-1E+10	1	-1E+10	1	-1E+10	1	-1E+10	1
4902549	54	C	02/05/2022	14:04	-132.017	47.483	0	249.90	0	5.8340	0	33.8210	0	26.644	0	247.665	0	128.9	4	42.4	4	-1E+10	1	-1E+10	1	-1E+10	1	-1E+10	1	-1E+10	1	-1E+10	1
4902549	54	C	02/05/2022	14:04	-132.017	47.483	0	250.80	0	5.8210	0	33.8230	0	26.648	0	248.556	0	128.6	4	42.3	4	-1E+10	1	-1E+10	1	-1E+10	1	-1E+10	1	-1E+10	1	-1E+10	1
4902549	54	C	02/05/2022	14:04	-132.017	47.483	0	251.70	0	5.8180	0	33.8210	0	26.646	0	249.448	0	128.2	4	42.1	4	-1E+10	1	-1E+10	1	-1E+10	1	-1E+10	1	-1E+10	1	-1E+10	1
4902549	54	C	02/05/2022	14:04	-132.017	47.483	0	253.00	0	5.8080	0	33.8200	0	26.647	0	250.735	0	127.4	4	41.9	4	-1E+10	1	-1E+10	1	-1E+10	1	-1E+10	1	-1E+10	1	-1E+10	1
4902549	54	C	02/05/2022	14:04	-132.017	47.483	0	254.30	0	5.7960	0	33.8200	0	26.648	0	252.023	0	126.7	4	41.6	4	-1E+10	1	-1E+10	1	-1E+10	1	-1E+10	1	-1E+10	1	-1E+10	1
4902549	54	C	02/05/2022	14:04	-132.017	47.483	0	255.20	0	5.7900	0	33.8190	0	26.648	0	252.914	0	126.1	4	41.4	4	-1E+10	1	-1E+10	1	-1E+10	1	-1E+10	1	-1E+10	1	-1E+10	1
4902549	54	C	02/05/2022	14:04	-132.017	47.483	0	256.10	0	5.7790	0	33.8200	0	26.650	0	253.806	0	125.5	4	41.2	4	-1E+10	1	-1E+10	1	-1E+10	1	-1E+10	1	-1E+10	1	-1E+10	1
4902549	54	C	02/05/2022	14:04	-132.017	47.483	0	257.00	0	5.7450	0	33.8230	0	26.657	0	254.697	0	125.0	4	41.0	4	-1E+10	1	-1E+10	1	-1E+10	1	-1E+10	1	-1E+10	1	-1E+10	1
4902549	54	C	02/05/2022	14:04	-132.017	47.483	0	257.90	0	5.7370	0	33.8230	0	26.658	0	255.588	0	124.6	4	40.9	4	-1E+10	1	-1E+10	1	-1E+10	1	-1E+10	1	-1E+10	1	-1E+10	1
4902549	54	C	02/05/2022	14:04	-132.017	47.483	0	258.80	0	5.7280	0	33.8240	0	26.660	0	256.480	0	124.1	4	40.7	4	-1E+10	1	-1E+10	1	-1E+10	1	-1E+10	1	-1E+10	1	-1E+10	1
4902549	54	C	02/05/2022	14:04	-132.017	47.483	0	259.80	0	5.7050	0	33.8240	0	26.663	0	257.470	0	123.7	4	40.6	4	-1E+10	1	-1E+10	1	-1E+10	1	-1E+10	1	-1E+10	1	-1E+10	1
4902549	54	C	02/05/2022	14:04	-132.017	47.483	0	260.70	0	5.6880	0	33.8240	0	26.665	0	258.362	0	123.2	4	40.4	4	-1E+10	1	-1E+10	1	-1E+10	1	-1E+10	1	-1E+10	1	-1E+10	1
4902549	54	C	02/05/2022	14:04	-132.017	47.483	0	261.70	0	5.6780	0	33.8220	0	26.664	0	259.352	0	122.8	4	40.2	4	-1E+10	1	-1E+10	1	-1E+10	1	-1E+10	1	-1E+10	1	-1E+10	1
4902549	54	C	02/05/2022	14:04	-132.017	47.483	0	262.60	0	5.6690	0	33.8220	0	26.665	0	260.243	0	122.2	4	40.1	4	-1E+10	1	-1E+10	1	-1E+10	1	-1E+10	1	-1E+10	1	-1E+10	1
4902549	54	C	02/05/2022	14:04	-132.017	47.483	0	263.50	0	5.6560	0	33.8230	0	26.668	0	261.135	0	121.6	4	39.8	4	-1E+10	1	-1E+10	1	-1E+10	1	-1E+10	1	-1E+10	1	-1E+10	1
4902549	54	C	02/05/2022	14:04	-132.017	47.483	0	264.90	0	5.6170	0	33.8140	0	26.665	0	262.521	0	120.9	4	39.5	4	-1E+10	1	-1E+10	1	-1E+10	1	-1E+10	1	-1E+10	1	-1E+10	1
4902549	54	C	02/05/2022	14:04	-132.017	47.483	0	266.30	0	5.6310	0	33.8260	0	26.673	0	263.908	0	119.9	4	39.3	4	-1E+10	1	-1E+10	1	-1E+10	1	-1E+10	1	-1E+10	1	-1E+10	1
4902549	54	C	02/05/2022	14:04	-132.017	47.483	0	267.20	0	5.6190	0	33.8230	0	26.672	0	264.799	0	119.4	4	39.1	4	-1E+10	1	-1E+10	1	-1E+10	1	-1E+10	1	-1E+10	1	-1E+10	1
4902549	54	C	02/05/2022	14:04	-132.017	47.483	0	268.20	0	5.6230	0	33.8260	0	26.674	0	265.789	0	118.6	4	38.8	4	-1E+10	1	-1E+10	1	-1E+10	1	-1E+10	1	-1E+10	1	-1E+10	1
4902549	54	C	02/05/2022	14:04	-132.017	47.483	0	269.10	0	5.6060	0	33.8250	0	26.675	0	266.681	0	118.0	4	38.6	4	-1E+10	1	-1E+10	1	-1E+10	1	-1E+10	1	-1E+10	1	-1E+10	1
4902549	54	C	02/05/2022	14:04	-132.017	47.483	0	270.10	0	5.6120	0	33.8280	0	26.677	0	267.671	0	117.2	4	38.4	4	-1E+10	1	-1E+10	1	-1E+10	1	-1E+10	1	-1E+10	1	-1E+10	1
4902549	54	C	02/05/2022	14:04	-132.017	47.483	0	271.00	0	5.5900	0	33.8270	0	26.679	0	268.562	0	116.7	4	38.2	4	-1E+10	1	-1E+10	1	-1E+10	1	-1E+10	1	-1E+10	1	-1E+10	1
4902549	54	C	02/05/2022	14:04	-132.017	47.483	0	271.90	0	5.5470	0	33.8250	0	26.683	0	269.454	0	116.2	4	37.9	4	-1E+10	1	-1E+10	1	-1E+10	1	-1E+10	1	-1E+10	1	-1E+10	1
4902549	54	C	02/05/2022	14:04	-132.017	47.483	0	272.90	0	5.5270	0	33.8290	0	26.688	0	270.444	0	115.6	4	37.8	4	-1E+10	1	-1E+10	1	-1E+10	1	-1E+10	1	-1E+10	1	-1E+10	1
4902549	54	C	02/05/2022	14:04	-132.017	47.483	0	273.80	0	5.4820	0	33.8290	0	26.693	0	271.335	0	115.2	4	37.6	4	-1E+10	1	-1E+10	1	-1E+10	1	-1E+10	1	-1E+10	1	-1E+10	1
4902549	54	C	02/05/2022	14:04	-132.017	47.483	0	274.80	0	5.4580	0	33.8240	0	26.692	0	272.326	0	114.8	4	37.4	4	-1E+10	1	-1E+10	1	-1E+10	1	-1E+10	1	-1E+10	1	-1E+10	1
4902549	54	C	02/05/2022	14:04	-132.017	47.483	0	275.80	0	5.4460	0	33.8270	0	26.696	0	273.316	0	114.4	4	37.3	4	-1E+10	1	-1E+10	1	-1E+10	1	-1E+10	1	-1E+10	1	-1E+10	1
4902549	54	C	02/05/2022	14:04	-132.017	47.483	0	276.70	0	5.4350	0	33.8280	0	26.698	0	274.207	0	113.9	4	37.1	4	-1E+10	1	-1E+10	1	-1E+10	1	-1E+10	1	-1E+10	1	-1E+10	1
4902549	54	C	02/05/2022	14:04	-132.017	47.483	0	277.70	0	5.4330	0	33.8280	0	26.699	0	275.198	0	113.5	4	37.0	4	-1E+10	1	-1E+10	1	-1E+10	1	-1E+10	1	-1E+10	1	-1E+10	1
4902549	54	C	02/05/2022	14:04	-132.017	47.483	0	278.70	0	5.4320	0	33.8270	0	26.698	0	276.188	0	112.9	4	36.8	4	-1E+10	1	-1E+10	1	-1E+10	1	-1E+10	1	-1E+10	1	-1E+10	1
4902549	54	C	02/05/2022	14:04	-132.017	47.483	0	279.60	0	5.4270	0	33.8270	0	26.698	0	277.079	0	112.4	4	36.6	4	-1E+10	1	-1E+10	1	-1E+10	1	-1E+10	1	-1E+10	1	-1E+10	1
4902549	54	C	02/05/2022	14:04	-132.017	47.483	0	281.00	0	5.4010	0	33.8330	0	26.706	0	278.466	0	111.5	4	36.3	4	-1E+10	1	-1E+10	1	-1E+10	1	-1E+10	1	-1E+10	1	-1E+10	1
4902549	54	C	02/05/2022	14:04	-132.017	47.483	0	282.20	0	5.3790	0	33.8360	0	26.711	0	279.654	0	110.8	4	36.1	4	-1E+10	1	-1E+10	1	-1E+10	1	-1E+10	1	-1E+10	1	-1E+10	1
4902549	54	C	02/05/2022	14:04	-132.017	47.483	0	282.90	0	5.3680	0	33.8330	0	26.710	0	280.347	0	110.4	4	35.9	4	-1E+10	1	-1E+10	1	-1E+10	1	-1E+10	1	-1E+10	1	-1E+10	1
4902549	54	C	02/05/2022	14:04	-132.017	47.483	0	284.00	0	5.3590	0	33.8300	0	26.709	0	281.437	0	109.7	4	35.7	4	-1E+10	1	-1E+10	1	-1E+10	1	-1E+10	1	-1E+10	1	-1E+10	1
4902549	54	C	02/05/2022	14:04	-132.017	47.483	0	285.20	0	5.3560	0	33.8310	0	26.710	0	282.625	0	108.9	4	35.4	4	-1E+10	1	-1E+10	1	-1E+10	1	-1E+10	1	-1E+10	1	-1E+10	1
4902549	54	C	02/05/2022	14:04	-132.017	47.483	0	286.00	0	5.3460	0	33.8320	0	26.712	0	283.417	0	108.3	4	35.2	4	-1E+10	1	-1E+10	1	-1E+10	1	-1E+10	1	-1E+10	1	-1E+10	1
4902549	54	C	02/05/2022	14:04	-132.017	47.483	0	286.80	0	5.3550	0	33.8290	0	26.709	0	284.210	0	107.7	4	35.0	4	-1E+10	1	-1E+10	1	-1E+10	1	-1E+10	1	-1E+10	1	-1E+10	1
4902549	54	C	02/05/2022	14:04	-132.017	47.483	0	287.90	0	5.3440	0	33.8370	0	26.716	0	285.299	0	106.7	4	34.7	4	-1E+10	1	-1E+10	1	-1E+10	1	-1E+10	1	-1E+10	1	-1E+10	1
4902549	54	C	02/05/2022	14:04	-132.017	47.483	0	289.10	0	5.3340	0	33.8390	0	26.719	0	286.487	0	105.8	4	34.4	4	-1E+10	1	-1E+10	1	-1E+10	1	-1E+10	1	-1E+10	1	-1E+10	1
4902549	54	C	02/05/2022	14:04	-132.017	47.483	0	289.90	0	5.3400	0	33.8430	0	26.721	0	287.279	0	105.2	4	34.2	4	-1E+10	1	-1E+10	1	-1E+10	1	-1E+10	1	-1E+10	1	-1E+10	1
4902549	54	C	02/05/2022	14:04	-132.017	47.483	0	290.70	0	5.3550	0	33.8470	0	26.723	0	288.072	0	104.7	4	34.1	4	-1E+10	1	-1E+10	1	-1E+10	1	-1E+10	1	-1E+10	1	-1E+10	1
4902549	54	C	02/05/2022	14:04	-132.017	47.483	0	291.90	0	5.3620	0	33.8520	0	26.726	0	289.260	0	103.9	4	33.8	4	-1E+10	1	-1E+10	1	-1E+10	1	-1E+10	1	-1E+10	1	-1E+10	1
4902549	54	C	02/05/2022	14:04	-132.017	47.483	0	293.10	0	5.3630	0	33.8540	0	26.728	0	290.448	0	103.0	4	33.5	4	-1E+10	1	-1E+10	1	-1E+10	1	-1E+10	1	-1E+10	1	-1E+10	1
4902549	54	C	02/05/2022	14:04	-132.017	47.483	0	294.00	0	5.3500	0	33.8570	0	26.731	0	291.339	0	102.5	4	33.3	4	-1E+10	1	-1E+10	1	-1E+10	1	-1E+10	1	-1E+10	1	-1E+10	1
4902549	54	C	02/05/2022	14:04	-132.017	47.483	0	294.80	0	5.3340	0	33.8560	0	26.733	0	292.132	0	101.9	4	33.1	4	-1E+10	1	-1E+10	1	-1E+10	1	-1E+10	1	-1E+10	1	-1E+10	1
4902549	54	C	02/05/2022	14:04	-132.017	47.483	0	295.70	0	5.2980	0	33.8570	0	26.738	0	293.023	0	101.6	4	33.0	4	-1E+10	1	-1E+10	1	-1E+10	1	-1E+10	1	-1E+10	1	-1E+10	1
4902549	54	C	02/05/2022	14:04	-132.017	47.483	0	296.90	0	5.2830	0	33.8570	0	26.739	0	294.211	0	100.9	4	32.8	4	-1E+10	1	-1E+10	1	-1E+10	1	-1E+10	1	-1E+10	1	-1E+10	1
4902549	54	C	02/05/2022	14:04	-132.017	47.483	0	298.30	0	5.2580	0	33.8610	0	26.745	0	295.597	0	100.5	4	32.6	4	-1E+10	1	-1E+10	1	-1E+10	1	-1E+10	1	-1E+10	1	-1E+10	1
4902549	54	C	02/05/2022	14:04	-132.017	47.483	0	299.10	0	5.2400	0	33.8620	0	26.748	0	296.390	0	100.2	4	32.5	4	-1E+10	1	-1E+10	1	-1E+10	1	-1E+10	1	-1E+10	1	-1E+10	1
4902549	54	C	02/05/2022	14:04	-132.017	47.483	0	300.00	0	5.2360	0	33.8610	0	26.748	0	297.281	0	99.9	4	32.4	4	-1E+10	1	-1E+10	1	-1E+10	1	-1E+10	1	-1E+10	1	-1E+10	1
4902549	54	C	02/05/2022	14:04	-132.017	47.483	0	300.90	0	5.2280	0	33.8620	0	26.750	0	298.172	0	99.7	4	32.3	4	-1E+10	1	-1E+10	1	-1E+10	1	-1E+10	1	-1E+10	1	-1E+10	1
4902549	54	C	02/05/2022	14:04	-132.017	47.483	0	301.80	0	5.2170	0	33.8620	0	26.751	0	299.063	0	99.4	4	32.2	4	-1E+10	1	-1E+10	1	-1E+10	1	-1E+10	1	-1E+10	1	-1E+10	1
4902549	54	C	02/05/2022	14:04	-132.017	47.483	0	302.70	0	5.2110	0	33.8620	0	26.752	0	299.954	0	99.1	4	32.1	4	-1E+10	1	-1E+10	1	-1E+10	1	-1E+10	1	-1E+10	1	-1E+10	1
4902549	54	C	02/05/2022	14:04	-132.017	47.483	0	303.70	0	5.1960	0	33.8630	0	26.754	0	300.945	0	98.8	4	32.0	4	-1E+10	1	-1E+10	1	-1E+10	1	-1E+10	1	-1E+10	1	-1E+10	1
4902549	54	C	02/05/2022	14:04	-132.017	47.483	0	304.60	0	5.1940	0	33.8630	0	26.754	0	301.836	0	98.5	4	31.9	4	-1E+10	1	-1E+10	1	-1E+10	1	-1E+10	1	-1E+10	1	-1E+10	1
4902549	54	C	02/05/2022	14:04	-132.017	47.483	0	305.90	0	5.1870	0	33.8630	0	26.755	0	303.123	0	98.1	4	31.8	4	-1E+10	1	-1E+10	1	-1E+10	1	-1E+10	1	-1E+10	1	-1E+10	1
4902549	54	C	02/05/2022	14:04	-132.017	47.483	0	307.40	0	5.1840	0	33.8630	0	26.756	0	304.608	0	97.6	4	31.6	4	-1E+10	1	-1E+10	1	-1E+10	1	-1E+10	1	-1E+10	1	-1E+10	1
4902549	54	C	02/05/2022	14:04	-132.017	47.483	0	308.30	0	5.1770	0	33.8640	0	26.757	0	305.499	0	97.2	4	31.5	4	-1E+10	1	-1E+10	1	-1E+10	1	-1E+10	1	-1E+10	1	-1E+10	1
4902549	54	C	02/05/2022	14:04	-132.017	47.483	0	309.20	0	5.1720	0	33.8630	0	26.757	0	306.391	0	96.8	4	31.4	4	-1E+10	1	-1E+10	1	-1E+10	1	-1E+10	1	-1E+10	1	-1E+10	1
4902549	54	C	02/05/2022	14:04	-132.017	47.483	0	310.10	0	5.1680	0	33.8640	0	26.758	0	307.282	0	96.5	4	31.2	4	-1E+10	1	-1E+10	1	-1E+10	1	-1E+10	1	-1E+10	1	-1E+10	1
4902549	54	C	02/05/2022	14:04	-132.017	47.483	0	311.00	0	5.1640	0	33.8630	0	26.758	0	308.173	0	96.0	4	31.1	4	-1E+10	1	-1E+10	1	-1E+10	1	-1E+10	1	-1E+10	1	-1E+10	1
4902549	54	C	02/05/2022	14:04	-132.017	47.483	0	312.00	0	5.1600	0	33.8640	0	26.759	0	309.163	0	95.6	4	31.0	4	-1E+10	1	-1E+10	1	-1E+10	1	-1E+10	1	-1E+10	1	-1E+10	1
4902549	54	C	02/05/2022	14:04	-132.017	47.483	0	312.90	0	5.1570	0	33.8640	0	26.760	0	310.054	0	95.1	4	30.8	4	-1E+10	1	-1E+10	1	-1E+10	1	-1E+10	1	-1E+10	1	-1E+10	1
4902549	54	C	02/05/2022	14:04	-132.017	47.483	0	313.80	0	5.1410	0	33.8620	0	26.760	0	310.945	0	94.6	4	30.6	4	-1E+10	1	-1E+10	1	-1E+10	1	-1E+10	1	-1E+10	1	-1E+10	1
4902549	54	C	02/05/2022	14:04	-132.017	47.483	0	314.70	0	5.1140	0	33.8610	0	26.762	0	311.837	0	94.2	4	30.5	4	-1E+10	1	-1E+10	1	-1E+10	1	-1E+10	1	-1E+10	1	-1E+10	1
4902549	54	C	02/05/2022	14:04	-132.017	47.483	0	315.60	0	5.0570	0	33.8660	0	26.773	0	312.728	0	94.0	4	30.4	4	-1E+10	1	-1E+10	1	-1E+10	1	-1E+10	1	-1E+10	1	-1E+10	1
4902549	54	C	02/05/2022	14:04	-132.017	47.483	0	316.60	0	5.0370	0	33.8600	0	26.770	0	313.718	0	93.8	4	30.3	4	-1E+10	1	-1E+10	1	-1E+10	1	-1E+10	1	-1E+10	1	-1E+10	1
4902549	54	C	02/05/2022	14:04	-132.017	47.483	0	317.90	0	5.0350	0	33.8590	0	26.770	0	315.005	0	93.3	4	30.1	4	-1E+10	1	-1E+10	1	-1E+10	1	-1E+10	1	-1E+10	1	-1E+10	1
4902549	54	C	02/05/2022	14:04	-132.017	47.483	0	319.40	0	5.0320	0	33.8590	0	26.770	0	316.490	0	92.8	4	30.0	4	-1E+10	1	-1E+10	1	-1E+10	1	-1E+10	1	-1E+10	1	-1E+10	1
4902549	54	C	02/05/2022	14:04	-132.017	47.483	0	320.30	0	5.0290	0	33.8640	0	26.774	0	317.381	0	92.5	4	29.9	4	-1E+10	1	-1E+10	1	-1E+10	1	-1E+10	1	-1E+10	1	-1E+10	1
4902549	54	C	02/05/2022	14:04	-132.017	47.483	0	321.20	0	5.0340	0	33.8650	0	26.775	0	318.272	0	92.1	4	29.7	4	-1E+10	1	-1E+10	1	-1E+10	1	-1E+10	1	-1E+10	1	-1E+10	1
4902549	54	C	02/05/2022	14:04	-132.017	47.483	0	322.20	0	5.0250	0	33.8640	0	26.775	0	319.263	0	91.8	4	29.6	4	-1E+10	1	-1E+10	1	-1E+10	1	-1E+10	1	-1E+10	1	-1E+10	1
4902549	54	C	02/05/2022	14:04	-132.017	47.483	0	323.10	0	5.0070	0	33.8640	0	26.777	0	320.154	0	91.5	4	29.5	4	-1E+10	1	-1E+10	1	-1E+10	1	-1E+10	1	-1E+10	1	-1E+10	1
4902549	54	C	02/05/2022	14:04	-132.017	47.483	0	324.00	0	4.9990	0	33.8650	0	26.779	0	321.045	0	91.1	4	29.4	4	-1E+10	1	-1E+10	1	-1E+10	1	-1E+10	1	-1E+10	1	-1E+10	1
4902549	54	C	02/05/2022	14:04	-132.017	47.483	0	324.90	0	5.0030	0	33.8630	0	26.776	0	321.936	0	90.8	4	29.3	4	-1E+10	1	-1E+10	1	-1E+10	1	-1E+10	1	-1E+10	1	-1E+10	1
4902549	54	C	02/05/2022	14:04	-132.017	47.483	0	325.90	0	5.0060	0	33.8670	0	26.779	0	322.926	0	90.5	4	29.2	4	-1E+10	1	-1E+10	1	-1E+10	1	-1E+10	1	-1E+10	1	-1E+10	1
4902549	54	C	02/05/2022	14:04	-132.017	47.483	0	326.80	0	4.9820	0	33.8660	0	26.781	0	323.817	0	90.1	4	29.1	4	-1E+10	1	-1E+10	1	-1E+10	1	-1E+10	1	-1E+10	1	-1E+10	1
4902549	54	C	02/05/2022	14:04	-132.017	47.483	0	327.70	0	4.9670	0	33.8660	0	26.783	0	324.708	0	89.8	4	28.9	4	-1E+10	1	-1E+10	1	-1E+10	1	-1E+10	1	-1E+10	1	-1E+10	1
4902549	54	C	02/05/2022	14:04	-132.017	47.483	0	328.70	0	4.9550	0	33.8630	0	26.782	0	325.698	0	89.5	4	28.8	4	-1E+10	1	-1E+10	1	-1E+10	1	-1E+10	1	-1E+10	1	-1E+10	1
4902549	54	C	02/05/2022	14:04	-132.017	47.483	0	329.60	0	4.9380	0	33.8640	0	26.785	0	326.589	0	89.2	4	28.7	4	-1E+10	1	-1E+10	1	-1E+10	1	-1E+10	1	-1E+10	1	-1E+10	1
4902549	54	C	02/05/2022	14:04	-132.017	47.483	0	330.90	0	4.9180	0	33.8630	0	26.786	0	327.876	0	88.9	4	28.6	4	-1E+10	1	-1E+10	1	-1E+10	1	-1E+10	1	-1E+10	1	-1E+10	1
4902549	54	C	02/05/2022	14:04	-132.017	47.483	0	332.40	0	4.9080	0	33.8630	0	26.787	0	329.361	0	88.6	4	28.5	4	-1E+10	1	-1E+10	1	-1E+10	1	-1E+10	1	-1E+10	1	-1E+10	1
4902549	54	C	02/05/2022	14:04	-132.017	47.483	0	333.30	0	4.8960	0	33.8640	0	26.789	0	330.252	0	88.3	4	28.4	4	-1E+10	1	-1E+10	1	-1E+10	1	-1E+10	1	-1E+10	1	-1E+10	1
4902549	54	C	02/05/2022	14:04	-132.017	47.483	0	334.20	0	4.8940	0	33.8640	0	26.790	0	331.144	0	88.1	4	28.4	4	-1E+10	1	-1E+10	1	-1E+10	1	-1E+10	1	-1E+10	1	-1E+10	1
4902549	54	C	02/05/2022	14:04	-132.017	47.483	0	335.10	0	4.8910	0	33.8650	0	26.791	0	332.035	0	88.0	4	28.3	4	-1E+10	1	-1E+10	1	-1E+10	1	-1E+10	1	-1E+10	1	-1E+10	1
4902549	54	C	02/05/2022	14:04	-132.017	47.483	0	336.00	0	4.8870	0	33.8650	0	26.791	0	332.926	0	87.8	4	28.2	4	-1E+10	1	-1E+10	1	-1E+10	1	-1E+10	1	-1E+10	1	-1E+10	1
4902549	54	C	02/05/2022	14:04	-132.017	47.483	0	336.90	0	4.8840	0	33.8650	0	26.792	0	333.817	0	87.5	4	28.2	4	-1E+10	1	-1E+10	1	-1E+10	1	-1E+10	1	-1E+10	1	-1E+10	1
4902549	54	C	02/05/2022	14:04	-132.017	47.483	0	337.80	0	4.8820	0	33.8650	0	26.792	0	334.708	0	87.3	4	28.1	4	-1E+10	1	-1E+10	1	-1E+10	1	-1E+10	1	-1E+10	1	-1E+10	1
4902549	54	C	02/05/2022	14:04	-132.017	47.483	0	338.80	0	4.8800	0	33.8650	0	26.792	0	335.698	0	87.1	4	28.0	4	-1E+10	1	-1E+10	1	-1E+10	1	-1E+10	1	-1E+10	1	-1E+10	1
4902549	54	C	02/05/2022	14:04	-132.017	47.483	0	339.70	0	4.8790	0	33.8660	0	26.793	0	336.589	0	86.8	4	27.9	4	-1E+10	1	-1E+10	1	-1E+10	1	-1E+10	1	-1E+10	1	-1E+10	1
4902549	54	C	02/05/2022	14:04	-132.017	47.483	0	340.60	0	4.8770	0	33.8650	0	26.792	0	337.480	0	86.5	4	27.8	4	-1E+10	1	-1E+10	1	-1E+10	1	-1E+10	1	-1E+10	1	-1E+10	1
4902549	54	C	02/05/2022	14:04	-132.017	47.483	0	341.90	0	4.8750	0	33.8650	0	26.793	0	338.767	0	86.0	4	27.7	4	-1E+10	1	-1E+10	1	-1E+10	1	-1E+10	1	-1E+10	1	-1E+10	1
4902549	54	C	02/05/2022	14:04	-132.017	47.483	0	343.30	0	4.8730	0	33.8660	0	26.794	0	340.153	0	85.4	4	27.5	4	-1E+10	1	-1E+10	1	-1E+10	1	-1E+10	1	-1E+10	1	-1E+10	1
4902549	54	C	02/05/2022	14:04	-132.017	47.483	0	344.20	0	4.8650	0	33.8670	0	26.795	0	341.044	0	85.0	4	27.3	4	-1E+10	1	-1E+10	1	-1E+10	1	-1E+10	1	-1E+10	1	-1E+10	1
4902549	54	C	02/05/2022	14:04	-132.017	47.483	0	345.10	0	4.8600	0	33.8670	0	26.796	0	341.935	0	84.6	4	27.2	4	-1E+10	1	-1E+10	1	-1E+10	1	-1E+10	1	-1E+10	1	-1E+10	1
4902549	54	C	02/05/2022	14:04	-132.017	47.483	0	346.00	0	4.8480	0	33.8700	0	26.800	0	342.826	0	84.2	4	27.1	4	-1E+10	1	-1E+10	1	-1E+10	1	-1E+10	1	-1E+10	1	-1E+10	1
4902549	54	C	02/05/2022	14:04	-132.017	47.483	0	346.90	0	4.8450	0	33.8680	0	26.798	0	343.717	0	83.8	4	27.0	4	-1E+10	1	-1E+10	1	-1E+10	1	-1E+10	1	-1E+10	1	-1E+10	1
4902549	54	C	02/05/2022	14:04	-132.017	47.483	0	347.80	0	4.8430	0	33.8690	0	26.799	0	344.608	0	83.4	4	26.8	4	-1E+10	1	-1E+10	1	-1E+10	1	-1E+10	1	-1E+10	1	-1E+10	1
4902549	54	C	02/05/2022	14:04	-132.017	47.483	0	348.70	0	4.8380	0	33.8700	0	26.801	0	345.499	0	83.0	4	26.7	4	-1E+10	1	-1E+10	1	-1E+10	1	-1E+10	1	-1E+10	1	-1E+10	1
4902549	54	C	02/05/2022	14:04	-132.017	47.483	0	349.60	0	4.8340	0	33.8700	0	26.801	0	346.390	0	82.6	4	26.5	4	-1E+10	1	-1E+10	1	-1E+10	1	-1E+10	1	-1E+10	1	-1E+10	1
4902549	54	C	02/05/2022	14:04	-132.017	47.483	0	352.60	0	4.8150	0	33.8730	0	26.806	0	349.360	0	80.8	4	26.0	4	-1E+10	1	-1E+10	1	-1E+10	1	-1E+10	1	-1E+10	1	-1E+10	1
4902549	54	C	02/05/2022	14:04	-132.017	47.483	0	358.00	0	4.7740	0	33.8800	0	26.816	0	354.705	0	78.0	4	25.0	4	-1E+10	1	-1E+10	1	-1E+10	1	-1E+10	1	-1E+10	1	-1E+10	1
4902549	54	C	02/05/2022	14:04	-132.017	47.483	0	362.90	0	4.7450	0	33.8850	0	26.823	0	359.556	0	75.7	4	24.3	4	-1E+10	1	-1E+10	1	-1E+10	1	-1E+10	1	-1E+10	1	-1E+10	1
4902549	54	C	02/05/2022	14:04	-132.017	47.483	0	367.90	0	4.7090	0	33.8930	0	26.833	0	364.506	0	73.8	4	23.6	4	-1E+10	1	-1E+10	1	-1E+10	1	-1E+10	1	-1E+10	1	-1E+10	1
4902549	54	C	02/05/2022	14:04	-132.017	47.483	0	372.90	0	4.6950	0	33.8960	0	26.837	0	369.455	0	71.9	4	23.0	4	-1E+10	1	-1E+10	1	-1E+10	1	-1E+10	1	-1E+10	1	-1E+10	1
4902549	54	C	02/05/2022	14:04	-132.017	47.483	0	378.00	0	4.6690	0	33.9030	0	26.846	0	374.503	0	70.0	4	22.4	4	-1E+10	1	-1E+10	1	-1E+10	1	-1E+10	1	-1E+10	1	-1E+10	1
4902549	54	C	02/05/2022	14:04	-132.017	47.483	0	383.10	0	4.6430	0	33.9100	0	26.854	0	379.552	0	68.7	4	22.0	4	-1E+10	1	-1E+10	1	-1E+10	1	-1E+10	1	-1E+10	1	-1E+10	1
4902549	54	C	02/05/2022	14:04	-132.017	47.483	0	387.80	0	4.6310	0	33.9130	0	26.858	0	384.204	0	67.5	4	21.6	4	-1E+10	1	-1E+10	1	-1E+10	1	-1E+10	1	-1E+10	1	-1E+10	1
4902549	54	C	02/05/2022	14:04	-132.017	47.483	0	392.80	0	4.6150	0	33.9170	0	26.863	0	389.153	0	66.1	4	21.1	4	-1E+10	1	-1E+10	1	-1E+10	1	-1E+10	1	-1E+10	1	-1E+10	1
4902549	54	C	02/05/2022	14:04	-132.017	47.483	0	397.80	0	4.5900	0	33.9250	0	26.872	0	394.101	0	64.9	4	20.8	4	-1E+10	1	-1E+10	1	-1E+10	1	-1E+10	1	-1E+10	1	-1E+10	1
4902549	54	C	02/05/2022	14:04	-132.017	47.483	0	402.90	0	4.5770	0	33.9290	0	26.877	0	399.149	0	63.8	4	20.4	4	-1E+10	1	-1E+10	1	-1E+10	1	-1E+10	1	-1E+10	1	-1E+10	1
4902549	54	C	02/05/2022	14:04	-132.017	47.483	0	408.00	0	4.5640	0	33.9330	0	26.881	0	404.197	0	62.7	4	20.0	4	-1E+10	1	-1E+10	1	-1E+10	1	-1E+10	1	-1E+10	1	-1E+10	1
4902549	54	C	02/05/2022	14:04	-132.017	47.483	0	412.70	0	4.5500	0	33.9370	0	26.886	0	408.848	0	61.8	4	19.7	4	-1E+10	1	-1E+10	1	-1E+10	1	-1E+10	1	-1E+10	1	-1E+10	1
4902549	54	C	02/05/2022	14:04	-132.017	47.483	0	417.60	0	4.5450	0	33.9390	0	26.888	0	413.698	0	60.9	4	19.4	4	-1E+10	1	-1E+10	1	-1E+10	1	-1E+10	1	-1E+10	1	-1E+10	1
4902549	54	C	02/05/2022	14:04	-132.017	47.483	0	422.50	0	4.5330	0	33.9420	0	26.892	0	418.547	0	59.8	4	19.1	4	-1E+10	1	-1E+10	1	-1E+10	1	-1E+10	1	-1E+10	1	-1E+10	1
4902549	54	C	02/05/2022	14:04	-132.017	47.483	0	427.40	0	4.5240	0	33.9450	0	26.895	0	423.396	0	58.8	4	18.8	4	-1E+10	1	-1E+10	1	-1E+10	1	-1E+10	1	-1E+10	1	-1E+10	1
4902549	54	C	02/05/2022	14:04	-132.017	47.483	0	432.50	0	4.5150	0	33.9480	0	26.899	0	428.443	0	57.4	4	18.3	4	-1E+10	1	-1E+10	1	-1E+10	1	-1E+10	1	-1E+10	1	-1E+10	1
4902549	54	C	02/05/2022	14:04	-132.017	47.483	0	437.60	0	4.4990	0	33.9530	0	26.904	0	433.490	0	56.0	4	17.9	4	-1E+10	1	-1E+10	1	-1E+10	1	-1E+10	1	-1E+10	1	-1E+10	1
4902549	54	C	02/05/2022	14:04	-132.017	47.483	0	442.60	0	4.4830	0	33.9590	0	26.911	0	438.438	0	54.4	4	17.4	4	-1E+10	1	-1E+10	1	-1E+10	1	-1E+10	1	-1E+10	1	-1E+10	1
4902549	54	C	02/05/2022	14:04	-132.017	47.483	0	448.00	0	4.4610	0	33.9660	0	26.919	0	443.781	0	52.5	4	16.7	4	-1E+10	1	-1E+10	1	-1E+10	1	-1E+10	1	-1E+10	1	-1E+10	1
4902549	54	C	02/05/2022	14:04	-132.017	47.483	0	453.10	0	4.4400	0	33.9730	0	26.927	0	448.827	0	51.1	4	16.3	4	-1E+10	1	-1E+10	1	-1E+10	1	-1E+10	1	-1E+10	1	-1E+10	1
4902549	54	C	02/05/2022	14:04	-132.017	47.483	0	458.00	0	4.4270	0	33.9780	0	26.932	0	453.676	0	49.8	4	15.9	4	-1E+10	1	-1E+10	1	-1E+10	1	-1E+10	1	-1E+10	1	-1E+10	1
4902549	54	C	02/05/2022	14:04	-132.017	47.483	0	463.00	0	4.4080	0	33.9840	0	26.939	0	458.623	0	48.4	4	15.4	4	-1E+10	1	-1E+10	1	-1E+10	1	-1E+10	1	-1E+10	1	-1E+10	1
4902549	54	C	02/05/2022	14:04	-132.017	47.483	0	468.00	0	4.3880	0	33.9920	0	26.948	0	463.570	0	47.3	4	15.1	4	-1E+10	1	-1E+10	1	-1E+10	1	-1E+10	1	-1E+10	1	-1E+10	1
4902549	54	C	02/05/2022	14:04	-132.017	47.483	0	473.00	0	4.3750	0	33.9970	0	26.953	0	468.517	0	46.3	4	14.7	4	-1E+10	1	-1E+10	1	-1E+10	1	-1E+10	1	-1E+10	1	-1E+10	1
4902549	54	C	02/05/2022	14:04	-132.017	47.483	0	478.10	0	4.3660	0	33.9990	0	26.956	0	473.563	0	45.2	4	14.4	4	-1E+10	1	-1E+10	1	-1E+10	1	-1E+10	1	-1E+10	1	-1E+10	1
4902549	54	C	02/05/2022	14:04	-132.017	47.483	0	483.20	0	4.3500	0	34.0050	0	26.962	0	478.609	0	44.0	4	14.0	4	-1E+10	1	-1E+10	1	-1E+10	1	-1E+10	1	-1E+10	1	-1E+10	1
4902549	54	C	02/05/2022	14:04	-132.017	47.483	0	488.00	0	4.3380	0	34.0090	0	26.966	0	483.358	0	43.0	4	13.7	4	-1E+10	1	-1E+10	1	-1E+10	1	-1E+10	1	-1E+10	1	-1E+10	1
4902549	54	C	02/05/2022	14:04	-132.017	47.483	0	492.80	0	4.3210	0	34.0150	0	26.973	0	488.106	0	42.2	4	13.4	4	-1E+10	1	-1E+10	1	-1E+10	1	-1E+10	1	-1E+10	1	-1E+10	1
4902549	54	C	02/05/2022	14:04	-132.017	47.483	0	497.80	0	4.3150	0	34.0180	0	26.976	0	493.053	0	41.4	4	13.2	4	-1E+10	1	-1E+10	1	-1E+10	1	-1E+10	1	-1E+10	1	-1E+10	1
4902549	54	C	02/05/2022	14:04	-132.017	47.483	0	502.70	0	4.3080	0	34.0210	0	26.979	0	497.900	0	40.3	4	12.8	4	-1E+10	1	-1E+10	1	-1E+10	1	-1E+10	1	-1E+10	1	-1E+10	1
4902549	54	C	02/05/2022	14:04	-132.017	47.483	0	508.00	0	4.2890	0	34.0280	0	26.987	0	503.143	0	39.2	4	12.4	4	-1E+10	1	-1E+10	1	-1E+10	1	-1E+10	1	-1E+10	1	-1E+10	1
4902549	54	C	02/05/2022	14:04	-132.017	47.483	0	513.00	0	4.2770	0	34.0320	0	26.991	0	508.089	0	38.3	4	12.1	4	-1E+10	1	-1E+10	1	-1E+10	1	-1E+10	1	-1E+10	1	-1E+10	1
4902549	54	C	02/05/2022	14:04	-132.017	47.483	0	518.00	0	4.2600	0	34.0380	0	26.998	0	513.035	0	37.3	4	11.8	4	-1E+10	1	-1E+10	1	-1E+10	1	-1E+10	1	-1E+10	1	-1E+10	1
4902549	54	C	02/05/2022	14:04	-132.017	47.483	0	523.20	0	4.2480	0	34.0430	0	27.003	0	518.179	0	36.6	4	11.6	4	-1E+10	1	-1E+10	1	-1E+10	1	-1E+10	1	-1E+10	1	-1E+10	1
4902549	54	C	02/05/2022	14:04	-132.017	47.483	0	527.90	0	4.2430	0	34.0450	0	27.005	0	522.828	0	35.9	4	11.4	4	-1E+10	1	-1E+10	1	-1E+10	1	-1E+10	1	-1E+10	1	-1E+10	1
4902549	54	C	02/05/2022	14:04	-132.017	47.483	0	533.00	0	4.2340	0	34.0470	0	27.008	0	527.873	0	34.7	4	11.0	4	-1E+10	1	-1E+10	1	-1E+10	1	-1E+10	1	-1E+10	1	-1E+10	1
4902549	54	C	02/05/2022	14:04	-132.017	47.483	0	538.20	0	4.2170	0	34.0530	0	27.015	0	533.016	0	33.5	4	10.6	4	-1E+10	1	-1E+10	1	-1E+10	1	-1E+10	1	-1E+10	1	-1E+10	1
4902549	54	C	02/05/2022	14:04	-132.017	47.483	0	542.90	0	4.2010	0	34.0580	0	27.020	0	537.665	0	32.5	4	10.3	4	-1E+10	1	-1E+10	1	-1E+10	1	-1E+10	1	-1E+10	1	-1E+10	1
4902549	54	C	02/05/2022	14:04	-132.017	47.483	0	548.00	0	4.1830	0	34.0650	0	27.028	0	542.709	0	31.4	4	9.9	4	-1E+10	1	-1E+10	1	-1E+10	1	-1E+10	1	-1E+10	1	-1E+10	1
4902549	54	C	02/05/2022	14:04	-132.017	47.483	0	553.10	0	4.1560	0	34.0740	0	27.038	0	547.753	0	30.5	4	9.7	4	-1E+10	1	-1E+10	1	-1E+10	1	-1E+10	1	-1E+10	1	-1E+10	1
4902549	54	C	02/05/2022	14:04	-132.017	47.483	0	557.80	0	4.1460	0	34.0770	0	27.041	0	552.401	0	29.8	4	9.4	4	-1E+10	1	-1E+10	1	-1E+10	1	-1E+10	1	-1E+10	1	-1E+10	1
4902549	54	C	02/05/2022	14:04	-132.017	47.483	0	562.90	0	4.1330	0	34.0810	0	27.046	0	557.445	0	28.7	4	9.1	4	-1E+10	1	-1E+10	1	-1E+10	1	-1E+10	1	-1E+10	1	-1E+10	1
4902549	54	C	02/05/2022	14:04	-132.017	47.483	0	568.10	0	4.1190	0	34.0870	0	27.052	0	562.587	0	27.4	4	8.7	4	-1E+10	1	-1E+10	1	-1E+10	1	-1E+10	1	-1E+10	1	-1E+10	1
4902549	54	C	02/05/2022	14:04	-132.017	47.483	0	572.70	0	4.0990	0	34.0960	0	27.061	0	567.137	0	26.4	4	8.3	4	-1E+10	1	-1E+10	1	-1E+10	1	-1E+10	1	-1E+10	1	-1E+10	1
4902549	54	C	02/05/2022	14:04	-132.017	47.483	0	578.00	0	4.0880	0	34.1010	0	27.066	0	572.378	0	25.5	4	8.1	4	-1E+10	1	-1E+10	1	-1E+10	1	-1E+10	1	-1E+10	1	-1E+10	1
4902549	54	C	02/05/2022	14:04	-132.017	47.483	0	583.20	0	4.0740	0	34.1060	0	27.072	0	577.520	0	24.5	4	7.7	4	-1E+10	1	-1E+10	1	-1E+10	1	-1E+10	1	-1E+10	1	-1E+10	1
4902549	54	C	02/05/2022	14:04	-132.017	47.483	0	587.90	0	4.0560	0	34.1120	0	27.078	0	582.168	0	23.7	4	7.5	4	-1E+10	1	-1E+10	1	-1E+10	1	-1E+10	1	-1E+10	1	-1E+10	1
4902549	54	C	02/05/2022	14:04	-132.017	47.483	0	592.70	0	4.0430	0	34.1160	0	27.083	0	586.914	0	22.8	4	7.2	4	-1E+10	1	-1E+10	1	-1E+10	1	-1E+10	1	-1E+10	1	-1E+10	1
4902549	54	C	02/05/2022	14:04	-132.017	47.483	0	597.60	0	4.0300	0	34.1220	0	27.089	0	591.759	0	21.9	4	6.9	4	-1E+10	1	-1E+10	1	-1E+10	1	-1E+10	1	-1E+10	1	-1E+10	1
4902549	54	C	02/05/2022	14:04	-132.017	47.483	0	602.90	0	4.0240	0	34.1280	0	27.095	0	597.000	0	21.1	4	6.7	4	-1E+10	1	-1E+10	1	-1E+10	1	-1E+10	1	-1E+10	1	-1E+10	1
4902549	54	C	02/05/2022	14:04	-132.017	47.483	0	608.10	0	4.0130	0	34.1320	0	27.099	0	602.141	0	20.7	4	6.5	4	-1E+10	1	-1E+10	1	-1E+10	1	-1E+10	1	-1E+10	1	-1E+10	1
4902549	54	C	02/05/2022	14:04	-132.017	47.483	0	612.90	0	3.9980	0	34.1360	0	27.104	0	606.888	0	20.2	4	6.4	4	-1E+10	1	-1E+10	1	-1E+10	1	-1E+10	1	-1E+10	1	-1E+10	1
4902549	54	C	02/05/2022	14:04	-132.017	47.483	0	617.60	0	3.9850	0	34.1390	0	27.107	0	611.534	0	19.6	4	6.2	4	-1E+10	1	-1E+10	1	-1E+10	1	-1E+10	1	-1E+10	1	-1E+10	1
4902549	54	C	02/05/2022	14:04	-132.017	47.483	0	622.90	0	3.9750	0	34.1440	0	27.112	0	616.775	0	19.1	4	6.0	4	-1E+10	1	-1E+10	1	-1E+10	1	-1E+10	1	-1E+10	1	-1E+10	1
4902549	54	C	02/05/2022	14:04	-132.017	47.483	0	628.40	0	3.9630	0	34.1480	0	27.117	0	622.212	0	18.6	4	5.9	4	-1E+10	1	-1E+10	1	-1E+10	1	-1E+10	1	-1E+10	1	-1E+10	1
4902549	54	C	02/05/2022	14:04	-132.017	47.483	0	633.40	0	3.9540	0	34.1520	0	27.121	0	627.156	0	18.1	4	5.7	4	-1E+10	1	-1E+10	1	-1E+10	1	-1E+10	1	-1E+10	1	-1E+10	1
4902549	54	C	02/05/2022	14:04	-132.017	47.483	0	638.40	0	3.9370	0	34.1560	0	27.126	0	632.099	0	17.7	4	5.6	4	-1E+10	1	-1E+10	1	-1E+10	1	-1E+10	1	-1E+10	1	-1E+10	1
4902549	54	C	02/05/2022	14:04	-132.017	47.483	0	643.20	0	3.9160	0	34.1610	0	27.132	0	636.844	0	17.5	4	5.5	4	-1E+10	1	-1E+10	1	-1E+10	1	-1E+10	1	-1E+10	1	-1E+10	1
4902549	54	C	02/05/2022	14:04	-132.017	47.483	0	647.80	0	3.9060	0	34.1630	0	27.135	0	641.391	0	17.1	4	5.4	4	-1E+10	1	-1E+10	1	-1E+10	1	-1E+10	1	-1E+10	1	-1E+10	1
4902549	54	C	02/05/2022	14:04	-132.017	47.483	0	652.80	0	3.8950	0	34.1660	0	27.138	0	646.334	0	16.7	4	5.3	4	-1E+10	1	-1E+10	1	-1E+10	1	-1E+10	1	-1E+10	1	-1E+10	1
4902549	54	C	02/05/2022	14:04	-132.017	47.483	0	657.90	0	3.8810	0	34.1710	0	27.144	0	651.376	0	16.4	4	5.2	4	-1E+10	1	-1E+10	1	-1E+10	1	-1E+10	1	-1E+10	1	-1E+10	1
4902549	54	C	02/05/2022	14:04	-132.017	47.483	0	663.20	0	3.8750	0	34.1730	0	27.146	0	656.615	0	16.2	4	5.1	4	-1E+10	1	-1E+10	1	-1E+10	1	-1E+10	1	-1E+10	1	-1E+10	1
4902549	54	C	02/05/2022	14:04	-132.017	47.483	0	668.00	0	3.8740	0	34.1740	0	27.147	0	661.360	0	15.9	4	5.0	4	-1E+10	1	-1E+10	1	-1E+10	1	-1E+10	1	-1E+10	1	-1E+10	1
4902549	54	C	02/05/2022	14:04	-132.017	47.483	0	673.00	0	3.8660	0	34.1750	0	27.148	0	666.302	0	15.6	4	4.9	4	-1E+10	1	-1E+10	1	-1E+10	1	-1E+10	1	-1E+10	1	-1E+10	1
4902549	54	C	02/05/2022	14:04	-132.017	47.483	0	678.00	0	3.8460	0	34.1810	0	27.155	0	671.244	0	15.2	4	4.8	4	-1E+10	1	-1E+10	1	-1E+10	1	-1E+10	1	-1E+10	1	-1E+10	1
4902549	54	C	02/05/2022	14:04	-132.017	47.483	0	683.20	0	3.8310	0	34.1860	0	27.161	0	676.384	0	14.9	4	4.7	4	-1E+10	1	-1E+10	1	-1E+10	1	-1E+10	1	-1E+10	1	-1E+10	1
4902549	54	C	02/05/2022	14:04	-132.017	47.483	0	687.90	0	3.8270	0	34.1870	0	27.162	0	681.029	0	14.6	4	4.6	4	-1E+10	1	-1E+10	1	-1E+10	1	-1E+10	1	-1E+10	1	-1E+10	1
4902549	54	C	02/05/2022	14:04	-132.017	47.483	0	692.80	0	3.8150	0	34.1900	0	27.166	0	685.872	0	14.3	4	4.5	4	-1E+10	1	-1E+10	1	-1E+10	1	-1E+10	1	-1E+10	1	-1E+10	1
4902549	54	C	02/05/2022	14:04	-132.017	47.483	0	697.80	0	3.7990	0	34.1950	0	27.171	0	690.814	0	13.9	4	4.4	4	-1E+10	1	-1E+10	1	-1E+10	1	-1E+10	1	-1E+10	1	-1E+10	1
4902549	54	C	02/05/2022	14:04	-132.017	47.483	0	702.80	0	3.7840	0	34.1990	0	27.176	0	695.756	0	13.6	4	4.3	4	-1E+10	1	-1E+10	1	-1E+10	1	-1E+10	1	-1E+10	1	-1E+10	1
4902549	54	C	02/05/2022	14:04	-132.017	47.483	0	708.00	0	3.7710	0	34.2020	0	27.180	0	700.895	0	13.4	4	4.2	4	-1E+10	1	-1E+10	1	-1E+10	1	-1E+10	1	-1E+10	1	-1E+10	1
4902549	54	C	02/05/2022	14:04	-132.017	47.483	0	712.80	0	3.7670	0	34.2030	0	27.181	0	705.638	0	13.2	4	4.2	4	-1E+10	1	-1E+10	1	-1E+10	1	-1E+10	1	-1E+10	1	-1E+10	1
4902549	54	C	02/05/2022	14:04	-132.017	47.483	0	717.70	0	3.7580	0	34.2050	0	27.183	0	710.481	0	12.9	4	4.1	4	-1E+10	1	-1E+10	1	-1E+10	1	-1E+10	1	-1E+10	1	-1E+10	1
4902549	54	C	02/05/2022	14:04	-132.017	47.483	0	722.60	0	3.7510	0	34.2080	0	27.187	0	715.323	0	12.6	4	3.9	4	-1E+10	1	-1E+10	1	-1E+10	1	-1E+10	1	-1E+10	1	-1E+10	1
4902549	54	C	02/05/2022	14:04	-132.017	47.483	0	727.70	0	3.7450	0	34.2110	0	27.190	0	720.363	0	12.2	4	3.8	4	-1E+10	1	-1E+10	1	-1E+10	1	-1E+10	1	-1E+10	1	-1E+10	1
4902549	54	C	02/05/2022	14:04	-132.017	47.483	0	732.70	0	3.7350	0	34.2140	0	27.193	0	725.304	0	12.0	4	3.8	4	-1E+10	1	-1E+10	1	-1E+10	1	-1E+10	1	-1E+10	1	-1E+10	1
4902549	54	C	02/05/2022	14:04	-132.017	47.483	0	738.00	0	3.7220	0	34.2170	0	27.197	0	730.541	0	11.8	4	3.7	4	-1E+10	1	-1E+10	1	-1E+10	1	-1E+10	1	-1E+10	1	-1E+10	1
4902549	54	C	02/05/2022	14:04	-132.017	47.483	0	743.20	0	3.7130	0	34.2190	0	27.199	0	735.679	0	11.6	4	3.6	4	-1E+10	1	-1E+10	1	-1E+10	1	-1E+10	1	-1E+10	1	-1E+10	1
4902549	54	C	02/05/2022	14:04	-132.017	47.483	0	748.00	0	3.6930	0	34.2240	0	27.205	0	740.422	0	11.3	4	3.5	4	-1E+10	1	-1E+10	1	-1E+10	1	-1E+10	1	-1E+10	1	-1E+10	1
4902549	54	C	02/05/2022	14:04	-132.017	47.483	0	752.80	0	3.6810	0	34.2280	0	27.210	0	745.165	0	11.0	4	3.5	4	-1E+10	1	-1E+10	1	-1E+10	1	-1E+10	1	-1E+10	1	-1E+10	1
4902549	54	C	02/05/2022	14:04	-132.017	47.483	0	757.70	0	3.6760	0	34.2290	0	27.211	0	750.007	0	10.8	4	3.4	4	-1E+10	1	-1E+10	1	-1E+10	1	-1E+10	1	-1E+10	1	-1E+10	1
4902549	54	C	02/05/2022	14:04	-132.017	47.483	0	762.70	0	3.6670	0	34.2320	0	27.214	0	754.947	0	10.5	4	3.3	4	-1E+10	1	-1E+10	1	-1E+10	1	-1E+10	1	-1E+10	1	-1E+10	1
4902549	54	C	02/05/2022	14:04	-132.017	47.483	0	767.60	0	3.6560	0	34.2360	0	27.219	0	759.788	0	10.4	4	3.2	4	-1E+10	1	-1E+10	1	-1E+10	1	-1E+10	1	-1E+10	1	-1E+10	1
4902549	54	C	02/05/2022	14:04	-132.017	47.483	0	772.70	0	3.6510	0	34.2370	0	27.220	0	764.827	0	10.1	4	3.2	4	-1E+10	1	-1E+10	1	-1E+10	1	-1E+10	1	-1E+10	1	-1E+10	1
4902549	54	C	02/05/2022	14:04	-132.017	47.483	0	778.20	0	3.6340	0	34.2420	0	27.226	0	770.261	0	9.9	4	3.1	4	-1E+10	1	-1E+10	1	-1E+10	1	-1E+10	1	-1E+10	1	-1E+10	1
4902549	54	C	02/05/2022	14:04	-132.017	47.483	0	783.20	0	3.6190	0	34.2450	0	27.229	0	775.200	0	9.7	4	3.0	4	-1E+10	1	-1E+10	1	-1E+10	1	-1E+10	1	-1E+10	1	-1E+10	1
4902549	54	C	02/05/2022	14:04	-132.017	47.483	0	787.70	0	3.6050	0	34.2490	0	27.234	0	779.646	0	9.6	4	3.0	4	-1E+10	1	-1E+10	1	-1E+10	1	-1E+10	1	-1E+10	1	-1E+10	1
4902549	54	C	02/05/2022	14:04	-132.017	47.483	0	792.70	0	3.5960	0	34.2520	0	27.237	0	784.585	0	9.5	4	3.0	4	-1E+10	1	-1E+10	1	-1E+10	1	-1E+10	1	-1E+10	1	-1E+10	1
4902549	54	C	02/05/2022	14:04	-132.017	47.483	0	798.10	0	3.5880	0	34.2540	0	27.240	0	789.920	0	9.5	4	3.0	4	-1E+10	1	-1E+10	1	-1E+10	1	-1E+10	1	-1E+10	1	-1E+10	1
4902549	54	C	02/05/2022	14:04	-132.017	47.483	0	803.00	0	3.5850	0	34.2540	0	27.240	0	794.760	0	9.4	4	2.9	4	-1E+10	1	-1E+10	1	-1E+10	1	-1E+10	1	-1E+10	1	-1E+10	1
4902549	54	C	02/05/2022	14:04	-132.017	47.483	0	808.00	0	3.5730	0	34.2580	0	27.244	0	799.700	0	9.2	4	2.9	4	-1E+10	1	-1E+10	1	-1E+10	1	-1E+10	1	-1E+10	1	-1E+10	1
4902549	54	C	02/05/2022	14:04	-132.017	47.483	0	813.00	0	3.5530	0	34.2620	0	27.250	0	804.639	0	9.2	4	2.9	4	-1E+10	1	-1E+10	1	-1E+10	1	-1E+10	1	-1E+10	1	-1E+10	1
4902549	54	C	02/05/2022	14:04	-132.017	47.483	0	818.00	0	3.5450	0	34.2640	0	27.252	0	809.577	0	9.1	4	2.8	4	-1E+10	1	-1E+10	1	-1E+10	1	-1E+10	1	-1E+10	1	-1E+10	1
4902549	54	C	02/05/2022	14:04	-132.017	47.483	0	823.00	0	3.5360	0	34.2660	0	27.254	0	814.516	0	9.0	4	2.8	4	-1E+10	1	-1E+10	1	-1E+10	1	-1E+10	1	-1E+10	1	-1E+10	1
4902549	54	C	02/05/2022	14:04	-132.017	47.483	0	828.10	0	3.5260	0	34.2680	0	27.257	0	819.554	0	8.9	4	2.8	4	-1E+10	1	-1E+10	1	-1E+10	1	-1E+10	1	-1E+10	1	-1E+10	1
4902549	54	C	02/05/2022	14:04	-132.017	47.483	0	832.90	0	3.5090	0	34.2720	0	27.262	0	824.295	0	8.8	4	2.8	4	-1E+10	1	-1E+10	1	-1E+10	1	-1E+10	1	-1E+10	1	-1E+10	1
4902549	54	C	02/05/2022	14:04	-132.017	47.483	0	837.80	0	3.4960	0	34.2760	0	27.266	0	829.134	0	8.7	4	2.7	4	-1E+10	1	-1E+10	1	-1E+10	1	-1E+10	1	-1E+10	1	-1E+10	1
4902549	54	C	02/05/2022	14:04	-132.017	47.483	0	843.20	0	3.4790	0	34.2800	0	27.271	0	834.468	0	8.6	4	2.7	4	-1E+10	1	-1E+10	1	-1E+10	1	-1E+10	1	-1E+10	1	-1E+10	1
4902549	54	C	02/05/2022	14:04	-132.017	47.483	0	847.90	0	3.4710	0	34.2820	0	27.274	0	839.110	0	8.6	4	2.7	4	-1E+10	1	-1E+10	1	-1E+10	1	-1E+10	1	-1E+10	1	-1E+10	1
4902549	54	C	02/05/2022	14:04	-132.017	47.483	0	852.60	0	3.4620	0	34.2850	0	27.277	0	843.751	0	8.4	4	2.6	4	-1E+10	1	-1E+10	1	-1E+10	1	-1E+10	1	-1E+10	1	-1E+10	1
4902549	54	C	02/05/2022	14:04	-132.017	47.483	0	857.80	0	3.4460	0	34.2890	0	27.282	0	848.887	0	8.4	4	2.6	4	-1E+10	1	-1E+10	1	-1E+10	1	-1E+10	1	-1E+10	1	-1E+10	1
4902549	54	C	02/05/2022	14:04	-132.017	47.483	0	862.90	0	3.4360	0	34.2910	0	27.284	0	853.923	0	8.2	4	2.6	4	-1E+10	1	-1E+10	1	-1E+10	1	-1E+10	1	-1E+10	1	-1E+10	1
4902549	54	C	02/05/2022	14:04	-132.017	47.483	0	868.00	0	3.4260	0	34.2940	0	27.288	0	858.960	0	8.1	4	2.5	4	-1E+10	1	-1E+10	1	-1E+10	1	-1E+10	1	-1E+10	1	-1E+10	1
4902549	54	C	02/05/2022	14:04	-132.017	47.483	0	873.10	0	3.4170	0	34.2970	0	27.291	0	863.996	0	8.0	4	2.5	4	-1E+10	1	-1E+10	1	-1E+10	1	-1E+10	1	-1E+10	1	-1E+10	1
4902549	54	C	02/05/2022	14:04	-132.017	47.483	0	878.10	0	3.4080	0	34.2990	0	27.293	0	868.934	0	7.9	4	2.5	4	-1E+10	1	-1E+10	1	-1E+10	1	-1E+10	1	-1E+10	1	-1E+10	1
4902549	54	C	02/05/2022	14:04	-132.017	47.483	0	883.00	0	3.3980	0	34.3020	0	27.297	0	873.772	0	7.8	4	2.4	4	-1E+10	1	-1E+10	1	-1E+10	1	-1E+10	1	-1E+10	1	-1E+10	1
4902549	54	C	02/05/2022	14:04	-132.017	47.483	0	888.00	0	3.3820	0	34.3060	0	27.301	0	878.710	0	7.7	4	2.4	4	-1E+10	1	-1E+10	1	-1E+10	1	-1E+10	1	-1E+10	1	-1E+10	1
4902549	54	C	02/05/2022	14:04	-132.017	47.483	0	893.10	0	3.3730	0	34.3080	0	27.304	0	883.746	0	7.7	4	2.4	4	-1E+10	1	-1E+10	1	-1E+10	1	-1E+10	1	-1E+10	1	-1E+10	1
4902549	54	C	02/05/2022	14:04	-132.017	47.483	0	898.10	0	3.3700	0	34.3090	0	27.305	0	888.683	0	7.6	4	2.4	4	-1E+10	1	-1E+10	1	-1E+10	1	-1E+10	1	-1E+10	1	-1E+10	1
4902549	54	C	02/05/2022	14:04	-132.017	47.483	0	903.20	0	3.3650	0	34.3100	0	27.306	0	893.718	0	7.6	4	2.4	4	-1E+10	1	-1E+10	1	-1E+10	1	-1E+10	1	-1E+10	1	-1E+10	1
4902549	54	C	02/05/2022	14:04	-132.017	47.483	0	908.30	0	3.3540	0	34.3130	0	27.310	0	898.754	0	7.5	4	2.3	4	-1E+10	1	-1E+10	1	-1E+10	1	-1E+10	1	-1E+10	1	-1E+10	1
4902549	54	C	02/05/2022	14:04	-132.017	47.483	0	912.90	0	3.3380	0	34.3170	0	27.315	0	903.295	0	7.5	4	2.3	4	-1E+10	1	-1E+10	1	-1E+10	1	-1E+10	1	-1E+10	1	-1E+10	1
4902549	54	C	02/05/2022	14:04	-132.017	47.483	0	917.50	0	3.3290	0	34.3190	0	27.317	0	907.837	0	7.4	4	2.3	4	-1E+10	1	-1E+10	1	-1E+10	1	-1E+10	1	-1E+10	1	-1E+10	1
4902549	54	C	02/05/2022	14:04	-132.017	47.483	0	922.70	0	3.3160	0	34.3210	0	27.320	0	912.971	0	7.4	4	2.3	4	-1E+10	1	-1E+10	1	-1E+10	1	-1E+10	1	-1E+10	1	-1E+10	1
4902549	54	C	02/05/2022	14:04	-132.017	47.483	0	927.80	0	3.3060	0	34.3240	0	27.323	0	918.006	0	7.3	4	2.3	4	-1E+10	1	-1E+10	1	-1E+10	1	-1E+10	1	-1E+10	1	-1E+10	1
4902549	54	C	02/05/2022	14:04	-132.017	47.483	0	933.00	0	3.2990	0	34.3260	0	27.325	0	923.140	0	7.3	4	2.3	4	-1E+10	1	-1E+10	1	-1E+10	1	-1E+10	1	-1E+10	1	-1E+10	1
4902549	54	C	02/05/2022	14:04	-132.017	47.483	0	938.10	0	3.2960	0	34.3270	0	27.327	0	928.174	0	7.3	4	2.3	4	-1E+10	1	-1E+10	1	-1E+10	1	-1E+10	1	-1E+10	1	-1E+10	1
4902549	54	C	02/05/2022	14:04	-132.017	47.483	0	943.00	0	3.2890	0	34.3290	0	27.329	0	933.012	0	7.2	4	2.2	4	-1E+10	1	-1E+10	1	-1E+10	1	-1E+10	1	-1E+10	1	-1E+10	1
4902549	54	C	02/05/2022	14:04	-132.017	47.483	0	947.80	0	3.2830	0	34.3310	0	27.331	0	937.750	0	7.1	4	2.2	4	-1E+10	1	-1E+10	1	-1E+10	1	-1E+10	1	-1E+10	1	-1E+10	1
4902549	54	C	02/05/2022	14:04	-132.017	47.483	0	952.60	0	3.2770	0	34.3330	0	27.333	0	942.488	0	7.1	4	2.2	4	-1E+10	1	-1E+10	1	-1E+10	1	-1E+10	1	-1E+10	1	-1E+10	1
4902549	54	C	02/05/2022	14:04	-132.017	47.483	0	957.90	0	3.2660	0	34.3360	0	27.337	0	947.720	0	7.0	4	2.2	4	-1E+10	1	-1E+10	1	-1E+10	1	-1E+10	1	-1E+10	1	-1E+10	1
4902549	54	C	02/05/2022	14:04	-132.017	47.483	0	963.20	0	3.2580	0	34.3390	0	27.340	0	952.952	0	7.0	4	2.2	4	-1E+10	1	-1E+10	1	-1E+10	1	-1E+10	1	-1E+10	1	-1E+10	1
4902549	54	C	02/05/2022	14:04	-132.017	47.483	0	968.20	0	3.2580	0	34.3390	0	27.340	0	957.887	0	6.9	4	2.1	4	-1E+10	1	-1E+10	1	-1E+10	1	-1E+10	1	-1E+10	1	-1E+10	1
4902549	54	C	02/05/2022	14:04	-132.017	47.483	0	972.90	0	3.2520	0	34.3420	0	27.343	0	962.526	0	6.8	4	2.1	4	-1E+10	1	-1E+10	1	-1E+10	1	-1E+10	1	-1E+10	1	-1E+10	1
4902549	54	C	02/05/2022	14:04	-132.017	47.483	0	977.70	0	3.2440	0	34.3460	0	27.347	0	967.264	0	6.7	4	2.1	4	-1E+10	1	-1E+10	1	-1E+10	1	-1E+10	1	-1E+10	1	-1E+10	1
4902549	54	C	02/05/2022	14:04	-132.017	47.483	0	983.00	0	3.2330	0	34.3480	0	27.350	0	972.495	0	6.7	4	2.1	4	-1E+10	1	-1E+10	1	-1E+10	1	-1E+10	1	-1E+10	1	-1E+10	1
4902549	54	C	02/05/2022	14:04	-132.017	47.483	0	988.00	0	3.2180	0	34.3520	0	27.354	0	977.430	0	6.7	4	2.1	4	-1E+10	1	-1E+10	1	-1E+10	1	-1E+10	1	-1E+10	1	-1E+10	1
4902549	54	C	02/05/2022	14:04	-132.017	47.483	0	992.80	0	3.2100	0	34.3540	0	27.356	0	982.167	0	6.7	4	2.1	4	-1E+10	1	-1E+10	1	-1E+10	1	-1E+10	1	-1E+10	1	-1E+10	1
4902549	54	C	02/05/2022	14:04	-132.017	47.483	0	997.60	0	3.1990	0	34.3570	0	27.360	0	986.905	0	6.7	4	2.1	4	-1E+10	1	-1E+10	1	-1E+10	1	-1E+10	1	-1E+10	1	-1E+10	1
4902549	54	C	02/05/2022	14:04	-132.017	47.483	0	1005.10	0	3.1880	0	34.3580	0	27.362	0	994.307	0	6.7	4	2.1	4	-1E+10	1	-1E+10	1	-1E+10	1	-1E+10	1	-1E+10	1	-1E+10	1
4902549	54	C	02/05/2022	14:04	-132.017	47.483	0	1015.30	0	3.1700	0	34.3620	0	27.367	0	1004.373	0	6.7	4	2.1	4	-1E+10	1	-1E+10	1	-1E+10	1	-1E+10	1	-1E+10	1	-1E+10	1
4902549	54	C	02/05/2022	14:04	-132.017	47.483	0	1025.60	0	3.1500	0	34.3670	0	27.373	0	1014.537	0	6.8	4	2.1	4	-1E+10	1	-1E+10	1	-1E+10	1	-1E+10	1	-1E+10	1	-1E+10	1
4902549	54	C	02/05/2022	14:04	-132.017	47.483	0	1035.90	0	3.1320	0	34.3700	0	27.377	0	1024.701	0	6.8	4	2.1	4	-1E+10	1	-1E+10	1	-1E+10	1	-1E+10	1	-1E+10	1	-1E+10	1
4902549	54	C	02/05/2022	14:04	-132.017	47.483	0	1045.30	0	3.1250	0	34.3740	0	27.381	0	1033.976	0	6.8	4	2.1	4	-1E+10	1	-1E+10	1	-1E+10	1	-1E+10	1	-1E+10	1	-1E+10	1
4902549	54	C	02/05/2022	14:04	-132.017	47.483	0	1055.40	0	3.1120	0	34.3780	0	27.385	0	1043.941	0	6.8	4	2.1	4	-1E+10	1	-1E+10	1	-1E+10	1	-1E+10	1	-1E+10	1	-1E+10	1
4902549	54	C	02/05/2022	14:04	-132.017	47.483	0	1065.40	0	3.0940	0	34.3820	0	27.390	0	1053.808	0	6.9	4	2.1	4	-1E+10	1	-1E+10	1	-1E+10	1	-1E+10	1	-1E+10	1	-1E+10	1
4902549	54	C	02/05/2022	14:04	-132.017	47.483	0	1075.20	0	3.0820	0	34.3880	0	27.396	0	1063.476	0	7.0	4	2.2	4	-1E+10	1	-1E+10	1	-1E+10	1	-1E+10	1	-1E+10	1	-1E+10	1
4902549	54	C	02/05/2022	14:04	-132.017	47.483	0	1085.50	0	3.0630	0	34.3920	0	27.401	0	1073.637	0	7.1	4	2.2	4	-1E+10	1	-1E+10	1	-1E+10	1	-1E+10	1	-1E+10	1	-1E+10	1
4902549	54	C	02/05/2022	14:04	-132.017	47.483	0	1095.60	0	3.0420	0	34.3940	0	27.404	0	1083.601	0	7.2	4	2.2	4	-1E+10	1	-1E+10	1	-1E+10	1	-1E+10	1	-1E+10	1	-1E+10	1
4902549	54	C	02/05/2022	14:04	-132.017	47.483	0	1105.40	0	3.0250	0	34.3970	0	27.408	0	1093.268	0	7.3	4	2.3	4	-1E+10	1	-1E+10	1	-1E+10	1	-1E+10	1	-1E+10	1	-1E+10	1
4902549	54	C	02/05/2022	14:04	-132.017	47.483	0	1115.30	0	3.0140	0	34.4010	0	27.413	0	1103.034	0	7.4	4	2.3	4	-1E+10	1	-1E+10	1	-1E+10	1	-1E+10	1	-1E+10	1	-1E+10	1
4902549	54	C	02/05/2022	14:04	-132.017	47.483	0	1125.60	0	3.0030	0	34.4030	0	27.415	0	1113.193	0	7.5	4	2.3	4	-1E+10	1	-1E+10	1	-1E+10	1	-1E+10	1	-1E+10	1	-1E+10	1
4902549	54	C	02/05/2022	14:04	-132.017	47.483	0	1135.60	0	2.9890	0	34.4070	0	27.420	0	1123.056	0	7.6	4	2.4	4	-1E+10	1	-1E+10	1	-1E+10	1	-1E+10	1	-1E+10	1	-1E+10	1
4902549	54	C	02/05/2022	14:04	-132.017	47.483	0	1145.50	0	2.9680	0	34.4090	0	27.423	0	1132.820	0	7.7	4	2.4	4	-1E+10	1	-1E+10	1	-1E+10	1	-1E+10	1	-1E+10	1	-1E+10	1
4902549	54	C	02/05/2022	14:04	-132.017	47.483	0	1155.70	0	2.9480	0	34.4120	0	27.428	0	1142.879	0	7.9	4	2.4	4	-1E+10	1	-1E+10	1	-1E+10	1	-1E+10	1	-1E+10	1	-1E+10	1
4902549	54	C	02/05/2022	14:04	-132.017	47.483	0	1165.30	0	2.9270	0	34.4150	0	27.432	0	1152.347	0	8.1	4	2.5	4	-1E+10	1	-1E+10	1	-1E+10	1	-1E+10	1	-1E+10	1	-1E+10	1
4902549	54	C	02/05/2022	14:04	-132.017	47.483	0	1175.40	0	2.9130	0	34.4170	0	27.435	0	1162.306	0	8.3	4	2.5	4	-1E+10	1	-1E+10	1	-1E+10	1	-1E+10	1	-1E+10	1	-1E+10	1
4902549	54	C	02/05/2022	14:04	-132.017	47.483	0	1185.40	0	2.8930	0	34.4210	0	27.440	0	1172.167	0	8.5	4	2.6	4	-1E+10	1	-1E+10	1	-1E+10	1	-1E+10	1	-1E+10	1	-1E+10	1
4902549	54	C	02/05/2022	14:04	-132.017	47.483	0	1195.50	0	2.8790	0	34.4250	0	27.444	0	1182.126	0	8.8	4	2.7	4	-1E+10	1	-1E+10	1	-1E+10	1	-1E+10	1	-1E+10	1	-1E+10	1
4902549	54	C	02/05/2022	14:04	-132.017	47.483	0	1205.80	0	2.8650	0	34.4280	0	27.448	0	1192.282	0	9.0	4	2.8	4	-1E+10	1	-1E+10	1	-1E+10	1	-1E+10	1	-1E+10	1	-1E+10	1
4902549	54	C	02/05/2022	14:04	-132.017	47.483	0	1215.70	0	2.8490	0	34.4310	0	27.452	0	1202.042	0	9.3	4	2.9	4	-1E+10	1	-1E+10	1	-1E+10	1	-1E+10	1	-1E+10	1	-1E+10	1
4902549	54	C	02/05/2022	14:04	-132.017	47.483	0	1225.40	0	2.8290	0	34.4350	0	27.457	0	1211.605	0	9.5	4	2.9	4	-1E+10	1	-1E+10	1	-1E+10	1	-1E+10	1	-1E+10	1	-1E+10	1
4902549	54	C	02/05/2022	14:04	-132.017	47.483	0	1235.10	0	2.8160	0	34.4360	0	27.459	0	1221.168	0	9.7	4	3.0	4	-1E+10	1	-1E+10	1	-1E+10	1	-1E+10	1	-1E+10	1	-1E+10	1
4902549	54	C	02/05/2022	14:04	-132.017	47.483	0	1245.40	0	2.7990	0	34.4390	0	27.463	0	1231.322	0	10.0	4	3.1	4	-1E+10	1	-1E+10	1	-1E+10	1	-1E+10	1	-1E+10	1	-1E+10	1
4902549	54	C	02/05/2022	14:04	-132.017	47.483	0	1255.20	0	2.7910	0	34.4420	0	27.466	0	1240.982	0	10.3	4	3.2	4	-1E+10	1	-1E+10	1	-1E+10	1	-1E+10	1	-1E+10	1	-1E+10	1
4902549	54	C	02/05/2022	14:04	-132.017	47.483	0	1265.60	0	2.7790	0	34.4460	0	27.470	0	1251.233	0	10.6	4	3.2	4	-1E+10	1	-1E+10	1	-1E+10	1	-1E+10	1	-1E+10	1	-1E+10	1
4902549	54	C	02/05/2022	14:04	-132.017	47.483	0	1275.60	0	2.7640	0	34.4480	0	27.473	0	1261.090	0	10.9	4	3.3	4	-1E+10	1	-1E+10	1	-1E+10	1	-1E+10	1	-1E+10	1	-1E+10	1
4902549	54	C	02/05/2022	14:04	-132.017	47.483	0	1285.50	0	2.7420	0	34.4510	0	27.478	0	1270.848	0	11.2	4	3.4	4	-1E+10	1	-1E+10	1	-1E+10	1	-1E+10	1	-1E+10	1	-1E+10	1
4902549	54	C	02/05/2022	14:04	-132.017	47.483	0	1295.60	0	2.7190	0	34.4530	0	27.481	0	1280.802	0	11.5	4	3.5	4	-1E+10	1	-1E+10	1	-1E+10	1	-1E+10	1	-1E+10	1	-1E+10	1
4902549	54	C	02/05/2022	14:04	-132.017	47.483	0	1305.60	0	2.7100	0	34.4560	0	27.485	0	1290.657	0	11.8	4	3.6	4	-1E+10	1	-1E+10	1	-1E+10	1	-1E+10	1	-1E+10	1	-1E+10	1
4902549	54	C	02/05/2022	14:04	-132.017	47.483	0	1315.50	0	2.6930	0	34.4590	0	27.488	0	1300.413	0	12.1	4	3.7	4	-1E+10	1	-1E+10	1	-1E+10	1	-1E+10	1	-1E+10	1	-1E+10	1
4902549	54	C	02/05/2022	14:04	-132.017	47.483	0	1325.40	0	2.6650	0	34.4610	0	27.493	0	1310.169	0	12.5	4	3.8	4	-1E+10	1	-1E+10	1	-1E+10	1	-1E+10	1	-1E+10	1	-1E+10	1
4902549	54	C	02/05/2022	14:04	-132.017	47.483	0	1335.50	0	2.6410	0	34.4640	0	27.497	0	1320.121	0	12.8	4	3.9	4	-1E+10	1	-1E+10	1	-1E+10	1	-1E+10	1	-1E+10	1	-1E+10	1
4902549	54	C	02/05/2022	14:04	-132.017	47.483	0	1345.30	0	2.6270	0	34.4660	0	27.500	0	1329.777	0	13.1	4	4.0	4	-1E+10	1	-1E+10	1	-1E+10	1	-1E+10	1	-1E+10	1	-1E+10	1
4902549	54	C	02/05/2022	14:04	-132.017	47.483	0	1355.30	0	2.6100	0	34.4690	0	27.504	0	1339.630	0	13.4	4	4.1	4	-1E+10	1	-1E+10	1	-1E+10	1	-1E+10	1	-1E+10	1	-1E+10	1
4902549	54	C	02/05/2022	14:04	-132.017	47.483	0	1365.50	0	2.5990	0	34.4700	0	27.506	0	1349.680	0	13.7	4	4.2	4	-1E+10	1	-1E+10	1	-1E+10	1	-1E+10	1	-1E+10	1	-1E+10	1
4902549	54	C	02/05/2022	14:04	-132.017	47.483	0	1375.60	0	2.5860	0	34.4710	0	27.508	0	1359.630	0	14.0	4	4.3	4	-1E+10	1	-1E+10	1	-1E+10	1	-1E+10	1	-1E+10	1	-1E+10	1
4902549	54	C	02/05/2022	14:04	-132.017	47.483	0	1385.60	0	2.5730	0	34.4730	0	27.510	0	1369.481	0	14.4	4	4.4	4	-1E+10	1	-1E+10	1	-1E+10	1	-1E+10	1	-1E+10	1	-1E+10	1
4902549	54	C	02/05/2022	14:04	-132.017	47.483	0	1395.50	0	2.5580	0	34.4750	0	27.513	0	1379.234	0	14.8	4	4.5	4	-1E+10	1	-1E+10	1	-1E+10	1	-1E+10	1	-1E+10	1	-1E+10	1
4902549	54	C	02/05/2022	14:04	-132.017	47.483	0	1405.40	0	2.5380	0	34.4780	0	27.517	0	1388.986	0	15.3	4	4.7	4	-1E+10	1	-1E+10	1	-1E+10	1	-1E+10	1	-1E+10	1	-1E+10	1
4902549	54	C	02/05/2022	14:04	-132.017	47.483	0	1415.30	0	2.5260	0	34.4800	0	27.520	0	1398.738	0	15.7	4	4.8	4	-1E+10	1	-1E+10	1	-1E+10	1	-1E+10	1	-1E+10	1	-1E+10	1
4902549	54	C	02/05/2022	14:04	-132.017	47.483	0	1425.30	0	2.5120	0	34.4820	0	27.523	0	1408.587	0	16.3	4	5.0	4	-1E+10	1	-1E+10	1	-1E+10	1	-1E+10	1	-1E+10	1	-1E+10	1
4902549	54	C	02/05/2022	14:04	-132.017	47.483	0	1435.10	0	2.4880	0	34.4860	0	27.528	0	1418.239	0	17.1	4	5.2	4	-1E+10	1	-1E+10	1	-1E+10	1	-1E+10	1	-1E+10	1	-1E+10	1
4902549	54	C	02/05/2022	14:04	-132.017	47.483	0	1445.00	0	2.4660	0	34.4890	0	27.532	0	1427.990	0	17.9	4	5.4	4	-1E+10	1	-1E+10	1	-1E+10	1	-1E+10	1	-1E+10	1	-1E+10	1
4902549	54	C	02/05/2022	14:04	-132.017	47.483	0	1455.10	0	2.4460	0	34.4930	0	27.537	0	1437.936	0	18.6	4	5.7	4	-1E+10	1	-1E+10	1	-1E+10	1	-1E+10	1	-1E+10	1	-1E+10	1
4902549	54	C	02/05/2022	14:04	-132.017	47.483	0	1465.80	0	2.4240	0	34.4970	0	27.542	0	1448.474	0	19.3	4	5.9	4	-1E+10	1	-1E+10	1	-1E+10	1	-1E+10	1	-1E+10	1	-1E+10	1
4902549	54	C	02/05/2022	14:04	-132.017	47.483	0	1475.60	0	2.4140	0	34.4990	0	27.545	0	1458.124	0	20.0	4	6.1	4	-1E+10	1	-1E+10	1	-1E+10	1	-1E+10	1	-1E+10	1	-1E+10	1
4902549	54	C	02/05/2022	14:04	-132.017	47.483	0	1485.40	0	2.4000	0	34.5020	0	27.548	0	1467.774	0	20.5	4	6.2	4	-1E+10	1	-1E+10	1	-1E+10	1	-1E+10	1	-1E+10	1	-1E+10	1
4902549	54	C	02/05/2022	14:04	-132.017	47.483	0	1495.30	0	2.3960	0	34.5040	0	27.550	0	1477.522	0	21.0	4	6.4	4	-1E+10	1	-1E+10	1	-1E+10	1	-1E+10	1	-1E+10	1	-1E+10	1
4902549	54	C	02/05/2022	14:04	-132.017	47.483	0	1505.40	0	2.3810	0	34.5060	0	27.553	0	1487.466	0	21.9	4	6.7	4	-1E+10	1	-1E+10	1	-1E+10	1	-1E+10	1	-1E+10	1	-1E+10	1
4902549	54	C	02/05/2022	14:04	-132.017	47.483	0	1515.50	0	2.3610	0	34.5100	0	27.558	0	1497.410	0	22.4	4	6.8	4	-1E+10	1	-1E+10	1	-1E+10	1	-1E+10	1	-1E+10	1	-1E+10	1
4902549	54	C	02/05/2022	14:04	-132.017	47.483	0	1525.50	0	2.3520	0	34.5110	0	27.560	0	1507.255	0	22.8	4	6.9	4	-1E+10	1	-1E+10	1	-1E+10	1	-1E+10	1	-1E+10	1	-1E+10	1
4902549	54	C	02/05/2022	14:04	-132.017	47.483	0	1535.60	0	2.3400	0	34.5120	0	27.562	0	1517.198	0	23.3	4	7.1	4	-1E+10	1	-1E+10	1	-1E+10	1	-1E+10	1	-1E+10	1	-1E+10	1
4902549	54	C	02/05/2022	14:04	-132.017	47.483	0	1545.70	0	2.3280	0	34.5140	0	27.564	0	1527.140	0	23.7	4	7.2	4	-1E+10	1	-1E+10	1	-1E+10	1	-1E+10	1	-1E+10	1	-1E+10	1
4902549	54	C	02/05/2022	14:04	-132.017	47.483	0	1555.40	0	2.3170	0	34.5160	0	27.567	0	1536.689	0	24.3	4	7.4	4	-1E+10	1	-1E+10	1	-1E+10	1	-1E+10	1	-1E+10	1	-1E+10	1
4902549	54	C	02/05/2022	14:04	-132.017	47.483	0	1565.30	0	2.3060	0	34.5170	0	27.569	0	1546.434	0	24.8	4	7.5	4	-1E+10	1	-1E+10	1	-1E+10	1	-1E+10	1	-1E+10	1	-1E+10	1
4902549	54	C	02/05/2022	14:04	-132.017	47.483	0	1575.30	0	2.2940	0	34.5200	0	27.572	0	1556.276	0	25.5	4	7.7	4	-1E+10	1	-1E+10	1	-1E+10	1	-1E+10	1	-1E+10	1	-1E+10	1
4902549	54	C	02/05/2022	14:04	-132.017	47.483	0	1585.30	0	2.2790	0	34.5220	0	27.575	0	1566.119	0	26.1	4	7.9	4	-1E+10	1	-1E+10	1	-1E+10	1	-1E+10	1	-1E+10	1	-1E+10	1
4902549	54	C	02/05/2022	14:04	-132.017	47.483	0	1595.60	0	2.2700	0	34.5230	0	27.577	0	1576.256	0	26.8	4	8.1	4	-1E+10	1	-1E+10	1	-1E+10	1	-1E+10	1	-1E+10	1	-1E+10	1
4902549	54	C	02/05/2022	14:04	-132.017	47.483	0	1605.50	0	2.2540	0	34.5260	0	27.580	0	1585.998	0	27.5	4	8.4	4	-1E+10	1	-1E+10	1	-1E+10	1	-1E+10	1	-1E+10	1	-1E+10	1
4902549	54	C	02/05/2022	14:04	-132.017	47.483	0	1615.50	0	2.2420	0	34.5280	0	27.583	0	1595.839	0	28.3	4	8.6	4	-1E+10	1	-1E+10	1	-1E+10	1	-1E+10	1	-1E+10	1	-1E+10	1
4902549	54	C	02/05/2022	14:04	-132.017	47.483	0	1625.50	0	2.2270	0	34.5310	0	27.587	0	1605.680	0	28.9	4	8.8	4	-1E+10	1	-1E+10	1	-1E+10	1	-1E+10	1	-1E+10	1	-1E+10	1
4902549	54	C	02/05/2022	14:04	-132.017	47.483	0	1635.80	0	2.2180	0	34.5320	0	27.588	0	1615.815	0	29.5	4	8.9	4	-1E+10	1	-1E+10	1	-1E+10	1	-1E+10	1	-1E+10	1	-1E+10	1
4902549	54	C	02/05/2022	14:04	-132.017	47.483	0	1645.90	0	2.2060	0	34.5340	0	27.591	0	1625.753	0	30.2	4	9.1	4	-1E+10	1	-1E+10	1	-1E+10	1	-1E+10	1	-1E+10	1	-1E+10	1
4902549	54	C	02/05/2022	14:04	-132.017	47.483	0	1655.70	0	2.1980	0	34.5360	0	27.593	0	1635.395	0	30.7	4	9.3	4	-1E+10	1	-1E+10	1	-1E+10	1	-1E+10	1	-1E+10	1	-1E+10	1
4902549	54	C	02/05/2022	14:04	-132.017	47.483	0	1665.40	0	2.1880	0	34.5380	0	27.595	0	1644.938	0	31.3	4	9.5	4	-1E+10	1	-1E+10	1	-1E+10	1	-1E+10	1	-1E+10	1	-1E+10	1
4902549	54	C	02/05/2022	14:04	-132.017	47.483	0	1675.10	0	2.1800	0	34.5390	0	27.597	0	1654.481	0	31.9	4	9.7	4	-1E+10	1	-1E+10	1	-1E+10	1	-1E+10	1	-1E+10	1	-1E+10	1
4902549	54	C	02/05/2022	14:04	-132.017	47.483	0	1685.00	0	2.1700	0	34.5410	0	27.599	0	1664.221	0	32.5	4	9.8	4	-1E+10	1	-1E+10	1	-1E+10	1	-1E+10	1	-1E+10	1	-1E+10	1
4902549	54	C	02/05/2022	14:04	-132.017	47.483	0	1695.20	0	2.1600	0	34.5420	0	27.601	0	1674.255	0	33.2	4	10.0	4	-1E+10	1	-1E+10	1	-1E+10	1	-1E+10	1	-1E+10	1	-1E+10	1
4902549	54	C	02/05/2022	14:04	-132.017	47.483	0	1705.60	0	2.1490	0	34.5440	0	27.604	0	1684.485	0	33.8	4	10.2	4	-1E+10	1	-1E+10	1	-1E+10	1	-1E+10	1	-1E+10	1	-1E+10	1
4902549	54	C	02/05/2022	14:04	-132.017	47.483	0	1715.60	0	2.1440	0	34.5460	0	27.606	0	1694.321	0	34.1	4	10.3	4	-1E+10	1	-1E+10	1	-1E+10	1	-1E+10	1	-1E+10	1	-1E+10	1
4902549	54	C	02/05/2022	14:04	-132.017	47.483	0	1725.50	0	2.1390	0	34.5460	0	27.606	0	1704.059	0	34.6	4	10.5	4	-1E+10	1	-1E+10	1	-1E+10	1	-1E+10	1	-1E+10	1	-1E+10	1
4902549	54	C	02/05/2022	14:04	-132.017	47.483	0	1735.40	0	2.1330	0	34.5470	0	27.607	0	1713.796	0	35.2	4	10.6	4	-1E+10	1	-1E+10	1	-1E+10	1	-1E+10	1	-1E+10	1	-1E+10	1
4902549	54	C	02/05/2022	14:04	-132.017	47.483	0	1745.50	0	2.1200	0	34.5500	0	27.611	0	1723.729	0	35.9	4	10.8	4	-1E+10	1	-1E+10	1	-1E+10	1	-1E+10	1	-1E+10	1	-1E+10	1
4902549	54	C	02/05/2022	14:04	-132.017	47.483	0	1755.20	0	2.1120	0	34.5510	0	27.612	0	1733.268	0	36.3	4	11.0	4	-1E+10	1	-1E+10	1	-1E+10	1	-1E+10	1	-1E+10	1	-1E+10	1
4902549	54	C	02/05/2022	14:04	-132.017	47.483	0	1765.10	0	2.1060	0	34.5520	0	27.614	0	1743.004	0	36.7	4	11.1	4	-1E+10	1	-1E+10	1	-1E+10	1	-1E+10	1	-1E+10	1	-1E+10	1
4902549	54	C	02/05/2022	14:04	-132.017	47.483	0	1775.40	0	2.0990	0	34.5540	0	27.616	0	1753.133	0	37.1	4	11.2	4	-1E+10	1	-1E+10	1	-1E+10	1	-1E+10	1	-1E+10	1	-1E+10	1
4902549	54	C	02/05/2022	14:04	-132.017	47.483	0	1785.60	0	2.0970	0	34.5540	0	27.616	0	1763.162	0	37.3	4	11.3	4	-1E+10	1	-1E+10	1	-1E+10	1	-1E+10	1	-1E+10	1	-1E+10	1
4902549	54	C	02/05/2022	14:04	-132.017	47.483	0	1795.30	0	2.0950	0	34.5540	0	27.616	0	1772.700	0	37.7	4	11.4	4	-1E+10	1	-1E+10	1	-1E+10	1	-1E+10	1	-1E+10	1	-1E+10	1
4902549	54	C	02/05/2022	14:04	-132.017	47.483	0	1805.00	0	2.0860	0	34.5560	0	27.619	0	1782.237	0	38.4	4	11.6	4	-1E+10	1	-1E+10	1	-1E+10	1	-1E+10	1	-1E+10	1	-1E+10	1
4902549	54	C	02/05/2022	14:04	-132.017	47.483	0	1815.00	0	2.0760	0	34.5580	0	27.621	0	1792.069	0	39.0	4	11.8	4	-1E+10	1	-1E+10	1	-1E+10	1	-1E+10	1	-1E+10	1	-1E+10	1
4902549	54	C	02/05/2022	14:04	-132.017	47.483	0	1825.00	0	2.0690	0	34.5590	0	27.623	0	1801.900	0	39.5	4	11.9	4	-1E+10	1	-1E+10	1	-1E+10	1	-1E+10	1	-1E+10	1	-1E+10	1
4902549	54	C	02/05/2022	14:04	-132.017	47.483	0	1835.30	0	2.0630	0	34.5600	0	27.624	0	1812.026	0	40.2	4	12.1	4	-1E+10	1	-1E+10	1	-1E+10	1	-1E+10	1	-1E+10	1	-1E+10	1
4902549	54	C	02/05/2022	14:04	-132.017	47.483	0	1845.60	0	2.0540	0	34.5620	0	27.626	0	1822.151	0	40.9	4	12.3	4	-1E+10	1	-1E+10	1	-1E+10	1	-1E+10	1	-1E+10	1	-1E+10	1
4902549	54	C	02/05/2022	14:04	-132.017	47.483	0	1855.50	0	2.0460	0	34.5630	0	27.628	0	1831.883	0	41.7	4	12.6	4	-1E+10	1	-1E+10	1	-1E+10	1	-1E+10	1	-1E+10	1	-1E+10	1
4902549	54	C	02/05/2022	14:04	-132.017	47.483	0	1865.20	0	2.0370	0	34.5650	0	27.630	0	1841.417	0	42.2	4	12.7	4	-1E+10	1	-1E+10	1	-1E+10	1	-1E+10	1	-1E+10	1	-1E+10	1
4902549	54	C	02/05/2022	14:04	-132.017	47.483	0	1875.30	0	2.0350	0	34.5660	0	27.631	0	1851.345	0	43.0	4	13.0	4	-1E+10	1	-1E+10	1	-1E+10	1	-1E+10	1	-1E+10	1	-1E+10	1
4902549	54	C	02/05/2022	14:04	-132.017	47.483	0	1885.40	0	2.0180	0	34.5690	0	27.635	0	1861.272	0	44.1	4	13.3	4	-1E+10	1	-1E+10	1	-1E+10	1	-1E+10	1	-1E+10	1	-1E+10	1
4902549	54	C	02/05/2022	14:04	-132.017	47.483	0	1895.60	0	2.0110	0	34.5700	0	27.636	0	1871.296	0	44.6	4	13.4	4	-1E+10	1	-1E+10	1	-1E+10	1	-1E+10	1	-1E+10	1	-1E+10	1
4902549	54	C	02/05/2022	14:04	-132.017	47.483	0	1905.50	0	2.0060	0	34.5710	0	27.638	0	1881.026	0	45.0	4	13.6	4	-1E+10	1	-1E+10	1	-1E+10	1	-1E+10	1	-1E+10	1	-1E+10	1
4902549	54	C	02/05/2022	14:04	-132.017	47.483	0	1915.10	0	2.0030	0	34.5720	0	27.639	0	1890.460	0	45.5	4	13.7	4	-1E+10	1	-1E+10	1	-1E+10	1	-1E+10	1	-1E+10	1	-1E+10	1
4902549	54	C	02/05/2022	14:04	-132.017	47.483	0	1925.40	0	1.9950	0	34.5740	0	27.641	0	1900.581	0	46.3	4	14.0	4	-1E+10	1	-1E+10	1	-1E+10	1	-1E+10	1	-1E+10	1	-1E+10	1
4902549	54	C	02/05/2022	14:04	-132.017	47.483	0	1935.70	0	1.9840	0	34.5760	0	27.643	0	1910.702	0	47.0	4	14.2	4	-1E+10	1	-1E+10	1	-1E+10	1	-1E+10	1	-1E+10	1	-1E+10	1
4902549	54	C	02/05/2022	14:04	-132.017	47.483	0	1945.40	0	1.9770	0	34.5770	0	27.645	0	1920.233	0	47.7	4	14.4	4	-1E+10	1	-1E+10	1	-1E+10	1	-1E+10	1	-1E+10	1	-1E+10	1
4902549	54	C	02/05/2022	14:04	-132.017	47.483	0	1955.10	0	1.9710	0	34.5780	0	27.646	0	1929.764	0	48.1	4	14.5	4	-1E+10	1	-1E+10	1	-1E+10	1	-1E+10	1	-1E+10	1	-1E+10	1
4902549	54	C	02/05/2022	14:04	-132.017	47.483	0	1965.30	0	1.9660	0	34.5790	0	27.647	0	1939.785	0	48.6	4	14.6	4	-1E+10	1	-1E+10	1	-1E+10	1	-1E+10	1	-1E+10	1	-1E+10	1
4902549	54	C	02/05/2022	14:04	-132.017	47.483	0	1975.70	0	1.9610	0	34.5800	0	27.649	0	1950.003	0	49.0	4	14.8	4	-1E+10	1	-1E+10	1	-1E+10	1	-1E+10	1	-1E+10	1	-1E+10	1
4902549	54	C	02/05/2022	14:04	-132.017	47.483	0	1985.70	0	1.9550	0	34.5810	0	27.650	0	1959.826	0	49.6	4	14.9	4	-1E+10	1	-1E+10	1	-1E+10	1	-1E+10	1	-1E+10	1	-1E+10	1
4902549	54	C	02/05/2022	14:04	-132.017	47.483	0	1995.60	0	1.9480	0	34.5830	0	27.652	0	1969.552	0	49.9	4	15.0	4	-1E+10	1	-1E+10	1	-1E+10	1	-1E+10	1	-1E+10	1	-1E+10	1
4902549	54	C	02/05/2022	14:04	-132.017	47.483	0	2005.10	0	1.9450	0	34.5830	0	27.652	0	1978.884	0	50.0	4	15.1	4	-1E+10	1	-1E+10	1	-1E+10	1	-1E+10	1	-1E+10	1	-1E+10	1
4902549	54	C	02/05/2022	14:04	-132.017	47.483	0	2015.70	0	1.9380	0	34.5850	0	27.655	0	1989.296	0	49.8	4	15.0	4	-1E+10	1	-1E+10	1	-1E+10	1	-1E+10	1	-1E+10	1	-1E+10	1
4902549	54	C	02/05/2022	14:04	-132.017	47.483	0	2021.10	0	1.9340	0	34.5860	0	27.656	0	1994.600	0	48.8	4	14.7	4	-1E+10	1	-1E+10	1	-1E+10	1	-1E+10	1	-1E+10	1	-1E+10	1
4902549	54	C	02/05/2022	14:04	-132.017	47.483	0																										
4902549	55	C	02/15/2022	18:57	-131.961	47.504	0	0.20	0	7.7880	0	32.3380	0	25.214	0	0.198	0	281.7	4	95.8	4	-1E+10	1	-1E+10	1	-1E+10	1	-1E+10	1	-1E+10	1	-1E+10	1
4902549	55	C	02/15/2022	18:57	-131.961	47.504	0	0.30	0	7.7880	0	32.3380	0	25.214	0	0.297	0	281.5	4	95.8	4	-1E+10	1	-1E+10	1	-1E+10	1	-1E+10	1	-1E+10	1	-1E+10	1
4902549	55	C	02/15/2022	18:57	-131.961	47.504	0	0.40	0	7.7860	0	32.3370	0	25.214	0	0.397	0	281.4	4	95.7	4	-1E+10	1	-1E+10	1	-1E+10	1	-1E+10	1	-1E+10	1	-1E+10	1
4902549	55	C	02/15/2022	18:57	-131.961	47.504	0	0.70	0	7.7860	0	32.3365	0	25.213	0	0.694	0	281.3	4	95.7	4	-1E+10	1	-1E+10	1	-1E+10	1	-1E+10	1	-1E+10	1	-1E+10	1
4902549	55	C	02/15/2022	18:57	-131.961	47.504	0	1.00	0	7.7860	0	32.3360	0	25.213	0	0.992	0	281.3	4	95.7	4	-1E+10	1	-1E+10	1	-1E+10	1	-1E+10	1	-1E+10	1	-1E+10	1
4902549	55	C	02/15/2022	18:57	-131.961	47.504	0	1.90	0	7.7850	0	32.3350	0	25.212	0	1.884	0	281.4	4	95.7	4	-1E+10	1	-1E+10	1	-1E+10	1	-1E+10	1	-1E+10	1	-1E+10	1
4902549	55	C	02/15/2022	18:57	-131.961	47.504	0	2.80	0	7.7850	0	32.3350	0	25.212	0	2.777	0	281.4	4	95.7	4	-1E+10	1	-1E+10	1	-1E+10	1	-1E+10	1	-1E+10	1	-1E+10	1
4902549	55	C	02/15/2022	18:57	-131.961	47.504	0	3.80	0	7.7840	0	32.3360	0	25.213	0	3.768	0	281.2	4	95.7	4	-1E+10	1	-1E+10	1	-1E+10	1	-1E+10	1	-1E+10	1	-1E+10	1
4902549	55	C	02/15/2022	18:57	-131.961	47.504	0	4.90	0	7.7820	0	32.3370	0	25.214	0	4.859	0	281.2	4	95.7	4	-1E+10	1	-1E+10	1	-1E+10	1	-1E+10	1	-1E+10	1	-1E+10	1
4902549	55	C	02/15/2022	18:57	-131.961	47.504	0	6.10	0	7.7820	0	32.3370	0	25.214	0	6.049	0	281.2	4	95.6	4	-1E+10	1	-1E+10	1	-1E+10	1	-1E+10	1	-1E+10	1	-1E+10	1
4902549	55	C	02/15/2022	18:57	-131.961	47.504	0	7.10	0	7.7820	0	32.3370	0	25.215	0	7.041	0	281.2	4	95.7	4	-1E+10	1	-1E+10	1	-1E+10	1	-1E+10	1	-1E+10	1	-1E+10	1
4902549	55	C	02/15/2022	18:57	-131.961	47.504	0	8.10	0	7.7820	0	32.3370	0	25.215	0	8.032	0	281.1	4	95.6	4	-1E+10	1	-1E+10	1	-1E+10	1	-1E+10	1	-1E+10	1	-1E+10	1
4902549	55	C	02/15/2022	18:57	-131.961	47.504	0	8.90	0	7.7820	0	32.3370	0	25.215	0	8.826	0	281.1	4	95.6	4	-1E+10	1	-1E+10	1	-1E+10	1	-1E+10	1	-1E+10	1	-1E+10	1
4902549	55	C	02/15/2022	18:57	-131.961	47.504	0	9.70	0	7.7820	0	32.3370	0	25.215	0	9.619	0	281.2	4	95.6	4	-1E+10	1	-1E+10	1	-1E+10	1	-1E+10	1	-1E+10	1	-1E+10	1
4902549	55	C	02/15/2022	18:57	-131.961	47.504	0	11.10	0	7.7820	0	32.3370	0	25.215	0	11.007	0	281.1	4	95.6	4	-1E+10	1	-1E+10	1	-1E+10	1	-1E+10	1	-1E+10	1	-1E+10	1
4902549	55	C	02/15/2022	18:57	-131.961	47.504	0	12.20	0	7.7820	0	32.3370	0	25.215	0	12.098	0	281.1	4	95.6	4	-1E+10	1	-1E+10	1	-1E+10	1	-1E+10	1	-1E+10	1	-1E+10	1
4902549	55	C	02/15/2022	18:57	-131.961	47.504	0	13.00	0	7.7820	0	32.3370	0	25.215	0	12.891	0	281.1	4	95.6	4	-1E+10	1	-1E+10	1	-1E+10	1	-1E+10	1	-1E+10	1	-1E+10	1
4902549	55	C	02/15/2022	18:57	-131.961	47.504	0	14.00	0	7.7820	0	32.3370	0	25.215	0	13.883	0	281.1	4	95.6	4	-1E+10	1	-1E+10	1	-1E+10	1	-1E+10	1	-1E+10	1	-1E+10	1
4902549	55	C	02/15/2022	18:57	-131.961	47.504	0	14.90	0	7.7820	0	32.3370	0	25.215	0	14.775	0	281.0	4	95.6	4	-1E+10	1	-1E+10	1	-1E+10	1	-1E+10	1	-1E+10	1	-1E+10	1
4902549	55	C	02/15/2022	18:57	-131.961	47.504	0	16.00	0	7.7820	0	32.3370	0	25.215	0	15.866	0	281.0	4	95.6	4	-1E+10	1	-1E+10	1	-1E+10	1	-1E+10	1	-1E+10	1	-1E+10	1
4902549	55	C	02/15/2022	18:57	-131.961	47.504	0	17.10	0	7.7830	0	32.3370	0	25.214	0	16.957	0	281.0	4	95.6	4	-1E+10	1	-1E+10	1	-1E+10	1	-1E+10	1	-1E+10	1	-1E+10	1
4902549	55	C	02/15/2022	18:57	-131.961	47.504	0	17.80	0	7.7820	0	32.3370	0	25.215	0	17.651	0	281.0	4	95.6	4	-1E+10	1	-1E+10	1	-1E+10	1	-1E+10	1	-1E+10	1	-1E+10	1
4902549	55	C	02/15/2022	18:57	-131.961	47.504	0	18.90	0	7.7830	0	32.3370	0	25.215	0	18.741	0	281.0	4	95.6	4	-1E+10	1	-1E+10	1	-1E+10	1	-1E+10	1	-1E+10	1	-1E+10	1
4902549	55	C	02/15/2022	18:57	-131.961	47.504	0	20.10	0	7.7820	0	32.3370	0	25.215	0	19.931	0	281.0	4	95.6	4	-1E+10	1	-1E+10	1	-1E+10	1	-1E+10	1	-1E+10	1	-1E+10	1
4902549	55	C	02/15/2022	18:57	-131.961	47.504	0	20.80	0	7.7830	0	32.3370	0	25.215	0	20.625	0	280.9	4	95.6	4	-1E+10	1	-1E+10	1	-1E+10	1	-1E+10	1	-1E+10	1	-1E+10	1
4902549	55	C	02/15/2022	18:57	-131.961	47.504	0	22.00	0	7.7830	0	32.3370	0	25.215	0	21.815	0	281.0	4	95.6	4	-1E+10	1	-1E+10	1	-1E+10	1	-1E+10	1	-1E+10	1	-1E+10	1
4902549	55	C	02/15/2022	18:57	-131.961	47.504	0	23.10	0	7.7830	0	32.3370	0	25.215	0	22.906	0	280.9	4	95.6	4	-1E+10	1	-1E+10	1	-1E+10	1	-1E+10	1	-1E+10	1	-1E+10	1
4902549	55	C	02/15/2022	18:57	-131.961	47.504	0	24.00	0	7.7830	0	32.3370	0	25.215	0	23.798	0	280.8	4	95.5	4	-1E+10	1	-1E+10	1	-1E+10	1	-1E+10	1	-1E+10	1	-1E+10	1
4902549	55	C	02/15/2022	18:57	-131.961	47.504	0	25.30	0	7.7840	0	32.3370	0	25.214	0	25.087	0	280.9	4	95.6	4	-1E+10	1	-1E+10	1	-1E+10	1	-1E+10	1	-1E+10	1	-1E+10	1
4902549	55	C	02/15/2022	18:57	-131.961	47.504	0	26.00	0	7.7840	0	32.3370	0	25.214	0	25.781	0	280.8	4	95.5	4	-1E+10	1	-1E+10	1	-1E+10	1	-1E+10	1	-1E+10	1	-1E+10	1
4902549	55	C	02/15/2022	18:57	-131.961	47.504	0	27.20	0	7.7840	0	32.3370	0	25.214	0	26.971	0	280.9	4	95.5	4	-1E+10	1	-1E+10	1	-1E+10	1	-1E+10	1	-1E+10	1	-1E+10	1
4902549	55	C	02/15/2022	18:57	-131.961	47.504	0	27.80	0	7.7830	0	32.3370	0	25.215	0	27.566	0	280.8	4	95.5	4	-1E+10	1	-1E+10	1	-1E+10	1	-1E+10	1	-1E+10	1	-1E+10	1
4902549	55	C	02/15/2022	18:57	-131.961	47.504	0	28.90	0	7.7830	0	32.3370	0	25.215	0	28.657	0	280.8	4	95.5	4	-1E+10	1	-1E+10	1	-1E+10	1	-1E+10	1	-1E+10	1	-1E+10	1
4902549	55	C	02/15/2022	18:57	-131.961	47.504	0	30.10	0	7.7830	0	32.3370	0	25.215	0	29.847	0	280.8	4	95.5	4	-1E+10	1	-1E+10	1	-1E+10	1	-1E+10	1	-1E+10	1	-1E+10	1
4902549	55	C	02/15/2022	18:57	-131.961	47.504	0	31.10	0	7.7840	0	32.3370	0	25.215	0	30.838	0	280.7	4	95.5	4	-1E+10	1	-1E+10	1	-1E+10	1	-1E+10	1	-1E+10	1	-1E+10	1
4902549	55	C	02/15/2022	18:57	-131.961	47.504	0	32.00	0	7.7840	0	32.3370	0	25.215	0	31.730	0	280.6	4	95.5	4	-1E+10	1	-1E+10	1	-1E+10	1	-1E+10	1	-1E+10	1	-1E+10	1
4902549	55	C	02/15/2022	18:57	-131.961	47.504	0	33.10	0	7.7830	0	32.3370	0	25.215	0	32.821	0	280.6	4	95.5	4	-1E+10	1	-1E+10	1	-1E+10	1	-1E+10	1	-1E+10	1	-1E+10	1
4902549	55	C	02/15/2022	18:57	-131.961	47.504	0	34.30	0	7.7830	0	32.3370	0	25.215	0	34.011	0	280.6	4	95.4	4	-1E+10	1	-1E+10	1	-1E+10	1	-1E+10	1	-1E+10	1	-1E+10	1
4902549	55	C	02/15/2022	18:57	-131.961	47.504	0	35.20	0	7.7830	0	32.3370	0	25.215	0	34.903	0	280.6	4	95.5	4	-1E+10	1	-1E+10	1	-1E+10	1	-1E+10	1	-1E+10	1	-1E+10	1
4902549	55	C	02/15/2022	18:57	-131.961	47.504	0	35.90	0	7.7810	0	32.3360	0	25.214	0	35.597	0	280.6	4	95.4	4	-1E+10	1	-1E+10	1	-1E+10	1	-1E+10	1	-1E+10	1	-1E+10	1
4902549	55	C	02/15/2022	18:57	-131.961	47.504	0	36.80	0	7.7800	0	32.3370	0	25.215	0	36.490	0	280.6	4	95.4	4	-1E+10	1	-1E+10	1	-1E+10	1	-1E+10	1	-1E+10	1	-1E+10	1
4902549	55	C	02/15/2022	18:57	-131.961	47.504	0	37.80	0	7.7810	0	32.3370	0	25.215	0	37.481	0	280.6	4	95.4	4	-1E+10	1	-1E+10	1	-1E+10	1	-1E+10	1	-1E+10	1	-1E+10	1
4902549	55	C	02/15/2022	18:57	-131.961	47.504	0	38.80	0	7.7810	0	32.3370	0	25.215	0	38.473	0	280.5	4	95.4	4	-1E+10	1	-1E+10	1	-1E+10	1	-1E+10	1	-1E+10	1	-1E+10	1
4902549	55	C	02/15/2022	18:57	-131.961	47.504	0	39.90	0	7.7800	0	32.3370	0	25.215	0	39.563	0	280.4	4	95.4	4	-1E+10	1	-1E+10	1	-1E+10	1	-1E+10	1	-1E+10	1	-1E+10	1
4902549	55	C	02/15/2022	18:57	-131.961	47.504	0	40.90	0	7.7780	0	32.3370	0	25.216	0	40.555	0	280.3	4	95.3	4	-1E+10	1	-1E+10	1	-1E+10	1	-1E+10	1	-1E+10	1	-1E+10	1
4902549	55	C	02/15/2022	18:57	-131.961	47.504	0	41.90	0	7.7780	0	32.3370	0	25.216	0	41.546	0	280.4	4	95.4	4	-1E+10	1	-1E+10	1	-1E+10	1	-1E+10	1	-1E+10	1	-1E+10	1
4902549	55	C	02/15/2022	18:57	-131.961	47.504	0	43.10	0	7.7780	0	32.3360	0	25.215	0	42.736	0	280.3	4	95.3	4	-1E+10	1	-1E+10	1	-1E+10	1	-1E+10	1	-1E+10	1	-1E+10	1
4902549	55	C	02/15/2022	18:57	-131.961	47.504	0	43.80	0	7.7790	0	32.3370	0	25.215	0	43.430	0	280.3	4	95.3	4	-1E+10	1	-1E+10	1	-1E+10	1	-1E+10	1	-1E+10	1	-1E+10	1
4902549	55	C	02/15/2022	18:57	-131.961	47.504	0	44.90	0	7.7790	0	32.3350	0	25.214	0	44.520	0	280.1	4	95.3	4	-1E+10	1	-1E+10	1	-1E+10	1	-1E+10	1	-1E+10	1	-1E+10	1
4902549	55	C	02/15/2022	18:57	-131.961	47.504	0	46.30	0	7.7720	0	32.3360	0	25.216	0	45.908	0	279.9	4	95.2	4	-1E+10	1	-1E+10	1	-1E+10	1	-1E+10	1	-1E+10	1	-1E+10	1
4902549	55	C	02/15/2022	18:57	-131.961	47.504	0	47.00	0	7.7670	0	32.3380	0	25.218	0	46.602	0	279.9	4	95.2	4	-1E+10	1	-1E+10	1	-1E+10	1	-1E+10	1	-1E+10	1	-1E+10	1
4902549	55	C	02/15/2022	18:57	-131.961	47.504	0	47.90	0	7.7660	0	32.3370	0	25.217	0	47.495	0	279.8	4	95.1	4	-1E+10	1	-1E+10	1	-1E+10	1	-1E+10	1	-1E+10	1	-1E+10	1
4902549	55	C	02/15/2022	18:57	-131.961	47.504	0	49.10	0	7.7550	0	32.3350	0	25.217	0	48.684	0	279.7	4	95.1	4	-1E+10	1	-1E+10	1	-1E+10	1	-1E+10	1	-1E+10	1	-1E+10	1
4902549	55	C	02/15/2022	18:57	-131.961	47.504	0	49.80	0	7.7550	0	32.3350	0	25.217	0	49.378	0	279.6	4	95.1	4	-1E+10	1	-1E+10	1	-1E+10	1	-1E+10	1	-1E+10	1	-1E+10	1
4902549	55	C	02/15/2022	18:57	-131.961	47.504	0	50.80	0	7.7530	0	32.3330	0	25.216	0	50.370	0	279.5	4	95.0	4	-1E+10	1	-1E+10	1	-1E+10	1	-1E+10	1	-1E+10	1	-1E+10	1
4902549	55	C	02/15/2022	18:57	-131.961	47.504	0	51.80	0	7.7210	0	32.3300	0	25.218	0	51.361	0	279.6	4	95.0	4	-1E+10	1	-1E+10	1	-1E+10	1	-1E+10	1	-1E+10	1	-1E+10	1
4902549	55	C	02/15/2022	18:57	-131.961	47.504	0	52.70	0	7.6850	0	32.3300	0	25.223	0	52.253	0	279.6	4	94.9	4	-1E+10	1	-1E+10	1	-1E+10	1	-1E+10	1	-1E+10	1	-1E+10	1
4902549	55	C	02/15/2022	18:57	-131.961	47.504	0	54.10	0	7.6570	0	32.3300	0	25.227	0	53.641	0	279.6	4	94.9	4	-1E+10	1	-1E+10	1	-1E+10	1	-1E+10	1	-1E+10	1	-1E+10	1
4902549	55	C	02/15/2022	18:57	-131.961	47.504	0	55.10	0	7.6410	0	32.3300	0	25.229	0	54.633	0	279.6	4	94.8	4	-1E+10	1	-1E+10	1	-1E+10	1	-1E+10	1	-1E+10	1	-1E+10	1
4902549	55	C	02/15/2022	18:57	-131.961	47.504	0	56.00	0	7.6300	0	32.3280	0	25.229	0	55.525	0	279.6	4	94.8	4	-1E+10	1	-1E+10	1	-1E+10	1	-1E+10	1	-1E+10	1	-1E+10	1
4902549	55	C	02/15/2022	18:57	-131.961	47.504	0	57.20	0	7.6250	0	32.3290	0	25.231	0	56.715	0	279.6	4	94.8	4	-1E+10	1	-1E+10	1	-1E+10	1	-1E+10	1	-1E+10	1	-1E+10	1
4902549	55	C	02/15/2022	18:57	-131.961	47.504	0	57.90	0	7.6210	0	32.3270	0	25.230	0	57.409	0	279.5	4	94.7	4	-1E+10	1	-1E+10	1	-1E+10	1	-1E+10	1	-1E+10	1	-1E+10	1
4902549	55	C	02/15/2022	18:57	-131.961	47.504	0	58.80	0	7.6050	0	32.3280	0	25.233	0	58.301	0	279.4	4	94.7	4	-1E+10	1	-1E+10	1	-1E+10	1	-1E+10	1	-1E+10	1	-1E+10	1
4902549	55	C	02/15/2022	18:57	-131.961	47.504	0	59.80	0	7.5980	0	32.3270	0	25.233	0	59.292	0	279.3	4	94.6	4	-1E+10	1	-1E+10	1	-1E+10	1	-1E+10	1	-1E+10	1	-1E+10	1
4902549	55	C	02/15/2022	18:57	-131.961	47.504	0	60.80	0	7.5880	0	32.3260	0	25.234	0	60.284	0	279.3	4	94.6	4	-1E+10	1	-1E+10	1	-1E+10	1	-1E+10	1	-1E+10	1	-1E+10	1
4902549	55	C	02/15/2022	18:57	-131.961	47.504	0	61.70	0	7.5770	0	32.3250	0	25.235	0	61.176	0	279.2	4	94.5	4	-1E+10	1	-1E+10	1	-1E+10	1	-1E+10	1	-1E+10	1	-1E+10	1
4902549	55	C	02/15/2022	18:57	-131.961	47.504	0	62.90	0	7.5680	0	32.3250	0	25.236	0	62.366	0	279.1	4	94.5	4	-1E+10	1	-1E+10	1	-1E+10	1	-1E+10	1	-1E+10	1	-1E+10	1
4902549	55	C	02/15/2022	18:57	-131.961	47.504	0	64.10	0	7.5640	0	32.3240	0	25.236	0	63.555	0	278.7	4	94.3	4	-1E+10	1	-1E+10	1	-1E+10	1	-1E+10	1	-1E+10	1	-1E+10	1
4902549	55	C	02/15/2022	18:57	-131.961	47.504	0	65.00	0	7.5500	0	32.3230	0	25.237	0	64.447	0	278.6	4	94.3	4	-1E+10	1	-1E+10	1	-1E+10	1	-1E+10	1	-1E+10	1	-1E+10	1
4902549	55	C	02/15/2022	18:57	-131.961	47.504	0	66.00	0	7.5400	0	32.3210	0	25.237	0	65.439	0	278.5	4	94.2	4	-1E+10	1	-1E+10	1	-1E+10	1	-1E+10	1	-1E+10	1	-1E+10	1
4902549	55	C	02/15/2022	18:57	-131.961	47.504	0	67.00	0	7.4770	0	32.3220	0	25.246	0	66.430	0	278.4	4	94.0	4	-1E+10	1	-1E+10	1	-1E+10	1	-1E+10	1	-1E+10	1	-1E+10	1
4902549	55	C	02/15/2022	18:57	-131.961	47.504	0	68.00	0	7.4600	0	32.3200	0	25.247	0	67.421	0	278.2	4	93.9	4	-1E+10	1	-1E+10	1	-1E+10	1	-1E+10	1	-1E+10	1	-1E+10	1
4902549	55	C	02/15/2022	18:57	-131.961	47.504	0	69.10	0	7.4640	0	32.3210	0	25.247	0	68.512	0	277.9	4	93.9	4	-1E+10	1	-1E+10	1	-1E+10	1	-1E+10	1	-1E+10	1	-1E+10	1
4902549	55	C	02/15/2022	18:57	-131.961	47.504	0	70.00	0	7.4730	0	32.3250	0	25.249	0	69.404	0	277.6	4	93.8	4	-1E+10	1	-1E+10	1	-1E+10	1	-1E+10	1	-1E+10	1	-1E+10	1
4902549	55	C	02/15/2022	18:57	-131.961	47.504	0	70.80	0	7.4750	0	32.3250	0	25.249	0	70.197	0	277.3	4	93.7	4	-1E+10	1	-1E+10	1	-1E+10	1	-1E+10	1	-1E+10	1	-1E+10	1
4902549	55	C	02/15/2022	18:57	-131.961	47.504	0	72.00	0	7.4730	0	32.3250	0	25.249	0	71.387	0	277.0	4	93.5	4	-1E+10	1	-1E+10	1	-1E+10	1	-1E+10	1	-1E+10	1	-1E+10	1
4902549	55	C	02/15/2022	18:57	-131.961	47.504	0	72.90	0	7.4710	0	32.3260	0	25.250	0	72.279	0	276.8	4	93.5	4	-1E+10	1	-1E+10	1	-1E+10	1	-1E+10	1	-1E+10	1	-1E+10	1
4902549	55	C	02/15/2022	18:57	-131.961	47.504	0	73.90	0	7.4870	0	32.3300	0	25.251	0	73.270	0	276.3	4	93.4	4	-1E+10	1	-1E+10	1	-1E+10	1	-1E+10	1	-1E+10	1	-1E+10	1
4902549	55	C	02/15/2022	18:57	-131.961	47.504	0	74.80	0	7.4860	0	32.3320	0	25.253	0	74.162	0	276.1	4	93.3	4	-1E+10	1	-1E+10	1	-1E+10	1	-1E+10	1	-1E+10	1	-1E+10	1
4902549	55	C	02/15/2022	18:57	-131.961	47.504	0	75.80	0	7.4830	0	32.3320	0	25.253	0	75.154	0	275.9	4	93.2	4	-1E+10	1	-1E+10	1	-1E+10	1	-1E+10	1	-1E+10	1	-1E+10	1
4902549	55	C	02/15/2022	18:57	-131.961	47.504	0	77.00	0	7.4890	0	32.3350	0	25.255	0	76.343	0	275.5	4	93.1	4	-1E+10	1	-1E+10	1	-1E+10	1	-1E+10	1	-1E+10	1	-1E+10	1
4902549	55	C	02/15/2022	18:57	-131.961	47.504	0	78.00	0	7.4920	0	32.3360	0	25.255	0	77.334	0	275.3	4	93.1	4	-1E+10	1	-1E+10	1	-1E+10	1	-1E+10	1	-1E+10	1	-1E+10	1
4902549	55	C	02/15/2022	18:57	-131.961	47.504	0	79.00	0	7.4910	0	32.3360	0	25.255	0	78.326	0	275.1	4	93.0	4	-1E+10	1	-1E+10	1	-1E+10	1	-1E+10	1	-1E+10	1	-1E+10	1
4902549	55	C	02/15/2022	18:57	-131.961	47.504	0	80.00	0	7.4890	0	32.3360	0	25.256	0	79.317	0	275.0	4	92.9	4	-1E+10	1	-1E+10	1	-1E+10	1	-1E+10	1	-1E+10	1	-1E+10	1
4902549	55	C	02/15/2022	18:57	-131.961	47.504	0	81.00	0	7.4890	0	32.3360	0	25.256	0	80.308	0	274.7	4	92.8	4	-1E+10	1	-1E+10	1	-1E+10	1	-1E+10	1	-1E+10	1	-1E+10	1
4902549	55	C	02/15/2022	18:57	-131.961	47.504	0	82.00	0	7.4870	0	32.3360	0	25.256	0	81.299	0	274.5	4	92.8	4	-1E+10	1	-1E+10	1	-1E+10	1	-1E+10	1	-1E+10	1	-1E+10	1
4902549	55	C	02/15/2022	18:57	-131.961	47.504	0	83.00	0	7.4630	0	32.3350	0	25.259	0	82.291	0	281.3	4	95.0	4	-1E+10	1	-1E+10	1	-1E+10	1	-1E+10	1	-1E+10	1	-1E+10	1
4902549	55	C	02/15/2022	18:57	-131.961	47.504	0	84.00	0	7.4400	0	32.3340	0	25.261	0	83.282	0	281.0	4	94.9	4	-1E+10	1	-1E+10	1	-1E+10	1	-1E+10	1	-1E+10	1	-1E+10	1
4902549	55	C	02/15/2022	18:57	-131.961	47.504	0	85.00	0	7.4170	0	32.3320	0	25.263	0	84.273	0	280.7	4	94.7	4	-1E+10	1	-1E+10	1	-1E+10	1	-1E+10	1	-1E+10	1	-1E+10	1
4902549	55	C	02/15/2022	18:57	-131.961	47.504	0	86.00	0	7.4170	0	32.3340	0	25.264	0	85.264	0	280.2	4	94.5	4	-1E+10	1	-1E+10	1	-1E+10	1	-1E+10	1	-1E+10	1	-1E+10	1
4902549	55	C	02/15/2022	18:57	-131.961	47.504	0	86.90	0	7.4120	0	32.3380	0	25.268	0	86.157	0	279.8	4	94.4	4	-1E+10	1	-1E+10	1	-1E+10	1	-1E+10	1	-1E+10	1	-1E+10	1
4902549	55	C	02/15/2022	18:57	-131.961	47.504	0	88.00	0	7.4070	0	32.3400	0	25.270	0	87.247	0	279.2	4	94.2	4	-1E+10	1	-1E+10	1	-1E+10	1	-1E+10	1	-1E+10	1	-1E+10	1
4902549	55	C	02/15/2022	18:57	-131.961	47.504	0	89.10	0	7.4060	0	32.3410	0	25.271	0	88.337	0	278.3	4	93.9	4	-1E+10	1	-1E+10	1	-1E+10	1	-1E+10	1	-1E+10	1	-1E+10	1
4902549	55	C	02/15/2022	18:57	-131.961	47.504	0	90.00	0	7.4060	0	32.3420	0	25.272	0	89.229	0	277.7	4	93.7	4	-1E+10	1	-1E+10	1	-1E+10	1	-1E+10	1	-1E+10	1	-1E+10	1
4902549	55	C	02/15/2022	18:57	-131.961	47.504	0	91.10	0	7.3690	0	32.3500	0	25.283	0	90.320	0	277.0	4	93.3	4	-1E+10	1	-1E+10	1	-1E+10	1	-1E+10	1	-1E+10	1	-1E+10	1
4902549	55	C	02/15/2022	18:57	-131.961	47.504	0	92.10	0	7.3300	0	32.3570	0	25.294	0	91.311	0	276.6	4	93.1	4	-1E+10	1	-1E+10	1	-1E+10	1	-1E+10	1	-1E+10	1	-1E+10	1
4902549	55	C	02/15/2022	18:57	-131.961	47.504	0	92.90	0	7.3250	0	32.3560	0	25.294	0	92.104	0	276.1	4	93.0	4	-1E+10	1	-1E+10	1	-1E+10	1	-1E+10	1	-1E+10	1	-1E+10	1
4902549	55	C	02/15/2022	18:57	-131.961	47.504	0	94.10	0	7.3050	0	32.3630	0	25.302	0	93.293	0	275.7	4	92.8	4	-1E+10	1	-1E+10	1	-1E+10	1	-1E+10	1	-1E+10	1	-1E+10	1
4902549	55	C	02/15/2022	18:57	-131.961	47.504	0	95.10	0	7.3030	0	32.3630	0	25.303	0	94.285	0	275.3	4	92.7	4	-1E+10	1	-1E+10	1	-1E+10	1	-1E+10	1	-1E+10	1	-1E+10	1
4902549	55	C	02/15/2022	18:57	-131.961	47.504	0	96.10	0	7.3040	0	32.3630	0	25.302	0	95.276	0	274.7	4	92.5	4	-1E+10	1	-1E+10	1	-1E+10	1	-1E+10	1	-1E+10	1	-1E+10	1
4902549	55	C	02/15/2022	18:57	-131.961	47.504	0	96.90	0	7.3030	0	32.3630	0	25.303	0	96.069	0	274.2	4	92.3	4	-1E+10	1	-1E+10	1	-1E+10	1	-1E+10	1	-1E+10	1	-1E+10	1
4902549	55	C	02/15/2022	18:57	-131.961	47.504	0	98.20	0	7.3020	0	32.3650	0	25.304	0	97.357	0	273.3	4	92.0	4	-1E+10	1	-1E+10	1	-1E+10	1	-1E+10	1	-1E+10	1	-1E+10	1
4902549	55	C	02/15/2022	18:57	-131.961	47.504	0	99.00	0	7.3020	0	32.3650	0	25.304	0	98.150	0	272.3	4	91.6	4	-1E+10	1	-1E+10	1	-1E+10	1	-1E+10	1	-1E+10	1	-1E+10	1
4902549	55	C	02/15/2022	18:57	-131.961	47.504	0	99.90	0	7.2990	0	32.3660	0	25.306	0	99.042	0	271.3	4	91.3	4	-1E+10	1	-1E+10	1	-1E+10	1	-1E+10	1	-1E+10	1	-1E+10	1
4902549	55	C	02/15/2022	18:57	-131.961	47.504	0	101.20	0	7.3000	0	32.3660	0	25.305	0	100.331	0	269.9	4	90.8	4	-1E+10	1	-1E+10	1	-1E+10	1	-1E+10	1	-1E+10	1	-1E+10	1
4902549	55	C	02/15/2022	18:57	-131.961	47.504	0	101.90	0	7.3000	0	32.3650	0	25.305	0	101.025	0	268.6	4	90.4	4	-1E+10	1	-1E+10	1	-1E+10	1	-1E+10	1	-1E+10	1	-1E+10	1
4902549	55	C	02/15/2022	18:57	-131.961	47.504	0	102.90	0	7.2910	0	32.3670	0	25.307	0	102.016	0	266.4	4	89.6	4	-1E+10	1	-1E+10	1	-1E+10	1	-1E+10	1	-1E+10	1	-1E+10	1
4902549	55	C	02/15/2022	18:57	-131.961	47.504	0	104.10	0	7.2680	0	32.3750	0	25.317	0	103.205	0	263.1	4	88.5	4	-1E+10	1	-1E+10	1	-1E+10	1	-1E+10	1	-1E+10	1	-1E+10	1
4902549	55	C	02/15/2022	18:57	-131.961	47.504	0	104.90	0	7.1970	0	32.4050	0	25.350	0	103.998	0	261.1	4	87.7	4	-1E+10	1	-1E+10	1	-1E+10	1	-1E+10	1	-1E+10	1	-1E+10	1
4902549	55	C	02/15/2022	18:57	-131.961	47.504	0	106.20	0	7.1520	0	32.4290	0	25.375	0	105.287	0	258.1	4	86.6	4	-1E+10	1	-1E+10	1	-1E+10	1	-1E+10	1	-1E+10	1	-1E+10	1
4902549	55	C	02/15/2022	18:57	-131.961	47.504	0	107.10	0	7.1210	0	32.4460	0	25.393	0	106.179	0	256.0	4	85.9	4	-1E+10	1	-1E+10	1	-1E+10	1	-1E+10	1	-1E+10	1	-1E+10	1
4902549	55	C	02/15/2022	18:57	-131.961	47.504	0	107.80	0	7.0570	0	32.4730	0	25.423	0	106.872	0	254.5	4	85.3	4	-1E+10	1	-1E+10	1	-1E+10	1	-1E+10	1	-1E+10	1	-1E+10	1
4902549	55	C	02/15/2022	18:57	-131.961	47.504	0	108.90	0	6.9710	0	32.5130	0	25.465	0	107.963	0	251.7	4	84.2	4	-1E+10	1	-1E+10	1	-1E+10	1	-1E+10	1	-1E+10	1	-1E+10	1
4902549	55	C	02/15/2022	18:57	-131.961	47.504	0	110.00	0	6.9560	0	32.5400	0	25.489	0	109.053	0	247.9	4	82.9	4	-1E+10	1	-1E+10	1	-1E+10	1	-1E+10	1	-1E+10	1	-1E+10	1
4902549	55	C	02/15/2022	18:57	-131.961	47.504	0	111.10	0	6.9210	0	32.6730	0	25.598	0	110.143	0	241.7	4	80.8	4	-1E+10	1	-1E+10	1	-1E+10	1	-1E+10	1	-1E+10	1	-1E+10	1
4902549	55	C	02/15/2022	18:57	-131.961	47.504	0	112.00	0	6.8920	0	32.7530	0	25.665	0	111.035	0	237.9	4	79.5	4	-1E+10	1	-1E+10	1	-1E+10	1	-1E+10	1	-1E+10	1	-1E+10	1
4902549	55	C	02/15/2022	18:57	-131.961	47.504	0	112.90	0	6.9120	0	32.7680	0	25.674	0	111.927	0	234.2	4	78.4	4	-1E+10	1	-1E+10	1	-1E+10	1	-1E+10	1	-1E+10	1	-1E+10	1
4902549	55	C	02/15/2022	18:57	-131.961	47.504	0	114.10	0	6.9570	0	32.8060	0	25.698	0	113.116	0	229.9	4	77.0	4	-1E+10	1	-1E+10	1	-1E+10	1	-1E+10	1	-1E+10	1	-1E+10	1
4902549	55	C	02/15/2022	18:57	-131.961	47.504	0	115.00	0	7.0170	0	32.8430	0	25.719	0	114.008	0	226.4	4	76.0	4	-1E+10	1	-1E+10	1	-1E+10	1	-1E+10	1	-1E+10	1	-1E+10	1
4902549	55	C	02/15/2022	18:57	-131.961	47.504	0	116.00	0	7.0980	0	32.8820	0	25.739	0	115.000	0	223.4	4	75.1	4	-1E+10	1	-1E+10	1	-1E+10	1	-1E+10	1	-1E+10	1	-1E+10	1
4902549	55	C	02/15/2022	18:57	-131.961	47.504	0	116.90	0	7.1910	0	32.9600	0	25.788	0	115.891	0	220.8	4	74.5	4	-1E+10	1	-1E+10	1	-1E+10	1	-1E+10	1	-1E+10	1	-1E+10	1
4902549	55	C	02/15/2022	18:57	-131.961	47.504	0	118.10	0	7.2410	0	33.0280	0	25.834	0	117.081	0	218.3	4	73.7	4	-1E+10	1	-1E+10	1	-1E+10	1	-1E+10	1	-1E+10	1	-1E+10	1
4902549	55	C	02/15/2022	18:57	-131.961	47.504	0	118.80	0	7.2220	0	33.0560	0	25.859	0	117.775	0	217.4	4	73.4	4	-1E+10	1	-1E+10	1	-1E+10	1	-1E+10	1	-1E+10	1	-1E+10	1
4902549	55	C	02/15/2022	18:57	-131.961	47.504	0	120.10	0	7.1980	0	33.0720	0	25.875	0	119.063	0	215.1	4	72.6	4	-1E+10	1	-1E+10	1	-1E+10	1	-1E+10	1	-1E+10	1	-1E+10	1
4902549	55	C	02/15/2022	18:57	-131.961	47.504	0	121.20	0	7.1690	0	33.1000	0	25.901	0	120.153	0	212.7	4	71.7	4	-1E+10	1	-1E+10	1	-1E+10	1	-1E+10	1	-1E+10	1	-1E+10	1
4902549	55	C	02/15/2022	18:57	-131.961	47.504	0	121.90	0	7.1600	0	33.1340	0	25.929	0	120.847	0	211.2	4	71.2	4	-1E+10	1	-1E+10	1	-1E+10	1	-1E+10	1	-1E+10	1	-1E+10	1
4902549	55	C	02/15/2022	18:57	-131.961	47.504	0	122.90	0	7.1540	0	33.1770	0	25.964	0	121.838	0	208.9	4	70.5	4	-1E+10	1	-1E+10	1	-1E+10	1	-1E+10	1	-1E+10	1	-1E+10	1
4902549	55	C	02/15/2022	18:57	-131.961	47.504	0	124.10	0	7.1670	0	33.2810	0	26.044	0	123.027	0	206.8	4	69.9	4	-1E+10	1	-1E+10	1	-1E+10	1	-1E+10	1	-1E+10	1	-1E+10	1
4902549	55	C	02/15/2022	18:57	-131.961	47.504	0	125.10	0	7.1780	0	33.3150	0	26.069	0	124.018	0	205.5	4	69.5	4	-1E+10	1	-1E+10	1	-1E+10	1	-1E+10	1	-1E+10	1	-1E+10	1
4902549	55	C	02/15/2022	18:57	-131.961	47.504	0	125.80	0	7.1840	0	33.3360	0	26.085	0	124.712	0	204.8	4	69.2	4	-1E+10	1	-1E+10	1	-1E+10	1	-1E+10	1	-1E+10	1	-1E+10	1
4902549	55	C	02/15/2022	18:57	-131.961	47.504	0	126.80	0	7.1890	0	33.3510	0	26.096	0	125.703	0	203.9	4	69.0	4	-1E+10	1	-1E+10	1	-1E+10	1	-1E+10	1	-1E+10	1	-1E+10	1
4902549	55	C	02/15/2022	18:57	-131.961	47.504	0	127.90	0	7.1980	0	33.3770	0	26.115	0	126.793	0	203.0	4	68.7	4	-1E+10	1	-1E+10	1	-1E+10	1	-1E+10	1	-1E+10	1	-1E+10	1
4902549	55	C	02/15/2022	18:57	-131.961	47.504	0	129.00	0	7.2050	0	33.3920	0	26.126	0	127.883	0	202.1	4	68.4	4	-1E+10	1	-1E+10	1	-1E+10	1	-1E+10	1	-1E+10	1	-1E+10	1
4902549	55	C	02/15/2022	18:57	-131.961	47.504	0	130.10	0	7.2200	0	33.4100	0	26.138	0	128.973	0	201.0	4	68.1	4	-1E+10	1	-1E+10	1	-1E+10	1	-1E+10	1	-1E+10	1	-1E+10	1
4902549	55	C	02/15/2022	18:57	-131.961	47.504	0	130.80	0	7.2320	0	33.4230	0	26.147	0	129.667	0	200.3	4	67.8	4	-1E+10	1	-1E+10	1	-1E+10	1	-1E+10	1	-1E+10	1	-1E+10	1
4902549	55	C	02/15/2022	18:57	-131.961	47.504	0	131.90	0	7.2350	0	33.4670	0	26.181	0	130.757	0	199.6	4	67.6	4	-1E+10	1	-1E+10	1	-1E+10	1	-1E+10	1	-1E+10	1	-1E+10	1
4902549	55	C	02/15/2022	18:57	-131.961	47.504	0	133.10	0	7.2360	0	33.4780	0	26.189	0	131.947	0	198.9	4	67.4	4	-1E+10	1	-1E+10	1	-1E+10	1	-1E+10	1	-1E+10	1	-1E+10	1
4902549	55	C	02/15/2022	18:57	-131.961	47.504	0	133.90	0	7.2390	0	33.4810	0	26.191	0	132.739	0	198.4	4	67.2	4	-1E+10	1	-1E+10	1	-1E+10	1	-1E+10	1	-1E+10	1	-1E+10	1
4902549	55	C	02/15/2022	18:57	-131.961	47.504	0	134.70	0	7.2440	0	33.4900	0	26.198	0	133.532	0	197.8	4	67.0	4	-1E+10	1	-1E+10	1	-1E+10	1	-1E+10	1	-1E+10	1	-1E+10	1
4902549	55	C	02/15/2022	18:57	-131.961	47.504	0	135.90	0	7.2480	0	33.5080	0	26.211	0	134.721	0	197.1	4	66.8	4	-1E+10	1	-1E+10	1	-1E+10	1	-1E+10	1	-1E+10	1	-1E+10	1
4902549	55	C	02/15/2022	18:57	-131.961	47.504	0	137.20	0	7.2490	0	33.5430	0	26.239	0	136.010	0	196.6	4	66.7	4	-1E+10	1	-1E+10	1	-1E+10	1	-1E+10	1	-1E+10	1	-1E+10	1
4902549	55	C	02/15/2022	18:57	-131.961	47.504	0	138.10	0	7.2490	0	33.5460	0	26.241	0	136.902	0	196.3	4	66.6	4	-1E+10	1	-1E+10	1	-1E+10	1	-1E+10	1	-1E+10	1	-1E+10	1
4902549	55	C	02/15/2022	18:57	-131.961	47.504	0	138.90	0	7.2490	0	33.5490	0	26.244	0	137.694	0	196.0	4	66.5	4	-1E+10	1	-1E+10	1	-1E+10	1	-1E+10	1	-1E+10	1	-1E+10	1
4902549	55	C	02/15/2022	18:57	-131.961	47.504	0	139.80	0	7.2500	0	33.5520	0	26.246	0	138.586	0	195.8	4	66.4	4	-1E+10	1	-1E+10	1	-1E+10	1	-1E+10	1	-1E+10	1	-1E+10	1
4902549	55	C	02/15/2022	18:57	-131.961	47.504	0	140.70	0	7.2490	0	33.5580	0	26.251	0	139.478	0	195.6	4	66.3	4	-1E+10	1	-1E+10	1	-1E+10	1	-1E+10	1	-1E+10	1	-1E+10	1
4902549	55	C	02/15/2022	18:57	-131.961	47.504	0	141.60	0	7.2480	0	33.5590	0	26.252	0	140.370	0	195.3	4	66.2	4	-1E+10	1	-1E+10	1	-1E+10	1	-1E+10	1	-1E+10	1	-1E+10	1
4902549	55	C	02/15/2022	18:57	-131.961	47.504	0	142.90	0	7.2470	0	33.5610	0	26.253	0	141.658	0	194.8	4	66.1	4	-1E+10	1	-1E+10	1	-1E+10	1	-1E+10	1	-1E+10	1	-1E+10	1
4902549	55	C	02/15/2022	18:57	-131.961	47.504	0	144.40	0	7.2480	0	33.5630	0	26.255	0	143.145	0	194.3	4	65.9	4	-1E+10	1	-1E+10	1	-1E+10	1	-1E+10	1	-1E+10	1	-1E+10	1
4902549	55	C	02/15/2022	18:57	-131.961	47.504	0	145.30	0	7.2490	0	33.5660	0	26.257	0	144.037	0	193.9	4	65.7	4	-1E+10	1	-1E+10	1	-1E+10	1	-1E+10	1	-1E+10	1	-1E+10	1
4902549	55	C	02/15/2022	18:57	-131.961	47.504	0	146.20	0	7.2480	0	33.5660	0	26.257	0	144.928	0	193.4	4	65.6	4	-1E+10	1	-1E+10	1	-1E+10	1	-1E+10	1	-1E+10	1	-1E+10	1
4902549	55	C	02/15/2022	18:57	-131.961	47.504	0	147.20	0	7.2480	0	33.5670	0	26.258	0	145.919	0	193.0	4	65.4	4	-1E+10	1	-1E+10	1	-1E+10	1	-1E+10	1	-1E+10	1	-1E+10	1
4902549	55	C	02/15/2022	18:57	-131.961	47.504	0	148.20	0	7.2480	0	33.5680	0	26.259	0	146.910	0	192.5	4	65.3	4	-1E+10	1	-1E+10	1	-1E+10	1	-1E+10	1	-1E+10	1	-1E+10	1
4902549	55	C	02/15/2022	18:57	-131.961	47.504	0	149.20	0	7.2500	0	33.5740	0	26.263	0	147.901	0	191.9	4	65.1	4	-1E+10	1	-1E+10	1	-1E+10	1	-1E+10	1	-1E+10	1	-1E+10	1
4902549	55	C	02/15/2022	18:57	-131.961	47.504	0	150.10	0	7.2520	0	33.5770	0	26.265	0	148.793	0	191.3	4	64.9	4	-1E+10	1	-1E+10	1	-1E+10	1	-1E+10	1	-1E+10	1	-1E+10	1
4902549	55	C	02/15/2022	18:57	-131.961	47.504	0	151.10	0	7.2520	0	33.5830	0	26.270	0	149.784	0	190.6	4	64.7	4	-1E+10	1	-1E+10	1	-1E+10	1	-1E+10	1	-1E+10	1	-1E+10	1
4902549	55	C	02/15/2022	18:57	-131.961	47.504	0	152.10	0	7.2480	0	33.5960	0	26.281	0	150.775	0	190.1	4	64.5	4	-1E+10	1	-1E+10	1	-1E+10	1	-1E+10	1	-1E+10	1	-1E+10	1
4902549	55	C	02/15/2022	18:57	-131.961	47.504	0	153.10	0	7.2420	0	33.6130	0	26.295	0	151.766	0	189.6	4	64.3	4	-1E+10	1	-1E+10	1	-1E+10	1	-1E+10	1	-1E+10	1	-1E+10	1
4902549	55	C	02/15/2022	18:57	-131.961	47.504	0	154.00	0	7.2380	0	33.6220	0	26.303	0	152.658	0	189.1	4	64.1	4	-1E+10	1	-1E+10	1	-1E+10	1	-1E+10	1	-1E+10	1	-1E+10	1
4902549	55	C	02/15/2022	18:57	-131.961	47.504	0	155.00	0	7.2370	0	33.6270	0	26.307	0	153.649	0	188.7	4	64.0	4	-1E+10	1	-1E+10	1	-1E+10	1	-1E+10	1	-1E+10	1	-1E+10	1
4902549	55	C	02/15/2022	18:57	-131.961	47.504	0	155.90	0	7.2310	0	33.6350	0	26.314	0	154.540	0	188.2	4	63.8	4	-1E+10	1	-1E+10	1	-1E+10	1	-1E+10	1	-1E+10	1	-1E+10	1
4902549	55	C	02/15/2022	18:57	-131.961	47.504	0	156.90	0	7.2270	0	33.6360	0	26.315	0	155.531	0	187.6	4	63.6	4	-1E+10	1	-1E+10	1	-1E+10	1	-1E+10	1	-1E+10	1	-1E+10	1
4902549	55	C	02/15/2022	18:57	-131.961	47.504	0	157.80	0	7.2260	0	33.6370	0	26.316	0	156.423	0	187.0	4	63.4	4	-1E+10	1	-1E+10	1	-1E+10	1	-1E+10	1	-1E+10	1	-1E+10	1
4902549	55	C	02/15/2022	18:57	-131.961	47.504	0	158.80	0	7.2200	0	33.6420	0	26.321	0	157.414	0	186.3	4	63.2	4	-1E+10	1	-1E+10	1	-1E+10	1	-1E+10	1	-1E+10	1	-1E+10	1
4902549	55	C	02/15/2022	18:57	-131.961	47.504	0	159.70	0	7.2140	0	33.6520	0	26.330	0	158.306	0	185.7	4	63.0	4	-1E+10	1	-1E+10	1	-1E+10	1	-1E+10	1	-1E+10	1	-1E+10	1
4902549	55	C	02/15/2022	18:57	-131.961	47.504	0	160.70	0	7.2110	0	33.6570	0	26.334	0	159.297	0	185.1	4	62.8	4	-1E+10	1	-1E+10	1	-1E+10	1	-1E+10	1	-1E+10	1	-1E+10	1
4902549	55	C	02/15/2022	18:57	-131.961	47.504	0	161.60	0	7.2100	0	33.6580	0	26.335	0	160.189	0	184.4	4	62.5	4	-1E+10	1	-1E+10	1	-1E+10	1	-1E+10	1	-1E+10	1	-1E+10	1
4902549	55	C	02/15/2022	18:57	-131.961	47.504	0	162.60	0	7.2080	0	33.6630	0	26.339	0	161.179	0	183.7	4	62.3	4	-1E+10	1	-1E+10	1	-1E+10	1	-1E+10	1	-1E+10	1	-1E+10	1
4902549	55	C	02/15/2022	18:57	-131.961	47.504	0	163.50	0	7.1900	0	33.6790	0	26.354	0	162.071	0	183.1	4	62.1	4	-1E+10	1	-1E+10	1	-1E+10	1	-1E+10	1	-1E+10	1	-1E+10	1
4902549	55	C	02/15/2022	18:57	-131.961	47.504	0	164.50	0	7.1670	0	33.6960	0	26.371	0	163.062	0	182.7	4	61.9	4	-1E+10	1	-1E+10	1	-1E+10	1	-1E+10	1	-1E+10	1	-1E+10	1
4902549	55	C	02/15/2022	18:57	-131.961	47.504	0	165.90	0	7.1490	0	33.7060	0	26.381	0	164.449	0	182.3	4	61.7	4	-1E+10	1	-1E+10	1	-1E+10	1	-1E+10	1	-1E+10	1	-1E+10	1
4902549	55	C	02/15/2022	18:57	-131.961	47.504	0	167.40	0	7.1450	0	33.7070	0	26.383	0	165.936	0	181.7	4	61.5	4	-1E+10	1	-1E+10	1	-1E+10	1	-1E+10	1	-1E+10	1	-1E+10	1
4902549	55	C	02/15/2022	18:57	-131.961	47.504	0	168.40	0	7.1430	0	33.7070	0	26.383	0	166.926	0	181.2	4	61.4	4	-1E+10	1	-1E+10	1	-1E+10	1	-1E+10	1	-1E+10	1	-1E+10	1
4902549	55	C	02/15/2022	18:57	-131.961	47.504	0	169.30	0	7.1420	0	33.7080	0	26.384	0	167.818	0	180.8	4	61.2	4	-1E+10	1	-1E+10	1	-1E+10	1	-1E+10	1	-1E+10	1	-1E+10	1
4902549	55	C	02/15/2022	18:57	-131.961	47.504	0	170.30	0	7.1330	0	33.7110	0	26.388	0	168.809	0	180.3	4	61.0	4	-1E+10	1	-1E+10	1	-1E+10	1	-1E+10	1	-1E+10	1	-1E+10	1
4902549	55	C	02/15/2022	18:57	-131.961	47.504	0	171.30	0	7.0900	0	33.7260	0	26.405	0	169.800	0	180.0	4	60.9	4	-1E+10	1	-1E+10	1	-1E+10	1	-1E+10	1	-1E+10	1	-1E+10	1
4902549	55	C	02/15/2022	18:57	-131.961	47.504	0	172.30	0	7.0710	0	33.7320	0	26.413	0	170.791	0	179.8	4	60.8	4	-1E+10	1	-1E+10	1	-1E+10	1	-1E+10	1	-1E+10	1	-1E+10	1
4902549	55	C	02/15/2022	18:57	-131.961	47.504	0	173.30	0	7.0600	0	33.7360	0	26.417	0	171.781	0	179.5	4	60.7	4	-1E+10	1	-1E+10	1	-1E+10	1	-1E+10	1	-1E+10	1	-1E+10	1
4902549	55	C	02/15/2022	18:57	-131.961	47.504	0	174.20	0	7.0510	0	33.7390	0	26.421	0	172.673	0	179.2	4	60.6	4	-1E+10	1	-1E+10	1	-1E+10	1	-1E+10	1	-1E+10	1	-1E+10	1
4902549	55	C	02/15/2022	18:57	-131.961	47.504	0	175.20	0	7.0410	0	33.7430	0	26.425	0	173.664	0	179.0	4	60.5	4	-1E+10	1	-1E+10	1	-1E+10	1	-1E+10	1	-1E+10	1	-1E+10	1
4902549	55	C	02/15/2022	18:57	-131.961	47.504	0	176.10	0	7.0380	0	33.7430	0	26.426	0	174.556	0	178.6	4	60.4	4	-1E+10	1	-1E+10	1	-1E+10	1	-1E+10	1	-1E+10	1	-1E+10	1
4902549	55	C	02/15/2022	18:57	-131.961	47.504	0	177.00	0	7.0150	0	33.7500	0	26.435	0	175.447	0	178.3	4	60.2	4	-1E+10	1	-1E+10	1	-1E+10	1	-1E+10	1	-1E+10	1	-1E+10	1
4902549	55	C	02/15/2022	18:57	-131.961	47.504	0	178.00	0	7.0080	0	33.7480	0	26.434	0	176.438	0	178.1	4	60.2	4	-1E+10	1	-1E+10	1	-1E+10	1	-1E+10	1	-1E+10	1	-1E+10	1
4902549	55	C	02/15/2022	18:57	-131.961	47.504	0	178.90	0	7.0090	0	33.7490	0	26.435	0	177.330	0	177.8	4	60.1	4	-1E+10	1	-1E+10	1	-1E+10	1	-1E+10	1	-1E+10	1	-1E+10	1
4902549	55	C	02/15/2022	18:57	-131.961	47.504	0	179.90	0	7.0100	0	33.7480	0	26.434	0	178.321	0	177.4	4	59.9	4	-1E+10	1	-1E+10	1	-1E+10	1	-1E+10	1	-1E+10	1	-1E+10	1
4902549	55	C	02/15/2022	18:57	-131.961	47.504	0	180.80	0	7.0070	0	33.7510	0	26.436	0	179.213	0	176.9	4	59.8	4	-1E+10	1	-1E+10	1	-1E+10	1	-1E+10	1	-1E+10	1	-1E+10	1
4902549	55	C	02/15/2022	18:57	-131.961	47.504	0	181.70	0	6.9790	0	33.7500	0	26.439	0	180.104	0	176.6	4	59.6	4	-1E+10	1	-1E+10	1	-1E+10	1	-1E+10	1	-1E+10	1	-1E+10	1
4902549	55	C	02/15/2022	18:57	-131.961	47.504	0	182.70	0	6.9640	0	33.7520	0	26.443	0	181.095	0	176.2	4	59.4	4	-1E+10	1	-1E+10	1	-1E+10	1	-1E+10	1	-1E+10	1	-1E+10	1
4902549	55	C	02/15/2022	18:57	-131.961	47.504	0	183.70	0	6.9530	0	33.7540	0	26.446	0	182.086	0	175.8	4	59.3	4	-1E+10	1	-1E+10	1	-1E+10	1	-1E+10	1	-1E+10	1	-1E+10	1
4902549	55	C	02/15/2022	18:57	-131.961	47.504	0	184.70	0	6.9390	0	33.7560	0	26.450	0	183.077	0	175.3	4	59.1	4	-1E+10	1	-1E+10	1	-1E+10	1	-1E+10	1	-1E+10	1	-1E+10	1
4902549	55	C	02/15/2022	18:57	-131.961	47.504	0	185.60	0	6.9230	0	33.7580	0	26.453	0	183.968	0	174.9	4	59.0	4	-1E+10	1	-1E+10	1	-1E+10	1	-1E+10	1	-1E+10	1	-1E+10	1
4902549	55	C	02/15/2022	18:57	-131.961	47.504	0	186.60	0	6.9150	0	33.7590	0	26.455	0	184.959	0	174.5	4	58.8	4	-1E+10	1	-1E+10	1	-1E+10	1	-1E+10	1	-1E+10	1	-1E+10	1
4902549	55	C	02/15/2022	18:57	-131.961	47.504	0	187.50	0	6.9060	0	33.7600	0	26.457	0	185.851	0	174.1	4	58.7	4	-1E+10	1	-1E+10	1	-1E+10	1	-1E+10	1	-1E+10	1	-1E+10	1
4902549	55	C	02/15/2022	18:57	-131.961	47.504	0	188.50	0	6.8960	0	33.7610	0	26.459	0	186.841	0	173.6	4	58.5	4	-1E+10	1	-1E+10	1	-1E+10	1	-1E+10	1	-1E+10	1	-1E+10	1
4902549	55	C	02/15/2022	18:57	-131.961	47.504	0	189.50	0	6.8820	0	33.7640	0	26.464	0	187.832	0	173.1	4	58.3	4	-1E+10	1	-1E+10	1	-1E+10	1	-1E+10	1	-1E+10	1	-1E+10	1
4902549	55	C	02/15/2022	18:57	-131.961	47.504	0	190.90	0	6.8760	0	33.7620	0	26.463	0	189.219	0	172.3	4	58.0	4	-1E+10	1	-1E+10	1	-1E+10	1	-1E+10	1	-1E+10	1	-1E+10	1
4902549	55	C	02/15/2022	18:57	-131.961	47.504	0	192.40	0	6.8630	0	33.7630	0	26.466	0	190.705	0	171.2	4	57.6	4	-1E+10	1	-1E+10	1	-1E+10	1	-1E+10	1	-1E+10	1	-1E+10	1
4902549	55	C	02/15/2022	18:57	-131.961	47.504	0	193.40	0	6.8460	0	33.7670	0	26.471	0	191.696	0	170.6	4	57.4	4	-1E+10	1	-1E+10	1	-1E+10	1	-1E+10	1	-1E+10	1	-1E+10	1
4902549	55	C	02/15/2022	18:57	-131.961	47.504	0	194.40	0	6.8350	0	33.7660	0	26.472	0	192.687	0	169.9	4	57.1	4	-1E+10	1	-1E+10	1	-1E+10	1	-1E+10	1	-1E+10	1	-1E+10	1
4902549	55	C	02/15/2022	18:57	-131.961	47.504	0	195.30	0	6.8230	0	33.7670	0	26.474	0	193.578	0	169.1	4	56.9	4	-1E+10	1	-1E+10	1	-1E+10	1	-1E+10	1	-1E+10	1	-1E+10	1
4902549	55	C	02/15/2022	18:57	-131.961	47.504	0	196.30	0	6.7990	0	33.7700	0	26.480	0	194.569	0	168.4	4	56.6	4	-1E+10	1	-1E+10	1	-1E+10	1	-1E+10	1	-1E+10	1	-1E+10	1
4902549	55	C	02/15/2022	18:57	-131.961	47.504	0	197.30	0	6.7860	0	33.7680	0	26.480	0	195.560	0	167.5	4	56.3	4	-1E+10	1	-1E+10	1	-1E+10	1	-1E+10	1	-1E+10	1	-1E+10	1
4902549	55	C	02/15/2022	18:57	-131.961	47.504	0	198.30	0	6.7600	0	33.7740	0	26.488	0	196.551	0	166.7	4	56.0	4	-1E+10	1	-1E+10	1	-1E+10	1	-1E+10	1	-1E+10	1	-1E+10	1
4902549	55	C	02/15/2022	18:57	-131.961	47.504	0	199.30	0	6.7490	0	33.7730	0	26.489	0	197.541	0	165.9	4	55.7	4	-1E+10	1	-1E+10	1	-1E+10	1	-1E+10	1	-1E+10	1	-1E+10	1
4902549	55	C	02/15/2022	18:57	-131.961	47.504	0	200.30	0	6.7130	0	33.7770	0	26.497	0	198.532	0	165.3	4	55.5	4	-1E+10	1	-1E+10	1	-1E+10	1	-1E+10	1	-1E+10	1	-1E+10	1
4902549	55	C	02/15/2022	18:57	-131.961	47.504	0	201.30	0	6.7010	0	33.7770	0	26.498	0	199.523	0	164.6	4	55.2	4	-1E+10	1	-1E+10	1	-1E+10	1	-1E+10	1	-1E+10	1	-1E+10	1
4902549	55	C	02/15/2022	18:57	-131.961	47.504	0	202.30	0	6.6570	0	33.7780	0	26.505	0	200.513	0	164.1	4	55.0	4	-1E+10	1	-1E+10	1	-1E+10	1	-1E+10	1	-1E+10	1	-1E+10	1
4902549	55	C	02/15/2022	18:57	-131.961	47.504	0	203.30	0	6.6310	0	33.7810	0	26.511	0	201.504	0	163.6	4	54.8	4	-1E+10	1	-1E+10	1	-1E+10	1	-1E+10	1	-1E+10	1	-1E+10	1
4902549	55	C	02/15/2022	18:57	-131.961	47.504	0	204.30	0	6.6020	0	33.7820	0	26.515	0	202.495	0	163.1	4	54.6	4	-1E+10	1	-1E+10	1	-1E+10	1	-1E+10	1	-1E+10	1	-1E+10	1
4902549	55	C	02/15/2022	18:57	-131.961	47.504	0	205.30	0	6.5860	0	33.7800	0	26.516	0	203.485	0	162.6	4	54.4	4	-1E+10	1	-1E+10	1	-1E+10	1	-1E+10	1	-1E+10	1	-1E+10	1
4902549	55	C	02/15/2022	18:57	-131.961	47.504	0	206.40	0	6.5730	0	33.7820	0	26.519	0	204.575	0	162.0	4	54.2	4	-1E+10	1	-1E+10	1	-1E+10	1	-1E+10	1	-1E+10	1	-1E+10	1
4902549	55	C	02/15/2022	18:57	-131.961	47.504	0	207.40	0	6.5670	0	33.7820	0	26.520	0	205.566	0	161.4	4	54.0	4	-1E+10	1	-1E+10	1	-1E+10	1	-1E+10	1	-1E+10	1	-1E+10	1
4902549	55	C	02/15/2022	18:57	-131.961	47.504	0	208.40	0	6.5640	0	33.7810	0	26.520	0	206.556	0	160.6	4	53.7	4	-1E+10	1	-1E+10	1	-1E+10	1	-1E+10	1	-1E+10	1	-1E+10	1
4902549	55	C	02/15/2022	18:57	-131.961	47.504	0	209.50	0	6.5260	0	33.7830	0	26.526	0	207.646	0	160.1	4	53.5	4	-1E+10	1	-1E+10	1	-1E+10	1	-1E+10	1	-1E+10	1	-1E+10	1
4902549	55	C	02/15/2022	18:57	-131.961	47.504	0	210.50	0	6.5140	0	33.7840	0	26.529	0	208.637	0	159.5	4	53.3	4	-1E+10	1	-1E+10	1	-1E+10	1	-1E+10	1	-1E+10	1	-1E+10	1
4902549	55	C	02/15/2022	18:57	-131.961	47.504	0	211.50	0	6.4930	0	33.7850	0	26.532	0	209.627	0	159.0	4	53.1	4	-1E+10	1	-1E+10	1	-1E+10	1	-1E+10	1	-1E+10	1	-1E+10	1
4902549	55	C	02/15/2022	18:57	-131.961	47.504	0	212.60	0	6.4810	0	33.7850	0	26.534	0	210.717	0	158.4	4	52.9	4	-1E+10	1	-1E+10	1	-1E+10	1	-1E+10	1	-1E+10	1	-1E+10	1
4902549	55	C	02/15/2022	18:57	-131.961	47.504	0	213.60	0	6.4680	0	33.7870	0	26.537	0	211.708	0	157.7	4	52.6	4	-1E+10	1	-1E+10	1	-1E+10	1	-1E+10	1	-1E+10	1	-1E+10	1
4902549	55	C	02/15/2022	18:57	-131.961	47.504	0	214.60	0	6.4600	0	33.7860	0	26.537	0	212.698	0	157.1	4	52.4	4	-1E+10	1	-1E+10	1	-1E+10	1	-1E+10	1	-1E+10	1	-1E+10	1
4902549	55	C	02/15/2022	18:57	-131.961	47.504	0	215.70	0	6.4490	0	33.7870	0	26.539	0	213.788	0	156.4	4	52.2	4	-1E+10	1	-1E+10	1	-1E+10	1	-1E+10	1	-1E+10	1	-1E+10	1
4902549	55	C	02/15/2022	18:57	-131.961	47.504	0	216.70	0	6.4350	0	33.7880	0	26.542	0	214.779	0	155.8	4	51.9	4	-1E+10	1	-1E+10	1	-1E+10	1	-1E+10	1	-1E+10	1	-1E+10	1
4902549	55	C	02/15/2022	18:57	-131.961	47.504	0	217.80	0	6.4070	0	33.7900	0	26.547	0	215.868	0	155.4	4	51.8	4	-1E+10	1	-1E+10	1	-1E+10	1	-1E+10	1	-1E+10	1	-1E+10	1
4902549	55	C	02/15/2022	18:57	-131.961	47.504	0	218.80	0	6.3950	0	33.7910	0	26.550	0	216.859	0	154.8	4	51.6	4	-1E+10	1	-1E+10	1	-1E+10	1	-1E+10	1	-1E+10	1	-1E+10	1
4902549	55	C	02/15/2022	18:57	-131.961	47.504	0	219.80	0	6.3810	0	33.7900	0	26.551	0	217.850	0	154.2	4	51.4	4	-1E+10	1	-1E+10	1	-1E+10	1	-1E+10	1	-1E+10	1	-1E+10	1
4902549	55	C	02/15/2022	18:57	-131.961	47.504	0	220.90	0	6.3650	0	33.7900	0	26.553	0	218.939	0	153.7	4	51.2	4	-1E+10	1	-1E+10	1	-1E+10	1	-1E+10	1	-1E+10	1	-1E+10	1
4902549	55	C	02/15/2022	18:57	-131.961	47.504	0	221.90	0	6.3600	0	33.7900	0	26.553	0	219.930	0	153.0	4	50.9	4	-1E+10	1	-1E+10	1	-1E+10	1	-1E+10	1	-1E+10	1	-1E+10	1
4902549	55	C	02/15/2022	18:57	-131.961	47.504	0	223.00	0	6.3480	0	33.7900	0	26.555	0	221.019	0	152.3	4	50.7	4	-1E+10	1	-1E+10	1	-1E+10	1	-1E+10	1	-1E+10	1	-1E+10	1
4902549	55	C	02/15/2022	18:57	-131.961	47.504	0	224.00	0	6.3450	0	33.7890	0	26.555	0	222.010	0	151.5	4	50.4	4	-1E+10	1	-1E+10	1	-1E+10	1	-1E+10	1	-1E+10	1	-1E+10	1
4902549	55	C	02/15/2022	18:57	-131.961	47.504	0	225.10	0	6.3350	0	33.7900	0	26.557	0	223.100	0	150.7	4	50.1	4	-1E+10	1	-1E+10	1	-1E+10	1	-1E+10	1	-1E+10	1	-1E+10	1
4902549	55	C	02/15/2022	18:57	-131.961	47.504	0	226.20	0	6.3100	0	33.7880	0	26.558	0	224.189	0	149.9	4	49.8	4	-1E+10	1	-1E+10	1	-1E+10	1	-1E+10	1	-1E+10	1	-1E+10	1
4902549	55	C	02/15/2022	18:57	-131.961	47.504	0	227.20	0	6.2410	0	33.7940	0	26.572	0	225.180	0	149.4	4	49.6	4	-1E+10	1	-1E+10	1	-1E+10	1	-1E+10	1	-1E+10	1	-1E+10	1
4902549	55	C	02/15/2022	18:57	-131.961	47.504	0	228.30	0	6.2250	0	33.7910	0	26.572	0	226.269	0	148.9	4	49.4	4	-1E+10	1	-1E+10	1	-1E+10	1	-1E+10	1	-1E+10	1	-1E+10	1
4902549	55	C	02/15/2022	18:57	-131.961	47.504	0	229.40	0	6.2150	0	33.7910	0	26.573	0	227.359	0	148.3	4	49.2	4	-1E+10	1	-1E+10	1	-1E+10	1	-1E+10	1	-1E+10	1	-1E+10	1
4902549	55	C	02/15/2022	18:57	-131.961	47.504	0	230.50	0	6.2020	0	33.7910	0	26.574	0	228.449	0	147.7	4	49.0	4	-1E+10	1	-1E+10	1	-1E+10	1	-1E+10	1	-1E+10	1	-1E+10	1
4902549	55	C	02/15/2022	18:57	-131.961	47.504	0	231.50	0	6.1930	0	33.7920	0	26.576	0	229.439	0	147.0	4	48.7	4	-1E+10	1	-1E+10	1	-1E+10	1	-1E+10	1	-1E+10	1	-1E+10	1
4902549	55	C	02/15/2022	18:57	-131.961	47.504	0	233.00	0	6.1730	0	33.7930	0	26.580	0	230.925	0	145.8	4	48.3	4	-1E+10	1	-1E+10	1	-1E+10	1	-1E+10	1	-1E+10	1	-1E+10	1
4902549	55	C	02/15/2022	18:57	-131.961	47.504	0	234.30	0	6.1680	0	33.7930	0	26.580	0	232.213	0	144.8	4	48.0	4	-1E+10	1	-1E+10	1	-1E+10	1	-1E+10	1	-1E+10	1	-1E+10	1
4902549	55	C	02/15/2022	18:57	-131.961	47.504	0	235.10	0	6.1630	0	33.7940	0	26.582	0	233.005	0	144.0	4	47.7	4	-1E+10	1	-1E+10	1	-1E+10	1	-1E+10	1	-1E+10	1	-1E+10	1
4902549	55	C	02/15/2022	18:57	-131.961	47.504	0	235.90	0	6.1540	0	33.7940	0	26.583	0	233.798	0	143.2	4	47.4	4	-1E+10	1	-1E+10	1	-1E+10	1	-1E+10	1	-1E+10	1	-1E+10	1
4902549	55	C	02/15/2022	18:57	-131.961	47.504	0	236.70	0	6.1460	0	33.7950	0	26.585	0	234.590	0	142.3	4	47.1	4	-1E+10	1	-1E+10	1	-1E+10	1	-1E+10	1	-1E+10	1	-1E+10	1
4902549	55	C	02/15/2022	18:57	-131.961	47.504	0	237.90	0	6.1250	0	33.7980	0	26.590	0	235.779	0	141.0	4	46.7	4	-1E+10	1	-1E+10	1	-1E+10	1	-1E+10	1	-1E+10	1	-1E+10	1
4902549	55	C	02/15/2022	18:57	-131.961	47.504	0	239.10	0	6.0990	0	33.8020	0	26.596	0	236.967	0	139.8	4	46.3	4	-1E+10	1	-1E+10	1	-1E+10	1	-1E+10	1	-1E+10	1	-1E+10	1
4902549	55	C	02/15/2022	18:57	-131.961	47.504	0	240.00	0	6.0850	0	33.8030	0	26.599	0	237.859	0	139.1	4	46.0	4	-1E+10	1	-1E+10	1	-1E+10	1	-1E+10	1	-1E+10	1	-1E+10	1
4902549	55	C	02/15/2022	18:57	-131.961	47.504	0	240.80	0	6.0810	0	33.8040	0	26.600	0	238.651	0	138.4	4	45.8	4	-1E+10	1	-1E+10	1	-1E+10	1	-1E+10	1	-1E+10	1	-1E+10	1
4902549	55	C	02/15/2022	18:57	-131.961	47.504	0	242.00	0	6.0710	0	33.8050	0	26.602	0	239.840	0	137.3	4	45.4	4	-1E+10	1	-1E+10	1	-1E+10	1	-1E+10	1	-1E+10	1	-1E+10	1
4902549	55	C	02/15/2022	18:57	-131.961	47.504	0	243.30	0	6.0460	0	33.8060	0	26.606	0	241.127	0	136.1	4	45.0	4	-1E+10	1	-1E+10	1	-1E+10	1	-1E+10	1	-1E+10	1	-1E+10	1
4902549	55	C	02/15/2022	18:57	-131.961	47.504	0	244.10	0	6.0290	0	33.8050	0	26.608	0	241.920	0	135.4	4	44.7	4	-1E+10	1	-1E+10	1	-1E+10	1	-1E+10	1	-1E+10	1	-1E+10	1
4902549	55	C	02/15/2022	18:57	-131.961	47.504	0	245.00	0	6.0270	0	33.8060	0	26.609	0	242.811	0	134.5	4	44.4	4	-1E+10	1	-1E+10	1	-1E+10	1	-1E+10	1	-1E+10	1	-1E+10	1
4902549	55	C	02/15/2022	18:57	-131.961	47.504	0	245.80	0	6.0200	0	33.8050	0	26.609	0	243.604	0	133.6	4	44.1	4	-1E+10	1	-1E+10	1	-1E+10	1	-1E+10	1	-1E+10	1	-1E+10	1
4902549	55	C	02/15/2022	18:57	-131.961	47.504	0	246.60	0	6.0030	0	33.8060	0	26.612	0	244.396	0	132.7	4	43.8	4	-1E+10	1	-1E+10	1	-1E+10	1	-1E+10	1	-1E+10	1	-1E+10	1
4902549	55	C	02/15/2022	18:57	-131.961	47.504	0	247.90	0	5.9550	0	33.8070	0	26.618	0	245.683	0	131.2	4	43.3	4	-1E+10	1	-1E+10	1	-1E+10	1	-1E+10	1	-1E+10	1	-1E+10	1
4902549	55	C	02/15/2022	18:57	-131.961	47.504	0	249.20	0	5.9230	0	33.8070	0	26.622	0	246.971	0	129.8	4	42.8	4	-1E+10	1	-1E+10	1	-1E+10	1	-1E+10	1	-1E+10	1	-1E+10	1
4902549	55	C	02/15/2022	18:57	-131.961	47.504	0	250.00	0	5.8510	0	33.8140	0	26.637	0	247.763	0	129.3	4	42.5	4	-1E+10	1	-1E+10	1	-1E+10	1	-1E+10	1	-1E+10	1	-1E+10	1
4902549	55	C	02/15/2022	18:57	-131.961	47.504	0	250.90	0	5.8430	0	33.8130	0	26.637	0	248.655	0	128.7	4	42.3	4	-1E+10	1	-1E+10	1	-1E+10	1	-1E+10	1	-1E+10	1	-1E+10	1
4902549	55	C	02/15/2022	18:57	-131.961	47.504	0	251.70	0	5.8350	0	33.8140	0	26.639	0	249.447	0	127.9	4	42.1	4	-1E+10	1	-1E+10	1	-1E+10	1	-1E+10	1	-1E+10	1	-1E+10	1
4902549	55	C	02/15/2022	18:57	-131.961	47.504	0	253.00	0	5.8200	0	33.8150	0	26.641	0	250.735	0	126.9	4	41.7	4	-1E+10	1	-1E+10	1	-1E+10	1	-1E+10	1	-1E+10	1	-1E+10	1
4902549	55	C	02/15/2022	18:57	-131.961	47.504	0	254.20	0	5.7730	0	33.8210	0	26.652	0	251.923	0	126.2	4	41.4	4	-1E+10	1	-1E+10	1	-1E+10	1	-1E+10	1	-1E+10	1	-1E+10	1
4902549	55	C	02/15/2022	18:57	-131.961	47.504	0	255.10	0	5.7600	0	33.8220	0	26.654	0	252.815	0	125.7	4	41.3	4	-1E+10	1	-1E+10	1	-1E+10	1	-1E+10	1	-1E+10	1	-1E+10	1
4902549	55	C	02/15/2022	18:57	-131.961	47.504	0	255.90	0	5.7510	0	33.8230	0	26.656	0	253.607	0	125.3	4	41.1	4	-1E+10	1	-1E+10	1	-1E+10	1	-1E+10	1	-1E+10	1	-1E+10	1
4902549	55	C	02/15/2022	18:57	-131.961	47.504	0	256.80	0	5.7390	0	33.8260	0	26.660	0	254.498	0	124.9	4	41.0	4	-1E+10	1	-1E+10	1	-1E+10	1	-1E+10	1	-1E+10	1	-1E+10	1
4902549	55	C	02/15/2022	18:57	-131.961	47.504	0	257.70	0	5.7330	0	33.8230	0	26.658	0	255.390	0	124.6	4	40.9	4	-1E+10	1	-1E+10	1	-1E+10	1	-1E+10	1	-1E+10	1	-1E+10	1
4902549	55	C	02/15/2022	18:57	-131.961	47.504	0	258.90	0	5.7250	0	33.8240	0	26.660	0	256.578	0	123.9	4	40.6	4	-1E+10	1	-1E+10	1	-1E+10	1	-1E+10	1	-1E+10	1	-1E+10	1
4902549	55	C	02/15/2022	18:57	-131.961	47.504	0	260.20	0	5.7220	0	33.8240	0	26.661	0	257.866	0	123.1	4	40.4	4	-1E+10	1	-1E+10	1	-1E+10	1	-1E+10	1	-1E+10	1	-1E+10	1
4902549	55	C	02/15/2022	18:57	-131.961	47.504	0	261.00	0	5.7140	0	33.8260	0	26.663	0	258.658	0	122.6	4	40.2	4	-1E+10	1	-1E+10	1	-1E+10	1	-1E+10	1	-1E+10	1	-1E+10	1
4902549	55	C	02/15/2022	18:57	-131.961	47.504	0	261.90	0	5.7000	0	33.8260	0	26.665	0	259.550	0	122.2	4	40.0	4	-1E+10	1	-1E+10	1	-1E+10	1	-1E+10	1	-1E+10	1	-1E+10	1
4902549	55	C	02/15/2022	18:57	-131.961	47.504	0	262.80	0	5.6890	0	33.8270	0	26.667	0	260.441	0	121.6	4	39.9	4	-1E+10	1	-1E+10	1	-1E+10	1	-1E+10	1	-1E+10	1	-1E+10	1
4902549	55	C	02/15/2022	18:57	-131.961	47.504	0	264.00	0	5.6720	0	33.8270	0	26.669	0	261.629	0	120.9	4	39.6	4	-1E+10	1	-1E+10	1	-1E+10	1	-1E+10	1	-1E+10	1	-1E+10	1
4902549	55	C	02/15/2022	18:57	-131.961	47.504	0	265.30	0	5.6500	0	33.8310	0	26.675	0	262.917	0	120.3	4	39.4	4	-1E+10	1	-1E+10	1	-1E+10	1	-1E+10	1	-1E+10	1	-1E+10	1
4902549	55	C	02/15/2022	18:57	-131.961	47.504	0	266.10	0	5.6330	0	33.8300	0	26.676	0	263.709	0	119.9	4	39.3	4	-1E+10	1	-1E+10	1	-1E+10	1	-1E+10	1	-1E+10	1	-1E+10	1
4902549	55	C	02/15/2022	18:57	-131.961	47.504	0	267.00	0	5.6270	0	33.8290	0	26.676	0	264.601	0	119.6	4	39.2	4	-1E+10	1	-1E+10	1	-1E+10	1	-1E+10	1	-1E+10	1	-1E+10	1
4902549	55	C	02/15/2022	18:57	-131.961	47.504	0	267.80	0	5.6270	0	33.8310	0	26.678	0	265.393	0	119.2	4	39.0	4	-1E+10	1	-1E+10	1	-1E+10	1	-1E+10	1	-1E+10	1	-1E+10	1
4902549	55	C	02/15/2022	18:57	-131.961	47.504	0	268.70	0	5.6220	0	33.8310	0	26.678	0	266.284	0	118.8	4	38.9	4	-1E+10	1	-1E+10	1	-1E+10	1	-1E+10	1	-1E+10	1	-1E+10	1
4902549	55	C	02/15/2022	18:57	-131.961	47.504	0	269.90	0	5.6100	0	33.8310	0	26.680	0	267.473	0	118.1	4	38.6	4	-1E+10	1	-1E+10	1	-1E+10	1	-1E+10	1	-1E+10	1	-1E+10	1
4902549	55	C	02/15/2022	18:57	-131.961	47.504	0	271.20	0	5.5890	0	33.8330	0	26.684	0	268.760	0	117.6	4	38.5	4	-1E+10	1	-1E+10	1	-1E+10	1	-1E+10	1	-1E+10	1	-1E+10	1
4902549	55	C	02/15/2022	18:57	-131.961	47.504	0	272.00	0	5.5870	0	33.8330	0	26.684	0	269.552	0	117.2	4	38.3	4	-1E+10	1	-1E+10	1	-1E+10	1	-1E+10	1	-1E+10	1	-1E+10	1
4902549	55	C	02/15/2022	18:57	-131.961	47.504	0	272.90	0	5.5830	0	33.8330	0	26.685	0	270.444	0	116.8	4	38.2	4	-1E+10	1	-1E+10	1	-1E+10	1	-1E+10	1	-1E+10	1	-1E+10	1
4902549	55	C	02/15/2022	18:57	-131.961	47.504	0	273.80	0	5.5800	0	33.8330	0	26.685	0	271.335	0	116.3	4	38.0	4	-1E+10	1	-1E+10	1	-1E+10	1	-1E+10	1	-1E+10	1	-1E+10	1
4902549	55	C	02/15/2022	18:57	-131.961	47.504	0	275.00	0	5.5740	0	33.8330	0	26.686	0	272.523	0	115.5	4	37.7	4	-1E+10	1	-1E+10	1	-1E+10	1	-1E+10	1	-1E+10	1	-1E+10	1
4902549	55	C	02/15/2022	18:57	-131.961	47.504	0	276.30	0	5.5650	0	33.8330	0	26.687	0	273.811	0	114.6	4	37.5	4	-1E+10	1	-1E+10	1	-1E+10	1	-1E+10	1	-1E+10	1	-1E+10	1
4902549	55	C	02/15/2022	18:57	-131.961	47.504	0	277.10	0	5.5480	0	33.8350	0	26.690	0	274.603	0	114.0	4	37.3	4	-1E+10	1	-1E+10	1	-1E+10	1	-1E+10	1	-1E+10	1	-1E+10	1
4902549	55	C	02/15/2022	18:57	-131.961	47.504	0	278.00	0	5.5300	0	33.8330	0	26.691	0	275.494	0	113.5	4	37.1	4	-1E+10	1	-1E+10	1	-1E+10	1	-1E+10	1	-1E+10	1	-1E+10	1
4902549	55	C	02/15/2022	18:57	-131.961	47.504	0	278.80	0	5.5090	0	33.8360	0	26.696	0	276.287	0	113.0	4	36.9	4	-1E+10	1	-1E+10	1	-1E+10	1	-1E+10	1	-1E+10	1	-1E+10	1
4902549	55	C	02/15/2022	18:57	-131.961	47.504	0	279.70	0	5.4810	0	33.8350	0	26.698	0	277.178	0	112.5	4	36.7	4	-1E+10	1	-1E+10	1	-1E+10	1	-1E+10	1	-1E+10	1	-1E+10	1
4902549	55	C	02/15/2022	18:57	-131.961	47.504	0	280.90	0	5.4620	0	33.8340	0	26.700	0	278.366	0	111.7	4	36.4	4	-1E+10	1	-1E+10	1	-1E+10	1	-1E+10	1	-1E+10	1	-1E+10	1
4902549	55	C	02/15/2022	18:57	-131.961	47.504	0	282.20	0	5.4320	0	33.8380	0	26.707	0	279.654	0	110.9	4	36.1	4	-1E+10	1	-1E+10	1	-1E+10	1	-1E+10	1	-1E+10	1	-1E+10	1
4902549	55	C	02/15/2022	18:57	-131.961	47.504	0	283.00	0	5.4180	0	33.8390	0	26.709	0	280.446	0	110.5	4	36.0	4	-1E+10	1	-1E+10	1	-1E+10	1	-1E+10	1	-1E+10	1	-1E+10	1
4902549	55	C	02/15/2022	18:57	-131.961	47.504	0	283.80	0	5.4100	0	33.8370	0	26.708	0	281.238	0	110.1	4	35.8	4	-1E+10	1	-1E+10	1	-1E+10	1	-1E+10	1	-1E+10	1	-1E+10	1
4902549	55	C	02/15/2022	18:57	-131.961	47.504	0	284.70	0	5.3940	0	33.8380	0	26.711	0	282.129	0	109.7	4	35.7	4	-1E+10	1	-1E+10	1	-1E+10	1	-1E+10	1	-1E+10	1	-1E+10	1
4902549	55	C	02/15/2022	18:57	-131.961	47.504	0	285.90	0	5.3890	0	33.8390	0	26.713	0	283.318	0	109.0	4	35.5	4	-1E+10	1	-1E+10	1	-1E+10	1	-1E+10	1	-1E+10	1	-1E+10	1
4902549	55	C	02/15/2022	18:57	-131.961	47.504	0	287.20	0	5.3880	0	33.8400	0	26.713	0	284.605	0	108.3	4	35.2	4	-1E+10	1	-1E+10	1	-1E+10	1	-1E+10	1	-1E+10	1	-1E+10	1
4902549	55	C	02/15/2022	18:57	-131.961	47.504	0	288.00	0	5.3870	0	33.8410	0	26.714	0	285.397	0	107.7	4	35.1	4	-1E+10	1	-1E+10	1	-1E+10	1	-1E+10	1	-1E+10	1	-1E+10	1
4902549	55	C	02/15/2022	18:57	-131.961	47.504	0	288.90	0	5.3850	0	33.8410	0	26.715	0	286.289	0	107.2	4	34.9	4	-1E+10	1	-1E+10	1	-1E+10	1	-1E+10	1	-1E+10	1	-1E+10	1
4902549	55	C	02/15/2022	18:57	-131.961	47.504	0	289.80	0	5.3680	0	33.8430	0	26.718	0	287.180	0	106.6	4	34.7	4	-1E+10	1	-1E+10	1	-1E+10	1	-1E+10	1	-1E+10	1	-1E+10	1
4902549	55	C	02/15/2022	18:57	-131.961	47.504	0	290.60	0	5.3580	0	33.8400	0	26.717	0	287.972	0	106.0	4	34.5	4	-1E+10	1	-1E+10	1	-1E+10	1	-1E+10	1	-1E+10	1	-1E+10	1
4902549	55	C	02/15/2022	18:57	-131.961	47.504	0	291.90	0	5.3080	0	33.8390	0	26.722	0	289.259	0	105.2	4	34.2	4	-1E+10	1	-1E+10	1	-1E+10	1	-1E+10	1	-1E+10	1	-1E+10	1
4902549	55	C	02/15/2022	18:57	-131.961	47.504	0	293.30	0	5.2750	0	33.8390	0	26.726	0	290.646	0	104.4	4	33.9	4	-1E+10	1	-1E+10	1	-1E+10	1	-1E+10	1	-1E+10	1	-1E+10	1
4902549	55	C	02/15/2022	18:57	-131.961	47.504	0	294.20	0	5.2630	0	33.8410	0	26.729	0	291.537	0	103.9	4	33.7	4	-1E+10	1	-1E+10	1	-1E+10	1	-1E+10	1	-1E+10	1	-1E+10	1
4902549	55	C	02/15/2022	18:57	-131.961	47.504	0	295.00	0	5.2460	0	33.8420	0	26.732	0	292.329	0	103.4	4	33.5	4	-1E+10	1	-1E+10	1	-1E+10	1	-1E+10	1	-1E+10	1	-1E+10	1
4902549	55	C	02/15/2022	18:57	-131.961	47.504	0	295.90	0	5.2430	0	33.8440	0	26.734	0	293.220	0	103.0	4	33.4	4	-1E+10	1	-1E+10	1	-1E+10	1	-1E+10	1	-1E+10	1	-1E+10	1
4902549	55	C	02/15/2022	18:57	-131.961	47.504	0	296.80	0	5.2300	0	33.8450	0	26.736	0	294.112	0	102.5	4	33.3	4	-1E+10	1	-1E+10	1	-1E+10	1	-1E+10	1	-1E+10	1	-1E+10	1
4902549	55	C	02/15/2022	18:57	-131.961	47.504	0	297.70	0	5.2220	0	33.8460	0	26.738	0	295.003	0	102.1	4	33.1	4	-1E+10	1	-1E+10	1	-1E+10	1	-1E+10	1	-1E+10	1	-1E+10	1
4902549	55	C	02/15/2022	18:57	-131.961	47.504	0	298.60	0	5.2250	0	33.8470	0	26.738	0	295.894	0	101.6	4	32.9	4	-1E+10	1	-1E+10	1	-1E+10	1	-1E+10	1	-1E+10	1	-1E+10	1
4902549	55	C	02/15/2022	18:57	-131.961	47.504	0	299.90	0	5.2310	0	33.8500	0	26.740	0	297.181	0	100.9	4	32.7	4	-1E+10	1	-1E+10	1	-1E+10	1	-1E+10	1	-1E+10	1	-1E+10	1
4902549	55	C	02/15/2022	18:57	-131.961	47.504	0	301.30	0	5.2280	0	33.8530	0	26.743	0	298.568	0	100.1	4	32.5	4	-1E+10	1	-1E+10	1	-1E+10	1	-1E+10	1	-1E+10	1	-1E+10	1
4902549	55	C	02/15/2022	18:57	-131.961	47.504	0	302.20	0	5.2260	0	33.8520	0	26.742	0	299.459	0	99.6	4	32.3	4	-1E+10	1	-1E+10	1	-1E+10	1	-1E+10	1	-1E+10	1	-1E+10	1
4902549	55	C	02/15/2022	18:57	-131.961	47.504	0	303.00	0	5.2220	0	33.8530	0	26.743	0	300.251	0	99.0	4	32.1	4	-1E+10	1	-1E+10	1	-1E+10	1	-1E+10	1	-1E+10	1	-1E+10	1
4902549	55	C	02/15/2022	18:57	-131.961	47.504	0	303.90	0	5.2130	0	33.8540	0	26.745	0	301.142	0	98.4	4	31.9	4	-1E+10	1	-1E+10	1	-1E+10	1	-1E+10	1	-1E+10	1	-1E+10	1
4902549	55	C	02/15/2022	18:57	-131.961	47.504	0	304.80	0	5.2000	0	33.8560	0	26.748	0	302.033	0	97.8	4	31.7	4	-1E+10	1	-1E+10	1	-1E+10	1	-1E+10	1	-1E+10	1	-1E+10	1
4902549	55	C	02/15/2022	18:57	-131.961	47.504	0	305.70	0	5.1880	0	33.8550	0	26.749	0	302.924	0	97.2	4	31.5	4	-1E+10	1	-1E+10	1	-1E+10	1	-1E+10	1	-1E+10	1	-1E+10	1
4902549	55	C	02/15/2022	18:57	-131.961	47.504	0	306.60	0	5.1770	0	33.8550	0	26.750	0	303.816	0	96.6	4	31.3	4	-1E+10	1	-1E+10	1	-1E+10	1	-1E+10	1	-1E+10	1	-1E+10	1
4902549	55	C	02/15/2022	18:57	-131.961	47.504	0	307.90	0	5.1420	0	33.8550	0	26.754	0	305.103	0	95.6	4	31.0	4	-1E+10	1	-1E+10	1	-1E+10	1	-1E+10	1	-1E+10	1	-1E+10	1
4902549	55	C	02/15/2022	18:57	-131.961	47.504	0	309.20	0	5.1180	0	33.8570	0	26.758	0	306.390	0	94.8	4	30.7	4	-1E+10	1	-1E+10	1	-1E+10	1	-1E+10	1	-1E+10	1	-1E+10	1
4902549	55	C	02/15/2022	18:57	-131.961	47.504	0	310.10	0	5.1110	0	33.8590	0	26.761	0	307.281	0	94.3	4	30.5	4	-1E+10	1	-1E+10	1	-1E+10	1	-1E+10	1	-1E+10	1	-1E+10	1
4902549	55	C	02/15/2022	18:57	-131.961	47.504	0	311.00	0	5.1040	0	33.8590	0	26.762	0	308.172	0	93.7	4	30.3	4	-1E+10	1	-1E+10	1	-1E+10	1	-1E+10	1	-1E+10	1	-1E+10	1
4902549	55	C	02/15/2022	18:57	-131.961	47.504	0	311.90	0	5.0810	0	33.8600	0	26.765	0	309.064	0	93.2	4	30.1	4	-1E+10	1	-1E+10	1	-1E+10	1	-1E+10	1	-1E+10	1	-1E+10	1
4902549	55	C	02/15/2022	18:57	-131.961	47.504	0	312.80	0	5.0620	0	33.8580	0	26.766	0	309.955	0	92.7	4	29.9	4	-1E+10	1	-1E+10	1	-1E+10	1	-1E+10	1	-1E+10	1	-1E+10	1
4902549	55	C	02/15/2022	18:57	-131.961	47.504	0	313.70	0	5.0560	0	33.8570	0	26.766	0	310.846	0	92.1	4	29.7	4	-1E+10	1	-1E+10	1	-1E+10	1	-1E+10	1	-1E+10	1	-1E+10	1
4902549	55	C	02/15/2022	18:57	-131.961	47.504	0	314.90	0	5.0390	0	33.8560	0	26.767	0	312.034	0	91.1	4	29.4	4	-1E+10	1	-1E+10	1	-1E+10	1	-1E+10	1	-1E+10	1	-1E+10	1
4902549	55	C	02/15/2022	18:57	-131.961	47.504	0	316.30	0	5.0020	0	33.8580	0	26.773	0	313.420	0	90.3	4	29.1	4	-1E+10	1	-1E+10	1	-1E+10	1	-1E+10	1	-1E+10	1	-1E+10	1
4902549	55	C	02/15/2022	18:57	-131.961	47.504	0	317.10	0	4.9740	0	33.8580	0	26.776	0	314.212	0	89.8	4	29.0	4	-1E+10	1	-1E+10	1	-1E+10	1	-1E+10	1	-1E+10	1	-1E+10	1
4902549	55	C	02/15/2022	18:57	-131.961	47.504	0	318.00	0	4.9730	0	33.8590	0	26.777	0	315.103	0	89.4	4	28.8	4	-1E+10	1	-1E+10	1	-1E+10	1	-1E+10	1	-1E+10	1	-1E+10	1
4902549	55	C	02/15/2022	18:57	-131.961	47.504	0	318.90	0	4.9770	0	33.8610	0	26.778	0	315.995	0	88.8	4	28.6	4	-1E+10	1	-1E+10	1	-1E+10	1	-1E+10	1	-1E+10	1	-1E+10	1
4902549	55	C	02/15/2022	18:57	-131.961	47.504	0	319.70	0	4.9750	0	33.8620	0	26.779	0	316.787	0	88.3	4	28.5	4	-1E+10	1	-1E+10	1	-1E+10	1	-1E+10	1	-1E+10	1	-1E+10	1
4902549	55	C	02/15/2022	18:57	-131.961	47.504	0	320.60	0	4.9470	0	33.8600	0	26.780	0	317.678	0	87.8	4	28.3	4	-1E+10	1	-1E+10	1	-1E+10	1	-1E+10	1	-1E+10	1	-1E+10	1
4902549	55	C	02/15/2022	18:57	-131.961	47.504	0	321.90	0	4.9200	0	33.8610	0	26.784	0	318.965	0	87.1	4	28.1	4	-1E+10	1	-1E+10	1	-1E+10	1	-1E+10	1	-1E+10	1	-1E+10	1
4902549	55	C	02/15/2022	18:57	-131.961	47.504	0	323.30	0	4.8970	0	33.8640	0	26.789	0	320.351	0	86.6	4	27.9	4	-1E+10	1	-1E+10	1	-1E+10	1	-1E+10	1	-1E+10	1	-1E+10	1
4902549	55	C	02/15/2022	18:57	-131.961	47.504	0	324.20	0	4.8940	0	33.8650	0	26.790	0	321.242	0	86.3	4	27.8	4	-1E+10	1	-1E+10	1	-1E+10	1	-1E+10	1	-1E+10	1	-1E+10	1
4902549	55	C	02/15/2022	18:57	-131.961	47.504	0	325.10	0	4.8890	0	33.8670	0	26.792	0	322.133	0	86.0	4	27.7	4	-1E+10	1	-1E+10	1	-1E+10	1	-1E+10	1	-1E+10	1	-1E+10	1
4902549	55	C	02/15/2022	18:57	-131.961	47.504	0	326.00	0	4.8880	0	33.8680	0	26.793	0	323.024	0	85.7	4	27.6	4	-1E+10	1	-1E+10	1	-1E+10	1	-1E+10	1	-1E+10	1	-1E+10	1
4902549	55	C	02/15/2022	18:57	-131.961	47.504	0	326.90	0	4.8760	0	33.8720	0	26.798	0	323.915	0	85.4	4	27.5	4	-1E+10	1	-1E+10	1	-1E+10	1	-1E+10	1	-1E+10	1	-1E+10	1
4902549	55	C	02/15/2022	18:57	-131.961	47.504	0	327.80	0	4.8980	0	33.8790	0	26.801	0	324.806	0	85.1	4	27.4	4	-1E+10	1	-1E+10	1	-1E+10	1	-1E+10	1	-1E+10	1	-1E+10	1
4902549	55	C	02/15/2022	18:57	-131.961	47.504	0	328.80	0	4.9010	0	33.8810	0	26.802	0	325.797	0	84.8	4	27.3	4	-1E+10	1	-1E+10	1	-1E+10	1	-1E+10	1	-1E+10	1	-1E+10	1
4902549	55	C	02/15/2022	18:57	-131.961	47.504	0	329.70	0	4.9040	0	33.8820	0	26.803	0	326.688	0	84.4	4	27.2	4	-1E+10	1	-1E+10	1	-1E+10	1	-1E+10	1	-1E+10	1	-1E+10	1
4902549	55	C	02/15/2022	18:57	-131.961	47.504	0	330.60	0	4.9000	0	33.8840	0	26.805	0	327.579	0	84.1	4	27.1	4	-1E+10	1	-1E+10	1	-1E+10	1	-1E+10	1	-1E+10	1	-1E+10	1
4902549	55	C	02/15/2022	18:57	-131.961	47.504	0	331.90	0	4.9070	0	33.8830	0	26.803	0	328.866	0	83.4	4	26.9	4	-1E+10	1	-1E+10	1	-1E+10	1	-1E+10	1	-1E+10	1	-1E+10	1
4902549	55	C	02/15/2022	18:57	-131.961	47.504	0	333.30	0	4.9080	0	33.8850	0	26.805	0	330.252	0	82.6	4	26.6	4	-1E+10	1	-1E+10	1	-1E+10	1	-1E+10	1	-1E+10	1	-1E+10	1
4902549	55	C	02/15/2022	18:57	-131.961	47.504	0	334.20	0	4.9080	0	33.8840	0	26.804	0	331.143	0	82.0	4	26.4	4	-1E+10	1	-1E+10	1	-1E+10	1	-1E+10	1	-1E+10	1	-1E+10	1
4902549	55	C	02/15/2022	18:57	-131.961	47.504	0	335.10	0	4.9050	0	33.8840	0	26.804	0	332.034	0	81.4	4	26.2	4	-1E+10	1	-1E+10	1	-1E+10	1	-1E+10	1	-1E+10	1	-1E+10	1
4902549	55	C	02/15/2022	18:57	-131.961	47.504	0	336.00	0	4.8950	0	33.8860	0	26.807	0	332.925	0	80.7	4	26.0	4	-1E+10	1	-1E+10	1	-1E+10	1	-1E+10	1	-1E+10	1	-1E+10	1
4902549	55	C	02/15/2022	18:57	-131.961	47.504	0	337.00	0	4.8440	0	33.8900	0	26.816	0	333.915	0	80.3	4	25.8	4	-1E+10	1	-1E+10	1	-1E+10	1	-1E+10	1	-1E+10	1	-1E+10	1
4902549	55	C	02/15/2022	18:57	-131.961	47.504	0	337.90	0	4.8180	0	33.8820	0	26.812	0	334.806	0	80.0	4	25.7	4	-1E+10	1	-1E+10	1	-1E+10	1	-1E+10	1	-1E+10	1	-1E+10	1
4902549	55	C	02/15/2022	18:57	-131.961	47.504	0	338.80	0	4.8090	0	33.8840	0	26.815	0	335.697	0	79.6	4	25.6	4	-1E+10	1	-1E+10	1	-1E+10	1	-1E+10	1	-1E+10	1	-1E+10	1
4902549	55	C	02/15/2022	18:57	-131.961	47.504	0	339.70	0	4.8000	0	33.8840	0	26.816	0	336.588	0	79.2	4	25.4	4	-1E+10	1	-1E+10	1	-1E+10	1	-1E+10	1	-1E+10	1	-1E+10	1
4902549	55	C	02/15/2022	18:57	-131.961	47.504	0	340.70	0	4.7890	0	33.8840	0	26.817	0	337.578	0	78.8	4	25.3	4	-1E+10	1	-1E+10	1	-1E+10	1	-1E+10	1	-1E+10	1	-1E+10	1
4902549	55	C	02/15/2022	18:57	-131.961	47.504	0	341.60	0	4.7880	0	33.8830	0	26.817	0	338.469	0	78.4	4	25.2	4	-1E+10	1	-1E+10	1	-1E+10	1	-1E+10	1	-1E+10	1	-1E+10	1
4902549	55	C	02/15/2022	18:57	-131.961	47.504	0	342.60	0	4.7710	0	33.8840	0	26.819	0	339.459	0	78.1	4	25.1	4	-1E+10	1	-1E+10	1	-1E+10	1	-1E+10	1	-1E+10	1	-1E+10	1
4902549	55	C	02/15/2022	18:57	-131.961	47.504	0	343.60	0	4.7630	0	33.8850	0	26.821	0	340.449	0	77.7	4	24.9	4	-1E+10	1	-1E+10	1	-1E+10	1	-1E+10	1	-1E+10	1	-1E+10	1
4902549	55	C	02/15/2022	18:57	-131.961	47.504	0	344.90	0	4.7540	0	33.8860	0	26.823	0	341.736	0	77.3	4	24.8	4	-1E+10	1	-1E+10	1	-1E+10	1	-1E+10	1	-1E+10	1	-1E+10	1
4902549	55	C	02/15/2022	18:57	-131.961	47.504	0	346.40	0	4.7470	0	33.8880	0	26.825	0	343.221	0	76.8	4	24.6	4	-1E+10	1	-1E+10	1	-1E+10	1	-1E+10	1	-1E+10	1	-1E+10	1
4902549	55	C	02/15/2022	18:57	-131.961	47.504	0	347.40	0	4.7410	0	33.8880	0	26.826	0	344.211	0	76.6	4	24.6	4	-1E+10	1	-1E+10	1	-1E+10	1	-1E+10	1	-1E+10	1	-1E+10	1
4902549	55	C	02/15/2022	18:57	-131.961	47.504	0	348.30	0	4.7380	0	33.8890	0	26.827	0	345.102	0	76.3	4	24.5	4	-1E+10	1	-1E+10	1	-1E+10	1	-1E+10	1	-1E+10	1	-1E+10	1
4902549	55	C	02/15/2022	18:57	-131.961	47.504	0	349.30	0	4.7370	0	33.8890	0	26.827	0	346.092	0	75.9	4	24.3	4	-1E+10	1	-1E+10	1	-1E+10	1	-1E+10	1	-1E+10	1	-1E+10	1
4902549	55	C	02/15/2022	18:57	-131.961	47.504	0	350.30	0	4.7330	0	33.8900	0	26.828	0	347.082	0	75.6	4	24.2	4	-1E+10	1	-1E+10	1	-1E+10	1	-1E+10	1	-1E+10	1	-1E+10	1
4902549	55	C	02/15/2022	18:57	-131.961	47.504	0	353.20	0	4.7140	0	33.8930	0	26.833	0	349.953	0	74.6	4	23.9	4	-1E+10	1	-1E+10	1	-1E+10	1	-1E+10	1	-1E+10	1	-1E+10	1
4902549	55	C	02/15/2022	18:57	-131.961	47.504	0	358.20	0	4.6900	0	33.9010	0	26.842	0	354.903	0	73.5	4	23.6	4	-1E+10	1	-1E+10	1	-1E+10	1	-1E+10	1	-1E+10	1	-1E+10	1
4902549	55	C	02/15/2022	18:57	-131.961	47.504	0	362.80	0	4.6760	0	33.9040	0	26.846	0	359.456	0	72.7	4	23.3	4	-1E+10	1	-1E+10	1	-1E+10	1	-1E+10	1	-1E+10	1	-1E+10	1
4902549	55	C	02/15/2022	18:57	-131.961	47.504	0	367.50	0	4.6700	0	33.9050	0	26.847	0	364.109	0	71.7	4	23.0	4	-1E+10	1	-1E+10	1	-1E+10	1	-1E+10	1	-1E+10	1	-1E+10	1
4902549	55	C	02/15/2022	18:57	-131.961	47.504	0	372.90	0	4.6590	0	33.9070	0	26.850	0	369.454	0	70.2	4	22.5	4	-1E+10	1	-1E+10	1	-1E+10	1	-1E+10	1	-1E+10	1	-1E+10	1
4902549	55	C	02/15/2022	18:57	-131.961	47.504	0	377.80	0	4.6340	0	33.9130	0	26.858	0	374.305	0	68.7	4	22.0	4	-1E+10	1	-1E+10	1	-1E+10	1	-1E+10	1	-1E+10	1	-1E+10	1
4902549	55	C	02/15/2022	18:57	-131.961	47.504	0	382.90	0	4.6200	0	33.9160	0	26.862	0	379.353	0	67.6	4	21.6	4	-1E+10	1	-1E+10	1	-1E+10	1	-1E+10	1	-1E+10	1	-1E+10	1
4902549	55	C	02/15/2022	18:57	-131.961	47.504	0	387.90	0	4.6090	0	33.9190	0	26.865	0	384.302	0	66.6	4	21.3	4	-1E+10	1	-1E+10	1	-1E+10	1	-1E+10	1	-1E+10	1	-1E+10	1
4902549	55	C	02/15/2022	18:57	-131.961	47.504	0	393.10	0	4.5940	0	33.9230	0	26.870	0	389.449	0	65.5	4	20.9	4	-1E+10	1	-1E+10	1	-1E+10	1	-1E+10	1	-1E+10	1	-1E+10	1
4902549	55	C	02/15/2022	18:57	-131.961	47.504	0	398.30	0	4.5820	0	33.9260	0	26.874	0	394.596	0	64.3	4	20.5	4	-1E+10	1	-1E+10	1	-1E+10	1	-1E+10	1	-1E+10	1	-1E+10	1
4902549	55	C	02/15/2022	18:57	-131.961	47.504	0	402.90	0	4.5770	0	33.9280	0	26.876	0	399.148	0	63.1	4	20.2	4	-1E+10	1	-1E+10	1	-1E+10	1	-1E+10	1	-1E+10	1	-1E+10	1
4902549	55	C	02/15/2022	18:57	-131.961	47.504	0	407.50	0	4.5710	0	33.9300	0	26.878	0	403.701	0	61.4	4	19.6	4	-1E+10	1	-1E+10	1	-1E+10	1	-1E+10	1	-1E+10	1	-1E+10	1
4902549	55	C	02/15/2022	18:57	-131.961	47.504	0	412.90	0	4.5370	0	33.9410	0	26.891	0	409.045	0	59.3	4	18.9	4	-1E+10	1	-1E+10	1	-1E+10	1	-1E+10	1	-1E+10	1	-1E+10	1
4902549	55	C	02/15/2022	18:57	-131.961	47.504	0	418.30	0	4.5140	0	33.9490	0	26.900	0	414.390	0	57.8	4	18.4	4	-1E+10	1	-1E+10	1	-1E+10	1	-1E+10	1	-1E+10	1	-1E+10	1
4902549	55	C	02/15/2022	18:57	-131.961	47.504	0	423.00	0	4.4990	0	33.9540	0	26.905	0	419.041	0	56.9	4	18.1	4	-1E+10	1	-1E+10	1	-1E+10	1	-1E+10	1	-1E+10	1	-1E+10	1
4902549	55	C	02/15/2022	18:57	-131.961	47.504	0	427.70	0	4.4920	0	33.9560	0	26.908	0	423.692	0	55.8	4	17.8	4	-1E+10	1	-1E+10	1	-1E+10	1	-1E+10	1	-1E+10	1	-1E+10	1
4902549	55	C	02/15/2022	18:57	-131.961	47.504	0	433.00	0	4.4760	0	33.9620	0	26.914	0	428.937	0	54.5	4	17.4	4	-1E+10	1	-1E+10	1	-1E+10	1	-1E+10	1	-1E+10	1	-1E+10	1
4902549	55	C	02/15/2022	18:57	-131.961	47.504	0	438.30	0	4.4580	0	33.9690	0	26.922	0	434.182	0	53.4	4	17.0	4	-1E+10	1	-1E+10	1	-1E+10	1	-1E+10	1	-1E+10	1	-1E+10	1
4902549	55	C	02/15/2022	18:57	-131.961	47.504	0	443.00	0	4.4540	0	33.9700	0	26.923	0	438.833	0	52.4	4	16.7	4	-1E+10	1	-1E+10	1	-1E+10	1	-1E+10	1	-1E+10	1	-1E+10	1
4902549	55	C	02/15/2022	18:57	-131.961	47.504	0	447.60	0	4.4350	0	33.9770	0	26.930	0	443.384	0	51.4	4	16.4	4	-1E+10	1	-1E+10	1	-1E+10	1	-1E+10	1	-1E+10	1	-1E+10	1
4902549	55	C	02/15/2022	18:57	-131.961	47.504	0	452.70	0	4.4260	0	33.9800	0	26.934	0	448.431	0	50.4	4	16.0	4	-1E+10	1	-1E+10	1	-1E+10	1	-1E+10	1	-1E+10	1	-1E+10	1
4902549	55	C	02/15/2022	18:57	-131.961	47.504	0	457.80	0	4.4150	0	33.9850	0	26.939	0	453.477	0	49.0	4	15.6	4	-1E+10	1	-1E+10	1	-1E+10	1	-1E+10	1	-1E+10	1	-1E+10	1
4902549	55	C	02/15/2022	18:57	-131.961	47.504	0	462.80	0	4.3940	0	33.9910	0	26.946	0	458.424	0	47.8	4	15.2	4	-1E+10	1	-1E+10	1	-1E+10	1	-1E+10	1	-1E+10	1	-1E+10	1
4902549	55	C	02/15/2022	18:57	-131.961	47.504	0	467.70	0	4.3830	0	33.9940	0	26.950	0	463.273	0	46.9	4	14.9	4	-1E+10	1	-1E+10	1	-1E+10	1	-1E+10	1	-1E+10	1	-1E+10	1
4902549	55	C	02/15/2022	18:57	-131.961	47.504	0	472.70	0	4.3680	0	34.0000	0	26.956	0	468.220	0	46.0	4	14.6	4	-1E+10	1	-1E+10	1	-1E+10	1	-1E+10	1	-1E+10	1	-1E+10	1
4902549	55	C	02/15/2022	18:57	-131.961	47.504	0	478.20	0	4.3570	0	34.0040	0	26.960	0	473.661	0	45.1	4	14.3	4	-1E+10	1	-1E+10	1	-1E+10	1	-1E+10	1	-1E+10	1	-1E+10	1
4902549	55	C	02/15/2022	18:57	-131.961	47.504	0	483.00	0	4.3450	0	34.0080	0	26.965	0	478.410	0	44.3	4	14.1	4	-1E+10	1	-1E+10	1	-1E+10	1	-1E+10	1	-1E+10	1	-1E+10	1
4902549	55	C	02/15/2022	18:57	-131.961	47.504	0	487.80	0	4.3400	0	34.0100	0	26.967	0	483.159	0	43.5	4	13.8	4	-1E+10	1	-1E+10	1	-1E+10	1	-1E+10	1	-1E+10	1	-1E+10	1
4902549	55	C	02/15/2022	18:57	-131.961	47.504	0	493.20	0	4.3260	0	34.0160	0	26.973	0	488.501	0	42.4	4	13.5	4	-1E+10	1	-1E+10	1	-1E+10	1	-1E+10	1	-1E+10	1	-1E+10	1
4902549	55	C	02/15/2022	18:57	-131.961	47.504	0	497.90	0	4.3090	0	34.0220	0	26.980	0	493.151	0	41.5	4	13.2	4	-1E+10	1	-1E+10	1	-1E+10	1	-1E+10	1	-1E+10	1	-1E+10	1
4902549	55	C	02/15/2022	18:57	-131.961	47.504	0	502.60	0	4.3010	0	34.0240	0	26.982	0	497.801	0	40.6	4	12.9	4	-1E+10	1	-1E+10	1	-1E+10	1	-1E+10	1	-1E+10	1	-1E+10	1
4902549	55	C	02/15/2022	18:57	-131.961	47.504	0	507.70	0	4.2860	0	34.0290	0	26.988	0	502.846	0	39.3	4	12.5	4	-1E+10	1	-1E+10	1	-1E+10	1	-1E+10	1	-1E+10	1	-1E+10	1
4902549	55	C	02/15/2022	18:57	-131.961	47.504	0	512.70	0	4.2640	0	34.0380	0	26.998	0	507.792	0	38.2	4	12.1	4	-1E+10	1	-1E+10	1	-1E+10	1	-1E+10	1	-1E+10	1	-1E+10	1
4902549	55	C	02/15/2022	18:57	-131.961	47.504	0	517.70	0	4.2550	0	34.0410	0	27.001	0	512.738	0	37.0	4	11.8	4	-1E+10	1	-1E+10	1	-1E+10	1	-1E+10	1	-1E+10	1	-1E+10	1
4902549	55	C	02/15/2022	18:57	-131.961	47.504	0	522.60	0	4.2480	0	34.0460	0	27.006	0	517.585	0	35.2	4	11.2	4	-1E+10	1	-1E+10	1	-1E+10	1	-1E+10	1	-1E+10	1	-1E+10	1
4902549	55	C	02/15/2022	18:57	-131.961	47.504	0	527.50	0	4.2400	0	34.0550	0	27.014	0	522.431	0	34.1	4	10.8	4	-1E+10	1	-1E+10	1	-1E+10	1	-1E+10	1	-1E+10	1	-1E+10	1
4902549	55	C	02/15/2022	18:57	-131.961	47.504	0	532.80	0	4.2180	0	34.0580	0	27.018	0	527.674	0	32.9	4	10.4	4	-1E+10	1	-1E+10	1	-1E+10	1	-1E+10	1	-1E+10	1	-1E+10	1
4902549	55	C	02/15/2022	18:57	-131.961	47.504	0	537.80	0	4.2060	0	34.0650	0	27.025	0	532.619	0	30.7	4	9.7	4	-1E+10	1	-1E+10	1	-1E+10	1	-1E+10	1	-1E+10	1	-1E+10	1
4902549	55	C	02/15/2022	18:57	-131.961	47.504	0	543.00	0	4.2080	0	34.0780	0	27.035	0	537.762	0	28.8	4	9.1	4	-1E+10	1	-1E+10	1	-1E+10	1	-1E+10	1	-1E+10	1	-1E+10	1
4902549	55	C	02/15/2022	18:57	-131.961	47.504	0	548.20	0	4.1980	0	34.0830	0	27.040	0	542.906	0	28.1	4	8.9	4	-1E+10	1	-1E+10	1	-1E+10	1	-1E+10	1	-1E+10	1	-1E+10	1
4902549	55	C	02/15/2022	18:57	-131.961	47.504	0	553.30	0	4.1820	0	34.0880	0	27.046	0	547.950	0	27.5	4	8.7	4	-1E+10	1	-1E+10	1	-1E+10	1	-1E+10	1	-1E+10	1	-1E+10	1
4902549	55	C	02/15/2022	18:57	-131.961	47.504	0	558.00	0	4.1720	0	34.0900	0	27.049	0	552.598	0	27.3	4	8.6	4	-1E+10	1	-1E+10	1	-1E+10	1	-1E+10	1	-1E+10	1	-1E+10	1
4902549	55	C	02/15/2022	18:57	-131.961	47.504	0	562.90	0	4.1430	0	34.0920	0	27.053	0	557.444	0	27.2	4	8.6	4	-1E+10	1	-1E+10	1	-1E+10	1	-1E+10	1	-1E+10	1	-1E+10	1
4902549	55	C	02/15/2022	18:57	-131.961	47.504	0	567.90	0	4.1210	0	34.0940	0	27.057	0	562.389	0	26.6	4	8.4	4	-1E+10	1	-1E+10	1	-1E+10	1	-1E+10	1	-1E+10	1	-1E+10	1
4902549	55	C	02/15/2022	18:57	-131.961	47.504	0	572.70	0	4.1170	0	34.0970	0	27.060	0	567.136	0	26.1	4	8.3	4	-1E+10	1	-1E+10	1	-1E+10	1	-1E+10	1	-1E+10	1	-1E+10	1
4902549	55	C	02/15/2022	18:57	-131.961	47.504	0	577.60	0	4.1120	0	34.1000	0	27.063	0	571.981	0	25.7	4	8.1	4	-1E+10	1	-1E+10	1	-1E+10	1	-1E+10	1	-1E+10	1	-1E+10	1
4902549	55	C	02/15/2022	18:57	-131.961	47.504	0	582.80	0	4.0980	0	34.1020	0	27.066	0	577.123	0	25.1	4	7.9	4	-1E+10	1	-1E+10	1	-1E+10	1	-1E+10	1	-1E+10	1	-1E+10	1
4902549	55	C	02/15/2022	18:57	-131.961	47.504	0	587.80	0	4.0870	0	34.1060	0	27.071	0	582.068	0	24.2	4	7.7	4	-1E+10	1	-1E+10	1	-1E+10	1	-1E+10	1	-1E+10	1	-1E+10	1
4902549	55	C	02/15/2022	18:57	-131.961	47.504	0	593.10	0	4.0750	0	34.1120	0	27.077	0	587.309	0	23.4	4	7.4	4	-1E+10	1	-1E+10	1	-1E+10	1	-1E+10	1	-1E+10	1	-1E+10	1
4902549	55	C	02/15/2022	18:57	-131.961	47.504	0	598.20	0	4.0610	0	34.1170	0	27.082	0	592.351	0	22.6	4	7.1	4	-1E+10	1	-1E+10	1	-1E+10	1	-1E+10	1	-1E+10	1	-1E+10	1
4902549	55	C	02/15/2022	18:57	-131.961	47.504	0	603.10	0	4.0400	0	34.1220	0	27.088	0	597.197	0	21.9	4	6.9	4	-1E+10	1	-1E+10	1	-1E+10	1	-1E+10	1	-1E+10	1	-1E+10	1
4902549	55	C	02/15/2022	18:57	-131.961	47.504	0	608.10	0	4.0260	0	34.1270	0	27.094	0	602.140	0	21.4	4	6.7	4	-1E+10	1	-1E+10	1	-1E+10	1	-1E+10	1	-1E+10	1	-1E+10	1
4902549	55	C	02/15/2022	18:57	-131.961	47.504	0	613.20	0	4.0170	0	34.1300	0	27.097	0	607.183	0	20.8	4	6.6	4	-1E+10	1	-1E+10	1	-1E+10	1	-1E+10	1	-1E+10	1	-1E+10	1
4902549	55	C	02/15/2022	18:57	-131.961	47.504	0	618.10	0	4.0090	0	34.1330	0	27.100	0	612.028	0	20.2	4	6.4	4	-1E+10	1	-1E+10	1	-1E+10	1	-1E+10	1	-1E+10	1	-1E+10	1
4902549	55	C	02/15/2022	18:57	-131.961	47.504	0	622.90	0	4.0000	0	34.1380	0	27.105	0	616.773	0	19.7	4	6.2	4	-1E+10	1	-1E+10	1	-1E+10	1	-1E+10	1	-1E+10	1	-1E+10	1
4902549	55	C	02/15/2022	18:57	-131.961	47.504	0	627.70	0	3.9920	0	34.1400	0	27.108	0	621.519	0	19.3	4	6.1	4	-1E+10	1	-1E+10	1	-1E+10	1	-1E+10	1	-1E+10	1	-1E+10	1
4902549	55	C	02/15/2022	18:57	-131.961	47.504	0	632.70	0	3.9790	0	34.1440	0	27.112	0	626.462	0	18.8	4	5.9	4	-1E+10	1	-1E+10	1	-1E+10	1	-1E+10	1	-1E+10	1	-1E+10	1
4902549	55	C	02/15/2022	18:57	-131.961	47.504	0	637.80	0	3.9680	0	34.1470	0	27.116	0	631.504	0	18.3	4	5.8	4	-1E+10	1	-1E+10	1	-1E+10	1	-1E+10	1	-1E+10	1	-1E+10	1
4902549	55	C	02/15/2022	18:57	-131.961	47.504	0	642.80	0	3.9530	0	34.1540	0	27.123	0	636.447	0	17.8	4	5.6	4	-1E+10	1	-1E+10	1	-1E+10	1	-1E+10	1	-1E+10	1	-1E+10	1
4902549	55	C	02/15/2022	18:57	-131.961	47.504	0	647.90	0	3.9420	0	34.1570	0	27.126	0	641.489	0	17.5	4	5.5	4	-1E+10	1	-1E+10	1	-1E+10	1	-1E+10	1	-1E+10	1	-1E+10	1
4902549	55	C	02/15/2022	18:57	-131.961	47.504	0	653.00	0	3.9310	0	34.1600	0	27.130	0	646.531	0	17.2	4	5.4	4	-1E+10	1	-1E+10	1	-1E+10	1	-1E+10	1	-1E+10	1	-1E+10	1
4902549	55	C	02/15/2022	18:57	-131.961	47.504	0	658.20	0	3.9240	0	34.1620	0	27.132	0	651.671	0	16.8	4	5.3	4	-1E+10	1	-1E+10	1	-1E+10	1	-1E+10	1	-1E+10	1	-1E+10	1
4902549	55	C	02/15/2022	18:57	-131.961	47.504	0	662.80	0	3.9120	0	34.1650	0	27.136	0	656.218	0	16.5	4	5.2	4	-1E+10	1	-1E+10	1	-1E+10	1	-1E+10	1	-1E+10	1	-1E+10	1
4902549	55	C	02/15/2022	18:57	-131.961	47.504	0	667.50	0	3.9040	0	34.1680	0	27.139	0	660.864	0	16.2	4	5.1	4	-1E+10	1	-1E+10	1	-1E+10	1	-1E+10	1	-1E+10	1	-1E+10	1
4902549	55	C	02/15/2022	18:57	-131.961	47.504	0	672.50	0	3.8880	0	34.1720	0	27.144	0	665.806	0	16.0	4	5.0	4	-1E+10	1	-1E+10	1	-1E+10	1	-1E+10	1	-1E+10	1	-1E+10	1
4902549	55	C	02/15/2022	18:57	-131.961	47.504	0	677.90	0	3.8760	0	34.1750	0	27.148	0	671.144	0	15.7	4	4.9	4	-1E+10	1	-1E+10	1	-1E+10	1	-1E+10	1	-1E+10	1	-1E+10	1
4902549	55	C	02/15/2022	18:57	-131.961	47.504	0	683.30	0	3.8700	0	34.1770	0	27.150	0	676.481	0	15.4	4	4.8	4	-1E+10	1	-1E+10	1	-1E+10	1	-1E+10	1	-1E+10	1	-1E+10	1
4902549	55	C	02/15/2022	18:57	-131.961	47.504	0	688.10	0	3.8600	0	34.1800	0	27.153	0	681.226	0	15.2	4	4.8	4	-1E+10	1	-1E+10	1	-1E+10	1	-1E+10	1	-1E+10	1	-1E+10	1
4902549	55	C	02/15/2022	18:57	-131.961	47.504	0	693.00	0	3.8490	0	34.1820	0	27.156	0	686.069	0	15.1	4	4.7	4	-1E+10	1	-1E+10	1	-1E+10	1	-1E+10	1	-1E+10	1	-1E+10	1
4902549	55	C	02/15/2022	18:57	-131.961	47.504	0	697.80	0	3.8360	0	34.1850	0	27.160	0	690.813	0	14.9	4	4.7	4	-1E+10	1	-1E+10	1	-1E+10	1	-1E+10	1	-1E+10	1	-1E+10	1
4902549	55	C	02/15/2022	18:57	-131.961	47.504	0	703.00	0	3.8280	0	34.1870	0	27.162	0	695.952	0	14.7	4	4.6	4	-1E+10	1	-1E+10	1	-1E+10	1	-1E+10	1	-1E+10	1	-1E+10	1
4902549	55	C	02/15/2022	18:57	-131.961	47.504	0	708.20	0	3.8220	0	34.1890	0	27.164	0	701.091	0	14.4	4	4.5	4	-1E+10	1	-1E+10	1	-1E+10	1	-1E+10	1	-1E+10	1	-1E+10	1
4902549	55	C	02/15/2022	18:57	-131.961	47.504	0	712.90	0	3.8020	0	34.1940	0	27.170	0	705.736	0	14.2	4	4.5	4	-1E+10	1	-1E+10	1	-1E+10	1	-1E+10	1	-1E+10	1	-1E+10	1
4902549	55	C	02/15/2022	18:57	-131.961	47.504	0	718.00	0	3.7960	0	34.1950	0	27.172	0	710.776	0	14.0	4	4.4	4	-1E+10	1	-1E+10	1	-1E+10	1	-1E+10	1	-1E+10	1	-1E+10	1
4902549	55	C	02/15/2022	18:57	-131.961	47.504	0	723.00	0	3.7810	0	34.1990	0	27.176	0	715.717	0	13.7	4	4.3	4	-1E+10	1	-1E+10	1	-1E+10	1	-1E+10	1	-1E+10	1	-1E+10	1
4902549	55	C	02/15/2022	18:57	-131.961	47.504	0	728.10	0	3.7700	0	34.2010	0	27.179	0	720.757	0	13.4	4	4.2	4	-1E+10	1	-1E+10	1	-1E+10	1	-1E+10	1	-1E+10	1	-1E+10	1
4902549	55	C	02/15/2022	18:57	-131.961	47.504	0	733.10	0	3.7530	0	34.2060	0	27.185	0	725.698	0	12.9	4	4.0	4	-1E+10	1	-1E+10	1	-1E+10	1	-1E+10	1	-1E+10	1	-1E+10	1
4902549	55	C	02/15/2022	18:57	-131.961	47.504	0	737.80	0	3.7370	0	34.2120	0	27.191	0	730.342	0	12.6	4	3.9	4	-1E+10	1	-1E+10	1	-1E+10	1	-1E+10	1	-1E+10	1	-1E+10	1
4902549	55	C	02/15/2022	18:57	-131.961	47.504	0	742.90	0	3.7270	0	34.2150	0	27.195	0	735.382	0	12.4	4	3.9	4	-1E+10	1	-1E+10	1	-1E+10	1	-1E+10	1	-1E+10	1	-1E+10	1
4902549	55	C	02/15/2022	18:57	-131.961	47.504	0	748.10	0	3.7200	0	34.2170	0	27.197	0	740.520	0	12.2	4	3.8	4	-1E+10	1	-1E+10	1	-1E+10	1	-1E+10	1	-1E+10	1	-1E+10	1
4902549	55	C	02/15/2022	18:57	-131.961	47.504	0	753.00	0	3.7140	0	34.2190	0	27.199	0	745.361	0	12.0	4	3.8	4	-1E+10	1	-1E+10	1	-1E+10	1	-1E+10	1	-1E+10	1	-1E+10	1
4902549	55	C	02/15/2022	18:57	-131.961	47.504	0	757.90	0	3.7030	0	34.2210	0	27.202	0	750.203	0	11.8	4	3.7	4	-1E+10	1	-1E+10	1	-1E+10	1	-1E+10	1	-1E+10	1	-1E+10	1
4902549	55	C	02/15/2022	18:57	-131.961	47.504	0	762.80	0	3.6900	0	34.2250	0	27.206	0	755.044	0	11.6	4	3.6	4	-1E+10	1	-1E+10	1	-1E+10	1	-1E+10	1	-1E+10	1	-1E+10	1
4902549	55	C	02/15/2022	18:57	-131.961	47.504	0	767.70	0	3.6800	0	34.2270	0	27.209	0	759.885	0	11.4	4	3.6	4	-1E+10	1	-1E+10	1	-1E+10	1	-1E+10	1	-1E+10	1	-1E+10	1
4902549	55	C	02/15/2022	18:57	-131.961	47.504	0	772.60	0	3.6680	0	34.2320	0	27.214	0	764.727	0	11.2	4	3.5	4	-1E+10	1	-1E+10	1	-1E+10	1	-1E+10	1	-1E+10	1	-1E+10	1
4902549	55	C	02/15/2022	18:57	-131.961	47.504	0	777.60	0	3.6640	0	34.2330	0	27.215	0	769.666	0	11.1	4	3.5	4	-1E+10	1	-1E+10	1	-1E+10	1	-1E+10	1	-1E+10	1	-1E+10	1
4902549	55	C	02/15/2022	18:57	-131.961	47.504	0	782.60	0	3.6580	0	34.2350	0	27.218	0	774.606	0	10.9	4	3.4	4	-1E+10	1	-1E+10	1	-1E+10	1	-1E+10	1	-1E+10	1	-1E+10	1
4902549	55	C	02/15/2022	18:57	-131.961	47.504	0	787.70	0	3.6560	0	34.2350	0	27.218	0	779.645	0	10.8	4	3.4	4	-1E+10	1	-1E+10	1	-1E+10	1	-1E+10	1	-1E+10	1	-1E+10	1
4902549	55	C	02/15/2022	18:57	-131.961	47.504	0	793.00	0	3.6460	0	34.2380	0	27.221	0	784.880	0	10.5	4	3.3	4	-1E+10	1	-1E+10	1	-1E+10	1	-1E+10	1	-1E+10	1	-1E+10	1
4902549	55	C	02/15/2022	18:57	-131.961	47.504	0	797.80	0	3.6340	0	34.2420	0	27.226	0	789.622	0	10.3	4	3.2	4	-1E+10	1	-1E+10	1	-1E+10	1	-1E+10	1	-1E+10	1	-1E+10	1
4902549	55	C	02/15/2022	18:57	-131.961	47.504	0	802.70	0	3.6240	0	34.2450	0	27.229	0	794.463	0	10.1	4	3.2	4	-1E+10	1	-1E+10	1	-1E+10	1	-1E+10	1	-1E+10	1	-1E+10	1
4902549	55	C	02/15/2022	18:57	-131.961	47.504	0	808.10	0	3.6180	0	34.2460	0	27.230	0	799.797	0	9.9	4	3.1	4	-1E+10	1	-1E+10	1	-1E+10	1	-1E+10	1	-1E+10	1	-1E+10	1
4902549	55	C	02/15/2022	18:57	-131.961	47.504	0	813.40	0	3.6100	0	34.2480	0	27.233	0	805.032	0	9.7	4	3.0	4	-1E+10	1	-1E+10	1	-1E+10	1	-1E+10	1	-1E+10	1	-1E+10	1
4902549	55	C	02/15/2022	18:57	-131.961	47.504	0	818.30	0	3.6000	0	34.2510	0	27.236	0	809.872	0	9.5	4	3.0	4	-1E+10	1	-1E+10	1	-1E+10	1	-1E+10	1	-1E+10	1	-1E+10	1
4902549	55	C	02/15/2022	18:57	-131.961	47.504	0	823.20	0	3.5820	0	34.2560	0	27.242	0	814.712	0	9.3	4	2.9	4	-1E+10	1	-1E+10	1	-1E+10	1	-1E+10	1	-1E+10	1	-1E+10	1
4902549	55	C	02/15/2022	18:57	-131.961	47.504	0	828.00	0	3.5710	0	34.2590	0	27.246	0	819.453	0	9.2	4	2.9	4	-1E+10	1	-1E+10	1	-1E+10	1	-1E+10	1	-1E+10	1	-1E+10	1
4902549	55	C	02/15/2022	18:57	-131.961	47.504	0	832.90	0	3.5560	0	34.2630	0	27.250	0	824.293	0	9.1	4	2.8	4	-1E+10	1	-1E+10	1	-1E+10	1	-1E+10	1	-1E+10	1	-1E+10	1
4902549	55	C	02/15/2022	18:57	-131.961	47.504	0	837.70	0	3.5470	0	34.2650	0	27.253	0	829.034	0	9.0	4	2.8	4	-1E+10	1	-1E+10	1	-1E+10	1	-1E+10	1	-1E+10	1	-1E+10	1
4902549	55	C	02/15/2022	18:57	-131.961	47.504	0	842.60	0	3.5380	0	34.2670	0	27.255	0	833.874	0	8.9	4	2.8	4	-1E+10	1	-1E+10	1	-1E+10	1	-1E+10	1	-1E+10	1	-1E+10	1
4902549	55	C	02/15/2022	18:57	-131.961	47.504	0	847.90	0	3.5230	0	34.2700	0	27.259	0	839.108	0	8.8	4	2.7	4	-1E+10	1	-1E+10	1	-1E+10	1	-1E+10	1	-1E+10	1	-1E+10	1
4902549	55	C	02/15/2022	18:57	-131.961	47.504	0	853.20	0	3.5050	0	34.2750	0	27.265	0	844.342	0	8.6	4	2.7	4	-1E+10	1	-1E+10	1	-1E+10	1	-1E+10	1	-1E+10	1	-1E+10	1
4902549	55	C	02/15/2022	18:57	-131.961	47.504	0	858.20	0	3.4830	0	34.2800	0	27.271	0	849.280	0	8.4	4	2.6	4	-1E+10	1	-1E+10	1	-1E+10	1	-1E+10	1	-1E+10	1	-1E+10	1
4902549	55	C	02/15/2022	18:57	-131.961	47.504	0	862.80	0	3.4690	0	34.2840	0	27.275	0	853.823	0	8.3	4	2.6	4	-1E+10	1	-1E+10	1	-1E+10	1	-1E+10	1	-1E+10	1	-1E+10	1
4902549	55	C	02/15/2022	18:57	-131.961	47.504	0	867.60	0	3.4550	0	34.2880	0	27.280	0	858.563	0	8.3	4	2.6	4	-1E+10	1	-1E+10	1	-1E+10	1	-1E+10	1	-1E+10	1	-1E+10	1
4902549	55	C	02/15/2022	18:57	-131.961	47.504	0	872.80	0	3.4470	0	34.2900	0	27.282	0	863.698	0	8.2	4	2.6	4	-1E+10	1	-1E+10	1	-1E+10	1	-1E+10	1	-1E+10	1	-1E+10	1
4902549	55	C	02/15/2022	18:57	-131.961	47.504	0	878.10	0	3.4340	0	34.2930	0	27.286	0	868.932	0	8.1	4	2.5	4	-1E+10	1	-1E+10	1	-1E+10	1	-1E+10	1	-1E+10	1	-1E+10	1
4902549	55	C	02/15/2022	18:57	-131.961	47.504	0	883.10	0	3.4280	0	34.2950	0	27.288	0	873.869	0	8.1	4	2.5	4	-1E+10	1	-1E+10	1	-1E+10	1	-1E+10	1	-1E+10	1	-1E+10	1
4902549	55	C	02/15/2022	18:57	-131.961	47.504	0	888.00	0	3.4210	0	34.2970	0	27.291	0	878.708	0	8.0	4	2.5	4	-1E+10	1	-1E+10	1	-1E+10	1	-1E+10	1	-1E+10	1	-1E+10	1
4902549	55	C	02/15/2022	18:57	-131.961	47.504	0	893.00	0	3.4110	0	34.3000	0	27.294	0	883.645	0	7.9	4	2.5	4	-1E+10	1	-1E+10	1	-1E+10	1	-1E+10	1	-1E+10	1	-1E+10	1
4902549	55	C	02/15/2022	18:57	-131.961	47.504	0	898.10	0	3.4050	0	34.3010	0	27.295	0	888.681	0	7.9	4	2.5	4	-1E+10	1	-1E+10	1	-1E+10	1	-1E+10	1	-1E+10	1	-1E+10	1
4902549	55	C	02/15/2022	18:57	-131.961	47.504	0	903.20	0	3.4000	0	34.3030	0	27.297	0	893.717	0	7.8	4	2.4	4	-1E+10	1	-1E+10	1	-1E+10	1	-1E+10	1	-1E+10	1	-1E+10	1
4902549	55	C	02/15/2022	18:57	-131.961	47.504	0	908.00	0	3.3900	0	34.3050	0	27.300	0	898.456	0	7.7	4	2.4	4	-1E+10	1	-1E+10	1	-1E+10	1	-1E+10	1	-1E+10	1	-1E+10	1
4902549	55	C	02/15/2022	18:57	-131.961	47.504	0	912.90	0	3.3840	0	34.3060	0	27.301	0	903.294	0	7.6	4	2.4	4	-1E+10	1	-1E+10	1	-1E+10	1	-1E+10	1	-1E+10	1	-1E+10	1
4902549	55	C	02/15/2022	18:57	-131.961	47.504	0	917.70	0	3.3740	0	34.3080	0	27.304	0	908.033	0	7.6	4	2.4	4	-1E+10	1	-1E+10	1	-1E+10	1	-1E+10	1	-1E+10	1	-1E+10	1
4902549	55	C	02/15/2022	18:57	-131.961	47.504	0	922.60	0	3.3600	0	34.3120	0	27.309	0	912.870	0	7.5	4	2.3	4	-1E+10	1	-1E+10	1	-1E+10	1	-1E+10	1	-1E+10	1	-1E+10	1
4902549	55	C	02/15/2022	18:57	-131.961	47.504	0	927.50	0	3.3450	0	34.3160	0	27.313	0	917.708	0	7.4	4	2.3	4	-1E+10	1	-1E+10	1	-1E+10	1	-1E+10	1	-1E+10	1	-1E+10	1
4902549	55	C	02/15/2022	18:57	-131.961	47.504	0	932.50	0	3.3340	0	34.3190	0	27.317	0	922.644	0	7.4	4	2.3	4	-1E+10	1	-1E+10	1	-1E+10	1	-1E+10	1	-1E+10	1	-1E+10	1
4902549	55	C	02/15/2022	18:57	-131.961	47.504	0	937.60	0	3.3300	0	34.3200	0	27.318	0	927.679	0	7.3	4	2.3	4	-1E+10	1	-1E+10	1	-1E+10	1	-1E+10	1	-1E+10	1	-1E+10	1
4902549	55	C	02/15/2022	18:57	-131.961	47.504	0	942.60	0	3.3130	0	34.3230	0	27.322	0	932.615	0	7.3	4	2.3	4	-1E+10	1	-1E+10	1	-1E+10	1	-1E+10	1	-1E+10	1	-1E+10	1
4902549	55	C	02/15/2022	18:57	-131.961	47.504	0	947.60	0	3.3010	0	34.3260	0	27.325	0	937.551	0	7.3	4	2.3	4	-1E+10	1	-1E+10	1	-1E+10	1	-1E+10	1	-1E+10	1	-1E+10	1
4902549	55	C	02/15/2022	18:57	-131.961	47.504	0	952.80	0	3.2970	0	34.3270	0	27.327	0	942.684	0	7.2	4	2.2	4	-1E+10	1	-1E+10	1	-1E+10	1	-1E+10	1	-1E+10	1	-1E+10	1
4902549	55	C	02/15/2022	18:57	-131.961	47.504	0	958.00	0	3.2950	0	34.3280	0	27.328	0	947.817	0	7.2	4	2.2	4	-1E+10	1	-1E+10	1	-1E+10	1	-1E+10	1	-1E+10	1	-1E+10	1
4902549	55	C	02/15/2022	18:57	-131.961	47.504	0	963.20	0	3.2860	0	34.3300	0	27.330	0	952.950	0	7.1	4	2.2	4	-1E+10	1	-1E+10	1	-1E+10	1	-1E+10	1	-1E+10	1	-1E+10	1
4902549	55	C	02/15/2022	18:57	-131.961	47.504	0	967.90	0	3.2760	0	34.3340	0	27.334	0	957.589	0	7.0	4	2.2	4	-1E+10	1	-1E+10	1	-1E+10	1	-1E+10	1	-1E+10	1	-1E+10	1
4902549	55	C	02/15/2022	18:57	-131.961	47.504	0	972.60	0	3.2730	0	34.3350	0	27.335	0	962.228	0	7.0	4	2.2	4	-1E+10	1	-1E+10	1	-1E+10	1	-1E+10	1	-1E+10	1	-1E+10	1
4902549	55	C	02/15/2022	18:57	-131.961	47.504	0	977.90	0	3.2600	0	34.3380	0	27.339	0	967.460	0	6.9	4	2.2	4	-1E+10	1	-1E+10	1	-1E+10	1	-1E+10	1	-1E+10	1	-1E+10	1
4902549	55	C	02/15/2022	18:57	-131.961	47.504	0	983.20	0	3.2490	0	34.3410	0	27.342	0	972.691	0	6.9	4	2.1	4	-1E+10	1	-1E+10	1	-1E+10	1	-1E+10	1	-1E+10	1	-1E+10	1
4902549	55	C	02/15/2022	18:57	-131.961	47.504	0	987.90	0	3.2420	0	34.3450	0	27.346	0	977.330	0	6.8	4	2.1	4	-1E+10	1	-1E+10	1	-1E+10	1	-1E+10	1	-1E+10	1	-1E+10	1
4902549	55	C	02/15/2022	18:57	-131.961	47.504	0	992.80	0	3.2370	0	34.3480	0	27.349	0	982.166	0	6.8	4	2.1	4	-1E+10	1	-1E+10	1	-1E+10	1	-1E+10	1	-1E+10	1	-1E+10	1
4902549	55	C	02/15/2022	18:57	-131.961	47.504	0	997.80	0	3.2310	0	34.3500	0	27.351	0	987.100	0	6.8	4	2.1	4	-1E+10	1	-1E+10	1	-1E+10	1	-1E+10	1	-1E+10	1	-1E+10	1
4902549	55	C	02/15/2022	18:57	-131.961	47.504	0	1005.20	0	3.2190	0	34.3540	0	27.356	0	994.403	0	6.7	4	2.1	4	-1E+10	1	-1E+10	1	-1E+10	1	-1E+10	1	-1E+10	1	-1E+10	1
4902549	55	C	02/15/2022	18:57	-131.961	47.504	0	1015.30	0	3.2020	0	34.3570	0	27.360	0	1004.371	0	6.7	4	2.1	4	-1E+10	1	-1E+10	1	-1E+10	1	-1E+10	1	-1E+10	1	-1E+10	1
4902549	55	C	02/15/2022	18:57	-131.961	47.504	0	1025.20	0	3.1780	0	34.3620	0	27.366	0	1014.140	0	6.7	4	2.1	4	-1E+10	1	-1E+10	1	-1E+10	1	-1E+10	1	-1E+10	1	-1E+10	1
4902549	55	C	02/15/2022	18:57	-131.961	47.504	0	1035.40	0	3.1560	0	34.3670	0	27.372	0	1024.205	0	6.7	4	2.1	4	-1E+10	1	-1E+10	1	-1E+10	1	-1E+10	1	-1E+10	1	-1E+10	1
4902549	55	C	02/15/2022	18:57	-131.961	47.504	0	1045.80	0	3.1410	0	34.3710	0	27.377	0	1034.467	0	6.7	4	2.1	4	-1E+10	1	-1E+10	1	-1E+10	1	-1E+10	1	-1E+10	1	-1E+10	1
4902549	55	C	02/15/2022	18:57	-131.961	47.504	0	1055.50	0	3.1310	0	34.3730	0	27.379	0	1044.038	0	6.8	4	2.1	4	-1E+10	1	-1E+10	1	-1E+10	1	-1E+10	1	-1E+10	1	-1E+10	1
4902549	55	C	02/15/2022	18:57	-131.961	47.504	0	1065.30	0	3.1170	0	34.3760	0	27.383	0	1053.707	0	6.8	4	2.1	4	-1E+10	1	-1E+10	1	-1E+10	1	-1E+10	1	-1E+10	1	-1E+10	1
4902549	55	C	02/15/2022	18:57	-131.961	47.504	0	1075.60	0	3.1070	0	34.3800	0	27.387	0	1063.869	0	6.8	4	2.1	4	-1E+10	1	-1E+10	1	-1E+10	1	-1E+10	1	-1E+10	1	-1E+10	1
4902549	55	C	02/15/2022	18:57	-131.961	47.504	0	1085.40	0	3.0920	0	34.3820	0	27.390	0	1073.537	0	6.9	4	2.1	4	-1E+10	1	-1E+10	1	-1E+10	1	-1E+10	1	-1E+10	1	-1E+10	1
4902549	55	C	02/15/2022	18:57	-131.961	47.504	0	1095.10	0	3.0840	0	34.3850	0	27.393	0	1083.106	0	6.9	4	2.1	4	-1E+10	1	-1E+10	1	-1E+10	1	-1E+10	1	-1E+10	1	-1E+10	1
4902549	55	C	02/15/2022	18:57	-131.961	47.504	0	1105.40	0	3.0680	0	34.3900	0	27.399	0	1093.266	0	7.1	4	2.2	4	-1E+10	1	-1E+10	1	-1E+10	1	-1E+10	1	-1E+10	1	-1E+10	1
4902549	55	C	02/15/2022	18:57	-131.961	47.504	0	1115.40	0	3.0560	0	34.3960	0	27.405	0	1103.130	0	7.2	4	2.2	4	-1E+10	1	-1E+10	1	-1E+10	1	-1E+10	1	-1E+10	1	-1E+10	1
4902549	55	C	02/15/2022	18:57	-131.961	47.504	0	1125.40	0	3.0470	0	34.3970	0	27.407	0	1112.994	0	7.3	4	2.2	4	-1E+10	1	-1E+10	1	-1E+10	1	-1E+10	1	-1E+10	1	-1E+10	1
4902549	55	C	02/15/2022	18:57	-131.961	47.504	0	1135.60	0	3.0390	0	34.4000	0	27.410	0	1123.054	0	7.4	4	2.3	4	-1E+10	1	-1E+10	1	-1E+10	1	-1E+10	1	-1E+10	1	-1E+10	1
4902549	55	C	02/15/2022	18:57	-131.961	47.504	0	1145.40	0	3.0110	0	34.4050	0	27.416	0	1132.719	0	7.6	4	2.3	4	-1E+10	1	-1E+10	1	-1E+10	1	-1E+10	1	-1E+10	1	-1E+10	1
4902549	55	C	02/15/2022	18:57	-131.961	47.504	0	1155.20	0	2.9820	0	34.4070	0	27.421	0	1142.384	0	7.7	4	2.4	4	-1E+10	1	-1E+10	1	-1E+10	1	-1E+10	1	-1E+10	1	-1E+10	1
4902549	55	C	02/15/2022	18:57	-131.961	47.504	0	1165.00	0	2.9540	0	34.4110	0	27.426	0	1152.049	0	7.9	4	2.4	4	-1E+10	1	-1E+10	1	-1E+10	1	-1E+10	1	-1E+10	1	-1E+10	1
4902549	55	C	02/15/2022	18:57	-131.961	47.504	0	1175.00	0	2.9360	0	34.4150	0	27.431	0	1161.910	0	8.2	4	2.5	4	-1E+10	1	-1E+10	1	-1E+10	1	-1E+10	1	-1E+10	1	-1E+10	1
4902549	55	C	02/15/2022	18:57	-131.961	47.504	0	1185.30	0	2.9080	0	34.4200	0	27.438	0	1172.066	0	8.5	4	2.6	4	-1E+10	1	-1E+10	1	-1E+10	1	-1E+10	1	-1E+10	1	-1E+10	1
4902549	55	C	02/15/2022	18:57	-131.961	47.504	0	1195.20	0	2.8860	0	34.4230	0	27.442	0	1181.828	0	8.7	4	2.7	4	-1E+10	1	-1E+10	1	-1E+10	1	-1E+10	1	-1E+10	1	-1E+10	1
4902549	55	C	02/15/2022	18:57	-131.961	47.504	0	1205.30	0	2.8710	0	34.4260	0	27.446	0	1191.786	0	8.8	4	2.7	4	-1E+10	1	-1E+10	1	-1E+10	1	-1E+10	1	-1E+10	1	-1E+10	1
4902549	55	C	02/15/2022	18:57	-131.961	47.504	0	1215.50	0	2.8530	0	34.4280	0	27.449	0	1201.843	0	9.0	4	2.8	4	-1E+10	1	-1E+10	1	-1E+10	1	-1E+10	1	-1E+10	1	-1E+10	1
4902549	55	C	02/15/2022	18:57	-131.961	47.504	0	1225.60	0	2.8350	0	34.4310	0	27.453	0	1211.800	0	9.2	4	2.8	4	-1E+10	1	-1E+10	1	-1E+10	1	-1E+10	1	-1E+10	1	-1E+10	1
4902549	55	C	02/15/2022	18:57	-131.961	47.504	0	1235.50	0	2.8140	0	34.4330	0	27.457	0	1221.560	0	9.6	4	2.9	4	-1E+10	1	-1E+10	1	-1E+10	1	-1E+10	1	-1E+10	1	-1E+10	1
4902549	55	C	02/15/2022	18:57	-131.961	47.504	0	1245.30	0	2.7870	0	34.4370	0	27.462	0	1231.221	0	9.8	4	3.0	4	-1E+10	1	-1E+10	1	-1E+10	1	-1E+10	1	-1E+10	1	-1E+10	1
4902549	55	C	02/15/2022	18:57	-131.961	47.504	0	1255.50	0	2.7740	0	34.4390	0	27.465	0	1241.276	0	10.0	4	3.1	4	-1E+10	1	-1E+10	1	-1E+10	1	-1E+10	1	-1E+10	1	-1E+10	1
4902549	55	C	02/15/2022	18:57	-131.961	47.504	0	1265.80	0	2.7600	0	34.4410	0	27.468	0	1251.428	0	10.2	4	3.1	4	-1E+10	1	-1E+10	1	-1E+10	1	-1E+10	1	-1E+10	1	-1E+10	1
4902549	55	C	02/15/2022	18:57	-131.961	47.504	0	1275.50	0	2.7500	0	34.4430	0	27.471	0	1260.989	0	10.4	4	3.2	4	-1E+10	1	-1E+10	1	-1E+10	1	-1E+10	1	-1E+10	1	-1E+10	1
4902549	55	C	02/15/2022	18:57	-131.961	47.504	0	1285.50	0	2.7330	0	34.4460	0	27.474	0	1270.845	0	10.8	4	3.3	4	-1E+10	1	-1E+10	1	-1E+10	1	-1E+10	1	-1E+10	1	-1E+10	1
4902549	55	C	02/15/2022	18:57	-131.961	47.504	0	1295.80	0	2.7220	0	34.4510	0	27.479	0	1280.996	0	11.2	4	3.4	4	-1E+10	1	-1E+10	1	-1E+10	1	-1E+10	1	-1E+10	1	-1E+10	1
4902549	55	C	02/15/2022	18:57	-131.961	47.504	0	1305.80	0	2.7130	0	34.4540	0	27.483	0	1290.852	0	11.5	4	3.5	4	-1E+10	1	-1E+10	1	-1E+10	1	-1E+10	1	-1E+10	1	-1E+10	1
4902549	55	C	02/15/2022	18:57	-131.961	47.504	0	1315.50	0	2.6960	0	34.4560	0	27.486	0	1300.411	0	11.8	4	3.6	4	-1E+10	1	-1E+10	1	-1E+10	1	-1E+10	1	-1E+10	1	-1E+10	1
4902549	55	C	02/15/2022	18:57	-131.961	47.504	0	1325.20	0	2.6800	0	34.4580	0	27.489	0	1309.969	0	12.1	4	3.7	4	-1E+10	1	-1E+10	1	-1E+10	1	-1E+10	1	-1E+10	1	-1E+10	1
4902549	55	C	02/15/2022	18:57	-131.961	47.504	0	1335.60	0	2.6540	0	34.4610	0	27.494	0	1320.217	0	12.6	4	3.9	4	-1E+10	1	-1E+10	1	-1E+10	1	-1E+10	1	-1E+10	1	-1E+10	1
4902549	55	C	02/15/2022	18:57	-131.961	47.504	0	1345.70	0	2.6410	0	34.4650	0	27.498	0	1330.169	0	13.0	4	4.0	4	-1E+10	1	-1E+10	1	-1E+10	1	-1E+10	1	-1E+10	1	-1E+10	1
4902549	55	C	02/15/2022	18:57	-131.961	47.504	0	1355.30	0	2.6320	0	34.4670	0	27.500	0	1339.628	0	13.2	4	4.0	4	-1E+10	1	-1E+10	1	-1E+10	1	-1E+10	1	-1E+10	1	-1E+10	1
4902549	55	C	02/15/2022	18:57	-131.961	47.504	0	1365.50	0	2.6200	0	34.4680	0	27.502	0	1349.677	0	13.5	4	4.1	4	-1E+10	1	-1E+10	1	-1E+10	1	-1E+10	1	-1E+10	1	-1E+10	1
4902549	55	C	02/15/2022	18:57	-131.961	47.504	0	1375.70	0	2.6070	0	34.4690	0	27.504	0	1359.726	0	13.8	4	4.2	4	-1E+10	1	-1E+10	1	-1E+10	1	-1E+10	1	-1E+10	1	-1E+10	1
4902549	55	C	02/15/2022	18:57	-131.961	47.504	0	1385.20	0	2.5920	0	34.4710	0	27.507	0	1369.085	0	14.2	4	4.3	4	-1E+10	1	-1E+10	1	-1E+10	1	-1E+10	1	-1E+10	1	-1E+10	1
4902549	55	C	02/15/2022	18:57	-131.961	47.504	0	1395.30	0	2.5650	0	34.4740	0	27.512	0	1379.034	0	14.7	4	4.5	4	-1E+10	1	-1E+10	1	-1E+10	1	-1E+10	1	-1E+10	1	-1E+10	1
4902549	55	C	02/15/2022	18:57	-131.961	47.504	0	1405.70	0	2.5490	0	34.4770	0	27.516	0	1389.279	0	15.1	4	4.6	4	-1E+10	1	-1E+10	1	-1E+10	1	-1E+10	1	-1E+10	1	-1E+10	1
4902549	55	C	02/15/2022	18:57	-131.961	47.504	0	1415.40	0	2.5250	0	34.4800	0	27.520	0	1398.833	0	15.7	4	4.8	4	-1E+10	1	-1E+10	1	-1E+10	1	-1E+10	1	-1E+10	1	-1E+10	1
4902549	55	C	02/15/2022	18:57	-131.961	47.504	0	1425.40	0	2.5050	0	34.4830	0	27.524	0	1408.683	0	16.1	4	4.9	4	-1E+10	1	-1E+10	1	-1E+10	1	-1E+10	1	-1E+10	1	-1E+10	1
4902549	55	C	02/15/2022	18:57	-131.961	47.504	0	1435.40	0	2.4940	0	34.4850	0	27.527	0	1418.532	0	16.6	4	5.1	4	-1E+10	1	-1E+10	1	-1E+10	1	-1E+10	1	-1E+10	1	-1E+10	1
4902549	55	C	02/15/2022	18:57	-131.961	47.504	0	1445.60	0	2.4840	0	34.4870	0	27.529	0	1428.578	0	17.0	4	5.2	4	-1E+10	1	-1E+10	1	-1E+10	1	-1E+10	1	-1E+10	1	-1E+10	1
4902549	55	C	02/15/2022	18:57	-131.961	47.504	0	1455.50	0	2.4730	0	34.4890	0	27.532	0	1438.328	0	17.4	4	5.3	4	-1E+10	1	-1E+10	1	-1E+10	1	-1E+10	1	-1E+10	1	-1E+10	1
4902549	55	C	02/15/2022	18:57	-131.961	47.504	0	1465.50	0	2.4630	0	34.4910	0	27.534	0	1448.175	0	17.8	4	5.4	4	-1E+10	1	-1E+10	1	-1E+10	1	-1E+10	1	-1E+10	1	-1E+10	1
4902549	55	C	02/15/2022	18:57	-131.961	47.504	0	1475.50	0	2.4570	0	34.4930	0	27.537	0	1458.023	0	18.2	4	5.6	4	-1E+10	1	-1E+10	1	-1E+10	1	-1E+10	1	-1E+10	1	-1E+10	1
4902549	55	C	02/15/2022	18:57	-131.961	47.504	0	1485.20	0	2.4470	0	34.4950	0	27.539	0	1467.574	0	18.7	4	5.7	4	-1E+10	1	-1E+10	1	-1E+10	1	-1E+10	1	-1E+10	1	-1E+10	1
4902549	55	C	02/15/2022	18:57	-131.961	47.504	0	1495.40	0	2.4350	0	34.4970	0	27.542	0	1477.617	0	19.2	4	5.8	4	-1E+10	1	-1E+10	1	-1E+10	1	-1E+10	1	-1E+10	1	-1E+10	1
4902549	55	C	02/15/2022	18:57	-131.961	47.504	0	1505.80	0	2.4260	0	34.4990	0	27.544	0	1487.857	0	19.6	4	6.0	4	-1E+10	1	-1E+10	1	-1E+10	1	-1E+10	1	-1E+10	1	-1E+10	1
4902549	55	C	02/15/2022	18:57	-131.961	47.504	0	1515.30	0	2.4160	0	34.5000	0	27.546	0	1497.210	0	20.1	4	6.1	4	-1E+10	1	-1E+10	1	-1E+10	1	-1E+10	1	-1E+10	1	-1E+10	1
4902549	55	C	02/15/2022	18:57	-131.961	47.504	0	1525.20	0	2.4010	0	34.5020	0	27.549	0	1506.957	0	20.6	4	6.3	4	-1E+10	1	-1E+10	1	-1E+10	1	-1E+10	1	-1E+10	1	-1E+10	1
4902549	55	C	02/15/2022	18:57	-131.961	47.504	0	1535.50	0	2.3890	0	34.5040	0	27.551	0	1517.097	0	21.1	4	6.4	4	-1E+10	1	-1E+10	1	-1E+10	1	-1E+10	1	-1E+10	1	-1E+10	1
4902549	55	C	02/15/2022	18:57	-131.961	47.504	0	1545.50	0	2.3750	0	34.5060	0	27.554	0	1526.941	0	21.6	4	6.6	4	-1E+10	1	-1E+10	1	-1E+10	1	-1E+10	1	-1E+10	1	-1E+10	1
4902549	55	C	02/15/2022	18:57	-131.961	47.504	0	1555.20	0	2.3570	0	34.5090	0	27.558	0	1536.489	0	22.2	4	6.8	4	-1E+10	1	-1E+10	1	-1E+10	1	-1E+10	1	-1E+10	1	-1E+10	1
4902549	55	C	02/15/2022	18:57	-131.961	47.504	0	1565.00	0	2.3460	0	34.5110	0	27.561	0	1546.135	0	22.7	4	6.9	4	-1E+10	1	-1E+10	1	-1E+10	1	-1E+10	1	-1E+10	1	-1E+10	1
4902549	55	C	02/15/2022	18:57	-131.961	47.504	0	1575.10	0	2.3390	0	34.5120	0	27.562	0	1556.076	0	23.3	4	7.1	4	-1E+10	1	-1E+10	1	-1E+10	1	-1E+10	1	-1E+10	1	-1E+10	1
4902549	55	C	02/15/2022	18:57	-131.961	47.504	0	1585.60	0	2.3230	0	34.5140	0	27.565	0	1566.411	0	24.1	4	7.3	4	-1E+10	1	-1E+10	1	-1E+10	1	-1E+10	1	-1E+10	1	-1E+10	1
4902549	55	C	02/15/2022	18:57	-131.961	47.504	0	1595.60	0	2.3060	0	34.5170	0	27.569	0	1576.253	0	24.7	4	7.5	4	-1E+10	1	-1E+10	1	-1E+10	1	-1E+10	1	-1E+10	1	-1E+10	1
4902549	55	C	02/15/2022	18:57	-131.961	47.504	0	1605.10	0	2.2950	0	34.5190	0	27.571	0	1585.602	0	25.3	4	7.7	4	-1E+10	1	-1E+10	1	-1E+10	1	-1E+10	1	-1E+10	1	-1E+10	1
4902549	55	C	02/15/2022	18:57	-131.961	47.504	0	1615.20	0	2.2810	0	34.5210	0	27.574	0	1595.541	0	25.9	4	7.9	4	-1E+10	1	-1E+10	1	-1E+10	1	-1E+10	1	-1E+10	1	-1E+10	1
4902549	55	C	02/15/2022	18:57	-131.961	47.504	0	1625.20	0	2.2770	0	34.5220	0	27.575	0	1605.381	0	26.4	4	8.0	4	-1E+10	1	-1E+10	1	-1E+10	1	-1E+10	1	-1E+10	1	-1E+10	1
4902549	55	C	02/15/2022	18:57	-131.961	47.504	0	1635.30	0	2.2600	0	34.5250	0	27.579	0	1615.320	0	27.0	4	8.2	4	-1E+10	1	-1E+10	1	-1E+10	1	-1E+10	1	-1E+10	1	-1E+10	1
4902549	55	C	02/15/2022	18:57	-131.961	47.504	0	1645.70	0	2.2550	0	34.5260	0	27.580	0	1625.553	0	27.4	4	8.3	4	-1E+10	1	-1E+10	1	-1E+10	1	-1E+10	1	-1E+10	1	-1E+10	1
4902549	55	C	02/15/2022	18:57	-131.961	47.504	0	1655.60	0	2.2460	0	34.5280	0	27.583	0	1635.294	0	28.0	4	8.5	4	-1E+10	1	-1E+10	1	-1E+10	1	-1E+10	1	-1E+10	1	-1E+10	1
4902549	55	C	02/15/2022	18:57	-131.961	47.504	0	1665.60	0	2.2380	0	34.5290	0	27.584	0	1645.132	0	28.5	4	8.7	4	-1E+10	1	-1E+10	1	-1E+10	1	-1E+10	1	-1E+10	1	-1E+10	1
4902549	55	C	02/15/2022	18:57	-131.961	47.504	0	1675.40	0	2.2260	0	34.5310	0	27.587	0	1654.773	0	29.1	4	8.8	4	-1E+10	1	-1E+10	1	-1E+10	1	-1E+10	1	-1E+10	1	-1E+10	1
4902549	55	C	02/15/2022	18:57	-131.961	47.504	0	1685.30	0	2.2200	0	34.5330	0	27.589	0	1664.513	0	29.7	4	9.0	4	-1E+10	1	-1E+10	1	-1E+10	1	-1E+10	1	-1E+10	1	-1E+10	1
4902549	55	C	02/15/2022	18:57	-131.961	47.504	0	1695.40	0	2.2090	0	34.5340	0	27.591	0	1674.448	0	30.3	4	9.2	4	-1E+10	1	-1E+10	1	-1E+10	1	-1E+10	1	-1E+10	1	-1E+10	1
4902549	55	C	02/15/2022	18:57	-131.961	47.504	0	1705.50	0	2.1970	0	34.5370	0	27.594	0	1684.383	0	31.1	4	9.4	4	-1E+10	1	-1E+10	1	-1E+10	1	-1E+10	1	-1E+10	1	-1E+10	1
4902549	55	C	02/15/2022	18:57	-131.961	47.504	0	1715.80	0	2.1860	0	34.5390	0	27.597	0	1694.515	0	31.6	4	9.6	4	-1E+10	1	-1E+10	1	-1E+10	1	-1E+10	1	-1E+10	1	-1E+10	1
4902549	55	C	02/15/2022	18:57	-131.961	47.504	0	1725.70	0	2.1790	0	34.5400	0	27.598	0	1704.252	0	32.2	4	9.7	4	-1E+10	1	-1E+10	1	-1E+10	1	-1E+10	1	-1E+10	1	-1E+10	1
4902549	55	C	02/15/2022	18:57	-131.961	47.504	0	1735.70	0	2.1690	0	34.5410	0	27.600	0	1714.087	0	32.6	4	9.9	4	-1E+10	1	-1E+10	1	-1E+10	1	-1E+10	1	-1E+10	1	-1E+10	1
4902549	55	C	02/15/2022	18:57	-131.961	47.504	0	1745.80	0	2.1640	0	34.5420	0	27.601	0	1724.021	0	33.1	4	10.0	4	-1E+10	1	-1E+10	1	-1E+10	1	-1E+10	1	-1E+10	1	-1E+10	1
4902549	55	C	02/15/2022	18:57	-131.961	47.504	0	1755.50	0	2.1580	0	34.5440	0	27.603	0	1733.560	0	33.5	4	10.1	4	-1E+10	1	-1E+10	1	-1E+10	1	-1E+10	1	-1E+10	1	-1E+10	1
4902549	55	C	02/15/2022	18:57	-131.961	47.504	0	1765.20	0	2.1510	0	34.5450	0	27.605	0	1743.099	0	34.3	4	10.4	4	-1E+10	1	-1E+10	1	-1E+10	1	-1E+10	1	-1E+10	1	-1E+10	1
4902549	55	C	02/15/2022	18:57	-131.961	47.504	0	1775.20	0	2.1360	0	34.5470	0	27.607	0	1752.933	0	35.1	4	10.6	4	-1E+10	1	-1E+10	1	-1E+10	1	-1E+10	1	-1E+10	1	-1E+10	1
4902549	55	C	02/15/2022	18:57	-131.961	47.504	0	1785.40	0	2.1270	0	34.5490	0	27.610	0	1762.962	0	35.8	4	10.8	4	-1E+10	1	-1E+10	1	-1E+10	1	-1E+10	1	-1E+10	1	-1E+10	1
4902549	55	C	02/15/2022	18:57	-131.961	47.504	0	1795.50	0	2.1180	0	34.5510	0	27.612	0	1772.893	0	36.3	4	11.0	4	-1E+10	1	-1E+10	1	-1E+10	1	-1E+10	1	-1E+10	1	-1E+10	1
4902549	55	C	02/15/2022	18:57	-131.961	47.504	0	1805.10	0	2.1120	0	34.5520	0	27.614	0	1782.332	0	36.9	4	11.2	4	-1E+10	1	-1E+10	1	-1E+10	1	-1E+10	1	-1E+10	1	-1E+10	1
4902549	55	C	02/15/2022	18:57	-131.961	47.504	0	1815.20	0	2.1040	0	34.5540	0	27.616	0	1792.262	0	37.5	4	11.3	4	-1E+10	1	-1E+10	1	-1E+10	1	-1E+10	1	-1E+10	1	-1E+10	1
4902549	55	C	02/15/2022	18:57	-131.961	47.504	0	1825.70	0	2.0950	0	34.5550	0	27.617	0	1802.585	0	38.2	4	11.5	4	-1E+10	1	-1E+10	1	-1E+10	1	-1E+10	1	-1E+10	1	-1E+10	1
4902549	55	C	02/15/2022	18:57	-131.961	47.504	0	1835.80	0	2.0840	0	34.5570	0	27.620	0	1812.514	0	39.0	4	11.8	4	-1E+10	1	-1E+10	1	-1E+10	1	-1E+10	1	-1E+10	1	-1E+10	1
4902549	55	C	02/15/2022	18:57	-131.961	47.504	0	1845.80	0	2.0730	0	34.5590	0	27.622	0	1822.345	0	39.8	4	12.0	4	-1E+10	1	-1E+10	1	-1E+10	1	-1E+10	1	-1E+10	1	-1E+10	1
4902549	55	C	02/15/2022	18:57	-131.961	47.504	0	1855.60	0	2.0620	0	34.5610	0	27.625	0	1831.978	0	40.7	4	12.3	4	-1E+10	1	-1E+10	1	-1E+10	1	-1E+10	1	-1E+10	1	-1E+10	1
4902549	55	C	02/15/2022	18:57	-131.961	47.504	0	1865.30	0	2.0490	0	34.5630	0	27.628	0	1841.512	0	41.5	4	12.5	4	-1E+10	1	-1E+10	1	-1E+10	1	-1E+10	1	-1E+10	1	-1E+10	1
4902549	55	C	02/15/2022	18:57	-131.961	47.504	0	1875.10	0	2.0410	0	34.5650	0	27.630	0	1851.145	0	42.1	4	12.7	4	-1E+10	1	-1E+10	1	-1E+10	1	-1E+10	1	-1E+10	1	-1E+10	1
4902549	55	C	02/15/2022	18:57	-131.961	47.504	0	1885.30	0	2.0310	0	34.5660	0	27.632	0	1861.170	0	42.8	4	12.9	4	-1E+10	1	-1E+10	1	-1E+10	1	-1E+10	1	-1E+10	1	-1E+10	1
4902549	55	C	02/15/2022	18:57	-131.961	47.504	0	1895.40	0	2.0230	0	34.5680	0	27.634	0	1871.096	0	43.6	4	13.1	4	-1E+10	1	-1E+10	1	-1E+10	1	-1E+10	1	-1E+10	1	-1E+10	1
4902549	55	C	02/15/2022	18:57	-131.961	47.504	0	1905.10	0	2.0140	0	34.5700	0	27.636	0	1880.629	0	44.2	4	13.3	4	-1E+10	1	-1E+10	1	-1E+10	1	-1E+10	1	-1E+10	1	-1E+10	1
4902549	55	C	02/15/2022	18:57	-131.961	47.504	0	1915.60	0	2.0070	0	34.5710	0	27.638	0	1890.947	0	45.0	4	13.6	4	-1E+10	1	-1E+10	1	-1E+10	1	-1E+10	1	-1E+10	1	-1E+10	1
4902549	55	C	02/15/2022	18:57	-131.961	47.504	0	1925.30	0	1.9950	0	34.5730	0	27.640	0	1900.479	0	46.0	4	13.9	4	-1E+10	1	-1E+10	1	-1E+10	1	-1E+10	1	-1E+10	1	-1E+10	1
4902549	55	C	02/15/2022	18:57	-131.961	47.504	0	1935.10	0	1.9830	0	34.5760	0	27.644	0	1910.109	0	46.8	4	14.1	4	-1E+10	1	-1E+10	1	-1E+10	1	-1E+10	1	-1E+10	1	-1E+10	1
4902549	55	C	02/15/2022	18:57	-131.961	47.504	0	1945.40	0	1.9730	0	34.5780	0	27.646	0	1920.230	0	47.6	4	14.3	4	-1E+10	1	-1E+10	1	-1E+10	1	-1E+10	1	-1E+10	1	-1E+10	1
4902549	55	C	02/15/2022	18:57	-131.961	47.504	0	1955.60	0	1.9660	0	34.5790	0	27.647	0	1930.251	0	47.8	4	14.4	4	-1E+10	1	-1E+10	1	-1E+10	1	-1E+10	1	-1E+10	1	-1E+10	1
4902549	55	C	02/15/2022	18:57	-131.961	47.504	0	1965.70	0	1.9620	0	34.5800	0	27.649	0	1940.174	0	47.8	4	14.4	4	-1E+10	1	-1E+10	1	-1E+10	1	-1E+10	1	-1E+10	1	-1E+10	1
4902549	55	C	02/15/2022	18:57	-131.961	47.504	0	1972.50	0	1.9600	0	34.5810	0	27.650	0	1946.855	0	46.9	4	14.1	4	-1E+10	1	-1E+10	1	-1E+10	1	-1E+10	1	-1E+10	1	-1E+10	1
4902549	55	C	02/15/2022	18:57	-131.961	47.504	0																										
4902549	57	C	03/08/2022	04:58	-131.801	47.550	0	0.50	0	7.8600	0	32.3500	0	25.214	0	0.496	0	289.6	4	98.7	4	-1E+10	1	-1E+10	1	-1E+10	1	-1E+10	1	-1E+10	1	-1E+10	1
4902549	57	C	03/08/2022	04:58	-131.801	47.550	0	0.60	0	7.8690	0	32.3410	0	25.205	0	0.595	0	-1e10	1	-1e10	1	-1E+10	1	-1E+10	1	-1E+10	1	-1E+10	1	-1E+10	1	-1E+10	1
4902549	57	C	03/08/2022	04:58	-131.801	47.550	0	1.10	0	7.8640	0	32.3160	0	25.186	0	1.091	0	282.3	4	96.2	4	-1E+10	1	-1E+10	1	-1E+10	1	-1E+10	1	-1E+10	1	-1E+10	1
4902549	57	C	03/08/2022	04:58	-131.801	47.550	0	2.00	0	7.8630	0	32.3090	0	25.181	0	1.983	0	282.3	4	96.2	4	-1E+10	1	-1E+10	1	-1E+10	1	-1E+10	1	-1E+10	1	-1E+10	1
4902549	57	C	03/08/2022	04:58	-131.801	47.550	0	3.20	0	7.8610	0	32.3050	0	25.178	0	3.173	0	282.2	4	96.1	4	-1E+10	1	-1E+10	1	-1E+10	1	-1E+10	1	-1E+10	1	-1E+10	1
4902549	57	C	03/08/2022	04:58	-131.801	47.550	0	4.10	0	7.8410	0	32.3250	0	25.197	0	4.066	0	282.1	4	96.1	4	-1E+10	1	-1E+10	1	-1E+10	1	-1E+10	1	-1E+10	1	-1E+10	1
4902549	57	C	03/08/2022	04:58	-131.801	47.550	0	5.00	0	7.8230	0	32.3410	0	25.212	0	4.958	0	282.2	4	96.1	4	-1E+10	1	-1E+10	1	-1E+10	1	-1E+10	1	-1E+10	1	-1E+10	1
4902549	57	C	03/08/2022	04:58	-131.801	47.550	0	6.30	0	7.7980	0	32.3420	0	25.216	0	6.247	0	282.3	4	96.1	4	-1E+10	1	-1E+10	1	-1E+10	1	-1E+10	1	-1E+10	1	-1E+10	1
4902549	57	C	03/08/2022	04:58	-131.801	47.550	0	7.20	0	7.7780	0	32.3440	0	25.221	0	7.140	0	282.3	4	96.0	4	-1E+10	1	-1E+10	1	-1E+10	1	-1E+10	1	-1E+10	1	-1E+10	1
4902549	57	C	03/08/2022	04:58	-131.801	47.550	0	8.10	0	7.7740	0	32.3430	0	25.220	0	8.032	0	282.3	4	96.0	4	-1E+10	1	-1E+10	1	-1E+10	1	-1E+10	1	-1E+10	1	-1E+10	1
4902549	57	C	03/08/2022	04:58	-131.801	47.550	0	9.10	0	7.7660	0	32.3420	0	25.221	0	9.024	0	282.4	4	96.0	4	-1E+10	1	-1E+10	1	-1E+10	1	-1E+10	1	-1E+10	1	-1E+10	1
4902549	57	C	03/08/2022	04:58	-131.801	47.550	0	10.00	0	7.7660	0	32.3420	0	25.221	0	9.916	0	282.3	4	96.0	4	-1E+10	1	-1E+10	1	-1E+10	1	-1E+10	1	-1E+10	1	-1E+10	1
4902549	57	C	03/08/2022	04:58	-131.801	47.550	0	11.20	0	7.7680	0	32.3420	0	25.220	0	11.106	0	282.3	4	96.0	4	-1E+10	1	-1E+10	1	-1E+10	1	-1E+10	1	-1E+10	1	-1E+10	1
4902549	57	C	03/08/2022	04:58	-131.801	47.550	0	12.20	0	7.7680	0	32.3420	0	25.220	0	12.098	0	282.3	4	96.0	4	-1E+10	1	-1E+10	1	-1E+10	1	-1E+10	1	-1E+10	1	-1E+10	1
4902549	57	C	03/08/2022	04:58	-131.801	47.550	0	13.00	0	7.7680	0	32.3420	0	25.220	0	12.891	0	282.3	4	96.0	4	-1E+10	1	-1E+10	1	-1E+10	1	-1E+10	1	-1E+10	1	-1E+10	1
4902549	57	C	03/08/2022	04:58	-131.801	47.550	0	14.00	0	7.7690	0	32.3410	0	25.220	0	13.883	0	282.2	4	96.0	4	-1E+10	1	-1E+10	1	-1E+10	1	-1E+10	1	-1E+10	1	-1E+10	1
4902549	57	C	03/08/2022	04:58	-131.801	47.550	0	15.10	0	7.7620	0	32.3420	0	25.221	0	14.973	0	282.3	4	96.0	4	-1E+10	1	-1E+10	1	-1E+10	1	-1E+10	1	-1E+10	1	-1E+10	1
4902549	57	C	03/08/2022	04:58	-131.801	47.550	0	16.10	0	7.7580	0	32.3420	0	25.222	0	15.965	0	282.2	4	95.9	4	-1E+10	1	-1E+10	1	-1E+10	1	-1E+10	1	-1E+10	1	-1E+10	1
4902549	57	C	03/08/2022	04:58	-131.801	47.550	0	16.90	0	7.7560	0	32.3430	0	25.223	0	16.758	0	282.1	4	95.9	4	-1E+10	1	-1E+10	1	-1E+10	1	-1E+10	1	-1E+10	1	-1E+10	1
4902549	57	C	03/08/2022	04:58	-131.801	47.550	0	17.70	0	7.7550	0	32.3420	0	25.222	0	17.551	0	282.2	4	95.9	4	-1E+10	1	-1E+10	1	-1E+10	1	-1E+10	1	-1E+10	1	-1E+10	1
4902549	57	C	03/08/2022	04:58	-131.801	47.550	0	18.80	0	7.7520	0	32.3430	0	25.224	0	18.642	0	282.1	4	95.9	4	-1E+10	1	-1E+10	1	-1E+10	1	-1E+10	1	-1E+10	1	-1E+10	1
4902549	57	C	03/08/2022	04:58	-131.801	47.550	0	20.20	0	7.7490	0	32.3430	0	25.224	0	20.030	0	282.2	4	95.9	4	-1E+10	1	-1E+10	1	-1E+10	1	-1E+10	1	-1E+10	1	-1E+10	1
4902549	57	C	03/08/2022	04:58	-131.801	47.550	0	21.00	0	7.7490	0	32.3420	0	25.223	0	20.824	0	282.1	4	95.9	4	-1E+10	1	-1E+10	1	-1E+10	1	-1E+10	1	-1E+10	1	-1E+10	1
4902549	57	C	03/08/2022	04:58	-131.801	47.550	0	22.10	0	7.7480	0	32.3430	0	25.224	0	21.914	0	282.1	4	95.9	4	-1E+10	1	-1E+10	1	-1E+10	1	-1E+10	1	-1E+10	1	-1E+10	1
4902549	57	C	03/08/2022	04:58	-131.801	47.550	0	22.90	0	7.7480	0	32.3430	0	25.224	0	22.708	0	282.0	4	95.9	4	-1E+10	1	-1E+10	1	-1E+10	1	-1E+10	1	-1E+10	1	-1E+10	1
4902549	57	C	03/08/2022	04:58	-131.801	47.550	0	23.80	0	7.7460	0	32.3430	0	25.225	0	23.600	0	282.0	4	95.9	4	-1E+10	1	-1E+10	1	-1E+10	1	-1E+10	1	-1E+10	1	-1E+10	1
4902549	57	C	03/08/2022	04:58	-131.801	47.550	0	24.90	0	7.7450	0	32.3420	0	25.224	0	24.691	0	282.1	4	95.9	4	-1E+10	1	-1E+10	1	-1E+10	1	-1E+10	1	-1E+10	1	-1E+10	1
4902549	57	C	03/08/2022	04:58	-131.801	47.550	0	26.00	0	7.7410	0	32.3430	0	25.225	0	25.781	0	282.0	4	95.9	4	-1E+10	1	-1E+10	1	-1E+10	1	-1E+10	1	-1E+10	1	-1E+10	1
4902549	57	C	03/08/2022	04:58	-131.801	47.550	0	26.90	0	7.7410	0	32.3430	0	25.225	0	26.674	0	281.9	4	95.8	4	-1E+10	1	-1E+10	1	-1E+10	1	-1E+10	1	-1E+10	1	-1E+10	1
4902549	57	C	03/08/2022	04:58	-131.801	47.550	0	27.70	0	7.7400	0	32.3420	0	25.225	0	27.467	0	282.0	4	95.8	4	-1E+10	1	-1E+10	1	-1E+10	1	-1E+10	1	-1E+10	1	-1E+10	1
4902549	57	C	03/08/2022	04:58	-131.801	47.550	0	28.90	0	7.7380	0	32.3430	0	25.226	0	28.657	0	281.9	4	95.8	4	-1E+10	1	-1E+10	1	-1E+10	1	-1E+10	1	-1E+10	1	-1E+10	1
4902549	57	C	03/08/2022	04:58	-131.801	47.550	0	30.00	0	7.7360	0	32.3430	0	25.226	0	29.747	0	281.9	4	95.8	4	-1E+10	1	-1E+10	1	-1E+10	1	-1E+10	1	-1E+10	1	-1E+10	1
4902549	57	C	03/08/2022	04:58	-131.801	47.550	0	31.10	0	7.7360	0	32.3430	0	25.226	0	30.838	0	281.9	4	95.8	4	-1E+10	1	-1E+10	1	-1E+10	1	-1E+10	1	-1E+10	1	-1E+10	1
4902549	57	C	03/08/2022	04:58	-131.801	47.550	0	32.00	0	7.7350	0	32.3430	0	25.226	0	31.730	0	281.8	4	95.8	4	-1E+10	1	-1E+10	1	-1E+10	1	-1E+10	1	-1E+10	1	-1E+10	1
4902549	57	C	03/08/2022	04:58	-131.801	47.550	0	32.80	0	7.7350	0	32.3430	0	25.226	0	32.524	0	281.8	4	95.8	4	-1E+10	1	-1E+10	1	-1E+10	1	-1E+10	1	-1E+10	1	-1E+10	1
4902549	57	C	03/08/2022	04:58	-131.801	47.550	0	33.90	0	7.7340	0	32.3430	0	25.226	0	33.614	0	281.9	4	95.8	4	-1E+10	1	-1E+10	1	-1E+10	1	-1E+10	1	-1E+10	1	-1E+10	1
4902549	57	C	03/08/2022	04:58	-131.801	47.550	0	35.00	0	7.7330	0	32.3430	0	25.227	0	34.705	0	281.8	4	95.7	4	-1E+10	1	-1E+10	1	-1E+10	1	-1E+10	1	-1E+10	1	-1E+10	1
4902549	57	C	03/08/2022	04:58	-131.801	47.550	0	36.10	0	7.7310	0	32.3430	0	25.227	0	35.795	0	281.7	4	95.7	4	-1E+10	1	-1E+10	1	-1E+10	1	-1E+10	1	-1E+10	1	-1E+10	1
4902549	57	C	03/08/2022	04:58	-131.801	47.550	0	37.00	0	7.7300	0	32.3430	0	25.227	0	36.688	0	281.6	4	95.7	4	-1E+10	1	-1E+10	1	-1E+10	1	-1E+10	1	-1E+10	1	-1E+10	1
4902549	57	C	03/08/2022	04:58	-131.801	47.550	0	37.80	0	7.7290	0	32.3430	0	25.227	0	37.481	0	281.6	4	95.7	4	-1E+10	1	-1E+10	1	-1E+10	1	-1E+10	1	-1E+10	1	-1E+10	1
4902549	57	C	03/08/2022	04:58	-131.801	47.550	0	38.90	0	7.7280	0	32.3430	0	25.227	0	38.572	0	281.6	4	95.7	4	-1E+10	1	-1E+10	1	-1E+10	1	-1E+10	1	-1E+10	1	-1E+10	1
4902549	57	C	03/08/2022	04:58	-131.801	47.550	0	40.10	0	7.7260	0	32.3430	0	25.228	0	39.761	0	281.5	4	95.7	4	-1E+10	1	-1E+10	1	-1E+10	1	-1E+10	1	-1E+10	1	-1E+10	1
4902549	57	C	03/08/2022	04:58	-131.801	47.550	0	40.90	0	7.7260	0	32.3440	0	25.228	0	40.554	0	281.5	4	95.6	4	-1E+10	1	-1E+10	1	-1E+10	1	-1E+10	1	-1E+10	1	-1E+10	1
4902549	57	C	03/08/2022	04:58	-131.801	47.550	0	41.70	0	7.7260	0	32.3430	0	25.228	0	41.348	0	281.5	4	95.6	4	-1E+10	1	-1E+10	1	-1E+10	1	-1E+10	1	-1E+10	1	-1E+10	1
4902549	57	C	03/08/2022	04:58	-131.801	47.550	0	42.90	0	7.7250	0	32.3430	0	25.228	0	42.537	0	281.4	4	95.6	4	-1E+10	1	-1E+10	1	-1E+10	1	-1E+10	1	-1E+10	1	-1E+10	1
4902549	57	C	03/08/2022	04:58	-131.801	47.550	0	44.30	0	7.7250	0	32.3440	0	25.229	0	43.925	0	281.3	4	95.6	4	-1E+10	1	-1E+10	1	-1E+10	1	-1E+10	1	-1E+10	1	-1E+10	1
4902549	57	C	03/08/2022	04:58	-131.801	47.550	0	44.90	0	7.7240	0	32.3440	0	25.229	0	44.520	0	281.3	4	95.6	4	-1E+10	1	-1E+10	1	-1E+10	1	-1E+10	1	-1E+10	1	-1E+10	1
4902549	57	C	03/08/2022	04:58	-131.801	47.550	0	45.70	0	7.7220	0	32.3440	0	25.229	0	45.313	0	281.2	4	95.5	4	-1E+10	1	-1E+10	1	-1E+10	1	-1E+10	1	-1E+10	1	-1E+10	1
4902549	57	C	03/08/2022	04:58	-131.801	47.550	0	46.90	0	7.7220	0	32.3440	0	25.229	0	46.503	0	281.3	4	95.6	4	-1E+10	1	-1E+10	1	-1E+10	1	-1E+10	1	-1E+10	1	-1E+10	1
4902549	57	C	03/08/2022	04:58	-131.801	47.550	0	48.00	0	7.7220	0	32.3440	0	25.229	0	47.594	0	281.2	4	95.5	4	-1E+10	1	-1E+10	1	-1E+10	1	-1E+10	1	-1E+10	1	-1E+10	1
4902549	57	C	03/08/2022	04:58	-131.801	47.550	0	48.90	0	7.7220	0	32.3440	0	25.229	0	48.486	0	281.2	4	95.5	4	-1E+10	1	-1E+10	1	-1E+10	1	-1E+10	1	-1E+10	1	-1E+10	1
4902549	57	C	03/08/2022	04:58	-131.801	47.550	0	49.80	0	7.7210	0	32.3440	0	25.229	0	49.378	0	281.0	4	95.5	4	-1E+10	1	-1E+10	1	-1E+10	1	-1E+10	1	-1E+10	1	-1E+10	1
4902549	57	C	03/08/2022	04:58	-131.801	47.550	0	50.90	0	7.7210	0	32.3440	0	25.229	0	50.469	0	281.0	4	95.5	4	-1E+10	1	-1E+10	1	-1E+10	1	-1E+10	1	-1E+10	1	-1E+10	1
4902549	57	C	03/08/2022	04:58	-131.801	47.550	0	52.10	0	7.7200	0	32.3440	0	25.229	0	51.658	0	281.0	4	95.4	4	-1E+10	1	-1E+10	1	-1E+10	1	-1E+10	1	-1E+10	1	-1E+10	1
4902549	57	C	03/08/2022	04:58	-131.801	47.550	0	52.90	0	7.7190	0	32.3440	0	25.230	0	52.452	0	280.9	4	95.4	4	-1E+10	1	-1E+10	1	-1E+10	1	-1E+10	1	-1E+10	1	-1E+10	1
4902549	57	C	03/08/2022	04:58	-131.801	47.550	0	53.80	0	7.7190	0	32.3440	0	25.230	0	53.344	0	280.9	4	95.4	4	-1E+10	1	-1E+10	1	-1E+10	1	-1E+10	1	-1E+10	1	-1E+10	1
4902549	57	C	03/08/2022	04:58	-131.801	47.550	0	54.90	0	7.7190	0	32.3440	0	25.230	0	54.434	0	280.8	4	95.4	4	-1E+10	1	-1E+10	1	-1E+10	1	-1E+10	1	-1E+10	1	-1E+10	1
4902549	57	C	03/08/2022	04:58	-131.801	47.550	0	56.10	0	7.7190	0	32.3440	0	25.230	0	55.624	0	280.8	4	95.4	4	-1E+10	1	-1E+10	1	-1E+10	1	-1E+10	1	-1E+10	1	-1E+10	1
4902549	57	C	03/08/2022	04:58	-131.801	47.550	0	56.90	0	7.7190	0	32.3440	0	25.230	0	56.417	0	280.7	4	95.4	4	-1E+10	1	-1E+10	1	-1E+10	1	-1E+10	1	-1E+10	1	-1E+10	1
4902549	57	C	03/08/2022	04:58	-131.801	47.550	0	57.80	0	7.7190	0	32.3440	0	25.230	0	57.309	0	280.7	4	95.3	4	-1E+10	1	-1E+10	1	-1E+10	1	-1E+10	1	-1E+10	1	-1E+10	1
4902549	57	C	03/08/2022	04:58	-131.801	47.550	0	58.90	0	7.7170	0	32.3440	0	25.230	0	58.400	0	280.5	4	95.3	4	-1E+10	1	-1E+10	1	-1E+10	1	-1E+10	1	-1E+10	1	-1E+10	1
4902549	57	C	03/08/2022	04:58	-131.801	47.550	0	60.00	0	7.7170	0	32.3440	0	25.230	0	59.490	0	280.4	4	95.2	4	-1E+10	1	-1E+10	1	-1E+10	1	-1E+10	1	-1E+10	1	-1E+10	1
4902549	57	C	03/08/2022	04:58	-131.801	47.550	0	61.10	0	7.7160	0	32.3440	0	25.230	0	60.581	0	280.3	4	95.2	4	-1E+10	1	-1E+10	1	-1E+10	1	-1E+10	1	-1E+10	1	-1E+10	1
4902549	57	C	03/08/2022	04:58	-131.801	47.550	0	62.00	0	7.7160	0	32.3440	0	25.230	0	61.473	0	280.2	4	95.2	4	-1E+10	1	-1E+10	1	-1E+10	1	-1E+10	1	-1E+10	1	-1E+10	1
4902549	57	C	03/08/2022	04:58	-131.801	47.550	0	62.80	0	7.7160	0	32.3440	0	25.230	0	62.266	0	280.2	4	95.2	4	-1E+10	1	-1E+10	1	-1E+10	1	-1E+10	1	-1E+10	1	-1E+10	1
4902549	57	C	03/08/2022	04:58	-131.801	47.550	0	63.90	0	7.7160	0	32.3440	0	25.230	0	63.357	0	280.0	4	95.1	4	-1E+10	1	-1E+10	1	-1E+10	1	-1E+10	1	-1E+10	1	-1E+10	1
4902549	57	C	03/08/2022	04:58	-131.801	47.550	0	65.00	0	7.7160	0	32.3440	0	25.230	0	64.447	0	280.0	4	95.1	4	-1E+10	1	-1E+10	1	-1E+10	1	-1E+10	1	-1E+10	1	-1E+10	1
4902549	57	C	03/08/2022	04:58	-131.801	47.550	0	66.00	0	7.7160	0	32.3430	0	25.229	0	65.438	0	279.9	4	95.1	4	-1E+10	1	-1E+10	1	-1E+10	1	-1E+10	1	-1E+10	1	-1E+10	1
4902549	57	C	03/08/2022	04:58	-131.801	47.550	0	67.10	0	7.7140	0	32.3440	0	25.230	0	66.529	0	279.7	4	95.0	4	-1E+10	1	-1E+10	1	-1E+10	1	-1E+10	1	-1E+10	1	-1E+10	1
4902549	57	C	03/08/2022	04:58	-131.801	47.550	0	68.00	0	7.7130	0	32.3440	0	25.231	0	67.421	0	279.5	4	95.0	4	-1E+10	1	-1E+10	1	-1E+10	1	-1E+10	1	-1E+10	1	-1E+10	1
4902549	57	C	03/08/2022	04:58	-131.801	47.550	0	68.80	0	7.7110	0	32.3440	0	25.231	0	68.214	0	279.5	4	94.9	4	-1E+10	1	-1E+10	1	-1E+10	1	-1E+10	1	-1E+10	1	-1E+10	1
4902549	57	C	03/08/2022	04:58	-131.801	47.550	0	69.90	0	7.7100	0	32.3440	0	25.231	0	69.305	0	279.4	4	94.9	4	-1E+10	1	-1E+10	1	-1E+10	1	-1E+10	1	-1E+10	1	-1E+10	1
4902549	57	C	03/08/2022	04:58	-131.801	47.550	0	71.00	0	7.7080	0	32.3430	0	25.231	0	70.395	0	279.3	4	94.8	4	-1E+10	1	-1E+10	1	-1E+10	1	-1E+10	1	-1E+10	1	-1E+10	1
4902549	57	C	03/08/2022	04:58	-131.801	47.550	0	72.10	0	7.7060	0	32.3440	0	25.232	0	71.485	0	279.1	4	94.8	4	-1E+10	1	-1E+10	1	-1E+10	1	-1E+10	1	-1E+10	1	-1E+10	1
4902549	57	C	03/08/2022	04:58	-131.801	47.550	0	72.90	0	7.7050	0	32.3440	0	25.232	0	72.278	0	279.1	4	94.8	4	-1E+10	1	-1E+10	1	-1E+10	1	-1E+10	1	-1E+10	1	-1E+10	1
4902549	57	C	03/08/2022	04:58	-131.801	47.550	0	73.70	0	7.7020	0	32.3430	0	25.231	0	73.072	0	279.0	4	94.7	4	-1E+10	1	-1E+10	1	-1E+10	1	-1E+10	1	-1E+10	1	-1E+10	1
4902549	57	C	03/08/2022	04:58	-131.801	47.550	0	74.80	0	7.7010	0	32.3430	0	25.232	0	74.162	0	278.9	4	94.7	4	-1E+10	1	-1E+10	1	-1E+10	1	-1E+10	1	-1E+10	1	-1E+10	1
4902549	57	C	03/08/2022	04:58	-131.801	47.550	0	75.90	0	7.6990	0	32.3440	0	25.233	0	75.252	0	278.8	4	94.7	4	-1E+10	1	-1E+10	1	-1E+10	1	-1E+10	1	-1E+10	1	-1E+10	1
4902549	57	C	03/08/2022	04:58	-131.801	47.550	0	77.00	0	7.6990	0	32.3430	0	25.232	0	76.343	0	278.8	4	94.7	4	-1E+10	1	-1E+10	1	-1E+10	1	-1E+10	1	-1E+10	1	-1E+10	1
4902549	57	C	03/08/2022	04:58	-131.801	47.550	0	78.10	0	7.6990	0	32.3430	0	25.232	0	77.433	0	278.7	4	94.6	4	-1E+10	1	-1E+10	1	-1E+10	1	-1E+10	1	-1E+10	1	-1E+10	1
4902549	57	C	03/08/2022	04:58	-131.801	47.550	0	79.10	0	7.6990	0	32.3440	0	25.233	0	78.424	0	278.6	4	94.6	4	-1E+10	1	-1E+10	1	-1E+10	1	-1E+10	1	-1E+10	1	-1E+10	1
4902549	57	C	03/08/2022	04:58	-131.801	47.550	0	80.00	0	7.7000	0	32.3440	0	25.233	0	79.317	0	278.4	4	94.5	4	-1E+10	1	-1E+10	1	-1E+10	1	-1E+10	1	-1E+10	1	-1E+10	1
4902549	57	C	03/08/2022	04:58	-131.801	47.550	0	80.90	0	7.7010	0	32.3440	0	25.232	0	80.209	0	278.3	4	94.5	4	-1E+10	1	-1E+10	1	-1E+10	1	-1E+10	1	-1E+10	1	-1E+10	1
4902549	57	C	03/08/2022	04:58	-131.801	47.550	0	82.10	0	7.7020	0	32.3450	0	25.233	0	81.398	0	278.4	4	94.5	4	-1E+10	1	-1E+10	1	-1E+10	1	-1E+10	1	-1E+10	1	-1E+10	1
4902549	57	C	03/08/2022	04:58	-131.801	47.550	0	82.90	0	7.7020	0	32.3440	0	25.232	0	82.191	0	278.2	4	94.5	4	-1E+10	1	-1E+10	1	-1E+10	1	-1E+10	1	-1E+10	1	-1E+10	1
4902549	57	C	03/08/2022	04:58	-131.801	47.550	0	83.90	0	7.7020	0	32.3440	0	25.232	0	83.182	0	285.1	4	96.8	4	-1E+10	1	-1E+10	1	-1E+10	1	-1E+10	1	-1E+10	1	-1E+10	1
4902549	57	C	03/08/2022	04:58	-131.801	47.550	0	85.10	0	7.7020	0	32.3440	0	25.232	0	84.372	0	285.1	4	96.8	4	-1E+10	1	-1E+10	1	-1E+10	1	-1E+10	1	-1E+10	1	-1E+10	1
4902549	57	C	03/08/2022	04:58	-131.801	47.550	0	86.00	0	7.7030	0	32.3440	0	25.232	0	85.264	0	285.1	4	96.8	4	-1E+10	1	-1E+10	1	-1E+10	1	-1E+10	1	-1E+10	1	-1E+10	1
4902549	57	C	03/08/2022	04:58	-131.801	47.550	0	87.00	0	7.7030	0	32.3450	0	25.233	0	86.255	0	284.9	4	96.7	4	-1E+10	1	-1E+10	1	-1E+10	1	-1E+10	1	-1E+10	1	-1E+10	1
4902549	57	C	03/08/2022	04:58	-131.801	47.550	0	88.10	0	7.7030	0	32.3440	0	25.232	0	87.346	0	284.8	4	96.7	4	-1E+10	1	-1E+10	1	-1E+10	1	-1E+10	1	-1E+10	1	-1E+10	1
4902549	57	C	03/08/2022	04:58	-131.801	47.550	0	89.10	0	7.7030	0	32.3450	0	25.233	0	88.337	0	284.7	4	96.7	4	-1E+10	1	-1E+10	1	-1E+10	1	-1E+10	1	-1E+10	1	-1E+10	1
4902549	57	C	03/08/2022	04:58	-131.801	47.550	0	90.00	0	7.7020	0	32.3440	0	25.232	0	89.229	0	284.6	4	96.6	4	-1E+10	1	-1E+10	1	-1E+10	1	-1E+10	1	-1E+10	1	-1E+10	1
4902549	57	C	03/08/2022	04:58	-131.801	47.550	0	90.90	0	7.6960	0	32.3440	0	25.233	0	90.121	0	284.5	4	96.6	4	-1E+10	1	-1E+10	1	-1E+10	1	-1E+10	1	-1E+10	1	-1E+10	1
4902549	57	C	03/08/2022	04:58	-131.801	47.550	0	91.80	0	7.6950	0	32.3430	0	25.233	0	91.013	0	284.4	4	96.5	4	-1E+10	1	-1E+10	1	-1E+10	1	-1E+10	1	-1E+10	1	-1E+10	1
4902549	57	C	03/08/2022	04:58	-131.801	47.550	0	93.00	0	7.6940	0	32.3430	0	25.233	0	92.203	0	284.1	4	96.5	4	-1E+10	1	-1E+10	1	-1E+10	1	-1E+10	1	-1E+10	1	-1E+10	1
4902549	57	C	03/08/2022	04:58	-131.801	47.550	0	93.90	0	7.6940	0	32.3430	0	25.233	0	93.095	0	283.9	4	96.4	4	-1E+10	1	-1E+10	1	-1E+10	1	-1E+10	1	-1E+10	1	-1E+10	1
4902549	57	C	03/08/2022	04:58	-131.801	47.550	0	94.80	0	7.6930	0	32.3430	0	25.233	0	93.987	0	283.6	4	96.3	4	-1E+10	1	-1E+10	1	-1E+10	1	-1E+10	1	-1E+10	1	-1E+10	1
4902549	57	C	03/08/2022	04:58	-131.801	47.550	0	96.00	0	7.6940	0	32.3430	0	25.233	0	95.176	0	283.3	4	96.2	4	-1E+10	1	-1E+10	1	-1E+10	1	-1E+10	1	-1E+10	1	-1E+10	1
4902549	57	C	03/08/2022	04:58	-131.801	47.550	0	96.90	0	7.6940	0	32.3430	0	25.233	0	96.068	0	283.1	4	96.1	4	-1E+10	1	-1E+10	1	-1E+10	1	-1E+10	1	-1E+10	1	-1E+10	1
4902549	57	C	03/08/2022	04:58	-131.801	47.550	0	97.80	0	7.6930	0	32.3430	0	25.233	0	96.960	0	282.7	4	96.0	4	-1E+10	1	-1E+10	1	-1E+10	1	-1E+10	1	-1E+10	1	-1E+10	1
4902549	57	C	03/08/2022	04:58	-131.801	47.550	0	98.90	0	7.6920	0	32.3430	0	25.233	0	98.051	0	282.2	4	95.8	4	-1E+10	1	-1E+10	1	-1E+10	1	-1E+10	1	-1E+10	1	-1E+10	1
4902549	57	C	03/08/2022	04:58	-131.801	47.550	0	100.10	0	7.6910	0	32.3430	0	25.233	0	99.240	0	281.6	4	95.6	4	-1E+10	1	-1E+10	1	-1E+10	1	-1E+10	1	-1E+10	1	-1E+10	1
4902549	57	C	03/08/2022	04:58	-131.801	47.550	0	101.10	0	7.6910	0	32.3430	0	25.233	0	100.231	0	280.9	4	95.4	4	-1E+10	1	-1E+10	1	-1E+10	1	-1E+10	1	-1E+10	1	-1E+10	1
4902549	57	C	03/08/2022	04:58	-131.801	47.550	0	102.30	0	7.6920	0	32.3440	0	25.234	0	101.421	0	279.8	4	95.0	4	-1E+10	1	-1E+10	1	-1E+10	1	-1E+10	1	-1E+10	1	-1E+10	1
4902549	57	C	03/08/2022	04:58	-131.801	47.550	0	102.90	0	7.6920	0	32.3440	0	25.234	0	102.015	0	279.1	4	94.7	4	-1E+10	1	-1E+10	1	-1E+10	1	-1E+10	1	-1E+10	1	-1E+10	1
4902549	57	C	03/08/2022	04:58	-131.801	47.550	0	104.10	0	7.6920	0	32.3440	0	25.234	0	103.205	0	277.0	4	94.1	4	-1E+10	1	-1E+10	1	-1E+10	1	-1E+10	1	-1E+10	1	-1E+10	1
4902549	57	C	03/08/2022	04:58	-131.801	47.550	0	104.90	0	7.6920	0	32.3440	0	25.234	0	103.998	0	275.4	4	93.5	4	-1E+10	1	-1E+10	1	-1E+10	1	-1E+10	1	-1E+10	1	-1E+10	1
4902549	57	C	03/08/2022	04:58	-131.801	47.550	0	106.00	0	7.6930	0	32.3450	0	25.235	0	105.088	0	272.9	4	92.6	4	-1E+10	1	-1E+10	1	-1E+10	1	-1E+10	1	-1E+10	1	-1E+10	1
4902549	57	C	03/08/2022	04:58	-131.801	47.550	0	107.10	0	7.6940	0	32.3480	0	25.237	0	106.178	0	270.0	4	91.7	4	-1E+10	1	-1E+10	1	-1E+10	1	-1E+10	1	-1E+10	1	-1E+10	1
4902549	57	C	03/08/2022	04:58	-131.801	47.550	0	107.90	0	7.6860	0	32.3540	0	25.243	0	106.971	0	267.5	4	90.8	4	-1E+10	1	-1E+10	1	-1E+10	1	-1E+10	1	-1E+10	1	-1E+10	1
4902549	57	C	03/08/2022	04:58	-131.801	47.550	0	109.00	0	7.6750	0	32.3610	0	25.250	0	108.061	0	263.6	4	89.5	4	-1E+10	1	-1E+10	1	-1E+10	1	-1E+10	1	-1E+10	1	-1E+10	1
4902549	57	C	03/08/2022	04:58	-131.801	47.550	0	109.90	0	7.6570	0	32.3730	0	25.262	0	108.953	0	260.0	4	88.2	4	-1E+10	1	-1E+10	1	-1E+10	1	-1E+10	1	-1E+10	1	-1E+10	1
4902549	57	C	03/08/2022	04:58	-131.801	47.550	0	110.90	0	7.5680	0	32.4360	0	25.324	0	109.944	0	254.3	4	86.2	4	-1E+10	1	-1E+10	1	-1E+10	1	-1E+10	1	-1E+10	1	-1E+10	1
4902549	57	C	03/08/2022	04:58	-131.801	47.550	0	112.20	0	7.4770	0	32.4790	0	25.370	0	111.233	0	249.6	4	84.4	4	-1E+10	1	-1E+10	1	-1E+10	1	-1E+10	1	-1E+10	1	-1E+10	1
4902549	57	C	03/08/2022	04:58	-131.801	47.550	0	112.90	0	7.4220	0	32.5120	0	25.404	0	111.927	0	247.5	4	83.6	4	-1E+10	1	-1E+10	1	-1E+10	1	-1E+10	1	-1E+10	1	-1E+10	1
4902549	57	C	03/08/2022	04:58	-131.801	47.550	0	114.00	0	7.3120	0	32.6000	0	25.488	0	113.017	0	245.6	4	82.8	4	-1E+10	1	-1E+10	1	-1E+10	1	-1E+10	1	-1E+10	1	-1E+10	1
4902549	57	C	03/08/2022	04:58	-131.801	47.550	0	115.10	0	7.2940	0	32.6210	0	25.507	0	114.107	0	243.2	4	82.0	4	-1E+10	1	-1E+10	1	-1E+10	1	-1E+10	1	-1E+10	1	-1E+10	1
4902549	57	C	03/08/2022	04:58	-131.801	47.550	0	115.90	0	7.2740	0	32.6450	0	25.529	0	114.900	0	241.6	4	81.4	4	-1E+10	1	-1E+10	1	-1E+10	1	-1E+10	1	-1E+10	1	-1E+10	1
4902549	57	C	03/08/2022	04:58	-131.801	47.550	0	116.70	0	7.2530	0	32.6650	0	25.547	0	115.693	0	240.0	4	80.9	4	-1E+10	1	-1E+10	1	-1E+10	1	-1E+10	1	-1E+10	1	-1E+10	1
4902549	57	C	03/08/2022	04:58	-131.801	47.550	0	117.80	0	7.2330	0	32.6910	0	25.570	0	116.783	0	237.2	4	79.9	4	-1E+10	1	-1E+10	1	-1E+10	1	-1E+10	1	-1E+10	1	-1E+10	1
4902549	57	C	03/08/2022	04:58	-131.801	47.550	0	119.10	0	7.2010	0	32.7460	0	25.618	0	118.071	0	232.5	4	78.3	4	-1E+10	1	-1E+10	1	-1E+10	1	-1E+10	1	-1E+10	1	-1E+10	1
4902549	57	C	03/08/2022	04:58	-131.801	47.550	0	120.00	0	7.1710	0	32.8150	0	25.676	0	118.963	0	230.0	4	77.4	4	-1E+10	1	-1E+10	1	-1E+10	1	-1E+10	1	-1E+10	1	-1E+10	1
4902549	57	C	03/08/2022	04:58	-131.801	47.550	0	121.00	0	7.1450	0	32.8950	0	25.743	0	119.954	0	228.1	4	76.8	4	-1E+10	1	-1E+10	1	-1E+10	1	-1E+10	1	-1E+10	1	-1E+10	1
4902549	57	C	03/08/2022	04:58	-131.801	47.550	0	122.20	0	7.1340	0	32.9310	0	25.773	0	121.144	0	226.2	4	76.1	4	-1E+10	1	-1E+10	1	-1E+10	1	-1E+10	1	-1E+10	1	-1E+10	1
4902549	57	C	03/08/2022	04:58	-131.801	47.550	0	123.00	0	7.1240	0	32.9650	0	25.801	0	121.937	0	224.8	4	75.7	4	-1E+10	1	-1E+10	1	-1E+10	1	-1E+10	1	-1E+10	1	-1E+10	1
4902549	57	C	03/08/2022	04:58	-131.801	47.550	0	124.30	0	7.1190	0	32.9830	0	25.816	0	123.225	0	222.4	4	74.9	4	-1E+10	1	-1E+10	1	-1E+10	1	-1E+10	1	-1E+10	1	-1E+10	1
4902549	57	C	03/08/2022	04:58	-131.801	47.550	0	125.20	0	7.1130	0	32.9910	0	25.823	0	124.117	0	220.2	4	74.1	4	-1E+10	1	-1E+10	1	-1E+10	1	-1E+10	1	-1E+10	1	-1E+10	1
4902549	57	C	03/08/2022	04:58	-131.801	47.550	0	125.80	0	7.1110	0	33.0020	0	25.832	0	124.711	0	218.5	4	73.6	4	-1E+10	1	-1E+10	1	-1E+10	1	-1E+10	1	-1E+10	1	-1E+10	1
4902549	57	C	03/08/2022	04:58	-131.801	47.550	0	126.70	0	7.1040	0	33.0280	0	25.853	0	125.603	0	215.9	4	72.7	4	-1E+10	1	-1E+10	1	-1E+10	1	-1E+10	1	-1E+10	1	-1E+10	1
4902549	57	C	03/08/2022	04:58	-131.801	47.550	0	127.80	0	7.1040	0	33.0900	0	25.902	0	126.694	0	212.6	4	71.6	4	-1E+10	1	-1E+10	1	-1E+10	1	-1E+10	1	-1E+10	1	-1E+10	1
4902549	57	C	03/08/2022	04:58	-131.801	47.550	0	129.00	0	7.1180	0	33.1690	0	25.962	0	127.883	0	209.7	4	70.7	4	-1E+10	1	-1E+10	1	-1E+10	1	-1E+10	1	-1E+10	1	-1E+10	1
4902549	57	C	03/08/2022	04:58	-131.801	47.550	0	129.90	0	7.1430	0	33.2290	0	26.006	0	128.775	0	208.2	4	70.3	4	-1E+10	1	-1E+10	1	-1E+10	1	-1E+10	1	-1E+10	1	-1E+10	1
4902549	57	C	03/08/2022	04:58	-131.801	47.550	0	130.90	0	7.1570	0	33.2580	0	26.027	0	129.766	0	206.9	4	69.8	4	-1E+10	1	-1E+10	1	-1E+10	1	-1E+10	1	-1E+10	1	-1E+10	1
4902549	57	C	03/08/2022	04:58	-131.801	47.550	0	132.00	0	7.1650	0	33.2750	0	26.039	0	130.856	0	205.8	4	69.5	4	-1E+10	1	-1E+10	1	-1E+10	1	-1E+10	1	-1E+10	1	-1E+10	1
4902549	57	C	03/08/2022	04:58	-131.801	47.550	0	133.00	0	7.1810	0	33.3040	0	26.060	0	131.847	0	204.7	4	69.2	4	-1E+10	1	-1E+10	1	-1E+10	1	-1E+10	1	-1E+10	1	-1E+10	1
4902549	57	C	03/08/2022	04:58	-131.801	47.550	0	134.10	0	7.1890	0	33.3480	0	26.094	0	132.937	0	203.6	4	68.9	4	-1E+10	1	-1E+10	1	-1E+10	1	-1E+10	1	-1E+10	1	-1E+10	1
4902549	57	C	03/08/2022	04:58	-131.801	47.550	0	134.90	0	7.1890	0	33.3570	0	26.101	0	133.730	0	203.0	4	68.7	4	-1E+10	1	-1E+10	1	-1E+10	1	-1E+10	1	-1E+10	1	-1E+10	1
4902549	57	C	03/08/2022	04:58	-131.801	47.550	0	135.90	0	7.1890	0	33.3660	0	26.108	0	134.721	0	202.1	4	68.3	4	-1E+10	1	-1E+10	1	-1E+10	1	-1E+10	1	-1E+10	1	-1E+10	1
4902549	57	C	03/08/2022	04:58	-131.801	47.550	0	137.10	0	7.1930	0	33.3820	0	26.120	0	135.910	0	201.1	4	68.0	4	-1E+10	1	-1E+10	1	-1E+10	1	-1E+10	1	-1E+10	1	-1E+10	1
4902549	57	C	03/08/2022	04:58	-131.801	47.550	0	137.90	0	7.1920	0	33.3990	0	26.133	0	136.703	0	200.4	4	67.8	4	-1E+10	1	-1E+10	1	-1E+10	1	-1E+10	1	-1E+10	1	-1E+10	1
4902549	57	C	03/08/2022	04:58	-131.801	47.550	0	138.80	0	7.1770	0	33.4330	0	26.162	0	137.595	0	199.8	4	67.6	4	-1E+10	1	-1E+10	1	-1E+10	1	-1E+10	1	-1E+10	1	-1E+10	1
4902549	57	C	03/08/2022	04:58	-131.801	47.550	0	139.70	0	7.1820	0	33.4570	0	26.180	0	138.487	0	199.2	4	67.4	4	-1E+10	1	-1E+10	1	-1E+10	1	-1E+10	1	-1E+10	1	-1E+10	1
4902549	57	C	03/08/2022	04:58	-131.801	47.550	0	140.90	0	7.1840	0	33.4790	0	26.198	0	139.676	0	198.6	4	67.2	4	-1E+10	1	-1E+10	1	-1E+10	1	-1E+10	1	-1E+10	1	-1E+10	1
4902549	57	C	03/08/2022	04:58	-131.801	47.550	0	142.30	0	7.1850	0	33.4880	0	26.205	0	141.063	0	197.8	4	67.0	4	-1E+10	1	-1E+10	1	-1E+10	1	-1E+10	1	-1E+10	1	-1E+10	1
4902549	57	C	03/08/2022	04:58	-131.801	47.550	0	143.20	0	7.1850	0	33.4890	0	26.205	0	141.955	0	197.3	4	66.8	4	-1E+10	1	-1E+10	1	-1E+10	1	-1E+10	1	-1E+10	1	-1E+10	1
4902549	57	C	03/08/2022	04:58	-131.801	47.550	0	144.00	0	7.1870	0	33.4940	0	26.209	0	142.748	0	196.6	4	66.6	4	-1E+10	1	-1E+10	1	-1E+10	1	-1E+10	1	-1E+10	1	-1E+10	1
4902549	57	C	03/08/2022	04:58	-131.801	47.550	0	144.90	0	7.1910	0	33.5090	0	26.220	0	143.640	0	196.0	4	66.4	4	-1E+10	1	-1E+10	1	-1E+10	1	-1E+10	1	-1E+10	1	-1E+10	1
4902549	57	C	03/08/2022	04:58	-131.801	47.550	0	145.80	0	7.1900	0	33.5140	0	26.224	0	144.531	0	195.4	4	66.1	4	-1E+10	1	-1E+10	1	-1E+10	1	-1E+10	1	-1E+10	1	-1E+10	1
4902549	57	C	03/08/2022	04:58	-131.801	47.550	0	146.70	0	7.1910	0	33.5250	0	26.233	0	145.423	0	194.7	4	65.9	4	-1E+10	1	-1E+10	1	-1E+10	1	-1E+10	1	-1E+10	1	-1E+10	1
4902549	57	C	03/08/2022	04:58	-131.801	47.550	0	147.90	0	7.1840	0	33.5460	0	26.250	0	146.612	0	193.8	4	65.6	4	-1E+10	1	-1E+10	1	-1E+10	1	-1E+10	1	-1E+10	1	-1E+10	1
4902549	57	C	03/08/2022	04:58	-131.801	47.550	0	149.30	0	7.1860	0	33.5550	0	26.257	0	148.000	0	192.9	4	65.3	4	-1E+10	1	-1E+10	1	-1E+10	1	-1E+10	1	-1E+10	1	-1E+10	1
4902549	57	C	03/08/2022	04:58	-131.801	47.550	0	150.30	0	7.1880	0	33.5580	0	26.259	0	148.991	0	192.1	4	65.0	4	-1E+10	1	-1E+10	1	-1E+10	1	-1E+10	1	-1E+10	1	-1E+10	1
4902549	57	C	03/08/2022	04:58	-131.801	47.550	0	151.20	0	7.1920	0	33.5760	0	26.273	0	149.883	0	191.3	4	64.8	4	-1E+10	1	-1E+10	1	-1E+10	1	-1E+10	1	-1E+10	1	-1E+10	1
4902549	57	C	03/08/2022	04:58	-131.801	47.550	0	152.20	0	7.1900	0	33.5920	0	26.286	0	150.873	0	190.7	4	64.6	4	-1E+10	1	-1E+10	1	-1E+10	1	-1E+10	1	-1E+10	1	-1E+10	1
4902549	57	C	03/08/2022	04:58	-131.801	47.550	0	153.10	0	7.1870	0	33.6100	0	26.300	0	151.765	0	190.0	4	64.4	4	-1E+10	1	-1E+10	1	-1E+10	1	-1E+10	1	-1E+10	1	-1E+10	1
4902549	57	C	03/08/2022	04:58	-131.801	47.550	0	154.10	0	7.1850	0	33.6150	0	26.305	0	152.756	0	189.3	4	64.1	4	-1E+10	1	-1E+10	1	-1E+10	1	-1E+10	1	-1E+10	1	-1E+10	1
4902549	57	C	03/08/2022	04:58	-131.801	47.550	0	155.00	0	7.1790	0	33.6240	0	26.313	0	153.648	0	188.5	4	63.9	4	-1E+10	1	-1E+10	1	-1E+10	1	-1E+10	1	-1E+10	1	-1E+10	1
4902549	57	C	03/08/2022	04:58	-131.801	47.550	0	156.00	0	7.1690	0	33.6360	0	26.323	0	154.639	0	187.8	4	63.6	4	-1E+10	1	-1E+10	1	-1E+10	1	-1E+10	1	-1E+10	1	-1E+10	1
4902549	57	C	03/08/2022	04:58	-131.801	47.550	0	156.90	0	7.1530	0	33.6570	0	26.342	0	155.531	0	187.3	4	63.4	4	-1E+10	1	-1E+10	1	-1E+10	1	-1E+10	1	-1E+10	1	-1E+10	1
4902549	57	C	03/08/2022	04:58	-131.801	47.550	0	157.90	0	7.1220	0	33.6640	0	26.352	0	156.522	0	186.9	4	63.3	4	-1E+10	1	-1E+10	1	-1E+10	1	-1E+10	1	-1E+10	1	-1E+10	1
4902549	57	C	03/08/2022	04:58	-131.801	47.550	0	158.80	0	7.1250	0	33.6700	0	26.356	0	157.413	0	186.5	4	63.1	4	-1E+10	1	-1E+10	1	-1E+10	1	-1E+10	1	-1E+10	1	-1E+10	1
4902549	57	C	03/08/2022	04:58	-131.801	47.550	0	160.00	0	7.0700	0	33.7090	0	26.394	0	158.602	0	186.2	4	62.9	4	-1E+10	1	-1E+10	1	-1E+10	1	-1E+10	1	-1E+10	1	-1E+10	1
4902549	57	C	03/08/2022	04:58	-131.801	47.550	0	160.80	0	7.0670	0	33.7100	0	26.396	0	159.395	0	186.2	4	62.9	4	-1E+10	1	-1E+10	1	-1E+10	1	-1E+10	1	-1E+10	1	-1E+10	1
4902549	57	C	03/08/2022	04:58	-131.801	47.550	0	161.80	0	7.0650	0	33.7110	0	26.397	0	160.386	0	186.0	4	62.9	4	-1E+10	1	-1E+10	1	-1E+10	1	-1E+10	1	-1E+10	1	-1E+10	1
4902549	57	C	03/08/2022	04:58	-131.801	47.550	0	162.80	0	7.0580	0	33.7140	0	26.400	0	161.377	0	185.8	4	62.8	4	-1E+10	1	-1E+10	1	-1E+10	1	-1E+10	1	-1E+10	1	-1E+10	1
4902549	57	C	03/08/2022	04:58	-131.801	47.550	0	163.90	0	7.0470	0	33.7180	0	26.405	0	162.467	0	185.7	4	62.8	4	-1E+10	1	-1E+10	1	-1E+10	1	-1E+10	1	-1E+10	1	-1E+10	1
4902549	57	C	03/08/2022	04:58	-131.801	47.550	0	164.90	0	7.0450	0	33.7190	0	26.406	0	163.458	0	185.5	4	62.7	4	-1E+10	1	-1E+10	1	-1E+10	1	-1E+10	1	-1E+10	1	-1E+10	1
4902549	57	C	03/08/2022	04:58	-131.801	47.550	0	165.90	0	7.0410	0	33.7210	0	26.408	0	164.449	0	185.4	4	62.7	4	-1E+10	1	-1E+10	1	-1E+10	1	-1E+10	1	-1E+10	1	-1E+10	1
4902549	57	C	03/08/2022	04:58	-131.801	47.550	0	166.90	0	7.0400	0	33.7210	0	26.408	0	165.439	0	185.2	4	62.6	4	-1E+10	1	-1E+10	1	-1E+10	1	-1E+10	1	-1E+10	1	-1E+10	1
4902549	57	C	03/08/2022	04:58	-131.801	47.550	0	167.90	0	7.0370	0	33.7220	0	26.409	0	166.430	0	185.2	4	62.6	4	-1E+10	1	-1E+10	1	-1E+10	1	-1E+10	1	-1E+10	1	-1E+10	1
4902549	57	C	03/08/2022	04:58	-131.801	47.550	0	169.00	0	7.0360	0	33.7220	0	26.409	0	167.520	0	185.0	4	62.5	4	-1E+10	1	-1E+10	1	-1E+10	1	-1E+10	1	-1E+10	1	-1E+10	1
4902549	57	C	03/08/2022	04:58	-131.801	47.550	0	170.00	0	7.0340	0	33.7220	0	26.410	0	168.511	0	184.7	4	62.4	4	-1E+10	1	-1E+10	1	-1E+10	1	-1E+10	1	-1E+10	1	-1E+10	1
4902549	57	C	03/08/2022	04:58	-131.801	47.550	0	171.00	0	7.0290	0	33.7230	0	26.411	0	169.502	0	184.6	4	62.4	4	-1E+10	1	-1E+10	1	-1E+10	1	-1E+10	1	-1E+10	1	-1E+10	1
4902549	57	C	03/08/2022	04:58	-131.801	47.550	0	172.00	0	7.0280	0	33.7240	0	26.412	0	170.493	0	184.3	4	62.3	4	-1E+10	1	-1E+10	1	-1E+10	1	-1E+10	1	-1E+10	1	-1E+10	1
4902549	57	C	03/08/2022	04:58	-131.801	47.550	0	173.30	0	7.0280	0	33.7240	0	26.412	0	171.781	0	184.1	4	62.2	4	-1E+10	1	-1E+10	1	-1E+10	1	-1E+10	1	-1E+10	1	-1E+10	1
4902549	57	C	03/08/2022	04:58	-131.801	47.550	0	174.10	0	7.0260	0	33.7250	0	26.413	0	172.573	0	183.9	4	62.1	4	-1E+10	1	-1E+10	1	-1E+10	1	-1E+10	1	-1E+10	1	-1E+10	1
4902549	57	C	03/08/2022	04:58	-131.801	47.550	0	175.10	0	7.0200	0	33.7270	0	26.416	0	173.564	0	183.7	4	62.0	4	-1E+10	1	-1E+10	1	-1E+10	1	-1E+10	1	-1E+10	1	-1E+10	1
4902549	57	C	03/08/2022	04:58	-131.801	47.550	0	176.10	0	7.0150	0	33.7290	0	26.418	0	174.555	0	183.4	4	62.0	4	-1E+10	1	-1E+10	1	-1E+10	1	-1E+10	1	-1E+10	1	-1E+10	1
4902549	57	C	03/08/2022	04:58	-131.801	47.550	0	177.10	0	7.0120	0	33.7300	0	26.419	0	175.546	0	183.2	4	61.9	4	-1E+10	1	-1E+10	1	-1E+10	1	-1E+10	1	-1E+10	1	-1E+10	1
4902549	57	C	03/08/2022	04:58	-131.801	47.550	0	178.10	0	7.0100	0	33.7300	0	26.419	0	176.537	0	182.9	4	61.8	4	-1E+10	1	-1E+10	1	-1E+10	1	-1E+10	1	-1E+10	1	-1E+10	1
4902549	57	C	03/08/2022	04:58	-131.801	47.550	0	179.20	0	7.0050	0	33.7310	0	26.421	0	177.626	0	182.6	4	61.7	4	-1E+10	1	-1E+10	1	-1E+10	1	-1E+10	1	-1E+10	1	-1E+10	1
4902549	57	C	03/08/2022	04:58	-131.801	47.550	0	180.20	0	7.0000	0	33.7330	0	26.423	0	178.617	0	182.3	4	61.5	4	-1E+10	1	-1E+10	1	-1E+10	1	-1E+10	1	-1E+10	1	-1E+10	1
4902549	57	C	03/08/2022	04:58	-131.801	47.550	0	181.20	0	6.9940	0	33.7350	0	26.426	0	179.608	0	182.0	4	61.4	4	-1E+10	1	-1E+10	1	-1E+10	1	-1E+10	1	-1E+10	1	-1E+10	1
4902549	57	C	03/08/2022	04:58	-131.801	47.550	0	182.20	0	6.9900	0	33.7360	0	26.427	0	180.599	0	181.6	4	61.3	4	-1E+10	1	-1E+10	1	-1E+10	1	-1E+10	1	-1E+10	1	-1E+10	1
4902549	57	C	03/08/2022	04:58	-131.801	47.550	0	183.20	0	6.9880	0	33.7370	0	26.428	0	181.590	0	181.1	4	61.1	4	-1E+10	1	-1E+10	1	-1E+10	1	-1E+10	1	-1E+10	1	-1E+10	1
4902549	57	C	03/08/2022	04:58	-131.801	47.550	0	184.20	0	6.9810	0	33.7390	0	26.431	0	182.580	0	180.6	4	61.0	4	-1E+10	1	-1E+10	1	-1E+10	1	-1E+10	1	-1E+10	1	-1E+10	1
4902549	57	C	03/08/2022	04:58	-131.801	47.550	0	185.20	0	6.9750	0	33.7410	0	26.433	0	183.571	0	180.1	4	60.8	4	-1E+10	1	-1E+10	1	-1E+10	1	-1E+10	1	-1E+10	1	-1E+10	1
4902549	57	C	03/08/2022	04:58	-131.801	47.550	0	186.20	0	6.9610	0	33.7450	0	26.438	0	184.562	0	179.6	4	60.6	4	-1E+10	1	-1E+10	1	-1E+10	1	-1E+10	1	-1E+10	1	-1E+10	1
4902549	57	C	03/08/2022	04:58	-131.801	47.550	0	187.20	0	6.9560	0	33.7460	0	26.439	0	185.553	0	179.1	4	60.4	4	-1E+10	1	-1E+10	1	-1E+10	1	-1E+10	1	-1E+10	1	-1E+10	1
4902549	57	C	03/08/2022	04:58	-131.801	47.550	0	188.30	0	6.9450	0	33.7480	0	26.443	0	186.642	0	178.6	4	60.2	4	-1E+10	1	-1E+10	1	-1E+10	1	-1E+10	1	-1E+10	1	-1E+10	1
4902549	57	C	03/08/2022	04:58	-131.801	47.550	0	189.30	0	6.9450	0	33.7470	0	26.442	0	187.633	0	177.9	4	60.0	4	-1E+10	1	-1E+10	1	-1E+10	1	-1E+10	1	-1E+10	1	-1E+10	1
4902549	57	C	03/08/2022	04:58	-131.801	47.550	0	190.30	0	6.9370	0	33.7490	0	26.444	0	188.624	0	177.2	4	59.8	4	-1E+10	1	-1E+10	1	-1E+10	1	-1E+10	1	-1E+10	1	-1E+10	1
4902549	57	C	03/08/2022	04:58	-131.801	47.550	0	191.30	0	6.9250	0	33.7510	0	26.448	0	189.615	0	176.5	4	59.5	4	-1E+10	1	-1E+10	1	-1E+10	1	-1E+10	1	-1E+10	1	-1E+10	1
4902549	57	C	03/08/2022	04:58	-131.801	47.550	0	192.30	0	6.8980	0	33.7560	0	26.455	0	190.605	0	175.9	4	59.2	4	-1E+10	1	-1E+10	1	-1E+10	1	-1E+10	1	-1E+10	1	-1E+10	1
4902549	57	C	03/08/2022	04:58	-131.801	47.550	0	193.30	0	6.8720	0	33.7570	0	26.460	0	191.596	0	175.2	4	59.0	4	-1E+10	1	-1E+10	1	-1E+10	1	-1E+10	1	-1E+10	1	-1E+10	1
4902549	57	C	03/08/2022	04:58	-131.801	47.550	0	194.30	0	6.8530	0	33.7570	0	26.462	0	192.587	0	174.6	4	58.7	4	-1E+10	1	-1E+10	1	-1E+10	1	-1E+10	1	-1E+10	1	-1E+10	1
4902549	57	C	03/08/2022	04:58	-131.801	47.550	0	195.30	0	6.8270	0	33.7640	0	26.471	0	193.578	0	173.9	4	58.5	4	-1E+10	1	-1E+10	1	-1E+10	1	-1E+10	1	-1E+10	1	-1E+10	1
4902549	57	C	03/08/2022	04:58	-131.801	47.550	0	196.30	0	6.7900	0	33.7610	0	26.474	0	194.568	0	173.4	4	58.3	4	-1E+10	1	-1E+10	1	-1E+10	1	-1E+10	1	-1E+10	1	-1E+10	1
4902549	57	C	03/08/2022	04:58	-131.801	47.550	0	197.30	0	6.7700	0	33.7630	0	26.478	0	195.559	0	172.9	4	58.1	4	-1E+10	1	-1E+10	1	-1E+10	1	-1E+10	1	-1E+10	1	-1E+10	1
4902549	57	C	03/08/2022	04:58	-131.801	47.550	0	198.30	0	6.7480	0	33.7680	0	26.485	0	196.550	0	172.4	4	57.9	4	-1E+10	1	-1E+10	1	-1E+10	1	-1E+10	1	-1E+10	1	-1E+10	1
4902549	57	C	03/08/2022	04:58	-131.801	47.550	0	199.30	0	6.7470	0	33.7660	0	26.483	0	197.540	0	171.8	4	57.7	4	-1E+10	1	-1E+10	1	-1E+10	1	-1E+10	1	-1E+10	1	-1E+10	1
4902549	57	C	03/08/2022	04:58	-131.801	47.550	0	200.30	0	6.7470	0	33.7660	0	26.483	0	198.531	0	171.0	4	57.4	4	-1E+10	1	-1E+10	1	-1E+10	1	-1E+10	1	-1E+10	1	-1E+10	1
4902549	57	C	03/08/2022	04:58	-131.801	47.550	0	201.30	0	6.7210	0	33.7680	0	26.489	0	199.522	0	170.3	4	57.2	4	-1E+10	1	-1E+10	1	-1E+10	1	-1E+10	1	-1E+10	1	-1E+10	1
4902549	57	C	03/08/2022	04:58	-131.801	47.550	0	202.20	0	6.7190	0	33.7660	0	26.487	0	200.413	0	169.5	4	56.9	4	-1E+10	1	-1E+10	1	-1E+10	1	-1E+10	1	-1E+10	1	-1E+10	1
4902549	57	C	03/08/2022	04:58	-131.801	47.550	0	203.20	0	6.7110	0	33.7660	0	26.488	0	201.404	0	168.5	4	56.5	4	-1E+10	1	-1E+10	1	-1E+10	1	-1E+10	1	-1E+10	1	-1E+10	1
4902549	57	C	03/08/2022	04:58	-131.801	47.550	0	204.20	0	6.6630	0	33.7690	0	26.497	0	202.395	0	167.7	4	56.2	4	-1E+10	1	-1E+10	1	-1E+10	1	-1E+10	1	-1E+10	1	-1E+10	1
4902549	57	C	03/08/2022	04:58	-131.801	47.550	0	205.20	0	6.6310	0	33.7720	0	26.504	0	203.385	0	167.1	4	56.0	4	-1E+10	1	-1E+10	1	-1E+10	1	-1E+10	1	-1E+10	1	-1E+10	1
4902549	57	C	03/08/2022	04:58	-131.801	47.550	0	206.20	0	6.6200	0	33.7720	0	26.505	0	204.376	0	166.4	4	55.7	4	-1E+10	1	-1E+10	1	-1E+10	1	-1E+10	1	-1E+10	1	-1E+10	1
4902549	57	C	03/08/2022	04:58	-131.801	47.550	0	207.10	0	6.6070	0	33.7720	0	26.507	0	205.268	0	165.5	4	55.4	4	-1E+10	1	-1E+10	1	-1E+10	1	-1E+10	1	-1E+10	1	-1E+10	1
4902549	57	C	03/08/2022	04:58	-131.801	47.550	0	208.10	0	6.5920	0	33.7730	0	26.510	0	206.258	0	164.6	4	55.1	4	-1E+10	1	-1E+10	1	-1E+10	1	-1E+10	1	-1E+10	1	-1E+10	1
4902549	57	C	03/08/2022	04:58	-131.801	47.550	0	209.10	0	6.5670	0	33.7730	0	26.513	0	207.249	0	163.8	4	54.8	4	-1E+10	1	-1E+10	1	-1E+10	1	-1E+10	1	-1E+10	1	-1E+10	1
4902549	57	C	03/08/2022	04:58	-131.801	47.550	0	210.10	0	6.5300	0	33.7750	0	26.519	0	208.240	0	163.0	4	54.5	4	-1E+10	1	-1E+10	1	-1E+10	1	-1E+10	1	-1E+10	1	-1E+10	1
4902549	57	C	03/08/2022	04:58	-131.801	47.550	0	211.10	0	6.4850	0	33.7750	0	26.525	0	209.230	0	162.5	4	54.2	4	-1E+10	1	-1E+10	1	-1E+10	1	-1E+10	1	-1E+10	1	-1E+10	1
4902549	57	C	03/08/2022	04:58	-131.801	47.550	0	212.00	0	6.4580	0	33.7770	0	26.530	0	210.122	0	161.9	4	54.0	4	-1E+10	1	-1E+10	1	-1E+10	1	-1E+10	1	-1E+10	1	-1E+10	1
4902549	57	C	03/08/2022	04:58	-131.801	47.550	0	213.00	0	6.4370	0	33.7780	0	26.534	0	211.112	0	161.5	4	53.9	4	-1E+10	1	-1E+10	1	-1E+10	1	-1E+10	1	-1E+10	1	-1E+10	1
4902549	57	C	03/08/2022	04:58	-131.801	47.550	0	214.00	0	6.4280	0	33.7780	0	26.535	0	212.103	0	161.0	4	53.7	4	-1E+10	1	-1E+10	1	-1E+10	1	-1E+10	1	-1E+10	1	-1E+10	1
4902549	57	C	03/08/2022	04:58	-131.801	47.550	0	215.00	0	6.4130	0	33.7790	0	26.538	0	213.094	0	160.6	4	53.5	4	-1E+10	1	-1E+10	1	-1E+10	1	-1E+10	1	-1E+10	1	-1E+10	1
4902549	57	C	03/08/2022	04:58	-131.801	47.550	0	216.20	0	6.4010	0	33.7780	0	26.539	0	214.282	0	160.1	4	53.3	4	-1E+10	1	-1E+10	1	-1E+10	1	-1E+10	1	-1E+10	1	-1E+10	1
4902549	57	C	03/08/2022	04:58	-131.801	47.550	0	217.00	0	6.3810	0	33.7830	0	26.545	0	215.075	0	159.7	4	53.2	4	-1E+10	1	-1E+10	1	-1E+10	1	-1E+10	1	-1E+10	1	-1E+10	1
4902549	57	C	03/08/2022	04:58	-131.801	47.550	0	218.00	0	6.3630	0	33.7810	0	26.546	0	216.066	0	159.5	4	53.1	4	-1E+10	1	-1E+10	1	-1E+10	1	-1E+10	1	-1E+10	1	-1E+10	1
4902549	57	C	03/08/2022	04:58	-131.801	47.550	0	219.00	0	6.3620	0	33.7810	0	26.546	0	217.056	0	159.2	4	53.0	4	-1E+10	1	-1E+10	1	-1E+10	1	-1E+10	1	-1E+10	1	-1E+10	1
4902549	57	C	03/08/2022	04:58	-131.801	47.550	0	220.00	0	6.3580	0	33.7820	0	26.547	0	218.047	0	158.8	4	52.8	4	-1E+10	1	-1E+10	1	-1E+10	1	-1E+10	1	-1E+10	1	-1E+10	1
4902549	57	C	03/08/2022	04:58	-131.801	47.550	0	221.20	0	6.3530	0	33.7810	0	26.547	0	219.235	0	158.3	4	52.7	4	-1E+10	1	-1E+10	1	-1E+10	1	-1E+10	1	-1E+10	1	-1E+10	1
4902549	57	C	03/08/2022	04:58	-131.801	47.550	0	221.90	0	6.3500	0	33.7810	0	26.548	0	219.929	0	158.0	4	52.6	4	-1E+10	1	-1E+10	1	-1E+10	1	-1E+10	1	-1E+10	1	-1E+10	1
4902549	57	C	03/08/2022	04:58	-131.801	47.550	0	223.10	0	6.3450	0	33.7810	0	26.548	0	221.118	0	157.5	4	52.4	4	-1E+10	1	-1E+10	1	-1E+10	1	-1E+10	1	-1E+10	1	-1E+10	1
4902549	57	C	03/08/2022	04:58	-131.801	47.550	0	224.10	0	6.3410	0	33.7820	0	26.550	0	222.108	0	156.9	4	52.2	4	-1E+10	1	-1E+10	1	-1E+10	1	-1E+10	1	-1E+10	1	-1E+10	1
4902549	57	C	03/08/2022	04:58	-131.801	47.550	0	224.90	0	6.3410	0	33.7820	0	26.550	0	222.901	0	156.4	4	52.0	4	-1E+10	1	-1E+10	1	-1E+10	1	-1E+10	1	-1E+10	1	-1E+10	1
4902549	57	C	03/08/2022	04:58	-131.801	47.550	0	225.80	0	6.3380	0	33.7820	0	26.550	0	223.792	0	155.8	4	51.8	4	-1E+10	1	-1E+10	1	-1E+10	1	-1E+10	1	-1E+10	1	-1E+10	1
4902549	57	C	03/08/2022	04:58	-131.801	47.550	0	226.80	0	6.3370	0	33.7810	0	26.549	0	224.783	0	155.1	4	51.6	4	-1E+10	1	-1E+10	1	-1E+10	1	-1E+10	1	-1E+10	1	-1E+10	1
4902549	57	C	03/08/2022	04:58	-131.801	47.550	0	227.70	0	6.3320	0	33.7810	0	26.550	0	225.674	0	154.4	4	51.3	4	-1E+10	1	-1E+10	1	-1E+10	1	-1E+10	1	-1E+10	1	-1E+10	1
4902549	57	C	03/08/2022	04:58	-131.801	47.550	0	228.60	0	6.3250	0	33.7800	0	26.550	0	226.566	0	153.5	4	51.1	4	-1E+10	1	-1E+10	1	-1E+10	1	-1E+10	1	-1E+10	1	-1E+10	1
4902549	57	C	03/08/2022	04:58	-131.801	47.550	0	229.60	0	6.2770	0	33.7870	0	26.562	0	227.556	0	152.9	4	50.8	4	-1E+10	1	-1E+10	1	-1E+10	1	-1E+10	1	-1E+10	1	-1E+10	1
4902549	57	C	03/08/2022	04:58	-131.801	47.550	0	230.50	0	6.2580	0	33.7830	0	26.561	0	228.448	0	152.4	4	50.6	4	-1E+10	1	-1E+10	1	-1E+10	1	-1E+10	1	-1E+10	1	-1E+10	1
4902549	57	C	03/08/2022	04:58	-131.801	47.550	0	231.90	0	6.2490	0	33.7820	0	26.561	0	229.834	0	151.0	4	50.1	4	-1E+10	1	-1E+10	1	-1E+10	1	-1E+10	1	-1E+10	1	-1E+10	1
4902549	57	C	03/08/2022	04:58	-131.801	47.550	0	233.20	0	6.2060	0	33.7850	0	26.569	0	231.122	0	149.8	4	49.7	4	-1E+10	1	-1E+10	1	-1E+10	1	-1E+10	1	-1E+10	1	-1E+10	1
4902549	57	C	03/08/2022	04:58	-131.801	47.550	0	234.10	0	6.1880	0	33.7890	0	26.575	0	232.014	0	148.9	4	49.4	4	-1E+10	1	-1E+10	1	-1E+10	1	-1E+10	1	-1E+10	1	-1E+10	1
4902549	57	C	03/08/2022	04:58	-131.801	47.550	0	235.00	0	6.1560	0	33.7880	0	26.578	0	232.905	0	148.2	4	49.1	4	-1E+10	1	-1E+10	1	-1E+10	1	-1E+10	1	-1E+10	1	-1E+10	1
4902549	57	C	03/08/2022	04:58	-131.801	47.550	0	235.90	0	6.1420	0	33.7880	0	26.580	0	233.797	0	147.5	4	48.9	4	-1E+10	1	-1E+10	1	-1E+10	1	-1E+10	1	-1E+10	1	-1E+10	1
4902549	57	C	03/08/2022	04:58	-131.801	47.550	0	236.80	0	6.1300	0	33.7910	0	26.584	0	234.688	0	147.0	4	48.7	4	-1E+10	1	-1E+10	1	-1E+10	1	-1E+10	1	-1E+10	1	-1E+10	1
4902549	57	C	03/08/2022	04:58	-131.801	47.550	0	237.90	0	6.1260	0	33.7920	0	26.585	0	235.778	0	146.3	4	48.4	4	-1E+10	1	-1E+10	1	-1E+10	1	-1E+10	1	-1E+10	1	-1E+10	1
4902549	57	C	03/08/2022	04:58	-131.801	47.550	0	238.80	0	6.1260	0	33.7920	0	26.585	0	236.669	0	145.6	4	48.2	4	-1E+10	1	-1E+10	1	-1E+10	1	-1E+10	1	-1E+10	1	-1E+10	1
4902549	57	C	03/08/2022	04:58	-131.801	47.550	0	239.50	0	6.1260	0	33.7930	0	26.586	0	237.362	0	144.9	4	48.0	4	-1E+10	1	-1E+10	1	-1E+10	1	-1E+10	1	-1E+10	1	-1E+10	1
4902549	57	C	03/08/2022	04:58	-131.801	47.550	0	240.90	0	6.1230	0	33.7930	0	26.586	0	238.749	0	143.6	4	47.5	4	-1E+10	1	-1E+10	1	-1E+10	1	-1E+10	1	-1E+10	1	-1E+10	1
4902549	57	C	03/08/2022	04:58	-131.801	47.550	0	242.20	0	6.1060	0	33.7980	0	26.592	0	240.037	0	142.5	4	47.2	4	-1E+10	1	-1E+10	1	-1E+10	1	-1E+10	1	-1E+10	1	-1E+10	1
4902549	57	C	03/08/2022	04:58	-131.801	47.550	0	243.10	0	6.0930	0	33.7980	0	26.594	0	240.928	0	141.7	4	46.9	4	-1E+10	1	-1E+10	1	-1E+10	1	-1E+10	1	-1E+10	1	-1E+10	1
4902549	57	C	03/08/2022	04:58	-131.801	47.550	0	244.00	0	6.0840	0	33.7980	0	26.595	0	241.820	0	140.9	4	46.6	4	-1E+10	1	-1E+10	1	-1E+10	1	-1E+10	1	-1E+10	1	-1E+10	1
4902549	57	C	03/08/2022	04:58	-131.801	47.550	0	244.90	0	6.0750	0	33.7990	0	26.597	0	242.711	0	140.0	4	46.3	4	-1E+10	1	-1E+10	1	-1E+10	1	-1E+10	1	-1E+10	1	-1E+10	1
4902549	57	C	03/08/2022	04:58	-131.801	47.550	0	245.80	0	6.0670	0	33.8000	0	26.599	0	243.602	0	139.1	4	46.0	4	-1E+10	1	-1E+10	1	-1E+10	1	-1E+10	1	-1E+10	1	-1E+10	1
4902549	57	C	03/08/2022	04:58	-131.801	47.550	0	246.90	0	6.0470	0	33.8000	0	26.601	0	244.692	0	138.0	4	45.6	4	-1E+10	1	-1E+10	1	-1E+10	1	-1E+10	1	-1E+10	1	-1E+10	1
4902549	57	C	03/08/2022	04:58	-131.801	47.550	0	247.60	0	6.0030	0	33.8050	0	26.611	0	245.385	0	137.4	4	45.4	4	-1E+10	1	-1E+10	1	-1E+10	1	-1E+10	1	-1E+10	1	-1E+10	1
4902549	57	C	03/08/2022	04:58	-131.801	47.550	0	248.90	0	5.9840	0	33.8000	0	26.609	0	246.673	0	136.2	4	45.0	4	-1E+10	1	-1E+10	1	-1E+10	1	-1E+10	1	-1E+10	1	-1E+10	1
4902549	57	C	03/08/2022	04:58	-131.801	47.550	0	250.30	0	5.9760	0	33.8000	0	26.610	0	248.060	0	134.9	4	44.5	4	-1E+10	1	-1E+10	1	-1E+10	1	-1E+10	1	-1E+10	1	-1E+10	1
4902549	57	C	03/08/2022	04:58	-131.801	47.550	0	251.20	0	5.9400	0	33.8060	0	26.619	0	248.951	0	134.1	4	44.2	4	-1E+10	1	-1E+10	1	-1E+10	1	-1E+10	1	-1E+10	1	-1E+10	1
4902549	57	C	03/08/2022	04:58	-131.801	47.550	0	252.40	0	5.8670	0	33.8110	0	26.632	0	250.139	0	133.7	4	44.0	4	-1E+10	1	-1E+10	1	-1E+10	1	-1E+10	1	-1E+10	1	-1E+10	1
4902549	57	C	03/08/2022	04:58	-131.801	47.550	0	253.30	0	5.8660	0	33.8080	0	26.630	0	251.031	0	133.3	4	43.9	4	-1E+10	1	-1E+10	1	-1E+10	1	-1E+10	1	-1E+10	1	-1E+10	1
4902549	57	C	03/08/2022	04:58	-131.801	47.550	0	254.00	0	5.8630	0	33.8090	0	26.631	0	251.724	0	132.9	4	43.7	4	-1E+10	1	-1E+10	1	-1E+10	1	-1E+10	1	-1E+10	1	-1E+10	1
4902549	57	C	03/08/2022	04:58	-131.801	47.550	0	255.00	0	5.8610	0	33.8080	0	26.631	0	252.715	0	132.4	4	43.6	4	-1E+10	1	-1E+10	1	-1E+10	1	-1E+10	1	-1E+10	1	-1E+10	1
4902549	57	C	03/08/2022	04:58	-131.801	47.550	0	255.90	0	5.8600	0	33.8080	0	26.631	0	253.606	0	131.8	4	43.4	4	-1E+10	1	-1E+10	1	-1E+10	1	-1E+10	1	-1E+10	1	-1E+10	1
4902549	57	C	03/08/2022	04:58	-131.801	47.550	0	256.80	0	5.8590	0	33.8070	0	26.630	0	254.497	0	131.1	4	43.1	4	-1E+10	1	-1E+10	1	-1E+10	1	-1E+10	1	-1E+10	1	-1E+10	1
4902549	57	C	03/08/2022	04:58	-131.801	47.550	0	257.80	0	5.8420	0	33.8100	0	26.635	0	255.488	0	130.4	4	42.9	4	-1E+10	1	-1E+10	1	-1E+10	1	-1E+10	1	-1E+10	1	-1E+10	1
4902549	57	C	03/08/2022	04:58	-131.801	47.550	0	258.70	0	5.8310	0	33.8100	0	26.636	0	256.379	0	129.9	4	42.7	4	-1E+10	1	-1E+10	1	-1E+10	1	-1E+10	1	-1E+10	1	-1E+10	1
4902549	57	C	03/08/2022	04:58	-131.801	47.550	0	259.60	0	5.8190	0	33.8110	0	26.638	0	257.271	0	129.3	4	42.5	4	-1E+10	1	-1E+10	1	-1E+10	1	-1E+10	1	-1E+10	1	-1E+10	1
4902549	57	C	03/08/2022	04:58	-131.801	47.550	0	260.50	0	5.8100	0	33.8130	0	26.641	0	258.162	0	128.6	4	42.3	4	-1E+10	1	-1E+10	1	-1E+10	1	-1E+10	1	-1E+10	1	-1E+10	1
4902549	57	C	03/08/2022	04:58	-131.801	47.550	0	261.90	0	5.7980	0	33.8130	0	26.643	0	259.548	0	127.5	4	41.9	4	-1E+10	1	-1E+10	1	-1E+10	1	-1E+10	1	-1E+10	1	-1E+10	1
4902549	57	C	03/08/2022	04:58	-131.801	47.550	0	263.00	0	5.7730	0	33.8150	0	26.647	0	260.638	0	126.6	4	41.6	4	-1E+10	1	-1E+10	1	-1E+10	1	-1E+10	1	-1E+10	1	-1E+10	1
4902549	57	C	03/08/2022	04:58	-131.801	47.550	0	263.70	0	5.7720	0	33.8150	0	26.647	0	261.331	0	126.0	4	41.4	4	-1E+10	1	-1E+10	1	-1E+10	1	-1E+10	1	-1E+10	1	-1E+10	1
4902549	57	C	03/08/2022	04:58	-131.801	47.550	0	264.80	0	5.7620	0	33.8160	0	26.649	0	262.421	0	125.0	4	41.1	4	-1E+10	1	-1E+10	1	-1E+10	1	-1E+10	1	-1E+10	1	-1E+10	1
4902549	57	C	03/08/2022	04:58	-131.801	47.550	0	266.00	0	5.7410	0	33.8190	0	26.654	0	263.609	0	124.1	4	40.7	4	-1E+10	1	-1E+10	1	-1E+10	1	-1E+10	1	-1E+10	1	-1E+10	1
4902549	57	C	03/08/2022	04:58	-131.801	47.550	0	266.70	0	5.7370	0	33.8180	0	26.654	0	264.302	0	123.4	4	40.5	4	-1E+10	1	-1E+10	1	-1E+10	1	-1E+10	1	-1E+10	1	-1E+10	1
4902549	57	C	03/08/2022	04:58	-131.801	47.550	0	267.90	0	5.7330	0	33.8170	0	26.654	0	265.491	0	122.0	4	40.0	4	-1E+10	1	-1E+10	1	-1E+10	1	-1E+10	1	-1E+10	1	-1E+10	1
4902549	57	C	03/08/2022	04:58	-131.801	47.550	0	269.10	0	5.7240	0	33.8180	0	26.656	0	266.679	0	120.7	4	39.6	4	-1E+10	1	-1E+10	1	-1E+10	1	-1E+10	1	-1E+10	1	-1E+10	1
4902549	57	C	03/08/2022	04:58	-131.801	47.550	0	270.10	0	5.6890	0	33.8220	0	26.663	0	267.670	0	119.9	4	39.3	4	-1E+10	1	-1E+10	1	-1E+10	1	-1E+10	1	-1E+10	1	-1E+10	1
4902549	57	C	03/08/2022	04:58	-131.801	47.550	0	270.80	0	5.6580	0	33.8250	0	26.669	0	268.363	0	119.4	4	39.1	4	-1E+10	1	-1E+10	1	-1E+10	1	-1E+10	1	-1E+10	1	-1E+10	1
4902549	57	C	03/08/2022	04:58	-131.801	47.550	0	271.90	0	5.6410	0	33.8270	0	26.673	0	269.452	0	118.6	4	38.8	4	-1E+10	1	-1E+10	1	-1E+10	1	-1E+10	1	-1E+10	1	-1E+10	1
4902549	57	C	03/08/2022	04:58	-131.801	47.550	0	273.10	0	5.6190	0	33.8270	0	26.676	0	270.641	0	117.9	4	38.6	4	-1E+10	1	-1E+10	1	-1E+10	1	-1E+10	1	-1E+10	1	-1E+10	1
4902549	57	C	03/08/2022	04:58	-131.801	47.550	0	274.00	0	5.6020	0	33.8280	0	26.678	0	271.532	0	117.4	4	38.4	4	-1E+10	1	-1E+10	1	-1E+10	1	-1E+10	1	-1E+10	1	-1E+10	1
4902549	57	C	03/08/2022	04:58	-131.801	47.550	0	274.80	0	5.6010	0	33.8280	0	26.678	0	272.324	0	116.9	4	38.3	4	-1E+10	1	-1E+10	1	-1E+10	1	-1E+10	1	-1E+10	1	-1E+10	1
4902549	57	C	03/08/2022	04:58	-131.801	47.550	0	276.00	0	5.5990	0	33.8280	0	26.679	0	273.513	0	116.0	4	37.9	4	-1E+10	1	-1E+10	1	-1E+10	1	-1E+10	1	-1E+10	1	-1E+10	1
4902549	57	C	03/08/2022	04:58	-131.801	47.550	0	277.90	0	5.5680	0	33.8290	0	26.683	0	275.394	0	114.6	4	37.5	4	-1E+10	1	-1E+10	1	-1E+10	1	-1E+10	1	-1E+10	1	-1E+10	1
4902549	57	C	03/08/2022	04:58	-131.801	47.550	0	279.20	0	5.5400	0	33.8300	0	26.687	0	276.682	0	113.8	4	37.2	4	-1E+10	1	-1E+10	1	-1E+10	1	-1E+10	1	-1E+10	1	-1E+10	1
4902549	57	C	03/08/2022	04:58	-131.801	47.550	0	280.10	0	5.5180	0	33.8310	0	26.691	0	277.573	0	113.4	4	37.0	4	-1E+10	1	-1E+10	1	-1E+10	1	-1E+10	1	-1E+10	1	-1E+10	1
4902549	57	C	03/08/2022	04:58	-131.801	47.550	0	281.00	0	5.5080	0	33.8320	0	26.693	0	278.464	0	112.9	4	36.8	4	-1E+10	1	-1E+10	1	-1E+10	1	-1E+10	1	-1E+10	1	-1E+10	1
4902549	57	C	03/08/2022	04:58	-131.801	47.550	0	281.80	0	5.4960	0	33.8330	0	26.695	0	279.256	0	112.4	4	36.7	4	-1E+10	1	-1E+10	1	-1E+10	1	-1E+10	1	-1E+10	1	-1E+10	1
4902549	57	C	03/08/2022	04:58	-131.801	47.550	0	282.70	0	5.4840	0	33.8340	0	26.697	0	280.148	0	111.9	4	36.5	4	-1E+10	1	-1E+10	1	-1E+10	1	-1E+10	1	-1E+10	1	-1E+10	1
4902549	57	C	03/08/2022	04:58	-131.801	47.550	0	283.60	0	5.4810	0	33.8330	0	26.697	0	281.039	0	111.4	4	36.3	4	-1E+10	1	-1E+10	1	-1E+10	1	-1E+10	1	-1E+10	1	-1E+10	1
4902549	57	C	03/08/2022	04:58	-131.801	47.550	0	284.90	0	5.4580	0	33.8350	0	26.701	0	282.326	0	110.6	4	36.1	4	-1E+10	1	-1E+10	1	-1E+10	1	-1E+10	1	-1E+10	1	-1E+10	1
4902549	57	C	03/08/2022	04:58	-131.801	47.550	0	286.30	0	5.4270	0	33.8370	0	26.706	0	283.713	0	110.1	4	35.9	4	-1E+10	1	-1E+10	1	-1E+10	1	-1E+10	1	-1E+10	1	-1E+10	1
4902549	57	C	03/08/2022	04:58	-131.801	47.550	0	287.20	0	5.4200	0	33.8360	0	26.707	0	284.604	0	109.8	4	35.8	4	-1E+10	1	-1E+10	1	-1E+10	1	-1E+10	1	-1E+10	1	-1E+10	1
4902549	57	C	03/08/2022	04:58	-131.801	47.550	0	288.10	0	5.4180	0	33.8370	0	26.708	0	285.495	0	109.4	4	35.6	4	-1E+10	1	-1E+10	1	-1E+10	1	-1E+10	1	-1E+10	1	-1E+10	1
4902549	57	C	03/08/2022	04:58	-131.801	47.550	0	289.10	0	5.4090	0	33.8390	0	26.710	0	286.485	0	109.0	4	35.5	4	-1E+10	1	-1E+10	1	-1E+10	1	-1E+10	1	-1E+10	1	-1E+10	1
4902549	57	C	03/08/2022	04:58	-131.801	47.550	0	290.00	0	5.3990	0	33.8390	0	26.711	0	287.377	0	108.6	4	35.4	4	-1E+10	1	-1E+10	1	-1E+10	1	-1E+10	1	-1E+10	1	-1E+10	1
4902549	57	C	03/08/2022	04:58	-131.801	47.550	0	290.70	0	5.3860	0	33.8410	0	26.715	0	288.070	0	108.4	4	35.3	4	-1E+10	1	-1E+10	1	-1E+10	1	-1E+10	1	-1E+10	1	-1E+10	1
4902549	57	C	03/08/2022	04:58	-131.801	47.550	0	291.80	0	5.3800	0	33.8410	0	26.715	0	289.159	0	108.1	4	35.2	4	-1E+10	1	-1E+10	1	-1E+10	1	-1E+10	1	-1E+10	1	-1E+10	1
4902549	57	C	03/08/2022	04:58	-131.801	47.550	0	292.80	0	5.3780	0	33.8420	0	26.716	0	290.149	0	107.7	4	35.1	4	-1E+10	1	-1E+10	1	-1E+10	1	-1E+10	1	-1E+10	1	-1E+10	1
4902549	57	C	03/08/2022	04:58	-131.801	47.550	0	293.70	0	5.3750	0	33.8410	0	26.716	0	291.041	0	107.3	4	34.9	4	-1E+10	1	-1E+10	1	-1E+10	1	-1E+10	1	-1E+10	1	-1E+10	1
4902549	57	C	03/08/2022	04:58	-131.801	47.550	0	294.70	0	5.3750	0	33.8420	0	26.717	0	292.031	0	106.9	4	34.8	4	-1E+10	1	-1E+10	1	-1E+10	1	-1E+10	1	-1E+10	1	-1E+10	1
4902549	57	C	03/08/2022	04:58	-131.801	47.550	0	295.60	0	5.3690	0	33.8440	0	26.719	0	292.922	0	106.5	4	34.6	4	-1E+10	1	-1E+10	1	-1E+10	1	-1E+10	1	-1E+10	1	-1E+10	1
4902549	57	C	03/08/2022	04:58	-131.801	47.550	0	296.90	0	5.3610	0	33.8440	0	26.720	0	294.209	0	105.8	4	34.4	4	-1E+10	1	-1E+10	1	-1E+10	1	-1E+10	1	-1E+10	1	-1E+10	1
4902549	57	C	03/08/2022	04:58	-131.801	47.550	0	298.90	0	5.3550	0	33.8440	0	26.721	0	296.190	0	104.8	4	34.1	4	-1E+10	1	-1E+10	1	-1E+10	1	-1E+10	1	-1E+10	1	-1E+10	1
4902549	57	C	03/08/2022	04:58	-131.801	47.550	0	300.40	0	5.3370	0	33.8450	0	26.724	0	297.675	0	104.0	4	33.8	4	-1E+10	1	-1E+10	1	-1E+10	1	-1E+10	1	-1E+10	1	-1E+10	1
4902549	57	C	03/08/2022	04:58	-131.801	47.550	0	301.30	0	5.3290	0	33.8460	0	26.725	0	298.566	0	103.4	4	33.6	4	-1E+10	1	-1E+10	1	-1E+10	1	-1E+10	1	-1E+10	1	-1E+10	1
4902549	57	C	03/08/2022	04:58	-131.801	47.550	0	302.30	0	5.3050	0	33.8470	0	26.729	0	299.556	0	102.9	4	33.4	4	-1E+10	1	-1E+10	1	-1E+10	1	-1E+10	1	-1E+10	1	-1E+10	1
4902549	57	C	03/08/2022	04:58	-131.801	47.550	0	303.30	0	5.2880	0	33.8500	0	26.733	0	300.547	0	102.5	4	33.3	4	-1E+10	1	-1E+10	1	-1E+10	1	-1E+10	1	-1E+10	1	-1E+10	1
4902549	57	C	03/08/2022	04:58	-131.801	47.550	0	304.30	0	5.2800	0	33.8510	0	26.735	0	301.537	0	102.1	4	33.2	4	-1E+10	1	-1E+10	1	-1E+10	1	-1E+10	1	-1E+10	1	-1E+10	1
4902549	57	C	03/08/2022	04:58	-131.801	47.550	0	305.30	0	5.2620	0	33.8520	0	26.738	0	302.527	0	101.8	4	33.0	4	-1E+10	1	-1E+10	1	-1E+10	1	-1E+10	1	-1E+10	1	-1E+10	1
4902549	57	C	03/08/2022	04:58	-131.801	47.550	0	306.30	0	5.2550	0	33.8530	0	26.739	0	303.517	0	101.5	4	32.9	4	-1E+10	1	-1E+10	1	-1E+10	1	-1E+10	1	-1E+10	1	-1E+10	1
4902549	57	C	03/08/2022	04:58	-131.801	47.550	0	307.30	0	5.2470	0	33.8550	0	26.742	0	304.507	0	101.2	4	32.8	4	-1E+10	1	-1E+10	1	-1E+10	1	-1E+10	1	-1E+10	1	-1E+10	1
4902549	57	C	03/08/2022	04:58	-131.801	47.550	0	308.30	0	5.2370	0	33.8550	0	26.743	0	305.498	0	100.9	4	32.7	4	-1E+10	1	-1E+10	1	-1E+10	1	-1E+10	1	-1E+10	1	-1E+10	1
4902549	57	C	03/08/2022	04:58	-131.801	47.550	0	309.30	0	5.2340	0	33.8560	0	26.744	0	306.488	0	100.6	4	32.6	4	-1E+10	1	-1E+10	1	-1E+10	1	-1E+10	1	-1E+10	1	-1E+10	1
4902549	57	C	03/08/2022	04:58	-131.801	47.550	0	310.30	0	5.2320	0	33.8550	0	26.744	0	307.478	0	100.3	4	32.5	4	-1E+10	1	-1E+10	1	-1E+10	1	-1E+10	1	-1E+10	1	-1E+10	1
4902549	57	C	03/08/2022	04:58	-131.801	47.550	0	311.20	0	5.2290	0	33.8560	0	26.745	0	308.369	0	100.0	4	32.4	4	-1E+10	1	-1E+10	1	-1E+10	1	-1E+10	1	-1E+10	1	-1E+10	1
4902549	57	C	03/08/2022	04:58	-131.801	47.550	0	312.20	0	5.2180	0	33.8560	0	26.746	0	309.359	0	99.7	4	32.3	4	-1E+10	1	-1E+10	1	-1E+10	1	-1E+10	1	-1E+10	1	-1E+10	1
4902549	57	C	03/08/2022	04:58	-131.801	47.550	0	313.20	0	5.2070	0	33.8560	0	26.747	0	310.349	0	99.4	4	32.2	4	-1E+10	1	-1E+10	1	-1E+10	1	-1E+10	1	-1E+10	1	-1E+10	1
4902549	57	C	03/08/2022	04:58	-131.801	47.550	0	314.20	0	5.1990	0	33.8570	0	26.749	0	311.340	0	99.1	4	32.1	4	-1E+10	1	-1E+10	1	-1E+10	1	-1E+10	1	-1E+10	1	-1E+10	1
4902549	57	C	03/08/2022	04:58	-131.801	47.550	0	315.20	0	5.1940	0	33.8570	0	26.750	0	312.330	0	98.8	4	32.0	4	-1E+10	1	-1E+10	1	-1E+10	1	-1E+10	1	-1E+10	1	-1E+10	1
4902549	57	C	03/08/2022	04:58	-131.801	47.550	0	316.30	0	5.1900	0	33.8570	0	26.750	0	313.419	0	98.5	4	31.9	4	-1E+10	1	-1E+10	1	-1E+10	1	-1E+10	1	-1E+10	1	-1E+10	1
4902549	57	C	03/08/2022	04:58	-131.801	47.550	0	317.30	0	5.1810	0	33.8570	0	26.751	0	314.409	0	98.2	4	31.8	4	-1E+10	1	-1E+10	1	-1E+10	1	-1E+10	1	-1E+10	1	-1E+10	1
4902549	57	C	03/08/2022	04:58	-131.801	47.550	0	318.20	0	5.1790	0	33.8570	0	26.752	0	315.300	0	97.9	4	31.7	4	-1E+10	1	-1E+10	1	-1E+10	1	-1E+10	1	-1E+10	1	-1E+10	1
4902549	57	C	03/08/2022	04:58	-131.801	47.550	0	319.30	0	5.1780	0	33.8600	0	26.754	0	316.389	0	97.5	4	31.6	4	-1E+10	1	-1E+10	1	-1E+10	1	-1E+10	1	-1E+10	1	-1E+10	1
4902549	57	C	03/08/2022	04:58	-131.801	47.550	0	320.20	0	5.1690	0	33.8610	0	26.756	0	317.280	0	97.2	4	31.5	4	-1E+10	1	-1E+10	1	-1E+10	1	-1E+10	1	-1E+10	1	-1E+10	1
4902549	57	C	03/08/2022	04:58	-131.801	47.550	0	321.30	0	5.1670	0	33.8620	0	26.757	0	318.369	0	96.8	4	31.4	4	-1E+10	1	-1E+10	1	-1E+10	1	-1E+10	1	-1E+10	1	-1E+10	1
4902549	57	C	03/08/2022	04:58	-131.801	47.550	0	322.30	0	5.1550	0	33.8630	0	26.759	0	319.360	0	96.5	4	31.2	4	-1E+10	1	-1E+10	1	-1E+10	1	-1E+10	1	-1E+10	1	-1E+10	1
4902549	57	C	03/08/2022	04:58	-131.801	47.550	0	323.30	0	5.1410	0	33.8640	0	26.762	0	320.350	0	96.2	4	31.1	4	-1E+10	1	-1E+10	1	-1E+10	1	-1E+10	1	-1E+10	1	-1E+10	1
4902549	57	C	03/08/2022	04:58	-131.801	47.550	0	324.30	0	5.1310	0	33.8650	0	26.763	0	321.340	0	95.9	4	31.0	4	-1E+10	1	-1E+10	1	-1E+10	1	-1E+10	1	-1E+10	1	-1E+10	1
4902549	57	C	03/08/2022	04:58	-131.801	47.550	0	325.30	0	5.1190	0	33.8630	0	26.763	0	322.330	0	95.7	4	31.0	4	-1E+10	1	-1E+10	1	-1E+10	1	-1E+10	1	-1E+10	1	-1E+10	1
4902549	57	C	03/08/2022	04:58	-131.801	47.550	0	326.30	0	5.1140	0	33.8640	0	26.765	0	323.320	0	95.5	4	30.9	4	-1E+10	1	-1E+10	1	-1E+10	1	-1E+10	1	-1E+10	1	-1E+10	1
4902549	57	C	03/08/2022	04:58	-131.801	47.550	0	327.30	0	5.1120	0	33.8650	0	26.766	0	324.310	0	95.3	4	30.8	4	-1E+10	1	-1E+10	1	-1E+10	1	-1E+10	1	-1E+10	1	-1E+10	1
4902549	57	C	03/08/2022	04:58	-131.801	47.550	0	328.30	0	5.1120	0	33.8650	0	26.766	0	325.300	0	95.0	4	30.7	4	-1E+10	1	-1E+10	1	-1E+10	1	-1E+10	1	-1E+10	1	-1E+10	1
4902549	57	C	03/08/2022	04:58	-131.801	47.550	0	329.30	0	5.1090	0	33.8660	0	26.767	0	326.290	0	94.7	4	30.6	4	-1E+10	1	-1E+10	1	-1E+10	1	-1E+10	1	-1E+10	1	-1E+10	1
4902549	57	C	03/08/2022	04:58	-131.801	47.550	0	330.30	0	5.1070	0	33.8660	0	26.767	0	327.280	0	94.4	4	30.5	4	-1E+10	1	-1E+10	1	-1E+10	1	-1E+10	1	-1E+10	1	-1E+10	1
4902549	57	C	03/08/2022	04:58	-131.801	47.550	0	331.40	0	5.1060	0	33.8650	0	26.766	0	328.369	0	94.0	4	30.4	4	-1E+10	1	-1E+10	1	-1E+10	1	-1E+10	1	-1E+10	1	-1E+10	1
4902549	57	C	03/08/2022	04:58	-131.801	47.550	0	332.40	0	5.1040	0	33.8650	0	26.767	0	329.359	0	93.6	4	30.3	4	-1E+10	1	-1E+10	1	-1E+10	1	-1E+10	1	-1E+10	1	-1E+10	1
4902549	57	C	03/08/2022	04:58	-131.801	47.550	0	333.40	0	5.0960	0	33.8650	0	26.768	0	330.349	0	93.2	4	30.1	4	-1E+10	1	-1E+10	1	-1E+10	1	-1E+10	1	-1E+10	1	-1E+10	1
4902549	57	C	03/08/2022	04:58	-131.801	47.550	0	334.40	0	5.0810	0	33.8660	0	26.770	0	331.339	0	92.8	4	30.0	4	-1E+10	1	-1E+10	1	-1E+10	1	-1E+10	1	-1E+10	1	-1E+10	1
4902549	57	C	03/08/2022	04:58	-131.801	47.550	0	335.40	0	5.0780	0	33.8670	0	26.771	0	332.330	0	92.4	4	29.9	4	-1E+10	1	-1E+10	1	-1E+10	1	-1E+10	1	-1E+10	1	-1E+10	1
4902549	57	C	03/08/2022	04:58	-131.801	47.550	0	336.50	0	5.0780	0	33.8670	0	26.771	0	333.419	0	92.0	4	29.7	4	-1E+10	1	-1E+10	1	-1E+10	1	-1E+10	1	-1E+10	1	-1E+10	1
4902549	57	C	03/08/2022	04:58	-131.801	47.550	0	337.50	0	5.0570	0	33.8690	0	26.775	0	334.409	0	91.7	4	29.6	4	-1E+10	1	-1E+10	1	-1E+10	1	-1E+10	1	-1E+10	1	-1E+10	1
4902549	57	C	03/08/2022	04:58	-131.801	47.550	0	338.50	0	5.0520	0	33.8690	0	26.776	0	335.399	0	91.3	4	29.5	4	-1E+10	1	-1E+10	1	-1E+10	1	-1E+10	1	-1E+10	1	-1E+10	1
4902549	57	C	03/08/2022	04:58	-131.801	47.550	0	339.50	0	5.0470	0	33.8690	0	26.776	0	336.389	0	90.9	4	29.4	4	-1E+10	1	-1E+10	1	-1E+10	1	-1E+10	1	-1E+10	1	-1E+10	1
4902549	57	C	03/08/2022	04:58	-131.801	47.550	0	340.50	0	5.0420	0	33.8690	0	26.777	0	337.379	0	90.4	4	29.2	4	-1E+10	1	-1E+10	1	-1E+10	1	-1E+10	1	-1E+10	1	-1E+10	1
4902549	57	C	03/08/2022	04:58	-131.801	47.550	0	341.50	0	5.0380	0	33.8690	0	26.777	0	338.369	0	90.0	4	29.1	4	-1E+10	1	-1E+10	1	-1E+10	1	-1E+10	1	-1E+10	1	-1E+10	1
4902549	57	C	03/08/2022	04:58	-131.801	47.550	0	342.50	0	5.0270	0	33.8720	0	26.781	0	339.359	0	89.5	4	28.9	4	-1E+10	1	-1E+10	1	-1E+10	1	-1E+10	1	-1E+10	1	-1E+10	1
4902549	57	C	03/08/2022	04:58	-131.801	47.550	0	343.50	0	5.0150	0	33.8720	0	26.782	0	340.349	0	89.1	4	28.8	4	-1E+10	1	-1E+10	1	-1E+10	1	-1E+10	1	-1E+10	1	-1E+10	1
4902549	57	C	03/08/2022	04:58	-131.801	47.550	0	344.50	0	5.0120	0	33.8710	0	26.782	0	341.339	0	88.7	4	28.6	4	-1E+10	1	-1E+10	1	-1E+10	1	-1E+10	1	-1E+10	1	-1E+10	1
4902549	57	C	03/08/2022	04:58	-131.801	47.550	0	345.50	0	5.0120	0	33.8710	0	26.782	0	342.329	0	88.2	4	28.5	4	-1E+10	1	-1E+10	1	-1E+10	1	-1E+10	1	-1E+10	1	-1E+10	1
4902549	57	C	03/08/2022	04:58	-131.801	47.550	0	346.50	0	5.0110	0	33.8710	0	26.782	0	343.319	0	87.6	4	28.3	4	-1E+10	1	-1E+10	1	-1E+10	1	-1E+10	1	-1E+10	1	-1E+10	1
4902549	57	C	03/08/2022	04:58	-131.801	47.550	0	347.50	0	5.0030	0	33.8710	0	26.783	0	344.309	0	87.0	4	28.1	4	-1E+10	1	-1E+10	1	-1E+10	1	-1E+10	1	-1E+10	1	-1E+10	1
4902549	57	C	03/08/2022	04:58	-131.801	47.550	0	348.50	0	4.9840	0	33.8740	0	26.788	0	345.299	0	86.5	4	27.9	4	-1E+10	1	-1E+10	1	-1E+10	1	-1E+10	1	-1E+10	1	-1E+10	1
4902549	57	C	03/08/2022	04:58	-131.801	47.550	0	349.50	0	4.9790	0	33.8760	0	26.790	0	346.289	0	86.0	4	27.7	4	-1E+10	1	-1E+10	1	-1E+10	1	-1E+10	1	-1E+10	1	-1E+10	1
4902549	57	C	03/08/2022	04:58	-131.801	47.550	0	352.50	0	4.9320	0	33.8780	0	26.797	0	349.259	0	84.8	4	27.3	4	-1E+10	1	-1E+10	1	-1E+10	1	-1E+10	1	-1E+10	1	-1E+10	1
4902549	57	C	03/08/2022	04:58	-131.801	47.550	0	357.50	0	4.8970	0	33.8790	0	26.801	0	354.208	0	82.4	4	26.5	4	-1E+10	1	-1E+10	1	-1E+10	1	-1E+10	1	-1E+10	1	-1E+10	1
4902549	57	C	03/08/2022	04:58	-131.801	47.550	0	362.90	0	4.8460	0	33.8850	0	26.812	0	359.554	0	79.5	4	25.6	4	-1E+10	1	-1E+10	1	-1E+10	1	-1E+10	1	-1E+10	1	-1E+10	1
4902549	57	C	03/08/2022	04:58	-131.801	47.550	0	368.30	0	4.7960	0	33.8910	0	26.822	0	364.899	0	76.7	4	24.6	4	-1E+10	1	-1E+10	1	-1E+10	1	-1E+10	1	-1E+10	1	-1E+10	1
4902549	57	C	03/08/2022	04:58	-131.801	47.550	0	373.30	0	4.7740	0	33.8970	0	26.829	0	369.849	0	74.0	4	23.8	4	-1E+10	1	-1E+10	1	-1E+10	1	-1E+10	1	-1E+10	1	-1E+10	1
4902549	57	C	03/08/2022	04:58	-131.801	47.550	0	378.20	0	4.7060	0	33.9050	0	26.843	0	374.699	0	71.7	4	23.0	4	-1E+10	1	-1E+10	1	-1E+10	1	-1E+10	1	-1E+10	1	-1E+10	1
4902549	57	C	03/08/2022	04:58	-131.801	47.550	0	383.10	0	4.6850	0	33.9100	0	26.850	0	379.549	0	69.7	4	22.3	4	-1E+10	1	-1E+10	1	-1E+10	1	-1E+10	1	-1E+10	1	-1E+10	1
4902549	57	C	03/08/2022	04:58	-131.801	47.550	0	388.00	0	4.6490	0	33.9180	0	26.860	0	384.399	0	67.1	4	21.5	4	-1E+10	1	-1E+10	1	-1E+10	1	-1E+10	1	-1E+10	1	-1E+10	1
4902549	57	C	03/08/2022	04:58	-131.801	47.550	0	392.80	0	4.6050	0	33.9240	0	26.870	0	389.150	0	65.3	4	20.9	4	-1E+10	1	-1E+10	1	-1E+10	1	-1E+10	1	-1E+10	1	-1E+10	1
4902549	57	C	03/08/2022	04:58	-131.801	47.550	0	397.60	0	4.5910	0	33.9290	0	26.875	0	393.901	0	63.6	4	20.3	4	-1E+10	1	-1E+10	1	-1E+10	1	-1E+10	1	-1E+10	1	-1E+10	1
4902549	57	C	03/08/2022	04:58	-131.801	47.550	0	402.90	0	4.5590	0	33.9360	0	26.884	0	399.147	0	61.5	4	19.6	4	-1E+10	1	-1E+10	1	-1E+10	1	-1E+10	1	-1E+10	1	-1E+10	1
4902549	57	C	03/08/2022	04:58	-131.801	47.550	0	408.20	0	4.5480	0	33.9400	0	26.889	0	404.392	0	59.3	4	19.0	4	-1E+10	1	-1E+10	1	-1E+10	1	-1E+10	1	-1E+10	1	-1E+10	1
4902549	57	C	03/08/2022	04:58	-131.801	47.550	0	413.10	0	4.5240	0	33.9480	0	26.898	0	409.242	0	56.8	4	18.1	4	-1E+10	1	-1E+10	1	-1E+10	1	-1E+10	1	-1E+10	1	-1E+10	1
4902549	57	C	03/08/2022	04:58	-131.801	47.550	0	417.90	0	4.4910	0	33.9610	0	26.912	0	413.992	0	55.2	4	17.6	4	-1E+10	1	-1E+10	1	-1E+10	1	-1E+10	1	-1E+10	1	-1E+10	1
4902549	57	C	03/08/2022	04:58	-131.801	47.550	0	422.60	0	4.4800	0	33.9640	0	26.915	0	418.643	0	53.5	4	17.0	4	-1E+10	1	-1E+10	1	-1E+10	1	-1E+10	1	-1E+10	1	-1E+10	1
4902549	57	C	03/08/2022	04:58	-131.801	47.550	0	427.50	0	4.4570	0	33.9730	0	26.925	0	423.492	0	51.7	4	16.5	4	-1E+10	1	-1E+10	1	-1E+10	1	-1E+10	1	-1E+10	1	-1E+10	1
4902549	57	C	03/08/2022	04:58	-131.801	47.550	0	432.40	0	4.4260	0	33.9830	0	26.936	0	428.341	0	50.1	4	16.0	4	-1E+10	1	-1E+10	1	-1E+10	1	-1E+10	1	-1E+10	1	-1E+10	1
4902549	57	C	03/08/2022	04:58	-131.801	47.550	0	437.40	0	4.4140	0	33.9860	0	26.940	0	433.289	0	49.5	4	15.8	4	-1E+10	1	-1E+10	1	-1E+10	1	-1E+10	1	-1E+10	1	-1E+10	1
4902549	57	C	03/08/2022	04:58	-131.801	47.550	0	442.50	0	4.4100	0	33.9870	0	26.941	0	438.336	0	48.7	4	15.5	4	-1E+10	1	-1E+10	1	-1E+10	1	-1E+10	1	-1E+10	1	-1E+10	1
4902549	57	C	03/08/2022	04:58	-131.801	47.550	0	447.50	0	4.4040	0	33.9890	0	26.943	0	443.284	0	47.3	4	15.1	4	-1E+10	1	-1E+10	1	-1E+10	1	-1E+10	1	-1E+10	1	-1E+10	1
4902549	57	C	03/08/2022	04:58	-131.801	47.550	0	452.60	0	4.3830	0	33.9960	0	26.951	0	448.330	0	45.5	4	14.5	4	-1E+10	1	-1E+10	1	-1E+10	1	-1E+10	1	-1E+10	1	-1E+10	1
4902549	57	C	03/08/2022	04:58	-131.801	47.550	0	457.80	0	4.3580	0	34.0040	0	26.960	0	453.475	0	43.8	4	13.9	4	-1E+10	1	-1E+10	1	-1E+10	1	-1E+10	1	-1E+10	1	-1E+10	1
4902549	57	C	03/08/2022	04:58	-131.801	47.550	0	463.00	0	4.3340	0	34.0120	0	26.969	0	458.620	0	42.5	4	13.5	4	-1E+10	1	-1E+10	1	-1E+10	1	-1E+10	1	-1E+10	1	-1E+10	1
4902549	57	C	03/08/2022	04:58	-131.801	47.550	0	468.30	0	4.3160	0	34.0190	0	26.977	0	463.864	0	41.5	4	13.2	4	-1E+10	1	-1E+10	1	-1E+10	1	-1E+10	1	-1E+10	1	-1E+10	1
4902549	57	C	03/08/2022	04:58	-131.801	47.550	0	473.30	0	4.3100	0	34.0210	0	26.979	0	468.811	0	40.6	4	12.9	4	-1E+10	1	-1E+10	1	-1E+10	1	-1E+10	1	-1E+10	1	-1E+10	1
4902549	57	C	03/08/2022	04:58	-131.801	47.550	0	478.00	0	4.3020	0	34.0240	0	26.982	0	473.461	0	39.7	4	12.6	4	-1E+10	1	-1E+10	1	-1E+10	1	-1E+10	1	-1E+10	1	-1E+10	1
4902549	57	C	03/08/2022	04:58	-131.801	47.550	0	482.80	0	4.2900	0	34.0280	0	26.987	0	478.210	0	38.6	4	12.2	4	-1E+10	1	-1E+10	1	-1E+10	1	-1E+10	1	-1E+10	1	-1E+10	1
4902549	57	C	03/08/2022	04:58	-131.801	47.550	0	487.80	0	4.2740	0	34.0340	0	26.993	0	483.157	0	37.6	4	11.9	4	-1E+10	1	-1E+10	1	-1E+10	1	-1E+10	1	-1E+10	1	-1E+10	1
4902549	57	C	03/08/2022	04:58	-131.801	47.550	0	493.00	0	4.2620	0	34.0380	0	26.998	0	488.301	0	36.5	4	11.6	4	-1E+10	1	-1E+10	1	-1E+10	1	-1E+10	1	-1E+10	1	-1E+10	1
4902549	57	C	03/08/2022	04:58	-131.801	47.550	0	498.30	0	4.2480	0	34.0420	0	27.002	0	493.545	0	35.0	4	11.1	4	-1E+10	1	-1E+10	1	-1E+10	1	-1E+10	1	-1E+10	1	-1E+10	1
4902549	57	C	03/08/2022	04:58	-131.801	47.550	0	503.30	0	4.2260	0	34.0500	0	27.011	0	498.491	0	33.7	4	10.7	4	-1E+10	1	-1E+10	1	-1E+10	1	-1E+10	1	-1E+10	1	-1E+10	1
4902549	57	C	03/08/2022	04:58	-131.801	47.550	0	508.30	0	4.2060	0	34.0590	0	27.020	0	503.437	0	32.8	4	10.4	4	-1E+10	1	-1E+10	1	-1E+10	1	-1E+10	1	-1E+10	1	-1E+10	1
4902549	57	C	03/08/2022	04:58	-131.801	47.550	0	513.00	0	4.1960	0	34.0610	0	27.023	0	508.086	0	32.1	4	10.2	4	-1E+10	1	-1E+10	1	-1E+10	1	-1E+10	1	-1E+10	1	-1E+10	1
4902549	57	C	03/08/2022	04:58	-131.801	47.550	0	517.80	0	4.1880	0	34.0650	0	27.027	0	512.834	0	31.2	4	9.9	4	-1E+10	1	-1E+10	1	-1E+10	1	-1E+10	1	-1E+10	1	-1E+10	1
4902549	57	C	03/08/2022	04:58	-131.801	47.550	0	523.00	0	4.1680	0	34.0710	0	27.034	0	517.978	0	30.3	4	9.6	4	-1E+10	1	-1E+10	1	-1E+10	1	-1E+10	1	-1E+10	1	-1E+10	1
4902549	57	C	03/08/2022	04:58	-131.801	47.550	0	527.90	0	4.1610	0	34.0750	0	27.038	0	522.825	0	29.4	4	9.3	4	-1E+10	1	-1E+10	1	-1E+10	1	-1E+10	1	-1E+10	1	-1E+10	1
4902549	57	C	03/08/2022	04:58	-131.801	47.550	0	532.90	0	4.1410	0	34.0820	0	27.045	0	527.770	0	28.6	4	9.0	4	-1E+10	1	-1E+10	1	-1E+10	1	-1E+10	1	-1E+10	1	-1E+10	1
4902549	57	C	03/08/2022	04:58	-131.801	47.550	0	537.90	0	4.1280	0	34.0870	0	27.051	0	532.716	0	28.3	4	8.9	4	-1E+10	1	-1E+10	1	-1E+10	1	-1E+10	1	-1E+10	1	-1E+10	1
4902549	57	C	03/08/2022	04:58	-131.801	47.550	0	543.00	0	4.1220	0	34.0890	0	27.053	0	537.760	0	28.1	4	8.9	4	-1E+10	1	-1E+10	1	-1E+10	1	-1E+10	1	-1E+10	1	-1E+10	1
4902549	57	C	03/08/2022	04:58	-131.801	47.550	0	548.10	0	4.1210	0	34.0890	0	27.053	0	542.804	0	27.9	4	8.8	4	-1E+10	1	-1E+10	1	-1E+10	1	-1E+10	1	-1E+10	1	-1E+10	1
4902549	57	C	03/08/2022	04:58	-131.801	47.550	0	552.70	0	4.1190	0	34.0900	0	27.054	0	547.354	0	27.7	4	8.8	4	-1E+10	1	-1E+10	1	-1E+10	1	-1E+10	1	-1E+10	1	-1E+10	1
4902549	57	C	03/08/2022	04:58	-131.801	47.550	0	557.80	0	4.1160	0	34.0910	0	27.055	0	552.398	0	27.5	4	8.7	4	-1E+10	1	-1E+10	1	-1E+10	1	-1E+10	1	-1E+10	1	-1E+10	1
4902549	57	C	03/08/2022	04:58	-131.801	47.550	0	562.90	0	4.1160	0	34.0920	0	27.056	0	557.442	0	27.3	4	8.6	4	-1E+10	1	-1E+10	1	-1E+10	1	-1E+10	1	-1E+10	1	-1E+10	1
4902549	57	C	03/08/2022	04:58	-131.801	47.550	0	567.90	0	4.1150	0	34.0920	0	27.056	0	562.386	0	26.8	4	8.5	4	-1E+10	1	-1E+10	1	-1E+10	1	-1E+10	1	-1E+10	1	-1E+10	1
4902549	57	C	03/08/2022	04:58	-131.801	47.550	0	573.00	0	4.1080	0	34.0950	0	27.060	0	567.430	0	26.2	4	8.3	4	-1E+10	1	-1E+10	1	-1E+10	1	-1E+10	1	-1E+10	1	-1E+10	1
4902549	57	C	03/08/2022	04:58	-131.801	47.550	0	578.00	0	4.0940	0	34.0990	0	27.064	0	572.374	0	25.7	4	8.1	4	-1E+10	1	-1E+10	1	-1E+10	1	-1E+10	1	-1E+10	1	-1E+10	1
4902549	57	C	03/08/2022	04:58	-131.801	47.550	0	583.10	0	4.0850	0	34.1020	0	27.068	0	577.418	0	25.2	4	8.0	4	-1E+10	1	-1E+10	1	-1E+10	1	-1E+10	1	-1E+10	1	-1E+10	1
4902549	57	C	03/08/2022	04:58	-131.801	47.550	0	588.00	0	4.0760	0	34.1060	0	27.072	0	582.263	0	24.7	4	7.8	4	-1E+10	1	-1E+10	1	-1E+10	1	-1E+10	1	-1E+10	1	-1E+10	1
4902549	57	C	03/08/2022	04:58	-131.801	47.550	0	593.10	0	4.0700	0	34.1090	0	27.075	0	587.306	0	24.2	4	7.7	4	-1E+10	1	-1E+10	1	-1E+10	1	-1E+10	1	-1E+10	1	-1E+10	1
4902549	57	C	03/08/2022	04:58	-131.801	47.550	0	597.70	0	4.0640	0	34.1110	0	27.077	0	591.855	0	23.7	4	7.5	4	-1E+10	1	-1E+10	1	-1E+10	1	-1E+10	1	-1E+10	1	-1E+10	1
4902549	57	C	03/08/2022	04:58	-131.801	47.550	0	602.60	0	4.0510	0	34.1150	0	27.081	0	596.700	0	22.9	4	7.2	4	-1E+10	1	-1E+10	1	-1E+10	1	-1E+10	1	-1E+10	1	-1E+10	1
4902549	57	C	03/08/2022	04:58	-131.801	47.550	0	607.90	0	4.0360	0	34.1220	0	27.089	0	601.940	0	22.0	4	7.0	4	-1E+10	1	-1E+10	1	-1E+10	1	-1E+10	1	-1E+10	1	-1E+10	1
4902549	57	C	03/08/2022	04:58	-131.801	47.550	0	613.20	0	4.0260	0	34.1260	0	27.093	0	607.180	0	21.4	4	6.8	4	-1E+10	1	-1E+10	1	-1E+10	1	-1E+10	1	-1E+10	1	-1E+10	1
4902549	57	C	03/08/2022	04:58	-131.801	47.550	0	618.20	0	4.0220	0	34.1300	0	27.096	0	612.124	0	21.0	4	6.6	4	-1E+10	1	-1E+10	1	-1E+10	1	-1E+10	1	-1E+10	1	-1E+10	1
4902549	57	C	03/08/2022	04:58	-131.801	47.550	0	623.00	0	4.0120	0	34.1330	0	27.100	0	616.870	0	20.7	4	6.5	4	-1E+10	1	-1E+10	1	-1E+10	1	-1E+10	1	-1E+10	1	-1E+10	1
4902549	57	C	03/08/2022	04:58	-131.801	47.550	0	627.90	0	4.0020	0	34.1350	0	27.103	0	621.714	0	20.4	4	6.4	4	-1E+10	1	-1E+10	1	-1E+10	1	-1E+10	1	-1E+10	1	-1E+10	1
4902549	57	C	03/08/2022	04:58	-131.801	47.550	0	632.70	0	3.9950	0	34.1370	0	27.105	0	626.460	0	19.9	4	6.3	4	-1E+10	1	-1E+10	1	-1E+10	1	-1E+10	1	-1E+10	1	-1E+10	1
4902549	57	C	03/08/2022	04:58	-131.801	47.550	0	637.60	0	3.9870	0	34.1390	0	27.107	0	631.304	0	19.3	4	6.1	4	-1E+10	1	-1E+10	1	-1E+10	1	-1E+10	1	-1E+10	1	-1E+10	1
4902549	57	C	03/08/2022	04:58	-131.801	47.550	0	642.60	0	3.9750	0	34.1450	0	27.113	0	636.247	0	18.4	4	5.8	4	-1E+10	1	-1E+10	1	-1E+10	1	-1E+10	1	-1E+10	1	-1E+10	1
4902549	57	C	03/08/2022	04:58	-131.801	47.550	0	647.80	0	3.9640	0	34.1500	0	27.119	0	641.387	0	17.8	4	5.6	4	-1E+10	1	-1E+10	1	-1E+10	1	-1E+10	1	-1E+10	1	-1E+10	1
4902549	57	C	03/08/2022	04:58	-131.801	47.550	0	653.10	0	3.9450	0	34.1560	0	27.125	0	646.627	0	17.3	4	5.4	4	-1E+10	1	-1E+10	1	-1E+10	1	-1E+10	1	-1E+10	1	-1E+10	1
4902549	57	C	03/08/2022	04:58	-131.801	47.550	0	657.90	0	3.9290	0	34.1610	0	27.131	0	651.372	0	17.0	4	5.4	4	-1E+10	1	-1E+10	1	-1E+10	1	-1E+10	1	-1E+10	1	-1E+10	1
4902549	57	C	03/08/2022	04:58	-131.801	47.550	0	662.80	0	3.9190	0	34.1630	0	27.134	0	656.215	0	16.9	4	5.3	4	-1E+10	1	-1E+10	1	-1E+10	1	-1E+10	1	-1E+10	1	-1E+10	1
4902549	57	C	03/08/2022	04:58	-131.801	47.550	0	668.10	0	3.9150	0	34.1650	0	27.136	0	661.454	0	16.6	4	5.2	4	-1E+10	1	-1E+10	1	-1E+10	1	-1E+10	1	-1E+10	1	-1E+10	1
4902549	57	C	03/08/2022	04:58	-131.801	47.550	0	672.80	0	3.9110	0	34.1650	0	27.136	0	666.100	0	16.3	4	5.1	4	-1E+10	1	-1E+10	1	-1E+10	1	-1E+10	1	-1E+10	1	-1E+10	1
4902549	57	C	03/08/2022	04:58	-131.801	47.550	0	677.60	0	3.8900	0	34.1710	0	27.143	0	670.845	0	15.8	4	5.0	4	-1E+10	1	-1E+10	1	-1E+10	1	-1E+10	1	-1E+10	1	-1E+10	1
4902549	57	C	03/08/2022	04:58	-131.801	47.550	0	683.00	0	3.8820	0	34.1750	0	27.147	0	676.182	0	15.5	4	4.9	4	-1E+10	1	-1E+10	1	-1E+10	1	-1E+10	1	-1E+10	1	-1E+10	1
4902549	57	C	03/08/2022	04:58	-131.801	47.550	0	687.90	0	3.8790	0	34.1760	0	27.148	0	681.025	0	15.1	4	4.8	4	-1E+10	1	-1E+10	1	-1E+10	1	-1E+10	1	-1E+10	1	-1E+10	1
4902549	57	C	03/08/2022	04:58	-131.801	47.550	0	692.70	0	3.8680	0	34.1800	0	27.152	0	685.769	0	14.6	4	4.6	4	-1E+10	1	-1E+10	1	-1E+10	1	-1E+10	1	-1E+10	1	-1E+10	1
4902549	57	C	03/08/2022	04:58	-131.801	47.550	0	697.80	0	3.8500	0	34.1860	0	27.159	0	690.810	0	14.3	4	4.5	4	-1E+10	1	-1E+10	1	-1E+10	1	-1E+10	1	-1E+10	1	-1E+10	1
4902549	57	C	03/08/2022	04:58	-131.801	47.550	0	703.00	0	3.8370	0	34.1880	0	27.162	0	695.949	0	14.2	4	4.5	4	-1E+10	1	-1E+10	1	-1E+10	1	-1E+10	1	-1E+10	1	-1E+10	1
4902549	57	C	03/08/2022	04:58	-131.801	47.550	0	707.80	0	3.8290	0	34.1900	0	27.164	0	700.693	0	13.9	4	4.4	4	-1E+10	1	-1E+10	1	-1E+10	1	-1E+10	1	-1E+10	1	-1E+10	1
4902549	57	C	03/08/2022	04:58	-131.801	47.550	0	712.70	0	3.8060	0	34.1950	0	27.171	0	705.535	0	13.7	4	4.3	4	-1E+10	1	-1E+10	1	-1E+10	1	-1E+10	1	-1E+10	1	-1E+10	1
4902549	57	C	03/08/2022	04:58	-131.801	47.550	0	718.10	0	3.7930	0	34.1980	0	27.174	0	710.872	0	13.3	4	4.2	4	-1E+10	1	-1E+10	1	-1E+10	1	-1E+10	1	-1E+10	1	-1E+10	1
4902549	57	C	03/08/2022	04:58	-131.801	47.550	0	723.10	0	3.7640	0	34.2050	0	27.183	0	715.813	0	12.9	4	4.0	4	-1E+10	1	-1E+10	1	-1E+10	1	-1E+10	1	-1E+10	1	-1E+10	1
4902549	57	C	03/08/2022	04:58	-131.801	47.550	0	727.70	0	3.7410	0	34.2100	0	27.189	0	720.359	0	12.6	4	4.0	4	-1E+10	1	-1E+10	1	-1E+10	1	-1E+10	1	-1E+10	1	-1E+10	1
4902549	57	C	03/08/2022	04:58	-131.801	47.550	0	732.70	0	3.7280	0	34.2130	0	27.193	0	725.299	0	12.3	4	3.9	4	-1E+10	1	-1E+10	1	-1E+10	1	-1E+10	1	-1E+10	1	-1E+10	1
4902549	57	C	03/08/2022	04:58	-131.801	47.550	0	737.80	0	3.7180	0	34.2170	0	27.197	0	730.339	0	12.0	4	3.8	4	-1E+10	1	-1E+10	1	-1E+10	1	-1E+10	1	-1E+10	1	-1E+10	1
4902549	57	C	03/08/2022	04:58	-131.801	47.550	0	742.90	0	3.7030	0	34.2210	0	27.202	0	735.378	0	11.8	4	3.7	4	-1E+10	1	-1E+10	1	-1E+10	1	-1E+10	1	-1E+10	1	-1E+10	1
4902549	57	C	03/08/2022	04:58	-131.801	47.550	0	748.10	0	3.6970	0	34.2230	0	27.204	0	740.517	0	11.6	4	3.6	4	-1E+10	1	-1E+10	1	-1E+10	1	-1E+10	1	-1E+10	1	-1E+10	1
4902549	57	C	03/08/2022	04:58	-131.801	47.550	0	752.90	0	3.6930	0	34.2240	0	27.205	0	745.259	0	11.4	4	3.6	4	-1E+10	1	-1E+10	1	-1E+10	1	-1E+10	1	-1E+10	1	-1E+10	1
4902549	57	C	03/08/2022	04:58	-131.801	47.550	0	757.70	0	3.6800	0	34.2280	0	27.210	0	750.002	0	11.1	4	3.5	4	-1E+10	1	-1E+10	1	-1E+10	1	-1E+10	1	-1E+10	1	-1E+10	1
4902549	57	C	03/08/2022	04:58	-131.801	47.550	0	762.70	0	3.6680	0	34.2310	0	27.213	0	754.942	0	10.9	4	3.4	4	-1E+10	1	-1E+10	1	-1E+10	1	-1E+10	1	-1E+10	1	-1E+10	1
4902549	57	C	03/08/2022	04:58	-131.801	47.550	0	767.70	0	3.6600	0	34.2330	0	27.216	0	759.882	0	10.7	4	3.4	4	-1E+10	1	-1E+10	1	-1E+10	1	-1E+10	1	-1E+10	1	-1E+10	1
4902549	57	C	03/08/2022	04:58	-131.801	47.550	0	772.90	0	3.6500	0	34.2370	0	27.220	0	765.020	0	10.5	4	3.3	4	-1E+10	1	-1E+10	1	-1E+10	1	-1E+10	1	-1E+10	1	-1E+10	1
4902549	57	C	03/08/2022	04:58	-131.801	47.550	0	778.20	0	3.6390	0	34.2400	0	27.223	0	770.256	0	10.2	4	3.2	4	-1E+10	1	-1E+10	1	-1E+10	1	-1E+10	1	-1E+10	1	-1E+10	1
4902549	57	C	03/08/2022	04:58	-131.801	47.550	0	783.30	0	3.6260	0	34.2430	0	27.227	0	775.294	0	10.1	4	3.2	4	-1E+10	1	-1E+10	1	-1E+10	1	-1E+10	1	-1E+10	1	-1E+10	1
4902549	57	C	03/08/2022	04:58	-131.801	47.550	0	787.90	0	3.6180	0	34.2460	0	27.230	0	779.839	0	9.9	4	3.1	4	-1E+10	1	-1E+10	1	-1E+10	1	-1E+10	1	-1E+10	1	-1E+10	1
4902549	57	C	03/08/2022	04:58	-131.801	47.550	0	792.80	0	3.6130	0	34.2470	0	27.232	0	784.679	0	9.7	4	3.0	4	-1E+10	1	-1E+10	1	-1E+10	1	-1E+10	1	-1E+10	1	-1E+10	1
4902549	57	C	03/08/2022	04:58	-131.801	47.550	0	797.80	0	3.5980	0	34.2520	0	27.237	0	789.619	0	9.5	4	3.0	4	-1E+10	1	-1E+10	1	-1E+10	1	-1E+10	1	-1E+10	1	-1E+10	1
4902549	57	C	03/08/2022	04:58	-131.801	47.550	0	802.80	0	3.5850	0	34.2550	0	27.241	0	794.558	0	9.4	4	2.9	4	-1E+10	1	-1E+10	1	-1E+10	1	-1E+10	1	-1E+10	1	-1E+10	1
4902549	57	C	03/08/2022	04:58	-131.801	47.550	0	808.00	0	3.5790	0	34.2560	0	27.242	0	799.695	0	9.3	4	2.9	4	-1E+10	1	-1E+10	1	-1E+10	1	-1E+10	1	-1E+10	1	-1E+10	1
4902549	57	C	03/08/2022	04:58	-131.801	47.550	0	812.80	0	3.5710	0	34.2590	0	27.245	0	804.436	0	9.3	4	2.9	4	-1E+10	1	-1E+10	1	-1E+10	1	-1E+10	1	-1E+10	1	-1E+10	1
4902549	57	C	03/08/2022	04:58	-131.801	47.550	0	817.60	0	3.5670	0	34.2590	0	27.246	0	809.177	0	9.2	4	2.9	4	-1E+10	1	-1E+10	1	-1E+10	1	-1E+10	1	-1E+10	1	-1E+10	1
4902549	57	C	03/08/2022	04:58	-131.801	47.550	0	822.90	0	3.5610	0	34.2610	0	27.248	0	814.413	0	9.1	4	2.9	4	-1E+10	1	-1E+10	1	-1E+10	1	-1E+10	1	-1E+10	1	-1E+10	1
4902549	57	C	03/08/2022	04:58	-131.801	47.550	0	828.10	0	3.5550	0	34.2620	0	27.249	0	819.549	0	9.1	4	2.8	4	-1E+10	1	-1E+10	1	-1E+10	1	-1E+10	1	-1E+10	1	-1E+10	1
4902549	57	C	03/08/2022	04:58	-131.801	47.550	0	832.80	0	3.5450	0	34.2650	0	27.253	0	824.191	0	9.0	4	2.8	4	-1E+10	1	-1E+10	1	-1E+10	1	-1E+10	1	-1E+10	1	-1E+10	1
4902549	57	C	03/08/2022	04:58	-131.801	47.550	0	837.60	0	3.5370	0	34.2670	0	27.255	0	828.932	0	8.9	4	2.8	4	-1E+10	1	-1E+10	1	-1E+10	1	-1E+10	1	-1E+10	1	-1E+10	1
4902549	57	C	03/08/2022	04:58	-131.801	47.550	0	842.80	0	3.5230	0	34.2700	0	27.259	0	834.068	0	8.8	4	2.8	4	-1E+10	1	-1E+10	1	-1E+10	1	-1E+10	1	-1E+10	1	-1E+10	1
4902549	57	C	03/08/2022	04:58	-131.801	47.550	0	848.00	0	3.5210	0	34.2710	0	27.260	0	839.203	0	8.8	4	2.7	4	-1E+10	1	-1E+10	1	-1E+10	1	-1E+10	1	-1E+10	1	-1E+10	1
4902549	57	C	03/08/2022	04:58	-131.801	47.550	0	853.10	0	3.5070	0	34.2740	0	27.264	0	844.240	0	8.7	4	2.7	4	-1E+10	1	-1E+10	1	-1E+10	1	-1E+10	1	-1E+10	1	-1E+10	1
4902549	57	C	03/08/2022	04:58	-131.801	47.550	0	858.20	0	3.4980	0	34.2760	0	27.266	0	849.277	0	8.6	4	2.7	4	-1E+10	1	-1E+10	1	-1E+10	1	-1E+10	1	-1E+10	1	-1E+10	1
4902549	57	C	03/08/2022	04:58	-131.801	47.550	0	863.20	0	3.4870	0	34.2790	0	27.270	0	854.215	0	8.6	4	2.7	4	-1E+10	1	-1E+10	1	-1E+10	1	-1E+10	1	-1E+10	1	-1E+10	1
4902549	57	C	03/08/2022	04:58	-131.801	47.550	0	868.20	0	3.4720	0	34.2830	0	27.274	0	859.152	0	8.5	4	2.6	4	-1E+10	1	-1E+10	1	-1E+10	1	-1E+10	1	-1E+10	1	-1E+10	1
4902549	57	C	03/08/2022	04:58	-131.801	47.550	0	873.20	0	3.4620	0	34.2850	0	27.277	0	864.090	0	8.4	4	2.6	4	-1E+10	1	-1E+10	1	-1E+10	1	-1E+10	1	-1E+10	1	-1E+10	1
4902549	57	C	03/08/2022	04:58	-131.801	47.550	0	878.10	0	3.4540	0	34.2880	0	27.280	0	868.928	0	8.3	4	2.6	4	-1E+10	1	-1E+10	1	-1E+10	1	-1E+10	1	-1E+10	1	-1E+10	1
4902549	57	C	03/08/2022	04:58	-131.801	47.550	0	883.00	0	3.4420	0	34.2910	0	27.284	0	873.767	0	8.2	4	2.6	4	-1E+10	1	-1E+10	1	-1E+10	1	-1E+10	1	-1E+10	1	-1E+10	1
4902549	57	C	03/08/2022	04:58	-131.801	47.550	0	888.00	0	3.4340	0	34.2930	0	27.286	0	878.704	0	8.1	4	2.5	4	-1E+10	1	-1E+10	1	-1E+10	1	-1E+10	1	-1E+10	1	-1E+10	1
4902549	57	C	03/08/2022	04:58	-131.801	47.550	0	893.00	0	3.4280	0	34.2950	0	27.288	0	883.641	0	8.1	4	2.5	4	-1E+10	1	-1E+10	1	-1E+10	1	-1E+10	1	-1E+10	1	-1E+10	1
4902549	57	C	03/08/2022	04:58	-131.801	47.550	0	898.00	0	3.4190	0	34.2970	0	27.291	0	888.578	0	8.0	4	2.5	4	-1E+10	1	-1E+10	1	-1E+10	1	-1E+10	1	-1E+10	1	-1E+10	1
4902549	57	C	03/08/2022	04:58	-131.801	47.550	0	903.10	0	3.4120	0	34.2990	0	27.293	0	893.614	0	7.9	4	2.5	4	-1E+10	1	-1E+10	1	-1E+10	1	-1E+10	1	-1E+10	1	-1E+10	1
4902549	57	C	03/08/2022	04:58	-131.801	47.550	0	908.10	0	3.4000	0	34.3020	0	27.297	0	898.551	0	7.8	4	2.4	4	-1E+10	1	-1E+10	1	-1E+10	1	-1E+10	1	-1E+10	1	-1E+10	1
4902549	57	C	03/08/2022	04:58	-131.801	47.550	0	912.90	0	3.3890	0	34.3040	0	27.299	0	903.290	0	7.7	4	2.4	4	-1E+10	1	-1E+10	1	-1E+10	1	-1E+10	1	-1E+10	1	-1E+10	1
4902549	57	C	03/08/2022	04:58	-131.801	47.550	0	917.70	0	3.3740	0	34.3080	0	27.304	0	908.029	0	7.6	4	2.4	4	-1E+10	1	-1E+10	1	-1E+10	1	-1E+10	1	-1E+10	1	-1E+10	1
4902549	57	C	03/08/2022	04:58	-131.801	47.550	0	923.10	0	3.3620	0	34.3120	0	27.308	0	913.360	0	7.4	4	2.3	4	-1E+10	1	-1E+10	1	-1E+10	1	-1E+10	1	-1E+10	1	-1E+10	1
4902549	57	C	03/08/2022	04:58	-131.801	47.550	0	928.10	0	3.3450	0	34.3160	0	27.313	0	918.297	0	7.4	4	2.3	4	-1E+10	1	-1E+10	1	-1E+10	1	-1E+10	1	-1E+10	1	-1E+10	1
4902549	57	C	03/08/2022	04:58	-131.801	47.550	0	932.70	0	3.3390	0	34.3170	0	27.315	0	922.838	0	7.3	4	2.3	4	-1E+10	1	-1E+10	1	-1E+10	1	-1E+10	1	-1E+10	1	-1E+10	1
4902549	57	C	03/08/2022	04:58	-131.801	47.550	0	937.80	0	3.3200	0	34.3220	0	27.320	0	927.873	0	7.3	4	2.3	4	-1E+10	1	-1E+10	1	-1E+10	1	-1E+10	1	-1E+10	1	-1E+10	1
4902549	57	C	03/08/2022	04:58	-131.801	47.550	0	942.90	0	3.3100	0	34.3250	0	27.324	0	932.907	0	7.2	4	2.2	4	-1E+10	1	-1E+10	1	-1E+10	1	-1E+10	1	-1E+10	1	-1E+10	1
4902549	57	C	03/08/2022	04:58	-131.801	47.550	0	947.80	0	3.3010	0	34.3260	0	27.325	0	937.744	0	7.2	4	2.2	4	-1E+10	1	-1E+10	1	-1E+10	1	-1E+10	1	-1E+10	1	-1E+10	1
4902549	57	C	03/08/2022	04:58	-131.801	47.550	0	952.60	0	3.2920	0	34.3290	0	27.329	0	942.483	0	7.2	4	2.2	4	-1E+10	1	-1E+10	1	-1E+10	1	-1E+10	1	-1E+10	1	-1E+10	1
4902549	57	C	03/08/2022	04:58	-131.801	47.550	0	957.60	0	3.2880	0	34.3300	0	27.330	0	947.418	0	7.1	4	2.2	4	-1E+10	1	-1E+10	1	-1E+10	1	-1E+10	1	-1E+10	1	-1E+10	1
4902549	57	C	03/08/2022	04:58	-131.801	47.550	0	962.70	0	3.2830	0	34.3320	0	27.332	0	952.452	0	7.0	4	2.2	4	-1E+10	1	-1E+10	1	-1E+10	1	-1E+10	1	-1E+10	1	-1E+10	1
4902549	57	C	03/08/2022	04:58	-131.801	47.550	0	967.90	0	3.2680	0	34.3360	0	27.337	0	957.585	0	7.0	4	2.2	4	-1E+10	1	-1E+10	1	-1E+10	1	-1E+10	1	-1E+10	1	-1E+10	1
4902549	57	C	03/08/2022	04:58	-131.801	47.550	0	973.20	0	3.2610	0	34.3390	0	27.340	0	962.817	0	6.9	4	2.2	4	-1E+10	1	-1E+10	1	-1E+10	1	-1E+10	1	-1E+10	1	-1E+10	1
4902549	57	C	03/08/2022	04:58	-131.801	47.550	0	978.00	0	3.2530	0	34.3420	0	27.343	0	967.554	0	6.8	4	2.1	4	-1E+10	1	-1E+10	1	-1E+10	1	-1E+10	1	-1E+10	1	-1E+10	1
4902549	57	C	03/08/2022	04:58	-131.801	47.550	0	982.80	0	3.2440	0	34.3450	0	27.346	0	972.292	0	6.8	4	2.1	4	-1E+10	1	-1E+10	1	-1E+10	1	-1E+10	1	-1E+10	1	-1E+10	1
4902549	57	C	03/08/2022	04:58	-131.801	47.550	0	987.60	0	3.2320	0	34.3490	0	27.350	0	977.029	0	6.8	4	2.1	4	-1E+10	1	-1E+10	1	-1E+10	1	-1E+10	1	-1E+10	1	-1E+10	1
4902549	57	C	03/08/2022	04:58	-131.801	47.550	0	992.60	0	3.2240	0	34.3510	0	27.353	0	981.964	0	6.7	4	2.1	4	-1E+10	1	-1E+10	1	-1E+10	1	-1E+10	1	-1E+10	1	-1E+10	1
4902549	57	C	03/08/2022	04:58	-131.801	47.550	0	997.60	0	3.2170	0	34.3530	0	27.355	0	986.899	0	6.7	4	2.1	4	-1E+10	1	-1E+10	1	-1E+10	1	-1E+10	1	-1E+10	1	-1E+10	1
4902549	57	C	03/08/2022	04:58	-131.801	47.550	0	1005.20	0	3.2090	0	34.3560	0	27.358	0	994.399	0	6.7	4	2.1	4	-1E+10	1	-1E+10	1	-1E+10	1	-1E+10	1	-1E+10	1	-1E+10	1
4902549	57	C	03/08/2022	04:58	-131.801	47.550	0	1015.30	0	3.1950	0	34.3600	0	27.363	0	1004.366	0	6.7	4	2.1	4	-1E+10	1	-1E+10	1	-1E+10	1	-1E+10	1	-1E+10	1	-1E+10	1
4902549	57	C	03/08/2022	04:58	-131.801	47.550	0	1025.60	0	3.1790	0	34.3650	0	27.368	0	1014.531	0	6.7	4	2.1	4	-1E+10	1	-1E+10	1	-1E+10	1	-1E+10	1	-1E+10	1	-1E+10	1
4902549	57	C	03/08/2022	04:58	-131.801	47.550	0	1035.40	0	3.1480	0	34.3700	0	27.375	0	1024.201	0	6.8	4	2.1	4	-1E+10	1	-1E+10	1	-1E+10	1	-1E+10	1	-1E+10	1	-1E+10	1
4902549	57	C	03/08/2022	04:58	-131.801	47.550	0	1045.30	0	3.1280	0	34.3740	0	27.380	0	1033.970	0	6.9	4	2.1	4	-1E+10	1	-1E+10	1	-1E+10	1	-1E+10	1	-1E+10	1	-1E+10	1
4902549	57	C	03/08/2022	04:58	-131.801	47.550	0	1055.40	0	3.1200	0	34.3760	0	27.383	0	1043.935	0	6.9	4	2.1	4	-1E+10	1	-1E+10	1	-1E+10	1	-1E+10	1	-1E+10	1	-1E+10	1
4902549	57	C	03/08/2022	04:58	-131.801	47.550	0	1065.50	0	3.1140	0	34.3780	0	27.385	0	1053.900	0	6.9	4	2.1	4	-1E+10	1	-1E+10	1	-1E+10	1	-1E+10	1	-1E+10	1	-1E+10	1
4902549	57	C	03/08/2022	04:58	-131.801	47.550	0	1075.60	0	3.1060	0	34.3810	0	27.388	0	1063.864	0	7.0	4	2.2	4	-1E+10	1	-1E+10	1	-1E+10	1	-1E+10	1	-1E+10	1	-1E+10	1
4902549	57	C	03/08/2022	04:58	-131.801	47.550	0	1085.30	0	3.0880	0	34.3840	0	27.392	0	1073.434	0	7.1	4	2.2	4	-1E+10	1	-1E+10	1	-1E+10	1	-1E+10	1	-1E+10	1	-1E+10	1
4902549	57	C	03/08/2022	04:58	-131.801	47.550	0	1095.00	0	3.0650	0	34.3890	0	27.398	0	1083.003	0	7.2	4	2.2	4	-1E+10	1	-1E+10	1	-1E+10	1	-1E+10	1	-1E+10	1	-1E+10	1
4902549	57	C	03/08/2022	04:58	-131.801	47.550	0	1105.10	0	3.0430	0	34.3930	0	27.404	0	1092.966	0	7.3	4	2.3	4	-1E+10	1	-1E+10	1	-1E+10	1	-1E+10	1	-1E+10	1	-1E+10	1
4902549	57	C	03/08/2022	04:58	-131.801	47.550	0	1115.20	0	3.0310	0	34.3980	0	27.409	0	1102.928	0	7.3	4	2.3	4	-1E+10	1	-1E+10	1	-1E+10	1	-1E+10	1	-1E+10	1	-1E+10	1
4902549	57	C	03/08/2022	04:58	-131.801	47.550	0	1125.10	0	3.0170	0	34.3990	0	27.411	0	1112.693	0	7.5	4	2.3	4	-1E+10	1	-1E+10	1	-1E+10	1	-1E+10	1	-1E+10	1	-1E+10	1
4902549	57	C	03/08/2022	04:58	-131.801	47.550	0	1135.10	0	3.0030	0	34.4020	0	27.415	0	1122.556	0	7.6	4	2.3	4	-1E+10	1	-1E+10	1	-1E+10	1	-1E+10	1	-1E+10	1	-1E+10	1
4902549	57	C	03/08/2022	04:58	-131.801	47.550	0	1145.30	0	2.9800	0	34.4060	0	27.420	0	1132.616	0	7.8	4	2.4	4	-1E+10	1	-1E+10	1	-1E+10	1	-1E+10	1	-1E+10	1	-1E+10	1
4902549	57	C	03/08/2022	04:58	-131.801	47.550	0	1155.50	0	2.9750	0	34.4120	0	27.425	0	1142.675	0	8.0	4	2.5	4	-1E+10	1	-1E+10	1	-1E+10	1	-1E+10	1	-1E+10	1	-1E+10	1
4902549	57	C	03/08/2022	04:58	-131.801	47.550	0	1165.60	0	2.9720	0	34.4150	0	27.428	0	1152.635	0	8.1	4	2.5	4	-1E+10	1	-1E+10	1	-1E+10	1	-1E+10	1	-1E+10	1	-1E+10	1
4902549	57	C	03/08/2022	04:58	-131.801	47.550	0	1175.70	0	2.9650	0	34.4190	0	27.432	0	1162.595	0	8.3	4	2.6	4	-1E+10	1	-1E+10	1	-1E+10	1	-1E+10	1	-1E+10	1	-1E+10	1
4902549	57	C	03/08/2022	04:58	-131.801	47.550	0	1185.40	0	2.9410	0	34.4200	0	27.435	0	1172.160	0	8.4	4	2.6	4	-1E+10	1	-1E+10	1	-1E+10	1	-1E+10	1	-1E+10	1	-1E+10	1
4902549	57	C	03/08/2022	04:58	-131.801	47.550	0	1195.10	0	2.9170	0	34.4230	0	27.439	0	1181.724	0	8.6	4	2.7	4	-1E+10	1	-1E+10	1	-1E+10	1	-1E+10	1	-1E+10	1	-1E+10	1
4902549	57	C	03/08/2022	04:58	-131.801	47.550	0	1205.60	0	2.8900	0	34.4270	0	27.445	0	1192.077	0	8.9	4	2.7	4	-1E+10	1	-1E+10	1	-1E+10	1	-1E+10	1	-1E+10	1	-1E+10	1
4902549	57	C	03/08/2022	04:58	-131.801	47.550	0	1215.30	0	2.8590	0	34.4300	0	27.450	0	1201.641	0	9.1	4	2.8	4	-1E+10	1	-1E+10	1	-1E+10	1	-1E+10	1	-1E+10	1	-1E+10	1
4902549	57	C	03/08/2022	04:58	-131.801	47.550	0	1225.40	0	2.8370	0	34.4310	0	27.453	0	1211.598	0	9.2	4	2.8	4	-1E+10	1	-1E+10	1	-1E+10	1	-1E+10	1	-1E+10	1	-1E+10	1
4902549	57	C	03/08/2022	04:58	-131.801	47.550	0	1235.60	0	2.8250	0	34.4330	0	27.456	0	1221.654	0	9.5	4	2.9	4	-1E+10	1	-1E+10	1	-1E+10	1	-1E+10	1	-1E+10	1	-1E+10	1
4902549	57	C	03/08/2022	04:58	-131.801	47.550	0	1245.70	0	2.8030	0	34.4370	0	27.461	0	1231.610	0	9.8	4	3.0	4	-1E+10	1	-1E+10	1	-1E+10	1	-1E+10	1	-1E+10	1	-1E+10	1
4902549	57	C	03/08/2022	04:58	-131.801	47.550	0	1255.50	0	2.7860	0	34.4400	0	27.465	0	1241.270	0	10.1	4	3.1	4	-1E+10	1	-1E+10	1	-1E+10	1	-1E+10	1	-1E+10	1	-1E+10	1
4902549	57	C	03/08/2022	04:58	-131.801	47.550	0	1265.30	0	2.7880	0	34.4450	0	27.469	0	1250.930	0	10.4	4	3.2	4	-1E+10	1	-1E+10	1	-1E+10	1	-1E+10	1	-1E+10	1	-1E+10	1
4902549	57	C	03/08/2022	04:58	-131.801	47.550	0	1275.40	0	2.7620	0	34.4470	0	27.473	0	1260.885	0	10.6	4	3.3	4	-1E+10	1	-1E+10	1	-1E+10	1	-1E+10	1	-1E+10	1	-1E+10	1
4902549	57	C	03/08/2022	04:58	-131.801	47.550	0	1285.30	0	2.7550	0	34.4480	0	27.474	0	1270.643	0	10.8	4	3.3	4	-1E+10	1	-1E+10	1	-1E+10	1	-1E+10	1	-1E+10	1	-1E+10	1
4902549	57	C	03/08/2022	04:58	-131.801	47.550	0	1295.10	0	2.7460	0	34.4510	0	27.477	0	1280.301	0	11.1	4	3.4	4	-1E+10	1	-1E+10	1	-1E+10	1	-1E+10	1	-1E+10	1	-1E+10	1
4902549	57	C	03/08/2022	04:58	-131.801	47.550	0	1305.00	0	2.7310	0	34.4530	0	27.480	0	1290.058	0	11.4	4	3.5	4	-1E+10	1	-1E+10	1	-1E+10	1	-1E+10	1	-1E+10	1	-1E+10	1
4902549	57	C	03/08/2022	04:58	-131.801	47.550	0	1315.00	0	2.7240	0	34.4560	0	27.483	0	1299.912	0	11.6	4	3.6	4	-1E+10	1	-1E+10	1	-1E+10	1	-1E+10	1	-1E+10	1	-1E+10	1
4902549	57	C	03/08/2022	04:58	-131.801	47.550	0	1325.20	0	2.7270	0	34.4570	0	27.484	0	1309.964	0	11.8	4	3.6	4	-1E+10	1	-1E+10	1	-1E+10	1	-1E+10	1	-1E+10	1	-1E+10	1
4902549	57	C	03/08/2022	04:58	-131.801	47.550	0	1335.20	0	2.7170	0	34.4590	0	27.487	0	1319.817	0	12.1	4	3.7	4	-1E+10	1	-1E+10	1	-1E+10	1	-1E+10	1	-1E+10	1	-1E+10	1
4902549	57	C	03/08/2022	04:58	-131.801	47.550	0	1345.40	0	2.6970	0	34.4620	0	27.491	0	1329.868	0	12.2	4	3.8	4	-1E+10	1	-1E+10	1	-1E+10	1	-1E+10	1	-1E+10	1	-1E+10	1
4902549	57	C	03/08/2022	04:58	-131.801	47.550	0	1355.70	0	2.6930	0	34.4610	0	27.490	0	1340.016	0	12.3	4	3.8	4	-1E+10	1	-1E+10	1	-1E+10	1	-1E+10	1	-1E+10	1	-1E+10	1
4902549	57	C	03/08/2022	04:58	-131.801	47.550	0	1365.30	0	2.6730	0	34.4610	0	27.492	0	1349.474	0	12.7	4	3.9	4	-1E+10	1	-1E+10	1	-1E+10	1	-1E+10	1	-1E+10	1	-1E+10	1
4902549	57	C	03/08/2022	04:58	-131.801	47.550	0	1375.20	0	2.6550	0	34.4670	0	27.499	0	1359.228	0	13.3	4	4.1	4	-1E+10	1	-1E+10	1	-1E+10	1	-1E+10	1	-1E+10	1	-1E+10	1
4902549	57	C	03/08/2022	04:58	-131.801	47.550	0	1385.30	0	2.6350	0	34.4690	0	27.502	0	1369.178	0	13.8	4	4.2	4	-1E+10	1	-1E+10	1	-1E+10	1	-1E+10	1	-1E+10	1	-1E+10	1
4902549	57	C	03/08/2022	04:58	-131.801	47.550	0	1395.20	0	2.6220	0	34.4730	0	27.506	0	1378.930	0	14.1	4	4.3	4	-1E+10	1	-1E+10	1	-1E+10	1	-1E+10	1	-1E+10	1	-1E+10	1
4902549	57	C	03/08/2022	04:58	-131.801	47.550	0	1405.00	0	2.6020	0	34.4730	0	27.508	0	1388.583	0	14.4	4	4.4	4	-1E+10	1	-1E+10	1	-1E+10	1	-1E+10	1	-1E+10	1	-1E+10	1
4902549	57	C	03/08/2022	04:58	-131.801	47.550	0	1415.30	0	2.5840	0	34.4760	0	27.512	0	1398.729	0	15.0	4	4.6	4	-1E+10	1	-1E+10	1	-1E+10	1	-1E+10	1	-1E+10	1	-1E+10	1
4902549	57	C	03/08/2022	04:58	-131.801	47.550	0	1425.40	0	2.5590	0	34.4800	0	27.517	0	1408.677	0	15.5	4	4.7	4	-1E+10	1	-1E+10	1	-1E+10	1	-1E+10	1	-1E+10	1	-1E+10	1
4902549	57	C	03/08/2022	04:58	-131.801	47.550	0	1435.50	0	2.5450	0	34.4830	0	27.521	0	1418.625	0	15.9	4	4.9	4	-1E+10	1	-1E+10	1	-1E+10	1	-1E+10	1	-1E+10	1	-1E+10	1
4902549	57	C	03/08/2022	04:58	-131.801	47.550	0	1445.60	0	2.5350	0	34.4840	0	27.523	0	1428.572	0	16.2	4	4.9	4	-1E+10	1	-1E+10	1	-1E+10	1	-1E+10	1	-1E+10	1	-1E+10	1
4902549	57	C	03/08/2022	04:58	-131.801	47.550	0	1455.60	0	2.5200	0	34.4850	0	27.525	0	1438.420	0	16.4	4	5.0	4	-1E+10	1	-1E+10	1	-1E+10	1	-1E+10	1	-1E+10	1	-1E+10	1
4902549	57	C	03/08/2022	04:58	-131.801	47.550	0	1465.60	0	2.5040	0	34.4860	0	27.527	0	1448.268	0	16.8	4	5.1	4	-1E+10	1	-1E+10	1	-1E+10	1	-1E+10	1	-1E+10	1	-1E+10	1
4902549	57	C	03/08/2022	04:58	-131.801	47.550	0	1475.50	0	2.4920	0	34.4880	0	27.530	0	1458.016	0	17.5	4	5.3	4	-1E+10	1	-1E+10	1	-1E+10	1	-1E+10	1	-1E+10	1	-1E+10	1
4902549	57	C	03/08/2022	04:58	-131.801	47.550	0	1485.50	0	2.4730	0	34.4930	0	27.535	0	1467.863	0	18.3	4	5.6	4	-1E+10	1	-1E+10	1	-1E+10	1	-1E+10	1	-1E+10	1	-1E+10	1
4902549	57	C	03/08/2022	04:58	-131.801	47.550	0	1495.30	0	2.4590	0	34.4950	0	27.538	0	1477.513	0	18.8	4	5.7	4	-1E+10	1	-1E+10	1	-1E+10	1	-1E+10	1	-1E+10	1	-1E+10	1
4902549	57	C	03/08/2022	04:58	-131.801	47.550	0	1505.10	0	2.4460	0	34.4970	0	27.541	0	1487.162	0	19.2	4	5.9	4	-1E+10	1	-1E+10	1	-1E+10	1	-1E+10	1	-1E+10	1	-1E+10	1
4902549	57	C	03/08/2022	04:58	-131.801	47.550	0	1515.20	0	2.4400	0	34.4990	0	27.543	0	1497.105	0	19.7	4	6.0	4	-1E+10	1	-1E+10	1	-1E+10	1	-1E+10	1	-1E+10	1	-1E+10	1
4902549	57	C	03/08/2022	04:58	-131.801	47.550	0	1525.20	0	2.4290	0	34.5010	0	27.546	0	1506.950	0	20.2	4	6.2	4	-1E+10	1	-1E+10	1	-1E+10	1	-1E+10	1	-1E+10	1	-1E+10	1
4902549	57	C	03/08/2022	04:58	-131.801	47.550	0	1535.40	0	2.4030	0	34.5030	0	27.549	0	1516.992	0	20.8	4	6.3	4	-1E+10	1	-1E+10	1	-1E+10	1	-1E+10	1	-1E+10	1	-1E+10	1
4902549	57	C	03/08/2022	04:58	-131.801	47.550	0	1545.50	0	2.3860	0	34.5050	0	27.552	0	1526.934	0	21.3	4	6.5	4	-1E+10	1	-1E+10	1	-1E+10	1	-1E+10	1	-1E+10	1	-1E+10	1
4902549	57	C	03/08/2022	04:58	-131.801	47.550	0	1555.50	0	2.3770	0	34.5070	0	27.555	0	1536.778	0	21.7	4	6.6	4	-1E+10	1	-1E+10	1	-1E+10	1	-1E+10	1	-1E+10	1	-1E+10	1
4902549	57	C	03/08/2022	04:58	-131.801	47.550	0	1565.70	0	2.3680	0	34.5080	0	27.556	0	1546.818	0	22.1	4	6.7	4	-1E+10	1	-1E+10	1	-1E+10	1	-1E+10	1	-1E+10	1	-1E+10	1
4902549	57	C	03/08/2022	04:58	-131.801	47.550	0	1575.60	0	2.3570	0	34.5090	0	27.558	0	1556.562	0	22.7	4	6.9	4	-1E+10	1	-1E+10	1	-1E+10	1	-1E+10	1	-1E+10	1	-1E+10	1
4902549	57	C	03/08/2022	04:58	-131.801	47.550	0	1585.60	0	2.3410	0	34.5130	0	27.563	0	1566.404	0	23.9	4	7.3	4	-1E+10	1	-1E+10	1	-1E+10	1	-1E+10	1	-1E+10	1	-1E+10	1
4902549	57	C	03/08/2022	04:58	-131.801	47.550	0	1595.80	0	2.3230	0	34.5160	0	27.567	0	1576.443	0	24.8	4	7.5	4	-1E+10	1	-1E+10	1	-1E+10	1	-1E+10	1	-1E+10	1	-1E+10	1
4902549	57	C	03/08/2022	04:58	-131.801	47.550	0	1605.60	0	2.3030	0	34.5190	0	27.571	0	1586.087	0	25.4	4	7.7	4	-1E+10	1	-1E+10	1	-1E+10	1	-1E+10	1	-1E+10	1	-1E+10	1
4902549	57	C	03/08/2022	04:58	-131.801	47.550	0	1615.50	0	2.2850	0	34.5210	0	27.574	0	1595.830	0	26.2	4	8.0	4	-1E+10	1	-1E+10	1	-1E+10	1	-1E+10	1	-1E+10	1	-1E+10	1
4902549	57	C	03/08/2022	04:58	-131.801	47.550	0	1625.90	0	2.2650	0	34.5240	0	27.578	0	1606.064	0	27.0	4	8.2	4	-1E+10	1	-1E+10	1	-1E+10	1	-1E+10	1	-1E+10	1	-1E+10	1
4902549	57	C	03/08/2022	04:58	-131.801	47.550	0	1635.50	0	2.2520	0	34.5260	0	27.581	0	1615.510	0	27.6	4	8.4	4	-1E+10	1	-1E+10	1	-1E+10	1	-1E+10	1	-1E+10	1	-1E+10	1
4902549	57	C	03/08/2022	04:58	-131.801	47.550	0	1645.60	0	2.2460	0	34.5270	0	27.582	0	1625.448	0	28.2	4	8.6	4	-1E+10	1	-1E+10	1	-1E+10	1	-1E+10	1	-1E+10	1	-1E+10	1
4902549	57	C	03/08/2022	04:58	-131.801	47.550	0	1655.60	0	2.2330	0	34.5300	0	27.585	0	1635.287	0	29.3	4	8.9	4	-1E+10	1	-1E+10	1	-1E+10	1	-1E+10	1	-1E+10	1	-1E+10	1
4902549	57	C	03/08/2022	04:58	-131.801	47.550	0	1665.20	0	2.2200	0	34.5340	0	27.590	0	1644.732	0	30.3	4	9.2	4	-1E+10	1	-1E+10	1	-1E+10	1	-1E+10	1	-1E+10	1	-1E+10	1
4902549	57	C	03/08/2022	04:58	-131.801	47.550	0	1675.30	0	2.2110	0	34.5350	0	27.591	0	1654.668	0	30.5	4	9.3	4	-1E+10	1	-1E+10	1	-1E+10	1	-1E+10	1	-1E+10	1	-1E+10	1
4902549	57	C	03/08/2022	04:58	-131.801	47.550	0	1685.40	0	2.2060	0	34.5350	0	27.592	0	1664.604	0	30.6	4	9.3	4	-1E+10	1	-1E+10	1	-1E+10	1	-1E+10	1	-1E+10	1	-1E+10	1
4902549	57	C	03/08/2022	04:58	-131.801	47.550	0	1695.50	0	2.1960	0	34.5360	0	27.593	0	1674.540	0	31.1	4	9.4	4	-1E+10	1	-1E+10	1	-1E+10	1	-1E+10	1	-1E+10	1	-1E+10	1
4902549	57	C	03/08/2022	04:58	-131.801	47.550	0	1705.70	0	2.1890	0	34.5380	0	27.596	0	1684.573	0	31.6	4	9.6	4	-1E+10	1	-1E+10	1	-1E+10	1	-1E+10	1	-1E+10	1	-1E+10	1
4902549	57	C	03/08/2022	04:58	-131.801	47.550	0	1715.40	0	2.1790	0	34.5390	0	27.597	0	1694.114	0	32.2	4	9.8	4	-1E+10	1	-1E+10	1	-1E+10	1	-1E+10	1	-1E+10	1	-1E+10	1
4902549	57	C	03/08/2022	04:58	-131.801	47.550	0	1725.20	0	2.1700	0	34.5400	0	27.599	0	1703.753	0	32.8	4	9.9	4	-1E+10	1	-1E+10	1	-1E+10	1	-1E+10	1	-1E+10	1	-1E+10	1
4902549	57	C	03/08/2022	04:58	-131.801	47.550	0	1735.10	0	2.1580	0	34.5420	0	27.601	0	1713.490	0	33.3	4	10.1	4	-1E+10	1	-1E+10	1	-1E+10	1	-1E+10	1	-1E+10	1	-1E+10	1
4902549	57	C	03/08/2022	04:58	-131.801	47.550	0	1745.40	0	2.1510	0	34.5430	0	27.603	0	1723.620	0	34.0	4	10.3	4	-1E+10	1	-1E+10	1	-1E+10	1	-1E+10	1	-1E+10	1	-1E+10	1
4902549	57	C	03/08/2022	04:58	-131.801	47.550	0	1755.40	0	2.1380	0	34.5460	0	27.606	0	1733.455	0	34.7	4	10.5	4	-1E+10	1	-1E+10	1	-1E+10	1	-1E+10	1	-1E+10	1	-1E+10	1
4902549	57	C	03/08/2022	04:58	-131.801	47.550	0	1765.10	0	2.1340	0	34.5460	0	27.607	0	1742.993	0	35.4	4	10.7	4	-1E+10	1	-1E+10	1	-1E+10	1	-1E+10	1	-1E+10	1	-1E+10	1
4902549	57	C	03/08/2022	04:58	-131.801	47.550	0	1775.40	0	2.1210	0	34.5490	0	27.610	0	1753.122	0	36.6	4	11.1	4	-1E+10	1	-1E+10	1	-1E+10	1	-1E+10	1	-1E+10	1	-1E+10	1
4902549	57	C	03/08/2022	04:58	-131.801	47.550	0	1785.50	0	2.1030	0	34.5530	0	27.615	0	1763.053	0	37.6	4	11.4	4	-1E+10	1	-1E+10	1	-1E+10	1	-1E+10	1	-1E+10	1	-1E+10	1
4902549	57	C	03/08/2022	04:58	-131.801	47.550	0	1795.30	0	2.0930	0	34.5540	0	27.617	0	1772.689	0	38.4	4	11.6	4	-1E+10	1	-1E+10	1	-1E+10	1	-1E+10	1	-1E+10	1	-1E+10	1
4902549	57	C	03/08/2022	04:58	-131.801	47.550	0	1805.70	0	2.0810	0	34.5570	0	27.620	0	1782.915	0	39.2	4	11.8	4	-1E+10	1	-1E+10	1	-1E+10	1	-1E+10	1	-1E+10	1	-1E+10	1
4902549	57	C	03/08/2022	04:58	-131.801	47.550	0	1815.60	0	2.0750	0	34.5590	0	27.622	0	1792.648	0	39.8	4	12.0	4	-1E+10	1	-1E+10	1	-1E+10	1	-1E+10	1	-1E+10	1	-1E+10	1
4902549	57	C	03/08/2022	04:58	-131.801	47.550	0	1825.30	0	2.0700	0	34.5600	0	27.623	0	1802.184	0	40.3	4	12.2	4	-1E+10	1	-1E+10	1	-1E+10	1	-1E+10	1	-1E+10	1	-1E+10	1
4902549	57	C	03/08/2022	04:58	-131.801	47.550	0	1835.00	0	2.0690	0	34.5610	0	27.624	0	1811.720	0	40.8	4	12.3	4	-1E+10	1	-1E+10	1	-1E+10	1	-1E+10	1	-1E+10	1	-1E+10	1
4902549	57	C	03/08/2022	04:58	-131.801	47.550	0	1845.40	0	2.0620	0	34.5630	0	27.626	0	1821.944	0	41.5	4	12.5	4	-1E+10	1	-1E+10	1	-1E+10	1	-1E+10	1	-1E+10	1	-1E+10	1
4902549	57	C	03/08/2022	04:58	-131.801	47.550	0	1855.80	0	2.0520	0	34.5640	0	27.628	0	1832.167	0	41.9	4	12.6	4	-1E+10	1	-1E+10	1	-1E+10	1	-1E+10	1	-1E+10	1	-1E+10	1
4902549	57	C	03/08/2022	04:58	-131.801	47.550	0	1865.40	0	2.0470	0	34.5650	0	27.629	0	1841.603	0	42.4	4	12.8	4	-1E+10	1	-1E+10	1	-1E+10	1	-1E+10	1	-1E+10	1	-1E+10	1
4902549	57	C	03/08/2022	04:58	-131.801	47.550	0	1875.00	0	2.0400	0	34.5660	0	27.631	0	1851.039	0	42.9	4	12.9	4	-1E+10	1	-1E+10	1	-1E+10	1	-1E+10	1	-1E+10	1	-1E+10	1
4902549	57	C	03/08/2022	04:58	-131.801	47.550	0	1885.30	0	2.0300	0	34.5670	0	27.632	0	1861.162	0	43.7	4	13.2	4	-1E+10	1	-1E+10	1	-1E+10	1	-1E+10	1	-1E+10	1	-1E+10	1
4902549	57	C	03/08/2022	04:58	-131.801	47.550	0	1895.70	0	2.0220	0	34.5690	0	27.635	0	1871.383	0	44.1	4	13.3	4	-1E+10	1	-1E+10	1	-1E+10	1	-1E+10	1	-1E+10	1	-1E+10	1
4902549	57	C	03/08/2022	04:58	-131.801	47.550	0	1905.70	0	2.0180	0	34.5700	0	27.636	0	1881.211	0	44.7	4	13.5	4	-1E+10	1	-1E+10	1	-1E+10	1	-1E+10	1	-1E+10	1	-1E+10	1
4902549	57	C	03/08/2022	04:58	-131.801	47.550	0	1915.30	0	2.0050	0	34.5720	0	27.639	0	1890.645	0	45.5	4	13.7	4	-1E+10	1	-1E+10	1	-1E+10	1	-1E+10	1	-1E+10	1	-1E+10	1
4902549	57	C	03/08/2022	04:58	-131.801	47.550	0	1925.40	0	1.9970	0	34.5730	0	27.640	0	1900.570	0	46.3	4	13.9	4	-1E+10	1	-1E+10	1	-1E+10	1	-1E+10	1	-1E+10	1	-1E+10	1
4902549	57	C	03/08/2022	04:58	-131.801	47.550	0	1935.30	0	1.9920	0	34.5760	0	27.643	0	1910.297	0	46.9	4	14.1	4	-1E+10	1	-1E+10	1	-1E+10	1	-1E+10	1	-1E+10	1	-1E+10	1
4902549	57	C	03/08/2022	04:58	-131.801	47.550	0	1945.30	0	1.9850	0	34.5770	0	27.644	0	1920.123	0	47.9	4	14.4	4	-1E+10	1	-1E+10	1	-1E+10	1	-1E+10	1	-1E+10	1	-1E+10	1
4902549	57	C	03/08/2022	04:58	-131.801	47.550	0	1955.80	0	1.9700	0	34.5800	0	27.648	0	1930.440	0	48.6	4	14.6	4	-1E+10	1	-1E+10	1	-1E+10	1	-1E+10	1	-1E+10	1	-1E+10	1
4902549	57	C	03/08/2022	04:58	-131.801	47.550	0	1966.10	0	1.9600	0	34.5820	0	27.650	0	1940.559	0	48.6	4	14.6	4	-1E+10	1	-1E+10	1	-1E+10	1	-1E+10	1	-1E+10	1	-1E+10	1
4902549	57	C	03/08/2022	04:58	-131.801	47.550	0	1970.50	0	1.9550	0	34.5840	0	27.652	0	1944.882	0	47.6	4	14.3	4	-1E+10	1	-1E+10	1	-1E+10	1	-1E+10	1	-1E+10	1	-1E+10	1
4902549	57	C	03/08/2022	04:58	-131.801	47.550	0																										
4902549	58	C	03/18/2022	09:58	-131.735	47.549	0	0.10	0	8.0530	0	32.2990	0	25.146	0	0.099	0	287.5	4	98.4	4	-1E+10	1	-1E+10	1	-1E+10	1	-1E+10	1	-1E+10	1	-1E+10	1
4902549	58	C	03/18/2022	09:58	-131.735	47.549	0	0.20	0	8.0530	0	32.3000	0	25.147	0	0.198	0	287.5	4	98.4	4	-1E+10	1	-1E+10	1	-1E+10	1	-1E+10	1	-1E+10	1	-1E+10	1
4902549	58	C	03/18/2022	09:58	-131.735	47.549	0	1.20	0	8.0520	0	32.2980	0	25.145	0	1.190	0	280.3	4	95.9	4	-1E+10	1	-1E+10	1	-1E+10	1	-1E+10	1	-1E+10	1	-1E+10	1
4902549	58	C	03/18/2022	09:58	-131.735	47.549	0	1.90	0	8.0510	0	32.2980	0	25.145	0	1.884	0	280.3	4	95.9	4	-1E+10	1	-1E+10	1	-1E+10	1	-1E+10	1	-1E+10	1	-1E+10	1
4902549	58	C	03/18/2022	09:58	-131.735	47.549	0	2.90	0	8.0520	0	32.2990	0	25.146	0	2.876	0	280.2	4	95.9	4	-1E+10	1	-1E+10	1	-1E+10	1	-1E+10	1	-1E+10	1	-1E+10	1
4902549	58	C	03/18/2022	09:58	-131.735	47.549	0	4.10	0	8.0520	0	32.3010	0	25.148	0	4.066	0	280.2	4	95.9	4	-1E+10	1	-1E+10	1	-1E+10	1	-1E+10	1	-1E+10	1	-1E+10	1
4902549	58	C	03/18/2022	09:58	-131.735	47.549	0	5.00	0	8.0520	0	32.3010	0	25.148	0	4.958	0	280.2	4	95.9	4	-1E+10	1	-1E+10	1	-1E+10	1	-1E+10	1	-1E+10	1	-1E+10	1
4902549	58	C	03/18/2022	09:58	-131.735	47.549	0	6.00	0	8.0540	0	32.3000	0	25.147	0	5.950	0	280.1	4	95.9	4	-1E+10	1	-1E+10	1	-1E+10	1	-1E+10	1	-1E+10	1	-1E+10	1
4902549	58	C	03/18/2022	09:58	-131.735	47.549	0	6.80	0	8.0550	0	32.3010	0	25.147	0	6.743	0	280.0	4	95.8	4	-1E+10	1	-1E+10	1	-1E+10	1	-1E+10	1	-1E+10	1	-1E+10	1
4902549	58	C	03/18/2022	09:58	-131.735	47.549	0	7.80	0	8.0560	0	32.3010	0	25.147	0	7.735	0	279.9	4	95.8	4	-1E+10	1	-1E+10	1	-1E+10	1	-1E+10	1	-1E+10	1	-1E+10	1
4902549	58	C	03/18/2022	09:58	-131.735	47.549	0	9.00	0	8.0550	0	32.3010	0	25.147	0	8.925	0	280.0	4	95.8	4	-1E+10	1	-1E+10	1	-1E+10	1	-1E+10	1	-1E+10	1	-1E+10	1
4902549	58	C	03/18/2022	09:58	-131.735	47.549	0	10.10	0	8.0550	0	32.3010	0	25.147	0	10.015	0	280.0	4	95.8	4	-1E+10	1	-1E+10	1	-1E+10	1	-1E+10	1	-1E+10	1	-1E+10	1
4902549	58	C	03/18/2022	09:58	-131.735	47.549	0	11.10	0	8.0550	0	32.3000	0	25.146	0	11.007	0	279.8	4	95.8	4	-1E+10	1	-1E+10	1	-1E+10	1	-1E+10	1	-1E+10	1	-1E+10	1
4902549	58	C	03/18/2022	09:58	-131.735	47.549	0	11.80	0	8.0540	0	32.3010	0	25.147	0	11.701	0	280.0	4	95.8	4	-1E+10	1	-1E+10	1	-1E+10	1	-1E+10	1	-1E+10	1	-1E+10	1
4902549	58	C	03/18/2022	09:58	-131.735	47.549	0	12.80	0	8.0550	0	32.3010	0	25.147	0	12.693	0	279.9	4	95.8	4	-1E+10	1	-1E+10	1	-1E+10	1	-1E+10	1	-1E+10	1	-1E+10	1
4902549	58	C	03/18/2022	09:58	-131.735	47.549	0	14.10	0	8.0560	0	32.3000	0	25.146	0	13.982	0	279.9	4	95.8	4	-1E+10	1	-1E+10	1	-1E+10	1	-1E+10	1	-1E+10	1	-1E+10	1
4902549	58	C	03/18/2022	09:58	-131.735	47.549	0	15.10	0	8.0570	0	32.3010	0	25.147	0	14.973	0	279.8	4	95.8	4	-1E+10	1	-1E+10	1	-1E+10	1	-1E+10	1	-1E+10	1	-1E+10	1
4902549	58	C	03/18/2022	09:58	-131.735	47.549	0	15.80	0	8.0580	0	32.3000	0	25.146	0	15.667	0	279.9	4	95.8	4	-1E+10	1	-1E+10	1	-1E+10	1	-1E+10	1	-1E+10	1	-1E+10	1
4902549	58	C	03/18/2022	09:58	-131.735	47.549	0	16.80	0	8.0580	0	32.3010	0	25.147	0	16.659	0	279.8	4	95.7	4	-1E+10	1	-1E+10	1	-1E+10	1	-1E+10	1	-1E+10	1	-1E+10	1
4902549	58	C	03/18/2022	09:58	-131.735	47.549	0	17.90	0	8.0570	0	32.3010	0	25.147	0	17.750	0	279.8	4	95.7	4	-1E+10	1	-1E+10	1	-1E+10	1	-1E+10	1	-1E+10	1	-1E+10	1
4902549	58	C	03/18/2022	09:58	-131.735	47.549	0	18.80	0	8.0570	0	32.3010	0	25.147	0	18.642	0	279.8	4	95.8	4	-1E+10	1	-1E+10	1	-1E+10	1	-1E+10	1	-1E+10	1	-1E+10	1
4902549	58	C	03/18/2022	09:58	-131.735	47.549	0	20.10	0	8.0540	0	32.2990	0	25.146	0	19.931	0	279.8	4	95.7	4	-1E+10	1	-1E+10	1	-1E+10	1	-1E+10	1	-1E+10	1	-1E+10	1
4902549	58	C	03/18/2022	09:58	-131.735	47.549	0	21.10	0	8.0580	0	32.3000	0	25.146	0	20.923	0	279.7	4	95.7	4	-1E+10	1	-1E+10	1	-1E+10	1	-1E+10	1	-1E+10	1	-1E+10	1
4902549	58	C	03/18/2022	09:58	-131.735	47.549	0	22.10	0	8.0520	0	32.3010	0	25.148	0	21.914	0	279.9	4	95.8	4	-1E+10	1	-1E+10	1	-1E+10	1	-1E+10	1	-1E+10	1	-1E+10	1
4902549	58	C	03/18/2022	09:58	-131.735	47.549	0	23.00	0	8.0590	0	32.3000	0	25.146	0	22.807	0	279.8	4	95.7	4	-1E+10	1	-1E+10	1	-1E+10	1	-1E+10	1	-1E+10	1	-1E+10	1
4902549	58	C	03/18/2022	09:58	-131.735	47.549	0	23.90	0	8.0590	0	32.3010	0	25.147	0	23.699	0	279.7	4	95.7	4	-1E+10	1	-1E+10	1	-1E+10	1	-1E+10	1	-1E+10	1	-1E+10	1
4902549	58	C	03/18/2022	09:58	-131.735	47.549	0	25.00	0	8.0570	0	32.3010	0	25.147	0	24.790	0	279.7	4	95.7	4	-1E+10	1	-1E+10	1	-1E+10	1	-1E+10	1	-1E+10	1	-1E+10	1
4902549	58	C	03/18/2022	09:58	-131.735	47.549	0	25.90	0	8.0570	0	32.3010	0	25.147	0	25.682	0	279.7	4	95.7	4	-1E+10	1	-1E+10	1	-1E+10	1	-1E+10	1	-1E+10	1	-1E+10	1
4902549	58	C	03/18/2022	09:58	-131.735	47.549	0	26.70	0	8.0560	0	32.3010	0	25.147	0	26.475	0	279.5	4	95.6	4	-1E+10	1	-1E+10	1	-1E+10	1	-1E+10	1	-1E+10	1	-1E+10	1
4902549	58	C	03/18/2022	09:58	-131.735	47.549	0	27.90	0	8.0590	0	32.3010	0	25.147	0	27.665	0	279.6	4	95.7	4	-1E+10	1	-1E+10	1	-1E+10	1	-1E+10	1	-1E+10	1	-1E+10	1
4902549	58	C	03/18/2022	09:58	-131.735	47.549	0	29.10	0	8.0550	0	32.3010	0	25.147	0	28.855	0	279.6	4	95.7	4	-1E+10	1	-1E+10	1	-1E+10	1	-1E+10	1	-1E+10	1	-1E+10	1
4902549	58	C	03/18/2022	09:58	-131.735	47.549	0	30.10	0	8.0560	0	32.3010	0	25.147	0	29.846	0	279.6	4	95.7	4	-1E+10	1	-1E+10	1	-1E+10	1	-1E+10	1	-1E+10	1	-1E+10	1
4902549	58	C	03/18/2022	09:58	-131.735	47.549	0	31.30	0	8.0590	0	32.3020	0	25.148	0	31.036	0	279.4	4	95.6	4	-1E+10	1	-1E+10	1	-1E+10	1	-1E+10	1	-1E+10	1	-1E+10	1
4902549	58	C	03/18/2022	09:58	-131.735	47.549	0	32.00	0	8.0590	0	32.3010	0	25.147	0	31.730	0	279.4	4	95.6	4	-1E+10	1	-1E+10	1	-1E+10	1	-1E+10	1	-1E+10	1	-1E+10	1
4902549	58	C	03/18/2022	09:58	-131.735	47.549	0	32.90	0	8.0590	0	32.3000	0	25.146	0	32.623	0	279.3	4	95.6	4	-1E+10	1	-1E+10	1	-1E+10	1	-1E+10	1	-1E+10	1	-1E+10	1
4902549	58	C	03/18/2022	09:58	-131.735	47.549	0	34.10	0	8.0600	0	32.3010	0	25.147	0	33.812	0	279.1	4	95.5	4	-1E+10	1	-1E+10	1	-1E+10	1	-1E+10	1	-1E+10	1	-1E+10	1
4902549	58	C	03/18/2022	09:58	-131.735	47.549	0	35.10	0	8.0600	0	32.3000	0	25.146	0	34.804	0	279.0	4	95.5	4	-1E+10	1	-1E+10	1	-1E+10	1	-1E+10	1	-1E+10	1	-1E+10	1
4902549	58	C	03/18/2022	09:58	-131.735	47.549	0	36.10	0	8.0580	0	32.3000	0	25.146	0	35.795	0	278.9	4	95.4	4	-1E+10	1	-1E+10	1	-1E+10	1	-1E+10	1	-1E+10	1	-1E+10	1
4902549	58	C	03/18/2022	09:58	-131.735	47.549	0	37.10	0	8.0360	0	32.3010	0	25.150	0	36.787	0	278.8	4	95.4	4	-1E+10	1	-1E+10	1	-1E+10	1	-1E+10	1	-1E+10	1	-1E+10	1
4902549	58	C	03/18/2022	09:58	-131.735	47.549	0	38.10	0	8.0490	0	32.3010	0	25.148	0	37.778	0	278.5	4	95.3	4	-1E+10	1	-1E+10	1	-1E+10	1	-1E+10	1	-1E+10	1	-1E+10	1
4902549	58	C	03/18/2022	09:58	-131.735	47.549	0	39.10	0	8.0570	0	32.2980	0	25.145	0	38.770	0	278.2	4	95.2	4	-1E+10	1	-1E+10	1	-1E+10	1	-1E+10	1	-1E+10	1	-1E+10	1
4902549	58	C	03/18/2022	09:58	-131.735	47.549	0	40.00	0	8.0570	0	32.2960	0	25.143	0	39.662	0	277.9	4	95.1	4	-1E+10	1	-1E+10	1	-1E+10	1	-1E+10	1	-1E+10	1	-1E+10	1
4902549	58	C	03/18/2022	09:58	-131.735	47.549	0	41.10	0	7.9550	0	32.3020	0	25.163	0	40.753	0	278.1	4	94.9	4	-1E+10	1	-1E+10	1	-1E+10	1	-1E+10	1	-1E+10	1	-1E+10	1
4902549	58	C	03/18/2022	09:58	-131.735	47.549	0	42.00	0	7.9310	0	32.3050	0	25.169	0	41.645	0	278.0	4	94.9	4	-1E+10	1	-1E+10	1	-1E+10	1	-1E+10	1	-1E+10	1	-1E+10	1
4902549	58	C	03/18/2022	09:58	-131.735	47.549	0	42.90	0	7.8960	0	32.3050	0	25.174	0	42.537	0	278.0	4	94.8	4	-1E+10	1	-1E+10	1	-1E+10	1	-1E+10	1	-1E+10	1	-1E+10	1
4902549	58	C	03/18/2022	09:58	-131.735	47.549	0	44.30	0	7.8340	0	32.3230	0	25.197	0	43.925	0	278.1	4	94.7	4	-1E+10	1	-1E+10	1	-1E+10	1	-1E+10	1	-1E+10	1	-1E+10	1
4902549	58	C	03/18/2022	09:58	-131.735	47.549	0	44.90	0	7.8270	0	32.3260	0	25.200	0	44.520	0	278.0	4	94.7	4	-1E+10	1	-1E+10	1	-1E+10	1	-1E+10	1	-1E+10	1	-1E+10	1
4902549	58	C	03/18/2022	09:58	-131.735	47.549	0	46.00	0	7.8180	0	32.3300	0	25.204	0	45.611	0	278.0	4	94.6	4	-1E+10	1	-1E+10	1	-1E+10	1	-1E+10	1	-1E+10	1	-1E+10	1
4902549	58	C	03/18/2022	09:58	-131.735	47.549	0	46.90	0	7.8020	0	32.3330	0	25.209	0	46.503	0	278.0	4	94.6	4	-1E+10	1	-1E+10	1	-1E+10	1	-1E+10	1	-1E+10	1	-1E+10	1
4902549	58	C	03/18/2022	09:58	-131.735	47.549	0	48.00	0	7.7900	0	32.3350	0	25.212	0	47.594	0	278.1	4	94.6	4	-1E+10	1	-1E+10	1	-1E+10	1	-1E+10	1	-1E+10	1	-1E+10	1
4902549	58	C	03/18/2022	09:58	-131.735	47.549	0	49.20	0	7.7560	0	32.3320	0	25.215	0	48.783	0	278.3	4	94.6	4	-1E+10	1	-1E+10	1	-1E+10	1	-1E+10	1	-1E+10	1	-1E+10	1
4902549	58	C	03/18/2022	09:58	-131.735	47.549	0	49.80	0	7.7340	0	32.3310	0	25.217	0	49.378	0	278.3	4	94.6	4	-1E+10	1	-1E+10	1	-1E+10	1	-1E+10	1	-1E+10	1	-1E+10	1
4902549	58	C	03/18/2022	09:58	-131.735	47.549	0	51.00	0	7.7260	0	32.3320	0	25.219	0	50.568	0	278.5	4	94.6	4	-1E+10	1	-1E+10	1	-1E+10	1	-1E+10	1	-1E+10	1	-1E+10	1
4902549	58	C	03/18/2022	09:58	-131.735	47.549	0	51.70	0	7.7040	0	32.3310	0	25.221	0	51.262	0	278.6	4	94.6	4	-1E+10	1	-1E+10	1	-1E+10	1	-1E+10	1	-1E+10	1	-1E+10	1
4902549	58	C	03/18/2022	09:58	-131.735	47.549	0	52.70	0	7.6880	0	32.3300	0	25.223	0	52.253	0	278.6	4	94.6	4	-1E+10	1	-1E+10	1	-1E+10	1	-1E+10	1	-1E+10	1	-1E+10	1
4902549	58	C	03/18/2022	09:58	-131.735	47.549	0	53.70	0	7.6790	0	32.3310	0	25.225	0	53.245	0	278.5	4	94.5	4	-1E+10	1	-1E+10	1	-1E+10	1	-1E+10	1	-1E+10	1	-1E+10	1
4902549	58	C	03/18/2022	09:58	-131.735	47.549	0	54.70	0	7.6780	0	32.3320	0	25.226	0	54.236	0	278.2	4	94.4	4	-1E+10	1	-1E+10	1	-1E+10	1	-1E+10	1	-1E+10	1	-1E+10	1
4902549	58	C	03/18/2022	09:58	-131.735	47.549	0	55.70	0	7.6740	0	32.3330	0	25.227	0	55.227	0	277.9	4	94.3	4	-1E+10	1	-1E+10	1	-1E+10	1	-1E+10	1	-1E+10	1	-1E+10	1
4902549	58	C	03/18/2022	09:58	-131.735	47.549	0	56.70	0	7.6750	0	32.3340	0	25.228	0	56.219	0	277.5	4	94.2	4	-1E+10	1	-1E+10	1	-1E+10	1	-1E+10	1	-1E+10	1	-1E+10	1
4902549	58	C	03/18/2022	09:58	-131.735	47.549	0	57.70	0	7.6720	0	32.3360	0	25.230	0	57.210	0	277.2	4	94.1	4	-1E+10	1	-1E+10	1	-1E+10	1	-1E+10	1	-1E+10	1	-1E+10	1
4902549	58	C	03/18/2022	09:58	-131.735	47.549	0	58.70	0	7.6720	0	32.3360	0	25.230	0	58.202	0	276.8	4	93.9	4	-1E+10	1	-1E+10	1	-1E+10	1	-1E+10	1	-1E+10	1	-1E+10	1
4902549	58	C	03/18/2022	09:58	-131.735	47.549	0	59.70	0	7.6710	0	32.3360	0	25.230	0	59.193	0	276.3	4	93.7	4	-1E+10	1	-1E+10	1	-1E+10	1	-1E+10	1	-1E+10	1	-1E+10	1
4902549	58	C	03/18/2022	09:58	-131.735	47.549	0	60.70	0	7.6800	0	32.3380	0	25.230	0	60.184	0	275.8	4	93.6	4	-1E+10	1	-1E+10	1	-1E+10	1	-1E+10	1	-1E+10	1	-1E+10	1
4902549	58	C	03/18/2022	09:58	-131.735	47.549	0	61.70	0	7.6850	0	32.3360	0	25.228	0	61.176	0	275.4	4	93.5	4	-1E+10	1	-1E+10	1	-1E+10	1	-1E+10	1	-1E+10	1	-1E+10	1
4902549	58	C	03/18/2022	09:58	-131.735	47.549	0	62.70	0	7.6890	0	32.3400	0	25.231	0	62.167	0	274.9	4	93.3	4	-1E+10	1	-1E+10	1	-1E+10	1	-1E+10	1	-1E+10	1	-1E+10	1
4902549	58	C	03/18/2022	09:58	-131.735	47.549	0	63.70	0	7.6900	0	32.3400	0	25.231	0	63.158	0	274.4	4	93.2	4	-1E+10	1	-1E+10	1	-1E+10	1	-1E+10	1	-1E+10	1	-1E+10	1
4902549	58	C	03/18/2022	09:58	-131.735	47.549	0	64.70	0	7.7010	0	32.3440	0	25.232	0	64.150	0	274.0	4	93.0	4	-1E+10	1	-1E+10	1	-1E+10	1	-1E+10	1	-1E+10	1	-1E+10	1
4902549	58	C	03/18/2022	09:58	-131.735	47.549	0	65.90	0	7.6990	0	32.3420	0	25.231	0	65.339	0	273.6	4	92.9	4	-1E+10	1	-1E+10	1	-1E+10	1	-1E+10	1	-1E+10	1	-1E+10	1
4902549	58	C	03/18/2022	09:58	-131.735	47.549	0	67.10	0	7.6730	0	32.3470	0	25.239	0	66.529	0	273.0	4	92.7	4	-1E+10	1	-1E+10	1	-1E+10	1	-1E+10	1	-1E+10	1	-1E+10	1
4902549	58	C	03/18/2022	09:58	-131.735	47.549	0	68.30	0	7.6420	0	32.3440	0	25.241	0	67.718	0	272.0	4	92.2	4	-1E+10	1	-1E+10	1	-1E+10	1	-1E+10	1	-1E+10	1	-1E+10	1
4902549	58	C	03/18/2022	09:58	-131.735	47.549	0	69.00	0	7.6680	0	32.3470	0	25.239	0	68.412	0	271.3	4	92.1	4	-1E+10	1	-1E+10	1	-1E+10	1	-1E+10	1	-1E+10	1	-1E+10	1
4902549	58	C	03/18/2022	09:58	-131.735	47.549	0	69.90	0	7.6850	0	32.3500	0	25.239	0	69.305	0	270.3	4	91.7	4	-1E+10	1	-1E+10	1	-1E+10	1	-1E+10	1	-1E+10	1	-1E+10	1
4902549	58	C	03/18/2022	09:58	-131.735	47.549	0	71.10	0	7.6710	0	32.3560	0	25.246	0	70.494	0	269.2	4	91.4	4	-1E+10	1	-1E+10	1	-1E+10	1	-1E+10	1	-1E+10	1	-1E+10	1
4902549	58	C	03/18/2022	09:58	-131.735	47.549	0	71.80	0	7.6770	0	32.3610	0	25.249	0	71.188	0	268.7	4	91.2	4	-1E+10	1	-1E+10	1	-1E+10	1	-1E+10	1	-1E+10	1	-1E+10	1
4902549	58	C	03/18/2022	09:58	-131.735	47.549	0	72.90	0	7.6720	0	32.3660	0	25.254	0	72.278	0	267.6	4	90.8	4	-1E+10	1	-1E+10	1	-1E+10	1	-1E+10	1	-1E+10	1	-1E+10	1
4902549	58	C	03/18/2022	09:58	-131.735	47.549	0	74.10	0	7.6080	0	32.3680	0	25.264	0	73.468	0	266.1	4	90.2	4	-1E+10	1	-1E+10	1	-1E+10	1	-1E+10	1	-1E+10	1	-1E+10	1
4902549	58	C	03/18/2022	09:58	-131.735	47.549	0	75.00	0	7.6240	0	32.3810	0	25.272	0	74.360	0	264.6	4	89.7	4	-1E+10	1	-1E+10	1	-1E+10	1	-1E+10	1	-1E+10	1	-1E+10	1
4902549	58	C	03/18/2022	09:58	-131.735	47.549	0	76.10	0	7.6230	0	32.3910	0	25.280	0	75.451	0	263.4	4	89.3	4	-1E+10	1	-1E+10	1	-1E+10	1	-1E+10	1	-1E+10	1	-1E+10	1
4902549	58	C	03/18/2022	09:58	-131.735	47.549	0	76.90	0	7.6240	0	32.3930	0	25.282	0	76.244	0	262.3	4	89.0	4	-1E+10	1	-1E+10	1	-1E+10	1	-1E+10	1	-1E+10	1	-1E+10	1
4902549	58	C	03/18/2022	09:58	-131.735	47.549	0	77.80	0	7.6170	0	32.3960	0	25.285	0	77.136	0	261.2	4	88.6	4	-1E+10	1	-1E+10	1	-1E+10	1	-1E+10	1	-1E+10	1	-1E+10	1
4902549	58	C	03/18/2022	09:58	-131.735	47.549	0	78.90	0	7.6030	0	32.4020	0	25.292	0	78.226	0	260.1	4	88.2	4	-1E+10	1	-1E+10	1	-1E+10	1	-1E+10	1	-1E+10	1	-1E+10	1
4902549	58	C	03/18/2022	09:58	-131.735	47.549	0	80.00	0	7.5870	0	32.4070	0	25.298	0	79.317	0	258.7	4	87.7	4	-1E+10	1	-1E+10	1	-1E+10	1	-1E+10	1	-1E+10	1	-1E+10	1
4902549	58	C	03/18/2022	09:58	-131.735	47.549	0	80.90	0	7.5730	0	32.4110	0	25.303	0	80.209	0	257.6	4	87.3	4	-1E+10	1	-1E+10	1	-1E+10	1	-1E+10	1	-1E+10	1	-1E+10	1
4902549	58	C	03/18/2022	09:58	-131.735	47.549	0	81.90	0	7.5590	0	32.4190	0	25.311	0	81.200	0	256.2	4	86.7	4	-1E+10	1	-1E+10	1	-1E+10	1	-1E+10	1	-1E+10	1	-1E+10	1
4902549	58	C	03/18/2022	09:58	-131.735	47.549	0	83.10	0	7.5510	0	32.4290	0	25.320	0	82.389	0	254.5	4	86.2	4	-1E+10	1	-1E+10	1	-1E+10	1	-1E+10	1	-1E+10	1	-1E+10	1
4902549	58	C	03/18/2022	09:58	-131.735	47.549	0	83.80	0	7.5290	0	32.4410	0	25.333	0	83.083	0	260.1	4	88.0	4	-1E+10	1	-1E+10	1	-1E+10	1	-1E+10	1	-1E+10	1	-1E+10	1
4902549	58	C	03/18/2022	09:58	-131.735	47.549	0	84.80	0	7.5180	0	32.4580	0	25.348	0	84.075	0	258.8	4	87.6	4	-1E+10	1	-1E+10	1	-1E+10	1	-1E+10	1	-1E+10	1	-1E+10	1
4902549	58	C	03/18/2022	09:58	-131.735	47.549	0	85.80	0	7.5150	0	32.4660	0	25.354	0	85.066	0	257.5	4	87.1	4	-1E+10	1	-1E+10	1	-1E+10	1	-1E+10	1	-1E+10	1	-1E+10	1
4902549	58	C	03/18/2022	09:58	-131.735	47.549	0	86.90	0	7.5120	0	32.4700	0	25.358	0	86.156	0	256.0	4	86.6	4	-1E+10	1	-1E+10	1	-1E+10	1	-1E+10	1	-1E+10	1	-1E+10	1
4902549	58	C	03/18/2022	09:58	-131.735	47.549	0	87.80	0	7.5080	0	32.4710	0	25.359	0	87.048	0	254.3	4	86.1	4	-1E+10	1	-1E+10	1	-1E+10	1	-1E+10	1	-1E+10	1	-1E+10	1
4902549	58	C	03/18/2022	09:58	-131.735	47.549	0	88.80	0	7.5070	0	32.4720	0	25.360	0	88.040	0	252.4	4	85.4	4	-1E+10	1	-1E+10	1	-1E+10	1	-1E+10	1	-1E+10	1	-1E+10	1
4902549	58	C	03/18/2022	09:58	-131.735	47.549	0	89.90	0	7.4770	0	32.4960	0	25.383	0	89.130	0	250.7	4	84.8	4	-1E+10	1	-1E+10	1	-1E+10	1	-1E+10	1	-1E+10	1	-1E+10	1
4902549	58	C	03/18/2022	09:58	-131.735	47.549	0	91.10	0	7.4670	0	32.5210	0	25.404	0	90.319	0	248.6	4	84.1	4	-1E+10	1	-1E+10	1	-1E+10	1	-1E+10	1	-1E+10	1	-1E+10	1
4902549	58	C	03/18/2022	09:58	-131.735	47.549	0	92.00	0	7.4860	0	32.5630	0	25.435	0	91.211	0	247.2	4	83.7	4	-1E+10	1	-1E+10	1	-1E+10	1	-1E+10	1	-1E+10	1	-1E+10	1
4902549	58	C	03/18/2022	09:58	-131.735	47.549	0	92.90	0	7.4900	0	32.5750	0	25.444	0	92.104	0	246.1	4	83.3	4	-1E+10	1	-1E+10	1	-1E+10	1	-1E+10	1	-1E+10	1	-1E+10	1
4902549	58	C	03/18/2022	09:58	-131.735	47.549	0	94.00	0	7.4930	0	32.5810	0	25.448	0	93.194	0	244.4	4	82.7	4	-1E+10	1	-1E+10	1	-1E+10	1	-1E+10	1	-1E+10	1	-1E+10	1
4902549	58	C	03/18/2022	09:58	-131.735	47.549	0	95.00	0	7.5070	0	32.5930	0	25.455	0	94.185	0	242.8	4	82.2	4	-1E+10	1	-1E+10	1	-1E+10	1	-1E+10	1	-1E+10	1	-1E+10	1
4902549	58	C	03/18/2022	09:58	-131.735	47.549	0	96.10	0	7.5130	0	32.6050	0	25.464	0	95.275	0	241.0	4	81.7	4	-1E+10	1	-1E+10	1	-1E+10	1	-1E+10	1	-1E+10	1	-1E+10	1
4902549	58	C	03/18/2022	09:58	-131.735	47.549	0	97.00	0	7.5150	0	32.6110	0	25.468	0	96.167	0	239.7	4	81.2	4	-1E+10	1	-1E+10	1	-1E+10	1	-1E+10	1	-1E+10	1	-1E+10	1
4902549	58	C	03/18/2022	09:58	-131.735	47.549	0	97.80	0	7.5150	0	32.6180	0	25.474	0	96.960	0	238.2	4	80.7	4	-1E+10	1	-1E+10	1	-1E+10	1	-1E+10	1	-1E+10	1	-1E+10	1
4902549	58	C	03/18/2022	09:58	-131.735	47.549	0	98.80	0	7.5130	0	32.6240	0	25.479	0	97.952	0	236.0	4	80.0	4	-1E+10	1	-1E+10	1	-1E+10	1	-1E+10	1	-1E+10	1	-1E+10	1
4902549	58	C	03/18/2022	09:58	-131.735	47.549	0	100.00	0	7.5080	0	32.6530	0	25.502	0	99.141	0	233.3	4	79.1	4	-1E+10	1	-1E+10	1	-1E+10	1	-1E+10	1	-1E+10	1	-1E+10	1
4902549	58	C	03/18/2022	09:58	-131.735	47.549	0	100.90	0	7.4830	0	32.7120	0	25.552	0	100.033	0	231.5	4	78.4	4	-1E+10	1	-1E+10	1	-1E+10	1	-1E+10	1	-1E+10	1	-1E+10	1
4902549	58	C	03/18/2022	09:58	-131.735	47.549	0	101.80	0	7.4790	0	32.7230	0	25.562	0	100.925	0	229.4	4	77.7	4	-1E+10	1	-1E+10	1	-1E+10	1	-1E+10	1	-1E+10	1	-1E+10	1
4902549	58	C	03/18/2022	09:58	-131.735	47.549	0	103.10	0	7.4710	0	32.7350	0	25.572	0	102.214	0	226.5	4	76.7	4	-1E+10	1	-1E+10	1	-1E+10	1	-1E+10	1	-1E+10	1	-1E+10	1
4902549	58	C	03/18/2022	09:58	-131.735	47.549	0	104.10	0	7.4780	0	32.8170	0	25.636	0	103.205	0	224.7	4	76.2	4	-1E+10	1	-1E+10	1	-1E+10	1	-1E+10	1	-1E+10	1	-1E+10	1
4902549	58	C	03/18/2022	09:58	-131.735	47.549	0	105.10	0	7.4560	0	32.8450	0	25.661	0	104.196	0	223.3	4	75.7	4	-1E+10	1	-1E+10	1	-1E+10	1	-1E+10	1	-1E+10	1	-1E+10	1
4902549	58	C	03/18/2022	09:58	-131.735	47.549	0	106.10	0	7.3490	0	32.8870	0	25.709	0	105.187	0	222.0	4	75.1	4	-1E+10	1	-1E+10	1	-1E+10	1	-1E+10	1	-1E+10	1	-1E+10	1
4902549	58	C	03/18/2022	09:58	-131.735	47.549	0	106.70	0	7.3370	0	32.9110	0	25.729	0	105.782	0	220.8	4	74.7	4	-1E+10	1	-1E+10	1	-1E+10	1	-1E+10	1	-1E+10	1	-1E+10	1
4902549	58	C	03/18/2022	09:58	-131.735	47.549	0	107.80	0	7.3330	0	32.9430	0	25.755	0	106.872	0	219.0	4	74.1	4	-1E+10	1	-1E+10	1	-1E+10	1	-1E+10	1	-1E+10	1	-1E+10	1
4902549	58	C	03/18/2022	09:58	-131.735	47.549	0	109.00	0	7.3240	0	32.9710	0	25.778	0	108.061	0	217.1	4	73.4	4	-1E+10	1	-1E+10	1	-1E+10	1	-1E+10	1	-1E+10	1	-1E+10	1
4902549	58	C	03/18/2022	09:58	-131.735	47.549	0	109.80	0	7.3290	0	32.9920	0	25.794	0	108.854	0	215.9	4	73.0	4	-1E+10	1	-1E+10	1	-1E+10	1	-1E+10	1	-1E+10	1	-1E+10	1
4902549	58	C	03/18/2022	09:58	-131.735	47.549	0	111.00	0	7.3540	0	33.0130	0	25.807	0	110.044	0	214.1	4	72.5	4	-1E+10	1	-1E+10	1	-1E+10	1	-1E+10	1	-1E+10	1	-1E+10	1
4902549	58	C	03/18/2022	09:58	-131.735	47.549	0	112.20	0	7.3730	0	33.0470	0	25.831	0	111.233	0	212.2	4	71.9	4	-1E+10	1	-1E+10	1	-1E+10	1	-1E+10	1	-1E+10	1	-1E+10	1
4902549	58	C	03/18/2022	09:58	-131.735	47.549	0	113.10	0	7.3650	0	33.0650	0	25.846	0	112.125	0	210.8	4	71.4	4	-1E+10	1	-1E+10	1	-1E+10	1	-1E+10	1	-1E+10	1	-1E+10	1
4902549	58	C	03/18/2022	09:58	-131.735	47.549	0	113.90	0	7.3790	0	33.1150	0	25.884	0	112.918	0	209.8	4	71.1	4	-1E+10	1	-1E+10	1	-1E+10	1	-1E+10	1	-1E+10	1	-1E+10	1
4902549	58	C	03/18/2022	09:58	-131.735	47.549	0	114.80	0	7.3860	0	33.1390	0	25.902	0	113.810	0	208.7	4	70.8	4	-1E+10	1	-1E+10	1	-1E+10	1	-1E+10	1	-1E+10	1	-1E+10	1
4902549	58	C	03/18/2022	09:58	-131.735	47.549	0	115.70	0	7.3870	0	33.1440	0	25.906	0	114.702	0	207.5	4	70.4	4	-1E+10	1	-1E+10	1	-1E+10	1	-1E+10	1	-1E+10	1	-1E+10	1
4902549	58	C	03/18/2022	09:58	-131.735	47.549	0	117.00	0	7.3850	0	33.1560	0	25.915	0	115.990	0	205.4	4	69.7	4	-1E+10	1	-1E+10	1	-1E+10	1	-1E+10	1	-1E+10	1	-1E+10	1
4902549	58	C	03/18/2022	09:58	-131.735	47.549	0	118.30	0	7.3730	0	33.1750	0	25.932	0	117.279	0	203.0	4	68.8	4	-1E+10	1	-1E+10	1	-1E+10	1	-1E+10	1	-1E+10	1	-1E+10	1
4902549	58	C	03/18/2022	09:58	-131.735	47.549	0	119.30	0	7.3730	0	33.1960	0	25.948	0	118.270	0	201.0	4	68.2	4	-1E+10	1	-1E+10	1	-1E+10	1	-1E+10	1	-1E+10	1	-1E+10	1
4902549	58	C	03/18/2022	09:58	-131.735	47.549	0	120.10	0	7.3850	0	33.2170	0	25.963	0	119.062	0	199.0	4	67.5	4	-1E+10	1	-1E+10	1	-1E+10	1	-1E+10	1	-1E+10	1	-1E+10	1
4902549	58	C	03/18/2022	09:58	-131.735	47.549	0	121.00	0	7.4010	0	33.2280	0	25.970	0	119.954	0	196.8	4	66.8	4	-1E+10	1	-1E+10	1	-1E+10	1	-1E+10	1	-1E+10	1	-1E+10	1
4902549	58	C	03/18/2022	09:58	-131.735	47.549	0	121.90	0	7.4600	0	33.2710	0	25.995	0	120.846	0	196.4	4	66.8	4	-1E+10	1	-1E+10	1	-1E+10	1	-1E+10	1	-1E+10	1	-1E+10	1
4902549	58	C	03/18/2022	09:58	-131.735	47.549	0	122.90	0	7.4590	0	33.3200	0	26.034	0	121.837	0	197.0	4	67.0	4	-1E+10	1	-1E+10	1	-1E+10	1	-1E+10	1	-1E+10	1	-1E+10	1
4902549	58	C	03/18/2022	09:58	-131.735	47.549	0	123.80	0	7.4570	0	33.3470	0	26.056	0	122.729	0	197.7	4	67.3	4	-1E+10	1	-1E+10	1	-1E+10	1	-1E+10	1	-1E+10	1	-1E+10	1
4902549	58	C	03/18/2022	09:58	-131.735	47.549	0	124.80	0	7.4040	0	33.4040	0	26.108	0	123.720	0	197.9	4	67.3	4	-1E+10	1	-1E+10	1	-1E+10	1	-1E+10	1	-1E+10	1	-1E+10	1
4902549	58	C	03/18/2022	09:58	-131.735	47.549	0	125.80	0	7.3840	0	33.4270	0	26.129	0	124.712	0	197.5	4	67.1	4	-1E+10	1	-1E+10	1	-1E+10	1	-1E+10	1	-1E+10	1	-1E+10	1
4902549	58	C	03/18/2022	09:58	-131.735	47.549	0	126.70	0	7.3840	0	33.4460	0	26.144	0	125.603	0	196.7	4	66.9	4	-1E+10	1	-1E+10	1	-1E+10	1	-1E+10	1	-1E+10	1	-1E+10	1
4902549	58	C	03/18/2022	09:58	-131.735	47.549	0	127.70	0	7.3890	0	33.4500	0	26.146	0	126.594	0	196.0	4	66.6	4	-1E+10	1	-1E+10	1	-1E+10	1	-1E+10	1	-1E+10	1	-1E+10	1
4902549	58	C	03/18/2022	09:58	-131.735	47.549	0	128.70	0	7.3910	0	33.4820	0	26.171	0	127.586	0	195.3	4	66.4	4	-1E+10	1	-1E+10	1	-1E+10	1	-1E+10	1	-1E+10	1	-1E+10	1
4902549	58	C	03/18/2022	09:58	-131.735	47.549	0	129.70	0	7.3860	0	33.4940	0	26.181	0	128.577	0	194.8	4	66.2	4	-1E+10	1	-1E+10	1	-1E+10	1	-1E+10	1	-1E+10	1	-1E+10	1
4902549	58	C	03/18/2022	09:58	-131.735	47.549	0	130.70	0	7.3860	0	33.4950	0	26.182	0	129.568	0	194.1	4	66.0	4	-1E+10	1	-1E+10	1	-1E+10	1	-1E+10	1	-1E+10	1	-1E+10	1
4902549	58	C	03/18/2022	09:58	-131.735	47.549	0	131.70	0	7.3800	0	33.5020	0	26.188	0	130.559	0	193.5	4	65.8	4	-1E+10	1	-1E+10	1	-1E+10	1	-1E+10	1	-1E+10	1	-1E+10	1
4902549	58	C	03/18/2022	09:58	-131.735	47.549	0	132.70	0	7.3790	0	33.5140	0	26.198	0	131.550	0	193.0	4	65.6	4	-1E+10	1	-1E+10	1	-1E+10	1	-1E+10	1	-1E+10	1	-1E+10	1
4902549	58	C	03/18/2022	09:58	-131.735	47.549	0	133.60	0	7.3740	0	33.5230	0	26.206	0	132.442	0	192.5	4	65.4	4	-1E+10	1	-1E+10	1	-1E+10	1	-1E+10	1	-1E+10	1	-1E+10	1
4902549	58	C	03/18/2022	09:58	-131.735	47.549	0	134.90	0	7.3640	0	33.5350	0	26.217	0	133.730	0	191.6	4	65.1	4	-1E+10	1	-1E+10	1	-1E+10	1	-1E+10	1	-1E+10	1	-1E+10	1
4902549	58	C	03/18/2022	09:58	-131.735	47.549	0	136.40	0	7.3510	0	33.5600	0	26.238	0	135.216	0	190.7	4	64.8	4	-1E+10	1	-1E+10	1	-1E+10	1	-1E+10	1	-1E+10	1	-1E+10	1
4902549	58	C	03/18/2022	09:58	-131.735	47.549	0	137.40	0	7.3450	0	33.5730	0	26.249	0	136.207	0	190.2	4	64.7	4	-1E+10	1	-1E+10	1	-1E+10	1	-1E+10	1	-1E+10	1	-1E+10	1
4902549	58	C	03/18/2022	09:58	-131.735	47.549	0	138.30	0	7.3420	0	33.5860	0	26.260	0	137.099	0	189.8	4	64.5	4	-1E+10	1	-1E+10	1	-1E+10	1	-1E+10	1	-1E+10	1	-1E+10	1
4902549	58	C	03/18/2022	09:58	-131.735	47.549	0	139.30	0	7.3350	0	33.5970	0	26.269	0	138.090	0	189.4	4	64.4	4	-1E+10	1	-1E+10	1	-1E+10	1	-1E+10	1	-1E+10	1	-1E+10	1
4902549	58	C	03/18/2022	09:58	-131.735	47.549	0	140.30	0	7.2930	0	33.6330	0	26.304	0	139.081	0	189.3	4	64.3	4	-1E+10	1	-1E+10	1	-1E+10	1	-1E+10	1	-1E+10	1	-1E+10	1
4902549	58	C	03/18/2022	09:58	-131.735	47.549	0	141.40	0	7.2730	0	33.6390	0	26.311	0	140.171	0	189.3	4	64.3	4	-1E+10	1	-1E+10	1	-1E+10	1	-1E+10	1	-1E+10	1	-1E+10	1
4902549	58	C	03/18/2022	09:58	-131.735	47.549	0	142.40	0	7.2520	0	33.6460	0	26.320	0	141.162	0	189.2	4	64.2	4	-1E+10	1	-1E+10	1	-1E+10	1	-1E+10	1	-1E+10	1	-1E+10	1
4902549	58	C	03/18/2022	09:58	-131.735	47.549	0	143.40	0	7.2400	0	33.6530	0	26.327	0	142.153	0	188.9	4	64.1	4	-1E+10	1	-1E+10	1	-1E+10	1	-1E+10	1	-1E+10	1	-1E+10	1
4902549	58	C	03/18/2022	09:58	-131.735	47.549	0	144.50	0	7.2290	0	33.6600	0	26.334	0	143.243	0	188.8	4	64.0	4	-1E+10	1	-1E+10	1	-1E+10	1	-1E+10	1	-1E+10	1	-1E+10	1
4902549	58	C	03/18/2022	09:58	-131.735	47.549	0	145.50	0	7.2190	0	33.6640	0	26.338	0	144.234	0	188.5	4	63.9	4	-1E+10	1	-1E+10	1	-1E+10	1	-1E+10	1	-1E+10	1	-1E+10	1
4902549	58	C	03/18/2022	09:58	-131.735	47.549	0	146.50	0	7.1920	0	33.6730	0	26.349	0	145.225	0	188.3	4	63.8	4	-1E+10	1	-1E+10	1	-1E+10	1	-1E+10	1	-1E+10	1	-1E+10	1
4902549	58	C	03/18/2022	09:58	-131.735	47.549	0	147.50	0	7.1830	0	33.6740	0	26.351	0	146.216	0	188.1	4	63.7	4	-1E+10	1	-1E+10	1	-1E+10	1	-1E+10	1	-1E+10	1	-1E+10	1
4902549	58	C	03/18/2022	09:58	-131.735	47.549	0	148.50	0	7.1710	0	33.6780	0	26.356	0	147.207	0	187.7	4	63.6	4	-1E+10	1	-1E+10	1	-1E+10	1	-1E+10	1	-1E+10	1	-1E+10	1
4902549	58	C	03/18/2022	09:58	-131.735	47.549	0	149.90	0	7.1650	0	33.6750	0	26.355	0	148.594	0	187.1	4	63.4	4	-1E+10	1	-1E+10	1	-1E+10	1	-1E+10	1	-1E+10	1	-1E+10	1
4902549	58	C	03/18/2022	09:58	-131.735	47.549	0	152.00	0	7.1330	0	33.6900	0	26.371	0	150.675	0	186.2	4	63.0	4	-1E+10	1	-1E+10	1	-1E+10	1	-1E+10	1	-1E+10	1	-1E+10	1
4902549	58	C	03/18/2022	09:58	-131.735	47.549	0	153.20	0	7.1160	0	33.6990	0	26.380	0	151.864	0	185.7	4	62.8	4	-1E+10	1	-1E+10	1	-1E+10	1	-1E+10	1	-1E+10	1	-1E+10	1
4902549	58	C	03/18/2022	09:58	-131.735	47.549	0	153.90	0	7.0960	0	33.7060	0	26.388	0	152.558	0	185.4	4	62.7	4	-1E+10	1	-1E+10	1	-1E+10	1	-1E+10	1	-1E+10	1	-1E+10	1
4902549	58	C	03/18/2022	09:58	-131.735	47.549	0	154.70	0	7.0930	0	33.7060	0	26.389	0	153.351	0	185.2	4	62.6	4	-1E+10	1	-1E+10	1	-1E+10	1	-1E+10	1	-1E+10	1	-1E+10	1
4902549	58	C	03/18/2022	09:58	-131.735	47.549	0	155.90	0	7.0850	0	33.7090	0	26.392	0	154.540	0	184.7	4	62.5	4	-1E+10	1	-1E+10	1	-1E+10	1	-1E+10	1	-1E+10	1	-1E+10	1
4902549	58	C	03/18/2022	09:58	-131.735	47.549	0	157.10	0	7.0760	0	33.7130	0	26.397	0	155.729	0	184.2	4	62.3	4	-1E+10	1	-1E+10	1	-1E+10	1	-1E+10	1	-1E+10	1	-1E+10	1
4902549	58	C	03/18/2022	09:58	-131.735	47.549	0	157.90	0	7.0680	0	33.7160	0	26.400	0	156.522	0	183.9	4	62.2	4	-1E+10	1	-1E+10	1	-1E+10	1	-1E+10	1	-1E+10	1	-1E+10	1
4902549	58	C	03/18/2022	09:58	-131.735	47.549	0	159.00	0	7.0600	0	33.7170	0	26.402	0	157.612	0	183.2	4	61.9	4	-1E+10	1	-1E+10	1	-1E+10	1	-1E+10	1	-1E+10	1	-1E+10	1
4902549	58	C	03/18/2022	09:58	-131.735	47.549	0	160.20	0	7.0490	0	33.7210	0	26.407	0	158.801	0	182.6	4	61.7	4	-1E+10	1	-1E+10	1	-1E+10	1	-1E+10	1	-1E+10	1	-1E+10	1
4902549	58	C	03/18/2022	09:58	-131.735	47.549	0	161.00	0	7.0390	0	33.7230	0	26.410	0	159.593	0	182.1	4	61.5	4	-1E+10	1	-1E+10	1	-1E+10	1	-1E+10	1	-1E+10	1	-1E+10	1
4902549	58	C	03/18/2022	09:58	-131.735	47.549	0	161.80	0	7.0240	0	33.7280	0	26.416	0	160.386	0	181.7	4	61.4	4	-1E+10	1	-1E+10	1	-1E+10	1	-1E+10	1	-1E+10	1	-1E+10	1
4902549	58	C	03/18/2022	09:58	-131.735	47.549	0	163.00	0	6.9950	0	33.7340	0	26.424	0	161.575	0	181.0	4	61.1	4	-1E+10	1	-1E+10	1	-1E+10	1	-1E+10	1	-1E+10	1	-1E+10	1
4902549	58	C	03/18/2022	09:58	-131.735	47.549	0	164.20	0	6.9780	0	33.7380	0	26.430	0	162.764	0	180.4	4	60.9	4	-1E+10	1	-1E+10	1	-1E+10	1	-1E+10	1	-1E+10	1	-1E+10	1
4902549	58	C	03/18/2022	09:58	-131.735	47.549	0	165.00	0	6.9650	0	33.7430	0	26.436	0	163.557	0	180.1	4	60.7	4	-1E+10	1	-1E+10	1	-1E+10	1	-1E+10	1	-1E+10	1	-1E+10	1
4902549	58	C	03/18/2022	09:58	-131.735	47.549	0	165.80	0	6.9420	0	33.7460	0	26.441	0	164.349	0	179.7	4	60.6	4	-1E+10	1	-1E+10	1	-1E+10	1	-1E+10	1	-1E+10	1	-1E+10	1
4902549	58	C	03/18/2022	09:58	-131.735	47.549	0	166.60	0	6.9350	0	33.7470	0	26.443	0	165.142	0	179.3	4	60.4	4	-1E+10	1	-1E+10	1	-1E+10	1	-1E+10	1	-1E+10	1	-1E+10	1
4902549	58	C	03/18/2022	09:58	-131.735	47.549	0	167.90	0	6.9230	0	33.7490	0	26.446	0	166.430	0	178.5	4	60.2	4	-1E+10	1	-1E+10	1	-1E+10	1	-1E+10	1	-1E+10	1	-1E+10	1
4902549	58	C	03/18/2022	09:58	-131.735	47.549	0	169.10	0	6.9110	0	33.7500	0	26.449	0	167.619	0	177.7	4	59.9	4	-1E+10	1	-1E+10	1	-1E+10	1	-1E+10	1	-1E+10	1	-1E+10	1
4902549	58	C	03/18/2022	09:58	-131.735	47.549	0	169.90	0	6.9040	0	33.7500	0	26.449	0	168.412	0	177.1	4	59.7	4	-1E+10	1	-1E+10	1	-1E+10	1	-1E+10	1	-1E+10	1	-1E+10	1
4902549	58	C	03/18/2022	09:58	-131.735	47.549	0	170.70	0	6.8910	0	33.7520	0	26.453	0	169.205	0	176.4	4	59.4	4	-1E+10	1	-1E+10	1	-1E+10	1	-1E+10	1	-1E+10	1	-1E+10	1
4902549	58	C	03/18/2022	09:58	-131.735	47.549	0	171.60	0	6.8600	0	33.7560	0	26.460	0	170.096	0	175.8	4	59.2	4	-1E+10	1	-1E+10	1	-1E+10	1	-1E+10	1	-1E+10	1	-1E+10	1
4902549	58	C	03/18/2022	09:58	-131.735	47.549	0	172.90	0	6.8110	0	33.7620	0	26.471	0	171.384	0	175.2	4	58.9	4	-1E+10	1	-1E+10	1	-1E+10	1	-1E+10	1	-1E+10	1	-1E+10	1
4902549	58	C	03/18/2022	09:58	-131.735	47.549	0	174.20	0	6.7850	0	33.7630	0	26.476	0	172.672	0	174.7	4	58.7	4	-1E+10	1	-1E+10	1	-1E+10	1	-1E+10	1	-1E+10	1	-1E+10	1
4902549	58	C	03/18/2022	09:58	-131.735	47.549	0	175.00	0	6.7380	0	33.7650	0	26.484	0	173.465	0	174.5	4	58.6	4	-1E+10	1	-1E+10	1	-1E+10	1	-1E+10	1	-1E+10	1	-1E+10	1
4902549	58	C	03/18/2022	09:58	-131.735	47.549	0	175.90	0	6.7300	0	33.7630	0	26.483	0	174.357	0	174.2	4	58.5	4	-1E+10	1	-1E+10	1	-1E+10	1	-1E+10	1	-1E+10	1	-1E+10	1
4902549	58	C	03/18/2022	09:58	-131.735	47.549	0	176.70	0	6.7190	0	33.7660	0	26.487	0	175.150	0	173.8	4	58.3	4	-1E+10	1	-1E+10	1	-1E+10	1	-1E+10	1	-1E+10	1	-1E+10	1
4902549	58	C	03/18/2022	09:58	-131.735	47.549	0	178.00	0	6.7120	0	33.7640	0	26.486	0	176.438	0	173.2	4	58.1	4	-1E+10	1	-1E+10	1	-1E+10	1	-1E+10	1	-1E+10	1	-1E+10	1
4902549	58	C	03/18/2022	09:58	-131.735	47.549	0	179.30	0	6.7090	0	33.7640	0	26.487	0	177.726	0	172.5	4	57.9	4	-1E+10	1	-1E+10	1	-1E+10	1	-1E+10	1	-1E+10	1	-1E+10	1
4902549	58	C	03/18/2022	09:58	-131.735	47.549	0	180.20	0	6.7010	0	33.7660	0	26.489	0	178.617	0	172.0	4	57.7	4	-1E+10	1	-1E+10	1	-1E+10	1	-1E+10	1	-1E+10	1	-1E+10	1
4902549	58	C	03/18/2022	09:58	-131.735	47.549	0	181.00	0	6.6960	0	33.7660	0	26.490	0	179.410	0	171.6	4	57.5	4	-1E+10	1	-1E+10	1	-1E+10	1	-1E+10	1	-1E+10	1	-1E+10	1
4902549	58	C	03/18/2022	09:58	-131.735	47.549	0	181.90	0	6.6920	0	33.7660	0	26.491	0	180.302	0	171.0	4	57.3	4	-1E+10	1	-1E+10	1	-1E+10	1	-1E+10	1	-1E+10	1	-1E+10	1
4902549	58	C	03/18/2022	09:58	-131.735	47.549	0	182.70	0	6.6700	0	33.7680	0	26.495	0	181.094	0	170.5	4	57.2	4	-1E+10	1	-1E+10	1	-1E+10	1	-1E+10	1	-1E+10	1	-1E+10	1
4902549	58	C	03/18/2022	09:58	-131.735	47.549	0	183.60	0	6.6380	0	33.7710	0	26.502	0	181.986	0	170.1	4	57.0	4	-1E+10	1	-1E+10	1	-1E+10	1	-1E+10	1	-1E+10	1	-1E+10	1
4902549	58	C	03/18/2022	09:58	-131.735	47.549	0	184.90	0	6.6170	0	33.7720	0	26.505	0	183.274	0	169.6	4	56.8	4	-1E+10	1	-1E+10	1	-1E+10	1	-1E+10	1	-1E+10	1	-1E+10	1
4902549	58	C	03/18/2022	09:58	-131.735	47.549	0	186.20	0	6.5800	0	33.7730	0	26.511	0	184.562	0	169.1	4	56.6	4	-1E+10	1	-1E+10	1	-1E+10	1	-1E+10	1	-1E+10	1	-1E+10	1
4902549	58	C	03/18/2022	09:58	-131.735	47.549	0	187.10	0	6.5760	0	33.7720	0	26.511	0	185.454	0	168.7	4	56.4	4	-1E+10	1	-1E+10	1	-1E+10	1	-1E+10	1	-1E+10	1	-1E+10	1
4902549	58	C	03/18/2022	09:58	-131.735	47.549	0	187.90	0	6.5730	0	33.7710	0	26.510	0	186.246	0	168.2	4	56.3	4	-1E+10	1	-1E+10	1	-1E+10	1	-1E+10	1	-1E+10	1	-1E+10	1
4902549	58	C	03/18/2022	09:58	-131.735	47.549	0	188.80	0	6.5680	0	33.7700	0	26.510	0	187.138	0	167.7	4	56.1	4	-1E+10	1	-1E+10	1	-1E+10	1	-1E+10	1	-1E+10	1	-1E+10	1
4902549	58	C	03/18/2022	09:58	-131.735	47.549	0	189.70	0	6.5640	0	33.7700	0	26.511	0	188.030	0	167.1	4	55.9	4	-1E+10	1	-1E+10	1	-1E+10	1	-1E+10	1	-1E+10	1	-1E+10	1
4902549	58	C	03/18/2022	09:58	-131.735	47.549	0	190.60	0	6.5360	0	33.7710	0	26.515	0	188.921	0	166.6	4	55.7	4	-1E+10	1	-1E+10	1	-1E+10	1	-1E+10	1	-1E+10	1	-1E+10	1
4902549	58	C	03/18/2022	09:58	-131.735	47.549	0	191.90	0	6.5080	0	33.7720	0	26.520	0	190.209	0	165.9	4	55.4	4	-1E+10	1	-1E+10	1	-1E+10	1	-1E+10	1	-1E+10	1	-1E+10	1
4902549	58	C	03/18/2022	09:58	-131.735	47.549	0	193.30	0	6.5020	0	33.7720	0	26.520	0	191.596	0	165.2	4	55.1	4	-1E+10	1	-1E+10	1	-1E+10	1	-1E+10	1	-1E+10	1	-1E+10	1
4902549	58	C	03/18/2022	09:58	-131.735	47.549	0	194.20	0	6.4930	0	33.7720	0	26.522	0	192.488	0	164.6	4	55.0	4	-1E+10	1	-1E+10	1	-1E+10	1	-1E+10	1	-1E+10	1	-1E+10	1
4902549	58	C	03/18/2022	09:58	-131.735	47.549	0	195.10	0	6.4760	0	33.7730	0	26.525	0	193.379	0	164.1	4	54.8	4	-1E+10	1	-1E+10	1	-1E+10	1	-1E+10	1	-1E+10	1	-1E+10	1
4902549	58	C	03/18/2022	09:58	-131.735	47.549	0	195.90	0	6.4650	0	33.7730	0	26.526	0	194.172	0	163.5	4	54.6	4	-1E+10	1	-1E+10	1	-1E+10	1	-1E+10	1	-1E+10	1	-1E+10	1
4902549	58	C	03/18/2022	09:58	-131.735	47.549	0	196.90	0	6.4480	0	33.7730	0	26.528	0	195.163	0	162.9	4	54.3	4	-1E+10	1	-1E+10	1	-1E+10	1	-1E+10	1	-1E+10	1	-1E+10	1
4902549	58	C	03/18/2022	09:58	-131.735	47.549	0	197.70	0	6.4290	0	33.7730	0	26.531	0	195.955	0	162.5	4	54.2	4	-1E+10	1	-1E+10	1	-1E+10	1	-1E+10	1	-1E+10	1	-1E+10	1
4902549	58	C	03/18/2022	09:58	-131.735	47.549	0	198.60	0	6.4180	0	33.7730	0	26.532	0	196.847	0	161.9	4	54.0	4	-1E+10	1	-1E+10	1	-1E+10	1	-1E+10	1	-1E+10	1	-1E+10	1
4902549	58	C	03/18/2022	09:58	-131.735	47.549	0	199.60	0	6.3770	0	33.7760	0	26.540	0	197.838	0	161.5	4	53.8	4	-1E+10	1	-1E+10	1	-1E+10	1	-1E+10	1	-1E+10	1	-1E+10	1
4902549	58	C	03/18/2022	09:58	-131.735	47.549	0	200.90	0	6.3750	0	33.7730	0	26.538	0	199.126	0	160.6	4	53.5	4	-1E+10	1	-1E+10	1	-1E+10	1	-1E+10	1	-1E+10	1	-1E+10	1
4902549	58	C	03/18/2022	09:58	-131.735	47.549	0	202.20	0	6.3690	0	33.7750	0	26.540	0	200.413	0	159.6	4	53.1	4	-1E+10	1	-1E+10	1	-1E+10	1	-1E+10	1	-1E+10	1	-1E+10	1
4902549	58	C	03/18/2022	09:58	-131.735	47.549	0	203.10	0	6.3580	0	33.7730	0	26.540	0	201.305	0	158.9	4	52.9	4	-1E+10	1	-1E+10	1	-1E+10	1	-1E+10	1	-1E+10	1	-1E+10	1
4902549	58	C	03/18/2022	09:58	-131.735	47.549	0	204.10	0	6.3330	0	33.7750	0	26.545	0	202.296	0	158.3	4	52.7	4	-1E+10	1	-1E+10	1	-1E+10	1	-1E+10	1	-1E+10	1	-1E+10	1
4902549	58	C	03/18/2022	09:58	-131.735	47.549	0	205.00	0	6.3210	0	33.7740	0	26.546	0	203.187	0	157.7	4	52.4	4	-1E+10	1	-1E+10	1	-1E+10	1	-1E+10	1	-1E+10	1	-1E+10	1
4902549	58	C	03/18/2022	09:58	-131.735	47.549	0	205.90	0	6.2770	0	33.7770	0	26.554	0	204.079	0	157.1	4	52.2	4	-1E+10	1	-1E+10	1	-1E+10	1	-1E+10	1	-1E+10	1	-1E+10	1
4902549	58	C	03/18/2022	09:58	-131.735	47.549	0	206.90	0	6.2710	0	33.7750	0	26.553	0	205.070	0	156.4	4	51.9	4	-1E+10	1	-1E+10	1	-1E+10	1	-1E+10	1	-1E+10	1	-1E+10	1
4902549	58	C	03/18/2022	09:58	-131.735	47.549	0	207.80	0	6.2560	0	33.7750	0	26.555	0	205.961	0	155.8	4	51.7	4	-1E+10	1	-1E+10	1	-1E+10	1	-1E+10	1	-1E+10	1	-1E+10	1
4902549	58	C	03/18/2022	09:58	-131.735	47.549	0	208.80	0	6.2450	0	33.7760	0	26.557	0	206.952	0	155.1	4	51.5	4	-1E+10	1	-1E+10	1	-1E+10	1	-1E+10	1	-1E+10	1	-1E+10	1
4902549	58	C	03/18/2022	09:58	-131.735	47.549	0	209.80	0	6.2370	0	33.7760	0	26.558	0	207.942	0	154.3	4	51.2	4	-1E+10	1	-1E+10	1	-1E+10	1	-1E+10	1	-1E+10	1	-1E+10	1
4902549	58	C	03/18/2022	09:58	-131.735	47.549	0	210.70	0	6.2240	0	33.7790	0	26.562	0	208.834	0	153.6	4	50.9	4	-1E+10	1	-1E+10	1	-1E+10	1	-1E+10	1	-1E+10	1	-1E+10	1
4902549	58	C	03/18/2022	09:58	-131.735	47.549	0	211.70	0	6.2030	0	33.7800	0	26.565	0	209.825	0	153.0	4	50.7	4	-1E+10	1	-1E+10	1	-1E+10	1	-1E+10	1	-1E+10	1	-1E+10	1
4902549	58	C	03/18/2022	09:58	-131.735	47.549	0	212.70	0	6.1930	0	33.7800	0	26.567	0	210.815	0	152.3	4	50.5	4	-1E+10	1	-1E+10	1	-1E+10	1	-1E+10	1	-1E+10	1	-1E+10	1
4902549	58	C	03/18/2022	09:58	-131.735	47.549	0	213.60	0	6.1810	0	33.7790	0	26.567	0	211.707	0	151.7	4	50.3	4	-1E+10	1	-1E+10	1	-1E+10	1	-1E+10	1	-1E+10	1	-1E+10	1
4902549	58	C	03/18/2022	09:58	-131.735	47.549	0	214.60	0	6.1690	0	33.7790	0	26.569	0	212.697	0	151.0	4	50.0	4	-1E+10	1	-1E+10	1	-1E+10	1	-1E+10	1	-1E+10	1	-1E+10	1
4902549	58	C	03/18/2022	09:58	-131.735	47.549	0	215.60	0	6.1540	0	33.7810	0	26.573	0	213.688	0	150.1	4	49.7	4	-1E+10	1	-1E+10	1	-1E+10	1	-1E+10	1	-1E+10	1	-1E+10	1
4902549	58	C	03/18/2022	09:58	-131.735	47.549	0	216.60	0	6.1180	0	33.7810	0	26.577	0	214.679	0	149.3	4	49.4	4	-1E+10	1	-1E+10	1	-1E+10	1	-1E+10	1	-1E+10	1	-1E+10	1
4902549	58	C	03/18/2022	09:58	-131.735	47.549	0	217.60	0	6.0960	0	33.7780	0	26.577	0	215.669	0	148.5	4	49.1	4	-1E+10	1	-1E+10	1	-1E+10	1	-1E+10	1	-1E+10	1	-1E+10	1
4902549	58	C	03/18/2022	09:58	-131.735	47.549	0	218.60	0	6.0600	0	33.7740	0	26.579	0	216.660	0	147.5	4	48.8	4	-1E+10	1	-1E+10	1	-1E+10	1	-1E+10	1	-1E+10	1	-1E+10	1
4902549	58	C	03/18/2022	09:58	-131.735	47.549	0	219.60	0	6.0420	0	33.7740	0	26.581	0	217.651	0	146.5	4	48.4	4	-1E+10	1	-1E+10	1	-1E+10	1	-1E+10	1	-1E+10	1	-1E+10	1
4902549	58	C	03/18/2022	09:58	-131.735	47.549	0	220.60	0	6.0050	0	33.7760	0	26.587	0	218.641	0	145.6	4	48.1	4	-1E+10	1	-1E+10	1	-1E+10	1	-1E+10	1	-1E+10	1	-1E+10	1
4902549	58	C	03/18/2022	09:58	-131.735	47.549	0	221.60	0	5.9940	0	33.7770	0	26.590	0	219.632	0	144.7	4	47.7	4	-1E+10	1	-1E+10	1	-1E+10	1	-1E+10	1	-1E+10	1	-1E+10	1
4902549	58	C	03/18/2022	09:58	-131.735	47.549	0	222.70	0	5.9550	0	33.7820	0	26.598	0	220.721	0	143.9	4	47.4	4	-1E+10	1	-1E+10	1	-1E+10	1	-1E+10	1	-1E+10	1	-1E+10	1
4902549	58	C	03/18/2022	09:58	-131.735	47.549	0	223.70	0	5.9440	0	33.7830	0	26.600	0	221.712	0	143.1	4	47.2	4	-1E+10	1	-1E+10	1	-1E+10	1	-1E+10	1	-1E+10	1	-1E+10	1
4902549	58	C	03/18/2022	09:58	-131.735	47.549	0	224.70	0	5.9350	0	33.7840	0	26.602	0	222.702	0	142.4	4	46.9	4	-1E+10	1	-1E+10	1	-1E+10	1	-1E+10	1	-1E+10	1	-1E+10	1
4902549	58	C	03/18/2022	09:58	-131.735	47.549	0	225.70	0	5.9310	0	33.7840	0	26.603	0	223.693	0	141.6	4	46.7	4	-1E+10	1	-1E+10	1	-1E+10	1	-1E+10	1	-1E+10	1	-1E+10	1
4902549	58	C	03/18/2022	09:58	-131.735	47.549	0	226.80	0	5.9300	0	33.7840	0	26.603	0	224.783	0	140.6	4	46.3	4	-1E+10	1	-1E+10	1	-1E+10	1	-1E+10	1	-1E+10	1	-1E+10	1
4902549	58	C	03/18/2022	09:58	-131.735	47.549	0	227.80	0	5.9250	0	33.7850	0	26.604	0	225.773	0	139.6	4	46.0	4	-1E+10	1	-1E+10	1	-1E+10	1	-1E+10	1	-1E+10	1	-1E+10	1
4902549	58	C	03/18/2022	09:58	-131.735	47.549	0	228.90	0	5.9150	0	33.7860	0	26.607	0	226.863	0	138.6	4	45.7	4	-1E+10	1	-1E+10	1	-1E+10	1	-1E+10	1	-1E+10	1	-1E+10	1
4902549	58	C	03/18/2022	09:58	-131.735	47.549	0	229.90	0	5.9070	0	33.7860	0	26.608	0	227.853	0	137.6	4	45.3	4	-1E+10	1	-1E+10	1	-1E+10	1	-1E+10	1	-1E+10	1	-1E+10	1
4902549	58	C	03/18/2022	09:58	-131.735	47.549	0	231.00	0	5.8850	0	33.7870	0	26.611	0	228.943	0	136.6	4	45.0	4	-1E+10	1	-1E+10	1	-1E+10	1	-1E+10	1	-1E+10	1	-1E+10	1
4902549	58	C	03/18/2022	09:58	-131.735	47.549	0	232.00	0	5.8330	0	33.8010	0	26.629	0	229.934	0	135.9	4	44.7	4	-1E+10	1	-1E+10	1	-1E+10	1	-1E+10	1	-1E+10	1	-1E+10	1
4902549	58	C	03/18/2022	09:58	-131.735	47.549	0	233.00	0	5.8190	0	33.7960	0	26.626	0	230.924	0	135.4	4	44.5	4	-1E+10	1	-1E+10	1	-1E+10	1	-1E+10	1	-1E+10	1	-1E+10	1
4902549	58	C	03/18/2022	09:58	-131.735	47.549	0	234.10	0	5.8000	0	33.7990	0	26.631	0	232.014	0	135.0	4	44.3	4	-1E+10	1	-1E+10	1	-1E+10	1	-1E+10	1	-1E+10	1	-1E+10	1
4902549	58	C	03/18/2022	09:58	-131.735	47.549	0	235.20	0	5.7900	0	33.7990	0	26.632	0	233.103	0	134.5	4	44.2	4	-1E+10	1	-1E+10	1	-1E+10	1	-1E+10	1	-1E+10	1	-1E+10	1
4902549	58	C	03/18/2022	09:58	-131.735	47.549	0	236.20	0	5.7840	0	33.8000	0	26.634	0	234.094	0	134.1	4	44.1	4	-1E+10	1	-1E+10	1	-1E+10	1	-1E+10	1	-1E+10	1	-1E+10	1
4902549	58	C	03/18/2022	09:58	-131.735	47.549	0	237.30	0	5.7770	0	33.8010	0	26.635	0	235.183	0	133.7	4	43.9	4	-1E+10	1	-1E+10	1	-1E+10	1	-1E+10	1	-1E+10	1	-1E+10	1
4902549	58	C	03/18/2022	09:58	-131.735	47.549	0	238.30	0	5.7630	0	33.8010	0	26.637	0	236.174	0	133.4	4	43.8	4	-1E+10	1	-1E+10	1	-1E+10	1	-1E+10	1	-1E+10	1	-1E+10	1
4902549	58	C	03/18/2022	09:58	-131.735	47.549	0	239.40	0	5.7550	0	33.8020	0	26.639	0	237.263	0	133.1	4	43.7	4	-1E+10	1	-1E+10	1	-1E+10	1	-1E+10	1	-1E+10	1	-1E+10	1
4902549	58	C	03/18/2022	09:58	-131.735	47.549	0	240.40	0	5.7540	0	33.8010	0	26.638	0	238.254	0	132.8	4	43.6	4	-1E+10	1	-1E+10	1	-1E+10	1	-1E+10	1	-1E+10	1	-1E+10	1
4902549	58	C	03/18/2022	09:58	-131.735	47.549	0	241.40	0	5.7510	0	33.8020	0	26.639	0	239.244	0	132.3	4	43.4	4	-1E+10	1	-1E+10	1	-1E+10	1	-1E+10	1	-1E+10	1	-1E+10	1
4902549	58	C	03/18/2022	09:58	-131.735	47.549	0	242.50	0	5.7500	0	33.8010	0	26.639	0	240.334	0	131.7	4	43.2	4	-1E+10	1	-1E+10	1	-1E+10	1	-1E+10	1	-1E+10	1	-1E+10	1
4902549	58	C	03/18/2022	09:58	-131.735	47.549	0	243.50	0	5.7490	0	33.8010	0	26.639	0	241.324	0	131.1	4	43.0	4	-1E+10	1	-1E+10	1	-1E+10	1	-1E+10	1	-1E+10	1	-1E+10	1
4902549	58	C	03/18/2022	09:58	-131.735	47.549	0	244.60	0	5.7480	0	33.8010	0	26.639	0	242.414	0	130.5	4	42.8	4	-1E+10	1	-1E+10	1	-1E+10	1	-1E+10	1	-1E+10	1	-1E+10	1
4902549	58	C	03/18/2022	09:58	-131.735	47.549	0	245.60	0	5.7470	0	33.8010	0	26.639	0	243.404	0	129.9	4	42.6	4	-1E+10	1	-1E+10	1	-1E+10	1	-1E+10	1	-1E+10	1	-1E+10	1
4902549	58	C	03/18/2022	09:58	-131.735	47.549	0	246.60	0	5.6590	0	33.8010	0	26.650	0	244.395	0	129.4	4	42.4	4	-1E+10	1	-1E+10	1	-1E+10	1	-1E+10	1	-1E+10	1	-1E+10	1
4902549	58	C	03/18/2022	09:58	-131.735	47.549	0	247.60	0	5.6520	0	33.7970	0	26.648	0	245.385	0	128.9	4	42.2	4	-1E+10	1	-1E+10	1	-1E+10	1	-1E+10	1	-1E+10	1	-1E+10	1
4902549	58	C	03/18/2022	09:58	-131.735	47.549	0	248.60	0	5.6790	0	33.8040	0	26.650	0	246.376	0	128.3	4	42.0	4	-1E+10	1	-1E+10	1	-1E+10	1	-1E+10	1	-1E+10	1	-1E+10	1
4902549	58	C	03/18/2022	09:58	-131.735	47.549	0	249.50	0	5.6830	0	33.8060	0	26.651	0	247.267	0	127.8	4	41.9	4	-1E+10	1	-1E+10	1	-1E+10	1	-1E+10	1	-1E+10	1	-1E+10	1
4902549	58	C	03/18/2022	09:58	-131.735	47.549	0	251.00	0	5.6860	0	33.8130	0	26.656	0	248.753	0	127.2	4	41.7	4	-1E+10	1	-1E+10	1	-1E+10	1	-1E+10	1	-1E+10	1	-1E+10	1
4902549	58	C	03/18/2022	09:58	-131.735	47.549	0	252.20	0	5.6630	0	33.8090	0	26.656	0	249.941	0	126.8	4	41.5	4	-1E+10	1	-1E+10	1	-1E+10	1	-1E+10	1	-1E+10	1	-1E+10	1
4902549	58	C	03/18/2022	09:58	-131.735	47.549	0	253.00	0	5.6560	0	33.8080	0	26.656	0	250.734	0	126.3	4	41.4	4	-1E+10	1	-1E+10	1	-1E+10	1	-1E+10	1	-1E+10	1	-1E+10	1
4902549	58	C	03/18/2022	09:58	-131.735	47.549	0	253.70	0	5.6440	0	33.8080	0	26.657	0	251.427	0	125.9	4	41.2	4	-1E+10	1	-1E+10	1	-1E+10	1	-1E+10	1	-1E+10	1	-1E+10	1
4902549	58	C	03/18/2022	09:58	-131.735	47.549	0	254.90	0	5.6220	0	33.8080	0	26.660	0	252.616	0	125.2	4	41.0	4	-1E+10	1	-1E+10	1	-1E+10	1	-1E+10	1	-1E+10	1	-1E+10	1
4902549	58	C	03/18/2022	09:58	-131.735	47.549	0	256.10	0	5.6060	0	33.8110	0	26.664	0	253.804	0	124.6	4	40.8	4	-1E+10	1	-1E+10	1	-1E+10	1	-1E+10	1	-1E+10	1	-1E+10	1
4902549	58	C	03/18/2022	09:58	-131.735	47.549	0	256.80	0	5.6010	0	33.8110	0	26.665	0	254.497	0	124.3	4	40.7	4	-1E+10	1	-1E+10	1	-1E+10	1	-1E+10	1	-1E+10	1	-1E+10	1
4902549	58	C	03/18/2022	09:58	-131.735	47.549	0	258.00	0	5.5940	0	33.8100	0	26.665	0	255.686	0	123.7	4	40.4	4	-1E+10	1	-1E+10	1	-1E+10	1	-1E+10	1	-1E+10	1	-1E+10	1
4902549	58	C	03/18/2022	09:58	-131.735	47.549	0	259.20	0	5.5880	0	33.8120	0	26.667	0	256.874	0	123.0	4	40.2	4	-1E+10	1	-1E+10	1	-1E+10	1	-1E+10	1	-1E+10	1	-1E+10	1
4902549	58	C	03/18/2022	09:58	-131.735	47.549	0	260.00	0	5.5860	0	33.8120	0	26.667	0	257.667	0	122.4	4	40.0	4	-1E+10	1	-1E+10	1	-1E+10	1	-1E+10	1	-1E+10	1	-1E+10	1
4902549	58	C	03/18/2022	09:58	-131.735	47.549	0	260.80	0	5.5830	0	33.8120	0	26.668	0	258.459	0	121.9	4	39.9	4	-1E+10	1	-1E+10	1	-1E+10	1	-1E+10	1	-1E+10	1	-1E+10	1
4902549	58	C	03/18/2022	09:58	-131.735	47.549	0	261.90	0	5.5790	0	33.8120	0	26.668	0	259.548	0	120.9	4	39.5	4	-1E+10	1	-1E+10	1	-1E+10	1	-1E+10	1	-1E+10	1	-1E+10	1
4902549	58	C	03/18/2022	09:58	-131.735	47.549	0	263.10	0	5.5680	0	33.8140	0	26.671	0	260.737	0	120.0	4	39.2	4	-1E+10	1	-1E+10	1	-1E+10	1	-1E+10	1	-1E+10	1	-1E+10	1
4902549	58	C	03/18/2022	09:58	-131.735	47.549	0	263.90	0	5.5610	0	33.8150	0	26.673	0	261.529	0	119.3	4	39.0	4	-1E+10	1	-1E+10	1	-1E+10	1	-1E+10	1	-1E+10	1	-1E+10	1
4902549	58	C	03/18/2022	09:58	-131.735	47.549	0	264.70	0	5.5590	0	33.8160	0	26.674	0	262.322	0	118.6	4	38.8	4	-1E+10	1	-1E+10	1	-1E+10	1	-1E+10	1	-1E+10	1	-1E+10	1
4902549	58	C	03/18/2022	09:58	-131.735	47.549	0	265.90	0	5.5390	0	33.8210	0	26.680	0	263.510	0	117.9	4	38.5	4	-1E+10	1	-1E+10	1	-1E+10	1	-1E+10	1	-1E+10	1	-1E+10	1
4902549	58	C	03/18/2022	09:58	-131.735	47.549	0	267.10	0	5.5210	0	33.8250	0	26.686	0	264.698	0	117.3	4	38.3	4	-1E+10	1	-1E+10	1	-1E+10	1	-1E+10	1	-1E+10	1	-1E+10	1
4902549	58	C	03/18/2022	09:58	-131.735	47.549	0	267.90	0	5.5160	0	33.8260	0	26.687	0	265.491	0	117.0	4	38.2	4	-1E+10	1	-1E+10	1	-1E+10	1	-1E+10	1	-1E+10	1	-1E+10	1
4902549	58	C	03/18/2022	09:58	-131.735	47.549	0	268.70	0	5.5120	0	33.8260	0	26.688	0	266.283	0	116.6	4	38.1	4	-1E+10	1	-1E+10	1	-1E+10	1	-1E+10	1	-1E+10	1	-1E+10	1
4902549	58	C	03/18/2022	09:58	-131.735	47.549	0	270.00	0	5.5090	0	33.8270	0	26.689	0	267.571	0	116.1	4	37.9	4	-1E+10	1	-1E+10	1	-1E+10	1	-1E+10	1	-1E+10	1	-1E+10	1
4902549	58	C	03/18/2022	09:58	-131.735	47.549	0	271.20	0	5.5080	0	33.8270	0	26.689	0	268.759	0	115.4	4	37.7	4	-1E+10	1	-1E+10	1	-1E+10	1	-1E+10	1	-1E+10	1	-1E+10	1
4902549	58	C	03/18/2022	09:58	-131.735	47.549	0	272.00	0	5.5070	0	33.8270	0	26.689	0	269.551	0	114.8	4	37.5	4	-1E+10	1	-1E+10	1	-1E+10	1	-1E+10	1	-1E+10	1	-1E+10	1
4902549	58	C	03/18/2022	09:58	-131.735	47.549	0	272.90	0	5.5030	0	33.8280	0	26.690	0	270.443	0	114.3	4	37.3	4	-1E+10	1	-1E+10	1	-1E+10	1	-1E+10	1	-1E+10	1	-1E+10	1
4902549	58	C	03/18/2022	09:58	-131.735	47.549	0	273.70	0	5.4950	0	33.8290	0	26.692	0	271.235	0	113.7	4	37.1	4	-1E+10	1	-1E+10	1	-1E+10	1	-1E+10	1	-1E+10	1	-1E+10	1
4902549	58	C	03/18/2022	09:58	-131.735	47.549	0	274.90	0	5.4910	0	33.8300	0	26.693	0	272.423	0	112.9	4	36.8	4	-1E+10	1	-1E+10	1	-1E+10	1	-1E+10	1	-1E+10	1	-1E+10	1
4902549	58	C	03/18/2022	09:58	-131.735	47.549	0	276.20	0	5.4770	0	33.8330	0	26.697	0	273.711	0	112.0	4	36.5	4	-1E+10	1	-1E+10	1	-1E+10	1	-1E+10	1	-1E+10	1	-1E+10	1
4902549	58	C	03/18/2022	09:58	-131.735	47.549	0	277.00	0	5.4630	0	33.8350	0	26.701	0	274.503	0	111.6	4	36.4	4	-1E+10	1	-1E+10	1	-1E+10	1	-1E+10	1	-1E+10	1	-1E+10	1
4902549	58	C	03/18/2022	09:58	-131.735	47.549	0	277.90	0	5.4610	0	33.8350	0	26.701	0	275.394	0	111.2	4	36.3	4	-1E+10	1	-1E+10	1	-1E+10	1	-1E+10	1	-1E+10	1	-1E+10	1
4902549	58	C	03/18/2022	09:58	-131.735	47.549	0	278.70	0	5.4340	0	33.8380	0	26.706	0	276.186	0	111.0	4	36.2	4	-1E+10	1	-1E+10	1	-1E+10	1	-1E+10	1	-1E+10	1	-1E+10	1
4902549	58	C	03/18/2022	09:58	-131.735	47.549	0	280.00	0	5.4300	0	33.8380	0	26.707	0	277.474	0	110.5	4	36.0	4	-1E+10	1	-1E+10	1	-1E+10	1	-1E+10	1	-1E+10	1	-1E+10	1
4902549	58	C	03/18/2022	09:58	-131.735	47.549	0	281.30	0	5.4290	0	33.8380	0	26.707	0	278.761	0	109.8	4	35.8	4	-1E+10	1	-1E+10	1	-1E+10	1	-1E+10	1	-1E+10	1	-1E+10	1
4902549	58	C	03/18/2022	09:58	-131.735	47.549	0	282.10	0	5.4240	0	33.8390	0	26.708	0	279.553	0	109.4	4	35.6	4	-1E+10	1	-1E+10	1	-1E+10	1	-1E+10	1	-1E+10	1	-1E+10	1
4902549	58	C	03/18/2022	09:58	-131.735	47.549	0	283.00	0	5.4200	0	33.8350	0	26.706	0	280.445	0	108.8	4	35.4	4	-1E+10	1	-1E+10	1	-1E+10	1	-1E+10	1	-1E+10	1	-1E+10	1
4902549	58	C	03/18/2022	09:58	-131.735	47.549	0	283.90	0	5.4120	0	33.8370	0	26.708	0	281.336	0	108.2	4	35.2	4	-1E+10	1	-1E+10	1	-1E+10	1	-1E+10	1	-1E+10	1	-1E+10	1
4902549	58	C	03/18/2022	09:58	-131.735	47.549	0	284.70	0	5.4090	0	33.8380	0	26.709	0	282.128	0	107.7	4	35.1	4	-1E+10	1	-1E+10	1	-1E+10	1	-1E+10	1	-1E+10	1	-1E+10	1
4902549	58	C	03/18/2022	09:58	-131.735	47.549	0	285.60	0	5.3970	0	33.8400	0	26.712	0	283.019	0	107.1	4	34.9	4	-1E+10	1	-1E+10	1	-1E+10	1	-1E+10	1	-1E+10	1	-1E+10	1
4902549	58	C	03/18/2022	09:58	-131.735	47.549	0	286.90	0	5.3670	0	33.8410	0	26.717	0	284.307	0	106.5	4	34.6	4	-1E+10	1	-1E+10	1	-1E+10	1	-1E+10	1	-1E+10	1	-1E+10	1
4902549	58	C	03/18/2022	09:58	-131.735	47.549	0	288.30	0	5.3500	0	33.8440	0	26.721	0	285.693	0	105.9	4	34.4	4	-1E+10	1	-1E+10	1	-1E+10	1	-1E+10	1	-1E+10	1	-1E+10	1
4902549	58	C	03/18/2022	09:58	-131.735	47.549	0	289.20	0	5.3410	0	33.8450	0	26.723	0	286.584	0	105.5	4	34.3	4	-1E+10	1	-1E+10	1	-1E+10	1	-1E+10	1	-1E+10	1	-1E+10	1
4902549	58	C	03/18/2022	09:58	-131.735	47.549	0	290.10	0	5.3390	0	33.8450	0	26.723	0	287.476	0	105.1	4	34.2	4	-1E+10	1	-1E+10	1	-1E+10	1	-1E+10	1	-1E+10	1	-1E+10	1
4902549	58	C	03/18/2022	09:58	-131.735	47.549	0	291.00	0	5.3340	0	33.8460	0	26.725	0	288.367	0	104.8	4	34.1	4	-1E+10	1	-1E+10	1	-1E+10	1	-1E+10	1	-1E+10	1	-1E+10	1
4902549	58	C	03/18/2022	09:58	-131.735	47.549	0	292.00	0	5.3190	0	33.8480	0	26.728	0	289.357	0	104.4	4	33.9	4	-1E+10	1	-1E+10	1	-1E+10	1	-1E+10	1	-1E+10	1	-1E+10	1
4902549	58	C	03/18/2022	09:58	-131.735	47.549	0	292.90	0	5.3010	0	33.8510	0	26.732	0	290.248	0	104.1	4	33.8	4	-1E+10	1	-1E+10	1	-1E+10	1	-1E+10	1	-1E+10	1	-1E+10	1
4902549	58	C	03/18/2022	09:58	-131.735	47.549	0	293.80	0	5.2960	0	33.8490	0	26.731	0	291.140	0	103.9	4	33.7	4	-1E+10	1	-1E+10	1	-1E+10	1	-1E+10	1	-1E+10	1	-1E+10	1
4902549	58	C	03/18/2022	09:58	-131.735	47.549	0	294.70	0	5.2850	0	33.8500	0	26.734	0	292.031	0	103.7	4	33.7	4	-1E+10	1	-1E+10	1	-1E+10	1	-1E+10	1	-1E+10	1	-1E+10	1
4902549	58	C	03/18/2022	09:58	-131.735	47.549	0	295.60	0	5.2790	0	33.8510	0	26.735	0	292.922	0	103.5	4	33.6	4	-1E+10	1	-1E+10	1	-1E+10	1	-1E+10	1	-1E+10	1	-1E+10	1
4902549	58	C	03/18/2022	09:58	-131.735	47.549	0	296.90	0	5.2680	0	33.8500	0	26.736	0	294.209	0	103.2	4	33.5	4	-1E+10	1	-1E+10	1	-1E+10	1	-1E+10	1	-1E+10	1	-1E+10	1
4902549	58	C	03/18/2022	09:58	-131.735	47.549	0	298.40	0	5.2640	0	33.8510	0	26.737	0	295.695	0	102.9	4	33.4	4	-1E+10	1	-1E+10	1	-1E+10	1	-1E+10	1	-1E+10	1	-1E+10	1
4902549	58	C	03/18/2022	09:58	-131.735	47.549	0	299.30	0	5.2520	0	33.8540	0	26.741	0	296.586	0	102.7	4	33.3	4	-1E+10	1	-1E+10	1	-1E+10	1	-1E+10	1	-1E+10	1	-1E+10	1
4902549	58	C	03/18/2022	09:58	-131.735	47.549	0	300.20	0	5.2470	0	33.8520	0	26.740	0	297.477	0	102.6	4	33.3	4	-1E+10	1	-1E+10	1	-1E+10	1	-1E+10	1	-1E+10	1	-1E+10	1
4902549	58	C	03/18/2022	09:58	-131.735	47.549	0	301.20	0	5.2450	0	33.8520	0	26.740	0	298.467	0	102.5	4	33.2	4	-1E+10	1	-1E+10	1	-1E+10	1	-1E+10	1	-1E+10	1	-1E+10	1
4902549	58	C	03/18/2022	09:58	-131.735	47.549	0	302.10	0	5.2440	0	33.8520	0	26.740	0	299.358	0	102.3	4	33.2	4	-1E+10	1	-1E+10	1	-1E+10	1	-1E+10	1	-1E+10	1	-1E+10	1
4902549	58	C	03/18/2022	09:58	-131.735	47.549	0	303.00	0	5.2420	0	33.8530	0	26.741	0	300.250	0	102.1	4	33.1	4	-1E+10	1	-1E+10	1	-1E+10	1	-1E+10	1	-1E+10	1	-1E+10	1
4902549	58	C	03/18/2022	09:58	-131.735	47.549	0	304.00	0	5.2380	0	33.8530	0	26.741	0	301.240	0	101.9	4	33.1	4	-1E+10	1	-1E+10	1	-1E+10	1	-1E+10	1	-1E+10	1	-1E+10	1
4902549	58	C	03/18/2022	09:58	-131.735	47.549	0	304.90	0	5.2370	0	33.8530	0	26.742	0	302.131	0	101.7	4	33.0	4	-1E+10	1	-1E+10	1	-1E+10	1	-1E+10	1	-1E+10	1	-1E+10	1
4902549	58	C	03/18/2022	09:58	-131.735	47.549	0	305.80	0	5.2330	0	33.8550	0	26.744	0	303.022	0	101.5	4	32.9	4	-1E+10	1	-1E+10	1	-1E+10	1	-1E+10	1	-1E+10	1	-1E+10	1
4902549	58	C	03/18/2022	09:58	-131.735	47.549	0	306.80	0	5.2300	0	33.8530	0	26.742	0	304.012	0	101.3	4	32.8	4	-1E+10	1	-1E+10	1	-1E+10	1	-1E+10	1	-1E+10	1	-1E+10	1
4902549	58	C	03/18/2022	09:58	-131.735	47.549	0	307.70	0	5.2270	0	33.8540	0	26.744	0	304.904	0	101.0	4	32.8	4	-1E+10	1	-1E+10	1	-1E+10	1	-1E+10	1	-1E+10	1	-1E+10	1
4902549	58	C	03/18/2022	09:58	-131.735	47.549	0	308.60	0	5.2240	0	33.8540	0	26.744	0	305.795	0	100.8	4	32.7	4	-1E+10	1	-1E+10	1	-1E+10	1	-1E+10	1	-1E+10	1	-1E+10	1
4902549	58	C	03/18/2022	09:58	-131.735	47.549	0	309.60	0	5.2230	0	33.8540	0	26.744	0	306.785	0	100.6	4	32.6	4	-1E+10	1	-1E+10	1	-1E+10	1	-1E+10	1	-1E+10	1	-1E+10	1
4902549	58	C	03/18/2022	09:58	-131.735	47.549	0	310.90	0	5.2200	0	33.8540	0	26.744	0	308.072	0	100.1	4	32.5	4	-1E+10	1	-1E+10	1	-1E+10	1	-1E+10	1	-1E+10	1	-1E+10	1
4902549	58	C	03/18/2022	09:58	-131.735	47.549	0	312.30	0	5.2150	0	33.8550	0	26.746	0	309.458	0	99.6	4	32.3	4	-1E+10	1	-1E+10	1	-1E+10	1	-1E+10	1	-1E+10	1	-1E+10	1
4902549	58	C	03/18/2022	09:58	-131.735	47.549	0	313.30	0	5.2130	0	33.8550	0	26.746	0	310.448	0	99.3	4	32.2	4	-1E+10	1	-1E+10	1	-1E+10	1	-1E+10	1	-1E+10	1	-1E+10	1
4902549	58	C	03/18/2022	09:58	-131.735	47.549	0	314.20	0	5.2120	0	33.8540	0	26.745	0	311.340	0	98.9	4	32.1	4	-1E+10	1	-1E+10	1	-1E+10	1	-1E+10	1	-1E+10	1	-1E+10	1
4902549	58	C	03/18/2022	09:58	-131.735	47.549	0	315.10	0	5.2080	0	33.8540	0	26.746	0	312.231	0	98.4	4	31.9	4	-1E+10	1	-1E+10	1	-1E+10	1	-1E+10	1	-1E+10	1	-1E+10	1
4902549	58	C	03/18/2022	09:58	-131.735	47.549	0	316.00	0	5.1940	0	33.8570	0	26.750	0	313.122	0	98.1	4	31.8	4	-1E+10	1	-1E+10	1	-1E+10	1	-1E+10	1	-1E+10	1	-1E+10	1
4902549	58	C	03/18/2022	09:58	-131.735	47.549	0	317.00	0	5.1860	0	33.8560	0	26.750	0	314.112	0	97.6	4	31.6	4	-1E+10	1	-1E+10	1	-1E+10	1	-1E+10	1	-1E+10	1	-1E+10	1
4902549	58	C	03/18/2022	09:58	-131.735	47.549	0	317.90	0	5.1780	0	33.8560	0	26.751	0	315.003	0	97.2	4	31.5	4	-1E+10	1	-1E+10	1	-1E+10	1	-1E+10	1	-1E+10	1	-1E+10	1
4902549	58	C	03/18/2022	09:58	-131.735	47.549	0	318.80	0	5.1690	0	33.8560	0	26.752	0	315.894	0	96.9	4	31.4	4	-1E+10	1	-1E+10	1	-1E+10	1	-1E+10	1	-1E+10	1	-1E+10	1
4902549	58	C	03/18/2022	09:58	-131.735	47.549	0	319.70	0	5.1580	0	33.8580	0	26.755	0	316.785	0	96.5	4	31.2	4	-1E+10	1	-1E+10	1	-1E+10	1	-1E+10	1	-1E+10	1	-1E+10	1
4902549	58	C	03/18/2022	09:58	-131.735	47.549	0	320.60	0	5.1500	0	33.8570	0	26.755	0	317.676	0	96.1	4	31.1	4	-1E+10	1	-1E+10	1	-1E+10	1	-1E+10	1	-1E+10	1	-1E+10	1
4902549	58	C	03/18/2022	09:58	-131.735	47.549	0	321.90	0	5.1360	0	33.8580	0	26.757	0	318.964	0	95.7	4	31.0	4	-1E+10	1	-1E+10	1	-1E+10	1	-1E+10	1	-1E+10	1	-1E+10	1
4902549	58	C	03/18/2022	09:58	-131.735	47.549	0	323.30	0	5.1320	0	33.8590	0	26.759	0	320.350	0	95.1	4	30.8	4	-1E+10	1	-1E+10	1	-1E+10	1	-1E+10	1	-1E+10	1	-1E+10	1
4902549	58	C	03/18/2022	09:58	-131.735	47.549	0	324.20	0	5.1200	0	33.8600	0	26.761	0	321.241	0	94.8	4	30.7	4	-1E+10	1	-1E+10	1	-1E+10	1	-1E+10	1	-1E+10	1	-1E+10	1
4902549	58	C	03/18/2022	09:58	-131.735	47.549	0	325.20	0	5.1090	0	33.8610	0	26.763	0	322.231	0	94.5	4	30.5	4	-1E+10	1	-1E+10	1	-1E+10	1	-1E+10	1	-1E+10	1	-1E+10	1
4902549	58	C	03/18/2022	09:58	-131.735	47.549	0	326.10	0	5.0930	0	33.8620	0	26.765	0	323.122	0	94.2	4	30.5	4	-1E+10	1	-1E+10	1	-1E+10	1	-1E+10	1	-1E+10	1	-1E+10	1
4902549	58	C	03/18/2022	09:58	-131.735	47.549	0	327.00	0	5.0880	0	33.8630	0	26.767	0	324.013	0	93.9	4	30.4	4	-1E+10	1	-1E+10	1	-1E+10	1	-1E+10	1	-1E+10	1	-1E+10	1
4902549	58	C	03/18/2022	09:58	-131.735	47.549	0	327.90	0	5.0850	0	33.8630	0	26.767	0	324.904	0	93.7	4	30.3	4	-1E+10	1	-1E+10	1	-1E+10	1	-1E+10	1	-1E+10	1	-1E+10	1
4902549	58	C	03/18/2022	09:58	-131.735	47.549	0	328.80	0	5.0810	0	33.8640	0	26.768	0	325.795	0	93.4	4	30.2	4	-1E+10	1	-1E+10	1	-1E+10	1	-1E+10	1	-1E+10	1	-1E+10	1
4902549	58	C	03/18/2022	09:58	-131.735	47.549	0	329.80	0	5.0750	0	33.8640	0	26.769	0	326.785	0	93.1	4	30.1	4	-1E+10	1	-1E+10	1	-1E+10	1	-1E+10	1	-1E+10	1	-1E+10	1
4902549	58	C	03/18/2022	09:58	-131.735	47.549	0	330.70	0	5.0730	0	33.8640	0	26.769	0	327.676	0	92.8	4	30.0	4	-1E+10	1	-1E+10	1	-1E+10	1	-1E+10	1	-1E+10	1	-1E+10	1
4902549	58	C	03/18/2022	09:58	-131.735	47.549	0	331.60	0	5.0690	0	33.8640	0	26.770	0	328.567	0	92.5	4	29.9	4	-1E+10	1	-1E+10	1	-1E+10	1	-1E+10	1	-1E+10	1	-1E+10	1
4902549	58	C	03/18/2022	09:58	-131.735	47.549	0	332.60	0	5.0650	0	33.8650	0	26.771	0	329.557	0	92.1	4	29.8	4	-1E+10	1	-1E+10	1	-1E+10	1	-1E+10	1	-1E+10	1	-1E+10	1
4902549	58	C	03/18/2022	09:58	-131.735	47.549	0	333.90	0	5.0590	0	33.8660	0	26.773	0	330.844	0	91.5	4	29.6	4	-1E+10	1	-1E+10	1	-1E+10	1	-1E+10	1	-1E+10	1	-1E+10	1
4902549	58	C	03/18/2022	09:58	-131.735	47.549	0	335.40	0	5.0460	0	33.8680	0	26.776	0	332.330	0	91.0	4	29.4	4	-1E+10	1	-1E+10	1	-1E+10	1	-1E+10	1	-1E+10	1	-1E+10	1
4902549	58	C	03/18/2022	09:58	-131.735	47.549	0	336.30	0	5.0430	0	33.8680	0	26.776	0	333.221	0	90.6	4	29.3	4	-1E+10	1	-1E+10	1	-1E+10	1	-1E+10	1	-1E+10	1	-1E+10	1
4902549	58	C	03/18/2022	09:58	-131.735	47.549	0	337.20	0	5.0400	0	33.8690	0	26.777	0	334.112	0	90.2	4	29.1	4	-1E+10	1	-1E+10	1	-1E+10	1	-1E+10	1	-1E+10	1	-1E+10	1
4902549	58	C	03/18/2022	09:58	-131.735	47.549	0	338.20	0	5.0350	0	33.8690	0	26.778	0	335.102	0	89.9	4	29.0	4	-1E+10	1	-1E+10	1	-1E+10	1	-1E+10	1	-1E+10	1	-1E+10	1
4902549	58	C	03/18/2022	09:58	-131.735	47.549	0	339.10	0	5.0320	0	33.8700	0	26.779	0	335.993	0	89.5	4	28.9	4	-1E+10	1	-1E+10	1	-1E+10	1	-1E+10	1	-1E+10	1	-1E+10	1
4902549	58	C	03/18/2022	09:58	-131.735	47.549	0	340.00	0	5.0180	0	33.8730	0	26.783	0	336.884	0	89.1	4	28.8	4	-1E+10	1	-1E+10	1	-1E+10	1	-1E+10	1	-1E+10	1	-1E+10	1
4902549	58	C	03/18/2022	09:58	-131.735	47.549	0	340.90	0	5.0140	0	33.8740	0	26.784	0	337.775	0	88.9	4	28.7	4	-1E+10	1	-1E+10	1	-1E+10	1	-1E+10	1	-1E+10	1	-1E+10	1
4902549	58	C	03/18/2022	09:58	-131.735	47.549	0	341.80	0	5.0140	0	33.8740	0	26.784	0	338.666	0	88.5	4	28.6	4	-1E+10	1	-1E+10	1	-1E+10	1	-1E+10	1	-1E+10	1	-1E+10	1
4902549	58	C	03/18/2022	09:58	-131.735	47.549	0	342.70	0	5.0060	0	33.8760	0	26.787	0	339.557	0	88.1	4	28.4	4	-1E+10	1	-1E+10	1	-1E+10	1	-1E+10	1	-1E+10	1	-1E+10	1
4902549	58	C	03/18/2022	09:58	-131.735	47.549	0	343.70	0	5.0030	0	33.8760	0	26.787	0	340.547	0	87.8	4	28.3	4	-1E+10	1	-1E+10	1	-1E+10	1	-1E+10	1	-1E+10	1	-1E+10	1
4902549	58	C	03/18/2022	09:58	-131.735	47.549	0	344.60	0	4.9920	0	33.8790	0	26.791	0	341.438	0	87.5	4	28.2	4	-1E+10	1	-1E+10	1	-1E+10	1	-1E+10	1	-1E+10	1	-1E+10	1
4902549	58	C	03/18/2022	09:58	-131.735	47.549	0	345.50	0	4.9790	0	33.8820	0	26.794	0	342.329	0	87.3	4	28.2	4	-1E+10	1	-1E+10	1	-1E+10	1	-1E+10	1	-1E+10	1	-1E+10	1
4902549	58	C	03/18/2022	09:58	-131.735	47.549	0	346.90	0	4.9600	0	33.8840	0	26.798	0	343.715	0	87.1	4	28.1	4	-1E+10	1	-1E+10	1	-1E+10	1	-1E+10	1	-1E+10	1	-1E+10	1
4902549	58	C	03/18/2022	09:58	-131.735	47.549	0	348.30	0	4.9590	0	33.8840	0	26.798	0	345.101	0	86.9	4	28.0	4	-1E+10	1	-1E+10	1	-1E+10	1	-1E+10	1	-1E+10	1	-1E+10	1
4902549	58	C	03/18/2022	09:58	-131.735	47.549	0	349.30	0	4.9590	0	33.8840	0	26.798	0	346.091	0	86.7	4	28.0	4	-1E+10	1	-1E+10	1	-1E+10	1	-1E+10	1	-1E+10	1	-1E+10	1
4902549	58	C	03/18/2022	09:58	-131.735	47.549	0	350.20	0	4.9590	0	33.8840	0	26.798	0	346.982	0	86.6	4	27.9	4	-1E+10	1	-1E+10	1	-1E+10	1	-1E+10	1	-1E+10	1	-1E+10	1
4902549	58	C	03/18/2022	09:58	-131.735	47.549	0	353.00	0	4.9530	0	33.8850	0	26.800	0	349.754	0	85.9	4	27.7	4	-1E+10	1	-1E+10	1	-1E+10	1	-1E+10	1	-1E+10	1	-1E+10	1
4902549	58	C	03/18/2022	09:58	-131.735	47.549	0	357.80	0	4.9400	0	33.8890	0	26.805	0	354.505	0	84.6	4	27.3	4	-1E+10	1	-1E+10	1	-1E+10	1	-1E+10	1	-1E+10	1	-1E+10	1
4902549	58	C	03/18/2022	09:58	-131.735	47.549	0	363.00	0	4.9250	0	33.8910	0	26.808	0	359.653	0	82.9	4	26.7	4	-1E+10	1	-1E+10	1	-1E+10	1	-1E+10	1	-1E+10	1	-1E+10	1
4902549	58	C	03/18/2022	09:58	-131.735	47.549	0	368.20	0	4.8880	0	33.8980	0	26.818	0	364.800	0	80.8	4	26.0	4	-1E+10	1	-1E+10	1	-1E+10	1	-1E+10	1	-1E+10	1	-1E+10	1
4902549	58	C	03/18/2022	09:58	-131.735	47.549	0	373.00	0	4.8520	0	33.9030	0	26.826	0	369.552	0	79.6	4	25.6	4	-1E+10	1	-1E+10	1	-1E+10	1	-1E+10	1	-1E+10	1	-1E+10	1
4902549	58	C	03/18/2022	09:58	-131.735	47.549	0	377.80	0	4.8330	0	33.9060	0	26.830	0	374.303	0	78.5	4	25.2	4	-1E+10	1	-1E+10	1	-1E+10	1	-1E+10	1	-1E+10	1	-1E+10	1
4902549	58	C	03/18/2022	09:58	-131.735	47.549	0	382.60	0	4.8170	0	33.9090	0	26.834	0	379.054	0	77.6	4	24.9	4	-1E+10	1	-1E+10	1	-1E+10	1	-1E+10	1	-1E+10	1	-1E+10	1
4902549	58	C	03/18/2022	09:58	-131.735	47.549	0	387.90	0	4.8070	0	33.9110	0	26.837	0	384.300	0	76.2	4	24.5	4	-1E+10	1	-1E+10	1	-1E+10	1	-1E+10	1	-1E+10	1	-1E+10	1
4902549	58	C	03/18/2022	09:58	-131.735	47.549	0	393.30	0	4.7850	0	33.9150	0	26.843	0	389.645	0	74.2	4	23.8	4	-1E+10	1	-1E+10	1	-1E+10	1	-1E+10	1	-1E+10	1	-1E+10	1
4902549	58	C	03/18/2022	09:58	-131.735	47.549	0	398.20	0	4.7520	0	33.9190	0	26.850	0	394.495	0	72.3	4	23.2	4	-1E+10	1	-1E+10	1	-1E+10	1	-1E+10	1	-1E+10	1	-1E+10	1
4902549	58	C	03/18/2022	09:58	-131.735	47.549	0	403.10	0	4.7170	0	33.9240	0	26.857	0	399.345	0	70.1	4	22.5	4	-1E+10	1	-1E+10	1	-1E+10	1	-1E+10	1	-1E+10	1	-1E+10	1
4902549	58	C	03/18/2022	09:58	-131.735	47.549	0	408.00	0	4.6710	0	33.9290	0	26.867	0	404.194	0	68.2	4	21.8	4	-1E+10	1	-1E+10	1	-1E+10	1	-1E+10	1	-1E+10	1	-1E+10	1
4902549	58	C	03/18/2022	09:58	-131.735	47.549	0	413.00	0	4.6400	0	33.9340	0	26.874	0	409.143	0	66.5	4	21.3	4	-1E+10	1	-1E+10	1	-1E+10	1	-1E+10	1	-1E+10	1	-1E+10	1
4902549	58	C	03/18/2022	09:58	-131.735	47.549	0	418.00	0	4.6120	0	33.9350	0	26.878	0	414.091	0	64.7	4	20.7	4	-1E+10	1	-1E+10	1	-1E+10	1	-1E+10	1	-1E+10	1	-1E+10	1
4902549	58	C	03/18/2022	09:58	-131.735	47.549	0	423.00	0	4.5760	0	33.9360	0	26.883	0	419.039	0	63.0	4	20.1	4	-1E+10	1	-1E+10	1	-1E+10	1	-1E+10	1	-1E+10	1	-1E+10	1
4902549	58	C	03/18/2022	09:58	-131.735	47.549	0	428.10	0	4.5500	0	33.9390	0	26.888	0	424.086	0	61.3	4	19.6	4	-1E+10	1	-1E+10	1	-1E+10	1	-1E+10	1	-1E+10	1	-1E+10	1
4902549	58	C	03/18/2022	09:58	-131.735	47.549	0	433.20	0	4.5250	0	33.9450	0	26.895	0	429.133	0	59.7	4	19.0	4	-1E+10	1	-1E+10	1	-1E+10	1	-1E+10	1	-1E+10	1	-1E+10	1
4902549	58	C	03/18/2022	09:58	-131.735	47.549	0	438.30	0	4.5060	0	33.9490	0	26.901	0	434.180	0	58.2	4	18.6	4	-1E+10	1	-1E+10	1	-1E+10	1	-1E+10	1	-1E+10	1	-1E+10	1
4902549	58	C	03/18/2022	09:58	-131.735	47.549	0	443.00	0	4.4900	0	33.9540	0	26.906	0	438.831	0	56.9	4	18.1	4	-1E+10	1	-1E+10	1	-1E+10	1	-1E+10	1	-1E+10	1	-1E+10	1
4902549	58	C	03/18/2022	09:58	-131.735	47.549	0	447.70	0	4.4710	0	33.9590	0	26.912	0	443.482	0	55.7	4	17.7	4	-1E+10	1	-1E+10	1	-1E+10	1	-1E+10	1	-1E+10	1	-1E+10	1
4902549	58	C	03/18/2022	09:58	-131.735	47.549	0	453.00	0	4.4590	0	33.9650	0	26.918	0	448.726	0	54.9	4	17.5	4	-1E+10	1	-1E+10	1	-1E+10	1	-1E+10	1	-1E+10	1	-1E+10	1
4902549	58	C	03/18/2022	09:58	-131.735	47.549	0	457.80	0	4.4560	0	33.9670	0	26.920	0	453.475	0	53.9	4	17.2	4	-1E+10	1	-1E+10	1	-1E+10	1	-1E+10	1	-1E+10	1	-1E+10	1
4902549	58	C	03/18/2022	09:58	-131.735	47.549	0	462.90	0	4.4500	0	33.9720	0	26.925	0	458.521	0	52.2	4	16.6	4	-1E+10	1	-1E+10	1	-1E+10	1	-1E+10	1	-1E+10	1	-1E+10	1
4902549	58	C	03/18/2022	09:58	-131.735	47.549	0	468.10	0	4.4280	0	33.9810	0	26.935	0	463.667	0	50.3	4	16.0	4	-1E+10	1	-1E+10	1	-1E+10	1	-1E+10	1	-1E+10	1	-1E+10	1
4902549	58	C	03/18/2022	09:58	-131.735	47.549	0	472.90	0	4.4160	0	33.9870	0	26.941	0	468.416	0	48.9	4	15.6	4	-1E+10	1	-1E+10	1	-1E+10	1	-1E+10	1	-1E+10	1	-1E+10	1
4902549	58	C	03/18/2022	09:58	-131.735	47.549	0	477.90	0	4.4060	0	33.9920	0	26.946	0	473.363	0	47.8	4	15.2	4	-1E+10	1	-1E+10	1	-1E+10	1	-1E+10	1	-1E+10	1	-1E+10	1
4902549	58	C	03/18/2022	09:58	-131.735	47.549	0	482.90	0	4.3890	0	33.9980	0	26.952	0	478.309	0	46.5	4	14.8	4	-1E+10	1	-1E+10	1	-1E+10	1	-1E+10	1	-1E+10	1	-1E+10	1
4902549	58	C	03/18/2022	09:58	-131.735	47.549	0	488.00	0	4.3710	0	34.0030	0	26.958	0	483.355	0	45.3	4	14.4	4	-1E+10	1	-1E+10	1	-1E+10	1	-1E+10	1	-1E+10	1	-1E+10	1
4902549	58	C	03/18/2022	09:58	-131.735	47.549	0	493.10	0	4.3480	0	34.0090	0	26.965	0	488.400	0	44.1	4	14.0	4	-1E+10	1	-1E+10	1	-1E+10	1	-1E+10	1	-1E+10	1	-1E+10	1
4902549	58	C	03/18/2022	09:58	-131.735	47.549	0	497.90	0	4.3350	0	34.0120	0	26.969	0	493.149	0	43.1	4	13.7	4	-1E+10	1	-1E+10	1	-1E+10	1	-1E+10	1	-1E+10	1	-1E+10	1
4902549	58	C	03/18/2022	09:58	-131.735	47.549	0	502.60	0	4.3140	0	34.0190	0	26.977	0	497.798	0	42.0	4	13.3	4	-1E+10	1	-1E+10	1	-1E+10	1	-1E+10	1	-1E+10	1	-1E+10	1
4902549	58	C	03/18/2022	09:58	-131.735	47.549	0	508.00	0	4.2980	0	34.0240	0	26.983	0	503.140	0	40.9	4	13.0	4	-1E+10	1	-1E+10	1	-1E+10	1	-1E+10	1	-1E+10	1	-1E+10	1
4902549	58	C	03/18/2022	09:58	-131.735	47.549	0	513.10	0	4.2830	0	34.0290	0	26.988	0	508.185	0	39.9	4	12.7	4	-1E+10	1	-1E+10	1	-1E+10	1	-1E+10	1	-1E+10	1	-1E+10	1
4902549	58	C	03/18/2022	09:58	-131.735	47.549	0	517.80	0	4.2700	0	34.0330	0	26.993	0	512.834	0	39.1	4	12.4	4	-1E+10	1	-1E+10	1	-1E+10	1	-1E+10	1	-1E+10	1	-1E+10	1
4902549	58	C	03/18/2022	09:58	-131.735	47.549	0	522.90	0	4.2640	0	34.0350	0	26.995	0	517.879	0	38.0	4	12.1	4	-1E+10	1	-1E+10	1	-1E+10	1	-1E+10	1	-1E+10	1	-1E+10	1
4902549	58	C	03/18/2022	09:58	-131.735	47.549	0	528.20	0	4.2480	0	34.0420	0	27.002	0	523.122	0	36.9	4	11.7	4	-1E+10	1	-1E+10	1	-1E+10	1	-1E+10	1	-1E+10	1	-1E+10	1
4902549	58	C	03/18/2022	09:58	-131.735	47.549	0	533.00	0	4.2350	0	34.0470	0	27.008	0	527.869	0	36.0	4	11.4	4	-1E+10	1	-1E+10	1	-1E+10	1	-1E+10	1	-1E+10	1	-1E+10	1
4902549	58	C	03/18/2022	09:58	-131.735	47.549	0	537.90	0	4.2270	0	34.0500	0	27.011	0	532.716	0	35.3	4	11.2	4	-1E+10	1	-1E+10	1	-1E+10	1	-1E+10	1	-1E+10	1	-1E+10	1
4902549	58	C	03/18/2022	09:58	-131.735	47.549	0	542.90	0	4.2190	0	34.0530	0	27.014	0	537.661	0	34.4	4	10.9	4	-1E+10	1	-1E+10	1	-1E+10	1	-1E+10	1	-1E+10	1	-1E+10	1
4902549	58	C	03/18/2022	09:58	-131.735	47.549	0	547.90	0	4.2040	0	34.0590	0	27.021	0	542.607	0	33.7	4	10.7	4	-1E+10	1	-1E+10	1	-1E+10	1	-1E+10	1	-1E+10	1	-1E+10	1
4902549	58	C	03/18/2022	09:58	-131.735	47.549	0	553.00	0	4.1970	0	34.0620	0	27.024	0	547.651	0	33.1	4	10.5	4	-1E+10	1	-1E+10	1	-1E+10	1	-1E+10	1	-1E+10	1	-1E+10	1
4902549	58	C	03/18/2022	09:58	-131.735	47.549	0	558.00	0	4.1920	0	34.0640	0	27.026	0	552.596	0	32.4	4	10.3	4	-1E+10	1	-1E+10	1	-1E+10	1	-1E+10	1	-1E+10	1	-1E+10	1
4902549	58	C	03/18/2022	09:58	-131.735	47.549	0	563.10	0	4.1820	0	34.0670	0	27.030	0	557.639	0	31.6	4	10.0	4	-1E+10	1	-1E+10	1	-1E+10	1	-1E+10	1	-1E+10	1	-1E+10	1
4902549	58	C	03/18/2022	09:58	-131.735	47.549	0	568.30	0	4.1740	0	34.0700	0	27.033	0	562.782	0	30.8	4	9.7	4	-1E+10	1	-1E+10	1	-1E+10	1	-1E+10	1	-1E+10	1	-1E+10	1
4902549	58	C	03/18/2022	09:58	-131.735	47.549	0	573.00	0	4.1600	0	34.0750	0	27.038	0	567.430	0	30.1	4	9.5	4	-1E+10	1	-1E+10	1	-1E+10	1	-1E+10	1	-1E+10	1	-1E+10	1
4902549	58	C	03/18/2022	09:58	-131.735	47.549	0	577.60	0	4.1480	0	34.0800	0	27.043	0	571.979	0	29.6	4	9.4	4	-1E+10	1	-1E+10	1	-1E+10	1	-1E+10	1	-1E+10	1	-1E+10	1
4902549	58	C	03/18/2022	09:58	-131.735	47.549	0	582.90	0	4.1430	0	34.0820	0	27.046	0	577.220	0	29.1	4	9.2	4	-1E+10	1	-1E+10	1	-1E+10	1	-1E+10	1	-1E+10	1	-1E+10	1
4902549	58	C	03/18/2022	09:58	-131.735	47.549	0	588.10	0	4.1390	0	34.0830	0	27.047	0	582.362	0	28.2	4	8.9	4	-1E+10	1	-1E+10	1	-1E+10	1	-1E+10	1	-1E+10	1	-1E+10	1
4902549	58	C	03/18/2022	09:58	-131.735	47.549	0	592.80	0	4.1220	0	34.0890	0	27.053	0	587.009	0	27.3	4	8.6	4	-1E+10	1	-1E+10	1	-1E+10	1	-1E+10	1	-1E+10	1	-1E+10	1
4902549	58	C	03/18/2022	09:58	-131.735	47.549	0	597.50	0	4.1150	0	34.0920	0	27.057	0	591.657	0	26.2	4	8.3	4	-1E+10	1	-1E+10	1	-1E+10	1	-1E+10	1	-1E+10	1	-1E+10	1
4902549	58	C	03/18/2022	09:58	-131.735	47.549	0	602.70	0	4.0990	0	34.0990	0	27.064	0	596.799	0	25.3	4	8.0	4	-1E+10	1	-1E+10	1	-1E+10	1	-1E+10	1	-1E+10	1	-1E+10	1
4902549	58	C	03/18/2022	09:58	-131.735	47.549	0	607.90	0	4.0880	0	34.1030	0	27.068	0	601.940	0	24.3	4	7.7	4	-1E+10	1	-1E+10	1	-1E+10	1	-1E+10	1	-1E+10	1	-1E+10	1
4902549	58	C	03/18/2022	09:58	-131.735	47.549	0	613.30	0	4.0710	0	34.1100	0	27.076	0	607.279	0	23.3	4	7.4	4	-1E+10	1	-1E+10	1	-1E+10	1	-1E+10	1	-1E+10	1	-1E+10	1
4902549	58	C	03/18/2022	09:58	-131.735	47.549	0	618.10	0	4.0540	0	34.1160	0	27.082	0	612.025	0	22.4	4	7.1	4	-1E+10	1	-1E+10	1	-1E+10	1	-1E+10	1	-1E+10	1	-1E+10	1
4902549	58	C	03/18/2022	09:58	-131.735	47.549	0	622.90	0	4.0400	0	34.1210	0	27.088	0	616.771	0	21.8	4	6.9	4	-1E+10	1	-1E+10	1	-1E+10	1	-1E+10	1	-1E+10	1	-1E+10	1
4902549	58	C	03/18/2022	09:58	-131.735	47.549	0	627.80	0	4.0300	0	34.1250	0	27.092	0	621.615	0	21.1	4	6.7	4	-1E+10	1	-1E+10	1	-1E+10	1	-1E+10	1	-1E+10	1	-1E+10	1
4902549	58	C	03/18/2022	09:58	-131.735	47.549	0	632.70	0	4.0150	0	34.1300	0	27.097	0	626.460	0	20.4	4	6.4	4	-1E+10	1	-1E+10	1	-1E+10	1	-1E+10	1	-1E+10	1	-1E+10	1
4902549	58	C	03/18/2022	09:58	-131.735	47.549	0	638.10	0	3.9950	0	34.1370	0	27.105	0	631.798	0	19.7	4	6.2	4	-1E+10	1	-1E+10	1	-1E+10	1	-1E+10	1	-1E+10	1	-1E+10	1
4902549	58	C	03/18/2022	09:58	-131.735	47.549	0	643.00	0	3.9770	0	34.1430	0	27.112	0	636.642	0	19.3	4	6.1	4	-1E+10	1	-1E+10	1	-1E+10	1	-1E+10	1	-1E+10	1	-1E+10	1
4902549	58	C	03/18/2022	09:58	-131.735	47.549	0	647.80	0	3.9700	0	34.1450	0	27.114	0	641.388	0	19.0	4	6.0	4	-1E+10	1	-1E+10	1	-1E+10	1	-1E+10	1	-1E+10	1	-1E+10	1
4902549	58	C	03/18/2022	09:58	-131.735	47.549	0	653.20	0	3.9640	0	34.1470	0	27.116	0	646.726	0	18.6	4	5.9	4	-1E+10	1	-1E+10	1	-1E+10	1	-1E+10	1	-1E+10	1	-1E+10	1
4902549	58	C	03/18/2022	09:58	-131.735	47.549	0	658.00	0	3.9550	0	34.1500	0	27.120	0	651.471	0	18.1	4	5.7	4	-1E+10	1	-1E+10	1	-1E+10	1	-1E+10	1	-1E+10	1	-1E+10	1
4902549	58	C	03/18/2022	09:58	-131.735	47.549	0	662.70	0	3.9390	0	34.1550	0	27.125	0	656.117	0	17.7	4	5.6	4	-1E+10	1	-1E+10	1	-1E+10	1	-1E+10	1	-1E+10	1	-1E+10	1
4902549	58	C	03/18/2022	09:58	-131.735	47.549	0	667.90	0	3.9260	0	34.1590	0	27.130	0	661.257	0	17.2	4	5.4	4	-1E+10	1	-1E+10	1	-1E+10	1	-1E+10	1	-1E+10	1	-1E+10	1
4902549	58	C	03/18/2022	09:58	-131.735	47.549	0	673.10	0	3.9040	0	34.1650	0	27.137	0	666.397	0	16.7	4	5.3	4	-1E+10	1	-1E+10	1	-1E+10	1	-1E+10	1	-1E+10	1	-1E+10	1
4902549	58	C	03/18/2022	09:58	-131.735	47.549	0	677.90	0	3.8930	0	34.1680	0	27.140	0	671.141	0	16.3	4	5.1	4	-1E+10	1	-1E+10	1	-1E+10	1	-1E+10	1	-1E+10	1	-1E+10	1
4902549	58	C	03/18/2022	09:58	-131.735	47.549	0	682.80	0	3.8820	0	34.1720	0	27.145	0	675.984	0	15.9	4	5.0	4	-1E+10	1	-1E+10	1	-1E+10	1	-1E+10	1	-1E+10	1	-1E+10	1
4902549	58	C	03/18/2022	09:58	-131.735	47.549	0	687.70	0	3.8690	0	34.1760	0	27.149	0	680.827	0	15.5	4	4.9	4	-1E+10	1	-1E+10	1	-1E+10	1	-1E+10	1	-1E+10	1	-1E+10	1
4902549	58	C	03/18/2022	09:58	-131.735	47.549	0	692.70	0	3.8600	0	34.1790	0	27.152	0	685.769	0	15.2	4	4.8	4	-1E+10	1	-1E+10	1	-1E+10	1	-1E+10	1	-1E+10	1	-1E+10	1
4902549	58	C	03/18/2022	09:58	-131.735	47.549	0	697.60	0	3.8500	0	34.1820	0	27.156	0	690.612	0	14.7	4	4.6	4	-1E+10	1	-1E+10	1	-1E+10	1	-1E+10	1	-1E+10	1	-1E+10	1
4902549	58	C	03/18/2022	09:58	-131.735	47.549	0	702.50	0	3.8300	0	34.1880	0	27.163	0	695.455	0	14.3	4	4.5	4	-1E+10	1	-1E+10	1	-1E+10	1	-1E+10	1	-1E+10	1	-1E+10	1
4902549	58	C	03/18/2022	09:58	-131.735	47.549	0	707.50	0	3.8220	0	34.1910	0	27.166	0	700.396	0	14.1	4	4.4	4	-1E+10	1	-1E+10	1	-1E+10	1	-1E+10	1	-1E+10	1	-1E+10	1
4902549	58	C	03/18/2022	09:58	-131.735	47.549	0	712.60	0	3.8120	0	34.1930	0	27.168	0	705.436	0	13.7	4	4.3	4	-1E+10	1	-1E+10	1	-1E+10	1	-1E+10	1	-1E+10	1	-1E+10	1
4902549	58	C	03/18/2022	09:58	-131.735	47.549	0	717.70	0	3.7910	0	34.1990	0	27.175	0	710.477	0	13.4	4	4.2	4	-1E+10	1	-1E+10	1	-1E+10	1	-1E+10	1	-1E+10	1	-1E+10	1
4902549	58	C	03/18/2022	09:58	-131.735	47.549	0	722.80	0	3.7830	0	34.2010	0	27.178	0	715.516	0	13.2	4	4.1	4	-1E+10	1	-1E+10	1	-1E+10	1	-1E+10	1	-1E+10	1	-1E+10	1
4902549	58	C	03/18/2022	09:58	-131.735	47.549	0	727.90	0	3.7680	0	34.2050	0	27.183	0	720.556	0	13.0	4	4.1	4	-1E+10	1	-1E+10	1	-1E+10	1	-1E+10	1	-1E+10	1	-1E+10	1
4902549	58	C	03/18/2022	09:58	-131.735	47.549	0	733.00	0	3.7610	0	34.2070	0	27.185	0	725.596	0	12.8	4	4.0	4	-1E+10	1	-1E+10	1	-1E+10	1	-1E+10	1	-1E+10	1	-1E+10	1
4902549	58	C	03/18/2022	09:58	-131.735	47.549	0	738.10	0	3.7550	0	34.2080	0	27.186	0	730.635	0	12.6	4	3.9	4	-1E+10	1	-1E+10	1	-1E+10	1	-1E+10	1	-1E+10	1	-1E+10	1
4902549	58	C	03/18/2022	09:58	-131.735	47.549	0	742.80	0	3.7420	0	34.2120	0	27.191	0	735.280	0	12.3	4	3.9	4	-1E+10	1	-1E+10	1	-1E+10	1	-1E+10	1	-1E+10	1	-1E+10	1
4902549	58	C	03/18/2022	09:58	-131.735	47.549	0	747.60	0	3.7270	0	34.2160	0	27.195	0	740.023	0	12.1	4	3.8	4	-1E+10	1	-1E+10	1	-1E+10	1	-1E+10	1	-1E+10	1	-1E+10	1
4902549	58	C	03/18/2022	09:58	-131.735	47.549	0	752.90	0	3.7190	0	34.2190	0	27.199	0	745.259	0	11.9	4	3.7	4	-1E+10	1	-1E+10	1	-1E+10	1	-1E+10	1	-1E+10	1	-1E+10	1
4902549	58	C	03/18/2022	09:58	-131.735	47.549	0	757.90	0	3.7090	0	34.2220	0	27.202	0	750.200	0	11.7	4	3.7	4	-1E+10	1	-1E+10	1	-1E+10	1	-1E+10	1	-1E+10	1	-1E+10	1
4902549	58	C	03/18/2022	09:58	-131.735	47.549	0	762.90	0	3.6980	0	34.2240	0	27.205	0	755.140	0	11.4	4	3.6	4	-1E+10	1	-1E+10	1	-1E+10	1	-1E+10	1	-1E+10	1	-1E+10	1
4902549	58	C	03/18/2022	09:58	-131.735	47.549	0	768.10	0	3.6870	0	34.2260	0	27.208	0	760.277	0	11.2	4	3.5	4	-1E+10	1	-1E+10	1	-1E+10	1	-1E+10	1	-1E+10	1	-1E+10	1
4902549	58	C	03/18/2022	09:58	-131.735	47.549	0	772.90	0	3.6770	0	34.2300	0	27.212	0	765.020	0	11.0	4	3.4	4	-1E+10	1	-1E+10	1	-1E+10	1	-1E+10	1	-1E+10	1	-1E+10	1
4902549	58	C	03/18/2022	09:58	-131.735	47.549	0	777.60	0	3.6630	0	34.2330	0	27.216	0	769.663	0	10.8	4	3.4	4	-1E+10	1	-1E+10	1	-1E+10	1	-1E+10	1	-1E+10	1	-1E+10	1
4902549	58	C	03/18/2022	09:58	-131.735	47.549	0	782.90	0	3.6560	0	34.2360	0	27.219	0	774.899	0	10.7	4	3.3	4	-1E+10	1	-1E+10	1	-1E+10	1	-1E+10	1	-1E+10	1	-1E+10	1
4902549	58	C	03/18/2022	09:58	-131.735	47.549	0	788.40	0	3.6520	0	34.2370	0	27.220	0	780.333	0	10.4	4	3.3	4	-1E+10	1	-1E+10	1	-1E+10	1	-1E+10	1	-1E+10	1	-1E+10	1
4902549	58	C	03/18/2022	09:58	-131.735	47.549	0	793.20	0	3.6420	0	34.2390	0	27.222	0	785.075	0	10.2	4	3.2	4	-1E+10	1	-1E+10	1	-1E+10	1	-1E+10	1	-1E+10	1	-1E+10	1
4902549	58	C	03/18/2022	09:58	-131.735	47.549	0	798.10	0	3.6310	0	34.2430	0	27.227	0	789.915	0	10.0	4	3.1	4	-1E+10	1	-1E+10	1	-1E+10	1	-1E+10	1	-1E+10	1	-1E+10	1
4902549	58	C	03/18/2022	09:58	-131.735	47.549	0	803.00	0	3.6210	0	34.2450	0	27.229	0	794.756	0	9.8	4	3.1	4	-1E+10	1	-1E+10	1	-1E+10	1	-1E+10	1	-1E+10	1	-1E+10	1
4902549	58	C	03/18/2022	09:58	-131.735	47.549	0	808.10	0	3.6070	0	34.2490	0	27.234	0	799.794	0	9.5	4	3.0	4	-1E+10	1	-1E+10	1	-1E+10	1	-1E+10	1	-1E+10	1	-1E+10	1
4902549	58	C	03/18/2022	09:58	-131.735	47.549	0	812.90	0	3.5910	0	34.2530	0	27.239	0	804.535	0	9.3	4	2.9	4	-1E+10	1	-1E+10	1	-1E+10	1	-1E+10	1	-1E+10	1	-1E+10	1
4902549	58	C	03/18/2022	09:58	-131.735	47.549	0	817.80	0	3.5730	0	34.2590	0	27.245	0	809.375	0	9.2	4	2.9	4	-1E+10	1	-1E+10	1	-1E+10	1	-1E+10	1	-1E+10	1	-1E+10	1
4902549	58	C	03/18/2022	09:58	-131.735	47.549	0	822.80	0	3.5610	0	34.2610	0	27.248	0	814.314	0	9.0	4	2.8	4	-1E+10	1	-1E+10	1	-1E+10	1	-1E+10	1	-1E+10	1	-1E+10	1
4902549	58	C	03/18/2022	09:58	-131.735	47.549	0	827.90	0	3.5510	0	34.2650	0	27.252	0	819.351	0	8.9	4	2.8	4	-1E+10	1	-1E+10	1	-1E+10	1	-1E+10	1	-1E+10	1	-1E+10	1
4902549	58	C	03/18/2022	09:58	-131.735	47.549	0	833.00	0	3.5400	0	34.2670	0	27.255	0	824.388	0	8.8	4	2.8	4	-1E+10	1	-1E+10	1	-1E+10	1	-1E+10	1	-1E+10	1	-1E+10	1
4902549	58	C	03/18/2022	09:58	-131.735	47.549	0	837.80	0	3.5290	0	34.2700	0	27.258	0	829.129	0	8.8	4	2.7	4	-1E+10	1	-1E+10	1	-1E+10	1	-1E+10	1	-1E+10	1	-1E+10	1
4902549	58	C	03/18/2022	09:58	-131.735	47.549	0	842.70	0	3.5210	0	34.2710	0	27.260	0	833.969	0	8.7	4	2.7	4	-1E+10	1	-1E+10	1	-1E+10	1	-1E+10	1	-1E+10	1	-1E+10	1
4902549	58	C	03/18/2022	09:58	-131.735	47.549	0	848.10	0	3.5080	0	34.2750	0	27.264	0	839.302	0	8.6	4	2.7	4	-1E+10	1	-1E+10	1	-1E+10	1	-1E+10	1	-1E+10	1	-1E+10	1
4902549	58	C	03/18/2022	09:58	-131.735	47.549	0	853.10	0	3.5030	0	34.2760	0	27.266	0	844.240	0	8.6	4	2.7	4	-1E+10	1	-1E+10	1	-1E+10	1	-1E+10	1	-1E+10	1	-1E+10	1
4902549	58	C	03/18/2022	09:58	-131.735	47.549	0	857.80	0	3.4980	0	34.2770	0	27.267	0	848.882	0	8.6	4	2.7	4	-1E+10	1	-1E+10	1	-1E+10	1	-1E+10	1	-1E+10	1	-1E+10	1
4902549	58	C	03/18/2022	09:58	-131.735	47.549	0	863.00	0	3.4950	0	34.2780	0	27.268	0	854.017	0	8.5	4	2.7	4	-1E+10	1	-1E+10	1	-1E+10	1	-1E+10	1	-1E+10	1	-1E+10	1
4902549	58	C	03/18/2022	09:58	-131.735	47.549	0	868.10	0	3.4820	0	34.2810	0	27.272	0	859.054	0	8.5	4	2.6	4	-1E+10	1	-1E+10	1	-1E+10	1	-1E+10	1	-1E+10	1	-1E+10	1
4902549	58	C	03/18/2022	09:58	-131.735	47.549	0	872.80	0	3.4780	0	34.2820	0	27.273	0	863.695	0	8.4	4	2.6	4	-1E+10	1	-1E+10	1	-1E+10	1	-1E+10	1	-1E+10	1	-1E+10	1
4902549	58	C	03/18/2022	09:58	-131.735	47.549	0	877.90	0	3.4770	0	34.2820	0	27.273	0	868.731	0	8.4	4	2.6	4	-1E+10	1	-1E+10	1	-1E+10	1	-1E+10	1	-1E+10	1	-1E+10	1
4902549	58	C	03/18/2022	09:58	-131.735	47.549	0	883.00	0	3.4680	0	34.2840	0	27.276	0	873.767	0	8.2	4	2.6	4	-1E+10	1	-1E+10	1	-1E+10	1	-1E+10	1	-1E+10	1	-1E+10	1
4902549	58	C	03/18/2022	09:58	-131.735	47.549	0	887.70	0	3.4530	0	34.2880	0	27.280	0	878.408	0	8.1	4	2.5	4	-1E+10	1	-1E+10	1	-1E+10	1	-1E+10	1	-1E+10	1	-1E+10	1
4902549	58	C	03/18/2022	09:58	-131.735	47.549	0	892.80	0	3.4350	0	34.2930	0	27.286	0	883.444	0	8.0	4	2.5	4	-1E+10	1	-1E+10	1	-1E+10	1	-1E+10	1	-1E+10	1	-1E+10	1
4902549	58	C	03/18/2022	09:58	-131.735	47.549	0	897.90	0	3.4200	0	34.2970	0	27.291	0	888.480	0	7.9	4	2.5	4	-1E+10	1	-1E+10	1	-1E+10	1	-1E+10	1	-1E+10	1	-1E+10	1
4902549	58	C	03/18/2022	09:58	-131.735	47.549	0	903.00	0	3.4080	0	34.3000	0	27.294	0	893.515	0	7.8	4	2.4	4	-1E+10	1	-1E+10	1	-1E+10	1	-1E+10	1	-1E+10	1	-1E+10	1
4902549	58	C	03/18/2022	09:58	-131.735	47.549	0	908.10	0	3.4020	0	34.3020	0	27.297	0	898.551	0	7.8	4	2.4	4	-1E+10	1	-1E+10	1	-1E+10	1	-1E+10	1	-1E+10	1	-1E+10	1
4902549	58	C	03/18/2022	09:58	-131.735	47.549	0	913.10	0	3.3890	0	34.3050	0	27.300	0	903.487	0	7.7	4	2.4	4	-1E+10	1	-1E+10	1	-1E+10	1	-1E+10	1	-1E+10	1	-1E+10	1
4902549	58	C	03/18/2022	09:58	-131.735	47.549	0	918.00	0	3.3740	0	34.3090	0	27.305	0	908.325	0	7.6	4	2.4	4	-1E+10	1	-1E+10	1	-1E+10	1	-1E+10	1	-1E+10	1	-1E+10	1
4902549	58	C	03/18/2022	09:58	-131.735	47.549	0	922.90	0	3.3700	0	34.3100	0	27.306	0	913.163	0	7.5	4	2.3	4	-1E+10	1	-1E+10	1	-1E+10	1	-1E+10	1	-1E+10	1	-1E+10	1
4902549	58	C	03/18/2022	09:58	-131.735	47.549	0	927.80	0	3.3530	0	34.3140	0	27.311	0	918.000	0	7.4	4	2.3	4	-1E+10	1	-1E+10	1	-1E+10	1	-1E+10	1	-1E+10	1	-1E+10	1
4902549	58	C	03/18/2022	09:58	-131.735	47.549	0	932.70	0	3.3460	0	34.3160	0	27.313	0	922.838	0	7.3	4	2.3	4	-1E+10	1	-1E+10	1	-1E+10	1	-1E+10	1	-1E+10	1	-1E+10	1
4902549	58	C	03/18/2022	09:58	-131.735	47.549	0	938.10	0	3.3350	0	34.3190	0	27.317	0	928.169	0	7.3	4	2.3	4	-1E+10	1	-1E+10	1	-1E+10	1	-1E+10	1	-1E+10	1	-1E+10	1
4902549	58	C	03/18/2022	09:58	-131.735	47.549	0	943.00	0	3.3180	0	34.3230	0	27.321	0	933.006	0	7.2	4	2.2	4	-1E+10	1	-1E+10	1	-1E+10	1	-1E+10	1	-1E+10	1	-1E+10	1
4902549	58	C	03/18/2022	09:58	-131.735	47.549	0	947.90	0	3.3080	0	34.3260	0	27.325	0	937.843	0	7.2	4	2.2	4	-1E+10	1	-1E+10	1	-1E+10	1	-1E+10	1	-1E+10	1	-1E+10	1
4902549	58	C	03/18/2022	09:58	-131.735	47.549	0	953.10	0	3.2950	0	34.3290	0	27.328	0	942.976	0	7.1	4	2.2	4	-1E+10	1	-1E+10	1	-1E+10	1	-1E+10	1	-1E+10	1	-1E+10	1
4902549	58	C	03/18/2022	09:58	-131.735	47.549	0	958.00	0	3.2840	0	34.3320	0	27.332	0	947.813	0	7.1	4	2.2	4	-1E+10	1	-1E+10	1	-1E+10	1	-1E+10	1	-1E+10	1	-1E+10	1
4902549	58	C	03/18/2022	09:58	-131.735	47.549	0	962.90	0	3.2710	0	34.3350	0	27.335	0	952.650	0	7.0	4	2.2	4	-1E+10	1	-1E+10	1	-1E+10	1	-1E+10	1	-1E+10	1	-1E+10	1
4902549	58	C	03/18/2022	09:58	-131.735	47.549	0	967.90	0	3.2600	0	34.3380	0	27.339	0	957.585	0	7.0	4	2.2	4	-1E+10	1	-1E+10	1	-1E+10	1	-1E+10	1	-1E+10	1	-1E+10	1
4902549	58	C	03/18/2022	09:58	-131.735	47.549	0	973.00	0	3.2470	0	34.3420	0	27.343	0	962.619	0	6.9	4	2.1	4	-1E+10	1	-1E+10	1	-1E+10	1	-1E+10	1	-1E+10	1	-1E+10	1
4902549	58	C	03/18/2022	09:58	-131.735	47.549	0	978.00	0	3.2390	0	34.3440	0	27.346	0	967.554	0	6.9	4	2.1	4	-1E+10	1	-1E+10	1	-1E+10	1	-1E+10	1	-1E+10	1	-1E+10	1
4902549	58	C	03/18/2022	09:58	-131.735	47.549	0	982.70	0	3.2320	0	34.3460	0	27.348	0	972.193	0	6.8	4	2.1	4	-1E+10	1	-1E+10	1	-1E+10	1	-1E+10	1	-1E+10	1	-1E+10	1
4902549	58	C	03/18/2022	09:58	-131.735	47.549	0	987.80	0	3.2220	0	34.3490	0	27.351	0	977.227	0	6.8	4	2.1	4	-1E+10	1	-1E+10	1	-1E+10	1	-1E+10	1	-1E+10	1	-1E+10	1
4902549	58	C	03/18/2022	09:58	-131.735	47.549	0	993.00	0	3.2110	0	34.3520	0	27.355	0	982.359	0	6.8	4	2.1	4	-1E+10	1	-1E+10	1	-1E+10	1	-1E+10	1	-1E+10	1	-1E+10	1
4902549	58	C	03/18/2022	09:58	-131.735	47.549	0	997.80	0	3.2050	0	34.3540	0	27.357	0	987.096	0	6.7	4	2.1	4	-1E+10	1	-1E+10	1	-1E+10	1	-1E+10	1	-1E+10	1	-1E+10	1
4902549	58	C	03/18/2022	09:58	-131.735	47.549	0	1005.50	0	3.1920	0	34.3580	0	27.361	0	994.695	0	6.7	4	2.1	4	-1E+10	1	-1E+10	1	-1E+10	1	-1E+10	1	-1E+10	1	-1E+10	1
4902549	58	C	03/18/2022	09:58	-131.735	47.549	0	1015.80	0	3.1630	0	34.3660	0	27.371	0	1004.860	0	6.7	4	2.1	4	-1E+10	1	-1E+10	1	-1E+10	1	-1E+10	1	-1E+10	1	-1E+10	1
4902549	58	C	03/18/2022	09:58	-131.735	47.549	0	1025.80	0	3.1400	0	34.3720	0	27.377	0	1014.728	0	6.8	4	2.1	4	-1E+10	1	-1E+10	1	-1E+10	1	-1E+10	1	-1E+10	1	-1E+10	1
4902549	58	C	03/18/2022	09:58	-131.735	47.549	0	1035.50	0	3.1180	0	34.3780	0	27.384	0	1024.300	0	6.8	4	2.1	4	-1E+10	1	-1E+10	1	-1E+10	1	-1E+10	1	-1E+10	1	-1E+10	1
4902549	58	C	03/18/2022	09:58	-131.735	47.549	0	1045.60	0	3.0960	0	34.3840	0	27.391	0	1034.266	0	6.9	4	2.1	4	-1E+10	1	-1E+10	1	-1E+10	1	-1E+10	1	-1E+10	1	-1E+10	1
4902549	58	C	03/18/2022	09:58	-131.735	47.549	0	1055.30	0	3.0860	0	34.3860	0	27.394	0	1043.836	0	6.9	4	2.1	4	-1E+10	1	-1E+10	1	-1E+10	1	-1E+10	1	-1E+10	1	-1E+10	1
4902549	58	C	03/18/2022	09:58	-131.735	47.549	0	1065.40	0	3.0730	0	34.3890	0	27.397	0	1053.801	0	7.0	4	2.2	4	-1E+10	1	-1E+10	1	-1E+10	1	-1E+10	1	-1E+10	1	-1E+10	1
4902549	58	C	03/18/2022	09:58	-131.735	47.549	0	1075.50	0	3.0550	0	34.3930	0	27.402	0	1063.766	0	7.1	4	2.2	4	-1E+10	1	-1E+10	1	-1E+10	1	-1E+10	1	-1E+10	1	-1E+10	1
4902549	58	C	03/18/2022	09:58	-131.735	47.549	0	1085.20	0	3.0450	0	34.3950	0	27.405	0	1073.335	0	7.2	4	2.2	4	-1E+10	1	-1E+10	1	-1E+10	1	-1E+10	1	-1E+10	1	-1E+10	1
4902549	58	C	03/18/2022	09:58	-131.735	47.549	0	1095.10	0	3.0360	0	34.3970	0	27.407	0	1083.101	0	7.3	4	2.2	4	-1E+10	1	-1E+10	1	-1E+10	1	-1E+10	1	-1E+10	1	-1E+10	1
4902549	58	C	03/18/2022	09:58	-131.735	47.549	0	1105.30	0	3.0230	0	34.3990	0	27.410	0	1093.163	0	7.4	4	2.3	4	-1E+10	1	-1E+10	1	-1E+10	1	-1E+10	1	-1E+10	1	-1E+10	1
4902549	58	C	03/18/2022	09:58	-131.735	47.549	0	1115.10	0	3.0170	0	34.4010	0	27.412	0	1102.830	0	7.5	4	2.3	4	-1E+10	1	-1E+10	1	-1E+10	1	-1E+10	1	-1E+10	1	-1E+10	1
4902549	58	C	03/18/2022	09:58	-131.735	47.549	0	1125.20	0	3.0040	0	34.4030	0	27.415	0	1112.792	0	7.6	4	2.3	4	-1E+10	1	-1E+10	1	-1E+10	1	-1E+10	1	-1E+10	1	-1E+10	1
4902549	58	C	03/18/2022	09:58	-131.735	47.549	0	1135.30	0	2.9950	0	34.4050	0	27.418	0	1122.753	0	7.7	4	2.4	4	-1E+10	1	-1E+10	1	-1E+10	1	-1E+10	1	-1E+10	1	-1E+10	1
4902549	58	C	03/18/2022	09:58	-131.735	47.549	0	1145.40	0	2.9790	0	34.4070	0	27.421	0	1132.715	0	7.8	4	2.4	4	-1E+10	1	-1E+10	1	-1E+10	1	-1E+10	1	-1E+10	1	-1E+10	1
4902549	58	C	03/18/2022	09:58	-131.735	47.549	0	1155.90	0	2.9650	0	34.4100	0	27.425	0	1143.070	0	7.9	4	2.4	4	-1E+10	1	-1E+10	1	-1E+10	1	-1E+10	1	-1E+10	1	-1E+10	1
4902549	58	C	03/18/2022	09:58	-131.735	47.549	0	1165.80	0	2.9490	0	34.4130	0	27.428	0	1152.833	0	8.0	4	2.5	4	-1E+10	1	-1E+10	1	-1E+10	1	-1E+10	1	-1E+10	1	-1E+10	1
4902549	58	C	03/18/2022	09:58	-131.735	47.549	0	1175.70	0	2.9340	0	34.4160	0	27.432	0	1162.595	0	8.2	4	2.5	4	-1E+10	1	-1E+10	1	-1E+10	1	-1E+10	1	-1E+10	1	-1E+10	1
4902549	58	C	03/18/2022	09:58	-131.735	47.549	0	1185.70	0	2.9230	0	34.4190	0	27.436	0	1172.456	0	8.3	4	2.6	4	-1E+10	1	-1E+10	1	-1E+10	1	-1E+10	1	-1E+10	1	-1E+10	1
4902549	58	C	03/18/2022	09:58	-131.735	47.549	0	1195.50	0	2.9170	0	34.4200	0	27.437	0	1182.119	0	8.4	4	2.6	4	-1E+10	1	-1E+10	1	-1E+10	1	-1E+10	1	-1E+10	1	-1E+10	1
4902549	58	C	03/18/2022	09:58	-131.735	47.549	0	1205.30	0	2.9080	0	34.4220	0	27.439	0	1191.781	0	8.6	4	2.7	4	-1E+10	1	-1E+10	1	-1E+10	1	-1E+10	1	-1E+10	1	-1E+10	1
4902549	58	C	03/18/2022	09:58	-131.735	47.549	0	1215.10	0	2.8810	0	34.4260	0	27.445	0	1201.444	0	8.8	4	2.7	4	-1E+10	1	-1E+10	1	-1E+10	1	-1E+10	1	-1E+10	1	-1E+10	1
4902549	58	C	03/18/2022	09:58	-131.735	47.549	0	1225.40	0	2.8480	0	34.4270	0	27.449	0	1211.598	0	9.0	4	2.8	4	-1E+10	1	-1E+10	1	-1E+10	1	-1E+10	1	-1E+10	1	-1E+10	1
4902549	58	C	03/18/2022	09:58	-131.735	47.549	0	1235.80	0	2.8280	0	34.4310	0	27.454	0	1221.851	0	9.2	4	2.8	4	-1E+10	1	-1E+10	1	-1E+10	1	-1E+10	1	-1E+10	1	-1E+10	1
4902549	58	C	03/18/2022	09:58	-131.735	47.549	0	1245.50	0	2.8150	0	34.4330	0	27.457	0	1231.413	0	9.4	4	2.9	4	-1E+10	1	-1E+10	1	-1E+10	1	-1E+10	1	-1E+10	1	-1E+10	1
4902549	58	C	03/18/2022	09:58	-131.735	47.549	0	1255.20	0	2.8070	0	34.4350	0	27.459	0	1240.975	0	9.5	4	2.9	4	-1E+10	1	-1E+10	1	-1E+10	1	-1E+10	1	-1E+10	1	-1E+10	1
4902549	58	C	03/18/2022	09:58	-131.735	47.549	0	1265.30	0	2.7980	0	34.4370	0	27.461	0	1250.930	0	9.8	4	3.0	4	-1E+10	1	-1E+10	1	-1E+10	1	-1E+10	1	-1E+10	1	-1E+10	1
4902549	58	C	03/18/2022	09:58	-131.735	47.549	0	1275.30	0	2.7930	0	34.4400	0	27.464	0	1260.787	0	10.0	4	3.1	4	-1E+10	1	-1E+10	1	-1E+10	1	-1E+10	1	-1E+10	1	-1E+10	1
4902549	58	C	03/18/2022	09:58	-131.735	47.549	0	1285.40	0	2.7850	0	34.4430	0	27.468	0	1270.741	0	10.2	4	3.1	4	-1E+10	1	-1E+10	1	-1E+10	1	-1E+10	1	-1E+10	1	-1E+10	1
4902549	58	C	03/18/2022	09:58	-131.735	47.549	0	1295.50	0	2.7730	0	34.4450	0	27.470	0	1280.695	0	10.4	4	3.2	4	-1E+10	1	-1E+10	1	-1E+10	1	-1E+10	1	-1E+10	1	-1E+10	1
4902549	58	C	03/18/2022	09:58	-131.735	47.549	0	1305.50	0	2.7610	0	34.4460	0	27.472	0	1290.551	0	10.7	4	3.3	4	-1E+10	1	-1E+10	1	-1E+10	1	-1E+10	1	-1E+10	1	-1E+10	1
4902549	58	C	03/18/2022	09:58	-131.735	47.549	0	1315.60	0	2.7430	0	34.4500	0	27.477	0	1300.504	0	11.0	4	3.4	4	-1E+10	1	-1E+10	1	-1E+10	1	-1E+10	1	-1E+10	1	-1E+10	1
4902549	58	C	03/18/2022	09:58	-131.735	47.549	0	1325.70	0	2.7310	0	34.4520	0	27.480	0	1310.456	0	11.3	4	3.5	4	-1E+10	1	-1E+10	1	-1E+10	1	-1E+10	1	-1E+10	1	-1E+10	1
4902549	58	C	03/18/2022	09:58	-131.735	47.549	0	1335.60	0	2.7140	0	34.4550	0	27.484	0	1320.212	0	11.6	4	3.5	4	-1E+10	1	-1E+10	1	-1E+10	1	-1E+10	1	-1E+10	1	-1E+10	1
4902549	58	C	03/18/2022	09:58	-131.735	47.549	0	1345.40	0	2.6960	0	34.4570	0	27.487	0	1329.868	0	11.9	4	3.6	4	-1E+10	1	-1E+10	1	-1E+10	1	-1E+10	1	-1E+10	1	-1E+10	1
4902549	58	C	03/18/2022	09:58	-131.735	47.549	0	1355.40	0	2.6760	0	34.4600	0	27.491	0	1339.721	0	12.2	4	3.7	4	-1E+10	1	-1E+10	1	-1E+10	1	-1E+10	1	-1E+10	1	-1E+10	1
4902549	58	C	03/18/2022	09:58	-131.735	47.549	0	1365.60	0	2.6590	0	34.4610	0	27.493	0	1349.770	0	12.4	4	3.8	4	-1E+10	1	-1E+10	1	-1E+10	1	-1E+10	1	-1E+10	1	-1E+10	1
4902549	58	C	03/18/2022	09:58	-131.735	47.549	0	1375.60	0	2.6520	0	34.4630	0	27.496	0	1359.622	0	12.8	4	3.9	4	-1E+10	1	-1E+10	1	-1E+10	1	-1E+10	1	-1E+10	1	-1E+10	1
4902549	58	C	03/18/2022	09:58	-131.735	47.549	0	1385.40	0	2.6280	0	34.4670	0	27.501	0	1369.276	0	13.4	4	4.1	4	-1E+10	1	-1E+10	1	-1E+10	1	-1E+10	1	-1E+10	1	-1E+10	1
4902549	58	C	03/18/2022	09:58	-131.735	47.549	0	1395.20	0	2.6010	0	34.4700	0	27.506	0	1378.930	0	13.9	4	4.2	4	-1E+10	1	-1E+10	1	-1E+10	1	-1E+10	1	-1E+10	1	-1E+10	1
4902549	58	C	03/18/2022	09:58	-131.735	47.549	0	1405.20	0	2.5800	0	34.4730	0	27.510	0	1388.781	0	14.2	4	4.3	4	-1E+10	1	-1E+10	1	-1E+10	1	-1E+10	1	-1E+10	1	-1E+10	1
4902549	58	C	03/18/2022	09:58	-131.735	47.549	0	1415.30	0	2.5710	0	34.4740	0	27.511	0	1398.729	0	14.5	4	4.4	4	-1E+10	1	-1E+10	1	-1E+10	1	-1E+10	1	-1E+10	1	-1E+10	1
4902549	58	C	03/18/2022	09:58	-131.735	47.549	0	1425.40	0	2.5580	0	34.4760	0	27.514	0	1408.677	0	14.9	4	4.5	4	-1E+10	1	-1E+10	1	-1E+10	1	-1E+10	1	-1E+10	1	-1E+10	1
4902549	58	C	03/18/2022	09:58	-131.735	47.549	0	1435.50	0	2.5420	0	34.4790	0	27.518	0	1418.625	0	15.3	4	4.7	4	-1E+10	1	-1E+10	1	-1E+10	1	-1E+10	1	-1E+10	1	-1E+10	1
4902549	58	C	03/18/2022	09:58	-131.735	47.549	0	1445.70	0	2.5320	0	34.4810	0	27.521	0	1428.670	0	15.7	4	4.8	4	-1E+10	1	-1E+10	1	-1E+10	1	-1E+10	1	-1E+10	1	-1E+10	1
4902549	58	C	03/18/2022	09:58	-131.735	47.549	0	1455.60	0	2.5140	0	34.4830	0	27.524	0	1438.420	0	16.2	4	5.0	4	-1E+10	1	-1E+10	1	-1E+10	1	-1E+10	1	-1E+10	1	-1E+10	1
4902549	58	C	03/18/2022	09:58	-131.735	47.549	0	1465.30	0	2.5030	0	34.4860	0	27.527	0	1447.972	0	16.7	4	5.1	4	-1E+10	1	-1E+10	1	-1E+10	1	-1E+10	1	-1E+10	1	-1E+10	1
4902549	58	C	03/18/2022	09:58	-131.735	47.549	0	1475.20	0	2.4870	0	34.4880	0	27.530	0	1457.721	0	17.4	4	5.3	4	-1E+10	1	-1E+10	1	-1E+10	1	-1E+10	1	-1E+10	1	-1E+10	1
4902549	58	C	03/18/2022	09:58	-131.735	47.549	0	1485.30	0	2.4740	0	34.4910	0	27.534	0	1467.666	0	18.0	4	5.5	4	-1E+10	1	-1E+10	1	-1E+10	1	-1E+10	1	-1E+10	1	-1E+10	1
4902549	58	C	03/18/2022	09:58	-131.735	47.549	0	1495.60	0	2.4540	0	34.4940	0	27.538	0	1477.808	0	18.7	4	5.7	4	-1E+10	1	-1E+10	1	-1E+10	1	-1E+10	1	-1E+10	1	-1E+10	1
4902549	58	C	03/18/2022	09:58	-131.735	47.549	0	1505.70	0	2.4370	0	34.4970	0	27.542	0	1487.752	0	19.3	4	5.9	4	-1E+10	1	-1E+10	1	-1E+10	1	-1E+10	1	-1E+10	1	-1E+10	1
4902549	58	C	03/18/2022	09:58	-131.735	47.549	0	1515.40	0	2.4250	0	34.4990	0	27.544	0	1497.303	0	19.7	4	6.0	4	-1E+10	1	-1E+10	1	-1E+10	1	-1E+10	1	-1E+10	1	-1E+10	1
4902549	58	C	03/18/2022	09:58	-131.735	47.549	0	1525.00	0	2.4170	0	34.5010	0	27.547	0	1506.754	0	20.2	4	6.1	4	-1E+10	1	-1E+10	1	-1E+10	1	-1E+10	1	-1E+10	1	-1E+10	1
4902549	58	C	03/18/2022	09:58	-131.735	47.549	0	1535.20	0	2.4060	0	34.5030	0	27.549	0	1516.795	0	20.7	4	6.3	4	-1E+10	1	-1E+10	1	-1E+10	1	-1E+10	1	-1E+10	1	-1E+10	1
4902549	58	C	03/18/2022	09:58	-131.735	47.549	0	1545.30	0	2.3950	0	34.5050	0	27.552	0	1526.738	0	21.2	4	6.4	4	-1E+10	1	-1E+10	1	-1E+10	1	-1E+10	1	-1E+10	1	-1E+10	1
4902549	58	C	03/18/2022	09:58	-131.735	47.549	0	1555.10	0	2.3840	0	34.5060	0	27.553	0	1536.384	0	21.8	4	6.6	4	-1E+10	1	-1E+10	1	-1E+10	1	-1E+10	1	-1E+10	1	-1E+10	1
4902549	58	C	03/18/2022	09:58	-131.735	47.549	0	1565.40	0	2.3700	0	34.5090	0	27.557	0	1546.523	0	22.5	4	6.9	4	-1E+10	1	-1E+10	1	-1E+10	1	-1E+10	1	-1E+10	1	-1E+10	1
4902549	58	C	03/18/2022	09:58	-131.735	47.549	0	1575.40	0	2.3630	0	34.5120	0	27.560	0	1556.365	0	22.9	4	7.0	4	-1E+10	1	-1E+10	1	-1E+10	1	-1E+10	1	-1E+10	1	-1E+10	1
4902549	58	C	03/18/2022	09:58	-131.735	47.549	0	1585.40	0	2.3600	0	34.5120	0	27.560	0	1566.208	0	23.5	4	7.1	4	-1E+10	1	-1E+10	1	-1E+10	1	-1E+10	1	-1E+10	1	-1E+10	1
4902549	58	C	03/18/2022	09:58	-131.735	47.549	0	1595.60	0	2.3330	0	34.5160	0	27.566	0	1576.246	0	24.6	4	7.5	4	-1E+10	1	-1E+10	1	-1E+10	1	-1E+10	1	-1E+10	1	-1E+10	1
4902549	58	C	03/18/2022	09:58	-131.735	47.549	0	1605.70	0	2.3020	0	34.5190	0	27.571	0	1586.186	0	25.8	4	7.8	4	-1E+10	1	-1E+10	1	-1E+10	1	-1E+10	1	-1E+10	1	-1E+10	1
4902549	58	C	03/18/2022	09:58	-131.735	47.549	0	1615.40	0	2.2800	0	34.5230	0	27.576	0	1595.731	0	26.8	4	8.1	4	-1E+10	1	-1E+10	1	-1E+10	1	-1E+10	1	-1E+10	1	-1E+10	1
4902549	58	C	03/18/2022	09:58	-131.735	47.549	0	1625.10	0	2.2630	0	34.5250	0	27.579	0	1605.276	0	27.6	4	8.4	4	-1E+10	1	-1E+10	1	-1E+10	1	-1E+10	1	-1E+10	1	-1E+10	1
4902549	58	C	03/18/2022	09:58	-131.735	47.549	0	1635.10	0	2.2450	0	34.5280	0	27.583	0	1615.116	0	28.4	4	8.6	4	-1E+10	1	-1E+10	1	-1E+10	1	-1E+10	1	-1E+10	1	-1E+10	1
4902549	58	C	03/18/2022	09:58	-131.735	47.549	0	1645.30	0	2.2300	0	34.5300	0	27.586	0	1625.153	0	28.9	4	8.8	4	-1E+10	1	-1E+10	1	-1E+10	1	-1E+10	1	-1E+10	1	-1E+10	1
4902549	58	C	03/18/2022	09:58	-131.735	47.549	0	1655.30	0	2.2240	0	34.5310	0	27.587	0	1634.992	0	29.5	4	8.9	4	-1E+10	1	-1E+10	1	-1E+10	1	-1E+10	1	-1E+10	1	-1E+10	1
4902549	58	C	03/18/2022	09:58	-131.735	47.549	0	1665.30	0	2.2070	0	34.5340	0	27.591	0	1644.830	0	30.6	4	9.3	4	-1E+10	1	-1E+10	1	-1E+10	1	-1E+10	1	-1E+10	1	-1E+10	1
4902549	58	C	03/18/2022	09:58	-131.735	47.549	0	1675.60	0	2.1910	0	34.5370	0	27.595	0	1654.963	0	31.5	4	9.5	4	-1E+10	1	-1E+10	1	-1E+10	1	-1E+10	1	-1E+10	1	-1E+10	1
4902549	58	C	03/18/2022	09:58	-131.735	47.549	0	1685.20	0	2.1830	0	34.5380	0	27.596	0	1664.407	0	32.0	4	9.7	4	-1E+10	1	-1E+10	1	-1E+10	1	-1E+10	1	-1E+10	1	-1E+10	1
4902549	58	C	03/18/2022	09:58	-131.735	47.549	0	1695.30	0	2.1790	0	34.5400	0	27.598	0	1674.343	0	32.7	4	9.9	4	-1E+10	1	-1E+10	1	-1E+10	1	-1E+10	1	-1E+10	1	-1E+10	1
4902549	58	C	03/18/2022	09:58	-131.735	47.549	0	1706.00	0	2.1790	0	34.5430	0	27.600	0	1684.868	0	33.6	4	10.2	4	-1E+10	1	-1E+10	1	-1E+10	1	-1E+10	1	-1E+10	1	-1E+10	1
4902549	58	C	03/18/2022	09:58	-131.735	47.549	0	1715.30	0	2.1710	0	34.5450	0	27.603	0	1694.016	0	34.4	4	10.4	4	-1E+10	1	-1E+10	1	-1E+10	1	-1E+10	1	-1E+10	1	-1E+10	1
4902549	58	C	03/18/2022	09:58	-131.735	47.549	0	1725.30	0	2.1470	0	34.5470	0	27.606	0	1703.852	0	34.9	4	10.6	4	-1E+10	1	-1E+10	1	-1E+10	1	-1E+10	1	-1E+10	1	-1E+10	1
4902549	58	C	03/18/2022	09:58	-131.735	47.549	0	1735.50	0	2.1290	0	34.5480	0	27.609	0	1713.884	0	35.8	4	10.8	4	-1E+10	1	-1E+10	1	-1E+10	1	-1E+10	1	-1E+10	1	-1E+10	1
4902549	58	C	03/18/2022	09:58	-131.735	47.549	0	1745.30	0	2.1170	0	34.5500	0	27.611	0	1723.522	0	36.6	4	11.1	4	-1E+10	1	-1E+10	1	-1E+10	1	-1E+10	1	-1E+10	1	-1E+10	1
4902549	58	C	03/18/2022	09:58	-131.735	47.549	0	1755.40	0	2.1060	0	34.5520	0	27.614	0	1733.455	0	37.5	4	11.3	4	-1E+10	1	-1E+10	1	-1E+10	1	-1E+10	1	-1E+10	1	-1E+10	1
4902549	58	C	03/18/2022	09:58	-131.735	47.549	0	1765.30	0	2.0930	0	34.5540	0	27.616	0	1743.190	0	38.3	4	11.6	4	-1E+10	1	-1E+10	1	-1E+10	1	-1E+10	1	-1E+10	1	-1E+10	1
4902549	58	C	03/18/2022	09:58	-131.735	47.549	0	1775.20	0	2.0870	0	34.5560	0	27.619	0	1752.925	0	39.2	4	11.9	4	-1E+10	1	-1E+10	1	-1E+10	1	-1E+10	1	-1E+10	1	-1E+10	1
4902549	58	C	03/18/2022	09:58	-131.735	47.549	0	1785.30	0	2.0750	0	34.5580	0	27.621	0	1762.857	0	40.4	4	12.2	4	-1E+10	1	-1E+10	1	-1E+10	1	-1E+10	1	-1E+10	1	-1E+10	1
4902549	58	C	03/18/2022	09:58	-131.735	47.549	0	1795.40	0	2.0730	0	34.5620	0	27.625	0	1772.788	0	41.2	4	12.4	4	-1E+10	1	-1E+10	1	-1E+10	1	-1E+10	1	-1E+10	1	-1E+10	1
4902549	58	C	03/18/2022	09:58	-131.735	47.549	0	1805.20	0	2.0650	0	34.5640	0	27.627	0	1782.423	0	41.9	4	12.6	4	-1E+10	1	-1E+10	1	-1E+10	1	-1E+10	1	-1E+10	1	-1E+10	1
4902549	58	C	03/18/2022	09:58	-131.735	47.549	0	1815.40	0	2.0610	0	34.5650	0	27.628	0	1792.451	0	42.2	4	12.7	4	-1E+10	1	-1E+10	1	-1E+10	1	-1E+10	1	-1E+10	1	-1E+10	1
4902549	58	C	03/18/2022	09:58	-131.735	47.549	0	1825.40	0	2.0580	0	34.5650	0	27.628	0	1802.283	0	42.8	4	12.9	4	-1E+10	1	-1E+10	1	-1E+10	1	-1E+10	1	-1E+10	1	-1E+10	1
4902549	58	C	03/18/2022	09:58	-131.735	47.549	0	1835.60	0	2.0480	0	34.5670	0	27.631	0	1812.310	0	43.5	4	13.1	4	-1E+10	1	-1E+10	1	-1E+10	1	-1E+10	1	-1E+10	1	-1E+10	1
4902549	58	C	03/18/2022	09:58	-131.735	47.549	0	1845.70	0	2.0420	0	34.5690	0	27.633	0	1822.239	0	44.1	4	13.3	4	-1E+10	1	-1E+10	1	-1E+10	1	-1E+10	1	-1E+10	1	-1E+10	1
4902549	58	C	03/18/2022	09:58	-131.735	47.549	0	1855.50	0	2.0370	0	34.5700	0	27.634	0	1831.872	0	44.6	4	13.5	4	-1E+10	1	-1E+10	1	-1E+10	1	-1E+10	1	-1E+10	1	-1E+10	1
4902549	58	C	03/18/2022	09:58	-131.735	47.549	0	1865.40	0	2.0270	0	34.5710	0	27.636	0	1841.603	0	45.3	4	13.7	4	-1E+10	1	-1E+10	1	-1E+10	1	-1E+10	1	-1E+10	1	-1E+10	1
4902549	58	C	03/18/2022	09:58	-131.735	47.549	0	1875.40	0	2.0190	0	34.5730	0	27.638	0	1851.432	0	45.7	4	13.8	4	-1E+10	1	-1E+10	1	-1E+10	1	-1E+10	1	-1E+10	1	-1E+10	1
4902549	58	C	03/18/2022	09:58	-131.735	47.549	0	1885.20	0	2.0160	0	34.5730	0	27.638	0	1861.064	0	46.1	4	13.9	4	-1E+10	1	-1E+10	1	-1E+10	1	-1E+10	1	-1E+10	1	-1E+10	1
4902549	58	C	03/18/2022	09:58	-131.735	47.549	0	1895.10	0	2.0090	0	34.5740	0	27.640	0	1870.793	0	46.5	4	14.0	4	-1E+10	1	-1E+10	1	-1E+10	1	-1E+10	1	-1E+10	1	-1E+10	1
4902549	58	C	03/18/2022	09:58	-131.735	47.549	0	1905.40	0	2.0030	0	34.5750	0	27.641	0	1880.916	0	47.0	4	14.2	4	-1E+10	1	-1E+10	1	-1E+10	1	-1E+10	1	-1E+10	1	-1E+10	1
4902549	58	C	03/18/2022	09:58	-131.735	47.549	0	1915.80	0	1.9960	0	34.5760	0	27.642	0	1891.136	0	47.5	4	14.3	4	-1E+10	1	-1E+10	1	-1E+10	1	-1E+10	1	-1E+10	1	-1E+10	1
4902549	58	C	03/18/2022	09:58	-131.735	47.549	0	1925.80	0	1.9860	0	34.5770	0	27.644	0	1900.963	0	48.1	4	14.5	4	-1E+10	1	-1E+10	1	-1E+10	1	-1E+10	1	-1E+10	1	-1E+10	1
4902549	58	C	03/18/2022	09:58	-131.735	47.549	0	1935.80	0	1.9800	0	34.5790	0	27.646	0	1910.789	0	48.6	4	14.7	4	-1E+10	1	-1E+10	1	-1E+10	1	-1E+10	1	-1E+10	1	-1E+10	1
4902549	58	C	03/18/2022	09:58	-131.735	47.549	0	1945.40	0	1.9730	0	34.5800	0	27.648	0	1920.222	0	49.2	4	14.8	4	-1E+10	1	-1E+10	1	-1E+10	1	-1E+10	1	-1E+10	1	-1E+10	1
4902549	58	C	03/18/2022	09:58	-131.735	47.549	0	1955.40	0	1.9630	0	34.5820	0	27.650	0	1930.047	0	49.8	4	15.0	4	-1E+10	1	-1E+10	1	-1E+10	1	-1E+10	1	-1E+10	1	-1E+10	1
4902549	58	C	03/18/2022	09:58	-131.735	47.549	0	1965.60	0	1.9590	0	34.5820	0	27.650	0	1940.068	0	50.1	4	15.1	4	-1E+10	1	-1E+10	1	-1E+10	1	-1E+10	1	-1E+10	1	-1E+10	1
4902549	58	C	03/18/2022	09:58	-131.735	47.549	0	1975.60	0	1.9540	0	34.5840	0	27.652	0	1949.893	0	50.6	4	15.2	4	-1E+10	1	-1E+10	1	-1E+10	1	-1E+10	1	-1E+10	1	-1E+10	1
4902549	58	C	03/18/2022	09:58	-131.735	47.549	0	1985.60	0	1.9490	0	34.5850	0	27.654	0	1959.716	0	50.8	4	15.3	4	-1E+10	1	-1E+10	1	-1E+10	1	-1E+10	1	-1E+10	1	-1E+10	1
4902549	58	C	03/18/2022	09:58	-131.735	47.549	0	1995.20	0	1.9470	0	34.5850	0	27.654	0	1969.147	0	51.0	4	15.3	4	-1E+10	1	-1E+10	1	-1E+10	1	-1E+10	1	-1E+10	1	-1E+10	1
4902549	58	C	03/18/2022	09:58	-131.735	47.549	0	2005.20	0	1.9410	0	34.5860	0	27.655	0	1978.970	0	51.2	4	15.4	4	-1E+10	1	-1E+10	1	-1E+10	1	-1E+10	1	-1E+10	1	-1E+10	1
4902549	58	C	03/18/2022	09:58	-131.735	47.549	0	2015.90	0	1.9290	0	34.5860	0	27.656	0	1989.480	0	51.6	4	15.5	4	-1E+10	1	-1E+10	1	-1E+10	1	-1E+10	1	-1E+10	1	-1E+10	1
4902549	58	C	03/18/2022	09:58	-131.735	47.549	0	2021.20	0	1.9270	0	34.5870	0	27.657	0	1994.686	0	51.6	4	15.5	4	-1E+10	1	-1E+10	1	-1E+10	1	-1E+10	1	-1E+10	1	-1E+10	1
4902549	58	C	03/18/2022	09:58	-131.735	47.549	0																										
4902549	59	C	03/28/2022	14:56	-131.662	47.541	0	0.30	0	8.2670	0	32.2730	0	25.094	0	0.297	0	281.3	4	96.7	4	-1E+10	1	-1E+10	1	-1E+10	1	-1E+10	1	-1E+10	1	-1E+10	1
4902549	59	C	03/28/2022	14:56	-131.662	47.541	0	0.50	0	8.2670	0	32.2730	0	25.094	0	0.496	0	-1e10	1	-1e10	1	-1E+10	1	-1E+10	1	-1E+10	1	-1E+10	1	-1E+10	1	-1E+10	1
4902549	59	C	03/28/2022	14:56	-131.662	47.541	0	0.90	0	8.2670	0	32.2730	0	25.094	0	0.892	0	281.3	4	96.7	4	-1E+10	1	-1E+10	1	-1E+10	1	-1E+10	1	-1E+10	1	-1E+10	1
4902549	59	C	03/28/2022	14:56	-131.662	47.541	0	1.20	0	8.2667	0	32.2735	0	25.095	0	1.190	0	-1e10	1	-1e10	1	-1E+10	1	-1E+10	1	-1E+10	1	-1E+10	1	-1E+10	1	-1E+10	1
4902549	59	C	03/28/2022	14:56	-131.662	47.541	0	1.40	0	8.2665	0	32.2739	0	25.095	0	1.388	0	-1e10	1	-1e10	1	-1E+10	1	-1E+10	1	-1E+10	1	-1E+10	1	-1E+10	1	-1E+10	1
4902549	59	C	03/28/2022	14:56	-131.662	47.541	0	1.80	0	8.2662	0	32.2746	0	25.096	0	1.785	0	281.3	4	96.7	4	-1E+10	1	-1E+10	1	-1E+10	1	-1E+10	1	-1E+10	1	-1E+10	1
4902549	59	C	03/28/2022	14:56	-131.662	47.541	0	2.00	0	8.2660	0	32.2750	0	25.096	0	1.983	0	-1e10	1	-1e10	1	-1E+10	1	-1E+10	1	-1E+10	1	-1E+10	1	-1E+10	1	-1E+10	1
4902549	59	C	03/28/2022	14:56	-131.662	47.541	0	2.20	0	8.2664	0	32.2748	0	25.096	0	2.182	0	281.2	4	96.7	4	-1E+10	1	-1E+10	1	-1E+10	1	-1E+10	1	-1E+10	1	-1E+10	1
4902549	59	C	03/28/2022	14:56	-131.662	47.541	0	3.00	0	8.2680	0	32.2740	0	25.095	0	2.975	0	281.2	4	96.7	4	-1E+10	1	-1E+10	1	-1E+10	1	-1E+10	1	-1E+10	1	-1E+10	1
4902549	59	C	03/28/2022	14:56	-131.662	47.541	0	4.20	0	8.2690	0	32.2740	0	25.095	0	4.165	0	281.1	4	96.6	4	-1E+10	1	-1E+10	1	-1E+10	1	-1E+10	1	-1E+10	1	-1E+10	1
4902549	59	C	03/28/2022	14:56	-131.662	47.541	0	5.00	0	8.2690	0	32.2740	0	25.095	0	4.958	0	281.2	4	96.7	4	-1E+10	1	-1E+10	1	-1E+10	1	-1E+10	1	-1E+10	1	-1E+10	1
4902549	59	C	03/28/2022	14:56	-131.662	47.541	0	6.20	0	8.2700	0	32.2740	0	25.095	0	6.148	0	281.2	4	96.7	4	-1E+10	1	-1E+10	1	-1E+10	1	-1E+10	1	-1E+10	1	-1E+10	1
4902549	59	C	03/28/2022	14:56	-131.662	47.541	0	7.00	0	8.2700	0	32.2740	0	25.095	0	6.941	0	281.1	4	96.6	4	-1E+10	1	-1E+10	1	-1E+10	1	-1E+10	1	-1E+10	1	-1E+10	1
4902549	59	C	03/28/2022	14:56	-131.662	47.541	0	8.30	0	8.2710	0	32.2740	0	25.095	0	8.231	0	281.1	4	96.6	4	-1E+10	1	-1E+10	1	-1E+10	1	-1E+10	1	-1E+10	1	-1E+10	1
4902549	59	C	03/28/2022	14:56	-131.662	47.541	0	9.10	0	8.2700	0	32.2740	0	25.095	0	9.024	0	280.9	4	96.6	4	-1E+10	1	-1E+10	1	-1E+10	1	-1E+10	1	-1E+10	1	-1E+10	1
4902549	59	C	03/28/2022	14:56	-131.662	47.541	0	9.80	0	8.2700	0	32.2740	0	25.095	0	9.718	0	281.0	4	96.6	4	-1E+10	1	-1E+10	1	-1E+10	1	-1E+10	1	-1E+10	1	-1E+10	1
4902549	59	C	03/28/2022	14:56	-131.662	47.541	0	11.10	0	8.2700	0	32.2740	0	25.095	0	11.007	0	281.0	4	96.6	4	-1E+10	1	-1E+10	1	-1E+10	1	-1E+10	1	-1E+10	1	-1E+10	1
4902549	59	C	03/28/2022	14:56	-131.662	47.541	0	12.00	0	8.2700	0	32.2740	0	25.095	0	11.899	0	281.0	4	96.6	4	-1E+10	1	-1E+10	1	-1E+10	1	-1E+10	1	-1E+10	1	-1E+10	1
4902549	59	C	03/28/2022	14:56	-131.662	47.541	0	12.90	0	8.2710	0	32.2740	0	25.095	0	12.792	0	280.9	4	96.6	4	-1E+10	1	-1E+10	1	-1E+10	1	-1E+10	1	-1E+10	1	-1E+10	1
4902549	59	C	03/28/2022	14:56	-131.662	47.541	0	13.90	0	8.2700	0	32.2740	0	25.095	0	13.783	0	281.0	4	96.6	4	-1E+10	1	-1E+10	1	-1E+10	1	-1E+10	1	-1E+10	1	-1E+10	1
4902549	59	C	03/28/2022	14:56	-131.662	47.541	0	14.90	0	8.2700	0	32.2740	0	25.095	0	14.775	0	280.9	4	96.6	4	-1E+10	1	-1E+10	1	-1E+10	1	-1E+10	1	-1E+10	1	-1E+10	1
4902549	59	C	03/28/2022	14:56	-131.662	47.541	0	16.00	0	8.2700	0	32.2740	0	25.095	0	15.866	0	280.8	4	96.5	4	-1E+10	1	-1E+10	1	-1E+10	1	-1E+10	1	-1E+10	1	-1E+10	1
4902549	59	C	03/28/2022	14:56	-131.662	47.541	0	16.90	0	8.2690	0	32.2740	0	25.095	0	16.758	0	280.9	4	96.5	4	-1E+10	1	-1E+10	1	-1E+10	1	-1E+10	1	-1E+10	1	-1E+10	1
4902549	59	C	03/28/2022	14:56	-131.662	47.541	0	17.70	0	8.2700	0	32.2740	0	25.095	0	17.551	0	280.8	4	96.5	4	-1E+10	1	-1E+10	1	-1E+10	1	-1E+10	1	-1E+10	1	-1E+10	1
4902549	59	C	03/28/2022	14:56	-131.662	47.541	0	18.80	0	8.2690	0	32.2740	0	25.095	0	18.642	0	280.8	4	96.5	4	-1E+10	1	-1E+10	1	-1E+10	1	-1E+10	1	-1E+10	1	-1E+10	1
4902549	59	C	03/28/2022	14:56	-131.662	47.541	0	20.00	0	8.2700	0	32.2740	0	25.095	0	19.832	0	280.9	4	96.6	4	-1E+10	1	-1E+10	1	-1E+10	1	-1E+10	1	-1E+10	1	-1E+10	1
4902549	59	C	03/28/2022	14:56	-131.662	47.541	0	20.90	0	8.2710	0	32.2740	0	25.095	0	20.724	0	280.7	4	96.5	4	-1E+10	1	-1E+10	1	-1E+10	1	-1E+10	1	-1E+10	1	-1E+10	1
4902549	59	C	03/28/2022	14:56	-131.662	47.541	0	21.80	0	8.2700	0	32.2740	0	25.095	0	21.617	0	280.9	4	96.5	4	-1E+10	1	-1E+10	1	-1E+10	1	-1E+10	1	-1E+10	1	-1E+10	1
4902549	59	C	03/28/2022	14:56	-131.662	47.541	0	23.00	0	8.2700	0	32.2740	0	25.095	0	22.807	0	280.8	4	96.5	4	-1E+10	1	-1E+10	1	-1E+10	1	-1E+10	1	-1E+10	1	-1E+10	1
4902549	59	C	03/28/2022	14:56	-131.662	47.541	0	23.90	0	8.2710	0	32.2740	0	25.095	0	23.699	0	280.8	4	96.5	4	-1E+10	1	-1E+10	1	-1E+10	1	-1E+10	1	-1E+10	1	-1E+10	1
4902549	59	C	03/28/2022	14:56	-131.662	47.541	0	24.70	0	8.2700	0	32.2740	0	25.095	0	24.492	0	280.8	4	96.5	4	-1E+10	1	-1E+10	1	-1E+10	1	-1E+10	1	-1E+10	1	-1E+10	1
4902549	59	C	03/28/2022	14:56	-131.662	47.541	0	25.80	0	8.2700	0	32.2740	0	25.095	0	25.583	0	280.8	4	96.5	4	-1E+10	1	-1E+10	1	-1E+10	1	-1E+10	1	-1E+10	1	-1E+10	1
4902549	59	C	03/28/2022	14:56	-131.662	47.541	0	26.90	0	8.2700	0	32.2740	0	25.095	0	26.674	0	280.8	4	96.5	4	-1E+10	1	-1E+10	1	-1E+10	1	-1E+10	1	-1E+10	1	-1E+10	1
4902549	59	C	03/28/2022	14:56	-131.662	47.541	0	28.10	0	8.2710	0	32.2740	0	25.095	0	27.863	0	280.7	4	96.5	4	-1E+10	1	-1E+10	1	-1E+10	1	-1E+10	1	-1E+10	1	-1E+10	1
4902549	59	C	03/28/2022	14:56	-131.662	47.541	0	29.10	0	8.2700	0	32.2740	0	25.095	0	28.855	0	280.7	4	96.5	4	-1E+10	1	-1E+10	1	-1E+10	1	-1E+10	1	-1E+10	1	-1E+10	1
4902549	59	C	03/28/2022	14:56	-131.662	47.541	0	29.80	0	8.2700	0	32.2740	0	25.095	0	29.549	0	280.7	4	96.5	4	-1E+10	1	-1E+10	1	-1E+10	1	-1E+10	1	-1E+10	1	-1E+10	1
4902549	59	C	03/28/2022	14:56	-131.662	47.541	0	30.80	0	8.2700	0	32.2740	0	25.095	0	30.541	0	280.7	4	96.5	4	-1E+10	1	-1E+10	1	-1E+10	1	-1E+10	1	-1E+10	1	-1E+10	1
4902549	59	C	03/28/2022	14:56	-131.662	47.541	0	31.80	0	8.2700	0	32.2740	0	25.095	0	31.532	0	280.7	4	96.5	4	-1E+10	1	-1E+10	1	-1E+10	1	-1E+10	1	-1E+10	1	-1E+10	1
4902549	59	C	03/28/2022	14:56	-131.662	47.541	0	32.80	0	8.2700	0	32.2740	0	25.095	0	32.524	0	280.6	4	96.5	4	-1E+10	1	-1E+10	1	-1E+10	1	-1E+10	1	-1E+10	1	-1E+10	1
4902549	59	C	03/28/2022	14:56	-131.662	47.541	0	33.80	0	8.2710	0	32.2740	0	25.095	0	33.515	0	280.6	4	96.5	4	-1E+10	1	-1E+10	1	-1E+10	1	-1E+10	1	-1E+10	1	-1E+10	1
4902549	59	C	03/28/2022	14:56	-131.662	47.541	0	34.90	0	8.2710	0	32.2740	0	25.095	0	34.606	0	280.6	4	96.5	4	-1E+10	1	-1E+10	1	-1E+10	1	-1E+10	1	-1E+10	1	-1E+10	1
4902549	59	C	03/28/2022	14:56	-131.662	47.541	0	36.10	0	8.2710	0	32.2740	0	25.095	0	35.795	0	280.5	4	96.4	4	-1E+10	1	-1E+10	1	-1E+10	1	-1E+10	1	-1E+10	1	-1E+10	1
4902549	59	C	03/28/2022	14:56	-131.662	47.541	0	37.20	0	8.2700	0	32.2740	0	25.095	0	36.886	0	280.5	4	96.4	4	-1E+10	1	-1E+10	1	-1E+10	1	-1E+10	1	-1E+10	1	-1E+10	1
4902549	59	C	03/28/2022	14:56	-131.662	47.541	0	38.10	0	8.2720	0	32.2740	0	25.095	0	37.778	0	280.5	4	96.4	4	-1E+10	1	-1E+10	1	-1E+10	1	-1E+10	1	-1E+10	1	-1E+10	1
4902549	59	C	03/28/2022	14:56	-131.662	47.541	0	38.90	0	8.2700	0	32.2740	0	25.095	0	38.572	0	280.4	4	96.4	4	-1E+10	1	-1E+10	1	-1E+10	1	-1E+10	1	-1E+10	1	-1E+10	1
4902549	59	C	03/28/2022	14:56	-131.662	47.541	0	40.00	0	8.2700	0	32.2740	0	25.095	0	39.662	0	280.4	4	96.4	4	-1E+10	1	-1E+10	1	-1E+10	1	-1E+10	1	-1E+10	1	-1E+10	1
4902549	59	C	03/28/2022	14:56	-131.662	47.541	0	41.20	0	8.2710	0	32.2740	0	25.095	0	40.852	0	280.3	4	96.4	4	-1E+10	1	-1E+10	1	-1E+10	1	-1E+10	1	-1E+10	1	-1E+10	1
4902549	59	C	03/28/2022	14:56	-131.662	47.541	0	41.90	0	8.2710	0	32.2740	0	25.095	0	41.546	0	280.2	4	96.3	4	-1E+10	1	-1E+10	1	-1E+10	1	-1E+10	1	-1E+10	1	-1E+10	1
4902549	59	C	03/28/2022	14:56	-131.662	47.541	0	42.90	0	8.2710	0	32.2740	0	25.095	0	42.537	0	280.2	4	96.3	4	-1E+10	1	-1E+10	1	-1E+10	1	-1E+10	1	-1E+10	1	-1E+10	1
4902549	59	C	03/28/2022	14:56	-131.662	47.541	0	43.90	0	8.2700	0	32.2740	0	25.095	0	43.529	0	280.0	4	96.3	4	-1E+10	1	-1E+10	1	-1E+10	1	-1E+10	1	-1E+10	1	-1E+10	1
4902549	59	C	03/28/2022	14:56	-131.662	47.541	0	44.90	0	8.2680	0	32.2740	0	25.096	0	44.520	0	280.0	4	96.3	4	-1E+10	1	-1E+10	1	-1E+10	1	-1E+10	1	-1E+10	1	-1E+10	1
4902549	59	C	03/28/2022	14:56	-131.662	47.541	0	45.90	0	8.2680	0	32.2750	0	25.096	0	45.512	0	280.0	4	96.3	4	-1E+10	1	-1E+10	1	-1E+10	1	-1E+10	1	-1E+10	1	-1E+10	1
4902549	59	C	03/28/2022	14:56	-131.662	47.541	0	46.90	0	8.2670	0	32.2750	0	25.096	0	46.503	0	279.9	4	96.2	4	-1E+10	1	-1E+10	1	-1E+10	1	-1E+10	1	-1E+10	1	-1E+10	1
4902549	59	C	03/28/2022	14:56	-131.662	47.541	0	47.80	0	8.2690	0	32.2740	0	25.095	0	47.395	0	279.8	4	96.2	4	-1E+10	1	-1E+10	1	-1E+10	1	-1E+10	1	-1E+10	1	-1E+10	1
4902549	59	C	03/28/2022	14:56	-131.662	47.541	0	48.80	0	8.2690	0	32.2750	0	25.096	0	48.387	0	279.6	4	96.1	4	-1E+10	1	-1E+10	1	-1E+10	1	-1E+10	1	-1E+10	1	-1E+10	1
4902549	59	C	03/28/2022	14:56	-131.662	47.541	0	49.70	0	8.2670	0	32.2750	0	25.097	0	49.279	0	279.5	4	96.1	4	-1E+10	1	-1E+10	1	-1E+10	1	-1E+10	1	-1E+10	1	-1E+10	1
4902549	59	C	03/28/2022	14:56	-131.662	47.541	0	50.90	0	8.2620	0	32.2750	0	25.097	0	50.469	0	279.3	4	96.0	4	-1E+10	1	-1E+10	1	-1E+10	1	-1E+10	1	-1E+10	1	-1E+10	1
4902549	59	C	03/28/2022	14:56	-131.662	47.541	0	52.00	0	8.2560	0	32.2750	0	25.098	0	51.559	0	279.0	4	95.9	4	-1E+10	1	-1E+10	1	-1E+10	1	-1E+10	1	-1E+10	1	-1E+10	1
4902549	59	C	03/28/2022	14:56	-131.662	47.541	0	52.70	0	8.2550	0	32.2750	0	25.098	0	52.253	0	279.0	4	95.9	4	-1E+10	1	-1E+10	1	-1E+10	1	-1E+10	1	-1E+10	1	-1E+10	1
4902549	59	C	03/28/2022	14:56	-131.662	47.541	0	53.70	0	8.2380	0	32.2770	0	25.102	0	53.245	0	278.7	4	95.7	4	-1E+10	1	-1E+10	1	-1E+10	1	-1E+10	1	-1E+10	1	-1E+10	1
4902549	59	C	03/28/2022	14:56	-131.662	47.541	0	54.80	0	8.2260	0	32.2780	0	25.105	0	54.335	0	278.5	4	95.7	4	-1E+10	1	-1E+10	1	-1E+10	1	-1E+10	1	-1E+10	1	-1E+10	1
4902549	59	C	03/28/2022	14:56	-131.662	47.541	0	56.00	0	8.2210	0	32.2790	0	25.106	0	55.525	0	278.1	4	95.5	4	-1E+10	1	-1E+10	1	-1E+10	1	-1E+10	1	-1E+10	1	-1E+10	1
4902549	59	C	03/28/2022	14:56	-131.662	47.541	0	56.90	0	8.2160	0	32.2790	0	25.107	0	56.417	0	277.8	4	95.4	4	-1E+10	1	-1E+10	1	-1E+10	1	-1E+10	1	-1E+10	1	-1E+10	1
4902549	59	C	03/28/2022	14:56	-131.662	47.541	0	58.30	0	8.2020	0	32.2800	0	25.110	0	57.805	0	277.3	4	95.2	4	-1E+10	1	-1E+10	1	-1E+10	1	-1E+10	1	-1E+10	1	-1E+10	1
4902549	59	C	03/28/2022	14:56	-131.662	47.541	0	58.90	0	8.1870	0	32.2800	0	25.112	0	58.400	0	277.1	4	95.1	4	-1E+10	1	-1E+10	1	-1E+10	1	-1E+10	1	-1E+10	1	-1E+10	1
4902549	59	C	03/28/2022	14:56	-131.662	47.541	0	59.80	0	8.1250	0	32.2850	0	25.125	0	59.292	0	277.0	4	94.9	4	-1E+10	1	-1E+10	1	-1E+10	1	-1E+10	1	-1E+10	1	-1E+10	1
4902549	59	C	03/28/2022	14:56	-131.662	47.541	0	61.00	0	7.9600	0	32.3010	0	25.162	0	60.482	0	277.7	4	94.8	4	-1E+10	1	-1E+10	1	-1E+10	1	-1E+10	1	-1E+10	1	-1E+10	1
4902549	59	C	03/28/2022	14:56	-131.662	47.541	0	61.70	0	7.9210	0	32.3090	0	25.173	0	61.176	0	277.7	4	94.7	4	-1E+10	1	-1E+10	1	-1E+10	1	-1E+10	1	-1E+10	1	-1E+10	1
4902549	59	C	03/28/2022	14:56	-131.662	47.541	0	63.10	0	7.8780	0	32.3120	0	25.182	0	62.564	0	277.7	4	94.7	4	-1E+10	1	-1E+10	1	-1E+10	1	-1E+10	1	-1E+10	1	-1E+10	1
4902549	59	C	03/28/2022	14:56	-131.662	47.541	0	64.00	0	7.8590	0	32.3130	0	25.185	0	63.456	0	277.7	4	94.6	4	-1E+10	1	-1E+10	1	-1E+10	1	-1E+10	1	-1E+10	1	-1E+10	1
4902549	59	C	03/28/2022	14:56	-131.662	47.541	0	65.00	0	7.8320	0	32.3160	0	25.192	0	64.447	0	277.6	4	94.5	4	-1E+10	1	-1E+10	1	-1E+10	1	-1E+10	1	-1E+10	1	-1E+10	1
4902549	59	C	03/28/2022	14:56	-131.662	47.541	0	66.00	0	7.8110	0	32.3180	0	25.196	0	65.438	0	277.6	4	94.5	4	-1E+10	1	-1E+10	1	-1E+10	1	-1E+10	1	-1E+10	1	-1E+10	1
4902549	59	C	03/28/2022	14:56	-131.662	47.541	0	67.00	0	7.7930	0	32.3210	0	25.201	0	66.430	0	277.5	4	94.4	4	-1E+10	1	-1E+10	1	-1E+10	1	-1E+10	1	-1E+10	1	-1E+10	1
4902549	59	C	03/28/2022	14:56	-131.662	47.541	0	68.10	0	7.7820	0	32.3220	0	25.204	0	67.520	0	277.3	4	94.3	4	-1E+10	1	-1E+10	1	-1E+10	1	-1E+10	1	-1E+10	1	-1E+10	1
4902549	59	C	03/28/2022	14:56	-131.662	47.541	0	68.90	0	7.7720	0	32.3250	0	25.207	0	68.313	0	277.2	4	94.3	4	-1E+10	1	-1E+10	1	-1E+10	1	-1E+10	1	-1E+10	1	-1E+10	1
4902549	59	C	03/28/2022	14:56	-131.662	47.541	0	69.70	0	7.7700	0	32.3250	0	25.208	0	69.106	0	277.1	4	94.2	4	-1E+10	1	-1E+10	1	-1E+10	1	-1E+10	1	-1E+10	1	-1E+10	1
4902549	59	C	03/28/2022	14:56	-131.662	47.541	0	70.70	0	7.7590	0	32.3260	0	25.210	0	70.098	0	276.8	4	94.1	4	-1E+10	1	-1E+10	1	-1E+10	1	-1E+10	1	-1E+10	1	-1E+10	1
4902549	59	C	03/28/2022	14:56	-131.662	47.541	0	71.90	0	7.7280	0	32.3310	0	25.218	0	71.287	0	276.6	4	94.0	4	-1E+10	1	-1E+10	1	-1E+10	1	-1E+10	1	-1E+10	1	-1E+10	1
4902549	59	C	03/28/2022	14:56	-131.662	47.541	0	73.10	0	7.6740	0	32.3350	0	25.229	0	72.477	0	276.9	4	93.9	4	-1E+10	1	-1E+10	1	-1E+10	1	-1E+10	1	-1E+10	1	-1E+10	1
4902549	59	C	03/28/2022	14:56	-131.662	47.541	0	73.90	0	7.6560	0	32.3350	0	25.232	0	73.270	0	276.9	4	93.9	4	-1E+10	1	-1E+10	1	-1E+10	1	-1E+10	1	-1E+10	1	-1E+10	1
4902549	59	C	03/28/2022	14:56	-131.662	47.541	0	74.80	0	7.6490	0	32.3350	0	25.233	0	74.162	0	276.9	4	93.9	4	-1E+10	1	-1E+10	1	-1E+10	1	-1E+10	1	-1E+10	1	-1E+10	1
4902549	59	C	03/28/2022	14:56	-131.662	47.541	0	76.00	0	7.6430	0	32.3350	0	25.233	0	75.352	0	276.9	4	93.9	4	-1E+10	1	-1E+10	1	-1E+10	1	-1E+10	1	-1E+10	1	-1E+10	1
4902549	59	C	03/28/2022	14:56	-131.662	47.541	0	76.90	0	7.6380	0	32.3350	0	25.234	0	76.244	0	276.8	4	93.9	4	-1E+10	1	-1E+10	1	-1E+10	1	-1E+10	1	-1E+10	1	-1E+10	1
4902549	59	C	03/28/2022	14:56	-131.662	47.541	0	77.80	0	7.6310	0	32.3350	0	25.235	0	77.136	0	276.8	4	93.9	4	-1E+10	1	-1E+10	1	-1E+10	1	-1E+10	1	-1E+10	1	-1E+10	1
4902549	59	C	03/28/2022	14:56	-131.662	47.541	0	79.00	0	7.6210	0	32.3350	0	25.237	0	78.325	0	276.8	4	93.8	4	-1E+10	1	-1E+10	1	-1E+10	1	-1E+10	1	-1E+10	1	-1E+10	1
4902549	59	C	03/28/2022	14:56	-131.662	47.541	0	80.00	0	7.6150	0	32.3350	0	25.237	0	79.317	0	276.7	4	93.8	4	-1E+10	1	-1E+10	1	-1E+10	1	-1E+10	1	-1E+10	1	-1E+10	1
4902549	59	C	03/28/2022	14:56	-131.662	47.541	0	80.90	0	7.5980	0	32.3340	0	25.239	0	80.209	0	276.6	4	93.7	4	-1E+10	1	-1E+10	1	-1E+10	1	-1E+10	1	-1E+10	1	-1E+10	1
4902549	59	C	03/28/2022	14:56	-131.662	47.541	0	82.10	0	7.5900	0	32.3340	0	25.240	0	81.398	0	276.4	4	93.6	4	-1E+10	1	-1E+10	1	-1E+10	1	-1E+10	1	-1E+10	1	-1E+10	1
4902549	59	C	03/28/2022	14:56	-131.662	47.541	0	83.00	0	7.5880	0	32.3330	0	25.240	0	82.290	0	283.1	4	95.9	4	-1E+10	1	-1E+10	1	-1E+10	1	-1E+10	1	-1E+10	1	-1E+10	1
4902549	59	C	03/28/2022	14:56	-131.662	47.541	0	83.90	0	7.5840	0	32.3330	0	25.240	0	83.183	0	283.0	4	95.9	4	-1E+10	1	-1E+10	1	-1E+10	1	-1E+10	1	-1E+10	1	-1E+10	1
4902549	59	C	03/28/2022	14:56	-131.662	47.541	0	85.10	0	7.5830	0	32.3330	0	25.240	0	84.372	0	282.8	4	95.8	4	-1E+10	1	-1E+10	1	-1E+10	1	-1E+10	1	-1E+10	1	-1E+10	1
4902549	59	C	03/28/2022	14:56	-131.662	47.541	0	86.00	0	7.5770	0	32.3330	0	25.241	0	85.264	0	282.5	4	95.6	4	-1E+10	1	-1E+10	1	-1E+10	1	-1E+10	1	-1E+10	1	-1E+10	1
4902549	59	C	03/28/2022	14:56	-131.662	47.541	0	86.90	0	7.5680	0	32.3330	0	25.242	0	86.156	0	282.1	4	95.5	4	-1E+10	1	-1E+10	1	-1E+10	1	-1E+10	1	-1E+10	1	-1E+10	1
4902549	59	C	03/28/2022	14:56	-131.662	47.541	0	87.90	0	7.5630	0	32.3330	0	25.243	0	87.148	0	281.8	4	95.4	4	-1E+10	1	-1E+10	1	-1E+10	1	-1E+10	1	-1E+10	1	-1E+10	1
4902549	59	C	03/28/2022	14:56	-131.662	47.541	0	88.80	0	7.5490	0	32.3330	0	25.245	0	88.040	0	281.5	4	95.3	4	-1E+10	1	-1E+10	1	-1E+10	1	-1E+10	1	-1E+10	1	-1E+10	1
4902549	59	C	03/28/2022	14:56	-131.662	47.541	0	90.00	0	7.5400	0	32.3310	0	25.245	0	89.229	0	280.8	4	95.0	4	-1E+10	1	-1E+10	1	-1E+10	1	-1E+10	1	-1E+10	1	-1E+10	1
4902549	59	C	03/28/2022	14:56	-131.662	47.541	0	90.90	0	7.5230	0	32.3300	0	25.246	0	90.121	0	280.3	4	94.8	4	-1E+10	1	-1E+10	1	-1E+10	1	-1E+10	1	-1E+10	1	-1E+10	1
4902549	59	C	03/28/2022	14:56	-131.662	47.541	0	91.80	0	7.5170	0	32.3300	0	25.247	0	91.013	0	279.7	4	94.6	4	-1E+10	1	-1E+10	1	-1E+10	1	-1E+10	1	-1E+10	1	-1E+10	1
4902549	59	C	03/28/2022	14:56	-131.662	47.541	0	93.00	0	7.5100	0	32.3320	0	25.250	0	92.203	0	278.7	4	94.2	4	-1E+10	1	-1E+10	1	-1E+10	1	-1E+10	1	-1E+10	1	-1E+10	1
4902549	59	C	03/28/2022	14:56	-131.662	47.541	0	93.90	0	7.4980	0	32.3350	0	25.254	0	93.095	0	278.0	4	93.9	4	-1E+10	1	-1E+10	1	-1E+10	1	-1E+10	1	-1E+10	1	-1E+10	1
4902549	59	C	03/28/2022	14:56	-131.662	47.541	0	94.90	0	7.4890	0	32.3360	0	25.256	0	94.086	0	277.2	4	93.7	4	-1E+10	1	-1E+10	1	-1E+10	1	-1E+10	1	-1E+10	1	-1E+10	1
4902549	59	C	03/28/2022	14:56	-131.662	47.541	0	96.10	0	7.4810	0	32.3410	0	25.261	0	95.275	0	276.0	4	93.2	4	-1E+10	1	-1E+10	1	-1E+10	1	-1E+10	1	-1E+10	1	-1E+10	1
4902549	59	C	03/28/2022	14:56	-131.662	47.541	0	97.00	0	7.4830	0	32.3450	0	25.264	0	96.167	0	275.0	4	92.9	4	-1E+10	1	-1E+10	1	-1E+10	1	-1E+10	1	-1E+10	1	-1E+10	1
4902549	59	C	03/28/2022	14:56	-131.662	47.541	0	97.90	0	7.4820	0	32.3460	0	25.265	0	97.060	0	274.0	4	92.6	4	-1E+10	1	-1E+10	1	-1E+10	1	-1E+10	1	-1E+10	1	-1E+10	1
4902549	59	C	03/28/2022	14:56	-131.662	47.541	0	99.00	0	7.4800	0	32.3490	0	25.267	0	98.150	0	272.4	4	92.1	4	-1E+10	1	-1E+10	1	-1E+10	1	-1E+10	1	-1E+10	1	-1E+10	1
4902549	59	C	03/28/2022	14:56	-131.662	47.541	0	100.00	0	7.4800	0	32.3510	0	25.269	0	99.141	0	270.7	4	91.5	4	-1E+10	1	-1E+10	1	-1E+10	1	-1E+10	1	-1E+10	1	-1E+10	1
4902549	59	C	03/28/2022	14:56	-131.662	47.541	0	101.00	0	7.4820	0	32.3570	0	25.273	0	100.132	0	268.2	4	90.6	4	-1E+10	1	-1E+10	1	-1E+10	1	-1E+10	1	-1E+10	1	-1E+10	1
4902549	59	C	03/28/2022	14:56	-131.662	47.541	0	102.10	0	7.4830	0	32.3770	0	25.289	0	101.222	0	264.7	4	89.4	4	-1E+10	1	-1E+10	1	-1E+10	1	-1E+10	1	-1E+10	1	-1E+10	1
4902549	59	C	03/28/2022	14:56	-131.662	47.541	0	102.90	0	7.4900	0	32.3930	0	25.301	0	102.015	0	261.5	4	88.4	4	-1E+10	1	-1E+10	1	-1E+10	1	-1E+10	1	-1E+10	1	-1E+10	1
4902549	59	C	03/28/2022	14:56	-131.662	47.541	0	104.10	0	7.5140	0	32.4240	0	25.322	0	103.205	0	256.4	4	86.8	4	-1E+10	1	-1E+10	1	-1E+10	1	-1E+10	1	-1E+10	1	-1E+10	1
4902549	59	C	03/28/2022	14:56	-131.662	47.541	0	105.00	0	7.5510	0	32.4610	0	25.346	0	104.097	0	253.4	4	85.8	4	-1E+10	1	-1E+10	1	-1E+10	1	-1E+10	1	-1E+10	1	-1E+10	1
4902549	59	C	03/28/2022	14:56	-131.662	47.541	0	106.00	0	7.5460	0	32.4890	0	25.368	0	105.088	0	250.6	4	84.9	4	-1E+10	1	-1E+10	1	-1E+10	1	-1E+10	1	-1E+10	1	-1E+10	1
4902549	59	C	03/28/2022	14:56	-131.662	47.541	0	107.10	0	7.5220	0	32.5170	0	25.394	0	106.178	0	247.8	4	83.9	4	-1E+10	1	-1E+10	1	-1E+10	1	-1E+10	1	-1E+10	1	-1E+10	1
4902549	59	C	03/28/2022	14:56	-131.662	47.541	0	107.80	0	7.5220	0	32.5180	0	25.395	0	106.872	0	245.5	4	83.1	4	-1E+10	1	-1E+10	1	-1E+10	1	-1E+10	1	-1E+10	1	-1E+10	1
4902549	59	C	03/28/2022	14:56	-131.662	47.541	0	108.80	0	7.5260	0	32.5220	0	25.397	0	107.863	0	241.2	4	81.7	4	-1E+10	1	-1E+10	1	-1E+10	1	-1E+10	1	-1E+10	1	-1E+10	1
4902549	59	C	03/28/2022	14:56	-131.662	47.541	0	109.90	0	7.5320	0	32.5350	0	25.407	0	108.953	0	235.9	4	79.9	4	-1E+10	1	-1E+10	1	-1E+10	1	-1E+10	1	-1E+10	1	-1E+10	1
4902549	59	C	03/28/2022	14:56	-131.662	47.541	0	111.00	0	7.5410	0	32.5930	0	25.451	0	110.044	0	232.0	4	78.6	4	-1E+10	1	-1E+10	1	-1E+10	1	-1E+10	1	-1E+10	1	-1E+10	1
4902549	59	C	03/28/2022	14:56	-131.662	47.541	0	111.90	0	7.5320	0	32.6640	0	25.508	0	110.936	0	229.6	4	77.9	4	-1E+10	1	-1E+10	1	-1E+10	1	-1E+10	1	-1E+10	1	-1E+10	1
4902549	59	C	03/28/2022	14:56	-131.662	47.541	0	112.90	0	7.5590	0	32.6790	0	25.516	0	111.927	0	227.1	4	77.1	4	-1E+10	1	-1E+10	1	-1E+10	1	-1E+10	1	-1E+10	1	-1E+10	1
4902549	59	C	03/28/2022	14:56	-131.662	47.541	0	114.10	0	7.6030	0	32.7170	0	25.540	0	113.116	0	224.7	4	76.4	4	-1E+10	1	-1E+10	1	-1E+10	1	-1E+10	1	-1E+10	1	-1E+10	1
4902549	59	C	03/28/2022	14:56	-131.662	47.541	0	114.90	0	7.6100	0	32.7660	0	25.577	0	113.909	0	223.6	4	76.0	4	-1E+10	1	-1E+10	1	-1E+10	1	-1E+10	1	-1E+10	1	-1E+10	1
4902549	59	C	03/28/2022	14:56	-131.662	47.541	0	115.80	0	7.5970	0	32.7710	0	25.583	0	114.801	0	222.8	4	75.7	4	-1E+10	1	-1E+10	1	-1E+10	1	-1E+10	1	-1E+10	1	-1E+10	1
4902549	59	C	03/28/2022	14:56	-131.662	47.541	0	117.00	0	7.5880	0	32.7780	0	25.590	0	115.990	0	221.5	4	75.3	4	-1E+10	1	-1E+10	1	-1E+10	1	-1E+10	1	-1E+10	1	-1E+10	1
4902549	59	C	03/28/2022	14:56	-131.662	47.541	0	118.10	0	7.5780	0	32.7820	0	25.594	0	117.080	0	220.0	4	74.7	4	-1E+10	1	-1E+10	1	-1E+10	1	-1E+10	1	-1E+10	1	-1E+10	1
4902549	59	C	03/28/2022	14:56	-131.662	47.541	0	119.30	0	7.5730	0	32.7810	0	25.594	0	118.270	0	218.0	4	74.0	4	-1E+10	1	-1E+10	1	-1E+10	1	-1E+10	1	-1E+10	1	-1E+10	1
4902549	59	C	03/28/2022	14:56	-131.662	47.541	0	120.10	0	7.5590	0	32.7830	0	25.598	0	119.063	0	216.1	4	73.4	4	-1E+10	1	-1E+10	1	-1E+10	1	-1E+10	1	-1E+10	1	-1E+10	1
4902549	59	C	03/28/2022	14:56	-131.662	47.541	0	120.90	0	7.5170	0	32.7930	0	25.612	0	119.855	0	213.8	4	72.5	4	-1E+10	1	-1E+10	1	-1E+10	1	-1E+10	1	-1E+10	1	-1E+10	1
4902549	59	C	03/28/2022	14:56	-131.662	47.541	0	121.80	0	7.4510	0	32.8150	0	25.638	0	120.747	0	210.0	4	71.2	4	-1E+10	1	-1E+10	1	-1E+10	1	-1E+10	1	-1E+10	1	-1E+10	1
4902549	59	C	03/28/2022	14:56	-131.662	47.541	0	122.90	0	7.4580	0	32.8920	0	25.698	0	121.838	0	205.5	4	69.7	4	-1E+10	1	-1E+10	1	-1E+10	1	-1E+10	1	-1E+10	1	-1E+10	1
4902549	59	C	03/28/2022	14:56	-131.662	47.541	0	124.20	0	7.4720	0	32.9810	0	25.766	0	123.126	0	202.4	4	68.7	4	-1E+10	1	-1E+10	1	-1E+10	1	-1E+10	1	-1E+10	1	-1E+10	1
4902549	59	C	03/28/2022	14:56	-131.662	47.541	0	125.10	0	7.4680	0	32.9810	0	25.766	0	124.018	0	200.6	4	68.1	4	-1E+10	1	-1E+10	1	-1E+10	1	-1E+10	1	-1E+10	1	-1E+10	1
4902549	59	C	03/28/2022	14:56	-131.662	47.541	0	126.00	0	7.4530	0	32.9940	0	25.779	0	124.910	0	198.2	4	67.3	4	-1E+10	1	-1E+10	1	-1E+10	1	-1E+10	1	-1E+10	1	-1E+10	1
4902549	59	C	03/28/2022	14:56	-131.662	47.541	0	126.90	0	7.4490	0	33.0190	0	25.799	0	125.802	0	195.8	4	66.4	4	-1E+10	1	-1E+10	1	-1E+10	1	-1E+10	1	-1E+10	1	-1E+10	1
4902549	59	C	03/28/2022	14:56	-131.662	47.541	0	128.10	0	7.4800	0	33.0650	0	25.831	0	126.991	0	193.0	4	65.5	4	-1E+10	1	-1E+10	1	-1E+10	1	-1E+10	1	-1E+10	1	-1E+10	1
4902549	59	C	03/28/2022	14:56	-131.662	47.541	0	129.10	0	7.4780	0	33.0910	0	25.851	0	127.982	0	190.9	4	64.9	4	-1E+10	1	-1E+10	1	-1E+10	1	-1E+10	1	-1E+10	1	-1E+10	1
4902549	59	C	03/28/2022	14:56	-131.662	47.541	0	129.90	0	7.4870	0	33.1570	0	25.902	0	128.775	0	189.9	4	64.5	4	-1E+10	1	-1E+10	1	-1E+10	1	-1E+10	1	-1E+10	1	-1E+10	1
4902549	59	C	03/28/2022	14:56	-131.662	47.541	0	130.70	0	7.5060	0	33.1950	0	25.929	0	129.568	0	189.4	4	64.4	4	-1E+10	1	-1E+10	1	-1E+10	1	-1E+10	1	-1E+10	1	-1E+10	1
4902549	59	C	03/28/2022	14:56	-131.662	47.541	0	131.90	0	7.5100	0	33.2750	0	25.992	0	130.757	0	189.7	4	64.6	4	-1E+10	1	-1E+10	1	-1E+10	1	-1E+10	1	-1E+10	1	-1E+10	1
4902549	59	C	03/28/2022	14:56	-131.662	47.541	0	133.10	0	7.5060	0	33.3130	0	26.022	0	131.946	0	191.0	4	65.0	4	-1E+10	1	-1E+10	1	-1E+10	1	-1E+10	1	-1E+10	1	-1E+10	1
4902549	59	C	03/28/2022	14:56	-131.662	47.541	0	134.00	0	7.5060	0	33.3170	0	26.025	0	132.838	0	192.3	4	65.5	4	-1E+10	1	-1E+10	1	-1E+10	1	-1E+10	1	-1E+10	1	-1E+10	1
4902549	59	C	03/28/2022	14:56	-131.662	47.541	0	134.90	0	7.4860	0	33.3400	0	26.046	0	133.730	0	193.6	4	65.9	4	-1E+10	1	-1E+10	1	-1E+10	1	-1E+10	1	-1E+10	1	-1E+10	1
4902549	59	C	03/28/2022	14:56	-131.662	47.541	0	135.90	0	7.4490	0	33.3710	0	26.076	0	134.721	0	194.5	4	66.2	4	-1E+10	1	-1E+10	1	-1E+10	1	-1E+10	1	-1E+10	1	-1E+10	1
4902549	59	C	03/28/2022	14:56	-131.662	47.541	0	137.00	0	7.4140	0	33.4200	0	26.119	0	135.811	0	195.0	4	66.3	4	-1E+10	1	-1E+10	1	-1E+10	1	-1E+10	1	-1E+10	1	-1E+10	1
4902549	59	C	03/28/2022	14:56	-131.662	47.541	0	138.10	0	7.3550	0	33.4700	0	26.167	0	136.901	0	194.7	4	66.1	4	-1E+10	1	-1E+10	1	-1E+10	1	-1E+10	1	-1E+10	1	-1E+10	1
4902549	59	C	03/28/2022	14:56	-131.662	47.541	0	138.90	0	7.3510	0	33.4760	0	26.172	0	137.694	0	194.1	4	65.9	4	-1E+10	1	-1E+10	1	-1E+10	1	-1E+10	1	-1E+10	1	-1E+10	1
4902549	59	C	03/28/2022	14:56	-131.662	47.541	0	140.00	0	7.3420	0	33.4990	0	26.191	0	138.784	0	193.1	4	65.6	4	-1E+10	1	-1E+10	1	-1E+10	1	-1E+10	1	-1E+10	1	-1E+10	1
4902549	59	C	03/28/2022	14:56	-131.662	47.541	0	141.20	0	7.3360	0	33.5080	0	26.199	0	139.973	0	192.1	4	65.2	4	-1E+10	1	-1E+10	1	-1E+10	1	-1E+10	1	-1E+10	1	-1E+10	1
4902549	59	C	03/28/2022	14:56	-131.662	47.541	0	142.00	0	7.3320	0	33.5160	0	26.206	0	140.766	0	191.4	4	65.0	4	-1E+10	1	-1E+10	1	-1E+10	1	-1E+10	1	-1E+10	1	-1E+10	1
4902549	59	C	03/28/2022	14:56	-131.662	47.541	0	142.80	0	7.3310	0	33.5460	0	26.230	0	141.559	0	190.9	4	64.9	4	-1E+10	1	-1E+10	1	-1E+10	1	-1E+10	1	-1E+10	1	-1E+10	1
4902549	59	C	03/28/2022	14:56	-131.662	47.541	0	143.60	0	7.3430	0	33.5600	0	26.239	0	142.351	0	190.4	4	64.7	4	-1E+10	1	-1E+10	1	-1E+10	1	-1E+10	1	-1E+10	1	-1E+10	1
4902549	59	C	03/28/2022	14:56	-131.662	47.541	0	144.90	0	7.3480	0	33.5730	0	26.249	0	143.640	0	189.9	4	64.5	4	-1E+10	1	-1E+10	1	-1E+10	1	-1E+10	1	-1E+10	1	-1E+10	1
4902549	59	C	03/28/2022	14:56	-131.662	47.541	0	146.20	0	7.3410	0	33.5970	0	26.269	0	144.928	0	189.6	4	64.4	4	-1E+10	1	-1E+10	1	-1E+10	1	-1E+10	1	-1E+10	1	-1E+10	1
4902549	59	C	03/28/2022	14:56	-131.662	47.541	0	147.10	0	7.3380	0	33.6010	0	26.272	0	145.820	0	189.4	4	64.4	4	-1E+10	1	-1E+10	1	-1E+10	1	-1E+10	1	-1E+10	1	-1E+10	1
4902549	59	C	03/28/2022	14:56	-131.662	47.541	0	148.00	0	7.3250	0	33.6120	0	26.283	0	146.712	0	189.4	4	64.3	4	-1E+10	1	-1E+10	1	-1E+10	1	-1E+10	1	-1E+10	1	-1E+10	1
4902549	59	C	03/28/2022	14:56	-131.662	47.541	0	148.90	0	7.3250	0	33.6120	0	26.283	0	147.603	0	189.1	4	64.3	4	-1E+10	1	-1E+10	1	-1E+10	1	-1E+10	1	-1E+10	1	-1E+10	1
4902549	59	C	03/28/2022	14:56	-131.662	47.541	0	149.80	0	7.3250	0	33.6130	0	26.284	0	148.495	0	188.9	4	64.2	4	-1E+10	1	-1E+10	1	-1E+10	1	-1E+10	1	-1E+10	1	-1E+10	1
4902549	59	C	03/28/2022	14:56	-131.662	47.541	0	150.70	0	7.3230	0	33.6140	0	26.285	0	149.387	0	188.7	4	64.1	4	-1E+10	1	-1E+10	1	-1E+10	1	-1E+10	1	-1E+10	1	-1E+10	1
4902549	59	C	03/28/2022	14:56	-131.662	47.541	0	151.60	0	7.3220	0	33.6150	0	26.286	0	150.279	0	188.5	4	64.0	4	-1E+10	1	-1E+10	1	-1E+10	1	-1E+10	1	-1E+10	1	-1E+10	1
4902549	59	C	03/28/2022	14:56	-131.662	47.541	0	152.90	0	7.3220	0	33.6140	0	26.285	0	151.567	0	188.0	4	63.9	4	-1E+10	1	-1E+10	1	-1E+10	1	-1E+10	1	-1E+10	1	-1E+10	1
4902549	59	C	03/28/2022	14:56	-131.662	47.541	0	154.30	0	7.3170	0	33.6150	0	26.286	0	152.954	0	187.5	4	63.7	4	-1E+10	1	-1E+10	1	-1E+10	1	-1E+10	1	-1E+10	1	-1E+10	1
4902549	59	C	03/28/2022	14:56	-131.662	47.541	0	155.20	0	7.2990	0	33.6300	0	26.301	0	153.846	0	187.3	4	63.6	4	-1E+10	1	-1E+10	1	-1E+10	1	-1E+10	1	-1E+10	1	-1E+10	1
4902549	59	C	03/28/2022	14:56	-131.662	47.541	0	156.20	0	7.2680	0	33.6580	0	26.327	0	154.837	0	187.1	4	63.5	4	-1E+10	1	-1E+10	1	-1E+10	1	-1E+10	1	-1E+10	1	-1E+10	1
4902549	59	C	03/28/2022	14:56	-131.662	47.541	0	157.10	0	7.2580	0	33.6610	0	26.331	0	155.729	0	186.8	4	63.4	4	-1E+10	1	-1E+10	1	-1E+10	1	-1E+10	1	-1E+10	1	-1E+10	1
4902549	59	C	03/28/2022	14:56	-131.662	47.541	0	158.10	0	7.2540	0	33.6610	0	26.331	0	156.720	0	186.6	4	63.3	4	-1E+10	1	-1E+10	1	-1E+10	1	-1E+10	1	-1E+10	1	-1E+10	1
4902549	59	C	03/28/2022	14:56	-131.662	47.541	0	159.00	0	7.2390	0	33.6670	0	26.338	0	157.612	0	186.2	4	63.2	4	-1E+10	1	-1E+10	1	-1E+10	1	-1E+10	1	-1E+10	1	-1E+10	1
4902549	59	C	03/28/2022	14:56	-131.662	47.541	0	160.00	0	7.2340	0	33.6630	0	26.336	0	158.603	0	185.9	4	63.1	4	-1E+10	1	-1E+10	1	-1E+10	1	-1E+10	1	-1E+10	1	-1E+10	1
4902549	59	C	03/28/2022	14:56	-131.662	47.541	0	160.90	0	7.2260	0	33.6640	0	26.338	0	159.494	0	185.4	4	62.9	4	-1E+10	1	-1E+10	1	-1E+10	1	-1E+10	1	-1E+10	1	-1E+10	1
4902549	59	C	03/28/2022	14:56	-131.662	47.541	0	161.80	0	7.2230	0	33.6630	0	26.337	0	160.386	0	184.9	4	62.7	4	-1E+10	1	-1E+10	1	-1E+10	1	-1E+10	1	-1E+10	1	-1E+10	1
4902549	59	C	03/28/2022	14:56	-131.662	47.541	0	162.80	0	7.2080	0	33.6710	0	26.346	0	161.377	0	184.4	4	62.5	4	-1E+10	1	-1E+10	1	-1E+10	1	-1E+10	1	-1E+10	1	-1E+10	1
4902549	59	C	03/28/2022	14:56	-131.662	47.541	0	163.70	0	7.1990	0	33.6790	0	26.353	0	162.269	0	184.0	4	62.4	4	-1E+10	1	-1E+10	1	-1E+10	1	-1E+10	1	-1E+10	1	-1E+10	1
4902549	59	C	03/28/2022	14:56	-131.662	47.541	0	164.70	0	7.1970	0	33.6910	0	26.363	0	163.260	0	183.5	4	62.2	4	-1E+10	1	-1E+10	1	-1E+10	1	-1E+10	1	-1E+10	1	-1E+10	1
4902549	59	C	03/28/2022	14:56	-131.662	47.541	0	165.60	0	7.1950	0	33.6940	0	26.366	0	164.151	0	183.1	4	62.1	4	-1E+10	1	-1E+10	1	-1E+10	1	-1E+10	1	-1E+10	1	-1E+10	1
4902549	59	C	03/28/2022	14:56	-131.662	47.541	0	166.60	0	7.1870	0	33.6990	0	26.371	0	165.142	0	182.8	4	62.0	4	-1E+10	1	-1E+10	1	-1E+10	1	-1E+10	1	-1E+10	1	-1E+10	1
4902549	59	C	03/28/2022	14:56	-131.662	47.541	0	167.50	0	7.1630	0	33.7100	0	26.383	0	166.034	0	182.4	4	61.8	4	-1E+10	1	-1E+10	1	-1E+10	1	-1E+10	1	-1E+10	1	-1E+10	1
4902549	59	C	03/28/2022	14:56	-131.662	47.541	0	168.90	0	7.1560	0	33.7130	0	26.386	0	167.421	0	181.9	4	61.6	4	-1E+10	1	-1E+10	1	-1E+10	1	-1E+10	1	-1E+10	1	-1E+10	1
4902549	59	C	03/28/2022	14:56	-131.662	47.541	0	170.30	0	7.1430	0	33.7180	0	26.392	0	168.808	0	181.3	4	61.4	4	-1E+10	1	-1E+10	1	-1E+10	1	-1E+10	1	-1E+10	1	-1E+10	1
4902549	59	C	03/28/2022	14:56	-131.662	47.541	0	171.30	0	7.1150	0	33.7260	0	26.402	0	169.799	0	181.0	4	61.3	4	-1E+10	1	-1E+10	1	-1E+10	1	-1E+10	1	-1E+10	1	-1E+10	1
4902549	59	C	03/28/2022	14:56	-131.662	47.541	0	172.20	0	7.0950	0	33.7290	0	26.407	0	170.691	0	180.6	4	61.1	4	-1E+10	1	-1E+10	1	-1E+10	1	-1E+10	1	-1E+10	1	-1E+10	1
4902549	59	C	03/28/2022	14:56	-131.662	47.541	0	173.10	0	7.0790	0	33.7330	0	26.412	0	171.583	0	180.2	4	60.9	4	-1E+10	1	-1E+10	1	-1E+10	1	-1E+10	1	-1E+10	1	-1E+10	1
4902549	59	C	03/28/2022	14:56	-131.662	47.541	0	174.00	0	7.0590	0	33.7370	0	26.418	0	172.474	0	179.8	4	60.8	4	-1E+10	1	-1E+10	1	-1E+10	1	-1E+10	1	-1E+10	1	-1E+10	1
4902549	59	C	03/28/2022	14:56	-131.662	47.541	0	175.00	0	7.0470	0	33.7390	0	26.421	0	173.465	0	179.4	4	60.6	4	-1E+10	1	-1E+10	1	-1E+10	1	-1E+10	1	-1E+10	1	-1E+10	1
4902549	59	C	03/28/2022	14:56	-131.662	47.541	0	175.90	0	7.0430	0	33.7400	0	26.423	0	174.357	0	179.0	4	60.5	4	-1E+10	1	-1E+10	1	-1E+10	1	-1E+10	1	-1E+10	1	-1E+10	1
4902549	59	C	03/28/2022	14:56	-131.662	47.541	0	176.80	0	7.0380	0	33.7400	0	26.423	0	175.249	0	178.5	4	60.3	4	-1E+10	1	-1E+10	1	-1E+10	1	-1E+10	1	-1E+10	1	-1E+10	1
4902549	59	C	03/28/2022	14:56	-131.662	47.541	0	177.80	0	7.0260	0	33.7440	0	26.428	0	176.240	0	178.0	4	60.1	4	-1E+10	1	-1E+10	1	-1E+10	1	-1E+10	1	-1E+10	1	-1E+10	1
4902549	59	C	03/28/2022	14:56	-131.662	47.541	0	178.70	0	6.9930	0	33.7460	0	26.434	0	177.131	0	177.5	4	59.9	4	-1E+10	1	-1E+10	1	-1E+10	1	-1E+10	1	-1E+10	1	-1E+10	1
4902549	59	C	03/28/2022	14:56	-131.662	47.541	0	179.70	0	6.9680	0	33.7480	0	26.439	0	178.122	0	177.1	4	59.7	4	-1E+10	1	-1E+10	1	-1E+10	1	-1E+10	1	-1E+10	1	-1E+10	1
4902549	59	C	03/28/2022	14:56	-131.662	47.541	0	180.60	0	6.9480	0	33.7520	0	26.445	0	179.014	0	176.5	4	59.5	4	-1E+10	1	-1E+10	1	-1E+10	1	-1E+10	1	-1E+10	1	-1E+10	1
4902549	59	C	03/28/2022	14:56	-131.662	47.541	0	181.60	0	6.9110	0	33.7560	0	26.453	0	180.005	0	176.1	4	59.4	4	-1E+10	1	-1E+10	1	-1E+10	1	-1E+10	1	-1E+10	1	-1E+10	1
4902549	59	C	03/28/2022	14:56	-131.662	47.541	0	182.60	0	6.8780	0	33.7610	0	26.462	0	180.995	0	175.9	4	59.2	4	-1E+10	1	-1E+10	1	-1E+10	1	-1E+10	1	-1E+10	1	-1E+10	1
4902549	59	C	03/28/2022	14:56	-131.662	47.541	0	183.50	0	6.8260	0	33.7660	0	26.473	0	181.887	0	175.8	4	59.1	4	-1E+10	1	-1E+10	1	-1E+10	1	-1E+10	1	-1E+10	1	-1E+10	1
4902549	59	C	03/28/2022	14:56	-131.662	47.541	0	184.50	0	6.8200	0	33.7640	0	26.472	0	182.878	0	175.6	4	59.1	4	-1E+10	1	-1E+10	1	-1E+10	1	-1E+10	1	-1E+10	1	-1E+10	1
4902549	59	C	03/28/2022	14:56	-131.662	47.541	0	185.90	0	6.8170	0	33.7640	0	26.472	0	184.265	0	175.3	4	58.9	4	-1E+10	1	-1E+10	1	-1E+10	1	-1E+10	1	-1E+10	1	-1E+10	1
4902549	59	C	03/28/2022	14:56	-131.662	47.541	0	187.40	0	6.8120	0	33.7640	0	26.473	0	185.751	0	174.8	4	58.8	4	-1E+10	1	-1E+10	1	-1E+10	1	-1E+10	1	-1E+10	1	-1E+10	1
4902549	59	C	03/28/2022	14:56	-131.662	47.541	0	188.30	0	6.8080	0	33.7640	0	26.474	0	186.643	0	174.4	4	58.6	4	-1E+10	1	-1E+10	1	-1E+10	1	-1E+10	1	-1E+10	1	-1E+10	1
4902549	59	C	03/28/2022	14:56	-131.662	47.541	0	189.30	0	6.8030	0	33.7630	0	26.474	0	187.633	0	174.0	4	58.5	4	-1E+10	1	-1E+10	1	-1E+10	1	-1E+10	1	-1E+10	1	-1E+10	1
4902549	59	C	03/28/2022	14:56	-131.662	47.541	0	190.20	0	6.7820	0	33.7650	0	26.478	0	188.525	0	173.6	4	58.3	4	-1E+10	1	-1E+10	1	-1E+10	1	-1E+10	1	-1E+10	1	-1E+10	1
4902549	59	C	03/28/2022	14:56	-131.662	47.541	0	191.20	0	6.7570	0	33.7670	0	26.483	0	189.516	0	173.2	4	58.2	4	-1E+10	1	-1E+10	1	-1E+10	1	-1E+10	1	-1E+10	1	-1E+10	1
4902549	59	C	03/28/2022	14:56	-131.662	47.541	0	192.20	0	6.7400	0	33.7660	0	26.484	0	190.507	0	172.8	4	58.0	4	-1E+10	1	-1E+10	1	-1E+10	1	-1E+10	1	-1E+10	1	-1E+10	1
4902549	59	C	03/28/2022	14:56	-131.662	47.541	0	193.10	0	6.7350	0	33.7660	0	26.485	0	191.398	0	172.3	4	57.8	4	-1E+10	1	-1E+10	1	-1E+10	1	-1E+10	1	-1E+10	1	-1E+10	1
4902549	59	C	03/28/2022	14:56	-131.662	47.541	0	194.10	0	6.7250	0	33.7670	0	26.487	0	192.389	0	171.7	4	57.6	4	-1E+10	1	-1E+10	1	-1E+10	1	-1E+10	1	-1E+10	1	-1E+10	1
4902549	59	C	03/28/2022	14:56	-131.662	47.541	0	195.00	0	6.7090	0	33.7670	0	26.489	0	193.281	0	171.2	4	57.4	4	-1E+10	1	-1E+10	1	-1E+10	1	-1E+10	1	-1E+10	1	-1E+10	1
4902549	59	C	03/28/2022	14:56	-131.662	47.541	0	196.00	0	6.6870	0	33.7690	0	26.494	0	194.271	0	170.8	4	57.3	4	-1E+10	1	-1E+10	1	-1E+10	1	-1E+10	1	-1E+10	1	-1E+10	1
4902549	59	C	03/28/2022	14:56	-131.662	47.541	0	196.90	0	6.6710	0	33.7700	0	26.497	0	195.163	0	170.4	4	57.1	4	-1E+10	1	-1E+10	1	-1E+10	1	-1E+10	1	-1E+10	1	-1E+10	1
4902549	59	C	03/28/2022	14:56	-131.662	47.541	0	197.90	0	6.6640	0	33.7700	0	26.498	0	196.154	0	169.9	4	56.9	4	-1E+10	1	-1E+10	1	-1E+10	1	-1E+10	1	-1E+10	1	-1E+10	1
4902549	59	C	03/28/2022	14:56	-131.662	47.541	0	198.80	0	6.6470	0	33.7710	0	26.501	0	197.045	0	169.4	4	56.8	4	-1E+10	1	-1E+10	1	-1E+10	1	-1E+10	1	-1E+10	1	-1E+10	1
4902549	59	C	03/28/2022	14:56	-131.662	47.541	0	199.80	0	6.6390	0	33.7710	0	26.502	0	198.036	0	168.9	4	56.6	4	-1E+10	1	-1E+10	1	-1E+10	1	-1E+10	1	-1E+10	1	-1E+10	1
4902549	59	C	03/28/2022	14:56	-131.662	47.541	0	200.80	0	6.6250	0	33.7720	0	26.504	0	199.027	0	168.5	4	56.4	4	-1E+10	1	-1E+10	1	-1E+10	1	-1E+10	1	-1E+10	1	-1E+10	1
4902549	59	C	03/28/2022	14:56	-131.662	47.541	0	201.70	0	6.6070	0	33.7740	0	26.508	0	199.918	0	168.0	4	56.2	4	-1E+10	1	-1E+10	1	-1E+10	1	-1E+10	1	-1E+10	1	-1E+10	1
4902549	59	C	03/28/2022	14:56	-131.662	47.541	0	202.70	0	6.5950	0	33.7740	0	26.510	0	200.909	0	167.7	4	56.1	4	-1E+10	1	-1E+10	1	-1E+10	1	-1E+10	1	-1E+10	1	-1E+10	1
4902549	59	C	03/28/2022	14:56	-131.662	47.541	0	203.70	0	6.5800	0	33.7740	0	26.512	0	201.900	0	167.2	4	55.9	4	-1E+10	1	-1E+10	1	-1E+10	1	-1E+10	1	-1E+10	1	-1E+10	1
4902549	59	C	03/28/2022	14:56	-131.662	47.541	0	204.60	0	6.5760	0	33.7730	0	26.512	0	202.791	0	166.7	4	55.7	4	-1E+10	1	-1E+10	1	-1E+10	1	-1E+10	1	-1E+10	1	-1E+10	1
4902549	59	C	03/28/2022	14:56	-131.662	47.541	0	205.60	0	6.5750	0	33.7710	0	26.510	0	203.782	0	166.1	4	55.5	4	-1E+10	1	-1E+10	1	-1E+10	1	-1E+10	1	-1E+10	1	-1E+10	1
4902549	59	C	03/28/2022	14:56	-131.662	47.541	0	206.60	0	6.5390	0	33.7710	0	26.515	0	204.773	0	165.5	4	55.3	4	-1E+10	1	-1E+10	1	-1E+10	1	-1E+10	1	-1E+10	1	-1E+10	1
4902549	59	C	03/28/2022	14:56	-131.662	47.541	0	207.50	0	6.4720	0	33.7730	0	26.525	0	205.664	0	165.3	4	55.2	4	-1E+10	1	-1E+10	1	-1E+10	1	-1E+10	1	-1E+10	1	-1E+10	1
4902549	59	C	03/28/2022	14:56	-131.662	47.541	0	208.50	0	6.4310	0	33.7720	0	26.530	0	206.655	0	165.1	4	55.0	4	-1E+10	1	-1E+10	1	-1E+10	1	-1E+10	1	-1E+10	1	-1E+10	1
4902549	59	C	03/28/2022	14:56	-131.662	47.541	0	209.50	0	6.4270	0	33.7720	0	26.530	0	207.645	0	164.7	4	54.9	4	-1E+10	1	-1E+10	1	-1E+10	1	-1E+10	1	-1E+10	1	-1E+10	1
4902549	59	C	03/28/2022	14:56	-131.662	47.541	0	210.50	0	6.4170	0	33.7720	0	26.532	0	208.636	0	164.4	4	54.8	4	-1E+10	1	-1E+10	1	-1E+10	1	-1E+10	1	-1E+10	1	-1E+10	1
4902549	59	C	03/28/2022	14:56	-131.662	47.541	0	211.50	0	6.4040	0	33.7740	0	26.535	0	209.627	0	164.0	4	54.6	4	-1E+10	1	-1E+10	1	-1E+10	1	-1E+10	1	-1E+10	1	-1E+10	1
4902549	59	C	03/28/2022	14:56	-131.662	47.541	0	212.50	0	6.4030	0	33.7720	0	26.534	0	210.617	0	163.5	4	54.5	4	-1E+10	1	-1E+10	1	-1E+10	1	-1E+10	1	-1E+10	1	-1E+10	1
4902549	59	C	03/28/2022	14:56	-131.662	47.541	0	213.50	0	6.3980	0	33.7730	0	26.535	0	211.608	0	163.1	4	54.3	4	-1E+10	1	-1E+10	1	-1E+10	1	-1E+10	1	-1E+10	1	-1E+10	1
4902549	59	C	03/28/2022	14:56	-131.662	47.541	0	214.50	0	6.3920	0	33.7730	0	26.536	0	212.599	0	162.5	4	54.1	4	-1E+10	1	-1E+10	1	-1E+10	1	-1E+10	1	-1E+10	1	-1E+10	1
4902549	59	C	03/28/2022	14:56	-131.662	47.541	0	215.50	0	6.3900	0	33.7740	0	26.537	0	213.589	0	162.0	4	54.0	4	-1E+10	1	-1E+10	1	-1E+10	1	-1E+10	1	-1E+10	1	-1E+10	1
4902549	59	C	03/28/2022	14:56	-131.662	47.541	0	216.50	0	6.3860	0	33.7730	0	26.537	0	214.580	0	161.5	4	53.8	4	-1E+10	1	-1E+10	1	-1E+10	1	-1E+10	1	-1E+10	1	-1E+10	1
4902549	59	C	03/28/2022	14:56	-131.662	47.541	0	217.90	0	6.3820	0	33.7720	0	26.536	0	215.967	0	160.3	4	53.4	4	-1E+10	1	-1E+10	1	-1E+10	1	-1E+10	1	-1E+10	1	-1E+10	1
4902549	59	C	03/28/2022	14:56	-131.662	47.541	0	219.40	0	6.3630	0	33.7730	0	26.540	0	217.453	0	159.1	4	53.0	4	-1E+10	1	-1E+10	1	-1E+10	1	-1E+10	1	-1E+10	1	-1E+10	1
4902549	59	C	03/28/2022	14:56	-131.662	47.541	0	220.40	0	6.3470	0	33.7730	0	26.542	0	218.443	0	158.3	4	52.7	4	-1E+10	1	-1E+10	1	-1E+10	1	-1E+10	1	-1E+10	1	-1E+10	1
4902549	59	C	03/28/2022	14:56	-131.662	47.541	0	221.40	0	6.3300	0	33.7710	0	26.542	0	219.434	0	157.4	4	52.3	4	-1E+10	1	-1E+10	1	-1E+10	1	-1E+10	1	-1E+10	1	-1E+10	1
4902549	59	C	03/28/2022	14:56	-131.662	47.541	0	222.40	0	6.2790	0	33.7750	0	26.552	0	220.424	0	156.7	4	52.1	4	-1E+10	1	-1E+10	1	-1E+10	1	-1E+10	1	-1E+10	1	-1E+10	1
4902549	59	C	03/28/2022	14:56	-131.662	47.541	0	223.40	0	6.2550	0	33.7730	0	26.553	0	221.415	0	156.1	4	51.8	4	-1E+10	1	-1E+10	1	-1E+10	1	-1E+10	1	-1E+10	1	-1E+10	1
4902549	59	C	03/28/2022	14:56	-131.662	47.541	0	224.40	0	6.2480	0	33.7720	0	26.554	0	222.405	0	155.3	4	51.6	4	-1E+10	1	-1E+10	1	-1E+10	1	-1E+10	1	-1E+10	1	-1E+10	1
4902549	59	C	03/28/2022	14:56	-131.662	47.541	0	225.40	0	6.2130	0	33.7740	0	26.560	0	223.396	0	154.7	4	51.3	4	-1E+10	1	-1E+10	1	-1E+10	1	-1E+10	1	-1E+10	1	-1E+10	1
4902549	59	C	03/28/2022	14:56	-131.662	47.541	0	226.40	0	6.1750	0	33.7760	0	26.566	0	224.387	0	154.2	4	51.1	4	-1E+10	1	-1E+10	1	-1E+10	1	-1E+10	1	-1E+10	1	-1E+10	1
4902549	59	C	03/28/2022	14:56	-131.662	47.541	0	227.40	0	6.1680	0	33.7760	0	26.567	0	225.377	0	153.6	4	50.9	4	-1E+10	1	-1E+10	1	-1E+10	1	-1E+10	1	-1E+10	1	-1E+10	1
4902549	59	C	03/28/2022	14:56	-131.662	47.541	0	228.40	0	6.1670	0	33.7750	0	26.566	0	226.368	0	153.0	4	50.7	4	-1E+10	1	-1E+10	1	-1E+10	1	-1E+10	1	-1E+10	1	-1E+10	1
4902549	59	C	03/28/2022	14:56	-131.662	47.541	0	229.40	0	6.1620	0	33.7750	0	26.567	0	227.358	0	152.2	4	50.4	4	-1E+10	1	-1E+10	1	-1E+10	1	-1E+10	1	-1E+10	1	-1E+10	1
4902549	59	C	03/28/2022	14:56	-131.662	47.541	0	230.40	0	6.1570	0	33.7750	0	26.568	0	228.349	0	151.3	4	50.1	4	-1E+10	1	-1E+10	1	-1E+10	1	-1E+10	1	-1E+10	1	-1E+10	1
4902549	59	C	03/28/2022	14:56	-131.662	47.541	0	231.40	0	6.1290	0	33.7830	0	26.577	0	229.339	0	150.4	4	49.8	4	-1E+10	1	-1E+10	1	-1E+10	1	-1E+10	1	-1E+10	1	-1E+10	1
4902549	59	C	03/28/2022	14:56	-131.662	47.541	0	232.40	0	6.1190	0	33.7780	0	26.575	0	230.330	0	149.7	4	49.6	4	-1E+10	1	-1E+10	1	-1E+10	1	-1E+10	1	-1E+10	1	-1E+10	1
4902549	59	C	03/28/2022	14:56	-131.662	47.541	0	233.50	0	6.0940	0	33.7780	0	26.578	0	231.420	0	149.1	4	49.3	4	-1E+10	1	-1E+10	1	-1E+10	1	-1E+10	1	-1E+10	1	-1E+10	1
4902549	59	C	03/28/2022	14:56	-131.662	47.541	0	234.50	0	6.0800	0	33.7800	0	26.581	0	232.410	0	148.4	4	49.1	4	-1E+10	1	-1E+10	1	-1E+10	1	-1E+10	1	-1E+10	1	-1E+10	1
4902549	59	C	03/28/2022	14:56	-131.662	47.541	0	235.50	0	6.0570	0	33.7860	0	26.589	0	233.401	0	147.8	4	48.9	4	-1E+10	1	-1E+10	1	-1E+10	1	-1E+10	1	-1E+10	1	-1E+10	1
4902549	59	C	03/28/2022	14:56	-131.662	47.541	0	236.50	0	6.0510	0	33.7810	0	26.586	0	234.391	0	147.2	4	48.6	4	-1E+10	1	-1E+10	1	-1E+10	1	-1E+10	1	-1E+10	1	-1E+10	1
4902549	59	C	03/28/2022	14:56	-131.662	47.541	0	237.60	0	6.0490	0	33.7810	0	26.586	0	235.481	0	146.4	4	48.4	4	-1E+10	1	-1E+10	1	-1E+10	1	-1E+10	1	-1E+10	1	-1E+10	1
4902549	59	C	03/28/2022	14:56	-131.662	47.541	0	238.60	0	6.0470	0	33.7810	0	26.586	0	236.471	0	145.6	4	48.1	4	-1E+10	1	-1E+10	1	-1E+10	1	-1E+10	1	-1E+10	1	-1E+10	1
4902549	59	C	03/28/2022	14:56	-131.662	47.541	0	239.60	0	6.0460	0	33.7810	0	26.586	0	237.462	0	144.6	4	47.8	4	-1E+10	1	-1E+10	1	-1E+10	1	-1E+10	1	-1E+10	1	-1E+10	1
4902549	59	C	03/28/2022	14:56	-131.662	47.541	0	240.60	0	6.0250	0	33.7820	0	26.590	0	238.452	0	143.6	4	47.4	4	-1E+10	1	-1E+10	1	-1E+10	1	-1E+10	1	-1E+10	1	-1E+10	1
4902549	59	C	03/28/2022	14:56	-131.662	47.541	0	241.60	0	6.0070	0	33.7830	0	26.593	0	239.443	0	142.7	4	47.1	4	-1E+10	1	-1E+10	1	-1E+10	1	-1E+10	1	-1E+10	1	-1E+10	1
4902549	59	C	03/28/2022	14:56	-131.662	47.541	0	242.60	0	5.9980	0	33.7830	0	26.594	0	240.433	0	141.7	4	46.8	4	-1E+10	1	-1E+10	1	-1E+10	1	-1E+10	1	-1E+10	1	-1E+10	1
4902549	59	C	03/28/2022	14:56	-131.662	47.541	0	243.70	0	5.9870	0	33.7820	0	26.595	0	241.523	0	140.6	4	46.4	4	-1E+10	1	-1E+10	1	-1E+10	1	-1E+10	1	-1E+10	1	-1E+10	1
4902549	59	C	03/28/2022	14:56	-131.662	47.541	0	244.70	0	5.9570	0	33.7850	0	26.601	0	242.513	0	139.6	4	46.0	4	-1E+10	1	-1E+10	1	-1E+10	1	-1E+10	1	-1E+10	1	-1E+10	1
4902549	59	C	03/28/2022	14:56	-131.662	47.541	0	245.80	0	5.9020	0	33.7930	0	26.614	0	243.603	0	139.0	4	45.8	4	-1E+10	1	-1E+10	1	-1E+10	1	-1E+10	1	-1E+10	1	-1E+10	1
4902549	59	C	03/28/2022	14:56	-131.662	47.541	0	246.80	0	5.8510	0	33.7920	0	26.619	0	244.593	0	138.7	4	45.6	4	-1E+10	1	-1E+10	1	-1E+10	1	-1E+10	1	-1E+10	1	-1E+10	1
4902549	59	C	03/28/2022	14:56	-131.662	47.541	0	247.90	0	5.8460	0	33.7940	0	26.622	0	245.683	0	138.3	4	45.5	4	-1E+10	1	-1E+10	1	-1E+10	1	-1E+10	1	-1E+10	1	-1E+10	1
4902549	59	C	03/28/2022	14:56	-131.662	47.541	0	248.90	0	5.8440	0	33.7940	0	26.622	0	246.673	0	138.0	4	45.4	4	-1E+10	1	-1E+10	1	-1E+10	1	-1E+10	1	-1E+10	1	-1E+10	1
4902549	59	C	03/28/2022	14:56	-131.662	47.541	0	250.00	0	5.8440	0	33.7940	0	26.622	0	247.763	0	137.6	4	45.2	4	-1E+10	1	-1E+10	1	-1E+10	1	-1E+10	1	-1E+10	1	-1E+10	1
4902549	59	C	03/28/2022	14:56	-131.662	47.541	0	251.00	0	5.8460	0	33.7940	0	26.622	0	248.753	0	137.1	4	45.1	4	-1E+10	1	-1E+10	1	-1E+10	1	-1E+10	1	-1E+10	1	-1E+10	1
4902549	59	C	03/28/2022	14:56	-131.662	47.541	0	252.10	0	5.8460	0	33.7940	0	26.622	0	249.843	0	136.5	4	44.9	4	-1E+10	1	-1E+10	1	-1E+10	1	-1E+10	1	-1E+10	1	-1E+10	1
4902549	59	C	03/28/2022	14:56	-131.662	47.541	0	253.10	0	5.8440	0	33.7950	0	26.623	0	250.833	0	136.0	4	44.7	4	-1E+10	1	-1E+10	1	-1E+10	1	-1E+10	1	-1E+10	1	-1E+10	1
4902549	59	C	03/28/2022	14:56	-131.662	47.541	0	254.20	0	5.8360	0	33.7950	0	26.624	0	251.922	0	135.4	4	44.5	4	-1E+10	1	-1E+10	1	-1E+10	1	-1E+10	1	-1E+10	1	-1E+10	1
4902549	59	C	03/28/2022	14:56	-131.662	47.541	0	255.20	0	5.7850	0	33.7930	0	26.628	0	252.913	0	135.0	4	44.3	4	-1E+10	1	-1E+10	1	-1E+10	1	-1E+10	1	-1E+10	1	-1E+10	1
4902549	59	C	03/28/2022	14:56	-131.662	47.541	0	256.30	0	5.7760	0	33.7930	0	26.629	0	254.002	0	134.5	4	44.2	4	-1E+10	1	-1E+10	1	-1E+10	1	-1E+10	1	-1E+10	1	-1E+10	1
4902549	59	C	03/28/2022	14:56	-131.662	47.541	0	257.30	0	5.7690	0	33.7940	0	26.631	0	254.993	0	133.9	4	44.0	4	-1E+10	1	-1E+10	1	-1E+10	1	-1E+10	1	-1E+10	1	-1E+10	1
4902549	59	C	03/28/2022	14:56	-131.662	47.541	0	258.40	0	5.7690	0	33.7950	0	26.632	0	256.082	0	133.4	4	43.8	4	-1E+10	1	-1E+10	1	-1E+10	1	-1E+10	1	-1E+10	1	-1E+10	1
4902549	59	C	03/28/2022	14:56	-131.662	47.541	0	259.40	0	5.7640	0	33.7950	0	26.632	0	257.073	0	132.8	4	43.6	4	-1E+10	1	-1E+10	1	-1E+10	1	-1E+10	1	-1E+10	1	-1E+10	1
4902549	59	C	03/28/2022	14:56	-131.662	47.541	0	260.40	0	5.7410	0	33.7960	0	26.636	0	258.063	0	132.3	4	43.4	4	-1E+10	1	-1E+10	1	-1E+10	1	-1E+10	1	-1E+10	1	-1E+10	1
4902549	59	C	03/28/2022	14:56	-131.662	47.541	0	261.40	0	5.7400	0	33.7950	0	26.635	0	259.053	0	131.6	4	43.2	4	-1E+10	1	-1E+10	1	-1E+10	1	-1E+10	1	-1E+10	1	-1E+10	1
4902549	59	C	03/28/2022	14:56	-131.662	47.541	0	262.90	0	5.7290	0	33.7970	0	26.638	0	260.539	0	130.4	4	42.8	4	-1E+10	1	-1E+10	1	-1E+10	1	-1E+10	1	-1E+10	1	-1E+10	1
4902549	59	C	03/28/2022	14:56	-131.662	47.541	0	264.20	0	5.7020	0	33.7980	0	26.642	0	261.827	0	129.5	4	42.5	4	-1E+10	1	-1E+10	1	-1E+10	1	-1E+10	1	-1E+10	1	-1E+10	1
4902549	59	C	03/28/2022	14:56	-131.662	47.541	0	264.90	0	5.6730	0	33.7950	0	26.644	0	262.520	0	129.1	4	42.3	4	-1E+10	1	-1E+10	1	-1E+10	1	-1E+10	1	-1E+10	1	-1E+10	1
4902549	59	C	03/28/2022	14:56	-131.662	47.541	0	265.70	0	5.6490	0	33.7970	0	26.648	0	263.312	0	128.6	4	42.1	4	-1E+10	1	-1E+10	1	-1E+10	1	-1E+10	1	-1E+10	1	-1E+10	1
4902549	59	C	03/28/2022	14:56	-131.662	47.541	0	266.90	0	5.6390	0	33.7970	0	26.649	0	264.501	0	127.8	4	41.8	4	-1E+10	1	-1E+10	1	-1E+10	1	-1E+10	1	-1E+10	1	-1E+10	1
4902549	59	C	03/28/2022	14:56	-131.662	47.541	0	268.10	0	5.6330	0	33.8010	0	26.653	0	265.689	0	127.1	4	41.6	4	-1E+10	1	-1E+10	1	-1E+10	1	-1E+10	1	-1E+10	1	-1E+10	1
4902549	59	C	03/28/2022	14:56	-131.662	47.541	0	268.90	0	5.6280	0	33.8020	0	26.655	0	266.481	0	126.6	4	41.4	4	-1E+10	1	-1E+10	1	-1E+10	1	-1E+10	1	-1E+10	1	-1E+10	1
4902549	59	C	03/28/2022	14:56	-131.662	47.541	0	269.70	0	5.6210	0	33.8030	0	26.656	0	267.274	0	126.1	4	41.3	4	-1E+10	1	-1E+10	1	-1E+10	1	-1E+10	1	-1E+10	1	-1E+10	1
4902549	59	C	03/28/2022	14:56	-131.662	47.541	0	270.90	0	5.6120	0	33.8030	0	26.657	0	268.462	0	125.4	4	41.0	4	-1E+10	1	-1E+10	1	-1E+10	1	-1E+10	1	-1E+10	1	-1E+10	1
4902549	59	C	03/28/2022	14:56	-131.662	47.541	0	272.20	0	5.5960	0	33.8030	0	26.659	0	269.749	0	124.6	4	40.8	4	-1E+10	1	-1E+10	1	-1E+10	1	-1E+10	1	-1E+10	1	-1E+10	1
4902549	59	C	03/28/2022	14:56	-131.662	47.541	0	273.00	0	5.5940	0	33.8030	0	26.660	0	270.542	0	124.1	4	40.6	4	-1E+10	1	-1E+10	1	-1E+10	1	-1E+10	1	-1E+10	1	-1E+10	1
4902549	59	C	03/28/2022	14:56	-131.662	47.541	0	273.80	0	5.5780	0	33.8090	0	26.666	0	271.334	0	123.6	4	40.4	4	-1E+10	1	-1E+10	1	-1E+10	1	-1E+10	1	-1E+10	1	-1E+10	1
4902549	59	C	03/28/2022	14:56	-131.662	47.541	0	274.70	0	5.5640	0	33.8080	0	26.667	0	272.225	0	123.3	4	40.3	4	-1E+10	1	-1E+10	1	-1E+10	1	-1E+10	1	-1E+10	1	-1E+10	1
4902549	59	C	03/28/2022	14:56	-131.662	47.541	0	275.90	0	5.5570	0	33.8090	0	26.669	0	273.414	0	122.7	4	40.1	4	-1E+10	1	-1E+10	1	-1E+10	1	-1E+10	1	-1E+10	1	-1E+10	1
4902549	59	C	03/28/2022	14:56	-131.662	47.541	0	277.20	0	5.5550	0	33.8100	0	26.670	0	274.701	0	122.2	4	39.9	4	-1E+10	1	-1E+10	1	-1E+10	1	-1E+10	1	-1E+10	1	-1E+10	1
4902549	59	C	03/28/2022	14:56	-131.662	47.541	0	278.00	0	5.5520	0	33.8110	0	26.671	0	275.493	0	121.8	4	39.8	4	-1E+10	1	-1E+10	1	-1E+10	1	-1E+10	1	-1E+10	1	-1E+10	1
4902549	59	C	03/28/2022	14:56	-131.662	47.541	0	278.80	0	5.5480	0	33.8120	0	26.672	0	276.286	0	121.4	4	39.7	4	-1E+10	1	-1E+10	1	-1E+10	1	-1E+10	1	-1E+10	1	-1E+10	1
4902549	59	C	03/28/2022	14:56	-131.662	47.541	0	279.70	0	5.5460	0	33.8130	0	26.673	0	277.177	0	121.0	4	39.5	4	-1E+10	1	-1E+10	1	-1E+10	1	-1E+10	1	-1E+10	1	-1E+10	1
4902549	59	C	03/28/2022	14:56	-131.662	47.541	0	280.90	0	5.5430	0	33.8140	0	26.674	0	278.365	0	120.4	4	39.3	4	-1E+10	1	-1E+10	1	-1E+10	1	-1E+10	1	-1E+10	1	-1E+10	1
4902549	59	C	03/28/2022	14:56	-131.662	47.541	0	282.20	0	5.5410	0	33.8140	0	26.675	0	279.653	0	119.8	4	39.1	4	-1E+10	1	-1E+10	1	-1E+10	1	-1E+10	1	-1E+10	1	-1E+10	1
4902549	59	C	03/28/2022	14:56	-131.662	47.541	0	283.00	0	5.5380	0	33.8150	0	26.676	0	280.445	0	119.3	4	39.0	4	-1E+10	1	-1E+10	1	-1E+10	1	-1E+10	1	-1E+10	1	-1E+10	1
4902549	59	C	03/28/2022	14:56	-131.662	47.541	0	283.80	0	5.5360	0	33.8150	0	26.676	0	281.237	0	118.8	4	38.8	4	-1E+10	1	-1E+10	1	-1E+10	1	-1E+10	1	-1E+10	1	-1E+10	1
4902549	59	C	03/28/2022	14:56	-131.662	47.541	0	284.70	0	5.5280	0	33.8170	0	26.679	0	282.128	0	118.4	4	38.7	4	-1E+10	1	-1E+10	1	-1E+10	1	-1E+10	1	-1E+10	1	-1E+10	1
4902549	59	C	03/28/2022	14:56	-131.662	47.541	0	286.00	0	5.5210	0	33.8180	0	26.680	0	283.416	0	117.7	4	38.4	4	-1E+10	1	-1E+10	1	-1E+10	1	-1E+10	1	-1E+10	1	-1E+10	1
4902549	59	C	03/28/2022	14:56	-131.662	47.541	0	287.30	0	5.5100	0	33.8220	0	26.685	0	284.703	0	117.0	4	38.2	4	-1E+10	1	-1E+10	1	-1E+10	1	-1E+10	1	-1E+10	1	-1E+10	1
4902549	59	C	03/28/2022	14:56	-131.662	47.541	0	288.20	0	5.5050	0	33.8230	0	26.686	0	285.594	0	116.7	4	38.1	4	-1E+10	1	-1E+10	1	-1E+10	1	-1E+10	1	-1E+10	1	-1E+10	1
4902549	59	C	03/28/2022	14:56	-131.662	47.541	0	289.10	0	5.5010	0	33.8240	0	26.687	0	286.486	0	116.3	4	37.9	4	-1E+10	1	-1E+10	1	-1E+10	1	-1E+10	1	-1E+10	1	-1E+10	1
4902549	59	C	03/28/2022	14:56	-131.662	47.541	0	289.90	0	5.4960	0	33.8250	0	26.689	0	287.278	0	115.8	4	37.8	4	-1E+10	1	-1E+10	1	-1E+10	1	-1E+10	1	-1E+10	1	-1E+10	1
4902549	59	C	03/28/2022	14:56	-131.662	47.541	0	290.80	0	5.4910	0	33.8270	0	26.691	0	288.169	0	115.5	4	37.7	4	-1E+10	1	-1E+10	1	-1E+10	1	-1E+10	1	-1E+10	1	-1E+10	1
4902549	59	C	03/28/2022	14:56	-131.662	47.541	0	291.70	0	5.4860	0	33.8270	0	26.692	0	289.060	0	115.2	4	37.6	4	-1E+10	1	-1E+10	1	-1E+10	1	-1E+10	1	-1E+10	1	-1E+10	1
4902549	59	C	03/28/2022	14:56	-131.662	47.541	0	293.00	0	5.4780	0	33.8290	0	26.694	0	290.348	0	114.7	4	37.4	4	-1E+10	1	-1E+10	1	-1E+10	1	-1E+10	1	-1E+10	1	-1E+10	1
4902549	59	C	03/28/2022	14:56	-131.662	47.541	0	294.30	0	5.4720	0	33.8320	0	26.697	0	291.635	0	114.3	4	37.3	4	-1E+10	1	-1E+10	1	-1E+10	1	-1E+10	1	-1E+10	1	-1E+10	1
4902549	59	C	03/28/2022	14:56	-131.662	47.541	0	295.30	0	5.4690	0	33.8320	0	26.698	0	292.625	0	114.1	4	37.2	4	-1E+10	1	-1E+10	1	-1E+10	1	-1E+10	1	-1E+10	1	-1E+10	1
4902549	59	C	03/28/2022	14:56	-131.662	47.541	0	296.10	0	5.4680	0	33.8330	0	26.699	0	293.417	0	113.8	4	37.1	4	-1E+10	1	-1E+10	1	-1E+10	1	-1E+10	1	-1E+10	1	-1E+10	1
4902549	59	C	03/28/2022	14:56	-131.662	47.541	0	297.00	0	5.4670	0	33.8330	0	26.699	0	294.309	0	113.5	4	37.0	4	-1E+10	1	-1E+10	1	-1E+10	1	-1E+10	1	-1E+10	1	-1E+10	1
4902549	59	C	03/28/2022	14:56	-131.662	47.541	0	297.90	0	5.4660	0	33.8330	0	26.699	0	295.200	0	113.2	4	36.9	4	-1E+10	1	-1E+10	1	-1E+10	1	-1E+10	1	-1E+10	1	-1E+10	1
4902549	59	C	03/28/2022	14:56	-131.662	47.541	0	298.80	0	5.4660	0	33.8330	0	26.699	0	296.091	0	112.8	4	36.8	4	-1E+10	1	-1E+10	1	-1E+10	1	-1E+10	1	-1E+10	1	-1E+10	1
4902549	59	C	03/28/2022	14:56	-131.662	47.541	0	299.70	0	5.4650	0	33.8330	0	26.699	0	296.982	0	112.4	4	36.7	4	-1E+10	1	-1E+10	1	-1E+10	1	-1E+10	1	-1E+10	1	-1E+10	1
4902549	59	C	03/28/2022	14:56	-131.662	47.541	0	300.60	0	5.4630	0	33.8330	0	26.699	0	297.873	0	112.0	4	36.5	4	-1E+10	1	-1E+10	1	-1E+10	1	-1E+10	1	-1E+10	1	-1E+10	1
4902549	59	C	03/28/2022	14:56	-131.662	47.541	0	301.90	0	5.4580	0	33.8330	0	26.700	0	299.161	0	111.3	4	36.3	4	-1E+10	1	-1E+10	1	-1E+10	1	-1E+10	1	-1E+10	1	-1E+10	1
4902549	59	C	03/28/2022	14:56	-131.662	47.541	0	303.30	0	5.4540	0	33.8340	0	26.701	0	300.547	0	110.4	4	36.0	4	-1E+10	1	-1E+10	1	-1E+10	1	-1E+10	1	-1E+10	1	-1E+10	1
4902549	59	C	03/28/2022	14:56	-131.662	47.541	0	304.20	0	5.4490	0	33.8350	0	26.702	0	301.438	0	109.8	4	35.8	4	-1E+10	1	-1E+10	1	-1E+10	1	-1E+10	1	-1E+10	1	-1E+10	1
4902549	59	C	03/28/2022	14:56	-131.662	47.541	0	305.10	0	5.4450	0	33.8350	0	26.703	0	302.329	0	109.1	4	35.6	4	-1E+10	1	-1E+10	1	-1E+10	1	-1E+10	1	-1E+10	1	-1E+10	1
4902549	59	C	03/28/2022	14:56	-131.662	47.541	0	306.00	0	5.4410	0	33.8350	0	26.703	0	303.220	0	108.4	4	35.3	4	-1E+10	1	-1E+10	1	-1E+10	1	-1E+10	1	-1E+10	1	-1E+10	1
4902549	59	C	03/28/2022	14:56	-131.662	47.541	0	306.90	0	5.4380	0	33.8360	0	26.705	0	304.112	0	107.7	4	35.1	4	-1E+10	1	-1E+10	1	-1E+10	1	-1E+10	1	-1E+10	1	-1E+10	1
4902549	59	C	03/28/2022	14:56	-131.662	47.541	0	307.80	0	5.4190	0	33.8410	0	26.711	0	305.003	0	107.0	4	34.8	4	-1E+10	1	-1E+10	1	-1E+10	1	-1E+10	1	-1E+10	1	-1E+10	1
4902549	59	C	03/28/2022	14:56	-131.662	47.541	0	308.70	0	5.4030	0	33.8440	0	26.715	0	305.894	0	106.4	4	34.6	4	-1E+10	1	-1E+10	1	-1E+10	1	-1E+10	1	-1E+10	1	-1E+10	1
4902549	59	C	03/28/2022	14:56	-131.662	47.541	0	309.60	0	5.3900	0	33.8430	0	26.716	0	306.785	0	105.8	4	34.4	4	-1E+10	1	-1E+10	1	-1E+10	1	-1E+10	1	-1E+10	1	-1E+10	1
4902549	59	C	03/28/2022	14:56	-131.662	47.541	0	310.90	0	5.3740	0	33.8420	0	26.717	0	308.072	0	105.0	4	34.2	4	-1E+10	1	-1E+10	1	-1E+10	1	-1E+10	1	-1E+10	1	-1E+10	1
4902549	59	C	03/28/2022	14:56	-131.662	47.541	0	312.30	0	5.3640	0	33.8420	0	26.718	0	309.459	0	104.0	4	33.8	4	-1E+10	1	-1E+10	1	-1E+10	1	-1E+10	1	-1E+10	1	-1E+10	1
4902549	59	C	03/28/2022	14:56	-131.662	47.541	0	313.20	0	5.3570	0	33.8420	0	26.719	0	310.350	0	103.4	4	33.6	4	-1E+10	1	-1E+10	1	-1E+10	1	-1E+10	1	-1E+10	1	-1E+10	1
4902549	59	C	03/28/2022	14:56	-131.662	47.541	0	314.10	0	5.3330	0	33.8450	0	26.724	0	311.241	0	102.8	4	33.4	4	-1E+10	1	-1E+10	1	-1E+10	1	-1E+10	1	-1E+10	1	-1E+10	1
4902549	59	C	03/28/2022	14:56	-131.662	47.541	0	315.00	0	5.3110	0	33.8450	0	26.727	0	312.132	0	102.2	4	33.2	4	-1E+10	1	-1E+10	1	-1E+10	1	-1E+10	1	-1E+10	1	-1E+10	1
4902549	59	C	03/28/2022	14:56	-131.662	47.541	0	315.90	0	5.3000	0	33.8450	0	26.728	0	313.023	0	101.7	4	33.0	4	-1E+10	1	-1E+10	1	-1E+10	1	-1E+10	1	-1E+10	1	-1E+10	1
4902549	59	C	03/28/2022	14:56	-131.662	47.541	0	316.80	0	5.2920	0	33.8450	0	26.729	0	313.914	0	101.0	4	32.8	4	-1E+10	1	-1E+10	1	-1E+10	1	-1E+10	1	-1E+10	1	-1E+10	1
4902549	59	C	03/28/2022	14:56	-131.662	47.541	0	317.80	0	5.2530	0	33.8500	0	26.737	0	314.904	0	100.5	4	32.6	4	-1E+10	1	-1E+10	1	-1E+10	1	-1E+10	1	-1E+10	1	-1E+10	1
4902549	59	C	03/28/2022	14:56	-131.662	47.541	0	318.70	0	5.2450	0	33.8500	0	26.738	0	315.795	0	100.1	4	32.5	4	-1E+10	1	-1E+10	1	-1E+10	1	-1E+10	1	-1E+10	1	-1E+10	1
4902549	59	C	03/28/2022	14:56	-131.662	47.541	0	319.60	0	5.2410	0	33.8500	0	26.739	0	316.687	0	99.7	4	32.3	4	-1E+10	1	-1E+10	1	-1E+10	1	-1E+10	1	-1E+10	1	-1E+10	1
4902549	59	C	03/28/2022	14:56	-131.662	47.541	0	320.90	0	5.2330	0	33.8500	0	26.740	0	317.974	0	98.9	4	32.1	4	-1E+10	1	-1E+10	1	-1E+10	1	-1E+10	1	-1E+10	1	-1E+10	1
4902549	59	C	03/28/2022	14:56	-131.662	47.541	0	322.40	0	5.2210	0	33.8510	0	26.742	0	319.459	0	98.2	4	31.8	4	-1E+10	1	-1E+10	1	-1E+10	1	-1E+10	1	-1E+10	1	-1E+10	1
4902549	59	C	03/28/2022	14:56	-131.662	47.541	0	323.30	0	5.2020	0	33.8550	0	26.747	0	320.350	0	97.8	4	31.7	4	-1E+10	1	-1E+10	1	-1E+10	1	-1E+10	1	-1E+10	1	-1E+10	1
4902549	59	C	03/28/2022	14:56	-131.662	47.541	0	324.20	0	5.1860	0	33.8540	0	26.748	0	321.241	0	97.4	4	31.6	4	-1E+10	1	-1E+10	1	-1E+10	1	-1E+10	1	-1E+10	1	-1E+10	1
4902549	59	C	03/28/2022	14:56	-131.662	47.541	0	325.20	0	5.1830	0	33.8550	0	26.750	0	322.231	0	97.0	4	31.4	4	-1E+10	1	-1E+10	1	-1E+10	1	-1E+10	1	-1E+10	1	-1E+10	1
4902549	59	C	03/28/2022	14:56	-131.662	47.541	0	326.10	0	5.1670	0	33.8580	0	26.754	0	323.122	0	96.6	4	31.3	4	-1E+10	1	-1E+10	1	-1E+10	1	-1E+10	1	-1E+10	1	-1E+10	1
4902549	59	C	03/28/2022	14:56	-131.662	47.541	0	327.10	0	5.1640	0	33.8580	0	26.754	0	324.112	0	96.1	4	31.1	4	-1E+10	1	-1E+10	1	-1E+10	1	-1E+10	1	-1E+10	1	-1E+10	1
4902549	59	C	03/28/2022	14:56	-131.662	47.541	0	328.00	0	5.1640	0	33.8570	0	26.753	0	325.003	0	95.7	4	31.0	4	-1E+10	1	-1E+10	1	-1E+10	1	-1E+10	1	-1E+10	1	-1E+10	1
4902549	59	C	03/28/2022	14:56	-131.662	47.541	0	329.00	0	5.1490	0	33.8600	0	26.757	0	325.993	0	95.3	4	30.8	4	-1E+10	1	-1E+10	1	-1E+10	1	-1E+10	1	-1E+10	1	-1E+10	1
4902549	59	C	03/28/2022	14:56	-131.662	47.541	0	329.90	0	5.1390	0	33.8610	0	26.759	0	326.885	0	94.8	4	30.7	4	-1E+10	1	-1E+10	1	-1E+10	1	-1E+10	1	-1E+10	1	-1E+10	1
4902549	59	C	03/28/2022	14:56	-131.662	47.541	0	330.90	0	5.1360	0	33.8600	0	26.759	0	327.875	0	94.4	4	30.6	4	-1E+10	1	-1E+10	1	-1E+10	1	-1E+10	1	-1E+10	1	-1E+10	1
4902549	59	C	03/28/2022	14:56	-131.662	47.541	0	331.90	0	5.1330	0	33.8600	0	26.759	0	328.865	0	93.9	4	30.4	4	-1E+10	1	-1E+10	1	-1E+10	1	-1E+10	1	-1E+10	1	-1E+10	1
4902549	59	C	03/28/2022	14:56	-131.662	47.541	0	332.80	0	5.1180	0	33.8620	0	26.763	0	329.756	0	93.4	4	30.2	4	-1E+10	1	-1E+10	1	-1E+10	1	-1E+10	1	-1E+10	1	-1E+10	1
4902549	59	C	03/28/2022	14:56	-131.662	47.541	0	333.80	0	5.1070	0	33.8630	0	26.765	0	330.746	0	93.0	4	30.1	4	-1E+10	1	-1E+10	1	-1E+10	1	-1E+10	1	-1E+10	1	-1E+10	1
4902549	59	C	03/28/2022	14:56	-131.662	47.541	0	334.80	0	5.0910	0	33.8650	0	26.768	0	331.736	0	92.6	4	29.9	4	-1E+10	1	-1E+10	1	-1E+10	1	-1E+10	1	-1E+10	1	-1E+10	1
4902549	59	C	03/28/2022	14:56	-131.662	47.541	0	335.80	0	5.0810	0	33.8670	0	26.771	0	332.726	0	92.2	4	29.8	4	-1E+10	1	-1E+10	1	-1E+10	1	-1E+10	1	-1E+10	1	-1E+10	1
4902549	59	C	03/28/2022	14:56	-131.662	47.541	0	336.80	0	5.0760	0	33.8670	0	26.771	0	333.716	0	91.8	4	29.7	4	-1E+10	1	-1E+10	1	-1E+10	1	-1E+10	1	-1E+10	1	-1E+10	1
4902549	59	C	03/28/2022	14:56	-131.662	47.541	0	337.80	0	5.0670	0	33.8680	0	26.773	0	334.706	0	91.5	4	29.6	4	-1E+10	1	-1E+10	1	-1E+10	1	-1E+10	1	-1E+10	1	-1E+10	1
4902549	59	C	03/28/2022	14:56	-131.662	47.541	0	338.80	0	5.0560	0	33.8680	0	26.775	0	335.696	0	91.2	4	29.5	4	-1E+10	1	-1E+10	1	-1E+10	1	-1E+10	1	-1E+10	1	-1E+10	1
4902549	59	C	03/28/2022	14:56	-131.662	47.541	0	339.80	0	5.0460	0	33.8680	0	26.776	0	336.686	0	90.9	4	29.4	4	-1E+10	1	-1E+10	1	-1E+10	1	-1E+10	1	-1E+10	1	-1E+10	1
4902549	59	C	03/28/2022	14:56	-131.662	47.541	0	340.80	0	5.0400	0	33.8690	0	26.777	0	337.676	0	90.6	4	29.2	4	-1E+10	1	-1E+10	1	-1E+10	1	-1E+10	1	-1E+10	1	-1E+10	1
4902549	59	C	03/28/2022	14:56	-131.662	47.541	0	341.80	0	5.0310	0	33.8720	0	26.781	0	338.666	0	90.2	4	29.1	4	-1E+10	1	-1E+10	1	-1E+10	1	-1E+10	1	-1E+10	1	-1E+10	1
4902549	59	C	03/28/2022	14:56	-131.662	47.541	0	342.80	0	5.0250	0	33.8720	0	26.781	0	339.656	0	90.0	4	29.0	4	-1E+10	1	-1E+10	1	-1E+10	1	-1E+10	1	-1E+10	1	-1E+10	1
4902549	59	C	03/28/2022	14:56	-131.662	47.541	0	343.80	0	5.0210	0	33.8730	0	26.783	0	340.646	0	89.7	4	29.0	4	-1E+10	1	-1E+10	1	-1E+10	1	-1E+10	1	-1E+10	1	-1E+10	1
4902549	59	C	03/28/2022	14:56	-131.662	47.541	0	344.90	0	5.0190	0	33.8730	0	26.783	0	341.735	0	89.4	4	28.9	4	-1E+10	1	-1E+10	1	-1E+10	1	-1E+10	1	-1E+10	1	-1E+10	1
4902549	59	C	03/28/2022	14:56	-131.662	47.541	0	345.90	0	5.0100	0	33.8740	0	26.785	0	342.725	0	89.2	4	28.8	4	-1E+10	1	-1E+10	1	-1E+10	1	-1E+10	1	-1E+10	1	-1E+10	1
4902549	59	C	03/28/2022	14:56	-131.662	47.541	0	346.90	0	5.0040	0	33.8760	0	26.787	0	343.715	0	89.0	4	28.7	4	-1E+10	1	-1E+10	1	-1E+10	1	-1E+10	1	-1E+10	1	-1E+10	1
4902549	59	C	03/28/2022	14:56	-131.662	47.541	0	347.90	0	5.0010	0	33.8760	0	26.787	0	344.705	0	88.7	4	28.6	4	-1E+10	1	-1E+10	1	-1E+10	1	-1E+10	1	-1E+10	1	-1E+10	1
4902549	59	C	03/28/2022	14:56	-131.662	47.541	0	349.00	0	4.9980	0	33.8770	0	26.788	0	345.794	0	88.5	4	28.5	4	-1E+10	1	-1E+10	1	-1E+10	1	-1E+10	1	-1E+10	1	-1E+10	1
4902549	59	C	03/28/2022	14:56	-131.662	47.541	0	350.00	0	4.9940	0	33.8770	0	26.789	0	346.784	0	88.3	4	28.5	4	-1E+10	1	-1E+10	1	-1E+10	1	-1E+10	1	-1E+10	1	-1E+10	1
4902549	59	C	03/28/2022	14:56	-131.662	47.541	0	353.10	0	4.9820	0	33.8780	0	26.791	0	349.853	0	87.5	4	28.2	4	-1E+10	1	-1E+10	1	-1E+10	1	-1E+10	1	-1E+10	1	-1E+10	1
4902549	59	C	03/28/2022	14:56	-131.662	47.541	0	357.80	0	4.9680	0	33.8800	0	26.794	0	354.506	0	86.2	4	27.8	4	-1E+10	1	-1E+10	1	-1E+10	1	-1E+10	1	-1E+10	1	-1E+10	1
4902549	59	C	03/28/2022	14:56	-131.662	47.541	0	362.50	0	4.9410	0	33.8870	0	26.803	0	359.158	0	85.0	4	27.4	4	-1E+10	1	-1E+10	1	-1E+10	1	-1E+10	1	-1E+10	1	-1E+10	1
4902549	59	C	03/28/2022	14:56	-131.662	47.541	0	367.80	0	4.9280	0	33.8890	0	26.806	0	364.405	0	83.9	4	27.0	4	-1E+10	1	-1E+10	1	-1E+10	1	-1E+10	1	-1E+10	1	-1E+10	1
4902549	59	C	03/28/2022	14:56	-131.662	47.541	0	373.00	0	4.9120	0	33.8930	0	26.811	0	369.552	0	82.7	4	26.6	4	-1E+10	1	-1E+10	1	-1E+10	1	-1E+10	1	-1E+10	1	-1E+10	1
4902549	59	C	03/28/2022	14:56	-131.662	47.541	0	378.20	0	4.8960	0	33.8960	0	26.815	0	374.699	0	81.4	4	26.2	4	-1E+10	1	-1E+10	1	-1E+10	1	-1E+10	1	-1E+10	1	-1E+10	1
4902549	59	C	03/28/2022	14:56	-131.662	47.541	0	382.90	0	4.8760	0	33.9000	0	26.821	0	379.352	0	80.1	4	25.8	4	-1E+10	1	-1E+10	1	-1E+10	1	-1E+10	1	-1E+10	1	-1E+10	1
4902549	59	C	03/28/2022	14:56	-131.662	47.541	0	387.60	0	4.8630	0	33.9020	0	26.824	0	384.004	0	78.6	4	25.3	4	-1E+10	1	-1E+10	1	-1E+10	1	-1E+10	1	-1E+10	1	-1E+10	1
4902549	59	C	03/28/2022	14:56	-131.662	47.541	0	392.80	0	4.8270	0	33.9080	0	26.833	0	389.151	0	76.6	4	24.6	4	-1E+10	1	-1E+10	1	-1E+10	1	-1E+10	1	-1E+10	1	-1E+10	1
4902549	59	C	03/28/2022	14:56	-131.662	47.541	0	398.00	0	4.7910	0	33.9130	0	26.841	0	394.297	0	75.1	4	24.1	4	-1E+10	1	-1E+10	1	-1E+10	1	-1E+10	1	-1E+10	1	-1E+10	1
4902549	59	C	03/28/2022	14:56	-131.662	47.541	0	403.20	0	4.7690	0	33.9170	0	26.846	0	399.444	0	73.3	4	23.5	4	-1E+10	1	-1E+10	1	-1E+10	1	-1E+10	1	-1E+10	1	-1E+10	1
4902549	59	C	03/28/2022	14:56	-131.662	47.541	0	407.90	0	4.7520	0	33.9200	0	26.850	0	404.096	0	71.4	4	22.9	4	-1E+10	1	-1E+10	1	-1E+10	1	-1E+10	1	-1E+10	1	-1E+10	1
4902549	59	C	03/28/2022	14:56	-131.662	47.541	0	412.60	0	4.7090	0	33.9270	0	26.861	0	408.747	0	69.5	4	22.3	4	-1E+10	1	-1E+10	1	-1E+10	1	-1E+10	1	-1E+10	1	-1E+10	1
4902549	59	C	03/28/2022	14:56	-131.662	47.541	0	417.70	0	4.6780	0	33.9330	0	26.869	0	413.794	0	67.6	4	21.7	4	-1E+10	1	-1E+10	1	-1E+10	1	-1E+10	1	-1E+10	1	-1E+10	1
4902549	59	C	03/28/2022	14:56	-131.662	47.541	0	422.90	0	4.6300	0	33.9380	0	26.878	0	418.941	0	66.3	4	21.2	4	-1E+10	1	-1E+10	1	-1E+10	1	-1E+10	1	-1E+10	1	-1E+10	1
4902549	59	C	03/28/2022	14:56	-131.662	47.541	0	428.20	0	4.6100	0	33.9400	0	26.882	0	424.185	0	65.5	4	20.9	4	-1E+10	1	-1E+10	1	-1E+10	1	-1E+10	1	-1E+10	1	-1E+10	1
4902549	59	C	03/28/2022	14:56	-131.662	47.541	0	432.80	0	4.6020	0	33.9420	0	26.885	0	428.738	0	64.7	4	20.7	4	-1E+10	1	-1E+10	1	-1E+10	1	-1E+10	1	-1E+10	1	-1E+10	1
4902549	59	C	03/28/2022	14:56	-131.662	47.541	0	437.50	0	4.6010	0	33.9450	0	26.887	0	433.389	0	63.5	4	20.3	4	-1E+10	1	-1E+10	1	-1E+10	1	-1E+10	1	-1E+10	1	-1E+10	1
4902549	59	C	03/28/2022	14:56	-131.662	47.541	0	442.60	0	4.5760	0	33.9550	0	26.898	0	438.435	0	62.0	4	19.8	4	-1E+10	1	-1E+10	1	-1E+10	1	-1E+10	1	-1E+10	1	-1E+10	1
4902549	59	C	03/28/2022	14:56	-131.662	47.541	0	447.70	0	4.5610	0	33.9570	0	26.901	0	443.482	0	60.7	4	19.4	4	-1E+10	1	-1E+10	1	-1E+10	1	-1E+10	1	-1E+10	1	-1E+10	1
4902549	59	C	03/28/2022	14:56	-131.662	47.541	0	452.80	0	4.5430	0	33.9590	0	26.905	0	448.528	0	59.2	4	18.9	4	-1E+10	1	-1E+10	1	-1E+10	1	-1E+10	1	-1E+10	1	-1E+10	1
4902549	59	C	03/28/2022	14:56	-131.662	47.541	0	457.90	0	4.5230	0	33.9630	0	26.910	0	453.575	0	57.4	4	18.3	4	-1E+10	1	-1E+10	1	-1E+10	1	-1E+10	1	-1E+10	1	-1E+10	1
4902549	59	C	03/28/2022	14:56	-131.662	47.541	0	463.00	0	4.4900	0	33.9680	0	26.918	0	458.621	0	55.2	4	17.6	4	-1E+10	1	-1E+10	1	-1E+10	1	-1E+10	1	-1E+10	1	-1E+10	1
4902549	59	C	03/28/2022	14:56	-131.662	47.541	0	468.20	0	4.4600	0	33.9730	0	26.925	0	463.766	0	53.6	4	17.1	4	-1E+10	1	-1E+10	1	-1E+10	1	-1E+10	1	-1E+10	1	-1E+10	1
4902549	59	C	03/28/2022	14:56	-131.662	47.541	0	473.30	0	4.4320	0	33.9800	0	26.933	0	468.812	0	52.1	4	16.6	4	-1E+10	1	-1E+10	1	-1E+10	1	-1E+10	1	-1E+10	1	-1E+10	1
4902549	59	C	03/28/2022	14:56	-131.662	47.541	0	477.70	0	4.4240	0	33.9830	0	26.937	0	473.165	0	50.3	4	16.0	4	-1E+10	1	-1E+10	1	-1E+10	1	-1E+10	1	-1E+10	1	-1E+10	1
4902549	59	C	03/28/2022	14:56	-131.662	47.541	0	482.90	0	4.4010	0	33.9890	0	26.944	0	478.310	0	48.1	4	15.3	4	-1E+10	1	-1E+10	1	-1E+10	1	-1E+10	1	-1E+10	1	-1E+10	1
4902549	59	C	03/28/2022	14:56	-131.662	47.541	0	488.20	0	4.3810	0	33.9950	0	26.951	0	483.553	0	46.3	4	14.7	4	-1E+10	1	-1E+10	1	-1E+10	1	-1E+10	1	-1E+10	1	-1E+10	1
4902549	59	C	03/28/2022	14:56	-131.662	47.541	0	493.20	0	4.3600	0	34.0050	0	26.961	0	488.500	0	45.3	4	14.4	4	-1E+10	1	-1E+10	1	-1E+10	1	-1E+10	1	-1E+10	1	-1E+10	1
4902549	59	C	03/28/2022	14:56	-131.662	47.541	0	498.00	0	4.3520	0	34.0080	0	26.964	0	493.248	0	44.8	4	14.3	4	-1E+10	1	-1E+10	1	-1E+10	1	-1E+10	1	-1E+10	1	-1E+10	1
4902549	59	C	03/28/2022	14:56	-131.662	47.541	0	503.00	0	4.3480	0	34.0090	0	26.966	0	498.195	0	44.3	4	14.1	4	-1E+10	1	-1E+10	1	-1E+10	1	-1E+10	1	-1E+10	1	-1E+10	1
4902549	59	C	03/28/2022	14:56	-131.662	47.541	0	508.00	0	4.3430	0	34.0100	0	26.967	0	503.141	0	43.4	4	13.8	4	-1E+10	1	-1E+10	1	-1E+10	1	-1E+10	1	-1E+10	1	-1E+10	1
4902549	59	C	03/28/2022	14:56	-131.662	47.541	0	513.00	0	4.3340	0	34.0130	0	26.970	0	508.087	0	42.4	4	13.5	4	-1E+10	1	-1E+10	1	-1E+10	1	-1E+10	1	-1E+10	1	-1E+10	1
4902549	59	C	03/28/2022	14:56	-131.662	47.541	0	518.20	0	4.3200	0	34.0180	0	26.976	0	513.231	0	41.2	4	13.1	4	-1E+10	1	-1E+10	1	-1E+10	1	-1E+10	1	-1E+10	1	-1E+10	1
4902549	59	C	03/28/2022	14:56	-131.662	47.541	0	523.00	0	4.3050	0	34.0230	0	26.981	0	517.979	0	40.1	4	12.7	4	-1E+10	1	-1E+10	1	-1E+10	1	-1E+10	1	-1E+10	1	-1E+10	1
4902549	59	C	03/28/2022	14:56	-131.662	47.541	0	527.80	0	4.2940	0	34.0270	0	26.986	0	522.726	0	38.7	4	12.3	4	-1E+10	1	-1E+10	1	-1E+10	1	-1E+10	1	-1E+10	1	-1E+10	1
4902549	59	C	03/28/2022	14:56	-131.662	47.541	0	532.70	0	4.2750	0	34.0340	0	26.993	0	527.573	0	37.3	4	11.8	4	-1E+10	1	-1E+10	1	-1E+10	1	-1E+10	1	-1E+10	1	-1E+10	1
4902549	59	C	03/28/2022	14:56	-131.662	47.541	0	537.60	0	4.2550	0	34.0410	0	27.001	0	532.420	0	36.0	4	11.4	4	-1E+10	1	-1E+10	1	-1E+10	1	-1E+10	1	-1E+10	1	-1E+10	1
4902549	59	C	03/28/2022	14:56	-131.662	47.541	0	542.60	0	4.2410	0	34.0460	0	27.007	0	537.365	0	34.6	4	11.0	4	-1E+10	1	-1E+10	1	-1E+10	1	-1E+10	1	-1E+10	1	-1E+10	1
4902549	59	C	03/28/2022	14:56	-131.662	47.541	0	547.70	0	4.2190	0	34.0540	0	27.015	0	542.409	0	33.0	4	10.5	4	-1E+10	1	-1E+10	1	-1E+10	1	-1E+10	1	-1E+10	1	-1E+10	1
4902549	59	C	03/28/2022	14:56	-131.662	47.541	0	553.00	0	4.1970	0	34.0620	0	27.024	0	547.651	0	31.9	4	10.1	4	-1E+10	1	-1E+10	1	-1E+10	1	-1E+10	1	-1E+10	1	-1E+10	1
4902549	59	C	03/28/2022	14:56	-131.662	47.541	0	557.80	0	4.1830	0	34.0670	0	27.029	0	552.398	0	31.1	4	9.9	4	-1E+10	1	-1E+10	1	-1E+10	1	-1E+10	1	-1E+10	1	-1E+10	1
4902549	59	C	03/28/2022	14:56	-131.662	47.541	0	562.60	0	4.1710	0	34.0710	0	27.034	0	557.145	0	30.3	4	9.6	4	-1E+10	1	-1E+10	1	-1E+10	1	-1E+10	1	-1E+10	1	-1E+10	1
4902549	59	C	03/28/2022	14:56	-131.662	47.541	0	567.90	0	4.1560	0	34.0770	0	27.040	0	562.387	0	29.6	4	9.4	4	-1E+10	1	-1E+10	1	-1E+10	1	-1E+10	1	-1E+10	1	-1E+10	1
4902549	59	C	03/28/2022	14:56	-131.662	47.541	0	573.10	0	4.1500	0	34.0800	0	27.043	0	567.529	0	29.0	4	9.2	4	-1E+10	1	-1E+10	1	-1E+10	1	-1E+10	1	-1E+10	1	-1E+10	1
4902549	59	C	03/28/2022	14:56	-131.662	47.541	0	577.90	0	4.1400	0	34.0840	0	27.047	0	572.276	0	28.5	4	9.0	4	-1E+10	1	-1E+10	1	-1E+10	1	-1E+10	1	-1E+10	1	-1E+10	1
4902549	59	C	03/28/2022	14:56	-131.662	47.541	0	582.60	0	4.1350	0	34.0850	0	27.049	0	576.924	0	28.2	4	8.9	4	-1E+10	1	-1E+10	1	-1E+10	1	-1E+10	1	-1E+10	1	-1E+10	1
4902549	59	C	03/28/2022	14:56	-131.662	47.541	0	587.90	0	4.1320	0	34.0870	0	27.051	0	582.165	0	27.6	4	8.7	4	-1E+10	1	-1E+10	1	-1E+10	1	-1E+10	1	-1E+10	1	-1E+10	1
4902549	59	C	03/28/2022	14:56	-131.662	47.541	0	593.10	0	4.1280	0	34.0880	0	27.052	0	587.307	0	26.8	4	8.5	4	-1E+10	1	-1E+10	1	-1E+10	1	-1E+10	1	-1E+10	1	-1E+10	1
4902549	59	C	03/28/2022	14:56	-131.662	47.541	0	597.90	0	4.1130	0	34.0930	0	27.058	0	592.053	0	25.8	4	8.2	4	-1E+10	1	-1E+10	1	-1E+10	1	-1E+10	1	-1E+10	1	-1E+10	1
4902549	59	C	03/28/2022	14:56	-131.662	47.541	0	602.60	0	4.0970	0	34.1000	0	27.065	0	596.700	0	24.9	4	7.9	4	-1E+10	1	-1E+10	1	-1E+10	1	-1E+10	1	-1E+10	1	-1E+10	1
4902549	59	C	03/28/2022	14:56	-131.662	47.541	0	608.00	0	4.0840	0	34.1050	0	27.070	0	602.039	0	24.1	4	7.6	4	-1E+10	1	-1E+10	1	-1E+10	1	-1E+10	1	-1E+10	1	-1E+10	1
4902549	59	C	03/28/2022	14:56	-131.662	47.541	0	612.80	0	4.0710	0	34.1100	0	27.076	0	606.785	0	23.4	4	7.4	4	-1E+10	1	-1E+10	1	-1E+10	1	-1E+10	1	-1E+10	1	-1E+10	1
4902549	59	C	03/28/2022	14:56	-131.662	47.541	0	617.50	0	4.0640	0	34.1130	0	27.079	0	611.432	0	22.8	4	7.2	4	-1E+10	1	-1E+10	1	-1E+10	1	-1E+10	1	-1E+10	1	-1E+10	1
4902549	59	C	03/28/2022	14:56	-131.662	47.541	0	622.70	0	4.0490	0	34.1180	0	27.084	0	616.574	0	22.0	4	7.0	4	-1E+10	1	-1E+10	1	-1E+10	1	-1E+10	1	-1E+10	1	-1E+10	1
4902549	59	C	03/28/2022	14:56	-131.662	47.541	0	627.80	0	4.0370	0	34.1220	0	27.089	0	621.616	0	21.1	4	6.7	4	-1E+10	1	-1E+10	1	-1E+10	1	-1E+10	1	-1E+10	1	-1E+10	1
4902549	59	C	03/28/2022	14:56	-131.662	47.541	0	632.90	0	4.0170	0	34.1300	0	27.097	0	626.658	0	20.2	4	6.4	4	-1E+10	1	-1E+10	1	-1E+10	1	-1E+10	1	-1E+10	1	-1E+10	1
4902549	59	C	03/28/2022	14:56	-131.662	47.541	0	637.90	0	3.9950	0	34.1380	0	27.106	0	631.601	0	19.5	4	6.1	4	-1E+10	1	-1E+10	1	-1E+10	1	-1E+10	1	-1E+10	1	-1E+10	1
4902549	59	C	03/28/2022	14:56	-131.662	47.541	0	643.00	0	3.9820	0	34.1430	0	27.111	0	636.643	0	19.0	4	6.0	4	-1E+10	1	-1E+10	1	-1E+10	1	-1E+10	1	-1E+10	1	-1E+10	1
4902549	59	C	03/28/2022	14:56	-131.662	47.541	0	648.00	0	3.9760	0	34.1450	0	27.113	0	641.586	0	18.6	4	5.9	4	-1E+10	1	-1E+10	1	-1E+10	1	-1E+10	1	-1E+10	1	-1E+10	1
4902549	59	C	03/28/2022	14:56	-131.662	47.541	0	652.90	0	3.9600	0	34.1480	0	27.117	0	646.430	0	17.9	4	5.7	4	-1E+10	1	-1E+10	1	-1E+10	1	-1E+10	1	-1E+10	1	-1E+10	1
4902549	59	C	03/28/2022	14:56	-131.662	47.541	0	657.80	0	3.9400	0	34.1540	0	27.124	0	651.273	0	17.3	4	5.4	4	-1E+10	1	-1E+10	1	-1E+10	1	-1E+10	1	-1E+10	1	-1E+10	1
4902549	59	C	03/28/2022	14:56	-131.662	47.541	0	662.80	0	3.9220	0	34.1610	0	27.132	0	656.216	0	16.6	4	5.2	4	-1E+10	1	-1E+10	1	-1E+10	1	-1E+10	1	-1E+10	1	-1E+10	1
4902549	59	C	03/28/2022	14:56	-131.662	47.541	0	667.80	0	3.9080	0	34.1650	0	27.136	0	661.158	0	15.9	4	5.0	4	-1E+10	1	-1E+10	1	-1E+10	1	-1E+10	1	-1E+10	1	-1E+10	1
4902549	59	C	03/28/2022	14:56	-131.662	47.541	0	673.10	0	3.8790	0	34.1740	0	27.146	0	666.397	0	15.3	4	4.8	4	-1E+10	1	-1E+10	1	-1E+10	1	-1E+10	1	-1E+10	1	-1E+10	1
4902549	59	C	03/28/2022	14:56	-131.662	47.541	0	678.00	0	3.8560	0	34.1810	0	27.154	0	671.240	0	14.9	4	4.7	4	-1E+10	1	-1E+10	1	-1E+10	1	-1E+10	1	-1E+10	1	-1E+10	1
4902549	59	C	03/28/2022	14:56	-131.662	47.541	0	682.80	0	3.8420	0	34.1850	0	27.159	0	675.985	0	14.6	4	4.6	4	-1E+10	1	-1E+10	1	-1E+10	1	-1E+10	1	-1E+10	1	-1E+10	1
4902549	59	C	03/28/2022	14:56	-131.662	47.541	0	687.60	0	3.8330	0	34.1870	0	27.161	0	680.729	0	14.4	4	4.5	4	-1E+10	1	-1E+10	1	-1E+10	1	-1E+10	1	-1E+10	1	-1E+10	1
4902549	59	C	03/28/2022	14:56	-131.662	47.541	0	692.60	0	3.8180	0	34.1910	0	27.166	0	685.671	0	14.0	4	4.4	4	-1E+10	1	-1E+10	1	-1E+10	1	-1E+10	1	-1E+10	1	-1E+10	1
4902549	59	C	03/28/2022	14:56	-131.662	47.541	0	697.70	0	3.8070	0	34.1940	0	27.170	0	690.711	0	13.7	4	4.3	4	-1E+10	1	-1E+10	1	-1E+10	1	-1E+10	1	-1E+10	1	-1E+10	1
4902549	59	C	03/28/2022	14:56	-131.662	47.541	0	703.00	0	3.7900	0	34.1980	0	27.175	0	695.950	0	13.3	4	4.2	4	-1E+10	1	-1E+10	1	-1E+10	1	-1E+10	1	-1E+10	1	-1E+10	1
4902549	59	C	03/28/2022	14:56	-131.662	47.541	0	708.00	0	3.7690	0	34.2040	0	27.181	0	700.891	0	13.0	4	4.1	4	-1E+10	1	-1E+10	1	-1E+10	1	-1E+10	1	-1E+10	1	-1E+10	1
4902549	59	C	03/28/2022	14:56	-131.662	47.541	0	712.70	0	3.7600	0	34.2060	0	27.184	0	705.536	0	12.8	4	4.0	4	-1E+10	1	-1E+10	1	-1E+10	1	-1E+10	1	-1E+10	1	-1E+10	1
4902549	59	C	03/28/2022	14:56	-131.662	47.541	0	717.90	0	3.7490	0	34.2100	0	27.188	0	710.675	0	12.6	4	4.0	4	-1E+10	1	-1E+10	1	-1E+10	1	-1E+10	1	-1E+10	1	-1E+10	1
4902549	59	C	03/28/2022	14:56	-131.662	47.541	0	723.20	0	3.7420	0	34.2110	0	27.190	0	715.912	0	12.4	4	3.9	4	-1E+10	1	-1E+10	1	-1E+10	1	-1E+10	1	-1E+10	1	-1E+10	1
4902549	59	C	03/28/2022	14:56	-131.662	47.541	0	728.00	0	3.7310	0	34.2140	0	27.193	0	720.656	0	12.1	4	3.8	4	-1E+10	1	-1E+10	1	-1E+10	1	-1E+10	1	-1E+10	1	-1E+10	1
4902549	59	C	03/28/2022	14:56	-131.662	47.541	0	733.00	0	3.7160	0	34.2180	0	27.198	0	725.596	0	11.9	4	3.7	4	-1E+10	1	-1E+10	1	-1E+10	1	-1E+10	1	-1E+10	1	-1E+10	1
4902549	59	C	03/28/2022	14:56	-131.662	47.541	0	737.80	0	3.7090	0	34.2210	0	27.201	0	730.340	0	11.8	4	3.7	4	-1E+10	1	-1E+10	1	-1E+10	1	-1E+10	1	-1E+10	1	-1E+10	1
4902549	59	C	03/28/2022	14:56	-131.662	47.541	0	742.70	0	3.7040	0	34.2220	0	27.202	0	735.181	0	11.6	4	3.6	4	-1E+10	1	-1E+10	1	-1E+10	1	-1E+10	1	-1E+10	1	-1E+10	1
4902549	59	C	03/28/2022	14:56	-131.662	47.541	0	747.60	0	3.6950	0	34.2240	0	27.205	0	740.023	0	11.5	4	3.6	4	-1E+10	1	-1E+10	1	-1E+10	1	-1E+10	1	-1E+10	1	-1E+10	1
4902549	59	C	03/28/2022	14:56	-131.662	47.541	0	752.90	0	3.6900	0	34.2260	0	27.207	0	745.260	0	11.3	4	3.6	4	-1E+10	1	-1E+10	1	-1E+10	1	-1E+10	1	-1E+10	1	-1E+10	1
4902549	59	C	03/28/2022	14:56	-131.662	47.541	0	758.20	0	3.6820	0	34.2290	0	27.210	0	750.497	0	11.1	4	3.5	4	-1E+10	1	-1E+10	1	-1E+10	1	-1E+10	1	-1E+10	1	-1E+10	1
4902549	59	C	03/28/2022	14:56	-131.662	47.541	0	763.10	0	3.6760	0	34.2300	0	27.212	0	755.338	0	10.9	4	3.4	4	-1E+10	1	-1E+10	1	-1E+10	1	-1E+10	1	-1E+10	1	-1E+10	1
4902549	59	C	03/28/2022	14:56	-131.662	47.541	0	767.90	0	3.6650	0	34.2340	0	27.216	0	760.080	0	10.7	4	3.4	4	-1E+10	1	-1E+10	1	-1E+10	1	-1E+10	1	-1E+10	1	-1E+10	1
4902549	59	C	03/28/2022	14:56	-131.662	47.541	0	772.80	0	3.6580	0	34.2360	0	27.218	0	764.922	0	10.6	4	3.3	4	-1E+10	1	-1E+10	1	-1E+10	1	-1E+10	1	-1E+10	1	-1E+10	1
4902549	59	C	03/28/2022	14:56	-131.662	47.541	0	777.60	0	3.6530	0	34.2370	0	27.220	0	769.664	0	10.3	4	3.2	4	-1E+10	1	-1E+10	1	-1E+10	1	-1E+10	1	-1E+10	1	-1E+10	1
4902549	59	C	03/28/2022	14:56	-131.662	47.541	0	782.80	0	3.6340	0	34.2430	0	27.226	0	774.801	0	10.0	4	3.1	4	-1E+10	1	-1E+10	1	-1E+10	1	-1E+10	1	-1E+10	1	-1E+10	1
4902549	59	C	03/28/2022	14:56	-131.662	47.541	0	788.00	0	3.6180	0	34.2460	0	27.230	0	779.938	0	9.8	4	3.1	4	-1E+10	1	-1E+10	1	-1E+10	1	-1E+10	1	-1E+10	1	-1E+10	1
4902549	59	C	03/28/2022	14:56	-131.662	47.541	0	792.90	0	3.6060	0	34.2490	0	27.234	0	784.779	0	9.6	4	3.0	4	-1E+10	1	-1E+10	1	-1E+10	1	-1E+10	1	-1E+10	1	-1E+10	1
4902549	59	C	03/28/2022	14:56	-131.662	47.541	0	797.80	0	3.5990	0	34.2510	0	27.236	0	789.619	0	9.5	4	3.0	4	-1E+10	1	-1E+10	1	-1E+10	1	-1E+10	1	-1E+10	1	-1E+10	1
4902549	59	C	03/28/2022	14:56	-131.662	47.541	0	802.70	0	3.5830	0	34.2550	0	27.241	0	794.460	0	9.3	4	2.9	4	-1E+10	1	-1E+10	1	-1E+10	1	-1E+10	1	-1E+10	1	-1E+10	1
4902549	59	C	03/28/2022	14:56	-131.662	47.541	0	807.60	0	3.5770	0	34.2570	0	27.243	0	799.300	0	9.2	4	2.9	4	-1E+10	1	-1E+10	1	-1E+10	1	-1E+10	1	-1E+10	1	-1E+10	1
4902549	59	C	03/28/2022	14:56	-131.662	47.541	0	812.60	0	3.5710	0	34.2590	0	27.245	0	804.239	0	9.1	4	2.8	4	-1E+10	1	-1E+10	1	-1E+10	1	-1E+10	1	-1E+10	1	-1E+10	1
4902549	59	C	03/28/2022	14:56	-131.662	47.541	0	817.60	0	3.5600	0	34.2610	0	27.248	0	809.178	0	9.0	4	2.8	4	-1E+10	1	-1E+10	1	-1E+10	1	-1E+10	1	-1E+10	1	-1E+10	1
4902549	59	C	03/28/2022	14:56	-131.662	47.541	0	822.80	0	3.5490	0	34.2640	0	27.252	0	814.314	0	8.9	4	2.8	4	-1E+10	1	-1E+10	1	-1E+10	1	-1E+10	1	-1E+10	1	-1E+10	1
4902549	59	C	03/28/2022	14:56	-131.662	47.541	0	827.90	0	3.5410	0	34.2660	0	27.254	0	819.352	0	8.8	4	2.8	4	-1E+10	1	-1E+10	1	-1E+10	1	-1E+10	1	-1E+10	1	-1E+10	1
4902549	59	C	03/28/2022	14:56	-131.662	47.541	0	832.70	0	3.5340	0	34.2680	0	27.256	0	824.093	0	8.7	4	2.7	4	-1E+10	1	-1E+10	1	-1E+10	1	-1E+10	1	-1E+10	1	-1E+10	1
4902549	59	C	03/28/2022	14:56	-131.662	47.541	0	838.00	0	3.5190	0	34.2720	0	27.261	0	829.327	0	8.7	4	2.7	4	-1E+10	1	-1E+10	1	-1E+10	1	-1E+10	1	-1E+10	1	-1E+10	1
4902549	59	C	03/28/2022	14:56	-131.662	47.541	0	843.20	0	3.5080	0	34.2740	0	27.264	0	834.463	0	8.6	4	2.7	4	-1E+10	1	-1E+10	1	-1E+10	1	-1E+10	1	-1E+10	1	-1E+10	1
4902549	59	C	03/28/2022	14:56	-131.662	47.541	0	848.20	0	3.4990	0	34.2760	0	27.266	0	839.401	0	8.5	4	2.6	4	-1E+10	1	-1E+10	1	-1E+10	1	-1E+10	1	-1E+10	1	-1E+10	1
4902549	59	C	03/28/2022	14:56	-131.662	47.541	0	852.90	0	3.4860	0	34.2800	0	27.271	0	844.043	0	8.4	4	2.6	4	-1E+10	1	-1E+10	1	-1E+10	1	-1E+10	1	-1E+10	1	-1E+10	1
4902549	59	C	03/28/2022	14:56	-131.662	47.541	0	857.70	0	3.4830	0	34.2830	0	27.273	0	848.784	0	8.2	4	2.6	4	-1E+10	1	-1E+10	1	-1E+10	1	-1E+10	1	-1E+10	1	-1E+10	1
4902549	59	C	03/28/2022	14:56	-131.662	47.541	0	862.70	0	3.4810	0	34.2870	0	27.277	0	853.721	0	8.2	4	2.6	4	-1E+10	1	-1E+10	1	-1E+10	1	-1E+10	1	-1E+10	1	-1E+10	1
4902549	59	C	03/28/2022	14:56	-131.662	47.541	0	867.80	0	3.4660	0	34.2880	0	27.279	0	858.758	0	8.2	4	2.6	4	-1E+10	1	-1E+10	1	-1E+10	1	-1E+10	1	-1E+10	1	-1E+10	1
4902549	59	C	03/28/2022	14:56	-131.662	47.541	0	873.00	0	3.4510	0	34.2880	0	27.280	0	863.893	0	8.2	4	2.5	4	-1E+10	1	-1E+10	1	-1E+10	1	-1E+10	1	-1E+10	1	-1E+10	1
4902549	59	C	03/28/2022	14:56	-131.662	47.541	0	877.70	0	3.4440	0	34.2910	0	27.284	0	868.534	0	8.1	4	2.5	4	-1E+10	1	-1E+10	1	-1E+10	1	-1E+10	1	-1E+10	1	-1E+10	1
4902549	59	C	03/28/2022	14:56	-131.662	47.541	0	882.90	0	3.4380	0	34.2930	0	27.286	0	873.669	0	8.0	4	2.5	4	-1E+10	1	-1E+10	1	-1E+10	1	-1E+10	1	-1E+10	1	-1E+10	1
4902549	59	C	03/28/2022	14:56	-131.662	47.541	0	888.10	0	3.4320	0	34.2940	0	27.287	0	878.804	0	7.9	4	2.5	4	-1E+10	1	-1E+10	1	-1E+10	1	-1E+10	1	-1E+10	1	-1E+10	1
4902549	59	C	03/28/2022	14:56	-131.662	47.541	0	892.90	0	3.4130	0	34.3000	0	27.294	0	883.543	0	7.8	4	2.4	4	-1E+10	1	-1E+10	1	-1E+10	1	-1E+10	1	-1E+10	1	-1E+10	1
4902549	59	C	03/28/2022	14:56	-131.662	47.541	0	897.60	0	3.4110	0	34.3010	0	27.295	0	888.184	0	7.8	4	2.4	4	-1E+10	1	-1E+10	1	-1E+10	1	-1E+10	1	-1E+10	1	-1E+10	1
4902549	59	C	03/28/2022	14:56	-131.662	47.541	0	902.50	0	3.4110	0	34.3010	0	27.295	0	893.022	0	7.8	4	2.4	4	-1E+10	1	-1E+10	1	-1E+10	1	-1E+10	1	-1E+10	1	-1E+10	1
4902549	59	C	03/28/2022	14:56	-131.662	47.541	0	907.50	0	3.4040	0	34.3020	0	27.296	0	897.959	0	7.7	4	2.4	4	-1E+10	1	-1E+10	1	-1E+10	1	-1E+10	1	-1E+10	1	-1E+10	1
4902549	59	C	03/28/2022	14:56	-131.662	47.541	0	912.50	0	3.3930	0	34.3040	0	27.299	0	902.896	0	7.7	4	2.4	4	-1E+10	1	-1E+10	1	-1E+10	1	-1E+10	1	-1E+10	1	-1E+10	1
4902549	59	C	03/28/2022	14:56	-131.662	47.541	0	917.50	0	3.3880	0	34.3060	0	27.301	0	907.832	0	7.6	4	2.4	4	-1E+10	1	-1E+10	1	-1E+10	1	-1E+10	1	-1E+10	1	-1E+10	1
4902549	59	C	03/28/2022	14:56	-131.662	47.541	0	922.60	0	3.3850	0	34.3070	0	27.302	0	912.867	0	7.5	4	2.3	4	-1E+10	1	-1E+10	1	-1E+10	1	-1E+10	1	-1E+10	1	-1E+10	1
4902549	59	C	03/28/2022	14:56	-131.662	47.541	0	927.70	0	3.3720	0	34.3100	0	27.306	0	917.902	0	7.5	4	2.3	4	-1E+10	1	-1E+10	1	-1E+10	1	-1E+10	1	-1E+10	1	-1E+10	1
4902549	59	C	03/28/2022	14:56	-131.662	47.541	0	932.60	0	3.3590	0	34.3130	0	27.309	0	922.740	0	7.4	4	2.3	4	-1E+10	1	-1E+10	1	-1E+10	1	-1E+10	1	-1E+10	1	-1E+10	1
4902549	59	C	03/28/2022	14:56	-131.662	47.541	0	937.70	0	3.3430	0	34.3170	0	27.314	0	927.775	0	7.4	4	2.3	4	-1E+10	1	-1E+10	1	-1E+10	1	-1E+10	1	-1E+10	1	-1E+10	1
4902549	59	C	03/28/2022	14:56	-131.662	47.541	0	942.70	0	3.3320	0	34.3190	0	27.317	0	932.711	0	7.3	4	2.3	4	-1E+10	1	-1E+10	1	-1E+10	1	-1E+10	1	-1E+10	1	-1E+10	1
4902549	59	C	03/28/2022	14:56	-131.662	47.541	0	947.70	0	3.3240	0	34.3220	0	27.320	0	937.646	0	7.3	4	2.3	4	-1E+10	1	-1E+10	1	-1E+10	1	-1E+10	1	-1E+10	1	-1E+10	1
4902549	59	C	03/28/2022	14:56	-131.662	47.541	0	952.80	0	3.3090	0	34.3250	0	27.324	0	942.681	0	7.2	4	2.2	4	-1E+10	1	-1E+10	1	-1E+10	1	-1E+10	1	-1E+10	1	-1E+10	1
4902549	59	C	03/28/2022	14:56	-131.662	47.541	0	957.90	0	3.3010	0	34.3270	0	27.326	0	947.715	0	7.2	4	2.2	4	-1E+10	1	-1E+10	1	-1E+10	1	-1E+10	1	-1E+10	1	-1E+10	1
4902549	59	C	03/28/2022	14:56	-131.662	47.541	0	963.00	0	3.2930	0	34.3290	0	27.329	0	952.749	0	7.1	4	2.2	4	-1E+10	1	-1E+10	1	-1E+10	1	-1E+10	1	-1E+10	1	-1E+10	1
4902549	59	C	03/28/2022	14:56	-131.662	47.541	0	968.00	0	3.2820	0	34.3320	0	27.332	0	957.685	0	7.1	4	2.2	4	-1E+10	1	-1E+10	1	-1E+10	1	-1E+10	1	-1E+10	1	-1E+10	1
4902549	59	C	03/28/2022	14:56	-131.662	47.541	0	973.00	0	3.2720	0	34.3350	0	27.335	0	962.620	0	7.0	4	2.2	4	-1E+10	1	-1E+10	1	-1E+10	1	-1E+10	1	-1E+10	1	-1E+10	1
4902549	59	C	03/28/2022	14:56	-131.662	47.541	0	978.00	0	3.2680	0	34.3360	0	27.337	0	967.555	0	7.0	4	2.2	4	-1E+10	1	-1E+10	1	-1E+10	1	-1E+10	1	-1E+10	1	-1E+10	1
4902549	59	C	03/28/2022	14:56	-131.662	47.541	0	982.90	0	3.2650	0	34.3380	0	27.339	0	972.391	0	7.0	4	2.2	4	-1E+10	1	-1E+10	1	-1E+10	1	-1E+10	1	-1E+10	1	-1E+10	1
4902549	59	C	03/28/2022	14:56	-131.662	47.541	0	987.90	0	3.2610	0	34.3380	0	27.339	0	977.326	0	7.0	4	2.2	4	-1E+10	1	-1E+10	1	-1E+10	1	-1E+10	1	-1E+10	1	-1E+10	1
4902549	59	C	03/28/2022	14:56	-131.662	47.541	0	992.90	0	3.2540	0	34.3410	0	27.342	0	982.261	0	6.9	4	2.1	4	-1E+10	1	-1E+10	1	-1E+10	1	-1E+10	1	-1E+10	1	-1E+10	1
4902549	59	C	03/28/2022	14:56	-131.662	47.541	0	997.80	0	3.2490	0	34.3420	0	27.343	0	987.097	0	6.9	4	2.1	4	-1E+10	1	-1E+10	1	-1E+10	1	-1E+10	1	-1E+10	1	-1E+10	1
4902549	59	C	03/28/2022	14:56	-131.662	47.541	0	1005.20	0	3.2380	0	34.3460	0	27.348	0	994.400	0	6.8	4	2.1	4	-1E+10	1	-1E+10	1	-1E+10	1	-1E+10	1	-1E+10	1	-1E+10	1
4902549	59	C	03/28/2022	14:56	-131.662	47.541	0	1015.20	0	3.2170	0	34.3520	0	27.354	0	1004.269	0	6.8	4	2.1	4	-1E+10	1	-1E+10	1	-1E+10	1	-1E+10	1	-1E+10	1	-1E+10	1
4902549	59	C	03/28/2022	14:56	-131.662	47.541	0	1025.40	0	3.1940	0	34.3590	0	27.362	0	1014.334	0	6.7	4	2.1	4	-1E+10	1	-1E+10	1	-1E+10	1	-1E+10	1	-1E+10	1	-1E+10	1
4902549	59	C	03/28/2022	14:56	-131.662	47.541	0	1035.70	0	3.1670	0	34.3660	0	27.370	0	1024.498	0	6.7	4	2.1	4	-1E+10	1	-1E+10	1	-1E+10	1	-1E+10	1	-1E+10	1	-1E+10	1
4902549	59	C	03/28/2022	14:56	-131.662	47.541	0	1045.60	0	3.1470	0	34.3710	0	27.376	0	1034.266	0	6.8	4	2.1	4	-1E+10	1	-1E+10	1	-1E+10	1	-1E+10	1	-1E+10	1	-1E+10	1
4902549	59	C	03/28/2022	14:56	-131.662	47.541	0	1055.80	0	3.1220	0	34.3780	0	27.384	0	1044.330	0	6.9	4	2.1	4	-1E+10	1	-1E+10	1	-1E+10	1	-1E+10	1	-1E+10	1	-1E+10	1
4902549	59	C	03/28/2022	14:56	-131.662	47.541	0	1065.60	0	3.0990	0	34.3830	0	27.390	0	1053.999	0	7.0	4	2.2	4	-1E+10	1	-1E+10	1	-1E+10	1	-1E+10	1	-1E+10	1	-1E+10	1
4902549	59	C	03/28/2022	14:56	-131.662	47.541	0	1075.50	0	3.0780	0	34.3880	0	27.396	0	1063.766	0	7.1	4	2.2	4	-1E+10	1	-1E+10	1	-1E+10	1	-1E+10	1	-1E+10	1	-1E+10	1
4902549	59	C	03/28/2022	14:56	-131.662	47.541	0	1085.50	0	3.0720	0	34.3930	0	27.401	0	1073.632	0	7.2	4	2.2	4	-1E+10	1	-1E+10	1	-1E+10	1	-1E+10	1	-1E+10	1	-1E+10	1
4902549	59	C	03/28/2022	14:56	-131.662	47.541	0	1095.60	0	3.0640	0	34.3960	0	27.404	0	1083.595	0	7.3	4	2.2	4	-1E+10	1	-1E+10	1	-1E+10	1	-1E+10	1	-1E+10	1	-1E+10	1
4902549	59	C	03/28/2022	14:56	-131.662	47.541	0	1105.50	0	3.0530	0	34.3990	0	27.407	0	1093.361	0	7.4	4	2.3	4	-1E+10	1	-1E+10	1	-1E+10	1	-1E+10	1	-1E+10	1	-1E+10	1
4902549	59	C	03/28/2022	14:56	-131.662	47.541	0	1115.60	0	3.0380	0	34.4040	0	27.413	0	1103.324	0	7.5	4	2.3	4	-1E+10	1	-1E+10	1	-1E+10	1	-1E+10	1	-1E+10	1	-1E+10	1
4902549	59	C	03/28/2022	14:56	-131.662	47.541	0	1125.50	0	3.0250	0	34.4060	0	27.416	0	1113.089	0	7.6	4	2.4	4	-1E+10	1	-1E+10	1	-1E+10	1	-1E+10	1	-1E+10	1	-1E+10	1
4902549	59	C	03/28/2022	14:56	-131.662	47.541	0	1135.10	0	2.9970	0	34.4100	0	27.422	0	1122.557	0	7.8	4	2.4	4	-1E+10	1	-1E+10	1	-1E+10	1	-1E+10	1	-1E+10	1	-1E+10	1
4902549	59	C	03/28/2022	14:56	-131.662	47.541	0	1144.90	0	2.9850	0	34.4130	0	27.425	0	1132.222	0	7.9	4	2.4	4	-1E+10	1	-1E+10	1	-1E+10	1	-1E+10	1	-1E+10	1	-1E+10	1
4902549	59	C	03/28/2022	14:56	-131.662	47.541	0	1155.00	0	2.9660	0	34.4140	0	27.428	0	1142.183	0	8.0	4	2.5	4	-1E+10	1	-1E+10	1	-1E+10	1	-1E+10	1	-1E+10	1	-1E+10	1
4902549	59	C	03/28/2022	14:56	-131.662	47.541	0	1165.00	0	2.9530	0	34.4170	0	27.431	0	1152.045	0	8.2	4	2.5	4	-1E+10	1	-1E+10	1	-1E+10	1	-1E+10	1	-1E+10	1	-1E+10	1
4902549	59	C	03/28/2022	14:56	-131.662	47.541	0	1175.20	0	2.9410	0	34.4200	0	27.435	0	1162.103	0	8.4	4	2.6	4	-1E+10	1	-1E+10	1	-1E+10	1	-1E+10	1	-1E+10	1	-1E+10	1
4902549	59	C	03/28/2022	14:56	-131.662	47.541	0	1185.50	0	2.9240	0	34.4240	0	27.440	0	1172.260	0	8.7	4	2.7	4	-1E+10	1	-1E+10	1	-1E+10	1	-1E+10	1	-1E+10	1	-1E+10	1
4902549	59	C	03/28/2022	14:56	-131.662	47.541	0	1195.40	0	2.9040	0	34.4280	0	27.445	0	1182.021	0	8.8	4	2.7	4	-1E+10	1	-1E+10	1	-1E+10	1	-1E+10	1	-1E+10	1	-1E+10	1
4902549	59	C	03/28/2022	14:56	-131.662	47.541	0	1205.60	0	2.8920	0	34.4300	0	27.447	0	1192.078	0	9.0	4	2.8	4	-1E+10	1	-1E+10	1	-1E+10	1	-1E+10	1	-1E+10	1	-1E+10	1
4902549	59	C	03/28/2022	14:56	-131.662	47.541	0	1215.60	0	2.8800	0	34.4320	0	27.450	0	1201.937	0	9.1	4	2.8	4	-1E+10	1	-1E+10	1	-1E+10	1	-1E+10	1	-1E+10	1	-1E+10	1
4902549	59	C	03/28/2022	14:56	-131.662	47.541	0	1225.60	0	2.8710	0	34.4330	0	27.452	0	1211.796	0	9.2	4	2.8	4	-1E+10	1	-1E+10	1	-1E+10	1	-1E+10	1	-1E+10	1	-1E+10	1
4902549	59	C	03/28/2022	14:56	-131.662	47.541	0	1235.70	0	2.8450	0	34.4350	0	27.456	0	1221.753	0	9.4	4	2.9	4	-1E+10	1	-1E+10	1	-1E+10	1	-1E+10	1	-1E+10	1	-1E+10	1
4902549	59	C	03/28/2022	14:56	-131.662	47.541	0	1245.40	0	2.8270	0	34.4350	0	27.457	0	1231.315	0	9.5	4	2.9	4	-1E+10	1	-1E+10	1	-1E+10	1	-1E+10	1	-1E+10	1	-1E+10	1
4902549	59	C	03/28/2022	14:56	-131.662	47.541	0	1255.30	0	2.8150	0	34.4370	0	27.460	0	1241.074	0	9.8	4	3.0	4	-1E+10	1	-1E+10	1	-1E+10	1	-1E+10	1	-1E+10	1	-1E+10	1
4902549	59	C	03/28/2022	14:56	-131.662	47.541	0	1265.60	0	2.7940	0	34.4420	0	27.466	0	1251.227	0	10.1	4	3.1	4	-1E+10	1	-1E+10	1	-1E+10	1	-1E+10	1	-1E+10	1	-1E+10	1
4902549	59	C	03/28/2022	14:56	-131.662	47.541	0	1275.40	0	2.7790	0	34.4440	0	27.469	0	1260.886	0	10.3	4	3.2	4	-1E+10	1	-1E+10	1	-1E+10	1	-1E+10	1	-1E+10	1	-1E+10	1
4902549	59	C	03/28/2022	14:56	-131.662	47.541	0	1285.50	0	2.7680	0	34.4460	0	27.471	0	1270.841	0	10.5	4	3.2	4	-1E+10	1	-1E+10	1	-1E+10	1	-1E+10	1	-1E+10	1	-1E+10	1
4902549	59	C	03/28/2022	14:56	-131.662	47.541	0	1295.70	0	2.7420	0	34.4480	0	27.475	0	1280.893	0	10.8	4	3.3	4	-1E+10	1	-1E+10	1	-1E+10	1	-1E+10	1	-1E+10	1	-1E+10	1
4902549	59	C	03/28/2022	14:56	-131.662	47.541	0	1305.60	0	2.7290	0	34.4490	0	27.477	0	1290.650	0	11.1	4	3.4	4	-1E+10	1	-1E+10	1	-1E+10	1	-1E+10	1	-1E+10	1	-1E+10	1
4902549	59	C	03/28/2022	14:56	-131.662	47.541	0	1315.30	0	2.7050	0	34.4540	0	27.483	0	1300.209	0	11.5	4	3.5	4	-1E+10	1	-1E+10	1	-1E+10	1	-1E+10	1	-1E+10	1	-1E+10	1
4902549	59	C	03/28/2022	14:56	-131.662	47.541	0	1325.30	0	2.6930	0	34.4570	0	27.487	0	1310.063	0	11.8	4	3.6	4	-1E+10	1	-1E+10	1	-1E+10	1	-1E+10	1	-1E+10	1	-1E+10	1
4902549	59	C	03/28/2022	14:56	-131.662	47.541	0	1335.30	0	2.6860	0	34.4590	0	27.489	0	1319.917	0	12.1	4	3.7	4	-1E+10	1	-1E+10	1	-1E+10	1	-1E+10	1	-1E+10	1	-1E+10	1
4902549	59	C	03/28/2022	14:56	-131.662	47.541	0	1345.20	0	2.6770	0	34.4610	0	27.492	0	1329.672	0	12.4	4	3.8	4	-1E+10	1	-1E+10	1	-1E+10	1	-1E+10	1	-1E+10	1	-1E+10	1
4902549	59	C	03/28/2022	14:56	-131.662	47.541	0	1355.10	0	2.6570	0	34.4630	0	27.495	0	1339.426	0	13.1	4	4.0	4	-1E+10	1	-1E+10	1	-1E+10	1	-1E+10	1	-1E+10	1	-1E+10	1
4902549	59	C	03/28/2022	14:56	-131.662	47.541	0	1365.50	0	2.6080	0	34.4690	0	27.504	0	1349.672	0	13.8	4	4.2	4	-1E+10	1	-1E+10	1	-1E+10	1	-1E+10	1	-1E+10	1	-1E+10	1
4902549	59	C	03/28/2022	14:56	-131.662	47.541	0	1375.70	0	2.5880	0	34.4730	0	27.509	0	1359.721	0	14.3	4	4.4	4	-1E+10	1	-1E+10	1	-1E+10	1	-1E+10	1	-1E+10	1	-1E+10	1
4902549	59	C	03/28/2022	14:56	-131.662	47.541	0	1385.80	0	2.5780	0	34.4750	0	27.511	0	1369.671	0	14.7	4	4.5	4	-1E+10	1	-1E+10	1	-1E+10	1	-1E+10	1	-1E+10	1	-1E+10	1
4902549	59	C	03/28/2022	14:56	-131.662	47.541	0	1395.60	0	2.5630	0	34.4760	0	27.514	0	1379.325	0	15.2	4	4.6	4	-1E+10	1	-1E+10	1	-1E+10	1	-1E+10	1	-1E+10	1	-1E+10	1
4902549	59	C	03/28/2022	14:56	-131.662	47.541	0	1405.20	0	2.5390	0	34.4800	0	27.519	0	1388.782	0	15.7	4	4.8	4	-1E+10	1	-1E+10	1	-1E+10	1	-1E+10	1	-1E+10	1	-1E+10	1
4902549	59	C	03/28/2022	14:56	-131.662	47.541	0	1415.10	0	2.5280	0	34.4820	0	27.521	0	1398.533	0	16.1	4	4.9	4	-1E+10	1	-1E+10	1	-1E+10	1	-1E+10	1	-1E+10	1	-1E+10	1
4902549	59	C	03/28/2022	14:56	-131.662	47.541	0	1425.10	0	2.5200	0	34.4850	0	27.525	0	1408.383	0	16.6	4	5.1	4	-1E+10	1	-1E+10	1	-1E+10	1	-1E+10	1	-1E+10	1	-1E+10	1
4902549	59	C	03/28/2022	14:56	-131.662	47.541	0	1435.20	0	2.5080	0	34.4870	0	27.527	0	1418.330	0	17.2	4	5.2	4	-1E+10	1	-1E+10	1	-1E+10	1	-1E+10	1	-1E+10	1	-1E+10	1
4902549	59	C	03/28/2022	14:56	-131.662	47.541	0	1445.40	0	2.4880	0	34.4900	0	27.531	0	1428.376	0	17.8	4	5.4	4	-1E+10	1	-1E+10	1	-1E+10	1	-1E+10	1	-1E+10	1	-1E+10	1
4902549	59	C	03/28/2022	14:56	-131.662	47.541	0	1455.70	0	2.4770	0	34.4930	0	27.535	0	1438.520	0	18.2	4	5.5	4	-1E+10	1	-1E+10	1	-1E+10	1	-1E+10	1	-1E+10	1	-1E+10	1
4902549	59	C	03/28/2022	14:56	-131.662	47.541	0	1465.50	0	2.4600	0	34.4950	0	27.538	0	1448.170	0	18.6	4	5.7	4	-1E+10	1	-1E+10	1	-1E+10	1	-1E+10	1	-1E+10	1	-1E+10	1
4902549	59	C	03/28/2022	14:56	-131.662	47.541	0	1475.10	0	2.4500	0	34.4960	0	27.540	0	1457.624	0	18.9	4	5.8	4	-1E+10	1	-1E+10	1	-1E+10	1	-1E+10	1	-1E+10	1	-1E+10	1
4902549	59	C	03/28/2022	14:56	-131.662	47.541	0	1485.30	0	2.4450	0	34.4970	0	27.541	0	1467.668	0	19.1	4	5.8	4	-1E+10	1	-1E+10	1	-1E+10	1	-1E+10	1	-1E+10	1	-1E+10	1
4902549	59	C	03/28/2022	14:56	-131.662	47.541	0	1495.50	0	2.4390	0	34.4980	0	27.542	0	1477.711	0	19.4	4	5.9	4	-1E+10	1	-1E+10	1	-1E+10	1	-1E+10	1	-1E+10	1	-1E+10	1
4902549	59	C	03/28/2022	14:56	-131.662	47.541	0	1505.10	0	2.4330	0	34.4990	0	27.544	0	1487.163	0	19.7	4	6.0	4	-1E+10	1	-1E+10	1	-1E+10	1	-1E+10	1	-1E+10	1	-1E+10	1
4902549	59	C	03/28/2022	14:56	-131.662	47.541	0	1515.30	0	2.4260	0	34.5010	0	27.546	0	1497.205	0	20.2	4	6.1	4	-1E+10	1	-1E+10	1	-1E+10	1	-1E+10	1	-1E+10	1	-1E+10	1
4902549	59	C	03/28/2022	14:56	-131.662	47.541	0	1525.70	0	2.4130	0	34.5020	0	27.548	0	1507.444	0	21.0	4	6.4	4	-1E+10	1	-1E+10	1	-1E+10	1	-1E+10	1	-1E+10	1	-1E+10	1
4902549	59	C	03/28/2022	14:56	-131.662	47.541	0	1535.20	0	2.3820	0	34.5070	0	27.554	0	1516.796	0	21.9	4	6.7	4	-1E+10	1	-1E+10	1	-1E+10	1	-1E+10	1	-1E+10	1	-1E+10	1
4902549	59	C	03/28/2022	14:56	-131.662	47.541	0	1545.20	0	2.3670	0	34.5090	0	27.557	0	1526.640	0	22.6	4	6.9	4	-1E+10	1	-1E+10	1	-1E+10	1	-1E+10	1	-1E+10	1	-1E+10	1
4902549	59	C	03/28/2022	14:56	-131.662	47.541	0	1555.20	0	2.3520	0	34.5110	0	27.560	0	1536.484	0	23.3	4	7.1	4	-1E+10	1	-1E+10	1	-1E+10	1	-1E+10	1	-1E+10	1	-1E+10	1
4902549	59	C	03/28/2022	14:56	-131.662	47.541	0	1565.30	0	2.3250	0	34.5150	0	27.565	0	1546.425	0	24.0	4	7.3	4	-1E+10	1	-1E+10	1	-1E+10	1	-1E+10	1	-1E+10	1	-1E+10	1
4902549	59	C	03/28/2022	14:56	-131.662	47.541	0	1575.40	0	2.3170	0	34.5160	0	27.567	0	1556.367	0	24.3	4	7.4	4	-1E+10	1	-1E+10	1	-1E+10	1	-1E+10	1	-1E+10	1	-1E+10	1
4902549	59	C	03/28/2022	14:56	-131.662	47.541	0	1585.10	0	2.3130	0	34.5170	0	27.568	0	1565.913	0	24.6	4	7.5	4	-1E+10	1	-1E+10	1	-1E+10	1	-1E+10	1	-1E+10	1	-1E+10	1
4902549	59	C	03/28/2022	14:56	-131.662	47.541	0	1595.40	0	2.3050	0	34.5180	0	27.570	0	1576.050	0	25.2	4	7.6	4	-1E+10	1	-1E+10	1	-1E+10	1	-1E+10	1	-1E+10	1	-1E+10	1
4902549	59	C	03/28/2022	14:56	-131.662	47.541	0	1605.50	0	2.2900	0	34.5210	0	27.573	0	1585.990	0	25.9	4	7.8	4	-1E+10	1	-1E+10	1	-1E+10	1	-1E+10	1	-1E+10	1	-1E+10	1
4902549	59	C	03/28/2022	14:56	-131.662	47.541	0	1615.50	0	2.2820	0	34.5220	0	27.575	0	1595.831	0	26.5	4	8.0	4	-1E+10	1	-1E+10	1	-1E+10	1	-1E+10	1	-1E+10	1	-1E+10	1
4902549	59	C	03/28/2022	14:56	-131.662	47.541	0	1625.70	0	2.2660	0	34.5250	0	27.579	0	1605.868	0	27.3	4	8.3	4	-1E+10	1	-1E+10	1	-1E+10	1	-1E+10	1	-1E+10	1	-1E+10	1
4902549	59	C	03/28/2022	14:56	-131.662	47.541	0	1635.40	0	2.2570	0	34.5270	0	27.581	0	1615.413	0	28.1	4	8.5	4	-1E+10	1	-1E+10	1	-1E+10	1	-1E+10	1	-1E+10	1	-1E+10	1
4902549	59	C	03/28/2022	14:56	-131.662	47.541	0	1645.10	0	2.2480	0	34.5290	0	27.583	0	1624.957	0	28.5	4	8.6	4	-1E+10	1	-1E+10	1	-1E+10	1	-1E+10	1	-1E+10	1	-1E+10	1
4902549	59	C	03/28/2022	14:56	-131.662	47.541	0	1655.50	0	2.2470	0	34.5300	0	27.584	0	1635.190	0	29.0	4	8.8	4	-1E+10	1	-1E+10	1	-1E+10	1	-1E+10	1	-1E+10	1	-1E+10	1
4902549	59	C	03/28/2022	14:56	-131.662	47.541	0	1665.60	0	2.2440	0	34.5320	0	27.586	0	1645.127	0	29.7	4	9.0	4	-1E+10	1	-1E+10	1	-1E+10	1	-1E+10	1	-1E+10	1	-1E+10	1
4902549	59	C	03/28/2022	14:56	-131.662	47.541	0	1675.70	0	2.2390	0	34.5340	0	27.588	0	1655.063	0	30.1	4	9.1	4	-1E+10	1	-1E+10	1	-1E+10	1	-1E+10	1	-1E+10	1	-1E+10	1
4902549	59	C	03/28/2022	14:56	-131.662	47.541	0	1685.50	0	2.2360	0	34.5350	0	27.589	0	1664.704	0	30.6	4	9.3	4	-1E+10	1	-1E+10	1	-1E+10	1	-1E+10	1	-1E+10	1	-1E+10	1
4902549	59	C	03/28/2022	14:56	-131.662	47.541	0	1695.40	0	2.2310	0	34.5360	0	27.591	0	1674.443	0	31.4	4	9.5	4	-1E+10	1	-1E+10	1	-1E+10	1	-1E+10	1	-1E+10	1	-1E+10	1
4902549	59	C	03/28/2022	14:56	-131.662	47.541	0	1705.30	0	2.2160	0	34.5390	0	27.594	0	1684.181	0	32.3	4	9.8	4	-1E+10	1	-1E+10	1	-1E+10	1	-1E+10	1	-1E+10	1	-1E+10	1
4902549	59	C	03/28/2022	14:56	-131.662	47.541	0	1715.50	0	2.2030	0	34.5410	0	27.597	0	1694.214	0	32.8	4	9.9	4	-1E+10	1	-1E+10	1	-1E+10	1	-1E+10	1	-1E+10	1	-1E+10	1
4902549	59	C	03/28/2022	14:56	-131.662	47.541	0	1725.50	0	2.1970	0	34.5420	0	27.598	0	1704.050	0	33.2	4	10.1	4	-1E+10	1	-1E+10	1	-1E+10	1	-1E+10	1	-1E+10	1	-1E+10	1
4902549	59	C	03/28/2022	14:56	-131.662	47.541	0	1735.50	0	2.1900	0	34.5430	0	27.600	0	1713.885	0	33.6	4	10.2	4	-1E+10	1	-1E+10	1	-1E+10	1	-1E+10	1	-1E+10	1	-1E+10	1
4902549	59	C	03/28/2022	14:56	-131.662	47.541	0	1745.60	0	2.1840	0	34.5440	0	27.601	0	1723.818	0	34.0	4	10.3	4	-1E+10	1	-1E+10	1	-1E+10	1	-1E+10	1	-1E+10	1	-1E+10	1
4902549	59	C	03/28/2022	14:56	-131.662	47.541	0	1755.60	0	2.1760	0	34.5460	0	27.603	0	1733.653	0	34.6	4	10.5	4	-1E+10	1	-1E+10	1	-1E+10	1	-1E+10	1	-1E+10	1	-1E+10	1
4902549	59	C	03/28/2022	14:56	-131.662	47.541	0	1765.30	0	2.1660	0	34.5470	0	27.605	0	1743.192	0	35.2	4	10.6	4	-1E+10	1	-1E+10	1	-1E+10	1	-1E+10	1	-1E+10	1	-1E+10	1
4902549	59	C	03/28/2022	14:56	-131.662	47.541	0	1775.20	0	2.1590	0	34.5480	0	27.606	0	1752.927	0	35.9	4	10.9	4	-1E+10	1	-1E+10	1	-1E+10	1	-1E+10	1	-1E+10	1	-1E+10	1
4902549	59	C	03/28/2022	14:56	-131.662	47.541	0	1785.10	0	2.1490	0	34.5510	0	27.610	0	1762.661	0	36.8	4	11.1	4	-1E+10	1	-1E+10	1	-1E+10	1	-1E+10	1	-1E+10	1	-1E+10	1
4902549	59	C	03/28/2022	14:56	-131.662	47.541	0	1795.00	0	2.1390	0	34.5530	0	27.612	0	1772.396	0	37.8	4	11.4	4	-1E+10	1	-1E+10	1	-1E+10	1	-1E+10	1	-1E+10	1	-1E+10	1
4902549	59	C	03/28/2022	14:56	-131.662	47.541	0	1805.30	0	2.1220	0	34.5560	0	27.616	0	1782.523	0	38.7	4	11.7	4	-1E+10	1	-1E+10	1	-1E+10	1	-1E+10	1	-1E+10	1	-1E+10	1
4902549	59	C	03/28/2022	14:56	-131.662	47.541	0	1815.50	0	2.1160	0	34.5570	0	27.617	0	1792.551	0	39.2	4	11.8	4	-1E+10	1	-1E+10	1	-1E+10	1	-1E+10	1	-1E+10	1	-1E+10	1
4902549	59	C	03/28/2022	14:56	-131.662	47.541	0	1825.40	0	2.1030	0	34.5580	0	27.619	0	1802.284	0	39.8	4	12.0	4	-1E+10	1	-1E+10	1	-1E+10	1	-1E+10	1	-1E+10	1	-1E+10	1
4902549	59	C	03/28/2022	14:56	-131.662	47.541	0	1835.20	0	2.0900	0	34.5600	0	27.622	0	1811.918	0	40.5	4	12.2	4	-1E+10	1	-1E+10	1	-1E+10	1	-1E+10	1	-1E+10	1	-1E+10	1
4902549	59	C	03/28/2022	14:56	-131.662	47.541	0	1845.40	0	2.0790	0	34.5620	0	27.624	0	1821.945	0	41.3	4	12.5	4	-1E+10	1	-1E+10	1	-1E+10	1	-1E+10	1	-1E+10	1	-1E+10	1
4902549	59	C	03/28/2022	14:56	-131.662	47.541	0	1855.80	0	2.0670	0	34.5630	0	27.626	0	1832.168	0	42.1	4	12.7	4	-1E+10	1	-1E+10	1	-1E+10	1	-1E+10	1	-1E+10	1	-1E+10	1
4902549	59	C	03/28/2022	14:56	-131.662	47.541	0	1865.70	0	2.0590	0	34.5650	0	27.628	0	1841.899	0	42.8	4	12.9	4	-1E+10	1	-1E+10	1	-1E+10	1	-1E+10	1	-1E+10	1	-1E+10	1
4902549	59	C	03/28/2022	14:56	-131.662	47.541	0	1875.30	0	2.0480	0	34.5670	0	27.631	0	1851.335	0	43.7	4	13.2	4	-1E+10	1	-1E+10	1	-1E+10	1	-1E+10	1	-1E+10	1	-1E+10	1
4902549	59	C	03/28/2022	14:56	-131.662	47.541	0	1885.10	0	2.0350	0	34.5690	0	27.634	0	1860.967	0	44.4	4	13.4	4	-1E+10	1	-1E+10	1	-1E+10	1	-1E+10	1	-1E+10	1	-1E+10	1
4902549	59	C	03/28/2022	14:56	-131.662	47.541	0	1895.50	0	2.0210	0	34.5710	0	27.636	0	1871.188	0	45.2	4	13.6	4	-1E+10	1	-1E+10	1	-1E+10	1	-1E+10	1	-1E+10	1	-1E+10	1
4902549	59	C	03/28/2022	14:56	-131.662	47.541	0	1905.70	0	2.0140	0	34.5730	0	27.639	0	1881.212	0	46.0	4	13.9	4	-1E+10	1	-1E+10	1	-1E+10	1	-1E+10	1	-1E+10	1	-1E+10	1
4902549	59	C	03/28/2022	14:56	-131.662	47.541	0	1915.60	0	2.0070	0	34.5750	0	27.641	0	1890.941	0	46.6	4	14.0	4	-1E+10	1	-1E+10	1	-1E+10	1	-1E+10	1	-1E+10	1	-1E+10	1
4902549	59	C	03/28/2022	14:56	-131.662	47.541	0	1925.70	0	1.9990	0	34.5760	0	27.642	0	1900.866	0	47.3	4	14.2	4	-1E+10	1	-1E+10	1	-1E+10	1	-1E+10	1	-1E+10	1	-1E+10	1
4902549	59	C	03/28/2022	14:56	-131.662	47.541	0	1935.50	0	1.9900	0	34.5780	0	27.645	0	1910.496	0	47.9	4	14.4	4	-1E+10	1	-1E+10	1	-1E+10	1	-1E+10	1	-1E+10	1	-1E+10	1
4902549	59	C	03/28/2022	14:56	-131.662	47.541	0	1945.40	0	1.9840	0	34.5790	0	27.646	0	1920.223	0	48.3	4	14.6	4	-1E+10	1	-1E+10	1	-1E+10	1	-1E+10	1	-1E+10	1	-1E+10	1
4902549	59	C	03/28/2022	14:56	-131.662	47.541	0	1955.30	0	1.9790	0	34.5800	0	27.647	0	1929.950	0	48.8	4	14.7	4	-1E+10	1	-1E+10	1	-1E+10	1	-1E+10	1	-1E+10	1	-1E+10	1
4902549	59	C	03/28/2022	14:56	-131.662	47.541	0	1965.30	0	1.9730	0	34.5810	0	27.648	0	1939.775	0	49.5	4	14.9	4	-1E+10	1	-1E+10	1	-1E+10	1	-1E+10	1	-1E+10	1	-1E+10	1
4902549	59	C	03/28/2022	14:56	-131.662	47.541	0	1975.30	0	1.9600	0	34.5830	0	27.651	0	1949.599	0	50.2	4	15.1	4	-1E+10	1	-1E+10	1	-1E+10	1	-1E+10	1	-1E+10	1	-1E+10	1
4902549	59	C	03/28/2022	14:56	-131.662	47.541	0	1985.60	0	1.9520	0	34.5850	0	27.653	0	1959.718	0	50.4	4	15.2	4	-1E+10	1	-1E+10	1	-1E+10	1	-1E+10	1	-1E+10	1	-1E+10	1
4902549	59	C	03/28/2022	14:56	-131.662	47.541	0																										
4902549	60	C	04/07/2022	20:07	-131.647	47.468	0	0.30	0	7.9830	0	32.2900	0	25.149	0	0.297	0	287.4	4	98.2	4	-1E+10	1	-1E+10	1	-1E+10	1	-1E+10	1	-1E+10	1	-1E+10	1
4902549	60	C	04/07/2022	20:07	-131.647	47.468	0	0.40	0	7.9810	0	32.2910	0	25.150	0	0.397	0	280.3	4	95.7	4	-1E+10	1	-1E+10	1	-1E+10	1	-1E+10	1	-1E+10	1	-1E+10	1
4902549	60	C	04/07/2022	20:07	-131.647	47.468	0	0.50	0	7.9813	0	32.2904	0	25.149	0	0.496	0	280.3	4	95.7	4	-1E+10	1	-1E+10	1	-1E+10	1	-1E+10	1	-1E+10	1	-1E+10	1
4902549	60	C	04/07/2022	20:07	-131.647	47.468	0	1.10	0	7.9830	0	32.2870	0	25.146	0	1.091	0	280.2	4	95.7	4	-1E+10	1	-1E+10	1	-1E+10	1	-1E+10	1	-1E+10	1	-1E+10	1
4902549	60	C	04/07/2022	20:07	-131.647	47.468	0	2.00	0	7.9840	0	32.2870	0	25.146	0	1.983	0	280.3	4	95.7	4	-1E+10	1	-1E+10	1	-1E+10	1	-1E+10	1	-1E+10	1	-1E+10	1
4902549	60	C	04/07/2022	20:07	-131.647	47.468	0	3.00	0	7.9850	0	32.2870	0	25.146	0	2.975	0	280.2	4	95.7	4	-1E+10	1	-1E+10	1	-1E+10	1	-1E+10	1	-1E+10	1	-1E+10	1
4902549	60	C	04/07/2022	20:07	-131.647	47.468	0	3.90	0	7.9840	0	32.2890	0	25.148	0	3.867	0	280.2	4	95.7	4	-1E+10	1	-1E+10	1	-1E+10	1	-1E+10	1	-1E+10	1	-1E+10	1
4902549	60	C	04/07/2022	20:07	-131.647	47.468	0	5.10	0	7.9820	0	32.2900	0	25.149	0	5.057	0	280.2	4	95.7	4	-1E+10	1	-1E+10	1	-1E+10	1	-1E+10	1	-1E+10	1	-1E+10	1
4902549	60	C	04/07/2022	20:07	-131.647	47.468	0	5.90	0	7.9830	0	32.2900	0	25.149	0	5.851	0	280.1	4	95.7	4	-1E+10	1	-1E+10	1	-1E+10	1	-1E+10	1	-1E+10	1	-1E+10	1
4902549	60	C	04/07/2022	20:07	-131.647	47.468	0	6.90	0	7.9810	0	32.2910	0	25.150	0	6.842	0	280.0	4	95.7	4	-1E+10	1	-1E+10	1	-1E+10	1	-1E+10	1	-1E+10	1	-1E+10	1
4902549	60	C	04/07/2022	20:07	-131.647	47.468	0	8.10	0	7.9840	0	32.2900	0	25.149	0	8.032	0	280.1	4	95.7	4	-1E+10	1	-1E+10	1	-1E+10	1	-1E+10	1	-1E+10	1	-1E+10	1
4902549	60	C	04/07/2022	20:07	-131.647	47.468	0	9.00	0	7.9780	0	32.2920	0	25.151	0	8.925	0	280.1	4	95.7	4	-1E+10	1	-1E+10	1	-1E+10	1	-1E+10	1	-1E+10	1	-1E+10	1
4902549	60	C	04/07/2022	20:07	-131.647	47.468	0	10.30	0	7.9680	0	32.2920	0	25.153	0	10.214	0	280.2	4	95.7	4	-1E+10	1	-1E+10	1	-1E+10	1	-1E+10	1	-1E+10	1	-1E+10	1
4902549	60	C	04/07/2022	20:07	-131.647	47.468	0	11.00	0	7.9740	0	32.2910	0	25.151	0	10.908	0	280.1	4	95.7	4	-1E+10	1	-1E+10	1	-1E+10	1	-1E+10	1	-1E+10	1	-1E+10	1
4902549	60	C	04/07/2022	20:07	-131.647	47.468	0	12.20	0	7.9680	0	32.2920	0	25.153	0	12.098	0	280.1	4	95.7	4	-1E+10	1	-1E+10	1	-1E+10	1	-1E+10	1	-1E+10	1	-1E+10	1
4902549	60	C	04/07/2022	20:07	-131.647	47.468	0	12.80	0	7.9660	0	32.2920	0	25.153	0	12.693	0	280.1	4	95.6	4	-1E+10	1	-1E+10	1	-1E+10	1	-1E+10	1	-1E+10	1	-1E+10	1
4902549	60	C	04/07/2022	20:07	-131.647	47.468	0	13.80	0	7.9610	0	32.2930	0	25.155	0	13.684	0	280.1	4	95.6	4	-1E+10	1	-1E+10	1	-1E+10	1	-1E+10	1	-1E+10	1	-1E+10	1
4902549	60	C	04/07/2022	20:07	-131.647	47.468	0	14.90	0	7.9600	0	32.2920	0	25.154	0	14.775	0	280.1	4	95.6	4	-1E+10	1	-1E+10	1	-1E+10	1	-1E+10	1	-1E+10	1	-1E+10	1
4902549	60	C	04/07/2022	20:07	-131.647	47.468	0	16.20	0	7.9600	0	32.2930	0	25.155	0	16.064	0	280.1	4	95.6	4	-1E+10	1	-1E+10	1	-1E+10	1	-1E+10	1	-1E+10	1	-1E+10	1
4902549	60	C	04/07/2022	20:07	-131.647	47.468	0	16.80	0	7.9570	0	32.2940	0	25.156	0	16.659	0	280.1	4	95.6	4	-1E+10	1	-1E+10	1	-1E+10	1	-1E+10	1	-1E+10	1	-1E+10	1
4902549	60	C	04/07/2022	20:07	-131.647	47.468	0	17.90	0	7.9590	0	32.2920	0	25.154	0	17.750	0	280.1	4	95.6	4	-1E+10	1	-1E+10	1	-1E+10	1	-1E+10	1	-1E+10	1	-1E+10	1
4902549	60	C	04/07/2022	20:07	-131.647	47.468	0	19.10	0	7.9510	0	32.2910	0	25.154	0	18.940	0	280.2	4	95.6	4	-1E+10	1	-1E+10	1	-1E+10	1	-1E+10	1	-1E+10	1	-1E+10	1
4902549	60	C	04/07/2022	20:07	-131.647	47.468	0	20.30	0	7.9520	0	32.2910	0	25.154	0	20.130	0	280.1	4	95.6	4	-1E+10	1	-1E+10	1	-1E+10	1	-1E+10	1	-1E+10	1	-1E+10	1
4902549	60	C	04/07/2022	20:07	-131.647	47.468	0	21.20	0	7.9410	0	32.2930	0	25.158	0	21.022	0	280.1	4	95.6	4	-1E+10	1	-1E+10	1	-1E+10	1	-1E+10	1	-1E+10	1	-1E+10	1
4902549	60	C	04/07/2022	20:07	-131.647	47.468	0	22.10	0	7.9530	0	32.2900	0	25.153	0	21.914	0	280.3	4	95.7	4	-1E+10	1	-1E+10	1	-1E+10	1	-1E+10	1	-1E+10	1	-1E+10	1
4902549	60	C	04/07/2022	20:07	-131.647	47.468	0	23.10	0	7.9520	0	32.2920	0	25.155	0	22.906	0	280.2	4	95.6	4	-1E+10	1	-1E+10	1	-1E+10	1	-1E+10	1	-1E+10	1	-1E+10	1
4902549	60	C	04/07/2022	20:07	-131.647	47.468	0	24.00	0	7.9550	0	32.2910	0	25.154	0	23.798	0	280.1	4	95.6	4	-1E+10	1	-1E+10	1	-1E+10	1	-1E+10	1	-1E+10	1	-1E+10	1
4902549	60	C	04/07/2022	20:07	-131.647	47.468	0	24.90	0	7.9570	0	32.2930	0	25.155	0	24.691	0	280.1	4	95.6	4	-1E+10	1	-1E+10	1	-1E+10	1	-1E+10	1	-1E+10	1	-1E+10	1
4902549	60	C	04/07/2022	20:07	-131.647	47.468	0	25.80	0	7.9520	0	32.2930	0	25.156	0	25.583	0	280.1	4	95.6	4	-1E+10	1	-1E+10	1	-1E+10	1	-1E+10	1	-1E+10	1	-1E+10	1
4902549	60	C	04/07/2022	20:07	-131.647	47.468	0	26.80	0	7.9510	0	32.2910	0	25.155	0	26.575	0	280.1	4	95.6	4	-1E+10	1	-1E+10	1	-1E+10	1	-1E+10	1	-1E+10	1	-1E+10	1
4902549	60	C	04/07/2022	20:07	-131.647	47.468	0	27.90	0	7.9380	0	32.2930	0	25.158	0	27.665	0	280.2	4	95.6	4	-1E+10	1	-1E+10	1	-1E+10	1	-1E+10	1	-1E+10	1	-1E+10	1
4902549	60	C	04/07/2022	20:07	-131.647	47.468	0	28.90	0	7.9380	0	32.2930	0	25.158	0	28.657	0	280.1	4	95.6	4	-1E+10	1	-1E+10	1	-1E+10	1	-1E+10	1	-1E+10	1	-1E+10	1
4902549	60	C	04/07/2022	20:07	-131.647	47.468	0	30.00	0	7.9370	0	32.2930	0	25.158	0	29.748	0	280.2	4	95.6	4	-1E+10	1	-1E+10	1	-1E+10	1	-1E+10	1	-1E+10	1	-1E+10	1
4902549	60	C	04/07/2022	20:07	-131.647	47.468	0	30.90	0	7.9230	0	32.2930	0	25.160	0	30.640	0	280.2	4	95.6	4	-1E+10	1	-1E+10	1	-1E+10	1	-1E+10	1	-1E+10	1	-1E+10	1
4902549	60	C	04/07/2022	20:07	-131.647	47.468	0	31.90	0	7.9270	0	32.2920	0	25.159	0	31.631	0	280.1	4	95.6	4	-1E+10	1	-1E+10	1	-1E+10	1	-1E+10	1	-1E+10	1	-1E+10	1
4902549	60	C	04/07/2022	20:07	-131.647	47.468	0	32.80	0	7.9180	0	32.2910	0	25.159	0	32.524	0	280.2	4	95.6	4	-1E+10	1	-1E+10	1	-1E+10	1	-1E+10	1	-1E+10	1	-1E+10	1
4902549	60	C	04/07/2022	20:07	-131.647	47.468	0	33.70	0	7.9210	0	32.2910	0	25.159	0	33.416	0	280.2	4	95.6	4	-1E+10	1	-1E+10	1	-1E+10	1	-1E+10	1	-1E+10	1	-1E+10	1
4902549	60	C	04/07/2022	20:07	-131.647	47.468	0	34.90	0	7.9180	0	32.2920	0	25.160	0	34.606	0	280.2	4	95.6	4	-1E+10	1	-1E+10	1	-1E+10	1	-1E+10	1	-1E+10	1	-1E+10	1
4902549	60	C	04/07/2022	20:07	-131.647	47.468	0	36.00	0	7.9190	0	32.2910	0	25.159	0	35.697	0	280.2	4	95.6	4	-1E+10	1	-1E+10	1	-1E+10	1	-1E+10	1	-1E+10	1	-1E+10	1
4902549	60	C	04/07/2022	20:07	-131.647	47.468	0	37.00	0	7.9080	0	32.2890	0	25.159	0	36.688	0	280.4	4	95.6	4	-1E+10	1	-1E+10	1	-1E+10	1	-1E+10	1	-1E+10	1	-1E+10	1
4902549	60	C	04/07/2022	20:07	-131.647	47.468	0	38.10	0	7.9050	0	32.2940	0	25.164	0	37.779	0	280.2	4	95.6	4	-1E+10	1	-1E+10	1	-1E+10	1	-1E+10	1	-1E+10	1	-1E+10	1
4902549	60	C	04/07/2022	20:07	-131.647	47.468	0	39.10	0	7.8890	0	32.2910	0	25.164	0	38.770	0	280.4	4	95.6	4	-1E+10	1	-1E+10	1	-1E+10	1	-1E+10	1	-1E+10	1	-1E+10	1
4902549	60	C	04/07/2022	20:07	-131.647	47.468	0	40.30	0	7.8860	0	32.2920	0	25.165	0	39.960	0	280.4	4	95.6	4	-1E+10	1	-1E+10	1	-1E+10	1	-1E+10	1	-1E+10	1	-1E+10	1
4902549	60	C	04/07/2022	20:07	-131.647	47.468	0	41.00	0	7.8870	0	32.2920	0	25.165	0	40.654	0	280.3	4	95.6	4	-1E+10	1	-1E+10	1	-1E+10	1	-1E+10	1	-1E+10	1	-1E+10	1
4902549	60	C	04/07/2022	20:07	-131.647	47.468	0	42.20	0	7.8850	0	32.2910	0	25.164	0	41.844	0	280.4	4	95.6	4	-1E+10	1	-1E+10	1	-1E+10	1	-1E+10	1	-1E+10	1	-1E+10	1
4902549	60	C	04/07/2022	20:07	-131.647	47.468	0	42.90	0	7.8880	0	32.2910	0	25.164	0	42.538	0	280.3	4	95.5	4	-1E+10	1	-1E+10	1	-1E+10	1	-1E+10	1	-1E+10	1	-1E+10	1
4902549	60	C	04/07/2022	20:07	-131.647	47.468	0	43.90	0	7.8820	0	32.2910	0	25.165	0	43.529	0	280.4	4	95.6	4	-1E+10	1	-1E+10	1	-1E+10	1	-1E+10	1	-1E+10	1	-1E+10	1
4902549	60	C	04/07/2022	20:07	-131.647	47.468	0	44.90	0	7.8790	0	32.2910	0	25.165	0	44.521	0	280.4	4	95.5	4	-1E+10	1	-1E+10	1	-1E+10	1	-1E+10	1	-1E+10	1	-1E+10	1
4902549	60	C	04/07/2022	20:07	-131.647	47.468	0	45.90	0	7.8790	0	32.2920	0	25.166	0	45.512	0	280.3	4	95.5	4	-1E+10	1	-1E+10	1	-1E+10	1	-1E+10	1	-1E+10	1	-1E+10	1
4902549	60	C	04/07/2022	20:07	-131.647	47.468	0	47.10	0	7.8830	0	32.2900	0	25.164	0	46.702	0	280.4	4	95.6	4	-1E+10	1	-1E+10	1	-1E+10	1	-1E+10	1	-1E+10	1	-1E+10	1
4902549	60	C	04/07/2022	20:07	-131.647	47.468	0	47.80	0	7.8820	0	32.2950	0	25.168	0	47.396	0	280.3	4	95.5	4	-1E+10	1	-1E+10	1	-1E+10	1	-1E+10	1	-1E+10	1	-1E+10	1
4902549	60	C	04/07/2022	20:07	-131.647	47.468	0	48.80	0	7.8660	0	32.2900	0	25.166	0	48.387	0	280.4	4	95.5	4	-1E+10	1	-1E+10	1	-1E+10	1	-1E+10	1	-1E+10	1	-1E+10	1
4902549	60	C	04/07/2022	20:07	-131.647	47.468	0	50.00	0	7.8620	0	32.2910	0	25.168	0	49.577	0	280.4	4	95.5	4	-1E+10	1	-1E+10	1	-1E+10	1	-1E+10	1	-1E+10	1	-1E+10	1
4902549	60	C	04/07/2022	20:07	-131.647	47.468	0	50.90	0	7.8610	0	32.2900	0	25.167	0	50.469	0	280.4	4	95.5	4	-1E+10	1	-1E+10	1	-1E+10	1	-1E+10	1	-1E+10	1	-1E+10	1
4902549	60	C	04/07/2022	20:07	-131.647	47.468	0	52.10	0	7.8650	0	32.2910	0	25.167	0	51.659	0	280.4	4	95.5	4	-1E+10	1	-1E+10	1	-1E+10	1	-1E+10	1	-1E+10	1	-1E+10	1
4902549	60	C	04/07/2022	20:07	-131.647	47.468	0	53.10	0	7.8600	0	32.2900	0	25.167	0	52.650	0	280.4	4	95.5	4	-1E+10	1	-1E+10	1	-1E+10	1	-1E+10	1	-1E+10	1	-1E+10	1
4902549	60	C	04/07/2022	20:07	-131.647	47.468	0	54.00	0	7.8610	0	32.2920	0	25.169	0	53.542	0	280.3	4	95.5	4	-1E+10	1	-1E+10	1	-1E+10	1	-1E+10	1	-1E+10	1	-1E+10	1
4902549	60	C	04/07/2022	20:07	-131.647	47.468	0	55.10	0	7.8580	0	32.2880	0	25.166	0	54.633	0	280.3	4	95.5	4	-1E+10	1	-1E+10	1	-1E+10	1	-1E+10	1	-1E+10	1	-1E+10	1
4902549	60	C	04/07/2022	20:07	-131.647	47.468	0	56.20	0	7.8530	0	32.2920	0	25.170	0	55.724	0	280.4	4	95.5	4	-1E+10	1	-1E+10	1	-1E+10	1	-1E+10	1	-1E+10	1	-1E+10	1
4902549	60	C	04/07/2022	20:07	-131.647	47.468	0	57.00	0	7.8520	0	32.2900	0	25.168	0	56.517	0	280.3	4	95.5	4	-1E+10	1	-1E+10	1	-1E+10	1	-1E+10	1	-1E+10	1	-1E+10	1
4902549	60	C	04/07/2022	20:07	-131.647	47.468	0	58.10	0	7.8360	0	32.2910	0	25.171	0	57.607	0	280.3	4	95.4	4	-1E+10	1	-1E+10	1	-1E+10	1	-1E+10	1	-1E+10	1	-1E+10	1
4902549	60	C	04/07/2022	20:07	-131.647	47.468	0	59.10	0	7.8350	0	32.2910	0	25.172	0	58.599	0	280.3	4	95.4	4	-1E+10	1	-1E+10	1	-1E+10	1	-1E+10	1	-1E+10	1	-1E+10	1
4902549	60	C	04/07/2022	20:07	-131.647	47.468	0	60.30	0	7.8350	0	32.2900	0	25.171	0	59.788	0	280.2	4	95.4	4	-1E+10	1	-1E+10	1	-1E+10	1	-1E+10	1	-1E+10	1	-1E+10	1
4902549	60	C	04/07/2022	20:07	-131.647	47.468	0	61.00	0	7.8390	0	32.2900	0	25.170	0	60.482	0	280.2	4	95.4	4	-1E+10	1	-1E+10	1	-1E+10	1	-1E+10	1	-1E+10	1	-1E+10	1
4902549	60	C	04/07/2022	20:07	-131.647	47.468	0	62.00	0	7.8310	0	32.2910	0	25.172	0	61.473	0	280.2	4	95.4	4	-1E+10	1	-1E+10	1	-1E+10	1	-1E+10	1	-1E+10	1	-1E+10	1
4902549	60	C	04/07/2022	20:07	-131.647	47.468	0	62.90	0	7.8310	0	32.2910	0	25.172	0	62.366	0	280.2	4	95.4	4	-1E+10	1	-1E+10	1	-1E+10	1	-1E+10	1	-1E+10	1	-1E+10	1
4902549	60	C	04/07/2022	20:07	-131.647	47.468	0	63.80	0	7.8320	0	32.2900	0	25.171	0	63.258	0	280.2	4	95.4	4	-1E+10	1	-1E+10	1	-1E+10	1	-1E+10	1	-1E+10	1	-1E+10	1
4902549	60	C	04/07/2022	20:07	-131.647	47.468	0	64.90	0	7.8310	0	32.2910	0	25.172	0	64.348	0	280.1	4	95.4	4	-1E+10	1	-1E+10	1	-1E+10	1	-1E+10	1	-1E+10	1	-1E+10	1
4902549	60	C	04/07/2022	20:07	-131.647	47.468	0	66.00	0	7.8300	0	32.2920	0	25.173	0	65.439	0	280.2	4	95.4	4	-1E+10	1	-1E+10	1	-1E+10	1	-1E+10	1	-1E+10	1	-1E+10	1
4902549	60	C	04/07/2022	20:07	-131.647	47.468	0	67.00	0	7.8310	0	32.2920	0	25.173	0	66.430	0	280.0	4	95.3	4	-1E+10	1	-1E+10	1	-1E+10	1	-1E+10	1	-1E+10	1	-1E+10	1
4902549	60	C	04/07/2022	20:07	-131.647	47.468	0	68.00	0	7.8280	0	32.2920	0	25.173	0	67.422	0	280.0	4	95.3	4	-1E+10	1	-1E+10	1	-1E+10	1	-1E+10	1	-1E+10	1	-1E+10	1
4902549	60	C	04/07/2022	20:07	-131.647	47.468	0	69.00	0	7.8280	0	32.2910	0	25.173	0	68.413	0	280.0	4	95.3	4	-1E+10	1	-1E+10	1	-1E+10	1	-1E+10	1	-1E+10	1	-1E+10	1
4902549	60	C	04/07/2022	20:07	-131.647	47.468	0	70.00	0	7.8290	0	32.2920	0	25.173	0	69.404	0	280.0	4	95.3	4	-1E+10	1	-1E+10	1	-1E+10	1	-1E+10	1	-1E+10	1	-1E+10	1
4902549	60	C	04/07/2022	20:07	-131.647	47.468	0	71.00	0	7.8270	0	32.2920	0	25.174	0	70.396	0	279.8	4	95.2	4	-1E+10	1	-1E+10	1	-1E+10	1	-1E+10	1	-1E+10	1	-1E+10	1
4902549	60	C	04/07/2022	20:07	-131.647	47.468	0	72.00	0	7.8260	0	32.2920	0	25.174	0	71.387	0	279.8	4	95.2	4	-1E+10	1	-1E+10	1	-1E+10	1	-1E+10	1	-1E+10	1	-1E+10	1
4902549	60	C	04/07/2022	20:07	-131.647	47.468	0	72.90	0	7.8270	0	32.2920	0	25.174	0	72.279	0	279.8	4	95.2	4	-1E+10	1	-1E+10	1	-1E+10	1	-1E+10	1	-1E+10	1	-1E+10	1
4902549	60	C	04/07/2022	20:07	-131.647	47.468	0	73.90	0	7.8260	0	32.2920	0	25.174	0	73.270	0	279.7	4	95.2	4	-1E+10	1	-1E+10	1	-1E+10	1	-1E+10	1	-1E+10	1	-1E+10	1
4902549	60	C	04/07/2022	20:07	-131.647	47.468	0	75.10	0	7.8260	0	32.2920	0	25.174	0	74.460	0	279.6	4	95.2	4	-1E+10	1	-1E+10	1	-1E+10	1	-1E+10	1	-1E+10	1	-1E+10	1
4902549	60	C	04/07/2022	20:07	-131.647	47.468	0	75.80	0	7.8270	0	32.2920	0	25.174	0	75.154	0	279.5	4	95.2	4	-1E+10	1	-1E+10	1	-1E+10	1	-1E+10	1	-1E+10	1	-1E+10	1
4902549	60	C	04/07/2022	20:07	-131.647	47.468	0	76.80	0	7.8290	0	32.2930	0	25.174	0	76.145	0	279.4	4	95.1	4	-1E+10	1	-1E+10	1	-1E+10	1	-1E+10	1	-1E+10	1	-1E+10	1
4902549	60	C	04/07/2022	20:07	-131.647	47.468	0	77.80	0	7.8290	0	32.2930	0	25.174	0	77.136	0	279.3	4	95.1	4	-1E+10	1	-1E+10	1	-1E+10	1	-1E+10	1	-1E+10	1	-1E+10	1
4902549	60	C	04/07/2022	20:07	-131.647	47.468	0	78.90	0	7.8300	0	32.2930	0	25.174	0	78.227	0	279.3	4	95.1	4	-1E+10	1	-1E+10	1	-1E+10	1	-1E+10	1	-1E+10	1	-1E+10	1
4902549	60	C	04/07/2022	20:07	-131.647	47.468	0	80.00	0	7.8300	0	32.2940	0	25.175	0	79.317	0	279.2	4	95.0	4	-1E+10	1	-1E+10	1	-1E+10	1	-1E+10	1	-1E+10	1	-1E+10	1
4902549	60	C	04/07/2022	20:07	-131.647	47.468	0	81.00	0	7.8310	0	32.2930	0	25.174	0	80.308	0	279.1	4	95.0	4	-1E+10	1	-1E+10	1	-1E+10	1	-1E+10	1	-1E+10	1	-1E+10	1
4902549	60	C	04/07/2022	20:07	-131.647	47.468	0	82.10	0	7.8300	0	32.2930	0	25.174	0	81.399	0	286.0	4	97.3	4	-1E+10	1	-1E+10	1	-1E+10	1	-1E+10	1	-1E+10	1	-1E+10	1
4902549	60	C	04/07/2022	20:07	-131.647	47.468	0	83.10	0	7.8300	0	32.2930	0	25.174	0	82.390	0	285.9	4	97.3	4	-1E+10	1	-1E+10	1	-1E+10	1	-1E+10	1	-1E+10	1	-1E+10	1
4902549	60	C	04/07/2022	20:07	-131.647	47.468	0	84.10	0	7.8300	0	32.2930	0	25.174	0	83.381	0	285.8	4	97.3	4	-1E+10	1	-1E+10	1	-1E+10	1	-1E+10	1	-1E+10	1	-1E+10	1
4902549	60	C	04/07/2022	20:07	-131.647	47.468	0	85.10	0	7.8310	0	32.2930	0	25.174	0	84.373	0	285.6	4	97.2	4	-1E+10	1	-1E+10	1	-1E+10	1	-1E+10	1	-1E+10	1	-1E+10	1
4902549	60	C	04/07/2022	20:07	-131.647	47.468	0	85.90	0	7.8310	0	32.2930	0	25.174	0	85.166	0	285.4	4	97.2	4	-1E+10	1	-1E+10	1	-1E+10	1	-1E+10	1	-1E+10	1	-1E+10	1
4902549	60	C	04/07/2022	20:07	-131.647	47.468	0	86.80	0	7.8310	0	32.2930	0	25.174	0	86.058	0	285.3	4	97.1	4	-1E+10	1	-1E+10	1	-1E+10	1	-1E+10	1	-1E+10	1	-1E+10	1
4902549	60	C	04/07/2022	20:07	-131.647	47.468	0	87.90	0	7.8290	0	32.2930	0	25.174	0	87.148	0	285.1	4	97.0	4	-1E+10	1	-1E+10	1	-1E+10	1	-1E+10	1	-1E+10	1	-1E+10	1
4902549	60	C	04/07/2022	20:07	-131.647	47.468	0	88.80	0	7.8300	0	32.2930	0	25.174	0	88.040	0	284.9	4	97.0	4	-1E+10	1	-1E+10	1	-1E+10	1	-1E+10	1	-1E+10	1	-1E+10	1
4902549	60	C	04/07/2022	20:07	-131.647	47.468	0	89.80	0	7.8310	0	32.2920	0	25.173	0	89.031	0	284.7	4	96.9	4	-1E+10	1	-1E+10	1	-1E+10	1	-1E+10	1	-1E+10	1	-1E+10	1
4902549	60	C	04/07/2022	20:07	-131.647	47.468	0	90.90	0	7.8290	0	32.2930	0	25.174	0	90.122	0	284.4	4	96.8	4	-1E+10	1	-1E+10	1	-1E+10	1	-1E+10	1	-1E+10	1	-1E+10	1
4902549	60	C	04/07/2022	20:07	-131.647	47.468	0	92.10	0	7.8310	0	32.2940	0	25.175	0	91.311	0	284.0	4	96.7	4	-1E+10	1	-1E+10	1	-1E+10	1	-1E+10	1	-1E+10	1	-1E+10	1
4902549	60	C	04/07/2022	20:07	-131.647	47.468	0	93.00	0	7.8280	0	32.2950	0	25.176	0	92.203	0	283.8	4	96.6	4	-1E+10	1	-1E+10	1	-1E+10	1	-1E+10	1	-1E+10	1	-1E+10	1
4902549	60	C	04/07/2022	20:07	-131.647	47.468	0	93.80	0	7.8280	0	32.2940	0	25.175	0	92.996	0	283.5	4	96.5	4	-1E+10	1	-1E+10	1	-1E+10	1	-1E+10	1	-1E+10	1	-1E+10	1
4902549	60	C	04/07/2022	20:07	-131.647	47.468	0	95.00	0	7.8280	0	32.2940	0	25.175	0	94.186	0	282.9	4	96.3	4	-1E+10	1	-1E+10	1	-1E+10	1	-1E+10	1	-1E+10	1	-1E+10	1
4902549	60	C	04/07/2022	20:07	-131.647	47.468	0	95.90	0	7.8290	0	32.2940	0	25.175	0	95.078	0	282.3	4	96.1	4	-1E+10	1	-1E+10	1	-1E+10	1	-1E+10	1	-1E+10	1	-1E+10	1
4902549	60	C	04/07/2022	20:07	-131.647	47.468	0	96.70	0	7.8270	0	32.2930	0	25.175	0	95.871	0	281.9	4	95.9	4	-1E+10	1	-1E+10	1	-1E+10	1	-1E+10	1	-1E+10	1	-1E+10	1
4902549	60	C	04/07/2022	20:07	-131.647	47.468	0	97.90	0	7.8250	0	32.2940	0	25.176	0	97.060	0	280.9	4	95.6	4	-1E+10	1	-1E+10	1	-1E+10	1	-1E+10	1	-1E+10	1	-1E+10	1
4902549	60	C	04/07/2022	20:07	-131.647	47.468	0	99.00	0	7.8240	0	32.2940	0	25.176	0	98.150	0	279.8	4	95.2	4	-1E+10	1	-1E+10	1	-1E+10	1	-1E+10	1	-1E+10	1	-1E+10	1
4902549	60	C	04/07/2022	20:07	-131.647	47.468	0	100.10	0	7.8230	0	32.2940	0	25.176	0	99.241	0	278.4	4	94.8	4	-1E+10	1	-1E+10	1	-1E+10	1	-1E+10	1	-1E+10	1	-1E+10	1
4902549	60	C	04/07/2022	20:07	-131.647	47.468	0	101.00	0	7.8240	0	32.2940	0	25.176	0	100.133	0	277.1	4	94.3	4	-1E+10	1	-1E+10	1	-1E+10	1	-1E+10	1	-1E+10	1	-1E+10	1
4902549	60	C	04/07/2022	20:07	-131.647	47.468	0	101.70	0	7.8230	0	32.2950	0	25.177	0	100.827	0	275.4	4	93.8	4	-1E+10	1	-1E+10	1	-1E+10	1	-1E+10	1	-1E+10	1	-1E+10	1
4902549	60	C	04/07/2022	20:07	-131.647	47.468	0	102.90	0	7.8340	0	32.2980	0	25.178	0	102.016	0	272.4	4	92.7	4	-1E+10	1	-1E+10	1	-1E+10	1	-1E+10	1	-1E+10	1	-1E+10	1
4902549	60	C	04/07/2022	20:07	-131.647	47.468	0	104.30	0	7.8720	0	32.3160	0	25.187	0	103.404	0	268.4	4	91.5	4	-1E+10	1	-1E+10	1	-1E+10	1	-1E+10	1	-1E+10	1	-1E+10	1
4902549	60	C	04/07/2022	20:07	-131.647	47.468	0	105.10	0	7.8370	0	32.3430	0	25.213	0	104.197	0	264.2	4	90.0	4	-1E+10	1	-1E+10	1	-1E+10	1	-1E+10	1	-1E+10	1	-1E+10	1
4902549	60	C	04/07/2022	20:07	-131.647	47.468	0	106.10	0	7.7550	0	32.3800	0	25.253	0	105.188	0	258.9	4	88.0	4	-1E+10	1	-1E+10	1	-1E+10	1	-1E+10	1	-1E+10	1	-1E+10	1
4902549	60	C	04/07/2022	20:07	-131.647	47.468	0	107.10	0	7.6640	0	32.4350	0	25.309	0	106.179	0	253.6	4	86.1	4	-1E+10	1	-1E+10	1	-1E+10	1	-1E+10	1	-1E+10	1	-1E+10	1
4902549	60	C	04/07/2022	20:07	-131.647	47.468	0	107.90	0	7.6050	0	32.4740	0	25.348	0	106.972	0	249.7	4	84.7	4	-1E+10	1	-1E+10	1	-1E+10	1	-1E+10	1	-1E+10	1	-1E+10	1
4902549	60	C	04/07/2022	20:07	-131.647	47.468	0	109.10	0	7.5410	0	32.5280	0	25.400	0	108.161	0	244.2	4	82.7	4	-1E+10	1	-1E+10	1	-1E+10	1	-1E+10	1	-1E+10	1	-1E+10	1
4902549	60	C	04/07/2022	20:07	-131.647	47.468	0	110.00	0	7.4700	0	32.6280	0	25.488	0	109.053	0	241.0	4	81.6	4	-1E+10	1	-1E+10	1	-1E+10	1	-1E+10	1	-1E+10	1	-1E+10	1
4902549	60	C	04/07/2022	20:07	-131.647	47.468	0	111.00	0	7.4120	0	32.6820	0	25.539	0	110.044	0	238.0	4	80.5	4	-1E+10	1	-1E+10	1	-1E+10	1	-1E+10	1	-1E+10	1	-1E+10	1
4902549	60	C	04/07/2022	20:07	-131.647	47.468	0	112.10	0	7.3860	0	32.7030	0	25.559	0	111.135	0	234.9	4	79.4	4	-1E+10	1	-1E+10	1	-1E+10	1	-1E+10	1	-1E+10	1	-1E+10	1
4902549	60	C	04/07/2022	20:07	-131.647	47.468	0	112.90	0	7.3650	0	32.7170	0	25.573	0	111.927	0	232.6	4	78.6	4	-1E+10	1	-1E+10	1	-1E+10	1	-1E+10	1	-1E+10	1	-1E+10	1
4902549	60	C	04/07/2022	20:07	-131.647	47.468	0	114.10	0	7.3280	0	32.7590	0	25.611	0	113.117	0	229.3	4	77.4	4	-1E+10	1	-1E+10	1	-1E+10	1	-1E+10	1	-1E+10	1	-1E+10	1
4902549	60	C	04/07/2022	20:07	-131.647	47.468	0	115.10	0	7.3120	0	32.7870	0	25.635	0	114.108	0	227.0	4	76.6	4	-1E+10	1	-1E+10	1	-1E+10	1	-1E+10	1	-1E+10	1	-1E+10	1
4902549	60	C	04/07/2022	20:07	-131.647	47.468	0	116.20	0	7.3050	0	32.8100	0	25.654	0	115.198	0	224.2	4	75.7	4	-1E+10	1	-1E+10	1	-1E+10	1	-1E+10	1	-1E+10	1	-1E+10	1
4902549	60	C	04/07/2022	20:07	-131.647	47.468	0	117.00	0	7.2850	0	32.8520	0	25.690	0	115.991	0	222.3	4	75.1	4	-1E+10	1	-1E+10	1	-1E+10	1	-1E+10	1	-1E+10	1	-1E+10	1
4902549	60	C	04/07/2022	20:07	-131.647	47.468	0	117.90	0	7.2530	0	32.9160	0	25.745	0	116.883	0	221.3	4	74.7	4	-1E+10	1	-1E+10	1	-1E+10	1	-1E+10	1	-1E+10	1	-1E+10	1
4902549	60	C	04/07/2022	20:07	-131.647	47.468	0	119.10	0	7.2160	0	32.9640	0	25.788	0	118.072	0	220.0	4	74.2	4	-1E+10	1	-1E+10	1	-1E+10	1	-1E+10	1	-1E+10	1	-1E+10	1
4902549	60	C	04/07/2022	20:07	-131.647	47.468	0	120.20	0	7.1930	0	32.9860	0	25.808	0	119.162	0	218.6	4	73.7	4	-1E+10	1	-1E+10	1	-1E+10	1	-1E+10	1	-1E+10	1	-1E+10	1
4902549	60	C	04/07/2022	20:07	-131.647	47.468	0	121.10	0	7.1720	0	32.9970	0	25.820	0	120.054	0	217.3	4	73.2	4	-1E+10	1	-1E+10	1	-1E+10	1	-1E+10	1	-1E+10	1	-1E+10	1
4902549	60	C	04/07/2022	20:07	-131.647	47.468	0	121.80	0	7.1440	0	32.9940	0	25.821	0	120.748	0	216.2	4	72.8	4	-1E+10	1	-1E+10	1	-1E+10	1	-1E+10	1	-1E+10	1	-1E+10	1
4902549	60	C	04/07/2022	20:07	-131.647	47.468	0	122.80	0	7.0570	0	33.0100	0	25.845	0	121.739	0	214.7	4	72.2	4	-1E+10	1	-1E+10	1	-1E+10	1	-1E+10	1	-1E+10	1	-1E+10	1
4902549	60	C	04/07/2022	20:07	-131.647	47.468	0	123.90	0	7.0250	0	33.0570	0	25.887	0	122.829	0	212.9	4	71.6	4	-1E+10	1	-1E+10	1	-1E+10	1	-1E+10	1	-1E+10	1	-1E+10	1
4902549	60	C	04/07/2022	20:07	-131.647	47.468	0	124.80	0	7.0110	0	33.0910	0	25.915	0	123.721	0	211.5	4	71.1	4	-1E+10	1	-1E+10	1	-1E+10	1	-1E+10	1	-1E+10	1	-1E+10	1
4902549	60	C	04/07/2022	20:07	-131.647	47.468	0	125.80	0	6.9990	0	33.1200	0	25.940	0	124.712	0	209.8	4	70.5	4	-1E+10	1	-1E+10	1	-1E+10	1	-1E+10	1	-1E+10	1	-1E+10	1
4902549	60	C	04/07/2022	20:07	-131.647	47.468	0	126.80	0	6.9780	0	33.1720	0	25.984	0	125.703	0	207.9	4	69.9	4	-1E+10	1	-1E+10	1	-1E+10	1	-1E+10	1	-1E+10	1	-1E+10	1
4902549	60	C	04/07/2022	20:07	-131.647	47.468	0	127.90	0	6.9780	0	33.1850	0	25.994	0	126.794	0	206.1	4	69.3	4	-1E+10	1	-1E+10	1	-1E+10	1	-1E+10	1	-1E+10	1	-1E+10	1
4902549	60	C	04/07/2022	20:07	-131.647	47.468	0	129.00	0	6.9870	0	33.2070	0	26.010	0	127.884	0	204.1	4	68.6	4	-1E+10	1	-1E+10	1	-1E+10	1	-1E+10	1	-1E+10	1	-1E+10	1
4902549	60	C	04/07/2022	20:07	-131.647	47.468	0	129.80	0	6.9980	0	33.2220	0	26.020	0	128.677	0	202.8	4	68.2	4	-1E+10	1	-1E+10	1	-1E+10	1	-1E+10	1	-1E+10	1	-1E+10	1
4902549	60	C	04/07/2022	20:07	-131.647	47.468	0	130.90	0	7.0220	0	33.2510	0	26.040	0	129.767	0	200.7	4	67.6	4	-1E+10	1	-1E+10	1	-1E+10	1	-1E+10	1	-1E+10	1	-1E+10	1
4902549	60	C	04/07/2022	20:07	-131.647	47.468	0	132.10	0	7.0400	0	33.2720	0	26.054	0	130.956	0	198.8	4	66.9	4	-1E+10	1	-1E+10	1	-1E+10	1	-1E+10	1	-1E+10	1	-1E+10	1
4902549	60	C	04/07/2022	20:07	-131.647	47.468	0	132.80	0	7.0400	0	33.2780	0	26.059	0	131.650	0	197.4	4	66.5	4	-1E+10	1	-1E+10	1	-1E+10	1	-1E+10	1	-1E+10	1	-1E+10	1
4902549	60	C	04/07/2022	20:07	-131.647	47.468	0	133.90	0	7.0550	0	33.2960	0	26.071	0	132.740	0	195.2	4	65.8	4	-1E+10	1	-1E+10	1	-1E+10	1	-1E+10	1	-1E+10	1	-1E+10	1
4902549	60	C	04/07/2022	20:07	-131.647	47.468	0	135.10	0	7.0890	0	33.3190	0	26.085	0	133.929	0	193.0	4	65.1	4	-1E+10	1	-1E+10	1	-1E+10	1	-1E+10	1	-1E+10	1	-1E+10	1
4902549	60	C	04/07/2022	20:07	-131.647	47.468	0	135.90	0	7.2190	0	33.3650	0	26.103	0	134.722	0	191.5	4	64.8	4	-1E+10	1	-1E+10	1	-1E+10	1	-1E+10	1	-1E+10	1	-1E+10	1
4902549	60	C	04/07/2022	20:07	-131.647	47.468	0	136.70	0	7.2270	0	33.3740	0	26.109	0	135.515	0	190.7	4	64.6	4	-1E+10	1	-1E+10	1	-1E+10	1	-1E+10	1	-1E+10	1	-1E+10	1
4902549	60	C	04/07/2022	20:07	-131.647	47.468	0	137.90	0	7.3520	0	33.4430	0	26.146	0	136.704	0	189.5	4	64.4	4	-1E+10	1	-1E+10	1	-1E+10	1	-1E+10	1	-1E+10	1	-1E+10	1
4902549	60	C	04/07/2022	20:07	-131.647	47.468	0	139.20	0	7.3960	0	33.5100	0	26.193	0	137.992	0	188.8	4	64.2	4	-1E+10	1	-1E+10	1	-1E+10	1	-1E+10	1	-1E+10	1	-1E+10	1
4902549	60	C	04/07/2022	20:07	-131.647	47.468	0	140.00	0	7.3930	0	33.5210	0	26.202	0	138.785	0	188.7	4	64.2	4	-1E+10	1	-1E+10	1	-1E+10	1	-1E+10	1	-1E+10	1	-1E+10	1
4902549	60	C	04/07/2022	20:07	-131.647	47.468	0	140.90	0	7.3870	0	33.5270	0	26.207	0	139.677	0	188.7	4	64.2	4	-1E+10	1	-1E+10	1	-1E+10	1	-1E+10	1	-1E+10	1	-1E+10	1
4902549	60	C	04/07/2022	20:07	-131.647	47.468	0	141.70	0	7.3830	0	33.5300	0	26.210	0	140.470	0	188.7	4	64.2	4	-1E+10	1	-1E+10	1	-1E+10	1	-1E+10	1	-1E+10	1	-1E+10	1
4902549	60	C	04/07/2022	20:07	-131.647	47.468	0	142.90	0	7.3850	0	33.5350	0	26.214	0	141.659	0	188.7	4	64.2	4	-1E+10	1	-1E+10	1	-1E+10	1	-1E+10	1	-1E+10	1	-1E+10	1
4902549	60	C	04/07/2022	20:07	-131.647	47.468	0	144.10	0	7.3840	0	33.5410	0	26.219	0	142.848	0	188.7	4	64.2	4	-1E+10	1	-1E+10	1	-1E+10	1	-1E+10	1	-1E+10	1	-1E+10	1
4902549	60	C	04/07/2022	20:07	-131.647	47.468	0	144.90	0	7.3830	0	33.5430	0	26.220	0	143.641	0	188.7	4	64.2	4	-1E+10	1	-1E+10	1	-1E+10	1	-1E+10	1	-1E+10	1	-1E+10	1
4902549	60	C	04/07/2022	20:07	-131.647	47.468	0	145.70	0	7.3830	0	33.5460	0	26.223	0	144.433	0	188.6	4	64.2	4	-1E+10	1	-1E+10	1	-1E+10	1	-1E+10	1	-1E+10	1	-1E+10	1
4902549	60	C	04/07/2022	20:07	-131.647	47.468	0	146.80	0	7.3810	0	33.5490	0	26.225	0	145.523	0	188.6	4	64.1	4	-1E+10	1	-1E+10	1	-1E+10	1	-1E+10	1	-1E+10	1	-1E+10	1
4902549	60	C	04/07/2022	20:07	-131.647	47.468	0	147.90	0	7.3780	0	33.5530	0	26.229	0	146.614	0	188.4	4	64.1	4	-1E+10	1	-1E+10	1	-1E+10	1	-1E+10	1	-1E+10	1	-1E+10	1
4902549	60	C	04/07/2022	20:07	-131.647	47.468	0	149.00	0	7.3700	0	33.5700	0	26.243	0	147.704	0	188.0	4	63.9	4	-1E+10	1	-1E+10	1	-1E+10	1	-1E+10	1	-1E+10	1	-1E+10	1
4902549	60	C	04/07/2022	20:07	-131.647	47.468	0	150.20	0	7.3660	0	33.6100	0	26.276	0	148.893	0	187.3	4	63.7	4	-1E+10	1	-1E+10	1	-1E+10	1	-1E+10	1	-1E+10	1	-1E+10	1
4902549	60	C	04/07/2022	20:07	-131.647	47.468	0	151.00	0	7.3630	0	33.6160	0	26.281	0	149.685	0	187.0	4	63.6	4	-1E+10	1	-1E+10	1	-1E+10	1	-1E+10	1	-1E+10	1	-1E+10	1
4902549	60	C	04/07/2022	20:07	-131.647	47.468	0	151.80	0	7.3580	0	33.6300	0	26.292	0	150.478	0	186.6	4	63.5	4	-1E+10	1	-1E+10	1	-1E+10	1	-1E+10	1	-1E+10	1	-1E+10	1
4902549	60	C	04/07/2022	20:07	-131.647	47.468	0	152.90	0	7.3580	0	33.6330	0	26.295	0	151.568	0	185.9	4	63.2	4	-1E+10	1	-1E+10	1	-1E+10	1	-1E+10	1	-1E+10	1	-1E+10	1
4902549	60	C	04/07/2022	20:07	-131.647	47.468	0	154.00	0	7.3580	0	33.6420	0	26.302	0	152.658	0	185.2	4	63.0	4	-1E+10	1	-1E+10	1	-1E+10	1	-1E+10	1	-1E+10	1	-1E+10	1
4902549	60	C	04/07/2022	20:07	-131.647	47.468	0	154.80	0	7.3530	0	33.6460	0	26.306	0	153.451	0	184.6	4	62.8	4	-1E+10	1	-1E+10	1	-1E+10	1	-1E+10	1	-1E+10	1	-1E+10	1
4902549	60	C	04/07/2022	20:07	-131.647	47.468	0	156.00	0	7.3180	0	33.6640	0	26.325	0	154.640	0	184.1	4	62.6	4	-1E+10	1	-1E+10	1	-1E+10	1	-1E+10	1	-1E+10	1	-1E+10	1
4902549	60	C	04/07/2022	20:07	-131.647	47.468	0	157.20	0	7.2940	0	33.6900	0	26.349	0	155.829	0	183.6	4	62.4	4	-1E+10	1	-1E+10	1	-1E+10	1	-1E+10	1	-1E+10	1	-1E+10	1
4902549	60	C	04/07/2022	20:07	-131.647	47.468	0	158.00	0	7.2820	0	33.7010	0	26.359	0	156.622	0	183.2	4	62.2	4	-1E+10	1	-1E+10	1	-1E+10	1	-1E+10	1	-1E+10	1	-1E+10	1
4902549	60	C	04/07/2022	20:07	-131.647	47.468	0	158.80	0	7.2760	0	33.7060	0	26.364	0	157.415	0	182.9	4	62.1	4	-1E+10	1	-1E+10	1	-1E+10	1	-1E+10	1	-1E+10	1	-1E+10	1
4902549	60	C	04/07/2022	20:07	-131.647	47.468	0	160.00	0	7.2710	0	33.7110	0	26.368	0	158.604	0	182.4	4	61.9	4	-1E+10	1	-1E+10	1	-1E+10	1	-1E+10	1	-1E+10	1	-1E+10	1
4902549	60	C	04/07/2022	20:07	-131.647	47.468	0	161.30	0	7.2640	0	33.7180	0	26.375	0	159.892	0	181.8	4	61.7	4	-1E+10	1	-1E+10	1	-1E+10	1	-1E+10	1	-1E+10	1	-1E+10	1
4902549	60	C	04/07/2022	20:07	-131.647	47.468	0	162.10	0	7.2620	0	33.7190	0	26.376	0	160.685	0	181.5	4	61.6	4	-1E+10	1	-1E+10	1	-1E+10	1	-1E+10	1	-1E+10	1	-1E+10	1
4902549	60	C	04/07/2022	20:07	-131.647	47.468	0	162.90	0	7.2580	0	33.7210	0	26.378	0	161.477	0	181.1	4	61.5	4	-1E+10	1	-1E+10	1	-1E+10	1	-1E+10	1	-1E+10	1	-1E+10	1
4902549	60	C	04/07/2022	20:07	-131.647	47.468	0	163.80	0	7.2550	0	33.7220	0	26.379	0	162.369	0	180.6	4	61.3	4	-1E+10	1	-1E+10	1	-1E+10	1	-1E+10	1	-1E+10	1	-1E+10	1
4902549	60	C	04/07/2022	20:07	-131.647	47.468	0	164.60	0	7.2450	0	33.7260	0	26.384	0	163.162	0	180.2	4	61.2	4	-1E+10	1	-1E+10	1	-1E+10	1	-1E+10	1	-1E+10	1	-1E+10	1
4902549	60	C	04/07/2022	20:07	-131.647	47.468	0	165.90	0	7.2320	0	33.7310	0	26.390	0	164.450	0	179.4	4	60.9	4	-1E+10	1	-1E+10	1	-1E+10	1	-1E+10	1	-1E+10	1	-1E+10	1
4902549	60	C	04/07/2022	20:07	-131.647	47.468	0	167.20	0	7.2020	0	33.7420	0	26.402	0	165.738	0	178.8	4	60.6	4	-1E+10	1	-1E+10	1	-1E+10	1	-1E+10	1	-1E+10	1	-1E+10	1
4902549	60	C	04/07/2022	20:07	-131.647	47.468	0	168.00	0	7.1810	0	33.7480	0	26.410	0	166.531	0	178.3	4	60.5	4	-1E+10	1	-1E+10	1	-1E+10	1	-1E+10	1	-1E+10	1	-1E+10	1
4902549	60	C	04/07/2022	20:07	-131.647	47.468	0	168.90	0	7.1580	0	33.7530	0	26.417	0	167.422	0	178.1	4	60.4	4	-1E+10	1	-1E+10	1	-1E+10	1	-1E+10	1	-1E+10	1	-1E+10	1
4902549	60	C	04/07/2022	20:07	-131.647	47.468	0	169.80	0	7.1540	0	33.7540	0	26.419	0	168.314	0	177.6	4	60.2	4	-1E+10	1	-1E+10	1	-1E+10	1	-1E+10	1	-1E+10	1	-1E+10	1
4902549	60	C	04/07/2022	20:07	-131.647	47.468	0	170.70	0	7.1500	0	33.7530	0	26.418	0	169.206	0	177.2	4	60.0	4	-1E+10	1	-1E+10	1	-1E+10	1	-1E+10	1	-1E+10	1	-1E+10	1
4902549	60	C	04/07/2022	20:07	-131.647	47.468	0	171.60	0	7.1340	0	33.7580	0	26.424	0	170.098	0	176.7	4	59.8	4	-1E+10	1	-1E+10	1	-1E+10	1	-1E+10	1	-1E+10	1	-1E+10	1
4902549	60	C	04/07/2022	20:07	-131.647	47.468	0	172.90	0	7.0950	0	33.7620	0	26.433	0	171.386	0	176.1	4	59.6	4	-1E+10	1	-1E+10	1	-1E+10	1	-1E+10	1	-1E+10	1	-1E+10	1
4902549	60	C	04/07/2022	20:07	-131.647	47.468	0	174.30	0	7.0430	0	33.7640	0	26.442	0	172.773	0	175.6	4	59.4	4	-1E+10	1	-1E+10	1	-1E+10	1	-1E+10	1	-1E+10	1	-1E+10	1
4902549	60	C	04/07/2022	20:07	-131.647	47.468	0	175.30	0	7.0200	0	33.7640	0	26.445	0	173.764	0	175.0	4	59.1	4	-1E+10	1	-1E+10	1	-1E+10	1	-1E+10	1	-1E+10	1	-1E+10	1
4902549	60	C	04/07/2022	20:07	-131.647	47.468	0	176.20	0	6.9870	0	33.7650	0	26.450	0	174.655	0	174.7	4	59.0	4	-1E+10	1	-1E+10	1	-1E+10	1	-1E+10	1	-1E+10	1	-1E+10	1
4902549	60	C	04/07/2022	20:07	-131.647	47.468	0	177.10	0	6.9650	0	33.7660	0	26.454	0	175.547	0	174.2	4	58.8	4	-1E+10	1	-1E+10	1	-1E+10	1	-1E+10	1	-1E+10	1	-1E+10	1
4902549	60	C	04/07/2022	20:07	-131.647	47.468	0	178.10	0	6.9080	0	33.7700	0	26.465	0	176.538	0	174.0	4	58.6	4	-1E+10	1	-1E+10	1	-1E+10	1	-1E+10	1	-1E+10	1	-1E+10	1
4902549	60	C	04/07/2022	20:07	-131.647	47.468	0	179.10	0	6.8970	0	33.7710	0	26.467	0	177.529	0	173.6	4	58.5	4	-1E+10	1	-1E+10	1	-1E+10	1	-1E+10	1	-1E+10	1	-1E+10	1
4902549	60	C	04/07/2022	20:07	-131.647	47.468	0	180.10	0	6.8700	0	33.7750	0	26.474	0	178.520	0	173.3	4	58.4	4	-1E+10	1	-1E+10	1	-1E+10	1	-1E+10	1	-1E+10	1	-1E+10	1
4902549	60	C	04/07/2022	20:07	-131.647	47.468	0	181.10	0	6.8590	0	33.7730	0	26.474	0	179.510	0	172.9	4	58.2	4	-1E+10	1	-1E+10	1	-1E+10	1	-1E+10	1	-1E+10	1	-1E+10	1
4902549	60	C	04/07/2022	20:07	-131.647	47.468	0	182.10	0	6.8480	0	33.7710	0	26.474	0	180.501	0	172.4	4	58.0	4	-1E+10	1	-1E+10	1	-1E+10	1	-1E+10	1	-1E+10	1	-1E+10	1
4902549	60	C	04/07/2022	20:07	-131.647	47.468	0	183.00	0	6.8310	0	33.7740	0	26.478	0	181.393	0	172.0	4	57.9	4	-1E+10	1	-1E+10	1	-1E+10	1	-1E+10	1	-1E+10	1	-1E+10	1
4902549	60	C	04/07/2022	20:07	-131.647	47.468	0	184.00	0	6.8130	0	33.7730	0	26.480	0	182.384	0	171.6	4	57.7	4	-1E+10	1	-1E+10	1	-1E+10	1	-1E+10	1	-1E+10	1	-1E+10	1
4902549	60	C	04/07/2022	20:07	-131.647	47.468	0	185.00	0	6.8060	0	33.7730	0	26.481	0	183.374	0	171.1	4	57.5	4	-1E+10	1	-1E+10	1	-1E+10	1	-1E+10	1	-1E+10	1	-1E+10	1
4902549	60	C	04/07/2022	20:07	-131.647	47.468	0	186.00	0	6.7920	0	33.7730	0	26.483	0	184.365	0	170.7	4	57.4	4	-1E+10	1	-1E+10	1	-1E+10	1	-1E+10	1	-1E+10	1	-1E+10	1
4902549	60	C	04/07/2022	20:07	-131.647	47.468	0	187.00	0	6.7590	0	33.7750	0	26.489	0	185.356	0	170.3	4	57.2	4	-1E+10	1	-1E+10	1	-1E+10	1	-1E+10	1	-1E+10	1	-1E+10	1
4902549	60	C	04/07/2022	20:07	-131.647	47.468	0	188.10	0	6.7220	0	33.7800	0	26.498	0	186.446	0	170.0	4	57.0	4	-1E+10	1	-1E+10	1	-1E+10	1	-1E+10	1	-1E+10	1	-1E+10	1
4902549	60	C	04/07/2022	20:07	-131.647	47.468	0	189.10	0	6.6930	0	33.7770	0	26.499	0	187.436	0	169.7	4	56.9	4	-1E+10	1	-1E+10	1	-1E+10	1	-1E+10	1	-1E+10	1	-1E+10	1
4902549	60	C	04/07/2022	20:07	-131.647	47.468	0	190.10	0	6.6900	0	33.7770	0	26.500	0	188.427	0	169.4	4	56.8	4	-1E+10	1	-1E+10	1	-1E+10	1	-1E+10	1	-1E+10	1	-1E+10	1
4902549	60	C	04/07/2022	20:07	-131.647	47.468	0	191.20	0	6.6880	0	33.7770	0	26.500	0	189.517	0	169.0	4	56.7	4	-1E+10	1	-1E+10	1	-1E+10	1	-1E+10	1	-1E+10	1	-1E+10	1
4902549	60	C	04/07/2022	20:07	-131.647	47.468	0	192.20	0	6.6730	0	33.7770	0	26.502	0	190.508	0	168.6	4	56.5	4	-1E+10	1	-1E+10	1	-1E+10	1	-1E+10	1	-1E+10	1	-1E+10	1
4902549	60	C	04/07/2022	20:07	-131.647	47.468	0	193.30	0	6.6670	0	33.7780	0	26.503	0	191.598	0	168.1	4	56.3	4	-1E+10	1	-1E+10	1	-1E+10	1	-1E+10	1	-1E+10	1	-1E+10	1
4902549	60	C	04/07/2022	20:07	-131.647	47.468	0	194.30	0	6.6600	0	33.7780	0	26.504	0	192.588	0	167.6	4	56.2	4	-1E+10	1	-1E+10	1	-1E+10	1	-1E+10	1	-1E+10	1	-1E+10	1
4902549	60	C	04/07/2022	20:07	-131.647	47.468	0	195.30	0	6.6560	0	33.7780	0	26.505	0	193.579	0	167.1	4	56.0	4	-1E+10	1	-1E+10	1	-1E+10	1	-1E+10	1	-1E+10	1	-1E+10	1
4902549	60	C	04/07/2022	20:07	-131.647	47.468	0	196.40	0	6.6530	0	33.7760	0	26.504	0	194.669	0	166.5	4	55.8	4	-1E+10	1	-1E+10	1	-1E+10	1	-1E+10	1	-1E+10	1	-1E+10	1
4902549	60	C	04/07/2022	20:07	-131.647	47.468	0	197.50	0	6.6250	0	33.7790	0	26.510	0	195.759	0	165.9	4	55.5	4	-1E+10	1	-1E+10	1	-1E+10	1	-1E+10	1	-1E+10	1	-1E+10	1
4902549	60	C	04/07/2022	20:07	-131.647	47.468	0	198.50	0	6.6140	0	33.7780	0	26.511	0	196.749	0	165.3	4	55.3	4	-1E+10	1	-1E+10	1	-1E+10	1	-1E+10	1	-1E+10	1	-1E+10	1
4902549	60	C	04/07/2022	20:07	-131.647	47.468	0	199.60	0	6.5780	0	33.7810	0	26.518	0	197.839	0	164.7	4	55.1	4	-1E+10	1	-1E+10	1	-1E+10	1	-1E+10	1	-1E+10	1	-1E+10	1
4902549	60	C	04/07/2022	20:07	-131.647	47.468	0	200.70	0	6.5530	0	33.7810	0	26.521	0	198.929	0	164.3	4	54.9	4	-1E+10	1	-1E+10	1	-1E+10	1	-1E+10	1	-1E+10	1	-1E+10	1
4902549	60	C	04/07/2022	20:07	-131.647	47.468	0	201.80	0	6.5360	0	33.7820	0	26.524	0	200.019	0	164.0	4	54.8	4	-1E+10	1	-1E+10	1	-1E+10	1	-1E+10	1	-1E+10	1	-1E+10	1
4902549	60	C	04/07/2022	20:07	-131.647	47.468	0	202.90	0	6.5330	0	33.7820	0	26.524	0	201.108	0	163.5	4	54.6	4	-1E+10	1	-1E+10	1	-1E+10	1	-1E+10	1	-1E+10	1	-1E+10	1
4902549	60	C	04/07/2022	20:07	-131.647	47.468	0	203.90	0	6.5200	0	33.7860	0	26.529	0	202.099	0	163.1	4	54.5	4	-1E+10	1	-1E+10	1	-1E+10	1	-1E+10	1	-1E+10	1	-1E+10	1
4902549	60	C	04/07/2022	20:07	-131.647	47.468	0	205.00	0	6.5100	0	33.7830	0	26.528	0	203.189	0	162.7	4	54.4	4	-1E+10	1	-1E+10	1	-1E+10	1	-1E+10	1	-1E+10	1	-1E+10	1
4902549	60	C	04/07/2022	20:07	-131.647	47.468	0	206.10	0	6.5010	0	33.7830	0	26.529	0	204.279	0	162.3	4	54.2	4	-1E+10	1	-1E+10	1	-1E+10	1	-1E+10	1	-1E+10	1	-1E+10	1
4902549	60	C	04/07/2022	20:07	-131.647	47.468	0	207.20	0	6.4980	0	33.7820	0	26.529	0	205.368	0	161.8	4	54.0	4	-1E+10	1	-1E+10	1	-1E+10	1	-1E+10	1	-1E+10	1	-1E+10	1
4902549	60	C	04/07/2022	20:07	-131.647	47.468	0	208.30	0	6.4890	0	33.7840	0	26.532	0	206.458	0	161.2	4	53.8	4	-1E+10	1	-1E+10	1	-1E+10	1	-1E+10	1	-1E+10	1	-1E+10	1
4902549	60	C	04/07/2022	20:07	-131.647	47.468	0	209.40	0	6.4730	0	33.7840	0	26.534	0	207.548	0	160.8	4	53.7	4	-1E+10	1	-1E+10	1	-1E+10	1	-1E+10	1	-1E+10	1	-1E+10	1
4902549	60	C	04/07/2022	20:07	-131.647	47.468	0	210.40	0	6.4570	0	33.7860	0	26.538	0	208.538	0	160.4	4	53.5	4	-1E+10	1	-1E+10	1	-1E+10	1	-1E+10	1	-1E+10	1	-1E+10	1
4902549	60	C	04/07/2022	20:07	-131.647	47.468	0	211.50	0	6.4520	0	33.7860	0	26.538	0	209.628	0	159.9	4	53.3	4	-1E+10	1	-1E+10	1	-1E+10	1	-1E+10	1	-1E+10	1	-1E+10	1
4902549	60	C	04/07/2022	20:07	-131.647	47.468	0	212.60	0	6.4370	0	33.7870	0	26.541	0	210.718	0	159.5	4	53.2	4	-1E+10	1	-1E+10	1	-1E+10	1	-1E+10	1	-1E+10	1	-1E+10	1
4902549	60	C	04/07/2022	20:07	-131.647	47.468	0	213.70	0	6.4290	0	33.7890	0	26.544	0	211.807	0	159.1	4	53.0	4	-1E+10	1	-1E+10	1	-1E+10	1	-1E+10	1	-1E+10	1	-1E+10	1
4902549	60	C	04/07/2022	20:07	-131.647	47.468	0	214.80	0	6.3940	0	33.7860	0	26.546	0	212.897	0	158.9	4	52.9	4	-1E+10	1	-1E+10	1	-1E+10	1	-1E+10	1	-1E+10	1	-1E+10	1
4902549	60	C	04/07/2022	20:07	-131.647	47.468	0	216.00	0	6.3900	0	33.7890	0	26.549	0	214.086	0	158.6	4	52.8	4	-1E+10	1	-1E+10	1	-1E+10	1	-1E+10	1	-1E+10	1	-1E+10	1
4902549	60	C	04/07/2022	20:07	-131.647	47.468	0	217.10	0	6.3850	0	33.7880	0	26.549	0	215.176	0	158.3	4	52.7	4	-1E+10	1	-1E+10	1	-1E+10	1	-1E+10	1	-1E+10	1	-1E+10	1
4902549	60	C	04/07/2022	20:07	-131.647	47.468	0	218.20	0	6.3720	0	33.7880	0	26.550	0	216.265	0	157.9	4	52.6	4	-1E+10	1	-1E+10	1	-1E+10	1	-1E+10	1	-1E+10	1	-1E+10	1
4902549	60	C	04/07/2022	20:07	-131.647	47.468	0	219.30	0	6.3630	0	33.7900	0	26.553	0	217.355	0	157.7	4	52.5	4	-1E+10	1	-1E+10	1	-1E+10	1	-1E+10	1	-1E+10	1	-1E+10	1
4902549	60	C	04/07/2022	20:07	-131.647	47.468	0	220.40	0	6.3580	0	33.7900	0	26.554	0	218.445	0	157.4	4	52.4	4	-1E+10	1	-1E+10	1	-1E+10	1	-1E+10	1	-1E+10	1	-1E+10	1
4902549	60	C	04/07/2022	20:07	-131.647	47.468	0	221.50	0	6.3540	0	33.7880	0	26.553	0	219.534	0	157.0	4	52.2	4	-1E+10	1	-1E+10	1	-1E+10	1	-1E+10	1	-1E+10	1	-1E+10	1
4902549	60	C	04/07/2022	20:07	-131.647	47.468	0	222.70	0	6.3450	0	33.7880	0	26.554	0	220.723	0	156.6	4	52.1	4	-1E+10	1	-1E+10	1	-1E+10	1	-1E+10	1	-1E+10	1	-1E+10	1
4902549	60	C	04/07/2022	20:07	-131.647	47.468	0	223.80	0	6.3360	0	33.7880	0	26.555	0	221.813	0	156.2	4	52.0	4	-1E+10	1	-1E+10	1	-1E+10	1	-1E+10	1	-1E+10	1	-1E+10	1
4902549	60	C	04/07/2022	20:07	-131.647	47.468	0	225.00	0	6.3330	0	33.7880	0	26.555	0	223.001	0	155.7	4	51.8	4	-1E+10	1	-1E+10	1	-1E+10	1	-1E+10	1	-1E+10	1	-1E+10	1
4902549	60	C	04/07/2022	20:07	-131.647	47.468	0	226.10	0	6.3270	0	33.7890	0	26.557	0	224.091	0	155.3	4	51.6	4	-1E+10	1	-1E+10	1	-1E+10	1	-1E+10	1	-1E+10	1	-1E+10	1
4902549	60	C	04/07/2022	20:07	-131.647	47.468	0	227.30	0	6.3240	0	33.7890	0	26.557	0	225.280	0	154.8	4	51.5	4	-1E+10	1	-1E+10	1	-1E+10	1	-1E+10	1	-1E+10	1	-1E+10	1
4902549	60	C	04/07/2022	20:07	-131.647	47.468	0	228.40	0	6.3220	0	33.7900	0	26.558	0	226.369	0	154.3	4	51.3	4	-1E+10	1	-1E+10	1	-1E+10	1	-1E+10	1	-1E+10	1	-1E+10	1
4902549	60	C	04/07/2022	20:07	-131.647	47.468	0	229.50	0	6.3190	0	33.7900	0	26.559	0	227.459	0	153.7	4	51.1	4	-1E+10	1	-1E+10	1	-1E+10	1	-1E+10	1	-1E+10	1	-1E+10	1
4902549	60	C	04/07/2022	20:07	-131.647	47.468	0	230.70	0	6.3080	0	33.7900	0	26.560	0	228.648	0	153.1	4	50.9	4	-1E+10	1	-1E+10	1	-1E+10	1	-1E+10	1	-1E+10	1	-1E+10	1
4902549	60	C	04/07/2022	20:07	-131.647	47.468	0	231.80	0	6.3030	0	33.7900	0	26.561	0	229.737	0	152.4	4	50.7	4	-1E+10	1	-1E+10	1	-1E+10	1	-1E+10	1	-1E+10	1	-1E+10	1
4902549	60	C	04/07/2022	20:07	-131.647	47.468	0	232.90	0	6.2930	0	33.7900	0	26.562	0	230.827	0	151.7	4	50.4	4	-1E+10	1	-1E+10	1	-1E+10	1	-1E+10	1	-1E+10	1	-1E+10	1
4902549	60	C	04/07/2022	20:07	-131.647	47.468	0	234.10	0	6.2740	0	33.7930	0	26.567	0	232.015	0	151.0	4	50.2	4	-1E+10	1	-1E+10	1	-1E+10	1	-1E+10	1	-1E+10	1	-1E+10	1
4902549	60	C	04/07/2022	20:07	-131.647	47.468	0	235.20	0	6.2620	0	33.7900	0	26.566	0	233.105	0	150.2	4	49.9	4	-1E+10	1	-1E+10	1	-1E+10	1	-1E+10	1	-1E+10	1	-1E+10	1
4902549	60	C	04/07/2022	20:07	-131.647	47.468	0	236.30	0	6.2470	0	33.7900	0	26.568	0	234.195	0	149.5	4	49.6	4	-1E+10	1	-1E+10	1	-1E+10	1	-1E+10	1	-1E+10	1	-1E+10	1
4902549	60	C	04/07/2022	20:07	-131.647	47.468	0	237.50	0	6.2120	0	33.7900	0	26.573	0	235.383	0	148.9	4	49.4	4	-1E+10	1	-1E+10	1	-1E+10	1	-1E+10	1	-1E+10	1	-1E+10	1
4902549	60	C	04/07/2022	20:07	-131.647	47.468	0	238.60	0	6.1490	0	33.7950	0	26.584	0	236.473	0	148.7	4	49.2	4	-1E+10	1	-1E+10	1	-1E+10	1	-1E+10	1	-1E+10	1	-1E+10	1
4902549	60	C	04/07/2022	20:07	-131.647	47.468	0	239.80	0	6.1390	0	33.7940	0	26.585	0	237.661	0	148.4	4	49.1	4	-1E+10	1	-1E+10	1	-1E+10	1	-1E+10	1	-1E+10	1	-1E+10	1
4902549	60	C	04/07/2022	20:07	-131.647	47.468	0	240.90	0	6.1320	0	33.7930	0	26.585	0	238.751	0	147.9	4	49.0	4	-1E+10	1	-1E+10	1	-1E+10	1	-1E+10	1	-1E+10	1	-1E+10	1
4902549	60	C	04/07/2022	20:07	-131.647	47.468	0	242.10	0	6.1220	0	33.7960	0	26.589	0	239.940	0	147.6	4	48.9	4	-1E+10	1	-1E+10	1	-1E+10	1	-1E+10	1	-1E+10	1	-1E+10	1
4902549	60	C	04/07/2022	20:07	-131.647	47.468	0	243.20	0	6.1080	0	33.7940	0	26.589	0	241.029	0	147.2	4	48.7	4	-1E+10	1	-1E+10	1	-1E+10	1	-1E+10	1	-1E+10	1	-1E+10	1
4902549	60	C	04/07/2022	20:07	-131.647	47.468	0	244.40	0	6.1080	0	33.7940	0	26.589	0	242.218	0	146.9	4	48.6	4	-1E+10	1	-1E+10	1	-1E+10	1	-1E+10	1	-1E+10	1	-1E+10	1
4902549	60	C	04/07/2022	20:07	-131.647	47.468	0	245.50	0	6.0970	0	33.7950	0	26.591	0	243.307	0	146.6	4	48.5	4	-1E+10	1	-1E+10	1	-1E+10	1	-1E+10	1	-1E+10	1	-1E+10	1
4902549	60	C	04/07/2022	20:07	-131.647	47.468	0	246.60	0	6.0930	0	33.7950	0	26.592	0	244.397	0	146.2	4	48.4	4	-1E+10	1	-1E+10	1	-1E+10	1	-1E+10	1	-1E+10	1	-1E+10	1
4902549	60	C	04/07/2022	20:07	-131.647	47.468	0	247.80	0	6.0780	0	33.7950	0	26.594	0	245.585	0	145.9	4	48.2	4	-1E+10	1	-1E+10	1	-1E+10	1	-1E+10	1	-1E+10	1	-1E+10	1
4902549	60	C	04/07/2022	20:07	-131.647	47.468	0	248.90	0	6.0690	0	33.7940	0	26.594	0	246.675	0	145.6	4	48.1	4	-1E+10	1	-1E+10	1	-1E+10	1	-1E+10	1	-1E+10	1	-1E+10	1
4902549	60	C	04/07/2022	20:07	-131.647	47.468	0	250.00	0	6.0440	0	33.7970	0	26.599	0	247.764	0	145.3	4	48.0	4	-1E+10	1	-1E+10	1	-1E+10	1	-1E+10	1	-1E+10	1	-1E+10	1
4902549	60	C	04/07/2022	20:07	-131.647	47.468	0	251.10	0	6.0350	0	33.7930	0	26.597	0	248.854	0	144.9	4	47.9	4	-1E+10	1	-1E+10	1	-1E+10	1	-1E+10	1	-1E+10	1	-1E+10	1
4902549	60	C	04/07/2022	20:07	-131.647	47.468	0	252.20	0	6.0350	0	33.7960	0	26.600	0	249.943	0	144.4	4	47.7	4	-1E+10	1	-1E+10	1	-1E+10	1	-1E+10	1	-1E+10	1	-1E+10	1
4902549	60	C	04/07/2022	20:07	-131.647	47.468	0	253.20	0	6.0330	0	33.7950	0	26.599	0	250.934	0	143.8	4	47.5	4	-1E+10	1	-1E+10	1	-1E+10	1	-1E+10	1	-1E+10	1	-1E+10	1
4902549	60	C	04/07/2022	20:07	-131.647	47.468	0	254.30	0	6.0380	0	33.7940	0	26.598	0	252.023	0	143.2	4	47.3	4	-1E+10	1	-1E+10	1	-1E+10	1	-1E+10	1	-1E+10	1	-1E+10	1
4902549	60	C	04/07/2022	20:07	-131.647	47.468	0	255.90	0	6.0400	0	33.7950	0	26.598	0	253.608	0	142.0	4	46.9	4	-1E+10	1	-1E+10	1	-1E+10	1	-1E+10	1	-1E+10	1	-1E+10	1
4902549	60	C	04/07/2022	20:07	-131.647	47.468	0	257.20	0	6.0430	0	33.7940	0	26.597	0	254.895	0	140.9	4	46.6	4	-1E+10	1	-1E+10	1	-1E+10	1	-1E+10	1	-1E+10	1	-1E+10	1
4902549	60	C	04/07/2022	20:07	-131.647	47.468	0	258.00	0	6.0440	0	33.7930	0	26.596	0	255.688	0	140.1	4	46.3	4	-1E+10	1	-1E+10	1	-1E+10	1	-1E+10	1	-1E+10	1	-1E+10	1
4902549	60	C	04/07/2022	20:07	-131.647	47.468	0	258.80	0	6.0410	0	33.7940	0	26.597	0	256.480	0	139.2	4	46.0	4	-1E+10	1	-1E+10	1	-1E+10	1	-1E+10	1	-1E+10	1	-1E+10	1
4902549	60	C	04/07/2022	20:07	-131.647	47.468	0	260.00	0	5.9790	0	33.7970	0	26.608	0	257.669	0	138.1	4	45.6	4	-1E+10	1	-1E+10	1	-1E+10	1	-1E+10	1	-1E+10	1	-1E+10	1
4902549	60	C	04/07/2022	20:07	-131.647	47.468	0	261.30	0	5.9160	0	33.8060	0	26.623	0	258.956	0	137.4	4	45.3	4	-1E+10	1	-1E+10	1	-1E+10	1	-1E+10	1	-1E+10	1	-1E+10	1
4902549	60	C	04/07/2022	20:07	-131.647	47.468	0	262.10	0	5.9010	0	33.7990	0	26.619	0	259.748	0	137.1	4	45.1	4	-1E+10	1	-1E+10	1	-1E+10	1	-1E+10	1	-1E+10	1	-1E+10	1
4902549	60	C	04/07/2022	20:07	-131.647	47.468	0	262.90	0	5.8900	0	33.8010	0	26.622	0	260.541	0	136.7	4	45.0	4	-1E+10	1	-1E+10	1	-1E+10	1	-1E+10	1	-1E+10	1	-1E+10	1
4902549	60	C	04/07/2022	20:07	-131.647	47.468	0	263.70	0	5.8840	0	33.7990	0	26.621	0	261.333	0	136.3	4	44.9	4	-1E+10	1	-1E+10	1	-1E+10	1	-1E+10	1	-1E+10	1	-1E+10	1
4902549	60	C	04/07/2022	20:07	-131.647	47.468	0	265.00	0	5.8530	0	33.8010	0	26.626	0	262.621	0	135.6	4	44.6	4	-1E+10	1	-1E+10	1	-1E+10	1	-1E+10	1	-1E+10	1	-1E+10	1
4902549	60	C	04/07/2022	20:07	-131.647	47.468	0	266.20	0	5.8220	0	33.7970	0	26.627	0	263.809	0	134.9	4	44.4	4	-1E+10	1	-1E+10	1	-1E+10	1	-1E+10	1	-1E+10	1	-1E+10	1
4902549	60	C	04/07/2022	20:07	-131.647	47.468	0	267.00	0	5.8150	0	33.7960	0	26.627	0	264.601	0	134.3	4	44.1	4	-1E+10	1	-1E+10	1	-1E+10	1	-1E+10	1	-1E+10	1	-1E+10	1
4902549	60	C	04/07/2022	20:07	-131.647	47.468	0	267.80	0	5.8080	0	33.7980	0	26.630	0	265.394	0	133.8	4	44.0	4	-1E+10	1	-1E+10	1	-1E+10	1	-1E+10	1	-1E+10	1	-1E+10	1
4902549	60	C	04/07/2022	20:07	-131.647	47.468	0	269.00	0	5.7800	0	33.7980	0	26.633	0	266.582	0	133.2	4	43.7	4	-1E+10	1	-1E+10	1	-1E+10	1	-1E+10	1	-1E+10	1	-1E+10	1
4902549	60	C	04/07/2022	20:07	-131.647	47.468	0	270.30	0	5.7380	0	33.7970	0	26.637	0	267.870	0	132.6	4	43.5	4	-1E+10	1	-1E+10	1	-1E+10	1	-1E+10	1	-1E+10	1	-1E+10	1
4902549	60	C	04/07/2022	20:07	-131.647	47.468	0	271.10	0	5.7230	0	33.7980	0	26.640	0	268.662	0	132.3	4	43.4	4	-1E+10	1	-1E+10	1	-1E+10	1	-1E+10	1	-1E+10	1	-1E+10	1
4902549	60	C	04/07/2022	20:07	-131.647	47.468	0	271.90	0	5.7040	0	33.7990	0	26.643	0	269.454	0	131.9	4	43.3	4	-1E+10	1	-1E+10	1	-1E+10	1	-1E+10	1	-1E+10	1	-1E+10	1
4902549	60	C	04/07/2022	20:07	-131.647	47.468	0	272.70	0	5.6970	0	33.7990	0	26.644	0	270.246	0	131.5	4	43.1	4	-1E+10	1	-1E+10	1	-1E+10	1	-1E+10	1	-1E+10	1	-1E+10	1
4902549	60	C	04/07/2022	20:07	-131.647	47.468	0	273.90	0	5.6820	0	33.7980	0	26.645	0	271.435	0	131.0	4	42.9	4	-1E+10	1	-1E+10	1	-1E+10	1	-1E+10	1	-1E+10	1	-1E+10	1
4902549	60	C	04/07/2022	20:07	-131.647	47.468	0	275.10	0	5.6710	0	33.7980	0	26.646	0	272.623	0	130.4	4	42.7	4	-1E+10	1	-1E+10	1	-1E+10	1	-1E+10	1	-1E+10	1	-1E+10	1
4902549	60	C	04/07/2022	20:07	-131.647	47.468	0	275.90	0	5.6690	0	33.7970	0	26.646	0	273.416	0	129.9	4	42.5	4	-1E+10	1	-1E+10	1	-1E+10	1	-1E+10	1	-1E+10	1	-1E+10	1
4902549	60	C	04/07/2022	20:07	-131.647	47.468	0	276.70	0	5.6480	0	33.8010	0	26.651	0	274.208	0	129.5	4	42.4	4	-1E+10	1	-1E+10	1	-1E+10	1	-1E+10	1	-1E+10	1	-1E+10	1
4902549	60	C	04/07/2022	20:07	-131.647	47.468	0	277.90	0	5.6350	0	33.8000	0	26.652	0	275.396	0	129.1	4	42.2	4	-1E+10	1	-1E+10	1	-1E+10	1	-1E+10	1	-1E+10	1	-1E+10	1
4902549	60	C	04/07/2022	20:07	-131.647	47.468	0	279.10	0	5.6310	0	33.8000	0	26.653	0	276.585	0	128.4	4	42.0	4	-1E+10	1	-1E+10	1	-1E+10	1	-1E+10	1	-1E+10	1	-1E+10	1
4902549	60	C	04/07/2022	20:07	-131.647	47.468	0	279.90	0	5.6250	0	33.8030	0	26.656	0	277.377	0	128.0	4	41.9	4	-1E+10	1	-1E+10	1	-1E+10	1	-1E+10	1	-1E+10	1	-1E+10	1
4902549	60	C	04/07/2022	20:07	-131.647	47.468	0	280.70	0	5.6210	0	33.8020	0	26.656	0	278.169	0	127.6	4	41.7	4	-1E+10	1	-1E+10	1	-1E+10	1	-1E+10	1	-1E+10	1	-1E+10	1
4902549	60	C	04/07/2022	20:07	-131.647	47.468	0	281.90	0	5.6150	0	33.8020	0	26.656	0	279.357	0	126.9	4	41.5	4	-1E+10	1	-1E+10	1	-1E+10	1	-1E+10	1	-1E+10	1	-1E+10	1
4902549	60	C	04/07/2022	20:07	-131.647	47.468	0	283.10	0	5.6110	0	33.8030	0	26.658	0	280.546	0	126.1	4	41.3	4	-1E+10	1	-1E+10	1	-1E+10	1	-1E+10	1	-1E+10	1	-1E+10	1
4902549	60	C	04/07/2022	20:07	-131.647	47.468	0	283.90	0	5.6100	0	33.8040	0	26.659	0	281.338	0	125.6	4	41.1	4	-1E+10	1	-1E+10	1	-1E+10	1	-1E+10	1	-1E+10	1	-1E+10	1
4902549	60	C	04/07/2022	20:07	-131.647	47.468	0	284.70	0	5.6090	0	33.8060	0	26.660	0	282.130	0	125.1	4	40.9	4	-1E+10	1	-1E+10	1	-1E+10	1	-1E+10	1	-1E+10	1	-1E+10	1
4902549	60	C	04/07/2022	20:07	-131.647	47.468	0	285.90	0	5.6050	0	33.8060	0	26.661	0	283.319	0	124.3	4	40.6	4	-1E+10	1	-1E+10	1	-1E+10	1	-1E+10	1	-1E+10	1	-1E+10	1
4902549	60	C	04/07/2022	20:07	-131.647	47.468	0	287.10	0	5.5950	0	33.8090	0	26.664	0	284.507	0	123.5	4	40.4	4	-1E+10	1	-1E+10	1	-1E+10	1	-1E+10	1	-1E+10	1	-1E+10	1
4902549	60	C	04/07/2022	20:07	-131.647	47.468	0	287.90	0	5.5900	0	33.8090	0	26.665	0	285.299	0	122.9	4	40.2	4	-1E+10	1	-1E+10	1	-1E+10	1	-1E+10	1	-1E+10	1	-1E+10	1
4902549	60	C	04/07/2022	20:07	-131.647	47.468	0	288.70	0	5.5720	0	33.8120	0	26.669	0	286.091	0	122.4	4	40.0	4	-1E+10	1	-1E+10	1	-1E+10	1	-1E+10	1	-1E+10	1	-1E+10	1
4902549	60	C	04/07/2022	20:07	-131.647	47.468	0	289.90	0	5.5520	0	33.8130	0	26.673	0	287.280	0	121.8	4	39.8	4	-1E+10	1	-1E+10	1	-1E+10	1	-1E+10	1	-1E+10	1	-1E+10	1
4902549	60	C	04/07/2022	20:07	-131.647	47.468	0	291.20	0	5.5440	0	33.8140	0	26.674	0	288.567	0	121.1	4	39.6	4	-1E+10	1	-1E+10	1	-1E+10	1	-1E+10	1	-1E+10	1	-1E+10	1
4902549	60	C	04/07/2022	20:07	-131.647	47.468	0	292.00	0	5.5370	0	33.8140	0	26.675	0	289.359	0	120.6	4	39.4	4	-1E+10	1	-1E+10	1	-1E+10	1	-1E+10	1	-1E+10	1	-1E+10	1
4902549	60	C	04/07/2022	20:07	-131.647	47.468	0	292.90	0	5.5250	0	33.8150	0	26.677	0	290.251	0	120.2	4	39.2	4	-1E+10	1	-1E+10	1	-1E+10	1	-1E+10	1	-1E+10	1	-1E+10	1
4902549	60	C	04/07/2022	20:07	-131.647	47.468	0	293.70	0	5.5250	0	33.8140	0	26.677	0	291.043	0	119.7	4	39.1	4	-1E+10	1	-1E+10	1	-1E+10	1	-1E+10	1	-1E+10	1	-1E+10	1
4902549	60	C	04/07/2022	20:07	-131.647	47.468	0	294.90	0	5.5110	0	33.8160	0	26.680	0	292.231	0	118.9	4	38.8	4	-1E+10	1	-1E+10	1	-1E+10	1	-1E+10	1	-1E+10	1	-1E+10	1
4902549	60	C	04/07/2022	20:07	-131.647	47.468	0	296.20	0	5.4970	0	33.8180	0	26.683	0	293.518	0	118.2	4	38.6	4	-1E+10	1	-1E+10	1	-1E+10	1	-1E+10	1	-1E+10	1	-1E+10	1
4902549	60	C	04/07/2022	20:07	-131.647	47.468	0	297.00	0	5.4870	0	33.8200	0	26.686	0	294.311	0	117.8	4	38.4	4	-1E+10	1	-1E+10	1	-1E+10	1	-1E+10	1	-1E+10	1	-1E+10	1
4902549	60	C	04/07/2022	20:07	-131.647	47.468	0	297.90	0	5.4760	0	33.8200	0	26.687	0	295.202	0	117.4	4	38.3	4	-1E+10	1	-1E+10	1	-1E+10	1	-1E+10	1	-1E+10	1	-1E+10	1
4902549	60	C	04/07/2022	20:07	-131.647	47.468	0	298.70	0	5.4670	0	33.8220	0	26.690	0	295.994	0	117.0	4	38.2	4	-1E+10	1	-1E+10	1	-1E+10	1	-1E+10	1	-1E+10	1	-1E+10	1
4902549	60	C	04/07/2022	20:07	-131.647	47.468	0	299.90	0	5.4610	0	33.8210	0	26.690	0	297.182	0	116.5	4	38.0	4	-1E+10	1	-1E+10	1	-1E+10	1	-1E+10	1	-1E+10	1	-1E+10	1
4902549	60	C	04/07/2022	20:07	-131.647	47.468	0	301.20	0	5.4520	0	33.8230	0	26.693	0	298.470	0	115.9	4	37.8	4	-1E+10	1	-1E+10	1	-1E+10	1	-1E+10	1	-1E+10	1	-1E+10	1
4902549	60	C	04/07/2022	20:07	-131.647	47.468	0	302.10	0	5.4440	0	33.8240	0	26.694	0	299.361	0	115.5	4	37.6	4	-1E+10	1	-1E+10	1	-1E+10	1	-1E+10	1	-1E+10	1	-1E+10	1
4902549	60	C	04/07/2022	20:07	-131.647	47.468	0	302.90	0	5.4360	0	33.8230	0	26.694	0	300.153	0	115.0	4	37.5	4	-1E+10	1	-1E+10	1	-1E+10	1	-1E+10	1	-1E+10	1	-1E+10	1
4902549	60	C	04/07/2022	20:07	-131.647	47.468	0	303.80	0	5.4330	0	33.8230	0	26.695	0	301.044	0	114.6	4	37.3	4	-1E+10	1	-1E+10	1	-1E+10	1	-1E+10	1	-1E+10	1	-1E+10	1
4902549	60	C	04/07/2022	20:07	-131.647	47.468	0	304.60	0	5.4310	0	33.8230	0	26.695	0	301.836	0	114.0	4	37.2	4	-1E+10	1	-1E+10	1	-1E+10	1	-1E+10	1	-1E+10	1	-1E+10	1
4902549	60	C	04/07/2022	20:07	-131.647	47.468	0	305.90	0	5.4120	0	33.8250	0	26.699	0	303.123	0	113.4	4	36.9	4	-1E+10	1	-1E+10	1	-1E+10	1	-1E+10	1	-1E+10	1	-1E+10	1
4902549	60	C	04/07/2022	20:07	-131.647	47.468	0	307.20	0	5.3930	0	33.8270	0	26.703	0	304.411	0	112.9	4	36.7	4	-1E+10	1	-1E+10	1	-1E+10	1	-1E+10	1	-1E+10	1	-1E+10	1
4902549	60	C	04/07/2022	20:07	-131.647	47.468	0	308.10	0	5.3930	0	33.8270	0	26.703	0	305.302	0	112.4	4	36.6	4	-1E+10	1	-1E+10	1	-1E+10	1	-1E+10	1	-1E+10	1	-1E+10	1
4902549	60	C	04/07/2022	20:07	-131.647	47.468	0	308.90	0	5.3960	0	33.8280	0	26.703	0	306.094	0	112.0	4	36.4	4	-1E+10	1	-1E+10	1	-1E+10	1	-1E+10	1	-1E+10	1	-1E+10	1
4902549	60	C	04/07/2022	20:07	-131.647	47.468	0	309.80	0	5.3900	0	33.8310	0	26.706	0	306.985	0	111.6	4	36.3	4	-1E+10	1	-1E+10	1	-1E+10	1	-1E+10	1	-1E+10	1	-1E+10	1
4902549	60	C	04/07/2022	20:07	-131.647	47.468	0	310.70	0	5.3880	0	33.8320	0	26.707	0	307.876	0	111.2	4	36.2	4	-1E+10	1	-1E+10	1	-1E+10	1	-1E+10	1	-1E+10	1	-1E+10	1
4902549	60	C	04/07/2022	20:07	-131.647	47.468	0	311.90	0	5.3780	0	33.8330	0	26.709	0	309.065	0	110.6	4	36.0	4	-1E+10	1	-1E+10	1	-1E+10	1	-1E+10	1	-1E+10	1	-1E+10	1
4902549	60	C	04/07/2022	20:07	-131.647	47.468	0	313.30	0	5.3750	0	33.8320	0	26.709	0	310.451	0	110.0	4	35.8	4	-1E+10	1	-1E+10	1	-1E+10	1	-1E+10	1	-1E+10	1	-1E+10	1
4902549	60	C	04/07/2022	20:07	-131.647	47.468	0	314.20	0	5.3720	0	33.8330	0	26.710	0	311.342	0	109.5	4	35.6	4	-1E+10	1	-1E+10	1	-1E+10	1	-1E+10	1	-1E+10	1	-1E+10	1
4902549	60	C	04/07/2022	20:07	-131.647	47.468	0	315.10	0	5.3610	0	33.8310	0	26.710	0	312.233	0	109.0	4	35.4	4	-1E+10	1	-1E+10	1	-1E+10	1	-1E+10	1	-1E+10	1	-1E+10	1
4902549	60	C	04/07/2022	20:07	-131.647	47.468	0	316.00	0	5.3470	0	33.8330	0	26.713	0	313.124	0	108.5	4	35.3	4	-1E+10	1	-1E+10	1	-1E+10	1	-1E+10	1	-1E+10	1	-1E+10	1
4902549	60	C	04/07/2022	20:07	-131.647	47.468	0	316.80	0	5.3430	0	33.8330	0	26.713	0	313.916	0	107.9	4	35.1	4	-1E+10	1	-1E+10	1	-1E+10	1	-1E+10	1	-1E+10	1	-1E+10	1
4902549	60	C	04/07/2022	20:07	-131.647	47.468	0	317.70	0	5.3330	0	33.8340	0	26.715	0	314.807	0	107.3	4	34.9	4	-1E+10	1	-1E+10	1	-1E+10	1	-1E+10	1	-1E+10	1	-1E+10	1
4902549	60	C	04/07/2022	20:07	-131.647	47.468	0	318.60	0	5.3220	0	33.8350	0	26.718	0	315.699	0	106.8	4	34.7	4	-1E+10	1	-1E+10	1	-1E+10	1	-1E+10	1	-1E+10	1	-1E+10	1
4902549	60	C	04/07/2022	20:07	-131.647	47.468	0	319.60	0	5.3090	0	33.8380	0	26.721	0	316.689	0	106.2	4	34.5	4	-1E+10	1	-1E+10	1	-1E+10	1	-1E+10	1	-1E+10	1	-1E+10	1
4902549	60	C	04/07/2022	20:07	-131.647	47.468	0	320.90	0	5.3090	0	33.8390	0	26.722	0	317.976	0	105.4	4	34.2	4	-1E+10	1	-1E+10	1	-1E+10	1	-1E+10	1	-1E+10	1	-1E+10	1
4902549	60	C	04/07/2022	20:07	-131.647	47.468	0	322.30	0	5.3110	0	33.8400	0	26.723	0	319.362	0	104.4	4	33.9	4	-1E+10	1	-1E+10	1	-1E+10	1	-1E+10	1	-1E+10	1	-1E+10	1
4902549	60	C	04/07/2022	20:07	-131.647	47.468	0	323.30	0	5.3130	0	33.8410	0	26.723	0	320.352	0	103.8	4	33.7	4	-1E+10	1	-1E+10	1	-1E+10	1	-1E+10	1	-1E+10	1	-1E+10	1
4902549	60	C	04/07/2022	20:07	-131.647	47.468	0	324.20	0	5.3050	0	33.8410	0	26.724	0	321.243	0	103.2	4	33.5	4	-1E+10	1	-1E+10	1	-1E+10	1	-1E+10	1	-1E+10	1	-1E+10	1
4902549	60	C	04/07/2022	20:07	-131.647	47.468	0	325.10	0	5.2820	0	33.8470	0	26.732	0	322.134	0	102.7	4	33.3	4	-1E+10	1	-1E+10	1	-1E+10	1	-1E+10	1	-1E+10	1	-1E+10	1
4902549	60	C	04/07/2022	20:07	-131.647	47.468	0	326.10	0	5.2530	0	33.8450	0	26.734	0	323.124	0	102.2	4	33.2	4	-1E+10	1	-1E+10	1	-1E+10	1	-1E+10	1	-1E+10	1	-1E+10	1
4902549	60	C	04/07/2022	20:07	-131.647	47.468	0	327.10	0	5.2540	0	33.8440	0	26.733	0	324.114	0	101.7	4	33.0	4	-1E+10	1	-1E+10	1	-1E+10	1	-1E+10	1	-1E+10	1	-1E+10	1
4902549	60	C	04/07/2022	20:07	-131.647	47.468	0	328.00	0	5.2490	0	33.8490	0	26.737	0	325.006	0	101.3	4	32.9	4	-1E+10	1	-1E+10	1	-1E+10	1	-1E+10	1	-1E+10	1	-1E+10	1
4902549	60	C	04/07/2022	20:07	-131.647	47.468	0	329.00	0	5.2430	0	33.8520	0	26.740	0	325.996	0	100.9	4	32.7	4	-1E+10	1	-1E+10	1	-1E+10	1	-1E+10	1	-1E+10	1	-1E+10	1
4902549	60	C	04/07/2022	20:07	-131.647	47.468	0	330.00	0	5.2430	0	33.8520	0	26.740	0	326.986	0	100.5	4	32.6	4	-1E+10	1	-1E+10	1	-1E+10	1	-1E+10	1	-1E+10	1	-1E+10	1
4902549	60	C	04/07/2022	20:07	-131.647	47.468	0	330.90	0	5.2440	0	33.8520	0	26.740	0	327.877	0	100.0	4	32.5	4	-1E+10	1	-1E+10	1	-1E+10	1	-1E+10	1	-1E+10	1	-1E+10	1
4902549	60	C	04/07/2022	20:07	-131.647	47.468	0	331.90	0	5.2410	0	33.8530	0	26.741	0	328.867	0	99.6	4	32.3	4	-1E+10	1	-1E+10	1	-1E+10	1	-1E+10	1	-1E+10	1	-1E+10	1
4902549	60	C	04/07/2022	20:07	-131.647	47.468	0	332.90	0	5.2400	0	33.8530	0	26.741	0	329.857	0	99.0	4	32.1	4	-1E+10	1	-1E+10	1	-1E+10	1	-1E+10	1	-1E+10	1	-1E+10	1
4902549	60	C	04/07/2022	20:07	-131.647	47.468	0	333.90	0	5.2360	0	33.8540	0	26.743	0	330.847	0	98.4	4	31.9	4	-1E+10	1	-1E+10	1	-1E+10	1	-1E+10	1	-1E+10	1	-1E+10	1
4902549	60	C	04/07/2022	20:07	-131.647	47.468	0	334.90	0	5.2260	0	33.8570	0	26.746	0	331.837	0	97.9	4	31.7	4	-1E+10	1	-1E+10	1	-1E+10	1	-1E+10	1	-1E+10	1	-1E+10	1
4902549	60	C	04/07/2022	20:07	-131.647	47.468	0	335.90	0	5.2170	0	33.8570	0	26.747	0	332.827	0	97.3	4	31.6	4	-1E+10	1	-1E+10	1	-1E+10	1	-1E+10	1	-1E+10	1	-1E+10	1
4902549	60	C	04/07/2022	20:07	-131.647	47.468	0	337.00	0	5.2070	0	33.8580	0	26.749	0	333.916	0	96.8	4	31.4	4	-1E+10	1	-1E+10	1	-1E+10	1	-1E+10	1	-1E+10	1	-1E+10	1
4902549	60	C	04/07/2022	20:07	-131.647	47.468	0	338.00	0	5.1970	0	33.8610	0	26.753	0	334.906	0	96.4	4	31.2	4	-1E+10	1	-1E+10	1	-1E+10	1	-1E+10	1	-1E+10	1	-1E+10	1
4902549	60	C	04/07/2022	20:07	-131.647	47.468	0	339.00	0	5.1900	0	33.8610	0	26.754	0	335.896	0	95.9	4	31.1	4	-1E+10	1	-1E+10	1	-1E+10	1	-1E+10	1	-1E+10	1	-1E+10	1
4902549	60	C	04/07/2022	20:07	-131.647	47.468	0	340.00	0	5.1870	0	33.8610	0	26.754	0	336.886	0	95.4	4	30.9	4	-1E+10	1	-1E+10	1	-1E+10	1	-1E+10	1	-1E+10	1	-1E+10	1
4902549	60	C	04/07/2022	20:07	-131.647	47.468	0	341.00	0	5.1830	0	33.8620	0	26.755	0	337.876	0	94.9	4	30.7	4	-1E+10	1	-1E+10	1	-1E+10	1	-1E+10	1	-1E+10	1	-1E+10	1
4902549	60	C	04/07/2022	20:07	-131.647	47.468	0	342.10	0	5.1680	0	33.8630	0	26.758	0	338.965	0	94.4	4	30.6	4	-1E+10	1	-1E+10	1	-1E+10	1	-1E+10	1	-1E+10	1	-1E+10	1
4902549	60	C	04/07/2022	20:07	-131.647	47.468	0	343.10	0	5.1610	0	33.8630	0	26.759	0	339.955	0	93.9	4	30.4	4	-1E+10	1	-1E+10	1	-1E+10	1	-1E+10	1	-1E+10	1	-1E+10	1
4902549	60	C	04/07/2022	20:07	-131.647	47.468	0	344.10	0	5.1550	0	33.8640	0	26.760	0	340.945	0	93.3	4	30.2	4	-1E+10	1	-1E+10	1	-1E+10	1	-1E+10	1	-1E+10	1	-1E+10	1
4902549	60	C	04/07/2022	20:07	-131.647	47.468	0	345.10	0	5.1500	0	33.8630	0	26.760	0	341.935	0	92.7	4	30.0	4	-1E+10	1	-1E+10	1	-1E+10	1	-1E+10	1	-1E+10	1	-1E+10	1
4902549	60	C	04/07/2022	20:07	-131.647	47.468	0	346.10	0	5.1310	0	33.8660	0	26.764	0	342.925	0	92.2	4	29.8	4	-1E+10	1	-1E+10	1	-1E+10	1	-1E+10	1	-1E+10	1	-1E+10	1
4902549	60	C	04/07/2022	20:07	-131.647	47.468	0	347.20	0	5.1040	0	33.8710	0	26.772	0	344.014	0	91.8	4	29.7	4	-1E+10	1	-1E+10	1	-1E+10	1	-1E+10	1	-1E+10	1	-1E+10	1
4902549	60	C	04/07/2022	20:07	-131.647	47.468	0	348.20	0	5.0780	0	33.8700	0	26.774	0	345.004	0	91.5	4	29.6	4	-1E+10	1	-1E+10	1	-1E+10	1	-1E+10	1	-1E+10	1	-1E+10	1
4902549	60	C	04/07/2022	20:07	-131.647	47.468	0	349.30	0	5.0730	0	33.8690	0	26.774	0	346.093	0	91.2	4	29.5	4	-1E+10	1	-1E+10	1	-1E+10	1	-1E+10	1	-1E+10	1	-1E+10	1
4902549	60	C	04/07/2022	20:07	-131.647	47.468	0	350.30	0	5.0720	0	33.8690	0	26.774	0	347.083	0	90.9	4	29.4	4	-1E+10	1	-1E+10	1	-1E+10	1	-1E+10	1	-1E+10	1	-1E+10	1
4902549	60	C	04/07/2022	20:07	-131.647	47.468	0	353.30	0	5.0570	0	33.8700	0	26.776	0	350.053	0	89.6	4	28.9	4	-1E+10	1	-1E+10	1	-1E+10	1	-1E+10	1	-1E+10	1	-1E+10	1
4902549	60	C	04/07/2022	20:07	-131.647	47.468	0	358.00	0	5.0110	0	33.8750	0	26.785	0	354.706	0	87.8	4	28.3	4	-1E+10	1	-1E+10	1	-1E+10	1	-1E+10	1	-1E+10	1	-1E+10	1
4902549	60	C	04/07/2022	20:07	-131.647	47.468	0	362.70	0	4.9820	0	33.8760	0	26.790	0	359.359	0	86.1	4	27.8	4	-1E+10	1	-1E+10	1	-1E+10	1	-1E+10	1	-1E+10	1	-1E+10	1
4902549	60	C	04/07/2022	20:07	-131.647	47.468	0	367.80	0	4.9300	0	33.8820	0	26.800	0	364.407	0	84.2	4	27.1	4	-1E+10	1	-1E+10	1	-1E+10	1	-1E+10	1	-1E+10	1	-1E+10	1
4902549	60	C	04/07/2022	20:07	-131.647	47.468	0	373.00	0	4.9020	0	33.8840	0	26.805	0	369.555	0	82.6	4	26.6	4	-1E+10	1	-1E+10	1	-1E+10	1	-1E+10	1	-1E+10	1	-1E+10	1
4902549	60	C	04/07/2022	20:07	-131.647	47.468	0	377.80	0	4.8700	0	33.8880	0	26.812	0	374.306	0	81.0	4	26.0	4	-1E+10	1	-1E+10	1	-1E+10	1	-1E+10	1	-1E+10	1	-1E+10	1
4902549	60	C	04/07/2022	20:07	-131.647	47.468	0	382.50	0	4.8390	0	33.8940	0	26.820	0	378.958	0	79.3	4	25.5	4	-1E+10	1	-1E+10	1	-1E+10	1	-1E+10	1	-1E+10	1	-1E+10	1
4902549	60	C	04/07/2022	20:07	-131.647	47.468	0	387.70	0	4.8140	0	33.9000	0	26.828	0	384.105	0	77.8	4	25.0	4	-1E+10	1	-1E+10	1	-1E+10	1	-1E+10	1	-1E+10	1	-1E+10	1
4902549	60	C	04/07/2022	20:07	-131.647	47.468	0	393.00	0	4.7900	0	33.9040	0	26.833	0	389.351	0	76.5	4	24.6	4	-1E+10	1	-1E+10	1	-1E+10	1	-1E+10	1	-1E+10	1	-1E+10	1
4902549	60	C	04/07/2022	20:07	-131.647	47.468	0	398.10	0	4.7730	0	33.9080	0	26.839	0	394.399	0	74.9	4	24.0	4	-1E+10	1	-1E+10	1	-1E+10	1	-1E+10	1	-1E+10	1	-1E+10	1
4902549	60	C	04/07/2022	20:07	-131.647	47.468	0	402.90	0	4.7510	0	33.9140	0	26.846	0	399.150	0	73.5	4	23.6	4	-1E+10	1	-1E+10	1	-1E+10	1	-1E+10	1	-1E+10	1	-1E+10	1
4902549	60	C	04/07/2022	20:07	-131.647	47.468	0	407.80	0	4.7300	0	33.9200	0	26.853	0	403.999	0	71.6	4	23.0	4	-1E+10	1	-1E+10	1	-1E+10	1	-1E+10	1	-1E+10	1	-1E+10	1
4902549	60	C	04/07/2022	20:07	-131.647	47.468	0	412.90	0	4.6970	0	33.9280	0	26.863	0	409.047	0	69.8	4	22.4	4	-1E+10	1	-1E+10	1	-1E+10	1	-1E+10	1	-1E+10	1	-1E+10	1
4902549	60	C	04/07/2022	20:07	-131.647	47.468	0	417.70	0	4.6690	0	33.9350	0	26.872	0	413.797	0	68.5	4	21.9	4	-1E+10	1	-1E+10	1	-1E+10	1	-1E+10	1	-1E+10	1	-1E+10	1
4902549	60	C	04/07/2022	20:07	-131.647	47.468	0	422.70	0	4.6540	0	33.9380	0	26.876	0	418.745	0	67.1	4	21.5	4	-1E+10	1	-1E+10	1	-1E+10	1	-1E+10	1	-1E+10	1	-1E+10	1
4902549	60	C	04/07/2022	20:07	-131.647	47.468	0	427.60	0	4.6320	0	33.9430	0	26.882	0	423.595	0	65.7	4	21.0	4	-1E+10	1	-1E+10	1	-1E+10	1	-1E+10	1	-1E+10	1	-1E+10	1
4902549	60	C	04/07/2022	20:07	-131.647	47.468	0	432.60	0	4.6050	0	33.9490	0	26.890	0	428.543	0	64.1	4	20.5	4	-1E+10	1	-1E+10	1	-1E+10	1	-1E+10	1	-1E+10	1	-1E+10	1
4902549	60	C	04/07/2022	20:07	-131.647	47.468	0	437.60	0	4.5890	0	33.9530	0	26.895	0	433.490	0	62.5	4	20.0	4	-1E+10	1	-1E+10	1	-1E+10	1	-1E+10	1	-1E+10	1	-1E+10	1
4902549	60	C	04/07/2022	20:07	-131.647	47.468	0	442.60	0	4.5670	0	33.9570	0	26.900	0	438.438	0	60.3	4	19.3	4	-1E+10	1	-1E+10	1	-1E+10	1	-1E+10	1	-1E+10	1	-1E+10	1
4902549	60	C	04/07/2022	20:07	-131.647	47.468	0	447.90	0	4.5310	0	33.9650	0	26.911	0	443.683	0	58.0	4	18.5	4	-1E+10	1	-1E+10	1	-1E+10	1	-1E+10	1	-1E+10	1	-1E+10	1
4902549	60	C	04/07/2022	20:07	-131.647	47.468	0	453.30	0	4.4920	0	33.9710	0	26.920	0	449.026	0	55.9	4	17.8	4	-1E+10	1	-1E+10	1	-1E+10	1	-1E+10	1	-1E+10	1	-1E+10	1
4902549	60	C	04/07/2022	20:07	-131.647	47.468	0	458.30	0	4.4680	0	33.9750	0	26.925	0	453.973	0	54.2	4	17.3	4	-1E+10	1	-1E+10	1	-1E+10	1	-1E+10	1	-1E+10	1	-1E+10	1
4902549	60	C	04/07/2022	20:07	-131.647	47.468	0	463.30	0	4.4490	0	33.9770	0	26.929	0	458.921	0	52.3	4	16.7	4	-1E+10	1	-1E+10	1	-1E+10	1	-1E+10	1	-1E+10	1	-1E+10	1
4902549	60	C	04/07/2022	20:07	-131.647	47.468	0	468.20	0	4.4180	0	33.9840	0	26.938	0	463.769	0	50.5	4	16.1	4	-1E+10	1	-1E+10	1	-1E+10	1	-1E+10	1	-1E+10	1	-1E+10	1
4902549	60	C	04/07/2022	20:07	-131.647	47.468	0	473.20	0	4.3960	0	33.9890	0	26.944	0	468.716	0	48.9	4	15.6	4	-1E+10	1	-1E+10	1	-1E+10	1	-1E+10	1	-1E+10	1	-1E+10	1
4902549	60	C	04/07/2022	20:07	-131.647	47.468	0	477.90	0	4.3810	0	33.9960	0	26.952	0	473.366	0	47.5	4	15.1	4	-1E+10	1	-1E+10	1	-1E+10	1	-1E+10	1	-1E+10	1	-1E+10	1
4902549	60	C	04/07/2022	20:07	-131.647	47.468	0	482.60	0	4.3640	0	34.0040	0	26.960	0	478.016	0	46.6	4	14.8	4	-1E+10	1	-1E+10	1	-1E+10	1	-1E+10	1	-1E+10	1	-1E+10	1
4902549	60	C	04/07/2022	20:07	-131.647	47.468	0	487.70	0	4.3490	0	34.0080	0	26.965	0	483.062	0	45.3	4	14.4	4	-1E+10	1	-1E+10	1	-1E+10	1	-1E+10	1	-1E+10	1	-1E+10	1
4902549	60	C	04/07/2022	20:07	-131.647	47.468	0	492.90	0	4.3370	0	34.0110	0	26.968	0	488.206	0	44.2	4	14.1	4	-1E+10	1	-1E+10	1	-1E+10	1	-1E+10	1	-1E+10	1	-1E+10	1
4902549	60	C	04/07/2022	20:07	-131.647	47.468	0	498.10	0	4.3270	0	34.0140	0	26.972	0	493.350	0	43.0	4	13.7	4	-1E+10	1	-1E+10	1	-1E+10	1	-1E+10	1	-1E+10	1	-1E+10	1
4902549	60	C	04/07/2022	20:07	-131.647	47.468	0	503.00	0	4.3120	0	34.0190	0	26.977	0	498.198	0	41.9	4	13.3	4	-1E+10	1	-1E+10	1	-1E+10	1	-1E+10	1	-1E+10	1	-1E+10	1
4902549	60	C	04/07/2022	20:07	-131.647	47.468	0	507.90	0	4.3030	0	34.0220	0	26.981	0	503.045	0	40.5	4	12.9	4	-1E+10	1	-1E+10	1	-1E+10	1	-1E+10	1	-1E+10	1	-1E+10	1
4902549	60	C	04/07/2022	20:07	-131.647	47.468	0	512.80	0	4.2830	0	34.0310	0	26.990	0	507.892	0	39.2	4	12.4	4	-1E+10	1	-1E+10	1	-1E+10	1	-1E+10	1	-1E+10	1	-1E+10	1
4902549	60	C	04/07/2022	20:07	-131.647	47.468	0	517.70	0	4.2710	0	34.0350	0	26.994	0	512.739	0	38.1	4	12.1	4	-1E+10	1	-1E+10	1	-1E+10	1	-1E+10	1	-1E+10	1	-1E+10	1
4902549	60	C	04/07/2022	20:07	-131.647	47.468	0	523.00	0	4.2540	0	34.0410	0	27.001	0	517.982	0	36.9	4	11.7	4	-1E+10	1	-1E+10	1	-1E+10	1	-1E+10	1	-1E+10	1	-1E+10	1
4902549	60	C	04/07/2022	20:07	-131.647	47.468	0	527.90	0	4.2460	0	34.0440	0	27.004	0	522.829	0	35.7	4	11.3	4	-1E+10	1	-1E+10	1	-1E+10	1	-1E+10	1	-1E+10	1	-1E+10	1
4902549	60	C	04/07/2022	20:07	-131.647	47.468	0	532.70	0	4.2220	0	34.0520	0	27.013	0	527.577	0	34.3	4	10.9	4	-1E+10	1	-1E+10	1	-1E+10	1	-1E+10	1	-1E+10	1	-1E+10	1
4902549	60	C	04/07/2022	20:07	-131.647	47.468	0	538.10	0	4.2050	0	34.0590	0	27.021	0	532.918	0	33.1	4	10.5	4	-1E+10	1	-1E+10	1	-1E+10	1	-1E+10	1	-1E+10	1	-1E+10	1
4902549	60	C	04/07/2022	20:07	-131.647	47.468	0	543.10	0	4.1870	0	34.0650	0	27.027	0	537.863	0	32.0	4	10.1	4	-1E+10	1	-1E+10	1	-1E+10	1	-1E+10	1	-1E+10	1	-1E+10	1
4902549	60	C	04/07/2022	20:07	-131.647	47.468	0	548.10	0	4.1750	0	34.0700	0	27.033	0	542.808	0	31.1	4	9.9	4	-1E+10	1	-1E+10	1	-1E+10	1	-1E+10	1	-1E+10	1	-1E+10	1
4902549	60	C	04/07/2022	20:07	-131.647	47.468	0	553.20	0	4.1620	0	34.0750	0	27.038	0	547.852	0	30.3	4	9.6	4	-1E+10	1	-1E+10	1	-1E+10	1	-1E+10	1	-1E+10	1	-1E+10	1
4902549	60	C	04/07/2022	20:07	-131.647	47.468	0	558.10	0	4.1500	0	34.0790	0	27.042	0	552.699	0	29.5	4	9.3	4	-1E+10	1	-1E+10	1	-1E+10	1	-1E+10	1	-1E+10	1	-1E+10	1
4902549	60	C	04/07/2022	20:07	-131.647	47.468	0	562.90	0	4.1390	0	34.0830	0	27.047	0	557.446	0	28.9	4	9.1	4	-1E+10	1	-1E+10	1	-1E+10	1	-1E+10	1	-1E+10	1	-1E+10	1
4902549	60	C	04/07/2022	20:07	-131.647	47.468	0	567.80	0	4.1290	0	34.0860	0	27.050	0	562.292	0	28.1	4	8.9	4	-1E+10	1	-1E+10	1	-1E+10	1	-1E+10	1	-1E+10	1	-1E+10	1
4902549	60	C	04/07/2022	20:07	-131.647	47.468	0	572.70	0	4.1140	0	34.0920	0	27.056	0	567.137	0	27.6	4	8.7	4	-1E+10	1	-1E+10	1	-1E+10	1	-1E+10	1	-1E+10	1	-1E+10	1
4902549	60	C	04/07/2022	20:07	-131.647	47.468	0	577.70	0	4.1120	0	34.0930	0	27.058	0	572.082	0	26.9	4	8.5	4	-1E+10	1	-1E+10	1	-1E+10	1	-1E+10	1	-1E+10	1	-1E+10	1
4902549	60	C	04/07/2022	20:07	-131.647	47.468	0	582.80	0	4.1030	0	34.0960	0	27.061	0	577.125	0	26.0	4	8.2	4	-1E+10	1	-1E+10	1	-1E+10	1	-1E+10	1	-1E+10	1	-1E+10	1
4902549	60	C	04/07/2022	20:07	-131.647	47.468	0	588.20	0	4.0790	0	34.1050	0	27.071	0	582.465	0	25.2	4	8.0	4	-1E+10	1	-1E+10	1	-1E+10	1	-1E+10	1	-1E+10	1	-1E+10	1
4902549	60	C	04/07/2022	20:07	-131.647	47.468	0	593.00	0	4.0690	0	34.1080	0	27.074	0	587.212	0	24.7	4	7.8	4	-1E+10	1	-1E+10	1	-1E+10	1	-1E+10	1	-1E+10	1	-1E+10	1
4902549	60	C	04/07/2022	20:07	-131.647	47.468	0	598.00	0	4.0580	0	34.1110	0	27.078	0	592.156	0	24.1	4	7.6	4	-1E+10	1	-1E+10	1	-1E+10	1	-1E+10	1	-1E+10	1	-1E+10	1
4902549	60	C	04/07/2022	20:07	-131.647	47.468	0	603.20	0	4.0470	0	34.1150	0	27.082	0	597.297	0	23.6	4	7.5	4	-1E+10	1	-1E+10	1	-1E+10	1	-1E+10	1	-1E+10	1	-1E+10	1
4902549	60	C	04/07/2022	20:07	-131.647	47.468	0	608.10	0	4.0400	0	34.1180	0	27.085	0	602.142	0	23.2	4	7.3	4	-1E+10	1	-1E+10	1	-1E+10	1	-1E+10	1	-1E+10	1	-1E+10	1
4902549	60	C	04/07/2022	20:07	-131.647	47.468	0	612.80	0	4.0350	0	34.1200	0	27.087	0	606.789	0	22.6	4	7.1	4	-1E+10	1	-1E+10	1	-1E+10	1	-1E+10	1	-1E+10	1	-1E+10	1
4902549	60	C	04/07/2022	20:07	-131.647	47.468	0	617.60	0	4.0260	0	34.1240	0	27.091	0	611.535	0	22.1	4	7.0	4	-1E+10	1	-1E+10	1	-1E+10	1	-1E+10	1	-1E+10	1	-1E+10	1
4902549	60	C	04/07/2022	20:07	-131.647	47.468	0	622.90	0	4.0160	0	34.1280	0	27.096	0	616.775	0	21.7	4	6.8	4	-1E+10	1	-1E+10	1	-1E+10	1	-1E+10	1	-1E+10	1	-1E+10	1
4902549	60	C	04/07/2022	20:07	-131.647	47.468	0	627.90	0	4.0120	0	34.1290	0	27.097	0	621.719	0	21.2	4	6.7	4	-1E+10	1	-1E+10	1	-1E+10	1	-1E+10	1	-1E+10	1	-1E+10	1
4902549	60	C	04/07/2022	20:07	-131.647	47.468	0	633.00	0	3.9980	0	34.1340	0	27.102	0	626.761	0	20.6	4	6.5	4	-1E+10	1	-1E+10	1	-1E+10	1	-1E+10	1	-1E+10	1	-1E+10	1
4902549	60	C	04/07/2022	20:07	-131.647	47.468	0	638.10	0	3.9840	0	34.1380	0	27.107	0	631.803	0	20.1	4	6.4	4	-1E+10	1	-1E+10	1	-1E+10	1	-1E+10	1	-1E+10	1	-1E+10	1
4902549	60	C	04/07/2022	20:07	-131.647	47.468	0	642.70	0	3.9740	0	34.1420	0	27.111	0	636.351	0	19.9	4	6.3	4	-1E+10	1	-1E+10	1	-1E+10	1	-1E+10	1	-1E+10	1	-1E+10	1
4902549	60	C	04/07/2022	20:07	-131.647	47.468	0	647.90	0	3.9680	0	34.1440	0	27.113	0	641.491	0	19.5	4	6.1	4	-1E+10	1	-1E+10	1	-1E+10	1	-1E+10	1	-1E+10	1	-1E+10	1
4902549	60	C	04/07/2022	20:07	-131.647	47.468	0	653.00	0	3.9600	0	34.1470	0	27.117	0	646.533	0	19.1	4	6.0	4	-1E+10	1	-1E+10	1	-1E+10	1	-1E+10	1	-1E+10	1	-1E+10	1
4902549	60	C	04/07/2022	20:07	-131.647	47.468	0	657.70	0	3.9520	0	34.1500	0	27.120	0	651.179	0	18.9	4	6.0	4	-1E+10	1	-1E+10	1	-1E+10	1	-1E+10	1	-1E+10	1	-1E+10	1
4902549	60	C	04/07/2022	20:07	-131.647	47.468	0	662.90	0	3.9480	0	34.1510	0	27.121	0	656.319	0	18.7	4	5.9	4	-1E+10	1	-1E+10	1	-1E+10	1	-1E+10	1	-1E+10	1	-1E+10	1
4902549	60	C	04/07/2022	20:07	-131.647	47.468	0	668.20	0	3.9440	0	34.1530	0	27.123	0	661.558	0	18.5	4	5.8	4	-1E+10	1	-1E+10	1	-1E+10	1	-1E+10	1	-1E+10	1	-1E+10	1
4902549	60	C	04/07/2022	20:07	-131.647	47.468	0	673.00	0	3.9400	0	34.1540	0	27.124	0	666.303	0	18.1	4	5.7	4	-1E+10	1	-1E+10	1	-1E+10	1	-1E+10	1	-1E+10	1	-1E+10	1
4902549	60	C	04/07/2022	20:07	-131.647	47.468	0	677.90	0	3.9270	0	34.1590	0	27.130	0	671.146	0	17.7	4	5.6	4	-1E+10	1	-1E+10	1	-1E+10	1	-1E+10	1	-1E+10	1	-1E+10	1
4902549	60	C	04/07/2022	20:07	-131.647	47.468	0	682.60	0	3.9230	0	34.1620	0	27.132	0	675.792	0	17.4	4	5.5	4	-1E+10	1	-1E+10	1	-1E+10	1	-1E+10	1	-1E+10	1	-1E+10	1
4902549	60	C	04/07/2022	20:07	-131.647	47.468	0	687.90	0	3.9130	0	34.1650	0	27.136	0	681.030	0	17.0	4	5.4	4	-1E+10	1	-1E+10	1	-1E+10	1	-1E+10	1	-1E+10	1	-1E+10	1
4902549	60	C	04/07/2022	20:07	-131.647	47.468	0	693.30	0	3.9040	0	34.1680	0	27.139	0	686.367	0	16.8	4	5.3	4	-1E+10	1	-1E+10	1	-1E+10	1	-1E+10	1	-1E+10	1	-1E+10	1
4902549	60	C	04/07/2022	20:07	-131.647	47.468	0	698.30	0	3.8990	0	34.1690	0	27.141	0	691.309	0	16.5	4	5.2	4	-1E+10	1	-1E+10	1	-1E+10	1	-1E+10	1	-1E+10	1	-1E+10	1
4902549	60	C	04/07/2022	20:07	-131.647	47.468	0	703.20	0	3.8980	0	34.1700	0	27.142	0	696.152	0	16.1	4	5.1	4	-1E+10	1	-1E+10	1	-1E+10	1	-1E+10	1	-1E+10	1	-1E+10	1
4902549	60	C	04/07/2022	20:07	-131.647	47.468	0	708.00	0	3.8800	0	34.1740	0	27.147	0	700.896	0	15.4	4	4.8	4	-1E+10	1	-1E+10	1	-1E+10	1	-1E+10	1	-1E+10	1	-1E+10	1
4902549	60	C	04/07/2022	20:07	-131.647	47.468	0	712.90	0	3.8660	0	34.1790	0	27.152	0	705.738	0	14.7	4	4.6	4	-1E+10	1	-1E+10	1	-1E+10	1	-1E+10	1	-1E+10	1	-1E+10	1
4902549	60	C	04/07/2022	20:07	-131.647	47.468	0	717.80	0	3.8500	0	34.1870	0	27.160	0	710.581	0	14.1	4	4.4	4	-1E+10	1	-1E+10	1	-1E+10	1	-1E+10	1	-1E+10	1	-1E+10	1
4902549	60	C	04/07/2022	20:07	-131.647	47.468	0	722.70	0	3.8310	0	34.1930	0	27.167	0	715.423	0	13.6	4	4.3	4	-1E+10	1	-1E+10	1	-1E+10	1	-1E+10	1	-1E+10	1	-1E+10	1
4902549	60	C	04/07/2022	20:07	-131.647	47.468	0	727.70	0	3.7960	0	34.2010	0	27.177	0	720.364	0	13.1	4	4.1	4	-1E+10	1	-1E+10	1	-1E+10	1	-1E+10	1	-1E+10	1	-1E+10	1
4902549	60	C	04/07/2022	20:07	-131.647	47.468	0	732.70	0	3.7780	0	34.2070	0	27.183	0	725.305	0	13.0	4	4.1	4	-1E+10	1	-1E+10	1	-1E+10	1	-1E+10	1	-1E+10	1	-1E+10	1
4902549	60	C	04/07/2022	20:07	-131.647	47.468	0	737.70	0	3.7740	0	34.2070	0	27.184	0	730.246	0	12.9	4	4.0	4	-1E+10	1	-1E+10	1	-1E+10	1	-1E+10	1	-1E+10	1	-1E+10	1
4902549	60	C	04/07/2022	20:07	-131.647	47.468	0	742.70	0	3.7590	0	34.2100	0	27.188	0	735.186	0	12.7	4	4.0	4	-1E+10	1	-1E+10	1	-1E+10	1	-1E+10	1	-1E+10	1	-1E+10	1
4902549	60	C	04/07/2022	20:07	-131.647	47.468	0	747.90	0	3.7510	0	34.2120	0	27.190	0	740.325	0	12.5	4	3.9	4	-1E+10	1	-1E+10	1	-1E+10	1	-1E+10	1	-1E+10	1	-1E+10	1
4902549	60	C	04/07/2022	20:07	-131.647	47.468	0	753.20	0	3.7470	0	34.2140	0	27.192	0	745.561	0	12.3	4	3.9	4	-1E+10	1	-1E+10	1	-1E+10	1	-1E+10	1	-1E+10	1	-1E+10	1
4902549	60	C	04/07/2022	20:07	-131.647	47.468	0	758.00	0	3.7350	0	34.2160	0	27.195	0	750.304	0	12.1	4	3.8	4	-1E+10	1	-1E+10	1	-1E+10	1	-1E+10	1	-1E+10	1	-1E+10	1
4902549	60	C	04/07/2022	20:07	-131.647	47.468	0	762.70	0	3.7260	0	34.2190	0	27.198	0	754.948	0	11.8	4	3.7	4	-1E+10	1	-1E+10	1	-1E+10	1	-1E+10	1	-1E+10	1	-1E+10	1
4902549	60	C	04/07/2022	20:07	-131.647	47.468	0	768.00	0	3.7000	0	34.2250	0	27.205	0	760.184	0	11.7	4	3.7	4	-1E+10	1	-1E+10	1	-1E+10	1	-1E+10	1	-1E+10	1	-1E+10	1
4902549	60	C	04/07/2022	20:07	-131.647	47.468	0	773.20	0	3.6930	0	34.2270	0	27.208	0	765.322	0	11.5	4	3.6	4	-1E+10	1	-1E+10	1	-1E+10	1	-1E+10	1	-1E+10	1	-1E+10	1
4902549	60	C	04/07/2022	20:07	-131.647	47.468	0	778.00	0	3.6900	0	34.2280	0	27.209	0	770.064	0	11.3	4	3.6	4	-1E+10	1	-1E+10	1	-1E+10	1	-1E+10	1	-1E+10	1	-1E+10	1
4902549	60	C	04/07/2022	20:07	-131.647	47.468	0	782.80	0	3.6800	0	34.2300	0	27.211	0	774.806	0	11.1	4	3.5	4	-1E+10	1	-1E+10	1	-1E+10	1	-1E+10	1	-1E+10	1	-1E+10	1
4902549	60	C	04/07/2022	20:07	-131.647	47.468	0	788.10	0	3.6570	0	34.2360	0	27.219	0	780.042	0	10.8	4	3.4	4	-1E+10	1	-1E+10	1	-1E+10	1	-1E+10	1	-1E+10	1	-1E+10	1
4902549	60	C	04/07/2022	20:07	-131.647	47.468	0	792.90	0	3.6490	0	34.2380	0	27.221	0	784.784	0	10.6	4	3.3	4	-1E+10	1	-1E+10	1	-1E+10	1	-1E+10	1	-1E+10	1	-1E+10	1
4902549	60	C	04/07/2022	20:07	-131.647	47.468	0	797.80	0	3.6420	0	34.2400	0	27.223	0	789.625	0	10.4	4	3.2	4	-1E+10	1	-1E+10	1	-1E+10	1	-1E+10	1	-1E+10	1	-1E+10	1
4902549	60	C	04/07/2022	20:07	-131.647	47.468	0	803.10	0	3.6280	0	34.2430	0	27.227	0	794.860	0	10.0	4	3.1	4	-1E+10	1	-1E+10	1	-1E+10	1	-1E+10	1	-1E+10	1	-1E+10	1
4902549	60	C	04/07/2022	20:07	-131.647	47.468	0	808.00	0	3.6160	0	34.2470	0	27.231	0	799.701	0	9.8	4	3.1	4	-1E+10	1	-1E+10	1	-1E+10	1	-1E+10	1	-1E+10	1	-1E+10	1
4902549	60	C	04/07/2022	20:07	-131.647	47.468	0	812.80	0	3.6020	0	34.2510	0	27.236	0	804.442	0	9.6	4	3.0	4	-1E+10	1	-1E+10	1	-1E+10	1	-1E+10	1	-1E+10	1	-1E+10	1
4902549	60	C	04/07/2022	20:07	-131.647	47.468	0	818.20	0	3.5940	0	34.2530	0	27.238	0	809.776	0	9.4	4	2.9	4	-1E+10	1	-1E+10	1	-1E+10	1	-1E+10	1	-1E+10	1	-1E+10	1
4902549	60	C	04/07/2022	20:07	-131.647	47.468	0	823.10	0	3.5840	0	34.2560	0	27.242	0	814.616	0	9.3	4	2.9	4	-1E+10	1	-1E+10	1	-1E+10	1	-1E+10	1	-1E+10	1	-1E+10	1
4902549	60	C	04/07/2022	20:07	-131.647	47.468	0	828.00	0	3.5720	0	34.2590	0	27.245	0	819.456	0	9.1	4	2.8	4	-1E+10	1	-1E+10	1	-1E+10	1	-1E+10	1	-1E+10	1	-1E+10	1
4902549	60	C	04/07/2022	20:07	-131.647	47.468	0	833.30	0	3.5620	0	34.2620	0	27.249	0	824.691	0	9.0	4	2.8	4	-1E+10	1	-1E+10	1	-1E+10	1	-1E+10	1	-1E+10	1	-1E+10	1
4902549	60	C	04/07/2022	20:07	-131.647	47.468	0	838.10	0	3.5500	0	34.2650	0	27.252	0	829.432	0	8.9	4	2.8	4	-1E+10	1	-1E+10	1	-1E+10	1	-1E+10	1	-1E+10	1	-1E+10	1
4902549	60	C	04/07/2022	20:07	-131.647	47.468	0	843.10	0	3.5370	0	34.2680	0	27.256	0	834.370	0	8.8	4	2.7	4	-1E+10	1	-1E+10	1	-1E+10	1	-1E+10	1	-1E+10	1	-1E+10	1
4902549	60	C	04/07/2022	20:07	-131.647	47.468	0	848.10	0	3.5250	0	34.2710	0	27.260	0	839.308	0	8.7	4	2.7	4	-1E+10	1	-1E+10	1	-1E+10	1	-1E+10	1	-1E+10	1	-1E+10	1
4902549	60	C	04/07/2022	20:07	-131.647	47.468	0	853.20	0	3.5150	0	34.2740	0	27.263	0	844.345	0	8.6	4	2.7	4	-1E+10	1	-1E+10	1	-1E+10	1	-1E+10	1	-1E+10	1	-1E+10	1
4902549	60	C	04/07/2022	20:07	-131.647	47.468	0	858.20	0	3.5030	0	34.2760	0	27.266	0	849.283	0	8.5	4	2.7	4	-1E+10	1	-1E+10	1	-1E+10	1	-1E+10	1	-1E+10	1	-1E+10	1
4902549	60	C	04/07/2022	20:07	-131.647	47.468	0	862.90	0	3.4950	0	34.2780	0	27.268	0	853.925	0	8.4	4	2.6	4	-1E+10	1	-1E+10	1	-1E+10	1	-1E+10	1	-1E+10	1	-1E+10	1
4902549	60	C	04/07/2022	20:07	-131.647	47.468	0	867.70	0	3.4830	0	34.2810	0	27.272	0	858.665	0	8.3	4	2.6	4	-1E+10	1	-1E+10	1	-1E+10	1	-1E+10	1	-1E+10	1	-1E+10	1
4902549	60	C	04/07/2022	20:07	-131.647	47.468	0	872.80	0	3.4720	0	34.2830	0	27.274	0	863.701	0	8.2	4	2.6	4	-1E+10	1	-1E+10	1	-1E+10	1	-1E+10	1	-1E+10	1	-1E+10	1
4902549	60	C	04/07/2022	20:07	-131.647	47.468	0	878.10	0	3.4610	0	34.2870	0	27.279	0	868.935	0	8.1	4	2.5	4	-1E+10	1	-1E+10	1	-1E+10	1	-1E+10	1	-1E+10	1	-1E+10	1
4902549	60	C	04/07/2022	20:07	-131.647	47.468	0	883.00	0	3.4470	0	34.2910	0	27.283	0	873.774	0	8.0	4	2.5	4	-1E+10	1	-1E+10	1	-1E+10	1	-1E+10	1	-1E+10	1	-1E+10	1
4902549	60	C	04/07/2022	20:07	-131.647	47.468	0	887.90	0	3.4350	0	34.2940	0	27.287	0	878.612	0	7.9	4	2.5	4	-1E+10	1	-1E+10	1	-1E+10	1	-1E+10	1	-1E+10	1	-1E+10	1
4902549	60	C	04/07/2022	20:07	-131.647	47.468	0	893.00	0	3.4190	0	34.2980	0	27.292	0	883.648	0	7.7	4	2.4	4	-1E+10	1	-1E+10	1	-1E+10	1	-1E+10	1	-1E+10	1	-1E+10	1
4902549	60	C	04/07/2022	20:07	-131.647	47.468	0	897.70	0	3.4090	0	34.3010	0	27.295	0	888.289	0	7.6	4	2.4	4	-1E+10	1	-1E+10	1	-1E+10	1	-1E+10	1	-1E+10	1	-1E+10	1
4902549	60	C	04/07/2022	20:07	-131.647	47.468	0	902.80	0	3.4000	0	34.3030	0	27.297	0	893.324	0	7.5	4	2.3	4	-1E+10	1	-1E+10	1	-1E+10	1	-1E+10	1	-1E+10	1	-1E+10	1
4902549	60	C	04/07/2022	20:07	-131.647	47.468	0	908.00	0	3.3860	0	34.3070	0	27.302	0	898.459	0	7.5	4	2.3	4	-1E+10	1	-1E+10	1	-1E+10	1	-1E+10	1	-1E+10	1	-1E+10	1
4902549	60	C	04/07/2022	20:07	-131.647	47.468	0	912.60	0	3.3780	0	34.3090	0	27.304	0	903.000	0	7.4	4	2.3	4	-1E+10	1	-1E+10	1	-1E+10	1	-1E+10	1	-1E+10	1	-1E+10	1
4902549	60	C	04/07/2022	20:07	-131.647	47.468	0	917.80	0	3.3670	0	34.3120	0	27.308	0	908.135	0	7.3	4	2.3	4	-1E+10	1	-1E+10	1	-1E+10	1	-1E+10	1	-1E+10	1	-1E+10	1
4902549	60	C	04/07/2022	20:07	-131.647	47.468	0	923.00	0	3.3570	0	34.3150	0	27.311	0	913.268	0	7.2	4	2.3	4	-1E+10	1	-1E+10	1	-1E+10	1	-1E+10	1	-1E+10	1	-1E+10	1
4902549	60	C	04/07/2022	20:07	-131.647	47.468	0	927.80	0	3.3480	0	34.3170	0	27.314	0	918.007	0	7.2	4	2.2	4	-1E+10	1	-1E+10	1	-1E+10	1	-1E+10	1	-1E+10	1	-1E+10	1
4902549	60	C	04/07/2022	20:07	-131.647	47.468	0	932.60	0	3.3260	0	34.3220	0	27.320	0	922.746	0	7.1	4	2.2	4	-1E+10	1	-1E+10	1	-1E+10	1	-1E+10	1	-1E+10	1	-1E+10	1
4902549	60	C	04/07/2022	20:07	-131.647	47.468	0	937.90	0	3.3050	0	34.3270	0	27.326	0	927.978	0	7.1	4	2.2	4	-1E+10	1	-1E+10	1	-1E+10	1	-1E+10	1	-1E+10	1	-1E+10	1
4902549	60	C	04/07/2022	20:07	-131.647	47.468	0	943.30	0	3.2980	0	34.3280	0	27.327	0	933.309	0	7.1	4	2.2	4	-1E+10	1	-1E+10	1	-1E+10	1	-1E+10	1	-1E+10	1	-1E+10	1
4902549	60	C	04/07/2022	20:07	-131.647	47.468	0	948.10	0	3.2920	0	34.3300	0	27.329	0	938.048	0	7.0	4	2.2	4	-1E+10	1	-1E+10	1	-1E+10	1	-1E+10	1	-1E+10	1	-1E+10	1
4902549	60	C	04/07/2022	20:07	-131.647	47.468	0	952.90	0	3.2840	0	34.3310	0	27.331	0	942.786	0	7.0	4	2.2	4	-1E+10	1	-1E+10	1	-1E+10	1	-1E+10	1	-1E+10	1	-1E+10	1
4902549	60	C	04/07/2022	20:07	-131.647	47.468	0	957.80	0	3.2720	0	34.3350	0	27.335	0	947.623	0	6.9	4	2.1	4	-1E+10	1	-1E+10	1	-1E+10	1	-1E+10	1	-1E+10	1	-1E+10	1
4902549	60	C	04/07/2022	20:07	-131.647	47.468	0	962.60	0	3.2570	0	34.3400	0	27.341	0	952.361	0	6.9	4	2.1	4	-1E+10	1	-1E+10	1	-1E+10	1	-1E+10	1	-1E+10	1	-1E+10	1
4902549	60	C	04/07/2022	20:07	-131.647	47.468	0	967.50	0	3.2510	0	34.3410	0	27.342	0	957.198	0	6.9	4	2.1	4	-1E+10	1	-1E+10	1	-1E+10	1	-1E+10	1	-1E+10	1	-1E+10	1
4902549	60	C	04/07/2022	20:07	-131.647	47.468	0	972.90	0	3.2460	0	34.3420	0	27.343	0	962.528	0	6.8	4	2.1	4	-1E+10	1	-1E+10	1	-1E+10	1	-1E+10	1	-1E+10	1	-1E+10	1
4902549	60	C	04/07/2022	20:07	-131.647	47.468	0	978.40	0	3.2430	0	34.3430	0	27.345	0	967.956	0	6.8	4	2.1	4	-1E+10	1	-1E+10	1	-1E+10	1	-1E+10	1	-1E+10	1	-1E+10	1
4902549	60	C	04/07/2022	20:07	-131.647	47.468	0	983.40	0	3.2390	0	34.3450	0	27.347	0	972.891	0	6.8	4	2.1	4	-1E+10	1	-1E+10	1	-1E+10	1	-1E+10	1	-1E+10	1	-1E+10	1
4902549	60	C	04/07/2022	20:07	-131.647	47.468	0	988.30	0	3.2310	0	34.3480	0	27.350	0	977.728	0	6.7	4	2.1	4	-1E+10	1	-1E+10	1	-1E+10	1	-1E+10	1	-1E+10	1	-1E+10	1
4902549	60	C	04/07/2022	20:07	-131.647	47.468	0	993.30	0	3.2270	0	34.3500	0	27.352	0	982.662	0	6.7	4	2.1	4	-1E+10	1	-1E+10	1	-1E+10	1	-1E+10	1	-1E+10	1	-1E+10	1
4902549	60	C	04/07/2022	20:07	-131.647	47.468	0	998.20	0	3.2170	0	34.3520	0	27.354	0	987.498	0	6.7	4	2.1	4	-1E+10	1	-1E+10	1	-1E+10	1	-1E+10	1	-1E+10	1	-1E+10	1
4902549	60	C	04/07/2022	20:07	-131.647	47.468	0	1005.60	0	3.2060	0	34.3560	0	27.359	0	994.801	0	6.6	4	2.1	4	-1E+10	1	-1E+10	1	-1E+10	1	-1E+10	1	-1E+10	1	-1E+10	1
4902549	60	C	04/07/2022	20:07	-131.647	47.468	0	1015.60	0	3.1840	0	34.3620	0	27.365	0	1004.670	0	6.6	4	2.1	4	-1E+10	1	-1E+10	1	-1E+10	1	-1E+10	1	-1E+10	1	-1E+10	1
4902549	60	C	04/07/2022	20:07	-131.647	47.468	0	1025.40	0	3.1630	0	34.3680	0	27.372	0	1014.341	0	6.7	4	2.1	4	-1E+10	1	-1E+10	1	-1E+10	1	-1E+10	1	-1E+10	1	-1E+10	1
4902549	60	C	04/07/2022	20:07	-131.647	47.468	0	1035.70	0	3.1470	0	34.3720	0	27.377	0	1024.505	0	6.7	4	2.1	4	-1E+10	1	-1E+10	1	-1E+10	1	-1E+10	1	-1E+10	1	-1E+10	1
4902549	60	C	04/07/2022	20:07	-131.647	47.468	0	1045.50	0	3.1320	0	34.3750	0	27.381	0	1034.175	0	6.8	4	2.1	4	-1E+10	1	-1E+10	1	-1E+10	1	-1E+10	1	-1E+10	1	-1E+10	1
4902549	60	C	04/07/2022	20:07	-131.647	47.468	0	1055.40	0	3.1190	0	34.3790	0	27.385	0	1043.943	0	6.8	4	2.1	4	-1E+10	1	-1E+10	1	-1E+10	1	-1E+10	1	-1E+10	1	-1E+10	1
4902549	60	C	04/07/2022	20:07	-131.647	47.468	0	1065.50	0	3.1030	0	34.3820	0	27.389	0	1053.908	0	6.9	4	2.1	4	-1E+10	1	-1E+10	1	-1E+10	1	-1E+10	1	-1E+10	1	-1E+10	1
4902549	60	C	04/07/2022	20:07	-131.647	47.468	0	1075.50	0	3.0840	0	34.3860	0	27.394	0	1063.774	0	7.0	4	2.2	4	-1E+10	1	-1E+10	1	-1E+10	1	-1E+10	1	-1E+10	1	-1E+10	1
4902549	60	C	04/07/2022	20:07	-131.647	47.468	0	1085.50	0	3.0670	0	34.3890	0	27.398	0	1073.639	0	7.1	4	2.2	4	-1E+10	1	-1E+10	1	-1E+10	1	-1E+10	1	-1E+10	1	-1E+10	1
4902549	60	C	04/07/2022	20:07	-131.647	47.468	0	1095.80	0	3.0390	0	34.3940	0	27.405	0	1083.800	0	7.3	4	2.2	4	-1E+10	1	-1E+10	1	-1E+10	1	-1E+10	1	-1E+10	1	-1E+10	1
4902549	60	C	04/07/2022	20:07	-131.647	47.468	0	1105.30	0	3.0110	0	34.3990	0	27.411	0	1093.171	0	7.4	4	2.3	4	-1E+10	1	-1E+10	1	-1E+10	1	-1E+10	1	-1E+10	1	-1E+10	1
4902549	60	C	04/07/2022	20:07	-131.647	47.468	0	1115.20	0	3.0020	0	34.4010	0	27.414	0	1102.936	0	7.4	4	2.3	4	-1E+10	1	-1E+10	1	-1E+10	1	-1E+10	1	-1E+10	1	-1E+10	1
4902549	60	C	04/07/2022	20:07	-131.647	47.468	0	1125.60	0	2.9920	0	34.4030	0	27.416	0	1113.195	0	7.5	4	2.3	4	-1E+10	1	-1E+10	1	-1E+10	1	-1E+10	1	-1E+10	1	-1E+10	1
4902549	60	C	04/07/2022	20:07	-131.647	47.468	0	1136.20	0	2.9740	0	34.4060	0	27.420	0	1123.649	0	7.7	4	2.4	4	-1E+10	1	-1E+10	1	-1E+10	1	-1E+10	1	-1E+10	1	-1E+10	1
4902549	60	C	04/07/2022	20:07	-131.647	47.468	0	1145.60	0	2.9540	0	34.4100	0	27.425	0	1132.920	0	7.8	4	2.4	4	-1E+10	1	-1E+10	1	-1E+10	1	-1E+10	1	-1E+10	1	-1E+10	1
4902549	60	C	04/07/2022	20:07	-131.647	47.468	0	1155.40	0	2.9430	0	34.4120	0	27.428	0	1142.585	0	7.9	4	2.4	4	-1E+10	1	-1E+10	1	-1E+10	1	-1E+10	1	-1E+10	1	-1E+10	1
4902549	60	C	04/07/2022	20:07	-131.647	47.468	0	1165.60	0	2.9320	0	34.4140	0	27.431	0	1152.644	0	8.0	4	2.5	4	-1E+10	1	-1E+10	1	-1E+10	1	-1E+10	1	-1E+10	1	-1E+10	1
4902549	60	C	04/07/2022	20:07	-131.647	47.468	0	1175.40	0	2.9080	0	34.4180	0	27.436	0	1162.308	0	8.2	4	2.5	4	-1E+10	1	-1E+10	1	-1E+10	1	-1E+10	1	-1E+10	1	-1E+10	1
4902549	60	C	04/07/2022	20:07	-131.647	47.468	0	1185.30	0	2.8950	0	34.4210	0	27.440	0	1172.070	0	8.4	4	2.6	4	-1E+10	1	-1E+10	1	-1E+10	1	-1E+10	1	-1E+10	1	-1E+10	1
4902549	60	C	04/07/2022	20:07	-131.647	47.468	0	1195.70	0	2.8870	0	34.4220	0	27.441	0	1182.325	0	8.5	4	2.6	4	-1E+10	1	-1E+10	1	-1E+10	1	-1E+10	1	-1E+10	1	-1E+10	1
4902549	60	C	04/07/2022	20:07	-131.647	47.468	0	1205.50	0	2.8790	0	34.4240	0	27.444	0	1191.987	0	8.6	4	2.6	4	-1E+10	1	-1E+10	1	-1E+10	1	-1E+10	1	-1E+10	1	-1E+10	1
4902549	60	C	04/07/2022	20:07	-131.647	47.468	0	1215.50	0	2.8700	0	34.4250	0	27.445	0	1201.847	0	8.7	4	2.7	4	-1E+10	1	-1E+10	1	-1E+10	1	-1E+10	1	-1E+10	1	-1E+10	1
4902549	60	C	04/07/2022	20:07	-131.647	47.468	0	1225.60	0	2.8520	0	34.4280	0	27.449	0	1211.804	0	9.0	4	2.8	4	-1E+10	1	-1E+10	1	-1E+10	1	-1E+10	1	-1E+10	1	-1E+10	1
4902549	60	C	04/07/2022	20:07	-131.647	47.468	0	1235.50	0	2.8360	0	34.4310	0	27.453	0	1221.564	0	9.2	4	2.8	4	-1E+10	1	-1E+10	1	-1E+10	1	-1E+10	1	-1E+10	1	-1E+10	1
4902549	60	C	04/07/2022	20:07	-131.647	47.468	0	1245.50	0	2.8190	0	34.4340	0	27.457	0	1231.422	0	9.4	4	2.9	4	-1E+10	1	-1E+10	1	-1E+10	1	-1E+10	1	-1E+10	1	-1E+10	1
4902549	60	C	04/07/2022	20:07	-131.647	47.468	0	1255.50	0	2.8110	0	34.4350	0	27.459	0	1241.280	0	9.5	4	2.9	4	-1E+10	1	-1E+10	1	-1E+10	1	-1E+10	1	-1E+10	1	-1E+10	1
4902549	60	C	04/07/2022	20:07	-131.647	47.468	0	1265.40	0	2.7940	0	34.4380	0	27.463	0	1251.038	0	9.8	4	3.0	4	-1E+10	1	-1E+10	1	-1E+10	1	-1E+10	1	-1E+10	1	-1E+10	1
4902549	60	C	04/07/2022	20:07	-131.647	47.468	0	1275.20	0	2.7780	0	34.4410	0	27.466	0	1260.697	0	10.1	4	3.1	4	-1E+10	1	-1E+10	1	-1E+10	1	-1E+10	1	-1E+10	1	-1E+10	1
4902549	60	C	04/07/2022	20:07	-131.647	47.468	0	1285.30	0	2.7580	0	34.4440	0	27.471	0	1270.652	0	10.4	4	3.2	4	-1E+10	1	-1E+10	1	-1E+10	1	-1E+10	1	-1E+10	1	-1E+10	1
4902549	60	C	04/07/2022	20:07	-131.647	47.468	0	1295.20	0	2.7390	0	34.4480	0	27.476	0	1280.409	0	10.8	4	3.3	4	-1E+10	1	-1E+10	1	-1E+10	1	-1E+10	1	-1E+10	1	-1E+10	1
4902549	60	C	04/07/2022	20:07	-131.647	47.468	0	1305.50	0	2.7130	0	34.4520	0	27.481	0	1290.560	0	11.2	4	3.4	4	-1E+10	1	-1E+10	1	-1E+10	1	-1E+10	1	-1E+10	1	-1E+10	1
4902549	60	C	04/07/2022	20:07	-131.647	47.468	0	1315.80	0	2.6900	0	34.4550	0	27.486	0	1300.711	0	11.7	4	3.6	4	-1E+10	1	-1E+10	1	-1E+10	1	-1E+10	1	-1E+10	1	-1E+10	1
4902549	60	C	04/07/2022	20:07	-131.647	47.468	0	1325.70	0	2.6650	0	34.4590	0	27.491	0	1310.466	0	12.3	4	3.8	4	-1E+10	1	-1E+10	1	-1E+10	1	-1E+10	1	-1E+10	1	-1E+10	1
4902549	60	C	04/07/2022	20:07	-131.647	47.468	0	1335.60	0	2.6370	0	34.4640	0	27.497	0	1320.221	0	12.9	4	3.9	4	-1E+10	1	-1E+10	1	-1E+10	1	-1E+10	1	-1E+10	1	-1E+10	1
4902549	60	C	04/07/2022	20:07	-131.647	47.468	0	1345.40	0	2.6210	0	34.4670	0	27.501	0	1329.878	0	13.1	4	4.0	4	-1E+10	1	-1E+10	1	-1E+10	1	-1E+10	1	-1E+10	1	-1E+10	1
4902549	60	C	04/07/2022	20:07	-131.647	47.468	0	1355.20	0	2.6160	0	34.4680	0	27.502	0	1339.533	0	13.5	4	4.1	4	-1E+10	1	-1E+10	1	-1E+10	1	-1E+10	1	-1E+10	1	-1E+10	1
4902549	60	C	04/07/2022	20:07	-131.647	47.468	0	1365.20	0	2.5970	0	34.4710	0	27.507	0	1349.386	0	14.0	4	4.3	4	-1E+10	1	-1E+10	1	-1E+10	1	-1E+10	1	-1E+10	1	-1E+10	1
4902549	60	C	04/07/2022	20:07	-131.647	47.468	0	1375.50	0	2.5810	0	34.4740	0	27.510	0	1359.533	0	14.4	4	4.4	4	-1E+10	1	-1E+10	1	-1E+10	1	-1E+10	1	-1E+10	1	-1E+10	1
4902549	60	C	04/07/2022	20:07	-131.647	47.468	0	1385.70	0	2.5650	0	34.4770	0	27.514	0	1369.582	0	14.7	4	4.5	4	-1E+10	1	-1E+10	1	-1E+10	1	-1E+10	1	-1E+10	1	-1E+10	1
4902549	60	C	04/07/2022	20:07	-131.647	47.468	0	1395.80	0	2.5570	0	34.4780	0	27.516	0	1379.531	0	15.1	4	4.6	4	-1E+10	1	-1E+10	1	-1E+10	1	-1E+10	1	-1E+10	1	-1E+10	1
4902549	60	C	04/07/2022	20:07	-131.647	47.468	0	1405.80	0	2.5420	0	34.4810	0	27.519	0	1389.382	0	15.4	4	4.7	4	-1E+10	1	-1E+10	1	-1E+10	1	-1E+10	1	-1E+10	1	-1E+10	1
4902549	60	C	04/07/2022	20:07	-131.647	47.468	0	1415.30	0	2.5370	0	34.4820	0	27.521	0	1398.740	0	15.7	4	4.8	4	-1E+10	1	-1E+10	1	-1E+10	1	-1E+10	1	-1E+10	1	-1E+10	1
4902549	60	C	04/07/2022	20:07	-131.647	47.468	0	1425.50	0	2.5270	0	34.4830	0	27.522	0	1408.786	0	15.9	4	4.9	4	-1E+10	1	-1E+10	1	-1E+10	1	-1E+10	1	-1E+10	1	-1E+10	1
4902549	60	C	04/07/2022	20:07	-131.647	47.468	0	1435.20	0	2.5210	0	34.4840	0	27.524	0	1418.340	0	16.2	4	4.9	4	-1E+10	1	-1E+10	1	-1E+10	1	-1E+10	1	-1E+10	1	-1E+10	1
4902549	60	C	04/07/2022	20:07	-131.647	47.468	0	1445.20	0	2.5120	0	34.4860	0	27.526	0	1428.189	0	16.4	4	5.0	4	-1E+10	1	-1E+10	1	-1E+10	1	-1E+10	1	-1E+10	1	-1E+10	1
4902549	60	C	04/07/2022	20:07	-131.647	47.468	0	1455.30	0	2.5080	0	34.4860	0	27.527	0	1438.135	0	16.9	4	5.1	4	-1E+10	1	-1E+10	1	-1E+10	1	-1E+10	1	-1E+10	1	-1E+10	1
4902549	60	C	04/07/2022	20:07	-131.647	47.468	0	1465.60	0	2.4880	0	34.4900	0	27.532	0	1448.279	0	17.4	4	5.3	4	-1E+10	1	-1E+10	1	-1E+10	1	-1E+10	1	-1E+10	1	-1E+10	1
4902549	60	C	04/07/2022	20:07	-131.647	47.468	0	1475.60	0	2.4760	0	34.4920	0	27.534	0	1458.126	0	17.8	4	5.4	4	-1E+10	1	-1E+10	1	-1E+10	1	-1E+10	1	-1E+10	1	-1E+10	1
4902549	60	C	04/07/2022	20:07	-131.647	47.468	0	1485.20	0	2.4650	0	34.4940	0	27.537	0	1467.579	0	18.3	4	5.6	4	-1E+10	1	-1E+10	1	-1E+10	1	-1E+10	1	-1E+10	1	-1E+10	1
4902549	60	C	04/07/2022	20:07	-131.647	47.468	0	1495.50	0	2.4550	0	34.4960	0	27.539	0	1477.721	0	18.6	4	5.7	4	-1E+10	1	-1E+10	1	-1E+10	1	-1E+10	1	-1E+10	1	-1E+10	1
4902549	60	C	04/07/2022	20:07	-131.647	47.468	0	1505.80	0	2.4460	0	34.4970	0	27.541	0	1487.862	0	19.0	4	5.8	4	-1E+10	1	-1E+10	1	-1E+10	1	-1E+10	1	-1E+10	1	-1E+10	1
4902549	60	C	04/07/2022	20:07	-131.647	47.468	0	1515.70	0	2.4390	0	34.4990	0	27.543	0	1497.609	0	19.5	4	5.9	4	-1E+10	1	-1E+10	1	-1E+10	1	-1E+10	1	-1E+10	1	-1E+10	1
4902549	60	C	04/07/2022	20:07	-131.647	47.468	0	1525.60	0	2.4290	0	34.5000	0	27.545	0	1507.356	0	20.0	4	6.1	4	-1E+10	1	-1E+10	1	-1E+10	1	-1E+10	1	-1E+10	1	-1E+10	1
4902549	60	C	04/07/2022	20:07	-131.647	47.468	0	1535.40	0	2.4190	0	34.5020	0	27.547	0	1517.003	0	20.5	4	6.3	4	-1E+10	1	-1E+10	1	-1E+10	1	-1E+10	1	-1E+10	1	-1E+10	1
4902549	60	C	04/07/2022	20:07	-131.647	47.468	0	1545.60	0	2.4020	0	34.5050	0	27.551	0	1527.044	0	21.3	4	6.5	4	-1E+10	1	-1E+10	1	-1E+10	1	-1E+10	1	-1E+10	1	-1E+10	1
4902549	60	C	04/07/2022	20:07	-131.647	47.468	0	1555.60	0	2.3820	0	34.5080	0	27.555	0	1536.888	0	22.0	4	6.7	4	-1E+10	1	-1E+10	1	-1E+10	1	-1E+10	1	-1E+10	1	-1E+10	1
4902549	60	C	04/07/2022	20:07	-131.647	47.468	0	1565.50	0	2.3690	0	34.5100	0	27.558	0	1546.633	0	22.7	4	6.9	4	-1E+10	1	-1E+10	1	-1E+10	1	-1E+10	1	-1E+10	1	-1E+10	1
4902549	60	C	04/07/2022	20:07	-131.647	47.468	0	1575.50	0	2.3590	0	34.5120	0	27.560	0	1556.475	0	23.2	4	7.1	4	-1E+10	1	-1E+10	1	-1E+10	1	-1E+10	1	-1E+10	1	-1E+10	1
4902549	60	C	04/07/2022	20:07	-131.647	47.468	0	1585.50	0	2.3470	0	34.5140	0	27.563	0	1566.318	0	23.8	4	7.2	4	-1E+10	1	-1E+10	1	-1E+10	1	-1E+10	1	-1E+10	1	-1E+10	1
4902549	60	C	04/07/2022	20:07	-131.647	47.468	0	1595.50	0	2.3320	0	34.5170	0	27.567	0	1576.159	0	24.5	4	7.4	4	-1E+10	1	-1E+10	1	-1E+10	1	-1E+10	1	-1E+10	1	-1E+10	1
4902549	60	C	04/07/2022	20:07	-131.647	47.468	0	1605.40	0	2.3140	0	34.5190	0	27.570	0	1585.902	0	25.3	4	7.7	4	-1E+10	1	-1E+10	1	-1E+10	1	-1E+10	1	-1E+10	1	-1E+10	1
4902549	60	C	04/07/2022	20:07	-131.647	47.468	0	1615.40	0	2.3030	0	34.5220	0	27.573	0	1595.743	0	26.3	4	8.0	4	-1E+10	1	-1E+10	1	-1E+10	1	-1E+10	1	-1E+10	1	-1E+10	1
4902549	60	C	04/07/2022	20:07	-131.647	47.468	0	1625.40	0	2.2920	0	34.5250	0	27.577	0	1605.584	0	27.2	4	8.3	4	-1E+10	1	-1E+10	1	-1E+10	1	-1E+10	1	-1E+10	1	-1E+10	1
4902549	60	C	04/07/2022	20:07	-131.647	47.468	0	1635.50	0	2.2830	0	34.5270	0	27.579	0	1615.522	0	27.8	4	8.4	4	-1E+10	1	-1E+10	1	-1E+10	1	-1E+10	1	-1E+10	1	-1E+10	1
4902549	60	C	04/07/2022	20:07	-131.647	47.468	0	1645.20	0	2.2760	0	34.5280	0	27.580	0	1625.066	0	28.2	4	8.6	4	-1E+10	1	-1E+10	1	-1E+10	1	-1E+10	1	-1E+10	1	-1E+10	1
4902549	60	C	04/07/2022	20:07	-131.647	47.468	0	1655.30	0	2.2640	0	34.5300	0	27.583	0	1635.004	0	28.7	4	8.7	4	-1E+10	1	-1E+10	1	-1E+10	1	-1E+10	1	-1E+10	1	-1E+10	1
4902549	60	C	04/07/2022	20:07	-131.647	47.468	0	1665.40	0	2.2550	0	34.5320	0	27.585	0	1644.941	0	29.3	4	8.9	4	-1E+10	1	-1E+10	1	-1E+10	1	-1E+10	1	-1E+10	1	-1E+10	1
4902549	60	C	04/07/2022	20:07	-131.647	47.468	0	1675.40	0	2.2480	0	34.5330	0	27.587	0	1654.779	0	29.7	4	9.0	4	-1E+10	1	-1E+10	1	-1E+10	1	-1E+10	1	-1E+10	1	-1E+10	1
4902549	60	C	04/07/2022	20:07	-131.647	47.468	0	1685.60	0	2.2370	0	34.5340	0	27.589	0	1664.813	0	30.4	4	9.2	4	-1E+10	1	-1E+10	1	-1E+10	1	-1E+10	1	-1E+10	1	-1E+10	1
4902549	60	C	04/07/2022	20:07	-131.647	47.468	0	1695.50	0	2.2320	0	34.5360	0	27.591	0	1674.552	0	31.1	4	9.4	4	-1E+10	1	-1E+10	1	-1E+10	1	-1E+10	1	-1E+10	1	-1E+10	1
4902549	60	C	04/07/2022	20:07	-131.647	47.468	0	1705.50	0	2.2190	0	34.5380	0	27.593	0	1684.389	0	31.8	4	9.6	4	-1E+10	1	-1E+10	1	-1E+10	1	-1E+10	1	-1E+10	1	-1E+10	1
4902549	60	C	04/07/2022	20:07	-131.647	47.468	0	1715.60	0	2.1960	0	34.5410	0	27.598	0	1694.324	0	32.7	4	9.9	4	-1E+10	1	-1E+10	1	-1E+10	1	-1E+10	1	-1E+10	1	-1E+10	1
4902549	60	C	04/07/2022	20:07	-131.647	47.468	0	1725.60	0	2.1850	0	34.5430	0	27.600	0	1704.159	0	33.9	4	10.3	4	-1E+10	1	-1E+10	1	-1E+10	1	-1E+10	1	-1E+10	1	-1E+10	1
4902549	60	C	04/07/2022	20:07	-131.647	47.468	0	1735.60	0	2.1660	0	34.5460	0	27.604	0	1713.995	0	34.7	4	10.5	4	-1E+10	1	-1E+10	1	-1E+10	1	-1E+10	1	-1E+10	1	-1E+10	1
4902549	60	C	04/07/2022	20:07	-131.647	47.468	0	1745.40	0	2.1420	0	34.5480	0	27.608	0	1723.633	0	35.3	4	10.7	4	-1E+10	1	-1E+10	1	-1E+10	1	-1E+10	1	-1E+10	1	-1E+10	1
4902549	60	C	04/07/2022	20:07	-131.647	47.468	0	1755.30	0	2.1250	0	34.5500	0	27.611	0	1733.369	0	36.1	4	10.9	4	-1E+10	1	-1E+10	1	-1E+10	1	-1E+10	1	-1E+10	1	-1E+10	1
4902549	60	C	04/07/2022	20:07	-131.647	47.468	0	1765.30	0	2.1130	0	34.5520	0	27.613	0	1743.203	0	36.9	4	11.1	4	-1E+10	1	-1E+10	1	-1E+10	1	-1E+10	1	-1E+10	1	-1E+10	1
4902549	60	C	04/07/2022	20:07	-131.647	47.468	0	1775.10	0	2.0980	0	34.5540	0	27.616	0	1752.840	0	37.6	4	11.4	4	-1E+10	1	-1E+10	1	-1E+10	1	-1E+10	1	-1E+10	1	-1E+10	1
4902549	60	C	04/07/2022	20:07	-131.647	47.468	0	1785.20	0	2.0900	0	34.5550	0	27.618	0	1762.772	0	38.3	4	11.6	4	-1E+10	1	-1E+10	1	-1E+10	1	-1E+10	1	-1E+10	1	-1E+10	1
4902549	60	C	04/07/2022	20:07	-131.647	47.468	0	1795.50	0	2.0790	0	34.5570	0	27.620	0	1772.899	0	39.1	4	11.8	4	-1E+10	1	-1E+10	1	-1E+10	1	-1E+10	1	-1E+10	1	-1E+10	1
4902549	60	C	04/07/2022	20:07	-131.647	47.468	0	1805.40	0	2.0710	0	34.5590	0	27.622	0	1782.633	0	39.7	4	12.0	4	-1E+10	1	-1E+10	1	-1E+10	1	-1E+10	1	-1E+10	1	-1E+10	1
4902549	60	C	04/07/2022	20:07	-131.647	47.468	0	1815.20	0	2.0630	0	34.5600	0	27.624	0	1792.268	0	40.3	4	12.2	4	-1E+10	1	-1E+10	1	-1E+10	1	-1E+10	1	-1E+10	1	-1E+10	1
4902549	60	C	04/07/2022	20:07	-131.647	47.468	0	1825.20	0	2.0590	0	34.5610	0	27.625	0	1802.099	0	40.7	4	12.3	4	-1E+10	1	-1E+10	1	-1E+10	1	-1E+10	1	-1E+10	1	-1E+10	1
4902549	60	C	04/07/2022	20:07	-131.647	47.468	0	1835.60	0	2.0520	0	34.5620	0	27.626	0	1812.323	0	41.3	4	12.5	4	-1E+10	1	-1E+10	1	-1E+10	1	-1E+10	1	-1E+10	1	-1E+10	1
4902549	60	C	04/07/2022	20:07	-131.647	47.468	0	1845.80	0	2.0450	0	34.5640	0	27.629	0	1822.351	0	41.8	4	12.6	4	-1E+10	1	-1E+10	1	-1E+10	1	-1E+10	1	-1E+10	1	-1E+10	1
4902549	60	C	04/07/2022	20:07	-131.647	47.468	0	1855.80	0	2.0380	0	34.5650	0	27.630	0	1832.180	0	42.3	4	12.8	4	-1E+10	1	-1E+10	1	-1E+10	1	-1E+10	1	-1E+10	1	-1E+10	1
4902549	60	C	04/07/2022	20:07	-131.647	47.468	0	1865.40	0	2.0360	0	34.5660	0	27.631	0	1841.617	0	42.9	4	12.9	4	-1E+10	1	-1E+10	1	-1E+10	1	-1E+10	1	-1E+10	1	-1E+10	1
4902549	60	C	04/07/2022	20:07	-131.647	47.468	0	1875.30	0	2.0230	0	34.5680	0	27.634	0	1851.347	0	43.7	4	13.2	4	-1E+10	1	-1E+10	1	-1E+10	1	-1E+10	1	-1E+10	1	-1E+10	1
4902549	60	C	04/07/2022	20:07	-131.647	47.468	0	1885.30	0	2.0140	0	34.5690	0	27.635	0	1861.176	0	44.3	4	13.4	4	-1E+10	1	-1E+10	1	-1E+10	1	-1E+10	1	-1E+10	1	-1E+10	1
4902549	60	C	04/07/2022	20:07	-131.647	47.468	0	1895.50	0	2.0090	0	34.5710	0	27.637	0	1871.201	0	44.8	4	13.5	4	-1E+10	1	-1E+10	1	-1E+10	1	-1E+10	1	-1E+10	1	-1E+10	1
4902549	60	C	04/07/2022	20:07	-131.647	47.468	0	1905.50	0	2.0000	0	34.5720	0	27.639	0	1881.028	0	45.5	4	13.7	4	-1E+10	1	-1E+10	1	-1E+10	1	-1E+10	1	-1E+10	1	-1E+10	1
4902549	60	C	04/07/2022	20:07	-131.647	47.468	0	1915.60	0	1.9950	0	34.5730	0	27.640	0	1890.954	0	46.0	4	13.9	4	-1E+10	1	-1E+10	1	-1E+10	1	-1E+10	1	-1E+10	1	-1E+10	1
4902549	60	C	04/07/2022	20:07	-131.647	47.468	0	1925.60	0	1.9880	0	34.5750	0	27.642	0	1900.780	0	46.6	4	14.0	4	-1E+10	1	-1E+10	1	-1E+10	1	-1E+10	1	-1E+10	1	-1E+10	1
4902549	60	C	04/07/2022	20:07	-131.647	47.468	0	1935.30	0	1.9830	0	34.5760	0	27.644	0	1910.312	0	47.3	4	14.3	4	-1E+10	1	-1E+10	1	-1E+10	1	-1E+10	1	-1E+10	1	-1E+10	1
4902549	60	C	04/07/2022	20:07	-131.647	47.468	0	1945.20	0	1.9750	0	34.5790	0	27.647	0	1920.039	0	48.0	4	14.5	4	-1E+10	1	-1E+10	1	-1E+10	1	-1E+10	1	-1E+10	1	-1E+10	1
4902549	60	C	04/07/2022	20:07	-131.647	47.468	0	1955.00	0	1.9680	0	34.5800	0	27.648	0	1929.668	0	48.2	4	14.5	4	-1E+10	1	-1E+10	1	-1E+10	1	-1E+10	1	-1E+10	1	-1E+10	1
4902549	60	C	04/07/2022	20:07	-131.647	47.468	0	1965.30	0	1.9630	0	34.5810	0	27.649	0	1939.788	0	47.7	4	14.4	4	-1E+10	1	-1E+10	1	-1E+10	1	-1E+10	1	-1E+10	1	-1E+10	1
4902549	60	C	04/07/2022	20:07	-131.647	47.468	0																										
4902549	61	C	04/18/2022	01:00	-131.602	47.445	0	0.30	0	7.9090	0	32.2920	0	25.161	0	0.297	0	282.6	4	96.4	4	-1E+10	1	-1E+10	1	-1E+10	1	-1E+10	1	-1E+10	1	-1E+10	1
4902549	61	C	04/18/2022	01:00	-131.602	47.445	0	1.10	0	7.9120	0	32.2860	0	25.156	0	1.091	0	282.6	4	96.4	4	-1E+10	1	-1E+10	1	-1E+10	1	-1E+10	1	-1E+10	1	-1E+10	1
4902549	61	C	04/18/2022	01:00	-131.602	47.445	0	2.10	0	7.9080	0	32.2850	0	25.156	0	2.082	0	282.5	4	96.3	4	-1E+10	1	-1E+10	1	-1E+10	1	-1E+10	1	-1E+10	1	-1E+10	1
4902549	61	C	04/18/2022	01:00	-131.602	47.445	0	3.00	0	7.9080	0	32.2790	0	25.151	0	2.975	0	282.5	4	96.3	4	-1E+10	1	-1E+10	1	-1E+10	1	-1E+10	1	-1E+10	1	-1E+10	1
4902549	61	C	04/18/2022	01:00	-131.602	47.445	0	4.00	0	7.8970	0	32.2870	0	25.159	0	3.967	0	282.6	4	96.3	4	-1E+10	1	-1E+10	1	-1E+10	1	-1E+10	1	-1E+10	1	-1E+10	1
4902549	61	C	04/18/2022	01:00	-131.602	47.445	0	5.10	0	7.8880	0	32.2970	0	25.168	0	5.057	0	282.6	4	96.3	4	-1E+10	1	-1E+10	1	-1E+10	1	-1E+10	1	-1E+10	1	-1E+10	1
4902549	61	C	04/18/2022	01:00	-131.602	47.445	0	5.90	0	7.8850	0	32.2970	0	25.168	0	5.851	0	282.4	4	96.3	4	-1E+10	1	-1E+10	1	-1E+10	1	-1E+10	1	-1E+10	1	-1E+10	1
4902549	61	C	04/18/2022	01:00	-131.602	47.445	0	7.00	0	7.8810	0	32.2950	0	25.167	0	6.941	0	282.5	4	96.3	4	-1E+10	1	-1E+10	1	-1E+10	1	-1E+10	1	-1E+10	1	-1E+10	1
4902549	61	C	04/18/2022	01:00	-131.602	47.445	0	7.90	0	7.8720	0	32.2950	0	25.169	0	7.834	0	282.6	4	96.3	4	-1E+10	1	-1E+10	1	-1E+10	1	-1E+10	1	-1E+10	1	-1E+10	1
4902549	61	C	04/18/2022	01:00	-131.602	47.445	0	9.10	0	7.8640	0	32.2970	0	25.171	0	9.024	0	282.5	4	96.2	4	-1E+10	1	-1E+10	1	-1E+10	1	-1E+10	1	-1E+10	1	-1E+10	1
4902549	61	C	04/18/2022	01:00	-131.602	47.445	0	10.00	0	7.8610	0	32.2960	0	25.171	0	9.916	0	282.4	4	96.2	4	-1E+10	1	-1E+10	1	-1E+10	1	-1E+10	1	-1E+10	1	-1E+10	1
4902549	61	C	04/18/2022	01:00	-131.602	47.445	0	11.00	0	7.8600	0	32.2960	0	25.171	0	10.908	0	282.4	4	96.2	4	-1E+10	1	-1E+10	1	-1E+10	1	-1E+10	1	-1E+10	1	-1E+10	1
4902549	61	C	04/18/2022	01:00	-131.602	47.445	0	12.10	0	7.8560	0	32.2960	0	25.172	0	11.999	0	282.5	4	96.2	4	-1E+10	1	-1E+10	1	-1E+10	1	-1E+10	1	-1E+10	1	-1E+10	1
4902549	61	C	04/18/2022	01:00	-131.602	47.445	0	12.80	0	7.8550	0	32.2960	0	25.172	0	12.693	0	282.4	4	96.2	4	-1E+10	1	-1E+10	1	-1E+10	1	-1E+10	1	-1E+10	1	-1E+10	1
4902549	61	C	04/18/2022	01:00	-131.602	47.445	0	14.00	0	7.8540	0	32.2960	0	25.172	0	13.883	0	282.3	4	96.2	4	-1E+10	1	-1E+10	1	-1E+10	1	-1E+10	1	-1E+10	1	-1E+10	1
4902549	61	C	04/18/2022	01:00	-131.602	47.445	0	15.10	0	7.8490	0	32.2960	0	25.173	0	14.974	0	282.3	4	96.2	4	-1E+10	1	-1E+10	1	-1E+10	1	-1E+10	1	-1E+10	1	-1E+10	1
4902549	61	C	04/18/2022	01:00	-131.602	47.445	0	16.00	0	7.8490	0	32.2960	0	25.173	0	15.866	0	282.3	4	96.1	4	-1E+10	1	-1E+10	1	-1E+10	1	-1E+10	1	-1E+10	1	-1E+10	1
4902549	61	C	04/18/2022	01:00	-131.602	47.445	0	17.00	0	7.8490	0	32.2960	0	25.173	0	16.858	0	282.3	4	96.1	4	-1E+10	1	-1E+10	1	-1E+10	1	-1E+10	1	-1E+10	1	-1E+10	1
4902549	61	C	04/18/2022	01:00	-131.602	47.445	0	17.90	0	7.8490	0	32.2960	0	25.173	0	17.750	0	282.2	4	96.1	4	-1E+10	1	-1E+10	1	-1E+10	1	-1E+10	1	-1E+10	1	-1E+10	1
4902549	61	C	04/18/2022	01:00	-131.602	47.445	0	19.00	0	7.8480	0	32.2960	0	25.173	0	18.841	0	282.2	4	96.1	4	-1E+10	1	-1E+10	1	-1E+10	1	-1E+10	1	-1E+10	1	-1E+10	1
4902549	61	C	04/18/2022	01:00	-131.602	47.445	0	19.90	0	7.8450	0	32.2970	0	25.174	0	19.733	0	282.2	4	96.1	4	-1E+10	1	-1E+10	1	-1E+10	1	-1E+10	1	-1E+10	1	-1E+10	1
4902549	61	C	04/18/2022	01:00	-131.602	47.445	0	21.00	0	7.8400	0	32.2960	0	25.174	0	20.824	0	282.2	4	96.1	4	-1E+10	1	-1E+10	1	-1E+10	1	-1E+10	1	-1E+10	1	-1E+10	1
4902549	61	C	04/18/2022	01:00	-131.602	47.445	0	22.00	0	7.8400	0	32.2960	0	25.174	0	21.815	0	282.1	4	96.1	4	-1E+10	1	-1E+10	1	-1E+10	1	-1E+10	1	-1E+10	1	-1E+10	1
4902549	61	C	04/18/2022	01:00	-131.602	47.445	0	23.20	0	7.8420	0	32.2960	0	25.174	0	23.005	0	282.1	4	96.1	4	-1E+10	1	-1E+10	1	-1E+10	1	-1E+10	1	-1E+10	1	-1E+10	1
4902549	61	C	04/18/2022	01:00	-131.602	47.445	0	23.90	0	7.8400	0	32.2960	0	25.174	0	23.699	0	282.2	4	96.1	4	-1E+10	1	-1E+10	1	-1E+10	1	-1E+10	1	-1E+10	1	-1E+10	1
4902549	61	C	04/18/2022	01:00	-131.602	47.445	0	24.80	0	7.8400	0	32.2960	0	25.174	0	24.592	0	282.1	4	96.1	4	-1E+10	1	-1E+10	1	-1E+10	1	-1E+10	1	-1E+10	1	-1E+10	1
4902549	61	C	04/18/2022	01:00	-131.602	47.445	0	25.80	0	7.8390	0	32.2960	0	25.174	0	25.583	0	282.1	4	96.1	4	-1E+10	1	-1E+10	1	-1E+10	1	-1E+10	1	-1E+10	1	-1E+10	1
4902549	61	C	04/18/2022	01:00	-131.602	47.445	0	26.90	0	7.8390	0	32.2950	0	25.174	0	26.674	0	282.1	4	96.0	4	-1E+10	1	-1E+10	1	-1E+10	1	-1E+10	1	-1E+10	1	-1E+10	1
4902549	61	C	04/18/2022	01:00	-131.602	47.445	0	28.00	0	7.8390	0	32.2960	0	25.175	0	27.765	0	281.9	4	96.0	4	-1E+10	1	-1E+10	1	-1E+10	1	-1E+10	1	-1E+10	1	-1E+10	1
4902549	61	C	04/18/2022	01:00	-131.602	47.445	0	29.10	0	7.8390	0	32.2960	0	25.175	0	28.855	0	282.0	4	96.0	4	-1E+10	1	-1E+10	1	-1E+10	1	-1E+10	1	-1E+10	1	-1E+10	1
4902549	61	C	04/18/2022	01:00	-131.602	47.445	0	30.10	0	7.8380	0	32.2970	0	25.175	0	29.847	0	281.8	4	96.0	4	-1E+10	1	-1E+10	1	-1E+10	1	-1E+10	1	-1E+10	1	-1E+10	1
4902549	61	C	04/18/2022	01:00	-131.602	47.445	0	31.10	0	7.8370	0	32.2960	0	25.175	0	30.838	0	281.8	4	95.9	4	-1E+10	1	-1E+10	1	-1E+10	1	-1E+10	1	-1E+10	1	-1E+10	1
4902549	61	C	04/18/2022	01:00	-131.602	47.445	0	32.10	0	7.8370	0	32.2960	0	25.175	0	31.830	0	281.8	4	96.0	4	-1E+10	1	-1E+10	1	-1E+10	1	-1E+10	1	-1E+10	1	-1E+10	1
4902549	61	C	04/18/2022	01:00	-131.602	47.445	0	33.10	0	7.8370	0	32.2960	0	25.175	0	32.821	0	281.8	4	96.0	4	-1E+10	1	-1E+10	1	-1E+10	1	-1E+10	1	-1E+10	1	-1E+10	1
4902549	61	C	04/18/2022	01:00	-131.602	47.445	0	34.10	0	7.8370	0	32.2970	0	25.176	0	33.813	0	281.7	4	95.9	4	-1E+10	1	-1E+10	1	-1E+10	1	-1E+10	1	-1E+10	1	-1E+10	1
4902549	61	C	04/18/2022	01:00	-131.602	47.445	0	35.10	0	7.8370	0	32.2960	0	25.175	0	34.804	0	281.6	4	95.9	4	-1E+10	1	-1E+10	1	-1E+10	1	-1E+10	1	-1E+10	1	-1E+10	1
4902549	61	C	04/18/2022	01:00	-131.602	47.445	0	36.10	0	7.8360	0	32.2960	0	25.175	0	35.796	0	281.6	4	95.9	4	-1E+10	1	-1E+10	1	-1E+10	1	-1E+10	1	-1E+10	1	-1E+10	1
4902549	61	C	04/18/2022	01:00	-131.602	47.445	0	37.00	0	7.8350	0	32.2960	0	25.175	0	36.688	0	281.6	4	95.9	4	-1E+10	1	-1E+10	1	-1E+10	1	-1E+10	1	-1E+10	1	-1E+10	1
4902549	61	C	04/18/2022	01:00	-131.602	47.445	0	37.70	0	7.8340	0	32.2960	0	25.175	0	37.382	0	281.6	4	95.9	4	-1E+10	1	-1E+10	1	-1E+10	1	-1E+10	1	-1E+10	1	-1E+10	1
4902549	61	C	04/18/2022	01:00	-131.602	47.445	0	38.70	0	7.8330	0	32.2960	0	25.175	0	38.374	0	281.5	4	95.8	4	-1E+10	1	-1E+10	1	-1E+10	1	-1E+10	1	-1E+10	1	-1E+10	1
4902549	61	C	04/18/2022	01:00	-131.602	47.445	0	39.70	0	7.8320	0	32.2960	0	25.176	0	39.365	0	281.5	4	95.8	4	-1E+10	1	-1E+10	1	-1E+10	1	-1E+10	1	-1E+10	1	-1E+10	1
4902549	61	C	04/18/2022	01:00	-131.602	47.445	0	40.70	0	7.8320	0	32.2970	0	25.176	0	40.357	0	281.4	4	95.8	4	-1E+10	1	-1E+10	1	-1E+10	1	-1E+10	1	-1E+10	1	-1E+10	1
4902549	61	C	04/18/2022	01:00	-131.602	47.445	0	41.70	0	7.8320	0	32.2960	0	25.176	0	41.348	0	281.4	4	95.8	4	-1E+10	1	-1E+10	1	-1E+10	1	-1E+10	1	-1E+10	1	-1E+10	1
4902549	61	C	04/18/2022	01:00	-131.602	47.445	0	43.10	0	7.8330	0	32.2960	0	25.176	0	42.736	0	281.2	4	95.7	4	-1E+10	1	-1E+10	1	-1E+10	1	-1E+10	1	-1E+10	1	-1E+10	1
4902549	61	C	04/18/2022	01:00	-131.602	47.445	0	44.30	0	7.8330	0	32.2960	0	25.176	0	43.926	0	281.2	4	95.8	4	-1E+10	1	-1E+10	1	-1E+10	1	-1E+10	1	-1E+10	1	-1E+10	1
4902549	61	C	04/18/2022	01:00	-131.602	47.445	0	45.00	0	7.8330	0	32.2970	0	25.176	0	44.620	0	281.1	4	95.7	4	-1E+10	1	-1E+10	1	-1E+10	1	-1E+10	1	-1E+10	1	-1E+10	1
4902549	61	C	04/18/2022	01:00	-131.602	47.445	0	46.00	0	7.8320	0	32.2960	0	25.176	0	45.611	0	281.1	4	95.7	4	-1E+10	1	-1E+10	1	-1E+10	1	-1E+10	1	-1E+10	1	-1E+10	1
4902549	61	C	04/18/2022	01:00	-131.602	47.445	0	47.00	0	7.8280	0	32.2970	0	25.177	0	46.603	0	281.0	4	95.7	4	-1E+10	1	-1E+10	1	-1E+10	1	-1E+10	1	-1E+10	1	-1E+10	1
4902549	61	C	04/18/2022	01:00	-131.602	47.445	0	48.10	0	7.8280	0	32.2970	0	25.177	0	47.693	0	280.9	4	95.6	4	-1E+10	1	-1E+10	1	-1E+10	1	-1E+10	1	-1E+10	1	-1E+10	1
4902549	61	C	04/18/2022	01:00	-131.602	47.445	0	49.00	0	7.8290	0	32.2960	0	25.176	0	48.586	0	280.8	4	95.6	4	-1E+10	1	-1E+10	1	-1E+10	1	-1E+10	1	-1E+10	1	-1E+10	1
4902549	61	C	04/18/2022	01:00	-131.602	47.445	0	49.70	0	7.8290	0	32.2970	0	25.177	0	49.280	0	280.7	4	95.6	4	-1E+10	1	-1E+10	1	-1E+10	1	-1E+10	1	-1E+10	1	-1E+10	1
4902549	61	C	04/18/2022	01:00	-131.602	47.445	0	50.70	0	7.8280	0	32.2970	0	25.177	0	50.271	0	280.7	4	95.5	4	-1E+10	1	-1E+10	1	-1E+10	1	-1E+10	1	-1E+10	1	-1E+10	1
4902549	61	C	04/18/2022	01:00	-131.602	47.445	0	51.70	0	7.8260	0	32.2960	0	25.177	0	51.262	0	280.6	4	95.5	4	-1E+10	1	-1E+10	1	-1E+10	1	-1E+10	1	-1E+10	1	-1E+10	1
4902549	61	C	04/18/2022	01:00	-131.602	47.445	0	53.10	0	7.8260	0	32.2960	0	25.177	0	52.650	0	280.4	4	95.4	4	-1E+10	1	-1E+10	1	-1E+10	1	-1E+10	1	-1E+10	1	-1E+10	1
4902549	61	C	04/18/2022	01:00	-131.602	47.445	0	54.10	0	7.8250	0	32.2960	0	25.177	0	53.642	0	280.3	4	95.4	4	-1E+10	1	-1E+10	1	-1E+10	1	-1E+10	1	-1E+10	1	-1E+10	1
4902549	61	C	04/18/2022	01:00	-131.602	47.445	0	55.30	0	7.8220	0	32.2970	0	25.178	0	54.831	0	280.1	4	95.3	4	-1E+10	1	-1E+10	1	-1E+10	1	-1E+10	1	-1E+10	1	-1E+10	1
4902549	61	C	04/18/2022	01:00	-131.602	47.445	0	56.10	0	7.8210	0	32.2960	0	25.177	0	55.625	0	280.1	4	95.3	4	-1E+10	1	-1E+10	1	-1E+10	1	-1E+10	1	-1E+10	1	-1E+10	1
4902549	61	C	04/18/2022	01:00	-131.602	47.445	0	57.30	0	7.8220	0	32.2950	0	25.177	0	56.814	0	279.8	4	95.2	4	-1E+10	1	-1E+10	1	-1E+10	1	-1E+10	1	-1E+10	1	-1E+10	1
4902549	61	C	04/18/2022	01:00	-131.602	47.445	0	58.00	0	7.8190	0	32.2960	0	25.178	0	57.508	0	279.8	4	95.2	4	-1E+10	1	-1E+10	1	-1E+10	1	-1E+10	1	-1E+10	1	-1E+10	1
4902549	61	C	04/18/2022	01:00	-131.602	47.445	0	59.00	0	7.8170	0	32.2970	0	25.179	0	58.500	0	279.6	4	95.2	4	-1E+10	1	-1E+10	1	-1E+10	1	-1E+10	1	-1E+10	1	-1E+10	1
4902549	61	C	04/18/2022	01:00	-131.602	47.445	0	60.00	0	7.8150	0	32.2970	0	25.179	0	59.491	0	279.4	4	95.1	4	-1E+10	1	-1E+10	1	-1E+10	1	-1E+10	1	-1E+10	1	-1E+10	1
4902549	61	C	04/18/2022	01:00	-131.602	47.445	0	60.90	0	7.8150	0	32.2970	0	25.179	0	60.383	0	279.3	4	95.1	4	-1E+10	1	-1E+10	1	-1E+10	1	-1E+10	1	-1E+10	1	-1E+10	1
4902549	61	C	04/18/2022	01:00	-131.602	47.445	0	62.00	0	7.8140	0	32.2970	0	25.179	0	61.474	0	279.0	4	94.9	4	-1E+10	1	-1E+10	1	-1E+10	1	-1E+10	1	-1E+10	1	-1E+10	1
4902549	61	C	04/18/2022	01:00	-131.602	47.445	0	63.00	0	7.8090	0	32.2970	0	25.180	0	62.465	0	278.8	4	94.9	4	-1E+10	1	-1E+10	1	-1E+10	1	-1E+10	1	-1E+10	1	-1E+10	1
4902549	61	C	04/18/2022	01:00	-131.602	47.445	0	63.90	0	7.8070	0	32.2970	0	25.180	0	63.357	0	278.7	4	94.8	4	-1E+10	1	-1E+10	1	-1E+10	1	-1E+10	1	-1E+10	1	-1E+10	1
4902549	61	C	04/18/2022	01:00	-131.602	47.445	0	65.00	0	7.8030	0	32.2960	0	25.180	0	64.448	0	278.4	4	94.7	4	-1E+10	1	-1E+10	1	-1E+10	1	-1E+10	1	-1E+10	1	-1E+10	1
4902549	61	C	04/18/2022	01:00	-131.602	47.445	0	66.10	0	7.8020	0	32.2970	0	25.181	0	65.538	0	278.2	4	94.7	4	-1E+10	1	-1E+10	1	-1E+10	1	-1E+10	1	-1E+10	1	-1E+10	1
4902549	61	C	04/18/2022	01:00	-131.602	47.445	0	67.10	0	7.8000	0	32.2960	0	25.181	0	66.530	0	278.0	4	94.6	4	-1E+10	1	-1E+10	1	-1E+10	1	-1E+10	1	-1E+10	1	-1E+10	1
4902549	61	C	04/18/2022	01:00	-131.602	47.445	0	68.00	0	7.7940	0	32.2960	0	25.181	0	67.422	0	277.8	4	94.5	4	-1E+10	1	-1E+10	1	-1E+10	1	-1E+10	1	-1E+10	1	-1E+10	1
4902549	61	C	04/18/2022	01:00	-131.602	47.445	0	68.80	0	7.7900	0	32.2970	0	25.183	0	68.215	0	277.6	4	94.4	4	-1E+10	1	-1E+10	1	-1E+10	1	-1E+10	1	-1E+10	1	-1E+10	1
4902549	61	C	04/18/2022	01:00	-131.602	47.445	0	69.90	0	7.7880	0	32.2970	0	25.183	0	69.305	0	277.2	4	94.3	4	-1E+10	1	-1E+10	1	-1E+10	1	-1E+10	1	-1E+10	1	-1E+10	1
4902549	61	C	04/18/2022	01:00	-131.602	47.445	0	71.10	0	7.7870	0	32.2970	0	25.183	0	70.495	0	276.9	4	94.2	4	-1E+10	1	-1E+10	1	-1E+10	1	-1E+10	1	-1E+10	1	-1E+10	1
4902549	61	C	04/18/2022	01:00	-131.602	47.445	0	71.90	0	7.7870	0	32.2970	0	25.183	0	71.288	0	276.5	4	94.0	4	-1E+10	1	-1E+10	1	-1E+10	1	-1E+10	1	-1E+10	1	-1E+10	1
4902549	61	C	04/18/2022	01:00	-131.602	47.445	0	72.80	0	7.7850	0	32.2970	0	25.184	0	72.180	0	276.1	4	93.9	4	-1E+10	1	-1E+10	1	-1E+10	1	-1E+10	1	-1E+10	1	-1E+10	1
4902549	61	C	04/18/2022	01:00	-131.602	47.445	0	74.00	0	7.7840	0	32.2970	0	25.184	0	73.370	0	275.6	4	93.7	4	-1E+10	1	-1E+10	1	-1E+10	1	-1E+10	1	-1E+10	1	-1E+10	1
4902549	61	C	04/18/2022	01:00	-131.602	47.445	0	74.90	0	7.7830	0	32.2980	0	25.185	0	74.262	0	275.0	4	93.5	4	-1E+10	1	-1E+10	1	-1E+10	1	-1E+10	1	-1E+10	1	-1E+10	1
4902549	61	C	04/18/2022	01:00	-131.602	47.445	0	75.80	0	7.7810	0	32.2980	0	25.185	0	75.154	0	274.5	4	93.4	4	-1E+10	1	-1E+10	1	-1E+10	1	-1E+10	1	-1E+10	1	-1E+10	1
4902549	61	C	04/18/2022	01:00	-131.602	47.445	0	77.00	0	7.7680	0	32.2970	0	25.186	0	76.344	0	273.7	4	93.0	4	-1E+10	1	-1E+10	1	-1E+10	1	-1E+10	1	-1E+10	1	-1E+10	1
4902549	61	C	04/18/2022	01:00	-131.602	47.445	0	78.00	0	7.7540	0	32.2960	0	25.187	0	77.335	0	273.0	4	92.8	4	-1E+10	1	-1E+10	1	-1E+10	1	-1E+10	1	-1E+10	1	-1E+10	1
4902549	61	C	04/18/2022	01:00	-131.602	47.445	0	78.90	0	7.7510	0	32.2960	0	25.188	0	78.227	0	272.2	4	92.5	4	-1E+10	1	-1E+10	1	-1E+10	1	-1E+10	1	-1E+10	1	-1E+10	1
4902549	61	C	04/18/2022	01:00	-131.602	47.445	0	79.90	0	7.7480	0	32.2960	0	25.188	0	79.218	0	271.3	4	92.2	4	-1E+10	1	-1E+10	1	-1E+10	1	-1E+10	1	-1E+10	1	-1E+10	1
4902549	61	C	04/18/2022	01:00	-131.602	47.445	0	80.80	0	7.7430	0	32.2990	0	25.191	0	80.110	0	270.2	4	91.8	4	-1E+10	1	-1E+10	1	-1E+10	1	-1E+10	1	-1E+10	1	-1E+10	1
4902549	61	C	04/18/2022	01:00	-131.602	47.445	0	82.00	0	7.7470	0	32.3000	0	25.191	0	81.300	0	275.3	4	93.5	4	-1E+10	1	-1E+10	1	-1E+10	1	-1E+10	1	-1E+10	1	-1E+10	1
4902549	61	C	04/18/2022	01:00	-131.602	47.445	0	83.10	0	7.7470	0	32.3040	0	25.195	0	82.390	0	273.2	4	92.9	4	-1E+10	1	-1E+10	1	-1E+10	1	-1E+10	1	-1E+10	1	-1E+10	1
4902549	61	C	04/18/2022	01:00	-131.602	47.445	0	84.00	0	7.7540	0	32.3060	0	25.195	0	83.282	0	271.5	4	92.3	4	-1E+10	1	-1E+10	1	-1E+10	1	-1E+10	1	-1E+10	1	-1E+10	1
4902549	61	C	04/18/2022	01:00	-131.602	47.445	0	84.90	0	7.7530	0	32.3100	0	25.198	0	84.175	0	269.6	4	91.6	4	-1E+10	1	-1E+10	1	-1E+10	1	-1E+10	1	-1E+10	1	-1E+10	1
4902549	61	C	04/18/2022	01:00	-131.602	47.445	0	86.00	0	7.7230	0	32.3320	0	25.220	0	85.265	0	267.1	4	90.7	4	-1E+10	1	-1E+10	1	-1E+10	1	-1E+10	1	-1E+10	1	-1E+10	1
4902549	61	C	04/18/2022	01:00	-131.602	47.445	0	87.10	0	7.7110	0	32.3450	0	25.232	0	86.355	0	264.1	4	89.7	4	-1E+10	1	-1E+10	1	-1E+10	1	-1E+10	1	-1E+10	1	-1E+10	1
4902549	61	C	04/18/2022	01:00	-131.602	47.445	0	88.10	0	7.6960	0	32.3610	0	25.247	0	87.347	0	261.0	4	88.6	4	-1E+10	1	-1E+10	1	-1E+10	1	-1E+10	1	-1E+10	1	-1E+10	1
4902549	61	C	04/18/2022	01:00	-131.602	47.445	0	89.30	0	7.6880	0	32.3690	0	25.254	0	88.536	0	256.7	4	87.2	4	-1E+10	1	-1E+10	1	-1E+10	1	-1E+10	1	-1E+10	1	-1E+10	1
4902549	61	C	04/18/2022	01:00	-131.602	47.445	0	90.10	0	7.6650	0	32.4120	0	25.291	0	89.329	0	253.1	4	85.9	4	-1E+10	1	-1E+10	1	-1E+10	1	-1E+10	1	-1E+10	1	-1E+10	1
4902549	61	C	04/18/2022	01:00	-131.602	47.445	0	91.00	0	7.6320	0	32.4720	0	25.343	0	90.221	0	251.1	4	85.2	4	-1E+10	1	-1E+10	1	-1E+10	1	-1E+10	1	-1E+10	1	-1E+10	1
4902549	61	C	04/18/2022	01:00	-131.602	47.445	0	91.90	0	7.6510	0	32.4970	0	25.360	0	91.113	0	248.3	4	84.3	4	-1E+10	1	-1E+10	1	-1E+10	1	-1E+10	1	-1E+10	1	-1E+10	1
4902549	61	C	04/18/2022	01:00	-131.602	47.445	0	93.10	0	7.6700	0	32.5200	0	25.375	0	92.303	0	244.8	4	83.2	4	-1E+10	1	-1E+10	1	-1E+10	1	-1E+10	1	-1E+10	1	-1E+10	1
4902549	61	C	04/18/2022	01:00	-131.602	47.445	0	94.10	0	7.6720	0	32.5480	0	25.397	0	93.294	0	241.9	4	82.2	4	-1E+10	1	-1E+10	1	-1E+10	1	-1E+10	1	-1E+10	1	-1E+10	1
4902549	61	C	04/18/2022	01:00	-131.602	47.445	0	94.90	0	7.6660	0	32.5850	0	25.427	0	94.087	0	240.0	4	81.6	4	-1E+10	1	-1E+10	1	-1E+10	1	-1E+10	1	-1E+10	1	-1E+10	1
4902549	61	C	04/18/2022	01:00	-131.602	47.445	0	96.10	0	7.6500	0	32.6350	0	25.468	0	95.276	0	238.3	4	81.0	4	-1E+10	1	-1E+10	1	-1E+10	1	-1E+10	1	-1E+10	1	-1E+10	1
4902549	61	C	04/18/2022	01:00	-131.602	47.445	0	97.00	0	7.6440	0	32.6450	0	25.477	0	96.168	0	237.0	4	80.5	4	-1E+10	1	-1E+10	1	-1E+10	1	-1E+10	1	-1E+10	1	-1E+10	1
4902549	61	C	04/18/2022	01:00	-131.602	47.445	0	98.20	0	7.6400	0	32.6510	0	25.482	0	97.358	0	235.0	4	79.9	4	-1E+10	1	-1E+10	1	-1E+10	1	-1E+10	1	-1E+10	1	-1E+10	1
4902549	61	C	04/18/2022	01:00	-131.602	47.445	0	98.90	0	7.6340	0	32.6590	0	25.490	0	98.052	0	233.8	4	79.4	4	-1E+10	1	-1E+10	1	-1E+10	1	-1E+10	1	-1E+10	1	-1E+10	1
4902549	61	C	04/18/2022	01:00	-131.602	47.445	0	99.90	0	7.6130	0	32.6880	0	25.515	0	99.043	0	232.4	4	79.0	4	-1E+10	1	-1E+10	1	-1E+10	1	-1E+10	1	-1E+10	1	-1E+10	1
4902549	61	C	04/18/2022	01:00	-131.602	47.445	0	100.90	0	7.6070	0	32.6980	0	25.524	0	100.034	0	230.9	4	78.4	4	-1E+10	1	-1E+10	1	-1E+10	1	-1E+10	1	-1E+10	1	-1E+10	1
4902549	61	C	04/18/2022	01:00	-131.602	47.445	0	102.10	0	7.6020	0	32.7070	0	25.532	0	101.223	0	229.0	4	77.8	4	-1E+10	1	-1E+10	1	-1E+10	1	-1E+10	1	-1E+10	1	-1E+10	1
4902549	61	C	04/18/2022	01:00	-131.602	47.445	0	103.10	0	7.5980	0	32.7200	0	25.543	0	102.215	0	226.0	4	76.8	4	-1E+10	1	-1E+10	1	-1E+10	1	-1E+10	1	-1E+10	1	-1E+10	1
4902549	61	C	04/18/2022	01:00	-131.602	47.445	0	104.10	0	7.5910	0	32.7610	0	25.576	0	103.206	0	219.4	4	74.5	4	-1E+10	1	-1E+10	1	-1E+10	1	-1E+10	1	-1E+10	1	-1E+10	1
4902549	61	C	04/18/2022	01:00	-131.602	47.445	0	105.00	0	7.5790	0	32.8010	0	25.609	0	104.098	0	216.0	4	73.4	4	-1E+10	1	-1E+10	1	-1E+10	1	-1E+10	1	-1E+10	1	-1E+10	1
4902549	61	C	04/18/2022	01:00	-131.602	47.445	0	105.90	0	7.5700	0	32.8470	0	25.646	0	104.990	0	214.0	4	72.7	4	-1E+10	1	-1E+10	1	-1E+10	1	-1E+10	1	-1E+10	1	-1E+10	1
4902549	61	C	04/18/2022	01:00	-131.602	47.445	0	107.10	0	7.5660	0	32.8680	0	25.663	0	106.179	0	211.4	4	71.8	4	-1E+10	1	-1E+10	1	-1E+10	1	-1E+10	1	-1E+10	1	-1E+10	1
4902549	61	C	04/18/2022	01:00	-131.602	47.445	0	108.00	0	7.5640	0	32.8860	0	25.678	0	107.071	0	209.4	4	71.2	4	-1E+10	1	-1E+10	1	-1E+10	1	-1E+10	1	-1E+10	1	-1E+10	1
4902549	61	C	04/18/2022	01:00	-131.602	47.445	0	109.20	0	7.5630	0	32.9150	0	25.701	0	108.261	0	207.5	4	70.5	4	-1E+10	1	-1E+10	1	-1E+10	1	-1E+10	1	-1E+10	1	-1E+10	1
4902549	61	C	04/18/2022	01:00	-131.602	47.445	0	110.00	0	7.5600	0	32.9270	0	25.711	0	109.053	0	206.3	4	70.1	4	-1E+10	1	-1E+10	1	-1E+10	1	-1E+10	1	-1E+10	1	-1E+10	1
4902549	61	C	04/18/2022	01:00	-131.602	47.445	0	111.00	0	7.5560	0	32.9380	0	25.720	0	110.045	0	204.6	4	69.6	4	-1E+10	1	-1E+10	1	-1E+10	1	-1E+10	1	-1E+10	1	-1E+10	1
4902549	61	C	04/18/2022	01:00	-131.602	47.445	0	111.90	0	7.5540	0	32.9450	0	25.726	0	110.937	0	202.9	4	69.0	4	-1E+10	1	-1E+10	1	-1E+10	1	-1E+10	1	-1E+10	1	-1E+10	1
4902549	61	C	04/18/2022	01:00	-131.602	47.445	0	112.90	0	7.5470	0	32.9870	0	25.760	0	111.928	0	201.3	4	68.4	4	-1E+10	1	-1E+10	1	-1E+10	1	-1E+10	1	-1E+10	1	-1E+10	1
4902549	61	C	04/18/2022	01:00	-131.602	47.445	0	114.10	0	7.5480	0	33.0420	0	25.803	0	113.117	0	200.6	4	68.2	4	-1E+10	1	-1E+10	1	-1E+10	1	-1E+10	1	-1E+10	1	-1E+10	1
4902549	61	C	04/18/2022	01:00	-131.602	47.445	0	115.00	0	7.5490	0	33.0520	0	25.811	0	114.009	0	200.1	4	68.1	4	-1E+10	1	-1E+10	1	-1E+10	1	-1E+10	1	-1E+10	1	-1E+10	1
4902549	61	C	04/18/2022	01:00	-131.602	47.445	0	115.90	0	7.5490	0	33.0540	0	25.812	0	114.901	0	199.7	4	67.9	4	-1E+10	1	-1E+10	1	-1E+10	1	-1E+10	1	-1E+10	1	-1E+10	1
4902549	61	C	04/18/2022	01:00	-131.602	47.445	0	117.00	0	7.5490	0	33.0540	0	25.812	0	115.991	0	199.1	4	67.7	4	-1E+10	1	-1E+10	1	-1E+10	1	-1E+10	1	-1E+10	1	-1E+10	1
4902549	61	C	04/18/2022	01:00	-131.602	47.445	0	118.00	0	7.5490	0	33.0550	0	25.813	0	116.982	0	198.4	4	67.5	4	-1E+10	1	-1E+10	1	-1E+10	1	-1E+10	1	-1E+10	1	-1E+10	1
4902549	61	C	04/18/2022	01:00	-131.602	47.445	0	118.90	0	7.5490	0	33.0560	0	25.814	0	117.874	0	197.8	4	67.3	4	-1E+10	1	-1E+10	1	-1E+10	1	-1E+10	1	-1E+10	1	-1E+10	1
4902549	61	C	04/18/2022	01:00	-131.602	47.445	0	120.10	0	7.5490	0	33.0580	0	25.815	0	119.064	0	196.7	4	66.9	4	-1E+10	1	-1E+10	1	-1E+10	1	-1E+10	1	-1E+10	1	-1E+10	1
4902549	61	C	04/18/2022	01:00	-131.602	47.445	0	121.00	0	7.5490	0	33.0600	0	25.817	0	119.956	0	195.8	4	66.6	4	-1E+10	1	-1E+10	1	-1E+10	1	-1E+10	1	-1E+10	1	-1E+10	1
4902549	61	C	04/18/2022	01:00	-131.602	47.445	0	121.90	0	7.5490	0	33.0610	0	25.818	0	120.848	0	194.7	4	66.2	4	-1E+10	1	-1E+10	1	-1E+10	1	-1E+10	1	-1E+10	1	-1E+10	1
4902549	61	C	04/18/2022	01:00	-131.602	47.445	0	122.90	0	7.5490	0	33.0610	0	25.818	0	121.839	0	193.0	4	65.7	4	-1E+10	1	-1E+10	1	-1E+10	1	-1E+10	1	-1E+10	1	-1E+10	1
4902549	61	C	04/18/2022	01:00	-131.602	47.445	0	123.90	0	7.5490	0	33.0620	0	25.819	0	122.830	0	191.1	4	65.0	4	-1E+10	1	-1E+10	1	-1E+10	1	-1E+10	1	-1E+10	1	-1E+10	1
4902549	61	C	04/18/2022	01:00	-131.602	47.445	0	124.90	0	7.5490	0	33.0690	0	25.824	0	123.821	0	188.7	4	64.2	4	-1E+10	1	-1E+10	1	-1E+10	1	-1E+10	1	-1E+10	1	-1E+10	1
4902549	61	C	04/18/2022	01:00	-131.602	47.445	0	126.10	0	7.5400	0	33.1330	0	25.876	0	125.010	0	185.3	4	63.1	4	-1E+10	1	-1E+10	1	-1E+10	1	-1E+10	1	-1E+10	1	-1E+10	1
4902549	61	C	04/18/2022	01:00	-131.602	47.445	0	126.90	0	7.5370	0	33.1510	0	25.890	0	125.803	0	183.8	4	62.6	4	-1E+10	1	-1E+10	1	-1E+10	1	-1E+10	1	-1E+10	1	-1E+10	1
4902549	61	C	04/18/2022	01:00	-131.602	47.445	0	128.00	0	7.5310	0	33.2270	0	25.951	0	126.893	0	182.4	4	62.1	4	-1E+10	1	-1E+10	1	-1E+10	1	-1E+10	1	-1E+10	1	-1E+10	1
4902549	61	C	04/18/2022	01:00	-131.602	47.445	0	129.00	0	7.5260	0	33.2500	0	25.970	0	127.884	0	181.0	4	61.6	4	-1E+10	1	-1E+10	1	-1E+10	1	-1E+10	1	-1E+10	1	-1E+10	1
4902549	61	C	04/18/2022	01:00	-131.602	47.445	0	130.10	0	7.5230	0	33.2650	0	25.982	0	128.974	0	179.6	4	61.2	4	-1E+10	1	-1E+10	1	-1E+10	1	-1E+10	1	-1E+10	1	-1E+10	1
4902549	61	C	04/18/2022	01:00	-131.602	47.445	0	131.00	0	7.5180	0	33.2980	0	26.009	0	129.866	0	178.7	4	60.8	4	-1E+10	1	-1E+10	1	-1E+10	1	-1E+10	1	-1E+10	1	-1E+10	1
4902549	61	C	04/18/2022	01:00	-131.602	47.445	0	131.80	0	7.5150	0	33.3120	0	26.020	0	130.659	0	177.9	4	60.6	4	-1E+10	1	-1E+10	1	-1E+10	1	-1E+10	1	-1E+10	1	-1E+10	1
4902549	61	C	04/18/2022	01:00	-131.602	47.445	0	133.00	0	7.5140	0	33.3200	0	26.026	0	131.848	0	176.7	4	60.2	4	-1E+10	1	-1E+10	1	-1E+10	1	-1E+10	1	-1E+10	1	-1E+10	1
4902549	61	C	04/18/2022	01:00	-131.602	47.445	0	133.90	0	7.5130	0	33.3370	0	26.040	0	132.740	0	176.0	4	59.9	4	-1E+10	1	-1E+10	1	-1E+10	1	-1E+10	1	-1E+10	1	-1E+10	1
4902549	61	C	04/18/2022	01:00	-131.602	47.445	0	134.80	0	7.5070	0	33.3580	0	26.057	0	133.632	0	175.4	4	59.7	4	-1E+10	1	-1E+10	1	-1E+10	1	-1E+10	1	-1E+10	1	-1E+10	1
4902549	61	C	04/18/2022	01:00	-131.602	47.445	0	135.90	0	7.5030	0	33.3680	0	26.066	0	134.722	0	174.5	4	59.4	4	-1E+10	1	-1E+10	1	-1E+10	1	-1E+10	1	-1E+10	1	-1E+10	1
4902549	61	C	04/18/2022	01:00	-131.602	47.445	0	136.90	0	7.4980	0	33.3750	0	26.072	0	135.713	0	173.5	4	59.1	4	-1E+10	1	-1E+10	1	-1E+10	1	-1E+10	1	-1E+10	1	-1E+10	1
4902549	61	C	04/18/2022	01:00	-131.602	47.445	0	137.80	0	7.4790	0	33.4250	0	26.114	0	136.605	0	172.1	4	58.6	4	-1E+10	1	-1E+10	1	-1E+10	1	-1E+10	1	-1E+10	1	-1E+10	1
4902549	61	C	04/18/2022	01:00	-131.602	47.445	0	138.80	0	7.4740	0	33.4380	0	26.125	0	137.596	0	170.5	4	58.1	4	-1E+10	1	-1E+10	1	-1E+10	1	-1E+10	1	-1E+10	1	-1E+10	1
4902549	61	C	04/18/2022	01:00	-131.602	47.445	0	139.80	0	7.4700	0	33.4720	0	26.152	0	138.587	0	169.0	4	57.6	4	-1E+10	1	-1E+10	1	-1E+10	1	-1E+10	1	-1E+10	1	-1E+10	1
4902549	61	C	04/18/2022	01:00	-131.602	47.445	0	141.00	0	7.4670	0	33.4850	0	26.163	0	139.776	0	167.1	4	56.9	4	-1E+10	1	-1E+10	1	-1E+10	1	-1E+10	1	-1E+10	1	-1E+10	1
4902549	61	C	04/18/2022	01:00	-131.602	47.445	0	141.70	0	7.4620	0	33.4990	0	26.175	0	140.470	0	166.0	4	56.5	4	-1E+10	1	-1E+10	1	-1E+10	1	-1E+10	1	-1E+10	1	-1E+10	1
4902549	61	C	04/18/2022	01:00	-131.602	47.445	0	142.90	0	7.4610	0	33.5080	0	26.182	0	141.659	0	164.6	4	56.1	4	-1E+10	1	-1E+10	1	-1E+10	1	-1E+10	1	-1E+10	1	-1E+10	1
4902549	61	C	04/18/2022	01:00	-131.602	47.445	0	144.10	0	7.4580	0	33.5310	0	26.200	0	142.848	0	163.6	4	55.7	4	-1E+10	1	-1E+10	1	-1E+10	1	-1E+10	1	-1E+10	1	-1E+10	1
4902549	61	C	04/18/2022	01:00	-131.602	47.445	0	144.90	0	7.4410	0	33.5830	0	26.244	0	143.641	0	163.5	4	55.7	4	-1E+10	1	-1E+10	1	-1E+10	1	-1E+10	1	-1E+10	1	-1E+10	1
4902549	61	C	04/18/2022	01:00	-131.602	47.445	0	145.80	0	7.4380	0	33.5960	0	26.254	0	144.533	0	163.5	4	55.7	4	-1E+10	1	-1E+10	1	-1E+10	1	-1E+10	1	-1E+10	1	-1E+10	1
4902549	61	C	04/18/2022	01:00	-131.602	47.445	0	146.70	0	7.4370	0	33.5980	0	26.256	0	145.425	0	163.6	4	55.7	4	-1E+10	1	-1E+10	1	-1E+10	1	-1E+10	1	-1E+10	1	-1E+10	1
4902549	61	C	04/18/2022	01:00	-131.602	47.445	0	147.60	0	7.4320	0	33.6070	0	26.264	0	146.317	0	163.6	4	55.7	4	-1E+10	1	-1E+10	1	-1E+10	1	-1E+10	1	-1E+10	1	-1E+10	1
4902549	61	C	04/18/2022	01:00	-131.602	47.445	0	148.90	0	7.4310	0	33.6090	0	26.266	0	147.605	0	163.8	4	55.8	4	-1E+10	1	-1E+10	1	-1E+10	1	-1E+10	1	-1E+10	1	-1E+10	1
4902549	61	C	04/18/2022	01:00	-131.602	47.445	0	150.30	0	7.4290	0	33.6120	0	26.268	0	148.992	0	163.9	4	55.8	4	-1E+10	1	-1E+10	1	-1E+10	1	-1E+10	1	-1E+10	1	-1E+10	1
4902549	61	C	04/18/2022	01:00	-131.602	47.445	0	151.20	0	7.4280	0	33.6150	0	26.271	0	149.884	0	164.1	4	55.9	4	-1E+10	1	-1E+10	1	-1E+10	1	-1E+10	1	-1E+10	1	-1E+10	1
4902549	61	C	04/18/2022	01:00	-131.602	47.445	0	152.10	0	7.4260	0	33.6180	0	26.273	0	150.776	0	164.4	4	56.0	4	-1E+10	1	-1E+10	1	-1E+10	1	-1E+10	1	-1E+10	1	-1E+10	1
4902549	61	C	04/18/2022	01:00	-131.602	47.445	0	153.10	0	7.4180	0	33.6280	0	26.282	0	151.767	0	164.5	4	56.0	4	-1E+10	1	-1E+10	1	-1E+10	1	-1E+10	1	-1E+10	1	-1E+10	1
4902549	61	C	04/18/2022	01:00	-131.602	47.445	0	154.00	0	7.4090	0	33.6380	0	26.292	0	152.659	0	164.6	4	56.1	4	-1E+10	1	-1E+10	1	-1E+10	1	-1E+10	1	-1E+10	1	-1E+10	1
4902549	61	C	04/18/2022	01:00	-131.602	47.445	0	155.00	0	7.4060	0	33.6430	0	26.296	0	153.649	0	164.7	4	56.1	4	-1E+10	1	-1E+10	1	-1E+10	1	-1E+10	1	-1E+10	1	-1E+10	1
4902549	61	C	04/18/2022	01:00	-131.602	47.445	0	156.00	0	7.4030	0	33.6470	0	26.300	0	154.640	0	164.8	4	56.1	4	-1E+10	1	-1E+10	1	-1E+10	1	-1E+10	1	-1E+10	1	-1E+10	1
4902549	61	C	04/18/2022	01:00	-131.602	47.445	0	157.00	0	7.4020	0	33.6480	0	26.300	0	155.631	0	164.9	4	56.2	4	-1E+10	1	-1E+10	1	-1E+10	1	-1E+10	1	-1E+10	1	-1E+10	1
4902549	61	C	04/18/2022	01:00	-131.602	47.445	0	158.10	0	7.3970	0	33.6560	0	26.307	0	156.721	0	165.1	4	56.2	4	-1E+10	1	-1E+10	1	-1E+10	1	-1E+10	1	-1E+10	1	-1E+10	1
4902549	61	C	04/18/2022	01:00	-131.602	47.445	0	159.10	0	7.3900	0	33.6670	0	26.317	0	157.712	0	165.4	4	56.3	4	-1E+10	1	-1E+10	1	-1E+10	1	-1E+10	1	-1E+10	1	-1E+10	1
4902549	61	C	04/18/2022	01:00	-131.602	47.445	0	160.10	0	7.3820	0	33.6770	0	26.326	0	158.703	0	165.8	4	56.4	4	-1E+10	1	-1E+10	1	-1E+10	1	-1E+10	1	-1E+10	1	-1E+10	1
4902549	61	C	04/18/2022	01:00	-131.602	47.445	0	161.10	0	7.3700	0	33.6880	0	26.336	0	159.694	0	166.1	4	56.5	4	-1E+10	1	-1E+10	1	-1E+10	1	-1E+10	1	-1E+10	1	-1E+10	1
4902549	61	C	04/18/2022	01:00	-131.602	47.445	0	162.10	0	7.3700	0	33.6880	0	26.336	0	160.685	0	166.5	4	56.7	4	-1E+10	1	-1E+10	1	-1E+10	1	-1E+10	1	-1E+10	1	-1E+10	1
4902549	61	C	04/18/2022	01:00	-131.602	47.445	0	163.20	0	7.3650	0	33.6910	0	26.340	0	161.775	0	166.9	4	56.8	4	-1E+10	1	-1E+10	1	-1E+10	1	-1E+10	1	-1E+10	1	-1E+10	1
4902549	61	C	04/18/2022	01:00	-131.602	47.445	0	164.20	0	7.3460	0	33.7020	0	26.351	0	162.766	0	167.3	4	56.9	4	-1E+10	1	-1E+10	1	-1E+10	1	-1E+10	1	-1E+10	1	-1E+10	1
4902549	61	C	04/18/2022	01:00	-131.602	47.445	0	165.20	0	7.3330	0	33.7080	0	26.357	0	163.757	0	167.7	4	57.0	4	-1E+10	1	-1E+10	1	-1E+10	1	-1E+10	1	-1E+10	1	-1E+10	1
4902549	61	C	04/18/2022	01:00	-131.602	47.445	0	166.30	0	7.3270	0	33.7130	0	26.362	0	164.846	0	168.0	4	57.2	4	-1E+10	1	-1E+10	1	-1E+10	1	-1E+10	1	-1E+10	1	-1E+10	1
4902549	61	C	04/18/2022	01:00	-131.602	47.445	0	167.30	0	7.3230	0	33.7140	0	26.364	0	165.837	0	168.3	4	57.2	4	-1E+10	1	-1E+10	1	-1E+10	1	-1E+10	1	-1E+10	1	-1E+10	1
4902549	61	C	04/18/2022	01:00	-131.602	47.445	0	168.40	0	7.3050	0	33.7220	0	26.372	0	166.927	0	168.7	4	57.3	4	-1E+10	1	-1E+10	1	-1E+10	1	-1E+10	1	-1E+10	1	-1E+10	1
4902549	61	C	04/18/2022	01:00	-131.602	47.445	0	169.40	0	7.2850	0	33.7290	0	26.381	0	167.918	0	168.9	4	57.4	4	-1E+10	1	-1E+10	1	-1E+10	1	-1E+10	1	-1E+10	1	-1E+10	1
4902549	61	C	04/18/2022	01:00	-131.602	47.445	0	170.40	0	7.2810	0	33.7300	0	26.382	0	168.909	0	169.1	4	57.5	4	-1E+10	1	-1E+10	1	-1E+10	1	-1E+10	1	-1E+10	1	-1E+10	1
4902549	61	C	04/18/2022	01:00	-131.602	47.445	0	171.50	0	7.2590	0	33.7380	0	26.391	0	169.999	0	169.3	4	57.5	4	-1E+10	1	-1E+10	1	-1E+10	1	-1E+10	1	-1E+10	1	-1E+10	1
4902549	61	C	04/18/2022	01:00	-131.602	47.445	0	172.50	0	7.2160	0	33.7460	0	26.404	0	170.990	0	169.6	4	57.6	4	-1E+10	1	-1E+10	1	-1E+10	1	-1E+10	1	-1E+10	1	-1E+10	1
4902549	61	C	04/18/2022	01:00	-131.602	47.445	0	173.60	0	7.2110	0	33.7470	0	26.405	0	172.080	0	169.7	4	57.6	4	-1E+10	1	-1E+10	1	-1E+10	1	-1E+10	1	-1E+10	1	-1E+10	1
4902549	61	C	04/18/2022	01:00	-131.602	47.445	0	174.60	0	7.2080	0	33.7480	0	26.406	0	173.070	0	169.7	4	57.6	4	-1E+10	1	-1E+10	1	-1E+10	1	-1E+10	1	-1E+10	1	-1E+10	1
4902549	61	C	04/18/2022	01:00	-131.602	47.445	0	175.70	0	7.1950	0	33.7500	0	26.410	0	174.160	0	169.7	4	57.5	4	-1E+10	1	-1E+10	1	-1E+10	1	-1E+10	1	-1E+10	1	-1E+10	1
4902549	61	C	04/18/2022	01:00	-131.602	47.445	0	176.80	0	7.1840	0	33.7530	0	26.414	0	175.250	0	169.9	4	57.6	4	-1E+10	1	-1E+10	1	-1E+10	1	-1E+10	1	-1E+10	1	-1E+10	1
4902549	61	C	04/18/2022	01:00	-131.602	47.445	0	177.90	0	7.1590	0	33.7580	0	26.421	0	176.340	0	170.4	4	57.8	4	-1E+10	1	-1E+10	1	-1E+10	1	-1E+10	1	-1E+10	1	-1E+10	1
4902549	61	C	04/18/2022	01:00	-131.602	47.445	0	179.00	0	7.1360	0	33.7590	0	26.425	0	177.430	0	170.6	4	57.8	4	-1E+10	1	-1E+10	1	-1E+10	1	-1E+10	1	-1E+10	1	-1E+10	1
4902549	61	C	04/18/2022	01:00	-131.602	47.445	0	180.00	0	7.1320	0	33.7590	0	26.426	0	178.421	0	170.7	4	57.8	4	-1E+10	1	-1E+10	1	-1E+10	1	-1E+10	1	-1E+10	1	-1E+10	1
4902549	61	C	04/18/2022	01:00	-131.602	47.445	0	181.10	0	7.1290	0	33.7590	0	26.426	0	179.511	0	170.9	4	57.9	4	-1E+10	1	-1E+10	1	-1E+10	1	-1E+10	1	-1E+10	1	-1E+10	1
4902549	61	C	04/18/2022	01:00	-131.602	47.445	0	182.20	0	7.1000	0	33.7670	0	26.436	0	180.601	0	170.9	4	57.9	4	-1E+10	1	-1E+10	1	-1E+10	1	-1E+10	1	-1E+10	1	-1E+10	1
4902549	61	C	04/18/2022	01:00	-131.602	47.445	0	183.30	0	7.0930	0	33.7660	0	26.437	0	181.690	0	170.7	4	57.8	4	-1E+10	1	-1E+10	1	-1E+10	1	-1E+10	1	-1E+10	1	-1E+10	1
4902549	61	C	04/18/2022	01:00	-131.602	47.445	0	184.30	0	7.0900	0	33.7650	0	26.436	0	182.681	0	170.5	4	57.7	4	-1E+10	1	-1E+10	1	-1E+10	1	-1E+10	1	-1E+10	1	-1E+10	1
4902549	61	C	04/18/2022	01:00	-131.602	47.445	0	185.50	0	7.0860	0	33.7650	0	26.437	0	183.870	0	170.2	4	57.6	4	-1E+10	1	-1E+10	1	-1E+10	1	-1E+10	1	-1E+10	1	-1E+10	1
4902549	61	C	04/18/2022	01:00	-131.602	47.445	0	186.50	0	7.0550	0	33.7720	0	26.446	0	184.861	0	169.7	4	57.4	4	-1E+10	1	-1E+10	1	-1E+10	1	-1E+10	1	-1E+10	1	-1E+10	1
4902549	61	C	04/18/2022	01:00	-131.602	47.445	0	187.60	0	7.0280	0	33.7750	0	26.453	0	185.951	0	169.3	4	57.2	4	-1E+10	1	-1E+10	1	-1E+10	1	-1E+10	1	-1E+10	1	-1E+10	1
4902549	61	C	04/18/2022	01:00	-131.602	47.445	0	188.70	0	7.0040	0	33.7810	0	26.461	0	187.041	0	169.0	4	57.1	4	-1E+10	1	-1E+10	1	-1E+10	1	-1E+10	1	-1E+10	1	-1E+10	1
4902549	61	C	04/18/2022	01:00	-131.602	47.445	0	189.90	0	6.9950	0	33.7800	0	26.461	0	188.229	0	168.6	4	56.9	4	-1E+10	1	-1E+10	1	-1E+10	1	-1E+10	1	-1E+10	1	-1E+10	1
4902549	61	C	04/18/2022	01:00	-131.602	47.445	0	191.00	0	6.9930	0	33.7790	0	26.461	0	189.319	0	168.1	4	56.8	4	-1E+10	1	-1E+10	1	-1E+10	1	-1E+10	1	-1E+10	1	-1E+10	1
4902549	61	C	04/18/2022	01:00	-131.602	47.445	0	192.10	0	6.9920	0	33.7790	0	26.461	0	190.409	0	167.5	4	56.6	4	-1E+10	1	-1E+10	1	-1E+10	1	-1E+10	1	-1E+10	1	-1E+10	1
4902549	61	C	04/18/2022	01:00	-131.602	47.445	0	193.20	0	6.9900	0	33.7790	0	26.461	0	191.499	0	166.8	4	56.3	4	-1E+10	1	-1E+10	1	-1E+10	1	-1E+10	1	-1E+10	1	-1E+10	1
4902549	61	C	04/18/2022	01:00	-131.602	47.445	0	194.30	0	6.9630	0	33.7800	0	26.465	0	192.589	0	166.3	4	56.1	4	-1E+10	1	-1E+10	1	-1E+10	1	-1E+10	1	-1E+10	1	-1E+10	1
4902549	61	C	04/18/2022	01:00	-131.602	47.445	0	195.40	0	6.9390	0	33.7830	0	26.471	0	193.679	0	166.0	4	56.0	4	-1E+10	1	-1E+10	1	-1E+10	1	-1E+10	1	-1E+10	1	-1E+10	1
4902549	61	C	04/18/2022	01:00	-131.602	47.445	0	196.60	0	6.9320	0	33.7820	0	26.471	0	194.867	0	165.6	4	55.9	4	-1E+10	1	-1E+10	1	-1E+10	1	-1E+10	1	-1E+10	1	-1E+10	1
4902549	61	C	04/18/2022	01:00	-131.602	47.445	0	197.70	0	6.9090	0	33.7860	0	26.478	0	195.957	0	165.1	4	55.6	4	-1E+10	1	-1E+10	1	-1E+10	1	-1E+10	1	-1E+10	1	-1E+10	1
4902549	61	C	04/18/2022	01:00	-131.602	47.445	0	198.80	0	6.8780	0	33.7890	0	26.484	0	197.047	0	164.5	4	55.4	4	-1E+10	1	-1E+10	1	-1E+10	1	-1E+10	1	-1E+10	1	-1E+10	1
4902549	61	C	04/18/2022	01:00	-131.602	47.445	0	200.00	0	6.8580	0	33.7890	0	26.487	0	198.236	0	163.8	4	55.2	4	-1E+10	1	-1E+10	1	-1E+10	1	-1E+10	1	-1E+10	1	-1E+10	1
4902549	61	C	04/18/2022	01:00	-131.602	47.445	0	201.10	0	6.8560	0	33.7870	0	26.485	0	199.326	0	163.1	4	54.9	4	-1E+10	1	-1E+10	1	-1E+10	1	-1E+10	1	-1E+10	1	-1E+10	1
4902549	61	C	04/18/2022	01:00	-131.602	47.445	0	202.20	0	6.8400	0	33.7880	0	26.488	0	200.415	0	162.4	4	54.6	4	-1E+10	1	-1E+10	1	-1E+10	1	-1E+10	1	-1E+10	1	-1E+10	1
4902549	61	C	04/18/2022	01:00	-131.602	47.445	0	203.40	0	6.8340	0	33.7890	0	26.490	0	201.604	0	161.6	4	54.4	4	-1E+10	1	-1E+10	1	-1E+10	1	-1E+10	1	-1E+10	1	-1E+10	1
4902549	61	C	04/18/2022	01:00	-131.602	47.445	0	204.50	0	6.8220	0	33.7890	0	26.492	0	202.694	0	160.8	4	54.1	4	-1E+10	1	-1E+10	1	-1E+10	1	-1E+10	1	-1E+10	1	-1E+10	1
4902549	61	C	04/18/2022	01:00	-131.602	47.445	0	205.60	0	6.8040	0	33.7920	0	26.496	0	203.784	0	160.2	4	53.9	4	-1E+10	1	-1E+10	1	-1E+10	1	-1E+10	1	-1E+10	1	-1E+10	1
4902549	61	C	04/18/2022	01:00	-131.602	47.445	0	206.80	0	6.7840	0	33.7930	0	26.500	0	204.972	0	159.7	4	53.7	4	-1E+10	1	-1E+10	1	-1E+10	1	-1E+10	1	-1E+10	1	-1E+10	1
4902549	61	C	04/18/2022	01:00	-131.602	47.445	0	207.90	0	6.7690	0	33.7950	0	26.504	0	206.062	0	159.5	4	53.6	4	-1E+10	1	-1E+10	1	-1E+10	1	-1E+10	1	-1E+10	1	-1E+10	1
4902549	61	C	04/18/2022	01:00	-131.602	47.445	0	209.10	0	6.7680	0	33.7950	0	26.504	0	207.251	0	159.3	4	53.5	4	-1E+10	1	-1E+10	1	-1E+10	1	-1E+10	1	-1E+10	1	-1E+10	1
4902549	61	C	04/18/2022	01:00	-131.602	47.445	0	210.20	0	6.7560	0	33.7950	0	26.505	0	208.341	0	159.3	4	53.5	4	-1E+10	1	-1E+10	1	-1E+10	1	-1E+10	1	-1E+10	1	-1E+10	1
4902549	61	C	04/18/2022	01:00	-131.602	47.445	0	211.40	0	6.7240	0	33.7960	0	26.510	0	209.529	0	159.3	4	53.5	4	-1E+10	1	-1E+10	1	-1E+10	1	-1E+10	1	-1E+10	1	-1E+10	1
4902549	61	C	04/18/2022	01:00	-131.602	47.445	0	212.50	0	6.7140	0	33.7950	0	26.511	0	210.619	0	159.1	4	53.4	4	-1E+10	1	-1E+10	1	-1E+10	1	-1E+10	1	-1E+10	1	-1E+10	1
4902549	61	C	04/18/2022	01:00	-131.602	47.445	0	213.60	0	6.6800	0	33.7960	0	26.516	0	211.709	0	158.9	4	53.3	4	-1E+10	1	-1E+10	1	-1E+10	1	-1E+10	1	-1E+10	1	-1E+10	1
4902549	61	C	04/18/2022	01:00	-131.602	47.445	0	214.80	0	6.6670	0	33.7950	0	26.517	0	212.898	0	158.6	4	53.2	4	-1E+10	1	-1E+10	1	-1E+10	1	-1E+10	1	-1E+10	1	-1E+10	1
4902549	61	C	04/18/2022	01:00	-131.602	47.445	0	215.90	0	6.6650	0	33.7950	0	26.517	0	213.987	0	158.2	4	53.0	4	-1E+10	1	-1E+10	1	-1E+10	1	-1E+10	1	-1E+10	1	-1E+10	1
4902549	61	C	04/18/2022	01:00	-131.602	47.445	0	217.10	0	6.6630	0	33.7950	0	26.518	0	215.176	0	157.7	4	52.8	4	-1E+10	1	-1E+10	1	-1E+10	1	-1E+10	1	-1E+10	1	-1E+10	1
4902549	61	C	04/18/2022	01:00	-131.602	47.445	0	218.20	0	6.6550	0	33.7950	0	26.519	0	216.266	0	157.2	4	52.7	4	-1E+10	1	-1E+10	1	-1E+10	1	-1E+10	1	-1E+10	1	-1E+10	1
4902549	61	C	04/18/2022	01:00	-131.602	47.445	0	219.30	0	6.6450	0	33.7950	0	26.520	0	217.355	0	156.7	4	52.5	4	-1E+10	1	-1E+10	1	-1E+10	1	-1E+10	1	-1E+10	1	-1E+10	1
4902549	61	C	04/18/2022	01:00	-131.602	47.445	0	220.40	0	6.6400	0	33.7960	0	26.522	0	218.445	0	156.1	4	52.3	4	-1E+10	1	-1E+10	1	-1E+10	1	-1E+10	1	-1E+10	1	-1E+10	1
4902549	61	C	04/18/2022	01:00	-131.602	47.445	0	221.60	0	6.6080	0	33.7960	0	26.526	0	219.634	0	155.4	4	52.0	4	-1E+10	1	-1E+10	1	-1E+10	1	-1E+10	1	-1E+10	1	-1E+10	1
4902549	61	C	04/18/2022	01:00	-131.602	47.445	0	222.70	0	6.5980	0	33.7980	0	26.529	0	220.723	0	154.5	4	51.7	4	-1E+10	1	-1E+10	1	-1E+10	1	-1E+10	1	-1E+10	1	-1E+10	1
4902549	61	C	04/18/2022	01:00	-131.602	47.445	0	223.80	0	6.5950	0	33.7980	0	26.529	0	221.813	0	153.4	4	51.4	4	-1E+10	1	-1E+10	1	-1E+10	1	-1E+10	1	-1E+10	1	-1E+10	1
4902549	61	C	04/18/2022	01:00	-131.602	47.445	0	224.90	0	6.5710	0	33.8010	0	26.535	0	222.903	0	152.6	4	51.0	4	-1E+10	1	-1E+10	1	-1E+10	1	-1E+10	1	-1E+10	1	-1E+10	1
4902549	61	C	04/18/2022	01:00	-131.602	47.445	0	226.00	0	6.5520	0	33.8030	0	26.539	0	223.992	0	151.8	4	50.7	4	-1E+10	1	-1E+10	1	-1E+10	1	-1E+10	1	-1E+10	1	-1E+10	1
4902549	61	C	04/18/2022	01:00	-131.602	47.445	0	227.00	0	6.5440	0	33.8030	0	26.540	0	224.983	0	151.0	4	50.5	4	-1E+10	1	-1E+10	1	-1E+10	1	-1E+10	1	-1E+10	1	-1E+10	1
4902549	61	C	04/18/2022	01:00	-131.602	47.445	0	228.10	0	6.5410	0	33.8060	0	26.543	0	226.073	0	150.6	4	50.3	4	-1E+10	1	-1E+10	1	-1E+10	1	-1E+10	1	-1E+10	1	-1E+10	1
4902549	61	C	04/18/2022	01:00	-131.602	47.445	0	229.20	0	6.5350	0	33.8060	0	26.543	0	227.162	0	150.2	4	50.2	4	-1E+10	1	-1E+10	1	-1E+10	1	-1E+10	1	-1E+10	1	-1E+10	1
4902549	61	C	04/18/2022	01:00	-131.602	47.445	0	230.20	0	6.5190	0	33.8030	0	26.543	0	228.153	0	149.6	4	50.0	4	-1E+10	1	-1E+10	1	-1E+10	1	-1E+10	1	-1E+10	1	-1E+10	1
4902549	61	C	04/18/2022	01:00	-131.602	47.445	0	231.20	0	6.4640	0	33.8030	0	26.550	0	229.143	0	148.9	4	49.7	4	-1E+10	1	-1E+10	1	-1E+10	1	-1E+10	1	-1E+10	1	-1E+10	1
4902549	61	C	04/18/2022	01:00	-131.602	47.445	0	232.30	0	6.4330	0	33.8020	0	26.554	0	230.233	0	148.1	4	49.4	4	-1E+10	1	-1E+10	1	-1E+10	1	-1E+10	1	-1E+10	1	-1E+10	1
4902549	61	C	04/18/2022	01:00	-131.602	47.445	0	233.30	0	6.4150	0	33.8050	0	26.558	0	231.223	0	147.3	4	49.1	4	-1E+10	1	-1E+10	1	-1E+10	1	-1E+10	1	-1E+10	1	-1E+10	1
4902549	61	C	04/18/2022	01:00	-131.602	47.445	0	234.30	0	6.4000	0	33.8100	0	26.564	0	232.214	0	146.9	4	48.9	4	-1E+10	1	-1E+10	1	-1E+10	1	-1E+10	1	-1E+10	1	-1E+10	1
4902549	61	C	04/18/2022	01:00	-131.602	47.445	0	235.40	0	6.3640	0	33.8100	0	26.569	0	233.304	0	146.5	4	48.8	4	-1E+10	1	-1E+10	1	-1E+10	1	-1E+10	1	-1E+10	1	-1E+10	1
4902549	61	C	04/18/2022	01:00	-131.602	47.445	0	236.40	0	6.3410	0	33.8120	0	26.573	0	234.294	0	146.2	4	48.7	4	-1E+10	1	-1E+10	1	-1E+10	1	-1E+10	1	-1E+10	1	-1E+10	1
4902549	61	C	04/18/2022	01:00	-131.602	47.445	0	237.50	0	6.3350	0	33.8130	0	26.575	0	235.384	0	145.9	4	48.5	4	-1E+10	1	-1E+10	1	-1E+10	1	-1E+10	1	-1E+10	1	-1E+10	1
4902549	61	C	04/18/2022	01:00	-131.602	47.445	0	238.50	0	6.3210	0	33.8090	0	26.574	0	236.374	0	145.4	4	48.4	4	-1E+10	1	-1E+10	1	-1E+10	1	-1E+10	1	-1E+10	1	-1E+10	1
4902549	61	C	04/18/2022	01:00	-131.602	47.445	0	239.50	0	6.2940	0	33.8090	0	26.577	0	237.365	0	145.0	4	48.2	4	-1E+10	1	-1E+10	1	-1E+10	1	-1E+10	1	-1E+10	1	-1E+10	1
4902549	61	C	04/18/2022	01:00	-131.602	47.445	0	240.50	0	6.2750	0	33.8100	0	26.580	0	238.355	0	144.5	4	48.0	4	-1E+10	1	-1E+10	1	-1E+10	1	-1E+10	1	-1E+10	1	-1E+10	1
4902549	61	C	04/18/2022	01:00	-131.602	47.445	0	241.50	0	6.2720	0	33.8100	0	26.581	0	239.346	0	143.9	4	47.8	4	-1E+10	1	-1E+10	1	-1E+10	1	-1E+10	1	-1E+10	1	-1E+10	1
4902549	61	C	04/18/2022	01:00	-131.602	47.445	0	242.50	0	6.2620	0	33.8100	0	26.582	0	240.336	0	143.3	4	47.6	4	-1E+10	1	-1E+10	1	-1E+10	1	-1E+10	1	-1E+10	1	-1E+10	1
4902549	61	C	04/18/2022	01:00	-131.602	47.445	0	243.50	0	6.2560	0	33.8100	0	26.583	0	241.327	0	142.5	4	47.3	4	-1E+10	1	-1E+10	1	-1E+10	1	-1E+10	1	-1E+10	1	-1E+10	1
4902549	61	C	04/18/2022	01:00	-131.602	47.445	0	244.50	0	6.2460	0	33.8100	0	26.584	0	242.317	0	141.8	4	47.1	4	-1E+10	1	-1E+10	1	-1E+10	1	-1E+10	1	-1E+10	1	-1E+10	1
4902549	61	C	04/18/2022	01:00	-131.602	47.445	0	245.90	0	6.2130	0	33.8090	0	26.587	0	243.704	0	140.7	4	46.7	4	-1E+10	1	-1E+10	1	-1E+10	1	-1E+10	1	-1E+10	1	-1E+10	1
4902549	61	C	04/18/2022	01:00	-131.602	47.445	0	247.40	0	6.1810	0	33.8130	0	26.595	0	245.190	0	139.8	4	46.3	4	-1E+10	1	-1E+10	1	-1E+10	1	-1E+10	1	-1E+10	1	-1E+10	1
4902549	61	C	04/18/2022	01:00	-131.602	47.445	0	248.40	0	6.1650	0	33.8120	0	26.596	0	246.180	0	139.1	4	46.1	4	-1E+10	1	-1E+10	1	-1E+10	1	-1E+10	1	-1E+10	1	-1E+10	1
4902549	61	C	04/18/2022	01:00	-131.602	47.445	0	249.30	0	6.1320	0	33.8150	0	26.603	0	247.071	0	138.5	4	45.9	4	-1E+10	1	-1E+10	1	-1E+10	1	-1E+10	1	-1E+10	1	-1E+10	1
4902549	61	C	04/18/2022	01:00	-131.602	47.445	0	250.30	0	6.1060	0	33.8140	0	26.605	0	248.062	0	138.1	4	45.7	4	-1E+10	1	-1E+10	1	-1E+10	1	-1E+10	1	-1E+10	1	-1E+10	1
4902549	61	C	04/18/2022	01:00	-131.602	47.445	0	251.30	0	6.0970	0	33.8130	0	26.605	0	249.052	0	137.5	4	45.5	4	-1E+10	1	-1E+10	1	-1E+10	1	-1E+10	1	-1E+10	1	-1E+10	1
4902549	61	C	04/18/2022	01:00	-131.602	47.445	0	252.30	0	6.0820	0	33.8140	0	26.608	0	250.043	0	137.0	4	45.3	4	-1E+10	1	-1E+10	1	-1E+10	1	-1E+10	1	-1E+10	1	-1E+10	1
4902549	61	C	04/18/2022	01:00	-131.602	47.445	0	253.20	0	6.0740	0	33.8130	0	26.608	0	250.934	0	136.4	4	45.1	4	-1E+10	1	-1E+10	1	-1E+10	1	-1E+10	1	-1E+10	1	-1E+10	1
4902549	61	C	04/18/2022	01:00	-131.602	47.445	0	254.20	0	6.0330	0	33.8160	0	26.616	0	251.925	0	136.0	4	44.9	4	-1E+10	1	-1E+10	1	-1E+10	1	-1E+10	1	-1E+10	1	-1E+10	1
4902549	61	C	04/18/2022	01:00	-131.602	47.445	0	255.20	0	6.0230	0	33.8160	0	26.617	0	252.915	0	135.5	4	44.8	4	-1E+10	1	-1E+10	1	-1E+10	1	-1E+10	1	-1E+10	1	-1E+10	1
4902549	61	C	04/18/2022	01:00	-131.602	47.445	0	256.10	0	6.0040	0	33.8180	0	26.621	0	253.807	0	135.1	4	44.6	4	-1E+10	1	-1E+10	1	-1E+10	1	-1E+10	1	-1E+10	1	-1E+10	1
4902549	61	C	04/18/2022	01:00	-131.602	47.445	0	257.10	0	6.0030	0	33.8180	0	26.621	0	254.797	0	134.7	4	44.5	4	-1E+10	1	-1E+10	1	-1E+10	1	-1E+10	1	-1E+10	1	-1E+10	1
4902549	61	C	04/18/2022	01:00	-131.602	47.445	0	258.00	0	6.0000	0	33.8180	0	26.622	0	255.688	0	134.1	4	44.3	4	-1E+10	1	-1E+10	1	-1E+10	1	-1E+10	1	-1E+10	1	-1E+10	1
4902549	61	C	04/18/2022	01:00	-131.602	47.445	0	259.00	0	5.9990	0	33.8170	0	26.621	0	256.679	0	133.6	4	44.1	4	-1E+10	1	-1E+10	1	-1E+10	1	-1E+10	1	-1E+10	1	-1E+10	1
4902549	61	C	04/18/2022	01:00	-131.602	47.445	0	259.90	0	5.9970	0	33.8180	0	26.622	0	257.570	0	132.9	4	43.9	4	-1E+10	1	-1E+10	1	-1E+10	1	-1E+10	1	-1E+10	1	-1E+10	1
4902549	61	C	04/18/2022	01:00	-131.602	47.445	0	260.90	0	5.9840	0	33.8190	0	26.624	0	258.561	0	132.2	4	43.6	4	-1E+10	1	-1E+10	1	-1E+10	1	-1E+10	1	-1E+10	1	-1E+10	1
4902549	61	C	04/18/2022	01:00	-131.602	47.445	0	261.80	0	5.9660	0	33.8180	0	26.626	0	259.452	0	131.7	4	43.4	4	-1E+10	1	-1E+10	1	-1E+10	1	-1E+10	1	-1E+10	1	-1E+10	1
4902549	61	C	04/18/2022	01:00	-131.602	47.445	0	262.80	0	5.9600	0	33.8180	0	26.627	0	260.442	0	130.9	4	43.2	4	-1E+10	1	-1E+10	1	-1E+10	1	-1E+10	1	-1E+10	1	-1E+10	1
4902549	61	C	04/18/2022	01:00	-131.602	47.445	0	263.70	0	5.9430	0	33.8180	0	26.629	0	261.334	0	130.3	4	42.9	4	-1E+10	1	-1E+10	1	-1E+10	1	-1E+10	1	-1E+10	1	-1E+10	1
4902549	61	C	04/18/2022	01:00	-131.602	47.445	0	264.60	0	5.9140	0	33.8180	0	26.632	0	262.225	0	129.6	4	42.7	4	-1E+10	1	-1E+10	1	-1E+10	1	-1E+10	1	-1E+10	1	-1E+10	1
4902549	61	C	04/18/2022	01:00	-131.602	47.445	0	265.90	0	5.8980	0	33.8160	0	26.633	0	263.513	0	128.5	4	42.3	4	-1E+10	1	-1E+10	1	-1E+10	1	-1E+10	1	-1E+10	1	-1E+10	1
4902549	61	C	04/18/2022	01:00	-131.602	47.445	0	267.40	0	5.8440	0	33.8210	0	26.643	0	264.998	0	127.5	4	42.0	4	-1E+10	1	-1E+10	1	-1E+10	1	-1E+10	1	-1E+10	1	-1E+10	1
4902549	61	C	04/18/2022	01:00	-131.602	47.445	0	268.30	0	5.7790	0	33.8230	0	26.653	0	265.889	0	127.2	4	41.8	4	-1E+10	1	-1E+10	1	-1E+10	1	-1E+10	1	-1E+10	1	-1E+10	1
4902549	61	C	04/18/2022	01:00	-131.602	47.445	0	269.20	0	5.7730	0	33.8200	0	26.651	0	266.781	0	126.7	4	41.6	4	-1E+10	1	-1E+10	1	-1E+10	1	-1E+10	1	-1E+10	1	-1E+10	1
4902549	61	C	04/18/2022	01:00	-131.602	47.445	0	270.20	0	5.7720	0	33.8210	0	26.652	0	267.771	0	126.1	4	41.4	4	-1E+10	1	-1E+10	1	-1E+10	1	-1E+10	1	-1E+10	1	-1E+10	1
4902549	61	C	04/18/2022	01:00	-131.602	47.445	0	271.10	0	5.7660	0	33.8200	0	26.652	0	268.662	0	125.5	4	41.2	4	-1E+10	1	-1E+10	1	-1E+10	1	-1E+10	1	-1E+10	1	-1E+10	1
4902549	61	C	04/18/2022	01:00	-131.602	47.445	0	272.00	0	5.7600	0	33.8210	0	26.654	0	269.554	0	124.8	4	41.0	4	-1E+10	1	-1E+10	1	-1E+10	1	-1E+10	1	-1E+10	1	-1E+10	1
4902549	61	C	04/18/2022	01:00	-131.602	47.445	0	273.00	0	5.7540	0	33.8200	0	26.654	0	270.544	0	124.1	4	40.8	4	-1E+10	1	-1E+10	1	-1E+10	1	-1E+10	1	-1E+10	1	-1E+10	1
4902549	61	C	04/18/2022	01:00	-131.602	47.445	0	273.90	0	5.7380	0	33.8220	0	26.657	0	271.435	0	123.5	4	40.5	4	-1E+10	1	-1E+10	1	-1E+10	1	-1E+10	1	-1E+10	1	-1E+10	1
4902549	61	C	04/18/2022	01:00	-131.602	47.445	0	274.90	0	5.7360	0	33.8210	0	26.657	0	272.426	0	122.7	4	40.3	4	-1E+10	1	-1E+10	1	-1E+10	1	-1E+10	1	-1E+10	1	-1E+10	1
4902549	61	C	04/18/2022	01:00	-131.602	47.445	0	275.80	0	5.7150	0	33.8240	0	26.662	0	273.317	0	122.0	4	40.0	4	-1E+10	1	-1E+10	1	-1E+10	1	-1E+10	1	-1E+10	1	-1E+10	1
4902549	61	C	04/18/2022	01:00	-131.602	47.445	0	276.80	0	5.6820	0	33.8240	0	26.666	0	274.307	0	121.2	4	39.7	4	-1E+10	1	-1E+10	1	-1E+10	1	-1E+10	1	-1E+10	1	-1E+10	1
4902549	61	C	04/18/2022	01:00	-131.602	47.445	0	277.80	0	5.6540	0	33.8240	0	26.669	0	275.298	0	120.6	4	39.5	4	-1E+10	1	-1E+10	1	-1E+10	1	-1E+10	1	-1E+10	1	-1E+10	1
4902549	61	C	04/18/2022	01:00	-131.602	47.445	0	278.70	0	5.6280	0	33.8270	0	26.674	0	276.189	0	120.0	4	39.3	4	-1E+10	1	-1E+10	1	-1E+10	1	-1E+10	1	-1E+10	1	-1E+10	1
4902549	61	C	04/18/2022	01:00	-131.602	47.445	0	279.70	0	5.6160	0	33.8270	0	26.676	0	277.179	0	119.4	4	39.1	4	-1E+10	1	-1E+10	1	-1E+10	1	-1E+10	1	-1E+10	1	-1E+10	1
4902549	61	C	04/18/2022	01:00	-131.602	47.445	0	280.70	0	5.6060	0	33.8270	0	26.677	0	278.170	0	118.8	4	38.9	4	-1E+10	1	-1E+10	1	-1E+10	1	-1E+10	1	-1E+10	1	-1E+10	1
4902549	61	C	04/18/2022	01:00	-131.602	47.445	0	281.70	0	5.5980	0	33.8300	0	26.681	0	279.160	0	118.3	4	38.7	4	-1E+10	1	-1E+10	1	-1E+10	1	-1E+10	1	-1E+10	1	-1E+10	1
4902549	61	C	04/18/2022	01:00	-131.602	47.445	0	282.60	0	5.5740	0	33.8310	0	26.684	0	280.051	0	117.8	4	38.5	4	-1E+10	1	-1E+10	1	-1E+10	1	-1E+10	1	-1E+10	1	-1E+10	1
4902549	61	C	04/18/2022	01:00	-131.602	47.445	0	283.60	0	5.5570	0	33.8320	0	26.687	0	281.042	0	117.5	4	38.4	4	-1E+10	1	-1E+10	1	-1E+10	1	-1E+10	1	-1E+10	1	-1E+10	1
4902549	61	C	04/18/2022	01:00	-131.602	47.445	0	284.60	0	5.5510	0	33.8320	0	26.688	0	282.032	0	117.2	4	38.3	4	-1E+10	1	-1E+10	1	-1E+10	1	-1E+10	1	-1E+10	1	-1E+10	1
4902549	61	C	04/18/2022	01:00	-131.602	47.445	0	285.50	0	5.5500	0	33.8340	0	26.689	0	282.923	0	116.8	4	38.2	4	-1E+10	1	-1E+10	1	-1E+10	1	-1E+10	1	-1E+10	1	-1E+10	1
4902549	61	C	04/18/2022	01:00	-131.602	47.445	0	287.00	0	5.5520	0	33.8340	0	26.689	0	284.409	0	116.1	4	37.9	4	-1E+10	1	-1E+10	1	-1E+10	1	-1E+10	1	-1E+10	1	-1E+10	1
4902549	61	C	04/18/2022	01:00	-131.602	47.445	0	288.10	0	5.5530	0	33.8350	0	26.690	0	285.498	0	115.5	4	37.7	4	-1E+10	1	-1E+10	1	-1E+10	1	-1E+10	1	-1E+10	1	-1E+10	1
4902549	61	C	04/18/2022	01:00	-131.602	47.445	0	288.90	0	5.5520	0	33.8360	0	26.691	0	286.290	0	115.0	4	37.6	4	-1E+10	1	-1E+10	1	-1E+10	1	-1E+10	1	-1E+10	1	-1E+10	1
4902549	61	C	04/18/2022	01:00	-131.602	47.445	0	290.00	0	5.5530	0	33.8360	0	26.691	0	287.379	0	114.3	4	37.3	4	-1E+10	1	-1E+10	1	-1E+10	1	-1E+10	1	-1E+10	1	-1E+10	1
4902549	61	C	04/18/2022	01:00	-131.602	47.445	0	291.20	0	5.5550	0	33.8370	0	26.691	0	288.568	0	113.5	4	37.1	4	-1E+10	1	-1E+10	1	-1E+10	1	-1E+10	1	-1E+10	1	-1E+10	1
4902549	61	C	04/18/2022	01:00	-131.602	47.445	0	292.00	0	5.5530	0	33.8370	0	26.692	0	289.360	0	113.0	4	36.9	4	-1E+10	1	-1E+10	1	-1E+10	1	-1E+10	1	-1E+10	1	-1E+10	1
4902549	61	C	04/18/2022	01:00	-131.602	47.445	0	292.80	0	5.5410	0	33.8390	0	26.695	0	290.152	0	112.4	4	36.7	4	-1E+10	1	-1E+10	1	-1E+10	1	-1E+10	1	-1E+10	1	-1E+10	1
4902549	61	C	04/18/2022	01:00	-131.602	47.445	0	294.00	0	5.5290	0	33.8390	0	26.696	0	291.340	0	111.5	4	36.4	4	-1E+10	1	-1E+10	1	-1E+10	1	-1E+10	1	-1E+10	1	-1E+10	1
4902549	61	C	04/18/2022	01:00	-131.602	47.445	0	295.20	0	5.5200	0	33.8420	0	26.699	0	292.529	0	110.5	4	36.1	4	-1E+10	1	-1E+10	1	-1E+10	1	-1E+10	1	-1E+10	1	-1E+10	1
4902549	61	C	04/18/2022	01:00	-131.602	47.445	0	296.00	0	5.4910	0	33.8430	0	26.704	0	293.321	0	110.0	4	35.9	4	-1E+10	1	-1E+10	1	-1E+10	1	-1E+10	1	-1E+10	1	-1E+10	1
4902549	61	C	04/18/2022	01:00	-131.602	47.445	0	296.90	0	5.4740	0	33.8410	0	26.704	0	294.212	0	109.5	4	35.7	4	-1E+10	1	-1E+10	1	-1E+10	1	-1E+10	1	-1E+10	1	-1E+10	1
4902549	61	C	04/18/2022	01:00	-131.602	47.445	0	297.70	0	5.4480	0	33.8440	0	26.710	0	295.004	0	109.0	4	35.5	4	-1E+10	1	-1E+10	1	-1E+10	1	-1E+10	1	-1E+10	1	-1E+10	1
4902549	61	C	04/18/2022	01:00	-131.602	47.445	0	299.00	0	5.4360	0	33.8430	0	26.710	0	296.292	0	108.2	4	35.3	4	-1E+10	1	-1E+10	1	-1E+10	1	-1E+10	1	-1E+10	1	-1E+10	1
4902549	61	C	04/18/2022	01:00	-131.602	47.445	0	300.30	0	5.4330	0	33.8430	0	26.711	0	297.579	0	107.4	4	35.0	4	-1E+10	1	-1E+10	1	-1E+10	1	-1E+10	1	-1E+10	1	-1E+10	1
4902549	61	C	04/18/2022	01:00	-131.602	47.445	0	301.20	0	5.4180	0	33.8470	0	26.716	0	298.470	0	106.8	4	34.8	4	-1E+10	1	-1E+10	1	-1E+10	1	-1E+10	1	-1E+10	1	-1E+10	1
4902549	61	C	04/18/2022	01:00	-131.602	47.445	0	302.10	0	5.4000	0	33.8480	0	26.719	0	299.361	0	106.5	4	34.7	4	-1E+10	1	-1E+10	1	-1E+10	1	-1E+10	1	-1E+10	1	-1E+10	1
4902549	61	C	04/18/2022	01:00	-131.602	47.445	0	303.00	0	5.3840	0	33.8470	0	26.720	0	300.253	0	106.1	4	34.5	4	-1E+10	1	-1E+10	1	-1E+10	1	-1E+10	1	-1E+10	1	-1E+10	1
4902549	61	C	04/18/2022	01:00	-131.602	47.445	0	303.90	0	5.3780	0	33.8470	0	26.720	0	301.144	0	105.6	4	34.4	4	-1E+10	1	-1E+10	1	-1E+10	1	-1E+10	1	-1E+10	1	-1E+10	1
4902549	61	C	04/18/2022	01:00	-131.602	47.445	0	304.80	0	5.3610	0	33.8460	0	26.722	0	302.035	0	105.1	4	34.2	4	-1E+10	1	-1E+10	1	-1E+10	1	-1E+10	1	-1E+10	1	-1E+10	1
4902549	61	C	04/18/2022	01:00	-131.602	47.445	0	305.70	0	5.3510	0	33.8500	0	26.726	0	302.926	0	104.7	4	34.1	4	-1E+10	1	-1E+10	1	-1E+10	1	-1E+10	1	-1E+10	1	-1E+10	1
4902549	61	C	04/18/2022	01:00	-131.602	47.445	0	306.60	0	5.3350	0	33.8490	0	26.727	0	303.817	0	104.4	4	33.9	4	-1E+10	1	-1E+10	1	-1E+10	1	-1E+10	1	-1E+10	1	-1E+10	1
4902549	61	C	04/18/2022	01:00	-131.602	47.445	0	307.90	0	5.3220	0	33.8500	0	26.729	0	305.104	0	103.8	4	33.7	4	-1E+10	1	-1E+10	1	-1E+10	1	-1E+10	1	-1E+10	1	-1E+10	1
4902549	61	C	04/18/2022	01:00	-131.602	47.445	0	309.40	0	5.3180	0	33.8500	0	26.730	0	306.590	0	103.2	4	33.5	4	-1E+10	1	-1E+10	1	-1E+10	1	-1E+10	1	-1E+10	1	-1E+10	1
4902549	61	C	04/18/2022	01:00	-131.602	47.445	0	310.30	0	5.3130	0	33.8500	0	26.730	0	307.481	0	102.8	4	33.4	4	-1E+10	1	-1E+10	1	-1E+10	1	-1E+10	1	-1E+10	1	-1E+10	1
4902549	61	C	04/18/2022	01:00	-131.602	47.445	0	311.20	0	5.2910	0	33.8510	0	26.734	0	308.372	0	102.4	4	33.3	4	-1E+10	1	-1E+10	1	-1E+10	1	-1E+10	1	-1E+10	1	-1E+10	1
4902549	61	C	04/18/2022	01:00	-131.602	47.445	0	312.20	0	5.2800	0	33.8520	0	26.736	0	309.362	0	102.0	4	33.1	4	-1E+10	1	-1E+10	1	-1E+10	1	-1E+10	1	-1E+10	1	-1E+10	1
4902549	61	C	04/18/2022	01:00	-131.602	47.445	0	313.20	0	5.2790	0	33.8520	0	26.736	0	310.352	0	101.6	4	33.0	4	-1E+10	1	-1E+10	1	-1E+10	1	-1E+10	1	-1E+10	1	-1E+10	1
4902549	61	C	04/18/2022	01:00	-131.602	47.445	0	314.10	0	5.2740	0	33.8530	0	26.737	0	311.244	0	101.2	4	32.9	4	-1E+10	1	-1E+10	1	-1E+10	1	-1E+10	1	-1E+10	1	-1E+10	1
4902549	61	C	04/18/2022	01:00	-131.602	47.445	0	315.10	0	5.2710	0	33.8530	0	26.738	0	312.234	0	100.7	4	32.7	4	-1E+10	1	-1E+10	1	-1E+10	1	-1E+10	1	-1E+10	1	-1E+10	1
4902549	61	C	04/18/2022	01:00	-131.602	47.445	0	316.00	0	5.2670	0	33.8540	0	26.739	0	313.125	0	100.3	4	32.6	4	-1E+10	1	-1E+10	1	-1E+10	1	-1E+10	1	-1E+10	1	-1E+10	1
4902549	61	C	04/18/2022	01:00	-131.602	47.445	0	317.00	0	5.2600	0	33.8540	0	26.740	0	314.115	0	99.9	4	32.4	4	-1E+10	1	-1E+10	1	-1E+10	1	-1E+10	1	-1E+10	1	-1E+10	1
4902549	61	C	04/18/2022	01:00	-131.602	47.445	0	318.00	0	5.2520	0	33.8550	0	26.742	0	315.105	0	99.4	4	32.3	4	-1E+10	1	-1E+10	1	-1E+10	1	-1E+10	1	-1E+10	1	-1E+10	1
4902549	61	C	04/18/2022	01:00	-131.602	47.445	0	319.00	0	5.2480	0	33.8560	0	26.743	0	316.095	0	98.9	4	32.1	4	-1E+10	1	-1E+10	1	-1E+10	1	-1E+10	1	-1E+10	1	-1E+10	1
4902549	61	C	04/18/2022	01:00	-131.602	47.445	0	319.90	0	5.2440	0	33.8560	0	26.743	0	316.986	0	98.4	4	31.9	4	-1E+10	1	-1E+10	1	-1E+10	1	-1E+10	1	-1E+10	1	-1E+10	1
4902549	61	C	04/18/2022	01:00	-131.602	47.445	0	320.90	0	5.2340	0	33.8570	0	26.745	0	317.976	0	97.9	4	31.8	4	-1E+10	1	-1E+10	1	-1E+10	1	-1E+10	1	-1E+10	1	-1E+10	1
4902549	61	C	04/18/2022	01:00	-131.602	47.445	0	321.90	0	5.2250	0	33.8580	0	26.747	0	318.967	0	97.5	4	31.6	4	-1E+10	1	-1E+10	1	-1E+10	1	-1E+10	1	-1E+10	1	-1E+10	1
4902549	61	C	04/18/2022	01:00	-131.602	47.445	0	322.80	0	5.2140	0	33.8590	0	26.749	0	319.858	0	97.1	4	31.5	4	-1E+10	1	-1E+10	1	-1E+10	1	-1E+10	1	-1E+10	1	-1E+10	1
4902549	61	C	04/18/2022	01:00	-131.602	47.445	0	323.80	0	5.2120	0	33.8580	0	26.749	0	320.848	0	96.5	4	31.3	4	-1E+10	1	-1E+10	1	-1E+10	1	-1E+10	1	-1E+10	1	-1E+10	1
4902549	61	C	04/18/2022	01:00	-131.602	47.445	0	324.80	0	5.2100	0	33.8580	0	26.749	0	321.838	0	95.9	4	31.1	4	-1E+10	1	-1E+10	1	-1E+10	1	-1E+10	1	-1E+10	1	-1E+10	1
4902549	61	C	04/18/2022	01:00	-131.602	47.445	0	325.80	0	5.1910	0	33.8600	0	26.753	0	322.828	0	95.4	4	30.9	4	-1E+10	1	-1E+10	1	-1E+10	1	-1E+10	1	-1E+10	1	-1E+10	1
4902549	61	C	04/18/2022	01:00	-131.602	47.445	0	326.80	0	5.1760	0	33.8620	0	26.756	0	323.818	0	94.9	4	30.8	4	-1E+10	1	-1E+10	1	-1E+10	1	-1E+10	1	-1E+10	1	-1E+10	1
4902549	61	C	04/18/2022	01:00	-131.602	47.445	0	327.80	0	5.1560	0	33.8630	0	26.759	0	324.808	0	94.6	4	30.6	4	-1E+10	1	-1E+10	1	-1E+10	1	-1E+10	1	-1E+10	1	-1E+10	1
4902549	61	C	04/18/2022	01:00	-131.602	47.445	0	328.80	0	5.1460	0	33.8630	0	26.760	0	325.798	0	94.1	4	30.4	4	-1E+10	1	-1E+10	1	-1E+10	1	-1E+10	1	-1E+10	1	-1E+10	1
4902549	61	C	04/18/2022	01:00	-131.602	47.445	0	329.80	0	5.1420	0	33.8640	0	26.761	0	326.788	0	93.6	4	30.3	4	-1E+10	1	-1E+10	1	-1E+10	1	-1E+10	1	-1E+10	1	-1E+10	1
4902549	61	C	04/18/2022	01:00	-131.602	47.445	0	330.80	0	5.1400	0	33.8630	0	26.761	0	327.778	0	93.1	4	30.1	4	-1E+10	1	-1E+10	1	-1E+10	1	-1E+10	1	-1E+10	1	-1E+10	1
4902549	61	C	04/18/2022	01:00	-131.602	47.445	0	331.70	0	5.1360	0	33.8630	0	26.761	0	328.670	0	92.5	4	30.0	4	-1E+10	1	-1E+10	1	-1E+10	1	-1E+10	1	-1E+10	1	-1E+10	1
4902549	61	C	04/18/2022	01:00	-131.602	47.445	0	332.80	0	5.1150	0	33.8670	0	26.767	0	329.759	0	92.1	4	29.8	4	-1E+10	1	-1E+10	1	-1E+10	1	-1E+10	1	-1E+10	1	-1E+10	1
4902549	61	C	04/18/2022	01:00	-131.602	47.445	0	333.80	0	5.1030	0	33.8690	0	26.770	0	330.749	0	91.6	4	29.6	4	-1E+10	1	-1E+10	1	-1E+10	1	-1E+10	1	-1E+10	1	-1E+10	1
4902549	61	C	04/18/2022	01:00	-131.602	47.445	0	334.70	0	5.0950	0	33.8700	0	26.772	0	331.640	0	91.2	4	29.5	4	-1E+10	1	-1E+10	1	-1E+10	1	-1E+10	1	-1E+10	1	-1E+10	1
4902549	61	C	04/18/2022	01:00	-131.602	47.445	0	335.70	0	5.0860	0	33.8710	0	26.773	0	332.630	0	90.8	4	29.3	4	-1E+10	1	-1E+10	1	-1E+10	1	-1E+10	1	-1E+10	1	-1E+10	1
4902549	61	C	04/18/2022	01:00	-131.602	47.445	0	336.70	0	5.0850	0	33.8710	0	26.774	0	333.620	0	90.3	4	29.2	4	-1E+10	1	-1E+10	1	-1E+10	1	-1E+10	1	-1E+10	1	-1E+10	1
4902549	61	C	04/18/2022	01:00	-131.602	47.445	0	337.70	0	5.0800	0	33.8720	0	26.775	0	334.610	0	89.8	4	29.0	4	-1E+10	1	-1E+10	1	-1E+10	1	-1E+10	1	-1E+10	1	-1E+10	1
4902549	61	C	04/18/2022	01:00	-131.602	47.445	0	338.70	0	5.0750	0	33.8720	0	26.776	0	335.600	0	89.3	4	28.8	4	-1E+10	1	-1E+10	1	-1E+10	1	-1E+10	1	-1E+10	1	-1E+10	1
4902549	61	C	04/18/2022	01:00	-131.602	47.445	0	339.70	0	5.0730	0	33.8730	0	26.777	0	336.590	0	88.7	4	28.7	4	-1E+10	1	-1E+10	1	-1E+10	1	-1E+10	1	-1E+10	1	-1E+10	1
4902549	61	C	04/18/2022	01:00	-131.602	47.445	0	340.70	0	5.0680	0	33.8730	0	26.777	0	337.580	0	88.0	4	28.4	4	-1E+10	1	-1E+10	1	-1E+10	1	-1E+10	1	-1E+10	1	-1E+10	1
4902549	61	C	04/18/2022	01:00	-131.602	47.445	0	341.70	0	5.0560	0	33.8750	0	26.780	0	338.570	0	87.3	4	28.2	4	-1E+10	1	-1E+10	1	-1E+10	1	-1E+10	1	-1E+10	1	-1E+10	1
4902549	61	C	04/18/2022	01:00	-131.602	47.445	0	342.70	0	5.0510	0	33.8730	0	26.779	0	339.560	0	86.5	4	28.0	4	-1E+10	1	-1E+10	1	-1E+10	1	-1E+10	1	-1E+10	1	-1E+10	1
4902549	61	C	04/18/2022	01:00	-131.602	47.445	0	343.70	0	5.0210	0	33.8760	0	26.785	0	340.550	0	86.1	4	27.8	4	-1E+10	1	-1E+10	1	-1E+10	1	-1E+10	1	-1E+10	1	-1E+10	1
4902549	61	C	04/18/2022	01:00	-131.602	47.445	0	344.70	0	5.0060	0	33.8800	0	26.790	0	341.540	0	85.5	4	27.6	4	-1E+10	1	-1E+10	1	-1E+10	1	-1E+10	1	-1E+10	1	-1E+10	1
4902549	61	C	04/18/2022	01:00	-131.602	47.445	0	345.80	0	4.9990	0	33.8820	0	26.792	0	342.629	0	85.0	4	27.4	4	-1E+10	1	-1E+10	1	-1E+10	1	-1E+10	1	-1E+10	1	-1E+10	1
4902549	61	C	04/18/2022	01:00	-131.602	47.445	0	346.80	0	4.9950	0	33.8820	0	26.793	0	343.619	0	84.4	4	27.2	4	-1E+10	1	-1E+10	1	-1E+10	1	-1E+10	1	-1E+10	1	-1E+10	1
4902549	61	C	04/18/2022	01:00	-131.602	47.445	0	347.80	0	4.9790	0	33.8830	0	26.795	0	344.609	0	83.9	4	27.1	4	-1E+10	1	-1E+10	1	-1E+10	1	-1E+10	1	-1E+10	1	-1E+10	1
4902549	61	C	04/18/2022	01:00	-131.602	47.445	0	348.90	0	4.9580	0	33.8880	0	26.802	0	345.698	0	83.5	4	26.9	4	-1E+10	1	-1E+10	1	-1E+10	1	-1E+10	1	-1E+10	1	-1E+10	1
4902549	61	C	04/18/2022	01:00	-131.602	47.445	0	349.90	0	4.9440	0	33.8900	0	26.805	0	346.688	0	83.3	4	26.8	4	-1E+10	1	-1E+10	1	-1E+10	1	-1E+10	1	-1E+10	1	-1E+10	1
4902549	61	C	04/18/2022	01:00	-131.602	47.445	0	353.00	0	4.9250	0	33.8920	0	26.809	0	349.757	0	82.5	4	26.6	4	-1E+10	1	-1E+10	1	-1E+10	1	-1E+10	1	-1E+10	1	-1E+10	1
4902549	61	C	04/18/2022	01:00	-131.602	47.445	0	358.20	0	4.9090	0	33.8940	0	26.812	0	354.905	0	81.1	4	26.1	4	-1E+10	1	-1E+10	1	-1E+10	1	-1E+10	1	-1E+10	1	-1E+10	1
4902549	61	C	04/18/2022	01:00	-131.602	47.445	0	362.90	0	4.8860	0	33.8960	0	26.816	0	359.557	0	80.0	4	25.7	4	-1E+10	1	-1E+10	1	-1E+10	1	-1E+10	1	-1E+10	1	-1E+10	1
4902549	61	C	04/18/2022	01:00	-131.602	47.445	0	367.70	0	4.8450	0	33.8990	0	26.823	0	364.309	0	79.4	4	25.5	4	-1E+10	1	-1E+10	1	-1E+10	1	-1E+10	1	-1E+10	1	-1E+10	1
4902549	61	C	04/18/2022	01:00	-131.602	47.445	0	372.90	0	4.8370	0	33.8990	0	26.824	0	369.456	0	78.7	4	25.3	4	-1E+10	1	-1E+10	1	-1E+10	1	-1E+10	1	-1E+10	1	-1E+10	1
4902549	61	C	04/18/2022	01:00	-131.602	47.445	0	378.00	0	4.8210	0	33.9010	0	26.828	0	374.505	0	77.7	4	25.0	4	-1E+10	1	-1E+10	1	-1E+10	1	-1E+10	1	-1E+10	1	-1E+10	1
4902549	61	C	04/18/2022	01:00	-131.602	47.445	0	383.10	0	4.8060	0	33.9040	0	26.832	0	379.553	0	76.4	4	24.6	4	-1E+10	1	-1E+10	1	-1E+10	1	-1E+10	1	-1E+10	1	-1E+10	1
4902549	61	C	04/18/2022	01:00	-131.602	47.445	0	388.10	0	4.7900	0	33.9080	0	26.837	0	384.502	0	75.1	4	24.1	4	-1E+10	1	-1E+10	1	-1E+10	1	-1E+10	1	-1E+10	1	-1E+10	1
4902549	61	C	04/18/2022	01:00	-131.602	47.445	0	393.10	0	4.7760	0	33.9110	0	26.841	0	389.451	0	73.6	4	23.6	4	-1E+10	1	-1E+10	1	-1E+10	1	-1E+10	1	-1E+10	1	-1E+10	1
4902549	61	C	04/18/2022	01:00	-131.602	47.445	0	398.10	0	4.7570	0	33.9170	0	26.847	0	394.400	0	71.7	4	23.0	4	-1E+10	1	-1E+10	1	-1E+10	1	-1E+10	1	-1E+10	1	-1E+10	1
4902549	61	C	04/18/2022	01:00	-131.602	47.445	0	403.00	0	4.7400	0	33.9240	0	26.855	0	399.249	0	70.1	4	22.5	4	-1E+10	1	-1E+10	1	-1E+10	1	-1E+10	1	-1E+10	1	-1E+10	1
4902549	61	C	04/18/2022	01:00	-131.602	47.445	0	407.90	0	4.7370	0	33.9280	0	26.858	0	404.099	0	68.3	4	21.9	4	-1E+10	1	-1E+10	1	-1E+10	1	-1E+10	1	-1E+10	1	-1E+10	1
4902549	61	C	04/18/2022	01:00	-131.602	47.445	0	412.70	0	4.7080	0	33.9350	0	26.867	0	408.850	0	66.7	4	21.4	4	-1E+10	1	-1E+10	1	-1E+10	1	-1E+10	1	-1E+10	1	-1E+10	1
4902549	61	C	04/18/2022	01:00	-131.602	47.445	0	417.60	0	4.6720	0	33.9380	0	26.874	0	413.699	0	65.4	4	21.0	4	-1E+10	1	-1E+10	1	-1E+10	1	-1E+10	1	-1E+10	1	-1E+10	1
4902549	61	C	04/18/2022	01:00	-131.602	47.445	0	422.80	0	4.6510	0	33.9430	0	26.880	0	418.845	0	63.6	4	20.3	4	-1E+10	1	-1E+10	1	-1E+10	1	-1E+10	1	-1E+10	1	-1E+10	1
4902549	61	C	04/18/2022	01:00	-131.602	47.445	0	428.00	0	4.6290	0	33.9500	0	26.888	0	423.991	0	62.0	4	19.8	4	-1E+10	1	-1E+10	1	-1E+10	1	-1E+10	1	-1E+10	1	-1E+10	1
4902549	61	C	04/18/2022	01:00	-131.602	47.445	0	432.90	0	4.6150	0	33.9520	0	26.891	0	428.840	0	61.0	4	19.5	4	-1E+10	1	-1E+10	1	-1E+10	1	-1E+10	1	-1E+10	1	-1E+10	1
4902549	61	C	04/18/2022	01:00	-131.602	47.445	0	437.70	0	4.5990	0	33.9550	0	26.895	0	433.590	0	59.8	4	19.1	4	-1E+10	1	-1E+10	1	-1E+10	1	-1E+10	1	-1E+10	1	-1E+10	1
4902549	61	C	04/18/2022	01:00	-131.602	47.445	0	442.90	0	4.5610	0	33.9590	0	26.903	0	438.736	0	57.6	4	18.4	4	-1E+10	1	-1E+10	1	-1E+10	1	-1E+10	1	-1E+10	1	-1E+10	1
4902549	61	C	04/18/2022	01:00	-131.602	47.445	0	448.40	0	4.5100	0	33.9710	0	26.918	0	444.178	0	55.4	4	17.7	4	-1E+10	1	-1E+10	1	-1E+10	1	-1E+10	1	-1E+10	1	-1E+10	1
4902549	61	C	04/18/2022	01:00	-131.602	47.445	0	453.40	0	4.4690	0	33.9770	0	26.927	0	449.126	0	54.5	4	17.4	4	-1E+10	1	-1E+10	1	-1E+10	1	-1E+10	1	-1E+10	1	-1E+10	1
4902549	61	C	04/18/2022	01:00	-131.602	47.445	0	458.40	0	4.4590	0	33.9800	0	26.930	0	454.073	0	53.3	4	17.0	4	-1E+10	1	-1E+10	1	-1E+10	1	-1E+10	1	-1E+10	1	-1E+10	1
4902549	61	C	04/18/2022	01:00	-131.602	47.445	0	463.10	0	4.4390	0	33.9850	0	26.937	0	458.724	0	52.1	4	16.6	4	-1E+10	1	-1E+10	1	-1E+10	1	-1E+10	1	-1E+10	1	-1E+10	1
4902549	61	C	04/18/2022	01:00	-131.602	47.445	0	467.90	0	4.4280	0	33.9880	0	26.940	0	463.473	0	50.4	4	16.0	4	-1E+10	1	-1E+10	1	-1E+10	1	-1E+10	1	-1E+10	1	-1E+10	1
4902549	61	C	04/18/2022	01:00	-131.602	47.445	0	473.20	0	4.4050	0	33.9960	0	26.949	0	468.717	0	48.6	4	15.5	4	-1E+10	1	-1E+10	1	-1E+10	1	-1E+10	1	-1E+10	1	-1E+10	1
4902549	61	C	04/18/2022	01:00	-131.602	47.445	0	478.10	0	4.3890	0	34.0010	0	26.955	0	473.565	0	47.8	4	15.2	4	-1E+10	1	-1E+10	1	-1E+10	1	-1E+10	1	-1E+10	1	-1E+10	1
4902549	61	C	04/18/2022	01:00	-131.602	47.445	0	483.10	0	4.3740	0	34.0020	0	26.957	0	478.512	0	47.1	4	15.0	4	-1E+10	1	-1E+10	1	-1E+10	1	-1E+10	1	-1E+10	1	-1E+10	1
4902549	61	C	04/18/2022	01:00	-131.602	47.445	0	488.20	0	4.3640	0	34.0030	0	26.959	0	483.557	0	45.9	4	14.6	4	-1E+10	1	-1E+10	1	-1E+10	1	-1E+10	1	-1E+10	1	-1E+10	1
4902549	61	C	04/18/2022	01:00	-131.602	47.445	0	492.90	0	4.3470	0	34.0090	0	26.966	0	488.207	0	44.2	4	14.1	4	-1E+10	1	-1E+10	1	-1E+10	1	-1E+10	1	-1E+10	1	-1E+10	1
4902549	61	C	04/18/2022	01:00	-131.602	47.445	0	497.60	0	4.3380	0	34.0150	0	26.971	0	492.857	0	43.0	4	13.7	4	-1E+10	1	-1E+10	1	-1E+10	1	-1E+10	1	-1E+10	1	-1E+10	1
4902549	61	C	04/18/2022	01:00	-131.602	47.445	0	503.00	0	4.3220	0	34.0190	0	26.976	0	498.199	0	42.1	4	13.4	4	-1E+10	1	-1E+10	1	-1E+10	1	-1E+10	1	-1E+10	1	-1E+10	1
4902549	61	C	04/18/2022	01:00	-131.602	47.445	0	508.00	0	4.3010	0	34.0220	0	26.981	0	503.145	0	41.2	4	13.1	4	-1E+10	1	-1E+10	1	-1E+10	1	-1E+10	1	-1E+10	1	-1E+10	1
4902549	61	C	04/18/2022	01:00	-131.602	47.445	0	512.90	0	4.2820	0	34.0280	0	26.988	0	507.992	0	39.9	4	12.7	4	-1E+10	1	-1E+10	1	-1E+10	1	-1E+10	1	-1E+10	1	-1E+10	1
4902549	61	C	04/18/2022	01:00	-131.602	47.445	0	517.90	0	4.2650	0	34.0340	0	26.994	0	512.938	0	38.9	4	12.3	4	-1E+10	1	-1E+10	1	-1E+10	1	-1E+10	1	-1E+10	1	-1E+10	1
4902549	61	C	04/18/2022	01:00	-131.602	47.445	0	522.80	0	4.2560	0	34.0380	0	26.998	0	517.785	0	37.7	4	11.9	4	-1E+10	1	-1E+10	1	-1E+10	1	-1E+10	1	-1E+10	1	-1E+10	1
4902549	61	C	04/18/2022	01:00	-131.602	47.445	0	527.80	0	4.2510	0	34.0430	0	27.003	0	522.731	0	36.5	4	11.6	4	-1E+10	1	-1E+10	1	-1E+10	1	-1E+10	1	-1E+10	1	-1E+10	1
4902549	61	C	04/18/2022	01:00	-131.602	47.445	0	532.70	0	4.2370	0	34.0460	0	27.007	0	527.578	0	35.2	4	11.2	4	-1E+10	1	-1E+10	1	-1E+10	1	-1E+10	1	-1E+10	1	-1E+10	1
4902549	61	C	04/18/2022	01:00	-131.602	47.445	0	538.10	0	4.2330	0	34.0520	0	27.012	0	532.919	0	33.3	4	10.5	4	-1E+10	1	-1E+10	1	-1E+10	1	-1E+10	1	-1E+10	1	-1E+10	1
4902549	61	C	04/18/2022	01:00	-131.602	47.445	0	543.10	0	4.2340	0	34.0610	0	27.019	0	537.864	0	31.4	4	10.0	4	-1E+10	1	-1E+10	1	-1E+10	1	-1E+10	1	-1E+10	1	-1E+10	1
4902549	61	C	04/18/2022	01:00	-131.602	47.445	0	547.90	0	4.2520	0	34.0700	0	27.024	0	542.612	0	29.8	4	9.5	4	-1E+10	1	-1E+10	1	-1E+10	1	-1E+10	1	-1E+10	1	-1E+10	1
4902549	61	C	04/18/2022	01:00	-131.602	47.445	0	553.00	0	4.2570	0	34.0790	0	27.031	0	547.656	0	29.2	4	9.3	4	-1E+10	1	-1E+10	1	-1E+10	1	-1E+10	1	-1E+10	1	-1E+10	1
4902549	61	C	04/18/2022	01:00	-131.602	47.445	0	557.60	0	4.2350	0	34.0820	0	27.036	0	552.205	0	29.3	4	9.3	4	-1E+10	1	-1E+10	1	-1E+10	1	-1E+10	1	-1E+10	1	-1E+10	1
4902549	61	C	04/18/2022	01:00	-131.602	47.445	0	562.80	0	4.2190	0	34.0830	0	27.038	0	557.348	0	29.4	4	9.3	4	-1E+10	1	-1E+10	1	-1E+10	1	-1E+10	1	-1E+10	1	-1E+10	1
4902549	61	C	04/18/2022	01:00	-131.602	47.445	0	568.00	0	4.1640	0	34.0800	0	27.042	0	562.491	0	28.9	4	9.2	4	-1E+10	1	-1E+10	1	-1E+10	1	-1E+10	1	-1E+10	1	-1E+10	1
4902549	61	C	04/18/2022	01:00	-131.602	47.445	0	572.90	0	4.1210	0	34.0880	0	27.053	0	567.336	0	27.8	4	8.8	4	-1E+10	1	-1E+10	1	-1E+10	1	-1E+10	1	-1E+10	1	-1E+10	1
4902549	61	C	04/18/2022	01:00	-131.602	47.445	0	577.70	0	4.1060	0	34.0930	0	27.058	0	572.083	0	27.0	4	8.5	4	-1E+10	1	-1E+10	1	-1E+10	1	-1E+10	1	-1E+10	1	-1E+10	1
4902549	61	C	04/18/2022	01:00	-131.602	47.445	0	582.50	0	4.1080	0	34.0980	0	27.062	0	576.830	0	26.1	4	8.2	4	-1E+10	1	-1E+10	1	-1E+10	1	-1E+10	1	-1E+10	1	-1E+10	1
4902549	61	C	04/18/2022	01:00	-131.602	47.445	0	587.90	0	4.1230	0	34.1030	0	27.064	0	582.170	0	25.0	4	7.9	4	-1E+10	1	-1E+10	1	-1E+10	1	-1E+10	1	-1E+10	1	-1E+10	1
4902549	61	C	04/18/2022	01:00	-131.602	47.445	0	593.40	0	4.1370	0	34.1060	0	27.065	0	587.608	0	24.4	4	7.7	4	-1E+10	1	-1E+10	1	-1E+10	1	-1E+10	1	-1E+10	1	-1E+10	1
4902549	61	C	04/18/2022	01:00	-131.602	47.445	0	597.90	0	4.1330	0	34.1100	0	27.069	0	592.058	0	24.0	4	7.6	4	-1E+10	1	-1E+10	1	-1E+10	1	-1E+10	1	-1E+10	1	-1E+10	1
4902549	61	C	04/18/2022	01:00	-131.602	47.445	0	602.50	0	4.0970	0	34.1120	0	27.074	0	596.606	0	23.7	4	7.5	4	-1E+10	1	-1E+10	1	-1E+10	1	-1E+10	1	-1E+10	1	-1E+10	1
4902549	61	C	04/18/2022	01:00	-131.602	47.445	0	607.50	0	4.0880	0	34.1150	0	27.078	0	601.550	0	23.2	4	7.3	4	-1E+10	1	-1E+10	1	-1E+10	1	-1E+10	1	-1E+10	1	-1E+10	1
4902549	61	C	04/18/2022	01:00	-131.602	47.445	0	612.70	0	4.0710	0	34.1190	0	27.083	0	606.692	0	22.9	4	7.2	4	-1E+10	1	-1E+10	1	-1E+10	1	-1E+10	1	-1E+10	1	-1E+10	1
4902549	61	C	04/18/2022	01:00	-131.602	47.445	0	618.00	0	4.0590	0	34.1210	0	27.086	0	611.932	0	22.2	4	7.0	4	-1E+10	1	-1E+10	1	-1E+10	1	-1E+10	1	-1E+10	1	-1E+10	1
4902549	61	C	04/18/2022	01:00	-131.602	47.445	0	623.10	0	4.0450	0	34.1260	0	27.091	0	616.974	0	21.6	4	6.8	4	-1E+10	1	-1E+10	1	-1E+10	1	-1E+10	1	-1E+10	1	-1E+10	1
4902549	61	C	04/18/2022	01:00	-131.602	47.445	0	627.90	0	4.0270	0	34.1320	0	27.098	0	621.720	0	21.1	4	6.7	4	-1E+10	1	-1E+10	1	-1E+10	1	-1E+10	1	-1E+10	1	-1E+10	1
4902549	61	C	04/18/2022	01:00	-131.602	47.445	0	632.70	0	4.0150	0	34.1340	0	27.101	0	626.466	0	20.7	4	6.5	4	-1E+10	1	-1E+10	1	-1E+10	1	-1E+10	1	-1E+10	1	-1E+10	1
4902549	61	C	04/18/2022	01:00	-131.602	47.445	0	637.60	0	3.9970	0	34.1370	0	27.105	0	631.310	0	20.1	4	6.3	4	-1E+10	1	-1E+10	1	-1E+10	1	-1E+10	1	-1E+10	1	-1E+10	1
4902549	61	C	04/18/2022	01:00	-131.602	47.445	0	642.70	0	3.9740	0	34.1430	0	27.112	0	636.352	0	19.5	4	6.2	4	-1E+10	1	-1E+10	1	-1E+10	1	-1E+10	1	-1E+10	1	-1E+10	1
4902549	61	C	04/18/2022	01:00	-131.602	47.445	0	647.90	0	3.9670	0	34.1450	0	27.114	0	641.493	0	18.6	4	5.9	4	-1E+10	1	-1E+10	1	-1E+10	1	-1E+10	1	-1E+10	1	-1E+10	1
4902549	61	C	04/18/2022	01:00	-131.602	47.445	0	653.10	0	3.9680	0	34.1520	0	27.120	0	646.633	0	17.9	4	5.6	4	-1E+10	1	-1E+10	1	-1E+10	1	-1E+10	1	-1E+10	1	-1E+10	1
4902549	61	C	04/18/2022	01:00	-131.602	47.445	0	658.00	0	3.9440	0	34.1580	0	27.127	0	651.477	0	17.5	4	5.5	4	-1E+10	1	-1E+10	1	-1E+10	1	-1E+10	1	-1E+10	1	-1E+10	1
4902549	61	C	04/18/2022	01:00	-131.602	47.445	0	662.90	0	3.9270	0	34.1620	0	27.132	0	656.321	0	17.1	4	5.4	4	-1E+10	1	-1E+10	1	-1E+10	1	-1E+10	1	-1E+10	1	-1E+10	1
4902549	61	C	04/18/2022	01:00	-131.602	47.445	0	667.90	0	3.9180	0	34.1670	0	27.137	0	661.263	0	16.8	4	5.3	4	-1E+10	1	-1E+10	1	-1E+10	1	-1E+10	1	-1E+10	1	-1E+10	1
4902549	61	C	04/18/2022	01:00	-131.602	47.445	0	673.00	0	3.9030	0	34.1690	0	27.140	0	666.304	0	16.6	4	5.2	4	-1E+10	1	-1E+10	1	-1E+10	1	-1E+10	1	-1E+10	1	-1E+10	1
4902549	61	C	04/18/2022	01:00	-131.602	47.445	0	678.20	0	3.8910	0	34.1710	0	27.143	0	671.444	0	16.4	4	5.2	4	-1E+10	1	-1E+10	1	-1E+10	1	-1E+10	1	-1E+10	1	-1E+10	1
4902549	61	C	04/18/2022	01:00	-131.602	47.445	0	683.00	0	3.8880	0	34.1720	0	27.144	0	676.188	0	16.1	4	5.1	4	-1E+10	1	-1E+10	1	-1E+10	1	-1E+10	1	-1E+10	1	-1E+10	1
4902549	61	C	04/18/2022	01:00	-131.602	47.445	0	687.80	0	3.8830	0	34.1750	0	27.147	0	680.933	0	15.7	4	4.9	4	-1E+10	1	-1E+10	1	-1E+10	1	-1E+10	1	-1E+10	1	-1E+10	1
4902549	61	C	04/18/2022	01:00	-131.602	47.445	0	692.70	0	3.8730	0	34.1780	0	27.150	0	685.776	0	15.2	4	4.8	4	-1E+10	1	-1E+10	1	-1E+10	1	-1E+10	1	-1E+10	1	-1E+10	1
4902549	61	C	04/18/2022	01:00	-131.602	47.445	0	697.50	0	3.8580	0	34.1850	0	27.157	0	690.520	0	15.0	4	4.7	4	-1E+10	1	-1E+10	1	-1E+10	1	-1E+10	1	-1E+10	1	-1E+10	1
4902549	61	C	04/18/2022	01:00	-131.602	47.445	0	702.80	0	3.8430	0	34.1860	0	27.160	0	695.758	0	14.7	4	4.6	4	-1E+10	1	-1E+10	1	-1E+10	1	-1E+10	1	-1E+10	1	-1E+10	1
4902549	61	C	04/18/2022	01:00	-131.602	47.445	0	708.10	0	3.8310	0	34.1880	0	27.163	0	700.996	0	14.4	4	4.5	4	-1E+10	1	-1E+10	1	-1E+10	1	-1E+10	1	-1E+10	1	-1E+10	1
4902549	61	C	04/18/2022	01:00	-131.602	47.445	0	712.90	0	3.8240	0	34.1910	0	27.166	0	705.740	0	14.1	4	4.4	4	-1E+10	1	-1E+10	1	-1E+10	1	-1E+10	1	-1E+10	1	-1E+10	1
4902549	61	C	04/18/2022	01:00	-131.602	47.445	0	717.80	0	3.8090	0	34.1950	0	27.170	0	710.582	0	13.7	4	4.3	4	-1E+10	1	-1E+10	1	-1E+10	1	-1E+10	1	-1E+10	1	-1E+10	1
4902549	61	C	04/18/2022	01:00	-131.602	47.445	0	723.00	0	3.7990	0	34.1980	0	27.174	0	715.721	0	13.3	4	4.2	4	-1E+10	1	-1E+10	1	-1E+10	1	-1E+10	1	-1E+10	1	-1E+10	1
4902549	61	C	04/18/2022	01:00	-131.602	47.445	0	728.20	0	3.7810	0	34.2030	0	27.180	0	720.860	0	13.0	4	4.1	4	-1E+10	1	-1E+10	1	-1E+10	1	-1E+10	1	-1E+10	1	-1E+10	1
4902549	61	C	04/18/2022	01:00	-131.602	47.445	0	732.90	0	3.7650	0	34.2080	0	27.185	0	725.504	0	12.8	4	4.0	4	-1E+10	1	-1E+10	1	-1E+10	1	-1E+10	1	-1E+10	1	-1E+10	1
4902549	61	C	04/18/2022	01:00	-131.602	47.445	0	738.00	0	3.7510	0	34.2120	0	27.190	0	730.544	0	12.6	4	3.9	4	-1E+10	1	-1E+10	1	-1E+10	1	-1E+10	1	-1E+10	1	-1E+10	1
4902549	61	C	04/18/2022	01:00	-131.602	47.445	0	743.20	0	3.7510	0	34.2130	0	27.191	0	735.682	0	12.4	4	3.9	4	-1E+10	1	-1E+10	1	-1E+10	1	-1E+10	1	-1E+10	1	-1E+10	1
4902549	61	C	04/18/2022	01:00	-131.602	47.445	0	747.80	0	3.7460	0	34.2150	0	27.193	0	740.227	0	12.2	4	3.8	4	-1E+10	1	-1E+10	1	-1E+10	1	-1E+10	1	-1E+10	1	-1E+10	1
4902549	61	C	04/18/2022	01:00	-131.602	47.445	0	752.80	0	3.7290	0	34.2180	0	27.197	0	745.168	0	12.0	4	3.8	4	-1E+10	1	-1E+10	1	-1E+10	1	-1E+10	1	-1E+10	1	-1E+10	1
4902549	61	C	04/18/2022	01:00	-131.602	47.445	0	757.80	0	3.7230	0	34.2200	0	27.199	0	750.108	0	11.7	4	3.7	4	-1E+10	1	-1E+10	1	-1E+10	1	-1E+10	1	-1E+10	1	-1E+10	1
4902549	61	C	04/18/2022	01:00	-131.602	47.445	0	762.80	0	3.7150	0	34.2240	0	27.203	0	755.048	0	11.4	4	3.6	4	-1E+10	1	-1E+10	1	-1E+10	1	-1E+10	1	-1E+10	1	-1E+10	1
4902549	61	C	04/18/2022	01:00	-131.602	47.445	0	767.90	0	3.6910	0	34.2310	0	27.211	0	760.087	0	11.0	4	3.5	4	-1E+10	1	-1E+10	1	-1E+10	1	-1E+10	1	-1E+10	1	-1E+10	1
4902549	61	C	04/18/2022	01:00	-131.602	47.445	0	773.00	0	3.6740	0	34.2350	0	27.216	0	765.126	0	10.8	4	3.4	4	-1E+10	1	-1E+10	1	-1E+10	1	-1E+10	1	-1E+10	1	-1E+10	1
4902549	61	C	04/18/2022	01:00	-131.602	47.445	0	778.00	0	3.6590	0	34.2380	0	27.220	0	770.066	0	10.5	4	3.3	4	-1E+10	1	-1E+10	1	-1E+10	1	-1E+10	1	-1E+10	1	-1E+10	1
4902549	61	C	04/18/2022	01:00	-131.602	47.445	0	782.60	0	3.6440	0	34.2420	0	27.225	0	774.610	0	10.2	4	3.2	4	-1E+10	1	-1E+10	1	-1E+10	1	-1E+10	1	-1E+10	1	-1E+10	1
4902549	61	C	04/18/2022	01:00	-131.602	47.445	0	787.80	0	3.6330	0	34.2460	0	27.229	0	779.747	0	9.9	4	3.1	4	-1E+10	1	-1E+10	1	-1E+10	1	-1E+10	1	-1E+10	1	-1E+10	1
4902549	61	C	04/18/2022	01:00	-131.602	47.445	0	793.00	0	3.6170	0	34.2510	0	27.234	0	784.885	0	9.6	4	3.0	4	-1E+10	1	-1E+10	1	-1E+10	1	-1E+10	1	-1E+10	1	-1E+10	1
4902549	61	C	04/18/2022	01:00	-131.602	47.445	0	797.70	0	3.6090	0	34.2530	0	27.237	0	789.528	0	9.4	4	2.9	4	-1E+10	1	-1E+10	1	-1E+10	1	-1E+10	1	-1E+10	1	-1E+10	1
4902549	61	C	04/18/2022	01:00	-131.602	47.445	0	802.50	0	3.5940	0	34.2570	0	27.242	0	794.269	0	9.2	4	2.9	4	-1E+10	1	-1E+10	1	-1E+10	1	-1E+10	1	-1E+10	1	-1E+10	1
4902549	61	C	04/18/2022	01:00	-131.602	47.445	0	807.90	0	3.5830	0	34.2610	0	27.246	0	799.604	0	9.0	4	2.8	4	-1E+10	1	-1E+10	1	-1E+10	1	-1E+10	1	-1E+10	1	-1E+10	1
4902549	61	C	04/18/2022	01:00	-131.602	47.445	0	813.20	0	3.5670	0	34.2640	0	27.250	0	804.839	0	8.8	4	2.8	4	-1E+10	1	-1E+10	1	-1E+10	1	-1E+10	1	-1E+10	1	-1E+10	1
4902549	61	C	04/18/2022	01:00	-131.602	47.445	0	818.10	0	3.5480	0	34.2680	0	27.255	0	809.679	0	8.7	4	2.7	4	-1E+10	1	-1E+10	1	-1E+10	1	-1E+10	1	-1E+10	1	-1E+10	1
4902549	61	C	04/18/2022	01:00	-131.602	47.445	0	823.00	0	3.5310	0	34.2710	0	27.259	0	814.519	0	8.6	4	2.7	4	-1E+10	1	-1E+10	1	-1E+10	1	-1E+10	1	-1E+10	1	-1E+10	1
4902549	61	C	04/18/2022	01:00	-131.602	47.445	0	827.90	0	3.5220	0	34.2730	0	27.261	0	819.359	0	8.5	4	2.7	4	-1E+10	1	-1E+10	1	-1E+10	1	-1E+10	1	-1E+10	1	-1E+10	1
4902549	61	C	04/18/2022	01:00	-131.602	47.445	0	832.90	0	3.5160	0	34.2740	0	27.263	0	824.298	0	8.4	4	2.6	4	-1E+10	1	-1E+10	1	-1E+10	1	-1E+10	1	-1E+10	1	-1E+10	1
4902549	61	C	04/18/2022	01:00	-131.602	47.445	0	837.90	0	3.5070	0	34.2770	0	27.266	0	829.236	0	8.3	4	2.6	4	-1E+10	1	-1E+10	1	-1E+10	1	-1E+10	1	-1E+10	1	-1E+10	1
4902549	61	C	04/18/2022	01:00	-131.602	47.445	0	843.10	0	3.4980	0	34.2800	0	27.269	0	834.372	0	8.2	4	2.6	4	-1E+10	1	-1E+10	1	-1E+10	1	-1E+10	1	-1E+10	1	-1E+10	1
4902549	61	C	04/18/2022	01:00	-131.602	47.445	0	848.20	0	3.4840	0	34.2830	0	27.273	0	839.409	0	8.1	4	2.5	4	-1E+10	1	-1E+10	1	-1E+10	1	-1E+10	1	-1E+10	1	-1E+10	1
4902549	61	C	04/18/2022	01:00	-131.602	47.445	0	853.10	0	3.4690	0	34.2850	0	27.276	0	844.248	0	8.1	4	2.5	4	-1E+10	1	-1E+10	1	-1E+10	1	-1E+10	1	-1E+10	1	-1E+10	1
4902549	61	C	04/18/2022	01:00	-131.602	47.445	0	858.00	0	3.4560	0	34.2880	0	27.280	0	849.087	0	8.0	4	2.5	4	-1E+10	1	-1E+10	1	-1E+10	1	-1E+10	1	-1E+10	1	-1E+10	1
4902549	61	C	04/18/2022	01:00	-131.602	47.445	0	863.10	0	3.4420	0	34.2920	0	27.284	0	854.124	0	7.9	4	2.5	4	-1E+10	1	-1E+10	1	-1E+10	1	-1E+10	1	-1E+10	1	-1E+10	1
4902549	61	C	04/18/2022	01:00	-131.602	47.445	0	867.80	0	3.4310	0	34.2950	0	27.288	0	858.765	0	7.9	4	2.4	4	-1E+10	1	-1E+10	1	-1E+10	1	-1E+10	1	-1E+10	1	-1E+10	1
4902549	61	C	04/18/2022	01:00	-131.602	47.445	0	872.60	0	3.4250	0	34.2960	0	27.289	0	863.506	0	7.8	4	2.4	4	-1E+10	1	-1E+10	1	-1E+10	1	-1E+10	1	-1E+10	1	-1E+10	1
4902549	61	C	04/18/2022	01:00	-131.602	47.445	0	877.60	0	3.4180	0	34.2980	0	27.292	0	868.443	0	7.8	4	2.4	4	-1E+10	1	-1E+10	1	-1E+10	1	-1E+10	1	-1E+10	1	-1E+10	1
4902549	61	C	04/18/2022	01:00	-131.602	47.445	0	882.60	0	3.4120	0	34.3000	0	27.294	0	873.380	0	7.6	4	2.4	4	-1E+10	1	-1E+10	1	-1E+10	1	-1E+10	1	-1E+10	1	-1E+10	1
4902549	61	C	04/18/2022	01:00	-131.602	47.445	0	887.70	0	3.4040	0	34.3020	0	27.296	0	878.417	0	7.6	4	2.4	4	-1E+10	1	-1E+10	1	-1E+10	1	-1E+10	1	-1E+10	1	-1E+10	1
4902549	61	C	04/18/2022	01:00	-131.602	47.445	0	892.80	0	3.3930	0	34.3050	0	27.300	0	883.452	0	7.5	4	2.3	4	-1E+10	1	-1E+10	1	-1E+10	1	-1E+10	1	-1E+10	1	-1E+10	1
4902549	61	C	04/18/2022	01:00	-131.602	47.445	0	898.10	0	3.3870	0	34.3070	0	27.302	0	888.686	0	7.4	4	2.3	4	-1E+10	1	-1E+10	1	-1E+10	1	-1E+10	1	-1E+10	1	-1E+10	1
4902549	61	C	04/18/2022	01:00	-131.602	47.445	0	902.80	0	3.3800	0	34.3090	0	27.304	0	893.326	0	7.3	4	2.3	4	-1E+10	1	-1E+10	1	-1E+10	1	-1E+10	1	-1E+10	1	-1E+10	1
4902549	61	C	04/18/2022	01:00	-131.602	47.445	0	907.50	0	3.3620	0	34.3130	0	27.309	0	897.967	0	7.3	4	2.3	4	-1E+10	1	-1E+10	1	-1E+10	1	-1E+10	1	-1E+10	1	-1E+10	1
4902549	61	C	04/18/2022	01:00	-131.602	47.445	0	912.90	0	3.3540	0	34.3150	0	27.311	0	903.299	0	7.2	4	2.3	4	-1E+10	1	-1E+10	1	-1E+10	1	-1E+10	1	-1E+10	1	-1E+10	1
4902549	61	C	04/18/2022	01:00	-131.602	47.445	0	918.20	0	3.3430	0	34.3180	0	27.315	0	908.531	0	7.2	4	2.2	4	-1E+10	1	-1E+10	1	-1E+10	1	-1E+10	1	-1E+10	1	-1E+10	1
4902549	61	C	04/18/2022	01:00	-131.602	47.445	0	923.10	0	3.3340	0	34.3200	0	27.317	0	913.369	0	7.2	4	2.2	4	-1E+10	1	-1E+10	1	-1E+10	1	-1E+10	1	-1E+10	1	-1E+10	1
4902549	61	C	04/18/2022	01:00	-131.602	47.445	0	928.10	0	3.3330	0	34.3210	0	27.318	0	918.305	0	7.2	4	2.2	4	-1E+10	1	-1E+10	1	-1E+10	1	-1E+10	1	-1E+10	1	-1E+10	1
4902549	61	C	04/18/2022	01:00	-131.602	47.445	0	933.20	0	3.3310	0	34.3210	0	27.319	0	923.340	0	7.2	4	2.2	4	-1E+10	1	-1E+10	1	-1E+10	1	-1E+10	1	-1E+10	1	-1E+10	1
4902549	61	C	04/18/2022	01:00	-131.602	47.445	0	937.70	0	3.3300	0	34.3210	0	27.319	0	927.783	0	7.2	4	2.2	4	-1E+10	1	-1E+10	1	-1E+10	1	-1E+10	1	-1E+10	1	-1E+10	1
4902549	61	C	04/18/2022	01:00	-131.602	47.445	0	942.70	0	3.3280	0	34.3220	0	27.320	0	932.719	0	7.2	4	2.2	4	-1E+10	1	-1E+10	1	-1E+10	1	-1E+10	1	-1E+10	1	-1E+10	1
4902549	61	C	04/18/2022	01:00	-131.602	47.445	0	947.80	0	3.3240	0	34.3220	0	27.320	0	937.753	0	7.1	4	2.2	4	-1E+10	1	-1E+10	1	-1E+10	1	-1E+10	1	-1E+10	1	-1E+10	1
4902549	61	C	04/18/2022	01:00	-131.602	47.445	0	952.80	0	3.3130	0	34.3250	0	27.324	0	942.689	0	7.1	4	2.2	4	-1E+10	1	-1E+10	1	-1E+10	1	-1E+10	1	-1E+10	1	-1E+10	1
4902549	61	C	04/18/2022	01:00	-131.602	47.445	0	957.80	0	3.3030	0	34.3270	0	27.326	0	947.625	0	7.0	4	2.2	4	-1E+10	1	-1E+10	1	-1E+10	1	-1E+10	1	-1E+10	1	-1E+10	1
4902549	61	C	04/18/2022	01:00	-131.602	47.445	0	962.80	0	3.2950	0	34.3290	0	27.328	0	952.560	0	7.0	4	2.2	4	-1E+10	1	-1E+10	1	-1E+10	1	-1E+10	1	-1E+10	1	-1E+10	1
4902549	61	C	04/18/2022	01:00	-131.602	47.445	0	967.80	0	3.2860	0	34.3320	0	27.332	0	957.496	0	7.0	4	2.2	4	-1E+10	1	-1E+10	1	-1E+10	1	-1E+10	1	-1E+10	1	-1E+10	1
4902549	61	C	04/18/2022	01:00	-131.602	47.445	0	972.80	0	3.2790	0	34.3340	0	27.334	0	962.431	0	6.9	4	2.2	4	-1E+10	1	-1E+10	1	-1E+10	1	-1E+10	1	-1E+10	1	-1E+10	1
4902549	61	C	04/18/2022	01:00	-131.602	47.445	0	977.80	0	3.2740	0	34.3350	0	27.335	0	967.366	0	6.9	4	2.1	4	-1E+10	1	-1E+10	1	-1E+10	1	-1E+10	1	-1E+10	1	-1E+10	1
4902549	61	C	04/18/2022	01:00	-131.602	47.445	0	982.80	0	3.2650	0	34.3380	0	27.339	0	972.301	0	6.9	4	2.1	4	-1E+10	1	-1E+10	1	-1E+10	1	-1E+10	1	-1E+10	1	-1E+10	1
4902549	61	C	04/18/2022	01:00	-131.602	47.445	0	987.70	0	3.2570	0	34.3400	0	27.341	0	977.137	0	6.9	4	2.1	4	-1E+10	1	-1E+10	1	-1E+10	1	-1E+10	1	-1E+10	1	-1E+10	1
4902549	61	C	04/18/2022	01:00	-131.602	47.445	0	992.70	0	3.2510	0	34.3420	0	27.343	0	982.072	0	6.9	4	2.1	4	-1E+10	1	-1E+10	1	-1E+10	1	-1E+10	1	-1E+10	1	-1E+10	1
4902549	61	C	04/18/2022	01:00	-131.602	47.445	0	997.70	0	3.2440	0	34.3440	0	27.345	0	987.007	0	6.9	4	2.1	4	-1E+10	1	-1E+10	1	-1E+10	1	-1E+10	1	-1E+10	1	-1E+10	1
4902549	61	C	04/18/2022	01:00	-131.602	47.445	0	1005.00	0	3.2360	0	34.3460	0	27.348	0	994.211	0	6.8	4	2.1	4	-1E+10	1	-1E+10	1	-1E+10	1	-1E+10	1	-1E+10	1	-1E+10	1
4902549	61	C	04/18/2022	01:00	-131.602	47.445	0	1015.30	0	3.2260	0	34.3490	0	27.351	0	1004.376	0	6.8	4	2.1	4	-1E+10	1	-1E+10	1	-1E+10	1	-1E+10	1	-1E+10	1	-1E+10	1
4902549	61	C	04/18/2022	01:00	-131.602	47.445	0	1025.40	0	3.2150	0	34.3530	0	27.355	0	1014.343	0	6.7	4	2.1	4	-1E+10	1	-1E+10	1	-1E+10	1	-1E+10	1	-1E+10	1	-1E+10	1
4902549	61	C	04/18/2022	01:00	-131.602	47.445	0	1035.30	0	3.1990	0	34.3570	0	27.360	0	1024.112	0	6.7	4	2.1	4	-1E+10	1	-1E+10	1	-1E+10	1	-1E+10	1	-1E+10	1	-1E+10	1
4902549	61	C	04/18/2022	01:00	-131.602	47.445	0	1045.60	0	3.1700	0	34.3660	0	27.370	0	1034.275	0	6.7	4	2.1	4	-1E+10	1	-1E+10	1	-1E+10	1	-1E+10	1	-1E+10	1	-1E+10	1
4902549	61	C	04/18/2022	01:00	-131.602	47.445	0	1055.30	0	3.1520	0	34.3710	0	27.376	0	1043.846	0	6.7	4	2.1	4	-1E+10	1	-1E+10	1	-1E+10	1	-1E+10	1	-1E+10	1	-1E+10	1
4902549	61	C	04/18/2022	01:00	-131.602	47.445	0	1065.00	0	3.1310	0	34.3760	0	27.382	0	1053.417	0	6.8	4	2.1	4	-1E+10	1	-1E+10	1	-1E+10	1	-1E+10	1	-1E+10	1	-1E+10	1
4902549	61	C	04/18/2022	01:00	-131.602	47.445	0	1075.10	0	3.1220	0	34.3780	0	27.384	0	1063.381	0	6.8	4	2.1	4	-1E+10	1	-1E+10	1	-1E+10	1	-1E+10	1	-1E+10	1	-1E+10	1
4902549	61	C	04/18/2022	01:00	-131.602	47.445	0	1085.50	0	3.1100	0	34.3810	0	27.388	0	1073.641	0	6.9	4	2.1	4	-1E+10	1	-1E+10	1	-1E+10	1	-1E+10	1	-1E+10	1	-1E+10	1
4902549	61	C	04/18/2022	01:00	-131.602	47.445	0	1095.90	0	3.0980	0	34.3830	0	27.391	0	1083.901	0	6.9	4	2.1	4	-1E+10	1	-1E+10	1	-1E+10	1	-1E+10	1	-1E+10	1	-1E+10	1
4902549	61	C	04/18/2022	01:00	-131.602	47.445	0	1105.50	0	3.0780	0	34.3870	0	27.396	0	1093.371	0	7.1	4	2.2	4	-1E+10	1	-1E+10	1	-1E+10	1	-1E+10	1	-1E+10	1	-1E+10	1
4902549	61	C	04/18/2022	01:00	-131.602	47.445	0	1115.30	0	3.0520	0	34.3910	0	27.401	0	1103.037	0	7.2	4	2.2	4	-1E+10	1	-1E+10	1	-1E+10	1	-1E+10	1	-1E+10	1	-1E+10	1
4902549	61	C	04/18/2022	01:00	-131.602	47.445	0	1125.10	0	3.0440	0	34.3930	0	27.404	0	1112.704	0	7.3	4	2.2	4	-1E+10	1	-1E+10	1	-1E+10	1	-1E+10	1	-1E+10	1	-1E+10	1
4902549	61	C	04/18/2022	01:00	-131.602	47.445	0	1135.40	0	3.0130	0	34.3990	0	27.411	0	1122.863	0	7.4	4	2.3	4	-1E+10	1	-1E+10	1	-1E+10	1	-1E+10	1	-1E+10	1	-1E+10	1
4902549	61	C	04/18/2022	01:00	-131.602	47.445	0	1145.70	0	2.9940	0	34.4030	0	27.416	0	1133.021	0	7.5	4	2.3	4	-1E+10	1	-1E+10	1	-1E+10	1	-1E+10	1	-1E+10	1	-1E+10	1
4902549	61	C	04/18/2022	01:00	-131.602	47.445	0	1155.40	0	2.9790	0	34.4060	0	27.420	0	1142.588	0	7.6	4	2.4	4	-1E+10	1	-1E+10	1	-1E+10	1	-1E+10	1	-1E+10	1	-1E+10	1
4902549	61	C	04/18/2022	01:00	-131.602	47.445	0	1165.50	0	2.9660	0	34.4090	0	27.424	0	1152.548	0	7.7	4	2.4	4	-1E+10	1	-1E+10	1	-1E+10	1	-1E+10	1	-1E+10	1	-1E+10	1
4902549	61	C	04/18/2022	01:00	-131.602	47.445	0	1175.70	0	2.9510	0	34.4110	0	27.427	0	1162.606	0	7.9	4	2.4	4	-1E+10	1	-1E+10	1	-1E+10	1	-1E+10	1	-1E+10	1	-1E+10	1
4902549	61	C	04/18/2022	01:00	-131.602	47.445	0	1185.20	0	2.9280	0	34.4150	0	27.432	0	1171.974	0	8.1	4	2.5	4	-1E+10	1	-1E+10	1	-1E+10	1	-1E+10	1	-1E+10	1	-1E+10	1
4902549	61	C	04/18/2022	01:00	-131.602	47.445	0	1195.50	0	2.9090	0	34.4190	0	27.437	0	1182.130	0	8.2	4	2.5	4	-1E+10	1	-1E+10	1	-1E+10	1	-1E+10	1	-1E+10	1	-1E+10	1
4902549	61	C	04/18/2022	01:00	-131.602	47.445	0	1205.50	0	2.8920	0	34.4210	0	27.440	0	1191.990	0	8.4	4	2.6	4	-1E+10	1	-1E+10	1	-1E+10	1	-1E+10	1	-1E+10	1	-1E+10	1
4902549	61	C	04/18/2022	01:00	-131.602	47.445	0	1215.30	0	2.8700	0	34.4250	0	27.445	0	1201.652	0	8.6	4	2.7	4	-1E+10	1	-1E+10	1	-1E+10	1	-1E+10	1	-1E+10	1	-1E+10	1
4902549	61	C	04/18/2022	01:00	-131.602	47.445	0	1225.20	0	2.8530	0	34.4280	0	27.449	0	1211.412	0	8.9	4	2.7	4	-1E+10	1	-1E+10	1	-1E+10	1	-1E+10	1	-1E+10	1	-1E+10	1
4902549	61	C	04/18/2022	01:00	-131.602	47.445	0	1235.30	0	2.8360	0	34.4310	0	27.453	0	1221.370	0	9.1	4	2.8	4	-1E+10	1	-1E+10	1	-1E+10	1	-1E+10	1	-1E+10	1	-1E+10	1
4902549	61	C	04/18/2022	01:00	-131.602	47.445	0	1245.30	0	2.8170	0	34.4340	0	27.457	0	1231.228	0	9.5	4	2.9	4	-1E+10	1	-1E+10	1	-1E+10	1	-1E+10	1	-1E+10	1	-1E+10	1
4902549	61	C	04/18/2022	01:00	-131.602	47.445	0	1255.20	0	2.7970	0	34.4380	0	27.462	0	1240.986	0	9.7	4	3.0	4	-1E+10	1	-1E+10	1	-1E+10	1	-1E+10	1	-1E+10	1	-1E+10	1
4902549	61	C	04/18/2022	01:00	-131.602	47.445	0	1265.10	0	2.7860	0	34.4400	0	27.465	0	1250.745	0	9.9	4	3.1	4	-1E+10	1	-1E+10	1	-1E+10	1	-1E+10	1	-1E+10	1	-1E+10	1
4902549	61	C	04/18/2022	01:00	-131.602	47.445	0	1275.30	0	2.7770	0	34.4420	0	27.467	0	1260.799	0	10.2	4	3.1	4	-1E+10	1	-1E+10	1	-1E+10	1	-1E+10	1	-1E+10	1	-1E+10	1
4902549	61	C	04/18/2022	01:00	-131.602	47.445	0	1285.30	0	2.7630	0	34.4440	0	27.470	0	1270.655	0	10.4	4	3.2	4	-1E+10	1	-1E+10	1	-1E+10	1	-1E+10	1	-1E+10	1	-1E+10	1
4902549	61	C	04/18/2022	01:00	-131.602	47.445	0	1295.20	0	2.7500	0	34.4470	0	27.474	0	1280.412	0	10.6	4	3.3	4	-1E+10	1	-1E+10	1	-1E+10	1	-1E+10	1	-1E+10	1	-1E+10	1
4902549	61	C	04/18/2022	01:00	-131.602	47.445	0	1305.30	0	2.7390	0	34.4490	0	27.476	0	1290.366	0	10.9	4	3.3	4	-1E+10	1	-1E+10	1	-1E+10	1	-1E+10	1	-1E+10	1	-1E+10	1
4902549	61	C	04/18/2022	01:00	-131.602	47.445	0	1315.40	0	2.7180	0	34.4520	0	27.481	0	1300.319	0	11.2	4	3.4	4	-1E+10	1	-1E+10	1	-1E+10	1	-1E+10	1	-1E+10	1	-1E+10	1
4902549	61	C	04/18/2022	01:00	-131.602	47.445	0	1325.20	0	2.7000	0	34.4550	0	27.485	0	1309.976	0	11.5	4	3.5	4	-1E+10	1	-1E+10	1	-1E+10	1	-1E+10	1	-1E+10	1	-1E+10	1
4902549	61	C	04/18/2022	01:00	-131.602	47.445	0	1335.00	0	2.6860	0	34.4560	0	27.487	0	1319.633	0	11.7	4	3.6	4	-1E+10	1	-1E+10	1	-1E+10	1	-1E+10	1	-1E+10	1	-1E+10	1
4902549	61	C	04/18/2022	01:00	-131.602	47.445	0	1345.40	0	2.6710	0	34.4590	0	27.491	0	1329.880	0	12.0	4	3.7	4	-1E+10	1	-1E+10	1	-1E+10	1	-1E+10	1	-1E+10	1	-1E+10	1
4902549	61	C	04/18/2022	01:00	-131.602	47.445	0	1355.40	0	2.6660	0	34.4600	0	27.492	0	1339.733	0	12.1	4	3.7	4	-1E+10	1	-1E+10	1	-1E+10	1	-1E+10	1	-1E+10	1	-1E+10	1
4902549	61	C	04/18/2022	01:00	-131.602	47.445	0	1365.20	0	2.6660	0	34.4600	0	27.492	0	1349.389	0	12.2	4	3.8	4	-1E+10	1	-1E+10	1	-1E+10	1	-1E+10	1	-1E+10	1	-1E+10	1
4902549	61	C	04/18/2022	01:00	-131.602	47.445	0	1375.30	0	2.6540	0	34.4620	0	27.495	0	1359.339	0	12.7	4	3.9	4	-1E+10	1	-1E+10	1	-1E+10	1	-1E+10	1	-1E+10	1	-1E+10	1
4902549	61	C	04/18/2022	01:00	-131.602	47.445	0	1385.40	0	2.6340	0	34.4650	0	27.499	0	1369.289	0	13.2	4	4.0	4	-1E+10	1	-1E+10	1	-1E+10	1	-1E+10	1	-1E+10	1	-1E+10	1
4902549	61	C	04/18/2022	01:00	-131.602	47.445	0	1395.20	0	2.6170	0	34.4690	0	27.503	0	1378.943	0	13.7	4	4.2	4	-1E+10	1	-1E+10	1	-1E+10	1	-1E+10	1	-1E+10	1	-1E+10	1
4902549	61	C	04/18/2022	01:00	-131.602	47.445	0	1405.30	0	2.6010	0	34.4730	0	27.508	0	1388.892	0	14.3	4	4.4	4	-1E+10	1	-1E+10	1	-1E+10	1	-1E+10	1	-1E+10	1	-1E+10	1
4902549	61	C	04/18/2022	01:00	-131.602	47.445	0	1415.40	0	2.5830	0	34.4760	0	27.512	0	1398.841	0	14.7	4	4.5	4	-1E+10	1	-1E+10	1	-1E+10	1	-1E+10	1	-1E+10	1	-1E+10	1
4902549	61	C	04/18/2022	01:00	-131.602	47.445	0	1425.10	0	2.5660	0	34.4780	0	27.515	0	1408.395	0	15.2	4	4.6	4	-1E+10	1	-1E+10	1	-1E+10	1	-1E+10	1	-1E+10	1	-1E+10	1
4902549	61	C	04/18/2022	01:00	-131.602	47.445	0	1435.00	0	2.5490	0	34.4810	0	27.519	0	1418.146	0	15.6	4	4.8	4	-1E+10	1	-1E+10	1	-1E+10	1	-1E+10	1	-1E+10	1	-1E+10	1
4902549	61	C	04/18/2022	01:00	-131.602	47.445	0	1445.00	0	2.5360	0	34.4820	0	27.521	0	1427.995	0	16.0	4	4.9	4	-1E+10	1	-1E+10	1	-1E+10	1	-1E+10	1	-1E+10	1	-1E+10	1
4902549	61	C	04/18/2022	01:00	-131.602	47.445	0	1455.20	0	2.5210	0	34.4850	0	27.525	0	1438.040	0	16.5	4	5.0	4	-1E+10	1	-1E+10	1	-1E+10	1	-1E+10	1	-1E+10	1	-1E+10	1
4902549	61	C	04/18/2022	01:00	-131.602	47.445	0	1465.50	0	2.5080	0	34.4870	0	27.527	0	1448.183	0	17.0	4	5.2	4	-1E+10	1	-1E+10	1	-1E+10	1	-1E+10	1	-1E+10	1	-1E+10	1
4902549	61	C	04/18/2022	01:00	-131.602	47.445	0	1475.80	0	2.4930	0	34.4890	0	27.530	0	1458.326	0	17.4	4	5.3	4	-1E+10	1	-1E+10	1	-1E+10	1	-1E+10	1	-1E+10	1	-1E+10	1
4902549	61	C	04/18/2022	01:00	-131.602	47.445	0	1485.30	0	2.4790	0	34.4910	0	27.533	0	1467.680	0	17.9	4	5.5	4	-1E+10	1	-1E+10	1	-1E+10	1	-1E+10	1	-1E+10	1	-1E+10	1
4902549	61	C	04/18/2022	01:00	-131.602	47.445	0	1495.30	0	2.4670	0	34.4940	0	27.537	0	1477.527	0	18.3	4	5.6	4	-1E+10	1	-1E+10	1	-1E+10	1	-1E+10	1	-1E+10	1	-1E+10	1
4902549	61	C	04/18/2022	01:00	-131.602	47.445	0	1505.60	0	2.4530	0	34.4960	0	27.539	0	1487.668	0	18.9	4	5.8	4	-1E+10	1	-1E+10	1	-1E+10	1	-1E+10	1	-1E+10	1	-1E+10	1
4902549	61	C	04/18/2022	01:00	-131.602	47.445	0	1515.70	0	2.4370	0	34.4990	0	27.543	0	1497.612	0	19.5	4	6.0	4	-1E+10	1	-1E+10	1	-1E+10	1	-1E+10	1	-1E+10	1	-1E+10	1
4902549	61	C	04/18/2022	01:00	-131.602	47.445	0	1525.50	0	2.4210	0	34.5010	0	27.546	0	1507.260	0	20.2	4	6.1	4	-1E+10	1	-1E+10	1	-1E+10	1	-1E+10	1	-1E+10	1	-1E+10	1
4902549	61	C	04/18/2022	01:00	-131.602	47.445	0	1535.30	0	2.4080	0	34.5030	0	27.549	0	1516.908	0	20.9	4	6.4	4	-1E+10	1	-1E+10	1	-1E+10	1	-1E+10	1	-1E+10	1	-1E+10	1
4902549	61	C	04/18/2022	01:00	-131.602	47.445	0	1545.10	0	2.3950	0	34.5060	0	27.552	0	1526.555	0	21.7	4	6.6	4	-1E+10	1	-1E+10	1	-1E+10	1	-1E+10	1	-1E+10	1	-1E+10	1
4902549	61	C	04/18/2022	01:00	-131.602	47.445	0	1555.00	0	2.3780	0	34.5100	0	27.557	0	1536.300	0	22.5	4	6.8	4	-1E+10	1	-1E+10	1	-1E+10	1	-1E+10	1	-1E+10	1	-1E+10	1
4902549	61	C	04/18/2022	01:00	-131.602	47.445	0	1565.00	0	2.3660	0	34.5110	0	27.559	0	1546.144	0	23.3	4	7.1	4	-1E+10	1	-1E+10	1	-1E+10	1	-1E+10	1	-1E+10	1	-1E+10	1
4902549	61	C	04/18/2022	01:00	-131.602	47.445	0	1575.10	0	2.3480	0	34.5150	0	27.564	0	1556.085	0	24.1	4	7.3	4	-1E+10	1	-1E+10	1	-1E+10	1	-1E+10	1	-1E+10	1	-1E+10	1
4902549	61	C	04/18/2022	01:00	-131.602	47.445	0	1585.40	0	2.3410	0	34.5170	0	27.566	0	1566.222	0	24.7	4	7.5	4	-1E+10	1	-1E+10	1	-1E+10	1	-1E+10	1	-1E+10	1	-1E+10	1
4902549	61	C	04/18/2022	01:00	-131.602	47.445	0	1595.30	0	2.3290	0	34.5190	0	27.569	0	1575.966	0	25.5	4	7.7	4	-1E+10	1	-1E+10	1	-1E+10	1	-1E+10	1	-1E+10	1	-1E+10	1
4902549	61	C	04/18/2022	01:00	-131.602	47.445	0	1605.30	0	2.3160	0	34.5210	0	27.571	0	1585.807	0	26.2	4	7.9	4	-1E+10	1	-1E+10	1	-1E+10	1	-1E+10	1	-1E+10	1	-1E+10	1
4902549	61	C	04/18/2022	01:00	-131.602	47.445	0	1615.50	0	2.3010	0	34.5240	0	27.575	0	1595.845	0	27.0	4	8.2	4	-1E+10	1	-1E+10	1	-1E+10	1	-1E+10	1	-1E+10	1	-1E+10	1
4902549	61	C	04/18/2022	01:00	-131.602	47.445	0	1625.30	0	2.2850	0	34.5260	0	27.578	0	1605.489	0	27.8	4	8.4	4	-1E+10	1	-1E+10	1	-1E+10	1	-1E+10	1	-1E+10	1	-1E+10	1
4902549	61	C	04/18/2022	01:00	-131.602	47.445	0	1635.20	0	2.2710	0	34.5290	0	27.581	0	1615.230	0	28.5	4	8.7	4	-1E+10	1	-1E+10	1	-1E+10	1	-1E+10	1	-1E+10	1	-1E+10	1
4902549	61	C	04/18/2022	01:00	-131.602	47.445	0	1645.20	0	2.2640	0	34.5300	0	27.583	0	1625.070	0	28.9	4	8.8	4	-1E+10	1	-1E+10	1	-1E+10	1	-1E+10	1	-1E+10	1	-1E+10	1
4902549	61	C	04/18/2022	01:00	-131.602	47.445	0	1655.50	0	2.2560	0	34.5320	0	27.585	0	1635.204	0	29.4	4	8.9	4	-1E+10	1	-1E+10	1	-1E+10	1	-1E+10	1	-1E+10	1	-1E+10	1
4902549	61	C	04/18/2022	01:00	-131.602	47.445	0	1665.70	0	2.2450	0	34.5330	0	27.587	0	1645.239	0	29.9	4	9.1	4	-1E+10	1	-1E+10	1	-1E+10	1	-1E+10	1	-1E+10	1	-1E+10	1
4902549	61	C	04/18/2022	01:00	-131.602	47.445	0	1675.40	0	2.2320	0	34.5350	0	27.590	0	1654.782	0	30.5	4	9.2	4	-1E+10	1	-1E+10	1	-1E+10	1	-1E+10	1	-1E+10	1	-1E+10	1
4902549	61	C	04/18/2022	01:00	-131.602	47.445	0	1685.60	0	2.2250	0	34.5360	0	27.591	0	1664.817	0	30.9	4	9.4	4	-1E+10	1	-1E+10	1	-1E+10	1	-1E+10	1	-1E+10	1	-1E+10	1
4902549	61	C	04/18/2022	01:00	-131.602	47.445	0	1695.30	0	2.2150	0	34.5370	0	27.593	0	1674.359	0	31.3	4	9.5	4	-1E+10	1	-1E+10	1	-1E+10	1	-1E+10	1	-1E+10	1	-1E+10	1
4902549	61	C	04/18/2022	01:00	-131.602	47.445	0	1705.20	0	2.2050	0	34.5390	0	27.595	0	1684.097	0	31.9	4	9.7	4	-1E+10	1	-1E+10	1	-1E+10	1	-1E+10	1	-1E+10	1	-1E+10	1
4902549	61	C	04/18/2022	01:00	-131.602	47.445	0	1715.20	0	2.1890	0	34.5410	0	27.598	0	1693.934	0	32.6	4	9.9	4	-1E+10	1	-1E+10	1	-1E+10	1	-1E+10	1	-1E+10	1	-1E+10	1
4902549	61	C	04/18/2022	01:00	-131.602	47.445	0	1725.40	0	2.1750	0	34.5420	0	27.600	0	1703.966	0	33.4	4	10.1	4	-1E+10	1	-1E+10	1	-1E+10	1	-1E+10	1	-1E+10	1	-1E+10	1
4902549	61	C	04/18/2022	01:00	-131.602	47.445	0	1735.70	0	2.1590	0	34.5450	0	27.604	0	1714.097	0	34.5	4	10.4	4	-1E+10	1	-1E+10	1	-1E+10	1	-1E+10	1	-1E+10	1	-1E+10	1
4902549	61	C	04/18/2022	01:00	-131.602	47.445	0	1745.80	0	2.1540	0	34.5480	0	27.607	0	1724.030	0	35.2	4	10.7	4	-1E+10	1	-1E+10	1	-1E+10	1	-1E+10	1	-1E+10	1	-1E+10	1
4902549	61	C	04/18/2022	01:00	-131.602	47.445	0	1755.50	0	2.1410	0	34.5490	0	27.609	0	1733.569	0	35.4	4	10.7	4	-1E+10	1	-1E+10	1	-1E+10	1	-1E+10	1	-1E+10	1	-1E+10	1
4902549	61	C	04/18/2022	01:00	-131.602	47.445	0	1765.40	0	2.1260	0	34.5500	0	27.611	0	1743.305	0	35.9	4	10.9	4	-1E+10	1	-1E+10	1	-1E+10	1	-1E+10	1	-1E+10	1	-1E+10	1
4902549	61	C	04/18/2022	01:00	-131.602	47.445	0	1775.20	0	2.1130	0	34.5520	0	27.613	0	1752.942	0	36.8	4	11.1	4	-1E+10	1	-1E+10	1	-1E+10	1	-1E+10	1	-1E+10	1	-1E+10	1
4902549	61	C	04/18/2022	01:00	-131.602	47.445	0	1785.40	0	2.1030	0	34.5530	0	27.615	0	1762.972	0	37.4	4	11.3	4	-1E+10	1	-1E+10	1	-1E+10	1	-1E+10	1	-1E+10	1	-1E+10	1
4902549	61	C	04/18/2022	01:00	-131.602	47.445	0	1795.80	0	2.0960	0	34.5550	0	27.617	0	1773.198	0	38.2	4	11.5	4	-1E+10	1	-1E+10	1	-1E+10	1	-1E+10	1	-1E+10	1	-1E+10	1
4902549	61	C	04/18/2022	01:00	-131.602	47.445	0	1805.60	0	2.0860	0	34.5570	0	27.620	0	1782.833	0	39.0	4	11.8	4	-1E+10	1	-1E+10	1	-1E+10	1	-1E+10	1	-1E+10	1	-1E+10	1
4902549	61	C	04/18/2022	01:00	-131.602	47.445	0	1815.40	0	2.0750	0	34.5590	0	27.622	0	1792.469	0	39.9	4	12.0	4	-1E+10	1	-1E+10	1	-1E+10	1	-1E+10	1	-1E+10	1	-1E+10	1
4902549	61	C	04/18/2022	01:00	-131.602	47.445	0	1825.20	0	2.0640	0	34.5610	0	27.625	0	1802.103	0	40.7	4	12.3	4	-1E+10	1	-1E+10	1	-1E+10	1	-1E+10	1	-1E+10	1	-1E+10	1
4902549	61	C	04/18/2022	01:00	-131.602	47.445	0	1835.30	0	2.0550	0	34.5620	0	27.626	0	1812.032	0	41.5	4	12.5	4	-1E+10	1	-1E+10	1	-1E+10	1	-1E+10	1	-1E+10	1	-1E+10	1
4902549	61	C	04/18/2022	01:00	-131.602	47.445	0	1845.20	0	2.0460	0	34.5650	0	27.629	0	1821.764	0	42.6	4	12.8	4	-1E+10	1	-1E+10	1	-1E+10	1	-1E+10	1	-1E+10	1	-1E+10	1
4902549	61	C	04/18/2022	01:00	-131.602	47.445	0	1855.40	0	2.0380	0	34.5660	0	27.631	0	1831.791	0	43.4	4	13.1	4	-1E+10	1	-1E+10	1	-1E+10	1	-1E+10	1	-1E+10	1	-1E+10	1
4902549	61	C	04/18/2022	01:00	-131.602	47.445	0	1865.80	0	2.0280	0	34.5690	0	27.634	0	1842.014	0	44.1	4	13.3	4	-1E+10	1	-1E+10	1	-1E+10	1	-1E+10	1	-1E+10	1	-1E+10	1
4902549	61	C	04/18/2022	01:00	-131.602	47.445	0	1875.30	0	2.0170	0	34.5700	0	27.636	0	1851.351	0	44.9	4	13.5	4	-1E+10	1	-1E+10	1	-1E+10	1	-1E+10	1	-1E+10	1	-1E+10	1
4902549	61	C	04/18/2022	01:00	-131.602	47.445	0	1885.40	0	2.0070	0	34.5710	0	27.637	0	1861.278	0	45.5	4	13.7	4	-1E+10	1	-1E+10	1	-1E+10	1	-1E+10	1	-1E+10	1	-1E+10	1
4902549	61	C	04/18/2022	01:00	-131.602	47.445	0	1895.40	0	1.9980	0	34.5720	0	27.639	0	1871.106	0	45.9	4	13.8	4	-1E+10	1	-1E+10	1	-1E+10	1	-1E+10	1	-1E+10	1	-1E+10	1
4902549	61	C	04/18/2022	01:00	-131.602	47.445	0	1905.40	0	1.9910	0	34.5730	0	27.640	0	1880.934	0	46.2	4	13.9	4	-1E+10	1	-1E+10	1	-1E+10	1	-1E+10	1	-1E+10	1	-1E+10	1
4902549	61	C	04/18/2022	01:00	-131.602	47.445	0	1915.20	0	1.9880	0	34.5730	0	27.641	0	1890.564	0	46.5	4	14.0	4	-1E+10	1	-1E+10	1	-1E+10	1	-1E+10	1	-1E+10	1	-1E+10	1
4902549	61	C	04/18/2022	01:00	-131.602	47.445	0	1925.10	0	1.9820	0	34.5740	0	27.642	0	1900.293	0	46.9	4	14.1	4	-1E+10	1	-1E+10	1	-1E+10	1	-1E+10	1	-1E+10	1	-1E+10	1
4902549	61	C	04/18/2022	01:00	-131.602	47.445	0	1935.20	0	1.9750	0	34.5760	0	27.644	0	1910.217	0	47.5	4	14.3	4	-1E+10	1	-1E+10	1	-1E+10	1	-1E+10	1	-1E+10	1	-1E+10	1
4902549	61	C	04/18/2022	01:00	-131.602	47.445	0	1945.50	0	1.9670	0	34.5770	0	27.646	0	1920.338	0	48.2	4	14.5	4	-1E+10	1	-1E+10	1	-1E+10	1	-1E+10	1	-1E+10	1	-1E+10	1
4902549	61	C	04/18/2022	01:00	-131.602	47.445	0	1955.70	0	1.9600	0	34.5790	0	27.648	0	1930.360	0	48.5	4	14.6	4	-1E+10	1	-1E+10	1	-1E+10	1	-1E+10	1	-1E+10	1	-1E+10	1
4902549	61	C	04/18/2022	01:00	-131.602	47.445	0	1965.50	0	1.9530	0	34.5800	0	27.649	0	1939.988	0	48.8	4	14.7	4	-1E+10	1	-1E+10	1	-1E+10	1	-1E+10	1	-1E+10	1	-1E+10	1
4902549	61	C	04/18/2022	01:00	-131.602	47.445	0	1975.30	0	1.9490	0	34.5800	0	27.650	0	1949.616	0	48.8	4	14.7	4	-1E+10	1	-1E+10	1	-1E+10	1	-1E+10	1	-1E+10	1	-1E+10	1
4902549	61	C	04/18/2022	01:00	-131.602	47.445	0	1985.20	0	1.9460	0	34.5810	0	27.651	0	1959.342	0	48.5	4	14.6	4	-1E+10	1	-1E+10	1	-1E+10	1	-1E+10	1	-1E+10	1	-1E+10	1
4902549	61	C	04/18/2022	01:00	-131.602	47.445	0																										
4902549	62	C	04/28/2022	06:06	-131.610	47.459	0	0.40	0	8.8970	0	32.2830	0	25.007	0	0.397	0	280.0	4	97.6	4	-1E+10	1	-1E+10	1	-1E+10	1	-1E+10	1	-1E+10	1	-1E+10	1
4902549	62	C	04/28/2022	06:06	-131.610	47.459	0	1.10	0	8.8970	0	32.2830	0	25.007	0	1.091	0	280.0	4	97.6	4	-1E+10	1	-1E+10	1	-1E+10	1	-1E+10	1	-1E+10	1	-1E+10	1
4902549	62	C	04/28/2022	06:06	-131.610	47.459	0	2.00	0	8.8990	0	32.2840	0	25.008	0	1.983	0	280.1	4	97.6	4	-1E+10	1	-1E+10	1	-1E+10	1	-1E+10	1	-1E+10	1	-1E+10	1
4902549	62	C	04/28/2022	06:06	-131.610	47.459	0	2.90	0	8.9020	0	32.2810	0	25.005	0	2.876	0	280.0	4	97.6	4	-1E+10	1	-1E+10	1	-1E+10	1	-1E+10	1	-1E+10	1	-1E+10	1
4902549	62	C	04/28/2022	06:06	-131.610	47.459	0	3.90	0	8.9030	0	32.2810	0	25.005	0	3.867	0	279.9	4	97.6	4	-1E+10	1	-1E+10	1	-1E+10	1	-1E+10	1	-1E+10	1	-1E+10	1
4902549	62	C	04/28/2022	06:06	-131.610	47.459	0	5.10	0	8.9000	0	32.2810	0	25.005	0	5.057	0	279.9	4	97.6	4	-1E+10	1	-1E+10	1	-1E+10	1	-1E+10	1	-1E+10	1	-1E+10	1
4902549	62	C	04/28/2022	06:06	-131.610	47.459	0	5.90	0	8.8980	0	32.2820	0	25.007	0	5.851	0	280.0	4	97.6	4	-1E+10	1	-1E+10	1	-1E+10	1	-1E+10	1	-1E+10	1	-1E+10	1
4902549	62	C	04/28/2022	06:06	-131.610	47.459	0	7.00	0	8.8970	0	32.2820	0	25.007	0	6.941	0	280.1	4	97.6	4	-1E+10	1	-1E+10	1	-1E+10	1	-1E+10	1	-1E+10	1	-1E+10	1
4902549	62	C	04/28/2022	06:06	-131.610	47.459	0	8.20	0	8.8920	0	32.2820	0	25.008	0	8.131	0	280.1	4	97.6	4	-1E+10	1	-1E+10	1	-1E+10	1	-1E+10	1	-1E+10	1	-1E+10	1
4902549	62	C	04/28/2022	06:06	-131.610	47.459	0	8.80	0	8.8930	0	32.2840	0	25.009	0	8.726	0	280.0	4	97.6	4	-1E+10	1	-1E+10	1	-1E+10	1	-1E+10	1	-1E+10	1	-1E+10	1
4902549	62	C	04/28/2022	06:06	-131.610	47.459	0	9.90	0	8.8950	0	32.2820	0	25.007	0	9.817	0	280.1	4	97.6	4	-1E+10	1	-1E+10	1	-1E+10	1	-1E+10	1	-1E+10	1	-1E+10	1
4902549	62	C	04/28/2022	06:06	-131.610	47.459	0	10.90	0	8.8810	0	32.2820	0	25.009	0	10.809	0	280.2	4	97.6	4	-1E+10	1	-1E+10	1	-1E+10	1	-1E+10	1	-1E+10	1	-1E+10	1
4902549	62	C	04/28/2022	06:06	-131.610	47.459	0	12.00	0	8.8480	0	32.2810	0	25.014	0	11.900	0	280.4	4	97.6	4	-1E+10	1	-1E+10	1	-1E+10	1	-1E+10	1	-1E+10	1	-1E+10	1
4902549	62	C	04/28/2022	06:06	-131.610	47.459	0	13.20	0	8.8000	0	32.2810	0	25.021	0	13.089	0	280.6	4	97.6	4	-1E+10	1	-1E+10	1	-1E+10	1	-1E+10	1	-1E+10	1	-1E+10	1
4902549	62	C	04/28/2022	06:06	-131.610	47.459	0	14.00	0	8.7660	0	32.2740	0	25.021	0	13.883	0	280.9	4	97.6	4	-1E+10	1	-1E+10	1	-1E+10	1	-1E+10	1	-1E+10	1	-1E+10	1
4902549	62	C	04/28/2022	06:06	-131.610	47.459	0	14.90	0	8.7160	0	32.2800	0	25.033	0	14.775	0	281.0	4	97.6	4	-1E+10	1	-1E+10	1	-1E+10	1	-1E+10	1	-1E+10	1	-1E+10	1
4902549	62	C	04/28/2022	06:06	-131.610	47.459	0	15.90	0	8.6970	0	32.2810	0	25.037	0	15.767	0	281.0	4	97.5	4	-1E+10	1	-1E+10	1	-1E+10	1	-1E+10	1	-1E+10	1	-1E+10	1
4902549	62	C	04/28/2022	06:06	-131.610	47.459	0	16.80	0	8.6910	0	32.2810	0	25.038	0	16.659	0	280.9	4	97.5	4	-1E+10	1	-1E+10	1	-1E+10	1	-1E+10	1	-1E+10	1	-1E+10	1
4902549	62	C	04/28/2022	06:06	-131.610	47.459	0	18.00	0	8.6830	0	32.2820	0	25.040	0	17.849	0	280.8	4	97.4	4	-1E+10	1	-1E+10	1	-1E+10	1	-1E+10	1	-1E+10	1	-1E+10	1
4902549	62	C	04/28/2022	06:06	-131.610	47.459	0	18.70	0	8.6800	0	32.2810	0	25.039	0	18.543	0	280.9	4	97.4	4	-1E+10	1	-1E+10	1	-1E+10	1	-1E+10	1	-1E+10	1	-1E+10	1
4902549	62	C	04/28/2022	06:06	-131.610	47.459	0	20.10	0	8.6680	0	32.2810	0	25.041	0	19.931	0	280.8	4	97.4	4	-1E+10	1	-1E+10	1	-1E+10	1	-1E+10	1	-1E+10	1	-1E+10	1
4902549	62	C	04/28/2022	06:06	-131.610	47.459	0	21.30	0	8.6620	0	32.2820	0	25.043	0	21.121	0	280.8	4	97.4	4	-1E+10	1	-1E+10	1	-1E+10	1	-1E+10	1	-1E+10	1	-1E+10	1
4902549	62	C	04/28/2022	06:06	-131.610	47.459	0	22.00	0	8.6610	0	32.2820	0	25.043	0	21.815	0	280.9	4	97.4	4	-1E+10	1	-1E+10	1	-1E+10	1	-1E+10	1	-1E+10	1	-1E+10	1
4902549	62	C	04/28/2022	06:06	-131.610	47.459	0	23.20	0	8.6600	0	32.2820	0	25.043	0	23.005	0	280.9	4	97.4	4	-1E+10	1	-1E+10	1	-1E+10	1	-1E+10	1	-1E+10	1	-1E+10	1
4902549	62	C	04/28/2022	06:06	-131.610	47.459	0	23.90	0	8.6580	0	32.2820	0	25.043	0	23.699	0	280.8	4	97.4	4	-1E+10	1	-1E+10	1	-1E+10	1	-1E+10	1	-1E+10	1	-1E+10	1
4902549	62	C	04/28/2022	06:06	-131.610	47.459	0	24.80	0	8.6570	0	32.2820	0	25.044	0	24.592	0	280.8	4	97.4	4	-1E+10	1	-1E+10	1	-1E+10	1	-1E+10	1	-1E+10	1	-1E+10	1
4902549	62	C	04/28/2022	06:06	-131.610	47.459	0	25.70	0	8.6570	0	32.2820	0	25.044	0	25.484	0	280.8	4	97.4	4	-1E+10	1	-1E+10	1	-1E+10	1	-1E+10	1	-1E+10	1	-1E+10	1
4902549	62	C	04/28/2022	06:06	-131.610	47.459	0	27.10	0	8.6530	0	32.2820	0	25.044	0	26.872	0	280.8	4	97.4	4	-1E+10	1	-1E+10	1	-1E+10	1	-1E+10	1	-1E+10	1	-1E+10	1
4902549	62	C	04/28/2022	06:06	-131.610	47.459	0	28.00	0	8.6520	0	32.2830	0	25.045	0	27.765	0	280.7	4	97.3	4	-1E+10	1	-1E+10	1	-1E+10	1	-1E+10	1	-1E+10	1	-1E+10	1
4902549	62	C	04/28/2022	06:06	-131.610	47.459	0	28.90	0	8.6500	0	32.2830	0	25.045	0	28.657	0	280.7	4	97.3	4	-1E+10	1	-1E+10	1	-1E+10	1	-1E+10	1	-1E+10	1	-1E+10	1
4902549	62	C	04/28/2022	06:06	-131.610	47.459	0	30.00	0	8.6450	0	32.2830	0	25.046	0	29.748	0	280.7	4	97.3	4	-1E+10	1	-1E+10	1	-1E+10	1	-1E+10	1	-1E+10	1	-1E+10	1
4902549	62	C	04/28/2022	06:06	-131.610	47.459	0	30.90	0	8.6390	0	32.2830	0	25.047	0	30.640	0	280.7	4	97.3	4	-1E+10	1	-1E+10	1	-1E+10	1	-1E+10	1	-1E+10	1	-1E+10	1
4902549	62	C	04/28/2022	06:06	-131.610	47.459	0	32.10	0	8.6360	0	32.2830	0	25.048	0	31.830	0	280.6	4	97.3	4	-1E+10	1	-1E+10	1	-1E+10	1	-1E+10	1	-1E+10	1	-1E+10	1
4902549	62	C	04/28/2022	06:06	-131.610	47.459	0	32.90	0	8.6300	0	32.2820	0	25.048	0	32.623	0	280.6	4	97.2	4	-1E+10	1	-1E+10	1	-1E+10	1	-1E+10	1	-1E+10	1	-1E+10	1
4902549	62	C	04/28/2022	06:06	-131.610	47.459	0	34.10	0	8.5980	0	32.2820	0	25.053	0	33.813	0	280.7	4	97.2	4	-1E+10	1	-1E+10	1	-1E+10	1	-1E+10	1	-1E+10	1	-1E+10	1
4902549	62	C	04/28/2022	06:06	-131.610	47.459	0	34.90	0	8.5580	0	32.2810	0	25.058	0	34.606	0	280.9	4	97.2	4	-1E+10	1	-1E+10	1	-1E+10	1	-1E+10	1	-1E+10	1	-1E+10	1
4902549	62	C	04/28/2022	06:06	-131.610	47.459	0	35.90	0	8.4890	0	32.2810	0	25.068	0	35.597	0	281.2	4	97.2	4	-1E+10	1	-1E+10	1	-1E+10	1	-1E+10	1	-1E+10	1	-1E+10	1
4902549	62	C	04/28/2022	06:06	-131.610	47.459	0	37.00	0	8.4550	0	32.2800	0	25.072	0	36.688	0	281.2	4	97.1	4	-1E+10	1	-1E+10	1	-1E+10	1	-1E+10	1	-1E+10	1	-1E+10	1
4902549	62	C	04/28/2022	06:06	-131.610	47.459	0	38.30	0	8.3860	0	32.2810	0	25.084	0	37.977	0	281.3	4	97.0	4	-1E+10	1	-1E+10	1	-1E+10	1	-1E+10	1	-1E+10	1	-1E+10	1
4902549	62	C	04/28/2022	06:06	-131.610	47.459	0	39.20	0	8.3470	0	32.2800	0	25.089	0	38.869	0	281.2	4	96.8	4	-1E+10	1	-1E+10	1	-1E+10	1	-1E+10	1	-1E+10	1	-1E+10	1
4902549	62	C	04/28/2022	06:06	-131.610	47.459	0	40.10	0	8.2950	0	32.2800	0	25.096	0	39.762	0	281.2	4	96.7	4	-1E+10	1	-1E+10	1	-1E+10	1	-1E+10	1	-1E+10	1	-1E+10	1
4902549	62	C	04/28/2022	06:06	-131.610	47.459	0	40.80	0	8.2350	0	32.2810	0	25.106	0	40.456	0	281.4	4	96.7	4	-1E+10	1	-1E+10	1	-1E+10	1	-1E+10	1	-1E+10	1	-1E+10	1
4902549	62	C	04/28/2022	06:06	-131.610	47.459	0	42.00	0	8.1630	0	32.2820	0	25.117	0	41.645	0	281.5	4	96.6	4	-1E+10	1	-1E+10	1	-1E+10	1	-1E+10	1	-1E+10	1	-1E+10	1
4902549	62	C	04/28/2022	06:06	-131.610	47.459	0	42.70	0	8.1480	0	32.2810	0	25.119	0	42.339	0	281.5	4	96.5	4	-1E+10	1	-1E+10	1	-1E+10	1	-1E+10	1	-1E+10	1	-1E+10	1
4902549	62	C	04/28/2022	06:06	-131.610	47.459	0	43.70	0	8.1360	0	32.2820	0	25.121	0	43.331	0	281.4	4	96.5	4	-1E+10	1	-1E+10	1	-1E+10	1	-1E+10	1	-1E+10	1	-1E+10	1
4902549	62	C	04/28/2022	06:06	-131.610	47.459	0	45.00	0	8.1270	0	32.2820	0	25.122	0	44.620	0	281.2	4	96.4	4	-1E+10	1	-1E+10	1	-1E+10	1	-1E+10	1	-1E+10	1	-1E+10	1
4902549	62	C	04/28/2022	06:06	-131.610	47.459	0	45.80	0	8.1210	0	32.2820	0	25.123	0	45.413	0	281.2	4	96.3	4	-1E+10	1	-1E+10	1	-1E+10	1	-1E+10	1	-1E+10	1	-1E+10	1
4902549	62	C	04/28/2022	06:06	-131.610	47.459	0	46.80	0	8.1090	0	32.2820	0	25.125	0	46.404	0	281.1	4	96.3	4	-1E+10	1	-1E+10	1	-1E+10	1	-1E+10	1	-1E+10	1	-1E+10	1
4902549	62	C	04/28/2022	06:06	-131.610	47.459	0	47.80	0	8.1030	0	32.2830	0	25.127	0	47.396	0	281.1	4	96.3	4	-1E+10	1	-1E+10	1	-1E+10	1	-1E+10	1	-1E+10	1	-1E+10	1
4902549	62	C	04/28/2022	06:06	-131.610	47.459	0	48.90	0	8.0940	0	32.2840	0	25.129	0	48.486	0	281.2	4	96.3	4	-1E+10	1	-1E+10	1	-1E+10	1	-1E+10	1	-1E+10	1	-1E+10	1
4902549	62	C	04/28/2022	06:06	-131.610	47.459	0	50.00	0	8.0580	0	32.2830	0	25.133	0	49.577	0	281.0	4	96.1	4	-1E+10	1	-1E+10	1	-1E+10	1	-1E+10	1	-1E+10	1	-1E+10	1
4902549	62	C	04/28/2022	06:06	-131.610	47.459	0	51.10	0	8.0500	0	32.2820	0	25.134	0	50.667	0	280.5	4	95.9	4	-1E+10	1	-1E+10	1	-1E+10	1	-1E+10	1	-1E+10	1	-1E+10	1
4902549	62	C	04/28/2022	06:06	-131.610	47.459	0	52.00	0	8.0450	0	32.2830	0	25.135	0	51.560	0	280.2	4	95.8	4	-1E+10	1	-1E+10	1	-1E+10	1	-1E+10	1	-1E+10	1	-1E+10	1
4902549	62	C	04/28/2022	06:06	-131.610	47.459	0	52.80	0	8.0270	0	32.2840	0	25.139	0	52.353	0	279.9	4	95.7	4	-1E+10	1	-1E+10	1	-1E+10	1	-1E+10	1	-1E+10	1	-1E+10	1
4902549	62	C	04/28/2022	06:06	-131.610	47.459	0	54.00	0	8.0120	0	32.2830	0	25.140	0	53.543	0	279.7	4	95.6	4	-1E+10	1	-1E+10	1	-1E+10	1	-1E+10	1	-1E+10	1	-1E+10	1
4902549	62	C	04/28/2022	06:06	-131.610	47.459	0	54.90	0	8.0030	0	32.2840	0	25.142	0	54.435	0	279.5	4	95.5	4	-1E+10	1	-1E+10	1	-1E+10	1	-1E+10	1	-1E+10	1	-1E+10	1
4902549	62	C	04/28/2022	06:06	-131.610	47.459	0	55.80	0	7.9970	0	32.2840	0	25.143	0	55.327	0	279.1	4	95.4	4	-1E+10	1	-1E+10	1	-1E+10	1	-1E+10	1	-1E+10	1	-1E+10	1
4902549	62	C	04/28/2022	06:06	-131.610	47.459	0	57.00	0	7.9890	0	32.2840	0	25.144	0	56.517	0	278.7	4	95.2	4	-1E+10	1	-1E+10	1	-1E+10	1	-1E+10	1	-1E+10	1	-1E+10	1
4902549	62	C	04/28/2022	06:06	-131.610	47.459	0	58.00	0	7.9900	0	32.2860	0	25.145	0	57.508	0	278.5	4	95.1	4	-1E+10	1	-1E+10	1	-1E+10	1	-1E+10	1	-1E+10	1	-1E+10	1
4902549	62	C	04/28/2022	06:06	-131.610	47.459	0	58.90	0	7.9920	0	32.2870	0	25.146	0	58.400	0	278.2	4	95.1	4	-1E+10	1	-1E+10	1	-1E+10	1	-1E+10	1	-1E+10	1	-1E+10	1
4902549	62	C	04/28/2022	06:06	-131.610	47.459	0	59.90	0	8.0010	0	32.2890	0	25.146	0	59.392	0	278.1	4	95.0	4	-1E+10	1	-1E+10	1	-1E+10	1	-1E+10	1	-1E+10	1	-1E+10	1
4902549	62	C	04/28/2022	06:06	-131.610	47.459	0	60.80	0	8.0130	0	32.2930	0	25.148	0	60.284	0	277.8	4	95.0	4	-1E+10	1	-1E+10	1	-1E+10	1	-1E+10	1	-1E+10	1	-1E+10	1
4902549	62	C	04/28/2022	06:06	-131.610	47.459	0	62.10	0	8.0190	0	32.2930	0	25.147	0	61.573	0	277.6	4	94.9	4	-1E+10	1	-1E+10	1	-1E+10	1	-1E+10	1	-1E+10	1	-1E+10	1
4902549	62	C	04/28/2022	06:06	-131.610	47.459	0	63.10	0	8.0110	0	32.2940	0	25.149	0	62.564	0	277.5	4	94.8	4	-1E+10	1	-1E+10	1	-1E+10	1	-1E+10	1	-1E+10	1	-1E+10	1
4902549	62	C	04/28/2022	06:06	-131.610	47.459	0	64.00	0	7.9940	0	32.2940	0	25.151	0	63.456	0	277.5	4	94.8	4	-1E+10	1	-1E+10	1	-1E+10	1	-1E+10	1	-1E+10	1	-1E+10	1
4902549	62	C	04/28/2022	06:06	-131.610	47.459	0	64.90	0	7.9790	0	32.2960	0	25.155	0	64.348	0	277.4	4	94.8	4	-1E+10	1	-1E+10	1	-1E+10	1	-1E+10	1	-1E+10	1	-1E+10	1
4902549	62	C	04/28/2022	06:06	-131.610	47.459	0	65.80	0	7.9790	0	32.2960	0	25.155	0	65.241	0	277.3	4	94.7	4	-1E+10	1	-1E+10	1	-1E+10	1	-1E+10	1	-1E+10	1	-1E+10	1
4902549	62	C	04/28/2022	06:06	-131.610	47.459	0	67.00	0	7.9800	0	32.2950	0	25.154	0	66.430	0	277.0	4	94.6	4	-1E+10	1	-1E+10	1	-1E+10	1	-1E+10	1	-1E+10	1	-1E+10	1
4902549	62	C	04/28/2022	06:06	-131.610	47.459	0	67.90	0	7.9810	0	32.2960	0	25.155	0	67.322	0	276.9	4	94.6	4	-1E+10	1	-1E+10	1	-1E+10	1	-1E+10	1	-1E+10	1	-1E+10	1
4902549	62	C	04/28/2022	06:06	-131.610	47.459	0	68.80	0	7.9710	0	32.2970	0	25.157	0	68.215	0	276.8	4	94.5	4	-1E+10	1	-1E+10	1	-1E+10	1	-1E+10	1	-1E+10	1	-1E+10	1
4902549	62	C	04/28/2022	06:06	-131.610	47.459	0	70.00	0	7.9550	0	32.2980	0	25.160	0	69.404	0	276.7	4	94.5	4	-1E+10	1	-1E+10	1	-1E+10	1	-1E+10	1	-1E+10	1	-1E+10	1
4902549	62	C	04/28/2022	06:06	-131.610	47.459	0	71.10	0	7.9400	0	32.2980	0	25.162	0	70.495	0	276.6	4	94.4	4	-1E+10	1	-1E+10	1	-1E+10	1	-1E+10	1	-1E+10	1	-1E+10	1
4902549	62	C	04/28/2022	06:06	-131.610	47.459	0	72.00	0	7.9350	0	32.2980	0	25.163	0	71.387	0	276.6	4	94.4	4	-1E+10	1	-1E+10	1	-1E+10	1	-1E+10	1	-1E+10	1	-1E+10	1
4902549	62	C	04/28/2022	06:06	-131.610	47.459	0	72.80	0	7.9310	0	32.2980	0	25.164	0	72.180	0	276.4	4	94.3	4	-1E+10	1	-1E+10	1	-1E+10	1	-1E+10	1	-1E+10	1	-1E+10	1
4902549	62	C	04/28/2022	06:06	-131.610	47.459	0	74.00	0	7.9280	0	32.2970	0	25.163	0	73.370	0	276.3	4	94.3	4	-1E+10	1	-1E+10	1	-1E+10	1	-1E+10	1	-1E+10	1	-1E+10	1
4902549	62	C	04/28/2022	06:06	-131.610	47.459	0	75.10	0	7.9040	0	32.2980	0	25.167	0	74.460	0	276.3	4	94.2	4	-1E+10	1	-1E+10	1	-1E+10	1	-1E+10	1	-1E+10	1	-1E+10	1
4902549	62	C	04/28/2022	06:06	-131.610	47.459	0	76.00	0	7.8820	0	32.2950	0	25.168	0	75.352	0	276.2	4	94.1	4	-1E+10	1	-1E+10	1	-1E+10	1	-1E+10	1	-1E+10	1	-1E+10	1
4902549	62	C	04/28/2022	06:06	-131.610	47.459	0	76.80	0	7.8780	0	32.2970	0	25.170	0	76.145	0	276.2	4	94.1	4	-1E+10	1	-1E+10	1	-1E+10	1	-1E+10	1	-1E+10	1	-1E+10	1
4902549	62	C	04/28/2022	06:06	-131.610	47.459	0	77.90	0	7.8790	0	32.2950	0	25.169	0	77.236	0	276.0	4	94.1	4	-1E+10	1	-1E+10	1	-1E+10	1	-1E+10	1	-1E+10	1	-1E+10	1
4902549	62	C	04/28/2022	06:06	-131.610	47.459	0	79.00	0	7.8750	0	32.2960	0	25.170	0	78.326	0	275.8	4	94.0	4	-1E+10	1	-1E+10	1	-1E+10	1	-1E+10	1	-1E+10	1	-1E+10	1
4902549	62	C	04/28/2022	06:06	-131.610	47.459	0	80.10	0	7.8740	0	32.2970	0	25.171	0	79.416	0	275.6	4	93.9	4	-1E+10	1	-1E+10	1	-1E+10	1	-1E+10	1	-1E+10	1	-1E+10	1
4902549	62	C	04/28/2022	06:06	-131.610	47.459	0	80.90	0	7.8760	0	32.2950	0	25.169	0	80.209	0	275.4	4	93.8	4	-1E+10	1	-1E+10	1	-1E+10	1	-1E+10	1	-1E+10	1	-1E+10	1
4902549	62	C	04/28/2022	06:06	-131.610	47.459	0	81.70	0	7.8710	0	32.2950	0	25.170	0	81.002	0	275.1	4	93.7	4	-1E+10	1	-1E+10	1	-1E+10	1	-1E+10	1	-1E+10	1	-1E+10	1
4902549	62	C	04/28/2022	06:06	-131.610	47.459	0	82.80	0	7.8650	0	32.2940	0	25.170	0	82.093	0	281.6	4	95.9	4	-1E+10	1	-1E+10	1	-1E+10	1	-1E+10	1	-1E+10	1	-1E+10	1
4902549	62	C	04/28/2022	06:06	-131.610	47.459	0	83.90	0	7.8630	0	32.2950	0	25.171	0	83.183	0	281.1	4	95.8	4	-1E+10	1	-1E+10	1	-1E+10	1	-1E+10	1	-1E+10	1	-1E+10	1
4902549	62	C	04/28/2022	06:06	-131.610	47.459	0	84.90	0	7.8620	0	32.2950	0	25.171	0	84.174	0	280.5	4	95.6	4	-1E+10	1	-1E+10	1	-1E+10	1	-1E+10	1	-1E+10	1	-1E+10	1
4902549	62	C	04/28/2022	06:06	-131.610	47.459	0	85.90	0	7.8570	0	32.2940	0	25.171	0	85.166	0	279.9	4	95.3	4	-1E+10	1	-1E+10	1	-1E+10	1	-1E+10	1	-1E+10	1	-1E+10	1
4902549	62	C	04/28/2022	06:06	-131.610	47.459	0	86.90	0	7.8380	0	32.2950	0	25.175	0	86.157	0	279.1	4	95.0	4	-1E+10	1	-1E+10	1	-1E+10	1	-1E+10	1	-1E+10	1	-1E+10	1
4902549	62	C	04/28/2022	06:06	-131.610	47.459	0	87.90	0	7.8130	0	32.2970	0	25.180	0	87.148	0	278.3	4	94.7	4	-1E+10	1	-1E+10	1	-1E+10	1	-1E+10	1	-1E+10	1	-1E+10	1
4902549	62	C	04/28/2022	06:06	-131.610	47.459	0	89.00	0	7.8050	0	32.3000	0	25.183	0	88.239	0	277.2	4	94.3	4	-1E+10	1	-1E+10	1	-1E+10	1	-1E+10	1	-1E+10	1	-1E+10	1
4902549	62	C	04/28/2022	06:06	-131.610	47.459	0	90.00	0	7.7980	0	32.3040	0	25.187	0	89.230	0	276.1	4	93.9	4	-1E+10	1	-1E+10	1	-1E+10	1	-1E+10	1	-1E+10	1	-1E+10	1
4902549	62	C	04/28/2022	06:06	-131.610	47.459	0	91.10	0	7.7940	0	32.3100	0	25.193	0	90.320	0	274.9	4	93.5	4	-1E+10	1	-1E+10	1	-1E+10	1	-1E+10	1	-1E+10	1	-1E+10	1
4902549	62	C	04/28/2022	06:06	-131.610	47.459	0	91.90	0	7.7940	0	32.3130	0	25.195	0	91.113	0	273.9	4	93.2	4	-1E+10	1	-1E+10	1	-1E+10	1	-1E+10	1	-1E+10	1	-1E+10	1
4902549	62	C	04/28/2022	06:06	-131.610	47.459	0	92.70	0	7.8020	0	32.3170	0	25.197	0	91.906	0	272.9	4	92.9	4	-1E+10	1	-1E+10	1	-1E+10	1	-1E+10	1	-1E+10	1	-1E+10	1
4902549	62	C	04/28/2022	06:06	-131.610	47.459	0	94.10	0	7.7380	0	32.3240	0	25.212	0	93.294	0	270.9	4	92.1	4	-1E+10	1	-1E+10	1	-1E+10	1	-1E+10	1	-1E+10	1	-1E+10	1
4902549	62	C	04/28/2022	06:06	-131.610	47.459	0	95.00	0	7.7230	0	32.3310	0	25.219	0	94.186	0	269.5	4	91.5	4	-1E+10	1	-1E+10	1	-1E+10	1	-1E+10	1	-1E+10	1	-1E+10	1
4902549	62	C	04/28/2022	06:06	-131.610	47.459	0	95.90	0	7.7120	0	32.3510	0	25.237	0	95.078	0	267.9	4	91.0	4	-1E+10	1	-1E+10	1	-1E+10	1	-1E+10	1	-1E+10	1	-1E+10	1
4902549	62	C	04/28/2022	06:06	-131.610	47.459	0	97.00	0	7.6890	0	32.3620	0	25.248	0	96.168	0	265.9	4	90.3	4	-1E+10	1	-1E+10	1	-1E+10	1	-1E+10	1	-1E+10	1	-1E+10	1
4902549	62	C	04/28/2022	06:06	-131.610	47.459	0	98.10	0	7.6560	0	32.3610	0	25.252	0	97.259	0	263.5	4	89.4	4	-1E+10	1	-1E+10	1	-1E+10	1	-1E+10	1	-1E+10	1	-1E+10	1
4902549	62	C	04/28/2022	06:06	-131.610	47.459	0	99.00	0	7.5990	0	32.3620	0	25.261	0	98.151	0	261.5	4	88.6	4	-1E+10	1	-1E+10	1	-1E+10	1	-1E+10	1	-1E+10	1	-1E+10	1
4902549	62	C	04/28/2022	06:06	-131.610	47.459	0	99.90	0	7.5820	0	32.3730	0	25.272	0	99.043	0	259.6	4	87.9	4	-1E+10	1	-1E+10	1	-1E+10	1	-1E+10	1	-1E+10	1	-1E+10	1
4902549	62	C	04/28/2022	06:06	-131.610	47.459	0	101.00	0	7.5700	0	32.3990	0	25.294	0	100.133	0	257.2	4	87.1	4	-1E+10	1	-1E+10	1	-1E+10	1	-1E+10	1	-1E+10	1	-1E+10	1
4902549	62	C	04/28/2022	06:06	-131.610	47.459	0	102.20	0	7.5470	0	32.4200	0	25.314	0	101.322	0	254.2	4	86.1	4	-1E+10	1	-1E+10	1	-1E+10	1	-1E+10	1	-1E+10	1	-1E+10	1
4902549	62	C	04/28/2022	06:06	-131.610	47.459	0	103.00	0	7.5350	0	32.4280	0	25.322	0	102.115	0	252.1	4	85.3	4	-1E+10	1	-1E+10	1	-1E+10	1	-1E+10	1	-1E+10	1	-1E+10	1
4902549	62	C	04/28/2022	06:06	-131.610	47.459	0	104.10	0	7.5100	0	32.4450	0	25.339	0	103.206	0	249.2	4	84.3	4	-1E+10	1	-1E+10	1	-1E+10	1	-1E+10	1	-1E+10	1	-1E+10	1
4902549	62	C	04/28/2022	06:06	-131.610	47.459	0	105.00	0	7.4830	0	32.4710	0	25.363	0	104.098	0	246.9	4	83.5	4	-1E+10	1	-1E+10	1	-1E+10	1	-1E+10	1	-1E+10	1	-1E+10	1
4902549	62	C	04/28/2022	06:06	-131.610	47.459	0	106.10	0	7.4850	0	32.4910	0	25.378	0	105.188	0	244.1	4	82.6	4	-1E+10	1	-1E+10	1	-1E+10	1	-1E+10	1	-1E+10	1	-1E+10	1
4902549	62	C	04/28/2022	06:06	-131.610	47.459	0	107.10	0	7.4780	0	32.5010	0	25.387	0	106.179	0	241.0	4	81.5	4	-1E+10	1	-1E+10	1	-1E+10	1	-1E+10	1	-1E+10	1	-1E+10	1
4902549	62	C	04/28/2022	06:06	-131.610	47.459	0	107.90	0	7.4720	0	32.5210	0	25.404	0	106.972	0	238.8	4	80.8	4	-1E+10	1	-1E+10	1	-1E+10	1	-1E+10	1	-1E+10	1	-1E+10	1
4902549	62	C	04/28/2022	06:06	-131.610	47.459	0	108.70	0	7.4660	0	32.5430	0	25.422	0	107.765	0	236.3	4	79.9	4	-1E+10	1	-1E+10	1	-1E+10	1	-1E+10	1	-1E+10	1	-1E+10	1
4902549	62	C	04/28/2022	06:06	-131.610	47.459	0	109.80	0	7.4270	0	32.5470	0	25.430	0	108.855	0	232.4	4	78.5	4	-1E+10	1	-1E+10	1	-1E+10	1	-1E+10	1	-1E+10	1	-1E+10	1
4902549	62	C	04/28/2022	06:06	-131.610	47.459	0	110.80	0	7.5080	0	32.6060	0	25.466	0	109.846	0	228.6	4	77.4	4	-1E+10	1	-1E+10	1	-1E+10	1	-1E+10	1	-1E+10	1	-1E+10	1
4902549	62	C	04/28/2022	06:06	-131.610	47.459	0	112.10	0	7.6080	0	32.6700	0	25.502	0	111.135	0	225.0	4	76.4	4	-1E+10	1	-1E+10	1	-1E+10	1	-1E+10	1	-1E+10	1	-1E+10	1
4902549	62	C	04/28/2022	06:06	-131.610	47.459	0	112.90	0	7.6250	0	32.7130	0	25.533	0	111.928	0	223.6	4	76.0	4	-1E+10	1	-1E+10	1	-1E+10	1	-1E+10	1	-1E+10	1	-1E+10	1
4902549	62	C	04/28/2022	06:06	-131.610	47.459	0	113.90	0	7.6330	0	32.7220	0	25.539	0	112.919	0	221.6	4	75.3	4	-1E+10	1	-1E+10	1	-1E+10	1	-1E+10	1	-1E+10	1	-1E+10	1
4902549	62	C	04/28/2022	06:06	-131.610	47.459	0	115.10	0	7.6370	0	32.7230	0	25.540	0	114.108	0	217.5	4	74.0	4	-1E+10	1	-1E+10	1	-1E+10	1	-1E+10	1	-1E+10	1	-1E+10	1
4902549	62	C	04/28/2022	06:06	-131.610	47.459	0	115.90	0	7.6430	0	32.7260	0	25.541	0	114.901	0	214.6	4	73.0	4	-1E+10	1	-1E+10	1	-1E+10	1	-1E+10	1	-1E+10	1	-1E+10	1
4902549	62	C	04/28/2022	06:06	-131.610	47.459	0	117.10	0	7.6440	0	32.7370	0	25.550	0	116.090	0	209.8	4	71.4	4	-1E+10	1	-1E+10	1	-1E+10	1	-1E+10	1	-1E+10	1	-1E+10	1
4902549	62	C	04/28/2022	06:06	-131.610	47.459	0	118.10	0	7.6460	0	32.7670	0	25.573	0	117.081	0	205.6	4	69.9	4	-1E+10	1	-1E+10	1	-1E+10	1	-1E+10	1	-1E+10	1	-1E+10	1
4902549	62	C	04/28/2022	06:06	-131.610	47.459	0	118.90	0	7.6500	0	32.7780	0	25.581	0	117.874	0	202.1	4	68.8	4	-1E+10	1	-1E+10	1	-1E+10	1	-1E+10	1	-1E+10	1	-1E+10	1
4902549	62	C	04/28/2022	06:06	-131.610	47.459	0	120.00	0	7.6520	0	32.8340	0	25.625	0	118.964	0	198.6	4	67.6	4	-1E+10	1	-1E+10	1	-1E+10	1	-1E+10	1	-1E+10	1	-1E+10	1
4902549	62	C	04/28/2022	06:06	-131.610	47.459	0	121.10	0	7.6240	0	32.9040	0	25.684	0	120.055	0	195.9	4	66.7	4	-1E+10	1	-1E+10	1	-1E+10	1	-1E+10	1	-1E+10	1	-1E+10	1
4902549	62	C	04/28/2022	06:06	-131.610	47.459	0	122.00	0	7.6170	0	32.9190	0	25.697	0	120.946	0	193.6	4	65.9	4	-1E+10	1	-1E+10	1	-1E+10	1	-1E+10	1	-1E+10	1	-1E+10	1
4902549	62	C	04/28/2022	06:06	-131.610	47.459	0	122.80	0	7.6000	0	32.9600	0	25.731	0	121.739	0	191.4	4	65.1	4	-1E+10	1	-1E+10	1	-1E+10	1	-1E+10	1	-1E+10	1	-1E+10	1
4902549	62	C	04/28/2022	06:06	-131.610	47.459	0	124.10	0	7.5880	0	32.9860	0	25.753	0	123.028	0	188.1	4	64.0	4	-1E+10	1	-1E+10	1	-1E+10	1	-1E+10	1	-1E+10	1	-1E+10	1
4902549	62	C	04/28/2022	06:06	-131.610	47.459	0	125.10	0	7.5750	0	33.0370	0	25.795	0	124.019	0	185.6	4	63.2	4	-1E+10	1	-1E+10	1	-1E+10	1	-1E+10	1	-1E+10	1	-1E+10	1
4902549	62	C	04/28/2022	06:06	-131.610	47.459	0	125.80	0	7.5730	0	33.0620	0	25.815	0	124.713	0	184.1	4	62.7	4	-1E+10	1	-1E+10	1	-1E+10	1	-1E+10	1	-1E+10	1	-1E+10	1
4902549	62	C	04/28/2022	06:06	-131.610	47.459	0	126.80	0	7.5560	0	33.1010	0	25.848	0	125.704	0	182.2	4	62.0	4	-1E+10	1	-1E+10	1	-1E+10	1	-1E+10	1	-1E+10	1	-1E+10	1
4902549	62	C	04/28/2022	06:06	-131.610	47.459	0	127.90	0	7.5460	0	33.1510	0	25.889	0	126.794	0	180.5	4	61.4	4	-1E+10	1	-1E+10	1	-1E+10	1	-1E+10	1	-1E+10	1	-1E+10	1
4902549	62	C	04/28/2022	06:06	-131.610	47.459	0	128.90	0	7.5420	0	33.1810	0	25.913	0	127.785	0	179.0	4	60.9	4	-1E+10	1	-1E+10	1	-1E+10	1	-1E+10	1	-1E+10	1	-1E+10	1
4902549	62	C	04/28/2022	06:06	-131.610	47.459	0	130.00	0	7.5370	0	33.2010	0	25.930	0	128.875	0	177.4	4	60.4	4	-1E+10	1	-1E+10	1	-1E+10	1	-1E+10	1	-1E+10	1	-1E+10	1
4902549	62	C	04/28/2022	06:06	-131.610	47.459	0	131.00	0	7.5380	0	33.2110	0	25.937	0	129.866	0	175.6	4	59.8	4	-1E+10	1	-1E+10	1	-1E+10	1	-1E+10	1	-1E+10	1	-1E+10	1
4902549	62	C	04/28/2022	06:06	-131.610	47.459	0	132.10	0	7.5330	0	33.2340	0	25.956	0	130.956	0	173.7	4	59.1	4	-1E+10	1	-1E+10	1	-1E+10	1	-1E+10	1	-1E+10	1	-1E+10	1
4902549	62	C	04/28/2022	06:06	-131.610	47.459	0	132.80	0	7.5300	0	33.2460	0	25.966	0	131.650	0	172.3	4	58.7	4	-1E+10	1	-1E+10	1	-1E+10	1	-1E+10	1	-1E+10	1	-1E+10	1
4902549	62	C	04/28/2022	06:06	-131.610	47.459	0	133.80	0	7.5170	0	33.3110	0	26.019	0	132.641	0	171.0	4	58.2	4	-1E+10	1	-1E+10	1	-1E+10	1	-1E+10	1	-1E+10	1	-1E+10	1
4902549	62	C	04/28/2022	06:06	-131.610	47.459	0	135.00	0	7.5120	0	33.3390	0	26.042	0	133.830	0	169.7	4	57.8	4	-1E+10	1	-1E+10	1	-1E+10	1	-1E+10	1	-1E+10	1	-1E+10	1
4902549	62	C	04/28/2022	06:06	-131.610	47.459	0	136.00	0	7.5050	0	33.3840	0	26.078	0	134.821	0	168.9	4	57.5	4	-1E+10	1	-1E+10	1	-1E+10	1	-1E+10	1	-1E+10	1	-1E+10	1
4902549	62	C	04/28/2022	06:06	-131.610	47.459	0	137.10	0	7.5020	0	33.3980	0	26.090	0	135.911	0	168.0	4	57.2	4	-1E+10	1	-1E+10	1	-1E+10	1	-1E+10	1	-1E+10	1	-1E+10	1
4902549	62	C	04/28/2022	06:06	-131.610	47.459	0	137.90	0	7.5020	0	33.4000	0	26.091	0	136.704	0	167.4	4	57.0	4	-1E+10	1	-1E+10	1	-1E+10	1	-1E+10	1	-1E+10	1	-1E+10	1
4902549	62	C	04/28/2022	06:06	-131.610	47.459	0	138.90	0	7.5010	0	33.4020	0	26.093	0	137.695	0	166.3	4	56.7	4	-1E+10	1	-1E+10	1	-1E+10	1	-1E+10	1	-1E+10	1	-1E+10	1
4902549	62	C	04/28/2022	06:06	-131.610	47.459	0	139.90	0	7.5010	0	33.4040	0	26.094	0	138.686	0	165.0	4	56.2	4	-1E+10	1	-1E+10	1	-1E+10	1	-1E+10	1	-1E+10	1	-1E+10	1
4902549	62	C	04/28/2022	06:06	-131.610	47.459	0	140.80	0	7.5000	0	33.4060	0	26.096	0	139.578	0	163.5	4	55.7	4	-1E+10	1	-1E+10	1	-1E+10	1	-1E+10	1	-1E+10	1	-1E+10	1
4902549	62	C	04/28/2022	06:06	-131.610	47.459	0	142.00	0	7.4900	0	33.4390	0	26.124	0	140.767	0	161.5	4	55.0	4	-1E+10	1	-1E+10	1	-1E+10	1	-1E+10	1	-1E+10	1	-1E+10	1
4902549	62	C	04/28/2022	06:06	-131.610	47.459	0	143.00	0	7.4800	0	33.4760	0	26.154	0	141.758	0	160.2	4	54.6	4	-1E+10	1	-1E+10	1	-1E+10	1	-1E+10	1	-1E+10	1	-1E+10	1
4902549	62	C	04/28/2022	06:06	-131.610	47.459	0	143.70	0	7.4690	0	33.5100	0	26.182	0	142.452	0	159.6	4	54.4	4	-1E+10	1	-1E+10	1	-1E+10	1	-1E+10	1	-1E+10	1	-1E+10	1
4902549	62	C	04/28/2022	06:06	-131.610	47.459	0	144.90	0	7.4500	0	33.5620	0	26.226	0	143.641	0	159.1	4	54.2	4	-1E+10	1	-1E+10	1	-1E+10	1	-1E+10	1	-1E+10	1	-1E+10	1
4902549	62	C	04/28/2022	06:06	-131.610	47.459	0	146.10	0	7.4460	0	33.5690	0	26.232	0	144.830	0	158.5	4	54.0	4	-1E+10	1	-1E+10	1	-1E+10	1	-1E+10	1	-1E+10	1	-1E+10	1
4902549	62	C	04/28/2022	06:06	-131.610	47.459	0	146.90	0	7.4420	0	33.5760	0	26.238	0	145.623	0	158.1	4	53.8	4	-1E+10	1	-1E+10	1	-1E+10	1	-1E+10	1	-1E+10	1	-1E+10	1
4902549	62	C	04/28/2022	06:06	-131.610	47.459	0	147.70	0	7.4420	0	33.5760	0	26.238	0	146.415	0	157.6	4	53.7	4	-1E+10	1	-1E+10	1	-1E+10	1	-1E+10	1	-1E+10	1	-1E+10	1
4902549	62	C	04/28/2022	06:06	-131.610	47.459	0	148.90	0	7.4390	0	33.5820	0	26.243	0	147.605	0	156.7	4	53.4	4	-1E+10	1	-1E+10	1	-1E+10	1	-1E+10	1	-1E+10	1	-1E+10	1
4902549	62	C	04/28/2022	06:06	-131.610	47.459	0	150.10	0	7.4330	0	33.5960	0	26.255	0	148.794	0	155.9	4	53.1	4	-1E+10	1	-1E+10	1	-1E+10	1	-1E+10	1	-1E+10	1	-1E+10	1
4902549	62	C	04/28/2022	06:06	-131.610	47.459	0	150.90	0	7.4310	0	33.6000	0	26.259	0	149.586	0	155.2	4	52.9	4	-1E+10	1	-1E+10	1	-1E+10	1	-1E+10	1	-1E+10	1	-1E+10	1
4902549	62	C	04/28/2022	06:06	-131.610	47.459	0	151.70	0	7.4290	0	33.6030	0	26.261	0	150.379	0	154.6	4	52.6	4	-1E+10	1	-1E+10	1	-1E+10	1	-1E+10	1	-1E+10	1	-1E+10	1
4902549	62	C	04/28/2022	06:06	-131.610	47.459	0	152.90	0	7.4230	0	33.6090	0	26.267	0	151.568	0	153.4	4	52.2	4	-1E+10	1	-1E+10	1	-1E+10	1	-1E+10	1	-1E+10	1	-1E+10	1
4902549	62	C	04/28/2022	06:06	-131.610	47.459	0	154.10	0	7.4180	0	33.6150	0	26.272	0	152.757	0	152.0	4	51.8	4	-1E+10	1	-1E+10	1	-1E+10	1	-1E+10	1	-1E+10	1	-1E+10	1
4902549	62	C	04/28/2022	06:06	-131.610	47.459	0	154.90	0	7.4130	0	33.6220	0	26.278	0	153.550	0	151.1	4	51.5	4	-1E+10	1	-1E+10	1	-1E+10	1	-1E+10	1	-1E+10	1	-1E+10	1
4902549	62	C	04/28/2022	06:06	-131.610	47.459	0	155.80	0	7.3900	0	33.6480	0	26.302	0	154.442	0	150.1	4	51.1	4	-1E+10	1	-1E+10	1	-1E+10	1	-1E+10	1	-1E+10	1	-1E+10	1
4902549	62	C	04/28/2022	06:06	-131.610	47.459	0	156.70	0	7.3790	0	33.6720	0	26.323	0	155.334	0	149.3	4	50.8	4	-1E+10	1	-1E+10	1	-1E+10	1	-1E+10	1	-1E+10	1	-1E+10	1
4902549	62	C	04/28/2022	06:06	-131.610	47.459	0	157.60	0	7.3630	0	33.6840	0	26.334	0	156.226	0	148.5	4	50.5	4	-1E+10	1	-1E+10	1	-1E+10	1	-1E+10	1	-1E+10	1	-1E+10	1
4902549	62	C	04/28/2022	06:06	-131.610	47.459	0	158.90	0	7.3510	0	33.6970	0	26.346	0	157.514	0	147.3	4	50.1	4	-1E+10	1	-1E+10	1	-1E+10	1	-1E+10	1	-1E+10	1	-1E+10	1
4902549	62	C	04/28/2022	06:06	-131.610	47.459	0	160.30	0	7.3230	0	33.7170	0	26.366	0	158.901	0	146.2	4	49.7	4	-1E+10	1	-1E+10	1	-1E+10	1	-1E+10	1	-1E+10	1	-1E+10	1
4902549	62	C	04/28/2022	06:06	-131.610	47.459	0	161.20	0	7.3170	0	33.7190	0	26.368	0	159.793	0	145.6	4	49.5	4	-1E+10	1	-1E+10	1	-1E+10	1	-1E+10	1	-1E+10	1	-1E+10	1
4902549	62	C	04/28/2022	06:06	-131.610	47.459	0	162.10	0	7.3160	0	33.7200	0	26.369	0	160.685	0	145.0	4	49.3	4	-1E+10	1	-1E+10	1	-1E+10	1	-1E+10	1	-1E+10	1	-1E+10	1
4902549	62	C	04/28/2022	06:06	-131.610	47.459	0	163.00	0	7.3160	0	33.7200	0	26.369	0	161.576	0	144.2	4	49.0	4	-1E+10	1	-1E+10	1	-1E+10	1	-1E+10	1	-1E+10	1	-1E+10	1
4902549	62	C	04/28/2022	06:06	-131.610	47.459	0	163.90	0	7.3100	0	33.7260	0	26.375	0	162.468	0	143.5	4	48.8	4	-1E+10	1	-1E+10	1	-1E+10	1	-1E+10	1	-1E+10	1	-1E+10	1
4902549	62	C	04/28/2022	06:06	-131.610	47.459	0	164.80	0	7.2950	0	33.7310	0	26.381	0	163.360	0	142.8	4	48.5	4	-1E+10	1	-1E+10	1	-1E+10	1	-1E+10	1	-1E+10	1	-1E+10	1
4902549	62	C	04/28/2022	06:06	-131.610	47.459	0	165.70	0	7.2890	0	33.7330	0	26.383	0	164.252	0	141.8	4	48.2	4	-1E+10	1	-1E+10	1	-1E+10	1	-1E+10	1	-1E+10	1	-1E+10	1
4902549	62	C	04/28/2022	06:06	-131.610	47.459	0	166.60	0	7.2770	0	33.7380	0	26.389	0	165.144	0	140.8	4	47.8	4	-1E+10	1	-1E+10	1	-1E+10	1	-1E+10	1	-1E+10	1	-1E+10	1
4902549	62	C	04/28/2022	06:06	-131.610	47.459	0	167.90	0	7.2550	0	33.7480	0	26.400	0	166.432	0	139.0	4	47.2	4	-1E+10	1	-1E+10	1	-1E+10	1	-1E+10	1	-1E+10	1	-1E+10	1
4902549	62	C	04/28/2022	06:06	-131.610	47.459	0	169.40	0	7.2240	0	33.7680	0	26.420	0	167.918	0	137.1	4	46.5	4	-1E+10	1	-1E+10	1	-1E+10	1	-1E+10	1	-1E+10	1	-1E+10	1
4902549	62	C	04/28/2022	06:06	-131.610	47.459	0	170.30	0	7.2150	0	33.7740	0	26.426	0	168.810	0	136.1	4	46.2	4	-1E+10	1	-1E+10	1	-1E+10	1	-1E+10	1	-1E+10	1	-1E+10	1
4902549	62	C	04/28/2022	06:06	-131.610	47.459	0	171.20	0	7.2250	0	33.7770	0	26.427	0	169.701	0	135.0	4	45.8	4	-1E+10	1	-1E+10	1	-1E+10	1	-1E+10	1	-1E+10	1	-1E+10	1
4902549	62	C	04/28/2022	06:06	-131.610	47.459	0	172.10	0	7.2060	0	33.7790	0	26.431	0	170.593	0	133.8	4	45.4	4	-1E+10	1	-1E+10	1	-1E+10	1	-1E+10	1	-1E+10	1	-1E+10	1
4902549	62	C	04/28/2022	06:06	-131.610	47.459	0	173.00	0	7.1960	0	33.7950	0	26.445	0	171.485	0	132.8	4	45.0	4	-1E+10	1	-1E+10	1	-1E+10	1	-1E+10	1	-1E+10	1	-1E+10	1
4902549	62	C	04/28/2022	06:06	-131.610	47.459	0	173.90	0	7.1860	0	33.7990	0	26.450	0	172.377	0	132.0	4	44.8	4	-1E+10	1	-1E+10	1	-1E+10	1	-1E+10	1	-1E+10	1	-1E+10	1
4902549	62	C	04/28/2022	06:06	-131.610	47.459	0	174.80	0	7.1770	0	33.8030	0	26.454	0	173.268	0	131.3	4	44.5	4	-1E+10	1	-1E+10	1	-1E+10	1	-1E+10	1	-1E+10	1	-1E+10	1
4902549	62	C	04/28/2022	06:06	-131.610	47.459	0	175.70	0	7.1600	0	33.8090	0	26.461	0	174.160	0	130.6	4	44.3	4	-1E+10	1	-1E+10	1	-1E+10	1	-1E+10	1	-1E+10	1	-1E+10	1
4902549	62	C	04/28/2022	06:06	-131.610	47.459	0	176.60	0	7.1530	0	33.8100	0	26.463	0	175.052	0	129.8	4	44.0	4	-1E+10	1	-1E+10	1	-1E+10	1	-1E+10	1	-1E+10	1	-1E+10	1
4902549	62	C	04/28/2022	06:06	-131.610	47.459	0	177.50	0	7.1350	0	33.8160	0	26.470	0	175.944	0	128.9	4	43.7	4	-1E+10	1	-1E+10	1	-1E+10	1	-1E+10	1	-1E+10	1	-1E+10	1
4902549	62	C	04/28/2022	06:06	-131.610	47.459	0	178.90	0	7.1010	0	33.8210	0	26.479	0	177.331	0	128.0	4	43.4	4	-1E+10	1	-1E+10	1	-1E+10	1	-1E+10	1	-1E+10	1	-1E+10	1
4902549	62	C	04/28/2022	06:06	-131.610	47.459	0	180.40	0	7.0780	0	33.8270	0	26.487	0	178.817	0	127.3	4	43.1	4	-1E+10	1	-1E+10	1	-1E+10	1	-1E+10	1	-1E+10	1	-1E+10	1
4902549	62	C	04/28/2022	06:06	-131.610	47.459	0	181.40	0	7.0690	0	33.8290	0	26.489	0	179.808	0	126.8	4	42.9	4	-1E+10	1	-1E+10	1	-1E+10	1	-1E+10	1	-1E+10	1	-1E+10	1
4902549	62	C	04/28/2022	06:06	-131.610	47.459	0	182.30	0	7.0640	0	33.8290	0	26.490	0	180.699	0	126.1	4	42.7	4	-1E+10	1	-1E+10	1	-1E+10	1	-1E+10	1	-1E+10	1	-1E+10	1
4902549	62	C	04/28/2022	06:06	-131.610	47.459	0	183.30	0	7.0580	0	33.8320	0	26.493	0	181.690	0	125.5	4	42.4	4	-1E+10	1	-1E+10	1	-1E+10	1	-1E+10	1	-1E+10	1	-1E+10	1
4902549	62	C	04/28/2022	06:06	-131.610	47.459	0	184.30	0	7.0530	0	33.8310	0	26.493	0	182.681	0	124.8	4	42.2	4	-1E+10	1	-1E+10	1	-1E+10	1	-1E+10	1	-1E+10	1	-1E+10	1
4902549	62	C	04/28/2022	06:06	-131.610	47.459	0	185.20	0	7.0510	0	33.8340	0	26.496	0	183.573	0	123.9	4	41.9	4	-1E+10	1	-1E+10	1	-1E+10	1	-1E+10	1	-1E+10	1	-1E+10	1
4902549	62	C	04/28/2022	06:06	-131.610	47.459	0	186.10	0	7.0390	0	33.8360	0	26.499	0	184.464	0	123.2	4	41.7	4	-1E+10	1	-1E+10	1	-1E+10	1	-1E+10	1	-1E+10	1	-1E+10	1
4902549	62	C	04/28/2022	06:06	-131.610	47.459	0	187.00	0	7.0350	0	33.8360	0	26.500	0	185.356	0	122.4	4	41.4	4	-1E+10	1	-1E+10	1	-1E+10	1	-1E+10	1	-1E+10	1	-1E+10	1
4902549	62	C	04/28/2022	06:06	-131.610	47.459	0	188.00	0	7.0170	0	33.8410	0	26.506	0	186.347	0	121.7	4	41.1	4	-1E+10	1	-1E+10	1	-1E+10	1	-1E+10	1	-1E+10	1	-1E+10	1
4902549	62	C	04/28/2022	06:06	-131.610	47.459	0	188.80	0	6.9950	0	33.8470	0	26.514	0	187.139	0	121.3	4	41.0	4	-1E+10	1	-1E+10	1	-1E+10	1	-1E+10	1	-1E+10	1	-1E+10	1
4902549	62	C	04/28/2022	06:06	-131.610	47.459	0	189.90	0	6.9750	0	33.8490	0	26.518	0	188.229	0	120.9	4	40.8	4	-1E+10	1	-1E+10	1	-1E+10	1	-1E+10	1	-1E+10	1	-1E+10	1
4902549	62	C	04/28/2022	06:06	-131.610	47.459	0	191.00	0	6.9630	0	33.8540	0	26.524	0	189.319	0	120.8	4	40.8	4	-1E+10	1	-1E+10	1	-1E+10	1	-1E+10	1	-1E+10	1	-1E+10	1
4902549	62	C	04/28/2022	06:06	-131.610	47.459	0	191.80	0	6.9590	0	33.8540	0	26.524	0	190.112	0	120.7	4	40.7	4	-1E+10	1	-1E+10	1	-1E+10	1	-1E+10	1	-1E+10	1	-1E+10	1
4902549	62	C	04/28/2022	06:06	-131.610	47.459	0	192.90	0	6.9480	0	33.8550	0	26.527	0	191.201	0	120.6	4	40.7	4	-1E+10	1	-1E+10	1	-1E+10	1	-1E+10	1	-1E+10	1	-1E+10	1
4902549	62	C	04/28/2022	06:06	-131.610	47.459	0	194.10	0	6.9370	0	33.8560	0	26.529	0	192.390	0	120.5	4	40.7	4	-1E+10	1	-1E+10	1	-1E+10	1	-1E+10	1	-1E+10	1	-1E+10	1
4902549	62	C	04/28/2022	06:06	-131.610	47.459	0	194.90	0	6.9250	0	33.8560	0	26.530	0	193.183	0	120.4	4	40.6	4	-1E+10	1	-1E+10	1	-1E+10	1	-1E+10	1	-1E+10	1	-1E+10	1
4902549	62	C	04/28/2022	06:06	-131.610	47.459	0	195.70	0	6.9190	0	33.8560	0	26.531	0	193.975	0	120.3	4	40.6	4	-1E+10	1	-1E+10	1	-1E+10	1	-1E+10	1	-1E+10	1	-1E+10	1
4902549	62	C	04/28/2022	06:06	-131.610	47.459	0	196.90	0	6.9110	0	33.8560	0	26.532	0	195.164	0	120.2	4	40.5	4	-1E+10	1	-1E+10	1	-1E+10	1	-1E+10	1	-1E+10	1	-1E+10	1
4902549	62	C	04/28/2022	06:06	-131.610	47.459	0	198.20	0	6.8880	0	33.8580	0	26.537	0	196.452	0	120.1	4	40.5	4	-1E+10	1	-1E+10	1	-1E+10	1	-1E+10	1	-1E+10	1	-1E+10	1
4902549	62	C	04/28/2022	06:06	-131.610	47.459	0	199.00	0	6.8660	0	33.8600	0	26.542	0	197.245	0	120.1	4	40.5	4	-1E+10	1	-1E+10	1	-1E+10	1	-1E+10	1	-1E+10	1	-1E+10	1
4902549	62	C	04/28/2022	06:06	-131.610	47.459	0	199.90	0	6.8480	0	33.8600	0	26.544	0	198.136	0	120.1	4	40.4	4	-1E+10	1	-1E+10	1	-1E+10	1	-1E+10	1	-1E+10	1	-1E+10	1
4902549	62	C	04/28/2022	06:06	-131.610	47.459	0	200.70	0	6.8410	0	33.8600	0	26.545	0	198.929	0	120.0	4	40.4	4	-1E+10	1	-1E+10	1	-1E+10	1	-1E+10	1	-1E+10	1	-1E+10	1
4902549	62	C	04/28/2022	06:06	-131.610	47.459	0	202.00	0	6.8370	0	33.8610	0	26.546	0	200.217	0	119.9	4	40.4	4	-1E+10	1	-1E+10	1	-1E+10	1	-1E+10	1	-1E+10	1	-1E+10	1
4902549	62	C	04/28/2022	06:06	-131.610	47.459	0	203.30	0	6.8360	0	33.8610	0	26.547	0	201.505	0	119.8	4	40.3	4	-1E+10	1	-1E+10	1	-1E+10	1	-1E+10	1	-1E+10	1	-1E+10	1
4902549	62	C	04/28/2022	06:06	-131.610	47.459	0	204.20	0	6.8360	0	33.8610	0	26.547	0	202.396	0	119.8	4	40.3	4	-1E+10	1	-1E+10	1	-1E+10	1	-1E+10	1	-1E+10	1	-1E+10	1
4902549	62	C	04/28/2022	06:06	-131.610	47.459	0	205.10	0	6.8290	0	33.8610	0	26.547	0	203.288	0	119.7	4	40.3	4	-1E+10	1	-1E+10	1	-1E+10	1	-1E+10	1	-1E+10	1	-1E+10	1
4902549	62	C	04/28/2022	06:06	-131.610	47.459	0	206.00	0	6.8240	0	33.8610	0	26.548	0	204.180	0	119.6	4	40.3	4	-1E+10	1	-1E+10	1	-1E+10	1	-1E+10	1	-1E+10	1	-1E+10	1
4902549	62	C	04/28/2022	06:06	-131.610	47.459	0	206.90	0	6.8250	0	33.8610	0	26.548	0	205.071	0	119.5	4	40.2	4	-1E+10	1	-1E+10	1	-1E+10	1	-1E+10	1	-1E+10	1	-1E+10	1
4902549	62	C	04/28/2022	06:06	-131.610	47.459	0	207.80	0	6.8160	0	33.8610	0	26.549	0	205.963	0	119.4	4	40.2	4	-1E+10	1	-1E+10	1	-1E+10	1	-1E+10	1	-1E+10	1	-1E+10	1
4902549	62	C	04/28/2022	06:06	-131.610	47.459	0	208.70	0	6.8080	0	33.8610	0	26.550	0	206.854	0	119.3	4	40.1	4	-1E+10	1	-1E+10	1	-1E+10	1	-1E+10	1	-1E+10	1	-1E+10	1
4902549	62	C	04/28/2022	06:06	-131.610	47.459	0	209.60	0	6.8070	0	33.8610	0	26.550	0	207.746	0	119.2	4	40.1	4	-1E+10	1	-1E+10	1	-1E+10	1	-1E+10	1	-1E+10	1	-1E+10	1
4902549	62	C	04/28/2022	06:06	-131.610	47.459	0	210.50	0	6.8050	0	33.8610	0	26.551	0	208.638	0	119.0	4	40.0	4	-1E+10	1	-1E+10	1	-1E+10	1	-1E+10	1	-1E+10	1	-1E+10	1
4902549	62	C	04/28/2022	06:06	-131.610	47.459	0	211.90	0	6.7960	0	33.8620	0	26.553	0	210.025	0	118.8	4	40.0	4	-1E+10	1	-1E+10	1	-1E+10	1	-1E+10	1	-1E+10	1	-1E+10	1
4902549	62	C	04/28/2022	06:06	-131.610	47.459	0	213.30	0	6.7920	0	33.8610	0	26.553	0	211.411	0	118.5	4	39.9	4	-1E+10	1	-1E+10	1	-1E+10	1	-1E+10	1	-1E+10	1	-1E+10	1
4902549	62	C	04/28/2022	06:06	-131.610	47.459	0	214.30	0	6.7890	0	33.8620	0	26.554	0	212.402	0	118.4	4	39.8	4	-1E+10	1	-1E+10	1	-1E+10	1	-1E+10	1	-1E+10	1	-1E+10	1
4902549	62	C	04/28/2022	06:06	-131.610	47.459	0	215.20	0	6.7840	0	33.8640	0	26.556	0	213.294	0	118.2	4	39.7	4	-1E+10	1	-1E+10	1	-1E+10	1	-1E+10	1	-1E+10	1	-1E+10	1
4902549	62	C	04/28/2022	06:06	-131.610	47.459	0	216.20	0	6.7750	0	33.8620	0	26.556	0	214.284	0	118.0	4	39.7	4	-1E+10	1	-1E+10	1	-1E+10	1	-1E+10	1	-1E+10	1	-1E+10	1
4902549	62	C	04/28/2022	06:06	-131.610	47.459	0	217.10	0	6.7660	0	33.8650	0	26.559	0	215.176	0	117.8	4	39.6	4	-1E+10	1	-1E+10	1	-1E+10	1	-1E+10	1	-1E+10	1	-1E+10	1
4902549	62	C	04/28/2022	06:06	-131.610	47.459	0	218.10	0	6.7600	0	33.8610	0	26.557	0	216.166	0	117.5	4	39.5	4	-1E+10	1	-1E+10	1	-1E+10	1	-1E+10	1	-1E+10	1	-1E+10	1
4902549	62	C	04/28/2022	06:06	-131.610	47.459	0	219.10	0	6.7410	0	33.8640	0	26.562	0	217.157	0	117.2	4	39.4	4	-1E+10	1	-1E+10	1	-1E+10	1	-1E+10	1	-1E+10	1	-1E+10	1
4902549	62	C	04/28/2022	06:06	-131.610	47.459	0	220.10	0	6.7190	0	33.8650	0	26.566	0	218.148	0	116.9	4	39.3	4	-1E+10	1	-1E+10	1	-1E+10	1	-1E+10	1	-1E+10	1	-1E+10	1
4902549	62	C	04/28/2022	06:06	-131.610	47.459	0	221.00	0	6.7170	0	33.8650	0	26.566	0	219.039	0	116.6	4	39.2	4	-1E+10	1	-1E+10	1	-1E+10	1	-1E+10	1	-1E+10	1	-1E+10	1
4902549	62	C	04/28/2022	06:06	-131.610	47.459	0	222.00	0	6.7180	0	33.8650	0	26.566	0	220.030	0	116.3	4	39.0	4	-1E+10	1	-1E+10	1	-1E+10	1	-1E+10	1	-1E+10	1	-1E+10	1
4902549	62	C	04/28/2022	06:06	-131.610	47.459	0	223.00	0	6.7200	0	33.8660	0	26.566	0	221.020	0	115.9	4	38.9	4	-1E+10	1	-1E+10	1	-1E+10	1	-1E+10	1	-1E+10	1	-1E+10	1
4902549	62	C	04/28/2022	06:06	-131.610	47.459	0	223.90	0	6.7170	0	33.8670	0	26.567	0	221.912	0	115.6	4	38.8	4	-1E+10	1	-1E+10	1	-1E+10	1	-1E+10	1	-1E+10	1	-1E+10	1
4902549	62	C	04/28/2022	06:06	-131.610	47.459	0	224.90	0	6.7190	0	33.8660	0	26.566	0	222.902	0	115.3	4	38.7	4	-1E+10	1	-1E+10	1	-1E+10	1	-1E+10	1	-1E+10	1	-1E+10	1
4902549	62	C	04/28/2022	06:06	-131.610	47.459	0	225.90	0	6.7200	0	33.8670	0	26.567	0	223.893	0	115.0	4	38.6	4	-1E+10	1	-1E+10	1	-1E+10	1	-1E+10	1	-1E+10	1	-1E+10	1
4902549	62	C	04/28/2022	06:06	-131.610	47.459	0	226.80	0	6.7070	0	33.8680	0	26.570	0	224.785	0	114.6	4	38.5	4	-1E+10	1	-1E+10	1	-1E+10	1	-1E+10	1	-1E+10	1	-1E+10	1
4902549	62	C	04/28/2022	06:06	-131.610	47.459	0	227.80	0	6.6990	0	33.8700	0	26.572	0	225.775	0	114.4	4	38.4	4	-1E+10	1	-1E+10	1	-1E+10	1	-1E+10	1	-1E+10	1	-1E+10	1
4902549	62	C	04/28/2022	06:06	-131.610	47.459	0	228.80	0	6.6980	0	33.8680	0	26.571	0	226.766	0	114.0	4	38.2	4	-1E+10	1	-1E+10	1	-1E+10	1	-1E+10	1	-1E+10	1	-1E+10	1
4902549	62	C	04/28/2022	06:06	-131.610	47.459	0	229.70	0	6.6910	0	33.8690	0	26.573	0	227.657	0	113.5	4	38.1	4	-1E+10	1	-1E+10	1	-1E+10	1	-1E+10	1	-1E+10	1	-1E+10	1
4902549	62	C	04/28/2022	06:06	-131.610	47.459	0	230.70	0	6.6870	0	33.8680	0	26.572	0	228.648	0	113.0	4	37.9	4	-1E+10	1	-1E+10	1	-1E+10	1	-1E+10	1	-1E+10	1	-1E+10	1
4902549	62	C	04/28/2022	06:06	-131.610	47.459	0	231.70	0	6.6850	0	33.8680	0	26.573	0	229.638	0	112.4	4	37.7	4	-1E+10	1	-1E+10	1	-1E+10	1	-1E+10	1	-1E+10	1	-1E+10	1
4902549	62	C	04/28/2022	06:06	-131.610	47.459	0	232.60	0	6.6430	0	33.8690	0	26.579	0	230.530	0	111.7	4	37.5	4	-1E+10	1	-1E+10	1	-1E+10	1	-1E+10	1	-1E+10	1	-1E+10	1
4902549	62	C	04/28/2022	06:06	-131.610	47.459	0	233.60	0	6.6410	0	33.8690	0	26.579	0	231.520	0	111.3	4	37.3	4	-1E+10	1	-1E+10	1	-1E+10	1	-1E+10	1	-1E+10	1	-1E+10	1
4902549	62	C	04/28/2022	06:06	-131.610	47.459	0	234.50	0	6.6020	0	33.8770	0	26.591	0	232.412	0	110.9	4	37.2	4	-1E+10	1	-1E+10	1	-1E+10	1	-1E+10	1	-1E+10	1	-1E+10	1
4902549	62	C	04/28/2022	06:06	-131.610	47.459	0	235.90	0	6.5840	0	33.8760	0	26.592	0	233.799	0	110.5	4	37.0	4	-1E+10	1	-1E+10	1	-1E+10	1	-1E+10	1	-1E+10	1	-1E+10	1
4902549	62	C	04/28/2022	06:06	-131.610	47.459	0	237.40	0	6.5840	0	33.8780	0	26.594	0	235.284	0	110.0	4	36.8	4	-1E+10	1	-1E+10	1	-1E+10	1	-1E+10	1	-1E+10	1	-1E+10	1
4902549	62	C	04/28/2022	06:06	-131.610	47.459	0	238.30	0	6.5830	0	33.8780	0	26.594	0	236.176	0	109.6	4	36.7	4	-1E+10	1	-1E+10	1	-1E+10	1	-1E+10	1	-1E+10	1	-1E+10	1
4902549	62	C	04/28/2022	06:06	-131.610	47.459	0	239.20	0	6.5810	0	33.8780	0	26.594	0	237.067	0	109.2	4	36.6	4	-1E+10	1	-1E+10	1	-1E+10	1	-1E+10	1	-1E+10	1	-1E+10	1
4902549	62	C	04/28/2022	06:06	-131.610	47.459	0	240.20	0	6.5780	0	33.8800	0	26.596	0	238.058	0	108.8	4	36.4	4	-1E+10	1	-1E+10	1	-1E+10	1	-1E+10	1	-1E+10	1	-1E+10	1
4902549	62	C	04/28/2022	06:06	-131.610	47.459	0	241.10	0	6.5720	0	33.8810	0	26.598	0	238.949	0	108.5	4	36.3	4	-1E+10	1	-1E+10	1	-1E+10	1	-1E+10	1	-1E+10	1	-1E+10	1
4902549	62	C	04/28/2022	06:06	-131.610	47.459	0	242.10	0	6.5700	0	33.8810	0	26.598	0	239.940	0	108.2	4	36.2	4	-1E+10	1	-1E+10	1	-1E+10	1	-1E+10	1	-1E+10	1	-1E+10	1
4902549	62	C	04/28/2022	06:06	-131.610	47.459	0	243.00	0	6.5680	0	33.8810	0	26.598	0	240.831	0	107.8	4	36.1	4	-1E+10	1	-1E+10	1	-1E+10	1	-1E+10	1	-1E+10	1	-1E+10	1
4902549	62	C	04/28/2022	06:06	-131.610	47.459	0	243.90	0	6.5640	0	33.8820	0	26.600	0	241.723	0	107.5	4	36.0	4	-1E+10	1	-1E+10	1	-1E+10	1	-1E+10	1	-1E+10	1	-1E+10	1
4902549	62	C	04/28/2022	06:06	-131.610	47.459	0	244.80	0	6.5590	0	33.8830	0	26.601	0	242.614	0	107.2	4	35.9	4	-1E+10	1	-1E+10	1	-1E+10	1	-1E+10	1	-1E+10	1	-1E+10	1
4902549	62	C	04/28/2022	06:06	-131.610	47.459	0	245.80	0	6.5490	0	33.8830	0	26.602	0	243.605	0	106.9	4	35.8	4	-1E+10	1	-1E+10	1	-1E+10	1	-1E+10	1	-1E+10	1	-1E+10	1
4902549	62	C	04/28/2022	06:06	-131.610	47.459	0	246.70	0	6.5420	0	33.8840	0	26.604	0	244.496	0	106.5	4	35.6	4	-1E+10	1	-1E+10	1	-1E+10	1	-1E+10	1	-1E+10	1	-1E+10	1
4902549	62	C	04/28/2022	06:06	-131.610	47.459	0	247.60	0	6.5160	0	33.8840	0	26.608	0	245.387	0	106.2	4	35.5	4	-1E+10	1	-1E+10	1	-1E+10	1	-1E+10	1	-1E+10	1	-1E+10	1
4902549	62	C	04/28/2022	06:06	-131.610	47.459	0	248.60	0	6.4920	0	33.8840	0	26.611	0	246.378	0	105.8	4	35.4	4	-1E+10	1	-1E+10	1	-1E+10	1	-1E+10	1	-1E+10	1	-1E+10	1
4902549	62	C	04/28/2022	06:06	-131.610	47.459	0	250.00	0	6.4780	0	33.8830	0	26.612	0	247.764	0	105.1	4	35.1	4	-1E+10	1	-1E+10	1	-1E+10	1	-1E+10	1	-1E+10	1	-1E+10	1
4902549	62	C	04/28/2022	06:06	-131.610	47.459	0	251.30	0	6.4530	0	33.8840	0	26.616	0	249.052	0	104.3	4	34.8	4	-1E+10	1	-1E+10	1	-1E+10	1	-1E+10	1	-1E+10	1	-1E+10	1
4902549	62	C	04/28/2022	06:06	-131.610	47.459	0	252.20	0	6.4530	0	33.8890	0	26.620	0	249.943	0	104.0	4	34.7	4	-1E+10	1	-1E+10	1	-1E+10	1	-1E+10	1	-1E+10	1	-1E+10	1
4902549	62	C	04/28/2022	06:06	-131.610	47.459	0	253.10	0	6.4520	0	33.8890	0	26.620	0	250.835	0	103.7	4	34.6	4	-1E+10	1	-1E+10	1	-1E+10	1	-1E+10	1	-1E+10	1	-1E+10	1
4902549	62	C	04/28/2022	06:06	-131.610	47.459	0	254.00	0	6.4490	0	33.8900	0	26.621	0	251.726	0	103.4	4	34.5	4	-1E+10	1	-1E+10	1	-1E+10	1	-1E+10	1	-1E+10	1	-1E+10	1
4902549	62	C	04/28/2022	06:06	-131.610	47.459	0	254.90	0	6.4450	0	33.8890	0	26.621	0	252.618	0	103.0	4	34.4	4	-1E+10	1	-1E+10	1	-1E+10	1	-1E+10	1	-1E+10	1	-1E+10	1
4902549	62	C	04/28/2022	06:06	-131.610	47.459	0	255.80	0	6.4420	0	33.8890	0	26.621	0	253.509	0	102.5	4	34.2	4	-1E+10	1	-1E+10	1	-1E+10	1	-1E+10	1	-1E+10	1	-1E+10	1
4902549	62	C	04/28/2022	06:06	-131.610	47.459	0	256.70	0	6.4290	0	33.8920	0	26.625	0	254.400	0	102.1	4	34.1	4	-1E+10	1	-1E+10	1	-1E+10	1	-1E+10	1	-1E+10	1	-1E+10	1
4902549	62	C	04/28/2022	06:06	-131.610	47.459	0	257.60	0	6.4150	0	33.8900	0	26.626	0	255.292	0	101.7	4	33.9	4	-1E+10	1	-1E+10	1	-1E+10	1	-1E+10	1	-1E+10	1	-1E+10	1
4902549	62	C	04/28/2022	06:06	-131.610	47.459	0	258.90	0	6.3980	0	33.8930	0	26.630	0	256.579	0	101.4	4	33.8	4	-1E+10	1	-1E+10	1	-1E+10	1	-1E+10	1	-1E+10	1	-1E+10	1
4902549	62	C	04/28/2022	06:06	-131.610	47.459	0	260.20	0	6.3620	0	33.8940	0	26.636	0	257.867	0	101.2	4	33.7	4	-1E+10	1	-1E+10	1	-1E+10	1	-1E+10	1	-1E+10	1	-1E+10	1
4902549	62	C	04/28/2022	06:06	-131.610	47.459	0	261.10	0	6.3470	0	33.8940	0	26.638	0	258.758	0	101.2	4	33.7	4	-1E+10	1	-1E+10	1	-1E+10	1	-1E+10	1	-1E+10	1	-1E+10	1
4902549	62	C	04/28/2022	06:06	-131.610	47.459	0	262.00	0	6.3210	0	33.8950	0	26.642	0	259.650	0	101.1	4	33.6	4	-1E+10	1	-1E+10	1	-1E+10	1	-1E+10	1	-1E+10	1	-1E+10	1
4902549	62	C	04/28/2022	06:06	-131.610	47.459	0	262.80	0	6.2910	0	33.8930	0	26.644	0	260.442	0	100.9	4	33.6	4	-1E+10	1	-1E+10	1	-1E+10	1	-1E+10	1	-1E+10	1	-1E+10	1
4902549	62	C	04/28/2022	06:06	-131.610	47.459	0	263.70	0	6.2730	0	33.8940	0	26.647	0	261.333	0	100.8	4	33.5	4	-1E+10	1	-1E+10	1	-1E+10	1	-1E+10	1	-1E+10	1	-1E+10	1
4902549	62	C	04/28/2022	06:06	-131.610	47.459	0	264.60	0	6.2640	0	33.8930	0	26.648	0	262.225	0	100.6	4	33.5	4	-1E+10	1	-1E+10	1	-1E+10	1	-1E+10	1	-1E+10	1	-1E+10	1
4902549	62	C	04/28/2022	06:06	-131.610	47.459	0	265.90	0	6.2540	0	33.8920	0	26.648	0	263.512	0	100.3	4	33.3	4	-1E+10	1	-1E+10	1	-1E+10	1	-1E+10	1	-1E+10	1	-1E+10	1
4902549	62	C	04/28/2022	06:06	-131.610	47.459	0	267.30	0	6.2320	0	33.8950	0	26.653	0	264.899	0	100.0	4	33.2	4	-1E+10	1	-1E+10	1	-1E+10	1	-1E+10	1	-1E+10	1	-1E+10	1
4902549	62	C	04/28/2022	06:06	-131.610	47.459	0	268.20	0	6.2040	0	33.8940	0	26.656	0	265.790	0	100.0	4	33.2	4	-1E+10	1	-1E+10	1	-1E+10	1	-1E+10	1	-1E+10	1	-1E+10	1
4902549	62	C	04/28/2022	06:06	-131.610	47.459	0	269.00	0	6.1990	0	33.8940	0	26.657	0	266.582	0	99.9	4	33.1	4	-1E+10	1	-1E+10	1	-1E+10	1	-1E+10	1	-1E+10	1	-1E+10	1
4902549	62	C	04/28/2022	06:06	-131.610	47.459	0	269.90	0	6.1950	0	33.8940	0	26.657	0	267.474	0	99.7	4	33.1	4	-1E+10	1	-1E+10	1	-1E+10	1	-1E+10	1	-1E+10	1	-1E+10	1
4902549	62	C	04/28/2022	06:06	-131.610	47.459	0	270.80	0	6.1850	0	33.8950	0	26.659	0	268.365	0	99.6	4	33.0	4	-1E+10	1	-1E+10	1	-1E+10	1	-1E+10	1	-1E+10	1	-1E+10	1
4902549	62	C	04/28/2022	06:06	-131.610	47.459	0	271.70	0	6.1690	0	33.8940	0	26.660	0	269.256	0	99.4	4	33.0	4	-1E+10	1	-1E+10	1	-1E+10	1	-1E+10	1	-1E+10	1	-1E+10	1
4902549	62	C	04/28/2022	06:06	-131.610	47.459	0	272.60	0	6.1620	0	33.8910	0	26.659	0	270.148	0	99.2	4	32.9	4	-1E+10	1	-1E+10	1	-1E+10	1	-1E+10	1	-1E+10	1	-1E+10	1
4902549	62	C	04/28/2022	06:06	-131.610	47.459	0	273.90	0	6.1290	0	33.8920	0	26.664	0	271.435	0	98.6	4	32.7	4	-1E+10	1	-1E+10	1	-1E+10	1	-1E+10	1	-1E+10	1	-1E+10	1
4902549	62	C	04/28/2022	06:06	-131.610	47.459	0	275.30	0	6.1030	0	33.8900	0	26.666	0	272.822	0	97.9	4	32.4	4	-1E+10	1	-1E+10	1	-1E+10	1	-1E+10	1	-1E+10	1	-1E+10	1
4902549	62	C	04/28/2022	06:06	-131.610	47.459	0	276.20	0	6.0940	0	33.8900	0	26.667	0	273.713	0	97.2	4	32.2	4	-1E+10	1	-1E+10	1	-1E+10	1	-1E+10	1	-1E+10	1	-1E+10	1
4902549	62	C	04/28/2022	06:06	-131.610	47.459	0	277.10	0	6.0560	0	33.8880	0	26.670	0	274.604	0	96.6	4	31.9	4	-1E+10	1	-1E+10	1	-1E+10	1	-1E+10	1	-1E+10	1	-1E+10	1
4902549	62	C	04/28/2022	06:06	-131.610	47.459	0	278.00	0	6.0740	0	33.8930	0	26.672	0	275.495	0	96.0	4	31.8	4	-1E+10	1	-1E+10	1	-1E+10	1	-1E+10	1	-1E+10	1	-1E+10	1
4902549	62	C	04/28/2022	06:06	-131.610	47.459	0	278.90	0	6.0420	0	33.8940	0	26.677	0	276.387	0	95.6	4	31.6	4	-1E+10	1	-1E+10	1	-1E+10	1	-1E+10	1	-1E+10	1	-1E+10	1
4902549	62	C	04/28/2022	06:06	-131.610	47.459	0	279.80	0	6.0350	0	33.8940	0	26.677	0	277.278	0	95.0	4	31.4	4	-1E+10	1	-1E+10	1	-1E+10	1	-1E+10	1	-1E+10	1	-1E+10	1
4902549	62	C	04/28/2022	06:06	-131.610	47.459	0	280.70	0	6.0330	0	33.8940	0	26.678	0	278.169	0	94.4	4	31.2	4	-1E+10	1	-1E+10	1	-1E+10	1	-1E+10	1	-1E+10	1	-1E+10	1
4902549	62	C	04/28/2022	06:06	-131.610	47.459	0	281.60	0	6.0210	0	33.8940	0	26.679	0	279.061	0	93.8	4	31.0	4	-1E+10	1	-1E+10	1	-1E+10	1	-1E+10	1	-1E+10	1	-1E+10	1
4902549	62	C	04/28/2022	06:06	-131.610	47.459	0	282.90	0	6.0320	0	33.8980	0	26.681	0	280.348	0	93.2	4	30.8	4	-1E+10	1	-1E+10	1	-1E+10	1	-1E+10	1	-1E+10	1	-1E+10	1
4902549	62	C	04/28/2022	06:06	-131.610	47.459	0	284.30	0	6.0060	0	33.9020	0	26.687	0	281.734	0	92.8	4	30.7	4	-1E+10	1	-1E+10	1	-1E+10	1	-1E+10	1	-1E+10	1	-1E+10	1
4902549	62	C	04/28/2022	06:06	-131.610	47.459	0	285.20	0	5.9730	0	33.9000	0	26.690	0	282.626	0	92.6	4	30.6	4	-1E+10	1	-1E+10	1	-1E+10	1	-1E+10	1	-1E+10	1	-1E+10	1
4902549	62	C	04/28/2022	06:06	-131.610	47.459	0	286.10	0	5.9540	0	33.9000	0	26.692	0	283.517	0	92.3	4	30.5	4	-1E+10	1	-1E+10	1	-1E+10	1	-1E+10	1	-1E+10	1	-1E+10	1
4902549	62	C	04/28/2022	06:06	-131.610	47.459	0	287.00	0	5.9400	0	33.9050	0	26.698	0	284.408	0	92.1	4	30.4	4	-1E+10	1	-1E+10	1	-1E+10	1	-1E+10	1	-1E+10	1	-1E+10	1
4902549	62	C	04/28/2022	06:06	-131.610	47.459	0	287.90	0	5.9380	0	33.8990	0	26.694	0	285.299	0	91.8	4	30.3	4	-1E+10	1	-1E+10	1	-1E+10	1	-1E+10	1	-1E+10	1	-1E+10	1
4902549	62	C	04/28/2022	06:06	-131.610	47.459	0	288.80	0	5.9000	0	33.8960	0	26.696	0	286.191	0	91.4	4	30.1	4	-1E+10	1	-1E+10	1	-1E+10	1	-1E+10	1	-1E+10	1	-1E+10	1
4902549	62	C	04/28/2022	06:06	-131.610	47.459	0	289.70	0	5.9130	0	33.9000	0	26.698	0	287.082	0	90.8	4	30.0	4	-1E+10	1	-1E+10	1	-1E+10	1	-1E+10	1	-1E+10	1	-1E+10	1
4902549	62	C	04/28/2022	06:06	-131.610	47.459	0	290.60	0	5.9130	0	33.8990	0	26.697	0	287.973	0	90.4	4	29.8	4	-1E+10	1	-1E+10	1	-1E+10	1	-1E+10	1	-1E+10	1	-1E+10	1
4902549	62	C	04/28/2022	06:06	-131.610	47.459	0	291.90	0	5.8950	0	33.9010	0	26.701	0	289.261	0	89.8	4	29.6	4	-1E+10	1	-1E+10	1	-1E+10	1	-1E+10	1	-1E+10	1	-1E+10	1
4902549	62	C	04/28/2022	06:06	-131.610	47.459	0	293.30	0	5.8750	0	33.9010	0	26.703	0	290.647	0	89.2	4	29.4	4	-1E+10	1	-1E+10	1	-1E+10	1	-1E+10	1	-1E+10	1	-1E+10	1
4902549	62	C	04/28/2022	06:06	-131.610	47.459	0	294.20	0	5.8670	0	33.8990	0	26.702	0	291.538	0	88.6	4	29.2	4	-1E+10	1	-1E+10	1	-1E+10	1	-1E+10	1	-1E+10	1	-1E+10	1
4902549	62	C	04/28/2022	06:06	-131.610	47.459	0	295.10	0	5.8510	0	33.9030	0	26.708	0	292.429	0	88.2	4	29.0	4	-1E+10	1	-1E+10	1	-1E+10	1	-1E+10	1	-1E+10	1	-1E+10	1
4902549	62	C	04/28/2022	06:06	-131.610	47.459	0	296.00	0	5.8290	0	33.9030	0	26.710	0	293.321	0	87.9	4	28.9	4	-1E+10	1	-1E+10	1	-1E+10	1	-1E+10	1	-1E+10	1	-1E+10	1
4902549	62	C	04/28/2022	06:06	-131.610	47.459	0	296.90	0	5.8260	0	33.9030	0	26.711	0	294.212	0	87.5	4	28.8	4	-1E+10	1	-1E+10	1	-1E+10	1	-1E+10	1	-1E+10	1	-1E+10	1
4902549	62	C	04/28/2022	06:06	-131.610	47.459	0	297.80	0	5.8010	0	33.9060	0	26.716	0	295.103	0	87.1	4	28.6	4	-1E+10	1	-1E+10	1	-1E+10	1	-1E+10	1	-1E+10	1	-1E+10	1
4902549	62	C	04/28/2022	06:06	-131.610	47.459	0	298.70	0	5.7910	0	33.9020	0	26.714	0	295.994	0	86.6	4	28.5	4	-1E+10	1	-1E+10	1	-1E+10	1	-1E+10	1	-1E+10	1	-1E+10	1
4902549	62	C	04/28/2022	06:06	-131.610	47.459	0	299.60	0	5.7780	0	33.9070	0	26.720	0	296.885	0	86.2	4	28.3	4	-1E+10	1	-1E+10	1	-1E+10	1	-1E+10	1	-1E+10	1	-1E+10	1
4902549	62	C	04/28/2022	06:06	-131.610	47.459	0	300.90	0	5.7720	0	33.9080	0	26.721	0	298.173	0	85.7	4	28.2	4	-1E+10	1	-1E+10	1	-1E+10	1	-1E+10	1	-1E+10	1	-1E+10	1
4902549	62	C	04/28/2022	06:06	-131.610	47.459	0	302.30	0	5.7730	0	33.9080	0	26.721	0	299.559	0	85.2	4	28.0	4	-1E+10	1	-1E+10	1	-1E+10	1	-1E+10	1	-1E+10	1	-1E+10	1
4902549	62	C	04/28/2022	06:06	-131.610	47.459	0	303.20	0	5.7770	0	33.9100	0	26.722	0	300.450	0	84.9	4	27.9	4	-1E+10	1	-1E+10	1	-1E+10	1	-1E+10	1	-1E+10	1	-1E+10	1
4902549	62	C	04/28/2022	06:06	-131.610	47.459	0	304.10	0	5.7710	0	33.9110	0	26.724	0	301.341	0	84.6	4	27.8	4	-1E+10	1	-1E+10	1	-1E+10	1	-1E+10	1	-1E+10	1	-1E+10	1
4902549	62	C	04/28/2022	06:06	-131.610	47.459	0	305.00	0	5.7680	0	33.9100	0	26.723	0	302.233	0	84.4	4	27.7	4	-1E+10	1	-1E+10	1	-1E+10	1	-1E+10	1	-1E+10	1	-1E+10	1
4902549	62	C	04/28/2022	06:06	-131.610	47.459	0	305.90	0	5.7620	0	33.9110	0	26.725	0	303.124	0	84.1	4	27.6	4	-1E+10	1	-1E+10	1	-1E+10	1	-1E+10	1	-1E+10	1	-1E+10	1
4902549	62	C	04/28/2022	06:06	-131.610	47.459	0	306.80	0	5.7570	0	33.9130	0	26.727	0	304.015	0	83.8	4	27.5	4	-1E+10	1	-1E+10	1	-1E+10	1	-1E+10	1	-1E+10	1	-1E+10	1
4902549	62	C	04/28/2022	06:06	-131.610	47.459	0	307.70	0	5.7440	0	33.9120	0	26.728	0	304.906	0	83.6	4	27.5	4	-1E+10	1	-1E+10	1	-1E+10	1	-1E+10	1	-1E+10	1	-1E+10	1
4902549	62	C	04/28/2022	06:06	-131.610	47.459	0	308.60	0	5.7410	0	33.9120	0	26.728	0	305.797	0	83.3	4	27.3	4	-1E+10	1	-1E+10	1	-1E+10	1	-1E+10	1	-1E+10	1	-1E+10	1
4902549	62	C	04/28/2022	06:06	-131.610	47.459	0	309.90	0	5.7280	0	33.9120	0	26.730	0	307.084	0	82.8	4	27.2	4	-1E+10	1	-1E+10	1	-1E+10	1	-1E+10	1	-1E+10	1	-1E+10	1
4902549	62	C	04/28/2022	06:06	-131.610	47.459	0	311.20	0	5.7170	0	33.9100	0	26.730	0	308.372	0	82.2	4	27.0	4	-1E+10	1	-1E+10	1	-1E+10	1	-1E+10	1	-1E+10	1	-1E+10	1
4902549	62	C	04/28/2022	06:06	-131.610	47.459	0	312.10	0	5.7060	0	33.9110	0	26.732	0	309.263	0	81.8	4	26.8	4	-1E+10	1	-1E+10	1	-1E+10	1	-1E+10	1	-1E+10	1	-1E+10	1
4902549	62	C	04/28/2022	06:06	-131.610	47.459	0	313.00	0	5.6910	0	33.9110	0	26.734	0	310.154	0	81.3	4	26.7	4	-1E+10	1	-1E+10	1	-1E+10	1	-1E+10	1	-1E+10	1	-1E+10	1
4902549	62	C	04/28/2022	06:06	-131.610	47.459	0	313.90	0	5.6780	0	33.9130	0	26.737	0	311.045	0	81.0	4	26.6	4	-1E+10	1	-1E+10	1	-1E+10	1	-1E+10	1	-1E+10	1	-1E+10	1
4902549	62	C	04/28/2022	06:06	-131.610	47.459	0	314.80	0	5.6770	0	33.9140	0	26.738	0	311.936	0	80.7	4	26.5	4	-1E+10	1	-1E+10	1	-1E+10	1	-1E+10	1	-1E+10	1	-1E+10	1
4902549	62	C	04/28/2022	06:06	-131.610	47.459	0	315.70	0	5.6660	0	33.9160	0	26.741	0	312.827	0	80.3	4	26.3	4	-1E+10	1	-1E+10	1	-1E+10	1	-1E+10	1	-1E+10	1	-1E+10	1
4902549	62	C	04/28/2022	06:06	-131.610	47.459	0	317.00	0	5.6520	0	33.9140	0	26.741	0	314.115	0	79.7	4	26.1	4	-1E+10	1	-1E+10	1	-1E+10	1	-1E+10	1	-1E+10	1	-1E+10	1
4902549	62	C	04/28/2022	06:06	-131.610	47.459	0	318.40	0	5.6310	0	33.9130	0	26.743	0	315.501	0	79.1	4	25.9	4	-1E+10	1	-1E+10	1	-1E+10	1	-1E+10	1	-1E+10	1	-1E+10	1
4902549	62	C	04/28/2022	06:06	-131.610	47.459	0	319.30	0	5.6200	0	33.9140	0	26.745	0	316.392	0	78.6	4	25.7	4	-1E+10	1	-1E+10	1	-1E+10	1	-1E+10	1	-1E+10	1	-1E+10	1
4902549	62	C	04/28/2022	06:06	-131.610	47.459	0	320.20	0	5.6050	0	33.9150	0	26.747	0	317.283	0	78.1	4	25.6	4	-1E+10	1	-1E+10	1	-1E+10	1	-1E+10	1	-1E+10	1	-1E+10	1
4902549	62	C	04/28/2022	06:06	-131.610	47.459	0	321.10	0	5.5950	0	33.9170	0	26.750	0	318.174	0	77.7	4	25.4	4	-1E+10	1	-1E+10	1	-1E+10	1	-1E+10	1	-1E+10	1	-1E+10	1
4902549	62	C	04/28/2022	06:06	-131.610	47.459	0	322.00	0	5.5750	0	33.9170	0	26.753	0	319.065	0	77.2	4	25.3	4	-1E+10	1	-1E+10	1	-1E+10	1	-1E+10	1	-1E+10	1	-1E+10	1
4902549	62	C	04/28/2022	06:06	-131.610	47.459	0	322.90	0	5.5700	0	33.9170	0	26.753	0	319.956	0	76.7	4	25.1	4	-1E+10	1	-1E+10	1	-1E+10	1	-1E+10	1	-1E+10	1	-1E+10	1
4902549	62	C	04/28/2022	06:06	-131.610	47.459	0	323.80	0	5.5660	0	33.9170	0	26.754	0	320.847	0	76.0	4	24.9	4	-1E+10	1	-1E+10	1	-1E+10	1	-1E+10	1	-1E+10	1	-1E+10	1
4902549	62	C	04/28/2022	06:06	-131.610	47.459	0	324.70	0	5.5630	0	33.9160	0	26.753	0	321.739	0	75.2	4	24.6	4	-1E+10	1	-1E+10	1	-1E+10	1	-1E+10	1	-1E+10	1	-1E+10	1
4902549	62	C	04/28/2022	06:06	-131.610	47.459	0	325.60	0	5.5620	0	33.9170	0	26.754	0	322.630	0	74.4	4	24.3	4	-1E+10	1	-1E+10	1	-1E+10	1	-1E+10	1	-1E+10	1	-1E+10	1
4902549	62	C	04/28/2022	06:06	-131.610	47.459	0	326.90	0	5.5620	0	33.9230	0	26.759	0	323.917	0	73.4	4	24.0	4	-1E+10	1	-1E+10	1	-1E+10	1	-1E+10	1	-1E+10	1	-1E+10	1
4902549	62	C	04/28/2022	06:06	-131.610	47.459	0	328.30	0	5.5870	0	33.9220	0	26.755	0	325.303	0	72.5	4	23.7	4	-1E+10	1	-1E+10	1	-1E+10	1	-1E+10	1	-1E+10	1	-1E+10	1
4902549	62	C	04/28/2022	06:06	-131.610	47.459	0	329.30	0	5.5710	0	33.9340	0	26.767	0	326.293	0	72.0	4	23.6	4	-1E+10	1	-1E+10	1	-1E+10	1	-1E+10	1	-1E+10	1	-1E+10	1
4902549	62	C	04/28/2022	06:06	-131.610	47.459	0	330.20	0	5.5560	0	33.9330	0	26.768	0	327.184	0	71.8	4	23.5	4	-1E+10	1	-1E+10	1	-1E+10	1	-1E+10	1	-1E+10	1	-1E+10	1
4902549	62	C	04/28/2022	06:06	-131.610	47.459	0	331.10	0	5.5560	0	33.9340	0	26.768	0	328.075	0	71.5	4	23.4	4	-1E+10	1	-1E+10	1	-1E+10	1	-1E+10	1	-1E+10	1	-1E+10	1
4902549	62	C	04/28/2022	06:06	-131.610	47.459	0	332.00	0	5.5560	0	33.9350	0	26.769	0	328.966	0	71.2	4	23.3	4	-1E+10	1	-1E+10	1	-1E+10	1	-1E+10	1	-1E+10	1	-1E+10	1
4902549	62	C	04/28/2022	06:06	-131.610	47.459	0	332.90	0	5.5520	0	33.9350	0	26.770	0	329.857	0	70.9	4	23.2	4	-1E+10	1	-1E+10	1	-1E+10	1	-1E+10	1	-1E+10	1	-1E+10	1
4902549	62	C	04/28/2022	06:06	-131.610	47.459	0	333.90	0	5.5490	0	33.9350	0	26.770	0	330.847	0	70.6	4	23.1	4	-1E+10	1	-1E+10	1	-1E+10	1	-1E+10	1	-1E+10	1	-1E+10	1
4902549	62	C	04/28/2022	06:06	-131.610	47.459	0	334.80	0	5.5390	0	33.9380	0	26.774	0	331.738	0	70.3	4	23.0	4	-1E+10	1	-1E+10	1	-1E+10	1	-1E+10	1	-1E+10	1	-1E+10	1
4902549	62	C	04/28/2022	06:06	-131.610	47.459	0	335.70	0	5.5220	0	33.9370	0	26.775	0	332.629	0	70.1	4	22.9	4	-1E+10	1	-1E+10	1	-1E+10	1	-1E+10	1	-1E+10	1	-1E+10	1
4902549	62	C	04/28/2022	06:06	-131.610	47.459	0	336.60	0	5.5160	0	33.9390	0	26.777	0	333.520	0	69.9	4	22.8	4	-1E+10	1	-1E+10	1	-1E+10	1	-1E+10	1	-1E+10	1	-1E+10	1
4902549	62	C	04/28/2022	06:06	-131.610	47.459	0	337.50	0	5.5130	0	33.9400	0	26.778	0	334.411	0	69.8	4	22.8	4	-1E+10	1	-1E+10	1	-1E+10	1	-1E+10	1	-1E+10	1	-1E+10	1
4902549	62	C	04/28/2022	06:06	-131.610	47.459	0	338.90	0	5.5030	0	33.9390	0	26.779	0	335.797	0	69.7	4	22.8	4	-1E+10	1	-1E+10	1	-1E+10	1	-1E+10	1	-1E+10	1	-1E+10	1
4902549	62	C	04/28/2022	06:06	-131.610	47.459	0	340.30	0	5.4930	0	33.9410	0	26.782	0	337.184	0	69.5	4	22.7	4	-1E+10	1	-1E+10	1	-1E+10	1	-1E+10	1	-1E+10	1	-1E+10	1
4902549	62	C	04/28/2022	06:06	-131.610	47.459	0	341.30	0	5.4790	0	33.9400	0	26.782	0	338.174	0	69.4	4	22.7	4	-1E+10	1	-1E+10	1	-1E+10	1	-1E+10	1	-1E+10	1	-1E+10	1
4902549	62	C	04/28/2022	06:06	-131.610	47.459	0	342.20	0	5.4730	0	33.9390	0	26.782	0	339.065	0	69.3	4	22.6	4	-1E+10	1	-1E+10	1	-1E+10	1	-1E+10	1	-1E+10	1	-1E+10	1
4902549	62	C	04/28/2022	06:06	-131.610	47.459	0	343.10	0	5.4640	0	33.9390	0	26.783	0	339.956	0	69.2	4	22.6	4	-1E+10	1	-1E+10	1	-1E+10	1	-1E+10	1	-1E+10	1	-1E+10	1
4902549	62	C	04/28/2022	06:06	-131.610	47.459	0	344.00	0	5.4430	0	33.9390	0	26.786	0	340.847	0	69.1	4	22.5	4	-1E+10	1	-1E+10	1	-1E+10	1	-1E+10	1	-1E+10	1	-1E+10	1
4902549	62	C	04/28/2022	06:06	-131.610	47.459	0	344.90	0	5.4310	0	33.9380	0	26.787	0	341.738	0	69.0	4	22.5	4	-1E+10	1	-1E+10	1	-1E+10	1	-1E+10	1	-1E+10	1	-1E+10	1
4902549	62	C	04/28/2022	06:06	-131.610	47.459	0	345.90	0	5.4340	0	33.9400	0	26.788	0	342.728	0	68.9	4	22.5	4	-1E+10	1	-1E+10	1	-1E+10	1	-1E+10	1	-1E+10	1	-1E+10	1
4902549	62	C	04/28/2022	06:06	-131.610	47.459	0	346.80	0	5.4300	0	33.9410	0	26.789	0	343.619	0	68.8	4	22.4	4	-1E+10	1	-1E+10	1	-1E+10	1	-1E+10	1	-1E+10	1	-1E+10	1
4902549	62	C	04/28/2022	06:06	-131.610	47.459	0	347.70	0	5.4230	0	33.9400	0	26.789	0	344.510	0	68.7	4	22.4	4	-1E+10	1	-1E+10	1	-1E+10	1	-1E+10	1	-1E+10	1	-1E+10	1
4902549	62	C	04/28/2022	06:06	-131.610	47.459	0	348.60	0	5.4160	0	33.9400	0	26.790	0	345.401	0	68.7	4	22.4	4	-1E+10	1	-1E+10	1	-1E+10	1	-1E+10	1	-1E+10	1	-1E+10	1
4902549	62	C	04/28/2022	06:06	-131.610	47.459	0	349.60	0	5.4090	0	33.9390	0	26.790	0	346.391	0	68.5	4	22.3	4	-1E+10	1	-1E+10	1	-1E+10	1	-1E+10	1	-1E+10	1	-1E+10	1
4902549	62	C	04/28/2022	06:06	-131.610	47.459	0	352.80	0	5.3570	0	33.9390	0	26.796	0	349.558	0	68.1	4	22.2	4	-1E+10	1	-1E+10	1	-1E+10	1	-1E+10	1	-1E+10	1	-1E+10	1
4902549	62	C	04/28/2022	06:06	-131.610	47.459	0	358.10	0	5.2830	0	33.9390	0	26.805	0	354.805	0	67.7	4	22.0	4	-1E+10	1	-1E+10	1	-1E+10	1	-1E+10	1	-1E+10	1	-1E+10	1
4902549	62	C	04/28/2022	06:06	-131.610	47.459	0	362.90	0	5.2170	0	33.9350	0	26.809	0	359.557	0	67.1	4	21.8	4	-1E+10	1	-1E+10	1	-1E+10	1	-1E+10	1	-1E+10	1	-1E+10	1
4902549	62	C	04/28/2022	06:06	-131.610	47.459	0	367.80	0	5.1700	0	33.9360	0	26.816	0	364.407	0	66.2	4	21.4	4	-1E+10	1	-1E+10	1	-1E+10	1	-1E+10	1	-1E+10	1	-1E+10	1
4902549	62	C	04/28/2022	06:06	-131.610	47.459	0	372.90	0	5.1320	0	33.9370	0	26.821	0	369.456	0	65.1	4	21.1	4	-1E+10	1	-1E+10	1	-1E+10	1	-1E+10	1	-1E+10	1	-1E+10	1
4902549	62	C	04/28/2022	06:06	-131.610	47.459	0	378.10	0	5.0930	0	33.9400	0	26.828	0	374.603	0	64.3	4	20.8	4	-1E+10	1	-1E+10	1	-1E+10	1	-1E+10	1	-1E+10	1	-1E+10	1
4902549	62	C	04/28/2022	06:06	-131.610	47.459	0	383.40	0	5.0460	0	33.9400	0	26.833	0	379.849	0	62.6	4	20.2	4	-1E+10	1	-1E+10	1	-1E+10	1	-1E+10	1	-1E+10	1	-1E+10	1
4902549	62	C	04/28/2022	06:06	-131.610	47.459	0	388.20	0	5.0220	0	33.9460	0	26.841	0	384.600	0	61.3	4	19.8	4	-1E+10	1	-1E+10	1	-1E+10	1	-1E+10	1	-1E+10	1	-1E+10	1
4902549	62	C	04/28/2022	06:06	-131.610	47.459	0	393.00	0	5.0200	0	33.9470	0	26.842	0	389.351	0	59.6	4	19.3	4	-1E+10	1	-1E+10	1	-1E+10	1	-1E+10	1	-1E+10	1	-1E+10	1
4902549	62	C	04/28/2022	06:06	-131.610	47.459	0	398.20	0	5.0110	0	33.9540	0	26.848	0	394.498	0	57.4	4	18.5	4	-1E+10	1	-1E+10	1	-1E+10	1	-1E+10	1	-1E+10	1	-1E+10	1
4902549	62	C	04/28/2022	06:06	-131.610	47.459	0	403.10	0	4.9990	0	33.9590	0	26.854	0	399.348	0	55.6	4	17.9	4	-1E+10	1	-1E+10	1	-1E+10	1	-1E+10	1	-1E+10	1	-1E+10	1
4902549	62	C	04/28/2022	06:06	-131.610	47.459	0	408.00	0	5.0010	0	33.9680	0	26.861	0	404.198	0	53.3	4	17.2	4	-1E+10	1	-1E+10	1	-1E+10	1	-1E+10	1	-1E+10	1	-1E+10	1
4902549	62	C	04/28/2022	06:06	-131.610	47.459	0	413.00	0	4.9980	0	33.9760	0	26.867	0	409.146	0	52.4	4	16.9	4	-1E+10	1	-1E+10	1	-1E+10	1	-1E+10	1	-1E+10	1	-1E+10	1
4902549	62	C	04/28/2022	06:06	-131.610	47.459	0	418.10	0	4.9820	0	33.9780	0	26.871	0	414.193	0	51.7	4	16.7	4	-1E+10	1	-1E+10	1	-1E+10	1	-1E+10	1	-1E+10	1	-1E+10	1
4902549	62	C	04/28/2022	06:06	-131.610	47.459	0	423.20	0	4.9660	0	33.9800	0	26.874	0	419.241	0	50.9	4	16.4	4	-1E+10	1	-1E+10	1	-1E+10	1	-1E+10	1	-1E+10	1	-1E+10	1
4902549	62	C	04/28/2022	06:06	-131.610	47.459	0	427.90	0	4.9510	0	33.9820	0	26.878	0	423.892	0	49.8	4	16.0	4	-1E+10	1	-1E+10	1	-1E+10	1	-1E+10	1	-1E+10	1	-1E+10	1
4902549	62	C	04/28/2022	06:06	-131.610	47.459	0	432.50	0	4.9300	0	33.9880	0	26.885	0	428.444	0	48.8	4	15.7	4	-1E+10	1	-1E+10	1	-1E+10	1	-1E+10	1	-1E+10	1	-1E+10	1
4902549	62	C	04/28/2022	06:06	-131.610	47.459	0	437.90	0	4.9120	0	33.9920	0	26.890	0	433.788	0	48.0	4	15.5	4	-1E+10	1	-1E+10	1	-1E+10	1	-1E+10	1	-1E+10	1	-1E+10	1
4902549	62	C	04/28/2022	06:06	-131.610	47.459	0	443.20	0	4.8830	0	33.9940	0	26.895	0	439.032	0	47.8	4	15.4	4	-1E+10	1	-1E+10	1	-1E+10	1	-1E+10	1	-1E+10	1	-1E+10	1
4902549	62	C	04/28/2022	06:06	-131.610	47.459	0	448.20	0	4.8140	0	33.9910	0	26.900	0	443.980	0	46.5	4	15.0	4	-1E+10	1	-1E+10	1	-1E+10	1	-1E+10	1	-1E+10	1	-1E+10	1
4902549	62	C	04/28/2022	06:06	-131.610	47.459	0	453.30	0	4.7930	0	34.0000	0	26.910	0	449.026	0	44.8	4	14.4	4	-1E+10	1	-1E+10	1	-1E+10	1	-1E+10	1	-1E+10	1	-1E+10	1
4902549	62	C	04/28/2022	06:06	-131.610	47.459	0	457.90	0	4.7590	0	34.0020	0	26.915	0	453.578	0	43.3	4	13.9	4	-1E+10	1	-1E+10	1	-1E+10	1	-1E+10	1	-1E+10	1	-1E+10	1
4902549	62	C	04/28/2022	06:06	-131.610	47.459	0	462.60	0	4.7410	0	34.0130	0	26.926	0	458.228	0	41.8	4	13.4	4	-1E+10	1	-1E+10	1	-1E+10	1	-1E+10	1	-1E+10	1	-1E+10	1
4902549	62	C	04/28/2022	06:06	-131.610	47.459	0	467.70	0	4.7390	0	34.0170	0	26.929	0	463.275	0	40.3	4	12.9	4	-1E+10	1	-1E+10	1	-1E+10	1	-1E+10	1	-1E+10	1	-1E+10	1
4902549	62	C	04/28/2022	06:06	-131.610	47.459	0	472.90	0	4.6960	0	34.0230	0	26.939	0	468.420	0	39.5	4	12.7	4	-1E+10	1	-1E+10	1	-1E+10	1	-1E+10	1	-1E+10	1	-1E+10	1
4902549	62	C	04/28/2022	06:06	-131.610	47.459	0	477.80	0	4.6500	0	34.0230	0	26.944	0	473.267	0	38.0	4	12.2	4	-1E+10	1	-1E+10	1	-1E+10	1	-1E+10	1	-1E+10	1	-1E+10	1
4902549	62	C	04/28/2022	06:06	-131.610	47.459	0	482.70	0	4.6520	0	34.0310	0	26.950	0	478.115	0	36.4	4	11.7	4	-1E+10	1	-1E+10	1	-1E+10	1	-1E+10	1	-1E+10	1	-1E+10	1
4902549	62	C	04/28/2022	06:06	-131.610	47.459	0	488.10	0	4.6680	0	34.0390	0	26.955	0	483.458	0	34.5	4	11.1	4	-1E+10	1	-1E+10	1	-1E+10	1	-1E+10	1	-1E+10	1	-1E+10	1
4902549	62	C	04/28/2022	06:06	-131.610	47.459	0	493.00	0	4.6860	0	34.0490	0	26.961	0	488.305	0	33.1	4	10.6	4	-1E+10	1	-1E+10	1	-1E+10	1	-1E+10	1	-1E+10	1	-1E+10	1
4902549	62	C	04/28/2022	06:06	-131.610	47.459	0	497.90	0	4.6550	0	34.0510	0	26.966	0	493.153	0	32.1	4	10.3	4	-1E+10	1	-1E+10	1	-1E+10	1	-1E+10	1	-1E+10	1	-1E+10	1
4902549	62	C	04/28/2022	06:06	-131.610	47.459	0	503.00	0	4.6370	0	34.0610	0	26.976	0	498.198	0	31.6	4	10.1	4	-1E+10	1	-1E+10	1	-1E+10	1	-1E+10	1	-1E+10	1	-1E+10	1
4902549	62	C	04/28/2022	06:06	-131.610	47.459	0	508.00	0	4.5410	0	34.0580	0	26.984	0	503.144	0	31.4	4	10.0	4	-1E+10	1	-1E+10	1	-1E+10	1	-1E+10	1	-1E+10	1	-1E+10	1
4902549	62	C	04/28/2022	06:06	-131.610	47.459	0	513.10	0	4.4960	0	34.0610	0	26.991	0	508.189	0	30.1	4	9.6	4	-1E+10	1	-1E+10	1	-1E+10	1	-1E+10	1	-1E+10	1	-1E+10	1
4902549	62	C	04/28/2022	06:06	-131.610	47.459	0	517.80	0	4.4830	0	34.0660	0	26.997	0	512.839	0	29.0	4	9.3	4	-1E+10	1	-1E+10	1	-1E+10	1	-1E+10	1	-1E+10	1	-1E+10	1
4902549	62	C	04/28/2022	06:06	-131.610	47.459	0	522.90	0	4.4740	0	34.0690	0	27.000	0	517.884	0	26.7	4	8.5	4	-1E+10	1	-1E+10	1	-1E+10	1	-1E+10	1	-1E+10	1	-1E+10	1
4902549	62	C	04/28/2022	06:06	-131.610	47.459	0	528.00	0	4.5190	0	34.0860	0	27.009	0	522.928	0	24.9	4	8.0	4	-1E+10	1	-1E+10	1	-1E+10	1	-1E+10	1	-1E+10	1	-1E+10	1
4902549	62	C	04/28/2022	06:06	-131.610	47.459	0	533.10	0	4.4970	0	34.0930	0	27.017	0	527.973	0	24.2	4	7.7	4	-1E+10	1	-1E+10	1	-1E+10	1	-1E+10	1	-1E+10	1	-1E+10	1
4902549	62	C	04/28/2022	06:06	-131.610	47.459	0	538.20	0	4.4770	0	34.0970	0	27.022	0	533.017	0	23.8	4	7.6	4	-1E+10	1	-1E+10	1	-1E+10	1	-1E+10	1	-1E+10	1	-1E+10	1
4902549	62	C	04/28/2022	06:06	-131.610	47.459	0	542.80	0	4.4710	0	34.0980	0	27.024	0	537.567	0	23.5	4	7.5	4	-1E+10	1	-1E+10	1	-1E+10	1	-1E+10	1	-1E+10	1	-1E+10	1
4902549	62	C	04/28/2022	06:06	-131.610	47.459	0	547.60	0	4.4450	0	34.1010	0	27.029	0	542.314	0	23.3	4	7.4	4	-1E+10	1	-1E+10	1	-1E+10	1	-1E+10	1	-1E+10	1	-1E+10	1
4902549	62	C	04/28/2022	06:06	-131.610	47.459	0	552.70	0	4.3980	0	34.1010	0	27.034	0	547.358	0	22.8	4	7.3	4	-1E+10	1	-1E+10	1	-1E+10	1	-1E+10	1	-1E+10	1	-1E+10	1
4902549	62	C	04/28/2022	06:06	-131.610	47.459	0	557.70	0	4.3820	0	34.1050	0	27.039	0	552.303	0	22.1	4	7.0	4	-1E+10	1	-1E+10	1	-1E+10	1	-1E+10	1	-1E+10	1	-1E+10	1
4902549	62	C	04/28/2022	06:06	-131.610	47.459	0	563.00	0	4.3450	0	34.1090	0	27.046	0	557.545	0	21.1	4	6.7	4	-1E+10	1	-1E+10	1	-1E+10	1	-1E+10	1	-1E+10	1	-1E+10	1
4902549	62	C	04/28/2022	06:06	-131.610	47.459	0	568.10	0	4.3250	0	34.1180	0	27.055	0	562.589	0	20.1	4	6.4	4	-1E+10	1	-1E+10	1	-1E+10	1	-1E+10	1	-1E+10	1	-1E+10	1
4902549	62	C	04/28/2022	06:06	-131.610	47.459	0	572.90	0	4.3260	0	34.1220	0	27.058	0	567.336	0	19.5	4	6.2	4	-1E+10	1	-1E+10	1	-1E+10	1	-1E+10	1	-1E+10	1	-1E+10	1
4902549	62	C	04/28/2022	06:06	-131.610	47.459	0	577.90	0	4.3330	0	34.1270	0	27.062	0	572.280	0	19.0	4	6.1	4	-1E+10	1	-1E+10	1	-1E+10	1	-1E+10	1	-1E+10	1	-1E+10	1
4902549	62	C	04/28/2022	06:06	-131.610	47.459	0	582.80	0	4.3280	0	34.1300	0	27.064	0	577.126	0	18.7	4	6.0	4	-1E+10	1	-1E+10	1	-1E+10	1	-1E+10	1	-1E+10	1	-1E+10	1
4902549	62	C	04/28/2022	06:06	-131.610	47.459	0	587.90	0	4.3240	0	34.1320	0	27.067	0	582.169	0	18.4	4	5.9	4	-1E+10	1	-1E+10	1	-1E+10	1	-1E+10	1	-1E+10	1	-1E+10	1
4902549	62	C	04/28/2022	06:06	-131.610	47.459	0	593.10	0	4.3140	0	34.1340	0	27.069	0	587.311	0	18.1	4	5.8	4	-1E+10	1	-1E+10	1	-1E+10	1	-1E+10	1	-1E+10	1	-1E+10	1
4902549	62	C	04/28/2022	06:06	-131.610	47.459	0	598.30	0	4.3100	0	34.1360	0	27.071	0	592.453	0	17.8	4	5.7	4	-1E+10	1	-1E+10	1	-1E+10	1	-1E+10	1	-1E+10	1	-1E+10	1
4902549	62	C	04/28/2022	06:06	-131.610	47.459	0	603.40	0	4.3050	0	34.1380	0	27.073	0	597.496	0	17.4	4	5.5	4	-1E+10	1	-1E+10	1	-1E+10	1	-1E+10	1	-1E+10	1	-1E+10	1
4902549	62	C	04/28/2022	06:06	-131.610	47.459	0	608.20	0	4.3000	0	34.1410	0	27.076	0	602.242	0	16.9	4	5.4	4	-1E+10	1	-1E+10	1	-1E+10	1	-1E+10	1	-1E+10	1	-1E+10	1
4902549	62	C	04/28/2022	06:06	-131.610	47.459	0	613.00	0	4.2940	0	34.1450	0	27.080	0	606.988	0	16.4	4	5.2	4	-1E+10	1	-1E+10	1	-1E+10	1	-1E+10	1	-1E+10	1	-1E+10	1
4902549	62	C	04/28/2022	06:06	-131.610	47.459	0	617.90	0	4.2880	0	34.1470	0	27.083	0	611.832	0	16.0	4	5.1	4	-1E+10	1	-1E+10	1	-1E+10	1	-1E+10	1	-1E+10	1	-1E+10	1
4902549	62	C	04/28/2022	06:06	-131.610	47.459	0	623.00	0	4.2770	0	34.1510	0	27.087	0	616.875	0	15.4	4	4.9	4	-1E+10	1	-1E+10	1	-1E+10	1	-1E+10	1	-1E+10	1	-1E+10	1
4902549	62	C	04/28/2022	06:06	-131.610	47.459	0	628.10	0	4.2670	0	34.1550	0	27.091	0	621.917	0	14.9	4	4.7	4	-1E+10	1	-1E+10	1	-1E+10	1	-1E+10	1	-1E+10	1	-1E+10	1
4902549	62	C	04/28/2022	06:06	-131.610	47.459	0	632.90	0	4.2580	0	34.1580	0	27.095	0	626.663	0	14.4	4	4.6	4	-1E+10	1	-1E+10	1	-1E+10	1	-1E+10	1	-1E+10	1	-1E+10	1
4902549	62	C	04/28/2022	06:06	-131.610	47.459	0	637.70	0	4.2430	0	34.1650	0	27.102	0	631.408	0	14.0	4	4.5	4	-1E+10	1	-1E+10	1	-1E+10	1	-1E+10	1	-1E+10	1	-1E+10	1
4902549	62	C	04/28/2022	06:06	-131.610	47.459	0	643.00	0	4.2320	0	34.1690	0	27.106	0	636.648	0	13.8	4	4.4	4	-1E+10	1	-1E+10	1	-1E+10	1	-1E+10	1	-1E+10	1	-1E+10	1
4902549	62	C	04/28/2022	06:06	-131.610	47.459	0	648.00	0	4.2140	0	34.1710	0	27.110	0	641.591	0	13.4	4	4.3	4	-1E+10	1	-1E+10	1	-1E+10	1	-1E+10	1	-1E+10	1	-1E+10	1
4902549	62	C	04/28/2022	06:06	-131.610	47.459	0	652.90	0	4.2260	0	34.1760	0	27.112	0	646.435	0	13.1	4	4.2	4	-1E+10	1	-1E+10	1	-1E+10	1	-1E+10	1	-1E+10	1	-1E+10	1
4902549	62	C	04/28/2022	06:06	-131.610	47.459	0	657.90	0	4.1870	0	34.1780	0	27.118	0	651.377	0	13.5	4	4.3	4	-1E+10	1	-1E+10	1	-1E+10	1	-1E+10	1	-1E+10	1	-1E+10	1
4902549	62	C	04/28/2022	06:06	-131.610	47.459	0	662.80	0	4.1080	0	34.1750	0	27.124	0	656.221	0	13.1	4	4.2	4	-1E+10	1	-1E+10	1	-1E+10	1	-1E+10	1	-1E+10	1	-1E+10	1
4902549	62	C	04/28/2022	06:06	-131.610	47.459	0	667.80	0	4.0990	0	34.1830	0	27.131	0	661.163	0	12.6	4	4.0	4	-1E+10	1	-1E+10	1	-1E+10	1	-1E+10	1	-1E+10	1	-1E+10	1
4902549	62	C	04/28/2022	06:06	-131.610	47.459	0	672.90	0	4.1080	0	34.1890	0	27.135	0	666.204	0	12.4	4	3.9	4	-1E+10	1	-1E+10	1	-1E+10	1	-1E+10	1	-1E+10	1	-1E+10	1
4902549	62	C	04/28/2022	06:06	-131.610	47.459	0	678.00	0	4.0790	0	34.1910	0	27.140	0	671.246	0	12.5	4	4.0	4	-1E+10	1	-1E+10	1	-1E+10	1	-1E+10	1	-1E+10	1	-1E+10	1
4902549	62	C	04/28/2022	06:06	-131.610	47.459	0	682.70	0	4.0490	0	34.1890	0	27.141	0	675.891	0	12.5	4	3.9	4	-1E+10	1	-1E+10	1	-1E+10	1	-1E+10	1	-1E+10	1	-1E+10	1
4902549	62	C	04/28/2022	06:06	-131.610	47.459	0	687.90	0	4.0330	0	34.1940	0	27.147	0	681.031	0	12.5	4	3.9	4	-1E+10	1	-1E+10	1	-1E+10	1	-1E+10	1	-1E+10	1	-1E+10	1
4902549	62	C	04/28/2022	06:06	-131.610	47.459	0	693.00	0	3.9800	0	34.1940	0	27.152	0	686.071	0	12.8	4	4.1	4	-1E+10	1	-1E+10	1	-1E+10	1	-1E+10	1	-1E+10	1	-1E+10	1
4902549	62	C	04/28/2022	06:06	-131.610	47.459	0	697.70	0	3.9410	0	34.1920	0	27.155	0	690.717	0	12.8	4	4.0	4	-1E+10	1	-1E+10	1	-1E+10	1	-1E+10	1	-1E+10	1	-1E+10	1
4902549	62	C	04/28/2022	06:06	-131.610	47.459	0	702.90	0	3.9240	0	34.1940	0	27.158	0	695.856	0	12.6	4	4.0	4	-1E+10	1	-1E+10	1	-1E+10	1	-1E+10	1	-1E+10	1	-1E+10	1
4902549	62	C	04/28/2022	06:06	-131.610	47.459	0	708.20	0	3.9030	0	34.1960	0	27.162	0	701.094	0	12.2	4	3.8	4	-1E+10	1	-1E+10	1	-1E+10	1	-1E+10	1	-1E+10	1	-1E+10	1
4902549	62	C	04/28/2022	06:06	-131.610	47.459	0	713.00	0	3.9080	0	34.2020	0	27.166	0	705.838	0	11.8	4	3.7	4	-1E+10	1	-1E+10	1	-1E+10	1	-1E+10	1	-1E+10	1	-1E+10	1
4902549	62	C	04/28/2022	06:06	-131.610	47.459	0	717.90	0	3.9010	0	34.2060	0	27.170	0	710.680	0	11.5	4	3.6	4	-1E+10	1	-1E+10	1	-1E+10	1	-1E+10	1	-1E+10	1	-1E+10	1
4902549	62	C	04/28/2022	06:06	-131.610	47.459	0	722.80	0	3.8800	0	34.2100	0	27.175	0	715.522	0	11.2	4	3.5	4	-1E+10	1	-1E+10	1	-1E+10	1	-1E+10	1	-1E+10	1	-1E+10	1
4902549	62	C	04/28/2022	06:06	-131.610	47.459	0	727.80	0	3.8710	0	34.2110	0	27.177	0	720.463	0	10.9	4	3.4	4	-1E+10	1	-1E+10	1	-1E+10	1	-1E+10	1	-1E+10	1	-1E+10	1
4902549	62	C	04/28/2022	06:06	-131.610	47.459	0	732.70	0	3.8560	0	34.2160	0	27.183	0	725.305	0	10.4	4	3.3	4	-1E+10	1	-1E+10	1	-1E+10	1	-1E+10	1	-1E+10	1	-1E+10	1
4902549	62	C	04/28/2022	06:06	-131.610	47.459	0	737.70	0	3.8630	0	34.2220	0	27.187	0	730.246	0	9.8	4	3.1	4	-1E+10	1	-1E+10	1	-1E+10	1	-1E+10	1	-1E+10	1	-1E+10	1
4902549	62	C	04/28/2022	06:06	-131.610	47.459	0	742.80	0	3.8710	0	34.2330	0	27.195	0	735.286	0	9.4	4	3.0	4	-1E+10	1	-1E+10	1	-1E+10	1	-1E+10	1	-1E+10	1	-1E+10	1
4902549	62	C	04/28/2022	06:06	-131.610	47.459	0	747.80	0	3.8680	0	34.2350	0	27.197	0	740.226	0	9.0	4	2.8	4	-1E+10	1	-1E+10	1	-1E+10	1	-1E+10	1	-1E+10	1	-1E+10	1
4902549	62	C	04/28/2022	06:06	-131.610	47.459	0	752.90	0	3.8720	0	34.2450	0	27.204	0	745.266	0	8.9	4	2.8	4	-1E+10	1	-1E+10	1	-1E+10	1	-1E+10	1	-1E+10	1	-1E+10	1
4902549	62	C	04/28/2022	06:06	-131.610	47.459	0	758.00	0	3.8630	0	34.2460	0	27.206	0	750.305	0	9.1	4	2.9	4	-1E+10	1	-1E+10	1	-1E+10	1	-1E+10	1	-1E+10	1	-1E+10	1
4902549	62	C	04/28/2022	06:06	-131.610	47.459	0	763.20	0	3.8280	0	34.2450	0	27.209	0	755.442	0	9.5	4	3.0	4	-1E+10	1	-1E+10	1	-1E+10	1	-1E+10	1	-1E+10	1	-1E+10	1
4902549	62	C	04/28/2022	06:06	-131.610	47.459	0	767.90	0	3.7760	0	34.2450	0	27.214	0	760.086	0	9.7	4	3.0	4	-1E+10	1	-1E+10	1	-1E+10	1	-1E+10	1	-1E+10	1	-1E+10	1
4902549	62	C	04/28/2022	06:06	-131.610	47.459	0	772.60	0	3.7270	0	34.2440	0	27.218	0	764.730	0	9.9	4	3.1	4	-1E+10	1	-1E+10	1	-1E+10	1	-1E+10	1	-1E+10	1	-1E+10	1
4902549	62	C	04/28/2022	06:06	-131.610	47.459	0	777.80	0	3.6860	0	34.2440	0	27.222	0	769.867	0	9.9	4	3.1	4	-1E+10	1	-1E+10	1	-1E+10	1	-1E+10	1	-1E+10	1	-1E+10	1
4902549	62	C	04/28/2022	06:06	-131.610	47.459	0	783.10	0	3.6830	0	34.2450	0	27.223	0	775.103	0	9.8	4	3.1	4	-1E+10	1	-1E+10	1	-1E+10	1	-1E+10	1	-1E+10	1	-1E+10	1
4902549	62	C	04/28/2022	06:06	-131.610	47.459	0	787.90	0	3.6790	0	34.2460	0	27.224	0	779.845	0	9.7	4	3.0	4	-1E+10	1	-1E+10	1	-1E+10	1	-1E+10	1	-1E+10	1	-1E+10	1
4902549	62	C	04/28/2022	06:06	-131.610	47.459	0	792.70	0	3.6680	0	34.2470	0	27.226	0	784.587	0	9.6	4	3.0	4	-1E+10	1	-1E+10	1	-1E+10	1	-1E+10	1	-1E+10	1	-1E+10	1
4902549	62	C	04/28/2022	06:06	-131.610	47.459	0	798.10	0	3.6430	0	34.2530	0	27.234	0	789.922	0	9.4	4	2.9	4	-1E+10	1	-1E+10	1	-1E+10	1	-1E+10	1	-1E+10	1	-1E+10	1
4902549	62	C	04/28/2022	06:06	-131.610	47.459	0	803.30	0	3.6360	0	34.2560	0	27.237	0	795.059	0	9.3	4	2.9	4	-1E+10	1	-1E+10	1	-1E+10	1	-1E+10	1	-1E+10	1	-1E+10	1
4902549	62	C	04/28/2022	06:06	-131.610	47.459	0	808.20	0	3.6330	0	34.2570	0	27.238	0	799.899	0	9.2	4	2.9	4	-1E+10	1	-1E+10	1	-1E+10	1	-1E+10	1	-1E+10	1	-1E+10	1
4902549	62	C	04/28/2022	06:06	-131.610	47.459	0	812.60	0	3.6300	0	34.2580	0	27.239	0	804.245	0	9.1	4	2.8	4	-1E+10	1	-1E+10	1	-1E+10	1	-1E+10	1	-1E+10	1	-1E+10	1
4902549	62	C	04/28/2022	06:06	-131.610	47.459	0	817.90	0	3.6210	0	34.2610	0	27.242	0	809.481	0	9.0	4	2.8	4	-1E+10	1	-1E+10	1	-1E+10	1	-1E+10	1	-1E+10	1	-1E+10	1
4902549	62	C	04/28/2022	06:06	-131.610	47.459	0	823.20	0	3.5870	0	34.2660	0	27.250	0	814.716	0	8.9	4	2.8	4	-1E+10	1	-1E+10	1	-1E+10	1	-1E+10	1	-1E+10	1	-1E+10	1
4902549	62	C	04/28/2022	06:06	-131.610	47.459	0	828.00	0	3.5730	0	34.2680	0	27.253	0	819.457	0	8.8	4	2.8	4	-1E+10	1	-1E+10	1	-1E+10	1	-1E+10	1	-1E+10	1	-1E+10	1
4902549	62	C	04/28/2022	06:06	-131.610	47.459	0	832.90	0	3.5590	0	34.2690	0	27.255	0	824.297	0	8.7	4	2.7	4	-1E+10	1	-1E+10	1	-1E+10	1	-1E+10	1	-1E+10	1	-1E+10	1
4902549	62	C	04/28/2022	06:06	-131.610	47.459	0	837.80	0	3.5460	0	34.2710	0	27.258	0	829.136	0	8.6	4	2.7	4	-1E+10	1	-1E+10	1	-1E+10	1	-1E+10	1	-1E+10	1	-1E+10	1
4902549	62	C	04/28/2022	06:06	-131.610	47.459	0	842.70	0	3.5370	0	34.2720	0	27.259	0	833.976	0	8.5	4	2.6	4	-1E+10	1	-1E+10	1	-1E+10	1	-1E+10	1	-1E+10	1	-1E+10	1
4902549	62	C	04/28/2022	06:06	-131.610	47.459	0	847.60	0	3.5300	0	34.2740	0	27.262	0	838.815	0	8.4	4	2.6	4	-1E+10	1	-1E+10	1	-1E+10	1	-1E+10	1	-1E+10	1	-1E+10	1
4902549	62	C	04/28/2022	06:06	-131.610	47.459	0	852.70	0	3.5170	0	34.2770	0	27.265	0	843.852	0	8.3	4	2.6	4	-1E+10	1	-1E+10	1	-1E+10	1	-1E+10	1	-1E+10	1	-1E+10	1
4902549	62	C	04/28/2022	06:06	-131.610	47.459	0	857.80	0	3.5040	0	34.2790	0	27.268	0	848.889	0	8.2	4	2.6	4	-1E+10	1	-1E+10	1	-1E+10	1	-1E+10	1	-1E+10	1	-1E+10	1
4902549	62	C	04/28/2022	06:06	-131.610	47.459	0	863.10	0	3.4940	0	34.2820	0	27.271	0	854.123	0	8.1	4	2.5	4	-1E+10	1	-1E+10	1	-1E+10	1	-1E+10	1	-1E+10	1	-1E+10	1
4902549	62	C	04/28/2022	06:06	-131.610	47.459	0	867.80	0	3.4850	0	34.2840	0	27.274	0	858.764	0	8.0	4	2.5	4	-1E+10	1	-1E+10	1	-1E+10	1	-1E+10	1	-1E+10	1	-1E+10	1
4902549	62	C	04/28/2022	06:06	-131.610	47.459	0	872.60	0	3.4770	0	34.2860	0	27.276	0	863.504	0	8.0	4	2.5	4	-1E+10	1	-1E+10	1	-1E+10	1	-1E+10	1	-1E+10	1	-1E+10	1
4902549	62	C	04/28/2022	06:06	-131.610	47.459	0	877.80	0	3.4670	0	34.2880	0	27.279	0	868.639	0	7.9	4	2.5	4	-1E+10	1	-1E+10	1	-1E+10	1	-1E+10	1	-1E+10	1	-1E+10	1
4902549	62	C	04/28/2022	06:06	-131.610	47.459	0	882.90	0	3.4590	0	34.2900	0	27.281	0	873.676	0	7.8	4	2.4	4	-1E+10	1	-1E+10	1	-1E+10	1	-1E+10	1	-1E+10	1	-1E+10	1
4902549	62	C	04/28/2022	06:06	-131.610	47.459	0	887.80	0	3.4450	0	34.2930	0	27.285	0	878.514	0	7.8	4	2.4	4	-1E+10	1	-1E+10	1	-1E+10	1	-1E+10	1	-1E+10	1	-1E+10	1
4902549	62	C	04/28/2022	06:06	-131.610	47.459	0	892.70	0	3.4320	0	34.2960	0	27.289	0	883.353	0	7.7	4	2.4	4	-1E+10	1	-1E+10	1	-1E+10	1	-1E+10	1	-1E+10	1	-1E+10	1
4902549	62	C	04/28/2022	06:06	-131.610	47.459	0	897.70	0	3.4160	0	34.2990	0	27.293	0	888.290	0	7.6	4	2.4	4	-1E+10	1	-1E+10	1	-1E+10	1	-1E+10	1	-1E+10	1	-1E+10	1
4902549	62	C	04/28/2022	06:06	-131.610	47.459	0	902.90	0	3.4060	0	34.3020	0	27.296	0	893.424	0	7.6	4	2.4	4	-1E+10	1	-1E+10	1	-1E+10	1	-1E+10	1	-1E+10	1	-1E+10	1
4902549	62	C	04/28/2022	06:06	-131.610	47.459	0	908.10	0	3.4000	0	34.3030	0	27.297	0	898.558	0	7.5	4	2.3	4	-1E+10	1	-1E+10	1	-1E+10	1	-1E+10	1	-1E+10	1	-1E+10	1
4902549	62	C	04/28/2022	06:06	-131.610	47.459	0	912.80	0	3.3900	0	34.3060	0	27.301	0	903.199	0	7.3	4	2.3	4	-1E+10	1	-1E+10	1	-1E+10	1	-1E+10	1	-1E+10	1	-1E+10	1
4902549	62	C	04/28/2022	06:06	-131.610	47.459	0	917.60	0	3.3700	0	34.3110	0	27.307	0	907.938	0	7.2	4	2.2	4	-1E+10	1	-1E+10	1	-1E+10	1	-1E+10	1	-1E+10	1	-1E+10	1
4902549	62	C	04/28/2022	06:06	-131.610	47.459	0	922.90	0	3.3520	0	34.3160	0	27.312	0	913.170	0	7.1	4	2.2	4	-1E+10	1	-1E+10	1	-1E+10	1	-1E+10	1	-1E+10	1	-1E+10	1
4902549	62	C	04/28/2022	06:06	-131.610	47.459	0	928.20	0	3.3420	0	34.3190	0	27.316	0	918.403	0	7.1	4	2.2	4	-1E+10	1	-1E+10	1	-1E+10	1	-1E+10	1	-1E+10	1	-1E+10	1
4902549	62	C	04/28/2022	06:06	-131.610	47.459	0	933.10	0	3.3340	0	34.3210	0	27.318	0	923.240	0	7.0	4	2.2	4	-1E+10	1	-1E+10	1	-1E+10	1	-1E+10	1	-1E+10	1	-1E+10	1
4902549	62	C	04/28/2022	06:06	-131.610	47.459	0	938.10	0	3.3220	0	34.3240	0	27.322	0	928.176	0	7.0	4	2.2	4	-1E+10	1	-1E+10	1	-1E+10	1	-1E+10	1	-1E+10	1	-1E+10	1
4902549	62	C	04/28/2022	06:06	-131.610	47.459	0	943.10	0	3.3070	0	34.3280	0	27.326	0	933.112	0	7.0	4	2.2	4	-1E+10	1	-1E+10	1	-1E+10	1	-1E+10	1	-1E+10	1	-1E+10	1
4902549	62	C	04/28/2022	06:06	-131.610	47.459	0	948.20	0	3.2990	0	34.3290	0	27.328	0	938.147	0	7.0	4	2.2	4	-1E+10	1	-1E+10	1	-1E+10	1	-1E+10	1	-1E+10	1	-1E+10	1
4902549	62	C	04/28/2022	06:06	-131.610	47.459	0	953.30	0	3.2940	0	34.3300	0	27.329	0	943.181	0	7.0	4	2.2	4	-1E+10	1	-1E+10	1	-1E+10	1	-1E+10	1	-1E+10	1	-1E+10	1
4902549	62	C	04/28/2022	06:06	-131.610	47.459	0	957.90	0	3.2870	0	34.3320	0	27.332	0	947.722	0	7.0	4	2.2	4	-1E+10	1	-1E+10	1	-1E+10	1	-1E+10	1	-1E+10	1	-1E+10	1
4902549	62	C	04/28/2022	06:06	-131.610	47.459	0	962.60	0	3.2830	0	34.3330	0	27.333	0	952.362	0	7.0	4	2.2	4	-1E+10	1	-1E+10	1	-1E+10	1	-1E+10	1	-1E+10	1	-1E+10	1
4902549	62	C	04/28/2022	06:06	-131.610	47.459	0	968.10	0	3.2720	0	34.3360	0	27.336	0	957.791	0	6.9	4	2.2	4	-1E+10	1	-1E+10	1	-1E+10	1	-1E+10	1	-1E+10	1	-1E+10	1
4902549	62	C	04/28/2022	06:06	-131.610	47.459	0	973.20	0	3.2660	0	34.3370	0	27.338	0	962.825	0	6.9	4	2.1	4	-1E+10	1	-1E+10	1	-1E+10	1	-1E+10	1	-1E+10	1	-1E+10	1
4902549	62	C	04/28/2022	06:06	-131.610	47.459	0	978.00	0	3.2530	0	34.3400	0	27.341	0	967.562	0	6.9	4	2.1	4	-1E+10	1	-1E+10	1	-1E+10	1	-1E+10	1	-1E+10	1	-1E+10	1
4902549	62	C	04/28/2022	06:06	-131.610	47.459	0	982.90	0	3.2460	0	34.3420	0	27.344	0	972.399	0	6.8	4	2.1	4	-1E+10	1	-1E+10	1	-1E+10	1	-1E+10	1	-1E+10	1	-1E+10	1
4902549	62	C	04/28/2022	06:06	-131.610	47.459	0	987.90	0	3.2390	0	34.3450	0	27.347	0	977.334	0	6.8	4	2.1	4	-1E+10	1	-1E+10	1	-1E+10	1	-1E+10	1	-1E+10	1	-1E+10	1
4902549	62	C	04/28/2022	06:06	-131.610	47.459	0	993.00	0	3.2380	0	34.3450	0	27.347	0	982.367	0	6.8	4	2.1	4	-1E+10	1	-1E+10	1	-1E+10	1	-1E+10	1	-1E+10	1	-1E+10	1
4902549	62	C	04/28/2022	06:06	-131.610	47.459	0	998.10	0	3.2370	0	34.3460	0	27.348	0	987.400	0	6.8	4	2.1	4	-1E+10	1	-1E+10	1	-1E+10	1	-1E+10	1	-1E+10	1	-1E+10	1
4902549	62	C	04/28/2022	06:06	-131.610	47.459	0	1005.50	0	3.2310	0	34.3480	0	27.350	0	994.704	0	6.7	4	2.1	4	-1E+10	1	-1E+10	1	-1E+10	1	-1E+10	1	-1E+10	1	-1E+10	1
4902549	62	C	04/28/2022	06:06	-131.610	47.459	0	1015.20	0	3.2190	0	34.3520	0	27.354	0	1004.276	0	6.7	4	2.1	4	-1E+10	1	-1E+10	1	-1E+10	1	-1E+10	1	-1E+10	1	-1E+10	1
4902549	62	C	04/28/2022	06:06	-131.610	47.459	0	1025.10	0	3.2030	0	34.3570	0	27.360	0	1014.046	0	6.7	4	2.1	4	-1E+10	1	-1E+10	1	-1E+10	1	-1E+10	1	-1E+10	1	-1E+10	1
4902549	62	C	04/28/2022	06:06	-131.610	47.459	0	1035.20	0	3.1910	0	34.3600	0	27.363	0	1024.012	0	6.7	4	2.1	4	-1E+10	1	-1E+10	1	-1E+10	1	-1E+10	1	-1E+10	1	-1E+10	1
4902549	62	C	04/28/2022	06:06	-131.610	47.459	0	1045.40	0	3.1700	0	34.3660	0	27.370	0	1034.077	0	6.7	4	2.1	4	-1E+10	1	-1E+10	1	-1E+10	1	-1E+10	1	-1E+10	1	-1E+10	1
4902549	62	C	04/28/2022	06:06	-131.610	47.459	0	1055.40	0	3.1480	0	34.3710	0	27.376	0	1043.944	0	6.7	4	2.1	4	-1E+10	1	-1E+10	1	-1E+10	1	-1E+10	1	-1E+10	1	-1E+10	1
4902549	62	C	04/28/2022	06:06	-131.610	47.459	0	1065.50	0	3.1410	0	34.3730	0	27.378	0	1053.909	0	6.7	4	2.1	4	-1E+10	1	-1E+10	1	-1E+10	1	-1E+10	1	-1E+10	1	-1E+10	1
4902549	62	C	04/28/2022	06:06	-131.610	47.459	0	1075.40	0	3.1280	0	34.3760	0	27.382	0	1063.676	0	6.8	4	2.1	4	-1E+10	1	-1E+10	1	-1E+10	1	-1E+10	1	-1E+10	1	-1E+10	1
4902549	62	C	04/28/2022	06:06	-131.610	47.459	0	1085.30	0	3.1160	0	34.3790	0	27.386	0	1073.443	0	6.8	4	2.1	4	-1E+10	1	-1E+10	1	-1E+10	1	-1E+10	1	-1E+10	1	-1E+10	1
4902549	62	C	04/28/2022	06:06	-131.610	47.459	0	1095.40	0	3.1070	0	34.3810	0	27.388	0	1083.406	0	6.9	4	2.1	4	-1E+10	1	-1E+10	1	-1E+10	1	-1E+10	1	-1E+10	1	-1E+10	1
4902549	62	C	04/28/2022	06:06	-131.610	47.459	0	1105.00	0	3.0890	0	34.3850	0	27.393	0	1092.876	0	6.9	4	2.1	4	-1E+10	1	-1E+10	1	-1E+10	1	-1E+10	1	-1E+10	1	-1E+10	1
4902549	62	C	04/28/2022	06:06	-131.610	47.459	0	1115.30	0	3.0730	0	34.3890	0	27.398	0	1103.036	0	7.0	4	2.2	4	-1E+10	1	-1E+10	1	-1E+10	1	-1E+10	1	-1E+10	1	-1E+10	1
4902549	62	C	04/28/2022	06:06	-131.610	47.459	0	1125.40	0	3.0680	0	34.3900	0	27.399	0	1112.998	0	7.0	4	2.2	4	-1E+10	1	-1E+10	1	-1E+10	1	-1E+10	1	-1E+10	1	-1E+10	1
4902549	62	C	04/28/2022	06:06	-131.610	47.459	0	1135.40	0	3.0470	0	34.3930	0	27.403	0	1122.861	0	7.1	4	2.2	4	-1E+10	1	-1E+10	1	-1E+10	1	-1E+10	1	-1E+10	1	-1E+10	1
4902549	62	C	04/28/2022	06:06	-131.610	47.459	0	1145.50	0	3.0340	0	34.3960	0	27.407	0	1132.823	0	7.2	4	2.2	4	-1E+10	1	-1E+10	1	-1E+10	1	-1E+10	1	-1E+10	1	-1E+10	1
4902549	62	C	04/28/2022	06:06	-131.610	47.459	0	1155.40	0	3.0310	0	34.3970	0	27.408	0	1142.586	0	7.3	4	2.3	4	-1E+10	1	-1E+10	1	-1E+10	1	-1E+10	1	-1E+10	1	-1E+10	1
4902549	62	C	04/28/2022	06:06	-131.610	47.459	0	1165.50	0	3.0070	0	34.4010	0	27.414	0	1152.546	0	7.5	4	2.3	4	-1E+10	1	-1E+10	1	-1E+10	1	-1E+10	1	-1E+10	1	-1E+10	1
4902549	62	C	04/28/2022	06:06	-131.610	47.459	0	1175.30	0	2.9810	0	34.4060	0	27.420	0	1162.210	0	7.7	4	2.4	4	-1E+10	1	-1E+10	1	-1E+10	1	-1E+10	1	-1E+10	1	-1E+10	1
4902549	62	C	04/28/2022	06:06	-131.610	47.459	0	1185.30	0	2.9610	0	34.4110	0	27.426	0	1172.071	0	7.8	4	2.4	4	-1E+10	1	-1E+10	1	-1E+10	1	-1E+10	1	-1E+10	1	-1E+10	1
4902549	62	C	04/28/2022	06:06	-131.610	47.459	0	1195.60	0	2.9430	0	34.4140	0	27.430	0	1182.227	0	8.0	4	2.5	4	-1E+10	1	-1E+10	1	-1E+10	1	-1E+10	1	-1E+10	1	-1E+10	1
4902549	62	C	04/28/2022	06:06	-131.610	47.459	0	1205.40	0	2.9220	0	34.4190	0	27.436	0	1191.890	0	8.3	4	2.5	4	-1E+10	1	-1E+10	1	-1E+10	1	-1E+10	1	-1E+10	1	-1E+10	1
4902549	62	C	04/28/2022	06:06	-131.610	47.459	0	1215.30	0	2.9100	0	34.4210	0	27.439	0	1201.651	0	8.5	4	2.6	4	-1E+10	1	-1E+10	1	-1E+10	1	-1E+10	1	-1E+10	1	-1E+10	1
4902549	62	C	04/28/2022	06:06	-131.610	47.459	0	1225.40	0	2.8930	0	34.4240	0	27.443	0	1211.608	0	8.7	4	2.7	4	-1E+10	1	-1E+10	1	-1E+10	1	-1E+10	1	-1E+10	1	-1E+10	1
4902549	62	C	04/28/2022	06:06	-131.610	47.459	0	1235.60	0	2.8650	0	34.4290	0	27.449	0	1221.664	0	9.1	4	2.8	4	-1E+10	1	-1E+10	1	-1E+10	1	-1E+10	1	-1E+10	1	-1E+10	1
4902549	62	C	04/28/2022	06:06	-131.610	47.459	0	1245.70	0	2.8230	0	34.4350	0	27.458	0	1231.620	0	9.6	4	3.0	4	-1E+10	1	-1E+10	1	-1E+10	1	-1E+10	1	-1E+10	1	-1E+10	1
4902549	62	C	04/28/2022	06:06	-131.610	47.459	0	1255.50	0	2.7970	0	34.4400	0	27.464	0	1241.281	0	10.1	4	3.1	4	-1E+10	1	-1E+10	1	-1E+10	1	-1E+10	1	-1E+10	1	-1E+10	1
4902549	62	C	04/28/2022	06:06	-131.610	47.459	0	1265.50	0	2.7750	0	34.4440	0	27.469	0	1251.138	0	10.5	4	3.2	4	-1E+10	1	-1E+10	1	-1E+10	1	-1E+10	1	-1E+10	1	-1E+10	1
4902549	62	C	04/28/2022	06:06	-131.610	47.459	0	1275.70	0	2.7410	0	34.4490	0	27.476	0	1261.191	0	10.9	4	3.3	4	-1E+10	1	-1E+10	1	-1E+10	1	-1E+10	1	-1E+10	1	-1E+10	1
4902549	62	C	04/28/2022	06:06	-131.610	47.459	0	1285.50	0	2.7210	0	34.4520	0	27.480	0	1270.850	0	11.2	4	3.4	4	-1E+10	1	-1E+10	1	-1E+10	1	-1E+10	1	-1E+10	1	-1E+10	1
4902549	62	C	04/28/2022	06:06	-131.610	47.459	0	1295.30	0	2.7120	0	34.4540	0	27.483	0	1280.509	0	11.3	4	3.5	4	-1E+10	1	-1E+10	1	-1E+10	1	-1E+10	1	-1E+10	1	-1E+10	1
4902549	62	C	04/28/2022	06:06	-131.610	47.459	0	1305.50	0	2.6910	0	34.4560	0	27.486	0	1290.561	0	11.5	4	3.5	4	-1E+10	1	-1E+10	1	-1E+10	1	-1E+10	1	-1E+10	1	-1E+10	1
4902549	62	C	04/28/2022	06:06	-131.610	47.459	0	1315.70	0	2.6840	0	34.4570	0	27.488	0	1300.613	0	11.7	4	3.6	4	-1E+10	1	-1E+10	1	-1E+10	1	-1E+10	1	-1E+10	1	-1E+10	1
4902549	62	C	04/28/2022	06:06	-131.610	47.459	0	1325.10	0	2.6770	0	34.4590	0	27.490	0	1309.876	0	12.1	4	3.7	4	-1E+10	1	-1E+10	1	-1E+10	1	-1E+10	1	-1E+10	1	-1E+10	1
4902549	62	C	04/28/2022	06:06	-131.610	47.459	0	1335.20	0	2.6700	0	34.4620	0	27.493	0	1319.828	0	12.5	4	3.8	4	-1E+10	1	-1E+10	1	-1E+10	1	-1E+10	1	-1E+10	1	-1E+10	1
4902549	62	C	04/28/2022	06:06	-131.610	47.459	0	1345.30	0	2.6560	0	34.4650	0	27.497	0	1329.780	0	12.8	4	3.9	4	-1E+10	1	-1E+10	1	-1E+10	1	-1E+10	1	-1E+10	1	-1E+10	1
4902549	62	C	04/28/2022	06:06	-131.610	47.459	0	1355.30	0	2.6430	0	34.4660	0	27.499	0	1339.633	0	13.0	4	4.0	4	-1E+10	1	-1E+10	1	-1E+10	1	-1E+10	1	-1E+10	1	-1E+10	1
4902549	62	C	04/28/2022	06:06	-131.610	47.459	0	1365.30	0	2.6350	0	34.4670	0	27.500	0	1349.486	0	13.1	4	4.0	4	-1E+10	1	-1E+10	1	-1E+10	1	-1E+10	1	-1E+10	1	-1E+10	1
4902549	62	C	04/28/2022	06:06	-131.610	47.459	0	1375.20	0	2.6170	0	34.4690	0	27.503	0	1359.239	0	13.5	4	4.1	4	-1E+10	1	-1E+10	1	-1E+10	1	-1E+10	1	-1E+10	1	-1E+10	1
4902549	62	C	04/28/2022	06:06	-131.610	47.459	0	1385.30	0	2.6000	0	34.4710	0	27.506	0	1369.189	0	14.0	4	4.3	4	-1E+10	1	-1E+10	1	-1E+10	1	-1E+10	1	-1E+10	1	-1E+10	1
4902549	62	C	04/28/2022	06:06	-131.610	47.459	0	1395.40	0	2.5780	0	34.4750	0	27.512	0	1379.139	0	14.4	4	4.4	4	-1E+10	1	-1E+10	1	-1E+10	1	-1E+10	1	-1E+10	1	-1E+10	1
4902549	62	C	04/28/2022	06:06	-131.610	47.459	0	1405.70	0	2.5700	0	34.4760	0	27.513	0	1389.285	0	14.9	4	4.5	4	-1E+10	1	-1E+10	1	-1E+10	1	-1E+10	1	-1E+10	1	-1E+10	1
4902549	62	C	04/28/2022	06:06	-131.610	47.459	0	1415.20	0	2.5440	0	34.4800	0	27.519	0	1398.642	0	15.5	4	4.7	4	-1E+10	1	-1E+10	1	-1E+10	1	-1E+10	1	-1E+10	1	-1E+10	1
4902549	62	C	04/28/2022	06:06	-131.610	47.459	0	1425.00	0	2.5240	0	34.4840	0	27.523	0	1408.295	0	16.1	4	4.9	4	-1E+10	1	-1E+10	1	-1E+10	1	-1E+10	1	-1E+10	1	-1E+10	1
4902549	62	C	04/28/2022	06:06	-131.610	47.459	0	1435.20	0	2.5050	0	34.4870	0	27.527	0	1418.341	0	16.6	4	5.1	4	-1E+10	1	-1E+10	1	-1E+10	1	-1E+10	1	-1E+10	1	-1E+10	1
4902549	62	C	04/28/2022	06:06	-131.610	47.459	0	1445.40	0	2.4910	0	34.4890	0	27.530	0	1428.387	0	17.1	4	5.2	4	-1E+10	1	-1E+10	1	-1E+10	1	-1E+10	1	-1E+10	1	-1E+10	1
4902549	62	C	04/28/2022	06:06	-131.610	47.459	0	1455.50	0	2.4800	0	34.4910	0	27.533	0	1438.333	0	17.4	4	5.3	4	-1E+10	1	-1E+10	1	-1E+10	1	-1E+10	1	-1E+10	1	-1E+10	1
4902549	62	C	04/28/2022	06:06	-131.610	47.459	0	1465.30	0	2.4690	0	34.4930	0	27.535	0	1447.984	0	17.7	4	5.4	4	-1E+10	1	-1E+10	1	-1E+10	1	-1E+10	1	-1E+10	1	-1E+10	1
4902549	62	C	04/28/2022	06:06	-131.610	47.459	0	1475.30	0	2.4620	0	34.4940	0	27.537	0	1457.832	0	18.1	4	5.5	4	-1E+10	1	-1E+10	1	-1E+10	1	-1E+10	1	-1E+10	1	-1E+10	1
4902549	62	C	04/28/2022	06:06	-131.610	47.459	0	1485.60	0	2.4490	0	34.4960	0	27.540	0	1467.974	0	18.5	4	5.6	4	-1E+10	1	-1E+10	1	-1E+10	1	-1E+10	1	-1E+10	1	-1E+10	1
4902549	62	C	04/28/2022	06:06	-131.610	47.459	0	1495.80	0	2.4370	0	34.4980	0	27.542	0	1478.017	0	19.0	4	5.8	4	-1E+10	1	-1E+10	1	-1E+10	1	-1E+10	1	-1E+10	1	-1E+10	1
4902549	62	C	04/28/2022	06:06	-131.610	47.459	0	1505.50	0	2.4260	0	34.4990	0	27.544	0	1487.568	0	19.3	4	5.9	4	-1E+10	1	-1E+10	1	-1E+10	1	-1E+10	1	-1E+10	1	-1E+10	1
4902549	62	C	04/28/2022	06:06	-131.610	47.459	0	1515.30	0	2.4210	0	34.5000	0	27.545	0	1497.216	0	19.8	4	6.0	4	-1E+10	1	-1E+10	1	-1E+10	1	-1E+10	1	-1E+10	1	-1E+10	1
4902549	62	C	04/28/2022	06:06	-131.610	47.459	0	1525.50	0	2.4040	0	34.5030	0	27.549	0	1507.258	0	20.4	4	6.2	4	-1E+10	1	-1E+10	1	-1E+10	1	-1E+10	1	-1E+10	1	-1E+10	1
4902549	62	C	04/28/2022	06:06	-131.610	47.459	0	1535.40	0	2.3920	0	34.5050	0	27.552	0	1517.004	0	20.9	4	6.4	4	-1E+10	1	-1E+10	1	-1E+10	1	-1E+10	1	-1E+10	1	-1E+10	1
4902549	62	C	04/28/2022	06:06	-131.610	47.459	0	1545.00	0	2.3830	0	34.5070	0	27.554	0	1526.455	0	21.5	4	6.5	4	-1E+10	1	-1E+10	1	-1E+10	1	-1E+10	1	-1E+10	1	-1E+10	1
4902549	62	C	04/28/2022	06:06	-131.610	47.459	0	1555.40	0	2.3700	0	34.5090	0	27.557	0	1536.692	0	22.2	4	6.7	4	-1E+10	1	-1E+10	1	-1E+10	1	-1E+10	1	-1E+10	1	-1E+10	1
4902549	62	C	04/28/2022	06:06	-131.610	47.459	0	1565.50	0	2.3580	0	34.5110	0	27.560	0	1546.634	0	22.9	4	7.0	4	-1E+10	1	-1E+10	1	-1E+10	1	-1E+10	1	-1E+10	1	-1E+10	1
4902549	62	C	04/28/2022	06:06	-131.610	47.459	0	1575.20	0	2.3480	0	34.5130	0	27.562	0	1556.181	0	23.7	4	7.2	4	-1E+10	1	-1E+10	1	-1E+10	1	-1E+10	1	-1E+10	1	-1E+10	1
4902549	62	C	04/28/2022	06:06	-131.610	47.459	0	1585.30	0	2.3470	0	34.5160	0	27.565	0	1566.122	0	24.6	4	7.5	4	-1E+10	1	-1E+10	1	-1E+10	1	-1E+10	1	-1E+10	1	-1E+10	1
4902549	62	C	04/28/2022	06:06	-131.610	47.459	0	1595.50	0	2.3420	0	34.5180	0	27.567	0	1576.161	0	25.4	4	7.7	4	-1E+10	1	-1E+10	1	-1E+10	1	-1E+10	1	-1E+10	1	-1E+10	1
4902549	62	C	04/28/2022	06:06	-131.610	47.459	0	1605.40	0	2.3420	0	34.5210	0	27.569	0	1585.904	0	26.2	4	7.9	4	-1E+10	1	-1E+10	1	-1E+10	1	-1E+10	1	-1E+10	1	-1E+10	1
4902549	62	C	04/28/2022	06:06	-131.610	47.459	0	1615.60	0	2.3180	0	34.5240	0	27.574	0	1595.941	0	26.8	4	8.2	4	-1E+10	1	-1E+10	1	-1E+10	1	-1E+10	1	-1E+10	1	-1E+10	1
4902549	62	C	04/28/2022	06:06	-131.610	47.459	0	1625.50	0	2.2980	0	34.5250	0	27.576	0	1605.683	0	27.2	4	8.3	4	-1E+10	1	-1E+10	1	-1E+10	1	-1E+10	1	-1E+10	1	-1E+10	1
4902549	62	C	04/28/2022	06:06	-131.610	47.459	0	1635.50	0	2.2850	0	34.5270	0	27.579	0	1615.523	0	27.7	4	8.4	4	-1E+10	1	-1E+10	1	-1E+10	1	-1E+10	1	-1E+10	1	-1E+10	1
4902549	62	C	04/28/2022	06:06	-131.610	47.459	0	1645.60	0	2.2650	0	34.5280	0	27.581	0	1625.461	0	28.4	4	8.6	4	-1E+10	1	-1E+10	1	-1E+10	1	-1E+10	1	-1E+10	1	-1E+10	1
4902549	62	C	04/28/2022	06:06	-131.610	47.459	0	1655.40	0	2.2490	0	34.5310	0	27.585	0	1635.104	0	29.5	4	8.9	4	-1E+10	1	-1E+10	1	-1E+10	1	-1E+10	1	-1E+10	1	-1E+10	1
4902549	62	C	04/28/2022	06:06	-131.610	47.459	0	1665.40	0	2.2290	0	34.5340	0	27.589	0	1644.942	0	30.8	4	9.3	4	-1E+10	1	-1E+10	1	-1E+10	1	-1E+10	1	-1E+10	1	-1E+10	1
4902549	62	C	04/28/2022	06:06	-131.610	47.459	0	1675.60	0	2.2230	0	34.5380	0	27.593	0	1654.977	0	31.8	4	9.7	4	-1E+10	1	-1E+10	1	-1E+10	1	-1E+10	1	-1E+10	1	-1E+10	1
4902549	62	C	04/28/2022	06:06	-131.610	47.459	0	1685.60	0	2.2040	0	34.5400	0	27.596	0	1664.815	0	32.2	4	9.8	4	-1E+10	1	-1E+10	1	-1E+10	1	-1E+10	1	-1E+10	1	-1E+10	1
4902549	62	C	04/28/2022	06:06	-131.610	47.459	0	1695.10	0	2.1850	0	34.5410	0	27.598	0	1674.160	0	32.8	4	9.9	4	-1E+10	1	-1E+10	1	-1E+10	1	-1E+10	1	-1E+10	1	-1E+10	1
4902549	62	C	04/28/2022	06:06	-131.610	47.459	0	1705.10	0	2.1730	0	34.5430	0	27.601	0	1683.997	0	33.2	4	10.1	4	-1E+10	1	-1E+10	1	-1E+10	1	-1E+10	1	-1E+10	1	-1E+10	1
4902549	62	C	04/28/2022	06:06	-131.610	47.459	0	1715.00	0	2.1630	0	34.5440	0	27.603	0	1693.735	0	33.8	4	10.2	4	-1E+10	1	-1E+10	1	-1E+10	1	-1E+10	1	-1E+10	1	-1E+10	1
4902549	62	C	04/28/2022	06:06	-131.610	47.459	0	1725.30	0	2.1500	0	34.5460	0	27.605	0	1703.866	0	34.4	4	10.4	4	-1E+10	1	-1E+10	1	-1E+10	1	-1E+10	1	-1E+10	1	-1E+10	1
4902549	62	C	04/28/2022	06:06	-131.610	47.459	0	1735.50	0	2.1410	0	34.5470	0	27.607	0	1713.898	0	35.0	4	10.6	4	-1E+10	1	-1E+10	1	-1E+10	1	-1E+10	1	-1E+10	1	-1E+10	1
4902549	62	C	04/28/2022	06:06	-131.610	47.459	0	1745.40	0	2.1360	0	34.5490	0	27.609	0	1723.634	0	35.6	4	10.8	4	-1E+10	1	-1E+10	1	-1E+10	1	-1E+10	1	-1E+10	1	-1E+10	1
4902549	62	C	04/28/2022	06:06	-131.610	47.459	0	1755.60	0	2.1350	0	34.5500	0	27.610	0	1733.666	0	36.0	4	10.9	4	-1E+10	1	-1E+10	1	-1E+10	1	-1E+10	1	-1E+10	1	-1E+10	1
4902549	62	C	04/28/2022	06:06	-131.610	47.459	0	1765.60	0	2.1200	0	34.5510	0	27.612	0	1743.500	0	36.6	4	11.1	4	-1E+10	1	-1E+10	1	-1E+10	1	-1E+10	1	-1E+10	1	-1E+10	1
4902549	62	C	04/28/2022	06:06	-131.610	47.459	0	1775.20	0	2.1110	0	34.5530	0	27.614	0	1752.940	0	37.6	4	11.4	4	-1E+10	1	-1E+10	1	-1E+10	1	-1E+10	1	-1E+10	1	-1E+10	1
4902549	62	C	04/28/2022	06:06	-131.610	47.459	0	1785.10	0	2.1020	0	34.5560	0	27.617	0	1762.675	0	38.0	4	11.5	4	-1E+10	1	-1E+10	1	-1E+10	1	-1E+10	1	-1E+10	1	-1E+10	1
4902549	62	C	04/28/2022	06:06	-131.610	47.459	0	1795.30	0	2.1000	0	34.5570	0	27.618	0	1772.704	0	38.3	4	11.6	4	-1E+10	1	-1E+10	1	-1E+10	1	-1E+10	1	-1E+10	1	-1E+10	1
4902549	62	C	04/28/2022	06:06	-131.610	47.459	0	1805.60	0	2.0960	0	34.5570	0	27.619	0	1782.831	0	38.8	4	11.7	4	-1E+10	1	-1E+10	1	-1E+10	1	-1E+10	1	-1E+10	1	-1E+10	1
4902549	62	C	04/28/2022	06:06	-131.610	47.459	0	1815.70	0	2.0870	0	34.5590	0	27.621	0	1792.761	0	39.4	4	11.9	4	-1E+10	1	-1E+10	1	-1E+10	1	-1E+10	1	-1E+10	1	-1E+10	1
4902549	62	C	04/28/2022	06:06	-131.610	47.459	0	1825.40	0	2.0820	0	34.5600	0	27.622	0	1802.298	0	39.9	4	12.0	4	-1E+10	1	-1E+10	1	-1E+10	1	-1E+10	1	-1E+10	1	-1E+10	1
4902549	62	C	04/28/2022	06:06	-131.610	47.459	0	1835.40	0	2.0760	0	34.5620	0	27.625	0	1812.128	0	40.4	4	12.2	4	-1E+10	1	-1E+10	1	-1E+10	1	-1E+10	1	-1E+10	1	-1E+10	1
4902549	62	C	04/28/2022	06:06	-131.610	47.459	0	1845.30	0	2.0680	0	34.5620	0	27.625	0	1821.860	0	40.9	4	12.4	4	-1E+10	1	-1E+10	1	-1E+10	1	-1E+10	1	-1E+10	1	-1E+10	1
4902549	62	C	04/28/2022	06:06	-131.610	47.459	0	1855.50	0	2.0550	0	34.5630	0	27.627	0	1831.887	0	41.4	4	12.5	4	-1E+10	1	-1E+10	1	-1E+10	1	-1E+10	1	-1E+10	1	-1E+10	1
4902549	62	C	04/28/2022	06:06	-131.610	47.459	0	1865.70	0	2.0460	0	34.5640	0	27.629	0	1841.913	0	42.0	4	12.7	4	-1E+10	1	-1E+10	1	-1E+10	1	-1E+10	1	-1E+10	1	-1E+10	1
4902549	62	C	04/28/2022	06:06	-131.610	47.459	0	1875.50	0	2.0390	0	34.5650	0	27.630	0	1851.545	0	42.4	4	12.8	4	-1E+10	1	-1E+10	1	-1E+10	1	-1E+10	1	-1E+10	1	-1E+10	1
4902549	62	C	04/28/2022	06:06	-131.610	47.459	0	1885.40	0	2.0370	0	34.5660	0	27.631	0	1861.276	0	43.0	4	13.0	4	-1E+10	1	-1E+10	1	-1E+10	1	-1E+10	1	-1E+10	1	-1E+10	1
4902549	62	C	04/28/2022	06:06	-131.610	47.459	0	1895.40	0	2.0330	0	34.5680	0	27.633	0	1871.104	0	43.5	4	13.1	4	-1E+10	1	-1E+10	1	-1E+10	1	-1E+10	1	-1E+10	1	-1E+10	1
4902549	62	C	04/28/2022	06:06	-131.610	47.459	0	1905.30	0	2.0300	0	34.5690	0	27.634	0	1880.833	0	44.1	4	13.3	4	-1E+10	1	-1E+10	1	-1E+10	1	-1E+10	1	-1E+10	1	-1E+10	1
4902549	62	C	04/28/2022	06:06	-131.610	47.459	0	1915.20	0	2.0240	0	34.5710	0	27.636	0	1890.562	0	44.5	4	13.4	4	-1E+10	1	-1E+10	1	-1E+10	1	-1E+10	1	-1E+10	1	-1E+10	1
4902549	62	C	04/28/2022	06:06	-131.610	47.459	0	1925.20	0	2.0220	0	34.5720	0	27.637	0	1900.389	0	44.9	4	13.5	4	-1E+10	1	-1E+10	1	-1E+10	1	-1E+10	1	-1E+10	1	-1E+10	1
4902549	62	C	04/28/2022	06:06	-131.610	47.459	0	1935.20	0	2.0130	0	34.5730	0	27.639	0	1910.215	0	45.5	4	13.7	4	-1E+10	1	-1E+10	1	-1E+10	1	-1E+10	1	-1E+10	1	-1E+10	1
4902549	62	C	04/28/2022	06:06	-131.610	47.459	0	1945.20	0	2.0020	0	34.5740	0	27.641	0	1920.041	0	45.9	4	13.8	4	-1E+10	1	-1E+10	1	-1E+10	1	-1E+10	1	-1E+10	1	-1E+10	1
4902549	62	C	04/28/2022	06:06	-131.610	47.459	0	1955.10	0	1.9950	0	34.5750	0	27.642	0	1929.768	0	46.2	4	13.9	4	-1E+10	1	-1E+10	1	-1E+10	1	-1E+10	1	-1E+10	1	-1E+10	1
4902549	62	C	04/28/2022	06:06	-131.610	47.459	0	1965.40	0	1.9890	0	34.5760	0	27.643	0	1939.888	0	46.8	4	14.1	4	-1E+10	1	-1E+10	1	-1E+10	1	-1E+10	1	-1E+10	1	-1E+10	1
4902549	62	C	04/28/2022	06:06	-131.610	47.459	0	1976.00	0	1.9780	0	34.5770	0	27.645	0	1950.302	0	47.2	4	14.2	4	-1E+10	1	-1E+10	1	-1E+10	1	-1E+10	1	-1E+10	1	-1E+10	1
4902549	62	C	04/28/2022	06:06	-131.610	47.459	0	1980.70	0	1.9680	0	34.5780	0	27.647	0	1954.919	0	47.4	4	14.3	4	-1E+10	1	-1E+10	1	-1E+10	1	-1E+10	1	-1E+10	1	-1E+10	1
4902549	62	C	04/28/2022	06:06	-131.610	47.459	0																										
4902549	63	C	05/08/2022	11:03	-131.687	47.470	0	0.30	0	8.8170	0	32.2750	0	25.013	0	0.297	0	279.0	4	97.1	4	-1E+10	1	-1E+10	1	-1E+10	1	-1E+10	1	-1E+10	1	-1E+10	1
4902549	63	C	05/08/2022	11:03	-131.687	47.470	0	0.80	0	8.8180	0	32.2740	0	25.012	0	0.793	0	279.1	4	97.1	4	-1E+10	1	-1E+10	1	-1E+10	1	-1E+10	1	-1E+10	1	-1E+10	1
4902549	63	C	05/08/2022	11:03	-131.687	47.470	0	2.00	0	8.8170	0	32.2750	0	25.013	0	1.983	0	279.0	4	97.1	4	-1E+10	1	-1E+10	1	-1E+10	1	-1E+10	1	-1E+10	1	-1E+10	1
4902549	63	C	05/08/2022	11:03	-131.687	47.470	0	2.90	0	8.8160	0	32.2780	0	25.016	0	2.876	0	-1e10	1	-1e10	1	-1E+10	1	-1E+10	1	-1E+10	1	-1E+10	1	-1E+10	1	-1E+10	1
4902549	63	C	05/08/2022	11:03	-131.687	47.470	0	3.10	0	8.8163	0	32.2778	0	25.016	0	3.074	0	278.9	4	97.1	4	-1E+10	1	-1E+10	1	-1E+10	1	-1E+10	1	-1E+10	1	-1E+10	1
4902549	63	C	05/08/2022	11:03	-131.687	47.470	0	4.10	0	8.8180	0	32.2770	0	25.015	0	4.066	0	-1e10	1	-1e10	1	-1E+10	1	-1E+10	1	-1E+10	1	-1E+10	1	-1E+10	1	-1E+10	1
4902549	63	C	05/08/2022	11:03	-131.687	47.470	0	4.30	0	8.8184	0	32.2770	0	25.015	0	4.264	0	278.9	4	97.1	4	-1E+10	1	-1E+10	1	-1E+10	1	-1E+10	1	-1E+10	1	-1E+10	1
4902549	63	C	05/08/2022	11:03	-131.687	47.470	0	5.00	0	8.8198	0	32.2770	0	25.015	0	4.958	0	278.9	4	97.0	4	-1E+10	1	-1E+10	1	-1E+10	1	-1E+10	1	-1E+10	1	-1E+10	1
4902549	63	C	05/08/2022	11:03	-131.687	47.470	0	5.10	0	8.8200	0	32.2770	0	25.015	0	5.057	0	-1e10	1	-1e10	1	-1E+10	1	-1E+10	1	-1E+10	1	-1E+10	1	-1E+10	1	-1E+10	1
4902549	63	C	05/08/2022	11:03	-131.687	47.470	0	5.50	0	8.8196	0	32.2770	0	25.015	0	5.454	0	278.8	4	97.0	4	-1E+10	1	-1E+10	1	-1E+10	1	-1E+10	1	-1E+10	1	-1E+10	1
4902549	63	C	05/08/2022	11:03	-131.687	47.470	0	6.20	0	8.8190	0	32.2770	0	25.015	0	6.148	0	278.8	4	97.0	4	-1E+10	1	-1E+10	1	-1E+10	1	-1E+10	1	-1E+10	1	-1E+10	1
4902549	63	C	05/08/2022	11:03	-131.687	47.470	0	6.90	0	8.8180	0	32.2770	0	25.015	0	6.842	0	-1e10	1	-1e10	1	-1E+10	1	-1E+10	1	-1E+10	1	-1E+10	1	-1E+10	1	-1E+10	1
4902549	63	C	05/08/2022	11:03	-131.687	47.470	0	7.10	0	8.8180	0	32.2770	0	25.015	0	7.041	0	278.7	4	97.0	4	-1E+10	1	-1E+10	1	-1E+10	1	-1E+10	1	-1E+10	1	-1E+10	1
4902549	63	C	05/08/2022	11:03	-131.687	47.470	0	8.00	0	8.8180	0	32.2770	0	25.015	0	7.933	0	278.7	4	97.0	4	-1E+10	1	-1E+10	1	-1E+10	1	-1E+10	1	-1E+10	1	-1E+10	1
4902549	63	C	05/08/2022	11:03	-131.687	47.470	0	8.90	0	8.8190	0	32.2770	0	25.015	0	8.826	0	278.6	4	97.0	4	-1E+10	1	-1E+10	1	-1E+10	1	-1E+10	1	-1E+10	1	-1E+10	1
4902549	63	C	05/08/2022	11:03	-131.687	47.470	0	9.70	0	8.8190	0	32.2770	0	25.015	0	9.619	0	278.6	4	96.9	4	-1E+10	1	-1E+10	1	-1E+10	1	-1E+10	1	-1E+10	1	-1E+10	1
4902549	63	C	05/08/2022	11:03	-131.687	47.470	0	10.00	0	8.8188	0	32.2770	0	25.015	0	9.916	0	278.6	4	96.9	4	-1E+10	1	-1E+10	1	-1E+10	1	-1E+10	1	-1E+10	1	-1E+10	1
4902549	63	C	05/08/2022	11:03	-131.687	47.470	0	10.90	0	8.8180	0	32.2770	0	25.015	0	10.809	0	278.5	4	96.9	4	-1E+10	1	-1E+10	1	-1E+10	1	-1E+10	1	-1E+10	1	-1E+10	1
4902549	63	C	05/08/2022	11:03	-131.687	47.470	0	11.80	0	8.8200	0	32.2760	0	25.014	0	11.701	0	278.5	4	96.9	4	-1E+10	1	-1E+10	1	-1E+10	1	-1E+10	1	-1E+10	1	-1E+10	1
4902549	63	C	05/08/2022	11:03	-131.687	47.470	0	12.80	0	8.8190	0	32.2760	0	25.014	0	12.693	0	278.5	4	96.9	4	-1E+10	1	-1E+10	1	-1E+10	1	-1E+10	1	-1E+10	1	-1E+10	1
4902549	63	C	05/08/2022	11:03	-131.687	47.470	0	13.90	0	8.8180	0	32.2770	0	25.015	0	13.784	0	278.5	4	96.9	4	-1E+10	1	-1E+10	1	-1E+10	1	-1E+10	1	-1E+10	1	-1E+10	1
4902549	63	C	05/08/2022	11:03	-131.687	47.470	0	15.10	0	8.8190	0	32.2770	0	25.015	0	14.973	0	278.5	4	96.9	4	-1E+10	1	-1E+10	1	-1E+10	1	-1E+10	1	-1E+10	1	-1E+10	1
4902549	63	C	05/08/2022	11:03	-131.687	47.470	0	16.00	0	8.8190	0	32.2770	0	25.015	0	15.866	0	278.5	4	96.9	4	-1E+10	1	-1E+10	1	-1E+10	1	-1E+10	1	-1E+10	1	-1E+10	1
4902549	63	C	05/08/2022	11:03	-131.687	47.470	0	17.00	0	8.8190	0	32.2770	0	25.015	0	16.857	0	278.5	4	96.9	4	-1E+10	1	-1E+10	1	-1E+10	1	-1E+10	1	-1E+10	1	-1E+10	1
4902549	63	C	05/08/2022	11:03	-131.687	47.470	0	18.00	0	8.8190	0	32.2770	0	25.015	0	17.849	0	278.4	4	96.9	4	-1E+10	1	-1E+10	1	-1E+10	1	-1E+10	1	-1E+10	1	-1E+10	1
4902549	63	C	05/08/2022	11:03	-131.687	47.470	0	19.00	0	8.8200	0	32.2770	0	25.015	0	18.841	0	278.5	4	96.9	4	-1E+10	1	-1E+10	1	-1E+10	1	-1E+10	1	-1E+10	1	-1E+10	1
4902549	63	C	05/08/2022	11:03	-131.687	47.470	0	20.10	0	8.8200	0	32.2770	0	25.015	0	19.931	0	278.5	4	96.9	4	-1E+10	1	-1E+10	1	-1E+10	1	-1E+10	1	-1E+10	1	-1E+10	1
4902549	63	C	05/08/2022	11:03	-131.687	47.470	0	21.10	0	8.8210	0	32.2770	0	25.015	0	20.923	0	278.5	4	96.9	4	-1E+10	1	-1E+10	1	-1E+10	1	-1E+10	1	-1E+10	1	-1E+10	1
4902549	63	C	05/08/2022	11:03	-131.687	47.470	0	22.10	0	8.8180	0	32.2770	0	25.015	0	21.914	0	278.5	4	96.9	4	-1E+10	1	-1E+10	1	-1E+10	1	-1E+10	1	-1E+10	1	-1E+10	1
4902549	63	C	05/08/2022	11:03	-131.687	47.470	0	23.30	0	8.8000	0	32.2810	0	25.021	0	23.104	0	278.5	4	96.9	4	-1E+10	1	-1E+10	1	-1E+10	1	-1E+10	1	-1E+10	1	-1E+10	1
4902549	63	C	05/08/2022	11:03	-131.687	47.470	0	24.20	0	8.8140	0	32.2780	0	25.017	0	23.997	0	278.5	4	96.9	4	-1E+10	1	-1E+10	1	-1E+10	1	-1E+10	1	-1E+10	1	-1E+10	1
4902549	63	C	05/08/2022	11:03	-131.687	47.470	0	24.80	0	8.8140	0	32.2770	0	25.016	0	24.592	0	278.5	4	96.9	4	-1E+10	1	-1E+10	1	-1E+10	1	-1E+10	1	-1E+10	1	-1E+10	1
4902549	63	C	05/08/2022	11:03	-131.687	47.470	0	26.10	0	8.7890	0	32.2800	0	25.022	0	25.881	0	278.6	4	96.9	4	-1E+10	1	-1E+10	1	-1E+10	1	-1E+10	1	-1E+10	1	-1E+10	1
4902549	63	C	05/08/2022	11:03	-131.687	47.470	0	27.20	0	8.7770	0	32.2820	0	25.025	0	26.971	0	278.6	4	96.9	4	-1E+10	1	-1E+10	1	-1E+10	1	-1E+10	1	-1E+10	1	-1E+10	1
4902549	63	C	05/08/2022	11:03	-131.687	47.470	0	27.90	0	8.7710	0	32.2830	0	25.027	0	27.665	0	278.6	4	96.9	4	-1E+10	1	-1E+10	1	-1E+10	1	-1E+10	1	-1E+10	1	-1E+10	1
4902549	63	C	05/08/2022	11:03	-131.687	47.470	0	29.10	0	8.7630	0	32.2850	0	25.030	0	28.855	0	278.5	4	96.8	4	-1E+10	1	-1E+10	1	-1E+10	1	-1E+10	1	-1E+10	1	-1E+10	1
4902549	63	C	05/08/2022	11:03	-131.687	47.470	0	29.90	0	8.7640	0	32.2820	0	25.027	0	29.648	0	278.5	4	96.8	4	-1E+10	1	-1E+10	1	-1E+10	1	-1E+10	1	-1E+10	1	-1E+10	1
4902549	63	C	05/08/2022	11:03	-131.687	47.470	0	31.20	0	8.7040	0	32.2900	0	25.043	0	30.937	0	278.6	4	96.7	4	-1E+10	1	-1E+10	1	-1E+10	1	-1E+10	1	-1E+10	1	-1E+10	1
4902549	63	C	05/08/2022	11:03	-131.687	47.470	0	31.90	0	8.6830	0	32.2920	0	25.048	0	31.631	0	278.6	4	96.7	4	-1E+10	1	-1E+10	1	-1E+10	1	-1E+10	1	-1E+10	1	-1E+10	1
4902549	63	C	05/08/2022	11:03	-131.687	47.470	0	33.10	0	8.6470	0	32.2950	0	25.055	0	32.821	0	278.6	4	96.6	4	-1E+10	1	-1E+10	1	-1E+10	1	-1E+10	1	-1E+10	1	-1E+10	1
4902549	63	C	05/08/2022	11:03	-131.687	47.470	0	33.90	0	8.6440	0	32.2960	0	25.057	0	33.614	0	278.5	4	96.6	4	-1E+10	1	-1E+10	1	-1E+10	1	-1E+10	1	-1E+10	1	-1E+10	1
4902549	63	C	05/08/2022	11:03	-131.687	47.470	0	35.10	0	8.6300	0	32.2970	0	25.060	0	34.804	0	278.3	4	96.5	4	-1E+10	1	-1E+10	1	-1E+10	1	-1E+10	1	-1E+10	1	-1E+10	1
4902549	63	C	05/08/2022	11:03	-131.687	47.470	0	35.80	0	8.6340	0	32.2940	0	25.057	0	35.498	0	278.3	4	96.4	4	-1E+10	1	-1E+10	1	-1E+10	1	-1E+10	1	-1E+10	1	-1E+10	1
4902549	63	C	05/08/2022	11:03	-131.687	47.470	0	36.80	0	8.6130	0	32.2980	0	25.063	0	36.490	0	278.1	4	96.3	4	-1E+10	1	-1E+10	1	-1E+10	1	-1E+10	1	-1E+10	1	-1E+10	1
4902549	63	C	05/08/2022	11:03	-131.687	47.470	0	37.80	0	8.6170	0	32.2940	0	25.059	0	37.481	0	277.9	4	96.3	4	-1E+10	1	-1E+10	1	-1E+10	1	-1E+10	1	-1E+10	1	-1E+10	1
4902549	63	C	05/08/2022	11:03	-131.687	47.470	0	38.70	0	8.6010	0	32.2960	0	25.063	0	38.374	0	277.8	4	96.2	4	-1E+10	1	-1E+10	1	-1E+10	1	-1E+10	1	-1E+10	1	-1E+10	1
4902549	63	C	05/08/2022	11:03	-131.687	47.470	0	39.70	0	8.5830	0	32.2960	0	25.066	0	39.365	0	277.7	4	96.1	4	-1E+10	1	-1E+10	1	-1E+10	1	-1E+10	1	-1E+10	1	-1E+10	1
4902549	63	C	05/08/2022	11:03	-131.687	47.470	0	40.70	0	8.5700	0	32.2940	0	25.066	0	40.356	0	277.5	4	96.0	4	-1E+10	1	-1E+10	1	-1E+10	1	-1E+10	1	-1E+10	1	-1E+10	1
4902549	63	C	05/08/2022	11:03	-131.687	47.470	0	41.70	0	8.5650	0	32.2940	0	25.067	0	41.348	0	277.3	4	96.0	4	-1E+10	1	-1E+10	1	-1E+10	1	-1E+10	1	-1E+10	1	-1E+10	1
4902549	63	C	05/08/2022	11:03	-131.687	47.470	0	42.70	0	8.5610	0	32.2940	0	25.068	0	42.339	0	277.1	4	95.9	4	-1E+10	1	-1E+10	1	-1E+10	1	-1E+10	1	-1E+10	1	-1E+10	1
4902549	63	C	05/08/2022	11:03	-131.687	47.470	0	43.70	0	8.5480	0	32.2940	0	25.070	0	43.331	0	277.0	4	95.8	4	-1E+10	1	-1E+10	1	-1E+10	1	-1E+10	1	-1E+10	1	-1E+10	1
4902549	63	C	05/08/2022	11:03	-131.687	47.470	0	44.70	0	8.5370	0	32.2930	0	25.071	0	44.322	0	276.7	4	95.7	4	-1E+10	1	-1E+10	1	-1E+10	1	-1E+10	1	-1E+10	1	-1E+10	1
4902549	63	C	05/08/2022	11:03	-131.687	47.470	0	45.70	0	8.5240	0	32.2930	0	25.072	0	45.314	0	276.7	4	95.7	4	-1E+10	1	-1E+10	1	-1E+10	1	-1E+10	1	-1E+10	1	-1E+10	1
4902549	63	C	05/08/2022	11:03	-131.687	47.470	0	46.80	0	8.5120	0	32.2910	0	25.073	0	46.404	0	276.7	4	95.6	4	-1E+10	1	-1E+10	1	-1E+10	1	-1E+10	1	-1E+10	1	-1E+10	1
4902549	63	C	05/08/2022	11:03	-131.687	47.470	0	47.80	0	8.5100	0	32.2920	0	25.074	0	47.396	0	276.4	4	95.6	4	-1E+10	1	-1E+10	1	-1E+10	1	-1E+10	1	-1E+10	1	-1E+10	1
4902549	63	C	05/08/2022	11:03	-131.687	47.470	0	48.80	0	8.5080	0	32.2910	0	25.073	0	48.387	0	276.3	4	95.5	4	-1E+10	1	-1E+10	1	-1E+10	1	-1E+10	1	-1E+10	1	-1E+10	1
4902549	63	C	05/08/2022	11:03	-131.687	47.470	0	49.90	0	8.5040	0	32.2920	0	25.075	0	49.478	0	276.1	4	95.4	4	-1E+10	1	-1E+10	1	-1E+10	1	-1E+10	1	-1E+10	1	-1E+10	1
4902549	63	C	05/08/2022	11:03	-131.687	47.470	0	50.90	0	8.5000	0	32.2920	0	25.075	0	50.469	0	276.0	4	95.4	4	-1E+10	1	-1E+10	1	-1E+10	1	-1E+10	1	-1E+10	1	-1E+10	1
4902549	63	C	05/08/2022	11:03	-131.687	47.470	0	51.90	0	8.4970	0	32.2920	0	25.076	0	51.461	0	275.8	4	95.3	4	-1E+10	1	-1E+10	1	-1E+10	1	-1E+10	1	-1E+10	1	-1E+10	1
4902549	63	C	05/08/2022	11:03	-131.687	47.470	0	53.00	0	8.4950	0	32.2920	0	25.076	0	52.551	0	275.7	4	95.2	4	-1E+10	1	-1E+10	1	-1E+10	1	-1E+10	1	-1E+10	1	-1E+10	1
4902549	63	C	05/08/2022	11:03	-131.687	47.470	0	54.00	0	8.4910	0	32.2920	0	25.077	0	53.542	0	275.4	4	95.2	4	-1E+10	1	-1E+10	1	-1E+10	1	-1E+10	1	-1E+10	1	-1E+10	1
4902549	63	C	05/08/2022	11:03	-131.687	47.470	0	55.10	0	8.4840	0	32.2930	0	25.079	0	54.633	0	275.3	4	95.1	4	-1E+10	1	-1E+10	1	-1E+10	1	-1E+10	1	-1E+10	1	-1E+10	1
4902549	63	C	05/08/2022	11:03	-131.687	47.470	0	56.10	0	8.4810	0	32.2930	0	25.079	0	55.624	0	275.0	4	95.0	4	-1E+10	1	-1E+10	1	-1E+10	1	-1E+10	1	-1E+10	1	-1E+10	1
4902549	63	C	05/08/2022	11:03	-131.687	47.470	0	57.00	0	8.4780	0	32.2930	0	25.080	0	56.517	0	274.7	4	94.9	4	-1E+10	1	-1E+10	1	-1E+10	1	-1E+10	1	-1E+10	1	-1E+10	1
4902549	63	C	05/08/2022	11:03	-131.687	47.470	0	57.70	0	8.4730	0	32.2930	0	25.080	0	57.211	0	274.6	4	94.8	4	-1E+10	1	-1E+10	1	-1E+10	1	-1E+10	1	-1E+10	1	-1E+10	1
4902549	63	C	05/08/2022	11:03	-131.687	47.470	0	58.80	0	8.4600	0	32.2940	0	25.083	0	58.301	0	274.2	4	94.7	4	-1E+10	1	-1E+10	1	-1E+10	1	-1E+10	1	-1E+10	1	-1E+10	1
4902549	63	C	05/08/2022	11:03	-131.687	47.470	0	59.80	0	8.4490	0	32.2940	0	25.085	0	59.292	0	273.7	4	94.5	4	-1E+10	1	-1E+10	1	-1E+10	1	-1E+10	1	-1E+10	1	-1E+10	1
4902549	63	C	05/08/2022	11:03	-131.687	47.470	0	60.90	0	8.4420	0	32.2930	0	25.085	0	60.383	0	273.3	4	94.3	4	-1E+10	1	-1E+10	1	-1E+10	1	-1E+10	1	-1E+10	1	-1E+10	1
4902549	63	C	05/08/2022	11:03	-131.687	47.470	0	61.90	0	8.4180	0	32.2920	0	25.088	0	61.374	0	273.0	4	94.2	4	-1E+10	1	-1E+10	1	-1E+10	1	-1E+10	1	-1E+10	1	-1E+10	1
4902549	63	C	05/08/2022	11:03	-131.687	47.470	0	63.00	0	8.3950	0	32.2920	0	25.091	0	62.465	0	272.7	4	94.0	4	-1E+10	1	-1E+10	1	-1E+10	1	-1E+10	1	-1E+10	1	-1E+10	1
4902549	63	C	05/08/2022	11:03	-131.687	47.470	0	64.10	0	8.3790	0	32.2910	0	25.093	0	63.555	0	272.3	4	93.8	4	-1E+10	1	-1E+10	1	-1E+10	1	-1E+10	1	-1E+10	1	-1E+10	1
4902549	63	C	05/08/2022	11:03	-131.687	47.470	0	65.00	0	8.3660	0	32.2920	0	25.095	0	64.448	0	272.1	4	93.7	4	-1E+10	1	-1E+10	1	-1E+10	1	-1E+10	1	-1E+10	1	-1E+10	1
4902549	63	C	05/08/2022	11:03	-131.687	47.470	0	65.70	0	8.3490	0	32.2930	0	25.099	0	65.141	0	271.8	4	93.6	4	-1E+10	1	-1E+10	1	-1E+10	1	-1E+10	1	-1E+10	1	-1E+10	1
4902549	63	C	05/08/2022	11:03	-131.687	47.470	0	66.90	0	8.3220	0	32.2920	0	25.102	0	66.331	0	271.5	4	93.4	4	-1E+10	1	-1E+10	1	-1E+10	1	-1E+10	1	-1E+10	1	-1E+10	1
4902549	63	C	05/08/2022	11:03	-131.687	47.470	0	68.00	0	8.2900	0	32.2950	0	25.109	0	67.422	0	271.2	4	93.3	4	-1E+10	1	-1E+10	1	-1E+10	1	-1E+10	1	-1E+10	1	-1E+10	1
4902549	63	C	05/08/2022	11:03	-131.687	47.470	0	69.00	0	8.2640	0	32.2960	0	25.114	0	68.413	0	270.9	4	93.1	4	-1E+10	1	-1E+10	1	-1E+10	1	-1E+10	1	-1E+10	1	-1E+10	1
4902549	63	C	05/08/2022	11:03	-131.687	47.470	0	70.10	0	8.2600	0	32.2960	0	25.114	0	69.503	0	270.4	4	93.0	4	-1E+10	1	-1E+10	1	-1E+10	1	-1E+10	1	-1E+10	1	-1E+10	1
4902549	63	C	05/08/2022	11:03	-131.687	47.470	0	71.10	0	8.2390	0	32.2980	0	25.119	0	70.495	0	270.0	4	92.8	4	-1E+10	1	-1E+10	1	-1E+10	1	-1E+10	1	-1E+10	1	-1E+10	1
4902549	63	C	05/08/2022	11:03	-131.687	47.470	0	72.00	0	8.2260	0	32.3000	0	25.122	0	71.387	0	269.8	4	92.7	4	-1E+10	1	-1E+10	1	-1E+10	1	-1E+10	1	-1E+10	1	-1E+10	1
4902549	63	C	05/08/2022	11:03	-131.687	47.470	0	72.70	0	8.2110	0	32.3000	0	25.125	0	72.081	0	269.3	4	92.5	4	-1E+10	1	-1E+10	1	-1E+10	1	-1E+10	1	-1E+10	1	-1E+10	1
4902549	63	C	05/08/2022	11:03	-131.687	47.470	0	73.80	0	8.1920	0	32.3030	0	25.130	0	73.171	0	268.6	4	92.2	4	-1E+10	1	-1E+10	1	-1E+10	1	-1E+10	1	-1E+10	1	-1E+10	1
4902549	63	C	05/08/2022	11:03	-131.687	47.470	0	74.80	0	8.1830	0	32.3050	0	25.133	0	74.162	0	268.0	4	92.0	4	-1E+10	1	-1E+10	1	-1E+10	1	-1E+10	1	-1E+10	1	-1E+10	1
4902549	63	C	05/08/2022	11:03	-131.687	47.470	0	75.90	0	8.1710	0	32.3060	0	25.135	0	75.253	0	267.2	4	91.7	4	-1E+10	1	-1E+10	1	-1E+10	1	-1E+10	1	-1E+10	1	-1E+10	1
4902549	63	C	05/08/2022	11:03	-131.687	47.470	0	76.90	0	8.1630	0	32.3090	0	25.139	0	76.244	0	266.3	4	91.4	4	-1E+10	1	-1E+10	1	-1E+10	1	-1E+10	1	-1E+10	1	-1E+10	1
4902549	63	C	05/08/2022	11:03	-131.687	47.470	0	77.90	0	8.1550	0	32.3160	0	25.145	0	77.235	0	265.4	4	91.0	4	-1E+10	1	-1E+10	1	-1E+10	1	-1E+10	1	-1E+10	1	-1E+10	1
4902549	63	C	05/08/2022	11:03	-131.687	47.470	0	78.90	0	8.1470	0	32.3190	0	25.149	0	78.227	0	264.5	4	90.7	4	-1E+10	1	-1E+10	1	-1E+10	1	-1E+10	1	-1E+10	1	-1E+10	1
4902549	63	C	05/08/2022	11:03	-131.687	47.470	0	79.90	0	8.1410	0	32.3230	0	25.153	0	79.218	0	263.4	4	90.3	4	-1E+10	1	-1E+10	1	-1E+10	1	-1E+10	1	-1E+10	1	-1E+10	1
4902549	63	C	05/08/2022	11:03	-131.687	47.470	0	81.00	0	8.1260	0	32.3340	0	25.164	0	80.308	0	262.5	4	90.0	4	-1E+10	1	-1E+10	1	-1E+10	1	-1E+10	1	-1E+10	1	-1E+10	1
4902549	63	C	05/08/2022	11:03	-131.687	47.470	0	82.00	0	8.1220	0	32.3380	0	25.168	0	81.300	0	261.4	4	89.6	4	-1E+10	1	-1E+10	1	-1E+10	1	-1E+10	1	-1E+10	1	-1E+10	1
4902549	63	C	05/08/2022	11:03	-131.687	47.470	0	83.10	0	8.1130	0	32.3420	0	25.172	0	82.390	0	266.8	4	91.5	4	-1E+10	1	-1E+10	1	-1E+10	1	-1E+10	1	-1E+10	1	-1E+10	1
4902549	63	C	05/08/2022	11:03	-131.687	47.470	0	83.90	0	8.1080	0	32.3440	0	25.174	0	83.183	0	265.9	4	91.1	4	-1E+10	1	-1E+10	1	-1E+10	1	-1E+10	1	-1E+10	1	-1E+10	1
4902549	63	C	05/08/2022	11:03	-131.687	47.470	0	84.70	0	8.0970	0	32.3490	0	25.180	0	83.976	0	265.0	4	90.8	4	-1E+10	1	-1E+10	1	-1E+10	1	-1E+10	1	-1E+10	1	-1E+10	1
4902549	63	C	05/08/2022	11:03	-131.687	47.470	0	85.80	0	8.0770	0	32.3590	0	25.191	0	85.066	0	263.8	4	90.3	4	-1E+10	1	-1E+10	1	-1E+10	1	-1E+10	1	-1E+10	1	-1E+10	1
4902549	63	C	05/08/2022	11:03	-131.687	47.470	0	86.90	0	8.0650	0	32.3650	0	25.197	0	86.157	0	262.4	4	89.8	4	-1E+10	1	-1E+10	1	-1E+10	1	-1E+10	1	-1E+10	1	-1E+10	1
4902549	63	C	05/08/2022	11:03	-131.687	47.470	0	88.00	0	8.0560	0	32.3710	0	25.203	0	87.247	0	260.7	4	89.2	4	-1E+10	1	-1E+10	1	-1E+10	1	-1E+10	1	-1E+10	1	-1E+10	1
4902549	63	C	05/08/2022	11:03	-131.687	47.470	0	89.10	0	8.0440	0	32.3800	0	25.212	0	88.338	0	259.0	4	88.6	4	-1E+10	1	-1E+10	1	-1E+10	1	-1E+10	1	-1E+10	1	-1E+10	1
4902549	63	C	05/08/2022	11:03	-131.687	47.470	0	90.20	0	8.0340	0	32.3940	0	25.224	0	89.428	0	257.3	4	88.1	4	-1E+10	1	-1E+10	1	-1E+10	1	-1E+10	1	-1E+10	1	-1E+10	1
4902549	63	C	05/08/2022	11:03	-131.687	47.470	0	91.00	0	8.0300	0	32.4010	0	25.230	0	90.221	0	255.8	4	87.5	4	-1E+10	1	-1E+10	1	-1E+10	1	-1E+10	1	-1E+10	1	-1E+10	1
4902549	63	C	05/08/2022	11:03	-131.687	47.470	0	91.90	0	8.0270	0	32.4060	0	25.235	0	91.113	0	254.4	4	87.1	4	-1E+10	1	-1E+10	1	-1E+10	1	-1E+10	1	-1E+10	1	-1E+10	1
4902549	63	C	05/08/2022	11:03	-131.687	47.470	0	92.80	0	8.0220	0	32.4130	0	25.241	0	92.005	0	252.8	4	86.5	4	-1E+10	1	-1E+10	1	-1E+10	1	-1E+10	1	-1E+10	1	-1E+10	1
4902549	63	C	05/08/2022	11:03	-131.687	47.470	0	93.90	0	8.0130	0	32.4230	0	25.250	0	93.095	0	251.2	4	85.9	4	-1E+10	1	-1E+10	1	-1E+10	1	-1E+10	1	-1E+10	1	-1E+10	1
4902549	63	C	05/08/2022	11:03	-131.687	47.470	0	94.90	0	7.9960	0	32.4310	0	25.259	0	94.087	0	249.2	4	85.2	4	-1E+10	1	-1E+10	1	-1E+10	1	-1E+10	1	-1E+10	1	-1E+10	1
4902549	63	C	05/08/2022	11:03	-131.687	47.470	0	95.80	0	7.9860	0	32.4350	0	25.264	0	94.979	0	247.5	4	84.6	4	-1E+10	1	-1E+10	1	-1E+10	1	-1E+10	1	-1E+10	1	-1E+10	1
4902549	63	C	05/08/2022	11:03	-131.687	47.470	0	96.80	0	7.9720	0	32.4420	0	25.271	0	95.970	0	245.8	4	84.0	4	-1E+10	1	-1E+10	1	-1E+10	1	-1E+10	1	-1E+10	1	-1E+10	1
4902549	63	C	05/08/2022	11:03	-131.687	47.470	0	97.80	0	7.9260	0	32.4690	0	25.299	0	96.961	0	244.1	4	83.4	4	-1E+10	1	-1E+10	1	-1E+10	1	-1E+10	1	-1E+10	1	-1E+10	1
4902549	63	C	05/08/2022	11:03	-131.687	47.470	0	98.90	0	7.8680	0	32.5050	0	25.335	0	98.051	0	242.0	4	82.6	4	-1E+10	1	-1E+10	1	-1E+10	1	-1E+10	1	-1E+10	1	-1E+10	1
4902549	63	C	05/08/2022	11:03	-131.687	47.470	0	100.00	0	7.8380	0	32.5250	0	25.355	0	99.142	0	239.9	4	81.8	4	-1E+10	1	-1E+10	1	-1E+10	1	-1E+10	1	-1E+10	1	-1E+10	1
4902549	63	C	05/08/2022	11:03	-131.687	47.470	0	101.20	0	7.7910	0	32.5670	0	25.395	0	100.331	0	238.6	4	81.3	4	-1E+10	1	-1E+10	1	-1E+10	1	-1E+10	1	-1E+10	1	-1E+10	1
4902549	63	C	05/08/2022	11:03	-131.687	47.470	0	102.10	0	7.5820	0	32.6300	0	25.474	0	101.223	0	238.5	4	80.9	4	-1E+10	1	-1E+10	1	-1E+10	1	-1E+10	1	-1E+10	1	-1E+10	1
4902549	63	C	05/08/2022	11:03	-131.687	47.470	0	102.90	0	7.5330	0	32.6020	0	25.459	0	102.016	0	237.5	4	80.5	4	-1E+10	1	-1E+10	1	-1E+10	1	-1E+10	1	-1E+10	1	-1E+10	1
4902549	63	C	05/08/2022	11:03	-131.687	47.470	0	104.10	0	7.3950	0	32.6120	0	25.486	0	103.205	0	234.6	4	79.3	4	-1E+10	1	-1E+10	1	-1E+10	1	-1E+10	1	-1E+10	1	-1E+10	1
4902549	63	C	05/08/2022	11:03	-131.687	47.470	0	104.90	0	7.3610	0	32.6060	0	25.486	0	103.998	0	231.7	4	78.2	4	-1E+10	1	-1E+10	1	-1E+10	1	-1E+10	1	-1E+10	1	-1E+10	1
4902549	63	C	05/08/2022	11:03	-131.687	47.470	0	105.90	0	7.3240	0	32.6290	0	25.509	0	104.990	0	227.4	4	76.7	4	-1E+10	1	-1E+10	1	-1E+10	1	-1E+10	1	-1E+10	1	-1E+10	1
4902549	63	C	05/08/2022	11:03	-131.687	47.470	0	107.00	0	7.3420	0	32.6840	0	25.550	0	106.080	0	220.5	4	74.5	4	-1E+10	1	-1E+10	1	-1E+10	1	-1E+10	1	-1E+10	1	-1E+10	1
4902549	63	C	05/08/2022	11:03	-131.687	47.470	0	107.90	0	7.3970	0	32.7610	0	25.603	0	106.972	0	215.1	4	72.8	4	-1E+10	1	-1E+10	1	-1E+10	1	-1E+10	1	-1E+10	1	-1E+10	1
4902549	63	C	05/08/2022	11:03	-131.687	47.470	0	108.80	0	7.4140	0	32.7960	0	25.628	0	107.864	0	211.9	4	71.7	4	-1E+10	1	-1E+10	1	-1E+10	1	-1E+10	1	-1E+10	1	-1E+10	1
4902549	63	C	05/08/2022	11:03	-131.687	47.470	0	109.80	0	7.4170	0	32.8220	0	25.648	0	108.855	0	208.0	4	70.4	4	-1E+10	1	-1E+10	1	-1E+10	1	-1E+10	1	-1E+10	1	-1E+10	1
4902549	63	C	05/08/2022	11:03	-131.687	47.470	0	110.90	0	7.4370	0	32.8460	0	25.664	0	109.945	0	203.4	4	68.9	4	-1E+10	1	-1E+10	1	-1E+10	1	-1E+10	1	-1E+10	1	-1E+10	1
4902549	63	C	05/08/2022	11:03	-131.687	47.470	0	112.20	0	7.4780	0	32.8790	0	25.684	0	111.234	0	198.3	4	67.3	4	-1E+10	1	-1E+10	1	-1E+10	1	-1E+10	1	-1E+10	1	-1E+10	1
4902549	63	C	05/08/2022	11:03	-131.687	47.470	0	113.00	0	7.4930	0	32.8970	0	25.697	0	112.027	0	195.4	4	66.3	4	-1E+10	1	-1E+10	1	-1E+10	1	-1E+10	1	-1E+10	1	-1E+10	1
4902549	63	C	05/08/2022	11:03	-131.687	47.470	0	114.30	0	7.5510	0	32.9470	0	25.728	0	113.315	0	191.0	4	64.9	4	-1E+10	1	-1E+10	1	-1E+10	1	-1E+10	1	-1E+10	1	-1E+10	1
4902549	63	C	05/08/2022	11:03	-131.687	47.470	0	114.90	0	7.5540	0	32.9520	0	25.731	0	113.910	0	188.5	4	64.1	4	-1E+10	1	-1E+10	1	-1E+10	1	-1E+10	1	-1E+10	1	-1E+10	1
4902549	63	C	05/08/2022	11:03	-131.687	47.470	0	116.00	0	7.5590	0	33.0160	0	25.781	0	115.000	0	185.6	4	63.1	4	-1E+10	1	-1E+10	1	-1E+10	1	-1E+10	1	-1E+10	1	-1E+10	1
4902549	63	C	05/08/2022	11:03	-131.687	47.470	0	116.90	0	7.5320	0	33.1130	0	25.861	0	115.892	0	183.9	4	62.5	4	-1E+10	1	-1E+10	1	-1E+10	1	-1E+10	1	-1E+10	1	-1E+10	1
4902549	63	C	05/08/2022	11:03	-131.687	47.470	0	117.80	0	7.5300	0	33.1320	0	25.876	0	116.784	0	182.0	4	61.9	4	-1E+10	1	-1E+10	1	-1E+10	1	-1E+10	1	-1E+10	1	-1E+10	1
4902549	63	C	05/08/2022	11:03	-131.687	47.470	0	119.00	0	7.5260	0	33.1860	0	25.919	0	117.973	0	179.9	4	61.2	4	-1E+10	1	-1E+10	1	-1E+10	1	-1E+10	1	-1E+10	1	-1E+10	1
4902549	63	C	05/08/2022	11:03	-131.687	47.470	0	119.90	0	7.5270	0	33.2040	0	25.933	0	118.865	0	178.4	4	60.7	4	-1E+10	1	-1E+10	1	-1E+10	1	-1E+10	1	-1E+10	1	-1E+10	1
4902549	63	C	05/08/2022	11:03	-131.687	47.470	0	120.80	0	7.5230	0	33.2170	0	25.944	0	119.757	0	176.9	4	60.2	4	-1E+10	1	-1E+10	1	-1E+10	1	-1E+10	1	-1E+10	1	-1E+10	1
4902549	63	C	05/08/2022	11:03	-131.687	47.470	0	122.10	0	7.5250	0	33.2420	0	25.963	0	121.045	0	175.1	4	59.6	4	-1E+10	1	-1E+10	1	-1E+10	1	-1E+10	1	-1E+10	1	-1E+10	1
4902549	63	C	05/08/2022	11:03	-131.687	47.470	0	123.10	0	7.5260	0	33.2720	0	25.987	0	122.037	0	173.7	4	59.1	4	-1E+10	1	-1E+10	1	-1E+10	1	-1E+10	1	-1E+10	1	-1E+10	1
4902549	63	C	05/08/2022	11:03	-131.687	47.470	0	124.00	0	7.5230	0	33.2850	0	25.998	0	122.929	0	172.4	4	58.7	4	-1E+10	1	-1E+10	1	-1E+10	1	-1E+10	1	-1E+10	1	-1E+10	1
4902549	63	C	05/08/2022	11:03	-131.687	47.470	0	125.00	0	7.5150	0	33.3170	0	26.024	0	123.920	0	171.1	4	58.3	4	-1E+10	1	-1E+10	1	-1E+10	1	-1E+10	1	-1E+10	1	-1E+10	1
4902549	63	C	05/08/2022	11:03	-131.687	47.470	0	125.90	0	7.5110	0	33.3410	0	26.043	0	124.812	0	170.0	4	57.9	4	-1E+10	1	-1E+10	1	-1E+10	1	-1E+10	1	-1E+10	1	-1E+10	1
4902549	63	C	05/08/2022	11:03	-131.687	47.470	0	126.90	0	7.5100	0	33.3570	0	26.056	0	125.803	0	169.1	4	57.6	4	-1E+10	1	-1E+10	1	-1E+10	1	-1E+10	1	-1E+10	1	-1E+10	1
4902549	63	C	05/08/2022	11:03	-131.687	47.470	0	127.90	0	7.5110	0	33.3690	0	26.065	0	126.794	0	168.2	4	57.3	4	-1E+10	1	-1E+10	1	-1E+10	1	-1E+10	1	-1E+10	1	-1E+10	1
4902549	63	C	05/08/2022	11:03	-131.687	47.470	0	128.90	0	7.5110	0	33.3790	0	26.073	0	127.785	0	167.2	4	56.9	4	-1E+10	1	-1E+10	1	-1E+10	1	-1E+10	1	-1E+10	1	-1E+10	1
4902549	63	C	05/08/2022	11:03	-131.687	47.470	0	129.90	0	7.5100	0	33.3840	0	26.077	0	128.776	0	166.0	4	56.6	4	-1E+10	1	-1E+10	1	-1E+10	1	-1E+10	1	-1E+10	1	-1E+10	1
4902549	63	C	05/08/2022	11:03	-131.687	47.470	0	131.00	0	7.5080	0	33.3910	0	26.083	0	129.866	0	164.8	4	56.2	4	-1E+10	1	-1E+10	1	-1E+10	1	-1E+10	1	-1E+10	1	-1E+10	1
4902549	63	C	05/08/2022	11:03	-131.687	47.470	0	132.00	0	7.5060	0	33.4020	0	26.092	0	130.857	0	163.5	4	55.7	4	-1E+10	1	-1E+10	1	-1E+10	1	-1E+10	1	-1E+10	1	-1E+10	1
4902549	63	C	05/08/2022	11:03	-131.687	47.470	0	133.00	0	7.5010	0	33.4290	0	26.114	0	131.848	0	162.4	4	55.4	4	-1E+10	1	-1E+10	1	-1E+10	1	-1E+10	1	-1E+10	1	-1E+10	1
4902549	63	C	05/08/2022	11:03	-131.687	47.470	0	134.00	0	7.4980	0	33.4350	0	26.119	0	132.839	0	161.3	4	55.0	4	-1E+10	1	-1E+10	1	-1E+10	1	-1E+10	1	-1E+10	1	-1E+10	1
4902549	63	C	05/08/2022	11:03	-131.687	47.470	0	135.10	0	7.4920	0	33.4590	0	26.139	0	133.929	0	160.0	4	54.5	4	-1E+10	1	-1E+10	1	-1E+10	1	-1E+10	1	-1E+10	1	-1E+10	1
4902549	63	C	05/08/2022	11:03	-131.687	47.470	0	135.90	0	7.4880	0	33.4730	0	26.150	0	134.722	0	159.2	4	54.2	4	-1E+10	1	-1E+10	1	-1E+10	1	-1E+10	1	-1E+10	1	-1E+10	1
4902549	63	C	05/08/2022	11:03	-131.687	47.470	0	136.90	0	7.4840	0	33.4810	0	26.157	0	135.713	0	157.8	4	53.8	4	-1E+10	1	-1E+10	1	-1E+10	1	-1E+10	1	-1E+10	1	-1E+10	1
4902549	63	C	05/08/2022	11:03	-131.687	47.470	0	138.10	0	7.4720	0	33.5180	0	26.188	0	136.902	0	156.6	4	53.4	4	-1E+10	1	-1E+10	1	-1E+10	1	-1E+10	1	-1E+10	1	-1E+10	1
4902549	63	C	05/08/2022	11:03	-131.687	47.470	0	138.80	0	7.4630	0	33.5370	0	26.204	0	137.596	0	155.9	4	53.1	4	-1E+10	1	-1E+10	1	-1E+10	1	-1E+10	1	-1E+10	1	-1E+10	1
4902549	63	C	05/08/2022	11:03	-131.687	47.470	0	140.00	0	7.4310	0	33.5870	0	26.248	0	138.785	0	155.2	4	52.9	4	-1E+10	1	-1E+10	1	-1E+10	1	-1E+10	1	-1E+10	1	-1E+10	1
4902549	63	C	05/08/2022	11:03	-131.687	47.470	0	141.20	0	7.4150	0	33.6080	0	26.267	0	139.974	0	154.7	4	52.7	4	-1E+10	1	-1E+10	1	-1E+10	1	-1E+10	1	-1E+10	1	-1E+10	1
4902549	63	C	05/08/2022	11:03	-131.687	47.470	0	142.00	0	7.4130	0	33.6100	0	26.269	0	140.767	0	154.1	4	52.5	4	-1E+10	1	-1E+10	1	-1E+10	1	-1E+10	1	-1E+10	1	-1E+10	1
4902549	63	C	05/08/2022	11:03	-131.687	47.470	0	142.80	0	7.4140	0	33.6140	0	26.272	0	141.560	0	153.7	4	52.3	4	-1E+10	1	-1E+10	1	-1E+10	1	-1E+10	1	-1E+10	1	-1E+10	1
4902549	63	C	05/08/2022	11:03	-131.687	47.470	0	143.80	0	7.4130	0	33.6220	0	26.278	0	142.551	0	153.1	4	52.1	4	-1E+10	1	-1E+10	1	-1E+10	1	-1E+10	1	-1E+10	1	-1E+10	1
4902549	63	C	05/08/2022	11:03	-131.687	47.470	0	144.70	0	7.3960	0	33.6370	0	26.292	0	143.442	0	152.7	4	52.0	4	-1E+10	1	-1E+10	1	-1E+10	1	-1E+10	1	-1E+10	1	-1E+10	1
4902549	63	C	05/08/2022	11:03	-131.687	47.470	0	145.90	0	7.3850	0	33.6460	0	26.301	0	144.632	0	152.0	4	51.7	4	-1E+10	1	-1E+10	1	-1E+10	1	-1E+10	1	-1E+10	1	-1E+10	1
4902549	63	C	05/08/2022	11:03	-131.687	47.470	0	147.20	0	7.3770	0	33.6570	0	26.311	0	145.920	0	151.4	4	51.5	4	-1E+10	1	-1E+10	1	-1E+10	1	-1E+10	1	-1E+10	1	-1E+10	1
4902549	63	C	05/08/2022	11:03	-131.687	47.470	0	148.10	0	7.3780	0	33.6570	0	26.311	0	146.812	0	150.9	4	51.4	4	-1E+10	1	-1E+10	1	-1E+10	1	-1E+10	1	-1E+10	1	-1E+10	1
4902549	63	C	05/08/2022	11:03	-131.687	47.470	0	148.90	0	7.3730	0	33.6670	0	26.319	0	147.604	0	150.5	4	51.2	4	-1E+10	1	-1E+10	1	-1E+10	1	-1E+10	1	-1E+10	1	-1E+10	1
4902549	63	C	05/08/2022	11:03	-131.687	47.470	0	149.80	0	7.3690	0	33.6700	0	26.322	0	148.496	0	150.1	4	51.1	4	-1E+10	1	-1E+10	1	-1E+10	1	-1E+10	1	-1E+10	1	-1E+10	1
4902549	63	C	05/08/2022	11:03	-131.687	47.470	0	151.00	0	7.3580	0	33.6760	0	26.329	0	149.685	0	149.3	4	50.8	4	-1E+10	1	-1E+10	1	-1E+10	1	-1E+10	1	-1E+10	1	-1E+10	1
4902549	63	C	05/08/2022	11:03	-131.687	47.470	0	152.30	0	7.3340	0	33.6910	0	26.344	0	150.974	0	148.4	4	50.5	4	-1E+10	1	-1E+10	1	-1E+10	1	-1E+10	1	-1E+10	1	-1E+10	1
4902549	63	C	05/08/2022	11:03	-131.687	47.470	0	153.20	0	7.3330	0	33.6920	0	26.345	0	151.865	0	147.7	4	50.2	4	-1E+10	1	-1E+10	1	-1E+10	1	-1E+10	1	-1E+10	1	-1E+10	1
4902549	63	C	05/08/2022	11:03	-131.687	47.470	0	154.00	0	7.3260	0	33.6990	0	26.351	0	152.658	0	147.1	4	50.0	4	-1E+10	1	-1E+10	1	-1E+10	1	-1E+10	1	-1E+10	1	-1E+10	1
4902549	63	C	05/08/2022	11:03	-131.687	47.470	0	154.90	0	7.3180	0	33.7070	0	26.359	0	153.550	0	146.4	4	49.8	4	-1E+10	1	-1E+10	1	-1E+10	1	-1E+10	1	-1E+10	1	-1E+10	1
4902549	63	C	05/08/2022	11:03	-131.687	47.470	0	155.70	0	7.3100	0	33.7110	0	26.363	0	154.343	0	145.7	4	49.5	4	-1E+10	1	-1E+10	1	-1E+10	1	-1E+10	1	-1E+10	1	-1E+10	1
4902549	63	C	05/08/2022	11:03	-131.687	47.470	0	157.00	0	7.3050	0	33.7120	0	26.364	0	155.631	0	144.4	4	49.1	4	-1E+10	1	-1E+10	1	-1E+10	1	-1E+10	1	-1E+10	1	-1E+10	1
4902549	63	C	05/08/2022	11:03	-131.687	47.470	0	158.30	0	7.2990	0	33.7200	0	26.372	0	156.919	0	142.9	4	48.6	4	-1E+10	1	-1E+10	1	-1E+10	1	-1E+10	1	-1E+10	1	-1E+10	1
4902549	63	C	05/08/2022	11:03	-131.687	47.470	0	159.40	0	7.2880	0	33.7350	0	26.385	0	158.009	0	141.9	4	48.2	4	-1E+10	1	-1E+10	1	-1E+10	1	-1E+10	1	-1E+10	1	-1E+10	1
4902549	63	C	05/08/2022	11:03	-131.687	47.470	0	160.30	0	7.2860	0	33.7430	0	26.391	0	158.901	0	141.3	4	48.0	4	-1E+10	1	-1E+10	1	-1E+10	1	-1E+10	1	-1E+10	1	-1E+10	1
4902549	63	C	05/08/2022	11:03	-131.687	47.470	0	161.20	0	7.2840	0	33.7450	0	26.393	0	159.793	0	140.7	4	47.8	4	-1E+10	1	-1E+10	1	-1E+10	1	-1E+10	1	-1E+10	1	-1E+10	1
4902549	63	C	05/08/2022	11:03	-131.687	47.470	0	162.20	0	7.2820	0	33.7480	0	26.396	0	160.784	0	140.1	4	47.6	4	-1E+10	1	-1E+10	1	-1E+10	1	-1E+10	1	-1E+10	1	-1E+10	1
4902549	63	C	05/08/2022	11:03	-131.687	47.470	0	163.10	0	7.2790	0	33.7510	0	26.399	0	161.675	0	139.5	4	47.4	4	-1E+10	1	-1E+10	1	-1E+10	1	-1E+10	1	-1E+10	1	-1E+10	1
4902549	63	C	05/08/2022	11:03	-131.687	47.470	0	164.00	0	7.2650	0	33.7620	0	26.409	0	162.567	0	139.0	4	47.2	4	-1E+10	1	-1E+10	1	-1E+10	1	-1E+10	1	-1E+10	1	-1E+10	1
4902549	63	C	05/08/2022	11:03	-131.687	47.470	0	165.00	0	7.2560	0	33.7680	0	26.415	0	163.558	0	138.6	4	47.1	4	-1E+10	1	-1E+10	1	-1E+10	1	-1E+10	1	-1E+10	1	-1E+10	1
4902549	63	C	05/08/2022	11:03	-131.687	47.470	0	165.90	0	7.2540	0	33.7690	0	26.416	0	164.450	0	138.2	4	47.0	4	-1E+10	1	-1E+10	1	-1E+10	1	-1E+10	1	-1E+10	1	-1E+10	1
4902549	63	C	05/08/2022	11:03	-131.687	47.470	0	166.80	0	7.2530	0	33.7690	0	26.417	0	165.342	0	137.8	4	46.8	4	-1E+10	1	-1E+10	1	-1E+10	1	-1E+10	1	-1E+10	1	-1E+10	1
4902549	63	C	05/08/2022	11:03	-131.687	47.470	0	167.70	0	7.2440	0	33.7730	0	26.421	0	166.233	0	137.3	4	46.6	4	-1E+10	1	-1E+10	1	-1E+10	1	-1E+10	1	-1E+10	1	-1E+10	1
4902549	63	C	05/08/2022	11:03	-131.687	47.470	0	168.60	0	7.2410	0	33.7740	0	26.422	0	167.125	0	136.8	4	46.5	4	-1E+10	1	-1E+10	1	-1E+10	1	-1E+10	1	-1E+10	1	-1E+10	1
4902549	63	C	05/08/2022	11:03	-131.687	47.470	0	169.50	0	7.2360	0	33.7750	0	26.424	0	168.017	0	136.2	4	46.3	4	-1E+10	1	-1E+10	1	-1E+10	1	-1E+10	1	-1E+10	1	-1E+10	1
4902549	63	C	05/08/2022	11:03	-131.687	47.470	0	170.90	0	7.2290	0	33.7780	0	26.427	0	169.404	0	135.3	4	45.9	4	-1E+10	1	-1E+10	1	-1E+10	1	-1E+10	1	-1E+10	1	-1E+10	1
4902549	63	C	05/08/2022	11:03	-131.687	47.470	0	172.40	0	7.2200	0	33.7820	0	26.431	0	170.890	0	134.4	4	45.6	4	-1E+10	1	-1E+10	1	-1E+10	1	-1E+10	1	-1E+10	1	-1E+10	1
4902549	63	C	05/08/2022	11:03	-131.687	47.470	0	173.30	0	7.2120	0	33.7850	0	26.435	0	171.782	0	133.8	4	45.4	4	-1E+10	1	-1E+10	1	-1E+10	1	-1E+10	1	-1E+10	1	-1E+10	1
4902549	63	C	05/08/2022	11:03	-131.687	47.470	0	174.30	0	7.2110	0	33.7850	0	26.435	0	172.773	0	133.1	4	45.2	4	-1E+10	1	-1E+10	1	-1E+10	1	-1E+10	1	-1E+10	1	-1E+10	1
4902549	63	C	05/08/2022	11:03	-131.687	47.470	0	175.20	0	7.2010	0	33.7890	0	26.440	0	173.665	0	132.4	4	44.9	4	-1E+10	1	-1E+10	1	-1E+10	1	-1E+10	1	-1E+10	1	-1E+10	1
4902549	63	C	05/08/2022	11:03	-131.687	47.470	0	176.20	0	7.1830	0	33.7930	0	26.445	0	174.655	0	131.8	4	44.7	4	-1E+10	1	-1E+10	1	-1E+10	1	-1E+10	1	-1E+10	1	-1E+10	1
4902549	63	C	05/08/2022	11:03	-131.687	47.470	0	177.20	0	7.1620	0	33.8000	0	26.454	0	175.646	0	131.2	4	44.5	4	-1E+10	1	-1E+10	1	-1E+10	1	-1E+10	1	-1E+10	1	-1E+10	1
4902549	63	C	05/08/2022	11:03	-131.687	47.470	0	178.10	0	7.1370	0	33.8080	0	26.463	0	176.538	0	130.7	4	44.3	4	-1E+10	1	-1E+10	1	-1E+10	1	-1E+10	1	-1E+10	1	-1E+10	1
4902549	63	C	05/08/2022	11:03	-131.687	47.470	0	179.10	0	7.1290	0	33.8090	0	26.465	0	177.529	0	130.2	4	44.1	4	-1E+10	1	-1E+10	1	-1E+10	1	-1E+10	1	-1E+10	1	-1E+10	1
4902549	63	C	05/08/2022	11:03	-131.687	47.470	0	180.10	0	7.1040	0	33.8160	0	26.474	0	178.520	0	129.7	4	43.9	4	-1E+10	1	-1E+10	1	-1E+10	1	-1E+10	1	-1E+10	1	-1E+10	1
4902549	63	C	05/08/2022	11:03	-131.687	47.470	0	181.00	0	7.0970	0	33.8170	0	26.476	0	179.411	0	129.3	4	43.8	4	-1E+10	1	-1E+10	1	-1E+10	1	-1E+10	1	-1E+10	1	-1E+10	1
4902549	63	C	05/08/2022	11:03	-131.687	47.470	0	182.00	0	7.0880	0	33.8210	0	26.481	0	180.402	0	128.9	4	43.7	4	-1E+10	1	-1E+10	1	-1E+10	1	-1E+10	1	-1E+10	1	-1E+10	1
4902549	63	C	05/08/2022	11:03	-131.687	47.470	0	182.90	0	7.0750	0	33.8250	0	26.485	0	181.294	0	128.7	4	43.6	4	-1E+10	1	-1E+10	1	-1E+10	1	-1E+10	1	-1E+10	1	-1E+10	1
4902549	63	C	05/08/2022	11:03	-131.687	47.470	0	183.90	0	7.0710	0	33.8270	0	26.488	0	182.284	0	128.5	4	43.5	4	-1E+10	1	-1E+10	1	-1E+10	1	-1E+10	1	-1E+10	1	-1E+10	1
4902549	63	C	05/08/2022	11:03	-131.687	47.470	0	184.80	0	7.0660	0	33.8290	0	26.490	0	183.176	0	128.4	4	43.4	4	-1E+10	1	-1E+10	1	-1E+10	1	-1E+10	1	-1E+10	1	-1E+10	1
4902549	63	C	05/08/2022	11:03	-131.687	47.470	0	185.70	0	7.0610	0	33.8290	0	26.491	0	184.068	0	128.3	4	43.4	4	-1E+10	1	-1E+10	1	-1E+10	1	-1E+10	1	-1E+10	1	-1E+10	1
4902549	63	C	05/08/2022	11:03	-131.687	47.470	0	186.70	0	7.0590	0	33.8290	0	26.491	0	185.059	0	128.2	4	43.4	4	-1E+10	1	-1E+10	1	-1E+10	1	-1E+10	1	-1E+10	1	-1E+10	1
4902549	63	C	05/08/2022	11:03	-131.687	47.470	0	187.60	0	7.0340	0	33.8350	0	26.499	0	185.950	0	128.2	4	43.4	4	-1E+10	1	-1E+10	1	-1E+10	1	-1E+10	1	-1E+10	1	-1E+10	1
4902549	63	C	05/08/2022	11:03	-131.687	47.470	0	188.50	0	7.0250	0	33.8330	0	26.499	0	186.842	0	128.3	4	43.4	4	-1E+10	1	-1E+10	1	-1E+10	1	-1E+10	1	-1E+10	1	-1E+10	1
4902549	63	C	05/08/2022	11:03	-131.687	47.470	0	189.50	0	7.0130	0	33.8330	0	26.500	0	187.833	0	128.2	4	43.3	4	-1E+10	1	-1E+10	1	-1E+10	1	-1E+10	1	-1E+10	1	-1E+10	1
4902549	63	C	05/08/2022	11:03	-131.687	47.470	0	190.90	0	6.9940	0	33.8340	0	26.504	0	189.220	0	128.1	4	43.3	4	-1E+10	1	-1E+10	1	-1E+10	1	-1E+10	1	-1E+10	1	-1E+10	1
4902549	63	C	05/08/2022	11:03	-131.687	47.470	0	192.30	0	6.9750	0	33.8340	0	26.506	0	190.607	0	127.9	4	43.2	4	-1E+10	1	-1E+10	1	-1E+10	1	-1E+10	1	-1E+10	1	-1E+10	1
4902549	63	C	05/08/2022	11:03	-131.687	47.470	0	193.30	0	6.9730	0	33.8340	0	26.507	0	191.598	0	127.7	4	43.1	4	-1E+10	1	-1E+10	1	-1E+10	1	-1E+10	1	-1E+10	1	-1E+10	1
4902549	63	C	05/08/2022	11:03	-131.687	47.470	0	194.40	0	6.9750	0	33.8340	0	26.506	0	192.687	0	127.4	4	43.0	4	-1E+10	1	-1E+10	1	-1E+10	1	-1E+10	1	-1E+10	1	-1E+10	1
4902549	63	C	05/08/2022	11:03	-131.687	47.470	0	195.30	0	6.9740	0	33.8330	0	26.506	0	193.579	0	127.1	4	42.9	4	-1E+10	1	-1E+10	1	-1E+10	1	-1E+10	1	-1E+10	1	-1E+10	1
4902549	63	C	05/08/2022	11:03	-131.687	47.470	0	196.30	0	6.9740	0	33.8320	0	26.505	0	194.570	0	126.8	4	42.8	4	-1E+10	1	-1E+10	1	-1E+10	1	-1E+10	1	-1E+10	1	-1E+10	1
4902549	63	C	05/08/2022	11:03	-131.687	47.470	0	197.20	0	6.9420	0	33.8340	0	26.511	0	195.461	0	126.4	4	42.7	4	-1E+10	1	-1E+10	1	-1E+10	1	-1E+10	1	-1E+10	1	-1E+10	1
4902549	63	C	05/08/2022	11:03	-131.687	47.470	0	198.10	0	6.9360	0	33.8350	0	26.512	0	196.353	0	126.0	4	42.5	4	-1E+10	1	-1E+10	1	-1E+10	1	-1E+10	1	-1E+10	1	-1E+10	1
4902549	63	C	05/08/2022	11:03	-131.687	47.470	0	199.10	0	6.9270	0	33.8370	0	26.515	0	197.344	0	125.6	4	42.4	4	-1E+10	1	-1E+10	1	-1E+10	1	-1E+10	1	-1E+10	1	-1E+10	1
4902549	63	C	05/08/2022	11:03	-131.687	47.470	0	200.10	0	6.9000	0	33.8390	0	26.521	0	198.334	0	125.2	4	42.2	4	-1E+10	1	-1E+10	1	-1E+10	1	-1E+10	1	-1E+10	1	-1E+10	1
4902549	63	C	05/08/2022	11:03	-131.687	47.470	0	201.00	0	6.8880	0	33.8390	0	26.522	0	199.226	0	124.8	4	42.0	4	-1E+10	1	-1E+10	1	-1E+10	1	-1E+10	1	-1E+10	1	-1E+10	1
4902549	63	C	05/08/2022	11:03	-131.687	47.470	0	202.00	0	6.8870	0	33.8420	0	26.525	0	200.217	0	124.4	4	41.9	4	-1E+10	1	-1E+10	1	-1E+10	1	-1E+10	1	-1E+10	1	-1E+10	1
4902549	63	C	05/08/2022	11:03	-131.687	47.470	0	202.90	0	6.8650	0	33.8470	0	26.532	0	201.108	0	124.2	4	41.9	4	-1E+10	1	-1E+10	1	-1E+10	1	-1E+10	1	-1E+10	1	-1E+10	1
4902549	63	C	05/08/2022	11:03	-131.687	47.470	0	203.90	0	6.7880	0	33.8460	0	26.541	0	202.099	0	123.9	4	41.7	4	-1E+10	1	-1E+10	1	-1E+10	1	-1E+10	1	-1E+10	1	-1E+10	1
4902549	63	C	05/08/2022	11:03	-131.687	47.470	0	204.90	0	6.7570	0	33.8440	0	26.544	0	203.090	0	123.3	4	41.4	4	-1E+10	1	-1E+10	1	-1E+10	1	-1E+10	1	-1E+10	1	-1E+10	1
4902549	63	C	05/08/2022	11:03	-131.687	47.470	0	205.80	0	6.7480	0	33.8450	0	26.546	0	203.981	0	122.5	4	41.2	4	-1E+10	1	-1E+10	1	-1E+10	1	-1E+10	1	-1E+10	1	-1E+10	1
4902549	63	C	05/08/2022	11:03	-131.687	47.470	0	206.80	0	6.7410	0	33.8460	0	26.547	0	204.972	0	121.7	4	40.9	4	-1E+10	1	-1E+10	1	-1E+10	1	-1E+10	1	-1E+10	1	-1E+10	1
4902549	63	C	05/08/2022	11:03	-131.687	47.470	0	207.70	0	6.7360	0	33.8480	0	26.550	0	205.864	0	120.8	4	40.6	4	-1E+10	1	-1E+10	1	-1E+10	1	-1E+10	1	-1E+10	1	-1E+10	1
4902549	63	C	05/08/2022	11:03	-131.687	47.470	0	208.70	0	6.7370	0	33.8450	0	26.547	0	206.854	0	119.8	4	40.3	4	-1E+10	1	-1E+10	1	-1E+10	1	-1E+10	1	-1E+10	1	-1E+10	1
4902549	63	C	05/08/2022	11:03	-131.687	47.470	0	209.70	0	6.7410	0	33.8520	0	26.552	0	207.845	0	119.0	4	40.0	4	-1E+10	1	-1E+10	1	-1E+10	1	-1E+10	1	-1E+10	1	-1E+10	1
4902549	63	C	05/08/2022	11:03	-131.687	47.470	0	210.60	0	6.7250	0	33.8560	0	26.558	0	208.736	0	118.2	4	39.7	4	-1E+10	1	-1E+10	1	-1E+10	1	-1E+10	1	-1E+10	1	-1E+10	1
4902549	63	C	05/08/2022	11:03	-131.687	47.470	0	211.60	0	6.6850	0	33.8570	0	26.564	0	209.727	0	117.5	4	39.4	4	-1E+10	1	-1E+10	1	-1E+10	1	-1E+10	1	-1E+10	1	-1E+10	1
4902549	63	C	05/08/2022	11:03	-131.687	47.470	0	212.60	0	6.6880	0	33.8560	0	26.562	0	210.718	0	116.7	4	39.1	4	-1E+10	1	-1E+10	1	-1E+10	1	-1E+10	1	-1E+10	1	-1E+10	1
4902549	63	C	05/08/2022	11:03	-131.687	47.470	0	213.60	0	6.6840	0	33.8570	0	26.564	0	211.708	0	115.9	4	38.9	4	-1E+10	1	-1E+10	1	-1E+10	1	-1E+10	1	-1E+10	1	-1E+10	1
4902549	63	C	05/08/2022	11:03	-131.687	47.470	0	214.60	0	6.6740	0	33.8610	0	26.568	0	212.699	0	115.0	4	38.6	4	-1E+10	1	-1E+10	1	-1E+10	1	-1E+10	1	-1E+10	1	-1E+10	1
4902549	63	C	05/08/2022	11:03	-131.687	47.470	0	215.50	0	6.6590	0	33.8680	0	26.576	0	213.591	0	114.6	4	38.4	4	-1E+10	1	-1E+10	1	-1E+10	1	-1E+10	1	-1E+10	1	-1E+10	1
4902549	63	C	05/08/2022	11:03	-131.687	47.470	0	216.50	0	6.6580	0	33.8670	0	26.575	0	214.581	0	114.1	4	38.3	4	-1E+10	1	-1E+10	1	-1E+10	1	-1E+10	1	-1E+10	1	-1E+10	1
4902549	63	C	05/08/2022	11:03	-131.687	47.470	0	217.50	0	6.6550	0	33.8690	0	26.577	0	215.572	0	113.7	4	38.1	4	-1E+10	1	-1E+10	1	-1E+10	1	-1E+10	1	-1E+10	1	-1E+10	1
4902549	63	C	05/08/2022	11:03	-131.687	47.470	0	218.50	0	6.6460	0	33.8710	0	26.580	0	216.562	0	113.3	4	38.0	4	-1E+10	1	-1E+10	1	-1E+10	1	-1E+10	1	-1E+10	1	-1E+10	1
4902549	63	C	05/08/2022	11:03	-131.687	47.470	0	219.60	0	6.6410	0	33.8710	0	26.581	0	217.652	0	113.0	4	37.9	4	-1E+10	1	-1E+10	1	-1E+10	1	-1E+10	1	-1E+10	1	-1E+10	1
4902549	63	C	05/08/2022	11:03	-131.687	47.470	0	220.60	0	6.6350	0	33.8730	0	26.583	0	218.643	0	112.8	4	37.8	4	-1E+10	1	-1E+10	1	-1E+10	1	-1E+10	1	-1E+10	1	-1E+10	1
4902549	63	C	05/08/2022	11:03	-131.687	47.470	0	221.60	0	6.6320	0	33.8720	0	26.583	0	219.633	0	112.5	4	37.7	4	-1E+10	1	-1E+10	1	-1E+10	1	-1E+10	1	-1E+10	1	-1E+10	1
4902549	63	C	05/08/2022	11:03	-131.687	47.470	0	222.60	0	6.6210	0	33.8740	0	26.586	0	220.624	0	112.3	4	37.6	4	-1E+10	1	-1E+10	1	-1E+10	1	-1E+10	1	-1E+10	1	-1E+10	1
4902549	63	C	05/08/2022	11:03	-131.687	47.470	0	223.50	0	6.6100	0	33.8730	0	26.586	0	221.515	0	112.0	4	37.5	4	-1E+10	1	-1E+10	1	-1E+10	1	-1E+10	1	-1E+10	1	-1E+10	1
4902549	63	C	05/08/2022	11:03	-131.687	47.470	0	224.70	0	6.5590	0	33.8730	0	26.593	0	222.704	0	111.7	4	37.4	4	-1E+10	1	-1E+10	1	-1E+10	1	-1E+10	1	-1E+10	1	-1E+10	1
4902549	63	C	05/08/2022	11:03	-131.687	47.470	0	225.90	0	6.5320	0	33.8750	0	26.598	0	223.893	0	111.4	4	37.3	4	-1E+10	1	-1E+10	1	-1E+10	1	-1E+10	1	-1E+10	1	-1E+10	1
4902549	63	C	05/08/2022	11:03	-131.687	47.470	0	227.10	0	6.5310	0	33.8760	0	26.599	0	225.081	0	111.1	4	37.1	4	-1E+10	1	-1E+10	1	-1E+10	1	-1E+10	1	-1E+10	1	-1E+10	1
4902549	63	C	05/08/2022	11:03	-131.687	47.470	0	227.90	0	6.5310	0	33.8770	0	26.600	0	225.874	0	110.9	4	37.1	4	-1E+10	1	-1E+10	1	-1E+10	1	-1E+10	1	-1E+10	1	-1E+10	1
4902549	63	C	05/08/2022	11:03	-131.687	47.470	0	228.70	0	6.5330	0	33.8770	0	26.600	0	226.666	0	110.6	4	37.0	4	-1E+10	1	-1E+10	1	-1E+10	1	-1E+10	1	-1E+10	1	-1E+10	1
4902549	63	C	05/08/2022	11:03	-131.687	47.470	0	229.90	0	6.5330	0	33.8760	0	26.599	0	227.855	0	110.1	4	36.8	4	-1E+10	1	-1E+10	1	-1E+10	1	-1E+10	1	-1E+10	1	-1E+10	1
4902549	63	C	05/08/2022	11:03	-131.687	47.470	0	231.10	0	6.5320	0	33.8750	0	26.598	0	229.044	0	109.6	4	36.7	4	-1E+10	1	-1E+10	1	-1E+10	1	-1E+10	1	-1E+10	1	-1E+10	1
4902549	63	C	05/08/2022	11:03	-131.687	47.470	0	231.90	0	6.5170	0	33.8770	0	26.602	0	229.836	0	109.4	4	36.6	4	-1E+10	1	-1E+10	1	-1E+10	1	-1E+10	1	-1E+10	1	-1E+10	1
4902549	63	C	05/08/2022	11:03	-131.687	47.470	0	232.80	0	6.5100	0	33.8780	0	26.603	0	230.728	0	109.2	4	36.5	4	-1E+10	1	-1E+10	1	-1E+10	1	-1E+10	1	-1E+10	1	-1E+10	1
4902549	63	C	05/08/2022	11:03	-131.687	47.470	0	234.00	0	6.4870	0	33.8760	0	26.605	0	231.916	0	108.8	4	36.3	4	-1E+10	1	-1E+10	1	-1E+10	1	-1E+10	1	-1E+10	1	-1E+10	1
4902549	63	C	05/08/2022	11:03	-131.687	47.470	0	235.30	0	6.4260	0	33.8790	0	26.615	0	233.204	0	108.3	4	36.1	4	-1E+10	1	-1E+10	1	-1E+10	1	-1E+10	1	-1E+10	1	-1E+10	1
4902549	63	C	05/08/2022	11:03	-131.687	47.470	0	236.10	0	6.3720	0	33.8770	0	26.621	0	233.996	0	107.8	4	35.9	4	-1E+10	1	-1E+10	1	-1E+10	1	-1E+10	1	-1E+10	1	-1E+10	1
4902549	63	C	05/08/2022	11:03	-131.687	47.470	0	237.00	0	6.3530	0	33.8760	0	26.622	0	234.888	0	107.2	4	35.7	4	-1E+10	1	-1E+10	1	-1E+10	1	-1E+10	1	-1E+10	1	-1E+10	1
4902549	63	C	05/08/2022	11:03	-131.687	47.470	0	237.80	0	6.3640	0	33.8760	0	26.621	0	235.680	0	106.5	4	35.5	4	-1E+10	1	-1E+10	1	-1E+10	1	-1E+10	1	-1E+10	1	-1E+10	1
4902549	63	C	05/08/2022	11:03	-131.687	47.470	0	238.70	0	6.3770	0	33.8780	0	26.621	0	236.572	0	106.0	4	35.3	4	-1E+10	1	-1E+10	1	-1E+10	1	-1E+10	1	-1E+10	1	-1E+10	1
4902549	63	C	05/08/2022	11:03	-131.687	47.470	0	240.00	0	6.3740	0	33.8850	0	26.627	0	237.859	0	105.6	4	35.2	4	-1E+10	1	-1E+10	1	-1E+10	1	-1E+10	1	-1E+10	1	-1E+10	1
4902549	63	C	05/08/2022	11:03	-131.687	47.470	0	241.30	0	6.3700	0	33.8840	0	26.627	0	239.147	0	105.2	4	35.1	4	-1E+10	1	-1E+10	1	-1E+10	1	-1E+10	1	-1E+10	1	-1E+10	1
4902549	63	C	05/08/2022	11:03	-131.687	47.470	0	242.10	0	6.3630	0	33.8850	0	26.628	0	239.939	0	105.0	4	35.0	4	-1E+10	1	-1E+10	1	-1E+10	1	-1E+10	1	-1E+10	1	-1E+10	1
4902549	63	C	05/08/2022	11:03	-131.687	47.470	0	243.00	0	6.3580	0	33.8850	0	26.629	0	240.831	0	104.8	4	34.9	4	-1E+10	1	-1E+10	1	-1E+10	1	-1E+10	1	-1E+10	1	-1E+10	1
4902549	63	C	05/08/2022	11:03	-131.687	47.470	0	243.90	0	6.3560	0	33.8850	0	26.629	0	241.722	0	104.5	4	34.8	4	-1E+10	1	-1E+10	1	-1E+10	1	-1E+10	1	-1E+10	1	-1E+10	1
4902549	63	C	05/08/2022	11:03	-131.687	47.470	0	244.80	0	6.3620	0	33.8880	0	26.631	0	242.614	0	104.4	4	34.8	4	-1E+10	1	-1E+10	1	-1E+10	1	-1E+10	1	-1E+10	1	-1E+10	1
4902549	63	C	05/08/2022	11:03	-131.687	47.470	0	245.60	0	6.3120	0	33.8890	0	26.638	0	243.406	0	104.3	4	34.7	4	-1E+10	1	-1E+10	1	-1E+10	1	-1E+10	1	-1E+10	1	-1E+10	1
4902549	63	C	05/08/2022	11:03	-131.687	47.470	0	246.90	0	6.2720	0	33.8830	0	26.638	0	244.694	0	104.0	4	34.6	4	-1E+10	1	-1E+10	1	-1E+10	1	-1E+10	1	-1E+10	1	-1E+10	1
4902549	63	C	05/08/2022	11:03	-131.687	47.470	0	248.30	0	6.2310	0	33.8830	0	26.644	0	246.080	0	103.4	4	34.3	4	-1E+10	1	-1E+10	1	-1E+10	1	-1E+10	1	-1E+10	1	-1E+10	1
4902549	63	C	05/08/2022	11:03	-131.687	47.470	0	249.20	0	6.2080	0	33.8840	0	26.647	0	246.972	0	103.0	4	34.2	4	-1E+10	1	-1E+10	1	-1E+10	1	-1E+10	1	-1E+10	1	-1E+10	1
4902549	63	C	05/08/2022	11:03	-131.687	47.470	0	250.10	0	6.2220	0	33.8870	0	26.648	0	247.863	0	102.6	4	34.1	4	-1E+10	1	-1E+10	1	-1E+10	1	-1E+10	1	-1E+10	1	-1E+10	1
4902549	63	C	05/08/2022	11:03	-131.687	47.470	0	250.90	0	6.2200	0	33.8890	0	26.650	0	248.656	0	102.4	4	34.0	4	-1E+10	1	-1E+10	1	-1E+10	1	-1E+10	1	-1E+10	1	-1E+10	1
4902549	63	C	05/08/2022	11:03	-131.687	47.470	0	251.80	0	6.2180	0	33.8890	0	26.650	0	249.547	0	102.1	4	33.9	4	-1E+10	1	-1E+10	1	-1E+10	1	-1E+10	1	-1E+10	1	-1E+10	1
4902549	63	C	05/08/2022	11:03	-131.687	47.470	0	252.70	0	6.2170	0	33.8890	0	26.650	0	250.438	0	101.9	4	33.8	4	-1E+10	1	-1E+10	1	-1E+10	1	-1E+10	1	-1E+10	1	-1E+10	1
4902549	63	C	05/08/2022	11:03	-131.687	47.470	0	253.60	0	6.2150	0	33.8900	0	26.651	0	251.330	0	101.7	4	33.8	4	-1E+10	1	-1E+10	1	-1E+10	1	-1E+10	1	-1E+10	1	-1E+10	1
4902549	63	C	05/08/2022	11:03	-131.687	47.470	0	254.90	0	6.2080	0	33.8910	0	26.653	0	252.617	0	101.5	4	33.7	4	-1E+10	1	-1E+10	1	-1E+10	1	-1E+10	1	-1E+10	1	-1E+10	1
4902549	63	C	05/08/2022	11:03	-131.687	47.470	0	256.20	0	6.1780	0	33.8920	0	26.658	0	253.905	0	101.4	4	33.6	4	-1E+10	1	-1E+10	1	-1E+10	1	-1E+10	1	-1E+10	1	-1E+10	1
4902549	63	C	05/08/2022	11:03	-131.687	47.470	0	257.10	0	6.1710	0	33.8910	0	26.658	0	254.796	0	101.3	4	33.6	4	-1E+10	1	-1E+10	1	-1E+10	1	-1E+10	1	-1E+10	1	-1E+10	1
4902549	63	C	05/08/2022	11:03	-131.687	47.470	0	258.00	0	6.1690	0	33.8910	0	26.658	0	255.688	0	101.1	4	33.5	4	-1E+10	1	-1E+10	1	-1E+10	1	-1E+10	1	-1E+10	1	-1E+10	1
4902549	63	C	05/08/2022	11:03	-131.687	47.470	0	258.90	0	6.1680	0	33.8910	0	26.658	0	256.579	0	101.0	4	33.5	4	-1E+10	1	-1E+10	1	-1E+10	1	-1E+10	1	-1E+10	1	-1E+10	1
4902549	63	C	05/08/2022	11:03	-131.687	47.470	0	259.80	0	6.1630	0	33.8920	0	26.660	0	257.470	0	100.9	4	33.5	4	-1E+10	1	-1E+10	1	-1E+10	1	-1E+10	1	-1E+10	1	-1E+10	1
4902549	63	C	05/08/2022	11:03	-131.687	47.470	0	260.70	0	6.1580	0	33.8930	0	26.661	0	258.362	0	100.9	4	33.4	4	-1E+10	1	-1E+10	1	-1E+10	1	-1E+10	1	-1E+10	1	-1E+10	1
4902549	63	C	05/08/2022	11:03	-131.687	47.470	0	261.90	0	6.1520	0	33.8930	0	26.662	0	259.550	0	100.8	4	33.4	4	-1E+10	1	-1E+10	1	-1E+10	1	-1E+10	1	-1E+10	1	-1E+10	1
4902549	63	C	05/08/2022	11:03	-131.687	47.470	0	263.30	0	6.1480	0	33.8920	0	26.661	0	260.937	0	100.7	4	33.4	4	-1E+10	1	-1E+10	1	-1E+10	1	-1E+10	1	-1E+10	1	-1E+10	1
4902549	63	C	05/08/2022	11:03	-131.687	47.470	0	264.20	0	6.1460	0	33.8920	0	26.662	0	261.828	0	100.7	4	33.4	4	-1E+10	1	-1E+10	1	-1E+10	1	-1E+10	1	-1E+10	1	-1E+10	1
4902549	63	C	05/08/2022	11:03	-131.687	47.470	0	265.10	0	6.1330	0	33.8910	0	26.663	0	262.720	0	100.7	4	33.4	4	-1E+10	1	-1E+10	1	-1E+10	1	-1E+10	1	-1E+10	1	-1E+10	1
4902549	63	C	05/08/2022	11:03	-131.687	47.470	0	266.00	0	6.1250	0	33.8900	0	26.663	0	263.611	0	100.6	4	33.3	4	-1E+10	1	-1E+10	1	-1E+10	1	-1E+10	1	-1E+10	1	-1E+10	1
4902549	63	C	05/08/2022	11:03	-131.687	47.470	0	266.90	0	6.1120	0	33.8910	0	26.665	0	264.502	0	100.4	4	33.3	4	-1E+10	1	-1E+10	1	-1E+10	1	-1E+10	1	-1E+10	1	-1E+10	1
4902549	63	C	05/08/2022	11:03	-131.687	47.470	0	267.80	0	6.0960	0	33.8910	0	26.667	0	265.394	0	100.2	4	33.2	4	-1E+10	1	-1E+10	1	-1E+10	1	-1E+10	1	-1E+10	1	-1E+10	1
4902549	63	C	05/08/2022	11:03	-131.687	47.470	0	268.70	0	6.0750	0	33.8870	0	26.667	0	266.285	0	99.9	4	33.1	4	-1E+10	1	-1E+10	1	-1E+10	1	-1E+10	1	-1E+10	1	-1E+10	1
4902549	63	C	05/08/2022	11:03	-131.687	47.470	0	269.60	0	6.0480	0	33.8850	0	26.669	0	267.176	0	99.5	4	32.9	4	-1E+10	1	-1E+10	1	-1E+10	1	-1E+10	1	-1E+10	1	-1E+10	1
4902549	63	C	05/08/2022	11:03	-131.687	47.470	0	270.90	0	6.0160	0	33.8850	0	26.673	0	268.464	0	98.6	4	32.6	4	-1E+10	1	-1E+10	1	-1E+10	1	-1E+10	1	-1E+10	1	-1E+10	1
4902549	63	C	05/08/2022	11:03	-131.687	47.470	0	272.30	0	6.0060	0	33.8880	0	26.676	0	269.850	0	97.8	4	32.3	4	-1E+10	1	-1E+10	1	-1E+10	1	-1E+10	1	-1E+10	1	-1E+10	1
4902549	63	C	05/08/2022	11:03	-131.687	47.470	0	273.20	0	6.0070	0	33.8880	0	26.676	0	270.742	0	97.3	4	32.1	4	-1E+10	1	-1E+10	1	-1E+10	1	-1E+10	1	-1E+10	1	-1E+10	1
4902549	63	C	05/08/2022	11:03	-131.687	47.470	0	274.10	0	6.0020	0	33.8950	0	26.682	0	271.633	0	97.2	4	32.1	4	-1E+10	1	-1E+10	1	-1E+10	1	-1E+10	1	-1E+10	1	-1E+10	1
4902549	63	C	05/08/2022	11:03	-131.687	47.470	0	275.00	0	5.9880	0	33.8950	0	26.684	0	272.524	0	97.2	4	32.1	4	-1E+10	1	-1E+10	1	-1E+10	1	-1E+10	1	-1E+10	1	-1E+10	1
4902549	63	C	05/08/2022	11:03	-131.687	47.470	0	275.90	0	5.9820	0	33.8940	0	26.684	0	273.415	0	97.1	4	32.1	4	-1E+10	1	-1E+10	1	-1E+10	1	-1E+10	1	-1E+10	1	-1E+10	1
4902549	63	C	05/08/2022	11:03	-131.687	47.470	0	276.80	0	5.9510	0	33.8920	0	26.686	0	274.307	0	97.2	4	32.1	4	-1E+10	1	-1E+10	1	-1E+10	1	-1E+10	1	-1E+10	1	-1E+10	1
4902549	63	C	05/08/2022	11:03	-131.687	47.470	0	277.70	0	5.9620	0	33.8940	0	26.687	0	275.198	0	97.4	4	32.2	4	-1E+10	1	-1E+10	1	-1E+10	1	-1E+10	1	-1E+10	1	-1E+10	1
4902549	63	C	05/08/2022	11:03	-131.687	47.470	0	278.90	0	5.8810	0	33.8930	0	26.696	0	276.386	0	97.5	4	32.1	4	-1E+10	1	-1E+10	1	-1E+10	1	-1E+10	1	-1E+10	1	-1E+10	1
4902549	63	C	05/08/2022	11:03	-131.687	47.470	0	280.30	0	5.8270	0	33.8880	0	26.699	0	277.773	0	97.4	4	32.0	4	-1E+10	1	-1E+10	1	-1E+10	1	-1E+10	1	-1E+10	1	-1E+10	1
4902549	63	C	05/08/2022	11:03	-131.687	47.470	0	281.20	0	5.8160	0	33.8850	0	26.698	0	278.664	0	97.0	4	31.9	4	-1E+10	1	-1E+10	1	-1E+10	1	-1E+10	1	-1E+10	1	-1E+10	1
4902549	63	C	05/08/2022	11:03	-131.687	47.470	0	282.20	0	5.7800	0	33.8860	0	26.703	0	279.655	0	96.6	4	31.8	4	-1E+10	1	-1E+10	1	-1E+10	1	-1E+10	1	-1E+10	1	-1E+10	1
4902549	63	C	05/08/2022	11:03	-131.687	47.470	0	283.10	0	5.7460	0	33.8810	0	26.703	0	280.546	0	96.0	4	31.5	4	-1E+10	1	-1E+10	1	-1E+10	1	-1E+10	1	-1E+10	1	-1E+10	1
4902549	63	C	05/08/2022	11:03	-131.687	47.470	0	284.00	0	5.7380	0	33.8810	0	26.704	0	281.437	0	95.5	4	31.3	4	-1E+10	1	-1E+10	1	-1E+10	1	-1E+10	1	-1E+10	1	-1E+10	1
4902549	63	C	05/08/2022	11:03	-131.687	47.470	0	284.90	0	5.7380	0	33.8870	0	26.709	0	282.328	0	95.0	4	31.2	4	-1E+10	1	-1E+10	1	-1E+10	1	-1E+10	1	-1E+10	1	-1E+10	1
4902549	63	C	05/08/2022	11:03	-131.687	47.470	0	285.80	0	5.7390	0	33.8880	0	26.709	0	283.220	0	94.6	4	31.1	4	-1E+10	1	-1E+10	1	-1E+10	1	-1E+10	1	-1E+10	1	-1E+10	1
4902549	63	C	05/08/2022	11:03	-131.687	47.470	0	286.70	0	5.7420	0	33.8890	0	26.710	0	284.111	0	94.2	4	30.9	4	-1E+10	1	-1E+10	1	-1E+10	1	-1E+10	1	-1E+10	1	-1E+10	1
4902549	63	C	05/08/2022	11:03	-131.687	47.470	0	287.60	0	5.7370	0	33.8920	0	26.713	0	285.002	0	93.8	4	30.8	4	-1E+10	1	-1E+10	1	-1E+10	1	-1E+10	1	-1E+10	1	-1E+10	1
4902549	63	C	05/08/2022	11:03	-131.687	47.470	0	288.90	0	5.7320	0	33.8890	0	26.711	0	286.289	0	93.0	4	30.5	4	-1E+10	1	-1E+10	1	-1E+10	1	-1E+10	1	-1E+10	1	-1E+10	1
4902549	63	C	05/08/2022	11:03	-131.687	47.470	0	290.40	0	5.7300	0	33.8890	0	26.711	0	287.775	0	92.2	4	30.3	4	-1E+10	1	-1E+10	1	-1E+10	1	-1E+10	1	-1E+10	1	-1E+10	1
4902549	63	C	05/08/2022	11:03	-131.687	47.470	0	291.30	0	5.7200	0	33.8890	0	26.713	0	288.666	0	91.6	4	30.1	4	-1E+10	1	-1E+10	1	-1E+10	1	-1E+10	1	-1E+10	1	-1E+10	1
4902549	63	C	05/08/2022	11:03	-131.687	47.470	0	292.20	0	5.6990	0	33.8890	0	26.715	0	289.557	0	91.0	4	29.9	4	-1E+10	1	-1E+10	1	-1E+10	1	-1E+10	1	-1E+10	1	-1E+10	1
4902549	63	C	05/08/2022	11:03	-131.687	47.470	0	293.10	0	5.6930	0	33.8920	0	26.718	0	290.449	0	90.4	4	29.7	4	-1E+10	1	-1E+10	1	-1E+10	1	-1E+10	1	-1E+10	1	-1E+10	1
4902549	63	C	05/08/2022	11:03	-131.687	47.470	0	294.00	0	5.6920	0	33.8930	0	26.719	0	291.340	0	89.8	4	29.5	4	-1E+10	1	-1E+10	1	-1E+10	1	-1E+10	1	-1E+10	1	-1E+10	1
4902549	63	C	05/08/2022	11:03	-131.687	47.470	0	295.00	0	5.6910	0	33.8930	0	26.719	0	292.330	0	89.2	4	29.2	4	-1E+10	1	-1E+10	1	-1E+10	1	-1E+10	1	-1E+10	1	-1E+10	1
4902549	63	C	05/08/2022	11:03	-131.687	47.470	0	295.90	0	5.6830	0	33.8970	0	26.723	0	293.221	0	88.5	4	29.0	4	-1E+10	1	-1E+10	1	-1E+10	1	-1E+10	1	-1E+10	1	-1E+10	1
4902549	63	C	05/08/2022	11:03	-131.687	47.470	0	296.80	0	5.6680	0	33.8950	0	26.724	0	294.112	0	87.8	4	28.8	4	-1E+10	1	-1E+10	1	-1E+10	1	-1E+10	1	-1E+10	1	-1E+10	1
4902549	63	C	05/08/2022	11:03	-131.687	47.470	0	297.70	0	5.6650	0	33.8960	0	26.725	0	295.004	0	87.1	4	28.5	4	-1E+10	1	-1E+10	1	-1E+10	1	-1E+10	1	-1E+10	1	-1E+10	1
4902549	63	C	05/08/2022	11:03	-131.687	47.470	0	298.60	0	5.6590	0	33.8970	0	26.726	0	295.895	0	86.4	4	28.3	4	-1E+10	1	-1E+10	1	-1E+10	1	-1E+10	1	-1E+10	1	-1E+10	1
4902549	63	C	05/08/2022	11:03	-131.687	47.470	0	299.90	0	5.6470	0	33.8980	0	26.729	0	297.182	0	85.4	4	28.0	4	-1E+10	1	-1E+10	1	-1E+10	1	-1E+10	1	-1E+10	1	-1E+10	1
4902549	63	C	05/08/2022	11:03	-131.687	47.470	0	301.30	0	5.6440	0	33.9020	0	26.732	0	298.568	0	84.6	4	27.7	4	-1E+10	1	-1E+10	1	-1E+10	1	-1E+10	1	-1E+10	1	-1E+10	1
4902549	63	C	05/08/2022	11:03	-131.687	47.470	0	302.20	0	5.6310	0	33.9060	0	26.737	0	299.460	0	84.1	4	27.5	4	-1E+10	1	-1E+10	1	-1E+10	1	-1E+10	1	-1E+10	1	-1E+10	1
4902549	63	C	05/08/2022	11:03	-131.687	47.470	0	303.10	0	5.6090	0	33.9040	0	26.738	0	300.351	0	83.5	4	27.3	4	-1E+10	1	-1E+10	1	-1E+10	1	-1E+10	1	-1E+10	1	-1E+10	1
4902549	63	C	05/08/2022	11:03	-131.687	47.470	0	304.10	0	5.5900	0	33.9050	0	26.741	0	301.341	0	83.0	4	27.2	4	-1E+10	1	-1E+10	1	-1E+10	1	-1E+10	1	-1E+10	1	-1E+10	1
4902549	63	C	05/08/2022	11:03	-131.687	47.470	0	305.00	0	5.5810	0	33.9050	0	26.742	0	302.232	0	82.6	4	27.0	4	-1E+10	1	-1E+10	1	-1E+10	1	-1E+10	1	-1E+10	1	-1E+10	1
4902549	63	C	05/08/2022	11:03	-131.687	47.470	0	305.90	0	5.5820	0	33.9060	0	26.743	0	303.123	0	82.0	4	26.8	4	-1E+10	1	-1E+10	1	-1E+10	1	-1E+10	1	-1E+10	1	-1E+10	1
4902549	63	C	05/08/2022	11:03	-131.687	47.470	0	306.80	0	5.5650	0	33.9060	0	26.745	0	304.015	0	81.6	4	26.7	4	-1E+10	1	-1E+10	1	-1E+10	1	-1E+10	1	-1E+10	1	-1E+10	1
4902549	63	C	05/08/2022	11:03	-131.687	47.470	0	307.70	0	5.5590	0	33.9060	0	26.746	0	304.906	0	81.1	4	26.5	4	-1E+10	1	-1E+10	1	-1E+10	1	-1E+10	1	-1E+10	1	-1E+10	1
4902549	63	C	05/08/2022	11:03	-131.687	47.470	0	308.60	0	5.5470	0	33.9070	0	26.748	0	305.797	0	80.6	4	26.3	4	-1E+10	1	-1E+10	1	-1E+10	1	-1E+10	1	-1E+10	1	-1E+10	1
4902549	63	C	05/08/2022	11:03	-131.687	47.470	0	309.60	0	5.4960	0	33.9110	0	26.757	0	306.787	0	80.3	4	26.2	4	-1E+10	1	-1E+10	1	-1E+10	1	-1E+10	1	-1E+10	1	-1E+10	1
4902549	63	C	05/08/2022	11:03	-131.687	47.470	0	310.90	0	5.4860	0	33.9110	0	26.758	0	308.074	0	80.0	4	26.1	4	-1E+10	1	-1E+10	1	-1E+10	1	-1E+10	1	-1E+10	1	-1E+10	1
4902549	63	C	05/08/2022	11:03	-131.687	47.470	0	312.30	0	5.4860	0	33.9110	0	26.758	0	309.461	0	79.5	4	26.0	4	-1E+10	1	-1E+10	1	-1E+10	1	-1E+10	1	-1E+10	1	-1E+10	1
4902549	63	C	05/08/2022	11:03	-131.687	47.470	0	313.20	0	5.4860	0	33.9120	0	26.759	0	310.352	0	79.2	4	25.9	4	-1E+10	1	-1E+10	1	-1E+10	1	-1E+10	1	-1E+10	1	-1E+10	1
4902549	63	C	05/08/2022	11:03	-131.687	47.470	0	314.20	0	5.4850	0	33.9120	0	26.759	0	311.342	0	78.8	4	25.7	4	-1E+10	1	-1E+10	1	-1E+10	1	-1E+10	1	-1E+10	1	-1E+10	1
4902549	63	C	05/08/2022	11:03	-131.687	47.470	0	315.10	0	5.4840	0	33.9120	0	26.759	0	312.233	0	78.4	4	25.6	4	-1E+10	1	-1E+10	1	-1E+10	1	-1E+10	1	-1E+10	1	-1E+10	1
4902549	63	C	05/08/2022	11:03	-131.687	47.470	0	316.10	0	5.4810	0	33.9120	0	26.760	0	313.223	0	78.0	4	25.5	4	-1E+10	1	-1E+10	1	-1E+10	1	-1E+10	1	-1E+10	1	-1E+10	1
4902549	63	C	05/08/2022	11:03	-131.687	47.470	0	317.00	0	5.4730	0	33.9130	0	26.761	0	314.114	0	77.6	4	25.3	4	-1E+10	1	-1E+10	1	-1E+10	1	-1E+10	1	-1E+10	1	-1E+10	1
4902549	63	C	05/08/2022	11:03	-131.687	47.470	0	317.90	0	5.4630	0	33.9140	0	26.763	0	315.005	0	77.2	4	25.2	4	-1E+10	1	-1E+10	1	-1E+10	1	-1E+10	1	-1E+10	1	-1E+10	1
4902549	63	C	05/08/2022	11:03	-131.687	47.470	0	318.90	0	5.4460	0	33.9160	0	26.767	0	315.995	0	76.8	4	25.1	4	-1E+10	1	-1E+10	1	-1E+10	1	-1E+10	1	-1E+10	1	-1E+10	1
4902549	63	C	05/08/2022	11:03	-131.687	47.470	0	319.80	0	5.4410	0	33.9160	0	26.768	0	316.887	0	76.4	4	24.9	4	-1E+10	1	-1E+10	1	-1E+10	1	-1E+10	1	-1E+10	1	-1E+10	1
4902549	63	C	05/08/2022	11:03	-131.687	47.470	0	320.70	0	5.4360	0	33.9180	0	26.770	0	317.778	0	76.1	4	24.8	4	-1E+10	1	-1E+10	1	-1E+10	1	-1E+10	1	-1E+10	1	-1E+10	1
4902549	63	C	05/08/2022	11:03	-131.687	47.470	0	321.70	0	5.4380	0	33.9180	0	26.770	0	318.768	0	75.8	4	24.7	4	-1E+10	1	-1E+10	1	-1E+10	1	-1E+10	1	-1E+10	1	-1E+10	1
4902549	63	C	05/08/2022	11:03	-131.687	47.470	0	322.60	0	5.4400	0	33.9190	0	26.770	0	319.659	0	75.5	4	24.6	4	-1E+10	1	-1E+10	1	-1E+10	1	-1E+10	1	-1E+10	1	-1E+10	1
4902549	63	C	05/08/2022	11:03	-131.687	47.470	0	323.60	0	5.4390	0	33.9200	0	26.771	0	320.649	0	75.1	4	24.5	4	-1E+10	1	-1E+10	1	-1E+10	1	-1E+10	1	-1E+10	1	-1E+10	1
4902549	63	C	05/08/2022	11:03	-131.687	47.470	0	324.90	0	5.4380	0	33.9190	0	26.770	0	321.936	0	74.5	4	24.3	4	-1E+10	1	-1E+10	1	-1E+10	1	-1E+10	1	-1E+10	1	-1E+10	1
4902549	63	C	05/08/2022	11:03	-131.687	47.470	0	326.30	0	5.4380	0	33.9210	0	26.772	0	323.322	0	73.8	4	24.1	4	-1E+10	1	-1E+10	1	-1E+10	1	-1E+10	1	-1E+10	1	-1E+10	1
4902549	63	C	05/08/2022	11:03	-131.687	47.470	0	327.20	0	5.4350	0	33.9230	0	26.774	0	324.213	0	73.5	4	24.0	4	-1E+10	1	-1E+10	1	-1E+10	1	-1E+10	1	-1E+10	1	-1E+10	1
4902549	63	C	05/08/2022	11:03	-131.687	47.470	0	328.20	0	5.4270	0	33.9260	0	26.777	0	325.203	0	73.3	4	23.9	4	-1E+10	1	-1E+10	1	-1E+10	1	-1E+10	1	-1E+10	1	-1E+10	1
4902549	63	C	05/08/2022	11:03	-131.687	47.470	0	329.10	0	5.4240	0	33.9270	0	26.778	0	326.095	0	73.0	4	23.8	4	-1E+10	1	-1E+10	1	-1E+10	1	-1E+10	1	-1E+10	1	-1E+10	1
4902549	63	C	05/08/2022	11:03	-131.687	47.470	0	330.00	0	5.4240	0	33.9270	0	26.779	0	326.986	0	72.8	4	23.7	4	-1E+10	1	-1E+10	1	-1E+10	1	-1E+10	1	-1E+10	1	-1E+10	1
4902549	63	C	05/08/2022	11:03	-131.687	47.470	0	330.90	0	5.4220	0	33.9280	0	26.780	0	327.877	0	72.6	4	23.7	4	-1E+10	1	-1E+10	1	-1E+10	1	-1E+10	1	-1E+10	1	-1E+10	1
4902549	63	C	05/08/2022	11:03	-131.687	47.470	0	331.90	0	5.4200	0	33.9290	0	26.781	0	328.867	0	72.3	4	23.6	4	-1E+10	1	-1E+10	1	-1E+10	1	-1E+10	1	-1E+10	1	-1E+10	1
4902549	63	C	05/08/2022	11:03	-131.687	47.470	0	332.80	0	5.4170	0	33.9290	0	26.781	0	329.758	0	72.1	4	23.5	4	-1E+10	1	-1E+10	1	-1E+10	1	-1E+10	1	-1E+10	1	-1E+10	1
4902549	63	C	05/08/2022	11:03	-131.687	47.470	0	333.80	0	5.4140	0	33.9290	0	26.781	0	330.748	0	71.9	4	23.4	4	-1E+10	1	-1E+10	1	-1E+10	1	-1E+10	1	-1E+10	1	-1E+10	1
4902549	63	C	05/08/2022	11:03	-131.687	47.470	0	334.70	0	5.4100	0	33.9290	0	26.782	0	331.639	0	71.7	4	23.4	4	-1E+10	1	-1E+10	1	-1E+10	1	-1E+10	1	-1E+10	1	-1E+10	1
4902549	63	C	05/08/2022	11:03	-131.687	47.470	0	335.70	0	5.4100	0	33.9300	0	26.783	0	332.629	0	71.4	4	23.3	4	-1E+10	1	-1E+10	1	-1E+10	1	-1E+10	1	-1E+10	1	-1E+10	1
4902549	63	C	05/08/2022	11:03	-131.687	47.470	0	336.70	0	5.3930	0	33.9300	0	26.785	0	333.619	0	71.2	4	23.2	4	-1E+10	1	-1E+10	1	-1E+10	1	-1E+10	1	-1E+10	1	-1E+10	1
4902549	63	C	05/08/2022	11:03	-131.687	47.470	0	337.60	0	5.3780	0	33.9300	0	26.786	0	334.510	0	70.9	4	23.1	4	-1E+10	1	-1E+10	1	-1E+10	1	-1E+10	1	-1E+10	1	-1E+10	1
4902549	63	C	05/08/2022	11:03	-131.687	47.470	0	338.60	0	5.3640	0	33.9280	0	26.786	0	335.500	0	70.6	4	23.0	4	-1E+10	1	-1E+10	1	-1E+10	1	-1E+10	1	-1E+10	1	-1E+10	1
4902549	63	C	05/08/2022	11:03	-131.687	47.470	0	339.50	0	5.3430	0	33.9270	0	26.788	0	336.391	0	70.1	4	22.8	4	-1E+10	1	-1E+10	1	-1E+10	1	-1E+10	1	-1E+10	1	-1E+10	1
4902549	63	C	05/08/2022	11:03	-131.687	47.470	0	340.50	0	5.3390	0	33.9300	0	26.791	0	337.381	0	69.7	4	22.7	4	-1E+10	1	-1E+10	1	-1E+10	1	-1E+10	1	-1E+10	1	-1E+10	1
4902549	63	C	05/08/2022	11:03	-131.687	47.470	0	341.90	0	5.3570	0	33.9350	0	26.793	0	338.767	0	69.4	4	22.6	4	-1E+10	1	-1E+10	1	-1E+10	1	-1E+10	1	-1E+10	1	-1E+10	1
4902549	63	C	05/08/2022	11:03	-131.687	47.470	0	343.40	0	5.3280	0	33.9350	0	26.796	0	340.252	0	69.2	4	22.5	4	-1E+10	1	-1E+10	1	-1E+10	1	-1E+10	1	-1E+10	1	-1E+10	1
4902549	63	C	05/08/2022	11:03	-131.687	47.470	0	344.30	0	5.3270	0	33.9340	0	26.796	0	341.143	0	69.1	4	22.5	4	-1E+10	1	-1E+10	1	-1E+10	1	-1E+10	1	-1E+10	1	-1E+10	1
4902549	63	C	05/08/2022	11:03	-131.687	47.470	0	345.30	0	5.3190	0	33.9350	0	26.797	0	342.133	0	68.9	4	22.4	4	-1E+10	1	-1E+10	1	-1E+10	1	-1E+10	1	-1E+10	1	-1E+10	1
4902549	63	C	05/08/2022	11:03	-131.687	47.470	0	346.30	0	5.2720	0	33.9310	0	26.800	0	343.123	0	68.8	4	22.3	4	-1E+10	1	-1E+10	1	-1E+10	1	-1E+10	1	-1E+10	1	-1E+10	1
4902549	63	C	05/08/2022	11:03	-131.687	47.470	0	347.20	0	5.2580	0	33.9310	0	26.801	0	344.014	0	68.4	4	22.2	4	-1E+10	1	-1E+10	1	-1E+10	1	-1E+10	1	-1E+10	1	-1E+10	1
4902549	63	C	05/08/2022	11:03	-131.687	47.470	0	348.20	0	5.2510	0	33.9310	0	26.802	0	345.004	0	68.0	4	22.1	4	-1E+10	1	-1E+10	1	-1E+10	1	-1E+10	1	-1E+10	1	-1E+10	1
4902549	63	C	05/08/2022	11:03	-131.687	47.470	0	349.20	0	5.2470	0	33.9310	0	26.803	0	345.994	0	67.6	4	21.9	4	-1E+10	1	-1E+10	1	-1E+10	1	-1E+10	1	-1E+10	1	-1E+10	1
4902549	63	C	05/08/2022	11:03	-131.687	47.470	0	350.20	0	5.2560	0	33.9340	0	26.804	0	346.984	0	67.3	4	21.8	4	-1E+10	1	-1E+10	1	-1E+10	1	-1E+10	1	-1E+10	1	-1E+10	1
4902549	63	C	05/08/2022	11:03	-131.687	47.470	0	353.10	0	5.2300	0	33.9370	0	26.809	0	349.855	0	66.7	4	21.7	4	-1E+10	1	-1E+10	1	-1E+10	1	-1E+10	1	-1E+10	1	-1E+10	1
4902549	63	C	05/08/2022	11:03	-131.687	47.470	0	358.10	0	5.2030	0	33.9390	0	26.814	0	354.805	0	66.0	4	21.4	4	-1E+10	1	-1E+10	1	-1E+10	1	-1E+10	1	-1E+10	1	-1E+10	1
4902549	63	C	05/08/2022	11:03	-131.687	47.470	0	363.30	0	5.1760	0	33.9400	0	26.818	0	359.953	0	65.1	4	21.1	4	-1E+10	1	-1E+10	1	-1E+10	1	-1E+10	1	-1E+10	1	-1E+10	1
4902549	63	C	05/08/2022	11:03	-131.687	47.470	0	367.90	0	5.1570	0	33.9400	0	26.820	0	364.506	0	64.0	4	20.7	4	-1E+10	1	-1E+10	1	-1E+10	1	-1E+10	1	-1E+10	1	-1E+10	1
4902549	63	C	05/08/2022	11:03	-131.687	47.470	0	372.60	0	5.0870	0	33.9410	0	26.829	0	369.159	0	62.8	4	20.3	4	-1E+10	1	-1E+10	1	-1E+10	1	-1E+10	1	-1E+10	1	-1E+10	1
4902549	63	C	05/08/2022	11:03	-131.687	47.470	0	378.00	0	5.0420	0	33.9420	0	26.835	0	374.504	0	60.7	4	19.6	4	-1E+10	1	-1E+10	1	-1E+10	1	-1E+10	1	-1E+10	1	-1E+10	1
4902549	63	C	05/08/2022	11:03	-131.687	47.470	0	382.80	0	5.0350	0	33.9490	0	26.842	0	379.255	0	58.1	4	18.8	4	-1E+10	1	-1E+10	1	-1E+10	1	-1E+10	1	-1E+10	1	-1E+10	1
4902549	63	C	05/08/2022	11:03	-131.687	47.470	0	387.80	0	5.0620	0	33.9610	0	26.848	0	384.204	0	56.7	4	18.3	4	-1E+10	1	-1E+10	1	-1E+10	1	-1E+10	1	-1E+10	1	-1E+10	1
4902549	63	C	05/08/2022	11:03	-131.687	47.470	0	392.90	0	5.0280	0	33.9660	0	26.856	0	389.252	0	56.2	4	18.2	4	-1E+10	1	-1E+10	1	-1E+10	1	-1E+10	1	-1E+10	1	-1E+10	1
4902549	63	C	05/08/2022	11:03	-131.687	47.470	0	398.00	0	4.9770	0	33.9620	0	26.859	0	394.300	0	55.2	4	17.8	4	-1E+10	1	-1E+10	1	-1E+10	1	-1E+10	1	-1E+10	1	-1E+10	1
4902549	63	C	05/08/2022	11:03	-131.687	47.470	0	403.10	0	4.9530	0	33.9660	0	26.865	0	399.348	0	53.9	4	17.4	4	-1E+10	1	-1E+10	1	-1E+10	1	-1E+10	1	-1E+10	1	-1E+10	1
4902549	63	C	05/08/2022	11:03	-131.687	47.470	0	407.60	0	4.9240	0	33.9700	0	26.871	0	403.801	0	52.7	4	17.0	4	-1E+10	1	-1E+10	1	-1E+10	1	-1E+10	1	-1E+10	1	-1E+10	1
4902549	63	C	05/08/2022	11:03	-131.687	47.470	0	412.80	0	4.9010	0	33.9740	0	26.877	0	408.948	0	51.3	4	16.5	4	-1E+10	1	-1E+10	1	-1E+10	1	-1E+10	1	-1E+10	1	-1E+10	1
4902549	63	C	05/08/2022	11:03	-131.687	47.470	0	418.00	0	4.8770	0	33.9800	0	26.884	0	414.094	0	50.1	4	16.1	4	-1E+10	1	-1E+10	1	-1E+10	1	-1E+10	1	-1E+10	1	-1E+10	1
4902549	63	C	05/08/2022	11:03	-131.687	47.470	0	422.60	0	4.8720	0	33.9840	0	26.888	0	418.646	0	49.0	4	15.8	4	-1E+10	1	-1E+10	1	-1E+10	1	-1E+10	1	-1E+10	1	-1E+10	1
4902549	63	C	05/08/2022	11:03	-131.687	47.470	0	427.80	0	4.8420	0	33.9900	0	26.896	0	423.792	0	48.2	4	15.5	4	-1E+10	1	-1E+10	1	-1E+10	1	-1E+10	1	-1E+10	1	-1E+10	1
4902549	63	C	05/08/2022	11:03	-131.687	47.470	0	433.00	0	4.8290	0	33.9910	0	26.899	0	428.938	0	47.6	4	15.3	4	-1E+10	1	-1E+10	1	-1E+10	1	-1E+10	1	-1E+10	1	-1E+10	1
4902549	63	C	05/08/2022	11:03	-131.687	47.470	0	438.10	0	4.8070	0	33.9910	0	26.901	0	433.985	0	46.6	4	15.0	4	-1E+10	1	-1E+10	1	-1E+10	1	-1E+10	1	-1E+10	1	-1E+10	1
4902549	63	C	05/08/2022	11:03	-131.687	47.470	0	443.20	0	4.7700	0	33.9970	0	26.910	0	439.032	0	45.4	4	14.6	4	-1E+10	1	-1E+10	1	-1E+10	1	-1E+10	1	-1E+10	1	-1E+10	1
4902549	63	C	05/08/2022	11:03	-131.687	47.470	0	447.70	0	4.7380	0	34.0010	0	26.917	0	443.485	0	44.6	4	14.3	4	-1E+10	1	-1E+10	1	-1E+10	1	-1E+10	1	-1E+10	1	-1E+10	1
4902549	63	C	05/08/2022	11:03	-131.687	47.470	0	452.80	0	4.7060	0	34.0040	0	26.923	0	448.531	0	43.7	4	14.0	4	-1E+10	1	-1E+10	1	-1E+10	1	-1E+10	1	-1E+10	1	-1E+10	1
4902549	63	C	05/08/2022	11:03	-131.687	47.470	0	457.90	0	4.6770	0	34.0080	0	26.929	0	453.578	0	42.5	4	13.6	4	-1E+10	1	-1E+10	1	-1E+10	1	-1E+10	1	-1E+10	1	-1E+10	1
4902549	63	C	05/08/2022	11:03	-131.687	47.470	0	462.80	0	4.6450	0	34.0110	0	26.935	0	458.426	0	41.3	4	13.2	4	-1E+10	1	-1E+10	1	-1E+10	1	-1E+10	1	-1E+10	1	-1E+10	1
4902549	63	C	05/08/2022	11:03	-131.687	47.470	0	467.70	0	4.6120	0	34.0160	0	26.943	0	463.274	0	40.0	4	12.8	4	-1E+10	1	-1E+10	1	-1E+10	1	-1E+10	1	-1E+10	1	-1E+10	1
4902549	63	C	05/08/2022	11:03	-131.687	47.470	0	472.70	0	4.5900	0	34.0190	0	26.947	0	468.221	0	38.5	4	12.3	4	-1E+10	1	-1E+10	1	-1E+10	1	-1E+10	1	-1E+10	1	-1E+10	1
4902549	63	C	05/08/2022	11:03	-131.687	47.470	0	478.00	0	4.6180	0	34.0270	0	26.951	0	473.465	0	36.0	4	11.5	4	-1E+10	1	-1E+10	1	-1E+10	1	-1E+10	1	-1E+10	1	-1E+10	1
4902549	63	C	05/08/2022	11:03	-131.687	47.470	0	482.80	0	4.6340	0	34.0410	0	26.960	0	478.214	0	34.7	4	11.1	4	-1E+10	1	-1E+10	1	-1E+10	1	-1E+10	1	-1E+10	1	-1E+10	1
4902549	63	C	05/08/2022	11:03	-131.687	47.470	0	487.80	0	4.6150	0	34.0460	0	26.966	0	483.161	0	33.7	4	10.8	4	-1E+10	1	-1E+10	1	-1E+10	1	-1E+10	1	-1E+10	1	-1E+10	1
4902549	63	C	05/08/2022	11:03	-131.687	47.470	0	492.90	0	4.5990	0	34.0500	0	26.971	0	488.206	0	32.7	4	10.5	4	-1E+10	1	-1E+10	1	-1E+10	1	-1E+10	1	-1E+10	1	-1E+10	1
4902549	63	C	05/08/2022	11:03	-131.687	47.470	0	497.80	0	4.5850	0	34.0550	0	26.977	0	493.054	0	31.8	4	10.2	4	-1E+10	1	-1E+10	1	-1E+10	1	-1E+10	1	-1E+10	1	-1E+10	1
4902549	63	C	05/08/2022	11:03	-131.687	47.470	0	502.60	0	4.5760	0	34.0590	0	26.981	0	497.802	0	30.9	4	9.9	4	-1E+10	1	-1E+10	1	-1E+10	1	-1E+10	1	-1E+10	1	-1E+10	1
4902549	63	C	05/08/2022	11:03	-131.687	47.470	0	507.90	0	4.5670	0	34.0630	0	26.985	0	503.045	0	30.2	4	9.7	4	-1E+10	1	-1E+10	1	-1E+10	1	-1E+10	1	-1E+10	1	-1E+10	1
4902549	63	C	05/08/2022	11:03	-131.687	47.470	0	513.20	0	4.5560	0	34.0650	0	26.988	0	508.288	0	29.4	4	9.4	4	-1E+10	1	-1E+10	1	-1E+10	1	-1E+10	1	-1E+10	1	-1E+10	1
4902549	63	C	05/08/2022	11:03	-131.687	47.470	0	518.00	0	4.5410	0	34.0700	0	26.994	0	513.036	0	28.3	4	9.0	4	-1E+10	1	-1E+10	1	-1E+10	1	-1E+10	1	-1E+10	1	-1E+10	1
4902549	63	C	05/08/2022	11:03	-131.687	47.470	0	522.90	0	4.5320	0	34.0740	0	26.998	0	517.883	0	27.3	4	8.7	4	-1E+10	1	-1E+10	1	-1E+10	1	-1E+10	1	-1E+10	1	-1E+10	1
4902549	63	C	05/08/2022	11:03	-131.687	47.470	0	527.90	0	4.5210	0	34.0790	0	27.003	0	522.829	0	26.1	4	8.4	4	-1E+10	1	-1E+10	1	-1E+10	1	-1E+10	1	-1E+10	1	-1E+10	1
4902549	63	C	05/08/2022	11:03	-131.687	47.470	0	533.00	0	4.5030	0	34.0850	0	27.010	0	527.873	0	25.0	4	8.0	4	-1E+10	1	-1E+10	1	-1E+10	1	-1E+10	1	-1E+10	1	-1E+10	1
4902549	63	C	05/08/2022	11:03	-131.687	47.470	0	538.10	0	4.4850	0	34.0900	0	27.016	0	532.918	0	23.8	4	7.6	4	-1E+10	1	-1E+10	1	-1E+10	1	-1E+10	1	-1E+10	1	-1E+10	1
4902549	63	C	05/08/2022	11:03	-131.687	47.470	0	543.00	0	4.4590	0	34.0990	0	27.026	0	537.764	0	23.1	4	7.4	4	-1E+10	1	-1E+10	1	-1E+10	1	-1E+10	1	-1E+10	1	-1E+10	1
4902549	63	C	05/08/2022	11:03	-131.687	47.470	0	547.90	0	4.4540	0	34.1010	0	27.028	0	542.611	0	22.5	4	7.2	4	-1E+10	1	-1E+10	1	-1E+10	1	-1E+10	1	-1E+10	1	-1E+10	1
4902549	63	C	05/08/2022	11:03	-131.687	47.470	0	552.80	0	4.4380	0	34.1050	0	27.033	0	547.457	0	21.8	4	7.0	4	-1E+10	1	-1E+10	1	-1E+10	1	-1E+10	1	-1E+10	1	-1E+10	1
4902549	63	C	05/08/2022	11:03	-131.687	47.470	0	558.00	0	4.4050	0	34.1070	0	27.038	0	552.600	0	21.0	4	6.7	4	-1E+10	1	-1E+10	1	-1E+10	1	-1E+10	1	-1E+10	1	-1E+10	1
4902549	63	C	05/08/2022	11:03	-131.687	47.470	0	563.20	0	4.3920	0	34.1130	0	27.044	0	557.742	0	19.9	4	6.3	4	-1E+10	1	-1E+10	1	-1E+10	1	-1E+10	1	-1E+10	1	-1E+10	1
4902549	63	C	05/08/2022	11:03	-131.687	47.470	0	568.00	0	4.3800	0	34.1200	0	27.051	0	562.489	0	19.1	4	6.1	4	-1E+10	1	-1E+10	1	-1E+10	1	-1E+10	1	-1E+10	1	-1E+10	1
4902549	63	C	05/08/2022	11:03	-131.687	47.470	0	573.00	0	4.3740	0	34.1250	0	27.056	0	567.434	0	18.4	4	5.9	4	-1E+10	1	-1E+10	1	-1E+10	1	-1E+10	1	-1E+10	1	-1E+10	1
4902549	63	C	05/08/2022	11:03	-131.687	47.470	0	578.00	0	4.3350	0	34.1300	0	27.064	0	572.379	0	17.8	4	5.7	4	-1E+10	1	-1E+10	1	-1E+10	1	-1E+10	1	-1E+10	1	-1E+10	1
4902549	63	C	05/08/2022	11:03	-131.687	47.470	0	583.10	0	4.3330	0	34.1350	0	27.068	0	577.422	0	17.2	4	5.5	4	-1E+10	1	-1E+10	1	-1E+10	1	-1E+10	1	-1E+10	1	-1E+10	1
4902549	63	C	05/08/2022	11:03	-131.687	47.470	0	587.90	0	4.3000	0	34.1360	0	27.072	0	582.168	0	16.5	4	5.2	4	-1E+10	1	-1E+10	1	-1E+10	1	-1E+10	1	-1E+10	1	-1E+10	1
4902549	63	C	05/08/2022	11:03	-131.687	47.470	0	593.00	0	4.2960	0	34.1450	0	27.080	0	587.211	0	15.8	4	5.0	4	-1E+10	1	-1E+10	1	-1E+10	1	-1E+10	1	-1E+10	1	-1E+10	1
4902549	63	C	05/08/2022	11:03	-131.687	47.470	0	598.10	0	4.2980	0	34.1490	0	27.083	0	592.254	0	15.2	4	4.8	4	-1E+10	1	-1E+10	1	-1E+10	1	-1E+10	1	-1E+10	1	-1E+10	1
4902549	63	C	05/08/2022	11:03	-131.687	47.470	0	602.90	0	4.2990	0	34.1510	0	27.084	0	597.001	0	14.5	4	4.6	4	-1E+10	1	-1E+10	1	-1E+10	1	-1E+10	1	-1E+10	1	-1E+10	1
4902549	63	C	05/08/2022	11:03	-131.687	47.470	0	607.70	0	4.3020	0	34.1620	0	27.093	0	601.747	0	13.8	4	4.4	4	-1E+10	1	-1E+10	1	-1E+10	1	-1E+10	1	-1E+10	1	-1E+10	1
4902549	63	C	05/08/2022	11:03	-131.687	47.470	0	612.70	0	4.2950	0	34.1660	0	27.097	0	606.690	0	13.6	4	4.3	4	-1E+10	1	-1E+10	1	-1E+10	1	-1E+10	1	-1E+10	1	-1E+10	1
4902549	63	C	05/08/2022	11:03	-131.687	47.470	0	618.00	0	4.2880	0	34.1680	0	27.099	0	611.931	0	13.3	4	4.2	4	-1E+10	1	-1E+10	1	-1E+10	1	-1E+10	1	-1E+10	1	-1E+10	1
4902549	63	C	05/08/2022	11:03	-131.687	47.470	0	623.30	0	4.2640	0	34.1710	0	27.104	0	617.171	0	13.0	4	4.1	4	-1E+10	1	-1E+10	1	-1E+10	1	-1E+10	1	-1E+10	1	-1E+10	1
4902549	63	C	05/08/2022	11:03	-131.687	47.470	0	628.20	0	4.2440	0	34.1740	0	27.109	0	622.015	0	12.7	4	4.0	4	-1E+10	1	-1E+10	1	-1E+10	1	-1E+10	1	-1E+10	1	-1E+10	1
4902549	63	C	05/08/2022	11:03	-131.687	47.470	0	633.10	0	4.2230	0	34.1780	0	27.114	0	626.860	0	12.2	4	3.9	4	-1E+10	1	-1E+10	1	-1E+10	1	-1E+10	1	-1E+10	1	-1E+10	1
4902549	63	C	05/08/2022	11:03	-131.687	47.470	0	638.10	0	4.2000	0	34.1830	0	27.120	0	631.803	0	11.9	4	3.8	4	-1E+10	1	-1E+10	1	-1E+10	1	-1E+10	1	-1E+10	1	-1E+10	1
4902549	63	C	05/08/2022	11:03	-131.687	47.470	0	643.10	0	4.1830	0	34.1870	0	27.125	0	636.746	0	11.6	4	3.7	4	-1E+10	1	-1E+10	1	-1E+10	1	-1E+10	1	-1E+10	1	-1E+10	1
4902549	63	C	05/08/2022	11:03	-131.687	47.470	0	648.10	0	4.1610	0	34.1910	0	27.131	0	641.689	0	11.5	4	3.7	4	-1E+10	1	-1E+10	1	-1E+10	1	-1E+10	1	-1E+10	1	-1E+10	1
4902549	63	C	05/08/2022	11:03	-131.687	47.470	0	653.10	0	4.1400	0	34.1910	0	27.133	0	646.631	0	11.4	4	3.6	4	-1E+10	1	-1E+10	1	-1E+10	1	-1E+10	1	-1E+10	1	-1E+10	1
4902549	63	C	05/08/2022	11:03	-131.687	47.470	0	658.10	0	4.1160	0	34.1940	0	27.138	0	651.574	0	11.1	4	3.5	4	-1E+10	1	-1E+10	1	-1E+10	1	-1E+10	1	-1E+10	1	-1E+10	1
4902549	63	C	05/08/2022	11:03	-131.687	47.470	0	663.10	0	4.1030	0	34.1970	0	27.142	0	656.517	0	10.9	4	3.4	4	-1E+10	1	-1E+10	1	-1E+10	1	-1E+10	1	-1E+10	1	-1E+10	1
4902549	63	C	05/08/2022	11:03	-131.687	47.470	0	668.20	0	4.0830	0	34.2010	0	27.147	0	661.558	0	10.6	4	3.4	4	-1E+10	1	-1E+10	1	-1E+10	1	-1E+10	1	-1E+10	1	-1E+10	1
4902549	63	C	05/08/2022	11:03	-131.687	47.470	0	673.20	0	4.0680	0	34.2050	0	27.152	0	666.500	0	10.3	4	3.3	4	-1E+10	1	-1E+10	1	-1E+10	1	-1E+10	1	-1E+10	1	-1E+10	1
4902549	63	C	05/08/2022	11:03	-131.687	47.470	0	677.90	0	4.0590	0	34.2080	0	27.155	0	671.146	0	10.1	4	3.2	4	-1E+10	1	-1E+10	1	-1E+10	1	-1E+10	1	-1E+10	1	-1E+10	1
4902549	63	C	05/08/2022	11:03	-131.687	47.470	0	682.60	0	4.0460	0	34.2120	0	27.160	0	675.792	0	9.7	4	3.1	4	-1E+10	1	-1E+10	1	-1E+10	1	-1E+10	1	-1E+10	1	-1E+10	1
4902549	63	C	05/08/2022	11:03	-131.687	47.470	0	688.00	0	4.0250	0	34.2200	0	27.168	0	681.129	0	9.3	4	2.9	4	-1E+10	1	-1E+10	1	-1E+10	1	-1E+10	1	-1E+10	1	-1E+10	1
4902549	63	C	05/08/2022	11:03	-131.687	47.470	0	692.90	0	4.0080	0	34.2250	0	27.174	0	685.972	0	9.2	4	2.9	4	-1E+10	1	-1E+10	1	-1E+10	1	-1E+10	1	-1E+10	1	-1E+10	1
4902549	63	C	05/08/2022	11:03	-131.687	47.470	0	697.80	0	4.0040	0	34.2270	0	27.176	0	690.815	0	9.1	4	2.9	4	-1E+10	1	-1E+10	1	-1E+10	1	-1E+10	1	-1E+10	1	-1E+10	1
4902549	63	C	05/08/2022	11:03	-131.687	47.470	0	702.80	0	4.0000	0	34.2280	0	27.177	0	695.756	0	9.0	4	2.8	4	-1E+10	1	-1E+10	1	-1E+10	1	-1E+10	1	-1E+10	1	-1E+10	1
4902549	63	C	05/08/2022	11:03	-131.687	47.470	0	707.70	0	3.9900	0	34.2300	0	27.180	0	700.599	0	8.9	4	2.8	4	-1E+10	1	-1E+10	1	-1E+10	1	-1E+10	1	-1E+10	1	-1E+10	1
4902549	63	C	05/08/2022	11:03	-131.687	47.470	0	712.90	0	3.9850	0	34.2320	0	27.182	0	705.738	0	8.8	4	2.8	4	-1E+10	1	-1E+10	1	-1E+10	1	-1E+10	1	-1E+10	1	-1E+10	1
4902549	63	C	05/08/2022	11:03	-131.687	47.470	0	717.60	0	3.9770	0	34.2330	0	27.184	0	710.383	0	8.6	4	2.7	4	-1E+10	1	-1E+10	1	-1E+10	1	-1E+10	1	-1E+10	1	-1E+10	1
4902549	63	C	05/08/2022	11:03	-131.687	47.470	0	722.90	0	3.9650	0	34.2360	0	27.187	0	715.620	0	8.5	4	2.7	4	-1E+10	1	-1E+10	1	-1E+10	1	-1E+10	1	-1E+10	1	-1E+10	1
4902549	63	C	05/08/2022	11:03	-131.687	47.470	0	728.20	0	3.9440	0	34.2400	0	27.193	0	720.858	0	8.3	4	2.6	4	-1E+10	1	-1E+10	1	-1E+10	1	-1E+10	1	-1E+10	1	-1E+10	1
4902549	63	C	05/08/2022	11:03	-131.687	47.470	0	733.20	0	3.9240	0	34.2450	0	27.199	0	725.799	0	8.2	4	2.6	4	-1E+10	1	-1E+10	1	-1E+10	1	-1E+10	1	-1E+10	1	-1E+10	1
4902549	63	C	05/08/2022	11:03	-131.687	47.470	0	738.20	0	3.9010	0	34.2490	0	27.204	0	730.740	0	8.1	4	2.5	4	-1E+10	1	-1E+10	1	-1E+10	1	-1E+10	1	-1E+10	1	-1E+10	1
4902549	63	C	05/08/2022	11:03	-131.687	47.470	0	743.30	0	3.8780	0	34.2510	0	27.208	0	735.779	0	8.0	4	2.5	4	-1E+10	1	-1E+10	1	-1E+10	1	-1E+10	1	-1E+10	1	-1E+10	1
4902549	63	C	05/08/2022	11:03	-131.687	47.470	0	748.00	0	3.8700	0	34.2520	0	27.210	0	740.423	0	7.9	4	2.5	4	-1E+10	1	-1E+10	1	-1E+10	1	-1E+10	1	-1E+10	1	-1E+10	1
4902549	63	C	05/08/2022	11:03	-131.687	47.470	0	752.70	0	3.8670	0	34.2550	0	27.213	0	745.067	0	7.8	4	2.5	4	-1E+10	1	-1E+10	1	-1E+10	1	-1E+10	1	-1E+10	1	-1E+10	1
4902549	63	C	05/08/2022	11:03	-131.687	47.470	0	757.90	0	3.8590	0	34.2580	0	27.216	0	750.205	0	7.8	4	2.5	4	-1E+10	1	-1E+10	1	-1E+10	1	-1E+10	1	-1E+10	1	-1E+10	1
4902549	63	C	05/08/2022	11:03	-131.687	47.470	0	763.20	0	3.8320	0	34.2590	0	27.219	0	755.442	0	7.9	4	2.5	4	-1E+10	1	-1E+10	1	-1E+10	1	-1E+10	1	-1E+10	1	-1E+10	1
4902549	63	C	05/08/2022	11:03	-131.687	47.470	0	768.00	0	3.8140	0	34.2600	0	27.222	0	760.184	0	7.9	4	2.5	4	-1E+10	1	-1E+10	1	-1E+10	1	-1E+10	1	-1E+10	1	-1E+10	1
4902549	63	C	05/08/2022	11:03	-131.687	47.470	0	772.70	0	3.7950	0	34.2620	0	27.226	0	764.828	0	7.9	4	2.5	4	-1E+10	1	-1E+10	1	-1E+10	1	-1E+10	1	-1E+10	1	-1E+10	1
4902549	63	C	05/08/2022	11:03	-131.687	47.470	0	778.10	0	3.7840	0	34.2620	0	27.227	0	770.163	0	7.9	4	2.5	4	-1E+10	1	-1E+10	1	-1E+10	1	-1E+10	1	-1E+10	1	-1E+10	1
4902549	63	C	05/08/2022	11:03	-131.687	47.470	0	782.80	0	3.7750	0	34.2620	0	27.228	0	774.806	0	7.8	4	2.5	4	-1E+10	1	-1E+10	1	-1E+10	1	-1E+10	1	-1E+10	1	-1E+10	1
4902549	63	C	05/08/2022	11:03	-131.687	47.470	0	788.00	0	3.7590	0	34.2640	0	27.231	0	779.943	0	7.7	4	2.4	4	-1E+10	1	-1E+10	1	-1E+10	1	-1E+10	1	-1E+10	1	-1E+10	1
4902549	63	C	05/08/2022	11:03	-131.687	47.470	0	793.20	0	3.7380	0	34.2680	0	27.236	0	785.080	0	7.7	4	2.4	4	-1E+10	1	-1E+10	1	-1E+10	1	-1E+10	1	-1E+10	1	-1E+10	1
4902549	63	C	05/08/2022	11:03	-131.687	47.470	0	798.00	0	3.7190	0	34.2710	0	27.240	0	789.822	0	7.7	4	2.4	4	-1E+10	1	-1E+10	1	-1E+10	1	-1E+10	1	-1E+10	1	-1E+10	1
4902549	63	C	05/08/2022	11:03	-131.687	47.470	0	802.80	0	3.7080	0	34.2710	0	27.242	0	794.564	0	7.7	4	2.4	4	-1E+10	1	-1E+10	1	-1E+10	1	-1E+10	1	-1E+10	1	-1E+10	1
4902549	63	C	05/08/2022	11:03	-131.687	47.470	0	807.80	0	3.6800	0	34.2720	0	27.245	0	799.503	0	7.7	4	2.4	4	-1E+10	1	-1E+10	1	-1E+10	1	-1E+10	1	-1E+10	1	-1E+10	1
4902549	63	C	05/08/2022	11:03	-131.687	47.470	0	812.70	0	3.6660	0	34.2730	0	27.247	0	804.343	0	7.6	4	2.4	4	-1E+10	1	-1E+10	1	-1E+10	1	-1E+10	1	-1E+10	1	-1E+10	1
4902549	63	C	05/08/2022	11:03	-131.687	47.470	0	817.80	0	3.6600	0	34.2750	0	27.250	0	809.381	0	7.5	4	2.4	4	-1E+10	1	-1E+10	1	-1E+10	1	-1E+10	1	-1E+10	1	-1E+10	1
4902549	63	C	05/08/2022	11:03	-131.687	47.470	0	822.90	0	3.6530	0	34.2780	0	27.253	0	814.418	0	7.5	4	2.3	4	-1E+10	1	-1E+10	1	-1E+10	1	-1E+10	1	-1E+10	1	-1E+10	1
4902549	63	C	05/08/2022	11:03	-131.687	47.470	0	828.00	0	3.6230	0	34.2800	0	27.257	0	819.456	0	7.4	4	2.3	4	-1E+10	1	-1E+10	1	-1E+10	1	-1E+10	1	-1E+10	1	-1E+10	1
4902549	63	C	05/08/2022	11:03	-131.687	47.470	0	833.10	0	3.6150	0	34.2830	0	27.260	0	824.493	0	7.4	4	2.3	4	-1E+10	1	-1E+10	1	-1E+10	1	-1E+10	1	-1E+10	1	-1E+10	1
4902549	63	C	05/08/2022	11:03	-131.687	47.470	0	838.20	0	3.6080	0	34.2840	0	27.262	0	829.530	0	7.4	4	2.3	4	-1E+10	1	-1E+10	1	-1E+10	1	-1E+10	1	-1E+10	1	-1E+10	1
4902549	63	C	05/08/2022	11:03	-131.687	47.470	0	843.20	0	3.5930	0	34.2860	0	27.265	0	834.469	0	7.3	4	2.3	4	-1E+10	1	-1E+10	1	-1E+10	1	-1E+10	1	-1E+10	1	-1E+10	1
4902549	63	C	05/08/2022	11:03	-131.687	47.470	0	848.20	0	3.5840	0	34.2890	0	27.268	0	839.407	0	7.3	4	2.3	4	-1E+10	1	-1E+10	1	-1E+10	1	-1E+10	1	-1E+10	1	-1E+10	1
4902549	63	C	05/08/2022	11:03	-131.687	47.470	0	853.20	0	3.5800	0	34.2900	0	27.270	0	844.345	0	7.3	4	2.3	4	-1E+10	1	-1E+10	1	-1E+10	1	-1E+10	1	-1E+10	1	-1E+10	1
4902549	63	C	05/08/2022	11:03	-131.687	47.470	0	858.20	0	3.5690	0	34.2930	0	27.273	0	849.283	0	7.4	4	2.3	4	-1E+10	1	-1E+10	1	-1E+10	1	-1E+10	1	-1E+10	1	-1E+10	1
4902549	63	C	05/08/2022	11:03	-131.687	47.470	0	863.10	0	3.5210	0	34.2920	0	27.277	0	854.122	0	7.6	4	2.4	4	-1E+10	1	-1E+10	1	-1E+10	1	-1E+10	1	-1E+10	1	-1E+10	1
4902549	63	C	05/08/2022	11:03	-131.687	47.470	0	868.20	0	3.5020	0	34.2940	0	27.280	0	859.158	0	7.6	4	2.4	4	-1E+10	1	-1E+10	1	-1E+10	1	-1E+10	1	-1E+10	1	-1E+10	1
4902549	63	C	05/08/2022	11:03	-131.687	47.470	0	872.90	0	3.4930	0	34.2940	0	27.281	0	863.800	0	7.7	4	2.4	4	-1E+10	1	-1E+10	1	-1E+10	1	-1E+10	1	-1E+10	1	-1E+10	1
4902549	63	C	05/08/2022	11:03	-131.687	47.470	0	877.60	0	3.4730	0	34.2940	0	27.283	0	868.441	0	7.6	4	2.4	4	-1E+10	1	-1E+10	1	-1E+10	1	-1E+10	1	-1E+10	1	-1E+10	1
4902549	63	C	05/08/2022	11:03	-131.687	47.470	0	882.60	0	3.4630	0	34.2970	0	27.287	0	873.378	0	7.6	4	2.4	4	-1E+10	1	-1E+10	1	-1E+10	1	-1E+10	1	-1E+10	1	-1E+10	1
4902549	63	C	05/08/2022	11:03	-131.687	47.470	0	887.70	0	3.4460	0	34.2990	0	27.290	0	878.414	0	7.6	4	2.4	4	-1E+10	1	-1E+10	1	-1E+10	1	-1E+10	1	-1E+10	1	-1E+10	1
4902549	63	C	05/08/2022	11:03	-131.687	47.470	0	892.90	0	3.4320	0	34.2990	0	27.291	0	883.549	0	7.6	4	2.4	4	-1E+10	1	-1E+10	1	-1E+10	1	-1E+10	1	-1E+10	1	-1E+10	1
4902549	63	C	05/08/2022	11:03	-131.687	47.470	0	898.00	0	3.4250	0	34.3000	0	27.293	0	888.585	0	7.5	4	2.3	4	-1E+10	1	-1E+10	1	-1E+10	1	-1E+10	1	-1E+10	1	-1E+10	1
4902549	63	C	05/08/2022	11:03	-131.687	47.470	0	903.20	0	3.4240	0	34.3020	0	27.294	0	893.719	0	7.4	4	2.3	4	-1E+10	1	-1E+10	1	-1E+10	1	-1E+10	1	-1E+10	1	-1E+10	1
4902549	63	C	05/08/2022	11:03	-131.687	47.470	0	907.90	0	3.4160	0	34.3050	0	27.298	0	898.360	0	7.3	4	2.3	4	-1E+10	1	-1E+10	1	-1E+10	1	-1E+10	1	-1E+10	1	-1E+10	1
4902549	63	C	05/08/2022	11:03	-131.687	47.470	0	912.70	0	3.4030	0	34.3080	0	27.301	0	903.099	0	7.2	4	2.2	4	-1E+10	1	-1E+10	1	-1E+10	1	-1E+10	1	-1E+10	1	-1E+10	1
4902549	63	C	05/08/2022	11:03	-131.687	47.470	0	918.00	0	3.3950	0	34.3100	0	27.304	0	908.332	0	7.1	4	2.2	4	-1E+10	1	-1E+10	1	-1E+10	1	-1E+10	1	-1E+10	1	-1E+10	1
4902549	63	C	05/08/2022	11:03	-131.687	47.470	0	922.90	0	3.3830	0	34.3150	0	27.309	0	913.170	0	7.0	4	2.2	4	-1E+10	1	-1E+10	1	-1E+10	1	-1E+10	1	-1E+10	1	-1E+10	1
4902549	63	C	05/08/2022	11:03	-131.687	47.470	0	927.80	0	3.3730	0	34.3180	0	27.312	0	918.007	0	6.9	4	2.2	4	-1E+10	1	-1E+10	1	-1E+10	1	-1E+10	1	-1E+10	1	-1E+10	1
4902549	63	C	05/08/2022	11:03	-131.687	47.470	0	932.80	0	3.3560	0	34.3210	0	27.316	0	922.943	0	6.9	4	2.1	4	-1E+10	1	-1E+10	1	-1E+10	1	-1E+10	1	-1E+10	1	-1E+10	1
4902549	63	C	05/08/2022	11:03	-131.687	47.470	0	937.70	0	3.3470	0	34.3230	0	27.319	0	927.781	0	6.8	4	2.1	4	-1E+10	1	-1E+10	1	-1E+10	1	-1E+10	1	-1E+10	1	-1E+10	1
4902549	63	C	05/08/2022	11:03	-131.687	47.470	0	942.80	0	3.3330	0	34.3260	0	27.322	0	932.815	0	6.8	4	2.1	4	-1E+10	1	-1E+10	1	-1E+10	1	-1E+10	1	-1E+10	1	-1E+10	1
4902549	63	C	05/08/2022	11:03	-131.687	47.470	0	947.90	0	3.3160	0	34.3300	0	27.327	0	937.850	0	6.7	4	2.1	4	-1E+10	1	-1E+10	1	-1E+10	1	-1E+10	1	-1E+10	1	-1E+10	1
4902549	63	C	05/08/2022	11:03	-131.687	47.470	0	953.10	0	3.3060	0	34.3320	0	27.330	0	942.983	0	6.7	4	2.1	4	-1E+10	1	-1E+10	1	-1E+10	1	-1E+10	1	-1E+10	1	-1E+10	1
4902549	63	C	05/08/2022	11:03	-131.687	47.470	0	957.90	0	3.3020	0	34.3320	0	27.330	0	947.721	0	6.7	4	2.1	4	-1E+10	1	-1E+10	1	-1E+10	1	-1E+10	1	-1E+10	1	-1E+10	1
4902549	63	C	05/08/2022	11:03	-131.687	47.470	0	962.70	0	3.2970	0	34.3330	0	27.331	0	952.459	0	6.7	4	2.1	4	-1E+10	1	-1E+10	1	-1E+10	1	-1E+10	1	-1E+10	1	-1E+10	1
4902549	63	C	05/08/2022	11:03	-131.687	47.470	0	967.60	0	3.2920	0	34.3350	0	27.334	0	957.296	0	6.7	4	2.1	4	-1E+10	1	-1E+10	1	-1E+10	1	-1E+10	1	-1E+10	1	-1E+10	1
4902549	63	C	05/08/2022	11:03	-131.687	47.470	0	972.90	0	3.2840	0	34.3360	0	27.335	0	962.527	0	6.6	4	2.1	4	-1E+10	1	-1E+10	1	-1E+10	1	-1E+10	1	-1E+10	1	-1E+10	1
4902549	63	C	05/08/2022	11:03	-131.687	47.470	0	978.20	0	3.2760	0	34.3380	0	27.338	0	967.759	0	6.6	4	2.0	4	-1E+10	1	-1E+10	1	-1E+10	1	-1E+10	1	-1E+10	1	-1E+10	1
4902549	63	C	05/08/2022	11:03	-131.687	47.470	0	983.10	0	3.2550	0	34.3440	0	27.344	0	972.595	0	6.5	4	2.0	4	-1E+10	1	-1E+10	1	-1E+10	1	-1E+10	1	-1E+10	1	-1E+10	1
4902549	63	C	05/08/2022	11:03	-131.687	47.470	0	988.00	0	3.2390	0	34.3470	0	27.348	0	977.431	0	6.5	4	2.0	4	-1E+10	1	-1E+10	1	-1E+10	1	-1E+10	1	-1E+10	1	-1E+10	1
4902549	63	C	05/08/2022	11:03	-131.687	47.470	0	993.00	0	3.2290	0	34.3500	0	27.352	0	982.366	0	6.5	4	2.0	4	-1E+10	1	-1E+10	1	-1E+10	1	-1E+10	1	-1E+10	1	-1E+10	1
4902549	63	C	05/08/2022	11:03	-131.687	47.470	0	998.10	0	3.2270	0	34.3510	0	27.353	0	987.399	0	6.5	4	2.0	4	-1E+10	1	-1E+10	1	-1E+10	1	-1E+10	1	-1E+10	1	-1E+10	1
4902549	63	C	05/08/2022	11:03	-131.687	47.470	0	1005.70	0	3.2170	0	34.3530	0	27.355	0	994.900	0	6.4	4	2.0	4	-1E+10	1	-1E+10	1	-1E+10	1	-1E+10	1	-1E+10	1	-1E+10	1
4902549	63	C	05/08/2022	11:03	-131.687	47.470	0	1015.40	0	3.1910	0	34.3600	0	27.363	0	1004.473	0	6.4	4	2.0	4	-1E+10	1	-1E+10	1	-1E+10	1	-1E+10	1	-1E+10	1	-1E+10	1
4902549	63	C	05/08/2022	11:03	-131.687	47.470	0	1025.20	0	3.1640	0	34.3670	0	27.371	0	1014.143	0	6.5	4	2.0	4	-1E+10	1	-1E+10	1	-1E+10	1	-1E+10	1	-1E+10	1	-1E+10	1
4902549	63	C	05/08/2022	11:03	-131.687	47.470	0	1035.30	0	3.1460	0	34.3710	0	27.376	0	1024.110	0	6.6	4	2.0	4	-1E+10	1	-1E+10	1	-1E+10	1	-1E+10	1	-1E+10	1	-1E+10	1
4902549	63	C	05/08/2022	11:03	-131.687	47.470	0	1045.60	0	3.1240	0	34.3760	0	27.382	0	1034.273	0	6.6	4	2.1	4	-1E+10	1	-1E+10	1	-1E+10	1	-1E+10	1	-1E+10	1	-1E+10	1
4902549	63	C	05/08/2022	11:03	-131.687	47.470	0	1055.70	0	3.1050	0	34.3810	0	27.388	0	1044.238	0	6.7	4	2.1	4	-1E+10	1	-1E+10	1	-1E+10	1	-1E+10	1	-1E+10	1	-1E+10	1
4902549	63	C	05/08/2022	11:03	-131.687	47.470	0	1065.50	0	3.0940	0	34.3840	0	27.392	0	1053.908	0	6.8	4	2.1	4	-1E+10	1	-1E+10	1	-1E+10	1	-1E+10	1	-1E+10	1	-1E+10	1
4902549	63	C	05/08/2022	11:03	-131.687	47.470	0	1075.40	0	3.0900	0	34.3850	0	27.393	0	1063.675	0	6.8	4	2.1	4	-1E+10	1	-1E+10	1	-1E+10	1	-1E+10	1	-1E+10	1	-1E+10	1
4902549	63	C	05/08/2022	11:03	-131.687	47.470	0	1085.80	0	3.0780	0	34.3880	0	27.396	0	1073.935	0	6.9	4	2.1	4	-1E+10	1	-1E+10	1	-1E+10	1	-1E+10	1	-1E+10	1	-1E+10	1
4902549	63	C	05/08/2022	11:03	-131.687	47.470	0	1095.50	0	3.0570	0	34.3920	0	27.401	0	1083.504	0	7.0	4	2.2	4	-1E+10	1	-1E+10	1	-1E+10	1	-1E+10	1	-1E+10	1	-1E+10	1
4902549	63	C	05/08/2022	11:03	-131.687	47.470	0	1105.30	0	3.0510	0	34.3930	0	27.403	0	1093.171	0	7.1	4	2.2	4	-1E+10	1	-1E+10	1	-1E+10	1	-1E+10	1	-1E+10	1	-1E+10	1
4902549	63	C	05/08/2022	11:03	-131.687	47.470	0	1115.40	0	3.0390	0	34.3960	0	27.406	0	1103.134	0	7.3	4	2.2	4	-1E+10	1	-1E+10	1	-1E+10	1	-1E+10	1	-1E+10	1	-1E+10	1
4902549	63	C	05/08/2022	11:03	-131.687	47.470	0	1125.20	0	3.0200	0	34.4000	0	27.411	0	1112.800	0	7.4	4	2.3	4	-1E+10	1	-1E+10	1	-1E+10	1	-1E+10	1	-1E+10	1	-1E+10	1
4902549	63	C	05/08/2022	11:03	-131.687	47.470	0	1135.10	0	3.0050	0	34.4040	0	27.416	0	1122.564	0	7.6	4	2.3	4	-1E+10	1	-1E+10	1	-1E+10	1	-1E+10	1	-1E+10	1	-1E+10	1
4902549	63	C	05/08/2022	11:03	-131.687	47.470	0	1145.40	0	2.9910	0	34.4080	0	27.421	0	1132.723	0	7.7	4	2.4	4	-1E+10	1	-1E+10	1	-1E+10	1	-1E+10	1	-1E+10	1	-1E+10	1
4902549	63	C	05/08/2022	11:03	-131.687	47.470	0	1155.70	0	2.9670	0	34.4110	0	27.425	0	1142.881	0	7.8	4	2.4	4	-1E+10	1	-1E+10	1	-1E+10	1	-1E+10	1	-1E+10	1	-1E+10	1
4902549	63	C	05/08/2022	11:03	-131.687	47.470	0	1165.50	0	2.9580	0	34.4130	0	27.428	0	1152.545	0	7.9	4	2.4	4	-1E+10	1	-1E+10	1	-1E+10	1	-1E+10	1	-1E+10	1	-1E+10	1
4902549	63	C	05/08/2022	11:03	-131.687	47.470	0	1175.40	0	2.9430	0	34.4150	0	27.431	0	1162.308	0	8.1	4	2.5	4	-1E+10	1	-1E+10	1	-1E+10	1	-1E+10	1	-1E+10	1	-1E+10	1
4902549	63	C	05/08/2022	11:03	-131.687	47.470	0	1185.60	0	2.9270	0	34.4180	0	27.434	0	1172.366	0	8.3	4	2.5	4	-1E+10	1	-1E+10	1	-1E+10	1	-1E+10	1	-1E+10	1	-1E+10	1
4902549	63	C	05/08/2022	11:03	-131.687	47.470	0	1195.30	0	2.9120	0	34.4220	0	27.439	0	1181.930	0	8.6	4	2.6	4	-1E+10	1	-1E+10	1	-1E+10	1	-1E+10	1	-1E+10	1	-1E+10	1
4902549	63	C	05/08/2022	11:03	-131.687	47.470	0	1205.20	0	2.8920	0	34.4270	0	27.445	0	1191.691	0	8.8	4	2.7	4	-1E+10	1	-1E+10	1	-1E+10	1	-1E+10	1	-1E+10	1	-1E+10	1
4902549	63	C	05/08/2022	11:03	-131.687	47.470	0	1215.20	0	2.8750	0	34.4300	0	27.449	0	1201.551	0	9.0	4	2.8	4	-1E+10	1	-1E+10	1	-1E+10	1	-1E+10	1	-1E+10	1	-1E+10	1
4902549	63	C	05/08/2022	11:03	-131.687	47.470	0	1225.30	0	2.8550	0	34.4330	0	27.453	0	1211.508	0	9.1	4	2.8	4	-1E+10	1	-1E+10	1	-1E+10	1	-1E+10	1	-1E+10	1	-1E+10	1
4902549	63	C	05/08/2022	11:03	-131.687	47.470	0	1235.30	0	2.8290	0	34.4350	0	27.457	0	1221.367	0	9.1	4	2.8	4	-1E+10	1	-1E+10	1	-1E+10	1	-1E+10	1	-1E+10	1	-1E+10	1
4902549	63	C	05/08/2022	11:03	-131.687	47.470	0	1245.50	0	2.8220	0	34.4350	0	27.458	0	1231.422	0	9.3	4	2.9	4	-1E+10	1	-1E+10	1	-1E+10	1	-1E+10	1	-1E+10	1	-1E+10	1
4902549	63	C	05/08/2022	11:03	-131.687	47.470	0	1255.10	0	2.8030	0	34.4380	0	27.462	0	1240.885	0	9.7	4	3.0	4	-1E+10	1	-1E+10	1	-1E+10	1	-1E+10	1	-1E+10	1	-1E+10	1
4902549	63	C	05/08/2022	11:03	-131.687	47.470	0	1265.00	0	2.7840	0	34.4420	0	27.467	0	1250.644	0	10.0	4	3.1	4	-1E+10	1	-1E+10	1	-1E+10	1	-1E+10	1	-1E+10	1	-1E+10	1
4902549	63	C	05/08/2022	11:03	-131.687	47.470	0	1275.10	0	2.7630	0	34.4440	0	27.470	0	1260.599	0	10.1	4	3.1	4	-1E+10	1	-1E+10	1	-1E+10	1	-1E+10	1	-1E+10	1	-1E+10	1
4902549	63	C	05/08/2022	11:03	-131.687	47.470	0	1285.20	0	2.7480	0	34.4460	0	27.473	0	1270.553	0	10.4	4	3.2	4	-1E+10	1	-1E+10	1	-1E+10	1	-1E+10	1	-1E+10	1	-1E+10	1
4902549	63	C	05/08/2022	11:03	-131.687	47.470	0	1295.30	0	2.7220	0	34.4500	0	27.479	0	1280.508	0	10.7	4	3.3	4	-1E+10	1	-1E+10	1	-1E+10	1	-1E+10	1	-1E+10	1	-1E+10	1
4902549	63	C	05/08/2022	11:03	-131.687	47.470	0	1305.60	0	2.7150	0	34.4510	0	27.480	0	1290.658	0	10.9	4	3.4	4	-1E+10	1	-1E+10	1	-1E+10	1	-1E+10	1	-1E+10	1	-1E+10	1
4902549	63	C	05/08/2022	11:03	-131.687	47.470	0	1315.50	0	2.6990	0	34.4540	0	27.484	0	1300.415	0	11.3	4	3.5	4	-1E+10	1	-1E+10	1	-1E+10	1	-1E+10	1	-1E+10	1	-1E+10	1
4902549	63	C	05/08/2022	11:03	-131.687	47.470	0	1325.10	0	2.6840	0	34.4570	0	27.488	0	1309.875	0	11.7	4	3.6	4	-1E+10	1	-1E+10	1	-1E+10	1	-1E+10	1	-1E+10	1	-1E+10	1
4902549	63	C	05/08/2022	11:03	-131.687	47.470	0	1335.00	0	2.6710	0	34.4590	0	27.490	0	1319.630	0	12.1	4	3.7	4	-1E+10	1	-1E+10	1	-1E+10	1	-1E+10	1	-1E+10	1	-1E+10	1
4902549	63	C	05/08/2022	11:03	-131.687	47.470	0	1345.00	0	2.6480	0	34.4630	0	27.496	0	1329.483	0	12.6	4	3.9	4	-1E+10	1	-1E+10	1	-1E+10	1	-1E+10	1	-1E+10	1	-1E+10	1
4902549	63	C	05/08/2022	11:03	-131.687	47.470	0	1355.10	0	2.6310	0	34.4660	0	27.500	0	1339.435	0	13.0	4	4.0	4	-1E+10	1	-1E+10	1	-1E+10	1	-1E+10	1	-1E+10	1	-1E+10	1
4902549	63	C	05/08/2022	11:03	-131.687	47.470	0	1365.40	0	2.6120	0	34.4690	0	27.504	0	1349.583	0	13.4	4	4.1	4	-1E+10	1	-1E+10	1	-1E+10	1	-1E+10	1	-1E+10	1	-1E+10	1
4902549	63	C	05/08/2022	11:03	-131.687	47.470	0	1375.70	0	2.5970	0	34.4710	0	27.507	0	1359.730	0	13.9	4	4.2	4	-1E+10	1	-1E+10	1	-1E+10	1	-1E+10	1	-1E+10	1	-1E+10	1
4902549	63	C	05/08/2022	11:03	-131.687	47.470	0	1385.50	0	2.5820	0	34.4740	0	27.510	0	1369.385	0	14.4	4	4.4	4	-1E+10	1	-1E+10	1	-1E+10	1	-1E+10	1	-1E+10	1	-1E+10	1
4902549	63	C	05/08/2022	11:03	-131.687	47.470	0	1395.60	0	2.5700	0	34.4770	0	27.514	0	1379.334	0	14.9	4	4.6	4	-1E+10	1	-1E+10	1	-1E+10	1	-1E+10	1	-1E+10	1	-1E+10	1
4902549	63	C	05/08/2022	11:03	-131.687	47.470	0	1405.60	0	2.5570	0	34.4790	0	27.517	0	1389.185	0	15.1	4	4.6	4	-1E+10	1	-1E+10	1	-1E+10	1	-1E+10	1	-1E+10	1	-1E+10	1
4902549	63	C	05/08/2022	11:03	-131.687	47.470	0	1415.20	0	2.5500	0	34.4800	0	27.518	0	1398.641	0	15.4	4	4.7	4	-1E+10	1	-1E+10	1	-1E+10	1	-1E+10	1	-1E+10	1	-1E+10	1
4902549	63	C	05/08/2022	11:03	-131.687	47.470	0	1425.40	0	2.5410	0	34.4820	0	27.520	0	1408.687	0	15.9	4	4.8	4	-1E+10	1	-1E+10	1	-1E+10	1	-1E+10	1	-1E+10	1	-1E+10	1
4902549	63	C	05/08/2022	11:03	-131.687	47.470	0	1435.90	0	2.5240	0	34.4850	0	27.524	0	1419.029	0	16.3	4	5.0	4	-1E+10	1	-1E+10	1	-1E+10	1	-1E+10	1	-1E+10	1	-1E+10	1
4902549	63	C	05/08/2022	11:03	-131.687	47.470	0	1445.30	0	2.5140	0	34.4870	0	27.527	0	1428.287	0	16.8	4	5.1	4	-1E+10	1	-1E+10	1	-1E+10	1	-1E+10	1	-1E+10	1	-1E+10	1
4902549	63	C	05/08/2022	11:03	-131.687	47.470	0	1455.40	0	2.4930	0	34.4900	0	27.531	0	1438.234	0	17.5	4	5.3	4	-1E+10	1	-1E+10	1	-1E+10	1	-1E+10	1	-1E+10	1	-1E+10	1
4902549	63	C	05/08/2022	11:03	-131.687	47.470	0	1465.50	0	2.4870	0	34.4920	0	27.533	0	1448.180	0	17.8	4	5.4	4	-1E+10	1	-1E+10	1	-1E+10	1	-1E+10	1	-1E+10	1	-1E+10	1
4902549	63	C	05/08/2022	11:03	-131.687	47.470	0	1475.30	0	2.4850	0	34.4930	0	27.534	0	1457.830	0	18.1	4	5.5	4	-1E+10	1	-1E+10	1	-1E+10	1	-1E+10	1	-1E+10	1	-1E+10	1
4902549	63	C	05/08/2022	11:03	-131.687	47.470	0	1485.30	0	2.4820	0	34.4940	0	27.535	0	1467.677	0	18.8	4	5.7	4	-1E+10	1	-1E+10	1	-1E+10	1	-1E+10	1	-1E+10	1	-1E+10	1
4902549	63	C	05/08/2022	11:03	-131.687	47.470	0	1495.20	0	2.4770	0	34.4970	0	27.538	0	1477.425	0	19.4	4	5.9	4	-1E+10	1	-1E+10	1	-1E+10	1	-1E+10	1	-1E+10	1	-1E+10	1
4902549	63	C	05/08/2022	11:03	-131.687	47.470	0	1505.30	0	2.4660	0	34.4990	0	27.541	0	1487.369	0	19.7	4	6.0	4	-1E+10	1	-1E+10	1	-1E+10	1	-1E+10	1	-1E+10	1	-1E+10	1
4902549	63	C	05/08/2022	11:03	-131.687	47.470	0	1515.30	0	2.4480	0	34.5000	0	27.543	0	1497.215	0	20.0	4	6.1	4	-1E+10	1	-1E+10	1	-1E+10	1	-1E+10	1	-1E+10	1	-1E+10	1
4902549	63	C	05/08/2022	11:03	-131.687	47.470	0	1525.10	0	2.4160	0	34.5020	0	27.547	0	1506.863	0	20.7	4	6.3	4	-1E+10	1	-1E+10	1	-1E+10	1	-1E+10	1	-1E+10	1	-1E+10	1
4902549	63	C	05/08/2022	11:03	-131.687	47.470	0	1535.00	0	2.3880	0	34.5060	0	27.553	0	1516.609	0	21.6	4	6.6	4	-1E+10	1	-1E+10	1	-1E+10	1	-1E+10	1	-1E+10	1	-1E+10	1
4902549	63	C	05/08/2022	11:03	-131.687	47.470	0	1545.00	0	2.3730	0	34.5090	0	27.557	0	1526.453	0	22.2	4	6.7	4	-1E+10	1	-1E+10	1	-1E+10	1	-1E+10	1	-1E+10	1	-1E+10	1
4902549	63	C	05/08/2022	11:03	-131.687	47.470	0	1555.50	0	2.3600	0	34.5110	0	27.559	0	1536.789	0	22.9	4	7.0	4	-1E+10	1	-1E+10	1	-1E+10	1	-1E+10	1	-1E+10	1	-1E+10	1
4902549	63	C	05/08/2022	11:03	-131.687	47.470	0	1565.70	0	2.3450	0	34.5140	0	27.563	0	1546.829	0	23.4	4	7.1	4	-1E+10	1	-1E+10	1	-1E+10	1	-1E+10	1	-1E+10	1	-1E+10	1
4902549	63	C	05/08/2022	11:03	-131.687	47.470	0	1575.60	0	2.3360	0	34.5150	0	27.565	0	1556.573	0	24.0	4	7.3	4	-1E+10	1	-1E+10	1	-1E+10	1	-1E+10	1	-1E+10	1	-1E+10	1
4902549	63	C	05/08/2022	11:03	-131.687	47.470	0	1585.30	0	2.3260	0	34.5170	0	27.567	0	1566.120	0	24.4	4	7.4	4	-1E+10	1	-1E+10	1	-1E+10	1	-1E+10	1	-1E+10	1	-1E+10	1
4902549	63	C	05/08/2022	11:03	-131.687	47.470	0	1595.10	0	2.3200	0	34.5170	0	27.568	0	1575.765	0	24.8	4	7.5	4	-1E+10	1	-1E+10	1	-1E+10	1	-1E+10	1	-1E+10	1	-1E+10	1
4902549	63	C	05/08/2022	11:03	-131.687	47.470	0	1605.50	0	2.3020	0	34.5200	0	27.572	0	1586.000	0	25.6	4	7.8	4	-1E+10	1	-1E+10	1	-1E+10	1	-1E+10	1	-1E+10	1	-1E+10	1
4902549	63	C	05/08/2022	11:03	-131.687	47.470	0	1615.50	0	2.2900	0	34.5220	0	27.574	0	1595.841	0	26.0	4	7.9	4	-1E+10	1	-1E+10	1	-1E+10	1	-1E+10	1	-1E+10	1	-1E+10	1
4902549	63	C	05/08/2022	11:03	-131.687	47.470	0	1625.50	0	2.2770	0	34.5240	0	27.577	0	1605.682	0	26.6	4	8.1	4	-1E+10	1	-1E+10	1	-1E+10	1	-1E+10	1	-1E+10	1	-1E+10	1
4902549	63	C	05/08/2022	11:03	-131.687	47.470	0	1635.20	0	2.2640	0	34.5250	0	27.579	0	1615.226	0	27.1	4	8.2	4	-1E+10	1	-1E+10	1	-1E+10	1	-1E+10	1	-1E+10	1	-1E+10	1
4902549	63	C	05/08/2022	11:03	-131.687	47.470	0	1645.20	0	2.2550	0	34.5270	0	27.581	0	1625.066	0	27.7	4	8.4	4	-1E+10	1	-1E+10	1	-1E+10	1	-1E+10	1	-1E+10	1	-1E+10	1
4902549	63	C	05/08/2022	11:03	-131.687	47.470	0	1655.30	0	2.2440	0	34.5290	0	27.584	0	1635.003	0	28.4	4	8.6	4	-1E+10	1	-1E+10	1	-1E+10	1	-1E+10	1	-1E+10	1	-1E+10	1
4902549	63	C	05/08/2022	11:03	-131.687	47.470	0	1665.40	0	2.2310	0	34.5310	0	27.586	0	1644.940	0	29.1	4	8.8	4	-1E+10	1	-1E+10	1	-1E+10	1	-1E+10	1	-1E+10	1	-1E+10	1
4902549	63	C	05/08/2022	11:03	-131.687	47.470	0	1675.30	0	2.2200	0	34.5330	0	27.589	0	1654.680	0	29.6	4	9.0	4	-1E+10	1	-1E+10	1	-1E+10	1	-1E+10	1	-1E+10	1	-1E+10	1
4902549	63	C	05/08/2022	11:03	-131.687	47.470	0	1685.30	0	2.2130	0	34.5340	0	27.590	0	1664.518	0	30.4	4	9.2	4	-1E+10	1	-1E+10	1	-1E+10	1	-1E+10	1	-1E+10	1	-1E+10	1
4902549	63	C	05/08/2022	11:03	-131.687	47.470	0	1695.30	0	2.2020	0	34.5360	0	27.593	0	1674.355	0	31.3	4	9.5	4	-1E+10	1	-1E+10	1	-1E+10	1	-1E+10	1	-1E+10	1	-1E+10	1
4902549	63	C	05/08/2022	11:03	-131.687	47.470	0	1705.40	0	2.1900	0	34.5380	0	27.596	0	1684.290	0	31.9	4	9.7	4	-1E+10	1	-1E+10	1	-1E+10	1	-1E+10	1	-1E+10	1	-1E+10	1
4902549	63	C	05/08/2022	11:03	-131.687	47.470	0	1715.70	0	2.1790	0	34.5400	0	27.598	0	1694.422	0	32.5	4	9.8	4	-1E+10	1	-1E+10	1	-1E+10	1	-1E+10	1	-1E+10	1	-1E+10	1
4902549	63	C	05/08/2022	11:03	-131.687	47.470	0	1725.60	0	2.1740	0	34.5410	0	27.599	0	1704.159	0	33.0	4	10.0	4	-1E+10	1	-1E+10	1	-1E+10	1	-1E+10	1	-1E+10	1	-1E+10	1
4902549	63	C	05/08/2022	11:03	-131.687	47.470	0	1735.50	0	2.1620	0	34.5430	0	27.602	0	1713.896	0	33.8	4	10.2	4	-1E+10	1	-1E+10	1	-1E+10	1	-1E+10	1	-1E+10	1	-1E+10	1
4902549	63	C	05/08/2022	11:03	-131.687	47.470	0	1745.50	0	2.1540	0	34.5450	0	27.604	0	1723.731	0	34.3	4	10.4	4	-1E+10	1	-1E+10	1	-1E+10	1	-1E+10	1	-1E+10	1	-1E+10	1
4902549	63	C	05/08/2022	11:03	-131.687	47.470	0	1755.50	0	2.1460	0	34.5460	0	27.606	0	1733.565	0	34.8	4	10.5	4	-1E+10	1	-1E+10	1	-1E+10	1	-1E+10	1	-1E+10	1	-1E+10	1
4902549	63	C	05/08/2022	11:03	-131.687	47.470	0	1765.50	0	2.1420	0	34.5470	0	27.607	0	1743.399	0	35.2	4	10.6	4	-1E+10	1	-1E+10	1	-1E+10	1	-1E+10	1	-1E+10	1	-1E+10	1
4902549	63	C	05/08/2022	11:03	-131.687	47.470	0	1775.60	0	2.1350	0	34.5480	0	27.608	0	1753.331	0	35.7	4	10.8	4	-1E+10	1	-1E+10	1	-1E+10	1	-1E+10	1	-1E+10	1	-1E+10	1
4902549	63	C	05/08/2022	11:03	-131.687	47.470	0	1785.80	0	2.1260	0	34.5490	0	27.610	0	1763.361	0	36.5	4	11.0	4	-1E+10	1	-1E+10	1	-1E+10	1	-1E+10	1	-1E+10	1	-1E+10	1
4902549	63	C	05/08/2022	11:03	-131.687	47.470	0	1795.50	0	2.1130	0	34.5520	0	27.613	0	1772.899	0	37.1	4	11.2	4	-1E+10	1	-1E+10	1	-1E+10	1	-1E+10	1	-1E+10	1	-1E+10	1
4902549	63	C	05/08/2022	11:03	-131.687	47.470	0	1805.20	0	2.1050	0	34.5530	0	27.615	0	1782.436	0	37.7	4	11.4	4	-1E+10	1	-1E+10	1	-1E+10	1	-1E+10	1	-1E+10	1	-1E+10	1
4902549	63	C	05/08/2022	11:03	-131.687	47.470	0	1815.50	0	2.0960	0	34.5550	0	27.617	0	1792.563	0	38.2	4	11.5	4	-1E+10	1	-1E+10	1	-1E+10	1	-1E+10	1	-1E+10	1	-1E+10	1
4902549	63	C	05/08/2022	11:03	-131.687	47.470	0	1825.90	0	2.0860	0	34.5560	0	27.619	0	1802.787	0	38.8	4	11.7	4	-1E+10	1	-1E+10	1	-1E+10	1	-1E+10	1	-1E+10	1	-1E+10	1
4902549	63	C	05/08/2022	11:03	-131.687	47.470	0	1835.30	0	2.0790	0	34.5580	0	27.621	0	1812.028	0	39.7	4	12.0	4	-1E+10	1	-1E+10	1	-1E+10	1	-1E+10	1	-1E+10	1	-1E+10	1
4902549	63	C	05/08/2022	11:03	-131.687	47.470	0	1845.40	0	2.0700	0	34.5590	0	27.623	0	1821.957	0	40.2	4	12.1	4	-1E+10	1	-1E+10	1	-1E+10	1	-1E+10	1	-1E+10	1	-1E+10	1
4902549	63	C	05/08/2022	11:03	-131.687	47.470	0	1855.70	0	2.0600	0	34.5610	0	27.625	0	1832.082	0	40.9	4	12.3	4	-1E+10	1	-1E+10	1	-1E+10	1	-1E+10	1	-1E+10	1	-1E+10	1
4902549	63	C	05/08/2022	11:03	-131.687	47.470	0	1865.60	0	2.0560	0	34.5620	0	27.626	0	1841.813	0	41.6	4	12.6	4	-1E+10	1	-1E+10	1	-1E+10	1	-1E+10	1	-1E+10	1	-1E+10	1
4902549	63	C	05/08/2022	11:03	-131.687	47.470	0	1875.50	0	2.0480	0	34.5640	0	27.629	0	1851.543	0	42.3	4	12.8	4	-1E+10	1	-1E+10	1	-1E+10	1	-1E+10	1	-1E+10	1	-1E+10	1
4902549	63	C	05/08/2022	11:03	-131.687	47.470	0	1885.60	0	2.0380	0	34.5660	0	27.631	0	1861.470	0	43.1	4	13.0	4	-1E+10	1	-1E+10	1	-1E+10	1	-1E+10	1	-1E+10	1	-1E+10	1
4902549	63	C	05/08/2022	11:03	-131.687	47.470	0	1895.70	0	2.0300	0	34.5670	0	27.632	0	1871.397	0	43.9	4	13.2	4	-1E+10	1	-1E+10	1	-1E+10	1	-1E+10	1	-1E+10	1	-1E+10	1
4902549	63	C	05/08/2022	11:03	-131.687	47.470	0	1905.70	0	2.0200	0	34.5690	0	27.635	0	1881.224	0	44.6	4	13.4	4	-1E+10	1	-1E+10	1	-1E+10	1	-1E+10	1	-1E+10	1	-1E+10	1
4902549	63	C	05/08/2022	11:03	-131.687	47.470	0	1915.40	0	2.0120	0	34.5710	0	27.637	0	1890.757	0	45.1	4	13.6	4	-1E+10	1	-1E+10	1	-1E+10	1	-1E+10	1	-1E+10	1	-1E+10	1
4902549	63	C	05/08/2022	11:03	-131.687	47.470	0	1925.10	0	2.0060	0	34.5720	0	27.639	0	1900.289	0	45.8	4	13.8	4	-1E+10	1	-1E+10	1	-1E+10	1	-1E+10	1	-1E+10	1	-1E+10	1
4902549	63	C	05/08/2022	11:03	-131.687	47.470	0	1935.30	0	1.9950	0	34.5740	0	27.641	0	1910.311	0	46.6	4	14.0	4	-1E+10	1	-1E+10	1	-1E+10	1	-1E+10	1	-1E+10	1	-1E+10	1
4902549	63	C	05/08/2022	11:03	-131.687	47.470	0	1945.30	0	1.9900	0	34.5750	0	27.642	0	1920.137	0	47.2	4	14.2	4	-1E+10	1	-1E+10	1	-1E+10	1	-1E+10	1	-1E+10	1	-1E+10	1
4902549	63	C	05/08/2022	11:03	-131.687	47.470	0	1955.10	0	1.9800	0	34.5770	0	27.645	0	1929.766	0	47.9	4	14.4	4	-1E+10	1	-1E+10	1	-1E+10	1	-1E+10	1	-1E+10	1	-1E+10	1
4902549	63	C	05/08/2022	11:03	-131.687	47.470	0	1965.40	0	1.9710	0	34.5780	0	27.646	0	1939.886	0	48.5	4	14.6	4	-1E+10	1	-1E+10	1	-1E+10	1	-1E+10	1	-1E+10	1	-1E+10	1
4902549	63	C	05/08/2022	11:03	-131.687	47.470	0	1975.80	0	1.9650	0	34.5800	0	27.648	0	1950.103	0	48.9	4	14.7	4	-1E+10	1	-1E+10	1	-1E+10	1	-1E+10	1	-1E+10	1	-1E+10	1
4902549	63	C	05/08/2022	11:03	-131.687	47.470	0	1985.70	0	1.9620	0	34.5800	0	27.649	0	1959.829	0	49.1	4	14.8	4	-1E+10	1	-1E+10	1	-1E+10	1	-1E+10	1	-1E+10	1	-1E+10	1
4902549	63	C	05/08/2022	11:03	-131.687	47.470	0	1994.60	0	1.9600	0	34.5810	0	27.650	0	1968.572	0	49.0	4	14.8	4	-1E+10	1	-1E+10	1	-1E+10	1	-1E+10	1	-1E+10	1	-1E+10	1
4902549	63	C	05/08/2022	11:03	-131.687	47.470	0																										
4902549	64	C	05/18/2022	15:54	-131.683	47.506	0	0.30	0	8.8140	0	32.2800	0	25.018	0	0.297	0	-1e10	1	-1e10	1	-1E+10	1	-1E+10	1	-1E+10	1	-1E+10	1	-1E+10	1	-1E+10	1
4902549	64	C	05/18/2022	15:54	-131.683	47.506	0	0.40	0	8.8090	0	32.2780	0	25.017	0	0.397	0	278.1	4	96.8	4	-1E+10	1	-1E+10	1	-1E+10	1	-1E+10	1	-1E+10	1	-1E+10	1
4902549	64	C	05/18/2022	15:54	-131.683	47.506	0	1.10	0	8.8100	0	32.2770	0	25.016	0	1.091	0	278.1	4	96.8	4	-1E+10	1	-1E+10	1	-1E+10	1	-1E+10	1	-1E+10	1	-1E+10	1
4902549	64	C	05/18/2022	15:54	-131.683	47.506	0	2.00	0	8.8110	0	32.2760	0	25.015	0	1.983	0	277.9	4	96.7	4	-1E+10	1	-1E+10	1	-1E+10	1	-1E+10	1	-1E+10	1	-1E+10	1
4902549	64	C	05/18/2022	15:54	-131.683	47.506	0	3.00	0	8.8100	0	32.2780	0	25.017	0	2.975	0	277.9	4	96.7	4	-1E+10	1	-1E+10	1	-1E+10	1	-1E+10	1	-1E+10	1	-1E+10	1
4902549	64	C	05/18/2022	15:54	-131.683	47.506	0	3.80	0	8.8100	0	32.2790	0	25.018	0	3.768	0	277.7	4	96.6	4	-1E+10	1	-1E+10	1	-1E+10	1	-1E+10	1	-1E+10	1	-1E+10	1
4902549	64	C	05/18/2022	15:54	-131.683	47.506	0	4.80	0	8.8100	0	32.2790	0	25.018	0	4.760	0	277.8	4	96.7	4	-1E+10	1	-1E+10	1	-1E+10	1	-1E+10	1	-1E+10	1	-1E+10	1
4902549	64	C	05/18/2022	15:54	-131.683	47.506	0	5.90	0	8.8090	0	32.2800	0	25.019	0	5.851	0	277.8	4	96.7	4	-1E+10	1	-1E+10	1	-1E+10	1	-1E+10	1	-1E+10	1	-1E+10	1
4902549	64	C	05/18/2022	15:54	-131.683	47.506	0	6.30	0	8.8090	0	32.2796	0	25.018	0	6.247	0	277.8	4	96.6	4	-1E+10	1	-1E+10	1	-1E+10	1	-1E+10	1	-1E+10	1	-1E+10	1
4902549	64	C	05/18/2022	15:54	-131.683	47.506	0	7.00	0	8.8090	0	32.2790	0	25.018	0	6.941	0	277.7	4	96.6	4	-1E+10	1	-1E+10	1	-1E+10	1	-1E+10	1	-1E+10	1	-1E+10	1
4902549	64	C	05/18/2022	15:54	-131.683	47.506	0	8.20	0	8.8100	0	32.2790	0	25.018	0	8.131	0	277.7	4	96.6	4	-1E+10	1	-1E+10	1	-1E+10	1	-1E+10	1	-1E+10	1	-1E+10	1
4902549	64	C	05/18/2022	15:54	-131.683	47.506	0	8.90	0	8.8100	0	32.2800	0	25.019	0	8.826	0	277.6	4	96.6	4	-1E+10	1	-1E+10	1	-1E+10	1	-1E+10	1	-1E+10	1	-1E+10	1
4902549	64	C	05/18/2022	15:54	-131.683	47.506	0	9.90	0	8.8100	0	32.2790	0	25.018	0	9.817	0	277.6	4	96.6	4	-1E+10	1	-1E+10	1	-1E+10	1	-1E+10	1	-1E+10	1	-1E+10	1
4902549	64	C	05/18/2022	15:54	-131.683	47.506	0	11.10	0	8.8100	0	32.2790	0	25.018	0	11.007	0	277.6	4	96.6	4	-1E+10	1	-1E+10	1	-1E+10	1	-1E+10	1	-1E+10	1	-1E+10	1
4902549	64	C	05/18/2022	15:54	-131.683	47.506	0	12.30	0	8.8100	0	32.2790	0	25.018	0	12.197	0	277.6	4	96.6	4	-1E+10	1	-1E+10	1	-1E+10	1	-1E+10	1	-1E+10	1	-1E+10	1
4902549	64	C	05/18/2022	15:54	-131.683	47.506	0	13.10	0	8.8110	0	32.2790	0	25.018	0	12.990	0	277.6	4	96.6	4	-1E+10	1	-1E+10	1	-1E+10	1	-1E+10	1	-1E+10	1	-1E+10	1
4902549	64	C	05/18/2022	15:54	-131.683	47.506	0	13.90	0	8.8090	0	32.2790	0	25.018	0	13.784	0	277.5	4	96.5	4	-1E+10	1	-1E+10	1	-1E+10	1	-1E+10	1	-1E+10	1	-1E+10	1
4902549	64	C	05/18/2022	15:54	-131.683	47.506	0	15.00	0	8.8070	0	32.2790	0	25.018	0	14.874	0	277.4	4	96.5	4	-1E+10	1	-1E+10	1	-1E+10	1	-1E+10	1	-1E+10	1	-1E+10	1
4902549	64	C	05/18/2022	15:54	-131.683	47.506	0	16.10	0	8.8090	0	32.2780	0	25.017	0	15.965	0	277.4	4	96.5	4	-1E+10	1	-1E+10	1	-1E+10	1	-1E+10	1	-1E+10	1	-1E+10	1
4902549	64	C	05/18/2022	15:54	-131.683	47.506	0	17.10	0	8.8070	0	32.2790	0	25.018	0	16.957	0	277.4	4	96.5	4	-1E+10	1	-1E+10	1	-1E+10	1	-1E+10	1	-1E+10	1	-1E+10	1
4902549	64	C	05/18/2022	15:54	-131.683	47.506	0	17.90	0	8.8100	0	32.2790	0	25.018	0	17.750	0	277.3	4	96.5	4	-1E+10	1	-1E+10	1	-1E+10	1	-1E+10	1	-1E+10	1	-1E+10	1
4902549	64	C	05/18/2022	15:54	-131.683	47.506	0	18.80	0	8.8050	0	32.2790	0	25.019	0	18.642	0	277.4	4	96.5	4	-1E+10	1	-1E+10	1	-1E+10	1	-1E+10	1	-1E+10	1	-1E+10	1
4902549	64	C	05/18/2022	15:54	-131.683	47.506	0	20.10	0	8.8110	0	32.2790	0	25.018	0	19.931	0	277.4	4	96.5	4	-1E+10	1	-1E+10	1	-1E+10	1	-1E+10	1	-1E+10	1	-1E+10	1
4902549	64	C	05/18/2022	15:54	-131.683	47.506	0	21.10	0	8.8100	0	32.2800	0	25.019	0	20.923	0	277.3	4	96.5	4	-1E+10	1	-1E+10	1	-1E+10	1	-1E+10	1	-1E+10	1	-1E+10	1
4902549	64	C	05/18/2022	15:54	-131.683	47.506	0	22.00	0	8.8080	0	32.2790	0	25.018	0	21.815	0	277.3	4	96.5	4	-1E+10	1	-1E+10	1	-1E+10	1	-1E+10	1	-1E+10	1	-1E+10	1
4902549	64	C	05/18/2022	15:54	-131.683	47.506	0	23.10	0	8.8080	0	32.2790	0	25.018	0	22.906	0	277.2	4	96.4	4	-1E+10	1	-1E+10	1	-1E+10	1	-1E+10	1	-1E+10	1	-1E+10	1
4902549	64	C	05/18/2022	15:54	-131.683	47.506	0	24.00	0	8.8110	0	32.2790	0	25.018	0	23.798	0	277.2	4	96.5	4	-1E+10	1	-1E+10	1	-1E+10	1	-1E+10	1	-1E+10	1	-1E+10	1
4902549	64	C	05/18/2022	15:54	-131.683	47.506	0	25.00	0	8.8090	0	32.2790	0	25.018	0	24.790	0	277.2	4	96.5	4	-1E+10	1	-1E+10	1	-1E+10	1	-1E+10	1	-1E+10	1	-1E+10	1
4902549	64	C	05/18/2022	15:54	-131.683	47.506	0	25.90	0	8.8090	0	32.2790	0	25.018	0	25.682	0	277.2	4	96.4	4	-1E+10	1	-1E+10	1	-1E+10	1	-1E+10	1	-1E+10	1	-1E+10	1
4902549	64	C	05/18/2022	15:54	-131.683	47.506	0	27.00	0	8.8090	0	32.2790	0	25.018	0	26.773	0	277.1	4	96.4	4	-1E+10	1	-1E+10	1	-1E+10	1	-1E+10	1	-1E+10	1	-1E+10	1
4902549	64	C	05/18/2022	15:54	-131.683	47.506	0	28.10	0	8.8090	0	32.2790	0	25.018	0	27.864	0	277.1	4	96.4	4	-1E+10	1	-1E+10	1	-1E+10	1	-1E+10	1	-1E+10	1	-1E+10	1
4902549	64	C	05/18/2022	15:54	-131.683	47.506	0	29.10	0	8.8110	0	32.2790	0	25.018	0	28.855	0	277.0	4	96.4	4	-1E+10	1	-1E+10	1	-1E+10	1	-1E+10	1	-1E+10	1	-1E+10	1
4902549	64	C	05/18/2022	15:54	-131.683	47.506	0	30.00	0	8.8120	0	32.2790	0	25.018	0	29.747	0	276.9	4	96.3	4	-1E+10	1	-1E+10	1	-1E+10	1	-1E+10	1	-1E+10	1	-1E+10	1
4902549	64	C	05/18/2022	15:54	-131.683	47.506	0	30.90	0	8.8060	0	32.2800	0	25.019	0	30.640	0	276.8	4	96.3	4	-1E+10	1	-1E+10	1	-1E+10	1	-1E+10	1	-1E+10	1	-1E+10	1
4902549	64	C	05/18/2022	15:54	-131.683	47.506	0	32.10	0	8.8060	0	32.2790	0	25.019	0	31.830	0	276.8	4	96.3	4	-1E+10	1	-1E+10	1	-1E+10	1	-1E+10	1	-1E+10	1	-1E+10	1
4902549	64	C	05/18/2022	15:54	-131.683	47.506	0	33.00	0	8.8020	0	32.2800	0	25.020	0	32.722	0	277.0	4	96.3	4	-1E+10	1	-1E+10	1	-1E+10	1	-1E+10	1	-1E+10	1	-1E+10	1
4902549	64	C	05/18/2022	15:54	-131.683	47.506	0	33.80	0	8.8060	0	32.2790	0	25.019	0	33.515	0	276.8	4	96.3	4	-1E+10	1	-1E+10	1	-1E+10	1	-1E+10	1	-1E+10	1	-1E+10	1
4902549	64	C	05/18/2022	15:54	-131.683	47.506	0	34.80	0	8.8030	0	32.2790	0	25.019	0	34.507	0	276.9	4	96.3	4	-1E+10	1	-1E+10	1	-1E+10	1	-1E+10	1	-1E+10	1	-1E+10	1
4902549	64	C	05/18/2022	15:54	-131.683	47.506	0	35.80	0	8.8020	0	32.2800	0	25.020	0	35.498	0	276.9	4	96.3	4	-1E+10	1	-1E+10	1	-1E+10	1	-1E+10	1	-1E+10	1	-1E+10	1
4902549	64	C	05/18/2022	15:54	-131.683	47.506	0	36.80	0	8.7980	0	32.2820	0	25.022	0	36.490	0	276.8	4	96.3	4	-1E+10	1	-1E+10	1	-1E+10	1	-1E+10	1	-1E+10	1	-1E+10	1
4902549	64	C	05/18/2022	15:54	-131.683	47.506	0	37.80	0	8.8000	0	32.2800	0	25.021	0	37.481	0	276.7	4	96.3	4	-1E+10	1	-1E+10	1	-1E+10	1	-1E+10	1	-1E+10	1	-1E+10	1
4902549	64	C	05/18/2022	15:54	-131.683	47.506	0	38.80	0	8.7980	0	32.2800	0	25.021	0	38.473	0	276.7	4	96.2	4	-1E+10	1	-1E+10	1	-1E+10	1	-1E+10	1	-1E+10	1	-1E+10	1
4902549	64	C	05/18/2022	15:54	-131.683	47.506	0	39.80	0	8.7990	0	32.2800	0	25.021	0	39.464	0	276.6	4	96.2	4	-1E+10	1	-1E+10	1	-1E+10	1	-1E+10	1	-1E+10	1	-1E+10	1
4902549	64	C	05/18/2022	15:54	-131.683	47.506	0	40.90	0	8.7980	0	32.2790	0	25.020	0	40.555	0	276.6	4	96.2	4	-1E+10	1	-1E+10	1	-1E+10	1	-1E+10	1	-1E+10	1	-1E+10	1
4902549	64	C	05/18/2022	15:54	-131.683	47.506	0	41.80	0	8.7970	0	32.2800	0	25.021	0	41.447	0	276.5	4	96.2	4	-1E+10	1	-1E+10	1	-1E+10	1	-1E+10	1	-1E+10	1	-1E+10	1
4902549	64	C	05/18/2022	15:54	-131.683	47.506	0	43.10	0	8.7960	0	32.2800	0	25.021	0	42.736	0	276.5	4	96.2	4	-1E+10	1	-1E+10	1	-1E+10	1	-1E+10	1	-1E+10	1	-1E+10	1
4902549	64	C	05/18/2022	15:54	-131.683	47.506	0	44.10	0	8.7980	0	32.2810	0	25.022	0	43.727	0	276.3	4	96.1	4	-1E+10	1	-1E+10	1	-1E+10	1	-1E+10	1	-1E+10	1	-1E+10	1
4902549	64	C	05/18/2022	15:54	-131.683	47.506	0	45.00	0	8.8010	0	32.2790	0	25.020	0	44.620	0	276.3	4	96.1	4	-1E+10	1	-1E+10	1	-1E+10	1	-1E+10	1	-1E+10	1	-1E+10	1
4902549	64	C	05/18/2022	15:54	-131.683	47.506	0	46.00	0	8.8000	0	32.2790	0	25.020	0	45.611	0	276.2	4	96.1	4	-1E+10	1	-1E+10	1	-1E+10	1	-1E+10	1	-1E+10	1	-1E+10	1
4902549	64	C	05/18/2022	15:54	-131.683	47.506	0	46.90	0	8.7930	0	32.2800	0	25.022	0	46.503	0	276.2	4	96.0	4	-1E+10	1	-1E+10	1	-1E+10	1	-1E+10	1	-1E+10	1	-1E+10	1
4902549	64	C	05/18/2022	15:54	-131.683	47.506	0	48.00	0	8.7890	0	32.2800	0	25.022	0	47.594	0	276.1	4	96.0	4	-1E+10	1	-1E+10	1	-1E+10	1	-1E+10	1	-1E+10	1	-1E+10	1
4902549	64	C	05/18/2022	15:54	-131.683	47.506	0	49.00	0	8.7890	0	32.2810	0	25.023	0	48.585	0	275.9	4	95.9	4	-1E+10	1	-1E+10	1	-1E+10	1	-1E+10	1	-1E+10	1	-1E+10	1
4902549	64	C	05/18/2022	15:54	-131.683	47.506	0	50.00	0	8.7830	0	32.2810	0	25.024	0	49.577	0	275.9	4	95.9	4	-1E+10	1	-1E+10	1	-1E+10	1	-1E+10	1	-1E+10	1	-1E+10	1
4902549	64	C	05/18/2022	15:54	-131.683	47.506	0	51.00	0	8.7800	0	32.2820	0	25.025	0	50.568	0	275.8	4	95.9	4	-1E+10	1	-1E+10	1	-1E+10	1	-1E+10	1	-1E+10	1	-1E+10	1
4902549	64	C	05/18/2022	15:54	-131.683	47.506	0	52.00	0	8.7840	0	32.2810	0	25.024	0	51.559	0	275.7	4	95.9	4	-1E+10	1	-1E+10	1	-1E+10	1	-1E+10	1	-1E+10	1	-1E+10	1
4902549	64	C	05/18/2022	15:54	-131.683	47.506	0	52.90	0	8.7810	0	32.2830	0	25.026	0	52.452	0	275.5	4	95.8	4	-1E+10	1	-1E+10	1	-1E+10	1	-1E+10	1	-1E+10	1	-1E+10	1
4902549	64	C	05/18/2022	15:54	-131.683	47.506	0	53.90	0	8.7720	0	32.2810	0	25.026	0	53.443	0	275.3	4	95.7	4	-1E+10	1	-1E+10	1	-1E+10	1	-1E+10	1	-1E+10	1	-1E+10	1
4902549	64	C	05/18/2022	15:54	-131.683	47.506	0	55.00	0	8.7580	0	32.2810	0	25.028	0	54.534	0	275.2	4	95.7	4	-1E+10	1	-1E+10	1	-1E+10	1	-1E+10	1	-1E+10	1	-1E+10	1
4902549	64	C	05/18/2022	15:54	-131.683	47.506	0	56.00	0	8.7690	0	32.2800	0	25.026	0	55.525	0	274.8	4	95.5	4	-1E+10	1	-1E+10	1	-1E+10	1	-1E+10	1	-1E+10	1	-1E+10	1
4902549	64	C	05/18/2022	15:54	-131.683	47.506	0	57.10	0	8.7780	0	32.2820	0	25.026	0	56.616	0	274.3	4	95.4	4	-1E+10	1	-1E+10	1	-1E+10	1	-1E+10	1	-1E+10	1	-1E+10	1
4902549	64	C	05/18/2022	15:54	-131.683	47.506	0	57.90	0	8.7610	0	32.2820	0	25.028	0	57.409	0	274.0	4	95.2	4	-1E+10	1	-1E+10	1	-1E+10	1	-1E+10	1	-1E+10	1	-1E+10	1
4902549	64	C	05/18/2022	15:54	-131.683	47.506	0	59.10	0	8.7430	0	32.2810	0	25.030	0	58.598	0	273.7	4	95.1	4	-1E+10	1	-1E+10	1	-1E+10	1	-1E+10	1	-1E+10	1	-1E+10	1
4902549	64	C	05/18/2022	15:54	-131.683	47.506	0	60.20	0	8.7790	0	32.2760	0	25.021	0	59.689	0	272.9	4	94.9	4	-1E+10	1	-1E+10	1	-1E+10	1	-1E+10	1	-1E+10	1	-1E+10	1
4902549	64	C	05/18/2022	15:54	-131.683	47.506	0	60.90	0	8.7340	0	32.2780	0	25.029	0	60.383	0	272.8	4	94.8	4	-1E+10	1	-1E+10	1	-1E+10	1	-1E+10	1	-1E+10	1	-1E+10	1
4902549	64	C	05/18/2022	15:54	-131.683	47.506	0	61.90	0	8.6770	0	32.2840	0	25.043	0	61.374	0	272.3	4	94.5	4	-1E+10	1	-1E+10	1	-1E+10	1	-1E+10	1	-1E+10	1	-1E+10	1
4902549	64	C	05/18/2022	15:54	-131.683	47.506	0	63.00	0	8.6550	0	32.2840	0	25.046	0	62.465	0	271.7	4	94.2	4	-1E+10	1	-1E+10	1	-1E+10	1	-1E+10	1	-1E+10	1	-1E+10	1
4902549	64	C	05/18/2022	15:54	-131.683	47.506	0	64.00	0	8.6140	0	32.2880	0	25.055	0	63.456	0	271.5	4	94.0	4	-1E+10	1	-1E+10	1	-1E+10	1	-1E+10	1	-1E+10	1	-1E+10	1
4902549	64	C	05/18/2022	15:54	-131.683	47.506	0	65.20	0	8.5890	0	32.2860	0	25.058	0	64.646	0	271.1	4	93.9	4	-1E+10	1	-1E+10	1	-1E+10	1	-1E+10	1	-1E+10	1	-1E+10	1
4902549	64	C	05/18/2022	15:54	-131.683	47.506	0	65.80	0	8.5460	0	32.2990	0	25.074	0	65.240	0	270.8	4	93.7	4	-1E+10	1	-1E+10	1	-1E+10	1	-1E+10	1	-1E+10	1	-1E+10	1
4902549	64	C	05/18/2022	15:54	-131.683	47.506	0	66.80	0	8.5180	0	32.2940	0	25.074	0	66.232	0	270.4	4	93.5	4	-1E+10	1	-1E+10	1	-1E+10	1	-1E+10	1	-1E+10	1	-1E+10	1
4902549	64	C	05/18/2022	15:54	-131.683	47.506	0	67.90	0	8.5030	0	32.2970	0	25.079	0	67.322	0	269.8	4	93.2	4	-1E+10	1	-1E+10	1	-1E+10	1	-1E+10	1	-1E+10	1	-1E+10	1
4902549	64	C	05/18/2022	15:54	-131.683	47.506	0	69.00	0	8.4940	0	32.2960	0	25.080	0	68.413	0	269.2	4	93.0	4	-1E+10	1	-1E+10	1	-1E+10	1	-1E+10	1	-1E+10	1	-1E+10	1
4902549	64	C	05/18/2022	15:54	-131.683	47.506	0	69.90	0	8.4830	0	32.2940	0	25.080	0	69.305	0	268.6	4	92.8	4	-1E+10	1	-1E+10	1	-1E+10	1	-1E+10	1	-1E+10	1	-1E+10	1
4902549	64	C	05/18/2022	15:54	-131.683	47.506	0	70.80	0	8.4790	0	32.2980	0	25.084	0	70.197	0	267.8	4	92.5	4	-1E+10	1	-1E+10	1	-1E+10	1	-1E+10	1	-1E+10	1	-1E+10	1
4902549	64	C	05/18/2022	15:54	-131.683	47.506	0	71.70	0	8.4810	0	32.2930	0	25.079	0	71.089	0	266.6	4	92.1	4	-1E+10	1	-1E+10	1	-1E+10	1	-1E+10	1	-1E+10	1	-1E+10	1
4902549	64	C	05/18/2022	15:54	-131.683	47.506	0	72.70	0	8.4550	0	32.2930	0	25.083	0	72.081	0	265.2	4	91.6	4	-1E+10	1	-1E+10	1	-1E+10	1	-1E+10	1	-1E+10	1	-1E+10	1
4902549	64	C	05/18/2022	15:54	-131.683	47.506	0	74.10	0	8.4230	0	32.2950	0	25.090	0	73.468	0	263.2	4	90.8	4	-1E+10	1	-1E+10	1	-1E+10	1	-1E+10	1	-1E+10	1	-1E+10	1
4902549	64	C	05/18/2022	15:54	-131.683	47.506	0	74.90	0	8.4060	0	32.2910	0	25.089	0	74.261	0	261.8	4	90.3	4	-1E+10	1	-1E+10	1	-1E+10	1	-1E+10	1	-1E+10	1	-1E+10	1
4902549	64	C	05/18/2022	15:54	-131.683	47.506	0	75.80	0	8.2720	0	32.3150	0	25.128	0	75.154	0	260.8	4	89.7	4	-1E+10	1	-1E+10	1	-1E+10	1	-1E+10	1	-1E+10	1	-1E+10	1
4902549	64	C	05/18/2022	15:54	-131.683	47.506	0	77.00	0	8.0640	0	32.3260	0	25.166	0	76.343	0	259.7	4	88.9	4	-1E+10	1	-1E+10	1	-1E+10	1	-1E+10	1	-1E+10	1	-1E+10	1
4902549	64	C	05/18/2022	15:54	-131.683	47.506	0	78.20	0	7.9790	0	32.3340	0	25.185	0	77.533	0	258.7	4	88.4	4	-1E+10	1	-1E+10	1	-1E+10	1	-1E+10	1	-1E+10	1	-1E+10	1
4902549	64	C	05/18/2022	15:54	-131.683	47.506	0	78.90	0	7.9410	0	32.3420	0	25.197	0	78.227	0	257.8	4	88.0	4	-1E+10	1	-1E+10	1	-1E+10	1	-1E+10	1	-1E+10	1	-1E+10	1
4902549	64	C	05/18/2022	15:54	-131.683	47.506	0	79.90	0	7.9090	0	32.3540	0	25.211	0	79.218	0	256.0	4	87.4	4	-1E+10	1	-1E+10	1	-1E+10	1	-1E+10	1	-1E+10	1	-1E+10	1
4902549	64	C	05/18/2022	15:54	-131.683	47.506	0	81.10	0	7.9150	0	32.3710	0	25.223	0	80.407	0	254.2	4	86.8	4	-1E+10	1	-1E+10	1	-1E+10	1	-1E+10	1	-1E+10	1	-1E+10	1
4902549	64	C	05/18/2022	15:54	-131.683	47.506	0	81.80	0	7.9110	0	32.3860	0	25.236	0	81.101	0	253.1	4	86.4	4	-1E+10	1	-1E+10	1	-1E+10	1	-1E+10	1	-1E+10	1	-1E+10	1
4902549	64	C	05/18/2022	15:54	-131.683	47.506	0	82.90	0	7.8930	0	32.3990	0	25.248	0	82.192	0	257.8	4	88.0	4	-1E+10	1	-1E+10	1	-1E+10	1	-1E+10	1	-1E+10	1	-1E+10	1
4902549	64	C	05/18/2022	15:54	-131.683	47.506	0	84.00	0	7.8870	0	32.4160	0	25.263	0	83.282	0	256.3	4	87.4	4	-1E+10	1	-1E+10	1	-1E+10	1	-1E+10	1	-1E+10	1	-1E+10	1
4902549	64	C	05/18/2022	15:54	-131.683	47.506	0	84.80	0	7.8620	0	32.4260	0	25.274	0	84.075	0	255.4	4	87.1	4	-1E+10	1	-1E+10	1	-1E+10	1	-1E+10	1	-1E+10	1	-1E+10	1
4902549	64	C	05/18/2022	15:54	-131.683	47.506	0	85.80	0	7.8430	0	32.4310	0	25.281	0	85.066	0	253.8	4	86.5	4	-1E+10	1	-1E+10	1	-1E+10	1	-1E+10	1	-1E+10	1	-1E+10	1
4902549	64	C	05/18/2022	15:54	-131.683	47.506	0	87.00	0	7.7930	0	32.4440	0	25.298	0	86.256	0	252.4	4	85.9	4	-1E+10	1	-1E+10	1	-1E+10	1	-1E+10	1	-1E+10	1	-1E+10	1
4902549	64	C	05/18/2022	15:54	-131.683	47.506	0	87.70	0	7.7770	0	32.4580	0	25.311	0	86.950	0	251.3	4	85.5	4	-1E+10	1	-1E+10	1	-1E+10	1	-1E+10	1	-1E+10	1	-1E+10	1
4902549	64	C	05/18/2022	15:54	-131.683	47.506	0	88.80	0	7.7650	0	32.4690	0	25.322	0	88.040	0	249.7	4	85.0	4	-1E+10	1	-1E+10	1	-1E+10	1	-1E+10	1	-1E+10	1	-1E+10	1
4902549	64	C	05/18/2022	15:54	-131.683	47.506	0	90.00	0	7.7470	0	32.4820	0	25.334	0	89.229	0	247.9	4	84.3	4	-1E+10	1	-1E+10	1	-1E+10	1	-1E+10	1	-1E+10	1	-1E+10	1
4902549	64	C	05/18/2022	15:54	-131.683	47.506	0	90.70	0	7.7390	0	32.4910	0	25.343	0	89.923	0	246.6	4	83.9	4	-1E+10	1	-1E+10	1	-1E+10	1	-1E+10	1	-1E+10	1	-1E+10	1
4902549	64	C	05/18/2022	15:54	-131.683	47.506	0	91.90	0	7.7150	0	32.5250	0	25.373	0	91.113	0	244.9	4	83.3	4	-1E+10	1	-1E+10	1	-1E+10	1	-1E+10	1	-1E+10	1	-1E+10	1
4902549	64	C	05/18/2022	15:54	-131.683	47.506	0	93.10	0	7.6860	0	32.5790	0	25.419	0	92.302	0	243.7	4	82.9	4	-1E+10	1	-1E+10	1	-1E+10	1	-1E+10	1	-1E+10	1	-1E+10	1
4902549	64	C	05/18/2022	15:54	-131.683	47.506	0	93.90	0	7.6840	0	32.5850	0	25.424	0	93.095	0	243.0	4	82.6	4	-1E+10	1	-1E+10	1	-1E+10	1	-1E+10	1	-1E+10	1	-1E+10	1
4902549	64	C	05/18/2022	15:54	-131.683	47.506	0	95.00	0	7.6800	0	32.5910	0	25.430	0	94.185	0	241.9	4	82.2	4	-1E+10	1	-1E+10	1	-1E+10	1	-1E+10	1	-1E+10	1	-1E+10	1
4902549	64	C	05/18/2022	15:54	-131.683	47.506	0	96.20	0	7.6700	0	32.6060	0	25.443	0	95.375	0	240.8	4	81.9	4	-1E+10	1	-1E+10	1	-1E+10	1	-1E+10	1	-1E+10	1	-1E+10	1
4902549	64	C	05/18/2022	15:54	-131.683	47.506	0	96.90	0	7.6700	0	32.6080	0	25.444	0	96.069	0	240.0	4	81.6	4	-1E+10	1	-1E+10	1	-1E+10	1	-1E+10	1	-1E+10	1	-1E+10	1
4902549	64	C	05/18/2022	15:54	-131.683	47.506	0	98.00	0	7.6650	0	32.6130	0	25.449	0	97.159	0	238.7	4	81.2	4	-1E+10	1	-1E+10	1	-1E+10	1	-1E+10	1	-1E+10	1	-1E+10	1
4902549	64	C	05/18/2022	15:54	-131.683	47.506	0	99.10	0	7.6630	0	32.6180	0	25.453	0	98.249	0	237.3	4	80.7	4	-1E+10	1	-1E+10	1	-1E+10	1	-1E+10	1	-1E+10	1	-1E+10	1
4902549	64	C	05/18/2022	15:54	-131.683	47.506	0	100.00	0	7.6620	0	32.6210	0	25.456	0	99.141	0	235.7	4	80.1	4	-1E+10	1	-1E+10	1	-1E+10	1	-1E+10	1	-1E+10	1	-1E+10	1
4902549	64	C	05/18/2022	15:54	-131.683	47.506	0	101.10	0	7.6620	0	32.6250	0	25.459	0	100.232	0	233.6	4	79.4	4	-1E+10	1	-1E+10	1	-1E+10	1	-1E+10	1	-1E+10	1	-1E+10	1
4902549	64	C	05/18/2022	15:54	-131.683	47.506	0	102.00	0	7.6370	0	32.6610	0	25.491	0	101.124	0	231.9	4	78.8	4	-1E+10	1	-1E+10	1	-1E+10	1	-1E+10	1	-1E+10	1	-1E+10	1
4902549	64	C	05/18/2022	15:54	-131.683	47.506	0	102.90	0	7.6160	0	32.6860	0	25.513	0	102.016	0	230.4	4	78.3	4	-1E+10	1	-1E+10	1	-1E+10	1	-1E+10	1	-1E+10	1	-1E+10	1
4902549	64	C	05/18/2022	15:54	-131.683	47.506	0	103.90	0	7.6060	0	32.6980	0	25.524	0	103.007	0	228.3	4	77.5	4	-1E+10	1	-1E+10	1	-1E+10	1	-1E+10	1	-1E+10	1	-1E+10	1
4902549	64	C	05/18/2022	15:54	-131.683	47.506	0	105.10	0	7.5940	0	32.7310	0	25.552	0	104.196	0	224.0	4	76.1	4	-1E+10	1	-1E+10	1	-1E+10	1	-1E+10	1	-1E+10	1	-1E+10	1
4902549	64	C	05/18/2022	15:54	-131.683	47.506	0	106.10	0	7.5620	0	32.8000	0	25.611	0	105.187	0	219.8	4	74.7	4	-1E+10	1	-1E+10	1	-1E+10	1	-1E+10	1	-1E+10	1	-1E+10	1
4902549	64	C	05/18/2022	15:54	-131.683	47.506	0	107.10	0	7.4980	0	32.8820	0	25.684	0	106.179	0	216.2	4	73.4	4	-1E+10	1	-1E+10	1	-1E+10	1	-1E+10	1	-1E+10	1	-1E+10	1
4902549	64	C	05/18/2022	15:54	-131.683	47.506	0	108.00	0	7.4660	0	32.9240	0	25.721	0	107.071	0	212.1	4	71.9	4	-1E+10	1	-1E+10	1	-1E+10	1	-1E+10	1	-1E+10	1	-1E+10	1
4902549	64	C	05/18/2022	15:54	-131.683	47.506	0	108.90	0	7.4650	0	32.9590	0	25.749	0	107.963	0	209.5	4	71.1	4	-1E+10	1	-1E+10	1	-1E+10	1	-1E+10	1	-1E+10	1	-1E+10	1
4902549	64	C	05/18/2022	15:54	-131.683	47.506	0	109.90	0	7.4840	0	32.9740	0	25.758	0	108.954	0	208.0	4	70.6	4	-1E+10	1	-1E+10	1	-1E+10	1	-1E+10	1	-1E+10	1	-1E+10	1
4902549	64	C	05/18/2022	15:54	-131.683	47.506	0	111.00	0	7.4870	0	32.9830	0	25.765	0	110.044	0	206.5	4	70.1	4	-1E+10	1	-1E+10	1	-1E+10	1	-1E+10	1	-1E+10	1	-1E+10	1
4902549	64	C	05/18/2022	15:54	-131.683	47.506	0	111.90	0	7.4620	0	33.0070	0	25.787	0	110.936	0	205.9	4	69.9	4	-1E+10	1	-1E+10	1	-1E+10	1	-1E+10	1	-1E+10	1	-1E+10	1
4902549	64	C	05/18/2022	15:54	-131.683	47.506	0	112.80	0	7.4170	0	33.0640	0	25.838	0	111.828	0	205.7	4	69.8	4	-1E+10	1	-1E+10	1	-1E+10	1	-1E+10	1	-1E+10	1	-1E+10	1
4902549	64	C	05/18/2022	15:54	-131.683	47.506	0	113.90	0	7.4040	0	33.0790	0	25.852	0	112.918	0	205.5	4	69.7	4	-1E+10	1	-1E+10	1	-1E+10	1	-1E+10	1	-1E+10	1	-1E+10	1
4902549	64	C	05/18/2022	15:54	-131.683	47.506	0	114.90	0	7.4020	0	33.0800	0	25.853	0	113.909	0	205.1	4	69.6	4	-1E+10	1	-1E+10	1	-1E+10	1	-1E+10	1	-1E+10	1	-1E+10	1
4902549	64	C	05/18/2022	15:54	-131.683	47.506	0	115.90	0	7.4000	0	33.0820	0	25.855	0	114.900	0	204.7	4	69.4	4	-1E+10	1	-1E+10	1	-1E+10	1	-1E+10	1	-1E+10	1	-1E+10	1
4902549	64	C	05/18/2022	15:54	-131.683	47.506	0	116.80	0	7.3990	0	33.0830	0	25.856	0	115.792	0	204.5	4	69.3	4	-1E+10	1	-1E+10	1	-1E+10	1	-1E+10	1	-1E+10	1	-1E+10	1
4902549	64	C	05/18/2022	15:54	-131.683	47.506	0	117.80	0	7.3970	0	33.0840	0	25.857	0	116.783	0	203.9	4	69.1	4	-1E+10	1	-1E+10	1	-1E+10	1	-1E+10	1	-1E+10	1	-1E+10	1
4902549	64	C	05/18/2022	15:54	-131.683	47.506	0	118.80	0	7.3940	0	33.0860	0	25.859	0	117.775	0	203.4	4	69.0	4	-1E+10	1	-1E+10	1	-1E+10	1	-1E+10	1	-1E+10	1	-1E+10	1
4902549	64	C	05/18/2022	15:54	-131.683	47.506	0	119.80	0	7.3730	0	33.1040	0	25.876	0	118.766	0	203.1	4	68.8	4	-1E+10	1	-1E+10	1	-1E+10	1	-1E+10	1	-1E+10	1	-1E+10	1
4902549	64	C	05/18/2022	15:54	-131.683	47.506	0	120.90	0	7.3700	0	33.1060	0	25.878	0	119.856	0	202.4	4	68.6	4	-1E+10	1	-1E+10	1	-1E+10	1	-1E+10	1	-1E+10	1	-1E+10	1
4902549	64	C	05/18/2022	15:54	-131.683	47.506	0	122.10	0	7.3650	0	33.1090	0	25.881	0	121.045	0	201.6	4	68.3	4	-1E+10	1	-1E+10	1	-1E+10	1	-1E+10	1	-1E+10	1	-1E+10	1
4902549	64	C	05/18/2022	15:54	-131.683	47.506	0	123.10	0	7.3560	0	33.1150	0	25.887	0	122.036	0	201.0	4	68.1	4	-1E+10	1	-1E+10	1	-1E+10	1	-1E+10	1	-1E+10	1	-1E+10	1
4902549	64	C	05/18/2022	15:54	-131.683	47.506	0	123.80	0	7.3540	0	33.1210	0	25.892	0	122.730	0	200.4	4	67.9	4	-1E+10	1	-1E+10	1	-1E+10	1	-1E+10	1	-1E+10	1	-1E+10	1
4902549	64	C	05/18/2022	15:54	-131.683	47.506	0	124.90	0	7.3030	0	33.1660	0	25.935	0	123.820	0	199.8	4	67.7	4	-1E+10	1	-1E+10	1	-1E+10	1	-1E+10	1	-1E+10	1	-1E+10	1
4902549	64	C	05/18/2022	15:54	-131.683	47.506	0	126.00	0	7.2690	0	33.1980	0	25.965	0	124.910	0	199.2	4	67.4	4	-1E+10	1	-1E+10	1	-1E+10	1	-1E+10	1	-1E+10	1	-1E+10	1
4902549	64	C	05/18/2022	15:54	-131.683	47.506	0	127.00	0	7.2680	0	33.2050	0	25.970	0	125.901	0	198.3	4	67.1	4	-1E+10	1	-1E+10	1	-1E+10	1	-1E+10	1	-1E+10	1	-1E+10	1
4902549	64	C	05/18/2022	15:54	-131.683	47.506	0	128.10	0	7.2670	0	33.2180	0	25.981	0	126.991	0	197.5	4	66.8	4	-1E+10	1	-1E+10	1	-1E+10	1	-1E+10	1	-1E+10	1	-1E+10	1
4902549	64	C	05/18/2022	15:54	-131.683	47.506	0	128.80	0	7.2660	0	33.2290	0	25.989	0	127.685	0	196.8	4	66.6	4	-1E+10	1	-1E+10	1	-1E+10	1	-1E+10	1	-1E+10	1	-1E+10	1
4902549	64	C	05/18/2022	15:54	-131.683	47.506	0	129.80	0	7.2650	0	33.2430	0	26.001	0	128.676	0	196.0	4	66.3	4	-1E+10	1	-1E+10	1	-1E+10	1	-1E+10	1	-1E+10	1	-1E+10	1
4902549	64	C	05/18/2022	15:54	-131.683	47.506	0	130.80	0	7.2620	0	33.2640	0	26.017	0	129.667	0	195.2	4	66.1	4	-1E+10	1	-1E+10	1	-1E+10	1	-1E+10	1	-1E+10	1	-1E+10	1
4902549	64	C	05/18/2022	15:54	-131.683	47.506	0	131.80	0	7.2600	0	33.2680	0	26.021	0	130.658	0	194.5	4	65.8	4	-1E+10	1	-1E+10	1	-1E+10	1	-1E+10	1	-1E+10	1	-1E+10	1
4902549	64	C	05/18/2022	15:54	-131.683	47.506	0	133.10	0	7.2570	0	33.2840	0	26.034	0	131.947	0	193.4	4	65.5	4	-1E+10	1	-1E+10	1	-1E+10	1	-1E+10	1	-1E+10	1	-1E+10	1
4902549	64	C	05/18/2022	15:54	-131.683	47.506	0	134.00	0	7.2570	0	33.2900	0	26.039	0	132.838	0	192.4	4	65.1	4	-1E+10	1	-1E+10	1	-1E+10	1	-1E+10	1	-1E+10	1	-1E+10	1
4902549	64	C	05/18/2022	15:54	-131.683	47.506	0	134.90	0	7.2370	0	33.3230	0	26.067	0	133.730	0	191.5	4	64.8	4	-1E+10	1	-1E+10	1	-1E+10	1	-1E+10	1	-1E+10	1	-1E+10	1
4902549	64	C	05/18/2022	15:54	-131.683	47.506	0	136.10	0	7.1870	0	33.3990	0	26.134	0	134.920	0	190.4	4	64.4	4	-1E+10	1	-1E+10	1	-1E+10	1	-1E+10	1	-1E+10	1	-1E+10	1
4902549	64	C	05/18/2022	15:54	-131.683	47.506	0	136.90	0	7.1590	0	33.4360	0	26.167	0	135.712	0	189.5	4	64.1	4	-1E+10	1	-1E+10	1	-1E+10	1	-1E+10	1	-1E+10	1	-1E+10	1
4902549	64	C	05/18/2022	15:54	-131.683	47.506	0	137.70	0	7.1750	0	33.4550	0	26.180	0	136.505	0	188.5	4	63.8	4	-1E+10	1	-1E+10	1	-1E+10	1	-1E+10	1	-1E+10	1	-1E+10	1
4902549	64	C	05/18/2022	15:54	-131.683	47.506	0	138.80	0	7.1600	0	33.4860	0	26.206	0	137.595	0	187.1	4	63.3	4	-1E+10	1	-1E+10	1	-1E+10	1	-1E+10	1	-1E+10	1	-1E+10	1
4902549	64	C	05/18/2022	15:54	-131.683	47.506	0	139.90	0	7.1460	0	33.5220	0	26.237	0	138.685	0	185.7	4	62.8	4	-1E+10	1	-1E+10	1	-1E+10	1	-1E+10	1	-1E+10	1	-1E+10	1
4902549	64	C	05/18/2022	15:54	-131.683	47.506	0	141.10	0	7.1280	0	33.5630	0	26.271	0	139.874	0	184.2	4	62.3	4	-1E+10	1	-1E+10	1	-1E+10	1	-1E+10	1	-1E+10	1	-1E+10	1
4902549	64	C	05/18/2022	15:54	-131.683	47.506	0	142.10	0	7.1250	0	33.5870	0	26.291	0	140.865	0	183.1	4	61.9	4	-1E+10	1	-1E+10	1	-1E+10	1	-1E+10	1	-1E+10	1	-1E+10	1
4902549	64	C	05/18/2022	15:54	-131.683	47.506	0	143.00	0	7.1340	0	33.6030	0	26.302	0	141.757	0	182.0	4	61.6	4	-1E+10	1	-1E+10	1	-1E+10	1	-1E+10	1	-1E+10	1	-1E+10	1
4902549	64	C	05/18/2022	15:54	-131.683	47.506	0	144.00	0	7.1360	0	33.6250	0	26.319	0	142.748	0	181.1	4	61.3	4	-1E+10	1	-1E+10	1	-1E+10	1	-1E+10	1	-1E+10	1	-1E+10	1
4902549	64	C	05/18/2022	15:54	-131.683	47.506	0	145.00	0	7.1330	0	33.6370	0	26.329	0	143.739	0	180.2	4	61.0	4	-1E+10	1	-1E+10	1	-1E+10	1	-1E+10	1	-1E+10	1	-1E+10	1
4902549	64	C	05/18/2022	15:54	-131.683	47.506	0	146.10	0	7.1300	0	33.6460	0	26.336	0	144.829	0	179.2	4	60.6	4	-1E+10	1	-1E+10	1	-1E+10	1	-1E+10	1	-1E+10	1	-1E+10	1
4902549	64	C	05/18/2022	15:54	-131.683	47.506	0	146.80	0	7.1290	0	33.6500	0	26.340	0	145.523	0	178.5	4	60.4	4	-1E+10	1	-1E+10	1	-1E+10	1	-1E+10	1	-1E+10	1	-1E+10	1
4902549	64	C	05/18/2022	15:54	-131.683	47.506	0	147.80	0	7.1270	0	33.6520	0	26.342	0	146.514	0	177.4	4	60.0	4	-1E+10	1	-1E+10	1	-1E+10	1	-1E+10	1	-1E+10	1	-1E+10	1
4902549	64	C	05/18/2022	15:54	-131.683	47.506	0	149.00	0	7.1220	0	33.6620	0	26.350	0	147.703	0	176.3	4	59.7	4	-1E+10	1	-1E+10	1	-1E+10	1	-1E+10	1	-1E+10	1	-1E+10	1
4902549	64	C	05/18/2022	15:54	-131.683	47.506	0	149.70	0	7.1060	0	33.6870	0	26.372	0	148.397	0	175.7	4	59.4	4	-1E+10	1	-1E+10	1	-1E+10	1	-1E+10	1	-1E+10	1	-1E+10	1
4902549	64	C	05/18/2022	15:54	-131.683	47.506	0	150.90	0	7.0830	0	33.7050	0	26.389	0	149.586	0	175.2	4	59.3	4	-1E+10	1	-1E+10	1	-1E+10	1	-1E+10	1	-1E+10	1	-1E+10	1
4902549	64	C	05/18/2022	15:54	-131.683	47.506	0	152.20	0	7.0580	0	33.7150	0	26.401	0	150.874	0	174.9	4	59.1	4	-1E+10	1	-1E+10	1	-1E+10	1	-1E+10	1	-1E+10	1	-1E+10	1
4902549	64	C	05/18/2022	15:54	-131.683	47.506	0	153.10	0	7.0450	0	33.7190	0	26.406	0	151.766	0	174.8	4	59.1	4	-1E+10	1	-1E+10	1	-1E+10	1	-1E+10	1	-1E+10	1	-1E+10	1
4902549	64	C	05/18/2022	15:54	-131.683	47.506	0	154.00	0	7.0300	0	33.7230	0	26.411	0	152.658	0	174.5	4	58.9	4	-1E+10	1	-1E+10	1	-1E+10	1	-1E+10	1	-1E+10	1	-1E+10	1
4902549	64	C	05/18/2022	15:54	-131.683	47.506	0	154.90	0	6.9960	0	33.7330	0	26.423	0	153.549	0	174.3	4	58.8	4	-1E+10	1	-1E+10	1	-1E+10	1	-1E+10	1	-1E+10	1	-1E+10	1
4902549	64	C	05/18/2022	15:54	-131.683	47.506	0	155.80	0	6.9890	0	33.7370	0	26.428	0	154.441	0	174.1	4	58.8	4	-1E+10	1	-1E+10	1	-1E+10	1	-1E+10	1	-1E+10	1	-1E+10	1
4902549	64	C	05/18/2022	15:54	-131.683	47.506	0	156.70	0	6.9810	0	33.7390	0	26.430	0	155.333	0	173.9	4	58.7	4	-1E+10	1	-1E+10	1	-1E+10	1	-1E+10	1	-1E+10	1	-1E+10	1
4902549	64	C	05/18/2022	15:54	-131.683	47.506	0	157.60	0	6.9790	0	33.7380	0	26.430	0	156.225	0	173.7	4	58.6	4	-1E+10	1	-1E+10	1	-1E+10	1	-1E+10	1	-1E+10	1	-1E+10	1
4902549	64	C	05/18/2022	15:54	-131.683	47.506	0	158.60	0	6.9760	0	33.7390	0	26.431	0	157.216	0	173.5	4	58.5	4	-1E+10	1	-1E+10	1	-1E+10	1	-1E+10	1	-1E+10	1	-1E+10	1
4902549	64	C	05/18/2022	15:54	-131.683	47.506	0	159.60	0	6.9720	0	33.7400	0	26.432	0	158.207	0	173.2	4	58.4	4	-1E+10	1	-1E+10	1	-1E+10	1	-1E+10	1	-1E+10	1	-1E+10	1
4902549	64	C	05/18/2022	15:54	-131.683	47.506	0	160.50	0	6.9540	0	33.7430	0	26.437	0	159.099	0	172.9	4	58.3	4	-1E+10	1	-1E+10	1	-1E+10	1	-1E+10	1	-1E+10	1	-1E+10	1
4902549	64	C	05/18/2022	15:54	-131.683	47.506	0	161.50	0	6.9390	0	33.7460	0	26.441	0	160.089	0	172.5	4	58.2	4	-1E+10	1	-1E+10	1	-1E+10	1	-1E+10	1	-1E+10	1	-1E+10	1
4902549	64	C	05/18/2022	15:54	-131.683	47.506	0	162.50	0	6.8910	0	33.7550	0	26.455	0	161.080	0	172.4	4	58.1	4	-1E+10	1	-1E+10	1	-1E+10	1	-1E+10	1	-1E+10	1	-1E+10	1
4902549	64	C	05/18/2022	15:54	-131.683	47.506	0	163.50	0	6.8760	0	33.7580	0	26.459	0	162.071	0	172.3	4	58.0	4	-1E+10	1	-1E+10	1	-1E+10	1	-1E+10	1	-1E+10	1	-1E+10	1
4902549	64	C	05/18/2022	15:54	-131.683	47.506	0	164.90	0	6.8630	0	33.7590	0	26.462	0	163.458	0	171.9	4	57.9	4	-1E+10	1	-1E+10	1	-1E+10	1	-1E+10	1	-1E+10	1	-1E+10	1
4902549	64	C	05/18/2022	15:54	-131.683	47.506	0	166.40	0	6.8390	0	33.7600	0	26.466	0	164.945	0	171.4	4	57.7	4	-1E+10	1	-1E+10	1	-1E+10	1	-1E+10	1	-1E+10	1	-1E+10	1
4902549	64	C	05/18/2022	15:54	-131.683	47.506	0	167.30	0	6.8260	0	33.7600	0	26.468	0	165.836	0	171.0	4	57.5	4	-1E+10	1	-1E+10	1	-1E+10	1	-1E+10	1	-1E+10	1	-1E+10	1
4902549	64	C	05/18/2022	15:54	-131.683	47.506	0	168.30	0	6.8150	0	33.7620	0	26.471	0	166.827	0	170.6	4	57.4	4	-1E+10	1	-1E+10	1	-1E+10	1	-1E+10	1	-1E+10	1	-1E+10	1
4902549	64	C	05/18/2022	15:54	-131.683	47.506	0	169.20	0	6.8040	0	33.7630	0	26.473	0	167.719	0	170.1	4	57.2	4	-1E+10	1	-1E+10	1	-1E+10	1	-1E+10	1	-1E+10	1	-1E+10	1
4902549	64	C	05/18/2022	15:54	-131.683	47.506	0	170.20	0	6.7770	0	33.7650	0	26.478	0	168.710	0	169.8	4	57.1	4	-1E+10	1	-1E+10	1	-1E+10	1	-1E+10	1	-1E+10	1	-1E+10	1
4902549	64	C	05/18/2022	15:54	-131.683	47.506	0	171.10	0	6.7440	0	33.7700	0	26.487	0	169.602	0	169.6	4	56.9	4	-1E+10	1	-1E+10	1	-1E+10	1	-1E+10	1	-1E+10	1	-1E+10	1
4902549	64	C	05/18/2022	15:54	-131.683	47.506	0	172.00	0	6.7330	0	33.7700	0	26.488	0	170.493	0	169.3	4	56.8	4	-1E+10	1	-1E+10	1	-1E+10	1	-1E+10	1	-1E+10	1	-1E+10	1
4902549	64	C	05/18/2022	15:54	-131.683	47.506	0	173.00	0	6.7220	0	33.7720	0	26.491	0	171.484	0	169.0	4	56.7	4	-1E+10	1	-1E+10	1	-1E+10	1	-1E+10	1	-1E+10	1	-1E+10	1
4902549	64	C	05/18/2022	15:54	-131.683	47.506	0	173.90	0	6.7050	0	33.7720	0	26.493	0	172.376	0	168.6	4	56.6	4	-1E+10	1	-1E+10	1	-1E+10	1	-1E+10	1	-1E+10	1	-1E+10	1
4902549	64	C	05/18/2022	15:54	-131.683	47.506	0	174.80	0	6.7020	0	33.7700	0	26.492	0	173.268	0	168.2	4	56.4	4	-1E+10	1	-1E+10	1	-1E+10	1	-1E+10	1	-1E+10	1	-1E+10	1
4902549	64	C	05/18/2022	15:54	-131.683	47.506	0	175.80	0	6.6900	0	33.7710	0	26.495	0	174.258	0	167.7	4	56.2	4	-1E+10	1	-1E+10	1	-1E+10	1	-1E+10	1	-1E+10	1	-1E+10	1
4902549	64	C	05/18/2022	15:54	-131.683	47.506	0	176.70	0	6.6790	0	33.7710	0	26.496	0	175.150	0	167.0	4	56.0	4	-1E+10	1	-1E+10	1	-1E+10	1	-1E+10	1	-1E+10	1	-1E+10	1
4902549	64	C	05/18/2022	15:54	-131.683	47.506	0	177.60	0	6.6750	0	33.7710	0	26.497	0	176.042	0	166.4	4	55.8	4	-1E+10	1	-1E+10	1	-1E+10	1	-1E+10	1	-1E+10	1	-1E+10	1
4902549	64	C	05/18/2022	15:54	-131.683	47.506	0	178.90	0	6.6620	0	33.7700	0	26.498	0	177.330	0	165.1	4	55.3	4	-1E+10	1	-1E+10	1	-1E+10	1	-1E+10	1	-1E+10	1	-1E+10	1
4902549	64	C	05/18/2022	15:54	-131.683	47.506	0	180.30	0	6.6510	0	33.7710	0	26.500	0	178.717	0	163.5	4	54.8	4	-1E+10	1	-1E+10	1	-1E+10	1	-1E+10	1	-1E+10	1	-1E+10	1
4902549	64	C	05/18/2022	15:54	-131.683	47.506	0	181.20	0	6.6540	0	33.7690	0	26.498	0	179.609	0	162.5	4	54.4	4	-1E+10	1	-1E+10	1	-1E+10	1	-1E+10	1	-1E+10	1	-1E+10	1
4902549	64	C	05/18/2022	15:54	-131.683	47.506	0	182.20	0	6.6590	0	33.7770	0	26.504	0	180.600	0	161.6	4	54.2	4	-1E+10	1	-1E+10	1	-1E+10	1	-1E+10	1	-1E+10	1	-1E+10	1
4902549	64	C	05/18/2022	15:54	-131.683	47.506	0	183.10	0	6.6520	0	33.7800	0	26.507	0	181.491	0	161.0	4	53.9	4	-1E+10	1	-1E+10	1	-1E+10	1	-1E+10	1	-1E+10	1	-1E+10	1
4902549	64	C	05/18/2022	15:54	-131.683	47.506	0	184.00	0	6.6500	0	33.7800	0	26.507	0	182.383	0	160.1	4	53.6	4	-1E+10	1	-1E+10	1	-1E+10	1	-1E+10	1	-1E+10	1	-1E+10	1
4902549	64	C	05/18/2022	15:54	-131.683	47.506	0	184.90	0	6.6480	0	33.7810	0	26.508	0	183.275	0	159.3	4	53.4	4	-1E+10	1	-1E+10	1	-1E+10	1	-1E+10	1	-1E+10	1	-1E+10	1
4902549	64	C	05/18/2022	15:54	-131.683	47.506	0	185.80	0	6.6470	0	33.7820	0	26.509	0	184.166	0	158.3	4	53.0	4	-1E+10	1	-1E+10	1	-1E+10	1	-1E+10	1	-1E+10	1	-1E+10	1
4902549	64	C	05/18/2022	15:54	-131.683	47.506	0	186.80	0	6.6450	0	33.7860	0	26.513	0	185.157	0	157.4	4	52.7	4	-1E+10	1	-1E+10	1	-1E+10	1	-1E+10	1	-1E+10	1	-1E+10	1
4902549	64	C	05/18/2022	15:54	-131.683	47.506	0	187.70	0	6.6330	0	33.7850	0	26.513	0	186.049	0	156.5	4	52.4	4	-1E+10	1	-1E+10	1	-1E+10	1	-1E+10	1	-1E+10	1	-1E+10	1
4902549	64	C	05/18/2022	15:54	-131.683	47.506	0	188.60	0	6.6280	0	33.7870	0	26.516	0	186.940	0	155.6	4	52.1	4	-1E+10	1	-1E+10	1	-1E+10	1	-1E+10	1	-1E+10	1	-1E+10	1
4902549	64	C	05/18/2022	15:54	-131.683	47.506	0	189.90	0	6.6170	0	33.7860	0	26.516	0	188.228	0	154.1	4	51.6	4	-1E+10	1	-1E+10	1	-1E+10	1	-1E+10	1	-1E+10	1	-1E+10	1
4902549	64	C	05/18/2022	15:54	-131.683	47.506	0	191.30	0	6.6110	0	33.7870	0	26.518	0	189.615	0	152.3	4	51.0	4	-1E+10	1	-1E+10	1	-1E+10	1	-1E+10	1	-1E+10	1	-1E+10	1
4902549	64	C	05/18/2022	15:54	-131.683	47.506	0	192.30	0	6.5920	0	33.7910	0	26.524	0	190.606	0	151.3	4	50.6	4	-1E+10	1	-1E+10	1	-1E+10	1	-1E+10	1	-1E+10	1	-1E+10	1
4902549	64	C	05/18/2022	15:54	-131.683	47.506	0	193.20	0	6.5770	0	33.7920	0	26.526	0	191.498	0	150.2	4	50.2	4	-1E+10	1	-1E+10	1	-1E+10	1	-1E+10	1	-1E+10	1	-1E+10	1
4902549	64	C	05/18/2022	15:54	-131.683	47.506	0	194.10	0	6.5730	0	33.7930	0	26.528	0	192.390	0	149.1	4	49.9	4	-1E+10	1	-1E+10	1	-1E+10	1	-1E+10	1	-1E+10	1	-1E+10	1
4902549	64	C	05/18/2022	15:54	-131.683	47.506	0	195.00	0	6.5870	0	33.8000	0	26.531	0	193.281	0	148.2	4	49.6	4	-1E+10	1	-1E+10	1	-1E+10	1	-1E+10	1	-1E+10	1	-1E+10	1
4902549	64	C	05/18/2022	15:54	-131.683	47.506	0	196.00	0	6.5500	0	33.8040	0	26.539	0	194.272	0	147.7	4	49.4	4	-1E+10	1	-1E+10	1	-1E+10	1	-1E+10	1	-1E+10	1	-1E+10	1
4902549	64	C	05/18/2022	15:54	-131.683	47.506	0	196.90	0	6.5290	0	33.8020	0	26.541	0	195.163	0	147.3	4	49.2	4	-1E+10	1	-1E+10	1	-1E+10	1	-1E+10	1	-1E+10	1	-1E+10	1
4902549	64	C	05/18/2022	15:54	-131.683	47.506	0	197.90	0	6.5390	0	33.8050	0	26.542	0	196.154	0	147.1	4	49.2	4	-1E+10	1	-1E+10	1	-1E+10	1	-1E+10	1	-1E+10	1	-1E+10	1
4902549	64	C	05/18/2022	15:54	-131.683	47.506	0	198.90	0	6.5350	0	33.8060	0	26.543	0	197.145	0	146.8	4	49.1	4	-1E+10	1	-1E+10	1	-1E+10	1	-1E+10	1	-1E+10	1	-1E+10	1
4902549	64	C	05/18/2022	15:54	-131.683	47.506	0	199.80	0	6.5300	0	33.8060	0	26.544	0	198.037	0	146.6	4	49.0	4	-1E+10	1	-1E+10	1	-1E+10	1	-1E+10	1	-1E+10	1	-1E+10	1
4902549	64	C	05/18/2022	15:54	-131.683	47.506	0	200.80	0	6.5220	0	33.8060	0	26.545	0	199.027	0	146.4	4	48.9	4	-1E+10	1	-1E+10	1	-1E+10	1	-1E+10	1	-1E+10	1	-1E+10	1
4902549	64	C	05/18/2022	15:54	-131.683	47.506	0	201.80	0	6.5280	0	33.8080	0	26.546	0	200.018	0	146.3	4	48.9	4	-1E+10	1	-1E+10	1	-1E+10	1	-1E+10	1	-1E+10	1	-1E+10	1
4902549	64	C	05/18/2022	15:54	-131.683	47.506	0	202.80	0	6.5010	0	33.8090	0	26.550	0	201.009	0	146.3	4	48.8	4	-1E+10	1	-1E+10	1	-1E+10	1	-1E+10	1	-1E+10	1	-1E+10	1
4902549	64	C	05/18/2022	15:54	-131.683	47.506	0	203.80	0	6.4750	0	33.8060	0	26.551	0	201.999	0	146.1	4	48.8	4	-1E+10	1	-1E+10	1	-1E+10	1	-1E+10	1	-1E+10	1	-1E+10	1
4902549	64	C	05/18/2022	15:54	-131.683	47.506	0	204.80	0	6.4740	0	33.8050	0	26.550	0	202.990	0	145.7	4	48.6	4	-1E+10	1	-1E+10	1	-1E+10	1	-1E+10	1	-1E+10	1	-1E+10	1
4902549	64	C	05/18/2022	15:54	-131.683	47.506	0	205.80	0	6.4740	0	33.8040	0	26.549	0	203.981	0	145.3	4	48.5	4	-1E+10	1	-1E+10	1	-1E+10	1	-1E+10	1	-1E+10	1	-1E+10	1
4902549	64	C	05/18/2022	15:54	-131.683	47.506	0	206.80	0	6.4610	0	33.8070	0	26.554	0	204.971	0	144.8	4	48.3	4	-1E+10	1	-1E+10	1	-1E+10	1	-1E+10	1	-1E+10	1	-1E+10	1
4902549	64	C	05/18/2022	15:54	-131.683	47.506	0	207.80	0	6.4130	0	33.8050	0	26.558	0	205.962	0	144.3	4	48.1	4	-1E+10	1	-1E+10	1	-1E+10	1	-1E+10	1	-1E+10	1	-1E+10	1
4902549	64	C	05/18/2022	15:54	-131.683	47.506	0	208.80	0	6.3950	0	33.8040	0	26.560	0	206.953	0	143.6	4	47.8	4	-1E+10	1	-1E+10	1	-1E+10	1	-1E+10	1	-1E+10	1	-1E+10	1
4902549	64	C	05/18/2022	15:54	-131.683	47.506	0	209.90	0	6.3930	0	33.8050	0	26.561	0	208.042	0	143.0	4	47.6	4	-1E+10	1	-1E+10	1	-1E+10	1	-1E+10	1	-1E+10	1	-1E+10	1
4902549	64	C	05/18/2022	15:54	-131.683	47.506	0	210.90	0	6.3940	0	33.8070	0	26.562	0	209.033	0	142.4	4	47.4	4	-1E+10	1	-1E+10	1	-1E+10	1	-1E+10	1	-1E+10	1	-1E+10	1
4902549	64	C	05/18/2022	15:54	-131.683	47.506	0	211.90	0	6.3710	0	33.8060	0	26.564	0	210.024	0	141.8	4	47.2	4	-1E+10	1	-1E+10	1	-1E+10	1	-1E+10	1	-1E+10	1	-1E+10	1
4902549	64	C	05/18/2022	15:54	-131.683	47.506	0	212.90	0	6.3660	0	33.8100	0	26.568	0	211.014	0	141.6	4	47.1	4	-1E+10	1	-1E+10	1	-1E+10	1	-1E+10	1	-1E+10	1	-1E+10	1
4902549	64	C	05/18/2022	15:54	-131.683	47.506	0	213.90	0	6.3620	0	33.8100	0	26.569	0	212.005	0	141.2	4	47.0	4	-1E+10	1	-1E+10	1	-1E+10	1	-1E+10	1	-1E+10	1	-1E+10	1
4902549	64	C	05/18/2022	15:54	-131.683	47.506	0	215.00	0	6.3450	0	33.8120	0	26.573	0	213.095	0	140.8	4	46.8	4	-1E+10	1	-1E+10	1	-1E+10	1	-1E+10	1	-1E+10	1	-1E+10	1
4902549	64	C	05/18/2022	15:54	-131.683	47.506	0	216.00	0	6.3140	0	33.8100	0	26.575	0	214.085	0	140.4	4	46.7	4	-1E+10	1	-1E+10	1	-1E+10	1	-1E+10	1	-1E+10	1	-1E+10	1
4902549	64	C	05/18/2022	15:54	-131.683	47.506	0	217.00	0	6.2820	0	33.8090	0	26.578	0	215.076	0	139.8	4	46.4	4	-1E+10	1	-1E+10	1	-1E+10	1	-1E+10	1	-1E+10	1	-1E+10	1
4902549	64	C	05/18/2022	15:54	-131.683	47.506	0	218.00	0	6.2670	0	33.8130	0	26.583	0	216.066	0	139.2	4	46.3	4	-1E+10	1	-1E+10	1	-1E+10	1	-1E+10	1	-1E+10	1	-1E+10	1
4902549	64	C	05/18/2022	15:54	-131.683	47.506	0	219.10	0	6.2590	0	33.8110	0	26.583	0	217.156	0	138.6	4	46.0	4	-1E+10	1	-1E+10	1	-1E+10	1	-1E+10	1	-1E+10	1	-1E+10	1
4902549	64	C	05/18/2022	15:54	-131.683	47.506	0	220.10	0	6.2570	0	33.8110	0	26.583	0	218.147	0	137.9	4	45.8	4	-1E+10	1	-1E+10	1	-1E+10	1	-1E+10	1	-1E+10	1	-1E+10	1
4902549	64	C	05/18/2022	15:54	-131.683	47.506	0	221.10	0	6.2510	0	33.8120	0	26.585	0	219.137	0	137.0	4	45.5	4	-1E+10	1	-1E+10	1	-1E+10	1	-1E+10	1	-1E+10	1	-1E+10	1
4902549	64	C	05/18/2022	15:54	-131.683	47.506	0	222.10	0	6.2440	0	33.8120	0	26.586	0	220.128	0	136.2	4	45.2	4	-1E+10	1	-1E+10	1	-1E+10	1	-1E+10	1	-1E+10	1	-1E+10	1
4902549	64	C	05/18/2022	15:54	-131.683	47.506	0	223.10	0	6.2380	0	33.8110	0	26.586	0	221.118	0	135.1	4	44.9	4	-1E+10	1	-1E+10	1	-1E+10	1	-1E+10	1	-1E+10	1	-1E+10	1
4902549	64	C	05/18/2022	15:54	-131.683	47.506	0	224.10	0	6.2310	0	33.8140	0	26.589	0	222.109	0	134.1	4	44.5	4	-1E+10	1	-1E+10	1	-1E+10	1	-1E+10	1	-1E+10	1	-1E+10	1
4902549	64	C	05/18/2022	15:54	-131.683	47.506	0	225.10	0	6.2310	0	33.8140	0	26.589	0	223.100	0	132.9	4	44.1	4	-1E+10	1	-1E+10	1	-1E+10	1	-1E+10	1	-1E+10	1	-1E+10	1
4902549	64	C	05/18/2022	15:54	-131.683	47.506	0	226.10	0	6.2290	0	33.8150	0	26.590	0	224.090	0	131.7	4	43.7	4	-1E+10	1	-1E+10	1	-1E+10	1	-1E+10	1	-1E+10	1	-1E+10	1
4902549	64	C	05/18/2022	15:54	-131.683	47.506	0	227.20	0	6.2410	0	33.8180	0	26.591	0	225.180	0	130.5	4	43.3	4	-1E+10	1	-1E+10	1	-1E+10	1	-1E+10	1	-1E+10	1	-1E+10	1
4902549	64	C	05/18/2022	15:54	-131.683	47.506	0	228.20	0	6.2360	0	33.8260	0	26.598	0	226.170	0	129.7	4	43.1	4	-1E+10	1	-1E+10	1	-1E+10	1	-1E+10	1	-1E+10	1	-1E+10	1
4902549	64	C	05/18/2022	15:54	-131.683	47.506	0	229.20	0	6.2110	0	33.8240	0	26.599	0	227.161	0	129.0	4	42.8	4	-1E+10	1	-1E+10	1	-1E+10	1	-1E+10	1	-1E+10	1	-1E+10	1
4902549	64	C	05/18/2022	15:54	-131.683	47.506	0	230.20	0	6.2140	0	33.8280	0	26.602	0	228.151	0	128.1	4	42.5	4	-1E+10	1	-1E+10	1	-1E+10	1	-1E+10	1	-1E+10	1	-1E+10	1
4902549	64	C	05/18/2022	15:54	-131.683	47.506	0	231.30	0	6.2110	0	33.8280	0	26.603	0	229.241	0	127.4	4	42.3	4	-1E+10	1	-1E+10	1	-1E+10	1	-1E+10	1	-1E+10	1	-1E+10	1
4902549	64	C	05/18/2022	15:54	-131.683	47.506	0	232.30	0	6.1980	0	33.8300	0	26.606	0	230.232	0	126.7	4	42.0	4	-1E+10	1	-1E+10	1	-1E+10	1	-1E+10	1	-1E+10	1	-1E+10	1
4902549	64	C	05/18/2022	15:54	-131.683	47.506	0	233.40	0	6.2070	0	33.8370	0	26.610	0	231.321	0	126.3	4	41.9	4	-1E+10	1	-1E+10	1	-1E+10	1	-1E+10	1	-1E+10	1	-1E+10	1
4902549	64	C	05/18/2022	15:54	-131.683	47.506	0	234.40	0	6.2000	0	33.8380	0	26.612	0	232.312	0	125.9	4	41.8	4	-1E+10	1	-1E+10	1	-1E+10	1	-1E+10	1	-1E+10	1	-1E+10	1
4902549	64	C	05/18/2022	15:54	-131.683	47.506	0	235.50	0	6.1940	0	33.8370	0	26.612	0	233.401	0	125.5	4	41.6	4	-1E+10	1	-1E+10	1	-1E+10	1	-1E+10	1	-1E+10	1	-1E+10	1
4902549	64	C	05/18/2022	15:54	-131.683	47.506	0	236.50	0	6.1910	0	33.8380	0	26.613	0	234.392	0	125.2	4	41.5	4	-1E+10	1	-1E+10	1	-1E+10	1	-1E+10	1	-1E+10	1	-1E+10	1
4902549	64	C	05/18/2022	15:54	-131.683	47.506	0	237.60	0	6.1890	0	33.8380	0	26.613	0	235.481	0	124.7	4	41.4	4	-1E+10	1	-1E+10	1	-1E+10	1	-1E+10	1	-1E+10	1	-1E+10	1
4902549	64	C	05/18/2022	15:54	-131.683	47.506	0	238.60	0	6.1640	0	33.8370	0	26.616	0	236.472	0	124.3	4	41.2	4	-1E+10	1	-1E+10	1	-1E+10	1	-1E+10	1	-1E+10	1	-1E+10	1
4902549	64	C	05/18/2022	15:54	-131.683	47.506	0	239.70	0	6.1570	0	33.8380	0	26.617	0	237.561	0	123.9	4	41.1	4	-1E+10	1	-1E+10	1	-1E+10	1	-1E+10	1	-1E+10	1	-1E+10	1
4902549	64	C	05/18/2022	15:54	-131.683	47.506	0	240.80	0	6.1560	0	33.8390	0	26.618	0	238.651	0	123.4	4	40.9	4	-1E+10	1	-1E+10	1	-1E+10	1	-1E+10	1	-1E+10	1	-1E+10	1
4902549	64	C	05/18/2022	15:54	-131.683	47.506	0	241.90	0	6.1550	0	33.8390	0	26.618	0	239.741	0	122.9	4	40.7	4	-1E+10	1	-1E+10	1	-1E+10	1	-1E+10	1	-1E+10	1	-1E+10	1
4902549	64	C	05/18/2022	15:54	-131.683	47.506	0	242.90	0	6.1440	0	33.8420	0	26.622	0	240.731	0	122.5	4	40.6	4	-1E+10	1	-1E+10	1	-1E+10	1	-1E+10	1	-1E+10	1	-1E+10	1
4902549	64	C	05/18/2022	15:54	-131.683	47.506	0	244.00	0	6.1360	0	33.8420	0	26.623	0	241.821	0	122.2	4	40.5	4	-1E+10	1	-1E+10	1	-1E+10	1	-1E+10	1	-1E+10	1	-1E+10	1
4902549	64	C	05/18/2022	15:54	-131.683	47.506	0	245.10	0	6.1370	0	33.8420	0	26.623	0	242.910	0	121.7	4	40.3	4	-1E+10	1	-1E+10	1	-1E+10	1	-1E+10	1	-1E+10	1	-1E+10	1
4902549	64	C	05/18/2022	15:54	-131.683	47.506	0	246.10	0	6.1330	0	33.8430	0	26.624	0	243.901	0	121.3	4	40.2	4	-1E+10	1	-1E+10	1	-1E+10	1	-1E+10	1	-1E+10	1	-1E+10	1
4902549	64	C	05/18/2022	15:54	-131.683	47.506	0	247.20	0	6.1220	0	33.8440	0	26.627	0	244.990	0	120.9	4	40.0	4	-1E+10	1	-1E+10	1	-1E+10	1	-1E+10	1	-1E+10	1	-1E+10	1
4902549	64	C	05/18/2022	15:54	-131.683	47.506	0	248.30	0	6.1160	0	33.8440	0	26.627	0	246.080	0	120.4	4	39.9	4	-1E+10	1	-1E+10	1	-1E+10	1	-1E+10	1	-1E+10	1	-1E+10	1
4902549	64	C	05/18/2022	15:54	-131.683	47.506	0	249.30	0	6.1150	0	33.8450	0	26.628	0	247.070	0	120.0	4	39.7	4	-1E+10	1	-1E+10	1	-1E+10	1	-1E+10	1	-1E+10	1	-1E+10	1
4902549	64	C	05/18/2022	15:54	-131.683	47.506	0	250.40	0	6.1100	0	33.8450	0	26.629	0	248.160	0	119.5	4	39.6	4	-1E+10	1	-1E+10	1	-1E+10	1	-1E+10	1	-1E+10	1	-1E+10	1
4902549	64	C	05/18/2022	15:54	-131.683	47.506	0	251.50	0	6.1110	0	33.8450	0	26.629	0	249.249	0	119.0	4	39.4	4	-1E+10	1	-1E+10	1	-1E+10	1	-1E+10	1	-1E+10	1	-1E+10	1
4902549	64	C	05/18/2022	15:54	-131.683	47.506	0	252.50	0	6.1090	0	33.8440	0	26.628	0	250.240	0	118.3	4	39.2	4	-1E+10	1	-1E+10	1	-1E+10	1	-1E+10	1	-1E+10	1	-1E+10	1
4902549	64	C	05/18/2022	15:54	-131.683	47.506	0	253.60	0	6.1060	0	33.8450	0	26.630	0	251.329	0	117.7	4	39.0	4	-1E+10	1	-1E+10	1	-1E+10	1	-1E+10	1	-1E+10	1	-1E+10	1
4902549	64	C	05/18/2022	15:54	-131.683	47.506	0	254.60	0	6.1000	0	33.8470	0	26.632	0	252.319	0	116.9	4	38.7	4	-1E+10	1	-1E+10	1	-1E+10	1	-1E+10	1	-1E+10	1	-1E+10	1
4902549	64	C	05/18/2022	15:54	-131.683	47.506	0	255.70	0	6.0980	0	33.8470	0	26.632	0	253.409	0	116.2	4	38.4	4	-1E+10	1	-1E+10	1	-1E+10	1	-1E+10	1	-1E+10	1	-1E+10	1
4902549	64	C	05/18/2022	15:54	-131.683	47.506	0	256.70	0	6.0990	0	33.8470	0	26.632	0	254.399	0	115.3	4	38.2	4	-1E+10	1	-1E+10	1	-1E+10	1	-1E+10	1	-1E+10	1	-1E+10	1
4902549	64	C	05/18/2022	15:54	-131.683	47.506	0	257.80	0	6.0990	0	33.8470	0	26.632	0	255.489	0	114.3	4	37.8	4	-1E+10	1	-1E+10	1	-1E+10	1	-1E+10	1	-1E+10	1	-1E+10	1
4902549	64	C	05/18/2022	15:54	-131.683	47.506	0	258.70	0	6.1030	0	33.8500	0	26.634	0	256.380	0	113.3	4	37.5	4	-1E+10	1	-1E+10	1	-1E+10	1	-1E+10	1	-1E+10	1	-1E+10	1
4902549	64	C	05/18/2022	15:54	-131.683	47.506	0	259.90	0	6.1030	0	33.8500	0	26.634	0	257.569	0	111.8	4	37.0	4	-1E+10	1	-1E+10	1	-1E+10	1	-1E+10	1	-1E+10	1	-1E+10	1
4902549	64	C	05/18/2022	15:54	-131.683	47.506	0	260.70	0	6.1030	0	33.8510	0	26.635	0	258.361	0	110.7	4	36.6	4	-1E+10	1	-1E+10	1	-1E+10	1	-1E+10	1	-1E+10	1	-1E+10	1
4902549	64	C	05/18/2022	15:54	-131.683	47.506	0	261.90	0	6.1080	0	33.8510	0	26.634	0	259.549	0	108.7	4	36.0	4	-1E+10	1	-1E+10	1	-1E+10	1	-1E+10	1	-1E+10	1	-1E+10	1
4902549	64	C	05/18/2022	15:54	-131.683	47.506	0	263.10	0	6.1350	0	33.8500	0	26.630	0	260.738	0	107.0	4	35.5	4	-1E+10	1	-1E+10	1	-1E+10	1	-1E+10	1	-1E+10	1	-1E+10	1
4902549	64	C	05/18/2022	15:54	-131.683	47.506	0	263.90	0	6.0910	0	33.8660	0	26.648	0	261.530	0	105.8	4	35.0	4	-1E+10	1	-1E+10	1	-1E+10	1	-1E+10	1	-1E+10	1	-1E+10	1
4902549	64	C	05/18/2022	15:54	-131.683	47.506	0	265.00	0	6.0560	0	33.8630	0	26.650	0	262.620	0	104.2	4	34.5	4	-1E+10	1	-1E+10	1	-1E+10	1	-1E+10	1	-1E+10	1	-1E+10	1
4902549	64	C	05/18/2022	15:54	-131.683	47.506	0	266.20	0	6.0700	0	33.8700	0	26.654	0	263.808	0	102.7	4	34.0	4	-1E+10	1	-1E+10	1	-1E+10	1	-1E+10	1	-1E+10	1	-1E+10	1
4902549	64	C	05/18/2022	15:54	-131.683	47.506	0	267.00	0	6.0780	0	33.8820	0	26.662	0	264.600	0	102.1	4	33.8	4	-1E+10	1	-1E+10	1	-1E+10	1	-1E+10	1	-1E+10	1	-1E+10	1
4902549	64	C	05/18/2022	15:54	-131.683	47.506	0	267.80	0	6.0710	0	33.8840	0	26.665	0	265.393	0	101.8	4	33.7	4	-1E+10	1	-1E+10	1	-1E+10	1	-1E+10	1	-1E+10	1	-1E+10	1
4902549	64	C	05/18/2022	15:54	-131.683	47.506	0	269.00	0	6.0560	0	33.8830	0	26.666	0	266.581	0	101.4	4	33.6	4	-1E+10	1	-1E+10	1	-1E+10	1	-1E+10	1	-1E+10	1	-1E+10	1
4902549	64	C	05/18/2022	15:54	-131.683	47.506	0	270.20	0	6.0570	0	33.8860	0	26.668	0	267.770	0	101.1	4	33.4	4	-1E+10	1	-1E+10	1	-1E+10	1	-1E+10	1	-1E+10	1	-1E+10	1
4902549	64	C	05/18/2022	15:54	-131.683	47.506	0	271.00	0	6.0550	0	33.8860	0	26.669	0	268.562	0	100.9	4	33.4	4	-1E+10	1	-1E+10	1	-1E+10	1	-1E+10	1	-1E+10	1	-1E+10	1
4902549	64	C	05/18/2022	15:54	-131.683	47.506	0	271.80	0	6.0490	0	33.8850	0	26.669	0	269.354	0	100.7	4	33.3	4	-1E+10	1	-1E+10	1	-1E+10	1	-1E+10	1	-1E+10	1	-1E+10	1
4902549	64	C	05/18/2022	15:54	-131.683	47.506	0	273.00	0	6.0440	0	33.8850	0	26.669	0	270.543	0	100.2	4	33.1	4	-1E+10	1	-1E+10	1	-1E+10	1	-1E+10	1	-1E+10	1	-1E+10	1
4902549	64	C	05/18/2022	15:54	-131.683	47.506	0	274.20	0	6.0400	0	33.8850	0	26.670	0	271.731	0	99.7	4	33.0	4	-1E+10	1	-1E+10	1	-1E+10	1	-1E+10	1	-1E+10	1	-1E+10	1
4902549	64	C	05/18/2022	15:54	-131.683	47.506	0	275.00	0	6.0350	0	33.8850	0	26.670	0	272.523	0	99.3	4	32.8	4	-1E+10	1	-1E+10	1	-1E+10	1	-1E+10	1	-1E+10	1	-1E+10	1
4902549	64	C	05/18/2022	15:54	-131.683	47.506	0	275.80	0	6.0170	0	33.8880	0	26.675	0	273.316	0	99.0	4	32.7	4	-1E+10	1	-1E+10	1	-1E+10	1	-1E+10	1	-1E+10	1	-1E+10	1
4902549	64	C	05/18/2022	15:54	-131.683	47.506	0	277.00	0	6.0100	0	33.8870	0	26.675	0	274.504	0	98.5	4	32.6	4	-1E+10	1	-1E+10	1	-1E+10	1	-1E+10	1	-1E+10	1	-1E+10	1
4902549	64	C	05/18/2022	15:54	-131.683	47.506	0	278.20	0	6.0080	0	33.8870	0	26.675	0	275.692	0	98.0	4	32.4	4	-1E+10	1	-1E+10	1	-1E+10	1	-1E+10	1	-1E+10	1	-1E+10	1
4902549	64	C	05/18/2022	15:54	-131.683	47.506	0	279.00	0	6.0000	0	33.8890	0	26.678	0	276.485	0	97.7	4	32.3	4	-1E+10	1	-1E+10	1	-1E+10	1	-1E+10	1	-1E+10	1	-1E+10	1
4902549	64	C	05/18/2022	15:54	-131.683	47.506	0	279.90	0	5.9940	0	33.8900	0	26.679	0	277.376	0	97.5	4	32.2	4	-1E+10	1	-1E+10	1	-1E+10	1	-1E+10	1	-1E+10	1	-1E+10	1
4902549	64	C	05/18/2022	15:54	-131.683	47.506	0	280.70	0	5.9870	0	33.8910	0	26.681	0	278.168	0	97.4	4	32.2	4	-1E+10	1	-1E+10	1	-1E+10	1	-1E+10	1	-1E+10	1	-1E+10	1
4902549	64	C	05/18/2022	15:54	-131.683	47.506	0	281.90	0	5.9760	0	33.8920	0	26.683	0	279.356	0	97.3	4	32.1	4	-1E+10	1	-1E+10	1	-1E+10	1	-1E+10	1	-1E+10	1	-1E+10	1
4902549	64	C	05/18/2022	15:54	-131.683	47.506	0	283.20	0	5.9740	0	33.8930	0	26.684	0	280.644	0	97.2	4	32.1	4	-1E+10	1	-1E+10	1	-1E+10	1	-1E+10	1	-1E+10	1	-1E+10	1
4902549	64	C	05/18/2022	15:54	-131.683	47.506	0	284.00	0	5.9580	0	33.8930	0	26.686	0	281.436	0	97.3	4	32.1	4	-1E+10	1	-1E+10	1	-1E+10	1	-1E+10	1	-1E+10	1	-1E+10	1
4902549	64	C	05/18/2022	15:54	-131.683	47.506	0	284.80	0	5.9490	0	33.8950	0	26.689	0	282.228	0	97.3	4	32.1	4	-1E+10	1	-1E+10	1	-1E+10	1	-1E+10	1	-1E+10	1	-1E+10	1
4902549	64	C	05/18/2022	15:54	-131.683	47.506	0	285.60	0	5.9420	0	33.8930	0	26.688	0	283.021	0	97.4	4	32.1	4	-1E+10	1	-1E+10	1	-1E+10	1	-1E+10	1	-1E+10	1	-1E+10	1
4902549	64	C	05/18/2022	15:54	-131.683	47.506	0	286.90	0	5.9340	0	33.8910	0	26.688	0	284.308	0	97.4	4	32.1	4	-1E+10	1	-1E+10	1	-1E+10	1	-1E+10	1	-1E+10	1	-1E+10	1
4902549	64	C	05/18/2022	15:54	-131.683	47.506	0	288.20	0	5.9180	0	33.8900	0	26.689	0	285.595	0	97.4	4	32.1	4	-1E+10	1	-1E+10	1	-1E+10	1	-1E+10	1	-1E+10	1	-1E+10	1
4902549	64	C	05/18/2022	15:54	-131.683	47.506	0	289.00	0	5.8980	0	33.8900	0	26.691	0	286.388	0	97.5	4	32.1	4	-1E+10	1	-1E+10	1	-1E+10	1	-1E+10	1	-1E+10	1	-1E+10	1
4902549	64	C	05/18/2022	15:54	-131.683	47.506	0	289.90	0	5.8850	0	33.8870	0	26.691	0	287.279	0	97.5	4	32.1	4	-1E+10	1	-1E+10	1	-1E+10	1	-1E+10	1	-1E+10	1	-1E+10	1
4902549	64	C	05/18/2022	15:54	-131.683	47.506	0	290.80	0	5.8220	0	33.8910	0	26.702	0	288.170	0	97.3	4	32.0	4	-1E+10	1	-1E+10	1	-1E+10	1	-1E+10	1	-1E+10	1	-1E+10	1
4902549	64	C	05/18/2022	15:54	-131.683	47.506	0	291.60	0	5.7890	0	33.8820	0	26.699	0	288.962	0	97.0	4	31.9	4	-1E+10	1	-1E+10	1	-1E+10	1	-1E+10	1	-1E+10	1	-1E+10	1
4902549	64	C	05/18/2022	15:54	-131.683	47.506	0	292.90	0	5.7720	0	33.8820	0	26.701	0	290.250	0	96.3	4	31.6	4	-1E+10	1	-1E+10	1	-1E+10	1	-1E+10	1	-1E+10	1	-1E+10	1
4902549	64	C	05/18/2022	15:54	-131.683	47.506	0	294.20	0	5.7570	0	33.8820	0	26.703	0	291.537	0	95.6	4	31.4	4	-1E+10	1	-1E+10	1	-1E+10	1	-1E+10	1	-1E+10	1	-1E+10	1
4902549	64	C	05/18/2022	15:54	-131.683	47.506	0	295.10	0	5.7490	0	33.8830	0	26.704	0	292.428	0	95.1	4	31.2	4	-1E+10	1	-1E+10	1	-1E+10	1	-1E+10	1	-1E+10	1	-1E+10	1
4902549	64	C	05/18/2022	15:54	-131.683	47.506	0	296.00	0	5.7300	0	33.8840	0	26.707	0	293.319	0	94.6	4	31.1	4	-1E+10	1	-1E+10	1	-1E+10	1	-1E+10	1	-1E+10	1	-1E+10	1
4902549	64	C	05/18/2022	15:54	-131.683	47.506	0	296.90	0	5.7080	0	33.8850	0	26.711	0	294.210	0	94.2	4	30.9	4	-1E+10	1	-1E+10	1	-1E+10	1	-1E+10	1	-1E+10	1	-1E+10	1
4902549	64	C	05/18/2022	15:54	-131.683	47.506	0	297.80	0	5.6880	0	33.8870	0	26.715	0	295.102	0	93.9	4	30.8	4	-1E+10	1	-1E+10	1	-1E+10	1	-1E+10	1	-1E+10	1	-1E+10	1
4902549	64	C	05/18/2022	15:54	-131.683	47.506	0	298.70	0	5.6880	0	33.8860	0	26.714	0	295.993	0	93.5	4	30.7	4	-1E+10	1	-1E+10	1	-1E+10	1	-1E+10	1	-1E+10	1	-1E+10	1
4902549	64	C	05/18/2022	15:54	-131.683	47.506	0	299.90	0	5.6850	0	33.8860	0	26.714	0	297.181	0	92.8	4	30.4	4	-1E+10	1	-1E+10	1	-1E+10	1	-1E+10	1	-1E+10	1	-1E+10	1
4902549	64	C	05/18/2022	15:54	-131.683	47.506	0	301.30	0	5.6630	0	33.8910	0	26.721	0	298.567	0	92.2	4	30.2	4	-1E+10	1	-1E+10	1	-1E+10	1	-1E+10	1	-1E+10	1	-1E+10	1
4902549	64	C	05/18/2022	15:54	-131.683	47.506	0	302.20	0	5.6560	0	33.8870	0	26.719	0	299.459	0	91.7	4	30.1	4	-1E+10	1	-1E+10	1	-1E+10	1	-1E+10	1	-1E+10	1	-1E+10	1
4902549	64	C	05/18/2022	15:54	-131.683	47.506	0	303.10	0	5.6440	0	33.8900	0	26.723	0	300.350	0	91.4	4	29.9	4	-1E+10	1	-1E+10	1	-1E+10	1	-1E+10	1	-1E+10	1	-1E+10	1
4902549	64	C	05/18/2022	15:54	-131.683	47.506	0	304.00	0	5.6420	0	33.8870	0	26.721	0	301.241	0	90.9	4	29.8	4	-1E+10	1	-1E+10	1	-1E+10	1	-1E+10	1	-1E+10	1	-1E+10	1
4902549	64	C	05/18/2022	15:54	-131.683	47.506	0	304.90	0	5.6370	0	33.8890	0	26.723	0	302.132	0	90.4	4	29.6	4	-1E+10	1	-1E+10	1	-1E+10	1	-1E+10	1	-1E+10	1	-1E+10	1
4902549	64	C	05/18/2022	15:54	-131.683	47.506	0	305.80	0	5.6330	0	33.8880	0	26.722	0	303.023	0	89.8	4	29.4	4	-1E+10	1	-1E+10	1	-1E+10	1	-1E+10	1	-1E+10	1	-1E+10	1
4902549	64	C	05/18/2022	15:54	-131.683	47.506	0	306.70	0	5.6260	0	33.8880	0	26.723	0	303.915	0	89.2	4	29.2	4	-1E+10	1	-1E+10	1	-1E+10	1	-1E+10	1	-1E+10	1	-1E+10	1
4902549	64	C	05/18/2022	15:54	-131.683	47.506	0	307.60	0	5.6160	0	33.8890	0	26.725	0	304.806	0	88.6	4	29.0	4	-1E+10	1	-1E+10	1	-1E+10	1	-1E+10	1	-1E+10	1	-1E+10	1
4902549	64	C	05/18/2022	15:54	-131.683	47.506	0	308.60	0	5.6040	0	33.8890	0	26.727	0	305.796	0	88.0	4	28.8	4	-1E+10	1	-1E+10	1	-1E+10	1	-1E+10	1	-1E+10	1	-1E+10	1
4902549	64	C	05/18/2022	15:54	-131.683	47.506	0	309.90	0	5.5750	0	33.8910	0	26.732	0	307.083	0	87.0	4	28.4	4	-1E+10	1	-1E+10	1	-1E+10	1	-1E+10	1	-1E+10	1	-1E+10	1
4902549	64	C	05/18/2022	15:54	-131.683	47.506	0	311.40	0	5.5190	0	33.8950	0	26.742	0	308.568	0	86.4	4	28.2	4	-1E+10	1	-1E+10	1	-1E+10	1	-1E+10	1	-1E+10	1	-1E+10	1
4902549	64	C	05/18/2022	15:54	-131.683	47.506	0	312.30	0	5.5130	0	33.8960	0	26.743	0	309.459	0	86.0	4	28.1	4	-1E+10	1	-1E+10	1	-1E+10	1	-1E+10	1	-1E+10	1	-1E+10	1
4902549	64	C	05/18/2022	15:54	-131.683	47.506	0	313.20	0	5.5120	0	33.8960	0	26.743	0	310.351	0	85.6	4	28.0	4	-1E+10	1	-1E+10	1	-1E+10	1	-1E+10	1	-1E+10	1	-1E+10	1
4902549	64	C	05/18/2022	15:54	-131.683	47.506	0	314.20	0	5.5080	0	33.8960	0	26.744	0	311.341	0	85.2	4	27.8	4	-1E+10	1	-1E+10	1	-1E+10	1	-1E+10	1	-1E+10	1	-1E+10	1
4902549	64	C	05/18/2022	15:54	-131.683	47.506	0	315.10	0	5.5030	0	33.8960	0	26.744	0	312.232	0	84.7	4	27.7	4	-1E+10	1	-1E+10	1	-1E+10	1	-1E+10	1	-1E+10	1	-1E+10	1
4902549	64	C	05/18/2022	15:54	-131.683	47.506	0	316.00	0	5.4890	0	33.8990	0	26.748	0	313.123	0	84.3	4	27.5	4	-1E+10	1	-1E+10	1	-1E+10	1	-1E+10	1	-1E+10	1	-1E+10	1
4902549	64	C	05/18/2022	15:54	-131.683	47.506	0	317.00	0	5.4460	0	33.9000	0	26.754	0	314.113	0	84.1	4	27.4	4	-1E+10	1	-1E+10	1	-1E+10	1	-1E+10	1	-1E+10	1	-1E+10	1
4902549	64	C	05/18/2022	15:54	-131.683	47.506	0	318.00	0	5.4390	0	33.9010	0	26.756	0	315.103	0	83.8	4	27.3	4	-1E+10	1	-1E+10	1	-1E+10	1	-1E+10	1	-1E+10	1	-1E+10	1
4902549	64	C	05/18/2022	15:54	-131.683	47.506	0	318.90	0	5.4370	0	33.9010	0	26.756	0	315.994	0	83.6	4	27.2	4	-1E+10	1	-1E+10	1	-1E+10	1	-1E+10	1	-1E+10	1	-1E+10	1
4902549	64	C	05/18/2022	15:54	-131.683	47.506	0	319.90	0	5.4370	0	33.9010	0	26.756	0	316.985	0	83.3	4	27.2	4	-1E+10	1	-1E+10	1	-1E+10	1	-1E+10	1	-1E+10	1	-1E+10	1
4902549	64	C	05/18/2022	15:54	-131.683	47.506	0	320.80	0	5.4360	0	33.9010	0	26.756	0	317.876	0	83.0	4	27.1	4	-1E+10	1	-1E+10	1	-1E+10	1	-1E+10	1	-1E+10	1	-1E+10	1
4902549	64	C	05/18/2022	15:54	-131.683	47.506	0	321.80	0	5.4350	0	33.9010	0	26.757	0	318.866	0	82.7	4	26.9	4	-1E+10	1	-1E+10	1	-1E+10	1	-1E+10	1	-1E+10	1	-1E+10	1
4902549	64	C	05/18/2022	15:54	-131.683	47.506	0	322.70	0	5.4330	0	33.9010	0	26.757	0	319.757	0	82.3	4	26.8	4	-1E+10	1	-1E+10	1	-1E+10	1	-1E+10	1	-1E+10	1	-1E+10	1
4902549	64	C	05/18/2022	15:54	-131.683	47.506	0	323.70	0	5.4240	0	33.9020	0	26.759	0	320.747	0	82.0	4	26.7	4	-1E+10	1	-1E+10	1	-1E+10	1	-1E+10	1	-1E+10	1	-1E+10	1
4902549	64	C	05/18/2022	15:54	-131.683	47.506	0	324.70	0	5.4170	0	33.9020	0	26.759	0	321.737	0	81.6	4	26.6	4	-1E+10	1	-1E+10	1	-1E+10	1	-1E+10	1	-1E+10	1	-1E+10	1
4902549	64	C	05/18/2022	15:54	-131.683	47.506	0	325.60	0	5.4070	0	33.9030	0	26.761	0	322.628	0	81.2	4	26.5	4	-1E+10	1	-1E+10	1	-1E+10	1	-1E+10	1	-1E+10	1	-1E+10	1
4902549	64	C	05/18/2022	15:54	-131.683	47.506	0	326.60	0	5.4010	0	33.9020	0	26.761	0	323.618	0	80.8	4	26.3	4	-1E+10	1	-1E+10	1	-1E+10	1	-1E+10	1	-1E+10	1	-1E+10	1
4902549	64	C	05/18/2022	15:54	-131.683	47.506	0	327.60	0	5.3960	0	33.9020	0	26.762	0	324.608	0	80.3	4	26.2	4	-1E+10	1	-1E+10	1	-1E+10	1	-1E+10	1	-1E+10	1	-1E+10	1
4902549	64	C	05/18/2022	15:54	-131.683	47.506	0	328.60	0	5.3720	0	33.9030	0	26.766	0	325.598	0	79.9	4	26.0	4	-1E+10	1	-1E+10	1	-1E+10	1	-1E+10	1	-1E+10	1	-1E+10	1
4902549	64	C	05/18/2022	15:54	-131.683	47.506	0	329.60	0	5.3640	0	33.9040	0	26.767	0	326.589	0	79.5	4	25.9	4	-1E+10	1	-1E+10	1	-1E+10	1	-1E+10	1	-1E+10	1	-1E+10	1
4902549	64	C	05/18/2022	15:54	-131.683	47.506	0	330.50	0	5.3570	0	33.9040	0	26.768	0	327.480	0	79.0	4	25.7	4	-1E+10	1	-1E+10	1	-1E+10	1	-1E+10	1	-1E+10	1	-1E+10	1
4902549	64	C	05/18/2022	15:54	-131.683	47.506	0	331.50	0	5.3400	0	33.9050	0	26.771	0	328.470	0	78.7	4	25.6	4	-1E+10	1	-1E+10	1	-1E+10	1	-1E+10	1	-1E+10	1	-1E+10	1
4902549	64	C	05/18/2022	15:54	-131.683	47.506	0	332.50	0	5.3030	0	33.9070	0	26.777	0	329.460	0	78.5	4	25.5	4	-1E+10	1	-1E+10	1	-1E+10	1	-1E+10	1	-1E+10	1	-1E+10	1
4902549	64	C	05/18/2022	15:54	-131.683	47.506	0	333.50	0	5.2710	0	33.9080	0	26.781	0	330.450	0	78.4	4	25.5	4	-1E+10	1	-1E+10	1	-1E+10	1	-1E+10	1	-1E+10	1	-1E+10	1
4902549	64	C	05/18/2022	15:54	-131.683	47.506	0	334.50	0	5.2530	0	33.9070	0	26.783	0	331.440	0	78.2	4	25.4	4	-1E+10	1	-1E+10	1	-1E+10	1	-1E+10	1	-1E+10	1	-1E+10	1
4902549	64	C	05/18/2022	15:54	-131.683	47.506	0	335.50	0	5.2440	0	33.9070	0	26.784	0	332.430	0	78.0	4	25.3	4	-1E+10	1	-1E+10	1	-1E+10	1	-1E+10	1	-1E+10	1	-1E+10	1
4902549	64	C	05/18/2022	15:54	-131.683	47.506	0	336.60	0	5.2450	0	33.9060	0	26.783	0	333.519	0	77.7	4	25.2	4	-1E+10	1	-1E+10	1	-1E+10	1	-1E+10	1	-1E+10	1	-1E+10	1
4902549	64	C	05/18/2022	15:54	-131.683	47.506	0	337.50	0	5.2330	0	33.9070	0	26.785	0	334.410	0	77.4	4	25.1	4	-1E+10	1	-1E+10	1	-1E+10	1	-1E+10	1	-1E+10	1	-1E+10	1
4902549	64	C	05/18/2022	15:54	-131.683	47.506	0	338.60	0	5.2120	0	33.9090	0	26.789	0	335.499	0	77.1	4	25.0	4	-1E+10	1	-1E+10	1	-1E+10	1	-1E+10	1	-1E+10	1	-1E+10	1
4902549	64	C	05/18/2022	15:54	-131.683	47.506	0	339.60	0	5.1920	0	33.9060	0	26.789	0	336.489	0	76.8	4	24.9	4	-1E+10	1	-1E+10	1	-1E+10	1	-1E+10	1	-1E+10	1	-1E+10	1
4902549	64	C	05/18/2022	15:54	-131.683	47.506	0	340.60	0	5.1810	0	33.9070	0	26.791	0	337.479	0	76.5	4	24.8	4	-1E+10	1	-1E+10	1	-1E+10	1	-1E+10	1	-1E+10	1	-1E+10	1
4902549	64	C	05/18/2022	15:54	-131.683	47.506	0	341.60	0	5.1670	0	33.9080	0	26.794	0	338.469	0	76.2	4	24.7	4	-1E+10	1	-1E+10	1	-1E+10	1	-1E+10	1	-1E+10	1	-1E+10	1
4902549	64	C	05/18/2022	15:54	-131.683	47.506	0	342.60	0	5.1630	0	33.9080	0	26.794	0	339.459	0	75.9	4	24.6	4	-1E+10	1	-1E+10	1	-1E+10	1	-1E+10	1	-1E+10	1	-1E+10	1
4902549	64	C	05/18/2022	15:54	-131.683	47.506	0	343.70	0	5.1550	0	33.9090	0	26.796	0	340.548	0	75.6	4	24.5	4	-1E+10	1	-1E+10	1	-1E+10	1	-1E+10	1	-1E+10	1	-1E+10	1
4902549	64	C	05/18/2022	15:54	-131.683	47.506	0	344.70	0	5.1510	0	33.9090	0	26.796	0	341.538	0	75.2	4	24.4	4	-1E+10	1	-1E+10	1	-1E+10	1	-1E+10	1	-1E+10	1	-1E+10	1
4902549	64	C	05/18/2022	15:54	-131.683	47.506	0	345.70	0	5.1460	0	33.9100	0	26.798	0	342.528	0	74.9	4	24.3	4	-1E+10	1	-1E+10	1	-1E+10	1	-1E+10	1	-1E+10	1	-1E+10	1
4902549	64	C	05/18/2022	15:54	-131.683	47.506	0	346.80	0	5.1420	0	33.9110	0	26.799	0	343.617	0	74.5	4	24.1	4	-1E+10	1	-1E+10	1	-1E+10	1	-1E+10	1	-1E+10	1	-1E+10	1
4902549	64	C	05/18/2022	15:54	-131.683	47.506	0	347.80	0	5.1250	0	33.9110	0	26.801	0	344.607	0	74.2	4	24.0	4	-1E+10	1	-1E+10	1	-1E+10	1	-1E+10	1	-1E+10	1	-1E+10	1
4902549	64	C	05/18/2022	15:54	-131.683	47.506	0	348.80	0	5.1100	0	33.9120	0	26.803	0	345.597	0	73.9	4	23.9	4	-1E+10	1	-1E+10	1	-1E+10	1	-1E+10	1	-1E+10	1	-1E+10	1
4902549	64	C	05/18/2022	15:54	-131.683	47.506	0	349.90	0	5.1090	0	33.9130	0	26.804	0	346.686	0	73.6	4	23.8	4	-1E+10	1	-1E+10	1	-1E+10	1	-1E+10	1	-1E+10	1	-1E+10	1
4902549	64	C	05/18/2022	15:54	-131.683	47.506	0	352.90	0	5.1000	0	33.9130	0	26.805	0	349.656	0	72.5	4	23.5	4	-1E+10	1	-1E+10	1	-1E+10	1	-1E+10	1	-1E+10	1	-1E+10	1
4902549	64	C	05/18/2022	15:54	-131.683	47.506	0	358.00	0	5.0690	0	33.9170	0	26.812	0	354.705	0	70.5	4	22.8	4	-1E+10	1	-1E+10	1	-1E+10	1	-1E+10	1	-1E+10	1	-1E+10	1
4902549	64	C	05/18/2022	15:54	-131.683	47.506	0	363.10	0	5.0350	0	33.9210	0	26.819	0	359.753	0	68.4	4	22.1	4	-1E+10	1	-1E+10	1	-1E+10	1	-1E+10	1	-1E+10	1	-1E+10	1
4902549	64	C	05/18/2022	15:54	-131.683	47.506	0	368.10	0	4.9980	0	33.9270	0	26.828	0	364.703	0	66.5	4	21.5	4	-1E+10	1	-1E+10	1	-1E+10	1	-1E+10	1	-1E+10	1	-1E+10	1
4902549	64	C	05/18/2022	15:54	-131.683	47.506	0	373.20	0	4.9630	0	33.9310	0	26.835	0	369.751	0	65.0	4	21.0	4	-1E+10	1	-1E+10	1	-1E+10	1	-1E+10	1	-1E+10	1	-1E+10	1
4902549	64	C	05/18/2022	15:54	-131.683	47.506	0	378.30	0	4.9270	0	33.9360	0	26.843	0	374.800	0	63.3	4	20.4	4	-1E+10	1	-1E+10	1	-1E+10	1	-1E+10	1	-1E+10	1	-1E+10	1
4902549	64	C	05/18/2022	15:54	-131.683	47.506	0	383.30	0	4.9160	0	33.9380	0	26.846	0	379.749	0	61.5	4	19.8	4	-1E+10	1	-1E+10	1	-1E+10	1	-1E+10	1	-1E+10	1	-1E+10	1
4902549	64	C	05/18/2022	15:54	-131.683	47.506	0	388.20	0	4.9020	0	33.9440	0	26.853	0	384.599	0	59.2	4	19.1	4	-1E+10	1	-1E+10	1	-1E+10	1	-1E+10	1	-1E+10	1	-1E+10	1
4902549	64	C	05/18/2022	15:54	-131.683	47.506	0	393.10	0	4.8820	0	33.9520	0	26.861	0	389.449	0	57.5	4	18.5	4	-1E+10	1	-1E+10	1	-1E+10	1	-1E+10	1	-1E+10	1	-1E+10	1
4902549	64	C	05/18/2022	15:54	-131.683	47.506	0	398.00	0	4.8670	0	33.9570	0	26.867	0	394.299	0	55.9	4	18.0	4	-1E+10	1	-1E+10	1	-1E+10	1	-1E+10	1	-1E+10	1	-1E+10	1
4902549	64	C	05/18/2022	15:54	-131.683	47.506	0	402.80	0	4.8340	0	33.9620	0	26.875	0	399.049	0	54.3	4	17.5	4	-1E+10	1	-1E+10	1	-1E+10	1	-1E+10	1	-1E+10	1	-1E+10	1
4902549	64	C	05/18/2022	15:54	-131.683	47.506	0	408.00	0	4.8100	0	33.9680	0	26.882	0	404.196	0	52.6	4	16.9	4	-1E+10	1	-1E+10	1	-1E+10	1	-1E+10	1	-1E+10	1	-1E+10	1
4902549	64	C	05/18/2022	15:54	-131.683	47.506	0	413.20	0	4.7860	0	33.9730	0	26.889	0	409.342	0	51.1	4	16.4	4	-1E+10	1	-1E+10	1	-1E+10	1	-1E+10	1	-1E+10	1	-1E+10	1
4902549	64	C	05/18/2022	15:54	-131.683	47.506	0	417.90	0	4.7590	0	33.9780	0	26.896	0	413.994	0	49.4	4	15.9	4	-1E+10	1	-1E+10	1	-1E+10	1	-1E+10	1	-1E+10	1	-1E+10	1
4902549	64	C	05/18/2022	15:54	-131.683	47.506	0	423.00	0	4.7530	0	33.9850	0	26.902	0	419.041	0	47.4	4	15.2	4	-1E+10	1	-1E+10	1	-1E+10	1	-1E+10	1	-1E+10	1	-1E+10	1
4902549	64	C	05/18/2022	15:54	-131.683	47.506	0	428.00	0	4.7450	0	33.9970	0	26.913	0	423.989	0	45.9	4	14.7	4	-1E+10	1	-1E+10	1	-1E+10	1	-1E+10	1	-1E+10	1	-1E+10	1
4902549	64	C	05/18/2022	15:54	-131.683	47.506	0	432.70	0	4.7270	0	34.0000	0	26.917	0	428.640	0	45.2	4	14.5	4	-1E+10	1	-1E+10	1	-1E+10	1	-1E+10	1	-1E+10	1	-1E+10	1
4902549	64	C	05/18/2022	15:54	-131.683	47.506	0	437.80	0	4.6670	0	34.0020	0	26.925	0	433.687	0	43.8	4	14.0	4	-1E+10	1	-1E+10	1	-1E+10	1	-1E+10	1	-1E+10	1	-1E+10	1
4902549	64	C	05/18/2022	15:54	-131.683	47.506	0	443.00	0	4.6380	0	34.0080	0	26.933	0	438.832	0	42.4	4	13.6	4	-1E+10	1	-1E+10	1	-1E+10	1	-1E+10	1	-1E+10	1	-1E+10	1
4902549	64	C	05/18/2022	15:54	-131.683	47.506	0	447.80	0	4.6530	0	34.0140	0	26.936	0	443.582	0	41.3	4	13.2	4	-1E+10	1	-1E+10	1	-1E+10	1	-1E+10	1	-1E+10	1	-1E+10	1
4902549	64	C	05/18/2022	15:54	-131.683	47.506	0	452.80	0	4.6550	0	34.0180	0	26.939	0	448.530	0	40.2	4	12.9	4	-1E+10	1	-1E+10	1	-1E+10	1	-1E+10	1	-1E+10	1	-1E+10	1
4902549	64	C	05/18/2022	15:54	-131.683	47.506	0	457.80	0	4.6230	0	34.0240	0	26.948	0	453.477	0	38.8	4	12.4	4	-1E+10	1	-1E+10	1	-1E+10	1	-1E+10	1	-1E+10	1	-1E+10	1
4902549	64	C	05/18/2022	15:54	-131.683	47.506	0	462.80	0	4.5730	0	34.0300	0	26.958	0	458.424	0	38.1	4	12.2	4	-1E+10	1	-1E+10	1	-1E+10	1	-1E+10	1	-1E+10	1	-1E+10	1
4902549	64	C	05/18/2022	15:54	-131.683	47.506	0	467.90	0	4.5490	0	34.0320	0	26.962	0	463.470	0	37.3	4	11.9	4	-1E+10	1	-1E+10	1	-1E+10	1	-1E+10	1	-1E+10	1	-1E+10	1
4902549	64	C	05/18/2022	15:54	-131.683	47.506	0	473.30	0	4.5200	0	34.0360	0	26.968	0	468.813	0	36.3	4	11.6	4	-1E+10	1	-1E+10	1	-1E+10	1	-1E+10	1	-1E+10	1	-1E+10	1
4902549	64	C	05/18/2022	15:54	-131.683	47.506	0	477.90	0	4.5080	0	34.0370	0	26.971	0	473.364	0	35.4	4	11.3	4	-1E+10	1	-1E+10	1	-1E+10	1	-1E+10	1	-1E+10	1	-1E+10	1
4902549	64	C	05/18/2022	15:54	-131.683	47.506	0	482.60	0	4.4930	0	34.0420	0	26.976	0	478.014	0	34.4	4	11.0	4	-1E+10	1	-1E+10	1	-1E+10	1	-1E+10	1	-1E+10	1	-1E+10	1
4902549	64	C	05/18/2022	15:54	-131.683	47.506	0	487.80	0	4.4880	0	34.0450	0	26.979	0	483.159	0	33.0	4	10.5	4	-1E+10	1	-1E+10	1	-1E+10	1	-1E+10	1	-1E+10	1	-1E+10	1
4902549	64	C	05/18/2022	15:54	-131.683	47.506	0	492.80	0	4.4810	0	34.0530	0	26.986	0	488.105	0	31.6	4	10.1	4	-1E+10	1	-1E+10	1	-1E+10	1	-1E+10	1	-1E+10	1	-1E+10	1
4902549	64	C	05/18/2022	15:54	-131.683	47.506	0	497.80	0	4.4780	0	34.0590	0	26.991	0	493.052	0	30.5	4	9.7	4	-1E+10	1	-1E+10	1	-1E+10	1	-1E+10	1	-1E+10	1	-1E+10	1
4902549	64	C	05/18/2022	15:54	-131.683	47.506	0	502.90	0	4.4720	0	34.0620	0	26.994	0	498.097	0	29.2	4	9.3	4	-1E+10	1	-1E+10	1	-1E+10	1	-1E+10	1	-1E+10	1	-1E+10	1
4902549	64	C	05/18/2022	15:54	-131.683	47.506	0	507.90	0	4.4520	0	34.0690	0	27.002	0	503.043	0	27.9	4	8.9	4	-1E+10	1	-1E+10	1	-1E+10	1	-1E+10	1	-1E+10	1	-1E+10	1
4902549	64	C	05/18/2022	15:54	-131.683	47.506	0	513.00	0	4.4370	0	34.0750	0	27.009	0	508.088	0	26.5	4	8.5	4	-1E+10	1	-1E+10	1	-1E+10	1	-1E+10	1	-1E+10	1	-1E+10	1
4902549	64	C	05/18/2022	15:54	-131.683	47.506	0	517.60	0	4.4250	0	34.0820	0	27.016	0	512.639	0	25.4	4	8.1	4	-1E+10	1	-1E+10	1	-1E+10	1	-1E+10	1	-1E+10	1	-1E+10	1
4902549	64	C	05/18/2022	15:54	-131.683	47.506	0	522.80	0	4.4240	0	34.0890	0	27.021	0	517.782	0	24.4	4	7.8	4	-1E+10	1	-1E+10	1	-1E+10	1	-1E+10	1	-1E+10	1	-1E+10	1
4902549	64	C	05/18/2022	15:54	-131.683	47.506	0	527.90	0	4.4180	0	34.0930	0	27.025	0	522.827	0	23.3	4	7.4	4	-1E+10	1	-1E+10	1	-1E+10	1	-1E+10	1	-1E+10	1	-1E+10	1
4902549	64	C	05/18/2022	15:54	-131.683	47.506	0	532.60	0	4.3960	0	34.0990	0	27.032	0	527.476	0	22.5	4	7.2	4	-1E+10	1	-1E+10	1	-1E+10	1	-1E+10	1	-1E+10	1	-1E+10	1
4902549	64	C	05/18/2022	15:54	-131.683	47.506	0	537.80	0	4.3750	0	34.1030	0	27.038	0	532.619	0	21.8	4	6.9	4	-1E+10	1	-1E+10	1	-1E+10	1	-1E+10	1	-1E+10	1	-1E+10	1
4902549	64	C	05/18/2022	15:54	-131.683	47.506	0	543.00	0	4.3540	0	34.1070	0	27.043	0	537.762	0	21.4	4	6.8	4	-1E+10	1	-1E+10	1	-1E+10	1	-1E+10	1	-1E+10	1	-1E+10	1
4902549	64	C	05/18/2022	15:54	-131.683	47.506	0	547.70	0	4.3170	0	34.1080	0	27.048	0	542.411	0	21.0	4	6.7	4	-1E+10	1	-1E+10	1	-1E+10	1	-1E+10	1	-1E+10	1	-1E+10	1
4902549	64	C	05/18/2022	15:54	-131.683	47.506	0	552.90	0	4.2900	0	34.1120	0	27.054	0	547.554	0	20.5	4	6.5	4	-1E+10	1	-1E+10	1	-1E+10	1	-1E+10	1	-1E+10	1	-1E+10	1
4902549	64	C	05/18/2022	15:54	-131.683	47.506	0	558.10	0	4.2730	0	34.1150	0	27.058	0	552.697	0	20.0	4	6.3	4	-1E+10	1	-1E+10	1	-1E+10	1	-1E+10	1	-1E+10	1	-1E+10	1
4902549	64	C	05/18/2022	15:54	-131.683	47.506	0	562.80	0	4.2650	0	34.1160	0	27.060	0	557.345	0	19.3	4	6.1	4	-1E+10	1	-1E+10	1	-1E+10	1	-1E+10	1	-1E+10	1	-1E+10	1
4902549	64	C	05/18/2022	15:54	-131.683	47.506	0	568.00	0	4.2460	0	34.1210	0	27.066	0	562.487	0	18.2	4	5.8	4	-1E+10	1	-1E+10	1	-1E+10	1	-1E+10	1	-1E+10	1	-1E+10	1
4902549	64	C	05/18/2022	15:54	-131.683	47.506	0	573.30	0	4.2540	0	34.1310	0	27.073	0	567.729	0	17.2	4	5.5	4	-1E+10	1	-1E+10	1	-1E+10	1	-1E+10	1	-1E+10	1	-1E+10	1
4902549	64	C	05/18/2022	15:54	-131.683	47.506	0	578.20	0	4.2660	0	34.1380	0	27.077	0	572.574	0	16.5	4	5.2	4	-1E+10	1	-1E+10	1	-1E+10	1	-1E+10	1	-1E+10	1	-1E+10	1
4902549	64	C	05/18/2022	15:54	-131.683	47.506	0	583.10	0	4.2510	0	34.1440	0	27.084	0	577.420	0	15.9	4	5.1	4	-1E+10	1	-1E+10	1	-1E+10	1	-1E+10	1	-1E+10	1	-1E+10	1
4902549	64	C	05/18/2022	15:54	-131.683	47.506	0	588.00	0	4.2550	0	34.1470	0	27.086	0	582.265	0	15.3	4	4.8	4	-1E+10	1	-1E+10	1	-1E+10	1	-1E+10	1	-1E+10	1	-1E+10	1
4902549	64	C	05/18/2022	15:54	-131.683	47.506	0	593.00	0	4.2360	0	34.1540	0	27.093	0	587.210	0	14.7	4	4.7	4	-1E+10	1	-1E+10	1	-1E+10	1	-1E+10	1	-1E+10	1	-1E+10	1
4902549	64	C	05/18/2022	15:54	-131.683	47.506	0	598.00	0	4.2290	0	34.1580	0	27.097	0	592.154	0	14.4	4	4.6	4	-1E+10	1	-1E+10	1	-1E+10	1	-1E+10	1	-1E+10	1	-1E+10	1
4902549	64	C	05/18/2022	15:54	-131.683	47.506	0	603.10	0	4.2230	0	34.1620	0	27.101	0	597.196	0	13.9	4	4.4	4	-1E+10	1	-1E+10	1	-1E+10	1	-1E+10	1	-1E+10	1	-1E+10	1
4902549	64	C	05/18/2022	15:54	-131.683	47.506	0	608.10	0	4.2230	0	34.1670	0	27.105	0	602.140	0	13.5	4	4.3	4	-1E+10	1	-1E+10	1	-1E+10	1	-1E+10	1	-1E+10	1	-1E+10	1
4902549	64	C	05/18/2022	15:54	-131.683	47.506	0	613.00	0	4.2210	0	34.1700	0	27.108	0	606.985	0	13.2	4	4.2	4	-1E+10	1	-1E+10	1	-1E+10	1	-1E+10	1	-1E+10	1	-1E+10	1
4902549	64	C	05/18/2022	15:54	-131.683	47.506	0	618.00	0	4.2160	0	34.1710	0	27.109	0	611.929	0	12.6	4	4.0	4	-1E+10	1	-1E+10	1	-1E+10	1	-1E+10	1	-1E+10	1	-1E+10	1
4902549	64	C	05/18/2022	15:54	-131.683	47.506	0	623.00	0	4.2270	0	34.1810	0	27.116	0	616.872	0	12.2	4	3.9	4	-1E+10	1	-1E+10	1	-1E+10	1	-1E+10	1	-1E+10	1	-1E+10	1
4902549	64	C	05/18/2022	15:54	-131.683	47.506	0	627.70	0	4.2110	0	34.1830	0	27.119	0	621.519	0	12.0	4	3.8	4	-1E+10	1	-1E+10	1	-1E+10	1	-1E+10	1	-1E+10	1	-1E+10	1
4902549	64	C	05/18/2022	15:54	-131.683	47.506	0	632.60	0	4.1780	0	34.1850	0	27.124	0	626.363	0	11.6	4	3.7	4	-1E+10	1	-1E+10	1	-1E+10	1	-1E+10	1	-1E+10	1	-1E+10	1
4902549	64	C	05/18/2022	15:54	-131.683	47.506	0	637.60	0	4.1960	0	34.1900	0	27.126	0	631.306	0	11.3	4	3.6	4	-1E+10	1	-1E+10	1	-1E+10	1	-1E+10	1	-1E+10	1	-1E+10	1
4902549	64	C	05/18/2022	15:54	-131.683	47.506	0	642.80	0	4.1820	0	34.1930	0	27.130	0	636.447	0	11.0	4	3.5	4	-1E+10	1	-1E+10	1	-1E+10	1	-1E+10	1	-1E+10	1	-1E+10	1
4902549	64	C	05/18/2022	15:54	-131.683	47.506	0	647.80	0	4.1610	0	34.1960	0	27.135	0	641.390	0	10.8	4	3.4	4	-1E+10	1	-1E+10	1	-1E+10	1	-1E+10	1	-1E+10	1	-1E+10	1
4902549	64	C	05/18/2022	15:54	-131.683	47.506	0	652.70	0	4.1550	0	34.1990	0	27.138	0	646.234	0	10.6	4	3.4	4	-1E+10	1	-1E+10	1	-1E+10	1	-1E+10	1	-1E+10	1	-1E+10	1
4902549	64	C	05/18/2022	15:54	-131.683	47.506	0	657.90	0	4.1350	0	34.2020	0	27.143	0	651.374	0	10.6	4	3.4	4	-1E+10	1	-1E+10	1	-1E+10	1	-1E+10	1	-1E+10	1	-1E+10	1
4902549	64	C	05/18/2022	15:54	-131.683	47.506	0	662.60	0	4.1120	0	34.2020	0	27.145	0	656.020	0	10.5	4	3.3	4	-1E+10	1	-1E+10	1	-1E+10	1	-1E+10	1	-1E+10	1	-1E+10	1
4902549	64	C	05/18/2022	15:54	-131.683	47.506	0	667.50	0	4.0950	0	34.2040	0	27.148	0	660.864	0	10.3	4	3.3	4	-1E+10	1	-1E+10	1	-1E+10	1	-1E+10	1	-1E+10	1	-1E+10	1
4902549	64	C	05/18/2022	15:54	-131.683	47.506	0	672.50	0	4.0860	0	34.2060	0	27.151	0	665.806	0	10.1	4	3.2	4	-1E+10	1	-1E+10	1	-1E+10	1	-1E+10	1	-1E+10	1	-1E+10	1
4902549	64	C	05/18/2022	15:54	-131.683	47.506	0	677.50	0	4.0820	0	34.2110	0	27.155	0	670.748	0	9.9	4	3.1	4	-1E+10	1	-1E+10	1	-1E+10	1	-1E+10	1	-1E+10	1	-1E+10	1
4902549	64	C	05/18/2022	15:54	-131.683	47.506	0	682.70	0	4.0810	0	34.2130	0	27.157	0	675.888	0	9.7	4	3.1	4	-1E+10	1	-1E+10	1	-1E+10	1	-1E+10	1	-1E+10	1	-1E+10	1
4902549	64	C	05/18/2022	15:54	-131.683	47.506	0	687.70	0	4.0790	0	34.2140	0	27.158	0	680.830	0	9.6	4	3.0	4	-1E+10	1	-1E+10	1	-1E+10	1	-1E+10	1	-1E+10	1	-1E+10	1
4902549	64	C	05/18/2022	15:54	-131.683	47.506	0	692.80	0	4.0580	0	34.2190	0	27.164	0	685.871	0	9.5	4	3.0	4	-1E+10	1	-1E+10	1	-1E+10	1	-1E+10	1	-1E+10	1	-1E+10	1
4902549	64	C	05/18/2022	15:54	-131.683	47.506	0	697.90	0	4.0400	0	34.2190	0	27.166	0	690.911	0	9.5	4	3.0	4	-1E+10	1	-1E+10	1	-1E+10	1	-1E+10	1	-1E+10	1	-1E+10	1
4902549	64	C	05/18/2022	15:54	-131.683	47.506	0	703.20	0	4.0220	0	34.2210	0	27.170	0	696.149	0	9.4	4	3.0	4	-1E+10	1	-1E+10	1	-1E+10	1	-1E+10	1	-1E+10	1	-1E+10	1
4902549	64	C	05/18/2022	15:54	-131.683	47.506	0	707.90	0	4.0170	0	34.2210	0	27.170	0	700.794	0	9.3	4	2.9	4	-1E+10	1	-1E+10	1	-1E+10	1	-1E+10	1	-1E+10	1	-1E+10	1
4902549	64	C	05/18/2022	15:54	-131.683	47.506	0	712.70	0	4.0170	0	34.2240	0	27.173	0	705.538	0	9.2	4	2.9	4	-1E+10	1	-1E+10	1	-1E+10	1	-1E+10	1	-1E+10	1	-1E+10	1
4902549	64	C	05/18/2022	15:54	-131.683	47.506	0	718.00	0	3.9970	0	34.2260	0	27.176	0	710.776	0	9.1	4	2.9	4	-1E+10	1	-1E+10	1	-1E+10	1	-1E+10	1	-1E+10	1	-1E+10	1
4902549	64	C	05/18/2022	15:54	-131.683	47.506	0	723.30	0	3.9940	0	34.2270	0	27.177	0	716.013	0	9.0	4	2.9	4	-1E+10	1	-1E+10	1	-1E+10	1	-1E+10	1	-1E+10	1	-1E+10	1
4902549	64	C	05/18/2022	15:54	-131.683	47.506	0	728.00	0	3.9770	0	34.2290	0	27.181	0	720.658	0	9.0	4	2.8	4	-1E+10	1	-1E+10	1	-1E+10	1	-1E+10	1	-1E+10	1	-1E+10	1
4902549	64	C	05/18/2022	15:54	-131.683	47.506	0	732.80	0	3.9700	0	34.2310	0	27.183	0	725.401	0	8.9	4	2.8	4	-1E+10	1	-1E+10	1	-1E+10	1	-1E+10	1	-1E+10	1	-1E+10	1
4902549	64	C	05/18/2022	15:54	-131.683	47.506	0	738.00	0	3.9670	0	34.2310	0	27.183	0	730.540	0	8.9	4	2.8	4	-1E+10	1	-1E+10	1	-1E+10	1	-1E+10	1	-1E+10	1	-1E+10	1
4902549	64	C	05/18/2022	15:54	-131.683	47.506	0	743.20	0	3.9590	0	34.2330	0	27.186	0	735.678	0	8.7	4	2.8	4	-1E+10	1	-1E+10	1	-1E+10	1	-1E+10	1	-1E+10	1	-1E+10	1
4902549	64	C	05/18/2022	15:54	-131.683	47.506	0	748.40	0	3.9490	0	34.2360	0	27.189	0	740.816	0	8.6	4	2.7	4	-1E+10	1	-1E+10	1	-1E+10	1	-1E+10	1	-1E+10	1	-1E+10	1
4902549	64	C	05/18/2022	15:54	-131.683	47.506	0	752.90	0	3.9370	0	34.2370	0	27.191	0	745.262	0	8.6	4	2.7	4	-1E+10	1	-1E+10	1	-1E+10	1	-1E+10	1	-1E+10	1	-1E+10	1
4902549	64	C	05/18/2022	15:54	-131.683	47.506	0	757.50	0	3.9150	0	34.2400	0	27.196	0	749.807	0	8.5	4	2.7	4	-1E+10	1	-1E+10	1	-1E+10	1	-1E+10	1	-1E+10	1	-1E+10	1
4902549	64	C	05/18/2022	15:54	-131.683	47.506	0	762.50	0	3.9050	0	34.2420	0	27.199	0	754.748	0	8.3	4	2.6	4	-1E+10	1	-1E+10	1	-1E+10	1	-1E+10	1	-1E+10	1	-1E+10	1
4902549	64	C	05/18/2022	15:54	-131.683	47.506	0	767.50	0	3.8800	0	34.2450	0	27.204	0	759.688	0	8.2	4	2.6	4	-1E+10	1	-1E+10	1	-1E+10	1	-1E+10	1	-1E+10	1	-1E+10	1
4902549	64	C	05/18/2022	15:54	-131.683	47.506	0	772.90	0	3.8610	0	34.2500	0	27.209	0	765.023	0	8.0	4	2.5	4	-1E+10	1	-1E+10	1	-1E+10	1	-1E+10	1	-1E+10	1	-1E+10	1
4902549	64	C	05/18/2022	15:54	-131.683	47.506	0	778.40	0	3.8460	0	34.2520	0	27.213	0	770.457	0	7.9	4	2.5	4	-1E+10	1	-1E+10	1	-1E+10	1	-1E+10	1	-1E+10	1	-1E+10	1
4902549	64	C	05/18/2022	15:54	-131.683	47.506	0	783.30	0	3.8220	0	34.2590	0	27.221	0	775.297	0	7.7	4	2.4	4	-1E+10	1	-1E+10	1	-1E+10	1	-1E+10	1	-1E+10	1	-1E+10	1
4902549	64	C	05/18/2022	15:54	-131.683	47.506	0	788.20	0	3.7970	0	34.2620	0	27.226	0	780.138	0	7.6	4	2.4	4	-1E+10	1	-1E+10	1	-1E+10	1	-1E+10	1	-1E+10	1	-1E+10	1
4902549	64	C	05/18/2022	15:54	-131.683	47.506	0	793.10	0	3.7820	0	34.2660	0	27.230	0	784.979	0	7.6	4	2.4	4	-1E+10	1	-1E+10	1	-1E+10	1	-1E+10	1	-1E+10	1	-1E+10	1
4902549	64	C	05/18/2022	15:54	-131.683	47.506	0	798.00	0	3.7430	0	34.2680	0	27.236	0	789.820	0	7.7	4	2.4	4	-1E+10	1	-1E+10	1	-1E+10	1	-1E+10	1	-1E+10	1	-1E+10	1
4902549	64	C	05/18/2022	15:54	-131.683	47.506	0	803.00	0	3.7240	0	34.2690	0	27.238	0	794.759	0	7.7	4	2.4	4	-1E+10	1	-1E+10	1	-1E+10	1	-1E+10	1	-1E+10	1	-1E+10	1
4902549	64	C	05/18/2022	15:54	-131.683	47.506	0	808.10	0	3.7070	0	34.2710	0	27.242	0	799.797	0	7.6	4	2.4	4	-1E+10	1	-1E+10	1	-1E+10	1	-1E+10	1	-1E+10	1	-1E+10	1
4902549	64	C	05/18/2022	15:54	-131.683	47.506	0	813.10	0	3.6920	0	34.2720	0	27.244	0	804.736	0	7.6	4	2.4	4	-1E+10	1	-1E+10	1	-1E+10	1	-1E+10	1	-1E+10	1	-1E+10	1
4902549	64	C	05/18/2022	15:54	-131.683	47.506	0	818.10	0	3.6700	0	34.2750	0	27.249	0	809.675	0	7.5	4	2.3	4	-1E+10	1	-1E+10	1	-1E+10	1	-1E+10	1	-1E+10	1	-1E+10	1
4902549	64	C	05/18/2022	15:54	-131.683	47.506	0	823.20	0	3.6410	0	34.2790	0	27.255	0	814.712	0	7.4	4	2.3	4	-1E+10	1	-1E+10	1	-1E+10	1	-1E+10	1	-1E+10	1	-1E+10	1
4902549	64	C	05/18/2022	15:54	-131.683	47.506	0	828.30	0	3.6210	0	34.2820	0	27.259	0	819.749	0	7.4	4	2.3	4	-1E+10	1	-1E+10	1	-1E+10	1	-1E+10	1	-1E+10	1	-1E+10	1
4902549	64	C	05/18/2022	15:54	-131.683	47.506	0	832.90	0	3.6060	0	34.2840	0	27.262	0	824.293	0	7.3	4	2.3	4	-1E+10	1	-1E+10	1	-1E+10	1	-1E+10	1	-1E+10	1	-1E+10	1
4902549	64	C	05/18/2022	15:54	-131.683	47.506	0	837.50	0	3.5870	0	34.2880	0	27.267	0	828.836	0	7.3	4	2.3	4	-1E+10	1	-1E+10	1	-1E+10	1	-1E+10	1	-1E+10	1	-1E+10	1
4902549	64	C	05/18/2022	15:54	-131.683	47.506	0	842.60	0	3.5740	0	34.2900	0	27.270	0	833.873	0	7.2	4	2.3	4	-1E+10	1	-1E+10	1	-1E+10	1	-1E+10	1	-1E+10	1	-1E+10	1
4902549	64	C	05/18/2022	15:54	-131.683	47.506	0	847.70	0	3.5610	0	34.2920	0	27.273	0	838.910	0	7.2	4	2.2	4	-1E+10	1	-1E+10	1	-1E+10	1	-1E+10	1	-1E+10	1	-1E+10	1
4902549	64	C	05/18/2022	15:54	-131.683	47.506	0	852.90	0	3.5450	0	34.2950	0	27.277	0	844.046	0	7.2	4	2.2	4	-1E+10	1	-1E+10	1	-1E+10	1	-1E+10	1	-1E+10	1	-1E+10	1
4902549	64	C	05/18/2022	15:54	-131.683	47.506	0	858.10	0	3.5200	0	34.2980	0	27.282	0	849.181	0	7.2	4	2.2	4	-1E+10	1	-1E+10	1	-1E+10	1	-1E+10	1	-1E+10	1	-1E+10	1
4902549	64	C	05/18/2022	15:54	-131.683	47.506	0	863.00	0	3.5100	0	34.2990	0	27.284	0	854.020	0	7.1	4	2.2	4	-1E+10	1	-1E+10	1	-1E+10	1	-1E+10	1	-1E+10	1	-1E+10	1
4902549	64	C	05/18/2022	15:54	-131.683	47.506	0	868.00	0	3.5030	0	34.3010	0	27.286	0	858.958	0	7.1	4	2.2	4	-1E+10	1	-1E+10	1	-1E+10	1	-1E+10	1	-1E+10	1	-1E+10	1
4902549	64	C	05/18/2022	15:54	-131.683	47.506	0	873.10	0	3.4880	0	34.3040	0	27.290	0	863.994	0	7.1	4	2.2	4	-1E+10	1	-1E+10	1	-1E+10	1	-1E+10	1	-1E+10	1	-1E+10	1
4902549	64	C	05/18/2022	15:54	-131.683	47.506	0	878.20	0	3.4780	0	34.3050	0	27.291	0	869.031	0	7.1	4	2.2	4	-1E+10	1	-1E+10	1	-1E+10	1	-1E+10	1	-1E+10	1	-1E+10	1
4902549	64	C	05/18/2022	15:54	-131.683	47.506	0	883.00	0	3.4590	0	34.3040	0	27.293	0	873.771	0	7.1	4	2.2	4	-1E+10	1	-1E+10	1	-1E+10	1	-1E+10	1	-1E+10	1	-1E+10	1
4902549	64	C	05/18/2022	15:54	-131.683	47.506	0	887.90	0	3.4310	0	34.3060	0	27.297	0	878.609	0	7.1	4	2.2	4	-1E+10	1	-1E+10	1	-1E+10	1	-1E+10	1	-1E+10	1	-1E+10	1
4902549	64	C	05/18/2022	15:54	-131.683	47.506	0	893.00	0	3.4220	0	34.3090	0	27.300	0	883.645	0	7.0	4	2.2	4	-1E+10	1	-1E+10	1	-1E+10	1	-1E+10	1	-1E+10	1	-1E+10	1
4902549	64	C	05/18/2022	15:54	-131.683	47.506	0	897.60	0	3.4150	0	34.3120	0	27.303	0	888.187	0	7.0	4	2.2	4	-1E+10	1	-1E+10	1	-1E+10	1	-1E+10	1	-1E+10	1	-1E+10	1
4902549	64	C	05/18/2022	15:54	-131.683	47.506	0	902.90	0	3.4030	0	34.3150	0	27.307	0	893.420	0	6.9	4	2.2	4	-1E+10	1	-1E+10	1	-1E+10	1	-1E+10	1	-1E+10	1	-1E+10	1
4902549	64	C	05/18/2022	15:54	-131.683	47.506	0	908.20	0	3.3890	0	34.3160	0	27.309	0	898.653	0	6.9	4	2.2	4	-1E+10	1	-1E+10	1	-1E+10	1	-1E+10	1	-1E+10	1	-1E+10	1
4902549	64	C	05/18/2022	15:54	-131.683	47.506	0	913.10	0	3.3700	0	34.3190	0	27.313	0	903.491	0	6.9	4	2.2	4	-1E+10	1	-1E+10	1	-1E+10	1	-1E+10	1	-1E+10	1	-1E+10	1
4902549	64	C	05/18/2022	15:54	-131.683	47.506	0	918.00	0	3.3570	0	34.3210	0	27.316	0	908.329	0	6.9	4	2.1	4	-1E+10	1	-1E+10	1	-1E+10	1	-1E+10	1	-1E+10	1	-1E+10	1
4902549	64	C	05/18/2022	15:54	-131.683	47.506	0	922.90	0	3.3540	0	34.3210	0	27.316	0	913.166	0	6.9	4	2.1	4	-1E+10	1	-1E+10	1	-1E+10	1	-1E+10	1	-1E+10	1	-1E+10	1
4902549	64	C	05/18/2022	15:54	-131.683	47.506	0	927.70	0	3.3460	0	34.3230	0	27.319	0	917.905	0	6.8	4	2.1	4	-1E+10	1	-1E+10	1	-1E+10	1	-1E+10	1	-1E+10	1	-1E+10	1
4902549	64	C	05/18/2022	15:54	-131.683	47.506	0	932.70	0	3.3370	0	34.3240	0	27.320	0	922.842	0	6.8	4	2.1	4	-1E+10	1	-1E+10	1	-1E+10	1	-1E+10	1	-1E+10	1	-1E+10	1
4902549	64	C	05/18/2022	15:54	-131.683	47.506	0	937.70	0	3.3270	0	34.3260	0	27.323	0	927.778	0	6.8	4	2.1	4	-1E+10	1	-1E+10	1	-1E+10	1	-1E+10	1	-1E+10	1	-1E+10	1
4902549	64	C	05/18/2022	15:54	-131.683	47.506	0	942.70	0	3.3140	0	34.3300	0	27.327	0	932.714	0	6.7	4	2.1	4	-1E+10	1	-1E+10	1	-1E+10	1	-1E+10	1	-1E+10	1	-1E+10	1
4902549	64	C	05/18/2022	15:54	-131.683	47.506	0	947.70	0	3.3070	0	34.3310	0	27.329	0	937.649	0	6.7	4	2.1	4	-1E+10	1	-1E+10	1	-1E+10	1	-1E+10	1	-1E+10	1	-1E+10	1
4902549	64	C	05/18/2022	15:54	-131.683	47.506	0	952.80	0	3.2950	0	34.3330	0	27.332	0	942.684	0	6.7	4	2.1	4	-1E+10	1	-1E+10	1	-1E+10	1	-1E+10	1	-1E+10	1	-1E+10	1
4902549	64	C	05/18/2022	15:54	-131.683	47.506	0	957.90	0	3.2840	0	34.3360	0	27.335	0	947.718	0	6.6	4	2.1	4	-1E+10	1	-1E+10	1	-1E+10	1	-1E+10	1	-1E+10	1	-1E+10	1
4902549	64	C	05/18/2022	15:54	-131.683	47.506	0	963.10	0	3.2760	0	34.3380	0	27.337	0	952.851	0	6.6	4	2.0	4	-1E+10	1	-1E+10	1	-1E+10	1	-1E+10	1	-1E+10	1	-1E+10	1
4902549	64	C	05/18/2022	15:54	-131.683	47.506	0	968.30	0	3.2600	0	34.3410	0	27.341	0	957.984	0	6.6	4	2.0	4	-1E+10	1	-1E+10	1	-1E+10	1	-1E+10	1	-1E+10	1	-1E+10	1
4902549	64	C	05/18/2022	15:54	-131.683	47.506	0	972.90	0	3.2560	0	34.3420	0	27.343	0	962.524	0	6.5	4	2.0	4	-1E+10	1	-1E+10	1	-1E+10	1	-1E+10	1	-1E+10	1	-1E+10	1
4902549	64	C	05/18/2022	15:54	-131.683	47.506	0	977.50	0	3.2430	0	34.3450	0	27.346	0	967.065	0	6.5	4	2.0	4	-1E+10	1	-1E+10	1	-1E+10	1	-1E+10	1	-1E+10	1	-1E+10	1
4902549	64	C	05/18/2022	15:54	-131.683	47.506	0	982.60	0	3.2240	0	34.3510	0	27.353	0	972.098	0	6.5	4	2.0	4	-1E+10	1	-1E+10	1	-1E+10	1	-1E+10	1	-1E+10	1	-1E+10	1
4902549	64	C	05/18/2022	15:54	-131.683	47.506	0	987.80	0	3.2110	0	34.3540	0	27.356	0	977.231	0	6.5	4	2.0	4	-1E+10	1	-1E+10	1	-1E+10	1	-1E+10	1	-1E+10	1	-1E+10	1
4902549	64	C	05/18/2022	15:54	-131.683	47.506	0	993.00	0	3.2050	0	34.3560	0	27.359	0	982.363	0	6.5	4	2.0	4	-1E+10	1	-1E+10	1	-1E+10	1	-1E+10	1	-1E+10	1	-1E+10	1
4902549	64	C	05/18/2022	15:54	-131.683	47.506	0	998.10	0	3.1940	0	34.3590	0	27.362	0	987.396	0	6.6	4	2.0	4	-1E+10	1	-1E+10	1	-1E+10	1	-1E+10	1	-1E+10	1	-1E+10	1
4902549	64	C	05/18/2022	15:54	-131.683	47.506	0	1005.70	0	3.1760	0	34.3640	0	27.368	0	994.897	0	6.6	4	2.0	4	-1E+10	1	-1E+10	1	-1E+10	1	-1E+10	1	-1E+10	1	-1E+10	1
4902549	64	C	05/18/2022	15:54	-131.683	47.506	0	1015.50	0	3.1670	0	34.3670	0	27.371	0	1004.568	0	6.6	4	2.1	4	-1E+10	1	-1E+10	1	-1E+10	1	-1E+10	1	-1E+10	1	-1E+10	1
4902549	64	C	05/18/2022	15:54	-131.683	47.506	0	1025.10	0	3.1580	0	34.3690	0	27.373	0	1014.041	0	6.7	4	2.1	4	-1E+10	1	-1E+10	1	-1E+10	1	-1E+10	1	-1E+10	1	-1E+10	1
4902549	64	C	05/18/2022	15:54	-131.683	47.506	0	1035.60	0	3.1350	0	34.3750	0	27.380	0	1024.402	0	6.8	4	2.1	4	-1E+10	1	-1E+10	1	-1E+10	1	-1E+10	1	-1E+10	1	-1E+10	1
4902549	64	C	05/18/2022	15:54	-131.683	47.506	0	1045.20	0	3.1040	0	34.3830	0	27.390	0	1033.875	0	6.9	4	2.1	4	-1E+10	1	-1E+10	1	-1E+10	1	-1E+10	1	-1E+10	1	-1E+10	1
4902549	64	C	05/18/2022	15:54	-131.683	47.506	0	1055.40	0	3.0870	0	34.3870	0	27.394	0	1043.939	0	7.0	4	2.2	4	-1E+10	1	-1E+10	1	-1E+10	1	-1E+10	1	-1E+10	1	-1E+10	1
4902549	64	C	05/18/2022	15:54	-131.683	47.506	0	1065.70	0	3.0620	0	34.3900	0	27.399	0	1054.101	0	7.0	4	2.2	4	-1E+10	1	-1E+10	1	-1E+10	1	-1E+10	1	-1E+10	1	-1E+10	1
4902549	64	C	05/18/2022	15:54	-131.683	47.506	0	1075.70	0	3.0470	0	34.3920	0	27.402	0	1063.967	0	7.1	4	2.2	4	-1E+10	1	-1E+10	1	-1E+10	1	-1E+10	1	-1E+10	1	-1E+10	1
4902549	64	C	05/18/2022	15:54	-131.683	47.506	0	1085.60	0	3.0400	0	34.3940	0	27.405	0	1073.734	0	7.2	4	2.2	4	-1E+10	1	-1E+10	1	-1E+10	1	-1E+10	1	-1E+10	1	-1E+10	1
4902549	64	C	05/18/2022	15:54	-131.683	47.506	0	1095.70	0	3.0250	0	34.3960	0	27.408	0	1083.697	0	7.3	4	2.3	4	-1E+10	1	-1E+10	1	-1E+10	1	-1E+10	1	-1E+10	1	-1E+10	1
4902549	64	C	05/18/2022	15:54	-131.683	47.506	0	1105.40	0	2.9930	0	34.4030	0	27.416	0	1093.266	0	7.5	4	2.3	4	-1E+10	1	-1E+10	1	-1E+10	1	-1E+10	1	-1E+10	1	-1E+10	1
4902549	64	C	05/18/2022	15:54	-131.683	47.506	0	1115.20	0	2.9690	0	34.4070	0	27.421	0	1102.933	0	7.6	4	2.3	4	-1E+10	1	-1E+10	1	-1E+10	1	-1E+10	1	-1E+10	1	-1E+10	1
4902549	64	C	05/18/2022	15:54	-131.683	47.506	0	1125.30	0	2.9560	0	34.4100	0	27.425	0	1112.895	0	7.7	4	2.4	4	-1E+10	1	-1E+10	1	-1E+10	1	-1E+10	1	-1E+10	1	-1E+10	1
4902549	64	C	05/18/2022	15:54	-131.683	47.506	0	1135.30	0	2.9500	0	34.4110	0	27.426	0	1122.758	0	7.8	4	2.4	4	-1E+10	1	-1E+10	1	-1E+10	1	-1E+10	1	-1E+10	1	-1E+10	1
4902549	64	C	05/18/2022	15:54	-131.683	47.506	0	1145.40	0	2.9430	0	34.4120	0	27.428	0	1132.719	0	7.9	4	2.4	4	-1E+10	1	-1E+10	1	-1E+10	1	-1E+10	1	-1E+10	1	-1E+10	1
4902549	64	C	05/18/2022	15:54	-131.683	47.506	0	1155.40	0	2.9320	0	34.4140	0	27.431	0	1142.581	0	8.0	4	2.5	4	-1E+10	1	-1E+10	1	-1E+10	1	-1E+10	1	-1E+10	1	-1E+10	1
4902549	64	C	05/18/2022	15:54	-131.683	47.506	0	1165.50	0	2.9190	0	34.4170	0	27.434	0	1152.541	0	8.1	4	2.5	4	-1E+10	1	-1E+10	1	-1E+10	1	-1E+10	1	-1E+10	1	-1E+10	1
4902549	64	C	05/18/2022	15:54	-131.683	47.506	0	1175.70	0	2.9090	0	34.4190	0	27.437	0	1162.600	0	8.3	4	2.5	4	-1E+10	1	-1E+10	1	-1E+10	1	-1E+10	1	-1E+10	1	-1E+10	1
4902549	64	C	05/18/2022	15:54	-131.683	47.506	0	1185.40	0	2.8950	0	34.4220	0	27.440	0	1172.165	0	8.4	4	2.6	4	-1E+10	1	-1E+10	1	-1E+10	1	-1E+10	1	-1E+10	1	-1E+10	1
4902549	64	C	05/18/2022	15:54	-131.683	47.506	0	1195.60	0	2.8860	0	34.4230	0	27.442	0	1182.222	0	8.5	4	2.6	4	-1E+10	1	-1E+10	1	-1E+10	1	-1E+10	1	-1E+10	1	-1E+10	1
4902549	64	C	05/18/2022	15:54	-131.683	47.506	0	1205.50	0	2.8800	0	34.4250	0	27.444	0	1191.983	0	8.6	4	2.6	4	-1E+10	1	-1E+10	1	-1E+10	1	-1E+10	1	-1E+10	1	-1E+10	1
4902549	64	C	05/18/2022	15:54	-131.683	47.506	0	1215.50	0	2.8660	0	34.4270	0	27.447	0	1201.843	0	8.7	4	2.7	4	-1E+10	1	-1E+10	1	-1E+10	1	-1E+10	1	-1E+10	1	-1E+10	1
4902549	64	C	05/18/2022	15:54	-131.683	47.506	0	1225.80	0	2.8550	0	34.4290	0	27.450	0	1211.997	0	9.0	4	2.8	4	-1E+10	1	-1E+10	1	-1E+10	1	-1E+10	1	-1E+10	1	-1E+10	1
4902549	64	C	05/18/2022	15:54	-131.683	47.506	0	1235.70	0	2.8320	0	34.4330	0	27.455	0	1221.757	0	9.1	4	2.8	4	-1E+10	1	-1E+10	1	-1E+10	1	-1E+10	1	-1E+10	1	-1E+10	1
4902549	64	C	05/18/2022	15:54	-131.683	47.506	0	1245.40	0	2.8300	0	34.4330	0	27.455	0	1231.319	0	9.2	4	2.8	4	-1E+10	1	-1E+10	1	-1E+10	1	-1E+10	1	-1E+10	1	-1E+10	1
4902549	64	C	05/18/2022	15:54	-131.683	47.506	0	1255.10	0	2.8240	0	34.4340	0	27.457	0	1240.881	0	9.3	4	2.9	4	-1E+10	1	-1E+10	1	-1E+10	1	-1E+10	1	-1E+10	1	-1E+10	1
4902549	64	C	05/18/2022	15:54	-131.683	47.506	0	1265.10	0	2.8160	0	34.4360	0	27.459	0	1250.738	0	9.5	4	2.9	4	-1E+10	1	-1E+10	1	-1E+10	1	-1E+10	1	-1E+10	1	-1E+10	1
4902549	64	C	05/18/2022	15:54	-131.683	47.506	0	1275.10	0	2.7930	0	34.4390	0	27.464	0	1260.594	0	9.9	4	3.1	4	-1E+10	1	-1E+10	1	-1E+10	1	-1E+10	1	-1E+10	1	-1E+10	1
4902549	64	C	05/18/2022	15:54	-131.683	47.506	0	1285.20	0	2.7680	0	34.4440	0	27.470	0	1270.549	0	10.4	4	3.2	4	-1E+10	1	-1E+10	1	-1E+10	1	-1E+10	1	-1E+10	1	-1E+10	1
4902549	64	C	05/18/2022	15:54	-131.683	47.506	0	1295.40	0	2.7410	0	34.4480	0	27.475	0	1280.602	0	10.8	4	3.3	4	-1E+10	1	-1E+10	1	-1E+10	1	-1E+10	1	-1E+10	1	-1E+10	1
4902549	64	C	05/18/2022	15:54	-131.683	47.506	0	1305.40	0	2.7240	0	34.4510	0	27.479	0	1290.457	0	11.1	4	3.4	4	-1E+10	1	-1E+10	1	-1E+10	1	-1E+10	1	-1E+10	1	-1E+10	1
4902549	64	C	05/18/2022	15:54	-131.683	47.506	0	1315.10	0	2.7040	0	34.4540	0	27.484	0	1300.016	0	11.5	4	3.5	4	-1E+10	1	-1E+10	1	-1E+10	1	-1E+10	1	-1E+10	1	-1E+10	1
4902549	64	C	05/18/2022	15:54	-131.683	47.506	0	1325.40	0	2.6870	0	34.4570	0	27.487	0	1310.166	0	11.9	4	3.7	4	-1E+10	1	-1E+10	1	-1E+10	1	-1E+10	1	-1E+10	1	-1E+10	1
4902549	64	C	05/18/2022	15:54	-131.683	47.506	0	1335.40	0	2.6570	0	34.4610	0	27.493	0	1320.020	0	12.6	4	3.8	4	-1E+10	1	-1E+10	1	-1E+10	1	-1E+10	1	-1E+10	1	-1E+10	1
4902549	64	C	05/18/2022	15:54	-131.683	47.506	0	1345.10	0	2.6280	0	34.4660	0	27.500	0	1329.577	0	12.8	4	3.9	4	-1E+10	1	-1E+10	1	-1E+10	1	-1E+10	1	-1E+10	1	-1E+10	1
4902549	64	C	05/18/2022	15:54	-131.683	47.506	0	1355.60	0	2.6270	0	34.4660	0	27.500	0	1339.923	0	13.0	4	4.0	4	-1E+10	1	-1E+10	1	-1E+10	1	-1E+10	1	-1E+10	1	-1E+10	1
4902549	64	C	05/18/2022	15:54	-131.683	47.506	0	1365.70	0	2.6170	0	34.4670	0	27.502	0	1349.874	0	13.3	4	4.1	4	-1E+10	1	-1E+10	1	-1E+10	1	-1E+10	1	-1E+10	1	-1E+10	1
4902549	64	C	05/18/2022	15:54	-131.683	47.506	0	1375.70	0	2.6060	0	34.4700	0	27.505	0	1359.726	0	13.5	4	4.1	4	-1E+10	1	-1E+10	1	-1E+10	1	-1E+10	1	-1E+10	1	-1E+10	1
4902549	64	C	05/18/2022	15:54	-131.683	47.506	0	1385.60	0	2.5970	0	34.4710	0	27.507	0	1369.479	0	13.7	4	4.2	4	-1E+10	1	-1E+10	1	-1E+10	1	-1E+10	1	-1E+10	1	-1E+10	1
4902549	64	C	05/18/2022	15:54	-131.683	47.506	0	1395.40	0	2.5920	0	34.4720	0	27.508	0	1379.133	0	14.0	4	4.3	4	-1E+10	1	-1E+10	1	-1E+10	1	-1E+10	1	-1E+10	1	-1E+10	1
4902549	64	C	05/18/2022	15:54	-131.683	47.506	0	1405.70	0	2.5830	0	34.4740	0	27.510	0	1389.279	0	14.3	4	4.4	4	-1E+10	1	-1E+10	1	-1E+10	1	-1E+10	1	-1E+10	1	-1E+10	1
4902549	64	C	05/18/2022	15:54	-131.683	47.506	0	1415.30	0	2.5700	0	34.4760	0	27.513	0	1398.735	0	14.7	4	4.5	4	-1E+10	1	-1E+10	1	-1E+10	1	-1E+10	1	-1E+10	1	-1E+10	1
4902549	64	C	05/18/2022	15:54	-131.683	47.506	0	1425.00	0	2.5530	0	34.4790	0	27.517	0	1408.289	0	15.2	4	4.6	4	-1E+10	1	-1E+10	1	-1E+10	1	-1E+10	1	-1E+10	1	-1E+10	1
4902549	64	C	05/18/2022	15:54	-131.683	47.506	0	1435.30	0	2.5390	0	34.4810	0	27.520	0	1418.433	0	15.5	4	4.7	4	-1E+10	1	-1E+10	1	-1E+10	1	-1E+10	1	-1E+10	1	-1E+10	1
4902549	64	C	05/18/2022	15:54	-131.683	47.506	0	1445.60	0	2.5290	0	34.4830	0	27.522	0	1428.577	0	15.9	4	4.9	4	-1E+10	1	-1E+10	1	-1E+10	1	-1E+10	1	-1E+10	1	-1E+10	1
4902549	64	C	05/18/2022	15:54	-131.683	47.506	0	1455.60	0	2.5180	0	34.4840	0	27.524	0	1438.426	0	16.4	4	5.0	4	-1E+10	1	-1E+10	1	-1E+10	1	-1E+10	1	-1E+10	1	-1E+10	1
4902549	64	C	05/18/2022	15:54	-131.683	47.506	0	1465.40	0	2.5000	0	34.4870	0	27.528	0	1448.077	0	16.9	4	5.1	4	-1E+10	1	-1E+10	1	-1E+10	1	-1E+10	1	-1E+10	1	-1E+10	1
4902549	64	C	05/18/2022	15:54	-131.683	47.506	0	1475.10	0	2.4880	0	34.4890	0	27.531	0	1457.628	0	17.5	4	5.3	4	-1E+10	1	-1E+10	1	-1E+10	1	-1E+10	1	-1E+10	1	-1E+10	1
4902549	64	C	05/18/2022	15:54	-131.683	47.506	0	1484.90	0	2.4650	0	34.4930	0	27.536	0	1467.278	0	18.0	4	5.5	4	-1E+10	1	-1E+10	1	-1E+10	1	-1E+10	1	-1E+10	1	-1E+10	1
4902549	64	C	05/18/2022	15:54	-131.683	47.506	0	1495.10	0	2.4560	0	34.4950	0	27.538	0	1477.322	0	18.4	4	5.6	4	-1E+10	1	-1E+10	1	-1E+10	1	-1E+10	1	-1E+10	1	-1E+10	1
4902549	64	C	05/18/2022	15:54	-131.683	47.506	0	1505.40	0	2.4450	0	34.4960	0	27.540	0	1487.463	0	18.8	4	5.7	4	-1E+10	1	-1E+10	1	-1E+10	1	-1E+10	1	-1E+10	1	-1E+10	1
4902549	64	C	05/18/2022	15:54	-131.683	47.506	0	1515.40	0	2.4370	0	34.4980	0	27.542	0	1497.308	0	19.2	4	5.9	4	-1E+10	1	-1E+10	1	-1E+10	1	-1E+10	1	-1E+10	1	-1E+10	1
4902549	64	C	05/18/2022	15:54	-131.683	47.506	0	1525.20	0	2.4260	0	34.5000	0	27.545	0	1506.956	0	19.7	4	6.0	4	-1E+10	1	-1E+10	1	-1E+10	1	-1E+10	1	-1E+10	1	-1E+10	1
4902549	64	C	05/18/2022	15:54	-131.683	47.506	0	1535.20	0	2.4140	0	34.5010	0	27.547	0	1516.801	0	20.2	4	6.1	4	-1E+10	1	-1E+10	1	-1E+10	1	-1E+10	1	-1E+10	1	-1E+10	1
4902549	64	C	05/18/2022	15:54	-131.683	47.506	0	1545.20	0	2.4000	0	34.5030	0	27.550	0	1526.645	0	20.7	4	6.3	4	-1E+10	1	-1E+10	1	-1E+10	1	-1E+10	1	-1E+10	1	-1E+10	1
4902549	64	C	05/18/2022	15:54	-131.683	47.506	0	1555.30	0	2.3860	0	34.5050	0	27.552	0	1536.587	0	21.2	4	6.4	4	-1E+10	1	-1E+10	1	-1E+10	1	-1E+10	1	-1E+10	1	-1E+10	1
4902549	64	C	05/18/2022	15:54	-131.683	47.506	0	1565.50	0	2.3790	0	34.5070	0	27.555	0	1546.627	0	21.6	4	6.6	4	-1E+10	1	-1E+10	1	-1E+10	1	-1E+10	1	-1E+10	1	-1E+10	1
4902549	64	C	05/18/2022	15:54	-131.683	47.506	0	1575.70	0	2.3660	0	34.5090	0	27.557	0	1556.667	0	22.5	4	6.9	4	-1E+10	1	-1E+10	1	-1E+10	1	-1E+10	1	-1E+10	1	-1E+10	1
4902549	64	C	05/18/2022	15:54	-131.683	47.506	0	1585.40	0	2.3440	0	34.5120	0	27.562	0	1566.214	0	23.5	4	7.1	4	-1E+10	1	-1E+10	1	-1E+10	1	-1E+10	1	-1E+10	1	-1E+10	1
4902549	64	C	05/18/2022	15:54	-131.683	47.506	0	1595.10	0	2.3210	0	34.5160	0	27.567	0	1575.760	0	24.5	4	7.4	4	-1E+10	1	-1E+10	1	-1E+10	1	-1E+10	1	-1E+10	1	-1E+10	1
4902549	64	C	05/18/2022	15:54	-131.683	47.506	0	1605.20	0	2.3050	0	34.5190	0	27.571	0	1585.700	0	25.2	4	7.7	4	-1E+10	1	-1E+10	1	-1E+10	1	-1E+10	1	-1E+10	1	-1E+10	1
4902549	64	C	05/18/2022	15:54	-131.683	47.506	0	1615.20	0	2.2900	0	34.5210	0	27.573	0	1595.541	0	26.1	4	7.9	4	-1E+10	1	-1E+10	1	-1E+10	1	-1E+10	1	-1E+10	1	-1E+10	1
4902549	64	C	05/18/2022	15:54	-131.683	47.506	0	1625.50	0	2.2670	0	34.5250	0	27.579	0	1605.676	0	27.1	4	8.2	4	-1E+10	1	-1E+10	1	-1E+10	1	-1E+10	1	-1E+10	1	-1E+10	1
4902549	64	C	05/18/2022	15:54	-131.683	47.506	0	1635.60	0	2.2540	0	34.5270	0	27.581	0	1615.615	0	27.7	4	8.4	4	-1E+10	1	-1E+10	1	-1E+10	1	-1E+10	1	-1E+10	1	-1E+10	1
4902549	64	C	05/18/2022	15:54	-131.683	47.506	0	1645.40	0	2.2450	0	34.5280	0	27.583	0	1625.257	0	28.4	4	8.6	4	-1E+10	1	-1E+10	1	-1E+10	1	-1E+10	1	-1E+10	1	-1E+10	1
4902549	64	C	05/18/2022	15:54	-131.683	47.506	0	1655.50	0	2.2310	0	34.5310	0	27.586	0	1635.195	0	29.2	4	8.9	4	-1E+10	1	-1E+10	1	-1E+10	1	-1E+10	1	-1E+10	1	-1E+10	1
4902549	64	C	05/18/2022	15:54	-131.683	47.506	0	1665.80	0	2.2160	0	34.5330	0	27.589	0	1645.329	0	29.9	4	9.1	4	-1E+10	1	-1E+10	1	-1E+10	1	-1E+10	1	-1E+10	1	-1E+10	1
4902549	64	C	05/18/2022	15:54	-131.683	47.506	0	1675.50	0	2.2060	0	34.5350	0	27.592	0	1654.871	0	30.9	4	9.4	4	-1E+10	1	-1E+10	1	-1E+10	1	-1E+10	1	-1E+10	1	-1E+10	1
4902549	64	C	05/18/2022	15:54	-131.683	47.506	0	1685.60	0	2.1880	0	34.5380	0	27.596	0	1664.807	0	31.9	4	9.7	4	-1E+10	1	-1E+10	1	-1E+10	1	-1E+10	1	-1E+10	1	-1E+10	1
4902549	64	C	05/18/2022	15:54	-131.683	47.506	0	1695.50	0	2.1740	0	34.5410	0	27.599	0	1674.546	0	33.0	4	10.0	4	-1E+10	1	-1E+10	1	-1E+10	1	-1E+10	1	-1E+10	1	-1E+10	1
4902549	64	C	05/18/2022	15:54	-131.683	47.506	0	1705.10	0	2.1590	0	34.5430	0	27.602	0	1683.990	0	33.8	4	10.2	4	-1E+10	1	-1E+10	1	-1E+10	1	-1E+10	1	-1E+10	1	-1E+10	1
4902549	64	C	05/18/2022	15:54	-131.683	47.506	0	1715.00	0	2.1500	0	34.5450	0	27.604	0	1693.727	0	34.6	4	10.5	4	-1E+10	1	-1E+10	1	-1E+10	1	-1E+10	1	-1E+10	1	-1E+10	1
4902549	64	C	05/18/2022	15:54	-131.683	47.506	0	1725.10	0	2.1360	0	34.5470	0	27.607	0	1703.662	0	35.2	4	10.7	4	-1E+10	1	-1E+10	1	-1E+10	1	-1E+10	1	-1E+10	1	-1E+10	1
4902549	64	C	05/18/2022	15:54	-131.683	47.506	0	1735.20	0	2.1290	0	34.5480	0	27.609	0	1713.595	0	35.8	4	10.8	4	-1E+10	1	-1E+10	1	-1E+10	1	-1E+10	1	-1E+10	1	-1E+10	1
4902549	64	C	05/18/2022	15:54	-131.683	47.506	0	1745.40	0	2.1190	0	34.5500	0	27.611	0	1723.627	0	36.4	4	11.0	4	-1E+10	1	-1E+10	1	-1E+10	1	-1E+10	1	-1E+10	1	-1E+10	1
4902549	64	C	05/18/2022	15:54	-131.683	47.506	0	1755.70	0	2.1120	0	34.5510	0	27.612	0	1733.756	0	37.0	4	11.2	4	-1E+10	1	-1E+10	1	-1E+10	1	-1E+10	1	-1E+10	1	-1E+10	1
4902549	64	C	05/18/2022	15:54	-131.683	47.506	0	1765.30	0	2.1050	0	34.5530	0	27.615	0	1743.197	0	37.5	4	11.3	4	-1E+10	1	-1E+10	1	-1E+10	1	-1E+10	1	-1E+10	1	-1E+10	1
4902549	64	C	05/18/2022	15:54	-131.683	47.506	0	1775.40	0	2.0990	0	34.5540	0	27.616	0	1753.129	0	38.0	4	11.5	4	-1E+10	1	-1E+10	1	-1E+10	1	-1E+10	1	-1E+10	1	-1E+10	1
4902549	64	C	05/18/2022	15:54	-131.683	47.506	0	1785.70	0	2.0910	0	34.5550	0	27.617	0	1763.257	0	38.4	4	11.6	4	-1E+10	1	-1E+10	1	-1E+10	1	-1E+10	1	-1E+10	1	-1E+10	1
4902549	64	C	05/18/2022	15:54	-131.683	47.506	0	1795.30	0	2.0880	0	34.5560	0	27.619	0	1772.696	0	39.0	4	11.8	4	-1E+10	1	-1E+10	1	-1E+10	1	-1E+10	1	-1E+10	1	-1E+10	1
4902549	64	C	05/18/2022	15:54	-131.683	47.506	0	1805.10	0	2.0750	0	34.5580	0	27.621	0	1782.332	0	39.8	4	12.0	4	-1E+10	1	-1E+10	1	-1E+10	1	-1E+10	1	-1E+10	1	-1E+10	1
4902549	64	C	05/18/2022	15:54	-131.683	47.506	0	1815.10	0	2.0650	0	34.5600	0	27.624	0	1792.163	0	40.4	4	12.2	4	-1E+10	1	-1E+10	1	-1E+10	1	-1E+10	1	-1E+10	1	-1E+10	1
4902549	64	C	05/18/2022	15:54	-131.683	47.506	0	1825.20	0	2.0600	0	34.5610	0	27.625	0	1802.093	0	41.1	4	12.4	4	-1E+10	1	-1E+10	1	-1E+10	1	-1E+10	1	-1E+10	1	-1E+10	1
4902549	64	C	05/18/2022	15:54	-131.683	47.506	0	1835.10	0	2.0530	0	34.5630	0	27.627	0	1811.826	0	41.7	4	12.6	4	-1E+10	1	-1E+10	1	-1E+10	1	-1E+10	1	-1E+10	1	-1E+10	1
4902549	64	C	05/18/2022	15:54	-131.683	47.506	0	1845.20	0	2.0480	0	34.5640	0	27.628	0	1821.754	0	42.3	4	12.8	4	-1E+10	1	-1E+10	1	-1E+10	1	-1E+10	1	-1E+10	1	-1E+10	1
4902549	64	C	05/18/2022	15:54	-131.683	47.506	0	1855.40	0	2.0390	0	34.5650	0	27.630	0	1831.781	0	42.9	4	13.0	4	-1E+10	1	-1E+10	1	-1E+10	1	-1E+10	1	-1E+10	1	-1E+10	1
4902549	64	C	05/18/2022	15:54	-131.683	47.506	0	1865.60	0	2.0310	0	34.5660	0	27.631	0	1841.807	0	43.7	4	13.2	4	-1E+10	1	-1E+10	1	-1E+10	1	-1E+10	1	-1E+10	1	-1E+10	1
4902549	64	C	05/18/2022	15:54	-131.683	47.506	0	1875.70	0	2.0200	0	34.5680	0	27.634	0	1851.734	0	44.5	4	13.4	4	-1E+10	1	-1E+10	1	-1E+10	1	-1E+10	1	-1E+10	1	-1E+10	1
4902549	64	C	05/18/2022	15:54	-131.683	47.506	0	1885.70	0	2.0090	0	34.5700	0	27.636	0	1861.562	0	45.2	4	13.6	4	-1E+10	1	-1E+10	1	-1E+10	1	-1E+10	1	-1E+10	1	-1E+10	1
4902549	64	C	05/18/2022	15:54	-131.683	47.506	0	1895.80	0	2.0020	0	34.5720	0	27.639	0	1871.489	0	46.0	4	13.9	4	-1E+10	1	-1E+10	1	-1E+10	1	-1E+10	1	-1E+10	1	-1E+10	1
4902549	64	C	05/18/2022	15:54	-131.683	47.506	0	1905.40	0	1.9940	0	34.5740	0	27.641	0	1880.923	0	46.8	4	14.1	4	-1E+10	1	-1E+10	1	-1E+10	1	-1E+10	1	-1E+10	1	-1E+10	1
4902549	64	C	05/18/2022	15:54	-131.683	47.506	0	1915.20	0	1.9860	0	34.5760	0	27.643	0	1890.554	0	47.7	4	14.4	4	-1E+10	1	-1E+10	1	-1E+10	1	-1E+10	1	-1E+10	1	-1E+10	1
4902549	64	C	05/18/2022	15:54	-131.683	47.506	0	1925.10	0	1.9780	0	34.5780	0	27.645	0	1900.282	0	48.5	4	14.6	4	-1E+10	1	-1E+10	1	-1E+10	1	-1E+10	1	-1E+10	1	-1E+10	1
4902549	64	C	05/18/2022	15:54	-131.683	47.506	0	1935.30	0	1.9700	0	34.5800	0	27.648	0	1910.305	0	49.4	4	14.9	4	-1E+10	1	-1E+10	1	-1E+10	1	-1E+10	1	-1E+10	1	-1E+10	1
4902549	64	C	05/18/2022	15:54	-131.683	47.506	0	1945.70	0	1.9670	0	34.5830	0	27.650	0	1920.524	0	50.0	4	15.1	4	-1E+10	1	-1E+10	1	-1E+10	1	-1E+10	1	-1E+10	1	-1E+10	1
4902549	64	C	05/18/2022	15:54	-131.683	47.506	0	1955.60	0	1.9620	0	34.5830	0	27.651	0	1930.251	0	50.4	4	15.2	4	-1E+10	1	-1E+10	1	-1E+10	1	-1E+10	1	-1E+10	1	-1E+10	1
4902549	64	C	05/18/2022	15:54	-131.683	47.506	0	1965.70	0	1.9620	0	34.5840	0	27.652	0	1940.174	0	50.7	4	15.3	4	-1E+10	1	-1E+10	1	-1E+10	1	-1E+10	1	-1E+10	1	-1E+10	1
4902549	64	C	05/18/2022	15:54	-131.683	47.506	0	1975.90	0	1.9570	0	34.5850	0	27.653	0	1950.195	0	51.0	4	15.4	4	-1E+10	1	-1E+10	1	-1E+10	1	-1E+10	1	-1E+10	1	-1E+10	1
4902549	64	C	05/18/2022	15:54	-131.683	47.506	0	1982.80	0	1.9550	0	34.5860	0	27.654	0	1956.974	0	50.9	4	15.3	4	-1E+10	1	-1E+10	1	-1E+10	1	-1E+10	1	-1E+10	1	-1E+10	1
4902549	64	C	05/18/2022	15:54	-131.683	47.506	0																										
4902549	65	C	05/28/2022	20:58	-131.604	47.570	0	0.40	0	9.5310	0	32.2610	0	24.891	0	0.397	0	283.6	4	100.2	4	-1E+10	1	-1E+10	1	-1E+10	1	-1E+10	1	-1E+10	1	-1E+10	1
4902549	65	C	05/28/2022	20:58	-131.604	47.570	0	0.60	0	9.5260	0	32.2680	0	24.897	0	0.595	0	-1e10	1	-1e10	1	-1E+10	1	-1E+10	1	-1E+10	1	-1E+10	1	-1E+10	1	-1E+10	1
4902549	65	C	05/28/2022	20:58	-131.604	47.570	0	1.10	0	9.5230	0	32.2670	0	24.897	0	1.091	0	276.6	4	97.7	4	-1E+10	1	-1E+10	1	-1E+10	1	-1E+10	1	-1E+10	1	-1E+10	1
4902549	65	C	05/28/2022	20:58	-131.604	47.570	0	1.20	0	9.5231	0	32.2657	0	24.896	0	1.190	0	-1e10	1	-1e10	1	-1E+10	1	-1E+10	1	-1E+10	1	-1E+10	1	-1E+10	1	-1E+10	1
4902549	65	C	05/28/2022	20:58	-131.604	47.570	0	1.30	0	9.5232	0	32.2644	0	24.895	0	1.289	0	-1e10	1	-1e10	1	-1E+10	1	-1E+10	1	-1E+10	1	-1E+10	1	-1E+10	1	-1E+10	1
4902549	65	C	05/28/2022	20:58	-131.604	47.570	0	2.10	0	9.5240	0	32.2540	0	24.886	0	2.082	0	276.7	4	97.8	4	-1E+10	1	-1E+10	1	-1E+10	1	-1E+10	1	-1E+10	1	-1E+10	1
4902549	65	C	05/28/2022	20:58	-131.604	47.570	0	2.90	0	9.5170	0	32.2590	0	24.891	0	2.876	0	276.7	4	97.8	4	-1E+10	1	-1E+10	1	-1E+10	1	-1E+10	1	-1E+10	1	-1E+10	1
4902549	65	C	05/28/2022	20:58	-131.604	47.570	0	3.80	0	9.5190	0	32.2560	0	24.889	0	3.768	0	276.7	4	97.8	4	-1E+10	1	-1E+10	1	-1E+10	1	-1E+10	1	-1E+10	1	-1E+10	1
4902549	65	C	05/28/2022	20:58	-131.604	47.570	0	5.10	0	9.5110	0	32.2630	0	24.896	0	5.057	0	276.4	4	97.6	4	-1E+10	1	-1E+10	1	-1E+10	1	-1E+10	1	-1E+10	1	-1E+10	1
4902549	65	C	05/28/2022	20:58	-131.604	47.570	0	6.00	0	9.5110	0	32.2630	0	24.896	0	5.950	0	276.2	4	97.6	4	-1E+10	1	-1E+10	1	-1E+10	1	-1E+10	1	-1E+10	1	-1E+10	1
4902549	65	C	05/28/2022	20:58	-131.604	47.570	0	6.90	0	9.5080	0	32.2630	0	24.896	0	6.842	0	276.4	4	97.6	4	-1E+10	1	-1E+10	1	-1E+10	1	-1E+10	1	-1E+10	1	-1E+10	1
4902549	65	C	05/28/2022	20:58	-131.604	47.570	0	8.10	0	9.5110	0	32.2640	0	24.896	0	8.032	0	276.3	4	97.6	4	-1E+10	1	-1E+10	1	-1E+10	1	-1E+10	1	-1E+10	1	-1E+10	1
4902549	65	C	05/28/2022	20:58	-131.604	47.570	0	9.10	0	9.5100	0	32.2630	0	24.896	0	9.024	0	276.3	4	97.6	4	-1E+10	1	-1E+10	1	-1E+10	1	-1E+10	1	-1E+10	1	-1E+10	1
4902549	65	C	05/28/2022	20:58	-131.604	47.570	0	10.20	0	9.5110	0	32.2640	0	24.896	0	10.115	0	276.1	4	97.6	4	-1E+10	1	-1E+10	1	-1E+10	1	-1E+10	1	-1E+10	1	-1E+10	1
4902549	65	C	05/28/2022	20:58	-131.604	47.570	0	10.90	0	9.5100	0	32.2640	0	24.897	0	10.809	0	276.2	4	97.6	4	-1E+10	1	-1E+10	1	-1E+10	1	-1E+10	1	-1E+10	1	-1E+10	1
4902549	65	C	05/28/2022	20:58	-131.604	47.570	0	12.10	0	9.5060	0	32.2630	0	24.896	0	11.999	0	276.1	4	97.5	4	-1E+10	1	-1E+10	1	-1E+10	1	-1E+10	1	-1E+10	1	-1E+10	1
4902549	65	C	05/28/2022	20:58	-131.604	47.570	0	12.80	0	9.5100	0	32.2640	0	24.897	0	12.693	0	276.1	4	97.5	4	-1E+10	1	-1E+10	1	-1E+10	1	-1E+10	1	-1E+10	1	-1E+10	1
4902549	65	C	05/28/2022	20:58	-131.604	47.570	0	13.90	0	9.5120	0	32.2640	0	24.896	0	13.783	0	276.0	4	97.5	4	-1E+10	1	-1E+10	1	-1E+10	1	-1E+10	1	-1E+10	1	-1E+10	1
4902549	65	C	05/28/2022	20:58	-131.604	47.570	0	15.00	0	9.5060	0	32.2630	0	24.896	0	14.874	0	276.1	4	97.5	4	-1E+10	1	-1E+10	1	-1E+10	1	-1E+10	1	-1E+10	1	-1E+10	1
4902549	65	C	05/28/2022	20:58	-131.604	47.570	0	16.10	0	9.5030	0	32.2630	0	24.897	0	15.965	0	276.0	4	97.5	4	-1E+10	1	-1E+10	1	-1E+10	1	-1E+10	1	-1E+10	1	-1E+10	1
4902549	65	C	05/28/2022	20:58	-131.604	47.570	0	17.00	0	9.5030	0	32.2640	0	24.898	0	16.857	0	276.0	4	97.5	4	-1E+10	1	-1E+10	1	-1E+10	1	-1E+10	1	-1E+10	1	-1E+10	1
4902549	65	C	05/28/2022	20:58	-131.604	47.570	0	17.90	0	9.5040	0	32.2630	0	24.897	0	17.750	0	276.0	4	97.5	4	-1E+10	1	-1E+10	1	-1E+10	1	-1E+10	1	-1E+10	1	-1E+10	1
4902549	65	C	05/28/2022	20:58	-131.604	47.570	0	18.90	0	9.5040	0	32.2640	0	24.898	0	18.741	0	275.9	4	97.5	4	-1E+10	1	-1E+10	1	-1E+10	1	-1E+10	1	-1E+10	1	-1E+10	1
4902549	65	C	05/28/2022	20:58	-131.604	47.570	0	19.80	0	9.5030	0	32.2640	0	24.898	0	19.634	0	275.9	4	97.5	4	-1E+10	1	-1E+10	1	-1E+10	1	-1E+10	1	-1E+10	1	-1E+10	1
4902549	65	C	05/28/2022	20:58	-131.604	47.570	0	21.00	0	9.5030	0	32.2640	0	24.898	0	20.824	0	275.9	4	97.5	4	-1E+10	1	-1E+10	1	-1E+10	1	-1E+10	1	-1E+10	1	-1E+10	1
4902549	65	C	05/28/2022	20:58	-131.604	47.570	0	22.10	0	9.5040	0	32.2640	0	24.898	0	21.914	0	275.8	4	97.4	4	-1E+10	1	-1E+10	1	-1E+10	1	-1E+10	1	-1E+10	1	-1E+10	1
4902549	65	C	05/28/2022	20:58	-131.604	47.570	0	23.10	0	9.5040	0	32.2640	0	24.898	0	22.906	0	275.7	4	97.4	4	-1E+10	1	-1E+10	1	-1E+10	1	-1E+10	1	-1E+10	1	-1E+10	1
4902549	65	C	05/28/2022	20:58	-131.604	47.570	0	24.30	0	9.5040	0	32.2640	0	24.898	0	24.096	0	275.6	4	97.4	4	-1E+10	1	-1E+10	1	-1E+10	1	-1E+10	1	-1E+10	1	-1E+10	1
4902549	65	C	05/28/2022	20:58	-131.604	47.570	0	25.20	0	9.5030	0	32.2640	0	24.898	0	24.988	0	275.6	4	97.3	4	-1E+10	1	-1E+10	1	-1E+10	1	-1E+10	1	-1E+10	1	-1E+10	1
4902549	65	C	05/28/2022	20:58	-131.604	47.570	0	26.00	0	9.4910	0	32.2650	0	24.901	0	25.781	0	275.7	4	97.4	4	-1E+10	1	-1E+10	1	-1E+10	1	-1E+10	1	-1E+10	1	-1E+10	1
4902549	65	C	05/28/2022	20:58	-131.604	47.570	0	27.10	0	9.4900	0	32.2640	0	24.900	0	26.872	0	275.6	4	97.3	4	-1E+10	1	-1E+10	1	-1E+10	1	-1E+10	1	-1E+10	1	-1E+10	1
4902549	65	C	05/28/2022	20:58	-131.604	47.570	0	27.80	0	9.4860	0	32.2620	0	24.899	0	27.566	0	275.5	4	97.3	4	-1E+10	1	-1E+10	1	-1E+10	1	-1E+10	1	-1E+10	1	-1E+10	1
4902549	65	C	05/28/2022	20:58	-131.604	47.570	0	29.00	0	9.4750	0	32.2610	0	24.900	0	28.756	0	275.5	4	97.3	4	-1E+10	1	-1E+10	1	-1E+10	1	-1E+10	1	-1E+10	1	-1E+10	1
4902549	65	C	05/28/2022	20:58	-131.604	47.570	0	30.10	0	9.4670	0	32.2670	0	24.906	0	29.846	0	275.4	4	97.2	4	-1E+10	1	-1E+10	1	-1E+10	1	-1E+10	1	-1E+10	1	-1E+10	1
4902549	65	C	05/28/2022	20:58	-131.604	47.570	0	30.90	0	9.4510	0	32.2640	0	24.906	0	30.640	0	275.3	4	97.1	4	-1E+10	1	-1E+10	1	-1E+10	1	-1E+10	1	-1E+10	1	-1E+10	1
4902549	65	C	05/28/2022	20:58	-131.604	47.570	0	31.70	0	9.4380	0	32.2640	0	24.908	0	31.433	0	275.3	4	97.1	4	-1E+10	1	-1E+10	1	-1E+10	1	-1E+10	1	-1E+10	1	-1E+10	1
4902549	65	C	05/28/2022	20:58	-131.604	47.570	0	32.80	0	9.3860	0	32.2650	0	24.917	0	32.523	0	275.4	4	97.0	4	-1E+10	1	-1E+10	1	-1E+10	1	-1E+10	1	-1E+10	1	-1E+10	1
4902549	65	C	05/28/2022	20:58	-131.604	47.570	0	33.90	0	9.3540	0	32.2660	0	24.923	0	33.614	0	275.4	4	97.0	4	-1E+10	1	-1E+10	1	-1E+10	1	-1E+10	1	-1E+10	1	-1E+10	1
4902549	65	C	05/28/2022	20:58	-131.604	47.570	0	34.90	0	9.3250	0	32.2660	0	24.928	0	34.606	0	275.5	4	96.9	4	-1E+10	1	-1E+10	1	-1E+10	1	-1E+10	1	-1E+10	1	-1E+10	1
4902549	65	C	05/28/2022	20:58	-131.604	47.570	0	35.90	0	9.2970	0	32.2670	0	24.933	0	35.597	0	275.4	4	96.8	4	-1E+10	1	-1E+10	1	-1E+10	1	-1E+10	1	-1E+10	1	-1E+10	1
4902549	65	C	05/28/2022	20:58	-131.604	47.570	0	37.10	0	9.2700	0	32.2700	0	24.940	0	36.787	0	275.2	4	96.7	4	-1E+10	1	-1E+10	1	-1E+10	1	-1E+10	1	-1E+10	1	-1E+10	1
4902549	65	C	05/28/2022	20:58	-131.604	47.570	0	37.90	0	9.2450	0	32.2690	0	24.943	0	37.580	0	275.2	4	96.7	4	-1E+10	1	-1E+10	1	-1E+10	1	-1E+10	1	-1E+10	1	-1E+10	1
4902549	65	C	05/28/2022	20:58	-131.604	47.570	0	39.10	0	9.2090	0	32.2710	0	24.950	0	38.770	0	275.0	4	96.5	4	-1E+10	1	-1E+10	1	-1E+10	1	-1E+10	1	-1E+10	1	-1E+10	1
4902549	65	C	05/28/2022	20:58	-131.604	47.570	0	40.00	0	9.1890	0	32.2710	0	24.953	0	39.662	0	274.9	4	96.4	4	-1E+10	1	-1E+10	1	-1E+10	1	-1E+10	1	-1E+10	1	-1E+10	1
4902549	65	C	05/28/2022	20:58	-131.604	47.570	0	40.80	0	9.1730	0	32.2700	0	24.955	0	40.455	0	274.7	4	96.3	4	-1E+10	1	-1E+10	1	-1E+10	1	-1E+10	1	-1E+10	1	-1E+10	1
4902549	65	C	05/28/2022	20:58	-131.604	47.570	0	42.10	0	9.0580	0	32.2710	0	24.974	0	41.744	0	274.9	4	96.2	4	-1E+10	1	-1E+10	1	-1E+10	1	-1E+10	1	-1E+10	1	-1E+10	1
4902549	65	C	05/28/2022	20:58	-131.604	47.570	0	43.00	0	8.9440	0	32.2670	0	24.988	0	42.636	0	275.2	4	96.0	4	-1E+10	1	-1E+10	1	-1E+10	1	-1E+10	1	-1E+10	1	-1E+10	1
4902549	65	C	05/28/2022	20:58	-131.604	47.570	0	44.20	0	8.7790	0	32.2830	0	25.026	0	43.826	0	275.5	4	95.8	4	-1E+10	1	-1E+10	1	-1E+10	1	-1E+10	1	-1E+10	1	-1E+10	1
4902549	65	C	05/28/2022	20:58	-131.604	47.570	0	44.90	0	8.7700	0	32.2800	0	25.025	0	44.520	0	275.4	4	95.7	4	-1E+10	1	-1E+10	1	-1E+10	1	-1E+10	1	-1E+10	1	-1E+10	1
4902549	65	C	05/28/2022	20:58	-131.604	47.570	0	45.90	0	8.7350	0	32.2830	0	25.033	0	45.512	0	275.2	4	95.6	4	-1E+10	1	-1E+10	1	-1E+10	1	-1E+10	1	-1E+10	1	-1E+10	1
4902549	65	C	05/28/2022	20:58	-131.604	47.570	0	46.90	0	8.6950	0	32.2850	0	25.041	0	46.503	0	275.2	4	95.5	4	-1E+10	1	-1E+10	1	-1E+10	1	-1E+10	1	-1E+10	1	-1E+10	1
4902549	65	C	05/28/2022	20:58	-131.604	47.570	0	48.20	0	8.6820	0	32.2870	0	25.044	0	47.792	0	275.1	4	95.4	4	-1E+10	1	-1E+10	1	-1E+10	1	-1E+10	1	-1E+10	1	-1E+10	1
4902549	65	C	05/28/2022	20:58	-131.604	47.570	0	48.90	0	8.6790	0	32.2860	0	25.044	0	48.486	0	274.8	4	95.3	4	-1E+10	1	-1E+10	1	-1E+10	1	-1E+10	1	-1E+10	1	-1E+10	1
4902549	65	C	05/28/2022	20:58	-131.604	47.570	0	50.00	0	8.6700	0	32.2860	0	25.045	0	49.576	0	274.4	4	95.2	4	-1E+10	1	-1E+10	1	-1E+10	1	-1E+10	1	-1E+10	1	-1E+10	1
4902549	65	C	05/28/2022	20:58	-131.604	47.570	0	51.20	0	8.6650	0	32.2860	0	25.046	0	50.766	0	274.1	4	95.1	4	-1E+10	1	-1E+10	1	-1E+10	1	-1E+10	1	-1E+10	1	-1E+10	1
4902549	65	C	05/28/2022	20:58	-131.604	47.570	0	51.90	0	8.6280	0	32.2880	0	25.053	0	51.460	0	274.1	4	95.0	4	-1E+10	1	-1E+10	1	-1E+10	1	-1E+10	1	-1E+10	1	-1E+10	1
4902549	65	C	05/28/2022	20:58	-131.604	47.570	0	53.00	0	8.5970	0	32.2890	0	25.059	0	52.551	0	273.8	4	94.8	4	-1E+10	1	-1E+10	1	-1E+10	1	-1E+10	1	-1E+10	1	-1E+10	1
4902549	65	C	05/28/2022	20:58	-131.604	47.570	0	54.10	0	8.5750	0	32.2930	0	25.065	0	53.641	0	273.5	4	94.7	4	-1E+10	1	-1E+10	1	-1E+10	1	-1E+10	1	-1E+10	1	-1E+10	1
4902549	65	C	05/28/2022	20:58	-131.604	47.570	0	54.80	0	8.5550	0	32.2920	0	25.067	0	54.335	0	273.3	4	94.6	4	-1E+10	1	-1E+10	1	-1E+10	1	-1E+10	1	-1E+10	1	-1E+10	1
4902549	65	C	05/28/2022	20:58	-131.604	47.570	0	55.90	0	8.5180	0	32.2930	0	25.074	0	55.426	0	273.0	4	94.4	4	-1E+10	1	-1E+10	1	-1E+10	1	-1E+10	1	-1E+10	1	-1E+10	1
4902549	65	C	05/28/2022	20:58	-131.604	47.570	0	57.00	0	8.4750	0	32.2940	0	25.081	0	56.516	0	272.9	4	94.2	4	-1E+10	1	-1E+10	1	-1E+10	1	-1E+10	1	-1E+10	1	-1E+10	1
4902549	65	C	05/28/2022	20:58	-131.604	47.570	0	58.20	0	8.4090	0	32.3020	0	25.097	0	57.706	0	272.8	4	94.1	4	-1E+10	1	-1E+10	1	-1E+10	1	-1E+10	1	-1E+10	1	-1E+10	1
4902549	65	C	05/28/2022	20:58	-131.604	47.570	0	59.00	0	8.3670	0	32.2970	0	25.099	0	58.499	0	272.8	4	94.0	4	-1E+10	1	-1E+10	1	-1E+10	1	-1E+10	1	-1E+10	1	-1E+10	1
4902549	65	C	05/28/2022	20:58	-131.604	47.570	0	60.20	0	8.2730	0	32.2990	0	25.115	0	59.688	0	272.7	4	93.8	4	-1E+10	1	-1E+10	1	-1E+10	1	-1E+10	1	-1E+10	1	-1E+10	1
4902549	65	C	05/28/2022	20:58	-131.604	47.570	0	61.00	0	8.2580	0	32.2970	0	25.115	0	60.482	0	272.1	4	93.5	4	-1E+10	1	-1E+10	1	-1E+10	1	-1E+10	1	-1E+10	1	-1E+10	1
4902549	65	C	05/28/2022	20:58	-131.604	47.570	0	62.30	0	8.1860	0	32.2990	0	25.127	0	61.770	0	271.6	4	93.2	4	-1E+10	1	-1E+10	1	-1E+10	1	-1E+10	1	-1E+10	1	-1E+10	1
4902549	65	C	05/28/2022	20:58	-131.604	47.570	0	62.90	0	8.1650	0	32.3010	0	25.132	0	62.365	0	271.1	4	93.0	4	-1E+10	1	-1E+10	1	-1E+10	1	-1E+10	1	-1E+10	1	-1E+10	1
4902549	65	C	05/28/2022	20:58	-131.604	47.570	0	63.80	0	8.1310	0	32.3030	0	25.139	0	63.257	0	270.5	4	92.7	4	-1E+10	1	-1E+10	1	-1E+10	1	-1E+10	1	-1E+10	1	-1E+10	1
4902549	65	C	05/28/2022	20:58	-131.604	47.570	0	64.70	0	8.1050	0	32.3040	0	25.143	0	64.150	0	269.7	4	92.4	4	-1E+10	1	-1E+10	1	-1E+10	1	-1E+10	1	-1E+10	1	-1E+10	1
4902549	65	C	05/28/2022	20:58	-131.604	47.570	0	65.70	0	8.0660	0	32.3060	0	25.150	0	65.141	0	269.0	4	92.1	4	-1E+10	1	-1E+10	1	-1E+10	1	-1E+10	1	-1E+10	1	-1E+10	1
4902549	65	C	05/28/2022	20:58	-131.604	47.570	0	66.70	0	8.0020	0	32.3120	0	25.164	0	66.132	0	268.1	4	91.7	4	-1E+10	1	-1E+10	1	-1E+10	1	-1E+10	1	-1E+10	1	-1E+10	1
4902549	65	C	05/28/2022	20:58	-131.604	47.570	0	67.70	0	7.9430	0	32.3180	0	25.177	0	67.124	0	267.3	4	91.2	4	-1E+10	1	-1E+10	1	-1E+10	1	-1E+10	1	-1E+10	1	-1E+10	1
4902549	65	C	05/28/2022	20:58	-131.604	47.570	0	68.70	0	7.9230	0	32.3220	0	25.183	0	68.115	0	266.1	4	90.8	4	-1E+10	1	-1E+10	1	-1E+10	1	-1E+10	1	-1E+10	1	-1E+10	1
4902549	65	C	05/28/2022	20:58	-131.604	47.570	0	69.80	0	7.8870	0	32.3230	0	25.189	0	69.205	0	264.7	4	90.2	4	-1E+10	1	-1E+10	1	-1E+10	1	-1E+10	1	-1E+10	1	-1E+10	1
4902549	65	C	05/28/2022	20:58	-131.604	47.570	0	70.80	0	7.8770	0	32.3270	0	25.194	0	70.197	0	262.9	4	89.6	4	-1E+10	1	-1E+10	1	-1E+10	1	-1E+10	1	-1E+10	1	-1E+10	1
4902549	65	C	05/28/2022	20:58	-131.604	47.570	0	71.90	0	7.8490	0	32.3310	0	25.201	0	71.287	0	260.8	4	88.9	4	-1E+10	1	-1E+10	1	-1E+10	1	-1E+10	1	-1E+10	1	-1E+10	1
4902549	65	C	05/28/2022	20:58	-131.604	47.570	0	73.10	0	7.7600	0	32.3360	0	25.218	0	72.477	0	258.7	4	88.0	4	-1E+10	1	-1E+10	1	-1E+10	1	-1E+10	1	-1E+10	1	-1E+10	1
4902549	65	C	05/28/2022	20:58	-131.604	47.570	0	74.00	0	7.8090	0	32.3670	0	25.235	0	73.369	0	256.8	4	87.4	4	-1E+10	1	-1E+10	1	-1E+10	1	-1E+10	1	-1E+10	1	-1E+10	1
4902549	65	C	05/28/2022	20:58	-131.604	47.570	0	75.00	0	7.7720	0	32.3990	0	25.266	0	74.360	0	255.5	4	86.9	4	-1E+10	1	-1E+10	1	-1E+10	1	-1E+10	1	-1E+10	1	-1E+10	1
4902549	65	C	05/28/2022	20:58	-131.604	47.570	0	75.90	0	7.6290	0	32.3970	0	25.284	0	75.252	0	254.6	4	86.3	4	-1E+10	1	-1E+10	1	-1E+10	1	-1E+10	1	-1E+10	1	-1E+10	1
4902549	65	C	05/28/2022	20:58	-131.604	47.570	0	76.80	0	7.6570	0	32.3980	0	25.281	0	76.144	0	252.9	4	85.8	4	-1E+10	1	-1E+10	1	-1E+10	1	-1E+10	1	-1E+10	1	-1E+10	1
4902549	65	C	05/28/2022	20:58	-131.604	47.570	0	77.90	0	7.7390	0	32.4180	0	25.285	0	77.235	0	250.3	4	85.1	4	-1E+10	1	-1E+10	1	-1E+10	1	-1E+10	1	-1E+10	1	-1E+10	1
4902549	65	C	05/28/2022	20:58	-131.604	47.570	0	78.90	0	7.7020	0	32.4250	0	25.296	0	78.226	0	248.7	4	84.5	4	-1E+10	1	-1E+10	1	-1E+10	1	-1E+10	1	-1E+10	1	-1E+10	1
4902549	65	C	05/28/2022	20:58	-131.604	47.570	0	80.10	0	7.7740	0	32.4590	0	25.312	0	79.416	0	246.6	4	83.9	4	-1E+10	1	-1E+10	1	-1E+10	1	-1E+10	1	-1E+10	1	-1E+10	1
4902549	65	C	05/28/2022	20:58	-131.604	47.570	0	81.00	0	7.7710	0	32.4850	0	25.333	0	80.308	0	245.4	4	83.6	4	-1E+10	1	-1E+10	1	-1E+10	1	-1E+10	1	-1E+10	1	-1E+10	1
4902549	65	C	05/28/2022	20:58	-131.604	47.570	0	82.10	0	7.7580	0	32.5040	0	25.350	0	81.398	0	244.1	4	83.1	4	-1E+10	1	-1E+10	1	-1E+10	1	-1E+10	1	-1E+10	1	-1E+10	1
4902549	65	C	05/28/2022	20:58	-131.604	47.570	0	83.00	0	7.7460	0	32.5120	0	25.358	0	82.290	0	242.9	4	82.7	4	-1E+10	1	-1E+10	1	-1E+10	1	-1E+10	1	-1E+10	1	-1E+10	1
4902549	65	C	05/28/2022	20:58	-131.604	47.570	0	83.90	0	7.7300	0	32.5250	0	25.371	0	83.182	0	247.9	4	84.4	4	-1E+10	1	-1E+10	1	-1E+10	1	-1E+10	1	-1E+10	1	-1E+10	1
4902549	65	C	05/28/2022	20:58	-131.604	47.570	0	84.90	0	7.7100	0	32.5350	0	25.381	0	84.174	0	246.7	4	83.9	4	-1E+10	1	-1E+10	1	-1E+10	1	-1E+10	1	-1E+10	1	-1E+10	1
4902549	65	C	05/28/2022	20:58	-131.604	47.570	0	85.90	0	7.6870	0	32.5510	0	25.397	0	85.165	0	245.2	4	83.4	4	-1E+10	1	-1E+10	1	-1E+10	1	-1E+10	1	-1E+10	1	-1E+10	1
4902549	65	C	05/28/2022	20:58	-131.604	47.570	0	87.00	0	7.6710	0	32.5790	0	25.421	0	86.255	0	244.3	4	83.0	4	-1E+10	1	-1E+10	1	-1E+10	1	-1E+10	1	-1E+10	1	-1E+10	1
4902549	65	C	05/28/2022	20:58	-131.604	47.570	0	88.00	0	7.6030	0	32.5950	0	25.443	0	87.246	0	243.7	4	82.7	4	-1E+10	1	-1E+10	1	-1E+10	1	-1E+10	1	-1E+10	1	-1E+10	1
4902549	65	C	05/28/2022	20:58	-131.604	47.570	0	89.00	0	7.5490	0	32.5890	0	25.446	0	88.238	0	242.6	4	82.3	4	-1E+10	1	-1E+10	1	-1E+10	1	-1E+10	1	-1E+10	1	-1E+10	1
4902549	65	C	05/28/2022	20:58	-131.604	47.570	0	90.20	0	7.4630	0	32.5900	0	25.459	0	89.427	0	241.0	4	81.5	4	-1E+10	1	-1E+10	1	-1E+10	1	-1E+10	1	-1E+10	1	-1E+10	1
4902549	65	C	05/28/2022	20:58	-131.604	47.570	0	91.00	0	7.4690	0	32.5920	0	25.460	0	90.220	0	239.4	4	81.0	4	-1E+10	1	-1E+10	1	-1E+10	1	-1E+10	1	-1E+10	1	-1E+10	1
4902549	65	C	05/28/2022	20:58	-131.604	47.570	0	91.90	0	7.3890	0	32.6180	0	25.491	0	91.112	0	237.8	4	80.4	4	-1E+10	1	-1E+10	1	-1E+10	1	-1E+10	1	-1E+10	1	-1E+10	1
4902549	65	C	05/28/2022	20:58	-131.604	47.570	0	93.10	0	7.3810	0	32.6380	0	25.508	0	92.302	0	234.4	4	79.2	4	-1E+10	1	-1E+10	1	-1E+10	1	-1E+10	1	-1E+10	1	-1E+10	1
4902549	65	C	05/28/2022	20:58	-131.604	47.570	0	93.90	0	7.4070	0	32.6480	0	25.512	0	93.095	0	231.7	4	78.3	4	-1E+10	1	-1E+10	1	-1E+10	1	-1E+10	1	-1E+10	1	-1E+10	1
4902549	65	C	05/28/2022	20:58	-131.604	47.570	0	95.20	0	7.5180	0	32.6880	0	25.529	0	94.383	0	227.6	4	77.2	4	-1E+10	1	-1E+10	1	-1E+10	1	-1E+10	1	-1E+10	1	-1E+10	1
4902549	65	C	05/28/2022	20:58	-131.604	47.570	0	96.00	0	7.5740	0	32.6980	0	25.529	0	95.176	0	225.4	4	76.5	4	-1E+10	1	-1E+10	1	-1E+10	1	-1E+10	1	-1E+10	1	-1E+10	1
4902549	65	C	05/28/2022	20:58	-131.604	47.570	0	97.10	0	7.5570	0	32.7270	0	25.554	0	96.266	0	222.7	4	75.6	4	-1E+10	1	-1E+10	1	-1E+10	1	-1E+10	1	-1E+10	1	-1E+10	1
4902549	65	C	05/28/2022	20:58	-131.604	47.570	0	98.10	0	7.5250	0	32.7660	0	25.589	0	97.258	0	220.6	4	74.8	4	-1E+10	1	-1E+10	1	-1E+10	1	-1E+10	1	-1E+10	1	-1E+10	1
4902549	65	C	05/28/2022	20:58	-131.604	47.570	0	99.10	0	7.5050	0	32.8000	0	25.618	0	98.249	0	218.7	4	74.2	4	-1E+10	1	-1E+10	1	-1E+10	1	-1E+10	1	-1E+10	1	-1E+10	1
4902549	65	C	05/28/2022	20:58	-131.604	47.570	0	100.10	0	7.5000	0	32.8110	0	25.628	0	99.240	0	216.4	4	73.4	4	-1E+10	1	-1E+10	1	-1E+10	1	-1E+10	1	-1E+10	1	-1E+10	1
4902549	65	C	05/28/2022	20:58	-131.604	47.570	0	101.00	0	7.4760	0	32.8340	0	25.649	0	100.132	0	214.3	4	72.7	4	-1E+10	1	-1E+10	1	-1E+10	1	-1E+10	1	-1E+10	1	-1E+10	1
4902549	65	C	05/28/2022	20:58	-131.604	47.570	0	102.10	0	7.4120	0	32.8810	0	25.695	0	101.222	0	211.5	4	71.6	4	-1E+10	1	-1E+10	1	-1E+10	1	-1E+10	1	-1E+10	1	-1E+10	1
4902549	65	C	05/28/2022	20:58	-131.604	47.570	0	103.10	0	7.3270	0	32.9420	0	25.755	0	102.213	0	207.3	4	70.1	4	-1E+10	1	-1E+10	1	-1E+10	1	-1E+10	1	-1E+10	1	-1E+10	1
4902549	65	C	05/28/2022	20:58	-131.604	47.570	0	104.00	0	7.3070	0	32.9920	0	25.797	0	103.105	0	203.3	4	68.7	4	-1E+10	1	-1E+10	1	-1E+10	1	-1E+10	1	-1E+10	1	-1E+10	1
4902549	65	C	05/28/2022	20:58	-131.604	47.570	0	104.90	0	7.3160	0	33.0280	0	25.824	0	103.997	0	198.5	4	67.2	4	-1E+10	1	-1E+10	1	-1E+10	1	-1E+10	1	-1E+10	1	-1E+10	1
4902549	65	C	05/28/2022	20:58	-131.604	47.570	0	105.80	0	7.2990	0	33.0370	0	25.833	0	104.889	0	192.5	4	65.1	4	-1E+10	1	-1E+10	1	-1E+10	1	-1E+10	1	-1E+10	1	-1E+10	1
4902549	65	C	05/28/2022	20:58	-131.604	47.570	0	107.00	0	7.3460	0	33.1230	0	25.895	0	106.079	0	187.1	4	63.4	4	-1E+10	1	-1E+10	1	-1E+10	1	-1E+10	1	-1E+10	1	-1E+10	1
4902549	65	C	05/28/2022	20:58	-131.604	47.570	0	108.30	0	7.4510	0	33.2120	0	25.950	0	107.367	0	183.4	4	62.3	4	-1E+10	1	-1E+10	1	-1E+10	1	-1E+10	1	-1E+10	1	-1E+10	1
4902549	65	C	05/28/2022	20:58	-131.604	47.570	0	109.00	0	7.4370	0	33.2200	0	25.958	0	108.061	0	181.7	4	61.7	4	-1E+10	1	-1E+10	1	-1E+10	1	-1E+10	1	-1E+10	1	-1E+10	1
4902549	65	C	05/28/2022	20:58	-131.604	47.570	0	109.90	0	7.4130	0	33.2440	0	25.981	0	108.953	0	179.8	4	61.1	4	-1E+10	1	-1E+10	1	-1E+10	1	-1E+10	1	-1E+10	1	-1E+10	1
4902549	65	C	05/28/2022	20:58	-131.604	47.570	0	110.80	0	7.3960	0	33.2860	0	26.016	0	109.845	0	177.7	4	60.4	4	-1E+10	1	-1E+10	1	-1E+10	1	-1E+10	1	-1E+10	1	-1E+10	1
4902549	65	C	05/28/2022	20:58	-131.604	47.570	0	112.00	0	7.4590	0	33.3310	0	26.043	0	111.034	0	175.2	4	59.6	4	-1E+10	1	-1E+10	1	-1E+10	1	-1E+10	1	-1E+10	1	-1E+10	1
4902549	65	C	05/28/2022	20:58	-131.604	47.570	0	113.00	0	7.4820	0	33.3580	0	26.061	0	112.026	0	174.0	4	59.2	4	-1E+10	1	-1E+10	1	-1E+10	1	-1E+10	1	-1E+10	1	-1E+10	1
4902549	65	C	05/28/2022	20:58	-131.604	47.570	0	113.90	0	7.4840	0	33.3700	0	26.070	0	112.918	0	173.2	4	59.0	4	-1E+10	1	-1E+10	1	-1E+10	1	-1E+10	1	-1E+10	1	-1E+10	1
4902549	65	C	05/28/2022	20:58	-131.604	47.570	0	115.00	0	7.4830	0	33.3770	0	26.075	0	114.008	0	172.2	4	58.6	4	-1E+10	1	-1E+10	1	-1E+10	1	-1E+10	1	-1E+10	1	-1E+10	1
4902549	65	C	05/28/2022	20:58	-131.604	47.570	0	116.00	0	7.4560	0	33.4070	0	26.103	0	114.999	0	171.3	4	58.3	4	-1E+10	1	-1E+10	1	-1E+10	1	-1E+10	1	-1E+10	1	-1E+10	1
4902549	65	C	05/28/2022	20:58	-131.604	47.570	0	117.10	0	7.4360	0	33.4380	0	26.130	0	116.089	0	170.5	4	58.0	4	-1E+10	1	-1E+10	1	-1E+10	1	-1E+10	1	-1E+10	1	-1E+10	1
4902549	65	C	05/28/2022	20:58	-131.604	47.570	0	117.80	0	7.4380	0	33.4550	0	26.143	0	116.783	0	170.1	4	57.9	4	-1E+10	1	-1E+10	1	-1E+10	1	-1E+10	1	-1E+10	1	-1E+10	1
4902549	65	C	05/28/2022	20:58	-131.604	47.570	0	118.90	0	7.4350	0	33.4690	0	26.155	0	117.873	0	169.6	4	57.7	4	-1E+10	1	-1E+10	1	-1E+10	1	-1E+10	1	-1E+10	1	-1E+10	1
4902549	65	C	05/28/2022	20:58	-131.604	47.570	0	120.00	0	7.4310	0	33.4760	0	26.161	0	118.963	0	169.1	4	57.5	4	-1E+10	1	-1E+10	1	-1E+10	1	-1E+10	1	-1E+10	1	-1E+10	1
4902549	65	C	05/28/2022	20:58	-131.604	47.570	0	120.70	0	7.4310	0	33.4770	0	26.161	0	119.657	0	168.7	4	57.4	4	-1E+10	1	-1E+10	1	-1E+10	1	-1E+10	1	-1E+10	1	-1E+10	1
4902549	65	C	05/28/2022	20:58	-131.604	47.570	0	121.80	0	7.4280	0	33.4800	0	26.164	0	120.747	0	168.0	4	57.2	4	-1E+10	1	-1E+10	1	-1E+10	1	-1E+10	1	-1E+10	1	-1E+10	1
4902549	65	C	05/28/2022	20:58	-131.604	47.570	0	122.90	0	7.4240	0	33.4940	0	26.176	0	121.837	0	167.3	4	56.9	4	-1E+10	1	-1E+10	1	-1E+10	1	-1E+10	1	-1E+10	1	-1E+10	1
4902549	65	C	05/28/2022	20:58	-131.604	47.570	0	124.00	0	7.4050	0	33.5210	0	26.200	0	122.927	0	166.7	4	56.7	4	-1E+10	1	-1E+10	1	-1E+10	1	-1E+10	1	-1E+10	1	-1E+10	1
4902549	65	C	05/28/2022	20:58	-131.604	47.570	0	125.10	0	7.3870	0	33.5320	0	26.211	0	124.018	0	165.8	4	56.4	4	-1E+10	1	-1E+10	1	-1E+10	1	-1E+10	1	-1E+10	1	-1E+10	1
4902549	65	C	05/28/2022	20:58	-131.604	47.570	0	125.90	0	7.3850	0	33.5340	0	26.213	0	124.810	0	165.0	4	56.1	4	-1E+10	1	-1E+10	1	-1E+10	1	-1E+10	1	-1E+10	1	-1E+10	1
4902549	65	C	05/28/2022	20:58	-131.604	47.570	0	126.90	0	7.3810	0	33.5490	0	26.225	0	125.801	0	163.7	4	55.7	4	-1E+10	1	-1E+10	1	-1E+10	1	-1E+10	1	-1E+10	1	-1E+10	1
4902549	65	C	05/28/2022	20:58	-131.604	47.570	0	128.10	0	7.3870	0	33.5650	0	26.237	0	126.991	0	162.7	4	55.3	4	-1E+10	1	-1E+10	1	-1E+10	1	-1E+10	1	-1E+10	1	-1E+10	1
4902549	65	C	05/28/2022	20:58	-131.604	47.570	0	128.80	0	7.3880	0	33.5750	0	26.245	0	127.684	0	162.2	4	55.2	4	-1E+10	1	-1E+10	1	-1E+10	1	-1E+10	1	-1E+10	1	-1E+10	1
4902549	65	C	05/28/2022	20:58	-131.604	47.570	0	130.00	0	7.3770	0	33.6000	0	26.266	0	128.874	0	161.5	4	54.9	4	-1E+10	1	-1E+10	1	-1E+10	1	-1E+10	1	-1E+10	1	-1E+10	1
4902549	65	C	05/28/2022	20:58	-131.604	47.570	0	131.20	0	7.3630	0	33.6220	0	26.285	0	130.063	0	160.9	4	54.7	4	-1E+10	1	-1E+10	1	-1E+10	1	-1E+10	1	-1E+10	1	-1E+10	1
4902549	65	C	05/28/2022	20:58	-131.604	47.570	0	132.00	0	7.3570	0	33.6310	0	26.293	0	130.856	0	160.6	4	54.6	4	-1E+10	1	-1E+10	1	-1E+10	1	-1E+10	1	-1E+10	1	-1E+10	1
4902549	65	C	05/28/2022	20:58	-131.604	47.570	0	132.80	0	7.3460	0	33.6420	0	26.303	0	131.648	0	160.5	4	54.6	4	-1E+10	1	-1E+10	1	-1E+10	1	-1E+10	1	-1E+10	1	-1E+10	1
4902549	65	C	05/28/2022	20:58	-131.604	47.570	0	134.00	0	7.3240	0	33.6600	0	26.321	0	132.838	0	160.4	4	54.5	4	-1E+10	1	-1E+10	1	-1E+10	1	-1E+10	1	-1E+10	1	-1E+10	1
4902549	65	C	05/28/2022	20:58	-131.604	47.570	0	135.20	0	7.3130	0	33.6690	0	26.329	0	134.027	0	160.2	4	54.5	4	-1E+10	1	-1E+10	1	-1E+10	1	-1E+10	1	-1E+10	1	-1E+10	1
4902549	65	C	05/28/2022	20:58	-131.604	47.570	0	136.00	0	7.3110	0	33.6690	0	26.329	0	134.820	0	160.1	4	54.4	4	-1E+10	1	-1E+10	1	-1E+10	1	-1E+10	1	-1E+10	1	-1E+10	1
4902549	65	C	05/28/2022	20:58	-131.604	47.570	0	137.00	0	7.3080	0	33.6710	0	26.331	0	135.811	0	159.8	4	54.3	4	-1E+10	1	-1E+10	1	-1E+10	1	-1E+10	1	-1E+10	1	-1E+10	1
4902549	65	C	05/28/2022	20:58	-131.604	47.570	0	138.10	0	7.3060	0	33.6720	0	26.333	0	136.901	0	159.4	4	54.2	4	-1E+10	1	-1E+10	1	-1E+10	1	-1E+10	1	-1E+10	1	-1E+10	1
4902549	65	C	05/28/2022	20:58	-131.604	47.570	0	139.00	0	7.2930	0	33.6790	0	26.340	0	137.793	0	159.0	4	54.0	4	-1E+10	1	-1E+10	1	-1E+10	1	-1E+10	1	-1E+10	1	-1E+10	1
4902549	65	C	05/28/2022	20:58	-131.604	47.570	0	139.80	0	7.2910	0	33.6810	0	26.342	0	138.585	0	158.7	4	53.9	4	-1E+10	1	-1E+10	1	-1E+10	1	-1E+10	1	-1E+10	1	-1E+10	1
4902549	65	C	05/28/2022	20:58	-131.604	47.570	0	141.00	0	7.2810	0	33.6870	0	26.348	0	139.775	0	158.0	4	53.7	4	-1E+10	1	-1E+10	1	-1E+10	1	-1E+10	1	-1E+10	1	-1E+10	1
4902549	65	C	05/28/2022	20:58	-131.604	47.570	0	142.20	0	7.2590	0	33.7090	0	26.368	0	140.964	0	157.5	4	53.5	4	-1E+10	1	-1E+10	1	-1E+10	1	-1E+10	1	-1E+10	1	-1E+10	1
4902549	65	C	05/28/2022	20:58	-131.604	47.570	0	143.10	0	7.2550	0	33.7110	0	26.370	0	141.856	0	157.3	4	53.4	4	-1E+10	1	-1E+10	1	-1E+10	1	-1E+10	1	-1E+10	1	-1E+10	1
4902549	65	C	05/28/2022	20:58	-131.604	47.570	0	143.90	0	7.2510	0	33.7150	0	26.374	0	142.648	0	157.0	4	53.3	4	-1E+10	1	-1E+10	1	-1E+10	1	-1E+10	1	-1E+10	1	-1E+10	1
4902549	65	C	05/28/2022	20:58	-131.604	47.570	0	144.70	0	7.2510	0	33.7150	0	26.374	0	143.441	0	156.8	4	53.2	4	-1E+10	1	-1E+10	1	-1E+10	1	-1E+10	1	-1E+10	1	-1E+10	1
4902549	65	C	05/28/2022	20:58	-131.604	47.570	0	146.00	0	7.2480	0	33.7180	0	26.377	0	144.729	0	156.5	4	53.1	4	-1E+10	1	-1E+10	1	-1E+10	1	-1E+10	1	-1E+10	1	-1E+10	1
4902549	65	C	05/28/2022	20:58	-131.604	47.570	0	147.20	0	7.2440	0	33.7220	0	26.381	0	145.918	0	156.1	4	53.0	4	-1E+10	1	-1E+10	1	-1E+10	1	-1E+10	1	-1E+10	1	-1E+10	1
4902549	65	C	05/28/2022	20:58	-131.604	47.570	0	148.10	0	7.2390	0	33.7240	0	26.383	0	146.810	0	156.0	4	52.9	4	-1E+10	1	-1E+10	1	-1E+10	1	-1E+10	1	-1E+10	1	-1E+10	1
4902549	65	C	05/28/2022	20:58	-131.604	47.570	0	148.90	0	7.2180	0	33.7360	0	26.395	0	147.603	0	155.9	4	52.9	4	-1E+10	1	-1E+10	1	-1E+10	1	-1E+10	1	-1E+10	1	-1E+10	1
4902549	65	C	05/28/2022	20:58	-131.604	47.570	0	149.80	0	7.2090	0	33.7390	0	26.399	0	148.495	0	156.0	4	52.9	4	-1E+10	1	-1E+10	1	-1E+10	1	-1E+10	1	-1E+10	1	-1E+10	1
4902549	65	C	05/28/2022	20:58	-131.604	47.570	0	150.60	0	7.1590	0	33.7560	0	26.419	0	149.288	0	156.1	4	52.9	4	-1E+10	1	-1E+10	1	-1E+10	1	-1E+10	1	-1E+10	1	-1E+10	1
4902549	65	C	05/28/2022	20:58	-131.604	47.570	0	151.90	0	7.1380	0	33.7610	0	26.426	0	150.576	0	155.9	4	52.8	4	-1E+10	1	-1E+10	1	-1E+10	1	-1E+10	1	-1E+10	1	-1E+10	1
4902549	65	C	05/28/2022	20:58	-131.604	47.570	0	153.30	0	7.1230	0	33.7630	0	26.430	0	151.963	0	155.5	4	52.7	4	-1E+10	1	-1E+10	1	-1E+10	1	-1E+10	1	-1E+10	1	-1E+10	1
4902549	65	C	05/28/2022	20:58	-131.604	47.570	0	154.10	0	7.1050	0	33.7680	0	26.436	0	152.756	0	155.2	4	52.5	4	-1E+10	1	-1E+10	1	-1E+10	1	-1E+10	1	-1E+10	1	-1E+10	1
4902549	65	C	05/28/2022	20:58	-131.604	47.570	0	155.00	0	7.0970	0	33.7690	0	26.438	0	153.648	0	154.8	4	52.4	4	-1E+10	1	-1E+10	1	-1E+10	1	-1E+10	1	-1E+10	1	-1E+10	1
4902549	65	C	05/28/2022	20:58	-131.604	47.570	0	155.90	0	7.0850	0	33.7740	0	26.444	0	154.539	0	154.5	4	52.3	4	-1E+10	1	-1E+10	1	-1E+10	1	-1E+10	1	-1E+10	1	-1E+10	1
4902549	65	C	05/28/2022	20:58	-131.604	47.570	0	156.70	0	7.0820	0	33.7750	0	26.445	0	155.332	0	154.2	4	52.2	4	-1E+10	1	-1E+10	1	-1E+10	1	-1E+10	1	-1E+10	1	-1E+10	1
4902549	65	C	05/28/2022	20:58	-131.604	47.570	0	158.00	0	7.0750	0	33.7760	0	26.447	0	156.620	0	153.9	4	52.1	4	-1E+10	1	-1E+10	1	-1E+10	1	-1E+10	1	-1E+10	1	-1E+10	1
4902549	65	C	05/28/2022	20:58	-131.604	47.570	0	159.30	0	7.0720	0	33.7760	0	26.447	0	157.909	0	153.4	4	51.9	4	-1E+10	1	-1E+10	1	-1E+10	1	-1E+10	1	-1E+10	1	-1E+10	1
4902549	65	C	05/28/2022	20:58	-131.604	47.570	0	160.10	0	7.0660	0	33.7790	0	26.450	0	158.701	0	153.2	4	51.8	4	-1E+10	1	-1E+10	1	-1E+10	1	-1E+10	1	-1E+10	1	-1E+10	1
4902549	65	C	05/28/2022	20:58	-131.604	47.570	0	161.00	0	7.0580	0	33.7810	0	26.453	0	159.593	0	153.0	4	51.7	4	-1E+10	1	-1E+10	1	-1E+10	1	-1E+10	1	-1E+10	1	-1E+10	1
4902549	65	C	05/28/2022	20:58	-131.604	47.570	0	161.80	0	7.0520	0	33.7820	0	26.454	0	160.386	0	152.8	4	51.7	4	-1E+10	1	-1E+10	1	-1E+10	1	-1E+10	1	-1E+10	1	-1E+10	1
4902549	65	C	05/28/2022	20:58	-131.604	47.570	0	162.70	0	7.0460	0	33.7830	0	26.456	0	161.278	0	152.6	4	51.6	4	-1E+10	1	-1E+10	1	-1E+10	1	-1E+10	1	-1E+10	1	-1E+10	1
4902549	65	C	05/28/2022	20:58	-131.604	47.570	0	163.90	0	7.0280	0	33.7850	0	26.460	0	162.467	0	152.4	4	51.5	4	-1E+10	1	-1E+10	1	-1E+10	1	-1E+10	1	-1E+10	1	-1E+10	1
4902549	65	C	05/28/2022	20:58	-131.604	47.570	0	165.30	0	7.0220	0	33.7870	0	26.463	0	163.854	0	152.1	4	51.4	4	-1E+10	1	-1E+10	1	-1E+10	1	-1E+10	1	-1E+10	1	-1E+10	1
4902549	65	C	05/28/2022	20:58	-131.604	47.570	0	166.10	0	7.0190	0	33.7870	0	26.463	0	164.646	0	151.9	4	51.3	4	-1E+10	1	-1E+10	1	-1E+10	1	-1E+10	1	-1E+10	1	-1E+10	1
4902549	65	C	05/28/2022	20:58	-131.604	47.570	0	167.00	0	7.0180	0	33.7870	0	26.463	0	165.538	0	151.7	4	51.3	4	-1E+10	1	-1E+10	1	-1E+10	1	-1E+10	1	-1E+10	1	-1E+10	1
4902549	65	C	05/28/2022	20:58	-131.604	47.570	0	167.80	0	7.0140	0	33.7870	0	26.464	0	166.331	0	151.4	4	51.2	4	-1E+10	1	-1E+10	1	-1E+10	1	-1E+10	1	-1E+10	1	-1E+10	1
4902549	65	C	05/28/2022	20:58	-131.604	47.570	0	168.70	0	6.9940	0	33.7900	0	26.469	0	167.223	0	151.1	4	51.0	4	-1E+10	1	-1E+10	1	-1E+10	1	-1E+10	1	-1E+10	1	-1E+10	1
4902549	65	C	05/28/2022	20:58	-131.604	47.570	0	169.90	0	6.9580	0	33.7940	0	26.477	0	168.412	0	150.5	4	50.8	4	-1E+10	1	-1E+10	1	-1E+10	1	-1E+10	1	-1E+10	1	-1E+10	1
4902549	65	C	05/28/2022	20:58	-131.604	47.570	0	171.20	0	6.9110	0	33.7980	0	26.486	0	169.700	0	149.9	4	50.5	4	-1E+10	1	-1E+10	1	-1E+10	1	-1E+10	1	-1E+10	1	-1E+10	1
4902549	65	C	05/28/2022	20:58	-131.604	47.570	0	172.00	0	6.8830	0	33.7980	0	26.490	0	170.492	0	149.3	4	50.3	4	-1E+10	1	-1E+10	1	-1E+10	1	-1E+10	1	-1E+10	1	-1E+10	1
4902549	65	C	05/28/2022	20:58	-131.604	47.570	0	172.90	0	6.8760	0	33.7970	0	26.490	0	171.384	0	148.3	4	49.9	4	-1E+10	1	-1E+10	1	-1E+10	1	-1E+10	1	-1E+10	1	-1E+10	1
4902549	65	C	05/28/2022	20:58	-131.604	47.570	0	173.80	0	6.8550	0	33.7980	0	26.494	0	172.276	0	147.1	4	49.5	4	-1E+10	1	-1E+10	1	-1E+10	1	-1E+10	1	-1E+10	1	-1E+10	1
4902549	65	C	05/28/2022	20:58	-131.604	47.570	0	174.60	0	6.8340	0	33.8020	0	26.500	0	173.068	0	145.9	4	49.1	4	-1E+10	1	-1E+10	1	-1E+10	1	-1E+10	1	-1E+10	1	-1E+10	1
4902549	65	C	05/28/2022	20:58	-131.604	47.570	0	175.90	0	6.8240	0	33.8050	0	26.504	0	174.357	0	144.4	4	48.6	4	-1E+10	1	-1E+10	1	-1E+10	1	-1E+10	1	-1E+10	1	-1E+10	1
4902549	65	C	05/28/2022	20:58	-131.604	47.570	0	177.30	0	6.8030	0	33.8070	0	26.508	0	175.744	0	142.7	4	48.0	4	-1E+10	1	-1E+10	1	-1E+10	1	-1E+10	1	-1E+10	1	-1E+10	1
4902549	65	C	05/28/2022	20:58	-131.604	47.570	0	178.10	0	6.8030	0	33.8100	0	26.510	0	176.536	0	141.7	4	47.7	4	-1E+10	1	-1E+10	1	-1E+10	1	-1E+10	1	-1E+10	1	-1E+10	1
4902549	65	C	05/28/2022	20:58	-131.604	47.570	0	179.00	0	6.8040	0	33.8120	0	26.512	0	177.428	0	140.8	4	47.3	4	-1E+10	1	-1E+10	1	-1E+10	1	-1E+10	1	-1E+10	1	-1E+10	1
4902549	65	C	05/28/2022	20:58	-131.604	47.570	0	179.80	0	6.8060	0	33.8130	0	26.512	0	178.221	0	139.8	4	47.0	4	-1E+10	1	-1E+10	1	-1E+10	1	-1E+10	1	-1E+10	1	-1E+10	1
4902549	65	C	05/28/2022	20:58	-131.604	47.570	0	180.70	0	6.8070	0	33.8170	0	26.515	0	179.112	0	139.2	4	46.8	4	-1E+10	1	-1E+10	1	-1E+10	1	-1E+10	1	-1E+10	1	-1E+10	1
4902549	65	C	05/28/2022	20:58	-131.604	47.570	0	181.60	0	6.8030	0	33.8210	0	26.519	0	180.004	0	138.8	4	46.7	4	-1E+10	1	-1E+10	1	-1E+10	1	-1E+10	1	-1E+10	1	-1E+10	1
4902549	65	C	05/28/2022	20:58	-131.604	47.570	0	182.90	0	6.8030	0	33.8220	0	26.520	0	181.292	0	138.7	4	46.6	4	-1E+10	1	-1E+10	1	-1E+10	1	-1E+10	1	-1E+10	1	-1E+10	1
4902549	65	C	05/28/2022	20:58	-131.604	47.570	0	184.20	0	6.7950	0	33.8250	0	26.523	0	182.580	0	138.6	4	46.6	4	-1E+10	1	-1E+10	1	-1E+10	1	-1E+10	1	-1E+10	1	-1E+10	1
4902549	65	C	05/28/2022	20:58	-131.604	47.570	0	185.10	0	6.7780	0	33.8240	0	26.525	0	183.472	0	138.8	4	46.6	4	-1E+10	1	-1E+10	1	-1E+10	1	-1E+10	1	-1E+10	1	-1E+10	1
4902549	65	C	05/28/2022	20:58	-131.604	47.570	0	186.00	0	6.7480	0	33.8240	0	26.529	0	184.363	0	138.8	4	46.6	4	-1E+10	1	-1E+10	1	-1E+10	1	-1E+10	1	-1E+10	1	-1E+10	1
4902549	65	C	05/28/2022	20:58	-131.604	47.570	0	186.90	0	6.7170	0	33.8220	0	26.531	0	185.255	0	138.8	4	46.6	4	-1E+10	1	-1E+10	1	-1E+10	1	-1E+10	1	-1E+10	1	-1E+10	1
4902549	65	C	05/28/2022	20:58	-131.604	47.570	0	187.80	0	6.6950	0	33.8240	0	26.536	0	186.147	0	138.6	4	46.5	4	-1E+10	1	-1E+10	1	-1E+10	1	-1E+10	1	-1E+10	1	-1E+10	1
4902549	65	C	05/28/2022	20:58	-131.604	47.570	0	188.70	0	6.6920	0	33.8230	0	26.536	0	187.038	0	138.3	4	46.4	4	-1E+10	1	-1E+10	1	-1E+10	1	-1E+10	1	-1E+10	1	-1E+10	1
4902549	65	C	05/28/2022	20:58	-131.604	47.570	0	189.60	0	6.6850	0	33.8230	0	26.537	0	187.930	0	138.0	4	46.3	4	-1E+10	1	-1E+10	1	-1E+10	1	-1E+10	1	-1E+10	1	-1E+10	1
4902549	65	C	05/28/2022	20:58	-131.604	47.570	0	190.90	0	6.6780	0	33.8240	0	26.538	0	189.218	0	137.5	4	46.1	4	-1E+10	1	-1E+10	1	-1E+10	1	-1E+10	1	-1E+10	1	-1E+10	1
4902549	65	C	05/28/2022	20:58	-131.604	47.570	0	192.30	0	6.6640	0	33.8260	0	26.542	0	190.605	0	137.0	4	45.9	4	-1E+10	1	-1E+10	1	-1E+10	1	-1E+10	1	-1E+10	1	-1E+10	1
4902549	65	C	05/28/2022	20:58	-131.604	47.570	0	193.20	0	6.6600	0	33.8250	0	26.541	0	191.497	0	136.6	4	45.8	4	-1E+10	1	-1E+10	1	-1E+10	1	-1E+10	1	-1E+10	1	-1E+10	1
4902549	65	C	05/28/2022	20:58	-131.604	47.570	0	194.10	0	6.6570	0	33.8270	0	26.543	0	192.388	0	136.1	4	45.6	4	-1E+10	1	-1E+10	1	-1E+10	1	-1E+10	1	-1E+10	1	-1E+10	1
4902549	65	C	05/28/2022	20:58	-131.604	47.570	0	195.00	0	6.6500	0	33.8250	0	26.543	0	193.280	0	135.6	4	45.5	4	-1E+10	1	-1E+10	1	-1E+10	1	-1E+10	1	-1E+10	1	-1E+10	1
4902549	65	C	05/28/2022	20:58	-131.604	47.570	0	196.00	0	6.6450	0	33.8250	0	26.544	0	194.271	0	135.1	4	45.3	4	-1E+10	1	-1E+10	1	-1E+10	1	-1E+10	1	-1E+10	1	-1E+10	1
4902549	65	C	05/28/2022	20:58	-131.604	47.570	0	196.90	0	6.6380	0	33.8260	0	26.545	0	195.162	0	134.5	4	45.1	4	-1E+10	1	-1E+10	1	-1E+10	1	-1E+10	1	-1E+10	1	-1E+10	1
4902549	65	C	05/28/2022	20:58	-131.604	47.570	0	197.80	0	6.6320	0	33.8270	0	26.547	0	196.054	0	133.8	4	44.8	4	-1E+10	1	-1E+10	1	-1E+10	1	-1E+10	1	-1E+10	1	-1E+10	1
4902549	65	C	05/28/2022	20:58	-131.604	47.570	0	198.80	0	6.6300	0	33.8270	0	26.547	0	197.045	0	133.2	4	44.6	4	-1E+10	1	-1E+10	1	-1E+10	1	-1E+10	1	-1E+10	1	-1E+10	1
4902549	65	C	05/28/2022	20:58	-131.604	47.570	0	199.70	0	6.6280	0	33.8270	0	26.547	0	197.936	0	132.4	4	44.4	4	-1E+10	1	-1E+10	1	-1E+10	1	-1E+10	1	-1E+10	1	-1E+10	1
4902549	65	C	05/28/2022	20:58	-131.604	47.570	0	200.70	0	6.6190	0	33.8300	0	26.551	0	198.927	0	131.7	4	44.1	4	-1E+10	1	-1E+10	1	-1E+10	1	-1E+10	1	-1E+10	1	-1E+10	1
4902549	65	C	05/28/2022	20:58	-131.604	47.570	0	201.70	0	6.6130	0	33.8280	0	26.550	0	199.918	0	130.9	4	43.8	4	-1E+10	1	-1E+10	1	-1E+10	1	-1E+10	1	-1E+10	1	-1E+10	1
4902549	65	C	05/28/2022	20:58	-131.604	47.570	0	202.60	0	6.6010	0	33.8320	0	26.555	0	200.809	0	130.3	4	43.6	4	-1E+10	1	-1E+10	1	-1E+10	1	-1E+10	1	-1E+10	1	-1E+10	1
4902549	65	C	05/28/2022	20:58	-131.604	47.570	0	203.60	0	6.5760	0	33.8320	0	26.558	0	201.800	0	129.7	4	43.4	4	-1E+10	1	-1E+10	1	-1E+10	1	-1E+10	1	-1E+10	1	-1E+10	1
4902549	65	C	05/28/2022	20:58	-131.604	47.570	0	204.60	0	6.5460	0	33.8330	0	26.563	0	202.791	0	129.1	4	43.2	4	-1E+10	1	-1E+10	1	-1E+10	1	-1E+10	1	-1E+10	1	-1E+10	1
4902549	65	C	05/28/2022	20:58	-131.604	47.570	0	205.50	0	6.5450	0	33.8360	0	26.565	0	203.682	0	128.8	4	43.1	4	-1E+10	1	-1E+10	1	-1E+10	1	-1E+10	1	-1E+10	1	-1E+10	1
4902549	65	C	05/28/2022	20:58	-131.604	47.570	0	206.50	0	6.5220	0	33.8390	0	26.571	0	204.673	0	128.6	4	43.0	4	-1E+10	1	-1E+10	1	-1E+10	1	-1E+10	1	-1E+10	1	-1E+10	1
4902549	65	C	05/28/2022	20:58	-131.604	47.570	0	207.50	0	6.5040	0	33.8410	0	26.575	0	205.664	0	128.6	4	42.9	4	-1E+10	1	-1E+10	1	-1E+10	1	-1E+10	1	-1E+10	1	-1E+10	1
4902549	65	C	05/28/2022	20:58	-131.604	47.570	0	208.50	0	6.4810	0	33.8400	0	26.577	0	206.654	0	128.6	4	42.9	4	-1E+10	1	-1E+10	1	-1E+10	1	-1E+10	1	-1E+10	1	-1E+10	1
4902549	65	C	05/28/2022	20:58	-131.604	47.570	0	209.50	0	6.4790	0	33.8380	0	26.576	0	207.645	0	128.5	4	42.9	4	-1E+10	1	-1E+10	1	-1E+10	1	-1E+10	1	-1E+10	1	-1E+10	1
4902549	65	C	05/28/2022	20:58	-131.604	47.570	0	210.50	0	6.4390	0	33.8430	0	26.585	0	208.635	0	128.3	4	42.8	4	-1E+10	1	-1E+10	1	-1E+10	1	-1E+10	1	-1E+10	1	-1E+10	1
4902549	65	C	05/28/2022	20:58	-131.604	47.570	0	211.50	0	6.3810	0	33.8350	0	26.586	0	209.626	0	128.1	4	42.7	4	-1E+10	1	-1E+10	1	-1E+10	1	-1E+10	1	-1E+10	1	-1E+10	1
4902549	65	C	05/28/2022	20:58	-131.604	47.570	0	212.60	0	6.3720	0	33.8360	0	26.588	0	210.716	0	127.7	4	42.5	4	-1E+10	1	-1E+10	1	-1E+10	1	-1E+10	1	-1E+10	1	-1E+10	1
4902549	65	C	05/28/2022	20:58	-131.604	47.570	0	213.60	0	6.3650	0	33.8340	0	26.587	0	211.706	0	127.1	4	42.3	4	-1E+10	1	-1E+10	1	-1E+10	1	-1E+10	1	-1E+10	1	-1E+10	1
4902549	65	C	05/28/2022	20:58	-131.604	47.570	0	214.60	0	6.3590	0	33.8340	0	26.588	0	212.697	0	126.5	4	42.1	4	-1E+10	1	-1E+10	1	-1E+10	1	-1E+10	1	-1E+10	1	-1E+10	1
4902549	65	C	05/28/2022	20:58	-131.604	47.570	0	215.60	0	6.3290	0	33.8380	0	26.595	0	213.688	0	125.7	4	41.8	4	-1E+10	1	-1E+10	1	-1E+10	1	-1E+10	1	-1E+10	1	-1E+10	1
4902549	65	C	05/28/2022	20:58	-131.604	47.570	0	216.60	0	6.3040	0	33.8390	0	26.599	0	214.678	0	124.9	4	41.5	4	-1E+10	1	-1E+10	1	-1E+10	1	-1E+10	1	-1E+10	1	-1E+10	1
4902549	65	C	05/28/2022	20:58	-131.604	47.570	0	217.70	0	6.2840	0	33.8360	0	26.599	0	215.768	0	124.0	4	41.2	4	-1E+10	1	-1E+10	1	-1E+10	1	-1E+10	1	-1E+10	1	-1E+10	1
4902549	65	C	05/28/2022	20:58	-131.604	47.570	0	218.70	0	6.2810	0	33.8370	0	26.601	0	216.759	0	123.0	4	40.9	4	-1E+10	1	-1E+10	1	-1E+10	1	-1E+10	1	-1E+10	1	-1E+10	1
4902549	65	C	05/28/2022	20:58	-131.604	47.570	0	219.70	0	6.2760	0	33.8380	0	26.602	0	217.749	0	121.9	4	40.5	4	-1E+10	1	-1E+10	1	-1E+10	1	-1E+10	1	-1E+10	1	-1E+10	1
4902549	65	C	05/28/2022	20:58	-131.604	47.570	0	220.70	0	6.2860	0	33.8430	0	26.605	0	218.740	0	121.0	4	40.2	4	-1E+10	1	-1E+10	1	-1E+10	1	-1E+10	1	-1E+10	1	-1E+10	1
4902549	65	C	05/28/2022	20:58	-131.604	47.570	0	221.60	0	6.2950	0	33.8450	0	26.605	0	219.631	0	120.2	4	40.0	4	-1E+10	1	-1E+10	1	-1E+10	1	-1E+10	1	-1E+10	1	-1E+10	1
4902549	65	C	05/28/2022	20:58	-131.604	47.570	0	222.80	0	6.2720	0	33.8460	0	26.609	0	220.820	0	119.2	4	39.6	4	-1E+10	1	-1E+10	1	-1E+10	1	-1E+10	1	-1E+10	1	-1E+10	1
4902549	65	C	05/28/2022	20:58	-131.604	47.570	0	223.90	0	6.2690	0	33.8490	0	26.612	0	221.910	0	118.2	4	39.3	4	-1E+10	1	-1E+10	1	-1E+10	1	-1E+10	1	-1E+10	1	-1E+10	1
4902549	65	C	05/28/2022	20:58	-131.604	47.570	0	225.10	0	6.2830	0	33.8550	0	26.615	0	223.098	0	117.4	4	39.0	4	-1E+10	1	-1E+10	1	-1E+10	1	-1E+10	1	-1E+10	1	-1E+10	1
4902549	65	C	05/28/2022	20:58	-131.604	47.570	0	225.90	0	6.2870	0	33.8550	0	26.614	0	223.891	0	116.9	4	38.9	4	-1E+10	1	-1E+10	1	-1E+10	1	-1E+10	1	-1E+10	1	-1E+10	1
4902549	65	C	05/28/2022	20:58	-131.604	47.570	0	227.00	0	6.2850	0	33.8570	0	26.616	0	224.980	0	116.3	4	38.7	4	-1E+10	1	-1E+10	1	-1E+10	1	-1E+10	1	-1E+10	1	-1E+10	1
4902549	65	C	05/28/2022	20:58	-131.604	47.570	0	228.20	0	6.2790	0	33.8590	0	26.618	0	226.169	0	115.9	4	38.5	4	-1E+10	1	-1E+10	1	-1E+10	1	-1E+10	1	-1E+10	1	-1E+10	1
4902549	65	C	05/28/2022	20:58	-131.604	47.570	0	229.00	0	6.2710	0	33.8610	0	26.621	0	226.961	0	115.6	4	38.4	4	-1E+10	1	-1E+10	1	-1E+10	1	-1E+10	1	-1E+10	1	-1E+10	1
4902549	65	C	05/28/2022	20:58	-131.604	47.570	0	229.80	0	6.2630	0	33.8620	0	26.623	0	227.754	0	115.5	4	38.4	4	-1E+10	1	-1E+10	1	-1E+10	1	-1E+10	1	-1E+10	1	-1E+10	1
4902549	65	C	05/28/2022	20:58	-131.604	47.570	0	230.60	0	6.2600	0	33.8620	0	26.623	0	228.546	0	115.3	4	38.3	4	-1E+10	1	-1E+10	1	-1E+10	1	-1E+10	1	-1E+10	1	-1E+10	1
4902549	65	C	05/28/2022	20:58	-131.604	47.570	0	231.90	0	6.2490	0	33.8630	0	26.625	0	229.834	0	115.1	4	38.2	4	-1E+10	1	-1E+10	1	-1E+10	1	-1E+10	1	-1E+10	1	-1E+10	1
4902549	65	C	05/28/2022	20:58	-131.604	47.570	0	233.10	0	6.2470	0	33.8630	0	26.626	0	231.023	0	114.9	4	38.2	4	-1E+10	1	-1E+10	1	-1E+10	1	-1E+10	1	-1E+10	1	-1E+10	1
4902549	65	C	05/28/2022	20:58	-131.604	47.570	0	234.00	0	6.2450	0	33.8630	0	26.626	0	231.914	0	114.8	4	38.1	4	-1E+10	1	-1E+10	1	-1E+10	1	-1E+10	1	-1E+10	1	-1E+10	1
4902549	65	C	05/28/2022	20:58	-131.604	47.570	0	234.80	0	6.2430	0	33.8620	0	26.625	0	232.707	0	114.6	4	38.1	4	-1E+10	1	-1E+10	1	-1E+10	1	-1E+10	1	-1E+10	1	-1E+10	1
4902549	65	C	05/28/2022	20:58	-131.604	47.570	0	235.70	0	6.2390	0	33.8630	0	26.627	0	233.598	0	114.5	4	38.0	4	-1E+10	1	-1E+10	1	-1E+10	1	-1E+10	1	-1E+10	1	-1E+10	1
4902549	65	C	05/28/2022	20:58	-131.604	47.570	0	236.90	0	6.2270	0	33.8620	0	26.627	0	234.787	0	114.1	4	37.9	4	-1E+10	1	-1E+10	1	-1E+10	1	-1E+10	1	-1E+10	1	-1E+10	1
4902549	65	C	05/28/2022	20:58	-131.604	47.570	0	238.30	0	6.2150	0	33.8600	0	26.627	0	236.173	0	113.7	4	37.7	4	-1E+10	1	-1E+10	1	-1E+10	1	-1E+10	1	-1E+10	1	-1E+10	1
4902549	65	C	05/28/2022	20:58	-131.604	47.570	0	239.20	0	6.2050	0	33.8600	0	26.629	0	237.065	0	113.3	4	37.6	4	-1E+10	1	-1E+10	1	-1E+10	1	-1E+10	1	-1E+10	1	-1E+10	1
4902549	65	C	05/28/2022	20:58	-131.604	47.570	0	240.10	0	6.1990	0	33.8600	0	26.629	0	237.956	0	112.9	4	37.4	4	-1E+10	1	-1E+10	1	-1E+10	1	-1E+10	1	-1E+10	1	-1E+10	1
4902549	65	C	05/28/2022	20:58	-131.604	47.570	0	240.90	0	6.2010	0	33.8600	0	26.629	0	238.749	0	112.5	4	37.3	4	-1E+10	1	-1E+10	1	-1E+10	1	-1E+10	1	-1E+10	1	-1E+10	1
4902549	65	C	05/28/2022	20:58	-131.604	47.570	0	241.80	0	6.1750	0	33.8650	0	26.636	0	239.640	0	112.2	4	37.2	4	-1E+10	1	-1E+10	1	-1E+10	1	-1E+10	1	-1E+10	1	-1E+10	1
4902549	65	C	05/28/2022	20:58	-131.604	47.570	0	242.80	0	6.1710	0	33.8640	0	26.636	0	240.631	0	112.0	4	37.1	4	-1E+10	1	-1E+10	1	-1E+10	1	-1E+10	1	-1E+10	1	-1E+10	1
4902549	65	C	05/28/2022	20:58	-131.604	47.570	0	243.70	0	6.1570	0	33.8650	0	26.639	0	241.522	0	111.8	4	37.0	4	-1E+10	1	-1E+10	1	-1E+10	1	-1E+10	1	-1E+10	1	-1E+10	1
4902549	65	C	05/28/2022	20:58	-131.604	47.570	0	244.60	0	6.1550	0	33.8670	0	26.641	0	242.413	0	111.5	4	37.0	4	-1E+10	1	-1E+10	1	-1E+10	1	-1E+10	1	-1E+10	1	-1E+10	1
4902549	65	C	05/28/2022	20:58	-131.604	47.570	0	245.90	0	6.1410	0	33.8650	0	26.641	0	243.701	0	111.1	4	36.8	4	-1E+10	1	-1E+10	1	-1E+10	1	-1E+10	1	-1E+10	1	-1E+10	1
4902549	65	C	05/28/2022	20:58	-131.604	47.570	0	247.40	0	6.1330	0	33.8670	0	26.643	0	245.187	0	110.6	4	36.7	4	-1E+10	1	-1E+10	1	-1E+10	1	-1E+10	1	-1E+10	1	-1E+10	1
4902549	65	C	05/28/2022	20:58	-131.604	47.570	0	248.30	0	6.1350	0	33.8650	0	26.642	0	246.078	0	110.3	4	36.5	4	-1E+10	1	-1E+10	1	-1E+10	1	-1E+10	1	-1E+10	1	-1E+10	1
4902549	65	C	05/28/2022	20:58	-131.604	47.570	0	249.20	0	6.1300	0	33.8660	0	26.643	0	246.970	0	110.0	4	36.4	4	-1E+10	1	-1E+10	1	-1E+10	1	-1E+10	1	-1E+10	1	-1E+10	1
4902549	65	C	05/28/2022	20:58	-131.604	47.570	0	250.10	0	6.1290	0	33.8650	0	26.642	0	247.861	0	109.6	4	36.3	4	-1E+10	1	-1E+10	1	-1E+10	1	-1E+10	1	-1E+10	1	-1E+10	1
4902549	65	C	05/28/2022	20:58	-131.604	47.570	0	251.00	0	6.1300	0	33.8650	0	26.642	0	248.752	0	109.2	4	36.2	4	-1E+10	1	-1E+10	1	-1E+10	1	-1E+10	1	-1E+10	1	-1E+10	1
4902549	65	C	05/28/2022	20:58	-131.604	47.570	0	251.90	0	6.1280	0	33.8650	0	26.643	0	249.644	0	108.6	4	36.0	4	-1E+10	1	-1E+10	1	-1E+10	1	-1E+10	1	-1E+10	1	-1E+10	1
4902549	65	C	05/28/2022	20:58	-131.604	47.570	0	252.80	0	6.1280	0	33.8640	0	26.642	0	250.535	0	108.1	4	35.8	4	-1E+10	1	-1E+10	1	-1E+10	1	-1E+10	1	-1E+10	1	-1E+10	1
4902549	65	C	05/28/2022	20:58	-131.604	47.570	0	253.60	0	6.1120	0	33.8580	0	26.639	0	251.328	0	107.5	4	35.6	4	-1E+10	1	-1E+10	1	-1E+10	1	-1E+10	1	-1E+10	1	-1E+10	1
4902549	65	C	05/28/2022	20:58	-131.604	47.570	0	254.50	0	6.0680	0	33.8900	0	26.670	0	252.219	0	106.8	4	35.3	4	-1E+10	1	-1E+10	1	-1E+10	1	-1E+10	1	-1E+10	1	-1E+10	1
4902549	65	C	05/28/2022	20:58	-131.604	47.570	0	255.50	0	6.0710	0	33.8680	0	26.652	0	253.209	0	106.2	4	35.1	4	-1E+10	1	-1E+10	1	-1E+10	1	-1E+10	1	-1E+10	1	-1E+10	1
4902549	65	C	05/28/2022	20:58	-131.604	47.570	0	256.50	0	5.9660	0	33.8640	0	26.662	0	254.200	0	105.8	4	34.9	4	-1E+10	1	-1E+10	1	-1E+10	1	-1E+10	1	-1E+10	1	-1E+10	1
4902549	65	C	05/28/2022	20:58	-131.604	47.570	0	257.50	0	5.9560	0	33.8660	0	26.665	0	255.190	0	105.1	4	34.7	4	-1E+10	1	-1E+10	1	-1E+10	1	-1E+10	1	-1E+10	1	-1E+10	1
4902549	65	C	05/28/2022	20:58	-131.604	47.570	0	258.50	0	5.9500	0	33.8660	0	26.666	0	256.181	0	104.5	4	34.5	4	-1E+10	1	-1E+10	1	-1E+10	1	-1E+10	1	-1E+10	1	-1E+10	1
4902549	65	C	05/28/2022	20:58	-131.604	47.570	0	259.90	0	5.9340	0	33.8670	0	26.669	0	257.567	0	103.4	4	34.1	4	-1E+10	1	-1E+10	1	-1E+10	1	-1E+10	1	-1E+10	1	-1E+10	1
4902549	65	C	05/28/2022	20:58	-131.604	47.570	0	261.40	0	5.9010	0	33.8710	0	26.676	0	259.053	0	102.6	4	33.8	4	-1E+10	1	-1E+10	1	-1E+10	1	-1E+10	1	-1E+10	1	-1E+10	1
4902549	65	C	05/28/2022	20:58	-131.604	47.570	0	262.40	0	5.8940	0	33.8720	0	26.677	0	260.043	0	102.1	4	33.6	4	-1E+10	1	-1E+10	1	-1E+10	1	-1E+10	1	-1E+10	1	-1E+10	1
4902549	65	C	05/28/2022	20:58	-131.604	47.570	0	263.40	0	5.8820	0	33.8750	0	26.681	0	261.034	0	101.6	4	33.5	4	-1E+10	1	-1E+10	1	-1E+10	1	-1E+10	1	-1E+10	1	-1E+10	1
4902549	65	C	05/28/2022	20:58	-131.604	47.570	0	264.40	0	5.8730	0	33.8720	0	26.680	0	262.024	0	101.1	4	33.3	4	-1E+10	1	-1E+10	1	-1E+10	1	-1E+10	1	-1E+10	1	-1E+10	1
4902549	65	C	05/28/2022	20:58	-131.604	47.570	0	265.50	0	5.8600	0	33.8710	0	26.681	0	263.113	0	100.6	4	33.1	4	-1E+10	1	-1E+10	1	-1E+10	1	-1E+10	1	-1E+10	1	-1E+10	1
4902549	65	C	05/28/2022	20:58	-131.604	47.570	0	266.50	0	5.8550	0	33.8730	0	26.683	0	264.104	0	100.1	4	32.9	4	-1E+10	1	-1E+10	1	-1E+10	1	-1E+10	1	-1E+10	1	-1E+10	1
4902549	65	C	05/28/2022	20:58	-131.604	47.570	0	267.60	0	5.8460	0	33.8740	0	26.685	0	265.193	0	99.6	4	32.8	4	-1E+10	1	-1E+10	1	-1E+10	1	-1E+10	1	-1E+10	1	-1E+10	1
4902549	65	C	05/28/2022	20:58	-131.604	47.570	0	268.60	0	5.8380	0	33.8760	0	26.688	0	266.183	0	99.1	4	32.6	4	-1E+10	1	-1E+10	1	-1E+10	1	-1E+10	1	-1E+10	1	-1E+10	1
4902549	65	C	05/28/2022	20:58	-131.604	47.570	0	269.60	0	5.8360	0	33.8760	0	26.688	0	267.174	0	98.6	4	32.4	4	-1E+10	1	-1E+10	1	-1E+10	1	-1E+10	1	-1E+10	1	-1E+10	1
4902549	65	C	05/28/2022	20:58	-131.604	47.570	0	270.60	0	5.8170	0	33.8790	0	26.693	0	268.164	0	98.2	4	32.3	4	-1E+10	1	-1E+10	1	-1E+10	1	-1E+10	1	-1E+10	1	-1E+10	1
4902549	65	C	05/28/2022	20:58	-131.604	47.570	0	271.70	0	5.7880	0	33.8780	0	26.695	0	269.254	0	97.9	4	32.2	4	-1E+10	1	-1E+10	1	-1E+10	1	-1E+10	1	-1E+10	1	-1E+10	1
4902549	65	C	05/28/2022	20:58	-131.604	47.570	0	272.70	0	5.7720	0	33.8800	0	26.699	0	270.244	0	97.7	4	32.1	4	-1E+10	1	-1E+10	1	-1E+10	1	-1E+10	1	-1E+10	1	-1E+10	1
4902549	65	C	05/28/2022	20:58	-131.604	47.570	0	273.80	0	5.7610	0	33.8780	0	26.699	0	271.333	0	97.4	4	32.0	4	-1E+10	1	-1E+10	1	-1E+10	1	-1E+10	1	-1E+10	1	-1E+10	1
4902549	65	C	05/28/2022	20:58	-131.604	47.570	0	274.80	0	5.7450	0	33.8740	0	26.697	0	272.324	0	97.2	4	31.9	4	-1E+10	1	-1E+10	1	-1E+10	1	-1E+10	1	-1E+10	1	-1E+10	1
4902549	65	C	05/28/2022	20:58	-131.604	47.570	0	275.80	0	5.7320	0	33.8790	0	26.703	0	273.314	0	96.9	4	31.8	4	-1E+10	1	-1E+10	1	-1E+10	1	-1E+10	1	-1E+10	1	-1E+10	1
4902549	65	C	05/28/2022	20:58	-131.604	47.570	0	276.90	0	5.7190	0	33.8750	0	26.701	0	274.403	0	96.8	4	31.8	4	-1E+10	1	-1E+10	1	-1E+10	1	-1E+10	1	-1E+10	1	-1E+10	1
4902549	65	C	05/28/2022	20:58	-131.604	47.570	0	277.90	0	5.7140	0	33.8830	0	26.708	0	275.394	0	96.5	4	31.7	4	-1E+10	1	-1E+10	1	-1E+10	1	-1E+10	1	-1E+10	1	-1E+10	1
4902549	65	C	05/28/2022	20:58	-131.604	47.570	0	278.90	0	5.7140	0	33.8840	0	26.709	0	276.384	0	96.3	4	31.6	4	-1E+10	1	-1E+10	1	-1E+10	1	-1E+10	1	-1E+10	1	-1E+10	1
4902549	65	C	05/28/2022	20:58	-131.604	47.570	0	279.90	0	5.7140	0	33.8830	0	26.708	0	277.374	0	96.1	4	31.5	4	-1E+10	1	-1E+10	1	-1E+10	1	-1E+10	1	-1E+10	1	-1E+10	1
4902549	65	C	05/28/2022	20:58	-131.604	47.570	0	280.90	0	5.7130	0	33.8830	0	26.709	0	278.365	0	95.8	4	31.4	4	-1E+10	1	-1E+10	1	-1E+10	1	-1E+10	1	-1E+10	1	-1E+10	1
4902549	65	C	05/28/2022	20:58	-131.604	47.570	0	282.00	0	5.7120	0	33.8830	0	26.709	0	279.454	0	95.5	4	31.3	4	-1E+10	1	-1E+10	1	-1E+10	1	-1E+10	1	-1E+10	1	-1E+10	1
4902549	65	C	05/28/2022	20:58	-131.604	47.570	0	283.00	0	5.7120	0	33.8830	0	26.709	0	280.444	0	95.2	4	31.2	4	-1E+10	1	-1E+10	1	-1E+10	1	-1E+10	1	-1E+10	1	-1E+10	1
4902549	65	C	05/28/2022	20:58	-131.604	47.570	0	284.00	0	5.7120	0	33.8840	0	26.709	0	281.434	0	94.8	4	31.1	4	-1E+10	1	-1E+10	1	-1E+10	1	-1E+10	1	-1E+10	1	-1E+10	1
4902549	65	C	05/28/2022	20:58	-131.604	47.570	0	285.00	0	5.7110	0	33.8840	0	26.710	0	282.425	0	94.3	4	30.9	4	-1E+10	1	-1E+10	1	-1E+10	1	-1E+10	1	-1E+10	1	-1E+10	1
4902549	65	C	05/28/2022	20:58	-131.604	47.570	0	286.00	0	5.7070	0	33.8840	0	26.710	0	283.415	0	93.9	4	30.8	4	-1E+10	1	-1E+10	1	-1E+10	1	-1E+10	1	-1E+10	1	-1E+10	1
4902549	65	C	05/28/2022	20:58	-131.604	47.570	0	287.10	0	5.7070	0	33.8840	0	26.710	0	284.504	0	93.4	4	30.6	4	-1E+10	1	-1E+10	1	-1E+10	1	-1E+10	1	-1E+10	1	-1E+10	1
4902549	65	C	05/28/2022	20:58	-131.604	47.570	0	288.10	0	5.7050	0	33.8840	0	26.710	0	285.495	0	92.9	4	30.5	4	-1E+10	1	-1E+10	1	-1E+10	1	-1E+10	1	-1E+10	1	-1E+10	1
4902549	65	C	05/28/2022	20:58	-131.604	47.570	0	289.10	0	5.6990	0	33.8850	0	26.712	0	286.485	0	92.3	4	30.3	4	-1E+10	1	-1E+10	1	-1E+10	1	-1E+10	1	-1E+10	1	-1E+10	1
4902549	65	C	05/28/2022	20:58	-131.604	47.570	0	290.10	0	5.6940	0	33.8850	0	26.713	0	287.475	0	91.8	4	30.1	4	-1E+10	1	-1E+10	1	-1E+10	1	-1E+10	1	-1E+10	1	-1E+10	1
4902549	65	C	05/28/2022	20:58	-131.604	47.570	0	291.10	0	5.6850	0	33.8840	0	26.713	0	288.465	0	91.1	4	29.9	4	-1E+10	1	-1E+10	1	-1E+10	1	-1E+10	1	-1E+10	1	-1E+10	1
4902549	65	C	05/28/2022	20:58	-131.604	47.570	0	292.10	0	5.6630	0	33.8860	0	26.717	0	289.456	0	90.6	4	29.7	4	-1E+10	1	-1E+10	1	-1E+10	1	-1E+10	1	-1E+10	1	-1E+10	1
4902549	65	C	05/28/2022	20:58	-131.604	47.570	0	293.10	0	5.6450	0	33.8890	0	26.722	0	290.446	0	90.0	4	29.5	4	-1E+10	1	-1E+10	1	-1E+10	1	-1E+10	1	-1E+10	1	-1E+10	1
4902549	65	C	05/28/2022	20:58	-131.604	47.570	0	294.10	0	5.6230	0	33.8870	0	26.723	0	291.436	0	89.5	4	29.3	4	-1E+10	1	-1E+10	1	-1E+10	1	-1E+10	1	-1E+10	1	-1E+10	1
4902549	65	C	05/28/2022	20:58	-131.604	47.570	0	295.10	0	5.5890	0	33.8870	0	26.727	0	292.426	0	89.1	4	29.1	4	-1E+10	1	-1E+10	1	-1E+10	1	-1E+10	1	-1E+10	1	-1E+10	1
4902549	65	C	05/28/2022	20:58	-131.604	47.570	0	296.10	0	5.5790	0	33.8920	0	26.732	0	293.417	0	88.7	4	29.0	4	-1E+10	1	-1E+10	1	-1E+10	1	-1E+10	1	-1E+10	1	-1E+10	1
4902549	65	C	05/28/2022	20:58	-131.604	47.570	0	297.00	0	5.5620	0	33.8940	0	26.736	0	294.308	0	88.5	4	28.9	4	-1E+10	1	-1E+10	1	-1E+10	1	-1E+10	1	-1E+10	1	-1E+10	1
4902549	65	C	05/28/2022	20:58	-131.604	47.570	0	298.00	0	5.5550	0	33.8930	0	26.736	0	295.298	0	88.2	4	28.8	4	-1E+10	1	-1E+10	1	-1E+10	1	-1E+10	1	-1E+10	1	-1E+10	1
4902549	65	C	05/28/2022	20:58	-131.604	47.570	0	299.00	0	5.5490	0	33.8930	0	26.736	0	296.288	0	87.9	4	28.7	4	-1E+10	1	-1E+10	1	-1E+10	1	-1E+10	1	-1E+10	1	-1E+10	1
4902549	65	C	05/28/2022	20:58	-131.604	47.570	0	300.00	0	5.5360	0	33.8940	0	26.739	0	297.278	0	87.6	4	28.6	4	-1E+10	1	-1E+10	1	-1E+10	1	-1E+10	1	-1E+10	1	-1E+10	1
4902549	65	C	05/28/2022	20:58	-131.604	47.570	0	301.00	0	5.5360	0	33.8940	0	26.739	0	298.269	0	87.4	4	28.5	4	-1E+10	1	-1E+10	1	-1E+10	1	-1E+10	1	-1E+10	1	-1E+10	1
4902549	65	C	05/28/2022	20:58	-131.604	47.570	0	302.00	0	5.5300	0	33.8970	0	26.742	0	299.259	0	87.2	4	28.5	4	-1E+10	1	-1E+10	1	-1E+10	1	-1E+10	1	-1E+10	1	-1E+10	1
4902549	65	C	05/28/2022	20:58	-131.604	47.570	0	303.00	0	5.5300	0	33.8970	0	26.742	0	300.249	0	86.9	4	28.4	4	-1E+10	1	-1E+10	1	-1E+10	1	-1E+10	1	-1E+10	1	-1E+10	1
4902549	65	C	05/28/2022	20:58	-131.604	47.570	0	304.00	0	5.5290	0	33.8960	0	26.741	0	301.239	0	86.6	4	28.3	4	-1E+10	1	-1E+10	1	-1E+10	1	-1E+10	1	-1E+10	1	-1E+10	1
4902549	65	C	05/28/2022	20:58	-131.604	47.570	0	304.90	0	5.5290	0	33.8960	0	26.741	0	302.130	0	86.3	4	28.2	4	-1E+10	1	-1E+10	1	-1E+10	1	-1E+10	1	-1E+10	1	-1E+10	1
4902549	65	C	05/28/2022	20:58	-131.604	47.570	0	305.90	0	5.5250	0	33.8970	0	26.743	0	303.121	0	86.0	4	28.1	4	-1E+10	1	-1E+10	1	-1E+10	1	-1E+10	1	-1E+10	1	-1E+10	1
4902549	65	C	05/28/2022	20:58	-131.604	47.570	0	306.90	0	5.5250	0	33.8960	0	26.742	0	304.111	0	85.6	4	28.0	4	-1E+10	1	-1E+10	1	-1E+10	1	-1E+10	1	-1E+10	1	-1E+10	1
4902549	65	C	05/28/2022	20:58	-131.604	47.570	0	307.80	0	5.5240	0	33.8960	0	26.742	0	305.002	0	85.1	4	27.8	4	-1E+10	1	-1E+10	1	-1E+10	1	-1E+10	1	-1E+10	1	-1E+10	1
4902549	65	C	05/28/2022	20:58	-131.604	47.570	0	308.80	0	5.5130	0	33.8980	0	26.745	0	305.992	0	84.7	4	27.6	4	-1E+10	1	-1E+10	1	-1E+10	1	-1E+10	1	-1E+10	1	-1E+10	1
4902549	65	C	05/28/2022	20:58	-131.604	47.570	0	309.80	0	5.5080	0	33.8990	0	26.746	0	306.982	0	84.3	4	27.5	4	-1E+10	1	-1E+10	1	-1E+10	1	-1E+10	1	-1E+10	1	-1E+10	1
4902549	65	C	05/28/2022	20:58	-131.604	47.570	0	310.80	0	5.5030	0	33.9010	0	26.748	0	307.972	0	84.0	4	27.4	4	-1E+10	1	-1E+10	1	-1E+10	1	-1E+10	1	-1E+10	1	-1E+10	1
4902549	65	C	05/28/2022	20:58	-131.604	47.570	0	311.70	0	5.5010	0	33.9010	0	26.749	0	308.864	0	83.7	4	27.3	4	-1E+10	1	-1E+10	1	-1E+10	1	-1E+10	1	-1E+10	1	-1E+10	1
4902549	65	C	05/28/2022	20:58	-131.604	47.570	0	312.70	0	5.4990	0	33.9000	0	26.748	0	309.854	0	83.3	4	27.2	4	-1E+10	1	-1E+10	1	-1E+10	1	-1E+10	1	-1E+10	1	-1E+10	1
4902549	65	C	05/28/2022	20:58	-131.604	47.570	0	313.60	0	5.4970	0	33.9000	0	26.748	0	310.745	0	82.9	4	27.1	4	-1E+10	1	-1E+10	1	-1E+10	1	-1E+10	1	-1E+10	1	-1E+10	1
4902549	65	C	05/28/2022	20:58	-131.604	47.570	0	314.50	0	5.4900	0	33.9040	0	26.752	0	311.636	0	82.5	4	26.9	4	-1E+10	1	-1E+10	1	-1E+10	1	-1E+10	1	-1E+10	1	-1E+10	1
4902549	65	C	05/28/2022	20:58	-131.604	47.570	0	315.90	0	5.4710	0	33.9000	0	26.751	0	313.022	0	81.7	4	26.7	4	-1E+10	1	-1E+10	1	-1E+10	1	-1E+10	1	-1E+10	1	-1E+10	1
4902549	65	C	05/28/2022	20:58	-131.604	47.570	0	317.40	0	5.4510	0	33.9000	0	26.754	0	314.507	0	81.0	4	26.4	4	-1E+10	1	-1E+10	1	-1E+10	1	-1E+10	1	-1E+10	1	-1E+10	1
4902549	65	C	05/28/2022	20:58	-131.604	47.570	0	318.30	0	5.4210	0	33.9010	0	26.758	0	315.398	0	80.5	4	26.2	4	-1E+10	1	-1E+10	1	-1E+10	1	-1E+10	1	-1E+10	1	-1E+10	1
4902549	65	C	05/28/2022	20:58	-131.604	47.570	0	319.20	0	5.4070	0	33.9030	0	26.761	0	316.290	0	80.0	4	26.1	4	-1E+10	1	-1E+10	1	-1E+10	1	-1E+10	1	-1E+10	1	-1E+10	1
4902549	65	C	05/28/2022	20:58	-131.604	47.570	0	320.20	0	5.3600	0	33.9110	0	26.773	0	317.280	0	79.7	4	26.0	4	-1E+10	1	-1E+10	1	-1E+10	1	-1E+10	1	-1E+10	1	-1E+10	1
4902549	65	C	05/28/2022	20:58	-131.604	47.570	0	321.10	0	5.3500	0	33.9070	0	26.771	0	318.171	0	79.6	4	25.9	4	-1E+10	1	-1E+10	1	-1E+10	1	-1E+10	1	-1E+10	1	-1E+10	1
4902549	65	C	05/28/2022	20:58	-131.604	47.570	0	322.00	0	5.3480	0	33.9070	0	26.772	0	319.062	0	79.3	4	25.8	4	-1E+10	1	-1E+10	1	-1E+10	1	-1E+10	1	-1E+10	1	-1E+10	1
4902549	65	C	05/28/2022	20:58	-131.604	47.570	0	323.00	0	5.3470	0	33.9080	0	26.772	0	320.052	0	79.0	4	25.7	4	-1E+10	1	-1E+10	1	-1E+10	1	-1E+10	1	-1E+10	1	-1E+10	1
4902549	65	C	05/28/2022	20:58	-131.604	47.570	0	323.90	0	5.3470	0	33.9070	0	26.772	0	320.943	0	78.7	4	25.6	4	-1E+10	1	-1E+10	1	-1E+10	1	-1E+10	1	-1E+10	1	-1E+10	1
4902549	65	C	05/28/2022	20:58	-131.604	47.570	0	324.90	0	5.3430	0	33.9080	0	26.773	0	321.933	0	78.4	4	25.5	4	-1E+10	1	-1E+10	1	-1E+10	1	-1E+10	1	-1E+10	1	-1E+10	1
4902549	65	C	05/28/2022	20:58	-131.604	47.570	0	325.80	0	5.3420	0	33.9080	0	26.773	0	322.824	0	78.0	4	25.4	4	-1E+10	1	-1E+10	1	-1E+10	1	-1E+10	1	-1E+10	1	-1E+10	1
4902549	65	C	05/28/2022	20:58	-131.604	47.570	0	326.80	0	5.3390	0	33.9080	0	26.773	0	323.814	0	77.6	4	25.2	4	-1E+10	1	-1E+10	1	-1E+10	1	-1E+10	1	-1E+10	1	-1E+10	1
4902549	65	C	05/28/2022	20:58	-131.604	47.570	0	327.70	0	5.3300	0	33.9100	0	26.776	0	324.705	0	77.3	4	25.1	4	-1E+10	1	-1E+10	1	-1E+10	1	-1E+10	1	-1E+10	1	-1E+10	1
4902549	65	C	05/28/2022	20:58	-131.604	47.570	0	328.70	0	5.3240	0	33.9100	0	26.777	0	325.696	0	76.9	4	25.0	4	-1E+10	1	-1E+10	1	-1E+10	1	-1E+10	1	-1E+10	1	-1E+10	1
4902549	65	C	05/28/2022	20:58	-131.604	47.570	0	329.60	0	5.3150	0	33.9100	0	26.778	0	326.587	0	76.6	4	24.9	4	-1E+10	1	-1E+10	1	-1E+10	1	-1E+10	1	-1E+10	1	-1E+10	1
4902549	65	C	05/28/2022	20:58	-131.604	47.570	0	330.50	0	5.3050	0	33.9110	0	26.780	0	327.478	0	76.3	4	24.8	4	-1E+10	1	-1E+10	1	-1E+10	1	-1E+10	1	-1E+10	1	-1E+10	1
4902549	65	C	05/28/2022	20:58	-131.604	47.570	0	331.90	0	5.2920	0	33.9120	0	26.782	0	328.864	0	75.8	4	24.6	4	-1E+10	1	-1E+10	1	-1E+10	1	-1E+10	1	-1E+10	1	-1E+10	1
4902549	65	C	05/28/2022	20:58	-131.604	47.570	0	333.30	0	5.2830	0	33.9130	0	26.784	0	330.250	0	75.3	4	24.5	4	-1E+10	1	-1E+10	1	-1E+10	1	-1E+10	1	-1E+10	1	-1E+10	1
4902549	65	C	05/28/2022	20:58	-131.604	47.570	0	334.30	0	5.2790	0	33.9130	0	26.784	0	331.240	0	75.0	4	24.4	4	-1E+10	1	-1E+10	1	-1E+10	1	-1E+10	1	-1E+10	1	-1E+10	1
4902549	65	C	05/28/2022	20:58	-131.604	47.570	0	335.20	0	5.2670	0	33.9140	0	26.787	0	332.131	0	74.6	4	24.2	4	-1E+10	1	-1E+10	1	-1E+10	1	-1E+10	1	-1E+10	1	-1E+10	1
4902549	65	C	05/28/2022	20:58	-131.604	47.570	0	336.10	0	5.2600	0	33.9150	0	26.788	0	333.022	0	74.3	4	24.1	4	-1E+10	1	-1E+10	1	-1E+10	1	-1E+10	1	-1E+10	1	-1E+10	1
4902549	65	C	05/28/2022	20:58	-131.604	47.570	0	337.10	0	5.2530	0	33.9140	0	26.788	0	334.012	0	74.0	4	24.0	4	-1E+10	1	-1E+10	1	-1E+10	1	-1E+10	1	-1E+10	1	-1E+10	1
4902549	65	C	05/28/2022	20:58	-131.604	47.570	0	338.00	0	5.2510	0	33.9150	0	26.789	0	334.903	0	73.6	4	23.9	4	-1E+10	1	-1E+10	1	-1E+10	1	-1E+10	1	-1E+10	1	-1E+10	1
4902549	65	C	05/28/2022	20:58	-131.604	47.570	0	339.00	0	5.2370	0	33.9170	0	26.793	0	335.893	0	73.3	4	23.8	4	-1E+10	1	-1E+10	1	-1E+10	1	-1E+10	1	-1E+10	1	-1E+10	1
4902549	65	C	05/28/2022	20:58	-131.604	47.570	0	339.90	0	5.2070	0	33.9170	0	26.796	0	336.784	0	73.1	4	23.7	4	-1E+10	1	-1E+10	1	-1E+10	1	-1E+10	1	-1E+10	1	-1E+10	1
4902549	65	C	05/28/2022	20:58	-131.604	47.570	0	340.90	0	5.2020	0	33.9170	0	26.797	0	337.774	0	72.8	4	23.6	4	-1E+10	1	-1E+10	1	-1E+10	1	-1E+10	1	-1E+10	1	-1E+10	1
4902549	65	C	05/28/2022	20:58	-131.604	47.570	0	341.90	0	5.1820	0	33.9190	0	26.801	0	338.764	0	72.6	4	23.5	4	-1E+10	1	-1E+10	1	-1E+10	1	-1E+10	1	-1E+10	1	-1E+10	1
4902549	65	C	05/28/2022	20:58	-131.604	47.570	0	342.80	0	5.1740	0	33.9190	0	26.801	0	339.655	0	72.4	4	23.4	4	-1E+10	1	-1E+10	1	-1E+10	1	-1E+10	1	-1E+10	1	-1E+10	1
4902549	65	C	05/28/2022	20:58	-131.604	47.570	0	343.80	0	5.1640	0	33.9190	0	26.803	0	340.645	0	72.1	4	23.4	4	-1E+10	1	-1E+10	1	-1E+10	1	-1E+10	1	-1E+10	1	-1E+10	1
4902549	65	C	05/28/2022	20:58	-131.604	47.570	0	344.80	0	5.1620	0	33.9190	0	26.803	0	341.635	0	71.9	4	23.3	4	-1E+10	1	-1E+10	1	-1E+10	1	-1E+10	1	-1E+10	1	-1E+10	1
4902549	65	C	05/28/2022	20:58	-131.604	47.570	0	345.70	0	5.1610	0	33.9190	0	26.803	0	342.526	0	71.5	4	23.2	4	-1E+10	1	-1E+10	1	-1E+10	1	-1E+10	1	-1E+10	1	-1E+10	1
4902549	65	C	05/28/2022	20:58	-131.604	47.570	0	346.70	0	5.1610	0	33.9190	0	26.803	0	343.516	0	71.1	4	23.0	4	-1E+10	1	-1E+10	1	-1E+10	1	-1E+10	1	-1E+10	1	-1E+10	1
4902549	65	C	05/28/2022	20:58	-131.604	47.570	0	347.70	0	5.1610	0	33.9180	0	26.802	0	344.506	0	70.7	4	22.9	4	-1E+10	1	-1E+10	1	-1E+10	1	-1E+10	1	-1E+10	1	-1E+10	1
4902549	65	C	05/28/2022	20:58	-131.604	47.570	0	348.60	0	5.1600	0	33.9190	0	26.803	0	345.397	0	70.2	4	22.8	4	-1E+10	1	-1E+10	1	-1E+10	1	-1E+10	1	-1E+10	1	-1E+10	1
4902549	65	C	05/28/2022	20:58	-131.604	47.570	0	349.60	0	5.1560	0	33.9190	0	26.804	0	346.387	0	69.8	4	22.6	4	-1E+10	1	-1E+10	1	-1E+10	1	-1E+10	1	-1E+10	1	-1E+10	1
4902549	65	C	05/28/2022	20:58	-131.604	47.570	0	352.90	0	5.1290	0	33.9230	0	26.810	0	349.654	0	68.3	4	22.1	4	-1E+10	1	-1E+10	1	-1E+10	1	-1E+10	1	-1E+10	1	-1E+10	1
4902549	65	C	05/28/2022	20:58	-131.604	47.570	0	358.30	0	5.0600	0	33.9260	0	26.820	0	355.000	0	66.4	4	21.5	4	-1E+10	1	-1E+10	1	-1E+10	1	-1E+10	1	-1E+10	1	-1E+10	1
4902549	65	C	05/28/2022	20:58	-131.604	47.570	0	363.10	0	4.9910	0	33.9270	0	26.829	0	359.751	0	63.9	4	20.6	4	-1E+10	1	-1E+10	1	-1E+10	1	-1E+10	1	-1E+10	1	-1E+10	1
4902549	65	C	05/28/2022	20:58	-131.604	47.570	0	368.00	0	4.9560	0	33.9360	0	26.840	0	364.602	0	60.8	4	19.6	4	-1E+10	1	-1E+10	1	-1E+10	1	-1E+10	1	-1E+10	1	-1E+10	1
4902549	65	C	05/28/2022	20:58	-131.604	47.570	0	373.00	0	4.9780	0	33.9510	0	26.850	0	369.551	0	57.9	4	18.7	4	-1E+10	1	-1E+10	1	-1E+10	1	-1E+10	1	-1E+10	1	-1E+10	1
4902549	65	C	05/28/2022	20:58	-131.604	47.570	0	377.90	0	5.0040	0	33.9610	0	26.855	0	374.401	0	56.8	4	18.3	4	-1E+10	1	-1E+10	1	-1E+10	1	-1E+10	1	-1E+10	1	-1E+10	1
4902549	65	C	05/28/2022	20:58	-131.604	47.570	0	382.90	0	4.9390	0	33.9610	0	26.862	0	379.351	0	56.0	4	18.0	4	-1E+10	1	-1E+10	1	-1E+10	1	-1E+10	1	-1E+10	1	-1E+10	1
4902549	65	C	05/28/2022	20:58	-131.604	47.570	0	388.00	0	4.9140	0	33.9600	0	26.864	0	384.399	0	54.1	4	17.4	4	-1E+10	1	-1E+10	1	-1E+10	1	-1E+10	1	-1E+10	1	-1E+10	1
4902549	65	C	05/28/2022	20:58	-131.604	47.570	0	393.00	0	4.9200	0	33.9700	0	26.871	0	389.347	0	51.6	4	16.6	4	-1E+10	1	-1E+10	1	-1E+10	1	-1E+10	1	-1E+10	1	-1E+10	1
4902549	65	C	05/28/2022	20:58	-131.604	47.570	0	398.10	0	4.9350	0	33.9780	0	26.876	0	394.395	0	49.6	4	16.0	4	-1E+10	1	-1E+10	1	-1E+10	1	-1E+10	1	-1E+10	1	-1E+10	1
4902549	65	C	05/28/2022	20:58	-131.604	47.570	0	403.30	0	4.9350	0	33.9880	0	26.884	0	399.542	0	48.1	4	15.5	4	-1E+10	1	-1E+10	1	-1E+10	1	-1E+10	1	-1E+10	1	-1E+10	1
4902549	65	C	05/28/2022	20:58	-131.604	47.570	0	408.00	0	4.9030	0	33.9940	0	26.892	0	404.193	0	47.3	4	15.2	4	-1E+10	1	-1E+10	1	-1E+10	1	-1E+10	1	-1E+10	1	-1E+10	1
4902549	65	C	05/28/2022	20:58	-131.604	47.570	0	412.60	0	4.8630	0	33.9940	0	26.897	0	408.746	0	46.7	4	15.0	4	-1E+10	1	-1E+10	1	-1E+10	1	-1E+10	1	-1E+10	1	-1E+10	1
4902549	65	C	05/28/2022	20:58	-131.604	47.570	0	417.70	0	4.8060	0	33.9950	0	26.904	0	413.793	0	45.5	4	14.6	4	-1E+10	1	-1E+10	1	-1E+10	1	-1E+10	1	-1E+10	1	-1E+10	1
4902549	65	C	05/28/2022	20:58	-131.604	47.570	0	423.00	0	4.7320	0	34.0020	0	26.918	0	419.038	0	44.2	4	14.2	4	-1E+10	1	-1E+10	1	-1E+10	1	-1E+10	1	-1E+10	1	-1E+10	1
4902549	65	C	05/28/2022	20:58	-131.604	47.570	0	428.20	0	4.7320	0	34.0060	0	26.921	0	424.184	0	43.0	4	13.8	4	-1E+10	1	-1E+10	1	-1E+10	1	-1E+10	1	-1E+10	1	-1E+10	1
4902549	65	C	05/28/2022	20:58	-131.604	47.570	0	433.00	0	4.7140	0	34.0110	0	26.927	0	428.934	0	41.8	4	13.4	4	-1E+10	1	-1E+10	1	-1E+10	1	-1E+10	1	-1E+10	1	-1E+10	1
4902549	65	C	05/28/2022	20:58	-131.604	47.570	0	437.80	0	4.6810	0	34.0160	0	26.935	0	433.684	0	41.2	4	13.2	4	-1E+10	1	-1E+10	1	-1E+10	1	-1E+10	1	-1E+10	1	-1E+10	1
4902549	65	C	05/28/2022	20:58	-131.604	47.570	0	442.70	0	4.6530	0	34.0180	0	26.939	0	438.533	0	40.5	4	13.0	4	-1E+10	1	-1E+10	1	-1E+10	1	-1E+10	1	-1E+10	1	-1E+10	1
4902549	65	C	05/28/2022	20:58	-131.604	47.570	0	447.90	0	4.6340	0	34.0200	0	26.943	0	443.679	0	39.5	4	12.7	4	-1E+10	1	-1E+10	1	-1E+10	1	-1E+10	1	-1E+10	1	-1E+10	1
4902549	65	C	05/28/2022	20:58	-131.604	47.570	0	453.20	0	4.6390	0	34.0240	0	26.946	0	448.923	0	38.3	4	12.3	4	-1E+10	1	-1E+10	1	-1E+10	1	-1E+10	1	-1E+10	1	-1E+10	1
4902549	65	C	05/28/2022	20:58	-131.604	47.570	0	458.10	0	4.6410	0	34.0300	0	26.950	0	453.771	0	37.4	4	12.0	4	-1E+10	1	-1E+10	1	-1E+10	1	-1E+10	1	-1E+10	1	-1E+10	1
4902549	65	C	05/28/2022	20:58	-131.604	47.570	0	463.10	0	4.6120	0	34.0330	0	26.956	0	458.718	0	36.6	4	11.7	4	-1E+10	1	-1E+10	1	-1E+10	1	-1E+10	1	-1E+10	1	-1E+10	1
4902549	65	C	05/28/2022	20:58	-131.604	47.570	0	468.10	0	4.5860	0	34.0360	0	26.961	0	463.666	0	35.6	4	11.4	4	-1E+10	1	-1E+10	1	-1E+10	1	-1E+10	1	-1E+10	1	-1E+10	1
4902549	65	C	05/28/2022	20:58	-131.604	47.570	0	472.80	0	4.5720	0	34.0400	0	26.966	0	468.316	0	34.5	4	11.0	4	-1E+10	1	-1E+10	1	-1E+10	1	-1E+10	1	-1E+10	1	-1E+10	1
4902549	65	C	05/28/2022	20:58	-131.604	47.570	0	478.00	0	4.5640	0	34.0450	0	26.971	0	473.461	0	33.2	4	10.6	4	-1E+10	1	-1E+10	1	-1E+10	1	-1E+10	1	-1E+10	1	-1E+10	1
4902549	65	C	05/28/2022	20:58	-131.604	47.570	0	483.30	0	4.5390	0	34.0500	0	26.978	0	478.704	0	32.0	4	10.2	4	-1E+10	1	-1E+10	1	-1E+10	1	-1E+10	1	-1E+10	1	-1E+10	1
4902549	65	C	05/28/2022	20:58	-131.604	47.570	0	488.10	0	4.5140	0	34.0550	0	26.984	0	483.453	0	30.8	4	9.8	4	-1E+10	1	-1E+10	1	-1E+10	1	-1E+10	1	-1E+10	1	-1E+10	1
4902549	65	C	05/28/2022	20:58	-131.604	47.570	0	492.90	0	4.4920	0	34.0630	0	26.993	0	488.202	0	29.7	4	9.5	4	-1E+10	1	-1E+10	1	-1E+10	1	-1E+10	1	-1E+10	1	-1E+10	1
4902549	65	C	05/28/2022	20:58	-131.604	47.570	0	497.80	0	4.4690	0	34.0680	0	27.000	0	493.049	0	29.0	4	9.3	4	-1E+10	1	-1E+10	1	-1E+10	1	-1E+10	1	-1E+10	1	-1E+10	1
4902549	65	C	05/28/2022	20:58	-131.604	47.570	0	502.70	0	4.4580	0	34.0700	0	27.002	0	497.896	0	28.2	4	9.0	4	-1E+10	1	-1E+10	1	-1E+10	1	-1E+10	1	-1E+10	1	-1E+10	1
4902549	65	C	05/28/2022	20:58	-131.604	47.570	0	507.60	0	4.4610	0	34.0750	0	27.006	0	502.744	0	27.2	4	8.7	4	-1E+10	1	-1E+10	1	-1E+10	1	-1E+10	1	-1E+10	1	-1E+10	1
4902549	65	C	05/28/2022	20:58	-131.604	47.570	0	512.90	0	4.4540	0	34.0800	0	27.011	0	507.986	0	26.3	4	8.4	4	-1E+10	1	-1E+10	1	-1E+10	1	-1E+10	1	-1E+10	1	-1E+10	1
4902549	65	C	05/28/2022	20:58	-131.604	47.570	0	518.10	0	4.4450	0	34.0840	0	27.015	0	513.130	0	25.5	4	8.1	4	-1E+10	1	-1E+10	1	-1E+10	1	-1E+10	1	-1E+10	1	-1E+10	1
4902549	65	C	05/28/2022	20:58	-131.604	47.570	0	522.70	0	4.4410	0	34.0880	0	27.019	0	517.680	0	24.5	4	7.8	4	-1E+10	1	-1E+10	1	-1E+10	1	-1E+10	1	-1E+10	1	-1E+10	1
4902549	65	C	05/28/2022	20:58	-131.604	47.570	0	527.80	0	4.4420	0	34.0940	0	27.023	0	522.725	0	23.5	4	7.5	4	-1E+10	1	-1E+10	1	-1E+10	1	-1E+10	1	-1E+10	1	-1E+10	1
4902549	65	C	05/28/2022	20:58	-131.604	47.570	0	533.00	0	4.4450	0	34.1010	0	27.029	0	527.868	0	22.8	4	7.3	4	-1E+10	1	-1E+10	1	-1E+10	1	-1E+10	1	-1E+10	1	-1E+10	1
4902549	65	C	05/28/2022	20:58	-131.604	47.570	0	538.10	0	4.4410	0	34.1020	0	27.030	0	532.913	0	22.2	4	7.1	4	-1E+10	1	-1E+10	1	-1E+10	1	-1E+10	1	-1E+10	1	-1E+10	1
4902549	65	C	05/28/2022	20:58	-131.604	47.570	0	543.10	0	4.4270	0	34.1060	0	27.035	0	537.858	0	21.5	4	6.9	4	-1E+10	1	-1E+10	1	-1E+10	1	-1E+10	1	-1E+10	1	-1E+10	1
4902549	65	C	05/28/2022	20:58	-131.604	47.570	0	547.80	0	4.3930	0	34.1100	0	27.041	0	542.507	0	21.0	4	6.7	4	-1E+10	1	-1E+10	1	-1E+10	1	-1E+10	1	-1E+10	1	-1E+10	1
4902549	65	C	05/28/2022	20:58	-131.604	47.570	0	553.00	0	4.3550	0	34.1130	0	27.048	0	547.649	0	20.4	4	6.5	4	-1E+10	1	-1E+10	1	-1E+10	1	-1E+10	1	-1E+10	1	-1E+10	1
4902549	65	C	05/28/2022	20:58	-131.604	47.570	0	557.90	0	4.3450	0	34.1160	0	27.051	0	552.496	0	20.0	4	6.4	4	-1E+10	1	-1E+10	1	-1E+10	1	-1E+10	1	-1E+10	1	-1E+10	1
4902549	65	C	05/28/2022	20:58	-131.604	47.570	0	562.90	0	4.3220	0	34.1190	0	27.056	0	557.440	0	19.6	4	6.2	4	-1E+10	1	-1E+10	1	-1E+10	1	-1E+10	1	-1E+10	1	-1E+10	1
4902549	65	C	05/28/2022	20:58	-131.604	47.570	0	567.90	0	4.3050	0	34.1220	0	27.060	0	562.385	0	19.1	4	6.1	4	-1E+10	1	-1E+10	1	-1E+10	1	-1E+10	1	-1E+10	1	-1E+10	1
4902549	65	C	05/28/2022	20:58	-131.604	47.570	0	573.00	0	4.2990	0	34.1250	0	27.063	0	567.429	0	18.9	4	6.0	4	-1E+10	1	-1E+10	1	-1E+10	1	-1E+10	1	-1E+10	1	-1E+10	1
4902549	65	C	05/28/2022	20:58	-131.604	47.570	0	578.10	0	4.2720	0	34.1260	0	27.067	0	572.472	0	18.8	4	6.0	4	-1E+10	1	-1E+10	1	-1E+10	1	-1E+10	1	-1E+10	1	-1E+10	1
4902549	65	C	05/28/2022	20:58	-131.604	47.570	0	582.80	0	4.2500	0	34.1280	0	27.071	0	577.120	0	18.6	4	5.9	4	-1E+10	1	-1E+10	1	-1E+10	1	-1E+10	1	-1E+10	1	-1E+10	1
4902549	65	C	05/28/2022	20:58	-131.604	47.570	0	587.90	0	4.2080	0	34.1300	0	27.077	0	582.163	0	18.3	4	5.8	4	-1E+10	1	-1E+10	1	-1E+10	1	-1E+10	1	-1E+10	1	-1E+10	1
4902549	65	C	05/28/2022	20:58	-131.604	47.570	0	593.10	0	4.1990	0	34.1310	0	27.079	0	587.305	0	17.9	4	5.7	4	-1E+10	1	-1E+10	1	-1E+10	1	-1E+10	1	-1E+10	1	-1E+10	1
4902549	65	C	05/28/2022	20:58	-131.604	47.570	0	597.80	0	4.1940	0	34.1340	0	27.082	0	591.952	0	17.5	4	5.6	4	-1E+10	1	-1E+10	1	-1E+10	1	-1E+10	1	-1E+10	1	-1E+10	1
4902549	65	C	05/28/2022	20:58	-131.604	47.570	0	602.50	0	4.1700	0	34.1370	0	27.087	0	596.600	0	17.0	4	5.4	4	-1E+10	1	-1E+10	1	-1E+10	1	-1E+10	1	-1E+10	1	-1E+10	1
4902549	65	C	05/28/2022	20:58	-131.604	47.570	0	607.90	0	4.1570	0	34.1420	0	27.092	0	601.939	0	16.3	4	5.2	4	-1E+10	1	-1E+10	1	-1E+10	1	-1E+10	1	-1E+10	1	-1E+10	1
4902549	65	C	05/28/2022	20:58	-131.604	47.570	0	613.20	0	4.1320	0	34.1480	0	27.100	0	607.179	0	15.6	4	4.9	4	-1E+10	1	-1E+10	1	-1E+10	1	-1E+10	1	-1E+10	1	-1E+10	1
4902549	65	C	05/28/2022	20:58	-131.604	47.570	0	618.10	0	4.1220	0	34.1520	0	27.104	0	612.024	0	14.8	4	4.7	4	-1E+10	1	-1E+10	1	-1E+10	1	-1E+10	1	-1E+10	1	-1E+10	1
4902549	65	C	05/28/2022	20:58	-131.604	47.570	0	623.20	0	4.1250	0	34.1600	0	27.110	0	617.066	0	13.9	4	4.4	4	-1E+10	1	-1E+10	1	-1E+10	1	-1E+10	1	-1E+10	1	-1E+10	1
4902549	65	C	05/28/2022	20:58	-131.604	47.570	0	628.20	0	4.1350	0	34.1700	0	27.117	0	622.010	0	13.4	4	4.2	4	-1E+10	1	-1E+10	1	-1E+10	1	-1E+10	1	-1E+10	1	-1E+10	1
4902549	65	C	05/28/2022	20:58	-131.604	47.570	0	633.20	0	4.1320	0	34.1710	0	27.118	0	626.953	0	12.8	4	4.0	4	-1E+10	1	-1E+10	1	-1E+10	1	-1E+10	1	-1E+10	1	-1E+10	1
4902549	65	C	05/28/2022	20:58	-131.604	47.570	0	638.10	0	4.1250	0	34.1790	0	27.125	0	631.797	0	12.2	4	3.9	4	-1E+10	1	-1E+10	1	-1E+10	1	-1E+10	1	-1E+10	1	-1E+10	1
4902549	65	C	05/28/2022	20:58	-131.604	47.570	0	643.00	0	4.1290	0	34.1870	0	27.131	0	636.641	0	11.8	4	3.7	4	-1E+10	1	-1E+10	1	-1E+10	1	-1E+10	1	-1E+10	1	-1E+10	1
4902549	65	C	05/28/2022	20:58	-131.604	47.570	0	648.00	0	4.1030	0	34.1920	0	27.138	0	641.584	0	11.4	4	3.6	4	-1E+10	1	-1E+10	1	-1E+10	1	-1E+10	1	-1E+10	1	-1E+10	1
4902549	65	C	05/28/2022	20:58	-131.604	47.570	0	653.10	0	4.1010	0	34.1960	0	27.141	0	646.626	0	11.1	4	3.5	4	-1E+10	1	-1E+10	1	-1E+10	1	-1E+10	1	-1E+10	1	-1E+10	1
4902549	65	C	05/28/2022	20:58	-131.604	47.570	0	657.90	0	4.0820	0	34.1990	0	27.146	0	651.371	0	10.6	4	3.4	4	-1E+10	1	-1E+10	1	-1E+10	1	-1E+10	1	-1E+10	1	-1E+10	1
4902549	65	C	05/28/2022	20:58	-131.604	47.570	0	662.90	0	4.0900	0	34.2050	0	27.150	0	656.313	0	10.2	4	3.2	4	-1E+10	1	-1E+10	1	-1E+10	1	-1E+10	1	-1E+10	1	-1E+10	1
4902549	65	C	05/28/2022	20:58	-131.604	47.570	0	667.80	0	4.0790	0	34.2080	0	27.153	0	661.157	0	10.0	4	3.2	4	-1E+10	1	-1E+10	1	-1E+10	1	-1E+10	1	-1E+10	1	-1E+10	1
4902549	65	C	05/28/2022	20:58	-131.604	47.570	0	673.00	0	4.0660	0	34.2130	0	27.158	0	666.296	0	9.8	4	3.1	4	-1E+10	1	-1E+10	1	-1E+10	1	-1E+10	1	-1E+10	1	-1E+10	1
4902549	65	C	05/28/2022	20:58	-131.604	47.570	0	678.10	0	4.0500	0	34.2160	0	27.163	0	671.337	0	9.7	4	3.1	4	-1E+10	1	-1E+10	1	-1E+10	1	-1E+10	1	-1E+10	1	-1E+10	1
4902549	65	C	05/28/2022	20:58	-131.604	47.570	0	683.00	0	4.0380	0	34.2180	0	27.165	0	676.181	0	9.7	4	3.1	4	-1E+10	1	-1E+10	1	-1E+10	1	-1E+10	1	-1E+10	1	-1E+10	1
4902549	65	C	05/28/2022	20:58	-131.604	47.570	0	687.90	0	4.0300	0	34.2190	0	27.167	0	681.024	0	9.6	4	3.0	4	-1E+10	1	-1E+10	1	-1E+10	1	-1E+10	1	-1E+10	1	-1E+10	1
4902549	65	C	05/28/2022	20:58	-131.604	47.570	0	693.00	0	4.0190	0	34.2190	0	27.168	0	686.064	0	9.5	4	3.0	4	-1E+10	1	-1E+10	1	-1E+10	1	-1E+10	1	-1E+10	1	-1E+10	1
4902549	65	C	05/28/2022	20:58	-131.604	47.570	0	697.80	0	4.0130	0	34.2220	0	27.171	0	690.808	0	9.4	4	3.0	4	-1E+10	1	-1E+10	1	-1E+10	1	-1E+10	1	-1E+10	1	-1E+10	1
4902549	65	C	05/28/2022	20:58	-131.604	47.570	0	702.70	0	4.0070	0	34.2250	0	27.174	0	695.651	0	9.3	4	3.0	4	-1E+10	1	-1E+10	1	-1E+10	1	-1E+10	1	-1E+10	1	-1E+10	1
4902549	65	C	05/28/2022	20:58	-131.604	47.570	0	707.70	0	3.9930	0	34.2270	0	27.177	0	700.593	0	9.5	4	3.0	4	-1E+10	1	-1E+10	1	-1E+10	1	-1E+10	1	-1E+10	1	-1E+10	1
4902549	65	C	05/28/2022	20:58	-131.604	47.570	0	712.80	0	3.9630	0	34.2280	0	27.181	0	705.633	0	9.7	4	3.0	4	-1E+10	1	-1E+10	1	-1E+10	1	-1E+10	1	-1E+10	1	-1E+10	1
4902549	65	C	05/28/2022	20:58	-131.604	47.570	0	717.90	0	3.9240	0	34.2270	0	27.184	0	710.673	0	9.8	4	3.1	4	-1E+10	1	-1E+10	1	-1E+10	1	-1E+10	1	-1E+10	1	-1E+10	1
4902549	65	C	05/28/2022	20:58	-131.604	47.570	0	723.10	0	3.9160	0	34.2300	0	27.188	0	715.811	0	9.8	4	3.1	4	-1E+10	1	-1E+10	1	-1E+10	1	-1E+10	1	-1E+10	1	-1E+10	1
4902549	65	C	05/28/2022	20:58	-131.604	47.570	0	728.20	0	3.8790	0	34.2290	0	27.191	0	720.851	0	10.2	4	3.2	4	-1E+10	1	-1E+10	1	-1E+10	1	-1E+10	1	-1E+10	1	-1E+10	1
4902549	65	C	05/28/2022	20:58	-131.604	47.570	0	732.90	0	3.8440	0	34.2260	0	27.192	0	725.496	0	10.1	4	3.2	4	-1E+10	1	-1E+10	1	-1E+10	1	-1E+10	1	-1E+10	1	-1E+10	1
4902549	65	C	05/28/2022	20:58	-131.604	47.570	0	737.50	0	3.8360	0	34.2300	0	27.196	0	730.041	0	10.0	4	3.1	4	-1E+10	1	-1E+10	1	-1E+10	1	-1E+10	1	-1E+10	1	-1E+10	1
4902549	65	C	05/28/2022	20:58	-131.604	47.570	0	742.60	0	3.8200	0	34.2320	0	27.199	0	735.081	0	10.0	4	3.2	4	-1E+10	1	-1E+10	1	-1E+10	1	-1E+10	1	-1E+10	1	-1E+10	1
4902549	65	C	05/28/2022	20:58	-131.604	47.570	0	747.60	0	3.7810	0	34.2330	0	27.204	0	740.021	0	10.0	4	3.1	4	-1E+10	1	-1E+10	1	-1E+10	1	-1E+10	1	-1E+10	1	-1E+10	1
4902549	65	C	05/28/2022	20:58	-131.604	47.570	0	752.80	0	3.7720	0	34.2330	0	27.205	0	745.159	0	9.8	4	3.1	4	-1E+10	1	-1E+10	1	-1E+10	1	-1E+10	1	-1E+10	1	-1E+10	1
4902549	65	C	05/28/2022	20:58	-131.604	47.570	0	757.80	0	3.7740	0	34.2350	0	27.206	0	750.099	0	9.5	4	3.0	4	-1E+10	1	-1E+10	1	-1E+10	1	-1E+10	1	-1E+10	1	-1E+10	1
4902549	65	C	05/28/2022	20:58	-131.604	47.570	0	762.90	0	3.7770	0	34.2400	0	27.210	0	755.138	0	9.3	4	2.9	4	-1E+10	1	-1E+10	1	-1E+10	1	-1E+10	1	-1E+10	1	-1E+10	1
4902549	65	C	05/28/2022	20:58	-131.604	47.570	0	767.90	0	3.7690	0	34.2450	0	27.215	0	760.078	0	9.2	4	2.9	4	-1E+10	1	-1E+10	1	-1E+10	1	-1E+10	1	-1E+10	1	-1E+10	1
4902549	65	C	05/28/2022	20:58	-131.604	47.570	0	772.80	0	3.7430	0	34.2470	0	27.219	0	764.919	0	9.0	4	2.8	4	-1E+10	1	-1E+10	1	-1E+10	1	-1E+10	1	-1E+10	1	-1E+10	1
4902549	65	C	05/28/2022	20:58	-131.604	47.570	0	777.70	0	3.7460	0	34.2520	0	27.223	0	769.760	0	9.0	4	2.8	4	-1E+10	1	-1E+10	1	-1E+10	1	-1E+10	1	-1E+10	1	-1E+10	1
4902549	65	C	05/28/2022	20:58	-131.604	47.570	0	782.70	0	3.7050	0	34.2520	0	27.227	0	774.700	0	9.2	4	2.9	4	-1E+10	1	-1E+10	1	-1E+10	1	-1E+10	1	-1E+10	1	-1E+10	1
4902549	65	C	05/28/2022	20:58	-131.604	47.570	0	787.60	0	3.6690	0	34.2520	0	27.230	0	779.541	0	9.1	4	2.9	4	-1E+10	1	-1E+10	1	-1E+10	1	-1E+10	1	-1E+10	1	-1E+10	1
4902549	65	C	05/28/2022	20:58	-131.604	47.570	0	792.90	0	3.6560	0	34.2520	0	27.231	0	784.777	0	9.1	4	2.8	4	-1E+10	1	-1E+10	1	-1E+10	1	-1E+10	1	-1E+10	1	-1E+10	1
4902549	65	C	05/28/2022	20:58	-131.604	47.570	0	798.20	0	3.6430	0	34.2540	0	27.234	0	790.012	0	8.8	4	2.8	4	-1E+10	1	-1E+10	1	-1E+10	1	-1E+10	1	-1E+10	1	-1E+10	1
4902549	65	C	05/28/2022	20:58	-131.604	47.570	0	803.00	0	3.6400	0	34.2560	0	27.236	0	794.754	0	8.6	4	2.7	4	-1E+10	1	-1E+10	1	-1E+10	1	-1E+10	1	-1E+10	1	-1E+10	1
4902549	65	C	05/28/2022	20:58	-131.604	47.570	0	807.70	0	3.6540	0	34.2600	0	27.238	0	799.397	0	8.3	4	2.6	4	-1E+10	1	-1E+10	1	-1E+10	1	-1E+10	1	-1E+10	1	-1E+10	1
4902549	65	C	05/28/2022	20:58	-131.604	47.570	0	813.00	0	3.6570	0	34.2670	0	27.243	0	804.632	0	8.1	4	2.5	4	-1E+10	1	-1E+10	1	-1E+10	1	-1E+10	1	-1E+10	1	-1E+10	1
4902549	65	C	05/28/2022	20:58	-131.604	47.570	0	818.20	0	3.6290	0	34.2710	0	27.249	0	809.769	0	8.1	4	2.5	4	-1E+10	1	-1E+10	1	-1E+10	1	-1E+10	1	-1E+10	1	-1E+10	1
4902549	65	C	05/28/2022	20:58	-131.604	47.570	0	822.80	0	3.6120	0	34.2730	0	27.253	0	814.312	0	8.1	4	2.5	4	-1E+10	1	-1E+10	1	-1E+10	1	-1E+10	1	-1E+10	1	-1E+10	1
4902549	65	C	05/28/2022	20:58	-131.604	47.570	0	827.80	0	3.5920	0	34.2740	0	27.255	0	819.251	0	8.1	4	2.5	4	-1E+10	1	-1E+10	1	-1E+10	1	-1E+10	1	-1E+10	1	-1E+10	1
4902549	65	C	05/28/2022	20:58	-131.604	47.570	0	832.90	0	3.5650	0	34.2760	0	27.260	0	824.288	0	8.1	4	2.5	4	-1E+10	1	-1E+10	1	-1E+10	1	-1E+10	1	-1E+10	1	-1E+10	1
4902549	65	C	05/28/2022	20:58	-131.604	47.570	0	837.90	0	3.5430	0	34.2790	0	27.264	0	829.226	0	7.9	4	2.5	4	-1E+10	1	-1E+10	1	-1E+10	1	-1E+10	1	-1E+10	1	-1E+10	1
4902549	65	C	05/28/2022	20:58	-131.604	47.570	0	843.00	0	3.5290	0	34.2820	0	27.268	0	834.263	0	7.8	4	2.4	4	-1E+10	1	-1E+10	1	-1E+10	1	-1E+10	1	-1E+10	1	-1E+10	1
4902549	65	C	05/28/2022	20:58	-131.604	47.570	0	848.10	0	3.5180	0	34.2860	0	27.272	0	839.300	0	7.5	4	2.3	4	-1E+10	1	-1E+10	1	-1E+10	1	-1E+10	1	-1E+10	1	-1E+10	1
4902549	65	C	05/28/2022	20:58	-131.604	47.570	0	853.10	0	3.5210	0	34.2920	0	27.277	0	844.238	0	7.2	4	2.3	4	-1E+10	1	-1E+10	1	-1E+10	1	-1E+10	1	-1E+10	1	-1E+10	1
4902549	65	C	05/28/2022	20:58	-131.604	47.570	0	858.00	0	3.5150	0	34.2960	0	27.281	0	849.078	0	7.1	4	2.2	4	-1E+10	1	-1E+10	1	-1E+10	1	-1E+10	1	-1E+10	1	-1E+10	1
4902549	65	C	05/28/2022	20:58	-131.604	47.570	0	862.80	0	3.5090	0	34.2980	0	27.283	0	853.818	0	7.0	4	2.2	4	-1E+10	1	-1E+10	1	-1E+10	1	-1E+10	1	-1E+10	1	-1E+10	1
4902549	65	C	05/28/2022	20:58	-131.604	47.570	0	868.00	0	3.5090	0	34.3040	0	27.288	0	858.953	0	6.9	4	2.2	4	-1E+10	1	-1E+10	1	-1E+10	1	-1E+10	1	-1E+10	1	-1E+10	1
4902549	65	C	05/28/2022	20:58	-131.604	47.570	0	872.80	0	3.4910	0	34.3060	0	27.291	0	863.693	0	6.9	4	2.2	4	-1E+10	1	-1E+10	1	-1E+10	1	-1E+10	1	-1E+10	1	-1E+10	1
4902549	65	C	05/28/2022	20:58	-131.604	47.570	0	877.60	0	3.4860	0	34.3070	0	27.292	0	868.433	0	6.9	4	2.2	4	-1E+10	1	-1E+10	1	-1E+10	1	-1E+10	1	-1E+10	1	-1E+10	1
4902549	65	C	05/28/2022	20:58	-131.604	47.570	0	882.60	0	3.4780	0	34.3080	0	27.294	0	873.370	0	6.9	4	2.2	4	-1E+10	1	-1E+10	1	-1E+10	1	-1E+10	1	-1E+10	1	-1E+10	1
4902549	65	C	05/28/2022	20:58	-131.604	47.570	0	887.80	0	3.4660	0	34.3090	0	27.296	0	878.505	0	6.9	4	2.2	4	-1E+10	1	-1E+10	1	-1E+10	1	-1E+10	1	-1E+10	1	-1E+10	1
4902549	65	C	05/28/2022	20:58	-131.604	47.570	0	892.70	0	3.4480	0	34.3100	0	27.298	0	883.344	0	6.9	4	2.2	4	-1E+10	1	-1E+10	1	-1E+10	1	-1E+10	1	-1E+10	1	-1E+10	1
4902549	65	C	05/28/2022	20:58	-131.604	47.570	0	897.70	0	3.4390	0	34.3110	0	27.300	0	888.280	0	6.9	4	2.1	4	-1E+10	1	-1E+10	1	-1E+10	1	-1E+10	1	-1E+10	1	-1E+10	1
4902549	65	C	05/28/2022	20:58	-131.604	47.570	0	902.70	0	3.4300	0	34.3140	0	27.303	0	893.217	0	6.8	4	2.1	4	-1E+10	1	-1E+10	1	-1E+10	1	-1E+10	1	-1E+10	1	-1E+10	1
4902549	65	C	05/28/2022	20:58	-131.604	47.570	0	907.80	0	3.4200	0	34.3160	0	27.306	0	898.253	0	6.8	4	2.1	4	-1E+10	1	-1E+10	1	-1E+10	1	-1E+10	1	-1E+10	1	-1E+10	1
4902549	65	C	05/28/2022	20:58	-131.604	47.570	0	912.90	0	3.4000	0	34.3180	0	27.309	0	903.288	0	6.8	4	2.1	4	-1E+10	1	-1E+10	1	-1E+10	1	-1E+10	1	-1E+10	1	-1E+10	1
4902549	65	C	05/28/2022	20:58	-131.604	47.570	0	917.60	0	3.3880	0	34.3200	0	27.312	0	907.928	0	6.8	4	2.1	4	-1E+10	1	-1E+10	1	-1E+10	1	-1E+10	1	-1E+10	1	-1E+10	1
4902549	65	C	05/28/2022	20:58	-131.604	47.570	0	922.90	0	3.3800	0	34.3210	0	27.314	0	913.161	0	6.8	4	2.1	4	-1E+10	1	-1E+10	1	-1E+10	1	-1E+10	1	-1E+10	1	-1E+10	1
4902549	65	C	05/28/2022	20:58	-131.604	47.570	0	928.20	0	3.3720	0	34.3230	0	27.316	0	918.394	0	6.8	4	2.1	4	-1E+10	1	-1E+10	1	-1E+10	1	-1E+10	1	-1E+10	1	-1E+10	1
4902549	65	C	05/28/2022	20:58	-131.604	47.570	0	933.00	0	3.3610	0	34.3240	0	27.318	0	923.132	0	6.8	4	2.1	4	-1E+10	1	-1E+10	1	-1E+10	1	-1E+10	1	-1E+10	1	-1E+10	1
4902549	65	C	05/28/2022	20:58	-131.604	47.570	0	937.90	0	3.3490	0	34.3270	0	27.322	0	927.970	0	6.8	4	2.1	4	-1E+10	1	-1E+10	1	-1E+10	1	-1E+10	1	-1E+10	1	-1E+10	1
4902549	65	C	05/28/2022	20:58	-131.604	47.570	0	942.80	0	3.3360	0	34.3270	0	27.323	0	932.807	0	6.8	4	2.1	4	-1E+10	1	-1E+10	1	-1E+10	1	-1E+10	1	-1E+10	1	-1E+10	1
4902549	65	C	05/28/2022	20:58	-131.604	47.570	0	947.80	0	3.3280	0	34.3280	0	27.324	0	937.743	0	6.9	4	2.1	4	-1E+10	1	-1E+10	1	-1E+10	1	-1E+10	1	-1E+10	1	-1E+10	1
4902549	65	C	05/28/2022	20:58	-131.604	47.570	0	952.90	0	3.3230	0	34.3280	0	27.325	0	942.777	0	6.8	4	2.1	4	-1E+10	1	-1E+10	1	-1E+10	1	-1E+10	1	-1E+10	1	-1E+10	1
4902549	65	C	05/28/2022	20:58	-131.604	47.570	0	958.00	0	3.3220	0	34.3290	0	27.326	0	947.811	0	6.8	4	2.1	4	-1E+10	1	-1E+10	1	-1E+10	1	-1E+10	1	-1E+10	1	-1E+10	1
4902549	65	C	05/28/2022	20:58	-131.604	47.570	0	963.10	0	3.3080	0	34.3310	0	27.329	0	952.845	0	6.8	4	2.1	4	-1E+10	1	-1E+10	1	-1E+10	1	-1E+10	1	-1E+10	1	-1E+10	1
4902549	65	C	05/28/2022	20:58	-131.604	47.570	0	968.10	0	3.2910	0	34.3350	0	27.334	0	957.781	0	6.7	4	2.1	4	-1E+10	1	-1E+10	1	-1E+10	1	-1E+10	1	-1E+10	1	-1E+10	1
4902549	65	C	05/28/2022	20:58	-131.604	47.570	0	973.10	0	3.2790	0	34.3380	0	27.337	0	962.716	0	6.7	4	2.1	4	-1E+10	1	-1E+10	1	-1E+10	1	-1E+10	1	-1E+10	1	-1E+10	1
4902549	65	C	05/28/2022	20:58	-131.604	47.570	0	978.10	0	3.2730	0	34.3400	0	27.339	0	967.651	0	6.7	4	2.1	4	-1E+10	1	-1E+10	1	-1E+10	1	-1E+10	1	-1E+10	1	-1E+10	1
4902549	65	C	05/28/2022	20:58	-131.604	47.570	0	983.20	0	3.2570	0	34.3430	0	27.343	0	972.685	0	6.6	4	2.1	4	-1E+10	1	-1E+10	1	-1E+10	1	-1E+10	1	-1E+10	1	-1E+10	1
4902549	65	C	05/28/2022	20:58	-131.604	47.570	0	988.10	0	3.2490	0	34.3450	0	27.346	0	977.521	0	6.6	4	2.1	4	-1E+10	1	-1E+10	1	-1E+10	1	-1E+10	1	-1E+10	1	-1E+10	1
4902549	65	C	05/28/2022	20:58	-131.604	47.570	0	993.10	0	3.2460	0	34.3460	0	27.347	0	982.456	0	6.6	4	2.1	4	-1E+10	1	-1E+10	1	-1E+10	1	-1E+10	1	-1E+10	1	-1E+10	1
4902549	65	C	05/28/2022	20:58	-131.604	47.570	0	998.00	0	3.2340	0	34.3490	0	27.350	0	987.292	0	6.6	4	2.0	4	-1E+10	1	-1E+10	1	-1E+10	1	-1E+10	1	-1E+10	1	-1E+10	1
4902549	65	C	05/28/2022	20:58	-131.604	47.570	0	1005.30	0	3.2210	0	34.3510	0	27.353	0	994.496	0	6.6	4	2.0	4	-1E+10	1	-1E+10	1	-1E+10	1	-1E+10	1	-1E+10	1	-1E+10	1
4902549	65	C	05/28/2022	20:58	-131.604	47.570	0	1015.50	0	3.2070	0	34.3550	0	27.358	0	1004.562	0	6.6	4	2.0	4	-1E+10	1	-1E+10	1	-1E+10	1	-1E+10	1	-1E+10	1	-1E+10	1
4902549	65	C	05/28/2022	20:58	-131.604	47.570	0	1025.80	0	3.1910	0	34.3600	0	27.363	0	1014.726	0	6.5	4	2.0	4	-1E+10	1	-1E+10	1	-1E+10	1	-1E+10	1	-1E+10	1	-1E+10	1
4902549	65	C	05/28/2022	20:58	-131.604	47.570	0	1035.60	0	3.1770	0	34.3630	0	27.367	0	1024.396	0	6.6	4	2.0	4	-1E+10	1	-1E+10	1	-1E+10	1	-1E+10	1	-1E+10	1	-1E+10	1
4902549	65	C	05/28/2022	20:58	-131.604	47.570	0	1045.50	0	3.1550	0	34.3680	0	27.373	0	1034.165	0	6.7	4	2.1	4	-1E+10	1	-1E+10	1	-1E+10	1	-1E+10	1	-1E+10	1	-1E+10	1
4902549	65	C	05/28/2022	20:58	-131.604	47.570	0	1055.50	0	3.1340	0	34.3720	0	27.378	0	1044.032	0	6.7	4	2.1	4	-1E+10	1	-1E+10	1	-1E+10	1	-1E+10	1	-1E+10	1	-1E+10	1
4902549	65	C	05/28/2022	20:58	-131.604	47.570	0	1065.50	0	3.1110	0	34.3800	0	27.387	0	1053.898	0	6.8	4	2.1	4	-1E+10	1	-1E+10	1	-1E+10	1	-1E+10	1	-1E+10	1	-1E+10	1
4902549	65	C	05/28/2022	20:58	-131.604	47.570	0	1075.20	0	3.0890	0	34.3850	0	27.393	0	1063.468	0	6.9	4	2.1	4	-1E+10	1	-1E+10	1	-1E+10	1	-1E+10	1	-1E+10	1	-1E+10	1
4902549	65	C	05/28/2022	20:58	-131.604	47.570	0	1085.30	0	3.0650	0	34.3900	0	27.399	0	1073.432	0	7.1	4	2.2	4	-1E+10	1	-1E+10	1	-1E+10	1	-1E+10	1	-1E+10	1	-1E+10	1
4902549	65	C	05/28/2022	20:58	-131.604	47.570	0	1095.20	0	3.0370	0	34.3930	0	27.404	0	1083.198	0	7.2	4	2.2	4	-1E+10	1	-1E+10	1	-1E+10	1	-1E+10	1	-1E+10	1	-1E+10	1
4902549	65	C	05/28/2022	20:58	-131.604	47.570	0	1105.20	0	3.0290	0	34.3950	0	27.406	0	1093.062	0	7.2	4	2.2	4	-1E+10	1	-1E+10	1	-1E+10	1	-1E+10	1	-1E+10	1	-1E+10	1
4902549	65	C	05/28/2022	20:58	-131.604	47.570	0	1115.20	0	3.0240	0	34.3970	0	27.409	0	1102.926	0	7.3	4	2.2	4	-1E+10	1	-1E+10	1	-1E+10	1	-1E+10	1	-1E+10	1	-1E+10	1
4902549	65	C	05/28/2022	20:58	-131.604	47.570	0	1125.00	0	3.0190	0	34.3990	0	27.411	0	1112.592	0	7.4	4	2.3	4	-1E+10	1	-1E+10	1	-1E+10	1	-1E+10	1	-1E+10	1	-1E+10	1
4902549	65	C	05/28/2022	20:58	-131.604	47.570	0	1135.20	0	3.0020	0	34.4020	0	27.415	0	1122.653	0	7.5	4	2.3	4	-1E+10	1	-1E+10	1	-1E+10	1	-1E+10	1	-1E+10	1	-1E+10	1
4902549	65	C	05/28/2022	20:58	-131.604	47.570	0	1145.60	0	2.9880	0	34.4050	0	27.418	0	1132.910	0	7.6	4	2.4	4	-1E+10	1	-1E+10	1	-1E+10	1	-1E+10	1	-1E+10	1	-1E+10	1
4902549	65	C	05/28/2022	20:58	-131.604	47.570	0	1155.60	0	2.9650	0	34.4090	0	27.424	0	1142.772	0	7.8	4	2.4	4	-1E+10	1	-1E+10	1	-1E+10	1	-1E+10	1	-1E+10	1	-1E+10	1
4902549	65	C	05/28/2022	20:58	-131.604	47.570	0	1165.30	0	2.9550	0	34.4110	0	27.426	0	1152.337	0	7.9	4	2.4	4	-1E+10	1	-1E+10	1	-1E+10	1	-1E+10	1	-1E+10	1	-1E+10	1
4902549	65	C	05/28/2022	20:58	-131.604	47.570	0	1175.00	0	2.9440	0	34.4140	0	27.430	0	1161.903	0	8.0	4	2.5	4	-1E+10	1	-1E+10	1	-1E+10	1	-1E+10	1	-1E+10	1	-1E+10	1
4902549	65	C	05/28/2022	20:58	-131.604	47.570	0	1185.30	0	2.9270	0	34.4170	0	27.434	0	1172.059	0	8.1	4	2.5	4	-1E+10	1	-1E+10	1	-1E+10	1	-1E+10	1	-1E+10	1	-1E+10	1
4902549	65	C	05/28/2022	20:58	-131.604	47.570	0	1195.80	0	2.9220	0	34.4180	0	27.435	0	1182.412	0	8.3	4	2.5	4	-1E+10	1	-1E+10	1	-1E+10	1	-1E+10	1	-1E+10	1	-1E+10	1
4902549	65	C	05/28/2022	20:58	-131.604	47.570	0	1205.80	0	2.9120	0	34.4200	0	27.438	0	1192.272	0	8.5	4	2.6	4	-1E+10	1	-1E+10	1	-1E+10	1	-1E+10	1	-1E+10	1	-1E+10	1
4902549	65	C	05/28/2022	20:58	-131.604	47.570	0	1215.60	0	2.8890	0	34.4260	0	27.444	0	1201.934	0	8.8	4	2.7	4	-1E+10	1	-1E+10	1	-1E+10	1	-1E+10	1	-1E+10	1	-1E+10	1
4902549	65	C	05/28/2022	20:58	-131.604	47.570	0	1225.40	0	2.8740	0	34.4290	0	27.448	0	1211.596	0	8.9	4	2.7	4	-1E+10	1	-1E+10	1	-1E+10	1	-1E+10	1	-1E+10	1	-1E+10	1
4902549	65	C	05/28/2022	20:58	-131.604	47.570	0	1235.50	0	2.8550	0	34.4310	0	27.452	0	1221.553	0	9.1	4	2.8	4	-1E+10	1	-1E+10	1	-1E+10	1	-1E+10	1	-1E+10	1	-1E+10	1
4902549	65	C	05/28/2022	20:58	-131.604	47.570	0	1245.50	0	2.8460	0	34.4330	0	27.454	0	1231.411	0	9.3	4	2.9	4	-1E+10	1	-1E+10	1	-1E+10	1	-1E+10	1	-1E+10	1	-1E+10	1
4902549	65	C	05/28/2022	20:58	-131.604	47.570	0	1255.50	0	2.8200	0	34.4370	0	27.460	0	1241.268	0	9.6	4	3.0	4	-1E+10	1	-1E+10	1	-1E+10	1	-1E+10	1	-1E+10	1	-1E+10	1
4902549	65	C	05/28/2022	20:58	-131.604	47.570	0	1265.50	0	2.8020	0	34.4390	0	27.463	0	1251.125	0	9.8	4	3.0	4	-1E+10	1	-1E+10	1	-1E+10	1	-1E+10	1	-1E+10	1	-1E+10	1
4902549	65	C	05/28/2022	20:58	-131.604	47.570	0	1275.50	0	2.7790	0	34.4420	0	27.467	0	1260.981	0	10.1	4	3.1	4	-1E+10	1	-1E+10	1	-1E+10	1	-1E+10	1	-1E+10	1	-1E+10	1
4902549	65	C	05/28/2022	20:58	-131.604	47.570	0	1285.40	0	2.7520	0	34.4460	0	27.473	0	1270.739	0	10.4	4	3.2	4	-1E+10	1	-1E+10	1	-1E+10	1	-1E+10	1	-1E+10	1	-1E+10	1
4902549	65	C	05/28/2022	20:58	-131.604	47.570	0	1295.30	0	2.7370	0	34.4480	0	27.476	0	1280.496	0	10.7	4	3.3	4	-1E+10	1	-1E+10	1	-1E+10	1	-1E+10	1	-1E+10	1	-1E+10	1
4902549	65	C	05/28/2022	20:58	-131.604	47.570	0	1305.70	0	2.7240	0	34.4510	0	27.479	0	1290.745	0	11.0	4	3.4	4	-1E+10	1	-1E+10	1	-1E+10	1	-1E+10	1	-1E+10	1	-1E+10	1
4902549	65	C	05/28/2022	20:58	-131.604	47.570	0	1315.60	0	2.7090	0	34.4540	0	27.483	0	1300.501	0	11.4	4	3.5	4	-1E+10	1	-1E+10	1	-1E+10	1	-1E+10	1	-1E+10	1	-1E+10	1
4902549	65	C	05/28/2022	20:58	-131.604	47.570	0	1325.50	0	2.6950	0	34.4560	0	27.486	0	1310.257	0	11.6	4	3.5	4	-1E+10	1	-1E+10	1	-1E+10	1	-1E+10	1	-1E+10	1	-1E+10	1
4902549	65	C	05/28/2022	20:58	-131.604	47.570	0	1335.20	0	2.6830	0	34.4570	0	27.488	0	1319.815	0	11.8	4	3.6	4	-1E+10	1	-1E+10	1	-1E+10	1	-1E+10	1	-1E+10	1	-1E+10	1
4902549	65	C	05/28/2022	20:58	-131.604	47.570	0	1345.40	0	2.6660	0	34.4590	0	27.491	0	1329.865	0	12.1	4	3.7	4	-1E+10	1	-1E+10	1	-1E+10	1	-1E+10	1	-1E+10	1	-1E+10	1
4902549	65	C	05/28/2022	20:58	-131.604	47.570	0	1355.30	0	2.6490	0	34.4620	0	27.495	0	1339.619	0	12.4	4	3.8	4	-1E+10	1	-1E+10	1	-1E+10	1	-1E+10	1	-1E+10	1	-1E+10	1
4902549	65	C	05/28/2022	20:58	-131.604	47.570	0	1365.10	0	2.6300	0	34.4650	0	27.499	0	1349.275	0	12.7	4	3.9	4	-1E+10	1	-1E+10	1	-1E+10	1	-1E+10	1	-1E+10	1	-1E+10	1
4902549	65	C	05/28/2022	20:58	-131.604	47.570	0	1375.10	0	2.6150	0	34.4670	0	27.502	0	1359.127	0	13.0	4	4.0	4	-1E+10	1	-1E+10	1	-1E+10	1	-1E+10	1	-1E+10	1	-1E+10	1
4902549	65	C	05/28/2022	20:58	-131.604	47.570	0	1385.30	0	2.6060	0	34.4690	0	27.504	0	1369.175	0	13.4	4	4.1	4	-1E+10	1	-1E+10	1	-1E+10	1	-1E+10	1	-1E+10	1	-1E+10	1
4902549	65	C	05/28/2022	20:58	-131.604	47.570	0	1395.50	0	2.5960	0	34.4710	0	27.507	0	1379.223	0	13.9	4	4.3	4	-1E+10	1	-1E+10	1	-1E+10	1	-1E+10	1	-1E+10	1	-1E+10	1
4902549	65	C	05/28/2022	20:58	-131.604	47.570	0	1405.40	0	2.5700	0	34.4740	0	27.511	0	1388.975	0	14.5	4	4.4	4	-1E+10	1	-1E+10	1	-1E+10	1	-1E+10	1	-1E+10	1	-1E+10	1
4902549	65	C	05/28/2022	20:58	-131.604	47.570	0	1415.70	0	2.5460	0	34.4780	0	27.517	0	1399.120	0	15.0	4	4.6	4	-1E+10	1	-1E+10	1	-1E+10	1	-1E+10	1	-1E+10	1	-1E+10	1
4902549	65	C	05/28/2022	20:58	-131.604	47.570	0	1425.70	0	2.5290	0	34.4810	0	27.521	0	1408.970	0	15.8	4	4.8	4	-1E+10	1	-1E+10	1	-1E+10	1	-1E+10	1	-1E+10	1	-1E+10	1
4902549	65	C	05/28/2022	20:58	-131.604	47.570	0	1435.80	0	2.5050	0	34.4850	0	27.526	0	1418.917	0	16.6	4	5.1	4	-1E+10	1	-1E+10	1	-1E+10	1	-1E+10	1	-1E+10	1	-1E+10	1
4902549	65	C	05/28/2022	20:58	-131.604	47.570	0	1445.40	0	2.4920	0	34.4880	0	27.529	0	1428.372	0	17.0	4	5.2	4	-1E+10	1	-1E+10	1	-1E+10	1	-1E+10	1	-1E+10	1	-1E+10	1
4902549	65	C	05/28/2022	20:58	-131.604	47.570	0	1455.30	0	2.4830	0	34.4900	0	27.532	0	1438.122	0	17.5	4	5.3	4	-1E+10	1	-1E+10	1	-1E+10	1	-1E+10	1	-1E+10	1	-1E+10	1
4902549	65	C	05/28/2022	20:58	-131.604	47.570	0	1465.10	0	2.4680	0	34.4920	0	27.535	0	1447.773	0	18.1	4	5.5	4	-1E+10	1	-1E+10	1	-1E+10	1	-1E+10	1	-1E+10	1	-1E+10	1
4902549	65	C	05/28/2022	20:58	-131.604	47.570	0	1475.30	0	2.4500	0	34.4950	0	27.539	0	1457.817	0	18.8	4	5.7	4	-1E+10	1	-1E+10	1	-1E+10	1	-1E+10	1	-1E+10	1	-1E+10	1
4902549	65	C	05/28/2022	20:58	-131.604	47.570	0	1485.40	0	2.4290	0	34.4980	0	27.543	0	1467.762	0	19.3	4	5.9	4	-1E+10	1	-1E+10	1	-1E+10	1	-1E+10	1	-1E+10	1	-1E+10	1
4902549	65	C	05/28/2022	20:58	-131.604	47.570	0	1495.30	0	2.4250	0	34.4990	0	27.544	0	1477.510	0	19.6	4	6.0	4	-1E+10	1	-1E+10	1	-1E+10	1	-1E+10	1	-1E+10	1	-1E+10	1
4902549	65	C	05/28/2022	20:58	-131.604	47.570	0	1505.40	0	2.4160	0	34.5000	0	27.546	0	1487.454	0	20.1	4	6.1	4	-1E+10	1	-1E+10	1	-1E+10	1	-1E+10	1	-1E+10	1	-1E+10	1
4902549	65	C	05/28/2022	20:58	-131.604	47.570	0	1515.60	0	2.4010	0	34.5030	0	27.549	0	1497.496	0	20.6	4	6.3	4	-1E+10	1	-1E+10	1	-1E+10	1	-1E+10	1	-1E+10	1	-1E+10	1
4902549	65	C	05/28/2022	20:58	-131.604	47.570	0	1525.60	0	2.3950	0	34.5040	0	27.551	0	1507.341	0	21.1	4	6.4	4	-1E+10	1	-1E+10	1	-1E+10	1	-1E+10	1	-1E+10	1	-1E+10	1
4902549	65	C	05/28/2022	20:58	-131.604	47.570	0	1535.20	0	2.3790	0	34.5060	0	27.554	0	1516.792	0	21.7	4	6.6	4	-1E+10	1	-1E+10	1	-1E+10	1	-1E+10	1	-1E+10	1	-1E+10	1
4902549	65	C	05/28/2022	20:58	-131.604	47.570	0	1545.40	0	2.3670	0	34.5080	0	27.556	0	1526.833	0	22.3	4	6.8	4	-1E+10	1	-1E+10	1	-1E+10	1	-1E+10	1	-1E+10	1	-1E+10	1
4902549	65	C	05/28/2022	20:58	-131.604	47.570	0	1555.50	0	2.3480	0	34.5110	0	27.560	0	1536.775	0	23.1	4	7.0	4	-1E+10	1	-1E+10	1	-1E+10	1	-1E+10	1	-1E+10	1	-1E+10	1
4902549	65	C	05/28/2022	20:58	-131.604	47.570	0	1565.20	0	2.3270	0	34.5140	0	27.565	0	1546.323	0	24.3	4	7.4	4	-1E+10	1	-1E+10	1	-1E+10	1	-1E+10	1	-1E+10	1	-1E+10	1
4902549	65	C	05/28/2022	20:58	-131.604	47.570	0	1575.00	0	2.2970	0	34.5190	0	27.571	0	1555.969	0	25.1	4	7.6	4	-1E+10	1	-1E+10	1	-1E+10	1	-1E+10	1	-1E+10	1	-1E+10	1
4902549	65	C	05/28/2022	20:58	-131.604	47.570	0	1585.10	0	2.2880	0	34.5200	0	27.573	0	1565.909	0	25.7	4	7.8	4	-1E+10	1	-1E+10	1	-1E+10	1	-1E+10	1	-1E+10	1	-1E+10	1
4902549	65	C	05/28/2022	20:58	-131.604	47.570	0	1595.40	0	2.2790	0	34.5220	0	27.575	0	1576.046	0	26.2	4	7.9	4	-1E+10	1	-1E+10	1	-1E+10	1	-1E+10	1	-1E+10	1	-1E+10	1
4902549	65	C	05/28/2022	20:58	-131.604	47.570	0	1605.70	0	2.2710	0	34.5230	0	27.576	0	1586.183	0	26.7	4	8.1	4	-1E+10	1	-1E+10	1	-1E+10	1	-1E+10	1	-1E+10	1	-1E+10	1
4902549	65	C	05/28/2022	20:58	-131.604	47.570	0	1615.90	0	2.2630	0	34.5250	0	27.579	0	1596.220	0	27.4	4	8.3	4	-1E+10	1	-1E+10	1	-1E+10	1	-1E+10	1	-1E+10	1	-1E+10	1
4902549	65	C	05/28/2022	20:58	-131.604	47.570	0	1625.70	0	2.2450	0	34.5270	0	27.582	0	1605.864	0	28.1	4	8.5	4	-1E+10	1	-1E+10	1	-1E+10	1	-1E+10	1	-1E+10	1	-1E+10	1
4902549	65	C	05/28/2022	20:58	-131.604	47.570	0	1635.40	0	2.2370	0	34.5290	0	27.584	0	1615.408	0	28.7	4	8.7	4	-1E+10	1	-1E+10	1	-1E+10	1	-1E+10	1	-1E+10	1	-1E+10	1
4902549	65	C	05/28/2022	20:58	-131.604	47.570	0	1645.50	0	2.2190	0	34.5320	0	27.588	0	1625.346	0	29.6	4	9.0	4	-1E+10	1	-1E+10	1	-1E+10	1	-1E+10	1	-1E+10	1	-1E+10	1
4902549	65	C	05/28/2022	20:58	-131.604	47.570	0	1655.60	0	2.2100	0	34.5340	0	27.590	0	1635.284	0	30.1	4	9.1	4	-1E+10	1	-1E+10	1	-1E+10	1	-1E+10	1	-1E+10	1	-1E+10	1
4902549	65	C	05/28/2022	20:58	-131.604	47.570	0	1665.20	0	2.2050	0	34.5350	0	27.592	0	1644.728	0	30.8	4	9.3	4	-1E+10	1	-1E+10	1	-1E+10	1	-1E+10	1	-1E+10	1	-1E+10	1
4902549	65	C	05/28/2022	20:58	-131.604	47.570	0	1675.20	0	2.1870	0	34.5380	0	27.596	0	1654.567	0	31.9	4	9.6	4	-1E+10	1	-1E+10	1	-1E+10	1	-1E+10	1	-1E+10	1	-1E+10	1
4902549	65	C	05/28/2022	20:58	-131.604	47.570	0	1685.10	0	2.1720	0	34.5400	0	27.598	0	1664.306	0	32.3	4	9.8	4	-1E+10	1	-1E+10	1	-1E+10	1	-1E+10	1	-1E+10	1	-1E+10	1
4902549	65	C	05/28/2022	20:58	-131.604	47.570	0	1695.40	0	2.1700	0	34.5410	0	27.599	0	1674.438	0	32.5	4	9.8	4	-1E+10	1	-1E+10	1	-1E+10	1	-1E+10	1	-1E+10	1	-1E+10	1
4902549	65	C	05/28/2022	20:58	-131.604	47.570	0	1705.50	0	2.1690	0	34.5410	0	27.600	0	1684.373	0	32.8	4	9.9	4	-1E+10	1	-1E+10	1	-1E+10	1	-1E+10	1	-1E+10	1	-1E+10	1
4902549	65	C	05/28/2022	20:58	-131.604	47.570	0	1715.30	0	2.1650	0	34.5420	0	27.601	0	1694.013	0	33.5	4	10.1	4	-1E+10	1	-1E+10	1	-1E+10	1	-1E+10	1	-1E+10	1	-1E+10	1
4902549	65	C	05/28/2022	20:58	-131.604	47.570	0	1725.30	0	2.1550	0	34.5440	0	27.603	0	1703.848	0	34.0	4	10.3	4	-1E+10	1	-1E+10	1	-1E+10	1	-1E+10	1	-1E+10	1	-1E+10	1
4902549	65	C	05/28/2022	20:58	-131.604	47.570	0	1735.20	0	2.1510	0	34.5450	0	27.604	0	1713.585	0	34.7	4	10.5	4	-1E+10	1	-1E+10	1	-1E+10	1	-1E+10	1	-1E+10	1	-1E+10	1
4902549	65	C	05/28/2022	20:58	-131.604	47.570	0	1745.10	0	2.1290	0	34.5480	0	27.609	0	1723.322	0	36.1	4	10.9	4	-1E+10	1	-1E+10	1	-1E+10	1	-1E+10	1	-1E+10	1	-1E+10	1
4902549	65	C	05/28/2022	20:58	-131.604	47.570	0	1755.40	0	2.1090	0	34.5520	0	27.613	0	1733.451	0	37.5	4	11.3	4	-1E+10	1	-1E+10	1	-1E+10	1	-1E+10	1	-1E+10	1	-1E+10	1
4902549	65	C	05/28/2022	20:58	-131.604	47.570	0	1765.60	0	2.0960	0	34.5550	0	27.617	0	1743.482	0	38.1	4	11.5	4	-1E+10	1	-1E+10	1	-1E+10	1	-1E+10	1	-1E+10	1	-1E+10	1
4902549	65	C	05/28/2022	20:58	-131.604	47.570	0	1775.50	0	2.0910	0	34.5560	0	27.618	0	1753.217	0	38.7	4	11.7	4	-1E+10	1	-1E+10	1	-1E+10	1	-1E+10	1	-1E+10	1	-1E+10	1
4902549	65	C	05/28/2022	20:58	-131.604	47.570	0	1785.20	0	2.0830	0	34.5570	0	27.620	0	1762.755	0	39.6	4	12.0	4	-1E+10	1	-1E+10	1	-1E+10	1	-1E+10	1	-1E+10	1	-1E+10	1
4902549	65	C	05/28/2022	20:58	-131.604	47.570	0	1795.40	0	2.0640	0	34.5600	0	27.624	0	1772.784	0	40.5	4	12.2	4	-1E+10	1	-1E+10	1	-1E+10	1	-1E+10	1	-1E+10	1	-1E+10	1
4902549	65	C	05/28/2022	20:58	-131.604	47.570	0	1805.80	0	2.0530	0	34.5620	0	27.626	0	1783.010	0	40.9	4	12.3	4	-1E+10	1	-1E+10	1	-1E+10	1	-1E+10	1	-1E+10	1	-1E+10	1
4902549	65	C	05/28/2022	20:58	-131.604	47.570	0	1815.80	0	2.0520	0	34.5620	0	27.626	0	1792.841	0	41.2	4	12.4	4	-1E+10	1	-1E+10	1	-1E+10	1	-1E+10	1	-1E+10	1	-1E+10	1
4902549	65	C	05/28/2022	20:58	-131.604	47.570	0	1825.60	0	2.0480	0	34.5640	0	27.628	0	1802.476	0	41.9	4	12.6	4	-1E+10	1	-1E+10	1	-1E+10	1	-1E+10	1	-1E+10	1	-1E+10	1
4902549	65	C	05/28/2022	20:58	-131.604	47.570	0	1835.60	0	2.0370	0	34.5650	0	27.630	0	1812.306	0	42.9	4	12.9	4	-1E+10	1	-1E+10	1	-1E+10	1	-1E+10	1	-1E+10	1	-1E+10	1
4902549	65	C	05/28/2022	20:58	-131.604	47.570	0	1845.60	0	2.0250	0	34.5670	0	27.633	0	1822.137	0	43.9	4	13.2	4	-1E+10	1	-1E+10	1	-1E+10	1	-1E+10	1	-1E+10	1	-1E+10	1
4902549	65	C	05/28/2022	20:58	-131.604	47.570	0	1856.00	0	2.0100	0	34.5690	0	27.635	0	1832.360	0	44.9	4	13.5	4	-1E+10	1	-1E+10	1	-1E+10	1	-1E+10	1	-1E+10	1	-1E+10	1
4902549	65	C	05/28/2022	20:58	-131.604	47.570	0	1865.50	0	2.0000	0	34.5710	0	27.638	0	1841.698	0	45.4	4	13.7	4	-1E+10	1	-1E+10	1	-1E+10	1	-1E+10	1	-1E+10	1	-1E+10	1
4902549	65	C	05/28/2022	20:58	-131.604	47.570	0	1875.70	0	1.9910	0	34.5720	0	27.639	0	1851.723	0	46.0	4	13.9	4	-1E+10	1	-1E+10	1	-1E+10	1	-1E+10	1	-1E+10	1	-1E+10	1
4902549	65	C	05/28/2022	20:58	-131.604	47.570	0	1885.50	0	1.9830	0	34.5740	0	27.642	0	1861.355	0	46.5	4	14.0	4	-1E+10	1	-1E+10	1	-1E+10	1	-1E+10	1	-1E+10	1	-1E+10	1
4902549	65	C	05/28/2022	20:58	-131.604	47.570	0	1895.50	0	1.9810	0	34.5750	0	27.643	0	1871.183	0	46.7	4	14.1	4	-1E+10	1	-1E+10	1	-1E+10	1	-1E+10	1	-1E+10	1	-1E+10	1
4902549	65	C	05/28/2022	20:58	-131.604	47.570	0	1905.60	0	1.9800	0	34.5750	0	27.643	0	1881.109	0	47.0	4	14.2	4	-1E+10	1	-1E+10	1	-1E+10	1	-1E+10	1	-1E+10	1	-1E+10	1
4902549	65	C	05/28/2022	20:58	-131.604	47.570	0	1915.30	0	1.9760	0	34.5750	0	27.643	0	1890.641	0	47.7	4	14.4	4	-1E+10	1	-1E+10	1	-1E+10	1	-1E+10	1	-1E+10	1	-1E+10	1
4902549	65	C	05/28/2022	20:58	-131.604	47.570	0	1925.40	0	1.9650	0	34.5770	0	27.646	0	1900.566	0	48.1	4	14.5	4	-1E+10	1	-1E+10	1	-1E+10	1	-1E+10	1	-1E+10	1	-1E+10	1
4902549	65	C	05/28/2022	20:58	-131.604	47.570	0	1935.80	0	1.9580	0	34.5780	0	27.647	0	1910.785	0	48.5	4	14.6	4	-1E+10	1	-1E+10	1	-1E+10	1	-1E+10	1	-1E+10	1	-1E+10	1
4902549	65	C	05/28/2022	20:58	-131.604	47.570	0	1945.70	0	1.9530	0	34.5790	0	27.648	0	1920.512	0	48.7	4	14.7	4	-1E+10	1	-1E+10	1	-1E+10	1	-1E+10	1	-1E+10	1	-1E+10	1
4902549	65	C	05/28/2022	20:58	-131.604	47.570	0	1955.50	0	1.9490	0	34.5800	0	27.649	0	1930.141	0	49.1	4	14.8	4	-1E+10	1	-1E+10	1	-1E+10	1	-1E+10	1	-1E+10	1	-1E+10	1
4902549	65	C	05/28/2022	20:58	-131.604	47.570	0	1965.10	0	1.9450	0	34.5810	0	27.651	0	1939.573	0	49.3	4	14.9	4	-1E+10	1	-1E+10	1	-1E+10	1	-1E+10	1	-1E+10	1	-1E+10	1
4902549	65	C	05/28/2022	20:58	-131.604	47.570	0	1975.10	0	1.9420	0	34.5820	0	27.652	0	1949.397	0	49.5	4	14.9	4	-1E+10	1	-1E+10	1	-1E+10	1	-1E+10	1	-1E+10	1	-1E+10	1
4902549	65	C	05/28/2022	20:58	-131.604	47.570	0	1985.80	0	1.9370	0	34.5830	0	27.653	0	1959.909	0	49.2	4	14.8	4	-1E+10	1	-1E+10	1	-1E+10	1	-1E+10	1	-1E+10	1	-1E+10	1
4902549	65	C	05/28/2022	20:58	-131.604	47.570	0																										
4902549	66	C	06/08/2022	02:04	-131.449	47.634	0	0.20	0	10.4800	0	32.2180	0	24.700	0	0.198	0	279.1	4	100.7	4	-1E+10	1	-1E+10	1	-1E+10	1	-1E+10	1	-1E+10	1	-1E+10	1
4902549	66	C	06/08/2022	02:04	-131.449	47.634	0	0.30	0	10.4710	0	32.2190	0	24.703	0	0.297	0	272.4	4	98.2	4	-1E+10	1	-1E+10	1	-1E+10	1	-1E+10	1	-1E+10	1	-1E+10	1
4902549	66	C	06/08/2022	02:04	-131.449	47.634	0	0.90	0	10.4710	0	32.2140	0	24.699	0	0.892	0	272.5	4	98.3	4	-1E+10	1	-1E+10	1	-1E+10	1	-1E+10	1	-1E+10	1	-1E+10	1
4902549	66	C	06/08/2022	02:04	-131.449	47.634	0	2.00	0	10.4700	0	32.2050	0	24.692	0	1.983	0	272.5	4	98.3	4	-1E+10	1	-1E+10	1	-1E+10	1	-1E+10	1	-1E+10	1	-1E+10	1
4902549	66	C	06/08/2022	02:04	-131.449	47.634	0	3.10	0	10.4690	0	32.2170	0	24.701	0	3.074	0	272.4	4	98.2	4	-1E+10	1	-1E+10	1	-1E+10	1	-1E+10	1	-1E+10	1	-1E+10	1
4902549	66	C	06/08/2022	02:04	-131.449	47.634	0	3.90	0	10.4710	0	32.2140	0	24.699	0	3.867	0	272.3	4	98.2	4	-1E+10	1	-1E+10	1	-1E+10	1	-1E+10	1	-1E+10	1	-1E+10	1
4902549	66	C	06/08/2022	02:04	-131.449	47.634	0	5.10	0	10.4680	0	32.2190	0	24.703	0	5.057	0	272.2	4	98.1	4	-1E+10	1	-1E+10	1	-1E+10	1	-1E+10	1	-1E+10	1	-1E+10	1
4902549	66	C	06/08/2022	02:04	-131.449	47.634	0	6.10	0	10.4710	0	32.2200	0	24.703	0	6.049	0	272.1	4	98.1	4	-1E+10	1	-1E+10	1	-1E+10	1	-1E+10	1	-1E+10	1	-1E+10	1
4902549	66	C	06/08/2022	02:04	-131.449	47.634	0	6.80	0	10.4720	0	32.2190	0	24.703	0	6.743	0	272.1	4	98.1	4	-1E+10	1	-1E+10	1	-1E+10	1	-1E+10	1	-1E+10	1	-1E+10	1
4902549	66	C	06/08/2022	02:04	-131.449	47.634	0	7.80	0	10.4720	0	32.2190	0	24.703	0	7.735	0	272.1	4	98.1	4	-1E+10	1	-1E+10	1	-1E+10	1	-1E+10	1	-1E+10	1	-1E+10	1
4902549	66	C	06/08/2022	02:04	-131.449	47.634	0	8.80	0	10.4740	0	32.2190	0	24.702	0	8.726	0	272.1	4	98.1	4	-1E+10	1	-1E+10	1	-1E+10	1	-1E+10	1	-1E+10	1	-1E+10	1
4902549	66	C	06/08/2022	02:04	-131.449	47.634	0	9.80	0	10.4750	0	32.2190	0	24.702	0	9.718	0	272.1	4	98.1	4	-1E+10	1	-1E+10	1	-1E+10	1	-1E+10	1	-1E+10	1	-1E+10	1
4902549	66	C	06/08/2022	02:04	-131.449	47.634	0	10.90	0	10.4730	0	32.2190	0	24.702	0	10.809	0	272.1	4	98.1	4	-1E+10	1	-1E+10	1	-1E+10	1	-1E+10	1	-1E+10	1	-1E+10	1
4902549	66	C	06/08/2022	02:04	-131.449	47.634	0	11.90	0	10.4680	0	32.2190	0	24.703	0	11.800	0	272.2	4	98.2	4	-1E+10	1	-1E+10	1	-1E+10	1	-1E+10	1	-1E+10	1	-1E+10	1
4902549	66	C	06/08/2022	02:04	-131.449	47.634	0	13.00	0	10.4680	0	32.2190	0	24.703	0	12.891	0	272.2	4	98.1	4	-1E+10	1	-1E+10	1	-1E+10	1	-1E+10	1	-1E+10	1	-1E+10	1
4902549	66	C	06/08/2022	02:04	-131.449	47.634	0	14.10	0	10.4480	0	32.2180	0	24.706	0	13.982	0	272.4	4	98.2	4	-1E+10	1	-1E+10	1	-1E+10	1	-1E+10	1	-1E+10	1	-1E+10	1
4902549	66	C	06/08/2022	02:04	-131.449	47.634	0	14.90	0	10.4390	0	32.2180	0	24.707	0	14.775	0	272.4	4	98.1	4	-1E+10	1	-1E+10	1	-1E+10	1	-1E+10	1	-1E+10	1	-1E+10	1
4902549	66	C	06/08/2022	02:04	-131.449	47.634	0	16.10	0	10.4270	0	32.2180	0	24.710	0	15.965	0	272.6	4	98.2	4	-1E+10	1	-1E+10	1	-1E+10	1	-1E+10	1	-1E+10	1	-1E+10	1
4902549	66	C	06/08/2022	02:04	-131.449	47.634	0	17.00	0	10.4150	0	32.2110	0	24.706	0	16.857	0	272.7	4	98.2	4	-1E+10	1	-1E+10	1	-1E+10	1	-1E+10	1	-1E+10	1	-1E+10	1
4902549	66	C	06/08/2022	02:04	-131.449	47.634	0	18.10	0	10.3520	0	32.2270	0	24.729	0	17.948	0	273.0	4	98.2	4	-1E+10	1	-1E+10	1	-1E+10	1	-1E+10	1	-1E+10	1	-1E+10	1
4902549	66	C	06/08/2022	02:04	-131.449	47.634	0	18.90	0	10.3470	0	32.2200	0	24.725	0	18.741	0	273.1	4	98.2	4	-1E+10	1	-1E+10	1	-1E+10	1	-1E+10	1	-1E+10	1	-1E+10	1
4902549	66	C	06/08/2022	02:04	-131.449	47.634	0	19.70	0	10.3320	0	32.2200	0	24.727	0	19.534	0	273.2	4	98.2	4	-1E+10	1	-1E+10	1	-1E+10	1	-1E+10	1	-1E+10	1	-1E+10	1
4902549	66	C	06/08/2022	02:04	-131.449	47.634	0	20.90	0	10.3340	0	32.2200	0	24.727	0	20.724	0	273.3	4	98.3	4	-1E+10	1	-1E+10	1	-1E+10	1	-1E+10	1	-1E+10	1	-1E+10	1
4902549	66	C	06/08/2022	02:04	-131.449	47.634	0	21.90	0	10.3400	0	32.2170	0	24.724	0	21.716	0	273.3	4	98.3	4	-1E+10	1	-1E+10	1	-1E+10	1	-1E+10	1	-1E+10	1	-1E+10	1
4902549	66	C	06/08/2022	02:04	-131.449	47.634	0	22.80	0	10.3250	0	32.2190	0	24.728	0	22.608	0	273.4	4	98.3	4	-1E+10	1	-1E+10	1	-1E+10	1	-1E+10	1	-1E+10	1	-1E+10	1
4902549	66	C	06/08/2022	02:04	-131.449	47.634	0	24.10	0	10.3140	0	32.2210	0	24.731	0	23.897	0	273.4	4	98.3	4	-1E+10	1	-1E+10	1	-1E+10	1	-1E+10	1	-1E+10	1	-1E+10	1
4902549	66	C	06/08/2022	02:04	-131.449	47.634	0	25.00	0	10.2870	0	32.2180	0	24.733	0	24.790	0	273.7	4	98.3	4	-1E+10	1	-1E+10	1	-1E+10	1	-1E+10	1	-1E+10	1	-1E+10	1
4902549	66	C	06/08/2022	02:04	-131.449	47.634	0	25.90	0	10.2730	0	32.2220	0	24.739	0	25.682	0	273.8	4	98.3	4	-1E+10	1	-1E+10	1	-1E+10	1	-1E+10	1	-1E+10	1	-1E+10	1
4902549	66	C	06/08/2022	02:04	-131.449	47.634	0	27.10	0	10.2070	0	32.2070	0	24.738	0	26.872	0	274.2	4	98.3	4	-1E+10	1	-1E+10	1	-1E+10	1	-1E+10	1	-1E+10	1	-1E+10	1
4902549	66	C	06/08/2022	02:04	-131.449	47.634	0	28.00	0	10.1110	0	32.2310	0	24.773	0	27.764	0	274.6	4	98.3	4	-1E+10	1	-1E+10	1	-1E+10	1	-1E+10	1	-1E+10	1	-1E+10	1
4902549	66	C	06/08/2022	02:04	-131.449	47.634	0	28.90	0	10.1100	0	32.2280	0	24.771	0	28.656	0	274.7	4	98.3	4	-1E+10	1	-1E+10	1	-1E+10	1	-1E+10	1	-1E+10	1	-1E+10	1
4902549	66	C	06/08/2022	02:04	-131.449	47.634	0	30.10	0	10.0680	0	32.2360	0	24.784	0	29.846	0	274.8	4	98.3	4	-1E+10	1	-1E+10	1	-1E+10	1	-1E+10	1	-1E+10	1	-1E+10	1
4902549	66	C	06/08/2022	02:04	-131.449	47.634	0	31.10	0	10.0660	0	32.2260	0	24.777	0	30.838	0	274.8	4	98.2	4	-1E+10	1	-1E+10	1	-1E+10	1	-1E+10	1	-1E+10	1	-1E+10	1
4902549	66	C	06/08/2022	02:04	-131.449	47.634	0	32.00	0	10.0060	0	32.2250	0	24.786	0	31.730	0	275.0	4	98.2	4	-1E+10	1	-1E+10	1	-1E+10	1	-1E+10	1	-1E+10	1	-1E+10	1
4902549	66	C	06/08/2022	02:04	-131.449	47.634	0	32.90	0	9.9190	0	32.2400	0	24.812	0	32.622	0	275.2	4	98.1	4	-1E+10	1	-1E+10	1	-1E+10	1	-1E+10	1	-1E+10	1	-1E+10	1
4902549	66	C	06/08/2022	02:04	-131.449	47.634	0	33.80	0	9.8260	0	32.2320	0	24.821	0	33.515	0	275.5	4	98.0	4	-1E+10	1	-1E+10	1	-1E+10	1	-1E+10	1	-1E+10	1	-1E+10	1
4902549	66	C	06/08/2022	02:04	-131.449	47.634	0	35.00	0	9.7050	0	32.2260	0	24.836	0	34.705	0	276.2	4	98.0	4	-1E+10	1	-1E+10	1	-1E+10	1	-1E+10	1	-1E+10	1	-1E+10	1
4902549	66	C	06/08/2022	02:04	-131.449	47.634	0	36.00	0	9.5770	0	32.2310	0	24.860	0	35.696	0	276.7	4	97.9	4	-1E+10	1	-1E+10	1	-1E+10	1	-1E+10	1	-1E+10	1	-1E+10	1
4902549	66	C	06/08/2022	02:04	-131.449	47.634	0	37.20	0	9.5640	0	32.2330	0	24.864	0	36.886	0	276.8	4	97.9	4	-1E+10	1	-1E+10	1	-1E+10	1	-1E+10	1	-1E+10	1	-1E+10	1
4902549	66	C	06/08/2022	02:04	-131.449	47.634	0	37.90	0	9.5660	0	32.2340	0	24.865	0	37.580	0	276.5	4	97.8	4	-1E+10	1	-1E+10	1	-1E+10	1	-1E+10	1	-1E+10	1	-1E+10	1
4902549	66	C	06/08/2022	02:04	-131.449	47.634	0	38.90	0	9.5600	0	32.2350	0	24.866	0	38.571	0	276.3	4	97.7	4	-1E+10	1	-1E+10	1	-1E+10	1	-1E+10	1	-1E+10	1	-1E+10	1
4902549	66	C	06/08/2022	02:04	-131.449	47.634	0	40.00	0	9.5430	0	32.2360	0	24.870	0	39.662	0	276.0	4	97.6	4	-1E+10	1	-1E+10	1	-1E+10	1	-1E+10	1	-1E+10	1	-1E+10	1
4902549	66	C	06/08/2022	02:04	-131.449	47.634	0	41.00	0	9.5210	0	32.2370	0	24.874	0	40.653	0	275.7	4	97.4	4	-1E+10	1	-1E+10	1	-1E+10	1	-1E+10	1	-1E+10	1	-1E+10	1
4902549	66	C	06/08/2022	02:04	-131.449	47.634	0	42.00	0	9.5020	0	32.2390	0	24.879	0	41.645	0	275.5	4	97.3	4	-1E+10	1	-1E+10	1	-1E+10	1	-1E+10	1	-1E+10	1	-1E+10	1
4902549	66	C	06/08/2022	02:04	-131.449	47.634	0	43.00	0	9.4730	0	32.2360	0	24.881	0	42.636	0	275.1	4	97.1	4	-1E+10	1	-1E+10	1	-1E+10	1	-1E+10	1	-1E+10	1	-1E+10	1
4902549	66	C	06/08/2022	02:04	-131.449	47.634	0	43.90	0	9.4280	0	32.2340	0	24.887	0	43.528	0	275.0	4	97.0	4	-1E+10	1	-1E+10	1	-1E+10	1	-1E+10	1	-1E+10	1	-1E+10	1
4902549	66	C	06/08/2022	02:04	-131.449	47.634	0	44.80	0	9.3820	0	32.2330	0	24.893	0	44.421	0	274.9	4	96.8	4	-1E+10	1	-1E+10	1	-1E+10	1	-1E+10	1	-1E+10	1	-1E+10	1
4902549	66	C	06/08/2022	02:04	-131.449	47.634	0	45.90	0	9.3390	0	32.2320	0	24.899	0	45.511	0	274.8	4	96.7	4	-1E+10	1	-1E+10	1	-1E+10	1	-1E+10	1	-1E+10	1	-1E+10	1
4902549	66	C	06/08/2022	02:04	-131.449	47.634	0	46.90	0	9.3160	0	32.2330	0	24.904	0	46.503	0	274.7	4	96.6	4	-1E+10	1	-1E+10	1	-1E+10	1	-1E+10	1	-1E+10	1	-1E+10	1
4902549	66	C	06/08/2022	02:04	-131.449	47.634	0	47.90	0	9.3150	0	32.2330	0	24.904	0	47.494	0	274.4	4	96.5	4	-1E+10	1	-1E+10	1	-1E+10	1	-1E+10	1	-1E+10	1	-1E+10	1
4902549	66	C	06/08/2022	02:04	-131.449	47.634	0	49.10	0	9.2660	0	32.2380	0	24.916	0	48.684	0	274.0	4	96.3	4	-1E+10	1	-1E+10	1	-1E+10	1	-1E+10	1	-1E+10	1	-1E+10	1
4902549	66	C	06/08/2022	02:04	-131.449	47.634	0	50.10	0	9.1750	0	32.2400	0	24.931	0	49.675	0	274.1	4	96.1	4	-1E+10	1	-1E+10	1	-1E+10	1	-1E+10	1	-1E+10	1	-1E+10	1
4902549	66	C	06/08/2022	02:04	-131.449	47.634	0	51.00	0	9.1660	0	32.2410	0	24.934	0	50.567	0	273.9	4	96.0	4	-1E+10	1	-1E+10	1	-1E+10	1	-1E+10	1	-1E+10	1	-1E+10	1
4902549	66	C	06/08/2022	02:04	-131.449	47.634	0	52.10	0	9.1250	0	32.2430	0	24.942	0	51.658	0	273.7	4	95.9	4	-1E+10	1	-1E+10	1	-1E+10	1	-1E+10	1	-1E+10	1	-1E+10	1
4902549	66	C	06/08/2022	02:04	-131.449	47.634	0	53.10	0	9.0910	0	32.2430	0	24.947	0	52.649	0	273.5	4	95.7	4	-1E+10	1	-1E+10	1	-1E+10	1	-1E+10	1	-1E+10	1	-1E+10	1
4902549	66	C	06/08/2022	02:04	-131.449	47.634	0	54.10	0	9.0550	0	32.2460	0	24.955	0	53.641	0	273.2	4	95.6	4	-1E+10	1	-1E+10	1	-1E+10	1	-1E+10	1	-1E+10	1	-1E+10	1
4902549	66	C	06/08/2022	02:04	-131.449	47.634	0	54.90	0	9.0330	0	32.2440	0	24.957	0	54.434	0	273.2	4	95.5	4	-1E+10	1	-1E+10	1	-1E+10	1	-1E+10	1	-1E+10	1	-1E+10	1
4902549	66	C	06/08/2022	02:04	-131.449	47.634	0	56.00	0	8.9660	0	32.2480	0	24.970	0	55.524	0	273.0	4	95.3	4	-1E+10	1	-1E+10	1	-1E+10	1	-1E+10	1	-1E+10	1	-1E+10	1
4902549	66	C	06/08/2022	02:04	-131.449	47.634	0	57.20	0	8.9150	0	32.2500	0	24.980	0	56.714	0	273.0	4	95.2	4	-1E+10	1	-1E+10	1	-1E+10	1	-1E+10	1	-1E+10	1	-1E+10	1
4902549	66	C	06/08/2022	02:04	-131.449	47.634	0	58.00	0	8.9010	0	32.2500	0	24.982	0	57.507	0	272.7	4	95.0	4	-1E+10	1	-1E+10	1	-1E+10	1	-1E+10	1	-1E+10	1	-1E+10	1
4902549	66	C	06/08/2022	02:04	-131.449	47.634	0	59.00	0	8.8910	0	32.2500	0	24.983	0	58.499	0	272.3	4	94.9	4	-1E+10	1	-1E+10	1	-1E+10	1	-1E+10	1	-1E+10	1	-1E+10	1
4902549	66	C	06/08/2022	02:04	-131.449	47.634	0	60.10	0	8.8350	0	32.2540	0	24.995	0	59.589	0	272.0	4	94.7	4	-1E+10	1	-1E+10	1	-1E+10	1	-1E+10	1	-1E+10	1	-1E+10	1
4902549	66	C	06/08/2022	02:04	-131.449	47.634	0	60.90	0	8.7840	0	32.2550	0	25.004	0	60.382	0	272.0	4	94.6	4	-1E+10	1	-1E+10	1	-1E+10	1	-1E+10	1	-1E+10	1	-1E+10	1
4902549	66	C	06/08/2022	02:04	-131.449	47.634	0	62.20	0	8.6920	0	32.2660	0	25.026	0	61.671	0	272.1	4	94.4	4	-1E+10	1	-1E+10	1	-1E+10	1	-1E+10	1	-1E+10	1	-1E+10	1
4902549	66	C	06/08/2022	02:04	-131.449	47.634	0	62.80	0	8.6750	0	32.2630	0	25.027	0	62.266	0	271.9	4	94.3	4	-1E+10	1	-1E+10	1	-1E+10	1	-1E+10	1	-1E+10	1	-1E+10	1
4902549	66	C	06/08/2022	02:04	-131.449	47.634	0	64.10	0	8.6490	0	32.2640	0	25.031	0	63.554	0	271.8	4	94.2	4	-1E+10	1	-1E+10	1	-1E+10	1	-1E+10	1	-1E+10	1	-1E+10	1
4902549	66	C	06/08/2022	02:04	-131.449	47.634	0	65.20	0	8.6430	0	32.2640	0	25.032	0	64.645	0	271.6	4	94.2	4	-1E+10	1	-1E+10	1	-1E+10	1	-1E+10	1	-1E+10	1	-1E+10	1
4902549	66	C	06/08/2022	02:04	-131.449	47.634	0	65.80	0	8.6300	0	32.2640	0	25.034	0	65.240	0	271.4	4	94.1	4	-1E+10	1	-1E+10	1	-1E+10	1	-1E+10	1	-1E+10	1	-1E+10	1
4902549	66	C	06/08/2022	02:04	-131.449	47.634	0	66.90	0	8.6010	0	32.2680	0	25.042	0	66.330	0	271.2	4	93.9	4	-1E+10	1	-1E+10	1	-1E+10	1	-1E+10	1	-1E+10	1	-1E+10	1
4902549	66	C	06/08/2022	02:04	-131.449	47.634	0	68.10	0	8.5620	0	32.2720	0	25.051	0	67.520	0	271.0	4	93.8	4	-1E+10	1	-1E+10	1	-1E+10	1	-1E+10	1	-1E+10	1	-1E+10	1
4902549	66	C	06/08/2022	02:04	-131.449	47.634	0	69.00	0	8.5410	0	32.2740	0	25.055	0	68.412	0	270.8	4	93.6	4	-1E+10	1	-1E+10	1	-1E+10	1	-1E+10	1	-1E+10	1	-1E+10	1
4902549	66	C	06/08/2022	02:04	-131.449	47.634	0	69.90	0	8.5170	0	32.2760	0	25.061	0	69.304	0	270.5	4	93.5	4	-1E+10	1	-1E+10	1	-1E+10	1	-1E+10	1	-1E+10	1	-1E+10	1
4902549	66	C	06/08/2022	02:04	-131.449	47.634	0	71.00	0	8.4680	0	32.2790	0	25.070	0	70.394	0	270.0	4	93.2	4	-1E+10	1	-1E+10	1	-1E+10	1	-1E+10	1	-1E+10	1	-1E+10	1
4902549	66	C	06/08/2022	02:04	-131.449	47.634	0	72.10	0	8.4370	0	32.2800	0	25.076	0	71.485	0	269.4	4	93.0	4	-1E+10	1	-1E+10	1	-1E+10	1	-1E+10	1	-1E+10	1	-1E+10	1
4902549	66	C	06/08/2022	02:04	-131.449	47.634	0	73.20	0	8.4180	0	32.2810	0	25.079	0	72.575	0	268.7	4	92.7	4	-1E+10	1	-1E+10	1	-1E+10	1	-1E+10	1	-1E+10	1	-1E+10	1
4902549	66	C	06/08/2022	02:04	-131.449	47.634	0	74.00	0	8.3650	0	32.2840	0	25.089	0	73.368	0	268.2	4	92.4	4	-1E+10	1	-1E+10	1	-1E+10	1	-1E+10	1	-1E+10	1	-1E+10	1
4902549	66	C	06/08/2022	02:04	-131.449	47.634	0	75.30	0	8.3040	0	32.2850	0	25.099	0	74.657	0	267.4	4	92.0	4	-1E+10	1	-1E+10	1	-1E+10	1	-1E+10	1	-1E+10	1	-1E+10	1
4902549	66	C	06/08/2022	02:04	-131.449	47.634	0	75.90	0	8.2670	0	32.2930	0	25.111	0	75.252	0	266.8	4	91.7	4	-1E+10	1	-1E+10	1	-1E+10	1	-1E+10	1	-1E+10	1	-1E+10	1
4902549	66	C	06/08/2022	02:04	-131.449	47.634	0	76.80	0	8.2450	0	32.2930	0	25.114	0	76.144	0	266.1	4	91.4	4	-1E+10	1	-1E+10	1	-1E+10	1	-1E+10	1	-1E+10	1	-1E+10	1
4902549	66	C	06/08/2022	02:04	-131.449	47.634	0	77.70	0	8.2130	0	32.2950	0	25.121	0	77.036	0	265.1	4	91.0	4	-1E+10	1	-1E+10	1	-1E+10	1	-1E+10	1	-1E+10	1	-1E+10	1
4902549	66	C	06/08/2022	02:04	-131.449	47.634	0	78.70	0	8.1580	0	32.3020	0	25.134	0	78.027	0	264.2	4	90.6	4	-1E+10	1	-1E+10	1	-1E+10	1	-1E+10	1	-1E+10	1	-1E+10	1
4902549	66	C	06/08/2022	02:04	-131.449	47.634	0	79.70	0	8.0830	0	32.3170	0	25.157	0	79.019	0	263.8	4	90.3	4	-1E+10	1	-1E+10	1	-1E+10	1	-1E+10	1	-1E+10	1	-1E+10	1
4902549	66	C	06/08/2022	02:04	-131.449	47.634	0	80.90	0	8.0240	0	32.3270	0	25.173	0	80.208	0	263.2	4	90.0	4	-1E+10	1	-1E+10	1	-1E+10	1	-1E+10	1	-1E+10	1	-1E+10	1
4902549	66	C	06/08/2022	02:04	-131.449	47.634	0	82.10	0	7.9580	0	32.3430	0	25.195	0	81.398	0	262.8	4	89.7	4	-1E+10	1	-1E+10	1	-1E+10	1	-1E+10	1	-1E+10	1	-1E+10	1
4902549	66	C	06/08/2022	02:04	-131.449	47.634	0	83.10	0	7.9540	0	32.3430	0	25.196	0	82.389	0	269.0	4	91.9	4	-1E+10	1	-1E+10	1	-1E+10	1	-1E+10	1	-1E+10	1	-1E+10	1
4902549	66	C	06/08/2022	02:04	-131.449	47.634	0	83.90	0	7.9540	0	32.3430	0	25.196	0	83.182	0	268.3	4	91.6	4	-1E+10	1	-1E+10	1	-1E+10	1	-1E+10	1	-1E+10	1	-1E+10	1
4902549	66	C	06/08/2022	02:04	-131.449	47.634	0	85.00	0	7.9520	0	32.3430	0	25.196	0	84.272	0	267.2	4	91.3	4	-1E+10	1	-1E+10	1	-1E+10	1	-1E+10	1	-1E+10	1	-1E+10	1
4902549	66	C	06/08/2022	02:04	-131.449	47.634	0	86.10	0	7.9410	0	32.3460	0	25.200	0	85.363	0	265.9	4	90.8	4	-1E+10	1	-1E+10	1	-1E+10	1	-1E+10	1	-1E+10	1	-1E+10	1
4902549	66	C	06/08/2022	02:04	-131.449	47.634	0	87.00	0	7.9180	0	32.3530	0	25.209	0	86.255	0	264.2	4	90.2	4	-1E+10	1	-1E+10	1	-1E+10	1	-1E+10	1	-1E+10	1	-1E+10	1
4902549	66	C	06/08/2022	02:04	-131.449	47.634	0	88.10	0	7.8920	0	32.3610	0	25.219	0	87.345	0	262.0	4	89.4	4	-1E+10	1	-1E+10	1	-1E+10	1	-1E+10	1	-1E+10	1	-1E+10	1
4902549	66	C	06/08/2022	02:04	-131.449	47.634	0	88.90	0	7.8680	0	32.3670	0	25.227	0	88.138	0	260.3	4	88.7	4	-1E+10	1	-1E+10	1	-1E+10	1	-1E+10	1	-1E+10	1	-1E+10	1
4902549	66	C	06/08/2022	02:04	-131.449	47.634	0	90.00	0	7.8340	0	32.3760	0	25.239	0	89.228	0	258.1	4	87.9	4	-1E+10	1	-1E+10	1	-1E+10	1	-1E+10	1	-1E+10	1	-1E+10	1
4902549	66	C	06/08/2022	02:04	-131.449	47.634	0	90.80	0	7.8090	0	32.3820	0	25.247	0	90.021	0	256.1	4	87.2	4	-1E+10	1	-1E+10	1	-1E+10	1	-1E+10	1	-1E+10	1	-1E+10	1
4902549	66	C	06/08/2022	02:04	-131.449	47.634	0	91.90	0	7.7000	0	32.4240	0	25.296	0	91.112	0	254.6	4	86.5	4	-1E+10	1	-1E+10	1	-1E+10	1	-1E+10	1	-1E+10	1	-1E+10	1
4902549	66	C	06/08/2022	02:04	-131.449	47.634	0	93.00	0	7.6300	0	32.4540	0	25.329	0	92.202	0	253.4	4	86.0	4	-1E+10	1	-1E+10	1	-1E+10	1	-1E+10	1	-1E+10	1	-1E+10	1
4902549	66	C	06/08/2022	02:04	-131.449	47.634	0	94.20	0	7.6160	0	32.4630	0	25.338	0	93.391	0	251.7	4	85.4	4	-1E+10	1	-1E+10	1	-1E+10	1	-1E+10	1	-1E+10	1	-1E+10	1
4902549	66	C	06/08/2022	02:04	-131.449	47.634	0	94.90	0	7.6090	0	32.4650	0	25.341	0	94.085	0	250.2	4	84.9	4	-1E+10	1	-1E+10	1	-1E+10	1	-1E+10	1	-1E+10	1	-1E+10	1
4902549	66	C	06/08/2022	02:04	-131.449	47.634	0	96.00	0	7.5830	0	32.4890	0	25.363	0	95.175	0	247.8	4	84.0	4	-1E+10	1	-1E+10	1	-1E+10	1	-1E+10	1	-1E+10	1	-1E+10	1
4902549	66	C	06/08/2022	02:04	-131.449	47.634	0	97.20	0	7.5610	0	32.5110	0	25.383	0	96.365	0	244.8	4	82.9	4	-1E+10	1	-1E+10	1	-1E+10	1	-1E+10	1	-1E+10	1	-1E+10	1
4902549	66	C	06/08/2022	02:04	-131.449	47.634	0	97.90	0	7.5480	0	32.5370	0	25.406	0	97.059	0	242.6	4	82.2	4	-1E+10	1	-1E+10	1	-1E+10	1	-1E+10	1	-1E+10	1	-1E+10	1
4902549	66	C	06/08/2022	02:04	-131.449	47.634	0	99.10	0	7.5420	0	32.5540	0	25.420	0	98.248	0	240.0	4	81.3	4	-1E+10	1	-1E+10	1	-1E+10	1	-1E+10	1	-1E+10	1	-1E+10	1
4902549	66	C	06/08/2022	02:04	-131.449	47.634	0	100.00	0	7.5370	0	32.5810	0	25.442	0	99.140	0	238.2	4	80.7	4	-1E+10	1	-1E+10	1	-1E+10	1	-1E+10	1	-1E+10	1	-1E+10	1
4902549	66	C	06/08/2022	02:04	-131.449	47.634	0	101.30	0	7.5420	0	32.6100	0	25.464	0	100.429	0	235.3	4	79.8	4	-1E+10	1	-1E+10	1	-1E+10	1	-1E+10	1	-1E+10	1	-1E+10	1
4902549	66	C	06/08/2022	02:04	-131.449	47.634	0	102.00	0	7.5460	0	32.6450	0	25.491	0	101.122	0	234.1	4	79.4	4	-1E+10	1	-1E+10	1	-1E+10	1	-1E+10	1	-1E+10	1	-1E+10	1
4902549	66	C	06/08/2022	02:04	-131.449	47.634	0	103.00	0	7.5440	0	32.6820	0	25.520	0	102.114	0	232.8	4	79.0	4	-1E+10	1	-1E+10	1	-1E+10	1	-1E+10	1	-1E+10	1	-1E+10	1
4902549	66	C	06/08/2022	02:04	-131.449	47.634	0	104.10	0	7.5280	0	32.7060	0	25.541	0	103.204	0	231.6	4	78.5	4	-1E+10	1	-1E+10	1	-1E+10	1	-1E+10	1	-1E+10	1	-1E+10	1
4902549	66	C	06/08/2022	02:04	-131.449	47.634	0	105.10	0	7.5220	0	32.7120	0	25.547	0	104.195	0	230.2	4	78.1	4	-1E+10	1	-1E+10	1	-1E+10	1	-1E+10	1	-1E+10	1	-1E+10	1
4902549	66	C	06/08/2022	02:04	-131.449	47.634	0	106.10	0	7.5190	0	32.7150	0	25.550	0	105.186	0	228.5	4	77.5	4	-1E+10	1	-1E+10	1	-1E+10	1	-1E+10	1	-1E+10	1	-1E+10	1
4902549	66	C	06/08/2022	02:04	-131.449	47.634	0	107.20	0	7.5130	0	32.7230	0	25.557	0	106.276	0	226.0	4	76.6	4	-1E+10	1	-1E+10	1	-1E+10	1	-1E+10	1	-1E+10	1	-1E+10	1
4902549	66	C	06/08/2022	02:04	-131.449	47.634	0	107.90	0	7.5110	0	32.7390	0	25.570	0	106.970	0	224.0	4	76.0	4	-1E+10	1	-1E+10	1	-1E+10	1	-1E+10	1	-1E+10	1	-1E+10	1
4902549	66	C	06/08/2022	02:04	-131.449	47.634	0	108.90	0	7.5090	0	32.7580	0	25.585	0	107.961	0	221.2	4	75.0	4	-1E+10	1	-1E+10	1	-1E+10	1	-1E+10	1	-1E+10	1	-1E+10	1
4902549	66	C	06/08/2022	02:04	-131.449	47.634	0	109.90	0	7.5100	0	32.7680	0	25.593	0	108.952	0	219.0	4	74.3	4	-1E+10	1	-1E+10	1	-1E+10	1	-1E+10	1	-1E+10	1	-1E+10	1
4902549	66	C	06/08/2022	02:04	-131.449	47.634	0	111.00	0	7.5130	0	32.8110	0	25.626	0	110.043	0	216.6	4	73.5	4	-1E+10	1	-1E+10	1	-1E+10	1	-1E+10	1	-1E+10	1	-1E+10	1
4902549	66	C	06/08/2022	02:04	-131.449	47.634	0	112.30	0	7.5160	0	32.8380	0	25.647	0	111.331	0	214.3	4	72.7	4	-1E+10	1	-1E+10	1	-1E+10	1	-1E+10	1	-1E+10	1	-1E+10	1
4902549	66	C	06/08/2022	02:04	-131.449	47.634	0	112.90	0	7.5120	0	32.8520	0	25.659	0	111.926	0	213.4	4	72.4	4	-1E+10	1	-1E+10	1	-1E+10	1	-1E+10	1	-1E+10	1	-1E+10	1
4902549	66	C	06/08/2022	02:04	-131.449	47.634	0	113.80	0	7.5090	0	32.8570	0	25.663	0	112.818	0	211.7	4	71.8	4	-1E+10	1	-1E+10	1	-1E+10	1	-1E+10	1	-1E+10	1	-1E+10	1
4902549	66	C	06/08/2022	02:04	-131.449	47.634	0	114.80	0	7.5050	0	32.8730	0	25.676	0	113.809	0	209.9	4	71.2	4	-1E+10	1	-1E+10	1	-1E+10	1	-1E+10	1	-1E+10	1	-1E+10	1
4902549	66	C	06/08/2022	02:04	-131.449	47.634	0	115.80	0	7.4990	0	32.8940	0	25.693	0	114.800	0	208.0	4	70.6	4	-1E+10	1	-1E+10	1	-1E+10	1	-1E+10	1	-1E+10	1	-1E+10	1
4902549	66	C	06/08/2022	02:04	-131.449	47.634	0	116.80	0	7.4970	0	32.9080	0	25.705	0	115.791	0	205.9	4	69.9	4	-1E+10	1	-1E+10	1	-1E+10	1	-1E+10	1	-1E+10	1	-1E+10	1
4902549	66	C	06/08/2022	02:04	-131.449	47.634	0	117.80	0	7.4950	0	32.9210	0	25.715	0	116.782	0	203.6	4	69.1	4	-1E+10	1	-1E+10	1	-1E+10	1	-1E+10	1	-1E+10	1	-1E+10	1
4902549	66	C	06/08/2022	02:04	-131.449	47.634	0	118.90	0	7.4950	0	32.9480	0	25.736	0	117.872	0	201.3	4	68.3	4	-1E+10	1	-1E+10	1	-1E+10	1	-1E+10	1	-1E+10	1	-1E+10	1
4902549	66	C	06/08/2022	02:04	-131.449	47.634	0	119.90	0	7.4940	0	32.9740	0	25.757	0	118.863	0	199.1	4	67.6	4	-1E+10	1	-1E+10	1	-1E+10	1	-1E+10	1	-1E+10	1	-1E+10	1
4902549	66	C	06/08/2022	02:04	-131.449	47.634	0	121.00	0	7.4930	0	32.9850	0	25.766	0	119.953	0	196.7	4	66.8	4	-1E+10	1	-1E+10	1	-1E+10	1	-1E+10	1	-1E+10	1	-1E+10	1
4902549	66	C	06/08/2022	02:04	-131.449	47.634	0	122.00	0	7.4920	0	33.0030	0	25.780	0	120.945	0	193.9	4	65.8	4	-1E+10	1	-1E+10	1	-1E+10	1	-1E+10	1	-1E+10	1	-1E+10	1
4902549	66	C	06/08/2022	02:04	-131.449	47.634	0	123.10	0	7.4910	0	33.0260	0	25.798	0	122.035	0	190.9	4	64.8	4	-1E+10	1	-1E+10	1	-1E+10	1	-1E+10	1	-1E+10	1	-1E+10	1
4902549	66	C	06/08/2022	02:04	-131.449	47.634	0	124.10	0	7.4900	0	33.0710	0	25.834	0	123.026	0	188.3	4	64.0	4	-1E+10	1	-1E+10	1	-1E+10	1	-1E+10	1	-1E+10	1	-1E+10	1
4902549	66	C	06/08/2022	02:04	-131.449	47.634	0	125.00	0	7.4890	0	33.1040	0	25.860	0	123.918	0	186.5	4	63.4	4	-1E+10	1	-1E+10	1	-1E+10	1	-1E+10	1	-1E+10	1	-1E+10	1
4902549	66	C	06/08/2022	02:04	-131.449	47.634	0	125.90	0	7.4820	0	33.1380	0	25.888	0	124.810	0	185.0	4	62.9	4	-1E+10	1	-1E+10	1	-1E+10	1	-1E+10	1	-1E+10	1	-1E+10	1
4902549	66	C	06/08/2022	02:04	-131.449	47.634	0	127.10	0	7.4550	0	33.2050	0	25.944	0	125.999	0	183.2	4	62.3	4	-1E+10	1	-1E+10	1	-1E+10	1	-1E+10	1	-1E+10	1	-1E+10	1
4902549	66	C	06/08/2022	02:04	-131.449	47.634	0	128.00	0	7.4480	0	33.2230	0	25.959	0	126.891	0	181.6	4	61.7	4	-1E+10	1	-1E+10	1	-1E+10	1	-1E+10	1	-1E+10	1	-1E+10	1
4902549	66	C	06/08/2022	02:04	-131.449	47.634	0	128.90	0	7.4480	0	33.2370	0	25.970	0	127.783	0	180.0	4	61.2	4	-1E+10	1	-1E+10	1	-1E+10	1	-1E+10	1	-1E+10	1	-1E+10	1
4902549	66	C	06/08/2022	02:04	-131.449	47.634	0	130.10	0	7.4460	0	33.2680	0	25.995	0	128.972	0	177.6	4	60.4	4	-1E+10	1	-1E+10	1	-1E+10	1	-1E+10	1	-1E+10	1	-1E+10	1
4902549	66	C	06/08/2022	02:04	-131.449	47.634	0	130.90	0	7.4560	0	33.2760	0	26.000	0	129.765	0	175.8	4	59.8	4	-1E+10	1	-1E+10	1	-1E+10	1	-1E+10	1	-1E+10	1	-1E+10	1
4902549	66	C	06/08/2022	02:04	-131.449	47.634	0	131.90	0	7.4680	0	33.3010	0	26.018	0	130.756	0	174.3	4	59.3	4	-1E+10	1	-1E+10	1	-1E+10	1	-1E+10	1	-1E+10	1	-1E+10	1
4902549	66	C	06/08/2022	02:04	-131.449	47.634	0	132.90	0	7.4750	0	33.3340	0	26.043	0	131.747	0	173.1	4	58.9	4	-1E+10	1	-1E+10	1	-1E+10	1	-1E+10	1	-1E+10	1	-1E+10	1
4902549	66	C	06/08/2022	02:04	-131.449	47.634	0	133.80	0	7.4740	0	33.3370	0	26.045	0	132.639	0	171.9	4	58.5	4	-1E+10	1	-1E+10	1	-1E+10	1	-1E+10	1	-1E+10	1	-1E+10	1
4902549	66	C	06/08/2022	02:04	-131.449	47.634	0	134.90	0	7.4700	0	33.3520	0	26.058	0	133.729	0	170.6	4	58.0	4	-1E+10	1	-1E+10	1	-1E+10	1	-1E+10	1	-1E+10	1	-1E+10	1
4902549	66	C	06/08/2022	02:04	-131.449	47.634	0	136.00	0	7.4560	0	33.3950	0	26.094	0	134.819	0	169.4	4	57.7	4	-1E+10	1	-1E+10	1	-1E+10	1	-1E+10	1	-1E+10	1	-1E+10	1
4902549	66	C	06/08/2022	02:04	-131.449	47.634	0	137.10	0	7.4430	0	33.4250	0	26.119	0	135.909	0	168.3	4	57.3	4	-1E+10	1	-1E+10	1	-1E+10	1	-1E+10	1	-1E+10	1	-1E+10	1
4902549	66	C	06/08/2022	02:04	-131.449	47.634	0	137.80	0	7.4420	0	33.4290	0	26.122	0	136.603	0	167.5	4	57.0	4	-1E+10	1	-1E+10	1	-1E+10	1	-1E+10	1	-1E+10	1	-1E+10	1
4902549	66	C	06/08/2022	02:04	-131.449	47.634	0	138.90	0	7.4400	0	33.4360	0	26.128	0	137.693	0	166.2	4	56.6	4	-1E+10	1	-1E+10	1	-1E+10	1	-1E+10	1	-1E+10	1	-1E+10	1
4902549	66	C	06/08/2022	02:04	-131.449	47.634	0	140.00	0	7.4320	0	33.4510	0	26.141	0	138.783	0	164.7	4	56.0	4	-1E+10	1	-1E+10	1	-1E+10	1	-1E+10	1	-1E+10	1	-1E+10	1
4902549	66	C	06/08/2022	02:04	-131.449	47.634	0	140.80	0	7.4260	0	33.4580	0	26.147	0	139.576	0	163.4	4	55.6	4	-1E+10	1	-1E+10	1	-1E+10	1	-1E+10	1	-1E+10	1	-1E+10	1
4902549	66	C	06/08/2022	02:04	-131.449	47.634	0	141.90	0	7.4270	0	33.4700	0	26.157	0	140.666	0	161.3	4	54.9	4	-1E+10	1	-1E+10	1	-1E+10	1	-1E+10	1	-1E+10	1	-1E+10	1
4902549	66	C	06/08/2022	02:04	-131.449	47.634	0	143.10	0	7.4600	0	33.4890	0	26.167	0	141.855	0	159.7	4	54.4	4	-1E+10	1	-1E+10	1	-1E+10	1	-1E+10	1	-1E+10	1	-1E+10	1
4902549	66	C	06/08/2022	02:04	-131.449	47.634	0	143.80	0	7.4400	0	33.5140	0	26.190	0	142.548	0	159.2	4	54.2	4	-1E+10	1	-1E+10	1	-1E+10	1	-1E+10	1	-1E+10	1	-1E+10	1
4902549	66	C	06/08/2022	02:04	-131.449	47.634	0	144.70	0	7.4320	0	33.5540	0	26.222	0	143.440	0	158.9	4	54.1	4	-1E+10	1	-1E+10	1	-1E+10	1	-1E+10	1	-1E+10	1	-1E+10	1
4902549	66	C	06/08/2022	02:04	-131.449	47.634	0	145.90	0	7.4070	0	33.5770	0	26.244	0	144.629	0	158.5	4	53.9	4	-1E+10	1	-1E+10	1	-1E+10	1	-1E+10	1	-1E+10	1	-1E+10	1
4902549	66	C	06/08/2022	02:04	-131.449	47.634	0	147.20	0	7.3770	0	33.6120	0	26.276	0	145.918	0	158.1	4	53.8	4	-1E+10	1	-1E+10	1	-1E+10	1	-1E+10	1	-1E+10	1	-1E+10	1
4902549	66	C	06/08/2022	02:04	-131.449	47.634	0	148.10	0	7.3750	0	33.6210	0	26.283	0	146.809	0	157.7	4	53.7	4	-1E+10	1	-1E+10	1	-1E+10	1	-1E+10	1	-1E+10	1	-1E+10	1
4902549	66	C	06/08/2022	02:04	-131.449	47.634	0	149.00	0	7.3650	0	33.6340	0	26.295	0	147.701	0	157.6	4	53.6	4	-1E+10	1	-1E+10	1	-1E+10	1	-1E+10	1	-1E+10	1	-1E+10	1
4902549	66	C	06/08/2022	02:04	-131.449	47.634	0	149.90	0	7.3660	0	33.6360	0	26.296	0	148.593	0	157.5	4	53.6	4	-1E+10	1	-1E+10	1	-1E+10	1	-1E+10	1	-1E+10	1	-1E+10	1
4902549	66	C	06/08/2022	02:04	-131.449	47.634	0	150.80	0	7.3660	0	33.6360	0	26.296	0	149.485	0	157.3	4	53.5	4	-1E+10	1	-1E+10	1	-1E+10	1	-1E+10	1	-1E+10	1	-1E+10	1
4902549	66	C	06/08/2022	02:04	-131.449	47.634	0	151.60	0	7.3660	0	33.6370	0	26.297	0	150.278	0	157.3	4	53.5	4	-1E+10	1	-1E+10	1	-1E+10	1	-1E+10	1	-1E+10	1	-1E+10	1
4902549	66	C	06/08/2022	02:04	-131.449	47.634	0	152.90	0	7.3610	0	33.6470	0	26.305	0	151.566	0	157.3	4	53.5	4	-1E+10	1	-1E+10	1	-1E+10	1	-1E+10	1	-1E+10	1	-1E+10	1
4902549	66	C	06/08/2022	02:04	-131.449	47.634	0	154.30	0	7.3500	0	33.6590	0	26.316	0	152.953	0	157.8	4	53.7	4	-1E+10	1	-1E+10	1	-1E+10	1	-1E+10	1	-1E+10	1	-1E+10	1
4902549	66	C	06/08/2022	02:04	-131.449	47.634	0	155.20	0	7.3470	0	33.6610	0	26.318	0	153.845	0	158.1	4	53.8	4	-1E+10	1	-1E+10	1	-1E+10	1	-1E+10	1	-1E+10	1	-1E+10	1
4902549	66	C	06/08/2022	02:04	-131.449	47.634	0	156.10	0	7.3400	0	33.6660	0	26.323	0	154.737	0	158.7	4	54.0	4	-1E+10	1	-1E+10	1	-1E+10	1	-1E+10	1	-1E+10	1	-1E+10	1
4902549	66	C	06/08/2022	02:04	-131.449	47.634	0	157.00	0	7.3210	0	33.6830	0	26.339	0	155.629	0	159.6	4	54.3	4	-1E+10	1	-1E+10	1	-1E+10	1	-1E+10	1	-1E+10	1	-1E+10	1
4902549	66	C	06/08/2022	02:04	-131.449	47.634	0	158.00	0	7.3150	0	33.6800	0	26.338	0	156.619	0	160.4	4	54.5	4	-1E+10	1	-1E+10	1	-1E+10	1	-1E+10	1	-1E+10	1	-1E+10	1
4902549	66	C	06/08/2022	02:04	-131.449	47.634	0	158.90	0	7.2850	0	33.6840	0	26.345	0	157.511	0	160.8	4	54.6	4	-1E+10	1	-1E+10	1	-1E+10	1	-1E+10	1	-1E+10	1	-1E+10	1
4902549	66	C	06/08/2022	02:04	-131.449	47.634	0	159.80	0	7.2760	0	33.6970	0	26.357	0	158.403	0	161.4	4	54.8	4	-1E+10	1	-1E+10	1	-1E+10	1	-1E+10	1	-1E+10	1	-1E+10	1
4902549	66	C	06/08/2022	02:04	-131.449	47.634	0	160.80	0	7.2480	0	33.6920	0	26.357	0	159.394	0	161.6	4	54.8	4	-1E+10	1	-1E+10	1	-1E+10	1	-1E+10	1	-1E+10	1	-1E+10	1
4902549	66	C	06/08/2022	02:04	-131.449	47.634	0	161.70	0	7.2330	0	33.6900	0	26.357	0	160.286	0	161.2	4	54.7	4	-1E+10	1	-1E+10	1	-1E+10	1	-1E+10	1	-1E+10	1	-1E+10	1
4902549	66	C	06/08/2022	02:04	-131.449	47.634	0	162.70	0	7.2190	0	33.6980	0	26.365	0	161.277	0	160.7	4	54.5	4	-1E+10	1	-1E+10	1	-1E+10	1	-1E+10	1	-1E+10	1	-1E+10	1
4902549	66	C	06/08/2022	02:04	-131.449	47.634	0	163.60	0	7.1980	0	33.7010	0	26.371	0	162.168	0	159.9	4	54.2	4	-1E+10	1	-1E+10	1	-1E+10	1	-1E+10	1	-1E+10	1	-1E+10	1
4902549	66	C	06/08/2022	02:04	-131.449	47.634	0	164.60	0	7.1900	0	33.7070	0	26.376	0	163.159	0	158.9	4	53.9	4	-1E+10	1	-1E+10	1	-1E+10	1	-1E+10	1	-1E+10	1	-1E+10	1
4902549	66	C	06/08/2022	02:04	-131.449	47.634	0	165.60	0	7.1960	0	33.7120	0	26.380	0	164.150	0	158.1	4	53.6	4	-1E+10	1	-1E+10	1	-1E+10	1	-1E+10	1	-1E+10	1	-1E+10	1
4902549	66	C	06/08/2022	02:04	-131.449	47.634	0	166.50	0	7.1760	0	33.7220	0	26.390	0	165.042	0	157.3	4	53.3	4	-1E+10	1	-1E+10	1	-1E+10	1	-1E+10	1	-1E+10	1	-1E+10	1
4902549	66	C	06/08/2022	02:04	-131.449	47.634	0	167.50	0	7.1740	0	33.7220	0	26.391	0	166.033	0	156.4	4	53.0	4	-1E+10	1	-1E+10	1	-1E+10	1	-1E+10	1	-1E+10	1	-1E+10	1
4902549	66	C	06/08/2022	02:04	-131.449	47.634	0	168.50	0	7.1730	0	33.7240	0	26.392	0	167.023	0	155.4	4	52.7	4	-1E+10	1	-1E+10	1	-1E+10	1	-1E+10	1	-1E+10	1	-1E+10	1
4902549	66	C	06/08/2022	02:04	-131.449	47.634	0	169.50	0	7.1680	0	33.7320	0	26.399	0	168.014	0	154.6	4	52.4	4	-1E+10	1	-1E+10	1	-1E+10	1	-1E+10	1	-1E+10	1	-1E+10	1
4902549	66	C	06/08/2022	02:04	-131.449	47.634	0	170.50	0	7.1760	0	33.7490	0	26.412	0	169.005	0	154.4	4	52.3	4	-1E+10	1	-1E+10	1	-1E+10	1	-1E+10	1	-1E+10	1	-1E+10	1
4902549	66	C	06/08/2022	02:04	-131.449	47.634	0	171.60	0	7.1700	0	33.7500	0	26.413	0	170.095	0	154.7	4	52.4	4	-1E+10	1	-1E+10	1	-1E+10	1	-1E+10	1	-1E+10	1	-1E+10	1
4902549	66	C	06/08/2022	02:04	-131.449	47.634	0	172.60	0	7.1490	0	33.7580	0	26.422	0	171.086	0	155.0	4	52.5	4	-1E+10	1	-1E+10	1	-1E+10	1	-1E+10	1	-1E+10	1	-1E+10	1
4902549	66	C	06/08/2022	02:04	-131.449	47.634	0	173.60	0	7.1140	0	33.7630	0	26.431	0	172.077	0	155.1	4	52.5	4	-1E+10	1	-1E+10	1	-1E+10	1	-1E+10	1	-1E+10	1	-1E+10	1
4902549	66	C	06/08/2022	02:04	-131.449	47.634	0	174.70	0	7.0930	0	33.7580	0	26.430	0	173.167	0	154.9	4	52.4	4	-1E+10	1	-1E+10	1	-1E+10	1	-1E+10	1	-1E+10	1	-1E+10	1
4902549	66	C	06/08/2022	02:04	-131.449	47.634	0	175.70	0	7.0920	0	33.7580	0	26.430	0	174.157	0	154.4	4	52.2	4	-1E+10	1	-1E+10	1	-1E+10	1	-1E+10	1	-1E+10	1	-1E+10	1
4902549	66	C	06/08/2022	02:04	-131.449	47.634	0	176.70	0	7.0900	0	33.7580	0	26.431	0	175.148	0	153.9	4	52.1	4	-1E+10	1	-1E+10	1	-1E+10	1	-1E+10	1	-1E+10	1	-1E+10	1
4902549	66	C	06/08/2022	02:04	-131.449	47.634	0	177.80	0	7.0780	0	33.7710	0	26.442	0	176.238	0	153.9	4	52.1	4	-1E+10	1	-1E+10	1	-1E+10	1	-1E+10	1	-1E+10	1	-1E+10	1
4902549	66	C	06/08/2022	02:04	-131.449	47.634	0	178.80	0	7.0640	0	33.7670	0	26.441	0	177.229	0	153.7	4	52.0	4	-1E+10	1	-1E+10	1	-1E+10	1	-1E+10	1	-1E+10	1	-1E+10	1
4902549	66	C	06/08/2022	02:04	-131.449	47.634	0	179.80	0	7.0500	0	33.7690	0	26.445	0	178.220	0	153.4	4	51.9	4	-1E+10	1	-1E+10	1	-1E+10	1	-1E+10	1	-1E+10	1	-1E+10	1
4902549	66	C	06/08/2022	02:04	-131.449	47.634	0	180.80	0	7.0450	0	33.7700	0	26.446	0	179.210	0	152.9	4	51.7	4	-1E+10	1	-1E+10	1	-1E+10	1	-1E+10	1	-1E+10	1	-1E+10	1
4902549	66	C	06/08/2022	02:04	-131.449	47.634	0	181.90	0	7.0290	0	33.7690	0	26.448	0	180.300	0	152.2	4	51.4	4	-1E+10	1	-1E+10	1	-1E+10	1	-1E+10	1	-1E+10	1	-1E+10	1
4902549	66	C	06/08/2022	02:04	-131.449	47.634	0	182.90	0	7.0130	0	33.7710	0	26.451	0	181.291	0	151.4	4	51.2	4	-1E+10	1	-1E+10	1	-1E+10	1	-1E+10	1	-1E+10	1	-1E+10	1
4902549	66	C	06/08/2022	02:04	-131.449	47.634	0	183.90	0	7.0010	0	33.7750	0	26.456	0	182.282	0	150.4	4	50.8	4	-1E+10	1	-1E+10	1	-1E+10	1	-1E+10	1	-1E+10	1	-1E+10	1
4902549	66	C	06/08/2022	02:04	-131.449	47.634	0	185.00	0	6.9820	0	33.7780	0	26.461	0	183.372	0	149.4	4	50.4	4	-1E+10	1	-1E+10	1	-1E+10	1	-1E+10	1	-1E+10	1	-1E+10	1
4902549	66	C	06/08/2022	02:04	-131.449	47.634	0	186.00	0	6.9460	0	33.7850	0	26.472	0	184.362	0	148.2	4	50.0	4	-1E+10	1	-1E+10	1	-1E+10	1	-1E+10	1	-1E+10	1	-1E+10	1
4902549	66	C	06/08/2022	02:04	-131.449	47.634	0	187.00	0	6.9270	0	33.7860	0	26.475	0	185.353	0	147.2	4	49.6	4	-1E+10	1	-1E+10	1	-1E+10	1	-1E+10	1	-1E+10	1	-1E+10	1
4902549	66	C	06/08/2022	02:04	-131.449	47.634	0	188.00	0	6.8840	0	33.7980	0	26.490	0	186.344	0	146.7	4	49.4	4	-1E+10	1	-1E+10	1	-1E+10	1	-1E+10	1	-1E+10	1	-1E+10	1
4902549	66	C	06/08/2022	02:04	-131.449	47.634	0	189.10	0	6.8720	0	33.7980	0	26.492	0	187.434	0	146.0	4	49.2	4	-1E+10	1	-1E+10	1	-1E+10	1	-1E+10	1	-1E+10	1	-1E+10	1
4902549	66	C	06/08/2022	02:04	-131.449	47.634	0	190.20	0	6.8610	0	33.8020	0	26.496	0	188.523	0	145.4	4	48.9	4	-1E+10	1	-1E+10	1	-1E+10	1	-1E+10	1	-1E+10	1	-1E+10	1
4902549	66	C	06/08/2022	02:04	-131.449	47.634	0	191.20	0	6.8500	0	33.8040	0	26.500	0	189.514	0	144.9	4	48.8	4	-1E+10	1	-1E+10	1	-1E+10	1	-1E+10	1	-1E+10	1	-1E+10	1
4902549	66	C	06/08/2022	02:04	-131.449	47.634	0	192.20	0	6.8280	0	33.8000	0	26.499	0	190.505	0	144.3	4	48.5	4	-1E+10	1	-1E+10	1	-1E+10	1	-1E+10	1	-1E+10	1	-1E+10	1
4902549	66	C	06/08/2022	02:04	-131.449	47.634	0	193.30	0	6.8120	0	33.8060	0	26.506	0	191.595	0	143.8	4	48.4	4	-1E+10	1	-1E+10	1	-1E+10	1	-1E+10	1	-1E+10	1	-1E+10	1
4902549	66	C	06/08/2022	02:04	-131.449	47.634	0	194.30	0	6.7770	0	33.8060	0	26.511	0	192.585	0	143.1	4	48.1	4	-1E+10	1	-1E+10	1	-1E+10	1	-1E+10	1	-1E+10	1	-1E+10	1
4902549	66	C	06/08/2022	02:04	-131.449	47.634	0	195.30	0	6.7420	0	33.8080	0	26.517	0	193.576	0	142.4	4	47.8	4	-1E+10	1	-1E+10	1	-1E+10	1	-1E+10	1	-1E+10	1	-1E+10	1
4902549	66	C	06/08/2022	02:04	-131.449	47.634	0	196.40	0	6.7120	0	33.8050	0	26.519	0	194.666	0	141.3	4	47.4	4	-1E+10	1	-1E+10	1	-1E+10	1	-1E+10	1	-1E+10	1	-1E+10	1
4902549	66	C	06/08/2022	02:04	-131.449	47.634	0	197.40	0	6.6900	0	33.8070	0	26.523	0	195.657	0	140.1	4	47.0	4	-1E+10	1	-1E+10	1	-1E+10	1	-1E+10	1	-1E+10	1	-1E+10	1
4902549	66	C	06/08/2022	02:04	-131.449	47.634	0	198.50	0	6.6680	0	33.8140	0	26.532	0	196.746	0	138.9	4	46.6	4	-1E+10	1	-1E+10	1	-1E+10	1	-1E+10	1	-1E+10	1	-1E+10	1
4902549	66	C	06/08/2022	02:04	-131.449	47.634	0	199.60	0	6.6590	0	33.8130	0	26.532	0	197.836	0	137.8	4	46.2	4	-1E+10	1	-1E+10	1	-1E+10	1	-1E+10	1	-1E+10	1	-1E+10	1
4902549	66	C	06/08/2022	02:04	-131.449	47.634	0	200.60	0	6.6550	0	33.8130	0	26.533	0	198.827	0	136.5	4	45.8	4	-1E+10	1	-1E+10	1	-1E+10	1	-1E+10	1	-1E+10	1	-1E+10	1
4902549	66	C	06/08/2022	02:04	-131.449	47.634	0	201.60	0	6.6550	0	33.8140	0	26.534	0	199.817	0	135.0	4	45.3	4	-1E+10	1	-1E+10	1	-1E+10	1	-1E+10	1	-1E+10	1	-1E+10	1
4902549	66	C	06/08/2022	02:04	-131.449	47.634	0	202.70	0	6.6500	0	33.8160	0	26.536	0	200.907	0	133.5	4	44.8	4	-1E+10	1	-1E+10	1	-1E+10	1	-1E+10	1	-1E+10	1	-1E+10	1
4902549	66	C	06/08/2022	02:04	-131.449	47.634	0	203.70	0	6.6300	0	33.8190	0	26.541	0	201.898	0	132.1	4	44.3	4	-1E+10	1	-1E+10	1	-1E+10	1	-1E+10	1	-1E+10	1	-1E+10	1
4902549	66	C	06/08/2022	02:04	-131.449	47.634	0	204.80	0	6.6170	0	33.8220	0	26.545	0	202.988	0	130.9	4	43.8	4	-1E+10	1	-1E+10	1	-1E+10	1	-1E+10	1	-1E+10	1	-1E+10	1
4902549	66	C	06/08/2022	02:04	-131.449	47.634	0	205.80	0	6.6170	0	33.8240	0	26.547	0	203.978	0	129.5	4	43.4	4	-1E+10	1	-1E+10	1	-1E+10	1	-1E+10	1	-1E+10	1	-1E+10	1
4902549	66	C	06/08/2022	02:04	-131.449	47.634	0	206.70	0	6.5950	0	33.8280	0	26.553	0	204.870	0	128.3	4	42.9	4	-1E+10	1	-1E+10	1	-1E+10	1	-1E+10	1	-1E+10	1	-1E+10	1
4902549	66	C	06/08/2022	02:04	-131.449	47.634	0	207.90	0	6.5840	0	33.8330	0	26.558	0	206.059	0	127.1	4	42.5	4	-1E+10	1	-1E+10	1	-1E+10	1	-1E+10	1	-1E+10	1	-1E+10	1
4902549	66	C	06/08/2022	02:04	-131.449	47.634	0	208.60	0	6.5870	0	33.8360	0	26.560	0	206.752	0	126.3	4	42.3	4	-1E+10	1	-1E+10	1	-1E+10	1	-1E+10	1	-1E+10	1	-1E+10	1
4902549	66	C	06/08/2022	02:04	-131.449	47.634	0	209.80	0	6.5940	0	33.8390	0	26.561	0	207.941	0	125.2	4	41.9	4	-1E+10	1	-1E+10	1	-1E+10	1	-1E+10	1	-1E+10	1	-1E+10	1
4902549	66	C	06/08/2022	02:04	-131.449	47.634	0	211.00	0	6.5980	0	33.8420	0	26.563	0	209.130	0	124.3	4	41.6	4	-1E+10	1	-1E+10	1	-1E+10	1	-1E+10	1	-1E+10	1	-1E+10	1
4902549	66	C	06/08/2022	02:04	-131.449	47.634	0	211.70	0	6.5960	0	33.8430	0	26.564	0	209.823	0	123.7	4	41.4	4	-1E+10	1	-1E+10	1	-1E+10	1	-1E+10	1	-1E+10	1	-1E+10	1
4902549	66	C	06/08/2022	02:04	-131.449	47.634	0	212.90	0	6.5770	0	33.8430	0	26.567	0	211.012	0	122.6	4	41.0	4	-1E+10	1	-1E+10	1	-1E+10	1	-1E+10	1	-1E+10	1	-1E+10	1
4902549	66	C	06/08/2022	02:04	-131.449	47.634	0	214.00	0	6.5500	0	33.8420	0	26.570	0	212.101	0	121.3	4	40.6	4	-1E+10	1	-1E+10	1	-1E+10	1	-1E+10	1	-1E+10	1	-1E+10	1
4902549	66	C	06/08/2022	02:04	-131.449	47.634	0	214.80	0	6.5520	0	33.8420	0	26.569	0	212.894	0	120.4	4	40.3	4	-1E+10	1	-1E+10	1	-1E+10	1	-1E+10	1	-1E+10	1	-1E+10	1
4902549	66	C	06/08/2022	02:04	-131.449	47.634	0	215.90	0	6.5600	0	33.8470	0	26.572	0	213.984	0	119.0	4	39.8	4	-1E+10	1	-1E+10	1	-1E+10	1	-1E+10	1	-1E+10	1	-1E+10	1
4902549	66	C	06/08/2022	02:04	-131.449	47.634	0	217.10	0	6.5400	0	33.8520	0	26.579	0	215.172	0	117.7	4	39.4	4	-1E+10	1	-1E+10	1	-1E+10	1	-1E+10	1	-1E+10	1	-1E+10	1
4902549	66	C	06/08/2022	02:04	-131.449	47.634	0	217.90	0	6.5340	0	33.8510	0	26.579	0	215.965	0	116.9	4	39.1	4	-1E+10	1	-1E+10	1	-1E+10	1	-1E+10	1	-1E+10	1	-1E+10	1
4902549	66	C	06/08/2022	02:04	-131.449	47.634	0	219.00	0	6.5370	0	33.8520	0	26.579	0	217.054	0	115.5	4	38.6	4	-1E+10	1	-1E+10	1	-1E+10	1	-1E+10	1	-1E+10	1	-1E+10	1
4902549	66	C	06/08/2022	02:04	-131.449	47.634	0	220.20	0	6.5380	0	33.8560	0	26.582	0	218.243	0	114.2	4	38.2	4	-1E+10	1	-1E+10	1	-1E+10	1	-1E+10	1	-1E+10	1	-1E+10	1
4902549	66	C	06/08/2022	02:04	-131.449	47.634	0	221.00	0	6.5120	0	33.8580	0	26.587	0	219.036	0	113.3	4	37.9	4	-1E+10	1	-1E+10	1	-1E+10	1	-1E+10	1	-1E+10	1	-1E+10	1
4902549	66	C	06/08/2022	02:04	-131.449	47.634	0	221.80	0	6.4840	0	33.8600	0	26.593	0	219.828	0	112.5	4	37.6	4	-1E+10	1	-1E+10	1	-1E+10	1	-1E+10	1	-1E+10	1	-1E+10	1
4902549	66	C	06/08/2022	02:04	-131.449	47.634	0	223.00	0	6.4540	0	33.8610	0	26.597	0	221.017	0	111.0	4	37.1	4	-1E+10	1	-1E+10	1	-1E+10	1	-1E+10	1	-1E+10	1	-1E+10	1
4902549	66	C	06/08/2022	02:04	-131.449	47.634	0	224.30	0	6.4410	0	33.8610	0	26.599	0	222.305	0	109.3	4	36.5	4	-1E+10	1	-1E+10	1	-1E+10	1	-1E+10	1	-1E+10	1	-1E+10	1
4902549	66	C	06/08/2022	02:04	-131.449	47.634	0	225.10	0	6.4600	0	33.8680	0	26.602	0	223.097	0	108.2	4	36.1	4	-1E+10	1	-1E+10	1	-1E+10	1	-1E+10	1	-1E+10	1	-1E+10	1
4902549	66	C	06/08/2022	02:04	-131.449	47.634	0	225.90	0	6.4600	0	33.8690	0	26.603	0	223.889	0	107.4	4	35.8	4	-1E+10	1	-1E+10	1	-1E+10	1	-1E+10	1	-1E+10	1	-1E+10	1
4902549	66	C	06/08/2022	02:04	-131.449	47.634	0	226.70	0	6.4830	0	33.8760	0	26.605	0	224.682	0	106.8	4	35.7	4	-1E+10	1	-1E+10	1	-1E+10	1	-1E+10	1	-1E+10	1	-1E+10	1
4902549	66	C	06/08/2022	02:04	-131.449	47.634	0	227.90	0	6.4790	0	33.8790	0	26.608	0	225.871	0	106.0	4	35.4	4	-1E+10	1	-1E+10	1	-1E+10	1	-1E+10	1	-1E+10	1	-1E+10	1
4902549	66	C	06/08/2022	02:04	-131.449	47.634	0	229.10	0	6.4690	0	33.8800	0	26.610	0	227.059	0	105.4	4	35.2	4	-1E+10	1	-1E+10	1	-1E+10	1	-1E+10	1	-1E+10	1	-1E+10	1
4902549	66	C	06/08/2022	02:04	-131.449	47.634	0	230.00	0	6.4680	0	33.8810	0	26.611	0	227.951	0	104.9	4	35.0	4	-1E+10	1	-1E+10	1	-1E+10	1	-1E+10	1	-1E+10	1	-1E+10	1
4902549	66	C	06/08/2022	02:04	-131.449	47.634	0	230.80	0	6.4560	0	33.8850	0	26.616	0	228.743	0	104.5	4	34.9	4	-1E+10	1	-1E+10	1	-1E+10	1	-1E+10	1	-1E+10	1	-1E+10	1
4902549	66	C	06/08/2022	02:04	-131.449	47.634	0	231.60	0	6.4380	0	33.8860	0	26.619	0	229.536	0	104.2	4	34.8	4	-1E+10	1	-1E+10	1	-1E+10	1	-1E+10	1	-1E+10	1	-1E+10	1
4902549	66	C	06/08/2022	02:04	-131.449	47.634	0	232.90	0	6.4180	0	33.8850	0	26.621	0	230.823	0	103.8	4	34.6	4	-1E+10	1	-1E+10	1	-1E+10	1	-1E+10	1	-1E+10	1	-1E+10	1
4902549	66	C	06/08/2022	02:04	-131.449	47.634	0	234.20	0	6.4120	0	33.8870	0	26.623	0	232.111	0	103.2	4	34.4	4	-1E+10	1	-1E+10	1	-1E+10	1	-1E+10	1	-1E+10	1	-1E+10	1
4902549	66	C	06/08/2022	02:04	-131.449	47.634	0	235.00	0	6.4020	0	33.8890	0	26.626	0	232.903	0	103.0	4	34.3	4	-1E+10	1	-1E+10	1	-1E+10	1	-1E+10	1	-1E+10	1	-1E+10	1
4902549	66	C	06/08/2022	02:04	-131.449	47.634	0	235.80	0	6.4000	0	33.8900	0	26.627	0	233.696	0	102.7	4	34.3	4	-1E+10	1	-1E+10	1	-1E+10	1	-1E+10	1	-1E+10	1	-1E+10	1
4902549	66	C	06/08/2022	02:04	-131.449	47.634	0	236.70	0	6.3980	0	33.8900	0	26.628	0	234.587	0	102.4	4	34.1	4	-1E+10	1	-1E+10	1	-1E+10	1	-1E+10	1	-1E+10	1	-1E+10	1
4902549	66	C	06/08/2022	02:04	-131.449	47.634	0	238.00	0	6.3970	0	33.8900	0	26.628	0	235.875	0	102.0	4	34.0	4	-1E+10	1	-1E+10	1	-1E+10	1	-1E+10	1	-1E+10	1	-1E+10	1
4902549	66	C	06/08/2022	02:04	-131.449	47.634	0	239.30	0	6.3790	0	33.8940	0	26.633	0	237.162	0	101.7	4	33.9	4	-1E+10	1	-1E+10	1	-1E+10	1	-1E+10	1	-1E+10	1	-1E+10	1
4902549	66	C	06/08/2022	02:04	-131.449	47.634	0	240.20	0	6.3570	0	33.8900	0	26.633	0	238.054	0	101.6	4	33.8	4	-1E+10	1	-1E+10	1	-1E+10	1	-1E+10	1	-1E+10	1	-1E+10	1
4902549	66	C	06/08/2022	02:04	-131.449	47.634	0	241.00	0	6.3380	0	33.8920	0	26.637	0	238.846	0	101.4	4	33.8	4	-1E+10	1	-1E+10	1	-1E+10	1	-1E+10	1	-1E+10	1	-1E+10	1
4902549	66	C	06/08/2022	02:04	-131.449	47.634	0	241.90	0	6.3290	0	33.8920	0	26.638	0	239.738	0	101.2	4	33.7	4	-1E+10	1	-1E+10	1	-1E+10	1	-1E+10	1	-1E+10	1	-1E+10	1
4902549	66	C	06/08/2022	02:04	-131.449	47.634	0	242.70	0	6.3290	0	33.8920	0	26.638	0	240.530	0	100.9	4	33.6	4	-1E+10	1	-1E+10	1	-1E+10	1	-1E+10	1	-1E+10	1	-1E+10	1
4902549	66	C	06/08/2022	02:04	-131.449	47.634	0	243.60	0	6.3160	0	33.8960	0	26.643	0	241.422	0	100.8	4	33.5	4	-1E+10	1	-1E+10	1	-1E+10	1	-1E+10	1	-1E+10	1	-1E+10	1
4902549	66	C	06/08/2022	02:04	-131.449	47.634	0	244.90	0	6.3030	0	33.8920	0	26.641	0	242.709	0	100.4	4	33.4	4	-1E+10	1	-1E+10	1	-1E+10	1	-1E+10	1	-1E+10	1	-1E+10	1
4902549	66	C	06/08/2022	02:04	-131.449	47.634	0	246.20	0	6.2970	0	33.8910	0	26.641	0	243.997	0	100.0	4	33.2	4	-1E+10	1	-1E+10	1	-1E+10	1	-1E+10	1	-1E+10	1	-1E+10	1
4902549	66	C	06/08/2022	02:04	-131.449	47.634	0	247.10	0	6.2980	0	33.8920	0	26.642	0	244.888	0	99.6	4	33.1	4	-1E+10	1	-1E+10	1	-1E+10	1	-1E+10	1	-1E+10	1	-1E+10	1
4902549	66	C	06/08/2022	02:04	-131.449	47.634	0	248.00	0	6.3010	0	33.8920	0	26.642	0	245.780	0	99.3	4	33.0	4	-1E+10	1	-1E+10	1	-1E+10	1	-1E+10	1	-1E+10	1	-1E+10	1
4902549	66	C	06/08/2022	02:04	-131.449	47.634	0	248.90	0	6.2880	0	33.8920	0	26.643	0	246.671	0	99.2	4	33.0	4	-1E+10	1	-1E+10	1	-1E+10	1	-1E+10	1	-1E+10	1	-1E+10	1
4902549	66	C	06/08/2022	02:04	-131.449	47.634	0	249.80	0	6.2540	0	33.8930	0	26.649	0	247.562	0	99.1	4	32.9	4	-1E+10	1	-1E+10	1	-1E+10	1	-1E+10	1	-1E+10	1	-1E+10	1
4902549	66	C	06/08/2022	02:04	-131.449	47.634	0	250.70	0	6.2380	0	33.8930	0	26.651	0	248.454	0	98.8	4	32.8	4	-1E+10	1	-1E+10	1	-1E+10	1	-1E+10	1	-1E+10	1	-1E+10	1
4902549	66	C	06/08/2022	02:04	-131.449	47.634	0	251.60	0	6.2180	0	33.8930	0	26.653	0	249.345	0	98.4	4	32.7	4	-1E+10	1	-1E+10	1	-1E+10	1	-1E+10	1	-1E+10	1	-1E+10	1
4902549	66	C	06/08/2022	02:04	-131.449	47.634	0	252.50	0	6.2130	0	33.8920	0	26.653	0	250.237	0	98.0	4	32.5	4	-1E+10	1	-1E+10	1	-1E+10	1	-1E+10	1	-1E+10	1	-1E+10	1
4902549	66	C	06/08/2022	02:04	-131.449	47.634	0	253.90	0	6.2060	0	33.8930	0	26.655	0	251.623	0	97.3	4	32.3	4	-1E+10	1	-1E+10	1	-1E+10	1	-1E+10	1	-1E+10	1	-1E+10	1
4902549	66	C	06/08/2022	02:04	-131.449	47.634	0	255.30	0	6.1940	0	33.8930	0	26.656	0	253.010	0	96.6	4	32.0	4	-1E+10	1	-1E+10	1	-1E+10	1	-1E+10	1	-1E+10	1	-1E+10	1
4902549	66	C	06/08/2022	02:04	-131.449	47.634	0	256.20	0	6.1850	0	33.8940	0	26.658	0	253.901	0	96.1	4	31.9	4	-1E+10	1	-1E+10	1	-1E+10	1	-1E+10	1	-1E+10	1	-1E+10	1
4902549	66	C	06/08/2022	02:04	-131.449	47.634	0	257.10	0	6.1860	0	33.8940	0	26.658	0	254.793	0	95.5	4	31.7	4	-1E+10	1	-1E+10	1	-1E+10	1	-1E+10	1	-1E+10	1	-1E+10	1
4902549	66	C	06/08/2022	02:04	-131.449	47.634	0	258.10	0	6.1860	0	33.8960	0	26.660	0	255.783	0	94.9	4	31.5	4	-1E+10	1	-1E+10	1	-1E+10	1	-1E+10	1	-1E+10	1	-1E+10	1
4902549	66	C	06/08/2022	02:04	-131.449	47.634	0	259.00	0	6.1770	0	33.8980	0	26.662	0	256.674	0	94.3	4	31.3	4	-1E+10	1	-1E+10	1	-1E+10	1	-1E+10	1	-1E+10	1	-1E+10	1
4902549	66	C	06/08/2022	02:04	-131.449	47.634	0	259.90	0	6.1890	0	33.9010	0	26.663	0	257.566	0	93.9	4	31.2	4	-1E+10	1	-1E+10	1	-1E+10	1	-1E+10	1	-1E+10	1	-1E+10	1
4902549	66	C	06/08/2022	02:04	-131.449	47.634	0	260.90	0	6.1940	0	33.9030	0	26.664	0	258.556	0	93.6	4	31.1	4	-1E+10	1	-1E+10	1	-1E+10	1	-1E+10	1	-1E+10	1	-1E+10	1
4902549	66	C	06/08/2022	02:04	-131.449	47.634	0	261.90	0	6.1890	0	33.9040	0	26.666	0	259.546	0	93.5	4	31.0	4	-1E+10	1	-1E+10	1	-1E+10	1	-1E+10	1	-1E+10	1	-1E+10	1
4902549	66	C	06/08/2022	02:04	-131.449	47.634	0	262.80	0	6.1570	0	33.9100	0	26.675	0	260.438	0	93.5	4	31.0	4	-1E+10	1	-1E+10	1	-1E+10	1	-1E+10	1	-1E+10	1	-1E+10	1
4902549	66	C	06/08/2022	02:04	-131.449	47.634	0	263.80	0	6.1620	0	33.9060	0	26.671	0	261.428	0	93.5	4	31.0	4	-1E+10	1	-1E+10	1	-1E+10	1	-1E+10	1	-1E+10	1	-1E+10	1
4902549	66	C	06/08/2022	02:04	-131.449	47.634	0	264.80	0	6.1550	0	33.9080	0	26.673	0	262.419	0	93.5	4	31.0	4	-1E+10	1	-1E+10	1	-1E+10	1	-1E+10	1	-1E+10	1	-1E+10	1
4902549	66	C	06/08/2022	02:04	-131.449	47.634	0	265.70	0	6.1230	0	33.9090	0	26.678	0	263.310	0	93.6	4	31.0	4	-1E+10	1	-1E+10	1	-1E+10	1	-1E+10	1	-1E+10	1	-1E+10	1
4902549	66	C	06/08/2022	02:04	-131.449	47.634	0	266.70	0	6.1140	0	33.9040	0	26.675	0	264.300	0	93.7	4	31.0	4	-1E+10	1	-1E+10	1	-1E+10	1	-1E+10	1	-1E+10	1	-1E+10	1
4902549	66	C	06/08/2022	02:04	-131.449	47.634	0	267.80	0	6.1110	0	33.9050	0	26.676	0	265.390	0	93.6	4	31.0	4	-1E+10	1	-1E+10	1	-1E+10	1	-1E+10	1	-1E+10	1	-1E+10	1
4902549	66	C	06/08/2022	02:04	-131.449	47.634	0	268.70	0	6.1080	0	33.9040	0	26.676	0	266.281	0	93.6	4	31.0	4	-1E+10	1	-1E+10	1	-1E+10	1	-1E+10	1	-1E+10	1	-1E+10	1
4902549	66	C	06/08/2022	02:04	-131.449	47.634	0	269.80	0	6.1040	0	33.9040	0	26.677	0	267.370	0	93.6	4	31.0	4	-1E+10	1	-1E+10	1	-1E+10	1	-1E+10	1	-1E+10	1	-1E+10	1
4902549	66	C	06/08/2022	02:04	-131.449	47.634	0	270.80	0	6.0940	0	33.9060	0	26.679	0	268.361	0	93.8	4	31.1	4	-1E+10	1	-1E+10	1	-1E+10	1	-1E+10	1	-1E+10	1	-1E+10	1
4902549	66	C	06/08/2022	02:04	-131.449	47.634	0	271.80	0	6.0580	0	33.9040	0	26.682	0	269.351	0	94.1	4	31.1	4	-1E+10	1	-1E+10	1	-1E+10	1	-1E+10	1	-1E+10	1	-1E+10	1
4902549	66	C	06/08/2022	02:04	-131.449	47.634	0	272.80	0	6.0540	0	33.9030	0	26.682	0	270.341	0	94.2	4	31.1	4	-1E+10	1	-1E+10	1	-1E+10	1	-1E+10	1	-1E+10	1	-1E+10	1
4902549	66	C	06/08/2022	02:04	-131.449	47.634	0	273.80	0	6.0390	0	33.9030	0	26.684	0	271.332	0	94.3	4	31.2	4	-1E+10	1	-1E+10	1	-1E+10	1	-1E+10	1	-1E+10	1	-1E+10	1
4902549	66	C	06/08/2022	02:04	-131.449	47.634	0	274.80	0	6.0090	0	33.8980	0	26.684	0	272.322	0	94.2	4	31.1	4	-1E+10	1	-1E+10	1	-1E+10	1	-1E+10	1	-1E+10	1	-1E+10	1
4902549	66	C	06/08/2022	02:04	-131.449	47.634	0	275.80	0	5.9970	0	33.8970	0	26.685	0	273.312	0	94.1	4	31.1	4	-1E+10	1	-1E+10	1	-1E+10	1	-1E+10	1	-1E+10	1	-1E+10	1
4902549	66	C	06/08/2022	02:04	-131.449	47.634	0	276.80	0	5.9940	0	33.8980	0	26.686	0	274.303	0	94.0	4	31.1	4	-1E+10	1	-1E+10	1	-1E+10	1	-1E+10	1	-1E+10	1	-1E+10	1
4902549	66	C	06/08/2022	02:04	-131.449	47.634	0	277.80	0	5.9920	0	33.8980	0	26.686	0	275.293	0	93.9	4	31.0	4	-1E+10	1	-1E+10	1	-1E+10	1	-1E+10	1	-1E+10	1	-1E+10	1
4902549	66	C	06/08/2022	02:04	-131.449	47.634	0	278.80	0	5.9900	0	33.8990	0	26.687	0	276.283	0	93.8	4	31.0	4	-1E+10	1	-1E+10	1	-1E+10	1	-1E+10	1	-1E+10	1	-1E+10	1
4902549	66	C	06/08/2022	02:04	-131.449	47.634	0	279.80	0	5.9820	0	33.8980	0	26.687	0	277.274	0	93.7	4	30.9	4	-1E+10	1	-1E+10	1	-1E+10	1	-1E+10	1	-1E+10	1	-1E+10	1
4902549	66	C	06/08/2022	02:04	-131.449	47.634	0	280.80	0	5.9760	0	33.8960	0	26.686	0	278.264	0	93.5	4	30.9	4	-1E+10	1	-1E+10	1	-1E+10	1	-1E+10	1	-1E+10	1	-1E+10	1
4902549	66	C	06/08/2022	02:04	-131.449	47.634	0	281.80	0	5.9540	0	33.8970	0	26.690	0	279.254	0	93.3	4	30.8	4	-1E+10	1	-1E+10	1	-1E+10	1	-1E+10	1	-1E+10	1	-1E+10	1
4902549	66	C	06/08/2022	02:04	-131.449	47.634	0	282.80	0	5.9040	0	33.8960	0	26.695	0	280.244	0	92.9	4	30.6	4	-1E+10	1	-1E+10	1	-1E+10	1	-1E+10	1	-1E+10	1	-1E+10	1
4902549	66	C	06/08/2022	02:04	-131.449	47.634	0	283.90	0	5.8590	0	33.8860	0	26.693	0	281.334	0	92.3	4	30.4	4	-1E+10	1	-1E+10	1	-1E+10	1	-1E+10	1	-1E+10	1	-1E+10	1
4902549	66	C	06/08/2022	02:04	-131.449	47.634	0	284.90	0	5.8350	0	33.8860	0	26.696	0	282.324	0	91.4	4	30.1	4	-1E+10	1	-1E+10	1	-1E+10	1	-1E+10	1	-1E+10	1	-1E+10	1
4902549	66	C	06/08/2022	02:04	-131.449	47.634	0	285.90	0	5.8350	0	33.8850	0	26.695	0	283.314	0	90.2	4	29.7	4	-1E+10	1	-1E+10	1	-1E+10	1	-1E+10	1	-1E+10	1	-1E+10	1
4902549	66	C	06/08/2022	02:04	-131.449	47.634	0	286.90	0	5.8470	0	33.8880	0	26.696	0	284.305	0	89.1	4	29.3	4	-1E+10	1	-1E+10	1	-1E+10	1	-1E+10	1	-1E+10	1	-1E+10	1
4902549	66	C	06/08/2022	02:04	-131.449	47.634	0	287.90	0	5.8750	0	33.9000	0	26.702	0	285.295	0	88.1	4	29.0	4	-1E+10	1	-1E+10	1	-1E+10	1	-1E+10	1	-1E+10	1	-1E+10	1
4902549	66	C	06/08/2022	02:04	-131.449	47.634	0	288.90	0	5.8270	0	33.8970	0	26.706	0	286.285	0	87.1	4	28.7	4	-1E+10	1	-1E+10	1	-1E+10	1	-1E+10	1	-1E+10	1	-1E+10	1
4902549	66	C	06/08/2022	02:04	-131.449	47.634	0	289.90	0	5.8140	0	33.8950	0	26.706	0	287.275	0	86.0	4	28.3	4	-1E+10	1	-1E+10	1	-1E+10	1	-1E+10	1	-1E+10	1	-1E+10	1
4902549	66	C	06/08/2022	02:04	-131.449	47.634	0	290.90	0	5.8710	0	33.9070	0	26.708	0	288.266	0	85.4	4	28.1	4	-1E+10	1	-1E+10	1	-1E+10	1	-1E+10	1	-1E+10	1	-1E+10	1
4902549	66	C	06/08/2022	02:04	-131.449	47.634	0	291.90	0	5.8880	0	33.9130	0	26.711	0	289.256	0	85.1	4	28.0	4	-1E+10	1	-1E+10	1	-1E+10	1	-1E+10	1	-1E+10	1	-1E+10	1
4902549	66	C	06/08/2022	02:04	-131.449	47.634	0	292.90	0	5.8860	0	33.9170	0	26.714	0	290.246	0	84.9	4	28.0	4	-1E+10	1	-1E+10	1	-1E+10	1	-1E+10	1	-1E+10	1	-1E+10	1
4902549	66	C	06/08/2022	02:04	-131.449	47.634	0	293.90	0	5.8670	0	33.9170	0	26.717	0	291.236	0	85.0	4	28.0	4	-1E+10	1	-1E+10	1	-1E+10	1	-1E+10	1	-1E+10	1	-1E+10	1
4902549	66	C	06/08/2022	02:04	-131.449	47.634	0	294.90	0	5.8630	0	33.9170	0	26.717	0	292.227	0	84.9	4	28.0	4	-1E+10	1	-1E+10	1	-1E+10	1	-1E+10	1	-1E+10	1	-1E+10	1
4902549	66	C	06/08/2022	02:04	-131.449	47.634	0	296.00	0	5.8620	0	33.9170	0	26.717	0	293.316	0	84.9	4	28.0	4	-1E+10	1	-1E+10	1	-1E+10	1	-1E+10	1	-1E+10	1	-1E+10	1
4902549	66	C	06/08/2022	02:04	-131.449	47.634	0	297.00	0	5.8620	0	33.9170	0	26.717	0	294.306	0	84.9	4	28.0	4	-1E+10	1	-1E+10	1	-1E+10	1	-1E+10	1	-1E+10	1	-1E+10	1
4902549	66	C	06/08/2022	02:04	-131.449	47.634	0	298.00	0	5.8580	0	33.9170	0	26.718	0	295.296	0	85.0	4	28.0	4	-1E+10	1	-1E+10	1	-1E+10	1	-1E+10	1	-1E+10	1	-1E+10	1
4902549	66	C	06/08/2022	02:04	-131.449	47.634	0	299.00	0	5.8570	0	33.9160	0	26.717	0	296.286	0	85.0	4	28.0	4	-1E+10	1	-1E+10	1	-1E+10	1	-1E+10	1	-1E+10	1	-1E+10	1
4902549	66	C	06/08/2022	02:04	-131.449	47.634	0	300.00	0	5.8450	0	33.9160	0	26.719	0	297.277	0	85.0	4	28.0	4	-1E+10	1	-1E+10	1	-1E+10	1	-1E+10	1	-1E+10	1	-1E+10	1
4902549	66	C	06/08/2022	02:04	-131.449	47.634	0	301.00	0	5.8300	0	33.9160	0	26.721	0	298.267	0	85.1	4	28.0	4	-1E+10	1	-1E+10	1	-1E+10	1	-1E+10	1	-1E+10	1	-1E+10	1
4902549	66	C	06/08/2022	02:04	-131.449	47.634	0	302.00	0	5.8140	0	33.9150	0	26.722	0	299.257	0	85.3	4	28.1	4	-1E+10	1	-1E+10	1	-1E+10	1	-1E+10	1	-1E+10	1	-1E+10	1
4902549	66	C	06/08/2022	02:04	-131.449	47.634	0	303.00	0	5.7940	0	33.9150	0	26.724	0	300.247	0	85.5	4	28.1	4	-1E+10	1	-1E+10	1	-1E+10	1	-1E+10	1	-1E+10	1	-1E+10	1
4902549	66	C	06/08/2022	02:04	-131.449	47.634	0	304.00	0	5.7710	0	33.9150	0	26.727	0	301.237	0	85.6	4	28.1	4	-1E+10	1	-1E+10	1	-1E+10	1	-1E+10	1	-1E+10	1	-1E+10	1
4902549	66	C	06/08/2022	02:04	-131.449	47.634	0	305.00	0	5.7590	0	33.9130	0	26.727	0	302.228	0	85.8	4	28.2	4	-1E+10	1	-1E+10	1	-1E+10	1	-1E+10	1	-1E+10	1	-1E+10	1
4902549	66	C	06/08/2022	02:04	-131.449	47.634	0	306.00	0	5.7430	0	33.9140	0	26.730	0	303.218	0	86.0	4	28.2	4	-1E+10	1	-1E+10	1	-1E+10	1	-1E+10	1	-1E+10	1	-1E+10	1
4902549	66	C	06/08/2022	02:04	-131.449	47.634	0	306.90	0	5.7320	0	33.9110	0	26.729	0	304.109	0	86.2	4	28.3	4	-1E+10	1	-1E+10	1	-1E+10	1	-1E+10	1	-1E+10	1	-1E+10	1
4902549	66	C	06/08/2022	02:04	-131.449	47.634	0	307.90	0	5.7350	0	33.9120	0	26.729	0	305.099	0	86.5	4	28.4	4	-1E+10	1	-1E+10	1	-1E+10	1	-1E+10	1	-1E+10	1	-1E+10	1
4902549	66	C	06/08/2022	02:04	-131.449	47.634	0	308.90	0	5.7240	0	33.9110	0	26.730	0	306.089	0	86.8	4	28.5	4	-1E+10	1	-1E+10	1	-1E+10	1	-1E+10	1	-1E+10	1	-1E+10	1
4902549	66	C	06/08/2022	02:04	-131.449	47.634	0	309.90	0	5.6880	0	33.9130	0	26.736	0	307.079	0	87.1	4	28.6	4	-1E+10	1	-1E+10	1	-1E+10	1	-1E+10	1	-1E+10	1	-1E+10	1
4902549	66	C	06/08/2022	02:04	-131.449	47.634	0	310.90	0	5.6560	0	33.9050	0	26.733	0	308.070	0	87.3	4	28.6	4	-1E+10	1	-1E+10	1	-1E+10	1	-1E+10	1	-1E+10	1	-1E+10	1
4902549	66	C	06/08/2022	02:04	-131.449	47.634	0	311.90	0	5.6170	0	33.9040	0	26.737	0	309.060	0	87.4	4	28.6	4	-1E+10	1	-1E+10	1	-1E+10	1	-1E+10	1	-1E+10	1	-1E+10	1
4902549	66	C	06/08/2022	02:04	-131.449	47.634	0	312.90	0	5.6110	0	33.9010	0	26.735	0	310.050	0	87.4	4	28.6	4	-1E+10	1	-1E+10	1	-1E+10	1	-1E+10	1	-1E+10	1	-1E+10	1
4902549	66	C	06/08/2022	02:04	-131.449	47.634	0	313.80	0	5.5970	0	33.9010	0	26.737	0	310.941	0	87.4	4	28.6	4	-1E+10	1	-1E+10	1	-1E+10	1	-1E+10	1	-1E+10	1	-1E+10	1
4902549	66	C	06/08/2022	02:04	-131.449	47.634	0	314.80	0	5.5740	0	33.8970	0	26.737	0	311.931	0	87.3	4	28.5	4	-1E+10	1	-1E+10	1	-1E+10	1	-1E+10	1	-1E+10	1	-1E+10	1
4902549	66	C	06/08/2022	02:04	-131.449	47.634	0	315.80	0	5.5500	0	33.8960	0	26.739	0	312.921	0	87.1	4	28.5	4	-1E+10	1	-1E+10	1	-1E+10	1	-1E+10	1	-1E+10	1	-1E+10	1
4902549	66	C	06/08/2022	02:04	-131.449	47.634	0	316.80	0	5.5390	0	33.8950	0	26.739	0	313.911	0	86.8	4	28.4	4	-1E+10	1	-1E+10	1	-1E+10	1	-1E+10	1	-1E+10	1	-1E+10	1
4902549	66	C	06/08/2022	02:04	-131.449	47.634	0	317.70	0	5.5380	0	33.8930	0	26.738	0	314.803	0	86.3	4	28.2	4	-1E+10	1	-1E+10	1	-1E+10	1	-1E+10	1	-1E+10	1	-1E+10	1
4902549	66	C	06/08/2022	02:04	-131.449	47.634	0	318.70	0	5.5360	0	33.8940	0	26.739	0	315.793	0	85.9	4	28.1	4	-1E+10	1	-1E+10	1	-1E+10	1	-1E+10	1	-1E+10	1	-1E+10	1
4902549	66	C	06/08/2022	02:04	-131.449	47.634	0	319.60	0	5.4650	0	33.8910	0	26.745	0	316.684	0	85.4	4	27.9	4	-1E+10	1	-1E+10	1	-1E+10	1	-1E+10	1	-1E+10	1	-1E+10	1
4902549	66	C	06/08/2022	02:04	-131.449	47.634	0	320.50	0	5.4510	0	33.8910	0	26.747	0	317.575	0	84.8	4	27.7	4	-1E+10	1	-1E+10	1	-1E+10	1	-1E+10	1	-1E+10	1	-1E+10	1
4902549	66	C	06/08/2022	02:04	-131.449	47.634	0	321.90	0	5.4460	0	33.8930	0	26.749	0	318.961	0	83.8	4	27.3	4	-1E+10	1	-1E+10	1	-1E+10	1	-1E+10	1	-1E+10	1	-1E+10	1
4902549	66	C	06/08/2022	02:04	-131.449	47.634	0	323.40	0	5.4520	0	33.8950	0	26.750	0	320.446	0	82.8	4	27.0	4	-1E+10	1	-1E+10	1	-1E+10	1	-1E+10	1	-1E+10	1	-1E+10	1
4902549	66	C	06/08/2022	02:04	-131.449	47.634	0	324.30	0	5.4550	0	33.8970	0	26.751	0	321.337	0	82.0	4	26.8	4	-1E+10	1	-1E+10	1	-1E+10	1	-1E+10	1	-1E+10	1	-1E+10	1
4902549	66	C	06/08/2022	02:04	-131.449	47.634	0	325.30	0	5.4560	0	33.8970	0	26.751	0	322.327	0	81.2	4	26.5	4	-1E+10	1	-1E+10	1	-1E+10	1	-1E+10	1	-1E+10	1	-1E+10	1
4902549	66	C	06/08/2022	02:04	-131.449	47.634	0	326.30	0	5.4560	0	33.8980	0	26.752	0	323.317	0	80.3	4	26.2	4	-1E+10	1	-1E+10	1	-1E+10	1	-1E+10	1	-1E+10	1	-1E+10	1
4902549	66	C	06/08/2022	02:04	-131.449	47.634	0	327.20	0	5.4560	0	33.8970	0	26.751	0	324.209	0	79.2	4	25.8	4	-1E+10	1	-1E+10	1	-1E+10	1	-1E+10	1	-1E+10	1	-1E+10	1
4902549	66	C	06/08/2022	02:04	-131.449	47.634	0	328.20	0	5.4590	0	33.8980	0	26.751	0	325.199	0	78.2	4	25.5	4	-1E+10	1	-1E+10	1	-1E+10	1	-1E+10	1	-1E+10	1	-1E+10	1
4902549	66	C	06/08/2022	02:04	-131.449	47.634	0	329.10	0	5.4920	0	33.9130	0	26.759	0	326.090	0	77.4	4	25.3	4	-1E+10	1	-1E+10	1	-1E+10	1	-1E+10	1	-1E+10	1	-1E+10	1
4902549	66	C	06/08/2022	02:04	-131.449	47.634	0	330.10	0	5.5020	0	33.9150	0	26.760	0	327.080	0	76.8	4	25.1	4	-1E+10	1	-1E+10	1	-1E+10	1	-1E+10	1	-1E+10	1	-1E+10	1
4902549	66	C	06/08/2022	02:04	-131.449	47.634	0	331.00	0	5.4940	0	33.9170	0	26.762	0	327.971	0	76.4	4	25.0	4	-1E+10	1	-1E+10	1	-1E+10	1	-1E+10	1	-1E+10	1	-1E+10	1
4902549	66	C	06/08/2022	02:04	-131.449	47.634	0	332.00	0	5.4920	0	33.9180	0	26.763	0	328.961	0	76.1	4	24.8	4	-1E+10	1	-1E+10	1	-1E+10	1	-1E+10	1	-1E+10	1	-1E+10	1
4902549	66	C	06/08/2022	02:04	-131.449	47.634	0	332.90	0	5.4910	0	33.9190	0	26.764	0	329.852	0	75.7	4	24.7	4	-1E+10	1	-1E+10	1	-1E+10	1	-1E+10	1	-1E+10	1	-1E+10	1
4902549	66	C	06/08/2022	02:04	-131.449	47.634	0	333.80	0	5.4890	0	33.9200	0	26.765	0	330.743	0	75.3	4	24.6	4	-1E+10	1	-1E+10	1	-1E+10	1	-1E+10	1	-1E+10	1	-1E+10	1
4902549	66	C	06/08/2022	02:04	-131.449	47.634	0	334.70	0	5.4880	0	33.9200	0	26.765	0	331.634	0	75.0	4	24.5	4	-1E+10	1	-1E+10	1	-1E+10	1	-1E+10	1	-1E+10	1	-1E+10	1
4902549	66	C	06/08/2022	02:04	-131.449	47.634	0	335.70	0	5.4840	0	33.9210	0	26.767	0	332.624	0	74.6	4	24.4	4	-1E+10	1	-1E+10	1	-1E+10	1	-1E+10	1	-1E+10	1	-1E+10	1
4902549	66	C	06/08/2022	02:04	-131.449	47.634	0	336.60	0	5.4850	0	33.9210	0	26.767	0	333.515	0	74.3	4	24.2	4	-1E+10	1	-1E+10	1	-1E+10	1	-1E+10	1	-1E+10	1	-1E+10	1
4902549	66	C	06/08/2022	02:04	-131.449	47.634	0	337.90	0	5.4470	0	33.9230	0	26.773	0	334.802	0	73.9	4	24.1	4	-1E+10	1	-1E+10	1	-1E+10	1	-1E+10	1	-1E+10	1	-1E+10	1
4902549	66	C	06/08/2022	02:04	-131.449	47.634	0	339.40	0	5.4140	0	33.9250	0	26.778	0	336.287	0	73.7	4	24.0	4	-1E+10	1	-1E+10	1	-1E+10	1	-1E+10	1	-1E+10	1	-1E+10	1
4902549	66	C	06/08/2022	02:04	-131.449	47.634	0	340.30	0	5.4150	0	33.9270	0	26.780	0	337.178	0	73.6	4	24.0	4	-1E+10	1	-1E+10	1	-1E+10	1	-1E+10	1	-1E+10	1	-1E+10	1
4902549	66	C	06/08/2022	02:04	-131.449	47.634	0	341.30	0	5.4130	0	33.9270	0	26.780	0	338.168	0	73.5	4	23.9	4	-1E+10	1	-1E+10	1	-1E+10	1	-1E+10	1	-1E+10	1	-1E+10	1
4902549	66	C	06/08/2022	02:04	-131.449	47.634	0	342.20	0	5.4110	0	33.9270	0	26.780	0	339.059	0	73.4	4	23.9	4	-1E+10	1	-1E+10	1	-1E+10	1	-1E+10	1	-1E+10	1	-1E+10	1
4902549	66	C	06/08/2022	02:04	-131.449	47.634	0	343.10	0	5.4080	0	33.9280	0	26.781	0	339.950	0	73.4	4	23.9	4	-1E+10	1	-1E+10	1	-1E+10	1	-1E+10	1	-1E+10	1	-1E+10	1
4902549	66	C	06/08/2022	02:04	-131.449	47.634	0	344.10	0	5.4070	0	33.9260	0	26.780	0	340.940	0	73.3	4	23.9	4	-1E+10	1	-1E+10	1	-1E+10	1	-1E+10	1	-1E+10	1	-1E+10	1
4902549	66	C	06/08/2022	02:04	-131.449	47.634	0	345.00	0	5.4040	0	33.9270	0	26.781	0	341.831	0	73.2	4	23.8	4	-1E+10	1	-1E+10	1	-1E+10	1	-1E+10	1	-1E+10	1	-1E+10	1
4902549	66	C	06/08/2022	02:04	-131.449	47.634	0	345.90	0	5.4030	0	33.9270	0	26.781	0	342.722	0	73.1	4	23.8	4	-1E+10	1	-1E+10	1	-1E+10	1	-1E+10	1	-1E+10	1	-1E+10	1
4902549	66	C	06/08/2022	02:04	-131.449	47.634	0	346.90	0	5.4020	0	33.9260	0	26.780	0	343.712	0	73.0	4	23.8	4	-1E+10	1	-1E+10	1	-1E+10	1	-1E+10	1	-1E+10	1	-1E+10	1
4902549	66	C	06/08/2022	02:04	-131.449	47.634	0	347.80	0	5.3970	0	33.9260	0	26.781	0	344.603	0	72.9	4	23.7	4	-1E+10	1	-1E+10	1	-1E+10	1	-1E+10	1	-1E+10	1	-1E+10	1
4902549	66	C	06/08/2022	02:04	-131.449	47.634	0	348.70	0	5.3870	0	33.9260	0	26.782	0	345.494	0	72.7	4	23.7	4	-1E+10	1	-1E+10	1	-1E+10	1	-1E+10	1	-1E+10	1	-1E+10	1
4902549	66	C	06/08/2022	02:04	-131.449	47.634	0	349.60	0	5.3810	0	33.9250	0	26.782	0	346.385	0	72.5	4	23.6	4	-1E+10	1	-1E+10	1	-1E+10	1	-1E+10	1	-1E+10	1	-1E+10	1
4902549	66	C	06/08/2022	02:04	-131.449	47.634	0	352.70	0	5.3110	0	33.9240	0	26.790	0	349.454	0	71.7	4	23.3	4	-1E+10	1	-1E+10	1	-1E+10	1	-1E+10	1	-1E+10	1	-1E+10	1
4902549	66	C	06/08/2022	02:04	-131.449	47.634	0	358.10	0	5.2080	0	33.9240	0	26.802	0	354.800	0	69.4	4	22.5	4	-1E+10	1	-1E+10	1	-1E+10	1	-1E+10	1	-1E+10	1	-1E+10	1
4902549	66	C	06/08/2022	02:04	-131.449	47.634	0	363.10	0	5.1340	0	33.9320	0	26.817	0	359.749	0	67.8	4	22.0	4	-1E+10	1	-1E+10	1	-1E+10	1	-1E+10	1	-1E+10	1	-1E+10	1
4902549	66	C	06/08/2022	02:04	-131.449	47.634	0	367.80	0	5.1190	0	33.9340	0	26.820	0	364.402	0	67.2	4	21.7	4	-1E+10	1	-1E+10	1	-1E+10	1	-1E+10	1	-1E+10	1	-1E+10	1
4902549	66	C	06/08/2022	02:04	-131.449	47.634	0	372.90	0	5.1160	0	33.9340	0	26.820	0	369.450	0	66.3	4	21.5	4	-1E+10	1	-1E+10	1	-1E+10	1	-1E+10	1	-1E+10	1	-1E+10	1
4902549	66	C	06/08/2022	02:04	-131.449	47.634	0	378.10	0	5.1170	0	33.9360	0	26.822	0	374.597	0	64.8	4	21.0	4	-1E+10	1	-1E+10	1	-1E+10	1	-1E+10	1	-1E+10	1	-1E+10	1
4902549	66	C	06/08/2022	02:04	-131.449	47.634	0	382.80	0	5.0890	0	33.9410	0	26.829	0	379.249	0	63.2	4	20.4	4	-1E+10	1	-1E+10	1	-1E+10	1	-1E+10	1	-1E+10	1	-1E+10	1
4902549	66	C	06/08/2022	02:04	-131.449	47.634	0	387.60	0	5.0380	0	33.9430	0	26.837	0	384.000	0	62.2	4	20.1	4	-1E+10	1	-1E+10	1	-1E+10	1	-1E+10	1	-1E+10	1	-1E+10	1
4902549	66	C	06/08/2022	02:04	-131.449	47.634	0	393.00	0	5.0020	0	33.9450	0	26.842	0	389.345	0	61.1	4	19.7	4	-1E+10	1	-1E+10	1	-1E+10	1	-1E+10	1	-1E+10	1	-1E+10	1
4902549	66	C	06/08/2022	02:04	-131.449	47.634	0	398.30	0	4.9540	0	33.9500	0	26.852	0	394.591	0	59.8	4	19.3	4	-1E+10	1	-1E+10	1	-1E+10	1	-1E+10	1	-1E+10	1	-1E+10	1
4902549	66	C	06/08/2022	02:04	-131.449	47.634	0	403.10	0	4.9240	0	33.9490	0	26.854	0	399.342	0	58.2	4	18.8	4	-1E+10	1	-1E+10	1	-1E+10	1	-1E+10	1	-1E+10	1	-1E+10	1
4902549	66	C	06/08/2022	02:04	-131.449	47.634	0	408.20	0	4.8880	0	33.9550	0	26.863	0	404.389	0	55.2	4	17.8	4	-1E+10	1	-1E+10	1	-1E+10	1	-1E+10	1	-1E+10	1	-1E+10	1
4902549	66	C	06/08/2022	02:04	-131.449	47.634	0	412.90	0	4.8670	0	33.9650	0	26.873	0	409.040	0	53.0	4	17.1	4	-1E+10	1	-1E+10	1	-1E+10	1	-1E+10	1	-1E+10	1	-1E+10	1
4902549	66	C	06/08/2022	02:04	-131.449	47.634	0	417.80	0	4.8480	0	33.9710	0	26.880	0	413.890	0	51.1	4	16.5	4	-1E+10	1	-1E+10	1	-1E+10	1	-1E+10	1	-1E+10	1	-1E+10	1
4902549	66	C	06/08/2022	02:04	-131.449	47.634	0	422.70	0	4.8180	0	33.9780	0	26.889	0	418.739	0	49.4	4	15.9	4	-1E+10	1	-1E+10	1	-1E+10	1	-1E+10	1	-1E+10	1	-1E+10	1
4902549	66	C	06/08/2022	02:04	-131.449	47.634	0	427.70	0	4.7880	0	33.9860	0	26.899	0	423.687	0	47.8	4	15.4	4	-1E+10	1	-1E+10	1	-1E+10	1	-1E+10	1	-1E+10	1	-1E+10	1
4902549	66	C	06/08/2022	02:04	-131.449	47.634	0	432.90	0	4.7830	0	33.9930	0	26.905	0	428.833	0	46.8	4	15.0	4	-1E+10	1	-1E+10	1	-1E+10	1	-1E+10	1	-1E+10	1	-1E+10	1
4902549	66	C	06/08/2022	02:04	-131.449	47.634	0	437.80	0	4.7750	0	33.9960	0	26.909	0	433.682	0	46.1	4	14.8	4	-1E+10	1	-1E+10	1	-1E+10	1	-1E+10	1	-1E+10	1	-1E+10	1
4902549	66	C	06/08/2022	02:04	-131.449	47.634	0	442.80	0	4.7490	0	33.9980	0	26.913	0	438.629	0	45.4	4	14.6	4	-1E+10	1	-1E+10	1	-1E+10	1	-1E+10	1	-1E+10	1	-1E+10	1
4902549	66	C	06/08/2022	02:04	-131.449	47.634	0	448.00	0	4.7270	0	34.0000	0	26.917	0	443.775	0	44.6	4	14.3	4	-1E+10	1	-1E+10	1	-1E+10	1	-1E+10	1	-1E+10	1	-1E+10	1
4902549	66	C	06/08/2022	02:04	-131.449	47.634	0	452.70	0	4.6840	0	34.0020	0	26.923	0	448.425	0	43.6	4	14.0	4	-1E+10	1	-1E+10	1	-1E+10	1	-1E+10	1	-1E+10	1	-1E+10	1
4902549	66	C	06/08/2022	02:04	-131.449	47.634	0	457.90	0	4.6630	0	34.0060	0	26.929	0	453.571	0	42.7	4	13.7	4	-1E+10	1	-1E+10	1	-1E+10	1	-1E+10	1	-1E+10	1	-1E+10	1
4902549	66	C	06/08/2022	02:04	-131.449	47.634	0	463.40	0	4.6430	0	34.0090	0	26.934	0	459.013	0	41.7	4	13.4	4	-1E+10	1	-1E+10	1	-1E+10	1	-1E+10	1	-1E+10	1	-1E+10	1
4902549	66	C	06/08/2022	02:04	-131.449	47.634	0	468.30	0	4.6360	0	34.0120	0	26.937	0	463.861	0	40.5	4	13.0	4	-1E+10	1	-1E+10	1	-1E+10	1	-1E+10	1	-1E+10	1	-1E+10	1
4902549	66	C	06/08/2022	02:04	-131.449	47.634	0	472.90	0	4.6190	0	34.0160	0	26.942	0	468.412	0	39.4	4	12.6	4	-1E+10	1	-1E+10	1	-1E+10	1	-1E+10	1	-1E+10	1	-1E+10	1
4902549	66	C	06/08/2022	02:04	-131.449	47.634	0	477.50	0	4.6060	0	34.0220	0	26.948	0	472.963	0	38.6	4	12.3	4	-1E+10	1	-1E+10	1	-1E+10	1	-1E+10	1	-1E+10	1	-1E+10	1
4902549	66	C	06/08/2022	02:04	-131.449	47.634	0	482.70	0	4.5980	0	34.0250	0	26.951	0	478.108	0	37.7	4	12.1	4	-1E+10	1	-1E+10	1	-1E+10	1	-1E+10	1	-1E+10	1	-1E+10	1
4902549	66	C	06/08/2022	02:04	-131.449	47.634	0	487.90	0	4.5850	0	34.0270	0	26.954	0	483.252	0	36.6	4	11.7	4	-1E+10	1	-1E+10	1	-1E+10	1	-1E+10	1	-1E+10	1	-1E+10	1
4902549	66	C	06/08/2022	02:04	-131.449	47.634	0	493.30	0	4.5630	0	34.0330	0	26.962	0	488.594	0	35.5	4	11.4	4	-1E+10	1	-1E+10	1	-1E+10	1	-1E+10	1	-1E+10	1	-1E+10	1
4902549	66	C	06/08/2022	02:04	-131.449	47.634	0	498.10	0	4.5440	0	34.0370	0	26.967	0	493.343	0	34.5	4	11.0	4	-1E+10	1	-1E+10	1	-1E+10	1	-1E+10	1	-1E+10	1	-1E+10	1
4902549	66	C	06/08/2022	02:04	-131.449	47.634	0	502.90	0	4.5370	0	34.0410	0	26.971	0	498.091	0	33.4	4	10.7	4	-1E+10	1	-1E+10	1	-1E+10	1	-1E+10	1	-1E+10	1	-1E+10	1
4902549	66	C	06/08/2022	02:04	-131.449	47.634	0	507.70	0	4.5270	0	34.0470	0	26.977	0	502.840	0	32.4	4	10.3	4	-1E+10	1	-1E+10	1	-1E+10	1	-1E+10	1	-1E+10	1	-1E+10	1
4902549	66	C	06/08/2022	02:04	-131.449	47.634	0	512.60	0	4.5070	0	34.0520	0	26.983	0	507.687	0	31.4	4	10.0	4	-1E+10	1	-1E+10	1	-1E+10	1	-1E+10	1	-1E+10	1	-1E+10	1
4902549	66	C	06/08/2022	02:04	-131.449	47.634	0	517.90	0	4.4970	0	34.0580	0	26.989	0	512.929	0	30.5	4	9.7	4	-1E+10	1	-1E+10	1	-1E+10	1	-1E+10	1	-1E+10	1	-1E+10	1
4902549	66	C	06/08/2022	02:04	-131.449	47.634	0	523.10	0	4.4790	0	34.0610	0	26.993	0	518.073	0	29.6	4	9.4	4	-1E+10	1	-1E+10	1	-1E+10	1	-1E+10	1	-1E+10	1	-1E+10	1
4902549	66	C	06/08/2022	02:04	-131.449	47.634	0	528.20	0	4.4650	0	34.0670	0	26.999	0	523.118	0	28.7	4	9.1	4	-1E+10	1	-1E+10	1	-1E+10	1	-1E+10	1	-1E+10	1	-1E+10	1
4902549	66	C	06/08/2022	02:04	-131.449	47.634	0	533.40	0	4.4630	0	34.0690	0	27.001	0	528.261	0	27.6	4	8.8	4	-1E+10	1	-1E+10	1	-1E+10	1	-1E+10	1	-1E+10	1	-1E+10	1
4902549	66	C	06/08/2022	02:04	-131.449	47.634	0	537.90	0	4.4500	0	34.0750	0	27.007	0	532.712	0	26.7	4	8.5	4	-1E+10	1	-1E+10	1	-1E+10	1	-1E+10	1	-1E+10	1	-1E+10	1
4902549	66	C	06/08/2022	02:04	-131.449	47.634	0	542.50	0	4.4150	0	34.0780	0	27.014	0	537.262	0	25.6	4	8.2	4	-1E+10	1	-1E+10	1	-1E+10	1	-1E+10	1	-1E+10	1	-1E+10	1
4902549	66	C	06/08/2022	02:04	-131.449	47.634	0	547.50	0	4.4200	0	34.0860	0	27.019	0	542.207	0	24.0	4	7.7	4	-1E+10	1	-1E+10	1	-1E+10	1	-1E+10	1	-1E+10	1	-1E+10	1
4902549	66	C	06/08/2022	02:04	-131.449	47.634	0	552.50	0	4.4160	0	34.0950	0	27.027	0	547.152	0	22.9	4	7.3	4	-1E+10	1	-1E+10	1	-1E+10	1	-1E+10	1	-1E+10	1	-1E+10	1
4902549	66	C	06/08/2022	02:04	-131.449	47.634	0	557.60	0	4.4080	0	34.1020	0	27.034	0	552.196	0	22.2	4	7.1	4	-1E+10	1	-1E+10	1	-1E+10	1	-1E+10	1	-1E+10	1	-1E+10	1
4902549	66	C	06/08/2022	02:04	-131.449	47.634	0	562.70	0	4.4040	0	34.1060	0	27.037	0	557.239	0	21.4	4	6.8	4	-1E+10	1	-1E+10	1	-1E+10	1	-1E+10	1	-1E+10	1	-1E+10	1
4902549	66	C	06/08/2022	02:04	-131.449	47.634	0	567.80	0	4.3910	0	34.1110	0	27.043	0	562.283	0	20.8	4	6.6	4	-1E+10	1	-1E+10	1	-1E+10	1	-1E+10	1	-1E+10	1	-1E+10	1
4902549	66	C	06/08/2022	02:04	-131.449	47.634	0	572.90	0	4.3800	0	34.1140	0	27.046	0	567.327	0	20.3	4	6.5	4	-1E+10	1	-1E+10	1	-1E+10	1	-1E+10	1	-1E+10	1	-1E+10	1
4902549	66	C	06/08/2022	02:04	-131.449	47.634	0	577.80	0	4.3690	0	34.1170	0	27.050	0	572.172	0	19.8	4	6.3	4	-1E+10	1	-1E+10	1	-1E+10	1	-1E+10	1	-1E+10	1	-1E+10	1
4902549	66	C	06/08/2022	02:04	-131.449	47.634	0	582.70	0	4.3570	0	34.1200	0	27.053	0	577.018	0	19.4	4	6.2	4	-1E+10	1	-1E+10	1	-1E+10	1	-1E+10	1	-1E+10	1	-1E+10	1
4902549	66	C	06/08/2022	02:04	-131.449	47.634	0	587.60	0	4.3450	0	34.1220	0	27.056	0	581.863	0	19.0	4	6.1	4	-1E+10	1	-1E+10	1	-1E+10	1	-1E+10	1	-1E+10	1	-1E+10	1
4902549	66	C	06/08/2022	02:04	-131.449	47.634	0	592.50	0	4.3250	0	34.1230	0	27.059	0	586.708	0	18.6	4	5.9	4	-1E+10	1	-1E+10	1	-1E+10	1	-1E+10	1	-1E+10	1	-1E+10	1
4902549	66	C	06/08/2022	02:04	-131.449	47.634	0	597.50	0	4.3000	0	34.1260	0	27.064	0	591.652	0	18.1	4	5.8	4	-1E+10	1	-1E+10	1	-1E+10	1	-1E+10	1	-1E+10	1	-1E+10	1
4902549	66	C	06/08/2022	02:04	-131.449	47.634	0	602.50	0	4.2860	0	34.1310	0	27.070	0	596.596	0	17.6	4	5.6	4	-1E+10	1	-1E+10	1	-1E+10	1	-1E+10	1	-1E+10	1	-1E+10	1
4902549	66	C	06/08/2022	02:04	-131.449	47.634	0	607.50	0	4.2670	0	34.1360	0	27.076	0	601.540	0	17.3	4	5.5	4	-1E+10	1	-1E+10	1	-1E+10	1	-1E+10	1	-1E+10	1	-1E+10	1
4902549	66	C	06/08/2022	02:04	-131.449	47.634	0	612.50	0	4.2430	0	34.1370	0	27.079	0	606.484	0	17.2	4	5.5	4	-1E+10	1	-1E+10	1	-1E+10	1	-1E+10	1	-1E+10	1	-1E+10	1
4902549	66	C	06/08/2022	02:04	-131.449	47.634	0	617.50	0	4.1890	0	34.1390	0	27.086	0	611.427	0	17.0	4	5.4	4	-1E+10	1	-1E+10	1	-1E+10	1	-1E+10	1	-1E+10	1	-1E+10	1
4902549	66	C	06/08/2022	02:04	-131.449	47.634	0	622.60	0	4.1660	0	34.1420	0	27.091	0	616.469	0	16.7	4	5.3	4	-1E+10	1	-1E+10	1	-1E+10	1	-1E+10	1	-1E+10	1	-1E+10	1
4902549	66	C	06/08/2022	02:04	-131.449	47.634	0	627.60	0	4.1520	0	34.1450	0	27.095	0	621.413	0	16.3	4	5.2	4	-1E+10	1	-1E+10	1	-1E+10	1	-1E+10	1	-1E+10	1	-1E+10	1
4902549	66	C	06/08/2022	02:04	-131.449	47.634	0	632.60	0	4.1400	0	34.1490	0	27.100	0	626.356	0	15.9	4	5.0	4	-1E+10	1	-1E+10	1	-1E+10	1	-1E+10	1	-1E+10	1	-1E+10	1
4902549	66	C	06/08/2022	02:04	-131.449	47.634	0	637.70	0	4.1350	0	34.1510	0	27.102	0	631.398	0	15.5	4	4.9	4	-1E+10	1	-1E+10	1	-1E+10	1	-1E+10	1	-1E+10	1	-1E+10	1
4902549	66	C	06/08/2022	02:04	-131.449	47.634	0	642.90	0	4.1250	0	34.1550	0	27.106	0	636.539	0	15.0	4	4.7	4	-1E+10	1	-1E+10	1	-1E+10	1	-1E+10	1	-1E+10	1	-1E+10	1
4902549	66	C	06/08/2022	02:04	-131.449	47.634	0	648.20	0	4.1120	0	34.1620	0	27.113	0	641.778	0	14.6	4	4.6	4	-1E+10	1	-1E+10	1	-1E+10	1	-1E+10	1	-1E+10	1	-1E+10	1
4902549	66	C	06/08/2022	02:04	-131.449	47.634	0	653.30	0	4.1020	0	34.1650	0	27.116	0	646.819	0	14.3	4	4.5	4	-1E+10	1	-1E+10	1	-1E+10	1	-1E+10	1	-1E+10	1	-1E+10	1
4902549	66	C	06/08/2022	02:04	-131.449	47.634	0	657.90	0	4.0930	0	34.1670	0	27.119	0	651.367	0	14.1	4	4.5	4	-1E+10	1	-1E+10	1	-1E+10	1	-1E+10	1	-1E+10	1	-1E+10	1
4902549	66	C	06/08/2022	02:04	-131.449	47.634	0	662.90	0	4.0710	0	34.1690	0	27.123	0	656.309	0	13.7	4	4.3	4	-1E+10	1	-1E+10	1	-1E+10	1	-1E+10	1	-1E+10	1	-1E+10	1
4902549	66	C	06/08/2022	02:04	-131.449	47.634	0	667.90	0	4.0710	0	34.1740	0	27.127	0	661.252	0	13.4	4	4.2	4	-1E+10	1	-1E+10	1	-1E+10	1	-1E+10	1	-1E+10	1	-1E+10	1
4902549	66	C	06/08/2022	02:04	-131.449	47.634	0	673.00	0	4.0680	0	34.1770	0	27.130	0	666.293	0	13.1	4	4.1	4	-1E+10	1	-1E+10	1	-1E+10	1	-1E+10	1	-1E+10	1	-1E+10	1
4902549	66	C	06/08/2022	02:04	-131.449	47.634	0	678.20	0	4.0650	0	34.1820	0	27.134	0	671.432	0	12.8	4	4.1	4	-1E+10	1	-1E+10	1	-1E+10	1	-1E+10	1	-1E+10	1	-1E+10	1
4902549	66	C	06/08/2022	02:04	-131.449	47.634	0	683.10	0	4.0250	0	34.1840	0	27.140	0	676.276	0	12.6	4	4.0	4	-1E+10	1	-1E+10	1	-1E+10	1	-1E+10	1	-1E+10	1	-1E+10	1
4902549	66	C	06/08/2022	02:04	-131.449	47.634	0	688.00	0	4.0050	0	34.1860	0	27.143	0	681.119	0	12.1	4	3.8	4	-1E+10	1	-1E+10	1	-1E+10	1	-1E+10	1	-1E+10	1	-1E+10	1
4902549	66	C	06/08/2022	02:04	-131.449	47.634	0	693.00	0	3.9920	0	34.1910	0	27.149	0	686.060	0	11.2	4	3.5	4	-1E+10	1	-1E+10	1	-1E+10	1	-1E+10	1	-1E+10	1	-1E+10	1
4902549	66	C	06/08/2022	02:04	-131.449	47.634	0	697.60	0	4.0070	0	34.2010	0	27.155	0	690.607	0	10.3	4	3.3	4	-1E+10	1	-1E+10	1	-1E+10	1	-1E+10	1	-1E+10	1	-1E+10	1
4902549	66	C	06/08/2022	02:04	-131.449	47.634	0	702.80	0	4.0230	0	34.2120	0	27.162	0	695.746	0	9.9	4	3.1	4	-1E+10	1	-1E+10	1	-1E+10	1	-1E+10	1	-1E+10	1	-1E+10	1
4902549	66	C	06/08/2022	02:04	-131.449	47.634	0	708.10	0	4.0190	0	34.2180	0	27.168	0	700.984	0	9.7	4	3.1	4	-1E+10	1	-1E+10	1	-1E+10	1	-1E+10	1	-1E+10	1	-1E+10	1
4902549	66	C	06/08/2022	02:04	-131.449	47.634	0	712.80	0	4.0080	0	34.2200	0	27.170	0	705.629	0	9.8	4	3.1	4	-1E+10	1	-1E+10	1	-1E+10	1	-1E+10	1	-1E+10	1	-1E+10	1
4902549	66	C	06/08/2022	02:04	-131.449	47.634	0	718.00	0	3.9780	0	34.2240	0	27.177	0	710.767	0	10.1	4	3.2	4	-1E+10	1	-1E+10	1	-1E+10	1	-1E+10	1	-1E+10	1	-1E+10	1
4902549	66	C	06/08/2022	02:04	-131.449	47.634	0	723.20	0	3.9280	0	34.2210	0	27.179	0	715.906	0	10.5	4	3.3	4	-1E+10	1	-1E+10	1	-1E+10	1	-1E+10	1	-1E+10	1	-1E+10	1
4902549	66	C	06/08/2022	02:04	-131.449	47.634	0	727.90	0	3.8660	0	34.2200	0	27.185	0	720.551	0	10.5	4	3.3	4	-1E+10	1	-1E+10	1	-1E+10	1	-1E+10	1	-1E+10	1	-1E+10	1
4902549	66	C	06/08/2022	02:04	-131.449	47.634	0	732.70	0	3.8540	0	34.2180	0	27.184	0	725.294	0	10.0	4	3.1	4	-1E+10	1	-1E+10	1	-1E+10	1	-1E+10	1	-1E+10	1	-1E+10	1
4902549	66	C	06/08/2022	02:04	-131.449	47.634	0	738.00	0	3.8710	0	34.2270	0	27.190	0	730.531	0	9.0	4	2.8	4	-1E+10	1	-1E+10	1	-1E+10	1	-1E+10	1	-1E+10	1	-1E+10	1
4902549	66	C	06/08/2022	02:04	-131.449	47.634	0	743.40	0	3.9120	0	34.2380	0	27.195	0	735.867	0	8.6	4	2.7	4	-1E+10	1	-1E+10	1	-1E+10	1	-1E+10	1	-1E+10	1	-1E+10	1
4902549	66	C	06/08/2022	02:04	-131.449	47.634	0	748.40	0	3.9020	0	34.2400	0	27.197	0	740.807	0	8.4	4	2.7	4	-1E+10	1	-1E+10	1	-1E+10	1	-1E+10	1	-1E+10	1	-1E+10	1
4902549	66	C	06/08/2022	02:04	-131.449	47.634	0	753.40	0	3.8930	0	34.2440	0	27.201	0	745.748	0	8.2	4	2.6	4	-1E+10	1	-1E+10	1	-1E+10	1	-1E+10	1	-1E+10	1	-1E+10	1
4902549	66	C	06/08/2022	02:04	-131.449	47.634	0	758.30	0	3.8850	0	34.2480	0	27.205	0	750.589	0	8.1	4	2.6	4	-1E+10	1	-1E+10	1	-1E+10	1	-1E+10	1	-1E+10	1	-1E+10	1
4902549	66	C	06/08/2022	02:04	-131.449	47.634	0	762.90	0	3.8720	0	34.2500	0	27.208	0	755.134	0	8.1	4	2.5	4	-1E+10	1	-1E+10	1	-1E+10	1	-1E+10	1	-1E+10	1	-1E+10	1
4902549	66	C	06/08/2022	02:04	-131.449	47.634	0	767.50	0	3.8660	0	34.2510	0	27.210	0	759.679	0	8.0	4	2.5	4	-1E+10	1	-1E+10	1	-1E+10	1	-1E+10	1	-1E+10	1	-1E+10	1
4902549	66	C	06/08/2022	02:04	-131.449	47.634	0	772.60	0	3.8620	0	34.2530	0	27.212	0	764.717	0	8.0	4	2.5	4	-1E+10	1	-1E+10	1	-1E+10	1	-1E+10	1	-1E+10	1	-1E+10	1
4902549	66	C	06/08/2022	02:04	-131.449	47.634	0	777.90	0	3.8560	0	34.2530	0	27.212	0	769.954	0	8.0	4	2.5	4	-1E+10	1	-1E+10	1	-1E+10	1	-1E+10	1	-1E+10	1	-1E+10	1
4902549	66	C	06/08/2022	02:04	-131.449	47.634	0	783.00	0	3.8400	0	34.2560	0	27.216	0	774.992	0	8.0	4	2.5	4	-1E+10	1	-1E+10	1	-1E+10	1	-1E+10	1	-1E+10	1	-1E+10	1
4902549	66	C	06/08/2022	02:04	-131.449	47.634	0	788.20	0	3.8290	0	34.2570	0	27.218	0	780.129	0	8.0	4	2.5	4	-1E+10	1	-1E+10	1	-1E+10	1	-1E+10	1	-1E+10	1	-1E+10	1
4902549	66	C	06/08/2022	02:04	-131.449	47.634	0	793.00	0	3.8140	0	34.2570	0	27.220	0	784.871	0	8.1	4	2.5	4	-1E+10	1	-1E+10	1	-1E+10	1	-1E+10	1	-1E+10	1	-1E+10	1
4902549	66	C	06/08/2022	02:04	-131.449	47.634	0	797.80	0	3.7690	0	34.2590	0	27.226	0	789.613	0	8.2	4	2.6	4	-1E+10	1	-1E+10	1	-1E+10	1	-1E+10	1	-1E+10	1	-1E+10	1
4902549	66	C	06/08/2022	02:04	-131.449	47.634	0	802.70	0	3.7400	0	34.2600	0	27.230	0	794.453	0	8.2	4	2.6	4	-1E+10	1	-1E+10	1	-1E+10	1	-1E+10	1	-1E+10	1	-1E+10	1
4902549	66	C	06/08/2022	02:04	-131.449	47.634	0	807.70	0	3.7280	0	34.2600	0	27.231	0	799.392	0	8.2	4	2.6	4	-1E+10	1	-1E+10	1	-1E+10	1	-1E+10	1	-1E+10	1	-1E+10	1
4902549	66	C	06/08/2022	02:04	-131.449	47.634	0	812.60	0	3.7090	0	34.2620	0	27.234	0	804.232	0	8.2	4	2.6	4	-1E+10	1	-1E+10	1	-1E+10	1	-1E+10	1	-1E+10	1	-1E+10	1
4902549	66	C	06/08/2022	02:04	-131.449	47.634	0	817.60	0	3.6810	0	34.2640	0	27.239	0	809.171	0	8.2	4	2.6	4	-1E+10	1	-1E+10	1	-1E+10	1	-1E+10	1	-1E+10	1	-1E+10	1
4902549	66	C	06/08/2022	02:04	-131.449	47.634	0	822.50	0	3.6630	0	34.2670	0	27.243	0	814.011	0	8.1	4	2.5	4	-1E+10	1	-1E+10	1	-1E+10	1	-1E+10	1	-1E+10	1	-1E+10	1
4902549	66	C	06/08/2022	02:04	-131.449	47.634	0	827.50	0	3.6520	0	34.2690	0	27.246	0	818.950	0	8.1	4	2.5	4	-1E+10	1	-1E+10	1	-1E+10	1	-1E+10	1	-1E+10	1	-1E+10	1
4902549	66	C	06/08/2022	02:04	-131.449	47.634	0	832.50	0	3.6260	0	34.2710	0	27.250	0	823.888	0	8.0	4	2.5	4	-1E+10	1	-1E+10	1	-1E+10	1	-1E+10	1	-1E+10	1	-1E+10	1
4902549	66	C	06/08/2022	02:04	-131.449	47.634	0	837.70	0	3.5970	0	34.2750	0	27.256	0	829.024	0	7.9	4	2.5	4	-1E+10	1	-1E+10	1	-1E+10	1	-1E+10	1	-1E+10	1	-1E+10	1
4902549	66	C	06/08/2022	02:04	-131.449	47.634	0	842.80	0	3.5930	0	34.2760	0	27.257	0	834.061	0	7.9	4	2.5	4	-1E+10	1	-1E+10	1	-1E+10	1	-1E+10	1	-1E+10	1	-1E+10	1
4902549	66	C	06/08/2022	02:04	-131.449	47.634	0	848.00	0	3.5960	0	34.2790	0	27.259	0	839.197	0	7.9	4	2.5	4	-1E+10	1	-1E+10	1	-1E+10	1	-1E+10	1	-1E+10	1	-1E+10	1
4902549	66	C	06/08/2022	02:04	-131.449	47.634	0	852.90	0	3.5830	0	34.2800	0	27.261	0	844.036	0	8.0	4	2.5	4	-1E+10	1	-1E+10	1	-1E+10	1	-1E+10	1	-1E+10	1	-1E+10	1
4902549	66	C	06/08/2022	02:04	-131.449	47.634	0	857.80	0	3.5500	0	34.2790	0	27.264	0	848.875	0	8.1	4	2.5	4	-1E+10	1	-1E+10	1	-1E+10	1	-1E+10	1	-1E+10	1	-1E+10	1
4902549	66	C	06/08/2022	02:04	-131.449	47.634	0	863.10	0	3.5370	0	34.2800	0	27.266	0	854.109	0	8.0	4	2.5	4	-1E+10	1	-1E+10	1	-1E+10	1	-1E+10	1	-1E+10	1	-1E+10	1
4902549	66	C	06/08/2022	02:04	-131.449	47.634	0	867.90	0	3.5160	0	34.2830	0	27.270	0	858.849	0	8.0	4	2.5	4	-1E+10	1	-1E+10	1	-1E+10	1	-1E+10	1	-1E+10	1	-1E+10	1
4902549	66	C	06/08/2022	02:04	-131.449	47.634	0	872.80	0	3.5100	0	34.2840	0	27.272	0	863.688	0	7.9	4	2.5	4	-1E+10	1	-1E+10	1	-1E+10	1	-1E+10	1	-1E+10	1	-1E+10	1
4902549	66	C	06/08/2022	02:04	-131.449	47.634	0	878.00	0	3.5050	0	34.2860	0	27.274	0	868.823	0	7.7	4	2.4	4	-1E+10	1	-1E+10	1	-1E+10	1	-1E+10	1	-1E+10	1	-1E+10	1
4902549	66	C	06/08/2022	02:04	-131.449	47.634	0	883.20	0	3.4930	0	34.2910	0	27.279	0	873.958	0	7.5	4	2.3	4	-1E+10	1	-1E+10	1	-1E+10	1	-1E+10	1	-1E+10	1	-1E+10	1
4902549	66	C	06/08/2022	02:04	-131.449	47.634	0	887.90	0	3.4800	0	34.2950	0	27.283	0	878.599	0	7.4	4	2.3	4	-1E+10	1	-1E+10	1	-1E+10	1	-1E+10	1	-1E+10	1	-1E+10	1
4902549	66	C	06/08/2022	02:04	-131.449	47.634	0	892.90	0	3.4750	0	34.2990	0	27.287	0	883.536	0	7.2	4	2.3	4	-1E+10	1	-1E+10	1	-1E+10	1	-1E+10	1	-1E+10	1	-1E+10	1
4902549	66	C	06/08/2022	02:04	-131.449	47.634	0	898.30	0	3.4580	0	34.3040	0	27.293	0	888.868	0	7.1	4	2.2	4	-1E+10	1	-1E+10	1	-1E+10	1	-1E+10	1	-1E+10	1	-1E+10	1
4902549	66	C	06/08/2022	02:04	-131.449	47.634	0	903.30	0	3.4550	0	34.3060	0	27.295	0	893.805	0	7.1	4	2.2	4	-1E+10	1	-1E+10	1	-1E+10	1	-1E+10	1	-1E+10	1	-1E+10	1
4902549	66	C	06/08/2022	02:04	-131.449	47.634	0	908.30	0	3.4460	0	34.3090	0	27.298	0	898.741	0	7.0	4	2.2	4	-1E+10	1	-1E+10	1	-1E+10	1	-1E+10	1	-1E+10	1	-1E+10	1
4902549	66	C	06/08/2022	02:04	-131.449	47.634	0	912.90	0	3.4410	0	34.3110	0	27.300	0	903.283	0	7.0	4	2.2	4	-1E+10	1	-1E+10	1	-1E+10	1	-1E+10	1	-1E+10	1	-1E+10	1
4902549	66	C	06/08/2022	02:04	-131.449	47.634	0	917.70	0	3.4250	0	34.3120	0	27.302	0	908.022	0	7.0	4	2.2	4	-1E+10	1	-1E+10	1	-1E+10	1	-1E+10	1	-1E+10	1	-1E+10	1
4902549	66	C	06/08/2022	02:04	-131.449	47.634	0	922.80	0	3.4130	0	34.3130	0	27.304	0	913.057	0	7.0	4	2.2	4	-1E+10	1	-1E+10	1	-1E+10	1	-1E+10	1	-1E+10	1	-1E+10	1
4902549	66	C	06/08/2022	02:04	-131.449	47.634	0	927.90	0	3.4010	0	34.3150	0	27.307	0	918.092	0	7.0	4	2.2	4	-1E+10	1	-1E+10	1	-1E+10	1	-1E+10	1	-1E+10	1	-1E+10	1
4902549	66	C	06/08/2022	02:04	-131.449	47.634	0	933.00	0	3.3940	0	34.3160	0	27.309	0	923.127	0	6.9	4	2.2	4	-1E+10	1	-1E+10	1	-1E+10	1	-1E+10	1	-1E+10	1	-1E+10	1
4902549	66	C	06/08/2022	02:04	-131.449	47.634	0	938.10	0	3.3870	0	34.3180	0	27.311	0	928.162	0	6.9	4	2.1	4	-1E+10	1	-1E+10	1	-1E+10	1	-1E+10	1	-1E+10	1	-1E+10	1
4902549	66	C	06/08/2022	02:04	-131.449	47.634	0	942.90	0	3.3820	0	34.3190	0	27.312	0	932.900	0	6.8	4	2.1	4	-1E+10	1	-1E+10	1	-1E+10	1	-1E+10	1	-1E+10	1	-1E+10	1
4902549	66	C	06/08/2022	02:04	-131.449	47.634	0	947.90	0	3.3690	0	34.3240	0	27.317	0	937.836	0	6.8	4	2.1	4	-1E+10	1	-1E+10	1	-1E+10	1	-1E+10	1	-1E+10	1	-1E+10	1
4902549	66	C	06/08/2022	02:04	-131.449	47.634	0	952.90	0	3.3590	0	34.3260	0	27.320	0	942.771	0	6.7	4	2.1	4	-1E+10	1	-1E+10	1	-1E+10	1	-1E+10	1	-1E+10	1	-1E+10	1
4902549	66	C	06/08/2022	02:04	-131.449	47.634	0	957.90	0	3.3340	0	34.3300	0	27.326	0	947.707	0	6.7	4	2.1	4	-1E+10	1	-1E+10	1	-1E+10	1	-1E+10	1	-1E+10	1	-1E+10	1
4902549	66	C	06/08/2022	02:04	-131.449	47.634	0	963.00	0	3.3170	0	34.3320	0	27.329	0	952.741	0	6.7	4	2.1	4	-1E+10	1	-1E+10	1	-1E+10	1	-1E+10	1	-1E+10	1	-1E+10	1
4902549	66	C	06/08/2022	02:04	-131.449	47.634	0	968.10	0	3.2970	0	34.3360	0	27.334	0	957.775	0	6.7	4	2.1	4	-1E+10	1	-1E+10	1	-1E+10	1	-1E+10	1	-1E+10	1	-1E+10	1
4902549	66	C	06/08/2022	02:04	-131.449	47.634	0	973.20	0	3.2750	0	34.3390	0	27.338	0	962.809	0	6.7	4	2.1	4	-1E+10	1	-1E+10	1	-1E+10	1	-1E+10	1	-1E+10	1	-1E+10	1
4902549	66	C	06/08/2022	02:04	-131.449	47.634	0	978.00	0	3.2620	0	34.3420	0	27.342	0	967.547	0	6.6	4	2.1	4	-1E+10	1	-1E+10	1	-1E+10	1	-1E+10	1	-1E+10	1	-1E+10	1
4902549	66	C	06/08/2022	02:04	-131.449	47.634	0	982.80	0	3.2460	0	34.3470	0	27.348	0	972.284	0	6.6	4	2.0	4	-1E+10	1	-1E+10	1	-1E+10	1	-1E+10	1	-1E+10	1	-1E+10	1
4902549	66	C	06/08/2022	02:04	-131.449	47.634	0	987.50	0	3.2400	0	34.3480	0	27.349	0	976.923	0	6.6	4	2.0	4	-1E+10	1	-1E+10	1	-1E+10	1	-1E+10	1	-1E+10	1	-1E+10	1
4902549	66	C	06/08/2022	02:04	-131.449	47.634	0	992.80	0	3.2290	0	34.3510	0	27.352	0	982.154	0	6.6	4	2.0	4	-1E+10	1	-1E+10	1	-1E+10	1	-1E+10	1	-1E+10	1	-1E+10	1
4902549	66	C	06/08/2022	02:04	-131.449	47.634	0	998.20	0	3.2230	0	34.3530	0	27.355	0	987.483	0	6.6	4	2.0	4	-1E+10	1	-1E+10	1	-1E+10	1	-1E+10	1	-1E+10	1	-1E+10	1
4902549	66	C	06/08/2022	02:04	-131.449	47.634	0	1005.70	0	3.2110	0	34.3550	0	27.357	0	994.885	0	6.6	4	2.0	4	-1E+10	1	-1E+10	1	-1E+10	1	-1E+10	1	-1E+10	1	-1E+10	1
4902549	66	C	06/08/2022	02:04	-131.449	47.634	0	1015.10	0	3.2000	0	34.3580	0	27.361	0	1004.161	0	6.6	4	2.0	4	-1E+10	1	-1E+10	1	-1E+10	1	-1E+10	1	-1E+10	1	-1E+10	1
4902549	66	C	06/08/2022	02:04	-131.449	47.634	0	1025.40	0	3.1810	0	34.3620	0	27.366	0	1014.325	0	6.6	4	2.0	4	-1E+10	1	-1E+10	1	-1E+10	1	-1E+10	1	-1E+10	1	-1E+10	1
4902549	66	C	06/08/2022	02:04	-131.449	47.634	0	1035.70	0	3.1590	0	34.3670	0	27.372	0	1024.489	0	6.6	4	2.1	4	-1E+10	1	-1E+10	1	-1E+10	1	-1E+10	1	-1E+10	1	-1E+10	1
4902549	66	C	06/08/2022	02:04	-131.449	47.634	0	1045.40	0	3.1390	0	34.3710	0	27.377	0	1034.060	0	6.7	4	2.1	4	-1E+10	1	-1E+10	1	-1E+10	1	-1E+10	1	-1E+10	1	-1E+10	1
4902549	66	C	06/08/2022	02:04	-131.449	47.634	0	1055.20	0	3.1120	0	34.3790	0	27.386	0	1043.729	0	6.8	4	2.1	4	-1E+10	1	-1E+10	1	-1E+10	1	-1E+10	1	-1E+10	1	-1E+10	1
4902549	66	C	06/08/2022	02:04	-131.449	47.634	0	1065.40	0	3.0940	0	34.3820	0	27.390	0	1053.793	0	6.9	4	2.1	4	-1E+10	1	-1E+10	1	-1E+10	1	-1E+10	1	-1E+10	1	-1E+10	1
4902549	66	C	06/08/2022	02:04	-131.449	47.634	0	1075.40	0	3.0850	0	34.3840	0	27.392	0	1063.659	0	6.9	4	2.1	4	-1E+10	1	-1E+10	1	-1E+10	1	-1E+10	1	-1E+10	1	-1E+10	1
4902549	66	C	06/08/2022	02:04	-131.449	47.634	0	1085.10	0	3.0790	0	34.3840	0	27.393	0	1073.228	0	7.0	4	2.2	4	-1E+10	1	-1E+10	1	-1E+10	1	-1E+10	1	-1E+10	1	-1E+10	1
4902549	66	C	06/08/2022	02:04	-131.449	47.634	0	1095.00	0	3.0610	0	34.3900	0	27.400	0	1082.994	0	7.1	4	2.2	4	-1E+10	1	-1E+10	1	-1E+10	1	-1E+10	1	-1E+10	1	-1E+10	1
4902549	66	C	06/08/2022	02:04	-131.449	47.634	0	1105.10	0	3.0420	0	34.3930	0	27.404	0	1092.957	0	7.2	4	2.2	4	-1E+10	1	-1E+10	1	-1E+10	1	-1E+10	1	-1E+10	1	-1E+10	1
4902549	66	C	06/08/2022	02:04	-131.449	47.634	0	1115.30	0	3.0310	0	34.3960	0	27.407	0	1103.018	0	7.3	4	2.2	4	-1E+10	1	-1E+10	1	-1E+10	1	-1E+10	1	-1E+10	1	-1E+10	1
4902549	66	C	06/08/2022	02:04	-131.449	47.634	0	1125.60	0	3.0120	0	34.4000	0	27.412	0	1113.178	0	7.4	4	2.3	4	-1E+10	1	-1E+10	1	-1E+10	1	-1E+10	1	-1E+10	1	-1E+10	1
4902549	66	C	06/08/2022	02:04	-131.449	47.634	0	1135.60	0	2.9990	0	34.4030	0	27.416	0	1123.040	0	7.5	4	2.3	4	-1E+10	1	-1E+10	1	-1E+10	1	-1E+10	1	-1E+10	1	-1E+10	1
4902549	66	C	06/08/2022	02:04	-131.449	47.634	0	1145.10	0	2.9830	0	34.4060	0	27.420	0	1132.410	0	7.6	4	2.4	4	-1E+10	1	-1E+10	1	-1E+10	1	-1E+10	1	-1E+10	1	-1E+10	1
4902549	66	C	06/08/2022	02:04	-131.449	47.634	0	1155.30	0	2.9750	0	34.4090	0	27.423	0	1142.469	0	7.7	4	2.4	4	-1E+10	1	-1E+10	1	-1E+10	1	-1E+10	1	-1E+10	1	-1E+10	1
4902549	66	C	06/08/2022	02:04	-131.449	47.634	0	1165.90	0	2.9600	0	34.4120	0	27.427	0	1152.922	0	7.8	4	2.4	4	-1E+10	1	-1E+10	1	-1E+10	1	-1E+10	1	-1E+10	1	-1E+10	1
4902549	66	C	06/08/2022	02:04	-131.449	47.634	0	1175.40	0	2.9490	0	34.4140	0	27.429	0	1162.290	0	8.0	4	2.5	4	-1E+10	1	-1E+10	1	-1E+10	1	-1E+10	1	-1E+10	1	-1E+10	1
4902549	66	C	06/08/2022	02:04	-131.449	47.634	0	1185.30	0	2.9380	0	34.4160	0	27.432	0	1172.052	0	8.2	4	2.5	4	-1E+10	1	-1E+10	1	-1E+10	1	-1E+10	1	-1E+10	1	-1E+10	1
4902549	66	C	06/08/2022	02:04	-131.449	47.634	0	1195.20	0	2.9150	0	34.4200	0	27.437	0	1181.814	0	8.4	4	2.6	4	-1E+10	1	-1E+10	1	-1E+10	1	-1E+10	1	-1E+10	1	-1E+10	1
4902549	66	C	06/08/2022	02:04	-131.449	47.634	0	1205.50	0	2.8870	0	34.4250	0	27.444	0	1191.969	0	8.7	4	2.7	4	-1E+10	1	-1E+10	1	-1E+10	1	-1E+10	1	-1E+10	1	-1E+10	1
4902549	66	C	06/08/2022	02:04	-131.449	47.634	0	1215.60	0	2.8670	0	34.4280	0	27.448	0	1201.927	0	8.9	4	2.7	4	-1E+10	1	-1E+10	1	-1E+10	1	-1E+10	1	-1E+10	1	-1E+10	1
4902549	66	C	06/08/2022	02:04	-131.449	47.634	0	1225.50	0	2.8510	0	34.4310	0	27.452	0	1211.687	0	9.0	4	2.8	4	-1E+10	1	-1E+10	1	-1E+10	1	-1E+10	1	-1E+10	1	-1E+10	1
4902549	66	C	06/08/2022	02:04	-131.449	47.634	0	1235.40	0	2.8450	0	34.4320	0	27.453	0	1221.447	0	9.2	4	2.8	4	-1E+10	1	-1E+10	1	-1E+10	1	-1E+10	1	-1E+10	1	-1E+10	1
4902549	66	C	06/08/2022	02:04	-131.449	47.634	0	1245.40	0	2.8320	0	34.4340	0	27.456	0	1231.305	0	9.4	4	2.9	4	-1E+10	1	-1E+10	1	-1E+10	1	-1E+10	1	-1E+10	1	-1E+10	1
4902549	66	C	06/08/2022	02:04	-131.449	47.634	0	1255.30	0	2.8130	0	34.4370	0	27.460	0	1241.064	0	9.6	4	3.0	4	-1E+10	1	-1E+10	1	-1E+10	1	-1E+10	1	-1E+10	1	-1E+10	1
4902549	66	C	06/08/2022	02:04	-131.449	47.634	0	1265.40	0	2.7960	0	34.4400	0	27.464	0	1251.019	0	9.9	4	3.0	4	-1E+10	1	-1E+10	1	-1E+10	1	-1E+10	1	-1E+10	1	-1E+10	1
4902549	66	C	06/08/2022	02:04	-131.449	47.634	0	1275.30	0	2.7820	0	34.4430	0	27.468	0	1260.777	0	10.2	4	3.1	4	-1E+10	1	-1E+10	1	-1E+10	1	-1E+10	1	-1E+10	1	-1E+10	1
4902549	66	C	06/08/2022	02:04	-131.449	47.634	0	1285.50	0	2.7600	0	34.4460	0	27.472	0	1270.830	0	10.4	4	3.2	4	-1E+10	1	-1E+10	1	-1E+10	1	-1E+10	1	-1E+10	1	-1E+10	1
4902549	66	C	06/08/2022	02:04	-131.449	47.634	0	1295.60	0	2.7480	0	34.4480	0	27.475	0	1280.784	0	10.7	4	3.3	4	-1E+10	1	-1E+10	1	-1E+10	1	-1E+10	1	-1E+10	1	-1E+10	1
4902549	66	C	06/08/2022	02:04	-131.449	47.634	0	1305.50	0	2.7320	0	34.4510	0	27.479	0	1290.540	0	11.0	4	3.4	4	-1E+10	1	-1E+10	1	-1E+10	1	-1E+10	1	-1E+10	1	-1E+10	1
4902549	66	C	06/08/2022	02:04	-131.449	47.634	0	1315.50	0	2.7170	0	34.4530	0	27.482	0	1300.395	0	11.3	4	3.5	4	-1E+10	1	-1E+10	1	-1E+10	1	-1E+10	1	-1E+10	1	-1E+10	1
4902549	66	C	06/08/2022	02:04	-131.449	47.634	0	1325.60	0	2.7010	0	34.4560	0	27.485	0	1310.348	0	11.7	4	3.6	4	-1E+10	1	-1E+10	1	-1E+10	1	-1E+10	1	-1E+10	1	-1E+10	1
4902549	66	C	06/08/2022	02:04	-131.449	47.634	0	1335.70	0	2.6830	0	34.4590	0	27.489	0	1320.300	0	12.1	4	3.7	4	-1E+10	1	-1E+10	1	-1E+10	1	-1E+10	1	-1E+10	1	-1E+10	1
4902549	66	C	06/08/2022	02:04	-131.449	47.634	0	1345.50	0	2.6620	0	34.4620	0	27.494	0	1329.956	0	12.5	4	3.8	4	-1E+10	1	-1E+10	1	-1E+10	1	-1E+10	1	-1E+10	1	-1E+10	1
4902549	66	C	06/08/2022	02:04	-131.449	47.634	0	1355.30	0	2.6440	0	34.4640	0	27.497	0	1339.612	0	12.8	4	3.9	4	-1E+10	1	-1E+10	1	-1E+10	1	-1E+10	1	-1E+10	1	-1E+10	1
4902549	66	C	06/08/2022	02:04	-131.449	47.634	0	1365.20	0	2.6290	0	34.4670	0	27.501	0	1349.365	0	13.2	4	4.0	4	-1E+10	1	-1E+10	1	-1E+10	1	-1E+10	1	-1E+10	1	-1E+10	1
4902549	66	C	06/08/2022	02:04	-131.449	47.634	0	1375.20	0	2.6170	0	34.4690	0	27.503	0	1359.217	0	13.6	4	4.2	4	-1E+10	1	-1E+10	1	-1E+10	1	-1E+10	1	-1E+10	1	-1E+10	1
4902549	66	C	06/08/2022	02:04	-131.449	47.634	0	1385.40	0	2.6020	0	34.4710	0	27.506	0	1369.265	0	14.0	4	4.3	4	-1E+10	1	-1E+10	1	-1E+10	1	-1E+10	1	-1E+10	1	-1E+10	1
4902549	66	C	06/08/2022	02:04	-131.449	47.634	0	1395.50	0	2.5850	0	34.4740	0	27.510	0	1379.215	0	14.5	4	4.4	4	-1E+10	1	-1E+10	1	-1E+10	1	-1E+10	1	-1E+10	1	-1E+10	1
4902549	66	C	06/08/2022	02:04	-131.449	47.634	0	1405.50	0	2.5700	0	34.4770	0	27.514	0	1389.065	0	14.9	4	4.6	4	-1E+10	1	-1E+10	1	-1E+10	1	-1E+10	1	-1E+10	1	-1E+10	1
4902549	66	C	06/08/2022	02:04	-131.449	47.634	0	1415.40	0	2.5570	0	34.4790	0	27.517	0	1398.817	0	15.5	4	4.7	4	-1E+10	1	-1E+10	1	-1E+10	1	-1E+10	1	-1E+10	1	-1E+10	1
4902549	66	C	06/08/2022	02:04	-131.449	47.634	0	1425.30	0	2.5230	0	34.4840	0	27.524	0	1408.568	0	16.2	4	4.9	4	-1E+10	1	-1E+10	1	-1E+10	1	-1E+10	1	-1E+10	1	-1E+10	1
4902549	66	C	06/08/2022	02:04	-131.449	47.634	0	1435.60	0	2.5160	0	34.4850	0	27.525	0	1418.712	0	16.7	4	5.1	4	-1E+10	1	-1E+10	1	-1E+10	1	-1E+10	1	-1E+10	1	-1E+10	1
4902549	66	C	06/08/2022	02:04	-131.449	47.634	0	1445.50	0	2.4950	0	34.4880	0	27.529	0	1428.462	0	17.3	4	5.3	4	-1E+10	1	-1E+10	1	-1E+10	1	-1E+10	1	-1E+10	1	-1E+10	1
4902549	66	C	06/08/2022	02:04	-131.449	47.634	0	1455.40	0	2.4800	0	34.4910	0	27.533	0	1438.212	0	17.8	4	5.4	4	-1E+10	1	-1E+10	1	-1E+10	1	-1E+10	1	-1E+10	1	-1E+10	1
4902549	66	C	06/08/2022	02:04	-131.449	47.634	0	1465.60	0	2.4690	0	34.4920	0	27.535	0	1448.256	0	18.3	4	5.6	4	-1E+10	1	-1E+10	1	-1E+10	1	-1E+10	1	-1E+10	1	-1E+10	1
4902549	66	C	06/08/2022	02:04	-131.449	47.634	0	1475.70	0	2.4500	0	34.4960	0	27.540	0	1458.202	0	18.8	4	5.7	4	-1E+10	1	-1E+10	1	-1E+10	1	-1E+10	1	-1E+10	1	-1E+10	1
4902549	66	C	06/08/2022	02:04	-131.449	47.634	0	1485.50	0	2.4410	0	34.4970	0	27.541	0	1467.852	0	19.3	4	5.9	4	-1E+10	1	-1E+10	1	-1E+10	1	-1E+10	1	-1E+10	1	-1E+10	1
4902549	66	C	06/08/2022	02:04	-131.449	47.634	0	1495.20	0	2.4330	0	34.4990	0	27.543	0	1477.403	0	19.8	4	6.0	4	-1E+10	1	-1E+10	1	-1E+10	1	-1E+10	1	-1E+10	1	-1E+10	1
4902549	66	C	06/08/2022	02:04	-131.449	47.634	0	1505.10	0	2.4230	0	34.5010	0	27.546	0	1487.150	0	20.5	4	6.2	4	-1E+10	1	-1E+10	1	-1E+10	1	-1E+10	1	-1E+10	1	-1E+10	1
4902549	66	C	06/08/2022	02:04	-131.449	47.634	0	1515.20	0	2.4100	0	34.5040	0	27.549	0	1497.094	0	21.1	4	6.4	4	-1E+10	1	-1E+10	1	-1E+10	1	-1E+10	1	-1E+10	1	-1E+10	1
4902549	66	C	06/08/2022	02:04	-131.449	47.634	0	1525.50	0	2.3990	0	34.5060	0	27.552	0	1507.234	0	21.6	4	6.6	4	-1E+10	1	-1E+10	1	-1E+10	1	-1E+10	1	-1E+10	1	-1E+10	1
4902549	66	C	06/08/2022	02:04	-131.449	47.634	0	1535.40	0	2.3960	0	34.5070	0	27.553	0	1516.980	0	22.2	4	6.8	4	-1E+10	1	-1E+10	1	-1E+10	1	-1E+10	1	-1E+10	1	-1E+10	1
4902549	66	C	06/08/2022	02:04	-131.449	47.634	0	1545.40	0	2.3830	0	34.5100	0	27.557	0	1526.824	0	22.8	4	6.9	4	-1E+10	1	-1E+10	1	-1E+10	1	-1E+10	1	-1E+10	1	-1E+10	1
4902549	66	C	06/08/2022	02:04	-131.449	47.634	0	1555.50	0	2.3710	0	34.5120	0	27.559	0	1536.766	0	23.3	4	7.1	4	-1E+10	1	-1E+10	1	-1E+10	1	-1E+10	1	-1E+10	1	-1E+10	1
4902549	66	C	06/08/2022	02:04	-131.449	47.634	0	1565.50	0	2.3570	0	34.5140	0	27.562	0	1546.609	0	24.0	4	7.3	4	-1E+10	1	-1E+10	1	-1E+10	1	-1E+10	1	-1E+10	1	-1E+10	1
4902549	66	C	06/08/2022	02:04	-131.449	47.634	0	1575.70	0	2.3480	0	34.5150	0	27.564	0	1556.648	0	24.7	4	7.5	4	-1E+10	1	-1E+10	1	-1E+10	1	-1E+10	1	-1E+10	1	-1E+10	1
4902549	66	C	06/08/2022	02:04	-131.449	47.634	0	1585.60	0	2.3360	0	34.5190	0	27.568	0	1566.392	0	25.4	4	7.7	4	-1E+10	1	-1E+10	1	-1E+10	1	-1E+10	1	-1E+10	1	-1E+10	1
4902549	66	C	06/08/2022	02:04	-131.449	47.634	0	1595.40	0	2.3240	0	34.5210	0	27.571	0	1576.037	0	25.7	4	7.8	4	-1E+10	1	-1E+10	1	-1E+10	1	-1E+10	1	-1E+10	1	-1E+10	1
4902549	66	C	06/08/2022	02:04	-131.449	47.634	0	1605.20	0	2.3240	0	34.5210	0	27.571	0	1585.681	0	26.0	4	7.9	4	-1E+10	1	-1E+10	1	-1E+10	1	-1E+10	1	-1E+10	1	-1E+10	1
4902549	66	C	06/08/2022	02:04	-131.449	47.634	0	1615.20	0	2.3190	0	34.5220	0	27.572	0	1595.522	0	26.5	4	8.1	4	-1E+10	1	-1E+10	1	-1E+10	1	-1E+10	1	-1E+10	1	-1E+10	1
4902549	66	C	06/08/2022	02:04	-131.449	47.634	0	1625.20	0	2.3060	0	34.5240	0	27.575	0	1605.362	0	26.9	4	8.2	4	-1E+10	1	-1E+10	1	-1E+10	1	-1E+10	1	-1E+10	1	-1E+10	1
4902549	66	C	06/08/2022	02:04	-131.449	47.634	0	1635.60	0	2.2870	0	34.5250	0	27.577	0	1615.596	0	27.2	4	8.3	4	-1E+10	1	-1E+10	1	-1E+10	1	-1E+10	1	-1E+10	1	-1E+10	1
4902549	66	C	06/08/2022	02:04	-131.449	47.634	0	1645.20	0	2.2710	0	34.5260	0	27.579	0	1625.041	0	27.6	4	8.4	4	-1E+10	1	-1E+10	1	-1E+10	1	-1E+10	1	-1E+10	1	-1E+10	1
4902549	66	C	06/08/2022	02:04	-131.449	47.634	0	1655.20	0	2.2570	0	34.5280	0	27.582	0	1634.880	0	28.6	4	8.7	4	-1E+10	1	-1E+10	1	-1E+10	1	-1E+10	1	-1E+10	1	-1E+10	1
4902549	66	C	06/08/2022	02:04	-131.449	47.634	0	1665.20	0	2.2320	0	34.5310	0	27.586	0	1644.719	0	29.4	4	8.9	4	-1E+10	1	-1E+10	1	-1E+10	1	-1E+10	1	-1E+10	1	-1E+10	1
4902549	66	C	06/08/2022	02:04	-131.449	47.634	0	1675.40	0	2.2230	0	34.5330	0	27.589	0	1654.754	0	30.1	4	9.1	4	-1E+10	1	-1E+10	1	-1E+10	1	-1E+10	1	-1E+10	1	-1E+10	1
4902549	66	C	06/08/2022	02:04	-131.449	47.634	0	1685.60	0	2.2210	0	34.5360	0	27.591	0	1664.788	0	31.0	4	9.4	4	-1E+10	1	-1E+10	1	-1E+10	1	-1E+10	1	-1E+10	1	-1E+10	1
4902549	66	C	06/08/2022	02:04	-131.449	47.634	0	1695.70	0	2.2020	0	34.5380	0	27.595	0	1674.723	0	31.5	4	9.5	4	-1E+10	1	-1E+10	1	-1E+10	1	-1E+10	1	-1E+10	1	-1E+10	1
4902549	66	C	06/08/2022	02:04	-131.449	47.634	0	1705.60	0	2.1920	0	34.5390	0	27.596	0	1684.462	0	31.9	4	9.6	4	-1E+10	1	-1E+10	1	-1E+10	1	-1E+10	1	-1E+10	1	-1E+10	1
4902549	66	C	06/08/2022	02:04	-131.449	47.634	0	1715.30	0	2.1870	0	34.5400	0	27.597	0	1694.003	0	32.3	4	9.8	4	-1E+10	1	-1E+10	1	-1E+10	1	-1E+10	1	-1E+10	1	-1E+10	1
4902549	66	C	06/08/2022	02:04	-131.449	47.634	0	1725.30	0	2.1820	0	34.5410	0	27.599	0	1703.838	0	32.8	4	9.9	4	-1E+10	1	-1E+10	1	-1E+10	1	-1E+10	1	-1E+10	1	-1E+10	1
4902549	66	C	06/08/2022	02:04	-131.449	47.634	0	1735.60	0	2.1720	0	34.5430	0	27.601	0	1713.969	0	33.6	4	10.2	4	-1E+10	1	-1E+10	1	-1E+10	1	-1E+10	1	-1E+10	1	-1E+10	1
4902549	66	C	06/08/2022	02:04	-131.449	47.634	0	1745.50	0	2.1580	0	34.5450	0	27.604	0	1723.705	0	34.3	4	10.4	4	-1E+10	1	-1E+10	1	-1E+10	1	-1E+10	1	-1E+10	1	-1E+10	1
4902549	66	C	06/08/2022	02:04	-131.449	47.634	0	1755.40	0	2.1450	0	34.5460	0	27.606	0	1733.441	0	34.7	4	10.5	4	-1E+10	1	-1E+10	1	-1E+10	1	-1E+10	1	-1E+10	1	-1E+10	1
4902549	66	C	06/08/2022	02:04	-131.449	47.634	0	1765.40	0	2.1350	0	34.5470	0	27.607	0	1743.275	0	35.1	4	10.6	4	-1E+10	1	-1E+10	1	-1E+10	1	-1E+10	1	-1E+10	1	-1E+10	1
4902549	66	C	06/08/2022	02:04	-131.449	47.634	0	1775.30	0	2.1230	0	34.5490	0	27.610	0	1753.010	0	35.8	4	10.8	4	-1E+10	1	-1E+10	1	-1E+10	1	-1E+10	1	-1E+10	1	-1E+10	1
4902549	66	C	06/08/2022	02:04	-131.449	47.634	0	1785.40	0	2.1130	0	34.5500	0	27.612	0	1762.941	0	36.5	4	11.0	4	-1E+10	1	-1E+10	1	-1E+10	1	-1E+10	1	-1E+10	1	-1E+10	1
4902549	66	C	06/08/2022	02:04	-131.449	47.634	0	1795.50	0	2.1020	0	34.5520	0	27.614	0	1772.872	0	37.3	4	11.3	4	-1E+10	1	-1E+10	1	-1E+10	1	-1E+10	1	-1E+10	1	-1E+10	1
4902549	66	C	06/08/2022	02:04	-131.449	47.634	0	1805.30	0	2.0940	0	34.5540	0	27.617	0	1782.508	0	37.8	4	11.4	4	-1E+10	1	-1E+10	1	-1E+10	1	-1E+10	1	-1E+10	1	-1E+10	1
4902549	66	C	06/08/2022	02:04	-131.449	47.634	0	1815.20	0	2.0830	0	34.5540	0	27.617	0	1792.241	0	38.8	4	11.7	4	-1E+10	1	-1E+10	1	-1E+10	1	-1E+10	1	-1E+10	1	-1E+10	1
4902549	66	C	06/08/2022	02:04	-131.449	47.634	0	1825.40	0	2.0700	0	34.5580	0	27.622	0	1802.269	0	39.9	4	12.1	4	-1E+10	1	-1E+10	1	-1E+10	1	-1E+10	1	-1E+10	1	-1E+10	1
4902549	66	C	06/08/2022	02:04	-131.449	47.634	0	1835.20	0	2.0580	0	34.5600	0	27.624	0	1811.903	0	40.6	4	12.3	4	-1E+10	1	-1E+10	1	-1E+10	1	-1E+10	1	-1E+10	1	-1E+10	1
4902549	66	C	06/08/2022	02:04	-131.449	47.634	0	1845.40	0	2.0510	0	34.5620	0	27.627	0	1821.929	0	41.1	4	12.4	4	-1E+10	1	-1E+10	1	-1E+10	1	-1E+10	1	-1E+10	1	-1E+10	1
4902549	66	C	06/08/2022	02:04	-131.449	47.634	0	1855.50	0	2.0440	0	34.5630	0	27.628	0	1831.857	0	41.5	4	12.5	4	-1E+10	1	-1E+10	1	-1E+10	1	-1E+10	1	-1E+10	1	-1E+10	1
4902549	66	C	06/08/2022	02:04	-131.449	47.634	0	1865.70	0	2.0420	0	34.5640	0	27.629	0	1841.883	0	41.8	4	12.6	4	-1E+10	1	-1E+10	1	-1E+10	1	-1E+10	1	-1E+10	1	-1E+10	1
4902549	66	C	06/08/2022	02:04	-131.449	47.634	0	1875.50	0	2.0390	0	34.5640	0	27.629	0	1851.516	0	42.4	4	12.8	4	-1E+10	1	-1E+10	1	-1E+10	1	-1E+10	1	-1E+10	1	-1E+10	1
4902549	66	C	06/08/2022	02:04	-131.449	47.634	0	1885.40	0	2.0300	0	34.5660	0	27.632	0	1861.246	0	43.1	4	13.0	4	-1E+10	1	-1E+10	1	-1E+10	1	-1E+10	1	-1E+10	1	-1E+10	1
4902549	66	C	06/08/2022	02:04	-131.449	47.634	0	1895.40	0	2.0220	0	34.5670	0	27.633	0	1871.074	0	43.7	4	13.2	4	-1E+10	1	-1E+10	1	-1E+10	1	-1E+10	1	-1E+10	1	-1E+10	1
4902549	66	C	06/08/2022	02:04	-131.449	47.634	0	1905.10	0	2.0150	0	34.5690	0	27.635	0	1880.606	0	44.3	4	13.3	4	-1E+10	1	-1E+10	1	-1E+10	1	-1E+10	1	-1E+10	1	-1E+10	1
4902549	66	C	06/08/2022	02:04	-131.449	47.634	0	1915.40	0	2.0080	0	34.5700	0	27.637	0	1890.728	0	44.9	4	13.5	4	-1E+10	1	-1E+10	1	-1E+10	1	-1E+10	1	-1E+10	1	-1E+10	1
4902549	66	C	06/08/2022	02:04	-131.449	47.634	0	1925.80	0	2.0010	0	34.5720	0	27.639	0	1900.948	0	45.5	4	13.7	4	-1E+10	1	-1E+10	1	-1E+10	1	-1E+10	1	-1E+10	1	-1E+10	1
4902549	66	C	06/08/2022	02:04	-131.449	47.634	0	1935.70	0	1.9970	0	34.5730	0	27.640	0	1910.676	0	45.9	4	13.8	4	-1E+10	1	-1E+10	1	-1E+10	1	-1E+10	1	-1E+10	1	-1E+10	1
4902549	66	C	06/08/2022	02:04	-131.449	47.634	0	1945.70	0	1.9920	0	34.5740	0	27.641	0	1920.501	0	46.2	4	13.9	4	-1E+10	1	-1E+10	1	-1E+10	1	-1E+10	1	-1E+10	1	-1E+10	1
4902549	66	C	06/08/2022	02:04	-131.449	47.634	0	1955.80	0	1.9890	0	34.5750	0	27.642	0	1930.425	0	46.5	4	14.0	4	-1E+10	1	-1E+10	1	-1E+10	1	-1E+10	1	-1E+10	1	-1E+10	1
4902549	66	C	06/08/2022	02:04	-131.449	47.634	0	1965.90	0	1.9850	0	34.5760	0	27.644	0	1940.348	0	46.7	4	14.1	4	-1E+10	1	-1E+10	1	-1E+10	1	-1E+10	1	-1E+10	1	-1E+10	1
4902549	66	C	06/08/2022	02:04	-131.449	47.634	0	1973.40	0	1.9830	0	34.5770	0	27.645	0	1947.716	0	46.6	4	14.0	4	-1E+10	1	-1E+10	1	-1E+10	1	-1E+10	1	-1E+10	1	-1E+10	1
4902549	66	C	06/08/2022	02:04	-131.449	47.634	0																										
4902549	67	C	06/18/2022	07:11	-131.249	47.592	0	0.40	0	11.1380	0	32.2000	0	24.572	0	0.397	0	268.9	4	98.4	4	-1E+10	1	-1E+10	1	-1E+10	1	-1E+10	1	-1E+10	1	-1E+10	1
4902549	67	C	06/18/2022	07:11	-131.249	47.592	0	0.50	0	11.1380	0	32.2000	0	24.572	0	0.496	0	275.4	4	100.7	4	-1E+10	1	-1E+10	1	-1E+10	1	-1E+10	1	-1E+10	1	-1E+10	1
4902549	67	C	06/18/2022	07:11	-131.249	47.592	0	1.00	0	11.1390	0	32.1990	0	24.571	0	0.992	0	-1e10	1	-1e10	1	-1E+10	1	-1E+10	1	-1E+10	1	-1E+10	1	-1E+10	1	-1E+10	1
4902549	67	C	06/18/2022	07:11	-131.249	47.592	0	1.10	0	11.1370	0	32.1970	0	24.570	0	1.091	0	268.9	4	98.3	4	-1E+10	1	-1E+10	1	-1E+10	1	-1E+10	1	-1E+10	1	-1E+10	1
4902549	67	C	06/18/2022	07:11	-131.249	47.592	0	2.00	0	11.1380	0	32.2000	0	24.572	0	1.983	0	268.9	4	98.3	4	-1E+10	1	-1E+10	1	-1E+10	1	-1E+10	1	-1E+10	1	-1E+10	1
4902549	67	C	06/18/2022	07:11	-131.249	47.592	0	2.20	0	11.1382	0	32.2000	0	24.572	0	2.182	0	-1e10	1	-1e10	1	-1E+10	1	-1E+10	1	-1E+10	1	-1E+10	1	-1E+10	1	-1E+10	1
4902549	67	C	06/18/2022	07:11	-131.249	47.592	0	2.40	0	11.1384	0	32.2000	0	24.572	0	2.380	0	-1e10	1	-1e10	1	-1E+10	1	-1E+10	1	-1E+10	1	-1E+10	1	-1E+10	1	-1E+10	1
4902549	67	C	06/18/2022	07:11	-131.249	47.592	0	3.00	0	11.1390	0	32.2000	0	24.572	0	2.975	0	269.0	4	98.4	4	-1E+10	1	-1E+10	1	-1E+10	1	-1E+10	1	-1E+10	1	-1E+10	1
4902549	67	C	06/18/2022	07:11	-131.249	47.592	0	4.20	0	11.1400	0	32.2010	0	24.573	0	4.165	0	268.9	4	98.3	4	-1E+10	1	-1E+10	1	-1E+10	1	-1E+10	1	-1E+10	1	-1E+10	1
4902549	67	C	06/18/2022	07:11	-131.249	47.592	0	5.00	0	11.1400	0	32.2010	0	24.573	0	4.958	0	268.9	4	98.4	4	-1E+10	1	-1E+10	1	-1E+10	1	-1E+10	1	-1E+10	1	-1E+10	1
4902549	67	C	06/18/2022	07:11	-131.249	47.592	0	6.10	0	11.1390	0	32.2010	0	24.573	0	6.049	0	268.9	4	98.4	4	-1E+10	1	-1E+10	1	-1E+10	1	-1E+10	1	-1E+10	1	-1E+10	1
4902549	67	C	06/18/2022	07:11	-131.249	47.592	0	7.20	0	11.1390	0	32.2020	0	24.574	0	7.140	0	268.9	4	98.4	4	-1E+10	1	-1E+10	1	-1E+10	1	-1E+10	1	-1E+10	1	-1E+10	1
4902549	67	C	06/18/2022	07:11	-131.249	47.592	0	7.80	0	11.1390	0	32.2010	0	24.573	0	7.735	0	269.1	4	98.4	4	-1E+10	1	-1E+10	1	-1E+10	1	-1E+10	1	-1E+10	1	-1E+10	1
4902549	67	C	06/18/2022	07:11	-131.249	47.592	0	9.00	0	11.1390	0	32.2000	0	24.572	0	8.925	0	269.2	4	98.4	4	-1E+10	1	-1E+10	1	-1E+10	1	-1E+10	1	-1E+10	1	-1E+10	1
4902549	67	C	06/18/2022	07:11	-131.249	47.592	0	10.10	0	11.1390	0	32.2010	0	24.573	0	10.015	0	269.2	4	98.5	4	-1E+10	1	-1E+10	1	-1E+10	1	-1E+10	1	-1E+10	1	-1E+10	1
4902549	67	C	06/18/2022	07:11	-131.249	47.592	0	10.90	0	11.1170	0	32.2010	0	24.577	0	10.809	0	269.5	4	98.5	4	-1E+10	1	-1E+10	1	-1E+10	1	-1E+10	1	-1E+10	1	-1E+10	1
4902549	67	C	06/18/2022	07:11	-131.249	47.592	0	12.20	0	10.9870	0	32.2010	0	24.600	0	12.098	0	270.4	4	98.6	4	-1E+10	1	-1E+10	1	-1E+10	1	-1E+10	1	-1E+10	1	-1E+10	1
4902549	67	C	06/18/2022	07:11	-131.249	47.592	0	13.10	0	10.9600	0	32.2020	0	24.605	0	12.990	0	270.5	4	98.6	4	-1E+10	1	-1E+10	1	-1E+10	1	-1E+10	1	-1E+10	1	-1E+10	1
4902549	67	C	06/18/2022	07:11	-131.249	47.592	0	14.00	0	10.9500	0	32.2020	0	24.607	0	13.883	0	270.7	4	98.6	4	-1E+10	1	-1E+10	1	-1E+10	1	-1E+10	1	-1E+10	1	-1E+10	1
4902549	67	C	06/18/2022	07:11	-131.249	47.592	0	15.10	0	10.9440	0	32.2030	0	24.609	0	14.973	0	271.0	4	98.7	4	-1E+10	1	-1E+10	1	-1E+10	1	-1E+10	1	-1E+10	1	-1E+10	1
4902549	67	C	06/18/2022	07:11	-131.249	47.592	0	16.00	0	10.9350	0	32.2030	0	24.610	0	15.866	0	271.0	4	98.7	4	-1E+10	1	-1E+10	1	-1E+10	1	-1E+10	1	-1E+10	1	-1E+10	1
4902549	67	C	06/18/2022	07:11	-131.249	47.592	0	17.20	0	10.9110	0	32.2040	0	24.615	0	17.056	0	271.4	4	98.8	4	-1E+10	1	-1E+10	1	-1E+10	1	-1E+10	1	-1E+10	1	-1E+10	1
4902549	67	C	06/18/2022	07:11	-131.249	47.592	0	18.10	0	10.8980	0	32.2030	0	24.617	0	17.948	0	271.6	4	98.8	4	-1E+10	1	-1E+10	1	-1E+10	1	-1E+10	1	-1E+10	1	-1E+10	1
4902549	67	C	06/18/2022	07:11	-131.249	47.592	0	19.00	0	10.8780	0	32.2030	0	24.620	0	18.840	0	271.9	4	98.9	4	-1E+10	1	-1E+10	1	-1E+10	1	-1E+10	1	-1E+10	1	-1E+10	1
4902549	67	C	06/18/2022	07:11	-131.249	47.592	0	19.90	0	10.8380	0	32.2030	0	24.627	0	19.733	0	272.3	4	99.0	4	-1E+10	1	-1E+10	1	-1E+10	1	-1E+10	1	-1E+10	1	-1E+10	1
4902549	67	C	06/18/2022	07:11	-131.249	47.592	0	21.10	0	10.7790	0	32.2050	0	24.639	0	20.923	0	272.9	4	99.0	4	-1E+10	1	-1E+10	1	-1E+10	1	-1E+10	1	-1E+10	1	-1E+10	1
4902549	67	C	06/18/2022	07:11	-131.249	47.592	0	22.00	0	10.7320	0	32.2050	0	24.647	0	21.815	0	273.6	4	99.2	4	-1E+10	1	-1E+10	1	-1E+10	1	-1E+10	1	-1E+10	1	-1E+10	1
4902549	67	C	06/18/2022	07:11	-131.249	47.592	0	23.00	0	10.6110	0	32.2090	0	24.671	0	22.807	0	274.2	4	99.2	4	-1E+10	1	-1E+10	1	-1E+10	1	-1E+10	1	-1E+10	1	-1E+10	1
4902549	67	C	06/18/2022	07:11	-131.249	47.592	0	24.10	0	10.4270	0	32.2180	0	24.710	0	23.897	0	275.1	4	99.1	4	-1E+10	1	-1E+10	1	-1E+10	1	-1E+10	1	-1E+10	1	-1E+10	1
4902549	67	C	06/18/2022	07:11	-131.249	47.592	0	24.90	0	10.3240	0	32.2170	0	24.726	0	24.690	0	275.6	4	99.1	4	-1E+10	1	-1E+10	1	-1E+10	1	-1E+10	1	-1E+10	1	-1E+10	1
4902549	67	C	06/18/2022	07:11	-131.249	47.592	0	25.80	0	10.2690	0	32.2190	0	24.737	0	25.583	0	276.0	4	99.1	4	-1E+10	1	-1E+10	1	-1E+10	1	-1E+10	1	-1E+10	1	-1E+10	1
4902549	67	C	06/18/2022	07:11	-131.249	47.592	0	26.90	0	10.2310	0	32.2190	0	24.744	0	26.674	0	276.1	4	99.1	4	-1E+10	1	-1E+10	1	-1E+10	1	-1E+10	1	-1E+10	1	-1E+10	1
4902549	67	C	06/18/2022	07:11	-131.249	47.592	0	28.10	0	10.1670	0	32.2180	0	24.754	0	27.863	0	276.3	4	99.0	4	-1E+10	1	-1E+10	1	-1E+10	1	-1E+10	1	-1E+10	1	-1E+10	1
4902549	67	C	06/18/2022	07:11	-131.249	47.592	0	28.90	0	10.1410	0	32.2200	0	24.759	0	28.657	0	276.3	4	98.9	4	-1E+10	1	-1E+10	1	-1E+10	1	-1E+10	1	-1E+10	1	-1E+10	1
4902549	67	C	06/18/2022	07:11	-131.249	47.592	0	29.80	0	10.1250	0	32.2190	0	24.761	0	29.549	0	276.2	4	98.9	4	-1E+10	1	-1E+10	1	-1E+10	1	-1E+10	1	-1E+10	1	-1E+10	1
4902549	67	C	06/18/2022	07:11	-131.249	47.592	0	30.90	0	10.0720	0	32.2210	0	24.772	0	30.640	0	276.3	4	98.8	4	-1E+10	1	-1E+10	1	-1E+10	1	-1E+10	1	-1E+10	1	-1E+10	1
4902549	67	C	06/18/2022	07:11	-131.249	47.592	0	32.10	0	10.0510	0	32.2200	0	24.774	0	31.829	0	276.2	4	98.7	4	-1E+10	1	-1E+10	1	-1E+10	1	-1E+10	1	-1E+10	1	-1E+10	1
4902549	67	C	06/18/2022	07:11	-131.249	47.592	0	32.90	0	10.0230	0	32.2220	0	24.781	0	32.623	0	276.2	4	98.7	4	-1E+10	1	-1E+10	1	-1E+10	1	-1E+10	1	-1E+10	1	-1E+10	1
4902549	67	C	06/18/2022	07:11	-131.249	47.592	0	33.70	0	10.0130	0	32.2220	0	24.782	0	33.416	0	276.1	4	98.6	4	-1E+10	1	-1E+10	1	-1E+10	1	-1E+10	1	-1E+10	1	-1E+10	1
4902549	67	C	06/18/2022	07:11	-131.249	47.592	0	34.80	0	9.9610	0	32.2250	0	24.793	0	34.506	0	276.2	4	98.5	4	-1E+10	1	-1E+10	1	-1E+10	1	-1E+10	1	-1E+10	1	-1E+10	1
4902549	67	C	06/18/2022	07:11	-131.249	47.592	0	35.80	0	9.9090	0	32.2280	0	24.804	0	35.498	0	276.0	4	98.3	4	-1E+10	1	-1E+10	1	-1E+10	1	-1E+10	1	-1E+10	1	-1E+10	1
4902549	67	C	06/18/2022	07:11	-131.249	47.592	0	37.10	0	9.8750	0	32.2250	0	24.807	0	36.787	0	275.7	4	98.1	4	-1E+10	1	-1E+10	1	-1E+10	1	-1E+10	1	-1E+10	1	-1E+10	1
4902549	67	C	06/18/2022	07:11	-131.249	47.592	0	37.90	0	9.8570	0	32.2220	0	24.808	0	37.580	0	275.4	4	98.0	4	-1E+10	1	-1E+10	1	-1E+10	1	-1E+10	1	-1E+10	1	-1E+10	1
4902549	67	C	06/18/2022	07:11	-131.249	47.592	0	39.00	0	9.7330	0	32.2300	0	24.835	0	38.671	0	275.6	4	97.8	4	-1E+10	1	-1E+10	1	-1E+10	1	-1E+10	1	-1E+10	1	-1E+10	1
4902549	67	C	06/18/2022	07:11	-131.249	47.592	0	40.10	0	9.5580	0	32.2460	0	24.875	0	39.761	0	276.0	4	97.6	4	-1E+10	1	-1E+10	1	-1E+10	1	-1E+10	1	-1E+10	1	-1E+10	1
4902549	67	C	06/18/2022	07:11	-131.249	47.592	0	41.00	0	9.5190	0	32.2450	0	24.881	0	40.653	0	276.1	4	97.5	4	-1E+10	1	-1E+10	1	-1E+10	1	-1E+10	1	-1E+10	1	-1E+10	1
4902549	67	C	06/18/2022	07:11	-131.249	47.592	0	41.90	0	9.4710	0	32.2470	0	24.890	0	41.546	0	275.9	4	97.4	4	-1E+10	1	-1E+10	1	-1E+10	1	-1E+10	1	-1E+10	1	-1E+10	1
4902549	67	C	06/18/2022	07:11	-131.249	47.592	0	43.00	0	9.4140	0	32.2500	0	24.901	0	42.636	0	275.7	4	97.2	4	-1E+10	1	-1E+10	1	-1E+10	1	-1E+10	1	-1E+10	1	-1E+10	1
4902549	67	C	06/18/2022	07:11	-131.249	47.592	0	43.90	0	9.3760	0	32.2510	0	24.908	0	43.529	0	275.5	4	97.0	4	-1E+10	1	-1E+10	1	-1E+10	1	-1E+10	1	-1E+10	1	-1E+10	1
4902549	67	C	06/18/2022	07:11	-131.249	47.592	0	44.70	0	9.3510	0	32.2510	0	24.912	0	44.322	0	275.2	4	96.9	4	-1E+10	1	-1E+10	1	-1E+10	1	-1E+10	1	-1E+10	1	-1E+10	1
4902549	67	C	06/18/2022	07:11	-131.249	47.592	0	45.90	0	9.3000	0	32.2520	0	24.921	0	45.511	0	274.8	4	96.6	4	-1E+10	1	-1E+10	1	-1E+10	1	-1E+10	1	-1E+10	1	-1E+10	1
4902549	67	C	06/18/2022	07:11	-131.249	47.592	0	47.00	0	9.1830	0	32.2590	0	24.945	0	46.602	0	274.9	4	96.4	4	-1E+10	1	-1E+10	1	-1E+10	1	-1E+10	1	-1E+10	1	-1E+10	1
4902549	67	C	06/18/2022	07:11	-131.249	47.592	0	48.00	0	9.0920	0	32.2620	0	24.962	0	47.593	0	274.9	4	96.2	4	-1E+10	1	-1E+10	1	-1E+10	1	-1E+10	1	-1E+10	1	-1E+10	1
4902549	67	C	06/18/2022	07:11	-131.249	47.592	0	48.90	0	9.0460	0	32.2630	0	24.970	0	48.486	0	274.8	4	96.1	4	-1E+10	1	-1E+10	1	-1E+10	1	-1E+10	1	-1E+10	1	-1E+10	1
4902549	67	C	06/18/2022	07:11	-131.249	47.592	0	50.10	0	9.0160	0	32.2630	0	24.974	0	49.675	0	274.7	4	96.0	4	-1E+10	1	-1E+10	1	-1E+10	1	-1E+10	1	-1E+10	1	-1E+10	1
4902549	67	C	06/18/2022	07:11	-131.249	47.592	0	51.00	0	8.9870	0	32.2640	0	24.979	0	50.568	0	274.4	4	95.8	4	-1E+10	1	-1E+10	1	-1E+10	1	-1E+10	1	-1E+10	1	-1E+10	1
4902549	67	C	06/18/2022	07:11	-131.249	47.592	0	52.00	0	8.9400	0	32.2620	0	24.985	0	51.559	0	274.4	4	95.7	4	-1E+10	1	-1E+10	1	-1E+10	1	-1E+10	1	-1E+10	1	-1E+10	1
4902549	67	C	06/18/2022	07:11	-131.249	47.592	0	53.10	0	8.9090	0	32.2610	0	24.989	0	52.650	0	274.3	4	95.6	4	-1E+10	1	-1E+10	1	-1E+10	1	-1E+10	1	-1E+10	1	-1E+10	1
4902549	67	C	06/18/2022	07:11	-131.249	47.592	0	53.90	0	8.8940	0	32.2660	0	24.995	0	53.443	0	274.3	4	95.6	4	-1E+10	1	-1E+10	1	-1E+10	1	-1E+10	1	-1E+10	1	-1E+10	1
4902549	67	C	06/18/2022	07:11	-131.249	47.592	0	55.00	0	8.8910	0	32.2660	0	24.996	0	54.533	0	274.1	4	95.5	4	-1E+10	1	-1E+10	1	-1E+10	1	-1E+10	1	-1E+10	1	-1E+10	1
4902549	67	C	06/18/2022	07:11	-131.249	47.592	0	56.20	0	8.8850	0	32.2670	0	24.998	0	55.723	0	273.8	4	95.4	4	-1E+10	1	-1E+10	1	-1E+10	1	-1E+10	1	-1E+10	1	-1E+10	1
4902549	67	C	06/18/2022	07:11	-131.249	47.592	0	56.80	0	8.8840	0	32.2670	0	24.998	0	56.318	0	273.6	4	95.4	4	-1E+10	1	-1E+10	1	-1E+10	1	-1E+10	1	-1E+10	1	-1E+10	1
4902549	67	C	06/18/2022	07:11	-131.249	47.592	0	57.90	0	8.8720	0	32.2660	0	24.999	0	57.408	0	273.4	4	95.2	4	-1E+10	1	-1E+10	1	-1E+10	1	-1E+10	1	-1E+10	1	-1E+10	1
4902549	67	C	06/18/2022	07:11	-131.249	47.592	0	59.00	0	8.8520	0	32.2660	0	25.002	0	58.499	0	272.9	4	95.0	4	-1E+10	1	-1E+10	1	-1E+10	1	-1E+10	1	-1E+10	1	-1E+10	1
4902549	67	C	06/18/2022	07:11	-131.249	47.592	0	60.20	0	8.8230	0	32.2630	0	25.004	0	59.688	0	272.7	4	94.9	4	-1E+10	1	-1E+10	1	-1E+10	1	-1E+10	1	-1E+10	1	-1E+10	1
4902549	67	C	06/18/2022	07:11	-131.249	47.592	0	61.00	0	8.7410	0	32.2710	0	25.023	0	60.481	0	272.8	4	94.8	4	-1E+10	1	-1E+10	1	-1E+10	1	-1E+10	1	-1E+10	1	-1E+10	1
4902549	67	C	06/18/2022	07:11	-131.249	47.592	0	62.20	0	8.6980	0	32.2730	0	25.031	0	61.671	0	272.6	4	94.6	4	-1E+10	1	-1E+10	1	-1E+10	1	-1E+10	1	-1E+10	1	-1E+10	1
4902549	67	C	06/18/2022	07:11	-131.249	47.592	0	63.00	0	8.6450	0	32.2780	0	25.043	0	62.464	0	272.8	4	94.6	4	-1E+10	1	-1E+10	1	-1E+10	1	-1E+10	1	-1E+10	1	-1E+10	1
4902549	67	C	06/18/2022	07:11	-131.249	47.592	0	64.10	0	8.6460	0	32.2790	0	25.043	0	63.555	0	272.5	4	94.5	4	-1E+10	1	-1E+10	1	-1E+10	1	-1E+10	1	-1E+10	1	-1E+10	1
4902549	67	C	06/18/2022	07:11	-131.249	47.592	0	64.80	0	8.6450	0	32.2790	0	25.044	0	64.249	0	272.2	4	94.4	4	-1E+10	1	-1E+10	1	-1E+10	1	-1E+10	1	-1E+10	1	-1E+10	1
4902549	67	C	06/18/2022	07:11	-131.249	47.592	0	65.80	0	8.6420	0	32.2850	0	25.049	0	65.240	0	271.7	4	94.2	4	-1E+10	1	-1E+10	1	-1E+10	1	-1E+10	1	-1E+10	1	-1E+10	1
4902549	67	C	06/18/2022	07:11	-131.249	47.592	0	66.90	0	8.6250	0	32.2910	0	25.056	0	66.330	0	271.1	4	94.0	4	-1E+10	1	-1E+10	1	-1E+10	1	-1E+10	1	-1E+10	1	-1E+10	1
4902549	67	C	06/18/2022	07:11	-131.249	47.592	0	68.00	0	8.5270	0	32.2960	0	25.075	0	67.421	0	271.3	4	93.8	4	-1E+10	1	-1E+10	1	-1E+10	1	-1E+10	1	-1E+10	1	-1E+10	1
4902549	67	C	06/18/2022	07:11	-131.249	47.592	0	69.00	0	8.4760	0	32.2950	0	25.082	0	68.412	0	271.2	4	93.7	4	-1E+10	1	-1E+10	1	-1E+10	1	-1E+10	1	-1E+10	1	-1E+10	1
4902549	67	C	06/18/2022	07:11	-131.249	47.592	0	70.10	0	8.4440	0	32.2950	0	25.086	0	69.503	0	271.0	4	93.5	4	-1E+10	1	-1E+10	1	-1E+10	1	-1E+10	1	-1E+10	1	-1E+10	1
4902549	67	C	06/18/2022	07:11	-131.249	47.592	0	71.10	0	8.4320	0	32.2960	0	25.089	0	70.494	0	270.7	4	93.4	4	-1E+10	1	-1E+10	1	-1E+10	1	-1E+10	1	-1E+10	1	-1E+10	1
4902549	67	C	06/18/2022	07:11	-131.249	47.592	0	72.10	0	8.4060	0	32.2970	0	25.094	0	71.485	0	270.3	4	93.2	4	-1E+10	1	-1E+10	1	-1E+10	1	-1E+10	1	-1E+10	1	-1E+10	1
4902549	67	C	06/18/2022	07:11	-131.249	47.592	0	73.10	0	8.3840	0	32.2960	0	25.096	0	72.476	0	269.8	4	93.0	4	-1E+10	1	-1E+10	1	-1E+10	1	-1E+10	1	-1E+10	1	-1E+10	1
4902549	67	C	06/18/2022	07:11	-131.249	47.592	0	73.80	0	8.3610	0	32.2950	0	25.099	0	73.170	0	269.3	4	92.8	4	-1E+10	1	-1E+10	1	-1E+10	1	-1E+10	1	-1E+10	1	-1E+10	1
4902549	67	C	06/18/2022	07:11	-131.249	47.592	0	74.80	0	8.3350	0	32.2960	0	25.103	0	74.162	0	268.3	4	92.4	4	-1E+10	1	-1E+10	1	-1E+10	1	-1E+10	1	-1E+10	1	-1E+10	1
4902549	67	C	06/18/2022	07:11	-131.249	47.592	0	75.90	0	8.3180	0	32.2960	0	25.106	0	75.252	0	266.8	4	91.8	4	-1E+10	1	-1E+10	1	-1E+10	1	-1E+10	1	-1E+10	1	-1E+10	1
4902549	67	C	06/18/2022	07:11	-131.249	47.592	0	77.00	0	8.3070	0	32.2970	0	25.108	0	76.342	0	264.8	4	91.1	4	-1E+10	1	-1E+10	1	-1E+10	1	-1E+10	1	-1E+10	1	-1E+10	1
4902549	67	C	06/18/2022	07:11	-131.249	47.592	0	78.10	0	8.2980	0	32.2960	0	25.109	0	77.433	0	262.1	4	90.2	4	-1E+10	1	-1E+10	1	-1E+10	1	-1E+10	1	-1E+10	1	-1E+10	1
4902549	67	C	06/18/2022	07:11	-131.249	47.592	0	78.90	0	8.2830	0	32.2990	0	25.113	0	78.226	0	260.0	4	89.4	4	-1E+10	1	-1E+10	1	-1E+10	1	-1E+10	1	-1E+10	1	-1E+10	1
4902549	67	C	06/18/2022	07:11	-131.249	47.592	0	80.10	0	8.1900	0	32.3090	0	25.135	0	79.415	0	257.2	4	88.3	4	-1E+10	1	-1E+10	1	-1E+10	1	-1E+10	1	-1E+10	1	-1E+10	1
4902549	67	C	06/18/2022	07:11	-131.249	47.592	0	81.00	0	8.0730	0	32.3320	0	25.170	0	80.308	0	256.3	4	87.8	4	-1E+10	1	-1E+10	1	-1E+10	1	-1E+10	1	-1E+10	1	-1E+10	1
4902549	67	C	06/18/2022	07:11	-131.249	47.592	0	81.90	0	8.0340	0	32.3390	0	25.181	0	81.200	0	255.1	4	87.3	4	-1E+10	1	-1E+10	1	-1E+10	1	-1E+10	1	-1E+10	1	-1E+10	1
4902549	67	C	06/18/2022	07:11	-131.249	47.592	0	83.00	0	7.9710	0	32.3630	0	25.209	0	82.290	0	253.3	4	86.6	4	-1E+10	1	-1E+10	1	-1E+10	1	-1E+10	1	-1E+10	1	-1E+10	1
4902549	67	C	06/18/2022	07:11	-131.249	47.592	0	84.00	0	7.9150	0	32.3890	0	25.237	0	83.281	0	256.1	4	87.4	4	-1E+10	1	-1E+10	1	-1E+10	1	-1E+10	1	-1E+10	1	-1E+10	1
4902549	67	C	06/18/2022	07:11	-131.249	47.592	0	85.10	0	7.8260	0	32.4370	0	25.288	0	84.372	0	253.9	4	86.5	4	-1E+10	1	-1E+10	1	-1E+10	1	-1E+10	1	-1E+10	1	-1E+10	1
4902549	67	C	06/18/2022	07:11	-131.249	47.592	0	86.10	0	7.7890	0	32.4550	0	25.307	0	85.363	0	253.3	4	86.2	4	-1E+10	1	-1E+10	1	-1E+10	1	-1E+10	1	-1E+10	1	-1E+10	1
4902549	67	C	06/18/2022	07:11	-131.249	47.592	0	87.00	0	7.7630	0	32.4690	0	25.322	0	86.255	0	252.6	4	86.0	4	-1E+10	1	-1E+10	1	-1E+10	1	-1E+10	1	-1E+10	1	-1E+10	1
4902549	67	C	06/18/2022	07:11	-131.249	47.592	0	88.00	0	7.7510	0	32.4750	0	25.328	0	87.246	0	251.8	4	85.7	4	-1E+10	1	-1E+10	1	-1E+10	1	-1E+10	1	-1E+10	1	-1E+10	1
4902549	67	C	06/18/2022	07:11	-131.249	47.592	0	88.90	0	7.7380	0	32.4820	0	25.336	0	88.138	0	251.1	4	85.4	4	-1E+10	1	-1E+10	1	-1E+10	1	-1E+10	1	-1E+10	1	-1E+10	1
4902549	67	C	06/18/2022	07:11	-131.249	47.592	0	90.00	0	7.7240	0	32.4920	0	25.346	0	89.229	0	250.1	4	85.1	4	-1E+10	1	-1E+10	1	-1E+10	1	-1E+10	1	-1E+10	1	-1E+10	1
4902549	67	C	06/18/2022	07:11	-131.249	47.592	0	90.90	0	7.7200	0	32.4960	0	25.349	0	90.121	0	249.0	4	84.7	4	-1E+10	1	-1E+10	1	-1E+10	1	-1E+10	1	-1E+10	1	-1E+10	1
4902549	67	C	06/18/2022	07:11	-131.249	47.592	0	91.90	0	7.7170	0	32.4990	0	25.352	0	91.112	0	247.9	4	84.3	4	-1E+10	1	-1E+10	1	-1E+10	1	-1E+10	1	-1E+10	1	-1E+10	1
4902549	67	C	06/18/2022	07:11	-131.249	47.592	0	92.90	0	7.7140	0	32.5010	0	25.354	0	92.103	0	246.7	4	83.9	4	-1E+10	1	-1E+10	1	-1E+10	1	-1E+10	1	-1E+10	1	-1E+10	1
4902549	67	C	06/18/2022	07:11	-131.249	47.592	0	93.90	0	7.7050	0	32.5120	0	25.364	0	93.094	0	245.0	4	83.3	4	-1E+10	1	-1E+10	1	-1E+10	1	-1E+10	1	-1E+10	1	-1E+10	1
4902549	67	C	06/18/2022	07:11	-131.249	47.592	0	94.90	0	7.6960	0	32.5330	0	25.382	0	94.086	0	243.5	4	82.8	4	-1E+10	1	-1E+10	1	-1E+10	1	-1E+10	1	-1E+10	1	-1E+10	1
4902549	67	C	06/18/2022	07:11	-131.249	47.592	0	95.90	0	7.6910	0	32.5500	0	25.396	0	95.077	0	241.9	4	82.2	4	-1E+10	1	-1E+10	1	-1E+10	1	-1E+10	1	-1E+10	1	-1E+10	1
4902549	67	C	06/18/2022	07:11	-131.249	47.592	0	97.00	0	7.6920	0	32.5580	0	25.402	0	96.167	0	240.0	4	81.6	4	-1E+10	1	-1E+10	1	-1E+10	1	-1E+10	1	-1E+10	1	-1E+10	1
4902549	67	C	06/18/2022	07:11	-131.249	47.592	0	98.10	0	7.6880	0	32.5720	0	25.414	0	97.257	0	238.3	4	81.0	4	-1E+10	1	-1E+10	1	-1E+10	1	-1E+10	1	-1E+10	1	-1E+10	1
4902549	67	C	06/18/2022	07:11	-131.249	47.592	0	98.90	0	7.6620	0	32.6040	0	25.442	0	98.050	0	237.1	4	80.6	4	-1E+10	1	-1E+10	1	-1E+10	1	-1E+10	1	-1E+10	1	-1E+10	1
4902549	67	C	06/18/2022	07:11	-131.249	47.592	0	100.30	0	7.6130	0	32.6450	0	25.482	0	99.438	0	236.2	4	80.2	4	-1E+10	1	-1E+10	1	-1E+10	1	-1E+10	1	-1E+10	1	-1E+10	1
4902549	67	C	06/18/2022	07:11	-131.249	47.592	0	101.00	0	7.6020	0	32.6520	0	25.489	0	100.132	0	235.9	4	80.1	4	-1E+10	1	-1E+10	1	-1E+10	1	-1E+10	1	-1E+10	1	-1E+10	1
4902549	67	C	06/18/2022	07:11	-131.249	47.592	0	101.90	0	7.5950	0	32.6570	0	25.493	0	101.024	0	235.3	4	79.9	4	-1E+10	1	-1E+10	1	-1E+10	1	-1E+10	1	-1E+10	1	-1E+10	1
4902549	67	C	06/18/2022	07:11	-131.249	47.592	0	103.10	0	7.5770	0	32.6660	0	25.503	0	102.213	0	234.4	4	79.6	4	-1E+10	1	-1E+10	1	-1E+10	1	-1E+10	1	-1E+10	1	-1E+10	1
4902549	67	C	06/18/2022	07:11	-131.249	47.592	0	103.80	0	7.5730	0	32.6690	0	25.506	0	102.907	0	233.9	4	79.4	4	-1E+10	1	-1E+10	1	-1E+10	1	-1E+10	1	-1E+10	1	-1E+10	1
4902549	67	C	06/18/2022	07:11	-131.249	47.592	0	105.00	0	7.5690	0	32.6720	0	25.509	0	104.096	0	232.6	4	78.9	4	-1E+10	1	-1E+10	1	-1E+10	1	-1E+10	1	-1E+10	1	-1E+10	1
4902549	67	C	06/18/2022	07:11	-131.249	47.592	0	105.90	0	7.5630	0	32.6780	0	25.515	0	104.988	0	231.5	4	78.6	4	-1E+10	1	-1E+10	1	-1E+10	1	-1E+10	1	-1E+10	1	-1E+10	1
4902549	67	C	06/18/2022	07:11	-131.249	47.592	0	107.00	0	7.5570	0	32.6850	0	25.521	0	106.079	0	229.9	4	78.0	4	-1E+10	1	-1E+10	1	-1E+10	1	-1E+10	1	-1E+10	1	-1E+10	1
4902549	67	C	06/18/2022	07:11	-131.249	47.592	0	108.00	0	7.5440	0	32.7030	0	25.537	0	107.070	0	227.7	4	77.3	4	-1E+10	1	-1E+10	1	-1E+10	1	-1E+10	1	-1E+10	1	-1E+10	1
4902549	67	C	06/18/2022	07:11	-131.249	47.592	0	109.10	0	7.5320	0	32.7380	0	25.566	0	108.160	0	220.5	4	74.8	4	-1E+10	1	-1E+10	1	-1E+10	1	-1E+10	1	-1E+10	1	-1E+10	1
4902549	67	C	06/18/2022	07:11	-131.249	47.592	0	110.00	0	7.5250	0	32.7760	0	25.597	0	109.052	0	215.2	4	73.0	4	-1E+10	1	-1E+10	1	-1E+10	1	-1E+10	1	-1E+10	1	-1E+10	1
4902549	67	C	06/18/2022	07:11	-131.249	47.592	0	111.10	0	7.5380	0	32.8140	0	25.625	0	110.142	0	210.4	4	71.4	4	-1E+10	1	-1E+10	1	-1E+10	1	-1E+10	1	-1E+10	1	-1E+10	1
4902549	67	C	06/18/2022	07:11	-131.249	47.592	0	112.00	0	7.5440	0	32.8480	0	25.651	0	111.034	0	206.8	4	70.2	4	-1E+10	1	-1E+10	1	-1E+10	1	-1E+10	1	-1E+10	1	-1E+10	1
4902549	67	C	06/18/2022	07:11	-131.249	47.592	0	112.90	0	7.5250	0	32.9060	0	25.699	0	111.926	0	203.7	4	69.2	4	-1E+10	1	-1E+10	1	-1E+10	1	-1E+10	1	-1E+10	1	-1E+10	1
4902549	67	C	06/18/2022	07:11	-131.249	47.592	0	113.90	0	7.5070	0	32.9420	0	25.730	0	112.917	0	200.6	4	68.1	4	-1E+10	1	-1E+10	1	-1E+10	1	-1E+10	1	-1E+10	1	-1E+10	1
4902549	67	C	06/18/2022	07:11	-131.249	47.592	0	114.90	0	7.4770	0	32.9960	0	25.777	0	113.908	0	197.9	4	67.2	4	-1E+10	1	-1E+10	1	-1E+10	1	-1E+10	1	-1E+10	1	-1E+10	1
4902549	67	C	06/18/2022	07:11	-131.249	47.592	0	116.10	0	7.4710	0	33.0210	0	25.797	0	115.098	0	194.8	4	66.1	4	-1E+10	1	-1E+10	1	-1E+10	1	-1E+10	1	-1E+10	1	-1E+10	1
4902549	67	C	06/18/2022	07:11	-131.249	47.592	0	116.90	0	7.4760	0	33.0640	0	25.830	0	115.891	0	192.9	4	65.5	4	-1E+10	1	-1E+10	1	-1E+10	1	-1E+10	1	-1E+10	1	-1E+10	1
4902549	67	C	06/18/2022	07:11	-131.249	47.592	0	118.00	0	7.4670	0	33.1060	0	25.865	0	116.981	0	190.5	4	64.7	4	-1E+10	1	-1E+10	1	-1E+10	1	-1E+10	1	-1E+10	1	-1E+10	1
4902549	67	C	06/18/2022	07:11	-131.249	47.592	0	119.00	0	7.4590	0	33.1450	0	25.896	0	117.972	0	188.5	4	64.0	4	-1E+10	1	-1E+10	1	-1E+10	1	-1E+10	1	-1E+10	1	-1E+10	1
4902549	67	C	06/18/2022	07:11	-131.249	47.592	0	120.10	0	7.4590	0	33.1850	0	25.928	0	119.062	0	187.0	4	63.5	4	-1E+10	1	-1E+10	1	-1E+10	1	-1E+10	1	-1E+10	1	-1E+10	1
4902549	67	C	06/18/2022	07:11	-131.249	47.592	0	121.00	0	7.4620	0	33.1950	0	25.935	0	119.954	0	185.9	4	63.2	4	-1E+10	1	-1E+10	1	-1E+10	1	-1E+10	1	-1E+10	1	-1E+10	1
4902549	67	C	06/18/2022	07:11	-131.249	47.592	0	121.80	0	7.4570	0	33.2040	0	25.943	0	120.747	0	184.8	4	62.8	4	-1E+10	1	-1E+10	1	-1E+10	1	-1E+10	1	-1E+10	1	-1E+10	1
4902549	67	C	06/18/2022	07:11	-131.249	47.592	0	122.90	0	7.4410	0	33.2170	0	25.956	0	121.837	0	183.2	4	62.2	4	-1E+10	1	-1E+10	1	-1E+10	1	-1E+10	1	-1E+10	1	-1E+10	1
4902549	67	C	06/18/2022	07:11	-131.249	47.592	0	124.10	0	7.4410	0	33.2300	0	25.966	0	123.026	0	181.1	4	61.5	4	-1E+10	1	-1E+10	1	-1E+10	1	-1E+10	1	-1E+10	1	-1E+10	1
4902549	67	C	06/18/2022	07:11	-131.249	47.592	0	125.10	0	7.4260	0	33.2600	0	25.991	0	124.017	0	179.6	4	61.0	4	-1E+10	1	-1E+10	1	-1E+10	1	-1E+10	1	-1E+10	1	-1E+10	1
4902549	67	C	06/18/2022	07:11	-131.249	47.592	0	126.00	0	7.4160	0	33.2870	0	26.014	0	124.909	0	177.9	4	60.5	4	-1E+10	1	-1E+10	1	-1E+10	1	-1E+10	1	-1E+10	1	-1E+10	1
4902549	67	C	06/18/2022	07:11	-131.249	47.592	0	127.10	0	7.4120	0	33.3300	0	26.049	0	125.999	0	176.5	4	60.0	4	-1E+10	1	-1E+10	1	-1E+10	1	-1E+10	1	-1E+10	1	-1E+10	1
4902549	67	C	06/18/2022	07:11	-131.249	47.592	0	127.80	0	7.4150	0	33.3420	0	26.058	0	126.693	0	175.6	4	59.7	4	-1E+10	1	-1E+10	1	-1E+10	1	-1E+10	1	-1E+10	1	-1E+10	1
4902549	67	C	06/18/2022	07:11	-131.249	47.592	0	128.80	0	7.4120	0	33.3920	0	26.097	0	127.684	0	174.7	4	59.4	4	-1E+10	1	-1E+10	1	-1E+10	1	-1E+10	1	-1E+10	1	-1E+10	1
4902549	67	C	06/18/2022	07:11	-131.249	47.592	0	129.90	0	7.4080	0	33.4070	0	26.110	0	128.774	0	173.9	4	59.1	4	-1E+10	1	-1E+10	1	-1E+10	1	-1E+10	1	-1E+10	1	-1E+10	1
4902549	67	C	06/18/2022	07:11	-131.249	47.592	0	130.90	0	7.4050	0	33.4130	0	26.115	0	129.765	0	172.9	4	58.8	4	-1E+10	1	-1E+10	1	-1E+10	1	-1E+10	1	-1E+10	1	-1E+10	1
4902549	67	C	06/18/2022	07:11	-131.249	47.592	0	132.00	0	7.4040	0	33.4160	0	26.117	0	130.855	0	171.8	4	58.4	4	-1E+10	1	-1E+10	1	-1E+10	1	-1E+10	1	-1E+10	1	-1E+10	1
4902549	67	C	06/18/2022	07:11	-131.249	47.592	0	133.00	0	7.4000	0	33.4250	0	26.125	0	131.846	0	170.6	4	58.0	4	-1E+10	1	-1E+10	1	-1E+10	1	-1E+10	1	-1E+10	1	-1E+10	1
4902549	67	C	06/18/2022	07:11	-131.249	47.592	0	134.20	0	7.3970	0	33.4370	0	26.135	0	133.036	0	169.3	4	57.6	4	-1E+10	1	-1E+10	1	-1E+10	1	-1E+10	1	-1E+10	1	-1E+10	1
4902549	67	C	06/18/2022	07:11	-131.249	47.592	0	134.90	0	7.3950	0	33.4570	0	26.151	0	133.729	0	168.5	4	57.3	4	-1E+10	1	-1E+10	1	-1E+10	1	-1E+10	1	-1E+10	1	-1E+10	1
4902549	67	C	06/18/2022	07:11	-131.249	47.592	0	136.00	0	7.3740	0	33.4970	0	26.185	0	134.819	0	167.3	4	56.9	4	-1E+10	1	-1E+10	1	-1E+10	1	-1E+10	1	-1E+10	1	-1E+10	1
4902549	67	C	06/18/2022	07:11	-131.249	47.592	0	137.20	0	7.3580	0	33.5390	0	26.221	0	136.009	0	166.3	4	56.5	4	-1E+10	1	-1E+10	1	-1E+10	1	-1E+10	1	-1E+10	1	-1E+10	1
4902549	67	C	06/18/2022	07:11	-131.249	47.592	0	137.90	0	7.3610	0	33.5500	0	26.229	0	136.702	0	165.7	4	56.3	4	-1E+10	1	-1E+10	1	-1E+10	1	-1E+10	1	-1E+10	1	-1E+10	1
4902549	67	C	06/18/2022	07:11	-131.249	47.592	0	138.70	0	7.3630	0	33.5550	0	26.233	0	137.495	0	165.2	4	56.2	4	-1E+10	1	-1E+10	1	-1E+10	1	-1E+10	1	-1E+10	1	-1E+10	1
4902549	67	C	06/18/2022	07:11	-131.249	47.592	0	139.90	0	7.3640	0	33.5630	0	26.239	0	138.684	0	164.2	4	55.8	4	-1E+10	1	-1E+10	1	-1E+10	1	-1E+10	1	-1E+10	1	-1E+10	1
4902549	67	C	06/18/2022	07:11	-131.249	47.592	0	141.10	0	7.3610	0	33.5820	0	26.254	0	139.873	0	163.4	4	55.6	4	-1E+10	1	-1E+10	1	-1E+10	1	-1E+10	1	-1E+10	1	-1E+10	1
4902549	67	C	06/18/2022	07:11	-131.249	47.592	0	141.90	0	7.3590	0	33.5850	0	26.257	0	140.666	0	162.9	4	55.4	4	-1E+10	1	-1E+10	1	-1E+10	1	-1E+10	1	-1E+10	1	-1E+10	1
4902549	67	C	06/18/2022	07:11	-131.249	47.592	0	142.70	0	7.3540	0	33.5920	0	26.263	0	141.459	0	162.3	4	55.2	4	-1E+10	1	-1E+10	1	-1E+10	1	-1E+10	1	-1E+10	1	-1E+10	1
4902549	67	C	06/18/2022	07:11	-131.249	47.592	0	144.00	0	7.3550	0	33.6080	0	26.275	0	142.747	0	161.6	4	55.0	4	-1E+10	1	-1E+10	1	-1E+10	1	-1E+10	1	-1E+10	1	-1E+10	1
4902549	67	C	06/18/2022	07:11	-131.249	47.592	0	145.20	0	7.3490	0	33.6220	0	26.287	0	143.936	0	161.2	4	54.8	4	-1E+10	1	-1E+10	1	-1E+10	1	-1E+10	1	-1E+10	1	-1E+10	1
4902549	67	C	06/18/2022	07:11	-131.249	47.592	0	146.00	0	7.3440	0	33.6350	0	26.298	0	144.729	0	161.0	4	54.7	4	-1E+10	1	-1E+10	1	-1E+10	1	-1E+10	1	-1E+10	1	-1E+10	1
4902549	67	C	06/18/2022	07:11	-131.249	47.592	0	146.80	0	7.3300	0	33.6490	0	26.311	0	145.522	0	160.9	4	54.7	4	-1E+10	1	-1E+10	1	-1E+10	1	-1E+10	1	-1E+10	1	-1E+10	1
4902549	67	C	06/18/2022	07:11	-131.249	47.592	0	147.70	0	7.3090	0	33.6660	0	26.328	0	146.414	0	161.0	4	54.7	4	-1E+10	1	-1E+10	1	-1E+10	1	-1E+10	1	-1E+10	1	-1E+10	1
4902549	67	C	06/18/2022	07:11	-131.249	47.592	0	148.90	0	7.2940	0	33.6900	0	26.348	0	147.603	0	161.7	4	54.9	4	-1E+10	1	-1E+10	1	-1E+10	1	-1E+10	1	-1E+10	1	-1E+10	1
4902549	67	C	06/18/2022	07:11	-131.249	47.592	0	150.20	0	7.2820	0	33.7000	0	26.358	0	148.891	0	162.7	4	55.3	4	-1E+10	1	-1E+10	1	-1E+10	1	-1E+10	1	-1E+10	1	-1E+10	1
4902549	67	C	06/18/2022	07:11	-131.249	47.592	0	151.10	0	7.2800	0	33.7020	0	26.360	0	149.783	0	163.7	4	55.6	4	-1E+10	1	-1E+10	1	-1E+10	1	-1E+10	1	-1E+10	1	-1E+10	1
4902549	67	C	06/18/2022	07:11	-131.249	47.592	0	151.90	0	7.2680	0	33.7090	0	26.367	0	150.576	0	164.7	4	55.9	4	-1E+10	1	-1E+10	1	-1E+10	1	-1E+10	1	-1E+10	1	-1E+10	1
4902549	67	C	06/18/2022	07:11	-131.249	47.592	0	152.80	0	7.2530	0	33.7120	0	26.372	0	151.467	0	165.9	4	56.3	4	-1E+10	1	-1E+10	1	-1E+10	1	-1E+10	1	-1E+10	1	-1E+10	1
4902549	67	C	06/18/2022	07:11	-131.249	47.592	0	153.60	0	7.2410	0	33.7120	0	26.373	0	152.260	0	167.0	4	56.7	4	-1E+10	1	-1E+10	1	-1E+10	1	-1E+10	1	-1E+10	1	-1E+10	1
4902549	67	C	06/18/2022	07:11	-131.249	47.592	0	154.90	0	7.1550	0	33.7150	0	26.387	0	153.548	0	168.1	4	57.0	4	-1E+10	1	-1E+10	1	-1E+10	1	-1E+10	1	-1E+10	1	-1E+10	1
4902549	67	C	06/18/2022	07:11	-131.249	47.592	0	156.30	0	7.0890	0	33.7200	0	26.401	0	154.936	0	167.6	4	56.7	4	-1E+10	1	-1E+10	1	-1E+10	1	-1E+10	1	-1E+10	1	-1E+10	1
4902549	67	C	06/18/2022	07:11	-131.249	47.592	0	157.10	0	7.0880	0	33.7190	0	26.400	0	155.728	0	166.8	4	56.4	4	-1E+10	1	-1E+10	1	-1E+10	1	-1E+10	1	-1E+10	1	-1E+10	1
4902549	67	C	06/18/2022	07:11	-131.249	47.592	0	158.00	0	7.0860	0	33.7190	0	26.400	0	156.620	0	165.9	4	56.1	4	-1E+10	1	-1E+10	1	-1E+10	1	-1E+10	1	-1E+10	1	-1E+10	1
4902549	67	C	06/18/2022	07:11	-131.249	47.592	0	158.90	0	7.0840	0	33.7200	0	26.401	0	157.512	0	164.8	4	55.7	4	-1E+10	1	-1E+10	1	-1E+10	1	-1E+10	1	-1E+10	1	-1E+10	1
4902549	67	C	06/18/2022	07:11	-131.249	47.592	0	159.80	0	7.0840	0	33.7220	0	26.403	0	158.404	0	163.6	4	55.4	4	-1E+10	1	-1E+10	1	-1E+10	1	-1E+10	1	-1E+10	1	-1E+10	1
4902549	67	C	06/18/2022	07:11	-131.249	47.592	0	160.60	0	7.0510	0	33.7350	0	26.418	0	159.196	0	162.5	4	54.9	4	-1E+10	1	-1E+10	1	-1E+10	1	-1E+10	1	-1E+10	1	-1E+10	1
4902549	67	C	06/18/2022	07:11	-131.249	47.592	0	161.90	0	7.0200	0	33.7380	0	26.424	0	160.484	0	159.9	4	54.0	4	-1E+10	1	-1E+10	1	-1E+10	1	-1E+10	1	-1E+10	1	-1E+10	1
4902549	67	C	06/18/2022	07:11	-131.249	47.592	0	163.20	0	7.0160	0	33.7520	0	26.436	0	161.773	0	157.4	4	53.2	4	-1E+10	1	-1E+10	1	-1E+10	1	-1E+10	1	-1E+10	1	-1E+10	1
4902549	67	C	06/18/2022	07:11	-131.249	47.592	0	164.10	0	7.0150	0	33.7590	0	26.441	0	162.664	0	156.2	4	52.8	4	-1E+10	1	-1E+10	1	-1E+10	1	-1E+10	1	-1E+10	1	-1E+10	1
4902549	67	C	06/18/2022	07:11	-131.249	47.592	0	165.00	0	7.0060	0	33.7670	0	26.449	0	163.556	0	155.4	4	52.5	4	-1E+10	1	-1E+10	1	-1E+10	1	-1E+10	1	-1E+10	1	-1E+10	1
4902549	67	C	06/18/2022	07:11	-131.249	47.592	0	165.90	0	6.9790	0	33.7710	0	26.456	0	164.448	0	155.1	4	52.3	4	-1E+10	1	-1E+10	1	-1E+10	1	-1E+10	1	-1E+10	1	-1E+10	1
4902549	67	C	06/18/2022	07:11	-131.249	47.592	0	166.80	0	6.9430	0	33.7790	0	26.467	0	165.340	0	154.9	4	52.2	4	-1E+10	1	-1E+10	1	-1E+10	1	-1E+10	1	-1E+10	1	-1E+10	1
4902549	67	C	06/18/2022	07:11	-131.249	47.592	0	167.70	0	6.9390	0	33.7800	0	26.468	0	166.231	0	154.7	4	52.2	4	-1E+10	1	-1E+10	1	-1E+10	1	-1E+10	1	-1E+10	1	-1E+10	1
4902549	67	C	06/18/2022	07:11	-131.249	47.592	0	168.70	0	6.9320	0	33.7810	0	26.470	0	167.222	0	154.5	4	52.1	4	-1E+10	1	-1E+10	1	-1E+10	1	-1E+10	1	-1E+10	1	-1E+10	1
4902549	67	C	06/18/2022	07:11	-131.249	47.592	0	169.60	0	6.9120	0	33.7860	0	26.477	0	168.114	0	154.4	4	52.0	4	-1E+10	1	-1E+10	1	-1E+10	1	-1E+10	1	-1E+10	1	-1E+10	1
4902549	67	C	06/18/2022	07:11	-131.249	47.592	0	170.90	0	6.8980	0	33.7860	0	26.479	0	169.402	0	154.3	4	52.0	4	-1E+10	1	-1E+10	1	-1E+10	1	-1E+10	1	-1E+10	1	-1E+10	1
4902549	67	C	06/18/2022	07:11	-131.249	47.592	0	172.40	0	6.8900	0	33.7860	0	26.480	0	170.888	0	154.3	4	52.0	4	-1E+10	1	-1E+10	1	-1E+10	1	-1E+10	1	-1E+10	1	-1E+10	1
4902549	67	C	06/18/2022	07:11	-131.249	47.592	0	173.30	0	6.8820	0	33.7880	0	26.482	0	171.780	0	154.2	4	51.9	4	-1E+10	1	-1E+10	1	-1E+10	1	-1E+10	1	-1E+10	1	-1E+10	1
4902549	67	C	06/18/2022	07:11	-131.249	47.592	0	174.30	0	6.8760	0	33.7870	0	26.482	0	172.771	0	154.1	4	51.9	4	-1E+10	1	-1E+10	1	-1E+10	1	-1E+10	1	-1E+10	1	-1E+10	1
4902549	67	C	06/18/2022	07:11	-131.249	47.592	0	175.20	0	6.8680	0	33.7880	0	26.484	0	173.663	0	154.0	4	51.9	4	-1E+10	1	-1E+10	1	-1E+10	1	-1E+10	1	-1E+10	1	-1E+10	1
4902549	67	C	06/18/2022	07:11	-131.249	47.592	0	176.10	0	6.8450	0	33.7900	0	26.489	0	174.554	0	154.0	4	51.8	4	-1E+10	1	-1E+10	1	-1E+10	1	-1E+10	1	-1E+10	1	-1E+10	1
4902549	67	C	06/18/2022	07:11	-131.249	47.592	0	177.10	0	6.8450	0	33.7910	0	26.490	0	175.545	0	154.0	4	51.8	4	-1E+10	1	-1E+10	1	-1E+10	1	-1E+10	1	-1E+10	1	-1E+10	1
4902549	67	C	06/18/2022	07:11	-131.249	47.592	0	178.00	0	6.8440	0	33.7930	0	26.492	0	176.437	0	154.3	4	51.9	4	-1E+10	1	-1E+10	1	-1E+10	1	-1E+10	1	-1E+10	1	-1E+10	1
4902549	67	C	06/18/2022	07:11	-131.249	47.592	0	178.90	0	6.8260	0	33.7970	0	26.497	0	177.329	0	155.1	4	52.2	4	-1E+10	1	-1E+10	1	-1E+10	1	-1E+10	1	-1E+10	1	-1E+10	1
4902549	67	C	06/18/2022	07:11	-131.249	47.592	0	179.90	0	6.8150	0	33.7960	0	26.498	0	178.319	0	155.9	4	52.4	4	-1E+10	1	-1E+10	1	-1E+10	1	-1E+10	1	-1E+10	1	-1E+10	1
4902549	67	C	06/18/2022	07:11	-131.249	47.592	0	180.80	0	6.7920	0	33.7940	0	26.499	0	179.211	0	156.8	4	52.7	4	-1E+10	1	-1E+10	1	-1E+10	1	-1E+10	1	-1E+10	1	-1E+10	1
4902549	67	C	06/18/2022	07:11	-131.249	47.592	0	181.80	0	6.7510	0	33.7960	0	26.506	0	180.202	0	157.7	4	53.0	4	-1E+10	1	-1E+10	1	-1E+10	1	-1E+10	1	-1E+10	1	-1E+10	1
4902549	67	C	06/18/2022	07:11	-131.249	47.592	0	182.80	0	6.7100	0	33.7950	0	26.511	0	181.193	0	158.4	4	53.1	4	-1E+10	1	-1E+10	1	-1E+10	1	-1E+10	1	-1E+10	1	-1E+10	1
4902549	67	C	06/18/2022	07:11	-131.249	47.592	0	183.70	0	6.6930	0	33.7920	0	26.511	0	182.084	0	159.0	4	53.3	4	-1E+10	1	-1E+10	1	-1E+10	1	-1E+10	1	-1E+10	1	-1E+10	1
4902549	67	C	06/18/2022	07:11	-131.249	47.592	0	184.70	0	6.6780	0	33.7930	0	26.514	0	183.075	0	159.4	4	53.5	4	-1E+10	1	-1E+10	1	-1E+10	1	-1E+10	1	-1E+10	1	-1E+10	1
4902549	67	C	06/18/2022	07:11	-131.249	47.592	0	185.70	0	6.6410	0	33.7870	0	26.514	0	184.066	0	160.0	4	53.6	4	-1E+10	1	-1E+10	1	-1E+10	1	-1E+10	1	-1E+10	1	-1E+10	1
4902549	67	C	06/18/2022	07:11	-131.249	47.592	0	186.70	0	6.5600	0	33.7830	0	26.521	0	185.057	0	160.1	4	53.5	4	-1E+10	1	-1E+10	1	-1E+10	1	-1E+10	1	-1E+10	1	-1E+10	1
4902549	67	C	06/18/2022	07:11	-131.249	47.592	0	187.60	0	6.4960	0	33.7800	0	26.527	0	185.948	0	159.8	4	53.4	4	-1E+10	1	-1E+10	1	-1E+10	1	-1E+10	1	-1E+10	1	-1E+10	1
4902549	67	C	06/18/2022	07:11	-131.249	47.592	0	188.60	0	6.4720	0	33.7810	0	26.531	0	186.939	0	159.4	4	53.2	4	-1E+10	1	-1E+10	1	-1E+10	1	-1E+10	1	-1E+10	1	-1E+10	1
4902549	67	C	06/18/2022	07:11	-131.249	47.592	0	189.60	0	6.4570	0	33.7790	0	26.532	0	187.930	0	158.8	4	53.0	4	-1E+10	1	-1E+10	1	-1E+10	1	-1E+10	1	-1E+10	1	-1E+10	1
4902549	67	C	06/18/2022	07:11	-131.249	47.592	0	190.60	0	6.4420	0	33.7820	0	26.536	0	188.920	0	158.2	4	52.7	4	-1E+10	1	-1E+10	1	-1E+10	1	-1E+10	1	-1E+10	1	-1E+10	1
4902549	67	C	06/18/2022	07:11	-131.249	47.592	0	191.60	0	6.4350	0	33.7760	0	26.532	0	189.911	0	157.4	4	52.5	4	-1E+10	1	-1E+10	1	-1E+10	1	-1E+10	1	-1E+10	1	-1E+10	1
4902549	67	C	06/18/2022	07:11	-131.249	47.592	0	192.60	0	6.4340	0	33.7760	0	26.532	0	190.902	0	156.4	4	52.1	4	-1E+10	1	-1E+10	1	-1E+10	1	-1E+10	1	-1E+10	1	-1E+10	1
4902549	67	C	06/18/2022	07:11	-131.249	47.592	0	193.50	0	6.4330	0	33.7760	0	26.533	0	191.794	0	155.3	4	51.8	4	-1E+10	1	-1E+10	1	-1E+10	1	-1E+10	1	-1E+10	1	-1E+10	1
4902549	67	C	06/18/2022	07:11	-131.249	47.592	0	194.50	0	6.4120	0	33.7800	0	26.538	0	192.784	0	154.1	4	51.3	4	-1E+10	1	-1E+10	1	-1E+10	1	-1E+10	1	-1E+10	1	-1E+10	1
4902549	67	C	06/18/2022	07:11	-131.249	47.592	0	195.50	0	6.3620	0	33.7800	0	26.545	0	193.775	0	153.1	4	51.0	4	-1E+10	1	-1E+10	1	-1E+10	1	-1E+10	1	-1E+10	1	-1E+10	1
4902549	67	C	06/18/2022	07:11	-131.249	47.592	0	196.50	0	6.3460	0	33.7830	0	26.549	0	194.766	0	152.6	4	50.8	4	-1E+10	1	-1E+10	1	-1E+10	1	-1E+10	1	-1E+10	1	-1E+10	1
4902549	67	C	06/18/2022	07:11	-131.249	47.592	0	197.50	0	6.3380	0	33.7880	0	26.554	0	195.756	0	151.9	4	50.5	4	-1E+10	1	-1E+10	1	-1E+10	1	-1E+10	1	-1E+10	1	-1E+10	1
4902549	67	C	06/18/2022	07:11	-131.249	47.592	0	198.90	0	6.3150	0	33.7850	0	26.555	0	197.143	0	150.9	4	50.2	4	-1E+10	1	-1E+10	1	-1E+10	1	-1E+10	1	-1E+10	1	-1E+10	1
4902549	67	C	06/18/2022	07:11	-131.249	47.592	0	200.40	0	6.2870	0	33.7840	0	26.558	0	198.629	0	149.7	4	49.7	4	-1E+10	1	-1E+10	1	-1E+10	1	-1E+10	1	-1E+10	1	-1E+10	1
4902549	67	C	06/18/2022	07:11	-131.249	47.592	0	201.40	0	6.2540	0	33.7820	0	26.560	0	199.620	0	149.0	4	49.5	4	-1E+10	1	-1E+10	1	-1E+10	1	-1E+10	1	-1E+10	1	-1E+10	1
4902549	67	C	06/18/2022	07:11	-131.249	47.592	0	202.30	0	6.2190	0	33.7830	0	26.566	0	200.512	0	148.1	4	49.1	4	-1E+10	1	-1E+10	1	-1E+10	1	-1E+10	1	-1E+10	1	-1E+10	1
4902549	67	C	06/18/2022	07:11	-131.249	47.592	0	203.30	0	6.1760	0	33.7830	0	26.571	0	201.502	0	147.3	4	48.8	4	-1E+10	1	-1E+10	1	-1E+10	1	-1E+10	1	-1E+10	1	-1E+10	1
4902549	67	C	06/18/2022	07:11	-131.249	47.592	0	204.30	0	6.1550	0	33.7850	0	26.575	0	202.493	0	146.5	4	48.5	4	-1E+10	1	-1E+10	1	-1E+10	1	-1E+10	1	-1E+10	1	-1E+10	1
4902549	67	C	06/18/2022	07:11	-131.249	47.592	0	205.30	0	6.1370	0	33.7850	0	26.578	0	203.484	0	145.6	4	48.2	4	-1E+10	1	-1E+10	1	-1E+10	1	-1E+10	1	-1E+10	1	-1E+10	1
4902549	67	C	06/18/2022	07:11	-131.249	47.592	0	206.20	0	6.1240	0	33.7860	0	26.580	0	204.375	0	144.8	4	47.9	4	-1E+10	1	-1E+10	1	-1E+10	1	-1E+10	1	-1E+10	1	-1E+10	1
4902549	67	C	06/18/2022	07:11	-131.249	47.592	0	207.20	0	6.1090	0	33.7870	0	26.583	0	205.366	0	144.0	4	47.7	4	-1E+10	1	-1E+10	1	-1E+10	1	-1E+10	1	-1E+10	1	-1E+10	1
4902549	67	C	06/18/2022	07:11	-131.249	47.592	0	208.20	0	6.1120	0	33.7920	0	26.586	0	206.357	0	143.3	4	47.4	4	-1E+10	1	-1E+10	1	-1E+10	1	-1E+10	1	-1E+10	1	-1E+10	1
4902549	67	C	06/18/2022	07:11	-131.249	47.592	0	209.20	0	6.1120	0	33.7910	0	26.586	0	207.347	0	142.5	4	47.2	4	-1E+10	1	-1E+10	1	-1E+10	1	-1E+10	1	-1E+10	1	-1E+10	1
4902549	67	C	06/18/2022	07:11	-131.249	47.592	0	210.20	0	6.1010	0	33.7930	0	26.589	0	208.338	0	141.8	4	46.9	4	-1E+10	1	-1E+10	1	-1E+10	1	-1E+10	1	-1E+10	1	-1E+10	1
4902549	67	C	06/18/2022	07:11	-131.249	47.592	0	211.20	0	6.0940	0	33.7970	0	26.593	0	209.328	0	141.0	4	46.6	4	-1E+10	1	-1E+10	1	-1E+10	1	-1E+10	1	-1E+10	1	-1E+10	1
4902549	67	C	06/18/2022	07:11	-131.249	47.592	0	212.20	0	6.0850	0	33.7950	0	26.592	0	210.319	0	140.2	4	46.4	4	-1E+10	1	-1E+10	1	-1E+10	1	-1E+10	1	-1E+10	1	-1E+10	1
4902549	67	C	06/18/2022	07:11	-131.249	47.592	0	213.20	0	6.0830	0	33.7960	0	26.593	0	211.310	0	139.3	4	46.1	4	-1E+10	1	-1E+10	1	-1E+10	1	-1E+10	1	-1E+10	1	-1E+10	1
4902549	67	C	06/18/2022	07:11	-131.249	47.592	0	214.20	0	6.0850	0	33.7960	0	26.593	0	212.300	0	138.3	4	45.7	4	-1E+10	1	-1E+10	1	-1E+10	1	-1E+10	1	-1E+10	1	-1E+10	1
4902549	67	C	06/18/2022	07:11	-131.249	47.592	0	215.20	0	6.0760	0	33.7960	0	26.594	0	213.291	0	137.1	4	45.3	4	-1E+10	1	-1E+10	1	-1E+10	1	-1E+10	1	-1E+10	1	-1E+10	1
4902549	67	C	06/18/2022	07:11	-131.249	47.592	0	216.10	0	6.0750	0	33.7950	0	26.594	0	214.183	0	135.8	4	44.9	4	-1E+10	1	-1E+10	1	-1E+10	1	-1E+10	1	-1E+10	1	-1E+10	1
4902549	67	C	06/18/2022	07:11	-131.249	47.592	0	217.10	0	6.0710	0	33.7960	0	26.595	0	215.173	0	134.3	4	44.4	4	-1E+10	1	-1E+10	1	-1E+10	1	-1E+10	1	-1E+10	1	-1E+10	1
4902549	67	C	06/18/2022	07:11	-131.249	47.592	0	218.10	0	6.0460	0	33.8030	0	26.604	0	216.164	0	133.0	4	44.0	4	-1E+10	1	-1E+10	1	-1E+10	1	-1E+10	1	-1E+10	1	-1E+10	1
4902549	67	C	06/18/2022	07:11	-131.249	47.592	0	219.10	0	6.0590	0	33.8100	0	26.607	0	217.154	0	131.8	4	43.6	4	-1E+10	1	-1E+10	1	-1E+10	1	-1E+10	1	-1E+10	1	-1E+10	1
4902549	67	C	06/18/2022	07:11	-131.249	47.592	0	220.10	0	6.0720	0	33.8120	0	26.607	0	218.145	0	130.9	4	43.3	4	-1E+10	1	-1E+10	1	-1E+10	1	-1E+10	1	-1E+10	1	-1E+10	1
4902549	67	C	06/18/2022	07:11	-131.249	47.592	0	221.10	0	6.0900	0	33.8140	0	26.607	0	219.136	0	130.0	4	43.0	4	-1E+10	1	-1E+10	1	-1E+10	1	-1E+10	1	-1E+10	1	-1E+10	1
4902549	67	C	06/18/2022	07:11	-131.249	47.592	0	222.20	0	6.1070	0	33.8210	0	26.610	0	220.225	0	129.3	4	42.8	4	-1E+10	1	-1E+10	1	-1E+10	1	-1E+10	1	-1E+10	1	-1E+10	1
4902549	67	C	06/18/2022	07:11	-131.249	47.592	0	222.90	0	6.1120	0	33.8240	0	26.612	0	220.919	0	128.9	4	42.7	4	-1E+10	1	-1E+10	1	-1E+10	1	-1E+10	1	-1E+10	1	-1E+10	1
4902549	67	C	06/18/2022	07:11	-131.249	47.592	0	224.00	0	6.1250	0	33.8260	0	26.612	0	222.008	0	128.4	4	42.5	4	-1E+10	1	-1E+10	1	-1E+10	1	-1E+10	1	-1E+10	1	-1E+10	1
4902549	67	C	06/18/2022	07:11	-131.249	47.592	0	225.20	0	6.1060	0	33.8290	0	26.617	0	223.197	0	127.9	4	42.3	4	-1E+10	1	-1E+10	1	-1E+10	1	-1E+10	1	-1E+10	1	-1E+10	1
4902549	67	C	06/18/2022	07:11	-131.249	47.592	0	226.00	0	6.0860	0	33.8210	0	26.613	0	223.989	0	127.5	4	42.2	4	-1E+10	1	-1E+10	1	-1E+10	1	-1E+10	1	-1E+10	1	-1E+10	1
4902549	67	C	06/18/2022	07:11	-131.249	47.592	0	226.70	0	6.0710	0	33.8220	0	26.615	0	224.683	0	126.9	4	42.0	4	-1E+10	1	-1E+10	1	-1E+10	1	-1E+10	1	-1E+10	1	-1E+10	1
4902549	67	C	06/18/2022	07:11	-131.249	47.592	0	227.90	0	6.0600	0	33.8190	0	26.615	0	225.871	0	125.8	4	41.6	4	-1E+10	1	-1E+10	1	-1E+10	1	-1E+10	1	-1E+10	1	-1E+10	1
4902549	67	C	06/18/2022	07:11	-131.249	47.592	0	229.00	0	6.0350	0	33.8170	0	26.616	0	226.961	0	124.4	4	41.1	4	-1E+10	1	-1E+10	1	-1E+10	1	-1E+10	1	-1E+10	1	-1E+10	1
4902549	67	C	06/18/2022	07:11	-131.249	47.592	0	229.80	0	6.0250	0	33.8190	0	26.619	0	227.753	0	123.4	4	40.8	4	-1E+10	1	-1E+10	1	-1E+10	1	-1E+10	1	-1E+10	1	-1E+10	1
4902549	67	C	06/18/2022	07:11	-131.249	47.592	0	230.90	0	6.0240	0	33.8190	0	26.619	0	228.843	0	121.5	4	40.1	4	-1E+10	1	-1E+10	1	-1E+10	1	-1E+10	1	-1E+10	1	-1E+10	1
4902549	67	C	06/18/2022	07:11	-131.249	47.592	0	232.10	0	6.0240	0	33.8210	0	26.621	0	230.032	0	119.2	4	39.4	4	-1E+10	1	-1E+10	1	-1E+10	1	-1E+10	1	-1E+10	1	-1E+10	1
4902549	67	C	06/18/2022	07:11	-131.249	47.592	0	232.80	0	6.0300	0	33.8240	0	26.622	0	230.725	0	117.7	4	38.9	4	-1E+10	1	-1E+10	1	-1E+10	1	-1E+10	1	-1E+10	1	-1E+10	1
4902549	67	C	06/18/2022	07:11	-131.249	47.592	0	234.00	0	6.0410	0	33.8280	0	26.624	0	231.914	0	115.3	4	38.1	4	-1E+10	1	-1E+10	1	-1E+10	1	-1E+10	1	-1E+10	1	-1E+10	1
4902549	67	C	06/18/2022	07:11	-131.249	47.592	0	235.20	0	6.1400	0	33.8500	0	26.629	0	233.102	0	113.6	4	37.6	4	-1E+10	1	-1E+10	1	-1E+10	1	-1E+10	1	-1E+10	1	-1E+10	1
4902549	67	C	06/18/2022	07:11	-131.249	47.592	0	236.00	0	6.1390	0	33.8560	0	26.634	0	233.895	0	113.1	4	37.5	4	-1E+10	1	-1E+10	1	-1E+10	1	-1E+10	1	-1E+10	1	-1E+10	1
4902549	67	C	06/18/2022	07:11	-131.249	47.592	0	236.80	0	6.1470	0	33.8590	0	26.635	0	234.687	0	112.7	4	37.3	4	-1E+10	1	-1E+10	1	-1E+10	1	-1E+10	1	-1E+10	1	-1E+10	1
4902549	67	C	06/18/2022	07:11	-131.249	47.592	0	238.00	0	6.1370	0	33.8570	0	26.635	0	235.876	0	112.0	4	37.1	4	-1E+10	1	-1E+10	1	-1E+10	1	-1E+10	1	-1E+10	1	-1E+10	1
4902549	67	C	06/18/2022	07:11	-131.249	47.592	0	239.20	0	6.1210	0	33.8590	0	26.639	0	237.064	0	111.4	4	36.9	4	-1E+10	1	-1E+10	1	-1E+10	1	-1E+10	1	-1E+10	1	-1E+10	1
4902549	67	C	06/18/2022	07:11	-131.249	47.592	0	240.00	0	6.1210	0	33.8620	0	26.641	0	237.857	0	110.9	4	36.7	4	-1E+10	1	-1E+10	1	-1E+10	1	-1E+10	1	-1E+10	1	-1E+10	1
4902549	67	C	06/18/2022	07:11	-131.249	47.592	0	240.80	0	6.1220	0	33.8630	0	26.642	0	238.649	0	110.3	4	36.5	4	-1E+10	1	-1E+10	1	-1E+10	1	-1E+10	1	-1E+10	1	-1E+10	1
4902549	67	C	06/18/2022	07:11	-131.249	47.592	0	241.70	0	6.1240	0	33.8620	0	26.641	0	239.541	0	109.8	4	36.4	4	-1E+10	1	-1E+10	1	-1E+10	1	-1E+10	1	-1E+10	1	-1E+10	1
4902549	67	C	06/18/2022	07:11	-131.249	47.592	0	242.90	0	6.1330	0	33.8660	0	26.643	0	240.729	0	109.1	4	36.2	4	-1E+10	1	-1E+10	1	-1E+10	1	-1E+10	1	-1E+10	1	-1E+10	1
4902549	67	C	06/18/2022	07:11	-131.249	47.592	0	244.20	0	6.1340	0	33.8680	0	26.644	0	242.017	0	108.5	4	36.0	4	-1E+10	1	-1E+10	1	-1E+10	1	-1E+10	1	-1E+10	1	-1E+10	1
4902549	67	C	06/18/2022	07:11	-131.249	47.592	0	245.00	0	6.1330	0	33.8680	0	26.644	0	242.809	0	108.1	4	35.8	4	-1E+10	1	-1E+10	1	-1E+10	1	-1E+10	1	-1E+10	1	-1E+10	1
4902549	67	C	06/18/2022	07:11	-131.249	47.592	0	245.80	0	6.1320	0	33.8680	0	26.644	0	243.602	0	107.7	4	35.7	4	-1E+10	1	-1E+10	1	-1E+10	1	-1E+10	1	-1E+10	1	-1E+10	1
4902549	67	C	06/18/2022	07:11	-131.249	47.592	0	246.70	0	6.1300	0	33.8680	0	26.645	0	244.493	0	107.1	4	35.5	4	-1E+10	1	-1E+10	1	-1E+10	1	-1E+10	1	-1E+10	1	-1E+10	1
4902549	67	C	06/18/2022	07:11	-131.249	47.592	0	247.90	0	6.1290	0	33.8690	0	26.646	0	245.681	0	106.3	4	35.2	4	-1E+10	1	-1E+10	1	-1E+10	1	-1E+10	1	-1E+10	1	-1E+10	1
4902549	67	C	06/18/2022	07:11	-131.249	47.592	0	249.10	0	6.1190	0	33.8690	0	26.647	0	246.870	0	105.3	4	34.9	4	-1E+10	1	-1E+10	1	-1E+10	1	-1E+10	1	-1E+10	1	-1E+10	1
4902549	67	C	06/18/2022	07:11	-131.249	47.592	0	250.00	0	6.1140	0	33.8720	0	26.650	0	247.761	0	104.8	4	34.7	4	-1E+10	1	-1E+10	1	-1E+10	1	-1E+10	1	-1E+10	1	-1E+10	1
4902549	67	C	06/18/2022	07:11	-131.249	47.592	0	250.80	0	6.1090	0	33.8730	0	26.651	0	248.554	0	104.1	4	34.5	4	-1E+10	1	-1E+10	1	-1E+10	1	-1E+10	1	-1E+10	1	-1E+10	1
4902549	67	C	06/18/2022	07:11	-131.249	47.592	0	251.60	0	6.1070	0	33.8740	0	26.652	0	249.346	0	103.6	4	34.3	4	-1E+10	1	-1E+10	1	-1E+10	1	-1E+10	1	-1E+10	1	-1E+10	1
4902549	67	C	06/18/2022	07:11	-131.249	47.592	0	252.90	0	6.0990	0	33.8750	0	26.654	0	250.634	0	102.6	4	34.0	4	-1E+10	1	-1E+10	1	-1E+10	1	-1E+10	1	-1E+10	1	-1E+10	1
4902549	67	C	06/18/2022	07:11	-131.249	47.592	0	254.20	0	6.0910	0	33.8760	0	26.656	0	251.921	0	101.7	4	33.7	4	-1E+10	1	-1E+10	1	-1E+10	1	-1E+10	1	-1E+10	1	-1E+10	1
4902549	67	C	06/18/2022	07:11	-131.249	47.592	0	255.00	0	6.0840	0	33.8760	0	26.657	0	252.714	0	101.0	4	33.4	4	-1E+10	1	-1E+10	1	-1E+10	1	-1E+10	1	-1E+10	1	-1E+10	1
4902549	67	C	06/18/2022	07:11	-131.249	47.592	0	255.90	0	6.0700	0	33.8810	0	26.663	0	253.605	0	100.5	4	33.2	4	-1E+10	1	-1E+10	1	-1E+10	1	-1E+10	1	-1E+10	1	-1E+10	1
4902549	67	C	06/18/2022	07:11	-131.249	47.592	0	256.80	0	6.0650	0	33.8810	0	26.663	0	254.496	0	100.0	4	33.1	4	-1E+10	1	-1E+10	1	-1E+10	1	-1E+10	1	-1E+10	1	-1E+10	1
4902549	67	C	06/18/2022	07:11	-131.249	47.592	0	258.00	0	6.0500	0	33.8800	0	26.664	0	255.685	0	99.2	4	32.8	4	-1E+10	1	-1E+10	1	-1E+10	1	-1E+10	1	-1E+10	1	-1E+10	1
4902549	67	C	06/18/2022	07:11	-131.249	47.592	0	259.30	0	6.0260	0	33.8830	0	26.670	0	256.972	0	98.5	4	32.6	4	-1E+10	1	-1E+10	1	-1E+10	1	-1E+10	1	-1E+10	1	-1E+10	1
4902549	67	C	06/18/2022	07:11	-131.249	47.592	0	260.20	0	6.0180	0	33.8860	0	26.673	0	257.864	0	98.1	4	32.4	4	-1E+10	1	-1E+10	1	-1E+10	1	-1E+10	1	-1E+10	1	-1E+10	1
4902549	67	C	06/18/2022	07:11	-131.249	47.592	0	261.00	0	6.0030	0	33.8880	0	26.677	0	258.656	0	97.9	4	32.3	4	-1E+10	1	-1E+10	1	-1E+10	1	-1E+10	1	-1E+10	1	-1E+10	1
4902549	67	C	06/18/2022	07:11	-131.249	47.592	0	261.90	0	6.0040	0	33.8880	0	26.676	0	259.547	0	97.7	4	32.3	4	-1E+10	1	-1E+10	1	-1E+10	1	-1E+10	1	-1E+10	1	-1E+10	1
4902549	67	C	06/18/2022	07:11	-131.249	47.592	0	262.80	0	6.0050	0	33.8880	0	26.676	0	260.439	0	97.3	4	32.1	4	-1E+10	1	-1E+10	1	-1E+10	1	-1E+10	1	-1E+10	1	-1E+10	1
4902549	67	C	06/18/2022	07:11	-131.249	47.592	0	263.60	0	6.0050	0	33.8880	0	26.676	0	261.231	0	97.0	4	32.0	4	-1E+10	1	-1E+10	1	-1E+10	1	-1E+10	1	-1E+10	1	-1E+10	1
4902549	67	C	06/18/2022	07:11	-131.249	47.592	0	264.90	0	5.9960	0	33.8890	0	26.678	0	262.519	0	96.4	4	31.8	4	-1E+10	1	-1E+10	1	-1E+10	1	-1E+10	1	-1E+10	1	-1E+10	1
4902549	67	C	06/18/2022	07:11	-131.249	47.592	0	266.20	0	5.9750	0	33.8890	0	26.681	0	263.806	0	95.8	4	31.6	4	-1E+10	1	-1E+10	1	-1E+10	1	-1E+10	1	-1E+10	1	-1E+10	1
4902549	67	C	06/18/2022	07:11	-131.249	47.592	0	267.10	0	5.9660	0	33.8880	0	26.681	0	264.697	0	95.4	4	31.5	4	-1E+10	1	-1E+10	1	-1E+10	1	-1E+10	1	-1E+10	1	-1E+10	1
4902549	67	C	06/18/2022	07:11	-131.249	47.592	0	267.90	0	5.9520	0	33.8890	0	26.684	0	265.490	0	95.0	4	31.3	4	-1E+10	1	-1E+10	1	-1E+10	1	-1E+10	1	-1E+10	1	-1E+10	1
4902549	67	C	06/18/2022	07:11	-131.249	47.592	0	268.80	0	5.9240	0	33.8920	0	26.690	0	266.381	0	94.6	4	31.2	4	-1E+10	1	-1E+10	1	-1E+10	1	-1E+10	1	-1E+10	1	-1E+10	1
4902549	67	C	06/18/2022	07:11	-131.249	47.592	0	269.70	0	5.8960	0	33.8920	0	26.693	0	267.272	0	94.4	4	31.1	4	-1E+10	1	-1E+10	1	-1E+10	1	-1E+10	1	-1E+10	1	-1E+10	1
4902549	67	C	06/18/2022	07:11	-131.249	47.592	0	270.90	0	5.8830	0	33.8930	0	26.695	0	268.461	0	94.0	4	31.0	4	-1E+10	1	-1E+10	1	-1E+10	1	-1E+10	1	-1E+10	1	-1E+10	1
4902549	67	C	06/18/2022	07:11	-131.249	47.592	0	272.30	0	5.8720	0	33.8930	0	26.697	0	269.847	0	93.6	4	30.8	4	-1E+10	1	-1E+10	1	-1E+10	1	-1E+10	1	-1E+10	1	-1E+10	1
4902549	67	C	06/18/2022	07:11	-131.249	47.592	0	273.20	0	5.8690	0	33.8940	0	26.698	0	270.739	0	93.3	4	30.7	4	-1E+10	1	-1E+10	1	-1E+10	1	-1E+10	1	-1E+10	1	-1E+10	1
4902549	67	C	06/18/2022	07:11	-131.249	47.592	0	274.10	0	5.8620	0	33.8940	0	26.699	0	271.630	0	93.0	4	30.6	4	-1E+10	1	-1E+10	1	-1E+10	1	-1E+10	1	-1E+10	1	-1E+10	1
4902549	67	C	06/18/2022	07:11	-131.249	47.592	0	275.00	0	5.8510	0	33.8950	0	26.701	0	272.521	0	92.8	4	30.5	4	-1E+10	1	-1E+10	1	-1E+10	1	-1E+10	1	-1E+10	1	-1E+10	1
4902549	67	C	06/18/2022	07:11	-131.249	47.592	0	275.90	0	5.8450	0	33.8950	0	26.702	0	273.412	0	92.5	4	30.4	4	-1E+10	1	-1E+10	1	-1E+10	1	-1E+10	1	-1E+10	1	-1E+10	1
4902549	67	C	06/18/2022	07:11	-131.249	47.592	0	276.80	0	5.8400	0	33.8950	0	26.702	0	274.304	0	92.3	4	30.4	4	-1E+10	1	-1E+10	1	-1E+10	1	-1E+10	1	-1E+10	1	-1E+10	1
4902549	67	C	06/18/2022	07:11	-131.249	47.592	0	277.70	0	5.8300	0	33.8960	0	26.704	0	275.195	0	92.1	4	30.3	4	-1E+10	1	-1E+10	1	-1E+10	1	-1E+10	1	-1E+10	1	-1E+10	1
4902549	67	C	06/18/2022	07:11	-131.249	47.592	0	278.60	0	5.8190	0	33.8960	0	26.706	0	276.086	0	91.9	4	30.2	4	-1E+10	1	-1E+10	1	-1E+10	1	-1E+10	1	-1E+10	1	-1E+10	1
4902549	67	C	06/18/2022	07:11	-131.249	47.592	0	279.90	0	5.8170	0	33.8960	0	26.706	0	277.374	0	91.7	4	30.1	4	-1E+10	1	-1E+10	1	-1E+10	1	-1E+10	1	-1E+10	1	-1E+10	1
4902549	67	C	06/18/2022	07:11	-131.249	47.592	0	281.20	0	5.8180	0	33.8960	0	26.706	0	278.661	0	91.3	4	30.0	4	-1E+10	1	-1E+10	1	-1E+10	1	-1E+10	1	-1E+10	1	-1E+10	1
4902549	67	C	06/18/2022	07:11	-131.249	47.592	0	282.10	0	5.8100	0	33.8990	0	26.709	0	279.552	0	91.1	4	30.0	4	-1E+10	1	-1E+10	1	-1E+10	1	-1E+10	1	-1E+10	1	-1E+10	1
4902549	67	C	06/18/2022	07:11	-131.249	47.592	0	282.90	0	5.7980	0	33.8960	0	26.708	0	280.345	0	90.9	4	29.9	4	-1E+10	1	-1E+10	1	-1E+10	1	-1E+10	1	-1E+10	1	-1E+10	1
4902549	67	C	06/18/2022	07:11	-131.249	47.592	0	283.80	0	5.7940	0	33.8960	0	26.709	0	281.236	0	90.6	4	29.8	4	-1E+10	1	-1E+10	1	-1E+10	1	-1E+10	1	-1E+10	1	-1E+10	1
4902549	67	C	06/18/2022	07:11	-131.249	47.592	0	284.70	0	5.7910	0	33.8960	0	26.709	0	282.127	0	90.3	4	29.7	4	-1E+10	1	-1E+10	1	-1E+10	1	-1E+10	1	-1E+10	1	-1E+10	1
4902549	67	C	06/18/2022	07:11	-131.249	47.592	0	285.90	0	5.7710	0	33.8970	0	26.713	0	283.315	0	89.8	4	29.5	4	-1E+10	1	-1E+10	1	-1E+10	1	-1E+10	1	-1E+10	1	-1E+10	1
4902549	67	C	06/18/2022	07:11	-131.249	47.592	0	287.20	0	5.7490	0	33.8970	0	26.715	0	284.603	0	89.4	4	29.4	4	-1E+10	1	-1E+10	1	-1E+10	1	-1E+10	1	-1E+10	1	-1E+10	1
4902549	67	C	06/18/2022	07:11	-131.249	47.592	0	288.10	0	5.7440	0	33.8970	0	26.716	0	285.494	0	89.2	4	29.3	4	-1E+10	1	-1E+10	1	-1E+10	1	-1E+10	1	-1E+10	1	-1E+10	1
4902549	67	C	06/18/2022	07:11	-131.249	47.592	0	288.90	0	5.7400	0	33.8980	0	26.717	0	286.286	0	88.8	4	29.2	4	-1E+10	1	-1E+10	1	-1E+10	1	-1E+10	1	-1E+10	1	-1E+10	1
4902549	67	C	06/18/2022	07:11	-131.249	47.592	0	289.80	0	5.7320	0	33.8990	0	26.719	0	287.177	0	88.6	4	29.1	4	-1E+10	1	-1E+10	1	-1E+10	1	-1E+10	1	-1E+10	1	-1E+10	1
4902549	67	C	06/18/2022	07:11	-131.249	47.592	0	290.60	0	5.7310	0	33.8990	0	26.719	0	287.970	0	88.2	4	29.0	4	-1E+10	1	-1E+10	1	-1E+10	1	-1E+10	1	-1E+10	1	-1E+10	1
4902549	67	C	06/18/2022	07:11	-131.249	47.592	0	291.90	0	5.7270	0	33.9000	0	26.720	0	289.257	0	87.8	4	28.8	4	-1E+10	1	-1E+10	1	-1E+10	1	-1E+10	1	-1E+10	1	-1E+10	1
4902549	67	C	06/18/2022	07:11	-131.249	47.592	0	293.20	0	5.7150	0	33.9030	0	26.724	0	290.544	0	87.4	4	28.7	4	-1E+10	1	-1E+10	1	-1E+10	1	-1E+10	1	-1E+10	1	-1E+10	1
4902549	67	C	06/18/2022	07:11	-131.249	47.592	0	294.00	0	5.7020	0	33.9020	0	26.725	0	291.337	0	87.2	4	28.6	4	-1E+10	1	-1E+10	1	-1E+10	1	-1E+10	1	-1E+10	1	-1E+10	1
4902549	67	C	06/18/2022	07:11	-131.249	47.592	0	294.90	0	5.6930	0	33.9010	0	26.725	0	292.228	0	87.0	4	28.5	4	-1E+10	1	-1E+10	1	-1E+10	1	-1E+10	1	-1E+10	1	-1E+10	1
4902549	67	C	06/18/2022	07:11	-131.249	47.592	0	295.70	0	5.6890	0	33.9020	0	26.727	0	293.020	0	86.8	4	28.5	4	-1E+10	1	-1E+10	1	-1E+10	1	-1E+10	1	-1E+10	1	-1E+10	1
4902549	67	C	06/18/2022	07:11	-131.249	47.592	0	296.60	0	5.6820	0	33.9010	0	26.727	0	293.911	0	86.5	4	28.4	4	-1E+10	1	-1E+10	1	-1E+10	1	-1E+10	1	-1E+10	1	-1E+10	1
4902549	67	C	06/18/2022	07:11	-131.249	47.592	0	297.90	0	5.6630	0	33.9020	0	26.730	0	295.198	0	86.2	4	28.3	4	-1E+10	1	-1E+10	1	-1E+10	1	-1E+10	1	-1E+10	1	-1E+10	1
4902549	67	C	06/18/2022	07:11	-131.249	47.592	0	299.20	0	5.6560	0	33.9020	0	26.731	0	296.486	0	85.9	4	28.2	4	-1E+10	1	-1E+10	1	-1E+10	1	-1E+10	1	-1E+10	1	-1E+10	1
4902549	67	C	06/18/2022	07:11	-131.249	47.592	0	300.00	0	5.6490	0	33.9020	0	26.732	0	297.278	0	85.7	4	28.1	4	-1E+10	1	-1E+10	1	-1E+10	1	-1E+10	1	-1E+10	1	-1E+10	1
4902549	67	C	06/18/2022	07:11	-131.249	47.592	0	300.90	0	5.6390	0	33.9020	0	26.733	0	298.169	0	85.4	4	28.0	4	-1E+10	1	-1E+10	1	-1E+10	1	-1E+10	1	-1E+10	1	-1E+10	1
4902549	67	C	06/18/2022	07:11	-131.249	47.592	0	301.80	0	5.6300	0	33.9020	0	26.734	0	299.060	0	85.1	4	27.9	4	-1E+10	1	-1E+10	1	-1E+10	1	-1E+10	1	-1E+10	1	-1E+10	1
4902549	67	C	06/18/2022	07:11	-131.249	47.592	0	302.60	0	5.6050	0	33.9040	0	26.738	0	299.852	0	84.9	4	27.8	4	-1E+10	1	-1E+10	1	-1E+10	1	-1E+10	1	-1E+10	1	-1E+10	1
4902549	67	C	06/18/2022	07:11	-131.249	47.592	0	303.90	0	5.5930	0	33.9020	0	26.738	0	301.140	0	84.5	4	27.7	4	-1E+10	1	-1E+10	1	-1E+10	1	-1E+10	1	-1E+10	1	-1E+10	1
4902549	67	C	06/18/2022	07:11	-131.249	47.592	0	305.20	0	5.5900	0	33.9020	0	26.739	0	302.427	0	84.1	4	27.5	4	-1E+10	1	-1E+10	1	-1E+10	1	-1E+10	1	-1E+10	1	-1E+10	1
4902549	67	C	06/18/2022	07:11	-131.249	47.592	0	306.10	0	5.5810	0	33.9030	0	26.741	0	303.318	0	83.7	4	27.4	4	-1E+10	1	-1E+10	1	-1E+10	1	-1E+10	1	-1E+10	1	-1E+10	1
4902549	67	C	06/18/2022	07:11	-131.249	47.592	0	307.00	0	5.5660	0	33.9030	0	26.742	0	304.209	0	83.5	4	27.3	4	-1E+10	1	-1E+10	1	-1E+10	1	-1E+10	1	-1E+10	1	-1E+10	1
4902549	67	C	06/18/2022	07:11	-131.249	47.592	0	307.90	0	5.5490	0	33.9050	0	26.746	0	305.100	0	83.3	4	27.2	4	-1E+10	1	-1E+10	1	-1E+10	1	-1E+10	1	-1E+10	1	-1E+10	1
4902549	67	C	06/18/2022	07:11	-131.249	47.592	0	308.80	0	5.5490	0	33.9050	0	26.746	0	305.991	0	83.0	4	27.1	4	-1E+10	1	-1E+10	1	-1E+10	1	-1E+10	1	-1E+10	1	-1E+10	1
4902549	67	C	06/18/2022	07:11	-131.249	47.592	0	309.70	0	5.5480	0	33.9050	0	26.746	0	306.883	0	82.8	4	27.1	4	-1E+10	1	-1E+10	1	-1E+10	1	-1E+10	1	-1E+10	1	-1E+10	1
4902549	67	C	06/18/2022	07:11	-131.249	47.592	0	310.60	0	5.5440	0	33.9060	0	26.747	0	307.774	0	82.5	4	27.0	4	-1E+10	1	-1E+10	1	-1E+10	1	-1E+10	1	-1E+10	1	-1E+10	1
4902549	67	C	06/18/2022	07:11	-131.249	47.592	0	311.90	0	5.5280	0	33.9060	0	26.749	0	309.061	0	82.1	4	26.8	4	-1E+10	1	-1E+10	1	-1E+10	1	-1E+10	1	-1E+10	1	-1E+10	1
4902549	67	C	06/18/2022	07:11	-131.249	47.592	0	313.30	0	5.5160	0	33.9060	0	26.751	0	310.447	0	81.7	4	26.7	4	-1E+10	1	-1E+10	1	-1E+10	1	-1E+10	1	-1E+10	1	-1E+10	1
4902549	67	C	06/18/2022	07:11	-131.249	47.592	0	314.20	0	5.5140	0	33.9060	0	26.751	0	311.338	0	81.3	4	26.6	4	-1E+10	1	-1E+10	1	-1E+10	1	-1E+10	1	-1E+10	1	-1E+10	1
4902549	67	C	06/18/2022	07:11	-131.249	47.592	0	315.10	0	5.5120	0	33.9060	0	26.751	0	312.229	0	80.9	4	26.4	4	-1E+10	1	-1E+10	1	-1E+10	1	-1E+10	1	-1E+10	1	-1E+10	1
4902549	67	C	06/18/2022	07:11	-131.249	47.592	0	316.00	0	5.5050	0	33.9060	0	26.752	0	313.121	0	80.5	4	26.3	4	-1E+10	1	-1E+10	1	-1E+10	1	-1E+10	1	-1E+10	1	-1E+10	1
4902549	67	C	06/18/2022	07:11	-131.249	47.592	0	316.90	0	5.4990	0	33.9080	0	26.754	0	314.012	0	80.2	4	26.2	4	-1E+10	1	-1E+10	1	-1E+10	1	-1E+10	1	-1E+10	1	-1E+10	1
4902549	67	C	06/18/2022	07:11	-131.249	47.592	0	317.80	0	5.4940	0	33.9080	0	26.755	0	314.903	0	79.8	4	26.1	4	-1E+10	1	-1E+10	1	-1E+10	1	-1E+10	1	-1E+10	1	-1E+10	1
4902549	67	C	06/18/2022	07:11	-131.249	47.592	0	318.70	0	5.4880	0	33.9080	0	26.756	0	315.794	0	79.5	4	25.9	4	-1E+10	1	-1E+10	1	-1E+10	1	-1E+10	1	-1E+10	1	-1E+10	1
4902549	67	C	06/18/2022	07:11	-131.249	47.592	0	319.60	0	5.4780	0	33.9090	0	26.758	0	316.685	0	79.1	4	25.8	4	-1E+10	1	-1E+10	1	-1E+10	1	-1E+10	1	-1E+10	1	-1E+10	1
4902549	67	C	06/18/2022	07:11	-131.249	47.592	0	320.90	0	5.4740	0	33.9090	0	26.758	0	317.972	0	78.5	4	25.6	4	-1E+10	1	-1E+10	1	-1E+10	1	-1E+10	1	-1E+10	1	-1E+10	1
4902549	67	C	06/18/2022	07:11	-131.249	47.592	0	322.30	0	5.4660	0	33.9090	0	26.759	0	319.358	0	77.9	4	25.4	4	-1E+10	1	-1E+10	1	-1E+10	1	-1E+10	1	-1E+10	1	-1E+10	1
4902549	67	C	06/18/2022	07:11	-131.249	47.592	0	323.20	0	5.4600	0	33.9100	0	26.761	0	320.249	0	77.3	4	25.2	4	-1E+10	1	-1E+10	1	-1E+10	1	-1E+10	1	-1E+10	1	-1E+10	1
4902549	67	C	06/18/2022	07:11	-131.249	47.592	0	324.10	0	5.4570	0	33.9100	0	26.761	0	321.140	0	76.8	4	25.0	4	-1E+10	1	-1E+10	1	-1E+10	1	-1E+10	1	-1E+10	1	-1E+10	1
4902549	67	C	06/18/2022	07:11	-131.249	47.592	0	325.00	0	5.4430	0	33.9120	0	26.764	0	322.032	0	76.2	4	24.9	4	-1E+10	1	-1E+10	1	-1E+10	1	-1E+10	1	-1E+10	1	-1E+10	1
4902549	67	C	06/18/2022	07:11	-131.249	47.592	0	325.90	0	5.4360	0	33.9130	0	26.766	0	322.923	0	75.7	4	24.7	4	-1E+10	1	-1E+10	1	-1E+10	1	-1E+10	1	-1E+10	1	-1E+10	1
4902549	67	C	06/18/2022	07:11	-131.249	47.592	0	326.80	0	5.4280	0	33.9150	0	26.769	0	323.814	0	75.2	4	24.5	4	-1E+10	1	-1E+10	1	-1E+10	1	-1E+10	1	-1E+10	1	-1E+10	1
4902549	67	C	06/18/2022	07:11	-131.249	47.592	0	327.70	0	5.4120	0	33.9170	0	26.772	0	324.705	0	74.8	4	24.4	4	-1E+10	1	-1E+10	1	-1E+10	1	-1E+10	1	-1E+10	1	-1E+10	1
4902549	67	C	06/18/2022	07:11	-131.249	47.592	0	328.60	0	5.4000	0	33.9170	0	26.773	0	325.596	0	74.4	4	24.2	4	-1E+10	1	-1E+10	1	-1E+10	1	-1E+10	1	-1E+10	1	-1E+10	1
4902549	67	C	06/18/2022	07:11	-131.249	47.592	0	329.50	0	5.3930	0	33.9180	0	26.775	0	326.487	0	74.0	4	24.1	4	-1E+10	1	-1E+10	1	-1E+10	1	-1E+10	1	-1E+10	1	-1E+10	1
4902549	67	C	06/18/2022	07:11	-131.249	47.592	0	330.90	0	5.3860	0	33.9180	0	26.776	0	327.873	0	73.4	4	23.9	4	-1E+10	1	-1E+10	1	-1E+10	1	-1E+10	1	-1E+10	1	-1E+10	1
4902549	67	C	06/18/2022	07:11	-131.249	47.592	0	332.30	0	5.3700	0	33.9190	0	26.779	0	329.259	0	72.8	4	23.7	4	-1E+10	1	-1E+10	1	-1E+10	1	-1E+10	1	-1E+10	1	-1E+10	1
4902549	67	C	06/18/2022	07:11	-131.249	47.592	0	333.20	0	5.3600	0	33.9220	0	26.782	0	330.150	0	72.4	4	23.6	4	-1E+10	1	-1E+10	1	-1E+10	1	-1E+10	1	-1E+10	1	-1E+10	1
4902549	67	C	06/18/2022	07:11	-131.249	47.592	0	334.10	0	5.3440	0	33.9220	0	26.784	0	331.041	0	72.0	4	23.4	4	-1E+10	1	-1E+10	1	-1E+10	1	-1E+10	1	-1E+10	1	-1E+10	1
4902549	67	C	06/18/2022	07:11	-131.249	47.592	0	335.00	0	5.3280	0	33.9230	0	26.787	0	331.932	0	71.7	4	23.3	4	-1E+10	1	-1E+10	1	-1E+10	1	-1E+10	1	-1E+10	1	-1E+10	1
4902549	67	C	06/18/2022	07:11	-131.249	47.592	0	336.00	0	5.3210	0	33.9230	0	26.788	0	332.922	0	71.3	4	23.2	4	-1E+10	1	-1E+10	1	-1E+10	1	-1E+10	1	-1E+10	1	-1E+10	1
4902549	67	C	06/18/2022	07:11	-131.249	47.592	0	336.90	0	5.3180	0	33.9230	0	26.788	0	333.813	0	71.0	4	23.1	4	-1E+10	1	-1E+10	1	-1E+10	1	-1E+10	1	-1E+10	1	-1E+10	1
4902549	67	C	06/18/2022	07:11	-131.249	47.592	0	337.80	0	5.3160	0	33.9240	0	26.789	0	334.704	0	70.6	4	22.9	4	-1E+10	1	-1E+10	1	-1E+10	1	-1E+10	1	-1E+10	1	-1E+10	1
4902549	67	C	06/18/2022	07:11	-131.249	47.592	0	338.70	0	5.3130	0	33.9260	0	26.791	0	335.595	0	70.2	4	22.8	4	-1E+10	1	-1E+10	1	-1E+10	1	-1E+10	1	-1E+10	1	-1E+10	1
4902549	67	C	06/18/2022	07:11	-131.249	47.592	0	339.70	0	5.3030	0	33.9280	0	26.794	0	336.585	0	69.9	4	22.7	4	-1E+10	1	-1E+10	1	-1E+10	1	-1E+10	1	-1E+10	1	-1E+10	1
4902549	67	C	06/18/2022	07:11	-131.249	47.592	0	340.60	0	5.3010	0	33.9280	0	26.794	0	337.476	0	69.7	4	22.6	4	-1E+10	1	-1E+10	1	-1E+10	1	-1E+10	1	-1E+10	1	-1E+10	1
4902549	67	C	06/18/2022	07:11	-131.249	47.592	0	341.50	0	5.2970	0	33.9280	0	26.794	0	338.367	0	69.3	4	22.5	4	-1E+10	1	-1E+10	1	-1E+10	1	-1E+10	1	-1E+10	1	-1E+10	1
4902549	67	C	06/18/2022	07:11	-131.249	47.592	0	342.90	0	5.2930	0	33.9280	0	26.795	0	339.753	0	68.9	4	22.4	4	-1E+10	1	-1E+10	1	-1E+10	1	-1E+10	1	-1E+10	1	-1E+10	1
4902549	67	C	06/18/2022	07:11	-131.249	47.592	0	344.30	0	5.2870	0	33.9290	0	26.796	0	341.139	0	68.3	4	22.2	4	-1E+10	1	-1E+10	1	-1E+10	1	-1E+10	1	-1E+10	1	-1E+10	1
4902549	67	C	06/18/2022	07:11	-131.249	47.592	0	345.20	0	5.2740	0	33.9300	0	26.799	0	342.030	0	68.0	4	22.1	4	-1E+10	1	-1E+10	1	-1E+10	1	-1E+10	1	-1E+10	1	-1E+10	1
4902549	67	C	06/18/2022	07:11	-131.249	47.592	0	346.20	0	5.2570	0	33.9310	0	26.801	0	343.020	0	67.8	4	22.0	4	-1E+10	1	-1E+10	1	-1E+10	1	-1E+10	1	-1E+10	1	-1E+10	1
4902549	67	C	06/18/2022	07:11	-131.249	47.592	0	347.10	0	5.2350	0	33.9340	0	26.806	0	343.911	0	67.5	4	21.9	4	-1E+10	1	-1E+10	1	-1E+10	1	-1E+10	1	-1E+10	1	-1E+10	1
4902549	67	C	06/18/2022	07:11	-131.249	47.592	0	348.00	0	5.1980	0	33.9330	0	26.810	0	344.802	0	67.4	4	21.9	4	-1E+10	1	-1E+10	1	-1E+10	1	-1E+10	1	-1E+10	1	-1E+10	1
4902549	67	C	06/18/2022	07:11	-131.249	47.592	0	349.00	0	5.1930	0	33.9340	0	26.811	0	345.792	0	67.2	4	21.8	4	-1E+10	1	-1E+10	1	-1E+10	1	-1E+10	1	-1E+10	1	-1E+10	1
4902549	67	C	06/18/2022	07:11	-131.249	47.592	0	349.90	0	5.1850	0	33.9340	0	26.812	0	346.683	0	67.0	4	21.7	4	-1E+10	1	-1E+10	1	-1E+10	1	-1E+10	1	-1E+10	1	-1E+10	1
4902549	67	C	06/18/2022	07:11	-131.249	47.592	0	352.70	0	5.1780	0	33.9340	0	26.813	0	349.455	0	66.4	4	21.5	4	-1E+10	1	-1E+10	1	-1E+10	1	-1E+10	1	-1E+10	1	-1E+10	1
4902549	67	C	06/18/2022	07:11	-131.249	47.592	0	357.90	0	5.1490	0	33.9360	0	26.818	0	354.603	0	64.9	4	21.0	4	-1E+10	1	-1E+10	1	-1E+10	1	-1E+10	1	-1E+10	1	-1E+10	1
4902549	67	C	06/18/2022	07:11	-131.249	47.592	0	363.30	0	5.1120	0	33.9400	0	26.825	0	359.948	0	63.7	4	20.6	4	-1E+10	1	-1E+10	1	-1E+10	1	-1E+10	1	-1E+10	1	-1E+10	1
4902549	67	C	06/18/2022	07:11	-131.249	47.592	0	368.30	0	5.0530	0	33.9410	0	26.833	0	364.898	0	62.7	4	20.3	4	-1E+10	1	-1E+10	1	-1E+10	1	-1E+10	1	-1E+10	1	-1E+10	1
4902549	67	C	06/18/2022	07:11	-131.249	47.592	0	373.20	0	5.0250	0	33.9430	0	26.838	0	369.748	0	61.4	4	19.8	4	-1E+10	1	-1E+10	1	-1E+10	1	-1E+10	1	-1E+10	1	-1E+10	1
4902549	67	C	06/18/2022	07:11	-131.249	47.592	0	378.20	0	5.0060	0	33.9460	0	26.842	0	374.698	0	60.1	4	19.4	4	-1E+10	1	-1E+10	1	-1E+10	1	-1E+10	1	-1E+10	1	-1E+10	1
4902549	67	C	06/18/2022	07:11	-131.249	47.592	0	383.30	0	4.9780	0	33.9520	0	26.850	0	379.746	0	59.1	4	19.1	4	-1E+10	1	-1E+10	1	-1E+10	1	-1E+10	1	-1E+10	1	-1E+10	1
4902549	67	C	06/18/2022	07:11	-131.249	47.592	0	388.30	0	4.9350	0	33.9550	0	26.858	0	384.695	0	58.1	4	18.7	4	-1E+10	1	-1E+10	1	-1E+10	1	-1E+10	1	-1E+10	1	-1E+10	1
4902549	67	C	06/18/2022	07:11	-131.249	47.592	0	392.90	0	4.8960	0	33.9560	0	26.863	0	389.248	0	56.8	4	18.3	4	-1E+10	1	-1E+10	1	-1E+10	1	-1E+10	1	-1E+10	1	-1E+10	1
4902549	67	C	06/18/2022	07:11	-131.249	47.592	0	397.50	0	4.8590	0	33.9610	0	26.871	0	393.801	0	55.3	4	17.8	4	-1E+10	1	-1E+10	1	-1E+10	1	-1E+10	1	-1E+10	1	-1E+10	1
4902549	67	C	06/18/2022	07:11	-131.249	47.592	0	402.70	0	4.8550	0	33.9670	0	26.876	0	398.947	0	53.9	4	17.3	4	-1E+10	1	-1E+10	1	-1E+10	1	-1E+10	1	-1E+10	1	-1E+10	1
4902549	67	C	06/18/2022	07:11	-131.249	47.592	0	408.00	0	4.8190	0	33.9680	0	26.881	0	404.193	0	52.2	4	16.8	4	-1E+10	1	-1E+10	1	-1E+10	1	-1E+10	1	-1E+10	1	-1E+10	1
4902549	67	C	06/18/2022	07:11	-131.249	47.592	0	412.80	0	4.8120	0	33.9780	0	26.890	0	408.943	0	51.0	4	16.4	4	-1E+10	1	-1E+10	1	-1E+10	1	-1E+10	1	-1E+10	1	-1E+10	1
4902549	67	C	06/18/2022	07:11	-131.249	47.592	0	417.60	0	4.7700	0	33.9780	0	26.895	0	413.693	0	49.7	4	16.0	4	-1E+10	1	-1E+10	1	-1E+10	1	-1E+10	1	-1E+10	1	-1E+10	1
4902549	67	C	06/18/2022	07:11	-131.249	47.592	0	423.00	0	4.7650	0	33.9840	0	26.900	0	419.037	0	47.9	4	15.4	4	-1E+10	1	-1E+10	1	-1E+10	1	-1E+10	1	-1E+10	1	-1E+10	1
4902549	67	C	06/18/2022	07:11	-131.249	47.592	0	428.20	0	4.7400	0	33.9910	0	26.908	0	424.183	0	45.9	4	14.7	4	-1E+10	1	-1E+10	1	-1E+10	1	-1E+10	1	-1E+10	1	-1E+10	1
4902549	67	C	06/18/2022	07:11	-131.249	47.592	0	433.00	0	4.7470	0	33.9980	0	26.913	0	428.933	0	43.7	4	14.0	4	-1E+10	1	-1E+10	1	-1E+10	1	-1E+10	1	-1E+10	1	-1E+10	1
4902549	67	C	06/18/2022	07:11	-131.249	47.592	0	437.70	0	4.7490	0	34.0040	0	26.918	0	433.584	0	41.0	4	13.2	4	-1E+10	1	-1E+10	1	-1E+10	1	-1E+10	1	-1E+10	1	-1E+10	1
4902549	67	C	06/18/2022	07:11	-131.249	47.592	0	443.00	0	4.7960	0	34.0180	0	26.924	0	438.829	0	38.3	4	12.3	4	-1E+10	1	-1E+10	1	-1E+10	1	-1E+10	1	-1E+10	1	-1E+10	1
4902549	67	C	06/18/2022	07:11	-131.249	47.592	0	448.30	0	4.8070	0	34.0280	0	26.930	0	444.073	0	36.2	4	11.7	4	-1E+10	1	-1E+10	1	-1E+10	1	-1E+10	1	-1E+10	1	-1E+10	1
4902549	67	C	06/18/2022	07:11	-131.249	47.592	0	453.00	0	4.8060	0	34.0360	0	26.937	0	448.724	0	35.2	4	11.3	4	-1E+10	1	-1E+10	1	-1E+10	1	-1E+10	1	-1E+10	1	-1E+10	1
4902549	67	C	06/18/2022	07:11	-131.249	47.592	0	457.80	0	4.7830	0	34.0390	0	26.942	0	453.473	0	34.5	4	11.1	4	-1E+10	1	-1E+10	1	-1E+10	1	-1E+10	1	-1E+10	1	-1E+10	1
4902549	67	C	06/18/2022	07:11	-131.249	47.592	0	463.10	0	4.7650	0	34.0430	0	26.947	0	458.718	0	33.5	4	10.8	4	-1E+10	1	-1E+10	1	-1E+10	1	-1E+10	1	-1E+10	1	-1E+10	1
4902549	67	C	06/18/2022	07:11	-131.249	47.592	0	467.90	0	4.7490	0	34.0470	0	26.952	0	463.467	0	32.8	4	10.5	4	-1E+10	1	-1E+10	1	-1E+10	1	-1E+10	1	-1E+10	1	-1E+10	1
4902549	67	C	06/18/2022	07:11	-131.249	47.592	0	472.60	0	4.7010	0	34.0500	0	26.960	0	468.117	0	31.8	4	10.2	4	-1E+10	1	-1E+10	1	-1E+10	1	-1E+10	1	-1E+10	1	-1E+10	1
4902549	67	C	06/18/2022	07:11	-131.249	47.592	0	477.90	0	4.7090	0	34.0570	0	26.965	0	473.361	0	31.1	4	10.0	4	-1E+10	1	-1E+10	1	-1E+10	1	-1E+10	1	-1E+10	1	-1E+10	1
4902549	67	C	06/18/2022	07:11	-131.249	47.592	0	483.10	0	4.6960	0	34.0590	0	26.968	0	478.505	0	30.7	4	9.9	4	-1E+10	1	-1E+10	1	-1E+10	1	-1E+10	1	-1E+10	1	-1E+10	1
4902549	67	C	06/18/2022	07:11	-131.249	47.592	0	488.30	0	4.6370	0	34.0580	0	26.973	0	483.650	0	29.9	4	9.6	4	-1E+10	1	-1E+10	1	-1E+10	1	-1E+10	1	-1E+10	1	-1E+10	1
4902549	67	C	06/18/2022	07:11	-131.249	47.592	0	493.00	0	4.6410	0	34.0660	0	26.979	0	488.299	0	28.9	4	9.3	4	-1E+10	1	-1E+10	1	-1E+10	1	-1E+10	1	-1E+10	1	-1E+10	1
4902549	67	C	06/18/2022	07:11	-131.249	47.592	0	497.90	0	4.6010	0	34.0710	0	26.988	0	493.147	0	28.6	4	9.2	4	-1E+10	1	-1E+10	1	-1E+10	1	-1E+10	1	-1E+10	1	-1E+10	1
4902549	67	C	06/18/2022	07:11	-131.249	47.592	0	503.00	0	4.5780	0	34.0720	0	26.991	0	498.192	0	28.4	4	9.1	4	-1E+10	1	-1E+10	1	-1E+10	1	-1E+10	1	-1E+10	1	-1E+10	1
4902549	67	C	06/18/2022	07:11	-131.249	47.592	0	507.80	0	4.5460	0	34.0710	0	26.994	0	502.940	0	27.8	4	8.9	4	-1E+10	1	-1E+10	1	-1E+10	1	-1E+10	1	-1E+10	1	-1E+10	1
4902549	67	C	06/18/2022	07:11	-131.249	47.592	0	512.80	0	4.4880	0	34.0750	0	27.003	0	507.886	0	26.8	4	8.6	4	-1E+10	1	-1E+10	1	-1E+10	1	-1E+10	1	-1E+10	1	-1E+10	1
4902549	67	C	06/18/2022	07:11	-131.249	47.592	0	517.80	0	4.4690	0	34.0790	0	27.008	0	512.832	0	25.7	4	8.2	4	-1E+10	1	-1E+10	1	-1E+10	1	-1E+10	1	-1E+10	1	-1E+10	1
4902549	67	C	06/18/2022	07:11	-131.249	47.592	0	523.10	0	4.4540	0	34.0840	0	27.014	0	518.075	0	24.2	4	7.7	4	-1E+10	1	-1E+10	1	-1E+10	1	-1E+10	1	-1E+10	1	-1E+10	1
4902549	67	C	06/18/2022	07:11	-131.249	47.592	0	528.10	0	4.4250	0	34.0940	0	27.025	0	523.021	0	22.6	4	7.2	4	-1E+10	1	-1E+10	1	-1E+10	1	-1E+10	1	-1E+10	1	-1E+10	1
4902549	67	C	06/18/2022	07:11	-131.249	47.592	0	532.70	0	4.4070	0	34.1010	0	27.033	0	527.571	0	21.7	4	6.9	4	-1E+10	1	-1E+10	1	-1E+10	1	-1E+10	1	-1E+10	1	-1E+10	1
4902549	67	C	06/18/2022	07:11	-131.249	47.592	0	538.00	0	4.3840	0	34.1080	0	27.041	0	532.813	0	20.7	4	6.6	4	-1E+10	1	-1E+10	1	-1E+10	1	-1E+10	1	-1E+10	1	-1E+10	1
4902549	67	C	06/18/2022	07:11	-131.249	47.592	0	543.20	0	4.3710	0	34.1150	0	27.048	0	537.956	0	20.1	4	6.4	4	-1E+10	1	-1E+10	1	-1E+10	1	-1E+10	1	-1E+10	1	-1E+10	1
4902549	67	C	06/18/2022	07:11	-131.249	47.592	0	548.10	0	4.3570	0	34.1180	0	27.052	0	542.802	0	19.7	4	6.3	4	-1E+10	1	-1E+10	1	-1E+10	1	-1E+10	1	-1E+10	1	-1E+10	1
4902549	67	C	06/18/2022	07:11	-131.249	47.592	0	553.00	0	4.3450	0	34.1200	0	27.055	0	547.648	0	19.3	4	6.1	4	-1E+10	1	-1E+10	1	-1E+10	1	-1E+10	1	-1E+10	1	-1E+10	1
4902549	67	C	06/18/2022	07:11	-131.249	47.592	0	558.00	0	4.3340	0	34.1230	0	27.058	0	552.593	0	18.7	4	6.0	4	-1E+10	1	-1E+10	1	-1E+10	1	-1E+10	1	-1E+10	1	-1E+10	1
4902549	67	C	06/18/2022	07:11	-131.249	47.592	0	563.10	0	4.3380	0	34.1270	0	27.061	0	557.637	0	18.1	4	5.8	4	-1E+10	1	-1E+10	1	-1E+10	1	-1E+10	1	-1E+10	1	-1E+10	1
4902549	67	C	06/18/2022	07:11	-131.249	47.592	0	568.20	0	4.3360	0	34.1340	0	27.067	0	562.681	0	17.8	4	5.7	4	-1E+10	1	-1E+10	1	-1E+10	1	-1E+10	1	-1E+10	1	-1E+10	1
4902549	67	C	06/18/2022	07:11	-131.249	47.592	0	573.00	0	4.3080	0	34.1340	0	27.070	0	567.428	0	17.7	4	5.6	4	-1E+10	1	-1E+10	1	-1E+10	1	-1E+10	1	-1E+10	1	-1E+10	1
4902549	67	C	06/18/2022	07:11	-131.249	47.592	0	577.90	0	4.2560	0	34.1360	0	27.077	0	572.273	0	17.1	4	5.4	4	-1E+10	1	-1E+10	1	-1E+10	1	-1E+10	1	-1E+10	1	-1E+10	1
4902549	67	C	06/18/2022	07:11	-131.249	47.592	0	583.30	0	4.2610	0	34.1410	0	27.080	0	577.613	0	16.6	4	5.3	4	-1E+10	1	-1E+10	1	-1E+10	1	-1E+10	1	-1E+10	1	-1E+10	1
4902549	67	C	06/18/2022	07:11	-131.249	47.592	0	588.10	0	4.2500	0	34.1430	0	27.083	0	582.360	0	16.2	4	5.2	4	-1E+10	1	-1E+10	1	-1E+10	1	-1E+10	1	-1E+10	1	-1E+10	1
4902549	67	C	06/18/2022	07:11	-131.249	47.592	0	593.10	0	4.2380	0	34.1480	0	27.088	0	587.304	0	15.9	4	5.0	4	-1E+10	1	-1E+10	1	-1E+10	1	-1E+10	1	-1E+10	1	-1E+10	1
4902549	67	C	06/18/2022	07:11	-131.249	47.592	0	598.10	0	4.2310	0	34.1500	0	27.091	0	592.248	0	15.6	4	5.0	4	-1E+10	1	-1E+10	1	-1E+10	1	-1E+10	1	-1E+10	1	-1E+10	1
4902549	67	C	06/18/2022	07:11	-131.249	47.592	0	603.20	0	4.2160	0	34.1530	0	27.095	0	597.291	0	15.4	4	4.9	4	-1E+10	1	-1E+10	1	-1E+10	1	-1E+10	1	-1E+10	1	-1E+10	1
4902549	67	C	06/18/2022	07:11	-131.249	47.592	0	607.90	0	4.2100	0	34.1540	0	27.096	0	601.938	0	15.1	4	4.8	4	-1E+10	1	-1E+10	1	-1E+10	1	-1E+10	1	-1E+10	1	-1E+10	1
4902549	67	C	06/18/2022	07:11	-131.249	47.592	0	612.60	0	4.2020	0	34.1550	0	27.098	0	606.585	0	14.8	4	4.7	4	-1E+10	1	-1E+10	1	-1E+10	1	-1E+10	1	-1E+10	1	-1E+10	1
4902549	67	C	06/18/2022	07:11	-131.249	47.592	0	617.90	0	4.1730	0	34.1600	0	27.105	0	611.825	0	14.5	4	4.6	4	-1E+10	1	-1E+10	1	-1E+10	1	-1E+10	1	-1E+10	1	-1E+10	1
4902549	67	C	06/18/2022	07:11	-131.249	47.592	0	622.90	0	4.1670	0	34.1620	0	27.107	0	616.768	0	14.3	4	4.5	4	-1E+10	1	-1E+10	1	-1E+10	1	-1E+10	1	-1E+10	1	-1E+10	1
4902549	67	C	06/18/2022	07:11	-131.249	47.592	0	627.70	0	4.1630	0	34.1630	0	27.108	0	621.514	0	14.1	4	4.5	4	-1E+10	1	-1E+10	1	-1E+10	1	-1E+10	1	-1E+10	1	-1E+10	1
4902549	67	C	06/18/2022	07:11	-131.249	47.592	0	633.00	0	4.1550	0	34.1640	0	27.110	0	626.754	0	13.8	4	4.4	4	-1E+10	1	-1E+10	1	-1E+10	1	-1E+10	1	-1E+10	1	-1E+10	1
4902549	67	C	06/18/2022	07:11	-131.249	47.592	0	637.80	0	4.1410	0	34.1690	0	27.115	0	631.499	0	13.5	4	4.3	4	-1E+10	1	-1E+10	1	-1E+10	1	-1E+10	1	-1E+10	1	-1E+10	1
4902549	67	C	06/18/2022	07:11	-131.249	47.592	0	642.70	0	4.1410	0	34.1730	0	27.119	0	636.343	0	13.2	4	4.2	4	-1E+10	1	-1E+10	1	-1E+10	1	-1E+10	1	-1E+10	1	-1E+10	1
4902549	67	C	06/18/2022	07:11	-131.249	47.592	0	648.00	0	4.1280	0	34.1750	0	27.122	0	641.583	0	12.9	4	4.1	4	-1E+10	1	-1E+10	1	-1E+10	1	-1E+10	1	-1E+10	1	-1E+10	1
4902549	67	C	06/18/2022	07:11	-131.249	47.592	0	653.20	0	4.1110	0	34.1750	0	27.123	0	646.723	0	12.6	4	4.0	4	-1E+10	1	-1E+10	1	-1E+10	1	-1E+10	1	-1E+10	1	-1E+10	1
4902549	67	C	06/18/2022	07:11	-131.249	47.592	0	658.00	0	4.1040	0	34.1810	0	27.129	0	651.468	0	12.2	4	3.8	4	-1E+10	1	-1E+10	1	-1E+10	1	-1E+10	1	-1E+10	1	-1E+10	1
4902549	67	C	06/18/2022	07:11	-131.249	47.592	0	662.80	0	4.0830	0	34.1860	0	27.135	0	656.213	0	11.8	4	3.7	4	-1E+10	1	-1E+10	1	-1E+10	1	-1E+10	1	-1E+10	1	-1E+10	1
4902549	67	C	06/18/2022	07:11	-131.249	47.592	0	668.00	0	4.0780	0	34.1890	0	27.138	0	661.353	0	11.4	4	3.6	4	-1E+10	1	-1E+10	1	-1E+10	1	-1E+10	1	-1E+10	1	-1E+10	1
4902549	67	C	06/18/2022	07:11	-131.249	47.592	0	673.20	0	4.0570	0	34.1960	0	27.146	0	666.493	0	11.0	4	3.5	4	-1E+10	1	-1E+10	1	-1E+10	1	-1E+10	1	-1E+10	1	-1E+10	1
4902549	67	C	06/18/2022	07:11	-131.249	47.592	0	678.00	0	4.0450	0	34.2010	0	27.151	0	671.237	0	10.8	4	3.4	4	-1E+10	1	-1E+10	1	-1E+10	1	-1E+10	1	-1E+10	1	-1E+10	1
4902549	67	C	06/18/2022	07:11	-131.249	47.592	0	682.90	0	4.0410	0	34.2030	0	27.153	0	676.080	0	10.6	4	3.4	4	-1E+10	1	-1E+10	1	-1E+10	1	-1E+10	1	-1E+10	1	-1E+10	1
4902549	67	C	06/18/2022	07:11	-131.249	47.592	0	687.80	0	4.0340	0	34.2060	0	27.156	0	680.924	0	10.4	4	3.3	4	-1E+10	1	-1E+10	1	-1E+10	1	-1E+10	1	-1E+10	1	-1E+10	1
4902549	67	C	06/18/2022	07:11	-131.249	47.592	0	692.70	0	4.0170	0	34.2090	0	27.160	0	685.767	0	10.2	4	3.2	4	-1E+10	1	-1E+10	1	-1E+10	1	-1E+10	1	-1E+10	1	-1E+10	1
4902549	67	C	06/18/2022	07:11	-131.249	47.592	0	698.00	0	4.0060	0	34.2120	0	27.164	0	691.005	0	10.0	4	3.2	4	-1E+10	1	-1E+10	1	-1E+10	1	-1E+10	1	-1E+10	1	-1E+10	1
4902549	67	C	06/18/2022	07:11	-131.249	47.592	0	703.00	0	3.9850	0	34.2170	0	27.170	0	695.946	0	9.9	4	3.1	4	-1E+10	1	-1E+10	1	-1E+10	1	-1E+10	1	-1E+10	1	-1E+10	1
4902549	67	C	06/18/2022	07:11	-131.249	47.592	0	707.90	0	3.9710	0	34.2190	0	27.173	0	700.789	0	9.8	4	3.1	4	-1E+10	1	-1E+10	1	-1E+10	1	-1E+10	1	-1E+10	1	-1E+10	1
4902549	67	C	06/18/2022	07:11	-131.249	47.592	0	713.00	0	3.9560	0	34.2210	0	27.176	0	705.829	0	9.7	4	3.1	4	-1E+10	1	-1E+10	1	-1E+10	1	-1E+10	1	-1E+10	1	-1E+10	1
4902549	67	C	06/18/2022	07:11	-131.249	47.592	0	718.10	0	3.9370	0	34.2240	0	27.181	0	710.869	0	9.7	4	3.0	4	-1E+10	1	-1E+10	1	-1E+10	1	-1E+10	1	-1E+10	1	-1E+10	1
4902549	67	C	06/18/2022	07:11	-131.249	47.592	0	723.10	0	3.9150	0	34.2260	0	27.185	0	715.810	0	9.6	4	3.0	4	-1E+10	1	-1E+10	1	-1E+10	1	-1E+10	1	-1E+10	1	-1E+10	1
4902549	67	C	06/18/2022	07:11	-131.249	47.592	0	727.80	0	3.9040	0	34.2280	0	27.187	0	720.455	0	9.5	4	3.0	4	-1E+10	1	-1E+10	1	-1E+10	1	-1E+10	1	-1E+10	1	-1E+10	1
4902549	67	C	06/18/2022	07:11	-131.249	47.592	0	733.00	0	3.8880	0	34.2310	0	27.191	0	725.593	0	9.4	4	3.0	4	-1E+10	1	-1E+10	1	-1E+10	1	-1E+10	1	-1E+10	1	-1E+10	1
4902549	67	C	06/18/2022	07:11	-131.249	47.592	0	738.20	0	3.8770	0	34.2320	0	27.193	0	730.731	0	9.2	4	2.9	4	-1E+10	1	-1E+10	1	-1E+10	1	-1E+10	1	-1E+10	1	-1E+10	1
4902549	67	C	06/18/2022	07:11	-131.249	47.592	0	743.00	0	3.8700	0	34.2370	0	27.198	0	735.474	0	9.1	4	2.9	4	-1E+10	1	-1E+10	1	-1E+10	1	-1E+10	1	-1E+10	1	-1E+10	1
4902549	67	C	06/18/2022	07:11	-131.249	47.592	0	747.70	0	3.8570	0	34.2390	0	27.201	0	740.118	0	9.1	4	2.9	4	-1E+10	1	-1E+10	1	-1E+10	1	-1E+10	1	-1E+10	1	-1E+10	1
4902549	67	C	06/18/2022	07:11	-131.249	47.592	0	752.60	0	3.8370	0	34.2410	0	27.205	0	744.960	0	9.2	4	2.9	4	-1E+10	1	-1E+10	1	-1E+10	1	-1E+10	1	-1E+10	1	-1E+10	1
4902549	67	C	06/18/2022	07:11	-131.249	47.592	0	758.00	0	3.8020	0	34.2430	0	27.210	0	750.295	0	9.4	4	2.9	4	-1E+10	1	-1E+10	1	-1E+10	1	-1E+10	1	-1E+10	1	-1E+10	1
4902549	67	C	06/18/2022	07:11	-131.249	47.592	0	763.30	0	3.7460	0	34.2430	0	27.215	0	755.532	0	9.2	4	2.9	4	-1E+10	1	-1E+10	1	-1E+10	1	-1E+10	1	-1E+10	1	-1E+10	1
4902549	67	C	06/18/2022	07:11	-131.249	47.592	0	768.30	0	3.7260	0	34.2490	0	27.222	0	760.472	0	8.8	4	2.8	4	-1E+10	1	-1E+10	1	-1E+10	1	-1E+10	1	-1E+10	1	-1E+10	1
4902549	67	C	06/18/2022	07:11	-131.249	47.592	0	773.20	0	3.7350	0	34.2530	0	27.224	0	765.313	0	8.4	4	2.6	4	-1E+10	1	-1E+10	1	-1E+10	1	-1E+10	1	-1E+10	1	-1E+10	1
4902549	67	C	06/18/2022	07:11	-131.249	47.592	0	778.10	0	3.7520	0	34.2560	0	27.225	0	770.154	0	8.0	4	2.5	4	-1E+10	1	-1E+10	1	-1E+10	1	-1E+10	1	-1E+10	1	-1E+10	1
4902549	67	C	06/18/2022	07:11	-131.249	47.592	0	783.10	0	3.7590	0	34.2600	0	27.228	0	775.094	0	7.9	4	2.5	4	-1E+10	1	-1E+10	1	-1E+10	1	-1E+10	1	-1E+10	1	-1E+10	1
4902549	67	C	06/18/2022	07:11	-131.249	47.592	0	788.10	0	3.7500	0	34.2620	0	27.230	0	780.033	0	7.8	4	2.4	4	-1E+10	1	-1E+10	1	-1E+10	1	-1E+10	1	-1E+10	1	-1E+10	1
4902549	67	C	06/18/2022	07:11	-131.249	47.592	0	793.10	0	3.7460	0	34.2640	0	27.232	0	784.973	0	7.7	4	2.4	4	-1E+10	1	-1E+10	1	-1E+10	1	-1E+10	1	-1E+10	1	-1E+10	1
4902549	67	C	06/18/2022	07:11	-131.249	47.592	0	798.20	0	3.7340	0	34.2660	0	27.235	0	790.011	0	7.6	4	2.4	4	-1E+10	1	-1E+10	1	-1E+10	1	-1E+10	1	-1E+10	1	-1E+10	1
4902549	67	C	06/18/2022	07:11	-131.249	47.592	0	803.30	0	3.7260	0	34.2680	0	27.237	0	795.049	0	7.5	4	2.4	4	-1E+10	1	-1E+10	1	-1E+10	1	-1E+10	1	-1E+10	1	-1E+10	1
4902549	67	C	06/18/2022	07:11	-131.249	47.592	0	808.30	0	3.7010	0	34.2720	0	27.243	0	799.988	0	7.5	4	2.4	4	-1E+10	1	-1E+10	1	-1E+10	1	-1E+10	1	-1E+10	1	-1E+10	1
4902549	67	C	06/18/2022	07:11	-131.249	47.592	0	813.40	0	3.6720	0	34.2750	0	27.248	0	805.026	0	7.6	4	2.4	4	-1E+10	1	-1E+10	1	-1E+10	1	-1E+10	1	-1E+10	1	-1E+10	1
4902549	67	C	06/18/2022	07:11	-131.249	47.592	0	817.90	0	3.6450	0	34.2760	0	27.252	0	809.471	0	7.5	4	2.3	4	-1E+10	1	-1E+10	1	-1E+10	1	-1E+10	1	-1E+10	1	-1E+10	1
4902549	67	C	06/18/2022	07:11	-131.249	47.592	0	822.60	0	3.6470	0	34.2790	0	27.254	0	814.113	0	7.3	4	2.3	4	-1E+10	1	-1E+10	1	-1E+10	1	-1E+10	1	-1E+10	1	-1E+10	1
4902549	67	C	06/18/2022	07:11	-131.249	47.592	0	828.00	0	3.6330	0	34.2820	0	27.258	0	819.447	0	7.3	4	2.3	4	-1E+10	1	-1E+10	1	-1E+10	1	-1E+10	1	-1E+10	1	-1E+10	1
4902549	67	C	06/18/2022	07:11	-131.249	47.592	0	832.90	0	3.6260	0	34.2830	0	27.259	0	824.286	0	7.3	4	2.3	4	-1E+10	1	-1E+10	1	-1E+10	1	-1E+10	1	-1E+10	1	-1E+10	1
4902549	67	C	06/18/2022	07:11	-131.249	47.592	0	837.70	0	3.6200	0	34.2830	0	27.260	0	829.027	0	7.4	4	2.3	4	-1E+10	1	-1E+10	1	-1E+10	1	-1E+10	1	-1E+10	1	-1E+10	1
4902549	67	C	06/18/2022	07:11	-131.249	47.592	0	842.90	0	3.5960	0	34.2850	0	27.264	0	834.163	0	7.4	4	2.3	4	-1E+10	1	-1E+10	1	-1E+10	1	-1E+10	1	-1E+10	1	-1E+10	1
4902549	67	C	06/18/2022	07:11	-131.249	47.592	0	848.10	0	3.5820	0	34.2870	0	27.267	0	839.299	0	7.4	4	2.3	4	-1E+10	1	-1E+10	1	-1E+10	1	-1E+10	1	-1E+10	1	-1E+10	1
4902549	67	C	06/18/2022	07:11	-131.249	47.592	0	852.90	0	3.5570	0	34.2880	0	27.270	0	844.039	0	7.5	4	2.3	4	-1E+10	1	-1E+10	1	-1E+10	1	-1E+10	1	-1E+10	1	-1E+10	1
4902549	67	C	06/18/2022	07:11	-131.249	47.592	0	857.90	0	3.5380	0	34.2890	0	27.273	0	848.977	0	7.4	4	2.3	4	-1E+10	1	-1E+10	1	-1E+10	1	-1E+10	1	-1E+10	1	-1E+10	1
4902549	67	C	06/18/2022	07:11	-131.249	47.592	0	863.10	0	3.5240	0	34.2910	0	27.276	0	854.112	0	7.3	4	2.3	4	-1E+10	1	-1E+10	1	-1E+10	1	-1E+10	1	-1E+10	1	-1E+10	1
4902549	67	C	06/18/2022	07:11	-131.249	47.592	0	867.90	0	3.5140	0	34.2930	0	27.278	0	858.853	0	7.3	4	2.3	4	-1E+10	1	-1E+10	1	-1E+10	1	-1E+10	1	-1E+10	1	-1E+10	1
4902549	67	C	06/18/2022	07:11	-131.249	47.592	0	872.80	0	3.5040	0	34.2960	0	27.282	0	863.691	0	7.2	4	2.2	4	-1E+10	1	-1E+10	1	-1E+10	1	-1E+10	1	-1E+10	1	-1E+10	1
4902549	67	C	06/18/2022	07:11	-131.249	47.592	0	877.80	0	3.4940	0	34.2990	0	27.285	0	868.629	0	7.1	4	2.2	4	-1E+10	1	-1E+10	1	-1E+10	1	-1E+10	1	-1E+10	1	-1E+10	1
4902549	67	C	06/18/2022	07:11	-131.249	47.592	0	882.80	0	3.4850	0	34.3030	0	27.289	0	873.566	0	7.1	4	2.2	4	-1E+10	1	-1E+10	1	-1E+10	1	-1E+10	1	-1E+10	1	-1E+10	1
4902549	67	C	06/18/2022	07:11	-131.249	47.592	0	887.90	0	3.4610	0	34.3050	0	27.293	0	878.602	0	7.1	4	2.2	4	-1E+10	1	-1E+10	1	-1E+10	1	-1E+10	1	-1E+10	1	-1E+10	1
4902549	67	C	06/18/2022	07:11	-131.249	47.592	0	892.70	0	3.4450	0	34.3070	0	27.296	0	883.342	0	7.1	4	2.2	4	-1E+10	1	-1E+10	1	-1E+10	1	-1E+10	1	-1E+10	1	-1E+10	1
4902549	67	C	06/18/2022	07:11	-131.249	47.592	0	897.50	0	3.4310	0	34.3090	0	27.299	0	888.081	0	7.1	4	2.2	4	-1E+10	1	-1E+10	1	-1E+10	1	-1E+10	1	-1E+10	1	-1E+10	1
4902549	67	C	06/18/2022	07:11	-131.249	47.592	0	902.50	0	3.4150	0	34.3110	0	27.302	0	893.018	0	7.0	4	2.2	4	-1E+10	1	-1E+10	1	-1E+10	1	-1E+10	1	-1E+10	1	-1E+10	1
4902549	67	C	06/18/2022	07:11	-131.249	47.592	0	907.40	0	3.4010	0	34.3130	0	27.305	0	897.856	0	7.0	4	2.2	4	-1E+10	1	-1E+10	1	-1E+10	1	-1E+10	1	-1E+10	1	-1E+10	1
4902549	67	C	06/18/2022	07:11	-131.249	47.592	0	912.50	0	3.3920	0	34.3150	0	27.308	0	902.891	0	6.9	4	2.2	4	-1E+10	1	-1E+10	1	-1E+10	1	-1E+10	1	-1E+10	1	-1E+10	1
4902549	67	C	06/18/2022	07:11	-131.249	47.592	0	917.60	0	3.3860	0	34.3170	0	27.310	0	907.927	0	6.8	4	2.1	4	-1E+10	1	-1E+10	1	-1E+10	1	-1E+10	1	-1E+10	1	-1E+10	1
4902549	67	C	06/18/2022	07:11	-131.249	47.592	0	922.70	0	3.3750	0	34.3220	0	27.315	0	912.962	0	6.7	4	2.1	4	-1E+10	1	-1E+10	1	-1E+10	1	-1E+10	1	-1E+10	1	-1E+10	1
4902549	67	C	06/18/2022	07:11	-131.249	47.592	0	928.00	0	3.3750	0	34.3280	0	27.320	0	918.194	0	6.6	4	2.1	4	-1E+10	1	-1E+10	1	-1E+10	1	-1E+10	1	-1E+10	1	-1E+10	1
4902549	67	C	06/18/2022	07:11	-131.249	47.592	0	932.90	0	3.3720	0	34.3290	0	27.321	0	923.032	0	6.6	4	2.1	4	-1E+10	1	-1E+10	1	-1E+10	1	-1E+10	1	-1E+10	1	-1E+10	1
4902549	67	C	06/18/2022	07:11	-131.249	47.592	0	937.80	0	3.3620	0	34.3300	0	27.323	0	927.869	0	6.6	4	2.1	4	-1E+10	1	-1E+10	1	-1E+10	1	-1E+10	1	-1E+10	1	-1E+10	1
4902549	67	C	06/18/2022	07:11	-131.249	47.592	0	943.00	0	3.3520	0	34.3300	0	27.324	0	933.002	0	6.6	4	2.0	4	-1E+10	1	-1E+10	1	-1E+10	1	-1E+10	1	-1E+10	1	-1E+10	1
4902549	67	C	06/18/2022	07:11	-131.249	47.592	0	948.20	0	3.3650	0	34.3330	0	27.325	0	938.136	0	6.5	4	2.0	4	-1E+10	1	-1E+10	1	-1E+10	1	-1E+10	1	-1E+10	1	-1E+10	1
4902549	67	C	06/18/2022	07:11	-131.249	47.592	0	953.00	0	3.3720	0	34.3380	0	27.328	0	942.874	0	6.5	4	2.0	4	-1E+10	1	-1E+10	1	-1E+10	1	-1E+10	1	-1E+10	1	-1E+10	1
4902549	67	C	06/18/2022	07:11	-131.249	47.592	0	957.90	0	3.3540	0	34.3390	0	27.331	0	947.711	0	6.4	4	2.0	4	-1E+10	1	-1E+10	1	-1E+10	1	-1E+10	1	-1E+10	1	-1E+10	1
4902549	67	C	06/18/2022	07:11	-131.249	47.592	0	962.90	0	3.3450	0	34.3420	0	27.334	0	952.646	0	6.4	4	2.0	4	-1E+10	1	-1E+10	1	-1E+10	1	-1E+10	1	-1E+10	1	-1E+10	1
4902549	67	C	06/18/2022	07:11	-131.249	47.592	0	967.90	0	3.3360	0	34.3450	0	27.337	0	957.581	0	6.5	4	2.0	4	-1E+10	1	-1E+10	1	-1E+10	1	-1E+10	1	-1E+10	1	-1E+10	1
4902549	67	C	06/18/2022	07:11	-131.249	47.592	0	972.80	0	3.3170	0	34.3450	0	27.339	0	962.418	0	6.5	4	2.0	4	-1E+10	1	-1E+10	1	-1E+10	1	-1E+10	1	-1E+10	1	-1E+10	1
4902549	67	C	06/18/2022	07:11	-131.249	47.592	0	977.90	0	3.3100	0	34.3460	0	27.341	0	967.452	0	6.5	4	2.0	4	-1E+10	1	-1E+10	1	-1E+10	1	-1E+10	1	-1E+10	1	-1E+10	1
4902549	67	C	06/18/2022	07:11	-131.249	47.592	0	983.10	0	3.3000	0	34.3490	0	27.344	0	972.584	0	6.5	4	2.0	4	-1E+10	1	-1E+10	1	-1E+10	1	-1E+10	1	-1E+10	1	-1E+10	1
4902549	67	C	06/18/2022	07:11	-131.249	47.592	0	987.90	0	3.2850	0	34.3500	0	27.346	0	977.322	0	6.5	4	2.0	4	-1E+10	1	-1E+10	1	-1E+10	1	-1E+10	1	-1E+10	1	-1E+10	1
4902549	67	C	06/18/2022	07:11	-131.249	47.592	0	992.60	0	3.2720	0	34.3520	0	27.349	0	981.960	0	6.5	4	2.0	4	-1E+10	1	-1E+10	1	-1E+10	1	-1E+10	1	-1E+10	1	-1E+10	1
4902549	67	C	06/18/2022	07:11	-131.249	47.592	0	997.70	0	3.2690	0	34.3520	0	27.349	0	986.994	0	6.5	4	2.0	4	-1E+10	1	-1E+10	1	-1E+10	1	-1E+10	1	-1E+10	1	-1E+10	1
4902549	67	C	06/18/2022	07:11	-131.249	47.592	0	1005.20	0	3.2610	0	34.3520	0	27.350	0	994.395	0	6.5	4	2.0	4	-1E+10	1	-1E+10	1	-1E+10	1	-1E+10	1	-1E+10	1	-1E+10	1
4902549	67	C	06/18/2022	07:11	-131.249	47.592	0	1015.30	0	3.2340	0	34.3560	0	27.356	0	1004.363	0	6.5	4	2.0	4	-1E+10	1	-1E+10	1	-1E+10	1	-1E+10	1	-1E+10	1	-1E+10	1
4902549	67	C	06/18/2022	07:11	-131.249	47.592	0	1025.20	0	3.2240	0	34.3620	0	27.362	0	1014.132	0	6.5	4	2.0	4	-1E+10	1	-1E+10	1	-1E+10	1	-1E+10	1	-1E+10	1	-1E+10	1
4902549	67	C	06/18/2022	07:11	-131.249	47.592	0	1035.20	0	3.2040	0	34.3660	0	27.367	0	1024.000	0	6.6	4	2.0	4	-1E+10	1	-1E+10	1	-1E+10	1	-1E+10	1	-1E+10	1	-1E+10	1
4902549	67	C	06/18/2022	07:11	-131.249	47.592	0	1045.40	0	3.1900	0	34.3670	0	27.369	0	1034.064	0	6.6	4	2.1	4	-1E+10	1	-1E+10	1	-1E+10	1	-1E+10	1	-1E+10	1	-1E+10	1
4902549	67	C	06/18/2022	07:11	-131.249	47.592	0	1055.60	0	3.1710	0	34.3720	0	27.375	0	1044.128	0	6.7	4	2.1	4	-1E+10	1	-1E+10	1	-1E+10	1	-1E+10	1	-1E+10	1	-1E+10	1
4902549	67	C	06/18/2022	07:11	-131.249	47.592	0	1065.60	0	3.1440	0	34.3780	0	27.382	0	1053.994	0	6.7	4	2.1	4	-1E+10	1	-1E+10	1	-1E+10	1	-1E+10	1	-1E+10	1	-1E+10	1
4902549	67	C	06/18/2022	07:11	-131.249	47.592	0	1075.20	0	3.1350	0	34.3810	0	27.385	0	1063.465	0	6.8	4	2.1	4	-1E+10	1	-1E+10	1	-1E+10	1	-1E+10	1	-1E+10	1	-1E+10	1
4902549	67	C	06/18/2022	07:11	-131.249	47.592	0	1085.40	0	3.1210	0	34.3850	0	27.390	0	1073.528	0	6.9	4	2.1	4	-1E+10	1	-1E+10	1	-1E+10	1	-1E+10	1	-1E+10	1	-1E+10	1
4902549	67	C	06/18/2022	07:11	-131.249	47.592	0	1095.80	0	3.1150	0	34.3880	0	27.393	0	1083.788	0	7.1	4	2.2	4	-1E+10	1	-1E+10	1	-1E+10	1	-1E+10	1	-1E+10	1	-1E+10	1
4902549	67	C	06/18/2022	07:11	-131.249	47.592	0	1105.70	0	3.1310	0	34.3960	0	27.398	0	1093.553	0	7.2	4	2.2	4	-1E+10	1	-1E+10	1	-1E+10	1	-1E+10	1	-1E+10	1	-1E+10	1
4902549	67	C	06/18/2022	07:11	-131.249	47.592	0	1115.70	0	3.1070	0	34.3970	0	27.401	0	1103.417	0	7.3	4	2.3	4	-1E+10	1	-1E+10	1	-1E+10	1	-1E+10	1	-1E+10	1	-1E+10	1
4902549	67	C	06/18/2022	07:11	-131.249	47.592	0	1125.60	0	3.1090	0	34.4010	0	27.404	0	1113.182	0	7.5	4	2.3	4	-1E+10	1	-1E+10	1	-1E+10	1	-1E+10	1	-1E+10	1	-1E+10	1
4902549	67	C	06/18/2022	07:11	-131.249	47.592	0	1135.40	0	3.0880	0	34.4040	0	27.409	0	1122.848	0	7.6	4	2.4	4	-1E+10	1	-1E+10	1	-1E+10	1	-1E+10	1	-1E+10	1	-1E+10	1
4902549	67	C	06/18/2022	07:11	-131.249	47.592	0	1145.30	0	3.0670	0	34.4070	0	27.413	0	1132.611	0	7.8	4	2.4	4	-1E+10	1	-1E+10	1	-1E+10	1	-1E+10	1	-1E+10	1	-1E+10	1
4902549	67	C	06/18/2022	07:11	-131.249	47.592	0	1155.40	0	3.0300	0	34.4110	0	27.419	0	1142.572	0	8.0	4	2.5	4	-1E+10	1	-1E+10	1	-1E+10	1	-1E+10	1	-1E+10	1	-1E+10	1
4902549	67	C	06/18/2022	07:11	-131.249	47.592	0	1165.40	0	2.9970	0	34.4130	0	27.424	0	1152.434	0	8.1	4	2.5	4	-1E+10	1	-1E+10	1	-1E+10	1	-1E+10	1	-1E+10	1	-1E+10	1
4902549	67	C	06/18/2022	07:11	-131.249	47.592	0	1175.10	0	2.9780	0	34.4150	0	27.427	0	1161.999	0	8.2	4	2.5	4	-1E+10	1	-1E+10	1	-1E+10	1	-1E+10	1	-1E+10	1	-1E+10	1
4902549	67	C	06/18/2022	07:11	-131.249	47.592	0	1185.50	0	2.9640	0	34.4180	0	27.431	0	1172.254	0	8.4	4	2.6	4	-1E+10	1	-1E+10	1	-1E+10	1	-1E+10	1	-1E+10	1	-1E+10	1
4902549	67	C	06/18/2022	07:11	-131.249	47.592	0	1195.70	0	2.9500	0	34.4210	0	27.435	0	1182.311	0	8.6	4	2.6	4	-1E+10	1	-1E+10	1	-1E+10	1	-1E+10	1	-1E+10	1	-1E+10	1
4902549	67	C	06/18/2022	07:11	-131.249	47.592	0	1205.50	0	2.9330	0	34.4230	0	27.438	0	1191.974	0	8.7	4	2.7	4	-1E+10	1	-1E+10	1	-1E+10	1	-1E+10	1	-1E+10	1	-1E+10	1
4902549	67	C	06/18/2022	07:11	-131.249	47.592	0	1215.40	0	2.9100	0	34.4260	0	27.443	0	1201.735	0	8.9	4	2.7	4	-1E+10	1	-1E+10	1	-1E+10	1	-1E+10	1	-1E+10	1	-1E+10	1
4902549	67	C	06/18/2022	07:11	-131.249	47.592	0	1225.40	0	2.8970	0	34.4280	0	27.445	0	1211.593	0	9.1	4	2.8	4	-1E+10	1	-1E+10	1	-1E+10	1	-1E+10	1	-1E+10	1	-1E+10	1
4902549	67	C	06/18/2022	07:11	-131.249	47.592	0	1235.40	0	2.8790	0	34.4310	0	27.449	0	1221.452	0	9.3	4	2.9	4	-1E+10	1	-1E+10	1	-1E+10	1	-1E+10	1	-1E+10	1	-1E+10	1
4902549	67	C	06/18/2022	07:11	-131.249	47.592	0	1245.40	0	2.8670	0	34.4340	0	27.453	0	1231.309	0	9.5	4	2.9	4	-1E+10	1	-1E+10	1	-1E+10	1	-1E+10	1	-1E+10	1	-1E+10	1
4902549	67	C	06/18/2022	07:11	-131.249	47.592	0	1255.60	0	2.8440	0	34.4360	0	27.457	0	1241.364	0	9.7	4	3.0	4	-1E+10	1	-1E+10	1	-1E+10	1	-1E+10	1	-1E+10	1	-1E+10	1
4902549	67	C	06/18/2022	07:11	-131.249	47.592	0	1265.80	0	2.8160	0	34.4390	0	27.462	0	1251.418	0	10.0	4	3.1	4	-1E+10	1	-1E+10	1	-1E+10	1	-1E+10	1	-1E+10	1	-1E+10	1
4902549	67	C	06/18/2022	07:11	-131.249	47.592	0	1275.70	0	2.7850	0	34.4430	0	27.467	0	1261.176	0	10.2	4	3.1	4	-1E+10	1	-1E+10	1	-1E+10	1	-1E+10	1	-1E+10	1	-1E+10	1
4902549	67	C	06/18/2022	07:11	-131.249	47.592	0	1285.50	0	2.7750	0	34.4440	0	27.469	0	1270.835	0	10.3	4	3.2	4	-1E+10	1	-1E+10	1	-1E+10	1	-1E+10	1	-1E+10	1	-1E+10	1
4902549	67	C	06/18/2022	07:11	-131.249	47.592	0	1295.40	0	2.7610	0	34.4460	0	27.472	0	1280.592	0	10.6	4	3.3	4	-1E+10	1	-1E+10	1	-1E+10	1	-1E+10	1	-1E+10	1	-1E+10	1
4902549	67	C	06/18/2022	07:11	-131.249	47.592	0	1305.30	0	2.7410	0	34.4490	0	27.476	0	1290.348	0	10.9	4	3.3	4	-1E+10	1	-1E+10	1	-1E+10	1	-1E+10	1	-1E+10	1	-1E+10	1
4902549	67	C	06/18/2022	07:11	-131.249	47.592	0	1315.40	0	2.7260	0	34.4520	0	27.480	0	1300.301	0	11.2	4	3.4	4	-1E+10	1	-1E+10	1	-1E+10	1	-1E+10	1	-1E+10	1	-1E+10	1
4902549	67	C	06/18/2022	07:11	-131.249	47.592	0	1325.20	0	2.7150	0	34.4540	0	27.483	0	1309.958	0	11.5	4	3.5	4	-1E+10	1	-1E+10	1	-1E+10	1	-1E+10	1	-1E+10	1	-1E+10	1
4902549	67	C	06/18/2022	07:11	-131.249	47.592	0	1335.50	0	2.6940	0	34.4570	0	27.487	0	1320.108	0	12.0	4	3.7	4	-1E+10	1	-1E+10	1	-1E+10	1	-1E+10	1	-1E+10	1	-1E+10	1
4902549	67	C	06/18/2022	07:11	-131.249	47.592	0	1345.40	0	2.6760	0	34.4600	0	27.491	0	1329.862	0	12.4	4	3.8	4	-1E+10	1	-1E+10	1	-1E+10	1	-1E+10	1	-1E+10	1	-1E+10	1
4902549	67	C	06/18/2022	07:11	-131.249	47.592	0	1355.10	0	2.6550	0	34.4640	0	27.496	0	1339.420	0	12.9	4	3.9	4	-1E+10	1	-1E+10	1	-1E+10	1	-1E+10	1	-1E+10	1	-1E+10	1
4902549	67	C	06/18/2022	07:11	-131.249	47.592	0	1365.60	0	2.6390	0	34.4660	0	27.499	0	1349.765	0	13.3	4	4.1	4	-1E+10	1	-1E+10	1	-1E+10	1	-1E+10	1	-1E+10	1	-1E+10	1
4902549	67	C	06/18/2022	07:11	-131.249	47.592	0	1375.80	0	2.6150	0	34.4690	0	27.503	0	1359.813	0	13.7	4	4.2	4	-1E+10	1	-1E+10	1	-1E+10	1	-1E+10	1	-1E+10	1	-1E+10	1
4902549	67	C	06/18/2022	07:11	-131.249	47.592	0	1385.80	0	2.6010	0	34.4710	0	27.506	0	1369.665	0	14.0	4	4.3	4	-1E+10	1	-1E+10	1	-1E+10	1	-1E+10	1	-1E+10	1	-1E+10	1
4902549	67	C	06/18/2022	07:11	-131.249	47.592	0	1395.40	0	2.5910	0	34.4730	0	27.509	0	1379.122	0	14.3	4	4.4	4	-1E+10	1	-1E+10	1	-1E+10	1	-1E+10	1	-1E+10	1	-1E+10	1
4902549	67	C	06/18/2022	07:11	-131.249	47.592	0	1405.10	0	2.5820	0	34.4740	0	27.510	0	1388.677	0	14.5	4	4.4	4	-1E+10	1	-1E+10	1	-1E+10	1	-1E+10	1	-1E+10	1	-1E+10	1
4902549	67	C	06/18/2022	07:11	-131.249	47.592	0	1415.40	0	2.5740	0	34.4750	0	27.512	0	1398.822	0	14.8	4	4.5	4	-1E+10	1	-1E+10	1	-1E+10	1	-1E+10	1	-1E+10	1	-1E+10	1
4902549	67	C	06/18/2022	07:11	-131.249	47.592	0	1425.60	0	2.5600	0	34.4780	0	27.516	0	1408.869	0	15.1	4	4.6	4	-1E+10	1	-1E+10	1	-1E+10	1	-1E+10	1	-1E+10	1	-1E+10	1
4902549	67	C	06/18/2022	07:11	-131.249	47.592	0	1435.70	0	2.5510	0	34.4790	0	27.517	0	1418.816	0	15.4	4	4.7	4	-1E+10	1	-1E+10	1	-1E+10	1	-1E+10	1	-1E+10	1	-1E+10	1
4902549	67	C	06/18/2022	07:11	-131.249	47.592	0	1445.80	0	2.5420	0	34.4810	0	27.520	0	1428.763	0	15.8	4	4.8	4	-1E+10	1	-1E+10	1	-1E+10	1	-1E+10	1	-1E+10	1	-1E+10	1
4902549	67	C	06/18/2022	07:11	-131.249	47.592	0	1455.50	0	2.5280	0	34.4830	0	27.523	0	1438.316	0	16.3	4	5.0	4	-1E+10	1	-1E+10	1	-1E+10	1	-1E+10	1	-1E+10	1	-1E+10	1
4902549	67	C	06/18/2022	07:11	-131.249	47.592	0	1465.40	0	2.5080	0	34.4850	0	27.526	0	1448.065	0	16.8	4	5.1	4	-1E+10	1	-1E+10	1	-1E+10	1	-1E+10	1	-1E+10	1	-1E+10	1
4902549	67	C	06/18/2022	07:11	-131.249	47.592	0	1475.80	0	2.4920	0	34.4880	0	27.530	0	1458.306	0	17.3	4	5.3	4	-1E+10	1	-1E+10	1	-1E+10	1	-1E+10	1	-1E+10	1	-1E+10	1
4902549	67	C	06/18/2022	07:11	-131.249	47.592	0	1485.50	0	2.4800	0	34.4900	0	27.532	0	1467.857	0	17.9	4	5.4	4	-1E+10	1	-1E+10	1	-1E+10	1	-1E+10	1	-1E+10	1	-1E+10	1
4902549	67	C	06/18/2022	07:11	-131.249	47.592	0	1495.20	0	2.4600	0	34.4930	0	27.536	0	1477.408	0	18.6	4	5.7	4	-1E+10	1	-1E+10	1	-1E+10	1	-1E+10	1	-1E+10	1	-1E+10	1
4902549	67	C	06/18/2022	07:11	-131.249	47.592	0	1505.20	0	2.4400	0	34.4970	0	27.541	0	1487.254	0	19.2	4	5.8	4	-1E+10	1	-1E+10	1	-1E+10	1	-1E+10	1	-1E+10	1	-1E+10	1
4902549	67	C	06/18/2022	07:11	-131.249	47.592	0	1515.00	0	2.4330	0	34.4980	0	27.543	0	1496.903	0	19.7	4	6.0	4	-1E+10	1	-1E+10	1	-1E+10	1	-1E+10	1	-1E+10	1	-1E+10	1
4902549	67	C	06/18/2022	07:11	-131.249	47.592	0	1525.00	0	2.4200	0	34.5010	0	27.546	0	1506.748	0	20.3	4	6.2	4	-1E+10	1	-1E+10	1	-1E+10	1	-1E+10	1	-1E+10	1	-1E+10	1
4902549	67	C	06/18/2022	07:11	-131.249	47.592	0	1535.30	0	2.4100	0	34.5030	0	27.549	0	1516.887	0	20.8	4	6.3	4	-1E+10	1	-1E+10	1	-1E+10	1	-1E+10	1	-1E+10	1	-1E+10	1
4902549	67	C	06/18/2022	07:11	-131.249	47.592	0	1545.20	0	2.4060	0	34.5040	0	27.550	0	1526.633	0	21.3	4	6.5	4	-1E+10	1	-1E+10	1	-1E+10	1	-1E+10	1	-1E+10	1	-1E+10	1
4902549	67	C	06/18/2022	07:11	-131.249	47.592	0	1555.40	0	2.3980	0	34.5060	0	27.552	0	1536.673	0	21.9	4	6.7	4	-1E+10	1	-1E+10	1	-1E+10	1	-1E+10	1	-1E+10	1	-1E+10	1
4902549	67	C	06/18/2022	07:11	-131.249	47.592	0	1565.80	0	2.3810	0	34.5080	0	27.555	0	1546.910	0	22.7	4	6.9	4	-1E+10	1	-1E+10	1	-1E+10	1	-1E+10	1	-1E+10	1	-1E+10	1
4902549	67	C	06/18/2022	07:11	-131.249	47.592	0	1575.50	0	2.3590	0	34.5110	0	27.560	0	1556.458	0	23.4	4	7.1	4	-1E+10	1	-1E+10	1	-1E+10	1	-1E+10	1	-1E+10	1	-1E+10	1
4902549	67	C	06/18/2022	07:11	-131.249	47.592	0	1585.40	0	2.3430	0	34.5130	0	27.563	0	1566.201	0	24.0	4	7.3	4	-1E+10	1	-1E+10	1	-1E+10	1	-1E+10	1	-1E+10	1	-1E+10	1
4902549	67	C	06/18/2022	07:11	-131.249	47.592	0	1595.60	0	2.3320	0	34.5160	0	27.566	0	1576.240	0	24.7	4	7.5	4	-1E+10	1	-1E+10	1	-1E+10	1	-1E+10	1	-1E+10	1	-1E+10	1
4902549	67	C	06/18/2022	07:11	-131.249	47.592	0	1605.40	0	2.3170	0	34.5180	0	27.569	0	1585.884	0	25.1	4	7.6	4	-1E+10	1	-1E+10	1	-1E+10	1	-1E+10	1	-1E+10	1	-1E+10	1
4902549	67	C	06/18/2022	07:11	-131.249	47.592	0	1615.80	0	2.3060	0	34.5190	0	27.571	0	1596.119	0	25.4	4	7.7	4	-1E+10	1	-1E+10	1	-1E+10	1	-1E+10	1	-1E+10	1	-1E+10	1
4902549	67	C	06/18/2022	07:11	-131.249	47.592	0	1625.60	0	2.2930	0	34.5200	0	27.572	0	1605.762	0	25.9	4	7.9	4	-1E+10	1	-1E+10	1	-1E+10	1	-1E+10	1	-1E+10	1	-1E+10	1
4902549	67	C	06/18/2022	07:11	-131.249	47.592	0	1635.70	0	2.2810	0	34.5220	0	27.575	0	1615.700	0	26.4	4	8.0	4	-1E+10	1	-1E+10	1	-1E+10	1	-1E+10	1	-1E+10	1	-1E+10	1
4902549	67	C	06/18/2022	07:11	-131.249	47.592	0	1645.70	0	2.2640	0	34.5230	0	27.577	0	1625.540	0	27.0	4	8.2	4	-1E+10	1	-1E+10	1	-1E+10	1	-1E+10	1	-1E+10	1	-1E+10	1
4902549	67	C	06/18/2022	07:11	-131.249	47.592	0	1655.50	0	2.2430	0	34.5260	0	27.581	0	1635.182	0	27.7	4	8.4	4	-1E+10	1	-1E+10	1	-1E+10	1	-1E+10	1	-1E+10	1	-1E+10	1
4902549	67	C	06/18/2022	07:11	-131.249	47.592	0	1665.20	0	2.2380	0	34.5280	0	27.584	0	1644.725	0	28.4	4	8.6	4	-1E+10	1	-1E+10	1	-1E+10	1	-1E+10	1	-1E+10	1	-1E+10	1
4902549	67	C	06/18/2022	07:11	-131.249	47.592	0	1675.20	0	2.2240	0	34.5300	0	27.586	0	1654.563	0	29.2	4	8.8	4	-1E+10	1	-1E+10	1	-1E+10	1	-1E+10	1	-1E+10	1	-1E+10	1
4902549	67	C	06/18/2022	07:11	-131.249	47.592	0	1685.30	0	2.2100	0	34.5320	0	27.589	0	1664.499	0	29.7	4	9.0	4	-1E+10	1	-1E+10	1	-1E+10	1	-1E+10	1	-1E+10	1	-1E+10	1
4902549	67	C	06/18/2022	07:11	-131.249	47.592	0	1695.50	0	2.1970	0	34.5340	0	27.592	0	1674.533	0	30.4	4	9.2	4	-1E+10	1	-1E+10	1	-1E+10	1	-1E+10	1	-1E+10	1	-1E+10	1
4902549	67	C	06/18/2022	07:11	-131.249	47.592	0	1705.40	0	2.1820	0	34.5360	0	27.595	0	1684.271	0	31.1	4	9.4	4	-1E+10	1	-1E+10	1	-1E+10	1	-1E+10	1	-1E+10	1	-1E+10	1
4902549	67	C	06/18/2022	07:11	-131.249	47.592	0	1715.50	0	2.1730	0	34.5380	0	27.597	0	1694.206	0	31.6	4	9.6	4	-1E+10	1	-1E+10	1	-1E+10	1	-1E+10	1	-1E+10	1	-1E+10	1
4902549	67	C	06/18/2022	07:11	-131.249	47.592	0	1725.60	0	2.1660	0	34.5390	0	27.598	0	1704.140	0	32.3	4	9.8	4	-1E+10	1	-1E+10	1	-1E+10	1	-1E+10	1	-1E+10	1	-1E+10	1
4902549	67	C	06/18/2022	07:11	-131.249	47.592	0	1735.20	0	2.1560	0	34.5410	0	27.601	0	1713.582	0	32.8	4	9.9	4	-1E+10	1	-1E+10	1	-1E+10	1	-1E+10	1	-1E+10	1	-1E+10	1
4902549	67	C	06/18/2022	07:11	-131.249	47.592	0	1745.10	0	2.1510	0	34.5420	0	27.602	0	1723.318	0	33.3	4	10.1	4	-1E+10	1	-1E+10	1	-1E+10	1	-1E+10	1	-1E+10	1	-1E+10	1
4902549	67	C	06/18/2022	07:11	-131.249	47.592	0	1755.50	0	2.1450	0	34.5430	0	27.603	0	1733.546	0	34.0	4	10.3	4	-1E+10	1	-1E+10	1	-1E+10	1	-1E+10	1	-1E+10	1	-1E+10	1
4902549	67	C	06/18/2022	07:11	-131.249	47.592	0	1765.30	0	2.1350	0	34.5450	0	27.606	0	1743.183	0	34.8	4	10.5	4	-1E+10	1	-1E+10	1	-1E+10	1	-1E+10	1	-1E+10	1	-1E+10	1
4902549	67	C	06/18/2022	07:11	-131.249	47.592	0	1775.10	0	2.1210	0	34.5480	0	27.609	0	1752.820	0	35.3	4	10.7	4	-1E+10	1	-1E+10	1	-1E+10	1	-1E+10	1	-1E+10	1	-1E+10	1
4902549	67	C	06/18/2022	07:11	-131.249	47.592	0	1785.20	0	2.1160	0	34.5490	0	27.611	0	1762.751	0	35.8	4	10.8	4	-1E+10	1	-1E+10	1	-1E+10	1	-1E+10	1	-1E+10	1	-1E+10	1
4902549	67	C	06/18/2022	07:11	-131.249	47.592	0	1795.10	0	2.1090	0	34.5500	0	27.612	0	1772.486	0	36.6	4	11.1	4	-1E+10	1	-1E+10	1	-1E+10	1	-1E+10	1	-1E+10	1	-1E+10	1
4902549	67	C	06/18/2022	07:11	-131.249	47.592	0	1805.30	0	2.0960	0	34.5520	0	27.615	0	1782.514	0	37.3	4	11.3	4	-1E+10	1	-1E+10	1	-1E+10	1	-1E+10	1	-1E+10	1	-1E+10	1
4902549	67	C	06/18/2022	07:11	-131.249	47.592	0	1815.80	0	2.0880	0	34.5540	0	27.617	0	1792.838	0	38.0	4	11.5	4	-1E+10	1	-1E+10	1	-1E+10	1	-1E+10	1	-1E+10	1	-1E+10	1
4902549	67	C	06/18/2022	07:11	-131.249	47.592	0	1825.80	0	2.0780	0	34.5560	0	27.620	0	1802.669	0	38.8	4	11.7	4	-1E+10	1	-1E+10	1	-1E+10	1	-1E+10	1	-1E+10	1	-1E+10	1
4902549	67	C	06/18/2022	07:11	-131.249	47.592	0	1835.50	0	2.0690	0	34.5570	0	27.621	0	1812.204	0	39.6	4	11.9	4	-1E+10	1	-1E+10	1	-1E+10	1	-1E+10	1	-1E+10	1	-1E+10	1
4902549	67	C	06/18/2022	07:11	-131.249	47.592	0	1845.30	0	2.0610	0	34.5590	0	27.623	0	1821.838	0	40.3	4	12.2	4	-1E+10	1	-1E+10	1	-1E+10	1	-1E+10	1	-1E+10	1	-1E+10	1
4902549	67	C	06/18/2022	07:11	-131.249	47.592	0	1855.60	0	2.0500	0	34.5610	0	27.626	0	1831.963	0	41.1	4	12.4	4	-1E+10	1	-1E+10	1	-1E+10	1	-1E+10	1	-1E+10	1	-1E+10	1
4902549	67	C	06/18/2022	07:11	-131.249	47.592	0	1865.50	0	2.0410	0	34.5630	0	27.628	0	1841.694	0	41.8	4	12.6	4	-1E+10	1	-1E+10	1	-1E+10	1	-1E+10	1	-1E+10	1	-1E+10	1
4902549	67	C	06/18/2022	07:11	-131.249	47.592	0	1875.50	0	2.0330	0	34.5650	0	27.631	0	1851.523	0	42.3	4	12.8	4	-1E+10	1	-1E+10	1	-1E+10	1	-1E+10	1	-1E+10	1	-1E+10	1
4902549	67	C	06/18/2022	07:11	-131.249	47.592	0	1885.80	0	2.0280	0	34.5660	0	27.632	0	1861.646	0	42.9	4	13.0	4	-1E+10	1	-1E+10	1	-1E+10	1	-1E+10	1	-1E+10	1	-1E+10	1
4902549	67	C	06/18/2022	07:11	-131.249	47.592	0	1895.50	0	2.0220	0	34.5670	0	27.633	0	1871.179	0	43.5	4	13.1	4	-1E+10	1	-1E+10	1	-1E+10	1	-1E+10	1	-1E+10	1	-1E+10	1
4902549	67	C	06/18/2022	07:11	-131.249	47.592	0	1905.30	0	2.0150	0	34.5680	0	27.634	0	1880.810	0	44.3	4	13.4	4	-1E+10	1	-1E+10	1	-1E+10	1	-1E+10	1	-1E+10	1	-1E+10	1
4902549	67	C	06/18/2022	07:11	-131.249	47.592	0	1915.70	0	2.0050	0	34.5700	0	27.637	0	1891.030	0	45.0	4	13.6	4	-1E+10	1	-1E+10	1	-1E+10	1	-1E+10	1	-1E+10	1	-1E+10	1
4902549	67	C	06/18/2022	07:11	-131.249	47.592	0	1925.30	0	1.9940	0	34.5720	0	27.639	0	1900.464	0	45.9	4	13.8	4	-1E+10	1	-1E+10	1	-1E+10	1	-1E+10	1	-1E+10	1	-1E+10	1
4902549	67	C	06/18/2022	07:11	-131.249	47.592	0	1935.40	0	1.9810	0	34.5740	0	27.642	0	1910.388	0	46.8	4	14.1	4	-1E+10	1	-1E+10	1	-1E+10	1	-1E+10	1	-1E+10	1	-1E+10	1
4902549	67	C	06/18/2022	07:11	-131.249	47.592	0	1945.30	0	1.9740	0	34.5750	0	27.643	0	1920.116	0	47.2	4	14.2	4	-1E+10	1	-1E+10	1	-1E+10	1	-1E+10	1	-1E+10	1	-1E+10	1
4902549	67	C	06/18/2022	07:11	-131.249	47.592	0	1955.00	0	1.9690	0	34.5770	0	27.646	0	1929.646	0	47.7	4	14.4	4	-1E+10	1	-1E+10	1	-1E+10	1	-1E+10	1	-1E+10	1	-1E+10	1
4902549	67	C	06/18/2022	07:11	-131.249	47.592	0	1965.10	0	1.9640	0	34.5770	0	27.646	0	1939.569	0	48.4	4	14.6	4	-1E+10	1	-1E+10	1	-1E+10	1	-1E+10	1	-1E+10	1	-1E+10	1
4902549	67	C	06/18/2022	07:11	-131.249	47.592	0	1975.10	0	1.9560	0	34.5790	0	27.648	0	1949.394	0	48.9	4	14.7	4	-1E+10	1	-1E+10	1	-1E+10	1	-1E+10	1	-1E+10	1	-1E+10	1
4902549	67	C	06/18/2022	07:11	-131.249	47.592	0	1985.30	0	1.9500	0	34.5810	0	27.650	0	1959.414	0	49.0	4	14.7	4	-1E+10	1	-1E+10	1	-1E+10	1	-1E+10	1	-1E+10	1	-1E+10	1
4902549	67	C	06/18/2022	07:11	-131.249	47.592	0	1993.10	0	1.9470	0	34.5820	0	27.651	0	1967.076	0	48.2	4	14.5	4	-1E+10	1	-1E+10	1	-1E+10	1	-1E+10	1	-1E+10	1	-1E+10	1
4902549	67	C	06/18/2022	07:11	-131.249	47.592	0																										
4902549	68	C	06/28/2022	11:55	-131.022	47.411	0	0.10	0	12.4240	0	32.2000	0	24.336	0	0.099	0	-1e10	1	-1e10	1	-1E+10	1	-1E+10	1	-1E+10	1	-1E+10	1	-1E+10	1	-1E+10	1
4902549	68	C	06/28/2022	11:55	-131.022	47.411	0	0.20	0	12.4239	0	32.1999	0	24.336	0	0.198	0	263.4	4	98.9	4	-1E+10	1	-1E+10	1	-1E+10	1	-1E+10	1	-1E+10	1	-1E+10	1
4902549	68	C	06/28/2022	11:55	-131.022	47.411	0	1.00	0	12.4230	0	32.1990	0	24.336	0	0.992	0	263.4	4	99.0	4	-1E+10	1	-1E+10	1	-1E+10	1	-1E+10	1	-1E+10	1	-1E+10	1
4902549	68	C	06/28/2022	11:55	-131.022	47.411	0	1.90	0	12.4220	0	32.2020	0	24.338	0	1.884	0	263.3	4	98.9	4	-1E+10	1	-1E+10	1	-1E+10	1	-1E+10	1	-1E+10	1	-1E+10	1
4902549	68	C	06/28/2022	11:55	-131.022	47.411	0	2.80	0	12.4220	0	32.2020	0	24.338	0	2.777	0	263.4	4	99.0	4	-1E+10	1	-1E+10	1	-1E+10	1	-1E+10	1	-1E+10	1	-1E+10	1
4902549	68	C	06/28/2022	11:55	-131.022	47.411	0	3.70	0	12.4210	0	32.2050	0	24.341	0	3.669	0	263.5	4	99.0	4	-1E+10	1	-1E+10	1	-1E+10	1	-1E+10	1	-1E+10	1	-1E+10	1
4902549	68	C	06/28/2022	11:55	-131.022	47.411	0	5.00	0	12.4240	0	32.2040	0	24.339	0	4.958	0	263.4	4	99.0	4	-1E+10	1	-1E+10	1	-1E+10	1	-1E+10	1	-1E+10	1	-1E+10	1
4902549	68	C	06/28/2022	11:55	-131.022	47.411	0	6.10	0	12.4260	0	32.2030	0	24.338	0	6.049	0	263.4	4	99.0	4	-1E+10	1	-1E+10	1	-1E+10	1	-1E+10	1	-1E+10	1	-1E+10	1
4902549	68	C	06/28/2022	11:55	-131.022	47.411	0	6.90	0	12.4260	0	32.2040	0	24.339	0	6.842	0	263.3	4	98.9	4	-1E+10	1	-1E+10	1	-1E+10	1	-1E+10	1	-1E+10	1	-1E+10	1
4902549	68	C	06/28/2022	11:55	-131.022	47.411	0	7.70	0	12.4260	0	32.2040	0	24.339	0	7.636	0	263.4	4	99.0	4	-1E+10	1	-1E+10	1	-1E+10	1	-1E+10	1	-1E+10	1	-1E+10	1
4902549	68	C	06/28/2022	11:55	-131.022	47.411	0	8.90	0	12.4240	0	32.2030	0	24.339	0	8.826	0	263.5	4	99.0	4	-1E+10	1	-1E+10	1	-1E+10	1	-1E+10	1	-1E+10	1	-1E+10	1
4902549	68	C	06/28/2022	11:55	-131.022	47.411	0	10.10	0	12.4260	0	32.2040	0	24.339	0	10.016	0	263.5	4	99.0	4	-1E+10	1	-1E+10	1	-1E+10	1	-1E+10	1	-1E+10	1	-1E+10	1
4902549	68	C	06/28/2022	11:55	-131.022	47.411	0	10.90	0	12.4250	0	32.2040	0	24.339	0	10.809	0	263.5	4	99.0	4	-1E+10	1	-1E+10	1	-1E+10	1	-1E+10	1	-1E+10	1	-1E+10	1
4902549	68	C	06/28/2022	11:55	-131.022	47.411	0	11.70	0	12.4260	0	32.2040	0	24.339	0	11.602	0	263.5	4	99.0	4	-1E+10	1	-1E+10	1	-1E+10	1	-1E+10	1	-1E+10	1	-1E+10	1
4902549	68	C	06/28/2022	11:55	-131.022	47.411	0	12.50	0	12.4250	0	32.2040	0	24.339	0	12.395	0	263.6	4	99.1	4	-1E+10	1	-1E+10	1	-1E+10	1	-1E+10	1	-1E+10	1	-1E+10	1
4902549	68	C	06/28/2022	11:55	-131.022	47.411	0	13.90	0	12.4240	0	32.2040	0	24.340	0	13.784	0	263.7	4	99.1	4	-1E+10	1	-1E+10	1	-1E+10	1	-1E+10	1	-1E+10	1	-1E+10	1
4902549	68	C	06/28/2022	11:55	-131.022	47.411	0	15.10	0	12.4220	0	32.2050	0	24.341	0	14.974	0	264.0	4	99.2	4	-1E+10	1	-1E+10	1	-1E+10	1	-1E+10	1	-1E+10	1	-1E+10	1
4902549	68	C	06/28/2022	11:55	-131.022	47.411	0	16.00	0	12.4210	0	32.2040	0	24.340	0	15.866	0	263.9	4	99.1	4	-1E+10	1	-1E+10	1	-1E+10	1	-1E+10	1	-1E+10	1	-1E+10	1
4902549	68	C	06/28/2022	11:55	-131.022	47.411	0	17.20	0	12.4280	0	32.2040	0	24.339	0	17.056	0	264.0	4	99.2	4	-1E+10	1	-1E+10	1	-1E+10	1	-1E+10	1	-1E+10	1	-1E+10	1
4902549	68	C	06/28/2022	11:55	-131.022	47.411	0	17.90	0	12.4230	0	32.2050	0	24.341	0	17.750	0	264.2	4	99.3	4	-1E+10	1	-1E+10	1	-1E+10	1	-1E+10	1	-1E+10	1	-1E+10	1
4902549	68	C	06/28/2022	11:55	-131.022	47.411	0	19.10	0	12.4230	0	32.2030	0	24.339	0	18.940	0	264.4	4	99.4	4	-1E+10	1	-1E+10	1	-1E+10	1	-1E+10	1	-1E+10	1	-1E+10	1
4902549	68	C	06/28/2022	11:55	-131.022	47.411	0	20.10	0	12.4210	0	32.2020	0	24.339	0	19.931	0	264.6	4	99.4	4	-1E+10	1	-1E+10	1	-1E+10	1	-1E+10	1	-1E+10	1	-1E+10	1
4902549	68	C	06/28/2022	11:55	-131.022	47.411	0	20.90	0	12.4180	0	32.2030	0	24.340	0	20.725	0	264.9	4	99.5	4	-1E+10	1	-1E+10	1	-1E+10	1	-1E+10	1	-1E+10	1	-1E+10	1
4902549	68	C	06/28/2022	11:55	-131.022	47.411	0	21.70	0	12.4020	0	32.1980	0	24.339	0	21.518	0	265.3	4	99.6	4	-1E+10	1	-1E+10	1	-1E+10	1	-1E+10	1	-1E+10	1	-1E+10	1
4902549	68	C	06/28/2022	11:55	-131.022	47.411	0	22.80	0	12.3910	0	32.1990	0	24.342	0	22.609	0	266.1	4	99.9	4	-1E+10	1	-1E+10	1	-1E+10	1	-1E+10	1	-1E+10	1	-1E+10	1
4902549	68	C	06/28/2022	11:55	-131.022	47.411	0	24.00	0	12.3080	0	32.2020	0	24.360	0	23.799	0	267.5	4	100.3	4	-1E+10	1	-1E+10	1	-1E+10	1	-1E+10	1	-1E+10	1	-1E+10	1
4902549	68	C	06/28/2022	11:55	-131.022	47.411	0	25.00	0	12.2330	0	32.2000	0	24.373	0	24.790	0	269.1	4	100.7	4	-1E+10	1	-1E+10	1	-1E+10	1	-1E+10	1	-1E+10	1	-1E+10	1
4902549	68	C	06/28/2022	11:55	-131.022	47.411	0	26.00	0	11.8150	0	32.2050	0	24.454	0	25.782	0	272.7	4	101.2	4	-1E+10	1	-1E+10	1	-1E+10	1	-1E+10	1	-1E+10	1	-1E+10	1
4902549	68	C	06/28/2022	11:55	-131.022	47.411	0	27.00	0	11.1860	0	32.1970	0	24.562	0	26.773	0	275.6	4	100.9	4	-1E+10	1	-1E+10	1	-1E+10	1	-1E+10	1	-1E+10	1	-1E+10	1
4902549	68	C	06/28/2022	11:55	-131.022	47.411	0	28.00	0	10.7970	0	32.1990	0	24.632	0	27.765	0	276.9	4	100.5	4	-1E+10	1	-1E+10	1	-1E+10	1	-1E+10	1	-1E+10	1	-1E+10	1
4902549	68	C	06/28/2022	11:55	-131.022	47.411	0	28.90	0	10.6960	0	32.1920	0	24.644	0	28.657	0	276.9	4	100.3	4	-1E+10	1	-1E+10	1	-1E+10	1	-1E+10	1	-1E+10	1	-1E+10	1
4902549	68	C	06/28/2022	11:55	-131.022	47.411	0	29.90	0	10.5550	0	32.1980	0	24.672	0	29.649	0	277.1	4	100.1	4	-1E+10	1	-1E+10	1	-1E+10	1	-1E+10	1	-1E+10	1	-1E+10	1
4902549	68	C	06/28/2022	11:55	-131.022	47.411	0	31.00	0	10.5270	0	32.1960	0	24.676	0	30.739	0	276.6	4	99.8	4	-1E+10	1	-1E+10	1	-1E+10	1	-1E+10	1	-1E+10	1	-1E+10	1
4902549	68	C	06/28/2022	11:55	-131.022	47.411	0	31.80	0	10.4310	0	32.2040	0	24.698	0	31.532	0	276.5	4	99.6	4	-1E+10	1	-1E+10	1	-1E+10	1	-1E+10	1	-1E+10	1	-1E+10	1
4902549	68	C	06/28/2022	11:55	-131.022	47.411	0	32.70	0	10.3120	0	32.1950	0	24.711	0	32.425	0	276.6	4	99.4	4	-1E+10	1	-1E+10	1	-1E+10	1	-1E+10	1	-1E+10	1	-1E+10	1
4902549	68	C	06/28/2022	11:55	-131.022	47.411	0	33.80	0	10.2200	0	32.1960	0	24.728	0	33.515	0	276.9	4	99.3	4	-1E+10	1	-1E+10	1	-1E+10	1	-1E+10	1	-1E+10	1	-1E+10	1
4902549	68	C	06/28/2022	11:55	-131.022	47.411	0	34.80	0	10.1510	0	32.1990	0	24.741	0	34.507	0	276.9	4	99.1	4	-1E+10	1	-1E+10	1	-1E+10	1	-1E+10	1	-1E+10	1	-1E+10	1
4902549	68	C	06/28/2022	11:55	-131.022	47.411	0	35.90	0	10.0300	0	32.2030	0	24.765	0	35.598	0	277.3	4	99.1	4	-1E+10	1	-1E+10	1	-1E+10	1	-1E+10	1	-1E+10	1	-1E+10	1
4902549	68	C	06/28/2022	11:55	-131.022	47.411	0	37.00	0	9.9250	0	32.2050	0	24.784	0	36.688	0	277.5	4	98.9	4	-1E+10	1	-1E+10	1	-1E+10	1	-1E+10	1	-1E+10	1	-1E+10	1
4902549	68	C	06/28/2022	11:55	-131.022	47.411	0	38.00	0	9.7590	0	32.2230	0	24.825	0	37.680	0	277.8	4	98.6	4	-1E+10	1	-1E+10	1	-1E+10	1	-1E+10	1	-1E+10	1	-1E+10	1
4902549	68	C	06/28/2022	11:55	-131.022	47.411	0	39.00	0	9.7340	0	32.2250	0	24.830	0	38.671	0	277.4	4	98.4	4	-1E+10	1	-1E+10	1	-1E+10	1	-1E+10	1	-1E+10	1	-1E+10	1
4902549	68	C	06/28/2022	11:55	-131.022	47.411	0	39.80	0	9.7260	0	32.2230	0	24.830	0	39.464	0	276.8	4	98.2	4	-1E+10	1	-1E+10	1	-1E+10	1	-1E+10	1	-1E+10	1	-1E+10	1
4902549	68	C	06/28/2022	11:55	-131.022	47.411	0	41.00	0	9.5970	0	32.2420	0	24.866	0	40.654	0	276.6	4	97.9	4	-1E+10	1	-1E+10	1	-1E+10	1	-1E+10	1	-1E+10	1	-1E+10	1
4902549	68	C	06/28/2022	11:55	-131.022	47.411	0	42.00	0	9.4730	0	32.2380	0	24.883	0	41.646	0	276.8	4	97.7	4	-1E+10	1	-1E+10	1	-1E+10	1	-1E+10	1	-1E+10	1	-1E+10	1
4902549	68	C	06/28/2022	11:55	-131.022	47.411	0	42.90	0	9.4190	0	32.2440	0	24.896	0	42.538	0	276.5	4	97.5	4	-1E+10	1	-1E+10	1	-1E+10	1	-1E+10	1	-1E+10	1	-1E+10	1
4902549	68	C	06/28/2022	11:55	-131.022	47.411	0	43.90	0	9.3330	0	32.2480	0	24.913	0	43.529	0	276.2	4	97.2	4	-1E+10	1	-1E+10	1	-1E+10	1	-1E+10	1	-1E+10	1	-1E+10	1
4902549	68	C	06/28/2022	11:55	-131.022	47.411	0	44.90	0	9.2790	0	32.2440	0	24.918	0	44.521	0	276.0	4	97.0	4	-1E+10	1	-1E+10	1	-1E+10	1	-1E+10	1	-1E+10	1	-1E+10	1
4902549	68	C	06/28/2022	11:55	-131.022	47.411	0	46.10	0	9.2260	0	32.2450	0	24.927	0	45.711	0	275.9	4	96.9	4	-1E+10	1	-1E+10	1	-1E+10	1	-1E+10	1	-1E+10	1	-1E+10	1
4902549	68	C	06/28/2022	11:55	-131.022	47.411	0	47.00	0	9.1980	0	32.2450	0	24.932	0	46.603	0	275.6	4	96.7	4	-1E+10	1	-1E+10	1	-1E+10	1	-1E+10	1	-1E+10	1	-1E+10	1
4902549	68	C	06/28/2022	11:55	-131.022	47.411	0	48.00	0	9.1550	0	32.2490	0	24.942	0	47.594	0	275.4	4	96.5	4	-1E+10	1	-1E+10	1	-1E+10	1	-1E+10	1	-1E+10	1	-1E+10	1
4902549	68	C	06/28/2022	11:55	-131.022	47.411	0	49.00	0	9.0750	0	32.2540	0	24.958	0	48.586	0	275.2	4	96.3	4	-1E+10	1	-1E+10	1	-1E+10	1	-1E+10	1	-1E+10	1	-1E+10	1
4902549	68	C	06/28/2022	11:55	-131.022	47.411	0	50.00	0	9.0640	0	32.2530	0	24.959	0	49.577	0	275.0	4	96.2	4	-1E+10	1	-1E+10	1	-1E+10	1	-1E+10	1	-1E+10	1	-1E+10	1
4902549	68	C	06/28/2022	11:55	-131.022	47.411	0	51.00	0	9.0490	0	32.2530	0	24.961	0	50.569	0	274.7	4	96.1	4	-1E+10	1	-1E+10	1	-1E+10	1	-1E+10	1	-1E+10	1	-1E+10	1
4902549	68	C	06/28/2022	11:55	-131.022	47.411	0	52.10	0	9.0270	0	32.2540	0	24.965	0	51.659	0	274.2	4	95.8	4	-1E+10	1	-1E+10	1	-1E+10	1	-1E+10	1	-1E+10	1	-1E+10	1
4902549	68	C	06/28/2022	11:55	-131.022	47.411	0	53.00	0	9.0000	0	32.2540	0	24.970	0	52.551	0	273.8	4	95.6	4	-1E+10	1	-1E+10	1	-1E+10	1	-1E+10	1	-1E+10	1	-1E+10	1
4902549	68	C	06/28/2022	11:55	-131.022	47.411	0	54.00	0	8.9540	0	32.2570	0	24.979	0	53.543	0	273.5	4	95.4	4	-1E+10	1	-1E+10	1	-1E+10	1	-1E+10	1	-1E+10	1	-1E+10	1
4902549	68	C	06/28/2022	11:55	-131.022	47.411	0	55.00	0	8.8750	0	32.2580	0	24.992	0	54.534	0	273.6	4	95.3	4	-1E+10	1	-1E+10	1	-1E+10	1	-1E+10	1	-1E+10	1	-1E+10	1
4902549	68	C	06/28/2022	11:55	-131.022	47.411	0	56.20	0	8.8070	0	32.2590	0	25.003	0	55.724	0	273.9	4	95.3	4	-1E+10	1	-1E+10	1	-1E+10	1	-1E+10	1	-1E+10	1	-1E+10	1
4902549	68	C	06/28/2022	11:55	-131.022	47.411	0	56.90	0	8.7860	0	32.2590	0	25.006	0	56.418	0	273.8	4	95.2	4	-1E+10	1	-1E+10	1	-1E+10	1	-1E+10	1	-1E+10	1	-1E+10	1
4902549	68	C	06/28/2022	11:55	-131.022	47.411	0	58.10	0	8.7600	0	32.2610	0	25.012	0	57.607	0	273.9	4	95.2	4	-1E+10	1	-1E+10	1	-1E+10	1	-1E+10	1	-1E+10	1	-1E+10	1
4902549	68	C	06/28/2022	11:55	-131.022	47.411	0	59.00	0	8.7230	0	32.2650	0	25.021	0	58.500	0	273.8	4	95.1	4	-1E+10	1	-1E+10	1	-1E+10	1	-1E+10	1	-1E+10	1	-1E+10	1
4902549	68	C	06/28/2022	11:55	-131.022	47.411	0	60.30	0	8.6960	0	32.2710	0	25.030	0	59.788	0	273.3	4	94.8	4	-1E+10	1	-1E+10	1	-1E+10	1	-1E+10	1	-1E+10	1	-1E+10	1
4902549	68	C	06/28/2022	11:55	-131.022	47.411	0	61.20	0	8.6880	0	32.2700	0	25.030	0	60.681	0	272.6	4	94.6	4	-1E+10	1	-1E+10	1	-1E+10	1	-1E+10	1	-1E+10	1	-1E+10	1
4902549	68	C	06/28/2022	11:55	-131.022	47.411	0	62.10	0	8.6660	0	32.2730	0	25.036	0	61.573	0	272.2	4	94.4	4	-1E+10	1	-1E+10	1	-1E+10	1	-1E+10	1	-1E+10	1	-1E+10	1
4902549	68	C	06/28/2022	11:55	-131.022	47.411	0	63.00	0	8.6150	0	32.2720	0	25.043	0	62.465	0	272.0	4	94.2	4	-1E+10	1	-1E+10	1	-1E+10	1	-1E+10	1	-1E+10	1	-1E+10	1
4902549	68	C	06/28/2022	11:55	-131.022	47.411	0	64.10	0	8.5660	0	32.2740	0	25.052	0	63.556	0	271.4	4	93.9	4	-1E+10	1	-1E+10	1	-1E+10	1	-1E+10	1	-1E+10	1	-1E+10	1
4902549	68	C	06/28/2022	11:55	-131.022	47.411	0	65.30	0	8.5030	0	32.2810	0	25.067	0	64.745	0	270.7	4	93.5	4	-1E+10	1	-1E+10	1	-1E+10	1	-1E+10	1	-1E+10	1	-1E+10	1
4902549	68	C	06/28/2022	11:55	-131.022	47.411	0	66.00	0	8.4970	0	32.2790	0	25.066	0	65.439	0	269.9	4	93.2	4	-1E+10	1	-1E+10	1	-1E+10	1	-1E+10	1	-1E+10	1	-1E+10	1
4902549	68	C	06/28/2022	11:55	-131.022	47.411	0	66.90	0	8.4840	0	32.2820	0	25.070	0	66.331	0	268.4	4	92.7	4	-1E+10	1	-1E+10	1	-1E+10	1	-1E+10	1	-1E+10	1	-1E+10	1
4902549	68	C	06/28/2022	11:55	-131.022	47.411	0	67.90	0	8.4520	0	32.2800	0	25.073	0	67.323	0	267.2	4	92.2	4	-1E+10	1	-1E+10	1	-1E+10	1	-1E+10	1	-1E+10	1	-1E+10	1
4902549	68	C	06/28/2022	11:55	-131.022	47.411	0	68.80	0	8.4270	0	32.2800	0	25.077	0	68.215	0	265.6	4	91.6	4	-1E+10	1	-1E+10	1	-1E+10	1	-1E+10	1	-1E+10	1	-1E+10	1
4902549	68	C	06/28/2022	11:55	-131.022	47.411	0	69.80	0	8.3930	0	32.2810	0	25.083	0	69.206	0	264.2	4	91.1	4	-1E+10	1	-1E+10	1	-1E+10	1	-1E+10	1	-1E+10	1	-1E+10	1
4902549	68	C	06/28/2022	11:55	-131.022	47.411	0	70.80	0	8.3500	0	32.2810	0	25.089	0	70.198	0	263.0	4	90.6	4	-1E+10	1	-1E+10	1	-1E+10	1	-1E+10	1	-1E+10	1	-1E+10	1
4902549	68	C	06/28/2022	11:55	-131.022	47.411	0	71.90	0	8.2950	0	32.2880	0	25.103	0	71.288	0	261.7	4	90.0	4	-1E+10	1	-1E+10	1	-1E+10	1	-1E+10	1	-1E+10	1	-1E+10	1
4902549	68	C	06/28/2022	11:55	-131.022	47.411	0	73.10	0	8.2490	0	32.2920	0	25.113	0	72.478	0	259.9	4	89.3	4	-1E+10	1	-1E+10	1	-1E+10	1	-1E+10	1	-1E+10	1	-1E+10	1
4902549	68	C	06/28/2022	11:55	-131.022	47.411	0	73.80	0	8.2300	0	32.2970	0	25.120	0	73.172	0	258.7	4	88.9	4	-1E+10	1	-1E+10	1	-1E+10	1	-1E+10	1	-1E+10	1	-1E+10	1
4902549	68	C	06/28/2022	11:55	-131.022	47.411	0	74.90	0	8.2070	0	32.3070	0	25.131	0	74.262	0	257.1	4	88.3	4	-1E+10	1	-1E+10	1	-1E+10	1	-1E+10	1	-1E+10	1	-1E+10	1
4902549	68	C	06/28/2022	11:55	-131.022	47.411	0	75.90	0	8.1420	0	32.3230	0	25.153	0	75.253	0	256.1	4	87.8	4	-1E+10	1	-1E+10	1	-1E+10	1	-1E+10	1	-1E+10	1	-1E+10	1
4902549	68	C	06/28/2022	11:55	-131.022	47.411	0	76.90	0	8.1120	0	32.3290	0	25.162	0	76.245	0	254.9	4	87.4	4	-1E+10	1	-1E+10	1	-1E+10	1	-1E+10	1	-1E+10	1	-1E+10	1
4902549	68	C	06/28/2022	11:55	-131.022	47.411	0	78.00	0	8.0560	0	32.3440	0	25.182	0	77.335	0	253.7	4	86.8	4	-1E+10	1	-1E+10	1	-1E+10	1	-1E+10	1	-1E+10	1	-1E+10	1
4902549	68	C	06/28/2022	11:55	-131.022	47.411	0	79.10	0	7.9720	0	32.3670	0	25.212	0	78.425	0	253.0	4	86.5	4	-1E+10	1	-1E+10	1	-1E+10	1	-1E+10	1	-1E+10	1	-1E+10	1
4902549	68	C	06/28/2022	11:55	-131.022	47.411	0	80.00	0	7.9380	0	32.3780	0	25.225	0	79.318	0	252.4	4	86.2	4	-1E+10	1	-1E+10	1	-1E+10	1	-1E+10	1	-1E+10	1	-1E+10	1
4902549	68	C	06/28/2022	11:55	-131.022	47.411	0	80.90	0	7.8480	0	32.3870	0	25.245	0	80.210	0	251.9	4	85.8	4	-1E+10	1	-1E+10	1	-1E+10	1	-1E+10	1	-1E+10	1	-1E+10	1
4902549	68	C	06/28/2022	11:55	-131.022	47.411	0	82.00	0	7.8300	0	32.3890	0	25.250	0	81.300	0	250.5	4	85.3	4	-1E+10	1	-1E+10	1	-1E+10	1	-1E+10	1	-1E+10	1	-1E+10	1
4902549	68	C	06/28/2022	11:55	-131.022	47.411	0	83.00	0	7.8130	0	32.3940	0	25.256	0	82.291	0	255.2	4	86.9	4	-1E+10	1	-1E+10	1	-1E+10	1	-1E+10	1	-1E+10	1	-1E+10	1
4902549	68	C	06/28/2022	11:55	-131.022	47.411	0	83.90	0	7.7790	0	32.4050	0	25.269	0	83.184	0	253.7	4	86.3	4	-1E+10	1	-1E+10	1	-1E+10	1	-1E+10	1	-1E+10	1	-1E+10	1
4902549	68	C	06/28/2022	11:55	-131.022	47.411	0	85.00	0	7.7530	0	32.4210	0	25.286	0	84.274	0	251.8	4	85.6	4	-1E+10	1	-1E+10	1	-1E+10	1	-1E+10	1	-1E+10	1	-1E+10	1
4902549	68	C	06/28/2022	11:55	-131.022	47.411	0	86.00	0	7.7370	0	32.4310	0	25.296	0	85.265	0	249.0	4	84.7	4	-1E+10	1	-1E+10	1	-1E+10	1	-1E+10	1	-1E+10	1	-1E+10	1
4902549	68	C	06/28/2022	11:55	-131.022	47.411	0	86.90	0	7.7130	0	32.4680	0	25.328	0	86.157	0	247.0	4	84.0	4	-1E+10	1	-1E+10	1	-1E+10	1	-1E+10	1	-1E+10	1	-1E+10	1
4902549	68	C	06/28/2022	11:55	-131.022	47.411	0	88.10	0	7.7270	0	32.4900	0	25.344	0	87.347	0	244.4	4	83.1	4	-1E+10	1	-1E+10	1	-1E+10	1	-1E+10	1	-1E+10	1	-1E+10	1
4902549	68	C	06/28/2022	11:55	-131.022	47.411	0	89.10	0	7.7290	0	32.5040	0	25.354	0	88.338	0	242.4	4	82.5	4	-1E+10	1	-1E+10	1	-1E+10	1	-1E+10	1	-1E+10	1	-1E+10	1
4902549	68	C	06/28/2022	11:55	-131.022	47.411	0	89.80	0	7.7220	0	32.5370	0	25.381	0	89.032	0	241.5	4	82.2	4	-1E+10	1	-1E+10	1	-1E+10	1	-1E+10	1	-1E+10	1	-1E+10	1
4902549	68	C	06/28/2022	11:55	-131.022	47.411	0	91.00	0	7.6870	0	32.5760	0	25.417	0	90.221	0	241.1	4	82.0	4	-1E+10	1	-1E+10	1	-1E+10	1	-1E+10	1	-1E+10	1	-1E+10	1
4902549	68	C	06/28/2022	11:55	-131.022	47.411	0	92.20	0	7.6630	0	32.5840	0	25.426	0	91.411	0	240.6	4	81.8	4	-1E+10	1	-1E+10	1	-1E+10	1	-1E+10	1	-1E+10	1	-1E+10	1
4902549	68	C	06/28/2022	11:55	-131.022	47.411	0	93.00	0	7.6580	0	32.5840	0	25.427	0	92.204	0	240.2	4	81.6	4	-1E+10	1	-1E+10	1	-1E+10	1	-1E+10	1	-1E+10	1	-1E+10	1
4902549	68	C	06/28/2022	11:55	-131.022	47.411	0	94.20	0	7.6530	0	32.5840	0	25.428	0	93.393	0	239.2	4	81.3	4	-1E+10	1	-1E+10	1	-1E+10	1	-1E+10	1	-1E+10	1	-1E+10	1
4902549	68	C	06/28/2022	11:55	-131.022	47.411	0	95.00	0	7.5920	0	32.5880	0	25.440	0	94.186	0	238.3	4	80.9	4	-1E+10	1	-1E+10	1	-1E+10	1	-1E+10	1	-1E+10	1	-1E+10	1
4902549	68	C	06/28/2022	11:55	-131.022	47.411	0	96.00	0	7.4250	0	32.6110	0	25.481	0	95.177	0	237.0	4	80.1	4	-1E+10	1	-1E+10	1	-1E+10	1	-1E+10	1	-1E+10	1	-1E+10	1
4902549	68	C	06/28/2022	11:55	-131.022	47.411	0	97.00	0	7.3910	0	32.6240	0	25.496	0	96.169	0	235.3	4	79.5	4	-1E+10	1	-1E+10	1	-1E+10	1	-1E+10	1	-1E+10	1	-1E+10	1
4902549	68	C	06/28/2022	11:55	-131.022	47.411	0	98.10	0	7.3320	0	32.6600	0	25.532	0	97.259	0	233.3	4	78.8	4	-1E+10	1	-1E+10	1	-1E+10	1	-1E+10	1	-1E+10	1	-1E+10	1
4902549	68	C	06/28/2022	11:55	-131.022	47.411	0	99.00	0	7.2890	0	32.6870	0	25.559	0	98.151	0	232.2	4	78.3	4	-1E+10	1	-1E+10	1	-1E+10	1	-1E+10	1	-1E+10	1	-1E+10	1
4902549	68	C	06/28/2022	11:55	-131.022	47.411	0	99.80	0	7.2860	0	32.6980	0	25.568	0	98.944	0	230.6	4	77.8	4	-1E+10	1	-1E+10	1	-1E+10	1	-1E+10	1	-1E+10	1	-1E+10	1
4902549	68	C	06/28/2022	11:55	-131.022	47.411	0	101.00	0	7.2790	0	32.7420	0	25.604	0	100.133	0	228.8	4	77.2	4	-1E+10	1	-1E+10	1	-1E+10	1	-1E+10	1	-1E+10	1	-1E+10	1
4902549	68	C	06/28/2022	11:55	-131.022	47.411	0	102.10	0	7.2630	0	32.7690	0	25.628	0	101.224	0	227.2	4	76.6	4	-1E+10	1	-1E+10	1	-1E+10	1	-1E+10	1	-1E+10	1	-1E+10	1
4902549	68	C	06/28/2022	11:55	-131.022	47.411	0	103.10	0	7.2160	0	32.7870	0	25.648	0	102.215	0	225.6	4	76.0	4	-1E+10	1	-1E+10	1	-1E+10	1	-1E+10	1	-1E+10	1	-1E+10	1
4902549	68	C	06/28/2022	11:55	-131.022	47.411	0	104.00	0	7.1950	0	32.7940	0	25.656	0	103.107	0	223.6	4	75.3	4	-1E+10	1	-1E+10	1	-1E+10	1	-1E+10	1	-1E+10	1	-1E+10	1
4902549	68	C	06/28/2022	11:55	-131.022	47.411	0	104.90	0	7.1550	0	32.8100	0	25.675	0	103.999	0	220.8	4	74.3	4	-1E+10	1	-1E+10	1	-1E+10	1	-1E+10	1	-1E+10	1	-1E+10	1
4902549	68	C	06/28/2022	11:55	-131.022	47.411	0	106.00	0	7.0620	0	32.8500	0	25.719	0	105.089	0	217.6	4	73.1	4	-1E+10	1	-1E+10	1	-1E+10	1	-1E+10	1	-1E+10	1	-1E+10	1
4902549	68	C	06/28/2022	11:55	-131.022	47.411	0	107.10	0	7.0290	0	32.8890	0	25.754	0	106.179	0	213.8	4	71.8	4	-1E+10	1	-1E+10	1	-1E+10	1	-1E+10	1	-1E+10	1	-1E+10	1
4902549	68	C	06/28/2022	11:55	-131.022	47.411	0	107.80	0	7.0190	0	32.9120	0	25.773	0	106.873	0	211.1	4	70.9	4	-1E+10	1	-1E+10	1	-1E+10	1	-1E+10	1	-1E+10	1	-1E+10	1
4902549	68	C	06/28/2022	11:55	-131.022	47.411	0	108.90	0	7.0110	0	32.9300	0	25.788	0	107.964	0	206.4	4	69.3	4	-1E+10	1	-1E+10	1	-1E+10	1	-1E+10	1	-1E+10	1	-1E+10	1
4902549	68	C	06/28/2022	11:55	-131.022	47.411	0	110.10	0	7.0290	0	32.9870	0	25.831	0	109.153	0	200.7	4	67.4	4	-1E+10	1	-1E+10	1	-1E+10	1	-1E+10	1	-1E+10	1	-1E+10	1
4902549	68	C	06/28/2022	11:55	-131.022	47.411	0	110.90	0	7.0930	0	33.0430	0	25.866	0	109.946	0	197.1	4	66.3	4	-1E+10	1	-1E+10	1	-1E+10	1	-1E+10	1	-1E+10	1	-1E+10	1
4902549	68	C	06/28/2022	11:55	-131.022	47.411	0	112.30	0	7.2060	0	33.1190	0	25.911	0	111.333	0	191.6	4	64.7	4	-1E+10	1	-1E+10	1	-1E+10	1	-1E+10	1	-1E+10	1	-1E+10	1
4902549	68	C	06/28/2022	11:55	-131.022	47.411	0	113.00	0	7.2630	0	33.1500	0	25.927	0	112.027	0	189.6	4	64.1	4	-1E+10	1	-1E+10	1	-1E+10	1	-1E+10	1	-1E+10	1	-1E+10	1
4902549	68	C	06/28/2022	11:55	-131.022	47.411	0	114.00	0	7.3080	0	33.2010	0	25.961	0	113.018	0	187.3	4	63.4	4	-1E+10	1	-1E+10	1	-1E+10	1	-1E+10	1	-1E+10	1	-1E+10	1
4902549	68	C	06/28/2022	11:55	-131.022	47.411	0	115.20	0	7.3260	0	33.2180	0	25.972	0	114.208	0	184.3	4	62.5	4	-1E+10	1	-1E+10	1	-1E+10	1	-1E+10	1	-1E+10	1	-1E+10	1
4902549	68	C	06/28/2022	11:55	-131.022	47.411	0	116.00	0	7.3360	0	33.2260	0	25.977	0	115.000	0	182.3	4	61.8	4	-1E+10	1	-1E+10	1	-1E+10	1	-1E+10	1	-1E+10	1	-1E+10	1
4902549	68	C	06/28/2022	11:55	-131.022	47.411	0	117.00	0	7.3430	0	33.2510	0	25.996	0	115.992	0	179.5	4	60.9	4	-1E+10	1	-1E+10	1	-1E+10	1	-1E+10	1	-1E+10	1	-1E+10	1
4902549	68	C	06/28/2022	11:55	-131.022	47.411	0	117.90	0	7.4320	0	33.3310	0	26.046	0	116.884	0	177.5	4	60.4	4	-1E+10	1	-1E+10	1	-1E+10	1	-1E+10	1	-1E+10	1	-1E+10	1
4902549	68	C	06/28/2022	11:55	-131.022	47.411	0	118.80	0	7.4490	0	33.3460	0	26.056	0	117.776	0	176.3	4	60.0	4	-1E+10	1	-1E+10	1	-1E+10	1	-1E+10	1	-1E+10	1	-1E+10	1
4902549	68	C	06/28/2022	11:55	-131.022	47.411	0	120.00	0	7.4390	0	33.3610	0	26.069	0	118.965	0	174.7	4	59.4	4	-1E+10	1	-1E+10	1	-1E+10	1	-1E+10	1	-1E+10	1	-1E+10	1
4902549	68	C	06/28/2022	11:55	-131.022	47.411	0	121.00	0	7.4300	0	33.3990	0	26.100	0	119.956	0	173.7	4	59.1	4	-1E+10	1	-1E+10	1	-1E+10	1	-1E+10	1	-1E+10	1	-1E+10	1
4902549	68	C	06/28/2022	11:55	-131.022	47.411	0	122.00	0	7.4280	0	33.4210	0	26.118	0	120.947	0	172.8	4	58.8	4	-1E+10	1	-1E+10	1	-1E+10	1	-1E+10	1	-1E+10	1	-1E+10	1
4902549	68	C	06/28/2022	11:55	-131.022	47.411	0	123.10	0	7.4180	0	33.4530	0	26.144	0	122.037	0	172.1	4	58.5	4	-1E+10	1	-1E+10	1	-1E+10	1	-1E+10	1	-1E+10	1	-1E+10	1
4902549	68	C	06/28/2022	11:55	-131.022	47.411	0	123.80	0	7.4080	0	33.4630	0	26.154	0	122.731	0	171.6	4	58.4	4	-1E+10	1	-1E+10	1	-1E+10	1	-1E+10	1	-1E+10	1	-1E+10	1
4902549	68	C	06/28/2022	11:55	-131.022	47.411	0	124.80	0	7.3960	0	33.4760	0	26.166	0	123.722	0	170.8	4	58.1	4	-1E+10	1	-1E+10	1	-1E+10	1	-1E+10	1	-1E+10	1	-1E+10	1
4902549	68	C	06/28/2022	11:55	-131.022	47.411	0	126.00	0	7.3890	0	33.4930	0	26.180	0	124.911	0	170.2	4	57.9	4	-1E+10	1	-1E+10	1	-1E+10	1	-1E+10	1	-1E+10	1	-1E+10	1
4902549	68	C	06/28/2022	11:55	-131.022	47.411	0	127.00	0	7.3840	0	33.4970	0	26.184	0	125.902	0	169.6	4	57.7	4	-1E+10	1	-1E+10	1	-1E+10	1	-1E+10	1	-1E+10	1	-1E+10	1
4902549	68	C	06/28/2022	11:55	-131.022	47.411	0	128.10	0	7.3740	0	33.5050	0	26.192	0	126.993	0	168.8	4	57.4	4	-1E+10	1	-1E+10	1	-1E+10	1	-1E+10	1	-1E+10	1	-1E+10	1
4902549	68	C	06/28/2022	11:55	-131.022	47.411	0	128.90	0	7.3670	0	33.5220	0	26.206	0	127.785	0	168.3	4	57.2	4	-1E+10	1	-1E+10	1	-1E+10	1	-1E+10	1	-1E+10	1	-1E+10	1
4902549	68	C	06/28/2022	11:55	-131.022	47.411	0	129.70	0	7.3630	0	33.5300	0	26.213	0	128.578	0	167.9	4	57.1	4	-1E+10	1	-1E+10	1	-1E+10	1	-1E+10	1	-1E+10	1	-1E+10	1
4902549	68	C	06/28/2022	11:55	-131.022	47.411	0	130.90	0	7.3570	0	33.5380	0	26.220	0	129.767	0	167.2	4	56.8	4	-1E+10	1	-1E+10	1	-1E+10	1	-1E+10	1	-1E+10	1	-1E+10	1
4902549	68	C	06/28/2022	11:55	-131.022	47.411	0	132.10	0	7.3530	0	33.5580	0	26.236	0	130.957	0	166.6	4	56.6	4	-1E+10	1	-1E+10	1	-1E+10	1	-1E+10	1	-1E+10	1	-1E+10	1
4902549	68	C	06/28/2022	11:55	-131.022	47.411	0	132.90	0	7.3480	0	33.5710	0	26.247	0	131.749	0	166.4	4	56.6	4	-1E+10	1	-1E+10	1	-1E+10	1	-1E+10	1	-1E+10	1	-1E+10	1
4902549	68	C	06/28/2022	11:55	-131.022	47.411	0	133.80	0	7.3320	0	33.5910	0	26.265	0	132.641	0	166.3	4	56.5	4	-1E+10	1	-1E+10	1	-1E+10	1	-1E+10	1	-1E+10	1	-1E+10	1
4902549	68	C	06/28/2022	11:55	-131.022	47.411	0	134.70	0	7.3110	0	33.6030	0	26.277	0	133.533	0	166.1	4	56.4	4	-1E+10	1	-1E+10	1	-1E+10	1	-1E+10	1	-1E+10	1	-1E+10	1
4902549	68	C	06/28/2022	11:55	-131.022	47.411	0	135.50	0	7.3030	0	33.6060	0	26.281	0	134.326	0	165.9	4	56.4	4	-1E+10	1	-1E+10	1	-1E+10	1	-1E+10	1	-1E+10	1	-1E+10	1
4902549	68	C	06/28/2022	11:55	-131.022	47.411	0	136.90	0	7.2910	0	33.6090	0	26.285	0	135.714	0	165.5	4	56.2	4	-1E+10	1	-1E+10	1	-1E+10	1	-1E+10	1	-1E+10	1	-1E+10	1
4902549	68	C	06/28/2022	11:55	-131.022	47.411	0	138.30	0	7.2790	0	33.6150	0	26.291	0	137.101	0	164.8	4	55.9	4	-1E+10	1	-1E+10	1	-1E+10	1	-1E+10	1	-1E+10	1	-1E+10	1
4902549	68	C	06/28/2022	11:55	-131.022	47.411	0	139.30	0	7.2790	0	33.6270	0	26.301	0	138.092	0	164.3	4	55.8	4	-1E+10	1	-1E+10	1	-1E+10	1	-1E+10	1	-1E+10	1	-1E+10	1
4902549	68	C	06/28/2022	11:55	-131.022	47.411	0	140.20	0	7.2640	0	33.6340	0	26.308	0	138.984	0	164.0	4	55.6	4	-1E+10	1	-1E+10	1	-1E+10	1	-1E+10	1	-1E+10	1	-1E+10	1
4902549	68	C	06/28/2022	11:55	-131.022	47.411	0	141.20	0	7.2840	0	33.6470	0	26.316	0	139.975	0	163.9	4	55.7	4	-1E+10	1	-1E+10	1	-1E+10	1	-1E+10	1	-1E+10	1	-1E+10	1
4902549	68	C	06/28/2022	11:55	-131.022	47.411	0	142.10	0	7.2300	0	33.6530	0	26.328	0	140.867	0	164.0	4	55.6	4	-1E+10	1	-1E+10	1	-1E+10	1	-1E+10	1	-1E+10	1	-1E+10	1
4902549	68	C	06/28/2022	11:55	-131.022	47.411	0	143.10	0	7.2090	0	33.6570	0	26.334	0	141.858	0	163.9	4	55.6	4	-1E+10	1	-1E+10	1	-1E+10	1	-1E+10	1	-1E+10	1	-1E+10	1
4902549	68	C	06/28/2022	11:55	-131.022	47.411	0	144.00	0	7.2080	0	33.6560	0	26.334	0	142.750	0	163.9	4	55.6	4	-1E+10	1	-1E+10	1	-1E+10	1	-1E+10	1	-1E+10	1	-1E+10	1
4902549	68	C	06/28/2022	11:55	-131.022	47.411	0	145.00	0	7.2120	0	33.6620	0	26.338	0	143.741	0	163.8	4	55.6	4	-1E+10	1	-1E+10	1	-1E+10	1	-1E+10	1	-1E+10	1	-1E+10	1
4902549	68	C	06/28/2022	11:55	-131.022	47.411	0	145.90	0	7.1770	0	33.6670	0	26.347	0	144.632	0	163.9	4	55.5	4	-1E+10	1	-1E+10	1	-1E+10	1	-1E+10	1	-1E+10	1	-1E+10	1
4902549	68	C	06/28/2022	11:55	-131.022	47.411	0	146.90	0	7.1230	0	33.6750	0	26.360	0	145.623	0	163.8	4	55.4	4	-1E+10	1	-1E+10	1	-1E+10	1	-1E+10	1	-1E+10	1	-1E+10	1
4902549	68	C	06/28/2022	11:55	-131.022	47.411	0	147.90	0	7.0960	0	33.6760	0	26.365	0	146.614	0	163.8	4	55.4	4	-1E+10	1	-1E+10	1	-1E+10	1	-1E+10	1	-1E+10	1	-1E+10	1
4902549	68	C	06/28/2022	11:55	-131.022	47.411	0	148.80	0	7.0940	0	33.6770	0	26.366	0	147.506	0	163.4	4	55.3	4	-1E+10	1	-1E+10	1	-1E+10	1	-1E+10	1	-1E+10	1	-1E+10	1
4902549	68	C	06/28/2022	11:55	-131.022	47.411	0	149.80	0	7.0930	0	33.6790	0	26.368	0	148.497	0	163.1	4	55.2	4	-1E+10	1	-1E+10	1	-1E+10	1	-1E+10	1	-1E+10	1	-1E+10	1
4902549	68	C	06/28/2022	11:55	-131.022	47.411	0	150.80	0	7.0930	0	33.6800	0	26.368	0	149.488	0	162.9	4	55.1	4	-1E+10	1	-1E+10	1	-1E+10	1	-1E+10	1	-1E+10	1	-1E+10	1
4902549	68	C	06/28/2022	11:55	-131.022	47.411	0	151.70	0	7.0900	0	33.6810	0	26.370	0	150.380	0	162.5	4	55.0	4	-1E+10	1	-1E+10	1	-1E+10	1	-1E+10	1	-1E+10	1	-1E+10	1
4902549	68	C	06/28/2022	11:55	-131.022	47.411	0	152.70	0	7.0820	0	33.6840	0	26.373	0	151.371	0	162.2	4	54.8	4	-1E+10	1	-1E+10	1	-1E+10	1	-1E+10	1	-1E+10	1	-1E+10	1
4902549	68	C	06/28/2022	11:55	-131.022	47.411	0	153.60	0	7.0780	0	33.6870	0	26.376	0	152.263	0	161.8	4	54.7	4	-1E+10	1	-1E+10	1	-1E+10	1	-1E+10	1	-1E+10	1	-1E+10	1
4902549	68	C	06/28/2022	11:55	-131.022	47.411	0	154.90	0	7.0750	0	33.6870	0	26.376	0	153.551	0	161.1	4	54.5	4	-1E+10	1	-1E+10	1	-1E+10	1	-1E+10	1	-1E+10	1	-1E+10	1
4902549	68	C	06/28/2022	11:55	-131.022	47.411	0	156.40	0	7.0590	0	33.6940	0	26.384	0	155.037	0	160.3	4	54.2	4	-1E+10	1	-1E+10	1	-1E+10	1	-1E+10	1	-1E+10	1	-1E+10	1
4902549	68	C	06/28/2022	11:55	-131.022	47.411	0	157.30	0	7.0540	0	33.6990	0	26.389	0	155.929	0	159.9	4	54.0	4	-1E+10	1	-1E+10	1	-1E+10	1	-1E+10	1	-1E+10	1	-1E+10	1
4902549	68	C	06/28/2022	11:55	-131.022	47.411	0	158.20	0	7.0500	0	33.7020	0	26.392	0	156.821	0	159.5	4	53.9	4	-1E+10	1	-1E+10	1	-1E+10	1	-1E+10	1	-1E+10	1	-1E+10	1
4902549	68	C	06/28/2022	11:55	-131.022	47.411	0	159.20	0	7.0460	0	33.7060	0	26.395	0	157.812	0	159.1	4	53.8	4	-1E+10	1	-1E+10	1	-1E+10	1	-1E+10	1	-1E+10	1	-1E+10	1
4902549	68	C	06/28/2022	11:55	-131.022	47.411	0	160.10	0	7.0360	0	33.7110	0	26.401	0	158.704	0	158.7	4	53.6	4	-1E+10	1	-1E+10	1	-1E+10	1	-1E+10	1	-1E+10	1	-1E+10	1
4902549	68	C	06/28/2022	11:55	-131.022	47.411	0	161.00	0	7.0290	0	33.7160	0	26.406	0	159.595	0	158.3	4	53.5	4	-1E+10	1	-1E+10	1	-1E+10	1	-1E+10	1	-1E+10	1	-1E+10	1
4902549	68	C	06/28/2022	11:55	-131.022	47.411	0	162.00	0	7.0310	0	33.7190	0	26.408	0	160.586	0	158.0	4	53.4	4	-1E+10	1	-1E+10	1	-1E+10	1	-1E+10	1	-1E+10	1	-1E+10	1
4902549	68	C	06/28/2022	11:55	-131.022	47.411	0	162.90	0	7.0260	0	33.7230	0	26.412	0	161.478	0	157.7	4	53.3	4	-1E+10	1	-1E+10	1	-1E+10	1	-1E+10	1	-1E+10	1	-1E+10	1
4902549	68	C	06/28/2022	11:55	-131.022	47.411	0	163.90	0	7.0180	0	33.7250	0	26.414	0	162.469	0	157.5	4	53.2	4	-1E+10	1	-1E+10	1	-1E+10	1	-1E+10	1	-1E+10	1	-1E+10	1
4902549	68	C	06/28/2022	11:55	-131.022	47.411	0	164.80	0	7.0060	0	33.7270	0	26.417	0	163.361	0	157.2	4	53.1	4	-1E+10	1	-1E+10	1	-1E+10	1	-1E+10	1	-1E+10	1	-1E+10	1
4902549	68	C	06/28/2022	11:55	-131.022	47.411	0	165.80	0	7.0000	0	33.7270	0	26.418	0	164.352	0	157.0	4	53.0	4	-1E+10	1	-1E+10	1	-1E+10	1	-1E+10	1	-1E+10	1	-1E+10	1
4902549	68	C	06/28/2022	11:55	-131.022	47.411	0	166.70	0	6.9930	0	33.7300	0	26.422	0	165.243	0	156.6	4	52.9	4	-1E+10	1	-1E+10	1	-1E+10	1	-1E+10	1	-1E+10	1	-1E+10	1
4902549	68	C	06/28/2022	11:55	-131.022	47.411	0	167.70	0	6.9900	0	33.7300	0	26.422	0	166.234	0	156.3	4	52.8	4	-1E+10	1	-1E+10	1	-1E+10	1	-1E+10	1	-1E+10	1	-1E+10	1
4902549	68	C	06/28/2022	11:55	-131.022	47.411	0	168.60	0	6.9820	0	33.7310	0	26.424	0	167.126	0	155.9	4	52.6	4	-1E+10	1	-1E+10	1	-1E+10	1	-1E+10	1	-1E+10	1	-1E+10	1
4902549	68	C	06/28/2022	11:55	-131.022	47.411	0	169.50	0	6.9800	0	33.7330	0	26.426	0	168.018	0	155.4	4	52.4	4	-1E+10	1	-1E+10	1	-1E+10	1	-1E+10	1	-1E+10	1	-1E+10	1
4902549	68	C	06/28/2022	11:55	-131.022	47.411	0	170.90	0	6.9800	0	33.7330	0	26.426	0	169.405	0	154.7	4	52.2	4	-1E+10	1	-1E+10	1	-1E+10	1	-1E+10	1	-1E+10	1	-1E+10	1
4902549	68	C	06/28/2022	11:55	-131.022	47.411	0	172.30	0	6.9730	0	33.7340	0	26.428	0	170.792	0	153.9	4	51.9	4	-1E+10	1	-1E+10	1	-1E+10	1	-1E+10	1	-1E+10	1	-1E+10	1
4902549	68	C	06/28/2022	11:55	-131.022	47.411	0	173.20	0	6.9450	0	33.7440	0	26.439	0	171.684	0	153.4	4	51.7	4	-1E+10	1	-1E+10	1	-1E+10	1	-1E+10	1	-1E+10	1	-1E+10	1
4902549	68	C	06/28/2022	11:55	-131.022	47.411	0	174.20	0	6.9320	0	33.7450	0	26.442	0	172.675	0	152.9	4	51.6	4	-1E+10	1	-1E+10	1	-1E+10	1	-1E+10	1	-1E+10	1	-1E+10	1
4902549	68	C	06/28/2022	11:55	-131.022	47.411	0	175.10	0	6.9050	0	33.7530	0	26.452	0	173.566	0	152.5	4	51.4	4	-1E+10	1	-1E+10	1	-1E+10	1	-1E+10	1	-1E+10	1	-1E+10	1
4902549	68	C	06/28/2022	11:55	-131.022	47.411	0	176.00	0	6.9020	0	33.7540	0	26.453	0	174.458	0	152.0	4	51.2	4	-1E+10	1	-1E+10	1	-1E+10	1	-1E+10	1	-1E+10	1	-1E+10	1
4902549	68	C	06/28/2022	11:55	-131.022	47.411	0	176.90	0	6.8980	0	33.7550	0	26.454	0	175.350	0	151.4	4	51.0	4	-1E+10	1	-1E+10	1	-1E+10	1	-1E+10	1	-1E+10	1	-1E+10	1
4902549	68	C	06/28/2022	11:55	-131.022	47.411	0	177.80	0	6.8970	0	33.7560	0	26.455	0	176.242	0	150.7	4	50.8	4	-1E+10	1	-1E+10	1	-1E+10	1	-1E+10	1	-1E+10	1	-1E+10	1
4902549	68	C	06/28/2022	11:55	-131.022	47.411	0	178.70	0	6.8940	0	33.7560	0	26.456	0	177.133	0	149.9	4	50.5	4	-1E+10	1	-1E+10	1	-1E+10	1	-1E+10	1	-1E+10	1	-1E+10	1
4902549	68	C	06/28/2022	11:55	-131.022	47.411	0	179.70	0	6.8930	0	33.7570	0	26.457	0	178.124	0	149.0	4	50.2	4	-1E+10	1	-1E+10	1	-1E+10	1	-1E+10	1	-1E+10	1	-1E+10	1
4902549	68	C	06/28/2022	11:55	-131.022	47.411	0	180.60	0	6.8850	0	33.7610	0	26.461	0	179.016	0	148.1	4	49.9	4	-1E+10	1	-1E+10	1	-1E+10	1	-1E+10	1	-1E+10	1	-1E+10	1
4902549	68	C	06/28/2022	11:55	-131.022	47.411	0	181.90	0	6.8590	0	33.7670	0	26.469	0	180.304	0	146.6	4	49.4	4	-1E+10	1	-1E+10	1	-1E+10	1	-1E+10	1	-1E+10	1	-1E+10	1
4902549	68	C	06/28/2022	11:55	-131.022	47.411	0	183.40	0	6.8480	0	33.7740	0	26.476	0	181.790	0	145.1	4	48.8	4	-1E+10	1	-1E+10	1	-1E+10	1	-1E+10	1	-1E+10	1	-1E+10	1
4902549	68	C	06/28/2022	11:55	-131.022	47.411	0	184.30	0	6.8430	0	33.7780	0	26.480	0	182.682	0	144.2	4	48.5	4	-1E+10	1	-1E+10	1	-1E+10	1	-1E+10	1	-1E+10	1	-1E+10	1
4902549	68	C	06/28/2022	11:55	-131.022	47.411	0	185.20	0	6.8530	0	33.7810	0	26.481	0	183.573	0	143.1	4	48.2	4	-1E+10	1	-1E+10	1	-1E+10	1	-1E+10	1	-1E+10	1	-1E+10	1
4902549	68	C	06/28/2022	11:55	-131.022	47.411	0	186.20	0	6.8610	0	33.7910	0	26.488	0	184.564	0	142.3	4	47.9	4	-1E+10	1	-1E+10	1	-1E+10	1	-1E+10	1	-1E+10	1	-1E+10	1
4902549	68	C	06/28/2022	11:55	-131.022	47.411	0	187.10	0	6.8750	0	33.7940	0	26.488	0	185.456	0	141.7	4	47.7	4	-1E+10	1	-1E+10	1	-1E+10	1	-1E+10	1	-1E+10	1	-1E+10	1
4902549	68	C	06/28/2022	11:55	-131.022	47.411	0	188.00	0	6.8940	0	33.7940	0	26.486	0	186.348	0	141.1	4	47.6	4	-1E+10	1	-1E+10	1	-1E+10	1	-1E+10	1	-1E+10	1	-1E+10	1
4902549	68	C	06/28/2022	11:55	-131.022	47.411	0	188.90	0	6.9050	0	33.8010	0	26.490	0	187.239	0	141.0	4	47.5	4	-1E+10	1	-1E+10	1	-1E+10	1	-1E+10	1	-1E+10	1	-1E+10	1
4902549	68	C	06/28/2022	11:55	-131.022	47.411	0	189.90	0	6.9100	0	33.8010	0	26.489	0	188.230	0	140.8	4	47.5	4	-1E+10	1	-1E+10	1	-1E+10	1	-1E+10	1	-1E+10	1	-1E+10	1
4902549	68	C	06/28/2022	11:55	-131.022	47.411	0	190.80	0	6.9050	0	33.8040	0	26.492	0	189.122	0	140.7	4	47.4	4	-1E+10	1	-1E+10	1	-1E+10	1	-1E+10	1	-1E+10	1	-1E+10	1
4902549	68	C	06/28/2022	11:55	-131.022	47.411	0	191.80	0	6.8490	0	33.8030	0	26.499	0	190.112	0	140.5	4	47.3	4	-1E+10	1	-1E+10	1	-1E+10	1	-1E+10	1	-1E+10	1	-1E+10	1
4902549	68	C	06/28/2022	11:55	-131.022	47.411	0	192.70	0	6.8530	0	33.8030	0	26.498	0	191.004	0	140.0	4	47.1	4	-1E+10	1	-1E+10	1	-1E+10	1	-1E+10	1	-1E+10	1	-1E+10	1
4902549	68	C	06/28/2022	11:55	-131.022	47.411	0	193.70	0	6.8580	0	33.8090	0	26.502	0	191.995	0	139.7	4	47.0	4	-1E+10	1	-1E+10	1	-1E+10	1	-1E+10	1	-1E+10	1	-1E+10	1
4902549	68	C	06/28/2022	11:55	-131.022	47.411	0	194.60	0	6.8450	0	33.8100	0	26.505	0	192.887	0	139.5	4	47.0	4	-1E+10	1	-1E+10	1	-1E+10	1	-1E+10	1	-1E+10	1	-1E+10	1
4902549	68	C	06/28/2022	11:55	-131.022	47.411	0	195.60	0	6.8070	0	33.8080	0	26.509	0	193.877	0	139.3	4	46.9	4	-1E+10	1	-1E+10	1	-1E+10	1	-1E+10	1	-1E+10	1	-1E+10	1
4902549	68	C	06/28/2022	11:55	-131.022	47.411	0	196.60	0	6.7780	0	33.8080	0	26.512	0	194.868	0	139.0	4	46.7	4	-1E+10	1	-1E+10	1	-1E+10	1	-1E+10	1	-1E+10	1	-1E+10	1
4902549	68	C	06/28/2022	11:55	-131.022	47.411	0	197.60	0	6.7360	0	33.8070	0	26.517	0	195.859	0	138.6	4	46.5	4	-1E+10	1	-1E+10	1	-1E+10	1	-1E+10	1	-1E+10	1	-1E+10	1
4902549	68	C	06/28/2022	11:55	-131.022	47.411	0	198.60	0	6.6970	0	33.8030	0	26.519	0	196.849	0	138.1	4	46.3	4	-1E+10	1	-1E+10	1	-1E+10	1	-1E+10	1	-1E+10	1	-1E+10	1
4902549	68	C	06/28/2022	11:55	-131.022	47.411	0	199.60	0	6.6630	0	33.8190	0	26.536	0	197.840	0	137.4	4	46.1	4	-1E+10	1	-1E+10	1	-1E+10	1	-1E+10	1	-1E+10	1	-1E+10	1
4902549	68	C	06/28/2022	11:55	-131.022	47.411	0	200.70	0	6.6670	0	33.8080	0	26.527	0	198.930	0	136.7	4	45.8	4	-1E+10	1	-1E+10	1	-1E+10	1	-1E+10	1	-1E+10	1	-1E+10	1
4902549	68	C	06/28/2022	11:55	-131.022	47.411	0	201.70	0	6.6800	0	33.8140	0	26.530	0	199.921	0	136.1	4	45.6	4	-1E+10	1	-1E+10	1	-1E+10	1	-1E+10	1	-1E+10	1	-1E+10	1
4902549	68	C	06/28/2022	11:55	-131.022	47.411	0	202.70	0	6.6830	0	33.8140	0	26.530	0	200.911	0	135.5	4	45.5	4	-1E+10	1	-1E+10	1	-1E+10	1	-1E+10	1	-1E+10	1	-1E+10	1
4902549	68	C	06/28/2022	11:55	-131.022	47.411	0	203.70	0	6.6790	0	33.8160	0	26.532	0	201.902	0	135.1	4	45.3	4	-1E+10	1	-1E+10	1	-1E+10	1	-1E+10	1	-1E+10	1	-1E+10	1
4902549	68	C	06/28/2022	11:55	-131.022	47.411	0	204.80	0	6.6340	0	33.8170	0	26.539	0	202.992	0	134.4	4	45.0	4	-1E+10	1	-1E+10	1	-1E+10	1	-1E+10	1	-1E+10	1	-1E+10	1
4902549	68	C	06/28/2022	11:55	-131.022	47.411	0	205.80	0	6.5990	0	33.8160	0	26.543	0	203.982	0	133.7	4	44.7	4	-1E+10	1	-1E+10	1	-1E+10	1	-1E+10	1	-1E+10	1	-1E+10	1
4902549	68	C	06/28/2022	11:55	-131.022	47.411	0	206.90	0	6.6030	0	33.8180	0	26.544	0	205.072	0	132.9	4	44.5	4	-1E+10	1	-1E+10	1	-1E+10	1	-1E+10	1	-1E+10	1	-1E+10	1
4902549	68	C	06/28/2022	11:55	-131.022	47.411	0	208.00	0	6.5810	0	33.8190	0	26.547	0	206.162	0	132.1	4	44.2	4	-1E+10	1	-1E+10	1	-1E+10	1	-1E+10	1	-1E+10	1	-1E+10	1
4902549	68	C	06/28/2022	11:55	-131.022	47.411	0	209.00	0	6.5760	0	33.8190	0	26.548	0	207.153	0	131.3	4	43.9	4	-1E+10	1	-1E+10	1	-1E+10	1	-1E+10	1	-1E+10	1	-1E+10	1
4902549	68	C	06/28/2022	11:55	-131.022	47.411	0	210.10	0	6.5650	0	33.8200	0	26.550	0	208.242	0	130.3	4	43.6	4	-1E+10	1	-1E+10	1	-1E+10	1	-1E+10	1	-1E+10	1	-1E+10	1
4902549	68	C	06/28/2022	11:55	-131.022	47.411	0	211.10	0	6.5540	0	33.8210	0	26.553	0	209.233	0	129.3	4	43.2	4	-1E+10	1	-1E+10	1	-1E+10	1	-1E+10	1	-1E+10	1	-1E+10	1
4902549	68	C	06/28/2022	11:55	-131.022	47.411	0	212.20	0	6.5500	0	33.8270	0	26.558	0	210.323	0	128.3	4	42.9	4	-1E+10	1	-1E+10	1	-1E+10	1	-1E+10	1	-1E+10	1	-1E+10	1
4902549	68	C	06/28/2022	11:55	-131.022	47.411	0	213.30	0	6.5460	0	33.8270	0	26.558	0	211.412	0	127.4	4	42.6	4	-1E+10	1	-1E+10	1	-1E+10	1	-1E+10	1	-1E+10	1	-1E+10	1
4902549	68	C	06/28/2022	11:55	-131.022	47.411	0	214.40	0	6.5260	0	33.8280	0	26.562	0	212.502	0	126.5	4	42.3	4	-1E+10	1	-1E+10	1	-1E+10	1	-1E+10	1	-1E+10	1	-1E+10	1
4902549	68	C	06/28/2022	11:55	-131.022	47.411	0	215.50	0	6.4620	0	33.8340	0	26.575	0	213.592	0	126.1	4	42.1	4	-1E+10	1	-1E+10	1	-1E+10	1	-1E+10	1	-1E+10	1	-1E+10	1
4902549	68	C	06/28/2022	11:55	-131.022	47.411	0	216.50	0	6.4540	0	33.8350	0	26.577	0	214.582	0	125.4	4	41.9	4	-1E+10	1	-1E+10	1	-1E+10	1	-1E+10	1	-1E+10	1	-1E+10	1
4902549	68	C	06/28/2022	11:55	-131.022	47.411	0	217.60	0	6.4480	0	33.8350	0	26.577	0	215.672	0	124.8	4	41.6	4	-1E+10	1	-1E+10	1	-1E+10	1	-1E+10	1	-1E+10	1	-1E+10	1
4902549	68	C	06/28/2022	11:55	-131.022	47.411	0	218.70	0	6.4440	0	33.8380	0	26.580	0	216.762	0	124.2	4	41.4	4	-1E+10	1	-1E+10	1	-1E+10	1	-1E+10	1	-1E+10	1	-1E+10	1
4902549	68	C	06/28/2022	11:55	-131.022	47.411	0	219.80	0	6.4430	0	33.8390	0	26.581	0	217.851	0	123.5	4	41.2	4	-1E+10	1	-1E+10	1	-1E+10	1	-1E+10	1	-1E+10	1	-1E+10	1
4902549	68	C	06/28/2022	11:55	-131.022	47.411	0	220.90	0	6.4400	0	33.8380	0	26.581	0	218.941	0	122.8	4	41.0	4	-1E+10	1	-1E+10	1	-1E+10	1	-1E+10	1	-1E+10	1	-1E+10	1
4902549	68	C	06/28/2022	11:55	-131.022	47.411	0	222.00	0	6.4260	0	33.8390	0	26.584	0	220.031	0	122.2	4	40.7	4	-1E+10	1	-1E+10	1	-1E+10	1	-1E+10	1	-1E+10	1	-1E+10	1
4902549	68	C	06/28/2022	11:55	-131.022	47.411	0	223.10	0	6.4080	0	33.8430	0	26.589	0	221.120	0	121.5	4	40.5	4	-1E+10	1	-1E+10	1	-1E+10	1	-1E+10	1	-1E+10	1	-1E+10	1
4902549	68	C	06/28/2022	11:55	-131.022	47.411	0	224.20	0	6.4040	0	33.8450	0	26.591	0	222.210	0	120.8	4	40.3	4	-1E+10	1	-1E+10	1	-1E+10	1	-1E+10	1	-1E+10	1	-1E+10	1
4902549	68	C	06/28/2022	11:55	-131.022	47.411	0	225.30	0	6.3970	0	33.8440	0	26.591	0	223.300	0	120.0	4	40.0	4	-1E+10	1	-1E+10	1	-1E+10	1	-1E+10	1	-1E+10	1	-1E+10	1
4902549	68	C	06/28/2022	11:55	-131.022	47.411	0	226.40	0	6.3900	0	33.8440	0	26.592	0	224.389	0	119.2	4	39.7	4	-1E+10	1	-1E+10	1	-1E+10	1	-1E+10	1	-1E+10	1	-1E+10	1
4902549	68	C	06/28/2022	11:55	-131.022	47.411	0	227.40	0	6.3860	0	33.8460	0	26.594	0	225.380	0	118.3	4	39.4	4	-1E+10	1	-1E+10	1	-1E+10	1	-1E+10	1	-1E+10	1	-1E+10	1
4902549	68	C	06/28/2022	11:55	-131.022	47.411	0	228.40	0	6.3840	0	33.8470	0	26.595	0	226.370	0	117.3	4	39.1	4	-1E+10	1	-1E+10	1	-1E+10	1	-1E+10	1	-1E+10	1	-1E+10	1
4902549	68	C	06/28/2022	11:55	-131.022	47.411	0	229.50	0	6.3850	0	33.8450	0	26.594	0	227.460	0	116.1	4	38.7	4	-1E+10	1	-1E+10	1	-1E+10	1	-1E+10	1	-1E+10	1	-1E+10	1
4902549	68	C	06/28/2022	11:55	-131.022	47.411	0	230.50	0	6.3860	0	33.8460	0	26.594	0	228.451	0	114.6	4	38.2	4	-1E+10	1	-1E+10	1	-1E+10	1	-1E+10	1	-1E+10	1	-1E+10	1
4902549	68	C	06/28/2022	11:55	-131.022	47.411	0	231.60	0	6.3640	0	33.8500	0	26.600	0	229.540	0	113.2	4	37.7	4	-1E+10	1	-1E+10	1	-1E+10	1	-1E+10	1	-1E+10	1	-1E+10	1
4902549	68	C	06/28/2022	11:55	-131.022	47.411	0	232.70	0	6.3480	0	33.8520	0	26.604	0	230.630	0	111.7	4	37.2	4	-1E+10	1	-1E+10	1	-1E+10	1	-1E+10	1	-1E+10	1	-1E+10	1
4902549	68	C	06/28/2022	11:55	-131.022	47.411	0	233.80	0	6.3490	0	33.8530	0	26.605	0	231.719	0	110.0	4	36.6	4	-1E+10	1	-1E+10	1	-1E+10	1	-1E+10	1	-1E+10	1	-1E+10	1
4902549	68	C	06/28/2022	11:55	-131.022	47.411	0	234.90	0	6.3550	0	33.8550	0	26.605	0	232.809	0	108.2	4	36.0	4	-1E+10	1	-1E+10	1	-1E+10	1	-1E+10	1	-1E+10	1	-1E+10	1
4902549	68	C	06/28/2022	11:55	-131.022	47.411	0	235.90	0	6.3640	0	33.8560	0	26.605	0	233.800	0	106.4	4	35.4	4	-1E+10	1	-1E+10	1	-1E+10	1	-1E+10	1	-1E+10	1	-1E+10	1
4902549	68	C	06/28/2022	11:55	-131.022	47.411	0	237.00	0	6.4100	0	33.8640	0	26.606	0	234.889	0	104.7	4	34.9	4	-1E+10	1	-1E+10	1	-1E+10	1	-1E+10	1	-1E+10	1	-1E+10	1
4902549	68	C	06/28/2022	11:55	-131.022	47.411	0	238.10	0	6.4070	0	33.8730	0	26.613	0	235.979	0	103.2	4	34.4	4	-1E+10	1	-1E+10	1	-1E+10	1	-1E+10	1	-1E+10	1	-1E+10	1
4902549	68	C	06/28/2022	11:55	-131.022	47.411	0	239.10	0	6.3790	0	33.8760	0	26.619	0	236.969	0	101.7	4	33.9	4	-1E+10	1	-1E+10	1	-1E+10	1	-1E+10	1	-1E+10	1	-1E+10	1
4902549	68	C	06/28/2022	11:55	-131.022	47.411	0	240.20	0	6.3600	0	33.8780	0	26.623	0	238.059	0	100.1	4	33.3	4	-1E+10	1	-1E+10	1	-1E+10	1	-1E+10	1	-1E+10	1	-1E+10	1
4902549	68	C	06/28/2022	11:55	-131.022	47.411	0	241.30	0	6.3530	0	33.8870	0	26.631	0	239.148	0	98.8	4	32.9	4	-1E+10	1	-1E+10	1	-1E+10	1	-1E+10	1	-1E+10	1	-1E+10	1
4902549	68	C	06/28/2022	11:55	-131.022	47.411	0	242.30	0	6.3300	0	33.8920	0	26.638	0	240.139	0	98.0	4	32.6	4	-1E+10	1	-1E+10	1	-1E+10	1	-1E+10	1	-1E+10	1	-1E+10	1
4902549	68	C	06/28/2022	11:55	-131.022	47.411	0	243.40	0	6.3230	0	33.8940	0	26.640	0	241.228	0	97.1	4	32.3	4	-1E+10	1	-1E+10	1	-1E+10	1	-1E+10	1	-1E+10	1	-1E+10	1
4902549	68	C	06/28/2022	11:55	-131.022	47.411	0	244.50	0	6.3150	0	33.8960	0	26.643	0	242.318	0	96.2	4	32.0	4	-1E+10	1	-1E+10	1	-1E+10	1	-1E+10	1	-1E+10	1	-1E+10	1
4902549	68	C	06/28/2022	11:55	-131.022	47.411	0	245.50	0	6.2900	0	33.8980	0	26.648	0	243.308	0	95.6	4	31.8	4	-1E+10	1	-1E+10	1	-1E+10	1	-1E+10	1	-1E+10	1	-1E+10	1
4902549	68	C	06/28/2022	11:55	-131.022	47.411	0	246.60	0	6.2640	0	33.9000	0	26.653	0	244.398	0	95.0	4	31.6	4	-1E+10	1	-1E+10	1	-1E+10	1	-1E+10	1	-1E+10	1	-1E+10	1
4902549	68	C	06/28/2022	11:55	-131.022	47.411	0	247.70	0	6.2630	0	33.9010	0	26.654	0	245.487	0	94.6	4	31.4	4	-1E+10	1	-1E+10	1	-1E+10	1	-1E+10	1	-1E+10	1	-1E+10	1
4902549	68	C	06/28/2022	11:55	-131.022	47.411	0	248.70	0	6.2620	0	33.9020	0	26.655	0	246.478	0	94.1	4	31.3	4	-1E+10	1	-1E+10	1	-1E+10	1	-1E+10	1	-1E+10	1	-1E+10	1
4902549	68	C	06/28/2022	11:55	-131.022	47.411	0	249.80	0	6.2580	0	33.9030	0	26.656	0	247.567	0	93.4	4	31.1	4	-1E+10	1	-1E+10	1	-1E+10	1	-1E+10	1	-1E+10	1	-1E+10	1
4902549	68	C	06/28/2022	11:55	-131.022	47.411	0	250.90	0	6.2610	0	33.9000	0	26.653	0	248.657	0	92.7	4	30.8	4	-1E+10	1	-1E+10	1	-1E+10	1	-1E+10	1	-1E+10	1	-1E+10	1
4902549	68	C	06/28/2022	11:55	-131.022	47.411	0	251.90	0	6.2700	0	33.9050	0	26.656	0	249.647	0	92.2	4	30.6	4	-1E+10	1	-1E+10	1	-1E+10	1	-1E+10	1	-1E+10	1	-1E+10	1
4902549	68	C	06/28/2022	11:55	-131.022	47.411	0	253.00	0	6.2590	0	33.9060	0	26.658	0	250.737	0	91.8	4	30.5	4	-1E+10	1	-1E+10	1	-1E+10	1	-1E+10	1	-1E+10	1	-1E+10	1
4902549	68	C	06/28/2022	11:55	-131.022	47.411	0	254.00	0	6.2530	0	33.9050	0	26.658	0	251.727	0	91.3	4	30.3	4	-1E+10	1	-1E+10	1	-1E+10	1	-1E+10	1	-1E+10	1	-1E+10	1
4902549	68	C	06/28/2022	11:55	-131.022	47.411	0	255.00	0	6.2390	0	33.9070	0	26.662	0	252.718	0	90.7	4	30.1	4	-1E+10	1	-1E+10	1	-1E+10	1	-1E+10	1	-1E+10	1	-1E+10	1
4902549	68	C	06/28/2022	11:55	-131.022	47.411	0	256.10	0	6.2280	0	33.9060	0	26.662	0	253.807	0	90.2	4	30.0	4	-1E+10	1	-1E+10	1	-1E+10	1	-1E+10	1	-1E+10	1	-1E+10	1
4902549	68	C	06/28/2022	11:55	-131.022	47.411	0	257.20	0	6.2030	0	33.9100	0	26.669	0	254.897	0	89.7	4	29.8	4	-1E+10	1	-1E+10	1	-1E+10	1	-1E+10	1	-1E+10	1	-1E+10	1
4902549	68	C	06/28/2022	11:55	-131.022	47.411	0	258.20	0	6.1970	0	33.9090	0	26.669	0	255.887	0	89.2	4	29.6	4	-1E+10	1	-1E+10	1	-1E+10	1	-1E+10	1	-1E+10	1	-1E+10	1
4902549	68	C	06/28/2022	11:55	-131.022	47.411	0	259.20	0	6.1950	0	33.9090	0	26.669	0	256.878	0	88.7	4	29.4	4	-1E+10	1	-1E+10	1	-1E+10	1	-1E+10	1	-1E+10	1	-1E+10	1
4902549	68	C	06/28/2022	11:55	-131.022	47.411	0	260.20	0	6.1940	0	33.9090	0	26.669	0	257.868	0	88.1	4	29.2	4	-1E+10	1	-1E+10	1	-1E+10	1	-1E+10	1	-1E+10	1	-1E+10	1
4902549	68	C	06/28/2022	11:55	-131.022	47.411	0	261.30	0	6.1810	0	33.9130	0	26.674	0	258.957	0	87.7	4	29.1	4	-1E+10	1	-1E+10	1	-1E+10	1	-1E+10	1	-1E+10	1	-1E+10	1
4902549	68	C	06/28/2022	11:55	-131.022	47.411	0	262.30	0	6.1740	0	33.9130	0	26.675	0	259.948	0	87.3	4	28.9	4	-1E+10	1	-1E+10	1	-1E+10	1	-1E+10	1	-1E+10	1	-1E+10	1
4902549	68	C	06/28/2022	11:55	-131.022	47.411	0	263.40	0	6.1730	0	33.9120	0	26.674	0	261.037	0	86.8	4	28.8	4	-1E+10	1	-1E+10	1	-1E+10	1	-1E+10	1	-1E+10	1	-1E+10	1
4902549	68	C	06/28/2022	11:55	-131.022	47.411	0	264.40	0	6.1660	0	33.9140	0	26.677	0	262.028	0	86.4	4	28.6	4	-1E+10	1	-1E+10	1	-1E+10	1	-1E+10	1	-1E+10	1	-1E+10	1
4902549	68	C	06/28/2022	11:55	-131.022	47.411	0	265.40	0	6.1490	0	33.9160	0	26.680	0	263.018	0	86.2	4	28.6	4	-1E+10	1	-1E+10	1	-1E+10	1	-1E+10	1	-1E+10	1	-1E+10	1
4902549	68	C	06/28/2022	11:55	-131.022	47.411	0	266.40	0	6.1370	0	33.9190	0	26.684	0	264.009	0	86.0	4	28.5	4	-1E+10	1	-1E+10	1	-1E+10	1	-1E+10	1	-1E+10	1	-1E+10	1
4902549	68	C	06/28/2022	11:55	-131.022	47.411	0	267.40	0	6.1240	0	33.9180	0	26.685	0	264.999	0	86.1	4	28.5	4	-1E+10	1	-1E+10	1	-1E+10	1	-1E+10	1	-1E+10	1	-1E+10	1
4902549	68	C	06/28/2022	11:55	-131.022	47.411	0	268.50	0	6.1040	0	33.9240	0	26.692	0	266.088	0	86.2	4	28.6	4	-1E+10	1	-1E+10	1	-1E+10	1	-1E+10	1	-1E+10	1	-1E+10	1
4902549	68	C	06/28/2022	11:55	-131.022	47.411	0	269.50	0	6.0620	0	33.9270	0	26.700	0	267.079	0	86.5	4	28.6	4	-1E+10	1	-1E+10	1	-1E+10	1	-1E+10	1	-1E+10	1	-1E+10	1
4902549	68	C	06/28/2022	11:55	-131.022	47.411	0	270.60	0	6.0180	0	33.9160	0	26.697	0	268.168	0	86.6	4	28.6	4	-1E+10	1	-1E+10	1	-1E+10	1	-1E+10	1	-1E+10	1	-1E+10	1
4902549	68	C	06/28/2022	11:55	-131.022	47.411	0	271.60	0	6.0090	0	33.9160	0	26.698	0	269.158	0	86.6	4	28.6	4	-1E+10	1	-1E+10	1	-1E+10	1	-1E+10	1	-1E+10	1	-1E+10	1
4902549	68	C	06/28/2022	11:55	-131.022	47.411	0	272.60	0	5.9800	0	33.9150	0	26.701	0	270.149	0	86.6	4	28.6	4	-1E+10	1	-1E+10	1	-1E+10	1	-1E+10	1	-1E+10	1	-1E+10	1
4902549	68	C	06/28/2022	11:55	-131.022	47.411	0	273.60	0	5.9630	0	33.9150	0	26.703	0	271.139	0	86.4	4	28.5	4	-1E+10	1	-1E+10	1	-1E+10	1	-1E+10	1	-1E+10	1	-1E+10	1
4902549	68	C	06/28/2022	11:55	-131.022	47.411	0	274.70	0	5.9660	0	33.9160	0	26.703	0	272.229	0	86.3	4	28.5	4	-1E+10	1	-1E+10	1	-1E+10	1	-1E+10	1	-1E+10	1	-1E+10	1
4902549	68	C	06/28/2022	11:55	-131.022	47.411	0	275.70	0	5.9680	0	33.9180	0	26.705	0	273.219	0	86.3	4	28.5	4	-1E+10	1	-1E+10	1	-1E+10	1	-1E+10	1	-1E+10	1	-1E+10	1
4902549	68	C	06/28/2022	11:55	-131.022	47.411	0	276.60	0	5.9620	0	33.9170	0	26.705	0	274.110	0	86.4	4	28.5	4	-1E+10	1	-1E+10	1	-1E+10	1	-1E+10	1	-1E+10	1	-1E+10	1
4902549	68	C	06/28/2022	11:55	-131.022	47.411	0	277.80	0	5.9530	0	33.9160	0	26.705	0	275.299	0	86.4	4	28.5	4	-1E+10	1	-1E+10	1	-1E+10	1	-1E+10	1	-1E+10	1	-1E+10	1
4902549	68	C	06/28/2022	11:55	-131.022	47.411	0	278.90	0	5.9490	0	33.9180	0	26.707	0	276.388	0	86.5	4	28.5	4	-1E+10	1	-1E+10	1	-1E+10	1	-1E+10	1	-1E+10	1	-1E+10	1
4902549	68	C	06/28/2022	11:55	-131.022	47.411	0	280.10	0	5.9310	0	33.9190	0	26.710	0	277.576	0	86.7	4	28.6	4	-1E+10	1	-1E+10	1	-1E+10	1	-1E+10	1	-1E+10	1	-1E+10	1
4902549	68	C	06/28/2022	11:55	-131.022	47.411	0	280.90	0	5.9100	0	33.9170	0	26.711	0	278.369	0	86.8	4	28.6	4	-1E+10	1	-1E+10	1	-1E+10	1	-1E+10	1	-1E+10	1	-1E+10	1
4902549	68	C	06/28/2022	11:55	-131.022	47.411	0	281.70	0	5.9100	0	33.9140	0	26.709	0	279.161	0	86.9	4	28.7	4	-1E+10	1	-1E+10	1	-1E+10	1	-1E+10	1	-1E+10	1	-1E+10	1
4902549	68	C	06/28/2022	11:55	-131.022	47.411	0	282.80	0	5.8940	0	33.9130	0	26.710	0	280.250	0	87.0	4	28.7	4	-1E+10	1	-1E+10	1	-1E+10	1	-1E+10	1	-1E+10	1	-1E+10	1
4902549	68	C	06/28/2022	11:55	-131.022	47.411	0	284.00	0	5.8530	0	33.9080	0	26.711	0	281.439	0	86.9	4	28.6	4	-1E+10	1	-1E+10	1	-1E+10	1	-1E+10	1	-1E+10	1	-1E+10	1
4902549	68	C	06/28/2022	11:55	-131.022	47.411	0	284.80	0	5.8500	0	33.9090	0	26.712	0	282.231	0	86.7	4	28.5	4	-1E+10	1	-1E+10	1	-1E+10	1	-1E+10	1	-1E+10	1	-1E+10	1
4902549	68	C	06/28/2022	11:55	-131.022	47.411	0	286.00	0	5.8110	0	33.9090	0	26.717	0	283.419	0	86.4	4	28.4	4	-1E+10	1	-1E+10	1	-1E+10	1	-1E+10	1	-1E+10	1	-1E+10	1
4902549	68	C	06/28/2022	11:55	-131.022	47.411	0	287.20	0	5.7970	0	33.9160	0	26.724	0	284.608	0	86.0	4	28.3	4	-1E+10	1	-1E+10	1	-1E+10	1	-1E+10	1	-1E+10	1	-1E+10	1
4902549	68	C	06/28/2022	11:55	-131.022	47.411	0	288.00	0	5.7980	0	33.9100	0	26.720	0	285.400	0	85.7	4	28.2	4	-1E+10	1	-1E+10	1	-1E+10	1	-1E+10	1	-1E+10	1	-1E+10	1
4902549	68	C	06/28/2022	11:55	-131.022	47.411	0	288.80	0	5.7870	0	33.9080	0	26.719	0	286.192	0	85.2	4	28.0	4	-1E+10	1	-1E+10	1	-1E+10	1	-1E+10	1	-1E+10	1	-1E+10	1
4902549	68	C	06/28/2022	11:55	-131.022	47.411	0	290.00	0	5.7810	0	33.9060	0	26.719	0	287.380	0	84.4	4	27.7	4	-1E+10	1	-1E+10	1	-1E+10	1	-1E+10	1	-1E+10	1	-1E+10	1
4902549	68	C	06/28/2022	11:55	-131.022	47.411	0	291.20	0	5.7610	0	33.9070	0	26.722	0	288.569	0	83.4	4	27.4	4	-1E+10	1	-1E+10	1	-1E+10	1	-1E+10	1	-1E+10	1	-1E+10	1
4902549	68	C	06/28/2022	11:55	-131.022	47.411	0	292.00	0	5.7380	0	33.9110	0	26.728	0	289.361	0	82.9	4	27.2	4	-1E+10	1	-1E+10	1	-1E+10	1	-1E+10	1	-1E+10	1	-1E+10	1
4902549	68	C	06/28/2022	11:55	-131.022	47.411	0	292.80	0	5.7300	0	33.9130	0	26.730	0	290.153	0	82.5	4	27.1	4	-1E+10	1	-1E+10	1	-1E+10	1	-1E+10	1	-1E+10	1	-1E+10	1
4902549	68	C	06/28/2022	11:55	-131.022	47.411	0	294.00	0	5.7230	0	33.9140	0	26.732	0	291.341	0	81.8	4	26.9	4	-1E+10	1	-1E+10	1	-1E+10	1	-1E+10	1	-1E+10	1	-1E+10	1
4902549	68	C	06/28/2022	11:55	-131.022	47.411	0	295.30	0	5.7200	0	33.9130	0	26.732	0	292.629	0	81.0	4	26.6	4	-1E+10	1	-1E+10	1	-1E+10	1	-1E+10	1	-1E+10	1	-1E+10	1
4902549	68	C	06/28/2022	11:55	-131.022	47.411	0	296.10	0	5.7170	0	33.9140	0	26.733	0	293.421	0	80.4	4	26.4	4	-1E+10	1	-1E+10	1	-1E+10	1	-1E+10	1	-1E+10	1	-1E+10	1
4902549	68	C	06/28/2022	11:55	-131.022	47.411	0	296.90	0	5.7090	0	33.9140	0	26.734	0	294.213	0	79.6	4	26.1	4	-1E+10	1	-1E+10	1	-1E+10	1	-1E+10	1	-1E+10	1	-1E+10	1
4902549	68	C	06/28/2022	11:55	-131.022	47.411	0	297.70	0	5.7010	0	33.9150	0	26.735	0	295.005	0	78.9	4	25.9	4	-1E+10	1	-1E+10	1	-1E+10	1	-1E+10	1	-1E+10	1	-1E+10	1
4902549	68	C	06/28/2022	11:55	-131.022	47.411	0	299.00	0	5.6850	0	33.9180	0	26.740	0	296.293	0	78.0	4	25.6	4	-1E+10	1	-1E+10	1	-1E+10	1	-1E+10	1	-1E+10	1	-1E+10	1
4902549	68	C	06/28/2022	11:55	-131.022	47.411	0	300.30	0	5.6760	0	33.9200	0	26.742	0	297.580	0	77.1	4	25.3	4	-1E+10	1	-1E+10	1	-1E+10	1	-1E+10	1	-1E+10	1	-1E+10	1
4902549	68	C	06/28/2022	11:55	-131.022	47.411	0	301.10	0	5.6680	0	33.9200	0	26.743	0	298.372	0	76.5	4	25.1	4	-1E+10	1	-1E+10	1	-1E+10	1	-1E+10	1	-1E+10	1	-1E+10	1
4902549	68	C	06/28/2022	11:55	-131.022	47.411	0	302.00	0	5.6630	0	33.9210	0	26.745	0	299.263	0	75.7	4	24.8	4	-1E+10	1	-1E+10	1	-1E+10	1	-1E+10	1	-1E+10	1	-1E+10	1
4902549	68	C	06/28/2022	11:55	-131.022	47.411	0	302.90	0	5.6600	0	33.9240	0	26.748	0	300.154	0	75.2	4	24.6	4	-1E+10	1	-1E+10	1	-1E+10	1	-1E+10	1	-1E+10	1	-1E+10	1
4902549	68	C	06/28/2022	11:55	-131.022	47.411	0	303.70	0	5.6670	0	33.9290	0	26.751	0	300.947	0	74.6	4	24.5	4	-1E+10	1	-1E+10	1	-1E+10	1	-1E+10	1	-1E+10	1	-1E+10	1
4902549	68	C	06/28/2022	11:55	-131.022	47.411	0	304.60	0	5.6690	0	33.9290	0	26.751	0	301.838	0	74.1	4	24.3	4	-1E+10	1	-1E+10	1	-1E+10	1	-1E+10	1	-1E+10	1	-1E+10	1
4902549	68	C	06/28/2022	11:55	-131.022	47.411	0	305.90	0	5.6780	0	33.9340	0	26.753	0	303.125	0	73.7	4	24.2	4	-1E+10	1	-1E+10	1	-1E+10	1	-1E+10	1	-1E+10	1	-1E+10	1
4902549	68	C	06/28/2022	11:55	-131.022	47.411	0	307.30	0	5.6810	0	33.9360	0	26.755	0	304.511	0	73.6	4	24.1	4	-1E+10	1	-1E+10	1	-1E+10	1	-1E+10	1	-1E+10	1	-1E+10	1
4902549	68	C	06/28/2022	11:55	-131.022	47.411	0	308.10	0	5.6750	0	33.9370	0	26.756	0	305.303	0	73.5	4	24.1	4	-1E+10	1	-1E+10	1	-1E+10	1	-1E+10	1	-1E+10	1	-1E+10	1
4902549	68	C	06/28/2022	11:55	-131.022	47.411	0	309.00	0	5.6670	0	33.9370	0	26.757	0	306.195	0	73.4	4	24.1	4	-1E+10	1	-1E+10	1	-1E+10	1	-1E+10	1	-1E+10	1	-1E+10	1
4902549	68	C	06/28/2022	11:55	-131.022	47.411	0	309.90	0	5.6570	0	33.9370	0	26.758	0	307.086	0	73.4	4	24.1	4	-1E+10	1	-1E+10	1	-1E+10	1	-1E+10	1	-1E+10	1	-1E+10	1
4902549	68	C	06/28/2022	11:55	-131.022	47.411	0	310.80	0	5.6500	0	33.9370	0	26.759	0	307.977	0	73.3	4	24.0	4	-1E+10	1	-1E+10	1	-1E+10	1	-1E+10	1	-1E+10	1	-1E+10	1
4902549	68	C	06/28/2022	11:55	-131.022	47.411	0	311.80	0	5.6460	0	33.9360	0	26.759	0	308.967	0	73.3	4	24.0	4	-1E+10	1	-1E+10	1	-1E+10	1	-1E+10	1	-1E+10	1	-1E+10	1
4902549	68	C	06/28/2022	11:55	-131.022	47.411	0	312.70	0	5.6440	0	33.9360	0	26.759	0	309.858	0	73.2	4	24.0	4	-1E+10	1	-1E+10	1	-1E+10	1	-1E+10	1	-1E+10	1	-1E+10	1
4902549	68	C	06/28/2022	11:55	-131.022	47.411	0	313.60	0	5.6410	0	33.9360	0	26.760	0	310.749	0	73.2	4	24.0	4	-1E+10	1	-1E+10	1	-1E+10	1	-1E+10	1	-1E+10	1	-1E+10	1
4902549	68	C	06/28/2022	11:55	-131.022	47.411	0	314.90	0	5.6270	0	33.9380	0	26.763	0	312.037	0	73.1	4	23.9	4	-1E+10	1	-1E+10	1	-1E+10	1	-1E+10	1	-1E+10	1	-1E+10	1
4902549	68	C	06/28/2022	11:55	-131.022	47.411	0	316.30	0	5.6100	0	33.9340	0	26.762	0	313.423	0	72.8	4	23.9	4	-1E+10	1	-1E+10	1	-1E+10	1	-1E+10	1	-1E+10	1	-1E+10	1
4902549	68	C	06/28/2022	11:55	-131.022	47.411	0	317.20	0	5.6070	0	33.9370	0	26.764	0	314.314	0	72.8	4	23.8	4	-1E+10	1	-1E+10	1	-1E+10	1	-1E+10	1	-1E+10	1	-1E+10	1
4902549	68	C	06/28/2022	11:55	-131.022	47.411	0	318.10	0	5.6030	0	33.9360	0	26.764	0	315.205	0	72.6	4	23.8	4	-1E+10	1	-1E+10	1	-1E+10	1	-1E+10	1	-1E+10	1	-1E+10	1
4902549	68	C	06/28/2022	11:55	-131.022	47.411	0	319.00	0	5.5830	0	33.9350	0	26.766	0	316.096	0	72.5	4	23.7	4	-1E+10	1	-1E+10	1	-1E+10	1	-1E+10	1	-1E+10	1	-1E+10	1
4902549	68	C	06/28/2022	11:55	-131.022	47.411	0	319.90	0	5.5720	0	33.9360	0	26.768	0	316.987	0	72.4	4	23.7	4	-1E+10	1	-1E+10	1	-1E+10	1	-1E+10	1	-1E+10	1	-1E+10	1
4902549	68	C	06/28/2022	11:55	-131.022	47.411	0	320.80	0	5.5730	0	33.9340	0	26.766	0	317.878	0	72.2	4	23.6	4	-1E+10	1	-1E+10	1	-1E+10	1	-1E+10	1	-1E+10	1	-1E+10	1
4902549	68	C	06/28/2022	11:55	-131.022	47.411	0	321.70	0	5.5730	0	33.9350	0	26.767	0	318.770	0	72.1	4	23.6	4	-1E+10	1	-1E+10	1	-1E+10	1	-1E+10	1	-1E+10	1	-1E+10	1
4902549	68	C	06/28/2022	11:55	-131.022	47.411	0	322.60	0	5.5780	0	33.9320	0	26.764	0	319.661	0	71.9	4	23.5	4	-1E+10	1	-1E+10	1	-1E+10	1	-1E+10	1	-1E+10	1	-1E+10	1
4902549	68	C	06/28/2022	11:55	-131.022	47.411	0	323.60	0	5.5790	0	33.9350	0	26.766	0	320.651	0	71.7	4	23.5	4	-1E+10	1	-1E+10	1	-1E+10	1	-1E+10	1	-1E+10	1	-1E+10	1
4902549	68	C	06/28/2022	11:55	-131.022	47.411	0	324.90	0	5.5670	0	33.9340	0	26.767	0	321.938	0	71.4	4	23.4	4	-1E+10	1	-1E+10	1	-1E+10	1	-1E+10	1	-1E+10	1	-1E+10	1
4902549	68	C	06/28/2022	11:55	-131.022	47.411	0	326.40	0	5.5340	0	33.9340	0	26.771	0	323.423	0	71.0	4	23.2	4	-1E+10	1	-1E+10	1	-1E+10	1	-1E+10	1	-1E+10	1	-1E+10	1
4902549	68	C	06/28/2022	11:55	-131.022	47.411	0	327.30	0	5.5240	0	33.9320	0	26.771	0	324.314	0	70.6	4	23.1	4	-1E+10	1	-1E+10	1	-1E+10	1	-1E+10	1	-1E+10	1	-1E+10	1
4902549	68	C	06/28/2022	11:55	-131.022	47.411	0	328.30	0	5.5210	0	33.9340	0	26.773	0	325.304	0	70.2	4	22.9	4	-1E+10	1	-1E+10	1	-1E+10	1	-1E+10	1	-1E+10	1	-1E+10	1
4902549	68	C	06/28/2022	11:55	-131.022	47.411	0	329.20	0	5.5150	0	33.9350	0	26.774	0	326.195	0	69.8	4	22.8	4	-1E+10	1	-1E+10	1	-1E+10	1	-1E+10	1	-1E+10	1	-1E+10	1
4902549	68	C	06/28/2022	11:55	-131.022	47.411	0	330.10	0	5.5130	0	33.9360	0	26.775	0	327.086	0	69.5	4	22.7	4	-1E+10	1	-1E+10	1	-1E+10	1	-1E+10	1	-1E+10	1	-1E+10	1
4902549	68	C	06/28/2022	11:55	-131.022	47.411	0	331.30	0	5.5130	0	33.9360	0	26.775	0	328.274	0	69.1	4	22.6	4	-1E+10	1	-1E+10	1	-1E+10	1	-1E+10	1	-1E+10	1	-1E+10	1
4902549	68	C	06/28/2022	11:55	-131.022	47.411	0	332.20	0	5.5130	0	33.9360	0	26.775	0	329.166	0	68.7	4	22.4	4	-1E+10	1	-1E+10	1	-1E+10	1	-1E+10	1	-1E+10	1	-1E+10	1
4902549	68	C	06/28/2022	11:55	-131.022	47.411	0	333.20	0	5.5110	0	33.9360	0	26.775	0	330.156	0	68.3	4	22.3	4	-1E+10	1	-1E+10	1	-1E+10	1	-1E+10	1	-1E+10	1	-1E+10	1
4902549	68	C	06/28/2022	11:55	-131.022	47.411	0	334.10	0	5.5010	0	33.9390	0	26.779	0	331.047	0	68.1	4	22.2	4	-1E+10	1	-1E+10	1	-1E+10	1	-1E+10	1	-1E+10	1	-1E+10	1
4902549	68	C	06/28/2022	11:55	-131.022	47.411	0	335.10	0	5.4770	0	33.9420	0	26.784	0	332.037	0	67.9	4	22.2	4	-1E+10	1	-1E+10	1	-1E+10	1	-1E+10	1	-1E+10	1	-1E+10	1
4902549	68	C	06/28/2022	11:55	-131.022	47.411	0	336.10	0	5.4640	0	33.9420	0	26.786	0	333.027	0	67.8	4	22.1	4	-1E+10	1	-1E+10	1	-1E+10	1	-1E+10	1	-1E+10	1	-1E+10	1
4902549	68	C	06/28/2022	11:55	-131.022	47.411	0	337.00	0	5.4540	0	33.9420	0	26.787	0	333.918	0	67.6	4	22.1	4	-1E+10	1	-1E+10	1	-1E+10	1	-1E+10	1	-1E+10	1	-1E+10	1
4902549	68	C	06/28/2022	11:55	-131.022	47.411	0	338.00	0	5.4460	0	33.9400	0	26.786	0	334.908	0	67.4	4	22.0	4	-1E+10	1	-1E+10	1	-1E+10	1	-1E+10	1	-1E+10	1	-1E+10	1
4902549	68	C	06/28/2022	11:55	-131.022	47.411	0	339.00	0	5.4290	0	33.9430	0	26.791	0	335.898	0	67.2	4	21.9	4	-1E+10	1	-1E+10	1	-1E+10	1	-1E+10	1	-1E+10	1	-1E+10	1
4902549	68	C	06/28/2022	11:55	-131.022	47.411	0	340.00	0	5.4170	0	33.9400	0	26.790	0	336.888	0	66.9	4	21.8	4	-1E+10	1	-1E+10	1	-1E+10	1	-1E+10	1	-1E+10	1	-1E+10	1
4902549	68	C	06/28/2022	11:55	-131.022	47.411	0	341.00	0	5.4080	0	33.9410	0	26.792	0	337.878	0	66.6	4	21.7	4	-1E+10	1	-1E+10	1	-1E+10	1	-1E+10	1	-1E+10	1	-1E+10	1
4902549	68	C	06/28/2022	11:55	-131.022	47.411	0	341.90	0	5.3990	0	33.9410	0	26.793	0	338.769	0	66.3	4	21.6	4	-1E+10	1	-1E+10	1	-1E+10	1	-1E+10	1	-1E+10	1	-1E+10	1
4902549	68	C	06/28/2022	11:55	-131.022	47.411	0	342.90	0	5.3910	0	33.9400	0	26.793	0	339.759	0	66.0	4	21.5	4	-1E+10	1	-1E+10	1	-1E+10	1	-1E+10	1	-1E+10	1	-1E+10	1
4902549	68	C	06/28/2022	11:55	-131.022	47.411	0	343.90	0	5.3840	0	33.9400	0	26.794	0	340.749	0	65.6	4	21.4	4	-1E+10	1	-1E+10	1	-1E+10	1	-1E+10	1	-1E+10	1	-1E+10	1
4902549	68	C	06/28/2022	11:55	-131.022	47.411	0	344.90	0	5.3810	0	33.9400	0	26.794	0	341.739	0	65.1	4	21.2	4	-1E+10	1	-1E+10	1	-1E+10	1	-1E+10	1	-1E+10	1	-1E+10	1
4902549	68	C	06/28/2022	11:55	-131.022	47.411	0	345.80	0	5.3800	0	33.9390	0	26.793	0	342.630	0	64.6	4	21.0	4	-1E+10	1	-1E+10	1	-1E+10	1	-1E+10	1	-1E+10	1	-1E+10	1
4902549	68	C	06/28/2022	11:55	-131.022	47.411	0	346.80	0	5.3470	0	33.9400	0	26.798	0	343.620	0	64.0	4	20.8	4	-1E+10	1	-1E+10	1	-1E+10	1	-1E+10	1	-1E+10	1	-1E+10	1
4902549	68	C	06/28/2022	11:55	-131.022	47.411	0	347.80	0	5.3430	0	33.9420	0	26.800	0	344.610	0	63.5	4	20.7	4	-1E+10	1	-1E+10	1	-1E+10	1	-1E+10	1	-1E+10	1	-1E+10	1
4902549	68	C	06/28/2022	11:55	-131.022	47.411	0	348.80	0	5.3250	0	33.9440	0	26.804	0	345.600	0	63.0	4	20.5	4	-1E+10	1	-1E+10	1	-1E+10	1	-1E+10	1	-1E+10	1	-1E+10	1
4902549	68	C	06/28/2022	11:55	-131.022	47.411	0	349.80	0	5.3270	0	33.9470	0	26.806	0	346.590	0	62.6	4	20.4	4	-1E+10	1	-1E+10	1	-1E+10	1	-1E+10	1	-1E+10	1	-1E+10	1
4902549	68	C	06/28/2022	11:55	-131.022	47.411	0	352.80	0	5.3220	0	33.9490	0	26.808	0	349.560	0	61.3	4	20.0	4	-1E+10	1	-1E+10	1	-1E+10	1	-1E+10	1	-1E+10	1	-1E+10	1
4902549	68	C	06/28/2022	11:55	-131.022	47.411	0	357.80	0	5.2930	0	33.9550	0	26.816	0	354.510	0	59.8	4	19.5	4	-1E+10	1	-1E+10	1	-1E+10	1	-1E+10	1	-1E+10	1	-1E+10	1
4902549	68	C	06/28/2022	11:55	-131.022	47.411	0	363.00	0	5.2750	0	33.9580	0	26.821	0	359.658	0	58.9	4	19.1	4	-1E+10	1	-1E+10	1	-1E+10	1	-1E+10	1	-1E+10	1	-1E+10	1
4902549	68	C	06/28/2022	11:55	-131.022	47.411	0	368.20	0	5.2560	0	33.9590	0	26.824	0	364.805	0	57.8	4	18.8	4	-1E+10	1	-1E+10	1	-1E+10	1	-1E+10	1	-1E+10	1	-1E+10	1
4902549	68	C	06/28/2022	11:55	-131.022	47.411	0	373.00	0	5.2280	0	33.9630	0	26.830	0	369.557	0	56.3	4	18.3	4	-1E+10	1	-1E+10	1	-1E+10	1	-1E+10	1	-1E+10	1	-1E+10	1
4902549	68	C	06/28/2022	11:55	-131.022	47.411	0	377.70	0	5.1920	0	33.9660	0	26.837	0	374.209	0	55.3	4	17.9	4	-1E+10	1	-1E+10	1	-1E+10	1	-1E+10	1	-1E+10	1	-1E+10	1
4902549	68	C	06/28/2022	11:55	-131.022	47.411	0	383.10	0	5.1520	0	33.9690	0	26.844	0	379.554	0	54.1	4	17.5	4	-1E+10	1	-1E+10	1	-1E+10	1	-1E+10	1	-1E+10	1	-1E+10	1
4902549	68	C	06/28/2022	11:55	-131.022	47.411	0	387.90	0	5.1300	0	33.9720	0	26.849	0	384.305	0	53.0	4	17.2	4	-1E+10	1	-1E+10	1	-1E+10	1	-1E+10	1	-1E+10	1	-1E+10	1
4902549	68	C	06/28/2022	11:55	-131.022	47.411	0	393.00	0	5.1020	0	33.9760	0	26.855	0	389.353	0	51.9	4	16.8	4	-1E+10	1	-1E+10	1	-1E+10	1	-1E+10	1	-1E+10	1	-1E+10	1
4902549	68	C	06/28/2022	11:55	-131.022	47.411	0	398.20	0	5.0890	0	33.9800	0	26.860	0	394.500	0	50.5	4	16.3	4	-1E+10	1	-1E+10	1	-1E+10	1	-1E+10	1	-1E+10	1	-1E+10	1
4902549	68	C	06/28/2022	11:55	-131.022	47.411	0	403.20	0	5.0650	0	33.9830	0	26.865	0	399.449	0	49.6	4	16.0	4	-1E+10	1	-1E+10	1	-1E+10	1	-1E+10	1	-1E+10	1	-1E+10	1
4902549	68	C	06/28/2022	11:55	-131.022	47.411	0	408.20	0	5.0400	0	33.9860	0	26.871	0	404.397	0	48.7	4	15.7	4	-1E+10	1	-1E+10	1	-1E+10	1	-1E+10	1	-1E+10	1	-1E+10	1
4902549	68	C	06/28/2022	11:55	-131.022	47.411	0	413.10	0	5.0160	0	33.9880	0	26.875	0	409.247	0	47.5	4	15.4	4	-1E+10	1	-1E+10	1	-1E+10	1	-1E+10	1	-1E+10	1	-1E+10	1
4902549	68	C	06/28/2022	11:55	-131.022	47.411	0	418.10	0	4.9850	0	33.9920	0	26.882	0	414.195	0	46.3	4	14.9	4	-1E+10	1	-1E+10	1	-1E+10	1	-1E+10	1	-1E+10	1	-1E+10	1
4902549	68	C	06/28/2022	11:55	-131.022	47.411	0	423.10	0	4.9670	0	33.9970	0	26.888	0	419.143	0	45.0	4	14.5	4	-1E+10	1	-1E+10	1	-1E+10	1	-1E+10	1	-1E+10	1	-1E+10	1
4902549	68	C	06/28/2022	11:55	-131.022	47.411	0	428.10	0	4.9480	0	34.0020	0	26.894	0	424.092	0	44.0	4	14.2	4	-1E+10	1	-1E+10	1	-1E+10	1	-1E+10	1	-1E+10	1	-1E+10	1
4902549	68	C	06/28/2022	11:55	-131.022	47.411	0	433.10	0	4.9250	0	34.0060	0	26.900	0	429.040	0	43.3	4	14.0	4	-1E+10	1	-1E+10	1	-1E+10	1	-1E+10	1	-1E+10	1	-1E+10	1
4902549	68	C	06/28/2022	11:55	-131.022	47.411	0	438.20	0	4.9060	0	34.0070	0	26.903	0	434.086	0	42.4	4	13.7	4	-1E+10	1	-1E+10	1	-1E+10	1	-1E+10	1	-1E+10	1	-1E+10	1
4902549	68	C	06/28/2022	11:55	-131.022	47.411	0	442.90	0	4.8820	0	34.0110	0	26.909	0	438.737	0	41.5	4	13.4	4	-1E+10	1	-1E+10	1	-1E+10	1	-1E+10	1	-1E+10	1	-1E+10	1
4902549	68	C	06/28/2022	11:55	-131.022	47.411	0	447.60	0	4.8740	0	34.0140	0	26.912	0	443.388	0	40.3	4	13.0	4	-1E+10	1	-1E+10	1	-1E+10	1	-1E+10	1	-1E+10	1	-1E+10	1
4902549	68	C	06/28/2022	11:55	-131.022	47.411	0	453.00	0	4.8640	0	34.0190	0	26.917	0	448.732	0	39.2	4	12.6	4	-1E+10	1	-1E+10	1	-1E+10	1	-1E+10	1	-1E+10	1	-1E+10	1
4902549	68	C	06/28/2022	11:55	-131.022	47.411	0	458.00	0	4.8520	0	34.0220	0	26.921	0	453.679	0	38.1	4	12.2	4	-1E+10	1	-1E+10	1	-1E+10	1	-1E+10	1	-1E+10	1	-1E+10	1
4902549	68	C	06/28/2022	11:55	-131.022	47.411	0	462.70	0	4.8320	0	34.0270	0	26.927	0	458.329	0	37.1	4	11.9	4	-1E+10	1	-1E+10	1	-1E+10	1	-1E+10	1	-1E+10	1	-1E+10	1
4902549	68	C	06/28/2022	11:55	-131.022	47.411	0	467.80	0	4.8160	0	34.0310	0	26.932	0	463.376	0	36.2	4	11.6	4	-1E+10	1	-1E+10	1	-1E+10	1	-1E+10	1	-1E+10	1	-1E+10	1
4902549	68	C	06/28/2022	11:55	-131.022	47.411	0	473.10	0	4.8020	0	34.0340	0	26.936	0	468.619	0	35.2	4	11.3	4	-1E+10	1	-1E+10	1	-1E+10	1	-1E+10	1	-1E+10	1	-1E+10	1
4902549	68	C	06/28/2022	11:55	-131.022	47.411	0	477.90	0	4.7840	0	34.0370	0	26.940	0	473.369	0	34.3	4	11.0	4	-1E+10	1	-1E+10	1	-1E+10	1	-1E+10	1	-1E+10	1	-1E+10	1
4902549	68	C	06/28/2022	11:55	-131.022	47.411	0	482.80	0	4.7430	0	34.0380	0	26.946	0	478.216	0	33.1	4	10.6	4	-1E+10	1	-1E+10	1	-1E+10	1	-1E+10	1	-1E+10	1	-1E+10	1
4902549	68	C	06/28/2022	11:55	-131.022	47.411	0	487.60	0	4.7190	0	34.0450	0	26.954	0	482.965	0	31.8	4	10.2	4	-1E+10	1	-1E+10	1	-1E+10	1	-1E+10	1	-1E+10	1	-1E+10	1
4902549	68	C	06/28/2022	11:55	-131.022	47.411	0	492.80	0	4.7200	0	34.0510	0	26.959	0	488.110	0	30.6	4	9.8	4	-1E+10	1	-1E+10	1	-1E+10	1	-1E+10	1	-1E+10	1	-1E+10	1
4902549	68	C	06/28/2022	11:55	-131.022	47.411	0	498.10	0	4.7120	0	34.0570	0	26.964	0	493.353	0	29.4	4	9.4	4	-1E+10	1	-1E+10	1	-1E+10	1	-1E+10	1	-1E+10	1	-1E+10	1
4902549	68	C	06/28/2022	11:55	-131.022	47.411	0	503.00	0	4.6870	0	34.0610	0	26.970	0	498.200	0	28.4	4	9.1	4	-1E+10	1	-1E+10	1	-1E+10	1	-1E+10	1	-1E+10	1	-1E+10	1
4902549	68	C	06/28/2022	11:55	-131.022	47.411	0	507.90	0	4.6920	0	34.0660	0	26.974	0	503.048	0	27.6	4	8.9	4	-1E+10	1	-1E+10	1	-1E+10	1	-1E+10	1	-1E+10	1	-1E+10	1
4902549	68	C	06/28/2022	11:55	-131.022	47.411	0	512.90	0	4.6630	0	34.0690	0	26.979	0	507.994	0	27.3	4	8.7	4	-1E+10	1	-1E+10	1	-1E+10	1	-1E+10	1	-1E+10	1	-1E+10	1
4902549	68	C	06/28/2022	11:55	-131.022	47.411	0	518.00	0	4.6260	0	34.0700	0	26.984	0	513.039	0	26.6	4	8.5	4	-1E+10	1	-1E+10	1	-1E+10	1	-1E+10	1	-1E+10	1	-1E+10	1
4902549	68	C	06/28/2022	11:55	-131.022	47.411	0	523.00	0	4.6050	0	34.0720	0	26.988	0	517.985	0	26.0	4	8.3	4	-1E+10	1	-1E+10	1	-1E+10	1	-1E+10	1	-1E+10	1	-1E+10	1
4902549	68	C	06/28/2022	11:55	-131.022	47.411	0	528.00	0	4.5950	0	34.0760	0	26.993	0	522.930	0	25.3	4	8.1	4	-1E+10	1	-1E+10	1	-1E+10	1	-1E+10	1	-1E+10	1	-1E+10	1
4902549	68	C	06/28/2022	11:55	-131.022	47.411	0	533.00	0	4.5660	0	34.0790	0	26.998	0	527.876	0	24.6	4	7.9	4	-1E+10	1	-1E+10	1	-1E+10	1	-1E+10	1	-1E+10	1	-1E+10	1
4902549	68	C	06/28/2022	11:55	-131.022	47.411	0	538.10	0	4.5630	0	34.0840	0	27.002	0	532.921	0	23.8	4	7.6	4	-1E+10	1	-1E+10	1	-1E+10	1	-1E+10	1	-1E+10	1	-1E+10	1
4902549	68	C	06/28/2022	11:55	-131.022	47.411	0	543.30	0	4.5580	0	34.0870	0	27.005	0	538.064	0	23.3	4	7.4	4	-1E+10	1	-1E+10	1	-1E+10	1	-1E+10	1	-1E+10	1	-1E+10	1
4902549	68	C	06/28/2022	11:55	-131.022	47.411	0	548.00	0	4.5440	0	34.0880	0	27.008	0	542.712	0	22.6	4	7.2	4	-1E+10	1	-1E+10	1	-1E+10	1	-1E+10	1	-1E+10	1	-1E+10	1
4902549	68	C	06/28/2022	11:55	-131.022	47.411	0	552.70	0	4.5290	0	34.0900	0	27.011	0	547.361	0	21.4	4	6.8	4	-1E+10	1	-1E+10	1	-1E+10	1	-1E+10	1	-1E+10	1	-1E+10	1
4902549	68	C	06/28/2022	11:55	-131.022	47.411	0	557.90	0	4.4990	0	34.1030	0	27.025	0	552.504	0	20.3	4	6.5	4	-1E+10	1	-1E+10	1	-1E+10	1	-1E+10	1	-1E+10	1	-1E+10	1
4902549	68	C	06/28/2022	11:55	-131.022	47.411	0	563.20	0	4.5090	0	34.1100	0	27.029	0	557.745	0	19.5	4	6.2	4	-1E+10	1	-1E+10	1	-1E+10	1	-1E+10	1	-1E+10	1	-1E+10	1
4902549	68	C	06/28/2022	11:55	-131.022	47.411	0	568.00	0	4.4920	0	34.1130	0	27.033	0	562.492	0	19.3	4	6.2	4	-1E+10	1	-1E+10	1	-1E+10	1	-1E+10	1	-1E+10	1	-1E+10	1
4902549	68	C	06/28/2022	11:55	-131.022	47.411	0	572.90	0	4.4510	0	34.1130	0	27.038	0	567.338	0	18.9	4	6.0	4	-1E+10	1	-1E+10	1	-1E+10	1	-1E+10	1	-1E+10	1	-1E+10	1
4902549	68	C	06/28/2022	11:55	-131.022	47.411	0	577.70	0	4.4300	0	34.1140	0	27.041	0	572.085	0	18.4	4	5.9	4	-1E+10	1	-1E+10	1	-1E+10	1	-1E+10	1	-1E+10	1	-1E+10	1
4902549	68	C	06/28/2022	11:55	-131.022	47.411	0	582.60	0	4.4190	0	34.1180	0	27.045	0	576.930	0	17.7	4	5.6	4	-1E+10	1	-1E+10	1	-1E+10	1	-1E+10	1	-1E+10	1	-1E+10	1
4902549	68	C	06/28/2022	11:55	-131.022	47.411	0	587.90	0	4.4090	0	34.1240	0	27.051	0	582.172	0	16.9	4	5.4	4	-1E+10	1	-1E+10	1	-1E+10	1	-1E+10	1	-1E+10	1	-1E+10	1
4902549	68	C	06/28/2022	11:55	-131.022	47.411	0	592.80	0	4.3960	0	34.1280	0	27.056	0	587.017	0	16.4	4	5.2	4	-1E+10	1	-1E+10	1	-1E+10	1	-1E+10	1	-1E+10	1	-1E+10	1
4902549	68	C	06/28/2022	11:55	-131.022	47.411	0	597.60	0	4.3770	0	34.1300	0	27.059	0	591.763	0	15.6	4	5.0	4	-1E+10	1	-1E+10	1	-1E+10	1	-1E+10	1	-1E+10	1	-1E+10	1
4902549	68	C	06/28/2022	11:55	-131.022	47.411	0	603.00	0	4.3690	0	34.1410	0	27.069	0	597.103	0	14.8	4	4.7	4	-1E+10	1	-1E+10	1	-1E+10	1	-1E+10	1	-1E+10	1	-1E+10	1
4902549	68	C	06/28/2022	11:55	-131.022	47.411	0	607.80	0	4.3640	0	34.1450	0	27.073	0	601.849	0	14.4	4	4.6	4	-1E+10	1	-1E+10	1	-1E+10	1	-1E+10	1	-1E+10	1	-1E+10	1
4902549	68	C	06/28/2022	11:55	-131.022	47.411	0	612.60	0	4.3550	0	34.1480	0	27.076	0	606.595	0	14.0	4	4.4	4	-1E+10	1	-1E+10	1	-1E+10	1	-1E+10	1	-1E+10	1	-1E+10	1
4902549	68	C	06/28/2022	11:55	-131.022	47.411	0	618.00	0	4.3390	0	34.1540	0	27.083	0	611.934	0	13.5	4	4.3	4	-1E+10	1	-1E+10	1	-1E+10	1	-1E+10	1	-1E+10	1	-1E+10	1
4902549	68	C	06/28/2022	11:55	-131.022	47.411	0	622.80	0	4.3270	0	34.1580	0	27.087	0	616.680	0	13.2	4	4.2	4	-1E+10	1	-1E+10	1	-1E+10	1	-1E+10	1	-1E+10	1	-1E+10	1
4902549	68	C	06/28/2022	11:55	-131.022	47.411	0	627.60	0	4.3180	0	34.1610	0	27.091	0	621.425	0	12.9	4	4.1	4	-1E+10	1	-1E+10	1	-1E+10	1	-1E+10	1	-1E+10	1	-1E+10	1
4902549	68	C	06/28/2022	11:55	-131.022	47.411	0	632.90	0	4.3040	0	34.1620	0	27.093	0	626.665	0	12.5	4	4.0	4	-1E+10	1	-1E+10	1	-1E+10	1	-1E+10	1	-1E+10	1	-1E+10	1
4902549	68	C	06/28/2022	11:55	-131.022	47.411	0	638.20	0	4.2970	0	34.1650	0	27.096	0	631.905	0	11.7	4	3.7	4	-1E+10	1	-1E+10	1	-1E+10	1	-1E+10	1	-1E+10	1	-1E+10	1
4902549	68	C	06/28/2022	11:55	-131.022	47.411	0	643.00	0	4.2980	0	34.1770	0	27.106	0	636.650	0	11.0	4	3.5	4	-1E+10	1	-1E+10	1	-1E+10	1	-1E+10	1	-1E+10	1	-1E+10	1
4902549	68	C	06/28/2022	11:55	-131.022	47.411	0	647.80	0	4.2750	0	34.1810	0	27.111	0	641.396	0	10.5	4	3.3	4	-1E+10	1	-1E+10	1	-1E+10	1	-1E+10	1	-1E+10	1	-1E+10	1
4902549	68	C	06/28/2022	11:55	-131.022	47.411	0	652.70	0	4.2700	0	34.1890	0	27.118	0	646.240	0	10.0	4	3.2	4	-1E+10	1	-1E+10	1	-1E+10	1	-1E+10	1	-1E+10	1	-1E+10	1
4902549	68	C	06/28/2022	11:55	-131.022	47.411	0	657.60	0	4.2650	0	34.1950	0	27.123	0	651.083	0	9.6	4	3.0	4	-1E+10	1	-1E+10	1	-1E+10	1	-1E+10	1	-1E+10	1	-1E+10	1
4902549	68	C	06/28/2022	11:55	-131.022	47.411	0	663.00	0	4.2540	0	34.2010	0	27.129	0	656.421	0	9.2	4	2.9	4	-1E+10	1	-1E+10	1	-1E+10	1	-1E+10	1	-1E+10	1	-1E+10	1
4902549	68	C	06/28/2022	11:55	-131.022	47.411	0	668.30	0	4.2390	0	34.2060	0	27.135	0	661.660	0	8.9	4	2.8	4	-1E+10	1	-1E+10	1	-1E+10	1	-1E+10	1	-1E+10	1	-1E+10	1
4902549	68	C	06/28/2022	11:55	-131.022	47.411	0	673.30	0	4.2290	0	34.2110	0	27.140	0	666.603	0	8.7	4	2.8	4	-1E+10	1	-1E+10	1	-1E+10	1	-1E+10	1	-1E+10	1	-1E+10	1
4902549	68	C	06/28/2022	11:55	-131.022	47.411	0	677.80	0	4.2260	0	34.2140	0	27.143	0	671.051	0	8.6	4	2.7	4	-1E+10	1	-1E+10	1	-1E+10	1	-1E+10	1	-1E+10	1	-1E+10	1
4902549	68	C	06/28/2022	11:55	-131.022	47.411	0	682.70	0	4.2140	0	34.2160	0	27.146	0	675.894	0	8.3	4	2.6	4	-1E+10	1	-1E+10	1	-1E+10	1	-1E+10	1	-1E+10	1	-1E+10	1
4902549	68	C	06/28/2022	11:55	-131.022	47.411	0	687.60	0	4.1950	0	34.2210	0	27.152	0	680.737	0	8.1	4	2.6	4	-1E+10	1	-1E+10	1	-1E+10	1	-1E+10	1	-1E+10	1	-1E+10	1
4902549	68	C	06/28/2022	11:55	-131.022	47.411	0	692.50	0	4.1610	0	34.2280	0	27.161	0	685.580	0	7.9	4	2.5	4	-1E+10	1	-1E+10	1	-1E+10	1	-1E+10	1	-1E+10	1	-1E+10	1
4902549	68	C	06/28/2022	11:55	-131.022	47.411	0	697.60	0	4.1360	0	34.2330	0	27.167	0	690.621	0	7.9	4	2.5	4	-1E+10	1	-1E+10	1	-1E+10	1	-1E+10	1	-1E+10	1	-1E+10	1
4902549	68	C	06/28/2022	11:55	-131.022	47.411	0	702.70	0	4.1100	0	34.2350	0	27.172	0	695.661	0	8.1	4	2.6	4	-1E+10	1	-1E+10	1	-1E+10	1	-1E+10	1	-1E+10	1	-1E+10	1
4902549	68	C	06/28/2022	11:55	-131.022	47.411	0	707.90	0	4.0910	0	34.2340	0	27.173	0	700.800	0	8.5	4	2.7	4	-1E+10	1	-1E+10	1	-1E+10	1	-1E+10	1	-1E+10	1	-1E+10	1
4902549	68	C	06/28/2022	11:55	-131.022	47.411	0	713.10	0	4.0290	0	34.2310	0	27.177	0	705.939	0	8.7	4	2.8	4	-1E+10	1	-1E+10	1	-1E+10	1	-1E+10	1	-1E+10	1	-1E+10	1
4902549	68	C	06/28/2022	11:55	-131.022	47.411	0	718.10	0	4.0060	0	34.2310	0	27.179	0	710.881	0	8.7	4	2.8	4	-1E+10	1	-1E+10	1	-1E+10	1	-1E+10	1	-1E+10	1	-1E+10	1
4902549	68	C	06/28/2022	11:55	-131.022	47.411	0	722.70	0	3.9950	0	34.2320	0	27.181	0	715.427	0	8.7	4	2.7	4	-1E+10	1	-1E+10	1	-1E+10	1	-1E+10	1	-1E+10	1	-1E+10	1
4902549	68	C	06/28/2022	11:55	-131.022	47.411	0	727.90	0	3.9930	0	34.2350	0	27.184	0	720.565	0	8.7	4	2.7	4	-1E+10	1	-1E+10	1	-1E+10	1	-1E+10	1	-1E+10	1	-1E+10	1
4902549	68	C	06/28/2022	11:55	-131.022	47.411	0	732.90	0	3.9710	0	34.2350	0	27.186	0	725.506	0	8.9	4	2.8	4	-1E+10	1	-1E+10	1	-1E+10	1	-1E+10	1	-1E+10	1	-1E+10	1
4902549	68	C	06/28/2022	11:55	-131.022	47.411	0	737.60	0	3.9440	0	34.2320	0	27.187	0	730.151	0	9.0	4	2.8	4	-1E+10	1	-1E+10	1	-1E+10	1	-1E+10	1	-1E+10	1	-1E+10	1
4902549	68	C	06/28/2022	11:55	-131.022	47.411	0	742.90	0	3.9030	0	34.2340	0	27.192	0	735.388	0	8.9	4	2.8	4	-1E+10	1	-1E+10	1	-1E+10	1	-1E+10	1	-1E+10	1	-1E+10	1
4902549	68	C	06/28/2022	11:55	-131.022	47.411	0	748.30	0	3.8920	0	34.2370	0	27.196	0	740.724	0	8.8	4	2.8	4	-1E+10	1	-1E+10	1	-1E+10	1	-1E+10	1	-1E+10	1	-1E+10	1
4902549	68	C	06/28/2022	11:55	-131.022	47.411	0	753.30	0	3.8600	0	34.2410	0	27.202	0	745.664	0	8.6	4	2.7	4	-1E+10	1	-1E+10	1	-1E+10	1	-1E+10	1	-1E+10	1	-1E+10	1
4902549	68	C	06/28/2022	11:55	-131.022	47.411	0	757.90	0	3.8490	0	34.2430	0	27.205	0	750.209	0	8.6	4	2.7	4	-1E+10	1	-1E+10	1	-1E+10	1	-1E+10	1	-1E+10	1	-1E+10	1
4902549	68	C	06/28/2022	11:55	-131.022	47.411	0	762.50	0	3.8400	0	34.2450	0	27.207	0	754.754	0	8.5	4	2.7	4	-1E+10	1	-1E+10	1	-1E+10	1	-1E+10	1	-1E+10	1	-1E+10	1
4902549	68	C	06/28/2022	11:55	-131.022	47.411	0	767.70	0	3.8390	0	34.2450	0	27.208	0	759.892	0	8.5	4	2.7	4	-1E+10	1	-1E+10	1	-1E+10	1	-1E+10	1	-1E+10	1	-1E+10	1
4902549	68	C	06/28/2022	11:55	-131.022	47.411	0	773.00	0	3.8270	0	34.2480	0	27.211	0	765.128	0	8.4	4	2.6	4	-1E+10	1	-1E+10	1	-1E+10	1	-1E+10	1	-1E+10	1	-1E+10	1
4902549	68	C	06/28/2022	11:55	-131.022	47.411	0	778.30	0	3.8190	0	34.2490	0	27.213	0	770.364	0	8.3	4	2.6	4	-1E+10	1	-1E+10	1	-1E+10	1	-1E+10	1	-1E+10	1	-1E+10	1
4902549	68	C	06/28/2022	11:55	-131.022	47.411	0	783.40	0	3.8120	0	34.2510	0	27.215	0	775.403	0	8.3	4	2.6	4	-1E+10	1	-1E+10	1	-1E+10	1	-1E+10	1	-1E+10	1	-1E+10	1
4902549	68	C	06/28/2022	11:55	-131.022	47.411	0	788.00	0	3.8060	0	34.2520	0	27.217	0	779.948	0	8.2	4	2.6	4	-1E+10	1	-1E+10	1	-1E+10	1	-1E+10	1	-1E+10	1	-1E+10	1
4902549	68	C	06/28/2022	11:55	-131.022	47.411	0	792.90	0	3.7930	0	34.2550	0	27.220	0	784.788	0	8.1	4	2.6	4	-1E+10	1	-1E+10	1	-1E+10	1	-1E+10	1	-1E+10	1	-1E+10	1
4902549	68	C	06/28/2022	11:55	-131.022	47.411	0	797.90	0	3.7870	0	34.2560	0	27.222	0	789.728	0	8.1	4	2.5	4	-1E+10	1	-1E+10	1	-1E+10	1	-1E+10	1	-1E+10	1	-1E+10	1
4902549	68	C	06/28/2022	11:55	-131.022	47.411	0	803.00	0	3.7790	0	34.2580	0	27.224	0	794.766	0	8.0	4	2.5	4	-1E+10	1	-1E+10	1	-1E+10	1	-1E+10	1	-1E+10	1	-1E+10	1
4902549	68	C	06/28/2022	11:55	-131.022	47.411	0	808.00	0	3.7730	0	34.2590	0	27.226	0	799.705	0	8.0	4	2.5	4	-1E+10	1	-1E+10	1	-1E+10	1	-1E+10	1	-1E+10	1	-1E+10	1
4902549	68	C	06/28/2022	11:55	-131.022	47.411	0	813.10	0	3.7600	0	34.2610	0	27.229	0	804.743	0	7.9	4	2.5	4	-1E+10	1	-1E+10	1	-1E+10	1	-1E+10	1	-1E+10	1	-1E+10	1
4902549	68	C	06/28/2022	11:55	-131.022	47.411	0	817.90	0	3.7560	0	34.2620	0	27.230	0	809.484	0	7.9	4	2.5	4	-1E+10	1	-1E+10	1	-1E+10	1	-1E+10	1	-1E+10	1	-1E+10	1
4902549	68	C	06/28/2022	11:55	-131.022	47.411	0	822.70	0	3.7510	0	34.2630	0	27.231	0	814.225	0	7.8	4	2.5	4	-1E+10	1	-1E+10	1	-1E+10	1	-1E+10	1	-1E+10	1	-1E+10	1
4902549	68	C	06/28/2022	11:55	-131.022	47.411	0	828.10	0	3.7390	0	34.2650	0	27.234	0	819.559	0	7.7	4	2.4	4	-1E+10	1	-1E+10	1	-1E+10	1	-1E+10	1	-1E+10	1	-1E+10	1
4902549	68	C	06/28/2022	11:55	-131.022	47.411	0	833.00	0	3.7280	0	34.2670	0	27.237	0	824.399	0	7.7	4	2.4	4	-1E+10	1	-1E+10	1	-1E+10	1	-1E+10	1	-1E+10	1	-1E+10	1
4902549	68	C	06/28/2022	11:55	-131.022	47.411	0	838.00	0	3.7170	0	34.2690	0	27.239	0	829.337	0	7.6	4	2.4	4	-1E+10	1	-1E+10	1	-1E+10	1	-1E+10	1	-1E+10	1	-1E+10	1
4902549	68	C	06/28/2022	11:55	-131.022	47.411	0	843.00	0	3.7110	0	34.2710	0	27.242	0	834.276	0	7.5	4	2.4	4	-1E+10	1	-1E+10	1	-1E+10	1	-1E+10	1	-1E+10	1	-1E+10	1
4902549	68	C	06/28/2022	11:55	-131.022	47.411	0	848.00	0	3.6980	0	34.2740	0	27.245	0	839.214	0	7.4	4	2.3	4	-1E+10	1	-1E+10	1	-1E+10	1	-1E+10	1	-1E+10	1	-1E+10	1
4902549	68	C	06/28/2022	11:55	-131.022	47.411	0	853.20	0	3.6840	0	34.2770	0	27.249	0	844.350	0	7.4	4	2.3	4	-1E+10	1	-1E+10	1	-1E+10	1	-1E+10	1	-1E+10	1	-1E+10	1
4902549	68	C	06/28/2022	11:55	-131.022	47.411	0	857.90	0	3.6680	0	34.2790	0	27.252	0	848.991	0	7.4	4	2.3	4	-1E+10	1	-1E+10	1	-1E+10	1	-1E+10	1	-1E+10	1	-1E+10	1
4902549	68	C	06/28/2022	11:55	-131.022	47.411	0	862.70	0	3.6570	0	34.2800	0	27.254	0	853.732	0	7.5	4	2.4	4	-1E+10	1	-1E+10	1	-1E+10	1	-1E+10	1	-1E+10	1	-1E+10	1
4902549	68	C	06/28/2022	11:55	-131.022	47.411	0	867.90	0	3.6200	0	34.2800	0	27.258	0	858.867	0	7.6	4	2.4	4	-1E+10	1	-1E+10	1	-1E+10	1	-1E+10	1	-1E+10	1	-1E+10	1
4902549	68	C	06/28/2022	11:55	-131.022	47.411	0	873.10	0	3.5970	0	34.2800	0	27.260	0	864.002	0	7.6	4	2.4	4	-1E+10	1	-1E+10	1	-1E+10	1	-1E+10	1	-1E+10	1	-1E+10	1
4902549	68	C	06/28/2022	11:55	-131.022	47.411	0	877.90	0	3.5850	0	34.2820	0	27.263	0	868.742	0	7.6	4	2.4	4	-1E+10	1	-1E+10	1	-1E+10	1	-1E+10	1	-1E+10	1	-1E+10	1
4902549	68	C	06/28/2022	11:55	-131.022	47.411	0	882.60	0	3.5600	0	34.2840	0	27.267	0	873.383	0	7.5	4	2.4	4	-1E+10	1	-1E+10	1	-1E+10	1	-1E+10	1	-1E+10	1	-1E+10	1
4902549	68	C	06/28/2022	11:55	-131.022	47.411	0	887.90	0	3.5410	0	34.2880	0	27.272	0	878.617	0	7.5	4	2.3	4	-1E+10	1	-1E+10	1	-1E+10	1	-1E+10	1	-1E+10	1	-1E+10	1
4902549	68	C	06/28/2022	11:55	-131.022	47.411	0	893.10	0	3.5330	0	34.2910	0	27.275	0	883.751	0	7.5	4	2.3	4	-1E+10	1	-1E+10	1	-1E+10	1	-1E+10	1	-1E+10	1	-1E+10	1
4902549	68	C	06/28/2022	11:55	-131.022	47.411	0	897.70	0	3.5190	0	34.2920	0	27.277	0	888.293	0	7.5	4	2.3	4	-1E+10	1	-1E+10	1	-1E+10	1	-1E+10	1	-1E+10	1	-1E+10	1
4902549	68	C	06/28/2022	11:55	-131.022	47.411	0	902.80	0	3.5050	0	34.2930	0	27.280	0	893.329	0	7.4	4	2.3	4	-1E+10	1	-1E+10	1	-1E+10	1	-1E+10	1	-1E+10	1	-1E+10	1
4902549	68	C	06/28/2022	11:55	-131.022	47.411	0	907.80	0	3.4880	0	34.2950	0	27.283	0	898.266	0	7.3	4	2.3	4	-1E+10	1	-1E+10	1	-1E+10	1	-1E+10	1	-1E+10	1	-1E+10	1
4902549	68	C	06/28/2022	11:55	-131.022	47.411	0	912.90	0	3.4730	0	34.2990	0	27.287	0	903.301	0	7.2	4	2.3	4	-1E+10	1	-1E+10	1	-1E+10	1	-1E+10	1	-1E+10	1	-1E+10	1
4902549	68	C	06/28/2022	11:55	-131.022	47.411	0	918.00	0	3.4570	0	34.3030	0	27.292	0	908.337	0	7.1	4	2.2	4	-1E+10	1	-1E+10	1	-1E+10	1	-1E+10	1	-1E+10	1	-1E+10	1
4902549	68	C	06/28/2022	11:55	-131.022	47.411	0	922.90	0	3.4460	0	34.3060	0	27.296	0	913.174	0	7.1	4	2.2	4	-1E+10	1	-1E+10	1	-1E+10	1	-1E+10	1	-1E+10	1	-1E+10	1
4902549	68	C	06/28/2022	11:55	-131.022	47.411	0	927.80	0	3.4260	0	34.3100	0	27.301	0	918.012	0	7.0	4	2.2	4	-1E+10	1	-1E+10	1	-1E+10	1	-1E+10	1	-1E+10	1	-1E+10	1
4902549	68	C	06/28/2022	11:55	-131.022	47.411	0	932.80	0	3.4190	0	34.3120	0	27.303	0	922.948	0	6.9	4	2.2	4	-1E+10	1	-1E+10	1	-1E+10	1	-1E+10	1	-1E+10	1	-1E+10	1
4902549	68	C	06/28/2022	11:55	-131.022	47.411	0	937.80	0	3.4090	0	34.3150	0	27.306	0	927.884	0	6.8	4	2.1	4	-1E+10	1	-1E+10	1	-1E+10	1	-1E+10	1	-1E+10	1	-1E+10	1
4902549	68	C	06/28/2022	11:55	-131.022	47.411	0	942.90	0	3.4040	0	34.3190	0	27.310	0	932.919	0	6.8	4	2.1	4	-1E+10	1	-1E+10	1	-1E+10	1	-1E+10	1	-1E+10	1	-1E+10	1
4902549	68	C	06/28/2022	11:55	-131.022	47.411	0	948.00	0	3.3910	0	34.3210	0	27.313	0	937.954	0	6.7	4	2.1	4	-1E+10	1	-1E+10	1	-1E+10	1	-1E+10	1	-1E+10	1	-1E+10	1
4902549	68	C	06/28/2022	11:55	-131.022	47.411	0	952.70	0	3.3870	0	34.3250	0	27.317	0	942.593	0	6.7	4	2.1	4	-1E+10	1	-1E+10	1	-1E+10	1	-1E+10	1	-1E+10	1	-1E+10	1
4902549	68	C	06/28/2022	11:55	-131.022	47.411	0	957.90	0	3.3840	0	34.3270	0	27.319	0	947.726	0	6.6	4	2.1	4	-1E+10	1	-1E+10	1	-1E+10	1	-1E+10	1	-1E+10	1	-1E+10	1
4902549	68	C	06/28/2022	11:55	-131.022	47.411	0	963.30	0	3.3830	0	34.3310	0	27.322	0	953.057	0	6.6	4	2.0	4	-1E+10	1	-1E+10	1	-1E+10	1	-1E+10	1	-1E+10	1	-1E+10	1
4902549	68	C	06/28/2022	11:55	-131.022	47.411	0	968.20	0	3.3720	0	34.3320	0	27.324	0	957.893	0	6.6	4	2.1	4	-1E+10	1	-1E+10	1	-1E+10	1	-1E+10	1	-1E+10	1	-1E+10	1
4902549	68	C	06/28/2022	11:55	-131.022	47.411	0	973.20	0	3.3610	0	34.3320	0	27.325	0	962.829	0	6.6	4	2.0	4	-1E+10	1	-1E+10	1	-1E+10	1	-1E+10	1	-1E+10	1	-1E+10	1
4902549	68	C	06/28/2022	11:55	-131.022	47.411	0	978.20	0	3.3480	0	34.3350	0	27.328	0	967.764	0	6.6	4	2.0	4	-1E+10	1	-1E+10	1	-1E+10	1	-1E+10	1	-1E+10	1	-1E+10	1
4902549	68	C	06/28/2022	11:55	-131.022	47.411	0	983.10	0	3.3380	0	34.3360	0	27.330	0	972.600	0	6.6	4	2.0	4	-1E+10	1	-1E+10	1	-1E+10	1	-1E+10	1	-1E+10	1	-1E+10	1
4902549	68	C	06/28/2022	11:55	-131.022	47.411	0	988.10	0	3.3320	0	34.3370	0	27.332	0	977.535	0	6.5	4	2.0	4	-1E+10	1	-1E+10	1	-1E+10	1	-1E+10	1	-1E+10	1	-1E+10	1
4902549	68	C	06/28/2022	11:55	-131.022	47.411	0	993.10	0	3.3170	0	34.3400	0	27.335	0	982.470	0	6.5	4	2.0	4	-1E+10	1	-1E+10	1	-1E+10	1	-1E+10	1	-1E+10	1	-1E+10	1
4902549	68	C	06/28/2022	11:55	-131.022	47.411	0	997.80	0	3.3080	0	34.3410	0	27.337	0	987.109	0	6.5	4	2.0	4	-1E+10	1	-1E+10	1	-1E+10	1	-1E+10	1	-1E+10	1	-1E+10	1
4902549	68	C	06/28/2022	11:55	-131.022	47.411	0	1005.00	0	3.2990	0	34.3450	0	27.341	0	994.214	0	6.5	4	2.0	4	-1E+10	1	-1E+10	1	-1E+10	1	-1E+10	1	-1E+10	1	-1E+10	1
4902549	68	C	06/28/2022	11:55	-131.022	47.411	0	1015.10	0	3.2840	0	34.3500	0	27.347	0	1004.182	0	6.4	4	2.0	4	-1E+10	1	-1E+10	1	-1E+10	1	-1E+10	1	-1E+10	1	-1E+10	1
4902549	68	C	06/28/2022	11:55	-131.022	47.411	0	1025.40	0	3.2920	0	34.3580	0	27.352	0	1014.346	0	6.4	4	2.0	4	-1E+10	1	-1E+10	1	-1E+10	1	-1E+10	1	-1E+10	1	-1E+10	1
4902549	68	C	06/28/2022	11:55	-131.022	47.411	0	1035.70	0	3.2550	0	34.3620	0	27.359	0	1024.510	0	6.5	4	2.0	4	-1E+10	1	-1E+10	1	-1E+10	1	-1E+10	1	-1E+10	1	-1E+10	1
4902549	68	C	06/28/2022	11:55	-131.022	47.411	0	1045.40	0	3.2350	0	34.3650	0	27.363	0	1034.081	0	6.5	4	2.0	4	-1E+10	1	-1E+10	1	-1E+10	1	-1E+10	1	-1E+10	1	-1E+10	1
4902549	68	C	06/28/2022	11:55	-131.022	47.411	0	1055.30	0	3.2320	0	34.3690	0	27.367	0	1043.850	0	6.5	4	2.0	4	-1E+10	1	-1E+10	1	-1E+10	1	-1E+10	1	-1E+10	1	-1E+10	1
4902549	68	C	06/28/2022	11:55	-131.022	47.411	0	1065.40	0	3.2200	0	34.3720	0	27.370	0	1053.815	0	6.6	4	2.0	4	-1E+10	1	-1E+10	1	-1E+10	1	-1E+10	1	-1E+10	1	-1E+10	1
4902549	68	C	06/28/2022	11:55	-131.022	47.411	0	1075.10	0	3.2020	0	34.3760	0	27.375	0	1063.384	0	6.7	4	2.1	4	-1E+10	1	-1E+10	1	-1E+10	1	-1E+10	1	-1E+10	1	-1E+10	1
4902549	68	C	06/28/2022	11:55	-131.022	47.411	0	1085.10	0	3.1830	0	34.3800	0	27.380	0	1073.250	0	6.8	4	2.1	4	-1E+10	1	-1E+10	1	-1E+10	1	-1E+10	1	-1E+10	1	-1E+10	1
4902549	68	C	06/28/2022	11:55	-131.022	47.411	0	1095.40	0	3.1720	0	34.3840	0	27.385	0	1083.411	0	6.8	4	2.1	4	-1E+10	1	-1E+10	1	-1E+10	1	-1E+10	1	-1E+10	1	-1E+10	1
4902549	68	C	06/28/2022	11:55	-131.022	47.411	0	1105.80	0	3.1550	0	34.3870	0	27.389	0	1093.670	0	6.9	4	2.1	4	-1E+10	1	-1E+10	1	-1E+10	1	-1E+10	1	-1E+10	1	-1E+10	1
4902549	68	C	06/28/2022	11:55	-131.022	47.411	0	1115.80	0	3.1340	0	34.3900	0	27.393	0	1103.534	0	7.0	4	2.2	4	-1E+10	1	-1E+10	1	-1E+10	1	-1E+10	1	-1E+10	1	-1E+10	1
4902549	68	C	06/28/2022	11:55	-131.022	47.411	0	1125.60	0	3.1140	0	34.3910	0	27.396	0	1113.200	0	7.0	4	2.2	4	-1E+10	1	-1E+10	1	-1E+10	1	-1E+10	1	-1E+10	1	-1E+10	1
4902549	68	C	06/28/2022	11:55	-131.022	47.411	0	1135.30	0	3.0980	0	34.3920	0	27.398	0	1122.768	0	7.1	4	2.2	4	-1E+10	1	-1E+10	1	-1E+10	1	-1E+10	1	-1E+10	1	-1E+10	1
4902549	68	C	06/28/2022	11:55	-131.022	47.411	0	1145.50	0	3.0860	0	34.3950	0	27.402	0	1132.828	0	7.3	4	2.3	4	-1E+10	1	-1E+10	1	-1E+10	1	-1E+10	1	-1E+10	1	-1E+10	1
4902549	68	C	06/28/2022	11:55	-131.022	47.411	0	1155.70	0	3.0660	0	34.4010	0	27.408	0	1142.887	0	7.6	4	2.3	4	-1E+10	1	-1E+10	1	-1E+10	1	-1E+10	1	-1E+10	1	-1E+10	1
4902549	68	C	06/28/2022	11:55	-131.022	47.411	0	1165.20	0	3.0550	0	34.4070	0	27.414	0	1152.256	0	7.8	4	2.4	4	-1E+10	1	-1E+10	1	-1E+10	1	-1E+10	1	-1E+10	1	-1E+10	1
4902549	68	C	06/28/2022	11:55	-131.022	47.411	0	1175.40	0	3.0390	0	34.4110	0	27.419	0	1162.314	0	7.9	4	2.4	4	-1E+10	1	-1E+10	1	-1E+10	1	-1E+10	1	-1E+10	1	-1E+10	1
4902549	68	C	06/28/2022	11:55	-131.022	47.411	0	1185.80	0	2.9980	0	34.4110	0	27.423	0	1172.569	0	8.0	4	2.5	4	-1E+10	1	-1E+10	1	-1E+10	1	-1E+10	1	-1E+10	1	-1E+10	1
4902549	68	C	06/28/2022	11:55	-131.022	47.411	0	1195.40	0	2.9810	0	34.4140	0	27.427	0	1182.035	0	8.1	4	2.5	4	-1E+10	1	-1E+10	1	-1E+10	1	-1E+10	1	-1E+10	1	-1E+10	1
4902549	68	C	06/28/2022	11:55	-131.022	47.411	0	1205.40	0	2.9670	0	34.4160	0	27.429	0	1191.895	0	8.3	4	2.6	4	-1E+10	1	-1E+10	1	-1E+10	1	-1E+10	1	-1E+10	1	-1E+10	1
4902549	68	C	06/28/2022	11:55	-131.022	47.411	0	1215.30	0	2.9450	0	34.4200	0	27.435	0	1201.656	0	8.5	4	2.6	4	-1E+10	1	-1E+10	1	-1E+10	1	-1E+10	1	-1E+10	1	-1E+10	1
4902549	68	C	06/28/2022	11:55	-131.022	47.411	0	1225.40	0	2.9270	0	34.4220	0	27.438	0	1211.613	0	8.7	4	2.7	4	-1E+10	1	-1E+10	1	-1E+10	1	-1E+10	1	-1E+10	1	-1E+10	1
4902549	68	C	06/28/2022	11:55	-131.022	47.411	0	1235.30	0	2.9130	0	34.4260	0	27.442	0	1221.373	0	9.0	4	2.8	4	-1E+10	1	-1E+10	1	-1E+10	1	-1E+10	1	-1E+10	1	-1E+10	1
4902549	68	C	06/28/2022	11:55	-131.022	47.411	0	1245.20	0	2.8980	0	34.4310	0	27.448	0	1231.133	0	9.3	4	2.9	4	-1E+10	1	-1E+10	1	-1E+10	1	-1E+10	1	-1E+10	1	-1E+10	1
4902549	68	C	06/28/2022	11:55	-131.022	47.411	0	1255.30	0	2.8710	0	34.4340	0	27.453	0	1241.089	0	9.6	4	3.0	4	-1E+10	1	-1E+10	1	-1E+10	1	-1E+10	1	-1E+10	1	-1E+10	1
4902549	68	C	06/28/2022	11:55	-131.022	47.411	0	1265.70	0	2.8440	0	34.4370	0	27.457	0	1251.340	0	9.9	4	3.0	4	-1E+10	1	-1E+10	1	-1E+10	1	-1E+10	1	-1E+10	1	-1E+10	1
4902549	68	C	06/28/2022	11:55	-131.022	47.411	0	1275.40	0	2.8250	0	34.4400	0	27.462	0	1260.901	0	10.1	4	3.1	4	-1E+10	1	-1E+10	1	-1E+10	1	-1E+10	1	-1E+10	1	-1E+10	1
4902549	68	C	06/28/2022	11:55	-131.022	47.411	0	1285.30	0	2.8100	0	34.4420	0	27.465	0	1270.659	0	10.3	4	3.2	4	-1E+10	1	-1E+10	1	-1E+10	1	-1E+10	1	-1E+10	1	-1E+10	1
4902549	68	C	06/28/2022	11:55	-131.022	47.411	0	1295.40	0	2.7910	0	34.4440	0	27.468	0	1280.613	0	10.5	4	3.2	4	-1E+10	1	-1E+10	1	-1E+10	1	-1E+10	1	-1E+10	1	-1E+10	1
4902549	68	C	06/28/2022	11:55	-131.022	47.411	0	1305.10	0	2.7760	0	34.4470	0	27.472	0	1290.173	0	10.8	4	3.3	4	-1E+10	1	-1E+10	1	-1E+10	1	-1E+10	1	-1E+10	1	-1E+10	1
4902549	68	C	06/28/2022	11:55	-131.022	47.411	0	1315.00	0	2.7610	0	34.4490	0	27.475	0	1299.929	0	11.1	4	3.4	4	-1E+10	1	-1E+10	1	-1E+10	1	-1E+10	1	-1E+10	1	-1E+10	1
4902549	68	C	06/28/2022	11:55	-131.022	47.411	0	1325.40	0	2.7540	0	34.4510	0	27.477	0	1310.177	0	11.4	4	3.5	4	-1E+10	1	-1E+10	1	-1E+10	1	-1E+10	1	-1E+10	1	-1E+10	1
4902549	68	C	06/28/2022	11:55	-131.022	47.411	0	1335.50	0	2.7280	0	34.4550	0	27.482	0	1320.130	0	11.8	4	3.6	4	-1E+10	1	-1E+10	1	-1E+10	1	-1E+10	1	-1E+10	1	-1E+10	1
4902549	68	C	06/28/2022	11:55	-131.022	47.411	0	1345.40	0	2.7050	0	34.4580	0	27.487	0	1329.885	0	12.2	4	3.7	4	-1E+10	1	-1E+10	1	-1E+10	1	-1E+10	1	-1E+10	1	-1E+10	1
4902549	68	C	06/28/2022	11:55	-131.022	47.411	0	1355.70	0	2.6910	0	34.4600	0	27.490	0	1340.033	0	12.4	4	3.8	4	-1E+10	1	-1E+10	1	-1E+10	1	-1E+10	1	-1E+10	1	-1E+10	1
4902549	68	C	06/28/2022	11:55	-131.022	47.411	0	1365.60	0	2.6700	0	34.4630	0	27.494	0	1349.787	0	12.7	4	3.9	4	-1E+10	1	-1E+10	1	-1E+10	1	-1E+10	1	-1E+10	1	-1E+10	1
4902549	68	C	06/28/2022	11:55	-131.022	47.411	0	1375.20	0	2.6580	0	34.4640	0	27.496	0	1359.245	0	13.0	4	4.0	4	-1E+10	1	-1E+10	1	-1E+10	1	-1E+10	1	-1E+10	1	-1E+10	1
4902549	68	C	06/28/2022	11:55	-131.022	47.411	0	1385.20	0	2.6400	0	34.4660	0	27.499	0	1369.096	0	13.3	4	4.1	4	-1E+10	1	-1E+10	1	-1E+10	1	-1E+10	1	-1E+10	1	-1E+10	1
4902549	68	C	06/28/2022	11:55	-131.022	47.411	0	1395.70	0	2.6190	0	34.4690	0	27.503	0	1379.440	0	13.6	4	4.2	4	-1E+10	1	-1E+10	1	-1E+10	1	-1E+10	1	-1E+10	1	-1E+10	1
4902549	68	C	06/28/2022	11:55	-131.022	47.411	0	1405.40	0	2.6050	0	34.4700	0	27.505	0	1388.995	0	13.8	4	4.2	4	-1E+10	1	-1E+10	1	-1E+10	1	-1E+10	1	-1E+10	1	-1E+10	1
4902549	68	C	06/28/2022	11:55	-131.022	47.411	0	1415.00	0	2.5970	0	34.4710	0	27.507	0	1398.451	0	14.1	4	4.3	4	-1E+10	1	-1E+10	1	-1E+10	1	-1E+10	1	-1E+10	1	-1E+10	1
4902549	68	C	06/28/2022	11:55	-131.022	47.411	0	1425.10	0	2.5810	0	34.4740	0	27.511	0	1408.399	0	14.5	4	4.4	4	-1E+10	1	-1E+10	1	-1E+10	1	-1E+10	1	-1E+10	1	-1E+10	1
4902549	68	C	06/28/2022	11:55	-131.022	47.411	0	1435.30	0	2.5680	0	34.4760	0	27.513	0	1418.446	0	14.9	4	4.5	4	-1E+10	1	-1E+10	1	-1E+10	1	-1E+10	1	-1E+10	1	-1E+10	1
4902549	68	C	06/28/2022	11:55	-131.022	47.411	0	1445.40	0	2.5510	0	34.4780	0	27.517	0	1428.393	0	15.3	4	4.7	4	-1E+10	1	-1E+10	1	-1E+10	1	-1E+10	1	-1E+10	1	-1E+10	1
4902549	68	C	06/28/2022	11:55	-131.022	47.411	0	1455.50	0	2.5350	0	34.4810	0	27.520	0	1438.340	0	15.7	4	4.8	4	-1E+10	1	-1E+10	1	-1E+10	1	-1E+10	1	-1E+10	1	-1E+10	1
4902549	68	C	06/28/2022	11:55	-131.022	47.411	0	1465.30	0	2.5270	0	34.4830	0	27.523	0	1447.991	0	16.2	4	4.9	4	-1E+10	1	-1E+10	1	-1E+10	1	-1E+10	1	-1E+10	1	-1E+10	1
4902549	68	C	06/28/2022	11:55	-131.022	47.411	0	1475.20	0	2.5080	0	34.4860	0	27.527	0	1457.740	0	16.7	4	5.1	4	-1E+10	1	-1E+10	1	-1E+10	1	-1E+10	1	-1E+10	1	-1E+10	1
4902549	68	C	06/28/2022	11:55	-131.022	47.411	0	1485.30	0	2.4900	0	34.4880	0	27.530	0	1467.685	0	17.1	4	5.2	4	-1E+10	1	-1E+10	1	-1E+10	1	-1E+10	1	-1E+10	1	-1E+10	1
4902549	68	C	06/28/2022	11:55	-131.022	47.411	0	1495.50	0	2.4730	0	34.4900	0	27.533	0	1477.728	0	17.6	4	5.4	4	-1E+10	1	-1E+10	1	-1E+10	1	-1E+10	1	-1E+10	1	-1E+10	1
4902549	68	C	06/28/2022	11:55	-131.022	47.411	0	1505.80	0	2.4540	0	34.4920	0	27.536	0	1487.870	0	18.1	4	5.5	4	-1E+10	1	-1E+10	1	-1E+10	1	-1E+10	1	-1E+10	1	-1E+10	1
4902549	68	C	06/28/2022	11:55	-131.022	47.411	0	1515.30	0	2.4370	0	34.4940	0	27.539	0	1497.223	0	18.6	4	5.7	4	-1E+10	1	-1E+10	1	-1E+10	1	-1E+10	1	-1E+10	1	-1E+10	1
4902549	68	C	06/28/2022	11:55	-131.022	47.411	0	1525.30	0	2.4270	0	34.4960	0	27.542	0	1507.068	0	19.0	4	5.8	4	-1E+10	1	-1E+10	1	-1E+10	1	-1E+10	1	-1E+10	1	-1E+10	1
4902549	68	C	06/28/2022	11:55	-131.022	47.411	0	1535.50	0	2.4070	0	34.4980	0	27.545	0	1517.110	0	19.7	4	6.0	4	-1E+10	1	-1E+10	1	-1E+10	1	-1E+10	1	-1E+10	1	-1E+10	1
4902549	68	C	06/28/2022	11:55	-131.022	47.411	0	1545.40	0	2.3950	0	34.5010	0	27.548	0	1526.855	0	20.4	4	6.2	4	-1E+10	1	-1E+10	1	-1E+10	1	-1E+10	1	-1E+10	1	-1E+10	1
4902549	68	C	06/28/2022	11:55	-131.022	47.411	0	1555.40	0	2.3810	0	34.5030	0	27.551	0	1536.699	0	21.0	4	6.4	4	-1E+10	1	-1E+10	1	-1E+10	1	-1E+10	1	-1E+10	1	-1E+10	1
4902549	68	C	06/28/2022	11:55	-131.022	47.411	0	1565.60	0	2.3680	0	34.5060	0	27.555	0	1546.739	0	21.7	4	6.6	4	-1E+10	1	-1E+10	1	-1E+10	1	-1E+10	1	-1E+10	1	-1E+10	1
4902549	68	C	06/28/2022	11:55	-131.022	47.411	0	1575.50	0	2.3620	0	34.5070	0	27.556	0	1556.483	0	22.4	4	6.8	4	-1E+10	1	-1E+10	1	-1E+10	1	-1E+10	1	-1E+10	1	-1E+10	1
4902549	68	C	06/28/2022	11:55	-131.022	47.411	0	1585.50	0	2.3490	0	34.5100	0	27.560	0	1566.326	0	23.4	4	7.1	4	-1E+10	1	-1E+10	1	-1E+10	1	-1E+10	1	-1E+10	1	-1E+10	1
4902549	68	C	06/28/2022	11:55	-131.022	47.411	0	1595.60	0	2.3370	0	34.5140	0	27.564	0	1576.266	0	24.1	4	7.3	4	-1E+10	1	-1E+10	1	-1E+10	1	-1E+10	1	-1E+10	1	-1E+10	1
4902549	68	C	06/28/2022	11:55	-131.022	47.411	0	1605.50	0	2.3140	0	34.5150	0	27.567	0	1586.009	0	24.7	4	7.5	4	-1E+10	1	-1E+10	1	-1E+10	1	-1E+10	1	-1E+10	1	-1E+10	1
4902549	68	C	06/28/2022	11:55	-131.022	47.411	0	1615.40	0	2.2980	0	34.5180	0	27.570	0	1595.752	0	25.5	4	7.8	4	-1E+10	1	-1E+10	1	-1E+10	1	-1E+10	1	-1E+10	1	-1E+10	1
4902549	68	C	06/28/2022	11:55	-131.022	47.411	0	1625.50	0	2.2830	0	34.5210	0	27.574	0	1605.690	0	26.3	4	8.0	4	-1E+10	1	-1E+10	1	-1E+10	1	-1E+10	1	-1E+10	1	-1E+10	1
4902549	68	C	06/28/2022	11:55	-131.022	47.411	0	1635.40	0	2.2780	0	34.5230	0	27.576	0	1615.432	0	26.7	4	8.1	4	-1E+10	1	-1E+10	1	-1E+10	1	-1E+10	1	-1E+10	1	-1E+10	1
4902549	68	C	06/28/2022	11:55	-131.022	47.411	0	1645.50	0	2.2740	0	34.5240	0	27.577	0	1625.370	0	26.9	4	8.2	4	-1E+10	1	-1E+10	1	-1E+10	1	-1E+10	1	-1E+10	1	-1E+10	1
4902549	68	C	06/28/2022	11:55	-131.022	47.411	0	1655.20	0	2.2620	0	34.5240	0	27.578	0	1634.914	0	27.1	4	8.2	4	-1E+10	1	-1E+10	1	-1E+10	1	-1E+10	1	-1E+10	1	-1E+10	1
4902549	68	C	06/28/2022	11:55	-131.022	47.411	0	1665.30	0	2.2470	0	34.5260	0	27.581	0	1644.851	0	28.0	4	8.5	4	-1E+10	1	-1E+10	1	-1E+10	1	-1E+10	1	-1E+10	1	-1E+10	1
4902549	68	C	06/28/2022	11:55	-131.022	47.411	0	1675.30	0	2.2400	0	34.5280	0	27.583	0	1654.689	0	28.6	4	8.7	4	-1E+10	1	-1E+10	1	-1E+10	1	-1E+10	1	-1E+10	1	-1E+10	1
4902549	68	C	06/28/2022	11:55	-131.022	47.411	0	1685.50	0	2.2410	0	34.5300	0	27.585	0	1664.724	0	29.3	4	8.9	4	-1E+10	1	-1E+10	1	-1E+10	1	-1E+10	1	-1E+10	1	-1E+10	1
4902549	68	C	06/28/2022	11:55	-131.022	47.411	0	1695.60	0	2.2320	0	34.5320	0	27.587	0	1674.659	0	29.8	4	9.0	4	-1E+10	1	-1E+10	1	-1E+10	1	-1E+10	1	-1E+10	1	-1E+10	1
4902549	68	C	06/28/2022	11:55	-131.022	47.411	0	1705.30	0	2.2190	0	34.5330	0	27.589	0	1684.201	0	30.4	4	9.2	4	-1E+10	1	-1E+10	1	-1E+10	1	-1E+10	1	-1E+10	1	-1E+10	1
4902549	68	C	06/28/2022	11:55	-131.022	47.411	0	1715.20	0	2.2010	0	34.5360	0	27.593	0	1693.939	0	31.0	4	9.4	4	-1E+10	1	-1E+10	1	-1E+10	1	-1E+10	1	-1E+10	1	-1E+10	1
4902549	68	C	06/28/2022	11:55	-131.022	47.411	0	1725.10	0	2.1900	0	34.5370	0	27.595	0	1703.676	0	31.5	4	9.5	4	-1E+10	1	-1E+10	1	-1E+10	1	-1E+10	1	-1E+10	1	-1E+10	1
4902549	68	C	06/28/2022	11:55	-131.022	47.411	0	1735.40	0	2.1820	0	34.5390	0	27.597	0	1713.807	0	32.1	4	9.7	4	-1E+10	1	-1E+10	1	-1E+10	1	-1E+10	1	-1E+10	1	-1E+10	1
4902549	68	C	06/28/2022	11:55	-131.022	47.411	0	1745.70	0	2.1660	0	34.5400	0	27.599	0	1723.937	0	32.8	4	9.9	4	-1E+10	1	-1E+10	1	-1E+10	1	-1E+10	1	-1E+10	1	-1E+10	1
4902549	68	C	06/28/2022	11:55	-131.022	47.411	0	1755.40	0	2.1570	0	34.5420	0	27.602	0	1733.477	0	33.4	4	10.1	4	-1E+10	1	-1E+10	1	-1E+10	1	-1E+10	1	-1E+10	1	-1E+10	1
4902549	68	C	06/28/2022	11:55	-131.022	47.411	0	1765.40	0	2.1500	0	34.5440	0	27.604	0	1743.311	0	34.2	4	10.4	4	-1E+10	1	-1E+10	1	-1E+10	1	-1E+10	1	-1E+10	1	-1E+10	1
4902549	68	C	06/28/2022	11:55	-131.022	47.411	0	1775.60	0	2.1390	0	34.5460	0	27.606	0	1753.341	0	34.8	4	10.5	4	-1E+10	1	-1E+10	1	-1E+10	1	-1E+10	1	-1E+10	1	-1E+10	1
4902549	68	C	06/28/2022	11:55	-131.022	47.411	0	1785.50	0	2.1280	0	34.5470	0	27.608	0	1763.076	0	35.4	4	10.7	4	-1E+10	1	-1E+10	1	-1E+10	1	-1E+10	1	-1E+10	1	-1E+10	1
4902549	68	C	06/28/2022	11:55	-131.022	47.411	0	1795.50	0	2.1190	0	34.5490	0	27.611	0	1772.908	0	35.9	4	10.9	4	-1E+10	1	-1E+10	1	-1E+10	1	-1E+10	1	-1E+10	1	-1E+10	1
4902549	68	C	06/28/2022	11:55	-131.022	47.411	0	1805.50	0	2.1130	0	34.5500	0	27.612	0	1782.741	0	36.5	4	11.0	4	-1E+10	1	-1E+10	1	-1E+10	1	-1E+10	1	-1E+10	1	-1E+10	1
4902549	68	C	06/28/2022	11:55	-131.022	47.411	0	1815.60	0	2.1010	0	34.5520	0	27.614	0	1792.671	0	37.3	4	11.3	4	-1E+10	1	-1E+10	1	-1E+10	1	-1E+10	1	-1E+10	1	-1E+10	1
4902549	68	C	06/28/2022	11:55	-131.022	47.411	0	1825.70	0	2.0890	0	34.5540	0	27.617	0	1802.600	0	38.0	4	11.5	4	-1E+10	1	-1E+10	1	-1E+10	1	-1E+10	1	-1E+10	1	-1E+10	1
4902549	68	C	06/28/2022	11:55	-131.022	47.411	0	1835.60	0	2.0810	0	34.5550	0	27.619	0	1812.333	0	38.7	4	11.7	4	-1E+10	1	-1E+10	1	-1E+10	1	-1E+10	1	-1E+10	1	-1E+10	1
4902549	68	C	06/28/2022	11:55	-131.022	47.411	0	1845.50	0	2.0690	0	34.5580	0	27.622	0	1822.065	0	39.4	4	11.9	4	-1E+10	1	-1E+10	1	-1E+10	1	-1E+10	1	-1E+10	1	-1E+10	1
4902549	68	C	06/28/2022	11:55	-131.022	47.411	0	1855.80	0	2.0630	0	34.5590	0	27.623	0	1832.190	0	39.9	4	12.1	4	-1E+10	1	-1E+10	1	-1E+10	1	-1E+10	1	-1E+10	1	-1E+10	1
4902549	68	C	06/28/2022	11:55	-131.022	47.411	0	1865.30	0	2.0560	0	34.5600	0	27.625	0	1841.528	0	40.7	4	12.3	4	-1E+10	1	-1E+10	1	-1E+10	1	-1E+10	1	-1E+10	1	-1E+10	1
4902549	68	C	06/28/2022	11:55	-131.022	47.411	0	1875.50	0	2.0460	0	34.5620	0	27.627	0	1851.554	0	41.4	4	12.5	4	-1E+10	1	-1E+10	1	-1E+10	1	-1E+10	1	-1E+10	1	-1E+10	1
4902549	68	C	06/28/2022	11:55	-131.022	47.411	0	1885.50	0	2.0370	0	34.5640	0	27.629	0	1861.382	0	42.1	4	12.7	4	-1E+10	1	-1E+10	1	-1E+10	1	-1E+10	1	-1E+10	1	-1E+10	1
4902549	68	C	06/28/2022	11:55	-131.022	47.411	0	1895.20	0	2.0300	0	34.5650	0	27.631	0	1870.915	0	42.7	4	12.9	4	-1E+10	1	-1E+10	1	-1E+10	1	-1E+10	1	-1E+10	1	-1E+10	1
4902549	68	C	06/28/2022	11:55	-131.022	47.411	0	1905.40	0	2.0210	0	34.5670	0	27.633	0	1880.940	0	43.3	4	13.1	4	-1E+10	1	-1E+10	1	-1E+10	1	-1E+10	1	-1E+10	1	-1E+10	1
4902549	68	C	06/28/2022	11:55	-131.022	47.411	0	1915.80	0	2.0150	0	34.5680	0	27.635	0	1891.160	0	43.7	4	13.2	4	-1E+10	1	-1E+10	1	-1E+10	1	-1E+10	1	-1E+10	1	-1E+10	1
4902549	68	C	06/28/2022	11:55	-131.022	47.411	0	1925.60	0	2.0100	0	34.5690	0	27.636	0	1900.790	0	44.2	4	13.3	4	-1E+10	1	-1E+10	1	-1E+10	1	-1E+10	1	-1E+10	1	-1E+10	1
4902549	68	C	06/28/2022	11:55	-131.022	47.411	0	1935.40	0	2.0040	0	34.5700	0	27.637	0	1910.420	0	44.6	4	13.5	4	-1E+10	1	-1E+10	1	-1E+10	1	-1E+10	1	-1E+10	1	-1E+10	1
4902549	68	C	06/28/2022	11:55	-131.022	47.411	0	1945.20	0	1.9990	0	34.5710	0	27.638	0	1920.049	0	45.0	4	13.6	4	-1E+10	1	-1E+10	1	-1E+10	1	-1E+10	1	-1E+10	1	-1E+10	1
4902549	68	C	06/28/2022	11:55	-131.022	47.411	0	1955.10	0	1.9940	0	34.5720	0	27.640	0	1929.776	0	45.3	4	13.7	4	-1E+10	1	-1E+10	1	-1E+10	1	-1E+10	1	-1E+10	1	-1E+10	1
4902549	68	C	06/28/2022	11:55	-131.022	47.411	0	1965.40	0	1.9900	0	34.5730	0	27.641	0	1939.896	0	45.6	4	13.8	4	-1E+10	1	-1E+10	1	-1E+10	1	-1E+10	1	-1E+10	1	-1E+10	1
4902549	68	C	06/28/2022	11:55	-131.022	47.411	0	1975.60	0	1.9840	0	34.5740	0	27.642	0	1949.917	0	45.9	4	13.8	4	-1E+10	1	-1E+10	1	-1E+10	1	-1E+10	1	-1E+10	1	-1E+10	1
4902549	68	C	06/28/2022	11:55	-131.022	47.411	0	1983.80	0	1.9810	0	34.5750	0	27.643	0	1957.973	0	46.0	4	13.9	4	-1E+10	1	-1E+10	1	-1E+10	1	-1E+10	1	-1E+10	1	-1E+10	1
4902549	68	C	06/28/2022	11:55	-131.022	47.411	0																										
4902549	69	C	07/08/2022	16:59	-131.086	47.172	0	0.20	0	15.3910	0	32.2280	0	23.752	0	0.198	0	259.4	4	103.5	4	-1E+10	1	-1E+10	1	-1E+10	1	-1E+10	1	-1E+10	1	-1E+10	1
4902549	69	C	07/08/2022	16:59	-131.086	47.172	0	0.30	0	15.4100	8	31.6540	8	23.306	0	0.298	0	254.5	4	101.2	4	-1E+10	1	-1E+10	1	-1E+10	1	-1E+10	1	-1E+10	1	-1E+10	1
4902549	69	C	07/08/2022	16:59	-131.086	47.172	0	1.00	0	15.4020	8	31.5080	8	23.196	0	0.992	0	255.4	4	101.4	4	-1E+10	1	-1E+10	1	-1E+10	1	-1E+10	1	-1E+10	1	-1E+10	1
4902549	69	C	07/08/2022	16:59	-131.086	47.172	0	2.10	0	15.0300	0	31.5620	0	23.317	0	2.083	0	257.2	4	101.4	4	-1E+10	1	-1E+10	1	-1E+10	1	-1E+10	1	-1E+10	1	-1E+10	1
4902549	69	C	07/08/2022	16:59	-131.086	47.172	0	2.90	0	14.7320	0	31.7930	0	23.559	0	2.876	0	258.8	4	101.6	4	-1E+10	1	-1E+10	1	-1E+10	1	-1E+10	1	-1E+10	1	-1E+10	1
4902549	69	C	07/08/2022	16:59	-131.086	47.172	0	4.00	0	14.4980	0	32.0210	0	23.784	0	3.967	0	260.1	4	101.8	4	-1E+10	1	-1E+10	1	-1E+10	1	-1E+10	1	-1E+10	1	-1E+10	1
4902549	69	C	07/08/2022	16:59	-131.086	47.172	0	5.10	0	14.1180	0	32.2110	0	24.009	0	5.058	0	261.7	4	101.8	4	-1E+10	1	-1E+10	1	-1E+10	1	-1E+10	1	-1E+10	1	-1E+10	1
4902549	69	C	07/08/2022	16:59	-131.086	47.172	0	5.90	0	13.9750	0	32.2090	0	24.037	0	5.851	0	262.3	4	101.7	4	-1E+10	1	-1E+10	1	-1E+10	1	-1E+10	1	-1E+10	1	-1E+10	1
4902549	69	C	07/08/2022	16:59	-131.086	47.172	0	6.70	0	13.9070	0	32.2070	0	24.050	0	6.644	0	262.8	4	101.8	4	-1E+10	1	-1E+10	1	-1E+10	1	-1E+10	1	-1E+10	1	-1E+10	1
4902549	69	C	07/08/2022	16:59	-131.086	47.172	0	7.90	0	13.7570	0	32.2070	0	24.080	0	7.834	0	263.5	4	101.7	4	-1E+10	1	-1E+10	1	-1E+10	1	-1E+10	1	-1E+10	1	-1E+10	1
4902549	69	C	07/08/2022	16:59	-131.086	47.172	0	8.90	0	13.6360	0	32.2100	0	24.107	0	8.826	0	263.9	4	101.6	4	-1E+10	1	-1E+10	1	-1E+10	1	-1E+10	1	-1E+10	1	-1E+10	1
4902549	69	C	07/08/2022	16:59	-131.086	47.172	0	9.80	0	13.5660	0	32.2040	0	24.116	0	9.718	0	264.3	4	101.7	4	-1E+10	1	-1E+10	1	-1E+10	1	-1E+10	1	-1E+10	1	-1E+10	1
4902549	69	C	07/08/2022	16:59	-131.086	47.172	0	11.00	0	13.4680	0	32.2020	0	24.134	0	10.908	0	264.6	4	101.6	4	-1E+10	1	-1E+10	1	-1E+10	1	-1E+10	1	-1E+10	1	-1E+10	1
4902549	69	C	07/08/2022	16:59	-131.086	47.172	0	12.10	0	13.3420	0	32.2110	0	24.167	0	11.999	0	265.0	4	101.5	4	-1E+10	1	-1E+10	1	-1E+10	1	-1E+10	1	-1E+10	1	-1E+10	1
4902549	69	C	07/08/2022	16:59	-131.086	47.172	0	13.10	0	13.2050	0	32.2020	0	24.187	0	12.991	0	265.3	4	101.3	4	-1E+10	1	-1E+10	1	-1E+10	1	-1E+10	1	-1E+10	1	-1E+10	1
4902549	69	C	07/08/2022	16:59	-131.086	47.172	0	14.20	0	13.0390	0	32.2060	0	24.223	0	14.081	0	265.9	4	101.2	4	-1E+10	1	-1E+10	1	-1E+10	1	-1E+10	1	-1E+10	1	-1E+10	1
4902549	69	C	07/08/2022	16:59	-131.086	47.172	0	14.90	0	12.9260	0	32.2010	0	24.241	0	14.776	0	265.9	4	101.0	4	-1E+10	1	-1E+10	1	-1E+10	1	-1E+10	1	-1E+10	1	-1E+10	1
4902549	69	C	07/08/2022	16:59	-131.086	47.172	0	16.00	0	12.8790	0	32.2030	0	24.252	0	15.866	0	266.0	4	100.9	4	-1E+10	1	-1E+10	1	-1E+10	1	-1E+10	1	-1E+10	1	-1E+10	1
4902549	69	C	07/08/2022	16:59	-131.086	47.172	0	17.20	0	12.8570	0	32.2020	0	24.255	0	17.056	0	266.0	4	100.8	4	-1E+10	1	-1E+10	1	-1E+10	1	-1E+10	1	-1E+10	1	-1E+10	1
4902549	69	C	07/08/2022	16:59	-131.086	47.172	0	17.90	0	12.8440	0	32.2010	0	24.257	0	17.750	0	266.0	4	100.8	4	-1E+10	1	-1E+10	1	-1E+10	1	-1E+10	1	-1E+10	1	-1E+10	1
4902549	69	C	07/08/2022	16:59	-131.086	47.172	0	18.70	0	12.8340	0	32.2010	0	24.259	0	18.544	0	265.8	4	100.7	4	-1E+10	1	-1E+10	1	-1E+10	1	-1E+10	1	-1E+10	1	-1E+10	1
4902549	69	C	07/08/2022	16:59	-131.086	47.172	0	19.80	0	12.8140	0	32.2020	0	24.263	0	19.634	0	265.6	4	100.6	4	-1E+10	1	-1E+10	1	-1E+10	1	-1E+10	1	-1E+10	1	-1E+10	1
4902549	69	C	07/08/2022	16:59	-131.086	47.172	0	20.90	0	12.7930	0	32.2030	0	24.268	0	20.725	0	265.7	4	100.6	4	-1E+10	1	-1E+10	1	-1E+10	1	-1E+10	1	-1E+10	1	-1E+10	1
4902549	69	C	07/08/2022	16:59	-131.086	47.172	0	22.00	0	12.7690	0	32.2030	0	24.273	0	21.816	0	265.8	4	100.6	4	-1E+10	1	-1E+10	1	-1E+10	1	-1E+10	1	-1E+10	1	-1E+10	1
4902549	69	C	07/08/2022	16:59	-131.086	47.172	0	23.10	0	12.7400	0	32.2030	0	24.279	0	22.907	0	266.1	4	100.6	4	-1E+10	1	-1E+10	1	-1E+10	1	-1E+10	1	-1E+10	1	-1E+10	1
4902549	69	C	07/08/2022	16:59	-131.086	47.172	0	24.10	0	12.7170	0	32.2020	0	24.282	0	23.898	0	266.4	4	100.7	4	-1E+10	1	-1E+10	1	-1E+10	1	-1E+10	1	-1E+10	1	-1E+10	1
4902549	69	C	07/08/2022	16:59	-131.086	47.172	0	25.00	0	12.7030	0	32.2020	0	24.285	0	24.791	0	266.7	4	100.8	4	-1E+10	1	-1E+10	1	-1E+10	1	-1E+10	1	-1E+10	1	-1E+10	1
4902549	69	C	07/08/2022	16:59	-131.086	47.172	0	25.80	0	12.6900	0	32.2020	0	24.288	0	25.584	0	267.2	4	100.9	4	-1E+10	1	-1E+10	1	-1E+10	1	-1E+10	1	-1E+10	1	-1E+10	1
4902549	69	C	07/08/2022	16:59	-131.086	47.172	0	27.10	0	12.6400	0	32.2000	0	24.296	0	26.873	0	268.6	4	101.4	4	-1E+10	1	-1E+10	1	-1E+10	1	-1E+10	1	-1E+10	1	-1E+10	1
4902549	69	C	07/08/2022	16:59	-131.086	47.172	0	28.10	0	12.5430	0	32.1990	0	24.313	0	27.864	0	270.8	4	102.0	4	-1E+10	1	-1E+10	1	-1E+10	1	-1E+10	1	-1E+10	1	-1E+10	1
4902549	69	C	07/08/2022	16:59	-131.086	47.172	0	29.00	0	12.3670	0	32.2000	0	24.348	0	28.757	0	272.3	4	102.2	4	-1E+10	1	-1E+10	1	-1E+10	1	-1E+10	1	-1E+10	1	-1E+10	1
4902549	69	C	07/08/2022	16:59	-131.086	47.172	0	30.00	0	12.0760	0	32.2060	0	24.407	0	29.748	0	274.9	4	102.5	4	-1E+10	1	-1E+10	1	-1E+10	1	-1E+10	1	-1E+10	1	-1E+10	1
4902549	69	C	07/08/2022	16:59	-131.086	47.172	0	31.10	0	11.7410	0	32.2050	0	24.468	0	30.839	0	276.2	4	102.3	4	-1E+10	1	-1E+10	1	-1E+10	1	-1E+10	1	-1E+10	1	-1E+10	1
4902549	69	C	07/08/2022	16:59	-131.086	47.172	0	32.00	0	11.7240	0	32.2030	0	24.470	0	31.731	0	276.7	4	102.5	4	-1E+10	1	-1E+10	1	-1E+10	1	-1E+10	1	-1E+10	1	-1E+10	1
4902549	69	C	07/08/2022	16:59	-131.086	47.172	0	33.10	0	11.5980	0	32.2000	0	24.490	0	32.822	0	277.8	4	102.6	4	-1E+10	1	-1E+10	1	-1E+10	1	-1E+10	1	-1E+10	1	-1E+10	1
4902549	69	C	07/08/2022	16:59	-131.086	47.172	0	34.10	0	11.4700	0	32.2020	0	24.515	0	33.814	0	278.1	4	102.4	4	-1E+10	1	-1E+10	1	-1E+10	1	-1E+10	1	-1E+10	1	-1E+10	1
4902549	69	C	07/08/2022	16:59	-131.086	47.172	0	35.00	0	11.4170	0	32.2000	0	24.523	0	34.706	0	278.5	4	102.5	4	-1E+10	1	-1E+10	1	-1E+10	1	-1E+10	1	-1E+10	1	-1E+10	1
4902549	69	C	07/08/2022	16:59	-131.086	47.172	0	35.80	0	11.2430	0	32.2040	0	24.557	0	35.499	0	279.0	4	102.3	4	-1E+10	1	-1E+10	1	-1E+10	1	-1E+10	1	-1E+10	1	-1E+10	1
4902549	69	C	07/08/2022	16:59	-131.086	47.172	0	37.00	0	11.1320	0	32.2040	0	24.577	0	36.689	0	279.4	4	102.2	4	-1E+10	1	-1E+10	1	-1E+10	1	-1E+10	1	-1E+10	1	-1E+10	1
4902549	69	C	07/08/2022	16:59	-131.086	47.172	0	37.90	0	11.0470	0	32.2070	0	24.594	0	37.581	0	279.7	4	102.1	4	-1E+10	1	-1E+10	1	-1E+10	1	-1E+10	1	-1E+10	1	-1E+10	1
4902549	69	C	07/08/2022	16:59	-131.086	47.172	0	38.80	0	10.9190	0	32.2010	0	24.612	0	38.474	0	280.3	4	102.0	4	-1E+10	1	-1E+10	1	-1E+10	1	-1E+10	1	-1E+10	1	-1E+10	1
4902549	69	C	07/08/2022	16:59	-131.086	47.172	0	39.80	0	10.7280	0	32.2160	0	24.657	0	39.465	0	280.8	4	101.8	4	-1E+10	1	-1E+10	1	-1E+10	1	-1E+10	1	-1E+10	1	-1E+10	1
4902549	69	C	07/08/2022	16:59	-131.086	47.172	0	40.80	0	10.6470	0	32.2070	0	24.664	0	40.457	0	280.6	4	101.5	4	-1E+10	1	-1E+10	1	-1E+10	1	-1E+10	1	-1E+10	1	-1E+10	1
4902549	69	C	07/08/2022	16:59	-131.086	47.172	0	41.80	0	10.5940	0	32.2090	0	24.675	0	41.448	0	280.9	4	101.6	4	-1E+10	1	-1E+10	1	-1E+10	1	-1E+10	1	-1E+10	1	-1E+10	1
4902549	69	C	07/08/2022	16:59	-131.086	47.172	0	42.80	0	10.3890	0	32.2320	0	24.727	0	42.440	0	281.0	4	101.2	4	-1E+10	1	-1E+10	1	-1E+10	1	-1E+10	1	-1E+10	1	-1E+10	1
4902549	69	C	07/08/2022	16:59	-131.086	47.172	0	43.90	0	10.1860	0	32.2380	0	24.766	0	43.530	0	281.1	4	100.8	4	-1E+10	1	-1E+10	1	-1E+10	1	-1E+10	1	-1E+10	1	-1E+10	1
4902549	69	C	07/08/2022	16:59	-131.086	47.172	0	45.00	0	10.0730	0	32.2490	0	24.794	0	44.621	0	281.4	4	100.6	4	-1E+10	1	-1E+10	1	-1E+10	1	-1E+10	1	-1E+10	1	-1E+10	1
4902549	69	C	07/08/2022	16:59	-131.086	47.172	0	46.10	0	9.9910	0	32.2540	0	24.811	0	45.712	0	281.3	4	100.4	4	-1E+10	1	-1E+10	1	-1E+10	1	-1E+10	1	-1E+10	1	-1E+10	1
4902549	69	C	07/08/2022	16:59	-131.086	47.172	0	46.90	0	9.9400	0	32.2560	0	24.821	0	46.505	0	281.2	4	100.3	4	-1E+10	1	-1E+10	1	-1E+10	1	-1E+10	1	-1E+10	1	-1E+10	1
4902549	69	C	07/08/2022	16:59	-131.086	47.172	0	47.90	0	9.8970	0	32.2570	0	24.829	0	47.496	0	280.9	4	100.1	4	-1E+10	1	-1E+10	1	-1E+10	1	-1E+10	1	-1E+10	1	-1E+10	1
4902549	69	C	07/08/2022	16:59	-131.086	47.172	0	49.00	0	9.7700	0	32.2610	0	24.853	0	48.587	0	280.9	4	99.8	4	-1E+10	1	-1E+10	1	-1E+10	1	-1E+10	1	-1E+10	1	-1E+10	1
4902549	69	C	07/08/2022	16:59	-131.086	47.172	0	50.00	0	9.6680	0	32.2700	0	24.876	0	49.578	0	280.6	4	99.5	4	-1E+10	1	-1E+10	1	-1E+10	1	-1E+10	1	-1E+10	1	-1E+10	1
4902549	69	C	07/08/2022	16:59	-131.086	47.172	0	51.10	0	9.6090	0	32.2690	0	24.885	0	50.669	0	280.4	4	99.3	4	-1E+10	1	-1E+10	1	-1E+10	1	-1E+10	1	-1E+10	1	-1E+10	1
4902549	69	C	07/08/2022	16:59	-131.086	47.172	0	52.10	0	9.5290	0	32.2750	0	24.903	0	51.660	0	280.0	4	99.0	4	-1E+10	1	-1E+10	1	-1E+10	1	-1E+10	1	-1E+10	1	-1E+10	1
4902549	69	C	07/08/2022	16:59	-131.086	47.172	0	53.00	0	9.4600	0	32.2760	0	24.915	0	52.553	0	279.6	4	98.7	4	-1E+10	1	-1E+10	1	-1E+10	1	-1E+10	1	-1E+10	1	-1E+10	1
4902549	69	C	07/08/2022	16:59	-131.086	47.172	0	53.90	0	9.4270	0	32.2730	0	24.918	0	53.445	0	278.9	4	98.4	4	-1E+10	1	-1E+10	1	-1E+10	1	-1E+10	1	-1E+10	1	-1E+10	1
4902549	69	C	07/08/2022	16:59	-131.086	47.172	0	54.90	0	9.3380	0	32.2770	0	24.935	0	54.436	0	278.2	4	97.9	4	-1E+10	1	-1E+10	1	-1E+10	1	-1E+10	1	-1E+10	1	-1E+10	1
4902549	69	C	07/08/2022	16:59	-131.086	47.172	0	56.00	0	9.2360	0	32.2800	0	24.953	0	55.527	0	277.6	4	97.5	4	-1E+10	1	-1E+10	1	-1E+10	1	-1E+10	1	-1E+10	1	-1E+10	1
4902549	69	C	07/08/2022	16:59	-131.086	47.172	0	57.00	0	9.0970	0	32.2830	0	24.977	0	56.518	0	276.9	4	97.0	4	-1E+10	1	-1E+10	1	-1E+10	1	-1E+10	1	-1E+10	1	-1E+10	1
4902549	69	C	07/08/2022	16:59	-131.086	47.172	0	58.00	0	8.9790	0	32.2860	0	24.998	0	57.510	0	276.2	4	96.5	4	-1E+10	1	-1E+10	1	-1E+10	1	-1E+10	1	-1E+10	1	-1E+10	1
4902549	69	C	07/08/2022	16:59	-131.086	47.172	0	59.10	0	8.8770	0	32.2900	0	25.017	0	58.600	0	275.0	4	95.8	4	-1E+10	1	-1E+10	1	-1E+10	1	-1E+10	1	-1E+10	1	-1E+10	1
4902549	69	C	07/08/2022	16:59	-131.086	47.172	0	60.00	0	8.7840	0	32.2910	0	25.032	0	59.492	0	274.5	4	95.4	4	-1E+10	1	-1E+10	1	-1E+10	1	-1E+10	1	-1E+10	1	-1E+10	1
4902549	69	C	07/08/2022	16:59	-131.086	47.172	0	61.00	0	8.7600	0	32.2900	0	25.035	0	60.484	0	273.2	4	95.0	4	-1E+10	1	-1E+10	1	-1E+10	1	-1E+10	1	-1E+10	1	-1E+10	1
4902549	69	C	07/08/2022	16:59	-131.086	47.172	0	62.00	0	8.7300	0	32.2900	0	25.039	0	61.475	0	271.8	4	94.4	4	-1E+10	1	-1E+10	1	-1E+10	1	-1E+10	1	-1E+10	1	-1E+10	1
4902549	69	C	07/08/2022	16:59	-131.086	47.172	0	63.20	0	8.6430	0	32.2980	0	25.059	0	62.665	0	270.4	4	93.8	4	-1E+10	1	-1E+10	1	-1E+10	1	-1E+10	1	-1E+10	1	-1E+10	1
4902549	69	C	07/08/2022	16:59	-131.086	47.172	0	64.00	0	8.5880	0	32.2940	0	25.064	0	63.458	0	269.9	4	93.5	4	-1E+10	1	-1E+10	1	-1E+10	1	-1E+10	1	-1E+10	1	-1E+10	1
4902549	69	C	07/08/2022	16:59	-131.086	47.172	0	65.30	0	8.5470	0	32.2950	0	25.071	0	64.747	0	268.7	4	92.9	4	-1E+10	1	-1E+10	1	-1E+10	1	-1E+10	1	-1E+10	1	-1E+10	1
4902549	69	C	07/08/2022	16:59	-131.086	47.172	0	66.20	0	8.4760	0	32.2910	0	25.078	0	65.639	0	268.3	4	92.7	4	-1E+10	1	-1E+10	1	-1E+10	1	-1E+10	1	-1E+10	1	-1E+10	1
4902549	69	C	07/08/2022	16:59	-131.086	47.172	0	66.90	0	8.4300	0	32.2890	0	25.084	0	66.333	0	267.7	4	92.4	4	-1E+10	1	-1E+10	1	-1E+10	1	-1E+10	1	-1E+10	1	-1E+10	1
4902549	69	C	07/08/2022	16:59	-131.086	47.172	0	68.00	0	8.3970	0	32.2870	0	25.087	0	67.423	0	267.0	4	92.1	4	-1E+10	1	-1E+10	1	-1E+10	1	-1E+10	1	-1E+10	1	-1E+10	1
4902549	69	C	07/08/2022	16:59	-131.086	47.172	0	69.10	0	8.3330	0	32.2920	0	25.100	0	68.514	0	266.6	4	91.8	4	-1E+10	1	-1E+10	1	-1E+10	1	-1E+10	1	-1E+10	1	-1E+10	1
4902549	69	C	07/08/2022	16:59	-131.086	47.172	0	70.00	0	8.2920	0	32.2980	0	25.111	0	69.406	0	266.2	4	91.6	4	-1E+10	1	-1E+10	1	-1E+10	1	-1E+10	1	-1E+10	1	-1E+10	1
4902549	69	C	07/08/2022	16:59	-131.086	47.172	0	70.90	0	8.2480	0	32.3060	0	25.124	0	70.298	0	265.7	4	91.3	4	-1E+10	1	-1E+10	1	-1E+10	1	-1E+10	1	-1E+10	1	-1E+10	1
4902549	69	C	07/08/2022	16:59	-131.086	47.172	0	71.80	0	8.1800	0	32.3120	0	25.139	0	71.191	0	265.0	4	91.0	4	-1E+10	1	-1E+10	1	-1E+10	1	-1E+10	1	-1E+10	1	-1E+10	1
4902549	69	C	07/08/2022	16:59	-131.086	47.172	0	72.80	0	8.1530	0	32.3130	0	25.143	0	72.182	0	264.2	4	90.6	4	-1E+10	1	-1E+10	1	-1E+10	1	-1E+10	1	-1E+10	1	-1E+10	1
4902549	69	C	07/08/2022	16:59	-131.086	47.172	0	74.00	0	8.1310	0	32.3130	0	25.147	0	73.371	0	262.9	4	90.1	4	-1E+10	1	-1E+10	1	-1E+10	1	-1E+10	1	-1E+10	1	-1E+10	1
4902549	69	C	07/08/2022	16:59	-131.086	47.172	0	75.00	0	8.1220	0	32.3150	0	25.149	0	74.363	0	261.8	4	89.7	4	-1E+10	1	-1E+10	1	-1E+10	1	-1E+10	1	-1E+10	1	-1E+10	1
4902549	69	C	07/08/2022	16:59	-131.086	47.172	0	75.90	0	8.0870	0	32.3210	0	25.159	0	75.255	0	260.9	4	89.4	4	-1E+10	1	-1E+10	1	-1E+10	1	-1E+10	1	-1E+10	1	-1E+10	1
4902549	69	C	07/08/2022	16:59	-131.086	47.172	0	76.90	0	8.0200	0	32.3270	0	25.174	0	76.246	0	260.2	4	89.0	4	-1E+10	1	-1E+10	1	-1E+10	1	-1E+10	1	-1E+10	1	-1E+10	1
4902549	69	C	07/08/2022	16:59	-131.086	47.172	0	77.80	0	7.9660	0	32.3310	0	25.185	0	77.138	0	259.3	4	88.6	4	-1E+10	1	-1E+10	1	-1E+10	1	-1E+10	1	-1E+10	1	-1E+10	1
4902549	69	C	07/08/2022	16:59	-131.086	47.172	0	79.10	0	7.9470	0	32.3380	0	25.193	0	78.427	0	257.8	4	88.0	4	-1E+10	1	-1E+10	1	-1E+10	1	-1E+10	1	-1E+10	1	-1E+10	1
4902549	69	C	07/08/2022	16:59	-131.086	47.172	0	80.00	0	7.9330	0	32.3410	0	25.197	0	79.319	0	256.8	4	87.6	4	-1E+10	1	-1E+10	1	-1E+10	1	-1E+10	1	-1E+10	1	-1E+10	1
4902549	69	C	07/08/2022	16:59	-131.086	47.172	0	80.90	0	7.9070	0	32.3440	0	25.203	0	80.212	0	255.8	4	87.3	4	-1E+10	1	-1E+10	1	-1E+10	1	-1E+10	1	-1E+10	1	-1E+10	1
4902549	69	C	07/08/2022	16:59	-131.086	47.172	0	82.10	0	7.8780	0	32.3450	0	25.208	0	81.401	0	254.3	4	86.7	4	-1E+10	1	-1E+10	1	-1E+10	1	-1E+10	1	-1E+10	1	-1E+10	1
4902549	69	C	07/08/2022	16:59	-131.086	47.172	0	82.90	0	7.8510	0	32.3510	0	25.217	0	82.194	0	259.5	4	88.4	4	-1E+10	1	-1E+10	1	-1E+10	1	-1E+10	1	-1E+10	1	-1E+10	1
4902549	69	C	07/08/2022	16:59	-131.086	47.172	0	83.70	0	7.8290	0	32.3560	0	25.224	0	82.987	0	258.2	4	87.9	4	-1E+10	1	-1E+10	1	-1E+10	1	-1E+10	1	-1E+10	1	-1E+10	1
4902549	69	C	07/08/2022	16:59	-131.086	47.172	0	84.80	0	7.7870	0	32.3660	0	25.238	0	84.078	0	256.1	4	87.1	4	-1E+10	1	-1E+10	1	-1E+10	1	-1E+10	1	-1E+10	1	-1E+10	1
4902549	69	C	07/08/2022	16:59	-131.086	47.172	0	85.80	0	7.7060	0	32.4100	0	25.284	0	85.069	0	254.5	4	86.5	4	-1E+10	1	-1E+10	1	-1E+10	1	-1E+10	1	-1E+10	1	-1E+10	1
4902549	69	C	07/08/2022	16:59	-131.086	47.172	0	86.90	0	7.7100	0	32.4140	0	25.286	0	86.159	0	252.8	4	85.9	4	-1E+10	1	-1E+10	1	-1E+10	1	-1E+10	1	-1E+10	1	-1E+10	1
4902549	69	C	07/08/2022	16:59	-131.086	47.172	0	87.90	0	7.7080	0	32.4210	0	25.292	0	87.150	0	251.0	4	85.3	4	-1E+10	1	-1E+10	1	-1E+10	1	-1E+10	1	-1E+10	1	-1E+10	1
4902549	69	C	07/08/2022	16:59	-131.086	47.172	0	89.00	0	7.6580	0	32.4510	0	25.323	0	88.241	0	249.1	4	84.6	4	-1E+10	1	-1E+10	1	-1E+10	1	-1E+10	1	-1E+10	1	-1E+10	1
4902549	69	C	07/08/2022	16:59	-131.086	47.172	0	90.10	0	7.6280	0	32.4720	0	25.343	0	89.331	0	246.7	4	83.7	4	-1E+10	1	-1E+10	1	-1E+10	1	-1E+10	1	-1E+10	1	-1E+10	1
4902549	69	C	07/08/2022	16:59	-131.086	47.172	0	91.10	0	7.6220	0	32.4770	0	25.348	0	90.322	0	243.6	4	82.7	4	-1E+10	1	-1E+10	1	-1E+10	1	-1E+10	1	-1E+10	1	-1E+10	1
4902549	69	C	07/08/2022	16:59	-131.086	47.172	0	91.90	0	7.6100	0	32.4840	0	25.355	0	91.115	0	241.4	4	81.9	4	-1E+10	1	-1E+10	1	-1E+10	1	-1E+10	1	-1E+10	1	-1E+10	1
4902549	69	C	07/08/2022	16:59	-131.086	47.172	0	92.80	0	7.5850	0	32.5020	0	25.373	0	92.008	0	239.0	4	81.1	4	-1E+10	1	-1E+10	1	-1E+10	1	-1E+10	1	-1E+10	1	-1E+10	1
4902549	69	C	07/08/2022	16:59	-131.086	47.172	0	94.00	0	7.5020	0	32.5530	0	25.425	0	93.197	0	236.4	4	80.0	4	-1E+10	1	-1E+10	1	-1E+10	1	-1E+10	1	-1E+10	1	-1E+10	1
4902549	69	C	07/08/2022	16:59	-131.086	47.172	0	95.30	0	7.4200	0	32.5960	0	25.470	0	94.486	0	233.6	4	79.0	4	-1E+10	1	-1E+10	1	-1E+10	1	-1E+10	1	-1E+10	1	-1E+10	1
4902549	69	C	07/08/2022	16:59	-131.086	47.172	0	96.00	0	7.3780	0	32.6480	0	25.516	0	95.180	0	232.6	4	78.6	4	-1E+10	1	-1E+10	1	-1E+10	1	-1E+10	1	-1E+10	1	-1E+10	1
4902549	69	C	07/08/2022	16:59	-131.086	47.172	0	97.00	0	7.3670	0	32.6680	0	25.534	0	96.171	0	230.9	4	78.0	4	-1E+10	1	-1E+10	1	-1E+10	1	-1E+10	1	-1E+10	1	-1E+10	1
4902549	69	C	07/08/2022	16:59	-131.086	47.172	0	97.90	0	7.3730	0	32.6760	0	25.539	0	97.063	0	229.0	4	77.4	4	-1E+10	1	-1E+10	1	-1E+10	1	-1E+10	1	-1E+10	1	-1E+10	1
4902549	69	C	07/08/2022	16:59	-131.086	47.172	0	99.10	0	7.3820	0	32.6840	0	25.544	0	98.252	0	226.5	4	76.6	4	-1E+10	1	-1E+10	1	-1E+10	1	-1E+10	1	-1E+10	1	-1E+10	1
4902549	69	C	07/08/2022	16:59	-131.086	47.172	0	99.80	0	7.3820	0	32.7100	0	25.565	0	98.946	0	225.3	4	76.1	4	-1E+10	1	-1E+10	1	-1E+10	1	-1E+10	1	-1E+10	1	-1E+10	1
4902549	69	C	07/08/2022	16:59	-131.086	47.172	0	100.80	0	7.3680	0	32.7430	0	25.593	0	99.937	0	223.3	4	75.5	4	-1E+10	1	-1E+10	1	-1E+10	1	-1E+10	1	-1E+10	1	-1E+10	1
4902549	69	C	07/08/2022	16:59	-131.086	47.172	0	101.80	0	7.3640	0	32.7670	0	25.612	0	100.929	0	221.2	4	74.8	4	-1E+10	1	-1E+10	1	-1E+10	1	-1E+10	1	-1E+10	1	-1E+10	1
4902549	69	C	07/08/2022	16:59	-131.086	47.172	0	102.90	0	7.3760	0	32.8050	0	25.640	0	102.019	0	219.2	4	74.1	4	-1E+10	1	-1E+10	1	-1E+10	1	-1E+10	1	-1E+10	1	-1E+10	1
4902549	69	C	07/08/2022	16:59	-131.086	47.172	0	104.00	0	7.3860	0	32.8260	0	25.655	0	103.109	0	216.9	4	73.4	4	-1E+10	1	-1E+10	1	-1E+10	1	-1E+10	1	-1E+10	1	-1E+10	1
4902549	69	C	07/08/2022	16:59	-131.086	47.172	0	104.90	0	7.3970	0	32.8370	0	25.663	0	104.001	0	215.0	4	72.8	4	-1E+10	1	-1E+10	1	-1E+10	1	-1E+10	1	-1E+10	1	-1E+10	1
4902549	69	C	07/08/2022	16:59	-131.086	47.172	0	106.00	0	7.4090	0	32.8540	0	25.674	0	105.092	0	211.7	4	71.7	4	-1E+10	1	-1E+10	1	-1E+10	1	-1E+10	1	-1E+10	1	-1E+10	1
4902549	69	C	07/08/2022	16:59	-131.086	47.172	0	106.90	0	7.4150	0	32.8810	0	25.695	0	105.984	0	209.5	4	70.9	4	-1E+10	1	-1E+10	1	-1E+10	1	-1E+10	1	-1E+10	1	-1E+10	1
4902549	69	C	07/08/2022	16:59	-131.086	47.172	0	107.80	0	7.4180	0	32.9010	0	25.710	0	106.876	0	207.6	4	70.3	4	-1E+10	1	-1E+10	1	-1E+10	1	-1E+10	1	-1E+10	1	-1E+10	1
4902549	69	C	07/08/2022	16:59	-131.086	47.172	0	108.90	0	7.4230	0	32.9210	0	25.725	0	107.966	0	205.7	4	69.7	4	-1E+10	1	-1E+10	1	-1E+10	1	-1E+10	1	-1E+10	1	-1E+10	1
4902549	69	C	07/08/2022	16:59	-131.086	47.172	0	110.10	0	7.4280	0	32.9350	0	25.735	0	109.155	0	203.7	4	69.1	4	-1E+10	1	-1E+10	1	-1E+10	1	-1E+10	1	-1E+10	1	-1E+10	1
4902549	69	C	07/08/2022	16:59	-131.086	47.172	0	110.90	0	7.4290	0	32.9440	0	25.742	0	109.948	0	202.3	4	68.6	4	-1E+10	1	-1E+10	1	-1E+10	1	-1E+10	1	-1E+10	1	-1E+10	1
4902549	69	C	07/08/2022	16:59	-131.086	47.172	0	112.00	0	7.4280	0	32.9590	0	25.754	0	111.038	0	200.9	4	68.1	4	-1E+10	1	-1E+10	1	-1E+10	1	-1E+10	1	-1E+10	1	-1E+10	1
4902549	69	C	07/08/2022	16:59	-131.086	47.172	0	112.80	0	7.3230	0	33.0060	0	25.806	0	111.831	0	199.8	4	67.6	4	-1E+10	1	-1E+10	1	-1E+10	1	-1E+10	1	-1E+10	1	-1E+10	1
4902549	69	C	07/08/2022	16:59	-131.086	47.172	0	113.90	0	7.2970	0	33.0250	0	25.824	0	112.922	0	197.8	4	66.9	4	-1E+10	1	-1E+10	1	-1E+10	1	-1E+10	1	-1E+10	1	-1E+10	1
4902549	69	C	07/08/2022	16:59	-131.086	47.172	0	115.10	0	7.2700	0	33.0700	0	25.864	0	114.111	0	195.8	4	66.2	4	-1E+10	1	-1E+10	1	-1E+10	1	-1E+10	1	-1E+10	1	-1E+10	1
4902549	69	C	07/08/2022	16:59	-131.086	47.172	0	116.10	0	7.2630	0	33.1210	0	25.905	0	115.102	0	194.4	4	65.7	4	-1E+10	1	-1E+10	1	-1E+10	1	-1E+10	1	-1E+10	1	-1E+10	1
4902549	69	C	07/08/2022	16:59	-131.086	47.172	0	117.00	0	7.2620	0	33.1240	0	25.907	0	115.994	0	192.8	4	65.2	4	-1E+10	1	-1E+10	1	-1E+10	1	-1E+10	1	-1E+10	1	-1E+10	1
4902549	69	C	07/08/2022	16:59	-131.086	47.172	0	118.00	0	7.2680	0	33.1280	0	25.909	0	116.985	0	191.1	4	64.6	4	-1E+10	1	-1E+10	1	-1E+10	1	-1E+10	1	-1E+10	1	-1E+10	1
4902549	69	C	07/08/2022	16:59	-131.086	47.172	0	118.70	0	7.2730	0	33.1350	0	25.914	0	117.679	0	190.1	4	64.3	4	-1E+10	1	-1E+10	1	-1E+10	1	-1E+10	1	-1E+10	1	-1E+10	1
4902549	69	C	07/08/2022	16:59	-131.086	47.172	0	119.80	0	7.2660	0	33.1760	0	25.948	0	118.769	0	188.7	4	63.8	4	-1E+10	1	-1E+10	1	-1E+10	1	-1E+10	1	-1E+10	1	-1E+10	1
4902549	69	C	07/08/2022	16:59	-131.086	47.172	0	121.00	0	7.2560	0	33.2170	0	25.981	0	119.959	0	187.2	4	63.3	4	-1E+10	1	-1E+10	1	-1E+10	1	-1E+10	1	-1E+10	1	-1E+10	1
4902549	69	C	07/08/2022	16:59	-131.086	47.172	0	121.70	0	7.2520	0	33.2260	0	25.989	0	120.652	0	186.1	4	63.0	4	-1E+10	1	-1E+10	1	-1E+10	1	-1E+10	1	-1E+10	1	-1E+10	1
4902549	69	C	07/08/2022	16:59	-131.086	47.172	0	122.80	0	7.2500	0	33.2410	0	26.001	0	121.743	0	184.3	4	62.4	4	-1E+10	1	-1E+10	1	-1E+10	1	-1E+10	1	-1E+10	1	-1E+10	1
4902549	69	C	07/08/2022	16:59	-131.086	47.172	0	124.00	0	7.2560	0	33.2570	0	26.013	0	122.932	0	182.6	4	61.8	4	-1E+10	1	-1E+10	1	-1E+10	1	-1E+10	1	-1E+10	1	-1E+10	1
4902549	69	C	07/08/2022	16:59	-131.086	47.172	0	124.70	0	7.2670	0	33.2670	0	26.019	0	123.626	0	181.3	4	61.4	4	-1E+10	1	-1E+10	1	-1E+10	1	-1E+10	1	-1E+10	1	-1E+10	1
4902549	69	C	07/08/2022	16:59	-131.086	47.172	0	125.80	0	7.2770	0	33.3110	0	26.052	0	124.716	0	179.4	4	60.8	4	-1E+10	1	-1E+10	1	-1E+10	1	-1E+10	1	-1E+10	1	-1E+10	1
4902549	69	C	07/08/2022	16:59	-131.086	47.172	0	127.00	0	7.2800	0	33.3340	0	26.070	0	125.905	0	177.8	4	60.2	4	-1E+10	1	-1E+10	1	-1E+10	1	-1E+10	1	-1E+10	1	-1E+10	1
4902549	69	C	07/08/2022	16:59	-131.086	47.172	0	128.00	0	7.2820	0	33.3510	0	26.083	0	126.896	0	176.1	4	59.7	4	-1E+10	1	-1E+10	1	-1E+10	1	-1E+10	1	-1E+10	1	-1E+10	1
4902549	69	C	07/08/2022	16:59	-131.086	47.172	0	129.20	0	7.3020	0	33.3850	0	26.107	0	128.085	0	174.0	4	59.0	4	-1E+10	1	-1E+10	1	-1E+10	1	-1E+10	1	-1E+10	1	-1E+10	1
4902549	69	C	07/08/2022	16:59	-131.086	47.172	0	129.90	0	7.3100	0	33.3900	0	26.110	0	128.779	0	172.8	4	58.6	4	-1E+10	1	-1E+10	1	-1E+10	1	-1E+10	1	-1E+10	1	-1E+10	1
4902549	69	C	07/08/2022	16:59	-131.086	47.172	0	131.00	0	7.3280	0	33.4110	0	26.124	0	129.869	0	170.9	4	58.0	4	-1E+10	1	-1E+10	1	-1E+10	1	-1E+10	1	-1E+10	1	-1E+10	1
4902549	69	C	07/08/2022	16:59	-131.086	47.172	0	132.10	0	7.3710	0	33.4560	0	26.153	0	130.960	0	169.4	4	57.6	4	-1E+10	1	-1E+10	1	-1E+10	1	-1E+10	1	-1E+10	1	-1E+10	1
4902549	69	C	07/08/2022	16:59	-131.086	47.172	0	132.90	0	7.3740	0	33.4980	0	26.186	0	131.752	0	168.8	4	57.4	4	-1E+10	1	-1E+10	1	-1E+10	1	-1E+10	1	-1E+10	1	-1E+10	1
4902549	69	C	07/08/2022	16:59	-131.086	47.172	0	134.00	0	7.3690	0	33.5150	0	26.200	0	132.843	0	168.1	4	57.1	4	-1E+10	1	-1E+10	1	-1E+10	1	-1E+10	1	-1E+10	1	-1E+10	1
4902549	69	C	07/08/2022	16:59	-131.086	47.172	0	135.20	0	7.3690	0	33.5250	0	26.208	0	134.032	0	167.7	4	57.0	4	-1E+10	1	-1E+10	1	-1E+10	1	-1E+10	1	-1E+10	1	-1E+10	1
4902549	69	C	07/08/2022	16:59	-131.086	47.172	0	135.90	0	7.3610	0	33.5390	0	26.220	0	134.725	0	167.6	4	57.0	4	-1E+10	1	-1E+10	1	-1E+10	1	-1E+10	1	-1E+10	1	-1E+10	1
4902549	69	C	07/08/2022	16:59	-131.086	47.172	0	137.00	0	7.3560	0	33.5490	0	26.229	0	135.816	0	167.3	4	56.9	4	-1E+10	1	-1E+10	1	-1E+10	1	-1E+10	1	-1E+10	1	-1E+10	1
4902549	69	C	07/08/2022	16:59	-131.086	47.172	0	138.20	0	7.3500	0	33.5570	0	26.236	0	137.005	0	167.1	4	56.8	4	-1E+10	1	-1E+10	1	-1E+10	1	-1E+10	1	-1E+10	1	-1E+10	1
4902549	69	C	07/08/2022	16:59	-131.086	47.172	0	138.90	0	7.3490	0	33.5600	0	26.238	0	137.699	0	167.0	4	56.8	4	-1E+10	1	-1E+10	1	-1E+10	1	-1E+10	1	-1E+10	1	-1E+10	1
4902549	69	C	07/08/2022	16:59	-131.086	47.172	0	140.00	0	7.3430	0	33.5670	0	26.245	0	138.789	0	166.8	4	56.7	4	-1E+10	1	-1E+10	1	-1E+10	1	-1E+10	1	-1E+10	1	-1E+10	1
4902549	69	C	07/08/2022	16:59	-131.086	47.172	0	141.20	0	7.3420	0	33.5740	0	26.250	0	139.978	0	166.8	4	56.7	4	-1E+10	1	-1E+10	1	-1E+10	1	-1E+10	1	-1E+10	1	-1E+10	1
4902549	69	C	07/08/2022	16:59	-131.086	47.172	0	141.90	0	7.3360	0	33.5820	0	26.258	0	140.672	0	166.8	4	56.7	4	-1E+10	1	-1E+10	1	-1E+10	1	-1E+10	1	-1E+10	1	-1E+10	1
4902549	69	C	07/08/2022	16:59	-131.086	47.172	0	143.00	0	7.3320	0	33.5840	0	26.260	0	141.762	0	166.9	4	56.7	4	-1E+10	1	-1E+10	1	-1E+10	1	-1E+10	1	-1E+10	1	-1E+10	1
4902549	69	C	07/08/2022	16:59	-131.086	47.172	0	144.10	0	7.3290	0	33.5870	0	26.263	0	142.852	0	166.9	4	56.7	4	-1E+10	1	-1E+10	1	-1E+10	1	-1E+10	1	-1E+10	1	-1E+10	1
4902549	69	C	07/08/2022	16:59	-131.086	47.172	0	145.00	0	7.3270	0	33.5890	0	26.264	0	143.744	0	167.0	4	56.7	4	-1E+10	1	-1E+10	1	-1E+10	1	-1E+10	1	-1E+10	1	-1E+10	1
4902549	69	C	07/08/2022	16:59	-131.086	47.172	0	146.10	0	7.3190	0	33.5930	0	26.269	0	144.834	0	167.1	4	56.8	4	-1E+10	1	-1E+10	1	-1E+10	1	-1E+10	1	-1E+10	1	-1E+10	1
4902549	69	C	07/08/2022	16:59	-131.086	47.172	0	146.80	0	7.2560	0	33.6180	0	26.297	0	145.527	0	167.1	4	56.7	4	-1E+10	1	-1E+10	1	-1E+10	1	-1E+10	1	-1E+10	1	-1E+10	1
4902549	69	C	07/08/2022	16:59	-131.086	47.172	0	147.80	0	7.2240	0	33.6280	0	26.309	0	146.518	0	167.0	4	56.6	4	-1E+10	1	-1E+10	1	-1E+10	1	-1E+10	1	-1E+10	1	-1E+10	1
4902549	69	C	07/08/2022	16:59	-131.086	47.172	0	149.00	0	7.2100	0	33.6450	0	26.325	0	147.708	0	166.8	4	56.5	4	-1E+10	1	-1E+10	1	-1E+10	1	-1E+10	1	-1E+10	1	-1E+10	1
4902549	69	C	07/08/2022	16:59	-131.086	47.172	0	149.70	0	7.2030	0	33.6570	0	26.335	0	148.401	0	166.8	4	56.5	4	-1E+10	1	-1E+10	1	-1E+10	1	-1E+10	1	-1E+10	1	-1E+10	1
4902549	69	C	07/08/2022	16:59	-131.086	47.172	0	150.80	0	7.1840	0	33.6610	0	26.341	0	149.491	0	166.6	4	56.5	4	-1E+10	1	-1E+10	1	-1E+10	1	-1E+10	1	-1E+10	1	-1E+10	1
4902549	69	C	07/08/2022	16:59	-131.086	47.172	0	152.00	0	7.1550	0	33.6700	0	26.352	0	150.680	0	166.4	4	56.4	4	-1E+10	1	-1E+10	1	-1E+10	1	-1E+10	1	-1E+10	1	-1E+10	1
4902549	69	C	07/08/2022	16:59	-131.086	47.172	0	152.80	0	7.1000	0	33.6740	0	26.363	0	151.473	0	165.8	4	56.1	4	-1E+10	1	-1E+10	1	-1E+10	1	-1E+10	1	-1E+10	1	-1E+10	1
4902549	69	C	07/08/2022	16:59	-131.086	47.172	0	154.00	0	7.1020	0	33.6900	0	26.375	0	152.662	0	164.9	4	55.8	4	-1E+10	1	-1E+10	1	-1E+10	1	-1E+10	1	-1E+10	1	-1E+10	1
4902549	69	C	07/08/2022	16:59	-131.086	47.172	0	155.30	0	7.0870	0	33.7040	0	26.388	0	153.951	0	164.2	4	55.5	4	-1E+10	1	-1E+10	1	-1E+10	1	-1E+10	1	-1E+10	1	-1E+10	1
4902549	69	C	07/08/2022	16:59	-131.086	47.172	0	156.10	0	7.0870	0	33.7080	0	26.391	0	154.743	0	163.7	4	55.4	4	-1E+10	1	-1E+10	1	-1E+10	1	-1E+10	1	-1E+10	1	-1E+10	1
4902549	69	C	07/08/2022	16:59	-131.086	47.172	0	157.00	0	7.0790	0	33.7130	0	26.396	0	155.635	0	163.1	4	55.2	4	-1E+10	1	-1E+10	1	-1E+10	1	-1E+10	1	-1E+10	1	-1E+10	1
4902549	69	C	07/08/2022	16:59	-131.086	47.172	0	157.80	0	7.0770	0	33.7160	0	26.399	0	156.428	0	162.5	4	54.9	4	-1E+10	1	-1E+10	1	-1E+10	1	-1E+10	1	-1E+10	1	-1E+10	1
4902549	69	C	07/08/2022	16:59	-131.086	47.172	0	158.70	0	7.0770	0	33.7170	0	26.400	0	157.320	0	161.7	4	54.7	4	-1E+10	1	-1E+10	1	-1E+10	1	-1E+10	1	-1E+10	1	-1E+10	1
4902549	69	C	07/08/2022	16:59	-131.086	47.172	0	159.90	0	7.0680	0	33.7260	0	26.408	0	158.509	0	160.9	4	54.4	4	-1E+10	1	-1E+10	1	-1E+10	1	-1E+10	1	-1E+10	1	-1E+10	1
4902549	69	C	07/08/2022	16:59	-131.086	47.172	0	161.30	0	7.0670	0	33.7340	0	26.415	0	159.896	0	160.5	4	54.3	4	-1E+10	1	-1E+10	1	-1E+10	1	-1E+10	1	-1E+10	1	-1E+10	1
4902549	69	C	07/08/2022	16:59	-131.086	47.172	0	162.20	0	7.0600	0	33.7390	0	26.420	0	160.788	0	160.4	4	54.2	4	-1E+10	1	-1E+10	1	-1E+10	1	-1E+10	1	-1E+10	1	-1E+10	1
4902549	69	C	07/08/2022	16:59	-131.086	47.172	0	163.10	0	7.0520	0	33.7410	0	26.422	0	161.680	0	160.3	4	54.2	4	-1E+10	1	-1E+10	1	-1E+10	1	-1E+10	1	-1E+10	1	-1E+10	1
4902549	69	C	07/08/2022	16:59	-131.086	47.172	0	164.00	0	7.0260	0	33.7400	0	26.425	0	162.572	0	159.7	4	53.9	4	-1E+10	1	-1E+10	1	-1E+10	1	-1E+10	1	-1E+10	1	-1E+10	1
4902549	69	C	07/08/2022	16:59	-131.086	47.172	0	164.90	0	7.0010	0	33.7390	0	26.428	0	163.463	0	158.7	4	53.6	4	-1E+10	1	-1E+10	1	-1E+10	1	-1E+10	1	-1E+10	1	-1E+10	1
4902549	69	C	07/08/2022	16:59	-131.086	47.172	0	165.80	0	6.9940	0	33.7450	0	26.433	0	164.355	0	157.7	4	53.2	4	-1E+10	1	-1E+10	1	-1E+10	1	-1E+10	1	-1E+10	1	-1E+10	1
4902549	69	C	07/08/2022	16:59	-131.086	47.172	0	166.70	0	6.9890	0	33.7460	0	26.435	0	165.247	0	156.6	4	52.9	4	-1E+10	1	-1E+10	1	-1E+10	1	-1E+10	1	-1E+10	1	-1E+10	1
4902549	69	C	07/08/2022	16:59	-131.086	47.172	0	167.70	0	6.9870	0	33.7480	0	26.437	0	166.238	0	155.4	4	52.5	4	-1E+10	1	-1E+10	1	-1E+10	1	-1E+10	1	-1E+10	1	-1E+10	1
4902549	69	C	07/08/2022	16:59	-131.086	47.172	0	168.60	0	6.9810	0	33.7500	0	26.439	0	167.130	0	154.3	4	52.1	4	-1E+10	1	-1E+10	1	-1E+10	1	-1E+10	1	-1E+10	1	-1E+10	1
4902549	69	C	07/08/2022	16:59	-131.086	47.172	0	169.60	0	6.9850	0	33.7540	0	26.442	0	168.121	0	153.3	4	51.8	4	-1E+10	1	-1E+10	1	-1E+10	1	-1E+10	1	-1E+10	1	-1E+10	1
4902549	69	C	07/08/2022	16:59	-131.086	47.172	0	170.50	0	6.9820	0	33.7550	0	26.443	0	169.012	0	152.3	4	51.4	4	-1E+10	1	-1E+10	1	-1E+10	1	-1E+10	1	-1E+10	1	-1E+10	1
4902549	69	C	07/08/2022	16:59	-131.086	47.172	0	171.50	0	6.9950	0	33.7590	0	26.444	0	170.003	0	151.5	4	51.1	4	-1E+10	1	-1E+10	1	-1E+10	1	-1E+10	1	-1E+10	1	-1E+10	1
4902549	69	C	07/08/2022	16:59	-131.086	47.172	0	172.90	0	6.9810	0	33.7660	0	26.452	0	171.390	0	150.4	4	50.8	4	-1E+10	1	-1E+10	1	-1E+10	1	-1E+10	1	-1E+10	1	-1E+10	1
4902549	69	C	07/08/2022	16:59	-131.086	47.172	0	174.40	0	6.9680	0	33.7690	0	26.456	0	172.877	0	149.4	4	50.4	4	-1E+10	1	-1E+10	1	-1E+10	1	-1E+10	1	-1E+10	1	-1E+10	1
4902549	69	C	07/08/2022	16:59	-131.086	47.172	0	175.40	0	6.9630	0	33.7700	0	26.457	0	173.867	0	148.7	4	50.2	4	-1E+10	1	-1E+10	1	-1E+10	1	-1E+10	1	-1E+10	1	-1E+10	1
4902549	69	C	07/08/2022	16:59	-131.086	47.172	0	176.40	0	6.9660	0	33.7720	0	26.458	0	174.858	0	147.9	4	49.9	4	-1E+10	1	-1E+10	1	-1E+10	1	-1E+10	1	-1E+10	1	-1E+10	1
4902549	69	C	07/08/2022	16:59	-131.086	47.172	0	177.30	0	6.9690	0	33.7730	0	26.459	0	175.750	0	147.1	4	49.7	4	-1E+10	1	-1E+10	1	-1E+10	1	-1E+10	1	-1E+10	1	-1E+10	1
4902549	69	C	07/08/2022	16:59	-131.086	47.172	0	178.30	0	6.9570	0	33.7740	0	26.461	0	176.741	0	146.3	4	49.4	4	-1E+10	1	-1E+10	1	-1E+10	1	-1E+10	1	-1E+10	1	-1E+10	1
4902549	69	C	07/08/2022	16:59	-131.086	47.172	0	179.30	0	6.9280	0	33.7810	0	26.471	0	177.732	0	145.5	4	49.1	4	-1E+10	1	-1E+10	1	-1E+10	1	-1E+10	1	-1E+10	1	-1E+10	1
4902549	69	C	07/08/2022	16:59	-131.086	47.172	0	180.30	0	6.9010	0	33.7830	0	26.476	0	178.723	0	144.8	4	48.8	4	-1E+10	1	-1E+10	1	-1E+10	1	-1E+10	1	-1E+10	1	-1E+10	1
4902549	69	C	07/08/2022	16:59	-131.086	47.172	0	181.30	0	6.8930	0	33.7850	0	26.479	0	179.713	0	143.9	4	48.5	4	-1E+10	1	-1E+10	1	-1E+10	1	-1E+10	1	-1E+10	1	-1E+10	1
4902549	69	C	07/08/2022	16:59	-131.086	47.172	0	182.30	0	6.8850	0	33.7860	0	26.481	0	180.704	0	142.8	4	48.1	4	-1E+10	1	-1E+10	1	-1E+10	1	-1E+10	1	-1E+10	1	-1E+10	1
4902549	69	C	07/08/2022	16:59	-131.086	47.172	0	183.30	0	6.8730	0	33.7880	0	26.484	0	181.695	0	141.7	4	47.7	4	-1E+10	1	-1E+10	1	-1E+10	1	-1E+10	1	-1E+10	1	-1E+10	1
4902549	69	C	07/08/2022	16:59	-131.086	47.172	0	184.30	0	6.8720	0	33.7890	0	26.485	0	182.686	0	140.7	4	47.4	4	-1E+10	1	-1E+10	1	-1E+10	1	-1E+10	1	-1E+10	1	-1E+10	1
4902549	69	C	07/08/2022	16:59	-131.086	47.172	0	185.30	0	6.8660	0	33.7970	0	26.492	0	183.677	0	139.9	4	47.1	4	-1E+10	1	-1E+10	1	-1E+10	1	-1E+10	1	-1E+10	1	-1E+10	1
4902549	69	C	07/08/2022	16:59	-131.086	47.172	0	186.40	0	6.8600	0	33.8000	0	26.495	0	184.766	0	139.2	4	46.9	4	-1E+10	1	-1E+10	1	-1E+10	1	-1E+10	1	-1E+10	1	-1E+10	1
4902549	69	C	07/08/2022	16:59	-131.086	47.172	0	187.40	0	6.8510	0	33.8010	0	26.497	0	185.757	0	138.7	4	46.7	4	-1E+10	1	-1E+10	1	-1E+10	1	-1E+10	1	-1E+10	1	-1E+10	1
4902549	69	C	07/08/2022	16:59	-131.086	47.172	0	188.40	0	6.8410	0	33.8050	0	26.502	0	186.748	0	138.2	4	46.5	4	-1E+10	1	-1E+10	1	-1E+10	1	-1E+10	1	-1E+10	1	-1E+10	1
4902549	69	C	07/08/2022	16:59	-131.086	47.172	0	189.40	0	6.8250	0	33.8060	0	26.504	0	187.739	0	137.7	4	46.3	4	-1E+10	1	-1E+10	1	-1E+10	1	-1E+10	1	-1E+10	1	-1E+10	1
4902549	69	C	07/08/2022	16:59	-131.086	47.172	0	190.40	0	6.8060	0	33.8070	0	26.508	0	188.730	0	137.2	4	46.1	4	-1E+10	1	-1E+10	1	-1E+10	1	-1E+10	1	-1E+10	1	-1E+10	1
4902549	69	C	07/08/2022	16:59	-131.086	47.172	0	191.30	0	6.7840	0	33.8120	0	26.515	0	189.621	0	136.7	4	46.0	4	-1E+10	1	-1E+10	1	-1E+10	1	-1E+10	1	-1E+10	1	-1E+10	1
4902549	69	C	07/08/2022	16:59	-131.086	47.172	0	192.30	0	6.7730	0	33.8110	0	26.515	0	190.612	0	136.3	4	45.8	4	-1E+10	1	-1E+10	1	-1E+10	1	-1E+10	1	-1E+10	1	-1E+10	1
4902549	69	C	07/08/2022	16:59	-131.086	47.172	0	193.30	0	6.7710	0	33.8100	0	26.515	0	191.603	0	135.8	4	45.6	4	-1E+10	1	-1E+10	1	-1E+10	1	-1E+10	1	-1E+10	1	-1E+10	1
4902549	69	C	07/08/2022	16:59	-131.086	47.172	0	194.30	0	6.7630	0	33.8120	0	26.518	0	192.594	0	135.4	4	45.5	4	-1E+10	1	-1E+10	1	-1E+10	1	-1E+10	1	-1E+10	1	-1E+10	1
4902549	69	C	07/08/2022	16:59	-131.086	47.172	0	195.30	0	6.7560	0	33.8130	0	26.519	0	193.584	0	135.0	4	45.3	4	-1E+10	1	-1E+10	1	-1E+10	1	-1E+10	1	-1E+10	1	-1E+10	1
4902549	69	C	07/08/2022	16:59	-131.086	47.172	0	196.30	0	6.7230	0	33.8170	0	26.527	0	194.575	0	134.6	4	45.2	4	-1E+10	1	-1E+10	1	-1E+10	1	-1E+10	1	-1E+10	1	-1E+10	1
4902549	69	C	07/08/2022	16:59	-131.086	47.172	0	197.30	0	6.7110	0	33.8170	0	26.528	0	195.566	0	134.2	4	45.0	4	-1E+10	1	-1E+10	1	-1E+10	1	-1E+10	1	-1E+10	1	-1E+10	1
4902549	69	C	07/08/2022	16:59	-131.086	47.172	0	198.30	0	6.6930	0	33.8200	0	26.533	0	196.557	0	133.9	4	44.9	4	-1E+10	1	-1E+10	1	-1E+10	1	-1E+10	1	-1E+10	1	-1E+10	1
4902549	69	C	07/08/2022	16:59	-131.086	47.172	0	199.30	0	6.6700	0	33.8200	0	26.536	0	197.547	0	133.6	4	44.8	4	-1E+10	1	-1E+10	1	-1E+10	1	-1E+10	1	-1E+10	1	-1E+10	1
4902549	69	C	07/08/2022	16:59	-131.086	47.172	0	200.30	0	6.6330	0	33.8230	0	26.544	0	198.538	0	133.2	4	44.6	4	-1E+10	1	-1E+10	1	-1E+10	1	-1E+10	1	-1E+10	1	-1E+10	1
4902549	69	C	07/08/2022	16:59	-131.086	47.172	0	201.30	0	6.6260	0	33.8210	0	26.543	0	199.529	0	132.9	4	44.5	4	-1E+10	1	-1E+10	1	-1E+10	1	-1E+10	1	-1E+10	1	-1E+10	1
4902549	69	C	07/08/2022	16:59	-131.086	47.172	0	202.30	0	6.6190	0	33.8210	0	26.544	0	200.519	0	132.4	4	44.3	4	-1E+10	1	-1E+10	1	-1E+10	1	-1E+10	1	-1E+10	1	-1E+10	1
4902549	69	C	07/08/2022	16:59	-131.086	47.172	0	203.20	0	6.6140	0	33.8200	0	26.544	0	201.411	0	131.8	4	44.1	4	-1E+10	1	-1E+10	1	-1E+10	1	-1E+10	1	-1E+10	1	-1E+10	1
4902549	69	C	07/08/2022	16:59	-131.086	47.172	0	204.20	0	6.6070	0	33.8210	0	26.545	0	202.402	0	131.3	4	44.0	4	-1E+10	1	-1E+10	1	-1E+10	1	-1E+10	1	-1E+10	1	-1E+10	1
4902549	69	C	07/08/2022	16:59	-131.086	47.172	0	205.20	0	6.5880	0	33.8220	0	26.549	0	203.392	0	130.8	4	43.8	4	-1E+10	1	-1E+10	1	-1E+10	1	-1E+10	1	-1E+10	1	-1E+10	1
4902549	69	C	07/08/2022	16:59	-131.086	47.172	0	206.20	0	6.5450	0	33.8260	0	26.558	0	204.383	0	130.5	4	43.6	4	-1E+10	1	-1E+10	1	-1E+10	1	-1E+10	1	-1E+10	1	-1E+10	1
4902549	69	C	07/08/2022	16:59	-131.086	47.172	0	207.20	0	6.5360	0	33.8270	0	26.560	0	205.374	0	130.1	4	43.5	4	-1E+10	1	-1E+10	1	-1E+10	1	-1E+10	1	-1E+10	1	-1E+10	1
4902549	69	C	07/08/2022	16:59	-131.086	47.172	0	208.30	0	6.5140	0	33.8310	0	26.566	0	206.464	0	129.8	4	43.4	4	-1E+10	1	-1E+10	1	-1E+10	1	-1E+10	1	-1E+10	1	-1E+10	1
4902549	69	C	07/08/2022	16:59	-131.086	47.172	0	209.30	0	6.4670	0	33.8310	0	26.572	0	207.454	0	129.8	4	43.3	4	-1E+10	1	-1E+10	1	-1E+10	1	-1E+10	1	-1E+10	1	-1E+10	1
4902549	69	C	07/08/2022	16:59	-131.086	47.172	0	210.30	0	6.4610	0	33.8310	0	26.573	0	208.445	0	129.6	4	43.3	4	-1E+10	1	-1E+10	1	-1E+10	1	-1E+10	1	-1E+10	1	-1E+10	1
4902549	69	C	07/08/2022	16:59	-131.086	47.172	0	211.30	0	6.4490	0	33.8310	0	26.574	0	209.436	0	129.5	4	43.2	4	-1E+10	1	-1E+10	1	-1E+10	1	-1E+10	1	-1E+10	1	-1E+10	1
4902549	69	C	07/08/2022	16:59	-131.086	47.172	0	212.40	0	6.3910	0	33.8320	0	26.582	0	210.525	0	129.4	4	43.1	4	-1E+10	1	-1E+10	1	-1E+10	1	-1E+10	1	-1E+10	1	-1E+10	1
4902549	69	C	07/08/2022	16:59	-131.086	47.172	0	213.40	0	6.3700	0	33.8290	0	26.583	0	211.516	0	129.2	4	43.0	4	-1E+10	1	-1E+10	1	-1E+10	1	-1E+10	1	-1E+10	1	-1E+10	1
4902549	69	C	07/08/2022	16:59	-131.086	47.172	0	214.50	0	6.3630	0	33.8290	0	26.584	0	212.606	0	128.9	4	42.9	4	-1E+10	1	-1E+10	1	-1E+10	1	-1E+10	1	-1E+10	1	-1E+10	1
4902549	69	C	07/08/2022	16:59	-131.086	47.172	0	215.50	0	6.3630	0	33.8310	0	26.585	0	213.596	0	128.7	4	42.8	4	-1E+10	1	-1E+10	1	-1E+10	1	-1E+10	1	-1E+10	1	-1E+10	1
4902549	69	C	07/08/2022	16:59	-131.086	47.172	0	216.50	0	6.3470	0	33.8320	0	26.588	0	214.587	0	128.5	4	42.8	4	-1E+10	1	-1E+10	1	-1E+10	1	-1E+10	1	-1E+10	1	-1E+10	1
4902549	69	C	07/08/2022	16:59	-131.086	47.172	0	217.60	0	6.3210	0	33.8330	0	26.592	0	215.677	0	128.2	4	42.6	4	-1E+10	1	-1E+10	1	-1E+10	1	-1E+10	1	-1E+10	1	-1E+10	1
4902549	69	C	07/08/2022	16:59	-131.086	47.172	0	218.60	0	6.3130	0	33.8300	0	26.591	0	216.667	0	127.9	4	42.5	4	-1E+10	1	-1E+10	1	-1E+10	1	-1E+10	1	-1E+10	1	-1E+10	1
4902549	69	C	07/08/2022	16:59	-131.086	47.172	0	219.50	0	6.2890	0	33.8300	0	26.594	0	217.559	0	127.4	4	42.4	4	-1E+10	1	-1E+10	1	-1E+10	1	-1E+10	1	-1E+10	1	-1E+10	1
4902549	69	C	07/08/2022	16:59	-131.086	47.172	0	221.00	0	6.2680	0	33.8310	0	26.598	0	219.045	0	126.7	4	42.1	4	-1E+10	1	-1E+10	1	-1E+10	1	-1E+10	1	-1E+10	1	-1E+10	1
4902549	69	C	07/08/2022	16:59	-131.086	47.172	0	222.20	0	6.2710	0	33.8330	0	26.599	0	220.234	0	126.3	4	42.0	4	-1E+10	1	-1E+10	1	-1E+10	1	-1E+10	1	-1E+10	1	-1E+10	1
4902549	69	C	07/08/2022	16:59	-131.086	47.172	0	223.00	0	6.2650	0	33.8330	0	26.600	0	221.026	0	126.2	4	41.9	4	-1E+10	1	-1E+10	1	-1E+10	1	-1E+10	1	-1E+10	1	-1E+10	1
4902549	69	C	07/08/2022	16:59	-131.086	47.172	0	223.80	0	6.2200	0	33.8340	0	26.606	0	221.819	0	126.0	4	41.8	4	-1E+10	1	-1E+10	1	-1E+10	1	-1E+10	1	-1E+10	1	-1E+10	1
4902549	69	C	07/08/2022	16:59	-131.086	47.172	0	225.00	0	6.2040	0	33.8320	0	26.607	0	223.007	0	125.4	4	41.6	4	-1E+10	1	-1E+10	1	-1E+10	1	-1E+10	1	-1E+10	1	-1E+10	1
4902549	69	C	07/08/2022	16:59	-131.086	47.172	0	226.30	0	6.1940	0	33.8320	0	26.608	0	224.295	0	124.7	4	41.3	4	-1E+10	1	-1E+10	1	-1E+10	1	-1E+10	1	-1E+10	1	-1E+10	1
4902549	69	C	07/08/2022	16:59	-131.086	47.172	0	227.10	0	6.1890	0	33.8330	0	26.609	0	225.088	0	124.2	4	41.2	4	-1E+10	1	-1E+10	1	-1E+10	1	-1E+10	1	-1E+10	1	-1E+10	1
4902549	69	C	07/08/2022	16:59	-131.086	47.172	0	227.90	0	6.1830	0	33.8340	0	26.611	0	225.880	0	123.6	4	41.0	4	-1E+10	1	-1E+10	1	-1E+10	1	-1E+10	1	-1E+10	1	-1E+10	1
4902549	69	C	07/08/2022	16:59	-131.086	47.172	0	228.70	0	6.1720	0	33.8380	0	26.615	0	226.673	0	123.1	4	40.8	4	-1E+10	1	-1E+10	1	-1E+10	1	-1E+10	1	-1E+10	1	-1E+10	1
4902549	69	C	07/08/2022	16:59	-131.086	47.172	0	230.00	0	6.1640	0	33.8340	0	26.613	0	227.960	0	122.3	4	40.5	4	-1E+10	1	-1E+10	1	-1E+10	1	-1E+10	1	-1E+10	1	-1E+10	1
4902549	69	C	07/08/2022	16:59	-131.086	47.172	0	231.30	0	6.1600	0	33.8340	0	26.614	0	229.248	0	121.4	4	40.2	4	-1E+10	1	-1E+10	1	-1E+10	1	-1E+10	1	-1E+10	1	-1E+10	1
4902549	69	C	07/08/2022	16:59	-131.086	47.172	0	232.10	0	6.1600	0	33.8370	0	26.616	0	230.041	0	120.8	4	40.0	4	-1E+10	1	-1E+10	1	-1E+10	1	-1E+10	1	-1E+10	1	-1E+10	1
4902549	69	C	07/08/2022	16:59	-131.086	47.172	0	233.00	0	6.1590	0	33.8410	0	26.619	0	230.932	0	120.4	4	39.9	4	-1E+10	1	-1E+10	1	-1E+10	1	-1E+10	1	-1E+10	1	-1E+10	1
4902549	69	C	07/08/2022	16:59	-131.086	47.172	0	233.80	0	6.1540	0	33.8430	0	26.622	0	231.725	0	120.0	4	39.8	4	-1E+10	1	-1E+10	1	-1E+10	1	-1E+10	1	-1E+10	1	-1E+10	1
4902549	69	C	07/08/2022	16:59	-131.086	47.172	0	234.70	0	6.1550	0	33.8450	0	26.623	0	232.616	0	119.7	4	39.7	4	-1E+10	1	-1E+10	1	-1E+10	1	-1E+10	1	-1E+10	1	-1E+10	1
4902549	69	C	07/08/2022	16:59	-131.086	47.172	0	235.90	0	6.1410	0	33.8450	0	26.625	0	233.805	0	119.2	4	39.5	4	-1E+10	1	-1E+10	1	-1E+10	1	-1E+10	1	-1E+10	1	-1E+10	1
4902549	69	C	07/08/2022	16:59	-131.086	47.172	0	237.20	0	6.1230	0	33.8460	0	26.628	0	235.092	0	118.8	4	39.3	4	-1E+10	1	-1E+10	1	-1E+10	1	-1E+10	1	-1E+10	1	-1E+10	1
4902549	69	C	07/08/2022	16:59	-131.086	47.172	0	238.10	0	6.1190	0	33.8450	0	26.628	0	235.984	0	118.4	4	39.2	4	-1E+10	1	-1E+10	1	-1E+10	1	-1E+10	1	-1E+10	1	-1E+10	1
4902549	69	C	07/08/2022	16:59	-131.086	47.172	0	239.00	0	6.1060	0	33.8450	0	26.629	0	236.875	0	118.0	4	39.1	4	-1E+10	1	-1E+10	1	-1E+10	1	-1E+10	1	-1E+10	1	-1E+10	1
4902549	69	C	07/08/2022	16:59	-131.086	47.172	0	239.90	0	6.0960	0	33.8450	0	26.631	0	237.767	0	117.7	4	38.9	4	-1E+10	1	-1E+10	1	-1E+10	1	-1E+10	1	-1E+10	1	-1E+10	1
4902549	69	C	07/08/2022	16:59	-131.086	47.172	0	240.70	0	6.0890	0	33.8450	0	26.632	0	238.559	0	117.3	4	38.8	4	-1E+10	1	-1E+10	1	-1E+10	1	-1E+10	1	-1E+10	1	-1E+10	1
4902549	69	C	07/08/2022	16:59	-131.086	47.172	0	241.60	0	6.0690	0	33.8470	0	26.636	0	239.451	0	116.9	4	38.7	4	-1E+10	1	-1E+10	1	-1E+10	1	-1E+10	1	-1E+10	1	-1E+10	1
4902549	69	C	07/08/2022	16:59	-131.086	47.172	0	242.90	0	6.0500	0	33.8480	0	26.639	0	240.738	0	116.5	4	38.5	4	-1E+10	1	-1E+10	1	-1E+10	1	-1E+10	1	-1E+10	1	-1E+10	1
4902549	69	C	07/08/2022	16:59	-131.086	47.172	0	244.30	0	6.0460	0	33.8480	0	26.639	0	242.125	0	115.8	4	38.3	4	-1E+10	1	-1E+10	1	-1E+10	1	-1E+10	1	-1E+10	1	-1E+10	1
4902549	69	C	07/08/2022	16:59	-131.086	47.172	0	245.20	0	6.0450	0	33.8490	0	26.640	0	243.017	0	115.4	4	38.2	4	-1E+10	1	-1E+10	1	-1E+10	1	-1E+10	1	-1E+10	1	-1E+10	1
4902549	69	C	07/08/2022	16:59	-131.086	47.172	0	246.10	0	6.0370	0	33.8500	0	26.642	0	243.908	0	115.0	4	38.0	4	-1E+10	1	-1E+10	1	-1E+10	1	-1E+10	1	-1E+10	1	-1E+10	1
4902549	69	C	07/08/2022	16:59	-131.086	47.172	0	247.00	0	6.0380	0	33.8490	0	26.641	0	244.800	0	114.5	4	37.9	4	-1E+10	1	-1E+10	1	-1E+10	1	-1E+10	1	-1E+10	1	-1E+10	1
4902549	69	C	07/08/2022	16:59	-131.086	47.172	0	247.90	0	6.0290	0	33.8500	0	26.643	0	245.691	0	114.0	4	37.7	4	-1E+10	1	-1E+10	1	-1E+10	1	-1E+10	1	-1E+10	1	-1E+10	1
4902549	69	C	07/08/2022	16:59	-131.086	47.172	0	248.70	0	6.0270	0	33.8500	0	26.643	0	246.483	0	113.6	4	37.5	4	-1E+10	1	-1E+10	1	-1E+10	1	-1E+10	1	-1E+10	1	-1E+10	1
4902549	69	C	07/08/2022	16:59	-131.086	47.172	0	249.60	0	6.0250	0	33.8510	0	26.644	0	247.375	0	113.0	4	37.4	4	-1E+10	1	-1E+10	1	-1E+10	1	-1E+10	1	-1E+10	1	-1E+10	1
4902549	69	C	07/08/2022	16:59	-131.086	47.172	0	250.90	0	6.0200	0	33.8510	0	26.645	0	248.662	0	112.3	4	37.1	4	-1E+10	1	-1E+10	1	-1E+10	1	-1E+10	1	-1E+10	1	-1E+10	1
4902549	69	C	07/08/2022	16:59	-131.086	47.172	0	252.30	0	6.0080	0	33.8530	0	26.648	0	250.049	0	111.5	4	36.8	4	-1E+10	1	-1E+10	1	-1E+10	1	-1E+10	1	-1E+10	1	-1E+10	1
4902549	69	C	07/08/2022	16:59	-131.086	47.172	0	253.20	0	6.0090	0	33.8520	0	26.647	0	250.941	0	111.0	4	36.6	4	-1E+10	1	-1E+10	1	-1E+10	1	-1E+10	1	-1E+10	1	-1E+10	1
4902549	69	C	07/08/2022	16:59	-131.086	47.172	0	254.00	0	6.0040	0	33.8540	0	26.649	0	251.733	0	110.3	4	36.4	4	-1E+10	1	-1E+10	1	-1E+10	1	-1E+10	1	-1E+10	1	-1E+10	1
4902549	69	C	07/08/2022	16:59	-131.086	47.172	0	254.90	0	5.9940	0	33.8580	0	26.654	0	252.624	0	109.6	4	36.2	4	-1E+10	1	-1E+10	1	-1E+10	1	-1E+10	1	-1E+10	1	-1E+10	1
4902549	69	C	07/08/2022	16:59	-131.086	47.172	0	255.80	0	5.9840	0	33.8540	0	26.652	0	253.516	0	108.9	4	35.9	4	-1E+10	1	-1E+10	1	-1E+10	1	-1E+10	1	-1E+10	1	-1E+10	1
4902549	69	C	07/08/2022	16:59	-131.086	47.172	0	256.70	0	5.9630	0	33.8540	0	26.655	0	254.407	0	108.1	4	35.7	4	-1E+10	1	-1E+10	1	-1E+10	1	-1E+10	1	-1E+10	1	-1E+10	1
4902549	69	C	07/08/2022	16:59	-131.086	47.172	0	257.60	0	5.9520	0	33.8520	0	26.654	0	255.299	0	107.4	4	35.4	4	-1E+10	1	-1E+10	1	-1E+10	1	-1E+10	1	-1E+10	1	-1E+10	1
4902549	69	C	07/08/2022	16:59	-131.086	47.172	0	258.90	0	5.9610	0	33.8610	0	26.660	0	256.586	0	106.7	4	35.2	4	-1E+10	1	-1E+10	1	-1E+10	1	-1E+10	1	-1E+10	1	-1E+10	1
4902549	69	C	07/08/2022	16:59	-131.086	47.172	0	260.20	0	5.9410	0	33.8670	0	26.668	0	257.874	0	106.1	4	35.0	4	-1E+10	1	-1E+10	1	-1E+10	1	-1E+10	1	-1E+10	1	-1E+10	1
4902549	69	C	07/08/2022	16:59	-131.086	47.172	0	261.10	0	5.9240	0	33.8660	0	26.669	0	258.765	0	105.9	4	34.9	4	-1E+10	1	-1E+10	1	-1E+10	1	-1E+10	1	-1E+10	1	-1E+10	1
4902549	69	C	07/08/2022	16:59	-131.086	47.172	0	262.00	0	5.9070	0	33.8670	0	26.672	0	259.657	0	105.7	4	34.8	4	-1E+10	1	-1E+10	1	-1E+10	1	-1E+10	1	-1E+10	1	-1E+10	1
4902549	69	C	07/08/2022	16:59	-131.086	47.172	0	262.90	0	5.8890	0	33.8670	0	26.674	0	260.548	0	105.4	4	34.7	4	-1E+10	1	-1E+10	1	-1E+10	1	-1E+10	1	-1E+10	1	-1E+10	1
4902549	69	C	07/08/2022	16:59	-131.086	47.172	0	263.80	0	5.8710	0	33.8670	0	26.676	0	261.439	0	105.2	4	34.6	4	-1E+10	1	-1E+10	1	-1E+10	1	-1E+10	1	-1E+10	1	-1E+10	1
4902549	69	C	07/08/2022	16:59	-131.086	47.172	0	264.70	0	5.8540	0	33.8680	0	26.679	0	262.331	0	104.9	4	34.5	4	-1E+10	1	-1E+10	1	-1E+10	1	-1E+10	1	-1E+10	1	-1E+10	1
4902549	69	C	07/08/2022	16:59	-131.086	47.172	0	265.90	0	5.8460	0	33.8680	0	26.680	0	263.519	0	104.5	4	34.4	4	-1E+10	1	-1E+10	1	-1E+10	1	-1E+10	1	-1E+10	1	-1E+10	1
4902549	69	C	07/08/2022	16:59	-131.086	47.172	0	267.30	0	5.8460	0	33.8670	0	26.679	0	264.906	0	104.1	4	34.3	4	-1E+10	1	-1E+10	1	-1E+10	1	-1E+10	1	-1E+10	1	-1E+10	1
4902549	69	C	07/08/2022	16:59	-131.086	47.172	0	268.20	0	5.8350	0	33.8680	0	26.682	0	265.797	0	103.8	4	34.2	4	-1E+10	1	-1E+10	1	-1E+10	1	-1E+10	1	-1E+10	1	-1E+10	1
4902549	69	C	07/08/2022	16:59	-131.086	47.172	0	269.00	0	5.8270	0	33.8680	0	26.683	0	266.589	0	103.5	4	34.1	4	-1E+10	1	-1E+10	1	-1E+10	1	-1E+10	1	-1E+10	1	-1E+10	1
4902549	69	C	07/08/2022	16:59	-131.086	47.172	0	269.90	0	5.8150	0	33.8670	0	26.683	0	267.481	0	103.3	4	34.0	4	-1E+10	1	-1E+10	1	-1E+10	1	-1E+10	1	-1E+10	1	-1E+10	1
4902549	69	C	07/08/2022	16:59	-131.086	47.172	0	270.80	0	5.8050	0	33.8680	0	26.685	0	268.372	0	103.0	4	33.9	4	-1E+10	1	-1E+10	1	-1E+10	1	-1E+10	1	-1E+10	1	-1E+10	1
4902549	69	C	07/08/2022	16:59	-131.086	47.172	0	271.70	0	5.7760	0	33.8680	0	26.689	0	269.263	0	102.7	4	33.7	4	-1E+10	1	-1E+10	1	-1E+10	1	-1E+10	1	-1E+10	1	-1E+10	1
4902549	69	C	07/08/2022	16:59	-131.086	47.172	0	273.00	0	5.7400	0	33.8650	0	26.691	0	270.551	0	102.2	4	33.5	4	-1E+10	1	-1E+10	1	-1E+10	1	-1E+10	1	-1E+10	1	-1E+10	1
4902549	69	C	07/08/2022	16:59	-131.086	47.172	0	274.30	0	5.7220	0	33.8670	0	26.695	0	271.838	0	101.6	4	33.3	4	-1E+10	1	-1E+10	1	-1E+10	1	-1E+10	1	-1E+10	1	-1E+10	1
4902549	69	C	07/08/2022	16:59	-131.086	47.172	0	275.20	0	5.7030	0	33.8640	0	26.695	0	272.730	0	101.2	4	33.2	4	-1E+10	1	-1E+10	1	-1E+10	1	-1E+10	1	-1E+10	1	-1E+10	1
4902549	69	C	07/08/2022	16:59	-131.086	47.172	0	276.10	0	5.6940	0	33.8630	0	26.695	0	273.621	0	100.8	4	33.0	4	-1E+10	1	-1E+10	1	-1E+10	1	-1E+10	1	-1E+10	1	-1E+10	1
4902549	69	C	07/08/2022	16:59	-131.086	47.172	0	277.00	0	5.6870	0	33.8640	0	26.697	0	274.512	0	100.2	4	32.9	4	-1E+10	1	-1E+10	1	-1E+10	1	-1E+10	1	-1E+10	1	-1E+10	1
4902549	69	C	07/08/2022	16:59	-131.086	47.172	0	277.90	0	5.6670	0	33.8650	0	26.700	0	275.404	0	99.7	4	32.7	4	-1E+10	1	-1E+10	1	-1E+10	1	-1E+10	1	-1E+10	1	-1E+10	1
4902549	69	C	07/08/2022	16:59	-131.086	47.172	0	278.80	0	5.6520	0	33.8680	0	26.704	0	276.295	0	99.2	4	32.5	4	-1E+10	1	-1E+10	1	-1E+10	1	-1E+10	1	-1E+10	1	-1E+10	1
4902549	69	C	07/08/2022	16:59	-131.086	47.172	0	279.70	0	5.6400	0	33.8680	0	26.705	0	277.186	0	98.8	4	32.3	4	-1E+10	1	-1E+10	1	-1E+10	1	-1E+10	1	-1E+10	1	-1E+10	1
4902549	69	C	07/08/2022	16:59	-131.086	47.172	0	280.60	0	5.6300	0	33.8680	0	26.707	0	278.078	0	98.4	4	32.2	4	-1E+10	1	-1E+10	1	-1E+10	1	-1E+10	1	-1E+10	1	-1E+10	1
4902549	69	C	07/08/2022	16:59	-131.086	47.172	0	281.90	0	5.6130	0	33.8700	0	26.710	0	279.365	0	97.9	4	32.1	4	-1E+10	1	-1E+10	1	-1E+10	1	-1E+10	1	-1E+10	1	-1E+10	1
4902549	69	C	07/08/2022	16:59	-131.086	47.172	0	283.30	0	5.5940	0	33.8710	0	26.713	0	280.752	0	97.4	4	31.9	4	-1E+10	1	-1E+10	1	-1E+10	1	-1E+10	1	-1E+10	1	-1E+10	1
4902549	69	C	07/08/2022	16:59	-131.086	47.172	0	284.30	0	5.5820	0	33.8710	0	26.715	0	281.742	0	97.2	4	31.8	4	-1E+10	1	-1E+10	1	-1E+10	1	-1E+10	1	-1E+10	1	-1E+10	1
4902549	69	C	07/08/2022	16:59	-131.086	47.172	0	285.20	0	5.5580	0	33.8730	0	26.719	0	282.633	0	97.0	4	31.7	4	-1E+10	1	-1E+10	1	-1E+10	1	-1E+10	1	-1E+10	1	-1E+10	1
4902549	69	C	07/08/2022	16:59	-131.086	47.172	0	286.10	0	5.5540	0	33.8730	0	26.720	0	283.524	0	96.8	4	31.6	4	-1E+10	1	-1E+10	1	-1E+10	1	-1E+10	1	-1E+10	1	-1E+10	1
4902549	69	C	07/08/2022	16:59	-131.086	47.172	0	287.00	0	5.5540	0	33.8710	0	26.718	0	284.416	0	96.6	4	31.6	4	-1E+10	1	-1E+10	1	-1E+10	1	-1E+10	1	-1E+10	1	-1E+10	1
4902549	69	C	07/08/2022	16:59	-131.086	47.172	0	288.00	0	5.5550	0	33.8710	0	26.718	0	285.406	0	96.3	4	31.5	4	-1E+10	1	-1E+10	1	-1E+10	1	-1E+10	1	-1E+10	1	-1E+10	1
4902549	69	C	07/08/2022	16:59	-131.086	47.172	0	288.90	0	5.5200	0	33.8720	0	26.723	0	286.297	0	96.0	4	31.4	4	-1E+10	1	-1E+10	1	-1E+10	1	-1E+10	1	-1E+10	1	-1E+10	1
4902549	69	C	07/08/2022	16:59	-131.086	47.172	0	289.80	0	5.5050	0	33.8710	0	26.724	0	287.189	0	95.8	4	31.3	4	-1E+10	1	-1E+10	1	-1E+10	1	-1E+10	1	-1E+10	1	-1E+10	1
4902549	69	C	07/08/2022	16:59	-131.086	47.172	0	290.80	0	5.4890	0	33.8710	0	26.726	0	288.179	0	95.5	4	31.2	4	-1E+10	1	-1E+10	1	-1E+10	1	-1E+10	1	-1E+10	1	-1E+10	1
4902549	69	C	07/08/2022	16:59	-131.086	47.172	0	291.70	0	5.4860	0	33.8710	0	26.726	0	289.070	0	95.2	4	31.1	4	-1E+10	1	-1E+10	1	-1E+10	1	-1E+10	1	-1E+10	1	-1E+10	1
4902549	69	C	07/08/2022	16:59	-131.086	47.172	0	292.60	0	5.4790	0	33.8710	0	26.727	0	289.961	0	94.9	4	31.0	4	-1E+10	1	-1E+10	1	-1E+10	1	-1E+10	1	-1E+10	1	-1E+10	1
4902549	69	C	07/08/2022	16:59	-131.086	47.172	0	293.60	0	5.4560	0	33.8710	0	26.730	0	290.952	0	94.5	4	30.8	4	-1E+10	1	-1E+10	1	-1E+10	1	-1E+10	1	-1E+10	1	-1E+10	1
4902549	69	C	07/08/2022	16:59	-131.086	47.172	0	294.60	0	5.4360	0	33.8700	0	26.732	0	291.942	0	94.3	4	30.7	4	-1E+10	1	-1E+10	1	-1E+10	1	-1E+10	1	-1E+10	1	-1E+10	1
4902549	69	C	07/08/2022	16:59	-131.086	47.172	0	295.50	0	5.4120	0	33.8710	0	26.735	0	292.833	0	94.0	4	30.6	4	-1E+10	1	-1E+10	1	-1E+10	1	-1E+10	1	-1E+10	1	-1E+10	1
4902549	69	C	07/08/2022	16:59	-131.086	47.172	0	296.90	0	5.4110	0	33.8720	0	26.736	0	294.220	0	93.4	4	30.4	4	-1E+10	1	-1E+10	1	-1E+10	1	-1E+10	1	-1E+10	1	-1E+10	1
4902549	69	C	07/08/2022	16:59	-131.086	47.172	0	298.40	0	5.4090	0	33.8730	0	26.737	0	295.705	0	92.9	4	30.3	4	-1E+10	1	-1E+10	1	-1E+10	1	-1E+10	1	-1E+10	1	-1E+10	1
4902549	69	C	07/08/2022	16:59	-131.086	47.172	0	299.30	0	5.4060	0	33.8730	0	26.738	0	296.596	0	92.6	4	30.2	4	-1E+10	1	-1E+10	1	-1E+10	1	-1E+10	1	-1E+10	1	-1E+10	1
4902549	69	C	07/08/2022	16:59	-131.086	47.172	0	300.30	0	5.4060	0	33.8730	0	26.738	0	297.586	0	92.2	4	30.0	4	-1E+10	1	-1E+10	1	-1E+10	1	-1E+10	1	-1E+10	1	-1E+10	1
4902549	69	C	07/08/2022	16:59	-131.086	47.172	0	301.30	0	5.3970	0	33.8760	0	26.741	0	298.577	0	91.9	4	29.9	4	-1E+10	1	-1E+10	1	-1E+10	1	-1E+10	1	-1E+10	1	-1E+10	1
4902549	69	C	07/08/2022	16:59	-131.086	47.172	0	302.30	0	5.3920	0	33.8760	0	26.742	0	299.567	0	91.7	4	29.9	4	-1E+10	1	-1E+10	1	-1E+10	1	-1E+10	1	-1E+10	1	-1E+10	1
4902549	69	C	07/08/2022	16:59	-131.086	47.172	0	303.20	0	5.3860	0	33.8770	0	26.743	0	300.458	0	91.4	4	29.8	4	-1E+10	1	-1E+10	1	-1E+10	1	-1E+10	1	-1E+10	1	-1E+10	1
4902549	69	C	07/08/2022	16:59	-131.086	47.172	0	304.20	0	5.3820	0	33.8770	0	26.744	0	301.448	0	91.1	4	29.7	4	-1E+10	1	-1E+10	1	-1E+10	1	-1E+10	1	-1E+10	1	-1E+10	1
4902549	69	C	07/08/2022	16:59	-131.086	47.172	0	305.20	0	5.3780	0	33.8760	0	26.743	0	302.439	0	90.8	4	29.5	4	-1E+10	1	-1E+10	1	-1E+10	1	-1E+10	1	-1E+10	1	-1E+10	1
4902549	69	C	07/08/2022	16:59	-131.086	47.172	0	306.20	0	5.3750	0	33.8760	0	26.744	0	303.429	0	90.4	4	29.4	4	-1E+10	1	-1E+10	1	-1E+10	1	-1E+10	1	-1E+10	1	-1E+10	1
4902549	69	C	07/08/2022	16:59	-131.086	47.172	0	307.10	0	5.3610	0	33.8770	0	26.746	0	304.320	0	90.0	4	29.3	4	-1E+10	1	-1E+10	1	-1E+10	1	-1E+10	1	-1E+10	1	-1E+10	1
4902549	69	C	07/08/2022	16:59	-131.086	47.172	0	308.10	0	5.3540	0	33.8750	0	26.745	0	305.310	0	89.5	4	29.1	4	-1E+10	1	-1E+10	1	-1E+10	1	-1E+10	1	-1E+10	1	-1E+10	1
4902549	69	C	07/08/2022	16:59	-131.086	47.172	0	309.10	0	5.3330	0	33.8760	0	26.749	0	306.300	0	89.1	4	29.0	4	-1E+10	1	-1E+10	1	-1E+10	1	-1E+10	1	-1E+10	1	-1E+10	1
4902549	69	C	07/08/2022	16:59	-131.086	47.172	0	310.10	0	5.3280	0	33.8760	0	26.749	0	307.291	0	88.7	4	28.8	4	-1E+10	1	-1E+10	1	-1E+10	1	-1E+10	1	-1E+10	1	-1E+10	1
4902549	69	C	07/08/2022	16:59	-131.086	47.172	0	311.10	0	5.3120	0	33.8760	0	26.751	0	308.281	0	88.3	4	28.7	4	-1E+10	1	-1E+10	1	-1E+10	1	-1E+10	1	-1E+10	1	-1E+10	1
4902549	69	C	07/08/2022	16:59	-131.086	47.172	0	312.00	0	5.2990	0	33.8780	0	26.754	0	309.172	0	87.9	4	28.6	4	-1E+10	1	-1E+10	1	-1E+10	1	-1E+10	1	-1E+10	1	-1E+10	1
4902549	69	C	07/08/2022	16:59	-131.086	47.172	0	313.00	0	5.2900	0	33.8790	0	26.756	0	310.162	0	87.6	4	28.5	4	-1E+10	1	-1E+10	1	-1E+10	1	-1E+10	1	-1E+10	1	-1E+10	1
4902549	69	C	07/08/2022	16:59	-131.086	47.172	0	314.00	0	5.2670	0	33.8800	0	26.760	0	311.152	0	87.3	4	28.4	4	-1E+10	1	-1E+10	1	-1E+10	1	-1E+10	1	-1E+10	1	-1E+10	1
4902549	69	C	07/08/2022	16:59	-131.086	47.172	0	314.90	0	5.2620	0	33.8800	0	26.760	0	312.043	0	87.0	4	28.3	4	-1E+10	1	-1E+10	1	-1E+10	1	-1E+10	1	-1E+10	1	-1E+10	1
4902549	69	C	07/08/2022	16:59	-131.086	47.172	0	315.90	0	5.2610	0	33.8800	0	26.760	0	313.034	0	86.7	4	28.1	4	-1E+10	1	-1E+10	1	-1E+10	1	-1E+10	1	-1E+10	1	-1E+10	1
4902549	69	C	07/08/2022	16:59	-131.086	47.172	0	316.90	0	5.2610	0	33.8810	0	26.761	0	314.024	0	86.4	4	28.0	4	-1E+10	1	-1E+10	1	-1E+10	1	-1E+10	1	-1E+10	1	-1E+10	1
4902549	69	C	07/08/2022	16:59	-131.086	47.172	0	317.90	0	5.2630	0	33.8820	0	26.762	0	315.014	0	86.1	4	28.0	4	-1E+10	1	-1E+10	1	-1E+10	1	-1E+10	1	-1E+10	1	-1E+10	1
4902549	69	C	07/08/2022	16:59	-131.086	47.172	0	318.90	0	5.2620	0	33.8830	0	26.763	0	316.004	0	85.9	4	27.9	4	-1E+10	1	-1E+10	1	-1E+10	1	-1E+10	1	-1E+10	1	-1E+10	1
4902549	69	C	07/08/2022	16:59	-131.086	47.172	0	319.80	0	5.2370	0	33.8850	0	26.767	0	316.895	0	85.7	4	27.8	4	-1E+10	1	-1E+10	1	-1E+10	1	-1E+10	1	-1E+10	1	-1E+10	1
4902549	69	C	07/08/2022	16:59	-131.086	47.172	0	320.80	0	5.2100	0	33.8830	0	26.769	0	317.885	0	85.4	4	27.7	4	-1E+10	1	-1E+10	1	-1E+10	1	-1E+10	1	-1E+10	1	-1E+10	1
4902549	69	C	07/08/2022	16:59	-131.086	47.172	0	321.80	0	5.2010	0	33.8800	0	26.767	0	318.876	0	85.2	4	27.6	4	-1E+10	1	-1E+10	1	-1E+10	1	-1E+10	1	-1E+10	1	-1E+10	1
4902549	69	C	07/08/2022	16:59	-131.086	47.172	0	322.80	0	5.1820	0	33.8810	0	26.770	0	319.866	0	84.8	4	27.5	4	-1E+10	1	-1E+10	1	-1E+10	1	-1E+10	1	-1E+10	1	-1E+10	1
4902549	69	C	07/08/2022	16:59	-131.086	47.172	0	323.70	0	5.1800	0	33.8810	0	26.771	0	320.757	0	84.4	4	27.4	4	-1E+10	1	-1E+10	1	-1E+10	1	-1E+10	1	-1E+10	1	-1E+10	1
4902549	69	C	07/08/2022	16:59	-131.086	47.172	0	324.70	0	5.1740	0	33.8810	0	26.771	0	321.747	0	84.0	4	27.2	4	-1E+10	1	-1E+10	1	-1E+10	1	-1E+10	1	-1E+10	1	-1E+10	1
4902549	69	C	07/08/2022	16:59	-131.086	47.172	0	325.60	0	5.1720	0	33.8810	0	26.771	0	322.638	0	83.6	4	27.1	4	-1E+10	1	-1E+10	1	-1E+10	1	-1E+10	1	-1E+10	1	-1E+10	1
4902549	69	C	07/08/2022	16:59	-131.086	47.172	0	326.60	0	5.1760	0	33.8810	0	26.771	0	323.628	0	83.1	4	26.9	4	-1E+10	1	-1E+10	1	-1E+10	1	-1E+10	1	-1E+10	1	-1E+10	1
4902549	69	C	07/08/2022	16:59	-131.086	47.172	0	327.60	0	5.1820	0	33.8830	0	26.772	0	324.618	0	82.6	4	26.8	4	-1E+10	1	-1E+10	1	-1E+10	1	-1E+10	1	-1E+10	1	-1E+10	1
4902549	69	C	07/08/2022	16:59	-131.086	47.172	0	328.50	0	5.1850	0	33.8870	0	26.775	0	325.509	0	82.0	4	26.6	4	-1E+10	1	-1E+10	1	-1E+10	1	-1E+10	1	-1E+10	1	-1E+10	1
4902549	69	C	07/08/2022	16:59	-131.086	47.172	0	329.90	0	5.1840	0	33.8880	0	26.776	0	326.896	0	81.4	4	26.4	4	-1E+10	1	-1E+10	1	-1E+10	1	-1E+10	1	-1E+10	1	-1E+10	1
4902549	69	C	07/08/2022	16:59	-131.086	47.172	0	331.40	0	5.1940	0	33.8940	0	26.779	0	328.381	0	80.9	4	26.2	4	-1E+10	1	-1E+10	1	-1E+10	1	-1E+10	1	-1E+10	1	-1E+10	1
4902549	69	C	07/08/2022	16:59	-131.086	47.172	0	332.40	0	5.1910	0	33.8950	0	26.780	0	329.371	0	80.5	4	26.1	4	-1E+10	1	-1E+10	1	-1E+10	1	-1E+10	1	-1E+10	1	-1E+10	1
4902549	69	C	07/08/2022	16:59	-131.086	47.172	0	333.30	0	5.1850	0	33.9000	0	26.785	0	330.262	0	80.3	4	26.0	4	-1E+10	1	-1E+10	1	-1E+10	1	-1E+10	1	-1E+10	1	-1E+10	1
4902549	69	C	07/08/2022	16:59	-131.086	47.172	0	334.30	0	5.1810	0	33.9000	0	26.786	0	331.252	0	80.1	4	26.0	4	-1E+10	1	-1E+10	1	-1E+10	1	-1E+10	1	-1E+10	1	-1E+10	1
4902549	69	C	07/08/2022	16:59	-131.086	47.172	0	335.20	0	5.1870	0	33.9000	0	26.785	0	332.143	0	80.0	4	25.9	4	-1E+10	1	-1E+10	1	-1E+10	1	-1E+10	1	-1E+10	1	-1E+10	1
4902549	69	C	07/08/2022	16:59	-131.086	47.172	0	336.20	0	5.1790	0	33.9020	0	26.787	0	333.133	0	79.9	4	25.9	4	-1E+10	1	-1E+10	1	-1E+10	1	-1E+10	1	-1E+10	1	-1E+10	1
4902549	69	C	07/08/2022	16:59	-131.086	47.172	0	337.10	0	5.1730	0	33.9010	0	26.787	0	334.024	0	79.8	4	25.9	4	-1E+10	1	-1E+10	1	-1E+10	1	-1E+10	1	-1E+10	1	-1E+10	1
4902549	69	C	07/08/2022	16:59	-131.086	47.172	0	338.10	0	5.1770	0	33.8990	0	26.785	0	335.014	0	79.8	4	25.8	4	-1E+10	1	-1E+10	1	-1E+10	1	-1E+10	1	-1E+10	1	-1E+10	1
4902549	69	C	07/08/2022	16:59	-131.086	47.172	0	339.00	0	5.1660	0	33.9020	0	26.789	0	335.905	0	79.8	4	25.9	4	-1E+10	1	-1E+10	1	-1E+10	1	-1E+10	1	-1E+10	1	-1E+10	1
4902549	69	C	07/08/2022	16:59	-131.086	47.172	0	340.00	0	5.1550	0	33.8980	0	26.787	0	336.895	0	79.8	4	25.8	4	-1E+10	1	-1E+10	1	-1E+10	1	-1E+10	1	-1E+10	1	-1E+10	1
4902549	69	C	07/08/2022	16:59	-131.086	47.172	0	340.90	0	5.1050	0	33.8960	0	26.791	0	337.786	0	79.8	4	25.8	4	-1E+10	1	-1E+10	1	-1E+10	1	-1E+10	1	-1E+10	1	-1E+10	1
4902549	69	C	07/08/2022	16:59	-131.086	47.172	0	341.80	0	5.0820	0	33.8950	0	26.793	0	338.677	0	79.7	4	25.8	4	-1E+10	1	-1E+10	1	-1E+10	1	-1E+10	1	-1E+10	1	-1E+10	1
4902549	69	C	07/08/2022	16:59	-131.086	47.172	0	342.80	0	5.0490	0	33.8970	0	26.798	0	339.668	0	79.5	4	25.7	4	-1E+10	1	-1E+10	1	-1E+10	1	-1E+10	1	-1E+10	1	-1E+10	1
4902549	69	C	07/08/2022	16:59	-131.086	47.172	0	343.70	0	5.0440	0	33.8940	0	26.797	0	340.559	0	79.3	4	25.6	4	-1E+10	1	-1E+10	1	-1E+10	1	-1E+10	1	-1E+10	1	-1E+10	1
4902549	69	C	07/08/2022	16:59	-131.086	47.172	0	344.60	0	5.0420	0	33.8930	0	26.796	0	341.450	0	79.0	4	25.5	4	-1E+10	1	-1E+10	1	-1E+10	1	-1E+10	1	-1E+10	1	-1E+10	1
4902549	69	C	07/08/2022	16:59	-131.086	47.172	0	345.50	0	5.0410	0	33.8930	0	26.796	0	342.341	0	78.8	4	25.4	4	-1E+10	1	-1E+10	1	-1E+10	1	-1E+10	1	-1E+10	1	-1E+10	1
4902549	69	C	07/08/2022	16:59	-131.086	47.172	0	346.90	0	5.0290	0	33.8930	0	26.798	0	343.727	0	78.3	4	25.3	4	-1E+10	1	-1E+10	1	-1E+10	1	-1E+10	1	-1E+10	1	-1E+10	1
4902549	69	C	07/08/2022	16:59	-131.086	47.172	0	348.30	0	5.0200	0	33.8920	0	26.798	0	345.113	0	77.7	4	25.1	4	-1E+10	1	-1E+10	1	-1E+10	1	-1E+10	1	-1E+10	1	-1E+10	1
4902549	69	C	07/08/2022	16:59	-131.086	47.172	0	349.20	0	5.0110	0	33.8920	0	26.799	0	346.004	0	77.2	4	24.9	4	-1E+10	1	-1E+10	1	-1E+10	1	-1E+10	1	-1E+10	1	-1E+10	1
4902549	69	C	07/08/2022	16:59	-131.086	47.172	0	350.10	0	4.9860	0	33.8930	0	26.802	0	346.895	0	76.8	4	24.8	4	-1E+10	1	-1E+10	1	-1E+10	1	-1E+10	1	-1E+10	1	-1E+10	1
4902549	69	C	07/08/2022	16:59	-131.086	47.172	0	353.10	0	4.9750	0	33.8960	0	26.806	0	349.865	0	75.0	4	24.2	4	-1E+10	1	-1E+10	1	-1E+10	1	-1E+10	1	-1E+10	1	-1E+10	1
4902549	69	C	07/08/2022	16:59	-131.086	47.172	0	358.00	0	4.9510	0	33.9030	0	26.814	0	354.716	0	72.7	4	23.4	4	-1E+10	1	-1E+10	1	-1E+10	1	-1E+10	1	-1E+10	1	-1E+10	1
4902549	69	C	07/08/2022	16:59	-131.086	47.172	0	362.80	0	4.9240	0	33.9110	0	26.824	0	359.467	0	70.2	4	22.6	4	-1E+10	1	-1E+10	1	-1E+10	1	-1E+10	1	-1E+10	1	-1E+10	1
4902549	69	C	07/08/2022	16:59	-131.086	47.172	0	368.10	0	4.9330	0	33.9210	0	26.831	0	364.714	0	68.6	4	22.1	4	-1E+10	1	-1E+10	1	-1E+10	1	-1E+10	1	-1E+10	1	-1E+10	1
4902549	69	C	07/08/2022	16:59	-131.086	47.172	0	373.10	0	4.8910	0	33.9230	0	26.837	0	369.664	0	68.1	4	21.9	4	-1E+10	1	-1E+10	1	-1E+10	1	-1E+10	1	-1E+10	1	-1E+10	1
4902549	69	C	07/08/2022	16:59	-131.086	47.172	0	378.00	0	4.8570	0	33.9220	0	26.840	0	374.514	0	67.1	4	21.6	4	-1E+10	1	-1E+10	1	-1E+10	1	-1E+10	1	-1E+10	1	-1E+10	1
4902549	69	C	07/08/2022	16:59	-131.086	47.172	0	383.00	0	4.8320	0	33.9220	0	26.843	0	379.463	0	65.4	4	21.0	4	-1E+10	1	-1E+10	1	-1E+10	1	-1E+10	1	-1E+10	1	-1E+10	1
4902549	69	C	07/08/2022	16:59	-131.086	47.172	0	388.00	0	4.8030	0	33.9300	0	26.853	0	384.413	0	63.3	4	20.3	4	-1E+10	1	-1E+10	1	-1E+10	1	-1E+10	1	-1E+10	1	-1E+10	1
4902549	69	C	07/08/2022	16:59	-131.086	47.172	0	393.20	0	4.7860	0	33.9340	0	26.858	0	389.560	0	61.0	4	19.6	4	-1E+10	1	-1E+10	1	-1E+10	1	-1E+10	1	-1E+10	1	-1E+10	1
4902549	69	C	07/08/2022	16:59	-131.086	47.172	0	397.90	0	4.7900	0	33.9390	0	26.861	0	394.212	0	57.8	4	18.5	4	-1E+10	1	-1E+10	1	-1E+10	1	-1E+10	1	-1E+10	1	-1E+10	1
4902549	69	C	07/08/2022	16:59	-131.086	47.172	0	402.70	0	4.8340	0	33.9580	0	26.871	0	398.963	0	55.1	4	17.7	4	-1E+10	1	-1E+10	1	-1E+10	1	-1E+10	1	-1E+10	1	-1E+10	1
4902549	69	C	07/08/2022	16:59	-131.086	47.172	0	407.70	0	4.8220	0	33.9610	0	26.875	0	403.911	0	53.6	4	17.2	4	-1E+10	1	-1E+10	1	-1E+10	1	-1E+10	1	-1E+10	1	-1E+10	1
4902549	69	C	07/08/2022	16:59	-131.086	47.172	0	412.70	0	4.7980	0	33.9650	0	26.881	0	408.860	0	51.7	4	16.6	4	-1E+10	1	-1E+10	1	-1E+10	1	-1E+10	1	-1E+10	1	-1E+10	1
4902549	69	C	07/08/2022	16:59	-131.086	47.172	0	417.70	0	4.7750	0	33.9740	0	26.891	0	413.808	0	49.7	4	16.0	4	-1E+10	1	-1E+10	1	-1E+10	1	-1E+10	1	-1E+10	1	-1E+10	1
4902549	69	C	07/08/2022	16:59	-131.086	47.172	0	422.80	0	4.7430	0	33.9830	0	26.902	0	418.856	0	48.3	4	15.5	4	-1E+10	1	-1E+10	1	-1E+10	1	-1E+10	1	-1E+10	1	-1E+10	1
4902549	69	C	07/08/2022	16:59	-131.086	47.172	0	428.00	0	4.7390	0	33.9890	0	26.907	0	424.002	0	47.3	4	15.2	4	-1E+10	1	-1E+10	1	-1E+10	1	-1E+10	1	-1E+10	1	-1E+10	1
4902549	69	C	07/08/2022	16:59	-131.086	47.172	0	432.90	0	4.6780	0	33.9880	0	26.913	0	428.851	0	46.3	4	14.8	4	-1E+10	1	-1E+10	1	-1E+10	1	-1E+10	1	-1E+10	1	-1E+10	1
4902549	69	C	07/08/2022	16:59	-131.086	47.172	0	437.90	0	4.6830	0	33.9960	0	26.919	0	433.799	0	44.4	4	14.2	4	-1E+10	1	-1E+10	1	-1E+10	1	-1E+10	1	-1E+10	1	-1E+10	1
4902549	69	C	07/08/2022	16:59	-131.086	47.172	0	443.00	0	4.6660	0	34.0050	0	26.928	0	438.846	0	43.1	4	13.8	4	-1E+10	1	-1E+10	1	-1E+10	1	-1E+10	1	-1E+10	1	-1E+10	1
4902549	69	C	07/08/2022	16:59	-131.086	47.172	0	447.80	0	4.6410	0	34.0100	0	26.934	0	443.596	0	42.2	4	13.5	4	-1E+10	1	-1E+10	1	-1E+10	1	-1E+10	1	-1E+10	1	-1E+10	1
4902549	69	C	07/08/2022	16:59	-131.086	47.172	0	453.00	0	4.6470	0	34.0130	0	26.936	0	448.741	0	41.3	4	13.2	4	-1E+10	1	-1E+10	1	-1E+10	1	-1E+10	1	-1E+10	1	-1E+10	1
4902549	69	C	07/08/2022	16:59	-131.086	47.172	0	458.30	0	4.6230	0	34.0140	0	26.940	0	453.986	0	40.3	4	12.9	4	-1E+10	1	-1E+10	1	-1E+10	1	-1E+10	1	-1E+10	1	-1E+10	1
4902549	69	C	07/08/2022	16:59	-131.086	47.172	0	462.90	0	4.6090	0	34.0170	0	26.944	0	458.537	0	38.9	4	12.5	4	-1E+10	1	-1E+10	1	-1E+10	1	-1E+10	1	-1E+10	1	-1E+10	1
4902549	69	C	07/08/2022	16:59	-131.086	47.172	0	467.50	0	4.6140	0	34.0240	0	26.949	0	463.089	0	37.3	4	11.9	4	-1E+10	1	-1E+10	1	-1E+10	1	-1E+10	1	-1E+10	1	-1E+10	1
4902549	69	C	07/08/2022	16:59	-131.086	47.172	0	472.70	0	4.6300	0	34.0330	0	26.954	0	468.234	0	36.1	4	11.6	4	-1E+10	1	-1E+10	1	-1E+10	1	-1E+10	1	-1E+10	1	-1E+10	1
4902549	69	C	07/08/2022	16:59	-131.086	47.172	0	478.00	0	4.5950	0	34.0340	0	26.959	0	473.478	0	35.1	4	11.2	4	-1E+10	1	-1E+10	1	-1E+10	1	-1E+10	1	-1E+10	1	-1E+10	1
4902549	69	C	07/08/2022	16:59	-131.086	47.172	0	483.20	0	4.5940	0	34.0400	0	26.964	0	478.623	0	33.5	4	10.7	4	-1E+10	1	-1E+10	1	-1E+10	1	-1E+10	1	-1E+10	1	-1E+10	1
4902549	69	C	07/08/2022	16:59	-131.086	47.172	0	488.00	0	4.6070	0	34.0490	0	26.969	0	483.372	0	32.5	4	10.4	4	-1E+10	1	-1E+10	1	-1E+10	1	-1E+10	1	-1E+10	1	-1E+10	1
4902549	69	C	07/08/2022	16:59	-131.086	47.172	0	492.90	0	4.5560	0	34.0480	0	26.974	0	488.219	0	31.7	4	10.1	4	-1E+10	1	-1E+10	1	-1E+10	1	-1E+10	1	-1E+10	1	-1E+10	1
4902549	69	C	07/08/2022	16:59	-131.086	47.172	0	497.90	0	4.5420	0	34.0520	0	26.979	0	493.166	0	30.1	4	9.6	4	-1E+10	1	-1E+10	1	-1E+10	1	-1E+10	1	-1E+10	1	-1E+10	1
4902549	69	C	07/08/2022	16:59	-131.086	47.172	0	502.80	0	4.5430	0	34.0610	0	26.986	0	498.014	0	28.9	4	9.2	4	-1E+10	1	-1E+10	1	-1E+10	1	-1E+10	1	-1E+10	1	-1E+10	1
4902549	69	C	07/08/2022	16:59	-131.086	47.172	0	507.80	0	4.5250	0	34.0650	0	26.991	0	502.960	0	27.9	4	8.9	4	-1E+10	1	-1E+10	1	-1E+10	1	-1E+10	1	-1E+10	1	-1E+10	1
4902549	69	C	07/08/2022	16:59	-131.086	47.172	0	512.80	0	4.5080	0	34.0680	0	26.995	0	507.906	0	26.0	4	8.3	4	-1E+10	1	-1E+10	1	-1E+10	1	-1E+10	1	-1E+10	1	-1E+10	1
4902549	69	C	07/08/2022	16:59	-131.086	47.172	0	517.90	0	4.5690	0	34.0830	0	27.001	0	512.951	0	24.6	4	7.9	4	-1E+10	1	-1E+10	1	-1E+10	1	-1E+10	1	-1E+10	1	-1E+10	1
4902549	69	C	07/08/2022	16:59	-131.086	47.172	0	523.00	0	4.5780	0	34.0880	0	27.004	0	517.996	0	23.8	4	7.6	4	-1E+10	1	-1E+10	1	-1E+10	1	-1E+10	1	-1E+10	1	-1E+10	1
4902549	69	C	07/08/2022	16:59	-131.086	47.172	0	528.10	0	4.5690	0	34.0900	0	27.006	0	523.041	0	23.4	4	7.5	4	-1E+10	1	-1E+10	1	-1E+10	1	-1E+10	1	-1E+10	1	-1E+10	1
4902549	69	C	07/08/2022	16:59	-131.086	47.172	0	532.90	0	4.5390	0	34.0900	0	27.010	0	527.789	0	22.6	4	7.2	4	-1E+10	1	-1E+10	1	-1E+10	1	-1E+10	1	-1E+10	1	-1E+10	1
4902549	69	C	07/08/2022	16:59	-131.086	47.172	0	537.60	0	4.5380	0	34.0960	0	27.015	0	532.438	0	21.5	4	6.9	4	-1E+10	1	-1E+10	1	-1E+10	1	-1E+10	1	-1E+10	1	-1E+10	1
4902549	69	C	07/08/2022	16:59	-131.086	47.172	0	542.90	0	4.5330	0	34.1030	0	27.021	0	537.680	0	20.6	4	6.6	4	-1E+10	1	-1E+10	1	-1E+10	1	-1E+10	1	-1E+10	1	-1E+10	1
4902549	69	C	07/08/2022	16:59	-131.086	47.172	0	548.20	0	4.5240	0	34.1070	0	27.025	0	542.922	0	20.2	4	6.4	4	-1E+10	1	-1E+10	1	-1E+10	1	-1E+10	1	-1E+10	1	-1E+10	1
4902549	69	C	07/08/2022	16:59	-131.086	47.172	0	553.10	0	4.4870	0	34.1080	0	27.030	0	547.768	0	19.6	4	6.2	4	-1E+10	1	-1E+10	1	-1E+10	1	-1E+10	1	-1E+10	1	-1E+10	1
4902549	69	C	07/08/2022	16:59	-131.086	47.172	0	558.00	0	4.4510	0	34.1130	0	27.038	0	552.615	0	18.5	4	5.9	4	-1E+10	1	-1E+10	1	-1E+10	1	-1E+10	1	-1E+10	1	-1E+10	1
4902549	69	C	07/08/2022	16:59	-131.086	47.172	0	563.00	0	4.4700	0	34.1200	0	27.041	0	557.560	0	18.0	4	5.7	4	-1E+10	1	-1E+10	1	-1E+10	1	-1E+10	1	-1E+10	1	-1E+10	1
4902549	69	C	07/08/2022	16:59	-131.086	47.172	0	568.00	0	4.4610	0	34.1220	0	27.044	0	562.505	0	17.7	4	5.6	4	-1E+10	1	-1E+10	1	-1E+10	1	-1E+10	1	-1E+10	1	-1E+10	1
4902549	69	C	07/08/2022	16:59	-131.086	47.172	0	573.00	0	4.4470	0	34.1240	0	27.047	0	567.450	0	17.4	4	5.5	4	-1E+10	1	-1E+10	1	-1E+10	1	-1E+10	1	-1E+10	1	-1E+10	1
4902549	69	C	07/08/2022	16:59	-131.086	47.172	0	578.00	0	4.4270	0	34.1280	0	27.052	0	572.394	0	17.2	4	5.5	4	-1E+10	1	-1E+10	1	-1E+10	1	-1E+10	1	-1E+10	1	-1E+10	1
4902549	69	C	07/08/2022	16:59	-131.086	47.172	0	583.10	0	4.4100	0	34.1300	0	27.056	0	577.438	0	17.3	4	5.5	4	-1E+10	1	-1E+10	1	-1E+10	1	-1E+10	1	-1E+10	1	-1E+10	1
4902549	69	C	07/08/2022	16:59	-131.086	47.172	0	588.20	0	4.3820	0	34.1300	0	27.059	0	582.481	0	17.6	4	5.6	4	-1E+10	1	-1E+10	1	-1E+10	1	-1E+10	1	-1E+10	1	-1E+10	1
4902549	69	C	07/08/2022	16:59	-131.086	47.172	0	593.00	0	4.3190	0	34.1280	0	27.064	0	587.228	0	17.7	4	5.6	4	-1E+10	1	-1E+10	1	-1E+10	1	-1E+10	1	-1E+10	1	-1E+10	1
4902549	69	C	07/08/2022	16:59	-131.086	47.172	0	597.70	0	4.2850	0	34.1320	0	27.071	0	591.875	0	16.8	4	5.3	4	-1E+10	1	-1E+10	1	-1E+10	1	-1E+10	1	-1E+10	1	-1E+10	1
4902549	69	C	07/08/2022	16:59	-131.086	47.172	0	603.20	0	4.2880	0	34.1370	0	27.074	0	597.314	0	15.9	4	5.0	4	-1E+10	1	-1E+10	1	-1E+10	1	-1E+10	1	-1E+10	1	-1E+10	1
4902549	69	C	07/08/2022	16:59	-131.086	47.172	0	608.10	0	4.2770	0	34.1400	0	27.078	0	602.159	0	14.9	4	4.7	4	-1E+10	1	-1E+10	1	-1E+10	1	-1E+10	1	-1E+10	1	-1E+10	1
4902549	69	C	07/08/2022	16:59	-131.086	47.172	0	613.10	0	4.2900	0	34.1490	0	27.084	0	607.103	0	13.8	4	4.4	4	-1E+10	1	-1E+10	1	-1E+10	1	-1E+10	1	-1E+10	1	-1E+10	1
4902549	69	C	07/08/2022	16:59	-131.086	47.172	0	618.00	0	4.2990	0	34.1570	0	27.089	0	611.948	0	12.9	4	4.1	4	-1E+10	1	-1E+10	1	-1E+10	1	-1E+10	1	-1E+10	1	-1E+10	1
4902549	69	C	07/08/2022	16:59	-131.086	47.172	0	623.00	0	4.3070	0	34.1650	0	27.095	0	616.891	0	12.5	4	4.0	4	-1E+10	1	-1E+10	1	-1E+10	1	-1E+10	1	-1E+10	1	-1E+10	1
4902549	69	C	07/08/2022	16:59	-131.086	47.172	0	628.00	0	4.2930	0	34.1680	0	27.099	0	621.835	0	12.3	4	3.9	4	-1E+10	1	-1E+10	1	-1E+10	1	-1E+10	1	-1E+10	1	-1E+10	1
4902549	69	C	07/08/2022	16:59	-131.086	47.172	0	633.10	0	4.2830	0	34.1730	0	27.104	0	626.877	0	12.1	4	3.9	4	-1E+10	1	-1E+10	1	-1E+10	1	-1E+10	1	-1E+10	1	-1E+10	1
4902549	69	C	07/08/2022	16:59	-131.086	47.172	0	638.20	0	4.2610	0	34.1750	0	27.108	0	631.919	0	12.0	4	3.8	4	-1E+10	1	-1E+10	1	-1E+10	1	-1E+10	1	-1E+10	1	-1E+10	1
4902549	69	C	07/08/2022	16:59	-131.086	47.172	0	642.70	0	4.2380	0	34.1770	0	27.112	0	636.368	0	11.7	4	3.7	4	-1E+10	1	-1E+10	1	-1E+10	1	-1E+10	1	-1E+10	1	-1E+10	1
4902549	69	C	07/08/2022	16:59	-131.086	47.172	0	647.80	0	4.2330	0	34.1800	0	27.115	0	641.410	0	11.4	4	3.6	4	-1E+10	1	-1E+10	1	-1E+10	1	-1E+10	1	-1E+10	1	-1E+10	1
4902549	69	C	07/08/2022	16:59	-131.086	47.172	0	653.00	0	4.2240	0	34.1830	0	27.118	0	646.550	0	11.1	4	3.5	4	-1E+10	1	-1E+10	1	-1E+10	1	-1E+10	1	-1E+10	1	-1E+10	1
4902549	69	C	07/08/2022	16:59	-131.086	47.172	0	658.10	0	4.2000	0	34.1860	0	27.123	0	651.592	0	10.7	4	3.4	4	-1E+10	1	-1E+10	1	-1E+10	1	-1E+10	1	-1E+10	1	-1E+10	1
4902549	69	C	07/08/2022	16:59	-131.086	47.172	0	663.20	0	4.1980	0	34.1900	0	27.126	0	656.634	0	10.2	4	3.2	4	-1E+10	1	-1E+10	1	-1E+10	1	-1E+10	1	-1E+10	1	-1E+10	1
4902549	69	C	07/08/2022	16:59	-131.086	47.172	0	667.70	0	4.2030	0	34.1950	0	27.130	0	661.082	0	9.7	4	3.1	4	-1E+10	1	-1E+10	1	-1E+10	1	-1E+10	1	-1E+10	1	-1E+10	1
4902549	69	C	07/08/2022	16:59	-131.086	47.172	0	672.70	0	4.2070	0	34.2030	0	27.136	0	666.024	0	9.5	4	3.0	4	-1E+10	1	-1E+10	1	-1E+10	1	-1E+10	1	-1E+10	1	-1E+10	1
4902549	69	C	07/08/2022	16:59	-131.086	47.172	0	677.70	0	4.1960	0	34.2030	0	27.137	0	670.967	0	9.3	4	2.9	4	-1E+10	1	-1E+10	1	-1E+10	1	-1E+10	1	-1E+10	1	-1E+10	1
4902549	69	C	07/08/2022	16:59	-131.086	47.172	0	682.80	0	4.1840	0	34.2070	0	27.142	0	676.008	0	9.0	4	2.9	4	-1E+10	1	-1E+10	1	-1E+10	1	-1E+10	1	-1E+10	1	-1E+10	1
4902549	69	C	07/08/2022	16:59	-131.086	47.172	0	687.70	0	4.1750	0	34.2110	0	27.146	0	680.851	0	8.6	4	2.7	4	-1E+10	1	-1E+10	1	-1E+10	1	-1E+10	1	-1E+10	1	-1E+10	1
4902549	69	C	07/08/2022	16:59	-131.086	47.172	0	692.70	0	4.1770	0	34.2160	0	27.150	0	685.793	0	8.3	4	2.6	4	-1E+10	1	-1E+10	1	-1E+10	1	-1E+10	1	-1E+10	1	-1E+10	1
4902549	69	C	07/08/2022	16:59	-131.086	47.172	0	698.10	0	4.1660	0	34.2210	0	27.155	0	691.130	0	8.1	4	2.6	4	-1E+10	1	-1E+10	1	-1E+10	1	-1E+10	1	-1E+10	1	-1E+10	1
4902549	69	C	07/08/2022	16:59	-131.086	47.172	0	703.00	0	4.1470	0	34.2270	0	27.162	0	695.973	0	8.0	4	2.5	4	-1E+10	1	-1E+10	1	-1E+10	1	-1E+10	1	-1E+10	1	-1E+10	1
4902549	69	C	07/08/2022	16:59	-131.086	47.172	0	707.90	0	4.1330	0	34.2300	0	27.165	0	700.816	0	8.0	4	2.5	4	-1E+10	1	-1E+10	1	-1E+10	1	-1E+10	1	-1E+10	1	-1E+10	1
4902549	69	C	07/08/2022	16:59	-131.086	47.172	0	713.30	0	4.0910	0	34.2290	0	27.169	0	706.153	0	7.9	4	2.5	4	-1E+10	1	-1E+10	1	-1E+10	1	-1E+10	1	-1E+10	1	-1E+10	1
4902549	69	C	07/08/2022	16:59	-131.086	47.172	0	718.20	0	4.0820	0	34.2350	0	27.175	0	710.995	0	7.6	4	2.4	4	-1E+10	1	-1E+10	1	-1E+10	1	-1E+10	1	-1E+10	1	-1E+10	1
4902549	69	C	07/08/2022	16:59	-131.086	47.172	0	723.20	0	4.0670	0	34.2390	0	27.179	0	715.937	0	7.4	4	2.3	4	-1E+10	1	-1E+10	1	-1E+10	1	-1E+10	1	-1E+10	1	-1E+10	1
4902549	69	C	07/08/2022	16:59	-131.086	47.172	0	728.10	0	4.0530	0	34.2420	0	27.183	0	720.779	0	7.1	4	2.2	4	-1E+10	1	-1E+10	1	-1E+10	1	-1E+10	1	-1E+10	1	-1E+10	1
4902549	69	C	07/08/2022	16:59	-131.086	47.172	0	733.00	0	4.0580	0	34.2470	0	27.187	0	725.621	0	6.8	4	2.2	4	-1E+10	1	-1E+10	1	-1E+10	1	-1E+10	1	-1E+10	1	-1E+10	1
4902549	69	C	07/08/2022	16:59	-131.086	47.172	0	738.00	0	4.0440	0	34.2520	0	27.192	0	730.562	0	6.7	4	2.1	4	-1E+10	1	-1E+10	1	-1E+10	1	-1E+10	1	-1E+10	1	-1E+10	1
4902549	69	C	07/08/2022	16:59	-131.086	47.172	0	743.00	0	4.0150	0	34.2570	0	27.199	0	735.503	0	6.7	4	2.1	4	-1E+10	1	-1E+10	1	-1E+10	1	-1E+10	1	-1E+10	1	-1E+10	1
4902549	69	C	07/08/2022	16:59	-131.086	47.172	0	748.10	0	3.9940	0	34.2590	0	27.203	0	740.542	0	6.7	4	2.1	4	-1E+10	1	-1E+10	1	-1E+10	1	-1E+10	1	-1E+10	1	-1E+10	1
4902549	69	C	07/08/2022	16:59	-131.086	47.172	0	753.20	0	3.9700	0	34.2620	0	27.208	0	745.582	0	6.8	4	2.1	4	-1E+10	1	-1E+10	1	-1E+10	1	-1E+10	1	-1E+10	1	-1E+10	1
4902549	69	C	07/08/2022	16:59	-131.086	47.172	0	757.90	0	3.9480	0	34.2640	0	27.212	0	750.226	0	7.0	4	2.2	4	-1E+10	1	-1E+10	1	-1E+10	1	-1E+10	1	-1E+10	1	-1E+10	1
4902549	69	C	07/08/2022	16:59	-131.086	47.172	0	762.60	0	3.9130	0	34.2620	0	27.214	0	754.870	0	7.0	4	2.2	4	-1E+10	1	-1E+10	1	-1E+10	1	-1E+10	1	-1E+10	1	-1E+10	1
4902549	69	C	07/08/2022	16:59	-131.086	47.172	0	767.90	0	3.9080	0	34.2630	0	27.215	0	760.106	0	7.0	4	2.2	4	-1E+10	1	-1E+10	1	-1E+10	1	-1E+10	1	-1E+10	1	-1E+10	1
4902549	69	C	07/08/2022	16:59	-131.086	47.172	0	772.80	0	3.8810	0	34.2650	0	27.219	0	764.948	0	7.0	4	2.2	4	-1E+10	1	-1E+10	1	-1E+10	1	-1E+10	1	-1E+10	1	-1E+10	1
4902549	69	C	07/08/2022	16:59	-131.086	47.172	0	777.70	0	3.8660	0	34.2660	0	27.222	0	769.789	0	6.9	4	2.2	4	-1E+10	1	-1E+10	1	-1E+10	1	-1E+10	1	-1E+10	1	-1E+10	1
4902549	69	C	07/08/2022	16:59	-131.086	47.172	0	782.80	0	3.8660	0	34.2690	0	27.224	0	774.827	0	6.8	4	2.2	4	-1E+10	1	-1E+10	1	-1E+10	1	-1E+10	1	-1E+10	1	-1E+10	1
4902549	69	C	07/08/2022	16:59	-131.086	47.172	0	788.00	0	3.8620	0	34.2710	0	27.226	0	779.965	0	6.9	4	2.2	4	-1E+10	1	-1E+10	1	-1E+10	1	-1E+10	1	-1E+10	1	-1E+10	1
4902549	69	C	07/08/2022	16:59	-131.086	47.172	0	793.20	0	3.7940	0	34.2660	0	27.229	0	785.102	0	6.8	4	2.1	4	-1E+10	1	-1E+10	1	-1E+10	1	-1E+10	1	-1E+10	1	-1E+10	1
4902549	69	C	07/08/2022	16:59	-131.086	47.172	0	798.10	0	3.7860	0	34.2710	0	27.234	0	789.943	0	6.3	4	2.0	4	-1E+10	1	-1E+10	1	-1E+10	1	-1E+10	1	-1E+10	1	-1E+10	1
4902549	69	C	07/08/2022	16:59	-131.086	47.172	0	802.90	0	3.8280	0	34.2830	0	27.239	0	794.684	0	5.7	4	1.8	4	-1E+10	1	-1E+10	1	-1E+10	1	-1E+10	1	-1E+10	1	-1E+10	1
4902549	69	C	07/08/2022	16:59	-131.086	47.172	0	807.90	0	3.8590	0	34.2910	0	27.243	0	799.624	0	5.5	4	1.7	4	-1E+10	1	-1E+10	1	-1E+10	1	-1E+10	1	-1E+10	1	-1E+10	1
4902549	69	C	07/08/2022	16:59	-131.086	47.172	0	813.10	0	3.8480	0	34.2970	0	27.249	0	804.760	0	5.4	4	1.7	4	-1E+10	1	-1E+10	1	-1E+10	1	-1E+10	1	-1E+10	1	-1E+10	1
4902549	69	C	07/08/2022	16:59	-131.086	47.172	0	818.20	0	3.8370	0	34.3020	0	27.254	0	809.798	0	5.4	4	1.7	4	-1E+10	1	-1E+10	1	-1E+10	1	-1E+10	1	-1E+10	1	-1E+10	1
4902549	69	C	07/08/2022	16:59	-131.086	47.172	0	823.00	0	3.8280	0	34.3030	0	27.255	0	814.540	0	5.4	4	1.7	4	-1E+10	1	-1E+10	1	-1E+10	1	-1E+10	1	-1E+10	1	-1E+10	1
4902549	69	C	07/08/2022	16:59	-131.086	47.172	0	828.00	0	3.8150	0	34.3040	0	27.257	0	819.478	0	5.4	4	1.7	4	-1E+10	1	-1E+10	1	-1E+10	1	-1E+10	1	-1E+10	1	-1E+10	1
4902549	69	C	07/08/2022	16:59	-131.086	47.172	0	833.20	0	3.8080	0	34.3080	0	27.261	0	824.615	0	5.3	4	1.7	4	-1E+10	1	-1E+10	1	-1E+10	1	-1E+10	1	-1E+10	1	-1E+10	1
4902549	69	C	07/08/2022	16:59	-131.086	47.172	0	838.10	0	3.7900	0	34.3120	0	27.266	0	829.454	0	5.3	4	1.7	4	-1E+10	1	-1E+10	1	-1E+10	1	-1E+10	1	-1E+10	1	-1E+10	1
4902549	69	C	07/08/2022	16:59	-131.086	47.172	0	843.00	0	3.7810	0	34.3140	0	27.269	0	834.294	0	5.3	4	1.7	4	-1E+10	1	-1E+10	1	-1E+10	1	-1E+10	1	-1E+10	1	-1E+10	1
4902549	69	C	07/08/2022	16:59	-131.086	47.172	0	848.10	0	3.7750	0	34.3150	0	27.270	0	839.331	0	5.3	4	1.7	4	-1E+10	1	-1E+10	1	-1E+10	1	-1E+10	1	-1E+10	1	-1E+10	1
4902549	69	C	07/08/2022	16:59	-131.086	47.172	0	852.80	0	3.7710	0	34.3150	0	27.271	0	843.973	0	5.3	4	1.7	4	-1E+10	1	-1E+10	1	-1E+10	1	-1E+10	1	-1E+10	1	-1E+10	1
4902549	69	C	07/08/2022	16:59	-131.086	47.172	0	858.00	0	3.7600	0	34.3180	0	27.274	0	849.109	0	5.3	4	1.7	4	-1E+10	1	-1E+10	1	-1E+10	1	-1E+10	1	-1E+10	1	-1E+10	1
4902549	69	C	07/08/2022	16:59	-131.086	47.172	0	863.40	0	3.7510	0	34.3200	0	27.277	0	854.442	0	5.4	4	1.7	4	-1E+10	1	-1E+10	1	-1E+10	1	-1E+10	1	-1E+10	1	-1E+10	1
4902549	69	C	07/08/2022	16:59	-131.086	47.172	0	868.10	0	3.7430	0	34.3200	0	27.278	0	859.083	0	5.4	4	1.7	4	-1E+10	1	-1E+10	1	-1E+10	1	-1E+10	1	-1E+10	1	-1E+10	1
4902549	69	C	07/08/2022	16:59	-131.086	47.172	0	873.00	0	3.7310	0	34.3210	0	27.280	0	863.922	0	5.5	4	1.7	4	-1E+10	1	-1E+10	1	-1E+10	1	-1E+10	1	-1E+10	1	-1E+10	1
4902549	69	C	07/08/2022	16:59	-131.086	47.172	0	878.00	0	3.7200	0	34.3210	0	27.281	0	868.860	0	5.6	4	1.8	4	-1E+10	1	-1E+10	1	-1E+10	1	-1E+10	1	-1E+10	1	-1E+10	1
4902549	69	C	07/08/2022	16:59	-131.086	47.172	0	883.00	0	3.7030	0	34.3220	0	27.283	0	873.797	0	5.7	4	1.8	4	-1E+10	1	-1E+10	1	-1E+10	1	-1E+10	1	-1E+10	1	-1E+10	1
4902549	69	C	07/08/2022	16:59	-131.086	47.172	0	888.00	0	3.6720	0	34.3230	0	27.287	0	878.735	0	5.8	4	1.8	4	-1E+10	1	-1E+10	1	-1E+10	1	-1E+10	1	-1E+10	1	-1E+10	1
4902549	69	C	07/08/2022	16:59	-131.086	47.172	0	892.90	0	3.6300	0	34.3210	0	27.290	0	883.573	0	5.9	4	1.9	4	-1E+10	1	-1E+10	1	-1E+10	1	-1E+10	1	-1E+10	1	-1E+10	1
4902549	69	C	07/08/2022	16:59	-131.086	47.172	0	897.90	0	3.6160	0	34.3210	0	27.291	0	888.511	0	5.9	4	1.9	4	-1E+10	1	-1E+10	1	-1E+10	1	-1E+10	1	-1E+10	1	-1E+10	1
4902549	69	C	07/08/2022	16:59	-131.086	47.172	0	902.90	0	3.6030	0	34.3230	0	27.294	0	893.448	0	6.0	4	1.9	4	-1E+10	1	-1E+10	1	-1E+10	1	-1E+10	1	-1E+10	1	-1E+10	1
4902549	69	C	07/08/2022	16:59	-131.086	47.172	0	908.00	0	3.5810	0	34.3250	0	27.298	0	898.483	0	6.2	4	1.9	4	-1E+10	1	-1E+10	1	-1E+10	1	-1E+10	1	-1E+10	1	-1E+10	1
4902549	69	C	07/08/2022	16:59	-131.086	47.172	0	912.90	0	3.5330	0	34.3240	0	27.302	0	903.321	0	6.4	4	2.0	4	-1E+10	1	-1E+10	1	-1E+10	1	-1E+10	1	-1E+10	1	-1E+10	1
4902549	69	C	07/08/2022	16:59	-131.086	47.172	0	917.80	0	3.4880	0	34.3210	0	27.304	0	908.159	0	6.5	4	2.0	4	-1E+10	1	-1E+10	1	-1E+10	1	-1E+10	1	-1E+10	1	-1E+10	1
4902549	69	C	07/08/2022	16:59	-131.086	47.172	0	922.80	0	3.4510	0	34.3210	0	27.307	0	913.096	0	6.5	4	2.0	4	-1E+10	1	-1E+10	1	-1E+10	1	-1E+10	1	-1E+10	1	-1E+10	1
4902549	69	C	07/08/2022	16:59	-131.086	47.172	0	927.90	0	3.4280	0	34.3220	0	27.310	0	918.131	0	6.5	4	2.0	4	-1E+10	1	-1E+10	1	-1E+10	1	-1E+10	1	-1E+10	1	-1E+10	1
4902549	69	C	07/08/2022	16:59	-131.086	47.172	0	932.90	0	3.4210	0	34.3230	0	27.312	0	923.067	0	6.5	4	2.0	4	-1E+10	1	-1E+10	1	-1E+10	1	-1E+10	1	-1E+10	1	-1E+10	1
4902549	69	C	07/08/2022	16:59	-131.086	47.172	0	938.00	0	3.4140	0	34.3250	0	27.314	0	928.102	0	6.4	4	2.0	4	-1E+10	1	-1E+10	1	-1E+10	1	-1E+10	1	-1E+10	1	-1E+10	1
4902549	69	C	07/08/2022	16:59	-131.086	47.172	0	943.20	0	3.4110	0	34.3270	0	27.316	0	933.236	0	6.4	4	2.0	4	-1E+10	1	-1E+10	1	-1E+10	1	-1E+10	1	-1E+10	1	-1E+10	1
4902549	69	C	07/08/2022	16:59	-131.086	47.172	0	948.00	0	3.4110	0	34.3320	0	27.320	0	937.974	0	6.4	4	2.0	4	-1E+10	1	-1E+10	1	-1E+10	1	-1E+10	1	-1E+10	1	-1E+10	1
4902549	69	C	07/08/2022	16:59	-131.086	47.172	0	953.00	0	3.3980	0	34.3330	0	27.322	0	942.910	0	6.4	4	2.0	4	-1E+10	1	-1E+10	1	-1E+10	1	-1E+10	1	-1E+10	1	-1E+10	1
4902549	69	C	07/08/2022	16:59	-131.086	47.172	0	958.00	0	3.3890	0	34.3330	0	27.323	0	947.846	0	6.5	4	2.0	4	-1E+10	1	-1E+10	1	-1E+10	1	-1E+10	1	-1E+10	1	-1E+10	1
4902549	69	C	07/08/2022	16:59	-131.086	47.172	0	963.00	0	3.3670	0	34.3320	0	27.324	0	952.782	0	6.4	4	2.0	4	-1E+10	1	-1E+10	1	-1E+10	1	-1E+10	1	-1E+10	1	-1E+10	1
4902549	69	C	07/08/2022	16:59	-131.086	47.172	0	967.80	0	3.3530	0	34.3350	0	27.328	0	957.520	0	6.5	4	2.0	4	-1E+10	1	-1E+10	1	-1E+10	1	-1E+10	1	-1E+10	1	-1E+10	1
4902549	69	C	07/08/2022	16:59	-131.086	47.172	0	972.70	0	3.3460	0	34.3360	0	27.329	0	962.356	0	6.5	4	2.0	4	-1E+10	1	-1E+10	1	-1E+10	1	-1E+10	1	-1E+10	1	-1E+10	1
4902549	69	C	07/08/2022	16:59	-131.086	47.172	0	977.70	0	3.3350	0	34.3370	0	27.331	0	967.292	0	6.5	4	2.0	4	-1E+10	1	-1E+10	1	-1E+10	1	-1E+10	1	-1E+10	1	-1E+10	1
4902549	69	C	07/08/2022	16:59	-131.086	47.172	0	982.70	0	3.3330	0	34.3380	0	27.332	0	972.227	0	6.5	4	2.0	4	-1E+10	1	-1E+10	1	-1E+10	1	-1E+10	1	-1E+10	1	-1E+10	1
4902549	69	C	07/08/2022	16:59	-131.086	47.172	0	987.60	0	3.3240	0	34.3390	0	27.334	0	977.063	0	6.5	4	2.0	4	-1E+10	1	-1E+10	1	-1E+10	1	-1E+10	1	-1E+10	1	-1E+10	1
4902549	69	C	07/08/2022	16:59	-131.086	47.172	0	992.50	0	3.3090	0	34.3420	0	27.338	0	981.900	0	6.4	4	2.0	4	-1E+10	1	-1E+10	1	-1E+10	1	-1E+10	1	-1E+10	1	-1E+10	1
4902549	69	C	07/08/2022	16:59	-131.086	47.172	0	997.50	0	3.3050	0	34.3460	0	27.341	0	986.834	0	6.4	4	2.0	4	-1E+10	1	-1E+10	1	-1E+10	1	-1E+10	1	-1E+10	1	-1E+10	1
4902549	69	C	07/08/2022	16:59	-131.086	47.172	0	1005.00	0	3.2930	0	34.3480	0	27.344	0	994.236	0	6.4	4	2.0	4	-1E+10	1	-1E+10	1	-1E+10	1	-1E+10	1	-1E+10	1	-1E+10	1
4902549	69	C	07/08/2022	16:59	-131.086	47.172	0	1015.40	0	3.2800	0	34.3520	0	27.349	0	1004.500	0	6.4	4	2.0	4	-1E+10	1	-1E+10	1	-1E+10	1	-1E+10	1	-1E+10	1	-1E+10	1
4902549	69	C	07/08/2022	16:59	-131.086	47.172	0	1025.90	0	3.2520	0	34.3600	0	27.358	0	1014.862	0	6.4	4	2.0	4	-1E+10	1	-1E+10	1	-1E+10	1	-1E+10	1	-1E+10	1	-1E+10	1
4902549	69	C	07/08/2022	16:59	-131.086	47.172	0	1035.50	0	3.2260	0	34.3660	0	27.365	0	1024.335	0	6.5	4	2.0	4	-1E+10	1	-1E+10	1	-1E+10	1	-1E+10	1	-1E+10	1	-1E+10	1
4902549	69	C	07/08/2022	16:59	-131.086	47.172	0	1045.00	0	3.2050	0	34.3720	0	27.372	0	1033.709	0	6.6	4	2.0	4	-1E+10	1	-1E+10	1	-1E+10	1	-1E+10	1	-1E+10	1	-1E+10	1
4902549	69	C	07/08/2022	16:59	-131.086	47.172	0	1055.00	0	3.1830	0	34.3780	0	27.379	0	1043.577	0	6.7	4	2.1	4	-1E+10	1	-1E+10	1	-1E+10	1	-1E+10	1	-1E+10	1	-1E+10	1
4902549	69	C	07/08/2022	16:59	-131.086	47.172	0	1065.10	0	3.1670	0	34.3800	0	27.382	0	1053.542	0	6.7	4	2.1	4	-1E+10	1	-1E+10	1	-1E+10	1	-1E+10	1	-1E+10	1	-1E+10	1
4902549	69	C	07/08/2022	16:59	-131.086	47.172	0	1075.50	0	3.1570	0	34.3850	0	27.387	0	1063.803	0	6.9	4	2.1	4	-1E+10	1	-1E+10	1	-1E+10	1	-1E+10	1	-1E+10	1	-1E+10	1
4902549	69	C	07/08/2022	16:59	-131.086	47.172	0	1085.20	0	3.1360	0	34.3890	0	27.392	0	1073.372	0	7.0	4	2.2	4	-1E+10	1	-1E+10	1	-1E+10	1	-1E+10	1	-1E+10	1	-1E+10	1
4902549	69	C	07/08/2022	16:59	-131.086	47.172	0	1095.30	0	3.1200	0	34.3910	0	27.395	0	1083.336	0	7.1	4	2.2	4	-1E+10	1	-1E+10	1	-1E+10	1	-1E+10	1	-1E+10	1	-1E+10	1
4902549	69	C	07/08/2022	16:59	-131.086	47.172	0	1105.70	0	3.1050	0	34.3960	0	27.400	0	1093.595	0	7.3	4	2.2	4	-1E+10	1	-1E+10	1	-1E+10	1	-1E+10	1	-1E+10	1	-1E+10	1
4902549	69	C	07/08/2022	16:59	-131.086	47.172	0	1115.40	0	3.0820	0	34.3990	0	27.405	0	1103.164	0	7.4	4	2.3	4	-1E+10	1	-1E+10	1	-1E+10	1	-1E+10	1	-1E+10	1	-1E+10	1
4902549	69	C	07/08/2022	16:59	-131.086	47.172	0	1125.30	0	3.0620	0	34.4030	0	27.410	0	1112.929	0	7.7	4	2.4	4	-1E+10	1	-1E+10	1	-1E+10	1	-1E+10	1	-1E+10	1	-1E+10	1
4902549	69	C	07/08/2022	16:59	-131.086	47.172	0	1135.70	0	3.0630	0	34.4100	0	27.416	0	1123.187	0	7.9	4	2.4	4	-1E+10	1	-1E+10	1	-1E+10	1	-1E+10	1	-1E+10	1	-1E+10	1
4902549	69	C	07/08/2022	16:59	-131.086	47.172	0	1145.50	0	3.0350	0	34.4110	0	27.419	0	1132.852	0	8.1	4	2.5	4	-1E+10	1	-1E+10	1	-1E+10	1	-1E+10	1	-1E+10	1	-1E+10	1
4902549	69	C	07/08/2022	16:59	-131.086	47.172	0	1155.30	0	3.0280	0	34.4150	0	27.423	0	1142.518	0	8.5	4	2.6	4	-1E+10	1	-1E+10	1	-1E+10	1	-1E+10	1	-1E+10	1	-1E+10	1
4902549	69	C	07/08/2022	16:59	-131.086	47.172	0	1165.30	0	3.0240	0	34.4230	0	27.430	0	1152.380	0	8.8	4	2.7	4	-1E+10	1	-1E+10	1	-1E+10	1	-1E+10	1	-1E+10	1	-1E+10	1
4902549	69	C	07/08/2022	16:59	-131.086	47.172	0	1175.50	0	3.0050	0	34.4270	0	27.435	0	1162.438	0	9.1	4	2.8	4	-1E+10	1	-1E+10	1	-1E+10	1	-1E+10	1	-1E+10	1	-1E+10	1
4902549	69	C	07/08/2022	16:59	-131.086	47.172	0	1185.90	0	2.9890	0	34.4300	0	27.439	0	1172.694	0	9.3	4	2.9	4	-1E+10	1	-1E+10	1	-1E+10	1	-1E+10	1	-1E+10	1	-1E+10	1
4902549	69	C	07/08/2022	16:59	-131.086	47.172	0	1195.40	0	2.9720	0	34.4330	0	27.443	0	1182.061	0	9.5	4	2.9	4	-1E+10	1	-1E+10	1	-1E+10	1	-1E+10	1	-1E+10	1	-1E+10	1
4902549	69	C	07/08/2022	16:59	-131.086	47.172	0	1205.60	0	2.9510	0	34.4360	0	27.447	0	1192.119	0	9.7	4	3.0	4	-1E+10	1	-1E+10	1	-1E+10	1	-1E+10	1	-1E+10	1	-1E+10	1
4902549	69	C	07/08/2022	16:59	-131.086	47.172	0	1215.60	0	2.9230	0	34.4370	0	27.450	0	1201.978	0	9.8	4	3.0	4	-1E+10	1	-1E+10	1	-1E+10	1	-1E+10	1	-1E+10	1	-1E+10	1
4902549	69	C	07/08/2022	16:59	-131.086	47.172	0	1225.40	0	2.8980	0	34.4380	0	27.453	0	1211.640	0	10.1	4	3.1	4	-1E+10	1	-1E+10	1	-1E+10	1	-1E+10	1	-1E+10	1	-1E+10	1
4902549	69	C	07/08/2022	16:59	-131.086	47.172	0	1235.40	0	2.8900	0	34.4410	0	27.456	0	1221.499	0	10.6	4	3.3	4	-1E+10	1	-1E+10	1	-1E+10	1	-1E+10	1	-1E+10	1	-1E+10	1
4902549	69	C	07/08/2022	16:59	-131.086	47.172	0	1245.60	0	2.8870	0	34.4480	0	27.462	0	1231.554	0	11.1	4	3.4	4	-1E+10	1	-1E+10	1	-1E+10	1	-1E+10	1	-1E+10	1	-1E+10	1
4902549	69	C	07/08/2022	16:59	-131.086	47.172	0	1255.50	0	2.8760	0	34.4520	0	27.467	0	1241.313	0	11.5	4	3.5	4	-1E+10	1	-1E+10	1	-1E+10	1	-1E+10	1	-1E+10	1	-1E+10	1
4902549	69	C	07/08/2022	16:59	-131.086	47.172	0	1265.30	0	2.8670	0	34.4550	0	27.470	0	1250.974	0	11.8	4	3.6	4	-1E+10	1	-1E+10	1	-1E+10	1	-1E+10	1	-1E+10	1	-1E+10	1
4902549	69	C	07/08/2022	16:59	-131.086	47.172	0	1275.10	0	2.8600	0	34.4580	0	27.473	0	1260.633	0	12.1	4	3.7	4	-1E+10	1	-1E+10	1	-1E+10	1	-1E+10	1	-1E+10	1	-1E+10	1
4902549	69	C	07/08/2022	16:59	-131.086	47.172	0	1285.40	0	2.8480	0	34.4590	0	27.475	0	1270.785	0	12.3	4	3.8	4	-1E+10	1	-1E+10	1	-1E+10	1	-1E+10	1	-1E+10	1	-1E+10	1
4902549	69	C	07/08/2022	16:59	-131.086	47.172	0	1295.60	0	2.8250	0	34.4610	0	27.479	0	1280.838	0	12.6	4	3.9	4	-1E+10	1	-1E+10	1	-1E+10	1	-1E+10	1	-1E+10	1	-1E+10	1
4902549	69	C	07/08/2022	16:59	-131.086	47.172	0	1305.40	0	2.8020	0	34.4640	0	27.483	0	1290.497	0	12.8	4	3.9	4	-1E+10	1	-1E+10	1	-1E+10	1	-1E+10	1	-1E+10	1	-1E+10	1
4902549	69	C	07/08/2022	16:59	-131.086	47.172	0	1315.20	0	2.7910	0	34.4650	0	27.485	0	1300.155	0	13.0	4	4.0	4	-1E+10	1	-1E+10	1	-1E+10	1	-1E+10	1	-1E+10	1	-1E+10	1
4902549	69	C	07/08/2022	16:59	-131.086	47.172	0	1325.40	0	2.7730	0	34.4660	0	27.487	0	1310.206	0	13.2	4	4.1	4	-1E+10	1	-1E+10	1	-1E+10	1	-1E+10	1	-1E+10	1	-1E+10	1
4902549	69	C	07/08/2022	16:59	-131.086	47.172	0	1335.60	0	2.7380	0	34.4660	0	27.490	0	1320.257	0	13.3	4	4.1	4	-1E+10	1	-1E+10	1	-1E+10	1	-1E+10	1	-1E+10	1	-1E+10	1
4902549	69	C	07/08/2022	16:59	-131.086	47.172	0	1345.30	0	2.7180	0	34.4680	0	27.494	0	1329.815	0	13.6	4	4.2	4	-1E+10	1	-1E+10	1	-1E+10	1	-1E+10	1	-1E+10	1	-1E+10	1
4902549	69	C	07/08/2022	16:59	-131.086	47.172	0	1355.20	0	2.7090	0	34.4700	0	27.496	0	1339.570	0	14.0	4	4.3	4	-1E+10	1	-1E+10	1	-1E+10	1	-1E+10	1	-1E+10	1	-1E+10	1
4902549	69	C	07/08/2022	16:59	-131.086	47.172	0	1365.10	0	2.6900	0	34.4730	0	27.500	0	1349.324	0	14.3	4	4.4	4	-1E+10	1	-1E+10	1	-1E+10	1	-1E+10	1	-1E+10	1	-1E+10	1
4902549	69	C	07/08/2022	16:59	-131.086	47.172	0	1375.30	0	2.6800	0	34.4740	0	27.502	0	1359.373	0	14.5	4	4.4	4	-1E+10	1	-1E+10	1	-1E+10	1	-1E+10	1	-1E+10	1	-1E+10	1
4902549	69	C	07/08/2022	16:59	-131.086	47.172	0	1385.40	0	2.6440	0	34.4750	0	27.506	0	1369.324	0	14.9	4	4.6	4	-1E+10	1	-1E+10	1	-1E+10	1	-1E+10	1	-1E+10	1	-1E+10	1
4902549	69	C	07/08/2022	16:59	-131.086	47.172	0	1395.40	0	2.5990	0	34.4780	0	27.512	0	1379.175	0	15.1	4	4.6	4	-1E+10	1	-1E+10	1	-1E+10	1	-1E+10	1	-1E+10	1	-1E+10	1
4902549	69	C	07/08/2022	16:59	-131.086	47.172	0	1405.30	0	2.5620	0	34.4780	0	27.515	0	1388.927	0	15.4	4	4.7	4	-1E+10	1	-1E+10	1	-1E+10	1	-1E+10	1	-1E+10	1	-1E+10	1
4902549	69	C	07/08/2022	16:59	-131.086	47.172	0	1415.20	0	2.5420	0	34.4810	0	27.519	0	1398.679	0	15.9	4	4.8	4	-1E+10	1	-1E+10	1	-1E+10	1	-1E+10	1	-1E+10	1	-1E+10	1
4902549	69	C	07/08/2022	16:59	-131.086	47.172	0	1425.10	0	2.5260	0	34.4830	0	27.522	0	1408.431	0	16.2	4	5.0	4	-1E+10	1	-1E+10	1	-1E+10	1	-1E+10	1	-1E+10	1	-1E+10	1
4902549	69	C	07/08/2022	16:59	-131.086	47.172	0	1435.20	0	2.5130	0	34.4850	0	27.525	0	1418.378	0	16.6	4	5.1	4	-1E+10	1	-1E+10	1	-1E+10	1	-1E+10	1	-1E+10	1	-1E+10	1
4902549	69	C	07/08/2022	16:59	-131.086	47.172	0	1445.30	0	2.5000	0	34.4860	0	27.527	0	1428.326	0	16.9	4	5.2	4	-1E+10	1	-1E+10	1	-1E+10	1	-1E+10	1	-1E+10	1	-1E+10	1
4902549	69	C	07/08/2022	16:59	-131.086	47.172	0	1455.20	0	2.4870	0	34.4880	0	27.530	0	1438.076	0	17.3	4	5.3	4	-1E+10	1	-1E+10	1	-1E+10	1	-1E+10	1	-1E+10	1	-1E+10	1
4902549	69	C	07/08/2022	16:59	-131.086	47.172	0	1465.80	0	2.4740	0	34.4900	0	27.533	0	1448.515	0	17.8	4	5.4	4	-1E+10	1	-1E+10	1	-1E+10	1	-1E+10	1	-1E+10	1	-1E+10	1
4902549	69	C	07/08/2022	16:59	-131.086	47.172	0	1475.70	0	2.4610	0	34.4920	0	27.535	0	1458.264	0	18.2	4	5.5	4	-1E+10	1	-1E+10	1	-1E+10	1	-1E+10	1	-1E+10	1	-1E+10	1
4902549	69	C	07/08/2022	16:59	-131.086	47.172	0	1485.60	0	2.4530	0	34.4940	0	27.538	0	1468.013	0	18.5	4	5.6	4	-1E+10	1	-1E+10	1	-1E+10	1	-1E+10	1	-1E+10	1	-1E+10	1
4902549	69	C	07/08/2022	16:59	-131.086	47.172	0	1495.20	0	2.4470	0	34.4950	0	27.539	0	1477.465	0	19.2	4	5.8	4	-1E+10	1	-1E+10	1	-1E+10	1	-1E+10	1	-1E+10	1	-1E+10	1
4902549	69	C	07/08/2022	16:59	-131.086	47.172	0	1505.30	0	2.4320	0	34.4980	0	27.543	0	1487.410	0	19.8	4	6.0	4	-1E+10	1	-1E+10	1	-1E+10	1	-1E+10	1	-1E+10	1	-1E+10	1
4902549	69	C	07/08/2022	16:59	-131.086	47.172	0	1515.70	0	2.4150	0	34.5010	0	27.547	0	1497.650	0	20.3	4	6.2	4	-1E+10	1	-1E+10	1	-1E+10	1	-1E+10	1	-1E+10	1	-1E+10	1
4902549	69	C	07/08/2022	16:59	-131.086	47.172	0	1525.60	0	2.4050	0	34.5020	0	27.548	0	1507.397	0	20.7	4	6.3	4	-1E+10	1	-1E+10	1	-1E+10	1	-1E+10	1	-1E+10	1	-1E+10	1
4902549	69	C	07/08/2022	16:59	-131.086	47.172	0	1535.50	0	2.3860	0	34.5040	0	27.552	0	1517.143	0	21.3	4	6.5	4	-1E+10	1	-1E+10	1	-1E+10	1	-1E+10	1	-1E+10	1	-1E+10	1
4902549	69	C	07/08/2022	16:59	-131.086	47.172	0	1545.70	0	2.3730	0	34.5050	0	27.553	0	1527.184	0	21.9	4	6.7	4	-1E+10	1	-1E+10	1	-1E+10	1	-1E+10	1	-1E+10	1	-1E+10	1
4902549	69	C	07/08/2022	16:59	-131.086	47.172	0	1555.70	0	2.3530	0	34.5090	0	27.558	0	1537.028	0	22.6	4	6.9	4	-1E+10	1	-1E+10	1	-1E+10	1	-1E+10	1	-1E+10	1	-1E+10	1
4902549	69	C	07/08/2022	16:59	-131.086	47.172	0	1565.70	0	2.3410	0	34.5110	0	27.561	0	1546.872	0	23.3	4	7.1	4	-1E+10	1	-1E+10	1	-1E+10	1	-1E+10	1	-1E+10	1	-1E+10	1
4902549	69	C	07/08/2022	16:59	-131.086	47.172	0	1575.40	0	2.3330	0	34.5130	0	27.563	0	1556.419	0	23.8	4	7.2	4	-1E+10	1	-1E+10	1	-1E+10	1	-1E+10	1	-1E+10	1	-1E+10	1
4902549	69	C	07/08/2022	16:59	-131.086	47.172	0	1585.80	0	2.3270	0	34.5150	0	27.565	0	1566.656	0	24.7	4	7.5	4	-1E+10	1	-1E+10	1	-1E+10	1	-1E+10	1	-1E+10	1	-1E+10	1
4902549	69	C	07/08/2022	16:59	-131.086	47.172	0	1595.60	0	2.3100	0	34.5190	0	27.570	0	1576.301	0	25.5	4	7.8	4	-1E+10	1	-1E+10	1	-1E+10	1	-1E+10	1	-1E+10	1	-1E+10	1
4902549	69	C	07/08/2022	16:59	-131.086	47.172	0	1605.40	0	2.3060	0	34.5200	0	27.571	0	1585.946	0	26.1	4	7.9	4	-1E+10	1	-1E+10	1	-1E+10	1	-1E+10	1	-1E+10	1	-1E+10	1
4902549	69	C	07/08/2022	16:59	-131.086	47.172	0	1615.40	0	2.2920	0	34.5220	0	27.574	0	1595.787	0	26.4	4	8.0	4	-1E+10	1	-1E+10	1	-1E+10	1	-1E+10	1	-1E+10	1	-1E+10	1
4902549	69	C	07/08/2022	16:59	-131.086	47.172	0	1625.50	0	2.2800	0	34.5230	0	27.576	0	1605.726	0	26.7	4	8.1	4	-1E+10	1	-1E+10	1	-1E+10	1	-1E+10	1	-1E+10	1	-1E+10	1
4902549	69	C	07/08/2022	16:59	-131.086	47.172	0	1635.40	0	2.2750	0	34.5240	0	27.577	0	1615.468	0	27.0	4	8.2	4	-1E+10	1	-1E+10	1	-1E+10	1	-1E+10	1	-1E+10	1	-1E+10	1
4902549	69	C	07/08/2022	16:59	-131.086	47.172	0	1645.50	0	2.2630	0	34.5250	0	27.579	0	1625.406	0	27.4	4	8.3	4	-1E+10	1	-1E+10	1	-1E+10	1	-1E+10	1	-1E+10	1	-1E+10	1
4902549	69	C	07/08/2022	16:59	-131.086	47.172	0	1655.70	0	2.2550	0	34.5270	0	27.581	0	1635.442	0	28.3	4	8.6	4	-1E+10	1	-1E+10	1	-1E+10	1	-1E+10	1	-1E+10	1	-1E+10	1
4902549	69	C	07/08/2022	16:59	-131.086	47.172	0	1665.50	0	2.2510	0	34.5290	0	27.583	0	1645.084	0	28.8	4	8.7	4	-1E+10	1	-1E+10	1	-1E+10	1	-1E+10	1	-1E+10	1	-1E+10	1
4902549	69	C	07/08/2022	16:59	-131.086	47.172	0	1675.40	0	2.2430	0	34.5300	0	27.585	0	1654.824	0	29.2	4	8.8	4	-1E+10	1	-1E+10	1	-1E+10	1	-1E+10	1	-1E+10	1	-1E+10	1
4902549	69	C	07/08/2022	16:59	-131.086	47.172	0	1685.10	0	2.2420	0	34.5310	0	27.586	0	1664.367	0	29.8	4	9.0	4	-1E+10	1	-1E+10	1	-1E+10	1	-1E+10	1	-1E+10	1	-1E+10	1
4902549	69	C	07/08/2022	16:59	-131.086	47.172	0	1695.30	0	2.2300	0	34.5340	0	27.589	0	1674.401	0	30.7	4	9.3	4	-1E+10	1	-1E+10	1	-1E+10	1	-1E+10	1	-1E+10	1	-1E+10	1
4902549	69	C	07/08/2022	16:59	-131.086	47.172	0	1705.60	0	2.2180	0	34.5360	0	27.592	0	1684.533	0	31.4	4	9.5	4	-1E+10	1	-1E+10	1	-1E+10	1	-1E+10	1	-1E+10	1	-1E+10	1
4902549	69	C	07/08/2022	16:59	-131.086	47.172	0	1715.50	0	2.2040	0	34.5380	0	27.595	0	1694.271	0	32.0	4	9.7	4	-1E+10	1	-1E+10	1	-1E+10	1	-1E+10	1	-1E+10	1	-1E+10	1
4902549	69	C	07/08/2022	16:59	-131.086	47.172	0	1725.50	0	2.1940	0	34.5400	0	27.597	0	1704.108	0	32.7	4	9.9	4	-1E+10	1	-1E+10	1	-1E+10	1	-1E+10	1	-1E+10	1	-1E+10	1
4902549	69	C	07/08/2022	16:59	-131.086	47.172	0	1735.60	0	2.1840	0	34.5420	0	27.599	0	1714.041	0	33.3	4	10.1	4	-1E+10	1	-1E+10	1	-1E+10	1	-1E+10	1	-1E+10	1	-1E+10	1
4902549	69	C	07/08/2022	16:59	-131.086	47.172	0	1745.30	0	2.1770	0	34.5430	0	27.601	0	1723.582	0	33.9	4	10.3	4	-1E+10	1	-1E+10	1	-1E+10	1	-1E+10	1	-1E+10	1	-1E+10	1
4902549	69	C	07/08/2022	16:59	-131.086	47.172	0	1755.20	0	2.1650	0	34.5450	0	27.603	0	1733.318	0	34.6	4	10.5	4	-1E+10	1	-1E+10	1	-1E+10	1	-1E+10	1	-1E+10	1	-1E+10	1
4902549	69	C	07/08/2022	16:59	-131.086	47.172	0	1765.30	0	2.1570	0	34.5470	0	27.606	0	1743.251	0	35.2	4	10.7	4	-1E+10	1	-1E+10	1	-1E+10	1	-1E+10	1	-1E+10	1	-1E+10	1
4902549	69	C	07/08/2022	16:59	-131.086	47.172	0	1775.50	0	2.1460	0	34.5490	0	27.608	0	1753.281	0	35.9	4	10.9	4	-1E+10	1	-1E+10	1	-1E+10	1	-1E+10	1	-1E+10	1	-1E+10	1
4902549	69	C	07/08/2022	16:59	-131.086	47.172	0	1785.80	0	2.1350	0	34.5500	0	27.610	0	1763.410	0	36.7	4	11.1	4	-1E+10	1	-1E+10	1	-1E+10	1	-1E+10	1	-1E+10	1	-1E+10	1
4902549	69	C	07/08/2022	16:59	-131.086	47.172	0	1795.80	0	2.1190	0	34.5530	0	27.614	0	1773.243	0	37.5	4	11.3	4	-1E+10	1	-1E+10	1	-1E+10	1	-1E+10	1	-1E+10	1	-1E+10	1
4902549	69	C	07/08/2022	16:59	-131.086	47.172	0	1805.50	0	2.1110	0	34.5540	0	27.615	0	1782.780	0	37.9	4	11.5	4	-1E+10	1	-1E+10	1	-1E+10	1	-1E+10	1	-1E+10	1	-1E+10	1
4902549	69	C	07/08/2022	16:59	-131.086	47.172	0	1815.50	0	2.1050	0	34.5550	0	27.617	0	1792.612	0	38.4	4	11.6	4	-1E+10	1	-1E+10	1	-1E+10	1	-1E+10	1	-1E+10	1	-1E+10	1
4902549	69	C	07/08/2022	16:59	-131.086	47.172	0	1825.40	0	2.0980	0	34.5570	0	27.619	0	1802.345	0	39.0	4	11.8	4	-1E+10	1	-1E+10	1	-1E+10	1	-1E+10	1	-1E+10	1	-1E+10	1
4902549	69	C	07/08/2022	16:59	-131.086	47.172	0	1835.50	0	2.0860	0	34.5580	0	27.621	0	1812.275	0	39.6	4	12.0	4	-1E+10	1	-1E+10	1	-1E+10	1	-1E+10	1	-1E+10	1	-1E+10	1
4902549	69	C	07/08/2022	16:59	-131.086	47.172	0	1845.60	0	2.0740	0	34.5600	0	27.623	0	1822.203	0	40.1	4	12.1	4	-1E+10	1	-1E+10	1	-1E+10	1	-1E+10	1	-1E+10	1	-1E+10	1
4902549	69	C	07/08/2022	16:59	-131.086	47.172	0	1855.50	0	2.0700	0	34.5600	0	27.624	0	1831.935	0	40.6	4	12.3	4	-1E+10	1	-1E+10	1	-1E+10	1	-1E+10	1	-1E+10	1	-1E+10	1
4902549	69	C	07/08/2022	16:59	-131.086	47.172	0	1865.50	0	2.0600	0	34.5620	0	27.626	0	1841.765	0	41.3	4	12.5	4	-1E+10	1	-1E+10	1	-1E+10	1	-1E+10	1	-1E+10	1	-1E+10	1
4902549	69	C	07/08/2022	16:59	-131.086	47.172	0	1875.40	0	2.0450	0	34.5650	0	27.630	0	1851.496	0	42.1	4	12.7	4	-1E+10	1	-1E+10	1	-1E+10	1	-1E+10	1	-1E+10	1	-1E+10	1
4902549	69	C	07/08/2022	16:59	-131.086	47.172	0	1885.20	0	2.0370	0	34.5660	0	27.631	0	1861.128	0	42.6	4	12.9	4	-1E+10	1	-1E+10	1	-1E+10	1	-1E+10	1	-1E+10	1	-1E+10	1
4902549	69	C	07/08/2022	16:59	-131.086	47.172	0	1895.20	0	2.0280	0	34.5670	0	27.633	0	1870.957	0	43.1	4	13.0	4	-1E+10	1	-1E+10	1	-1E+10	1	-1E+10	1	-1E+10	1	-1E+10	1
4902549	69	C	07/08/2022	16:59	-131.086	47.172	0	1905.20	0	2.0190	0	34.5680	0	27.634	0	1880.785	0	43.6	4	13.2	4	-1E+10	1	-1E+10	1	-1E+10	1	-1E+10	1	-1E+10	1	-1E+10	1
4902549	69	C	07/08/2022	16:59	-131.086	47.172	0	1915.50	0	2.0090	0	34.5700	0	27.637	0	1890.907	0	44.3	4	13.4	4	-1E+10	1	-1E+10	1	-1E+10	1	-1E+10	1	-1E+10	1	-1E+10	1
4902549	69	C	07/08/2022	16:59	-131.086	47.172	0	1925.40	0	1.9990	0	34.5720	0	27.639	0	1900.636	0	44.7	4	13.5	4	-1E+10	1	-1E+10	1	-1E+10	1	-1E+10	1	-1E+10	1	-1E+10	1
4902549	69	C	07/08/2022	16:59	-131.086	47.172	0	1935.10	0	1.9940	0	34.5730	0	27.640	0	1910.167	0	45.0	4	13.6	4	-1E+10	1	-1E+10	1	-1E+10	1	-1E+10	1	-1E+10	1	-1E+10	1
4902549	69	C	07/08/2022	16:59	-131.086	47.172	0	1945.10	0	1.9870	0	34.5740	0	27.642	0	1919.993	0	45.1	4	13.6	4	-1E+10	1	-1E+10	1	-1E+10	1	-1E+10	1	-1E+10	1	-1E+10	1
4902549	69	C	07/08/2022	16:59	-131.086	47.172	0	1955.10	0	1.9820	0	34.5750	0	27.643	0	1929.819	0	44.7	4	13.5	4	-1E+10	1	-1E+10	1	-1E+10	1	-1E+10	1	-1E+10	1	-1E+10	1
4902549	69	C	07/08/2022	16:59	-131.086	47.172	0	1965.20	0	1.9760	0	34.5760	0	27.644	0	1939.742	0	42.6	4	12.8	4	-1E+10	1	-1E+10	1	-1E+10	1	-1E+10	1	-1E+10	1	-1E+10	1
4902549	69	C	07/08/2022	16:59	-131.086	47.172	0	1976.00	0	1.9690	0	34.5780	0	27.646	0	1950.353	0	32.7	4	9.9	4	-1E+10	1	-1E+10	1	-1E+10	1	-1E+10	1	-1E+10	1	-1E+10	1
4902549	69	C	07/08/2022	16:59	-131.086	47.172	0	1982.70	0	1.9660	0	34.5790	0	27.648	0	1956.935	0	24.6	4	7.4	4	-1E+10	1	-1E+10	1	-1E+10	1	-1E+10	1	-1E+10	1	-1E+10	1
4902549	69	C	07/08/2022	16:59	-131.086	47.172	0																										
4902549	70	C	07/18/2022	22:00	-131.314	47.025	0	0.20	0	15.0690	0	32.2210	0	23.816	0	0.198	0	252.4	4	100.1	4	-1E+10	1	-1E+10	1	-1E+10	1	-1E+10	1	-1E+10	1	-1E+10	1
4902549	70	C	07/18/2022	22:00	-131.314	47.025	0	0.30	0	15.0691	0	32.2201	0	23.816	0	0.298	0	252.4	4	100.0	4	-1E+10	1	-1E+10	1	-1E+10	1	-1E+10	1	-1E+10	1	-1E+10	1
4902549	70	C	07/18/2022	22:00	-131.314	47.025	0	1.10	0	15.0700	0	32.2130	0	23.810	0	1.091	0	252.2	4	100.0	4	-1E+10	1	-1E+10	1	-1E+10	1	-1E+10	1	-1E+10	1	-1E+10	1
4902549	70	C	07/18/2022	22:00	-131.314	47.025	0	2.00	0	15.0740	0	32.2080	0	23.805	0	1.983	0	252.3	4	100.0	4	-1E+10	1	-1E+10	1	-1E+10	1	-1E+10	1	-1E+10	1	-1E+10	1
4902549	70	C	07/18/2022	22:00	-131.314	47.025	0	2.90	0	15.0710	0	32.2040	0	23.803	0	2.876	0	252.3	4	100.0	4	-1E+10	1	-1E+10	1	-1E+10	1	-1E+10	1	-1E+10	1	-1E+10	1
4902549	70	C	07/18/2022	22:00	-131.314	47.025	0	3.80	0	15.0670	0	32.2020	0	23.802	0	3.768	0	252.5	4	100.1	4	-1E+10	1	-1E+10	1	-1E+10	1	-1E+10	1	-1E+10	1	-1E+10	1
4902549	70	C	07/18/2022	22:00	-131.314	47.025	0	4.80	0	15.0430	0	32.2220	0	23.823	0	4.760	0	252.7	4	100.1	4	-1E+10	1	-1E+10	1	-1E+10	1	-1E+10	1	-1E+10	1	-1E+10	1
4902549	70	C	07/18/2022	22:00	-131.314	47.025	0	5.90	0	15.0450	0	32.2250	0	23.825	0	5.851	0	252.9	4	100.2	4	-1E+10	1	-1E+10	1	-1E+10	1	-1E+10	1	-1E+10	1	-1E+10	1
4902549	70	C	07/18/2022	22:00	-131.314	47.025	0	6.90	0	15.0350	0	32.2250	0	23.827	0	6.843	0	253.4	4	100.4	4	-1E+10	1	-1E+10	1	-1E+10	1	-1E+10	1	-1E+10	1	-1E+10	1
4902549	70	C	07/18/2022	22:00	-131.314	47.025	0	8.10	0	15.0080	0	32.2240	0	23.832	0	8.033	0	254.3	4	100.7	4	-1E+10	1	-1E+10	1	-1E+10	1	-1E+10	1	-1E+10	1	-1E+10	1
4902549	70	C	07/18/2022	22:00	-131.314	47.025	0	8.80	0	15.0070	0	32.2240	0	23.832	0	8.727	0	255.1	4	101.0	4	-1E+10	1	-1E+10	1	-1E+10	1	-1E+10	1	-1E+10	1	-1E+10	1
4902549	70	C	07/18/2022	22:00	-131.314	47.025	0	9.90	0	14.9870	0	32.2250	0	23.837	0	9.818	0	256.5	4	101.5	4	-1E+10	1	-1E+10	1	-1E+10	1	-1E+10	1	-1E+10	1	-1E+10	1
4902549	70	C	07/18/2022	22:00	-131.314	47.025	0	10.80	0	14.9090	0	32.2210	0	23.851	0	10.710	0	259.6	4	102.6	4	-1E+10	1	-1E+10	1	-1E+10	1	-1E+10	1	-1E+10	1	-1E+10	1
4902549	70	C	07/18/2022	22:00	-131.314	47.025	0	12.00	0	14.6700	0	32.2100	0	23.893	0	11.900	0	263.7	4	103.7	4	-1E+10	1	-1E+10	1	-1E+10	1	-1E+10	1	-1E+10	1	-1E+10	1
4902549	70	C	07/18/2022	22:00	-131.314	47.025	0	13.30	0	14.2710	0	32.2040	0	23.972	0	13.189	0	267.6	4	104.4	4	-1E+10	1	-1E+10	1	-1E+10	1	-1E+10	1	-1E+10	1	-1E+10	1
4902549	70	C	07/18/2022	22:00	-131.314	47.025	0	14.20	0	14.1540	0	32.1990	0	23.993	0	14.082	0	268.9	4	104.6	4	-1E+10	1	-1E+10	1	-1E+10	1	-1E+10	1	-1E+10	1	-1E+10	1
4902549	70	C	07/18/2022	22:00	-131.314	47.025	0	15.10	0	14.1050	0	32.1980	0	24.002	0	14.974	0	270.1	4	105.0	4	-1E+10	1	-1E+10	1	-1E+10	1	-1E+10	1	-1E+10	1	-1E+10	1
4902549	70	C	07/18/2022	22:00	-131.314	47.025	0	16.00	0	14.0180	0	32.1910	0	24.015	0	15.867	0	271.3	4	105.3	4	-1E+10	1	-1E+10	1	-1E+10	1	-1E+10	1	-1E+10	1	-1E+10	1
4902549	70	C	07/18/2022	22:00	-131.314	47.025	0	17.00	0	13.8900	0	32.1930	0	24.042	0	16.858	0	273.2	4	105.8	4	-1E+10	1	-1E+10	1	-1E+10	1	-1E+10	1	-1E+10	1	-1E+10	1
4902549	70	C	07/18/2022	22:00	-131.314	47.025	0	17.90	0	13.7770	0	32.1800	0	24.055	0	17.751	0	274.8	4	106.1	4	-1E+10	1	-1E+10	1	-1E+10	1	-1E+10	1	-1E+10	1	-1E+10	1
4902549	70	C	07/18/2022	22:00	-131.314	47.025	0	19.00	0	13.4330	0	32.1880	0	24.131	0	18.841	0	275.8	4	105.8	4	-1E+10	1	-1E+10	1	-1E+10	1	-1E+10	1	-1E+10	1	-1E+10	1
4902549	70	C	07/18/2022	22:00	-131.314	47.025	0	20.10	0	12.9520	0	32.1780	0	24.218	0	19.932	0	279.0	4	105.9	4	-1E+10	1	-1E+10	1	-1E+10	1	-1E+10	1	-1E+10	1	-1E+10	1
4902549	70	C	07/18/2022	22:00	-131.314	47.025	0	21.00	0	12.8860	0	32.1770	0	24.230	0	20.825	0	279.4	4	105.9	4	-1E+10	1	-1E+10	1	-1E+10	1	-1E+10	1	-1E+10	1	-1E+10	1
4902549	70	C	07/18/2022	22:00	-131.314	47.025	0	22.10	0	12.6610	0	32.1760	0	24.273	0	21.915	0	280.9	4	106.1	4	-1E+10	1	-1E+10	1	-1E+10	1	-1E+10	1	-1E+10	1	-1E+10	1
4902549	70	C	07/18/2022	22:00	-131.314	47.025	0	22.90	0	12.4710	0	32.1710	0	24.305	0	22.709	0	281.7	4	105.9	4	-1E+10	1	-1E+10	1	-1E+10	1	-1E+10	1	-1E+10	1	-1E+10	1
4902549	70	C	07/18/2022	22:00	-131.314	47.025	0	24.10	0	11.9950	0	32.1640	0	24.389	0	23.899	0	281.9	4	104.9	4	-1E+10	1	-1E+10	1	-1E+10	1	-1E+10	1	-1E+10	1	-1E+10	1
4902549	70	C	07/18/2022	22:00	-131.314	47.025	0	25.20	0	11.7510	0	32.1630	0	24.434	0	24.989	0	281.0	4	104.1	4	-1E+10	1	-1E+10	1	-1E+10	1	-1E+10	1	-1E+10	1	-1E+10	1
4902549	70	C	07/18/2022	22:00	-131.314	47.025	0	26.00	0	11.3970	0	32.1770	0	24.509	0	25.783	0	281.4	4	103.5	4	-1E+10	1	-1E+10	1	-1E+10	1	-1E+10	1	-1E+10	1	-1E+10	1
4902549	70	C	07/18/2022	22:00	-131.314	47.025	0	27.20	0	10.9910	0	32.2290	0	24.621	0	26.972	0	280.9	4	102.4	4	-1E+10	1	-1E+10	1	-1E+10	1	-1E+10	1	-1E+10	1	-1E+10	1
4902549	70	C	07/18/2022	22:00	-131.314	47.025	0	28.10	0	10.8670	0	32.1750	0	24.601	0	27.865	0	281.4	4	102.3	4	-1E+10	1	-1E+10	1	-1E+10	1	-1E+10	1	-1E+10	1	-1E+10	1
4902549	70	C	07/18/2022	22:00	-131.314	47.025	0	28.90	0	10.8150	0	32.1750	0	24.610	0	28.658	0	280.5	4	101.9	4	-1E+10	1	-1E+10	1	-1E+10	1	-1E+10	1	-1E+10	1	-1E+10	1
4902549	70	C	07/18/2022	22:00	-131.314	47.025	0	30.10	0	10.7510	0	32.1730	0	24.619	0	29.848	0	279.2	4	101.3	4	-1E+10	1	-1E+10	1	-1E+10	1	-1E+10	1	-1E+10	1	-1E+10	1
4902549	70	C	07/18/2022	22:00	-131.314	47.025	0	30.90	0	10.6230	0	32.1780	0	24.645	0	30.641	0	278.7	4	100.8	4	-1E+10	1	-1E+10	1	-1E+10	1	-1E+10	1	-1E+10	1	-1E+10	1
4902549	70	C	07/18/2022	22:00	-131.314	47.025	0	31.90	0	10.4820	0	32.1830	0	24.673	0	31.633	0	278.1	4	100.3	4	-1E+10	1	-1E+10	1	-1E+10	1	-1E+10	1	-1E+10	1	-1E+10	1
4902549	70	C	07/18/2022	22:00	-131.314	47.025	0	32.80	0	10.3960	0	32.1850	0	24.689	0	32.525	0	277.6	4	99.9	4	-1E+10	1	-1E+10	1	-1E+10	1	-1E+10	1	-1E+10	1	-1E+10	1
4902549	70	C	07/18/2022	22:00	-131.314	47.025	0	33.90	0	10.3050	0	32.1870	0	24.706	0	33.616	0	276.7	4	99.4	4	-1E+10	1	-1E+10	1	-1E+10	1	-1E+10	1	-1E+10	1	-1E+10	1
4902549	70	C	07/18/2022	22:00	-131.314	47.025	0	35.30	0	10.2350	0	32.1870	0	24.718	0	35.004	0	275.3	4	98.8	4	-1E+10	1	-1E+10	1	-1E+10	1	-1E+10	1	-1E+10	1	-1E+10	1
4902549	70	C	07/18/2022	22:00	-131.314	47.025	0	36.00	0	10.1980	0	32.1880	0	24.725	0	35.698	0	274.4	4	98.4	4	-1E+10	1	-1E+10	1	-1E+10	1	-1E+10	1	-1E+10	1	-1E+10	1
4902549	70	C	07/18/2022	22:00	-131.314	47.025	0	37.00	0	10.0650	0	32.1940	0	24.752	0	36.690	0	274.0	4	97.9	4	-1E+10	1	-1E+10	1	-1E+10	1	-1E+10	1	-1E+10	1	-1E+10	1
4902549	70	C	07/18/2022	22:00	-131.314	47.025	0	38.10	0	9.9610	0	32.2010	0	24.775	0	37.780	0	273.5	4	97.5	4	-1E+10	1	-1E+10	1	-1E+10	1	-1E+10	1	-1E+10	1	-1E+10	1
4902549	70	C	07/18/2022	22:00	-131.314	47.025	0	38.90	0	9.8920	0	32.2040	0	24.788	0	38.573	0	273.0	4	97.2	4	-1E+10	1	-1E+10	1	-1E+10	1	-1E+10	1	-1E+10	1	-1E+10	1
4902549	70	C	07/18/2022	22:00	-131.314	47.025	0	39.70	0	9.8280	0	32.2060	0	24.800	0	39.367	0	272.7	4	97.0	4	-1E+10	1	-1E+10	1	-1E+10	1	-1E+10	1	-1E+10	1	-1E+10	1
4902549	70	C	07/18/2022	22:00	-131.314	47.025	0	40.90	0	9.7300	0	32.2110	0	24.820	0	40.556	0	272.3	4	96.6	4	-1E+10	1	-1E+10	1	-1E+10	1	-1E+10	1	-1E+10	1	-1E+10	1
4902549	70	C	07/18/2022	22:00	-131.314	47.025	0	42.00	0	9.6540	0	32.2120	0	24.833	0	41.647	0	271.9	4	96.3	4	-1E+10	1	-1E+10	1	-1E+10	1	-1E+10	1	-1E+10	1	-1E+10	1
4902549	70	C	07/18/2022	22:00	-131.314	47.025	0	42.90	0	9.6250	0	32.2140	0	24.840	0	42.539	0	271.5	4	96.1	4	-1E+10	1	-1E+10	1	-1E+10	1	-1E+10	1	-1E+10	1	-1E+10	1
4902549	70	C	07/18/2022	22:00	-131.314	47.025	0	43.80	0	9.5440	0	32.2180	0	24.856	0	43.432	0	271.2	4	95.8	4	-1E+10	1	-1E+10	1	-1E+10	1	-1E+10	1	-1E+10	1	-1E+10	1
4902549	70	C	07/18/2022	22:00	-131.314	47.025	0	45.00	0	9.4610	0	32.2220	0	24.872	0	44.622	0	270.9	4	95.6	4	-1E+10	1	-1E+10	1	-1E+10	1	-1E+10	1	-1E+10	1	-1E+10	1
4902549	70	C	07/18/2022	22:00	-131.314	47.025	0	46.00	0	9.4360	0	32.2220	0	24.876	0	45.613	0	270.4	4	95.4	4	-1E+10	1	-1E+10	1	-1E+10	1	-1E+10	1	-1E+10	1	-1E+10	1
4902549	70	C	07/18/2022	22:00	-131.314	47.025	0	46.90	0	9.3910	0	32.2240	0	24.885	0	46.505	0	270.1	4	95.1	4	-1E+10	1	-1E+10	1	-1E+10	1	-1E+10	1	-1E+10	1	-1E+10	1
4902549	70	C	07/18/2022	22:00	-131.314	47.025	0	47.90	0	9.3220	0	32.2300	0	24.901	0	47.497	0	269.9	4	94.9	4	-1E+10	1	-1E+10	1	-1E+10	1	-1E+10	1	-1E+10	1	-1E+10	1
4902549	70	C	07/18/2022	22:00	-131.314	47.025	0	48.80	0	9.2720	0	32.2330	0	24.911	0	48.389	0	269.7	4	94.8	4	-1E+10	1	-1E+10	1	-1E+10	1	-1E+10	1	-1E+10	1	-1E+10	1
4902549	70	C	07/18/2022	22:00	-131.314	47.025	0	50.00	0	9.2290	0	32.2360	0	24.920	0	49.579	0	269.3	4	94.5	4	-1E+10	1	-1E+10	1	-1E+10	1	-1E+10	1	-1E+10	1	-1E+10	1
4902549	70	C	07/18/2022	22:00	-131.314	47.025	0	50.90	0	9.1950	0	32.2350	0	24.924	0	50.471	0	268.8	4	94.3	4	-1E+10	1	-1E+10	1	-1E+10	1	-1E+10	1	-1E+10	1	-1E+10	1
4902549	70	C	07/18/2022	22:00	-131.314	47.025	0	52.10	0	9.1440	0	32.2410	0	24.937	0	51.661	0	268.2	4	94.0	4	-1E+10	1	-1E+10	1	-1E+10	1	-1E+10	1	-1E+10	1	-1E+10	1
4902549	70	C	07/18/2022	22:00	-131.314	47.025	0	52.90	0	9.1160	0	32.2410	0	24.942	0	52.454	0	267.6	4	93.7	4	-1E+10	1	-1E+10	1	-1E+10	1	-1E+10	1	-1E+10	1	-1E+10	1
4902549	70	C	07/18/2022	22:00	-131.314	47.025	0	54.10	0	9.0100	0	32.2450	0	24.961	0	53.644	0	267.0	4	93.3	4	-1E+10	1	-1E+10	1	-1E+10	1	-1E+10	1	-1E+10	1	-1E+10	1
4902549	70	C	07/18/2022	22:00	-131.314	47.025	0	55.10	0	8.9400	0	32.2520	0	24.977	0	54.635	0	266.5	4	93.0	4	-1E+10	1	-1E+10	1	-1E+10	1	-1E+10	1	-1E+10	1	-1E+10	1
4902549	70	C	07/18/2022	22:00	-131.314	47.025	0	56.00	0	8.9080	0	32.2560	0	24.985	0	55.528	0	266.0	4	92.7	4	-1E+10	1	-1E+10	1	-1E+10	1	-1E+10	1	-1E+10	1	-1E+10	1
4902549	70	C	07/18/2022	22:00	-131.314	47.025	0	57.00	0	8.8920	0	32.2540	0	24.986	0	56.519	0	265.2	4	92.4	4	-1E+10	1	-1E+10	1	-1E+10	1	-1E+10	1	-1E+10	1	-1E+10	1
4902549	70	C	07/18/2022	22:00	-131.314	47.025	0	57.90	0	8.8530	0	32.2580	0	24.995	0	57.411	0	264.5	4	92.1	4	-1E+10	1	-1E+10	1	-1E+10	1	-1E+10	1	-1E+10	1	-1E+10	1
4902549	70	C	07/18/2022	22:00	-131.314	47.025	0	58.90	0	8.7640	0	32.2640	0	25.014	0	58.403	0	263.9	4	91.7	4	-1E+10	1	-1E+10	1	-1E+10	1	-1E+10	1	-1E+10	1	-1E+10	1
4902549	70	C	07/18/2022	22:00	-131.314	47.025	0	60.10	0	8.6840	0	32.2710	0	25.031	0	59.592	0	263.3	4	91.4	4	-1E+10	1	-1E+10	1	-1E+10	1	-1E+10	1	-1E+10	1	-1E+10	1
4902549	70	C	07/18/2022	22:00	-131.314	47.025	0	60.80	0	8.6800	0	32.2710	0	25.032	0	60.286	0	262.4	4	91.0	4	-1E+10	1	-1E+10	1	-1E+10	1	-1E+10	1	-1E+10	1	-1E+10	1
4902549	70	C	07/18/2022	22:00	-131.314	47.025	0	61.80	0	8.6630	0	32.2750	0	25.038	0	61.278	0	261.1	4	90.5	4	-1E+10	1	-1E+10	1	-1E+10	1	-1E+10	1	-1E+10	1	-1E+10	1
4902549	70	C	07/18/2022	22:00	-131.314	47.025	0	62.80	0	8.6030	0	32.2880	0	25.057	0	62.269	0	260.1	4	90.1	4	-1E+10	1	-1E+10	1	-1E+10	1	-1E+10	1	-1E+10	1	-1E+10	1
4902549	70	C	07/18/2022	22:00	-131.314	47.025	0	63.80	0	8.5600	0	32.2930	0	25.067	0	63.261	0	259.0	4	89.6	4	-1E+10	1	-1E+10	1	-1E+10	1	-1E+10	1	-1E+10	1	-1E+10	1
4902549	70	C	07/18/2022	22:00	-131.314	47.025	0	64.80	0	8.5030	0	32.2980	0	25.080	0	64.252	0	257.7	4	89.1	4	-1E+10	1	-1E+10	1	-1E+10	1	-1E+10	1	-1E+10	1	-1E+10	1
4902549	70	C	07/18/2022	22:00	-131.314	47.025	0	65.80	0	8.4630	0	32.3020	0	25.089	0	65.243	0	256.2	4	88.5	4	-1E+10	1	-1E+10	1	-1E+10	1	-1E+10	1	-1E+10	1	-1E+10	1
4902549	70	C	07/18/2022	22:00	-131.314	47.025	0	66.90	0	8.3430	0	32.3220	0	25.122	0	66.334	0	255.4	4	88.0	4	-1E+10	1	-1E+10	1	-1E+10	1	-1E+10	1	-1E+10	1	-1E+10	1
4902549	70	C	07/18/2022	22:00	-131.314	47.025	0	68.10	0	8.2770	0	32.3340	0	25.142	0	67.523	0	254.2	4	87.4	4	-1E+10	1	-1E+10	1	-1E+10	1	-1E+10	1	-1E+10	1	-1E+10	1
4902549	70	C	07/18/2022	22:00	-131.314	47.025	0	68.90	0	8.2220	0	32.3480	0	25.161	0	68.317	0	253.5	4	87.1	4	-1E+10	1	-1E+10	1	-1E+10	1	-1E+10	1	-1E+10	1	-1E+10	1
4902549	70	C	07/18/2022	22:00	-131.314	47.025	0	70.10	0	8.2010	0	32.3520	0	25.167	0	69.506	0	251.8	4	86.5	4	-1E+10	1	-1E+10	1	-1E+10	1	-1E+10	1	-1E+10	1	-1E+10	1
4902549	70	C	07/18/2022	22:00	-131.314	47.025	0	70.90	0	8.2130	0	32.3580	0	25.170	0	70.299	0	250.6	4	86.1	4	-1E+10	1	-1E+10	1	-1E+10	1	-1E+10	1	-1E+10	1	-1E+10	1
4902549	70	C	07/18/2022	22:00	-131.314	47.025	0	72.20	0	8.1790	0	32.3780	0	25.190	0	71.588	0	248.9	4	85.5	4	-1E+10	1	-1E+10	1	-1E+10	1	-1E+10	1	-1E+10	1	-1E+10	1
4902549	70	C	07/18/2022	22:00	-131.314	47.025	0	72.80	0	8.1360	0	32.3900	0	25.206	0	72.183	0	248.7	4	85.3	4	-1E+10	1	-1E+10	1	-1E+10	1	-1E+10	1	-1E+10	1	-1E+10	1
4902549	70	C	07/18/2022	22:00	-131.314	47.025	0	73.70	0	8.0990	0	32.4020	0	25.221	0	73.075	0	247.9	4	85.0	4	-1E+10	1	-1E+10	1	-1E+10	1	-1E+10	1	-1E+10	1	-1E+10	1
4902549	70	C	07/18/2022	22:00	-131.314	47.025	0	74.90	0	8.0590	0	32.4060	0	25.230	0	74.265	0	247.0	4	84.6	4	-1E+10	1	-1E+10	1	-1E+10	1	-1E+10	1	-1E+10	1	-1E+10	1
4902549	70	C	07/18/2022	22:00	-131.314	47.025	0	76.00	0	8.0320	0	32.4090	0	25.236	0	75.355	0	245.8	4	84.1	4	-1E+10	1	-1E+10	1	-1E+10	1	-1E+10	1	-1E+10	1	-1E+10	1
4902549	70	C	07/18/2022	22:00	-131.314	47.025	0	77.10	0	8.0010	0	32.4160	0	25.246	0	76.446	0	244.4	4	83.6	4	-1E+10	1	-1E+10	1	-1E+10	1	-1E+10	1	-1E+10	1	-1E+10	1
4902549	70	C	07/18/2022	22:00	-131.314	47.025	0	77.90	0	7.9890	0	32.4180	0	25.250	0	77.239	0	243.3	4	83.2	4	-1E+10	1	-1E+10	1	-1E+10	1	-1E+10	1	-1E+10	1	-1E+10	1
4902549	70	C	07/18/2022	22:00	-131.314	47.025	0	79.10	0	7.9270	0	32.4280	0	25.266	0	78.428	0	241.9	4	82.6	4	-1E+10	1	-1E+10	1	-1E+10	1	-1E+10	1	-1E+10	1	-1E+10	1
4902549	70	C	07/18/2022	22:00	-131.314	47.025	0	80.10	0	7.8590	0	32.4410	0	25.286	0	79.420	0	240.7	4	82.1	4	-1E+10	1	-1E+10	1	-1E+10	1	-1E+10	1	-1E+10	1	-1E+10	1
4902549	70	C	07/18/2022	22:00	-131.314	47.025	0	81.00	0	7.8060	0	32.4560	0	25.306	0	80.312	0	239.3	4	81.5	4	-1E+10	1	-1E+10	1	-1E+10	1	-1E+10	1	-1E+10	1	-1E+10	1
4902549	70	C	07/18/2022	22:00	-131.314	47.025	0	82.00	0	7.7910	0	32.4600	0	25.311	0	81.303	0	237.1	4	80.7	4	-1E+10	1	-1E+10	1	-1E+10	1	-1E+10	1	-1E+10	1	-1E+10	1
4902549	70	C	07/18/2022	22:00	-131.314	47.025	0	82.90	0	7.7660	0	32.4670	0	25.320	0	82.195	0	234.3	4	79.8	4	-1E+10	1	-1E+10	1	-1E+10	1	-1E+10	1	-1E+10	1	-1E+10	1
4902549	70	C	07/18/2022	22:00	-131.314	47.025	0	83.80	0	7.7300	0	32.4880	0	25.341	0	83.087	0	237.4	4	80.8	4	-1E+10	1	-1E+10	1	-1E+10	1	-1E+10	1	-1E+10	1	-1E+10	1
4902549	70	C	07/18/2022	22:00	-131.314	47.025	0	84.80	0	7.7000	0	32.5120	0	25.365	0	84.079	0	234.7	4	79.8	4	-1E+10	1	-1E+10	1	-1E+10	1	-1E+10	1	-1E+10	1	-1E+10	1
4902549	70	C	07/18/2022	22:00	-131.314	47.025	0	86.00	0	7.6570	0	32.5670	0	25.414	0	85.268	0	232.3	4	78.9	4	-1E+10	1	-1E+10	1	-1E+10	1	-1E+10	1	-1E+10	1	-1E+10	1
4902549	70	C	07/18/2022	22:00	-131.314	47.025	0	87.20	0	7.6680	0	32.5880	0	25.429	0	86.458	0	229.5	4	78.0	4	-1E+10	1	-1E+10	1	-1E+10	1	-1E+10	1	-1E+10	1	-1E+10	1
4902549	70	C	07/18/2022	22:00	-131.314	47.025	0	88.00	0	7.6680	0	32.5890	0	25.430	0	87.251	0	227.0	4	77.2	4	-1E+10	1	-1E+10	1	-1E+10	1	-1E+10	1	-1E+10	1	-1E+10	1
4902549	70	C	07/18/2022	22:00	-131.314	47.025	0	89.20	0	7.6400	0	32.6240	0	25.461	0	88.440	0	223.2	4	75.8	4	-1E+10	1	-1E+10	1	-1E+10	1	-1E+10	1	-1E+10	1	-1E+10	1
4902549	70	C	07/18/2022	22:00	-131.314	47.025	0	89.90	0	7.6280	0	32.6580	0	25.489	0	89.134	0	221.3	4	75.2	4	-1E+10	1	-1E+10	1	-1E+10	1	-1E+10	1	-1E+10	1	-1E+10	1
4902549	70	C	07/18/2022	22:00	-131.314	47.025	0	90.80	0	7.6080	0	32.6800	0	25.510	0	90.026	0	218.4	4	74.2	4	-1E+10	1	-1E+10	1	-1E+10	1	-1E+10	1	-1E+10	1	-1E+10	1
4902549	70	C	07/18/2022	22:00	-131.314	47.025	0	91.80	0	7.5750	0	32.7280	0	25.552	0	91.018	0	216.2	4	73.4	4	-1E+10	1	-1E+10	1	-1E+10	1	-1E+10	1	-1E+10	1	-1E+10	1
4902549	70	C	07/18/2022	22:00	-131.314	47.025	0	92.90	0	7.5070	0	32.8110	0	25.627	0	92.108	0	214.7	4	72.8	4	-1E+10	1	-1E+10	1	-1E+10	1	-1E+10	1	-1E+10	1	-1E+10	1
4902549	70	C	07/18/2022	22:00	-131.314	47.025	0	94.10	0	7.5040	0	32.8300	0	25.642	0	93.297	0	213.3	4	72.4	4	-1E+10	1	-1E+10	1	-1E+10	1	-1E+10	1	-1E+10	1	-1E+10	1
4902549	70	C	07/18/2022	22:00	-131.314	47.025	0	94.90	0	7.5060	0	32.8360	0	25.647	0	94.090	0	211.9	4	71.9	4	-1E+10	1	-1E+10	1	-1E+10	1	-1E+10	1	-1E+10	1	-1E+10	1
4902549	70	C	07/18/2022	22:00	-131.314	47.025	0	95.70	0	7.5050	0	32.8380	0	25.648	0	94.883	0	210.5	4	71.4	4	-1E+10	1	-1E+10	1	-1E+10	1	-1E+10	1	-1E+10	1	-1E+10	1
4902549	70	C	07/18/2022	22:00	-131.314	47.025	0	96.90	0	7.5030	0	32.8420	0	25.652	0	96.073	0	208.2	4	70.6	4	-1E+10	1	-1E+10	1	-1E+10	1	-1E+10	1	-1E+10	1	-1E+10	1
4902549	70	C	07/18/2022	22:00	-131.314	47.025	0	97.80	0	7.4900	0	32.8680	0	25.674	0	96.965	0	206.2	4	70.0	4	-1E+10	1	-1E+10	1	-1E+10	1	-1E+10	1	-1E+10	1	-1E+10	1
4902549	70	C	07/18/2022	22:00	-131.314	47.025	0	98.80	0	7.4100	0	32.9180	0	25.724	0	97.956	0	204.6	4	69.3	4	-1E+10	1	-1E+10	1	-1E+10	1	-1E+10	1	-1E+10	1	-1E+10	1
4902549	70	C	07/18/2022	22:00	-131.314	47.025	0	99.80	0	7.3310	0	32.9530	0	25.763	0	98.947	0	202.8	4	68.6	4	-1E+10	1	-1E+10	1	-1E+10	1	-1E+10	1	-1E+10	1	-1E+10	1
4902549	70	C	07/18/2022	22:00	-131.314	47.025	0	100.80	0	7.3380	0	32.9710	0	25.776	0	99.939	0	200.6	4	67.9	4	-1E+10	1	-1E+10	1	-1E+10	1	-1E+10	1	-1E+10	1	-1E+10	1
4902549	70	C	07/18/2022	22:00	-131.314	47.025	0	101.80	0	7.3740	0	33.0190	0	25.809	0	100.930	0	198.7	4	67.3	4	-1E+10	1	-1E+10	1	-1E+10	1	-1E+10	1	-1E+10	1	-1E+10	1
4902549	70	C	07/18/2022	22:00	-131.314	47.025	0	102.80	0	7.3730	0	33.0430	0	25.828	0	101.921	0	197.1	4	66.8	4	-1E+10	1	-1E+10	1	-1E+10	1	-1E+10	1	-1E+10	1	-1E+10	1
4902549	70	C	07/18/2022	22:00	-131.314	47.025	0	103.90	0	7.3780	0	33.0670	0	25.846	0	103.011	0	195.6	4	66.3	4	-1E+10	1	-1E+10	1	-1E+10	1	-1E+10	1	-1E+10	1	-1E+10	1
4902549	70	C	07/18/2022	22:00	-131.314	47.025	0	104.90	0	7.3640	0	33.0840	0	25.861	0	104.003	0	194.0	4	65.7	4	-1E+10	1	-1E+10	1	-1E+10	1	-1E+10	1	-1E+10	1	-1E+10	1
4902549	70	C	07/18/2022	22:00	-131.314	47.025	0	106.00	0	7.3610	0	33.0930	0	25.869	0	105.093	0	192.2	4	65.1	4	-1E+10	1	-1E+10	1	-1E+10	1	-1E+10	1	-1E+10	1	-1E+10	1
4902549	70	C	07/18/2022	22:00	-131.314	47.025	0	106.90	0	7.3630	0	33.0980	0	25.873	0	105.985	0	190.3	4	64.5	4	-1E+10	1	-1E+10	1	-1E+10	1	-1E+10	1	-1E+10	1	-1E+10	1
4902549	70	C	07/18/2022	22:00	-131.314	47.025	0	107.90	0	7.3860	0	33.1320	0	25.896	0	106.976	0	188.5	4	63.9	4	-1E+10	1	-1E+10	1	-1E+10	1	-1E+10	1	-1E+10	1	-1E+10	1
4902549	70	C	07/18/2022	22:00	-131.314	47.025	0	108.90	0	7.4010	0	33.1550	0	25.912	0	107.967	0	187.2	4	63.5	4	-1E+10	1	-1E+10	1	-1E+10	1	-1E+10	1	-1E+10	1	-1E+10	1
4902549	70	C	07/18/2022	22:00	-131.314	47.025	0	110.00	0	7.3960	0	33.1780	0	25.931	0	109.058	0	186.1	4	63.2	4	-1E+10	1	-1E+10	1	-1E+10	1	-1E+10	1	-1E+10	1	-1E+10	1
4902549	70	C	07/18/2022	22:00	-131.314	47.025	0	110.70	0	7.3840	0	33.1940	0	25.945	0	109.751	0	185.4	4	62.9	4	-1E+10	1	-1E+10	1	-1E+10	1	-1E+10	1	-1E+10	1	-1E+10	1
4902549	70	C	07/18/2022	22:00	-131.314	47.025	0	111.90	0	7.3630	0	33.2210	0	25.969	0	110.941	0	184.2	4	62.5	4	-1E+10	1	-1E+10	1	-1E+10	1	-1E+10	1	-1E+10	1	-1E+10	1
4902549	70	C	07/18/2022	22:00	-131.314	47.025	0	113.10	0	7.3620	0	33.2380	0	25.983	0	112.130	0	182.6	4	61.9	4	-1E+10	1	-1E+10	1	-1E+10	1	-1E+10	1	-1E+10	1	-1E+10	1
4902549	70	C	07/18/2022	22:00	-131.314	47.025	0	113.90	0	7.3610	0	33.2450	0	25.989	0	112.923	0	181.4	4	61.5	4	-1E+10	1	-1E+10	1	-1E+10	1	-1E+10	1	-1E+10	1	-1E+10	1
4902549	70	C	07/18/2022	22:00	-131.314	47.025	0	114.70	0	7.3600	0	33.2590	0	26.000	0	113.716	0	180.2	4	61.1	4	-1E+10	1	-1E+10	1	-1E+10	1	-1E+10	1	-1E+10	1	-1E+10	1
4902549	70	C	07/18/2022	22:00	-131.314	47.025	0	115.60	0	7.3640	0	33.2900	0	26.024	0	114.608	0	179.2	4	60.8	4	-1E+10	1	-1E+10	1	-1E+10	1	-1E+10	1	-1E+10	1	-1E+10	1
4902549	70	C	07/18/2022	22:00	-131.314	47.025	0	116.90	0	7.3630	0	33.3160	0	26.044	0	115.897	0	177.8	4	60.4	4	-1E+10	1	-1E+10	1	-1E+10	1	-1E+10	1	-1E+10	1	-1E+10	1
4902549	70	C	07/18/2022	22:00	-131.314	47.025	0	118.20	0	7.3570	0	33.3300	0	26.056	0	117.185	0	176.4	4	59.9	4	-1E+10	1	-1E+10	1	-1E+10	1	-1E+10	1	-1E+10	1	-1E+10	1
4902549	70	C	07/18/2022	22:00	-131.314	47.025	0	119.10	0	7.3580	0	33.3660	0	26.084	0	118.077	0	175.5	4	59.6	4	-1E+10	1	-1E+10	1	-1E+10	1	-1E+10	1	-1E+10	1	-1E+10	1
4902549	70	C	07/18/2022	22:00	-131.314	47.025	0	120.00	0	7.3590	0	33.3790	0	26.094	0	118.969	0	174.6	4	59.3	4	-1E+10	1	-1E+10	1	-1E+10	1	-1E+10	1	-1E+10	1	-1E+10	1
4902549	70	C	07/18/2022	22:00	-131.314	47.025	0	120.80	0	7.3570	0	33.3930	0	26.106	0	119.762	0	173.8	4	59.0	4	-1E+10	1	-1E+10	1	-1E+10	1	-1E+10	1	-1E+10	1	-1E+10	1
4902549	70	C	07/18/2022	22:00	-131.314	47.025	0	121.70	0	7.3590	0	33.3990	0	26.110	0	120.654	0	173.0	4	58.7	4	-1E+10	1	-1E+10	1	-1E+10	1	-1E+10	1	-1E+10	1	-1E+10	1
4902549	70	C	07/18/2022	22:00	-131.314	47.025	0	122.70	0	7.3600	0	33.4120	0	26.120	0	121.645	0	172.1	4	58.5	4	-1E+10	1	-1E+10	1	-1E+10	1	-1E+10	1	-1E+10	1	-1E+10	1
4902549	70	C	07/18/2022	22:00	-131.314	47.025	0	123.60	0	7.3580	0	33.4240	0	26.130	0	122.537	0	171.4	4	58.2	4	-1E+10	1	-1E+10	1	-1E+10	1	-1E+10	1	-1E+10	1	-1E+10	1
4902549	70	C	07/18/2022	22:00	-131.314	47.025	0	124.90	0	7.3570	0	33.4480	0	26.149	0	123.826	0	170.2	4	57.8	4	-1E+10	1	-1E+10	1	-1E+10	1	-1E+10	1	-1E+10	1	-1E+10	1
4902549	70	C	07/18/2022	22:00	-131.314	47.025	0	126.40	0	7.3500	0	33.4890	0	26.182	0	125.312	0	169.3	4	57.5	4	-1E+10	1	-1E+10	1	-1E+10	1	-1E+10	1	-1E+10	1	-1E+10	1
4902549	70	C	07/18/2022	22:00	-131.314	47.025	0	127.30	0	7.3470	0	33.5110	0	26.200	0	126.204	0	168.7	4	57.3	4	-1E+10	1	-1E+10	1	-1E+10	1	-1E+10	1	-1E+10	1	-1E+10	1
4902549	70	C	07/18/2022	22:00	-131.314	47.025	0	128.30	0	7.3330	0	33.5510	0	26.233	0	127.195	0	168.2	4	57.1	4	-1E+10	1	-1E+10	1	-1E+10	1	-1E+10	1	-1E+10	1	-1E+10	1
4902549	70	C	07/18/2022	22:00	-131.314	47.025	0	129.30	0	7.3330	0	33.5540	0	26.236	0	128.186	0	167.8	4	57.0	4	-1E+10	1	-1E+10	1	-1E+10	1	-1E+10	1	-1E+10	1	-1E+10	1
4902549	70	C	07/18/2022	22:00	-131.314	47.025	0	130.30	0	7.3320	0	33.5560	0	26.238	0	129.177	0	167.4	4	56.9	4	-1E+10	1	-1E+10	1	-1E+10	1	-1E+10	1	-1E+10	1	-1E+10	1
4902549	70	C	07/18/2022	22:00	-131.314	47.025	0	131.30	0	7.3290	0	33.5590	0	26.240	0	130.168	0	166.9	4	56.7	4	-1E+10	1	-1E+10	1	-1E+10	1	-1E+10	1	-1E+10	1	-1E+10	1
4902549	70	C	07/18/2022	22:00	-131.314	47.025	0	132.30	0	7.3170	0	33.5760	0	26.255	0	131.160	0	166.5	4	56.5	4	-1E+10	1	-1E+10	1	-1E+10	1	-1E+10	1	-1E+10	1	-1E+10	1
4902549	70	C	07/18/2022	22:00	-131.314	47.025	0	133.30	0	7.3150	0	33.5770	0	26.256	0	132.151	0	166.1	4	56.4	4	-1E+10	1	-1E+10	1	-1E+10	1	-1E+10	1	-1E+10	1	-1E+10	1
4902549	70	C	07/18/2022	22:00	-131.314	47.025	0	134.30	0	7.3150	0	33.5770	0	26.256	0	133.142	0	165.6	4	56.2	4	-1E+10	1	-1E+10	1	-1E+10	1	-1E+10	1	-1E+10	1	-1E+10	1
4902549	70	C	07/18/2022	22:00	-131.314	47.025	0	135.30	0	7.2980	0	33.5990	0	26.276	0	134.133	0	165.0	4	56.0	4	-1E+10	1	-1E+10	1	-1E+10	1	-1E+10	1	-1E+10	1	-1E+10	1
4902549	70	C	07/18/2022	22:00	-131.314	47.025	0	136.30	0	7.2900	0	33.6150	0	26.290	0	135.124	0	164.6	4	55.9	4	-1E+10	1	-1E+10	1	-1E+10	1	-1E+10	1	-1E+10	1	-1E+10	1
4902549	70	C	07/18/2022	22:00	-131.314	47.025	0	137.40	0	7.2930	0	33.6170	0	26.291	0	136.214	0	164.4	4	55.8	4	-1E+10	1	-1E+10	1	-1E+10	1	-1E+10	1	-1E+10	1	-1E+10	1
4902549	70	C	07/18/2022	22:00	-131.314	47.025	0	138.40	0	7.2890	0	33.6210	0	26.295	0	137.205	0	163.9	4	55.7	4	-1E+10	1	-1E+10	1	-1E+10	1	-1E+10	1	-1E+10	1	-1E+10	1
4902549	70	C	07/18/2022	22:00	-131.314	47.025	0	139.40	0	7.2880	0	33.6230	0	26.296	0	138.196	0	163.6	4	55.6	4	-1E+10	1	-1E+10	1	-1E+10	1	-1E+10	1	-1E+10	1	-1E+10	1
4902549	70	C	07/18/2022	22:00	-131.314	47.025	0	140.40	0	7.2860	0	33.6250	0	26.298	0	139.187	0	163.3	4	55.5	4	-1E+10	1	-1E+10	1	-1E+10	1	-1E+10	1	-1E+10	1	-1E+10	1
4902549	70	C	07/18/2022	22:00	-131.314	47.025	0	141.40	0	7.2780	0	33.6340	0	26.307	0	140.178	0	162.9	4	55.3	4	-1E+10	1	-1E+10	1	-1E+10	1	-1E+10	1	-1E+10	1	-1E+10	1
4902549	70	C	07/18/2022	22:00	-131.314	47.025	0	142.50	0	7.2700	0	33.6450	0	26.316	0	141.268	0	162.6	4	55.2	4	-1E+10	1	-1E+10	1	-1E+10	1	-1E+10	1	-1E+10	1	-1E+10	1
4902549	70	C	07/18/2022	22:00	-131.314	47.025	0	143.50	0	7.2630	0	33.6480	0	26.320	0	142.259	0	162.3	4	55.1	4	-1E+10	1	-1E+10	1	-1E+10	1	-1E+10	1	-1E+10	1	-1E+10	1
4902549	70	C	07/18/2022	22:00	-131.314	47.025	0	144.50	0	7.2630	0	33.6510	0	26.322	0	143.250	0	161.9	4	55.0	4	-1E+10	1	-1E+10	1	-1E+10	1	-1E+10	1	-1E+10	1	-1E+10	1
4902549	70	C	07/18/2022	22:00	-131.314	47.025	0	145.60	0	7.2550	0	33.6550	0	26.326	0	144.340	0	161.5	4	54.8	4	-1E+10	1	-1E+10	1	-1E+10	1	-1E+10	1	-1E+10	1	-1E+10	1
4902549	70	C	07/18/2022	22:00	-131.314	47.025	0	146.60	0	7.2460	0	33.6650	0	26.335	0	145.331	0	161.2	4	54.7	4	-1E+10	1	-1E+10	1	-1E+10	1	-1E+10	1	-1E+10	1	-1E+10	1
4902549	70	C	07/18/2022	22:00	-131.314	47.025	0	147.60	0	7.2370	0	33.6680	0	26.339	0	146.322	0	160.6	4	54.5	4	-1E+10	1	-1E+10	1	-1E+10	1	-1E+10	1	-1E+10	1	-1E+10	1
4902549	70	C	07/18/2022	22:00	-131.314	47.025	0	148.70	0	7.2210	0	33.6770	0	26.348	0	147.412	0	160.2	4	54.3	4	-1E+10	1	-1E+10	1	-1E+10	1	-1E+10	1	-1E+10	1	-1E+10	1
4902549	70	C	07/18/2022	22:00	-131.314	47.025	0	149.70	0	7.2100	0	33.6930	0	26.363	0	148.403	0	160.0	4	54.3	4	-1E+10	1	-1E+10	1	-1E+10	1	-1E+10	1	-1E+10	1	-1E+10	1
4902549	70	C	07/18/2022	22:00	-131.314	47.025	0	150.70	0	7.2090	0	33.7070	0	26.374	0	149.394	0	160.1	4	54.3	4	-1E+10	1	-1E+10	1	-1E+10	1	-1E+10	1	-1E+10	1	-1E+10	1
4902549	70	C	07/18/2022	22:00	-131.314	47.025	0	151.70	0	7.1700	0	33.7150	0	26.385	0	150.385	0	160.2	4	54.3	4	-1E+10	1	-1E+10	1	-1E+10	1	-1E+10	1	-1E+10	1	-1E+10	1
4902549	70	C	07/18/2022	22:00	-131.314	47.025	0	152.70	0	7.1690	0	33.7130	0	26.384	0	151.376	0	160.0	4	54.2	4	-1E+10	1	-1E+10	1	-1E+10	1	-1E+10	1	-1E+10	1	-1E+10	1
4902549	70	C	07/18/2022	22:00	-131.314	47.025	0	153.80	0	7.1690	0	33.7140	0	26.385	0	152.466	0	159.7	4	54.1	4	-1E+10	1	-1E+10	1	-1E+10	1	-1E+10	1	-1E+10	1	-1E+10	1
4902549	70	C	07/18/2022	22:00	-131.314	47.025	0	154.90	0	7.1680	0	33.7140	0	26.385	0	153.556	0	159.4	4	54.0	4	-1E+10	1	-1E+10	1	-1E+10	1	-1E+10	1	-1E+10	1	-1E+10	1
4902549	70	C	07/18/2022	22:00	-131.314	47.025	0	156.10	0	7.1620	0	33.7170	0	26.388	0	154.745	0	159.1	4	53.9	4	-1E+10	1	-1E+10	1	-1E+10	1	-1E+10	1	-1E+10	1	-1E+10	1
4902549	70	C	07/18/2022	22:00	-131.314	47.025	0	156.90	0	7.1590	0	33.7170	0	26.389	0	155.538	0	158.9	4	53.8	4	-1E+10	1	-1E+10	1	-1E+10	1	-1E+10	1	-1E+10	1	-1E+10	1
4902549	70	C	07/18/2022	22:00	-131.314	47.025	0	158.00	0	7.1440	0	33.7210	0	26.394	0	156.628	0	158.2	4	53.6	4	-1E+10	1	-1E+10	1	-1E+10	1	-1E+10	1	-1E+10	1	-1E+10	1
4902549	70	C	07/18/2022	22:00	-131.314	47.025	0	159.20	0	7.1090	0	33.7380	0	26.412	0	157.817	0	157.6	4	53.4	4	-1E+10	1	-1E+10	1	-1E+10	1	-1E+10	1	-1E+10	1	-1E+10	1
4902549	70	C	07/18/2022	22:00	-131.314	47.025	0	159.90	0	7.0860	0	33.7470	0	26.422	0	158.511	0	157.5	4	53.3	4	-1E+10	1	-1E+10	1	-1E+10	1	-1E+10	1	-1E+10	1	-1E+10	1
4902549	70	C	07/18/2022	22:00	-131.314	47.025	0	160.80	0	7.0700	0	33.7530	0	26.429	0	159.403	0	157.4	4	53.2	4	-1E+10	1	-1E+10	1	-1E+10	1	-1E+10	1	-1E+10	1	-1E+10	1
4902549	70	C	07/18/2022	22:00	-131.314	47.025	0	161.90	0	7.0580	0	33.7560	0	26.433	0	160.493	0	157.6	4	53.3	4	-1E+10	1	-1E+10	1	-1E+10	1	-1E+10	1	-1E+10	1	-1E+10	1
4902549	70	C	07/18/2022	22:00	-131.314	47.025	0	163.20	0	7.0420	0	33.7560	0	26.435	0	161.781	0	157.7	4	53.3	4	-1E+10	1	-1E+10	1	-1E+10	1	-1E+10	1	-1E+10	1	-1E+10	1
4902549	70	C	07/18/2022	22:00	-131.314	47.025	0	164.00	0	7.0280	0	33.7580	0	26.439	0	162.574	0	157.6	4	53.2	4	-1E+10	1	-1E+10	1	-1E+10	1	-1E+10	1	-1E+10	1	-1E+10	1
4902549	70	C	07/18/2022	22:00	-131.314	47.025	0	164.80	0	7.0200	0	33.7580	0	26.440	0	163.367	0	157.4	4	53.2	4	-1E+10	1	-1E+10	1	-1E+10	1	-1E+10	1	-1E+10	1	-1E+10	1
4902549	70	C	07/18/2022	22:00	-131.314	47.025	0	165.60	0	7.0150	0	33.7590	0	26.441	0	164.159	0	157.2	4	53.1	4	-1E+10	1	-1E+10	1	-1E+10	1	-1E+10	1	-1E+10	1	-1E+10	1
4902549	70	C	07/18/2022	22:00	-131.314	47.025	0	166.90	0	7.0040	0	33.7590	0	26.443	0	165.447	0	156.7	4	52.9	4	-1E+10	1	-1E+10	1	-1E+10	1	-1E+10	1	-1E+10	1	-1E+10	1
4902549	70	C	07/18/2022	22:00	-131.314	47.025	0	168.10	0	6.9970	0	33.7600	0	26.445	0	166.636	0	156.0	4	52.7	4	-1E+10	1	-1E+10	1	-1E+10	1	-1E+10	1	-1E+10	1	-1E+10	1
4902549	70	C	07/18/2022	22:00	-131.314	47.025	0	168.90	0	6.9920	0	33.7590	0	26.445	0	167.429	0	155.4	4	52.5	4	-1E+10	1	-1E+10	1	-1E+10	1	-1E+10	1	-1E+10	1	-1E+10	1
4902549	70	C	07/18/2022	22:00	-131.314	47.025	0	169.80	0	6.9870	0	33.7600	0	26.446	0	168.321	0	154.7	4	52.2	4	-1E+10	1	-1E+10	1	-1E+10	1	-1E+10	1	-1E+10	1	-1E+10	1
4902549	70	C	07/18/2022	22:00	-131.314	47.025	0	171.00	0	6.9570	0	33.7650	0	26.454	0	169.510	0	153.3	4	51.7	4	-1E+10	1	-1E+10	1	-1E+10	1	-1E+10	1	-1E+10	1	-1E+10	1
4902549	70	C	07/18/2022	22:00	-131.314	47.025	0	172.20	0	6.9470	0	33.7670	0	26.457	0	170.699	0	151.7	4	51.2	4	-1E+10	1	-1E+10	1	-1E+10	1	-1E+10	1	-1E+10	1	-1E+10	1
4902549	70	C	07/18/2022	22:00	-131.314	47.025	0	173.00	0	6.9450	0	33.7690	0	26.459	0	171.492	0	150.4	4	50.7	4	-1E+10	1	-1E+10	1	-1E+10	1	-1E+10	1	-1E+10	1	-1E+10	1
4902549	70	C	07/18/2022	22:00	-131.314	47.025	0	173.90	0	6.9290	0	33.7720	0	26.463	0	172.384	0	149.2	4	50.3	4	-1E+10	1	-1E+10	1	-1E+10	1	-1E+10	1	-1E+10	1	-1E+10	1
4902549	70	C	07/18/2022	22:00	-131.314	47.025	0	174.70	0	6.8990	0	33.7730	0	26.468	0	173.176	0	148.2	4	49.9	4	-1E+10	1	-1E+10	1	-1E+10	1	-1E+10	1	-1E+10	1	-1E+10	1
4902549	70	C	07/18/2022	22:00	-131.314	47.025	0	176.00	0	6.8890	0	33.7760	0	26.472	0	174.464	0	146.0	4	49.2	4	-1E+10	1	-1E+10	1	-1E+10	1	-1E+10	1	-1E+10	1	-1E+10	1
4902549	70	C	07/18/2022	22:00	-131.314	47.025	0	177.30	0	6.8880	0	33.7810	0	26.476	0	175.752	0	143.4	4	48.3	4	-1E+10	1	-1E+10	1	-1E+10	1	-1E+10	1	-1E+10	1	-1E+10	1
4902549	70	C	07/18/2022	22:00	-131.314	47.025	0	178.10	0	6.9170	0	33.7820	0	26.473	0	176.545	0	142.0	4	47.9	4	-1E+10	1	-1E+10	1	-1E+10	1	-1E+10	1	-1E+10	1	-1E+10	1
4902549	70	C	07/18/2022	22:00	-131.314	47.025	0	179.00	0	6.9210	0	33.7990	0	26.486	0	177.437	0	140.8	4	47.5	4	-1E+10	1	-1E+10	1	-1E+10	1	-1E+10	1	-1E+10	1	-1E+10	1
4902549	70	C	07/18/2022	22:00	-131.314	47.025	0	179.80	0	6.9020	0	33.7980	0	26.488	0	178.230	0	139.8	4	47.1	4	-1E+10	1	-1E+10	1	-1E+10	1	-1E+10	1	-1E+10	1	-1E+10	1
4902549	70	C	07/18/2022	22:00	-131.314	47.025	0	180.70	0	6.9260	0	33.8090	0	26.493	0	179.121	0	139.3	4	47.0	4	-1E+10	1	-1E+10	1	-1E+10	1	-1E+10	1	-1E+10	1	-1E+10	1
4902549	70	C	07/18/2022	22:00	-131.314	47.025	0	181.60	0	6.9240	0	33.8110	0	26.495	0	180.013	0	139.0	4	46.9	4	-1E+10	1	-1E+10	1	-1E+10	1	-1E+10	1	-1E+10	1	-1E+10	1
4902549	70	C	07/18/2022	22:00	-131.314	47.025	0	182.90	0	6.8940	0	33.8120	0	26.500	0	181.301	0	138.2	4	46.6	4	-1E+10	1	-1E+10	1	-1E+10	1	-1E+10	1	-1E+10	1	-1E+10	1
4902549	70	C	07/18/2022	22:00	-131.314	47.025	0	184.30	0	6.8710	0	33.8110	0	26.502	0	182.688	0	137.2	4	46.2	4	-1E+10	1	-1E+10	1	-1E+10	1	-1E+10	1	-1E+10	1	-1E+10	1
4902549	70	C	07/18/2022	22:00	-131.314	47.025	0	185.20	0	6.8710	0	33.8140	0	26.505	0	183.580	0	136.5	4	46.0	4	-1E+10	1	-1E+10	1	-1E+10	1	-1E+10	1	-1E+10	1	-1E+10	1
4902549	70	C	07/18/2022	22:00	-131.314	47.025	0	186.20	0	6.8690	0	33.8150	0	26.506	0	184.571	0	135.9	4	45.8	4	-1E+10	1	-1E+10	1	-1E+10	1	-1E+10	1	-1E+10	1	-1E+10	1
4902549	70	C	07/18/2022	22:00	-131.314	47.025	0	187.10	0	6.8620	0	33.8170	0	26.508	0	185.463	0	135.2	4	45.5	4	-1E+10	1	-1E+10	1	-1E+10	1	-1E+10	1	-1E+10	1	-1E+10	1
4902549	70	C	07/18/2022	22:00	-131.314	47.025	0	188.00	0	6.8470	0	33.8180	0	26.511	0	186.354	0	134.4	4	45.2	4	-1E+10	1	-1E+10	1	-1E+10	1	-1E+10	1	-1E+10	1	-1E+10	1
4902549	70	C	07/18/2022	22:00	-131.314	47.025	0	189.00	0	6.7790	0	33.8150	0	26.518	0	187.345	0	133.4	4	44.8	4	-1E+10	1	-1E+10	1	-1E+10	1	-1E+10	1	-1E+10	1	-1E+10	1
4902549	70	C	07/18/2022	22:00	-131.314	47.025	0	189.90	0	6.7720	0	33.8200	0	26.523	0	188.237	0	132.2	4	44.4	4	-1E+10	1	-1E+10	1	-1E+10	1	-1E+10	1	-1E+10	1	-1E+10	1
4902549	70	C	07/18/2022	22:00	-131.314	47.025	0	190.90	0	6.7810	0	33.8230	0	26.524	0	189.228	0	131.1	4	44.1	4	-1E+10	1	-1E+10	1	-1E+10	1	-1E+10	1	-1E+10	1	-1E+10	1
4902549	70	C	07/18/2022	22:00	-131.314	47.025	0	191.80	0	6.7910	0	33.8240	0	26.523	0	190.119	0	130.2	4	43.8	4	-1E+10	1	-1E+10	1	-1E+10	1	-1E+10	1	-1E+10	1	-1E+10	1
4902549	70	C	07/18/2022	22:00	-131.314	47.025	0	192.70	0	6.7750	0	33.8320	0	26.532	0	191.011	0	129.6	4	43.6	4	-1E+10	1	-1E+10	1	-1E+10	1	-1E+10	1	-1E+10	1	-1E+10	1
4902549	70	C	07/18/2022	22:00	-131.314	47.025	0	193.70	0	6.7680	0	33.8310	0	26.532	0	192.002	0	128.9	4	43.3	4	-1E+10	1	-1E+10	1	-1E+10	1	-1E+10	1	-1E+10	1	-1E+10	1
4902549	70	C	07/18/2022	22:00	-131.314	47.025	0	194.60	0	6.7490	0	33.8330	0	26.536	0	192.893	0	128.2	4	43.1	4	-1E+10	1	-1E+10	1	-1E+10	1	-1E+10	1	-1E+10	1	-1E+10	1
4902549	70	C	07/18/2022	22:00	-131.314	47.025	0	195.60	0	6.7430	0	33.8340	0	26.538	0	193.884	0	127.6	4	42.8	4	-1E+10	1	-1E+10	1	-1E+10	1	-1E+10	1	-1E+10	1	-1E+10	1
4902549	70	C	07/18/2022	22:00	-131.314	47.025	0	196.50	0	6.7370	0	33.8350	0	26.539	0	194.776	0	126.8	4	42.6	4	-1E+10	1	-1E+10	1	-1E+10	1	-1E+10	1	-1E+10	1	-1E+10	1
4902549	70	C	07/18/2022	22:00	-131.314	47.025	0	197.90	0	6.7240	0	33.8370	0	26.543	0	196.163	0	125.5	4	42.2	4	-1E+10	1	-1E+10	1	-1E+10	1	-1E+10	1	-1E+10	1	-1E+10	1
4902549	70	C	07/18/2022	22:00	-131.314	47.025	0	199.40	0	6.7130	0	33.8370	0	26.544	0	197.649	0	124.1	4	41.7	4	-1E+10	1	-1E+10	1	-1E+10	1	-1E+10	1	-1E+10	1	-1E+10	1
4902549	70	C	07/18/2022	22:00	-131.314	47.025	0	200.40	0	6.6840	0	33.8380	0	26.549	0	198.640	0	123.1	4	41.3	4	-1E+10	1	-1E+10	1	-1E+10	1	-1E+10	1	-1E+10	1	-1E+10	1
4902549	70	C	07/18/2022	22:00	-131.314	47.025	0	201.40	0	6.6720	0	33.8440	0	26.555	0	199.630	0	122.2	4	41.0	4	-1E+10	1	-1E+10	1	-1E+10	1	-1E+10	1	-1E+10	1	-1E+10	1
4902549	70	C	07/18/2022	22:00	-131.314	47.025	0	202.30	0	6.6650	0	33.8480	0	26.559	0	200.522	0	121.7	4	40.8	4	-1E+10	1	-1E+10	1	-1E+10	1	-1E+10	1	-1E+10	1	-1E+10	1
4902549	70	C	07/18/2022	22:00	-131.314	47.025	0	203.30	0	6.6630	0	33.8540	0	26.564	0	201.513	0	121.2	4	40.7	4	-1E+10	1	-1E+10	1	-1E+10	1	-1E+10	1	-1E+10	1	-1E+10	1
4902549	70	C	07/18/2022	22:00	-131.314	47.025	0	204.30	0	6.6530	0	33.8540	0	26.565	0	202.504	0	120.8	4	40.5	4	-1E+10	1	-1E+10	1	-1E+10	1	-1E+10	1	-1E+10	1	-1E+10	1
4902549	70	C	07/18/2022	22:00	-131.314	47.025	0	205.30	0	6.6310	0	33.8550	0	26.569	0	203.494	0	120.5	4	40.4	4	-1E+10	1	-1E+10	1	-1E+10	1	-1E+10	1	-1E+10	1	-1E+10	1
4902549	70	C	07/18/2022	22:00	-131.314	47.025	0	206.30	0	6.6090	0	33.8620	0	26.578	0	204.485	0	120.2	4	40.3	4	-1E+10	1	-1E+10	1	-1E+10	1	-1E+10	1	-1E+10	1	-1E+10	1
4902549	70	C	07/18/2022	22:00	-131.314	47.025	0	207.30	0	6.5870	0	33.8580	0	26.577	0	205.476	0	119.9	4	40.1	4	-1E+10	1	-1E+10	1	-1E+10	1	-1E+10	1	-1E+10	1	-1E+10	1
4902549	70	C	07/18/2022	22:00	-131.314	47.025	0	208.30	0	6.6010	0	33.8610	0	26.578	0	206.466	0	119.6	4	40.1	4	-1E+10	1	-1E+10	1	-1E+10	1	-1E+10	1	-1E+10	1	-1E+10	1
4902549	70	C	07/18/2022	22:00	-131.314	47.025	0	209.30	0	6.5870	0	33.8610	0	26.580	0	207.457	0	119.4	4	40.0	4	-1E+10	1	-1E+10	1	-1E+10	1	-1E+10	1	-1E+10	1	-1E+10	1
4902549	70	C	07/18/2022	22:00	-131.314	47.025	0	210.20	0	6.5670	0	33.8600	0	26.582	0	208.349	0	119.3	4	39.9	4	-1E+10	1	-1E+10	1	-1E+10	1	-1E+10	1	-1E+10	1	-1E+10	1
4902549	70	C	07/18/2022	22:00	-131.314	47.025	0	211.30	0	6.5600	0	33.8610	0	26.583	0	209.438	0	119.0	4	39.8	4	-1E+10	1	-1E+10	1	-1E+10	1	-1E+10	1	-1E+10	1	-1E+10	1
4902549	70	C	07/18/2022	22:00	-131.314	47.025	0	212.30	0	6.5520	0	33.8590	0	26.583	0	210.429	0	118.7	4	39.7	4	-1E+10	1	-1E+10	1	-1E+10	1	-1E+10	1	-1E+10	1	-1E+10	1
4902549	70	C	07/18/2022	22:00	-131.314	47.025	0	213.30	0	6.5310	0	33.8600	0	26.586	0	211.420	0	118.3	4	39.5	4	-1E+10	1	-1E+10	1	-1E+10	1	-1E+10	1	-1E+10	1	-1E+10	1
4902549	70	C	07/18/2022	22:00	-131.314	47.025	0	214.30	0	6.5290	0	33.8630	0	26.589	0	212.411	0	118.0	4	39.5	4	-1E+10	1	-1E+10	1	-1E+10	1	-1E+10	1	-1E+10	1	-1E+10	1
4902549	70	C	07/18/2022	22:00	-131.314	47.025	0	215.30	0	6.5190	0	33.8680	0	26.594	0	213.401	0	117.9	4	39.4	4	-1E+10	1	-1E+10	1	-1E+10	1	-1E+10	1	-1E+10	1	-1E+10	1
4902549	70	C	07/18/2022	22:00	-131.314	47.025	0	216.30	0	6.5120	0	33.8670	0	26.594	0	214.392	0	118.0	4	39.4	4	-1E+10	1	-1E+10	1	-1E+10	1	-1E+10	1	-1E+10	1	-1E+10	1
4902549	70	C	07/18/2022	22:00	-131.314	47.025	0	217.30	0	6.5080	0	33.8660	0	26.594	0	215.383	0	118.1	4	39.5	4	-1E+10	1	-1E+10	1	-1E+10	1	-1E+10	1	-1E+10	1	-1E+10	1
4902549	70	C	07/18/2022	22:00	-131.314	47.025	0	218.40	0	6.4890	0	33.8670	0	26.597	0	216.472	0	118.3	4	39.5	4	-1E+10	1	-1E+10	1	-1E+10	1	-1E+10	1	-1E+10	1	-1E+10	1
4902549	70	C	07/18/2022	22:00	-131.314	47.025	0	219.40	0	6.4690	0	33.8660	0	26.599	0	217.463	0	118.6	4	39.6	4	-1E+10	1	-1E+10	1	-1E+10	1	-1E+10	1	-1E+10	1	-1E+10	1
4902549	70	C	07/18/2022	22:00	-131.314	47.025	0	220.50	0	6.4570	0	33.8620	0	26.598	0	218.553	0	118.8	4	39.7	4	-1E+10	1	-1E+10	1	-1E+10	1	-1E+10	1	-1E+10	1	-1E+10	1
4902549	70	C	07/18/2022	22:00	-131.314	47.025	0	221.50	0	6.4240	0	33.8630	0	26.603	0	219.543	0	119.1	4	39.7	4	-1E+10	1	-1E+10	1	-1E+10	1	-1E+10	1	-1E+10	1	-1E+10	1
4902549	70	C	07/18/2022	22:00	-131.314	47.025	0	222.60	0	6.3920	0	33.8590	0	26.604	0	220.633	0	119.4	4	39.8	4	-1E+10	1	-1E+10	1	-1E+10	1	-1E+10	1	-1E+10	1	-1E+10	1
4902549	70	C	07/18/2022	22:00	-131.314	47.025	0	223.60	0	6.3490	0	33.8560	0	26.607	0	221.624	0	119.5	4	39.8	4	-1E+10	1	-1E+10	1	-1E+10	1	-1E+10	1	-1E+10	1	-1E+10	1
4902549	70	C	07/18/2022	22:00	-131.314	47.025	0	224.60	0	6.3260	0	33.8550	0	26.609	0	222.614	0	119.6	4	39.8	4	-1E+10	1	-1E+10	1	-1E+10	1	-1E+10	1	-1E+10	1	-1E+10	1
4902549	70	C	07/18/2022	22:00	-131.314	47.025	0	225.60	0	6.3030	0	33.8540	0	26.611	0	223.605	0	119.6	4	39.8	4	-1E+10	1	-1E+10	1	-1E+10	1	-1E+10	1	-1E+10	1	-1E+10	1
4902549	70	C	07/18/2022	22:00	-131.314	47.025	0	226.70	0	6.2850	0	33.8520	0	26.612	0	224.694	0	119.5	4	39.7	4	-1E+10	1	-1E+10	1	-1E+10	1	-1E+10	1	-1E+10	1	-1E+10	1
4902549	70	C	07/18/2022	22:00	-131.314	47.025	0	227.70	0	6.2010	0	33.8460	0	26.618	0	225.685	0	119.2	4	39.6	4	-1E+10	1	-1E+10	1	-1E+10	1	-1E+10	1	-1E+10	1	-1E+10	1
4902549	70	C	07/18/2022	22:00	-131.314	47.025	0	228.70	0	6.1740	0	33.8430	0	26.619	0	226.676	0	118.7	4	39.3	4	-1E+10	1	-1E+10	1	-1E+10	1	-1E+10	1	-1E+10	1	-1E+10	1
4902549	70	C	07/18/2022	22:00	-131.314	47.025	0	229.80	0	6.1680	0	33.8430	0	26.620	0	227.765	0	117.9	4	39.1	4	-1E+10	1	-1E+10	1	-1E+10	1	-1E+10	1	-1E+10	1	-1E+10	1
4902549	70	C	07/18/2022	22:00	-131.314	47.025	0	230.80	0	6.1330	0	33.8430	0	26.624	0	228.756	0	117.2	4	38.8	4	-1E+10	1	-1E+10	1	-1E+10	1	-1E+10	1	-1E+10	1	-1E+10	1
4902549	70	C	07/18/2022	22:00	-131.314	47.025	0	231.80	0	6.1270	0	33.8440	0	26.626	0	229.747	0	116.3	4	38.5	4	-1E+10	1	-1E+10	1	-1E+10	1	-1E+10	1	-1E+10	1	-1E+10	1
4902549	70	C	07/18/2022	22:00	-131.314	47.025	0	232.80	0	6.1080	0	33.8470	0	26.631	0	230.737	0	115.4	4	38.2	4	-1E+10	1	-1E+10	1	-1E+10	1	-1E+10	1	-1E+10	1	-1E+10	1
4902549	70	C	07/18/2022	22:00	-131.314	47.025	0	233.80	0	6.0860	0	33.8450	0	26.632	0	231.728	0	114.5	4	37.9	4	-1E+10	1	-1E+10	1	-1E+10	1	-1E+10	1	-1E+10	1	-1E+10	1
4902549	70	C	07/18/2022	22:00	-131.314	47.025	0	234.90	0	6.0840	0	33.8510	0	26.637	0	232.817	0	113.7	4	37.6	4	-1E+10	1	-1E+10	1	-1E+10	1	-1E+10	1	-1E+10	1	-1E+10	1
4902549	70	C	07/18/2022	22:00	-131.314	47.025	0	235.90	0	6.0750	0	33.8520	0	26.639	0	233.808	0	113.1	4	37.4	4	-1E+10	1	-1E+10	1	-1E+10	1	-1E+10	1	-1E+10	1	-1E+10	1
4902549	70	C	07/18/2022	22:00	-131.314	47.025	0	237.00	0	6.0660	0	33.8540	0	26.642	0	234.897	0	112.5	4	37.2	4	-1E+10	1	-1E+10	1	-1E+10	1	-1E+10	1	-1E+10	1	-1E+10	1
4902549	70	C	07/18/2022	22:00	-131.314	47.025	0	238.00	0	6.0520	0	33.8540	0	26.643	0	235.888	0	111.9	4	37.0	4	-1E+10	1	-1E+10	1	-1E+10	1	-1E+10	1	-1E+10	1	-1E+10	1
4902549	70	C	07/18/2022	22:00	-131.314	47.025	0	239.00	0	6.0320	0	33.8530	0	26.645	0	236.879	0	111.2	4	36.7	4	-1E+10	1	-1E+10	1	-1E+10	1	-1E+10	1	-1E+10	1	-1E+10	1
4902549	70	C	07/18/2022	22:00	-131.314	47.025	0	240.10	0	6.0180	0	33.8520	0	26.646	0	237.968	0	110.4	4	36.5	4	-1E+10	1	-1E+10	1	-1E+10	1	-1E+10	1	-1E+10	1	-1E+10	1
4902549	70	C	07/18/2022	22:00	-131.314	47.025	0	241.10	0	5.9900	0	33.8560	0	26.653	0	238.959	0	109.8	4	36.3	4	-1E+10	1	-1E+10	1	-1E+10	1	-1E+10	1	-1E+10	1	-1E+10	1
4902549	70	C	07/18/2022	22:00	-131.314	47.025	0	242.20	0	5.9830	0	33.8580	0	26.655	0	240.048	0	109.2	4	36.0	4	-1E+10	1	-1E+10	1	-1E+10	1	-1E+10	1	-1E+10	1	-1E+10	1
4902549	70	C	07/18/2022	22:00	-131.314	47.025	0	243.20	0	5.9700	0	33.8600	0	26.658	0	241.039	0	108.6	4	35.8	4	-1E+10	1	-1E+10	1	-1E+10	1	-1E+10	1	-1E+10	1	-1E+10	1
4902549	70	C	07/18/2022	22:00	-131.314	47.025	0	244.20	0	5.9670	0	33.8610	0	26.659	0	242.029	0	108.0	4	35.6	4	-1E+10	1	-1E+10	1	-1E+10	1	-1E+10	1	-1E+10	1	-1E+10	1
4902549	70	C	07/18/2022	22:00	-131.314	47.025	0	245.30	0	5.9670	0	33.8610	0	26.660	0	243.119	0	107.5	4	35.5	4	-1E+10	1	-1E+10	1	-1E+10	1	-1E+10	1	-1E+10	1	-1E+10	1
4902549	70	C	07/18/2022	22:00	-131.314	47.025	0	246.30	0	5.9690	0	33.8640	0	26.662	0	244.110	0	106.9	4	35.3	4	-1E+10	1	-1E+10	1	-1E+10	1	-1E+10	1	-1E+10	1	-1E+10	1
4902549	70	C	07/18/2022	22:00	-131.314	47.025	0	247.30	0	5.9640	0	33.8650	0	26.663	0	245.100	0	106.3	4	35.1	4	-1E+10	1	-1E+10	1	-1E+10	1	-1E+10	1	-1E+10	1	-1E+10	1
4902549	70	C	07/18/2022	22:00	-131.314	47.025	0	248.40	0	5.9620	0	33.8650	0	26.663	0	246.190	0	105.7	4	34.9	4	-1E+10	1	-1E+10	1	-1E+10	1	-1E+10	1	-1E+10	1	-1E+10	1
4902549	70	C	07/18/2022	22:00	-131.314	47.025	0	249.40	0	5.9640	0	33.8650	0	26.663	0	247.180	0	105.1	4	34.7	4	-1E+10	1	-1E+10	1	-1E+10	1	-1E+10	1	-1E+10	1	-1E+10	1
4902549	70	C	07/18/2022	22:00	-131.314	47.025	0	250.50	0	5.9750	0	33.8660	0	26.663	0	248.270	0	104.6	4	34.5	4	-1E+10	1	-1E+10	1	-1E+10	1	-1E+10	1	-1E+10	1	-1E+10	1
4902549	70	C	07/18/2022	22:00	-131.314	47.025	0	251.50	0	5.9810	0	33.8710	0	26.666	0	249.260	0	104.1	4	34.4	4	-1E+10	1	-1E+10	1	-1E+10	1	-1E+10	1	-1E+10	1	-1E+10	1
4902549	70	C	07/18/2022	22:00	-131.314	47.025	0	252.50	0	5.9790	0	33.8720	0	26.667	0	250.251	0	103.7	4	34.2	4	-1E+10	1	-1E+10	1	-1E+10	1	-1E+10	1	-1E+10	1	-1E+10	1
4902549	70	C	07/18/2022	22:00	-131.314	47.025	0	253.60	0	5.9620	0	33.8730	0	26.670	0	251.340	0	103.4	4	34.1	4	-1E+10	1	-1E+10	1	-1E+10	1	-1E+10	1	-1E+10	1	-1E+10	1
4902549	70	C	07/18/2022	22:00	-131.314	47.025	0	254.60	0	5.9540	0	33.8730	0	26.671	0	252.331	0	103.1	4	34.0	4	-1E+10	1	-1E+10	1	-1E+10	1	-1E+10	1	-1E+10	1	-1E+10	1
4902549	70	C	07/18/2022	22:00	-131.314	47.025	0	255.60	0	5.9430	0	33.8740	0	26.673	0	253.321	0	102.8	4	33.9	4	-1E+10	1	-1E+10	1	-1E+10	1	-1E+10	1	-1E+10	1	-1E+10	1
4902549	70	C	07/18/2022	22:00	-131.314	47.025	0	256.70	0	5.9290	0	33.8740	0	26.675	0	254.411	0	102.5	4	33.8	4	-1E+10	1	-1E+10	1	-1E+10	1	-1E+10	1	-1E+10	1	-1E+10	1
4902549	70	C	07/18/2022	22:00	-131.314	47.025	0	257.70	0	5.9240	0	33.8750	0	26.676	0	255.401	0	102.2	4	33.7	4	-1E+10	1	-1E+10	1	-1E+10	1	-1E+10	1	-1E+10	1	-1E+10	1
4902549	70	C	07/18/2022	22:00	-131.314	47.025	0	258.70	0	5.9150	0	33.8740	0	26.676	0	256.392	0	101.9	4	33.6	4	-1E+10	1	-1E+10	1	-1E+10	1	-1E+10	1	-1E+10	1	-1E+10	1
4902549	70	C	07/18/2022	22:00	-131.314	47.025	0	259.80	0	5.9110	0	33.8740	0	26.677	0	257.481	0	101.6	4	33.5	4	-1E+10	1	-1E+10	1	-1E+10	1	-1E+10	1	-1E+10	1	-1E+10	1
4902549	70	C	07/18/2022	22:00	-131.314	47.025	0	260.80	0	5.9050	0	33.8740	0	26.678	0	258.471	0	101.2	4	33.4	4	-1E+10	1	-1E+10	1	-1E+10	1	-1E+10	1	-1E+10	1	-1E+10	1
4902549	70	C	07/18/2022	22:00	-131.314	47.025	0	261.90	0	5.8560	0	33.8740	0	26.684	0	259.561	0	101.0	4	33.2	4	-1E+10	1	-1E+10	1	-1E+10	1	-1E+10	1	-1E+10	1	-1E+10	1
4902549	70	C	07/18/2022	22:00	-131.314	47.025	0	262.90	0	5.8540	0	33.8740	0	26.684	0	260.551	0	100.7	4	33.1	4	-1E+10	1	-1E+10	1	-1E+10	1	-1E+10	1	-1E+10	1	-1E+10	1
4902549	70	C	07/18/2022	22:00	-131.314	47.025	0	264.00	0	5.8160	0	33.8750	0	26.689	0	261.641	0	100.3	4	33.0	4	-1E+10	1	-1E+10	1	-1E+10	1	-1E+10	1	-1E+10	1	-1E+10	1
4902549	70	C	07/18/2022	22:00	-131.314	47.025	0	265.00	0	5.8050	0	33.8720	0	26.688	0	262.631	0	99.7	4	32.8	4	-1E+10	1	-1E+10	1	-1E+10	1	-1E+10	1	-1E+10	1	-1E+10	1
4902549	70	C	07/18/2022	22:00	-131.314	47.025	0	266.00	0	5.8140	0	33.8750	0	26.690	0	263.622	0	99.1	4	32.6	4	-1E+10	1	-1E+10	1	-1E+10	1	-1E+10	1	-1E+10	1	-1E+10	1
4902549	70	C	07/18/2022	22:00	-131.314	47.025	0	266.90	0	5.7920	0	33.8750	0	26.692	0	264.513	0	98.5	4	32.4	4	-1E+10	1	-1E+10	1	-1E+10	1	-1E+10	1	-1E+10	1	-1E+10	1
4902549	70	C	07/18/2022	22:00	-131.314	47.025	0	268.10	0	5.7920	0	33.8750	0	26.692	0	265.702	0	97.7	4	32.1	4	-1E+10	1	-1E+10	1	-1E+10	1	-1E+10	1	-1E+10	1	-1E+10	1
4902549	70	C	07/18/2022	22:00	-131.314	47.025	0	268.80	0	5.7900	0	33.8770	0	26.694	0	266.395	0	97.2	4	31.9	4	-1E+10	1	-1E+10	1	-1E+10	1	-1E+10	1	-1E+10	1	-1E+10	1
4902549	70	C	07/18/2022	22:00	-131.314	47.025	0	270.00	0	5.7880	0	33.8800	0	26.697	0	267.583	0	96.5	4	31.7	4	-1E+10	1	-1E+10	1	-1E+10	1	-1E+10	1	-1E+10	1	-1E+10	1
4902549	70	C	07/18/2022	22:00	-131.314	47.025	0	271.20	0	5.7890	0	33.8820	0	26.698	0	268.772	0	95.9	4	31.5	4	-1E+10	1	-1E+10	1	-1E+10	1	-1E+10	1	-1E+10	1	-1E+10	1
4902549	70	C	07/18/2022	22:00	-131.314	47.025	0	271.90	0	5.7900	0	33.8820	0	26.698	0	269.465	0	95.5	4	31.4	4	-1E+10	1	-1E+10	1	-1E+10	1	-1E+10	1	-1E+10	1	-1E+10	1
4902549	70	C	07/18/2022	22:00	-131.314	47.025	0	273.00	0	5.7900	0	33.8830	0	26.699	0	270.555	0	94.6	4	31.1	4	-1E+10	1	-1E+10	1	-1E+10	1	-1E+10	1	-1E+10	1	-1E+10	1
4902549	70	C	07/18/2022	22:00	-131.314	47.025	0	274.20	0	5.7900	0	33.8840	0	26.700	0	271.743	0	93.8	4	30.8	4	-1E+10	1	-1E+10	1	-1E+10	1	-1E+10	1	-1E+10	1	-1E+10	1
4902549	70	C	07/18/2022	22:00	-131.314	47.025	0	274.90	0	5.7940	0	33.8850	0	26.700	0	272.436	0	93.4	4	30.7	4	-1E+10	1	-1E+10	1	-1E+10	1	-1E+10	1	-1E+10	1	-1E+10	1
4902549	70	C	07/18/2022	22:00	-131.314	47.025	0	275.70	0	5.7930	0	33.8880	0	26.703	0	273.229	0	93.0	4	30.6	4	-1E+10	1	-1E+10	1	-1E+10	1	-1E+10	1	-1E+10	1	-1E+10	1
4902549	70	C	07/18/2022	22:00	-131.314	47.025	0	276.90	0	5.7800	0	33.8890	0	26.705	0	274.417	0	92.4	4	30.4	4	-1E+10	1	-1E+10	1	-1E+10	1	-1E+10	1	-1E+10	1	-1E+10	1
4902549	70	C	07/18/2022	22:00	-131.314	47.025	0	278.00	0	5.7670	0	33.8890	0	26.707	0	275.506	0	91.7	4	30.1	4	-1E+10	1	-1E+10	1	-1E+10	1	-1E+10	1	-1E+10	1	-1E+10	1
4902549	70	C	07/18/2022	22:00	-131.314	47.025	0	278.80	0	5.7600	0	33.8890	0	26.708	0	276.299	0	91.1	4	29.9	4	-1E+10	1	-1E+10	1	-1E+10	1	-1E+10	1	-1E+10	1	-1E+10	1
4902549	70	C	07/18/2022	22:00	-131.314	47.025	0	280.00	0	5.7550	0	33.8890	0	26.708	0	277.487	0	90.4	4	29.7	4	-1E+10	1	-1E+10	1	-1E+10	1	-1E+10	1	-1E+10	1	-1E+10	1
4902549	70	C	07/18/2022	22:00	-131.314	47.025	0	281.20	0	5.7360	0	33.8920	0	26.713	0	278.676	0	89.9	4	29.5	4	-1E+10	1	-1E+10	1	-1E+10	1	-1E+10	1	-1E+10	1	-1E+10	1
4902549	70	C	07/18/2022	22:00	-131.314	47.025	0	282.00	0	5.7310	0	33.8920	0	26.713	0	279.468	0	89.4	4	29.4	4	-1E+10	1	-1E+10	1	-1E+10	1	-1E+10	1	-1E+10	1	-1E+10	1
4902549	70	C	07/18/2022	22:00	-131.314	47.025	0	282.80	0	5.7240	0	33.8910	0	26.714	0	280.260	0	88.9	4	29.2	4	-1E+10	1	-1E+10	1	-1E+10	1	-1E+10	1	-1E+10	1	-1E+10	1
4902549	70	C	07/18/2022	22:00	-131.314	47.025	0	283.90	0	5.7020	0	33.8940	0	26.719	0	281.350	0	88.4	4	29.0	4	-1E+10	1	-1E+10	1	-1E+10	1	-1E+10	1	-1E+10	1	-1E+10	1
4902549	70	C	07/18/2022	22:00	-131.314	47.025	0	285.20	0	5.6810	0	33.8960	0	26.723	0	282.637	0	87.9	4	28.8	4	-1E+10	1	-1E+10	1	-1E+10	1	-1E+10	1	-1E+10	1	-1E+10	1
4902549	70	C	07/18/2022	22:00	-131.314	47.025	0	286.00	0	5.6720	0	33.8960	0	26.724	0	283.429	0	87.6	4	28.7	4	-1E+10	1	-1E+10	1	-1E+10	1	-1E+10	1	-1E+10	1	-1E+10	1
4902549	70	C	07/18/2022	22:00	-131.314	47.025	0	286.80	0	5.6440	0	33.8960	0	26.727	0	284.222	0	87.2	4	28.6	4	-1E+10	1	-1E+10	1	-1E+10	1	-1E+10	1	-1E+10	1	-1E+10	1
4902549	70	C	07/18/2022	22:00	-131.314	47.025	0	288.00	0	5.6240	0	33.8960	0	26.730	0	285.410	0	86.6	4	28.4	4	-1E+10	1	-1E+10	1	-1E+10	1	-1E+10	1	-1E+10	1	-1E+10	1
4902549	70	C	07/18/2022	22:00	-131.314	47.025	0	289.20	0	5.6130	0	33.8950	0	26.730	0	286.598	0	85.9	4	28.1	4	-1E+10	1	-1E+10	1	-1E+10	1	-1E+10	1	-1E+10	1	-1E+10	1
4902549	70	C	07/18/2022	22:00	-131.314	47.025	0	290.00	0	5.6110	0	33.8940	0	26.730	0	287.391	0	85.4	4	28.0	4	-1E+10	1	-1E+10	1	-1E+10	1	-1E+10	1	-1E+10	1	-1E+10	1
4902549	70	C	07/18/2022	22:00	-131.314	47.025	0	290.80	0	5.6010	0	33.8950	0	26.732	0	288.183	0	84.8	4	27.7	4	-1E+10	1	-1E+10	1	-1E+10	1	-1E+10	1	-1E+10	1	-1E+10	1
4902549	70	C	07/18/2022	22:00	-131.314	47.025	0	291.70	0	5.5600	0	33.8920	0	26.734	0	289.074	0	84.2	4	27.5	4	-1E+10	1	-1E+10	1	-1E+10	1	-1E+10	1	-1E+10	1	-1E+10	1
4902549	70	C	07/18/2022	22:00	-131.314	47.025	0	292.90	0	5.5570	0	33.8970	0	26.739	0	290.262	0	83.3	4	27.2	4	-1E+10	1	-1E+10	1	-1E+10	1	-1E+10	1	-1E+10	1	-1E+10	1
4902549	70	C	07/18/2022	22:00	-131.314	47.025	0	294.20	0	5.5730	0	33.9060	0	26.744	0	291.550	0	82.8	4	27.1	4	-1E+10	1	-1E+10	1	-1E+10	1	-1E+10	1	-1E+10	1	-1E+10	1
4902549	70	C	07/18/2022	22:00	-131.314	47.025	0	295.10	0	5.5730	0	33.9060	0	26.744	0	292.441	0	82.6	4	27.0	4	-1E+10	1	-1E+10	1	-1E+10	1	-1E+10	1	-1E+10	1	-1E+10	1
4902549	70	C	07/18/2022	22:00	-131.314	47.025	0	295.90	0	5.5650	0	33.9070	0	26.746	0	293.233	0	82.5	4	27.0	4	-1E+10	1	-1E+10	1	-1E+10	1	-1E+10	1	-1E+10	1	-1E+10	1
4902549	70	C	07/18/2022	22:00	-131.314	47.025	0	296.80	0	5.5580	0	33.9090	0	26.748	0	294.125	0	82.4	4	26.9	4	-1E+10	1	-1E+10	1	-1E+10	1	-1E+10	1	-1E+10	1	-1E+10	1
4902549	70	C	07/18/2022	22:00	-131.314	47.025	0	297.60	0	5.5510	0	33.9080	0	26.748	0	294.917	0	82.2	4	26.9	4	-1E+10	1	-1E+10	1	-1E+10	1	-1E+10	1	-1E+10	1	-1E+10	1
4902549	70	C	07/18/2022	22:00	-131.314	47.025	0	298.90	0	5.5090	0	33.9050	0	26.751	0	296.204	0	81.9	4	26.7	4	-1E+10	1	-1E+10	1	-1E+10	1	-1E+10	1	-1E+10	1	-1E+10	1
4902549	70	C	07/18/2022	22:00	-131.314	47.025	0	300.20	0	5.5080	0	33.9050	0	26.751	0	297.491	0	81.6	4	26.6	4	-1E+10	1	-1E+10	1	-1E+10	1	-1E+10	1	-1E+10	1	-1E+10	1
4902549	70	C	07/18/2022	22:00	-131.314	47.025	0	301.10	0	5.4910	0	33.9010	0	26.750	0	298.383	0	81.3	4	26.6	4	-1E+10	1	-1E+10	1	-1E+10	1	-1E+10	1	-1E+10	1	-1E+10	1
4902549	70	C	07/18/2022	22:00	-131.314	47.025	0	302.00	0	5.4890	0	33.9080	0	26.755	0	299.274	0	81.0	4	26.5	4	-1E+10	1	-1E+10	1	-1E+10	1	-1E+10	1	-1E+10	1	-1E+10	1
4902549	70	C	07/18/2022	22:00	-131.314	47.025	0	302.90	0	5.4640	0	33.9010	0	26.753	0	300.165	0	80.6	4	26.3	4	-1E+10	1	-1E+10	1	-1E+10	1	-1E+10	1	-1E+10	1	-1E+10	1
4902549	70	C	07/18/2022	22:00	-131.314	47.025	0	303.80	0	5.4240	0	33.9050	0	26.761	0	301.056	0	80.2	4	26.1	4	-1E+10	1	-1E+10	1	-1E+10	1	-1E+10	1	-1E+10	1	-1E+10	1
4902549	70	C	07/18/2022	22:00	-131.314	47.025	0	304.60	0	5.4400	0	33.9000	0	26.755	0	301.849	0	79.8	4	26.0	4	-1E+10	1	-1E+10	1	-1E+10	1	-1E+10	1	-1E+10	1	-1E+10	1
4902549	70	C	07/18/2022	22:00	-131.314	47.025	0	305.90	0	5.4600	0	33.9100	0	26.761	0	303.136	0	79.4	4	25.9	4	-1E+10	1	-1E+10	1	-1E+10	1	-1E+10	1	-1E+10	1	-1E+10	1
4902549	70	C	07/18/2022	22:00	-131.314	47.025	0	307.40	0	5.4640	0	33.9110	0	26.761	0	304.621	0	79.1	4	25.8	4	-1E+10	1	-1E+10	1	-1E+10	1	-1E+10	1	-1E+10	1	-1E+10	1
4902549	70	C	07/18/2022	22:00	-131.314	47.025	0	308.30	0	5.4410	0	33.9110	0	26.764	0	305.512	0	78.8	4	25.7	4	-1E+10	1	-1E+10	1	-1E+10	1	-1E+10	1	-1E+10	1	-1E+10	1
4902549	70	C	07/18/2022	22:00	-131.314	47.025	0	309.20	0	5.3970	0	33.9030	0	26.762	0	306.404	0	78.3	4	25.5	4	-1E+10	1	-1E+10	1	-1E+10	1	-1E+10	1	-1E+10	1	-1E+10	1
4902549	70	C	07/18/2022	22:00	-131.314	47.025	0	310.10	0	5.3760	0	33.9060	0	26.767	0	307.295	0	77.7	4	25.3	4	-1E+10	1	-1E+10	1	-1E+10	1	-1E+10	1	-1E+10	1	-1E+10	1
4902549	70	C	07/18/2022	22:00	-131.314	47.025	0	311.00	0	5.4050	0	33.9100	0	26.767	0	308.186	0	77.2	4	25.1	4	-1E+10	1	-1E+10	1	-1E+10	1	-1E+10	1	-1E+10	1	-1E+10	1
4902549	70	C	07/18/2022	22:00	-131.314	47.025	0	311.90	0	5.4060	0	33.9110	0	26.768	0	309.077	0	76.8	4	25.0	4	-1E+10	1	-1E+10	1	-1E+10	1	-1E+10	1	-1E+10	1	-1E+10	1
4902549	70	C	07/18/2022	22:00	-131.314	47.025	0	312.90	0	5.4230	0	33.9150	0	26.769	0	310.067	0	76.6	4	25.0	4	-1E+10	1	-1E+10	1	-1E+10	1	-1E+10	1	-1E+10	1	-1E+10	1
4902549	70	C	07/18/2022	22:00	-131.314	47.025	0	313.80	0	5.4190	0	33.9180	0	26.772	0	310.958	0	76.4	4	24.9	4	-1E+10	1	-1E+10	1	-1E+10	1	-1E+10	1	-1E+10	1	-1E+10	1
4902549	70	C	07/18/2022	22:00	-131.314	47.025	0	314.70	0	5.4090	0	33.9170	0	26.772	0	311.850	0	76.3	4	24.8	4	-1E+10	1	-1E+10	1	-1E+10	1	-1E+10	1	-1E+10	1	-1E+10	1
4902549	70	C	07/18/2022	22:00	-131.314	47.025	0	315.60	0	5.4000	0	33.9170	0	26.773	0	312.741	0	76.1	4	24.8	4	-1E+10	1	-1E+10	1	-1E+10	1	-1E+10	1	-1E+10	1	-1E+10	1
4902549	70	C	07/18/2022	22:00	-131.314	47.025	0	316.60	0	5.3940	0	33.9160	0	26.773	0	313.731	0	76.0	4	24.7	4	-1E+10	1	-1E+10	1	-1E+10	1	-1E+10	1	-1E+10	1	-1E+10	1
4902549	70	C	07/18/2022	22:00	-131.314	47.025	0	317.90	0	5.3830	0	33.9160	0	26.775	0	315.018	0	75.7	4	24.6	4	-1E+10	1	-1E+10	1	-1E+10	1	-1E+10	1	-1E+10	1	-1E+10	1
4902549	70	C	07/18/2022	22:00	-131.314	47.025	0	319.40	0	5.3670	0	33.9160	0	26.776	0	316.504	0	75.3	4	24.5	4	-1E+10	1	-1E+10	1	-1E+10	1	-1E+10	1	-1E+10	1	-1E+10	1
4902549	70	C	07/18/2022	22:00	-131.314	47.025	0	320.30	0	5.3420	0	33.9240	0	26.786	0	317.395	0	74.9	4	24.4	4	-1E+10	1	-1E+10	1	-1E+10	1	-1E+10	1	-1E+10	1	-1E+10	1
4902549	70	C	07/18/2022	22:00	-131.314	47.025	0	321.20	0	5.3270	0	33.9130	0	26.779	0	318.286	0	74.6	4	24.3	4	-1E+10	1	-1E+10	1	-1E+10	1	-1E+10	1	-1E+10	1	-1E+10	1
4902549	70	C	07/18/2022	22:00	-131.314	47.025	0	322.10	0	5.3480	0	33.9170	0	26.779	0	319.177	0	74.2	4	24.1	4	-1E+10	1	-1E+10	1	-1E+10	1	-1E+10	1	-1E+10	1	-1E+10	1
4902549	70	C	07/18/2022	22:00	-131.314	47.025	0	323.10	0	5.3450	0	33.9130	0	26.777	0	320.167	0	73.8	4	24.0	4	-1E+10	1	-1E+10	1	-1E+10	1	-1E+10	1	-1E+10	1	-1E+10	1
4902549	70	C	07/18/2022	22:00	-131.314	47.025	0	324.10	0	5.3620	0	33.9200	0	26.780	0	321.157	0	73.5	4	23.9	4	-1E+10	1	-1E+10	1	-1E+10	1	-1E+10	1	-1E+10	1	-1E+10	1
4902549	70	C	07/18/2022	22:00	-131.314	47.025	0	325.00	0	5.3620	0	33.9200	0	26.780	0	322.048	0	73.1	4	23.8	4	-1E+10	1	-1E+10	1	-1E+10	1	-1E+10	1	-1E+10	1	-1E+10	1
4902549	70	C	07/18/2022	22:00	-131.314	47.025	0	326.00	0	5.3630	0	33.9200	0	26.780	0	323.039	0	72.8	4	23.7	4	-1E+10	1	-1E+10	1	-1E+10	1	-1E+10	1	-1E+10	1	-1E+10	1
4902549	70	C	07/18/2022	22:00	-131.314	47.025	0	326.90	0	5.3630	0	33.9200	0	26.780	0	323.930	0	72.4	4	23.6	4	-1E+10	1	-1E+10	1	-1E+10	1	-1E+10	1	-1E+10	1	-1E+10	1
4902549	70	C	07/18/2022	22:00	-131.314	47.025	0	327.80	0	5.3630	0	33.9190	0	26.779	0	324.821	0	71.9	4	23.4	4	-1E+10	1	-1E+10	1	-1E+10	1	-1E+10	1	-1E+10	1	-1E+10	1
4902549	70	C	07/18/2022	22:00	-131.314	47.025	0	328.80	0	5.3520	0	33.9220	0	26.783	0	325.811	0	71.6	4	23.3	4	-1E+10	1	-1E+10	1	-1E+10	1	-1E+10	1	-1E+10	1	-1E+10	1
4902549	70	C	07/18/2022	22:00	-131.314	47.025	0	329.70	0	5.3420	0	33.9240	0	26.786	0	326.702	0	71.3	4	23.2	4	-1E+10	1	-1E+10	1	-1E+10	1	-1E+10	1	-1E+10	1	-1E+10	1
4902549	70	C	07/18/2022	22:00	-131.314	47.025	0	330.70	0	5.3420	0	33.9240	0	26.786	0	327.692	0	70.9	4	23.1	4	-1E+10	1	-1E+10	1	-1E+10	1	-1E+10	1	-1E+10	1	-1E+10	1
4902549	70	C	07/18/2022	22:00	-131.314	47.025	0	331.70	0	5.3390	0	33.9230	0	26.785	0	328.682	0	70.6	4	23.0	4	-1E+10	1	-1E+10	1	-1E+10	1	-1E+10	1	-1E+10	1	-1E+10	1
4902549	70	C	07/18/2022	22:00	-131.314	47.025	0	332.60	0	5.3300	0	33.9260	0	26.789	0	329.573	0	70.2	4	22.8	4	-1E+10	1	-1E+10	1	-1E+10	1	-1E+10	1	-1E+10	1	-1E+10	1
4902549	70	C	07/18/2022	22:00	-131.314	47.025	0	333.60	0	5.3240	0	33.9260	0	26.790	0	330.563	0	69.8	4	22.7	4	-1E+10	1	-1E+10	1	-1E+10	1	-1E+10	1	-1E+10	1	-1E+10	1
4902549	70	C	07/18/2022	22:00	-131.314	47.025	0	334.60	0	5.3070	0	33.9250	0	26.791	0	331.554	0	69.4	4	22.6	4	-1E+10	1	-1E+10	1	-1E+10	1	-1E+10	1	-1E+10	1	-1E+10	1
4902549	70	C	07/18/2022	22:00	-131.314	47.025	0	335.50	0	5.2900	0	33.9280	0	26.795	0	332.445	0	69.1	4	22.5	4	-1E+10	1	-1E+10	1	-1E+10	1	-1E+10	1	-1E+10	1	-1E+10	1
4902549	70	C	07/18/2022	22:00	-131.314	47.025	0	336.50	0	5.2850	0	33.9280	0	26.796	0	333.435	0	68.8	4	22.4	4	-1E+10	1	-1E+10	1	-1E+10	1	-1E+10	1	-1E+10	1	-1E+10	1
4902549	70	C	07/18/2022	22:00	-131.314	47.025	0	337.50	0	5.2760	0	33.9280	0	26.797	0	334.425	0	68.5	4	22.3	4	-1E+10	1	-1E+10	1	-1E+10	1	-1E+10	1	-1E+10	1	-1E+10	1
4902549	70	C	07/18/2022	22:00	-131.314	47.025	0	338.50	0	5.2550	0	33.9280	0	26.799	0	335.415	0	68.1	4	22.1	4	-1E+10	1	-1E+10	1	-1E+10	1	-1E+10	1	-1E+10	1	-1E+10	1
4902549	70	C	07/18/2022	22:00	-131.314	47.025	0	339.90	0	5.2470	0	33.9300	0	26.802	0	336.801	0	67.7	4	22.0	4	-1E+10	1	-1E+10	1	-1E+10	1	-1E+10	1	-1E+10	1	-1E+10	1
4902549	70	C	07/18/2022	22:00	-131.314	47.025	0	341.40	0	5.2260	0	33.9290	0	26.803	0	338.286	0	67.2	4	21.8	4	-1E+10	1	-1E+10	1	-1E+10	1	-1E+10	1	-1E+10	1	-1E+10	1
4902549	70	C	07/18/2022	22:00	-131.314	47.025	0	342.40	0	5.2300	0	33.9310	0	26.805	0	339.276	0	66.8	4	21.7	4	-1E+10	1	-1E+10	1	-1E+10	1	-1E+10	1	-1E+10	1	-1E+10	1
4902549	70	C	07/18/2022	22:00	-131.314	47.025	0	343.40	0	5.2050	0	33.9310	0	26.807	0	340.266	0	66.5	4	21.6	4	-1E+10	1	-1E+10	1	-1E+10	1	-1E+10	1	-1E+10	1	-1E+10	1
4902549	70	C	07/18/2022	22:00	-131.314	47.025	0	344.30	0	5.2120	0	33.9310	0	26.807	0	341.157	0	66.1	4	21.4	4	-1E+10	1	-1E+10	1	-1E+10	1	-1E+10	1	-1E+10	1	-1E+10	1
4902549	70	C	07/18/2022	22:00	-131.314	47.025	0	345.30	0	5.2110	0	33.9340	0	26.809	0	342.147	0	65.8	4	21.3	4	-1E+10	1	-1E+10	1	-1E+10	1	-1E+10	1	-1E+10	1	-1E+10	1
4902549	70	C	07/18/2022	22:00	-131.314	47.025	0	346.30	0	5.2160	0	33.9350	0	26.809	0	343.137	0	65.6	4	21.3	4	-1E+10	1	-1E+10	1	-1E+10	1	-1E+10	1	-1E+10	1	-1E+10	1
4902549	70	C	07/18/2022	22:00	-131.314	47.025	0	347.30	0	5.2200	0	33.9390	0	26.812	0	344.127	0	65.4	4	21.2	4	-1E+10	1	-1E+10	1	-1E+10	1	-1E+10	1	-1E+10	1	-1E+10	1
4902549	70	C	07/18/2022	22:00	-131.314	47.025	0	348.30	0	5.2170	0	33.9400	0	26.813	0	345.117	0	65.2	4	21.2	4	-1E+10	1	-1E+10	1	-1E+10	1	-1E+10	1	-1E+10	1	-1E+10	1
4902549	70	C	07/18/2022	22:00	-131.314	47.025	0	349.30	0	5.2020	0	33.9400	0	26.815	0	346.107	0	65.1	4	21.1	4	-1E+10	1	-1E+10	1	-1E+10	1	-1E+10	1	-1E+10	1	-1E+10	1
4902549	70	C	07/18/2022	22:00	-131.314	47.025	0	350.30	0	5.1900	0	33.9400	0	26.816	0	347.097	0	65.0	4	21.1	4	-1E+10	1	-1E+10	1	-1E+10	1	-1E+10	1	-1E+10	1	-1E+10	1
4902549	70	C	07/18/2022	22:00	-131.314	47.025	0	353.30	0	5.1740	0	33.9400	0	26.818	0	350.067	0	64.5	4	20.9	4	-1E+10	1	-1E+10	1	-1E+10	1	-1E+10	1	-1E+10	1	-1E+10	1
4902549	70	C	07/18/2022	22:00	-131.314	47.025	0	358.30	0	5.1600	0	33.9420	0	26.821	0	355.017	0	63.8	4	20.7	4	-1E+10	1	-1E+10	1	-1E+10	1	-1E+10	1	-1E+10	1	-1E+10	1
4902549	70	C	07/18/2022	22:00	-131.314	47.025	0	363.30	0	5.1380	0	33.9420	0	26.824	0	359.967	0	63.0	4	20.4	4	-1E+10	1	-1E+10	1	-1E+10	1	-1E+10	1	-1E+10	1	-1E+10	1
4902549	70	C	07/18/2022	22:00	-131.314	47.025	0	367.90	0	5.1000	0	33.9420	0	26.828	0	364.521	0	61.9	4	20.0	4	-1E+10	1	-1E+10	1	-1E+10	1	-1E+10	1	-1E+10	1	-1E+10	1
4902549	70	C	07/18/2022	22:00	-131.314	47.025	0	372.60	0	5.0660	0	33.9450	0	26.835	0	369.174	0	60.6	4	19.6	4	-1E+10	1	-1E+10	1	-1E+10	1	-1E+10	1	-1E+10	1	-1E+10	1
4902549	70	C	07/18/2022	22:00	-131.314	47.025	0	377.80	0	5.0430	0	33.9490	0	26.841	0	374.321	0	59.2	4	19.1	4	-1E+10	1	-1E+10	1	-1E+10	1	-1E+10	1	-1E+10	1	-1E+10	1
4902549	70	C	07/18/2022	22:00	-131.314	47.025	0	383.00	0	5.0100	0	33.9540	0	26.848	0	379.469	0	57.9	4	18.7	4	-1E+10	1	-1E+10	1	-1E+10	1	-1E+10	1	-1E+10	1	-1E+10	1
4902549	70	C	07/18/2022	22:00	-131.314	47.025	0	388.10	0	4.9610	0	33.9580	0	26.857	0	384.517	0	56.9	4	18.4	4	-1E+10	1	-1E+10	1	-1E+10	1	-1E+10	1	-1E+10	1	-1E+10	1
4902549	70	C	07/18/2022	22:00	-131.314	47.025	0	393.30	0	4.9270	0	33.9610	0	26.863	0	389.664	0	56.6	4	18.2	4	-1E+10	1	-1E+10	1	-1E+10	1	-1E+10	1	-1E+10	1	-1E+10	1
4902549	70	C	07/18/2022	22:00	-131.314	47.025	0	398.00	0	4.8680	0	33.9610	0	26.870	0	394.316	0	56.7	4	18.2	4	-1E+10	1	-1E+10	1	-1E+10	1	-1E+10	1	-1E+10	1	-1E+10	1
4902549	70	C	07/18/2022	22:00	-131.314	47.025	0	402.60	0	4.7840	0	33.9560	0	26.875	0	398.869	0	55.8	4	17.9	4	-1E+10	1	-1E+10	1	-1E+10	1	-1E+10	1	-1E+10	1	-1E+10	1
4902549	70	C	07/18/2022	22:00	-131.314	47.025	0	407.80	0	4.7390	0	33.9610	0	26.884	0	404.016	0	52.9	4	17.0	4	-1E+10	1	-1E+10	1	-1E+10	1	-1E+10	1	-1E+10	1	-1E+10	1
4902549	70	C	07/18/2022	22:00	-131.314	47.025	0	412.90	0	4.7640	0	33.9740	0	26.892	0	409.063	0	50.2	4	16.1	4	-1E+10	1	-1E+10	1	-1E+10	1	-1E+10	1	-1E+10	1	-1E+10	1
4902549	70	C	07/18/2022	22:00	-131.314	47.025	0	418.10	0	4.7410	0	33.9810	0	26.900	0	414.210	0	48.9	4	15.7	4	-1E+10	1	-1E+10	1	-1E+10	1	-1E+10	1	-1E+10	1	-1E+10	1
4902549	70	C	07/18/2022	22:00	-131.314	47.025	0	423.20	0	4.7310	0	33.9870	0	26.906	0	419.257	0	47.3	4	15.2	4	-1E+10	1	-1E+10	1	-1E+10	1	-1E+10	1	-1E+10	1	-1E+10	1
4902549	70	C	07/18/2022	22:00	-131.314	47.025	0	428.30	0	4.7520	0	33.9950	0	26.910	0	424.305	0	46.2	4	14.8	4	-1E+10	1	-1E+10	1	-1E+10	1	-1E+10	1	-1E+10	1	-1E+10	1
4902549	70	C	07/18/2022	22:00	-131.314	47.025	0	433.40	0	4.7530	0	33.9970	0	26.912	0	429.352	0	45.1	4	14.5	4	-1E+10	1	-1E+10	1	-1E+10	1	-1E+10	1	-1E+10	1	-1E+10	1
4902549	70	C	07/18/2022	22:00	-131.314	47.025	0	437.90	0	4.7490	0	34.0000	0	26.915	0	433.805	0	43.8	4	14.1	4	-1E+10	1	-1E+10	1	-1E+10	1	-1E+10	1	-1E+10	1	-1E+10	1
4902549	70	C	07/18/2022	22:00	-131.314	47.025	0	442.50	0	4.7050	0	34.0070	0	26.925	0	438.357	0	43.1	4	13.8	4	-1E+10	1	-1E+10	1	-1E+10	1	-1E+10	1	-1E+10	1	-1E+10	1
4902549	70	C	07/18/2022	22:00	-131.314	47.025	0	447.50	0	4.6770	0	34.0090	0	26.930	0	443.305	0	42.2	4	13.5	4	-1E+10	1	-1E+10	1	-1E+10	1	-1E+10	1	-1E+10	1	-1E+10	1
4902549	70	C	07/18/2022	22:00	-131.314	47.025	0	452.60	0	4.6450	0	34.0130	0	26.936	0	448.352	0	41.3	4	13.2	4	-1E+10	1	-1E+10	1	-1E+10	1	-1E+10	1	-1E+10	1	-1E+10	1
4902549	70	C	07/18/2022	22:00	-131.314	47.025	0	457.60	0	4.6230	0	34.0150	0	26.940	0	453.299	0	40.1	4	12.8	4	-1E+10	1	-1E+10	1	-1E+10	1	-1E+10	1	-1E+10	1	-1E+10	1
4902549	70	C	07/18/2022	22:00	-131.314	47.025	0	462.70	0	4.5960	0	34.0220	0	26.949	0	458.346	0	38.7	4	12.4	4	-1E+10	1	-1E+10	1	-1E+10	1	-1E+10	1	-1E+10	1	-1E+10	1
4902549	70	C	07/18/2022	22:00	-131.314	47.025	0	467.90	0	4.5760	0	34.0270	0	26.955	0	463.491	0	37.4	4	12.0	4	-1E+10	1	-1E+10	1	-1E+10	1	-1E+10	1	-1E+10	1	-1E+10	1
4902549	70	C	07/18/2022	22:00	-131.314	47.025	0	473.10	0	4.5700	0	34.0340	0	26.961	0	468.636	0	36.1	4	11.5	4	-1E+10	1	-1E+10	1	-1E+10	1	-1E+10	1	-1E+10	1	-1E+10	1
4902549	70	C	07/18/2022	22:00	-131.314	47.025	0	478.30	0	4.5530	0	34.0380	0	26.966	0	473.781	0	35.4	4	11.3	4	-1E+10	1	-1E+10	1	-1E+10	1	-1E+10	1	-1E+10	1	-1E+10	1
4902549	70	C	07/18/2022	22:00	-131.314	47.025	0	483.00	0	4.5160	0	34.0400	0	26.972	0	478.431	0	34.4	4	11.0	4	-1E+10	1	-1E+10	1	-1E+10	1	-1E+10	1	-1E+10	1	-1E+10	1
4902549	70	C	07/18/2022	22:00	-131.314	47.025	0	488.10	0	4.5140	0	34.0470	0	26.978	0	483.477	0	33.1	4	10.6	4	-1E+10	1	-1E+10	1	-1E+10	1	-1E+10	1	-1E+10	1	-1E+10	1
4902549	70	C	07/18/2022	22:00	-131.314	47.025	0	493.20	0	4.4830	0	34.0500	0	26.984	0	488.523	0	32.3	4	10.3	4	-1E+10	1	-1E+10	1	-1E+10	1	-1E+10	1	-1E+10	1	-1E+10	1
4902549	70	C	07/18/2022	22:00	-131.314	47.025	0	498.00	0	4.4920	0	34.0570	0	26.988	0	493.272	0	31.1	4	9.9	4	-1E+10	1	-1E+10	1	-1E+10	1	-1E+10	1	-1E+10	1	-1E+10	1
4902549	70	C	07/18/2022	22:00	-131.314	47.025	0	502.90	0	4.4640	0	34.0590	0	26.993	0	498.119	0	30.1	4	9.6	4	-1E+10	1	-1E+10	1	-1E+10	1	-1E+10	1	-1E+10	1	-1E+10	1
4902549	70	C	07/18/2022	22:00	-131.314	47.025	0	507.80	0	4.5040	0	34.0700	0	26.997	0	502.967	0	29.5	4	9.4	4	-1E+10	1	-1E+10	1	-1E+10	1	-1E+10	1	-1E+10	1	-1E+10	1
4902549	70	C	07/18/2022	22:00	-131.314	47.025	0	512.70	0	4.4460	0	34.0680	0	27.002	0	507.814	0	29.8	4	9.5	4	-1E+10	1	-1E+10	1	-1E+10	1	-1E+10	1	-1E+10	1	-1E+10	1
4902549	70	C	07/18/2022	22:00	-131.314	47.025	0	517.90	0	4.4000	0	34.0660	0	27.005	0	512.958	0	29.2	4	9.3	4	-1E+10	1	-1E+10	1	-1E+10	1	-1E+10	1	-1E+10	1	-1E+10	1
4902549	70	C	07/18/2022	22:00	-131.314	47.025	0	523.30	0	4.3950	0	34.0720	0	27.011	0	518.300	0	28.2	4	9.0	4	-1E+10	1	-1E+10	1	-1E+10	1	-1E+10	1	-1E+10	1	-1E+10	1
4902549	70	C	07/18/2022	22:00	-131.314	47.025	0	528.30	0	4.3640	0	34.0740	0	27.016	0	523.246	0	27.1	4	8.6	4	-1E+10	1	-1E+10	1	-1E+10	1	-1E+10	1	-1E+10	1	-1E+10	1
4902549	70	C	07/18/2022	22:00	-131.314	47.025	0	533.20	0	4.3670	0	34.0800	0	27.020	0	528.093	0	25.4	4	8.1	4	-1E+10	1	-1E+10	1	-1E+10	1	-1E+10	1	-1E+10	1	-1E+10	1
4902549	70	C	07/18/2022	22:00	-131.314	47.025	0	538.30	0	4.3740	0	34.0860	0	27.024	0	533.137	0	23.7	4	7.5	4	-1E+10	1	-1E+10	1	-1E+10	1	-1E+10	1	-1E+10	1	-1E+10	1
4902549	70	C	07/18/2022	22:00	-131.314	47.025	0	542.90	0	4.3910	0	34.0970	0	27.031	0	537.687	0	21.8	4	7.0	4	-1E+10	1	-1E+10	1	-1E+10	1	-1E+10	1	-1E+10	1	-1E+10	1
4902549	70	C	07/18/2022	22:00	-131.314	47.025	0	547.60	0	4.4180	0	34.1090	0	27.038	0	542.336	0	20.7	4	6.6	4	-1E+10	1	-1E+10	1	-1E+10	1	-1E+10	1	-1E+10	1	-1E+10	1
4902549	70	C	07/18/2022	22:00	-131.314	47.025	0	552.70	0	4.3880	0	34.1120	0	27.044	0	547.380	0	19.6	4	6.2	4	-1E+10	1	-1E+10	1	-1E+10	1	-1E+10	1	-1E+10	1	-1E+10	1
4902549	70	C	07/18/2022	22:00	-131.314	47.025	0	557.90	0	4.4040	0	34.1230	0	27.051	0	552.523	0	18.5	4	5.9	4	-1E+10	1	-1E+10	1	-1E+10	1	-1E+10	1	-1E+10	1	-1E+10	1
4902549	70	C	07/18/2022	22:00	-131.314	47.025	0	563.10	0	4.3880	0	34.1270	0	27.056	0	557.666	0	18.5	4	5.9	4	-1E+10	1	-1E+10	1	-1E+10	1	-1E+10	1	-1E+10	1	-1E+10	1
4902549	70	C	07/18/2022	22:00	-131.314	47.025	0	568.00	0	4.3580	0	34.1290	0	27.060	0	562.512	0	18.3	4	5.8	4	-1E+10	1	-1E+10	1	-1E+10	1	-1E+10	1	-1E+10	1	-1E+10	1
4902549	70	C	07/18/2022	22:00	-131.314	47.025	0	572.90	0	4.3270	0	34.1310	0	27.065	0	567.358	0	18.4	4	5.9	4	-1E+10	1	-1E+10	1	-1E+10	1	-1E+10	1	-1E+10	1	-1E+10	1
4902549	70	C	07/18/2022	22:00	-131.314	47.025	0	577.90	0	4.2900	0	34.1320	0	27.070	0	572.303	0	18.8	4	6.0	4	-1E+10	1	-1E+10	1	-1E+10	1	-1E+10	1	-1E+10	1	-1E+10	1
4902549	70	C	07/18/2022	22:00	-131.314	47.025	0	582.90	0	4.2470	0	34.1280	0	27.071	0	577.248	0	18.7	4	5.9	4	-1E+10	1	-1E+10	1	-1E+10	1	-1E+10	1	-1E+10	1	-1E+10	1
4902549	70	C	07/18/2022	22:00	-131.314	47.025	0	588.00	0	4.2240	0	34.1320	0	27.077	0	582.291	0	18.4	4	5.9	4	-1E+10	1	-1E+10	1	-1E+10	1	-1E+10	1	-1E+10	1	-1E+10	1
4902549	70	C	07/18/2022	22:00	-131.314	47.025	0	592.80	0	4.1720	0	34.1320	0	27.082	0	587.038	0	17.8	4	5.6	4	-1E+10	1	-1E+10	1	-1E+10	1	-1E+10	1	-1E+10	1	-1E+10	1
4902549	70	C	07/18/2022	22:00	-131.314	47.025	0	597.70	0	4.1740	0	34.1390	0	27.088	0	591.883	0	16.6	4	5.3	4	-1E+10	1	-1E+10	1	-1E+10	1	-1E+10	1	-1E+10	1	-1E+10	1
4902549	70	C	07/18/2022	22:00	-131.314	47.025	0	602.80	0	4.1980	0	34.1460	0	27.091	0	596.926	0	15.9	4	5.0	4	-1E+10	1	-1E+10	1	-1E+10	1	-1E+10	1	-1E+10	1	-1E+10	1
4902549	70	C	07/18/2022	22:00	-131.314	47.025	0	607.90	0	4.2060	0	34.1500	0	27.093	0	601.969	0	15.5	4	4.9	4	-1E+10	1	-1E+10	1	-1E+10	1	-1E+10	1	-1E+10	1	-1E+10	1
4902549	70	C	07/18/2022	22:00	-131.314	47.025	0	613.20	0	4.1850	0	34.1540	0	27.099	0	607.210	0	15.1	4	4.8	4	-1E+10	1	-1E+10	1	-1E+10	1	-1E+10	1	-1E+10	1	-1E+10	1
4902549	70	C	07/18/2022	22:00	-131.314	47.025	0	618.00	0	4.1710	0	34.1600	0	27.105	0	611.956	0	14.9	4	4.7	4	-1E+10	1	-1E+10	1	-1E+10	1	-1E+10	1	-1E+10	1	-1E+10	1
4902549	70	C	07/18/2022	22:00	-131.314	47.025	0	622.90	0	4.1610	0	34.1590	0	27.105	0	616.801	0	14.5	4	4.6	4	-1E+10	1	-1E+10	1	-1E+10	1	-1E+10	1	-1E+10	1	-1E+10	1
4902549	70	C	07/18/2022	22:00	-131.314	47.025	0	627.90	0	4.1550	0	34.1620	0	27.108	0	621.744	0	14.1	4	4.5	4	-1E+10	1	-1E+10	1	-1E+10	1	-1E+10	1	-1E+10	1	-1E+10	1
4902549	70	C	07/18/2022	22:00	-131.314	47.025	0	633.10	0	4.1540	0	34.1640	0	27.110	0	626.885	0	13.5	4	4.3	4	-1E+10	1	-1E+10	1	-1E+10	1	-1E+10	1	-1E+10	1	-1E+10	1
4902549	70	C	07/18/2022	22:00	-131.314	47.025	0	638.20	0	4.1530	0	34.1730	0	27.117	0	631.928	0	12.9	4	4.1	4	-1E+10	1	-1E+10	1	-1E+10	1	-1E+10	1	-1E+10	1	-1E+10	1
4902549	70	C	07/18/2022	22:00	-131.314	47.025	0	642.80	0	4.1410	0	34.1760	0	27.121	0	636.475	0	12.6	4	4.0	4	-1E+10	1	-1E+10	1	-1E+10	1	-1E+10	1	-1E+10	1	-1E+10	1
4902549	70	C	07/18/2022	22:00	-131.314	47.025	0	647.50	0	4.1240	0	34.1800	0	27.126	0	641.122	0	12.2	4	3.9	4	-1E+10	1	-1E+10	1	-1E+10	1	-1E+10	1	-1E+10	1	-1E+10	1
4902549	70	C	07/18/2022	22:00	-131.314	47.025	0	652.80	0	4.1180	0	34.1830	0	27.129	0	646.361	0	11.8	4	3.7	4	-1E+10	1	-1E+10	1	-1E+10	1	-1E+10	1	-1E+10	1	-1E+10	1
4902549	70	C	07/18/2022	22:00	-131.314	47.025	0	658.10	0	4.1170	0	34.1870	0	27.132	0	651.601	0	11.3	4	3.6	4	-1E+10	1	-1E+10	1	-1E+10	1	-1E+10	1	-1E+10	1	-1E+10	1
4902549	70	C	07/18/2022	22:00	-131.314	47.025	0	662.90	0	4.1190	0	34.1910	0	27.135	0	656.346	0	10.9	4	3.4	4	-1E+10	1	-1E+10	1	-1E+10	1	-1E+10	1	-1E+10	1	-1E+10	1
4902549	70	C	07/18/2022	22:00	-131.314	47.025	0	667.70	0	4.1260	0	34.1970	0	27.140	0	661.091	0	10.4	4	3.3	4	-1E+10	1	-1E+10	1	-1E+10	1	-1E+10	1	-1E+10	1	-1E+10	1
4902549	70	C	07/18/2022	22:00	-131.314	47.025	0	672.60	0	4.1330	0	34.2030	0	27.144	0	665.935	0	10.1	4	3.2	4	-1E+10	1	-1E+10	1	-1E+10	1	-1E+10	1	-1E+10	1	-1E+10	1
4902549	70	C	07/18/2022	22:00	-131.314	47.025	0	677.90	0	4.1350	0	34.2050	0	27.145	0	671.174	0	10.0	4	3.2	4	-1E+10	1	-1E+10	1	-1E+10	1	-1E+10	1	-1E+10	1	-1E+10	1
4902549	70	C	07/18/2022	22:00	-131.314	47.025	0	683.10	0	4.1010	0	34.2060	0	27.149	0	676.313	0	9.8	4	3.1	4	-1E+10	1	-1E+10	1	-1E+10	1	-1E+10	1	-1E+10	1	-1E+10	1
4902549	70	C	07/18/2022	22:00	-131.314	47.025	0	687.80	0	4.0920	0	34.2130	0	27.156	0	680.959	0	9.5	4	3.0	4	-1E+10	1	-1E+10	1	-1E+10	1	-1E+10	1	-1E+10	1	-1E+10	1
4902549	70	C	07/18/2022	22:00	-131.314	47.025	0	693.00	0	4.0720	0	34.2160	0	27.160	0	686.099	0	9.4	4	3.0	4	-1E+10	1	-1E+10	1	-1E+10	1	-1E+10	1	-1E+10	1	-1E+10	1
4902549	70	C	07/18/2022	22:00	-131.314	47.025	0	698.20	0	4.0410	0	34.2180	0	27.165	0	691.238	0	9.2	4	2.9	4	-1E+10	1	-1E+10	1	-1E+10	1	-1E+10	1	-1E+10	1	-1E+10	1
4902549	70	C	07/18/2022	22:00	-131.314	47.025	0	702.90	0	4.0550	0	34.2210	0	27.166	0	695.884	0	9.0	4	2.9	4	-1E+10	1	-1E+10	1	-1E+10	1	-1E+10	1	-1E+10	1	-1E+10	1
4902549	70	C	07/18/2022	22:00	-131.314	47.025	0	708.10	0	4.0340	0	34.2230	0	27.170	0	701.023	0	8.8	4	2.8	4	-1E+10	1	-1E+10	1	-1E+10	1	-1E+10	1	-1E+10	1	-1E+10	1
4902549	70	C	07/18/2022	22:00	-131.314	47.025	0	713.30	0	4.0300	0	34.2260	0	27.173	0	706.162	0	8.5	4	2.7	4	-1E+10	1	-1E+10	1	-1E+10	1	-1E+10	1	-1E+10	1	-1E+10	1
4902549	70	C	07/18/2022	22:00	-131.314	47.025	0	717.80	0	4.0310	0	34.2290	0	27.175	0	710.610	0	8.1	4	2.6	4	-1E+10	1	-1E+10	1	-1E+10	1	-1E+10	1	-1E+10	1	-1E+10	1
4902549	70	C	07/18/2022	22:00	-131.314	47.025	0	722.90	0	4.0370	0	34.2340	0	27.179	0	715.650	0	7.7	4	2.4	4	-1E+10	1	-1E+10	1	-1E+10	1	-1E+10	1	-1E+10	1	-1E+10	1
4902549	70	C	07/18/2022	22:00	-131.314	47.025	0	727.90	0	4.0500	0	34.2410	0	27.183	0	720.591	0	7.4	4	2.3	4	-1E+10	1	-1E+10	1	-1E+10	1	-1E+10	1	-1E+10	1	-1E+10	1
4902549	70	C	07/18/2022	22:00	-131.314	47.025	0	732.90	0	4.0500	0	34.2440	0	27.185	0	725.532	0	7.2	4	2.3	4	-1E+10	1	-1E+10	1	-1E+10	1	-1E+10	1	-1E+10	1	-1E+10	1
4902549	70	C	07/18/2022	22:00	-131.314	47.025	0	737.80	0	4.0460	0	34.2480	0	27.189	0	730.374	0	7.1	4	2.3	4	-1E+10	1	-1E+10	1	-1E+10	1	-1E+10	1	-1E+10	1	-1E+10	1
4902549	70	C	07/18/2022	22:00	-131.314	47.025	0	742.80	0	4.0320	0	34.2510	0	27.193	0	735.315	0	7.2	4	2.3	4	-1E+10	1	-1E+10	1	-1E+10	1	-1E+10	1	-1E+10	1	-1E+10	1
4902549	70	C	07/18/2022	22:00	-131.314	47.025	0	748.20	0	4.0240	0	34.2520	0	27.194	0	740.651	0	7.3	4	2.3	4	-1E+10	1	-1E+10	1	-1E+10	1	-1E+10	1	-1E+10	1	-1E+10	1
4902549	70	C	07/18/2022	22:00	-131.314	47.025	0	753.20	0	3.9840	0	34.2510	0	27.198	0	745.592	0	7.6	4	2.4	4	-1E+10	1	-1E+10	1	-1E+10	1	-1E+10	1	-1E+10	1	-1E+10	1
4902549	70	C	07/18/2022	22:00	-131.314	47.025	0	757.90	0	3.9550	0	34.2510	0	27.201	0	750.236	0	7.5	4	2.4	4	-1E+10	1	-1E+10	1	-1E+10	1	-1E+10	1	-1E+10	1	-1E+10	1
4902549	70	C	07/18/2022	22:00	-131.314	47.025	0	762.80	0	3.9030	0	34.2530	0	27.208	0	755.077	0	7.2	4	2.3	4	-1E+10	1	-1E+10	1	-1E+10	1	-1E+10	1	-1E+10	1	-1E+10	1
4902549	70	C	07/18/2022	22:00	-131.314	47.025	0	767.70	0	3.9260	0	34.2660	0	27.216	0	759.919	0	7.0	4	2.2	4	-1E+10	1	-1E+10	1	-1E+10	1	-1E+10	1	-1E+10	1	-1E+10	1
4902549	70	C	07/18/2022	22:00	-131.314	47.025	0	772.70	0	3.8940	0	34.2630	0	27.217	0	764.859	0	7.0	4	2.2	4	-1E+10	1	-1E+10	1	-1E+10	1	-1E+10	1	-1E+10	1	-1E+10	1
4902549	70	C	07/18/2022	22:00	-131.314	47.025	0	777.60	0	3.8760	0	34.2680	0	27.222	0	769.700	0	7.1	4	2.2	4	-1E+10	1	-1E+10	1	-1E+10	1	-1E+10	1	-1E+10	1	-1E+10	1
4902549	70	C	07/18/2022	22:00	-131.314	47.025	0	782.70	0	3.8270	0	34.2660	0	27.226	0	774.739	0	6.9	4	2.2	4	-1E+10	1	-1E+10	1	-1E+10	1	-1E+10	1	-1E+10	1	-1E+10	1
4902549	70	C	07/18/2022	22:00	-131.314	47.025	0	787.80	0	3.8400	0	34.2770	0	27.233	0	779.778	0	6.7	4	2.1	4	-1E+10	1	-1E+10	1	-1E+10	1	-1E+10	1	-1E+10	1	-1E+10	1
4902549	70	C	07/18/2022	22:00	-131.314	47.025	0	793.00	0	3.8020	0	34.2760	0	27.236	0	784.915	0	6.9	4	2.2	4	-1E+10	1	-1E+10	1	-1E+10	1	-1E+10	1	-1E+10	1	-1E+10	1
4902549	70	C	07/18/2022	22:00	-131.314	47.025	0	797.90	0	3.7690	0	34.2780	0	27.241	0	789.756	0	6.8	4	2.1	4	-1E+10	1	-1E+10	1	-1E+10	1	-1E+10	1	-1E+10	1	-1E+10	1
4902549	70	C	07/18/2022	22:00	-131.314	47.025	0	802.90	0	3.7370	0	34.2840	0	27.249	0	794.695	0	6.7	4	2.1	4	-1E+10	1	-1E+10	1	-1E+10	1	-1E+10	1	-1E+10	1	-1E+10	1
4902549	70	C	07/18/2022	22:00	-131.314	47.025	0	808.10	0	3.7290	0	34.2860	0	27.251	0	799.832	0	6.5	4	2.0	4	-1E+10	1	-1E+10	1	-1E+10	1	-1E+10	1	-1E+10	1	-1E+10	1
4902549	70	C	07/18/2022	22:00	-131.314	47.025	0	813.00	0	3.7150	0	34.2890	0	27.255	0	804.673	0	6.2	4	2.0	4	-1E+10	1	-1E+10	1	-1E+10	1	-1E+10	1	-1E+10	1	-1E+10	1
4902549	70	C	07/18/2022	22:00	-131.314	47.025	0	817.80	0	3.7530	0	34.3000	0	27.260	0	809.414	0	5.9	4	1.9	4	-1E+10	1	-1E+10	1	-1E+10	1	-1E+10	1	-1E+10	1	-1E+10	1
4902549	70	C	07/18/2022	22:00	-131.314	47.025	0	822.70	0	3.7740	0	34.3040	0	27.262	0	814.254	0	6.1	4	1.9	4	-1E+10	1	-1E+10	1	-1E+10	1	-1E+10	1	-1E+10	1	-1E+10	1
4902549	70	C	07/18/2022	22:00	-131.314	47.025	0	827.70	0	3.7270	0	34.2990	0	27.262	0	819.193	0	6.1	4	1.9	4	-1E+10	1	-1E+10	1	-1E+10	1	-1E+10	1	-1E+10	1	-1E+10	1
4902549	70	C	07/18/2022	22:00	-131.314	47.025	0	832.60	0	3.7100	0	34.3050	0	27.269	0	824.033	0	6.2	4	1.9	4	-1E+10	1	-1E+10	1	-1E+10	1	-1E+10	1	-1E+10	1	-1E+10	1
4902549	70	C	07/18/2022	22:00	-131.314	47.025	0	837.90	0	3.6920	0	34.3070	0	27.272	0	829.268	0	6.4	4	2.0	4	-1E+10	1	-1E+10	1	-1E+10	1	-1E+10	1	-1E+10	1	-1E+10	1
4902549	70	C	07/18/2022	22:00	-131.314	47.025	0	842.80	0	3.6530	0	34.3050	0	27.274	0	834.108	0	6.5	4	2.0	4	-1E+10	1	-1E+10	1	-1E+10	1	-1E+10	1	-1E+10	1	-1E+10	1
4902549	70	C	07/18/2022	22:00	-131.314	47.025	0	847.90	0	3.6470	0	34.3050	0	27.275	0	839.145	0	6.7	4	2.1	4	-1E+10	1	-1E+10	1	-1E+10	1	-1E+10	1	-1E+10	1	-1E+10	1
4902549	70	C	07/18/2022	22:00	-131.314	47.025	0	853.20	0	3.5740	0	34.3010	0	27.279	0	844.380	0	6.9	4	2.1	4	-1E+10	1	-1E+10	1	-1E+10	1	-1E+10	1	-1E+10	1	-1E+10	1
4902549	70	C	07/18/2022	22:00	-131.314	47.025	0	858.00	0	3.5730	0	34.3030	0	27.281	0	849.120	0	6.9	4	2.1	4	-1E+10	1	-1E+10	1	-1E+10	1	-1E+10	1	-1E+10	1	-1E+10	1
4902549	70	C	07/18/2022	22:00	-131.314	47.025	0	862.90	0	3.5450	0	34.3030	0	27.283	0	853.960	0	7.0	4	2.2	4	-1E+10	1	-1E+10	1	-1E+10	1	-1E+10	1	-1E+10	1	-1E+10	1
4902549	70	C	07/18/2022	22:00	-131.314	47.025	0	867.90	0	3.4990	0	34.3030	0	27.288	0	858.897	0	6.9	4	2.2	4	-1E+10	1	-1E+10	1	-1E+10	1	-1E+10	1	-1E+10	1	-1E+10	1
4902549	70	C	07/18/2022	22:00	-131.314	47.025	0	873.00	0	3.5040	0	34.3050	0	27.289	0	863.934	0	6.8	4	2.1	4	-1E+10	1	-1E+10	1	-1E+10	1	-1E+10	1	-1E+10	1	-1E+10	1
4902549	70	C	07/18/2022	22:00	-131.314	47.025	0	878.10	0	3.5120	0	34.3100	0	27.292	0	868.970	0	6.7	4	2.1	4	-1E+10	1	-1E+10	1	-1E+10	1	-1E+10	1	-1E+10	1	-1E+10	1
4902549	70	C	07/18/2022	22:00	-131.314	47.025	0	883.20	0	3.4980	0	34.3090	0	27.293	0	874.007	0	6.7	4	2.1	4	-1E+10	1	-1E+10	1	-1E+10	1	-1E+10	1	-1E+10	1	-1E+10	1
4902549	70	C	07/18/2022	22:00	-131.314	47.025	0	887.90	0	3.4920	0	34.3120	0	27.296	0	878.648	0	6.5	4	2.0	4	-1E+10	1	-1E+10	1	-1E+10	1	-1E+10	1	-1E+10	1	-1E+10	1
4902549	70	C	07/18/2022	22:00	-131.314	47.025	0	892.70	0	3.5110	0	34.3210	0	27.301	0	883.388	0	6.5	4	2.0	4	-1E+10	1	-1E+10	1	-1E+10	1	-1E+10	1	-1E+10	1	-1E+10	1
4902549	70	C	07/18/2022	22:00	-131.314	47.025	0	898.00	0	3.4760	0	34.3190	0	27.303	0	888.621	0	6.7	4	2.1	4	-1E+10	1	-1E+10	1	-1E+10	1	-1E+10	1	-1E+10	1	-1E+10	1
4902549	70	C	07/18/2022	22:00	-131.314	47.025	0	902.90	0	3.4540	0	34.3170	0	27.304	0	893.460	0	6.7	4	2.1	4	-1E+10	1	-1E+10	1	-1E+10	1	-1E+10	1	-1E+10	1	-1E+10	1
4902549	70	C	07/18/2022	22:00	-131.314	47.025	0	907.70	0	3.4380	0	34.3170	0	27.305	0	898.199	0	6.7	4	2.1	4	-1E+10	1	-1E+10	1	-1E+10	1	-1E+10	1	-1E+10	1	-1E+10	1
4902549	70	C	07/18/2022	22:00	-131.314	47.025	0	913.10	0	3.4250	0	34.3180	0	27.307	0	903.531	0	6.7	4	2.1	4	-1E+10	1	-1E+10	1	-1E+10	1	-1E+10	1	-1E+10	1	-1E+10	1
4902549	70	C	07/18/2022	22:00	-131.314	47.025	0	918.10	0	3.4100	0	34.3210	0	27.311	0	908.468	0	6.7	4	2.1	4	-1E+10	1	-1E+10	1	-1E+10	1	-1E+10	1	-1E+10	1	-1E+10	1
4902549	70	C	07/18/2022	22:00	-131.314	47.025	0	923.00	0	3.4020	0	34.3220	0	27.313	0	913.306	0	6.6	4	2.1	4	-1E+10	1	-1E+10	1	-1E+10	1	-1E+10	1	-1E+10	1	-1E+10	1
4902549	70	C	07/18/2022	22:00	-131.314	47.025	0	928.00	0	3.3950	0	34.3240	0	27.315	0	918.242	0	6.6	4	2.0	4	-1E+10	1	-1E+10	1	-1E+10	1	-1E+10	1	-1E+10	1	-1E+10	1
4902549	70	C	07/18/2022	22:00	-131.314	47.025	0	932.80	0	3.3860	0	34.3280	0	27.319	0	922.981	0	6.5	4	2.0	4	-1E+10	1	-1E+10	1	-1E+10	1	-1E+10	1	-1E+10	1	-1E+10	1
4902549	70	C	07/18/2022	22:00	-131.314	47.025	0	937.80	0	3.3930	0	34.3320	0	27.321	0	927.917	0	6.4	4	2.0	4	-1E+10	1	-1E+10	1	-1E+10	1	-1E+10	1	-1E+10	1	-1E+10	1
4902549	70	C	07/18/2022	22:00	-131.314	47.025	0	942.80	0	3.4000	0	34.3370	0	27.325	0	932.854	0	6.4	4	2.0	4	-1E+10	1	-1E+10	1	-1E+10	1	-1E+10	1	-1E+10	1	-1E+10	1
4902549	70	C	07/18/2022	22:00	-131.314	47.025	0	947.90	0	3.3910	0	34.3380	0	27.327	0	937.888	0	6.4	4	2.0	4	-1E+10	1	-1E+10	1	-1E+10	1	-1E+10	1	-1E+10	1	-1E+10	1
4902549	70	C	07/18/2022	22:00	-131.314	47.025	0	952.80	0	3.3740	0	34.3390	0	27.329	0	942.726	0	6.4	4	2.0	4	-1E+10	1	-1E+10	1	-1E+10	1	-1E+10	1	-1E+10	1	-1E+10	1
4902549	70	C	07/18/2022	22:00	-131.314	47.025	0	957.70	0	3.3490	0	34.3420	0	27.334	0	947.563	0	6.4	4	2.0	4	-1E+10	1	-1E+10	1	-1E+10	1	-1E+10	1	-1E+10	1	-1E+10	1
4902549	70	C	07/18/2022	22:00	-131.314	47.025	0	962.70	0	3.3320	0	34.3430	0	27.336	0	952.498	0	6.4	4	2.0	4	-1E+10	1	-1E+10	1	-1E+10	1	-1E+10	1	-1E+10	1	-1E+10	1
4902549	70	C	07/18/2022	22:00	-131.314	47.025	0	968.10	0	3.3180	0	34.3450	0	27.339	0	957.829	0	6.4	4	2.0	4	-1E+10	1	-1E+10	1	-1E+10	1	-1E+10	1	-1E+10	1	-1E+10	1
4902549	70	C	07/18/2022	22:00	-131.314	47.025	0	973.00	0	3.2990	0	34.3480	0	27.343	0	962.666	0	6.4	4	2.0	4	-1E+10	1	-1E+10	1	-1E+10	1	-1E+10	1	-1E+10	1	-1E+10	1
4902549	70	C	07/18/2022	22:00	-131.314	47.025	0	978.00	0	3.2910	0	34.3510	0	27.346	0	967.601	0	6.4	4	2.0	4	-1E+10	1	-1E+10	1	-1E+10	1	-1E+10	1	-1E+10	1	-1E+10	1
4902549	70	C	07/18/2022	22:00	-131.314	47.025	0	983.00	0	3.2940	0	34.3530	0	27.348	0	972.536	0	6.4	4	2.0	4	-1E+10	1	-1E+10	1	-1E+10	1	-1E+10	1	-1E+10	1	-1E+10	1
4902549	70	C	07/18/2022	22:00	-131.314	47.025	0	987.60	0	3.2970	0	34.3570	0	27.351	0	977.076	0	6.4	4	2.0	4	-1E+10	1	-1E+10	1	-1E+10	1	-1E+10	1	-1E+10	1	-1E+10	1
4902549	70	C	07/18/2022	22:00	-131.314	47.025	0	992.80	0	3.2950	0	34.3590	0	27.353	0	982.209	0	6.4	4	2.0	4	-1E+10	1	-1E+10	1	-1E+10	1	-1E+10	1	-1E+10	1	-1E+10	1
4902549	70	C	07/18/2022	22:00	-131.314	47.025	0	997.90	0	3.2920	0	34.3590	0	27.353	0	987.243	0	6.4	4	2.0	4	-1E+10	1	-1E+10	1	-1E+10	1	-1E+10	1	-1E+10	1	-1E+10	1
4902549	70	C	07/18/2022	22:00	-131.314	47.025	0	1005.40	0	3.2840	0	34.3640	0	27.358	0	994.645	0	6.4	4	2.0	4	-1E+10	1	-1E+10	1	-1E+10	1	-1E+10	1	-1E+10	1	-1E+10	1
4902549	70	C	07/18/2022	22:00	-131.314	47.025	0	1015.60	0	3.2650	0	34.3710	0	27.365	0	1004.711	0	6.5	4	2.0	4	-1E+10	1	-1E+10	1	-1E+10	1	-1E+10	1	-1E+10	1	-1E+10	1
4902549	70	C	07/18/2022	22:00	-131.314	47.025	0	1025.50	0	3.2670	0	34.3780	0	27.371	0	1014.481	0	6.6	4	2.1	4	-1E+10	1	-1E+10	1	-1E+10	1	-1E+10	1	-1E+10	1	-1E+10	1
4902549	70	C	07/18/2022	22:00	-131.314	47.025	0	1035.50	0	3.2380	0	34.3810	0	27.376	0	1024.349	0	6.7	4	2.1	4	-1E+10	1	-1E+10	1	-1E+10	1	-1E+10	1	-1E+10	1	-1E+10	1
4902549	70	C	07/18/2022	22:00	-131.314	47.025	0	1045.60	0	3.2310	0	34.3850	0	27.380	0	1034.315	0	6.9	4	2.1	4	-1E+10	1	-1E+10	1	-1E+10	1	-1E+10	1	-1E+10	1	-1E+10	1
4902549	70	C	07/18/2022	22:00	-131.314	47.025	0	1055.40	0	3.2010	0	34.3900	0	27.386	0	1043.985	0	7.0	4	2.2	4	-1E+10	1	-1E+10	1	-1E+10	1	-1E+10	1	-1E+10	1	-1E+10	1
4902549	70	C	07/18/2022	22:00	-131.314	47.025	0	1065.60	0	3.1760	0	34.3940	0	27.392	0	1054.049	0	7.2	4	2.2	4	-1E+10	1	-1E+10	1	-1E+10	1	-1E+10	1	-1E+10	1	-1E+10	1
4902549	70	C	07/18/2022	22:00	-131.314	47.025	0	1075.40	0	3.1570	0	34.3990	0	27.398	0	1063.718	0	7.4	4	2.3	4	-1E+10	1	-1E+10	1	-1E+10	1	-1E+10	1	-1E+10	1	-1E+10	1
4902549	70	C	07/18/2022	22:00	-131.314	47.025	0	1085.10	0	3.1450	0	34.4020	0	27.401	0	1073.288	0	7.7	4	2.4	4	-1E+10	1	-1E+10	1	-1E+10	1	-1E+10	1	-1E+10	1	-1E+10	1
4902549	70	C	07/18/2022	22:00	-131.314	47.025	0	1095.40	0	3.1440	0	34.4080	0	27.406	0	1083.450	0	8.1	4	2.5	4	-1E+10	1	-1E+10	1	-1E+10	1	-1E+10	1	-1E+10	1	-1E+10	1
4902549	70	C	07/18/2022	22:00	-131.314	47.025	0	1105.70	0	3.1660	0	34.4180	0	27.412	0	1093.610	0	8.4	4	2.6	4	-1E+10	1	-1E+10	1	-1E+10	1	-1E+10	1	-1E+10	1	-1E+10	1
4902549	70	C	07/18/2022	22:00	-131.314	47.025	0	1115.60	0	3.1550	0	34.4190	0	27.414	0	1103.376	0	8.5	4	2.6	4	-1E+10	1	-1E+10	1	-1E+10	1	-1E+10	1	-1E+10	1	-1E+10	1
4902549	70	C	07/18/2022	22:00	-131.314	47.025	0	1125.50	0	3.1270	0	34.4210	0	27.419	0	1113.141	0	8.7	4	2.7	4	-1E+10	1	-1E+10	1	-1E+10	1	-1E+10	1	-1E+10	1	-1E+10	1
4902549	70	C	07/18/2022	22:00	-131.314	47.025	0	1135.70	0	3.0970	0	34.4230	0	27.423	0	1123.202	0	8.9	4	2.7	4	-1E+10	1	-1E+10	1	-1E+10	1	-1E+10	1	-1E+10	1	-1E+10	1
4902549	70	C	07/18/2022	22:00	-131.314	47.025	0	1145.50	0	3.0830	0	34.4260	0	27.427	0	1132.868	0	9.1	4	2.8	4	-1E+10	1	-1E+10	1	-1E+10	1	-1E+10	1	-1E+10	1	-1E+10	1
4902549	70	C	07/18/2022	22:00	-131.314	47.025	0	1155.30	0	3.0600	0	34.4290	0	27.431	0	1142.533	0	9.2	4	2.9	4	-1E+10	1	-1E+10	1	-1E+10	1	-1E+10	1	-1E+10	1	-1E+10	1
4902549	70	C	07/18/2022	22:00	-131.314	47.025	0	1165.30	0	3.0400	0	34.4310	0	27.435	0	1152.395	0	9.4	4	2.9	4	-1E+10	1	-1E+10	1	-1E+10	1	-1E+10	1	-1E+10	1	-1E+10	1
4902549	70	C	07/18/2022	22:00	-131.314	47.025	0	1175.40	0	3.0230	0	34.4330	0	27.438	0	1162.355	0	9.6	4	3.0	4	-1E+10	1	-1E+10	1	-1E+10	1	-1E+10	1	-1E+10	1	-1E+10	1
4902549	70	C	07/18/2022	22:00	-131.314	47.025	0	1185.70	0	2.9960	0	34.4340	0	27.441	0	1172.512	0	9.9	4	3.1	4	-1E+10	1	-1E+10	1	-1E+10	1	-1E+10	1	-1E+10	1	-1E+10	1
4902549	70	C	07/18/2022	22:00	-131.314	47.025	0	1195.50	0	2.9950	0	34.4400	0	27.446	0	1182.176	0	10.3	4	3.2	4	-1E+10	1	-1E+10	1	-1E+10	1	-1E+10	1	-1E+10	1	-1E+10	1
4902549	70	C	07/18/2022	22:00	-131.314	47.025	0	1205.40	0	2.9990	0	34.4440	0	27.449	0	1191.938	0	10.5	4	3.2	4	-1E+10	1	-1E+10	1	-1E+10	1	-1E+10	1	-1E+10	1	-1E+10	1
4902549	70	C	07/18/2022	22:00	-131.314	47.025	0	1215.30	0	2.9810	0	34.4440	0	27.451	0	1201.699	0	10.3	4	3.2	4	-1E+10	1	-1E+10	1	-1E+10	1	-1E+10	1	-1E+10	1	-1E+10	1
4902549	70	C	07/18/2022	22:00	-131.314	47.025	0	1225.30	0	2.9110	0	34.4420	0	27.455	0	1211.558	0	10.2	4	3.2	4	-1E+10	1	-1E+10	1	-1E+10	1	-1E+10	1	-1E+10	1	-1E+10	1
4902549	70	C	07/18/2022	22:00	-131.314	47.025	0	1235.50	0	2.8620	0	34.4410	0	27.459	0	1221.614	0	10.4	4	3.2	4	-1E+10	1	-1E+10	1	-1E+10	1	-1E+10	1	-1E+10	1	-1E+10	1
4902549	70	C	07/18/2022	22:00	-131.314	47.025	0	1245.60	0	2.8290	0	34.4430	0	27.463	0	1231.571	0	10.6	4	3.3	4	-1E+10	1	-1E+10	1	-1E+10	1	-1E+10	1	-1E+10	1	-1E+10	1
4902549	70	C	07/18/2022	22:00	-131.314	47.025	0	1255.40	0	2.8050	0	34.4460	0	27.468	0	1241.232	0	10.8	4	3.3	4	-1E+10	1	-1E+10	1	-1E+10	1	-1E+10	1	-1E+10	1	-1E+10	1
4902549	70	C	07/18/2022	22:00	-131.314	47.025	0	1265.50	0	2.7910	0	34.4470	0	27.470	0	1251.188	0	11.1	4	3.4	4	-1E+10	1	-1E+10	1	-1E+10	1	-1E+10	1	-1E+10	1	-1E+10	1
4902549	70	C	07/18/2022	22:00	-131.314	47.025	0	1275.50	0	2.7710	0	34.4500	0	27.474	0	1261.045	0	11.4	4	3.5	4	-1E+10	1	-1E+10	1	-1E+10	1	-1E+10	1	-1E+10	1	-1E+10	1
4902549	70	C	07/18/2022	22:00	-131.314	47.025	0	1285.50	0	2.7520	0	34.4530	0	27.478	0	1270.901	0	11.8	4	3.6	4	-1E+10	1	-1E+10	1	-1E+10	1	-1E+10	1	-1E+10	1	-1E+10	1
4902549	70	C	07/18/2022	22:00	-131.314	47.025	0	1295.40	0	2.7410	0	34.4560	0	27.482	0	1280.659	0	12.1	4	3.7	4	-1E+10	1	-1E+10	1	-1E+10	1	-1E+10	1	-1E+10	1	-1E+10	1
4902549	70	C	07/18/2022	22:00	-131.314	47.025	0	1305.20	0	2.7310	0	34.4580	0	27.484	0	1290.317	0	12.3	4	3.8	4	-1E+10	1	-1E+10	1	-1E+10	1	-1E+10	1	-1E+10	1	-1E+10	1
4902549	70	C	07/18/2022	22:00	-131.314	47.025	0	1315.40	0	2.7230	0	34.4590	0	27.486	0	1300.369	0	12.6	4	3.9	4	-1E+10	1	-1E+10	1	-1E+10	1	-1E+10	1	-1E+10	1	-1E+10	1
4902549	70	C	07/18/2022	22:00	-131.314	47.025	0	1325.60	0	2.7090	0	34.4610	0	27.489	0	1310.421	0	13.0	4	4.0	4	-1E+10	1	-1E+10	1	-1E+10	1	-1E+10	1	-1E+10	1	-1E+10	1
4902549	70	C	07/18/2022	22:00	-131.314	47.025	0	1335.70	0	2.6850	0	34.4650	0	27.494	0	1320.374	0	13.4	4	4.1	4	-1E+10	1	-1E+10	1	-1E+10	1	-1E+10	1	-1E+10	1	-1E+10	1
4902549	70	C	07/18/2022	22:00	-131.314	47.025	0	1345.70	0	2.6710	0	34.4670	0	27.497	0	1330.227	0	13.8	4	4.2	4	-1E+10	1	-1E+10	1	-1E+10	1	-1E+10	1	-1E+10	1	-1E+10	1
4902549	70	C	07/18/2022	22:00	-131.314	47.025	0	1355.50	0	2.6620	0	34.4690	0	27.499	0	1339.884	0	14.1	4	4.3	4	-1E+10	1	-1E+10	1	-1E+10	1	-1E+10	1	-1E+10	1	-1E+10	1
4902549	70	C	07/18/2022	22:00	-131.314	47.025	0	1365.50	0	2.6480	0	34.4720	0	27.503	0	1349.737	0	14.5	4	4.4	4	-1E+10	1	-1E+10	1	-1E+10	1	-1E+10	1	-1E+10	1	-1E+10	1
4902549	70	C	07/18/2022	22:00	-131.314	47.025	0	1375.50	0	2.6270	0	34.4740	0	27.506	0	1359.589	0	14.8	4	4.5	4	-1E+10	1	-1E+10	1	-1E+10	1	-1E+10	1	-1E+10	1	-1E+10	1
4902549	70	C	07/18/2022	22:00	-131.314	47.025	0	1385.50	0	2.6070	0	34.4750	0	27.509	0	1369.441	0	14.9	4	4.6	4	-1E+10	1	-1E+10	1	-1E+10	1	-1E+10	1	-1E+10	1	-1E+10	1
4902549	70	C	07/18/2022	22:00	-131.314	47.025	0	1395.50	0	2.5860	0	34.4770	0	27.512	0	1379.292	0	15.0	4	4.6	4	-1E+10	1	-1E+10	1	-1E+10	1	-1E+10	1	-1E+10	1	-1E+10	1
4902549	70	C	07/18/2022	22:00	-131.314	47.025	0	1405.50	0	2.5620	0	34.4770	0	27.515	0	1389.143	0	15.3	4	4.7	4	-1E+10	1	-1E+10	1	-1E+10	1	-1E+10	1	-1E+10	1	-1E+10	1
4902549	70	C	07/18/2022	22:00	-131.314	47.025	0	1415.70	0	2.5500	0	34.4800	0	27.518	0	1399.191	0	15.7	4	4.8	4	-1E+10	1	-1E+10	1	-1E+10	1	-1E+10	1	-1E+10	1	-1E+10	1
4902549	70	C	07/18/2022	22:00	-131.314	47.025	0	1425.60	0	2.5430	0	34.4810	0	27.519	0	1408.942	0	16.0	4	4.9	4	-1E+10	1	-1E+10	1	-1E+10	1	-1E+10	1	-1E+10	1	-1E+10	1
4902549	70	C	07/18/2022	22:00	-131.314	47.025	0	1435.60	0	2.5360	0	34.4830	0	27.522	0	1418.792	0	16.4	4	5.0	4	-1E+10	1	-1E+10	1	-1E+10	1	-1E+10	1	-1E+10	1	-1E+10	1
4902549	70	C	07/18/2022	22:00	-131.314	47.025	0	1446.10	0	2.5290	0	34.4840	0	27.523	0	1429.133	0	16.8	4	5.1	4	-1E+10	1	-1E+10	1	-1E+10	1	-1E+10	1	-1E+10	1	-1E+10	1
4902549	70	C	07/18/2022	22:00	-131.314	47.025	0	1455.60	0	2.5200	0	34.4870	0	27.526	0	1438.489	0	17.7	4	5.4	4	-1E+10	1	-1E+10	1	-1E+10	1	-1E+10	1	-1E+10	1	-1E+10	1
4902549	70	C	07/18/2022	22:00	-131.314	47.025	0	1465.20	0	2.5260	0	34.4920	0	27.530	0	1447.944	0	18.4	4	5.6	4	-1E+10	1	-1E+10	1	-1E+10	1	-1E+10	1	-1E+10	1	-1E+10	1
4902549	70	C	07/18/2022	22:00	-131.314	47.025	0	1475.40	0	2.5060	0	34.4930	0	27.532	0	1457.988	0	18.6	4	5.7	4	-1E+10	1	-1E+10	1	-1E+10	1	-1E+10	1	-1E+10	1	-1E+10	1
4902549	70	C	07/18/2022	22:00	-131.314	47.025	0	1485.40	0	2.4980	0	34.4940	0	27.534	0	1467.836	0	19.1	4	5.8	4	-1E+10	1	-1E+10	1	-1E+10	1	-1E+10	1	-1E+10	1	-1E+10	1
4902549	70	C	07/18/2022	22:00	-131.314	47.025	0	1495.20	0	2.4820	0	34.4980	0	27.539	0	1477.485	0	19.8	4	6.1	4	-1E+10	1	-1E+10	1	-1E+10	1	-1E+10	1	-1E+10	1	-1E+10	1
4902549	70	C	07/18/2022	22:00	-131.314	47.025	0	1505.30	0	2.4710	0	34.4990	0	27.540	0	1487.430	0	20.4	4	6.2	4	-1E+10	1	-1E+10	1	-1E+10	1	-1E+10	1	-1E+10	1	-1E+10	1
4902549	70	C	07/18/2022	22:00	-131.314	47.025	0	1515.40	0	2.4720	0	34.5020	0	27.543	0	1497.375	0	21.0	4	6.4	4	-1E+10	1	-1E+10	1	-1E+10	1	-1E+10	1	-1E+10	1	-1E+10	1
4902549	70	C	07/18/2022	22:00	-131.314	47.025	0	1525.70	0	2.4540	0	34.5040	0	27.546	0	1507.515	0	21.9	4	6.7	4	-1E+10	1	-1E+10	1	-1E+10	1	-1E+10	1	-1E+10	1	-1E+10	1
4902549	70	C	07/18/2022	22:00	-131.314	47.025	0	1535.50	0	2.4440	0	34.5070	0	27.549	0	1517.164	0	22.3	4	6.8	4	-1E+10	1	-1E+10	1	-1E+10	1	-1E+10	1	-1E+10	1	-1E+10	1
4902549	70	C	07/18/2022	22:00	-131.314	47.025	0	1545.20	0	2.4390	0	34.5090	0	27.551	0	1526.713	0	23.1	4	7.0	4	-1E+10	1	-1E+10	1	-1E+10	1	-1E+10	1	-1E+10	1	-1E+10	1
4902549	70	C	07/18/2022	22:00	-131.314	47.025	0	1555.30	0	2.4340	0	34.5130	0	27.555	0	1536.655	0	24.0	4	7.3	4	-1E+10	1	-1E+10	1	-1E+10	1	-1E+10	1	-1E+10	1	-1E+10	1
4902549	70	C	07/18/2022	22:00	-131.314	47.025	0	1565.20	0	2.4180	0	34.5150	0	27.558	0	1546.400	0	24.7	4	7.5	4	-1E+10	1	-1E+10	1	-1E+10	1	-1E+10	1	-1E+10	1	-1E+10	1
4902549	70	C	07/18/2022	22:00	-131.314	47.025	0	1575.10	0	2.3930	0	34.5170	0	27.562	0	1556.145	0	24.9	4	7.6	4	-1E+10	1	-1E+10	1	-1E+10	1	-1E+10	1	-1E+10	1	-1E+10	1
4902549	70	C	07/18/2022	22:00	-131.314	47.025	0	1585.30	0	2.3850	0	34.5180	0	27.563	0	1566.185	0	25.5	4	7.8	4	-1E+10	1	-1E+10	1	-1E+10	1	-1E+10	1	-1E+10	1	-1E+10	1
4902549	70	C	07/18/2022	22:00	-131.314	47.025	0	1595.50	0	2.3520	0	34.5190	0	27.567	0	1576.224	0	25.9	4	7.9	4	-1E+10	1	-1E+10	1	-1E+10	1	-1E+10	1	-1E+10	1	-1E+10	1
4902549	70	C	07/18/2022	22:00	-131.314	47.025	0	1605.40	0	2.3350	0	34.5220	0	27.571	0	1585.967	0	27.0	4	8.2	4	-1E+10	1	-1E+10	1	-1E+10	1	-1E+10	1	-1E+10	1	-1E+10	1
4902549	70	C	07/18/2022	22:00	-131.314	47.025	0	1615.00	0	2.3270	0	34.5250	0	27.574	0	1595.415	0	27.8	4	8.4	4	-1E+10	1	-1E+10	1	-1E+10	1	-1E+10	1	-1E+10	1	-1E+10	1
4902549	70	C	07/18/2022	22:00	-131.314	47.025	0	1625.00	0	2.3180	0	34.5270	0	27.576	0	1605.255	0	28.2	4	8.6	4	-1E+10	1	-1E+10	1	-1E+10	1	-1E+10	1	-1E+10	1	-1E+10	1
4902549	70	C	07/18/2022	22:00	-131.314	47.025	0	1635.10	0	2.3060	0	34.5280	0	27.578	0	1615.194	0	28.7	4	8.7	4	-1E+10	1	-1E+10	1	-1E+10	1	-1E+10	1	-1E+10	1	-1E+10	1
4902549	70	C	07/18/2022	22:00	-131.314	47.025	0	1645.30	0	2.2920	0	34.5300	0	27.581	0	1625.231	0	29.4	4	8.9	4	-1E+10	1	-1E+10	1	-1E+10	1	-1E+10	1	-1E+10	1	-1E+10	1
4902549	70	C	07/18/2022	22:00	-131.314	47.025	0	1655.20	0	2.2750	0	34.5320	0	27.584	0	1634.972	0	30.1	4	9.1	4	-1E+10	1	-1E+10	1	-1E+10	1	-1E+10	1	-1E+10	1	-1E+10	1
4902549	70	C	07/18/2022	22:00	-131.314	47.025	0	1665.20	0	2.2610	0	34.5340	0	27.586	0	1644.811	0	30.7	4	9.3	4	-1E+10	1	-1E+10	1	-1E+10	1	-1E+10	1	-1E+10	1	-1E+10	1
4902549	70	C	07/18/2022	22:00	-131.314	47.025	0	1675.30	0	2.2460	0	34.5360	0	27.589	0	1654.748	0	31.4	4	9.5	4	-1E+10	1	-1E+10	1	-1E+10	1	-1E+10	1	-1E+10	1	-1E+10	1
4902549	70	C	07/18/2022	22:00	-131.314	47.025	0	1685.40	0	2.2340	0	34.5370	0	27.591	0	1664.684	0	32.0	4	9.7	4	-1E+10	1	-1E+10	1	-1E+10	1	-1E+10	1	-1E+10	1	-1E+10	1
4902549	70	C	07/18/2022	22:00	-131.314	47.025	0	1695.80	0	2.2190	0	34.5400	0	27.595	0	1674.916	0	32.8	4	9.9	4	-1E+10	1	-1E+10	1	-1E+10	1	-1E+10	1	-1E+10	1	-1E+10	1
4902549	70	C	07/18/2022	22:00	-131.314	47.025	0	1705.40	0	2.2070	0	34.5420	0	27.597	0	1684.359	0	33.5	4	10.2	4	-1E+10	1	-1E+10	1	-1E+10	1	-1E+10	1	-1E+10	1	-1E+10	1
4902549	70	C	07/18/2022	22:00	-131.314	47.025	0	1715.20	0	2.1920	0	34.5440	0	27.600	0	1693.999	0	33.9	4	10.3	4	-1E+10	1	-1E+10	1	-1E+10	1	-1E+10	1	-1E+10	1	-1E+10	1
4902549	70	C	07/18/2022	22:00	-131.314	47.025	0	1725.70	0	2.1860	0	34.5440	0	27.601	0	1704.327	0	34.3	4	10.4	4	-1E+10	1	-1E+10	1	-1E+10	1	-1E+10	1	-1E+10	1	-1E+10	1
4902549	70	C	07/18/2022	22:00	-131.314	47.025	0	1735.70	0	2.1780	0	34.5450	0	27.602	0	1714.163	0	34.8	4	10.5	4	-1E+10	1	-1E+10	1	-1E+10	1	-1E+10	1	-1E+10	1	-1E+10	1
4902549	70	C	07/18/2022	22:00	-131.314	47.025	0	1745.20	0	2.1620	0	34.5460	0	27.604	0	1723.507	0	35.6	4	10.8	4	-1E+10	1	-1E+10	1	-1E+10	1	-1E+10	1	-1E+10	1	-1E+10	1
4902549	70	C	07/18/2022	22:00	-131.314	47.025	0	1755.10	0	2.1490	0	34.5500	0	27.609	0	1733.243	0	36.6	4	11.1	4	-1E+10	1	-1E+10	1	-1E+10	1	-1E+10	1	-1E+10	1	-1E+10	1
4902549	70	C	07/18/2022	22:00	-131.314	47.025	0	1765.10	0	2.1410	0	34.5510	0	27.610	0	1743.078	0	37.3	4	11.3	4	-1E+10	1	-1E+10	1	-1E+10	1	-1E+10	1	-1E+10	1	-1E+10	1
4902549	70	C	07/18/2022	22:00	-131.314	47.025	0	1775.40	0	2.1260	0	34.5530	0	27.613	0	1753.207	0	38.3	4	11.6	4	-1E+10	1	-1E+10	1	-1E+10	1	-1E+10	1	-1E+10	1	-1E+10	1
4902549	70	C	07/18/2022	22:00	-131.314	47.025	0	1785.30	0	2.1110	0	34.5550	0	27.616	0	1762.942	0	39.2	4	11.8	4	-1E+10	1	-1E+10	1	-1E+10	1	-1E+10	1	-1E+10	1	-1E+10	1
4902549	70	C	07/18/2022	22:00	-131.314	47.025	0	1795.30	0	2.0950	0	34.5580	0	27.620	0	1772.775	0	40.1	4	12.1	4	-1E+10	1	-1E+10	1	-1E+10	1	-1E+10	1	-1E+10	1	-1E+10	1
4902549	70	C	07/18/2022	22:00	-131.314	47.025	0	1805.30	0	2.0790	0	34.5600	0	27.623	0	1782.607	0	40.8	4	12.3	4	-1E+10	1	-1E+10	1	-1E+10	1	-1E+10	1	-1E+10	1	-1E+10	1
4902549	70	C	07/18/2022	22:00	-131.314	47.025	0	1815.40	0	2.0720	0	34.5610	0	27.624	0	1792.538	0	41.4	4	12.5	4	-1E+10	1	-1E+10	1	-1E+10	1	-1E+10	1	-1E+10	1	-1E+10	1
4902549	70	C	07/18/2022	22:00	-131.314	47.025	0	1825.60	0	2.0620	0	34.5630	0	27.626	0	1802.566	0	42.1	4	12.7	4	-1E+10	1	-1E+10	1	-1E+10	1	-1E+10	1	-1E+10	1	-1E+10	1
4902549	70	C	07/18/2022	22:00	-131.314	47.025	0	1835.60	0	2.0520	0	34.5650	0	27.629	0	1812.397	0	42.7	4	12.9	4	-1E+10	1	-1E+10	1	-1E+10	1	-1E+10	1	-1E+10	1	-1E+10	1
4902549	70	C	07/18/2022	22:00	-131.314	47.025	0	1845.70	0	2.0440	0	34.5660	0	27.630	0	1822.326	0	43.5	4	13.1	4	-1E+10	1	-1E+10	1	-1E+10	1	-1E+10	1	-1E+10	1	-1E+10	1
4902549	70	C	07/18/2022	22:00	-131.314	47.025	0	1855.70	0	2.0290	0	34.5690	0	27.634	0	1832.157	0	44.2	4	13.3	4	-1E+10	1	-1E+10	1	-1E+10	1	-1E+10	1	-1E+10	1	-1E+10	1
4902549	70	C	07/18/2022	22:00	-131.314	47.025	0	1865.70	0	2.0250	0	34.5690	0	27.634	0	1841.987	0	44.7	4	13.5	4	-1E+10	1	-1E+10	1	-1E+10	1	-1E+10	1	-1E+10	1	-1E+10	1
4902549	70	C	07/18/2022	22:00	-131.314	47.025	0	1875.60	0	2.0160	0	34.5710	0	27.637	0	1851.718	0	45.5	4	13.7	4	-1E+10	1	-1E+10	1	-1E+10	1	-1E+10	1	-1E+10	1	-1E+10	1
4902549	70	C	07/18/2022	22:00	-131.314	47.025	0	1885.50	0	2.0060	0	34.5720	0	27.638	0	1861.448	0	46.1	4	13.9	4	-1E+10	1	-1E+10	1	-1E+10	1	-1E+10	1	-1E+10	1	-1E+10	1
4902549	70	C	07/18/2022	22:00	-131.314	47.025	0	1895.50	0	1.9970	0	34.5740	0	27.641	0	1871.277	0	46.7	4	14.1	4	-1E+10	1	-1E+10	1	-1E+10	1	-1E+10	1	-1E+10	1	-1E+10	1
4902549	70	C	07/18/2022	22:00	-131.314	47.025	0	1905.40	0	1.9930	0	34.5750	0	27.642	0	1881.007	0	47.1	4	14.2	4	-1E+10	1	-1E+10	1	-1E+10	1	-1E+10	1	-1E+10	1	-1E+10	1
4902549	70	C	07/18/2022	22:00	-131.314	47.025	0	1915.40	0	1.9870	0	34.5760	0	27.643	0	1890.834	0	47.6	4	14.3	4	-1E+10	1	-1E+10	1	-1E+10	1	-1E+10	1	-1E+10	1	-1E+10	1
4902549	70	C	07/18/2022	22:00	-131.314	47.025	0	1925.50	0	1.9820	0	34.5770	0	27.644	0	1900.760	0	47.9	4	14.4	4	-1E+10	1	-1E+10	1	-1E+10	1	-1E+10	1	-1E+10	1	-1E+10	1
4902549	70	C	07/18/2022	22:00	-131.314	47.025	0	1935.80	0	1.9780	0	34.5780	0	27.646	0	1910.881	0	48.4	4	14.6	4	-1E+10	1	-1E+10	1	-1E+10	1	-1E+10	1	-1E+10	1	-1E+10	1
4902549	70	C	07/18/2022	22:00	-131.314	47.025	0	1945.80	0	1.9700	0	34.5790	0	27.647	0	1920.707	0	49.0	4	14.8	4	-1E+10	1	-1E+10	1	-1E+10	1	-1E+10	1	-1E+10	1	-1E+10	1
4902549	70	C	07/18/2022	22:00	-131.314	47.025	0	1955.50	0	1.9600	0	34.5800	0	27.649	0	1930.238	0	49.8	4	15.0	4	-1E+10	1	-1E+10	1	-1E+10	1	-1E+10	1	-1E+10	1	-1E+10	1
4902549	70	C	07/18/2022	22:00	-131.314	47.025	0	1965.40	0	1.9530	0	34.5820	0	27.651	0	1939.965	0	50.2	4	15.1	4	-1E+10	1	-1E+10	1	-1E+10	1	-1E+10	1	-1E+10	1	-1E+10	1
4902549	70	C	07/18/2022	22:00	-131.314	47.025	0	1975.40	0	1.9480	0	34.5830	0	27.652	0	1949.790	0	50.8	4	15.3	4	-1E+10	1	-1E+10	1	-1E+10	1	-1E+10	1	-1E+10	1	-1E+10	1
4902549	70	C	07/18/2022	22:00	-131.314	47.025	0	1985.60	0	1.9410	0	34.5840	0	27.653	0	1959.811	0	51.3	4	15.4	4	-1E+10	1	-1E+10	1	-1E+10	1	-1E+10	1	-1E+10	1	-1E+10	1
4902549	70	C	07/18/2022	22:00	-131.314	47.025	0	1995.60	0	1.9350	0	34.5850	0	27.655	0	1969.635	0	51.6	4	15.5	4	-1E+10	1	-1E+10	1	-1E+10	1	-1E+10	1	-1E+10	1	-1E+10	1
4902549	70	C	07/18/2022	22:00	-131.314	47.025	0	2005.50	0	1.9320	0	34.5860	0	27.656	0	1979.360	0	51.9	4	15.6	4	-1E+10	1	-1E+10	1	-1E+10	1	-1E+10	1	-1E+10	1	-1E+10	1
4902549	70	C	07/18/2022	22:00	-131.314	47.025	0	2015.70	0	1.9260	0	34.5870	0	27.657	0	1989.380	0	52.2	4	15.7	4	-1E+10	1	-1E+10	1	-1E+10	1	-1E+10	1	-1E+10	1	-1E+10	1
4902549	70	C	07/18/2022	22:00	-131.314	47.025	0	2025.40	0	1.9260	0	34.5880	0	27.658	0	1998.908	0	52.3	4	15.8	4	-1E+10	1	-1E+10	1	-1E+10	1	-1E+10	1	-1E+10	1	-1E+10	1
4902549	70	C	07/18/2022	22:00	-131.314	47.025	0	2035.50	0	1.9210	0	34.5880	0	27.658	0	2008.828	0	52.4	4	15.8	4	-1E+10	1	-1E+10	1	-1E+10	1	-1E+10	1	-1E+10	1	-1E+10	1
4902549	70	C	07/18/2022	22:00	-131.314	47.025	0	2040.80	0	1.9190	0	34.5890	0	27.659	0	2014.033	0	52.1	4	15.7	4	-1E+10	1	-1E+10	1	-1E+10	1	-1E+10	1	-1E+10	1	-1E+10	1
4902549	70	C	07/18/2022	22:00	-131.314	47.025	0																										
4902549	71	C	07/29/2022	03:07	-131.714	47.085	0	0.10	0	16.3220	0	32.2260	0	23.543	0	0.099	0	255.0	4	103.6	4	-1E+10	1	-1E+10	1	-1E+10	1	-1E+10	1	-1E+10	1	-1E+10	1
4902549	71	C	07/29/2022	03:07	-131.714	47.085	0	0.20	0	16.3230	0	32.2250	0	23.542	0	0.198	0	-1e10	1	-1e10	1	-1E+10	1	-1E+10	1	-1E+10	1	-1E+10	1	-1E+10	1	-1E+10	1
4902549	71	C	07/29/2022	03:07	-131.714	47.085	0	0.40	0	16.3290	0	31.8690	0	23.268	0	0.397	0	249.4	4	101.1	4	-1E+10	1	-1E+10	1	-1E+10	1	-1E+10	1	-1E+10	1	-1E+10	1
4902549	71	C	07/29/2022	03:07	-131.714	47.085	0	1.00	0	16.1840	0	31.9380	0	23.353	0	0.992	0	249.4	4	100.9	4	-1E+10	1	-1E+10	1	-1E+10	1	-1E+10	1	-1E+10	1	-1E+10	1
4902549	71	C	07/29/2022	03:07	-131.714	47.085	0	1.90	0	15.9920	0	32.0780	0	23.504	0	1.884	0	250.0	4	100.8	4	-1E+10	1	-1E+10	1	-1E+10	1	-1E+10	1	-1E+10	1	-1E+10	1
4902549	71	C	07/29/2022	03:07	-131.714	47.085	0	2.90	0	15.8720	0	32.1590	0	23.593	0	2.876	0	250.5	4	100.8	4	-1E+10	1	-1E+10	1	-1E+10	1	-1E+10	1	-1E+10	1	-1E+10	1
4902549	71	C	07/29/2022	03:07	-131.714	47.085	0	3.80	0	15.8260	0	32.1880	0	23.625	0	3.768	0	250.8	4	100.9	4	-1E+10	1	-1E+10	1	-1E+10	1	-1E+10	1	-1E+10	1	-1E+10	1
4902549	71	C	07/29/2022	03:07	-131.714	47.085	0	5.00	0	15.7810	0	32.2290	0	23.667	0	4.958	0	251.0	4	100.9	4	-1E+10	1	-1E+10	1	-1E+10	1	-1E+10	1	-1E+10	1	-1E+10	1
4902549	71	C	07/29/2022	03:07	-131.714	47.085	0	6.10	0	15.7110	0	32.2320	0	23.685	0	6.049	0	251.4	4	100.9	4	-1E+10	1	-1E+10	1	-1E+10	1	-1E+10	1	-1E+10	1	-1E+10	1
4902549	71	C	07/29/2022	03:07	-131.714	47.085	0	7.00	0	15.6160	0	32.2310	0	23.705	0	6.942	0	251.7	4	100.9	4	-1E+10	1	-1E+10	1	-1E+10	1	-1E+10	1	-1E+10	1	-1E+10	1
4902549	71	C	07/29/2022	03:07	-131.714	47.085	0	7.70	0	15.4980	0	32.2420	0	23.740	0	7.636	0	252.1	4	100.8	4	-1E+10	1	-1E+10	1	-1E+10	1	-1E+10	1	-1E+10	1	-1E+10	1
4902549	71	C	07/29/2022	03:07	-131.714	47.085	0	8.70	0	15.4190	0	32.2330	0	23.750	0	8.628	0	252.6	4	100.8	4	-1E+10	1	-1E+10	1	-1E+10	1	-1E+10	1	-1E+10	1	-1E+10	1
4902549	71	C	07/29/2022	03:07	-131.714	47.085	0	9.70	0	15.4020	0	32.2330	0	23.754	0	9.619	0	252.7	4	100.9	4	-1E+10	1	-1E+10	1	-1E+10	1	-1E+10	1	-1E+10	1	-1E+10	1
4902549	71	C	07/29/2022	03:07	-131.714	47.085	0	10.70	0	15.3900	0	32.2330	0	23.756	0	10.611	0	252.7	4	100.8	4	-1E+10	1	-1E+10	1	-1E+10	1	-1E+10	1	-1E+10	1	-1E+10	1
4902549	71	C	07/29/2022	03:07	-131.714	47.085	0	11.70	0	15.3830	0	32.2330	0	23.758	0	11.602	0	252.8	4	100.8	4	-1E+10	1	-1E+10	1	-1E+10	1	-1E+10	1	-1E+10	1	-1E+10	1
4902549	71	C	07/29/2022	03:07	-131.714	47.085	0	12.70	0	15.3750	0	32.2330	0	23.760	0	12.594	0	252.8	4	100.8	4	-1E+10	1	-1E+10	1	-1E+10	1	-1E+10	1	-1E+10	1	-1E+10	1
4902549	71	C	07/29/2022	03:07	-131.714	47.085	0	13.70	0	15.3710	0	32.2330	0	23.761	0	13.586	0	252.9	4	100.9	4	-1E+10	1	-1E+10	1	-1E+10	1	-1E+10	1	-1E+10	1	-1E+10	1
4902549	71	C	07/29/2022	03:07	-131.714	47.085	0	14.70	0	15.3670	0	32.2340	0	23.762	0	14.577	0	253.0	4	100.9	4	-1E+10	1	-1E+10	1	-1E+10	1	-1E+10	1	-1E+10	1	-1E+10	1
4902549	71	C	07/29/2022	03:07	-131.714	47.085	0	15.90	0	15.3640	0	32.2330	0	23.762	0	15.767	0	253.1	4	100.9	4	-1E+10	1	-1E+10	1	-1E+10	1	-1E+10	1	-1E+10	1	-1E+10	1
4902549	71	C	07/29/2022	03:07	-131.714	47.085	0	17.40	0	15.3540	0	32.2340	0	23.765	0	17.255	0	253.4	4	101.0	4	-1E+10	1	-1E+10	1	-1E+10	1	-1E+10	1	-1E+10	1	-1E+10	1
4902549	71	C	07/29/2022	03:07	-131.714	47.085	0	18.10	0	15.3480	0	32.2330	0	23.766	0	17.949	0	253.6	4	101.1	4	-1E+10	1	-1E+10	1	-1E+10	1	-1E+10	1	-1E+10	1	-1E+10	1
4902549	71	C	07/29/2022	03:07	-131.714	47.085	0	19.30	0	15.3430	0	32.2330	0	23.767	0	19.139	0	254.1	4	101.3	4	-1E+10	1	-1E+10	1	-1E+10	1	-1E+10	1	-1E+10	1	-1E+10	1
4902549	71	C	07/29/2022	03:07	-131.714	47.085	0	20.00	0	15.3410	0	32.2330	0	23.767	0	19.833	0	254.4	4	101.4	4	-1E+10	1	-1E+10	1	-1E+10	1	-1E+10	1	-1E+10	1	-1E+10	1
4902549	71	C	07/29/2022	03:07	-131.714	47.085	0	21.20	0	15.3380	0	32.2330	0	23.768	0	21.023	0	255.2	4	101.7	4	-1E+10	1	-1E+10	1	-1E+10	1	-1E+10	1	-1E+10	1	-1E+10	1
4902549	71	C	07/29/2022	03:07	-131.714	47.085	0	21.80	0	15.3370	0	32.2330	0	23.768	0	21.618	0	255.8	4	102.0	4	-1E+10	1	-1E+10	1	-1E+10	1	-1E+10	1	-1E+10	1	-1E+10	1
4902549	71	C	07/29/2022	03:07	-131.714	47.085	0	22.80	0	15.3360	0	32.2320	0	23.768	0	22.609	0	257.1	4	102.5	4	-1E+10	1	-1E+10	1	-1E+10	1	-1E+10	1	-1E+10	1	-1E+10	1
4902549	71	C	07/29/2022	03:07	-131.714	47.085	0	23.90	0	15.3260	0	32.2310	0	23.769	0	23.700	0	259.0	4	103.2	4	-1E+10	1	-1E+10	1	-1E+10	1	-1E+10	1	-1E+10	1	-1E+10	1
4902549	71	C	07/29/2022	03:07	-131.714	47.085	0	25.10	0	15.2930	0	32.2260	0	23.773	0	24.890	0	263.3	4	104.8	4	-1E+10	1	-1E+10	1	-1E+10	1	-1E+10	1	-1E+10	1	-1E+10	1
4902549	71	C	07/29/2022	03:07	-131.714	47.085	0	26.00	0	14.8930	0	32.2210	0	23.855	0	25.782	0	268.6	4	106.1	4	-1E+10	1	-1E+10	1	-1E+10	1	-1E+10	1	-1E+10	1	-1E+10	1
4902549	71	C	07/29/2022	03:07	-131.714	47.085	0	26.90	0	14.4410	0	32.2060	0	23.939	0	26.675	0	273.3	4	107.0	4	-1E+10	1	-1E+10	1	-1E+10	1	-1E+10	1	-1E+10	1	-1E+10	1
4902549	71	C	07/29/2022	03:07	-131.714	47.085	0	27.90	0	14.0390	0	32.2010	0	24.018	0	27.666	0	276.3	4	107.3	4	-1E+10	1	-1E+10	1	-1E+10	1	-1E+10	1	-1E+10	1	-1E+10	1
4902549	71	C	07/29/2022	03:07	-131.714	47.085	0	29.00	0	13.6460	0	32.1970	0	24.095	0	28.757	0	278.6	4	107.3	4	-1E+10	1	-1E+10	1	-1E+10	1	-1E+10	1	-1E+10	1	-1E+10	1
4902549	71	C	07/29/2022	03:07	-131.714	47.085	0	30.20	0	13.2350	0	32.1780	0	24.163	0	29.947	0	280.0	4	107.0	4	-1E+10	1	-1E+10	1	-1E+10	1	-1E+10	1	-1E+10	1	-1E+10	1
4902549	71	C	07/29/2022	03:07	-131.714	47.085	0	30.90	0	12.8070	0	32.1810	0	24.249	0	30.641	0	281.3	4	106.5	4	-1E+10	1	-1E+10	1	-1E+10	1	-1E+10	1	-1E+10	1	-1E+10	1
4902549	71	C	07/29/2022	03:07	-131.714	47.085	0	32.10	0	12.6190	0	32.1670	0	24.274	0	31.831	0	280.9	4	105.9	4	-1E+10	1	-1E+10	1	-1E+10	1	-1E+10	1	-1E+10	1	-1E+10	1
4902549	71	C	07/29/2022	03:07	-131.714	47.085	0	32.90	0	12.4030	0	32.1680	0	24.316	0	32.624	0	279.2	4	104.8	4	-1E+10	1	-1E+10	1	-1E+10	1	-1E+10	1	-1E+10	1	-1E+10	1
4902549	71	C	07/29/2022	03:07	-131.714	47.085	0	33.90	0	11.8700	0	32.1610	0	24.410	0	33.616	0	278.8	4	103.5	4	-1E+10	1	-1E+10	1	-1E+10	1	-1E+10	1	-1E+10	1	-1E+10	1
4902549	71	C	07/29/2022	03:07	-131.714	47.085	0	34.80	0	11.6810	0	32.1620	0	24.446	0	34.508	0	277.1	4	102.5	4	-1E+10	1	-1E+10	1	-1E+10	1	-1E+10	1	-1E+10	1	-1E+10	1
4902549	71	C	07/29/2022	03:07	-131.714	47.085	0	35.80	0	11.4730	0	32.1620	0	24.483	0	35.499	0	275.7	4	101.5	4	-1E+10	1	-1E+10	1	-1E+10	1	-1E+10	1	-1E+10	1	-1E+10	1
4902549	71	C	07/29/2022	03:07	-131.714	47.085	0	37.00	0	11.1750	0	32.1680	0	24.541	0	36.689	0	274.9	4	100.6	4	-1E+10	1	-1E+10	1	-1E+10	1	-1E+10	1	-1E+10	1	-1E+10	1
4902549	71	C	07/29/2022	03:07	-131.714	47.085	0	38.10	0	10.8350	0	32.1750	0	24.606	0	37.780	0	275.0	4	99.9	4	-1E+10	1	-1E+10	1	-1E+10	1	-1E+10	1	-1E+10	1	-1E+10	1
4902549	71	C	07/29/2022	03:07	-131.714	47.085	0	38.90	0	10.7610	0	32.1730	0	24.618	0	38.573	0	274.8	4	99.7	4	-1E+10	1	-1E+10	1	-1E+10	1	-1E+10	1	-1E+10	1	-1E+10	1
4902549	71	C	07/29/2022	03:07	-131.714	47.085	0	39.70	0	10.7220	0	32.1730	0	24.624	0	39.366	0	274.1	4	99.4	4	-1E+10	1	-1E+10	1	-1E+10	1	-1E+10	1	-1E+10	1	-1E+10	1
4902549	71	C	07/29/2022	03:07	-131.714	47.085	0	40.90	0	10.5870	0	32.1740	0	24.648	0	40.556	0	273.3	4	98.8	4	-1E+10	1	-1E+10	1	-1E+10	1	-1E+10	1	-1E+10	1	-1E+10	1
4902549	71	C	07/29/2022	03:07	-131.714	47.085	0	41.90	0	10.3760	0	32.1880	0	24.695	0	41.548	0	273.2	4	98.3	4	-1E+10	1	-1E+10	1	-1E+10	1	-1E+10	1	-1E+10	1	-1E+10	1
4902549	71	C	07/29/2022	03:07	-131.714	47.085	0	42.90	0	10.1410	0	32.1950	0	24.740	0	42.539	0	273.6	4	97.9	4	-1E+10	1	-1E+10	1	-1E+10	1	-1E+10	1	-1E+10	1	-1E+10	1
4902549	71	C	07/29/2022	03:07	-131.714	47.085	0	44.00	0	10.0500	0	32.1900	0	24.751	0	43.630	0	273.6	4	97.7	4	-1E+10	1	-1E+10	1	-1E+10	1	-1E+10	1	-1E+10	1	-1E+10	1
4902549	71	C	07/29/2022	03:07	-131.714	47.085	0	44.80	0	9.9990	0	32.2000	0	24.768	0	44.423	0	273.4	4	97.6	4	-1E+10	1	-1E+10	1	-1E+10	1	-1E+10	1	-1E+10	1	-1E+10	1
4902549	71	C	07/29/2022	03:07	-131.714	47.085	0	45.90	0	9.9590	0	32.1980	0	24.773	0	45.514	0	273.0	4	97.3	4	-1E+10	1	-1E+10	1	-1E+10	1	-1E+10	1	-1E+10	1	-1E+10	1
4902549	71	C	07/29/2022	03:07	-131.714	47.085	0	47.10	0	9.9290	0	32.2000	0	24.779	0	46.703	0	272.4	4	97.1	4	-1E+10	1	-1E+10	1	-1E+10	1	-1E+10	1	-1E+10	1	-1E+10	1
4902549	71	C	07/29/2022	03:07	-131.714	47.085	0	48.00	0	9.8930	0	32.2030	0	24.788	0	47.596	0	272.1	4	96.9	4	-1E+10	1	-1E+10	1	-1E+10	1	-1E+10	1	-1E+10	1	-1E+10	1
4902549	71	C	07/29/2022	03:07	-131.714	47.085	0	48.90	0	9.8700	0	32.2030	0	24.791	0	48.488	0	271.6	4	96.7	4	-1E+10	1	-1E+10	1	-1E+10	1	-1E+10	1	-1E+10	1	-1E+10	1
4902549	71	C	07/29/2022	03:07	-131.714	47.085	0	50.10	0	9.8230	0	32.2040	0	24.800	0	49.678	0	271.2	4	96.4	4	-1E+10	1	-1E+10	1	-1E+10	1	-1E+10	1	-1E+10	1	-1E+10	1
4902549	71	C	07/29/2022	03:07	-131.714	47.085	0	50.90	0	9.7550	0	32.2150	0	24.819	0	50.471	0	270.8	4	96.1	4	-1E+10	1	-1E+10	1	-1E+10	1	-1E+10	1	-1E+10	1	-1E+10	1
4902549	71	C	07/29/2022	03:07	-131.714	47.085	0	52.00	0	9.6680	0	32.2160	0	24.834	0	51.561	0	270.8	4	96.0	4	-1E+10	1	-1E+10	1	-1E+10	1	-1E+10	1	-1E+10	1	-1E+10	1
4902549	71	C	07/29/2022	03:07	-131.714	47.085	0	53.20	0	9.6260	0	32.2170	0	24.842	0	52.751	0	270.5	4	95.8	4	-1E+10	1	-1E+10	1	-1E+10	1	-1E+10	1	-1E+10	1	-1E+10	1
4902549	71	C	07/29/2022	03:07	-131.714	47.085	0	53.90	0	9.5720	0	32.2200	0	24.853	0	53.445	0	270.6	4	95.7	4	-1E+10	1	-1E+10	1	-1E+10	1	-1E+10	1	-1E+10	1	-1E+10	1
4902549	71	C	07/29/2022	03:07	-131.714	47.085	0	55.00	0	9.5620	0	32.2190	0	24.854	0	54.536	0	270.1	4	95.5	4	-1E+10	1	-1E+10	1	-1E+10	1	-1E+10	1	-1E+10	1	-1E+10	1
4902549	71	C	07/29/2022	03:07	-131.714	47.085	0	56.10	0	9.5390	0	32.2200	0	24.858	0	55.626	0	269.5	4	95.2	4	-1E+10	1	-1E+10	1	-1E+10	1	-1E+10	1	-1E+10	1	-1E+10	1
4902549	71	C	07/29/2022	03:07	-131.714	47.085	0	57.20	0	9.4460	0	32.2260	0	24.878	0	56.717	0	269.5	4	95.0	4	-1E+10	1	-1E+10	1	-1E+10	1	-1E+10	1	-1E+10	1	-1E+10	1
4902549	71	C	07/29/2022	03:07	-131.714	47.085	0	58.10	0	9.3560	0	32.2330	0	24.898	0	57.609	0	269.1	4	94.7	4	-1E+10	1	-1E+10	1	-1E+10	1	-1E+10	1	-1E+10	1	-1E+10	1
4902549	71	C	07/29/2022	03:07	-131.714	47.085	0	58.90	0	9.2600	0	32.2370	0	24.916	0	58.402	0	268.9	4	94.5	4	-1E+10	1	-1E+10	1	-1E+10	1	-1E+10	1	-1E+10	1	-1E+10	1
4902549	71	C	07/29/2022	03:07	-131.714	47.085	0	60.00	0	9.1960	0	32.2400	0	24.928	0	59.493	0	268.2	4	94.1	4	-1E+10	1	-1E+10	1	-1E+10	1	-1E+10	1	-1E+10	1	-1E+10	1
4902549	71	C	07/29/2022	03:07	-131.714	47.085	0	60.90	0	9.1320	0	32.2460	0	24.943	0	60.385	0	267.6	4	93.8	4	-1E+10	1	-1E+10	1	-1E+10	1	-1E+10	1	-1E+10	1	-1E+10	1
4902549	71	C	07/29/2022	03:07	-131.714	47.085	0	61.90	0	9.0700	0	32.2450	0	24.952	0	61.377	0	267.3	4	93.5	4	-1E+10	1	-1E+10	1	-1E+10	1	-1E+10	1	-1E+10	1	-1E+10	1
4902549	71	C	07/29/2022	03:07	-131.714	47.085	0	62.80	0	9.0340	0	32.2460	0	24.958	0	62.269	0	266.5	4	93.2	4	-1E+10	1	-1E+10	1	-1E+10	1	-1E+10	1	-1E+10	1	-1E+10	1
4902549	71	C	07/29/2022	03:07	-131.714	47.085	0	63.90	0	8.9560	0	32.2470	0	24.971	0	63.359	0	265.8	4	92.8	4	-1E+10	1	-1E+10	1	-1E+10	1	-1E+10	1	-1E+10	1	-1E+10	1
4902549	71	C	07/29/2022	03:07	-131.714	47.085	0	64.90	0	8.8830	0	32.2520	0	24.986	0	64.351	0	265.2	4	92.4	4	-1E+10	1	-1E+10	1	-1E+10	1	-1E+10	1	-1E+10	1	-1E+10	1
4902549	71	C	07/29/2022	03:07	-131.714	47.085	0	65.90	0	8.8770	0	32.2530	0	24.988	0	65.342	0	264.3	4	92.1	4	-1E+10	1	-1E+10	1	-1E+10	1	-1E+10	1	-1E+10	1	-1E+10	1
4902549	71	C	07/29/2022	03:07	-131.714	47.085	0	67.00	0	8.8530	0	32.2540	0	24.993	0	66.433	0	263.3	4	91.7	4	-1E+10	1	-1E+10	1	-1E+10	1	-1E+10	1	-1E+10	1	-1E+10	1
4902549	71	C	07/29/2022	03:07	-131.714	47.085	0	68.10	0	8.7920	0	32.2570	0	25.004	0	67.523	0	262.3	4	91.2	4	-1E+10	1	-1E+10	1	-1E+10	1	-1E+10	1	-1E+10	1	-1E+10	1
4902549	71	C	07/29/2022	03:07	-131.714	47.085	0	69.30	0	8.7740	0	32.2610	0	25.010	0	68.713	0	260.8	4	90.7	4	-1E+10	1	-1E+10	1	-1E+10	1	-1E+10	1	-1E+10	1	-1E+10	1
4902549	71	C	07/29/2022	03:07	-131.714	47.085	0	70.10	0	8.7380	0	32.2660	0	25.019	0	69.506	0	259.7	4	90.2	4	-1E+10	1	-1E+10	1	-1E+10	1	-1E+10	1	-1E+10	1	-1E+10	1
4902549	71	C	07/29/2022	03:07	-131.714	47.085	0	71.30	0	8.6550	0	32.2680	0	25.034	0	70.695	0	258.4	4	89.6	4	-1E+10	1	-1E+10	1	-1E+10	1	-1E+10	1	-1E+10	1	-1E+10	1
4902549	71	C	07/29/2022	03:07	-131.714	47.085	0	72.10	0	8.6320	0	32.2690	0	25.038	0	71.488	0	257.4	4	89.2	4	-1E+10	1	-1E+10	1	-1E+10	1	-1E+10	1	-1E+10	1	-1E+10	1
4902549	71	C	07/29/2022	03:07	-131.714	47.085	0	73.10	0	8.5790	0	32.2730	0	25.049	0	72.480	0	255.7	4	88.5	4	-1E+10	1	-1E+10	1	-1E+10	1	-1E+10	1	-1E+10	1	-1E+10	1
4902549	71	C	07/29/2022	03:07	-131.714	47.085	0	73.90	0	8.5390	0	32.2760	0	25.057	0	73.273	0	254.3	4	87.9	4	-1E+10	1	-1E+10	1	-1E+10	1	-1E+10	1	-1E+10	1	-1E+10	1
4902549	71	C	07/29/2022	03:07	-131.714	47.085	0	75.10	0	8.5190	0	32.2800	0	25.063	0	74.463	0	251.3	4	86.9	4	-1E+10	1	-1E+10	1	-1E+10	1	-1E+10	1	-1E+10	1	-1E+10	1
4902549	71	C	07/29/2022	03:07	-131.714	47.085	0	76.00	0	8.5260	0	32.2920	0	25.072	0	75.355	0	249.5	4	86.3	4	-1E+10	1	-1E+10	1	-1E+10	1	-1E+10	1	-1E+10	1	-1E+10	1
4902549	71	C	07/29/2022	03:07	-131.714	47.085	0	76.80	0	8.4590	0	32.3350	0	25.116	0	76.148	0	248.3	4	85.7	4	-1E+10	1	-1E+10	1	-1E+10	1	-1E+10	1	-1E+10	1	-1E+10	1
4902549	71	C	07/29/2022	03:07	-131.714	47.085	0	77.90	0	8.3360	0	32.3430	0	25.140	0	77.238	0	247.0	4	85.1	4	-1E+10	1	-1E+10	1	-1E+10	1	-1E+10	1	-1E+10	1	-1E+10	1
4902549	71	C	07/29/2022	03:07	-131.714	47.085	0	79.10	0	8.3090	0	32.3420	0	25.143	0	78.428	0	244.7	4	84.2	4	-1E+10	1	-1E+10	1	-1E+10	1	-1E+10	1	-1E+10	1	-1E+10	1
4902549	71	C	07/29/2022	03:07	-131.714	47.085	0	80.00	0	8.2860	0	32.3820	0	25.178	0	79.320	0	242.8	4	83.6	4	-1E+10	1	-1E+10	1	-1E+10	1	-1E+10	1	-1E+10	1	-1E+10	1
4902549	71	C	07/29/2022	03:07	-131.714	47.085	0	81.20	0	8.1500	0	32.4020	0	25.214	0	80.510	0	241.0	4	82.7	4	-1E+10	1	-1E+10	1	-1E+10	1	-1E+10	1	-1E+10	1	-1E+10	1
4902549	71	C	07/29/2022	03:07	-131.714	47.085	0	81.90	0	8.1010	0	32.4270	0	25.240	0	81.203	0	239.3	4	82.0	4	-1E+10	1	-1E+10	1	-1E+10	1	-1E+10	1	-1E+10	1	-1E+10	1
4902549	71	C	07/29/2022	03:07	-131.714	47.085	0	83.10	0	8.0540	0	32.4540	0	25.268	0	82.393	0	241.8	4	82.8	4	-1E+10	1	-1E+10	1	-1E+10	1	-1E+10	1	-1E+10	1	-1E+10	1
4902549	71	C	07/29/2022	03:07	-131.714	47.085	0	84.10	0	7.9320	0	32.4790	0	25.306	0	83.384	0	239.6	4	81.9	4	-1E+10	1	-1E+10	1	-1E+10	1	-1E+10	1	-1E+10	1	-1E+10	1
4902549	71	C	07/29/2022	03:07	-131.714	47.085	0	85.00	0	7.7840	0	32.5210	0	25.360	0	84.276	0	237.8	4	81.0	4	-1E+10	1	-1E+10	1	-1E+10	1	-1E+10	1	-1E+10	1	-1E+10	1
4902549	71	C	07/29/2022	03:07	-131.714	47.085	0	85.90	0	7.7360	0	32.5380	0	25.380	0	85.169	0	235.5	4	80.1	4	-1E+10	1	-1E+10	1	-1E+10	1	-1E+10	1	-1E+10	1	-1E+10	1
4902549	71	C	07/29/2022	03:07	-131.714	47.085	0	87.10	0	7.6650	0	32.5810	0	25.424	0	86.358	0	232.6	4	79.1	4	-1E+10	1	-1E+10	1	-1E+10	1	-1E+10	1	-1E+10	1	-1E+10	1
4902549	71	C	07/29/2022	03:07	-131.714	47.085	0	88.00	0	7.6460	0	32.5950	0	25.437	0	87.250	0	231.0	4	78.5	4	-1E+10	1	-1E+10	1	-1E+10	1	-1E+10	1	-1E+10	1	-1E+10	1
4902549	71	C	07/29/2022	03:07	-131.714	47.085	0	89.10	0	7.6440	0	32.5960	0	25.439	0	88.341	0	228.3	4	77.6	4	-1E+10	1	-1E+10	1	-1E+10	1	-1E+10	1	-1E+10	1	-1E+10	1
4902549	71	C	07/29/2022	03:07	-131.714	47.085	0	89.90	0	7.6370	0	32.6040	0	25.446	0	89.134	0	225.9	4	76.7	4	-1E+10	1	-1E+10	1	-1E+10	1	-1E+10	1	-1E+10	1	-1E+10	1
4902549	71	C	07/29/2022	03:07	-131.714	47.085	0	90.80	0	7.6220	0	32.6170	0	25.458	0	90.026	0	222.7	4	75.6	4	-1E+10	1	-1E+10	1	-1E+10	1	-1E+10	1	-1E+10	1	-1E+10	1
4902549	71	C	07/29/2022	03:07	-131.714	47.085	0	91.70	0	7.6270	0	32.6570	0	25.489	0	90.918	0	219.4	4	74.6	4	-1E+10	1	-1E+10	1	-1E+10	1	-1E+10	1	-1E+10	1	-1E+10	1
4902549	71	C	07/29/2022	03:07	-131.714	47.085	0	92.90	0	7.6780	0	32.7330	0	25.541	0	92.107	0	216.4	4	73.7	4	-1E+10	1	-1E+10	1	-1E+10	1	-1E+10	1	-1E+10	1	-1E+10	1
4902549	71	C	07/29/2022	03:07	-131.714	47.085	0	94.00	0	7.6970	0	32.7500	0	25.552	0	93.198	0	214.2	4	72.9	4	-1E+10	1	-1E+10	1	-1E+10	1	-1E+10	1	-1E+10	1	-1E+10	1
4902549	71	C	07/29/2022	03:07	-131.714	47.085	0	95.00	0	7.7010	0	32.7600	0	25.559	0	94.189	0	212.0	4	72.2	4	-1E+10	1	-1E+10	1	-1E+10	1	-1E+10	1	-1E+10	1	-1E+10	1
4902549	71	C	07/29/2022	03:07	-131.714	47.085	0	95.90	0	7.7010	0	32.7660	0	25.564	0	95.081	0	209.7	4	71.4	4	-1E+10	1	-1E+10	1	-1E+10	1	-1E+10	1	-1E+10	1	-1E+10	1
4902549	71	C	07/29/2022	03:07	-131.714	47.085	0	97.00	0	7.6940	0	32.7850	0	25.580	0	96.172	0	206.6	4	70.4	4	-1E+10	1	-1E+10	1	-1E+10	1	-1E+10	1	-1E+10	1	-1E+10	1
4902549	71	C	07/29/2022	03:07	-131.714	47.085	0	97.90	0	7.6610	0	32.8350	0	25.624	0	97.064	0	204.2	4	69.5	4	-1E+10	1	-1E+10	1	-1E+10	1	-1E+10	1	-1E+10	1	-1E+10	1
4902549	71	C	07/29/2022	03:07	-131.714	47.085	0	99.10	0	7.6210	0	32.8850	0	25.669	0	98.253	0	200.6	4	68.3	4	-1E+10	1	-1E+10	1	-1E+10	1	-1E+10	1	-1E+10	1	-1E+10	1
4902549	71	C	07/29/2022	03:07	-131.714	47.085	0	100.00	0	7.5900	0	32.9200	0	25.701	0	99.145	0	197.9	4	67.3	4	-1E+10	1	-1E+10	1	-1E+10	1	-1E+10	1	-1E+10	1	-1E+10	1
4902549	71	C	07/29/2022	03:07	-131.714	47.085	0	101.00	0	7.5770	0	32.9510	0	25.727	0	100.136	0	194.4	4	66.1	4	-1E+10	1	-1E+10	1	-1E+10	1	-1E+10	1	-1E+10	1	-1E+10	1
4902549	71	C	07/29/2022	03:07	-131.714	47.085	0	102.00	0	7.5760	0	33.0150	0	25.778	0	101.128	0	191.3	4	65.1	4	-1E+10	1	-1E+10	1	-1E+10	1	-1E+10	1	-1E+10	1	-1E+10	1
4902549	71	C	07/29/2022	03:07	-131.714	47.085	0	103.10	0	7.5750	0	33.0270	0	25.787	0	102.218	0	189.2	4	64.4	4	-1E+10	1	-1E+10	1	-1E+10	1	-1E+10	1	-1E+10	1	-1E+10	1
4902549	71	C	07/29/2022	03:07	-131.714	47.085	0	103.80	0	7.5680	0	33.0480	0	25.805	0	102.912	0	187.2	4	63.7	4	-1E+10	1	-1E+10	1	-1E+10	1	-1E+10	1	-1E+10	1	-1E+10	1
4902549	71	C	07/29/2022	03:07	-131.714	47.085	0	105.00	0	7.5600	0	33.0900	0	25.839	0	104.101	0	184.3	4	62.7	4	-1E+10	1	-1E+10	1	-1E+10	1	-1E+10	1	-1E+10	1	-1E+10	1
4902549	71	C	07/29/2022	03:07	-131.714	47.085	0	106.00	0	7.5480	0	33.1420	0	25.881	0	105.092	0	182.1	4	62.0	4	-1E+10	1	-1E+10	1	-1E+10	1	-1E+10	1	-1E+10	1	-1E+10	1
4902549	71	C	07/29/2022	03:07	-131.714	47.085	0	106.90	0	7.5360	0	33.1840	0	25.916	0	105.984	0	180.8	4	61.5	4	-1E+10	1	-1E+10	1	-1E+10	1	-1E+10	1	-1E+10	1	-1E+10	1
4902549	71	C	07/29/2022	03:07	-131.714	47.085	0	107.80	0	7.5300	0	33.2000	0	25.930	0	106.876	0	179.7	4	61.2	4	-1E+10	1	-1E+10	1	-1E+10	1	-1E+10	1	-1E+10	1	-1E+10	1
4902549	71	C	07/29/2022	03:07	-131.714	47.085	0	108.80	0	7.5280	0	33.2090	0	25.937	0	107.868	0	178.2	4	60.7	4	-1E+10	1	-1E+10	1	-1E+10	1	-1E+10	1	-1E+10	1	-1E+10	1
4902549	71	C	07/29/2022	03:07	-131.714	47.085	0	109.90	0	7.5030	0	33.2630	0	25.983	0	108.958	0	177.5	4	60.4	4	-1E+10	1	-1E+10	1	-1E+10	1	-1E+10	1	-1E+10	1	-1E+10	1
4902549	71	C	07/29/2022	03:07	-131.714	47.085	0	111.00	0	7.4950	0	33.2830	0	26.000	0	110.048	0	176.9	4	60.2	4	-1E+10	1	-1E+10	1	-1E+10	1	-1E+10	1	-1E+10	1	-1E+10	1
4902549	71	C	07/29/2022	03:07	-131.714	47.085	0	111.90	0	7.4920	0	33.2940	0	26.009	0	110.940	0	176.7	4	60.1	4	-1E+10	1	-1E+10	1	-1E+10	1	-1E+10	1	-1E+10	1	-1E+10	1
4902549	71	C	07/29/2022	03:07	-131.714	47.085	0	112.90	0	7.4860	0	33.3000	0	26.014	0	111.931	0	176.5	4	60.1	4	-1E+10	1	-1E+10	1	-1E+10	1	-1E+10	1	-1E+10	1	-1E+10	1
4902549	71	C	07/29/2022	03:07	-131.714	47.085	0	113.80	0	7.4740	0	33.3110	0	26.025	0	112.823	0	176.5	4	60.0	4	-1E+10	1	-1E+10	1	-1E+10	1	-1E+10	1	-1E+10	1	-1E+10	1
4902549	71	C	07/29/2022	03:07	-131.714	47.085	0	114.80	0	7.4450	0	33.3380	0	26.050	0	113.815	0	176.5	4	60.0	4	-1E+10	1	-1E+10	1	-1E+10	1	-1E+10	1	-1E+10	1	-1E+10	1
4902549	71	C	07/29/2022	03:07	-131.714	47.085	0	115.90	0	7.4190	0	33.3590	0	26.070	0	114.905	0	176.6	4	60.0	4	-1E+10	1	-1E+10	1	-1E+10	1	-1E+10	1	-1E+10	1	-1E+10	1
4902549	71	C	07/29/2022	03:07	-131.714	47.085	0	116.90	0	7.4050	0	33.3700	0	26.081	0	115.896	0	176.7	4	60.0	4	-1E+10	1	-1E+10	1	-1E+10	1	-1E+10	1	-1E+10	1	-1E+10	1
4902549	71	C	07/29/2022	03:07	-131.714	47.085	0	118.00	0	7.3860	0	33.3790	0	26.091	0	116.986	0	176.7	4	60.0	4	-1E+10	1	-1E+10	1	-1E+10	1	-1E+10	1	-1E+10	1	-1E+10	1
4902549	71	C	07/29/2022	03:07	-131.714	47.085	0	118.80	0	7.3790	0	33.3850	0	26.096	0	117.779	0	176.7	4	60.0	4	-1E+10	1	-1E+10	1	-1E+10	1	-1E+10	1	-1E+10	1	-1E+10	1
4902549	71	C	07/29/2022	03:07	-131.714	47.085	0	120.00	0	7.3660	0	33.3940	0	26.105	0	118.968	0	176.5	4	59.9	4	-1E+10	1	-1E+10	1	-1E+10	1	-1E+10	1	-1E+10	1	-1E+10	1
4902549	71	C	07/29/2022	03:07	-131.714	47.085	0	121.20	0	7.3230	0	33.4080	0	26.122	0	120.158	0	176.1	4	59.7	4	-1E+10	1	-1E+10	1	-1E+10	1	-1E+10	1	-1E+10	1	-1E+10	1
4902549	71	C	07/29/2022	03:07	-131.714	47.085	0	122.00	0	7.3050	0	33.4150	0	26.130	0	120.951	0	175.6	4	59.6	4	-1E+10	1	-1E+10	1	-1E+10	1	-1E+10	1	-1E+10	1	-1E+10	1
4902549	71	C	07/29/2022	03:07	-131.714	47.085	0	122.90	0	7.2920	0	33.4280	0	26.142	0	121.843	0	175.0	4	59.3	4	-1E+10	1	-1E+10	1	-1E+10	1	-1E+10	1	-1E+10	1	-1E+10	1
4902549	71	C	07/29/2022	03:07	-131.714	47.085	0	123.70	0	7.2840	0	33.4360	0	26.150	0	122.636	0	174.3	4	59.1	4	-1E+10	1	-1E+10	1	-1E+10	1	-1E+10	1	-1E+10	1	-1E+10	1
4902549	71	C	07/29/2022	03:07	-131.714	47.085	0	124.60	0	7.2830	0	33.4420	0	26.155	0	123.528	0	173.5	4	58.8	4	-1E+10	1	-1E+10	1	-1E+10	1	-1E+10	1	-1E+10	1	-1E+10	1
4902549	71	C	07/29/2022	03:07	-131.714	47.085	0	125.90	0	7.2800	0	33.4640	0	26.172	0	124.816	0	172.4	4	58.5	4	-1E+10	1	-1E+10	1	-1E+10	1	-1E+10	1	-1E+10	1	-1E+10	1
4902549	71	C	07/29/2022	03:07	-131.714	47.085	0	127.40	0	7.2790	0	33.4890	0	26.192	0	126.303	0	171.2	4	58.1	4	-1E+10	1	-1E+10	1	-1E+10	1	-1E+10	1	-1E+10	1	-1E+10	1
4902549	71	C	07/29/2022	03:07	-131.714	47.085	0	128.30	0	7.2730	0	33.5160	0	26.214	0	127.195	0	170.5	4	57.8	4	-1E+10	1	-1E+10	1	-1E+10	1	-1E+10	1	-1E+10	1	-1E+10	1
4902549	71	C	07/29/2022	03:07	-131.714	47.085	0	129.30	0	7.2700	0	33.5240	0	26.221	0	128.186	0	169.8	4	57.6	4	-1E+10	1	-1E+10	1	-1E+10	1	-1E+10	1	-1E+10	1	-1E+10	1
4902549	71	C	07/29/2022	03:07	-131.714	47.085	0	130.20	0	7.2680	0	33.5330	0	26.228	0	129.078	0	169.1	4	57.4	4	-1E+10	1	-1E+10	1	-1E+10	1	-1E+10	1	-1E+10	1	-1E+10	1
4902549	71	C	07/29/2022	03:07	-131.714	47.085	0	131.20	0	7.2650	0	33.5420	0	26.236	0	130.069	0	168.4	4	57.1	4	-1E+10	1	-1E+10	1	-1E+10	1	-1E+10	1	-1E+10	1	-1E+10	1
4902549	71	C	07/29/2022	03:07	-131.714	47.085	0	132.20	0	7.2620	0	33.5510	0	26.243	0	131.060	0	167.7	4	56.9	4	-1E+10	1	-1E+10	1	-1E+10	1	-1E+10	1	-1E+10	1	-1E+10	1
4902549	71	C	07/29/2022	03:07	-131.714	47.085	0	133.20	0	7.2610	0	33.5630	0	26.253	0	132.051	0	167.0	4	56.6	4	-1E+10	1	-1E+10	1	-1E+10	1	-1E+10	1	-1E+10	1	-1E+10	1
4902549	71	C	07/29/2022	03:07	-131.714	47.085	0	134.20	0	7.2600	0	33.5670	0	26.256	0	133.042	0	166.2	4	56.4	4	-1E+10	1	-1E+10	1	-1E+10	1	-1E+10	1	-1E+10	1	-1E+10	1
4902549	71	C	07/29/2022	03:07	-131.714	47.085	0	135.30	0	7.2550	0	33.5840	0	26.270	0	134.132	0	165.6	4	56.2	4	-1E+10	1	-1E+10	1	-1E+10	1	-1E+10	1	-1E+10	1	-1E+10	1
4902549	71	C	07/29/2022	03:07	-131.714	47.085	0	136.30	0	7.2530	0	33.6100	0	26.291	0	135.123	0	165.0	4	56.0	4	-1E+10	1	-1E+10	1	-1E+10	1	-1E+10	1	-1E+10	1	-1E+10	1
4902549	71	C	07/29/2022	03:07	-131.714	47.085	0	137.30	0	7.2490	0	33.6150	0	26.296	0	136.114	0	164.3	4	55.8	4	-1E+10	1	-1E+10	1	-1E+10	1	-1E+10	1	-1E+10	1	-1E+10	1
4902549	71	C	07/29/2022	03:07	-131.714	47.085	0	138.40	0	7.2470	0	33.6180	0	26.298	0	137.204	0	163.7	4	55.5	4	-1E+10	1	-1E+10	1	-1E+10	1	-1E+10	1	-1E+10	1	-1E+10	1
4902549	71	C	07/29/2022	03:07	-131.714	47.085	0	139.40	0	7.2450	0	33.6240	0	26.303	0	138.195	0	163.1	4	55.3	4	-1E+10	1	-1E+10	1	-1E+10	1	-1E+10	1	-1E+10	1	-1E+10	1
4902549	71	C	07/29/2022	03:07	-131.714	47.085	0	140.50	0	7.2450	0	33.6260	0	26.305	0	139.285	0	162.3	4	55.1	4	-1E+10	1	-1E+10	1	-1E+10	1	-1E+10	1	-1E+10	1	-1E+10	1
4902549	71	C	07/29/2022	03:07	-131.714	47.085	0	141.50	0	7.2440	0	33.6300	0	26.308	0	140.276	0	161.5	4	54.8	4	-1E+10	1	-1E+10	1	-1E+10	1	-1E+10	1	-1E+10	1	-1E+10	1
4902549	71	C	07/29/2022	03:07	-131.714	47.085	0	142.50	0	7.2410	0	33.6310	0	26.309	0	141.267	0	160.7	4	54.5	4	-1E+10	1	-1E+10	1	-1E+10	1	-1E+10	1	-1E+10	1	-1E+10	1
4902549	71	C	07/29/2022	03:07	-131.714	47.085	0	143.60	0	7.2390	0	33.6360	0	26.314	0	142.357	0	159.6	4	54.1	4	-1E+10	1	-1E+10	1	-1E+10	1	-1E+10	1	-1E+10	1	-1E+10	1
4902549	71	C	07/29/2022	03:07	-131.714	47.085	0	144.60	0	7.2410	0	33.6390	0	26.316	0	143.348	0	158.6	4	53.8	4	-1E+10	1	-1E+10	1	-1E+10	1	-1E+10	1	-1E+10	1	-1E+10	1
4902549	71	C	07/29/2022	03:07	-131.714	47.085	0	145.60	0	7.2260	0	33.6530	0	26.329	0	144.339	0	157.4	4	53.4	4	-1E+10	1	-1E+10	1	-1E+10	1	-1E+10	1	-1E+10	1	-1E+10	1
4902549	71	C	07/29/2022	03:07	-131.714	47.085	0	146.70	0	7.2180	0	33.6640	0	26.339	0	145.430	0	156.4	4	53.0	4	-1E+10	1	-1E+10	1	-1E+10	1	-1E+10	1	-1E+10	1	-1E+10	1
4902549	71	C	07/29/2022	03:07	-131.714	47.085	0	147.70	0	7.2110	0	33.6710	0	26.345	0	146.420	0	155.3	4	52.7	4	-1E+10	1	-1E+10	1	-1E+10	1	-1E+10	1	-1E+10	1	-1E+10	1
4902549	71	C	07/29/2022	03:07	-131.714	47.085	0	148.80	0	7.2010	0	33.6810	0	26.354	0	147.511	0	154.1	4	52.2	4	-1E+10	1	-1E+10	1	-1E+10	1	-1E+10	1	-1E+10	1	-1E+10	1
4902549	71	C	07/29/2022	03:07	-131.714	47.085	0	149.80	0	7.1990	0	33.6830	0	26.356	0	148.502	0	152.8	4	51.8	4	-1E+10	1	-1E+10	1	-1E+10	1	-1E+10	1	-1E+10	1	-1E+10	1
4902549	71	C	07/29/2022	03:07	-131.714	47.085	0	150.90	0	7.1930	0	33.6850	0	26.359	0	149.592	0	151.2	4	51.2	4	-1E+10	1	-1E+10	1	-1E+10	1	-1E+10	1	-1E+10	1	-1E+10	1
4902549	71	C	07/29/2022	03:07	-131.714	47.085	0	151.90	0	7.1870	0	33.6860	0	26.360	0	150.583	0	149.3	4	50.6	4	-1E+10	1	-1E+10	1	-1E+10	1	-1E+10	1	-1E+10	1	-1E+10	1
4902549	71	C	07/29/2022	03:07	-131.714	47.085	0	152.90	0	7.1740	0	33.6950	0	26.369	0	151.574	0	147.2	4	49.9	4	-1E+10	1	-1E+10	1	-1E+10	1	-1E+10	1	-1E+10	1	-1E+10	1
4902549	71	C	07/29/2022	03:07	-131.714	47.085	0	153.90	0	7.1600	0	33.7020	0	26.377	0	152.564	0	144.9	4	49.1	4	-1E+10	1	-1E+10	1	-1E+10	1	-1E+10	1	-1E+10	1	-1E+10	1
4902549	71	C	07/29/2022	03:07	-131.714	47.085	0	155.00	0	7.1570	0	33.7080	0	26.382	0	153.655	0	142.5	4	48.3	4	-1E+10	1	-1E+10	1	-1E+10	1	-1E+10	1	-1E+10	1	-1E+10	1
4902549	71	C	07/29/2022	03:07	-131.714	47.085	0	156.00	0	7.1540	0	33.7130	0	26.386	0	154.645	0	139.9	4	47.4	4	-1E+10	1	-1E+10	1	-1E+10	1	-1E+10	1	-1E+10	1	-1E+10	1
4902549	71	C	07/29/2022	03:07	-131.714	47.085	0	157.00	0	7.1520	0	33.7180	0	26.390	0	155.636	0	137.0	4	46.4	4	-1E+10	1	-1E+10	1	-1E+10	1	-1E+10	1	-1E+10	1	-1E+10	1
4902549	71	C	07/29/2022	03:07	-131.714	47.085	0	158.00	0	7.1580	0	33.7230	0	26.393	0	156.627	0	133.8	4	45.3	4	-1E+10	1	-1E+10	1	-1E+10	1	-1E+10	1	-1E+10	1	-1E+10	1
4902549	71	C	07/29/2022	03:07	-131.714	47.085	0	159.00	0	7.1830	0	33.7290	0	26.395	0	157.618	0	130.9	4	44.4	4	-1E+10	1	-1E+10	1	-1E+10	1	-1E+10	1	-1E+10	1	-1E+10	1
4902549	71	C	07/29/2022	03:07	-131.714	47.085	0	160.00	0	7.2190	0	33.7460	0	26.403	0	158.609	0	129.1	4	43.8	4	-1E+10	1	-1E+10	1	-1E+10	1	-1E+10	1	-1E+10	1	-1E+10	1
4902549	71	C	07/29/2022	03:07	-131.714	47.085	0	161.00	0	7.2460	0	33.7610	0	26.411	0	159.600	0	128.0	4	43.5	4	-1E+10	1	-1E+10	1	-1E+10	1	-1E+10	1	-1E+10	1	-1E+10	1
4902549	71	C	07/29/2022	03:07	-131.714	47.085	0	162.00	0	7.2550	0	33.7650	0	26.413	0	160.591	0	127.3	4	43.2	4	-1E+10	1	-1E+10	1	-1E+10	1	-1E+10	1	-1E+10	1	-1E+10	1
4902549	71	C	07/29/2022	03:07	-131.714	47.085	0	163.00	0	7.2560	0	33.7680	0	26.415	0	161.582	0	126.7	4	43.0	4	-1E+10	1	-1E+10	1	-1E+10	1	-1E+10	1	-1E+10	1	-1E+10	1
4902549	71	C	07/29/2022	03:07	-131.714	47.085	0	164.10	0	7.2560	0	33.7710	0	26.418	0	162.672	0	126.1	4	42.8	4	-1E+10	1	-1E+10	1	-1E+10	1	-1E+10	1	-1E+10	1	-1E+10	1
4902549	71	C	07/29/2022	03:07	-131.714	47.085	0	165.10	0	7.2570	0	33.7750	0	26.421	0	163.663	0	125.6	4	42.7	4	-1E+10	1	-1E+10	1	-1E+10	1	-1E+10	1	-1E+10	1	-1E+10	1
4902549	71	C	07/29/2022	03:07	-131.714	47.085	0	166.10	0	7.2570	0	33.7800	0	26.425	0	164.654	0	125.3	4	42.6	4	-1E+10	1	-1E+10	1	-1E+10	1	-1E+10	1	-1E+10	1	-1E+10	1
4902549	71	C	07/29/2022	03:07	-131.714	47.085	0	167.10	0	7.2550	0	33.7790	0	26.424	0	165.645	0	124.8	4	42.4	4	-1E+10	1	-1E+10	1	-1E+10	1	-1E+10	1	-1E+10	1	-1E+10	1
4902549	71	C	07/29/2022	03:07	-131.714	47.085	0	168.10	0	7.2520	0	33.7800	0	26.425	0	166.636	0	124.3	4	42.2	4	-1E+10	1	-1E+10	1	-1E+10	1	-1E+10	1	-1E+10	1	-1E+10	1
4902549	71	C	07/29/2022	03:07	-131.714	47.085	0	169.00	0	7.2510	0	33.7800	0	26.426	0	167.527	0	123.7	4	42.0	4	-1E+10	1	-1E+10	1	-1E+10	1	-1E+10	1	-1E+10	1	-1E+10	1
4902549	71	C	07/29/2022	03:07	-131.714	47.085	0	170.00	0	7.2580	0	33.7850	0	26.429	0	168.518	0	123.2	4	41.9	4	-1E+10	1	-1E+10	1	-1E+10	1	-1E+10	1	-1E+10	1	-1E+10	1
4902549	71	C	07/29/2022	03:07	-131.714	47.085	0	171.00	0	7.2400	0	33.7910	0	26.436	0	169.509	0	122.9	4	41.7	4	-1E+10	1	-1E+10	1	-1E+10	1	-1E+10	1	-1E+10	1	-1E+10	1
4902549	71	C	07/29/2022	03:07	-131.714	47.085	0	172.00	0	7.2180	0	33.7940	0	26.441	0	170.500	0	122.4	4	41.6	4	-1E+10	1	-1E+10	1	-1E+10	1	-1E+10	1	-1E+10	1	-1E+10	1
4902549	71	C	07/29/2022	03:07	-131.714	47.085	0	173.00	0	7.2110	0	33.7930	0	26.441	0	171.491	0	121.7	4	41.3	4	-1E+10	1	-1E+10	1	-1E+10	1	-1E+10	1	-1E+10	1	-1E+10	1
4902549	71	C	07/29/2022	03:07	-131.714	47.085	0	174.00	0	7.1910	0	33.7960	0	26.447	0	172.482	0	120.7	4	41.0	4	-1E+10	1	-1E+10	1	-1E+10	1	-1E+10	1	-1E+10	1	-1E+10	1
4902549	71	C	07/29/2022	03:07	-131.714	47.085	0	175.00	0	7.2050	0	33.8030	0	26.450	0	173.473	0	120.0	4	40.7	4	-1E+10	1	-1E+10	1	-1E+10	1	-1E+10	1	-1E+10	1	-1E+10	1
4902549	71	C	07/29/2022	03:07	-131.714	47.085	0	175.90	0	7.2150	0	33.8110	0	26.455	0	174.364	0	119.8	4	40.7	4	-1E+10	1	-1E+10	1	-1E+10	1	-1E+10	1	-1E+10	1	-1E+10	1
4902549	71	C	07/29/2022	03:07	-131.714	47.085	0	176.90	0	7.2060	0	33.8150	0	26.459	0	175.355	0	119.8	4	40.7	4	-1E+10	1	-1E+10	1	-1E+10	1	-1E+10	1	-1E+10	1	-1E+10	1
4902549	71	C	07/29/2022	03:07	-131.714	47.085	0	177.90	0	7.1950	0	33.8210	0	26.466	0	176.346	0	119.9	4	40.7	4	-1E+10	1	-1E+10	1	-1E+10	1	-1E+10	1	-1E+10	1	-1E+10	1
4902549	71	C	07/29/2022	03:07	-131.714	47.085	0	178.90	0	7.1800	0	33.8210	0	26.468	0	177.337	0	120.0	4	40.7	4	-1E+10	1	-1E+10	1	-1E+10	1	-1E+10	1	-1E+10	1	-1E+10	1
4902549	71	C	07/29/2022	03:07	-131.714	47.085	0	179.90	0	7.1520	0	33.8300	0	26.479	0	178.328	0	120.2	4	40.7	4	-1E+10	1	-1E+10	1	-1E+10	1	-1E+10	1	-1E+10	1	-1E+10	1
4902549	71	C	07/29/2022	03:07	-131.714	47.085	0	180.90	0	7.1200	0	33.8260	0	26.480	0	179.318	0	120.0	4	40.7	4	-1E+10	1	-1E+10	1	-1E+10	1	-1E+10	1	-1E+10	1	-1E+10	1
4902549	71	C	07/29/2022	03:07	-131.714	47.085	0	181.90	0	7.1120	0	33.8290	0	26.484	0	180.309	0	119.7	4	40.6	4	-1E+10	1	-1E+10	1	-1E+10	1	-1E+10	1	-1E+10	1	-1E+10	1
4902549	71	C	07/29/2022	03:07	-131.714	47.085	0	182.90	0	7.1090	0	33.8290	0	26.484	0	181.300	0	119.5	4	40.5	4	-1E+10	1	-1E+10	1	-1E+10	1	-1E+10	1	-1E+10	1	-1E+10	1
4902549	71	C	07/29/2022	03:07	-131.714	47.085	0	183.90	0	7.1200	0	33.8300	0	26.483	0	182.291	0	119.3	4	40.4	4	-1E+10	1	-1E+10	1	-1E+10	1	-1E+10	1	-1E+10	1	-1E+10	1
4902549	71	C	07/29/2022	03:07	-131.714	47.085	0	184.90	0	7.1240	0	33.8300	0	26.483	0	183.282	0	119.3	4	40.4	4	-1E+10	1	-1E+10	1	-1E+10	1	-1E+10	1	-1E+10	1	-1E+10	1
4902549	71	C	07/29/2022	03:07	-131.714	47.085	0	185.90	0	7.1190	0	33.8380	0	26.490	0	184.273	0	119.6	4	40.5	4	-1E+10	1	-1E+10	1	-1E+10	1	-1E+10	1	-1E+10	1	-1E+10	1
4902549	71	C	07/29/2022	03:07	-131.714	47.085	0	186.80	0	7.0790	0	33.8390	0	26.496	0	185.164	0	119.9	4	40.6	4	-1E+10	1	-1E+10	1	-1E+10	1	-1E+10	1	-1E+10	1	-1E+10	1
4902549	71	C	07/29/2022	03:07	-131.714	47.085	0	187.80	0	7.0460	0	33.8390	0	26.501	0	186.155	0	120.1	4	40.6	4	-1E+10	1	-1E+10	1	-1E+10	1	-1E+10	1	-1E+10	1	-1E+10	1
4902549	71	C	07/29/2022	03:07	-131.714	47.085	0	188.80	0	7.0280	0	33.8400	0	26.504	0	187.146	0	120.1	4	40.6	4	-1E+10	1	-1E+10	1	-1E+10	1	-1E+10	1	-1E+10	1	-1E+10	1
4902549	71	C	07/29/2022	03:07	-131.714	47.085	0	189.80	0	7.0040	0	33.8420	0	26.509	0	188.137	0	120.2	4	40.6	4	-1E+10	1	-1E+10	1	-1E+10	1	-1E+10	1	-1E+10	1	-1E+10	1
4902549	71	C	07/29/2022	03:07	-131.714	47.085	0	190.70	0	6.9720	0	33.8440	0	26.515	0	189.028	0	120.3	4	40.6	4	-1E+10	1	-1E+10	1	-1E+10	1	-1E+10	1	-1E+10	1	-1E+10	1
4902549	71	C	07/29/2022	03:07	-131.714	47.085	0	191.80	0	6.9360	0	33.8490	0	26.523	0	190.118	0	120.5	4	40.7	4	-1E+10	1	-1E+10	1	-1E+10	1	-1E+10	1	-1E+10	1	-1E+10	1
4902549	71	C	07/29/2022	03:07	-131.714	47.085	0	192.80	0	6.8950	0	33.8490	0	26.529	0	191.109	0	120.7	4	40.7	4	-1E+10	1	-1E+10	1	-1E+10	1	-1E+10	1	-1E+10	1	-1E+10	1
4902549	71	C	07/29/2022	03:07	-131.714	47.085	0	193.80	0	6.8780	0	33.8490	0	26.531	0	192.100	0	120.7	4	40.7	4	-1E+10	1	-1E+10	1	-1E+10	1	-1E+10	1	-1E+10	1	-1E+10	1
4902549	71	C	07/29/2022	03:07	-131.714	47.085	0	194.70	0	6.8720	0	33.8480	0	26.531	0	192.991	0	120.6	4	40.6	4	-1E+10	1	-1E+10	1	-1E+10	1	-1E+10	1	-1E+10	1	-1E+10	1
4902549	71	C	07/29/2022	03:07	-131.714	47.085	0	195.70	0	6.8740	0	33.8470	0	26.530	0	193.982	0	120.6	4	40.6	4	-1E+10	1	-1E+10	1	-1E+10	1	-1E+10	1	-1E+10	1	-1E+10	1
4902549	71	C	07/29/2022	03:07	-131.714	47.085	0	196.70	0	6.8770	0	33.8490	0	26.531	0	194.973	0	120.7	4	40.7	4	-1E+10	1	-1E+10	1	-1E+10	1	-1E+10	1	-1E+10	1	-1E+10	1
4902549	71	C	07/29/2022	03:07	-131.714	47.085	0	197.70	0	6.8730	0	33.8500	0	26.533	0	195.964	0	120.9	4	40.7	4	-1E+10	1	-1E+10	1	-1E+10	1	-1E+10	1	-1E+10	1	-1E+10	1
4902549	71	C	07/29/2022	03:07	-131.714	47.085	0	198.70	0	6.8660	0	33.8500	0	26.534	0	196.954	0	121.1	4	40.8	4	-1E+10	1	-1E+10	1	-1E+10	1	-1E+10	1	-1E+10	1	-1E+10	1
4902549	71	C	07/29/2022	03:07	-131.714	47.085	0	199.70	0	6.8340	0	33.8520	0	26.540	0	197.945	0	121.2	4	40.8	4	-1E+10	1	-1E+10	1	-1E+10	1	-1E+10	1	-1E+10	1	-1E+10	1
4902549	71	C	07/29/2022	03:07	-131.714	47.085	0	200.70	0	6.7880	0	33.8540	0	26.547	0	198.936	0	121.1	4	40.7	4	-1E+10	1	-1E+10	1	-1E+10	1	-1E+10	1	-1E+10	1	-1E+10	1
4902549	71	C	07/29/2022	03:07	-131.714	47.085	0	201.70	0	6.7450	0	33.8480	0	26.548	0	199.927	0	120.8	4	40.6	4	-1E+10	1	-1E+10	1	-1E+10	1	-1E+10	1	-1E+10	1	-1E+10	1
4902549	71	C	07/29/2022	03:07	-131.714	47.085	0	202.70	0	6.7110	0	33.8500	0	26.555	0	200.917	0	120.4	4	40.4	4	-1E+10	1	-1E+10	1	-1E+10	1	-1E+10	1	-1E+10	1	-1E+10	1
4902549	71	C	07/29/2022	03:07	-131.714	47.085	0	203.70	0	6.7110	0	33.8490	0	26.554	0	201.908	0	119.8	4	40.2	4	-1E+10	1	-1E+10	1	-1E+10	1	-1E+10	1	-1E+10	1	-1E+10	1
4902549	71	C	07/29/2022	03:07	-131.714	47.085	0	204.70	0	6.6980	0	33.8510	0	26.557	0	202.899	0	119.2	4	40.0	4	-1E+10	1	-1E+10	1	-1E+10	1	-1E+10	1	-1E+10	1	-1E+10	1
4902549	71	C	07/29/2022	03:07	-131.714	47.085	0	205.70	0	6.6880	0	33.8510	0	26.558	0	203.889	0	118.6	4	39.8	4	-1E+10	1	-1E+10	1	-1E+10	1	-1E+10	1	-1E+10	1	-1E+10	1
4902549	71	C	07/29/2022	03:07	-131.714	47.085	0	206.70	0	6.6860	0	33.8550	0	26.562	0	204.880	0	118.1	4	39.6	4	-1E+10	1	-1E+10	1	-1E+10	1	-1E+10	1	-1E+10	1	-1E+10	1
4902549	71	C	07/29/2022	03:07	-131.714	47.085	0	208.00	0	6.6600	0	33.8560	0	26.566	0	206.168	0	117.5	4	39.4	4	-1E+10	1	-1E+10	1	-1E+10	1	-1E+10	1	-1E+10	1	-1E+10	1
4902549	71	C	07/29/2022	03:07	-131.714	47.085	0	209.90	0	6.6140	0	33.8560	0	26.572	0	208.050	0	116.2	4	38.9	4	-1E+10	1	-1E+10	1	-1E+10	1	-1E+10	1	-1E+10	1	-1E+10	1
4902549	71	C	07/29/2022	03:07	-131.714	47.085	0	211.10	0	6.6040	0	33.8580	0	26.575	0	209.239	0	115.2	4	38.6	4	-1E+10	1	-1E+10	1	-1E+10	1	-1E+10	1	-1E+10	1	-1E+10	1
4902549	71	C	07/29/2022	03:07	-131.714	47.085	0	211.80	0	6.5950	0	33.8580	0	26.576	0	209.933	0	114.4	4	38.3	4	-1E+10	1	-1E+10	1	-1E+10	1	-1E+10	1	-1E+10	1	-1E+10	1
4902549	71	C	07/29/2022	03:07	-131.714	47.085	0	213.00	0	6.6020	0	33.8620	0	26.579	0	211.121	0	113.6	4	38.0	4	-1E+10	1	-1E+10	1	-1E+10	1	-1E+10	1	-1E+10	1	-1E+10	1
4902549	71	C	07/29/2022	03:07	-131.714	47.085	0	214.10	0	6.5990	0	33.8670	0	26.583	0	212.211	0	113.1	4	37.9	4	-1E+10	1	-1E+10	1	-1E+10	1	-1E+10	1	-1E+10	1	-1E+10	1
4902549	71	C	07/29/2022	03:07	-131.714	47.085	0	214.90	0	6.5740	0	33.8690	0	26.588	0	213.004	0	112.8	4	37.8	4	-1E+10	1	-1E+10	1	-1E+10	1	-1E+10	1	-1E+10	1	-1E+10	1
4902549	71	C	07/29/2022	03:07	-131.714	47.085	0	215.70	0	6.5410	0	33.8700	0	26.593	0	213.796	0	112.6	4	37.7	4	-1E+10	1	-1E+10	1	-1E+10	1	-1E+10	1	-1E+10	1	-1E+10	1
4902549	71	C	07/29/2022	03:07	-131.714	47.085	0	216.90	0	6.5090	0	33.8720	0	26.599	0	214.985	0	112.2	4	37.5	4	-1E+10	1	-1E+10	1	-1E+10	1	-1E+10	1	-1E+10	1	-1E+10	1
4902549	71	C	07/29/2022	03:07	-131.714	47.085	0	218.00	0	6.4940	0	33.8730	0	26.601	0	216.075	0	111.8	4	37.4	4	-1E+10	1	-1E+10	1	-1E+10	1	-1E+10	1	-1E+10	1	-1E+10	1
4902549	71	C	07/29/2022	03:07	-131.714	47.085	0	218.80	0	6.4930	0	33.8720	0	26.601	0	216.867	0	111.5	4	37.2	4	-1E+10	1	-1E+10	1	-1E+10	1	-1E+10	1	-1E+10	1	-1E+10	1
4902549	71	C	07/29/2022	03:07	-131.714	47.085	0	220.00	0	6.4720	0	33.8790	0	26.609	0	218.056	0	111.3	4	37.2	4	-1E+10	1	-1E+10	1	-1E+10	1	-1E+10	1	-1E+10	1	-1E+10	1
4902549	71	C	07/29/2022	03:07	-131.714	47.085	0	221.20	0	6.4590	0	33.8780	0	26.610	0	219.245	0	111.1	4	37.1	4	-1E+10	1	-1E+10	1	-1E+10	1	-1E+10	1	-1E+10	1	-1E+10	1
4902549	71	C	07/29/2022	03:07	-131.714	47.085	0	222.00	0	6.4590	0	33.8770	0	26.609	0	220.037	0	111.0	4	37.0	4	-1E+10	1	-1E+10	1	-1E+10	1	-1E+10	1	-1E+10	1	-1E+10	1
4902549	71	C	07/29/2022	03:07	-131.714	47.085	0	222.80	0	6.4530	0	33.8760	0	26.609	0	220.830	0	110.8	4	37.0	4	-1E+10	1	-1E+10	1	-1E+10	1	-1E+10	1	-1E+10	1	-1E+10	1
4902549	71	C	07/29/2022	03:07	-131.714	47.085	0	224.00	0	6.4470	0	33.8760	0	26.610	0	222.019	0	110.4	4	36.9	4	-1E+10	1	-1E+10	1	-1E+10	1	-1E+10	1	-1E+10	1	-1E+10	1
4902549	71	C	07/29/2022	03:07	-131.714	47.085	0	225.20	0	6.4340	0	33.8770	0	26.613	0	223.207	0	110.0	4	36.7	4	-1E+10	1	-1E+10	1	-1E+10	1	-1E+10	1	-1E+10	1	-1E+10	1
4902549	71	C	07/29/2022	03:07	-131.714	47.085	0	226.00	0	6.4090	0	33.8720	0	26.612	0	224.000	0	109.8	4	36.6	4	-1E+10	1	-1E+10	1	-1E+10	1	-1E+10	1	-1E+10	1	-1E+10	1
4902549	71	C	07/29/2022	03:07	-131.714	47.085	0	226.80	0	6.3870	0	33.8730	0	26.615	0	224.792	0	109.4	4	36.4	4	-1E+10	1	-1E+10	1	-1E+10	1	-1E+10	1	-1E+10	1	-1E+10	1
4902549	71	C	07/29/2022	03:07	-131.714	47.085	0	227.70	0	6.3860	0	33.8710	0	26.614	0	225.684	0	108.8	4	36.3	4	-1E+10	1	-1E+10	1	-1E+10	1	-1E+10	1	-1E+10	1	-1E+10	1
4902549	71	C	07/29/2022	03:07	-131.714	47.085	0	228.90	0	6.3620	0	33.8730	0	26.619	0	226.873	0	107.8	4	35.9	4	-1E+10	1	-1E+10	1	-1E+10	1	-1E+10	1	-1E+10	1	-1E+10	1
4902549	71	C	07/29/2022	03:07	-131.714	47.085	0	230.10	0	6.3550	0	33.8740	0	26.620	0	228.061	0	106.6	4	35.5	4	-1E+10	1	-1E+10	1	-1E+10	1	-1E+10	1	-1E+10	1	-1E+10	1
4902549	71	C	07/29/2022	03:07	-131.714	47.085	0	230.90	0	6.3670	0	33.8780	0	26.622	0	228.854	0	105.9	4	35.3	4	-1E+10	1	-1E+10	1	-1E+10	1	-1E+10	1	-1E+10	1	-1E+10	1
4902549	71	C	07/29/2022	03:07	-131.714	47.085	0	231.80	0	6.3610	0	33.8780	0	26.623	0	229.745	0	105.0	4	35.0	4	-1E+10	1	-1E+10	1	-1E+10	1	-1E+10	1	-1E+10	1	-1E+10	1
4902549	71	C	07/29/2022	03:07	-131.714	47.085	0	233.00	0	6.3510	0	33.8790	0	26.625	0	230.934	0	103.6	4	34.5	4	-1E+10	1	-1E+10	1	-1E+10	1	-1E+10	1	-1E+10	1	-1E+10	1
4902549	71	C	07/29/2022	03:07	-131.714	47.085	0	234.30	0	6.3720	0	33.8850	0	26.627	0	232.222	0	102.4	4	34.1	4	-1E+10	1	-1E+10	1	-1E+10	1	-1E+10	1	-1E+10	1	-1E+10	1
4902549	71	C	07/29/2022	03:07	-131.714	47.085	0	235.10	0	6.3620	0	33.8910	0	26.633	0	233.014	0	102.0	4	34.0	4	-1E+10	1	-1E+10	1	-1E+10	1	-1E+10	1	-1E+10	1	-1E+10	1
4902549	71	C	07/29/2022	03:07	-131.714	47.085	0	236.00	0	6.3340	0	33.8920	0	26.637	0	233.906	0	101.6	4	33.8	4	-1E+10	1	-1E+10	1	-1E+10	1	-1E+10	1	-1E+10	1	-1E+10	1
4902549	71	C	07/29/2022	03:07	-131.714	47.085	0	236.80	0	6.3360	0	33.8910	0	26.636	0	234.698	0	101.2	4	33.7	4	-1E+10	1	-1E+10	1	-1E+10	1	-1E+10	1	-1E+10	1	-1E+10	1
4902549	71	C	07/29/2022	03:07	-131.714	47.085	0	237.70	0	6.3320	0	33.8940	0	26.639	0	235.590	0	100.7	4	33.5	4	-1E+10	1	-1E+10	1	-1E+10	1	-1E+10	1	-1E+10	1	-1E+10	1
4902549	71	C	07/29/2022	03:07	-131.714	47.085	0	238.90	0	6.3180	0	33.8930	0	26.640	0	236.778	0	100.1	4	33.3	4	-1E+10	1	-1E+10	1	-1E+10	1	-1E+10	1	-1E+10	1	-1E+10	1
4902549	71	C	07/29/2022	03:07	-131.714	47.085	0	240.20	0	6.3100	0	33.8930	0	26.641	0	238.066	0	99.3	4	33.0	4	-1E+10	1	-1E+10	1	-1E+10	1	-1E+10	1	-1E+10	1	-1E+10	1
4902549	71	C	07/29/2022	03:07	-131.714	47.085	0	241.10	0	6.3090	0	33.8930	0	26.641	0	238.957	0	98.7	4	32.8	4	-1E+10	1	-1E+10	1	-1E+10	1	-1E+10	1	-1E+10	1	-1E+10	1
4902549	71	C	07/29/2022	03:07	-131.714	47.085	0	241.90	0	6.3020	0	33.8940	0	26.643	0	239.750	0	98.3	4	32.7	4	-1E+10	1	-1E+10	1	-1E+10	1	-1E+10	1	-1E+10	1	-1E+10	1
4902549	71	C	07/29/2022	03:07	-131.714	47.085	0	242.80	0	6.2860	0	33.8960	0	26.647	0	240.641	0	98.0	4	32.6	4	-1E+10	1	-1E+10	1	-1E+10	1	-1E+10	1	-1E+10	1	-1E+10	1
4902549	71	C	07/29/2022	03:07	-131.714	47.085	0	243.70	0	6.2720	0	33.8970	0	26.649	0	241.533	0	97.7	4	32.5	4	-1E+10	1	-1E+10	1	-1E+10	1	-1E+10	1	-1E+10	1	-1E+10	1
4902549	71	C	07/29/2022	03:07	-131.714	47.085	0	244.90	0	6.2470	0	33.8970	0	26.653	0	242.721	0	97.6	4	32.4	4	-1E+10	1	-1E+10	1	-1E+10	1	-1E+10	1	-1E+10	1	-1E+10	1
4902549	71	C	07/29/2022	03:07	-131.714	47.085	0	246.30	0	6.2390	0	33.8990	0	26.655	0	244.108	0	97.7	4	32.4	4	-1E+10	1	-1E+10	1	-1E+10	1	-1E+10	1	-1E+10	1	-1E+10	1
4902549	71	C	07/29/2022	03:07	-131.714	47.085	0	247.20	0	6.2260	0	33.8990	0	26.657	0	245.000	0	97.8	4	32.5	4	-1E+10	1	-1E+10	1	-1E+10	1	-1E+10	1	-1E+10	1	-1E+10	1
4902549	71	C	07/29/2022	03:07	-131.714	47.085	0	248.10	0	6.2110	0	33.8980	0	26.658	0	245.891	0	97.8	4	32.5	4	-1E+10	1	-1E+10	1	-1E+10	1	-1E+10	1	-1E+10	1	-1E+10	1
4902549	71	C	07/29/2022	03:07	-131.714	47.085	0	249.00	0	6.1970	0	33.9010	0	26.662	0	246.783	0	98.0	4	32.5	4	-1E+10	1	-1E+10	1	-1E+10	1	-1E+10	1	-1E+10	1	-1E+10	1
4902549	71	C	07/29/2022	03:07	-131.714	47.085	0	249.90	0	6.1760	0	33.9010	0	26.665	0	247.674	0	98.1	4	32.5	4	-1E+10	1	-1E+10	1	-1E+10	1	-1E+10	1	-1E+10	1	-1E+10	1
4902549	71	C	07/29/2022	03:07	-131.714	47.085	0	250.80	0	6.1360	0	33.8950	0	26.665	0	248.565	0	98.0	4	32.5	4	-1E+10	1	-1E+10	1	-1E+10	1	-1E+10	1	-1E+10	1	-1E+10	1
4902549	71	C	07/29/2022	03:07	-131.714	47.085	0	251.70	0	6.0970	0	33.8930	0	26.669	0	249.457	0	97.8	4	32.4	4	-1E+10	1	-1E+10	1	-1E+10	1	-1E+10	1	-1E+10	1	-1E+10	1
4902549	71	C	07/29/2022	03:07	-131.714	47.085	0	252.60	0	6.0930	0	33.8930	0	26.669	0	250.348	0	97.6	4	32.3	4	-1E+10	1	-1E+10	1	-1E+10	1	-1E+10	1	-1E+10	1	-1E+10	1
4902549	71	C	07/29/2022	03:07	-131.714	47.085	0	253.60	0	6.0870	0	33.8940	0	26.671	0	251.339	0	97.3	4	32.2	4	-1E+10	1	-1E+10	1	-1E+10	1	-1E+10	1	-1E+10	1	-1E+10	1
4902549	71	C	07/29/2022	03:07	-131.714	47.085	0	254.50	0	6.0850	0	33.8910	0	26.669	0	252.230	0	97.0	4	32.1	4	-1E+10	1	-1E+10	1	-1E+10	1	-1E+10	1	-1E+10	1	-1E+10	1
4902549	71	C	07/29/2022	03:07	-131.714	47.085	0	255.90	0	6.0700	0	33.8940	0	26.673	0	253.617	0	96.7	4	32.0	4	-1E+10	1	-1E+10	1	-1E+10	1	-1E+10	1	-1E+10	1	-1E+10	1
4902549	71	C	07/29/2022	03:07	-131.714	47.085	0	257.40	0	6.0650	0	33.8950	0	26.674	0	255.103	0	96.5	4	31.9	4	-1E+10	1	-1E+10	1	-1E+10	1	-1E+10	1	-1E+10	1	-1E+10	1
4902549	71	C	07/29/2022	03:07	-131.714	47.085	0	258.30	0	6.0680	0	33.8960	0	26.675	0	255.994	0	96.3	4	31.9	4	-1E+10	1	-1E+10	1	-1E+10	1	-1E+10	1	-1E+10	1	-1E+10	1
4902549	71	C	07/29/2022	03:07	-131.714	47.085	0	259.30	0	6.0630	0	33.8970	0	26.676	0	256.984	0	96.2	4	31.8	4	-1E+10	1	-1E+10	1	-1E+10	1	-1E+10	1	-1E+10	1	-1E+10	1
4902549	71	C	07/29/2022	03:07	-131.714	47.085	0	260.30	0	6.0580	0	33.8970	0	26.677	0	257.975	0	96.1	4	31.8	4	-1E+10	1	-1E+10	1	-1E+10	1	-1E+10	1	-1E+10	1	-1E+10	1
4902549	71	C	07/29/2022	03:07	-131.714	47.085	0	261.20	0	6.0580	0	33.8970	0	26.677	0	258.866	0	96.1	4	31.8	4	-1E+10	1	-1E+10	1	-1E+10	1	-1E+10	1	-1E+10	1	-1E+10	1
4902549	71	C	07/29/2022	03:07	-131.714	47.085	0	262.20	0	6.0520	0	33.8990	0	26.679	0	259.857	0	96.0	4	31.7	4	-1E+10	1	-1E+10	1	-1E+10	1	-1E+10	1	-1E+10	1	-1E+10	1
4902549	71	C	07/29/2022	03:07	-131.714	47.085	0	263.20	0	6.0410	0	33.8970	0	26.679	0	260.847	0	95.8	4	31.7	4	-1E+10	1	-1E+10	1	-1E+10	1	-1E+10	1	-1E+10	1	-1E+10	1
4902549	71	C	07/29/2022	03:07	-131.714	47.085	0	264.10	0	6.0340	0	33.8950	0	26.678	0	261.738	0	95.7	4	31.6	4	-1E+10	1	-1E+10	1	-1E+10	1	-1E+10	1	-1E+10	1	-1E+10	1
4902549	71	C	07/29/2022	03:07	-131.714	47.085	0	265.10	0	6.0250	0	33.8950	0	26.679	0	262.729	0	95.4	4	31.5	4	-1E+10	1	-1E+10	1	-1E+10	1	-1E+10	1	-1E+10	1	-1E+10	1
4902549	71	C	07/29/2022	03:07	-131.714	47.085	0	266.10	0	6.0040	0	33.8940	0	26.681	0	263.719	0	95.2	4	31.5	4	-1E+10	1	-1E+10	1	-1E+10	1	-1E+10	1	-1E+10	1	-1E+10	1
4902549	71	C	07/29/2022	03:07	-131.714	47.085	0	267.00	0	5.9990	0	33.8960	0	26.683	0	264.611	0	94.9	4	31.3	4	-1E+10	1	-1E+10	1	-1E+10	1	-1E+10	1	-1E+10	1	-1E+10	1
4902549	71	C	07/29/2022	03:07	-131.714	47.085	0	268.00	0	5.9950	0	33.8940	0	26.682	0	265.601	0	94.6	4	31.2	4	-1E+10	1	-1E+10	1	-1E+10	1	-1E+10	1	-1E+10	1	-1E+10	1
4902549	71	C	07/29/2022	03:07	-131.714	47.085	0	269.00	0	5.9920	0	33.8940	0	26.683	0	266.592	0	94.2	4	31.1	4	-1E+10	1	-1E+10	1	-1E+10	1	-1E+10	1	-1E+10	1	-1E+10	1
4902549	71	C	07/29/2022	03:07	-131.714	47.085	0	269.90	0	5.9900	0	33.8940	0	26.683	0	267.483	0	93.7	4	30.9	4	-1E+10	1	-1E+10	1	-1E+10	1	-1E+10	1	-1E+10	1	-1E+10	1
4902549	71	C	07/29/2022	03:07	-131.714	47.085	0	270.90	0	5.9840	0	33.8950	0	26.685	0	268.473	0	93.2	4	30.8	4	-1E+10	1	-1E+10	1	-1E+10	1	-1E+10	1	-1E+10	1	-1E+10	1
4902549	71	C	07/29/2022	03:07	-131.714	47.085	0	271.80	0	5.9830	0	33.8950	0	26.685	0	269.365	0	92.8	4	30.7	4	-1E+10	1	-1E+10	1	-1E+10	1	-1E+10	1	-1E+10	1	-1E+10	1
4902549	71	C	07/29/2022	03:07	-131.714	47.085	0	272.80	0	5.9600	0	33.8930	0	26.686	0	270.355	0	92.4	4	30.5	4	-1E+10	1	-1E+10	1	-1E+10	1	-1E+10	1	-1E+10	1	-1E+10	1
4902549	71	C	07/29/2022	03:07	-131.714	47.085	0	273.70	0	5.9570	0	33.8950	0	26.688	0	271.246	0	91.8	4	30.3	4	-1E+10	1	-1E+10	1	-1E+10	1	-1E+10	1	-1E+10	1	-1E+10	1
4902549	71	C	07/29/2022	03:07	-131.714	47.085	0	274.70	0	5.9530	0	33.8960	0	26.689	0	272.237	0	91.1	4	30.1	4	-1E+10	1	-1E+10	1	-1E+10	1	-1E+10	1	-1E+10	1	-1E+10	1
4902549	71	C	07/29/2022	03:07	-131.714	47.085	0	275.70	0	5.9540	0	33.8960	0	26.689	0	273.227	0	90.4	4	29.8	4	-1E+10	1	-1E+10	1	-1E+10	1	-1E+10	1	-1E+10	1	-1E+10	1
4902549	71	C	07/29/2022	03:07	-131.714	47.085	0	276.60	0	5.9620	0	33.8970	0	26.689	0	274.118	0	89.8	4	29.6	4	-1E+10	1	-1E+10	1	-1E+10	1	-1E+10	1	-1E+10	1	-1E+10	1
4902549	71	C	07/29/2022	03:07	-131.714	47.085	0	277.60	0	5.9600	0	33.9040	0	26.695	0	275.109	0	89.4	4	29.5	4	-1E+10	1	-1E+10	1	-1E+10	1	-1E+10	1	-1E+10	1	-1E+10	1
4902549	71	C	07/29/2022	03:07	-131.714	47.085	0	278.60	0	5.9440	0	33.9040	0	26.697	0	276.099	0	89.1	4	29.4	4	-1E+10	1	-1E+10	1	-1E+10	1	-1E+10	1	-1E+10	1	-1E+10	1
4902549	71	C	07/29/2022	03:07	-131.714	47.085	0	279.50	0	5.9410	0	33.9060	0	26.699	0	276.990	0	88.8	4	29.3	4	-1E+10	1	-1E+10	1	-1E+10	1	-1E+10	1	-1E+10	1	-1E+10	1
4902549	71	C	07/29/2022	03:07	-131.714	47.085	0	280.50	0	5.9340	0	33.9060	0	26.700	0	277.981	0	88.5	4	29.2	4	-1E+10	1	-1E+10	1	-1E+10	1	-1E+10	1	-1E+10	1	-1E+10	1
4902549	71	C	07/29/2022	03:07	-131.714	47.085	0	281.90	0	5.9310	0	33.9050	0	26.699	0	279.367	0	88.0	4	29.0	4	-1E+10	1	-1E+10	1	-1E+10	1	-1E+10	1	-1E+10	1	-1E+10	1
4902549	71	C	07/29/2022	03:07	-131.714	47.085	0	283.40	0	5.9260	0	33.9060	0	26.701	0	280.853	0	87.5	4	28.8	4	-1E+10	1	-1E+10	1	-1E+10	1	-1E+10	1	-1E+10	1	-1E+10	1
4902549	71	C	07/29/2022	03:07	-131.714	47.085	0	284.40	0	5.9210	0	33.9050	0	26.700	0	281.843	0	87.1	4	28.7	4	-1E+10	1	-1E+10	1	-1E+10	1	-1E+10	1	-1E+10	1	-1E+10	1
4902549	71	C	07/29/2022	03:07	-131.714	47.085	0	285.30	0	5.9120	0	33.9050	0	26.702	0	282.734	0	86.6	4	28.5	4	-1E+10	1	-1E+10	1	-1E+10	1	-1E+10	1	-1E+10	1	-1E+10	1
4902549	71	C	07/29/2022	03:07	-131.714	47.085	0	286.30	0	5.8960	0	33.9060	0	26.704	0	283.725	0	86.1	4	28.4	4	-1E+10	1	-1E+10	1	-1E+10	1	-1E+10	1	-1E+10	1	-1E+10	1
4902549	71	C	07/29/2022	03:07	-131.714	47.085	0	287.30	0	5.8840	0	33.9070	0	26.707	0	284.715	0	85.7	4	28.2	4	-1E+10	1	-1E+10	1	-1E+10	1	-1E+10	1	-1E+10	1	-1E+10	1
4902549	71	C	07/29/2022	03:07	-131.714	47.085	0	288.30	0	5.8820	0	33.9080	0	26.708	0	285.705	0	85.3	4	28.1	4	-1E+10	1	-1E+10	1	-1E+10	1	-1E+10	1	-1E+10	1	-1E+10	1
4902549	71	C	07/29/2022	03:07	-131.714	47.085	0	289.30	0	5.8540	0	33.9120	0	26.714	0	286.696	0	85.1	4	28.0	4	-1E+10	1	-1E+10	1	-1E+10	1	-1E+10	1	-1E+10	1	-1E+10	1
4902549	71	C	07/29/2022	03:07	-131.714	47.085	0	290.30	0	5.8340	0	33.9110	0	26.716	0	287.686	0	84.9	4	28.0	4	-1E+10	1	-1E+10	1	-1E+10	1	-1E+10	1	-1E+10	1	-1E+10	1
4902549	71	C	07/29/2022	03:07	-131.714	47.085	0	291.20	0	5.8270	0	33.9110	0	26.717	0	288.577	0	84.7	4	27.9	4	-1E+10	1	-1E+10	1	-1E+10	1	-1E+10	1	-1E+10	1	-1E+10	1
4902549	71	C	07/29/2022	03:07	-131.714	47.085	0	292.20	0	5.8230	0	33.9110	0	26.717	0	289.568	0	84.4	4	27.8	4	-1E+10	1	-1E+10	1	-1E+10	1	-1E+10	1	-1E+10	1	-1E+10	1
4902549	71	C	07/29/2022	03:07	-131.714	47.085	0	293.20	0	5.8180	0	33.9110	0	26.718	0	290.558	0	84.1	4	27.7	4	-1E+10	1	-1E+10	1	-1E+10	1	-1E+10	1	-1E+10	1	-1E+10	1
4902549	71	C	07/29/2022	03:07	-131.714	47.085	0	294.20	0	5.8140	0	33.9110	0	26.718	0	291.548	0	83.7	4	27.5	4	-1E+10	1	-1E+10	1	-1E+10	1	-1E+10	1	-1E+10	1	-1E+10	1
4902549	71	C	07/29/2022	03:07	-131.714	47.085	0	295.20	0	5.8130	0	33.9110	0	26.719	0	292.538	0	83.3	4	27.4	4	-1E+10	1	-1E+10	1	-1E+10	1	-1E+10	1	-1E+10	1	-1E+10	1
4902549	71	C	07/29/2022	03:07	-131.714	47.085	0	296.20	0	5.8070	0	33.9110	0	26.719	0	293.529	0	82.8	4	27.2	4	-1E+10	1	-1E+10	1	-1E+10	1	-1E+10	1	-1E+10	1	-1E+10	1
4902549	71	C	07/29/2022	03:07	-131.714	47.085	0	297.20	0	5.7890	0	33.9120	0	26.722	0	294.519	0	82.5	4	27.1	4	-1E+10	1	-1E+10	1	-1E+10	1	-1E+10	1	-1E+10	1	-1E+10	1
4902549	71	C	07/29/2022	03:07	-131.714	47.085	0	298.20	0	5.7690	0	33.9140	0	26.726	0	295.509	0	82.2	4	27.0	4	-1E+10	1	-1E+10	1	-1E+10	1	-1E+10	1	-1E+10	1	-1E+10	1
4902549	71	C	07/29/2022	03:07	-131.714	47.085	0	299.20	0	5.7670	0	33.9140	0	26.727	0	296.500	0	81.9	4	26.9	4	-1E+10	1	-1E+10	1	-1E+10	1	-1E+10	1	-1E+10	1	-1E+10	1
4902549	71	C	07/29/2022	03:07	-131.714	47.085	0	300.20	0	5.7650	0	33.9140	0	26.727	0	297.490	0	81.6	4	26.8	4	-1E+10	1	-1E+10	1	-1E+10	1	-1E+10	1	-1E+10	1	-1E+10	1
4902549	71	C	07/29/2022	03:07	-131.714	47.085	0	301.10	0	5.7520	0	33.9140	0	26.729	0	298.381	0	81.1	4	26.6	4	-1E+10	1	-1E+10	1	-1E+10	1	-1E+10	1	-1E+10	1	-1E+10	1
4902549	71	C	07/29/2022	03:07	-131.714	47.085	0	302.10	0	5.7420	0	33.9140	0	26.730	0	299.371	0	80.7	4	26.5	4	-1E+10	1	-1E+10	1	-1E+10	1	-1E+10	1	-1E+10	1	-1E+10	1
4902549	71	C	07/29/2022	03:07	-131.714	47.085	0	303.10	0	5.7280	0	33.9150	0	26.732	0	300.361	0	80.3	4	26.4	4	-1E+10	1	-1E+10	1	-1E+10	1	-1E+10	1	-1E+10	1	-1E+10	1
4902549	71	C	07/29/2022	03:07	-131.714	47.085	0	304.10	0	5.7140	0	33.9170	0	26.736	0	301.352	0	80.0	4	26.2	4	-1E+10	1	-1E+10	1	-1E+10	1	-1E+10	1	-1E+10	1	-1E+10	1
4902549	71	C	07/29/2022	03:07	-131.714	47.085	0	305.10	0	5.7130	0	33.9190	0	26.737	0	302.342	0	79.7	4	26.2	4	-1E+10	1	-1E+10	1	-1E+10	1	-1E+10	1	-1E+10	1	-1E+10	1
4902549	71	C	07/29/2022	03:07	-131.714	47.085	0	306.10	0	5.7130	0	33.9190	0	26.737	0	303.332	0	79.5	4	26.1	4	-1E+10	1	-1E+10	1	-1E+10	1	-1E+10	1	-1E+10	1	-1E+10	1
4902549	71	C	07/29/2022	03:07	-131.714	47.085	0	307.00	0	5.7140	0	33.9200	0	26.738	0	304.223	0	79.3	4	26.0	4	-1E+10	1	-1E+10	1	-1E+10	1	-1E+10	1	-1E+10	1	-1E+10	1
4902549	71	C	07/29/2022	03:07	-131.714	47.085	0	308.00	0	5.7130	0	33.9210	0	26.739	0	305.214	0	79.0	4	25.9	4	-1E+10	1	-1E+10	1	-1E+10	1	-1E+10	1	-1E+10	1	-1E+10	1
4902549	71	C	07/29/2022	03:07	-131.714	47.085	0	309.00	0	5.7130	0	33.9210	0	26.739	0	306.204	0	78.8	4	25.9	4	-1E+10	1	-1E+10	1	-1E+10	1	-1E+10	1	-1E+10	1	-1E+10	1
4902549	71	C	07/29/2022	03:07	-131.714	47.085	0	310.00	0	5.7120	0	33.9210	0	26.739	0	307.194	0	78.5	4	25.8	4	-1E+10	1	-1E+10	1	-1E+10	1	-1E+10	1	-1E+10	1	-1E+10	1
4902549	71	C	07/29/2022	03:07	-131.714	47.085	0	310.90	0	5.7090	0	33.9210	0	26.739	0	308.085	0	78.1	4	25.6	4	-1E+10	1	-1E+10	1	-1E+10	1	-1E+10	1	-1E+10	1	-1E+10	1
4902549	71	C	07/29/2022	03:07	-131.714	47.085	0	311.90	0	5.7110	0	33.9230	0	26.741	0	309.075	0	77.9	4	25.6	4	-1E+10	1	-1E+10	1	-1E+10	1	-1E+10	1	-1E+10	1	-1E+10	1
4902549	71	C	07/29/2022	03:07	-131.714	47.085	0	312.90	0	5.7110	0	33.9230	0	26.741	0	310.066	0	77.6	4	25.5	4	-1E+10	1	-1E+10	1	-1E+10	1	-1E+10	1	-1E+10	1	-1E+10	1
4902549	71	C	07/29/2022	03:07	-131.714	47.085	0	313.90	0	5.7120	0	33.9220	0	26.740	0	311.056	0	77.3	4	25.4	4	-1E+10	1	-1E+10	1	-1E+10	1	-1E+10	1	-1E+10	1	-1E+10	1
4902549	71	C	07/29/2022	03:07	-131.714	47.085	0	314.80	0	5.6900	0	33.9220	0	26.743	0	311.947	0	77.1	4	25.3	4	-1E+10	1	-1E+10	1	-1E+10	1	-1E+10	1	-1E+10	1	-1E+10	1
4902549	71	C	07/29/2022	03:07	-131.714	47.085	0	315.80	0	5.6850	0	33.9270	0	26.747	0	312.937	0	76.7	4	25.1	4	-1E+10	1	-1E+10	1	-1E+10	1	-1E+10	1	-1E+10	1	-1E+10	1
4902549	71	C	07/29/2022	03:07	-131.714	47.085	0	316.80	0	5.6650	0	33.9230	0	26.746	0	313.927	0	76.3	4	25.0	4	-1E+10	1	-1E+10	1	-1E+10	1	-1E+10	1	-1E+10	1	-1E+10	1
4902549	71	C	07/29/2022	03:07	-131.714	47.085	0	317.70	0	5.6610	0	33.9250	0	26.748	0	314.818	0	75.9	4	24.9	4	-1E+10	1	-1E+10	1	-1E+10	1	-1E+10	1	-1E+10	1	-1E+10	1
4902549	71	C	07/29/2022	03:07	-131.714	47.085	0	318.70	0	5.6620	0	33.9250	0	26.748	0	315.809	0	75.6	4	24.8	4	-1E+10	1	-1E+10	1	-1E+10	1	-1E+10	1	-1E+10	1	-1E+10	1
4902549	71	C	07/29/2022	03:07	-131.714	47.085	0	319.70	0	5.6640	0	33.9250	0	26.748	0	316.799	0	75.2	4	24.6	4	-1E+10	1	-1E+10	1	-1E+10	1	-1E+10	1	-1E+10	1	-1E+10	1
4902549	71	C	07/29/2022	03:07	-131.714	47.085	0	320.70	0	5.6620	0	33.9250	0	26.748	0	317.789	0	74.8	4	24.5	4	-1E+10	1	-1E+10	1	-1E+10	1	-1E+10	1	-1E+10	1	-1E+10	1
4902549	71	C	07/29/2022	03:07	-131.714	47.085	0	321.70	0	5.6490	0	33.9260	0	26.751	0	318.779	0	74.5	4	24.4	4	-1E+10	1	-1E+10	1	-1E+10	1	-1E+10	1	-1E+10	1	-1E+10	1
4902549	71	C	07/29/2022	03:07	-131.714	47.085	0	322.70	0	5.6420	0	33.9240	0	26.750	0	319.769	0	74.0	4	24.2	4	-1E+10	1	-1E+10	1	-1E+10	1	-1E+10	1	-1E+10	1	-1E+10	1
4902549	71	C	07/29/2022	03:07	-131.714	47.085	0	323.70	0	5.6330	0	33.9260	0	26.753	0	320.759	0	73.5	4	24.1	4	-1E+10	1	-1E+10	1	-1E+10	1	-1E+10	1	-1E+10	1	-1E+10	1
4902549	71	C	07/29/2022	03:07	-131.714	47.085	0	324.70	0	5.6210	0	33.9290	0	26.757	0	321.750	0	73.2	4	24.0	4	-1E+10	1	-1E+10	1	-1E+10	1	-1E+10	1	-1E+10	1	-1E+10	1
4902549	71	C	07/29/2022	03:07	-131.714	47.085	0	325.70	0	5.6180	0	33.9290	0	26.757	0	322.740	0	72.8	4	23.8	4	-1E+10	1	-1E+10	1	-1E+10	1	-1E+10	1	-1E+10	1	-1E+10	1
4902549	71	C	07/29/2022	03:07	-131.714	47.085	0	326.70	0	5.6150	0	33.9300	0	26.758	0	323.730	0	72.4	4	23.7	4	-1E+10	1	-1E+10	1	-1E+10	1	-1E+10	1	-1E+10	1	-1E+10	1
4902549	71	C	07/29/2022	03:07	-131.714	47.085	0	327.70	0	5.6090	0	33.9310	0	26.760	0	324.720	0	72.1	4	23.6	4	-1E+10	1	-1E+10	1	-1E+10	1	-1E+10	1	-1E+10	1	-1E+10	1
4902549	71	C	07/29/2022	03:07	-131.714	47.085	0	328.70	0	5.5910	0	33.9330	0	26.763	0	325.710	0	71.7	4	23.5	4	-1E+10	1	-1E+10	1	-1E+10	1	-1E+10	1	-1E+10	1	-1E+10	1
4902549	71	C	07/29/2022	03:07	-131.714	47.085	0	329.80	0	5.5790	0	33.9330	0	26.765	0	326.799	0	71.4	4	23.3	4	-1E+10	1	-1E+10	1	-1E+10	1	-1E+10	1	-1E+10	1	-1E+10	1
4902549	71	C	07/29/2022	03:07	-131.714	47.085	0	330.80	0	5.5820	0	33.9330	0	26.764	0	327.789	0	71.0	4	23.2	4	-1E+10	1	-1E+10	1	-1E+10	1	-1E+10	1	-1E+10	1	-1E+10	1
4902549	71	C	07/29/2022	03:07	-131.714	47.085	0	331.80	0	5.5740	0	33.9340	0	26.766	0	328.779	0	70.7	4	23.1	4	-1E+10	1	-1E+10	1	-1E+10	1	-1E+10	1	-1E+10	1	-1E+10	1
4902549	71	C	07/29/2022	03:07	-131.714	47.085	0	332.80	0	5.5610	0	33.9370	0	26.770	0	329.769	0	70.3	4	23.0	4	-1E+10	1	-1E+10	1	-1E+10	1	-1E+10	1	-1E+10	1	-1E+10	1
4902549	71	C	07/29/2022	03:07	-131.714	47.085	0	333.90	0	5.5470	0	33.9360	0	26.771	0	330.859	0	70.1	4	22.9	4	-1E+10	1	-1E+10	1	-1E+10	1	-1E+10	1	-1E+10	1	-1E+10	1
4902549	71	C	07/29/2022	03:07	-131.714	47.085	0	334.90	0	5.5360	0	33.9380	0	26.774	0	331.849	0	69.8	4	22.8	4	-1E+10	1	-1E+10	1	-1E+10	1	-1E+10	1	-1E+10	1	-1E+10	1
4902549	71	C	07/29/2022	03:07	-131.714	47.085	0	335.90	0	5.5300	0	33.9370	0	26.774	0	332.839	0	69.5	4	22.7	4	-1E+10	1	-1E+10	1	-1E+10	1	-1E+10	1	-1E+10	1	-1E+10	1
4902549	71	C	07/29/2022	03:07	-131.714	47.085	0	336.90	0	5.5260	0	33.9380	0	26.775	0	333.829	0	69.2	4	22.6	4	-1E+10	1	-1E+10	1	-1E+10	1	-1E+10	1	-1E+10	1	-1E+10	1
4902549	71	C	07/29/2022	03:07	-131.714	47.085	0	337.90	0	5.5170	0	33.9390	0	26.777	0	334.819	0	69.0	4	22.5	4	-1E+10	1	-1E+10	1	-1E+10	1	-1E+10	1	-1E+10	1	-1E+10	1
4902549	71	C	07/29/2022	03:07	-131.714	47.085	0	338.90	0	5.5170	0	33.9380	0	26.776	0	335.809	0	68.7	4	22.4	4	-1E+10	1	-1E+10	1	-1E+10	1	-1E+10	1	-1E+10	1	-1E+10	1
4902549	71	C	07/29/2022	03:07	-131.714	47.085	0	339.90	0	5.5170	0	33.9380	0	26.776	0	336.799	0	68.3	4	22.3	4	-1E+10	1	-1E+10	1	-1E+10	1	-1E+10	1	-1E+10	1	-1E+10	1
4902549	71	C	07/29/2022	03:07	-131.714	47.085	0	340.90	0	5.5160	0	33.9380	0	26.776	0	337.789	0	68.0	4	22.2	4	-1E+10	1	-1E+10	1	-1E+10	1	-1E+10	1	-1E+10	1	-1E+10	1
4902549	71	C	07/29/2022	03:07	-131.714	47.085	0	341.90	0	5.5130	0	33.9370	0	26.776	0	338.779	0	67.5	4	22.1	4	-1E+10	1	-1E+10	1	-1E+10	1	-1E+10	1	-1E+10	1	-1E+10	1
4902549	71	C	07/29/2022	03:07	-131.714	47.085	0	343.00	0	5.5060	0	33.9390	0	26.778	0	339.868	0	67.1	4	21.9	4	-1E+10	1	-1E+10	1	-1E+10	1	-1E+10	1	-1E+10	1	-1E+10	1
4902549	71	C	07/29/2022	03:07	-131.714	47.085	0	344.00	0	5.4850	0	33.9420	0	26.783	0	340.858	0	66.8	4	21.8	4	-1E+10	1	-1E+10	1	-1E+10	1	-1E+10	1	-1E+10	1	-1E+10	1
4902549	71	C	07/29/2022	03:07	-131.714	47.085	0	345.00	0	5.4780	0	33.9430	0	26.785	0	341.848	0	66.5	4	21.7	4	-1E+10	1	-1E+10	1	-1E+10	1	-1E+10	1	-1E+10	1	-1E+10	1
4902549	71	C	07/29/2022	03:07	-131.714	47.085	0	346.00	0	5.4750	0	33.9430	0	26.785	0	342.838	0	66.3	4	21.6	4	-1E+10	1	-1E+10	1	-1E+10	1	-1E+10	1	-1E+10	1	-1E+10	1
4902549	71	C	07/29/2022	03:07	-131.714	47.085	0	347.00	0	5.4720	0	33.9430	0	26.786	0	343.828	0	66.0	4	21.5	4	-1E+10	1	-1E+10	1	-1E+10	1	-1E+10	1	-1E+10	1	-1E+10	1
4902549	71	C	07/29/2022	03:07	-131.714	47.085	0	348.00	0	5.4560	0	33.9460	0	26.790	0	344.818	0	65.8	4	21.5	4	-1E+10	1	-1E+10	1	-1E+10	1	-1E+10	1	-1E+10	1	-1E+10	1
4902549	71	C	07/29/2022	03:07	-131.714	47.085	0	349.00	0	5.4380	0	33.9470	0	26.793	0	345.808	0	65.7	4	21.4	4	-1E+10	1	-1E+10	1	-1E+10	1	-1E+10	1	-1E+10	1	-1E+10	1
4902549	71	C	07/29/2022	03:07	-131.714	47.085	0	350.00	0	5.4310	0	33.9470	0	26.794	0	346.798	0	65.5	4	21.4	4	-1E+10	1	-1E+10	1	-1E+10	1	-1E+10	1	-1E+10	1	-1E+10	1
4902549	71	C	07/29/2022	03:07	-131.714	47.085	0	353.00	0	5.4100	0	33.9480	0	26.797	0	349.769	0	65.2	4	21.2	4	-1E+10	1	-1E+10	1	-1E+10	1	-1E+10	1	-1E+10	1	-1E+10	1
4902549	71	C	07/29/2022	03:07	-131.714	47.085	0	358.20	0	5.3960	0	33.9490	0	26.800	0	354.916	0	64.5	4	21.0	4	-1E+10	1	-1E+10	1	-1E+10	1	-1E+10	1	-1E+10	1	-1E+10	1
4902549	71	C	07/29/2022	03:07	-131.714	47.085	0	363.30	0	5.3870	0	33.9490	0	26.801	0	359.965	0	63.5	4	20.7	4	-1E+10	1	-1E+10	1	-1E+10	1	-1E+10	1	-1E+10	1	-1E+10	1
4902549	71	C	07/29/2022	03:07	-131.714	47.085	0	367.90	0	5.3670	0	33.9490	0	26.803	0	364.519	0	61.8	4	20.1	4	-1E+10	1	-1E+10	1	-1E+10	1	-1E+10	1	-1E+10	1	-1E+10	1
4902549	71	C	07/29/2022	03:07	-131.714	47.085	0	372.50	0	5.2970	0	33.9550	0	26.816	0	369.073	0	60.3	4	19.6	4	-1E+10	1	-1E+10	1	-1E+10	1	-1E+10	1	-1E+10	1	-1E+10	1
4902549	71	C	07/29/2022	03:07	-131.714	47.085	0	377.70	0	5.2690	0	33.9560	0	26.820	0	374.220	0	58.6	4	19.0	4	-1E+10	1	-1E+10	1	-1E+10	1	-1E+10	1	-1E+10	1	-1E+10	1
4902549	71	C	07/29/2022	03:07	-131.714	47.085	0	382.90	0	5.2480	0	33.9630	0	26.828	0	379.367	0	56.7	4	18.4	4	-1E+10	1	-1E+10	1	-1E+10	1	-1E+10	1	-1E+10	1	-1E+10	1
4902549	71	C	07/29/2022	03:07	-131.714	47.085	0	388.20	0	5.2110	0	33.9670	0	26.836	0	384.614	0	55.3	4	17.9	4	-1E+10	1	-1E+10	1	-1E+10	1	-1E+10	1	-1E+10	1	-1E+10	1
4902549	71	C	07/29/2022	03:07	-131.714	47.085	0	392.80	0	5.1500	0	33.9700	0	26.845	0	389.167	0	53.8	4	17.4	4	-1E+10	1	-1E+10	1	-1E+10	1	-1E+10	1	-1E+10	1	-1E+10	1
4902549	71	C	07/29/2022	03:07	-131.714	47.085	0	397.50	0	5.1240	0	33.9750	0	26.852	0	393.819	0	52.4	4	17.0	4	-1E+10	1	-1E+10	1	-1E+10	1	-1E+10	1	-1E+10	1	-1E+10	1
4902549	71	C	07/29/2022	03:07	-131.714	47.085	0	402.70	0	5.1000	0	33.9780	0	26.857	0	398.966	0	50.9	4	16.5	4	-1E+10	1	-1E+10	1	-1E+10	1	-1E+10	1	-1E+10	1	-1E+10	1
4902549	71	C	07/29/2022	03:07	-131.714	47.085	0	407.90	0	5.0670	0	33.9820	0	26.864	0	404.112	0	49.1	4	15.9	4	-1E+10	1	-1E+10	1	-1E+10	1	-1E+10	1	-1E+10	1	-1E+10	1
4902549	71	C	07/29/2022	03:07	-131.714	47.085	0	413.00	0	5.0260	0	33.9890	0	26.875	0	409.160	0	47.2	4	15.2	4	-1E+10	1	-1E+10	1	-1E+10	1	-1E+10	1	-1E+10	1	-1E+10	1
4902549	71	C	07/29/2022	03:07	-131.714	47.085	0	417.80	0	5.0070	0	33.9940	0	26.881	0	413.911	0	45.7	4	14.8	4	-1E+10	1	-1E+10	1	-1E+10	1	-1E+10	1	-1E+10	1	-1E+10	1
4902549	71	C	07/29/2022	03:07	-131.714	47.085	0	422.70	0	4.9670	0	34.0000	0	26.890	0	418.760	0	44.8	4	14.5	4	-1E+10	1	-1E+10	1	-1E+10	1	-1E+10	1	-1E+10	1	-1E+10	1
4902549	71	C	07/29/2022	03:07	-131.714	47.085	0	427.60	0	4.9340	0	34.0020	0	26.895	0	423.609	0	43.6	4	14.1	4	-1E+10	1	-1E+10	1	-1E+10	1	-1E+10	1	-1E+10	1	-1E+10	1
4902549	71	C	07/29/2022	03:07	-131.714	47.085	0	432.60	0	4.9060	0	34.0060	0	26.902	0	428.558	0	42.7	4	13.7	4	-1E+10	1	-1E+10	1	-1E+10	1	-1E+10	1	-1E+10	1	-1E+10	1
4902549	71	C	07/29/2022	03:07	-131.714	47.085	0	437.60	0	4.8810	0	34.0090	0	26.907	0	433.506	0	41.0	4	13.2	4	-1E+10	1	-1E+10	1	-1E+10	1	-1E+10	1	-1E+10	1	-1E+10	1
4902549	71	C	07/29/2022	03:07	-131.714	47.085	0	442.70	0	4.8710	0	34.0160	0	26.914	0	438.553	0	39.6	4	12.7	4	-1E+10	1	-1E+10	1	-1E+10	1	-1E+10	1	-1E+10	1	-1E+10	1
4902549	71	C	07/29/2022	03:07	-131.714	47.085	0	447.80	0	4.8580	0	34.0220	0	26.920	0	443.599	0	38.2	4	12.3	4	-1E+10	1	-1E+10	1	-1E+10	1	-1E+10	1	-1E+10	1	-1E+10	1
4902549	71	C	07/29/2022	03:07	-131.714	47.085	0	453.00	0	4.8400	0	34.0270	0	26.926	0	448.745	0	36.7	4	11.8	4	-1E+10	1	-1E+10	1	-1E+10	1	-1E+10	1	-1E+10	1	-1E+10	1
4902549	71	C	07/29/2022	03:07	-131.714	47.085	0	458.20	0	4.8250	0	34.0350	0	26.934	0	453.890	0	35.5	4	11.4	4	-1E+10	1	-1E+10	1	-1E+10	1	-1E+10	1	-1E+10	1	-1E+10	1
4902549	71	C	07/29/2022	03:07	-131.714	47.085	0	462.90	0	4.8020	0	34.0380	0	26.939	0	458.541	0	34.9	4	11.2	4	-1E+10	1	-1E+10	1	-1E+10	1	-1E+10	1	-1E+10	1	-1E+10	1
4902549	71	C	07/29/2022	03:07	-131.714	47.085	0	467.70	0	4.7840	0	34.0380	0	26.941	0	463.291	0	34.1	4	11.0	4	-1E+10	1	-1E+10	1	-1E+10	1	-1E+10	1	-1E+10	1	-1E+10	1
4902549	71	C	07/29/2022	03:07	-131.714	47.085	0	473.10	0	4.7580	0	34.0440	0	26.949	0	468.633	0	32.7	4	10.5	4	-1E+10	1	-1E+10	1	-1E+10	1	-1E+10	1	-1E+10	1	-1E+10	1
4902549	71	C	07/29/2022	03:07	-131.714	47.085	0	478.00	0	4.7470	0	34.0500	0	26.955	0	473.482	0	31.7	4	10.2	4	-1E+10	1	-1E+10	1	-1E+10	1	-1E+10	1	-1E+10	1	-1E+10	1
4902549	71	C	07/29/2022	03:07	-131.714	47.085	0	483.00	0	4.7210	0	34.0550	0	26.962	0	478.429	0	30.8	4	9.9	4	-1E+10	1	-1E+10	1	-1E+10	1	-1E+10	1	-1E+10	1	-1E+10	1
4902549	71	C	07/29/2022	03:07	-131.714	47.085	0	487.90	0	4.7050	0	34.0600	0	26.967	0	483.277	0	30.1	4	9.7	4	-1E+10	1	-1E+10	1	-1E+10	1	-1E+10	1	-1E+10	1	-1E+10	1
4902549	71	C	07/29/2022	03:07	-131.714	47.085	0	493.00	0	4.7040	0	34.0620	0	26.969	0	488.322	0	29.6	4	9.5	4	-1E+10	1	-1E+10	1	-1E+10	1	-1E+10	1	-1E+10	1	-1E+10	1
4902549	71	C	07/29/2022	03:07	-131.714	47.085	0	498.10	0	4.6990	0	34.0630	0	26.971	0	493.368	0	28.8	4	9.2	4	-1E+10	1	-1E+10	1	-1E+10	1	-1E+10	1	-1E+10	1	-1E+10	1
4902549	71	C	07/29/2022	03:07	-131.714	47.085	0	502.80	0	4.6960	0	34.0660	0	26.973	0	498.018	0	27.7	4	8.9	4	-1E+10	1	-1E+10	1	-1E+10	1	-1E+10	1	-1E+10	1	-1E+10	1
4902549	71	C	07/29/2022	03:07	-131.714	47.085	0	507.60	0	4.6920	0	34.0710	0	26.978	0	502.766	0	26.6	4	8.5	4	-1E+10	1	-1E+10	1	-1E+10	1	-1E+10	1	-1E+10	1	-1E+10	1
4902549	71	C	07/29/2022	03:07	-131.714	47.085	0	512.90	0	4.6810	0	34.0770	0	26.984	0	508.009	0	25.5	4	8.2	4	-1E+10	1	-1E+10	1	-1E+10	1	-1E+10	1	-1E+10	1	-1E+10	1
4902549	71	C	07/29/2022	03:07	-131.714	47.085	0	518.20	0	4.6780	0	34.0820	0	26.988	0	513.252	0	24.6	4	7.9	4	-1E+10	1	-1E+10	1	-1E+10	1	-1E+10	1	-1E+10	1	-1E+10	1
4902549	71	C	07/29/2022	03:07	-131.714	47.085	0	523.10	0	4.6640	0	34.0870	0	26.994	0	518.099	0	23.8	4	7.6	4	-1E+10	1	-1E+10	1	-1E+10	1	-1E+10	1	-1E+10	1	-1E+10	1
4902549	71	C	07/29/2022	03:07	-131.714	47.085	0	528.10	0	4.6440	0	34.0900	0	26.998	0	523.045	0	23.0	4	7.4	4	-1E+10	1	-1E+10	1	-1E+10	1	-1E+10	1	-1E+10	1	-1E+10	1
4902549	71	C	07/29/2022	03:07	-131.714	47.085	0	533.10	0	4.6230	0	34.0960	0	27.005	0	527.991	0	22.1	4	7.1	4	-1E+10	1	-1E+10	1	-1E+10	1	-1E+10	1	-1E+10	1	-1E+10	1
4902549	71	C	07/29/2022	03:07	-131.714	47.085	0	538.20	0	4.6090	0	34.1010	0	27.011	0	533.035	0	21.5	4	6.9	4	-1E+10	1	-1E+10	1	-1E+10	1	-1E+10	1	-1E+10	1	-1E+10	1
4902549	71	C	07/29/2022	03:07	-131.714	47.085	0	542.90	0	4.5960	0	34.1040	0	27.015	0	537.684	0	21.1	4	6.7	4	-1E+10	1	-1E+10	1	-1E+10	1	-1E+10	1	-1E+10	1	-1E+10	1
4902549	71	C	07/29/2022	03:07	-131.714	47.085	0	547.60	0	4.5800	0	34.1060	0	27.018	0	542.333	0	20.7	4	6.6	4	-1E+10	1	-1E+10	1	-1E+10	1	-1E+10	1	-1E+10	1	-1E+10	1
4902549	71	C	07/29/2022	03:07	-131.714	47.085	0	552.90	0	4.5600	0	34.1070	0	27.021	0	547.575	0	20.2	4	6.5	4	-1E+10	1	-1E+10	1	-1E+10	1	-1E+10	1	-1E+10	1	-1E+10	1
4902549	71	C	07/29/2022	03:07	-131.714	47.085	0	558.10	0	4.5340	0	34.1130	0	27.029	0	552.718	0	19.3	4	6.2	4	-1E+10	1	-1E+10	1	-1E+10	1	-1E+10	1	-1E+10	1	-1E+10	1
4902549	71	C	07/29/2022	03:07	-131.714	47.085	0	562.80	0	4.5340	0	34.1160	0	27.031	0	557.366	0	18.7	4	6.0	4	-1E+10	1	-1E+10	1	-1E+10	1	-1E+10	1	-1E+10	1	-1E+10	1
4902549	71	C	07/29/2022	03:07	-131.714	47.085	0	568.00	0	4.5300	0	34.1200	0	27.035	0	562.509	0	17.8	4	5.7	4	-1E+10	1	-1E+10	1	-1E+10	1	-1E+10	1	-1E+10	1	-1E+10	1
4902549	71	C	07/29/2022	03:07	-131.714	47.085	0	573.30	0	4.5000	0	34.1270	0	27.044	0	567.751	0	16.7	4	5.3	4	-1E+10	1	-1E+10	1	-1E+10	1	-1E+10	1	-1E+10	1	-1E+10	1
4902549	71	C	07/29/2022	03:07	-131.714	47.085	0	578.20	0	4.4860	0	34.1350	0	27.052	0	572.597	0	16.0	4	5.1	4	-1E+10	1	-1E+10	1	-1E+10	1	-1E+10	1	-1E+10	1	-1E+10	1
4902549	71	C	07/29/2022	03:07	-131.714	47.085	0	583.20	0	4.4770	0	34.1390	0	27.056	0	577.541	0	15.5	4	4.9	4	-1E+10	1	-1E+10	1	-1E+10	1	-1E+10	1	-1E+10	1	-1E+10	1
4902549	71	C	07/29/2022	03:07	-131.714	47.085	0	588.30	0	4.4640	0	34.1430	0	27.060	0	582.585	0	15.0	4	4.8	4	-1E+10	1	-1E+10	1	-1E+10	1	-1E+10	1	-1E+10	1	-1E+10	1
4902549	71	C	07/29/2022	03:07	-131.714	47.085	0	592.90	0	4.4430	0	34.1450	0	27.064	0	587.133	0	14.6	4	4.7	4	-1E+10	1	-1E+10	1	-1E+10	1	-1E+10	1	-1E+10	1	-1E+10	1
4902549	71	C	07/29/2022	03:07	-131.714	47.085	0	597.60	0	4.4220	0	34.1500	0	27.071	0	591.781	0	14.1	4	4.5	4	-1E+10	1	-1E+10	1	-1E+10	1	-1E+10	1	-1E+10	1	-1E+10	1
4902549	71	C	07/29/2022	03:07	-131.714	47.085	0	602.70	0	4.3910	0	34.1550	0	27.078	0	596.824	0	13.7	4	4.4	4	-1E+10	1	-1E+10	1	-1E+10	1	-1E+10	1	-1E+10	1	-1E+10	1
4902549	71	C	07/29/2022	03:07	-131.714	47.085	0	607.80	0	4.3960	0	34.1580	0	27.080	0	601.867	0	13.4	4	4.3	4	-1E+10	1	-1E+10	1	-1E+10	1	-1E+10	1	-1E+10	1	-1E+10	1
4902549	71	C	07/29/2022	03:07	-131.714	47.085	0	613.10	0	4.3860	0	34.1610	0	27.083	0	607.107	0	12.9	4	4.1	4	-1E+10	1	-1E+10	1	-1E+10	1	-1E+10	1	-1E+10	1	-1E+10	1
4902549	71	C	07/29/2022	03:07	-131.714	47.085	0	617.90	0	4.3730	0	34.1630	0	27.086	0	611.854	0	12.5	4	4.0	4	-1E+10	1	-1E+10	1	-1E+10	1	-1E+10	1	-1E+10	1	-1E+10	1
4902549	71	C	07/29/2022	03:07	-131.714	47.085	0	622.70	0	4.3690	0	34.1680	0	27.091	0	616.599	0	12.2	4	3.9	4	-1E+10	1	-1E+10	1	-1E+10	1	-1E+10	1	-1E+10	1	-1E+10	1
4902549	71	C	07/29/2022	03:07	-131.714	47.085	0	628.10	0	4.3600	0	34.1710	0	27.094	0	621.938	0	11.8	4	3.8	4	-1E+10	1	-1E+10	1	-1E+10	1	-1E+10	1	-1E+10	1	-1E+10	1
4902549	71	C	07/29/2022	03:07	-131.714	47.085	0	633.10	0	4.3410	0	34.1760	0	27.100	0	626.882	0	11.5	4	3.7	4	-1E+10	1	-1E+10	1	-1E+10	1	-1E+10	1	-1E+10	1	-1E+10	1
4902549	71	C	07/29/2022	03:07	-131.714	47.085	0	638.10	0	4.3330	0	34.1790	0	27.103	0	631.825	0	11.3	4	3.6	4	-1E+10	1	-1E+10	1	-1E+10	1	-1E+10	1	-1E+10	1	-1E+10	1
4902549	71	C	07/29/2022	03:07	-131.714	47.085	0	643.10	0	4.3230	0	34.1800	0	27.105	0	636.768	0	11.0	4	3.5	4	-1E+10	1	-1E+10	1	-1E+10	1	-1E+10	1	-1E+10	1	-1E+10	1
4902549	71	C	07/29/2022	03:07	-131.714	47.085	0	647.80	0	4.3020	0	34.1840	0	27.111	0	641.415	0	10.8	4	3.4	4	-1E+10	1	-1E+10	1	-1E+10	1	-1E+10	1	-1E+10	1	-1E+10	1
4902549	71	C	07/29/2022	03:07	-131.714	47.085	0	653.00	0	4.2850	0	34.1870	0	27.115	0	646.556	0	10.5	4	3.4	4	-1E+10	1	-1E+10	1	-1E+10	1	-1E+10	1	-1E+10	1	-1E+10	1
4902549	71	C	07/29/2022	03:07	-131.714	47.085	0	658.20	0	4.2700	0	34.1910	0	27.120	0	651.696	0	10.3	4	3.3	4	-1E+10	1	-1E+10	1	-1E+10	1	-1E+10	1	-1E+10	1	-1E+10	1
4902549	71	C	07/29/2022	03:07	-131.714	47.085	0	663.00	0	4.2570	0	34.1940	0	27.124	0	656.441	0	10.2	4	3.2	4	-1E+10	1	-1E+10	1	-1E+10	1	-1E+10	1	-1E+10	1	-1E+10	1
4902549	71	C	07/29/2022	03:07	-131.714	47.085	0	667.80	0	4.2490	0	34.1940	0	27.124	0	661.186	0	9.9	4	3.2	4	-1E+10	1	-1E+10	1	-1E+10	1	-1E+10	1	-1E+10	1	-1E+10	1
4902549	71	C	07/29/2022	03:07	-131.714	47.085	0	672.60	0	4.2350	0	34.1980	0	27.129	0	665.931	0	9.6	4	3.0	4	-1E+10	1	-1E+10	1	-1E+10	1	-1E+10	1	-1E+10	1	-1E+10	1
4902549	71	C	07/29/2022	03:07	-131.714	47.085	0	677.90	0	4.2240	0	34.2040	0	27.135	0	671.170	0	9.3	4	2.9	4	-1E+10	1	-1E+10	1	-1E+10	1	-1E+10	1	-1E+10	1	-1E+10	1
4902549	71	C	07/29/2022	03:07	-131.714	47.085	0	683.40	0	4.2030	0	34.2080	0	27.140	0	676.606	0	9.1	4	2.9	4	-1E+10	1	-1E+10	1	-1E+10	1	-1E+10	1	-1E+10	1	-1E+10	1
4902549	71	C	07/29/2022	03:07	-131.714	47.085	0	688.40	0	4.1810	0	34.2120	0	27.146	0	681.548	0	9.0	4	2.8	4	-1E+10	1	-1E+10	1	-1E+10	1	-1E+10	1	-1E+10	1	-1E+10	1
4902549	71	C	07/29/2022	03:07	-131.714	47.085	0	693.40	0	4.1650	0	34.2160	0	27.151	0	686.490	0	9.0	4	2.8	4	-1E+10	1	-1E+10	1	-1E+10	1	-1E+10	1	-1E+10	1	-1E+10	1
4902549	71	C	07/29/2022	03:07	-131.714	47.085	0	698.40	0	4.1490	0	34.2180	0	27.154	0	691.432	0	9.1	4	2.9	4	-1E+10	1	-1E+10	1	-1E+10	1	-1E+10	1	-1E+10	1	-1E+10	1
4902549	71	C	07/29/2022	03:07	-131.714	47.085	0	703.40	0	4.1250	0	34.2170	0	27.156	0	696.374	0	9.3	4	2.9	4	-1E+10	1	-1E+10	1	-1E+10	1	-1E+10	1	-1E+10	1	-1E+10	1
4902549	71	C	07/29/2022	03:07	-131.714	47.085	0	708.00	0	4.0910	0	34.2170	0	27.159	0	700.920	0	9.4	4	3.0	4	-1E+10	1	-1E+10	1	-1E+10	1	-1E+10	1	-1E+10	1	-1E+10	1
4902549	71	C	07/29/2022	03:07	-131.714	47.085	0	712.50	0	4.0760	0	34.2170	0	27.161	0	705.368	0	9.2	4	2.9	4	-1E+10	1	-1E+10	1	-1E+10	1	-1E+10	1	-1E+10	1	-1E+10	1
4902549	71	C	07/29/2022	03:07	-131.714	47.085	0	717.60	0	4.0830	0	34.2200	0	27.163	0	710.408	0	9.2	4	2.9	4	-1E+10	1	-1E+10	1	-1E+10	1	-1E+10	1	-1E+10	1	-1E+10	1
4902549	71	C	07/29/2022	03:07	-131.714	47.085	0	722.70	0	4.0550	0	34.2180	0	27.164	0	715.448	0	9.1	4	2.9	4	-1E+10	1	-1E+10	1	-1E+10	1	-1E+10	1	-1E+10	1	-1E+10	1
4902549	71	C	07/29/2022	03:07	-131.714	47.085	0	728.10	0	4.0490	0	34.2240	0	27.169	0	720.785	0	9.0	4	2.8	4	-1E+10	1	-1E+10	1	-1E+10	1	-1E+10	1	-1E+10	1	-1E+10	1
4902549	71	C	07/29/2022	03:07	-131.714	47.085	0	732.90	0	4.0230	0	34.2230	0	27.171	0	725.528	0	8.9	4	2.8	4	-1E+10	1	-1E+10	1	-1E+10	1	-1E+10	1	-1E+10	1	-1E+10	1
4902549	71	C	07/29/2022	03:07	-131.714	47.085	0	737.80	0	4.0140	0	34.2260	0	27.175	0	730.370	0	8.6	4	2.7	4	-1E+10	1	-1E+10	1	-1E+10	1	-1E+10	1	-1E+10	1	-1E+10	1
4902549	71	C	07/29/2022	03:07	-131.714	47.085	0	743.20	0	4.0090	0	34.2300	0	27.178	0	735.706	0	8.2	4	2.6	4	-1E+10	1	-1E+10	1	-1E+10	1	-1E+10	1	-1E+10	1	-1E+10	1
4902549	71	C	07/29/2022	03:07	-131.714	47.085	0	748.10	0	4.0280	0	34.2390	0	27.184	0	740.548	0	7.8	4	2.5	4	-1E+10	1	-1E+10	1	-1E+10	1	-1E+10	1	-1E+10	1	-1E+10	1
4902549	71	C	07/29/2022	03:07	-131.714	47.085	0	752.60	0	4.0590	0	34.2450	0	27.185	0	744.995	0	7.8	4	2.5	4	-1E+10	1	-1E+10	1	-1E+10	1	-1E+10	1	-1E+10	1	-1E+10	1
4902549	71	C	07/29/2022	03:07	-131.714	47.085	0	757.50	0	4.0350	0	34.2450	0	27.188	0	749.836	0	8.2	4	2.6	4	-1E+10	1	-1E+10	1	-1E+10	1	-1E+10	1	-1E+10	1	-1E+10	1
4902549	71	C	07/29/2022	03:07	-131.714	47.085	0	762.60	0	3.9990	0	34.2410	0	27.188	0	754.876	0	8.6	4	2.7	4	-1E+10	1	-1E+10	1	-1E+10	1	-1E+10	1	-1E+10	1	-1E+10	1
4902549	71	C	07/29/2022	03:07	-131.714	47.085	0	767.60	0	3.9480	0	34.2370	0	27.190	0	759.816	0	8.8	4	2.8	4	-1E+10	1	-1E+10	1	-1E+10	1	-1E+10	1	-1E+10	1	-1E+10	1
4902549	71	C	07/29/2022	03:07	-131.714	47.085	0	772.80	0	3.9000	0	34.2350	0	27.194	0	764.954	0	8.9	4	2.8	4	-1E+10	1	-1E+10	1	-1E+10	1	-1E+10	1	-1E+10	1	-1E+10	1
4902549	71	C	07/29/2022	03:07	-131.714	47.085	0	777.90	0	3.8590	0	34.2370	0	27.199	0	769.992	0	8.4	4	2.6	4	-1E+10	1	-1E+10	1	-1E+10	1	-1E+10	1	-1E+10	1	-1E+10	1
4902549	71	C	07/29/2022	03:07	-131.714	47.085	0	783.10	0	3.8830	0	34.2490	0	27.207	0	775.130	0	8.0	4	2.5	4	-1E+10	1	-1E+10	1	-1E+10	1	-1E+10	1	-1E+10	1	-1E+10	1
4902549	71	C	07/29/2022	03:07	-131.714	47.085	0	788.20	0	3.8680	0	34.2500	0	27.209	0	780.168	0	7.8	4	2.5	4	-1E+10	1	-1E+10	1	-1E+10	1	-1E+10	1	-1E+10	1	-1E+10	1
4902549	71	C	07/29/2022	03:07	-131.714	47.085	0	793.00	0	3.8690	0	34.2540	0	27.212	0	784.911	0	7.3	4	2.3	4	-1E+10	1	-1E+10	1	-1E+10	1	-1E+10	1	-1E+10	1	-1E+10	1
4902549	71	C	07/29/2022	03:07	-131.714	47.085	0	797.70	0	3.9140	0	34.2650	0	27.216	0	789.554	0	7.4	4	2.3	4	-1E+10	1	-1E+10	1	-1E+10	1	-1E+10	1	-1E+10	1	-1E+10	1
4902549	71	C	07/29/2022	03:07	-131.714	47.085	0	802.90	0	3.8600	0	34.2630	0	27.220	0	794.691	0	7.7	4	2.4	4	-1E+10	1	-1E+10	1	-1E+10	1	-1E+10	1	-1E+10	1	-1E+10	1
4902549	71	C	07/29/2022	03:07	-131.714	47.085	0	808.00	0	3.8180	0	34.2610	0	27.223	0	799.729	0	7.8	4	2.4	4	-1E+10	1	-1E+10	1	-1E+10	1	-1E+10	1	-1E+10	1	-1E+10	1
4902549	71	C	07/29/2022	03:07	-131.714	47.085	0	813.20	0	3.7870	0	34.2610	0	27.226	0	804.866	0	7.7	4	2.4	4	-1E+10	1	-1E+10	1	-1E+10	1	-1E+10	1	-1E+10	1	-1E+10	1
4902549	71	C	07/29/2022	03:07	-131.714	47.085	0	818.00	0	3.7690	0	34.2650	0	27.231	0	809.607	0	7.6	4	2.4	4	-1E+10	1	-1E+10	1	-1E+10	1	-1E+10	1	-1E+10	1	-1E+10	1
4902549	71	C	07/29/2022	03:07	-131.714	47.085	0	822.70	0	3.7630	0	34.2680	0	27.234	0	814.250	0	7.5	4	2.4	4	-1E+10	1	-1E+10	1	-1E+10	1	-1E+10	1	-1E+10	1	-1E+10	1
4902549	71	C	07/29/2022	03:07	-131.714	47.085	0	827.90	0	3.7500	0	34.2700	0	27.237	0	819.386	0	7.4	4	2.3	4	-1E+10	1	-1E+10	1	-1E+10	1	-1E+10	1	-1E+10	1	-1E+10	1
4902549	71	C	07/29/2022	03:07	-131.714	47.085	0	833.10	0	3.7410	0	34.2730	0	27.240	0	824.522	0	7.4	4	2.3	4	-1E+10	1	-1E+10	1	-1E+10	1	-1E+10	1	-1E+10	1	-1E+10	1
4902549	71	C	07/29/2022	03:07	-131.714	47.085	0	837.90	0	3.7180	0	34.2750	0	27.244	0	829.263	0	7.4	4	2.3	4	-1E+10	1	-1E+10	1	-1E+10	1	-1E+10	1	-1E+10	1	-1E+10	1
4902549	71	C	07/29/2022	03:07	-131.714	47.085	0	842.80	0	3.7080	0	34.2770	0	27.247	0	834.103	0	7.3	4	2.3	4	-1E+10	1	-1E+10	1	-1E+10	1	-1E+10	1	-1E+10	1	-1E+10	1
4902549	71	C	07/29/2022	03:07	-131.714	47.085	0	848.10	0	3.6920	0	34.2780	0	27.249	0	839.338	0	7.2	4	2.3	4	-1E+10	1	-1E+10	1	-1E+10	1	-1E+10	1	-1E+10	1	-1E+10	1
4902549	71	C	07/29/2022	03:07	-131.714	47.085	0	852.90	0	3.6750	0	34.2820	0	27.254	0	844.079	0	7.1	4	2.2	4	-1E+10	1	-1E+10	1	-1E+10	1	-1E+10	1	-1E+10	1	-1E+10	1
4902549	71	C	07/29/2022	03:07	-131.714	47.085	0	857.70	0	3.6540	0	34.2850	0	27.258	0	848.819	0	7.1	4	2.2	4	-1E+10	1	-1E+10	1	-1E+10	1	-1E+10	1	-1E+10	1	-1E+10	1
4902549	71	C	07/29/2022	03:07	-131.714	47.085	0	862.90	0	3.6300	0	34.2870	0	27.262	0	853.955	0	7.0	4	2.2	4	-1E+10	1	-1E+10	1	-1E+10	1	-1E+10	1	-1E+10	1	-1E+10	1
4902549	71	C	07/29/2022	03:07	-131.714	47.085	0	868.20	0	3.6030	0	34.2890	0	27.267	0	859.189	0	6.9	4	2.2	4	-1E+10	1	-1E+10	1	-1E+10	1	-1E+10	1	-1E+10	1	-1E+10	1
4902549	71	C	07/29/2022	03:07	-131.714	47.085	0	873.00	0	3.6030	0	34.2920	0	27.269	0	863.929	0	6.7	4	2.1	4	-1E+10	1	-1E+10	1	-1E+10	1	-1E+10	1	-1E+10	1	-1E+10	1
4902549	71	C	07/29/2022	03:07	-131.714	47.085	0	877.90	0	3.6190	0	34.2980	0	27.272	0	868.768	0	6.6	4	2.1	4	-1E+10	1	-1E+10	1	-1E+10	1	-1E+10	1	-1E+10	1	-1E+10	1
4902549	71	C	07/29/2022	03:07	-131.714	47.085	0	883.10	0	3.6190	0	34.3020	0	27.276	0	873.903	0	6.6	4	2.1	4	-1E+10	1	-1E+10	1	-1E+10	1	-1E+10	1	-1E+10	1	-1E+10	1
4902549	71	C	07/29/2022	03:07	-131.714	47.085	0	888.10	0	3.6040	0	34.3060	0	27.280	0	878.841	0	6.7	4	2.1	4	-1E+10	1	-1E+10	1	-1E+10	1	-1E+10	1	-1E+10	1	-1E+10	1
4902549	71	C	07/29/2022	03:07	-131.714	47.085	0	892.70	0	3.5540	0	34.3050	0	27.284	0	883.383	0	6.9	4	2.2	4	-1E+10	1	-1E+10	1	-1E+10	1	-1E+10	1	-1E+10	1	-1E+10	1
4902549	71	C	07/29/2022	03:07	-131.714	47.085	0	897.80	0	3.5120	0	34.3030	0	27.287	0	888.419	0	6.9	4	2.2	4	-1E+10	1	-1E+10	1	-1E+10	1	-1E+10	1	-1E+10	1	-1E+10	1
4902549	71	C	07/29/2022	03:07	-131.714	47.085	0	902.90	0	3.4980	0	34.3040	0	27.289	0	893.455	0	6.9	4	2.1	4	-1E+10	1	-1E+10	1	-1E+10	1	-1E+10	1	-1E+10	1	-1E+10	1
4902549	71	C	07/29/2022	03:07	-131.714	47.085	0	908.00	0	3.4850	0	34.3070	0	27.293	0	898.490	0	6.8	4	2.1	4	-1E+10	1	-1E+10	1	-1E+10	1	-1E+10	1	-1E+10	1	-1E+10	1
4902549	71	C	07/29/2022	03:07	-131.714	47.085	0	913.10	0	3.4840	0	34.3110	0	27.296	0	903.526	0	6.6	4	2.1	4	-1E+10	1	-1E+10	1	-1E+10	1	-1E+10	1	-1E+10	1	-1E+10	1
4902549	71	C	07/29/2022	03:07	-131.714	47.085	0	917.90	0	3.4880	0	34.3140	0	27.298	0	908.265	0	6.5	4	2.0	4	-1E+10	1	-1E+10	1	-1E+10	1	-1E+10	1	-1E+10	1	-1E+10	1
4902549	71	C	07/29/2022	03:07	-131.714	47.085	0	922.70	0	3.4990	0	34.3190	0	27.301	0	913.004	0	6.4	4	2.0	4	-1E+10	1	-1E+10	1	-1E+10	1	-1E+10	1	-1E+10	1	-1E+10	1
4902549	71	C	07/29/2022	03:07	-131.714	47.085	0	927.90	0	3.4930	0	34.3230	0	27.305	0	918.138	0	6.4	4	2.0	4	-1E+10	1	-1E+10	1	-1E+10	1	-1E+10	1	-1E+10	1	-1E+10	1
4902549	71	C	07/29/2022	03:07	-131.714	47.085	0	933.20	0	3.4620	0	34.3260	0	27.310	0	923.371	0	6.4	4	2.0	4	-1E+10	1	-1E+10	1	-1E+10	1	-1E+10	1	-1E+10	1	-1E+10	1
4902549	71	C	07/29/2022	03:07	-131.714	47.085	0	938.10	0	3.4510	0	34.3260	0	27.311	0	928.208	0	6.3	4	2.0	4	-1E+10	1	-1E+10	1	-1E+10	1	-1E+10	1	-1E+10	1	-1E+10	1
4902549	71	C	07/29/2022	03:07	-131.714	47.085	0	942.90	0	3.4400	0	34.3290	0	27.315	0	932.947	0	6.2	4	1.9	4	-1E+10	1	-1E+10	1	-1E+10	1	-1E+10	1	-1E+10	1	-1E+10	1
4902549	71	C	07/29/2022	03:07	-131.714	47.085	0	947.70	0	3.4430	0	34.3310	0	27.316	0	937.686	0	6.1	4	1.9	4	-1E+10	1	-1E+10	1	-1E+10	1	-1E+10	1	-1E+10	1	-1E+10	1
4902549	71	C	07/29/2022	03:07	-131.714	47.085	0	953.00	0	3.4500	0	34.3380	0	27.321	0	942.918	0	6.0	4	1.9	4	-1E+10	1	-1E+10	1	-1E+10	1	-1E+10	1	-1E+10	1	-1E+10	1
4902549	71	C	07/29/2022	03:07	-131.714	47.085	0	958.20	0	3.4920	0	34.3500	0	27.327	0	948.051	0	5.8	4	1.8	4	-1E+10	1	-1E+10	1	-1E+10	1	-1E+10	1	-1E+10	1	-1E+10	1
4902549	71	C	07/29/2022	03:07	-131.714	47.085	0	963.00	0	3.5390	0	34.3610	0	27.331	0	952.789	0	5.8	4	1.8	4	-1E+10	1	-1E+10	1	-1E+10	1	-1E+10	1	-1E+10	1	-1E+10	1
4902549	71	C	07/29/2022	03:07	-131.714	47.085	0	967.80	0	3.5190	0	34.3620	0	27.334	0	957.527	0	5.9	4	1.8	4	-1E+10	1	-1E+10	1	-1E+10	1	-1E+10	1	-1E+10	1	-1E+10	1
4902549	71	C	07/29/2022	03:07	-131.714	47.085	0	973.00	0	3.5110	0	34.3630	0	27.335	0	962.660	0	5.9	4	1.8	4	-1E+10	1	-1E+10	1	-1E+10	1	-1E+10	1	-1E+10	1	-1E+10	1
4902549	71	C	07/29/2022	03:07	-131.714	47.085	0	978.30	0	3.5150	0	34.3670	0	27.338	0	967.892	0	5.9	4	1.9	4	-1E+10	1	-1E+10	1	-1E+10	1	-1E+10	1	-1E+10	1	-1E+10	1
4902549	71	C	07/29/2022	03:07	-131.714	47.085	0	983.00	0	3.5040	0	34.3690	0	27.341	0	972.531	0	6.0	4	1.9	4	-1E+10	1	-1E+10	1	-1E+10	1	-1E+10	1	-1E+10	1	-1E+10	1
4902549	71	C	07/29/2022	03:07	-131.714	47.085	0	987.90	0	3.5030	0	34.3700	0	27.342	0	977.367	0	6.0	4	1.9	4	-1E+10	1	-1E+10	1	-1E+10	1	-1E+10	1	-1E+10	1	-1E+10	1
4902549	71	C	07/29/2022	03:07	-131.714	47.085	0	992.70	0	3.4900	0	34.3710	0	27.344	0	982.105	0	6.1	4	1.9	4	-1E+10	1	-1E+10	1	-1E+10	1	-1E+10	1	-1E+10	1	-1E+10	1
4902549	71	C	07/29/2022	03:07	-131.714	47.085	0	997.60	0	3.4720	0	34.3740	0	27.348	0	986.941	0	6.2	4	1.9	4	-1E+10	1	-1E+10	1	-1E+10	1	-1E+10	1	-1E+10	1	-1E+10	1
4902549	71	C	07/29/2022	03:07	-131.714	47.085	0	1005.30	0	3.4410	0	34.3760	0	27.353	0	994.540	0	6.3	4	2.0	4	-1E+10	1	-1E+10	1	-1E+10	1	-1E+10	1	-1E+10	1	-1E+10	1
4902549	71	C	07/29/2022	03:07	-131.714	47.085	0	1015.60	0	3.4220	0	34.3800	0	27.358	0	1004.705	0	6.4	4	2.0	4	-1E+10	1	-1E+10	1	-1E+10	1	-1E+10	1	-1E+10	1	-1E+10	1
4902549	71	C	07/29/2022	03:07	-131.714	47.085	0	1025.70	0	3.3980	0	34.3840	0	27.363	0	1014.673	0	6.6	4	2.0	4	-1E+10	1	-1E+10	1	-1E+10	1	-1E+10	1	-1E+10	1	-1E+10	1
4902549	71	C	07/29/2022	03:07	-131.714	47.085	0	1035.30	0	3.3640	0	34.3870	0	27.369	0	1024.146	0	6.7	4	2.1	4	-1E+10	1	-1E+10	1	-1E+10	1	-1E+10	1	-1E+10	1	-1E+10	1
4902549	71	C	07/29/2022	03:07	-131.714	47.085	0	1045.00	0	3.3530	0	34.3920	0	27.374	0	1033.718	0	6.9	4	2.2	4	-1E+10	1	-1E+10	1	-1E+10	1	-1E+10	1	-1E+10	1	-1E+10	1
4902549	71	C	07/29/2022	03:07	-131.714	47.085	0	1055.60	0	3.3310	0	34.3970	0	27.380	0	1044.177	0	7.1	4	2.2	4	-1E+10	1	-1E+10	1	-1E+10	1	-1E+10	1	-1E+10	1	-1E+10	1
4902549	71	C	07/29/2022	03:07	-131.714	47.085	0	1065.30	0	3.3110	0	34.4010	0	27.385	0	1053.748	0	7.3	4	2.3	4	-1E+10	1	-1E+10	1	-1E+10	1	-1E+10	1	-1E+10	1	-1E+10	1
4902549	71	C	07/29/2022	03:07	-131.714	47.085	0	1075.40	0	3.2880	0	34.4040	0	27.390	0	1063.712	0	7.5	4	2.3	4	-1E+10	1	-1E+10	1	-1E+10	1	-1E+10	1	-1E+10	1	-1E+10	1
4902549	71	C	07/29/2022	03:07	-131.714	47.085	0	1085.70	0	3.2690	0	34.4070	0	27.394	0	1073.874	0	7.7	4	2.4	4	-1E+10	1	-1E+10	1	-1E+10	1	-1E+10	1	-1E+10	1	-1E+10	1
4902549	71	C	07/29/2022	03:07	-131.714	47.085	0	1095.40	0	3.2510	0	34.4100	0	27.398	0	1083.443	0	7.9	4	2.4	4	-1E+10	1	-1E+10	1	-1E+10	1	-1E+10	1	-1E+10	1	-1E+10	1
4902549	71	C	07/29/2022	03:07	-131.714	47.085	0	1105.30	0	3.2070	0	34.4120	0	27.404	0	1093.210	0	8.0	4	2.5	4	-1E+10	1	-1E+10	1	-1E+10	1	-1E+10	1	-1E+10	1	-1E+10	1
4902549	71	C	07/29/2022	03:07	-131.714	47.085	0	1115.50	0	3.1790	0	34.4150	0	27.409	0	1103.271	0	8.3	4	2.6	4	-1E+10	1	-1E+10	1	-1E+10	1	-1E+10	1	-1E+10	1	-1E+10	1
4902549	71	C	07/29/2022	03:07	-131.714	47.085	0	1125.40	0	3.1650	0	34.4200	0	27.414	0	1113.037	0	8.6	4	2.7	4	-1E+10	1	-1E+10	1	-1E+10	1	-1E+10	1	-1E+10	1	-1E+10	1
4902549	71	C	07/29/2022	03:07	-131.714	47.085	0	1135.60	0	3.1490	0	34.4230	0	27.418	0	1123.097	0	8.8	4	2.7	4	-1E+10	1	-1E+10	1	-1E+10	1	-1E+10	1	-1E+10	1	-1E+10	1
4902549	71	C	07/29/2022	03:07	-131.714	47.085	0	1145.50	0	3.1290	0	34.4250	0	27.422	0	1132.861	0	9.0	4	2.8	4	-1E+10	1	-1E+10	1	-1E+10	1	-1E+10	1	-1E+10	1	-1E+10	1
4902549	71	C	07/29/2022	03:07	-131.714	47.085	0	1155.10	0	3.1140	0	34.4280	0	27.425	0	1142.329	0	9.2	4	2.8	4	-1E+10	1	-1E+10	1	-1E+10	1	-1E+10	1	-1E+10	1	-1E+10	1
4902549	71	C	07/29/2022	03:07	-131.714	47.085	0	1165.00	0	3.0920	0	34.4310	0	27.430	0	1152.093	0	9.3	4	2.9	4	-1E+10	1	-1E+10	1	-1E+10	1	-1E+10	1	-1E+10	1	-1E+10	1
4902549	71	C	07/29/2022	03:07	-131.714	47.085	0	1175.10	0	3.0680	0	34.4320	0	27.433	0	1162.053	0	9.5	4	2.9	4	-1E+10	1	-1E+10	1	-1E+10	1	-1E+10	1	-1E+10	1	-1E+10	1
4902549	71	C	07/29/2022	03:07	-131.714	47.085	0	1185.30	0	3.0380	0	34.4340	0	27.437	0	1172.111	0	9.6	4	3.0	4	-1E+10	1	-1E+10	1	-1E+10	1	-1E+10	1	-1E+10	1	-1E+10	1
4902549	71	C	07/29/2022	03:07	-131.714	47.085	0	1195.20	0	3.0240	0	34.4360	0	27.440	0	1181.873	0	9.7	4	3.0	4	-1E+10	1	-1E+10	1	-1E+10	1	-1E+10	1	-1E+10	1	-1E+10	1
4902549	71	C	07/29/2022	03:07	-131.714	47.085	0	1205.10	0	3.0040	0	34.4370	0	27.443	0	1191.635	0	9.8	4	3.0	4	-1E+10	1	-1E+10	1	-1E+10	1	-1E+10	1	-1E+10	1	-1E+10	1
4902549	71	C	07/29/2022	03:07	-131.714	47.085	0	1215.60	0	2.9610	0	34.4370	0	27.447	0	1201.988	0	9.9	4	3.0	4	-1E+10	1	-1E+10	1	-1E+10	1	-1E+10	1	-1E+10	1	-1E+10	1
4902549	71	C	07/29/2022	03:07	-131.714	47.085	0	1225.90	0	2.9390	0	34.4380	0	27.450	0	1212.143	0	9.8	4	3.0	4	-1E+10	1	-1E+10	1	-1E+10	1	-1E+10	1	-1E+10	1	-1E+10	1
4902549	71	C	07/29/2022	03:07	-131.714	47.085	0	1235.70	0	2.8960	0	34.4360	0	27.452	0	1221.804	0	9.9	4	3.0	4	-1E+10	1	-1E+10	1	-1E+10	1	-1E+10	1	-1E+10	1	-1E+10	1
4902549	71	C	07/29/2022	03:07	-131.714	47.085	0	1245.60	0	2.8630	0	34.4370	0	27.456	0	1231.564	0	10.0	4	3.1	4	-1E+10	1	-1E+10	1	-1E+10	1	-1E+10	1	-1E+10	1	-1E+10	1
4902549	71	C	07/29/2022	03:07	-131.714	47.085	0	1255.40	0	2.8440	0	34.4390	0	27.459	0	1241.225	0	10.3	4	3.2	4	-1E+10	1	-1E+10	1	-1E+10	1	-1E+10	1	-1E+10	1	-1E+10	1
4902549	71	C	07/29/2022	03:07	-131.714	47.085	0	1265.40	0	2.8290	0	34.4420	0	27.463	0	1251.082	0	10.8	4	3.3	4	-1E+10	1	-1E+10	1	-1E+10	1	-1E+10	1	-1E+10	1	-1E+10	1
4902549	71	C	07/29/2022	03:07	-131.714	47.085	0	1275.40	0	2.8380	0	34.4480	0	27.467	0	1260.939	0	11.4	4	3.5	4	-1E+10	1	-1E+10	1	-1E+10	1	-1E+10	1	-1E+10	1	-1E+10	1
4902549	71	C	07/29/2022	03:07	-131.714	47.085	0	1285.60	0	2.8580	0	34.4550	0	27.471	0	1270.993	0	12.0	4	3.7	4	-1E+10	1	-1E+10	1	-1E+10	1	-1E+10	1	-1E+10	1	-1E+10	1
4902549	71	C	07/29/2022	03:07	-131.714	47.085	0	1295.50	0	2.8350	0	34.4550	0	27.473	0	1280.750	0	12.2	4	3.7	4	-1E+10	1	-1E+10	1	-1E+10	1	-1E+10	1	-1E+10	1	-1E+10	1
4902549	71	C	07/29/2022	03:07	-131.714	47.085	0	1305.40	0	2.8050	0	34.4570	0	27.477	0	1290.507	0	12.7	4	3.9	4	-1E+10	1	-1E+10	1	-1E+10	1	-1E+10	1	-1E+10	1	-1E+10	1
4902549	71	C	07/29/2022	03:07	-131.714	47.085	0	1315.40	0	2.7890	0	34.4620	0	27.483	0	1300.362	0	13.3	4	4.1	4	-1E+10	1	-1E+10	1	-1E+10	1	-1E+10	1	-1E+10	1	-1E+10	1
4902549	71	C	07/29/2022	03:07	-131.714	47.085	0	1325.20	0	2.7640	0	34.4660	0	27.488	0	1310.020	0	13.7	4	4.2	4	-1E+10	1	-1E+10	1	-1E+10	1	-1E+10	1	-1E+10	1	-1E+10	1
4902549	71	C	07/29/2022	03:07	-131.714	47.085	0	1335.00	0	2.7340	0	34.4670	0	27.491	0	1319.677	0	14.2	4	4.3	4	-1E+10	1	-1E+10	1	-1E+10	1	-1E+10	1	-1E+10	1	-1E+10	1
4902549	71	C	07/29/2022	03:07	-131.714	47.085	0	1345.00	0	2.7010	0	34.4680	0	27.495	0	1329.530	0	14.4	4	4.4	4	-1E+10	1	-1E+10	1	-1E+10	1	-1E+10	1	-1E+10	1	-1E+10	1
4902549	71	C	07/29/2022	03:07	-131.714	47.085	0	1355.10	0	2.6790	0	34.4710	0	27.500	0	1339.482	0	14.5	4	4.4	4	-1E+10	1	-1E+10	1	-1E+10	1	-1E+10	1	-1E+10	1	-1E+10	1
4902549	71	C	07/29/2022	03:07	-131.714	47.085	0	1365.10	0	2.6530	0	34.4740	0	27.504	0	1349.335	0	14.8	4	4.5	4	-1E+10	1	-1E+10	1	-1E+10	1	-1E+10	1	-1E+10	1	-1E+10	1
4902549	71	C	07/29/2022	03:07	-131.714	47.085	0	1375.20	0	2.6280	0	34.4750	0	27.507	0	1359.286	0	15.0	4	4.6	4	-1E+10	1	-1E+10	1	-1E+10	1	-1E+10	1	-1E+10	1	-1E+10	1
4902549	71	C	07/29/2022	03:07	-131.714	47.085	0	1385.10	0	2.6160	0	34.4770	0	27.510	0	1369.039	0	15.6	4	4.8	4	-1E+10	1	-1E+10	1	-1E+10	1	-1E+10	1	-1E+10	1	-1E+10	1
4902549	71	C	07/29/2022	03:07	-131.714	47.085	0	1395.00	0	2.6080	0	34.4800	0	27.513	0	1378.792	0	16.3	4	5.0	4	-1E+10	1	-1E+10	1	-1E+10	1	-1E+10	1	-1E+10	1	-1E+10	1
4902549	71	C	07/29/2022	03:07	-131.714	47.085	0	1405.20	0	2.6070	0	34.4840	0	27.516	0	1388.840	0	16.8	4	5.1	4	-1E+10	1	-1E+10	1	-1E+10	1	-1E+10	1	-1E+10	1	-1E+10	1
4902549	71	C	07/29/2022	03:07	-131.714	47.085	0	1415.10	0	2.6020	0	34.4860	0	27.518	0	1398.592	0	17.4	4	5.3	4	-1E+10	1	-1E+10	1	-1E+10	1	-1E+10	1	-1E+10	1	-1E+10	1
4902549	71	C	07/29/2022	03:07	-131.714	47.085	0	1425.00	0	2.6000	0	34.4900	0	27.522	0	1408.343	0	18.4	4	5.6	4	-1E+10	1	-1E+10	1	-1E+10	1	-1E+10	1	-1E+10	1	-1E+10	1
4902549	71	C	07/29/2022	03:07	-131.714	47.085	0	1435.40	0	2.5950	0	34.4940	0	27.526	0	1418.587	0	19.1	4	5.8	4	-1E+10	1	-1E+10	1	-1E+10	1	-1E+10	1	-1E+10	1	-1E+10	1
4902549	71	C	07/29/2022	03:07	-131.714	47.085	0	1445.70	0	2.5800	0	34.4970	0	27.529	0	1428.731	0	19.5	4	6.0	4	-1E+10	1	-1E+10	1	-1E+10	1	-1E+10	1	-1E+10	1	-1E+10	1
4902549	71	C	07/29/2022	03:07	-131.714	47.085	0	1455.60	0	2.5560	0	34.4980	0	27.532	0	1438.481	0	19.7	4	6.0	4	-1E+10	1	-1E+10	1	-1E+10	1	-1E+10	1	-1E+10	1	-1E+10	1
4902549	71	C	07/29/2022	03:07	-131.714	47.085	0	1465.30	0	2.5120	0	34.4980	0	27.536	0	1448.034	0	19.9	4	6.1	4	-1E+10	1	-1E+10	1	-1E+10	1	-1E+10	1	-1E+10	1	-1E+10	1
4902549	71	C	07/29/2022	03:07	-131.714	47.085	0	1475.60	0	2.5050	0	34.4990	0	27.537	0	1458.177	0	20.6	4	6.3	4	-1E+10	1	-1E+10	1	-1E+10	1	-1E+10	1	-1E+10	1	-1E+10	1
4902549	71	C	07/29/2022	03:07	-131.714	47.085	0	1485.60	0	2.4920	0	34.5020	0	27.541	0	1468.024	0	21.3	4	6.5	4	-1E+10	1	-1E+10	1	-1E+10	1	-1E+10	1	-1E+10	1	-1E+10	1
4902549	71	C	07/29/2022	03:07	-131.714	47.085	0	1495.20	0	2.4850	0	34.5030	0	27.542	0	1477.477	0	21.5	4	6.6	4	-1E+10	1	-1E+10	1	-1E+10	1	-1E+10	1	-1E+10	1	-1E+10	1
4902549	71	C	07/29/2022	03:07	-131.714	47.085	0	1505.20	0	2.4730	0	34.5050	0	27.545	0	1487.324	0	21.9	4	6.7	4	-1E+10	1	-1E+10	1	-1E+10	1	-1E+10	1	-1E+10	1	-1E+10	1
4902549	71	C	07/29/2022	03:07	-131.714	47.085	0	1515.20	0	2.4640	0	34.5070	0	27.547	0	1497.169	0	22.4	4	6.8	4	-1E+10	1	-1E+10	1	-1E+10	1	-1E+10	1	-1E+10	1	-1E+10	1
4902549	71	C	07/29/2022	03:07	-131.714	47.085	0	1525.20	0	2.4530	0	34.5080	0	27.549	0	1507.015	0	22.9	4	7.0	4	-1E+10	1	-1E+10	1	-1E+10	1	-1E+10	1	-1E+10	1	-1E+10	1
4902549	71	C	07/29/2022	03:07	-131.714	47.085	0	1535.20	0	2.4450	0	34.5100	0	27.552	0	1516.860	0	23.3	4	7.1	4	-1E+10	1	-1E+10	1	-1E+10	1	-1E+10	1	-1E+10	1	-1E+10	1
4902549	71	C	07/29/2022	03:07	-131.714	47.085	0	1545.30	0	2.4350	0	34.5110	0	27.553	0	1526.803	0	23.8	4	7.2	4	-1E+10	1	-1E+10	1	-1E+10	1	-1E+10	1	-1E+10	1	-1E+10	1
4902549	71	C	07/29/2022	03:07	-131.714	47.085	0	1555.50	0	2.4200	0	34.5130	0	27.556	0	1536.843	0	24.3	4	7.4	4	-1E+10	1	-1E+10	1	-1E+10	1	-1E+10	1	-1E+10	1	-1E+10	1
4902549	71	C	07/29/2022	03:07	-131.714	47.085	0	1565.70	0	2.4080	0	34.5150	0	27.559	0	1546.884	0	24.9	4	7.6	4	-1E+10	1	-1E+10	1	-1E+10	1	-1E+10	1	-1E+10	1	-1E+10	1
4902549	71	C	07/29/2022	03:07	-131.714	47.085	0	1575.80	0	2.3990	0	34.5160	0	27.560	0	1556.825	0	25.4	4	7.7	4	-1E+10	1	-1E+10	1	-1E+10	1	-1E+10	1	-1E+10	1	-1E+10	1
4902549	71	C	07/29/2022	03:07	-131.714	47.085	0	1585.80	0	2.3890	0	34.5180	0	27.563	0	1566.668	0	25.8	4	7.8	4	-1E+10	1	-1E+10	1	-1E+10	1	-1E+10	1	-1E+10	1	-1E+10	1
4902549	71	C	07/29/2022	03:07	-131.714	47.085	0	1595.80	0	2.3740	0	34.5200	0	27.566	0	1576.510	0	26.5	4	8.0	4	-1E+10	1	-1E+10	1	-1E+10	1	-1E+10	1	-1E+10	1	-1E+10	1
4902549	71	C	07/29/2022	03:07	-131.714	47.085	0	1605.30	0	2.3580	0	34.5220	0	27.569	0	1585.860	0	27.0	4	8.2	4	-1E+10	1	-1E+10	1	-1E+10	1	-1E+10	1	-1E+10	1	-1E+10	1
4902549	71	C	07/29/2022	03:07	-131.714	47.085	0	1615.10	0	2.3510	0	34.5240	0	27.571	0	1595.504	0	27.7	4	8.4	4	-1E+10	1	-1E+10	1	-1E+10	1	-1E+10	1	-1E+10	1	-1E+10	1
4902549	71	C	07/29/2022	03:07	-131.714	47.085	0	1625.20	0	2.3390	0	34.5260	0	27.574	0	1605.443	0	28.2	4	8.6	4	-1E+10	1	-1E+10	1	-1E+10	1	-1E+10	1	-1E+10	1	-1E+10	1
4902549	71	C	07/29/2022	03:07	-131.714	47.085	0	1635.20	0	2.3280	0	34.5270	0	27.575	0	1615.284	0	28.8	4	8.8	4	-1E+10	1	-1E+10	1	-1E+10	1	-1E+10	1	-1E+10	1	-1E+10	1
4902549	71	C	07/29/2022	03:07	-131.714	47.085	0	1645.30	0	2.3140	0	34.5290	0	27.578	0	1625.222	0	29.6	4	9.0	4	-1E+10	1	-1E+10	1	-1E+10	1	-1E+10	1	-1E+10	1	-1E+10	1
4902549	71	C	07/29/2022	03:07	-131.714	47.085	0	1655.30	0	2.2980	0	34.5320	0	27.582	0	1635.061	0	30.3	4	9.2	4	-1E+10	1	-1E+10	1	-1E+10	1	-1E+10	1	-1E+10	1	-1E+10	1
4902549	71	C	07/29/2022	03:07	-131.714	47.085	0	1665.40	0	2.2880	0	34.5330	0	27.584	0	1644.999	0	30.9	4	9.4	4	-1E+10	1	-1E+10	1	-1E+10	1	-1E+10	1	-1E+10	1	-1E+10	1
4902549	71	C	07/29/2022	03:07	-131.714	47.085	0	1675.50	0	2.2770	0	34.5350	0	27.586	0	1654.936	0	31.5	4	9.6	4	-1E+10	1	-1E+10	1	-1E+10	1	-1E+10	1	-1E+10	1	-1E+10	1
4902549	71	C	07/29/2022	03:07	-131.714	47.085	0	1685.60	0	2.2630	0	34.5370	0	27.589	0	1664.872	0	32.2	4	9.8	4	-1E+10	1	-1E+10	1	-1E+10	1	-1E+10	1	-1E+10	1	-1E+10	1
4902549	71	C	07/29/2022	03:07	-131.714	47.085	0	1695.40	0	2.2500	0	34.5390	0	27.592	0	1674.513	0	32.7	4	9.9	4	-1E+10	1	-1E+10	1	-1E+10	1	-1E+10	1	-1E+10	1	-1E+10	1
4902549	71	C	07/29/2022	03:07	-131.714	47.085	0	1705.40	0	2.2370	0	34.5410	0	27.594	0	1684.350	0	33.3	4	10.1	4	-1E+10	1	-1E+10	1	-1E+10	1	-1E+10	1	-1E+10	1	-1E+10	1
4902549	71	C	07/29/2022	03:07	-131.714	47.085	0	1715.50	0	2.2270	0	34.5430	0	27.597	0	1694.285	0	34.1	4	10.3	4	-1E+10	1	-1E+10	1	-1E+10	1	-1E+10	1	-1E+10	1	-1E+10	1
4902549	71	C	07/29/2022	03:07	-131.714	47.085	0	1725.20	0	2.2170	0	34.5440	0	27.598	0	1703.826	0	34.7	4	10.5	4	-1E+10	1	-1E+10	1	-1E+10	1	-1E+10	1	-1E+10	1	-1E+10	1
4902549	71	C	07/29/2022	03:07	-131.714	47.085	0	1735.10	0	2.2100	0	34.5460	0	27.601	0	1713.563	0	35.0	4	10.6	4	-1E+10	1	-1E+10	1	-1E+10	1	-1E+10	1	-1E+10	1	-1E+10	1
4902549	71	C	07/29/2022	03:07	-131.714	47.085	0	1745.30	0	2.2000	0	34.5470	0	27.602	0	1723.595	0	35.5	4	10.7	4	-1E+10	1	-1E+10	1	-1E+10	1	-1E+10	1	-1E+10	1	-1E+10	1
4902549	71	C	07/29/2022	03:07	-131.714	47.085	0	1755.60	0	2.1860	0	34.5490	0	27.605	0	1733.725	0	36.0	4	10.9	4	-1E+10	1	-1E+10	1	-1E+10	1	-1E+10	1	-1E+10	1	-1E+10	1
4902549	71	C	07/29/2022	03:07	-131.714	47.085	0	1765.50	0	2.1770	0	34.5500	0	27.607	0	1743.461	0	36.7	4	11.1	4	-1E+10	1	-1E+10	1	-1E+10	1	-1E+10	1	-1E+10	1	-1E+10	1
4902549	71	C	07/29/2022	03:07	-131.714	47.085	0	1775.20	0	2.1670	0	34.5520	0	27.609	0	1753.000	0	37.7	4	11.4	4	-1E+10	1	-1E+10	1	-1E+10	1	-1E+10	1	-1E+10	1	-1E+10	1
4902549	71	C	07/29/2022	03:07	-131.714	47.085	0	1785.40	0	2.1540	0	34.5550	0	27.613	0	1763.030	0	38.2	4	11.6	4	-1E+10	1	-1E+10	1	-1E+10	1	-1E+10	1	-1E+10	1	-1E+10	1
4902549	71	C	07/29/2022	03:07	-131.714	47.085	0	1795.70	0	2.1470	0	34.5560	0	27.614	0	1773.158	0	38.6	4	11.7	4	-1E+10	1	-1E+10	1	-1E+10	1	-1E+10	1	-1E+10	1	-1E+10	1
4902549	71	C	07/29/2022	03:07	-131.714	47.085	0	1805.70	0	2.1430	0	34.5560	0	27.614	0	1782.991	0	39.1	4	11.8	4	-1E+10	1	-1E+10	1	-1E+10	1	-1E+10	1	-1E+10	1	-1E+10	1
4902549	71	C	07/29/2022	03:07	-131.714	47.085	0	1815.80	0	2.1330	0	34.5580	0	27.617	0	1792.921	0	39.8	4	12.0	4	-1E+10	1	-1E+10	1	-1E+10	1	-1E+10	1	-1E+10	1	-1E+10	1
4902549	71	C	07/29/2022	03:07	-131.714	47.085	0	1825.50	0	2.1160	0	34.5600	0	27.620	0	1802.458	0	40.5	4	12.2	4	-1E+10	1	-1E+10	1	-1E+10	1	-1E+10	1	-1E+10	1	-1E+10	1
4902549	71	C	07/29/2022	03:07	-131.714	47.085	0	1835.20	0	2.0960	0	34.5610	0	27.622	0	1811.994	0	40.9	4	12.4	4	-1E+10	1	-1E+10	1	-1E+10	1	-1E+10	1	-1E+10	1	-1E+10	1
4902549	71	C	07/29/2022	03:07	-131.714	47.085	0	1845.50	0	2.0830	0	34.5620	0	27.624	0	1822.120	0	41.5	4	12.5	4	-1E+10	1	-1E+10	1	-1E+10	1	-1E+10	1	-1E+10	1	-1E+10	1
4902549	71	C	07/29/2022	03:07	-131.714	47.085	0	1855.60	0	2.0670	0	34.5640	0	27.627	0	1832.048	0	42.2	4	12.7	4	-1E+10	1	-1E+10	1	-1E+10	1	-1E+10	1	-1E+10	1	-1E+10	1
4902549	71	C	07/29/2022	03:07	-131.714	47.085	0	1865.40	0	2.0540	0	34.5650	0	27.629	0	1841.681	0	42.8	4	12.9	4	-1E+10	1	-1E+10	1	-1E+10	1	-1E+10	1	-1E+10	1	-1E+10	1
4902549	71	C	07/29/2022	03:07	-131.714	47.085	0	1875.50	0	2.0460	0	34.5670	0	27.631	0	1851.609	0	43.3	4	13.1	4	-1E+10	1	-1E+10	1	-1E+10	1	-1E+10	1	-1E+10	1	-1E+10	1
4902549	71	C	07/29/2022	03:07	-131.714	47.085	0	1885.30	0	2.0390	0	34.5680	0	27.633	0	1861.241	0	43.7	4	13.2	4	-1E+10	1	-1E+10	1	-1E+10	1	-1E+10	1	-1E+10	1	-1E+10	1
4902549	71	C	07/29/2022	03:07	-131.714	47.085	0	1895.50	0	2.0320	0	34.5690	0	27.634	0	1871.266	0	44.4	4	13.4	4	-1E+10	1	-1E+10	1	-1E+10	1	-1E+10	1	-1E+10	1	-1E+10	1
4902549	71	C	07/29/2022	03:07	-131.714	47.085	0	1905.30	0	2.0240	0	34.5700	0	27.635	0	1880.898	0	44.8	4	13.5	4	-1E+10	1	-1E+10	1	-1E+10	1	-1E+10	1	-1E+10	1	-1E+10	1
4902549	71	C	07/29/2022	03:07	-131.714	47.085	0	1915.20	0	2.0170	0	34.5710	0	27.637	0	1890.627	0	45.4	4	13.7	4	-1E+10	1	-1E+10	1	-1E+10	1	-1E+10	1	-1E+10	1	-1E+10	1
4902549	71	C	07/29/2022	03:07	-131.714	47.085	0	1925.40	0	2.0040	0	34.5730	0	27.639	0	1900.651	0	46.1	4	13.9	4	-1E+10	1	-1E+10	1	-1E+10	1	-1E+10	1	-1E+10	1	-1E+10	1
4902549	71	C	07/29/2022	03:07	-131.714	47.085	0	1935.20	0	2.0000	0	34.5740	0	27.641	0	1910.281	0	46.5	4	14.0	4	-1E+10	1	-1E+10	1	-1E+10	1	-1E+10	1	-1E+10	1	-1E+10	1
4902549	71	C	07/29/2022	03:07	-131.714	47.085	0	1945.00	0	1.9950	0	34.5760	0	27.643	0	1919.910	0	47.0	4	14.2	4	-1E+10	1	-1E+10	1	-1E+10	1	-1E+10	1	-1E+10	1	-1E+10	1
4902549	71	C	07/29/2022	03:07	-131.714	47.085	0	1955.00	0	1.9870	0	34.5770	0	27.644	0	1929.736	0	47.5	4	14.3	4	-1E+10	1	-1E+10	1	-1E+10	1	-1E+10	1	-1E+10	1	-1E+10	1
4902549	71	C	07/29/2022	03:07	-131.714	47.085	0	1965.90	0	1.9800	0	34.5790	0	27.646	0	1940.446	0	47.3	4	14.3	4	-1E+10	1	-1E+10	1	-1E+10	1	-1E+10	1	-1E+10	1	-1E+10	1
4902549	71	C	07/29/2022	03:07	-131.714	47.085	0																										
4902549	72	C	08/08/2022	08:04	-132.062	47.323	0	0.20	0	16.1030	0	32.2460	0	23.608	0	0.198	0	247.7	4	100.2	4	-1E+10	1	-1E+10	1	-1E+10	1	-1E+10	1	-1E+10	1	-1E+10	1
4902549	72	C	08/08/2022	08:04	-132.062	47.323	0	0.50	0	16.1042	0	32.2430	0	23.605	0	0.496	0	247.7	4	100.2	4	-1E+10	1	-1E+10	1	-1E+10	1	-1E+10	1	-1E+10	1	-1E+10	1
4902549	72	C	08/08/2022	08:04	-132.062	47.323	0	0.70	0	16.1050	0	32.2410	0	23.604	0	0.694	0	-1e10	1	-1e10	1	-1E+10	1	-1E+10	1	-1E+10	1	-1E+10	1	-1E+10	1	-1E+10	1
4902549	72	C	08/08/2022	08:04	-132.062	47.323	0	0.80	0	16.1049	0	32.2412	0	23.604	0	0.793	0	247.7	4	100.2	4	-1E+10	1	-1E+10	1	-1E+10	1	-1E+10	1	-1E+10	1	-1E+10	1
4902549	72	C	08/08/2022	08:04	-132.062	47.323	0	1.90	0	16.1040	0	32.2440	0	23.606	0	1.884	0	247.8	4	100.2	4	-1E+10	1	-1E+10	1	-1E+10	1	-1E+10	1	-1E+10	1	-1E+10	1
4902549	72	C	08/08/2022	08:04	-132.062	47.323	0	3.00	0	16.1040	0	32.2450	0	23.607	0	2.975	0	247.8	4	100.3	4	-1E+10	1	-1E+10	1	-1E+10	1	-1E+10	1	-1E+10	1	-1E+10	1
4902549	72	C	08/08/2022	08:04	-132.062	47.323	0	4.00	0	16.1060	0	32.2460	0	23.607	0	3.967	0	247.9	4	100.3	4	-1E+10	1	-1E+10	1	-1E+10	1	-1E+10	1	-1E+10	1	-1E+10	1
4902549	72	C	08/08/2022	08:04	-132.062	47.323	0	5.10	0	16.1050	0	32.2490	0	23.610	0	5.057	0	247.9	4	100.3	4	-1E+10	1	-1E+10	1	-1E+10	1	-1E+10	1	-1E+10	1	-1E+10	1
4902549	72	C	08/08/2022	08:04	-132.062	47.323	0	5.80	0	16.1050	0	32.2470	0	23.608	0	5.752	0	248.0	4	100.3	4	-1E+10	1	-1E+10	1	-1E+10	1	-1E+10	1	-1E+10	1	-1E+10	1
4902549	72	C	08/08/2022	08:04	-132.062	47.323	0	7.00	0	16.1040	0	32.2470	0	23.609	0	6.942	0	248.1	4	100.4	4	-1E+10	1	-1E+10	1	-1E+10	1	-1E+10	1	-1E+10	1	-1E+10	1
4902549	72	C	08/08/2022	08:04	-132.062	47.323	0	8.10	0	16.1050	0	32.2480	0	23.609	0	8.032	0	248.2	4	100.4	4	-1E+10	1	-1E+10	1	-1E+10	1	-1E+10	1	-1E+10	1	-1E+10	1
4902549	72	C	08/08/2022	08:04	-132.062	47.323	0	8.90	0	16.1050	0	32.2480	0	23.609	0	8.826	0	248.3	4	100.5	4	-1E+10	1	-1E+10	1	-1E+10	1	-1E+10	1	-1E+10	1	-1E+10	1
4902549	72	C	08/08/2022	08:04	-132.062	47.323	0	9.90	0	16.1060	0	32.2470	0	23.608	0	9.817	0	248.4	4	100.5	4	-1E+10	1	-1E+10	1	-1E+10	1	-1E+10	1	-1E+10	1	-1E+10	1
4902549	72	C	08/08/2022	08:04	-132.062	47.323	0	10.80	0	16.1060	0	32.2480	0	23.609	0	10.710	0	248.6	4	100.6	4	-1E+10	1	-1E+10	1	-1E+10	1	-1E+10	1	-1E+10	1	-1E+10	1
4902549	72	C	08/08/2022	08:04	-132.062	47.323	0	11.80	0	16.1060	0	32.2470	0	23.608	0	11.701	0	249.0	4	100.7	4	-1E+10	1	-1E+10	1	-1E+10	1	-1E+10	1	-1E+10	1	-1E+10	1
4902549	72	C	08/08/2022	08:04	-132.062	47.323	0	13.10	0	16.1040	0	32.2470	0	23.609	0	12.990	0	249.5	4	100.9	4	-1E+10	1	-1E+10	1	-1E+10	1	-1E+10	1	-1E+10	1	-1E+10	1
4902549	72	C	08/08/2022	08:04	-132.062	47.323	0	14.10	0	16.0990	0	32.2480	0	23.611	0	13.982	0	249.9	4	101.1	4	-1E+10	1	-1E+10	1	-1E+10	1	-1E+10	1	-1E+10	1	-1E+10	1
4902549	72	C	08/08/2022	08:04	-132.062	47.323	0	14.80	0	16.0920	0	32.2470	0	23.612	0	14.676	0	250.2	4	101.2	4	-1E+10	1	-1E+10	1	-1E+10	1	-1E+10	1	-1E+10	1	-1E+10	1
4902549	72	C	08/08/2022	08:04	-132.062	47.323	0	15.80	0	16.0740	0	32.2420	0	23.612	0	15.668	0	250.9	4	101.5	4	-1E+10	1	-1E+10	1	-1E+10	1	-1E+10	1	-1E+10	1	-1E+10	1
4902549	72	C	08/08/2022	08:04	-132.062	47.323	0	17.00	0	16.0720	0	32.2470	0	23.616	0	16.858	0	251.7	4	101.8	4	-1E+10	1	-1E+10	1	-1E+10	1	-1E+10	1	-1E+10	1	-1E+10	1
4902549	72	C	08/08/2022	08:04	-132.062	47.323	0	17.90	0	16.0380	0	32.2460	0	23.623	0	17.750	0	253.5	4	102.4	4	-1E+10	1	-1E+10	1	-1E+10	1	-1E+10	1	-1E+10	1	-1E+10	1
4902549	72	C	08/08/2022	08:04	-132.062	47.323	0	19.10	0	15.9820	0	32.2400	0	23.631	0	18.940	0	258.1	4	104.2	4	-1E+10	1	-1E+10	1	-1E+10	1	-1E+10	1	-1E+10	1	-1E+10	1
4902549	72	C	08/08/2022	08:04	-132.062	47.323	0	20.00	0	15.8480	0	32.2310	0	23.654	0	19.832	0	264.7	4	106.6	4	-1E+10	1	-1E+10	1	-1E+10	1	-1E+10	1	-1E+10	1	-1E+10	1
4902549	72	C	08/08/2022	08:04	-132.062	47.323	0	21.00	0	15.2040	0	32.2060	0	23.776	0	20.824	0	272.8	4	108.4	4	-1E+10	1	-1E+10	1	-1E+10	1	-1E+10	1	-1E+10	1	-1E+10	1
4902549	72	C	08/08/2022	08:04	-132.062	47.323	0	22.20	0	14.4480	0	32.1940	0	23.928	0	22.014	0	278.2	4	108.9	4	-1E+10	1	-1E+10	1	-1E+10	1	-1E+10	1	-1E+10	1	-1E+10	1
4902549	72	C	08/08/2022	08:04	-132.062	47.323	0	22.90	0	14.0900	0	32.1890	0	23.999	0	22.708	0	279.8	4	108.8	4	-1E+10	1	-1E+10	1	-1E+10	1	-1E+10	1	-1E+10	1	-1E+10	1
4902549	72	C	08/08/2022	08:04	-132.062	47.323	0	23.90	0	13.6870	0	32.1850	0	24.078	0	23.700	0	282.0	4	108.7	4	-1E+10	1	-1E+10	1	-1E+10	1	-1E+10	1	-1E+10	1	-1E+10	1
4902549	72	C	08/08/2022	08:04	-132.062	47.323	0	25.00	0	13.2080	0	32.1780	0	24.168	0	24.790	0	283.7	4	108.3	4	-1E+10	1	-1E+10	1	-1E+10	1	-1E+10	1	-1E+10	1	-1E+10	1
4902549	72	C	08/08/2022	08:04	-132.062	47.323	0	26.00	0	12.6300	0	32.1770	0	24.280	0	25.782	0	284.9	4	107.5	4	-1E+10	1	-1E+10	1	-1E+10	1	-1E+10	1	-1E+10	1	-1E+10	1
4902549	72	C	08/08/2022	08:04	-132.062	47.323	0	27.10	0	12.5240	0	32.1740	0	24.298	0	26.872	0	283.8	4	106.8	4	-1E+10	1	-1E+10	1	-1E+10	1	-1E+10	1	-1E+10	1	-1E+10	1
4902549	72	C	08/08/2022	08:04	-132.062	47.323	0	28.00	0	12.3630	0	32.1700	0	24.325	0	27.765	0	283.2	4	106.2	4	-1E+10	1	-1E+10	1	-1E+10	1	-1E+10	1	-1E+10	1	-1E+10	1
4902549	72	C	08/08/2022	08:04	-132.062	47.323	0	29.00	0	12.0150	0	32.1760	0	24.395	0	28.756	0	282.6	4	105.3	4	-1E+10	1	-1E+10	1	-1E+10	1	-1E+10	1	-1E+10	1	-1E+10	1
4902549	72	C	08/08/2022	08:04	-132.062	47.323	0	30.20	0	11.6380	0	32.1850	0	24.471	0	29.946	0	281.5	4	104.0	4	-1E+10	1	-1E+10	1	-1E+10	1	-1E+10	1	-1E+10	1	-1E+10	1
4902549	72	C	08/08/2022	08:04	-132.062	47.323	0	31.10	0	11.4530	0	32.1770	0	24.499	0	30.839	0	281.7	4	103.7	4	-1E+10	1	-1E+10	1	-1E+10	1	-1E+10	1	-1E+10	1	-1E+10	1
4902549	72	C	08/08/2022	08:04	-132.062	47.323	0	32.00	0	11.3390	0	32.1790	0	24.521	0	31.731	0	281.4	4	103.3	4	-1E+10	1	-1E+10	1	-1E+10	1	-1E+10	1	-1E+10	1	-1E+10	1
4902549	72	C	08/08/2022	08:04	-132.062	47.323	0	32.90	0	11.3260	0	32.1780	0	24.522	0	32.623	0	280.3	4	102.9	4	-1E+10	1	-1E+10	1	-1E+10	1	-1E+10	1	-1E+10	1	-1E+10	1
4902549	72	C	08/08/2022	08:04	-132.062	47.323	0	33.90	0	11.3040	0	32.1760	0	24.525	0	33.615	0	278.6	4	102.2	4	-1E+10	1	-1E+10	1	-1E+10	1	-1E+10	1	-1E+10	1	-1E+10	1
4902549	72	C	08/08/2022	08:04	-132.062	47.323	0	35.10	0	11.2480	0	32.1740	0	24.533	0	34.805	0	276.9	4	101.5	4	-1E+10	1	-1E+10	1	-1E+10	1	-1E+10	1	-1E+10	1	-1E+10	1
4902549	72	C	08/08/2022	08:04	-132.062	47.323	0	35.80	0	11.0240	0	32.1910	0	24.586	0	35.499	0	276.3	4	100.8	4	-1E+10	1	-1E+10	1	-1E+10	1	-1E+10	1	-1E+10	1	-1E+10	1
4902549	72	C	08/08/2022	08:04	-132.062	47.323	0	36.90	0	10.7820	0	32.1790	0	24.619	0	36.589	0	276.5	4	100.3	4	-1E+10	1	-1E+10	1	-1E+10	1	-1E+10	1	-1E+10	1	-1E+10	1
4902549	72	C	08/08/2022	08:04	-132.062	47.323	0	38.00	0	10.5960	0	32.1820	0	24.653	0	37.680	0	276.5	4	99.9	4	-1E+10	1	-1E+10	1	-1E+10	1	-1E+10	1	-1E+10	1	-1E+10	1
4902549	72	C	08/08/2022	08:04	-132.062	47.323	0	38.80	0	10.5800	0	32.1840	0	24.657	0	38.473	0	275.6	4	99.6	4	-1E+10	1	-1E+10	1	-1E+10	1	-1E+10	1	-1E+10	1	-1E+10	1
4902549	72	C	08/08/2022	08:04	-132.062	47.323	0	39.80	0	10.5060	0	32.1830	0	24.669	0	39.465	0	274.7	4	99.1	4	-1E+10	1	-1E+10	1	-1E+10	1	-1E+10	1	-1E+10	1	-1E+10	1
4902549	72	C	08/08/2022	08:04	-132.062	47.323	0	40.70	0	10.4680	0	32.1740	0	24.669	0	40.357	0	273.6	4	98.6	4	-1E+10	1	-1E+10	1	-1E+10	1	-1E+10	1	-1E+10	1	-1E+10	1
4902549	72	C	08/08/2022	08:04	-132.062	47.323	0	41.80	0	10.2270	0	32.2130	0	24.740	0	41.448	0	273.9	4	98.2	4	-1E+10	1	-1E+10	1	-1E+10	1	-1E+10	1	-1E+10	1	-1E+10	1
4902549	72	C	08/08/2022	08:04	-132.062	47.323	0	42.90	0	10.1230	0	32.1930	0	24.742	0	42.538	0	274.2	4	98.1	4	-1E+10	1	-1E+10	1	-1E+10	1	-1E+10	1	-1E+10	1	-1E+10	1
4902549	72	C	08/08/2022	08:04	-132.062	47.323	0	43.80	0	10.0800	0	32.1950	0	24.750	0	43.431	0	273.9	4	97.9	4	-1E+10	1	-1E+10	1	-1E+10	1	-1E+10	1	-1E+10	1	-1E+10	1
4902549	72	C	08/08/2022	08:04	-132.062	47.323	0	45.10	0	10.0060	0	32.1980	0	24.765	0	44.719	0	273.5	4	97.6	4	-1E+10	1	-1E+10	1	-1E+10	1	-1E+10	1	-1E+10	1	-1E+10	1
4902549	72	C	08/08/2022	08:04	-132.062	47.323	0	46.00	0	9.9820	0	32.1980	0	24.769	0	45.612	0	273.0	4	97.4	4	-1E+10	1	-1E+10	1	-1E+10	1	-1E+10	1	-1E+10	1	-1E+10	1
4902549	72	C	08/08/2022	08:04	-132.062	47.323	0	46.90	0	9.9630	0	32.1960	0	24.771	0	46.504	0	272.4	4	97.2	4	-1E+10	1	-1E+10	1	-1E+10	1	-1E+10	1	-1E+10	1	-1E+10	1
4902549	72	C	08/08/2022	08:04	-132.062	47.323	0	48.10	0	9.9150	0	32.1990	0	24.781	0	47.694	0	271.7	4	96.8	4	-1E+10	1	-1E+10	1	-1E+10	1	-1E+10	1	-1E+10	1	-1E+10	1
4902549	72	C	08/08/2022	08:04	-132.062	47.323	0	49.00	0	9.8040	0	32.2070	0	24.805	0	48.586	0	271.6	4	96.5	4	-1E+10	1	-1E+10	1	-1E+10	1	-1E+10	1	-1E+10	1	-1E+10	1
4902549	72	C	08/08/2022	08:04	-132.062	47.323	0	49.80	0	9.7700	0	32.2070	0	24.811	0	49.379	0	271.2	4	96.3	4	-1E+10	1	-1E+10	1	-1E+10	1	-1E+10	1	-1E+10	1	-1E+10	1
4902549	72	C	08/08/2022	08:04	-132.062	47.323	0	50.90	0	9.7450	0	32.2070	0	24.815	0	50.470	0	270.4	4	96.0	4	-1E+10	1	-1E+10	1	-1E+10	1	-1E+10	1	-1E+10	1	-1E+10	1
4902549	72	C	08/08/2022	08:04	-132.062	47.323	0	51.90	0	9.6700	0	32.2110	0	24.830	0	51.461	0	269.8	4	95.6	4	-1E+10	1	-1E+10	1	-1E+10	1	-1E+10	1	-1E+10	1	-1E+10	1
4902549	72	C	08/08/2022	08:04	-132.062	47.323	0	52.90	0	9.6150	0	32.2180	0	24.844	0	52.453	0	268.9	4	95.2	4	-1E+10	1	-1E+10	1	-1E+10	1	-1E+10	1	-1E+10	1	-1E+10	1
4902549	72	C	08/08/2022	08:04	-132.062	47.323	0	54.00	0	9.4930	0	32.2220	0	24.867	0	53.543	0	268.3	4	94.7	4	-1E+10	1	-1E+10	1	-1E+10	1	-1E+10	1	-1E+10	1	-1E+10	1
4902549	72	C	08/08/2022	08:04	-132.062	47.323	0	55.00	0	9.3700	0	32.2280	0	24.891	0	54.535	0	267.9	4	94.3	4	-1E+10	1	-1E+10	1	-1E+10	1	-1E+10	1	-1E+10	1	-1E+10	1
4902549	72	C	08/08/2022	08:04	-132.062	47.323	0	56.10	0	9.1790	0	32.2380	0	24.929	0	55.625	0	268.3	4	94.1	4	-1E+10	1	-1E+10	1	-1E+10	1	-1E+10	1	-1E+10	1	-1E+10	1
4902549	72	C	08/08/2022	08:04	-132.062	47.323	0	57.10	0	9.0610	0	32.2470	0	24.955	0	56.617	0	268.4	4	93.9	4	-1E+10	1	-1E+10	1	-1E+10	1	-1E+10	1	-1E+10	1	-1E+10	1
4902549	72	C	08/08/2022	08:04	-132.062	47.323	0	58.00	0	9.0450	0	32.2470	0	24.957	0	57.509	0	268.3	4	93.8	4	-1E+10	1	-1E+10	1	-1E+10	1	-1E+10	1	-1E+10	1	-1E+10	1
4902549	72	C	08/08/2022	08:04	-132.062	47.323	0	58.80	0	9.0320	0	32.2500	0	24.962	0	58.302	0	267.9	4	93.7	4	-1E+10	1	-1E+10	1	-1E+10	1	-1E+10	1	-1E+10	1	-1E+10	1
4902549	72	C	08/08/2022	08:04	-132.062	47.323	0	59.80	0	9.0130	0	32.2470	0	24.962	0	59.293	0	267.4	4	93.4	4	-1E+10	1	-1E+10	1	-1E+10	1	-1E+10	1	-1E+10	1	-1E+10	1
4902549	72	C	08/08/2022	08:04	-132.062	47.323	0	60.90	0	9.0020	0	32.2490	0	24.966	0	60.384	0	266.8	4	93.2	4	-1E+10	1	-1E+10	1	-1E+10	1	-1E+10	1	-1E+10	1	-1E+10	1
4902549	72	C	08/08/2022	08:04	-132.062	47.323	0	61.90	0	8.9960	0	32.2480	0	24.966	0	61.375	0	266.1	4	92.9	4	-1E+10	1	-1E+10	1	-1E+10	1	-1E+10	1	-1E+10	1	-1E+10	1
4902549	72	C	08/08/2022	08:04	-132.062	47.323	0	62.90	0	8.9790	0	32.2500	0	24.970	0	62.367	0	265.1	4	92.6	4	-1E+10	1	-1E+10	1	-1E+10	1	-1E+10	1	-1E+10	1	-1E+10	1
4902549	72	C	08/08/2022	08:04	-132.062	47.323	0	64.00	0	8.9360	0	32.2530	0	24.979	0	63.457	0	264.3	4	92.2	4	-1E+10	1	-1E+10	1	-1E+10	1	-1E+10	1	-1E+10	1	-1E+10	1
4902549	72	C	08/08/2022	08:04	-132.062	47.323	0	65.10	0	8.8820	0	32.2560	0	24.990	0	64.548	0	262.9	4	91.6	4	-1E+10	1	-1E+10	1	-1E+10	1	-1E+10	1	-1E+10	1	-1E+10	1
4902549	72	C	08/08/2022	08:04	-132.062	47.323	0	65.90	0	8.7880	0	32.2640	0	25.010	0	65.341	0	262.3	4	91.2	4	-1E+10	1	-1E+10	1	-1E+10	1	-1E+10	1	-1E+10	1	-1E+10	1
4902549	72	C	08/08/2022	08:04	-132.062	47.323	0	66.90	0	8.7250	0	32.2670	0	25.022	0	66.332	0	261.4	4	90.8	4	-1E+10	1	-1E+10	1	-1E+10	1	-1E+10	1	-1E+10	1	-1E+10	1
4902549	72	C	08/08/2022	08:04	-132.062	47.323	0	67.90	0	8.6590	0	32.2750	0	25.038	0	67.323	0	260.2	4	90.2	4	-1E+10	1	-1E+10	1	-1E+10	1	-1E+10	1	-1E+10	1	-1E+10	1
4902549	72	C	08/08/2022	08:04	-132.062	47.323	0	69.00	0	8.5800	0	32.2880	0	25.061	0	68.414	0	259.2	4	89.7	4	-1E+10	1	-1E+10	1	-1E+10	1	-1E+10	1	-1E+10	1	-1E+10	1
4902549	72	C	08/08/2022	08:04	-132.062	47.323	0	70.20	0	8.5180	0	32.3020	0	25.081	0	69.603	0	258.4	4	89.3	4	-1E+10	1	-1E+10	1	-1E+10	1	-1E+10	1	-1E+10	1	-1E+10	1
4902549	72	C	08/08/2022	08:04	-132.062	47.323	0	70.90	0	8.5100	0	32.3010	0	25.081	0	70.297	0	257.6	4	89.1	4	-1E+10	1	-1E+10	1	-1E+10	1	-1E+10	1	-1E+10	1	-1E+10	1
4902549	72	C	08/08/2022	08:04	-132.062	47.323	0	72.10	0	8.4630	0	32.3070	0	25.093	0	71.487	0	256.5	4	88.6	4	-1E+10	1	-1E+10	1	-1E+10	1	-1E+10	1	-1E+10	1	-1E+10	1
4902549	72	C	08/08/2022	08:04	-132.062	47.323	0	72.80	0	8.4460	0	32.3110	0	25.099	0	72.181	0	255.7	4	88.3	4	-1E+10	1	-1E+10	1	-1E+10	1	-1E+10	1	-1E+10	1	-1E+10	1
4902549	72	C	08/08/2022	08:04	-132.062	47.323	0	73.90	0	8.4270	0	32.3120	0	25.102	0	73.271	0	254.3	4	87.8	4	-1E+10	1	-1E+10	1	-1E+10	1	-1E+10	1	-1E+10	1	-1E+10	1
4902549	72	C	08/08/2022	08:04	-132.062	47.323	0	75.10	0	8.3570	0	32.3240	0	25.122	0	74.461	0	252.9	4	87.1	4	-1E+10	1	-1E+10	1	-1E+10	1	-1E+10	1	-1E+10	1	-1E+10	1
4902549	72	C	08/08/2022	08:04	-132.062	47.323	0	76.00	0	8.2000	0	32.3460	0	25.162	0	75.353	0	252.6	4	86.7	4	-1E+10	1	-1E+10	1	-1E+10	1	-1E+10	1	-1E+10	1	-1E+10	1
4902549	72	C	08/08/2022	08:04	-132.062	47.323	0	77.10	0	8.1550	0	32.3570	0	25.178	0	76.443	0	251.4	4	86.2	4	-1E+10	1	-1E+10	1	-1E+10	1	-1E+10	1	-1E+10	1	-1E+10	1
4902549	72	C	08/08/2022	08:04	-132.062	47.323	0	78.10	0	8.1420	0	32.3620	0	25.183	0	77.435	0	250.1	4	85.8	4	-1E+10	1	-1E+10	1	-1E+10	1	-1E+10	1	-1E+10	1	-1E+10	1
4902549	72	C	08/08/2022	08:04	-132.062	47.323	0	79.10	0	8.1280	0	32.3650	0	25.188	0	78.426	0	248.7	4	85.3	4	-1E+10	1	-1E+10	1	-1E+10	1	-1E+10	1	-1E+10	1	-1E+10	1
4902549	72	C	08/08/2022	08:04	-132.062	47.323	0	80.10	0	8.1010	0	32.3690	0	25.195	0	79.417	0	247.1	4	84.7	4	-1E+10	1	-1E+10	1	-1E+10	1	-1E+10	1	-1E+10	1	-1E+10	1
4902549	72	C	08/08/2022	08:04	-132.062	47.323	0	81.10	0	8.0100	0	32.3950	0	25.228	0	80.409	0	246.0	4	84.2	4	-1E+10	1	-1E+10	1	-1E+10	1	-1E+10	1	-1E+10	1	-1E+10	1
4902549	72	C	08/08/2022	08:04	-132.062	47.323	0	82.10	0	7.9850	0	32.4070	0	25.242	0	81.400	0	244.9	4	83.7	4	-1E+10	1	-1E+10	1	-1E+10	1	-1E+10	1	-1E+10	1	-1E+10	1
4902549	72	C	08/08/2022	08:04	-132.062	47.323	0	83.20	0	7.9700	0	32.4180	0	25.252	0	82.490	0	249.7	4	85.3	4	-1E+10	1	-1E+10	1	-1E+10	1	-1E+10	1	-1E+10	1	-1E+10	1
4902549	72	C	08/08/2022	08:04	-132.062	47.323	0	84.00	0	7.9540	0	32.4270	0	25.262	0	83.283	0	248.5	4	84.9	4	-1E+10	1	-1E+10	1	-1E+10	1	-1E+10	1	-1E+10	1	-1E+10	1
4902549	72	C	08/08/2022	08:04	-132.062	47.323	0	85.00	0	7.8960	0	32.4450	0	25.284	0	84.275	0	247.1	4	84.3	4	-1E+10	1	-1E+10	1	-1E+10	1	-1E+10	1	-1E+10	1	-1E+10	1
4902549	72	C	08/08/2022	08:04	-132.062	47.323	0	86.10	0	7.8950	0	32.4530	0	25.291	0	85.365	0	244.6	4	83.5	4	-1E+10	1	-1E+10	1	-1E+10	1	-1E+10	1	-1E+10	1	-1E+10	1
4902549	72	C	08/08/2022	08:04	-132.062	47.323	0	86.90	0	7.8910	0	32.4650	0	25.301	0	86.158	0	242.6	4	82.8	4	-1E+10	1	-1E+10	1	-1E+10	1	-1E+10	1	-1E+10	1	-1E+10	1
4902549	72	C	08/08/2022	08:04	-132.062	47.323	0	88.10	0	7.8650	0	32.4840	0	25.319	0	87.347	0	239.5	4	81.7	4	-1E+10	1	-1E+10	1	-1E+10	1	-1E+10	1	-1E+10	1	-1E+10	1
4902549	72	C	08/08/2022	08:04	-132.062	47.323	0	89.00	0	7.8180	0	32.5190	0	25.353	0	88.240	0	237.3	4	80.9	4	-1E+10	1	-1E+10	1	-1E+10	1	-1E+10	1	-1E+10	1	-1E+10	1
4902549	72	C	08/08/2022	08:04	-132.062	47.323	0	90.20	0	7.7670	0	32.5590	0	25.392	0	89.429	0	235.4	4	80.2	4	-1E+10	1	-1E+10	1	-1E+10	1	-1E+10	1	-1E+10	1	-1E+10	1
4902549	72	C	08/08/2022	08:04	-132.062	47.323	0	91.00	0	7.7170	0	32.5840	0	25.419	0	90.222	0	234.7	4	79.8	4	-1E+10	1	-1E+10	1	-1E+10	1	-1E+10	1	-1E+10	1	-1E+10	1
4902549	72	C	08/08/2022	08:04	-132.062	47.323	0	92.00	0	7.6940	0	32.5980	0	25.433	0	91.213	0	233.4	4	79.4	4	-1E+10	1	-1E+10	1	-1E+10	1	-1E+10	1	-1E+10	1	-1E+10	1
4902549	72	C	08/08/2022	08:04	-132.062	47.323	0	93.00	0	7.6930	0	32.6010	0	25.436	0	92.205	0	231.9	4	78.9	4	-1E+10	1	-1E+10	1	-1E+10	1	-1E+10	1	-1E+10	1	-1E+10	1
4902549	72	C	08/08/2022	08:04	-132.062	47.323	0	94.20	0	7.6890	0	32.6040	0	25.439	0	93.394	0	229.4	4	78.0	4	-1E+10	1	-1E+10	1	-1E+10	1	-1E+10	1	-1E+10	1	-1E+10	1
4902549	72	C	08/08/2022	08:04	-132.062	47.323	0	95.00	0	7.6810	0	32.6120	0	25.446	0	94.187	0	227.6	4	77.4	4	-1E+10	1	-1E+10	1	-1E+10	1	-1E+10	1	-1E+10	1	-1E+10	1
4902549	72	C	08/08/2022	08:04	-132.062	47.323	0	96.20	0	7.6440	0	32.6460	0	25.478	0	95.376	0	225.3	4	76.6	4	-1E+10	1	-1E+10	1	-1E+10	1	-1E+10	1	-1E+10	1	-1E+10	1
4902549	72	C	08/08/2022	08:04	-132.062	47.323	0	96.80	0	7.6210	0	32.6500	0	25.484	0	95.971	0	223.9	4	76.1	4	-1E+10	1	-1E+10	1	-1E+10	1	-1E+10	1	-1E+10	1	-1E+10	1
4902549	72	C	08/08/2022	08:04	-132.062	47.323	0	98.10	0	7.5510	0	32.6800	0	25.518	0	97.260	0	220.6	4	74.8	4	-1E+10	1	-1E+10	1	-1E+10	1	-1E+10	1	-1E+10	1	-1E+10	1
4902549	72	C	08/08/2022	08:04	-132.062	47.323	0	99.00	0	7.5060	0	32.7090	0	25.547	0	98.152	0	218.3	4	74.0	4	-1E+10	1	-1E+10	1	-1E+10	1	-1E+10	1	-1E+10	1	-1E+10	1
4902549	72	C	08/08/2022	08:04	-132.062	47.323	0	100.00	0	7.4690	0	32.7470	0	25.582	0	99.143	0	216.0	4	73.2	4	-1E+10	1	-1E+10	1	-1E+10	1	-1E+10	1	-1E+10	1	-1E+10	1
4902549	72	C	08/08/2022	08:04	-132.062	47.323	0	101.10	0	7.4790	0	32.7750	0	25.602	0	100.233	0	212.2	4	71.9	4	-1E+10	1	-1E+10	1	-1E+10	1	-1E+10	1	-1E+10	1	-1E+10	1
4902549	72	C	08/08/2022	08:04	-132.062	47.323	0	102.00	0	7.4730	0	32.8070	0	25.628	0	101.125	0	209.9	4	71.1	4	-1E+10	1	-1E+10	1	-1E+10	1	-1E+10	1	-1E+10	1	-1E+10	1
4902549	72	C	08/08/2022	08:04	-132.062	47.323	0	103.10	0	7.4700	0	32.8160	0	25.636	0	102.216	0	206.6	4	70.0	4	-1E+10	1	-1E+10	1	-1E+10	1	-1E+10	1	-1E+10	1	-1E+10	1
4902549	72	C	08/08/2022	08:04	-132.062	47.323	0	104.00	0	7.4870	0	32.8270	0	25.642	0	103.108	0	203.3	4	69.0	4	-1E+10	1	-1E+10	1	-1E+10	1	-1E+10	1	-1E+10	1	-1E+10	1
4902549	72	C	08/08/2022	08:04	-132.062	47.323	0	105.00	0	7.4960	0	32.8790	0	25.682	0	104.099	0	200.6	4	68.1	4	-1E+10	1	-1E+10	1	-1E+10	1	-1E+10	1	-1E+10	1	-1E+10	1
4902549	72	C	08/08/2022	08:04	-132.062	47.323	0	106.10	0	7.4810	0	32.9140	0	25.711	0	105.189	0	197.7	4	67.1	4	-1E+10	1	-1E+10	1	-1E+10	1	-1E+10	1	-1E+10	1	-1E+10	1
4902549	72	C	08/08/2022	08:04	-132.062	47.323	0	106.90	0	7.4710	0	32.9270	0	25.723	0	105.982	0	195.2	4	66.2	4	-1E+10	1	-1E+10	1	-1E+10	1	-1E+10	1	-1E+10	1	-1E+10	1
4902549	72	C	08/08/2022	08:04	-132.062	47.323	0	108.10	0	7.4600	0	32.9570	0	25.748	0	107.171	0	191.3	4	64.9	4	-1E+10	1	-1E+10	1	-1E+10	1	-1E+10	1	-1E+10	1	-1E+10	1
4902549	72	C	08/08/2022	08:04	-132.062	47.323	0	109.10	0	7.4450	0	33.0060	0	25.789	0	108.163	0	187.6	4	63.7	4	-1E+10	1	-1E+10	1	-1E+10	1	-1E+10	1	-1E+10	1	-1E+10	1
4902549	72	C	08/08/2022	08:04	-132.062	47.323	0	110.10	0	7.4320	0	33.0690	0	25.840	0	109.154	0	184.8	4	62.7	4	-1E+10	1	-1E+10	1	-1E+10	1	-1E+10	1	-1E+10	1	-1E+10	1
4902549	72	C	08/08/2022	08:04	-132.062	47.323	0	111.00	0	7.4320	0	33.1190	0	25.880	0	110.046	0	182.9	4	62.1	4	-1E+10	1	-1E+10	1	-1E+10	1	-1E+10	1	-1E+10	1	-1E+10	1
4902549	72	C	08/08/2022	08:04	-132.062	47.323	0	111.80	0	7.4370	0	33.1420	0	25.897	0	110.839	0	181.0	4	61.4	4	-1E+10	1	-1E+10	1	-1E+10	1	-1E+10	1	-1E+10	1	-1E+10	1
4902549	72	C	08/08/2022	08:04	-132.062	47.323	0	112.80	0	7.4400	0	33.1670	0	25.916	0	111.830	0	178.5	4	60.6	4	-1E+10	1	-1E+10	1	-1E+10	1	-1E+10	1	-1E+10	1	-1E+10	1
4902549	72	C	08/08/2022	08:04	-132.062	47.323	0	114.00	0	7.4400	0	33.2030	0	25.945	0	113.019	0	175.9	4	59.8	4	-1E+10	1	-1E+10	1	-1E+10	1	-1E+10	1	-1E+10	1	-1E+10	1
4902549	72	C	08/08/2022	08:04	-132.062	47.323	0	115.00	0	7.4380	0	33.2720	0	25.999	0	114.010	0	174.5	4	59.3	4	-1E+10	1	-1E+10	1	-1E+10	1	-1E+10	1	-1E+10	1	-1E+10	1
4902549	72	C	08/08/2022	08:04	-132.062	47.323	0	116.00	0	7.4330	0	33.2890	0	26.013	0	115.001	0	173.3	4	58.9	4	-1E+10	1	-1E+10	1	-1E+10	1	-1E+10	1	-1E+10	1	-1E+10	1
4902549	72	C	08/08/2022	08:04	-132.062	47.323	0	117.10	0	7.4260	0	33.3220	0	26.040	0	116.092	0	172.2	4	58.5	4	-1E+10	1	-1E+10	1	-1E+10	1	-1E+10	1	-1E+10	1	-1E+10	1
4902549	72	C	08/08/2022	08:04	-132.062	47.323	0	117.80	0	7.4250	0	33.3240	0	26.042	0	116.785	0	171.4	4	58.2	4	-1E+10	1	-1E+10	1	-1E+10	1	-1E+10	1	-1E+10	1	-1E+10	1
4902549	72	C	08/08/2022	08:04	-132.062	47.323	0	118.80	0	7.4240	0	33.3280	0	26.045	0	117.777	0	170.0	4	57.8	4	-1E+10	1	-1E+10	1	-1E+10	1	-1E+10	1	-1E+10	1	-1E+10	1
4902549	72	C	08/08/2022	08:04	-132.062	47.323	0	119.90	0	7.4210	0	33.3410	0	26.056	0	118.867	0	168.4	4	57.2	4	-1E+10	1	-1E+10	1	-1E+10	1	-1E+10	1	-1E+10	1	-1E+10	1
4902549	72	C	08/08/2022	08:04	-132.062	47.323	0	120.90	0	7.4180	0	33.3560	0	26.068	0	119.858	0	166.8	4	56.7	4	-1E+10	1	-1E+10	1	-1E+10	1	-1E+10	1	-1E+10	1	-1E+10	1
4902549	72	C	08/08/2022	08:04	-132.062	47.323	0	122.00	0	7.4110	0	33.3780	0	26.086	0	120.948	0	165.1	4	56.1	4	-1E+10	1	-1E+10	1	-1E+10	1	-1E+10	1	-1E+10	1	-1E+10	1
4902549	72	C	08/08/2022	08:04	-132.062	47.323	0	122.70	0	7.4180	0	33.4040	0	26.106	0	121.642	0	164.2	4	55.8	4	-1E+10	1	-1E+10	1	-1E+10	1	-1E+10	1	-1E+10	1	-1E+10	1
4902549	72	C	08/08/2022	08:04	-132.062	47.323	0	123.80	0	7.4190	0	33.4210	0	26.119	0	122.732	0	163.2	4	55.5	4	-1E+10	1	-1E+10	1	-1E+10	1	-1E+10	1	-1E+10	1	-1E+10	1
4902549	72	C	08/08/2022	08:04	-132.062	47.323	0	125.10	0	7.4170	0	33.4470	0	26.140	0	124.020	0	162.4	4	55.3	4	-1E+10	1	-1E+10	1	-1E+10	1	-1E+10	1	-1E+10	1	-1E+10	1
4902549	72	C	08/08/2022	08:04	-132.062	47.323	0	125.90	0	7.3960	0	33.4800	0	26.169	0	124.813	0	161.9	4	55.1	4	-1E+10	1	-1E+10	1	-1E+10	1	-1E+10	1	-1E+10	1	-1E+10	1
4902549	72	C	08/08/2022	08:04	-132.062	47.323	0	126.70	0	7.3840	0	33.4850	0	26.174	0	125.606	0	161.2	4	54.8	4	-1E+10	1	-1E+10	1	-1E+10	1	-1E+10	1	-1E+10	1	-1E+10	1
4902549	72	C	08/08/2022	08:04	-132.062	47.323	0	127.90	0	7.3800	0	33.4890	0	26.178	0	126.795	0	159.9	4	54.4	4	-1E+10	1	-1E+10	1	-1E+10	1	-1E+10	1	-1E+10	1	-1E+10	1
4902549	72	C	08/08/2022	08:04	-132.062	47.323	0	129.10	0	7.3740	0	33.5000	0	26.188	0	127.985	0	158.4	4	53.8	4	-1E+10	1	-1E+10	1	-1E+10	1	-1E+10	1	-1E+10	1	-1E+10	1
4902549	72	C	08/08/2022	08:04	-132.062	47.323	0	129.90	0	7.3680	0	33.5260	0	26.209	0	128.777	0	157.4	4	53.5	4	-1E+10	1	-1E+10	1	-1E+10	1	-1E+10	1	-1E+10	1	-1E+10	1
4902549	72	C	08/08/2022	08:04	-132.062	47.323	0	130.70	0	7.3660	0	33.5300	0	26.212	0	129.570	0	156.4	4	53.2	4	-1E+10	1	-1E+10	1	-1E+10	1	-1E+10	1	-1E+10	1	-1E+10	1
4902549	72	C	08/08/2022	08:04	-132.062	47.323	0	132.00	0	7.3610	0	33.5370	0	26.219	0	130.859	0	155.0	4	52.7	4	-1E+10	1	-1E+10	1	-1E+10	1	-1E+10	1	-1E+10	1	-1E+10	1
4902549	72	C	08/08/2022	08:04	-132.062	47.323	0	133.30	0	7.3580	0	33.5460	0	26.226	0	132.147	0	153.4	4	52.2	4	-1E+10	1	-1E+10	1	-1E+10	1	-1E+10	1	-1E+10	1	-1E+10	1
4902549	72	C	08/08/2022	08:04	-132.062	47.323	0	134.20	0	7.3430	0	33.5660	0	26.244	0	133.039	0	152.3	4	51.7	4	-1E+10	1	-1E+10	1	-1E+10	1	-1E+10	1	-1E+10	1	-1E+10	1
4902549	72	C	08/08/2022	08:04	-132.062	47.323	0	135.00	0	7.3410	0	33.5770	0	26.253	0	133.832	0	150.9	4	51.3	4	-1E+10	1	-1E+10	1	-1E+10	1	-1E+10	1	-1E+10	1	-1E+10	1
4902549	72	C	08/08/2022	08:04	-132.062	47.323	0	135.90	0	7.3430	0	33.5910	0	26.264	0	134.724	0	149.7	4	50.9	4	-1E+10	1	-1E+10	1	-1E+10	1	-1E+10	1	-1E+10	1	-1E+10	1
4902549	72	C	08/08/2022	08:04	-132.062	47.323	0	136.70	0	7.3520	0	33.6020	0	26.271	0	135.516	0	149.0	4	50.7	4	-1E+10	1	-1E+10	1	-1E+10	1	-1E+10	1	-1E+10	1	-1E+10	1
4902549	72	C	08/08/2022	08:04	-132.062	47.323	0	138.00	0	7.3530	0	33.6100	0	26.277	0	136.805	0	148.1	4	50.4	4	-1E+10	1	-1E+10	1	-1E+10	1	-1E+10	1	-1E+10	1	-1E+10	1
4902549	72	C	08/08/2022	08:04	-132.062	47.323	0	139.30	0	7.3470	0	33.6160	0	26.283	0	138.093	0	147.2	4	50.1	4	-1E+10	1	-1E+10	1	-1E+10	1	-1E+10	1	-1E+10	1	-1E+10	1
4902549	72	C	08/08/2022	08:04	-132.062	47.323	0	140.10	0	7.3300	0	33.6340	0	26.299	0	138.886	0	146.6	4	49.8	4	-1E+10	1	-1E+10	1	-1E+10	1	-1E+10	1	-1E+10	1	-1E+10	1
4902549	72	C	08/08/2022	08:04	-132.062	47.323	0	140.90	0	7.3210	0	33.6440	0	26.308	0	139.679	0	145.9	4	49.6	4	-1E+10	1	-1E+10	1	-1E+10	1	-1E+10	1	-1E+10	1	-1E+10	1
4902549	72	C	08/08/2022	08:04	-132.062	47.323	0	141.80	0	7.3160	0	33.6680	0	26.328	0	140.571	0	145.7	4	49.5	4	-1E+10	1	-1E+10	1	-1E+10	1	-1E+10	1	-1E+10	1	-1E+10	1
4902549	72	C	08/08/2022	08:04	-132.062	47.323	0	142.60	0	7.3100	0	33.6750	0	26.334	0	141.363	0	145.6	4	49.5	4	-1E+10	1	-1E+10	1	-1E+10	1	-1E+10	1	-1E+10	1	-1E+10	1
4902549	72	C	08/08/2022	08:04	-132.062	47.323	0	143.90	0	7.2730	0	33.6970	0	26.357	0	142.652	0	145.4	4	49.4	4	-1E+10	1	-1E+10	1	-1E+10	1	-1E+10	1	-1E+10	1	-1E+10	1
4902549	72	C	08/08/2022	08:04	-132.062	47.323	0	145.30	0	7.2280	0	33.7140	0	26.377	0	144.039	0	145.2	4	49.3	4	-1E+10	1	-1E+10	1	-1E+10	1	-1E+10	1	-1E+10	1	-1E+10	1
4902549	72	C	08/08/2022	08:04	-132.062	47.323	0	146.20	0	7.2210	0	33.7170	0	26.380	0	144.931	0	144.8	4	49.1	4	-1E+10	1	-1E+10	1	-1E+10	1	-1E+10	1	-1E+10	1	-1E+10	1
4902549	72	C	08/08/2022	08:04	-132.062	47.323	0	147.10	0	7.2210	0	33.7200	0	26.382	0	145.823	0	144.3	4	49.0	4	-1E+10	1	-1E+10	1	-1E+10	1	-1E+10	1	-1E+10	1	-1E+10	1
4902549	72	C	08/08/2022	08:04	-132.062	47.323	0	148.00	0	7.2160	0	33.7270	0	26.388	0	146.715	0	144.0	4	48.8	4	-1E+10	1	-1E+10	1	-1E+10	1	-1E+10	1	-1E+10	1	-1E+10	1
4902549	72	C	08/08/2022	08:04	-132.062	47.323	0	149.00	0	7.2110	0	33.7280	0	26.390	0	147.706	0	143.6	4	48.7	4	-1E+10	1	-1E+10	1	-1E+10	1	-1E+10	1	-1E+10	1	-1E+10	1
4902549	72	C	08/08/2022	08:04	-132.062	47.323	0	149.90	0	7.2100	0	33.7280	0	26.390	0	148.597	0	143.0	4	48.5	4	-1E+10	1	-1E+10	1	-1E+10	1	-1E+10	1	-1E+10	1	-1E+10	1
4902549	72	C	08/08/2022	08:04	-132.062	47.323	0	150.80	0	7.2120	0	33.7280	0	26.390	0	149.489	0	142.6	4	48.4	4	-1E+10	1	-1E+10	1	-1E+10	1	-1E+10	1	-1E+10	1	-1E+10	1
4902549	72	C	08/08/2022	08:04	-132.062	47.323	0	151.70	0	7.2140	0	33.7280	0	26.390	0	150.381	0	142.0	4	48.2	4	-1E+10	1	-1E+10	1	-1E+10	1	-1E+10	1	-1E+10	1	-1E+10	1
4902549	72	C	08/08/2022	08:04	-132.062	47.323	0	152.60	0	7.2200	0	33.7300	0	26.390	0	151.273	0	141.5	4	48.0	4	-1E+10	1	-1E+10	1	-1E+10	1	-1E+10	1	-1E+10	1	-1E+10	1
4902549	72	C	08/08/2022	08:04	-132.062	47.323	0	153.70	0	7.2040	0	33.7400	0	26.400	0	152.363	0	141.1	4	47.9	4	-1E+10	1	-1E+10	1	-1E+10	1	-1E+10	1	-1E+10	1	-1E+10	1
4902549	72	C	08/08/2022	08:04	-132.062	47.323	0	154.70	0	7.1940	0	33.7420	0	26.403	0	153.354	0	140.7	4	47.7	4	-1E+10	1	-1E+10	1	-1E+10	1	-1E+10	1	-1E+10	1	-1E+10	1
4902549	72	C	08/08/2022	08:04	-132.062	47.323	0	155.60	0	7.1900	0	33.7450	0	26.406	0	154.246	0	140.4	4	47.6	4	-1E+10	1	-1E+10	1	-1E+10	1	-1E+10	1	-1E+10	1	-1E+10	1
4902549	72	C	08/08/2022	08:04	-132.062	47.323	0	156.90	0	7.1610	0	33.7600	0	26.422	0	155.534	0	140.1	4	47.5	4	-1E+10	1	-1E+10	1	-1E+10	1	-1E+10	1	-1E+10	1	-1E+10	1
4902549	72	C	08/08/2022	08:04	-132.062	47.323	0	158.40	0	7.1560	0	33.7590	0	26.422	0	157.020	0	139.6	4	47.3	4	-1E+10	1	-1E+10	1	-1E+10	1	-1E+10	1	-1E+10	1	-1E+10	1
4902549	72	C	08/08/2022	08:04	-132.062	47.323	0	159.30	0	7.1600	0	33.7610	0	26.423	0	157.912	0	139.3	4	47.2	4	-1E+10	1	-1E+10	1	-1E+10	1	-1E+10	1	-1E+10	1	-1E+10	1
4902549	72	C	08/08/2022	08:04	-132.062	47.323	0	160.20	0	7.1630	0	33.7620	0	26.423	0	158.804	0	139.1	4	47.2	4	-1E+10	1	-1E+10	1	-1E+10	1	-1E+10	1	-1E+10	1	-1E+10	1
4902549	72	C	08/08/2022	08:04	-132.062	47.323	0	161.10	0	7.1610	0	33.7630	0	26.425	0	159.696	0	139.0	4	47.1	4	-1E+10	1	-1E+10	1	-1E+10	1	-1E+10	1	-1E+10	1	-1E+10	1
4902549	72	C	08/08/2022	08:04	-132.062	47.323	0	162.00	0	7.1310	0	33.7660	0	26.431	0	160.588	0	138.6	4	47.0	4	-1E+10	1	-1E+10	1	-1E+10	1	-1E+10	1	-1E+10	1	-1E+10	1
4902549	72	C	08/08/2022	08:04	-132.062	47.323	0	163.00	0	7.1270	0	33.7680	0	26.433	0	161.578	0	138.3	4	46.8	4	-1E+10	1	-1E+10	1	-1E+10	1	-1E+10	1	-1E+10	1	-1E+10	1
4902549	72	C	08/08/2022	08:04	-132.062	47.323	0	163.90	0	7.1430	0	33.7740	0	26.436	0	162.470	0	138.2	4	46.8	4	-1E+10	1	-1E+10	1	-1E+10	1	-1E+10	1	-1E+10	1	-1E+10	1
4902549	72	C	08/08/2022	08:04	-132.062	47.323	0	164.90	0	7.1260	0	33.7790	0	26.442	0	163.461	0	138.3	4	46.9	4	-1E+10	1	-1E+10	1	-1E+10	1	-1E+10	1	-1E+10	1	-1E+10	1
4902549	72	C	08/08/2022	08:04	-132.062	47.323	0	165.80	0	7.1070	0	33.7760	0	26.442	0	164.353	0	138.3	4	46.8	4	-1E+10	1	-1E+10	1	-1E+10	1	-1E+10	1	-1E+10	1	-1E+10	1
4902549	72	C	08/08/2022	08:04	-132.062	47.323	0	166.80	0	7.0860	0	33.7790	0	26.448	0	165.344	0	137.9	4	46.7	4	-1E+10	1	-1E+10	1	-1E+10	1	-1E+10	1	-1E+10	1	-1E+10	1
4902549	72	C	08/08/2022	08:04	-132.062	47.323	0	167.70	0	7.0830	0	33.7760	0	26.446	0	166.236	0	137.4	4	46.5	4	-1E+10	1	-1E+10	1	-1E+10	1	-1E+10	1	-1E+10	1	-1E+10	1
4902549	72	C	08/08/2022	08:04	-132.062	47.323	0	168.60	0	7.0740	0	33.7780	0	26.448	0	167.127	0	136.7	4	46.2	4	-1E+10	1	-1E+10	1	-1E+10	1	-1E+10	1	-1E+10	1	-1E+10	1
4902549	72	C	08/08/2022	08:04	-132.062	47.323	0	169.60	0	7.0680	0	33.7780	0	26.449	0	168.118	0	135.8	4	45.9	4	-1E+10	1	-1E+10	1	-1E+10	1	-1E+10	1	-1E+10	1	-1E+10	1
4902549	72	C	08/08/2022	08:04	-132.062	47.323	0	170.60	0	7.0560	0	33.7810	0	26.453	0	169.109	0	135.0	4	45.7	4	-1E+10	1	-1E+10	1	-1E+10	1	-1E+10	1	-1E+10	1	-1E+10	1
4902549	72	C	08/08/2022	08:04	-132.062	47.323	0	171.50	0	7.0500	0	33.7830	0	26.456	0	170.001	0	134.1	4	45.3	4	-1E+10	1	-1E+10	1	-1E+10	1	-1E+10	1	-1E+10	1	-1E+10	1
4902549	72	C	08/08/2022	08:04	-132.062	47.323	0	172.90	0	7.0370	0	33.7860	0	26.460	0	171.388	0	132.5	4	44.8	4	-1E+10	1	-1E+10	1	-1E+10	1	-1E+10	1	-1E+10	1	-1E+10	1
4902549	72	C	08/08/2022	08:04	-132.062	47.323	0	174.40	0	7.0330	0	33.7900	0	26.464	0	172.874	0	130.7	4	44.2	4	-1E+10	1	-1E+10	1	-1E+10	1	-1E+10	1	-1E+10	1	-1E+10	1
4902549	72	C	08/08/2022	08:04	-132.062	47.323	0	175.30	0	7.0240	0	33.7970	0	26.470	0	173.766	0	129.6	4	43.8	4	-1E+10	1	-1E+10	1	-1E+10	1	-1E+10	1	-1E+10	1	-1E+10	1
4902549	72	C	08/08/2022	08:04	-132.062	47.323	0	176.30	0	7.0200	0	33.7980	0	26.472	0	174.757	0	128.3	4	43.4	4	-1E+10	1	-1E+10	1	-1E+10	1	-1E+10	1	-1E+10	1	-1E+10	1
4902549	72	C	08/08/2022	08:04	-132.062	47.323	0	177.30	0	6.9960	0	33.8030	0	26.479	0	175.748	0	126.8	4	42.8	4	-1E+10	1	-1E+10	1	-1E+10	1	-1E+10	1	-1E+10	1	-1E+10	1
4902549	72	C	08/08/2022	08:04	-132.062	47.323	0	178.30	0	6.9980	0	33.8080	0	26.483	0	176.738	0	125.5	4	42.4	4	-1E+10	1	-1E+10	1	-1E+10	1	-1E+10	1	-1E+10	1	-1E+10	1
4902549	72	C	08/08/2022	08:04	-132.062	47.323	0	179.20	0	6.9960	0	33.8130	0	26.487	0	177.630	0	124.2	4	42.0	4	-1E+10	1	-1E+10	1	-1E+10	1	-1E+10	1	-1E+10	1	-1E+10	1
4902549	72	C	08/08/2022	08:04	-132.062	47.323	0	180.20	0	6.9950	0	33.8150	0	26.488	0	178.621	0	122.9	4	41.5	4	-1E+10	1	-1E+10	1	-1E+10	1	-1E+10	1	-1E+10	1	-1E+10	1
4902549	72	C	08/08/2022	08:04	-132.062	47.323	0	181.10	0	6.9960	0	33.8160	0	26.489	0	179.513	0	121.5	4	41.0	4	-1E+10	1	-1E+10	1	-1E+10	1	-1E+10	1	-1E+10	1	-1E+10	1
4902549	72	C	08/08/2022	08:04	-132.062	47.323	0	182.10	0	6.9930	0	33.8190	0	26.492	0	180.504	0	119.9	4	40.5	4	-1E+10	1	-1E+10	1	-1E+10	1	-1E+10	1	-1E+10	1	-1E+10	1
4902549	72	C	08/08/2022	08:04	-132.062	47.323	0	183.10	0	6.9900	0	33.8210	0	26.494	0	181.494	0	118.2	4	39.9	4	-1E+10	1	-1E+10	1	-1E+10	1	-1E+10	1	-1E+10	1	-1E+10	1
4902549	72	C	08/08/2022	08:04	-132.062	47.323	0	184.00	0	6.9890	0	33.8220	0	26.495	0	182.386	0	116.3	4	39.3	4	-1E+10	1	-1E+10	1	-1E+10	1	-1E+10	1	-1E+10	1	-1E+10	1
4902549	72	C	08/08/2022	08:04	-132.062	47.323	0	184.90	0	6.9800	0	33.8290	0	26.502	0	183.278	0	114.7	4	38.7	4	-1E+10	1	-1E+10	1	-1E+10	1	-1E+10	1	-1E+10	1	-1E+10	1
4902549	72	C	08/08/2022	08:04	-132.062	47.323	0	185.90	0	7.0480	0	33.8310	0	26.494	0	184.269	0	114.1	4	38.6	4	-1E+10	1	-1E+10	1	-1E+10	1	-1E+10	1	-1E+10	1	-1E+10	1
4902549	72	C	08/08/2022	08:04	-132.062	47.323	0	186.90	0	7.0810	0	33.8600	0	26.512	0	185.259	0	114.5	4	38.8	4	-1E+10	1	-1E+10	1	-1E+10	1	-1E+10	1	-1E+10	1	-1E+10	1
4902549	72	C	08/08/2022	08:04	-132.062	47.323	0	187.80	0	7.0030	0	33.8550	0	26.519	0	186.151	0	114.8	4	38.8	4	-1E+10	1	-1E+10	1	-1E+10	1	-1E+10	1	-1E+10	1	-1E+10	1
4902549	72	C	08/08/2022	08:04	-132.062	47.323	0	188.80	0	6.9360	0	33.8630	0	26.534	0	187.142	0	114.4	4	38.6	4	-1E+10	1	-1E+10	1	-1E+10	1	-1E+10	1	-1E+10	1	-1E+10	1
4902549	72	C	08/08/2022	08:04	-132.062	47.323	0	189.90	0	6.8920	0	33.8460	0	26.527	0	188.232	0	113.5	4	38.2	4	-1E+10	1	-1E+10	1	-1E+10	1	-1E+10	1	-1E+10	1	-1E+10	1
4902549	72	C	08/08/2022	08:04	-132.062	47.323	0	190.90	0	6.8730	0	33.8450	0	26.529	0	189.222	0	112.1	4	37.8	4	-1E+10	1	-1E+10	1	-1E+10	1	-1E+10	1	-1E+10	1	-1E+10	1
4902549	72	C	08/08/2022	08:04	-132.062	47.323	0	191.80	0	6.8870	0	33.8490	0	26.530	0	190.114	0	110.8	4	37.3	4	-1E+10	1	-1E+10	1	-1E+10	1	-1E+10	1	-1E+10	1	-1E+10	1
4902549	72	C	08/08/2022	08:04	-132.062	47.323	0	192.70	0	6.8770	0	33.8640	0	26.543	0	191.006	0	109.6	4	36.9	4	-1E+10	1	-1E+10	1	-1E+10	1	-1E+10	1	-1E+10	1	-1E+10	1
4902549	72	C	08/08/2022	08:04	-132.062	47.323	0	193.70	0	6.8760	0	33.8530	0	26.535	0	191.996	0	108.3	4	36.5	4	-1E+10	1	-1E+10	1	-1E+10	1	-1E+10	1	-1E+10	1	-1E+10	1
4902549	72	C	08/08/2022	08:04	-132.062	47.323	0	194.60	0	6.8810	0	33.8720	0	26.549	0	192.888	0	107.6	4	36.3	4	-1E+10	1	-1E+10	1	-1E+10	1	-1E+10	1	-1E+10	1	-1E+10	1
4902549	72	C	08/08/2022	08:04	-132.062	47.323	0	195.60	0	6.8680	0	33.8690	0	26.548	0	193.879	0	107.2	4	36.1	4	-1E+10	1	-1E+10	1	-1E+10	1	-1E+10	1	-1E+10	1	-1E+10	1
4902549	72	C	08/08/2022	08:04	-132.062	47.323	0	196.50	0	6.8430	0	33.8700	0	26.553	0	194.771	0	106.5	4	35.8	4	-1E+10	1	-1E+10	1	-1E+10	1	-1E+10	1	-1E+10	1	-1E+10	1
4902549	72	C	08/08/2022	08:04	-132.062	47.323	0	197.90	0	6.8740	0	33.8830	0	26.559	0	196.158	0	106.3	4	35.8	4	-1E+10	1	-1E+10	1	-1E+10	1	-1E+10	1	-1E+10	1	-1E+10	1
4902549	72	C	08/08/2022	08:04	-132.062	47.323	0	199.40	0	6.8810	0	33.8880	0	26.562	0	197.644	0	107.5	4	36.2	4	-1E+10	1	-1E+10	1	-1E+10	1	-1E+10	1	-1E+10	1	-1E+10	1
4902549	72	C	08/08/2022	08:04	-132.062	47.323	0	200.40	0	6.8520	0	33.8880	0	26.566	0	198.634	0	108.4	4	36.5	4	-1E+10	1	-1E+10	1	-1E+10	1	-1E+10	1	-1E+10	1	-1E+10	1
4902549	72	C	08/08/2022	08:04	-132.062	47.323	0	201.40	0	6.7480	0	33.8760	0	26.570	0	199.625	0	108.9	4	36.6	4	-1E+10	1	-1E+10	1	-1E+10	1	-1E+10	1	-1E+10	1	-1E+10	1
4902549	72	C	08/08/2022	08:04	-132.062	47.323	0	202.40	0	6.7170	0	33.8780	0	26.576	0	200.616	0	108.9	4	36.6	4	-1E+10	1	-1E+10	1	-1E+10	1	-1E+10	1	-1E+10	1	-1E+10	1
4902549	72	C	08/08/2022	08:04	-132.062	47.323	0	203.40	0	6.7050	0	33.8740	0	26.574	0	201.606	0	108.7	4	36.5	4	-1E+10	1	-1E+10	1	-1E+10	1	-1E+10	1	-1E+10	1	-1E+10	1
4902549	72	C	08/08/2022	08:04	-132.062	47.323	0	204.40	0	6.7180	0	33.8760	0	26.574	0	202.597	0	108.6	4	36.5	4	-1E+10	1	-1E+10	1	-1E+10	1	-1E+10	1	-1E+10	1	-1E+10	1
4902549	72	C	08/08/2022	08:04	-132.062	47.323	0	205.40	0	6.6790	0	33.8750	0	26.579	0	203.588	0	108.3	4	36.3	4	-1E+10	1	-1E+10	1	-1E+10	1	-1E+10	1	-1E+10	1	-1E+10	1
4902549	72	C	08/08/2022	08:04	-132.062	47.323	0	206.40	0	6.6400	0	33.8830	0	26.590	0	204.578	0	107.7	4	36.1	4	-1E+10	1	-1E+10	1	-1E+10	1	-1E+10	1	-1E+10	1	-1E+10	1
4902549	72	C	08/08/2022	08:04	-132.062	47.323	0	207.40	0	6.6290	0	33.8720	0	26.583	0	205.569	0	107.0	4	35.8	4	-1E+10	1	-1E+10	1	-1E+10	1	-1E+10	1	-1E+10	1	-1E+10	1
4902549	72	C	08/08/2022	08:04	-132.062	47.323	0	208.50	0	6.6250	0	33.8730	0	26.584	0	206.659	0	106.1	4	35.5	4	-1E+10	1	-1E+10	1	-1E+10	1	-1E+10	1	-1E+10	1	-1E+10	1
4902549	72	C	08/08/2022	08:04	-132.062	47.323	0	209.50	0	6.6240	0	33.8730	0	26.584	0	207.650	0	105.1	4	35.2	4	-1E+10	1	-1E+10	1	-1E+10	1	-1E+10	1	-1E+10	1	-1E+10	1
4902549	72	C	08/08/2022	08:04	-132.062	47.323	0	210.50	0	6.6440	0	33.8710	0	26.580	0	208.640	0	104.2	4	34.9	4	-1E+10	1	-1E+10	1	-1E+10	1	-1E+10	1	-1E+10	1	-1E+10	1
4902549	72	C	08/08/2022	08:04	-132.062	47.323	0	211.50	0	6.6380	0	33.8770	0	26.586	0	209.631	0	103.3	4	34.6	4	-1E+10	1	-1E+10	1	-1E+10	1	-1E+10	1	-1E+10	1	-1E+10	1
4902549	72	C	08/08/2022	08:04	-132.062	47.323	0	212.50	0	6.5890	0	33.8770	0	26.592	0	210.622	0	102.3	4	34.3	4	-1E+10	1	-1E+10	1	-1E+10	1	-1E+10	1	-1E+10	1	-1E+10	1
4902549	72	C	08/08/2022	08:04	-132.062	47.323	0	213.60	0	6.5650	0	33.8770	0	26.595	0	211.711	0	101.2	4	33.9	4	-1E+10	1	-1E+10	1	-1E+10	1	-1E+10	1	-1E+10	1	-1E+10	1
4902549	72	C	08/08/2022	08:04	-132.062	47.323	0	214.60	0	6.5610	0	33.8820	0	26.600	0	212.702	0	99.8	4	33.4	4	-1E+10	1	-1E+10	1	-1E+10	1	-1E+10	1	-1E+10	1	-1E+10	1
4902549	72	C	08/08/2022	08:04	-132.062	47.323	0	215.70	0	6.5570	0	33.8760	0	26.596	0	213.792	0	98.4	4	32.9	4	-1E+10	1	-1E+10	1	-1E+10	1	-1E+10	1	-1E+10	1	-1E+10	1
4902549	72	C	08/08/2022	08:04	-132.062	47.323	0	216.80	0	6.5490	0	33.8830	0	26.602	0	214.881	0	96.8	4	32.4	4	-1E+10	1	-1E+10	1	-1E+10	1	-1E+10	1	-1E+10	1	-1E+10	1
4902549	72	C	08/08/2022	08:04	-132.062	47.323	0	217.80	0	6.6120	0	33.8930	0	26.602	0	215.872	0	95.6	4	32.0	4	-1E+10	1	-1E+10	1	-1E+10	1	-1E+10	1	-1E+10	1	-1E+10	1
4902549	72	C	08/08/2022	08:04	-132.062	47.323	0	218.90	0	6.6180	0	33.9000	0	26.606	0	216.962	0	95.1	4	31.9	4	-1E+10	1	-1E+10	1	-1E+10	1	-1E+10	1	-1E+10	1	-1E+10	1
4902549	72	C	08/08/2022	08:04	-132.062	47.323	0	220.00	0	6.6110	0	33.9010	0	26.608	0	218.051	0	94.7	4	31.7	4	-1E+10	1	-1E+10	1	-1E+10	1	-1E+10	1	-1E+10	1	-1E+10	1
4902549	72	C	08/08/2022	08:04	-132.062	47.323	0	221.00	0	6.6030	0	33.8980	0	26.607	0	219.042	0	94.0	4	31.5	4	-1E+10	1	-1E+10	1	-1E+10	1	-1E+10	1	-1E+10	1	-1E+10	1
4902549	72	C	08/08/2022	08:04	-132.062	47.323	0	222.10	0	6.5640	0	33.8980	0	26.612	0	220.132	0	93.1	4	31.1	4	-1E+10	1	-1E+10	1	-1E+10	1	-1E+10	1	-1E+10	1	-1E+10	1
4902549	72	C	08/08/2022	08:04	-132.062	47.323	0	223.10	0	6.5780	0	33.8970	0	26.609	0	221.122	0	92.1	4	30.8	4	-1E+10	1	-1E+10	1	-1E+10	1	-1E+10	1	-1E+10	1	-1E+10	1
4902549	72	C	08/08/2022	08:04	-132.062	47.323	0	224.20	0	6.5930	0	33.9080	0	26.616	0	222.212	0	91.7	4	30.7	4	-1E+10	1	-1E+10	1	-1E+10	1	-1E+10	1	-1E+10	1	-1E+10	1
4902549	72	C	08/08/2022	08:04	-132.062	47.323	0	225.30	0	6.5700	0	33.9110	0	26.622	0	223.301	0	91.4	4	30.6	4	-1E+10	1	-1E+10	1	-1E+10	1	-1E+10	1	-1E+10	1	-1E+10	1
4902549	72	C	08/08/2022	08:04	-132.062	47.323	0	226.40	0	6.5630	0	33.9120	0	26.623	0	224.391	0	91.1	4	30.5	4	-1E+10	1	-1E+10	1	-1E+10	1	-1E+10	1	-1E+10	1	-1E+10	1
4902549	72	C	08/08/2022	08:04	-132.062	47.323	0	227.50	0	6.5490	0	33.9120	0	26.625	0	225.481	0	90.7	4	30.4	4	-1E+10	1	-1E+10	1	-1E+10	1	-1E+10	1	-1E+10	1	-1E+10	1
4902549	72	C	08/08/2022	08:04	-132.062	47.323	0	228.50	0	6.5420	0	33.9100	0	26.624	0	226.471	0	90.3	4	30.2	4	-1E+10	1	-1E+10	1	-1E+10	1	-1E+10	1	-1E+10	1	-1E+10	1
4902549	72	C	08/08/2022	08:04	-132.062	47.323	0	229.60	0	6.5430	0	33.9100	0	26.624	0	227.561	0	89.9	4	30.1	4	-1E+10	1	-1E+10	1	-1E+10	1	-1E+10	1	-1E+10	1	-1E+10	1
4902549	72	C	08/08/2022	08:04	-132.062	47.323	0	230.70	0	6.5370	0	33.9100	0	26.625	0	228.651	0	89.3	4	29.9	4	-1E+10	1	-1E+10	1	-1E+10	1	-1E+10	1	-1E+10	1	-1E+10	1
4902549	72	C	08/08/2022	08:04	-132.062	47.323	0	232.00	0	6.5250	0	33.9120	0	26.628	0	229.938	0	88.7	4	29.7	4	-1E+10	1	-1E+10	1	-1E+10	1	-1E+10	1	-1E+10	1	-1E+10	1
4902549	72	C	08/08/2022	08:04	-132.062	47.323	0	233.10	0	6.5040	0	33.9130	0	26.632	0	231.028	0	88.3	4	29.5	4	-1E+10	1	-1E+10	1	-1E+10	1	-1E+10	1	-1E+10	1	-1E+10	1
4902549	72	C	08/08/2022	08:04	-132.062	47.323	0	234.10	0	6.4780	0	33.9120	0	26.635	0	232.018	0	87.8	4	29.3	4	-1E+10	1	-1E+10	1	-1E+10	1	-1E+10	1	-1E+10	1	-1E+10	1
4902549	72	C	08/08/2022	08:04	-132.062	47.323	0	235.30	0	6.4720	0	33.9160	0	26.638	0	233.207	0	87.3	4	29.1	4	-1E+10	1	-1E+10	1	-1E+10	1	-1E+10	1	-1E+10	1	-1E+10	1
4902549	72	C	08/08/2022	08:04	-132.062	47.323	0	236.30	0	6.4690	0	33.9160	0	26.639	0	234.198	0	86.8	4	29.0	4	-1E+10	1	-1E+10	1	-1E+10	1	-1E+10	1	-1E+10	1	-1E+10	1
4902549	72	C	08/08/2022	08:04	-132.062	47.323	0	237.40	0	6.4720	0	33.9180	0	26.640	0	235.287	0	86.3	4	28.8	4	-1E+10	1	-1E+10	1	-1E+10	1	-1E+10	1	-1E+10	1	-1E+10	1
4902549	72	C	08/08/2022	08:04	-132.062	47.323	0	238.50	0	6.4670	0	33.9170	0	26.640	0	236.377	0	85.7	4	28.6	4	-1E+10	1	-1E+10	1	-1E+10	1	-1E+10	1	-1E+10	1	-1E+10	1
4902549	72	C	08/08/2022	08:04	-132.062	47.323	0	239.60	0	6.4820	0	33.9210	0	26.641	0	237.466	0	85.2	4	28.5	4	-1E+10	1	-1E+10	1	-1E+10	1	-1E+10	1	-1E+10	1	-1E+10	1
4902549	72	C	08/08/2022	08:04	-132.062	47.323	0	240.80	0	6.4690	0	33.9230	0	26.644	0	238.655	0	84.9	4	28.3	4	-1E+10	1	-1E+10	1	-1E+10	1	-1E+10	1	-1E+10	1	-1E+10	1
4902549	72	C	08/08/2022	08:04	-132.062	47.323	0	241.80	0	6.4450	0	33.9230	0	26.648	0	239.646	0	84.5	4	28.2	4	-1E+10	1	-1E+10	1	-1E+10	1	-1E+10	1	-1E+10	1	-1E+10	1
4902549	72	C	08/08/2022	08:04	-132.062	47.323	0	243.00	0	6.4510	0	33.9240	0	26.648	0	240.834	0	84.2	4	28.1	4	-1E+10	1	-1E+10	1	-1E+10	1	-1E+10	1	-1E+10	1	-1E+10	1
4902549	72	C	08/08/2022	08:04	-132.062	47.323	0	244.00	0	6.4470	0	33.9250	0	26.649	0	241.825	0	84.0	4	28.0	4	-1E+10	1	-1E+10	1	-1E+10	1	-1E+10	1	-1E+10	1	-1E+10	1
4902549	72	C	08/08/2022	08:04	-132.062	47.323	0	245.20	0	6.4420	0	33.9260	0	26.650	0	243.013	0	83.8	4	28.0	4	-1E+10	1	-1E+10	1	-1E+10	1	-1E+10	1	-1E+10	1	-1E+10	1
4902549	72	C	08/08/2022	08:04	-132.062	47.323	0	246.20	0	6.4340	0	33.9260	0	26.651	0	244.004	0	83.6	4	27.9	4	-1E+10	1	-1E+10	1	-1E+10	1	-1E+10	1	-1E+10	1	-1E+10	1
4902549	72	C	08/08/2022	08:04	-132.062	47.323	0	247.30	0	6.4100	0	33.9320	0	26.659	0	245.093	0	83.5	4	27.8	4	-1E+10	1	-1E+10	1	-1E+10	1	-1E+10	1	-1E+10	1	-1E+10	1
4902549	72	C	08/08/2022	08:04	-132.062	47.323	0	248.90	0	6.3620	0	33.9240	0	26.659	0	246.678	0	83.1	4	27.7	4	-1E+10	1	-1E+10	1	-1E+10	1	-1E+10	1	-1E+10	1	-1E+10	1
4902549	72	C	08/08/2022	08:04	-132.062	47.323	0	250.20	0	6.3400	0	33.9250	0	26.663	0	247.966	0	82.6	4	27.5	4	-1E+10	1	-1E+10	1	-1E+10	1	-1E+10	1	-1E+10	1	-1E+10	1
4902549	72	C	08/08/2022	08:04	-132.062	47.323	0	251.00	0	6.3360	0	33.9260	0	26.664	0	248.758	0	82.3	4	27.4	4	-1E+10	1	-1E+10	1	-1E+10	1	-1E+10	1	-1E+10	1	-1E+10	1
4902549	72	C	08/08/2022	08:04	-132.062	47.323	0	251.80	0	6.3360	0	33.9270	0	26.665	0	249.550	0	82.0	4	27.3	4	-1E+10	1	-1E+10	1	-1E+10	1	-1E+10	1	-1E+10	1	-1E+10	1
4902549	72	C	08/08/2022	08:04	-132.062	47.323	0	252.70	0	6.3390	0	33.9310	0	26.668	0	250.442	0	81.8	4	27.2	4	-1E+10	1	-1E+10	1	-1E+10	1	-1E+10	1	-1E+10	1	-1E+10	1
4902549	72	C	08/08/2022	08:04	-132.062	47.323	0	253.90	0	6.3360	0	33.9320	0	26.669	0	251.630	0	81.7	4	27.2	4	-1E+10	1	-1E+10	1	-1E+10	1	-1E+10	1	-1E+10	1	-1E+10	1
4902549	72	C	08/08/2022	08:04	-132.062	47.323	0	255.20	0	6.3360	0	33.9320	0	26.669	0	252.918	0	81.8	4	27.2	4	-1E+10	1	-1E+10	1	-1E+10	1	-1E+10	1	-1E+10	1	-1E+10	1
4902549	72	C	08/08/2022	08:04	-132.062	47.323	0	256.00	0	6.3360	0	33.9330	0	26.670	0	253.710	0	81.9	4	27.3	4	-1E+10	1	-1E+10	1	-1E+10	1	-1E+10	1	-1E+10	1	-1E+10	1
4902549	72	C	08/08/2022	08:04	-132.062	47.323	0	256.80	0	6.3340	0	33.9330	0	26.670	0	254.503	0	82.0	4	27.3	4	-1E+10	1	-1E+10	1	-1E+10	1	-1E+10	1	-1E+10	1	-1E+10	1
4902549	72	C	08/08/2022	08:04	-132.062	47.323	0	258.00	0	6.3140	0	33.9300	0	26.670	0	255.691	0	82.2	4	27.4	4	-1E+10	1	-1E+10	1	-1E+10	1	-1E+10	1	-1E+10	1	-1E+10	1
4902549	72	C	08/08/2022	08:04	-132.062	47.323	0	259.20	0	6.2890	0	33.9290	0	26.673	0	256.880	0	82.3	4	27.4	4	-1E+10	1	-1E+10	1	-1E+10	1	-1E+10	1	-1E+10	1	-1E+10	1
4902549	72	C	08/08/2022	08:04	-132.062	47.323	0	260.10	0	6.2820	0	33.9310	0	26.675	0	257.771	0	82.4	4	27.4	4	-1E+10	1	-1E+10	1	-1E+10	1	-1E+10	1	-1E+10	1	-1E+10	1
4902549	72	C	08/08/2022	08:04	-132.062	47.323	0	260.80	0	6.2220	0	33.9230	0	26.677	0	258.464	0	82.3	4	27.3	4	-1E+10	1	-1E+10	1	-1E+10	1	-1E+10	1	-1E+10	1	-1E+10	1
4902549	72	C	08/08/2022	08:04	-132.062	47.323	0	261.70	0	6.1960	0	33.9260	0	26.682	0	259.356	0	81.9	4	27.2	4	-1E+10	1	-1E+10	1	-1E+10	1	-1E+10	1	-1E+10	1	-1E+10	1
4902549	72	C	08/08/2022	08:04	-132.062	47.323	0	262.90	0	6.1840	0	33.9230	0	26.681	0	260.544	0	81.1	4	26.9	4	-1E+10	1	-1E+10	1	-1E+10	1	-1E+10	1	-1E+10	1	-1E+10	1
4902549	72	C	08/08/2022	08:04	-132.062	47.323	0	264.10	0	6.2000	0	33.9260	0	26.682	0	261.733	0	80.5	4	26.7	4	-1E+10	1	-1E+10	1	-1E+10	1	-1E+10	1	-1E+10	1	-1E+10	1
4902549	72	C	08/08/2022	08:04	-132.062	47.323	0	264.90	0	6.1970	0	33.9280	0	26.684	0	262.525	0	80.2	4	26.6	4	-1E+10	1	-1E+10	1	-1E+10	1	-1E+10	1	-1E+10	1	-1E+10	1
4902549	72	C	08/08/2022	08:04	-132.062	47.323	0	265.80	0	6.1930	0	33.9280	0	26.684	0	263.416	0	79.9	4	26.5	4	-1E+10	1	-1E+10	1	-1E+10	1	-1E+10	1	-1E+10	1	-1E+10	1
4902549	72	C	08/08/2022	08:04	-132.062	47.323	0	267.00	0	6.1820	0	33.9270	0	26.685	0	264.605	0	79.2	4	26.3	4	-1E+10	1	-1E+10	1	-1E+10	1	-1E+10	1	-1E+10	1	-1E+10	1
4902549	72	C	08/08/2022	08:04	-132.062	47.323	0	268.30	0	6.1750	0	33.9260	0	26.685	0	265.892	0	78.2	4	25.9	4	-1E+10	1	-1E+10	1	-1E+10	1	-1E+10	1	-1E+10	1	-1E+10	1
4902549	72	C	08/08/2022	08:04	-132.062	47.323	0	269.10	0	6.1740	0	33.9270	0	26.686	0	266.685	0	77.5	4	25.7	4	-1E+10	1	-1E+10	1	-1E+10	1	-1E+10	1	-1E+10	1	-1E+10	1
4902549	72	C	08/08/2022	08:04	-132.062	47.323	0	270.00	0	6.1880	0	33.9300	0	26.686	0	267.576	0	76.8	4	25.5	4	-1E+10	1	-1E+10	1	-1E+10	1	-1E+10	1	-1E+10	1	-1E+10	1
4902549	72	C	08/08/2022	08:04	-132.062	47.323	0	270.80	0	6.2070	0	33.9350	0	26.688	0	268.368	0	76.5	4	25.4	4	-1E+10	1	-1E+10	1	-1E+10	1	-1E+10	1	-1E+10	1	-1E+10	1
4902549	72	C	08/08/2022	08:04	-132.062	47.323	0	271.70	0	6.2090	0	33.9390	0	26.691	0	269.260	0	76.3	4	25.3	4	-1E+10	1	-1E+10	1	-1E+10	1	-1E+10	1	-1E+10	1	-1E+10	1
4902549	72	C	08/08/2022	08:04	-132.062	47.323	0	272.90	0	6.2040	0	33.9380	0	26.691	0	270.448	0	76.1	4	25.3	4	-1E+10	1	-1E+10	1	-1E+10	1	-1E+10	1	-1E+10	1	-1E+10	1
4902549	72	C	08/08/2022	08:04	-132.062	47.323	0	274.20	0	6.2000	0	33.9390	0	26.692	0	271.736	0	75.9	4	25.2	4	-1E+10	1	-1E+10	1	-1E+10	1	-1E+10	1	-1E+10	1	-1E+10	1
4902549	72	C	08/08/2022	08:04	-132.062	47.323	0	275.10	0	6.2000	0	33.9390	0	26.692	0	272.627	0	75.7	4	25.1	4	-1E+10	1	-1E+10	1	-1E+10	1	-1E+10	1	-1E+10	1	-1E+10	1
4902549	72	C	08/08/2022	08:04	-132.062	47.323	0	275.90	0	6.1960	0	33.9400	0	26.693	0	273.419	0	75.5	4	25.1	4	-1E+10	1	-1E+10	1	-1E+10	1	-1E+10	1	-1E+10	1	-1E+10	1
4902549	72	C	08/08/2022	08:04	-132.062	47.323	0	276.80	0	6.1890	0	33.9400	0	26.694	0	274.311	0	75.4	4	25.0	4	-1E+10	1	-1E+10	1	-1E+10	1	-1E+10	1	-1E+10	1	-1E+10	1
4902549	72	C	08/08/2022	08:04	-132.062	47.323	0	277.70	0	6.1760	0	33.9420	0	26.698	0	275.202	0	75.3	4	25.0	4	-1E+10	1	-1E+10	1	-1E+10	1	-1E+10	1	-1E+10	1	-1E+10	1
4902549	72	C	08/08/2022	08:04	-132.062	47.323	0	278.60	0	6.1610	0	33.9390	0	26.697	0	276.093	0	75.0	4	24.9	4	-1E+10	1	-1E+10	1	-1E+10	1	-1E+10	1	-1E+10	1	-1E+10	1
4902549	72	C	08/08/2022	08:04	-132.062	47.323	0	279.90	0	6.1290	0	33.9390	0	26.701	0	277.381	0	74.6	4	24.7	4	-1E+10	1	-1E+10	1	-1E+10	1	-1E+10	1	-1E+10	1	-1E+10	1
4902549	72	C	08/08/2022	08:04	-132.062	47.323	0	281.30	0	6.1060	0	33.9390	0	26.704	0	278.767	0	74.2	4	24.6	4	-1E+10	1	-1E+10	1	-1E+10	1	-1E+10	1	-1E+10	1	-1E+10	1
4902549	72	C	08/08/2022	08:04	-132.062	47.323	0	282.10	0	6.1070	0	33.9390	0	26.704	0	279.559	0	73.8	4	24.4	4	-1E+10	1	-1E+10	1	-1E+10	1	-1E+10	1	-1E+10	1	-1E+10	1
4902549	72	C	08/08/2022	08:04	-132.062	47.323	0	283.00	0	6.0790	0	33.9390	0	26.708	0	280.451	0	73.5	4	24.3	4	-1E+10	1	-1E+10	1	-1E+10	1	-1E+10	1	-1E+10	1	-1E+10	1
4902549	72	C	08/08/2022	08:04	-132.062	47.323	0	283.90	0	6.0760	0	33.9390	0	26.708	0	281.342	0	73.0	4	24.2	4	-1E+10	1	-1E+10	1	-1E+10	1	-1E+10	1	-1E+10	1	-1E+10	1
4902549	72	C	08/08/2022	08:04	-132.062	47.323	0	284.80	0	6.0750	0	33.9420	0	26.710	0	282.233	0	72.6	4	24.0	4	-1E+10	1	-1E+10	1	-1E+10	1	-1E+10	1	-1E+10	1	-1E+10	1
4902549	72	C	08/08/2022	08:04	-132.062	47.323	0	285.70	0	6.0740	0	33.9420	0	26.711	0	283.124	0	72.3	4	23.9	4	-1E+10	1	-1E+10	1	-1E+10	1	-1E+10	1	-1E+10	1	-1E+10	1
4902549	72	C	08/08/2022	08:04	-132.062	47.323	0	286.60	0	6.0760	0	33.9420	0	26.710	0	284.016	0	71.9	4	23.8	4	-1E+10	1	-1E+10	1	-1E+10	1	-1E+10	1	-1E+10	1	-1E+10	1
4902549	72	C	08/08/2022	08:04	-132.062	47.323	0	287.90	0	6.0760	0	33.9440	0	26.712	0	285.303	0	71.4	4	23.6	4	-1E+10	1	-1E+10	1	-1E+10	1	-1E+10	1	-1E+10	1	-1E+10	1
4902549	72	C	08/08/2022	08:04	-132.062	47.323	0	289.30	0	6.0710	0	33.9450	0	26.713	0	286.689	0	70.9	4	23.5	4	-1E+10	1	-1E+10	1	-1E+10	1	-1E+10	1	-1E+10	1	-1E+10	1
4902549	72	C	08/08/2022	08:04	-132.062	47.323	0	290.10	0	6.0650	0	33.9450	0	26.714	0	287.482	0	70.6	4	23.4	4	-1E+10	1	-1E+10	1	-1E+10	1	-1E+10	1	-1E+10	1	-1E+10	1
4902549	72	C	08/08/2022	08:04	-132.062	47.323	0	291.00	0	6.0600	0	33.9450	0	26.715	0	288.373	0	70.2	4	23.2	4	-1E+10	1	-1E+10	1	-1E+10	1	-1E+10	1	-1E+10	1	-1E+10	1
4902549	72	C	08/08/2022	08:04	-132.062	47.323	0	291.90	0	6.0540	0	33.9460	0	26.716	0	289.264	0	69.9	4	23.1	4	-1E+10	1	-1E+10	1	-1E+10	1	-1E+10	1	-1E+10	1	-1E+10	1
4902549	72	C	08/08/2022	08:04	-132.062	47.323	0	292.80	0	6.0430	0	33.9470	0	26.718	0	290.155	0	69.6	4	23.0	4	-1E+10	1	-1E+10	1	-1E+10	1	-1E+10	1	-1E+10	1	-1E+10	1
4902549	72	C	08/08/2022	08:04	-132.062	47.323	0	293.70	0	6.0310	0	33.9490	0	26.722	0	291.047	0	69.3	4	22.9	4	-1E+10	1	-1E+10	1	-1E+10	1	-1E+10	1	-1E+10	1	-1E+10	1
4902549	72	C	08/08/2022	08:04	-132.062	47.323	0	294.60	0	6.0210	0	33.9490	0	26.723	0	291.938	0	69.0	4	22.8	4	-1E+10	1	-1E+10	1	-1E+10	1	-1E+10	1	-1E+10	1	-1E+10	1
4902549	72	C	08/08/2022	08:04	-132.062	47.323	0	295.90	0	6.0080	0	33.9500	0	26.725	0	293.225	0	68.6	4	22.7	4	-1E+10	1	-1E+10	1	-1E+10	1	-1E+10	1	-1E+10	1	-1E+10	1
4902549	72	C	08/08/2022	08:04	-132.062	47.323	0	297.30	0	6.0020	0	33.9500	0	26.726	0	294.612	0	68.2	4	22.5	4	-1E+10	1	-1E+10	1	-1E+10	1	-1E+10	1	-1E+10	1	-1E+10	1
4902549	72	C	08/08/2022	08:04	-132.062	47.323	0	298.20	0	5.9910	0	33.9510	0	26.728	0	295.503	0	68.0	4	22.5	4	-1E+10	1	-1E+10	1	-1E+10	1	-1E+10	1	-1E+10	1	-1E+10	1
4902549	72	C	08/08/2022	08:04	-132.062	47.323	0	299.10	0	5.9840	0	33.9520	0	26.730	0	296.394	0	67.6	4	22.3	4	-1E+10	1	-1E+10	1	-1E+10	1	-1E+10	1	-1E+10	1	-1E+10	1
4902549	72	C	08/08/2022	08:04	-132.062	47.323	0	300.00	0	5.9770	0	33.9520	0	26.731	0	297.285	0	67.4	4	22.3	4	-1E+10	1	-1E+10	1	-1E+10	1	-1E+10	1	-1E+10	1	-1E+10	1
4902549	72	C	08/08/2022	08:04	-132.062	47.323	0	300.90	0	5.9690	0	33.9540	0	26.733	0	298.176	0	67.2	4	22.2	4	-1E+10	1	-1E+10	1	-1E+10	1	-1E+10	1	-1E+10	1	-1E+10	1
4902549	72	C	08/08/2022	08:04	-132.062	47.323	0	301.80	0	5.9560	0	33.9570	0	26.737	0	299.068	0	67.1	4	22.1	4	-1E+10	1	-1E+10	1	-1E+10	1	-1E+10	1	-1E+10	1	-1E+10	1
4902549	72	C	08/08/2022	08:04	-132.062	47.323	0	302.70	0	5.9420	0	33.9550	0	26.738	0	299.959	0	66.9	4	22.1	4	-1E+10	1	-1E+10	1	-1E+10	1	-1E+10	1	-1E+10	1	-1E+10	1
4902549	72	C	08/08/2022	08:04	-132.062	47.323	0	303.70	0	5.9360	0	33.9540	0	26.737	0	300.949	0	66.7	4	22.0	4	-1E+10	1	-1E+10	1	-1E+10	1	-1E+10	1	-1E+10	1	-1E+10	1
4902549	72	C	08/08/2022	08:04	-132.062	47.323	0	304.60	0	5.9330	0	33.9540	0	26.738	0	301.840	0	66.6	4	22.0	4	-1E+10	1	-1E+10	1	-1E+10	1	-1E+10	1	-1E+10	1	-1E+10	1
4902549	72	C	08/08/2022	08:04	-132.062	47.323	0	305.90	0	5.9290	0	33.9550	0	26.739	0	303.128	0	66.2	4	21.8	4	-1E+10	1	-1E+10	1	-1E+10	1	-1E+10	1	-1E+10	1	-1E+10	1
4902549	72	C	08/08/2022	08:04	-132.062	47.323	0	307.30	0	5.9270	0	33.9550	0	26.739	0	304.514	0	65.9	4	21.7	4	-1E+10	1	-1E+10	1	-1E+10	1	-1E+10	1	-1E+10	1	-1E+10	1
4902549	72	C	08/08/2022	08:04	-132.062	47.323	0	308.20	0	5.9200	0	33.9560	0	26.741	0	305.405	0	65.6	4	21.6	4	-1E+10	1	-1E+10	1	-1E+10	1	-1E+10	1	-1E+10	1	-1E+10	1
4902549	72	C	08/08/2022	08:04	-132.062	47.323	0	309.10	0	5.9100	0	33.9540	0	26.741	0	306.296	0	65.4	4	21.6	4	-1E+10	1	-1E+10	1	-1E+10	1	-1E+10	1	-1E+10	1	-1E+10	1
4902549	72	C	08/08/2022	08:04	-132.062	47.323	0	310.00	0	5.8930	0	33.9550	0	26.744	0	307.187	0	65.2	4	21.5	4	-1E+10	1	-1E+10	1	-1E+10	1	-1E+10	1	-1E+10	1	-1E+10	1
4902549	72	C	08/08/2022	08:04	-132.062	47.323	0	310.90	0	5.8730	0	33.9560	0	26.747	0	308.078	0	64.9	4	21.4	4	-1E+10	1	-1E+10	1	-1E+10	1	-1E+10	1	-1E+10	1	-1E+10	1
4902549	72	C	08/08/2022	08:04	-132.062	47.323	0	311.80	0	5.8670	0	33.9560	0	26.748	0	308.970	0	64.6	4	21.3	4	-1E+10	1	-1E+10	1	-1E+10	1	-1E+10	1	-1E+10	1	-1E+10	1
4902549	72	C	08/08/2022	08:04	-132.062	47.323	0	312.70	0	5.8630	0	33.9560	0	26.748	0	309.861	0	64.2	4	21.2	4	-1E+10	1	-1E+10	1	-1E+10	1	-1E+10	1	-1E+10	1	-1E+10	1
4902549	72	C	08/08/2022	08:04	-132.062	47.323	0	313.60	0	5.8630	0	33.9560	0	26.748	0	310.752	0	63.8	4	21.0	4	-1E+10	1	-1E+10	1	-1E+10	1	-1E+10	1	-1E+10	1	-1E+10	1
4902549	72	C	08/08/2022	08:04	-132.062	47.323	0	314.90	0	5.8620	0	33.9580	0	26.750	0	312.039	0	63.3	4	20.9	4	-1E+10	1	-1E+10	1	-1E+10	1	-1E+10	1	-1E+10	1	-1E+10	1
4902549	72	C	08/08/2022	08:04	-132.062	47.323	0	316.30	0	5.8600	0	33.9600	0	26.752	0	313.425	0	62.8	4	20.7	4	-1E+10	1	-1E+10	1	-1E+10	1	-1E+10	1	-1E+10	1	-1E+10	1
4902549	72	C	08/08/2022	08:04	-132.062	47.323	0	317.20	0	5.8610	0	33.9610	0	26.752	0	314.317	0	62.5	4	20.6	4	-1E+10	1	-1E+10	1	-1E+10	1	-1E+10	1	-1E+10	1	-1E+10	1
4902549	72	C	08/08/2022	08:04	-132.062	47.323	0	318.10	0	5.8540	0	33.9630	0	26.755	0	315.208	0	62.3	4	20.5	4	-1E+10	1	-1E+10	1	-1E+10	1	-1E+10	1	-1E+10	1	-1E+10	1
4902549	72	C	08/08/2022	08:04	-132.062	47.323	0	319.00	0	5.8500	0	33.9620	0	26.755	0	316.099	0	62.1	4	20.4	4	-1E+10	1	-1E+10	1	-1E+10	1	-1E+10	1	-1E+10	1	-1E+10	1
4902549	72	C	08/08/2022	08:04	-132.062	47.323	0	319.90	0	5.8370	0	33.9670	0	26.760	0	316.990	0	61.7	4	20.3	4	-1E+10	1	-1E+10	1	-1E+10	1	-1E+10	1	-1E+10	1	-1E+10	1
4902549	72	C	08/08/2022	08:04	-132.062	47.323	0	320.80	0	5.8320	0	33.9630	0	26.758	0	317.881	0	61.5	4	20.2	4	-1E+10	1	-1E+10	1	-1E+10	1	-1E+10	1	-1E+10	1	-1E+10	1
4902549	72	C	08/08/2022	08:04	-132.062	47.323	0	321.70	0	5.8310	0	33.9630	0	26.758	0	318.772	0	61.1	4	20.1	4	-1E+10	1	-1E+10	1	-1E+10	1	-1E+10	1	-1E+10	1	-1E+10	1
4902549	72	C	08/08/2022	08:04	-132.062	47.323	0	322.60	0	5.8240	0	33.9630	0	26.759	0	319.663	0	60.8	4	20.0	4	-1E+10	1	-1E+10	1	-1E+10	1	-1E+10	1	-1E+10	1	-1E+10	1
4902549	72	C	08/08/2022	08:04	-132.062	47.323	0	323.50	0	5.8230	0	33.9630	0	26.759	0	320.554	0	60.4	4	19.9	4	-1E+10	1	-1E+10	1	-1E+10	1	-1E+10	1	-1E+10	1	-1E+10	1
4902549	72	C	08/08/2022	08:04	-132.062	47.323	0	324.90	0	5.7900	0	33.9680	0	26.767	0	321.941	0	60.0	4	19.7	4	-1E+10	1	-1E+10	1	-1E+10	1	-1E+10	1	-1E+10	1	-1E+10	1
4902549	72	C	08/08/2022	08:04	-132.062	47.323	0	326.30	0	5.7760	0	33.9680	0	26.769	0	323.327	0	59.7	4	19.6	4	-1E+10	1	-1E+10	1	-1E+10	1	-1E+10	1	-1E+10	1	-1E+10	1
4902549	72	C	08/08/2022	08:04	-132.062	47.323	0	327.20	0	5.7730	0	33.9680	0	26.769	0	324.218	0	59.5	4	19.6	4	-1E+10	1	-1E+10	1	-1E+10	1	-1E+10	1	-1E+10	1	-1E+10	1
4902549	72	C	08/08/2022	08:04	-132.062	47.323	0	328.10	0	5.7690	0	33.9680	0	26.769	0	325.109	0	59.2	4	19.5	4	-1E+10	1	-1E+10	1	-1E+10	1	-1E+10	1	-1E+10	1	-1E+10	1
4902549	72	C	08/08/2022	08:04	-132.062	47.323	0	329.10	0	5.7670	0	33.9690	0	26.770	0	326.099	0	58.9	4	19.4	4	-1E+10	1	-1E+10	1	-1E+10	1	-1E+10	1	-1E+10	1	-1E+10	1
4902549	72	C	08/08/2022	08:04	-132.062	47.323	0	330.00	0	5.7650	0	33.9690	0	26.771	0	326.990	0	58.6	4	19.3	4	-1E+10	1	-1E+10	1	-1E+10	1	-1E+10	1	-1E+10	1	-1E+10	1
4902549	72	C	08/08/2022	08:04	-132.062	47.323	0	331.00	0	5.7620	0	33.9700	0	26.772	0	327.980	0	58.4	4	19.2	4	-1E+10	1	-1E+10	1	-1E+10	1	-1E+10	1	-1E+10	1	-1E+10	1
4902549	72	C	08/08/2022	08:04	-132.062	47.323	0	331.90	0	5.7560	0	33.9690	0	26.772	0	328.871	0	58.0	4	19.1	4	-1E+10	1	-1E+10	1	-1E+10	1	-1E+10	1	-1E+10	1	-1E+10	1
4902549	72	C	08/08/2022	08:04	-132.062	47.323	0	332.80	0	5.7530	0	33.9710	0	26.774	0	329.762	0	57.8	4	19.0	4	-1E+10	1	-1E+10	1	-1E+10	1	-1E+10	1	-1E+10	1	-1E+10	1
4902549	72	C	08/08/2022	08:04	-132.062	47.323	0	333.80	0	5.7510	0	33.9710	0	26.774	0	330.752	0	57.5	4	18.9	4	-1E+10	1	-1E+10	1	-1E+10	1	-1E+10	1	-1E+10	1	-1E+10	1
4902549	72	C	08/08/2022	08:04	-132.062	47.323	0	334.70	0	5.7460	0	33.9710	0	26.775	0	331.643	0	57.2	4	18.8	4	-1E+10	1	-1E+10	1	-1E+10	1	-1E+10	1	-1E+10	1	-1E+10	1
4902549	72	C	08/08/2022	08:04	-132.062	47.323	0	335.70	0	5.7380	0	33.9720	0	26.776	0	332.634	0	56.9	4	18.7	4	-1E+10	1	-1E+10	1	-1E+10	1	-1E+10	1	-1E+10	1	-1E+10	1
4902549	72	C	08/08/2022	08:04	-132.062	47.323	0	336.70	0	5.7290	0	33.9730	0	26.778	0	333.624	0	56.6	4	18.6	4	-1E+10	1	-1E+10	1	-1E+10	1	-1E+10	1	-1E+10	1	-1E+10	1
4902549	72	C	08/08/2022	08:04	-132.062	47.323	0	337.70	0	5.7140	0	33.9730	0	26.780	0	334.614	0	56.3	4	18.5	4	-1E+10	1	-1E+10	1	-1E+10	1	-1E+10	1	-1E+10	1	-1E+10	1
4902549	72	C	08/08/2022	08:04	-132.062	47.323	0	338.60	0	5.6940	0	33.9750	0	26.784	0	335.505	0	56.1	4	18.4	4	-1E+10	1	-1E+10	1	-1E+10	1	-1E+10	1	-1E+10	1	-1E+10	1
4902549	72	C	08/08/2022	08:04	-132.062	47.323	0	339.60	0	5.6870	0	33.9750	0	26.785	0	336.495	0	55.8	4	18.3	4	-1E+10	1	-1E+10	1	-1E+10	1	-1E+10	1	-1E+10	1	-1E+10	1
4902549	72	C	08/08/2022	08:04	-132.062	47.323	0	340.60	0	5.6710	0	33.9730	0	26.785	0	337.485	0	55.6	4	18.2	4	-1E+10	1	-1E+10	1	-1E+10	1	-1E+10	1	-1E+10	1	-1E+10	1
4902549	72	C	08/08/2022	08:04	-132.062	47.323	0	341.60	0	5.6610	0	33.9760	0	26.789	0	338.475	0	55.3	4	18.1	4	-1E+10	1	-1E+10	1	-1E+10	1	-1E+10	1	-1E+10	1	-1E+10	1
4902549	72	C	08/08/2022	08:04	-132.062	47.323	0	342.60	0	5.6610	0	33.9760	0	26.789	0	339.465	0	55.0	4	18.0	4	-1E+10	1	-1E+10	1	-1E+10	1	-1E+10	1	-1E+10	1	-1E+10	1
4902549	72	C	08/08/2022	08:04	-132.062	47.323	0	343.60	0	5.6620	0	33.9750	0	26.788	0	340.455	0	54.6	4	17.9	4	-1E+10	1	-1E+10	1	-1E+10	1	-1E+10	1	-1E+10	1	-1E+10	1
4902549	72	C	08/08/2022	08:04	-132.062	47.323	0	344.60	0	5.6600	0	33.9750	0	26.788	0	341.445	0	54.3	4	17.8	4	-1E+10	1	-1E+10	1	-1E+10	1	-1E+10	1	-1E+10	1	-1E+10	1
4902549	72	C	08/08/2022	08:04	-132.062	47.323	0	345.60	0	5.6530	0	33.9760	0	26.790	0	342.435	0	53.9	4	17.7	4	-1E+10	1	-1E+10	1	-1E+10	1	-1E+10	1	-1E+10	1	-1E+10	1
4902549	72	C	08/08/2022	08:04	-132.062	47.323	0	346.70	0	5.6370	0	33.9780	0	26.794	0	343.524	0	53.5	4	17.5	4	-1E+10	1	-1E+10	1	-1E+10	1	-1E+10	1	-1E+10	1	-1E+10	1
4902549	72	C	08/08/2022	08:04	-132.062	47.323	0	347.70	0	5.6260	0	33.9800	0	26.796	0	344.514	0	53.2	4	17.4	4	-1E+10	1	-1E+10	1	-1E+10	1	-1E+10	1	-1E+10	1	-1E+10	1
4902549	72	C	08/08/2022	08:04	-132.062	47.323	0	348.70	0	5.6210	0	33.9810	0	26.798	0	345.504	0	52.9	4	17.3	4	-1E+10	1	-1E+10	1	-1E+10	1	-1E+10	1	-1E+10	1	-1E+10	1
4902549	72	C	08/08/2022	08:04	-132.062	47.323	0	349.70	0	5.6160	0	33.9840	0	26.801	0	346.494	0	52.7	4	17.3	4	-1E+10	1	-1E+10	1	-1E+10	1	-1E+10	1	-1E+10	1	-1E+10	1
4902549	72	C	08/08/2022	08:04	-132.062	47.323	0	352.70	0	5.6060	0	33.9840	0	26.802	0	349.464	0	52.0	4	17.0	4	-1E+10	1	-1E+10	1	-1E+10	1	-1E+10	1	-1E+10	1	-1E+10	1
4902549	72	C	08/08/2022	08:04	-132.062	47.323	0	357.90	0	5.5840	0	33.9880	0	26.808	0	354.612	0	50.8	4	16.6	4	-1E+10	1	-1E+10	1	-1E+10	1	-1E+10	1	-1E+10	1	-1E+10	1
4902549	72	C	08/08/2022	08:04	-132.062	47.323	0	363.10	0	5.5510	0	33.9900	0	26.814	0	359.759	0	49.8	4	16.3	4	-1E+10	1	-1E+10	1	-1E+10	1	-1E+10	1	-1E+10	1	-1E+10	1
4902549	72	C	08/08/2022	08:04	-132.062	47.323	0	367.90	0	5.5260	0	33.9910	0	26.817	0	364.511	0	48.7	4	15.9	4	-1E+10	1	-1E+10	1	-1E+10	1	-1E+10	1	-1E+10	1	-1E+10	1
4902549	72	C	08/08/2022	08:04	-132.062	47.323	0	372.80	0	5.4920	0	33.9960	0	26.825	0	369.362	0	47.6	4	15.6	4	-1E+10	1	-1E+10	1	-1E+10	1	-1E+10	1	-1E+10	1	-1E+10	1
4902549	72	C	08/08/2022	08:04	-132.062	47.323	0	378.20	0	5.4640	0	33.9990	0	26.831	0	374.707	0	46.6	4	15.2	4	-1E+10	1	-1E+10	1	-1E+10	1	-1E+10	1	-1E+10	1	-1E+10	1
4902549	72	C	08/08/2022	08:04	-132.062	47.323	0	383.20	0	5.4420	0	34.0020	0	26.836	0	379.656	0	45.9	4	15.0	4	-1E+10	1	-1E+10	1	-1E+10	1	-1E+10	1	-1E+10	1	-1E+10	1
4902549	72	C	08/08/2022	08:04	-132.062	47.323	0	387.70	0	5.4160	0	34.0050	0	26.842	0	384.110	0	44.6	4	14.6	4	-1E+10	1	-1E+10	1	-1E+10	1	-1E+10	1	-1E+10	1	-1E+10	1
4902549	72	C	08/08/2022	08:04	-132.062	47.323	0	392.60	0	5.4040	0	34.0100	0	26.847	0	388.960	0	44.0	4	14.3	4	-1E+10	1	-1E+10	1	-1E+10	1	-1E+10	1	-1E+10	1	-1E+10	1
4902549	72	C	08/08/2022	08:04	-132.062	47.323	0	397.50	0	5.3910	0	34.0110	0	26.850	0	393.810	0	43.5	4	14.2	4	-1E+10	1	-1E+10	1	-1E+10	1	-1E+10	1	-1E+10	1	-1E+10	1
4902549	72	C	08/08/2022	08:04	-132.062	47.323	0	402.90	0	5.3710	0	34.0130	0	26.854	0	399.155	0	42.8	4	13.9	4	-1E+10	1	-1E+10	1	-1E+10	1	-1E+10	1	-1E+10	1	-1E+10	1
4902549	72	C	08/08/2022	08:04	-132.062	47.323	0	408.30	0	5.3410	0	34.0160	0	26.860	0	404.500	0	42.1	4	13.7	4	-1E+10	1	-1E+10	1	-1E+10	1	-1E+10	1	-1E+10	1	-1E+10	1
4902549	72	C	08/08/2022	08:04	-132.062	47.323	0	412.90	0	5.3280	0	34.0180	0	26.863	0	409.052	0	41.9	4	13.6	4	-1E+10	1	-1E+10	1	-1E+10	1	-1E+10	1	-1E+10	1	-1E+10	1
4902549	72	C	08/08/2022	08:04	-132.062	47.323	0	417.60	0	5.3250	0	34.0180	0	26.863	0	413.704	0	41.5	4	13.5	4	-1E+10	1	-1E+10	1	-1E+10	1	-1E+10	1	-1E+10	1	-1E+10	1
4902549	72	C	08/08/2022	08:04	-132.062	47.323	0	422.70	0	5.3040	0	34.0190	0	26.866	0	418.751	0	40.9	4	13.3	4	-1E+10	1	-1E+10	1	-1E+10	1	-1E+10	1	-1E+10	1	-1E+10	1
4902549	72	C	08/08/2022	08:04	-132.062	47.323	0	427.90	0	5.2810	0	34.0200	0	26.870	0	423.897	0	40.1	4	13.1	4	-1E+10	1	-1E+10	1	-1E+10	1	-1E+10	1	-1E+10	1	-1E+10	1
4902549	72	C	08/08/2022	08:04	-132.062	47.323	0	432.80	0	5.2380	0	34.0210	0	26.876	0	428.746	0	39.2	4	12.7	4	-1E+10	1	-1E+10	1	-1E+10	1	-1E+10	1	-1E+10	1	-1E+10	1
4902549	72	C	08/08/2022	08:04	-132.062	47.323	0	437.90	0	5.2140	0	34.0260	0	26.883	0	433.793	0	38.2	4	12.4	4	-1E+10	1	-1E+10	1	-1E+10	1	-1E+10	1	-1E+10	1	-1E+10	1
4902549	72	C	08/08/2022	08:04	-132.062	47.323	0	443.00	0	5.1720	0	34.0290	0	26.890	0	438.840	0	37.3	4	12.1	4	-1E+10	1	-1E+10	1	-1E+10	1	-1E+10	1	-1E+10	1	-1E+10	1
4902549	72	C	08/08/2022	08:04	-132.062	47.323	0	448.10	0	5.1450	0	34.0330	0	26.896	0	443.887	0	36.2	4	11.7	4	-1E+10	1	-1E+10	1	-1E+10	1	-1E+10	1	-1E+10	1	-1E+10	1
4902549	72	C	08/08/2022	08:04	-132.062	47.323	0	453.20	0	5.1240	0	34.0360	0	26.901	0	448.933	0	35.4	4	11.5	4	-1E+10	1	-1E+10	1	-1E+10	1	-1E+10	1	-1E+10	1	-1E+10	1
4902549	72	C	08/08/2022	08:04	-132.062	47.323	0	458.20	0	5.1080	0	34.0380	0	26.904	0	453.881	0	34.2	4	11.1	4	-1E+10	1	-1E+10	1	-1E+10	1	-1E+10	1	-1E+10	1	-1E+10	1
4902549	72	C	08/08/2022	08:04	-132.062	47.323	0	462.90	0	5.0910	0	34.0460	0	26.913	0	458.531	0	32.9	4	10.7	4	-1E+10	1	-1E+10	1	-1E+10	1	-1E+10	1	-1E+10	1	-1E+10	1
4902549	72	C	08/08/2022	08:04	-132.062	47.323	0	467.60	0	5.0500	0	34.0470	0	26.918	0	463.181	0	31.8	4	10.3	4	-1E+10	1	-1E+10	1	-1E+10	1	-1E+10	1	-1E+10	1	-1E+10	1
4902549	72	C	08/08/2022	08:04	-132.062	47.323	0	472.80	0	5.0090	0	34.0540	0	26.929	0	468.326	0	30.4	4	9.8	4	-1E+10	1	-1E+10	1	-1E+10	1	-1E+10	1	-1E+10	1	-1E+10	1
4902549	72	C	08/08/2022	08:04	-132.062	47.323	0	478.00	0	4.9590	0	34.0610	0	26.940	0	473.471	0	29.1	4	9.4	4	-1E+10	1	-1E+10	1	-1E+10	1	-1E+10	1	-1E+10	1	-1E+10	1
4902549	72	C	08/08/2022	08:04	-132.062	47.323	0	482.80	0	4.9530	0	34.0660	0	26.945	0	478.220	0	28.2	4	9.1	4	-1E+10	1	-1E+10	1	-1E+10	1	-1E+10	1	-1E+10	1	-1E+10	1
4902549	72	C	08/08/2022	08:04	-132.062	47.323	0	487.70	0	4.9450	0	34.0700	0	26.949	0	483.068	0	27.4	4	8.9	4	-1E+10	1	-1E+10	1	-1E+10	1	-1E+10	1	-1E+10	1	-1E+10	1
4902549	72	C	08/08/2022	08:04	-132.062	47.323	0	493.00	0	4.9270	0	34.0740	0	26.954	0	488.312	0	26.4	4	8.5	4	-1E+10	1	-1E+10	1	-1E+10	1	-1E+10	1	-1E+10	1	-1E+10	1
4902549	72	C	08/08/2022	08:04	-132.062	47.323	0	497.90	0	4.9010	0	34.0800	0	26.962	0	493.159	0	25.7	4	8.3	4	-1E+10	1	-1E+10	1	-1E+10	1	-1E+10	1	-1E+10	1	-1E+10	1
4902549	72	C	08/08/2022	08:04	-132.062	47.323	0	502.80	0	4.8780	0	34.0830	0	26.967	0	498.007	0	25.3	4	8.2	4	-1E+10	1	-1E+10	1	-1E+10	1	-1E+10	1	-1E+10	1	-1E+10	1
4902549	72	C	08/08/2022	08:04	-132.062	47.323	0	508.00	0	4.8590	0	34.0850	0	26.970	0	503.151	0	24.8	4	8.0	4	-1E+10	1	-1E+10	1	-1E+10	1	-1E+10	1	-1E+10	1	-1E+10	1
4902549	72	C	08/08/2022	08:04	-132.062	47.323	0	512.90	0	4.8510	0	34.0870	0	26.973	0	507.998	0	24.3	4	7.8	4	-1E+10	1	-1E+10	1	-1E+10	1	-1E+10	1	-1E+10	1	-1E+10	1
4902549	72	C	08/08/2022	08:04	-132.062	47.323	0	517.70	0	4.8420	0	34.0890	0	26.976	0	512.746	0	23.7	4	7.6	4	-1E+10	1	-1E+10	1	-1E+10	1	-1E+10	1	-1E+10	1	-1E+10	1
4902549	72	C	08/08/2022	08:04	-132.062	47.323	0	523.00	0	4.8150	0	34.0940	0	26.983	0	517.989	0	23.0	4	7.4	4	-1E+10	1	-1E+10	1	-1E+10	1	-1E+10	1	-1E+10	1	-1E+10	1
4902549	72	C	08/08/2022	08:04	-132.062	47.323	0	528.00	0	4.7920	0	34.0970	0	26.988	0	522.935	0	22.6	4	7.3	4	-1E+10	1	-1E+10	1	-1E+10	1	-1E+10	1	-1E+10	1	-1E+10	1
4902549	72	C	08/08/2022	08:04	-132.062	47.323	0	532.80	0	4.7830	0	34.0980	0	26.989	0	527.683	0	21.9	4	7.0	4	-1E+10	1	-1E+10	1	-1E+10	1	-1E+10	1	-1E+10	1	-1E+10	1
4902549	72	C	08/08/2022	08:04	-132.062	47.323	0	537.80	0	4.7620	0	34.1040	0	26.997	0	532.628	0	21.1	4	6.8	4	-1E+10	1	-1E+10	1	-1E+10	1	-1E+10	1	-1E+10	1	-1E+10	1
4902549	72	C	08/08/2022	08:04	-132.062	47.323	0	542.90	0	4.7530	0	34.1070	0	27.000	0	537.673	0	20.4	4	6.6	4	-1E+10	1	-1E+10	1	-1E+10	1	-1E+10	1	-1E+10	1	-1E+10	1
4902549	72	C	08/08/2022	08:04	-132.062	47.323	0	548.00	0	4.7350	0	34.1110	0	27.005	0	542.717	0	19.7	4	6.3	4	-1E+10	1	-1E+10	1	-1E+10	1	-1E+10	1	-1E+10	1	-1E+10	1
4902549	72	C	08/08/2022	08:04	-132.062	47.323	0	552.70	0	4.7210	0	34.1160	0	27.011	0	547.365	0	19.0	4	6.1	4	-1E+10	1	-1E+10	1	-1E+10	1	-1E+10	1	-1E+10	1	-1E+10	1
4902549	72	C	08/08/2022	08:04	-132.062	47.323	0	557.90	0	4.7010	0	34.1190	0	27.015	0	552.508	0	18.4	4	5.9	4	-1E+10	1	-1E+10	1	-1E+10	1	-1E+10	1	-1E+10	1	-1E+10	1
4902549	72	C	08/08/2022	08:04	-132.062	47.323	0	563.30	0	4.6750	0	34.1240	0	27.022	0	557.849	0	17.6	4	5.7	4	-1E+10	1	-1E+10	1	-1E+10	1	-1E+10	1	-1E+10	1	-1E+10	1
4902549	72	C	08/08/2022	08:04	-132.062	47.323	0	568.30	0	4.6360	0	34.1300	0	27.031	0	562.794	0	17.1	4	5.5	4	-1E+10	1	-1E+10	1	-1E+10	1	-1E+10	1	-1E+10	1	-1E+10	1
4902549	72	C	08/08/2022	08:04	-132.062	47.323	0	573.20	0	4.6200	0	34.1330	0	27.035	0	567.639	0	16.9	4	5.4	4	-1E+10	1	-1E+10	1	-1E+10	1	-1E+10	1	-1E+10	1	-1E+10	1
4902549	72	C	08/08/2022	08:04	-132.062	47.323	0	578.20	0	4.5960	0	34.1370	0	27.041	0	572.584	0	16.8	4	5.4	4	-1E+10	1	-1E+10	1	-1E+10	1	-1E+10	1	-1E+10	1	-1E+10	1
4902549	72	C	08/08/2022	08:04	-132.062	47.323	0	583.30	0	4.5670	0	34.1360	0	27.044	0	577.627	0	17.2	4	5.5	4	-1E+10	1	-1E+10	1	-1E+10	1	-1E+10	1	-1E+10	1	-1E+10	1
4902549	72	C	08/08/2022	08:04	-132.062	47.323	0	588.00	0	4.4890	0	34.1310	0	27.048	0	582.275	0	17.4	4	5.6	4	-1E+10	1	-1E+10	1	-1E+10	1	-1E+10	1	-1E+10	1	-1E+10	1
4902549	72	C	08/08/2022	08:04	-132.062	47.323	0	593.00	0	4.4210	0	34.1310	0	27.056	0	587.219	0	16.6	4	5.3	4	-1E+10	1	-1E+10	1	-1E+10	1	-1E+10	1	-1E+10	1	-1E+10	1
4902549	72	C	08/08/2022	08:04	-132.062	47.323	0	598.30	0	4.4080	0	34.1370	0	27.062	0	592.460	0	15.8	4	5.0	4	-1E+10	1	-1E+10	1	-1E+10	1	-1E+10	1	-1E+10	1	-1E+10	1
4902549	72	C	08/08/2022	08:04	-132.062	47.323	0	603.10	0	4.4300	0	34.1460	0	27.067	0	597.206	0	15.2	4	4.8	4	-1E+10	1	-1E+10	1	-1E+10	1	-1E+10	1	-1E+10	1	-1E+10	1
4902549	72	C	08/08/2022	08:04	-132.062	47.323	0	608.10	0	4.3920	0	34.1460	0	27.071	0	602.150	0	15.1	4	4.8	4	-1E+10	1	-1E+10	1	-1E+10	1	-1E+10	1	-1E+10	1	-1E+10	1
4902549	72	C	08/08/2022	08:04	-132.062	47.323	0	613.10	0	4.3760	0	34.1470	0	27.073	0	607.094	0	14.6	4	4.7	4	-1E+10	1	-1E+10	1	-1E+10	1	-1E+10	1	-1E+10	1	-1E+10	1
4902549	72	C	08/08/2022	08:04	-132.062	47.323	0	618.10	0	4.3650	0	34.1520	0	27.078	0	612.038	0	13.8	4	4.4	4	-1E+10	1	-1E+10	1	-1E+10	1	-1E+10	1	-1E+10	1	-1E+10	1
4902549	72	C	08/08/2022	08:04	-132.062	47.323	0	623.20	0	4.3430	0	34.1600	0	27.087	0	617.080	0	13.2	4	4.2	4	-1E+10	1	-1E+10	1	-1E+10	1	-1E+10	1	-1E+10	1	-1E+10	1
4902549	72	C	08/08/2022	08:04	-132.062	47.323	0	627.90	0	4.3370	0	34.1650	0	27.092	0	621.727	0	12.5	4	4.0	4	-1E+10	1	-1E+10	1	-1E+10	1	-1E+10	1	-1E+10	1	-1E+10	1
4902549	72	C	08/08/2022	08:04	-132.062	47.323	0	632.70	0	4.3350	0	34.1720	0	27.098	0	626.473	0	12.0	4	3.8	4	-1E+10	1	-1E+10	1	-1E+10	1	-1E+10	1	-1E+10	1	-1E+10	1
4902549	72	C	08/08/2022	08:04	-132.062	47.323	0	638.00	0	4.3340	0	34.1770	0	27.102	0	631.713	0	11.5	4	3.6	4	-1E+10	1	-1E+10	1	-1E+10	1	-1E+10	1	-1E+10	1	-1E+10	1
4902549	72	C	08/08/2022	08:04	-132.062	47.323	0	642.90	0	4.3180	0	34.1840	0	27.109	0	636.557	0	11.2	4	3.6	4	-1E+10	1	-1E+10	1	-1E+10	1	-1E+10	1	-1E+10	1	-1E+10	1
4902549	72	C	08/08/2022	08:04	-132.062	47.323	0	647.80	0	4.2960	0	34.1870	0	27.114	0	641.401	0	11.2	4	3.6	4	-1E+10	1	-1E+10	1	-1E+10	1	-1E+10	1	-1E+10	1	-1E+10	1
4902549	72	C	08/08/2022	08:04	-132.062	47.323	0	652.80	0	4.2620	0	34.1860	0	27.117	0	646.344	0	11.0	4	3.5	4	-1E+10	1	-1E+10	1	-1E+10	1	-1E+10	1	-1E+10	1	-1E+10	1
4902549	72	C	08/08/2022	08:04	-132.062	47.323	0	657.90	0	4.2460	0	34.1880	0	27.120	0	651.385	0	10.8	4	3.4	4	-1E+10	1	-1E+10	1	-1E+10	1	-1E+10	1	-1E+10	1	-1E+10	1
4902549	72	C	08/08/2022	08:04	-132.062	47.323	0	663.00	0	4.2150	0	34.1910	0	27.126	0	656.427	0	10.5	4	3.3	4	-1E+10	1	-1E+10	1	-1E+10	1	-1E+10	1	-1E+10	1	-1E+10	1
4902549	72	C	08/08/2022	08:04	-132.062	47.323	0	667.70	0	4.2030	0	34.1940	0	27.129	0	661.073	0	10.1	4	3.2	4	-1E+10	1	-1E+10	1	-1E+10	1	-1E+10	1	-1E+10	1	-1E+10	1
4902549	72	C	08/08/2022	08:04	-132.062	47.323	0	672.90	0	4.1990	0	34.2000	0	27.134	0	666.213	0	9.8	4	3.1	4	-1E+10	1	-1E+10	1	-1E+10	1	-1E+10	1	-1E+10	1	-1E+10	1
4902549	72	C	08/08/2022	08:04	-132.062	47.323	0	678.10	0	4.1880	0	34.2040	0	27.139	0	671.353	0	9.5	4	3.0	4	-1E+10	1	-1E+10	1	-1E+10	1	-1E+10	1	-1E+10	1	-1E+10	1
4902549	72	C	08/08/2022	08:04	-132.062	47.323	0	682.80	0	4.1600	0	34.2070	0	27.144	0	675.998	0	9.3	4	2.9	4	-1E+10	1	-1E+10	1	-1E+10	1	-1E+10	1	-1E+10	1	-1E+10	1
4902549	72	C	08/08/2022	08:04	-132.062	47.323	0	687.60	0	4.1480	0	34.2110	0	27.149	0	680.743	0	9.0	4	2.9	4	-1E+10	1	-1E+10	1	-1E+10	1	-1E+10	1	-1E+10	1	-1E+10	1
4902549	72	C	08/08/2022	08:04	-132.062	47.323	0	692.90	0	4.1410	0	34.2140	0	27.152	0	685.981	0	8.9	4	2.8	4	-1E+10	1	-1E+10	1	-1E+10	1	-1E+10	1	-1E+10	1	-1E+10	1
4902549	72	C	08/08/2022	08:04	-132.062	47.323	0	698.20	0	4.1230	0	34.2160	0	27.155	0	691.219	0	8.7	4	2.8	4	-1E+10	1	-1E+10	1	-1E+10	1	-1E+10	1	-1E+10	1	-1E+10	1
4902549	72	C	08/08/2022	08:04	-132.062	47.323	0	703.00	0	4.1150	0	34.2180	0	27.158	0	695.963	0	8.6	4	2.7	4	-1E+10	1	-1E+10	1	-1E+10	1	-1E+10	1	-1E+10	1	-1E+10	1
4902549	72	C	08/08/2022	08:04	-132.062	47.323	0	707.80	0	4.1030	0	34.2210	0	27.161	0	700.707	0	8.4	4	2.6	4	-1E+10	1	-1E+10	1	-1E+10	1	-1E+10	1	-1E+10	1	-1E+10	1
4902549	72	C	08/08/2022	08:04	-132.062	47.323	0	712.60	0	4.0960	0	34.2250	0	27.165	0	705.451	0	8.2	4	2.6	4	-1E+10	1	-1E+10	1	-1E+10	1	-1E+10	1	-1E+10	1	-1E+10	1
4902549	72	C	08/08/2022	08:04	-132.062	47.323	0	717.80	0	4.0920	0	34.2270	0	27.167	0	710.590	0	8.1	4	2.6	4	-1E+10	1	-1E+10	1	-1E+10	1	-1E+10	1	-1E+10	1	-1E+10	1
4902549	72	C	08/08/2022	08:04	-132.062	47.323	0	723.10	0	4.0880	0	34.2290	0	27.169	0	715.828	0	7.9	4	2.5	4	-1E+10	1	-1E+10	1	-1E+10	1	-1E+10	1	-1E+10	1	-1E+10	1
4902549	72	C	08/08/2022	08:04	-132.062	47.323	0	727.80	0	4.0690	0	34.2320	0	27.174	0	720.472	0	7.8	4	2.5	4	-1E+10	1	-1E+10	1	-1E+10	1	-1E+10	1	-1E+10	1	-1E+10	1
4902549	72	C	08/08/2022	08:04	-132.062	47.323	0	733.00	0	4.0430	0	34.2360	0	27.180	0	725.611	0	7.6	4	2.4	4	-1E+10	1	-1E+10	1	-1E+10	1	-1E+10	1	-1E+10	1	-1E+10	1
4902549	72	C	08/08/2022	08:04	-132.062	47.323	0	738.20	0	4.0250	0	34.2400	0	27.185	0	730.750	0	7.4	4	2.3	4	-1E+10	1	-1E+10	1	-1E+10	1	-1E+10	1	-1E+10	1	-1E+10	1
4902549	72	C	08/08/2022	08:04	-132.062	47.323	0	743.00	0	4.0170	0	34.2420	0	27.187	0	735.493	0	7.2	4	2.3	4	-1E+10	1	-1E+10	1	-1E+10	1	-1E+10	1	-1E+10	1	-1E+10	1
4902549	72	C	08/08/2022	08:04	-132.062	47.323	0	747.70	0	4.0040	0	34.2470	0	27.192	0	740.137	0	6.9	4	2.2	4	-1E+10	1	-1E+10	1	-1E+10	1	-1E+10	1	-1E+10	1	-1E+10	1
4902549	72	C	08/08/2022	08:04	-132.062	47.323	0	753.00	0	3.9930	0	34.2550	0	27.200	0	745.374	0	6.7	4	2.1	4	-1E+10	1	-1E+10	1	-1E+10	1	-1E+10	1	-1E+10	1	-1E+10	1
4902549	72	C	08/08/2022	08:04	-132.062	47.323	0	758.30	0	3.9940	0	34.2580	0	27.202	0	750.610	0	6.6	4	2.1	4	-1E+10	1	-1E+10	1	-1E+10	1	-1E+10	1	-1E+10	1	-1E+10	1
4902549	72	C	08/08/2022	08:04	-132.062	47.323	0	763.10	0	3.9850	0	34.2610	0	27.206	0	755.353	0	6.5	4	2.1	4	-1E+10	1	-1E+10	1	-1E+10	1	-1E+10	1	-1E+10	1	-1E+10	1
4902549	72	C	08/08/2022	08:04	-132.062	47.323	0	767.90	0	3.9730	0	34.2670	0	27.212	0	760.096	0	6.5	4	2.1	4	-1E+10	1	-1E+10	1	-1E+10	1	-1E+10	1	-1E+10	1	-1E+10	1
4902549	72	C	08/08/2022	08:04	-132.062	47.323	0	772.70	0	3.9430	0	34.2680	0	27.216	0	764.838	0	6.6	4	2.1	4	-1E+10	1	-1E+10	1	-1E+10	1	-1E+10	1	-1E+10	1	-1E+10	1
4902549	72	C	08/08/2022	08:04	-132.062	47.323	0	777.60	0	3.9370	0	34.2700	0	27.218	0	769.679	0	6.6	4	2.1	4	-1E+10	1	-1E+10	1	-1E+10	1	-1E+10	1	-1E+10	1	-1E+10	1
4902549	72	C	08/08/2022	08:04	-132.062	47.323	0	782.60	0	3.9170	0	34.2710	0	27.221	0	774.619	0	6.5	4	2.1	4	-1E+10	1	-1E+10	1	-1E+10	1	-1E+10	1	-1E+10	1	-1E+10	1
4902549	72	C	08/08/2022	08:04	-132.062	47.323	0	787.60	0	3.9330	0	34.2740	0	27.221	0	779.559	0	6.4	4	2.0	4	-1E+10	1	-1E+10	1	-1E+10	1	-1E+10	1	-1E+10	1	-1E+10	1
4902549	72	C	08/08/2022	08:04	-132.062	47.323	0	792.60	0	3.9210	0	34.2780	0	27.226	0	784.498	0	6.6	4	2.1	4	-1E+10	1	-1E+10	1	-1E+10	1	-1E+10	1	-1E+10	1	-1E+10	1
4902549	72	C	08/08/2022	08:04	-132.062	47.323	0	797.70	0	3.8580	0	34.2750	0	27.230	0	789.537	0	6.7	4	2.1	4	-1E+10	1	-1E+10	1	-1E+10	1	-1E+10	1	-1E+10	1	-1E+10	1
4902549	72	C	08/08/2022	08:04	-132.062	47.323	0	803.00	0	3.8440	0	34.2770	0	27.233	0	794.772	0	6.7	4	2.1	4	-1E+10	1	-1E+10	1	-1E+10	1	-1E+10	1	-1E+10	1	-1E+10	1
4902549	72	C	08/08/2022	08:04	-132.062	47.323	0	807.90	0	3.8150	0	34.2780	0	27.237	0	799.613	0	6.7	4	2.1	4	-1E+10	1	-1E+10	1	-1E+10	1	-1E+10	1	-1E+10	1	-1E+10	1
4902549	72	C	08/08/2022	08:04	-132.062	47.323	0	812.90	0	3.8100	0	34.2800	0	27.239	0	804.552	0	6.7	4	2.1	4	-1E+10	1	-1E+10	1	-1E+10	1	-1E+10	1	-1E+10	1	-1E+10	1
4902549	72	C	08/08/2022	08:04	-132.062	47.323	0	817.80	0	3.7890	0	34.2820	0	27.242	0	809.392	0	6.9	4	2.2	4	-1E+10	1	-1E+10	1	-1E+10	1	-1E+10	1	-1E+10	1	-1E+10	1
4902549	72	C	08/08/2022	08:04	-132.062	47.323	0	822.80	0	3.7420	0	34.2800	0	27.246	0	814.331	0	6.9	4	2.2	4	-1E+10	1	-1E+10	1	-1E+10	1	-1E+10	1	-1E+10	1	-1E+10	1
4902549	72	C	08/08/2022	08:04	-132.062	47.323	0	828.00	0	3.7420	0	34.2840	0	27.249	0	819.467	0	6.9	4	2.2	4	-1E+10	1	-1E+10	1	-1E+10	1	-1E+10	1	-1E+10	1	-1E+10	1
4902549	72	C	08/08/2022	08:04	-132.062	47.323	0	832.80	0	3.7390	0	34.2850	0	27.250	0	824.208	0	7.0	4	2.2	4	-1E+10	1	-1E+10	1	-1E+10	1	-1E+10	1	-1E+10	1	-1E+10	1
4902549	72	C	08/08/2022	08:04	-132.062	47.323	0	837.60	0	3.7060	0	34.2820	0	27.251	0	828.949	0	7.1	4	2.2	4	-1E+10	1	-1E+10	1	-1E+10	1	-1E+10	1	-1E+10	1	-1E+10	1
4902549	72	C	08/08/2022	08:04	-132.062	47.323	0	842.90	0	3.6870	0	34.2810	0	27.252	0	834.184	0	7.0	4	2.2	4	-1E+10	1	-1E+10	1	-1E+10	1	-1E+10	1	-1E+10	1	-1E+10	1
4902549	72	C	08/08/2022	08:04	-132.062	47.323	0	848.00	0	3.6890	0	34.2830	0	27.253	0	839.221	0	6.8	4	2.1	4	-1E+10	1	-1E+10	1	-1E+10	1	-1E+10	1	-1E+10	1	-1E+10	1
4902549	72	C	08/08/2022	08:04	-132.062	47.323	0	852.60	0	3.6840	0	34.2860	0	27.256	0	843.764	0	6.7	4	2.1	4	-1E+10	1	-1E+10	1	-1E+10	1	-1E+10	1	-1E+10	1	-1E+10	1
4902549	72	C	08/08/2022	08:04	-132.062	47.323	0	857.80	0	3.6920	0	34.2930	0	27.261	0	848.899	0	6.6	4	2.1	4	-1E+10	1	-1E+10	1	-1E+10	1	-1E+10	1	-1E+10	1	-1E+10	1
4902549	72	C	08/08/2022	08:04	-132.062	47.323	0	863.10	0	3.6800	0	34.2960	0	27.265	0	854.134	0	6.6	4	2.1	4	-1E+10	1	-1E+10	1	-1E+10	1	-1E+10	1	-1E+10	1	-1E+10	1
4902549	72	C	08/08/2022	08:04	-132.062	47.323	0	868.00	0	3.6590	0	34.2970	0	27.268	0	858.973	0	6.6	4	2.1	4	-1E+10	1	-1E+10	1	-1E+10	1	-1E+10	1	-1E+10	1	-1E+10	1
4902549	72	C	08/08/2022	08:04	-132.062	47.323	0	872.80	0	3.6410	0	34.2980	0	27.270	0	863.713	0	6.5	4	2.0	4	-1E+10	1	-1E+10	1	-1E+10	1	-1E+10	1	-1E+10	1	-1E+10	1
4902549	72	C	08/08/2022	08:04	-132.062	47.323	0	877.70	0	3.6420	0	34.3000	0	27.272	0	868.552	0	6.4	4	2.0	4	-1E+10	1	-1E+10	1	-1E+10	1	-1E+10	1	-1E+10	1	-1E+10	1
4902549	72	C	08/08/2022	08:04	-132.062	47.323	0	882.60	0	3.6110	0	34.3050	0	27.279	0	873.390	0	6.4	4	2.0	4	-1E+10	1	-1E+10	1	-1E+10	1	-1E+10	1	-1E+10	1	-1E+10	1
4902549	72	C	08/08/2022	08:04	-132.062	47.323	0	887.60	0	3.5930	0	34.3080	0	27.283	0	878.328	0	6.4	4	2.0	4	-1E+10	1	-1E+10	1	-1E+10	1	-1E+10	1	-1E+10	1	-1E+10	1
4902549	72	C	08/08/2022	08:04	-132.062	47.323	0	892.60	0	3.5770	0	34.3100	0	27.286	0	883.265	0	6.4	4	2.0	4	-1E+10	1	-1E+10	1	-1E+10	1	-1E+10	1	-1E+10	1	-1E+10	1
4902549	72	C	08/08/2022	08:04	-132.062	47.323	0	897.60	0	3.5620	0	34.3110	0	27.288	0	888.202	0	6.4	4	2.0	4	-1E+10	1	-1E+10	1	-1E+10	1	-1E+10	1	-1E+10	1	-1E+10	1
4902549	72	C	08/08/2022	08:04	-132.062	47.323	0	902.50	0	3.5480	0	34.3130	0	27.291	0	893.040	0	6.4	4	2.0	4	-1E+10	1	-1E+10	1	-1E+10	1	-1E+10	1	-1E+10	1	-1E+10	1
4902549	72	C	08/08/2022	08:04	-132.062	47.323	0	907.60	0	3.5450	0	34.3150	0	27.293	0	898.076	0	6.4	4	2.0	4	-1E+10	1	-1E+10	1	-1E+10	1	-1E+10	1	-1E+10	1	-1E+10	1
4902549	72	C	08/08/2022	08:04	-132.062	47.323	0	912.60	0	3.5420	0	34.3160	0	27.294	0	903.013	0	6.4	4	2.0	4	-1E+10	1	-1E+10	1	-1E+10	1	-1E+10	1	-1E+10	1	-1E+10	1
4902549	72	C	08/08/2022	08:04	-132.062	47.323	0	917.70	0	3.5360	0	34.3170	0	27.296	0	908.048	0	6.4	4	2.0	4	-1E+10	1	-1E+10	1	-1E+10	1	-1E+10	1	-1E+10	1	-1E+10	1
4902549	72	C	08/08/2022	08:04	-132.062	47.323	0	922.80	0	3.5060	0	34.3170	0	27.299	0	913.083	0	6.5	4	2.0	4	-1E+10	1	-1E+10	1	-1E+10	1	-1E+10	1	-1E+10	1	-1E+10	1
4902549	72	C	08/08/2022	08:04	-132.062	47.323	0	927.80	0	3.4810	0	34.3190	0	27.303	0	918.020	0	6.4	4	2.0	4	-1E+10	1	-1E+10	1	-1E+10	1	-1E+10	1	-1E+10	1	-1E+10	1
4902549	72	C	08/08/2022	08:04	-132.062	47.323	0	932.80	0	3.4780	0	34.3210	0	27.305	0	922.956	0	6.3	4	2.0	4	-1E+10	1	-1E+10	1	-1E+10	1	-1E+10	1	-1E+10	1	-1E+10	1
4902549	72	C	08/08/2022	08:04	-132.062	47.323	0	937.70	0	3.4670	0	34.3230	0	27.307	0	927.793	0	6.2	4	1.9	4	-1E+10	1	-1E+10	1	-1E+10	1	-1E+10	1	-1E+10	1	-1E+10	1
4902549	72	C	08/08/2022	08:04	-132.062	47.323	0	942.60	0	3.4910	0	34.3320	0	27.312	0	932.631	0	5.9	4	1.8	4	-1E+10	1	-1E+10	1	-1E+10	1	-1E+10	1	-1E+10	1	-1E+10	1
4902549	72	C	08/08/2022	08:04	-132.062	47.323	0	947.50	0	3.5270	0	34.3410	0	27.316	0	937.468	0	5.8	4	1.8	4	-1E+10	1	-1E+10	1	-1E+10	1	-1E+10	1	-1E+10	1	-1E+10	1
4902549	72	C	08/08/2022	08:04	-132.062	47.323	0	952.50	0	3.5570	0	34.3500	0	27.320	0	942.404	0	5.6	4	1.8	4	-1E+10	1	-1E+10	1	-1E+10	1	-1E+10	1	-1E+10	1	-1E+10	1
4902549	72	C	08/08/2022	08:04	-132.062	47.323	0	957.90	0	3.5830	0	34.3570	0	27.323	0	947.734	0	5.6	4	1.8	4	-1E+10	1	-1E+10	1	-1E+10	1	-1E+10	1	-1E+10	1	-1E+10	1
4902549	72	C	08/08/2022	08:04	-132.062	47.323	0	963.20	0	3.5840	0	34.3600	0	27.326	0	952.966	0	5.7	4	1.8	4	-1E+10	1	-1E+10	1	-1E+10	1	-1E+10	1	-1E+10	1	-1E+10	1
4902549	72	C	08/08/2022	08:04	-132.062	47.323	0	967.90	0	3.5710	0	34.3600	0	27.327	0	957.605	0	5.7	4	1.8	4	-1E+10	1	-1E+10	1	-1E+10	1	-1E+10	1	-1E+10	1	-1E+10	1
4902549	72	C	08/08/2022	08:04	-132.062	47.323	0	973.10	0	3.5440	0	34.3600	0	27.330	0	962.738	0	5.8	4	1.8	4	-1E+10	1	-1E+10	1	-1E+10	1	-1E+10	1	-1E+10	1	-1E+10	1
4902549	72	C	08/08/2022	08:04	-132.062	47.323	0	978.10	0	3.5280	0	34.3610	0	27.332	0	967.673	0	5.9	4	1.8	4	-1E+10	1	-1E+10	1	-1E+10	1	-1E+10	1	-1E+10	1	-1E+10	1
4902549	72	C	08/08/2022	08:04	-132.062	47.323	0	982.80	0	3.5100	0	34.3630	0	27.335	0	972.312	0	5.9	4	1.9	4	-1E+10	1	-1E+10	1	-1E+10	1	-1E+10	1	-1E+10	1	-1E+10	1
4902549	72	C	08/08/2022	08:04	-132.062	47.323	0	987.90	0	3.4910	0	34.3660	0	27.340	0	977.346	0	6.0	4	1.9	4	-1E+10	1	-1E+10	1	-1E+10	1	-1E+10	1	-1E+10	1	-1E+10	1
4902549	72	C	08/08/2022	08:04	-132.062	47.323	0	993.00	0	3.4750	0	34.3670	0	27.342	0	982.379	0	6.0	4	1.9	4	-1E+10	1	-1E+10	1	-1E+10	1	-1E+10	1	-1E+10	1	-1E+10	1
4902549	72	C	08/08/2022	08:04	-132.062	47.323	0	998.00	0	3.4560	0	34.3700	0	27.346	0	987.314	0	6.1	4	1.9	4	-1E+10	1	-1E+10	1	-1E+10	1	-1E+10	1	-1E+10	1	-1E+10	1
4902549	72	C	08/08/2022	08:04	-132.062	47.323	0	1005.50	0	3.4310	0	34.3720	0	27.350	0	994.716	0	6.2	4	1.9	4	-1E+10	1	-1E+10	1	-1E+10	1	-1E+10	1	-1E+10	1	-1E+10	1
4902549	72	C	08/08/2022	08:04	-132.062	47.323	0	1015.50	0	3.3550	0	34.3670	0	27.354	0	1004.585	0	6.4	4	2.0	4	-1E+10	1	-1E+10	1	-1E+10	1	-1E+10	1	-1E+10	1	-1E+10	1
4902549	72	C	08/08/2022	08:04	-132.062	47.323	0	1025.40	0	3.3170	0	34.3670	0	27.357	0	1014.355	0	6.5	4	2.0	4	-1E+10	1	-1E+10	1	-1E+10	1	-1E+10	1	-1E+10	1	-1E+10	1
4902549	72	C	08/08/2022	08:04	-132.062	47.323	0	1035.40	0	3.3340	0	34.3770	0	27.364	0	1024.222	0	6.6	4	2.0	4	-1E+10	1	-1E+10	1	-1E+10	1	-1E+10	1	-1E+10	1	-1E+10	1
4902549	72	C	08/08/2022	08:04	-132.062	47.323	0	1045.60	0	3.3110	0	34.3820	0	27.370	0	1034.287	0	6.8	4	2.1	4	-1E+10	1	-1E+10	1	-1E+10	1	-1E+10	1	-1E+10	1	-1E+10	1
4902549	72	C	08/08/2022	08:04	-132.062	47.323	0	1055.50	0	3.3270	0	34.3940	0	27.378	0	1044.055	0	7.1	4	2.2	4	-1E+10	1	-1E+10	1	-1E+10	1	-1E+10	1	-1E+10	1	-1E+10	1
4902549	72	C	08/08/2022	08:04	-132.062	47.323	0	1065.20	0	3.3130	0	34.4000	0	27.384	0	1053.626	0	7.3	4	2.3	4	-1E+10	1	-1E+10	1	-1E+10	1	-1E+10	1	-1E+10	1	-1E+10	1
4902549	72	C	08/08/2022	08:04	-132.062	47.323	0	1075.20	0	3.2900	0	34.4020	0	27.388	0	1063.492	0	7.4	4	2.3	4	-1E+10	1	-1E+10	1	-1E+10	1	-1E+10	1	-1E+10	1	-1E+10	1
4902549	72	C	08/08/2022	08:04	-132.062	47.323	0	1085.20	0	3.2680	0	34.4050	0	27.392	0	1073.357	0	7.6	4	2.4	4	-1E+10	1	-1E+10	1	-1E+10	1	-1E+10	1	-1E+10	1	-1E+10	1
4902549	72	C	08/08/2022	08:04	-132.062	47.323	0	1095.40	0	3.2430	0	34.4080	0	27.397	0	1083.420	0	7.9	4	2.4	4	-1E+10	1	-1E+10	1	-1E+10	1	-1E+10	1	-1E+10	1	-1E+10	1
4902549	72	C	08/08/2022	08:04	-132.062	47.323	0	1105.30	0	3.2180	0	34.4130	0	27.404	0	1093.186	0	8.1	4	2.5	4	-1E+10	1	-1E+10	1	-1E+10	1	-1E+10	1	-1E+10	1	-1E+10	1
4902549	72	C	08/08/2022	08:04	-132.062	47.323	0	1115.00	0	3.1900	0	34.4160	0	27.409	0	1102.754	0	8.2	4	2.6	4	-1E+10	1	-1E+10	1	-1E+10	1	-1E+10	1	-1E+10	1	-1E+10	1
4902549	72	C	08/08/2022	08:04	-132.062	47.323	0	1125.10	0	3.1470	0	34.4180	0	27.414	0	1112.716	0	8.4	4	2.6	4	-1E+10	1	-1E+10	1	-1E+10	1	-1E+10	1	-1E+10	1	-1E+10	1
4902549	72	C	08/08/2022	08:04	-132.062	47.323	0	1135.40	0	3.1230	0	34.4190	0	27.417	0	1122.875	0	8.4	4	2.6	4	-1E+10	1	-1E+10	1	-1E+10	1	-1E+10	1	-1E+10	1	-1E+10	1
4902549	72	C	08/08/2022	08:04	-132.062	47.323	0	1145.30	0	3.0610	0	34.4180	0	27.422	0	1132.640	0	8.6	4	2.6	4	-1E+10	1	-1E+10	1	-1E+10	1	-1E+10	1	-1E+10	1	-1E+10	1
4902549	72	C	08/08/2022	08:04	-132.062	47.323	0	1155.30	0	3.0490	0	34.4210	0	27.426	0	1142.502	0	8.7	4	2.7	4	-1E+10	1	-1E+10	1	-1E+10	1	-1E+10	1	-1E+10	1	-1E+10	1
4902549	72	C	08/08/2022	08:04	-132.062	47.323	0	1165.40	0	3.0160	0	34.4220	0	27.430	0	1152.462	0	9.0	4	2.8	4	-1E+10	1	-1E+10	1	-1E+10	1	-1E+10	1	-1E+10	1	-1E+10	1
4902549	72	C	08/08/2022	08:04	-132.062	47.323	0	1175.20	0	3.0030	0	34.4270	0	27.435	0	1162.126	0	9.3	4	2.9	4	-1E+10	1	-1E+10	1	-1E+10	1	-1E+10	1	-1E+10	1	-1E+10	1
4902549	72	C	08/08/2022	08:04	-132.062	47.323	0	1185.20	0	3.0000	0	34.4320	0	27.439	0	1171.987	0	9.8	4	3.0	4	-1E+10	1	-1E+10	1	-1E+10	1	-1E+10	1	-1E+10	1	-1E+10	1
4902549	72	C	08/08/2022	08:04	-132.062	47.323	0	1195.60	0	2.9770	0	34.4380	0	27.446	0	1182.242	0	10.0	4	3.1	4	-1E+10	1	-1E+10	1	-1E+10	1	-1E+10	1	-1E+10	1	-1E+10	1
4902549	72	C	08/08/2022	08:04	-132.062	47.323	0	1206.10	0	2.9580	0	34.4390	0	27.449	0	1192.595	0	10.3	4	3.2	4	-1E+10	1	-1E+10	1	-1E+10	1	-1E+10	1	-1E+10	1	-1E+10	1
4902549	72	C	08/08/2022	08:04	-132.062	47.323	0	1215.40	0	2.9420	0	34.4430	0	27.453	0	1201.764	0	10.5	4	3.2	4	-1E+10	1	-1E+10	1	-1E+10	1	-1E+10	1	-1E+10	1	-1E+10	1
4902549	72	C	08/08/2022	08:04	-132.062	47.323	0	1225.20	0	2.8970	0	34.4430	0	27.457	0	1211.426	0	10.5	4	3.2	4	-1E+10	1	-1E+10	1	-1E+10	1	-1E+10	1	-1E+10	1	-1E+10	1
4902549	72	C	08/08/2022	08:04	-132.062	47.323	0	1235.30	0	2.8740	0	34.4430	0	27.459	0	1221.383	0	10.6	4	3.3	4	-1E+10	1	-1E+10	1	-1E+10	1	-1E+10	1	-1E+10	1	-1E+10	1
4902549	72	C	08/08/2022	08:04	-132.062	47.323	0	1245.20	0	2.8540	0	34.4450	0	27.463	0	1231.143	0	10.9	4	3.4	4	-1E+10	1	-1E+10	1	-1E+10	1	-1E+10	1	-1E+10	1	-1E+10	1
4902549	72	C	08/08/2022	08:04	-132.062	47.323	0	1255.40	0	2.8510	0	34.4490	0	27.466	0	1241.198	0	11.6	4	3.6	4	-1E+10	1	-1E+10	1	-1E+10	1	-1E+10	1	-1E+10	1	-1E+10	1
4902549	72	C	08/08/2022	08:04	-132.062	47.323	0	1265.40	0	2.8390	0	34.4560	0	27.473	0	1251.055	0	12.0	4	3.7	4	-1E+10	1	-1E+10	1	-1E+10	1	-1E+10	1	-1E+10	1	-1E+10	1
4902549	72	C	08/08/2022	08:04	-132.062	47.323	0	1275.10	0	2.8190	0	34.4570	0	27.476	0	1260.616	0	12.0	4	3.7	4	-1E+10	1	-1E+10	1	-1E+10	1	-1E+10	1	-1E+10	1	-1E+10	1
4902549	72	C	08/08/2022	08:04	-132.062	47.323	0	1285.10	0	2.7960	0	34.4570	0	27.478	0	1270.472	0	12.3	4	3.8	4	-1E+10	1	-1E+10	1	-1E+10	1	-1E+10	1	-1E+10	1	-1E+10	1
4902549	72	C	08/08/2022	08:04	-132.062	47.323	0	1295.30	0	2.7840	0	34.4600	0	27.481	0	1280.525	0	12.6	4	3.9	4	-1E+10	1	-1E+10	1	-1E+10	1	-1E+10	1	-1E+10	1	-1E+10	1
4902549	72	C	08/08/2022	08:04	-132.062	47.323	0	1305.50	0	2.7670	0	34.4620	0	27.484	0	1290.577	0	13.0	4	4.0	4	-1E+10	1	-1E+10	1	-1E+10	1	-1E+10	1	-1E+10	1	-1E+10	1
4902549	72	C	08/08/2022	08:04	-132.062	47.323	0	1315.50	0	2.7500	0	34.4650	0	27.488	0	1300.432	0	13.7	4	4.2	4	-1E+10	1	-1E+10	1	-1E+10	1	-1E+10	1	-1E+10	1	-1E+10	1
4902549	72	C	08/08/2022	08:04	-132.062	47.323	0	1325.40	0	2.7330	0	34.4700	0	27.494	0	1310.188	0	14.3	4	4.4	4	-1E+10	1	-1E+10	1	-1E+10	1	-1E+10	1	-1E+10	1	-1E+10	1
4902549	72	C	08/08/2022	08:04	-132.062	47.323	0	1335.30	0	2.7210	0	34.4730	0	27.497	0	1319.944	0	14.8	4	4.5	4	-1E+10	1	-1E+10	1	-1E+10	1	-1E+10	1	-1E+10	1	-1E+10	1
4902549	72	C	08/08/2022	08:04	-132.062	47.323	0	1345.10	0	2.7090	0	34.4770	0	27.502	0	1329.600	0	15.3	4	4.7	4	-1E+10	1	-1E+10	1	-1E+10	1	-1E+10	1	-1E+10	1	-1E+10	1
4902549	72	C	08/08/2022	08:04	-132.062	47.323	0	1355.40	0	2.6890	0	34.4760	0	27.503	0	1339.748	0	15.6	4	4.8	4	-1E+10	1	-1E+10	1	-1E+10	1	-1E+10	1	-1E+10	1	-1E+10	1
4902549	72	C	08/08/2022	08:04	-132.062	47.323	0	1365.70	0	2.6610	0	34.4780	0	27.507	0	1349.897	0	16.1	4	4.9	4	-1E+10	1	-1E+10	1	-1E+10	1	-1E+10	1	-1E+10	1	-1E+10	1
4902549	72	C	08/08/2022	08:04	-132.062	47.323	0	1375.50	0	2.6470	0	34.4800	0	27.510	0	1359.552	0	16.7	4	5.1	4	-1E+10	1	-1E+10	1	-1E+10	1	-1E+10	1	-1E+10	1	-1E+10	1
4902549	72	C	08/08/2022	08:04	-132.062	47.323	0	1385.40	0	2.6360	0	34.4850	0	27.515	0	1369.305	0	17.3	4	5.3	4	-1E+10	1	-1E+10	1	-1E+10	1	-1E+10	1	-1E+10	1	-1E+10	1
4902549	72	C	08/08/2022	08:04	-132.062	47.323	0	1395.40	0	2.6170	0	34.4880	0	27.519	0	1379.156	0	17.8	4	5.4	4	-1E+10	1	-1E+10	1	-1E+10	1	-1E+10	1	-1E+10	1	-1E+10	1
4902549	72	C	08/08/2022	08:04	-132.062	47.323	0	1405.70	0	2.6120	0	34.4910	0	27.522	0	1389.302	0	18.2	4	5.6	4	-1E+10	1	-1E+10	1	-1E+10	1	-1E+10	1	-1E+10	1	-1E+10	1
4902549	72	C	08/08/2022	08:04	-132.062	47.323	0	1415.60	0	2.5990	0	34.4920	0	27.524	0	1399.054	0	18.5	4	5.6	4	-1E+10	1	-1E+10	1	-1E+10	1	-1E+10	1	-1E+10	1	-1E+10	1
4902549	72	C	08/08/2022	08:04	-132.062	47.323	0	1425.50	0	2.5790	0	34.4940	0	27.527	0	1408.805	0	18.7	4	5.7	4	-1E+10	1	-1E+10	1	-1E+10	1	-1E+10	1	-1E+10	1	-1E+10	1
4902549	72	C	08/08/2022	08:04	-132.062	47.323	0	1435.80	0	2.5750	0	34.4950	0	27.528	0	1418.950	0	19.0	4	5.8	4	-1E+10	1	-1E+10	1	-1E+10	1	-1E+10	1	-1E+10	1	-1E+10	1
4902549	72	C	08/08/2022	08:04	-132.062	47.323	0	1445.30	0	2.5630	0	34.4960	0	27.530	0	1428.306	0	19.5	4	5.9	4	-1E+10	1	-1E+10	1	-1E+10	1	-1E+10	1	-1E+10	1	-1E+10	1
4902549	72	C	08/08/2022	08:04	-132.062	47.323	0	1455.10	0	2.5400	0	34.4970	0	27.533	0	1437.958	0	20.0	4	6.1	4	-1E+10	1	-1E+10	1	-1E+10	1	-1E+10	1	-1E+10	1	-1E+10	1
4902549	72	C	08/08/2022	08:04	-132.062	47.323	0	1465.00	0	2.5240	0	34.5000	0	27.537	0	1447.707	0	20.8	4	6.3	4	-1E+10	1	-1E+10	1	-1E+10	1	-1E+10	1	-1E+10	1	-1E+10	1
4902549	72	C	08/08/2022	08:04	-132.062	47.323	0	1475.20	0	2.4990	0	34.5030	0	27.541	0	1457.751	0	21.5	4	6.6	4	-1E+10	1	-1E+10	1	-1E+10	1	-1E+10	1	-1E+10	1	-1E+10	1
4902549	72	C	08/08/2022	08:04	-132.062	47.323	0	1485.50	0	2.4750	0	34.5050	0	27.545	0	1467.894	0	22.1	4	6.7	4	-1E+10	1	-1E+10	1	-1E+10	1	-1E+10	1	-1E+10	1	-1E+10	1
4902549	72	C	08/08/2022	08:04	-132.062	47.323	0	1495.60	0	2.4530	0	34.5080	0	27.549	0	1477.839	0	22.8	4	6.9	4	-1E+10	1	-1E+10	1	-1E+10	1	-1E+10	1	-1E+10	1	-1E+10	1
4902549	72	C	08/08/2022	08:04	-132.062	47.323	0	1505.30	0	2.4310	0	34.5110	0	27.553	0	1487.390	0	23.5	4	7.2	4	-1E+10	1	-1E+10	1	-1E+10	1	-1E+10	1	-1E+10	1	-1E+10	1
4902549	72	C	08/08/2022	08:04	-132.062	47.323	0	1515.30	0	2.4190	0	34.5130	0	27.556	0	1497.235	0	23.9	4	7.3	4	-1E+10	1	-1E+10	1	-1E+10	1	-1E+10	1	-1E+10	1	-1E+10	1
4902549	72	C	08/08/2022	08:04	-132.062	47.323	0	1525.40	0	2.4090	0	34.5140	0	27.558	0	1507.179	0	24.1	4	7.3	4	-1E+10	1	-1E+10	1	-1E+10	1	-1E+10	1	-1E+10	1	-1E+10	1
4902549	72	C	08/08/2022	08:04	-132.062	47.323	0	1535.30	0	2.4040	0	34.5150	0	27.559	0	1516.925	0	24.2	4	7.4	4	-1E+10	1	-1E+10	1	-1E+10	1	-1E+10	1	-1E+10	1	-1E+10	1
4902549	72	C	08/08/2022	08:04	-132.062	47.323	0	1545.30	0	2.3790	0	34.5150	0	27.561	0	1526.769	0	24.4	4	7.4	4	-1E+10	1	-1E+10	1	-1E+10	1	-1E+10	1	-1E+10	1	-1E+10	1
4902549	72	C	08/08/2022	08:04	-132.062	47.323	0	1555.60	0	2.3600	0	34.5160	0	27.563	0	1536.908	0	24.7	4	7.5	4	-1E+10	1	-1E+10	1	-1E+10	1	-1E+10	1	-1E+10	1	-1E+10	1
4902549	72	C	08/08/2022	08:04	-132.062	47.323	0	1565.70	0	2.3490	0	34.5170	0	27.565	0	1546.850	0	25.3	4	7.7	4	-1E+10	1	-1E+10	1	-1E+10	1	-1E+10	1	-1E+10	1	-1E+10	1
4902549	72	C	08/08/2022	08:04	-132.062	47.323	0	1575.40	0	2.3430	0	34.5190	0	27.567	0	1556.398	0	25.7	4	7.8	4	-1E+10	1	-1E+10	1	-1E+10	1	-1E+10	1	-1E+10	1	-1E+10	1
4902549	72	C	08/08/2022	08:04	-132.062	47.323	0	1585.50	0	2.3340	0	34.5200	0	27.569	0	1566.339	0	26.0	4	7.9	4	-1E+10	1	-1E+10	1	-1E+10	1	-1E+10	1	-1E+10	1	-1E+10	1
4902549	72	C	08/08/2022	08:04	-132.062	47.323	0	1595.60	0	2.3260	0	34.5210	0	27.570	0	1576.279	0	26.4	4	8.0	4	-1E+10	1	-1E+10	1	-1E+10	1	-1E+10	1	-1E+10	1	-1E+10	1
4902549	72	C	08/08/2022	08:04	-132.062	47.323	0	1605.30	0	2.3180	0	34.5230	0	27.573	0	1585.825	0	26.9	4	8.2	4	-1E+10	1	-1E+10	1	-1E+10	1	-1E+10	1	-1E+10	1	-1E+10	1
4902549	72	C	08/08/2022	08:04	-132.062	47.323	0	1615.40	0	2.3090	0	34.5240	0	27.574	0	1595.765	0	27.4	4	8.3	4	-1E+10	1	-1E+10	1	-1E+10	1	-1E+10	1	-1E+10	1	-1E+10	1
4902549	72	C	08/08/2022	08:04	-132.062	47.323	0	1625.50	0	2.2880	0	34.5260	0	27.578	0	1605.703	0	28.0	4	8.5	4	-1E+10	1	-1E+10	1	-1E+10	1	-1E+10	1	-1E+10	1	-1E+10	1
4902549	72	C	08/08/2022	08:04	-132.062	47.323	0	1635.50	0	2.2780	0	34.5280	0	27.580	0	1615.544	0	28.8	4	8.7	4	-1E+10	1	-1E+10	1	-1E+10	1	-1E+10	1	-1E+10	1	-1E+10	1
4902549	72	C	08/08/2022	08:04	-132.062	47.323	0	1645.60	0	2.2700	0	34.5300	0	27.582	0	1625.482	0	29.3	4	8.9	4	-1E+10	1	-1E+10	1	-1E+10	1	-1E+10	1	-1E+10	1	-1E+10	1
4902549	72	C	08/08/2022	08:04	-132.062	47.323	0	1655.60	0	2.2600	0	34.5320	0	27.585	0	1635.321	0	29.8	4	9.1	4	-1E+10	1	-1E+10	1	-1E+10	1	-1E+10	1	-1E+10	1	-1E+10	1
4902549	72	C	08/08/2022	08:04	-132.062	47.323	0	1665.60	0	2.2490	0	34.5330	0	27.587	0	1645.159	0	30.4	4	9.2	4	-1E+10	1	-1E+10	1	-1E+10	1	-1E+10	1	-1E+10	1	-1E+10	1
4902549	72	C	08/08/2022	08:04	-132.062	47.323	0	1675.30	0	2.2390	0	34.5350	0	27.589	0	1654.703	0	30.9	4	9.4	4	-1E+10	1	-1E+10	1	-1E+10	1	-1E+10	1	-1E+10	1	-1E+10	1
4902549	72	C	08/08/2022	08:04	-132.062	47.323	0	1685.50	0	2.2310	0	34.5360	0	27.591	0	1664.737	0	31.3	4	9.5	4	-1E+10	1	-1E+10	1	-1E+10	1	-1E+10	1	-1E+10	1	-1E+10	1
4902549	72	C	08/08/2022	08:04	-132.062	47.323	0	1695.50	0	2.2200	0	34.5370	0	27.592	0	1674.575	0	31.8	4	9.7	4	-1E+10	1	-1E+10	1	-1E+10	1	-1E+10	1	-1E+10	1	-1E+10	1
4902549	72	C	08/08/2022	08:04	-132.062	47.323	0	1705.40	0	2.2110	0	34.5390	0	27.595	0	1684.313	0	32.6	4	9.9	4	-1E+10	1	-1E+10	1	-1E+10	1	-1E+10	1	-1E+10	1	-1E+10	1
4902549	72	C	08/08/2022	08:04	-132.062	47.323	0	1715.60	0	2.1970	0	34.5410	0	27.597	0	1694.346	0	33.5	4	10.2	4	-1E+10	1	-1E+10	1	-1E+10	1	-1E+10	1	-1E+10	1	-1E+10	1
4902549	72	C	08/08/2022	08:04	-132.062	47.323	0	1725.50	0	2.1790	0	34.5440	0	27.601	0	1704.084	0	34.4	4	10.4	4	-1E+10	1	-1E+10	1	-1E+10	1	-1E+10	1	-1E+10	1	-1E+10	1
4902549	72	C	08/08/2022	08:04	-132.062	47.323	0	1735.30	0	2.1650	0	34.5460	0	27.604	0	1713.723	0	35.2	4	10.7	4	-1E+10	1	-1E+10	1	-1E+10	1	-1E+10	1	-1E+10	1	-1E+10	1
4902549	72	C	08/08/2022	08:04	-132.062	47.323	0	1745.40	0	2.1500	0	34.5490	0	27.608	0	1723.656	0	36.1	4	10.9	4	-1E+10	1	-1E+10	1	-1E+10	1	-1E+10	1	-1E+10	1	-1E+10	1
4902549	72	C	08/08/2022	08:04	-132.062	47.323	0	1755.30	0	2.1360	0	34.5500	0	27.610	0	1733.392	0	36.7	4	11.1	4	-1E+10	1	-1E+10	1	-1E+10	1	-1E+10	1	-1E+10	1	-1E+10	1
4902549	72	C	08/08/2022	08:04	-132.062	47.323	0	1765.40	0	2.1310	0	34.5510	0	27.611	0	1743.325	0	37.1	4	11.2	4	-1E+10	1	-1E+10	1	-1E+10	1	-1E+10	1	-1E+10	1	-1E+10	1
4902549	72	C	08/08/2022	08:04	-132.062	47.323	0	1775.70	0	2.1230	0	34.5530	0	27.613	0	1753.453	0	37.6	4	11.4	4	-1E+10	1	-1E+10	1	-1E+10	1	-1E+10	1	-1E+10	1	-1E+10	1
4902549	72	C	08/08/2022	08:04	-132.062	47.323	0	1785.40	0	2.1140	0	34.5540	0	27.615	0	1762.992	0	38.1	4	11.5	4	-1E+10	1	-1E+10	1	-1E+10	1	-1E+10	1	-1E+10	1	-1E+10	1
4902549	72	C	08/08/2022	08:04	-132.062	47.323	0	1795.10	0	2.1070	0	34.5550	0	27.616	0	1772.530	0	38.5	4	11.6	4	-1E+10	1	-1E+10	1	-1E+10	1	-1E+10	1	-1E+10	1	-1E+10	1
4902549	72	C	08/08/2022	08:04	-132.062	47.323	0	1805.60	0	2.1010	0	34.5560	0	27.618	0	1782.853	0	39.0	4	11.8	4	-1E+10	1	-1E+10	1	-1E+10	1	-1E+10	1	-1E+10	1	-1E+10	1
4902549	72	C	08/08/2022	08:04	-132.062	47.323	0	1815.70	0	2.0930	0	34.5570	0	27.619	0	1792.784	0	39.5	4	11.9	4	-1E+10	1	-1E+10	1	-1E+10	1	-1E+10	1	-1E+10	1	-1E+10	1
4902549	72	C	08/08/2022	08:04	-132.062	47.323	0	1825.70	0	2.0860	0	34.5580	0	27.621	0	1802.615	0	40.1	4	12.1	4	-1E+10	1	-1E+10	1	-1E+10	1	-1E+10	1	-1E+10	1	-1E+10	1
4902549	72	C	08/08/2022	08:04	-132.062	47.323	0	1835.40	0	2.0790	0	34.5600	0	27.623	0	1812.151	0	40.6	4	12.3	4	-1E+10	1	-1E+10	1	-1E+10	1	-1E+10	1	-1E+10	1	-1E+10	1
4902549	72	C	08/08/2022	08:04	-132.062	47.323	0	1845.30	0	2.0720	0	34.5610	0	27.624	0	1821.883	0	41.3	4	12.5	4	-1E+10	1	-1E+10	1	-1E+10	1	-1E+10	1	-1E+10	1	-1E+10	1
4902549	72	C	08/08/2022	08:04	-132.062	47.323	0	1855.20	0	2.0630	0	34.5630	0	27.626	0	1831.615	0	42.0	4	12.7	4	-1E+10	1	-1E+10	1	-1E+10	1	-1E+10	1	-1E+10	1	-1E+10	1
4902549	72	C	08/08/2022	08:04	-132.062	47.323	0	1865.30	0	2.0550	0	34.5640	0	27.628	0	1841.543	0	42.8	4	12.9	4	-1E+10	1	-1E+10	1	-1E+10	1	-1E+10	1	-1E+10	1	-1E+10	1
4902549	72	C	08/08/2022	08:04	-132.062	47.323	0	1875.40	0	2.0420	0	34.5670	0	27.631	0	1851.470	0	43.7	4	13.2	4	-1E+10	1	-1E+10	1	-1E+10	1	-1E+10	1	-1E+10	1	-1E+10	1
4902549	72	C	08/08/2022	08:04	-132.062	47.323	0	1885.30	0	2.0320	0	34.5680	0	27.633	0	1861.201	0	44.4	4	13.4	4	-1E+10	1	-1E+10	1	-1E+10	1	-1E+10	1	-1E+10	1	-1E+10	1
4902549	72	C	08/08/2022	08:04	-132.062	47.323	0	1895.10	0	2.0240	0	34.5700	0	27.635	0	1870.832	0	45.1	4	13.6	4	-1E+10	1	-1E+10	1	-1E+10	1	-1E+10	1	-1E+10	1	-1E+10	1
4902549	72	C	08/08/2022	08:04	-132.062	47.323	0	1905.00	0	2.0170	0	34.5710	0	27.637	0	1880.562	0	45.6	4	13.8	4	-1E+10	1	-1E+10	1	-1E+10	1	-1E+10	1	-1E+10	1	-1E+10	1
4902549	72	C	08/08/2022	08:04	-132.062	47.323	0	1915.10	0	2.0090	0	34.5730	0	27.639	0	1890.487	0	46.3	4	13.9	4	-1E+10	1	-1E+10	1	-1E+10	1	-1E+10	1	-1E+10	1	-1E+10	1
4902549	72	C	08/08/2022	08:04	-132.062	47.323	0	1925.40	0	2.0000	0	34.5740	0	27.641	0	1900.609	0	46.7	4	14.1	4	-1E+10	1	-1E+10	1	-1E+10	1	-1E+10	1	-1E+10	1	-1E+10	1
4902549	72	C	08/08/2022	08:04	-132.062	47.323	0	1935.50	0	1.9960	0	34.5750	0	27.642	0	1910.534	0	47.0	4	14.2	4	-1E+10	1	-1E+10	1	-1E+10	1	-1E+10	1	-1E+10	1	-1E+10	1
4902549	72	C	08/08/2022	08:04	-132.062	47.323	0	1945.20	0	1.9920	0	34.5760	0	27.643	0	1920.065	0	47.5	4	14.3	4	-1E+10	1	-1E+10	1	-1E+10	1	-1E+10	1	-1E+10	1	-1E+10	1
4902549	72	C	08/08/2022	08:04	-132.062	47.323	0	1955.10	0	1.9810	0	34.5770	0	27.645	0	1929.792	0	48.1	4	14.5	4	-1E+10	1	-1E+10	1	-1E+10	1	-1E+10	1	-1E+10	1	-1E+10	1
4902549	72	C	08/08/2022	08:04	-132.062	47.323	0	1965.10	0	1.9770	0	34.5780	0	27.646	0	1939.617	0	48.4	4	14.6	4	-1E+10	1	-1E+10	1	-1E+10	1	-1E+10	1	-1E+10	1	-1E+10	1
4902549	72	C	08/08/2022	08:04	-132.062	47.323	0	1975.20	0	1.9710	0	34.5790	0	27.647	0	1949.540	0	48.8	4	14.7	4	-1E+10	1	-1E+10	1	-1E+10	1	-1E+10	1	-1E+10	1	-1E+10	1
4902549	72	C	08/08/2022	08:04	-132.062	47.323	0	1984.20	0	1.9640	0	34.5810	0	27.649	0	1958.382	0	48.5	4	14.6	4	-1E+10	1	-1E+10	1	-1E+10	1	-1E+10	1	-1E+10	1	-1E+10	1
4902549	72	C	08/08/2022	08:04	-132.062	47.323	0																										
4902549	73	C	08/18/2022	13:02	-132.123	47.538	0	0.10	0	16.7620	0	32.2260	0	23.442	0	0.099	0	248.2	4	101.7	4	-1E+10	1	-1E+10	1	-1E+10	1	-1E+10	1	-1E+10	1	-1E+10	1
4902549	73	C	08/18/2022	13:02	-132.123	47.538	0	0.20	0	16.7630	0	32.2250	0	23.441	0	0.198	0	242.7	4	99.4	4	-1E+10	1	-1E+10	1	-1E+10	1	-1E+10	1	-1E+10	1	-1E+10	1
4902549	73	C	08/18/2022	13:02	-132.123	47.538	0	1.10	0	16.7640	0	32.2250	0	23.441	0	1.091	0	242.6	4	99.4	4	-1E+10	1	-1E+10	1	-1E+10	1	-1E+10	1	-1E+10	1	-1E+10	1
4902549	73	C	08/18/2022	13:02	-132.123	47.538	0	2.00	0	16.7640	0	32.2250	0	23.441	0	1.983	0	242.6	4	99.4	4	-1E+10	1	-1E+10	1	-1E+10	1	-1E+10	1	-1E+10	1	-1E+10	1
4902549	73	C	08/18/2022	13:02	-132.123	47.538	0	2.90	0	16.7640	0	32.2250	0	23.441	0	2.876	0	242.6	4	99.4	4	-1E+10	1	-1E+10	1	-1E+10	1	-1E+10	1	-1E+10	1	-1E+10	1
4902549	73	C	08/18/2022	13:02	-132.123	47.538	0	4.10	0	16.7630	0	32.2280	0	23.444	0	4.066	0	242.8	4	99.5	4	-1E+10	1	-1E+10	1	-1E+10	1	-1E+10	1	-1E+10	1	-1E+10	1
4902549	73	C	08/18/2022	13:02	-132.123	47.538	0	5.10	0	16.7630	0	32.2300	0	23.445	0	5.057	0	242.9	4	99.5	4	-1E+10	1	-1E+10	1	-1E+10	1	-1E+10	1	-1E+10	1	-1E+10	1
4902549	73	C	08/18/2022	13:02	-132.123	47.538	0	5.90	0	16.7630	0	32.2300	0	23.446	0	5.851	0	243.0	4	99.5	4	-1E+10	1	-1E+10	1	-1E+10	1	-1E+10	1	-1E+10	1	-1E+10	1
4902549	73	C	08/18/2022	13:02	-132.123	47.538	0	6.80	0	16.7630	0	32.2300	0	23.446	0	6.743	0	243.1	4	99.6	4	-1E+10	1	-1E+10	1	-1E+10	1	-1E+10	1	-1E+10	1	-1E+10	1
4902549	73	C	08/18/2022	13:02	-132.123	47.538	0	8.00	0	16.7630	0	32.2290	0	23.445	0	7.933	0	243.3	4	99.7	4	-1E+10	1	-1E+10	1	-1E+10	1	-1E+10	1	-1E+10	1	-1E+10	1
4902549	73	C	08/18/2022	13:02	-132.123	47.538	0	8.90	0	16.7640	0	32.2290	0	23.445	0	8.825	0	243.6	4	99.8	4	-1E+10	1	-1E+10	1	-1E+10	1	-1E+10	1	-1E+10	1	-1E+10	1
4902549	73	C	08/18/2022	13:02	-132.123	47.538	0	9.90	0	16.7510	0	32.2250	0	23.445	0	9.817	0	243.6	4	99.8	4	-1E+10	1	-1E+10	1	-1E+10	1	-1E+10	1	-1E+10	1	-1E+10	1
4902549	73	C	08/18/2022	13:02	-132.123	47.538	0	10.90	0	16.6720	0	32.2300	0	23.467	0	10.809	0	244.0	4	99.8	4	-1E+10	1	-1E+10	1	-1E+10	1	-1E+10	1	-1E+10	1	-1E+10	1
4902549	73	C	08/18/2022	13:02	-132.123	47.538	0	11.90	0	16.4850	0	32.2380	0	23.516	0	11.800	0	244.7	4	99.7	4	-1E+10	1	-1E+10	1	-1E+10	1	-1E+10	1	-1E+10	1	-1E+10	1
4902549	73	C	08/18/2022	13:02	-132.123	47.538	0	13.00	0	16.3930	0	32.2300	0	23.531	0	12.891	0	245.2	4	99.8	4	-1E+10	1	-1E+10	1	-1E+10	1	-1E+10	1	-1E+10	1	-1E+10	1
4902549	73	C	08/18/2022	13:02	-132.123	47.538	0	13.90	0	16.3750	0	32.2290	0	23.534	0	13.783	0	245.4	4	99.8	4	-1E+10	1	-1E+10	1	-1E+10	1	-1E+10	1	-1E+10	1	-1E+10	1
4902549	73	C	08/18/2022	13:02	-132.123	47.538	0	15.00	0	16.3430	0	32.2300	0	23.542	0	14.874	0	245.7	4	99.9	4	-1E+10	1	-1E+10	1	-1E+10	1	-1E+10	1	-1E+10	1	-1E+10	1
4902549	73	C	08/18/2022	13:02	-132.123	47.538	0	16.00	0	16.2850	0	32.2350	0	23.559	0	15.866	0	246.1	4	99.9	4	-1E+10	1	-1E+10	1	-1E+10	1	-1E+10	1	-1E+10	1	-1E+10	1
4902549	73	C	08/18/2022	13:02	-132.123	47.538	0	17.10	0	16.2120	0	32.2390	0	23.579	0	16.957	0	246.5	4	99.9	4	-1E+10	1	-1E+10	1	-1E+10	1	-1E+10	1	-1E+10	1	-1E+10	1
4902549	73	C	08/18/2022	13:02	-132.123	47.538	0	18.10	0	16.1830	0	32.2380	0	23.584	0	17.948	0	246.9	4	100.1	4	-1E+10	1	-1E+10	1	-1E+10	1	-1E+10	1	-1E+10	1	-1E+10	1
4902549	73	C	08/18/2022	13:02	-132.123	47.538	0	19.00	0	16.1730	0	32.2390	0	23.588	0	18.840	0	247.4	4	100.2	4	-1E+10	1	-1E+10	1	-1E+10	1	-1E+10	1	-1E+10	1	-1E+10	1
4902549	73	C	08/18/2022	13:02	-132.123	47.538	0	19.90	0	16.1640	0	32.2380	0	23.589	0	19.733	0	248.0	4	100.4	4	-1E+10	1	-1E+10	1	-1E+10	1	-1E+10	1	-1E+10	1	-1E+10	1
4902549	73	C	08/18/2022	13:02	-132.123	47.538	0	21.10	0	16.1330	0	32.2400	0	23.597	0	20.923	0	249.1	4	100.8	4	-1E+10	1	-1E+10	1	-1E+10	1	-1E+10	1	-1E+10	1	-1E+10	1
4902549	73	C	08/18/2022	13:02	-132.123	47.538	0	22.10	0	16.0760	0	32.2400	0	23.610	0	21.914	0	250.4	4	101.3	4	-1E+10	1	-1E+10	1	-1E+10	1	-1E+10	1	-1E+10	1	-1E+10	1
4902549	73	C	08/18/2022	13:02	-132.123	47.538	0	22.90	0	15.9600	0	32.2470	0	23.642	0	22.708	0	252.0	4	101.7	4	-1E+10	1	-1E+10	1	-1E+10	1	-1E+10	1	-1E+10	1	-1E+10	1
4902549	73	C	08/18/2022	13:02	-132.123	47.538	0	24.10	0	15.7330	0	32.2500	0	23.694	0	23.897	0	254.9	4	102.4	4	-1E+10	1	-1E+10	1	-1E+10	1	-1E+10	1	-1E+10	1	-1E+10	1
4902549	73	C	08/18/2022	13:02	-132.123	47.538	0	25.10	0	15.3310	0	32.2350	0	23.771	0	24.889	0	258.7	4	103.1	4	-1E+10	1	-1E+10	1	-1E+10	1	-1E+10	1	-1E+10	1	-1E+10	1
4902549	73	C	08/18/2022	13:02	-132.123	47.538	0	25.80	0	15.1950	0	32.2440	0	23.808	0	25.583	0	260.8	4	103.7	4	-1E+10	1	-1E+10	1	-1E+10	1	-1E+10	1	-1E+10	1	-1E+10	1
4902549	73	C	08/18/2022	13:02	-132.123	47.538	0	26.80	0	15.0440	0	32.2390	0	23.836	0	26.575	0	263.1	4	104.3	4	-1E+10	1	-1E+10	1	-1E+10	1	-1E+10	1	-1E+10	1	-1E+10	1
4902549	73	C	08/18/2022	13:02	-132.123	47.538	0	27.80	0	14.9860	0	32.2280	0	23.840	0	27.566	0	264.6	4	104.7	4	-1E+10	1	-1E+10	1	-1E+10	1	-1E+10	1	-1E+10	1	-1E+10	1
4902549	73	C	08/18/2022	13:02	-132.123	47.538	0	28.80	0	14.4770	0	32.2400	0	23.958	0	28.558	0	267.9	4	105.0	4	-1E+10	1	-1E+10	1	-1E+10	1	-1E+10	1	-1E+10	1	-1E+10	1
4902549	73	C	08/18/2022	13:02	-132.123	47.538	0	29.80	0	13.8770	0	32.2200	0	24.066	0	29.549	0	271.9	4	105.2	4	-1E+10	1	-1E+10	1	-1E+10	1	-1E+10	1	-1E+10	1	-1E+10	1
4902549	73	C	08/18/2022	13:02	-132.123	47.538	0	30.80	0	13.7120	0	32.2150	0	24.096	0	30.541	0	273.2	4	105.4	4	-1E+10	1	-1E+10	1	-1E+10	1	-1E+10	1	-1E+10	1	-1E+10	1
4902549	73	C	08/18/2022	13:02	-132.123	47.538	0	32.10	0	13.2960	0	32.2070	0	24.173	0	31.830	0	274.8	4	105.1	4	-1E+10	1	-1E+10	1	-1E+10	1	-1E+10	1	-1E+10	1	-1E+10	1
4902549	73	C	08/18/2022	13:02	-132.123	47.538	0	32.80	0	13.1150	0	32.1890	0	24.195	0	32.524	0	273.9	4	104.4	4	-1E+10	1	-1E+10	1	-1E+10	1	-1E+10	1	-1E+10	1	-1E+10	1
4902549	73	C	08/18/2022	13:02	-132.123	47.538	0	33.80	0	11.9560	0	32.2010	0	24.425	0	33.515	0	278.6	4	103.6	4	-1E+10	1	-1E+10	1	-1E+10	1	-1E+10	1	-1E+10	1	-1E+10	1
4902549	73	C	08/18/2022	13:02	-132.123	47.538	0	34.80	0	11.6340	0	32.1850	0	24.472	0	34.507	0	279.4	4	103.2	4	-1E+10	1	-1E+10	1	-1E+10	1	-1E+10	1	-1E+10	1	-1E+10	1
4902549	73	C	08/18/2022	13:02	-132.123	47.538	0	35.90	0	11.3580	0	32.1890	0	24.525	0	35.597	0	278.8	4	102.4	4	-1E+10	1	-1E+10	1	-1E+10	1	-1E+10	1	-1E+10	1	-1E+10	1
4902549	73	C	08/18/2022	13:02	-132.123	47.538	0	37.20	0	11.0310	0	32.1970	0	24.589	0	36.886	0	279.2	4	101.9	4	-1E+10	1	-1E+10	1	-1E+10	1	-1E+10	1	-1E+10	1	-1E+10	1
4902549	73	C	08/18/2022	13:02	-132.123	47.538	0	38.00	0	10.9260	0	32.1920	0	24.604	0	37.679	0	279.1	4	101.6	4	-1E+10	1	-1E+10	1	-1E+10	1	-1E+10	1	-1E+10	1	-1E+10	1
4902549	73	C	08/18/2022	13:02	-132.123	47.538	0	39.20	0	10.8890	0	32.1900	0	24.609	0	38.869	0	277.5	4	101.0	4	-1E+10	1	-1E+10	1	-1E+10	1	-1E+10	1	-1E+10	1	-1E+10	1
4902549	73	C	08/18/2022	13:02	-132.123	47.538	0	40.10	0	10.8060	0	32.1910	0	24.624	0	39.761	0	276.2	4	100.3	4	-1E+10	1	-1E+10	1	-1E+10	1	-1E+10	1	-1E+10	1	-1E+10	1
4902549	73	C	08/18/2022	13:02	-132.123	47.538	0	40.70	0	10.6620	0	32.1960	0	24.653	0	40.356	0	275.9	4	99.9	4	-1E+10	1	-1E+10	1	-1E+10	1	-1E+10	1	-1E+10	1	-1E+10	1
4902549	73	C	08/18/2022	13:02	-132.123	47.538	0	42.10	0	10.5090	0	32.1990	0	24.681	0	41.744	0	274.9	4	99.2	4	-1E+10	1	-1E+10	1	-1E+10	1	-1E+10	1	-1E+10	1	-1E+10	1
4902549	73	C	08/18/2022	13:02	-132.123	47.538	0	43.10	0	10.3730	0	32.1990	0	24.704	0	42.736	0	274.5	4	98.8	4	-1E+10	1	-1E+10	1	-1E+10	1	-1E+10	1	-1E+10	1	-1E+10	1
4902549	73	C	08/18/2022	13:02	-132.123	47.538	0	44.00	0	10.3500	0	32.1990	0	24.708	0	43.628	0	273.5	4	98.4	4	-1E+10	1	-1E+10	1	-1E+10	1	-1E+10	1	-1E+10	1	-1E+10	1
4902549	73	C	08/18/2022	13:02	-132.123	47.538	0	44.90	0	10.3250	0	32.1960	0	24.710	0	44.520	0	272.3	4	97.9	4	-1E+10	1	-1E+10	1	-1E+10	1	-1E+10	1	-1E+10	1	-1E+10	1
4902549	73	C	08/18/2022	13:02	-132.123	47.538	0	46.00	0	10.1710	0	32.2070	0	24.745	0	45.611	0	271.0	4	97.1	4	-1E+10	1	-1E+10	1	-1E+10	1	-1E+10	1	-1E+10	1	-1E+10	1
4902549	73	C	08/18/2022	13:02	-132.123	47.538	0	46.90	0	10.0220	0	32.2020	0	24.765	0	46.503	0	271.0	4	96.8	4	-1E+10	1	-1E+10	1	-1E+10	1	-1E+10	1	-1E+10	1	-1E+10	1
4902549	73	C	08/18/2022	13:02	-132.123	47.538	0	47.80	0	9.8840	0	32.2100	0	24.794	0	47.395	0	271.2	4	96.5	4	-1E+10	1	-1E+10	1	-1E+10	1	-1E+10	1	-1E+10	1	-1E+10	1
4902549	73	C	08/18/2022	13:02	-132.123	47.538	0	48.90	0	9.8270	0	32.2100	0	24.804	0	48.486	0	270.8	4	96.3	4	-1E+10	1	-1E+10	1	-1E+10	1	-1E+10	1	-1E+10	1	-1E+10	1
4902549	73	C	08/18/2022	13:02	-132.123	47.538	0	49.90	0	9.7820	0	32.2150	0	24.815	0	49.477	0	270.5	4	96.1	4	-1E+10	1	-1E+10	1	-1E+10	1	-1E+10	1	-1E+10	1	-1E+10	1
4902549	73	C	08/18/2022	13:02	-132.123	47.538	0	50.80	0	9.7570	0	32.2130	0	24.818	0	50.370	0	270.2	4	95.9	4	-1E+10	1	-1E+10	1	-1E+10	1	-1E+10	1	-1E+10	1	-1E+10	1
4902549	73	C	08/18/2022	13:02	-132.123	47.538	0	52.00	0	9.7170	0	32.2150	0	24.826	0	51.559	0	269.7	4	95.7	4	-1E+10	1	-1E+10	1	-1E+10	1	-1E+10	1	-1E+10	1	-1E+10	1
4902549	73	C	08/18/2022	13:02	-132.123	47.538	0	52.90	0	9.6920	0	32.2170	0	24.831	0	52.452	0	269.2	4	95.5	4	-1E+10	1	-1E+10	1	-1E+10	1	-1E+10	1	-1E+10	1	-1E+10	1
4902549	73	C	08/18/2022	13:02	-132.123	47.538	0	53.80	0	9.6780	0	32.2170	0	24.834	0	53.344	0	268.7	4	95.2	4	-1E+10	1	-1E+10	1	-1E+10	1	-1E+10	1	-1E+10	1	-1E+10	1
4902549	73	C	08/18/2022	13:02	-132.123	47.538	0	55.00	0	9.6590	0	32.2180	0	24.837	0	54.534	0	267.7	4	94.9	4	-1E+10	1	-1E+10	1	-1E+10	1	-1E+10	1	-1E+10	1	-1E+10	1
4902549	73	C	08/18/2022	13:02	-132.123	47.538	0	55.90	0	9.6530	0	32.2170	0	24.838	0	55.426	0	266.8	4	94.5	4	-1E+10	1	-1E+10	1	-1E+10	1	-1E+10	1	-1E+10	1	-1E+10	1
4902549	73	C	08/18/2022	13:02	-132.123	47.538	0	56.80	0	9.6270	0	32.2190	0	24.843	0	56.318	0	265.9	4	94.1	4	-1E+10	1	-1E+10	1	-1E+10	1	-1E+10	1	-1E+10	1	-1E+10	1
4902549	73	C	08/18/2022	13:02	-132.123	47.538	0	57.90	0	9.5750	0	32.2190	0	24.852	0	57.409	0	264.9	4	93.7	4	-1E+10	1	-1E+10	1	-1E+10	1	-1E+10	1	-1E+10	1	-1E+10	1
4902549	73	C	08/18/2022	13:02	-132.123	47.538	0	59.10	0	9.4150	0	32.2290	0	24.885	0	58.598	0	263.6	4	92.9	4	-1E+10	1	-1E+10	1	-1E+10	1	-1E+10	1	-1E+10	1	-1E+10	1
4902549	73	C	08/18/2022	13:02	-132.123	47.538	0	60.10	0	9.2940	0	32.2330	0	24.907	0	59.590	0	262.4	4	92.2	4	-1E+10	1	-1E+10	1	-1E+10	1	-1E+10	1	-1E+10	1	-1E+10	1
4902549	73	C	08/18/2022	13:02	-132.123	47.538	0	61.00	0	9.1310	0	32.2430	0	24.941	0	60.482	0	261.5	4	91.6	4	-1E+10	1	-1E+10	1	-1E+10	1	-1E+10	1	-1E+10	1	-1E+10	1
4902549	73	C	08/18/2022	13:02	-132.123	47.538	0	62.00	0	8.8840	0	32.2600	0	24.992	0	61.473	0	261.6	4	91.1	4	-1E+10	1	-1E+10	1	-1E+10	1	-1E+10	1	-1E+10	1	-1E+10	1
4902549	73	C	08/18/2022	13:02	-132.123	47.538	0	63.00	0	8.7980	0	32.2640	0	25.009	0	62.464	0	260.8	4	90.7	4	-1E+10	1	-1E+10	1	-1E+10	1	-1E+10	1	-1E+10	1	-1E+10	1
4902549	73	C	08/18/2022	13:02	-132.123	47.538	0	64.00	0	8.7150	0	32.2720	0	25.028	0	63.456	0	259.8	4	90.2	4	-1E+10	1	-1E+10	1	-1E+10	1	-1E+10	1	-1E+10	1	-1E+10	1
4902549	73	C	08/18/2022	13:02	-132.123	47.538	0	65.20	0	8.6020	0	32.2860	0	25.056	0	64.645	0	259.2	4	89.8	4	-1E+10	1	-1E+10	1	-1E+10	1	-1E+10	1	-1E+10	1	-1E+10	1
4902549	73	C	08/18/2022	13:02	-132.123	47.538	0	65.90	0	8.5470	0	32.2940	0	25.070	0	65.339	0	258.8	4	89.5	4	-1E+10	1	-1E+10	1	-1E+10	1	-1E+10	1	-1E+10	1	-1E+10	1
4902549	73	C	08/18/2022	13:02	-132.123	47.538	0	67.00	0	8.5080	0	32.2980	0	25.079	0	66.430	0	258.0	4	89.2	4	-1E+10	1	-1E+10	1	-1E+10	1	-1E+10	1	-1E+10	1	-1E+10	1
4902549	73	C	08/18/2022	13:02	-132.123	47.538	0	68.10	0	8.4660	0	32.3030	0	25.089	0	67.520	0	257.1	4	88.8	4	-1E+10	1	-1E+10	1	-1E+10	1	-1E+10	1	-1E+10	1	-1E+10	1
4902549	73	C	08/18/2022	13:02	-132.123	47.538	0	68.90	0	8.4170	0	32.3080	0	25.101	0	68.313	0	256.5	4	88.5	4	-1E+10	1	-1E+10	1	-1E+10	1	-1E+10	1	-1E+10	1	-1E+10	1
4902549	73	C	08/18/2022	13:02	-132.123	47.538	0	70.10	0	8.3330	0	32.3250	0	25.126	0	69.503	0	256.0	4	88.2	4	-1E+10	1	-1E+10	1	-1E+10	1	-1E+10	1	-1E+10	1	-1E+10	1
4902549	73	C	08/18/2022	13:02	-132.123	47.538	0	71.10	0	8.1870	0	32.3230	0	25.146	0	70.494	0	255.9	4	87.9	4	-1E+10	1	-1E+10	1	-1E+10	1	-1E+10	1	-1E+10	1	-1E+10	1
4902549	73	C	08/18/2022	13:02	-132.123	47.538	0	72.30	0	8.1390	0	32.3390	0	25.166	0	71.684	0	255.3	4	87.5	4	-1E+10	1	-1E+10	1	-1E+10	1	-1E+10	1	-1E+10	1	-1E+10	1
4902549	73	C	08/18/2022	13:02	-132.123	47.538	0	73.00	0	8.0650	0	32.3360	0	25.174	0	72.378	0	254.8	4	87.2	4	-1E+10	1	-1E+10	1	-1E+10	1	-1E+10	1	-1E+10	1	-1E+10	1
4902549	73	C	08/18/2022	13:02	-132.123	47.538	0	74.00	0	8.0080	0	32.3390	0	25.185	0	73.369	0	253.9	4	86.8	4	-1E+10	1	-1E+10	1	-1E+10	1	-1E+10	1	-1E+10	1	-1E+10	1
4902549	73	C	08/18/2022	13:02	-132.123	47.538	0	75.10	0	7.9750	0	32.3480	0	25.197	0	74.459	0	252.8	4	86.4	4	-1E+10	1	-1E+10	1	-1E+10	1	-1E+10	1	-1E+10	1	-1E+10	1
4902549	73	C	08/18/2022	13:02	-132.123	47.538	0	76.10	0	7.9420	0	32.3550	0	25.207	0	75.451	0	251.5	4	85.9	4	-1E+10	1	-1E+10	1	-1E+10	1	-1E+10	1	-1E+10	1	-1E+10	1
4902549	73	C	08/18/2022	13:02	-132.123	47.538	0	77.00	0	7.8960	0	32.3650	0	25.221	0	76.343	0	250.7	4	85.5	4	-1E+10	1	-1E+10	1	-1E+10	1	-1E+10	1	-1E+10	1	-1E+10	1
4902549	73	C	08/18/2022	13:02	-132.123	47.538	0	77.90	0	7.8450	0	32.3790	0	25.239	0	77.235	0	249.4	4	85.0	4	-1E+10	1	-1E+10	1	-1E+10	1	-1E+10	1	-1E+10	1	-1E+10	1
4902549	73	C	08/18/2022	13:02	-132.123	47.538	0	79.10	0	7.8090	0	32.3830	0	25.248	0	78.425	0	247.3	4	84.2	4	-1E+10	1	-1E+10	1	-1E+10	1	-1E+10	1	-1E+10	1	-1E+10	1
4902549	73	C	08/18/2022	13:02	-132.123	47.538	0	79.90	0	7.7790	0	32.3930	0	25.260	0	79.218	0	245.5	4	83.6	4	-1E+10	1	-1E+10	1	-1E+10	1	-1E+10	1	-1E+10	1	-1E+10	1
4902549	73	C	08/18/2022	13:02	-132.123	47.538	0	81.10	0	7.7430	0	32.4120	0	25.280	0	80.407	0	242.6	4	82.5	4	-1E+10	1	-1E+10	1	-1E+10	1	-1E+10	1	-1E+10	1	-1E+10	1
4902549	73	C	08/18/2022	13:02	-132.123	47.538	0	82.00	0	7.7090	0	32.4290	0	25.298	0	81.299	0	240.2	4	81.6	4	-1E+10	1	-1E+10	1	-1E+10	1	-1E+10	1	-1E+10	1	-1E+10	1
4902549	73	C	08/18/2022	13:02	-132.123	47.538	0	83.00	0	7.6690	0	32.4550	0	25.324	0	82.290	0	243.6	4	82.7	4	-1E+10	1	-1E+10	1	-1E+10	1	-1E+10	1	-1E+10	1	-1E+10	1
4902549	73	C	08/18/2022	13:02	-132.123	47.538	0	84.00	0	7.6490	0	32.4710	0	25.340	0	83.282	0	240.7	4	81.7	4	-1E+10	1	-1E+10	1	-1E+10	1	-1E+10	1	-1E+10	1	-1E+10	1
4902549	73	C	08/18/2022	13:02	-132.123	47.538	0	84.90	0	7.6420	0	32.4870	0	25.353	0	84.174	0	237.1	4	80.5	4	-1E+10	1	-1E+10	1	-1E+10	1	-1E+10	1	-1E+10	1	-1E+10	1
4902549	73	C	08/18/2022	13:02	-132.123	47.538	0	85.90	0	7.6070	0	32.5200	0	25.384	0	85.165	0	232.9	4	79.0	4	-1E+10	1	-1E+10	1	-1E+10	1	-1E+10	1	-1E+10	1	-1E+10	1
4902549	73	C	08/18/2022	13:02	-132.123	47.538	0	87.10	0	7.5340	0	32.6050	0	25.461	0	86.355	0	228.8	4	77.6	4	-1E+10	1	-1E+10	1	-1E+10	1	-1E+10	1	-1E+10	1	-1E+10	1
4902549	73	C	08/18/2022	13:02	-132.123	47.538	0	88.00	0	7.5210	0	32.6260	0	25.479	0	87.247	0	226.5	4	76.8	4	-1E+10	1	-1E+10	1	-1E+10	1	-1E+10	1	-1E+10	1	-1E+10	1
4902549	73	C	08/18/2022	13:02	-132.123	47.538	0	89.10	0	7.5070	0	32.6630	0	25.510	0	88.337	0	223.0	4	75.6	4	-1E+10	1	-1E+10	1	-1E+10	1	-1E+10	1	-1E+10	1	-1E+10	1
4902549	73	C	08/18/2022	13:02	-132.123	47.538	0	90.10	0	7.5020	0	32.7030	0	25.542	0	89.328	0	219.4	4	74.4	4	-1E+10	1	-1E+10	1	-1E+10	1	-1E+10	1	-1E+10	1	-1E+10	1
4902549	73	C	08/18/2022	13:02	-132.123	47.538	0	91.00	0	7.5010	0	32.7160	0	25.553	0	90.220	0	213.9	4	72.5	4	-1E+10	1	-1E+10	1	-1E+10	1	-1E+10	1	-1E+10	1	-1E+10	1
4902549	73	C	08/18/2022	13:02	-132.123	47.538	0	92.00	0	7.5030	0	32.7980	0	25.617	0	91.212	0	209.6	4	71.1	4	-1E+10	1	-1E+10	1	-1E+10	1	-1E+10	1	-1E+10	1	-1E+10	1
4902549	73	C	08/18/2022	13:02	-132.123	47.538	0	93.00	0	7.4930	0	32.8320	0	25.645	0	92.203	0	206.2	4	69.9	4	-1E+10	1	-1E+10	1	-1E+10	1	-1E+10	1	-1E+10	1	-1E+10	1
4902549	73	C	08/18/2022	13:02	-132.123	47.538	0	94.00	0	7.4750	0	32.8770	0	25.683	0	93.194	0	202.9	4	68.8	4	-1E+10	1	-1E+10	1	-1E+10	1	-1E+10	1	-1E+10	1	-1E+10	1
4902549	73	C	08/18/2022	13:02	-132.123	47.538	0	95.20	0	7.4180	0	32.9860	0	25.777	0	94.383	0	200.3	4	67.9	4	-1E+10	1	-1E+10	1	-1E+10	1	-1E+10	1	-1E+10	1	-1E+10	1
4902549	73	C	08/18/2022	13:02	-132.123	47.538	0	95.80	0	7.4060	0	33.0100	0	25.797	0	94.978	0	199.1	4	67.5	4	-1E+10	1	-1E+10	1	-1E+10	1	-1E+10	1	-1E+10	1	-1E+10	1
4902549	73	C	08/18/2022	13:02	-132.123	47.538	0	96.80	0	7.3970	0	33.0330	0	25.817	0	95.969	0	197.6	4	67.0	4	-1E+10	1	-1E+10	1	-1E+10	1	-1E+10	1	-1E+10	1	-1E+10	1
4902549	73	C	08/18/2022	13:02	-132.123	47.538	0	97.90	0	7.3970	0	33.0670	0	25.843	0	97.060	0	196.1	4	66.5	4	-1E+10	1	-1E+10	1	-1E+10	1	-1E+10	1	-1E+10	1	-1E+10	1
4902549	73	C	08/18/2022	13:02	-132.123	47.538	0	98.90	0	7.3840	0	33.0930	0	25.866	0	98.051	0	194.9	4	66.1	4	-1E+10	1	-1E+10	1	-1E+10	1	-1E+10	1	-1E+10	1	-1E+10	1
4902549	73	C	08/18/2022	13:02	-132.123	47.538	0	100.00	0	7.3880	0	33.0990	0	25.870	0	99.141	0	193.7	4	65.7	4	-1E+10	1	-1E+10	1	-1E+10	1	-1E+10	1	-1E+10	1	-1E+10	1
4902549	73	C	08/18/2022	13:02	-132.123	47.538	0	101.10	0	7.3890	0	33.1020	0	25.872	0	100.231	0	192.4	4	65.2	4	-1E+10	1	-1E+10	1	-1E+10	1	-1E+10	1	-1E+10	1	-1E+10	1
4902549	73	C	08/18/2022	13:02	-132.123	47.538	0	102.00	0	7.3860	0	33.1150	0	25.883	0	101.123	0	191.3	4	64.9	4	-1E+10	1	-1E+10	1	-1E+10	1	-1E+10	1	-1E+10	1	-1E+10	1
4902549	73	C	08/18/2022	13:02	-132.123	47.538	0	102.80	0	7.3820	0	33.1280	0	25.894	0	101.916	0	190.0	4	64.4	4	-1E+10	1	-1E+10	1	-1E+10	1	-1E+10	1	-1E+10	1	-1E+10	1
4902549	73	C	08/18/2022	13:02	-132.123	47.538	0	103.90	0	7.3850	0	33.1340	0	25.898	0	103.007	0	188.0	4	63.8	4	-1E+10	1	-1E+10	1	-1E+10	1	-1E+10	1	-1E+10	1	-1E+10	1
4902549	73	C	08/18/2022	13:02	-132.123	47.538	0	105.10	0	7.3850	0	33.1610	0	25.919	0	104.196	0	185.8	4	63.0	4	-1E+10	1	-1E+10	1	-1E+10	1	-1E+10	1	-1E+10	1	-1E+10	1
4902549	73	C	08/18/2022	13:02	-132.123	47.538	0	106.00	0	7.3860	0	33.1780	0	25.932	0	105.088	0	183.9	4	62.4	4	-1E+10	1	-1E+10	1	-1E+10	1	-1E+10	1	-1E+10	1	-1E+10	1
4902549	73	C	08/18/2022	13:02	-132.123	47.538	0	106.80	0	7.3850	0	33.1870	0	25.940	0	105.881	0	181.8	4	61.7	4	-1E+10	1	-1E+10	1	-1E+10	1	-1E+10	1	-1E+10	1	-1E+10	1
4902549	73	C	08/18/2022	13:02	-132.123	47.538	0	108.10	0	7.3850	0	33.2380	0	25.980	0	107.169	0	179.3	4	60.9	4	-1E+10	1	-1E+10	1	-1E+10	1	-1E+10	1	-1E+10	1	-1E+10	1
4902549	73	C	08/18/2022	13:02	-132.123	47.538	0	109.00	0	7.3910	0	33.2720	0	26.006	0	108.061	0	177.7	4	60.3	4	-1E+10	1	-1E+10	1	-1E+10	1	-1E+10	1	-1E+10	1	-1E+10	1
4902549	73	C	08/18/2022	13:02	-132.123	47.538	0	109.90	0	7.3920	0	33.2780	0	26.010	0	108.953	0	175.9	4	59.7	4	-1E+10	1	-1E+10	1	-1E+10	1	-1E+10	1	-1E+10	1	-1E+10	1
4902549	73	C	08/18/2022	13:02	-132.123	47.538	0	110.90	0	7.3920	0	33.2980	0	26.026	0	109.945	0	174.3	4	59.2	4	-1E+10	1	-1E+10	1	-1E+10	1	-1E+10	1	-1E+10	1	-1E+10	1
4902549	73	C	08/18/2022	13:02	-132.123	47.538	0	111.90	0	7.3910	0	33.3190	0	26.043	0	110.936	0	172.7	4	58.7	4	-1E+10	1	-1E+10	1	-1E+10	1	-1E+10	1	-1E+10	1	-1E+10	1
4902549	73	C	08/18/2022	13:02	-132.123	47.538	0	113.00	0	7.3860	0	33.3600	0	26.076	0	112.026	0	171.4	4	58.2	4	-1E+10	1	-1E+10	1	-1E+10	1	-1E+10	1	-1E+10	1	-1E+10	1
4902549	73	C	08/18/2022	13:02	-132.123	47.538	0	114.00	0	7.3850	0	33.3790	0	26.091	0	113.017	0	170.3	4	57.8	4	-1E+10	1	-1E+10	1	-1E+10	1	-1E+10	1	-1E+10	1	-1E+10	1
4902549	73	C	08/18/2022	13:02	-132.123	47.538	0	115.10	0	7.3830	0	33.3970	0	26.105	0	114.107	0	169.2	4	57.5	4	-1E+10	1	-1E+10	1	-1E+10	1	-1E+10	1	-1E+10	1	-1E+10	1
4902549	73	C	08/18/2022	13:02	-132.123	47.538	0	115.80	0	7.3860	0	33.4160	0	26.120	0	114.801	0	168.3	4	57.2	4	-1E+10	1	-1E+10	1	-1E+10	1	-1E+10	1	-1E+10	1	-1E+10	1
4902549	73	C	08/18/2022	13:02	-132.123	47.538	0	116.90	0	7.3860	0	33.4210	0	26.124	0	115.891	0	167.1	4	56.8	4	-1E+10	1	-1E+10	1	-1E+10	1	-1E+10	1	-1E+10	1	-1E+10	1
4902549	73	C	08/18/2022	13:02	-132.123	47.538	0	118.10	0	7.3860	0	33.4190	0	26.122	0	117.080	0	165.7	4	56.3	4	-1E+10	1	-1E+10	1	-1E+10	1	-1E+10	1	-1E+10	1	-1E+10	1
4902549	73	C	08/18/2022	13:02	-132.123	47.538	0	118.90	0	7.3810	0	33.4500	0	26.147	0	117.873	0	164.8	4	56.0	4	-1E+10	1	-1E+10	1	-1E+10	1	-1E+10	1	-1E+10	1	-1E+10	1
4902549	73	C	08/18/2022	13:02	-132.123	47.538	0	119.70	0	7.3740	0	33.4790	0	26.171	0	118.666	0	164.4	4	55.9	4	-1E+10	1	-1E+10	1	-1E+10	1	-1E+10	1	-1E+10	1	-1E+10	1
4902549	73	C	08/18/2022	13:02	-132.123	47.538	0	120.90	0	7.3750	0	33.4880	0	26.178	0	119.855	0	163.8	4	55.7	4	-1E+10	1	-1E+10	1	-1E+10	1	-1E+10	1	-1E+10	1	-1E+10	1
4902549	73	C	08/18/2022	13:02	-132.123	47.538	0	122.20	0	7.3750	0	33.4910	0	26.180	0	121.144	0	163.2	4	55.5	4	-1E+10	1	-1E+10	1	-1E+10	1	-1E+10	1	-1E+10	1	-1E+10	1
4902549	73	C	08/18/2022	13:02	-132.123	47.538	0	123.10	0	7.3750	0	33.4920	0	26.181	0	122.036	0	162.7	4	55.3	4	-1E+10	1	-1E+10	1	-1E+10	1	-1E+10	1	-1E+10	1	-1E+10	1
4902549	73	C	08/18/2022	13:02	-132.123	47.538	0	123.90	0	7.3740	0	33.4960	0	26.184	0	122.829	0	162.3	4	55.2	4	-1E+10	1	-1E+10	1	-1E+10	1	-1E+10	1	-1E+10	1	-1E+10	1
4902549	73	C	08/18/2022	13:02	-132.123	47.538	0	124.80	0	7.3730	0	33.5000	0	26.188	0	123.721	0	161.8	4	55.0	4	-1E+10	1	-1E+10	1	-1E+10	1	-1E+10	1	-1E+10	1	-1E+10	1
4902549	73	C	08/18/2022	13:02	-132.123	47.538	0	125.60	0	7.3720	0	33.5020	0	26.189	0	124.513	0	161.3	4	54.8	4	-1E+10	1	-1E+10	1	-1E+10	1	-1E+10	1	-1E+10	1	-1E+10	1
4902549	73	C	08/18/2022	13:02	-132.123	47.538	0	126.90	0	7.3670	0	33.5070	0	26.194	0	125.802	0	160.4	4	54.5	4	-1E+10	1	-1E+10	1	-1E+10	1	-1E+10	1	-1E+10	1	-1E+10	1
4902549	73	C	08/18/2022	13:02	-132.123	47.538	0	128.30	0	7.3660	0	33.5090	0	26.196	0	127.189	0	159.2	4	54.1	4	-1E+10	1	-1E+10	1	-1E+10	1	-1E+10	1	-1E+10	1	-1E+10	1
4902549	73	C	08/18/2022	13:02	-132.123	47.538	0	129.20	0	7.3620	0	33.5140	0	26.200	0	128.081	0	158.3	4	53.8	4	-1E+10	1	-1E+10	1	-1E+10	1	-1E+10	1	-1E+10	1	-1E+10	1
4902549	73	C	08/18/2022	13:02	-132.123	47.538	0	130.10	0	7.3590	0	33.5270	0	26.211	0	128.973	0	157.4	4	53.5	4	-1E+10	1	-1E+10	1	-1E+10	1	-1E+10	1	-1E+10	1	-1E+10	1
4902549	73	C	08/18/2022	13:02	-132.123	47.538	0	131.10	0	7.3510	0	33.5510	0	26.231	0	129.964	0	156.7	4	53.2	4	-1E+10	1	-1E+10	1	-1E+10	1	-1E+10	1	-1E+10	1	-1E+10	1
4902549	73	C	08/18/2022	13:02	-132.123	47.538	0	132.10	0	7.3430	0	33.5780	0	26.253	0	130.955	0	156.2	4	53.1	4	-1E+10	1	-1E+10	1	-1E+10	1	-1E+10	1	-1E+10	1	-1E+10	1
4902549	73	C	08/18/2022	13:02	-132.123	47.538	0	133.00	0	7.3360	0	33.5930	0	26.266	0	131.847	0	155.9	4	53.0	4	-1E+10	1	-1E+10	1	-1E+10	1	-1E+10	1	-1E+10	1	-1E+10	1
4902549	73	C	08/18/2022	13:02	-132.123	47.538	0	134.00	0	7.3320	0	33.5990	0	26.271	0	132.838	0	155.6	4	52.9	4	-1E+10	1	-1E+10	1	-1E+10	1	-1E+10	1	-1E+10	1	-1E+10	1
4902549	73	C	08/18/2022	13:02	-132.123	47.538	0	135.10	0	7.3300	0	33.6040	0	26.276	0	133.928	0	155.4	4	52.8	4	-1E+10	1	-1E+10	1	-1E+10	1	-1E+10	1	-1E+10	1	-1E+10	1
4902549	73	C	08/18/2022	13:02	-132.123	47.538	0	136.10	0	7.3290	0	33.6060	0	26.277	0	134.919	0	155.1	4	52.7	4	-1E+10	1	-1E+10	1	-1E+10	1	-1E+10	1	-1E+10	1	-1E+10	1
4902549	73	C	08/18/2022	13:02	-132.123	47.538	0	137.10	0	7.3280	0	33.6070	0	26.278	0	135.910	0	154.8	4	52.6	4	-1E+10	1	-1E+10	1	-1E+10	1	-1E+10	1	-1E+10	1	-1E+10	1
4902549	73	C	08/18/2022	13:02	-132.123	47.538	0	138.20	0	7.3270	0	33.6090	0	26.280	0	137.000	0	154.5	4	52.5	4	-1E+10	1	-1E+10	1	-1E+10	1	-1E+10	1	-1E+10	1	-1E+10	1
4902549	73	C	08/18/2022	13:02	-132.123	47.538	0	139.20	0	7.3270	0	33.6100	0	26.281	0	137.991	0	154.1	4	52.4	4	-1E+10	1	-1E+10	1	-1E+10	1	-1E+10	1	-1E+10	1	-1E+10	1
4902549	73	C	08/18/2022	13:02	-132.123	47.538	0	140.20	0	7.3250	0	33.6120	0	26.283	0	138.982	0	153.7	4	52.2	4	-1E+10	1	-1E+10	1	-1E+10	1	-1E+10	1	-1E+10	1	-1E+10	1
4902549	73	C	08/18/2022	13:02	-132.123	47.538	0	141.30	0	7.3230	0	33.6140	0	26.285	0	140.072	0	153.3	4	52.1	4	-1E+10	1	-1E+10	1	-1E+10	1	-1E+10	1	-1E+10	1	-1E+10	1
4902549	73	C	08/18/2022	13:02	-132.123	47.538	0	142.30	0	7.3200	0	33.6170	0	26.287	0	141.063	0	152.9	4	51.9	4	-1E+10	1	-1E+10	1	-1E+10	1	-1E+10	1	-1E+10	1	-1E+10	1
4902549	73	C	08/18/2022	13:02	-132.123	47.538	0	143.40	0	7.3100	0	33.6270	0	26.297	0	142.153	0	152.5	4	51.8	4	-1E+10	1	-1E+10	1	-1E+10	1	-1E+10	1	-1E+10	1	-1E+10	1
4902549	73	C	08/18/2022	13:02	-132.123	47.538	0	144.50	0	7.2740	0	33.6620	0	26.329	0	143.243	0	152.3	4	51.7	4	-1E+10	1	-1E+10	1	-1E+10	1	-1E+10	1	-1E+10	1	-1E+10	1
4902549	73	C	08/18/2022	13:02	-132.123	47.538	0	145.50	0	7.2640	0	33.6710	0	26.338	0	144.234	0	152.1	4	51.6	4	-1E+10	1	-1E+10	1	-1E+10	1	-1E+10	1	-1E+10	1	-1E+10	1
4902549	73	C	08/18/2022	13:02	-132.123	47.538	0	146.60	0	7.2500	0	33.6790	0	26.346	0	145.324	0	151.9	4	51.5	4	-1E+10	1	-1E+10	1	-1E+10	1	-1E+10	1	-1E+10	1	-1E+10	1
4902549	73	C	08/18/2022	13:02	-132.123	47.538	0	147.60	0	7.2400	0	33.6860	0	26.353	0	146.315	0	151.5	4	51.4	4	-1E+10	1	-1E+10	1	-1E+10	1	-1E+10	1	-1E+10	1	-1E+10	1
4902549	73	C	08/18/2022	13:02	-132.123	47.538	0	148.70	0	7.2290	0	33.6930	0	26.360	0	147.405	0	151.2	4	51.3	4	-1E+10	1	-1E+10	1	-1E+10	1	-1E+10	1	-1E+10	1	-1E+10	1
4902549	73	C	08/18/2022	13:02	-132.123	47.538	0	149.70	0	7.2200	0	33.7000	0	26.367	0	148.396	0	150.9	4	51.2	4	-1E+10	1	-1E+10	1	-1E+10	1	-1E+10	1	-1E+10	1	-1E+10	1
4902549	73	C	08/18/2022	13:02	-132.123	47.538	0	150.80	0	7.2150	0	33.7040	0	26.370	0	149.486	0	150.6	4	51.1	4	-1E+10	1	-1E+10	1	-1E+10	1	-1E+10	1	-1E+10	1	-1E+10	1
4902549	73	C	08/18/2022	13:02	-132.123	47.538	0	151.90	0	7.2020	0	33.7120	0	26.379	0	150.576	0	150.5	4	51.0	4	-1E+10	1	-1E+10	1	-1E+10	1	-1E+10	1	-1E+10	1	-1E+10	1
4902549	73	C	08/18/2022	13:02	-132.123	47.538	0	152.90	0	7.1850	0	33.7230	0	26.390	0	151.567	0	150.6	4	51.0	4	-1E+10	1	-1E+10	1	-1E+10	1	-1E+10	1	-1E+10	1	-1E+10	1
4902549	73	C	08/18/2022	13:02	-132.123	47.538	0	154.00	0	7.1650	0	33.7340	0	26.401	0	152.657	0	150.6	4	51.0	4	-1E+10	1	-1E+10	1	-1E+10	1	-1E+10	1	-1E+10	1	-1E+10	1
4902549	73	C	08/18/2022	13:02	-132.123	47.538	0	155.10	0	7.1560	0	33.7360	0	26.404	0	153.747	0	150.7	4	51.1	4	-1E+10	1	-1E+10	1	-1E+10	1	-1E+10	1	-1E+10	1	-1E+10	1
4902549	73	C	08/18/2022	13:02	-132.123	47.538	0	156.20	0	7.1490	0	33.7360	0	26.405	0	154.837	0	150.7	4	51.0	4	-1E+10	1	-1E+10	1	-1E+10	1	-1E+10	1	-1E+10	1	-1E+10	1
4902549	73	C	08/18/2022	13:02	-132.123	47.538	0	157.30	0	7.1410	0	33.7400	0	26.409	0	155.927	0	150.6	4	51.0	4	-1E+10	1	-1E+10	1	-1E+10	1	-1E+10	1	-1E+10	1	-1E+10	1
4902549	73	C	08/18/2022	13:02	-132.123	47.538	0	158.40	0	7.1290	0	33.7450	0	26.415	0	157.017	0	150.6	4	51.0	4	-1E+10	1	-1E+10	1	-1E+10	1	-1E+10	1	-1E+10	1	-1E+10	1
4902549	73	C	08/18/2022	13:02	-132.123	47.538	0	159.40	0	7.1260	0	33.7450	0	26.415	0	158.008	0	150.5	4	51.0	4	-1E+10	1	-1E+10	1	-1E+10	1	-1E+10	1	-1E+10	1	-1E+10	1
4902549	73	C	08/18/2022	13:02	-132.123	47.538	0	160.50	0	7.1030	0	33.7520	0	26.424	0	159.098	0	150.4	4	50.9	4	-1E+10	1	-1E+10	1	-1E+10	1	-1E+10	1	-1E+10	1	-1E+10	1
4902549	73	C	08/18/2022	13:02	-132.123	47.538	0	161.60	0	7.0930	0	33.7530	0	26.426	0	160.188	0	150.1	4	50.8	4	-1E+10	1	-1E+10	1	-1E+10	1	-1E+10	1	-1E+10	1	-1E+10	1
4902549	73	C	08/18/2022	13:02	-132.123	47.538	0	162.60	0	7.0720	0	33.7600	0	26.434	0	161.179	0	149.8	4	50.7	4	-1E+10	1	-1E+10	1	-1E+10	1	-1E+10	1	-1E+10	1	-1E+10	1
4902549	73	C	08/18/2022	13:02	-132.123	47.538	0	163.70	0	7.0550	0	33.7650	0	26.441	0	162.269	0	149.5	4	50.5	4	-1E+10	1	-1E+10	1	-1E+10	1	-1E+10	1	-1E+10	1	-1E+10	1
4902549	73	C	08/18/2022	13:02	-132.123	47.538	0	164.80	0	7.0480	0	33.7680	0	26.444	0	163.359	0	149.2	4	50.5	4	-1E+10	1	-1E+10	1	-1E+10	1	-1E+10	1	-1E+10	1	-1E+10	1
4902549	73	C	08/18/2022	13:02	-132.123	47.538	0	165.90	0	7.0410	0	33.7700	0	26.447	0	164.449	0	149.0	4	50.4	4	-1E+10	1	-1E+10	1	-1E+10	1	-1E+10	1	-1E+10	1	-1E+10	1
4902549	73	C	08/18/2022	13:02	-132.123	47.538	0	166.90	0	7.0390	0	33.7700	0	26.447	0	165.440	0	148.7	4	50.3	4	-1E+10	1	-1E+10	1	-1E+10	1	-1E+10	1	-1E+10	1	-1E+10	1
4902549	73	C	08/18/2022	13:02	-132.123	47.538	0	168.00	0	7.0340	0	33.7720	0	26.449	0	166.530	0	148.5	4	50.2	4	-1E+10	1	-1E+10	1	-1E+10	1	-1E+10	1	-1E+10	1	-1E+10	1
4902549	73	C	08/18/2022	13:02	-132.123	47.538	0	169.00	0	7.0250	0	33.7720	0	26.450	0	167.520	0	148.1	4	50.0	4	-1E+10	1	-1E+10	1	-1E+10	1	-1E+10	1	-1E+10	1	-1E+10	1
4902549	73	C	08/18/2022	13:02	-132.123	47.538	0	170.10	0	7.0160	0	33.7750	0	26.454	0	168.610	0	147.7	4	49.9	4	-1E+10	1	-1E+10	1	-1E+10	1	-1E+10	1	-1E+10	1	-1E+10	1
4902549	73	C	08/18/2022	13:02	-132.123	47.538	0	171.10	0	7.0100	0	33.7760	0	26.456	0	169.601	0	147.1	4	49.7	4	-1E+10	1	-1E+10	1	-1E+10	1	-1E+10	1	-1E+10	1	-1E+10	1
4902549	73	C	08/18/2022	13:02	-132.123	47.538	0	172.20	0	7.0070	0	33.7750	0	26.455	0	170.691	0	146.4	4	49.5	4	-1E+10	1	-1E+10	1	-1E+10	1	-1E+10	1	-1E+10	1	-1E+10	1
4902549	73	C	08/18/2022	13:02	-132.123	47.538	0	173.20	0	6.9960	0	33.7790	0	26.460	0	171.682	0	145.8	4	49.2	4	-1E+10	1	-1E+10	1	-1E+10	1	-1E+10	1	-1E+10	1	-1E+10	1
4902549	73	C	08/18/2022	13:02	-132.123	47.538	0	174.30	0	6.9880	0	33.7820	0	26.463	0	172.772	0	145.2	4	49.0	4	-1E+10	1	-1E+10	1	-1E+10	1	-1E+10	1	-1E+10	1	-1E+10	1
4902549	73	C	08/18/2022	13:02	-132.123	47.538	0	175.30	0	6.9740	0	33.7840	0	26.467	0	173.763	0	144.6	4	48.8	4	-1E+10	1	-1E+10	1	-1E+10	1	-1E+10	1	-1E+10	1	-1E+10	1
4902549	73	C	08/18/2022	13:02	-132.123	47.538	0	176.30	0	6.9460	0	33.7910	0	26.476	0	174.753	0	144.0	4	48.6	4	-1E+10	1	-1E+10	1	-1E+10	1	-1E+10	1	-1E+10	1	-1E+10	1
4902549	73	C	08/18/2022	13:02	-132.123	47.538	0	177.40	0	6.9260	0	33.7940	0	26.481	0	175.843	0	143.5	4	48.4	4	-1E+10	1	-1E+10	1	-1E+10	1	-1E+10	1	-1E+10	1	-1E+10	1
4902549	73	C	08/18/2022	13:02	-132.123	47.538	0	178.50	0	6.9120	0	33.7950	0	26.484	0	176.933	0	142.9	4	48.2	4	-1E+10	1	-1E+10	1	-1E+10	1	-1E+10	1	-1E+10	1	-1E+10	1
4902549	73	C	08/18/2022	13:02	-132.123	47.538	0	179.50	0	6.8900	0	33.7970	0	26.489	0	177.924	0	142.1	4	47.9	4	-1E+10	1	-1E+10	1	-1E+10	1	-1E+10	1	-1E+10	1	-1E+10	1
4902549	73	C	08/18/2022	13:02	-132.123	47.538	0	180.60	0	6.8740	0	33.7990	0	26.492	0	179.014	0	141.3	4	47.6	4	-1E+10	1	-1E+10	1	-1E+10	1	-1E+10	1	-1E+10	1	-1E+10	1
4902549	73	C	08/18/2022	13:02	-132.123	47.538	0	181.60	0	6.8570	0	33.8020	0	26.497	0	180.005	0	140.5	4	47.3	4	-1E+10	1	-1E+10	1	-1E+10	1	-1E+10	1	-1E+10	1	-1E+10	1
4902549	73	C	08/18/2022	13:02	-132.123	47.538	0	182.70	0	6.8380	0	33.8040	0	26.501	0	181.094	0	139.8	4	47.0	4	-1E+10	1	-1E+10	1	-1E+10	1	-1E+10	1	-1E+10	1	-1E+10	1
4902549	73	C	08/18/2022	13:02	-132.123	47.538	0	183.70	0	6.8370	0	33.8040	0	26.501	0	182.085	0	138.9	4	46.7	4	-1E+10	1	-1E+10	1	-1E+10	1	-1E+10	1	-1E+10	1	-1E+10	1
4902549	73	C	08/18/2022	13:02	-132.123	47.538	0	184.80	0	6.8200	0	33.8080	0	26.507	0	183.175	0	138.1	4	46.5	4	-1E+10	1	-1E+10	1	-1E+10	1	-1E+10	1	-1E+10	1	-1E+10	1
4902549	73	C	08/18/2022	13:02	-132.123	47.538	0	185.80	0	6.8140	0	33.8110	0	26.510	0	184.166	0	137.3	4	46.2	4	-1E+10	1	-1E+10	1	-1E+10	1	-1E+10	1	-1E+10	1	-1E+10	1
4902549	73	C	08/18/2022	13:02	-132.123	47.538	0	186.90	0	6.8060	0	33.8130	0	26.513	0	185.256	0	136.8	4	46.0	4	-1E+10	1	-1E+10	1	-1E+10	1	-1E+10	1	-1E+10	1	-1E+10	1
4902549	73	C	08/18/2022	13:02	-132.123	47.538	0	187.90	0	6.8050	0	33.8140	0	26.513	0	186.246	0	136.2	4	45.8	4	-1E+10	1	-1E+10	1	-1E+10	1	-1E+10	1	-1E+10	1	-1E+10	1
4902549	73	C	08/18/2022	13:02	-132.123	47.538	0	188.90	0	6.8030	0	33.8150	0	26.515	0	187.237	0	135.5	4	45.6	4	-1E+10	1	-1E+10	1	-1E+10	1	-1E+10	1	-1E+10	1	-1E+10	1
4902549	73	C	08/18/2022	13:02	-132.123	47.538	0	189.80	0	6.8000	0	33.8160	0	26.516	0	188.129	0	134.9	4	45.4	4	-1E+10	1	-1E+10	1	-1E+10	1	-1E+10	1	-1E+10	1	-1E+10	1
4902549	73	C	08/18/2022	13:02	-132.123	47.538	0	190.90	0	6.7970	0	33.8170	0	26.517	0	189.219	0	134.1	4	45.1	4	-1E+10	1	-1E+10	1	-1E+10	1	-1E+10	1	-1E+10	1	-1E+10	1
4902549	73	C	08/18/2022	13:02	-132.123	47.538	0	191.70	0	6.7940	0	33.8180	0	26.518	0	190.011	0	133.5	4	44.9	4	-1E+10	1	-1E+10	1	-1E+10	1	-1E+10	1	-1E+10	1	-1E+10	1
4902549	73	C	08/18/2022	13:02	-132.123	47.538	0	192.80	0	6.7890	0	33.8170	0	26.518	0	191.101	0	132.3	4	44.5	4	-1E+10	1	-1E+10	1	-1E+10	1	-1E+10	1	-1E+10	1	-1E+10	1
4902549	73	C	08/18/2022	13:02	-132.123	47.538	0	194.00	0	6.7760	0	33.8200	0	26.522	0	192.290	0	131.3	4	44.1	4	-1E+10	1	-1E+10	1	-1E+10	1	-1E+10	1	-1E+10	1	-1E+10	1
4902549	73	C	08/18/2022	13:02	-132.123	47.538	0	194.70	0	6.7750	0	33.8200	0	26.522	0	192.983	0	130.6	4	43.9	4	-1E+10	1	-1E+10	1	-1E+10	1	-1E+10	1	-1E+10	1	-1E+10	1
4902549	73	C	08/18/2022	13:02	-132.123	47.538	0	195.80	0	6.7710	0	33.8210	0	26.524	0	194.073	0	129.6	4	43.6	4	-1E+10	1	-1E+10	1	-1E+10	1	-1E+10	1	-1E+10	1	-1E+10	1
4902549	73	C	08/18/2022	13:02	-132.123	47.538	0	197.00	0	6.7350	0	33.8310	0	26.536	0	195.262	0	129.0	4	43.3	4	-1E+10	1	-1E+10	1	-1E+10	1	-1E+10	1	-1E+10	1	-1E+10	1
4902549	73	C	08/18/2022	13:02	-132.123	47.538	0	197.80	0	6.7240	0	33.8320	0	26.539	0	196.055	0	128.9	4	43.3	4	-1E+10	1	-1E+10	1	-1E+10	1	-1E+10	1	-1E+10	1	-1E+10	1
4902549	73	C	08/18/2022	13:02	-132.123	47.538	0	199.00	0	6.7140	0	33.8320	0	26.540	0	197.243	0	128.5	4	43.1	4	-1E+10	1	-1E+10	1	-1E+10	1	-1E+10	1	-1E+10	1	-1E+10	1
4902549	73	C	08/18/2022	13:02	-132.123	47.538	0	200.20	0	6.6950	0	33.8330	0	26.543	0	198.432	0	128.1	4	43.0	4	-1E+10	1	-1E+10	1	-1E+10	1	-1E+10	1	-1E+10	1	-1E+10	1
4902549	73	C	08/18/2022	13:02	-132.123	47.538	0	201.00	0	6.6950	0	33.8330	0	26.543	0	199.225	0	127.7	4	42.9	4	-1E+10	1	-1E+10	1	-1E+10	1	-1E+10	1	-1E+10	1	-1E+10	1
4902549	73	C	08/18/2022	13:02	-132.123	47.538	0	201.80	0	6.6940	0	33.8340	0	26.544	0	200.017	0	127.2	4	42.7	4	-1E+10	1	-1E+10	1	-1E+10	1	-1E+10	1	-1E+10	1	-1E+10	1
4902549	73	C	08/18/2022	13:02	-132.123	47.538	0	202.90	0	6.6840	0	33.8340	0	26.546	0	201.107	0	126.5	4	42.4	4	-1E+10	1	-1E+10	1	-1E+10	1	-1E+10	1	-1E+10	1	-1E+10	1
4902549	73	C	08/18/2022	13:02	-132.123	47.538	0	204.20	0	6.6860	0	33.8350	0	26.546	0	202.395	0	125.8	4	42.2	4	-1E+10	1	-1E+10	1	-1E+10	1	-1E+10	1	-1E+10	1	-1E+10	1
4902549	73	C	08/18/2022	13:02	-132.123	47.538	0	205.00	0	6.6760	0	33.8360	0	26.548	0	203.187	0	125.3	4	42.0	4	-1E+10	1	-1E+10	1	-1E+10	1	-1E+10	1	-1E+10	1	-1E+10	1
4902549	73	C	08/18/2022	13:02	-132.123	47.538	0	205.80	0	6.6530	0	33.8380	0	26.553	0	203.980	0	124.7	4	41.8	4	-1E+10	1	-1E+10	1	-1E+10	1	-1E+10	1	-1E+10	1	-1E+10	1
4902549	73	C	08/18/2022	13:02	-132.123	47.538	0	207.00	0	6.6380	0	33.8380	0	26.555	0	205.169	0	123.8	4	41.5	4	-1E+10	1	-1E+10	1	-1E+10	1	-1E+10	1	-1E+10	1	-1E+10	1
4902549	73	C	08/18/2022	13:02	-132.123	47.538	0	208.30	0	6.6340	0	33.8400	0	26.557	0	206.457	0	122.9	4	41.2	4	-1E+10	1	-1E+10	1	-1E+10	1	-1E+10	1	-1E+10	1	-1E+10	1
4902549	73	C	08/18/2022	13:02	-132.123	47.538	0	209.10	0	6.6310	0	33.8400	0	26.557	0	207.249	0	122.3	4	41.0	4	-1E+10	1	-1E+10	1	-1E+10	1	-1E+10	1	-1E+10	1	-1E+10	1
4902549	73	C	08/18/2022	13:02	-132.123	47.538	0	209.90	0	6.6200	0	33.8450	0	26.563	0	208.042	0	121.5	4	40.7	4	-1E+10	1	-1E+10	1	-1E+10	1	-1E+10	1	-1E+10	1	-1E+10	1
4902549	73	C	08/18/2022	13:02	-132.123	47.538	0	210.80	0	6.5900	0	33.8450	0	26.567	0	208.933	0	120.9	4	40.5	4	-1E+10	1	-1E+10	1	-1E+10	1	-1E+10	1	-1E+10	1	-1E+10	1
4902549	73	C	08/18/2022	13:02	-132.123	47.538	0	211.70	0	6.5770	0	33.8500	0	26.572	0	209.825	0	120.3	4	40.3	4	-1E+10	1	-1E+10	1	-1E+10	1	-1E+10	1	-1E+10	1	-1E+10	1
4902549	73	C	08/18/2022	13:02	-132.123	47.538	0	212.90	0	6.5570	0	33.8490	0	26.574	0	211.014	0	119.5	4	40.0	4	-1E+10	1	-1E+10	1	-1E+10	1	-1E+10	1	-1E+10	1	-1E+10	1
4902549	73	C	08/18/2022	13:02	-132.123	47.538	0	214.30	0	6.5080	0	33.8530	0	26.584	0	212.400	0	118.7	4	39.7	4	-1E+10	1	-1E+10	1	-1E+10	1	-1E+10	1	-1E+10	1	-1E+10	1
4902549	73	C	08/18/2022	13:02	-132.123	47.538	0	215.20	0	6.4910	0	33.8550	0	26.588	0	213.292	0	118.3	4	39.5	4	-1E+10	1	-1E+10	1	-1E+10	1	-1E+10	1	-1E+10	1	-1E+10	1
4902549	73	C	08/18/2022	13:02	-132.123	47.538	0	216.10	0	6.5020	0	33.8580	0	26.589	0	214.184	0	118.0	4	39.4	4	-1E+10	1	-1E+10	1	-1E+10	1	-1E+10	1	-1E+10	1	-1E+10	1
4902549	73	C	08/18/2022	13:02	-132.123	47.538	0	217.00	0	6.4990	0	33.8590	0	26.590	0	215.075	0	117.6	4	39.3	4	-1E+10	1	-1E+10	1	-1E+10	1	-1E+10	1	-1E+10	1	-1E+10	1
4902549	73	C	08/18/2022	13:02	-132.123	47.538	0	217.90	0	6.4920	0	33.8580	0	26.590	0	215.967	0	117.1	4	39.1	4	-1E+10	1	-1E+10	1	-1E+10	1	-1E+10	1	-1E+10	1	-1E+10	1
4902549	73	C	08/18/2022	13:02	-132.123	47.538	0	218.80	0	6.4830	0	33.8590	0	26.592	0	216.858	0	116.8	4	39.0	4	-1E+10	1	-1E+10	1	-1E+10	1	-1E+10	1	-1E+10	1	-1E+10	1
4902549	73	C	08/18/2022	13:02	-132.123	47.538	0	219.60	0	6.4880	0	33.8600	0	26.592	0	217.651	0	116.3	4	38.8	4	-1E+10	1	-1E+10	1	-1E+10	1	-1E+10	1	-1E+10	1	-1E+10	1
4902549	73	C	08/18/2022	13:02	-132.123	47.538	0	220.50	0	6.4780	0	33.8620	0	26.595	0	218.542	0	115.9	4	38.7	4	-1E+10	1	-1E+10	1	-1E+10	1	-1E+10	1	-1E+10	1	-1E+10	1
4902549	73	C	08/18/2022	13:02	-132.123	47.538	0	221.90	0	6.4480	0	33.8630	0	26.600	0	219.929	0	115.3	4	38.5	4	-1E+10	1	-1E+10	1	-1E+10	1	-1E+10	1	-1E+10	1	-1E+10	1
4902549	73	C	08/18/2022	13:02	-132.123	47.538	0	223.30	0	6.4270	0	33.8640	0	26.603	0	221.316	0	114.7	4	38.2	4	-1E+10	1	-1E+10	1	-1E+10	1	-1E+10	1	-1E+10	1	-1E+10	1
4902549	73	C	08/18/2022	13:02	-132.123	47.538	0	224.20	0	6.4260	0	33.8650	0	26.604	0	222.207	0	114.2	4	38.1	4	-1E+10	1	-1E+10	1	-1E+10	1	-1E+10	1	-1E+10	1	-1E+10	1
4902549	73	C	08/18/2022	13:02	-132.123	47.538	0	225.20	0	6.4150	0	33.8660	0	26.606	0	223.198	0	113.8	4	37.9	4	-1E+10	1	-1E+10	1	-1E+10	1	-1E+10	1	-1E+10	1	-1E+10	1
4902549	73	C	08/18/2022	13:02	-132.123	47.538	0	226.10	0	6.4120	0	33.8660	0	26.607	0	224.090	0	113.2	4	37.8	4	-1E+10	1	-1E+10	1	-1E+10	1	-1E+10	1	-1E+10	1	-1E+10	1
4902549	73	C	08/18/2022	13:02	-132.123	47.538	0	227.00	0	6.3950	0	33.8680	0	26.610	0	224.981	0	112.7	4	37.6	4	-1E+10	1	-1E+10	1	-1E+10	1	-1E+10	1	-1E+10	1	-1E+10	1
4902549	73	C	08/18/2022	13:02	-132.123	47.538	0	228.00	0	6.3900	0	33.8670	0	26.610	0	225.972	0	112.2	4	37.4	4	-1E+10	1	-1E+10	1	-1E+10	1	-1E+10	1	-1E+10	1	-1E+10	1
4902549	73	C	08/18/2022	13:02	-132.123	47.538	0	228.90	0	6.3860	0	33.8700	0	26.613	0	226.863	0	111.7	4	37.2	4	-1E+10	1	-1E+10	1	-1E+10	1	-1E+10	1	-1E+10	1	-1E+10	1
4902549	73	C	08/18/2022	13:02	-132.123	47.538	0	229.80	0	6.3730	0	33.8690	0	26.614	0	227.755	0	111.3	4	37.1	4	-1E+10	1	-1E+10	1	-1E+10	1	-1E+10	1	-1E+10	1	-1E+10	1
4902549	73	C	08/18/2022	13:02	-132.123	47.538	0	230.70	0	6.3720	0	33.8700	0	26.615	0	228.646	0	110.8	4	36.9	4	-1E+10	1	-1E+10	1	-1E+10	1	-1E+10	1	-1E+10	1	-1E+10	1
4902549	73	C	08/18/2022	13:02	-132.123	47.538	0	231.70	0	6.3520	0	33.8710	0	26.618	0	229.637	0	110.4	4	36.8	4	-1E+10	1	-1E+10	1	-1E+10	1	-1E+10	1	-1E+10	1	-1E+10	1
4902549	73	C	08/18/2022	13:02	-132.123	47.538	0	232.60	0	6.3160	0	33.8720	0	26.624	0	230.528	0	110.2	4	36.7	4	-1E+10	1	-1E+10	1	-1E+10	1	-1E+10	1	-1E+10	1	-1E+10	1
4902549	73	C	08/18/2022	13:02	-132.123	47.538	0	233.60	0	6.3090	0	33.8730	0	26.626	0	231.519	0	109.7	4	36.5	4	-1E+10	1	-1E+10	1	-1E+10	1	-1E+10	1	-1E+10	1	-1E+10	1
4902549	73	C	08/18/2022	13:02	-132.123	47.538	0	234.50	0	6.2980	0	33.8730	0	26.627	0	232.410	0	109.3	4	36.4	4	-1E+10	1	-1E+10	1	-1E+10	1	-1E+10	1	-1E+10	1	-1E+10	1
4902549	73	C	08/18/2022	13:02	-132.123	47.538	0	235.90	0	6.2860	0	33.8730	0	26.629	0	233.797	0	108.7	4	36.1	4	-1E+10	1	-1E+10	1	-1E+10	1	-1E+10	1	-1E+10	1	-1E+10	1
4902549	73	C	08/18/2022	13:02	-132.123	47.538	0	237.30	0	6.2720	0	33.8740	0	26.631	0	235.184	0	108.1	4	35.9	4	-1E+10	1	-1E+10	1	-1E+10	1	-1E+10	1	-1E+10	1	-1E+10	1
4902549	73	C	08/18/2022	13:02	-132.123	47.538	0	238.30	0	6.2680	0	33.8750	0	26.632	0	236.174	0	107.6	4	35.8	4	-1E+10	1	-1E+10	1	-1E+10	1	-1E+10	1	-1E+10	1	-1E+10	1
4902549	73	C	08/18/2022	13:02	-132.123	47.538	0	239.20	0	6.2590	0	33.8760	0	26.634	0	237.066	0	107.1	4	35.6	4	-1E+10	1	-1E+10	1	-1E+10	1	-1E+10	1	-1E+10	1	-1E+10	1
4902549	73	C	08/18/2022	13:02	-132.123	47.538	0	240.20	0	6.2530	0	33.8750	0	26.634	0	238.056	0	106.6	4	35.4	4	-1E+10	1	-1E+10	1	-1E+10	1	-1E+10	1	-1E+10	1	-1E+10	1
4902549	73	C	08/18/2022	13:02	-132.123	47.538	0	241.10	0	6.2320	0	33.8780	0	26.639	0	238.947	0	106.2	4	35.3	4	-1E+10	1	-1E+10	1	-1E+10	1	-1E+10	1	-1E+10	1	-1E+10	1
4902549	73	C	08/18/2022	13:02	-132.123	47.538	0	242.00	0	6.2170	0	33.8790	0	26.642	0	239.839	0	105.8	4	35.1	4	-1E+10	1	-1E+10	1	-1E+10	1	-1E+10	1	-1E+10	1	-1E+10	1
4902549	73	C	08/18/2022	13:02	-132.123	47.538	0	243.00	0	6.2030	0	33.8830	0	26.647	0	240.829	0	105.5	4	35.0	4	-1E+10	1	-1E+10	1	-1E+10	1	-1E+10	1	-1E+10	1	-1E+10	1
4902549	73	C	08/18/2022	13:02	-132.123	47.538	0	243.90	0	6.1980	0	33.8810	0	26.646	0	241.721	0	105.2	4	34.9	4	-1E+10	1	-1E+10	1	-1E+10	1	-1E+10	1	-1E+10	1	-1E+10	1
4902549	73	C	08/18/2022	13:02	-132.123	47.538	0	244.80	0	6.1790	0	33.8820	0	26.649	0	242.612	0	104.9	4	34.8	4	-1E+10	1	-1E+10	1	-1E+10	1	-1E+10	1	-1E+10	1	-1E+10	1
4902549	73	C	08/18/2022	13:02	-132.123	47.538	0	245.80	0	6.1690	0	33.8810	0	26.650	0	243.603	0	104.6	4	34.7	4	-1E+10	1	-1E+10	1	-1E+10	1	-1E+10	1	-1E+10	1	-1E+10	1
4902549	73	C	08/18/2022	13:02	-132.123	47.538	0	246.70	0	6.1620	0	33.8810	0	26.651	0	244.494	0	104.3	4	34.6	4	-1E+10	1	-1E+10	1	-1E+10	1	-1E+10	1	-1E+10	1	-1E+10	1
4902549	73	C	08/18/2022	13:02	-132.123	47.538	0	247.60	0	6.1540	0	33.8810	0	26.652	0	245.386	0	104.0	4	34.5	4	-1E+10	1	-1E+10	1	-1E+10	1	-1E+10	1	-1E+10	1	-1E+10	1
4902549	73	C	08/18/2022	13:02	-132.123	47.538	0	248.60	0	6.1470	0	33.8820	0	26.654	0	246.376	0	103.7	4	34.4	4	-1E+10	1	-1E+10	1	-1E+10	1	-1E+10	1	-1E+10	1	-1E+10	1
4902549	73	C	08/18/2022	13:02	-132.123	47.538	0	249.90	0	6.1380	0	33.8820	0	26.655	0	247.664	0	103.2	4	34.2	4	-1E+10	1	-1E+10	1	-1E+10	1	-1E+10	1	-1E+10	1	-1E+10	1
4902549	73	C	08/18/2022	13:02	-132.123	47.538	0	251.30	0	6.1200	0	33.8840	0	26.659	0	249.050	0	102.8	4	34.0	4	-1E+10	1	-1E+10	1	-1E+10	1	-1E+10	1	-1E+10	1	-1E+10	1
4902549	73	C	08/18/2022	13:02	-132.123	47.538	0	252.30	0	6.1130	0	33.8840	0	26.659	0	250.041	0	102.5	4	33.9	4	-1E+10	1	-1E+10	1	-1E+10	1	-1E+10	1	-1E+10	1	-1E+10	1
4902549	73	C	08/18/2022	13:02	-132.123	47.538	0	253.20	0	6.1050	0	33.8840	0	26.660	0	250.932	0	102.1	4	33.8	4	-1E+10	1	-1E+10	1	-1E+10	1	-1E+10	1	-1E+10	1	-1E+10	1
4902549	73	C	08/18/2022	13:02	-132.123	47.538	0	254.10	0	6.1030	0	33.8840	0	26.661	0	251.823	0	101.8	4	33.7	4	-1E+10	1	-1E+10	1	-1E+10	1	-1E+10	1	-1E+10	1	-1E+10	1
4902549	73	C	08/18/2022	13:02	-132.123	47.538	0	255.00	0	6.0960	0	33.8840	0	26.662	0	252.715	0	101.4	4	33.6	4	-1E+10	1	-1E+10	1	-1E+10	1	-1E+10	1	-1E+10	1	-1E+10	1
4902549	73	C	08/18/2022	13:02	-132.123	47.538	0	255.90	0	6.0830	0	33.8850	0	26.664	0	253.606	0	101.1	4	33.5	4	-1E+10	1	-1E+10	1	-1E+10	1	-1E+10	1	-1E+10	1	-1E+10	1
4902549	73	C	08/18/2022	13:02	-132.123	47.538	0	256.80	0	6.0750	0	33.8850	0	26.665	0	254.498	0	100.7	4	33.3	4	-1E+10	1	-1E+10	1	-1E+10	1	-1E+10	1	-1E+10	1	-1E+10	1
4902549	73	C	08/18/2022	13:02	-132.123	47.538	0	257.70	0	6.0720	0	33.8850	0	26.665	0	255.389	0	100.3	4	33.2	4	-1E+10	1	-1E+10	1	-1E+10	1	-1E+10	1	-1E+10	1	-1E+10	1
4902549	73	C	08/18/2022	13:02	-132.123	47.538	0	258.60	0	6.0700	0	33.8850	0	26.666	0	256.280	0	99.9	4	33.1	4	-1E+10	1	-1E+10	1	-1E+10	1	-1E+10	1	-1E+10	1	-1E+10	1
4902549	73	C	08/18/2022	13:02	-132.123	47.538	0	259.90	0	6.0580	0	33.8860	0	26.668	0	257.568	0	99.3	4	32.8	4	-1E+10	1	-1E+10	1	-1E+10	1	-1E+10	1	-1E+10	1	-1E+10	1
4902549	73	C	08/18/2022	13:02	-132.123	47.538	0	261.30	0	6.0340	0	33.8870	0	26.672	0	258.954	0	98.8	4	32.7	4	-1E+10	1	-1E+10	1	-1E+10	1	-1E+10	1	-1E+10	1	-1E+10	1
4902549	73	C	08/18/2022	13:02	-132.123	47.538	0	262.20	0	6.0320	0	33.8890	0	26.674	0	259.846	0	98.4	4	32.5	4	-1E+10	1	-1E+10	1	-1E+10	1	-1E+10	1	-1E+10	1	-1E+10	1
4902549	73	C	08/18/2022	13:02	-132.123	47.538	0	263.10	0	6.0180	0	33.8900	0	26.676	0	260.737	0	98.1	4	32.4	4	-1E+10	1	-1E+10	1	-1E+10	1	-1E+10	1	-1E+10	1	-1E+10	1
4902549	73	C	08/18/2022	13:02	-132.123	47.538	0	264.00	0	6.0130	0	33.8900	0	26.677	0	261.629	0	97.7	4	32.3	4	-1E+10	1	-1E+10	1	-1E+10	1	-1E+10	1	-1E+10	1	-1E+10	1
4902549	73	C	08/18/2022	13:02	-132.123	47.538	0	264.90	0	6.0020	0	33.8900	0	26.678	0	262.520	0	97.4	4	32.2	4	-1E+10	1	-1E+10	1	-1E+10	1	-1E+10	1	-1E+10	1	-1E+10	1
4902549	73	C	08/18/2022	13:02	-132.123	47.538	0	265.80	0	5.9990	0	33.8900	0	26.679	0	263.411	0	97.0	4	32.0	4	-1E+10	1	-1E+10	1	-1E+10	1	-1E+10	1	-1E+10	1	-1E+10	1
4902549	73	C	08/18/2022	13:02	-132.123	47.538	0	266.70	0	5.9960	0	33.8890	0	26.678	0	264.303	0	96.5	4	31.9	4	-1E+10	1	-1E+10	1	-1E+10	1	-1E+10	1	-1E+10	1	-1E+10	1
4902549	73	C	08/18/2022	13:02	-132.123	47.538	0	267.60	0	5.9860	0	33.8900	0	26.680	0	265.194	0	96.1	4	31.7	4	-1E+10	1	-1E+10	1	-1E+10	1	-1E+10	1	-1E+10	1	-1E+10	1
4902549	73	C	08/18/2022	13:02	-132.123	47.538	0	268.90	0	5.9700	0	33.8890	0	26.682	0	266.481	0	95.3	4	31.5	4	-1E+10	1	-1E+10	1	-1E+10	1	-1E+10	1	-1E+10	1	-1E+10	1
4902549	73	C	08/18/2022	13:02	-132.123	47.538	0	270.30	0	5.9560	0	33.8900	0	26.684	0	267.868	0	94.4	4	31.1	4	-1E+10	1	-1E+10	1	-1E+10	1	-1E+10	1	-1E+10	1	-1E+10	1
4902549	73	C	08/18/2022	13:02	-132.123	47.538	0	271.20	0	5.9370	0	33.8920	0	26.688	0	268.759	0	93.9	4	31.0	4	-1E+10	1	-1E+10	1	-1E+10	1	-1E+10	1	-1E+10	1	-1E+10	1
4902549	73	C	08/18/2022	13:02	-132.123	47.538	0	272.10	0	5.9210	0	33.8920	0	26.690	0	269.651	0	93.3	4	30.8	4	-1E+10	1	-1E+10	1	-1E+10	1	-1E+10	1	-1E+10	1	-1E+10	1
4902549	73	C	08/18/2022	13:02	-132.123	47.538	0	273.00	0	5.9100	0	33.8920	0	26.691	0	270.542	0	92.8	4	30.6	4	-1E+10	1	-1E+10	1	-1E+10	1	-1E+10	1	-1E+10	1	-1E+10	1
4902549	73	C	08/18/2022	13:02	-132.123	47.538	0	273.90	0	5.8830	0	33.8970	0	26.699	0	271.433	0	92.3	4	30.4	4	-1E+10	1	-1E+10	1	-1E+10	1	-1E+10	1	-1E+10	1	-1E+10	1
4902549	73	C	08/18/2022	13:02	-132.123	47.538	0	274.80	0	5.8760	0	33.8930	0	26.696	0	272.324	0	91.8	4	30.2	4	-1E+10	1	-1E+10	1	-1E+10	1	-1E+10	1	-1E+10	1	-1E+10	1
4902549	73	C	08/18/2022	13:02	-132.123	47.538	0	275.70	0	5.8860	0	33.8960	0	26.698	0	273.216	0	91.4	4	30.1	4	-1E+10	1	-1E+10	1	-1E+10	1	-1E+10	1	-1E+10	1	-1E+10	1
4902549	73	C	08/18/2022	13:02	-132.123	47.538	0	276.60	0	5.8670	0	33.8970	0	26.701	0	274.107	0	91.0	4	30.0	4	-1E+10	1	-1E+10	1	-1E+10	1	-1E+10	1	-1E+10	1	-1E+10	1
4902549	73	C	08/18/2022	13:02	-132.123	47.538	0	277.90	0	5.8450	0	33.8980	0	26.704	0	275.394	0	90.5	4	29.8	4	-1E+10	1	-1E+10	1	-1E+10	1	-1E+10	1	-1E+10	1	-1E+10	1
4902549	73	C	08/18/2022	13:02	-132.123	47.538	0	279.30	0	5.8200	0	33.9000	0	26.709	0	276.781	0	90.0	4	29.6	4	-1E+10	1	-1E+10	1	-1E+10	1	-1E+10	1	-1E+10	1	-1E+10	1
4902549	73	C	08/18/2022	13:02	-132.123	47.538	0	280.30	0	5.8140	0	33.8990	0	26.709	0	277.771	0	89.7	4	29.5	4	-1E+10	1	-1E+10	1	-1E+10	1	-1E+10	1	-1E+10	1	-1E+10	1
4902549	73	C	08/18/2022	13:02	-132.123	47.538	0	281.20	0	5.8110	0	33.9000	0	26.710	0	278.662	0	89.4	4	29.4	4	-1E+10	1	-1E+10	1	-1E+10	1	-1E+10	1	-1E+10	1	-1E+10	1
4902549	73	C	08/18/2022	13:02	-132.123	47.538	0	282.10	0	5.8050	0	33.8990	0	26.710	0	279.554	0	89.0	4	29.3	4	-1E+10	1	-1E+10	1	-1E+10	1	-1E+10	1	-1E+10	1	-1E+10	1
4902549	73	C	08/18/2022	13:02	-132.123	47.538	0	283.00	0	5.7920	0	33.9000	0	26.712	0	280.445	0	88.6	4	29.1	4	-1E+10	1	-1E+10	1	-1E+10	1	-1E+10	1	-1E+10	1	-1E+10	1
4902549	73	C	08/18/2022	13:02	-132.123	47.538	0	284.00	0	5.7870	0	33.9000	0	26.713	0	281.435	0	88.1	4	29.0	4	-1E+10	1	-1E+10	1	-1E+10	1	-1E+10	1	-1E+10	1	-1E+10	1
4902549	73	C	08/18/2022	13:02	-132.123	47.538	0	284.90	0	5.7750	0	33.8990	0	26.714	0	282.327	0	87.6	4	28.8	4	-1E+10	1	-1E+10	1	-1E+10	1	-1E+10	1	-1E+10	1	-1E+10	1
4902549	73	C	08/18/2022	13:02	-132.123	47.538	0	285.80	0	5.7540	0	33.9010	0	26.718	0	283.218	0	87.2	4	28.6	4	-1E+10	1	-1E+10	1	-1E+10	1	-1E+10	1	-1E+10	1	-1E+10	1
4902549	73	C	08/18/2022	13:02	-132.123	47.538	0	286.80	0	5.7360	0	33.9030	0	26.722	0	284.208	0	86.9	4	28.5	4	-1E+10	1	-1E+10	1	-1E+10	1	-1E+10	1	-1E+10	1	-1E+10	1
4902549	73	C	08/18/2022	13:02	-132.123	47.538	0	287.70	0	5.7350	0	33.9030	0	26.722	0	285.099	0	86.6	4	28.4	4	-1E+10	1	-1E+10	1	-1E+10	1	-1E+10	1	-1E+10	1	-1E+10	1
4902549	73	C	08/18/2022	13:02	-132.123	47.538	0	288.60	0	5.7350	0	33.9040	0	26.723	0	285.991	0	86.2	4	28.3	4	-1E+10	1	-1E+10	1	-1E+10	1	-1E+10	1	-1E+10	1	-1E+10	1
4902549	73	C	08/18/2022	13:02	-132.123	47.538	0	289.50	0	5.7320	0	33.9040	0	26.723	0	286.882	0	85.8	4	28.2	4	-1E+10	1	-1E+10	1	-1E+10	1	-1E+10	1	-1E+10	1	-1E+10	1
4902549	73	C	08/18/2022	13:02	-132.123	47.538	0	290.90	0	5.7220	0	33.9050	0	26.725	0	288.268	0	85.1	4	27.9	4	-1E+10	1	-1E+10	1	-1E+10	1	-1E+10	1	-1E+10	1	-1E+10	1
4902549	73	C	08/18/2022	13:02	-132.123	47.538	0	292.40	0	5.7090	0	33.9060	0	26.727	0	289.754	0	84.4	4	27.7	4	-1E+10	1	-1E+10	1	-1E+10	1	-1E+10	1	-1E+10	1	-1E+10	1
4902549	73	C	08/18/2022	13:02	-132.123	47.538	0	293.30	0	5.7050	0	33.9070	0	26.729	0	290.645	0	84.0	4	27.6	4	-1E+10	1	-1E+10	1	-1E+10	1	-1E+10	1	-1E+10	1	-1E+10	1
4902549	73	C	08/18/2022	13:02	-132.123	47.538	0	294.30	0	5.7010	0	33.9080	0	26.730	0	291.635	0	83.6	4	27.4	4	-1E+10	1	-1E+10	1	-1E+10	1	-1E+10	1	-1E+10	1	-1E+10	1
4902549	73	C	08/18/2022	13:02	-132.123	47.538	0	295.20	0	5.6950	0	33.9090	0	26.731	0	292.526	0	83.3	4	27.3	4	-1E+10	1	-1E+10	1	-1E+10	1	-1E+10	1	-1E+10	1	-1E+10	1
4902549	73	C	08/18/2022	13:02	-132.123	47.538	0	296.20	0	5.6860	0	33.9100	0	26.733	0	293.516	0	82.9	4	27.2	4	-1E+10	1	-1E+10	1	-1E+10	1	-1E+10	1	-1E+10	1	-1E+10	1
4902549	73	C	08/18/2022	13:02	-132.123	47.538	0	297.10	0	5.6780	0	33.9090	0	26.734	0	294.408	0	82.5	4	27.0	4	-1E+10	1	-1E+10	1	-1E+10	1	-1E+10	1	-1E+10	1	-1E+10	1
4902549	73	C	08/18/2022	13:02	-132.123	47.538	0	298.10	0	5.6780	0	33.9100	0	26.734	0	295.398	0	82.1	4	26.9	4	-1E+10	1	-1E+10	1	-1E+10	1	-1E+10	1	-1E+10	1	-1E+10	1
4902549	73	C	08/18/2022	13:02	-132.123	47.538	0	299.00	0	5.6830	0	33.9130	0	26.736	0	296.289	0	81.8	4	26.8	4	-1E+10	1	-1E+10	1	-1E+10	1	-1E+10	1	-1E+10	1	-1E+10	1
4902549	73	C	08/18/2022	13:02	-132.123	47.538	0	300.00	0	5.6640	0	33.9140	0	26.739	0	297.279	0	81.5	4	26.7	4	-1E+10	1	-1E+10	1	-1E+10	1	-1E+10	1	-1E+10	1	-1E+10	1
4902549	73	C	08/18/2022	13:02	-132.123	47.538	0	300.90	0	5.6570	0	33.9120	0	26.738	0	298.171	0	81.2	4	26.6	4	-1E+10	1	-1E+10	1	-1E+10	1	-1E+10	1	-1E+10	1	-1E+10	1
4902549	73	C	08/18/2022	13:02	-132.123	47.538	0	301.90	0	5.6510	0	33.9150	0	26.742	0	299.161	0	80.9	4	26.5	4	-1E+10	1	-1E+10	1	-1E+10	1	-1E+10	1	-1E+10	1	-1E+10	1
4902549	73	C	08/18/2022	13:02	-132.123	47.538	0	302.80	0	5.6460	0	33.9120	0	26.740	0	300.052	0	80.6	4	26.4	4	-1E+10	1	-1E+10	1	-1E+10	1	-1E+10	1	-1E+10	1	-1E+10	1
4902549	73	C	08/18/2022	13:02	-132.123	47.538	0	303.80	0	5.6420	0	33.9120	0	26.740	0	301.042	0	80.3	4	26.3	4	-1E+10	1	-1E+10	1	-1E+10	1	-1E+10	1	-1E+10	1	-1E+10	1
4902549	73	C	08/18/2022	13:02	-132.123	47.538	0	304.80	0	5.6220	0	33.9130	0	26.744	0	302.032	0	79.9	4	26.2	4	-1E+10	1	-1E+10	1	-1E+10	1	-1E+10	1	-1E+10	1	-1E+10	1
4902549	73	C	08/18/2022	13:02	-132.123	47.538	0	305.70	0	5.6080	0	33.9140	0	26.746	0	302.923	0	79.6	4	26.1	4	-1E+10	1	-1E+10	1	-1E+10	1	-1E+10	1	-1E+10	1	-1E+10	1
4902549	73	C	08/18/2022	13:02	-132.123	47.538	0	306.70	0	5.6250	0	33.9210	0	26.750	0	303.914	0	79.5	4	26.0	4	-1E+10	1	-1E+10	1	-1E+10	1	-1E+10	1	-1E+10	1	-1E+10	1
4902549	73	C	08/18/2022	13:02	-132.123	47.538	0	307.70	0	5.6020	0	33.9200	0	26.752	0	304.904	0	79.5	4	26.0	4	-1E+10	1	-1E+10	1	-1E+10	1	-1E+10	1	-1E+10	1	-1E+10	1
4902549	73	C	08/18/2022	13:02	-132.123	47.538	0	308.60	0	5.5980	0	33.9180	0	26.750	0	305.795	0	79.5	4	26.0	4	-1E+10	1	-1E+10	1	-1E+10	1	-1E+10	1	-1E+10	1	-1E+10	1
4902549	73	C	08/18/2022	13:02	-132.123	47.538	0	309.60	0	5.5840	0	33.9180	0	26.752	0	306.785	0	79.5	4	26.0	4	-1E+10	1	-1E+10	1	-1E+10	1	-1E+10	1	-1E+10	1	-1E+10	1
4902549	73	C	08/18/2022	13:02	-132.123	47.538	0	310.60	0	5.5800	0	33.9170	0	26.752	0	307.775	0	79.4	4	26.0	4	-1E+10	1	-1E+10	1	-1E+10	1	-1E+10	1	-1E+10	1	-1E+10	1
4902549	73	C	08/18/2022	13:02	-132.123	47.538	0	311.50	0	5.5730	0	33.9170	0	26.753	0	308.666	0	79.3	4	25.9	4	-1E+10	1	-1E+10	1	-1E+10	1	-1E+10	1	-1E+10	1	-1E+10	1
4902549	73	C	08/18/2022	13:02	-132.123	47.538	0	312.50	0	5.5660	0	33.9160	0	26.753	0	309.657	0	79.2	4	25.9	4	-1E+10	1	-1E+10	1	-1E+10	1	-1E+10	1	-1E+10	1	-1E+10	1
4902549	73	C	08/18/2022	13:02	-132.123	47.538	0	313.50	0	5.5480	0	33.9190	0	26.757	0	310.647	0	79.1	4	25.8	4	-1E+10	1	-1E+10	1	-1E+10	1	-1E+10	1	-1E+10	1	-1E+10	1
4902549	73	C	08/18/2022	13:02	-132.123	47.538	0	314.90	0	5.5360	0	33.9140	0	26.755	0	312.033	0	78.7	4	25.7	4	-1E+10	1	-1E+10	1	-1E+10	1	-1E+10	1	-1E+10	1	-1E+10	1
4902549	73	C	08/18/2022	13:02	-132.123	47.538	0	316.40	0	5.5290	0	33.9140	0	26.756	0	313.518	0	78.3	4	25.6	4	-1E+10	1	-1E+10	1	-1E+10	1	-1E+10	1	-1E+10	1	-1E+10	1
4902549	73	C	08/18/2022	13:02	-132.123	47.538	0	317.30	0	5.5270	0	33.9140	0	26.756	0	314.409	0	78.0	4	25.5	4	-1E+10	1	-1E+10	1	-1E+10	1	-1E+10	1	-1E+10	1	-1E+10	1
4902549	73	C	08/18/2022	13:02	-132.123	47.538	0	318.30	0	5.5190	0	33.9110	0	26.754	0	315.399	0	77.6	4	25.4	4	-1E+10	1	-1E+10	1	-1E+10	1	-1E+10	1	-1E+10	1	-1E+10	1
4902549	73	C	08/18/2022	13:02	-132.123	47.538	0	319.30	0	5.5120	0	33.9180	0	26.761	0	316.390	0	77.2	4	25.2	4	-1E+10	1	-1E+10	1	-1E+10	1	-1E+10	1	-1E+10	1	-1E+10	1
4902549	73	C	08/18/2022	13:02	-132.123	47.538	0	320.20	0	5.4950	0	33.9160	0	26.761	0	317.281	0	76.8	4	25.1	4	-1E+10	1	-1E+10	1	-1E+10	1	-1E+10	1	-1E+10	1	-1E+10	1
4902549	73	C	08/18/2022	13:02	-132.123	47.538	0	321.20	0	5.4940	0	33.9160	0	26.761	0	318.271	0	76.5	4	25.0	4	-1E+10	1	-1E+10	1	-1E+10	1	-1E+10	1	-1E+10	1	-1E+10	1
4902549	73	C	08/18/2022	13:02	-132.123	47.538	0	322.20	0	5.4730	0	33.9170	0	26.765	0	319.261	0	76.2	4	24.9	4	-1E+10	1	-1E+10	1	-1E+10	1	-1E+10	1	-1E+10	1	-1E+10	1
4902549	73	C	08/18/2022	13:02	-132.123	47.538	0	323.20	0	5.4760	0	33.9170	0	26.764	0	320.251	0	75.9	4	24.8	4	-1E+10	1	-1E+10	1	-1E+10	1	-1E+10	1	-1E+10	1	-1E+10	1
4902549	73	C	08/18/2022	13:02	-132.123	47.538	0	324.20	0	5.4560	0	33.9170	0	26.767	0	321.241	0	75.6	4	24.7	4	-1E+10	1	-1E+10	1	-1E+10	1	-1E+10	1	-1E+10	1	-1E+10	1
4902549	73	C	08/18/2022	13:02	-132.123	47.538	0	325.10	0	5.4520	0	33.9180	0	26.768	0	322.132	0	75.3	4	24.6	4	-1E+10	1	-1E+10	1	-1E+10	1	-1E+10	1	-1E+10	1	-1E+10	1
4902549	73	C	08/18/2022	13:02	-132.123	47.538	0	326.10	0	5.4470	0	33.9190	0	26.769	0	323.122	0	74.9	4	24.4	4	-1E+10	1	-1E+10	1	-1E+10	1	-1E+10	1	-1E+10	1	-1E+10	1
4902549	73	C	08/18/2022	13:02	-132.123	47.538	0	327.10	0	5.4470	0	33.9190	0	26.769	0	324.112	0	74.5	4	24.3	4	-1E+10	1	-1E+10	1	-1E+10	1	-1E+10	1	-1E+10	1	-1E+10	1
4902549	73	C	08/18/2022	13:02	-132.123	47.538	0	328.10	0	5.4390	0	33.9210	0	26.772	0	325.102	0	74.1	4	24.2	4	-1E+10	1	-1E+10	1	-1E+10	1	-1E+10	1	-1E+10	1	-1E+10	1
4902549	73	C	08/18/2022	13:02	-132.123	47.538	0	329.00	0	5.4250	0	33.9200	0	26.773	0	325.994	0	73.8	4	24.1	4	-1E+10	1	-1E+10	1	-1E+10	1	-1E+10	1	-1E+10	1	-1E+10	1
4902549	73	C	08/18/2022	13:02	-132.123	47.538	0	330.00	0	5.4090	0	33.9220	0	26.776	0	326.984	0	73.5	4	24.0	4	-1E+10	1	-1E+10	1	-1E+10	1	-1E+10	1	-1E+10	1	-1E+10	1
4902549	73	C	08/18/2022	13:02	-132.123	47.538	0	331.00	0	5.4050	0	33.9230	0	26.778	0	327.974	0	73.2	4	23.8	4	-1E+10	1	-1E+10	1	-1E+10	1	-1E+10	1	-1E+10	1	-1E+10	1
4902549	73	C	08/18/2022	13:02	-132.123	47.538	0	332.00	0	5.3980	0	33.9220	0	26.778	0	328.964	0	72.8	4	23.7	4	-1E+10	1	-1E+10	1	-1E+10	1	-1E+10	1	-1E+10	1	-1E+10	1
4902549	73	C	08/18/2022	13:02	-132.123	47.538	0	333.20	0	5.3970	0	33.9220	0	26.778	0	330.152	0	72.3	4	23.5	4	-1E+10	1	-1E+10	1	-1E+10	1	-1E+10	1	-1E+10	1	-1E+10	1
4902549	73	C	08/18/2022	13:02	-132.123	47.538	0	334.20	0	5.3940	0	33.9230	0	26.779	0	331.142	0	71.8	4	23.4	4	-1E+10	1	-1E+10	1	-1E+10	1	-1E+10	1	-1E+10	1	-1E+10	1
4902549	73	C	08/18/2022	13:02	-132.123	47.538	0	335.20	0	5.3930	0	33.9230	0	26.779	0	332.132	0	71.3	4	23.2	4	-1E+10	1	-1E+10	1	-1E+10	1	-1E+10	1	-1E+10	1	-1E+10	1
4902549	73	C	08/18/2022	13:02	-132.123	47.538	0	336.20	0	5.3870	0	33.9250	0	26.781	0	333.122	0	70.8	4	23.1	4	-1E+10	1	-1E+10	1	-1E+10	1	-1E+10	1	-1E+10	1	-1E+10	1
4902549	73	C	08/18/2022	13:02	-132.123	47.538	0	337.00	0	5.3790	0	33.9270	0	26.784	0	333.914	0	70.4	4	22.9	4	-1E+10	1	-1E+10	1	-1E+10	1	-1E+10	1	-1E+10	1	-1E+10	1
4902549	73	C	08/18/2022	13:02	-132.123	47.538	0	338.20	0	5.3860	0	33.9320	0	26.787	0	335.102	0	70.1	4	22.8	4	-1E+10	1	-1E+10	1	-1E+10	1	-1E+10	1	-1E+10	1	-1E+10	1
4902549	73	C	08/18/2022	13:02	-132.123	47.538	0	339.20	0	5.3520	0	33.9300	0	26.789	0	336.092	0	69.8	4	22.7	4	-1E+10	1	-1E+10	1	-1E+10	1	-1E+10	1	-1E+10	1	-1E+10	1
4902549	73	C	08/18/2022	13:02	-132.123	47.538	0	340.20	0	5.3470	0	33.9290	0	26.789	0	337.082	0	69.4	4	22.6	4	-1E+10	1	-1E+10	1	-1E+10	1	-1E+10	1	-1E+10	1	-1E+10	1
4902549	73	C	08/18/2022	13:02	-132.123	47.538	0	341.20	0	5.3370	0	33.9310	0	26.792	0	338.072	0	69.1	4	22.5	4	-1E+10	1	-1E+10	1	-1E+10	1	-1E+10	1	-1E+10	1	-1E+10	1
4902549	73	C	08/18/2022	13:02	-132.123	47.538	0	342.20	0	5.3330	0	33.9320	0	26.793	0	339.062	0	68.8	4	22.4	4	-1E+10	1	-1E+10	1	-1E+10	1	-1E+10	1	-1E+10	1	-1E+10	1
4902549	73	C	08/18/2022	13:02	-132.123	47.538	0	343.20	0	5.3330	0	33.9310	0	26.793	0	340.052	0	68.4	4	22.3	4	-1E+10	1	-1E+10	1	-1E+10	1	-1E+10	1	-1E+10	1	-1E+10	1
4902549	73	C	08/18/2022	13:02	-132.123	47.538	0	344.20	0	5.3280	0	33.9310	0	26.793	0	341.042	0	68.0	4	22.1	4	-1E+10	1	-1E+10	1	-1E+10	1	-1E+10	1	-1E+10	1	-1E+10	1
4902549	73	C	08/18/2022	13:02	-132.123	47.538	0	345.20	0	5.3220	0	33.9310	0	26.794	0	342.032	0	67.5	4	22.0	4	-1E+10	1	-1E+10	1	-1E+10	1	-1E+10	1	-1E+10	1	-1E+10	1
4902549	73	C	08/18/2022	13:02	-132.123	47.538	0	346.20	0	5.3080	0	33.9340	0	26.798	0	343.022	0	67.1	4	21.8	4	-1E+10	1	-1E+10	1	-1E+10	1	-1E+10	1	-1E+10	1	-1E+10	1
4902549	73	C	08/18/2022	13:02	-132.123	47.538	0	347.20	0	5.3080	0	33.9340	0	26.798	0	344.012	0	66.7	4	21.7	4	-1E+10	1	-1E+10	1	-1E+10	1	-1E+10	1	-1E+10	1	-1E+10	1
4902549	73	C	08/18/2022	13:02	-132.123	47.538	0	348.20	0	5.3000	0	33.9360	0	26.800	0	345.002	0	66.3	4	21.6	4	-1E+10	1	-1E+10	1	-1E+10	1	-1E+10	1	-1E+10	1	-1E+10	1
4902549	73	C	08/18/2022	13:02	-132.123	47.538	0	349.20	0	5.2930	0	33.9370	0	26.802	0	345.992	0	65.9	4	21.4	4	-1E+10	1	-1E+10	1	-1E+10	1	-1E+10	1	-1E+10	1	-1E+10	1
4902549	73	C	08/18/2022	13:02	-132.123	47.538	0	350.20	0	5.2880	0	33.9380	0	26.803	0	346.982	0	65.6	4	21.3	4	-1E+10	1	-1E+10	1	-1E+10	1	-1E+10	1	-1E+10	1	-1E+10	1
4902549	73	C	08/18/2022	13:02	-132.123	47.538	0	353.20	0	5.2680	0	33.9390	0	26.807	0	349.952	0	64.4	4	20.9	4	-1E+10	1	-1E+10	1	-1E+10	1	-1E+10	1	-1E+10	1	-1E+10	1
4902549	73	C	08/18/2022	13:02	-132.123	47.538	0	358.30	0	5.2620	0	33.9460	0	26.813	0	355.001	0	62.0	4	20.1	4	-1E+10	1	-1E+10	1	-1E+10	1	-1E+10	1	-1E+10	1	-1E+10	1
4902549	73	C	08/18/2022	13:02	-132.123	47.538	0	363.30	0	5.2550	0	33.9500	0	26.817	0	359.950	0	61.6	4	20.0	4	-1E+10	1	-1E+10	1	-1E+10	1	-1E+10	1	-1E+10	1	-1E+10	1
4902549	73	C	08/18/2022	13:02	-132.123	47.538	0	367.90	0	5.1660	0	33.9470	0	26.825	0	364.504	0	60.2	4	19.5	4	-1E+10	1	-1E+10	1	-1E+10	1	-1E+10	1	-1E+10	1	-1E+10	1
4902549	73	C	08/18/2022	13:02	-132.123	47.538	0	372.60	0	5.1410	0	33.9510	0	26.831	0	369.156	0	58.1	4	18.8	4	-1E+10	1	-1E+10	1	-1E+10	1	-1E+10	1	-1E+10	1	-1E+10	1
4902549	73	C	08/18/2022	13:02	-132.123	47.538	0	377.70	0	5.1100	0	33.9580	0	26.840	0	374.205	0	55.7	4	18.0	4	-1E+10	1	-1E+10	1	-1E+10	1	-1E+10	1	-1E+10	1	-1E+10	1
4902549	73	C	08/18/2022	13:02	-132.123	47.538	0	382.90	0	5.0830	0	33.9640	0	26.848	0	379.352	0	53.7	4	17.4	4	-1E+10	1	-1E+10	1	-1E+10	1	-1E+10	1	-1E+10	1	-1E+10	1
4902549	73	C	08/18/2022	13:02	-132.123	47.538	0	388.00	0	5.0380	0	33.9700	0	26.858	0	384.400	0	51.5	4	16.6	4	-1E+10	1	-1E+10	1	-1E+10	1	-1E+10	1	-1E+10	1	-1E+10	1
4902549	73	C	08/18/2022	13:02	-132.123	47.538	0	393.20	0	4.9880	0	33.9790	0	26.871	0	389.547	0	50.0	4	16.1	4	-1E+10	1	-1E+10	1	-1E+10	1	-1E+10	1	-1E+10	1	-1E+10	1
4902549	73	C	08/18/2022	13:02	-132.123	47.538	0	398.00	0	4.9690	0	33.9810	0	26.875	0	394.297	0	48.3	4	15.6	4	-1E+10	1	-1E+10	1	-1E+10	1	-1E+10	1	-1E+10	1	-1E+10	1
4902549	73	C	08/18/2022	13:02	-132.123	47.538	0	402.70	0	4.9420	0	33.9880	0	26.883	0	398.949	0	46.2	4	14.9	4	-1E+10	1	-1E+10	1	-1E+10	1	-1E+10	1	-1E+10	1	-1E+10	1
4902549	73	C	08/18/2022	13:02	-132.123	47.538	0	407.80	0	4.9260	0	33.9980	0	26.893	0	403.997	0	44.4	4	14.3	4	-1E+10	1	-1E+10	1	-1E+10	1	-1E+10	1	-1E+10	1	-1E+10	1
4902549	73	C	08/18/2022	13:02	-132.123	47.538	0	412.60	0	4.8970	0	34.0020	0	26.899	0	408.747	0	42.5	4	13.7	4	-1E+10	1	-1E+10	1	-1E+10	1	-1E+10	1	-1E+10	1	-1E+10	1
4902549	73	C	08/18/2022	13:02	-132.123	47.538	0	417.90	0	4.8780	0	34.0130	0	26.910	0	413.992	0	40.6	4	13.1	4	-1E+10	1	-1E+10	1	-1E+10	1	-1E+10	1	-1E+10	1	-1E+10	1
4902549	73	C	08/18/2022	13:02	-132.123	47.538	0	423.30	0	4.8810	0	34.0220	0	26.917	0	419.336	0	39.7	4	12.8	4	-1E+10	1	-1E+10	1	-1E+10	1	-1E+10	1	-1E+10	1	-1E+10	1
4902549	73	C	08/18/2022	13:02	-132.123	47.538	0	428.20	0	4.8570	0	34.0210	0	26.919	0	424.186	0	39.1	4	12.6	4	-1E+10	1	-1E+10	1	-1E+10	1	-1E+10	1	-1E+10	1	-1E+10	1
4902549	73	C	08/18/2022	13:02	-132.123	47.538	0	433.20	0	4.8200	0	34.0240	0	26.926	0	429.134	0	37.8	4	12.1	4	-1E+10	1	-1E+10	1	-1E+10	1	-1E+10	1	-1E+10	1	-1E+10	1
4902549	73	C	08/18/2022	13:02	-132.123	47.538	0	437.90	0	4.7810	0	34.0310	0	26.936	0	433.784	0	37.7	4	12.1	4	-1E+10	1	-1E+10	1	-1E+10	1	-1E+10	1	-1E+10	1	-1E+10	1
4902549	73	C	08/18/2022	13:02	-132.123	47.538	0	442.70	0	4.7470	0	34.0300	0	26.939	0	438.534	0	37.3	4	12.0	4	-1E+10	1	-1E+10	1	-1E+10	1	-1E+10	1	-1E+10	1	-1E+10	1
4902549	73	C	08/18/2022	13:02	-132.123	47.538	0	448.00	0	4.7290	0	34.0310	0	26.941	0	443.779	0	36.3	4	11.7	4	-1E+10	1	-1E+10	1	-1E+10	1	-1E+10	1	-1E+10	1	-1E+10	1
4902549	73	C	08/18/2022	13:02	-132.123	47.538	0	452.90	0	4.7070	0	34.0350	0	26.947	0	448.627	0	35.3	4	11.3	4	-1E+10	1	-1E+10	1	-1E+10	1	-1E+10	1	-1E+10	1	-1E+10	1
4902549	73	C	08/18/2022	13:02	-132.123	47.538	0	457.90	0	4.6910	0	34.0400	0	26.953	0	453.575	0	34.2	4	11.0	4	-1E+10	1	-1E+10	1	-1E+10	1	-1E+10	1	-1E+10	1	-1E+10	1
4902549	73	C	08/18/2022	13:02	-132.123	47.538	0	463.10	0	4.6640	0	34.0460	0	26.961	0	458.720	0	33.1	4	10.6	4	-1E+10	1	-1E+10	1	-1E+10	1	-1E+10	1	-1E+10	1	-1E+10	1
4902549	73	C	08/18/2022	13:02	-132.123	47.538	0	468.10	0	4.6360	0	34.0500	0	26.967	0	463.667	0	32.6	4	10.4	4	-1E+10	1	-1E+10	1	-1E+10	1	-1E+10	1	-1E+10	1	-1E+10	1
4902549	73	C	08/18/2022	13:02	-132.123	47.538	0	473.00	0	4.6190	0	34.0510	0	26.970	0	468.515	0	32.2	4	10.3	4	-1E+10	1	-1E+10	1	-1E+10	1	-1E+10	1	-1E+10	1	-1E+10	1
4902549	73	C	08/18/2022	13:02	-132.123	47.538	0	478.00	0	4.6040	0	34.0520	0	26.972	0	473.462	0	31.4	4	10.1	4	-1E+10	1	-1E+10	1	-1E+10	1	-1E+10	1	-1E+10	1	-1E+10	1
4902549	73	C	08/18/2022	13:02	-132.123	47.538	0	482.90	0	4.5900	0	34.0550	0	26.976	0	478.310	0	30.3	4	9.7	4	-1E+10	1	-1E+10	1	-1E+10	1	-1E+10	1	-1E+10	1	-1E+10	1
4902549	73	C	08/18/2022	13:02	-132.123	47.538	0	488.10	0	4.5780	0	34.0610	0	26.982	0	483.454	0	29.2	4	9.4	4	-1E+10	1	-1E+10	1	-1E+10	1	-1E+10	1	-1E+10	1	-1E+10	1
4902549	73	C	08/18/2022	13:02	-132.123	47.538	0	492.80	0	4.5630	0	34.0640	0	26.986	0	488.104	0	28.2	4	9.0	4	-1E+10	1	-1E+10	1	-1E+10	1	-1E+10	1	-1E+10	1	-1E+10	1
4902549	73	C	08/18/2022	13:02	-132.123	47.538	0	497.90	0	4.5420	0	34.0710	0	26.994	0	493.149	0	27.0	4	8.6	4	-1E+10	1	-1E+10	1	-1E+10	1	-1E+10	1	-1E+10	1	-1E+10	1
4902549	73	C	08/18/2022	13:02	-132.123	47.538	0	503.10	0	4.5300	0	34.0770	0	27.000	0	498.294	0	26.2	4	8.4	4	-1E+10	1	-1E+10	1	-1E+10	1	-1E+10	1	-1E+10	1	-1E+10	1
4902549	73	C	08/18/2022	13:02	-132.123	47.538	0	507.80	0	4.5190	0	34.0810	0	27.005	0	502.943	0	25.4	4	8.1	4	-1E+10	1	-1E+10	1	-1E+10	1	-1E+10	1	-1E+10	1	-1E+10	1
4902549	73	C	08/18/2022	13:02	-132.123	47.538	0	513.00	0	4.5040	0	34.0860	0	27.010	0	508.087	0	24.7	4	7.9	4	-1E+10	1	-1E+10	1	-1E+10	1	-1E+10	1	-1E+10	1	-1E+10	1
4902549	73	C	08/18/2022	13:02	-132.123	47.538	0	518.20	0	4.4890	0	34.0900	0	27.015	0	513.231	0	24.1	4	7.7	4	-1E+10	1	-1E+10	1	-1E+10	1	-1E+10	1	-1E+10	1	-1E+10	1
4902549	73	C	08/18/2022	13:02	-132.123	47.538	0	523.00	0	4.4760	0	34.0910	0	27.017	0	517.979	0	23.6	4	7.5	4	-1E+10	1	-1E+10	1	-1E+10	1	-1E+10	1	-1E+10	1	-1E+10	1
4902549	73	C	08/18/2022	13:02	-132.123	47.538	0	527.70	0	4.4690	0	34.0940	0	27.020	0	522.628	0	23.0	4	7.3	4	-1E+10	1	-1E+10	1	-1E+10	1	-1E+10	1	-1E+10	1	-1E+10	1
4902549	73	C	08/18/2022	13:02	-132.123	47.538	0	533.00	0	4.4620	0	34.0970	0	27.024	0	527.870	0	22.2	4	7.1	4	-1E+10	1	-1E+10	1	-1E+10	1	-1E+10	1	-1E+10	1	-1E+10	1
4902549	73	C	08/18/2022	13:02	-132.123	47.538	0	538.10	0	4.4370	0	34.1030	0	27.031	0	532.914	0	21.4	4	6.8	4	-1E+10	1	-1E+10	1	-1E+10	1	-1E+10	1	-1E+10	1	-1E+10	1
4902549	73	C	08/18/2022	13:02	-132.123	47.538	0	542.80	0	4.4230	0	34.1060	0	27.035	0	537.563	0	20.8	4	6.6	4	-1E+10	1	-1E+10	1	-1E+10	1	-1E+10	1	-1E+10	1	-1E+10	1
4902549	73	C	08/18/2022	13:02	-132.123	47.538	0	547.50	0	4.4100	0	34.1100	0	27.040	0	542.211	0	20.1	4	6.4	4	-1E+10	1	-1E+10	1	-1E+10	1	-1E+10	1	-1E+10	1	-1E+10	1
4902549	73	C	08/18/2022	13:02	-132.123	47.538	0	552.90	0	4.3920	0	34.1160	0	27.046	0	547.552	0	19.3	4	6.1	4	-1E+10	1	-1E+10	1	-1E+10	1	-1E+10	1	-1E+10	1	-1E+10	1
4902549	73	C	08/18/2022	13:02	-132.123	47.538	0	558.30	0	4.3760	0	34.1200	0	27.051	0	552.893	0	18.6	4	5.9	4	-1E+10	1	-1E+10	1	-1E+10	1	-1E+10	1	-1E+10	1	-1E+10	1
4902549	73	C	08/18/2022	13:02	-132.123	47.538	0	563.30	0	4.3640	0	34.1230	0	27.055	0	557.838	0	17.9	4	5.7	4	-1E+10	1	-1E+10	1	-1E+10	1	-1E+10	1	-1E+10	1	-1E+10	1
4902549	73	C	08/18/2022	13:02	-132.123	47.538	0	568.30	0	4.3570	0	34.1280	0	27.060	0	562.782	0	17.1	4	5.5	4	-1E+10	1	-1E+10	1	-1E+10	1	-1E+10	1	-1E+10	1	-1E+10	1
4902549	73	C	08/18/2022	13:02	-132.123	47.538	0	572.90	0	4.3530	0	34.1330	0	27.064	0	567.332	0	16.6	4	5.3	4	-1E+10	1	-1E+10	1	-1E+10	1	-1E+10	1	-1E+10	1	-1E+10	1
4902549	73	C	08/18/2022	13:02	-132.123	47.538	0	577.60	0	4.3300	0	34.1380	0	27.071	0	571.979	0	16.2	4	5.1	4	-1E+10	1	-1E+10	1	-1E+10	1	-1E+10	1	-1E+10	1	-1E+10	1
4902549	73	C	08/18/2022	13:02	-132.123	47.538	0	583.00	0	4.3180	0	34.1420	0	27.075	0	577.319	0	15.8	4	5.0	4	-1E+10	1	-1E+10	1	-1E+10	1	-1E+10	1	-1E+10	1	-1E+10	1
4902549	73	C	08/18/2022	13:02	-132.123	47.538	0	587.90	0	4.3080	0	34.1450	0	27.079	0	582.165	0	15.4	4	4.9	4	-1E+10	1	-1E+10	1	-1E+10	1	-1E+10	1	-1E+10	1	-1E+10	1
4902549	73	C	08/18/2022	13:02	-132.123	47.538	0	592.80	0	4.3010	0	34.1470	0	27.081	0	587.010	0	15.1	4	4.8	4	-1E+10	1	-1E+10	1	-1E+10	1	-1E+10	1	-1E+10	1	-1E+10	1
4902549	73	C	08/18/2022	13:02	-132.123	47.538	0	597.70	0	4.2910	0	34.1500	0	27.084	0	591.855	0	14.6	4	4.6	4	-1E+10	1	-1E+10	1	-1E+10	1	-1E+10	1	-1E+10	1	-1E+10	1
4902549	73	C	08/18/2022	13:02	-132.123	47.538	0	602.70	0	4.2790	0	34.1550	0	27.090	0	596.799	0	14.2	4	4.5	4	-1E+10	1	-1E+10	1	-1E+10	1	-1E+10	1	-1E+10	1	-1E+10	1
4902549	73	C	08/18/2022	13:02	-132.123	47.538	0	607.80	0	4.2720	0	34.1580	0	27.093	0	601.842	0	13.9	4	4.4	4	-1E+10	1	-1E+10	1	-1E+10	1	-1E+10	1	-1E+10	1	-1E+10	1
4902549	73	C	08/18/2022	13:02	-132.123	47.538	0	613.00	0	4.2640	0	34.1600	0	27.095	0	606.983	0	13.5	4	4.3	4	-1E+10	1	-1E+10	1	-1E+10	1	-1E+10	1	-1E+10	1	-1E+10	1
4902549	73	C	08/18/2022	13:02	-132.123	47.538	0	617.80	0	4.2560	0	34.1640	0	27.099	0	611.729	0	13.2	4	4.2	4	-1E+10	1	-1E+10	1	-1E+10	1	-1E+10	1	-1E+10	1	-1E+10	1
4902549	73	C	08/18/2022	13:02	-132.123	47.538	0	622.60	0	4.2460	0	34.1670	0	27.103	0	616.475	0	13.0	4	4.1	4	-1E+10	1	-1E+10	1	-1E+10	1	-1E+10	1	-1E+10	1	-1E+10	1
4902549	73	C	08/18/2022	13:02	-132.123	47.538	0	627.90	0	4.2410	0	34.1690	0	27.105	0	621.715	0	12.8	4	4.1	4	-1E+10	1	-1E+10	1	-1E+10	1	-1E+10	1	-1E+10	1	-1E+10	1
4902549	73	C	08/18/2022	13:02	-132.123	47.538	0	632.90	0	4.2420	0	34.1690	0	27.105	0	626.658	0	12.6	4	4.0	4	-1E+10	1	-1E+10	1	-1E+10	1	-1E+10	1	-1E+10	1	-1E+10	1
4902549	73	C	08/18/2022	13:02	-132.123	47.538	0	637.90	0	4.2350	0	34.1710	0	27.107	0	631.601	0	12.2	4	3.9	4	-1E+10	1	-1E+10	1	-1E+10	1	-1E+10	1	-1E+10	1	-1E+10	1
4902549	73	C	08/18/2022	13:02	-132.123	47.538	0	642.90	0	4.2160	0	34.1770	0	27.114	0	636.544	0	11.9	4	3.8	4	-1E+10	1	-1E+10	1	-1E+10	1	-1E+10	1	-1E+10	1	-1E+10	1
4902549	73	C	08/18/2022	13:02	-132.123	47.538	0	647.90	0	4.2120	0	34.1790	0	27.116	0	641.487	0	11.7	4	3.7	4	-1E+10	1	-1E+10	1	-1E+10	1	-1E+10	1	-1E+10	1	-1E+10	1
4902549	73	C	08/18/2022	13:02	-132.123	47.538	0	653.00	0	4.2110	0	34.1800	0	27.117	0	646.529	0	11.4	4	3.6	4	-1E+10	1	-1E+10	1	-1E+10	1	-1E+10	1	-1E+10	1	-1E+10	1
4902549	73	C	08/18/2022	13:02	-132.123	47.538	0	657.90	0	4.1970	0	34.1830	0	27.121	0	651.372	0	11.1	4	3.5	4	-1E+10	1	-1E+10	1	-1E+10	1	-1E+10	1	-1E+10	1	-1E+10	1
4902549	73	C	08/18/2022	13:02	-132.123	47.538	0	662.80	0	4.1850	0	34.1860	0	27.125	0	656.216	0	10.8	4	3.4	4	-1E+10	1	-1E+10	1	-1E+10	1	-1E+10	1	-1E+10	1	-1E+10	1
4902549	73	C	08/18/2022	13:02	-132.123	47.538	0	667.80	0	4.1770	0	34.1900	0	27.129	0	661.158	0	10.4	4	3.3	4	-1E+10	1	-1E+10	1	-1E+10	1	-1E+10	1	-1E+10	1	-1E+10	1
4902549	73	C	08/18/2022	13:02	-132.123	47.538	0	673.10	0	4.1620	0	34.1950	0	27.134	0	666.397	0	10.0	4	3.2	4	-1E+10	1	-1E+10	1	-1E+10	1	-1E+10	1	-1E+10	1	-1E+10	1
4902549	73	C	08/18/2022	13:02	-132.123	47.538	0	678.10	0	4.1440	0	34.2010	0	27.141	0	671.339	0	9.8	4	3.1	4	-1E+10	1	-1E+10	1	-1E+10	1	-1E+10	1	-1E+10	1	-1E+10	1
4902549	73	C	08/18/2022	13:02	-132.123	47.538	0	683.00	0	4.1360	0	34.2040	0	27.144	0	676.183	0	9.6	4	3.0	4	-1E+10	1	-1E+10	1	-1E+10	1	-1E+10	1	-1E+10	1	-1E+10	1
4902549	73	C	08/18/2022	13:02	-132.123	47.538	0	688.20	0	4.1350	0	34.2040	0	27.144	0	681.322	0	9.3	4	2.9	4	-1E+10	1	-1E+10	1	-1E+10	1	-1E+10	1	-1E+10	1	-1E+10	1
4902549	73	C	08/18/2022	13:02	-132.123	47.538	0	692.80	0	4.1220	0	34.2100	0	27.150	0	685.869	0	9.0	4	2.9	4	-1E+10	1	-1E+10	1	-1E+10	1	-1E+10	1	-1E+10	1	-1E+10	1
4902549	73	C	08/18/2022	13:02	-132.123	47.538	0	698.00	0	4.1050	0	34.2150	0	27.156	0	691.008	0	8.8	4	2.8	4	-1E+10	1	-1E+10	1	-1E+10	1	-1E+10	1	-1E+10	1	-1E+10	1
4902549	73	C	08/18/2022	13:02	-132.123	47.538	0	703.20	0	4.0860	0	34.2190	0	27.161	0	696.147	0	8.6	4	2.7	4	-1E+10	1	-1E+10	1	-1E+10	1	-1E+10	1	-1E+10	1	-1E+10	1
4902549	73	C	08/18/2022	13:02	-132.123	47.538	0	708.00	0	4.0770	0	34.2210	0	27.164	0	700.891	0	8.4	4	2.7	4	-1E+10	1	-1E+10	1	-1E+10	1	-1E+10	1	-1E+10	1	-1E+10	1
4902549	73	C	08/18/2022	13:02	-132.123	47.538	0	712.90	0	4.0630	0	34.2260	0	27.169	0	705.734	0	8.2	4	2.6	4	-1E+10	1	-1E+10	1	-1E+10	1	-1E+10	1	-1E+10	1	-1E+10	1
4902549	73	C	08/18/2022	13:02	-132.123	47.538	0	717.70	0	4.0570	0	34.2290	0	27.172	0	710.477	0	8.0	4	2.5	4	-1E+10	1	-1E+10	1	-1E+10	1	-1E+10	1	-1E+10	1	-1E+10	1
4902549	73	C	08/18/2022	13:02	-132.123	47.538	0	722.70	0	4.0600	0	34.2310	0	27.174	0	715.418	0	7.6	4	2.4	4	-1E+10	1	-1E+10	1	-1E+10	1	-1E+10	1	-1E+10	1	-1E+10	1
4902549	73	C	08/18/2022	13:02	-132.123	47.538	0	727.80	0	4.0700	0	34.2380	0	27.178	0	720.458	0	7.4	4	2.3	4	-1E+10	1	-1E+10	1	-1E+10	1	-1E+10	1	-1E+10	1	-1E+10	1
4902549	73	C	08/18/2022	13:02	-132.123	47.538	0	732.90	0	4.0520	0	34.2420	0	27.183	0	725.498	0	7.3	4	2.3	4	-1E+10	1	-1E+10	1	-1E+10	1	-1E+10	1	-1E+10	1	-1E+10	1
4902549	73	C	08/18/2022	13:02	-132.123	47.538	0	738.10	0	4.0350	0	34.2440	0	27.187	0	730.636	0	7.1	4	2.3	4	-1E+10	1	-1E+10	1	-1E+10	1	-1E+10	1	-1E+10	1	-1E+10	1
4902549	73	C	08/18/2022	13:02	-132.123	47.538	0	742.80	0	4.0360	0	34.2470	0	27.189	0	735.280	0	6.9	4	2.2	4	-1E+10	1	-1E+10	1	-1E+10	1	-1E+10	1	-1E+10	1	-1E+10	1
4902549	73	C	08/18/2022	13:02	-132.123	47.538	0	747.60	0	4.0520	0	34.2520	0	27.192	0	740.023	0	6.8	4	2.2	4	-1E+10	1	-1E+10	1	-1E+10	1	-1E+10	1	-1E+10	1	-1E+10	1
4902549	73	C	08/18/2022	13:02	-132.123	47.538	0	752.90	0	4.0500	0	34.2530	0	27.193	0	745.260	0	6.8	4	2.2	4	-1E+10	1	-1E+10	1	-1E+10	1	-1E+10	1	-1E+10	1	-1E+10	1
4902549	73	C	08/18/2022	13:02	-132.123	47.538	0	757.70	0	4.0300	0	34.2560	0	27.197	0	750.003	0	6.8	4	2.1	4	-1E+10	1	-1E+10	1	-1E+10	1	-1E+10	1	-1E+10	1	-1E+10	1
4902549	73	C	08/18/2022	13:02	-132.123	47.538	0	762.70	0	4.0200	0	34.2580	0	27.200	0	754.943	0	6.7	4	2.1	4	-1E+10	1	-1E+10	1	-1E+10	1	-1E+10	1	-1E+10	1	-1E+10	1
4902549	73	C	08/18/2022	13:02	-132.123	47.538	0	768.20	0	4.0150	0	34.2610	0	27.203	0	760.377	0	6.7	4	2.1	4	-1E+10	1	-1E+10	1	-1E+10	1	-1E+10	1	-1E+10	1	-1E+10	1
4902549	73	C	08/18/2022	13:02	-132.123	47.538	0	773.10	0	3.9970	0	34.2620	0	27.205	0	765.218	0	6.9	4	2.2	4	-1E+10	1	-1E+10	1	-1E+10	1	-1E+10	1	-1E+10	1	-1E+10	1
4902549	73	C	08/18/2022	13:02	-132.123	47.538	0	778.00	0	3.9620	0	34.2620	0	27.209	0	770.059	0	7.1	4	2.2	4	-1E+10	1	-1E+10	1	-1E+10	1	-1E+10	1	-1E+10	1	-1E+10	1
4902549	73	C	08/18/2022	13:02	-132.123	47.538	0	782.90	0	3.9220	0	34.2610	0	27.212	0	774.900	0	7.0	4	2.2	4	-1E+10	1	-1E+10	1	-1E+10	1	-1E+10	1	-1E+10	1	-1E+10	1
4902549	73	C	08/18/2022	13:02	-132.123	47.538	0	787.80	0	3.9110	0	34.2640	0	27.216	0	779.741	0	6.9	4	2.2	4	-1E+10	1	-1E+10	1	-1E+10	1	-1E+10	1	-1E+10	1	-1E+10	1
4902549	73	C	08/18/2022	13:02	-132.123	47.538	0	792.70	0	3.8980	0	34.2670	0	27.219	0	784.582	0	6.9	4	2.2	4	-1E+10	1	-1E+10	1	-1E+10	1	-1E+10	1	-1E+10	1	-1E+10	1
4902549	73	C	08/18/2022	13:02	-132.123	47.538	0	797.90	0	3.8740	0	34.2700	0	27.224	0	789.718	0	6.9	4	2.2	4	-1E+10	1	-1E+10	1	-1E+10	1	-1E+10	1	-1E+10	1	-1E+10	1
4902549	73	C	08/18/2022	13:02	-132.123	47.538	0	803.10	0	3.8500	0	34.2710	0	27.228	0	794.855	0	6.7	4	2.1	4	-1E+10	1	-1E+10	1	-1E+10	1	-1E+10	1	-1E+10	1	-1E+10	1
4902549	73	C	08/18/2022	13:02	-132.123	47.538	0	808.00	0	3.8490	0	34.2750	0	27.231	0	799.696	0	6.6	4	2.1	4	-1E+10	1	-1E+10	1	-1E+10	1	-1E+10	1	-1E+10	1	-1E+10	1
4902549	73	C	08/18/2022	13:02	-132.123	47.538	0	812.90	0	3.8210	0	34.2770	0	27.235	0	804.536	0	6.4	4	2.0	4	-1E+10	1	-1E+10	1	-1E+10	1	-1E+10	1	-1E+10	1	-1E+10	1
4902549	73	C	08/18/2022	13:02	-132.123	47.538	0	817.90	0	3.8440	0	34.2850	0	27.239	0	809.475	0	6.3	4	2.0	4	-1E+10	1	-1E+10	1	-1E+10	1	-1E+10	1	-1E+10	1	-1E+10	1
4902549	73	C	08/18/2022	13:02	-132.123	47.538	0	823.10	0	3.8320	0	34.2880	0	27.243	0	814.611	0	6.4	4	2.0	4	-1E+10	1	-1E+10	1	-1E+10	1	-1E+10	1	-1E+10	1	-1E+10	1
4902549	73	C	08/18/2022	13:02	-132.123	47.538	0	827.80	0	3.8170	0	34.2870	0	27.244	0	819.253	0	6.5	4	2.0	4	-1E+10	1	-1E+10	1	-1E+10	1	-1E+10	1	-1E+10	1	-1E+10	1
4902549	73	C	08/18/2022	13:02	-132.123	47.538	0	832.60	0	3.7870	0	34.2870	0	27.247	0	823.994	0	6.6	4	2.1	4	-1E+10	1	-1E+10	1	-1E+10	1	-1E+10	1	-1E+10	1	-1E+10	1
4902549	73	C	08/18/2022	13:02	-132.123	47.538	0	837.90	0	3.7480	0	34.2860	0	27.250	0	829.229	0	6.7	4	2.1	4	-1E+10	1	-1E+10	1	-1E+10	1	-1E+10	1	-1E+10	1	-1E+10	1
4902549	73	C	08/18/2022	13:02	-132.123	47.538	0	842.80	0	3.7300	0	34.2880	0	27.253	0	834.068	0	6.7	4	2.1	4	-1E+10	1	-1E+10	1	-1E+10	1	-1E+10	1	-1E+10	1	-1E+10	1
4902549	73	C	08/18/2022	13:02	-132.123	47.538	0	847.70	0	3.6970	0	34.2880	0	27.257	0	838.908	0	6.7	4	2.1	4	-1E+10	1	-1E+10	1	-1E+10	1	-1E+10	1	-1E+10	1	-1E+10	1
4902549	73	C	08/18/2022	13:02	-132.123	47.538	0	853.10	0	3.6780	0	34.2900	0	27.260	0	844.241	0	6.6	4	2.1	4	-1E+10	1	-1E+10	1	-1E+10	1	-1E+10	1	-1E+10	1	-1E+10	1
4902549	73	C	08/18/2022	13:02	-132.123	47.538	0	858.10	0	3.6680	0	34.2910	0	27.262	0	849.179	0	6.3	4	2.0	4	-1E+10	1	-1E+10	1	-1E+10	1	-1E+10	1	-1E+10	1	-1E+10	1
4902549	73	C	08/18/2022	13:02	-132.123	47.538	0	862.80	0	3.6860	0	34.2970	0	27.265	0	853.820	0	6.0	4	1.9	4	-1E+10	1	-1E+10	1	-1E+10	1	-1E+10	1	-1E+10	1	-1E+10	1
4902549	73	C	08/18/2022	13:02	-132.123	47.538	0	868.00	0	3.7130	0	34.3060	0	27.269	0	858.956	0	5.8	4	1.8	4	-1E+10	1	-1E+10	1	-1E+10	1	-1E+10	1	-1E+10	1	-1E+10	1
4902549	73	C	08/18/2022	13:02	-132.123	47.538	0	873.20	0	3.7250	0	34.3140	0	27.275	0	864.091	0	5.7	4	1.8	4	-1E+10	1	-1E+10	1	-1E+10	1	-1E+10	1	-1E+10	1	-1E+10	1
4902549	73	C	08/18/2022	13:02	-132.123	47.538	0	878.10	0	3.7040	0	34.3170	0	27.279	0	868.929	0	5.8	4	1.8	4	-1E+10	1	-1E+10	1	-1E+10	1	-1E+10	1	-1E+10	1	-1E+10	1
4902549	73	C	08/18/2022	13:02	-132.123	47.538	0	882.90	0	3.6870	0	34.3170	0	27.281	0	873.669	0	5.8	4	1.8	4	-1E+10	1	-1E+10	1	-1E+10	1	-1E+10	1	-1E+10	1	-1E+10	1
4902549	73	C	08/18/2022	13:02	-132.123	47.538	0	887.70	0	3.6870	0	34.3190	0	27.283	0	878.409	0	5.8	4	1.8	4	-1E+10	1	-1E+10	1	-1E+10	1	-1E+10	1	-1E+10	1	-1E+10	1
4902549	73	C	08/18/2022	13:02	-132.123	47.538	0	892.60	0	3.6810	0	34.3210	0	27.285	0	883.247	0	5.8	4	1.8	4	-1E+10	1	-1E+10	1	-1E+10	1	-1E+10	1	-1E+10	1	-1E+10	1
4902549	73	C	08/18/2022	13:02	-132.123	47.538	0	897.50	0	3.6630	0	34.3190	0	27.285	0	888.086	0	5.9	4	1.9	4	-1E+10	1	-1E+10	1	-1E+10	1	-1E+10	1	-1E+10	1	-1E+10	1
4902549	73	C	08/18/2022	13:02	-132.123	47.538	0	902.90	0	3.6290	0	34.3210	0	27.290	0	893.417	0	6.0	4	1.9	4	-1E+10	1	-1E+10	1	-1E+10	1	-1E+10	1	-1E+10	1	-1E+10	1
4902549	73	C	08/18/2022	13:02	-132.123	47.538	0	908.20	0	3.6060	0	34.3200	0	27.291	0	898.650	0	6.0	4	1.9	4	-1E+10	1	-1E+10	1	-1E+10	1	-1E+10	1	-1E+10	1	-1E+10	1
4902549	73	C	08/18/2022	13:02	-132.123	47.538	0	913.00	0	3.6030	0	34.3250	0	27.296	0	903.390	0	6.0	4	1.9	4	-1E+10	1	-1E+10	1	-1E+10	1	-1E+10	1	-1E+10	1	-1E+10	1
4902549	73	C	08/18/2022	13:02	-132.123	47.538	0	917.80	0	3.5750	0	34.3260	0	27.299	0	908.129	0	6.0	4	1.9	4	-1E+10	1	-1E+10	1	-1E+10	1	-1E+10	1	-1E+10	1	-1E+10	1
4902549	73	C	08/18/2022	13:02	-132.123	47.538	0	922.70	0	3.5480	0	34.3270	0	27.303	0	912.966	0	5.9	4	1.8	4	-1E+10	1	-1E+10	1	-1E+10	1	-1E+10	1	-1E+10	1	-1E+10	1
4902549	73	C	08/18/2022	13:02	-132.123	47.538	0	927.60	0	3.5530	0	34.3330	0	27.307	0	917.804	0	5.8	4	1.8	4	-1E+10	1	-1E+10	1	-1E+10	1	-1E+10	1	-1E+10	1	-1E+10	1
4902549	73	C	08/18/2022	13:02	-132.123	47.538	0	932.50	0	3.5720	0	34.3410	0	27.312	0	922.641	0	5.7	4	1.8	4	-1E+10	1	-1E+10	1	-1E+10	1	-1E+10	1	-1E+10	1	-1E+10	1
4902549	73	C	08/18/2022	13:02	-132.123	47.538	0	937.50	0	3.5760	0	34.3450	0	27.314	0	927.577	0	5.7	4	1.8	4	-1E+10	1	-1E+10	1	-1E+10	1	-1E+10	1	-1E+10	1	-1E+10	1
4902549	73	C	08/18/2022	13:02	-132.123	47.538	0	942.50	0	3.5860	0	34.3500	0	27.317	0	932.513	0	5.6	4	1.8	4	-1E+10	1	-1E+10	1	-1E+10	1	-1E+10	1	-1E+10	1	-1E+10	1
4902549	73	C	08/18/2022	13:02	-132.123	47.538	0	947.50	0	3.5880	0	34.3510	0	27.318	0	937.449	0	5.7	4	1.8	4	-1E+10	1	-1E+10	1	-1E+10	1	-1E+10	1	-1E+10	1	-1E+10	1
4902549	73	C	08/18/2022	13:02	-132.123	47.538	0	952.50	0	3.5850	0	34.3530	0	27.320	0	942.385	0	5.7	4	1.8	4	-1E+10	1	-1E+10	1	-1E+10	1	-1E+10	1	-1E+10	1	-1E+10	1
4902549	73	C	08/18/2022	13:02	-132.123	47.538	0	957.70	0	3.5410	0	34.3490	0	27.321	0	947.518	0	5.8	4	1.8	4	-1E+10	1	-1E+10	1	-1E+10	1	-1E+10	1	-1E+10	1	-1E+10	1
4902549	73	C	08/18/2022	13:02	-132.123	47.538	0	962.80	0	3.5410	0	34.3560	0	27.327	0	952.552	0	5.8	4	1.8	4	-1E+10	1	-1E+10	1	-1E+10	1	-1E+10	1	-1E+10	1	-1E+10	1
4902549	73	C	08/18/2022	13:02	-132.123	47.538	0	968.00	0	3.5240	0	34.3580	0	27.330	0	957.685	0	5.9	4	1.8	4	-1E+10	1	-1E+10	1	-1E+10	1	-1E+10	1	-1E+10	1	-1E+10	1
4902549	73	C	08/18/2022	13:02	-132.123	47.538	0	972.80	0	3.5110	0	34.3580	0	27.331	0	962.423	0	5.9	4	1.9	4	-1E+10	1	-1E+10	1	-1E+10	1	-1E+10	1	-1E+10	1	-1E+10	1
4902549	73	C	08/18/2022	13:02	-132.123	47.538	0	977.70	0	3.5030	0	34.3590	0	27.333	0	967.259	0	6.0	4	1.9	4	-1E+10	1	-1E+10	1	-1E+10	1	-1E+10	1	-1E+10	1	-1E+10	1
4902549	73	C	08/18/2022	13:02	-132.123	47.538	0	983.10	0	3.4740	0	34.3600	0	27.336	0	972.589	0	6.1	4	1.9	4	-1E+10	1	-1E+10	1	-1E+10	1	-1E+10	1	-1E+10	1	-1E+10	1
4902549	73	C	08/18/2022	13:02	-132.123	47.538	0	988.40	0	3.4450	0	34.3620	0	27.341	0	977.820	0	6.2	4	1.9	4	-1E+10	1	-1E+10	1	-1E+10	1	-1E+10	1	-1E+10	1	-1E+10	1
4902549	73	C	08/18/2022	13:02	-132.123	47.538	0	993.20	0	3.3760	0	34.3580	0	27.344	0	982.557	0	6.3	4	1.9	4	-1E+10	1	-1E+10	1	-1E+10	1	-1E+10	1	-1E+10	1	-1E+10	1
4902549	73	C	08/18/2022	13:02	-132.123	47.538	0	998.20	0	3.3610	0	34.3570	0	27.345	0	987.492	0	6.3	4	2.0	4	-1E+10	1	-1E+10	1	-1E+10	1	-1E+10	1	-1E+10	1	-1E+10	1
4902549	73	C	08/18/2022	13:02	-132.123	47.538	0	1005.70	0	3.3480	0	34.3600	0	27.349	0	994.894	0	6.3	4	2.0	4	-1E+10	1	-1E+10	1	-1E+10	1	-1E+10	1	-1E+10	1	-1E+10	1
4902549	73	C	08/18/2022	13:02	-132.123	47.538	0	1015.50	0	3.3440	0	34.3670	0	27.355	0	1004.565	0	6.3	4	2.0	4	-1E+10	1	-1E+10	1	-1E+10	1	-1E+10	1	-1E+10	1	-1E+10	1
4902549	73	C	08/18/2022	13:02	-132.123	47.538	0	1025.30	0	3.3410	0	34.3700	0	27.357	0	1014.236	0	6.4	4	2.0	4	-1E+10	1	-1E+10	1	-1E+10	1	-1E+10	1	-1E+10	1	-1E+10	1
4902549	73	C	08/18/2022	13:02	-132.123	47.538	0	1035.50	0	3.3240	0	34.3730	0	27.361	0	1024.301	0	6.5	4	2.0	4	-1E+10	1	-1E+10	1	-1E+10	1	-1E+10	1	-1E+10	1	-1E+10	1
4902549	73	C	08/18/2022	13:02	-132.123	47.538	0	1045.40	0	3.3060	0	34.3750	0	27.365	0	1034.069	0	6.5	4	2.0	4	-1E+10	1	-1E+10	1	-1E+10	1	-1E+10	1	-1E+10	1	-1E+10	1
4902549	73	C	08/18/2022	13:02	-132.123	47.538	0	1055.10	0	3.2810	0	34.3780	0	27.370	0	1043.640	0	6.6	4	2.1	4	-1E+10	1	-1E+10	1	-1E+10	1	-1E+10	1	-1E+10	1	-1E+10	1
4902549	73	C	08/18/2022	13:02	-132.123	47.538	0	1065.40	0	3.2590	0	34.3800	0	27.373	0	1053.802	0	6.7	4	2.1	4	-1E+10	1	-1E+10	1	-1E+10	1	-1E+10	1	-1E+10	1	-1E+10	1
4902549	73	C	08/18/2022	13:02	-132.123	47.538	0	1075.50	0	3.2260	0	34.3840	0	27.380	0	1063.767	0	6.9	4	2.1	4	-1E+10	1	-1E+10	1	-1E+10	1	-1E+10	1	-1E+10	1	-1E+10	1
4902549	73	C	08/18/2022	13:02	-132.123	47.538	0	1085.10	0	3.2180	0	34.3900	0	27.385	0	1073.237	0	7.1	4	2.2	4	-1E+10	1	-1E+10	1	-1E+10	1	-1E+10	1	-1E+10	1	-1E+10	1
4902549	73	C	08/18/2022	13:02	-132.123	47.538	0	1095.20	0	3.2100	0	34.3960	0	27.391	0	1083.201	0	7.2	4	2.2	4	-1E+10	1	-1E+10	1	-1E+10	1	-1E+10	1	-1E+10	1	-1E+10	1
4902549	73	C	08/18/2022	13:02	-132.123	47.538	0	1105.50	0	3.1800	0	34.3970	0	27.394	0	1093.361	0	7.4	4	2.3	4	-1E+10	1	-1E+10	1	-1E+10	1	-1E+10	1	-1E+10	1	-1E+10	1
4902549	73	C	08/18/2022	13:02	-132.123	47.538	0	1115.30	0	3.1590	0	34.4020	0	27.400	0	1103.028	0	7.5	4	2.3	4	-1E+10	1	-1E+10	1	-1E+10	1	-1E+10	1	-1E+10	1	-1E+10	1
4902549	73	C	08/18/2022	13:02	-132.123	47.538	0	1125.10	0	3.1410	0	34.4030	0	27.403	0	1112.694	0	7.5	4	2.3	4	-1E+10	1	-1E+10	1	-1E+10	1	-1E+10	1	-1E+10	1	-1E+10	1
4902549	73	C	08/18/2022	13:02	-132.123	47.538	0	1135.50	0	3.1080	0	34.4040	0	27.407	0	1122.952	0	7.6	4	2.3	4	-1E+10	1	-1E+10	1	-1E+10	1	-1E+10	1	-1E+10	1	-1E+10	1
4902549	73	C	08/18/2022	13:02	-132.123	47.538	0	1145.60	0	3.0900	0	34.4060	0	27.410	0	1132.913	0	7.7	4	2.4	4	-1E+10	1	-1E+10	1	-1E+10	1	-1E+10	1	-1E+10	1	-1E+10	1
4902549	73	C	08/18/2022	13:02	-132.123	47.538	0	1155.30	0	3.0700	0	34.4080	0	27.414	0	1142.479	0	7.8	4	2.4	4	-1E+10	1	-1E+10	1	-1E+10	1	-1E+10	1	-1E+10	1	-1E+10	1
4902549	73	C	08/18/2022	13:02	-132.123	47.538	0	1165.20	0	3.0480	0	34.4100	0	27.417	0	1152.242	0	8.0	4	2.5	4	-1E+10	1	-1E+10	1	-1E+10	1	-1E+10	1	-1E+10	1	-1E+10	1
4902549	73	C	08/18/2022	13:02	-132.123	47.538	0	1175.20	0	3.0220	0	34.4140	0	27.423	0	1162.103	0	8.3	4	2.6	4	-1E+10	1	-1E+10	1	-1E+10	1	-1E+10	1	-1E+10	1	-1E+10	1
4902549	73	C	08/18/2022	13:02	-132.123	47.538	0	1185.30	0	3.0230	0	34.4220	0	27.429	0	1172.063	0	8.9	4	2.7	4	-1E+10	1	-1E+10	1	-1E+10	1	-1E+10	1	-1E+10	1	-1E+10	1
4902549	73	C	08/18/2022	13:02	-132.123	47.538	0	1195.50	0	3.0210	0	34.4270	0	27.433	0	1182.120	0	9.1	4	2.8	4	-1E+10	1	-1E+10	1	-1E+10	1	-1E+10	1	-1E+10	1	-1E+10	1
4902549	73	C	08/18/2022	13:02	-132.123	47.538	0	1205.60	0	2.9990	0	34.4290	0	27.437	0	1192.078	0	9.4	4	2.9	4	-1E+10	1	-1E+10	1	-1E+10	1	-1E+10	1	-1E+10	1	-1E+10	1
4902549	73	C	08/18/2022	13:02	-132.123	47.538	0	1215.50	0	2.9760	0	34.4340	0	27.443	0	1201.839	0	9.7	4	3.0	4	-1E+10	1	-1E+10	1	-1E+10	1	-1E+10	1	-1E+10	1	-1E+10	1
4902549	73	C	08/18/2022	13:02	-132.123	47.538	0	1225.50	0	2.9420	0	34.4360	0	27.448	0	1211.698	0	10.0	4	3.1	4	-1E+10	1	-1E+10	1	-1E+10	1	-1E+10	1	-1E+10	1	-1E+10	1
4902549	73	C	08/18/2022	13:02	-132.123	47.538	0	1235.70	0	2.9220	0	34.4410	0	27.454	0	1221.753	0	10.4	4	3.2	4	-1E+10	1	-1E+10	1	-1E+10	1	-1E+10	1	-1E+10	1	-1E+10	1
4902549	73	C	08/18/2022	13:02	-132.123	47.538	0	1245.50	0	2.9020	0	34.4450	0	27.459	0	1231.414	0	10.5	4	3.2	4	-1E+10	1	-1E+10	1	-1E+10	1	-1E+10	1	-1E+10	1	-1E+10	1
4902549	73	C	08/18/2022	13:02	-132.123	47.538	0	1255.40	0	2.8690	0	34.4450	0	27.462	0	1241.173	0	10.6	4	3.3	4	-1E+10	1	-1E+10	1	-1E+10	1	-1E+10	1	-1E+10	1	-1E+10	1
4902549	73	C	08/18/2022	13:02	-132.123	47.538	0	1265.70	0	2.8490	0	34.4460	0	27.464	0	1251.326	0	10.9	4	3.4	4	-1E+10	1	-1E+10	1	-1E+10	1	-1E+10	1	-1E+10	1	-1E+10	1
4902549	73	C	08/18/2022	13:02	-132.123	47.538	0	1275.70	0	2.8340	0	34.4500	0	27.469	0	1261.182	0	11.4	4	3.5	4	-1E+10	1	-1E+10	1	-1E+10	1	-1E+10	1	-1E+10	1	-1E+10	1
4902549	73	C	08/18/2022	13:02	-132.123	47.538	0	1285.10	0	2.8270	0	34.4530	0	27.472	0	1270.447	0	11.7	4	3.6	4	-1E+10	1	-1E+10	1	-1E+10	1	-1E+10	1	-1E+10	1	-1E+10	1
4902549	73	C	08/18/2022	13:02	-132.123	47.538	0	1295.30	0	2.8140	0	34.4560	0	27.476	0	1280.500	0	12.0	4	3.7	4	-1E+10	1	-1E+10	1	-1E+10	1	-1E+10	1	-1E+10	1	-1E+10	1
4902549	73	C	08/18/2022	13:02	-132.123	47.538	0	1305.70	0	2.8060	0	34.4580	0	27.478	0	1290.749	0	12.4	4	3.8	4	-1E+10	1	-1E+10	1	-1E+10	1	-1E+10	1	-1E+10	1	-1E+10	1
4902549	73	C	08/18/2022	13:02	-132.123	47.538	0	1315.50	0	2.7950	0	34.4610	0	27.481	0	1300.406	0	12.8	4	3.9	4	-1E+10	1	-1E+10	1	-1E+10	1	-1E+10	1	-1E+10	1	-1E+10	1
4902549	73	C	08/18/2022	13:02	-132.123	47.538	0	1325.20	0	2.7800	0	34.4640	0	27.485	0	1309.965	0	13.1	4	4.0	4	-1E+10	1	-1E+10	1	-1E+10	1	-1E+10	1	-1E+10	1	-1E+10	1
4902549	73	C	08/18/2022	13:02	-132.123	47.538	0	1335.30	0	2.7660	0	34.4660	0	27.488	0	1319.917	0	13.5	4	4.2	4	-1E+10	1	-1E+10	1	-1E+10	1	-1E+10	1	-1E+10	1	-1E+10	1
4902549	73	C	08/18/2022	13:02	-132.123	47.538	0	1345.40	0	2.7450	0	34.4680	0	27.491	0	1329.869	0	13.9	4	4.3	4	-1E+10	1	-1E+10	1	-1E+10	1	-1E+10	1	-1E+10	1	-1E+10	1
4902549	73	C	08/18/2022	13:02	-132.123	47.538	0	1355.40	0	2.7160	0	34.4690	0	27.495	0	1339.722	0	14.2	4	4.4	4	-1E+10	1	-1E+10	1	-1E+10	1	-1E+10	1	-1E+10	1	-1E+10	1
4902549	73	C	08/18/2022	13:02	-132.123	47.538	0	1365.50	0	2.6900	0	34.4720	0	27.499	0	1349.673	0	14.6	4	4.5	4	-1E+10	1	-1E+10	1	-1E+10	1	-1E+10	1	-1E+10	1	-1E+10	1
4902549	73	C	08/18/2022	13:02	-132.123	47.538	0	1375.30	0	2.6800	0	34.4750	0	27.503	0	1359.328	0	15.1	4	4.6	4	-1E+10	1	-1E+10	1	-1E+10	1	-1E+10	1	-1E+10	1	-1E+10	1
4902549	73	C	08/18/2022	13:02	-132.123	47.538	0	1385.20	0	2.6570	0	34.4780	0	27.507	0	1369.080	0	15.7	4	4.8	4	-1E+10	1	-1E+10	1	-1E+10	1	-1E+10	1	-1E+10	1	-1E+10	1
4902549	73	C	08/18/2022	13:02	-132.123	47.538	0	1395.40	0	2.6310	0	34.4800	0	27.511	0	1379.129	0	16.4	4	5.0	4	-1E+10	1	-1E+10	1	-1E+10	1	-1E+10	1	-1E+10	1	-1E+10	1
4902549	73	C	08/18/2022	13:02	-132.123	47.538	0	1405.40	0	2.6090	0	34.4840	0	27.516	0	1388.979	0	17.2	4	5.3	4	-1E+10	1	-1E+10	1	-1E+10	1	-1E+10	1	-1E+10	1	-1E+10	1
4902549	73	C	08/18/2022	13:02	-132.123	47.538	0	1415.40	0	2.5910	0	34.4870	0	27.520	0	1398.829	0	17.9	4	5.5	4	-1E+10	1	-1E+10	1	-1E+10	1	-1E+10	1	-1E+10	1	-1E+10	1
4902549	73	C	08/18/2022	13:02	-132.123	47.538	0	1425.20	0	2.5780	0	34.4910	0	27.525	0	1408.482	0	18.6	4	5.7	4	-1E+10	1	-1E+10	1	-1E+10	1	-1E+10	1	-1E+10	1	-1E+10	1
4902549	73	C	08/18/2022	13:02	-132.123	47.538	0	1435.20	0	2.5670	0	34.4950	0	27.529	0	1418.331	0	19.4	4	5.9	4	-1E+10	1	-1E+10	1	-1E+10	1	-1E+10	1	-1E+10	1	-1E+10	1
4902549	73	C	08/18/2022	13:02	-132.123	47.538	0	1445.30	0	2.5500	0	34.4980	0	27.533	0	1428.278	0	19.9	4	6.1	4	-1E+10	1	-1E+10	1	-1E+10	1	-1E+10	1	-1E+10	1	-1E+10	1
4902549	73	C	08/18/2022	13:02	-132.123	47.538	0	1455.40	0	2.5340	0	34.4990	0	27.535	0	1438.225	0	20.0	4	6.1	4	-1E+10	1	-1E+10	1	-1E+10	1	-1E+10	1	-1E+10	1	-1E+10	1
4902549	73	C	08/18/2022	13:02	-132.123	47.538	0	1465.30	0	2.5170	0	34.4990	0	27.536	0	1447.974	0	20.2	4	6.2	4	-1E+10	1	-1E+10	1	-1E+10	1	-1E+10	1	-1E+10	1	-1E+10	1
4902549	73	C	08/18/2022	13:02	-132.123	47.538	0	1475.20	0	2.5060	0	34.5000	0	27.538	0	1457.723	0	20.4	4	6.2	4	-1E+10	1	-1E+10	1	-1E+10	1	-1E+10	1	-1E+10	1	-1E+10	1
4902549	73	C	08/18/2022	13:02	-132.123	47.538	0	1485.00	0	2.4970	0	34.5010	0	27.540	0	1467.372	0	20.8	4	6.3	4	-1E+10	1	-1E+10	1	-1E+10	1	-1E+10	1	-1E+10	1	-1E+10	1
4902549	73	C	08/18/2022	13:02	-132.123	47.538	0	1495.10	0	2.4840	0	34.5030	0	27.542	0	1477.317	0	21.3	4	6.5	4	-1E+10	1	-1E+10	1	-1E+10	1	-1E+10	1	-1E+10	1	-1E+10	1
4902549	73	C	08/18/2022	13:02	-132.123	47.538	0	1505.30	0	2.4600	0	34.5060	0	27.547	0	1487.360	0	22.1	4	6.7	4	-1E+10	1	-1E+10	1	-1E+10	1	-1E+10	1	-1E+10	1	-1E+10	1
4902549	73	C	08/18/2022	13:02	-132.123	47.538	0	1515.60	0	2.4390	0	34.5080	0	27.550	0	1497.501	0	22.7	4	6.9	4	-1E+10	1	-1E+10	1	-1E+10	1	-1E+10	1	-1E+10	1	-1E+10	1
4902549	73	C	08/18/2022	13:02	-132.123	47.538	0	1525.60	0	2.4220	0	34.5100	0	27.553	0	1507.346	0	23.5	4	7.2	4	-1E+10	1	-1E+10	1	-1E+10	1	-1E+10	1	-1E+10	1	-1E+10	1
4902549	73	C	08/18/2022	13:02	-132.123	47.538	0	1535.20	0	2.4070	0	34.5140	0	27.558	0	1516.796	0	24.2	4	7.4	4	-1E+10	1	-1E+10	1	-1E+10	1	-1E+10	1	-1E+10	1	-1E+10	1
4902549	73	C	08/18/2022	13:02	-132.123	47.538	0	1545.00	0	2.3980	0	34.5150	0	27.559	0	1526.444	0	24.7	4	7.5	4	-1E+10	1	-1E+10	1	-1E+10	1	-1E+10	1	-1E+10	1	-1E+10	1
4902549	73	C	08/18/2022	13:02	-132.123	47.538	0	1555.40	0	2.3800	0	34.5180	0	27.563	0	1536.681	0	25.3	4	7.7	4	-1E+10	1	-1E+10	1	-1E+10	1	-1E+10	1	-1E+10	1	-1E+10	1
4902549	73	C	08/18/2022	13:02	-132.123	47.538	0	1565.40	0	2.3670	0	34.5200	0	27.566	0	1546.524	0	25.6	4	7.8	4	-1E+10	1	-1E+10	1	-1E+10	1	-1E+10	1	-1E+10	1	-1E+10	1
4902549	73	C	08/18/2022	13:02	-132.123	47.538	0	1575.20	0	2.3600	0	34.5200	0	27.567	0	1556.170	0	25.8	4	7.8	4	-1E+10	1	-1E+10	1	-1E+10	1	-1E+10	1	-1E+10	1	-1E+10	1
4902549	73	C	08/18/2022	13:02	-132.123	47.538	0	1585.40	0	2.3450	0	34.5200	0	27.568	0	1566.209	0	26.1	4	7.9	4	-1E+10	1	-1E+10	1	-1E+10	1	-1E+10	1	-1E+10	1	-1E+10	1
4902549	73	C	08/18/2022	13:02	-132.123	47.538	0	1595.60	0	2.3180	0	34.5220	0	27.572	0	1576.248	0	26.6	4	8.1	4	-1E+10	1	-1E+10	1	-1E+10	1	-1E+10	1	-1E+10	1	-1E+10	1
4902549	73	C	08/18/2022	13:02	-132.123	47.538	0	1605.30	0	2.3010	0	34.5230	0	27.574	0	1585.794	0	27.2	4	8.3	4	-1E+10	1	-1E+10	1	-1E+10	1	-1E+10	1	-1E+10	1	-1E+10	1
4902549	73	C	08/18/2022	13:02	-132.123	47.538	0	1615.20	0	2.2890	0	34.5250	0	27.577	0	1595.536	0	27.7	4	8.4	4	-1E+10	1	-1E+10	1	-1E+10	1	-1E+10	1	-1E+10	1	-1E+10	1
4902549	73	C	08/18/2022	13:02	-132.123	47.538	0	1625.70	0	2.2740	0	34.5270	0	27.580	0	1605.868	0	28.1	4	8.5	4	-1E+10	1	-1E+10	1	-1E+10	1	-1E+10	1	-1E+10	1	-1E+10	1
4902549	73	C	08/18/2022	13:02	-132.123	47.538	0	1635.80	0	2.2640	0	34.5280	0	27.581	0	1615.807	0	28.5	4	8.7	4	-1E+10	1	-1E+10	1	-1E+10	1	-1E+10	1	-1E+10	1	-1E+10	1
4902549	73	C	08/18/2022	13:02	-132.123	47.538	0	1645.50	0	2.2580	0	34.5290	0	27.583	0	1625.351	0	28.9	4	8.8	4	-1E+10	1	-1E+10	1	-1E+10	1	-1E+10	1	-1E+10	1	-1E+10	1
4902549	73	C	08/18/2022	13:02	-132.123	47.538	0	1655.60	0	2.2510	0	34.5300	0	27.584	0	1635.288	0	29.3	4	8.9	4	-1E+10	1	-1E+10	1	-1E+10	1	-1E+10	1	-1E+10	1	-1E+10	1
4902549	73	C	08/18/2022	13:02	-132.123	47.538	0	1665.60	0	2.2420	0	34.5310	0	27.586	0	1645.127	0	30.0	4	9.1	4	-1E+10	1	-1E+10	1	-1E+10	1	-1E+10	1	-1E+10	1	-1E+10	1
4902549	73	C	08/18/2022	13:02	-132.123	47.538	0	1675.60	0	2.2270	0	34.5340	0	27.589	0	1654.965	0	30.9	4	9.4	4	-1E+10	1	-1E+10	1	-1E+10	1	-1E+10	1	-1E+10	1	-1E+10	1
4902549	73	C	08/18/2022	13:02	-132.123	47.538	0	1685.50	0	2.2200	0	34.5360	0	27.591	0	1664.704	0	31.7	4	9.6	4	-1E+10	1	-1E+10	1	-1E+10	1	-1E+10	1	-1E+10	1	-1E+10	1
4902549	73	C	08/18/2022	13:02	-132.123	47.538	0	1695.50	0	2.2100	0	34.5390	0	27.595	0	1674.541	0	32.2	4	9.8	4	-1E+10	1	-1E+10	1	-1E+10	1	-1E+10	1	-1E+10	1	-1E+10	1
4902549	73	C	08/18/2022	13:02	-132.123	47.538	0	1705.90	0	2.2040	0	34.5400	0	27.596	0	1684.772	0	32.8	4	9.9	4	-1E+10	1	-1E+10	1	-1E+10	1	-1E+10	1	-1E+10	1	-1E+10	1
4902549	73	C	08/18/2022	13:02	-132.123	47.538	0	1715.40	0	2.1920	0	34.5420	0	27.599	0	1694.116	0	33.4	4	10.1	4	-1E+10	1	-1E+10	1	-1E+10	1	-1E+10	1	-1E+10	1	-1E+10	1
4902549	73	C	08/18/2022	13:02	-132.123	47.538	0	1725.30	0	2.1800	0	34.5430	0	27.601	0	1703.853	0	34.0	4	10.3	4	-1E+10	1	-1E+10	1	-1E+10	1	-1E+10	1	-1E+10	1	-1E+10	1
4902549	73	C	08/18/2022	13:02	-132.123	47.538	0	1735.40	0	2.1700	0	34.5450	0	27.603	0	1713.787	0	34.6	4	10.5	4	-1E+10	1	-1E+10	1	-1E+10	1	-1E+10	1	-1E+10	1	-1E+10	1
4902549	73	C	08/18/2022	13:02	-132.123	47.538	0	1745.50	0	2.1580	0	34.5460	0	27.605	0	1723.720	0	35.2	4	10.6	4	-1E+10	1	-1E+10	1	-1E+10	1	-1E+10	1	-1E+10	1	-1E+10	1
4902549	73	C	08/18/2022	13:02	-132.123	47.538	0	1755.60	0	2.1480	0	34.5480	0	27.607	0	1733.653	0	35.7	4	10.8	4	-1E+10	1	-1E+10	1	-1E+10	1	-1E+10	1	-1E+10	1	-1E+10	1
4902549	73	C	08/18/2022	13:02	-132.123	47.538	0	1765.30	0	2.1390	0	34.5490	0	27.609	0	1743.192	0	36.2	4	10.9	4	-1E+10	1	-1E+10	1	-1E+10	1	-1E+10	1	-1E+10	1	-1E+10	1
4902549	73	C	08/18/2022	13:02	-132.123	47.538	0	1775.40	0	2.1340	0	34.5500	0	27.610	0	1753.124	0	36.9	4	11.2	4	-1E+10	1	-1E+10	1	-1E+10	1	-1E+10	1	-1E+10	1	-1E+10	1
4902549	73	C	08/18/2022	13:02	-132.123	47.538	0	1785.60	0	2.1260	0	34.5530	0	27.613	0	1763.153	0	37.7	4	11.4	4	-1E+10	1	-1E+10	1	-1E+10	1	-1E+10	1	-1E+10	1	-1E+10	1
4902549	73	C	08/18/2022	13:02	-132.123	47.538	0	1795.50	0	2.1160	0	34.5540	0	27.615	0	1772.888	0	38.4	4	11.6	4	-1E+10	1	-1E+10	1	-1E+10	1	-1E+10	1	-1E+10	1	-1E+10	1
4902549	73	C	08/18/2022	13:02	-132.123	47.538	0	1805.40	0	2.1090	0	34.5560	0	27.617	0	1782.622	0	38.9	4	11.8	4	-1E+10	1	-1E+10	1	-1E+10	1	-1E+10	1	-1E+10	1	-1E+10	1
4902549	73	C	08/18/2022	13:02	-132.123	47.538	0	1815.30	0	2.1000	0	34.5580	0	27.619	0	1792.355	0	39.7	4	12.0	4	-1E+10	1	-1E+10	1	-1E+10	1	-1E+10	1	-1E+10	1	-1E+10	1
4902549	73	C	08/18/2022	13:02	-132.123	47.538	0	1825.30	0	2.0900	0	34.5590	0	27.621	0	1802.186	0	40.2	4	12.1	4	-1E+10	1	-1E+10	1	-1E+10	1	-1E+10	1	-1E+10	1	-1E+10	1
4902549	73	C	08/18/2022	13:02	-132.123	47.538	0	1835.40	0	2.0840	0	34.5600	0	27.622	0	1812.115	0	40.6	4	12.3	4	-1E+10	1	-1E+10	1	-1E+10	1	-1E+10	1	-1E+10	1	-1E+10	1
4902549	73	C	08/18/2022	13:02	-132.123	47.538	0	1845.50	0	2.0760	0	34.5610	0	27.624	0	1822.044	0	41.2	4	12.4	4	-1E+10	1	-1E+10	1	-1E+10	1	-1E+10	1	-1E+10	1	-1E+10	1
4902549	73	C	08/18/2022	13:02	-132.123	47.538	0	1855.70	0	2.0650	0	34.5630	0	27.626	0	1832.070	0	41.8	4	12.6	4	-1E+10	1	-1E+10	1	-1E+10	1	-1E+10	1	-1E+10	1	-1E+10	1
4902549	73	C	08/18/2022	13:02	-132.123	47.538	0	1865.70	0	2.0520	0	34.5640	0	27.628	0	1841.900	0	42.4	4	12.8	4	-1E+10	1	-1E+10	1	-1E+10	1	-1E+10	1	-1E+10	1	-1E+10	1
4902549	73	C	08/18/2022	13:02	-132.123	47.538	0	1875.40	0	2.0430	0	34.5650	0	27.630	0	1851.434	0	43.1	4	13.0	4	-1E+10	1	-1E+10	1	-1E+10	1	-1E+10	1	-1E+10	1	-1E+10	1
4902549	73	C	08/18/2022	13:02	-132.123	47.538	0	1885.60	0	2.0310	0	34.5680	0	27.633	0	1861.459	0	43.9	4	13.2	4	-1E+10	1	-1E+10	1	-1E+10	1	-1E+10	1	-1E+10	1	-1E+10	1
4902549	73	C	08/18/2022	13:02	-132.123	47.538	0	1895.70	0	2.0210	0	34.5690	0	27.635	0	1871.385	0	44.6	4	13.5	4	-1E+10	1	-1E+10	1	-1E+10	1	-1E+10	1	-1E+10	1	-1E+10	1
4902549	73	C	08/18/2022	13:02	-132.123	47.538	0	1905.50	0	2.0120	0	34.5710	0	27.637	0	1881.016	0	45.1	4	13.6	4	-1E+10	1	-1E+10	1	-1E+10	1	-1E+10	1	-1E+10	1	-1E+10	1
4902549	73	C	08/18/2022	13:02	-132.123	47.538	0	1915.40	0	2.0050	0	34.5720	0	27.639	0	1890.745	0	45.4	4	13.7	4	-1E+10	1	-1E+10	1	-1E+10	1	-1E+10	1	-1E+10	1	-1E+10	1
4902549	73	C	08/18/2022	13:02	-132.123	47.538	0	1925.60	0	2.0010	0	34.5720	0	27.639	0	1900.768	0	45.8	4	13.8	4	-1E+10	1	-1E+10	1	-1E+10	1	-1E+10	1	-1E+10	1	-1E+10	1
4902549	73	C	08/18/2022	13:02	-132.123	47.538	0	1935.80	0	1.9940	0	34.5730	0	27.640	0	1910.791	0	46.4	4	14.0	4	-1E+10	1	-1E+10	1	-1E+10	1	-1E+10	1	-1E+10	1	-1E+10	1
4902549	73	C	08/18/2022	13:02	-132.123	47.538	0	1945.60	0	1.9850	0	34.5750	0	27.643	0	1920.420	0	46.9	4	14.1	4	-1E+10	1	-1E+10	1	-1E+10	1	-1E+10	1	-1E+10	1	-1E+10	1
4902549	73	C	08/18/2022	13:02	-132.123	47.538	0	1955.50	0	1.9790	0	34.5760	0	27.644	0	1930.147	0	47.3	4	14.3	4	-1E+10	1	-1E+10	1	-1E+10	1	-1E+10	1	-1E+10	1	-1E+10	1
4902549	73	C	08/18/2022	13:02	-132.123	47.538	0	1965.40	0	1.9710	0	34.5780	0	27.646	0	1939.874	0	47.7	4	14.4	4	-1E+10	1	-1E+10	1	-1E+10	1	-1E+10	1	-1E+10	1	-1E+10	1
4902549	73	C	08/18/2022	13:02	-132.123	47.538	0	1972.60	0	1.9680	0	34.5790	0	27.647	0	1946.947	0	47.3	4	14.3	4	-1E+10	1	-1E+10	1	-1E+10	1	-1E+10	1	-1E+10	1	-1E+10	1
4902549	73	C	08/18/2022	13:02	-132.123	47.538	0																										
4902549	74	C	08/28/2022	17:59	-131.954	47.652	0	0.10	0	17.2710	0	32.2520	0	23.344	0	0.099	0	242.8	4	100.5	4	-1E+10	1	-1E+10	1	-1E+10	1	-1E+10	1	-1E+10	1	-1E+10	1
4902549	74	C	08/28/2022	17:59	-131.954	47.652	0	0.80	0	17.2710	0	32.2490	0	23.341	0	0.793	0	242.9	4	100.5	4	-1E+10	1	-1E+10	1	-1E+10	1	-1E+10	1	-1E+10	1	-1E+10	1
4902549	74	C	08/28/2022	17:59	-131.954	47.652	0	1.80	0	17.2710	0	32.2520	0	23.344	0	1.785	0	242.9	4	100.5	4	-1E+10	1	-1E+10	1	-1E+10	1	-1E+10	1	-1E+10	1	-1E+10	1
4902549	74	C	08/28/2022	17:59	-131.954	47.652	0	2.90	0	17.2720	0	32.2510	0	23.343	0	2.876	0	242.8	4	100.5	4	-1E+10	1	-1E+10	1	-1E+10	1	-1E+10	1	-1E+10	1	-1E+10	1
4902549	74	C	08/28/2022	17:59	-131.954	47.652	0	3.80	0	17.2740	0	32.2490	0	23.341	0	3.768	0	242.8	4	100.5	4	-1E+10	1	-1E+10	1	-1E+10	1	-1E+10	1	-1E+10	1	-1E+10	1
4902549	74	C	08/28/2022	17:59	-131.954	47.652	0	4.90	0	17.2740	0	32.2530	0	23.344	0	4.859	0	242.8	4	100.5	4	-1E+10	1	-1E+10	1	-1E+10	1	-1E+10	1	-1E+10	1	-1E+10	1
4902549	74	C	08/28/2022	17:59	-131.954	47.652	0	6.10	0	17.2730	0	32.2530	0	23.344	0	6.049	0	242.7	4	100.4	4	-1E+10	1	-1E+10	1	-1E+10	1	-1E+10	1	-1E+10	1	-1E+10	1
4902549	74	C	08/28/2022	17:59	-131.954	47.652	0	7.00	0	17.2720	0	32.2530	0	23.345	0	6.941	0	243.0	4	100.5	4	-1E+10	1	-1E+10	1	-1E+10	1	-1E+10	1	-1E+10	1	-1E+10	1
4902549	74	C	08/28/2022	17:59	-131.954	47.652	0	7.80	0	17.2730	0	32.2530	0	23.344	0	7.735	0	243.0	4	100.6	4	-1E+10	1	-1E+10	1	-1E+10	1	-1E+10	1	-1E+10	1	-1E+10	1
4902549	74	C	08/28/2022	17:59	-131.954	47.652	0	8.80	0	17.2700	0	32.2540	0	23.346	0	8.726	0	243.1	4	100.6	4	-1E+10	1	-1E+10	1	-1E+10	1	-1E+10	1	-1E+10	1	-1E+10	1
4902549	74	C	08/28/2022	17:59	-131.954	47.652	0	9.90	0	17.2720	0	32.2530	0	23.345	0	9.817	0	243.2	4	100.6	4	-1E+10	1	-1E+10	1	-1E+10	1	-1E+10	1	-1E+10	1	-1E+10	1
4902549	74	C	08/28/2022	17:59	-131.954	47.652	0	11.00	0	17.2710	0	32.2540	0	23.346	0	10.908	0	243.3	4	100.7	4	-1E+10	1	-1E+10	1	-1E+10	1	-1E+10	1	-1E+10	1	-1E+10	1
4902549	74	C	08/28/2022	17:59	-131.954	47.652	0	12.10	0	17.2720	0	32.2540	0	23.345	0	11.998	0	243.4	4	100.7	4	-1E+10	1	-1E+10	1	-1E+10	1	-1E+10	1	-1E+10	1	-1E+10	1
4902549	74	C	08/28/2022	17:59	-131.954	47.652	0	13.10	0	17.2720	0	32.2540	0	23.346	0	12.990	0	243.6	4	100.8	4	-1E+10	1	-1E+10	1	-1E+10	1	-1E+10	1	-1E+10	1	-1E+10	1
4902549	74	C	08/28/2022	17:59	-131.954	47.652	0	13.90	0	17.2720	0	32.2540	0	23.346	0	13.783	0	243.9	4	101.0	4	-1E+10	1	-1E+10	1	-1E+10	1	-1E+10	1	-1E+10	1	-1E+10	1
4902549	74	C	08/28/2022	17:59	-131.954	47.652	0	14.70	0	17.2710	0	32.2540	0	23.346	0	14.577	0	244.2	4	101.0	4	-1E+10	1	-1E+10	1	-1E+10	1	-1E+10	1	-1E+10	1	-1E+10	1
4902549	74	C	08/28/2022	17:59	-131.954	47.652	0	15.90	0	17.2700	0	32.2530	0	23.345	0	15.766	0	244.7	4	101.3	4	-1E+10	1	-1E+10	1	-1E+10	1	-1E+10	1	-1E+10	1	-1E+10	1
4902549	74	C	08/28/2022	17:59	-131.954	47.652	0	17.00	0	17.2680	0	32.2550	0	23.347	0	16.857	0	245.2	4	101.5	4	-1E+10	1	-1E+10	1	-1E+10	1	-1E+10	1	-1E+10	1	-1E+10	1
4902549	74	C	08/28/2022	17:59	-131.954	47.652	0	18.00	0	17.2590	0	32.2580	0	23.352	0	17.849	0	245.9	4	101.7	4	-1E+10	1	-1E+10	1	-1E+10	1	-1E+10	1	-1E+10	1	-1E+10	1
4902549	74	C	08/28/2022	17:59	-131.954	47.652	0	19.00	0	17.2410	0	32.2550	0	23.354	0	18.840	0	246.5	4	102.0	4	-1E+10	1	-1E+10	1	-1E+10	1	-1E+10	1	-1E+10	1	-1E+10	1
4902549	74	C	08/28/2022	17:59	-131.954	47.652	0	19.90	0	17.2360	0	32.2530	0	23.353	0	19.733	0	247.5	4	102.3	4	-1E+10	1	-1E+10	1	-1E+10	1	-1E+10	1	-1E+10	1	-1E+10	1
4902549	74	C	08/28/2022	17:59	-131.954	47.652	0	21.00	0	17.2280	0	32.2530	0	23.355	0	20.823	0	248.5	4	102.8	4	-1E+10	1	-1E+10	1	-1E+10	1	-1E+10	1	-1E+10	1	-1E+10	1
4902549	74	C	08/28/2022	17:59	-131.954	47.652	0	22.10	0	17.2110	0	32.2520	0	23.359	0	21.914	0	250.1	4	103.4	4	-1E+10	1	-1E+10	1	-1E+10	1	-1E+10	1	-1E+10	1	-1E+10	1
4902549	74	C	08/28/2022	17:59	-131.954	47.652	0	23.00	0	17.1910	0	32.2530	0	23.364	0	22.806	0	251.5	4	103.9	4	-1E+10	1	-1E+10	1	-1E+10	1	-1E+10	1	-1E+10	1	-1E+10	1
4902549	74	C	08/28/2022	17:59	-131.954	47.652	0	23.90	0	17.1700	0	32.2440	0	23.362	0	23.699	0	253.3	4	104.6	4	-1E+10	1	-1E+10	1	-1E+10	1	-1E+10	1	-1E+10	1	-1E+10	1
4902549	74	C	08/28/2022	17:59	-131.954	47.652	0	24.90	0	17.0360	0	32.2450	0	23.394	0	24.690	0	255.4	4	105.2	4	-1E+10	1	-1E+10	1	-1E+10	1	-1E+10	1	-1E+10	1	-1E+10	1
4902549	74	C	08/28/2022	17:59	-131.954	47.652	0	25.90	0	16.5580	0	32.2740	0	23.527	0	25.682	0	257.5	4	105.1	4	-1E+10	1	-1E+10	1	-1E+10	1	-1E+10	1	-1E+10	1	-1E+10	1
4902549	74	C	08/28/2022	17:59	-131.954	47.652	0	27.00	0	16.0290	0	32.2620	0	23.638	0	26.773	0	261.0	4	105.5	4	-1E+10	1	-1E+10	1	-1E+10	1	-1E+10	1	-1E+10	1	-1E+10	1
4902549	74	C	08/28/2022	17:59	-131.954	47.652	0	28.00	0	15.9910	0	32.2590	0	23.644	0	27.764	0	261.7	4	105.7	4	-1E+10	1	-1E+10	1	-1E+10	1	-1E+10	1	-1E+10	1	-1E+10	1
4902549	74	C	08/28/2022	17:59	-131.954	47.652	0	29.20	0	15.8560	0	32.2530	0	23.670	0	28.954	0	263.3	4	106.0	4	-1E+10	1	-1E+10	1	-1E+10	1	-1E+10	1	-1E+10	1	-1E+10	1
4902549	74	C	08/28/2022	17:59	-131.954	47.652	0	30.10	0	15.2070	0	32.2520	0	23.811	0	29.846	0	266.5	4	106.0	4	-1E+10	1	-1E+10	1	-1E+10	1	-1E+10	1	-1E+10	1	-1E+10	1
4902549	74	C	08/28/2022	17:59	-131.954	47.652	0	31.00	0	14.7610	0	32.2380	0	23.896	0	30.739	0	268.8	4	105.9	4	-1E+10	1	-1E+10	1	-1E+10	1	-1E+10	1	-1E+10	1	-1E+10	1
4902549	74	C	08/28/2022	17:59	-131.954	47.652	0	31.90	0	12.7580	0	32.2000	0	24.273	0	31.631	0	274.1	4	103.7	4	-1E+10	1	-1E+10	1	-1E+10	1	-1E+10	1	-1E+10	1	-1E+10	1
4902549	74	C	08/28/2022	17:59	-131.954	47.652	0	32.80	0	12.2310	0	32.2000	0	24.373	0	32.523	0	275.2	4	103.0	4	-1E+10	1	-1E+10	1	-1E+10	1	-1E+10	1	-1E+10	1	-1E+10	1
4902549	74	C	08/28/2022	17:59	-131.954	47.652	0	34.00	0	11.7920	0	32.1980	0	24.453	0	33.713	0	276.2	4	102.4	4	-1E+10	1	-1E+10	1	-1E+10	1	-1E+10	1	-1E+10	1	-1E+10	1
4902549	74	C	08/28/2022	17:59	-131.954	47.652	0	35.00	0	11.6510	0	32.2000	0	24.481	0	34.704	0	275.8	4	102.0	4	-1E+10	1	-1E+10	1	-1E+10	1	-1E+10	1	-1E+10	1	-1E+10	1
4902549	74	C	08/28/2022	17:59	-131.954	47.652	0	36.00	0	11.3490	0	32.2140	0	24.546	0	35.696	0	276.5	4	101.6	4	-1E+10	1	-1E+10	1	-1E+10	1	-1E+10	1	-1E+10	1	-1E+10	1
4902549	74	C	08/28/2022	17:59	-131.954	47.652	0	37.10	0	11.2120	0	32.2010	0	24.560	0	36.787	0	276.7	4	101.3	4	-1E+10	1	-1E+10	1	-1E+10	1	-1E+10	1	-1E+10	1	-1E+10	1
4902549	74	C	08/28/2022	17:59	-131.954	47.652	0	37.90	0	11.1790	0	32.2030	0	24.568	0	37.580	0	276.0	4	101.0	4	-1E+10	1	-1E+10	1	-1E+10	1	-1E+10	1	-1E+10	1	-1E+10	1
4902549	74	C	08/28/2022	17:59	-131.954	47.652	0	38.70	0	11.1270	0	32.2020	0	24.576	0	38.373	0	275.6	4	100.8	4	-1E+10	1	-1E+10	1	-1E+10	1	-1E+10	1	-1E+10	1	-1E+10	1
4902549	74	C	08/28/2022	17:59	-131.954	47.652	0	39.80	0	11.0640	0	32.2010	0	24.587	0	39.463	0	275.0	4	100.4	4	-1E+10	1	-1E+10	1	-1E+10	1	-1E+10	1	-1E+10	1	-1E+10	1
4902549	74	C	08/28/2022	17:59	-131.954	47.652	0	41.00	0	11.0070	0	32.2010	0	24.597	0	40.653	0	274.4	4	100.1	4	-1E+10	1	-1E+10	1	-1E+10	1	-1E+10	1	-1E+10	1	-1E+10	1
4902549	74	C	08/28/2022	17:59	-131.954	47.652	0	41.90	0	10.9770	0	32.2030	0	24.604	0	41.546	0	273.8	4	99.8	4	-1E+10	1	-1E+10	1	-1E+10	1	-1E+10	1	-1E+10	1	-1E+10	1
4902549	74	C	08/28/2022	17:59	-131.954	47.652	0	42.80	0	10.8420	0	32.2040	0	24.628	0	42.438	0	273.9	4	99.5	4	-1E+10	1	-1E+10	1	-1E+10	1	-1E+10	1	-1E+10	1	-1E+10	1
4902549	74	C	08/28/2022	17:59	-131.954	47.652	0	44.10	0	10.7480	0	32.2030	0	24.643	0	43.727	0	273.5	4	99.2	4	-1E+10	1	-1E+10	1	-1E+10	1	-1E+10	1	-1E+10	1	-1E+10	1
4902549	74	C	08/28/2022	17:59	-131.954	47.652	0	45.00	0	10.6750	0	32.2050	0	24.658	0	44.619	0	273.0	4	98.9	4	-1E+10	1	-1E+10	1	-1E+10	1	-1E+10	1	-1E+10	1	-1E+10	1
4902549	74	C	08/28/2022	17:59	-131.954	47.652	0	46.00	0	10.6570	0	32.2050	0	24.661	0	45.610	0	272.3	4	98.6	4	-1E+10	1	-1E+10	1	-1E+10	1	-1E+10	1	-1E+10	1	-1E+10	1
4902549	74	C	08/28/2022	17:59	-131.954	47.652	0	46.90	0	10.5750	0	32.2050	0	24.675	0	46.503	0	271.9	4	98.2	4	-1E+10	1	-1E+10	1	-1E+10	1	-1E+10	1	-1E+10	1	-1E+10	1
4902549	74	C	08/28/2022	17:59	-131.954	47.652	0	47.80	0	10.4870	0	32.2070	0	24.691	0	47.395	0	271.5	4	97.9	4	-1E+10	1	-1E+10	1	-1E+10	1	-1E+10	1	-1E+10	1	-1E+10	1
4902549	74	C	08/28/2022	17:59	-131.954	47.652	0	49.00	0	10.4460	0	32.2060	0	24.698	0	48.585	0	270.6	4	97.5	4	-1E+10	1	-1E+10	1	-1E+10	1	-1E+10	1	-1E+10	1	-1E+10	1
4902549	74	C	08/28/2022	17:59	-131.954	47.652	0	50.00	0	10.4120	0	32.2090	0	24.706	0	49.576	0	269.7	4	97.1	4	-1E+10	1	-1E+10	1	-1E+10	1	-1E+10	1	-1E+10	1	-1E+10	1
4902549	74	C	08/28/2022	17:59	-131.954	47.652	0	50.90	0	10.3590	0	32.2040	0	24.711	0	50.468	0	268.7	4	96.7	4	-1E+10	1	-1E+10	1	-1E+10	1	-1E+10	1	-1E+10	1	-1E+10	1
4902549	74	C	08/28/2022	17:59	-131.954	47.652	0	51.90	0	10.3110	0	32.2020	0	24.717	0	51.460	0	267.8	4	96.2	4	-1E+10	1	-1E+10	1	-1E+10	1	-1E+10	1	-1E+10	1	-1E+10	1
4902549	74	C	08/28/2022	17:59	-131.954	47.652	0	52.80	0	10.1360	0	32.2060	0	24.750	0	52.352	0	267.8	4	95.9	4	-1E+10	1	-1E+10	1	-1E+10	1	-1E+10	1	-1E+10	1	-1E+10	1
4902549	74	C	08/28/2022	17:59	-131.954	47.652	0	53.80	0	10.0280	0	32.2090	0	24.770	0	53.343	0	267.6	4	95.6	4	-1E+10	1	-1E+10	1	-1E+10	1	-1E+10	1	-1E+10	1	-1E+10	1
4902549	74	C	08/28/2022	17:59	-131.954	47.652	0	54.80	0	9.9250	0	32.2110	0	24.789	0	54.335	0	267.2	4	95.2	4	-1E+10	1	-1E+10	1	-1E+10	1	-1E+10	1	-1E+10	1	-1E+10	1
4902549	74	C	08/28/2022	17:59	-131.954	47.652	0	56.10	0	9.7600	0	32.2180	0	24.821	0	55.623	0	267.1	4	94.9	4	-1E+10	1	-1E+10	1	-1E+10	1	-1E+10	1	-1E+10	1	-1E+10	1
4902549	74	C	08/28/2022	17:59	-131.954	47.652	0	57.30	0	9.7190	0	32.2180	0	24.828	0	56.813	0	266.4	4	94.5	4	-1E+10	1	-1E+10	1	-1E+10	1	-1E+10	1	-1E+10	1	-1E+10	1
4902549	74	C	08/28/2022	17:59	-131.954	47.652	0	57.90	0	9.6900	0	32.2180	0	24.832	0	57.408	0	266.0	4	94.3	4	-1E+10	1	-1E+10	1	-1E+10	1	-1E+10	1	-1E+10	1	-1E+10	1
4902549	74	C	08/28/2022	17:59	-131.954	47.652	0	58.90	0	9.6340	0	32.2210	0	24.844	0	58.399	0	265.2	4	93.9	4	-1E+10	1	-1E+10	1	-1E+10	1	-1E+10	1	-1E+10	1	-1E+10	1
4902549	74	C	08/28/2022	17:59	-131.954	47.652	0	60.00	0	9.4960	0	32.2280	0	24.872	0	59.490	0	265.0	4	93.6	4	-1E+10	1	-1E+10	1	-1E+10	1	-1E+10	1	-1E+10	1	-1E+10	1
4902549	74	C	08/28/2022	17:59	-131.954	47.652	0	61.00	0	9.4140	0	32.2290	0	24.885	0	60.481	0	264.3	4	93.2	4	-1E+10	1	-1E+10	1	-1E+10	1	-1E+10	1	-1E+10	1	-1E+10	1
4902549	74	C	08/28/2022	17:59	-131.954	47.652	0	61.90	0	9.2820	0	32.2400	0	24.915	0	61.373	0	264.2	4	92.8	4	-1E+10	1	-1E+10	1	-1E+10	1	-1E+10	1	-1E+10	1	-1E+10	1
4902549	74	C	08/28/2022	17:59	-131.954	47.652	0	62.90	0	9.2160	0	32.2470	0	24.931	0	62.365	0	263.5	4	92.5	4	-1E+10	1	-1E+10	1	-1E+10	1	-1E+10	1	-1E+10	1	-1E+10	1
4902549	74	C	08/28/2022	17:59	-131.954	47.652	0	63.90	0	9.2040	0	32.2460	0	24.932	0	63.356	0	262.6	4	92.1	4	-1E+10	1	-1E+10	1	-1E+10	1	-1E+10	1	-1E+10	1	-1E+10	1
4902549	74	C	08/28/2022	17:59	-131.954	47.652	0	65.00	0	9.1560	0	32.2490	0	24.942	0	64.446	0	261.7	4	91.7	4	-1E+10	1	-1E+10	1	-1E+10	1	-1E+10	1	-1E+10	1	-1E+10	1
4902549	74	C	08/28/2022	17:59	-131.954	47.652	0	66.20	0	9.0570	0	32.2590	0	24.965	0	65.636	0	261.2	4	91.4	4	-1E+10	1	-1E+10	1	-1E+10	1	-1E+10	1	-1E+10	1	-1E+10	1
4902549	74	C	08/28/2022	17:59	-131.954	47.652	0	67.00	0	9.0510	0	32.2570	0	24.964	0	66.429	0	260.4	4	91.1	4	-1E+10	1	-1E+10	1	-1E+10	1	-1E+10	1	-1E+10	1	-1E+10	1
4902549	74	C	08/28/2022	17:59	-131.954	47.652	0	68.10	0	9.0480	0	32.2560	0	24.964	0	67.520	0	259.4	4	90.7	4	-1E+10	1	-1E+10	1	-1E+10	1	-1E+10	1	-1E+10	1	-1E+10	1
4902549	74	C	08/28/2022	17:59	-131.954	47.652	0	69.10	0	8.9960	0	32.2600	0	24.975	0	68.511	0	258.5	4	90.3	4	-1E+10	1	-1E+10	1	-1E+10	1	-1E+10	1	-1E+10	1	-1E+10	1
4902549	74	C	08/28/2022	17:59	-131.954	47.652	0	70.10	0	8.9200	0	32.2660	0	24.992	0	69.502	0	257.9	4	89.9	4	-1E+10	1	-1E+10	1	-1E+10	1	-1E+10	1	-1E+10	1	-1E+10	1
4902549	74	C	08/28/2022	17:59	-131.954	47.652	0	71.00	0	8.8810	0	32.2690	0	25.000	0	70.394	0	257.4	4	89.7	4	-1E+10	1	-1E+10	1	-1E+10	1	-1E+10	1	-1E+10	1	-1E+10	1
4902549	74	C	08/28/2022	17:59	-131.954	47.652	0	71.70	0	8.8360	0	32.2740	0	25.011	0	71.088	0	256.8	4	89.4	4	-1E+10	1	-1E+10	1	-1E+10	1	-1E+10	1	-1E+10	1	-1E+10	1
4902549	74	C	08/28/2022	17:59	-131.954	47.652	0	72.90	0	8.8070	0	32.2750	0	25.016	0	72.278	0	255.9	4	89.0	4	-1E+10	1	-1E+10	1	-1E+10	1	-1E+10	1	-1E+10	1	-1E+10	1
4902549	74	C	08/28/2022	17:59	-131.954	47.652	0	74.00	0	8.7470	0	32.2780	0	25.028	0	73.368	0	255.1	4	88.6	4	-1E+10	1	-1E+10	1	-1E+10	1	-1E+10	1	-1E+10	1	-1E+10	1
4902549	74	C	08/28/2022	17:59	-131.954	47.652	0	74.90	0	8.7210	0	32.2780	0	25.032	0	74.260	0	254.4	4	88.3	4	-1E+10	1	-1E+10	1	-1E+10	1	-1E+10	1	-1E+10	1	-1E+10	1
4902549	74	C	08/28/2022	17:59	-131.954	47.652	0	75.80	0	8.6870	0	32.2830	0	25.041	0	75.153	0	253.5	4	88.0	4	-1E+10	1	-1E+10	1	-1E+10	1	-1E+10	1	-1E+10	1	-1E+10	1
4902549	74	C	08/28/2022	17:59	-131.954	47.652	0	77.00	0	8.6330	0	32.2890	0	25.053	0	76.342	0	252.5	4	87.5	4	-1E+10	1	-1E+10	1	-1E+10	1	-1E+10	1	-1E+10	1	-1E+10	1
4902549	74	C	08/28/2022	17:59	-131.954	47.652	0	77.90	0	8.5850	0	32.2950	0	25.065	0	77.234	0	251.8	4	87.2	4	-1E+10	1	-1E+10	1	-1E+10	1	-1E+10	1	-1E+10	1	-1E+10	1
4902549	74	C	08/28/2022	17:59	-131.954	47.652	0	78.80	0	8.5600	0	32.2980	0	25.072	0	78.126	0	250.7	4	86.8	4	-1E+10	1	-1E+10	1	-1E+10	1	-1E+10	1	-1E+10	1	-1E+10	1
4902549	74	C	08/28/2022	17:59	-131.954	47.652	0	80.10	0	8.5130	0	32.3080	0	25.086	0	79.415	0	249.4	4	86.2	4	-1E+10	1	-1E+10	1	-1E+10	1	-1E+10	1	-1E+10	1	-1E+10	1
4902549	74	C	08/28/2022	17:59	-131.954	47.652	0	81.00	0	8.4800	0	32.3120	0	25.094	0	80.307	0	248.4	4	85.8	4	-1E+10	1	-1E+10	1	-1E+10	1	-1E+10	1	-1E+10	1	-1E+10	1
4902549	74	C	08/28/2022	17:59	-131.954	47.652	0	81.90	0	8.4260	0	32.3210	0	25.110	0	81.199	0	247.4	4	85.4	4	-1E+10	1	-1E+10	1	-1E+10	1	-1E+10	1	-1E+10	1	-1E+10	1
4902549	74	C	08/28/2022	17:59	-131.954	47.652	0	83.10	0	8.3650	0	32.3310	0	25.126	0	82.389	0	245.7	4	84.7	4	-1E+10	1	-1E+10	1	-1E+10	1	-1E+10	1	-1E+10	1	-1E+10	1
4902549	74	C	08/28/2022	17:59	-131.954	47.652	0	84.00	0	8.3210	0	32.3370	0	25.138	0	83.281	0	244.4	4	84.2	4	-1E+10	1	-1E+10	1	-1E+10	1	-1E+10	1	-1E+10	1	-1E+10	1
4902549	74	C	08/28/2022	17:59	-131.954	47.652	0	84.80	0	8.2790	0	32.3430	0	25.149	0	84.074	0	243.2	4	83.7	4	-1E+10	1	-1E+10	1	-1E+10	1	-1E+10	1	-1E+10	1	-1E+10	1
4902549	74	C	08/28/2022	17:59	-131.954	47.652	0	86.00	0	8.0920	0	32.3710	0	25.198	0	85.263	0	241.8	4	82.9	4	-1E+10	1	-1E+10	1	-1E+10	1	-1E+10	1	-1E+10	1	-1E+10	1
4902549	74	C	08/28/2022	17:59	-131.954	47.652	0	87.10	0	7.9670	0	32.3960	0	25.236	0	86.354	0	240.4	4	82.2	4	-1E+10	1	-1E+10	1	-1E+10	1	-1E+10	1	-1E+10	1	-1E+10	1
4902549	74	C	08/28/2022	17:59	-131.954	47.652	0	88.00	0	7.9230	0	32.4130	0	25.255	0	87.246	0	239.2	4	81.7	4	-1E+10	1	-1E+10	1	-1E+10	1	-1E+10	1	-1E+10	1	-1E+10	1
4902549	74	C	08/28/2022	17:59	-131.954	47.652	0	88.80	0	7.9100	0	32.4190	0	25.262	0	88.039	0	237.6	4	81.1	4	-1E+10	1	-1E+10	1	-1E+10	1	-1E+10	1	-1E+10	1	-1E+10	1
4902549	74	C	08/28/2022	17:59	-131.954	47.652	0	89.80	0	7.8970	0	32.4350	0	25.276	0	89.030	0	235.6	4	80.4	4	-1E+10	1	-1E+10	1	-1E+10	1	-1E+10	1	-1E+10	1	-1E+10	1
4902549	74	C	08/28/2022	17:59	-131.954	47.652	0	91.10	0	7.8450	0	32.4750	0	25.315	0	90.318	0	232.9	4	79.4	4	-1E+10	1	-1E+10	1	-1E+10	1	-1E+10	1	-1E+10	1	-1E+10	1
4902549	74	C	08/28/2022	17:59	-131.954	47.652	0	91.90	0	7.8350	0	32.4820	0	25.322	0	91.111	0	230.2	4	78.5	4	-1E+10	1	-1E+10	1	-1E+10	1	-1E+10	1	-1E+10	1	-1E+10	1
4902549	74	C	08/28/2022	17:59	-131.954	47.652	0	93.10	0	7.8500	0	32.4950	0	25.330	0	92.301	0	225.9	4	77.1	4	-1E+10	1	-1E+10	1	-1E+10	1	-1E+10	1	-1E+10	1	-1E+10	1
4902549	74	C	08/28/2022	17:59	-131.954	47.652	0	94.00	0	7.7970	0	32.5150	0	25.353	0	93.193	0	222.7	4	75.9	4	-1E+10	1	-1E+10	1	-1E+10	1	-1E+10	1	-1E+10	1	-1E+10	1
4902549	74	C	08/28/2022	17:59	-131.954	47.652	0	95.00	0	7.7680	0	32.5330	0	25.372	0	94.184	0	219.2	4	74.6	4	-1E+10	1	-1E+10	1	-1E+10	1	-1E+10	1	-1E+10	1	-1E+10	1
4902549	74	C	08/28/2022	17:59	-131.954	47.652	0	95.90	0	7.7770	0	32.5600	0	25.392	0	95.076	0	216.0	4	73.6	4	-1E+10	1	-1E+10	1	-1E+10	1	-1E+10	1	-1E+10	1	-1E+10	1
4902549	74	C	08/28/2022	17:59	-131.954	47.652	0	96.90	0	7.7990	0	32.6180	0	25.434	0	96.067	0	212.7	4	72.5	4	-1E+10	1	-1E+10	1	-1E+10	1	-1E+10	1	-1E+10	1	-1E+10	1
4902549	74	C	08/28/2022	17:59	-131.954	47.652	0	97.90	0	7.7210	0	32.6880	0	25.500	0	97.059	0	210.1	4	71.6	4	-1E+10	1	-1E+10	1	-1E+10	1	-1E+10	1	-1E+10	1	-1E+10	1
4902549	74	C	08/28/2022	17:59	-131.954	47.652	0	99.20	0	7.6690	0	32.7440	0	25.551	0	98.347	0	207.7	4	70.7	4	-1E+10	1	-1E+10	1	-1E+10	1	-1E+10	1	-1E+10	1	-1E+10	1
4902549	74	C	08/28/2022	17:59	-131.954	47.652	0	100.10	0	7.6380	0	32.7850	0	25.588	0	99.239	0	205.5	4	69.9	4	-1E+10	1	-1E+10	1	-1E+10	1	-1E+10	1	-1E+10	1	-1E+10	1
4902549	74	C	08/28/2022	17:59	-131.954	47.652	0	101.00	0	7.6320	0	32.8150	0	25.612	0	100.131	0	203.3	4	69.2	4	-1E+10	1	-1E+10	1	-1E+10	1	-1E+10	1	-1E+10	1	-1E+10	1
4902549	74	C	08/28/2022	17:59	-131.954	47.652	0	102.00	0	7.6190	0	32.8360	0	25.631	0	101.122	0	201.1	4	68.4	4	-1E+10	1	-1E+10	1	-1E+10	1	-1E+10	1	-1E+10	1	-1E+10	1
4902549	74	C	08/28/2022	17:59	-131.954	47.652	0	102.90	0	7.6090	0	32.8640	0	25.654	0	102.014	0	198.7	4	67.6	4	-1E+10	1	-1E+10	1	-1E+10	1	-1E+10	1	-1E+10	1	-1E+10	1
4902549	74	C	08/28/2022	17:59	-131.954	47.652	0	104.10	0	7.5930	0	32.8920	0	25.678	0	103.204	0	194.9	4	66.3	4	-1E+10	1	-1E+10	1	-1E+10	1	-1E+10	1	-1E+10	1	-1E+10	1
4902549	74	C	08/28/2022	17:59	-131.954	47.652	0	105.10	0	7.5630	0	32.9550	0	25.732	0	104.195	0	192.4	4	65.4	4	-1E+10	1	-1E+10	1	-1E+10	1	-1E+10	1	-1E+10	1	-1E+10	1
4902549	74	C	08/28/2022	17:59	-131.954	47.652	0	105.80	0	7.5500	0	32.9850	0	25.758	0	104.889	0	190.9	4	64.9	4	-1E+10	1	-1E+10	1	-1E+10	1	-1E+10	1	-1E+10	1	-1E+10	1
4902549	74	C	08/28/2022	17:59	-131.954	47.652	0	106.90	0	7.5390	0	33.0080	0	25.777	0	105.979	0	188.5	4	64.1	4	-1E+10	1	-1E+10	1	-1E+10	1	-1E+10	1	-1E+10	1	-1E+10	1
4902549	74	C	08/28/2022	17:59	-131.954	47.652	0	107.90	0	7.5350	0	33.0120	0	25.781	0	106.970	0	185.4	4	63.0	4	-1E+10	1	-1E+10	1	-1E+10	1	-1E+10	1	-1E+10	1	-1E+10	1
4902549	74	C	08/28/2022	17:59	-131.954	47.652	0	109.00	0	7.5210	0	33.0360	0	25.802	0	108.060	0	181.8	4	61.8	4	-1E+10	1	-1E+10	1	-1E+10	1	-1E+10	1	-1E+10	1	-1E+10	1
4902549	74	C	08/28/2022	17:59	-131.954	47.652	0	110.30	0	7.4770	0	33.1280	0	25.880	0	109.349	0	178.1	4	60.5	4	-1E+10	1	-1E+10	1	-1E+10	1	-1E+10	1	-1E+10	1	-1E+10	1
4902549	74	C	08/28/2022	17:59	-131.954	47.652	0	111.00	0	7.4730	0	33.1400	0	25.890	0	110.042	0	176.4	4	59.9	4	-1E+10	1	-1E+10	1	-1E+10	1	-1E+10	1	-1E+10	1	-1E+10	1
4902549	74	C	08/28/2022	17:59	-131.954	47.652	0	112.10	0	7.4560	0	33.1770	0	25.922	0	111.133	0	174.2	4	59.2	4	-1E+10	1	-1E+10	1	-1E+10	1	-1E+10	1	-1E+10	1	-1E+10	1
4902549	74	C	08/28/2022	17:59	-131.954	47.652	0	112.90	0	7.4330	0	33.2320	0	25.968	0	111.926	0	172.7	4	58.7	4	-1E+10	1	-1E+10	1	-1E+10	1	-1E+10	1	-1E+10	1	-1E+10	1
4902549	74	C	08/28/2022	17:59	-131.954	47.652	0	113.80	0	7.4270	0	33.2550	0	25.987	0	112.818	0	171.4	4	58.2	4	-1E+10	1	-1E+10	1	-1E+10	1	-1E+10	1	-1E+10	1	-1E+10	1
4902549	74	C	08/28/2022	17:59	-131.954	47.652	0	115.10	0	7.4090	0	33.3020	0	26.027	0	114.106	0	169.7	4	57.6	4	-1E+10	1	-1E+10	1	-1E+10	1	-1E+10	1	-1E+10	1	-1E+10	1
4902549	74	C	08/28/2022	17:59	-131.954	47.652	0	116.10	0	7.4030	0	33.3250	0	26.046	0	115.097	0	168.5	4	57.3	4	-1E+10	1	-1E+10	1	-1E+10	1	-1E+10	1	-1E+10	1	-1E+10	1
4902549	74	C	08/28/2022	17:59	-131.954	47.652	0	117.00	0	7.4010	0	33.3390	0	26.057	0	115.989	0	167.4	4	56.9	4	-1E+10	1	-1E+10	1	-1E+10	1	-1E+10	1	-1E+10	1	-1E+10	1
4902549	74	C	08/28/2022	17:59	-131.954	47.652	0	118.10	0	7.3990	0	33.3550	0	26.070	0	117.079	0	166.3	4	56.5	4	-1E+10	1	-1E+10	1	-1E+10	1	-1E+10	1	-1E+10	1	-1E+10	1
4902549	74	C	08/28/2022	17:59	-131.954	47.652	0	118.90	0	7.3970	0	33.3630	0	26.076	0	117.872	0	165.6	4	56.3	4	-1E+10	1	-1E+10	1	-1E+10	1	-1E+10	1	-1E+10	1	-1E+10	1
4902549	74	C	08/28/2022	17:59	-131.954	47.652	0	119.90	0	7.3920	0	33.3880	0	26.097	0	118.863	0	164.7	4	56.0	4	-1E+10	1	-1E+10	1	-1E+10	1	-1E+10	1	-1E+10	1	-1E+10	1
4902549	74	C	08/28/2022	17:59	-131.954	47.652	0	121.10	0	7.3930	0	33.3930	0	26.101	0	120.052	0	163.7	4	55.6	4	-1E+10	1	-1E+10	1	-1E+10	1	-1E+10	1	-1E+10	1	-1E+10	1
4902549	74	C	08/28/2022	17:59	-131.954	47.652	0	121.80	0	7.3920	0	33.4040	0	26.109	0	120.746	0	163.1	4	55.4	4	-1E+10	1	-1E+10	1	-1E+10	1	-1E+10	1	-1E+10	1	-1E+10	1
4902549	74	C	08/28/2022	17:59	-131.954	47.652	0	122.90	0	7.3920	0	33.4090	0	26.113	0	121.836	0	161.9	4	55.0	4	-1E+10	1	-1E+10	1	-1E+10	1	-1E+10	1	-1E+10	1	-1E+10	1
4902549	74	C	08/28/2022	17:59	-131.954	47.652	0	124.20	0	7.3920	0	33.4110	0	26.115	0	123.125	0	160.7	4	54.6	4	-1E+10	1	-1E+10	1	-1E+10	1	-1E+10	1	-1E+10	1	-1E+10	1
4902549	74	C	08/28/2022	17:59	-131.954	47.652	0	125.10	0	7.3910	0	33.4230	0	26.125	0	124.017	0	159.8	4	54.3	4	-1E+10	1	-1E+10	1	-1E+10	1	-1E+10	1	-1E+10	1	-1E+10	1
4902549	74	C	08/28/2022	17:59	-131.954	47.652	0	125.90	0	7.3890	0	33.4300	0	26.130	0	124.809	0	158.9	4	54.0	4	-1E+10	1	-1E+10	1	-1E+10	1	-1E+10	1	-1E+10	1	-1E+10	1
4902549	74	C	08/28/2022	17:59	-131.954	47.652	0	126.80	0	7.3880	0	33.4380	0	26.137	0	125.701	0	157.9	4	53.7	4	-1E+10	1	-1E+10	1	-1E+10	1	-1E+10	1	-1E+10	1	-1E+10	1
4902549	74	C	08/28/2022	17:59	-131.954	47.652	0	127.70	0	7.3810	0	33.4620	0	26.157	0	126.593	0	157.3	4	53.5	4	-1E+10	1	-1E+10	1	-1E+10	1	-1E+10	1	-1E+10	1	-1E+10	1
4902549	74	C	08/28/2022	17:59	-131.954	47.652	0	128.70	0	7.3740	0	33.4880	0	26.178	0	127.584	0	156.6	4	53.2	4	-1E+10	1	-1E+10	1	-1E+10	1	-1E+10	1	-1E+10	1	-1E+10	1
4902549	74	C	08/28/2022	17:59	-131.954	47.652	0	129.70	0	7.3710	0	33.4930	0	26.183	0	128.575	0	156.0	4	53.0	4	-1E+10	1	-1E+10	1	-1E+10	1	-1E+10	1	-1E+10	1	-1E+10	1
4902549	74	C	08/28/2022	17:59	-131.954	47.652	0	130.60	0	7.3660	0	33.4990	0	26.188	0	129.467	0	155.3	4	52.8	4	-1E+10	1	-1E+10	1	-1E+10	1	-1E+10	1	-1E+10	1	-1E+10	1
4902549	74	C	08/28/2022	17:59	-131.954	47.652	0	131.60	0	7.3550	0	33.5190	0	26.205	0	130.458	0	154.6	4	52.6	4	-1E+10	1	-1E+10	1	-1E+10	1	-1E+10	1	-1E+10	1	-1E+10	1
4902549	74	C	08/28/2022	17:59	-131.954	47.652	0	132.60	0	7.3540	0	33.5250	0	26.210	0	131.449	0	153.8	4	52.3	4	-1E+10	1	-1E+10	1	-1E+10	1	-1E+10	1	-1E+10	1	-1E+10	1
4902549	74	C	08/28/2022	17:59	-131.954	47.652	0	133.60	0	7.3490	0	33.5420	0	26.224	0	132.440	0	153.0	4	52.0	4	-1E+10	1	-1E+10	1	-1E+10	1	-1E+10	1	-1E+10	1	-1E+10	1
4902549	74	C	08/28/2022	17:59	-131.954	47.652	0	134.70	0	7.3420	0	33.5640	0	26.242	0	133.530	0	152.5	4	51.8	4	-1E+10	1	-1E+10	1	-1E+10	1	-1E+10	1	-1E+10	1	-1E+10	1
4902549	74	C	08/28/2022	17:59	-131.954	47.652	0	135.70	0	7.3340	0	33.5750	0	26.252	0	134.521	0	151.9	4	51.6	4	-1E+10	1	-1E+10	1	-1E+10	1	-1E+10	1	-1E+10	1	-1E+10	1
4902549	74	C	08/28/2022	17:59	-131.954	47.652	0	136.70	0	7.3290	0	33.5820	0	26.258	0	135.512	0	151.4	4	51.4	4	-1E+10	1	-1E+10	1	-1E+10	1	-1E+10	1	-1E+10	1	-1E+10	1
4902549	74	C	08/28/2022	17:59	-131.954	47.652	0	137.80	0	7.3270	0	33.5880	0	26.263	0	136.602	0	150.8	4	51.3	4	-1E+10	1	-1E+10	1	-1E+10	1	-1E+10	1	-1E+10	1	-1E+10	1
4902549	74	C	08/28/2022	17:59	-131.954	47.652	0	138.80	0	7.3260	0	33.5910	0	26.266	0	137.593	0	150.3	4	51.1	4	-1E+10	1	-1E+10	1	-1E+10	1	-1E+10	1	-1E+10	1	-1E+10	1
4902549	74	C	08/28/2022	17:59	-131.954	47.652	0	139.90	0	7.3190	0	33.5980	0	26.273	0	138.683	0	149.7	4	50.9	4	-1E+10	1	-1E+10	1	-1E+10	1	-1E+10	1	-1E+10	1	-1E+10	1
4902549	74	C	08/28/2022	17:59	-131.954	47.652	0	140.90	0	7.3130	0	33.6050	0	26.279	0	139.674	0	149.1	4	50.7	4	-1E+10	1	-1E+10	1	-1E+10	1	-1E+10	1	-1E+10	1	-1E+10	1
4902549	74	C	08/28/2022	17:59	-131.954	47.652	0	142.00	0	7.3060	0	33.6170	0	26.289	0	140.764	0	148.6	4	50.5	4	-1E+10	1	-1E+10	1	-1E+10	1	-1E+10	1	-1E+10	1	-1E+10	1
4902549	74	C	08/28/2022	17:59	-131.954	47.652	0	143.00	0	7.3020	0	33.6220	0	26.294	0	141.755	0	147.9	4	50.2	4	-1E+10	1	-1E+10	1	-1E+10	1	-1E+10	1	-1E+10	1	-1E+10	1
4902549	74	C	08/28/2022	17:59	-131.954	47.652	0	144.00	0	7.2970	0	33.6300	0	26.301	0	142.746	0	147.4	4	50.1	4	-1E+10	1	-1E+10	1	-1E+10	1	-1E+10	1	-1E+10	1	-1E+10	1
4902549	74	C	08/28/2022	17:59	-131.954	47.652	0	145.10	0	7.2900	0	33.6420	0	26.311	0	143.836	0	146.9	4	49.9	4	-1E+10	1	-1E+10	1	-1E+10	1	-1E+10	1	-1E+10	1	-1E+10	1
4902549	74	C	08/28/2022	17:59	-131.954	47.652	0	146.10	0	7.2880	0	33.6440	0	26.313	0	144.827	0	146.3	4	49.7	4	-1E+10	1	-1E+10	1	-1E+10	1	-1E+10	1	-1E+10	1	-1E+10	1
4902549	74	C	08/28/2022	17:59	-131.954	47.652	0	147.10	0	7.2840	0	33.6510	0	26.319	0	145.818	0	145.8	4	49.5	4	-1E+10	1	-1E+10	1	-1E+10	1	-1E+10	1	-1E+10	1	-1E+10	1
4902549	74	C	08/28/2022	17:59	-131.954	47.652	0	148.10	0	7.2770	0	33.6600	0	26.327	0	146.809	0	145.3	4	49.3	4	-1E+10	1	-1E+10	1	-1E+10	1	-1E+10	1	-1E+10	1	-1E+10	1
4902549	74	C	08/28/2022	17:59	-131.954	47.652	0	149.10	0	7.2730	0	33.6650	0	26.332	0	147.800	0	144.8	4	49.2	4	-1E+10	1	-1E+10	1	-1E+10	1	-1E+10	1	-1E+10	1	-1E+10	1
4902549	74	C	08/28/2022	17:59	-131.954	47.652	0	150.10	0	7.2710	0	33.6690	0	26.335	0	148.791	0	144.3	4	49.0	4	-1E+10	1	-1E+10	1	-1E+10	1	-1E+10	1	-1E+10	1	-1E+10	1
4902549	74	C	08/28/2022	17:59	-131.954	47.652	0	151.10	0	7.2690	0	33.6710	0	26.337	0	149.782	0	143.7	4	48.8	4	-1E+10	1	-1E+10	1	-1E+10	1	-1E+10	1	-1E+10	1	-1E+10	1
4902549	74	C	08/28/2022	17:59	-131.954	47.652	0	152.10	0	7.2630	0	33.6780	0	26.343	0	150.773	0	143.2	4	48.6	4	-1E+10	1	-1E+10	1	-1E+10	1	-1E+10	1	-1E+10	1	-1E+10	1
4902549	74	C	08/28/2022	17:59	-131.954	47.652	0	153.00	0	7.2570	0	33.6820	0	26.347	0	151.665	0	142.6	4	48.4	4	-1E+10	1	-1E+10	1	-1E+10	1	-1E+10	1	-1E+10	1	-1E+10	1
4902549	74	C	08/28/2022	17:59	-131.954	47.652	0	154.00	0	7.2480	0	33.6880	0	26.353	0	152.656	0	142.1	4	48.2	4	-1E+10	1	-1E+10	1	-1E+10	1	-1E+10	1	-1E+10	1	-1E+10	1
4902549	74	C	08/28/2022	17:59	-131.954	47.652	0	154.90	0	7.2390	0	33.6960	0	26.361	0	153.547	0	141.5	4	48.0	4	-1E+10	1	-1E+10	1	-1E+10	1	-1E+10	1	-1E+10	1	-1E+10	1
4902549	74	C	08/28/2022	17:59	-131.954	47.652	0	155.90	0	7.2220	0	33.7060	0	26.371	0	154.538	0	141.0	4	47.8	4	-1E+10	1	-1E+10	1	-1E+10	1	-1E+10	1	-1E+10	1	-1E+10	1
4902549	74	C	08/28/2022	17:59	-131.954	47.652	0	156.80	0	7.2100	0	33.7140	0	26.379	0	155.430	0	140.7	4	47.7	4	-1E+10	1	-1E+10	1	-1E+10	1	-1E+10	1	-1E+10	1	-1E+10	1
4902549	74	C	08/28/2022	17:59	-131.954	47.652	0	157.80	0	7.1850	0	33.7280	0	26.394	0	156.421	0	140.5	4	47.7	4	-1E+10	1	-1E+10	1	-1E+10	1	-1E+10	1	-1E+10	1	-1E+10	1
4902549	74	C	08/28/2022	17:59	-131.954	47.652	0	158.70	0	7.1750	0	33.7320	0	26.398	0	157.313	0	140.5	4	47.6	4	-1E+10	1	-1E+10	1	-1E+10	1	-1E+10	1	-1E+10	1	-1E+10	1
4902549	74	C	08/28/2022	17:59	-131.954	47.652	0	159.70	0	7.1720	0	33.7330	0	26.399	0	158.304	0	140.4	4	47.6	4	-1E+10	1	-1E+10	1	-1E+10	1	-1E+10	1	-1E+10	1	-1E+10	1
4902549	74	C	08/28/2022	17:59	-131.954	47.652	0	160.60	0	7.1810	0	33.7470	0	26.409	0	159.195	0	140.8	4	47.7	4	-1E+10	1	-1E+10	1	-1E+10	1	-1E+10	1	-1E+10	1	-1E+10	1
4902549	74	C	08/28/2022	17:59	-131.954	47.652	0	161.60	0	7.1350	0	33.7460	0	26.415	0	160.186	0	140.8	4	47.7	4	-1E+10	1	-1E+10	1	-1E+10	1	-1E+10	1	-1E+10	1	-1E+10	1
4902549	74	C	08/28/2022	17:59	-131.954	47.652	0	162.90	0	7.1170	0	33.7490	0	26.420	0	161.474	0	140.3	4	47.5	4	-1E+10	1	-1E+10	1	-1E+10	1	-1E+10	1	-1E+10	1	-1E+10	1
4902549	74	C	08/28/2022	17:59	-131.954	47.652	0	164.30	0	7.1020	0	33.7530	0	26.425	0	162.862	0	139.8	4	47.3	4	-1E+10	1	-1E+10	1	-1E+10	1	-1E+10	1	-1E+10	1	-1E+10	1
4902549	74	C	08/28/2022	17:59	-131.954	47.652	0	165.20	0	7.1000	0	33.7540	0	26.426	0	163.753	0	139.5	4	47.2	4	-1E+10	1	-1E+10	1	-1E+10	1	-1E+10	1	-1E+10	1	-1E+10	1
4902549	74	C	08/28/2022	17:59	-131.954	47.652	0	166.20	0	7.0800	0	33.7630	0	26.436	0	164.744	0	139.1	4	47.1	4	-1E+10	1	-1E+10	1	-1E+10	1	-1E+10	1	-1E+10	1	-1E+10	1
4902549	74	C	08/28/2022	17:59	-131.954	47.652	0	167.10	0	7.0650	0	33.7670	0	26.441	0	165.636	0	138.8	4	46.9	4	-1E+10	1	-1E+10	1	-1E+10	1	-1E+10	1	-1E+10	1	-1E+10	1
4902549	74	C	08/28/2022	17:59	-131.954	47.652	0	168.10	0	7.0420	0	33.7740	0	26.450	0	166.627	0	138.3	4	46.8	4	-1E+10	1	-1E+10	1	-1E+10	1	-1E+10	1	-1E+10	1	-1E+10	1
4902549	74	C	08/28/2022	17:59	-131.954	47.652	0	169.00	0	7.0200	0	33.7750	0	26.453	0	167.519	0	137.9	4	46.6	4	-1E+10	1	-1E+10	1	-1E+10	1	-1E+10	1	-1E+10	1	-1E+10	1
4902549	74	C	08/28/2022	17:59	-131.954	47.652	0	170.00	0	7.0020	0	33.7790	0	26.459	0	168.509	0	137.4	4	46.4	4	-1E+10	1	-1E+10	1	-1E+10	1	-1E+10	1	-1E+10	1	-1E+10	1
4902549	74	C	08/28/2022	17:59	-131.954	47.652	0	170.90	0	6.9890	0	33.7830	0	26.464	0	169.401	0	137.0	4	46.3	4	-1E+10	1	-1E+10	1	-1E+10	1	-1E+10	1	-1E+10	1	-1E+10	1
4902549	74	C	08/28/2022	17:59	-131.954	47.652	0	171.90	0	6.9760	0	33.7860	0	26.468	0	170.392	0	136.4	4	46.1	4	-1E+10	1	-1E+10	1	-1E+10	1	-1E+10	1	-1E+10	1	-1E+10	1
4902549	74	C	08/28/2022	17:59	-131.954	47.652	0	172.90	0	6.9570	0	33.7890	0	26.473	0	171.383	0	136.0	4	45.9	4	-1E+10	1	-1E+10	1	-1E+10	1	-1E+10	1	-1E+10	1	-1E+10	1
4902549	74	C	08/28/2022	17:59	-131.954	47.652	0	173.90	0	6.9510	0	33.7900	0	26.475	0	172.374	0	135.4	4	45.7	4	-1E+10	1	-1E+10	1	-1E+10	1	-1E+10	1	-1E+10	1	-1E+10	1
4902549	74	C	08/28/2022	17:59	-131.954	47.652	0	174.80	0	6.9500	0	33.7890	0	26.474	0	173.265	0	134.7	4	45.5	4	-1E+10	1	-1E+10	1	-1E+10	1	-1E+10	1	-1E+10	1	-1E+10	1
4902549	74	C	08/28/2022	17:59	-131.954	47.652	0	175.80	0	6.9470	0	33.7900	0	26.475	0	174.256	0	134.0	4	45.2	4	-1E+10	1	-1E+10	1	-1E+10	1	-1E+10	1	-1E+10	1	-1E+10	1
4902549	74	C	08/28/2022	17:59	-131.954	47.652	0	176.60	0	6.9460	0	33.7900	0	26.475	0	175.049	0	133.1	4	44.9	4	-1E+10	1	-1E+10	1	-1E+10	1	-1E+10	1	-1E+10	1	-1E+10	1
4902549	74	C	08/28/2022	17:59	-131.954	47.652	0	178.00	0	6.9430	0	33.7910	0	26.477	0	176.436	0	131.5	4	44.4	4	-1E+10	1	-1E+10	1	-1E+10	1	-1E+10	1	-1E+10	1	-1E+10	1
4902549	74	C	08/28/2022	17:59	-131.954	47.652	0	179.10	0	6.9330	0	33.7930	0	26.480	0	177.526	0	130.1	4	43.9	4	-1E+10	1	-1E+10	1	-1E+10	1	-1E+10	1	-1E+10	1	-1E+10	1
4902549	74	C	08/28/2022	17:59	-131.954	47.652	0	179.80	0	6.9210	0	33.7950	0	26.483	0	178.219	0	129.2	4	43.6	4	-1E+10	1	-1E+10	1	-1E+10	1	-1E+10	1	-1E+10	1	-1E+10	1
4902549	74	C	08/28/2022	17:59	-131.954	47.652	0	180.90	0	6.8910	0	33.8010	0	26.492	0	179.309	0	127.8	4	43.1	4	-1E+10	1	-1E+10	1	-1E+10	1	-1E+10	1	-1E+10	1	-1E+10	1
4902549	74	C	08/28/2022	17:59	-131.954	47.652	0	182.00	0	6.8640	0	33.8060	0	26.499	0	180.399	0	126.3	4	42.5	4	-1E+10	1	-1E+10	1	-1E+10	1	-1E+10	1	-1E+10	1	-1E+10	1
4902549	74	C	08/28/2022	17:59	-131.954	47.652	0	182.80	0	6.8540	0	33.8070	0	26.501	0	181.192	0	125.2	4	42.1	4	-1E+10	1	-1E+10	1	-1E+10	1	-1E+10	1	-1E+10	1	-1E+10	1
4902549	74	C	08/28/2022	17:59	-131.954	47.652	0	183.80	0	6.8350	0	33.8120	0	26.508	0	182.182	0	123.4	4	41.5	4	-1E+10	1	-1E+10	1	-1E+10	1	-1E+10	1	-1E+10	1	-1E+10	1
4902549	74	C	08/28/2022	17:59	-131.954	47.652	0	185.00	0	6.8210	0	33.8170	0	26.514	0	183.371	0	121.6	4	40.9	4	-1E+10	1	-1E+10	1	-1E+10	1	-1E+10	1	-1E+10	1	-1E+10	1
4902549	74	C	08/28/2022	17:59	-131.954	47.652	0	185.80	0	6.8320	0	33.8220	0	26.516	0	184.164	0	120.6	4	40.6	4	-1E+10	1	-1E+10	1	-1E+10	1	-1E+10	1	-1E+10	1	-1E+10	1
4902549	74	C	08/28/2022	17:59	-131.954	47.652	0	187.00	0	6.8690	0	33.8290	0	26.517	0	185.353	0	119.2	4	40.2	4	-1E+10	1	-1E+10	1	-1E+10	1	-1E+10	1	-1E+10	1	-1E+10	1
4902549	74	C	08/28/2022	17:59	-131.954	47.652	0	188.20	0	6.8720	0	33.8320	0	26.519	0	186.542	0	118.0	4	39.8	4	-1E+10	1	-1E+10	1	-1E+10	1	-1E+10	1	-1E+10	1	-1E+10	1
4902549	74	C	08/28/2022	17:59	-131.954	47.652	0	189.00	0	6.8730	0	33.8340	0	26.520	0	187.334	0	117.4	4	39.6	4	-1E+10	1	-1E+10	1	-1E+10	1	-1E+10	1	-1E+10	1	-1E+10	1
4902549	74	C	08/28/2022	17:59	-131.954	47.652	0	189.80	0	6.8820	0	33.8420	0	26.525	0	188.127	0	117.1	4	39.4	4	-1E+10	1	-1E+10	1	-1E+10	1	-1E+10	1	-1E+10	1	-1E+10	1
4902549	74	C	08/28/2022	17:59	-131.954	47.652	0	191.00	0	6.8640	0	33.8420	0	26.528	0	189.316	0	116.5	4	39.3	4	-1E+10	1	-1E+10	1	-1E+10	1	-1E+10	1	-1E+10	1	-1E+10	1
4902549	74	C	08/28/2022	17:59	-131.954	47.652	0	192.20	0	6.8550	0	33.8470	0	26.533	0	190.505	0	116.1	4	39.1	4	-1E+10	1	-1E+10	1	-1E+10	1	-1E+10	1	-1E+10	1	-1E+10	1
4902549	74	C	08/28/2022	17:59	-131.954	47.652	0	193.10	0	6.8450	0	33.8470	0	26.534	0	191.396	0	115.9	4	39.0	4	-1E+10	1	-1E+10	1	-1E+10	1	-1E+10	1	-1E+10	1	-1E+10	1
4902549	74	C	08/28/2022	17:59	-131.954	47.652	0	193.90	0	6.8340	0	33.8490	0	26.537	0	192.189	0	115.6	4	38.9	4	-1E+10	1	-1E+10	1	-1E+10	1	-1E+10	1	-1E+10	1	-1E+10	1
4902549	74	C	08/28/2022	17:59	-131.954	47.652	0	194.80	0	6.8250	0	33.8480	0	26.538	0	193.080	0	115.3	4	38.8	4	-1E+10	1	-1E+10	1	-1E+10	1	-1E+10	1	-1E+10	1	-1E+10	1
4902549	74	C	08/28/2022	17:59	-131.954	47.652	0	195.60	0	6.8170	0	33.8470	0	26.538	0	193.873	0	114.9	4	38.7	4	-1E+10	1	-1E+10	1	-1E+10	1	-1E+10	1	-1E+10	1	-1E+10	1
4902549	74	C	08/28/2022	17:59	-131.954	47.652	0	196.90	0	6.7920	0	33.8460	0	26.541	0	195.161	0	114.0	4	38.3	4	-1E+10	1	-1E+10	1	-1E+10	1	-1E+10	1	-1E+10	1	-1E+10	1
4902549	74	C	08/28/2022	17:59	-131.954	47.652	0	198.20	0	6.7730	0	33.8460	0	26.543	0	196.449	0	113.0	4	38.0	4	-1E+10	1	-1E+10	1	-1E+10	1	-1E+10	1	-1E+10	1	-1E+10	1
4902549	74	C	08/28/2022	17:59	-131.954	47.652	0	199.10	0	6.7730	0	33.8480	0	26.545	0	197.340	0	112.2	4	37.7	4	-1E+10	1	-1E+10	1	-1E+10	1	-1E+10	1	-1E+10	1	-1E+10	1
4902549	74	C	08/28/2022	17:59	-131.954	47.652	0	200.00	0	6.7710	0	33.8520	0	26.548	0	198.232	0	111.5	4	37.5	4	-1E+10	1	-1E+10	1	-1E+10	1	-1E+10	1	-1E+10	1	-1E+10	1
4902549	74	C	08/28/2022	17:59	-131.954	47.652	0	200.90	0	6.7390	0	33.8500	0	26.551	0	199.124	0	110.6	4	37.2	4	-1E+10	1	-1E+10	1	-1E+10	1	-1E+10	1	-1E+10	1	-1E+10	1
4902549	74	C	08/28/2022	17:59	-131.954	47.652	0	201.70	0	6.7390	0	33.8540	0	26.554	0	199.916	0	109.8	4	36.9	4	-1E+10	1	-1E+10	1	-1E+10	1	-1E+10	1	-1E+10	1	-1E+10	1
4902549	74	C	08/28/2022	17:59	-131.954	47.652	0	202.60	0	6.7380	0	33.8540	0	26.554	0	200.808	0	108.9	4	36.6	4	-1E+10	1	-1E+10	1	-1E+10	1	-1E+10	1	-1E+10	1	-1E+10	1
4902549	74	C	08/28/2022	17:59	-131.954	47.652	0	203.90	0	6.7450	0	33.8600	0	26.558	0	202.096	0	107.8	4	36.2	4	-1E+10	1	-1E+10	1	-1E+10	1	-1E+10	1	-1E+10	1	-1E+10	1
4902549	74	C	08/28/2022	17:59	-131.954	47.652	0	205.30	0	6.7300	0	33.8620	0	26.562	0	203.483	0	106.7	4	35.8	4	-1E+10	1	-1E+10	1	-1E+10	1	-1E+10	1	-1E+10	1	-1E+10	1
4902549	74	C	08/28/2022	17:59	-131.954	47.652	0	206.20	0	6.7250	0	33.8640	0	26.564	0	204.374	0	105.9	4	35.5	4	-1E+10	1	-1E+10	1	-1E+10	1	-1E+10	1	-1E+10	1	-1E+10	1
4902549	74	C	08/28/2022	17:59	-131.954	47.652	0	207.10	0	6.7110	0	33.8660	0	26.567	0	205.266	0	105.0	4	35.2	4	-1E+10	1	-1E+10	1	-1E+10	1	-1E+10	1	-1E+10	1	-1E+10	1
4902549	74	C	08/28/2022	17:59	-131.954	47.652	0	208.00	0	6.7110	0	33.8670	0	26.568	0	206.157	0	104.1	4	34.9	4	-1E+10	1	-1E+10	1	-1E+10	1	-1E+10	1	-1E+10	1	-1E+10	1
4902549	74	C	08/28/2022	17:59	-131.954	47.652	0	208.90	0	6.7190	0	33.8690	0	26.569	0	207.049	0	103.3	4	34.7	4	-1E+10	1	-1E+10	1	-1E+10	1	-1E+10	1	-1E+10	1	-1E+10	1
4902549	74	C	08/28/2022	17:59	-131.954	47.652	0	209.80	0	6.7400	0	33.8770	0	26.572	0	207.940	0	102.7	4	34.5	4	-1E+10	1	-1E+10	1	-1E+10	1	-1E+10	1	-1E+10	1	-1E+10	1
4902549	74	C	08/28/2022	17:59	-131.954	47.652	0	210.70	0	6.7310	0	33.8770	0	26.573	0	208.832	0	102.3	4	34.4	4	-1E+10	1	-1E+10	1	-1E+10	1	-1E+10	1	-1E+10	1	-1E+10	1
4902549	74	C	08/28/2022	17:59	-131.954	47.652	0	211.60	0	6.7380	0	33.8800	0	26.575	0	209.724	0	101.9	4	34.2	4	-1E+10	1	-1E+10	1	-1E+10	1	-1E+10	1	-1E+10	1	-1E+10	1
4902549	74	C	08/28/2022	17:59	-131.954	47.652	0	212.90	0	6.7390	0	33.8810	0	26.575	0	211.011	0	101.3	4	34.0	4	-1E+10	1	-1E+10	1	-1E+10	1	-1E+10	1	-1E+10	1	-1E+10	1
4902549	74	C	08/28/2022	17:59	-131.954	47.652	0	214.30	0	6.7390	0	33.8810	0	26.575	0	212.398	0	100.7	4	33.8	4	-1E+10	1	-1E+10	1	-1E+10	1	-1E+10	1	-1E+10	1	-1E+10	1
4902549	74	C	08/28/2022	17:59	-131.954	47.652	0	215.10	0	6.7390	0	33.8820	0	26.576	0	213.191	0	100.3	4	33.7	4	-1E+10	1	-1E+10	1	-1E+10	1	-1E+10	1	-1E+10	1	-1E+10	1
4902549	74	C	08/28/2022	17:59	-131.954	47.652	0	216.00	0	6.7400	0	33.8840	0	26.578	0	214.082	0	99.9	4	33.6	4	-1E+10	1	-1E+10	1	-1E+10	1	-1E+10	1	-1E+10	1	-1E+10	1
4902549	74	C	08/28/2022	17:59	-131.954	47.652	0	216.90	0	6.7340	0	33.8850	0	26.579	0	214.974	0	99.7	4	33.5	4	-1E+10	1	-1E+10	1	-1E+10	1	-1E+10	1	-1E+10	1	-1E+10	1
4902549	74	C	08/28/2022	17:59	-131.954	47.652	0	217.70	0	6.7320	0	33.8850	0	26.580	0	215.766	0	99.3	4	33.4	4	-1E+10	1	-1E+10	1	-1E+10	1	-1E+10	1	-1E+10	1	-1E+10	1
4902549	74	C	08/28/2022	17:59	-131.954	47.652	0	218.60	0	6.7320	0	33.8860	0	26.580	0	216.658	0	99.0	4	33.3	4	-1E+10	1	-1E+10	1	-1E+10	1	-1E+10	1	-1E+10	1	-1E+10	1
4902549	74	C	08/28/2022	17:59	-131.954	47.652	0	219.90	0	6.7200	0	33.8880	0	26.584	0	217.946	0	98.5	4	33.1	4	-1E+10	1	-1E+10	1	-1E+10	1	-1E+10	1	-1E+10	1	-1E+10	1
4902549	74	C	08/28/2022	17:59	-131.954	47.652	0	221.20	0	6.7080	0	33.8890	0	26.586	0	219.233	0	98.1	4	32.9	4	-1E+10	1	-1E+10	1	-1E+10	1	-1E+10	1	-1E+10	1	-1E+10	1
4902549	74	C	08/28/2022	17:59	-131.954	47.652	0	222.00	0	6.7030	0	33.8930	0	26.590	0	220.026	0	98.1	4	32.9	4	-1E+10	1	-1E+10	1	-1E+10	1	-1E+10	1	-1E+10	1	-1E+10	1
4902549	74	C	08/28/2022	17:59	-131.954	47.652	0	222.90	0	6.6950	0	33.8910	0	26.589	0	220.917	0	98.0	4	32.9	4	-1E+10	1	-1E+10	1	-1E+10	1	-1E+10	1	-1E+10	1	-1E+10	1
4902549	74	C	08/28/2022	17:59	-131.954	47.652	0	223.80	0	6.6900	0	33.8900	0	26.589	0	221.809	0	97.9	4	32.9	4	-1E+10	1	-1E+10	1	-1E+10	1	-1E+10	1	-1E+10	1	-1E+10	1
4902549	74	C	08/28/2022	17:59	-131.954	47.652	0	224.70	0	6.6380	0	33.8910	0	26.597	0	222.700	0	97.6	4	32.7	4	-1E+10	1	-1E+10	1	-1E+10	1	-1E+10	1	-1E+10	1	-1E+10	1
4902549	74	C	08/28/2022	17:59	-131.954	47.652	0	225.90	0	6.5620	0	33.8850	0	26.602	0	223.889	0	96.7	4	32.4	4	-1E+10	1	-1E+10	1	-1E+10	1	-1E+10	1	-1E+10	1	-1E+10	1
4902549	74	C	08/28/2022	17:59	-131.954	47.652	0	227.30	0	6.5490	0	33.8880	0	26.606	0	225.276	0	95.4	4	31.9	4	-1E+10	1	-1E+10	1	-1E+10	1	-1E+10	1	-1E+10	1	-1E+10	1
4902549	74	C	08/28/2022	17:59	-131.954	47.652	0	228.20	0	6.5570	0	33.8900	0	26.607	0	226.167	0	94.6	4	31.6	4	-1E+10	1	-1E+10	1	-1E+10	1	-1E+10	1	-1E+10	1	-1E+10	1
4902549	74	C	08/28/2022	17:59	-131.954	47.652	0	229.00	0	6.5610	0	33.8920	0	26.608	0	226.960	0	93.7	4	31.4	4	-1E+10	1	-1E+10	1	-1E+10	1	-1E+10	1	-1E+10	1	-1E+10	1
4902549	74	C	08/28/2022	17:59	-131.954	47.652	0	229.90	0	6.5770	0	33.8930	0	26.607	0	227.851	0	93.0	4	31.1	4	-1E+10	1	-1E+10	1	-1E+10	1	-1E+10	1	-1E+10	1	-1E+10	1
4902549	74	C	08/28/2022	17:59	-131.954	47.652	0	230.80	0	6.6070	0	33.8990	0	26.607	0	228.743	0	92.5	4	31.0	4	-1E+10	1	-1E+10	1	-1E+10	1	-1E+10	1	-1E+10	1	-1E+10	1
4902549	74	C	08/28/2022	17:59	-131.954	47.652	0	231.60	0	6.6230	0	33.9040	0	26.609	0	229.535	0	92.2	4	30.9	4	-1E+10	1	-1E+10	1	-1E+10	1	-1E+10	1	-1E+10	1	-1E+10	1
4902549	74	C	08/28/2022	17:59	-131.954	47.652	0	232.90	0	6.6250	0	33.9050	0	26.610	0	230.823	0	91.9	4	30.8	4	-1E+10	1	-1E+10	1	-1E+10	1	-1E+10	1	-1E+10	1	-1E+10	1
4902549	74	C	08/28/2022	17:59	-131.954	47.652	0	234.20	0	6.6220	0	33.9050	0	26.610	0	232.111	0	91.7	4	30.7	4	-1E+10	1	-1E+10	1	-1E+10	1	-1E+10	1	-1E+10	1	-1E+10	1
4902549	74	C	08/28/2022	17:59	-131.954	47.652	0	235.00	0	6.6200	0	33.9060	0	26.611	0	232.903	0	91.5	4	30.7	4	-1E+10	1	-1E+10	1	-1E+10	1	-1E+10	1	-1E+10	1	-1E+10	1
4902549	74	C	08/28/2022	17:59	-131.954	47.652	0	235.90	0	6.6180	0	33.9070	0	26.612	0	233.794	0	91.5	4	30.6	4	-1E+10	1	-1E+10	1	-1E+10	1	-1E+10	1	-1E+10	1	-1E+10	1
4902549	74	C	08/28/2022	17:59	-131.954	47.652	0	236.70	0	6.6090	0	33.9040	0	26.611	0	234.587	0	91.3	4	30.6	4	-1E+10	1	-1E+10	1	-1E+10	1	-1E+10	1	-1E+10	1	-1E+10	1
4902549	74	C	08/28/2022	17:59	-131.954	47.652	0	238.00	0	6.5630	0	33.9040	0	26.617	0	235.874	0	90.8	4	30.4	4	-1E+10	1	-1E+10	1	-1E+10	1	-1E+10	1	-1E+10	1	-1E+10	1
4902549	74	C	08/28/2022	17:59	-131.954	47.652	0	239.20	0	6.5240	0	33.9000	0	26.619	0	237.063	0	90.0	4	30.1	4	-1E+10	1	-1E+10	1	-1E+10	1	-1E+10	1	-1E+10	1	-1E+10	1
4902549	74	C	08/28/2022	17:59	-131.954	47.652	0	240.10	0	6.5280	0	33.9020	0	26.620	0	237.954	0	89.3	4	29.9	4	-1E+10	1	-1E+10	1	-1E+10	1	-1E+10	1	-1E+10	1	-1E+10	1
4902549	74	C	08/28/2022	17:59	-131.954	47.652	0	240.90	0	6.5220	0	33.9030	0	26.622	0	238.747	0	88.8	4	29.7	4	-1E+10	1	-1E+10	1	-1E+10	1	-1E+10	1	-1E+10	1	-1E+10	1
4902549	74	C	08/28/2022	17:59	-131.954	47.652	0	241.80	0	6.5170	0	33.9050	0	26.624	0	239.638	0	88.2	4	29.5	4	-1E+10	1	-1E+10	1	-1E+10	1	-1E+10	1	-1E+10	1	-1E+10	1
4902549	74	C	08/28/2022	17:59	-131.954	47.652	0	242.60	0	6.4980	0	33.9060	0	26.627	0	240.431	0	87.5	4	29.3	4	-1E+10	1	-1E+10	1	-1E+10	1	-1E+10	1	-1E+10	1	-1E+10	1
4902549	74	C	08/28/2022	17:59	-131.954	47.652	0	243.90	0	6.4920	0	33.9060	0	26.628	0	241.718	0	86.6	4	28.9	4	-1E+10	1	-1E+10	1	-1E+10	1	-1E+10	1	-1E+10	1	-1E+10	1
4902549	74	C	08/28/2022	17:59	-131.954	47.652	0	245.10	0	6.5100	0	33.9150	0	26.633	0	242.907	0	85.8	4	28.7	4	-1E+10	1	-1E+10	1	-1E+10	1	-1E+10	1	-1E+10	1	-1E+10	1
4902549	74	C	08/28/2022	17:59	-131.954	47.652	0	246.00	0	6.5120	0	33.9160	0	26.633	0	243.798	0	85.5	4	28.6	4	-1E+10	1	-1E+10	1	-1E+10	1	-1E+10	1	-1E+10	1	-1E+10	1
4902549	74	C	08/28/2022	17:59	-131.954	47.652	0	246.80	0	6.5190	0	33.9180	0	26.634	0	244.591	0	85.2	4	28.5	4	-1E+10	1	-1E+10	1	-1E+10	1	-1E+10	1	-1E+10	1	-1E+10	1
4902549	74	C	08/28/2022	17:59	-131.954	47.652	0	247.60	0	6.5180	0	33.9190	0	26.635	0	245.383	0	85.1	4	28.4	4	-1E+10	1	-1E+10	1	-1E+10	1	-1E+10	1	-1E+10	1	-1E+10	1
4902549	74	C	08/28/2022	17:59	-131.954	47.652	0	248.90	0	6.5100	0	33.9200	0	26.637	0	246.671	0	85.0	4	28.4	4	-1E+10	1	-1E+10	1	-1E+10	1	-1E+10	1	-1E+10	1	-1E+10	1
4902549	74	C	08/28/2022	17:59	-131.954	47.652	0	250.20	0	6.4870	0	33.9200	0	26.640	0	247.958	0	84.8	4	28.3	4	-1E+10	1	-1E+10	1	-1E+10	1	-1E+10	1	-1E+10	1	-1E+10	1
4902549	74	C	08/28/2022	17:59	-131.954	47.652	0	251.10	0	6.4750	0	33.9200	0	26.641	0	248.850	0	84.6	4	28.3	4	-1E+10	1	-1E+10	1	-1E+10	1	-1E+10	1	-1E+10	1	-1E+10	1
4902549	74	C	08/28/2022	17:59	-131.954	47.652	0	251.90	0	6.4680	0	33.9190	0	26.642	0	249.642	0	84.4	4	28.2	4	-1E+10	1	-1E+10	1	-1E+10	1	-1E+10	1	-1E+10	1	-1E+10	1
4902549	74	C	08/28/2022	17:59	-131.954	47.652	0	252.70	0	6.4570	0	33.9200	0	26.644	0	250.434	0	84.3	4	28.1	4	-1E+10	1	-1E+10	1	-1E+10	1	-1E+10	1	-1E+10	1	-1E+10	1
4902549	74	C	08/28/2022	17:59	-131.954	47.652	0	254.00	0	6.4380	0	33.9180	0	26.645	0	251.722	0	83.9	4	28.0	4	-1E+10	1	-1E+10	1	-1E+10	1	-1E+10	1	-1E+10	1	-1E+10	1
4902549	74	C	08/28/2022	17:59	-131.954	47.652	0	255.30	0	6.4290	0	33.9170	0	26.645	0	253.009	0	83.3	4	27.8	4	-1E+10	1	-1E+10	1	-1E+10	1	-1E+10	1	-1E+10	1	-1E+10	1
4902549	74	C	08/28/2022	17:59	-131.954	47.652	0	256.10	0	6.4210	0	33.9190	0	26.648	0	253.802	0	82.9	4	27.6	4	-1E+10	1	-1E+10	1	-1E+10	1	-1E+10	1	-1E+10	1	-1E+10	1
4902549	74	C	08/28/2022	17:59	-131.954	47.652	0	256.90	0	6.4110	0	33.9190	0	26.649	0	254.594	0	82.4	4	27.5	4	-1E+10	1	-1E+10	1	-1E+10	1	-1E+10	1	-1E+10	1	-1E+10	1
4902549	74	C	08/28/2022	17:59	-131.954	47.652	0	257.80	0	6.4110	0	33.9200	0	26.650	0	255.485	0	81.9	4	27.3	4	-1E+10	1	-1E+10	1	-1E+10	1	-1E+10	1	-1E+10	1	-1E+10	1
4902549	74	C	08/28/2022	17:59	-131.954	47.652	0	258.60	0	6.4160	0	33.9210	0	26.650	0	256.278	0	81.5	4	27.2	4	-1E+10	1	-1E+10	1	-1E+10	1	-1E+10	1	-1E+10	1	-1E+10	1
4902549	74	C	08/28/2022	17:59	-131.954	47.652	0	259.90	0	6.4020	0	33.9250	0	26.655	0	257.565	0	81.2	4	27.1	4	-1E+10	1	-1E+10	1	-1E+10	1	-1E+10	1	-1E+10	1	-1E+10	1
4902549	74	C	08/28/2022	17:59	-131.954	47.652	0	261.10	0	6.3930	0	33.9260	0	26.657	0	258.754	0	81.0	4	27.0	4	-1E+10	1	-1E+10	1	-1E+10	1	-1E+10	1	-1E+10	1	-1E+10	1
4902549	74	C	08/28/2022	17:59	-131.954	47.652	0	262.00	0	6.3710	0	33.9270	0	26.661	0	259.645	0	80.7	4	26.9	4	-1E+10	1	-1E+10	1	-1E+10	1	-1E+10	1	-1E+10	1	-1E+10	1
4902549	74	C	08/28/2022	17:59	-131.954	47.652	0	262.80	0	6.3540	0	33.9250	0	26.661	0	260.437	0	80.5	4	26.8	4	-1E+10	1	-1E+10	1	-1E+10	1	-1E+10	1	-1E+10	1	-1E+10	1
4902549	74	C	08/28/2022	17:59	-131.954	47.652	0	263.60	0	6.3480	0	33.9250	0	26.662	0	261.230	0	80.1	4	26.7	4	-1E+10	1	-1E+10	1	-1E+10	1	-1E+10	1	-1E+10	1	-1E+10	1
4902549	74	C	08/28/2022	17:59	-131.954	47.652	0	264.90	0	6.3440	0	33.9270	0	26.664	0	262.517	0	79.8	4	26.6	4	-1E+10	1	-1E+10	1	-1E+10	1	-1E+10	1	-1E+10	1	-1E+10	1
4902549	74	C	08/28/2022	17:59	-131.954	47.652	0	266.20	0	6.3440	0	33.9280	0	26.665	0	263.805	0	79.6	4	26.5	4	-1E+10	1	-1E+10	1	-1E+10	1	-1E+10	1	-1E+10	1	-1E+10	1
4902549	74	C	08/28/2022	17:59	-131.954	47.652	0	267.00	0	6.3450	0	33.9300	0	26.666	0	264.597	0	79.4	4	26.5	4	-1E+10	1	-1E+10	1	-1E+10	1	-1E+10	1	-1E+10	1	-1E+10	1
4902549	74	C	08/28/2022	17:59	-131.954	47.652	0	267.90	0	6.3410	0	33.9300	0	26.667	0	265.488	0	79.3	4	26.4	4	-1E+10	1	-1E+10	1	-1E+10	1	-1E+10	1	-1E+10	1	-1E+10	1
4902549	74	C	08/28/2022	17:59	-131.954	47.652	0	268.70	0	6.3400	0	33.9300	0	26.667	0	266.281	0	79.2	4	26.4	4	-1E+10	1	-1E+10	1	-1E+10	1	-1E+10	1	-1E+10	1	-1E+10	1
4902549	74	C	08/28/2022	17:59	-131.954	47.652	0	270.00	0	6.3200	0	33.9290	0	26.669	0	267.568	0	78.9	4	26.3	4	-1E+10	1	-1E+10	1	-1E+10	1	-1E+10	1	-1E+10	1	-1E+10	1
4902549	74	C	08/28/2022	17:59	-131.954	47.652	0	271.20	0	6.2740	0	33.9270	0	26.673	0	268.756	0	78.5	4	26.1	4	-1E+10	1	-1E+10	1	-1E+10	1	-1E+10	1	-1E+10	1	-1E+10	1
4902549	74	C	08/28/2022	17:59	-131.954	47.652	0	272.10	0	6.2580	0	33.9270	0	26.675	0	269.648	0	78.1	4	26.0	4	-1E+10	1	-1E+10	1	-1E+10	1	-1E+10	1	-1E+10	1	-1E+10	1
4902549	74	C	08/28/2022	17:59	-131.954	47.652	0	272.90	0	6.2640	0	33.9310	0	26.678	0	270.440	0	78.0	4	25.9	4	-1E+10	1	-1E+10	1	-1E+10	1	-1E+10	1	-1E+10	1	-1E+10	1
4902549	74	C	08/28/2022	17:59	-131.954	47.652	0	273.80	0	6.2490	0	33.9330	0	26.681	0	271.331	0	77.8	4	25.9	4	-1E+10	1	-1E+10	1	-1E+10	1	-1E+10	1	-1E+10	1	-1E+10	1
4902549	74	C	08/28/2022	17:59	-131.954	47.652	0	275.00	0	6.2340	0	33.9310	0	26.681	0	272.520	0	77.6	4	25.8	4	-1E+10	1	-1E+10	1	-1E+10	1	-1E+10	1	-1E+10	1	-1E+10	1
4902549	74	C	08/28/2022	17:59	-131.954	47.652	0	276.30	0	6.2050	0	33.9300	0	26.684	0	273.807	0	77.3	4	25.7	4	-1E+10	1	-1E+10	1	-1E+10	1	-1E+10	1	-1E+10	1	-1E+10	1
4902549	74	C	08/28/2022	17:59	-131.954	47.652	0	277.10	0	6.1900	0	33.9330	0	26.689	0	274.599	0	77.0	4	25.6	4	-1E+10	1	-1E+10	1	-1E+10	1	-1E+10	1	-1E+10	1	-1E+10	1
4902549	74	C	08/28/2022	17:59	-131.954	47.652	0	278.00	0	6.1800	0	33.9310	0	26.688	0	275.491	0	76.7	4	25.5	4	-1E+10	1	-1E+10	1	-1E+10	1	-1E+10	1	-1E+10	1	-1E+10	1
4902549	74	C	08/28/2022	17:59	-131.954	47.652	0	278.80	0	6.1800	0	33.9310	0	26.688	0	276.283	0	76.5	4	25.4	4	-1E+10	1	-1E+10	1	-1E+10	1	-1E+10	1	-1E+10	1	-1E+10	1
4902549	74	C	08/28/2022	17:59	-131.954	47.652	0	279.70	0	6.1900	0	33.9360	0	26.691	0	277.174	0	76.4	4	25.3	4	-1E+10	1	-1E+10	1	-1E+10	1	-1E+10	1	-1E+10	1	-1E+10	1
4902549	74	C	08/28/2022	17:59	-131.954	47.652	0	280.90	0	6.1700	0	33.9340	0	26.692	0	278.362	0	76.1	4	25.2	4	-1E+10	1	-1E+10	1	-1E+10	1	-1E+10	1	-1E+10	1	-1E+10	1
4902549	74	C	08/28/2022	17:59	-131.954	47.652	0	282.30	0	6.1630	0	33.9330	0	26.692	0	279.749	0	75.7	4	25.1	4	-1E+10	1	-1E+10	1	-1E+10	1	-1E+10	1	-1E+10	1	-1E+10	1
4902549	74	C	08/28/2022	17:59	-131.954	47.652	0	283.10	0	6.1550	0	33.9340	0	26.694	0	280.541	0	75.4	4	25.0	4	-1E+10	1	-1E+10	1	-1E+10	1	-1E+10	1	-1E+10	1	-1E+10	1
4902549	74	C	08/28/2022	17:59	-131.954	47.652	0	284.00	0	6.1410	0	33.9340	0	26.696	0	281.432	0	75.1	4	24.9	4	-1E+10	1	-1E+10	1	-1E+10	1	-1E+10	1	-1E+10	1	-1E+10	1
4902549	74	C	08/28/2022	17:59	-131.954	47.652	0	284.90	0	6.1320	0	33.9350	0	26.698	0	282.324	0	74.9	4	24.8	4	-1E+10	1	-1E+10	1	-1E+10	1	-1E+10	1	-1E+10	1	-1E+10	1
4902549	74	C	08/28/2022	17:59	-131.954	47.652	0	285.70	0	6.1100	0	33.9330	0	26.699	0	283.116	0	74.5	4	24.7	4	-1E+10	1	-1E+10	1	-1E+10	1	-1E+10	1	-1E+10	1	-1E+10	1
4902549	74	C	08/28/2022	17:59	-131.954	47.652	0	287.00	0	6.1100	0	33.9340	0	26.700	0	284.403	0	73.9	4	24.5	4	-1E+10	1	-1E+10	1	-1E+10	1	-1E+10	1	-1E+10	1	-1E+10	1
4902549	74	C	08/28/2022	17:59	-131.954	47.652	0	288.30	0	6.1100	0	33.9370	0	26.702	0	285.690	0	73.4	4	24.3	4	-1E+10	1	-1E+10	1	-1E+10	1	-1E+10	1	-1E+10	1	-1E+10	1
4902549	74	C	08/28/2022	17:59	-131.954	47.652	0	289.10	0	6.1120	0	33.9380	0	26.703	0	286.483	0	73.1	4	24.2	4	-1E+10	1	-1E+10	1	-1E+10	1	-1E+10	1	-1E+10	1	-1E+10	1
4902549	74	C	08/28/2022	17:59	-131.954	47.652	0	290.00	0	6.1160	0	33.9390	0	26.703	0	287.374	0	72.9	4	24.1	4	-1E+10	1	-1E+10	1	-1E+10	1	-1E+10	1	-1E+10	1	-1E+10	1
4902549	74	C	08/28/2022	17:59	-131.954	47.652	0	290.90	0	6.1160	0	33.9430	0	26.706	0	288.265	0	72.9	4	24.2	4	-1E+10	1	-1E+10	1	-1E+10	1	-1E+10	1	-1E+10	1	-1E+10	1
4902549	74	C	08/28/2022	17:59	-131.954	47.652	0	291.80	0	6.1070	0	33.9420	0	26.706	0	289.156	0	73.0	4	24.2	4	-1E+10	1	-1E+10	1	-1E+10	1	-1E+10	1	-1E+10	1	-1E+10	1
4902549	74	C	08/28/2022	17:59	-131.954	47.652	0	292.70	0	6.0950	0	33.9410	0	26.707	0	290.048	0	73.0	4	24.2	4	-1E+10	1	-1E+10	1	-1E+10	1	-1E+10	1	-1E+10	1	-1E+10	1
4902549	74	C	08/28/2022	17:59	-131.954	47.652	0	293.90	0	6.0710	0	33.9400	0	26.709	0	291.236	0	73.0	4	24.2	4	-1E+10	1	-1E+10	1	-1E+10	1	-1E+10	1	-1E+10	1	-1E+10	1
4902549	74	C	08/28/2022	17:59	-131.954	47.652	0	295.30	0	6.0380	0	33.9370	0	26.711	0	292.622	0	72.9	4	24.1	4	-1E+10	1	-1E+10	1	-1E+10	1	-1E+10	1	-1E+10	1	-1E+10	1
4902549	74	C	08/28/2022	17:59	-131.954	47.652	0	296.10	0	6.0220	0	33.9370	0	26.713	0	293.414	0	72.7	4	24.0	4	-1E+10	1	-1E+10	1	-1E+10	1	-1E+10	1	-1E+10	1	-1E+10	1
4902549	74	C	08/28/2022	17:59	-131.954	47.652	0	297.00	0	6.0090	0	33.9370	0	26.715	0	294.306	0	72.5	4	24.0	4	-1E+10	1	-1E+10	1	-1E+10	1	-1E+10	1	-1E+10	1	-1E+10	1
4902549	74	C	08/28/2022	17:59	-131.954	47.652	0	297.90	0	5.9920	0	33.9400	0	26.719	0	295.197	0	72.3	4	23.9	4	-1E+10	1	-1E+10	1	-1E+10	1	-1E+10	1	-1E+10	1	-1E+10	1
4902549	74	C	08/28/2022	17:59	-131.954	47.652	0	298.80	0	5.9910	0	33.9380	0	26.718	0	296.088	0	72.1	4	23.8	4	-1E+10	1	-1E+10	1	-1E+10	1	-1E+10	1	-1E+10	1	-1E+10	1
4902549	74	C	08/28/2022	17:59	-131.954	47.652	0	299.70	0	5.9860	0	33.9340	0	26.715	0	296.979	0	72.0	4	23.8	4	-1E+10	1	-1E+10	1	-1E+10	1	-1E+10	1	-1E+10	1	-1E+10	1
4902549	74	C	08/28/2022	17:59	-131.954	47.652	0	301.00	0	5.9780	0	33.9380	0	26.720	0	298.266	0	71.7	4	23.7	4	-1E+10	1	-1E+10	1	-1E+10	1	-1E+10	1	-1E+10	1	-1E+10	1
4902549	74	C	08/28/2022	17:59	-131.954	47.652	0	302.40	0	5.9460	0	33.9360	0	26.722	0	299.653	0	71.4	4	23.6	4	-1E+10	1	-1E+10	1	-1E+10	1	-1E+10	1	-1E+10	1	-1E+10	1
4902549	74	C	08/28/2022	17:59	-131.954	47.652	0	303.30	0	5.9140	0	33.9370	0	26.727	0	300.544	0	71.0	4	23.4	4	-1E+10	1	-1E+10	1	-1E+10	1	-1E+10	1	-1E+10	1	-1E+10	1
4902549	74	C	08/28/2022	17:59	-131.954	47.652	0	304.20	0	5.8950	0	33.9360	0	26.728	0	301.435	0	70.6	4	23.3	4	-1E+10	1	-1E+10	1	-1E+10	1	-1E+10	1	-1E+10	1	-1E+10	1
4902549	74	C	08/28/2022	17:59	-131.954	47.652	0	305.10	0	5.8800	0	33.9350	0	26.729	0	302.326	0	70.1	4	23.1	4	-1E+10	1	-1E+10	1	-1E+10	1	-1E+10	1	-1E+10	1	-1E+10	1
4902549	74	C	08/28/2022	17:59	-131.954	47.652	0	306.00	0	5.8810	0	33.9360	0	26.730	0	303.217	0	69.6	4	22.9	4	-1E+10	1	-1E+10	1	-1E+10	1	-1E+10	1	-1E+10	1	-1E+10	1
4902549	74	C	08/28/2022	17:59	-131.954	47.652	0	307.00	0	5.8830	0	33.9370	0	26.731	0	304.208	0	69.0	4	22.7	4	-1E+10	1	-1E+10	1	-1E+10	1	-1E+10	1	-1E+10	1	-1E+10	1
4902549	74	C	08/28/2022	17:59	-131.954	47.652	0	307.90	0	5.8890	0	33.9420	0	26.734	0	305.099	0	68.6	4	22.6	4	-1E+10	1	-1E+10	1	-1E+10	1	-1E+10	1	-1E+10	1	-1E+10	1
4902549	74	C	08/28/2022	17:59	-131.954	47.652	0	308.80	0	5.8880	0	33.9420	0	26.734	0	305.990	0	68.2	4	22.5	4	-1E+10	1	-1E+10	1	-1E+10	1	-1E+10	1	-1E+10	1	-1E+10	1
4902549	74	C	08/28/2022	17:59	-131.954	47.652	0	309.80	0	5.8900	0	33.9440	0	26.735	0	306.980	0	67.8	4	22.3	4	-1E+10	1	-1E+10	1	-1E+10	1	-1E+10	1	-1E+10	1	-1E+10	1
4902549	74	C	08/28/2022	17:59	-131.954	47.652	0	310.70	0	5.8880	0	33.9450	0	26.736	0	307.871	0	67.4	4	22.2	4	-1E+10	1	-1E+10	1	-1E+10	1	-1E+10	1	-1E+10	1	-1E+10	1
4902549	74	C	08/28/2022	17:59	-131.954	47.652	0	311.70	0	5.8850	0	33.9450	0	26.737	0	308.861	0	67.0	4	22.1	4	-1E+10	1	-1E+10	1	-1E+10	1	-1E+10	1	-1E+10	1	-1E+10	1
4902549	74	C	08/28/2022	17:59	-131.954	47.652	0	312.60	0	5.8860	0	33.9460	0	26.737	0	309.752	0	66.6	4	22.0	4	-1E+10	1	-1E+10	1	-1E+10	1	-1E+10	1	-1E+10	1	-1E+10	1
4902549	74	C	08/28/2022	17:59	-131.954	47.652	0	313.60	0	5.8880	0	33.9470	0	26.738	0	310.743	0	66.2	4	21.8	4	-1E+10	1	-1E+10	1	-1E+10	1	-1E+10	1	-1E+10	1	-1E+10	1
4902549	74	C	08/28/2022	17:59	-131.954	47.652	0	314.50	0	5.8850	0	33.9490	0	26.740	0	311.634	0	65.9	4	21.7	4	-1E+10	1	-1E+10	1	-1E+10	1	-1E+10	1	-1E+10	1	-1E+10	1
4902549	74	C	08/28/2022	17:59	-131.954	47.652	0	315.90	0	5.8760	0	33.9520	0	26.743	0	313.020	0	65.7	4	21.6	4	-1E+10	1	-1E+10	1	-1E+10	1	-1E+10	1	-1E+10	1	-1E+10	1
4902549	74	C	08/28/2022	17:59	-131.954	47.652	0	317.40	0	5.8740	0	33.9520	0	26.744	0	314.505	0	65.4	4	21.5	4	-1E+10	1	-1E+10	1	-1E+10	1	-1E+10	1	-1E+10	1	-1E+10	1
4902549	74	C	08/28/2022	17:59	-131.954	47.652	0	318.40	0	5.8690	0	33.9530	0	26.745	0	315.495	0	65.2	4	21.5	4	-1E+10	1	-1E+10	1	-1E+10	1	-1E+10	1	-1E+10	1	-1E+10	1
4902549	74	C	08/28/2022	17:59	-131.954	47.652	0	319.40	0	5.8700	0	33.9530	0	26.745	0	316.485	0	65.0	4	21.4	4	-1E+10	1	-1E+10	1	-1E+10	1	-1E+10	1	-1E+10	1	-1E+10	1
4902549	74	C	08/28/2022	17:59	-131.954	47.652	0	320.40	0	5.8700	0	33.9540	0	26.746	0	317.475	0	64.8	4	21.4	4	-1E+10	1	-1E+10	1	-1E+10	1	-1E+10	1	-1E+10	1	-1E+10	1
4902549	74	C	08/28/2022	17:59	-131.954	47.652	0	321.30	0	5.8650	0	33.9530	0	26.746	0	318.366	0	64.6	4	21.3	4	-1E+10	1	-1E+10	1	-1E+10	1	-1E+10	1	-1E+10	1	-1E+10	1
4902549	74	C	08/28/2022	17:59	-131.954	47.652	0	322.30	0	5.8680	0	33.9540	0	26.746	0	319.357	0	64.5	4	21.2	4	-1E+10	1	-1E+10	1	-1E+10	1	-1E+10	1	-1E+10	1	-1E+10	1
4902549	74	C	08/28/2022	17:59	-131.954	47.652	0	323.20	0	5.8610	0	33.9550	0	26.748	0	320.248	0	64.4	4	21.2	4	-1E+10	1	-1E+10	1	-1E+10	1	-1E+10	1	-1E+10	1	-1E+10	1
4902549	74	C	08/28/2022	17:59	-131.954	47.652	0	324.20	0	5.8050	0	33.9540	0	26.754	0	321.238	0	64.2	4	21.1	4	-1E+10	1	-1E+10	1	-1E+10	1	-1E+10	1	-1E+10	1	-1E+10	1
4902549	74	C	08/28/2022	17:59	-131.954	47.652	0	325.20	0	5.7760	0	33.9510	0	26.755	0	322.228	0	63.9	4	21.0	4	-1E+10	1	-1E+10	1	-1E+10	1	-1E+10	1	-1E+10	1	-1E+10	1
4902549	74	C	08/28/2022	17:59	-131.954	47.652	0	326.20	0	5.7610	0	33.9510	0	26.757	0	323.218	0	63.6	4	20.9	4	-1E+10	1	-1E+10	1	-1E+10	1	-1E+10	1	-1E+10	1	-1E+10	1
4902549	74	C	08/28/2022	17:59	-131.954	47.652	0	327.20	0	5.7450	0	33.9500	0	26.758	0	324.208	0	63.2	4	20.8	4	-1E+10	1	-1E+10	1	-1E+10	1	-1E+10	1	-1E+10	1	-1E+10	1
4902549	74	C	08/28/2022	17:59	-131.954	47.652	0	328.20	0	5.7340	0	33.9500	0	26.759	0	325.198	0	62.8	4	20.6	4	-1E+10	1	-1E+10	1	-1E+10	1	-1E+10	1	-1E+10	1	-1E+10	1
4902549	74	C	08/28/2022	17:59	-131.954	47.652	0	329.30	0	5.7100	0	33.9510	0	26.763	0	326.287	0	62.5	4	20.5	4	-1E+10	1	-1E+10	1	-1E+10	1	-1E+10	1	-1E+10	1	-1E+10	1
4902549	74	C	08/28/2022	17:59	-131.954	47.652	0	330.30	0	5.7040	0	33.9510	0	26.764	0	327.277	0	62.0	4	20.3	4	-1E+10	1	-1E+10	1	-1E+10	1	-1E+10	1	-1E+10	1	-1E+10	1
4902549	74	C	08/28/2022	17:59	-131.954	47.652	0	331.30	0	5.6730	0	33.9570	0	26.772	0	328.267	0	61.4	4	20.1	4	-1E+10	1	-1E+10	1	-1E+10	1	-1E+10	1	-1E+10	1	-1E+10	1
4902549	74	C	08/28/2022	17:59	-131.954	47.652	0	332.30	0	5.6420	0	33.9550	0	26.775	0	329.257	0	61.0	4	20.0	4	-1E+10	1	-1E+10	1	-1E+10	1	-1E+10	1	-1E+10	1	-1E+10	1
4902549	74	C	08/28/2022	17:59	-131.954	47.652	0	333.30	0	5.6390	0	33.9560	0	26.776	0	330.247	0	60.7	4	19.9	4	-1E+10	1	-1E+10	1	-1E+10	1	-1E+10	1	-1E+10	1	-1E+10	1
4902549	74	C	08/28/2022	17:59	-131.954	47.652	0	334.40	0	5.6380	0	33.9570	0	26.777	0	331.336	0	60.3	4	19.8	4	-1E+10	1	-1E+10	1	-1E+10	1	-1E+10	1	-1E+10	1	-1E+10	1
4902549	74	C	08/28/2022	17:59	-131.954	47.652	0	335.40	0	5.6400	0	33.9570	0	26.776	0	332.326	0	59.9	4	19.6	4	-1E+10	1	-1E+10	1	-1E+10	1	-1E+10	1	-1E+10	1	-1E+10	1
4902549	74	C	08/28/2022	17:59	-131.954	47.652	0	336.50	0	5.6420	0	33.9590	0	26.778	0	333.415	0	59.7	4	19.6	4	-1E+10	1	-1E+10	1	-1E+10	1	-1E+10	1	-1E+10	1	-1E+10	1
4902549	74	C	08/28/2022	17:59	-131.954	47.652	0	337.50	0	5.6480	0	33.9630	0	26.780	0	334.405	0	59.5	4	19.5	4	-1E+10	1	-1E+10	1	-1E+10	1	-1E+10	1	-1E+10	1	-1E+10	1
4902549	74	C	08/28/2022	17:59	-131.954	47.652	0	338.60	0	5.6480	0	33.9640	0	26.781	0	335.495	0	59.4	4	19.5	4	-1E+10	1	-1E+10	1	-1E+10	1	-1E+10	1	-1E+10	1	-1E+10	1
4902549	74	C	08/28/2022	17:59	-131.954	47.652	0	339.60	0	5.6490	0	33.9640	0	26.781	0	336.485	0	59.3	4	19.4	4	-1E+10	1	-1E+10	1	-1E+10	1	-1E+10	1	-1E+10	1	-1E+10	1
4902549	74	C	08/28/2022	17:59	-131.954	47.652	0	340.70	0	5.6480	0	33.9640	0	26.781	0	337.574	0	59.2	4	19.4	4	-1E+10	1	-1E+10	1	-1E+10	1	-1E+10	1	-1E+10	1	-1E+10	1
4902549	74	C	08/28/2022	17:59	-131.954	47.652	0	341.80	0	5.6470	0	33.9650	0	26.782	0	338.663	0	59.1	4	19.4	4	-1E+10	1	-1E+10	1	-1E+10	1	-1E+10	1	-1E+10	1	-1E+10	1
4902549	74	C	08/28/2022	17:59	-131.954	47.652	0	342.90	0	5.6470	0	33.9650	0	26.782	0	339.752	0	59.0	4	19.3	4	-1E+10	1	-1E+10	1	-1E+10	1	-1E+10	1	-1E+10	1	-1E+10	1
4902549	74	C	08/28/2022	17:59	-131.954	47.652	0	343.90	0	5.6470	0	33.9660	0	26.783	0	340.742	0	58.9	4	19.3	4	-1E+10	1	-1E+10	1	-1E+10	1	-1E+10	1	-1E+10	1	-1E+10	1
4902549	74	C	08/28/2022	17:59	-131.954	47.652	0	345.00	0	5.6450	0	33.9660	0	26.783	0	341.831	0	58.8	4	19.3	4	-1E+10	1	-1E+10	1	-1E+10	1	-1E+10	1	-1E+10	1	-1E+10	1
4902549	74	C	08/28/2022	17:59	-131.954	47.652	0	346.10	0	5.6450	0	33.9660	0	26.783	0	342.920	0	58.7	4	19.2	4	-1E+10	1	-1E+10	1	-1E+10	1	-1E+10	1	-1E+10	1	-1E+10	1
4902549	74	C	08/28/2022	17:59	-131.954	47.652	0	347.20	0	5.6440	0	33.9660	0	26.783	0	344.009	0	58.6	4	19.2	4	-1E+10	1	-1E+10	1	-1E+10	1	-1E+10	1	-1E+10	1	-1E+10	1
4902549	74	C	08/28/2022	17:59	-131.954	47.652	0	348.20	0	5.6440	0	33.9660	0	26.783	0	344.998	0	58.5	4	19.2	4	-1E+10	1	-1E+10	1	-1E+10	1	-1E+10	1	-1E+10	1	-1E+10	1
4902549	74	C	08/28/2022	17:59	-131.954	47.652	0	349.30	0	5.6430	0	33.9680	0	26.785	0	346.087	0	58.4	4	19.1	4	-1E+10	1	-1E+10	1	-1E+10	1	-1E+10	1	-1E+10	1	-1E+10	1
4902549	74	C	08/28/2022	17:59	-131.954	47.652	0	350.40	0	5.6410	0	33.9670	0	26.784	0	347.176	0	58.4	4	19.1	4	-1E+10	1	-1E+10	1	-1E+10	1	-1E+10	1	-1E+10	1	-1E+10	1
4902549	74	C	08/28/2022	17:59	-131.954	47.652	0	353.00	0	5.6190	0	33.9670	0	26.787	0	349.750	0	58.4	4	19.1	4	-1E+10	1	-1E+10	1	-1E+10	1	-1E+10	1	-1E+10	1	-1E+10	1
4902549	74	C	08/28/2022	17:59	-131.954	47.652	0	358.00	0	5.5690	0	33.9650	0	26.792	0	354.700	0	58.3	4	19.1	4	-1E+10	1	-1E+10	1	-1E+10	1	-1E+10	1	-1E+10	1	-1E+10	1
4902549	74	C	08/28/2022	17:59	-131.954	47.652	0	362.80	0	5.5230	0	33.9620	0	26.795	0	359.452	0	57.5	4	18.8	4	-1E+10	1	-1E+10	1	-1E+10	1	-1E+10	1	-1E+10	1	-1E+10	1
4902549	74	C	08/28/2022	17:59	-131.954	47.652	0	367.70	0	5.4670	0	33.9640	0	26.803	0	364.302	0	56.4	4	18.4	4	-1E+10	1	-1E+10	1	-1E+10	1	-1E+10	1	-1E+10	1	-1E+10	1
4902549	74	C	08/28/2022	17:59	-131.954	47.652	0	373.20	0	5.4260	0	33.9640	0	26.808	0	369.746	0	54.9	4	17.9	4	-1E+10	1	-1E+10	1	-1E+10	1	-1E+10	1	-1E+10	1	-1E+10	1
4902549	74	C	08/28/2022	17:59	-131.954	47.652	0	378.10	0	5.4140	0	33.9700	0	26.814	0	374.597	0	53.4	4	17.4	4	-1E+10	1	-1E+10	1	-1E+10	1	-1E+10	1	-1E+10	1	-1E+10	1
4902549	74	C	08/28/2022	17:59	-131.954	47.652	0	383.00	0	5.4020	0	33.9740	0	26.819	0	379.447	0	52.2	4	17.0	4	-1E+10	1	-1E+10	1	-1E+10	1	-1E+10	1	-1E+10	1	-1E+10	1
4902549	74	C	08/28/2022	17:59	-131.954	47.652	0	387.80	0	5.3790	0	33.9760	0	26.823	0	384.198	0	50.9	4	16.6	4	-1E+10	1	-1E+10	1	-1E+10	1	-1E+10	1	-1E+10	1	-1E+10	1
4902549	74	C	08/28/2022	17:59	-131.954	47.652	0	392.80	0	5.3750	0	33.9840	0	26.830	0	389.147	0	49.6	4	16.2	4	-1E+10	1	-1E+10	1	-1E+10	1	-1E+10	1	-1E+10	1	-1E+10	1
4902549	74	C	08/28/2022	17:59	-131.954	47.652	0	397.80	0	5.3390	0	33.9870	0	26.837	0	394.095	0	49.5	4	16.1	4	-1E+10	1	-1E+10	1	-1E+10	1	-1E+10	1	-1E+10	1	-1E+10	1
4902549	74	C	08/28/2022	17:59	-131.954	47.652	0	402.70	0	5.3060	0	33.9840	0	26.838	0	398.945	0	49.0	4	15.9	4	-1E+10	1	-1E+10	1	-1E+10	1	-1E+10	1	-1E+10	1	-1E+10	1
4902549	74	C	08/28/2022	17:59	-131.954	47.652	0	408.10	0	5.2850	0	33.9860	0	26.842	0	404.289	0	47.6	4	15.5	4	-1E+10	1	-1E+10	1	-1E+10	1	-1E+10	1	-1E+10	1	-1E+10	1
4902549	74	C	08/28/2022	17:59	-131.954	47.652	0	412.90	0	5.2970	0	33.9930	0	26.847	0	409.040	0	46.7	4	15.2	4	-1E+10	1	-1E+10	1	-1E+10	1	-1E+10	1	-1E+10	1	-1E+10	1
4902549	74	C	08/28/2022	17:59	-131.954	47.652	0	417.80	0	5.2680	0	33.9950	0	26.852	0	413.889	0	46.3	4	15.0	4	-1E+10	1	-1E+10	1	-1E+10	1	-1E+10	1	-1E+10	1	-1E+10	1
4902549	74	C	08/28/2022	17:59	-131.954	47.652	0	423.10	0	5.2350	0	33.9960	0	26.856	0	419.134	0	46.2	4	15.0	4	-1E+10	1	-1E+10	1	-1E+10	1	-1E+10	1	-1E+10	1	-1E+10	1
4902549	74	C	08/28/2022	17:59	-131.954	47.652	0	427.90	0	5.1740	0	33.9930	0	26.861	0	423.884	0	45.9	4	14.9	4	-1E+10	1	-1E+10	1	-1E+10	1	-1E+10	1	-1E+10	1	-1E+10	1
4902549	74	C	08/28/2022	17:59	-131.954	47.652	0	432.50	0	5.1190	0	33.9920	0	26.867	0	428.436	0	45.0	4	14.6	4	-1E+10	1	-1E+10	1	-1E+10	1	-1E+10	1	-1E+10	1	-1E+10	1
4902549	74	C	08/28/2022	17:59	-131.954	47.652	0	437.60	0	5.0970	0	33.9980	0	26.874	0	433.483	0	43.5	4	14.1	4	-1E+10	1	-1E+10	1	-1E+10	1	-1E+10	1	-1E+10	1	-1E+10	1
4902549	74	C	08/28/2022	17:59	-131.954	47.652	0	442.80	0	5.0940	0	34.0030	0	26.878	0	438.629	0	42.6	4	13.8	4	-1E+10	1	-1E+10	1	-1E+10	1	-1E+10	1	-1E+10	1	-1E+10	1
4902549	74	C	08/28/2022	17:59	-131.954	47.652	0	447.90	0	5.0600	0	34.0070	0	26.885	0	443.675	0	41.6	4	13.5	4	-1E+10	1	-1E+10	1	-1E+10	1	-1E+10	1	-1E+10	1	-1E+10	1
4902549	74	C	08/28/2022	17:59	-131.954	47.652	0	453.20	0	5.0100	0	34.0080	0	26.892	0	448.919	0	39.8	4	12.8	4	-1E+10	1	-1E+10	1	-1E+10	1	-1E+10	1	-1E+10	1	-1E+10	1
4902549	74	C	08/28/2022	17:59	-131.954	47.652	0	457.90	0	5.0280	0	34.0190	0	26.899	0	453.570	0	38.5	4	12.4	4	-1E+10	1	-1E+10	1	-1E+10	1	-1E+10	1	-1E+10	1	-1E+10	1
4902549	74	C	08/28/2022	17:59	-131.954	47.652	0	462.80	0	4.9920	0	34.0220	0	26.905	0	458.418	0	37.5	4	12.1	4	-1E+10	1	-1E+10	1	-1E+10	1	-1E+10	1	-1E+10	1	-1E+10	1
4902549	74	C	08/28/2022	17:59	-131.954	47.652	0	467.60	0	4.9630	0	34.0260	0	26.912	0	463.167	0	36.6	4	11.8	4	-1E+10	1	-1E+10	1	-1E+10	1	-1E+10	1	-1E+10	1	-1E+10	1
4902549	74	C	08/28/2022	17:59	-131.954	47.652	0	472.70	0	4.9530	0	34.0300	0	26.916	0	468.213	0	35.4	4	11.4	4	-1E+10	1	-1E+10	1	-1E+10	1	-1E+10	1	-1E+10	1	-1E+10	1
4902549	74	C	08/28/2022	17:59	-131.954	47.652	0	478.00	0	4.9450	0	34.0370	0	26.922	0	473.457	0	34.1	4	11.0	4	-1E+10	1	-1E+10	1	-1E+10	1	-1E+10	1	-1E+10	1	-1E+10	1
4902549	74	C	08/28/2022	17:59	-131.954	47.652	0	482.90	0	4.9200	0	34.0420	0	26.929	0	478.305	0	33.8	4	10.9	4	-1E+10	1	-1E+10	1	-1E+10	1	-1E+10	1	-1E+10	1	-1E+10	1
4902549	74	C	08/28/2022	17:59	-131.954	47.652	0	487.80	0	4.8860	0	34.0430	0	26.934	0	483.152	0	34.0	4	11.0	4	-1E+10	1	-1E+10	1	-1E+10	1	-1E+10	1	-1E+10	1	-1E+10	1
4902549	74	C	08/28/2022	17:59	-131.954	47.652	0	492.70	0	4.8040	0	34.0410	0	26.941	0	488.000	0	34.6	4	11.1	4	-1E+10	1	-1E+10	1	-1E+10	1	-1E+10	1	-1E+10	1	-1E+10	1
4902549	74	C	08/28/2022	17:59	-131.954	47.652	0	497.70	0	4.7250	0	34.0350	0	26.946	0	492.946	0	34.1	4	10.9	4	-1E+10	1	-1E+10	1	-1E+10	1	-1E+10	1	-1E+10	1	-1E+10	1
4902549	74	C	08/28/2022	17:59	-131.954	47.652	0	502.70	0	4.6920	0	34.0400	0	26.953	0	497.893	0	32.8	4	10.5	4	-1E+10	1	-1E+10	1	-1E+10	1	-1E+10	1	-1E+10	1	-1E+10	1
4902549	74	C	08/28/2022	17:59	-131.954	47.652	0	507.90	0	4.6720	0	34.0470	0	26.961	0	503.037	0	31.3	4	10.0	4	-1E+10	1	-1E+10	1	-1E+10	1	-1E+10	1	-1E+10	1	-1E+10	1
4902549	74	C	08/28/2022	17:59	-131.954	47.652	0	512.80	0	4.6620	0	34.0530	0	26.967	0	507.884	0	30.5	4	9.8	4	-1E+10	1	-1E+10	1	-1E+10	1	-1E+10	1	-1E+10	1	-1E+10	1
4902549	74	C	08/28/2022	17:59	-131.954	47.652	0	517.80	0	4.6510	0	34.0550	0	26.970	0	512.830	0	29.8	4	9.5	4	-1E+10	1	-1E+10	1	-1E+10	1	-1E+10	1	-1E+10	1	-1E+10	1
4902549	74	C	08/28/2022	17:59	-131.954	47.652	0	522.90	0	4.6390	0	34.0590	0	26.974	0	517.874	0	28.9	4	9.3	4	-1E+10	1	-1E+10	1	-1E+10	1	-1E+10	1	-1E+10	1	-1E+10	1
4902549	74	C	08/28/2022	17:59	-131.954	47.652	0	527.70	0	4.6290	0	34.0630	0	26.979	0	522.622	0	28.1	4	9.0	4	-1E+10	1	-1E+10	1	-1E+10	1	-1E+10	1	-1E+10	1	-1E+10	1
4902549	74	C	08/28/2022	17:59	-131.954	47.652	0	533.00	0	4.6220	0	34.0660	0	26.982	0	527.864	0	27.4	4	8.8	4	-1E+10	1	-1E+10	1	-1E+10	1	-1E+10	1	-1E+10	1	-1E+10	1
4902549	74	C	08/28/2022	17:59	-131.954	47.652	0	538.30	0	4.6140	0	34.0700	0	26.986	0	533.107	0	26.5	4	8.5	4	-1E+10	1	-1E+10	1	-1E+10	1	-1E+10	1	-1E+10	1	-1E+10	1
4902549	74	C	08/28/2022	17:59	-131.954	47.652	0	543.10	0	4.6030	0	34.0740	0	26.990	0	537.854	0	25.7	4	8.2	4	-1E+10	1	-1E+10	1	-1E+10	1	-1E+10	1	-1E+10	1	-1E+10	1
4902549	74	C	08/28/2022	17:59	-131.954	47.652	0	548.00	0	4.5860	0	34.0770	0	26.994	0	542.700	0	24.8	4	7.9	4	-1E+10	1	-1E+10	1	-1E+10	1	-1E+10	1	-1E+10	1	-1E+10	1
4902549	74	C	08/28/2022	17:59	-131.954	47.652	0	553.10	0	4.5610	0	34.0820	0	27.001	0	547.744	0	24.0	4	7.7	4	-1E+10	1	-1E+10	1	-1E+10	1	-1E+10	1	-1E+10	1	-1E+10	1
4902549	74	C	08/28/2022	17:59	-131.954	47.652	0	558.20	0	4.5470	0	34.0870	0	27.007	0	552.788	0	23.2	4	7.4	4	-1E+10	1	-1E+10	1	-1E+10	1	-1E+10	1	-1E+10	1	-1E+10	1
4902549	74	C	08/28/2022	17:59	-131.954	47.652	0	562.90	0	4.5360	0	34.0910	0	27.011	0	557.436	0	22.6	4	7.2	4	-1E+10	1	-1E+10	1	-1E+10	1	-1E+10	1	-1E+10	1	-1E+10	1
4902549	74	C	08/28/2022	17:59	-131.954	47.652	0	567.60	0	4.5320	0	34.0960	0	27.016	0	562.084	0	22.0	4	7.0	4	-1E+10	1	-1E+10	1	-1E+10	1	-1E+10	1	-1E+10	1	-1E+10	1
4902549	74	C	08/28/2022	17:59	-131.954	47.652	0	572.90	0	4.5090	0	34.1000	0	27.021	0	567.326	0	21.5	4	6.9	4	-1E+10	1	-1E+10	1	-1E+10	1	-1E+10	1	-1E+10	1	-1E+10	1
4902549	74	C	08/28/2022	17:59	-131.954	47.652	0	578.10	0	4.4790	0	34.1040	0	27.028	0	572.468	0	21.1	4	6.7	4	-1E+10	1	-1E+10	1	-1E+10	1	-1E+10	1	-1E+10	1	-1E+10	1
4902549	74	C	08/28/2022	17:59	-131.954	47.652	0	582.90	0	4.4640	0	34.1060	0	27.031	0	577.214	0	20.6	4	6.6	4	-1E+10	1	-1E+10	1	-1E+10	1	-1E+10	1	-1E+10	1	-1E+10	1
4902549	74	C	08/28/2022	17:59	-131.954	47.652	0	587.80	0	4.4490	0	34.1070	0	27.033	0	582.060	0	20.1	4	6.4	4	-1E+10	1	-1E+10	1	-1E+10	1	-1E+10	1	-1E+10	1	-1E+10	1
4902549	74	C	08/28/2022	17:59	-131.954	47.652	0	592.70	0	4.4350	0	34.1100	0	27.037	0	586.905	0	19.5	4	6.2	4	-1E+10	1	-1E+10	1	-1E+10	1	-1E+10	1	-1E+10	1	-1E+10	1
4902549	74	C	08/28/2022	17:59	-131.954	47.652	0	597.60	0	4.4220	0	34.1140	0	27.042	0	591.750	0	18.7	4	6.0	4	-1E+10	1	-1E+10	1	-1E+10	1	-1E+10	1	-1E+10	1	-1E+10	1
4902549	74	C	08/28/2022	17:59	-131.954	47.652	0	603.10	0	4.4100	0	34.1200	0	27.048	0	597.188	0	18.0	4	5.7	4	-1E+10	1	-1E+10	1	-1E+10	1	-1E+10	1	-1E+10	1	-1E+10	1
4902549	74	C	08/28/2022	17:59	-131.954	47.652	0	608.10	0	4.3980	0	34.1260	0	27.054	0	602.132	0	17.5	4	5.6	4	-1E+10	1	-1E+10	1	-1E+10	1	-1E+10	1	-1E+10	1	-1E+10	1
4902549	74	C	08/28/2022	17:59	-131.954	47.652	0	612.90	0	4.3940	0	34.1270	0	27.055	0	606.878	0	17.1	4	5.4	4	-1E+10	1	-1E+10	1	-1E+10	1	-1E+10	1	-1E+10	1	-1E+10	1
4902549	74	C	08/28/2022	17:59	-131.954	47.652	0	617.80	0	4.3880	0	34.1290	0	27.058	0	611.723	0	16.4	4	5.2	4	-1E+10	1	-1E+10	1	-1E+10	1	-1E+10	1	-1E+10	1	-1E+10	1
4902549	74	C	08/28/2022	17:59	-131.954	47.652	0	622.70	0	4.3660	0	34.1350	0	27.065	0	616.567	0	15.7	4	5.0	4	-1E+10	1	-1E+10	1	-1E+10	1	-1E+10	1	-1E+10	1	-1E+10	1
4902549	74	C	08/28/2022	17:59	-131.954	47.652	0	628.10	0	4.3520	0	34.1400	0	27.070	0	621.906	0	14.8	4	4.7	4	-1E+10	1	-1E+10	1	-1E+10	1	-1E+10	1	-1E+10	1	-1E+10	1
4902549	74	C	08/28/2022	17:59	-131.954	47.652	0	633.10	0	4.3400	0	34.1470	0	27.077	0	626.849	0	14.0	4	4.5	4	-1E+10	1	-1E+10	1	-1E+10	1	-1E+10	1	-1E+10	1	-1E+10	1
4902549	74	C	08/28/2022	17:59	-131.954	47.652	0	637.90	0	4.3210	0	34.1550	0	27.086	0	631.595	0	13.5	4	4.3	4	-1E+10	1	-1E+10	1	-1E+10	1	-1E+10	1	-1E+10	1	-1E+10	1
4902549	74	C	08/28/2022	17:59	-131.954	47.652	0	642.80	0	4.3040	0	34.1570	0	27.089	0	636.439	0	13.0	4	4.1	4	-1E+10	1	-1E+10	1	-1E+10	1	-1E+10	1	-1E+10	1	-1E+10	1
4902549	74	C	08/28/2022	17:59	-131.954	47.652	0	647.70	0	4.2980	0	34.1650	0	27.096	0	641.283	0	12.6	4	4.0	4	-1E+10	1	-1E+10	1	-1E+10	1	-1E+10	1	-1E+10	1	-1E+10	1
4902549	74	C	08/28/2022	17:59	-131.954	47.652	0	653.10	0	4.2710	0	34.1690	0	27.102	0	646.621	0	12.4	4	3.9	4	-1E+10	1	-1E+10	1	-1E+10	1	-1E+10	1	-1E+10	1	-1E+10	1
4902549	74	C	08/28/2022	17:59	-131.954	47.652	0	658.40	0	4.2550	0	34.1700	0	27.105	0	651.860	0	12.1	4	3.8	4	-1E+10	1	-1E+10	1	-1E+10	1	-1E+10	1	-1E+10	1	-1E+10	1
4902549	74	C	08/28/2022	17:59	-131.954	47.652	0	663.10	0	4.2430	0	34.1730	0	27.108	0	656.506	0	11.8	4	3.8	4	-1E+10	1	-1E+10	1	-1E+10	1	-1E+10	1	-1E+10	1	-1E+10	1
4902549	74	C	08/28/2022	17:59	-131.954	47.652	0	667.60	0	4.2320	0	34.1760	0	27.112	0	660.954	0	11.4	4	3.6	4	-1E+10	1	-1E+10	1	-1E+10	1	-1E+10	1	-1E+10	1	-1E+10	1
4902549	74	C	08/28/2022	17:59	-131.954	47.652	0	672.50	0	4.2190	0	34.1810	0	27.117	0	665.797	0	11.0	4	3.5	4	-1E+10	1	-1E+10	1	-1E+10	1	-1E+10	1	-1E+10	1	-1E+10	1
4902549	74	C	08/28/2022	17:59	-131.954	47.652	0	677.90	0	4.2100	0	34.1860	0	27.122	0	671.135	0	10.7	4	3.4	4	-1E+10	1	-1E+10	1	-1E+10	1	-1E+10	1	-1E+10	1	-1E+10	1
4902549	74	C	08/28/2022	17:59	-131.954	47.652	0	683.20	0	4.2040	0	34.1880	0	27.124	0	676.373	0	10.3	4	3.3	4	-1E+10	1	-1E+10	1	-1E+10	1	-1E+10	1	-1E+10	1	-1E+10	1
4902549	74	C	08/28/2022	17:59	-131.954	47.652	0	688.20	0	4.1870	0	34.1930	0	27.130	0	681.315	0	9.9	4	3.1	4	-1E+10	1	-1E+10	1	-1E+10	1	-1E+10	1	-1E+10	1	-1E+10	1
4902549	74	C	08/28/2022	17:59	-131.954	47.652	0	693.20	0	4.1740	0	34.2000	0	27.137	0	686.257	0	9.4	4	3.0	4	-1E+10	1	-1E+10	1	-1E+10	1	-1E+10	1	-1E+10	1	-1E+10	1
4902549	74	C	08/28/2022	17:59	-131.954	47.652	0	697.90	0	4.1610	0	34.2040	0	27.142	0	690.902	0	9.1	4	2.9	4	-1E+10	1	-1E+10	1	-1E+10	1	-1E+10	1	-1E+10	1	-1E+10	1
4902549	74	C	08/28/2022	17:59	-131.954	47.652	0	702.80	0	4.1500	0	34.2090	0	27.147	0	695.745	0	8.8	4	2.8	4	-1E+10	1	-1E+10	1	-1E+10	1	-1E+10	1	-1E+10	1	-1E+10	1
4902549	74	C	08/28/2022	17:59	-131.954	47.652	0	707.80	0	4.1440	0	34.2140	0	27.152	0	700.686	0	8.4	4	2.7	4	-1E+10	1	-1E+10	1	-1E+10	1	-1E+10	1	-1E+10	1	-1E+10	1
4902549	74	C	08/28/2022	17:59	-131.954	47.652	0	712.60	0	4.1390	0	34.2180	0	27.155	0	705.430	0	8.2	4	2.6	4	-1E+10	1	-1E+10	1	-1E+10	1	-1E+10	1	-1E+10	1	-1E+10	1
4902549	74	C	08/28/2022	17:59	-131.954	47.652	0	717.80	0	4.1350	0	34.2240	0	27.160	0	710.569	0	8.0	4	2.5	4	-1E+10	1	-1E+10	1	-1E+10	1	-1E+10	1	-1E+10	1	-1E+10	1
4902549	74	C	08/28/2022	17:59	-131.954	47.652	0	723.30	0	4.0980	0	34.2270	0	27.167	0	716.004	0	7.9	4	2.5	4	-1E+10	1	-1E+10	1	-1E+10	1	-1E+10	1	-1E+10	1	-1E+10	1
4902549	74	C	08/28/2022	17:59	-131.954	47.652	0	727.90	0	4.0700	0	34.2280	0	27.170	0	720.549	0	7.8	4	2.5	4	-1E+10	1	-1E+10	1	-1E+10	1	-1E+10	1	-1E+10	1	-1E+10	1
4902549	74	C	08/28/2022	17:59	-131.954	47.652	0	732.60	0	4.0590	0	34.2290	0	27.172	0	725.194	0	7.6	4	2.4	4	-1E+10	1	-1E+10	1	-1E+10	1	-1E+10	1	-1E+10	1	-1E+10	1
4902549	74	C	08/28/2022	17:59	-131.954	47.652	0	737.90	0	4.0400	0	34.2360	0	27.180	0	730.431	0	7.3	4	2.3	4	-1E+10	1	-1E+10	1	-1E+10	1	-1E+10	1	-1E+10	1	-1E+10	1
4902549	74	C	08/28/2022	17:59	-131.954	47.652	0	742.80	0	4.0260	0	34.2410	0	27.185	0	735.273	0	7.2	4	2.3	4	-1E+10	1	-1E+10	1	-1E+10	1	-1E+10	1	-1E+10	1	-1E+10	1
4902549	74	C	08/28/2022	17:59	-131.954	47.652	0	747.70	0	4.0180	0	34.2440	0	27.189	0	740.114	0	7.1	4	2.2	4	-1E+10	1	-1E+10	1	-1E+10	1	-1E+10	1	-1E+10	1	-1E+10	1
4902549	74	C	08/28/2022	17:59	-131.954	47.652	0	752.70	0	4.0120	0	34.2470	0	27.192	0	745.055	0	7.0	4	2.2	4	-1E+10	1	-1E+10	1	-1E+10	1	-1E+10	1	-1E+10	1	-1E+10	1
4902549	74	C	08/28/2022	17:59	-131.954	47.652	0	757.70	0	4.0070	0	34.2480	0	27.193	0	749.995	0	6.9	4	2.2	4	-1E+10	1	-1E+10	1	-1E+10	1	-1E+10	1	-1E+10	1	-1E+10	1
4902549	74	C	08/28/2022	17:59	-131.954	47.652	0	762.60	0	4.0020	0	34.2500	0	27.195	0	754.836	0	6.8	4	2.1	4	-1E+10	1	-1E+10	1	-1E+10	1	-1E+10	1	-1E+10	1	-1E+10	1
4902549	74	C	08/28/2022	17:59	-131.954	47.652	0	767.70	0	3.9880	0	34.2540	0	27.200	0	759.875	0	6.6	4	2.1	4	-1E+10	1	-1E+10	1	-1E+10	1	-1E+10	1	-1E+10	1	-1E+10	1
4902549	74	C	08/28/2022	17:59	-131.954	47.652	0	772.80	0	3.9790	0	34.2570	0	27.203	0	764.914	0	6.5	4	2.1	4	-1E+10	1	-1E+10	1	-1E+10	1	-1E+10	1	-1E+10	1	-1E+10	1
4902549	74	C	08/28/2022	17:59	-131.954	47.652	0	777.90	0	3.9720	0	34.2580	0	27.205	0	769.952	0	6.4	4	2.0	4	-1E+10	1	-1E+10	1	-1E+10	1	-1E+10	1	-1E+10	1	-1E+10	1
4902549	74	C	08/28/2022	17:59	-131.954	47.652	0	783.10	0	3.9580	0	34.2610	0	27.209	0	775.089	0	6.3	4	2.0	4	-1E+10	1	-1E+10	1	-1E+10	1	-1E+10	1	-1E+10	1	-1E+10	1
4902549	74	C	08/28/2022	17:59	-131.954	47.652	0	787.70	0	3.9470	0	34.2640	0	27.212	0	779.634	0	6.2	4	2.0	4	-1E+10	1	-1E+10	1	-1E+10	1	-1E+10	1	-1E+10	1	-1E+10	1
4902549	74	C	08/28/2022	17:59	-131.954	47.652	0	792.80	0	3.9300	0	34.2690	0	27.218	0	784.672	0	6.2	4	1.9	4	-1E+10	1	-1E+10	1	-1E+10	1	-1E+10	1	-1E+10	1	-1E+10	1
4902549	74	C	08/28/2022	17:59	-131.954	47.652	0	798.00	0	3.9280	0	34.2700	0	27.219	0	789.809	0	6.1	4	1.9	4	-1E+10	1	-1E+10	1	-1E+10	1	-1E+10	1	-1E+10	1	-1E+10	1
4902549	74	C	08/28/2022	17:59	-131.954	47.652	0	802.60	0	3.9190	0	34.2720	0	27.221	0	794.353	0	6.1	4	1.9	4	-1E+10	1	-1E+10	1	-1E+10	1	-1E+10	1	-1E+10	1	-1E+10	1
4902549	74	C	08/28/2022	17:59	-131.954	47.652	0	807.70	0	3.9070	0	34.2740	0	27.224	0	799.391	0	6.1	4	1.9	4	-1E+10	1	-1E+10	1	-1E+10	1	-1E+10	1	-1E+10	1	-1E+10	1
4902549	74	C	08/28/2022	17:59	-131.954	47.652	0	812.90	0	3.8970	0	34.2760	0	27.227	0	804.527	0	6.1	4	1.9	4	-1E+10	1	-1E+10	1	-1E+10	1	-1E+10	1	-1E+10	1	-1E+10	1
4902549	74	C	08/28/2022	17:59	-131.954	47.652	0	818.00	0	3.8700	0	34.2790	0	27.232	0	809.565	0	6.1	4	1.9	4	-1E+10	1	-1E+10	1	-1E+10	1	-1E+10	1	-1E+10	1	-1E+10	1
4902549	74	C	08/28/2022	17:59	-131.954	47.652	0	823.10	0	3.8530	0	34.2800	0	27.235	0	814.602	0	6.0	4	1.9	4	-1E+10	1	-1E+10	1	-1E+10	1	-1E+10	1	-1E+10	1	-1E+10	1
4902549	74	C	08/28/2022	17:59	-131.954	47.652	0	828.10	0	3.8510	0	34.2820	0	27.236	0	819.541	0	5.9	4	1.9	4	-1E+10	1	-1E+10	1	-1E+10	1	-1E+10	1	-1E+10	1	-1E+10	1
4902549	74	C	08/28/2022	17:59	-131.954	47.652	0	832.90	0	3.8510	0	34.2850	0	27.239	0	824.282	0	5.8	4	1.8	4	-1E+10	1	-1E+10	1	-1E+10	1	-1E+10	1	-1E+10	1	-1E+10	1
4902549	74	C	08/28/2022	17:59	-131.954	47.652	0	837.80	0	3.8480	0	34.2880	0	27.242	0	829.121	0	5.7	4	1.8	4	-1E+10	1	-1E+10	1	-1E+10	1	-1E+10	1	-1E+10	1	-1E+10	1
4902549	74	C	08/28/2022	17:59	-131.954	47.652	0	843.10	0	3.8420	0	34.2910	0	27.245	0	834.356	0	5.7	4	1.8	4	-1E+10	1	-1E+10	1	-1E+10	1	-1E+10	1	-1E+10	1	-1E+10	1
4902549	74	C	08/28/2022	17:59	-131.954	47.652	0	847.90	0	3.8320	0	34.2920	0	27.246	0	839.097	0	5.8	4	1.8	4	-1E+10	1	-1E+10	1	-1E+10	1	-1E+10	1	-1E+10	1	-1E+10	1
4902549	74	C	08/28/2022	17:59	-131.954	47.652	0	852.60	0	3.8040	0	34.2950	0	27.252	0	843.738	0	5.9	4	1.8	4	-1E+10	1	-1E+10	1	-1E+10	1	-1E+10	1	-1E+10	1	-1E+10	1
4902549	74	C	08/28/2022	17:59	-131.954	47.652	0	857.80	0	3.7540	0	34.2930	0	27.255	0	848.874	0	5.7	4	1.8	4	-1E+10	1	-1E+10	1	-1E+10	1	-1E+10	1	-1E+10	1	-1E+10	1
4902549	74	C	08/28/2022	17:59	-131.954	47.652	0	863.00	0	3.7890	0	34.3010	0	27.258	0	854.009	0	5.5	4	1.7	4	-1E+10	1	-1E+10	1	-1E+10	1	-1E+10	1	-1E+10	1	-1E+10	1
4902549	74	C	08/28/2022	17:59	-131.954	47.652	0	868.20	0	3.7770	0	34.3050	0	27.262	0	859.144	0	5.5	4	1.7	4	-1E+10	1	-1E+10	1	-1E+10	1	-1E+10	1	-1E+10	1	-1E+10	1
4902549	74	C	08/28/2022	17:59	-131.954	47.652	0	872.90	0	3.7600	0	34.3080	0	27.266	0	863.785	0	5.5	4	1.7	4	-1E+10	1	-1E+10	1	-1E+10	1	-1E+10	1	-1E+10	1	-1E+10	1
4902549	74	C	08/28/2022	17:59	-131.954	47.652	0	877.60	0	3.7410	0	34.3110	0	27.271	0	868.427	0	5.5	4	1.7	4	-1E+10	1	-1E+10	1	-1E+10	1	-1E+10	1	-1E+10	1	-1E+10	1
4902549	74	C	08/28/2022	17:59	-131.954	47.652	0	882.80	0	3.7260	0	34.3140	0	27.275	0	873.561	0	5.5	4	1.7	4	-1E+10	1	-1E+10	1	-1E+10	1	-1E+10	1	-1E+10	1	-1E+10	1
4902549	74	C	08/28/2022	17:59	-131.954	47.652	0	887.90	0	3.7140	0	34.3170	0	27.278	0	878.597	0	5.4	4	1.7	4	-1E+10	1	-1E+10	1	-1E+10	1	-1E+10	1	-1E+10	1	-1E+10	1
4902549	74	C	08/28/2022	17:59	-131.954	47.652	0	893.10	0	3.6920	0	34.3220	0	27.284	0	883.732	0	5.4	4	1.7	4	-1E+10	1	-1E+10	1	-1E+10	1	-1E+10	1	-1E+10	1	-1E+10	1
4902549	74	C	08/28/2022	17:59	-131.954	47.652	0	898.30	0	3.6820	0	34.3250	0	27.288	0	888.866	0	5.4	4	1.7	4	-1E+10	1	-1E+10	1	-1E+10	1	-1E+10	1	-1E+10	1	-1E+10	1
4902549	74	C	08/28/2022	17:59	-131.954	47.652	0	903.00	0	3.6780	0	34.3260	0	27.289	0	893.507	0	5.4	4	1.7	4	-1E+10	1	-1E+10	1	-1E+10	1	-1E+10	1	-1E+10	1	-1E+10	1
4902549	74	C	08/28/2022	17:59	-131.954	47.652	0	907.70	0	3.6650	0	34.3300	0	27.294	0	898.147	0	5.5	4	1.7	4	-1E+10	1	-1E+10	1	-1E+10	1	-1E+10	1	-1E+10	1	-1E+10	1
4902549	74	C	08/28/2022	17:59	-131.954	47.652	0	912.70	0	3.6390	0	34.3320	0	27.298	0	903.084	0	5.5	4	1.7	4	-1E+10	1	-1E+10	1	-1E+10	1	-1E+10	1	-1E+10	1	-1E+10	1
4902549	74	C	08/28/2022	17:59	-131.954	47.652	0	917.60	0	3.6220	0	34.3370	0	27.303	0	907.922	0	5.4	4	1.7	4	-1E+10	1	-1E+10	1	-1E+10	1	-1E+10	1	-1E+10	1	-1E+10	1
4902549	74	C	08/28/2022	17:59	-131.954	47.652	0	922.60	0	3.6140	0	34.3410	0	27.307	0	912.858	0	5.5	4	1.7	4	-1E+10	1	-1E+10	1	-1E+10	1	-1E+10	1	-1E+10	1	-1E+10	1
4902549	74	C	08/28/2022	17:59	-131.954	47.652	0	927.70	0	3.6080	0	34.3420	0	27.309	0	917.893	0	5.5	4	1.7	4	-1E+10	1	-1E+10	1	-1E+10	1	-1E+10	1	-1E+10	1	-1E+10	1
4902549	74	C	08/28/2022	17:59	-131.954	47.652	0	932.80	0	3.6020	0	34.3460	0	27.313	0	922.928	0	5.5	4	1.7	4	-1E+10	1	-1E+10	1	-1E+10	1	-1E+10	1	-1E+10	1	-1E+10	1
4902549	74	C	08/28/2022	17:59	-131.954	47.652	0	938.10	0	3.5820	0	34.3480	0	27.316	0	928.160	0	5.6	4	1.7	4	-1E+10	1	-1E+10	1	-1E+10	1	-1E+10	1	-1E+10	1	-1E+10	1
4902549	74	C	08/28/2022	17:59	-131.954	47.652	0	943.10	0	3.5540	0	34.3500	0	27.321	0	933.096	0	5.6	4	1.8	4	-1E+10	1	-1E+10	1	-1E+10	1	-1E+10	1	-1E+10	1	-1E+10	1
4902549	74	C	08/28/2022	17:59	-131.954	47.652	0	947.70	0	3.5380	0	34.3510	0	27.323	0	937.637	0	5.7	4	1.8	4	-1E+10	1	-1E+10	1	-1E+10	1	-1E+10	1	-1E+10	1	-1E+10	1
4902549	74	C	08/28/2022	17:59	-131.954	47.652	0	952.80	0	3.5250	0	34.3520	0	27.325	0	942.671	0	5.7	4	1.8	4	-1E+10	1	-1E+10	1	-1E+10	1	-1E+10	1	-1E+10	1	-1E+10	1
4902549	74	C	08/28/2022	17:59	-131.954	47.652	0	958.00	0	3.5000	0	34.3550	0	27.330	0	947.804	0	5.8	4	1.8	4	-1E+10	1	-1E+10	1	-1E+10	1	-1E+10	1	-1E+10	1	-1E+10	1
4902549	74	C	08/28/2022	17:59	-131.954	47.652	0	962.80	0	3.4960	0	34.3590	0	27.333	0	952.542	0	5.8	4	1.8	4	-1E+10	1	-1E+10	1	-1E+10	1	-1E+10	1	-1E+10	1	-1E+10	1
4902549	74	C	08/28/2022	17:59	-131.954	47.652	0	967.80	0	3.4920	0	34.3620	0	27.336	0	957.477	0	5.8	4	1.8	4	-1E+10	1	-1E+10	1	-1E+10	1	-1E+10	1	-1E+10	1	-1E+10	1
4902549	74	C	08/28/2022	17:59	-131.954	47.652	0	973.00	0	3.4940	0	34.3650	0	27.338	0	962.610	0	5.8	4	1.8	4	-1E+10	1	-1E+10	1	-1E+10	1	-1E+10	1	-1E+10	1	-1E+10	1
4902549	74	C	08/28/2022	17:59	-131.954	47.652	0	978.00	0	3.4940	0	34.3700	0	27.343	0	967.545	0	5.8	4	1.8	4	-1E+10	1	-1E+10	1	-1E+10	1	-1E+10	1	-1E+10	1	-1E+10	1
4902549	74	C	08/28/2022	17:59	-131.954	47.652	0	982.70	0	3.4830	0	34.3690	0	27.343	0	972.184	0	5.9	4	1.8	4	-1E+10	1	-1E+10	1	-1E+10	1	-1E+10	1	-1E+10	1	-1E+10	1
4902549	74	C	08/28/2022	17:59	-131.954	47.652	0	987.60	0	3.4530	0	34.3680	0	27.345	0	977.020	0	5.9	4	1.9	4	-1E+10	1	-1E+10	1	-1E+10	1	-1E+10	1	-1E+10	1	-1E+10	1
4902549	74	C	08/28/2022	17:59	-131.954	47.652	0	992.70	0	3.4470	0	34.3700	0	27.347	0	982.054	0	6.0	4	1.9	4	-1E+10	1	-1E+10	1	-1E+10	1	-1E+10	1	-1E+10	1	-1E+10	1
4902549	74	C	08/28/2022	17:59	-131.954	47.652	0	997.90	0	3.4470	0	34.3720	0	27.349	0	987.186	0	6.0	4	1.9	4	-1E+10	1	-1E+10	1	-1E+10	1	-1E+10	1	-1E+10	1	-1E+10	1
4902549	74	C	08/28/2022	17:59	-131.954	47.652	0	1005.50	0	3.4400	0	34.3750	0	27.352	0	994.686	0	6.1	4	1.9	4	-1E+10	1	-1E+10	1	-1E+10	1	-1E+10	1	-1E+10	1	-1E+10	1
4902549	74	C	08/28/2022	17:59	-131.954	47.652	0	1015.30	0	3.4040	0	34.3760	0	27.356	0	1004.357	0	6.2	4	1.9	4	-1E+10	1	-1E+10	1	-1E+10	1	-1E+10	1	-1E+10	1	-1E+10	1
4902549	74	C	08/28/2022	17:59	-131.954	47.652	0	1025.30	0	3.3820	0	34.3790	0	27.361	0	1014.225	0	6.3	4	2.0	4	-1E+10	1	-1E+10	1	-1E+10	1	-1E+10	1	-1E+10	1	-1E+10	1
4902549	74	C	08/28/2022	17:59	-131.954	47.652	0	1035.20	0	3.3860	0	34.3840	0	27.364	0	1023.994	0	6.4	4	2.0	4	-1E+10	1	-1E+10	1	-1E+10	1	-1E+10	1	-1E+10	1	-1E+10	1
4902549	74	C	08/28/2022	17:59	-131.954	47.652	0	1045.40	0	3.3610	0	34.3890	0	27.371	0	1034.058	0	6.6	4	2.1	4	-1E+10	1	-1E+10	1	-1E+10	1	-1E+10	1	-1E+10	1	-1E+10	1
4902549	74	C	08/28/2022	17:59	-131.954	47.652	0	1055.70	0	3.3230	0	34.3920	0	27.377	0	1044.221	0	6.8	4	2.1	4	-1E+10	1	-1E+10	1	-1E+10	1	-1E+10	1	-1E+10	1	-1E+10	1
4902549	74	C	08/28/2022	17:59	-131.954	47.652	0	1065.60	0	3.3000	0	34.3960	0	27.382	0	1053.989	0	6.9	4	2.1	4	-1E+10	1	-1E+10	1	-1E+10	1	-1E+10	1	-1E+10	1	-1E+10	1
4902549	74	C	08/28/2022	17:59	-131.954	47.652	0	1075.60	0	3.2860	0	34.3970	0	27.384	0	1063.854	0	6.9	4	2.1	4	-1E+10	1	-1E+10	1	-1E+10	1	-1E+10	1	-1E+10	1	-1E+10	1
4902549	74	C	08/28/2022	17:59	-131.954	47.652	0	1085.60	0	3.2350	0	34.3940	0	27.387	0	1073.719	0	6.9	4	2.1	4	-1E+10	1	-1E+10	1	-1E+10	1	-1E+10	1	-1E+10	1	-1E+10	1
4902549	74	C	08/28/2022	17:59	-131.954	47.652	0	1095.40	0	3.2000	0	34.3940	0	27.390	0	1083.387	0	7.0	4	2.2	4	-1E+10	1	-1E+10	1	-1E+10	1	-1E+10	1	-1E+10	1	-1E+10	1
4902549	74	C	08/28/2022	17:59	-131.954	47.652	0	1105.40	0	3.1820	0	34.3970	0	27.394	0	1093.251	0	7.2	4	2.2	4	-1E+10	1	-1E+10	1	-1E+10	1	-1E+10	1	-1E+10	1	-1E+10	1
4902549	74	C	08/28/2022	17:59	-131.954	47.652	0	1115.50	0	3.1540	0	34.4020	0	27.401	0	1103.214	0	7.4	4	2.3	4	-1E+10	1	-1E+10	1	-1E+10	1	-1E+10	1	-1E+10	1	-1E+10	1
4902549	74	C	08/28/2022	17:59	-131.954	47.652	0	1125.50	0	3.1280	0	34.4070	0	27.407	0	1113.077	0	7.6	4	2.4	4	-1E+10	1	-1E+10	1	-1E+10	1	-1E+10	1	-1E+10	1	-1E+10	1
4902549	74	C	08/28/2022	17:59	-131.954	47.652	0	1135.40	0	3.1210	0	34.4110	0	27.411	0	1122.841	0	7.8	4	2.4	4	-1E+10	1	-1E+10	1	-1E+10	1	-1E+10	1	-1E+10	1	-1E+10	1
4902549	74	C	08/28/2022	17:59	-131.954	47.652	0	1145.10	0	3.0900	0	34.4140	0	27.416	0	1132.408	0	8.0	4	2.5	4	-1E+10	1	-1E+10	1	-1E+10	1	-1E+10	1	-1E+10	1	-1E+10	1
4902549	74	C	08/28/2022	17:59	-131.954	47.652	0	1155.50	0	3.0510	0	34.4160	0	27.422	0	1142.664	0	8.1	4	2.5	4	-1E+10	1	-1E+10	1	-1E+10	1	-1E+10	1	-1E+10	1	-1E+10	1
4902549	74	C	08/28/2022	17:59	-131.954	47.652	0	1165.60	0	3.0270	0	34.4190	0	27.426	0	1152.625	0	8.4	4	2.6	4	-1E+10	1	-1E+10	1	-1E+10	1	-1E+10	1	-1E+10	1	-1E+10	1
4902549	74	C	08/28/2022	17:59	-131.954	47.652	0	1175.60	0	3.0290	0	34.4230	0	27.429	0	1162.486	0	8.7	4	2.7	4	-1E+10	1	-1E+10	1	-1E+10	1	-1E+10	1	-1E+10	1	-1E+10	1
4902549	74	C	08/28/2022	17:59	-131.954	47.652	0	1185.50	0	3.0310	0	34.4270	0	27.432	0	1172.248	0	8.9	4	2.8	4	-1E+10	1	-1E+10	1	-1E+10	1	-1E+10	1	-1E+10	1	-1E+10	1
4902549	74	C	08/28/2022	17:59	-131.954	47.652	0	1195.10	0	3.0040	0	34.4300	0	27.437	0	1181.713	0	9.2	4	2.8	4	-1E+10	1	-1E+10	1	-1E+10	1	-1E+10	1	-1E+10	1	-1E+10	1
4902549	74	C	08/28/2022	17:59	-131.954	47.652	0	1205.00	0	2.9910	0	34.4330	0	27.441	0	1191.474	0	9.3	4	2.9	4	-1E+10	1	-1E+10	1	-1E+10	1	-1E+10	1	-1E+10	1	-1E+10	1
4902549	74	C	08/28/2022	17:59	-131.954	47.652	0	1215.50	0	2.9750	0	34.4340	0	27.443	0	1201.826	0	9.6	4	3.0	4	-1E+10	1	-1E+10	1	-1E+10	1	-1E+10	1	-1E+10	1	-1E+10	1
4902549	74	C	08/28/2022	17:59	-131.954	47.652	0	1225.50	0	2.9560	0	34.4380	0	27.448	0	1211.685	0	10.0	4	3.1	4	-1E+10	1	-1E+10	1	-1E+10	1	-1E+10	1	-1E+10	1	-1E+10	1
4902549	74	C	08/28/2022	17:59	-131.954	47.652	0	1235.70	0	2.9300	0	34.4400	0	27.452	0	1221.741	0	10.2	4	3.1	4	-1E+10	1	-1E+10	1	-1E+10	1	-1E+10	1	-1E+10	1	-1E+10	1
4902549	74	C	08/28/2022	17:59	-131.954	47.652	0	1245.40	0	2.9010	0	34.4420	0	27.456	0	1231.303	0	10.4	4	3.2	4	-1E+10	1	-1E+10	1	-1E+10	1	-1E+10	1	-1E+10	1	-1E+10	1
4902549	74	C	08/28/2022	17:59	-131.954	47.652	0	1255.40	0	2.8890	0	34.4460	0	27.461	0	1241.160	0	10.7	4	3.3	4	-1E+10	1	-1E+10	1	-1E+10	1	-1E+10	1	-1E+10	1	-1E+10	1
4902549	74	C	08/28/2022	17:59	-131.954	47.652	0	1265.50	0	2.8730	0	34.4500	0	27.465	0	1251.115	0	11.0	4	3.4	4	-1E+10	1	-1E+10	1	-1E+10	1	-1E+10	1	-1E+10	1	-1E+10	1
4902549	74	C	08/28/2022	17:59	-131.954	47.652	0	1275.50	0	2.8580	0	34.4520	0	27.468	0	1260.972	0	11.2	4	3.4	4	-1E+10	1	-1E+10	1	-1E+10	1	-1E+10	1	-1E+10	1	-1E+10	1
4902549	74	C	08/28/2022	17:59	-131.954	47.652	0	1285.50	0	2.8550	0	34.4520	0	27.469	0	1270.828	0	11.3	4	3.5	4	-1E+10	1	-1E+10	1	-1E+10	1	-1E+10	1	-1E+10	1	-1E+10	1
4902549	74	C	08/28/2022	17:59	-131.954	47.652	0	1295.50	0	2.8260	0	34.4540	0	27.473	0	1280.683	0	11.4	4	3.5	4	-1E+10	1	-1E+10	1	-1E+10	1	-1E+10	1	-1E+10	1	-1E+10	1
4902549	74	C	08/28/2022	17:59	-131.954	47.652	0	1305.40	0	2.8000	0	34.4530	0	27.474	0	1290.440	0	11.5	4	3.5	4	-1E+10	1	-1E+10	1	-1E+10	1	-1E+10	1	-1E+10	1	-1E+10	1
4902549	74	C	08/28/2022	17:59	-131.954	47.652	0	1315.40	0	2.7860	0	34.4550	0	27.477	0	1300.294	0	11.9	4	3.6	4	-1E+10	1	-1E+10	1	-1E+10	1	-1E+10	1	-1E+10	1	-1E+10	1
4902549	74	C	08/28/2022	17:59	-131.954	47.652	0	1325.40	0	2.7640	0	34.4590	0	27.482	0	1310.148	0	12.3	4	3.8	4	-1E+10	1	-1E+10	1	-1E+10	1	-1E+10	1	-1E+10	1	-1E+10	1
4902549	74	C	08/28/2022	17:59	-131.954	47.652	0	1335.50	0	2.7430	0	34.4630	0	27.488	0	1320.101	0	12.7	4	3.9	4	-1E+10	1	-1E+10	1	-1E+10	1	-1E+10	1	-1E+10	1	-1E+10	1
4902549	74	C	08/28/2022	17:59	-131.954	47.652	0	1345.50	0	2.7270	0	34.4660	0	27.491	0	1329.954	0	13.1	4	4.0	4	-1E+10	1	-1E+10	1	-1E+10	1	-1E+10	1	-1E+10	1	-1E+10	1
4902549	74	C	08/28/2022	17:59	-131.954	47.652	0	1355.10	0	2.7130	0	34.4670	0	27.493	0	1339.412	0	13.3	4	4.1	4	-1E+10	1	-1E+10	1	-1E+10	1	-1E+10	1	-1E+10	1	-1E+10	1
4902549	74	C	08/28/2022	17:59	-131.954	47.652	0	1365.30	0	2.6960	0	34.4700	0	27.497	0	1349.462	0	13.7	4	4.2	4	-1E+10	1	-1E+10	1	-1E+10	1	-1E+10	1	-1E+10	1	-1E+10	1
4902549	74	C	08/28/2022	17:59	-131.954	47.652	0	1375.50	0	2.6840	0	34.4720	0	27.500	0	1359.510	0	14.1	4	4.3	4	-1E+10	1	-1E+10	1	-1E+10	1	-1E+10	1	-1E+10	1	-1E+10	1
4902549	74	C	08/28/2022	17:59	-131.954	47.652	0	1385.30	0	2.6670	0	34.4740	0	27.503	0	1369.165	0	14.4	4	4.4	4	-1E+10	1	-1E+10	1	-1E+10	1	-1E+10	1	-1E+10	1	-1E+10	1
4902549	74	C	08/28/2022	17:59	-131.954	47.652	0	1395.20	0	2.6510	0	34.4770	0	27.507	0	1378.917	0	14.7	4	4.5	4	-1E+10	1	-1E+10	1	-1E+10	1	-1E+10	1	-1E+10	1	-1E+10	1
4902549	74	C	08/28/2022	17:59	-131.954	47.652	0	1405.20	0	2.6390	0	34.4780	0	27.509	0	1388.767	0	15.1	4	4.6	4	-1E+10	1	-1E+10	1	-1E+10	1	-1E+10	1	-1E+10	1	-1E+10	1
4902549	74	C	08/28/2022	17:59	-131.954	47.652	0	1415.10	0	2.6280	0	34.4800	0	27.511	0	1398.519	0	15.6	4	4.8	4	-1E+10	1	-1E+10	1	-1E+10	1	-1E+10	1	-1E+10	1	-1E+10	1
4902549	74	C	08/28/2022	17:59	-131.954	47.652	0	1425.10	0	2.6180	0	34.4820	0	27.514	0	1408.368	0	16.1	4	4.9	4	-1E+10	1	-1E+10	1	-1E+10	1	-1E+10	1	-1E+10	1	-1E+10	1
4902549	74	C	08/28/2022	17:59	-131.954	47.652	0	1435.10	0	2.5980	0	34.4850	0	27.518	0	1418.217	0	16.8	4	5.1	4	-1E+10	1	-1E+10	1	-1E+10	1	-1E+10	1	-1E+10	1	-1E+10	1
4902549	74	C	08/28/2022	17:59	-131.954	47.652	0	1445.20	0	2.5820	0	34.4890	0	27.523	0	1428.164	0	17.8	4	5.4	4	-1E+10	1	-1E+10	1	-1E+10	1	-1E+10	1	-1E+10	1	-1E+10	1
4902549	74	C	08/28/2022	17:59	-131.954	47.652	0	1455.60	0	2.5580	0	34.4950	0	27.530	0	1438.406	0	18.7	4	5.7	4	-1E+10	1	-1E+10	1	-1E+10	1	-1E+10	1	-1E+10	1	-1E+10	1
4902549	74	C	08/28/2022	17:59	-131.954	47.652	0	1465.40	0	2.5300	0	34.4980	0	27.534	0	1448.057	0	19.2	4	5.9	4	-1E+10	1	-1E+10	1	-1E+10	1	-1E+10	1	-1E+10	1	-1E+10	1
4902549	74	C	08/28/2022	17:59	-131.954	47.652	0	1475.50	0	2.5140	0	34.4990	0	27.537	0	1458.003	0	19.6	4	6.0	4	-1E+10	1	-1E+10	1	-1E+10	1	-1E+10	1	-1E+10	1	-1E+10	1
4902549	74	C	08/28/2022	17:59	-131.954	47.652	0	1485.30	0	2.4940	0	34.5020	0	27.541	0	1467.653	0	20.2	4	6.1	4	-1E+10	1	-1E+10	1	-1E+10	1	-1E+10	1	-1E+10	1	-1E+10	1
4902549	74	C	08/28/2022	17:59	-131.954	47.652	0	1495.30	0	2.4790	0	34.5030	0	27.543	0	1477.499	0	20.7	4	6.3	4	-1E+10	1	-1E+10	1	-1E+10	1	-1E+10	1	-1E+10	1	-1E+10	1
4902549	74	C	08/28/2022	17:59	-131.954	47.652	0	1505.60	0	2.4540	0	34.5060	0	27.547	0	1487.640	0	21.2	4	6.5	4	-1E+10	1	-1E+10	1	-1E+10	1	-1E+10	1	-1E+10	1	-1E+10	1
4902549	74	C	08/28/2022	17:59	-131.954	47.652	0	1515.80	0	2.4390	0	34.5070	0	27.549	0	1497.682	0	21.6	4	6.6	4	-1E+10	1	-1E+10	1	-1E+10	1	-1E+10	1	-1E+10	1	-1E+10	1
4902549	74	C	08/28/2022	17:59	-131.954	47.652	0	1525.70	0	2.4300	0	34.5090	0	27.552	0	1507.428	0	22.0	4	6.7	4	-1E+10	1	-1E+10	1	-1E+10	1	-1E+10	1	-1E+10	1	-1E+10	1
4902549	74	C	08/28/2022	17:59	-131.954	47.652	0	1535.50	0	2.4210	0	34.5100	0	27.553	0	1517.076	0	22.5	4	6.9	4	-1E+10	1	-1E+10	1	-1E+10	1	-1E+10	1	-1E+10	1	-1E+10	1
4902549	74	C	08/28/2022	17:59	-131.954	47.652	0	1545.40	0	2.4060	0	34.5120	0	27.556	0	1526.821	0	23.1	4	7.0	4	-1E+10	1	-1E+10	1	-1E+10	1	-1E+10	1	-1E+10	1	-1E+10	1
4902549	74	C	08/28/2022	17:59	-131.954	47.652	0	1555.40	0	2.3890	0	34.5140	0	27.559	0	1536.665	0	23.5	4	7.1	4	-1E+10	1	-1E+10	1	-1E+10	1	-1E+10	1	-1E+10	1	-1E+10	1
4902549	74	C	08/28/2022	17:59	-131.954	47.652	0	1565.20	0	2.3810	0	34.5150	0	27.561	0	1546.311	0	23.9	4	7.3	4	-1E+10	1	-1E+10	1	-1E+10	1	-1E+10	1	-1E+10	1	-1E+10	1
4902549	74	C	08/28/2022	17:59	-131.954	47.652	0	1575.20	0	2.3710	0	34.5170	0	27.563	0	1556.154	0	24.3	4	7.4	4	-1E+10	1	-1E+10	1	-1E+10	1	-1E+10	1	-1E+10	1	-1E+10	1
4902549	74	C	08/28/2022	17:59	-131.954	47.652	0	1585.10	0	2.3540	0	34.5180	0	27.566	0	1565.897	0	24.6	4	7.5	4	-1E+10	1	-1E+10	1	-1E+10	1	-1E+10	1	-1E+10	1	-1E+10	1
4902549	74	C	08/28/2022	17:59	-131.954	47.652	0	1595.20	0	2.3390	0	34.5190	0	27.568	0	1575.837	0	25.0	4	7.6	4	-1E+10	1	-1E+10	1	-1E+10	1	-1E+10	1	-1E+10	1	-1E+10	1
4902549	74	C	08/28/2022	17:59	-131.954	47.652	0	1605.50	0	2.3280	0	34.5210	0	27.570	0	1585.974	0	25.9	4	7.9	4	-1E+10	1	-1E+10	1	-1E+10	1	-1E+10	1	-1E+10	1	-1E+10	1
4902549	74	C	08/28/2022	17:59	-131.954	47.652	0	1615.50	0	2.3150	0	34.5250	0	27.575	0	1595.815	0	27.0	4	8.2	4	-1E+10	1	-1E+10	1	-1E+10	1	-1E+10	1	-1E+10	1	-1E+10	1
4902549	74	C	08/28/2022	17:59	-131.954	47.652	0	1625.10	0	2.3040	0	34.5270	0	27.577	0	1605.261	0	27.7	4	8.4	4	-1E+10	1	-1E+10	1	-1E+10	1	-1E+10	1	-1E+10	1	-1E+10	1
4902549	74	C	08/28/2022	17:59	-131.954	47.652	0	1635.30	0	2.2890	0	34.5290	0	27.580	0	1615.298	0	28.1	4	8.5	4	-1E+10	1	-1E+10	1	-1E+10	1	-1E+10	1	-1E+10	1	-1E+10	1
4902549	74	C	08/28/2022	17:59	-131.954	47.652	0	1645.60	0	2.2830	0	34.5310	0	27.582	0	1625.432	0	28.6	4	8.7	4	-1E+10	1	-1E+10	1	-1E+10	1	-1E+10	1	-1E+10	1	-1E+10	1
4902549	74	C	08/28/2022	17:59	-131.954	47.652	0	1655.60	0	2.2740	0	34.5320	0	27.584	0	1635.271	0	29.2	4	8.9	4	-1E+10	1	-1E+10	1	-1E+10	1	-1E+10	1	-1E+10	1	-1E+10	1
4902549	74	C	08/28/2022	17:59	-131.954	47.652	0	1665.60	0	2.2600	0	34.5340	0	27.587	0	1645.110	0	29.9	4	9.1	4	-1E+10	1	-1E+10	1	-1E+10	1	-1E+10	1	-1E+10	1	-1E+10	1
4902549	74	C	08/28/2022	17:59	-131.954	47.652	0	1675.60	0	2.2480	0	34.5360	0	27.589	0	1654.948	0	30.5	4	9.3	4	-1E+10	1	-1E+10	1	-1E+10	1	-1E+10	1	-1E+10	1	-1E+10	1
4902549	74	C	08/28/2022	17:59	-131.954	47.652	0	1685.60	0	2.2320	0	34.5380	0	27.592	0	1664.785	0	31.2	4	9.5	4	-1E+10	1	-1E+10	1	-1E+10	1	-1E+10	1	-1E+10	1	-1E+10	1
4902549	74	C	08/28/2022	17:59	-131.954	47.652	0	1695.50	0	2.2180	0	34.5410	0	27.596	0	1674.524	0	31.8	4	9.6	4	-1E+10	1	-1E+10	1	-1E+10	1	-1E+10	1	-1E+10	1	-1E+10	1
4902549	74	C	08/28/2022	17:59	-131.954	47.652	0	1705.60	0	2.2120	0	34.5420	0	27.597	0	1684.459	0	32.2	4	9.8	4	-1E+10	1	-1E+10	1	-1E+10	1	-1E+10	1	-1E+10	1	-1E+10	1
4902549	74	C	08/28/2022	17:59	-131.954	47.652	0	1715.50	0	2.2030	0	34.5430	0	27.599	0	1694.197	0	33.1	4	10.0	4	-1E+10	1	-1E+10	1	-1E+10	1	-1E+10	1	-1E+10	1	-1E+10	1
4902549	74	C	08/28/2022	17:59	-131.954	47.652	0	1725.50	0	2.1800	0	34.5460	0	27.603	0	1704.032	0	34.0	4	10.3	4	-1E+10	1	-1E+10	1	-1E+10	1	-1E+10	1	-1E+10	1	-1E+10	1
4902549	74	C	08/28/2022	17:59	-131.954	47.652	0	1735.40	0	2.1650	0	34.5480	0	27.606	0	1713.769	0	34.8	4	10.5	4	-1E+10	1	-1E+10	1	-1E+10	1	-1E+10	1	-1E+10	1	-1E+10	1
4902549	74	C	08/28/2022	17:59	-131.954	47.652	0	1745.30	0	2.1550	0	34.5500	0	27.608	0	1723.506	0	35.1	4	10.6	4	-1E+10	1	-1E+10	1	-1E+10	1	-1E+10	1	-1E+10	1	-1E+10	1
4902549	74	C	08/28/2022	17:59	-131.954	47.652	0	1755.20	0	2.1480	0	34.5510	0	27.610	0	1733.241	0	35.5	4	10.7	4	-1E+10	1	-1E+10	1	-1E+10	1	-1E+10	1	-1E+10	1	-1E+10	1
4902549	74	C	08/28/2022	17:59	-131.954	47.652	0	1765.10	0	2.1400	0	34.5520	0	27.611	0	1742.977	0	36.0	4	10.9	4	-1E+10	1	-1E+10	1	-1E+10	1	-1E+10	1	-1E+10	1	-1E+10	1
4902549	74	C	08/28/2022	17:59	-131.954	47.652	0	1775.40	0	2.1330	0	34.5530	0	27.613	0	1753.105	0	36.5	4	11.0	4	-1E+10	1	-1E+10	1	-1E+10	1	-1E+10	1	-1E+10	1	-1E+10	1
4902549	74	C	08/28/2022	17:59	-131.954	47.652	0	1785.40	0	2.1230	0	34.5540	0	27.614	0	1762.938	0	37.2	4	11.3	4	-1E+10	1	-1E+10	1	-1E+10	1	-1E+10	1	-1E+10	1	-1E+10	1
4902549	74	C	08/28/2022	17:59	-131.954	47.652	0	1795.50	0	2.1080	0	34.5560	0	27.617	0	1772.869	0	38.1	4	11.5	4	-1E+10	1	-1E+10	1	-1E+10	1	-1E+10	1	-1E+10	1	-1E+10	1
4902549	74	C	08/28/2022	17:59	-131.954	47.652	0	1805.50	0	2.0990	0	34.5580	0	27.619	0	1782.701	0	38.8	4	11.7	4	-1E+10	1	-1E+10	1	-1E+10	1	-1E+10	1	-1E+10	1	-1E+10	1
4902549	74	C	08/28/2022	17:59	-131.954	47.652	0	1815.50	0	2.0890	0	34.5600	0	27.622	0	1792.533	0	39.7	4	12.0	4	-1E+10	1	-1E+10	1	-1E+10	1	-1E+10	1	-1E+10	1	-1E+10	1
4902549	74	C	08/28/2022	17:59	-131.954	47.652	0	1825.50	0	2.0730	0	34.5630	0	27.626	0	1802.364	0	40.5	4	12.2	4	-1E+10	1	-1E+10	1	-1E+10	1	-1E+10	1	-1E+10	1	-1E+10	1
4902549	74	C	08/28/2022	17:59	-131.954	47.652	0	1835.20	0	2.0600	0	34.5640	0	27.627	0	1811.900	0	41.1	4	12.4	4	-1E+10	1	-1E+10	1	-1E+10	1	-1E+10	1	-1E+10	1	-1E+10	1
4902549	74	C	08/28/2022	17:59	-131.954	47.652	0	1845.10	0	2.0510	0	34.5660	0	27.630	0	1821.631	0	41.7	4	12.6	4	-1E+10	1	-1E+10	1	-1E+10	1	-1E+10	1	-1E+10	1	-1E+10	1
4902549	74	C	08/28/2022	17:59	-131.954	47.652	0	1855.20	0	2.0410	0	34.5680	0	27.632	0	1831.559	0	42.3	4	12.8	4	-1E+10	1	-1E+10	1	-1E+10	1	-1E+10	1	-1E+10	1	-1E+10	1
4902549	74	C	08/28/2022	17:59	-131.954	47.652	0	1865.20	0	2.0350	0	34.5680	0	27.633	0	1841.389	0	42.8	4	12.9	4	-1E+10	1	-1E+10	1	-1E+10	1	-1E+10	1	-1E+10	1	-1E+10	1
4902549	74	C	08/28/2022	17:59	-131.954	47.652	0	1875.40	0	2.0280	0	34.5700	0	27.635	0	1851.414	0	43.4	4	13.1	4	-1E+10	1	-1E+10	1	-1E+10	1	-1E+10	1	-1E+10	1	-1E+10	1
4902549	74	C	08/28/2022	17:59	-131.954	47.652	0	1885.20	0	2.0200	0	34.5710	0	27.636	0	1861.046	0	43.8	4	13.2	4	-1E+10	1	-1E+10	1	-1E+10	1	-1E+10	1	-1E+10	1	-1E+10	1
4902549	74	C	08/28/2022	17:59	-131.954	47.652	0	1895.30	0	2.0140	0	34.5720	0	27.638	0	1870.972	0	44.3	4	13.4	4	-1E+10	1	-1E+10	1	-1E+10	1	-1E+10	1	-1E+10	1	-1E+10	1
4902549	74	C	08/28/2022	17:59	-131.954	47.652	0	1905.50	0	2.0080	0	34.5730	0	27.639	0	1880.996	0	44.7	4	13.5	4	-1E+10	1	-1E+10	1	-1E+10	1	-1E+10	1	-1E+10	1	-1E+10	1
4902549	74	C	08/28/2022	17:59	-131.954	47.652	0	1915.60	0	2.0050	0	34.5740	0	27.640	0	1890.922	0	45.3	4	13.7	4	-1E+10	1	-1E+10	1	-1E+10	1	-1E+10	1	-1E+10	1	-1E+10	1
4902549	74	C	08/28/2022	17:59	-131.954	47.652	0	1925.40	0	1.9960	0	34.5760	0	27.642	0	1900.552	0	45.8	4	13.8	4	-1E+10	1	-1E+10	1	-1E+10	1	-1E+10	1	-1E+10	1	-1E+10	1
4902549	74	C	08/28/2022	17:59	-131.954	47.652	0	1935.40	0	1.9870	0	34.5770	0	27.644	0	1910.378	0	46.3	4	14.0	4	-1E+10	1	-1E+10	1	-1E+10	1	-1E+10	1	-1E+10	1	-1E+10	1
4902549	74	C	08/28/2022	17:59	-131.954	47.652	0	1945.20	0	1.9810	0	34.5780	0	27.645	0	1920.007	0	46.6	4	14.0	4	-1E+10	1	-1E+10	1	-1E+10	1	-1E+10	1	-1E+10	1	-1E+10	1
4902549	74	C	08/28/2022	17:59	-131.954	47.652	0	1955.40	0	1.9740	0	34.5790	0	27.647	0	1930.029	0	47.0	4	14.2	4	-1E+10	1	-1E+10	1	-1E+10	1	-1E+10	1	-1E+10	1	-1E+10	1
4902549	74	C	08/28/2022	17:59	-131.954	47.652	0	1965.80	0	1.9680	0	34.5800	0	27.648	0	1940.246	0	47.1	4	14.2	4	-1E+10	1	-1E+10	1	-1E+10	1	-1E+10	1	-1E+10	1	-1E+10	1
4902549	74	C	08/28/2022	17:59	-131.954	47.652	0	1976.20	0	1.9660	0	34.5810	0	27.649	0	1950.463	0	46.7	4	14.1	4	-1E+10	1	-1E+10	1	-1E+10	1	-1E+10	1	-1E+10	1	-1E+10	1
4902549	74	C	08/28/2022	17:59	-131.954	47.652	0	1981.20	0	1.9670	0	34.5810	0	27.649	0	1955.375	0	46.2	4	13.9	4	-1E+10	1	-1E+10	1	-1E+10	1	-1E+10	1	-1E+10	1	-1E+10	1
4902549	74	C	08/28/2022	17:59	-131.954	47.652	0																										
4902549	75	C	09/07/2022	23:12	-131.665	47.626	0	0.20	0	17.8800	0	32.2310	0	23.183	0	0.198	0	237.1	4	99.2	4	-1E+10	1	-1E+10	1	-1E+10	1	-1E+10	1	-1E+10	1	-1E+10	1
4902549	75	C	09/07/2022	23:12	-131.665	47.626	0	0.30	0	17.8795	0	32.2313	0	23.183	0	0.297	0	237.0	4	99.2	4	-1E+10	1	-1E+10	1	-1E+10	1	-1E+10	1	-1E+10	1	-1E+10	1
4902549	75	C	09/07/2022	23:12	-131.665	47.626	0	0.80	0	17.8770	0	32.2330	0	23.185	0	0.793	0	236.8	4	99.1	4	-1E+10	1	-1E+10	1	-1E+10	1	-1E+10	1	-1E+10	1	-1E+10	1
4902549	75	C	09/07/2022	23:12	-131.665	47.626	0	1.80	0	17.8780	0	32.2330	0	23.185	0	1.785	0	236.8	4	99.1	4	-1E+10	1	-1E+10	1	-1E+10	1	-1E+10	1	-1E+10	1	-1E+10	1
4902549	75	C	09/07/2022	23:12	-131.665	47.626	0	3.10	0	17.8740	0	32.2370	0	23.189	0	3.074	0	236.7	4	99.1	4	-1E+10	1	-1E+10	1	-1E+10	1	-1E+10	1	-1E+10	1	-1E+10	1
4902549	75	C	09/07/2022	23:12	-131.665	47.626	0	4.10	0	17.8690	0	32.2430	0	23.195	0	4.066	0	236.8	4	99.1	4	-1E+10	1	-1E+10	1	-1E+10	1	-1E+10	1	-1E+10	1	-1E+10	1
4902549	75	C	09/07/2022	23:12	-131.665	47.626	0	4.90	0	17.8620	0	32.2480	0	23.200	0	4.859	0	236.8	4	99.1	4	-1E+10	1	-1E+10	1	-1E+10	1	-1E+10	1	-1E+10	1	-1E+10	1
4902549	75	C	09/07/2022	23:12	-131.665	47.626	0	6.20	0	17.8620	0	32.2490	0	23.201	0	6.148	0	236.8	4	99.1	4	-1E+10	1	-1E+10	1	-1E+10	1	-1E+10	1	-1E+10	1	-1E+10	1
4902549	75	C	09/07/2022	23:12	-131.665	47.626	0	7.10	0	17.8530	0	32.2480	0	23.202	0	7.041	0	236.9	4	99.1	4	-1E+10	1	-1E+10	1	-1E+10	1	-1E+10	1	-1E+10	1	-1E+10	1
4902549	75	C	09/07/2022	23:12	-131.665	47.626	0	7.80	0	17.8430	0	32.2480	0	23.205	0	7.735	0	237.0	4	99.1	4	-1E+10	1	-1E+10	1	-1E+10	1	-1E+10	1	-1E+10	1	-1E+10	1
4902549	75	C	09/07/2022	23:12	-131.665	47.626	0	8.80	0	17.8270	0	32.2480	0	23.209	0	8.726	0	237.1	4	99.1	4	-1E+10	1	-1E+10	1	-1E+10	1	-1E+10	1	-1E+10	1	-1E+10	1
4902549	75	C	09/07/2022	23:12	-131.665	47.626	0	10.00	0	17.8390	0	32.2480	0	23.206	0	9.916	0	237.3	4	99.2	4	-1E+10	1	-1E+10	1	-1E+10	1	-1E+10	1	-1E+10	1	-1E+10	1
4902549	75	C	09/07/2022	23:12	-131.665	47.626	0	10.70	0	17.8300	0	32.2470	0	23.207	0	10.610	0	237.4	4	99.3	4	-1E+10	1	-1E+10	1	-1E+10	1	-1E+10	1	-1E+10	1	-1E+10	1
4902549	75	C	09/07/2022	23:12	-131.665	47.626	0	11.80	0	17.8190	0	32.2450	0	23.208	0	11.701	0	237.4	4	99.3	4	-1E+10	1	-1E+10	1	-1E+10	1	-1E+10	1	-1E+10	1	-1E+10	1
4902549	75	C	09/07/2022	23:12	-131.665	47.626	0	13.00	0	17.7640	0	32.2480	0	23.224	0	12.891	0	237.7	4	99.3	4	-1E+10	1	-1E+10	1	-1E+10	1	-1E+10	1	-1E+10	1	-1E+10	1
4902549	75	C	09/07/2022	23:12	-131.665	47.626	0	13.90	0	17.7470	0	32.2460	0	23.227	0	13.783	0	238.0	4	99.4	4	-1E+10	1	-1E+10	1	-1E+10	1	-1E+10	1	-1E+10	1	-1E+10	1
4902549	75	C	09/07/2022	23:12	-131.665	47.626	0	14.80	0	17.7380	0	32.2470	0	23.230	0	14.676	0	238.3	4	99.5	4	-1E+10	1	-1E+10	1	-1E+10	1	-1E+10	1	-1E+10	1	-1E+10	1
4902549	75	C	09/07/2022	23:12	-131.665	47.626	0	16.00	0	17.7320	0	32.2470	0	23.231	0	15.866	0	238.6	4	99.6	4	-1E+10	1	-1E+10	1	-1E+10	1	-1E+10	1	-1E+10	1	-1E+10	1
4902549	75	C	09/07/2022	23:12	-131.665	47.626	0	17.10	0	17.7310	0	32.2470	0	23.231	0	16.956	0	239.0	4	99.8	4	-1E+10	1	-1E+10	1	-1E+10	1	-1E+10	1	-1E+10	1	-1E+10	1
4902549	75	C	09/07/2022	23:12	-131.665	47.626	0	18.00	0	17.7250	0	32.2470	0	23.233	0	17.849	0	239.3	4	99.9	4	-1E+10	1	-1E+10	1	-1E+10	1	-1E+10	1	-1E+10	1	-1E+10	1
4902549	75	C	09/07/2022	23:12	-131.665	47.626	0	18.80	0	17.7200	0	32.2470	0	23.234	0	18.642	0	239.8	4	100.1	4	-1E+10	1	-1E+10	1	-1E+10	1	-1E+10	1	-1E+10	1	-1E+10	1
4902549	75	C	09/07/2022	23:12	-131.665	47.626	0	20.00	0	17.7050	0	32.2450	0	23.236	0	19.832	0	240.7	4	100.4	4	-1E+10	1	-1E+10	1	-1E+10	1	-1E+10	1	-1E+10	1	-1E+10	1
4902549	75	C	09/07/2022	23:12	-131.665	47.626	0	21.10	0	17.4110	0	32.2460	0	23.307	0	20.923	0	247.2	4	102.6	4	-1E+10	1	-1E+10	1	-1E+10	1	-1E+10	1	-1E+10	1	-1E+10	1
4902549	75	C	09/07/2022	23:12	-131.665	47.626	0	21.90	0	17.1460	0	32.2440	0	23.368	0	21.716	0	254.1	4	104.9	4	-1E+10	1	-1E+10	1	-1E+10	1	-1E+10	1	-1E+10	1	-1E+10	1
4902549	75	C	09/07/2022	23:12	-131.665	47.626	0	22.90	0	16.8060	0	32.2490	0	23.451	0	22.707	0	258.0	4	105.8	4	-1E+10	1	-1E+10	1	-1E+10	1	-1E+10	1	-1E+10	1	-1E+10	1
4902549	75	C	09/07/2022	23:12	-131.665	47.626	0	24.10	0	16.1500	0	32.2570	0	23.607	0	23.897	0	262.2	4	106.2	4	-1E+10	1	-1E+10	1	-1E+10	1	-1E+10	1	-1E+10	1	-1E+10	1
4902549	75	C	09/07/2022	23:12	-131.665	47.626	0	24.90	0	16.0070	0	32.2550	0	23.637	0	24.690	0	263.4	4	106.4	4	-1E+10	1	-1E+10	1	-1E+10	1	-1E+10	1	-1E+10	1	-1E+10	1
4902549	75	C	09/07/2022	23:12	-131.665	47.626	0	25.90	0	15.9100	0	32.2530	0	23.657	0	25.682	0	264.7	4	106.7	4	-1E+10	1	-1E+10	1	-1E+10	1	-1E+10	1	-1E+10	1	-1E+10	1
4902549	75	C	09/07/2022	23:12	-131.665	47.626	0	27.00	0	15.7720	0	32.2460	0	23.683	0	26.773	0	266.0	4	106.9	4	-1E+10	1	-1E+10	1	-1E+10	1	-1E+10	1	-1E+10	1	-1E+10	1
4902549	75	C	09/07/2022	23:12	-131.665	47.626	0	28.30	0	14.9540	0	32.2590	0	23.871	0	28.062	0	269.9	4	106.8	4	-1E+10	1	-1E+10	1	-1E+10	1	-1E+10	1	-1E+10	1	-1E+10	1
4902549	75	C	09/07/2022	23:12	-131.665	47.626	0	29.00	0	14.5800	0	32.2420	0	23.938	0	28.756	0	271.7	4	106.7	4	-1E+10	1	-1E+10	1	-1E+10	1	-1E+10	1	-1E+10	1	-1E+10	1
4902549	75	C	09/07/2022	23:12	-131.665	47.626	0	30.10	0	14.3040	0	32.2410	0	23.995	0	29.846	0	272.8	4	106.5	4	-1E+10	1	-1E+10	1	-1E+10	1	-1E+10	1	-1E+10	1	-1E+10	1
4902549	75	C	09/07/2022	23:12	-131.665	47.626	0	31.00	0	13.8440	0	32.2290	0	24.080	0	30.739	0	274.4	4	106.2	4	-1E+10	1	-1E+10	1	-1E+10	1	-1E+10	1	-1E+10	1	-1E+10	1
4902549	75	C	09/07/2022	23:12	-131.665	47.626	0	32.00	0	13.2670	0	32.2220	0	24.191	0	31.730	0	275.4	4	105.3	4	-1E+10	1	-1E+10	1	-1E+10	1	-1E+10	1	-1E+10	1	-1E+10	1
4902549	75	C	09/07/2022	23:12	-131.665	47.626	0	33.10	0	12.8000	0	32.2180	0	24.279	0	32.821	0	276.2	4	104.6	4	-1E+10	1	-1E+10	1	-1E+10	1	-1E+10	1	-1E+10	1	-1E+10	1
4902549	75	C	09/07/2022	23:12	-131.665	47.626	0	33.90	0	12.5740	0	32.2130	0	24.318	0	33.614	0	275.7	4	103.9	4	-1E+10	1	-1E+10	1	-1E+10	1	-1E+10	1	-1E+10	1	-1E+10	1
4902549	75	C	09/07/2022	23:12	-131.665	47.626	0	34.90	0	12.3750	0	32.2080	0	24.353	0	34.605	0	274.9	4	103.2	4	-1E+10	1	-1E+10	1	-1E+10	1	-1E+10	1	-1E+10	1	-1E+10	1
4902549	75	C	09/07/2022	23:12	-131.665	47.626	0	36.00	0	12.0230	0	32.2030	0	24.415	0	35.696	0	273.7	4	102.0	4	-1E+10	1	-1E+10	1	-1E+10	1	-1E+10	1	-1E+10	1	-1E+10	1
4902549	75	C	09/07/2022	23:12	-131.665	47.626	0	37.10	0	11.4380	0	32.1990	0	24.519	0	36.787	0	274.4	4	101.0	4	-1E+10	1	-1E+10	1	-1E+10	1	-1E+10	1	-1E+10	1	-1E+10	1
4902549	75	C	09/07/2022	23:12	-131.665	47.626	0	38.30	0	11.2470	0	32.1940	0	24.549	0	37.976	0	273.5	4	100.3	4	-1E+10	1	-1E+10	1	-1E+10	1	-1E+10	1	-1E+10	1	-1E+10	1
4902549	75	C	09/07/2022	23:12	-131.665	47.626	0	39.00	0	11.0670	0	32.2010	0	24.586	0	38.670	0	273.1	4	99.7	4	-1E+10	1	-1E+10	1	-1E+10	1	-1E+10	1	-1E+10	1	-1E+10	1
4902549	75	C	09/07/2022	23:12	-131.665	47.626	0	40.00	0	10.8690	0	32.2000	0	24.620	0	39.662	0	272.6	4	99.1	4	-1E+10	1	-1E+10	1	-1E+10	1	-1E+10	1	-1E+10	1	-1E+10	1
4902549	75	C	09/07/2022	23:12	-131.665	47.626	0	41.00	0	10.7270	0	32.2010	0	24.645	0	40.653	0	271.8	4	98.5	4	-1E+10	1	-1E+10	1	-1E+10	1	-1E+10	1	-1E+10	1	-1E+10	1
4902549	75	C	09/07/2022	23:12	-131.665	47.626	0	42.00	0	10.5860	0	32.2060	0	24.674	0	41.645	0	271.0	4	98.0	4	-1E+10	1	-1E+10	1	-1E+10	1	-1E+10	1	-1E+10	1	-1E+10	1
4902549	75	C	09/07/2022	23:12	-131.665	47.626	0	43.00	0	10.4220	0	32.2070	0	24.702	0	42.636	0	270.8	4	97.5	4	-1E+10	1	-1E+10	1	-1E+10	1	-1E+10	1	-1E+10	1	-1E+10	1
4902549	75	C	09/07/2022	23:12	-131.665	47.626	0	44.00	0	10.3660	0	32.2060	0	24.711	0	43.628	0	270.0	4	97.2	4	-1E+10	1	-1E+10	1	-1E+10	1	-1E+10	1	-1E+10	1	-1E+10	1
4902549	75	C	09/07/2022	23:12	-131.665	47.626	0	45.20	0	10.2930	0	32.2090	0	24.726	0	44.817	0	268.7	4	96.5	4	-1E+10	1	-1E+10	1	-1E+10	1	-1E+10	1	-1E+10	1	-1E+10	1
4902549	75	C	09/07/2022	23:12	-131.665	47.626	0	46.00	0	10.2400	0	32.2090	0	24.735	0	45.610	0	268.3	4	96.3	4	-1E+10	1	-1E+10	1	-1E+10	1	-1E+10	1	-1E+10	1	-1E+10	1
4902549	75	C	09/07/2022	23:12	-131.665	47.626	0	47.00	0	10.1010	0	32.2110	0	24.759	0	46.602	0	268.2	4	96.0	4	-1E+10	1	-1E+10	1	-1E+10	1	-1E+10	1	-1E+10	1	-1E+10	1
4902549	75	C	09/07/2022	23:12	-131.665	47.626	0	48.00	0	9.9990	0	32.2140	0	24.779	0	47.593	0	268.2	4	95.7	4	-1E+10	1	-1E+10	1	-1E+10	1	-1E+10	1	-1E+10	1	-1E+10	1
4902549	75	C	09/07/2022	23:12	-131.665	47.626	0	49.00	0	9.9550	0	32.2150	0	24.787	0	48.585	0	267.7	4	95.5	4	-1E+10	1	-1E+10	1	-1E+10	1	-1E+10	1	-1E+10	1	-1E+10	1
4902549	75	C	09/07/2022	23:12	-131.665	47.626	0	50.10	0	9.8740	0	32.2180	0	24.802	0	49.675	0	267.0	4	95.1	4	-1E+10	1	-1E+10	1	-1E+10	1	-1E+10	1	-1E+10	1	-1E+10	1
4902549	75	C	09/07/2022	23:12	-131.665	47.626	0	51.00	0	9.7930	0	32.2240	0	24.820	0	50.568	0	266.5	4	94.7	4	-1E+10	1	-1E+10	1	-1E+10	1	-1E+10	1	-1E+10	1	-1E+10	1
4902549	75	C	09/07/2022	23:12	-131.665	47.626	0	52.10	0	9.7220	0	32.2270	0	24.834	0	51.658	0	265.8	4	94.3	4	-1E+10	1	-1E+10	1	-1E+10	1	-1E+10	1	-1E+10	1	-1E+10	1
4902549	75	C	09/07/2022	23:12	-131.665	47.626	0	52.90	0	9.6330	0	32.2320	0	24.853	0	52.451	0	265.3	4	94.0	4	-1E+10	1	-1E+10	1	-1E+10	1	-1E+10	1	-1E+10	1	-1E+10	1
4902549	75	C	09/07/2022	23:12	-131.665	47.626	0	54.10	0	9.5790	0	32.2330	0	24.862	0	53.641	0	264.4	4	93.5	4	-1E+10	1	-1E+10	1	-1E+10	1	-1E+10	1	-1E+10	1	-1E+10	1
4902549	75	C	09/07/2022	23:12	-131.665	47.626	0	55.00	0	9.5320	0	32.2360	0	24.872	0	54.533	0	263.8	4	93.2	4	-1E+10	1	-1E+10	1	-1E+10	1	-1E+10	1	-1E+10	1	-1E+10	1
4902549	75	C	09/07/2022	23:12	-131.665	47.626	0	55.90	0	9.4650	0	32.2400	0	24.886	0	55.425	0	263.3	4	92.9	4	-1E+10	1	-1E+10	1	-1E+10	1	-1E+10	1	-1E+10	1	-1E+10	1
4902549	75	C	09/07/2022	23:12	-131.665	47.626	0	57.10	0	9.4200	0	32.2420	0	24.895	0	56.615	0	262.2	4	92.5	4	-1E+10	1	-1E+10	1	-1E+10	1	-1E+10	1	-1E+10	1	-1E+10	1
4902549	75	C	09/07/2022	23:12	-131.665	47.626	0	58.10	0	9.3930	0	32.2430	0	24.900	0	57.606	0	261.3	4	92.1	4	-1E+10	1	-1E+10	1	-1E+10	1	-1E+10	1	-1E+10	1	-1E+10	1
4902549	75	C	09/07/2022	23:12	-131.665	47.626	0	58.80	0	9.3490	0	32.2460	0	24.909	0	58.300	0	260.8	4	91.8	4	-1E+10	1	-1E+10	1	-1E+10	1	-1E+10	1	-1E+10	1	-1E+10	1
4902549	75	C	09/07/2022	23:12	-131.665	47.626	0	60.00	0	9.2630	0	32.2500	0	24.926	0	59.490	0	259.9	4	91.3	4	-1E+10	1	-1E+10	1	-1E+10	1	-1E+10	1	-1E+10	1	-1E+10	1
4902549	75	C	09/07/2022	23:12	-131.665	47.626	0	61.20	0	9.2140	0	32.2540	0	24.936	0	60.680	0	259.0	4	90.9	4	-1E+10	1	-1E+10	1	-1E+10	1	-1E+10	1	-1E+10	1	-1E+10	1
4902549	75	C	09/07/2022	23:12	-131.665	47.626	0	62.10	0	9.1710	0	32.2570	0	24.946	0	61.572	0	258.4	4	90.6	4	-1E+10	1	-1E+10	1	-1E+10	1	-1E+10	1	-1E+10	1	-1E+10	1
4902549	75	C	09/07/2022	23:12	-131.665	47.626	0	62.80	0	9.1240	0	32.2580	0	24.954	0	62.266	0	258.0	4	90.4	4	-1E+10	1	-1E+10	1	-1E+10	1	-1E+10	1	-1E+10	1	-1E+10	1
4902549	75	C	09/07/2022	23:12	-131.665	47.626	0	63.80	0	9.0880	0	32.2600	0	24.961	0	63.257	0	257.3	4	90.1	4	-1E+10	1	-1E+10	1	-1E+10	1	-1E+10	1	-1E+10	1	-1E+10	1
4902549	75	C	09/07/2022	23:12	-131.665	47.626	0	64.90	0	9.0100	0	32.2690	0	24.980	0	64.347	0	256.8	4	89.7	4	-1E+10	1	-1E+10	1	-1E+10	1	-1E+10	1	-1E+10	1	-1E+10	1
4902549	75	C	09/07/2022	23:12	-131.665	47.626	0	66.00	0	8.8910	0	32.2820	0	25.009	0	65.438	0	256.8	4	89.5	4	-1E+10	1	-1E+10	1	-1E+10	1	-1E+10	1	-1E+10	1	-1E+10	1
4902549	75	C	09/07/2022	23:12	-131.665	47.626	0	67.10	0	8.8450	0	32.2860	0	25.019	0	66.528	0	256.6	4	89.4	4	-1E+10	1	-1E+10	1	-1E+10	1	-1E+10	1	-1E+10	1	-1E+10	1
4902549	75	C	09/07/2022	23:12	-131.665	47.626	0	68.00	0	8.8280	0	32.2890	0	25.024	0	67.421	0	256.4	4	89.3	4	-1E+10	1	-1E+10	1	-1E+10	1	-1E+10	1	-1E+10	1	-1E+10	1
4902549	75	C	09/07/2022	23:12	-131.665	47.626	0	68.80	0	8.8240	0	32.2890	0	25.024	0	68.214	0	255.9	4	89.1	4	-1E+10	1	-1E+10	1	-1E+10	1	-1E+10	1	-1E+10	1	-1E+10	1
4902549	75	C	09/07/2022	23:12	-131.665	47.626	0	70.00	0	8.8140	0	32.2890	0	25.026	0	69.403	0	255.4	4	88.9	4	-1E+10	1	-1E+10	1	-1E+10	1	-1E+10	1	-1E+10	1	-1E+10	1
4902549	75	C	09/07/2022	23:12	-131.665	47.626	0	71.10	0	8.7770	0	32.2940	0	25.035	0	70.494	0	255.0	4	88.7	4	-1E+10	1	-1E+10	1	-1E+10	1	-1E+10	1	-1E+10	1	-1E+10	1
4902549	75	C	09/07/2022	23:12	-131.665	47.626	0	71.90	0	8.7500	0	32.2990	0	25.044	0	71.287	0	254.6	4	88.5	4	-1E+10	1	-1E+10	1	-1E+10	1	-1E+10	1	-1E+10	1	-1E+10	1
4902549	75	C	09/07/2022	23:12	-131.665	47.626	0	72.70	0	8.7330	0	32.3010	0	25.048	0	72.080	0	254.2	4	88.3	4	-1E+10	1	-1E+10	1	-1E+10	1	-1E+10	1	-1E+10	1	-1E+10	1
4902549	75	C	09/07/2022	23:12	-131.665	47.626	0	74.10	0	8.7110	0	32.3050	0	25.054	0	73.468	0	252.8	4	87.8	4	-1E+10	1	-1E+10	1	-1E+10	1	-1E+10	1	-1E+10	1	-1E+10	1
4902549	75	C	09/07/2022	23:12	-131.665	47.626	0	75.00	0	8.6690	0	32.3090	0	25.064	0	74.360	0	251.7	4	87.3	4	-1E+10	1	-1E+10	1	-1E+10	1	-1E+10	1	-1E+10	1	-1E+10	1
4902549	75	C	09/07/2022	23:12	-131.665	47.626	0	76.10	0	8.5750	0	32.3200	0	25.086	0	75.450	0	250.8	4	86.8	4	-1E+10	1	-1E+10	1	-1E+10	1	-1E+10	1	-1E+10	1	-1E+10	1
4902549	75	C	09/07/2022	23:12	-131.665	47.626	0	76.80	0	8.5310	0	32.3280	0	25.099	0	76.144	0	249.9	4	86.4	4	-1E+10	1	-1E+10	1	-1E+10	1	-1E+10	1	-1E+10	1	-1E+10	1
4902549	75	C	09/07/2022	23:12	-131.665	47.626	0	77.80	0	8.4820	0	32.3360	0	25.113	0	77.135	0	248.5	4	85.9	4	-1E+10	1	-1E+10	1	-1E+10	1	-1E+10	1	-1E+10	1	-1E+10	1
4902549	75	C	09/07/2022	23:12	-131.665	47.626	0	78.80	0	8.3910	0	32.3570	0	25.143	0	78.127	0	246.9	4	85.2	4	-1E+10	1	-1E+10	1	-1E+10	1	-1E+10	1	-1E+10	1	-1E+10	1
4902549	75	C	09/07/2022	23:12	-131.665	47.626	0	79.90	0	8.2720	0	32.3740	0	25.174	0	79.217	0	245.5	4	84.5	4	-1E+10	1	-1E+10	1	-1E+10	1	-1E+10	1	-1E+10	1	-1E+10	1
4902549	75	C	09/07/2022	23:12	-131.665	47.626	0	81.10	0	8.1610	0	32.4070	0	25.216	0	80.406	0	241.8	4	83.0	4	-1E+10	1	-1E+10	1	-1E+10	1	-1E+10	1	-1E+10	1	-1E+10	1
4902549	75	C	09/07/2022	23:12	-131.665	47.626	0	82.00	0	8.1210	0	32.4180	0	25.230	0	81.299	0	239.2	4	82.1	4	-1E+10	1	-1E+10	1	-1E+10	1	-1E+10	1	-1E+10	1	-1E+10	1
4902549	75	C	09/07/2022	23:12	-131.665	47.626	0	82.90	0	8.0610	0	32.4380	0	25.255	0	82.191	0	243.4	4	83.4	4	-1E+10	1	-1E+10	1	-1E+10	1	-1E+10	1	-1E+10	1	-1E+10	1
4902549	75	C	09/07/2022	23:12	-131.665	47.626	0	83.80	0	8.0130	0	32.4630	0	25.281	0	83.083	0	241.9	4	82.8	4	-1E+10	1	-1E+10	1	-1E+10	1	-1E+10	1	-1E+10	1	-1E+10	1
4902549	75	C	09/07/2022	23:12	-131.665	47.626	0	84.80	0	7.9890	0	32.4790	0	25.297	0	84.074	0	240.0	4	82.1	4	-1E+10	1	-1E+10	1	-1E+10	1	-1E+10	1	-1E+10	1	-1E+10	1
4902549	75	C	09/07/2022	23:12	-131.665	47.626	0	86.00	0	7.9730	0	32.4910	0	25.309	0	85.263	0	238.1	4	81.4	4	-1E+10	1	-1E+10	1	-1E+10	1	-1E+10	1	-1E+10	1	-1E+10	1
4902549	75	C	09/07/2022	23:12	-131.665	47.626	0	87.00	0	7.9170	0	32.5180	0	25.338	0	86.255	0	236.7	4	80.9	4	-1E+10	1	-1E+10	1	-1E+10	1	-1E+10	1	-1E+10	1	-1E+10	1
4902549	75	C	09/07/2022	23:12	-131.665	47.626	0	88.00	0	7.8570	0	32.5500	0	25.372	0	87.246	0	235.7	4	80.5	4	-1E+10	1	-1E+10	1	-1E+10	1	-1E+10	1	-1E+10	1	-1E+10	1
4902549	75	C	09/07/2022	23:12	-131.665	47.626	0	88.90	0	7.8320	0	32.5650	0	25.388	0	88.138	0	234.5	4	80.0	4	-1E+10	1	-1E+10	1	-1E+10	1	-1E+10	1	-1E+10	1	-1E+10	1
4902549	75	C	09/07/2022	23:12	-131.665	47.626	0	89.90	0	7.8100	0	32.5790	0	25.402	0	89.129	0	233.3	4	79.5	4	-1E+10	1	-1E+10	1	-1E+10	1	-1E+10	1	-1E+10	1	-1E+10	1
4902549	75	C	09/07/2022	23:12	-131.665	47.626	0	91.10	0	7.7900	0	32.5990	0	25.420	0	90.319	0	231.6	4	78.9	4	-1E+10	1	-1E+10	1	-1E+10	1	-1E+10	1	-1E+10	1	-1E+10	1
4902549	75	C	09/07/2022	23:12	-131.665	47.626	0	91.90	0	7.7700	0	32.6200	0	25.440	0	91.112	0	230.4	4	78.5	4	-1E+10	1	-1E+10	1	-1E+10	1	-1E+10	1	-1E+10	1	-1E+10	1
4902549	75	C	09/07/2022	23:12	-131.665	47.626	0	92.90	0	7.7450	0	32.6460	0	25.464	0	92.103	0	229.4	4	78.2	4	-1E+10	1	-1E+10	1	-1E+10	1	-1E+10	1	-1E+10	1	-1E+10	1
4902549	75	C	09/07/2022	23:12	-131.665	47.626	0	93.90	0	7.7270	0	32.6660	0	25.482	0	93.094	0	228.5	4	77.8	4	-1E+10	1	-1E+10	1	-1E+10	1	-1E+10	1	-1E+10	1	-1E+10	1
4902549	75	C	09/07/2022	23:12	-131.665	47.626	0	94.80	0	7.7240	0	32.6720	0	25.487	0	93.986	0	227.5	4	77.5	4	-1E+10	1	-1E+10	1	-1E+10	1	-1E+10	1	-1E+10	1	-1E+10	1
4902549	75	C	09/07/2022	23:12	-131.665	47.626	0	96.10	0	7.7200	0	32.6800	0	25.494	0	95.275	0	226.1	4	77.0	4	-1E+10	1	-1E+10	1	-1E+10	1	-1E+10	1	-1E+10	1	-1E+10	1
4902549	75	C	09/07/2022	23:12	-131.665	47.626	0	97.00	0	7.7160	0	32.6860	0	25.499	0	96.167	0	225.0	4	76.6	4	-1E+10	1	-1E+10	1	-1E+10	1	-1E+10	1	-1E+10	1	-1E+10	1
4902549	75	C	09/07/2022	23:12	-131.665	47.626	0	97.80	0	7.7130	0	32.6910	0	25.504	0	96.960	0	223.9	4	76.2	4	-1E+10	1	-1E+10	1	-1E+10	1	-1E+10	1	-1E+10	1	-1E+10	1
4902549	75	C	09/07/2022	23:12	-131.665	47.626	0	99.10	0	7.7090	0	32.6970	0	25.509	0	98.248	0	221.2	4	75.3	4	-1E+10	1	-1E+10	1	-1E+10	1	-1E+10	1	-1E+10	1	-1E+10	1
4902549	75	C	09/07/2022	23:12	-131.665	47.626	0	100.10	0	7.7010	0	32.7120	0	25.522	0	99.239	0	218.6	4	74.4	4	-1E+10	1	-1E+10	1	-1E+10	1	-1E+10	1	-1E+10	1	-1E+10	1
4902549	75	C	09/07/2022	23:12	-131.665	47.626	0	100.90	0	7.6890	0	32.7380	0	25.544	0	100.032	0	217.0	4	73.9	4	-1E+10	1	-1E+10	1	-1E+10	1	-1E+10	1	-1E+10	1	-1E+10	1
4902549	75	C	09/07/2022	23:12	-131.665	47.626	0	102.00	0	7.6560	0	32.7890	0	25.589	0	101.123	0	215.0	4	73.2	4	-1E+10	1	-1E+10	1	-1E+10	1	-1E+10	1	-1E+10	1	-1E+10	1
4902549	75	C	09/07/2022	23:12	-131.665	47.626	0	103.10	0	7.6370	0	32.8080	0	25.606	0	102.213	0	212.8	4	72.4	4	-1E+10	1	-1E+10	1	-1E+10	1	-1E+10	1	-1E+10	1	-1E+10	1
4902549	75	C	09/07/2022	23:12	-131.665	47.626	0	104.00	0	7.6250	0	32.8300	0	25.625	0	103.105	0	210.9	4	71.7	4	-1E+10	1	-1E+10	1	-1E+10	1	-1E+10	1	-1E+10	1	-1E+10	1
4902549	75	C	09/07/2022	23:12	-131.665	47.626	0	104.90	0	7.6170	0	32.8530	0	25.644	0	103.997	0	209.0	4	71.1	4	-1E+10	1	-1E+10	1	-1E+10	1	-1E+10	1	-1E+10	1	-1E+10	1
4902549	75	C	09/07/2022	23:12	-131.665	47.626	0	105.80	0	7.6040	0	32.8680	0	25.658	0	104.889	0	207.2	4	70.5	4	-1E+10	1	-1E+10	1	-1E+10	1	-1E+10	1	-1E+10	1	-1E+10	1
4902549	75	C	09/07/2022	23:12	-131.665	47.626	0	106.90	0	7.5880	0	32.8990	0	25.685	0	105.979	0	205.5	4	69.9	4	-1E+10	1	-1E+10	1	-1E+10	1	-1E+10	1	-1E+10	1	-1E+10	1
4902549	75	C	09/07/2022	23:12	-131.665	47.626	0	108.10	0	7.5730	0	32.9210	0	25.704	0	107.168	0	203.5	4	69.2	4	-1E+10	1	-1E+10	1	-1E+10	1	-1E+10	1	-1E+10	1	-1E+10	1
4902549	75	C	09/07/2022	23:12	-131.665	47.626	0	108.90	0	7.5700	0	32.9250	0	25.708	0	107.961	0	202.1	4	68.7	4	-1E+10	1	-1E+10	1	-1E+10	1	-1E+10	1	-1E+10	1	-1E+10	1
4902549	75	C	09/07/2022	23:12	-131.665	47.626	0	110.10	0	7.5680	0	32.9270	0	25.710	0	109.151	0	199.4	4	67.8	4	-1E+10	1	-1E+10	1	-1E+10	1	-1E+10	1	-1E+10	1	-1E+10	1
4902549	75	C	09/07/2022	23:12	-131.665	47.626	0	110.70	0	7.5640	0	32.9350	0	25.716	0	109.745	0	198.0	4	67.3	4	-1E+10	1	-1E+10	1	-1E+10	1	-1E+10	1	-1E+10	1	-1E+10	1
4902549	75	C	09/07/2022	23:12	-131.665	47.626	0	112.10	0	7.5440	0	32.9700	0	25.747	0	111.133	0	195.1	4	66.3	4	-1E+10	1	-1E+10	1	-1E+10	1	-1E+10	1	-1E+10	1	-1E+10	1
4902549	75	C	09/07/2022	23:12	-131.665	47.626	0	113.10	0	7.5290	0	32.9940	0	25.768	0	112.124	0	192.8	4	65.5	4	-1E+10	1	-1E+10	1	-1E+10	1	-1E+10	1	-1E+10	1	-1E+10	1
4902549	75	C	09/07/2022	23:12	-131.665	47.626	0	114.10	0	7.5140	0	33.0320	0	25.800	0	113.115	0	190.9	4	64.9	4	-1E+10	1	-1E+10	1	-1E+10	1	-1E+10	1	-1E+10	1	-1E+10	1
4902549	75	C	09/07/2022	23:12	-131.665	47.626	0	114.90	0	7.4990	0	33.0770	0	25.837	0	113.908	0	189.7	4	64.5	4	-1E+10	1	-1E+10	1	-1E+10	1	-1E+10	1	-1E+10	1	-1E+10	1
4902549	75	C	09/07/2022	23:12	-131.665	47.626	0	116.10	0	7.4850	0	33.1190	0	25.872	0	115.097	0	188.3	4	64.0	4	-1E+10	1	-1E+10	1	-1E+10	1	-1E+10	1	-1E+10	1	-1E+10	1
4902549	75	C	09/07/2022	23:12	-131.665	47.626	0	117.00	0	7.4820	0	33.1450	0	25.893	0	115.989	0	187.4	4	63.7	4	-1E+10	1	-1E+10	1	-1E+10	1	-1E+10	1	-1E+10	1	-1E+10	1
4902549	75	C	09/07/2022	23:12	-131.665	47.626	0	117.80	0	7.4810	0	33.1540	0	25.900	0	116.782	0	186.4	4	63.4	4	-1E+10	1	-1E+10	1	-1E+10	1	-1E+10	1	-1E+10	1	-1E+10	1
4902549	75	C	09/07/2022	23:12	-131.665	47.626	0	118.90	0	7.4810	0	33.1600	0	25.905	0	117.872	0	185.1	4	62.9	4	-1E+10	1	-1E+10	1	-1E+10	1	-1E+10	1	-1E+10	1	-1E+10	1
4902549	75	C	09/07/2022	23:12	-131.665	47.626	0	119.90	0	7.4810	0	33.1630	0	25.907	0	118.863	0	183.4	4	62.3	4	-1E+10	1	-1E+10	1	-1E+10	1	-1E+10	1	-1E+10	1	-1E+10	1
4902549	75	C	09/07/2022	23:12	-131.665	47.626	0	121.00	0	7.4780	0	33.1780	0	25.920	0	119.954	0	181.4	4	61.7	4	-1E+10	1	-1E+10	1	-1E+10	1	-1E+10	1	-1E+10	1	-1E+10	1
4902549	75	C	09/07/2022	23:12	-131.665	47.626	0	121.90	0	7.4740	0	33.1930	0	25.932	0	120.846	0	180.1	4	61.2	4	-1E+10	1	-1E+10	1	-1E+10	1	-1E+10	1	-1E+10	1	-1E+10	1
4902549	75	C	09/07/2022	23:12	-131.665	47.626	0	122.80	0	7.4730	0	33.2080	0	25.944	0	121.737	0	178.4	4	60.7	4	-1E+10	1	-1E+10	1	-1E+10	1	-1E+10	1	-1E+10	1	-1E+10	1
4902549	75	C	09/07/2022	23:12	-131.665	47.626	0	123.90	0	7.4680	0	33.2440	0	25.973	0	122.828	0	175.7	4	59.7	4	-1E+10	1	-1E+10	1	-1E+10	1	-1E+10	1	-1E+10	1	-1E+10	1
4902549	75	C	09/07/2022	23:12	-131.665	47.626	0	125.00	0	7.4560	0	33.2910	0	26.012	0	123.918	0	173.3	4	58.9	4	-1E+10	1	-1E+10	1	-1E+10	1	-1E+10	1	-1E+10	1	-1E+10	1
4902549	75	C	09/07/2022	23:12	-131.665	47.626	0	125.90	0	7.4430	0	33.3170	0	26.034	0	124.810	0	172.1	4	58.5	4	-1E+10	1	-1E+10	1	-1E+10	1	-1E+10	1	-1E+10	1	-1E+10	1
4902549	75	C	09/07/2022	23:12	-131.665	47.626	0	126.80	0	7.4350	0	33.3390	0	26.052	0	125.702	0	171.0	4	58.1	4	-1E+10	1	-1E+10	1	-1E+10	1	-1E+10	1	-1E+10	1	-1E+10	1
4902549	75	C	09/07/2022	23:12	-131.665	47.626	0	127.80	0	7.4290	0	33.3530	0	26.064	0	126.693	0	169.8	4	57.7	4	-1E+10	1	-1E+10	1	-1E+10	1	-1E+10	1	-1E+10	1	-1E+10	1
4902549	75	C	09/07/2022	23:12	-131.665	47.626	0	128.80	0	7.4190	0	33.4020	0	26.104	0	127.684	0	168.7	4	57.4	4	-1E+10	1	-1E+10	1	-1E+10	1	-1E+10	1	-1E+10	1	-1E+10	1
4902549	75	C	09/07/2022	23:12	-131.665	47.626	0	129.90	0	7.4130	0	33.4300	0	26.127	0	128.774	0	167.6	4	57.0	4	-1E+10	1	-1E+10	1	-1E+10	1	-1E+10	1	-1E+10	1	-1E+10	1
4902549	75	C	09/07/2022	23:12	-131.665	47.626	0	130.90	0	7.4060	0	33.4390	0	26.135	0	129.765	0	166.8	4	56.7	4	-1E+10	1	-1E+10	1	-1E+10	1	-1E+10	1	-1E+10	1	-1E+10	1
4902549	75	C	09/07/2022	23:12	-131.665	47.626	0	132.10	0	7.3970	0	33.4530	0	26.147	0	130.954	0	166.2	4	56.5	4	-1E+10	1	-1E+10	1	-1E+10	1	-1E+10	1	-1E+10	1	-1E+10	1
4902549	75	C	09/07/2022	23:12	-131.665	47.626	0	132.80	0	7.3920	0	33.4560	0	26.151	0	131.648	0	165.8	4	56.4	4	-1E+10	1	-1E+10	1	-1E+10	1	-1E+10	1	-1E+10	1	-1E+10	1
4902549	75	C	09/07/2022	23:12	-131.665	47.626	0	133.90	0	7.3910	0	33.4750	0	26.166	0	132.738	0	165.0	4	56.1	4	-1E+10	1	-1E+10	1	-1E+10	1	-1E+10	1	-1E+10	1	-1E+10	1
4902549	75	C	09/07/2022	23:12	-131.665	47.626	0	135.00	0	7.3890	0	33.4810	0	26.171	0	133.828	0	164.1	4	55.8	4	-1E+10	1	-1E+10	1	-1E+10	1	-1E+10	1	-1E+10	1	-1E+10	1
4902549	75	C	09/07/2022	23:12	-131.665	47.626	0	135.80	0	7.3920	0	33.4810	0	26.170	0	134.621	0	163.5	4	55.6	4	-1E+10	1	-1E+10	1	-1E+10	1	-1E+10	1	-1E+10	1	-1E+10	1
4902549	75	C	09/07/2022	23:12	-131.665	47.626	0	136.80	0	7.3870	0	33.4900	0	26.178	0	135.612	0	162.4	4	55.2	4	-1E+10	1	-1E+10	1	-1E+10	1	-1E+10	1	-1E+10	1	-1E+10	1
4902549	75	C	09/07/2022	23:12	-131.665	47.626	0	138.00	0	7.3800	0	33.5000	0	26.187	0	136.801	0	161.5	4	54.9	4	-1E+10	1	-1E+10	1	-1E+10	1	-1E+10	1	-1E+10	1	-1E+10	1
4902549	75	C	09/07/2022	23:12	-131.665	47.626	0	138.80	0	7.3750	0	33.5070	0	26.193	0	137.594	0	160.9	4	54.7	4	-1E+10	1	-1E+10	1	-1E+10	1	-1E+10	1	-1E+10	1	-1E+10	1
4902549	75	C	09/07/2022	23:12	-131.665	47.626	0	139.90	0	7.3640	0	33.5250	0	26.209	0	138.684	0	160.2	4	54.4	4	-1E+10	1	-1E+10	1	-1E+10	1	-1E+10	1	-1E+10	1	-1E+10	1
4902549	75	C	09/07/2022	23:12	-131.665	47.626	0	141.10	0	7.3600	0	33.5330	0	26.216	0	139.873	0	159.4	4	54.2	4	-1E+10	1	-1E+10	1	-1E+10	1	-1E+10	1	-1E+10	1	-1E+10	1
4902549	75	C	09/07/2022	23:12	-131.665	47.626	0	141.90	0	7.3570	0	33.5370	0	26.219	0	140.666	0	158.9	4	54.0	4	-1E+10	1	-1E+10	1	-1E+10	1	-1E+10	1	-1E+10	1	-1E+10	1
4902549	75	C	09/07/2022	23:12	-131.665	47.626	0	142.70	0	7.3450	0	33.5570	0	26.237	0	141.458	0	158.6	4	53.9	4	-1E+10	1	-1E+10	1	-1E+10	1	-1E+10	1	-1E+10	1	-1E+10	1
4902549	75	C	09/07/2022	23:12	-131.665	47.626	0	143.90	0	7.3390	0	33.5650	0	26.244	0	142.648	0	158.2	4	53.7	4	-1E+10	1	-1E+10	1	-1E+10	1	-1E+10	1	-1E+10	1	-1E+10	1
4902549	75	C	09/07/2022	23:12	-131.665	47.626	0	145.10	0	7.3270	0	33.5790	0	26.257	0	143.837	0	157.6	4	53.6	4	-1E+10	1	-1E+10	1	-1E+10	1	-1E+10	1	-1E+10	1	-1E+10	1
4902549	75	C	09/07/2022	23:12	-131.665	47.626	0	145.90	0	7.3210	0	33.5860	0	26.263	0	144.630	0	157.2	4	53.4	4	-1E+10	1	-1E+10	1	-1E+10	1	-1E+10	1	-1E+10	1	-1E+10	1
4902549	75	C	09/07/2022	23:12	-131.665	47.626	0	146.80	0	7.3070	0	33.6060	0	26.281	0	145.521	0	156.7	4	53.2	4	-1E+10	1	-1E+10	1	-1E+10	1	-1E+10	1	-1E+10	1	-1E+10	1
4902549	75	C	09/07/2022	23:12	-131.665	47.626	0	147.60	0	7.3020	0	33.6160	0	26.289	0	146.314	0	156.5	4	53.2	4	-1E+10	1	-1E+10	1	-1E+10	1	-1E+10	1	-1E+10	1	-1E+10	1
4902549	75	C	09/07/2022	23:12	-131.665	47.626	0	148.90	0	7.2930	0	33.6280	0	26.300	0	147.602	0	156.2	4	53.1	4	-1E+10	1	-1E+10	1	-1E+10	1	-1E+10	1	-1E+10	1	-1E+10	1
4902549	75	C	09/07/2022	23:12	-131.665	47.626	0	150.30	0	7.2870	0	33.6340	0	26.305	0	148.990	0	156.1	4	53.0	4	-1E+10	1	-1E+10	1	-1E+10	1	-1E+10	1	-1E+10	1	-1E+10	1
4902549	75	C	09/07/2022	23:12	-131.665	47.626	0	151.20	0	7.2850	0	33.6360	0	26.307	0	149.881	0	155.9	4	53.0	4	-1E+10	1	-1E+10	1	-1E+10	1	-1E+10	1	-1E+10	1	-1E+10	1
4902549	75	C	09/07/2022	23:12	-131.665	47.626	0	152.00	0	7.2840	0	33.6350	0	26.307	0	150.674	0	155.8	4	52.9	4	-1E+10	1	-1E+10	1	-1E+10	1	-1E+10	1	-1E+10	1	-1E+10	1
4902549	75	C	09/07/2022	23:12	-131.665	47.626	0	153.00	0	7.2800	0	33.6380	0	26.310	0	151.665	0	155.6	4	52.8	4	-1E+10	1	-1E+10	1	-1E+10	1	-1E+10	1	-1E+10	1	-1E+10	1
4902549	75	C	09/07/2022	23:12	-131.665	47.626	0	153.90	0	7.2670	0	33.6470	0	26.318	0	152.557	0	155.5	4	52.8	4	-1E+10	1	-1E+10	1	-1E+10	1	-1E+10	1	-1E+10	1	-1E+10	1
4902549	75	C	09/07/2022	23:12	-131.665	47.626	0	154.80	0	7.2600	0	33.6550	0	26.326	0	153.449	0	155.2	4	52.7	4	-1E+10	1	-1E+10	1	-1E+10	1	-1E+10	1	-1E+10	1	-1E+10	1
4902549	75	C	09/07/2022	23:12	-131.665	47.626	0	155.80	0	7.2500	0	33.6610	0	26.332	0	154.440	0	154.9	4	52.6	4	-1E+10	1	-1E+10	1	-1E+10	1	-1E+10	1	-1E+10	1	-1E+10	1
4902549	75	C	09/07/2022	23:12	-131.665	47.626	0	156.70	0	7.2390	0	33.6680	0	26.339	0	155.331	0	154.7	4	52.5	4	-1E+10	1	-1E+10	1	-1E+10	1	-1E+10	1	-1E+10	1	-1E+10	1
4902549	75	C	09/07/2022	23:12	-131.665	47.626	0	157.70	0	7.2360	0	33.6710	0	26.342	0	156.322	0	154.5	4	52.4	4	-1E+10	1	-1E+10	1	-1E+10	1	-1E+10	1	-1E+10	1	-1E+10	1
4902549	75	C	09/07/2022	23:12	-131.665	47.626	0	158.60	0	7.2250	0	33.6770	0	26.348	0	157.214	0	154.3	4	52.3	4	-1E+10	1	-1E+10	1	-1E+10	1	-1E+10	1	-1E+10	1	-1E+10	1
4902549	75	C	09/07/2022	23:12	-131.665	47.626	0	159.60	0	7.2210	0	33.6790	0	26.350	0	158.205	0	154.1	4	52.3	4	-1E+10	1	-1E+10	1	-1E+10	1	-1E+10	1	-1E+10	1	-1E+10	1
4902549	75	C	09/07/2022	23:12	-131.665	47.626	0	160.50	0	7.2160	0	33.6800	0	26.352	0	159.097	0	153.8	4	52.2	4	-1E+10	1	-1E+10	1	-1E+10	1	-1E+10	1	-1E+10	1	-1E+10	1
4902549	75	C	09/07/2022	23:12	-131.665	47.626	0	161.50	0	7.1910	0	33.6930	0	26.365	0	160.088	0	153.5	4	52.0	4	-1E+10	1	-1E+10	1	-1E+10	1	-1E+10	1	-1E+10	1	-1E+10	1
4902549	75	C	09/07/2022	23:12	-131.665	47.626	0	162.50	0	7.1620	0	33.7060	0	26.380	0	161.079	0	153.2	4	51.9	4	-1E+10	1	-1E+10	1	-1E+10	1	-1E+10	1	-1E+10	1	-1E+10	1
4902549	75	C	09/07/2022	23:12	-131.665	47.626	0	163.50	0	7.1540	0	33.7100	0	26.384	0	162.069	0	152.8	4	51.7	4	-1E+10	1	-1E+10	1	-1E+10	1	-1E+10	1	-1E+10	1	-1E+10	1
4902549	75	C	09/07/2022	23:12	-131.665	47.626	0	164.50	0	7.1370	0	33.7180	0	26.392	0	163.060	0	152.3	4	51.6	4	-1E+10	1	-1E+10	1	-1E+10	1	-1E+10	1	-1E+10	1	-1E+10	1
4902549	75	C	09/07/2022	23:12	-131.665	47.626	0	165.50	0	7.1340	0	33.7190	0	26.394	0	164.051	0	151.8	4	51.4	4	-1E+10	1	-1E+10	1	-1E+10	1	-1E+10	1	-1E+10	1	-1E+10	1
4902549	75	C	09/07/2022	23:12	-131.665	47.626	0	166.50	0	7.1200	0	33.7260	0	26.401	0	165.042	0	151.3	4	51.2	4	-1E+10	1	-1E+10	1	-1E+10	1	-1E+10	1	-1E+10	1	-1E+10	1
4902549	75	C	09/07/2022	23:12	-131.665	47.626	0	167.50	0	7.1110	0	33.7310	0	26.406	0	166.033	0	150.8	4	51.0	4	-1E+10	1	-1E+10	1	-1E+10	1	-1E+10	1	-1E+10	1	-1E+10	1
4902549	75	C	09/07/2022	23:12	-131.665	47.626	0	168.50	0	7.1030	0	33.7350	0	26.411	0	167.024	0	150.2	4	50.8	4	-1E+10	1	-1E+10	1	-1E+10	1	-1E+10	1	-1E+10	1	-1E+10	1
4902549	75	C	09/07/2022	23:12	-131.665	47.626	0	169.50	0	7.1000	0	33.7370	0	26.413	0	168.014	0	149.6	4	50.6	4	-1E+10	1	-1E+10	1	-1E+10	1	-1E+10	1	-1E+10	1	-1E+10	1
4902549	75	C	09/07/2022	23:12	-131.665	47.626	0	170.50	0	7.0980	0	33.7370	0	26.413	0	169.005	0	148.9	4	50.4	4	-1E+10	1	-1E+10	1	-1E+10	1	-1E+10	1	-1E+10	1	-1E+10	1
4902549	75	C	09/07/2022	23:12	-131.665	47.626	0	171.60	0	7.0960	0	33.7410	0	26.416	0	170.095	0	148.2	4	50.2	4	-1E+10	1	-1E+10	1	-1E+10	1	-1E+10	1	-1E+10	1	-1E+10	1
4902549	75	C	09/07/2022	23:12	-131.665	47.626	0	172.60	0	7.0930	0	33.7430	0	26.418	0	171.086	0	147.5	4	49.9	4	-1E+10	1	-1E+10	1	-1E+10	1	-1E+10	1	-1E+10	1	-1E+10	1
4902549	75	C	09/07/2022	23:12	-131.665	47.626	0	173.60	0	7.0900	0	33.7460	0	26.421	0	172.077	0	146.9	4	49.7	4	-1E+10	1	-1E+10	1	-1E+10	1	-1E+10	1	-1E+10	1	-1E+10	1
4902549	75	C	09/07/2022	23:12	-131.665	47.626	0	174.70	0	7.0780	0	33.7510	0	26.427	0	173.167	0	146.3	4	49.5	4	-1E+10	1	-1E+10	1	-1E+10	1	-1E+10	1	-1E+10	1	-1E+10	1
4902549	75	C	09/07/2022	23:12	-131.665	47.626	0	175.70	0	7.0810	0	33.7530	0	26.428	0	174.157	0	145.8	4	49.3	4	-1E+10	1	-1E+10	1	-1E+10	1	-1E+10	1	-1E+10	1	-1E+10	1
4902549	75	C	09/07/2022	23:12	-131.665	47.626	0	176.70	0	7.0870	0	33.7590	0	26.432	0	175.148	0	145.3	4	49.2	4	-1E+10	1	-1E+10	1	-1E+10	1	-1E+10	1	-1E+10	1	-1E+10	1
4902549	75	C	09/07/2022	23:12	-131.665	47.626	0	177.70	0	7.0780	0	33.7610	0	26.435	0	176.139	0	145.1	4	49.1	4	-1E+10	1	-1E+10	1	-1E+10	1	-1E+10	1	-1E+10	1	-1E+10	1
4902549	75	C	09/07/2022	23:12	-131.665	47.626	0	178.80	0	7.0790	0	33.7670	0	26.439	0	177.229	0	145.0	4	49.1	4	-1E+10	1	-1E+10	1	-1E+10	1	-1E+10	1	-1E+10	1	-1E+10	1
4902549	75	C	09/07/2022	23:12	-131.665	47.626	0	179.80	0	7.0370	0	33.7680	0	26.446	0	178.220	0	144.8	4	49.0	4	-1E+10	1	-1E+10	1	-1E+10	1	-1E+10	1	-1E+10	1	-1E+10	1
4902549	75	C	09/07/2022	23:12	-131.665	47.626	0	180.80	0	7.0230	0	33.7690	0	26.448	0	179.210	0	144.4	4	48.8	4	-1E+10	1	-1E+10	1	-1E+10	1	-1E+10	1	-1E+10	1	-1E+10	1
4902549	75	C	09/07/2022	23:12	-131.665	47.626	0	181.90	0	7.0140	0	33.7720	0	26.452	0	180.300	0	143.8	4	48.6	4	-1E+10	1	-1E+10	1	-1E+10	1	-1E+10	1	-1E+10	1	-1E+10	1
4902549	75	C	09/07/2022	23:12	-131.665	47.626	0	182.90	0	7.0120	0	33.7730	0	26.453	0	181.291	0	143.0	4	48.3	4	-1E+10	1	-1E+10	1	-1E+10	1	-1E+10	1	-1E+10	1	-1E+10	1
4902549	75	C	09/07/2022	23:12	-131.665	47.626	0	184.00	0	7.0100	0	33.7730	0	26.453	0	182.381	0	142.3	4	48.1	4	-1E+10	1	-1E+10	1	-1E+10	1	-1E+10	1	-1E+10	1	-1E+10	1
4902549	75	C	09/07/2022	23:12	-131.665	47.626	0	185.00	0	7.0080	0	33.7750	0	26.455	0	183.372	0	141.6	4	47.8	4	-1E+10	1	-1E+10	1	-1E+10	1	-1E+10	1	-1E+10	1	-1E+10	1
4902549	75	C	09/07/2022	23:12	-131.665	47.626	0	186.00	0	6.9980	0	33.7800	0	26.461	0	184.362	0	140.8	4	47.5	4	-1E+10	1	-1E+10	1	-1E+10	1	-1E+10	1	-1E+10	1	-1E+10	1
4902549	75	C	09/07/2022	23:12	-131.665	47.626	0	187.00	0	6.9930	0	33.7830	0	26.464	0	185.353	0	140.2	4	47.4	4	-1E+10	1	-1E+10	1	-1E+10	1	-1E+10	1	-1E+10	1	-1E+10	1
4902549	75	C	09/07/2022	23:12	-131.665	47.626	0	188.00	0	6.9860	0	33.7850	0	26.466	0	186.344	0	139.6	4	47.2	4	-1E+10	1	-1E+10	1	-1E+10	1	-1E+10	1	-1E+10	1	-1E+10	1
4902549	75	C	09/07/2022	23:12	-131.665	47.626	0	189.10	0	6.9840	0	33.7870	0	26.468	0	187.434	0	139.0	4	46.9	4	-1E+10	1	-1E+10	1	-1E+10	1	-1E+10	1	-1E+10	1	-1E+10	1
4902549	75	C	09/07/2022	23:12	-131.665	47.626	0	190.10	0	6.9800	0	33.7880	0	26.469	0	188.424	0	138.4	4	46.7	4	-1E+10	1	-1E+10	1	-1E+10	1	-1E+10	1	-1E+10	1	-1E+10	1
4902549	75	C	09/07/2022	23:12	-131.665	47.626	0	191.10	0	6.9740	0	33.7880	0	26.470	0	189.415	0	137.7	4	46.5	4	-1E+10	1	-1E+10	1	-1E+10	1	-1E+10	1	-1E+10	1	-1E+10	1
4902549	75	C	09/07/2022	23:12	-131.665	47.626	0	192.10	0	6.9650	0	33.7940	0	26.476	0	190.406	0	137.0	4	46.2	4	-1E+10	1	-1E+10	1	-1E+10	1	-1E+10	1	-1E+10	1	-1E+10	1
4902549	75	C	09/07/2022	23:12	-131.665	47.626	0	193.10	0	6.9530	0	33.7980	0	26.481	0	191.397	0	136.5	4	46.1	4	-1E+10	1	-1E+10	1	-1E+10	1	-1E+10	1	-1E+10	1	-1E+10	1
4902549	75	C	09/07/2022	23:12	-131.665	47.626	0	194.20	0	6.9350	0	33.8010	0	26.486	0	192.486	0	136.1	4	45.9	4	-1E+10	1	-1E+10	1	-1E+10	1	-1E+10	1	-1E+10	1	-1E+10	1
4902549	75	C	09/07/2022	23:12	-131.665	47.626	0	195.20	0	6.9180	0	33.8050	0	26.491	0	193.477	0	135.8	4	45.8	4	-1E+10	1	-1E+10	1	-1E+10	1	-1E+10	1	-1E+10	1	-1E+10	1
4902549	75	C	09/07/2022	23:12	-131.665	47.626	0	196.20	0	6.8830	0	33.8060	0	26.497	0	194.468	0	135.3	4	45.6	4	-1E+10	1	-1E+10	1	-1E+10	1	-1E+10	1	-1E+10	1	-1E+10	1
4902549	75	C	09/07/2022	23:12	-131.665	47.626	0	197.20	0	6.8800	0	33.8090	0	26.500	0	195.459	0	134.8	4	45.4	4	-1E+10	1	-1E+10	1	-1E+10	1	-1E+10	1	-1E+10	1	-1E+10	1
4902549	75	C	09/07/2022	23:12	-131.665	47.626	0	198.30	0	6.8540	0	33.8070	0	26.501	0	196.548	0	133.9	4	45.1	4	-1E+10	1	-1E+10	1	-1E+10	1	-1E+10	1	-1E+10	1	-1E+10	1
4902549	75	C	09/07/2022	23:12	-131.665	47.626	0	199.30	0	6.8450	0	33.8080	0	26.503	0	197.539	0	132.9	4	44.7	4	-1E+10	1	-1E+10	1	-1E+10	1	-1E+10	1	-1E+10	1	-1E+10	1
4902549	75	C	09/07/2022	23:12	-131.665	47.626	0	200.30	0	6.8440	0	33.8090	0	26.504	0	198.530	0	131.9	4	44.4	4	-1E+10	1	-1E+10	1	-1E+10	1	-1E+10	1	-1E+10	1	-1E+10	1
4902549	75	C	09/07/2022	23:12	-131.665	47.626	0	201.30	0	6.8410	0	33.8110	0	26.506	0	199.520	0	130.9	4	44.0	4	-1E+10	1	-1E+10	1	-1E+10	1	-1E+10	1	-1E+10	1	-1E+10	1
4902549	75	C	09/07/2022	23:12	-131.665	47.626	0	202.30	0	6.8260	0	33.8130	0	26.510	0	200.511	0	129.9	4	43.7	4	-1E+10	1	-1E+10	1	-1E+10	1	-1E+10	1	-1E+10	1	-1E+10	1
4902549	75	C	09/07/2022	23:12	-131.665	47.626	0	203.30	0	6.8040	0	33.8180	0	26.517	0	201.502	0	128.9	4	43.3	4	-1E+10	1	-1E+10	1	-1E+10	1	-1E+10	1	-1E+10	1	-1E+10	1
4902549	75	C	09/07/2022	23:12	-131.665	47.626	0	204.40	0	6.7990	0	33.8210	0	26.520	0	202.591	0	127.9	4	43.0	4	-1E+10	1	-1E+10	1	-1E+10	1	-1E+10	1	-1E+10	1	-1E+10	1
4902549	75	C	09/07/2022	23:12	-131.665	47.626	0	205.40	0	6.7990	0	33.8220	0	26.521	0	203.582	0	126.9	4	42.7	4	-1E+10	1	-1E+10	1	-1E+10	1	-1E+10	1	-1E+10	1	-1E+10	1
4902549	75	C	09/07/2022	23:12	-131.665	47.626	0	206.50	0	6.7850	0	33.8290	0	26.528	0	204.672	0	126.0	4	42.4	4	-1E+10	1	-1E+10	1	-1E+10	1	-1E+10	1	-1E+10	1	-1E+10	1
4902549	75	C	09/07/2022	23:12	-131.665	47.626	0	207.50	0	6.7630	0	33.8310	0	26.533	0	205.662	0	125.2	4	42.1	4	-1E+10	1	-1E+10	1	-1E+10	1	-1E+10	1	-1E+10	1	-1E+10	1
4902549	75	C	09/07/2022	23:12	-131.665	47.626	0	208.50	0	6.7420	0	33.8300	0	26.535	0	206.653	0	124.1	4	41.7	4	-1E+10	1	-1E+10	1	-1E+10	1	-1E+10	1	-1E+10	1	-1E+10	1
4902549	75	C	09/07/2022	23:12	-131.665	47.626	0	209.60	0	6.7340	0	33.8310	0	26.537	0	207.743	0	122.9	4	41.3	4	-1E+10	1	-1E+10	1	-1E+10	1	-1E+10	1	-1E+10	1	-1E+10	1
4902549	75	C	09/07/2022	23:12	-131.665	47.626	0	210.60	0	6.7260	0	33.8360	0	26.542	0	208.733	0	122.0	4	41.0	4	-1E+10	1	-1E+10	1	-1E+10	1	-1E+10	1	-1E+10	1	-1E+10	1
4902549	75	C	09/07/2022	23:12	-131.665	47.626	0	211.60	0	6.7220	0	33.8390	0	26.545	0	209.724	0	121.2	4	40.7	4	-1E+10	1	-1E+10	1	-1E+10	1	-1E+10	1	-1E+10	1	-1E+10	1
4902549	75	C	09/07/2022	23:12	-131.665	47.626	0	212.70	0	6.7170	0	33.8450	0	26.550	0	210.814	0	120.5	4	40.5	4	-1E+10	1	-1E+10	1	-1E+10	1	-1E+10	1	-1E+10	1	-1E+10	1
4902549	75	C	09/07/2022	23:12	-131.665	47.626	0	213.70	0	6.7070	0	33.8470	0	26.553	0	211.804	0	120.0	4	40.3	4	-1E+10	1	-1E+10	1	-1E+10	1	-1E+10	1	-1E+10	1	-1E+10	1
4902549	75	C	09/07/2022	23:12	-131.665	47.626	0	214.70	0	6.7030	0	33.8480	0	26.554	0	212.795	0	119.5	4	40.1	4	-1E+10	1	-1E+10	1	-1E+10	1	-1E+10	1	-1E+10	1	-1E+10	1
4902549	75	C	09/07/2022	23:12	-131.665	47.626	0	215.80	0	6.6970	0	33.8490	0	26.556	0	213.885	0	118.9	4	39.9	4	-1E+10	1	-1E+10	1	-1E+10	1	-1E+10	1	-1E+10	1	-1E+10	1
4902549	75	C	09/07/2022	23:12	-131.665	47.626	0	216.80	0	6.6890	0	33.8490	0	26.557	0	214.875	0	118.3	4	39.7	4	-1E+10	1	-1E+10	1	-1E+10	1	-1E+10	1	-1E+10	1	-1E+10	1
4902549	75	C	09/07/2022	23:12	-131.665	47.626	0	217.90	0	6.6880	0	33.8490	0	26.557	0	215.965	0	117.5	4	39.4	4	-1E+10	1	-1E+10	1	-1E+10	1	-1E+10	1	-1E+10	1	-1E+10	1
4902549	75	C	09/07/2022	23:12	-131.665	47.626	0	218.90	0	6.6740	0	33.8510	0	26.560	0	216.956	0	116.7	4	39.1	4	-1E+10	1	-1E+10	1	-1E+10	1	-1E+10	1	-1E+10	1	-1E+10	1
4902549	75	C	09/07/2022	23:12	-131.665	47.626	0	219.90	0	6.6470	0	33.8530	0	26.566	0	217.946	0	116.0	4	38.9	4	-1E+10	1	-1E+10	1	-1E+10	1	-1E+10	1	-1E+10	1	-1E+10	1
4902549	75	C	09/07/2022	23:12	-131.665	47.626	0	221.00	0	6.6350	0	33.8540	0	26.568	0	219.036	0	115.1	4	38.6	4	-1E+10	1	-1E+10	1	-1E+10	1	-1E+10	1	-1E+10	1	-1E+10	1
4902549	75	C	09/07/2022	23:12	-131.665	47.626	0	222.00	0	6.6210	0	33.8560	0	26.571	0	220.026	0	114.4	4	38.3	4	-1E+10	1	-1E+10	1	-1E+10	1	-1E+10	1	-1E+10	1	-1E+10	1
4902549	75	C	09/07/2022	23:12	-131.665	47.626	0	223.10	0	6.5950	0	33.8630	0	26.580	0	221.116	0	113.9	4	38.1	4	-1E+10	1	-1E+10	1	-1E+10	1	-1E+10	1	-1E+10	1	-1E+10	1
4902549	75	C	09/07/2022	23:12	-131.665	47.626	0	224.20	0	6.5720	0	33.8610	0	26.582	0	222.206	0	113.2	4	37.9	4	-1E+10	1	-1E+10	1	-1E+10	1	-1E+10	1	-1E+10	1	-1E+10	1
4902549	75	C	09/07/2022	23:12	-131.665	47.626	0	225.20	0	6.5710	0	33.8650	0	26.585	0	223.196	0	112.7	4	37.7	4	-1E+10	1	-1E+10	1	-1E+10	1	-1E+10	1	-1E+10	1	-1E+10	1
4902549	75	C	09/07/2022	23:12	-131.665	47.626	0	226.30	0	6.5720	0	33.8670	0	26.587	0	224.286	0	112.3	4	37.6	4	-1E+10	1	-1E+10	1	-1E+10	1	-1E+10	1	-1E+10	1	-1E+10	1
4902549	75	C	09/07/2022	23:12	-131.665	47.626	0	227.30	0	6.5560	0	33.8700	0	26.591	0	225.276	0	111.9	4	37.4	4	-1E+10	1	-1E+10	1	-1E+10	1	-1E+10	1	-1E+10	1	-1E+10	1
4902549	75	C	09/07/2022	23:12	-131.665	47.626	0	228.40	0	6.5320	0	33.8690	0	26.593	0	226.366	0	111.6	4	37.3	4	-1E+10	1	-1E+10	1	-1E+10	1	-1E+10	1	-1E+10	1	-1E+10	1
4902549	75	C	09/07/2022	23:12	-131.665	47.626	0	229.40	0	6.5270	0	33.8680	0	26.593	0	227.356	0	111.1	4	37.1	4	-1E+10	1	-1E+10	1	-1E+10	1	-1E+10	1	-1E+10	1	-1E+10	1
4902549	75	C	09/07/2022	23:12	-131.665	47.626	0	230.50	0	6.5240	0	33.8680	0	26.594	0	228.446	0	110.6	4	37.0	4	-1E+10	1	-1E+10	1	-1E+10	1	-1E+10	1	-1E+10	1	-1E+10	1
4902549	75	C	09/07/2022	23:12	-131.665	47.626	0	231.50	0	6.5040	0	33.8700	0	26.598	0	229.437	0	110.2	4	36.8	4	-1E+10	1	-1E+10	1	-1E+10	1	-1E+10	1	-1E+10	1	-1E+10	1
4902549	75	C	09/07/2022	23:12	-131.665	47.626	0	232.60	0	6.5110	0	33.8720	0	26.599	0	230.526	0	109.8	4	36.7	4	-1E+10	1	-1E+10	1	-1E+10	1	-1E+10	1	-1E+10	1	-1E+10	1
4902549	75	C	09/07/2022	23:12	-131.665	47.626	0	233.60	0	6.5070	0	33.8750	0	26.602	0	231.517	0	109.5	4	36.6	4	-1E+10	1	-1E+10	1	-1E+10	1	-1E+10	1	-1E+10	1	-1E+10	1
4902549	75	C	09/07/2022	23:12	-131.665	47.626	0	234.60	0	6.4970	0	33.8740	0	26.602	0	232.507	0	109.2	4	36.5	4	-1E+10	1	-1E+10	1	-1E+10	1	-1E+10	1	-1E+10	1	-1E+10	1
4902549	75	C	09/07/2022	23:12	-131.665	47.626	0	235.70	0	6.4700	0	33.8730	0	26.605	0	233.597	0	108.7	4	36.3	4	-1E+10	1	-1E+10	1	-1E+10	1	-1E+10	1	-1E+10	1	-1E+10	1
4902549	75	C	09/07/2022	23:12	-131.665	47.626	0	236.90	0	6.4440	0	33.8730	0	26.608	0	234.785	0	108.2	4	36.1	4	-1E+10	1	-1E+10	1	-1E+10	1	-1E+10	1	-1E+10	1	-1E+10	1
4902549	75	C	09/07/2022	23:12	-131.665	47.626	0	238.00	0	6.4340	0	33.8750	0	26.611	0	235.875	0	107.6	4	35.9	4	-1E+10	1	-1E+10	1	-1E+10	1	-1E+10	1	-1E+10	1	-1E+10	1
4902549	75	C	09/07/2022	23:12	-131.665	47.626	0	238.80	0	6.4320	0	33.8740	0	26.611	0	236.667	0	107.2	4	35.8	4	-1E+10	1	-1E+10	1	-1E+10	1	-1E+10	1	-1E+10	1	-1E+10	1
4902549	75	C	09/07/2022	23:12	-131.665	47.626	0	240.00	0	6.4060	0	33.8780	0	26.617	0	237.856	0	106.7	4	35.6	4	-1E+10	1	-1E+10	1	-1E+10	1	-1E+10	1	-1E+10	1	-1E+10	1
4902549	75	C	09/07/2022	23:12	-131.665	47.626	0	241.20	0	6.3900	0	33.8780	0	26.619	0	239.045	0	106.2	4	35.4	4	-1E+10	1	-1E+10	1	-1E+10	1	-1E+10	1	-1E+10	1	-1E+10	1
4902549	75	C	09/07/2022	23:12	-131.665	47.626	0	242.10	0	6.3830	0	33.8780	0	26.620	0	239.936	0	105.9	4	35.3	4	-1E+10	1	-1E+10	1	-1E+10	1	-1E+10	1	-1E+10	1	-1E+10	1
4902549	75	C	09/07/2022	23:12	-131.665	47.626	0	242.90	0	6.3680	0	33.8780	0	26.622	0	240.728	0	105.6	4	35.2	4	-1E+10	1	-1E+10	1	-1E+10	1	-1E+10	1	-1E+10	1	-1E+10	1
4902549	75	C	09/07/2022	23:12	-131.665	47.626	0	243.70	0	6.3590	0	33.8790	0	26.624	0	241.521	0	105.3	4	35.1	4	-1E+10	1	-1E+10	1	-1E+10	1	-1E+10	1	-1E+10	1	-1E+10	1
4902549	75	C	09/07/2022	23:12	-131.665	47.626	0	244.80	0	6.3530	0	33.8790	0	26.625	0	242.610	0	104.8	4	34.9	4	-1E+10	1	-1E+10	1	-1E+10	1	-1E+10	1	-1E+10	1	-1E+10	1
4902549	75	C	09/07/2022	23:12	-131.665	47.626	0	246.10	0	6.3370	0	33.8800	0	26.628	0	243.898	0	104.4	4	34.7	4	-1E+10	1	-1E+10	1	-1E+10	1	-1E+10	1	-1E+10	1	-1E+10	1
4902549	75	C	09/07/2022	23:12	-131.665	47.626	0	246.90	0	6.3040	0	33.8790	0	26.631	0	244.690	0	104.2	4	34.7	4	-1E+10	1	-1E+10	1	-1E+10	1	-1E+10	1	-1E+10	1	-1E+10	1
4902549	75	C	09/07/2022	23:12	-131.665	47.626	0	247.70	0	6.2990	0	33.8790	0	26.632	0	245.483	0	104.0	4	34.6	4	-1E+10	1	-1E+10	1	-1E+10	1	-1E+10	1	-1E+10	1	-1E+10	1
4902549	75	C	09/07/2022	23:12	-131.665	47.626	0	248.90	0	6.2820	0	33.8810	0	26.636	0	246.671	0	103.5	4	34.4	4	-1E+10	1	-1E+10	1	-1E+10	1	-1E+10	1	-1E+10	1	-1E+10	1
4902549	75	C	09/07/2022	23:12	-131.665	47.626	0	250.10	0	6.2630	0	33.8790	0	26.636	0	247.860	0	103.0	4	34.2	4	-1E+10	1	-1E+10	1	-1E+10	1	-1E+10	1	-1E+10	1	-1E+10	1
4902549	75	C	09/07/2022	23:12	-131.665	47.626	0	250.90	0	6.2560	0	33.8800	0	26.638	0	248.652	0	102.6	4	34.1	4	-1E+10	1	-1E+10	1	-1E+10	1	-1E+10	1	-1E+10	1	-1E+10	1
4902549	75	C	09/07/2022	23:12	-131.665	47.626	0	251.70	0	6.2490	0	33.8790	0	26.638	0	249.444	0	102.1	4	33.9	4	-1E+10	1	-1E+10	1	-1E+10	1	-1E+10	1	-1E+10	1	-1E+10	1
4902549	75	C	09/07/2022	23:12	-131.665	47.626	0	252.90	0	6.2480	0	33.8800	0	26.639	0	250.633	0	101.3	4	33.6	4	-1E+10	1	-1E+10	1	-1E+10	1	-1E+10	1	-1E+10	1	-1E+10	1
4902549	75	C	09/07/2022	23:12	-131.665	47.626	0	254.10	0	6.2500	0	33.8840	0	26.642	0	251.821	0	100.5	4	33.4	4	-1E+10	1	-1E+10	1	-1E+10	1	-1E+10	1	-1E+10	1	-1E+10	1
4902549	75	C	09/07/2022	23:12	-131.665	47.626	0	254.90	0	6.2500	0	33.8820	0	26.641	0	252.614	0	99.9	4	33.2	4	-1E+10	1	-1E+10	1	-1E+10	1	-1E+10	1	-1E+10	1	-1E+10	1
4902549	75	C	09/07/2022	23:12	-131.665	47.626	0	255.70	0	6.2550	0	33.8850	0	26.642	0	253.406	0	99.5	4	33.0	4	-1E+10	1	-1E+10	1	-1E+10	1	-1E+10	1	-1E+10	1	-1E+10	1
4902549	75	C	09/07/2022	23:12	-131.665	47.626	0	256.90	0	6.2580	0	33.8870	0	26.643	0	254.595	0	98.8	4	32.8	4	-1E+10	1	-1E+10	1	-1E+10	1	-1E+10	1	-1E+10	1	-1E+10	1
4902549	75	C	09/07/2022	23:12	-131.665	47.626	0	258.10	0	6.2500	0	33.8880	0	26.645	0	255.783	0	98.1	4	32.6	4	-1E+10	1	-1E+10	1	-1E+10	1	-1E+10	1	-1E+10	1	-1E+10	1
4902549	75	C	09/07/2022	23:12	-131.665	47.626	0	259.00	0	6.2260	0	33.8920	0	26.652	0	256.674	0	97.8	4	32.5	4	-1E+10	1	-1E+10	1	-1E+10	1	-1E+10	1	-1E+10	1	-1E+10	1
4902549	75	C	09/07/2022	23:12	-131.665	47.626	0	259.80	0	6.2110	0	33.8910	0	26.653	0	257.467	0	97.6	4	32.4	4	-1E+10	1	-1E+10	1	-1E+10	1	-1E+10	1	-1E+10	1	-1E+10	1
4902549	75	C	09/07/2022	23:12	-131.665	47.626	0	261.00	0	6.2040	0	33.8920	0	26.654	0	258.655	0	97.2	4	32.3	4	-1E+10	1	-1E+10	1	-1E+10	1	-1E+10	1	-1E+10	1	-1E+10	1
4902549	75	C	09/07/2022	23:12	-131.665	47.626	0	262.20	0	6.2040	0	33.8920	0	26.654	0	259.844	0	96.7	4	32.1	4	-1E+10	1	-1E+10	1	-1E+10	1	-1E+10	1	-1E+10	1	-1E+10	1
4902549	75	C	09/07/2022	23:12	-131.665	47.626	0	263.00	0	6.1990	0	33.8930	0	26.656	0	260.636	0	96.4	4	32.0	4	-1E+10	1	-1E+10	1	-1E+10	1	-1E+10	1	-1E+10	1	-1E+10	1
4902549	75	C	09/07/2022	23:12	-131.665	47.626	0	263.90	0	6.1790	0	33.8940	0	26.659	0	261.527	0	96.1	4	31.9	4	-1E+10	1	-1E+10	1	-1E+10	1	-1E+10	1	-1E+10	1	-1E+10	1
4902549	75	C	09/07/2022	23:12	-131.665	47.626	0	264.70	0	6.1680	0	33.8940	0	26.661	0	262.320	0	95.9	4	31.8	4	-1E+10	1	-1E+10	1	-1E+10	1	-1E+10	1	-1E+10	1	-1E+10	1
4902549	75	C	09/07/2022	23:12	-131.665	47.626	0	265.90	0	6.1650	0	33.8950	0	26.662	0	263.508	0	95.4	4	31.6	4	-1E+10	1	-1E+10	1	-1E+10	1	-1E+10	1	-1E+10	1	-1E+10	1
4902549	75	C	09/07/2022	23:12	-131.665	47.626	0	267.20	0	6.1600	0	33.8940	0	26.662	0	264.796	0	94.9	4	31.5	4	-1E+10	1	-1E+10	1	-1E+10	1	-1E+10	1	-1E+10	1	-1E+10	1
4902549	75	C	09/07/2022	23:12	-131.665	47.626	0	268.00	0	6.1570	0	33.8940	0	26.662	0	265.588	0	94.5	4	31.3	4	-1E+10	1	-1E+10	1	-1E+10	1	-1E+10	1	-1E+10	1	-1E+10	1
4902549	75	C	09/07/2022	23:12	-131.665	47.626	0	268.80	0	6.1530	0	33.8940	0	26.662	0	266.380	0	94.1	4	31.2	4	-1E+10	1	-1E+10	1	-1E+10	1	-1E+10	1	-1E+10	1	-1E+10	1
4902549	75	C	09/07/2022	23:12	-131.665	47.626	0	269.70	0	6.1190	0	33.8920	0	26.665	0	267.272	0	93.8	4	31.1	4	-1E+10	1	-1E+10	1	-1E+10	1	-1E+10	1	-1E+10	1	-1E+10	1
4902549	75	C	09/07/2022	23:12	-131.665	47.626	0	270.60	0	6.0990	0	33.8960	0	26.671	0	268.163	0	93.7	4	31.0	4	-1E+10	1	-1E+10	1	-1E+10	1	-1E+10	1	-1E+10	1	-1E+10	1
4902549	75	C	09/07/2022	23:12	-131.665	47.626	0	271.90	0	6.0930	0	33.8990	0	26.674	0	269.450	0	93.3	4	30.9	4	-1E+10	1	-1E+10	1	-1E+10	1	-1E+10	1	-1E+10	1	-1E+10	1
4902549	75	C	09/07/2022	23:12	-131.665	47.626	0	273.20	0	6.0910	0	33.9000	0	26.675	0	270.738	0	93.0	4	30.8	4	-1E+10	1	-1E+10	1	-1E+10	1	-1E+10	1	-1E+10	1	-1E+10	1
4902549	75	C	09/07/2022	23:12	-131.665	47.626	0	274.00	0	6.0910	0	33.9000	0	26.675	0	271.530	0	92.8	4	30.7	4	-1E+10	1	-1E+10	1	-1E+10	1	-1E+10	1	-1E+10	1	-1E+10	1
4902549	75	C	09/07/2022	23:12	-131.665	47.626	0	274.90	0	6.0880	0	33.9000	0	26.675	0	272.421	0	92.6	4	30.7	4	-1E+10	1	-1E+10	1	-1E+10	1	-1E+10	1	-1E+10	1	-1E+10	1
4902549	75	C	09/07/2022	23:12	-131.665	47.626	0	275.80	0	6.0830	0	33.9000	0	26.676	0	273.313	0	92.5	4	30.6	4	-1E+10	1	-1E+10	1	-1E+10	1	-1E+10	1	-1E+10	1	-1E+10	1
4902549	75	C	09/07/2022	23:12	-131.665	47.626	0	276.60	0	6.0760	0	33.9020	0	26.679	0	274.105	0	92.3	4	30.6	4	-1E+10	1	-1E+10	1	-1E+10	1	-1E+10	1	-1E+10	1	-1E+10	1
4902549	75	C	09/07/2022	23:12	-131.665	47.626	0	277.90	0	6.0430	0	33.9010	0	26.682	0	275.392	0	92.0	4	30.4	4	-1E+10	1	-1E+10	1	-1E+10	1	-1E+10	1	-1E+10	1	-1E+10	1
4902549	75	C	09/07/2022	23:12	-131.665	47.626	0	279.20	0	6.0210	0	33.8990	0	26.683	0	276.680	0	91.7	4	30.3	4	-1E+10	1	-1E+10	1	-1E+10	1	-1E+10	1	-1E+10	1	-1E+10	1
4902549	75	C	09/07/2022	23:12	-131.665	47.626	0	280.10	0	6.0200	0	33.8990	0	26.683	0	277.571	0	91.4	4	30.2	4	-1E+10	1	-1E+10	1	-1E+10	1	-1E+10	1	-1E+10	1	-1E+10	1
4902549	75	C	09/07/2022	23:12	-131.665	47.626	0	281.00	0	6.0170	0	33.8990	0	26.684	0	278.462	0	91.1	4	30.1	4	-1E+10	1	-1E+10	1	-1E+10	1	-1E+10	1	-1E+10	1	-1E+10	1
4902549	75	C	09/07/2022	23:12	-131.665	47.626	0	281.80	0	6.0110	0	33.8990	0	26.684	0	279.254	0	90.7	4	30.0	4	-1E+10	1	-1E+10	1	-1E+10	1	-1E+10	1	-1E+10	1	-1E+10	1
4902549	75	C	09/07/2022	23:12	-131.665	47.626	0	282.70	0	5.9990	0	33.9000	0	26.687	0	280.146	0	90.3	4	29.8	4	-1E+10	1	-1E+10	1	-1E+10	1	-1E+10	1	-1E+10	1	-1E+10	1
4902549	75	C	09/07/2022	23:12	-131.665	47.626	0	283.60	0	5.9980	0	33.8990	0	26.686	0	281.037	0	89.9	4	29.7	4	-1E+10	1	-1E+10	1	-1E+10	1	-1E+10	1	-1E+10	1	-1E+10	1
4902549	75	C	09/07/2022	23:12	-131.665	47.626	0	284.90	0	5.9970	0	33.8990	0	26.686	0	282.324	0	89.2	4	29.4	4	-1E+10	1	-1E+10	1	-1E+10	1	-1E+10	1	-1E+10	1	-1E+10	1
4902549	75	C	09/07/2022	23:12	-131.665	47.626	0	286.20	0	5.9980	0	33.9030	0	26.689	0	283.612	0	88.5	4	29.2	4	-1E+10	1	-1E+10	1	-1E+10	1	-1E+10	1	-1E+10	1	-1E+10	1
4902549	75	C	09/07/2022	23:12	-131.665	47.626	0	287.10	0	5.9870	0	33.9070	0	26.694	0	284.503	0	88.1	4	29.1	4	-1E+10	1	-1E+10	1	-1E+10	1	-1E+10	1	-1E+10	1	-1E+10	1
4902549	75	C	09/07/2022	23:12	-131.665	47.626	0	288.10	0	5.9870	0	33.9060	0	26.693	0	285.493	0	87.9	4	29.0	4	-1E+10	1	-1E+10	1	-1E+10	1	-1E+10	1	-1E+10	1	-1E+10	1
4902549	75	C	09/07/2022	23:12	-131.665	47.626	0	288.90	0	5.9810	0	33.9090	0	26.696	0	286.285	0	87.7	4	29.0	4	-1E+10	1	-1E+10	1	-1E+10	1	-1E+10	1	-1E+10	1	-1E+10	1
4902549	75	C	09/07/2022	23:12	-131.665	47.626	0	289.90	0	5.9740	0	33.9090	0	26.697	0	287.276	0	87.5	4	28.9	4	-1E+10	1	-1E+10	1	-1E+10	1	-1E+10	1	-1E+10	1	-1E+10	1
4902549	75	C	09/07/2022	23:12	-131.665	47.626	0	290.70	0	5.9680	0	33.9080	0	26.697	0	288.068	0	87.2	4	28.8	4	-1E+10	1	-1E+10	1	-1E+10	1	-1E+10	1	-1E+10	1	-1E+10	1
4902549	75	C	09/07/2022	23:12	-131.665	47.626	0	291.70	0	5.9650	0	33.9080	0	26.697	0	289.058	0	87.0	4	28.7	4	-1E+10	1	-1E+10	1	-1E+10	1	-1E+10	1	-1E+10	1	-1E+10	1
4902549	75	C	09/07/2022	23:12	-131.665	47.626	0	292.90	0	5.9500	0	33.9070	0	26.698	0	290.246	0	86.5	4	28.5	4	-1E+10	1	-1E+10	1	-1E+10	1	-1E+10	1	-1E+10	1	-1E+10	1
4902549	75	C	09/07/2022	23:12	-131.665	47.626	0	294.40	0	5.9440	0	33.9090	0	26.701	0	291.732	0	85.9	4	28.3	4	-1E+10	1	-1E+10	1	-1E+10	1	-1E+10	1	-1E+10	1	-1E+10	1
4902549	75	C	09/07/2022	23:12	-131.665	47.626	0	295.30	0	5.9350	0	33.9080	0	26.701	0	292.623	0	85.6	4	28.2	4	-1E+10	1	-1E+10	1	-1E+10	1	-1E+10	1	-1E+10	1	-1E+10	1
4902549	75	C	09/07/2022	23:12	-131.665	47.626	0	296.20	0	5.9290	0	33.9090	0	26.703	0	293.514	0	85.2	4	28.1	4	-1E+10	1	-1E+10	1	-1E+10	1	-1E+10	1	-1E+10	1	-1E+10	1
4902549	75	C	09/07/2022	23:12	-131.665	47.626	0	297.10	0	5.9220	0	33.9100	0	26.704	0	294.405	0	84.8	4	28.0	4	-1E+10	1	-1E+10	1	-1E+10	1	-1E+10	1	-1E+10	1	-1E+10	1
4902549	75	C	09/07/2022	23:12	-131.665	47.626	0	298.00	0	5.9080	0	33.9100	0	26.706	0	295.296	0	84.5	4	27.8	4	-1E+10	1	-1E+10	1	-1E+10	1	-1E+10	1	-1E+10	1	-1E+10	1
4902549	75	C	09/07/2022	23:12	-131.665	47.626	0	298.90	0	5.8990	0	33.9100	0	26.707	0	296.188	0	84.1	4	27.7	4	-1E+10	1	-1E+10	1	-1E+10	1	-1E+10	1	-1E+10	1	-1E+10	1
4902549	75	C	09/07/2022	23:12	-131.665	47.626	0	299.80	0	5.8870	0	33.9100	0	26.709	0	297.079	0	83.7	4	27.6	4	-1E+10	1	-1E+10	1	-1E+10	1	-1E+10	1	-1E+10	1	-1E+10	1
4902549	75	C	09/07/2022	23:12	-131.665	47.626	0	300.80	0	5.8770	0	33.9100	0	26.710	0	298.069	0	83.3	4	27.4	4	-1E+10	1	-1E+10	1	-1E+10	1	-1E+10	1	-1E+10	1	-1E+10	1
4902549	75	C	09/07/2022	23:12	-131.665	47.626	0	301.70	0	5.8730	0	33.9110	0	26.711	0	298.960	0	82.8	4	27.3	4	-1E+10	1	-1E+10	1	-1E+10	1	-1E+10	1	-1E+10	1	-1E+10	1
4902549	75	C	09/07/2022	23:12	-131.665	47.626	0	302.60	0	5.8580	0	33.9130	0	26.715	0	299.851	0	82.4	4	27.1	4	-1E+10	1	-1E+10	1	-1E+10	1	-1E+10	1	-1E+10	1	-1E+10	1
4902549	75	C	09/07/2022	23:12	-131.665	47.626	0	303.60	0	5.8520	0	33.9120	0	26.715	0	300.842	0	81.9	4	27.0	4	-1E+10	1	-1E+10	1	-1E+10	1	-1E+10	1	-1E+10	1	-1E+10	1
4902549	75	C	09/07/2022	23:12	-131.665	47.626	0	304.90	0	5.8330	0	33.9130	0	26.718	0	302.129	0	81.3	4	26.8	4	-1E+10	1	-1E+10	1	-1E+10	1	-1E+10	1	-1E+10	1	-1E+10	1
4902549	75	C	09/07/2022	23:12	-131.665	47.626	0	306.30	0	5.8110	0	33.9150	0	26.722	0	303.515	0	80.7	4	26.5	4	-1E+10	1	-1E+10	1	-1E+10	1	-1E+10	1	-1E+10	1	-1E+10	1
4902549	75	C	09/07/2022	23:12	-131.665	47.626	0	307.30	0	5.8050	0	33.9150	0	26.723	0	304.505	0	80.2	4	26.4	4	-1E+10	1	-1E+10	1	-1E+10	1	-1E+10	1	-1E+10	1	-1E+10	1
4902549	75	C	09/07/2022	23:12	-131.665	47.626	0	308.20	0	5.8020	0	33.9150	0	26.723	0	305.396	0	79.7	4	26.2	4	-1E+10	1	-1E+10	1	-1E+10	1	-1E+10	1	-1E+10	1	-1E+10	1
4902549	75	C	09/07/2022	23:12	-131.665	47.626	0	309.10	0	5.7920	0	33.9150	0	26.724	0	306.288	0	79.3	4	26.1	4	-1E+10	1	-1E+10	1	-1E+10	1	-1E+10	1	-1E+10	1	-1E+10	1
4902549	75	C	09/07/2022	23:12	-131.665	47.626	0	310.10	0	5.7780	0	33.9190	0	26.729	0	307.278	0	78.9	4	25.9	4	-1E+10	1	-1E+10	1	-1E+10	1	-1E+10	1	-1E+10	1	-1E+10	1
4902549	75	C	09/07/2022	23:12	-131.665	47.626	0	311.00	0	5.7770	0	33.9190	0	26.730	0	308.169	0	78.6	4	25.8	4	-1E+10	1	-1E+10	1	-1E+10	1	-1E+10	1	-1E+10	1	-1E+10	1
4902549	75	C	09/07/2022	23:12	-131.665	47.626	0	311.90	0	5.7720	0	33.9210	0	26.732	0	309.060	0	78.2	4	25.7	4	-1E+10	1	-1E+10	1	-1E+10	1	-1E+10	1	-1E+10	1	-1E+10	1
4902549	75	C	09/07/2022	23:12	-131.665	47.626	0	312.90	0	5.7560	0	33.9210	0	26.734	0	310.050	0	77.9	4	25.6	4	-1E+10	1	-1E+10	1	-1E+10	1	-1E+10	1	-1E+10	1	-1E+10	1
4902549	75	C	09/07/2022	23:12	-131.665	47.626	0	313.80	0	5.7470	0	33.9210	0	26.735	0	310.941	0	77.6	4	25.5	4	-1E+10	1	-1E+10	1	-1E+10	1	-1E+10	1	-1E+10	1	-1E+10	1
4902549	75	C	09/07/2022	23:12	-131.665	47.626	0	314.70	0	5.7420	0	33.9220	0	26.736	0	311.832	0	77.2	4	25.4	4	-1E+10	1	-1E+10	1	-1E+10	1	-1E+10	1	-1E+10	1	-1E+10	1
4902549	75	C	09/07/2022	23:12	-131.665	47.626	0	315.70	0	5.7400	0	33.9220	0	26.736	0	312.823	0	76.9	4	25.3	4	-1E+10	1	-1E+10	1	-1E+10	1	-1E+10	1	-1E+10	1	-1E+10	1
4902549	75	C	09/07/2022	23:12	-131.665	47.626	0	316.60	0	5.7350	0	33.9210	0	26.736	0	313.714	0	76.5	4	25.1	4	-1E+10	1	-1E+10	1	-1E+10	1	-1E+10	1	-1E+10	1	-1E+10	1
4902549	75	C	09/07/2022	23:12	-131.665	47.626	0	317.50	0	5.7310	0	33.9230	0	26.738	0	314.605	0	76.2	4	25.0	4	-1E+10	1	-1E+10	1	-1E+10	1	-1E+10	1	-1E+10	1	-1E+10	1
4902549	75	C	09/07/2022	23:12	-131.665	47.626	0	318.90	0	5.7130	0	33.9260	0	26.743	0	315.991	0	75.9	4	24.9	4	-1E+10	1	-1E+10	1	-1E+10	1	-1E+10	1	-1E+10	1	-1E+10	1
4902549	75	C	09/07/2022	23:12	-131.665	47.626	0	320.40	0	5.7080	0	33.9250	0	26.743	0	317.476	0	75.6	4	24.8	4	-1E+10	1	-1E+10	1	-1E+10	1	-1E+10	1	-1E+10	1	-1E+10	1
4902549	75	C	09/07/2022	23:12	-131.665	47.626	0	321.30	0	5.6890	0	33.9250	0	26.745	0	318.367	0	75.3	4	24.7	4	-1E+10	1	-1E+10	1	-1E+10	1	-1E+10	1	-1E+10	1	-1E+10	1
4902549	75	C	09/07/2022	23:12	-131.665	47.626	0	322.20	0	5.6890	0	33.9240	0	26.744	0	319.258	0	75.0	4	24.6	4	-1E+10	1	-1E+10	1	-1E+10	1	-1E+10	1	-1E+10	1	-1E+10	1
4902549	75	C	09/07/2022	23:12	-131.665	47.626	0	323.20	0	5.6810	0	33.9250	0	26.746	0	320.248	0	74.6	4	24.5	4	-1E+10	1	-1E+10	1	-1E+10	1	-1E+10	1	-1E+10	1	-1E+10	1
4902549	75	C	09/07/2022	23:12	-131.665	47.626	0	324.10	0	5.6460	0	33.9250	0	26.750	0	321.139	0	74.1	4	24.3	4	-1E+10	1	-1E+10	1	-1E+10	1	-1E+10	1	-1E+10	1	-1E+10	1
4902549	75	C	09/07/2022	23:12	-131.665	47.626	0	325.00	0	5.6160	0	33.9250	0	26.754	0	322.031	0	73.7	4	24.2	4	-1E+10	1	-1E+10	1	-1E+10	1	-1E+10	1	-1E+10	1	-1E+10	1
4902549	75	C	09/07/2022	23:12	-131.665	47.626	0	325.90	0	5.6100	0	33.9260	0	26.755	0	322.922	0	73.3	4	24.0	4	-1E+10	1	-1E+10	1	-1E+10	1	-1E+10	1	-1E+10	1	-1E+10	1
4902549	75	C	09/07/2022	23:12	-131.665	47.626	0	326.90	0	5.6090	0	33.9260	0	26.756	0	323.912	0	72.8	4	23.8	4	-1E+10	1	-1E+10	1	-1E+10	1	-1E+10	1	-1E+10	1	-1E+10	1
4902549	75	C	09/07/2022	23:12	-131.665	47.626	0	327.80	0	5.6070	0	33.9260	0	26.756	0	324.803	0	72.3	4	23.7	4	-1E+10	1	-1E+10	1	-1E+10	1	-1E+10	1	-1E+10	1	-1E+10	1
4902549	75	C	09/07/2022	23:12	-131.665	47.626	0	328.70	0	5.6000	0	33.9280	0	26.758	0	325.694	0	71.9	4	23.5	4	-1E+10	1	-1E+10	1	-1E+10	1	-1E+10	1	-1E+10	1	-1E+10	1
4902549	75	C	09/07/2022	23:12	-131.665	47.626	0	329.60	0	5.5940	0	33.9290	0	26.760	0	326.585	0	71.4	4	23.4	4	-1E+10	1	-1E+10	1	-1E+10	1	-1E+10	1	-1E+10	1	-1E+10	1
4902549	75	C	09/07/2022	23:12	-131.665	47.626	0	330.90	0	5.5910	0	33.9290	0	26.760	0	327.872	0	70.8	4	23.2	4	-1E+10	1	-1E+10	1	-1E+10	1	-1E+10	1	-1E+10	1	-1E+10	1
4902549	75	C	09/07/2022	23:12	-131.665	47.626	0	332.30	0	5.5740	0	33.9310	0	26.764	0	329.258	0	70.1	4	22.9	4	-1E+10	1	-1E+10	1	-1E+10	1	-1E+10	1	-1E+10	1	-1E+10	1
4902549	75	C	09/07/2022	23:12	-131.665	47.626	0	333.20	0	5.5580	0	33.9340	0	26.768	0	330.149	0	69.6	4	22.7	4	-1E+10	1	-1E+10	1	-1E+10	1	-1E+10	1	-1E+10	1	-1E+10	1
4902549	75	C	09/07/2022	23:12	-131.665	47.626	0	334.20	0	5.5480	0	33.9320	0	26.768	0	331.139	0	69.1	4	22.6	4	-1E+10	1	-1E+10	1	-1E+10	1	-1E+10	1	-1E+10	1	-1E+10	1
4902549	75	C	09/07/2022	23:12	-131.665	47.626	0	335.10	0	5.5420	0	33.9330	0	26.769	0	332.030	0	68.7	4	22.5	4	-1E+10	1	-1E+10	1	-1E+10	1	-1E+10	1	-1E+10	1	-1E+10	1
4902549	75	C	09/07/2022	23:12	-131.665	47.626	0	336.00	0	5.5340	0	33.9340	0	26.771	0	332.921	0	68.3	4	22.3	4	-1E+10	1	-1E+10	1	-1E+10	1	-1E+10	1	-1E+10	1	-1E+10	1
4902549	75	C	09/07/2022	23:12	-131.665	47.626	0	336.90	0	5.5280	0	33.9340	0	26.772	0	333.812	0	67.8	4	22.2	4	-1E+10	1	-1E+10	1	-1E+10	1	-1E+10	1	-1E+10	1	-1E+10	1
4902549	75	C	09/07/2022	23:12	-131.665	47.626	0	337.90	0	5.4920	0	33.9360	0	26.778	0	334.802	0	67.6	4	22.1	4	-1E+10	1	-1E+10	1	-1E+10	1	-1E+10	1	-1E+10	1	-1E+10	1
4902549	75	C	09/07/2022	23:12	-131.665	47.626	0	338.80	0	5.4850	0	33.9360	0	26.778	0	335.693	0	67.2	4	21.9	4	-1E+10	1	-1E+10	1	-1E+10	1	-1E+10	1	-1E+10	1	-1E+10	1
4902549	75	C	09/07/2022	23:12	-131.665	47.626	0	339.70	0	5.4810	0	33.9360	0	26.779	0	336.584	0	66.8	4	21.8	4	-1E+10	1	-1E+10	1	-1E+10	1	-1E+10	1	-1E+10	1	-1E+10	1
4902549	75	C	09/07/2022	23:12	-131.665	47.626	0	340.60	0	5.4650	0	33.9380	0	26.782	0	337.475	0	66.3	4	21.6	4	-1E+10	1	-1E+10	1	-1E+10	1	-1E+10	1	-1E+10	1	-1E+10	1
4902549	75	C	09/07/2022	23:12	-131.665	47.626	0	341.50	0	5.4490	0	33.9370	0	26.784	0	338.366	0	65.9	4	21.5	4	-1E+10	1	-1E+10	1	-1E+10	1	-1E+10	1	-1E+10	1	-1E+10	1
4902549	75	C	09/07/2022	23:12	-131.665	47.626	0	342.90	0	5.4360	0	33.9380	0	26.786	0	339.752	0	65.1	4	21.2	4	-1E+10	1	-1E+10	1	-1E+10	1	-1E+10	1	-1E+10	1	-1E+10	1
4902549	75	C	09/07/2022	23:12	-131.665	47.626	0	344.30	0	5.4270	0	33.9380	0	26.787	0	341.138	0	64.2	4	20.9	4	-1E+10	1	-1E+10	1	-1E+10	1	-1E+10	1	-1E+10	1	-1E+10	1
4902549	75	C	09/07/2022	23:12	-131.665	47.626	0	345.30	0	5.4220	0	33.9390	0	26.788	0	342.128	0	63.4	4	20.7	4	-1E+10	1	-1E+10	1	-1E+10	1	-1E+10	1	-1E+10	1	-1E+10	1
4902549	75	C	09/07/2022	23:12	-131.665	47.626	0	346.20	0	5.4120	0	33.9410	0	26.791	0	343.019	0	62.8	4	20.5	4	-1E+10	1	-1E+10	1	-1E+10	1	-1E+10	1	-1E+10	1	-1E+10	1
4902549	75	C	09/07/2022	23:12	-131.665	47.626	0	347.10	0	5.3960	0	33.9440	0	26.795	0	343.910	0	62.3	4	20.3	4	-1E+10	1	-1E+10	1	-1E+10	1	-1E+10	1	-1E+10	1	-1E+10	1
4902549	75	C	09/07/2022	23:12	-131.665	47.626	0	348.10	0	5.3760	0	33.9490	0	26.802	0	344.900	0	61.9	4	20.2	4	-1E+10	1	-1E+10	1	-1E+10	1	-1E+10	1	-1E+10	1	-1E+10	1
4902549	75	C	09/07/2022	23:12	-131.665	47.626	0	349.00	0	5.3720	0	33.9490	0	26.802	0	345.791	0	61.5	4	20.0	4	-1E+10	1	-1E+10	1	-1E+10	1	-1E+10	1	-1E+10	1	-1E+10	1
4902549	75	C	09/07/2022	23:12	-131.665	47.626	0	349.90	0	5.3720	0	33.9490	0	26.802	0	346.682	0	61.1	4	19.9	4	-1E+10	1	-1E+10	1	-1E+10	1	-1E+10	1	-1E+10	1	-1E+10	1
4902549	75	C	09/07/2022	23:12	-131.665	47.626	0	352.70	0	5.3600	0	33.9510	0	26.805	0	349.454	0	59.8	4	19.5	4	-1E+10	1	-1E+10	1	-1E+10	1	-1E+10	1	-1E+10	1	-1E+10	1
4902549	75	C	09/07/2022	23:12	-131.665	47.626	0	357.90	0	5.3360	0	33.9590	0	26.814	0	354.602	0	58.0	4	18.9	4	-1E+10	1	-1E+10	1	-1E+10	1	-1E+10	1	-1E+10	1	-1E+10	1
4902549	75	C	09/07/2022	23:12	-131.665	47.626	0	362.90	0	5.2970	0	33.9620	0	26.821	0	359.551	0	56.8	4	18.5	4	-1E+10	1	-1E+10	1	-1E+10	1	-1E+10	1	-1E+10	1	-1E+10	1
4902549	75	C	09/07/2022	23:12	-131.665	47.626	0	368.00	0	5.2410	0	33.9630	0	26.829	0	364.600	0	54.9	4	17.8	4	-1E+10	1	-1E+10	1	-1E+10	1	-1E+10	1	-1E+10	1	-1E+10	1
4902549	75	C	09/07/2022	23:12	-131.665	47.626	0	373.20	0	5.2090	0	33.9690	0	26.837	0	369.747	0	52.7	4	17.1	4	-1E+10	1	-1E+10	1	-1E+10	1	-1E+10	1	-1E+10	1	-1E+10	1
4902549	75	C	09/07/2022	23:12	-131.665	47.626	0	377.90	0	5.1680	0	33.9760	0	26.848	0	374.399	0	51.3	4	16.6	4	-1E+10	1	-1E+10	1	-1E+10	1	-1E+10	1	-1E+10	1	-1E+10	1
4902549	75	C	09/07/2022	23:12	-131.665	47.626	0	382.70	0	5.1490	0	33.9800	0	26.853	0	379.151	0	50.0	4	16.2	4	-1E+10	1	-1E+10	1	-1E+10	1	-1E+10	1	-1E+10	1	-1E+10	1
4902549	75	C	09/07/2022	23:12	-131.665	47.626	0	388.00	0	5.1450	0	33.9840	0	26.857	0	384.397	0	48.5	4	15.7	4	-1E+10	1	-1E+10	1	-1E+10	1	-1E+10	1	-1E+10	1	-1E+10	1
4902549	75	C	09/07/2022	23:12	-131.665	47.626	0	393.40	0	5.1000	0	33.9890	0	26.866	0	389.741	0	47.1	4	15.3	4	-1E+10	1	-1E+10	1	-1E+10	1	-1E+10	1	-1E+10	1	-1E+10	1
4902549	75	C	09/07/2022	23:12	-131.665	47.626	0	398.40	0	5.0540	0	33.9950	0	26.876	0	394.690	0	45.7	4	14.8	4	-1E+10	1	-1E+10	1	-1E+10	1	-1E+10	1	-1E+10	1	-1E+10	1
4902549	75	C	09/07/2022	23:12	-131.665	47.626	0	402.90	0	5.0310	0	34.0000	0	26.883	0	399.144	0	44.7	4	14.4	4	-1E+10	1	-1E+10	1	-1E+10	1	-1E+10	1	-1E+10	1	-1E+10	1
4902549	75	C	09/07/2022	23:12	-131.665	47.626	0	407.50	0	5.0250	0	34.0030	0	26.886	0	403.696	0	43.8	4	14.2	4	-1E+10	1	-1E+10	1	-1E+10	1	-1E+10	1	-1E+10	1	-1E+10	1
4902549	75	C	09/07/2022	23:12	-131.665	47.626	0	412.90	0	5.0210	0	34.0040	0	26.887	0	409.041	0	42.2	4	13.6	4	-1E+10	1	-1E+10	1	-1E+10	1	-1E+10	1	-1E+10	1	-1E+10	1
4902549	75	C	09/07/2022	23:12	-131.665	47.626	0	418.10	0	5.0070	0	34.0130	0	26.896	0	414.187	0	40.5	4	13.1	4	-1E+10	1	-1E+10	1	-1E+10	1	-1E+10	1	-1E+10	1	-1E+10	1
4902549	75	C	09/07/2022	23:12	-131.665	47.626	0	423.10	0	4.9890	0	34.0180	0	26.902	0	419.135	0	39.6	4	12.8	4	-1E+10	1	-1E+10	1	-1E+10	1	-1E+10	1	-1E+10	1	-1E+10	1
4902549	75	C	09/07/2022	23:12	-131.665	47.626	0	428.10	0	4.9540	0	34.0200	0	26.907	0	424.083	0	38.2	4	12.3	4	-1E+10	1	-1E+10	1	-1E+10	1	-1E+10	1	-1E+10	1	-1E+10	1
4902549	75	C	09/07/2022	23:12	-131.665	47.626	0	432.90	0	4.9470	0	34.0260	0	26.913	0	428.833	0	36.6	4	11.8	4	-1E+10	1	-1E+10	1	-1E+10	1	-1E+10	1	-1E+10	1	-1E+10	1
4902549	75	C	09/07/2022	23:12	-131.665	47.626	0	437.80	0	4.9460	0	34.0340	0	26.920	0	433.682	0	35.4	4	11.4	4	-1E+10	1	-1E+10	1	-1E+10	1	-1E+10	1	-1E+10	1	-1E+10	1
4902549	75	C	09/07/2022	23:12	-131.665	47.626	0	442.80	0	4.9030	0	34.0400	0	26.929	0	438.630	0	35.1	4	11.3	4	-1E+10	1	-1E+10	1	-1E+10	1	-1E+10	1	-1E+10	1	-1E+10	1
4902549	75	C	09/07/2022	23:12	-131.665	47.626	0	447.90	0	4.8650	0	34.0410	0	26.934	0	443.676	0	34.6	4	11.1	4	-1E+10	1	-1E+10	1	-1E+10	1	-1E+10	1	-1E+10	1	-1E+10	1
4902549	75	C	09/07/2022	23:12	-131.665	47.626	0	453.00	0	4.7950	0	34.0370	0	26.939	0	448.723	0	34.0	4	10.9	4	-1E+10	1	-1E+10	1	-1E+10	1	-1E+10	1	-1E+10	1	-1E+10	1
4902549	75	C	09/07/2022	23:12	-131.665	47.626	0	457.80	0	4.8060	0	34.0440	0	26.943	0	453.472	0	32.5	4	10.4	4	-1E+10	1	-1E+10	1	-1E+10	1	-1E+10	1	-1E+10	1	-1E+10	1
4902549	75	C	09/07/2022	23:12	-131.665	47.626	0	462.70	0	4.7970	0	34.0490	0	26.948	0	458.320	0	31.5	4	10.1	4	-1E+10	1	-1E+10	1	-1E+10	1	-1E+10	1	-1E+10	1	-1E+10	1
4902549	75	C	09/07/2022	23:12	-131.665	47.626	0	467.60	0	4.7910	0	34.0530	0	26.952	0	463.169	0	30.6	4	9.8	4	-1E+10	1	-1E+10	1	-1E+10	1	-1E+10	1	-1E+10	1	-1E+10	1
4902549	75	C	09/07/2022	23:12	-131.665	47.626	0	472.60	0	4.7750	0	34.0580	0	26.958	0	468.115	0	29.4	4	9.5	4	-1E+10	1	-1E+10	1	-1E+10	1	-1E+10	1	-1E+10	1	-1E+10	1
4902549	75	C	09/07/2022	23:12	-131.665	47.626	0	477.60	0	4.7440	0	34.0630	0	26.965	0	473.062	0	28.5	4	9.1	4	-1E+10	1	-1E+10	1	-1E+10	1	-1E+10	1	-1E+10	1	-1E+10	1
4902549	75	C	09/07/2022	23:12	-131.665	47.626	0	482.60	0	4.7390	0	34.0660	0	26.968	0	478.009	0	27.2	4	8.7	4	-1E+10	1	-1E+10	1	-1E+10	1	-1E+10	1	-1E+10	1	-1E+10	1
4902549	75	C	09/07/2022	23:12	-131.665	47.626	0	487.50	0	4.7470	0	34.0760	0	26.976	0	482.857	0	26.5	4	8.5	4	-1E+10	1	-1E+10	1	-1E+10	1	-1E+10	1	-1E+10	1	-1E+10	1
4902549	75	C	09/07/2022	23:12	-131.665	47.626	0	492.50	0	4.7400	0	34.0790	0	26.979	0	487.803	0	26.6	4	8.5	4	-1E+10	1	-1E+10	1	-1E+10	1	-1E+10	1	-1E+10	1	-1E+10	1
4902549	75	C	09/07/2022	23:12	-131.665	47.626	0	497.50	0	4.7010	0	34.0750	0	26.980	0	492.750	0	26.5	4	8.5	4	-1E+10	1	-1E+10	1	-1E+10	1	-1E+10	1	-1E+10	1	-1E+10	1
4902549	75	C	09/07/2022	23:12	-131.665	47.626	0	502.70	0	4.6590	0	34.0750	0	26.985	0	497.894	0	25.4	4	8.1	4	-1E+10	1	-1E+10	1	-1E+10	1	-1E+10	1	-1E+10	1	-1E+10	1
4902549	75	C	09/07/2022	23:12	-131.665	47.626	0	507.70	0	4.6410	0	34.0820	0	26.992	0	502.840	0	23.8	4	7.6	4	-1E+10	1	-1E+10	1	-1E+10	1	-1E+10	1	-1E+10	1	-1E+10	1
4902549	75	C	09/07/2022	23:12	-131.665	47.626	0	512.80	0	4.6590	0	34.0930	0	26.999	0	507.885	0	22.7	4	7.3	4	-1E+10	1	-1E+10	1	-1E+10	1	-1E+10	1	-1E+10	1	-1E+10	1
4902549	75	C	09/07/2022	23:12	-131.665	47.626	0	517.90	0	4.6360	0	34.0980	0	27.005	0	512.930	0	22.2	4	7.1	4	-1E+10	1	-1E+10	1	-1E+10	1	-1E+10	1	-1E+10	1	-1E+10	1
4902549	75	C	09/07/2022	23:12	-131.665	47.626	0	522.90	0	4.6330	0	34.1020	0	27.009	0	517.876	0	22.0	4	7.0	4	-1E+10	1	-1E+10	1	-1E+10	1	-1E+10	1	-1E+10	1	-1E+10	1
4902549	75	C	09/07/2022	23:12	-131.665	47.626	0	528.10	0	4.6020	0	34.1030	0	27.013	0	523.019	0	21.8	4	7.0	4	-1E+10	1	-1E+10	1	-1E+10	1	-1E+10	1	-1E+10	1	-1E+10	1
4902549	75	C	09/07/2022	23:12	-131.665	47.626	0	533.30	0	4.5690	0	34.1040	0	27.018	0	528.162	0	21.5	4	6.9	4	-1E+10	1	-1E+10	1	-1E+10	1	-1E+10	1	-1E+10	1	-1E+10	1
4902549	75	C	09/07/2022	23:12	-131.665	47.626	0	538.30	0	4.5350	0	34.1050	0	27.022	0	533.108	0	21.1	4	6.7	4	-1E+10	1	-1E+10	1	-1E+10	1	-1E+10	1	-1E+10	1	-1E+10	1
4902549	75	C	09/07/2022	23:12	-131.665	47.626	0	542.80	0	4.5130	0	34.1070	0	27.026	0	537.559	0	20.6	4	6.6	4	-1E+10	1	-1E+10	1	-1E+10	1	-1E+10	1	-1E+10	1	-1E+10	1
4902549	75	C	09/07/2022	23:12	-131.665	47.626	0	547.50	0	4.5060	0	34.1110	0	27.030	0	542.207	0	20.1	4	6.4	4	-1E+10	1	-1E+10	1	-1E+10	1	-1E+10	1	-1E+10	1	-1E+10	1
4902549	75	C	09/07/2022	23:12	-131.665	47.626	0	552.50	0	4.5030	0	34.1130	0	27.032	0	547.152	0	19.6	4	6.3	4	-1E+10	1	-1E+10	1	-1E+10	1	-1E+10	1	-1E+10	1	-1E+10	1
4902549	75	C	09/07/2022	23:12	-131.665	47.626	0	557.50	0	4.4890	0	34.1150	0	27.035	0	552.097	0	19.0	4	6.1	4	-1E+10	1	-1E+10	1	-1E+10	1	-1E+10	1	-1E+10	1	-1E+10	1
4902549	75	C	09/07/2022	23:12	-131.665	47.626	0	562.60	0	4.4800	0	34.1220	0	27.042	0	557.141	0	18.5	4	5.9	4	-1E+10	1	-1E+10	1	-1E+10	1	-1E+10	1	-1E+10	1	-1E+10	1
4902549	75	C	09/07/2022	23:12	-131.665	47.626	0	567.80	0	4.4620	0	34.1210	0	27.043	0	562.283	0	17.9	4	5.7	4	-1E+10	1	-1E+10	1	-1E+10	1	-1E+10	1	-1E+10	1	-1E+10	1
4902549	75	C	09/07/2022	23:12	-131.665	47.626	0	573.20	0	4.4460	0	34.1270	0	27.049	0	567.624	0	17.1	4	5.5	4	-1E+10	1	-1E+10	1	-1E+10	1	-1E+10	1	-1E+10	1	-1E+10	1
4902549	75	C	09/07/2022	23:12	-131.665	47.626	0	577.90	0	4.4290	0	34.1320	0	27.055	0	572.271	0	16.6	4	5.3	4	-1E+10	1	-1E+10	1	-1E+10	1	-1E+10	1	-1E+10	1	-1E+10	1
4902549	75	C	09/07/2022	23:12	-131.665	47.626	0	582.70	0	4.4000	0	34.1360	0	27.062	0	577.018	0	16.2	4	5.2	4	-1E+10	1	-1E+10	1	-1E+10	1	-1E+10	1	-1E+10	1	-1E+10	1
4902549	75	C	09/07/2022	23:12	-131.665	47.626	0	587.90	0	4.3860	0	34.1400	0	27.066	0	582.160	0	15.6	4	5.0	4	-1E+10	1	-1E+10	1	-1E+10	1	-1E+10	1	-1E+10	1	-1E+10	1
4902549	75	C	09/07/2022	23:12	-131.665	47.626	0	593.10	0	4.3860	0	34.1440	0	27.070	0	587.302	0	15.1	4	4.8	4	-1E+10	1	-1E+10	1	-1E+10	1	-1E+10	1	-1E+10	1	-1E+10	1
4902549	75	C	09/07/2022	23:12	-131.665	47.626	0	598.30	0	4.3750	0	34.1480	0	27.074	0	592.444	0	14.8	4	4.7	4	-1E+10	1	-1E+10	1	-1E+10	1	-1E+10	1	-1E+10	1	-1E+10	1
4902549	75	C	09/07/2022	23:12	-131.665	47.626	0	603.00	0	4.3720	0	34.1510	0	27.077	0	597.091	0	14.5	4	4.6	4	-1E+10	1	-1E+10	1	-1E+10	1	-1E+10	1	-1E+10	1	-1E+10	1
4902549	75	C	09/07/2022	23:12	-131.665	47.626	0	608.00	0	4.3570	0	34.1530	0	27.080	0	602.035	0	14.3	4	4.6	4	-1E+10	1	-1E+10	1	-1E+10	1	-1E+10	1	-1E+10	1	-1E+10	1
4902549	75	C	09/07/2022	23:12	-131.665	47.626	0	613.20	0	4.3520	0	34.1550	0	27.082	0	607.176	0	14.0	4	4.4	4	-1E+10	1	-1E+10	1	-1E+10	1	-1E+10	1	-1E+10	1	-1E+10	1
4902549	75	C	09/07/2022	23:12	-131.665	47.626	0	618.00	0	4.3440	0	34.1580	0	27.085	0	611.922	0	13.6	4	4.3	4	-1E+10	1	-1E+10	1	-1E+10	1	-1E+10	1	-1E+10	1	-1E+10	1
4902549	75	C	09/07/2022	23:12	-131.665	47.626	0	622.80	0	4.3350	0	34.1630	0	27.090	0	616.668	0	13.2	4	4.2	4	-1E+10	1	-1E+10	1	-1E+10	1	-1E+10	1	-1E+10	1	-1E+10	1
4902549	75	C	09/07/2022	23:12	-131.665	47.626	0	627.80	0	4.3340	0	34.1650	0	27.092	0	621.611	0	13.0	4	4.1	4	-1E+10	1	-1E+10	1	-1E+10	1	-1E+10	1	-1E+10	1	-1E+10	1
4902549	75	C	09/07/2022	23:12	-131.665	47.626	0	632.70	0	4.3280	0	34.1660	0	27.094	0	626.455	0	12.9	4	4.1	4	-1E+10	1	-1E+10	1	-1E+10	1	-1E+10	1	-1E+10	1	-1E+10	1
4902549	75	C	09/07/2022	23:12	-131.665	47.626	0	637.60	0	4.3250	0	34.1670	0	27.095	0	631.299	0	12.6	4	4.0	4	-1E+10	1	-1E+10	1	-1E+10	1	-1E+10	1	-1E+10	1	-1E+10	1
4902549	75	C	09/07/2022	23:12	-131.665	47.626	0	642.90	0	4.3150	0	34.1700	0	27.098	0	636.539	0	12.4	4	3.9	4	-1E+10	1	-1E+10	1	-1E+10	1	-1E+10	1	-1E+10	1	-1E+10	1
4902549	75	C	09/07/2022	23:12	-131.665	47.626	0	648.30	0	4.2840	0	34.1730	0	27.104	0	641.877	0	12.1	4	3.8	4	-1E+10	1	-1E+10	1	-1E+10	1	-1E+10	1	-1E+10	1	-1E+10	1
4902549	75	C	09/07/2022	23:12	-131.665	47.626	0	653.20	0	4.2780	0	34.1760	0	27.107	0	646.721	0	11.7	4	3.7	4	-1E+10	1	-1E+10	1	-1E+10	1	-1E+10	1	-1E+10	1	-1E+10	1
4902549	75	C	09/07/2022	23:12	-131.665	47.626	0	658.20	0	4.2680	0	34.1790	0	27.110	0	651.664	0	11.2	4	3.6	4	-1E+10	1	-1E+10	1	-1E+10	1	-1E+10	1	-1E+10	1	-1E+10	1
4902549	75	C	09/07/2022	23:12	-131.665	47.626	0	662.90	0	4.2520	0	34.1850	0	27.117	0	656.310	0	10.8	4	3.4	4	-1E+10	1	-1E+10	1	-1E+10	1	-1E+10	1	-1E+10	1	-1E+10	1
4902549	75	C	09/07/2022	23:12	-131.665	47.626	0	667.60	0	4.2260	0	34.1900	0	27.124	0	660.955	0	10.7	4	3.4	4	-1E+10	1	-1E+10	1	-1E+10	1	-1E+10	1	-1E+10	1	-1E+10	1
4902549	75	C	09/07/2022	23:12	-131.665	47.626	0	672.80	0	4.2070	0	34.1920	0	27.127	0	666.095	0	10.6	4	3.4	4	-1E+10	1	-1E+10	1	-1E+10	1	-1E+10	1	-1E+10	1	-1E+10	1
4902549	75	C	09/07/2022	23:12	-131.665	47.626	0	677.90	0	4.1960	0	34.1950	0	27.131	0	671.136	0	10.5	4	3.3	4	-1E+10	1	-1E+10	1	-1E+10	1	-1E+10	1	-1E+10	1	-1E+10	1
4902549	75	C	09/07/2022	23:12	-131.665	47.626	0	683.10	0	4.1660	0	34.1950	0	27.134	0	676.276	0	10.5	4	3.3	4	-1E+10	1	-1E+10	1	-1E+10	1	-1E+10	1	-1E+10	1	-1E+10	1
4902549	75	C	09/07/2022	23:12	-131.665	47.626	0	687.90	0	4.1610	0	34.1970	0	27.136	0	681.020	0	9.8	4	3.1	4	-1E+10	1	-1E+10	1	-1E+10	1	-1E+10	1	-1E+10	1	-1E+10	1
4902549	75	C	09/07/2022	23:12	-131.665	47.626	0	692.70	0	4.1600	0	34.2020	0	27.140	0	685.764	0	9.5	4	3.0	4	-1E+10	1	-1E+10	1	-1E+10	1	-1E+10	1	-1E+10	1	-1E+10	1
4902549	75	C	09/07/2022	23:12	-131.665	47.626	0	697.90	0	4.1460	0	34.2040	0	27.143	0	690.904	0	9.3	4	2.9	4	-1E+10	1	-1E+10	1	-1E+10	1	-1E+10	1	-1E+10	1	-1E+10	1
4902549	75	C	09/07/2022	23:12	-131.665	47.626	0	702.80	0	4.1400	0	34.2080	0	27.147	0	695.746	0	9.0	4	2.8	4	-1E+10	1	-1E+10	1	-1E+10	1	-1E+10	1	-1E+10	1	-1E+10	1
4902549	75	C	09/07/2022	23:12	-131.665	47.626	0	707.70	0	4.1310	0	34.2120	0	27.151	0	700.589	0	8.7	4	2.8	4	-1E+10	1	-1E+10	1	-1E+10	1	-1E+10	1	-1E+10	1	-1E+10	1
4902549	75	C	09/07/2022	23:12	-131.665	47.626	0	712.80	0	4.1240	0	34.2160	0	27.155	0	705.629	0	8.5	4	2.7	4	-1E+10	1	-1E+10	1	-1E+10	1	-1E+10	1	-1E+10	1	-1E+10	1
4902549	75	C	09/07/2022	23:12	-131.665	47.626	0	717.70	0	4.1130	0	34.2180	0	27.158	0	710.471	0	8.2	4	2.6	4	-1E+10	1	-1E+10	1	-1E+10	1	-1E+10	1	-1E+10	1	-1E+10	1
4902549	75	C	09/07/2022	23:12	-131.665	47.626	0	722.80	0	4.0980	0	34.2230	0	27.164	0	715.511	0	7.9	4	2.5	4	-1E+10	1	-1E+10	1	-1E+10	1	-1E+10	1	-1E+10	1	-1E+10	1
4902549	75	C	09/07/2022	23:12	-131.665	47.626	0	727.80	0	4.0770	0	34.2300	0	27.171	0	720.452	0	7.8	4	2.5	4	-1E+10	1	-1E+10	1	-1E+10	1	-1E+10	1	-1E+10	1	-1E+10	1
4902549	75	C	09/07/2022	23:12	-131.665	47.626	0	733.00	0	4.0670	0	34.2330	0	27.175	0	725.591	0	7.5	4	2.4	4	-1E+10	1	-1E+10	1	-1E+10	1	-1E+10	1	-1E+10	1	-1E+10	1
4902549	75	C	09/07/2022	23:12	-131.665	47.626	0	737.70	0	4.0510	0	34.2380	0	27.180	0	730.235	0	7.3	4	2.3	4	-1E+10	1	-1E+10	1	-1E+10	1	-1E+10	1	-1E+10	1	-1E+10	1
4902549	75	C	09/07/2022	23:12	-131.665	47.626	0	742.60	0	4.0390	0	34.2410	0	27.184	0	735.077	0	7.2	4	2.3	4	-1E+10	1	-1E+10	1	-1E+10	1	-1E+10	1	-1E+10	1	-1E+10	1
4902549	75	C	09/07/2022	23:12	-131.665	47.626	0	747.60	0	4.0310	0	34.2440	0	27.187	0	740.017	0	7.0	4	2.2	4	-1E+10	1	-1E+10	1	-1E+10	1	-1E+10	1	-1E+10	1	-1E+10	1
4902549	75	C	09/07/2022	23:12	-131.665	47.626	0	752.60	0	4.0130	0	34.2490	0	27.193	0	744.958	0	6.9	4	2.2	4	-1E+10	1	-1E+10	1	-1E+10	1	-1E+10	1	-1E+10	1	-1E+10	1
4902549	75	C	09/07/2022	23:12	-131.665	47.626	0	758.00	0	4.0020	0	34.2520	0	27.197	0	750.293	0	6.8	4	2.1	4	-1E+10	1	-1E+10	1	-1E+10	1	-1E+10	1	-1E+10	1	-1E+10	1
4902549	75	C	09/07/2022	23:12	-131.665	47.626	0	763.10	0	3.9880	0	34.2550	0	27.201	0	755.332	0	6.7	4	2.1	4	-1E+10	1	-1E+10	1	-1E+10	1	-1E+10	1	-1E+10	1	-1E+10	1
4902549	75	C	09/07/2022	23:12	-131.665	47.626	0	767.90	0	3.9800	0	34.2570	0	27.203	0	760.074	0	6.6	4	2.1	4	-1E+10	1	-1E+10	1	-1E+10	1	-1E+10	1	-1E+10	1	-1E+10	1
4902549	75	C	09/07/2022	23:12	-131.665	47.626	0	772.70	0	3.9720	0	34.2580	0	27.205	0	764.817	0	6.6	4	2.1	4	-1E+10	1	-1E+10	1	-1E+10	1	-1E+10	1	-1E+10	1	-1E+10	1
4902549	75	C	09/07/2022	23:12	-131.665	47.626	0	777.70	0	3.9560	0	34.2620	0	27.210	0	769.757	0	6.5	4	2.0	4	-1E+10	1	-1E+10	1	-1E+10	1	-1E+10	1	-1E+10	1	-1E+10	1
4902549	75	C	09/07/2022	23:12	-131.665	47.626	0	782.80	0	3.9470	0	34.2640	0	27.212	0	774.795	0	6.4	4	2.0	4	-1E+10	1	-1E+10	1	-1E+10	1	-1E+10	1	-1E+10	1	-1E+10	1
4902549	75	C	09/07/2022	23:12	-131.665	47.626	0	788.10	0	3.9330	0	34.2670	0	27.216	0	780.031	0	6.3	4	2.0	4	-1E+10	1	-1E+10	1	-1E+10	1	-1E+10	1	-1E+10	1	-1E+10	1
4902549	75	C	09/07/2022	23:12	-131.665	47.626	0	793.00	0	3.9160	0	34.2710	0	27.221	0	784.872	0	6.2	4	2.0	4	-1E+10	1	-1E+10	1	-1E+10	1	-1E+10	1	-1E+10	1	-1E+10	1
4902549	75	C	09/07/2022	23:12	-131.665	47.626	0	798.00	0	3.9040	0	34.2730	0	27.224	0	789.811	0	6.2	4	1.9	4	-1E+10	1	-1E+10	1	-1E+10	1	-1E+10	1	-1E+10	1	-1E+10	1
4902549	75	C	09/07/2022	23:12	-131.665	47.626	0	803.10	0	3.8890	0	34.2760	0	27.228	0	794.849	0	6.1	4	1.9	4	-1E+10	1	-1E+10	1	-1E+10	1	-1E+10	1	-1E+10	1	-1E+10	1
4902549	75	C	09/07/2022	23:12	-131.665	47.626	0	807.90	0	3.8860	0	34.2770	0	27.229	0	799.590	0	6.1	4	1.9	4	-1E+10	1	-1E+10	1	-1E+10	1	-1E+10	1	-1E+10	1	-1E+10	1
4902549	75	C	09/07/2022	23:12	-131.665	47.626	0	812.60	0	3.8800	0	34.2780	0	27.230	0	804.233	0	6.0	4	1.9	4	-1E+10	1	-1E+10	1	-1E+10	1	-1E+10	1	-1E+10	1	-1E+10	1
4902549	75	C	09/07/2022	23:12	-131.665	47.626	0	817.90	0	3.8720	0	34.2800	0	27.233	0	809.468	0	6.0	4	1.9	4	-1E+10	1	-1E+10	1	-1E+10	1	-1E+10	1	-1E+10	1	-1E+10	1
4902549	75	C	09/07/2022	23:12	-131.665	47.626	0	823.20	0	3.8550	0	34.2830	0	27.237	0	814.703	0	5.9	4	1.9	4	-1E+10	1	-1E+10	1	-1E+10	1	-1E+10	1	-1E+10	1	-1E+10	1
4902549	75	C	09/07/2022	23:12	-131.665	47.626	0	828.00	0	3.8460	0	34.2850	0	27.239	0	819.444	0	5.9	4	1.9	4	-1E+10	1	-1E+10	1	-1E+10	1	-1E+10	1	-1E+10	1	-1E+10	1
4902549	75	C	09/07/2022	23:12	-131.665	47.626	0	832.80	0	3.8330	0	34.2880	0	27.243	0	824.185	0	5.9	4	1.8	4	-1E+10	1	-1E+10	1	-1E+10	1	-1E+10	1	-1E+10	1	-1E+10	1
4902549	75	C	09/07/2022	23:12	-131.665	47.626	0	838.00	0	3.8230	0	34.2900	0	27.246	0	829.321	0	5.8	4	1.8	4	-1E+10	1	-1E+10	1	-1E+10	1	-1E+10	1	-1E+10	1	-1E+10	1
4902549	75	C	09/07/2022	23:12	-131.665	47.626	0	843.20	0	3.8120	0	34.2920	0	27.248	0	834.457	0	5.8	4	1.8	4	-1E+10	1	-1E+10	1	-1E+10	1	-1E+10	1	-1E+10	1	-1E+10	1
4902549	75	C	09/07/2022	23:12	-131.665	47.626	0	847.80	0	3.8080	0	34.2930	0	27.250	0	839.000	0	5.8	4	1.8	4	-1E+10	1	-1E+10	1	-1E+10	1	-1E+10	1	-1E+10	1	-1E+10	1
4902549	75	C	09/07/2022	23:12	-131.665	47.626	0	852.90	0	3.7920	0	34.2960	0	27.254	0	844.037	0	5.8	4	1.8	4	-1E+10	1	-1E+10	1	-1E+10	1	-1E+10	1	-1E+10	1	-1E+10	1
4902549	75	C	09/07/2022	23:12	-131.665	47.626	0	857.90	0	3.7770	0	34.3000	0	27.258	0	848.974	0	5.8	4	1.8	4	-1E+10	1	-1E+10	1	-1E+10	1	-1E+10	1	-1E+10	1	-1E+10	1
4902549	75	C	09/07/2022	23:12	-131.665	47.626	0	862.80	0	3.7660	0	34.3030	0	27.262	0	853.813	0	5.8	4	1.8	4	-1E+10	1	-1E+10	1	-1E+10	1	-1E+10	1	-1E+10	1	-1E+10	1
4902549	75	C	09/07/2022	23:12	-131.665	47.626	0	868.10	0	3.7430	0	34.3060	0	27.267	0	859.047	0	5.8	4	1.8	4	-1E+10	1	-1E+10	1	-1E+10	1	-1E+10	1	-1E+10	1	-1E+10	1
4902549	75	C	09/07/2022	23:12	-131.665	47.626	0	873.00	0	3.7210	0	34.3090	0	27.271	0	863.886	0	5.7	4	1.8	4	-1E+10	1	-1E+10	1	-1E+10	1	-1E+10	1	-1E+10	1	-1E+10	1
4902549	75	C	09/07/2022	23:12	-131.665	47.626	0	877.80	0	3.7090	0	34.3120	0	27.275	0	868.626	0	5.7	4	1.8	4	-1E+10	1	-1E+10	1	-1E+10	1	-1E+10	1	-1E+10	1	-1E+10	1
4902549	75	C	09/07/2022	23:12	-131.665	47.626	0	883.00	0	3.7140	0	34.3140	0	27.276	0	873.761	0	5.6	4	1.8	4	-1E+10	1	-1E+10	1	-1E+10	1	-1E+10	1	-1E+10	1	-1E+10	1
4902549	75	C	09/07/2022	23:12	-131.665	47.626	0	887.80	0	3.6960	0	34.3180	0	27.281	0	878.501	0	5.6	4	1.8	4	-1E+10	1	-1E+10	1	-1E+10	1	-1E+10	1	-1E+10	1	-1E+10	1
4902549	75	C	09/07/2022	23:12	-131.665	47.626	0	892.60	0	3.6950	0	34.3200	0	27.283	0	883.240	0	5.5	4	1.7	4	-1E+10	1	-1E+10	1	-1E+10	1	-1E+10	1	-1E+10	1	-1E+10	1
4902549	75	C	09/07/2022	23:12	-131.665	47.626	0	897.70	0	3.6910	0	34.3250	0	27.287	0	888.276	0	5.5	4	1.7	4	-1E+10	1	-1E+10	1	-1E+10	1	-1E+10	1	-1E+10	1	-1E+10	1
4902549	75	C	09/07/2022	23:12	-131.665	47.626	0	902.90	0	3.6760	0	34.3280	0	27.291	0	893.410	0	5.5	4	1.7	4	-1E+10	1	-1E+10	1	-1E+10	1	-1E+10	1	-1E+10	1	-1E+10	1
4902549	75	C	09/07/2022	23:12	-131.665	47.626	0	908.10	0	3.6660	0	34.3320	0	27.295	0	898.544	0	5.5	4	1.7	4	-1E+10	1	-1E+10	1	-1E+10	1	-1E+10	1	-1E+10	1	-1E+10	1
4902549	75	C	09/07/2022	23:12	-131.665	47.626	0	913.10	0	3.6560	0	34.3340	0	27.298	0	903.481	0	5.5	4	1.7	4	-1E+10	1	-1E+10	1	-1E+10	1	-1E+10	1	-1E+10	1	-1E+10	1
4902549	75	C	09/07/2022	23:12	-131.665	47.626	0	918.20	0	3.6470	0	34.3370	0	27.301	0	908.516	0	5.5	4	1.7	4	-1E+10	1	-1E+10	1	-1E+10	1	-1E+10	1	-1E+10	1	-1E+10	1
4902549	75	C	09/07/2022	23:12	-131.665	47.626	0	922.90	0	3.6350	0	34.3400	0	27.305	0	913.156	0	5.5	4	1.7	4	-1E+10	1	-1E+10	1	-1E+10	1	-1E+10	1	-1E+10	1	-1E+10	1
4902549	75	C	09/07/2022	23:12	-131.665	47.626	0	927.60	0	3.6260	0	34.3420	0	27.307	0	917.796	0	5.6	4	1.7	4	-1E+10	1	-1E+10	1	-1E+10	1	-1E+10	1	-1E+10	1	-1E+10	1
4902549	75	C	09/07/2022	23:12	-131.665	47.626	0	932.80	0	3.6060	0	34.3460	0	27.312	0	922.930	0	5.6	4	1.8	4	-1E+10	1	-1E+10	1	-1E+10	1	-1E+10	1	-1E+10	1	-1E+10	1
4902549	75	C	09/07/2022	23:12	-131.665	47.626	0	938.00	0	3.5950	0	34.3490	0	27.316	0	928.064	0	5.6	4	1.8	4	-1E+10	1	-1E+10	1	-1E+10	1	-1E+10	1	-1E+10	1	-1E+10	1
4902549	75	C	09/07/2022	23:12	-131.665	47.626	0	942.90	0	3.5840	0	34.3510	0	27.318	0	932.901	0	5.7	4	1.8	4	-1E+10	1	-1E+10	1	-1E+10	1	-1E+10	1	-1E+10	1	-1E+10	1
4902549	75	C	09/07/2022	23:12	-131.665	47.626	0	947.90	0	3.5770	0	34.3520	0	27.320	0	937.836	0	5.7	4	1.8	4	-1E+10	1	-1E+10	1	-1E+10	1	-1E+10	1	-1E+10	1	-1E+10	1
4902549	75	C	09/07/2022	23:12	-131.665	47.626	0	952.90	0	3.5610	0	34.3520	0	27.322	0	942.772	0	5.7	4	1.8	4	-1E+10	1	-1E+10	1	-1E+10	1	-1E+10	1	-1E+10	1	-1E+10	1
4902549	75	C	09/07/2022	23:12	-131.665	47.626	0	957.90	0	3.5430	0	34.3540	0	27.325	0	947.708	0	5.8	4	1.8	4	-1E+10	1	-1E+10	1	-1E+10	1	-1E+10	1	-1E+10	1	-1E+10	1
4902549	75	C	09/07/2022	23:12	-131.665	47.626	0	963.00	0	3.5380	0	34.3560	0	27.327	0	952.742	0	5.9	4	1.8	4	-1E+10	1	-1E+10	1	-1E+10	1	-1E+10	1	-1E+10	1	-1E+10	1
4902549	75	C	09/07/2022	23:12	-131.665	47.626	0	967.70	0	3.5080	0	34.3570	0	27.331	0	957.381	0	5.9	4	1.8	4	-1E+10	1	-1E+10	1	-1E+10	1	-1E+10	1	-1E+10	1	-1E+10	1
4902549	75	C	09/07/2022	23:12	-131.665	47.626	0	972.60	0	3.4900	0	34.3580	0	27.333	0	962.218	0	6.0	4	1.9	4	-1E+10	1	-1E+10	1	-1E+10	1	-1E+10	1	-1E+10	1	-1E+10	1
4902549	75	C	09/07/2022	23:12	-131.665	47.626	0	977.50	0	3.4840	0	34.3600	0	27.335	0	967.054	0	6.0	4	1.9	4	-1E+10	1	-1E+10	1	-1E+10	1	-1E+10	1	-1E+10	1	-1E+10	1
4902549	75	C	09/07/2022	23:12	-131.665	47.626	0	982.90	0	3.4920	0	34.3660	0	27.340	0	972.384	0	6.0	4	1.9	4	-1E+10	1	-1E+10	1	-1E+10	1	-1E+10	1	-1E+10	1	-1E+10	1
4902549	75	C	09/07/2022	23:12	-131.665	47.626	0	988.40	0	3.4640	0	34.3650	0	27.341	0	977.812	0	6.1	4	1.9	4	-1E+10	1	-1E+10	1	-1E+10	1	-1E+10	1	-1E+10	1	-1E+10	1
4902549	75	C	09/07/2022	23:12	-131.665	47.626	0	993.00	0	3.4370	0	34.3650	0	27.344	0	982.352	0	6.1	4	1.9	4	-1E+10	1	-1E+10	1	-1E+10	1	-1E+10	1	-1E+10	1	-1E+10	1
4902549	75	C	09/07/2022	23:12	-131.665	47.626	0	997.50	0	3.4230	0	34.3630	0	27.344	0	986.793	0	6.2	4	1.9	4	-1E+10	1	-1E+10	1	-1E+10	1	-1E+10	1	-1E+10	1	-1E+10	1
4902549	75	C	09/07/2022	23:12	-131.665	47.626	0	1005.50	0	3.4060	0	34.3630	0	27.345	0	994.688	0	6.2	4	1.9	4	-1E+10	1	-1E+10	1	-1E+10	1	-1E+10	1	-1E+10	1	-1E+10	1
4902549	75	C	09/07/2022	23:12	-131.665	47.626	0	1015.30	0	3.3890	0	34.3680	0	27.351	0	1004.359	0	6.3	4	2.0	4	-1E+10	1	-1E+10	1	-1E+10	1	-1E+10	1	-1E+10	1	-1E+10	1
4902549	75	C	09/07/2022	23:12	-131.665	47.626	0	1025.50	0	3.3490	0	34.3710	0	27.357	0	1014.425	0	6.4	4	2.0	4	-1E+10	1	-1E+10	1	-1E+10	1	-1E+10	1	-1E+10	1	-1E+10	1
4902549	75	C	09/07/2022	23:12	-131.665	47.626	0	1035.50	0	3.3430	0	34.3770	0	27.363	0	1024.292	0	6.5	4	2.0	4	-1E+10	1	-1E+10	1	-1E+10	1	-1E+10	1	-1E+10	1	-1E+10	1
4902549	75	C	09/07/2022	23:12	-131.665	47.626	0	1045.60	0	3.3510	0	34.3860	0	27.369	0	1034.258	0	6.7	4	2.1	4	-1E+10	1	-1E+10	1	-1E+10	1	-1E+10	1	-1E+10	1	-1E+10	1
4902549	75	C	09/07/2022	23:12	-131.665	47.626	0	1055.30	0	3.3100	0	34.3890	0	27.376	0	1043.829	0	6.9	4	2.1	4	-1E+10	1	-1E+10	1	-1E+10	1	-1E+10	1	-1E+10	1	-1E+10	1
4902549	75	C	09/07/2022	23:12	-131.665	47.626	0	1065.30	0	3.2760	0	34.3920	0	27.381	0	1053.695	0	7.0	4	2.2	4	-1E+10	1	-1E+10	1	-1E+10	1	-1E+10	1	-1E+10	1	-1E+10	1
4902549	75	C	09/07/2022	23:12	-131.665	47.626	0	1075.30	0	3.2500	0	34.3950	0	27.386	0	1063.561	0	7.1	4	2.2	4	-1E+10	1	-1E+10	1	-1E+10	1	-1E+10	1	-1E+10	1	-1E+10	1
4902549	75	C	09/07/2022	23:12	-131.665	47.626	0	1085.30	0	3.2320	0	34.3980	0	27.390	0	1073.426	0	7.4	4	2.3	4	-1E+10	1	-1E+10	1	-1E+10	1	-1E+10	1	-1E+10	1	-1E+10	1
4902549	75	C	09/07/2022	23:12	-131.665	47.626	0	1095.40	0	3.2180	0	34.4030	0	27.396	0	1083.390	0	7.5	4	2.3	4	-1E+10	1	-1E+10	1	-1E+10	1	-1E+10	1	-1E+10	1	-1E+10	1
4902549	75	C	09/07/2022	23:12	-131.665	47.626	0	1105.20	0	3.1840	0	34.4030	0	27.399	0	1093.057	0	7.5	4	2.3	4	-1E+10	1	-1E+10	1	-1E+10	1	-1E+10	1	-1E+10	1	-1E+10	1
4902549	75	C	09/07/2022	23:12	-131.665	47.626	0	1115.20	0	3.1610	0	34.4060	0	27.403	0	1102.920	0	7.7	4	2.4	4	-1E+10	1	-1E+10	1	-1E+10	1	-1E+10	1	-1E+10	1	-1E+10	1
4902549	75	C	09/07/2022	23:12	-131.665	47.626	0	1125.40	0	3.1400	0	34.4080	0	27.407	0	1112.981	0	7.9	4	2.4	4	-1E+10	1	-1E+10	1	-1E+10	1	-1E+10	1	-1E+10	1	-1E+10	1
4902549	75	C	09/07/2022	23:12	-131.665	47.626	0	1135.40	0	3.1340	0	34.4110	0	27.410	0	1122.844	0	8.0	4	2.5	4	-1E+10	1	-1E+10	1	-1E+10	1	-1E+10	1	-1E+10	1	-1E+10	1
4902549	75	C	09/07/2022	23:12	-131.665	47.626	0	1145.40	0	3.1130	0	34.4150	0	27.415	0	1132.707	0	8.3	4	2.6	4	-1E+10	1	-1E+10	1	-1E+10	1	-1E+10	1	-1E+10	1	-1E+10	1
4902549	75	C	09/07/2022	23:12	-131.665	47.626	0	1155.40	0	3.1060	0	34.4180	0	27.418	0	1142.569	0	8.5	4	2.6	4	-1E+10	1	-1E+10	1	-1E+10	1	-1E+10	1	-1E+10	1	-1E+10	1
4902549	75	C	09/07/2022	23:12	-131.665	47.626	0	1165.40	0	3.0870	0	34.4200	0	27.422	0	1152.430	0	8.6	4	2.7	4	-1E+10	1	-1E+10	1	-1E+10	1	-1E+10	1	-1E+10	1	-1E+10	1
4902549	75	C	09/07/2022	23:12	-131.665	47.626	0	1175.40	0	3.0470	0	34.4220	0	27.427	0	1162.291	0	8.7	4	2.7	4	-1E+10	1	-1E+10	1	-1E+10	1	-1E+10	1	-1E+10	1	-1E+10	1
4902549	75	C	09/07/2022	23:12	-131.665	47.626	0	1185.30	0	3.0150	0	34.4230	0	27.431	0	1172.053	0	8.8	4	2.7	4	-1E+10	1	-1E+10	1	-1E+10	1	-1E+10	1	-1E+10	1	-1E+10	1
4902549	75	C	09/07/2022	23:12	-131.665	47.626	0	1195.10	0	2.9930	0	34.4260	0	27.435	0	1181.716	0	9.0	4	2.8	4	-1E+10	1	-1E+10	1	-1E+10	1	-1E+10	1	-1E+10	1	-1E+10	1
4902549	75	C	09/07/2022	23:12	-131.665	47.626	0	1205.00	0	2.9670	0	34.4290	0	27.440	0	1191.477	0	9.2	4	2.8	4	-1E+10	1	-1E+10	1	-1E+10	1	-1E+10	1	-1E+10	1	-1E+10	1
4902549	75	C	09/07/2022	23:12	-131.665	47.626	0	1215.00	0	2.9310	0	34.4310	0	27.445	0	1201.336	0	9.5	4	2.9	4	-1E+10	1	-1E+10	1	-1E+10	1	-1E+10	1	-1E+10	1	-1E+10	1
4902549	75	C	09/07/2022	23:12	-131.665	47.626	0	1225.30	0	2.8990	0	34.4370	0	27.452	0	1211.491	0	9.9	4	3.1	4	-1E+10	1	-1E+10	1	-1E+10	1	-1E+10	1	-1E+10	1	-1E+10	1
4902549	75	C	09/07/2022	23:12	-131.665	47.626	0	1235.40	0	2.8790	0	34.4400	0	27.457	0	1221.448	0	10.1	4	3.1	4	-1E+10	1	-1E+10	1	-1E+10	1	-1E+10	1	-1E+10	1	-1E+10	1
4902549	75	C	09/07/2022	23:12	-131.665	47.626	0	1245.20	0	2.8620	0	34.4420	0	27.460	0	1231.108	0	10.1	4	3.1	4	-1E+10	1	-1E+10	1	-1E+10	1	-1E+10	1	-1E+10	1	-1E+10	1
4902549	75	C	09/07/2022	23:12	-131.665	47.626	0	1255.30	0	2.8220	0	34.4400	0	27.462	0	1241.064	0	9.9	4	3.0	4	-1E+10	1	-1E+10	1	-1E+10	1	-1E+10	1	-1E+10	1	-1E+10	1
4902549	75	C	09/07/2022	23:12	-131.665	47.626	0	1265.00	0	2.7940	0	34.4400	0	27.464	0	1250.626	0	10.2	4	3.1	4	-1E+10	1	-1E+10	1	-1E+10	1	-1E+10	1	-1E+10	1	-1E+10	1
4902549	75	C	09/07/2022	23:12	-131.665	47.626	0	1275.20	0	2.7910	0	34.4430	0	27.467	0	1260.679	0	10.6	4	3.3	4	-1E+10	1	-1E+10	1	-1E+10	1	-1E+10	1	-1E+10	1	-1E+10	1
4902549	75	C	09/07/2022	23:12	-131.665	47.626	0	1285.50	0	2.7960	0	34.4490	0	27.471	0	1270.831	0	11.4	4	3.5	4	-1E+10	1	-1E+10	1	-1E+10	1	-1E+10	1	-1E+10	1	-1E+10	1
4902549	75	C	09/07/2022	23:12	-131.665	47.626	0	1295.30	0	2.7920	0	34.4540	0	27.476	0	1280.489	0	11.7	4	3.6	4	-1E+10	1	-1E+10	1	-1E+10	1	-1E+10	1	-1E+10	1	-1E+10	1
4902549	75	C	09/07/2022	23:12	-131.665	47.626	0	1305.30	0	2.7840	0	34.4560	0	27.478	0	1290.344	0	12.0	4	3.7	4	-1E+10	1	-1E+10	1	-1E+10	1	-1E+10	1	-1E+10	1	-1E+10	1
4902549	75	C	09/07/2022	23:12	-131.665	47.626	0	1315.50	0	2.7740	0	34.4570	0	27.480	0	1300.396	0	12.5	4	3.8	4	-1E+10	1	-1E+10	1	-1E+10	1	-1E+10	1	-1E+10	1	-1E+10	1
4902549	75	C	09/07/2022	23:12	-131.665	47.626	0	1325.30	0	2.7480	0	34.4610	0	27.485	0	1310.053	0	13.0	4	4.0	4	-1E+10	1	-1E+10	1	-1E+10	1	-1E+10	1	-1E+10	1	-1E+10	1
4902549	75	C	09/07/2022	23:12	-131.665	47.626	0	1335.20	0	2.7300	0	34.4650	0	27.490	0	1319.808	0	13.5	4	4.1	4	-1E+10	1	-1E+10	1	-1E+10	1	-1E+10	1	-1E+10	1	-1E+10	1
4902549	75	C	09/07/2022	23:12	-131.665	47.626	0	1345.20	0	2.7120	0	34.4680	0	27.494	0	1329.661	0	13.9	4	4.3	4	-1E+10	1	-1E+10	1	-1E+10	1	-1E+10	1	-1E+10	1	-1E+10	1
4902549	75	C	09/07/2022	23:12	-131.665	47.626	0	1355.40	0	2.6920	0	34.4720	0	27.499	0	1339.711	0	14.5	4	4.4	4	-1E+10	1	-1E+10	1	-1E+10	1	-1E+10	1	-1E+10	1	-1E+10	1
4902549	75	C	09/07/2022	23:12	-131.665	47.626	0	1365.20	0	2.6820	0	34.4740	0	27.502	0	1349.366	0	14.7	4	4.5	4	-1E+10	1	-1E+10	1	-1E+10	1	-1E+10	1	-1E+10	1	-1E+10	1
4902549	75	C	09/07/2022	23:12	-131.665	47.626	0	1375.00	0	2.6620	0	34.4750	0	27.504	0	1359.021	0	14.8	4	4.5	4	-1E+10	1	-1E+10	1	-1E+10	1	-1E+10	1	-1E+10	1	-1E+10	1
4902549	75	C	09/07/2022	23:12	-131.665	47.626	0	1385.40	0	2.6470	0	34.4770	0	27.507	0	1369.266	0	15.2	4	4.6	4	-1E+10	1	-1E+10	1	-1E+10	1	-1E+10	1	-1E+10	1	-1E+10	1
4902549	75	C	09/07/2022	23:12	-131.665	47.626	0	1395.40	0	2.6340	0	34.4780	0	27.509	0	1379.117	0	15.5	4	4.7	4	-1E+10	1	-1E+10	1	-1E+10	1	-1E+10	1	-1E+10	1	-1E+10	1
4902549	75	C	09/07/2022	23:12	-131.665	47.626	0	1405.40	0	2.6140	0	34.4800	0	27.513	0	1388.968	0	15.6	4	4.8	4	-1E+10	1	-1E+10	1	-1E+10	1	-1E+10	1	-1E+10	1	-1E+10	1
4902549	75	C	09/07/2022	23:12	-131.665	47.626	0	1415.30	0	2.6030	0	34.4790	0	27.513	0	1398.719	0	16.1	4	4.9	4	-1E+10	1	-1E+10	1	-1E+10	1	-1E+10	1	-1E+10	1	-1E+10	1
4902549	75	C	09/07/2022	23:12	-131.665	47.626	0	1425.30	0	2.5950	0	34.4850	0	27.518	0	1408.569	0	17.6	4	5.4	4	-1E+10	1	-1E+10	1	-1E+10	1	-1E+10	1	-1E+10	1	-1E+10	1
4902549	75	C	09/07/2022	23:12	-131.665	47.626	0	1435.70	0	2.5810	0	34.4910	0	27.524	0	1418.812	0	18.2	4	5.6	4	-1E+10	1	-1E+10	1	-1E+10	1	-1E+10	1	-1E+10	1	-1E+10	1
4902549	75	C	09/07/2022	23:12	-131.665	47.626	0	1445.50	0	2.5670	0	34.4920	0	27.526	0	1428.463	0	18.6	4	5.7	4	-1E+10	1	-1E+10	1	-1E+10	1	-1E+10	1	-1E+10	1	-1E+10	1
4902549	75	C	09/07/2022	23:12	-131.665	47.626	0	1455.20	0	2.5430	0	34.4950	0	27.531	0	1438.016	0	19.1	4	5.8	4	-1E+10	1	-1E+10	1	-1E+10	1	-1E+10	1	-1E+10	1	-1E+10	1
4902549	75	C	09/07/2022	23:12	-131.665	47.626	0	1465.20	0	2.5210	0	34.4970	0	27.534	0	1447.864	0	19.7	4	6.0	4	-1E+10	1	-1E+10	1	-1E+10	1	-1E+10	1	-1E+10	1	-1E+10	1
4902549	75	C	09/07/2022	23:12	-131.665	47.626	0	1475.30	0	2.4980	0	34.5000	0	27.539	0	1457.809	0	20.2	4	6.2	4	-1E+10	1	-1E+10	1	-1E+10	1	-1E+10	1	-1E+10	1	-1E+10	1
4902549	75	C	09/07/2022	23:12	-131.665	47.626	0	1485.60	0	2.4820	0	34.5010	0	27.541	0	1467.951	0	20.5	4	6.3	4	-1E+10	1	-1E+10	1	-1E+10	1	-1E+10	1	-1E+10	1	-1E+10	1
4902549	75	C	09/07/2022	23:12	-131.665	47.626	0	1495.50	0	2.4620	0	34.5030	0	27.544	0	1477.699	0	20.9	4	6.4	4	-1E+10	1	-1E+10	1	-1E+10	1	-1E+10	1	-1E+10	1	-1E+10	1
4902549	75	C	09/07/2022	23:12	-131.665	47.626	0	1505.50	0	2.4520	0	34.5040	0	27.546	0	1487.545	0	21.2	4	6.5	4	-1E+10	1	-1E+10	1	-1E+10	1	-1E+10	1	-1E+10	1	-1E+10	1
4902549	75	C	09/07/2022	23:12	-131.665	47.626	0	1515.70	0	2.4370	0	34.5050	0	27.548	0	1497.587	0	21.9	4	6.7	4	-1E+10	1	-1E+10	1	-1E+10	1	-1E+10	1	-1E+10	1	-1E+10	1
4902549	75	C	09/07/2022	23:12	-131.665	47.626	0	1525.40	0	2.4240	0	34.5070	0	27.551	0	1507.137	0	22.5	4	6.8	4	-1E+10	1	-1E+10	1	-1E+10	1	-1E+10	1	-1E+10	1	-1E+10	1
4902549	75	C	09/07/2022	23:12	-131.665	47.626	0	1535.20	0	2.4080	0	34.5100	0	27.555	0	1516.784	0	23.2	4	7.1	4	-1E+10	1	-1E+10	1	-1E+10	1	-1E+10	1	-1E+10	1	-1E+10	1
4902549	75	C	09/07/2022	23:12	-131.665	47.626	0	1545.10	0	2.3870	0	34.5120	0	27.558	0	1526.530	0	23.7	4	7.2	4	-1E+10	1	-1E+10	1	-1E+10	1	-1E+10	1	-1E+10	1	-1E+10	1
4902549	75	C	09/07/2022	23:12	-131.665	47.626	0	1555.30	0	2.3760	0	34.5140	0	27.560	0	1536.570	0	24.2	4	7.3	4	-1E+10	1	-1E+10	1	-1E+10	1	-1E+10	1	-1E+10	1	-1E+10	1
4902549	75	C	09/07/2022	23:12	-131.665	47.626	0	1565.80	0	2.3670	0	34.5150	0	27.562	0	1546.905	0	24.8	4	7.6	4	-1E+10	1	-1E+10	1	-1E+10	1	-1E+10	1	-1E+10	1	-1E+10	1
4902549	75	C	09/07/2022	23:12	-131.665	47.626	0	1575.80	0	2.3430	0	34.5180	0	27.567	0	1556.748	0	25.5	4	7.7	4	-1E+10	1	-1E+10	1	-1E+10	1	-1E+10	1	-1E+10	1	-1E+10	1
4902549	75	C	09/07/2022	23:12	-131.665	47.626	0	1585.90	0	2.3350	0	34.5190	0	27.568	0	1566.688	0	25.8	4	7.8	4	-1E+10	1	-1E+10	1	-1E+10	1	-1E+10	1	-1E+10	1	-1E+10	1
4902549	75	C	09/07/2022	23:12	-131.665	47.626	0	1595.80	0	2.3280	0	34.5210	0	27.570	0	1576.432	0	26.3	4	8.0	4	-1E+10	1	-1E+10	1	-1E+10	1	-1E+10	1	-1E+10	1	-1E+10	1
4902549	75	C	09/07/2022	23:12	-131.665	47.626	0	1605.60	0	2.3160	0	34.5230	0	27.573	0	1586.076	0	26.9	4	8.2	4	-1E+10	1	-1E+10	1	-1E+10	1	-1E+10	1	-1E+10	1	-1E+10	1
4902549	75	C	09/07/2022	23:12	-131.665	47.626	0	1615.40	0	2.3090	0	34.5240	0	27.574	0	1595.720	0	27.4	4	8.3	4	-1E+10	1	-1E+10	1	-1E+10	1	-1E+10	1	-1E+10	1	-1E+10	1
4902549	75	C	09/07/2022	23:12	-131.665	47.626	0	1625.10	0	2.2950	0	34.5260	0	27.577	0	1605.265	0	28.0	4	8.5	4	-1E+10	1	-1E+10	1	-1E+10	1	-1E+10	1	-1E+10	1	-1E+10	1
4902549	75	C	09/07/2022	23:12	-131.665	47.626	0	1635.40	0	2.2810	0	34.5280	0	27.580	0	1615.400	0	28.5	4	8.7	4	-1E+10	1	-1E+10	1	-1E+10	1	-1E+10	1	-1E+10	1	-1E+10	1
4902549	75	C	09/07/2022	23:12	-131.665	47.626	0	1645.80	0	2.2690	0	34.5300	0	27.583	0	1625.633	0	29.2	4	8.9	4	-1E+10	1	-1E+10	1	-1E+10	1	-1E+10	1	-1E+10	1	-1E+10	1
4902549	75	C	09/07/2022	23:12	-131.665	47.626	0	1655.80	0	2.2590	0	34.5310	0	27.584	0	1635.472	0	29.6	4	9.0	4	-1E+10	1	-1E+10	1	-1E+10	1	-1E+10	1	-1E+10	1	-1E+10	1
4902549	75	C	09/07/2022	23:12	-131.665	47.626	0	1665.90	0	2.2490	0	34.5330	0	27.587	0	1645.409	0	30.1	4	9.1	4	-1E+10	1	-1E+10	1	-1E+10	1	-1E+10	1	-1E+10	1	-1E+10	1
4902549	75	C	09/07/2022	23:12	-131.665	47.626	0	1675.50	0	2.2440	0	34.5340	0	27.588	0	1654.853	0	30.5	4	9.3	4	-1E+10	1	-1E+10	1	-1E+10	1	-1E+10	1	-1E+10	1	-1E+10	1
4902549	75	C	09/07/2022	23:12	-131.665	47.626	0	1685.30	0	2.2330	0	34.5350	0	27.590	0	1664.494	0	31.3	4	9.5	4	-1E+10	1	-1E+10	1	-1E+10	1	-1E+10	1	-1E+10	1	-1E+10	1
4902549	75	C	09/07/2022	23:12	-131.665	47.626	0	1695.30	0	2.2120	0	34.5380	0	27.594	0	1674.331	0	32.0	4	9.7	4	-1E+10	1	-1E+10	1	-1E+10	1	-1E+10	1	-1E+10	1	-1E+10	1
4902549	75	C	09/07/2022	23:12	-131.665	47.626	0	1705.20	0	2.2090	0	34.5390	0	27.595	0	1684.069	0	32.4	4	9.8	4	-1E+10	1	-1E+10	1	-1E+10	1	-1E+10	1	-1E+10	1	-1E+10	1
4902549	75	C	09/07/2022	23:12	-131.665	47.626	0	1715.30	0	2.1970	0	34.5410	0	27.597	0	1694.004	0	33.3	4	10.1	4	-1E+10	1	-1E+10	1	-1E+10	1	-1E+10	1	-1E+10	1	-1E+10	1
4902549	75	C	09/07/2022	23:12	-131.665	47.626	0	1725.30	0	2.1810	0	34.5430	0	27.600	0	1703.840	0	33.9	4	10.3	4	-1E+10	1	-1E+10	1	-1E+10	1	-1E+10	1	-1E+10	1	-1E+10	1
4902549	75	C	09/07/2022	23:12	-131.665	47.626	0	1735.30	0	2.1770	0	34.5440	0	27.602	0	1713.675	0	34.5	4	10.4	4	-1E+10	1	-1E+10	1	-1E+10	1	-1E+10	1	-1E+10	1	-1E+10	1
4902549	75	C	09/07/2022	23:12	-131.665	47.626	0	1745.60	0	2.1650	0	34.5460	0	27.604	0	1723.805	0	35.0	4	10.6	4	-1E+10	1	-1E+10	1	-1E+10	1	-1E+10	1	-1E+10	1	-1E+10	1
4902549	75	C	09/07/2022	23:12	-131.665	47.626	0	1755.60	0	2.1600	0	34.5470	0	27.605	0	1733.639	0	35.6	4	10.8	4	-1E+10	1	-1E+10	1	-1E+10	1	-1E+10	1	-1E+10	1	-1E+10	1
4902549	75	C	09/07/2022	23:12	-131.665	47.626	0	1765.50	0	2.1420	0	34.5490	0	27.609	0	1743.374	0	36.4	4	11.0	4	-1E+10	1	-1E+10	1	-1E+10	1	-1E+10	1	-1E+10	1	-1E+10	1
4902549	75	C	09/07/2022	23:12	-131.665	47.626	0	1775.50	0	2.1160	0	34.5520	0	27.613	0	1753.208	0	37.2	4	11.2	4	-1E+10	1	-1E+10	1	-1E+10	1	-1E+10	1	-1E+10	1	-1E+10	1
4902549	75	C	09/07/2022	23:12	-131.665	47.626	0	1785.40	0	2.1010	0	34.5530	0	27.615	0	1762.943	0	37.8	4	11.4	4	-1E+10	1	-1E+10	1	-1E+10	1	-1E+10	1	-1E+10	1	-1E+10	1
4902549	75	C	09/07/2022	23:12	-131.665	47.626	0	1795.60	0	2.1030	0	34.5550	0	27.617	0	1772.972	0	38.7	4	11.7	4	-1E+10	1	-1E+10	1	-1E+10	1	-1E+10	1	-1E+10	1	-1E+10	1
4902549	75	C	09/07/2022	23:12	-131.665	47.626	0	1805.40	0	2.0890	0	34.5570	0	27.619	0	1782.607	0	39.9	4	12.1	4	-1E+10	1	-1E+10	1	-1E+10	1	-1E+10	1	-1E+10	1	-1E+10	1
4902549	75	C	09/07/2022	23:12	-131.665	47.626	0	1815.10	0	2.0640	0	34.5610	0	27.625	0	1792.144	0	41.2	4	12.4	4	-1E+10	1	-1E+10	1	-1E+10	1	-1E+10	1	-1E+10	1	-1E+10	1
4902549	75	C	09/07/2022	23:12	-131.665	47.626	0	1825.30	0	2.0550	0	34.5630	0	27.627	0	1802.172	0	41.7	4	12.6	4	-1E+10	1	-1E+10	1	-1E+10	1	-1E+10	1	-1E+10	1	-1E+10	1
4902549	75	C	09/07/2022	23:12	-131.665	47.626	0	1835.60	0	2.0540	0	34.5640	0	27.628	0	1812.297	0	42.2	4	12.7	4	-1E+10	1	-1E+10	1	-1E+10	1	-1E+10	1	-1E+10	1	-1E+10	1
4902549	75	C	09/07/2022	23:12	-131.665	47.626	0	1845.70	0	2.0520	0	34.5640	0	27.628	0	1822.226	0	42.8	4	12.9	4	-1E+10	1	-1E+10	1	-1E+10	1	-1E+10	1	-1E+10	1	-1E+10	1
4902549	75	C	09/07/2022	23:12	-131.665	47.626	0	1855.30	0	2.0450	0	34.5660	0	27.630	0	1831.662	0	43.9	4	13.3	4	-1E+10	1	-1E+10	1	-1E+10	1	-1E+10	1	-1E+10	1	-1E+10	1
4902549	75	C	09/07/2022	23:12	-131.665	47.626	0	1865.40	0	2.0210	0	34.5700	0	27.635	0	1841.590	0	45.4	4	13.7	4	-1E+10	1	-1E+10	1	-1E+10	1	-1E+10	1	-1E+10	1	-1E+10	1
4902549	75	C	09/07/2022	23:12	-131.665	47.626	0	1875.30	0	2.0090	0	34.5720	0	27.638	0	1851.320	0	46.0	4	13.9	4	-1E+10	1	-1E+10	1	-1E+10	1	-1E+10	1	-1E+10	1	-1E+10	1
4902549	75	C	09/07/2022	23:12	-131.665	47.626	0	1885.30	0	2.0050	0	34.5730	0	27.639	0	1861.149	0	46.3	4	14.0	4	-1E+10	1	-1E+10	1	-1E+10	1	-1E+10	1	-1E+10	1	-1E+10	1
4902549	75	C	09/07/2022	23:12	-131.665	47.626	0	1895.70	0	2.0020	0	34.5740	0	27.640	0	1871.370	0	46.7	4	14.1	4	-1E+10	1	-1E+10	1	-1E+10	1	-1E+10	1	-1E+10	1	-1E+10	1
4902549	75	C	09/07/2022	23:12	-131.665	47.626	0	1905.40	0	1.9970	0	34.5750	0	27.641	0	1880.903	0	47.3	4	14.2	4	-1E+10	1	-1E+10	1	-1E+10	1	-1E+10	1	-1E+10	1	-1E+10	1
4902549	75	C	09/07/2022	23:12	-131.665	47.626	0	1915.30	0	1.9900	0	34.5760	0	27.643	0	1890.631	0	47.9	4	14.4	4	-1E+10	1	-1E+10	1	-1E+10	1	-1E+10	1	-1E+10	1	-1E+10	1
4902549	75	C	09/07/2022	23:12	-131.665	47.626	0	1925.50	0	1.9820	0	34.5780	0	27.645	0	1900.654	0	48.8	4	14.7	4	-1E+10	1	-1E+10	1	-1E+10	1	-1E+10	1	-1E+10	1	-1E+10	1
4902549	75	C	09/07/2022	23:12	-131.665	47.626	0	1935.50	0	1.9680	0	34.5810	0	27.649	0	1910.480	0	49.4	4	14.9	4	-1E+10	1	-1E+10	1	-1E+10	1	-1E+10	1	-1E+10	1	-1E+10	1
4902549	75	C	09/07/2022	23:12	-131.665	47.626	0	1945.40	0	1.9670	0	34.5810	0	27.649	0	1920.208	0	49.5	4	14.9	4	-1E+10	1	-1E+10	1	-1E+10	1	-1E+10	1	-1E+10	1	-1E+10	1
4902549	75	C	09/07/2022	23:12	-131.665	47.626	0	1955.60	0	1.9650	0	34.5810	0	27.649	0	1930.230	0	49.7	4	15.0	4	-1E+10	1	-1E+10	1	-1E+10	1	-1E+10	1	-1E+10	1	-1E+10	1
4902549	75	C	09/07/2022	23:12	-131.665	47.626	0	1965.90	0	1.9630	0	34.5820	0	27.650	0	1940.349	0	49.8	4	15.0	4	-1E+10	1	-1E+10	1	-1E+10	1	-1E+10	1	-1E+10	1	-1E+10	1
4902549	75	C	09/07/2022	23:12	-131.665	47.626	0	1975.90	0	1.9590	0	34.5830	0	27.651	0	1950.173	0	49.9	4	15.0	4	-1E+10	1	-1E+10	1	-1E+10	1	-1E+10	1	-1E+10	1	-1E+10	1
4902549	75	C	09/07/2022	23:12	-131.665	47.626	0	1983.10	0	1.9610	0	34.5820	0	27.650	0	1957.247	0	49.5	4	14.9	4	-1E+10	1	-1E+10	1	-1E+10	1	-1E+10	1	-1E+10	1	-1E+10	1
4902549	75	C	09/07/2022	23:12	-131.665	47.626	0																										
4902549	76	C	09/18/2022	04:00	-131.495	47.455	0	0.00	0	17.1800	0	32.2760	0	23.383	0	0.000	0	245.0	4	101.2	4	-1E+10	1	-1E+10	1	-1E+10	1	-1E+10	1	-1E+10	1	-1E+10	1
4902549	76	C	09/18/2022	04:00	-131.495	47.455	0	0.10	0	17.1910	0	32.2660	0	23.373	0	0.099	0	239.4	4	98.9	4	-1E+10	1	-1E+10	1	-1E+10	1	-1E+10	1	-1E+10	1	-1E+10	1
4902549	76	C	09/18/2022	04:00	-131.495	47.455	0	1.00	0	17.1940	0	32.2670	0	23.373	0	0.992	0	239.4	4	98.9	4	-1E+10	1	-1E+10	1	-1E+10	1	-1E+10	1	-1E+10	1	-1E+10	1
4902549	76	C	09/18/2022	04:00	-131.495	47.455	0	2.10	0	17.1930	0	32.2680	0	23.374	0	2.082	0	239.5	4	99.0	4	-1E+10	1	-1E+10	1	-1E+10	1	-1E+10	1	-1E+10	1	-1E+10	1
4902549	76	C	09/18/2022	04:00	-131.495	47.455	0	3.00	0	17.1880	0	32.2730	0	23.379	0	2.975	0	239.5	4	99.0	4	-1E+10	1	-1E+10	1	-1E+10	1	-1E+10	1	-1E+10	1	-1E+10	1
4902549	76	C	09/18/2022	04:00	-131.495	47.455	0	4.20	0	17.1930	0	32.2720	0	23.378	0	4.165	0	239.4	4	98.9	4	-1E+10	1	-1E+10	1	-1E+10	1	-1E+10	1	-1E+10	1	-1E+10	1
4902549	76	C	09/18/2022	04:00	-131.495	47.455	0	5.10	0	17.1890	0	32.2730	0	23.379	0	5.057	0	239.4	4	98.9	4	-1E+10	1	-1E+10	1	-1E+10	1	-1E+10	1	-1E+10	1	-1E+10	1
4902549	76	C	09/18/2022	04:00	-131.495	47.455	0	6.00	0	17.1820	0	32.2740	0	23.382	0	5.950	0	239.4	4	98.9	4	-1E+10	1	-1E+10	1	-1E+10	1	-1E+10	1	-1E+10	1	-1E+10	1
4902549	76	C	09/18/2022	04:00	-131.495	47.455	0	7.00	0	17.1980	0	32.2740	0	23.378	0	6.941	0	239.3	4	98.9	4	-1E+10	1	-1E+10	1	-1E+10	1	-1E+10	1	-1E+10	1	-1E+10	1
4902549	76	C	09/18/2022	04:00	-131.495	47.455	0	8.00	0	17.1980	0	32.2740	0	23.378	0	7.933	0	239.5	4	99.0	4	-1E+10	1	-1E+10	1	-1E+10	1	-1E+10	1	-1E+10	1	-1E+10	1
4902549	76	C	09/18/2022	04:00	-131.495	47.455	0	8.90	0	17.1960	0	32.2760	0	23.380	0	8.826	0	239.5	4	99.0	4	-1E+10	1	-1E+10	1	-1E+10	1	-1E+10	1	-1E+10	1	-1E+10	1
4902549	76	C	09/18/2022	04:00	-131.495	47.455	0	9.90	0	17.1840	0	32.2740	0	23.381	0	9.817	0	239.5	4	99.0	4	-1E+10	1	-1E+10	1	-1E+10	1	-1E+10	1	-1E+10	1	-1E+10	1
4902549	76	C	09/18/2022	04:00	-131.495	47.455	0	11.00	0	17.1820	0	32.2700	0	23.379	0	10.908	0	239.6	4	99.0	4	-1E+10	1	-1E+10	1	-1E+10	1	-1E+10	1	-1E+10	1	-1E+10	1
4902549	76	C	09/18/2022	04:00	-131.495	47.455	0	11.90	0	17.1660	0	32.2750	0	23.386	0	11.800	0	239.7	4	99.0	4	-1E+10	1	-1E+10	1	-1E+10	1	-1E+10	1	-1E+10	1	-1E+10	1
4902549	76	C	09/18/2022	04:00	-131.495	47.455	0	12.80	0	17.1650	0	32.2680	0	23.381	0	12.693	0	239.8	4	99.0	4	-1E+10	1	-1E+10	1	-1E+10	1	-1E+10	1	-1E+10	1	-1E+10	1
4902549	76	C	09/18/2022	04:00	-131.495	47.455	0	13.90	0	17.1260	0	32.2850	0	23.404	0	13.784	0	239.7	4	98.9	4	-1E+10	1	-1E+10	1	-1E+10	1	-1E+10	1	-1E+10	1	-1E+10	1
4902549	76	C	09/18/2022	04:00	-131.495	47.455	0	14.90	0	17.1270	0	32.2730	0	23.394	0	14.775	0	240.0	4	99.0	4	-1E+10	1	-1E+10	1	-1E+10	1	-1E+10	1	-1E+10	1	-1E+10	1
4902549	76	C	09/18/2022	04:00	-131.495	47.455	0	15.90	0	17.1060	0	32.2760	0	23.401	0	15.767	0	239.9	4	99.0	4	-1E+10	1	-1E+10	1	-1E+10	1	-1E+10	1	-1E+10	1	-1E+10	1
4902549	76	C	09/18/2022	04:00	-131.495	47.455	0	16.90	0	17.0930	0	32.2780	0	23.406	0	16.758	0	239.9	4	99.0	4	-1E+10	1	-1E+10	1	-1E+10	1	-1E+10	1	-1E+10	1	-1E+10	1
4902549	76	C	09/18/2022	04:00	-131.495	47.455	0	18.00	0	17.1170	0	32.2700	0	23.394	0	17.849	0	239.9	4	99.0	4	-1E+10	1	-1E+10	1	-1E+10	1	-1E+10	1	-1E+10	1	-1E+10	1
4902549	76	C	09/18/2022	04:00	-131.495	47.455	0	19.00	0	17.0520	0	32.2700	0	23.410	0	18.841	0	240.1	4	99.0	4	-1E+10	1	-1E+10	1	-1E+10	1	-1E+10	1	-1E+10	1	-1E+10	1
4902549	76	C	09/18/2022	04:00	-131.495	47.455	0	20.00	0	17.0480	0	32.2710	0	23.411	0	19.832	0	240.2	4	99.0	4	-1E+10	1	-1E+10	1	-1E+10	1	-1E+10	1	-1E+10	1	-1E+10	1
4902549	76	C	09/18/2022	04:00	-131.495	47.455	0	21.00	0	17.0450	0	32.2700	0	23.411	0	20.824	0	240.1	4	98.9	4	-1E+10	1	-1E+10	1	-1E+10	1	-1E+10	1	-1E+10	1	-1E+10	1
4902549	76	C	09/18/2022	04:00	-131.495	47.455	0	22.00	0	17.0440	0	32.2710	0	23.412	0	21.815	0	240.1	4	98.9	4	-1E+10	1	-1E+10	1	-1E+10	1	-1E+10	1	-1E+10	1	-1E+10	1
4902549	76	C	09/18/2022	04:00	-131.495	47.455	0	23.00	0	17.0440	0	32.2710	0	23.412	0	22.807	0	240.1	4	99.0	4	-1E+10	1	-1E+10	1	-1E+10	1	-1E+10	1	-1E+10	1	-1E+10	1
4902549	76	C	09/18/2022	04:00	-131.495	47.455	0	24.00	0	17.0450	0	32.2710	0	23.412	0	23.798	0	240.1	4	98.9	4	-1E+10	1	-1E+10	1	-1E+10	1	-1E+10	1	-1E+10	1	-1E+10	1
4902549	76	C	09/18/2022	04:00	-131.495	47.455	0	25.00	0	17.0430	0	32.2720	0	23.413	0	24.790	0	240.2	4	99.0	4	-1E+10	1	-1E+10	1	-1E+10	1	-1E+10	1	-1E+10	1	-1E+10	1
4902549	76	C	09/18/2022	04:00	-131.495	47.455	0	26.00	0	17.0410	0	32.2720	0	23.414	0	25.781	0	240.2	4	99.0	4	-1E+10	1	-1E+10	1	-1E+10	1	-1E+10	1	-1E+10	1	-1E+10	1
4902549	76	C	09/18/2022	04:00	-131.495	47.455	0	26.90	0	17.0400	0	32.2720	0	23.414	0	26.674	0	240.3	4	99.0	4	-1E+10	1	-1E+10	1	-1E+10	1	-1E+10	1	-1E+10	1	-1E+10	1
4902549	76	C	09/18/2022	04:00	-131.495	47.455	0	27.90	0	17.0380	0	32.2720	0	23.415	0	27.665	0	240.3	4	99.0	4	-1E+10	1	-1E+10	1	-1E+10	1	-1E+10	1	-1E+10	1	-1E+10	1
4902549	76	C	09/18/2022	04:00	-131.495	47.455	0	28.80	0	17.0370	0	32.2710	0	23.414	0	28.558	0	240.6	4	99.1	4	-1E+10	1	-1E+10	1	-1E+10	1	-1E+10	1	-1E+10	1	-1E+10	1
4902549	76	C	09/18/2022	04:00	-131.495	47.455	0	29.80	0	17.0340	0	32.2720	0	23.416	0	29.549	0	241.1	4	99.3	4	-1E+10	1	-1E+10	1	-1E+10	1	-1E+10	1	-1E+10	1	-1E+10	1
4902549	76	C	09/18/2022	04:00	-131.495	47.455	0	30.80	0	17.0330	0	32.2710	0	23.415	0	30.541	0	241.6	4	99.6	4	-1E+10	1	-1E+10	1	-1E+10	1	-1E+10	1	-1E+10	1	-1E+10	1
4902549	76	C	09/18/2022	04:00	-131.495	47.455	0	31.90	0	17.0310	0	32.2710	0	23.416	0	31.631	0	242.5	4	99.9	4	-1E+10	1	-1E+10	1	-1E+10	1	-1E+10	1	-1E+10	1	-1E+10	1
4902549	76	C	09/18/2022	04:00	-131.495	47.455	0	32.90	0	17.0250	0	32.2700	0	23.416	0	32.623	0	244.3	4	100.6	4	-1E+10	1	-1E+10	1	-1E+10	1	-1E+10	1	-1E+10	1	-1E+10	1
4902549	76	C	09/18/2022	04:00	-131.495	47.455	0	34.00	0	16.5270	0	32.2540	0	23.519	0	33.714	0	251.1	4	102.5	4	-1E+10	1	-1E+10	1	-1E+10	1	-1E+10	1	-1E+10	1	-1E+10	1
4902549	76	C	09/18/2022	04:00	-131.495	47.455	0	35.00	0	15.7170	0	32.2490	0	23.698	0	34.705	0	256.2	4	102.9	4	-1E+10	1	-1E+10	1	-1E+10	1	-1E+10	1	-1E+10	1	-1E+10	1
4902549	76	C	09/18/2022	04:00	-131.495	47.455	0	35.90	0	15.6030	0	32.2390	0	23.715	0	35.597	0	257.7	4	103.3	4	-1E+10	1	-1E+10	1	-1E+10	1	-1E+10	1	-1E+10	1	-1E+10	1
4902549	76	C	09/18/2022	04:00	-131.495	47.455	0	36.90	0	15.0170	0	32.2290	0	23.835	0	36.589	0	261.3	4	103.5	4	-1E+10	1	-1E+10	1	-1E+10	1	-1E+10	1	-1E+10	1	-1E+10	1
4902549	76	C	09/18/2022	04:00	-131.495	47.455	0	38.10	0	14.4200	0	32.2210	0	23.955	0	37.779	0	265.5	4	103.9	4	-1E+10	1	-1E+10	1	-1E+10	1	-1E+10	1	-1E+10	1	-1E+10	1
4902549	76	C	09/18/2022	04:00	-131.495	47.455	0	38.80	0	14.1580	0	32.2180	0	24.007	0	38.473	0	266.6	4	103.8	4	-1E+10	1	-1E+10	1	-1E+10	1	-1E+10	1	-1E+10	1	-1E+10	1
4902549	76	C	09/18/2022	04:00	-131.495	47.455	0	40.10	0	13.0730	0	32.2040	0	24.215	0	39.762	0	270.2	4	102.9	4	-1E+10	1	-1E+10	1	-1E+10	1	-1E+10	1	-1E+10	1	-1E+10	1
4902549	76	C	09/18/2022	04:00	-131.495	47.455	0	41.00	0	12.1880	0	32.1940	0	24.377	0	40.654	0	269.2	4	100.7	4	-1E+10	1	-1E+10	1	-1E+10	1	-1E+10	1	-1E+10	1	-1E+10	1
4902549	76	C	09/18/2022	04:00	-131.495	47.455	0	41.90	0	11.5220	0	32.1960	0	24.501	0	41.546	0	269.4	4	99.3	4	-1E+10	1	-1E+10	1	-1E+10	1	-1E+10	1	-1E+10	1	-1E+10	1
4902549	76	C	09/18/2022	04:00	-131.495	47.455	0	43.00	0	11.1180	0	32.2010	0	24.577	0	42.637	0	269.0	4	98.3	4	-1E+10	1	-1E+10	1	-1E+10	1	-1E+10	1	-1E+10	1	-1E+10	1
4902549	76	C	09/18/2022	04:00	-131.495	47.455	0	44.30	0	10.9400	0	32.1990	0	24.607	0	43.926	0	267.7	4	97.5	4	-1E+10	1	-1E+10	1	-1E+10	1	-1E+10	1	-1E+10	1	-1E+10	1
4902549	76	C	09/18/2022	04:00	-131.495	47.455	0	44.90	0	10.8340	0	32.2000	0	24.626	0	44.521	0	267.1	4	97.0	4	-1E+10	1	-1E+10	1	-1E+10	1	-1E+10	1	-1E+10	1	-1E+10	1
4902549	76	C	09/18/2022	04:00	-131.495	47.455	0	46.10	0	10.5960	0	32.2040	0	24.670	0	45.710	0	266.6	4	96.4	4	-1E+10	1	-1E+10	1	-1E+10	1	-1E+10	1	-1E+10	1	-1E+10	1
4902549	76	C	09/18/2022	04:00	-131.495	47.455	0	46.90	0	10.5220	0	32.2040	0	24.683	0	46.503	0	266.0	4	96.0	4	-1E+10	1	-1E+10	1	-1E+10	1	-1E+10	1	-1E+10	1	-1E+10	1
4902549	76	C	09/18/2022	04:00	-131.495	47.455	0	48.00	0	10.3400	0	32.2100	0	24.719	0	47.594	0	265.7	4	95.5	4	-1E+10	1	-1E+10	1	-1E+10	1	-1E+10	1	-1E+10	1	-1E+10	1
4902549	76	C	09/18/2022	04:00	-131.495	47.455	0	49.10	0	10.2090	0	32.2190	0	24.748	0	48.685	0	264.9	4	95.0	4	-1E+10	1	-1E+10	1	-1E+10	1	-1E+10	1	-1E+10	1	-1E+10	1
4902549	76	C	09/18/2022	04:00	-131.495	47.455	0	50.10	0	10.0430	0	32.2250	0	24.780	0	49.676	0	264.8	4	94.6	4	-1E+10	1	-1E+10	1	-1E+10	1	-1E+10	1	-1E+10	1	-1E+10	1
4902549	76	C	09/18/2022	04:00	-131.495	47.455	0	51.00	0	10.0050	0	32.2210	0	24.783	0	50.568	0	264.5	4	94.4	4	-1E+10	1	-1E+10	1	-1E+10	1	-1E+10	1	-1E+10	1	-1E+10	1
4902549	76	C	09/18/2022	04:00	-131.495	47.455	0	52.00	0	9.9600	0	32.2230	0	24.792	0	51.560	0	263.8	4	94.1	4	-1E+10	1	-1E+10	1	-1E+10	1	-1E+10	1	-1E+10	1	-1E+10	1
4902549	76	C	09/18/2022	04:00	-131.495	47.455	0	53.00	0	9.7890	0	32.2300	0	24.826	0	52.551	0	264.0	4	93.8	4	-1E+10	1	-1E+10	1	-1E+10	1	-1E+10	1	-1E+10	1	-1E+10	1
4902549	76	C	09/18/2022	04:00	-131.495	47.455	0	54.10	0	9.7200	0	32.2360	0	24.842	0	53.642	0	263.8	4	93.6	4	-1E+10	1	-1E+10	1	-1E+10	1	-1E+10	1	-1E+10	1	-1E+10	1
4902549	76	C	09/18/2022	04:00	-131.495	47.455	0	54.80	0	9.6990	0	32.2340	0	24.843	0	54.336	0	263.4	4	93.4	4	-1E+10	1	-1E+10	1	-1E+10	1	-1E+10	1	-1E+10	1	-1E+10	1
4902549	76	C	09/18/2022	04:00	-131.495	47.455	0	55.80	0	9.6850	0	32.2320	0	24.844	0	55.327	0	263.0	4	93.2	4	-1E+10	1	-1E+10	1	-1E+10	1	-1E+10	1	-1E+10	1	-1E+10	1
4902549	76	C	09/18/2022	04:00	-131.495	47.455	0	57.10	0	9.6620	0	32.2350	0	24.850	0	56.616	0	261.9	4	92.8	4	-1E+10	1	-1E+10	1	-1E+10	1	-1E+10	1	-1E+10	1	-1E+10	1
4902549	76	C	09/18/2022	04:00	-131.495	47.455	0	58.10	0	9.5780	0	32.2360	0	24.865	0	57.607	0	261.8	4	92.6	4	-1E+10	1	-1E+10	1	-1E+10	1	-1E+10	1	-1E+10	1	-1E+10	1
4902549	76	C	09/18/2022	04:00	-131.495	47.455	0	59.00	0	9.5410	0	32.2380	0	24.872	0	58.499	0	261.2	4	92.3	4	-1E+10	1	-1E+10	1	-1E+10	1	-1E+10	1	-1E+10	1	-1E+10	1
4902549	76	C	09/18/2022	04:00	-131.495	47.455	0	60.00	0	9.4160	0	32.2500	0	24.901	0	59.491	0	261.2	4	92.1	4	-1E+10	1	-1E+10	1	-1E+10	1	-1E+10	1	-1E+10	1	-1E+10	1
4902549	76	C	09/18/2022	04:00	-131.495	47.455	0	60.90	0	9.3540	0	32.2510	0	24.912	0	60.383	0	261.2	4	91.9	4	-1E+10	1	-1E+10	1	-1E+10	1	-1E+10	1	-1E+10	1	-1E+10	1
4902549	76	C	09/18/2022	04:00	-131.495	47.455	0	62.10	0	9.3430	0	32.2480	0	24.911	0	61.573	0	260.5	4	91.7	4	-1E+10	1	-1E+10	1	-1E+10	1	-1E+10	1	-1E+10	1	-1E+10	1
4902549	76	C	09/18/2022	04:00	-131.495	47.455	0	63.00	0	9.2980	0	32.2500	0	24.920	0	62.465	0	260.1	4	91.4	4	-1E+10	1	-1E+10	1	-1E+10	1	-1E+10	1	-1E+10	1	-1E+10	1
4902549	76	C	09/18/2022	04:00	-131.495	47.455	0	63.90	0	9.2020	0	32.2610	0	24.944	0	63.357	0	260.0	4	91.2	4	-1E+10	1	-1E+10	1	-1E+10	1	-1E+10	1	-1E+10	1	-1E+10	1
4902549	76	C	09/18/2022	04:00	-131.495	47.455	0	65.00	0	9.1930	0	32.2600	0	24.945	0	64.448	0	259.4	4	91.0	4	-1E+10	1	-1E+10	1	-1E+10	1	-1E+10	1	-1E+10	1	-1E+10	1
4902549	76	C	09/18/2022	04:00	-131.495	47.455	0	66.10	0	9.1900	0	32.2580	0	24.943	0	65.538	0	258.4	4	90.7	4	-1E+10	1	-1E+10	1	-1E+10	1	-1E+10	1	-1E+10	1	-1E+10	1
4902549	76	C	09/18/2022	04:00	-131.495	47.455	0	67.10	0	9.1880	0	32.2580	0	24.944	0	66.529	0	257.3	4	90.3	4	-1E+10	1	-1E+10	1	-1E+10	1	-1E+10	1	-1E+10	1	-1E+10	1
4902549	76	C	09/18/2022	04:00	-131.495	47.455	0	68.30	0	9.0580	0	32.2720	0	24.975	0	67.719	0	256.8	4	89.8	4	-1E+10	1	-1E+10	1	-1E+10	1	-1E+10	1	-1E+10	1	-1E+10	1
4902549	76	C	09/18/2022	04:00	-131.495	47.455	0	69.00	0	8.9870	0	32.2740	0	24.988	0	68.413	0	256.1	4	89.5	4	-1E+10	1	-1E+10	1	-1E+10	1	-1E+10	1	-1E+10	1	-1E+10	1
4902549	76	C	09/18/2022	04:00	-131.495	47.455	0	70.10	0	8.9420	0	32.2780	0	24.998	0	69.503	0	254.8	4	88.9	4	-1E+10	1	-1E+10	1	-1E+10	1	-1E+10	1	-1E+10	1	-1E+10	1
4902549	76	C	09/18/2022	04:00	-131.495	47.455	0	71.10	0	8.8630	0	32.2840	0	25.015	0	70.495	0	254.0	4	88.5	4	-1E+10	1	-1E+10	1	-1E+10	1	-1E+10	1	-1E+10	1	-1E+10	1
4902549	76	C	09/18/2022	04:00	-131.495	47.455	0	71.90	0	8.7820	0	32.2910	0	25.032	0	71.288	0	253.6	4	88.2	4	-1E+10	1	-1E+10	1	-1E+10	1	-1E+10	1	-1E+10	1	-1E+10	1
4902549	76	C	09/18/2022	04:00	-131.495	47.455	0	73.10	0	8.7100	0	32.2980	0	25.049	0	72.477	0	252.8	4	87.8	4	-1E+10	1	-1E+10	1	-1E+10	1	-1E+10	1	-1E+10	1	-1E+10	1
4902549	76	C	09/18/2022	04:00	-131.495	47.455	0	73.90	0	8.6350	0	32.3060	0	25.066	0	73.270	0	252.6	4	87.6	4	-1E+10	1	-1E+10	1	-1E+10	1	-1E+10	1	-1E+10	1	-1E+10	1
4902549	76	C	09/18/2022	04:00	-131.495	47.455	0	75.30	0	8.5850	0	32.3120	0	25.079	0	74.658	0	251.7	4	87.2	4	-1E+10	1	-1E+10	1	-1E+10	1	-1E+10	1	-1E+10	1	-1E+10	1
4902549	76	C	09/18/2022	04:00	-131.495	47.455	0	76.00	0	8.5490	0	32.3150	0	25.086	0	75.352	0	251.3	4	87.0	4	-1E+10	1	-1E+10	1	-1E+10	1	-1E+10	1	-1E+10	1	-1E+10	1
4902549	76	C	09/18/2022	04:00	-131.495	47.455	0	76.90	0	8.5090	0	32.3210	0	25.097	0	76.244	0	250.5	4	86.6	4	-1E+10	1	-1E+10	1	-1E+10	1	-1E+10	1	-1E+10	1	-1E+10	1
4902549	76	C	09/18/2022	04:00	-131.495	47.455	0	77.90	0	8.4870	0	32.3220	0	25.101	0	77.236	0	249.5	4	86.2	4	-1E+10	1	-1E+10	1	-1E+10	1	-1E+10	1	-1E+10	1	-1E+10	1
4902549	76	C	09/18/2022	04:00	-131.495	47.455	0	79.10	0	8.4480	0	32.3270	0	25.111	0	78.425	0	248.0	4	85.6	4	-1E+10	1	-1E+10	1	-1E+10	1	-1E+10	1	-1E+10	1	-1E+10	1
4902549	76	C	09/18/2022	04:00	-131.495	47.455	0	79.80	0	8.4270	0	32.3290	0	25.116	0	79.119	0	247.0	4	85.2	4	-1E+10	1	-1E+10	1	-1E+10	1	-1E+10	1	-1E+10	1	-1E+10	1
4902549	76	C	09/18/2022	04:00	-131.495	47.455	0	80.80	0	8.3920	0	32.3310	0	25.122	0	80.110	0	245.4	4	84.6	4	-1E+10	1	-1E+10	1	-1E+10	1	-1E+10	1	-1E+10	1	-1E+10	1
4902549	76	C	09/18/2022	04:00	-131.495	47.455	0	81.80	0	8.2920	0	32.3470	0	25.150	0	81.102	0	244.0	4	84.0	4	-1E+10	1	-1E+10	1	-1E+10	1	-1E+10	1	-1E+10	1	-1E+10	1
4902549	76	C	09/18/2022	04:00	-131.495	47.455	0	82.90	0	8.1830	0	32.3630	0	25.178	0	82.192	0	248.9	4	85.4	4	-1E+10	1	-1E+10	1	-1E+10	1	-1E+10	1	-1E+10	1	-1E+10	1
4902549	76	C	09/18/2022	04:00	-131.495	47.455	0	84.00	0	8.1350	0	32.3730	0	25.193	0	83.282	0	247.1	4	84.7	4	-1E+10	1	-1E+10	1	-1E+10	1	-1E+10	1	-1E+10	1	-1E+10	1
4902549	76	C	09/18/2022	04:00	-131.495	47.455	0	85.10	0	8.1060	0	32.3820	0	25.204	0	84.373	0	244.9	4	83.9	4	-1E+10	1	-1E+10	1	-1E+10	1	-1E+10	1	-1E+10	1	-1E+10	1
4902549	76	C	09/18/2022	04:00	-131.495	47.455	0	86.10	0	8.0470	0	32.4100	0	25.235	0	85.364	0	242.9	4	83.2	4	-1E+10	1	-1E+10	1	-1E+10	1	-1E+10	1	-1E+10	1	-1E+10	1
4902549	76	C	09/18/2022	04:00	-131.495	47.455	0	86.90	0	8.0050	0	32.4180	0	25.247	0	86.157	0	241.2	4	82.5	4	-1E+10	1	-1E+10	1	-1E+10	1	-1E+10	1	-1E+10	1	-1E+10	1
4902549	76	C	09/18/2022	04:00	-131.495	47.455	0	87.70	0	8.0000	0	32.4380	0	25.264	0	86.950	0	239.6	4	82.0	4	-1E+10	1	-1E+10	1	-1E+10	1	-1E+10	1	-1E+10	1	-1E+10	1
4902549	76	C	09/18/2022	04:00	-131.495	47.455	0	88.90	0	7.9530	0	32.4550	0	25.284	0	88.139	0	236.9	4	81.0	4	-1E+10	1	-1E+10	1	-1E+10	1	-1E+10	1	-1E+10	1	-1E+10	1
4902549	76	C	09/18/2022	04:00	-131.495	47.455	0	90.10	0	7.8860	0	32.5030	0	25.331	0	89.329	0	233.0	4	79.5	4	-1E+10	1	-1E+10	1	-1E+10	1	-1E+10	1	-1E+10	1	-1E+10	1
4902549	76	C	09/18/2022	04:00	-131.495	47.455	0	90.90	0	7.8560	0	32.5240	0	25.352	0	90.122	0	229.9	4	78.5	4	-1E+10	1	-1E+10	1	-1E+10	1	-1E+10	1	-1E+10	1	-1E+10	1
4902549	76	C	09/18/2022	04:00	-131.495	47.455	0	91.80	0	7.8260	0	32.5450	0	25.373	0	91.014	0	226.4	4	77.2	4	-1E+10	1	-1E+10	1	-1E+10	1	-1E+10	1	-1E+10	1	-1E+10	1
4902549	76	C	09/18/2022	04:00	-131.495	47.455	0	92.90	0	7.6770	0	32.6290	0	25.460	0	92.104	0	223.1	4	75.9	4	-1E+10	1	-1E+10	1	-1E+10	1	-1E+10	1	-1E+10	1	-1E+10	1
4902549	76	C	09/18/2022	04:00	-131.495	47.455	0	94.20	0	7.6150	0	32.7160	0	25.537	0	93.393	0	220.3	4	74.9	4	-1E+10	1	-1E+10	1	-1E+10	1	-1E+10	1	-1E+10	1	-1E+10	1
4902549	76	C	09/18/2022	04:00	-131.495	47.455	0	94.80	0	7.6110	0	32.7560	0	25.569	0	93.988	0	219.4	4	74.6	4	-1E+10	1	-1E+10	1	-1E+10	1	-1E+10	1	-1E+10	1	-1E+10	1
4902549	76	C	09/18/2022	04:00	-131.495	47.455	0	96.00	0	7.5900	0	32.7890	0	25.598	0	95.177	0	218.1	4	74.1	4	-1E+10	1	-1E+10	1	-1E+10	1	-1E+10	1	-1E+10	1	-1E+10	1
4902549	76	C	09/18/2022	04:00	-131.495	47.455	0	97.10	0	7.5870	0	32.7950	0	25.603	0	96.267	0	216.5	4	73.6	4	-1E+10	1	-1E+10	1	-1E+10	1	-1E+10	1	-1E+10	1	-1E+10	1
4902549	76	C	09/18/2022	04:00	-131.495	47.455	0	98.00	0	7.5780	0	32.8130	0	25.618	0	97.159	0	212.4	4	72.2	4	-1E+10	1	-1E+10	1	-1E+10	1	-1E+10	1	-1E+10	1	-1E+10	1
4902549	76	C	09/18/2022	04:00	-131.495	47.455	0	99.00	0	7.5690	0	32.8480	0	25.647	0	98.151	0	208.6	4	70.9	4	-1E+10	1	-1E+10	1	-1E+10	1	-1E+10	1	-1E+10	1	-1E+10	1
4902549	76	C	09/18/2022	04:00	-131.495	47.455	0	100.00	0	7.5470	0	32.8850	0	25.679	0	99.142	0	206.8	4	70.3	4	-1E+10	1	-1E+10	1	-1E+10	1	-1E+10	1	-1E+10	1	-1E+10	1
4902549	76	C	09/18/2022	04:00	-131.495	47.455	0	101.20	0	7.5310	0	32.9000	0	25.693	0	100.331	0	204.9	4	69.6	4	-1E+10	1	-1E+10	1	-1E+10	1	-1E+10	1	-1E+10	1	-1E+10	1
4902549	76	C	09/18/2022	04:00	-131.495	47.455	0	101.80	0	7.5100	0	32.9380	0	25.726	0	100.926	0	204.1	4	69.3	4	-1E+10	1	-1E+10	1	-1E+10	1	-1E+10	1	-1E+10	1	-1E+10	1
4902549	76	C	09/18/2022	04:00	-131.495	47.455	0	102.70	0	7.5020	0	32.9500	0	25.737	0	101.818	0	203.1	4	69.0	4	-1E+10	1	-1E+10	1	-1E+10	1	-1E+10	1	-1E+10	1	-1E+10	1
4902549	76	C	09/18/2022	04:00	-131.495	47.455	0	104.10	0	7.5020	0	32.9520	0	25.738	0	103.206	0	201.1	4	68.3	4	-1E+10	1	-1E+10	1	-1E+10	1	-1E+10	1	-1E+10	1	-1E+10	1
4902549	76	C	09/18/2022	04:00	-131.495	47.455	0	105.10	0	7.5020	0	32.9530	0	25.739	0	104.197	0	199.5	4	67.7	4	-1E+10	1	-1E+10	1	-1E+10	1	-1E+10	1	-1E+10	1	-1E+10	1
4902549	76	C	09/18/2022	04:00	-131.495	47.455	0	106.10	0	7.5000	0	32.9590	0	25.744	0	105.188	0	197.7	4	67.1	4	-1E+10	1	-1E+10	1	-1E+10	1	-1E+10	1	-1E+10	1	-1E+10	1
4902549	76	C	09/18/2022	04:00	-131.495	47.455	0	107.10	0	7.4950	0	32.9780	0	25.760	0	106.179	0	196.1	4	66.6	4	-1E+10	1	-1E+10	1	-1E+10	1	-1E+10	1	-1E+10	1	-1E+10	1
4902549	76	C	09/18/2022	04:00	-131.495	47.455	0	108.00	0	7.4870	0	32.9910	0	25.771	0	107.071	0	194.8	4	66.2	4	-1E+10	1	-1E+10	1	-1E+10	1	-1E+10	1	-1E+10	1	-1E+10	1
4902549	76	C	09/18/2022	04:00	-131.495	47.455	0	108.80	0	7.4760	0	33.0090	0	25.787	0	107.864	0	193.3	4	65.6	4	-1E+10	1	-1E+10	1	-1E+10	1	-1E+10	1	-1E+10	1	-1E+10	1
4902549	76	C	09/18/2022	04:00	-131.495	47.455	0	109.90	0	7.4650	0	33.0360	0	25.810	0	108.954	0	190.8	4	64.8	4	-1E+10	1	-1E+10	1	-1E+10	1	-1E+10	1	-1E+10	1	-1E+10	1
4902549	76	C	09/18/2022	04:00	-131.495	47.455	0	110.90	0	7.4430	0	33.0850	0	25.851	0	109.945	0	189.4	4	64.3	4	-1E+10	1	-1E+10	1	-1E+10	1	-1E+10	1	-1E+10	1	-1E+10	1
4902549	76	C	09/18/2022	04:00	-131.495	47.455	0	111.80	0	7.4230	0	33.1380	0	25.896	0	110.837	0	188.5	4	64.0	4	-1E+10	1	-1E+10	1	-1E+10	1	-1E+10	1	-1E+10	1	-1E+10	1
4902549	76	C	09/18/2022	04:00	-131.495	47.455	0	112.80	0	7.4220	0	33.1570	0	25.911	0	111.828	0	187.7	4	63.7	4	-1E+10	1	-1E+10	1	-1E+10	1	-1E+10	1	-1E+10	1	-1E+10	1
4902549	76	C	09/18/2022	04:00	-131.495	47.455	0	113.80	0	7.4190	0	33.1610	0	25.914	0	112.820	0	186.8	4	63.4	4	-1E+10	1	-1E+10	1	-1E+10	1	-1E+10	1	-1E+10	1	-1E+10	1
4902549	76	C	09/18/2022	04:00	-131.495	47.455	0	115.00	0	7.4060	0	33.1690	0	25.923	0	114.009	0	185.6	4	63.0	4	-1E+10	1	-1E+10	1	-1E+10	1	-1E+10	1	-1E+10	1	-1E+10	1
4902549	76	C	09/18/2022	04:00	-131.495	47.455	0	116.00	0	7.4000	0	33.1780	0	25.931	0	115.000	0	184.5	4	62.6	4	-1E+10	1	-1E+10	1	-1E+10	1	-1E+10	1	-1E+10	1	-1E+10	1
4902549	76	C	09/18/2022	04:00	-131.495	47.455	0	116.90	0	7.3990	0	33.1800	0	25.932	0	115.892	0	183.1	4	62.1	4	-1E+10	1	-1E+10	1	-1E+10	1	-1E+10	1	-1E+10	1	-1E+10	1
4902549	76	C	09/18/2022	04:00	-131.495	47.455	0	118.10	0	7.4040	0	33.2000	0	25.947	0	117.081	0	181.4	4	61.6	4	-1E+10	1	-1E+10	1	-1E+10	1	-1E+10	1	-1E+10	1	-1E+10	1
4902549	76	C	09/18/2022	04:00	-131.495	47.455	0	119.10	0	7.4060	0	33.2300	0	25.971	0	118.072	0	180.3	4	61.2	4	-1E+10	1	-1E+10	1	-1E+10	1	-1E+10	1	-1E+10	1	-1E+10	1
4902549	76	C	09/18/2022	04:00	-131.495	47.455	0	120.00	0	7.3990	0	33.2370	0	25.977	0	118.964	0	179.1	4	60.8	4	-1E+10	1	-1E+10	1	-1E+10	1	-1E+10	1	-1E+10	1	-1E+10	1
4902549	76	C	09/18/2022	04:00	-131.495	47.455	0	120.90	0	7.3880	0	33.2490	0	25.988	0	119.856	0	177.9	4	60.4	4	-1E+10	1	-1E+10	1	-1E+10	1	-1E+10	1	-1E+10	1	-1E+10	1
4902549	76	C	09/18/2022	04:00	-131.495	47.455	0	121.80	0	7.3760	0	33.2630	0	26.001	0	120.748	0	176.7	4	60.0	4	-1E+10	1	-1E+10	1	-1E+10	1	-1E+10	1	-1E+10	1	-1E+10	1
4902549	76	C	09/18/2022	04:00	-131.495	47.455	0	122.90	0	7.3830	0	33.2850	0	26.017	0	121.839	0	175.3	4	59.5	4	-1E+10	1	-1E+10	1	-1E+10	1	-1E+10	1	-1E+10	1	-1E+10	1
4902549	76	C	09/18/2022	04:00	-131.495	47.455	0	123.80	0	7.3830	0	33.2890	0	26.020	0	122.730	0	173.9	4	59.0	4	-1E+10	1	-1E+10	1	-1E+10	1	-1E+10	1	-1E+10	1	-1E+10	1
4902549	76	C	09/18/2022	04:00	-131.495	47.455	0	124.90	0	7.3730	0	33.3080	0	26.037	0	123.821	0	172.0	4	58.4	4	-1E+10	1	-1E+10	1	-1E+10	1	-1E+10	1	-1E+10	1	-1E+10	1
4902549	76	C	09/18/2022	04:00	-131.495	47.455	0	125.90	0	7.3680	0	33.3210	0	26.048	0	124.812	0	170.7	4	57.9	4	-1E+10	1	-1E+10	1	-1E+10	1	-1E+10	1	-1E+10	1	-1E+10	1
4902549	76	C	09/18/2022	04:00	-131.495	47.455	0	126.90	0	7.3650	0	33.3360	0	26.060	0	125.803	0	169.2	4	57.4	4	-1E+10	1	-1E+10	1	-1E+10	1	-1E+10	1	-1E+10	1	-1E+10	1
4902549	76	C	09/18/2022	04:00	-131.495	47.455	0	127.80	0	7.3650	0	33.3570	0	26.076	0	126.695	0	167.5	4	56.9	4	-1E+10	1	-1E+10	1	-1E+10	1	-1E+10	1	-1E+10	1	-1E+10	1
4902549	76	C	09/18/2022	04:00	-131.495	47.455	0	128.80	0	7.3650	0	33.3700	0	26.087	0	127.686	0	165.9	4	56.3	4	-1E+10	1	-1E+10	1	-1E+10	1	-1E+10	1	-1E+10	1	-1E+10	1
4902549	76	C	09/18/2022	04:00	-131.495	47.455	0	129.80	0	7.3640	0	33.4010	0	26.111	0	128.677	0	164.2	4	55.7	4	-1E+10	1	-1E+10	1	-1E+10	1	-1E+10	1	-1E+10	1	-1E+10	1
4902549	76	C	09/18/2022	04:00	-131.495	47.455	0	130.90	0	7.3610	0	33.4410	0	26.143	0	129.767	0	162.5	4	55.2	4	-1E+10	1	-1E+10	1	-1E+10	1	-1E+10	1	-1E+10	1	-1E+10	1
4902549	76	C	09/18/2022	04:00	-131.495	47.455	0	132.00	0	7.3570	0	33.4830	0	26.177	0	130.857	0	161.2	4	54.8	4	-1E+10	1	-1E+10	1	-1E+10	1	-1E+10	1	-1E+10	1	-1E+10	1
4902549	76	C	09/18/2022	04:00	-131.495	47.455	0	132.80	0	7.3540	0	33.4910	0	26.183	0	131.650	0	160.5	4	54.5	4	-1E+10	1	-1E+10	1	-1E+10	1	-1E+10	1	-1E+10	1	-1E+10	1
4902549	76	C	09/18/2022	04:00	-131.495	47.455	0	133.90	0	7.3500	0	33.4940	0	26.186	0	132.740	0	159.2	4	54.1	4	-1E+10	1	-1E+10	1	-1E+10	1	-1E+10	1	-1E+10	1	-1E+10	1
4902549	76	C	09/18/2022	04:00	-131.495	47.455	0	135.10	0	7.3490	0	33.4950	0	26.187	0	133.929	0	157.7	4	53.6	4	-1E+10	1	-1E+10	1	-1E+10	1	-1E+10	1	-1E+10	1	-1E+10	1
4902549	76	C	09/18/2022	04:00	-131.495	47.455	0	135.80	0	7.3480	0	33.4970	0	26.189	0	134.623	0	156.5	4	53.2	4	-1E+10	1	-1E+10	1	-1E+10	1	-1E+10	1	-1E+10	1	-1E+10	1
4902549	76	C	09/18/2022	04:00	-131.495	47.455	0	137.00	0	7.3360	0	33.5170	0	26.206	0	135.812	0	154.8	4	52.6	4	-1E+10	1	-1E+10	1	-1E+10	1	-1E+10	1	-1E+10	1	-1E+10	1
4902549	76	C	09/18/2022	04:00	-131.495	47.455	0	138.20	0	7.3270	0	33.5330	0	26.220	0	137.001	0	153.2	4	52.0	4	-1E+10	1	-1E+10	1	-1E+10	1	-1E+10	1	-1E+10	1	-1E+10	1
4902549	76	C	09/18/2022	04:00	-131.495	47.455	0	139.00	0	7.3200	0	33.5450	0	26.231	0	137.794	0	151.9	4	51.6	4	-1E+10	1	-1E+10	1	-1E+10	1	-1E+10	1	-1E+10	1	-1E+10	1
4902549	76	C	09/18/2022	04:00	-131.495	47.455	0	139.90	0	7.3230	0	33.5580	0	26.240	0	138.686	0	150.8	4	51.2	4	-1E+10	1	-1E+10	1	-1E+10	1	-1E+10	1	-1E+10	1	-1E+10	1
4902549	76	C	09/18/2022	04:00	-131.495	47.455	0	140.70	0	7.3280	0	33.5680	0	26.248	0	139.479	0	149.6	4	50.8	4	-1E+10	1	-1E+10	1	-1E+10	1	-1E+10	1	-1E+10	1	-1E+10	1
4902549	76	C	09/18/2022	04:00	-131.495	47.455	0	141.60	0	7.3310	0	33.5850	0	26.261	0	140.371	0	148.7	4	50.5	4	-1E+10	1	-1E+10	1	-1E+10	1	-1E+10	1	-1E+10	1	-1E+10	1
4902549	76	C	09/18/2022	04:00	-131.495	47.455	0	142.90	0	7.3310	0	33.5890	0	26.264	0	141.659	0	147.3	4	50.1	4	-1E+10	1	-1E+10	1	-1E+10	1	-1E+10	1	-1E+10	1	-1E+10	1
4902549	76	C	09/18/2022	04:00	-131.495	47.455	0	144.20	0	7.3300	0	33.5970	0	26.270	0	142.947	0	145.7	4	49.5	4	-1E+10	1	-1E+10	1	-1E+10	1	-1E+10	1	-1E+10	1	-1E+10	1
4902549	76	C	09/18/2022	04:00	-131.495	47.455	0	145.00	0	7.3290	0	33.6010	0	26.274	0	143.740	0	144.7	4	49.2	4	-1E+10	1	-1E+10	1	-1E+10	1	-1E+10	1	-1E+10	1	-1E+10	1
4902549	76	C	09/18/2022	04:00	-131.495	47.455	0	145.90	0	7.3290	0	33.6080	0	26.279	0	144.632	0	143.7	4	48.8	4	-1E+10	1	-1E+10	1	-1E+10	1	-1E+10	1	-1E+10	1	-1E+10	1
4902549	76	C	09/18/2022	04:00	-131.495	47.455	0	146.80	0	7.3280	0	33.6160	0	26.286	0	145.524	0	142.7	4	48.5	4	-1E+10	1	-1E+10	1	-1E+10	1	-1E+10	1	-1E+10	1	-1E+10	1
4902549	76	C	09/18/2022	04:00	-131.495	47.455	0	147.70	0	7.3250	0	33.6350	0	26.301	0	146.416	0	142.0	4	48.3	4	-1E+10	1	-1E+10	1	-1E+10	1	-1E+10	1	-1E+10	1	-1E+10	1
4902549	76	C	09/18/2022	04:00	-131.495	47.455	0	148.70	0	7.3220	0	33.6480	0	26.312	0	147.406	0	141.5	4	48.1	4	-1E+10	1	-1E+10	1	-1E+10	1	-1E+10	1	-1E+10	1	-1E+10	1
4902549	76	C	09/18/2022	04:00	-131.495	47.455	0	149.60	0	7.3220	0	33.6580	0	26.319	0	148.298	0	141.0	4	47.9	4	-1E+10	1	-1E+10	1	-1E+10	1	-1E+10	1	-1E+10	1	-1E+10	1
4902549	76	C	09/18/2022	04:00	-131.495	47.455	0	150.60	0	7.3200	0	33.6640	0	26.324	0	149.289	0	140.6	4	47.8	4	-1E+10	1	-1E+10	1	-1E+10	1	-1E+10	1	-1E+10	1	-1E+10	1
4902549	76	C	09/18/2022	04:00	-131.495	47.455	0	151.60	0	7.3090	0	33.6740	0	26.334	0	150.280	0	140.3	4	47.7	4	-1E+10	1	-1E+10	1	-1E+10	1	-1E+10	1	-1E+10	1	-1E+10	1
4902549	76	C	09/18/2022	04:00	-131.495	47.455	0	152.50	0	7.2890	0	33.6830	0	26.344	0	151.172	0	139.7	4	47.4	4	-1E+10	1	-1E+10	1	-1E+10	1	-1E+10	1	-1E+10	1	-1E+10	1
4902549	76	C	09/18/2022	04:00	-131.495	47.455	0	153.90	0	7.2750	0	33.6930	0	26.354	0	152.559	0	138.5	4	47.0	4	-1E+10	1	-1E+10	1	-1E+10	1	-1E+10	1	-1E+10	1	-1E+10	1
4902549	76	C	09/18/2022	04:00	-131.495	47.455	0	155.40	0	7.2640	0	33.7030	0	26.363	0	154.046	0	137.5	4	46.7	4	-1E+10	1	-1E+10	1	-1E+10	1	-1E+10	1	-1E+10	1	-1E+10	1
4902549	76	C	09/18/2022	04:00	-131.495	47.455	0	156.40	0	7.2430	0	33.7090	0	26.371	0	155.037	0	136.5	4	46.3	4	-1E+10	1	-1E+10	1	-1E+10	1	-1E+10	1	-1E+10	1	-1E+10	1
4902549	76	C	09/18/2022	04:00	-131.495	47.455	0	157.30	0	7.2240	0	33.7120	0	26.376	0	155.928	0	135.2	4	45.9	4	-1E+10	1	-1E+10	1	-1E+10	1	-1E+10	1	-1E+10	1	-1E+10	1
4902549	76	C	09/18/2022	04:00	-131.495	47.455	0	158.30	0	7.2370	0	33.7280	0	26.386	0	156.919	0	134.0	4	45.5	4	-1E+10	1	-1E+10	1	-1E+10	1	-1E+10	1	-1E+10	1	-1E+10	1
4902549	76	C	09/18/2022	04:00	-131.495	47.455	0	159.20	0	7.2360	0	33.7400	0	26.396	0	157.811	0	133.4	4	45.3	4	-1E+10	1	-1E+10	1	-1E+10	1	-1E+10	1	-1E+10	1	-1E+10	1
4902549	76	C	09/18/2022	04:00	-131.495	47.455	0	160.20	0	7.2370	0	33.7470	0	26.401	0	158.802	0	133.1	4	45.2	4	-1E+10	1	-1E+10	1	-1E+10	1	-1E+10	1	-1E+10	1	-1E+10	1
4902549	76	C	09/18/2022	04:00	-131.495	47.455	0	161.20	0	7.2310	0	33.7500	0	26.405	0	159.793	0	132.9	4	45.1	4	-1E+10	1	-1E+10	1	-1E+10	1	-1E+10	1	-1E+10	1	-1E+10	1
4902549	76	C	09/18/2022	04:00	-131.495	47.455	0	162.20	0	7.2100	0	33.7530	0	26.410	0	160.784	0	132.5	4	45.0	4	-1E+10	1	-1E+10	1	-1E+10	1	-1E+10	1	-1E+10	1	-1E+10	1
4902549	76	C	09/18/2022	04:00	-131.495	47.455	0	163.10	0	7.2010	0	33.7580	0	26.415	0	161.676	0	132.0	4	44.8	4	-1E+10	1	-1E+10	1	-1E+10	1	-1E+10	1	-1E+10	1	-1E+10	1
4902549	76	C	09/18/2022	04:00	-131.495	47.455	0	164.10	0	7.1720	0	33.7660	0	26.425	0	162.666	0	131.5	4	44.6	4	-1E+10	1	-1E+10	1	-1E+10	1	-1E+10	1	-1E+10	1	-1E+10	1
4902549	76	C	09/18/2022	04:00	-131.495	47.455	0	165.00	0	7.1710	0	33.7780	0	26.435	0	163.558	0	131.3	4	44.5	4	-1E+10	1	-1E+10	1	-1E+10	1	-1E+10	1	-1E+10	1	-1E+10	1
4902549	76	C	09/18/2022	04:00	-131.495	47.455	0	166.00	0	7.1700	0	33.7810	0	26.438	0	164.549	0	131.2	4	44.5	4	-1E+10	1	-1E+10	1	-1E+10	1	-1E+10	1	-1E+10	1	-1E+10	1
4902549	76	C	09/18/2022	04:00	-131.495	47.455	0	166.90	0	7.1660	0	33.7830	0	26.440	0	165.441	0	131.3	4	44.5	4	-1E+10	1	-1E+10	1	-1E+10	1	-1E+10	1	-1E+10	1	-1E+10	1
4902549	76	C	09/18/2022	04:00	-131.495	47.455	0	167.80	0	7.1550	0	33.7860	0	26.444	0	166.333	0	131.5	4	44.6	4	-1E+10	1	-1E+10	1	-1E+10	1	-1E+10	1	-1E+10	1	-1E+10	1
4902549	76	C	09/18/2022	04:00	-131.495	47.455	0	168.70	0	7.1420	0	33.7920	0	26.450	0	167.224	0	131.8	4	44.7	4	-1E+10	1	-1E+10	1	-1E+10	1	-1E+10	1	-1E+10	1	-1E+10	1
4902549	76	C	09/18/2022	04:00	-131.495	47.455	0	169.60	0	7.1280	0	33.7950	0	26.454	0	168.116	0	132.3	4	44.8	4	-1E+10	1	-1E+10	1	-1E+10	1	-1E+10	1	-1E+10	1	-1E+10	1
4902549	76	C	09/18/2022	04:00	-131.495	47.455	0	170.60	0	7.0940	0	33.8040	0	26.466	0	169.107	0	132.7	4	44.9	4	-1E+10	1	-1E+10	1	-1E+10	1	-1E+10	1	-1E+10	1	-1E+10	1
4902549	76	C	09/18/2022	04:00	-131.495	47.455	0	171.90	0	7.0330	0	33.7990	0	26.471	0	170.395	0	132.6	4	44.8	4	-1E+10	1	-1E+10	1	-1E+10	1	-1E+10	1	-1E+10	1	-1E+10	1
4902549	76	C	09/18/2022	04:00	-131.495	47.455	0	173.40	0	6.9990	0	33.7970	0	26.474	0	171.881	0	131.6	4	44.4	4	-1E+10	1	-1E+10	1	-1E+10	1	-1E+10	1	-1E+10	1	-1E+10	1
4902549	76	C	09/18/2022	04:00	-131.495	47.455	0	174.30	0	6.9980	0	33.8000	0	26.476	0	172.773	0	130.8	4	44.2	4	-1E+10	1	-1E+10	1	-1E+10	1	-1E+10	1	-1E+10	1	-1E+10	1
4902549	76	C	09/18/2022	04:00	-131.495	47.455	0	175.30	0	6.9780	0	33.8030	0	26.481	0	173.764	0	130.0	4	43.9	4	-1E+10	1	-1E+10	1	-1E+10	1	-1E+10	1	-1E+10	1	-1E+10	1
4902549	76	C	09/18/2022	04:00	-131.495	47.455	0	176.20	0	6.9710	0	33.8030	0	26.482	0	174.656	0	129.0	4	43.6	4	-1E+10	1	-1E+10	1	-1E+10	1	-1E+10	1	-1E+10	1	-1E+10	1
4902549	76	C	09/18/2022	04:00	-131.495	47.455	0	177.10	0	6.9660	0	33.8060	0	26.485	0	175.547	0	127.9	4	43.2	4	-1E+10	1	-1E+10	1	-1E+10	1	-1E+10	1	-1E+10	1	-1E+10	1
4902549	76	C	09/18/2022	04:00	-131.495	47.455	0	178.10	0	6.9590	0	33.8070	0	26.487	0	176.538	0	126.7	4	42.8	4	-1E+10	1	-1E+10	1	-1E+10	1	-1E+10	1	-1E+10	1	-1E+10	1
4902549	76	C	09/18/2022	04:00	-131.495	47.455	0	179.00	0	6.9580	0	33.8080	0	26.488	0	177.430	0	125.4	4	42.3	4	-1E+10	1	-1E+10	1	-1E+10	1	-1E+10	1	-1E+10	1	-1E+10	1
4902549	76	C	09/18/2022	04:00	-131.495	47.455	0	179.90	0	6.9610	0	33.8100	0	26.489	0	178.322	0	123.9	4	41.8	4	-1E+10	1	-1E+10	1	-1E+10	1	-1E+10	1	-1E+10	1	-1E+10	1
4902549	76	C	09/18/2022	04:00	-131.495	47.455	0	180.90	0	6.9720	0	33.8120	0	26.489	0	179.312	0	122.5	4	41.4	4	-1E+10	1	-1E+10	1	-1E+10	1	-1E+10	1	-1E+10	1	-1E+10	1
4902549	76	C	09/18/2022	04:00	-131.495	47.455	0	181.80	0	6.9800	0	33.8190	0	26.494	0	180.204	0	121.1	4	40.9	4	-1E+10	1	-1E+10	1	-1E+10	1	-1E+10	1	-1E+10	1	-1E+10	1
4902549	76	C	09/18/2022	04:00	-131.495	47.455	0	182.80	0	7.0120	0	33.8260	0	26.495	0	181.195	0	120.2	4	40.6	4	-1E+10	1	-1E+10	1	-1E+10	1	-1E+10	1	-1E+10	1	-1E+10	1
4902549	76	C	09/18/2022	04:00	-131.495	47.455	0	183.80	0	7.0050	0	33.8280	0	26.497	0	182.186	0	119.7	4	40.4	4	-1E+10	1	-1E+10	1	-1E+10	1	-1E+10	1	-1E+10	1	-1E+10	1
4902549	76	C	09/18/2022	04:00	-131.495	47.455	0	184.70	0	7.0340	0	33.8330	0	26.497	0	183.077	0	119.4	4	40.4	4	-1E+10	1	-1E+10	1	-1E+10	1	-1E+10	1	-1E+10	1	-1E+10	1
4902549	76	C	09/18/2022	04:00	-131.495	47.455	0	185.70	0	7.0330	0	33.8340	0	26.498	0	184.068	0	119.2	4	40.3	4	-1E+10	1	-1E+10	1	-1E+10	1	-1E+10	1	-1E+10	1	-1E+10	1
4902549	76	C	09/18/2022	04:00	-131.495	47.455	0	186.60	0	7.0330	0	33.8350	0	26.499	0	184.960	0	119.1	4	40.3	4	-1E+10	1	-1E+10	1	-1E+10	1	-1E+10	1	-1E+10	1	-1E+10	1
4902549	76	C	09/18/2022	04:00	-131.495	47.455	0	187.60	0	7.0190	0	33.8380	0	26.503	0	185.951	0	119.1	4	40.3	4	-1E+10	1	-1E+10	1	-1E+10	1	-1E+10	1	-1E+10	1	-1E+10	1
4902549	76	C	09/18/2022	04:00	-131.495	47.455	0	188.50	0	7.0010	0	33.8420	0	26.509	0	186.842	0	119.0	4	40.2	4	-1E+10	1	-1E+10	1	-1E+10	1	-1E+10	1	-1E+10	1	-1E+10	1
4902549	76	C	09/18/2022	04:00	-131.495	47.455	0	189.90	0	6.9920	0	33.8400	0	26.509	0	188.229	0	118.8	4	40.1	4	-1E+10	1	-1E+10	1	-1E+10	1	-1E+10	1	-1E+10	1	-1E+10	1
4902549	76	C	09/18/2022	04:00	-131.495	47.455	0	191.40	0	6.9810	0	33.8430	0	26.513	0	189.715	0	118.9	4	40.2	4	-1E+10	1	-1E+10	1	-1E+10	1	-1E+10	1	-1E+10	1	-1E+10	1
4902549	76	C	09/18/2022	04:00	-131.495	47.455	0	192.40	0	6.9750	0	33.8420	0	26.513	0	190.706	0	118.9	4	40.2	4	-1E+10	1	-1E+10	1	-1E+10	1	-1E+10	1	-1E+10	1	-1E+10	1
4902549	76	C	09/18/2022	04:00	-131.495	47.455	0	193.30	0	6.9780	0	33.8430	0	26.513	0	191.598	0	119.0	4	40.2	4	-1E+10	1	-1E+10	1	-1E+10	1	-1E+10	1	-1E+10	1	-1E+10	1
4902549	76	C	09/18/2022	04:00	-131.495	47.455	0	194.30	0	6.9370	0	33.8450	0	26.520	0	192.589	0	119.1	4	40.2	4	-1E+10	1	-1E+10	1	-1E+10	1	-1E+10	1	-1E+10	1	-1E+10	1
4902549	76	C	09/18/2022	04:00	-131.495	47.455	0	195.30	0	6.8730	0	33.8430	0	26.527	0	193.579	0	118.9	4	40.1	4	-1E+10	1	-1E+10	1	-1E+10	1	-1E+10	1	-1E+10	1	-1E+10	1
4902549	76	C	09/18/2022	04:00	-131.495	47.455	0	196.30	0	6.8740	0	33.8450	0	26.529	0	194.570	0	118.5	4	39.9	4	-1E+10	1	-1E+10	1	-1E+10	1	-1E+10	1	-1E+10	1	-1E+10	1
4902549	76	C	09/18/2022	04:00	-131.495	47.455	0	197.30	0	6.8680	0	33.8440	0	26.529	0	195.561	0	118.0	4	39.7	4	-1E+10	1	-1E+10	1	-1E+10	1	-1E+10	1	-1E+10	1	-1E+10	1
4902549	76	C	09/18/2022	04:00	-131.495	47.455	0	198.30	0	6.8640	0	33.8470	0	26.532	0	196.551	0	117.4	4	39.6	4	-1E+10	1	-1E+10	1	-1E+10	1	-1E+10	1	-1E+10	1	-1E+10	1
4902549	76	C	09/18/2022	04:00	-131.495	47.455	0	199.30	0	6.8720	0	33.8460	0	26.530	0	197.542	0	117.0	4	39.4	4	-1E+10	1	-1E+10	1	-1E+10	1	-1E+10	1	-1E+10	1	-1E+10	1
4902549	76	C	09/18/2022	04:00	-131.495	47.455	0	200.30	0	6.8400	0	33.8470	0	26.535	0	198.533	0	116.3	4	39.2	4	-1E+10	1	-1E+10	1	-1E+10	1	-1E+10	1	-1E+10	1	-1E+10	1
4902549	76	C	09/18/2022	04:00	-131.495	47.455	0	201.30	0	6.8120	0	33.8460	0	26.538	0	199.524	0	115.6	4	38.9	4	-1E+10	1	-1E+10	1	-1E+10	1	-1E+10	1	-1E+10	1	-1E+10	1
4902549	76	C	09/18/2022	04:00	-131.495	47.455	0	202.40	0	6.7910	0	33.8520	0	26.545	0	200.613	0	114.9	4	38.6	4	-1E+10	1	-1E+10	1	-1E+10	1	-1E+10	1	-1E+10	1	-1E+10	1
4902549	76	C	09/18/2022	04:00	-131.495	47.455	0	203.40	0	6.7870	0	33.8530	0	26.547	0	201.604	0	114.3	4	38.4	4	-1E+10	1	-1E+10	1	-1E+10	1	-1E+10	1	-1E+10	1	-1E+10	1
4902549	76	C	09/18/2022	04:00	-131.495	47.455	0	204.40	0	6.7760	0	33.8560	0	26.551	0	202.595	0	113.6	4	38.2	4	-1E+10	1	-1E+10	1	-1E+10	1	-1E+10	1	-1E+10	1	-1E+10	1
4902549	76	C	09/18/2022	04:00	-131.495	47.455	0	205.40	0	6.7760	0	33.8560	0	26.551	0	203.585	0	113.0	4	38.0	4	-1E+10	1	-1E+10	1	-1E+10	1	-1E+10	1	-1E+10	1	-1E+10	1
4902549	76	C	09/18/2022	04:00	-131.495	47.455	0	206.50	0	6.7780	0	33.8590	0	26.553	0	204.675	0	112.3	4	37.8	4	-1E+10	1	-1E+10	1	-1E+10	1	-1E+10	1	-1E+10	1	-1E+10	1
4902549	76	C	09/18/2022	04:00	-131.495	47.455	0	207.50	0	6.7770	0	33.8610	0	26.554	0	205.666	0	111.8	4	37.6	4	-1E+10	1	-1E+10	1	-1E+10	1	-1E+10	1	-1E+10	1	-1E+10	1
4902549	76	C	09/18/2022	04:00	-131.495	47.455	0	208.60	0	6.7790	0	33.8650	0	26.557	0	206.755	0	111.3	4	37.4	4	-1E+10	1	-1E+10	1	-1E+10	1	-1E+10	1	-1E+10	1	-1E+10	1
4902549	76	C	09/18/2022	04:00	-131.495	47.455	0	209.60	0	6.7700	0	33.8660	0	26.559	0	207.746	0	111.0	4	37.3	4	-1E+10	1	-1E+10	1	-1E+10	1	-1E+10	1	-1E+10	1	-1E+10	1
4902549	76	C	09/18/2022	04:00	-131.495	47.455	0	210.70	0	6.7850	0	33.8690	0	26.560	0	208.836	0	110.9	4	37.3	4	-1E+10	1	-1E+10	1	-1E+10	1	-1E+10	1	-1E+10	1	-1E+10	1
4902549	76	C	09/18/2022	04:00	-131.495	47.455	0	211.70	0	6.7710	0	33.8720	0	26.564	0	209.826	0	111.1	4	37.3	4	-1E+10	1	-1E+10	1	-1E+10	1	-1E+10	1	-1E+10	1	-1E+10	1
4902549	76	C	09/18/2022	04:00	-131.495	47.455	0	212.80	0	6.7220	0	33.8690	0	26.568	0	210.916	0	110.9	4	37.3	4	-1E+10	1	-1E+10	1	-1E+10	1	-1E+10	1	-1E+10	1	-1E+10	1
4902549	76	C	09/18/2022	04:00	-131.495	47.455	0	213.80	0	6.6350	0	33.8690	0	26.580	0	211.907	0	110.3	4	37.0	4	-1E+10	1	-1E+10	1	-1E+10	1	-1E+10	1	-1E+10	1	-1E+10	1
4902549	76	C	09/18/2022	04:00	-131.495	47.455	0	214.90	0	6.6090	0	33.8590	0	26.575	0	212.996	0	108.9	4	36.5	4	-1E+10	1	-1E+10	1	-1E+10	1	-1E+10	1	-1E+10	1	-1E+10	1
4902549	76	C	09/18/2022	04:00	-131.495	47.455	0	216.00	0	6.6680	0	33.8670	0	26.574	0	214.086	0	108.0	4	36.2	4	-1E+10	1	-1E+10	1	-1E+10	1	-1E+10	1	-1E+10	1	-1E+10	1
4902549	76	C	09/18/2022	04:00	-131.495	47.455	0	217.00	0	6.6900	0	33.8760	0	26.578	0	215.077	0	107.6	4	36.1	4	-1E+10	1	-1E+10	1	-1E+10	1	-1E+10	1	-1E+10	1	-1E+10	1
4902549	76	C	09/18/2022	04:00	-131.495	47.455	0	218.10	0	6.7030	0	33.8800	0	26.579	0	216.166	0	107.6	4	36.1	4	-1E+10	1	-1E+10	1	-1E+10	1	-1E+10	1	-1E+10	1	-1E+10	1
4902549	76	C	09/18/2022	04:00	-131.495	47.455	0	219.20	0	6.6910	0	33.8790	0	26.580	0	217.256	0	107.8	4	36.2	4	-1E+10	1	-1E+10	1	-1E+10	1	-1E+10	1	-1E+10	1	-1E+10	1
4902549	76	C	09/18/2022	04:00	-131.495	47.455	0	220.30	0	6.6150	0	33.8730	0	26.586	0	218.346	0	107.6	4	36.1	4	-1E+10	1	-1E+10	1	-1E+10	1	-1E+10	1	-1E+10	1	-1E+10	1
4902549	76	C	09/18/2022	04:00	-131.495	47.455	0	221.30	0	6.6060	0	33.8750	0	26.588	0	219.336	0	107.2	4	35.9	4	-1E+10	1	-1E+10	1	-1E+10	1	-1E+10	1	-1E+10	1	-1E+10	1
4902549	76	C	09/18/2022	04:00	-131.495	47.455	0	222.40	0	6.5950	0	33.8760	0	26.591	0	220.426	0	106.7	4	35.7	4	-1E+10	1	-1E+10	1	-1E+10	1	-1E+10	1	-1E+10	1	-1E+10	1
4902549	76	C	09/18/2022	04:00	-131.495	47.455	0	223.50	0	6.5940	0	33.8760	0	26.591	0	221.516	0	106.3	4	35.6	4	-1E+10	1	-1E+10	1	-1E+10	1	-1E+10	1	-1E+10	1	-1E+10	1
4902549	76	C	09/18/2022	04:00	-131.495	47.455	0	224.60	0	6.5760	0	33.8790	0	26.596	0	222.605	0	105.9	4	35.5	4	-1E+10	1	-1E+10	1	-1E+10	1	-1E+10	1	-1E+10	1	-1E+10	1
4902549	76	C	09/18/2022	04:00	-131.495	47.455	0	225.60	0	6.5790	0	33.8770	0	26.594	0	223.596	0	105.5	4	35.3	4	-1E+10	1	-1E+10	1	-1E+10	1	-1E+10	1	-1E+10	1	-1E+10	1
4902549	76	C	09/18/2022	04:00	-131.495	47.455	0	226.70	0	6.5760	0	33.8830	0	26.599	0	224.686	0	105.5	4	35.3	4	-1E+10	1	-1E+10	1	-1E+10	1	-1E+10	1	-1E+10	1	-1E+10	1
4902549	76	C	09/18/2022	04:00	-131.495	47.455	0	227.80	0	6.5410	0	33.8820	0	26.603	0	225.775	0	105.4	4	35.3	4	-1E+10	1	-1E+10	1	-1E+10	1	-1E+10	1	-1E+10	1	-1E+10	1
4902549	76	C	09/18/2022	04:00	-131.495	47.455	0	228.90	0	6.5480	0	33.8790	0	26.599	0	226.865	0	105.5	4	35.3	4	-1E+10	1	-1E+10	1	-1E+10	1	-1E+10	1	-1E+10	1	-1E+10	1
4902549	76	C	09/18/2022	04:00	-131.495	47.455	0	230.00	0	6.5180	0	33.8820	0	26.606	0	227.954	0	105.8	4	35.4	4	-1E+10	1	-1E+10	1	-1E+10	1	-1E+10	1	-1E+10	1	-1E+10	1
4902549	76	C	09/18/2022	04:00	-131.495	47.455	0	231.00	0	6.4690	0	33.8830	0	26.613	0	228.945	0	105.9	4	35.4	4	-1E+10	1	-1E+10	1	-1E+10	1	-1E+10	1	-1E+10	1	-1E+10	1
4902549	76	C	09/18/2022	04:00	-131.495	47.455	0	232.10	0	6.4440	0	33.8810	0	26.614	0	230.035	0	105.8	4	35.3	4	-1E+10	1	-1E+10	1	-1E+10	1	-1E+10	1	-1E+10	1	-1E+10	1
4902549	76	C	09/18/2022	04:00	-131.495	47.455	0	233.20	0	6.4310	0	33.8790	0	26.615	0	231.124	0	105.6	4	35.2	4	-1E+10	1	-1E+10	1	-1E+10	1	-1E+10	1	-1E+10	1	-1E+10	1
4902549	76	C	09/18/2022	04:00	-131.495	47.455	0	234.30	0	6.3870	0	33.8770	0	26.619	0	232.214	0	105.6	4	35.2	4	-1E+10	1	-1E+10	1	-1E+10	1	-1E+10	1	-1E+10	1	-1E+10	1
4902549	76	C	09/18/2022	04:00	-131.495	47.455	0	235.30	0	6.3750	0	33.8780	0	26.621	0	233.204	0	105.4	4	35.1	4	-1E+10	1	-1E+10	1	-1E+10	1	-1E+10	1	-1E+10	1	-1E+10	1
4902549	76	C	09/18/2022	04:00	-131.495	47.455	0	236.40	0	6.3680	0	33.8800	0	26.624	0	234.294	0	105.1	4	35.0	4	-1E+10	1	-1E+10	1	-1E+10	1	-1E+10	1	-1E+10	1	-1E+10	1
4902549	76	C	09/18/2022	04:00	-131.495	47.455	0	237.50	0	6.3440	0	33.8850	0	26.631	0	235.383	0	105.0	4	34.9	4	-1E+10	1	-1E+10	1	-1E+10	1	-1E+10	1	-1E+10	1	-1E+10	1
4902549	76	C	09/18/2022	04:00	-131.495	47.455	0	238.50	0	6.3260	0	33.8790	0	26.628	0	236.374	0	104.8	4	34.9	4	-1E+10	1	-1E+10	1	-1E+10	1	-1E+10	1	-1E+10	1	-1E+10	1
4902549	76	C	09/18/2022	04:00	-131.495	47.455	0	239.70	0	6.3180	0	33.8770	0	26.628	0	237.563	0	104.4	4	34.7	4	-1E+10	1	-1E+10	1	-1E+10	1	-1E+10	1	-1E+10	1	-1E+10	1
4902549	76	C	09/18/2022	04:00	-131.495	47.455	0	240.90	0	6.2980	0	33.8760	0	26.629	0	238.751	0	103.8	4	34.5	4	-1E+10	1	-1E+10	1	-1E+10	1	-1E+10	1	-1E+10	1	-1E+10	1
4902549	76	C	09/18/2022	04:00	-131.495	47.455	0	242.10	0	6.2940	0	33.8770	0	26.631	0	239.940	0	103.0	4	34.2	4	-1E+10	1	-1E+10	1	-1E+10	1	-1E+10	1	-1E+10	1	-1E+10	1
4902549	76	C	09/18/2022	04:00	-131.495	47.455	0	242.90	0	6.2900	0	33.8780	0	26.632	0	240.732	0	102.5	4	34.1	4	-1E+10	1	-1E+10	1	-1E+10	1	-1E+10	1	-1E+10	1	-1E+10	1
4902549	76	C	09/18/2022	04:00	-131.495	47.455	0	243.70	0	6.2910	0	33.8780	0	26.632	0	241.525	0	102.0	4	33.9	4	-1E+10	1	-1E+10	1	-1E+10	1	-1E+10	1	-1E+10	1	-1E+10	1
4902549	76	C	09/18/2022	04:00	-131.495	47.455	0	244.90	0	6.2840	0	33.8800	0	26.634	0	242.713	0	101.2	4	33.6	4	-1E+10	1	-1E+10	1	-1E+10	1	-1E+10	1	-1E+10	1	-1E+10	1
4902549	76	C	09/18/2022	04:00	-131.495	47.455	0	246.10	0	6.2830	0	33.8820	0	26.636	0	243.902	0	100.5	4	33.4	4	-1E+10	1	-1E+10	1	-1E+10	1	-1E+10	1	-1E+10	1	-1E+10	1
4902549	76	C	09/18/2022	04:00	-131.495	47.455	0	246.90	0	6.2830	0	33.8840	0	26.638	0	244.694	0	100.0	4	33.3	4	-1E+10	1	-1E+10	1	-1E+10	1	-1E+10	1	-1E+10	1	-1E+10	1
4902549	76	C	09/18/2022	04:00	-131.495	47.455	0	247.70	0	6.2750	0	33.8850	0	26.640	0	245.486	0	99.5	4	33.1	4	-1E+10	1	-1E+10	1	-1E+10	1	-1E+10	1	-1E+10	1	-1E+10	1
4902549	76	C	09/18/2022	04:00	-131.495	47.455	0	248.80	0	6.2710	0	33.8830	0	26.639	0	246.576	0	98.5	4	32.7	4	-1E+10	1	-1E+10	1	-1E+10	1	-1E+10	1	-1E+10	1	-1E+10	1
4902549	76	C	09/18/2022	04:00	-131.495	47.455	0	250.00	0	6.2710	0	33.8850	0	26.640	0	247.765	0	97.3	4	32.4	4	-1E+10	1	-1E+10	1	-1E+10	1	-1E+10	1	-1E+10	1	-1E+10	1
4902549	76	C	09/18/2022	04:00	-131.495	47.455	0	250.80	0	6.2640	0	33.8850	0	26.641	0	248.557	0	96.6	4	32.1	4	-1E+10	1	-1E+10	1	-1E+10	1	-1E+10	1	-1E+10	1	-1E+10	1
4902549	76	C	09/18/2022	04:00	-131.495	47.455	0	252.00	0	6.2520	0	33.8900	0	26.647	0	249.745	0	95.7	4	31.8	4	-1E+10	1	-1E+10	1	-1E+10	1	-1E+10	1	-1E+10	1	-1E+10	1
4902549	76	C	09/18/2022	04:00	-131.495	47.455	0	253.20	0	6.2340	0	33.8920	0	26.650	0	250.934	0	94.9	4	31.5	4	-1E+10	1	-1E+10	1	-1E+10	1	-1E+10	1	-1E+10	1	-1E+10	1
4902549	76	C	09/18/2022	04:00	-131.495	47.455	0	254.00	0	6.2290	0	33.8920	0	26.651	0	251.726	0	94.2	4	31.3	4	-1E+10	1	-1E+10	1	-1E+10	1	-1E+10	1	-1E+10	1	-1E+10	1
4902549	76	C	09/18/2022	04:00	-131.495	47.455	0	254.80	0	6.2320	0	33.8930	0	26.651	0	252.519	0	93.4	4	31.0	4	-1E+10	1	-1E+10	1	-1E+10	1	-1E+10	1	-1E+10	1	-1E+10	1
4902549	76	C	09/18/2022	04:00	-131.495	47.455	0	256.00	0	6.1940	0	33.8910	0	26.655	0	253.707	0	91.9	4	30.5	4	-1E+10	1	-1E+10	1	-1E+10	1	-1E+10	1	-1E+10	1	-1E+10	1
4902549	76	C	09/18/2022	04:00	-131.495	47.455	0	257.20	0	6.1850	0	33.8920	0	26.657	0	254.896	0	90.1	4	29.9	4	-1E+10	1	-1E+10	1	-1E+10	1	-1E+10	1	-1E+10	1	-1E+10	1
4902549	76	C	09/18/2022	04:00	-131.495	47.455	0	258.10	0	6.2250	0	33.8950	0	26.654	0	255.787	0	89.0	4	29.6	4	-1E+10	1	-1E+10	1	-1E+10	1	-1E+10	1	-1E+10	1	-1E+10	1
4902549	76	C	09/18/2022	04:00	-131.495	47.455	0	258.90	0	6.2550	0	33.9020	0	26.656	0	256.579	0	88.4	4	29.4	4	-1E+10	1	-1E+10	1	-1E+10	1	-1E+10	1	-1E+10	1	-1E+10	1
4902549	76	C	09/18/2022	04:00	-131.495	47.455	0	259.70	0	6.2580	0	33.9100	0	26.662	0	257.372	0	87.8	4	29.2	4	-1E+10	1	-1E+10	1	-1E+10	1	-1E+10	1	-1E+10	1	-1E+10	1
4902549	76	C	09/18/2022	04:00	-131.495	47.455	0	260.90	0	6.2420	0	33.9120	0	26.665	0	258.560	0	87.1	4	29.0	4	-1E+10	1	-1E+10	1	-1E+10	1	-1E+10	1	-1E+10	1	-1E+10	1
4902549	76	C	09/18/2022	04:00	-131.495	47.455	0	262.20	0	6.2300	0	33.9110	0	26.666	0	259.848	0	86.5	4	28.7	4	-1E+10	1	-1E+10	1	-1E+10	1	-1E+10	1	-1E+10	1	-1E+10	1
4902549	76	C	09/18/2022	04:00	-131.495	47.455	0	263.10	0	6.1590	0	33.9060	0	26.671	0	260.739	0	85.8	4	28.5	4	-1E+10	1	-1E+10	1	-1E+10	1	-1E+10	1	-1E+10	1	-1E+10	1
4902549	76	C	09/18/2022	04:00	-131.495	47.455	0	263.90	0	6.1660	0	33.9110	0	26.674	0	261.531	0	85.3	4	28.3	4	-1E+10	1	-1E+10	1	-1E+10	1	-1E+10	1	-1E+10	1	-1E+10	1
4902549	76	C	09/18/2022	04:00	-131.495	47.455	0	264.80	0	6.1720	0	33.9160	0	26.677	0	262.423	0	84.9	4	28.2	4	-1E+10	1	-1E+10	1	-1E+10	1	-1E+10	1	-1E+10	1	-1E+10	1
4902549	76	C	09/18/2022	04:00	-131.495	47.455	0	265.80	0	6.1680	0	33.9160	0	26.678	0	263.413	0	84.4	4	28.0	4	-1E+10	1	-1E+10	1	-1E+10	1	-1E+10	1	-1E+10	1	-1E+10	1
4902549	76	C	09/18/2022	04:00	-131.495	47.455	0	266.90	0	6.1650	0	33.9170	0	26.679	0	264.503	0	83.9	4	27.8	4	-1E+10	1	-1E+10	1	-1E+10	1	-1E+10	1	-1E+10	1	-1E+10	1
4902549	76	C	09/18/2022	04:00	-131.495	47.455	0	268.20	0	6.1820	0	33.9220	0	26.681	0	265.790	0	83.4	4	27.7	4	-1E+10	1	-1E+10	1	-1E+10	1	-1E+10	1	-1E+10	1	-1E+10	1
4902549	76	C	09/18/2022	04:00	-131.495	47.455	0	269.10	0	6.1820	0	33.9220	0	26.681	0	266.681	0	83.3	4	27.6	4	-1E+10	1	-1E+10	1	-1E+10	1	-1E+10	1	-1E+10	1	-1E+10	1
4902549	76	C	09/18/2022	04:00	-131.495	47.455	0	270.00	0	6.1690	0	33.9250	0	26.685	0	267.573	0	83.0	4	27.5	4	-1E+10	1	-1E+10	1	-1E+10	1	-1E+10	1	-1E+10	1	-1E+10	1
4902549	76	C	09/18/2022	04:00	-131.495	47.455	0	270.80	0	6.1630	0	33.9220	0	26.683	0	268.365	0	82.9	4	27.5	4	-1E+10	1	-1E+10	1	-1E+10	1	-1E+10	1	-1E+10	1	-1E+10	1
4902549	76	C	09/18/2022	04:00	-131.495	47.455	0	271.70	0	6.1480	0	33.9240	0	26.687	0	269.256	0	82.8	4	27.4	4	-1E+10	1	-1E+10	1	-1E+10	1	-1E+10	1	-1E+10	1	-1E+10	1
4902549	76	C	09/18/2022	04:00	-131.495	47.455	0	273.00	0	6.1420	0	33.9250	0	26.688	0	270.544	0	82.7	4	27.4	4	-1E+10	1	-1E+10	1	-1E+10	1	-1E+10	1	-1E+10	1	-1E+10	1
4902549	76	C	09/18/2022	04:00	-131.495	47.455	0	274.30	0	6.1240	0	33.9250	0	26.691	0	271.831	0	82.7	4	27.4	4	-1E+10	1	-1E+10	1	-1E+10	1	-1E+10	1	-1E+10	1	-1E+10	1
4902549	76	C	09/18/2022	04:00	-131.495	47.455	0	275.20	0	6.1070	0	33.9240	0	26.692	0	272.723	0	82.7	4	27.4	4	-1E+10	1	-1E+10	1	-1E+10	1	-1E+10	1	-1E+10	1	-1E+10	1
4902549	76	C	09/18/2022	04:00	-131.495	47.455	0	276.10	0	6.0990	0	33.9220	0	26.692	0	273.614	0	82.6	4	27.3	4	-1E+10	1	-1E+10	1	-1E+10	1	-1E+10	1	-1E+10	1	-1E+10	1
4902549	76	C	09/18/2022	04:00	-131.495	47.455	0	277.00	0	6.0850	0	33.9220	0	26.693	0	274.505	0	82.4	4	27.3	4	-1E+10	1	-1E+10	1	-1E+10	1	-1E+10	1	-1E+10	1	-1E+10	1
4902549	76	C	09/18/2022	04:00	-131.495	47.455	0	277.90	0	6.0710	0	33.9190	0	26.693	0	275.397	0	82.1	4	27.2	4	-1E+10	1	-1E+10	1	-1E+10	1	-1E+10	1	-1E+10	1	-1E+10	1
4902549	76	C	09/18/2022	04:00	-131.495	47.455	0	278.90	0	6.0680	0	33.9220	0	26.695	0	276.387	0	81.8	4	27.1	4	-1E+10	1	-1E+10	1	-1E+10	1	-1E+10	1	-1E+10	1	-1E+10	1
4902549	76	C	09/18/2022	04:00	-131.495	47.455	0	279.80	0	6.0660	0	33.9200	0	26.694	0	277.278	0	81.5	4	27.0	4	-1E+10	1	-1E+10	1	-1E+10	1	-1E+10	1	-1E+10	1	-1E+10	1
4902549	76	C	09/18/2022	04:00	-131.495	47.455	0	280.70	0	6.0590	0	33.9240	0	26.698	0	278.169	0	81.1	4	26.8	4	-1E+10	1	-1E+10	1	-1E+10	1	-1E+10	1	-1E+10	1	-1E+10	1
4902549	76	C	09/18/2022	04:00	-131.495	47.455	0	281.60	0	6.0420	0	33.9200	0	26.697	0	279.061	0	80.6	4	26.6	4	-1E+10	1	-1E+10	1	-1E+10	1	-1E+10	1	-1E+10	1	-1E+10	1
4902549	76	C	09/18/2022	04:00	-131.495	47.455	0	282.90	0	6.0400	0	33.9200	0	26.697	0	280.348	0	79.8	4	26.4	4	-1E+10	1	-1E+10	1	-1E+10	1	-1E+10	1	-1E+10	1	-1E+10	1
4902549	76	C	09/18/2022	04:00	-131.495	47.455	0	284.40	0	6.0460	0	33.9220	0	26.698	0	281.834	0	79.0	4	26.1	4	-1E+10	1	-1E+10	1	-1E+10	1	-1E+10	1	-1E+10	1	-1E+10	1
4902549	76	C	09/18/2022	04:00	-131.495	47.455	0	285.30	0	6.0440	0	33.9240	0	26.700	0	282.725	0	78.5	4	26.0	4	-1E+10	1	-1E+10	1	-1E+10	1	-1E+10	1	-1E+10	1	-1E+10	1
4902549	76	C	09/18/2022	04:00	-131.495	47.455	0	286.20	0	6.0400	0	33.9250	0	26.701	0	283.616	0	78.1	4	25.8	4	-1E+10	1	-1E+10	1	-1E+10	1	-1E+10	1	-1E+10	1	-1E+10	1
4902549	76	C	09/18/2022	04:00	-131.495	47.455	0	287.10	0	6.0400	0	33.9280	0	26.704	0	284.507	0	77.8	4	25.7	4	-1E+10	1	-1E+10	1	-1E+10	1	-1E+10	1	-1E+10	1	-1E+10	1
4902549	76	C	09/18/2022	04:00	-131.495	47.455	0	288.10	0	6.0320	0	33.9290	0	26.706	0	285.498	0	77.5	4	25.6	4	-1E+10	1	-1E+10	1	-1E+10	1	-1E+10	1	-1E+10	1	-1E+10	1
4902549	76	C	09/18/2022	04:00	-131.495	47.455	0	289.00	0	6.0200	0	33.9320	0	26.709	0	286.389	0	77.4	4	25.6	4	-1E+10	1	-1E+10	1	-1E+10	1	-1E+10	1	-1E+10	1	-1E+10	1
4902549	76	C	09/18/2022	04:00	-131.495	47.455	0	289.90	0	6.0070	0	33.9330	0	26.712	0	287.280	0	77.3	4	25.5	4	-1E+10	1	-1E+10	1	-1E+10	1	-1E+10	1	-1E+10	1	-1E+10	1
4902549	76	C	09/18/2022	04:00	-131.495	47.455	0	290.90	0	5.9930	0	33.9330	0	26.714	0	288.270	0	77.3	4	25.5	4	-1E+10	1	-1E+10	1	-1E+10	1	-1E+10	1	-1E+10	1	-1E+10	1
4902549	76	C	09/18/2022	04:00	-131.495	47.455	0	291.80	0	5.9910	0	33.9320	0	26.713	0	289.162	0	77.2	4	25.5	4	-1E+10	1	-1E+10	1	-1E+10	1	-1E+10	1	-1E+10	1	-1E+10	1
4902549	76	C	09/18/2022	04:00	-131.495	47.455	0	292.70	0	5.9840	0	33.9320	0	26.714	0	290.053	0	77.1	4	25.5	4	-1E+10	1	-1E+10	1	-1E+10	1	-1E+10	1	-1E+10	1	-1E+10	1
4902549	76	C	09/18/2022	04:00	-131.495	47.455	0	293.70	0	5.9650	0	33.9300	0	26.715	0	291.043	0	77.0	4	25.4	4	-1E+10	1	-1E+10	1	-1E+10	1	-1E+10	1	-1E+10	1	-1E+10	1
4902549	76	C	09/18/2022	04:00	-131.495	47.455	0	294.60	0	5.9440	0	33.9300	0	26.717	0	291.934	0	76.8	4	25.3	4	-1E+10	1	-1E+10	1	-1E+10	1	-1E+10	1	-1E+10	1	-1E+10	1
4902549	76	C	09/18/2022	04:00	-131.495	47.455	0	295.50	0	5.9250	0	33.9290	0	26.719	0	292.826	0	76.5	4	25.2	4	-1E+10	1	-1E+10	1	-1E+10	1	-1E+10	1	-1E+10	1	-1E+10	1
4902549	76	C	09/18/2022	04:00	-131.495	47.455	0	296.90	0	5.9130	0	33.9290	0	26.721	0	294.212	0	76.0	4	25.1	4	-1E+10	1	-1E+10	1	-1E+10	1	-1E+10	1	-1E+10	1	-1E+10	1
4902549	76	C	09/18/2022	04:00	-131.495	47.455	0	298.30	0	5.9110	0	33.9300	0	26.722	0	295.598	0	75.5	4	24.9	4	-1E+10	1	-1E+10	1	-1E+10	1	-1E+10	1	-1E+10	1	-1E+10	1
4902549	76	C	09/18/2022	04:00	-131.495	47.455	0	299.20	0	5.9080	0	33.9300	0	26.722	0	296.489	0	75.1	4	24.8	4	-1E+10	1	-1E+10	1	-1E+10	1	-1E+10	1	-1E+10	1	-1E+10	1
4902549	76	C	09/18/2022	04:00	-131.495	47.455	0	300.10	0	5.9060	0	33.9290	0	26.721	0	297.381	0	74.7	4	24.6	4	-1E+10	1	-1E+10	1	-1E+10	1	-1E+10	1	-1E+10	1	-1E+10	1
4902549	76	C	09/18/2022	04:00	-131.495	47.455	0	301.00	0	5.9060	0	33.9300	0	26.722	0	298.272	0	74.2	4	24.5	4	-1E+10	1	-1E+10	1	-1E+10	1	-1E+10	1	-1E+10	1	-1E+10	1
4902549	76	C	09/18/2022	04:00	-131.495	47.455	0	301.90	0	5.9060	0	33.9300	0	26.722	0	299.163	0	73.7	4	24.3	4	-1E+10	1	-1E+10	1	-1E+10	1	-1E+10	1	-1E+10	1	-1E+10	1
4902549	76	C	09/18/2022	04:00	-131.495	47.455	0	302.80	0	5.9030	0	33.9310	0	26.723	0	300.054	0	73.2	4	24.1	4	-1E+10	1	-1E+10	1	-1E+10	1	-1E+10	1	-1E+10	1	-1E+10	1
4902549	76	C	09/18/2022	04:00	-131.495	47.455	0	303.70	0	5.8870	0	33.9300	0	26.725	0	300.945	0	72.6	4	23.9	4	-1E+10	1	-1E+10	1	-1E+10	1	-1E+10	1	-1E+10	1	-1E+10	1
4902549	76	C	09/18/2022	04:00	-131.495	47.455	0	304.60	0	5.8580	0	33.9360	0	26.733	0	301.837	0	72.1	4	23.7	4	-1E+10	1	-1E+10	1	-1E+10	1	-1E+10	1	-1E+10	1	-1E+10	1
4902549	76	C	09/18/2022	04:00	-131.495	47.455	0	305.90	0	5.8670	0	33.9390	0	26.734	0	303.124	0	71.5	4	23.6	4	-1E+10	1	-1E+10	1	-1E+10	1	-1E+10	1	-1E+10	1	-1E+10	1
4902549	76	C	09/18/2022	04:00	-131.495	47.455	0	307.40	0	5.8720	0	33.9410	0	26.735	0	304.609	0	71.0	4	23.4	4	-1E+10	1	-1E+10	1	-1E+10	1	-1E+10	1	-1E+10	1	-1E+10	1
4902549	76	C	09/18/2022	04:00	-131.495	47.455	0	308.30	0	5.8750	0	33.9420	0	26.736	0	305.500	0	70.8	4	23.3	4	-1E+10	1	-1E+10	1	-1E+10	1	-1E+10	1	-1E+10	1	-1E+10	1
4902549	76	C	09/18/2022	04:00	-131.495	47.455	0	309.20	0	5.8730	0	33.9420	0	26.736	0	306.391	0	70.6	4	23.3	4	-1E+10	1	-1E+10	1	-1E+10	1	-1E+10	1	-1E+10	1	-1E+10	1
4902549	76	C	09/18/2022	04:00	-131.495	47.455	0	310.10	0	5.8630	0	33.9430	0	26.738	0	307.283	0	70.4	4	23.2	4	-1E+10	1	-1E+10	1	-1E+10	1	-1E+10	1	-1E+10	1	-1E+10	1
4902549	76	C	09/18/2022	04:00	-131.495	47.455	0	311.00	0	5.8550	0	33.9430	0	26.739	0	308.174	0	70.2	4	23.1	4	-1E+10	1	-1E+10	1	-1E+10	1	-1E+10	1	-1E+10	1	-1E+10	1
4902549	76	C	09/18/2022	04:00	-131.495	47.455	0	311.90	0	5.8490	0	33.9430	0	26.740	0	309.065	0	70.1	4	23.1	4	-1E+10	1	-1E+10	1	-1E+10	1	-1E+10	1	-1E+10	1	-1E+10	1
4902549	76	C	09/18/2022	04:00	-131.495	47.455	0	312.80	0	5.8240	0	33.9440	0	26.744	0	309.956	0	70.0	4	23.0	4	-1E+10	1	-1E+10	1	-1E+10	1	-1E+10	1	-1E+10	1	-1E+10	1
4902549	76	C	09/18/2022	04:00	-131.495	47.455	0	313.80	0	5.8030	0	33.9460	0	26.748	0	310.946	0	69.9	4	23.0	4	-1E+10	1	-1E+10	1	-1E+10	1	-1E+10	1	-1E+10	1	-1E+10	1
4902549	76	C	09/18/2022	04:00	-131.495	47.455	0	314.70	0	5.7770	0	33.9430	0	26.749	0	311.837	0	69.7	4	22.9	4	-1E+10	1	-1E+10	1	-1E+10	1	-1E+10	1	-1E+10	1	-1E+10	1
4902549	76	C	09/18/2022	04:00	-131.495	47.455	0	315.60	0	5.7500	0	33.9450	0	26.753	0	312.728	0	69.4	4	22.8	4	-1E+10	1	-1E+10	1	-1E+10	1	-1E+10	1	-1E+10	1	-1E+10	1
4902549	76	C	09/18/2022	04:00	-131.495	47.455	0	316.90	0	5.7600	0	33.9410	0	26.749	0	314.016	0	69.0	4	22.7	4	-1E+10	1	-1E+10	1	-1E+10	1	-1E+10	1	-1E+10	1	-1E+10	1
4902549	76	C	09/18/2022	04:00	-131.495	47.455	0	318.30	0	5.7860	0	33.9470	0	26.751	0	315.402	0	69.0	4	22.7	4	-1E+10	1	-1E+10	1	-1E+10	1	-1E+10	1	-1E+10	1	-1E+10	1
4902549	76	C	09/18/2022	04:00	-131.495	47.455	0	319.20	0	5.7620	0	33.9460	0	26.753	0	316.293	0	69.1	4	22.7	4	-1E+10	1	-1E+10	1	-1E+10	1	-1E+10	1	-1E+10	1	-1E+10	1
4902549	76	C	09/18/2022	04:00	-131.495	47.455	0	320.20	0	5.7010	0	33.9450	0	26.759	0	317.283	0	69.2	4	22.7	4	-1E+10	1	-1E+10	1	-1E+10	1	-1E+10	1	-1E+10	1	-1E+10	1
4902549	76	C	09/18/2022	04:00	-131.495	47.455	0	321.10	0	5.6940	0	33.9430	0	26.759	0	318.174	0	69.2	4	22.7	4	-1E+10	1	-1E+10	1	-1E+10	1	-1E+10	1	-1E+10	1	-1E+10	1
4902549	76	C	09/18/2022	04:00	-131.495	47.455	0	322.00	0	5.6900	0	33.9420	0	26.758	0	319.065	0	69.0	4	22.7	4	-1E+10	1	-1E+10	1	-1E+10	1	-1E+10	1	-1E+10	1	-1E+10	1
4902549	76	C	09/18/2022	04:00	-131.495	47.455	0	323.00	0	5.6770	0	33.9440	0	26.762	0	320.055	0	68.8	4	22.6	4	-1E+10	1	-1E+10	1	-1E+10	1	-1E+10	1	-1E+10	1	-1E+10	1
4902549	76	C	09/18/2022	04:00	-131.495	47.455	0	323.90	0	5.6710	0	33.9410	0	26.760	0	320.947	0	68.6	4	22.5	4	-1E+10	1	-1E+10	1	-1E+10	1	-1E+10	1	-1E+10	1	-1E+10	1
4902549	76	C	09/18/2022	04:00	-131.495	47.455	0	324.90	0	5.6730	0	33.9420	0	26.761	0	321.937	0	68.2	4	22.4	4	-1E+10	1	-1E+10	1	-1E+10	1	-1E+10	1	-1E+10	1	-1E+10	1
4902549	76	C	09/18/2022	04:00	-131.495	47.455	0	325.80	0	5.6690	0	33.9400	0	26.759	0	322.828	0	67.8	4	22.2	4	-1E+10	1	-1E+10	1	-1E+10	1	-1E+10	1	-1E+10	1	-1E+10	1
4902549	76	C	09/18/2022	04:00	-131.495	47.455	0	326.80	0	5.6680	0	33.9400	0	26.760	0	323.818	0	67.4	4	22.1	4	-1E+10	1	-1E+10	1	-1E+10	1	-1E+10	1	-1E+10	1	-1E+10	1
4902549	76	C	09/18/2022	04:00	-131.495	47.455	0	327.70	0	5.6670	0	33.9390	0	26.759	0	324.709	0	66.9	4	21.9	4	-1E+10	1	-1E+10	1	-1E+10	1	-1E+10	1	-1E+10	1	-1E+10	1
4902549	76	C	09/18/2022	04:00	-131.495	47.455	0	328.70	0	5.6560	0	33.9400	0	26.761	0	325.699	0	66.2	4	21.7	4	-1E+10	1	-1E+10	1	-1E+10	1	-1E+10	1	-1E+10	1	-1E+10	1
4902549	76	C	09/18/2022	04:00	-131.495	47.455	0	329.60	0	5.6390	0	33.9370	0	26.761	0	326.590	0	65.6	4	21.5	4	-1E+10	1	-1E+10	1	-1E+10	1	-1E+10	1	-1E+10	1	-1E+10	1
4902549	76	C	09/18/2022	04:00	-131.495	47.455	0	330.50	0	5.6170	0	33.9420	0	26.767	0	327.481	0	64.9	4	21.3	4	-1E+10	1	-1E+10	1	-1E+10	1	-1E+10	1	-1E+10	1	-1E+10	1
4902549	76	C	09/18/2022	04:00	-131.495	47.455	0	331.50	0	5.5970	0	33.9460	0	26.773	0	328.471	0	64.5	4	21.1	4	-1E+10	1	-1E+10	1	-1E+10	1	-1E+10	1	-1E+10	1	-1E+10	1
4902549	76	C	09/18/2022	04:00	-131.495	47.455	0	332.50	0	5.5910	0	33.9470	0	26.774	0	329.461	0	64.0	4	21.0	4	-1E+10	1	-1E+10	1	-1E+10	1	-1E+10	1	-1E+10	1	-1E+10	1
4902549	76	C	09/18/2022	04:00	-131.495	47.455	0	333.50	0	5.5880	0	33.9470	0	26.775	0	330.451	0	63.5	4	20.8	4	-1E+10	1	-1E+10	1	-1E+10	1	-1E+10	1	-1E+10	1	-1E+10	1
4902549	76	C	09/18/2022	04:00	-131.495	47.455	0	334.90	0	5.5690	0	33.9470	0	26.777	0	331.837	0	62.5	4	20.5	4	-1E+10	1	-1E+10	1	-1E+10	1	-1E+10	1	-1E+10	1	-1E+10	1
4902549	76	C	09/18/2022	04:00	-131.495	47.455	0	336.40	0	5.5660	0	33.9490	0	26.779	0	333.322	0	61.4	4	20.1	4	-1E+10	1	-1E+10	1	-1E+10	1	-1E+10	1	-1E+10	1	-1E+10	1
4902549	76	C	09/18/2022	04:00	-131.495	47.455	0	337.40	0	5.5850	0	33.9550	0	26.782	0	334.313	0	60.7	4	19.9	4	-1E+10	1	-1E+10	1	-1E+10	1	-1E+10	1	-1E+10	1	-1E+10	1
4902549	76	C	09/18/2022	04:00	-131.495	47.455	0	338.40	0	5.6060	0	33.9570	0	26.781	0	335.303	0	60.2	4	19.7	4	-1E+10	1	-1E+10	1	-1E+10	1	-1E+10	1	-1E+10	1	-1E+10	1
4902549	76	C	09/18/2022	04:00	-131.495	47.455	0	339.40	0	5.6060	0	33.9590	0	26.782	0	336.293	0	59.7	4	19.6	4	-1E+10	1	-1E+10	1	-1E+10	1	-1E+10	1	-1E+10	1	-1E+10	1
4902549	76	C	09/18/2022	04:00	-131.495	47.455	0	340.40	0	5.6090	0	33.9600	0	26.783	0	337.283	0	59.2	4	19.4	4	-1E+10	1	-1E+10	1	-1E+10	1	-1E+10	1	-1E+10	1	-1E+10	1
4902549	76	C	09/18/2022	04:00	-131.495	47.455	0	341.40	0	5.6050	0	33.9610	0	26.784	0	338.273	0	58.8	4	19.3	4	-1E+10	1	-1E+10	1	-1E+10	1	-1E+10	1	-1E+10	1	-1E+10	1
4902549	76	C	09/18/2022	04:00	-131.495	47.455	0	342.50	0	5.6020	0	33.9620	0	26.785	0	339.362	0	58.3	4	19.1	4	-1E+10	1	-1E+10	1	-1E+10	1	-1E+10	1	-1E+10	1	-1E+10	1
4902549	76	C	09/18/2022	04:00	-131.495	47.455	0	343.50	0	5.5940	0	33.9670	0	26.790	0	340.352	0	58.1	4	19.0	4	-1E+10	1	-1E+10	1	-1E+10	1	-1E+10	1	-1E+10	1	-1E+10	1
4902549	76	C	09/18/2022	04:00	-131.495	47.455	0	344.50	0	5.5890	0	33.9670	0	26.791	0	341.342	0	57.8	4	18.9	4	-1E+10	1	-1E+10	1	-1E+10	1	-1E+10	1	-1E+10	1	-1E+10	1
4902549	76	C	09/18/2022	04:00	-131.495	47.455	0	345.50	0	5.5770	0	33.9700	0	26.794	0	342.332	0	57.6	4	18.9	4	-1E+10	1	-1E+10	1	-1E+10	1	-1E+10	1	-1E+10	1	-1E+10	1
4902549	76	C	09/18/2022	04:00	-131.495	47.455	0	346.50	0	5.5780	0	33.9700	0	26.794	0	343.322	0	57.5	4	18.8	4	-1E+10	1	-1E+10	1	-1E+10	1	-1E+10	1	-1E+10	1	-1E+10	1
4902549	76	C	09/18/2022	04:00	-131.495	47.455	0	347.60	0	5.5780	0	33.9700	0	26.794	0	344.411	0	57.4	4	18.8	4	-1E+10	1	-1E+10	1	-1E+10	1	-1E+10	1	-1E+10	1	-1E+10	1
4902549	76	C	09/18/2022	04:00	-131.495	47.455	0	348.60	0	5.5760	0	33.9700	0	26.795	0	345.401	0	57.2	4	18.7	4	-1E+10	1	-1E+10	1	-1E+10	1	-1E+10	1	-1E+10	1	-1E+10	1
4902549	76	C	09/18/2022	04:00	-131.495	47.455	0	349.70	0	5.5740	0	33.9700	0	26.795	0	346.490	0	57.1	4	18.7	4	-1E+10	1	-1E+10	1	-1E+10	1	-1E+10	1	-1E+10	1	-1E+10	1
4902549	76	C	09/18/2022	04:00	-131.495	47.455	0	352.70	0	5.5490	0	33.9710	0	26.799	0	349.460	0	56.5	4	18.5	4	-1E+10	1	-1E+10	1	-1E+10	1	-1E+10	1	-1E+10	1	-1E+10	1
4902549	76	C	09/18/2022	04:00	-131.495	47.455	0	358.00	0	5.5230	0	33.9720	0	26.803	0	354.706	0	55.5	4	18.1	4	-1E+10	1	-1E+10	1	-1E+10	1	-1E+10	1	-1E+10	1	-1E+10	1
4902549	76	C	09/18/2022	04:00	-131.495	47.455	0	363.20	0	5.5050	0	33.9760	0	26.808	0	359.854	0	54.9	4	17.9	4	-1E+10	1	-1E+10	1	-1E+10	1	-1E+10	1	-1E+10	1	-1E+10	1
4902549	76	C	09/18/2022	04:00	-131.495	47.455	0	367.90	0	5.5010	0	33.9750	0	26.808	0	364.507	0	54.5	4	17.8	4	-1E+10	1	-1E+10	1	-1E+10	1	-1E+10	1	-1E+10	1	-1E+10	1
4902549	76	C	09/18/2022	04:00	-131.495	47.455	0	372.60	0	5.4320	0	33.9760	0	26.817	0	369.159	0	54.1	4	17.7	4	-1E+10	1	-1E+10	1	-1E+10	1	-1E+10	1	-1E+10	1	-1E+10	1
4902549	76	C	09/18/2022	04:00	-131.495	47.455	0	377.90	0	5.3510	0	33.9740	0	26.825	0	374.405	0	53.6	4	17.5	4	-1E+10	1	-1E+10	1	-1E+10	1	-1E+10	1	-1E+10	1	-1E+10	1
4902549	76	C	09/18/2022	04:00	-131.495	47.455	0	382.70	0	5.2880	0	33.9740	0	26.832	0	379.157	0	52.6	4	17.1	4	-1E+10	1	-1E+10	1	-1E+10	1	-1E+10	1	-1E+10	1	-1E+10	1
4902549	76	C	09/18/2022	04:00	-131.495	47.455	0	387.60	0	5.2170	0	33.9750	0	26.841	0	384.007	0	51.0	4	16.5	4	-1E+10	1	-1E+10	1	-1E+10	1	-1E+10	1	-1E+10	1	-1E+10	1
4902549	76	C	09/18/2022	04:00	-131.495	47.455	0	393.00	0	5.1800	0	33.9830	0	26.852	0	389.352	0	48.8	4	15.8	4	-1E+10	1	-1E+10	1	-1E+10	1	-1E+10	1	-1E+10	1	-1E+10	1
4902549	76	C	09/18/2022	04:00	-131.495	47.455	0	398.30	0	5.1450	0	33.9910	0	26.862	0	394.597	0	47.6	4	15.4	4	-1E+10	1	-1E+10	1	-1E+10	1	-1E+10	1	-1E+10	1	-1E+10	1
4902549	76	C	09/18/2022	04:00	-131.495	47.455	0	402.90	0	5.1110	0	33.9930	0	26.868	0	399.150	0	46.7	4	15.1	4	-1E+10	1	-1E+10	1	-1E+10	1	-1E+10	1	-1E+10	1	-1E+10	1
4902549	76	C	09/18/2022	04:00	-131.495	47.455	0	407.90	0	5.0820	0	33.9960	0	26.874	0	404.099	0	45.5	4	14.7	4	-1E+10	1	-1E+10	1	-1E+10	1	-1E+10	1	-1E+10	1	-1E+10	1
4902549	76	C	09/18/2022	04:00	-131.495	47.455	0	413.10	0	5.0590	0	34.0030	0	26.882	0	409.245	0	44.8	4	14.5	4	-1E+10	1	-1E+10	1	-1E+10	1	-1E+10	1	-1E+10	1	-1E+10	1
4902549	76	C	09/18/2022	04:00	-131.495	47.455	0	417.90	0	5.0220	0	34.0020	0	26.885	0	413.996	0	44.3	4	14.3	4	-1E+10	1	-1E+10	1	-1E+10	1	-1E+10	1	-1E+10	1	-1E+10	1
4902549	76	C	09/18/2022	04:00	-131.495	47.455	0	422.80	0	5.0160	0	34.0040	0	26.888	0	418.845	0	43.5	4	14.0	4	-1E+10	1	-1E+10	1	-1E+10	1	-1E+10	1	-1E+10	1	-1E+10	1
4902549	76	C	09/18/2022	04:00	-131.495	47.455	0	428.10	0	5.0110	0	34.0060	0	26.890	0	424.090	0	42.1	4	13.6	4	-1E+10	1	-1E+10	1	-1E+10	1	-1E+10	1	-1E+10	1	-1E+10	1
4902549	76	C	09/18/2022	04:00	-131.495	47.455	0	432.90	0	5.0370	0	34.0140	0	26.893	0	428.840	0	40.9	4	13.2	4	-1E+10	1	-1E+10	1	-1E+10	1	-1E+10	1	-1E+10	1	-1E+10	1
4902549	76	C	09/18/2022	04:00	-131.495	47.455	0	437.70	0	5.0430	0	34.0190	0	26.897	0	433.590	0	40.3	4	13.0	4	-1E+10	1	-1E+10	1	-1E+10	1	-1E+10	1	-1E+10	1	-1E+10	1
4902549	76	C	09/18/2022	04:00	-131.495	47.455	0	442.80	0	5.0240	0	34.0190	0	26.899	0	438.637	0	40.0	4	12.9	4	-1E+10	1	-1E+10	1	-1E+10	1	-1E+10	1	-1E+10	1	-1E+10	1
4902549	76	C	09/18/2022	04:00	-131.495	47.455	0	448.00	0	4.9880	0	34.0200	0	26.904	0	443.782	0	39.2	4	12.6	4	-1E+10	1	-1E+10	1	-1E+10	1	-1E+10	1	-1E+10	1	-1E+10	1
4902549	76	C	09/18/2022	04:00	-131.495	47.455	0	453.10	0	4.9600	0	34.0240	0	26.910	0	448.829	0	38.6	4	12.5	4	-1E+10	1	-1E+10	1	-1E+10	1	-1E+10	1	-1E+10	1	-1E+10	1
4902549	76	C	09/18/2022	04:00	-131.495	47.455	0	458.20	0	4.8990	0	34.0230	0	26.916	0	453.875	0	37.6	4	12.1	4	-1E+10	1	-1E+10	1	-1E+10	1	-1E+10	1	-1E+10	1	-1E+10	1
4902549	76	C	09/18/2022	04:00	-131.495	47.455	0	463.00	0	4.8940	0	34.0300	0	26.922	0	458.624	0	36.2	4	11.7	4	-1E+10	1	-1E+10	1	-1E+10	1	-1E+10	1	-1E+10	1	-1E+10	1
4902549	76	C	09/18/2022	04:00	-131.495	47.455	0	467.80	0	4.8960	0	34.0330	0	26.925	0	463.374	0	34.9	4	11.2	4	-1E+10	1	-1E+10	1	-1E+10	1	-1E+10	1	-1E+10	1	-1E+10	1
4902549	76	C	09/18/2022	04:00	-131.495	47.455	0	473.10	0	4.8930	0	34.0420	0	26.932	0	468.618	0	33.6	4	10.8	4	-1E+10	1	-1E+10	1	-1E+10	1	-1E+10	1	-1E+10	1	-1E+10	1
4902549	76	C	09/18/2022	04:00	-131.495	47.455	0	478.20	0	4.8630	0	34.0450	0	26.938	0	473.663	0	33.0	4	10.6	4	-1E+10	1	-1E+10	1	-1E+10	1	-1E+10	1	-1E+10	1	-1E+10	1
4902549	76	C	09/18/2022	04:00	-131.495	47.455	0	482.90	0	4.8250	0	34.0470	0	26.944	0	478.313	0	32.5	4	10.4	4	-1E+10	1	-1E+10	1	-1E+10	1	-1E+10	1	-1E+10	1	-1E+10	1
4902549	76	C	09/18/2022	04:00	-131.495	47.455	0	487.60	0	4.7610	0	34.0480	0	26.952	0	482.963	0	31.7	4	10.2	4	-1E+10	1	-1E+10	1	-1E+10	1	-1E+10	1	-1E+10	1	-1E+10	1
4902549	76	C	09/18/2022	04:00	-131.495	47.455	0	492.70	0	4.7270	0	34.0510	0	26.958	0	488.009	0	30.1	4	9.7	4	-1E+10	1	-1E+10	1	-1E+10	1	-1E+10	1	-1E+10	1	-1E+10	1
4902549	76	C	09/18/2022	04:00	-131.495	47.455	0	497.90	0	4.7050	0	34.0610	0	26.968	0	493.153	0	28.7	4	9.2	4	-1E+10	1	-1E+10	1	-1E+10	1	-1E+10	1	-1E+10	1	-1E+10	1
4902549	76	C	09/18/2022	04:00	-131.495	47.455	0	502.80	0	4.6850	0	34.0640	0	26.973	0	498.001	0	27.5	4	8.8	4	-1E+10	1	-1E+10	1	-1E+10	1	-1E+10	1	-1E+10	1	-1E+10	1
4902549	76	C	09/18/2022	04:00	-131.495	47.455	0	507.60	0	4.6810	0	34.0710	0	26.979	0	502.749	0	26.0	4	8.3	4	-1E+10	1	-1E+10	1	-1E+10	1	-1E+10	1	-1E+10	1	-1E+10	1
4902549	76	C	09/18/2022	04:00	-131.495	47.455	0	512.90	0	4.6890	0	34.0810	0	26.986	0	507.992	0	24.5	4	7.9	4	-1E+10	1	-1E+10	1	-1E+10	1	-1E+10	1	-1E+10	1	-1E+10	1
4902549	76	C	09/18/2022	04:00	-131.495	47.455	0	517.70	0	4.6660	0	34.0870	0	26.993	0	512.740	0	23.6	4	7.6	4	-1E+10	1	-1E+10	1	-1E+10	1	-1E+10	1	-1E+10	1	-1E+10	1
4902549	76	C	09/18/2022	04:00	-131.495	47.455	0	522.70	0	4.6290	0	34.0940	0	27.003	0	517.686	0	22.9	4	7.4	4	-1E+10	1	-1E+10	1	-1E+10	1	-1E+10	1	-1E+10	1	-1E+10	1
4902549	76	C	09/18/2022	04:00	-131.495	47.455	0	527.70	0	4.6110	0	34.0960	0	27.007	0	522.632	0	22.5	4	7.2	4	-1E+10	1	-1E+10	1	-1E+10	1	-1E+10	1	-1E+10	1	-1E+10	1
4902549	76	C	09/18/2022	04:00	-131.495	47.455	0	532.80	0	4.5760	0	34.1000	0	27.014	0	527.676	0	22.1	4	7.1	4	-1E+10	1	-1E+10	1	-1E+10	1	-1E+10	1	-1E+10	1	-1E+10	1
4902549	76	C	09/18/2022	04:00	-131.495	47.455	0	538.10	0	4.5260	0	34.1010	0	27.020	0	532.918	0	21.4	4	6.8	4	-1E+10	1	-1E+10	1	-1E+10	1	-1E+10	1	-1E+10	1	-1E+10	1
4902549	76	C	09/18/2022	04:00	-131.495	47.455	0	542.90	0	4.5070	0	34.1040	0	27.024	0	537.666	0	20.6	4	6.6	4	-1E+10	1	-1E+10	1	-1E+10	1	-1E+10	1	-1E+10	1	-1E+10	1
4902549	76	C	09/18/2022	04:00	-131.495	47.455	0	547.80	0	4.4980	0	34.1090	0	27.029	0	542.512	0	19.5	4	6.2	4	-1E+10	1	-1E+10	1	-1E+10	1	-1E+10	1	-1E+10	1	-1E+10	1
4902549	76	C	09/18/2022	04:00	-131.495	47.455	0	552.80	0	4.5000	0	34.1150	0	27.034	0	547.457	0	18.5	4	5.9	4	-1E+10	1	-1E+10	1	-1E+10	1	-1E+10	1	-1E+10	1	-1E+10	1
4902549	76	C	09/18/2022	04:00	-131.495	47.455	0	557.80	0	4.5010	0	34.1250	0	27.042	0	552.403	0	17.9	4	5.7	4	-1E+10	1	-1E+10	1	-1E+10	1	-1E+10	1	-1E+10	1	-1E+10	1
4902549	76	C	09/18/2022	04:00	-131.495	47.455	0	562.80	0	4.4760	0	34.1250	0	27.045	0	557.347	0	17.4	4	5.6	4	-1E+10	1	-1E+10	1	-1E+10	1	-1E+10	1	-1E+10	1	-1E+10	1
4902549	76	C	09/18/2022	04:00	-131.495	47.455	0	567.90	0	4.4680	0	34.1310	0	27.050	0	562.391	0	16.8	4	5.4	4	-1E+10	1	-1E+10	1	-1E+10	1	-1E+10	1	-1E+10	1	-1E+10	1
4902549	76	C	09/18/2022	04:00	-131.495	47.455	0	573.00	0	4.4610	0	34.1340	0	27.053	0	567.435	0	16.5	4	5.3	4	-1E+10	1	-1E+10	1	-1E+10	1	-1E+10	1	-1E+10	1	-1E+10	1
4902549	76	C	09/18/2022	04:00	-131.495	47.455	0	578.10	0	4.4410	0	34.1380	0	27.059	0	572.478	0	16.0	4	5.1	4	-1E+10	1	-1E+10	1	-1E+10	1	-1E+10	1	-1E+10	1	-1E+10	1
4902549	76	C	09/18/2022	04:00	-131.495	47.455	0	583.20	0	4.4270	0	34.1400	0	27.062	0	577.522	0	15.7	4	5.0	4	-1E+10	1	-1E+10	1	-1E+10	1	-1E+10	1	-1E+10	1	-1E+10	1
4902549	76	C	09/18/2022	04:00	-131.495	47.455	0	588.20	0	4.3820	0	34.1420	0	27.068	0	582.466	0	15.4	4	4.9	4	-1E+10	1	-1E+10	1	-1E+10	1	-1E+10	1	-1E+10	1	-1E+10	1
4902549	76	C	09/18/2022	04:00	-131.495	47.455	0	593.10	0	4.3660	0	34.1460	0	27.073	0	587.311	0	14.9	4	4.8	4	-1E+10	1	-1E+10	1	-1E+10	1	-1E+10	1	-1E+10	1	-1E+10	1
4902549	76	C	09/18/2022	04:00	-131.495	47.455	0	598.10	0	4.3590	0	34.1490	0	27.076	0	592.255	0	14.5	4	4.6	4	-1E+10	1	-1E+10	1	-1E+10	1	-1E+10	1	-1E+10	1	-1E+10	1
4902549	76	C	09/18/2022	04:00	-131.495	47.455	0	603.20	0	4.3500	0	34.1510	0	27.079	0	597.298	0	14.1	4	4.5	4	-1E+10	1	-1E+10	1	-1E+10	1	-1E+10	1	-1E+10	1	-1E+10	1
4902549	76	C	09/18/2022	04:00	-131.495	47.455	0	608.30	0	4.3280	0	34.1560	0	27.085	0	602.341	0	13.8	4	4.4	4	-1E+10	1	-1E+10	1	-1E+10	1	-1E+10	1	-1E+10	1	-1E+10	1
4902549	76	C	09/18/2022	04:00	-131.495	47.455	0	613.30	0	4.3180	0	34.1580	0	27.088	0	607.285	0	13.5	4	4.3	4	-1E+10	1	-1E+10	1	-1E+10	1	-1E+10	1	-1E+10	1	-1E+10	1
4902549	76	C	09/18/2022	04:00	-131.495	47.455	0	618.30	0	4.3060	0	34.1600	0	27.091	0	612.228	0	13.1	4	4.2	4	-1E+10	1	-1E+10	1	-1E+10	1	-1E+10	1	-1E+10	1	-1E+10	1
4902549	76	C	09/18/2022	04:00	-131.495	47.455	0	623.20	0	4.2790	0	34.1640	0	27.097	0	617.073	0	12.6	4	4.0	4	-1E+10	1	-1E+10	1	-1E+10	1	-1E+10	1	-1E+10	1	-1E+10	1
4902549	76	C	09/18/2022	04:00	-131.495	47.455	0	628.20	0	4.2570	0	34.1680	0	27.103	0	622.016	0	12.2	4	3.9	4	-1E+10	1	-1E+10	1	-1E+10	1	-1E+10	1	-1E+10	1	-1E+10	1
4902549	76	C	09/18/2022	04:00	-131.495	47.455	0	633.10	0	4.2380	0	34.1740	0	27.109	0	626.861	0	11.7	4	3.7	4	-1E+10	1	-1E+10	1	-1E+10	1	-1E+10	1	-1E+10	1	-1E+10	1
4902549	76	C	09/18/2022	04:00	-131.495	47.455	0	638.00	0	4.2260	0	34.1780	0	27.114	0	631.705	0	11.3	4	3.6	4	-1E+10	1	-1E+10	1	-1E+10	1	-1E+10	1	-1E+10	1	-1E+10	1
4902549	76	C	09/18/2022	04:00	-131.495	47.455	0	642.90	0	4.2200	0	34.1820	0	27.118	0	636.549	0	11.0	4	3.5	4	-1E+10	1	-1E+10	1	-1E+10	1	-1E+10	1	-1E+10	1	-1E+10	1
4902549	76	C	09/18/2022	04:00	-131.495	47.455	0	647.70	0	4.2080	0	34.1870	0	27.123	0	641.294	0	10.5	4	3.3	4	-1E+10	1	-1E+10	1	-1E+10	1	-1E+10	1	-1E+10	1	-1E+10	1
4902549	76	C	09/18/2022	04:00	-131.495	47.455	0	653.00	0	4.1920	0	34.1930	0	27.129	0	646.534	0	10.0	4	3.2	4	-1E+10	1	-1E+10	1	-1E+10	1	-1E+10	1	-1E+10	1	-1E+10	1
4902549	76	C	09/18/2022	04:00	-131.495	47.455	0	658.30	0	4.1760	0	34.1990	0	27.136	0	651.773	0	9.5	4	3.0	4	-1E+10	1	-1E+10	1	-1E+10	1	-1E+10	1	-1E+10	1	-1E+10	1
4902549	76	C	09/18/2022	04:00	-131.495	47.455	0	663.00	0	4.1590	0	34.2050	0	27.142	0	656.419	0	9.2	4	2.9	4	-1E+10	1	-1E+10	1	-1E+10	1	-1E+10	1	-1E+10	1	-1E+10	1
4902549	76	C	09/18/2022	04:00	-131.495	47.455	0	667.70	0	4.1510	0	34.2090	0	27.147	0	661.065	0	9.0	4	2.8	4	-1E+10	1	-1E+10	1	-1E+10	1	-1E+10	1	-1E+10	1	-1E+10	1
4902549	76	C	09/18/2022	04:00	-131.495	47.455	0	673.00	0	4.1250	0	34.2160	0	27.155	0	666.304	0	8.9	4	2.8	4	-1E+10	1	-1E+10	1	-1E+10	1	-1E+10	1	-1E+10	1	-1E+10	1
4902549	76	C	09/18/2022	04:00	-131.495	47.455	0	678.30	0	4.0970	0	34.2190	0	27.160	0	671.542	0	8.8	4	2.8	4	-1E+10	1	-1E+10	1	-1E+10	1	-1E+10	1	-1E+10	1	-1E+10	1
4902549	76	C	09/18/2022	04:00	-131.495	47.455	0	683.20	0	4.0860	0	34.2200	0	27.162	0	676.386	0	8.8	4	2.8	4	-1E+10	1	-1E+10	1	-1E+10	1	-1E+10	1	-1E+10	1	-1E+10	1
4902549	76	C	09/18/2022	04:00	-131.495	47.455	0	688.20	0	4.0660	0	34.2220	0	27.166	0	681.327	0	8.7	4	2.7	4	-1E+10	1	-1E+10	1	-1E+10	1	-1E+10	1	-1E+10	1	-1E+10	1
4902549	76	C	09/18/2022	04:00	-131.495	47.455	0	692.90	0	4.0580	0	34.2250	0	27.169	0	685.973	0	8.6	4	2.7	4	-1E+10	1	-1E+10	1	-1E+10	1	-1E+10	1	-1E+10	1	-1E+10	1
4902549	76	C	09/18/2022	04:00	-131.495	47.455	0	697.50	0	4.0420	0	34.2260	0	27.171	0	690.519	0	8.5	4	2.7	4	-1E+10	1	-1E+10	1	-1E+10	1	-1E+10	1	-1E+10	1	-1E+10	1
4902549	76	C	09/18/2022	04:00	-131.495	47.455	0	703.00	0	4.0210	0	34.2300	0	27.177	0	695.955	0	8.1	4	2.6	4	-1E+10	1	-1E+10	1	-1E+10	1	-1E+10	1	-1E+10	1	-1E+10	1
4902549	76	C	09/18/2022	04:00	-131.495	47.455	0	708.20	0	4.0070	0	34.2370	0	27.184	0	701.094	0	7.8	4	2.5	4	-1E+10	1	-1E+10	1	-1E+10	1	-1E+10	1	-1E+10	1	-1E+10	1
4902549	76	C	09/18/2022	04:00	-131.495	47.455	0	713.00	0	4.0020	0	34.2400	0	27.187	0	705.838	0	7.5	4	2.4	4	-1E+10	1	-1E+10	1	-1E+10	1	-1E+10	1	-1E+10	1	-1E+10	1
4902549	76	C	09/18/2022	04:00	-131.495	47.455	0	718.00	0	3.9980	0	34.2460	0	27.192	0	710.779	0	7.1	4	2.3	4	-1E+10	1	-1E+10	1	-1E+10	1	-1E+10	1	-1E+10	1	-1E+10	1
4902549	76	C	09/18/2022	04:00	-131.495	47.455	0	723.10	0	3.9910	0	34.2500	0	27.196	0	715.819	0	6.9	4	2.2	4	-1E+10	1	-1E+10	1	-1E+10	1	-1E+10	1	-1E+10	1	-1E+10	1
4902549	76	C	09/18/2022	04:00	-131.495	47.455	0	727.90	0	3.9840	0	34.2540	0	27.200	0	720.562	0	6.7	4	2.1	4	-1E+10	1	-1E+10	1	-1E+10	1	-1E+10	1	-1E+10	1	-1E+10	1
4902549	76	C	09/18/2022	04:00	-131.495	47.455	0	732.80	0	3.9690	0	34.2580	0	27.205	0	725.405	0	6.6	4	2.1	4	-1E+10	1	-1E+10	1	-1E+10	1	-1E+10	1	-1E+10	1	-1E+10	1
4902549	76	C	09/18/2022	04:00	-131.495	47.455	0	737.90	0	3.9610	0	34.2610	0	27.208	0	730.444	0	6.5	4	2.0	4	-1E+10	1	-1E+10	1	-1E+10	1	-1E+10	1	-1E+10	1	-1E+10	1
4902549	76	C	09/18/2022	04:00	-131.495	47.455	0	743.00	0	3.9460	0	34.2640	0	27.212	0	735.484	0	6.4	4	2.0	4	-1E+10	1	-1E+10	1	-1E+10	1	-1E+10	1	-1E+10	1	-1E+10	1
4902549	76	C	09/18/2022	04:00	-131.495	47.455	0	748.20	0	3.9350	0	34.2670	0	27.215	0	740.622	0	6.3	4	2.0	4	-1E+10	1	-1E+10	1	-1E+10	1	-1E+10	1	-1E+10	1	-1E+10	1
4902549	76	C	09/18/2022	04:00	-131.495	47.455	0	753.10	0	3.9230	0	34.2700	0	27.219	0	745.463	0	6.2	4	2.0	4	-1E+10	1	-1E+10	1	-1E+10	1	-1E+10	1	-1E+10	1	-1E+10	1
4902549	76	C	09/18/2022	04:00	-131.495	47.455	0	758.10	0	3.9130	0	34.2720	0	27.222	0	750.404	0	6.1	4	1.9	4	-1E+10	1	-1E+10	1	-1E+10	1	-1E+10	1	-1E+10	1	-1E+10	1
4902549	76	C	09/18/2022	04:00	-131.495	47.455	0	763.00	0	3.8970	0	34.2750	0	27.226	0	755.245	0	6.1	4	1.9	4	-1E+10	1	-1E+10	1	-1E+10	1	-1E+10	1	-1E+10	1	-1E+10	1
4902549	76	C	09/18/2022	04:00	-131.495	47.455	0	768.00	0	3.8880	0	34.2770	0	27.228	0	760.185	0	6.0	4	1.9	4	-1E+10	1	-1E+10	1	-1E+10	1	-1E+10	1	-1E+10	1	-1E+10	1
4902549	76	C	09/18/2022	04:00	-131.495	47.455	0	773.00	0	3.8810	0	34.2790	0	27.231	0	765.125	0	6.0	4	1.9	4	-1E+10	1	-1E+10	1	-1E+10	1	-1E+10	1	-1E+10	1	-1E+10	1
4902549	76	C	09/18/2022	04:00	-131.495	47.455	0	777.80	0	3.8700	0	34.2820	0	27.234	0	769.867	0	5.9	4	1.9	4	-1E+10	1	-1E+10	1	-1E+10	1	-1E+10	1	-1E+10	1	-1E+10	1
4902549	76	C	09/18/2022	04:00	-131.495	47.455	0	782.70	0	3.8610	0	34.2830	0	27.236	0	774.708	0	5.9	4	1.9	4	-1E+10	1	-1E+10	1	-1E+10	1	-1E+10	1	-1E+10	1	-1E+10	1
4902549	76	C	09/18/2022	04:00	-131.495	47.455	0	787.70	0	3.8480	0	34.2860	0	27.240	0	779.648	0	5.9	4	1.8	4	-1E+10	1	-1E+10	1	-1E+10	1	-1E+10	1	-1E+10	1	-1E+10	1
4902549	76	C	09/18/2022	04:00	-131.495	47.455	0	792.70	0	3.8420	0	34.2880	0	27.242	0	784.588	0	5.8	4	1.8	4	-1E+10	1	-1E+10	1	-1E+10	1	-1E+10	1	-1E+10	1	-1E+10	1
4902549	76	C	09/18/2022	04:00	-131.495	47.455	0	797.90	0	3.8300	0	34.2900	0	27.245	0	789.724	0	5.8	4	1.8	4	-1E+10	1	-1E+10	1	-1E+10	1	-1E+10	1	-1E+10	1	-1E+10	1
4902549	76	C	09/18/2022	04:00	-131.495	47.455	0	802.90	0	3.8160	0	34.2930	0	27.248	0	794.664	0	5.8	4	1.8	4	-1E+10	1	-1E+10	1	-1E+10	1	-1E+10	1	-1E+10	1	-1E+10	1
4902549	76	C	09/18/2022	04:00	-131.495	47.455	0	807.90	0	3.8120	0	34.2940	0	27.250	0	799.603	0	5.7	4	1.8	4	-1E+10	1	-1E+10	1	-1E+10	1	-1E+10	1	-1E+10	1	-1E+10	1
4902549	76	C	09/18/2022	04:00	-131.495	47.455	0	813.10	0	3.8050	0	34.2950	0	27.251	0	804.739	0	5.7	4	1.8	4	-1E+10	1	-1E+10	1	-1E+10	1	-1E+10	1	-1E+10	1	-1E+10	1
4902549	76	C	09/18/2022	04:00	-131.495	47.455	0	817.80	0	3.8000	0	34.2970	0	27.253	0	809.382	0	5.7	4	1.8	4	-1E+10	1	-1E+10	1	-1E+10	1	-1E+10	1	-1E+10	1	-1E+10	1
4902549	76	C	09/18/2022	04:00	-131.495	47.455	0	822.60	0	3.7940	0	34.3000	0	27.256	0	814.123	0	5.6	4	1.8	4	-1E+10	1	-1E+10	1	-1E+10	1	-1E+10	1	-1E+10	1	-1E+10	1
4902549	76	C	09/18/2022	04:00	-131.495	47.455	0	827.50	0	3.7820	0	34.3020	0	27.259	0	818.963	0	5.7	4	1.8	4	-1E+10	1	-1E+10	1	-1E+10	1	-1E+10	1	-1E+10	1	-1E+10	1
4902549	76	C	09/18/2022	04:00	-131.495	47.455	0	832.50	0	3.7700	0	34.3030	0	27.261	0	823.902	0	5.6	4	1.8	4	-1E+10	1	-1E+10	1	-1E+10	1	-1E+10	1	-1E+10	1	-1E+10	1
4902549	76	C	09/18/2022	04:00	-131.495	47.455	0	837.50	0	3.7600	0	34.3050	0	27.264	0	828.840	0	5.6	4	1.8	4	-1E+10	1	-1E+10	1	-1E+10	1	-1E+10	1	-1E+10	1	-1E+10	1
4902549	76	C	09/18/2022	04:00	-131.495	47.455	0	842.60	0	3.7490	0	34.3080	0	27.267	0	833.877	0	5.6	4	1.8	4	-1E+10	1	-1E+10	1	-1E+10	1	-1E+10	1	-1E+10	1	-1E+10	1
4902549	76	C	09/18/2022	04:00	-131.495	47.455	0	847.70	0	3.7420	0	34.3100	0	27.270	0	838.914	0	5.6	4	1.8	4	-1E+10	1	-1E+10	1	-1E+10	1	-1E+10	1	-1E+10	1	-1E+10	1
4902549	76	C	09/18/2022	04:00	-131.495	47.455	0	852.70	0	3.7330	0	34.3110	0	27.271	0	843.852	0	5.6	4	1.8	4	-1E+10	1	-1E+10	1	-1E+10	1	-1E+10	1	-1E+10	1	-1E+10	1
4902549	76	C	09/18/2022	04:00	-131.495	47.455	0	857.70	0	3.7220	0	34.3140	0	27.275	0	848.790	0	5.6	4	1.8	4	-1E+10	1	-1E+10	1	-1E+10	1	-1E+10	1	-1E+10	1	-1E+10	1
4902549	76	C	09/18/2022	04:00	-131.495	47.455	0	862.80	0	3.7120	0	34.3150	0	27.277	0	853.827	0	5.6	4	1.8	4	-1E+10	1	-1E+10	1	-1E+10	1	-1E+10	1	-1E+10	1	-1E+10	1
4902549	76	C	09/18/2022	04:00	-131.495	47.455	0	867.90	0	3.7050	0	34.3170	0	27.279	0	858.863	0	5.6	4	1.8	4	-1E+10	1	-1E+10	1	-1E+10	1	-1E+10	1	-1E+10	1	-1E+10	1
4902549	76	C	09/18/2022	04:00	-131.495	47.455	0	873.00	0	3.6960	0	34.3190	0	27.282	0	863.900	0	5.6	4	1.8	4	-1E+10	1	-1E+10	1	-1E+10	1	-1E+10	1	-1E+10	1	-1E+10	1
4902549	76	C	09/18/2022	04:00	-131.495	47.455	0	878.10	0	3.6830	0	34.3220	0	27.285	0	868.936	0	5.6	4	1.8	4	-1E+10	1	-1E+10	1	-1E+10	1	-1E+10	1	-1E+10	1	-1E+10	1
4902549	76	C	09/18/2022	04:00	-131.495	47.455	0	883.10	0	3.6770	0	34.3240	0	27.287	0	873.873	0	5.6	4	1.8	4	-1E+10	1	-1E+10	1	-1E+10	1	-1E+10	1	-1E+10	1	-1E+10	1
4902549	76	C	09/18/2022	04:00	-131.495	47.455	0	888.10	0	3.6710	0	34.3250	0	27.289	0	878.811	0	5.6	4	1.8	4	-1E+10	1	-1E+10	1	-1E+10	1	-1E+10	1	-1E+10	1	-1E+10	1
4902549	76	C	09/18/2022	04:00	-131.495	47.455	0	893.10	0	3.6640	0	34.3270	0	27.291	0	883.748	0	5.6	4	1.8	4	-1E+10	1	-1E+10	1	-1E+10	1	-1E+10	1	-1E+10	1	-1E+10	1
4902549	76	C	09/18/2022	04:00	-131.495	47.455	0	898.00	0	3.6620	0	34.3270	0	27.291	0	888.586	0	5.6	4	1.8	4	-1E+10	1	-1E+10	1	-1E+10	1	-1E+10	1	-1E+10	1	-1E+10	1
4902549	76	C	09/18/2022	04:00	-131.495	47.455	0	902.90	0	3.6550	0	34.3290	0	27.294	0	893.424	0	5.6	4	1.8	4	-1E+10	1	-1E+10	1	-1E+10	1	-1E+10	1	-1E+10	1	-1E+10	1
4902549	76	C	09/18/2022	04:00	-131.495	47.455	0	907.80	0	3.6450	0	34.3310	0	27.296	0	898.262	0	5.6	4	1.8	4	-1E+10	1	-1E+10	1	-1E+10	1	-1E+10	1	-1E+10	1	-1E+10	1
4902549	76	C	09/18/2022	04:00	-131.495	47.455	0	912.70	0	3.6410	0	34.3320	0	27.298	0	903.100	0	5.6	4	1.7	4	-1E+10	1	-1E+10	1	-1E+10	1	-1E+10	1	-1E+10	1	-1E+10	1
4902549	76	C	09/18/2022	04:00	-131.495	47.455	0	917.60	0	3.6290	0	34.3380	0	27.304	0	907.938	0	5.6	4	1.7	4	-1E+10	1	-1E+10	1	-1E+10	1	-1E+10	1	-1E+10	1	-1E+10	1
4902549	76	C	09/18/2022	04:00	-131.495	47.455	0	922.60	0	3.6240	0	34.3400	0	27.306	0	912.875	0	5.6	4	1.7	4	-1E+10	1	-1E+10	1	-1E+10	1	-1E+10	1	-1E+10	1	-1E+10	1
4902549	76	C	09/18/2022	04:00	-131.495	47.455	0	927.50	0	3.6190	0	34.3410	0	27.307	0	917.712	0	5.6	4	1.7	4	-1E+10	1	-1E+10	1	-1E+10	1	-1E+10	1	-1E+10	1	-1E+10	1
4902549	76	C	09/18/2022	04:00	-131.495	47.455	0	932.50	0	3.6100	0	34.3430	0	27.309	0	922.648	0	5.6	4	1.8	4	-1E+10	1	-1E+10	1	-1E+10	1	-1E+10	1	-1E+10	1	-1E+10	1
4902549	76	C	09/18/2022	04:00	-131.495	47.455	0	937.50	0	3.6050	0	34.3440	0	27.311	0	927.585	0	5.6	4	1.8	4	-1E+10	1	-1E+10	1	-1E+10	1	-1E+10	1	-1E+10	1	-1E+10	1
4902549	76	C	09/18/2022	04:00	-131.495	47.455	0	942.90	0	3.5950	0	34.3460	0	27.313	0	932.915	0	5.7	4	1.8	4	-1E+10	1	-1E+10	1	-1E+10	1	-1E+10	1	-1E+10	1	-1E+10	1
4902549	76	C	09/18/2022	04:00	-131.495	47.455	0	948.30	0	3.5720	0	34.3490	0	27.318	0	938.246	0	5.7	4	1.8	4	-1E+10	1	-1E+10	1	-1E+10	1	-1E+10	1	-1E+10	1	-1E+10	1
4902549	76	C	09/18/2022	04:00	-131.495	47.455	0	953.20	0	3.5640	0	34.3500	0	27.320	0	943.083	0	5.7	4	1.8	4	-1E+10	1	-1E+10	1	-1E+10	1	-1E+10	1	-1E+10	1	-1E+10	1
4902549	76	C	09/18/2022	04:00	-131.495	47.455	0	958.20	0	3.5540	0	34.3530	0	27.323	0	948.019	0	5.8	4	1.8	4	-1E+10	1	-1E+10	1	-1E+10	1	-1E+10	1	-1E+10	1	-1E+10	1
4902549	76	C	09/18/2022	04:00	-131.495	47.455	0	963.10	0	3.5410	0	34.3540	0	27.325	0	952.856	0	5.8	4	1.8	4	-1E+10	1	-1E+10	1	-1E+10	1	-1E+10	1	-1E+10	1	-1E+10	1
4902549	76	C	09/18/2022	04:00	-131.495	47.455	0	968.00	0	3.5240	0	34.3560	0	27.328	0	957.692	0	5.9	4	1.8	4	-1E+10	1	-1E+10	1	-1E+10	1	-1E+10	1	-1E+10	1	-1E+10	1
4902549	76	C	09/18/2022	04:00	-131.495	47.455	0	972.90	0	3.5110	0	34.3570	0	27.330	0	962.529	0	5.9	4	1.8	4	-1E+10	1	-1E+10	1	-1E+10	1	-1E+10	1	-1E+10	1	-1E+10	1
4902549	76	C	09/18/2022	04:00	-131.495	47.455	0	977.70	0	3.5010	0	34.3580	0	27.332	0	967.267	0	5.9	4	1.9	4	-1E+10	1	-1E+10	1	-1E+10	1	-1E+10	1	-1E+10	1	-1E+10	1
4902549	76	C	09/18/2022	04:00	-131.495	47.455	0	982.50	0	3.4760	0	34.3590	0	27.335	0	972.004	0	6.0	4	1.9	4	-1E+10	1	-1E+10	1	-1E+10	1	-1E+10	1	-1E+10	1	-1E+10	1
4902549	76	C	09/18/2022	04:00	-131.495	47.455	0	987.90	0	3.4670	0	34.3600	0	27.337	0	977.334	0	6.0	4	1.9	4	-1E+10	1	-1E+10	1	-1E+10	1	-1E+10	1	-1E+10	1	-1E+10	1
4902549	76	C	09/18/2022	04:00	-131.495	47.455	0	993.40	0	3.4580	0	34.3620	0	27.340	0	982.762	0	6.1	4	1.9	4	-1E+10	1	-1E+10	1	-1E+10	1	-1E+10	1	-1E+10	1	-1E+10	1
4902549	76	C	09/18/2022	04:00	-131.495	47.455	0	998.40	0	3.4490	0	34.3630	0	27.341	0	987.697	0	6.1	4	1.9	4	-1E+10	1	-1E+10	1	-1E+10	1	-1E+10	1	-1E+10	1	-1E+10	1
4902549	76	C	09/18/2022	04:00	-131.495	47.455	0	1005.40	0	3.4360	0	34.3650	0	27.344	0	994.605	0	6.1	4	1.9	4	-1E+10	1	-1E+10	1	-1E+10	1	-1E+10	1	-1E+10	1	-1E+10	1
4902549	76	C	09/18/2022	04:00	-131.495	47.455	0	1015.00	0	3.4280	0	34.3720	0	27.351	0	1004.079	0	6.2	4	1.9	4	-1E+10	1	-1E+10	1	-1E+10	1	-1E+10	1	-1E+10	1	-1E+10	1
4902549	76	C	09/18/2022	04:00	-131.495	47.455	0	1025.20	0	3.3970	0	34.3750	0	27.356	0	1014.145	0	6.4	4	2.0	4	-1E+10	1	-1E+10	1	-1E+10	1	-1E+10	1	-1E+10	1	-1E+10	1
4902549	76	C	09/18/2022	04:00	-131.495	47.455	0	1035.30	0	3.3790	0	34.3800	0	27.362	0	1024.111	0	6.5	4	2.0	4	-1E+10	1	-1E+10	1	-1E+10	1	-1E+10	1	-1E+10	1	-1E+10	1
4902549	76	C	09/18/2022	04:00	-131.495	47.455	0	1045.60	0	3.3660	0	34.3830	0	27.366	0	1034.274	0	6.6	4	2.1	4	-1E+10	1	-1E+10	1	-1E+10	1	-1E+10	1	-1E+10	1	-1E+10	1
4902549	76	C	09/18/2022	04:00	-131.495	47.455	0	1055.70	0	3.3350	0	34.3860	0	27.371	0	1044.240	0	6.7	4	2.1	4	-1E+10	1	-1E+10	1	-1E+10	1	-1E+10	1	-1E+10	1	-1E+10	1
4902549	76	C	09/18/2022	04:00	-131.495	47.455	0	1065.70	0	3.3160	0	34.3880	0	27.374	0	1054.106	0	6.8	4	2.1	4	-1E+10	1	-1E+10	1	-1E+10	1	-1E+10	1	-1E+10	1	-1E+10	1
4902549	76	C	09/18/2022	04:00	-131.495	47.455	0	1075.50	0	3.2940	0	34.3910	0	27.379	0	1063.775	0	6.9	4	2.2	4	-1E+10	1	-1E+10	1	-1E+10	1	-1E+10	1	-1E+10	1	-1E+10	1
4902549	76	C	09/18/2022	04:00	-131.495	47.455	0	1085.60	0	3.2730	0	34.3920	0	27.382	0	1073.739	0	7.0	4	2.2	4	-1E+10	1	-1E+10	1	-1E+10	1	-1E+10	1	-1E+10	1	-1E+10	1
4902549	76	C	09/18/2022	04:00	-131.495	47.455	0	1095.40	0	3.2530	0	34.3950	0	27.386	0	1083.407	0	7.2	4	2.2	4	-1E+10	1	-1E+10	1	-1E+10	1	-1E+10	1	-1E+10	1	-1E+10	1
4902549	76	C	09/18/2022	04:00	-131.495	47.455	0	1105.20	0	3.2460	0	34.3980	0	27.389	0	1093.074	0	7.3	4	2.3	4	-1E+10	1	-1E+10	1	-1E+10	1	-1E+10	1	-1E+10	1	-1E+10	1
4902549	76	C	09/18/2022	04:00	-131.495	47.455	0	1115.20	0	3.2280	0	34.4010	0	27.393	0	1102.938	0	7.5	4	2.3	4	-1E+10	1	-1E+10	1	-1E+10	1	-1E+10	1	-1E+10	1	-1E+10	1
4902549	76	C	09/18/2022	04:00	-131.495	47.455	0	1125.40	0	3.2020	0	34.4050	0	27.399	0	1112.999	0	7.7	4	2.4	4	-1E+10	1	-1E+10	1	-1E+10	1	-1E+10	1	-1E+10	1	-1E+10	1
4902549	76	C	09/18/2022	04:00	-131.495	47.455	0	1135.30	0	3.1700	0	34.4080	0	27.404	0	1122.763	0	7.8	4	2.4	4	-1E+10	1	-1E+10	1	-1E+10	1	-1E+10	1	-1E+10	1	-1E+10	1
4902549	76	C	09/18/2022	04:00	-131.495	47.455	0	1145.20	0	3.1400	0	34.4090	0	27.408	0	1132.527	0	7.9	4	2.4	4	-1E+10	1	-1E+10	1	-1E+10	1	-1E+10	1	-1E+10	1	-1E+10	1
4902549	76	C	09/18/2022	04:00	-131.495	47.455	0	1155.30	0	3.1070	0	34.4110	0	27.413	0	1142.488	0	7.9	4	2.5	4	-1E+10	1	-1E+10	1	-1E+10	1	-1E+10	1	-1E+10	1	-1E+10	1
4902549	76	C	09/18/2022	04:00	-131.495	47.455	0	1165.00	0	3.0660	0	34.4090	0	27.415	0	1152.054	0	7.9	4	2.5	4	-1E+10	1	-1E+10	1	-1E+10	1	-1E+10	1	-1E+10	1	-1E+10	1
4902549	76	C	09/18/2022	04:00	-131.495	47.455	0	1175.00	0	3.0260	0	34.4100	0	27.419	0	1161.915	0	8.0	4	2.5	4	-1E+10	1	-1E+10	1	-1E+10	1	-1E+10	1	-1E+10	1	-1E+10	1
4902549	76	C	09/18/2022	04:00	-131.495	47.455	0	1185.10	0	2.9710	0	34.4110	0	27.425	0	1171.874	0	8.2	4	2.5	4	-1E+10	1	-1E+10	1	-1E+10	1	-1E+10	1	-1E+10	1	-1E+10	1
4902549	76	C	09/18/2022	04:00	-131.495	47.455	0	1195.30	0	2.9430	0	34.4150	0	27.431	0	1181.932	0	8.4	4	2.6	4	-1E+10	1	-1E+10	1	-1E+10	1	-1E+10	1	-1E+10	1	-1E+10	1
4902549	76	C	09/18/2022	04:00	-131.495	47.455	0	1205.60	0	2.9290	0	34.4220	0	27.438	0	1192.087	0	8.8	4	2.7	4	-1E+10	1	-1E+10	1	-1E+10	1	-1E+10	1	-1E+10	1	-1E+10	1
4902549	76	C	09/18/2022	04:00	-131.495	47.455	0	1215.40	0	2.9310	0	34.4250	0	27.440	0	1201.750	0	9.0	4	2.8	4	-1E+10	1	-1E+10	1	-1E+10	1	-1E+10	1	-1E+10	1	-1E+10	1
4902549	76	C	09/18/2022	04:00	-131.495	47.455	0	1225.30	0	2.9260	0	34.4290	0	27.444	0	1211.510	0	9.4	4	2.9	4	-1E+10	1	-1E+10	1	-1E+10	1	-1E+10	1	-1E+10	1	-1E+10	1
4902549	76	C	09/18/2022	04:00	-131.495	47.455	0	1235.40	0	2.9090	0	34.4330	0	27.448	0	1221.467	0	9.6	4	3.0	4	-1E+10	1	-1E+10	1	-1E+10	1	-1E+10	1	-1E+10	1	-1E+10	1
4902549	76	C	09/18/2022	04:00	-131.495	47.455	0	1245.60	0	2.8990	0	34.4370	0	27.453	0	1231.522	0	10.0	4	3.1	4	-1E+10	1	-1E+10	1	-1E+10	1	-1E+10	1	-1E+10	1	-1E+10	1
4902549	76	C	09/18/2022	04:00	-131.495	47.455	0	1255.90	0	2.8810	0	34.4400	0	27.457	0	1241.675	0	10.2	4	3.2	4	-1E+10	1	-1E+10	1	-1E+10	1	-1E+10	1	-1E+10	1	-1E+10	1
4902549	76	C	09/18/2022	04:00	-131.495	47.455	0	1265.40	0	2.8700	0	34.4430	0	27.460	0	1251.040	0	10.5	4	3.2	4	-1E+10	1	-1E+10	1	-1E+10	1	-1E+10	1	-1E+10	1	-1E+10	1
4902549	76	C	09/18/2022	04:00	-131.495	47.455	0	1275.40	0	2.8570	0	34.4460	0	27.464	0	1260.896	0	10.8	4	3.3	4	-1E+10	1	-1E+10	1	-1E+10	1	-1E+10	1	-1E+10	1	-1E+10	1
4902549	76	C	09/18/2022	04:00	-131.495	47.455	0	1285.30	0	2.8430	0	34.4480	0	27.467	0	1270.654	0	11.1	4	3.4	4	-1E+10	1	-1E+10	1	-1E+10	1	-1E+10	1	-1E+10	1	-1E+10	1
4902549	76	C	09/18/2022	04:00	-131.495	47.455	0	1295.40	0	2.8170	0	34.4510	0	27.471	0	1280.608	0	11.4	4	3.5	4	-1E+10	1	-1E+10	1	-1E+10	1	-1E+10	1	-1E+10	1	-1E+10	1
4902549	76	C	09/18/2022	04:00	-131.495	47.455	0	1305.80	0	2.8010	0	34.4530	0	27.474	0	1290.857	0	11.7	4	3.6	4	-1E+10	1	-1E+10	1	-1E+10	1	-1E+10	1	-1E+10	1	-1E+10	1
4902549	76	C	09/18/2022	04:00	-131.495	47.455	0	1315.70	0	2.7900	0	34.4560	0	27.478	0	1300.613	0	12.1	4	3.7	4	-1E+10	1	-1E+10	1	-1E+10	1	-1E+10	1	-1E+10	1	-1E+10	1
4902549	76	C	09/18/2022	04:00	-131.495	47.455	0	1325.60	0	2.7800	0	34.4580	0	27.480	0	1310.369	0	12.4	4	3.8	4	-1E+10	1	-1E+10	1	-1E+10	1	-1E+10	1	-1E+10	1	-1E+10	1
4902549	76	C	09/18/2022	04:00	-131.495	47.455	0	1335.30	0	2.7720	0	34.4600	0	27.483	0	1319.927	0	12.8	4	3.9	4	-1E+10	1	-1E+10	1	-1E+10	1	-1E+10	1	-1E+10	1	-1E+10	1
4902549	76	C	09/18/2022	04:00	-131.495	47.455	0	1345.20	0	2.7520	0	34.4630	0	27.487	0	1329.682	0	13.2	4	4.1	4	-1E+10	1	-1E+10	1	-1E+10	1	-1E+10	1	-1E+10	1	-1E+10	1
4902549	76	C	09/18/2022	04:00	-131.495	47.455	0	1355.40	0	2.7310	0	34.4660	0	27.491	0	1339.732	0	13.6	4	4.2	4	-1E+10	1	-1E+10	1	-1E+10	1	-1E+10	1	-1E+10	1	-1E+10	1
4902549	76	C	09/18/2022	04:00	-131.495	47.455	0	1365.20	0	2.7090	0	34.4690	0	27.495	0	1349.387	0	14.0	4	4.3	4	-1E+10	1	-1E+10	1	-1E+10	1	-1E+10	1	-1E+10	1	-1E+10	1
4902549	76	C	09/18/2022	04:00	-131.495	47.455	0	1375.10	0	2.6920	0	34.4720	0	27.499	0	1359.141	0	14.3	4	4.4	4	-1E+10	1	-1E+10	1	-1E+10	1	-1E+10	1	-1E+10	1	-1E+10	1
4902549	76	C	09/18/2022	04:00	-131.495	47.455	0	1385.00	0	2.6780	0	34.4730	0	27.501	0	1368.894	0	14.8	4	4.5	4	-1E+10	1	-1E+10	1	-1E+10	1	-1E+10	1	-1E+10	1	-1E+10	1
4902549	76	C	09/18/2022	04:00	-131.495	47.455	0	1395.40	0	2.6570	0	34.4770	0	27.506	0	1379.139	0	15.3	4	4.7	4	-1E+10	1	-1E+10	1	-1E+10	1	-1E+10	1	-1E+10	1	-1E+10	1
4902549	76	C	09/18/2022	04:00	-131.495	47.455	0	1405.40	0	2.6420	0	34.4790	0	27.509	0	1388.990	0	15.9	4	4.9	4	-1E+10	1	-1E+10	1	-1E+10	1	-1E+10	1	-1E+10	1	-1E+10	1
4902549	76	C	09/18/2022	04:00	-131.495	47.455	0	1415.00	0	2.6330	0	34.4820	0	27.513	0	1398.446	0	16.4	4	5.0	4	-1E+10	1	-1E+10	1	-1E+10	1	-1E+10	1	-1E+10	1	-1E+10	1
4902549	76	C	09/18/2022	04:00	-131.495	47.455	0	1425.10	0	2.6150	0	34.4850	0	27.517	0	1408.394	0	17.1	4	5.2	4	-1E+10	1	-1E+10	1	-1E+10	1	-1E+10	1	-1E+10	1	-1E+10	1
4902549	76	C	09/18/2022	04:00	-131.495	47.455	0	1435.30	0	2.5920	0	34.4890	0	27.522	0	1418.440	0	17.8	4	5.4	4	-1E+10	1	-1E+10	1	-1E+10	1	-1E+10	1	-1E+10	1	-1E+10	1
4902549	76	C	09/18/2022	04:00	-131.495	47.455	0	1445.40	0	2.5710	0	34.4910	0	27.525	0	1428.387	0	18.3	4	5.6	4	-1E+10	1	-1E+10	1	-1E+10	1	-1E+10	1	-1E+10	1	-1E+10	1
4902549	76	C	09/18/2022	04:00	-131.495	47.455	0	1455.50	0	2.5510	0	34.4940	0	27.529	0	1438.334	0	19.0	4	5.8	4	-1E+10	1	-1E+10	1	-1E+10	1	-1E+10	1	-1E+10	1	-1E+10	1
4902549	76	C	09/18/2022	04:00	-131.495	47.455	0	1465.70	0	2.5300	0	34.4970	0	27.534	0	1448.379	0	19.5	4	5.9	4	-1E+10	1	-1E+10	1	-1E+10	1	-1E+10	1	-1E+10	1	-1E+10	1
4902549	76	C	09/18/2022	04:00	-131.495	47.455	0	1475.80	0	2.5170	0	34.4980	0	27.536	0	1458.325	0	20.0	4	6.1	4	-1E+10	1	-1E+10	1	-1E+10	1	-1E+10	1	-1E+10	1	-1E+10	1
4902549	76	C	09/18/2022	04:00	-131.495	47.455	0	1485.40	0	2.5010	0	34.5000	0	27.539	0	1467.778	0	20.5	4	6.3	4	-1E+10	1	-1E+10	1	-1E+10	1	-1E+10	1	-1E+10	1	-1E+10	1
4902549	76	C	09/18/2022	04:00	-131.495	47.455	0	1495.40	0	2.4800	0	34.5030	0	27.543	0	1477.624	0	21.2	4	6.5	4	-1E+10	1	-1E+10	1	-1E+10	1	-1E+10	1	-1E+10	1	-1E+10	1
4902549	76	C	09/18/2022	04:00	-131.495	47.455	0	1505.20	0	2.4620	0	34.5050	0	27.546	0	1487.273	0	21.9	4	6.7	4	-1E+10	1	-1E+10	1	-1E+10	1	-1E+10	1	-1E+10	1	-1E+10	1
4902549	76	C	09/18/2022	04:00	-131.495	47.455	0	1515.10	0	2.4390	0	34.5080	0	27.550	0	1497.020	0	22.4	4	6.8	4	-1E+10	1	-1E+10	1	-1E+10	1	-1E+10	1	-1E+10	1	-1E+10	1
4902549	76	C	09/18/2022	04:00	-131.495	47.455	0	1525.40	0	2.4310	0	34.5090	0	27.552	0	1507.160	0	22.9	4	7.0	4	-1E+10	1	-1E+10	1	-1E+10	1	-1E+10	1	-1E+10	1	-1E+10	1
4902549	76	C	09/18/2022	04:00	-131.495	47.455	0	1535.50	0	2.4200	0	34.5110	0	27.554	0	1517.103	0	23.4	4	7.1	4	-1E+10	1	-1E+10	1	-1E+10	1	-1E+10	1	-1E+10	1	-1E+10	1
4902549	76	C	09/18/2022	04:00	-131.495	47.455	0	1545.60	0	2.4040	0	34.5130	0	27.557	0	1527.046	0	24.0	4	7.3	4	-1E+10	1	-1E+10	1	-1E+10	1	-1E+10	1	-1E+10	1	-1E+10	1
4902549	76	C	09/18/2022	04:00	-131.495	47.455	0	1555.70	0	2.3810	0	34.5150	0	27.561	0	1536.988	0	24.6	4	7.5	4	-1E+10	1	-1E+10	1	-1E+10	1	-1E+10	1	-1E+10	1	-1E+10	1
4902549	76	C	09/18/2022	04:00	-131.495	47.455	0	1565.50	0	2.3640	0	34.5170	0	27.564	0	1546.634	0	25.2	4	7.7	4	-1E+10	1	-1E+10	1	-1E+10	1	-1E+10	1	-1E+10	1	-1E+10	1
4902549	76	C	09/18/2022	04:00	-131.495	47.455	0	1575.50	0	2.3500	0	34.5190	0	27.567	0	1556.477	0	25.8	4	7.8	4	-1E+10	1	-1E+10	1	-1E+10	1	-1E+10	1	-1E+10	1	-1E+10	1
4902549	76	C	09/18/2022	04:00	-131.495	47.455	0	1585.30	0	2.3320	0	34.5210	0	27.570	0	1566.123	0	26.4	4	8.0	4	-1E+10	1	-1E+10	1	-1E+10	1	-1E+10	1	-1E+10	1	-1E+10	1
4902549	76	C	09/18/2022	04:00	-131.495	47.455	0	1595.30	0	2.3180	0	34.5230	0	27.573	0	1575.964	0	27.1	4	8.2	4	-1E+10	1	-1E+10	1	-1E+10	1	-1E+10	1	-1E+10	1	-1E+10	1
4902549	76	C	09/18/2022	04:00	-131.495	47.455	0	1605.40	0	2.3020	0	34.5250	0	27.576	0	1585.904	0	27.5	4	8.4	4	-1E+10	1	-1E+10	1	-1E+10	1	-1E+10	1	-1E+10	1	-1E+10	1
4902549	76	C	09/18/2022	04:00	-131.495	47.455	0	1615.50	0	2.2940	0	34.5260	0	27.577	0	1595.843	0	28.0	4	8.5	4	-1E+10	1	-1E+10	1	-1E+10	1	-1E+10	1	-1E+10	1	-1E+10	1
4902549	76	C	09/18/2022	04:00	-131.495	47.455	0	1625.40	0	2.2830	0	34.5280	0	27.580	0	1605.586	0	28.4	4	8.6	4	-1E+10	1	-1E+10	1	-1E+10	1	-1E+10	1	-1E+10	1	-1E+10	1
4902549	76	C	09/18/2022	04:00	-131.495	47.455	0	1635.50	0	2.2770	0	34.5290	0	27.581	0	1615.524	0	28.9	4	8.8	4	-1E+10	1	-1E+10	1	-1E+10	1	-1E+10	1	-1E+10	1	-1E+10	1
4902549	76	C	09/18/2022	04:00	-131.495	47.455	0	1645.30	0	2.2690	0	34.5300	0	27.583	0	1625.167	0	29.5	4	9.0	4	-1E+10	1	-1E+10	1	-1E+10	1	-1E+10	1	-1E+10	1	-1E+10	1
4902549	76	C	09/18/2022	04:00	-131.495	47.455	0	1655.20	0	2.2510	0	34.5330	0	27.586	0	1634.907	0	30.2	4	9.1	4	-1E+10	1	-1E+10	1	-1E+10	1	-1E+10	1	-1E+10	1	-1E+10	1
4902549	76	C	09/18/2022	04:00	-131.495	47.455	0	1665.50	0	2.2420	0	34.5340	0	27.588	0	1645.041	0	30.5	4	9.3	4	-1E+10	1	-1E+10	1	-1E+10	1	-1E+10	1	-1E+10	1	-1E+10	1
4902549	76	C	09/18/2022	04:00	-131.495	47.455	0	1675.70	0	2.2380	0	34.5350	0	27.589	0	1655.076	0	30.9	4	9.4	4	-1E+10	1	-1E+10	1	-1E+10	1	-1E+10	1	-1E+10	1	-1E+10	1
4902549	76	C	09/18/2022	04:00	-131.495	47.455	0	1685.60	0	2.2290	0	34.5360	0	27.591	0	1664.815	0	31.4	4	9.5	4	-1E+10	1	-1E+10	1	-1E+10	1	-1E+10	1	-1E+10	1	-1E+10	1
4902549	76	C	09/18/2022	04:00	-131.495	47.455	0	1695.60	0	2.2230	0	34.5370	0	27.592	0	1674.652	0	32.0	4	9.7	4	-1E+10	1	-1E+10	1	-1E+10	1	-1E+10	1	-1E+10	1	-1E+10	1
4902549	76	C	09/18/2022	04:00	-131.495	47.455	0	1705.40	0	2.2110	0	34.5390	0	27.595	0	1684.293	0	33.1	4	10.0	4	-1E+10	1	-1E+10	1	-1E+10	1	-1E+10	1	-1E+10	1	-1E+10	1
4902549	76	C	09/18/2022	04:00	-131.495	47.455	0	1715.40	0	2.1850	0	34.5430	0	27.600	0	1694.129	0	34.2	4	10.3	4	-1E+10	1	-1E+10	1	-1E+10	1	-1E+10	1	-1E+10	1	-1E+10	1
4902549	76	C	09/18/2022	04:00	-131.495	47.455	0	1725.40	0	2.1750	0	34.5450	0	27.602	0	1703.965	0	34.8	4	10.5	4	-1E+10	1	-1E+10	1	-1E+10	1	-1E+10	1	-1E+10	1	-1E+10	1
4902549	76	C	09/18/2022	04:00	-131.495	47.455	0	1735.30	0	2.1630	0	34.5470	0	27.605	0	1713.702	0	35.6	4	10.8	4	-1E+10	1	-1E+10	1	-1E+10	1	-1E+10	1	-1E+10	1	-1E+10	1
4902549	76	C	09/18/2022	04:00	-131.495	47.455	0	1745.40	0	2.1510	0	34.5480	0	27.607	0	1723.635	0	36.3	4	11.0	4	-1E+10	1	-1E+10	1	-1E+10	1	-1E+10	1	-1E+10	1	-1E+10	1
4902549	76	C	09/18/2022	04:00	-131.495	47.455	0	1755.40	0	2.1410	0	34.5500	0	27.609	0	1733.470	0	36.9	4	11.2	4	-1E+10	1	-1E+10	1	-1E+10	1	-1E+10	1	-1E+10	1	-1E+10	1
4902549	76	C	09/18/2022	04:00	-131.495	47.455	0	1765.60	0	2.1310	0	34.5520	0	27.612	0	1743.500	0	38.0	4	11.5	4	-1E+10	1	-1E+10	1	-1E+10	1	-1E+10	1	-1E+10	1	-1E+10	1
4902549	76	C	09/18/2022	04:00	-131.495	47.455	0	1775.60	0	2.1100	0	34.5550	0	27.616	0	1753.334	0	39.1	4	11.8	4	-1E+10	1	-1E+10	1	-1E+10	1	-1E+10	1	-1E+10	1	-1E+10	1
4902549	76	C	09/18/2022	04:00	-131.495	47.455	0	1785.20	0	2.0940	0	34.5580	0	27.620	0	1762.774	0	40.0	4	12.1	4	-1E+10	1	-1E+10	1	-1E+10	1	-1E+10	1	-1E+10	1	-1E+10	1
4902549	76	C	09/18/2022	04:00	-131.495	47.455	0	1795.10	0	2.0800	0	34.5600	0	27.622	0	1772.508	0	40.9	4	12.3	4	-1E+10	1	-1E+10	1	-1E+10	1	-1E+10	1	-1E+10	1	-1E+10	1
4902549	76	C	09/18/2022	04:00	-131.495	47.455	0	1805.20	0	2.0700	0	34.5620	0	27.625	0	1782.438	0	41.8	4	12.6	4	-1E+10	1	-1E+10	1	-1E+10	1	-1E+10	1	-1E+10	1	-1E+10	1
4902549	76	C	09/18/2022	04:00	-131.495	47.455	0	1815.40	0	2.0580	0	34.5640	0	27.627	0	1792.467	0	42.6	4	12.9	4	-1E+10	1	-1E+10	1	-1E+10	1	-1E+10	1	-1E+10	1	-1E+10	1
4902549	76	C	09/18/2022	04:00	-131.495	47.455	0	1825.40	0	2.0490	0	34.5660	0	27.630	0	1802.298	0	43.1	4	13.0	4	-1E+10	1	-1E+10	1	-1E+10	1	-1E+10	1	-1E+10	1	-1E+10	1
4902549	76	C	09/18/2022	04:00	-131.495	47.455	0	1835.40	0	2.0470	0	34.5670	0	27.631	0	1812.129	0	43.3	4	13.1	4	-1E+10	1	-1E+10	1	-1E+10	1	-1E+10	1	-1E+10	1	-1E+10	1
4902549	76	C	09/18/2022	04:00	-131.495	47.455	0	1845.60	0	2.0460	0	34.5670	0	27.631	0	1822.156	0	43.7	4	13.2	4	-1E+10	1	-1E+10	1	-1E+10	1	-1E+10	1	-1E+10	1	-1E+10	1
4902549	76	C	09/18/2022	04:00	-131.495	47.455	0	1855.40	0	2.0380	0	34.5680	0	27.632	0	1831.789	0	44.7	4	13.5	4	-1E+10	1	-1E+10	1	-1E+10	1	-1E+10	1	-1E+10	1	-1E+10	1
4902549	76	C	09/18/2022	04:00	-131.495	47.455	0	1865.10	0	2.0230	0	34.5710	0	27.636	0	1841.324	0	45.5	4	13.7	4	-1E+10	1	-1E+10	1	-1E+10	1	-1E+10	1	-1E+10	1	-1E+10	1
4902549	76	C	09/18/2022	04:00	-131.495	47.455	0	1875.20	0	2.0190	0	34.5720	0	27.637	0	1851.251	0	46.2	4	13.9	4	-1E+10	1	-1E+10	1	-1E+10	1	-1E+10	1	-1E+10	1	-1E+10	1
4902549	76	C	09/18/2022	04:00	-131.495	47.455	0	1885.10	0	1.9990	0	34.5750	0	27.641	0	1860.981	0	47.9	4	14.4	4	-1E+10	1	-1E+10	1	-1E+10	1	-1E+10	1	-1E+10	1	-1E+10	1
4902549	76	C	09/18/2022	04:00	-131.495	47.455	0	1895.30	0	1.9810	0	34.5780	0	27.645	0	1871.006	0	48.5	4	14.6	4	-1E+10	1	-1E+10	1	-1E+10	1	-1E+10	1	-1E+10	1	-1E+10	1
4902549	76	C	09/18/2022	04:00	-131.495	47.455	0	1905.30	0	1.9790	0	34.5780	0	27.645	0	1880.834	0	48.7	4	14.7	4	-1E+10	1	-1E+10	1	-1E+10	1	-1E+10	1	-1E+10	1	-1E+10	1
4902549	76	C	09/18/2022	04:00	-131.495	47.455	0	1915.30	0	1.9760	0	34.5790	0	27.646	0	1890.661	0	48.9	4	14.7	4	-1E+10	1	-1E+10	1	-1E+10	1	-1E+10	1	-1E+10	1	-1E+10	1
4902549	76	C	09/18/2022	04:00	-131.495	47.455	0	1925.40	0	1.9760	0	34.5790	0	27.646	0	1900.586	0	49.1	4	14.8	4	-1E+10	1	-1E+10	1	-1E+10	1	-1E+10	1	-1E+10	1	-1E+10	1
4902549	76	C	09/18/2022	04:00	-131.495	47.455	0	1935.20	0	1.9710	0	34.5800	0	27.648	0	1910.216	0	49.5	4	14.9	4	-1E+10	1	-1E+10	1	-1E+10	1	-1E+10	1	-1E+10	1	-1E+10	1
4902549	76	C	09/18/2022	04:00	-131.495	47.455	0	1945.00	0	1.9650	0	34.5810	0	27.649	0	1919.845	0	49.8	4	15.0	4	-1E+10	1	-1E+10	1	-1E+10	1	-1E+10	1	-1E+10	1	-1E+10	1
4902549	76	C	09/18/2022	04:00	-131.495	47.455	0	1955.30	0	1.9630	0	34.5810	0	27.649	0	1929.965	0	49.8	4	15.0	4	-1E+10	1	-1E+10	1	-1E+10	1	-1E+10	1	-1E+10	1	-1E+10	1
4902549	76	C	09/18/2022	04:00	-131.495	47.455	0	1965.30	0	1.9630	0	34.5820	0	27.650	0	1939.790	0	49.8	4	15.0	4	-1E+10	1	-1E+10	1	-1E+10	1	-1E+10	1	-1E+10	1	-1E+10	1
4902549	76	C	09/18/2022	04:00	-131.495	47.455	0	1975.10	0	1.9640	0	34.5820	0	27.650	0	1949.418	0	49.6	4	15.0	4	-1E+10	1	-1E+10	1	-1E+10	1	-1E+10	1	-1E+10	1	-1E+10	1
4902549	76	C	09/18/2022	04:00	-131.495	47.455	0	1985.90	0	1.9630	0	34.5820	0	27.650	0	1960.028	0	49.4	4	14.9	4	-1E+10	1	-1E+10	1	-1E+10	1	-1E+10	1	-1E+10	1	-1E+10	1
4902549	76	C	09/18/2022	04:00	-131.495	47.455	0	1992.10	0	1.9610	0	34.5830	0	27.651	0	1966.119	0	48.6	4	14.6	4	-1E+10	1	-1E+10	1	-1E+10	1	-1E+10	1	-1E+10	1	-1E+10	1
4902549	76	C	09/18/2022	04:00	-131.495	47.455	0																										
4902549	77	C	09/28/2022	08:56	-131.629	47.214	0	0.00	0	17.2290	0	32.2590	0	23.359	0	0.000	0	242.3	4	100.2	4	-1E+10	1	-1E+10	1	-1E+10	1	-1E+10	1	-1E+10	1	-1E+10	1
4902549	77	C	09/28/2022	08:56	-131.629	47.214	0	0.10	0	17.2270	0	32.2600	0	23.360	0	0.099	0	-1e10	1	-1e10	1	-1E+10	1	-1E+10	1	-1E+10	1	-1E+10	1	-1E+10	1	-1E+10	1
4902549	77	C	09/28/2022	08:56	-131.629	47.214	0	0.40	0	17.2410	0	32.2590	0	23.356	0	0.397	0	236.9	4	98.0	4	-1E+10	1	-1E+10	1	-1E+10	1	-1E+10	1	-1E+10	1	-1E+10	1
4902549	77	C	09/28/2022	08:56	-131.629	47.214	0	0.90	0	17.2460	0	32.2270	0	23.330	0	0.893	0	237.0	4	98.0	4	-1E+10	1	-1E+10	1	-1E+10	1	-1E+10	1	-1E+10	1	-1E+10	1
4902549	77	C	09/28/2022	08:56	-131.629	47.214	0	2.00	0	17.2470	0	32.2530	0	23.350	0	1.983	0	236.9	4	98.0	4	-1E+10	1	-1E+10	1	-1E+10	1	-1E+10	1	-1E+10	1	-1E+10	1
4902549	77	C	09/28/2022	08:56	-131.629	47.214	0	3.10	0	17.2490	0	32.2560	0	23.352	0	3.074	0	236.9	4	98.0	4	-1E+10	1	-1E+10	1	-1E+10	1	-1E+10	1	-1E+10	1	-1E+10	1
4902549	77	C	09/28/2022	08:56	-131.629	47.214	0	3.90	0	17.2490	0	32.2580	0	23.354	0	3.868	0	236.9	4	98.0	4	-1E+10	1	-1E+10	1	-1E+10	1	-1E+10	1	-1E+10	1	-1E+10	1
4902549	77	C	09/28/2022	08:56	-131.629	47.214	0	4.80	0	17.2480	0	32.2600	0	23.355	0	4.760	0	236.9	4	98.0	4	-1E+10	1	-1E+10	1	-1E+10	1	-1E+10	1	-1E+10	1	-1E+10	1
4902549	77	C	09/28/2022	08:56	-131.629	47.214	0	6.00	0	17.2500	0	32.2600	0	23.355	0	5.950	0	237.0	4	98.0	4	-1E+10	1	-1E+10	1	-1E+10	1	-1E+10	1	-1E+10	1	-1E+10	1
4902549	77	C	09/28/2022	08:56	-131.629	47.214	0	7.00	0	17.2550	0	32.2600	0	23.354	0	6.942	0	237.0	4	98.1	4	-1E+10	1	-1E+10	1	-1E+10	1	-1E+10	1	-1E+10	1	-1E+10	1
4902549	77	C	09/28/2022	08:56	-131.629	47.214	0	7.80	0	17.2550	0	32.2600	0	23.354	0	7.735	0	236.9	4	98.0	4	-1E+10	1	-1E+10	1	-1E+10	1	-1E+10	1	-1E+10	1	-1E+10	1
4902549	77	C	09/28/2022	08:56	-131.629	47.214	0	8.80	0	17.2550	0	32.2600	0	23.354	0	8.727	0	237.0	4	98.0	4	-1E+10	1	-1E+10	1	-1E+10	1	-1E+10	1	-1E+10	1	-1E+10	1
4902549	77	C	09/28/2022	08:56	-131.629	47.214	0	9.80	0	17.2550	0	32.2600	0	23.354	0	9.718	0	237.0	4	98.0	4	-1E+10	1	-1E+10	1	-1E+10	1	-1E+10	1	-1E+10	1	-1E+10	1
4902549	77	C	09/28/2022	08:56	-131.629	47.214	0	10.90	0	17.2540	0	32.2590	0	23.353	0	10.809	0	237.0	4	98.0	4	-1E+10	1	-1E+10	1	-1E+10	1	-1E+10	1	-1E+10	1	-1E+10	1
4902549	77	C	09/28/2022	08:56	-131.629	47.214	0	11.90	0	17.2540	0	32.2590	0	23.354	0	11.801	0	236.9	4	98.0	4	-1E+10	1	-1E+10	1	-1E+10	1	-1E+10	1	-1E+10	1	-1E+10	1
4902549	77	C	09/28/2022	08:56	-131.629	47.214	0	12.90	0	17.2540	0	32.2600	0	23.354	0	12.792	0	237.1	4	98.1	4	-1E+10	1	-1E+10	1	-1E+10	1	-1E+10	1	-1E+10	1	-1E+10	1
4902549	77	C	09/28/2022	08:56	-131.629	47.214	0	13.90	0	17.2550	0	32.2600	0	23.354	0	13.784	0	237.1	4	98.1	4	-1E+10	1	-1E+10	1	-1E+10	1	-1E+10	1	-1E+10	1	-1E+10	1
4902549	77	C	09/28/2022	08:56	-131.629	47.214	0	14.90	0	17.2550	0	32.2590	0	23.353	0	14.776	0	237.1	4	98.1	4	-1E+10	1	-1E+10	1	-1E+10	1	-1E+10	1	-1E+10	1	-1E+10	1
4902549	77	C	09/28/2022	08:56	-131.629	47.214	0	16.00	0	17.2550	0	32.2590	0	23.353	0	15.866	0	237.1	4	98.1	4	-1E+10	1	-1E+10	1	-1E+10	1	-1E+10	1	-1E+10	1	-1E+10	1
4902549	77	C	09/28/2022	08:56	-131.629	47.214	0	17.00	0	17.2540	0	32.2600	0	23.354	0	16.858	0	237.1	4	98.1	4	-1E+10	1	-1E+10	1	-1E+10	1	-1E+10	1	-1E+10	1	-1E+10	1
4902549	77	C	09/28/2022	08:56	-131.629	47.214	0	18.10	0	17.2560	0	32.2600	0	23.354	0	17.949	0	237.3	4	98.2	4	-1E+10	1	-1E+10	1	-1E+10	1	-1E+10	1	-1E+10	1	-1E+10	1
4902549	77	C	09/28/2022	08:56	-131.629	47.214	0	18.80	0	17.2560	0	32.2600	0	23.354	0	18.643	0	237.3	4	98.2	4	-1E+10	1	-1E+10	1	-1E+10	1	-1E+10	1	-1E+10	1	-1E+10	1
4902549	77	C	09/28/2022	08:56	-131.629	47.214	0	19.90	0	17.2550	0	32.2590	0	23.354	0	19.733	0	237.5	4	98.3	4	-1E+10	1	-1E+10	1	-1E+10	1	-1E+10	1	-1E+10	1	-1E+10	1
4902549	77	C	09/28/2022	08:56	-131.629	47.214	0	21.00	0	17.2550	0	32.2590	0	23.354	0	20.824	0	237.7	4	98.3	4	-1E+10	1	-1E+10	1	-1E+10	1	-1E+10	1	-1E+10	1	-1E+10	1
4902549	77	C	09/28/2022	08:56	-131.629	47.214	0	21.80	0	17.2560	0	32.2600	0	23.354	0	21.617	0	237.7	4	98.3	4	-1E+10	1	-1E+10	1	-1E+10	1	-1E+10	1	-1E+10	1	-1E+10	1
4902549	77	C	09/28/2022	08:56	-131.629	47.214	0	22.90	0	17.2550	0	32.2590	0	23.354	0	22.708	0	237.9	4	98.4	4	-1E+10	1	-1E+10	1	-1E+10	1	-1E+10	1	-1E+10	1	-1E+10	1
4902549	77	C	09/28/2022	08:56	-131.629	47.214	0	24.10	0	17.2570	0	32.2590	0	23.353	0	23.898	0	238.1	4	98.5	4	-1E+10	1	-1E+10	1	-1E+10	1	-1E+10	1	-1E+10	1	-1E+10	1
4902549	77	C	09/28/2022	08:56	-131.629	47.214	0	24.80	0	17.2420	0	32.2590	0	23.357	0	24.592	0	238.5	4	98.7	4	-1E+10	1	-1E+10	1	-1E+10	1	-1E+10	1	-1E+10	1	-1E+10	1
4902549	77	C	09/28/2022	08:56	-131.629	47.214	0	26.00	0	17.2370	0	32.2600	0	23.359	0	25.782	0	238.8	4	98.8	4	-1E+10	1	-1E+10	1	-1E+10	1	-1E+10	1	-1E+10	1	-1E+10	1
4902549	77	C	09/28/2022	08:56	-131.629	47.214	0	27.10	0	17.2260	0	32.2600	0	23.361	0	26.873	0	239.2	4	98.9	4	-1E+10	1	-1E+10	1	-1E+10	1	-1E+10	1	-1E+10	1	-1E+10	1
4902549	77	C	09/28/2022	08:56	-131.629	47.214	0	28.10	0	17.2170	0	32.2580	0	23.362	0	27.864	0	239.8	4	99.1	4	-1E+10	1	-1E+10	1	-1E+10	1	-1E+10	1	-1E+10	1	-1E+10	1
4902549	77	C	09/28/2022	08:56	-131.629	47.214	0	29.10	0	17.2120	0	32.2590	0	23.364	0	28.856	0	240.3	4	99.3	4	-1E+10	1	-1E+10	1	-1E+10	1	-1E+10	1	-1E+10	1	-1E+10	1
4902549	77	C	09/28/2022	08:56	-131.629	47.214	0	29.90	0	17.1770	0	32.2600	0	23.373	0	29.649	0	241.2	4	99.6	4	-1E+10	1	-1E+10	1	-1E+10	1	-1E+10	1	-1E+10	1	-1E+10	1
4902549	77	C	09/28/2022	08:56	-131.629	47.214	0	31.20	0	17.1080	0	32.2590	0	23.389	0	30.938	0	242.7	4	100.1	4	-1E+10	1	-1E+10	1	-1E+10	1	-1E+10	1	-1E+10	1	-1E+10	1
4902549	77	C	09/28/2022	08:56	-131.629	47.214	0	32.10	0	16.6510	0	32.2720	0	23.504	0	31.830	0	247.5	4	101.2	4	-1E+10	1	-1E+10	1	-1E+10	1	-1E+10	1	-1E+10	1	-1E+10	1
4902549	77	C	09/28/2022	08:56	-131.629	47.214	0	32.90	0	16.0520	0	32.2470	0	23.621	0	32.624	0	252.3	4	102.0	4	-1E+10	1	-1E+10	1	-1E+10	1	-1E+10	1	-1E+10	1	-1E+10	1
4902549	77	C	09/28/2022	08:56	-131.629	47.214	0	34.00	0	15.1330	0	32.2410	0	23.819	0	33.714	0	257.0	4	102.0	4	-1E+10	1	-1E+10	1	-1E+10	1	-1E+10	1	-1E+10	1	-1E+10	1
4902549	77	C	09/28/2022	08:56	-131.629	47.214	0	35.10	0	14.4230	0	32.2380	0	23.968	0	34.805	0	261.5	4	102.3	4	-1E+10	1	-1E+10	1	-1E+10	1	-1E+10	1	-1E+10	1	-1E+10	1
4902549	77	C	09/28/2022	08:56	-131.629	47.214	0	35.90	0	13.9950	0	32.2210	0	24.043	0	35.598	0	264.3	4	102.5	4	-1E+10	1	-1E+10	1	-1E+10	1	-1E+10	1	-1E+10	1	-1E+10	1
4902549	77	C	09/28/2022	08:56	-131.629	47.214	0	36.80	0	13.4800	0	32.2210	0	24.147	0	36.491	0	266.3	4	102.3	4	-1E+10	1	-1E+10	1	-1E+10	1	-1E+10	1	-1E+10	1	-1E+10	1
4902549	77	C	09/28/2022	08:56	-131.629	47.214	0	37.90	0	13.1100	0	32.2300	0	24.228	0	37.581	0	267.5	4	101.9	4	-1E+10	1	-1E+10	1	-1E+10	1	-1E+10	1	-1E+10	1	-1E+10	1
4902549	77	C	09/28/2022	08:56	-131.629	47.214	0	39.10	0	12.8180	0	32.2230	0	24.279	0	38.771	0	268.5	4	101.7	4	-1E+10	1	-1E+10	1	-1E+10	1	-1E+10	1	-1E+10	1	-1E+10	1
4902549	77	C	09/28/2022	08:56	-131.629	47.214	0	39.80	0	12.6530	0	32.2240	0	24.312	0	39.465	0	268.5	4	101.4	4	-1E+10	1	-1E+10	1	-1E+10	1	-1E+10	1	-1E+10	1	-1E+10	1
4902549	77	C	09/28/2022	08:56	-131.629	47.214	0	40.80	0	12.5630	0	32.2210	0	24.327	0	40.457	0	268.1	4	101.0	4	-1E+10	1	-1E+10	1	-1E+10	1	-1E+10	1	-1E+10	1	-1E+10	1
4902549	77	C	09/28/2022	08:56	-131.629	47.214	0	41.90	0	12.2390	0	32.2130	0	24.382	0	41.547	0	268.4	4	100.5	4	-1E+10	1	-1E+10	1	-1E+10	1	-1E+10	1	-1E+10	1	-1E+10	1
4902549	77	C	09/28/2022	08:56	-131.629	47.214	0	43.00	0	11.9990	0	32.2140	0	24.428	0	42.638	0	268.0	4	99.8	4	-1E+10	1	-1E+10	1	-1E+10	1	-1E+10	1	-1E+10	1	-1E+10	1
4902549	77	C	09/28/2022	08:56	-131.629	47.214	0	44.20	0	11.7300	0	32.2100	0	24.474	0	43.828	0	267.6	4	99.1	4	-1E+10	1	-1E+10	1	-1E+10	1	-1E+10	1	-1E+10	1	-1E+10	1
4902549	77	C	09/28/2022	08:56	-131.629	47.214	0	45.10	0	11.3530	0	32.2090	0	24.542	0	44.720	0	266.7	4	98.0	4	-1E+10	1	-1E+10	1	-1E+10	1	-1E+10	1	-1E+10	1	-1E+10	1
4902549	77	C	09/28/2022	08:56	-131.629	47.214	0	46.20	0	10.7930	0	32.2110	0	24.642	0	45.810	0	268.2	4	97.4	4	-1E+10	1	-1E+10	1	-1E+10	1	-1E+10	1	-1E+10	1	-1E+10	1
4902549	77	C	09/28/2022	08:56	-131.629	47.214	0	47.10	0	10.5560	0	32.2120	0	24.684	0	46.703	0	267.7	4	96.7	4	-1E+10	1	-1E+10	1	-1E+10	1	-1E+10	1	-1E+10	1	-1E+10	1
4902549	77	C	09/28/2022	08:56	-131.629	47.214	0	48.00	0	10.3560	0	32.2130	0	24.718	0	47.595	0	266.9	4	96.0	4	-1E+10	1	-1E+10	1	-1E+10	1	-1E+10	1	-1E+10	1	-1E+10	1
4902549	77	C	09/28/2022	08:56	-131.629	47.214	0	49.10	0	10.2490	0	32.2090	0	24.733	0	48.686	0	265.5	4	95.3	4	-1E+10	1	-1E+10	1	-1E+10	1	-1E+10	1	-1E+10	1	-1E+10	1
4902549	77	C	09/28/2022	08:56	-131.629	47.214	0	49.90	0	10.1290	0	32.2110	0	24.755	0	49.479	0	264.9	4	94.8	4	-1E+10	1	-1E+10	1	-1E+10	1	-1E+10	1	-1E+10	1	-1E+10	1
4902549	77	C	09/28/2022	08:56	-131.629	47.214	0	50.80	0	9.9540	0	32.2210	0	24.792	0	50.371	0	264.5	4	94.3	4	-1E+10	1	-1E+10	1	-1E+10	1	-1E+10	1	-1E+10	1	-1E+10	1
4902549	77	C	09/28/2022	08:56	-131.629	47.214	0	51.80	0	9.8760	0	32.2270	0	24.809	0	51.363	0	263.6	4	93.9	4	-1E+10	1	-1E+10	1	-1E+10	1	-1E+10	1	-1E+10	1	-1E+10	1
4902549	77	C	09/28/2022	08:56	-131.629	47.214	0	53.00	0	9.7850	0	32.2320	0	24.828	0	52.552	0	262.9	4	93.4	4	-1E+10	1	-1E+10	1	-1E+10	1	-1E+10	1	-1E+10	1	-1E+10	1
4902549	77	C	09/28/2022	08:56	-131.629	47.214	0	54.30	0	9.6280	0	32.2400	0	24.860	0	53.841	0	262.6	4	93.0	4	-1E+10	1	-1E+10	1	-1E+10	1	-1E+10	1	-1E+10	1	-1E+10	1
4902549	77	C	09/28/2022	08:56	-131.629	47.214	0	55.20	0	9.5680	0	32.2420	0	24.871	0	54.733	0	262.3	4	92.8	4	-1E+10	1	-1E+10	1	-1E+10	1	-1E+10	1	-1E+10	1	-1E+10	1
4902549	77	C	09/28/2022	08:56	-131.629	47.214	0	55.90	0	9.5060	0	32.2520	0	24.889	0	55.427	0	261.9	4	92.5	4	-1E+10	1	-1E+10	1	-1E+10	1	-1E+10	1	-1E+10	1	-1E+10	1
4902549	77	C	09/28/2022	08:56	-131.629	47.214	0	56.80	0	9.4170	0	32.2470	0	24.899	0	56.320	0	262.0	4	92.4	4	-1E+10	1	-1E+10	1	-1E+10	1	-1E+10	1	-1E+10	1	-1E+10	1
4902549	77	C	09/28/2022	08:56	-131.629	47.214	0	57.90	0	9.3810	0	32.2500	0	24.907	0	57.410	0	261.7	4	92.2	4	-1E+10	1	-1E+10	1	-1E+10	1	-1E+10	1	-1E+10	1	-1E+10	1
4902549	77	C	09/28/2022	08:56	-131.629	47.214	0	59.20	0	9.3740	0	32.2480	0	24.907	0	58.699	0	260.7	4	91.8	4	-1E+10	1	-1E+10	1	-1E+10	1	-1E+10	1	-1E+10	1	-1E+10	1
4902549	77	C	09/28/2022	08:56	-131.629	47.214	0	60.00	0	9.3740	0	32.2460	0	24.905	0	59.492	0	259.8	4	91.5	4	-1E+10	1	-1E+10	1	-1E+10	1	-1E+10	1	-1E+10	1	-1E+10	1
4902549	77	C	09/28/2022	08:56	-131.629	47.214	0	61.20	0	9.3140	0	32.2410	0	24.911	0	60.682	0	259.1	4	91.1	4	-1E+10	1	-1E+10	1	-1E+10	1	-1E+10	1	-1E+10	1	-1E+10	1
4902549	77	C	09/28/2022	08:56	-131.629	47.214	0	62.10	0	9.2000	0	32.2500	0	24.936	0	61.574	0	258.7	4	90.8	4	-1E+10	1	-1E+10	1	-1E+10	1	-1E+10	1	-1E+10	1	-1E+10	1
4902549	77	C	09/28/2022	08:56	-131.629	47.214	0	62.90	0	9.1750	0	32.2510	0	24.940	0	62.367	0	257.9	4	90.4	4	-1E+10	1	-1E+10	1	-1E+10	1	-1E+10	1	-1E+10	1	-1E+10	1
4902549	77	C	09/28/2022	08:56	-131.629	47.214	0	64.10	0	9.0720	0	32.2550	0	24.959	0	63.557	0	257.1	4	90.0	4	-1E+10	1	-1E+10	1	-1E+10	1	-1E+10	1	-1E+10	1	-1E+10	1
4902549	77	C	09/28/2022	08:56	-131.629	47.214	0	65.00	0	9.0170	0	32.2590	0	24.971	0	64.449	0	256.4	4	89.6	4	-1E+10	1	-1E+10	1	-1E+10	1	-1E+10	1	-1E+10	1	-1E+10	1
4902549	77	C	09/28/2022	08:56	-131.629	47.214	0	66.10	0	8.9110	0	32.2650	0	24.992	0	65.540	0	255.9	4	89.2	4	-1E+10	1	-1E+10	1	-1E+10	1	-1E+10	1	-1E+10	1	-1E+10	1
4902549	77	C	09/28/2022	08:56	-131.629	47.214	0	66.90	0	8.8910	0	32.2640	0	24.995	0	66.333	0	255.4	4	89.0	4	-1E+10	1	-1E+10	1	-1E+10	1	-1E+10	1	-1E+10	1	-1E+10	1
4902549	77	C	09/28/2022	08:56	-131.629	47.214	0	67.70	0	8.8370	0	32.2670	0	25.005	0	67.126	0	254.9	4	88.7	4	-1E+10	1	-1E+10	1	-1E+10	1	-1E+10	1	-1E+10	1	-1E+10	1
4902549	77	C	09/28/2022	08:56	-131.629	47.214	0	68.80	0	8.7570	0	32.2730	0	25.022	0	68.216	0	254.5	4	88.4	4	-1E+10	1	-1E+10	1	-1E+10	1	-1E+10	1	-1E+10	1	-1E+10	1
4902549	77	C	09/28/2022	08:56	-131.629	47.214	0	69.90	0	8.7230	0	32.2730	0	25.027	0	69.307	0	253.7	4	88.1	4	-1E+10	1	-1E+10	1	-1E+10	1	-1E+10	1	-1E+10	1	-1E+10	1
4902549	77	C	09/28/2022	08:56	-131.629	47.214	0	71.00	0	8.6500	0	32.2840	0	25.047	0	70.397	0	253.0	4	87.7	4	-1E+10	1	-1E+10	1	-1E+10	1	-1E+10	1	-1E+10	1	-1E+10	1
4902549	77	C	09/28/2022	08:56	-131.629	47.214	0	71.90	0	8.6040	0	32.2890	0	25.058	0	71.289	0	252.6	4	87.5	4	-1E+10	1	-1E+10	1	-1E+10	1	-1E+10	1	-1E+10	1	-1E+10	1
4902549	77	C	09/28/2022	08:56	-131.629	47.214	0	72.70	0	8.5770	0	32.2920	0	25.064	0	72.082	0	251.8	4	87.2	4	-1E+10	1	-1E+10	1	-1E+10	1	-1E+10	1	-1E+10	1	-1E+10	1
4902549	77	C	09/28/2022	08:56	-131.629	47.214	0	73.90	0	8.5220	0	32.2990	0	25.078	0	73.272	0	250.9	4	86.8	4	-1E+10	1	-1E+10	1	-1E+10	1	-1E+10	1	-1E+10	1	-1E+10	1
4902549	77	C	09/28/2022	08:56	-131.629	47.214	0	75.00	0	8.4720	0	32.3030	0	25.089	0	74.362	0	250.0	4	86.3	4	-1E+10	1	-1E+10	1	-1E+10	1	-1E+10	1	-1E+10	1	-1E+10	1
4902549	77	C	09/28/2022	08:56	-131.629	47.214	0	76.00	0	8.3780	0	32.3240	0	25.119	0	75.354	0	249.6	4	86.0	4	-1E+10	1	-1E+10	1	-1E+10	1	-1E+10	1	-1E+10	1	-1E+10	1
4902549	77	C	09/28/2022	08:56	-131.629	47.214	0	76.90	0	8.3590	0	32.3270	0	25.124	0	76.246	0	249.0	4	85.8	4	-1E+10	1	-1E+10	1	-1E+10	1	-1E+10	1	-1E+10	1	-1E+10	1
4902549	77	C	09/28/2022	08:56	-131.629	47.214	0	78.10	0	8.3240	0	32.3350	0	25.136	0	77.436	0	248.0	4	85.4	4	-1E+10	1	-1E+10	1	-1E+10	1	-1E+10	1	-1E+10	1	-1E+10	1
4902549	77	C	09/28/2022	08:56	-131.629	47.214	0	79.00	0	8.2770	0	32.3490	0	25.153	0	78.328	0	247.5	4	85.1	4	-1E+10	1	-1E+10	1	-1E+10	1	-1E+10	1	-1E+10	1	-1E+10	1
4902549	77	C	09/28/2022	08:56	-131.629	47.214	0	79.90	0	8.2200	0	32.3610	0	25.171	0	79.220	0	247.0	4	84.9	4	-1E+10	1	-1E+10	1	-1E+10	1	-1E+10	1	-1E+10	1	-1E+10	1
4902549	77	C	09/28/2022	08:56	-131.629	47.214	0	81.00	0	8.1940	0	32.3640	0	25.177	0	80.310	0	246.1	4	84.5	4	-1E+10	1	-1E+10	1	-1E+10	1	-1E+10	1	-1E+10	1	-1E+10	1
4902549	77	C	09/28/2022	08:56	-131.629	47.214	0	82.10	0	8.1470	0	32.3750	0	25.193	0	81.401	0	245.3	4	84.1	4	-1E+10	1	-1E+10	1	-1E+10	1	-1E+10	1	-1E+10	1	-1E+10	1
4902549	77	C	09/28/2022	08:56	-131.629	47.214	0	83.20	0	8.1220	0	32.3820	0	25.202	0	82.491	0	250.2	4	85.8	4	-1E+10	1	-1E+10	1	-1E+10	1	-1E+10	1	-1E+10	1	-1E+10	1
4902549	77	C	09/28/2022	08:56	-131.629	47.214	0	84.00	0	8.0870	0	32.3920	0	25.215	0	83.284	0	248.6	4	85.2	4	-1E+10	1	-1E+10	1	-1E+10	1	-1E+10	1	-1E+10	1	-1E+10	1
4902549	77	C	09/28/2022	08:56	-131.629	47.214	0	85.10	0	8.0170	0	32.4180	0	25.246	0	84.375	0	245.9	4	84.2	4	-1E+10	1	-1E+10	1	-1E+10	1	-1E+10	1	-1E+10	1	-1E+10	1
4902549	77	C	09/28/2022	08:56	-131.629	47.214	0	86.10	0	7.9630	0	32.4390	0	25.270	0	85.366	0	243.7	4	83.3	4	-1E+10	1	-1E+10	1	-1E+10	1	-1E+10	1	-1E+10	1	-1E+10	1
4902549	77	C	09/28/2022	08:56	-131.629	47.214	0	87.00	0	7.9120	0	32.4600	0	25.294	0	86.258	0	241.9	4	82.6	4	-1E+10	1	-1E+10	1	-1E+10	1	-1E+10	1	-1E+10	1	-1E+10	1
4902549	77	C	09/28/2022	08:56	-131.629	47.214	0	88.00	0	7.8590	0	32.4770	0	25.315	0	87.249	0	240.3	4	82.0	4	-1E+10	1	-1E+10	1	-1E+10	1	-1E+10	1	-1E+10	1	-1E+10	1
4902549	77	C	09/28/2022	08:56	-131.629	47.214	0	89.10	0	7.8410	0	32.4860	0	25.324	0	88.340	0	238.2	4	81.2	4	-1E+10	1	-1E+10	1	-1E+10	1	-1E+10	1	-1E+10	1	-1E+10	1
4902549	77	C	09/28/2022	08:56	-131.629	47.214	0	90.10	0	7.8240	0	32.4920	0	25.331	0	89.331	0	236.0	4	80.4	4	-1E+10	1	-1E+10	1	-1E+10	1	-1E+10	1	-1E+10	1	-1E+10	1
4902549	77	C	09/28/2022	08:56	-131.629	47.214	0	91.00	0	7.8010	0	32.5060	0	25.346	0	90.223	0	234.1	4	79.8	4	-1E+10	1	-1E+10	1	-1E+10	1	-1E+10	1	-1E+10	1	-1E+10	1
4902549	77	C	09/28/2022	08:56	-131.629	47.214	0	92.00	0	7.7760	0	32.5220	0	25.362	0	91.214	0	232.0	4	79.0	4	-1E+10	1	-1E+10	1	-1E+10	1	-1E+10	1	-1E+10	1	-1E+10	1
4902549	77	C	09/28/2022	08:56	-131.629	47.214	0	93.00	0	7.7410	0	32.5450	0	25.385	0	92.205	0	230.0	4	78.3	4	-1E+10	1	-1E+10	1	-1E+10	1	-1E+10	1	-1E+10	1	-1E+10	1
4902549	77	C	09/28/2022	08:56	-131.629	47.214	0	94.10	0	7.6920	0	32.5840	0	25.422	0	93.296	0	227.7	4	77.5	4	-1E+10	1	-1E+10	1	-1E+10	1	-1E+10	1	-1E+10	1	-1E+10	1
4902549	77	C	09/28/2022	08:56	-131.629	47.214	0	95.00	0	7.6550	0	32.6170	0	25.454	0	94.188	0	226.5	4	77.0	4	-1E+10	1	-1E+10	1	-1E+10	1	-1E+10	1	-1E+10	1	-1E+10	1
4902549	77	C	09/28/2022	08:56	-131.629	47.214	0	95.90	0	7.6400	0	32.6320	0	25.467	0	95.080	0	225.2	4	76.5	4	-1E+10	1	-1E+10	1	-1E+10	1	-1E+10	1	-1E+10	1	-1E+10	1
4902549	77	C	09/28/2022	08:56	-131.629	47.214	0	97.10	0	7.6240	0	32.6480	0	25.482	0	96.269	0	223.2	4	75.8	4	-1E+10	1	-1E+10	1	-1E+10	1	-1E+10	1	-1E+10	1	-1E+10	1
4902549	77	C	09/28/2022	08:56	-131.629	47.214	0	98.00	0	7.6050	0	32.6650	0	25.498	0	97.162	0	221.8	4	75.3	4	-1E+10	1	-1E+10	1	-1E+10	1	-1E+10	1	-1E+10	1	-1E+10	1
4902549	77	C	09/28/2022	08:56	-131.629	47.214	0	98.90	0	7.5960	0	32.6690	0	25.503	0	98.054	0	220.3	4	74.8	4	-1E+10	1	-1E+10	1	-1E+10	1	-1E+10	1	-1E+10	1	-1E+10	1
4902549	77	C	09/28/2022	08:56	-131.629	47.214	0	99.90	0	7.5510	0	32.7050	0	25.537	0	99.045	0	219.1	4	74.3	4	-1E+10	1	-1E+10	1	-1E+10	1	-1E+10	1	-1E+10	1	-1E+10	1
4902549	77	C	09/28/2022	08:56	-131.629	47.214	0	100.80	0	7.5410	0	32.7190	0	25.550	0	99.937	0	217.7	4	73.8	4	-1E+10	1	-1E+10	1	-1E+10	1	-1E+10	1	-1E+10	1	-1E+10	1
4902549	77	C	09/28/2022	08:56	-131.629	47.214	0	101.80	0	7.5330	0	32.7320	0	25.561	0	100.928	0	216.1	4	73.3	4	-1E+10	1	-1E+10	1	-1E+10	1	-1E+10	1	-1E+10	1	-1E+10	1
4902549	77	C	09/28/2022	08:56	-131.629	47.214	0	102.80	0	7.5130	0	32.7500	0	25.578	0	101.919	0	214.3	4	72.7	4	-1E+10	1	-1E+10	1	-1E+10	1	-1E+10	1	-1E+10	1	-1E+10	1
4902549	77	C	09/28/2022	08:56	-131.629	47.214	0	103.80	0	7.4990	0	32.7700	0	25.596	0	102.911	0	212.6	4	72.1	4	-1E+10	1	-1E+10	1	-1E+10	1	-1E+10	1	-1E+10	1	-1E+10	1
4902549	77	C	09/28/2022	08:56	-131.629	47.214	0	104.80	0	7.4810	0	32.8070	0	25.627	0	103.902	0	210.9	4	71.5	4	-1E+10	1	-1E+10	1	-1E+10	1	-1E+10	1	-1E+10	1	-1E+10	1
4902549	77	C	09/28/2022	08:56	-131.629	47.214	0	106.10	0	7.4570	0	32.8340	0	25.652	0	105.190	0	208.6	4	70.7	4	-1E+10	1	-1E+10	1	-1E+10	1	-1E+10	1	-1E+10	1	-1E+10	1
4902549	77	C	09/28/2022	08:56	-131.629	47.214	0	107.00	0	7.4440	0	32.8560	0	25.671	0	106.082	0	206.7	4	70.0	4	-1E+10	1	-1E+10	1	-1E+10	1	-1E+10	1	-1E+10	1	-1E+10	1
4902549	77	C	09/28/2022	08:56	-131.629	47.214	0	108.00	0	7.4340	0	32.8790	0	25.691	0	107.073	0	204.7	4	69.4	4	-1E+10	1	-1E+10	1	-1E+10	1	-1E+10	1	-1E+10	1	-1E+10	1
4902549	77	C	09/28/2022	08:56	-131.629	47.214	0	109.00	0	7.4100	0	32.9190	0	25.725	0	108.065	0	202.9	4	68.7	4	-1E+10	1	-1E+10	1	-1E+10	1	-1E+10	1	-1E+10	1	-1E+10	1
4902549	77	C	09/28/2022	08:56	-131.629	47.214	0	110.00	0	7.3950	0	32.9380	0	25.742	0	109.056	0	201.0	4	68.1	4	-1E+10	1	-1E+10	1	-1E+10	1	-1E+10	1	-1E+10	1	-1E+10	1
4902549	77	C	09/28/2022	08:56	-131.629	47.214	0	111.00	0	7.3940	0	32.9390	0	25.743	0	110.047	0	198.8	4	67.3	4	-1E+10	1	-1E+10	1	-1E+10	1	-1E+10	1	-1E+10	1	-1E+10	1
4902549	77	C	09/28/2022	08:56	-131.629	47.214	0	112.00	0	7.3910	0	32.9430	0	25.747	0	111.038	0	196.1	4	66.4	4	-1E+10	1	-1E+10	1	-1E+10	1	-1E+10	1	-1E+10	1	-1E+10	1
4902549	77	C	09/28/2022	08:56	-131.629	47.214	0	113.10	0	7.3850	0	32.9730	0	25.771	0	112.128	0	193.4	4	65.5	4	-1E+10	1	-1E+10	1	-1E+10	1	-1E+10	1	-1E+10	1	-1E+10	1
4902549	77	C	09/28/2022	08:56	-131.629	47.214	0	113.80	0	7.3840	0	32.9840	0	25.780	0	112.822	0	191.6	4	64.9	4	-1E+10	1	-1E+10	1	-1E+10	1	-1E+10	1	-1E+10	1	-1E+10	1
4902549	77	C	09/28/2022	08:56	-131.629	47.214	0	114.80	0	7.3790	0	33.0230	0	25.812	0	113.813	0	188.6	4	63.9	4	-1E+10	1	-1E+10	1	-1E+10	1	-1E+10	1	-1E+10	1	-1E+10	1
4902549	77	C	09/28/2022	08:56	-131.629	47.214	0	116.00	0	7.3740	0	33.0760	0	25.854	0	115.003	0	185.9	4	63.0	4	-1E+10	1	-1E+10	1	-1E+10	1	-1E+10	1	-1E+10	1	-1E+10	1
4902549	77	C	09/28/2022	08:56	-131.629	47.214	0	116.80	0	7.3750	0	33.0830	0	25.859	0	115.795	0	183.9	4	62.3	4	-1E+10	1	-1E+10	1	-1E+10	1	-1E+10	1	-1E+10	1	-1E+10	1
4902549	77	C	09/28/2022	08:56	-131.629	47.214	0	118.00	0	7.3760	0	33.1090	0	25.880	0	116.985	0	180.9	4	61.3	4	-1E+10	1	-1E+10	1	-1E+10	1	-1E+10	1	-1E+10	1	-1E+10	1
4902549	77	C	09/28/2022	08:56	-131.629	47.214	0	119.20	0	7.3970	0	33.1790	0	25.932	0	118.174	0	178.5	4	60.6	4	-1E+10	1	-1E+10	1	-1E+10	1	-1E+10	1	-1E+10	1	-1E+10	1
4902549	77	C	09/28/2022	08:56	-131.629	47.214	0	120.10	0	7.4020	0	33.1830	0	25.934	0	119.066	0	177.1	4	60.1	4	-1E+10	1	-1E+10	1	-1E+10	1	-1E+10	1	-1E+10	1	-1E+10	1
4902549	77	C	09/28/2022	08:56	-131.629	47.214	0	120.90	0	7.4030	0	33.1930	0	25.942	0	119.859	0	175.6	4	59.6	4	-1E+10	1	-1E+10	1	-1E+10	1	-1E+10	1	-1E+10	1	-1E+10	1
4902549	77	C	09/28/2022	08:56	-131.629	47.214	0	121.80	0	7.4040	0	33.1960	0	25.944	0	120.751	0	173.9	4	59.0	4	-1E+10	1	-1E+10	1	-1E+10	1	-1E+10	1	-1E+10	1	-1E+10	1
4902549	77	C	09/28/2022	08:56	-131.629	47.214	0	122.70	0	7.4070	0	33.2400	0	25.978	0	121.643	0	172.5	4	58.6	4	-1E+10	1	-1E+10	1	-1E+10	1	-1E+10	1	-1E+10	1	-1E+10	1
4902549	77	C	09/28/2022	08:56	-131.629	47.214	0	123.60	0	7.4080	0	33.2740	0	26.005	0	122.535	0	171.5	4	58.2	4	-1E+10	1	-1E+10	1	-1E+10	1	-1E+10	1	-1E+10	1	-1E+10	1
4902549	77	C	09/28/2022	08:56	-131.629	47.214	0	124.90	0	7.4080	0	33.2850	0	26.014	0	123.823	0	169.8	4	57.7	4	-1E+10	1	-1E+10	1	-1E+10	1	-1E+10	1	-1E+10	1	-1E+10	1
4902549	77	C	09/28/2022	08:56	-131.629	47.214	0	126.30	0	7.4060	0	33.2970	0	26.023	0	125.211	0	168.1	4	57.1	4	-1E+10	1	-1E+10	1	-1E+10	1	-1E+10	1	-1E+10	1	-1E+10	1
4902549	77	C	09/28/2022	08:56	-131.629	47.214	0	127.30	0	7.4030	0	33.3150	0	26.038	0	126.202	0	166.9	4	56.7	4	-1E+10	1	-1E+10	1	-1E+10	1	-1E+10	1	-1E+10	1	-1E+10	1
4902549	77	C	09/28/2022	08:56	-131.629	47.214	0	128.20	0	7.4000	0	33.3280	0	26.049	0	127.094	0	165.8	4	56.3	4	-1E+10	1	-1E+10	1	-1E+10	1	-1E+10	1	-1E+10	1	-1E+10	1
4902549	77	C	09/28/2022	08:56	-131.629	47.214	0	129.20	0	7.3960	0	33.3680	0	26.081	0	128.085	0	164.9	4	56.0	4	-1E+10	1	-1E+10	1	-1E+10	1	-1E+10	1	-1E+10	1	-1E+10	1
4902549	77	C	09/28/2022	08:56	-131.629	47.214	0	130.20	0	7.3980	0	33.3810	0	26.091	0	129.076	0	164.2	4	55.8	4	-1E+10	1	-1E+10	1	-1E+10	1	-1E+10	1	-1E+10	1	-1E+10	1
4902549	77	C	09/28/2022	08:56	-131.629	47.214	0	131.20	0	7.3980	0	33.3850	0	26.094	0	130.067	0	163.5	4	55.6	4	-1E+10	1	-1E+10	1	-1E+10	1	-1E+10	1	-1E+10	1	-1E+10	1
4902549	77	C	09/28/2022	08:56	-131.629	47.214	0	132.30	0	7.3970	0	33.3940	0	26.101	0	131.157	0	162.6	4	55.2	4	-1E+10	1	-1E+10	1	-1E+10	1	-1E+10	1	-1E+10	1	-1E+10	1
4902549	77	C	09/28/2022	08:56	-131.629	47.214	0	133.30	0	7.3930	0	33.4380	0	26.136	0	132.148	0	161.8	4	55.0	4	-1E+10	1	-1E+10	1	-1E+10	1	-1E+10	1	-1E+10	1	-1E+10	1
4902549	77	C	09/28/2022	08:56	-131.629	47.214	0	134.40	0	7.3890	0	33.4590	0	26.153	0	133.238	0	161.2	4	54.8	4	-1E+10	1	-1E+10	1	-1E+10	1	-1E+10	1	-1E+10	1	-1E+10	1
4902549	77	C	09/28/2022	08:56	-131.629	47.214	0	135.40	0	7.3870	0	33.4630	0	26.157	0	134.229	0	160.5	4	54.6	4	-1E+10	1	-1E+10	1	-1E+10	1	-1E+10	1	-1E+10	1	-1E+10	1
4902549	77	C	09/28/2022	08:56	-131.629	47.214	0	136.50	0	7.3850	0	33.4670	0	26.160	0	135.320	0	159.8	4	54.3	4	-1E+10	1	-1E+10	1	-1E+10	1	-1E+10	1	-1E+10	1	-1E+10	1
4902549	77	C	09/28/2022	08:56	-131.629	47.214	0	137.60	0	7.3850	0	33.4680	0	26.161	0	136.410	0	158.9	4	54.0	4	-1E+10	1	-1E+10	1	-1E+10	1	-1E+10	1	-1E+10	1	-1E+10	1
4902549	77	C	09/28/2022	08:56	-131.629	47.214	0	138.70	0	7.3820	0	33.4770	0	26.169	0	137.500	0	158.0	4	53.7	4	-1E+10	1	-1E+10	1	-1E+10	1	-1E+10	1	-1E+10	1	-1E+10	1
4902549	77	C	09/28/2022	08:56	-131.629	47.214	0	139.80	0	7.3730	0	33.5100	0	26.196	0	138.590	0	157.4	4	53.5	4	-1E+10	1	-1E+10	1	-1E+10	1	-1E+10	1	-1E+10	1	-1E+10	1
4902549	77	C	09/28/2022	08:56	-131.629	47.214	0	141.00	0	7.3680	0	33.5260	0	26.209	0	139.779	0	156.8	4	53.3	4	-1E+10	1	-1E+10	1	-1E+10	1	-1E+10	1	-1E+10	1	-1E+10	1
4902549	77	C	09/28/2022	08:56	-131.629	47.214	0	142.10	0	7.3630	0	33.5320	0	26.214	0	140.869	0	156.2	4	53.1	4	-1E+10	1	-1E+10	1	-1E+10	1	-1E+10	1	-1E+10	1	-1E+10	1
4902549	77	C	09/28/2022	08:56	-131.629	47.214	0	143.20	0	7.3620	0	33.5330	0	26.215	0	141.959	0	155.4	4	52.8	4	-1E+10	1	-1E+10	1	-1E+10	1	-1E+10	1	-1E+10	1	-1E+10	1
4902549	77	C	09/28/2022	08:56	-131.629	47.214	0	144.40	0	7.3590	0	33.5360	0	26.218	0	143.149	0	154.6	4	52.5	4	-1E+10	1	-1E+10	1	-1E+10	1	-1E+10	1	-1E+10	1	-1E+10	1
4902549	77	C	09/28/2022	08:56	-131.629	47.214	0	145.50	0	7.3540	0	33.5460	0	26.227	0	144.239	0	153.7	4	52.2	4	-1E+10	1	-1E+10	1	-1E+10	1	-1E+10	1	-1E+10	1	-1E+10	1
4902549	77	C	09/28/2022	08:56	-131.629	47.214	0	146.70	0	7.3420	0	33.5710	0	26.248	0	145.428	0	152.9	4	52.0	4	-1E+10	1	-1E+10	1	-1E+10	1	-1E+10	1	-1E+10	1	-1E+10	1
4902549	77	C	09/28/2022	08:56	-131.629	47.214	0	147.90	0	7.3330	0	33.5830	0	26.259	0	146.617	0	152.1	4	51.7	4	-1E+10	1	-1E+10	1	-1E+10	1	-1E+10	1	-1E+10	1	-1E+10	1
4902549	77	C	09/28/2022	08:56	-131.629	47.214	0	149.00	0	7.3240	0	33.6030	0	26.276	0	147.707	0	151.3	4	51.4	4	-1E+10	1	-1E+10	1	-1E+10	1	-1E+10	1	-1E+10	1	-1E+10	1
4902549	77	C	09/28/2022	08:56	-131.629	47.214	0	150.20	0	7.3150	0	33.6210	0	26.291	0	148.896	0	150.8	4	51.2	4	-1E+10	1	-1E+10	1	-1E+10	1	-1E+10	1	-1E+10	1	-1E+10	1
4902549	77	C	09/28/2022	08:56	-131.629	47.214	0	151.40	0	7.3110	0	33.6260	0	26.296	0	150.085	0	150.2	4	51.0	4	-1E+10	1	-1E+10	1	-1E+10	1	-1E+10	1	-1E+10	1	-1E+10	1
4902549	77	C	09/28/2022	08:56	-131.629	47.214	0	152.50	0	7.3080	0	33.6320	0	26.301	0	151.175	0	149.6	4	50.8	4	-1E+10	1	-1E+10	1	-1E+10	1	-1E+10	1	-1E+10	1	-1E+10	1
4902549	77	C	09/28/2022	08:56	-131.629	47.214	0	153.60	0	7.3040	0	33.6370	0	26.305	0	152.265	0	149.1	4	50.7	4	-1E+10	1	-1E+10	1	-1E+10	1	-1E+10	1	-1E+10	1	-1E+10	1
4902549	77	C	09/28/2022	08:56	-131.629	47.214	0	154.80	0	7.2940	0	33.6480	0	26.316	0	153.455	0	148.5	4	50.5	4	-1E+10	1	-1E+10	1	-1E+10	1	-1E+10	1	-1E+10	1	-1E+10	1
4902549	77	C	09/28/2022	08:56	-131.629	47.214	0	155.90	0	7.2750	0	33.6660	0	26.332	0	154.545	0	148.1	4	50.3	4	-1E+10	1	-1E+10	1	-1E+10	1	-1E+10	1	-1E+10	1	-1E+10	1
4902549	77	C	09/28/2022	08:56	-131.629	47.214	0	157.10	0	7.2710	0	33.6700	0	26.336	0	155.734	0	147.6	4	50.1	4	-1E+10	1	-1E+10	1	-1E+10	1	-1E+10	1	-1E+10	1	-1E+10	1
4902549	77	C	09/28/2022	08:56	-131.629	47.214	0	158.20	0	7.2680	0	33.6730	0	26.339	0	156.824	0	147.0	4	49.9	4	-1E+10	1	-1E+10	1	-1E+10	1	-1E+10	1	-1E+10	1	-1E+10	1
4902549	77	C	09/28/2022	08:56	-131.629	47.214	0	159.30	0	7.2570	0	33.6830	0	26.348	0	157.914	0	146.5	4	49.7	4	-1E+10	1	-1E+10	1	-1E+10	1	-1E+10	1	-1E+10	1	-1E+10	1
4902549	77	C	09/28/2022	08:56	-131.629	47.214	0	160.40	0	7.2510	0	33.6900	0	26.355	0	159.004	0	146.1	4	49.6	4	-1E+10	1	-1E+10	1	-1E+10	1	-1E+10	1	-1E+10	1	-1E+10	1
4902549	77	C	09/28/2022	08:56	-131.629	47.214	0	161.50	0	7.2480	0	33.6920	0	26.357	0	160.094	0	145.6	4	49.4	4	-1E+10	1	-1E+10	1	-1E+10	1	-1E+10	1	-1E+10	1	-1E+10	1
4902549	77	C	09/28/2022	08:56	-131.629	47.214	0	162.60	0	7.2440	0	33.6940	0	26.359	0	161.184	0	145.0	4	49.2	4	-1E+10	1	-1E+10	1	-1E+10	1	-1E+10	1	-1E+10	1	-1E+10	1
4902549	77	C	09/28/2022	08:56	-131.629	47.214	0	163.60	0	7.2360	0	33.6990	0	26.364	0	162.175	0	144.5	4	49.0	4	-1E+10	1	-1E+10	1	-1E+10	1	-1E+10	1	-1E+10	1	-1E+10	1
4902549	77	C	09/28/2022	08:56	-131.629	47.214	0	164.70	0	7.2330	0	33.7000	0	26.365	0	163.265	0	143.7	4	48.8	4	-1E+10	1	-1E+10	1	-1E+10	1	-1E+10	1	-1E+10	1	-1E+10	1
4902549	77	C	09/28/2022	08:56	-131.629	47.214	0	165.70	0	7.2290	0	33.7020	0	26.367	0	164.255	0	142.9	4	48.5	4	-1E+10	1	-1E+10	1	-1E+10	1	-1E+10	1	-1E+10	1	-1E+10	1
4902549	77	C	09/28/2022	08:56	-131.629	47.214	0	166.70	0	7.2230	0	33.7060	0	26.371	0	165.246	0	142.0	4	48.2	4	-1E+10	1	-1E+10	1	-1E+10	1	-1E+10	1	-1E+10	1	-1E+10	1
4902549	77	C	09/28/2022	08:56	-131.629	47.214	0	167.70	0	7.1970	0	33.7240	0	26.389	0	166.237	0	141.3	4	47.9	4	-1E+10	1	-1E+10	1	-1E+10	1	-1E+10	1	-1E+10	1	-1E+10	1
4902549	77	C	09/28/2022	08:56	-131.629	47.214	0	168.70	0	7.1790	0	33.7360	0	26.401	0	167.228	0	140.8	4	47.7	4	-1E+10	1	-1E+10	1	-1E+10	1	-1E+10	1	-1E+10	1	-1E+10	1
4902549	77	C	09/28/2022	08:56	-131.629	47.214	0	169.70	0	7.1640	0	33.7430	0	26.408	0	168.219	0	140.2	4	47.5	4	-1E+10	1	-1E+10	1	-1E+10	1	-1E+10	1	-1E+10	1	-1E+10	1
4902549	77	C	09/28/2022	08:56	-131.629	47.214	0	170.60	0	7.1590	0	33.7450	0	26.411	0	169.111	0	139.4	4	47.2	4	-1E+10	1	-1E+10	1	-1E+10	1	-1E+10	1	-1E+10	1	-1E+10	1
4902549	77	C	09/28/2022	08:56	-131.629	47.214	0	171.80	0	7.1520	0	33.7480	0	26.414	0	170.300	0	138.4	4	46.9	4	-1E+10	1	-1E+10	1	-1E+10	1	-1E+10	1	-1E+10	1	-1E+10	1
4902549	77	C	09/28/2022	08:56	-131.629	47.214	0	172.90	0	7.1390	0	33.7560	0	26.422	0	171.390	0	137.5	4	46.6	4	-1E+10	1	-1E+10	1	-1E+10	1	-1E+10	1	-1E+10	1	-1E+10	1
4902549	77	C	09/28/2022	08:56	-131.629	47.214	0	174.10	0	7.1210	0	33.7640	0	26.431	0	172.579	0	136.6	4	46.3	4	-1E+10	1	-1E+10	1	-1E+10	1	-1E+10	1	-1E+10	1	-1E+10	1
4902549	77	C	09/28/2022	08:56	-131.629	47.214	0	174.90	0	7.1080	0	33.7670	0	26.435	0	173.371	0	135.9	4	46.0	4	-1E+10	1	-1E+10	1	-1E+10	1	-1E+10	1	-1E+10	1	-1E+10	1
4902549	77	C	09/28/2022	08:56	-131.629	47.214	0	175.70	0	7.0990	0	33.7700	0	26.439	0	174.164	0	135.1	4	45.7	4	-1E+10	1	-1E+10	1	-1E+10	1	-1E+10	1	-1E+10	1	-1E+10	1
4902549	77	C	09/28/2022	08:56	-131.629	47.214	0	176.90	0	7.0720	0	33.7790	0	26.450	0	175.353	0	133.9	4	45.3	4	-1E+10	1	-1E+10	1	-1E+10	1	-1E+10	1	-1E+10	1	-1E+10	1
4902549	77	C	09/28/2022	08:56	-131.629	47.214	0	178.10	0	7.0410	0	33.7890	0	26.462	0	176.542	0	132.9	4	44.9	4	-1E+10	1	-1E+10	1	-1E+10	1	-1E+10	1	-1E+10	1	-1E+10	1
4902549	77	C	09/28/2022	08:56	-131.629	47.214	0	178.90	0	7.0380	0	33.7900	0	26.463	0	177.335	0	132.0	4	44.6	4	-1E+10	1	-1E+10	1	-1E+10	1	-1E+10	1	-1E+10	1	-1E+10	1
4902549	77	C	09/28/2022	08:56	-131.629	47.214	0	179.80	0	7.0340	0	33.7910	0	26.464	0	178.226	0	130.8	4	44.2	4	-1E+10	1	-1E+10	1	-1E+10	1	-1E+10	1	-1E+10	1	-1E+10	1
4902549	77	C	09/28/2022	08:56	-131.629	47.214	0	181.00	0	7.0130	0	33.7980	0	26.473	0	179.415	0	129.4	4	43.7	4	-1E+10	1	-1E+10	1	-1E+10	1	-1E+10	1	-1E+10	1	-1E+10	1
4902549	77	C	09/28/2022	08:56	-131.629	47.214	0	182.20	0	6.9960	0	33.8030	0	26.479	0	180.604	0	128.0	4	43.2	4	-1E+10	1	-1E+10	1	-1E+10	1	-1E+10	1	-1E+10	1	-1E+10	1
4902549	77	C	09/28/2022	08:56	-131.629	47.214	0	183.10	0	6.9870	0	33.8050	0	26.482	0	181.496	0	126.9	4	42.9	4	-1E+10	1	-1E+10	1	-1E+10	1	-1E+10	1	-1E+10	1	-1E+10	1
4902549	77	C	09/28/2022	08:56	-131.629	47.214	0	183.90	0	6.9660	0	33.8150	0	26.492	0	182.289	0	126.1	4	42.6	4	-1E+10	1	-1E+10	1	-1E+10	1	-1E+10	1	-1E+10	1	-1E+10	1
4902549	77	C	09/28/2022	08:56	-131.629	47.214	0	184.70	0	6.9580	0	33.8160	0	26.494	0	183.081	0	125.3	4	42.3	4	-1E+10	1	-1E+10	1	-1E+10	1	-1E+10	1	-1E+10	1	-1E+10	1
4902549	77	C	09/28/2022	08:56	-131.629	47.214	0	185.90	0	6.9390	0	33.8210	0	26.501	0	184.270	0	124.2	4	41.9	4	-1E+10	1	-1E+10	1	-1E+10	1	-1E+10	1	-1E+10	1	-1E+10	1
4902549	77	C	09/28/2022	08:56	-131.629	47.214	0	187.20	0	6.9170	0	33.8260	0	26.508	0	185.558	0	123.3	4	41.6	4	-1E+10	1	-1E+10	1	-1E+10	1	-1E+10	1	-1E+10	1	-1E+10	1
4902549	77	C	09/28/2022	08:56	-131.629	47.214	0	188.00	0	6.9010	0	33.8320	0	26.515	0	186.351	0	122.8	4	41.4	4	-1E+10	1	-1E+10	1	-1E+10	1	-1E+10	1	-1E+10	1	-1E+10	1
4902549	77	C	09/28/2022	08:56	-131.629	47.214	0	188.90	0	6.8910	0	33.8340	0	26.518	0	187.243	0	122.5	4	41.3	4	-1E+10	1	-1E+10	1	-1E+10	1	-1E+10	1	-1E+10	1	-1E+10	1
4902549	77	C	09/28/2022	08:56	-131.629	47.214	0	189.80	0	6.8910	0	33.8340	0	26.518	0	188.134	0	121.9	4	41.1	4	-1E+10	1	-1E+10	1	-1E+10	1	-1E+10	1	-1E+10	1	-1E+10	1
4902549	77	C	09/28/2022	08:56	-131.629	47.214	0	190.70	0	6.8900	0	33.8340	0	26.518	0	189.026	0	121.4	4	40.9	4	-1E+10	1	-1E+10	1	-1E+10	1	-1E+10	1	-1E+10	1	-1E+10	1
4902549	77	C	09/28/2022	08:56	-131.629	47.214	0	191.60	0	6.8890	0	33.8340	0	26.518	0	189.918	0	120.7	4	40.7	4	-1E+10	1	-1E+10	1	-1E+10	1	-1E+10	1	-1E+10	1	-1E+10	1
4902549	77	C	09/28/2022	08:56	-131.629	47.214	0	192.90	0	6.8850	0	33.8350	0	26.519	0	191.206	0	119.6	4	40.3	4	-1E+10	1	-1E+10	1	-1E+10	1	-1E+10	1	-1E+10	1	-1E+10	1
4902549	77	C	09/28/2022	08:56	-131.629	47.214	0	194.30	0	6.8730	0	33.8410	0	26.526	0	192.593	0	118.5	4	39.9	4	-1E+10	1	-1E+10	1	-1E+10	1	-1E+10	1	-1E+10	1	-1E+10	1
4902549	77	C	09/28/2022	08:56	-131.629	47.214	0	195.20	0	6.8710	0	33.8430	0	26.528	0	193.484	0	118.0	4	39.7	4	-1E+10	1	-1E+10	1	-1E+10	1	-1E+10	1	-1E+10	1	-1E+10	1
4902549	77	C	09/28/2022	08:56	-131.629	47.214	0	196.10	0	6.8720	0	33.8460	0	26.530	0	194.376	0	117.6	4	39.6	4	-1E+10	1	-1E+10	1	-1E+10	1	-1E+10	1	-1E+10	1	-1E+10	1
4902549	77	C	09/28/2022	08:56	-131.629	47.214	0	197.00	0	6.8630	0	33.8490	0	26.533	0	195.268	0	117.3	4	39.5	4	-1E+10	1	-1E+10	1	-1E+10	1	-1E+10	1	-1E+10	1	-1E+10	1
4902549	77	C	09/28/2022	08:56	-131.629	47.214	0	198.00	0	6.8500	0	33.8450	0	26.532	0	196.259	0	116.8	4	39.3	4	-1E+10	1	-1E+10	1	-1E+10	1	-1E+10	1	-1E+10	1	-1E+10	1
4902549	77	C	09/28/2022	08:56	-131.629	47.214	0	198.90	0	6.8360	0	33.8470	0	26.535	0	197.150	0	116.2	4	39.1	4	-1E+10	1	-1E+10	1	-1E+10	1	-1E+10	1	-1E+10	1	-1E+10	1
4902549	77	C	09/28/2022	08:56	-131.629	47.214	0	199.90	0	6.8250	0	33.8470	0	26.537	0	198.141	0	115.3	4	38.8	4	-1E+10	1	-1E+10	1	-1E+10	1	-1E+10	1	-1E+10	1	-1E+10	1
4902549	77	C	09/28/2022	08:56	-131.629	47.214	0	200.80	0	6.8140	0	33.8470	0	26.538	0	199.033	0	114.4	4	38.5	4	-1E+10	1	-1E+10	1	-1E+10	1	-1E+10	1	-1E+10	1	-1E+10	1
4902549	77	C	09/28/2022	08:56	-131.629	47.214	0	201.80	0	6.8410	0	33.8560	0	26.542	0	200.023	0	114.1	4	38.4	4	-1E+10	1	-1E+10	1	-1E+10	1	-1E+10	1	-1E+10	1	-1E+10	1
4902549	77	C	09/28/2022	08:56	-131.629	47.214	0	202.70	0	6.8530	0	33.8570	0	26.541	0	200.915	0	114.0	4	38.4	4	-1E+10	1	-1E+10	1	-1E+10	1	-1E+10	1	-1E+10	1	-1E+10	1
4902549	77	C	09/28/2022	08:56	-131.629	47.214	0	203.70	0	6.8140	0	33.8640	0	26.552	0	201.906	0	114.0	4	38.4	4	-1E+10	1	-1E+10	1	-1E+10	1	-1E+10	1	-1E+10	1	-1E+10	1
4902549	77	C	09/28/2022	08:56	-131.629	47.214	0	204.70	0	6.7690	0	33.8570	0	26.552	0	202.896	0	113.6	4	38.2	4	-1E+10	1	-1E+10	1	-1E+10	1	-1E+10	1	-1E+10	1	-1E+10	1
4902549	77	C	09/28/2022	08:56	-131.629	47.214	0	205.70	0	6.7640	0	33.8550	0	26.551	0	203.887	0	113.0	4	38.0	4	-1E+10	1	-1E+10	1	-1E+10	1	-1E+10	1	-1E+10	1	-1E+10	1
4902549	77	C	09/28/2022	08:56	-131.629	47.214	0	206.70	0	6.7600	0	33.8560	0	26.553	0	204.878	0	112.3	4	37.7	4	-1E+10	1	-1E+10	1	-1E+10	1	-1E+10	1	-1E+10	1	-1E+10	1
4902549	77	C	09/28/2022	08:56	-131.629	47.214	0	207.60	0	6.7510	0	33.8570	0	26.555	0	205.769	0	111.5	4	37.5	4	-1E+10	1	-1E+10	1	-1E+10	1	-1E+10	1	-1E+10	1	-1E+10	1
4902549	77	C	09/28/2022	08:56	-131.629	47.214	0	208.60	0	6.7490	0	33.8570	0	26.555	0	206.760	0	110.7	4	37.2	4	-1E+10	1	-1E+10	1	-1E+10	1	-1E+10	1	-1E+10	1	-1E+10	1
4902549	77	C	09/28/2022	08:56	-131.629	47.214	0	209.70	0	6.7400	0	33.8620	0	26.560	0	207.850	0	110.0	4	37.0	4	-1E+10	1	-1E+10	1	-1E+10	1	-1E+10	1	-1E+10	1	-1E+10	1
4902549	77	C	09/28/2022	08:56	-131.629	47.214	0	210.70	0	6.7040	0	33.8650	0	26.567	0	208.840	0	109.4	4	36.7	4	-1E+10	1	-1E+10	1	-1E+10	1	-1E+10	1	-1E+10	1	-1E+10	1
4902549	77	C	09/28/2022	08:56	-131.629	47.214	0	211.70	0	6.6920	0	33.8630	0	26.567	0	209.831	0	108.7	4	36.5	4	-1E+10	1	-1E+10	1	-1E+10	1	-1E+10	1	-1E+10	1	-1E+10	1
4902549	77	C	09/28/2022	08:56	-131.629	47.214	0	212.70	0	6.6500	0	33.8680	0	26.577	0	210.822	0	108.1	4	36.2	4	-1E+10	1	-1E+10	1	-1E+10	1	-1E+10	1	-1E+10	1	-1E+10	1
4902549	77	C	09/28/2022	08:56	-131.629	47.214	0	213.70	0	6.6390	0	33.8710	0	26.581	0	211.812	0	107.5	4	36.0	4	-1E+10	1	-1E+10	1	-1E+10	1	-1E+10	1	-1E+10	1	-1E+10	1
4902549	77	C	09/28/2022	08:56	-131.629	47.214	0	214.70	0	6.6280	0	33.8720	0	26.583	0	212.803	0	106.8	4	35.8	4	-1E+10	1	-1E+10	1	-1E+10	1	-1E+10	1	-1E+10	1	-1E+10	1
4902549	77	C	09/28/2022	08:56	-131.629	47.214	0	215.70	0	6.6130	0	33.8730	0	26.586	0	213.794	0	106.0	4	35.5	4	-1E+10	1	-1E+10	1	-1E+10	1	-1E+10	1	-1E+10	1	-1E+10	1
4902549	77	C	09/28/2022	08:56	-131.629	47.214	0	216.70	0	6.5910	0	33.8710	0	26.587	0	214.784	0	105.1	4	35.2	4	-1E+10	1	-1E+10	1	-1E+10	1	-1E+10	1	-1E+10	1	-1E+10	1
4902549	77	C	09/28/2022	08:56	-131.629	47.214	0	217.70	0	6.5720	0	33.8730	0	26.591	0	215.775	0	104.1	4	34.9	4	-1E+10	1	-1E+10	1	-1E+10	1	-1E+10	1	-1E+10	1	-1E+10	1
4902549	77	C	09/28/2022	08:56	-131.629	47.214	0	218.70	0	6.5610	0	33.8750	0	26.594	0	216.766	0	103.2	4	34.5	4	-1E+10	1	-1E+10	1	-1E+10	1	-1E+10	1	-1E+10	1	-1E+10	1
4902549	77	C	09/28/2022	08:56	-131.629	47.214	0	219.80	0	6.5590	0	33.8750	0	26.595	0	217.855	0	102.0	4	34.1	4	-1E+10	1	-1E+10	1	-1E+10	1	-1E+10	1	-1E+10	1	-1E+10	1
4902549	77	C	09/28/2022	08:56	-131.629	47.214	0	220.80	0	6.5470	0	33.8770	0	26.598	0	218.846	0	100.9	4	33.7	4	-1E+10	1	-1E+10	1	-1E+10	1	-1E+10	1	-1E+10	1	-1E+10	1
4902549	77	C	09/28/2022	08:56	-131.629	47.214	0	221.80	0	6.5480	0	33.8820	0	26.602	0	219.837	0	99.8	4	33.4	4	-1E+10	1	-1E+10	1	-1E+10	1	-1E+10	1	-1E+10	1	-1E+10	1
4902549	77	C	09/28/2022	08:56	-131.629	47.214	0	222.80	0	6.5460	0	33.8820	0	26.602	0	220.827	0	98.7	4	33.0	4	-1E+10	1	-1E+10	1	-1E+10	1	-1E+10	1	-1E+10	1	-1E+10	1
4902549	77	C	09/28/2022	08:56	-131.629	47.214	0	223.80	0	6.5550	0	33.8890	0	26.606	0	221.818	0	97.7	4	32.7	4	-1E+10	1	-1E+10	1	-1E+10	1	-1E+10	1	-1E+10	1	-1E+10	1
4902549	77	C	09/28/2022	08:56	-131.629	47.214	0	224.80	0	6.5510	0	33.8900	0	26.607	0	222.808	0	96.9	4	32.4	4	-1E+10	1	-1E+10	1	-1E+10	1	-1E+10	1	-1E+10	1	-1E+10	1
4902549	77	C	09/28/2022	08:56	-131.629	47.214	0	225.70	0	6.5640	0	33.8960	0	26.611	0	223.700	0	96.3	4	32.2	4	-1E+10	1	-1E+10	1	-1E+10	1	-1E+10	1	-1E+10	1	-1E+10	1
4902549	77	C	09/28/2022	08:56	-131.629	47.214	0	226.80	0	6.5580	0	33.8960	0	26.611	0	224.790	0	95.6	4	32.0	4	-1E+10	1	-1E+10	1	-1E+10	1	-1E+10	1	-1E+10	1	-1E+10	1
4902549	77	C	09/28/2022	08:56	-131.629	47.214	0	227.90	0	6.5550	0	33.9000	0	26.615	0	225.879	0	95.0	4	31.8	4	-1E+10	1	-1E+10	1	-1E+10	1	-1E+10	1	-1E+10	1	-1E+10	1
4902549	77	C	09/28/2022	08:56	-131.629	47.214	0	229.10	0	6.5380	0	33.9030	0	26.620	0	227.068	0	94.8	4	31.7	4	-1E+10	1	-1E+10	1	-1E+10	1	-1E+10	1	-1E+10	1	-1E+10	1
4902549	77	C	09/28/2022	08:56	-131.629	47.214	0	229.90	0	6.5300	0	33.9040	0	26.621	0	227.860	0	94.7	4	31.7	4	-1E+10	1	-1E+10	1	-1E+10	1	-1E+10	1	-1E+10	1	-1E+10	1
4902549	77	C	09/28/2022	08:56	-131.629	47.214	0	231.00	0	6.5270	0	33.9030	0	26.621	0	228.950	0	94.5	4	31.6	4	-1E+10	1	-1E+10	1	-1E+10	1	-1E+10	1	-1E+10	1	-1E+10	1
4902549	77	C	09/28/2022	08:56	-131.629	47.214	0	232.10	0	6.5230	0	33.9030	0	26.622	0	230.040	0	94.3	4	31.5	4	-1E+10	1	-1E+10	1	-1E+10	1	-1E+10	1	-1E+10	1	-1E+10	1
4902549	77	C	09/28/2022	08:56	-131.629	47.214	0	232.90	0	6.5180	0	33.9030	0	26.622	0	230.832	0	94.2	4	31.5	4	-1E+10	1	-1E+10	1	-1E+10	1	-1E+10	1	-1E+10	1	-1E+10	1
4902549	77	C	09/28/2022	08:56	-131.629	47.214	0	234.00	0	6.4900	0	33.9040	0	26.627	0	231.922	0	94.1	4	31.5	4	-1E+10	1	-1E+10	1	-1E+10	1	-1E+10	1	-1E+10	1	-1E+10	1
4902549	77	C	09/28/2022	08:56	-131.629	47.214	0	235.20	0	6.4140	0	33.9040	0	26.637	0	233.110	0	94.3	4	31.4	4	-1E+10	1	-1E+10	1	-1E+10	1	-1E+10	1	-1E+10	1	-1E+10	1
4902549	77	C	09/28/2022	08:56	-131.629	47.214	0	236.00	0	6.4080	0	33.9050	0	26.638	0	233.903	0	94.2	4	31.4	4	-1E+10	1	-1E+10	1	-1E+10	1	-1E+10	1	-1E+10	1	-1E+10	1
4902549	77	C	09/28/2022	08:56	-131.629	47.214	0	236.80	0	6.3980	0	33.9040	0	26.639	0	234.695	0	94.2	4	31.4	4	-1E+10	1	-1E+10	1	-1E+10	1	-1E+10	1	-1E+10	1	-1E+10	1
4902549	77	C	09/28/2022	08:56	-131.629	47.214	0	237.90	0	6.3630	0	33.9010	0	26.641	0	235.785	0	93.9	4	31.3	4	-1E+10	1	-1E+10	1	-1E+10	1	-1E+10	1	-1E+10	1	-1E+10	1
4902549	77	C	09/28/2022	08:56	-131.629	47.214	0	239.10	0	6.3380	0	33.9020	0	26.645	0	236.974	0	93.5	4	31.1	4	-1E+10	1	-1E+10	1	-1E+10	1	-1E+10	1	-1E+10	1	-1E+10	1
4902549	77	C	09/28/2022	08:56	-131.629	47.214	0	239.90	0	6.3410	0	33.9000	0	26.643	0	237.766	0	93.2	4	31.0	4	-1E+10	1	-1E+10	1	-1E+10	1	-1E+10	1	-1E+10	1	-1E+10	1
4902549	77	C	09/28/2022	08:56	-131.629	47.214	0	240.70	0	6.3410	0	33.9010	0	26.644	0	238.558	0	92.8	4	30.9	4	-1E+10	1	-1E+10	1	-1E+10	1	-1E+10	1	-1E+10	1	-1E+10	1
4902549	77	C	09/28/2022	08:56	-131.629	47.214	0	241.90	0	6.3220	0	33.9010	0	26.646	0	239.747	0	92.1	4	30.6	4	-1E+10	1	-1E+10	1	-1E+10	1	-1E+10	1	-1E+10	1	-1E+10	1
4902549	77	C	09/28/2022	08:56	-131.629	47.214	0	243.10	0	6.3060	0	33.9010	0	26.648	0	240.936	0	91.2	4	30.3	4	-1E+10	1	-1E+10	1	-1E+10	1	-1E+10	1	-1E+10	1	-1E+10	1
4902549	77	C	09/28/2022	08:56	-131.629	47.214	0	243.90	0	6.3030	0	33.9020	0	26.649	0	241.728	0	90.5	4	30.1	4	-1E+10	1	-1E+10	1	-1E+10	1	-1E+10	1	-1E+10	1	-1E+10	1
4902549	77	C	09/28/2022	08:56	-131.629	47.214	0	244.80	0	6.3070	0	33.9030	0	26.650	0	242.619	0	89.9	4	29.9	4	-1E+10	1	-1E+10	1	-1E+10	1	-1E+10	1	-1E+10	1	-1E+10	1
4902549	77	C	09/28/2022	08:56	-131.629	47.214	0	246.00	0	6.3300	0	33.9100	0	26.652	0	243.808	0	89.1	4	29.7	4	-1E+10	1	-1E+10	1	-1E+10	1	-1E+10	1	-1E+10	1	-1E+10	1
4902549	77	C	09/28/2022	08:56	-131.629	47.214	0	247.20	0	6.3120	0	33.9100	0	26.655	0	244.997	0	88.6	4	29.5	4	-1E+10	1	-1E+10	1	-1E+10	1	-1E+10	1	-1E+10	1	-1E+10	1
4902549	77	C	09/28/2022	08:56	-131.629	47.214	0	248.10	0	6.3050	0	33.9100	0	26.655	0	245.888	0	88.3	4	29.4	4	-1E+10	1	-1E+10	1	-1E+10	1	-1E+10	1	-1E+10	1	-1E+10	1
4902549	77	C	09/28/2022	08:56	-131.629	47.214	0	248.90	0	6.2700	0	33.9130	0	26.662	0	246.681	0	87.8	4	29.2	4	-1E+10	1	-1E+10	1	-1E+10	1	-1E+10	1	-1E+10	1	-1E+10	1
4902549	77	C	09/28/2022	08:56	-131.629	47.214	0	249.70	0	6.2690	0	33.9120	0	26.662	0	247.473	0	87.4	4	29.1	4	-1E+10	1	-1E+10	1	-1E+10	1	-1E+10	1	-1E+10	1	-1E+10	1
4902549	77	C	09/28/2022	08:56	-131.629	47.214	0	250.60	0	6.2590	0	33.9110	0	26.662	0	248.364	0	87.0	4	28.9	4	-1E+10	1	-1E+10	1	-1E+10	1	-1E+10	1	-1E+10	1	-1E+10	1
4902549	77	C	09/28/2022	08:56	-131.629	47.214	0	251.90	0	6.2540	0	33.9100	0	26.662	0	249.652	0	86.1	4	28.6	4	-1E+10	1	-1E+10	1	-1E+10	1	-1E+10	1	-1E+10	1	-1E+10	1
4902549	77	C	09/28/2022	08:56	-131.629	47.214	0	253.20	0	6.2450	0	33.9110	0	26.664	0	250.940	0	85.1	4	28.3	4	-1E+10	1	-1E+10	1	-1E+10	1	-1E+10	1	-1E+10	1	-1E+10	1
4902549	77	C	09/28/2022	08:56	-131.629	47.214	0	254.00	0	6.2550	0	33.9070	0	26.660	0	251.732	0	84.4	4	28.1	4	-1E+10	1	-1E+10	1	-1E+10	1	-1E+10	1	-1E+10	1	-1E+10	1
4902549	77	C	09/28/2022	08:56	-131.629	47.214	0	254.90	0	6.2550	0	33.9170	0	26.668	0	252.623	0	84.0	4	27.9	4	-1E+10	1	-1E+10	1	-1E+10	1	-1E+10	1	-1E+10	1	-1E+10	1
4902549	77	C	09/28/2022	08:56	-131.629	47.214	0	255.80	0	6.2410	0	33.9170	0	26.669	0	253.515	0	83.7	4	27.8	4	-1E+10	1	-1E+10	1	-1E+10	1	-1E+10	1	-1E+10	1	-1E+10	1
4902549	77	C	09/28/2022	08:56	-131.629	47.214	0	256.70	0	6.2340	0	33.9220	0	26.674	0	254.406	0	83.5	4	27.8	4	-1E+10	1	-1E+10	1	-1E+10	1	-1E+10	1	-1E+10	1	-1E+10	1
4902549	77	C	09/28/2022	08:56	-131.629	47.214	0	257.90	0	6.2110	0	33.9200	0	26.676	0	255.595	0	83.1	4	27.6	4	-1E+10	1	-1E+10	1	-1E+10	1	-1E+10	1	-1E+10	1	-1E+10	1
4902549	77	C	09/28/2022	08:56	-131.629	47.214	0	259.30	0	6.2000	0	33.9190	0	26.676	0	256.981	0	82.5	4	27.4	4	-1E+10	1	-1E+10	1	-1E+10	1	-1E+10	1	-1E+10	1	-1E+10	1
4902549	77	C	09/28/2022	08:56	-131.629	47.214	0	260.20	0	6.1970	0	33.9210	0	26.678	0	257.873	0	82.0	4	27.2	4	-1E+10	1	-1E+10	1	-1E+10	1	-1E+10	1	-1E+10	1	-1E+10	1
4902549	77	C	09/28/2022	08:56	-131.629	47.214	0	261.10	0	6.1760	0	33.9200	0	26.680	0	258.764	0	81.5	4	27.0	4	-1E+10	1	-1E+10	1	-1E+10	1	-1E+10	1	-1E+10	1	-1E+10	1
4902549	77	C	09/28/2022	08:56	-131.629	47.214	0	262.00	0	6.1800	0	33.9210	0	26.680	0	259.655	0	81.0	4	26.9	4	-1E+10	1	-1E+10	1	-1E+10	1	-1E+10	1	-1E+10	1	-1E+10	1
4902549	77	C	09/28/2022	08:56	-131.629	47.214	0	262.90	0	6.1840	0	33.9220	0	26.681	0	260.547	0	80.5	4	26.7	4	-1E+10	1	-1E+10	1	-1E+10	1	-1E+10	1	-1E+10	1	-1E+10	1
4902549	77	C	09/28/2022	08:56	-131.629	47.214	0	263.90	0	6.1860	0	33.9230	0	26.681	0	261.537	0	79.9	4	26.5	4	-1E+10	1	-1E+10	1	-1E+10	1	-1E+10	1	-1E+10	1	-1E+10	1
4902549	77	C	09/28/2022	08:56	-131.629	47.214	0	264.70	0	6.1930	0	33.9290	0	26.685	0	262.330	0	79.5	4	26.4	4	-1E+10	1	-1E+10	1	-1E+10	1	-1E+10	1	-1E+10	1	-1E+10	1
4902549	77	C	09/28/2022	08:56	-131.629	47.214	0	265.60	0	6.1820	0	33.9250	0	26.683	0	263.221	0	79.0	4	26.2	4	-1E+10	1	-1E+10	1	-1E+10	1	-1E+10	1	-1E+10	1	-1E+10	1
4902549	77	C	09/28/2022	08:56	-131.629	47.214	0	267.00	0	6.1370	0	33.9240	0	26.688	0	264.608	0	78.3	4	26.0	4	-1E+10	1	-1E+10	1	-1E+10	1	-1E+10	1	-1E+10	1	-1E+10	1
4902549	77	C	09/28/2022	08:56	-131.629	47.214	0	268.40	0	6.1390	0	33.9290	0	26.692	0	265.994	0	77.5	4	25.7	4	-1E+10	1	-1E+10	1	-1E+10	1	-1E+10	1	-1E+10	1	-1E+10	1
4902549	77	C	09/28/2022	08:56	-131.629	47.214	0	269.30	0	6.1370	0	33.9280	0	26.691	0	266.885	0	77.1	4	25.6	4	-1E+10	1	-1E+10	1	-1E+10	1	-1E+10	1	-1E+10	1	-1E+10	1
4902549	77	C	09/28/2022	08:56	-131.629	47.214	0	270.20	0	6.1390	0	33.9300	0	26.693	0	267.777	0	76.7	4	25.4	4	-1E+10	1	-1E+10	1	-1E+10	1	-1E+10	1	-1E+10	1	-1E+10	1
4902549	77	C	09/28/2022	08:56	-131.629	47.214	0	271.10	0	6.1320	0	33.9310	0	26.694	0	268.668	0	76.2	4	25.3	4	-1E+10	1	-1E+10	1	-1E+10	1	-1E+10	1	-1E+10	1	-1E+10	1
4902549	77	C	09/28/2022	08:56	-131.629	47.214	0	272.00	0	6.1210	0	33.9330	0	26.697	0	269.560	0	75.9	4	25.1	4	-1E+10	1	-1E+10	1	-1E+10	1	-1E+10	1	-1E+10	1	-1E+10	1
4902549	77	C	09/28/2022	08:56	-131.629	47.214	0	273.00	0	6.1100	0	33.9330	0	26.699	0	270.550	0	75.5	4	25.0	4	-1E+10	1	-1E+10	1	-1E+10	1	-1E+10	1	-1E+10	1	-1E+10	1
4902549	77	C	09/28/2022	08:56	-131.629	47.214	0	273.90	0	6.1000	0	33.9330	0	26.700	0	271.441	0	75.0	4	24.8	4	-1E+10	1	-1E+10	1	-1E+10	1	-1E+10	1	-1E+10	1	-1E+10	1
4902549	77	C	09/28/2022	08:56	-131.629	47.214	0	274.80	0	6.0890	0	33.9350	0	26.703	0	272.333	0	74.6	4	24.7	4	-1E+10	1	-1E+10	1	-1E+10	1	-1E+10	1	-1E+10	1	-1E+10	1
4902549	77	C	09/28/2022	08:56	-131.629	47.214	0	275.70	0	6.0860	0	33.9350	0	26.703	0	273.224	0	74.2	4	24.6	4	-1E+10	1	-1E+10	1	-1E+10	1	-1E+10	1	-1E+10	1	-1E+10	1
4902549	77	C	09/28/2022	08:56	-131.629	47.214	0	276.60	0	6.0770	0	33.9370	0	26.706	0	274.115	0	73.9	4	24.5	4	-1E+10	1	-1E+10	1	-1E+10	1	-1E+10	1	-1E+10	1	-1E+10	1
4902549	77	C	09/28/2022	08:56	-131.629	47.214	0	277.50	0	6.0760	0	33.9380	0	26.707	0	275.007	0	73.6	4	24.4	4	-1E+10	1	-1E+10	1	-1E+10	1	-1E+10	1	-1E+10	1	-1E+10	1
4902549	77	C	09/28/2022	08:56	-131.629	47.214	0	278.90	0	6.0740	0	33.9400	0	26.709	0	276.393	0	73.2	4	24.2	4	-1E+10	1	-1E+10	1	-1E+10	1	-1E+10	1	-1E+10	1	-1E+10	1
4902549	77	C	09/28/2022	08:56	-131.629	47.214	0	280.40	0	6.0700	0	33.9410	0	26.710	0	277.878	0	72.9	4	24.1	4	-1E+10	1	-1E+10	1	-1E+10	1	-1E+10	1	-1E+10	1	-1E+10	1
4902549	77	C	09/28/2022	08:56	-131.629	47.214	0	281.30	0	6.0680	0	33.9420	0	26.711	0	278.770	0	72.7	4	24.1	4	-1E+10	1	-1E+10	1	-1E+10	1	-1E+10	1	-1E+10	1	-1E+10	1
4902549	77	C	09/28/2022	08:56	-131.629	47.214	0	282.30	0	6.0590	0	33.9420	0	26.712	0	279.760	0	72.5	4	24.0	4	-1E+10	1	-1E+10	1	-1E+10	1	-1E+10	1	-1E+10	1	-1E+10	1
4902549	77	C	09/28/2022	08:56	-131.629	47.214	0	283.20	0	6.0470	0	33.9410	0	26.713	0	280.651	0	72.4	4	23.9	4	-1E+10	1	-1E+10	1	-1E+10	1	-1E+10	1	-1E+10	1	-1E+10	1
4902549	77	C	09/28/2022	08:56	-131.629	47.214	0	284.20	0	6.0310	0	33.9410	0	26.715	0	281.642	0	72.2	4	23.9	4	-1E+10	1	-1E+10	1	-1E+10	1	-1E+10	1	-1E+10	1	-1E+10	1
4902549	77	C	09/28/2022	08:56	-131.629	47.214	0	285.10	0	6.0190	0	33.9420	0	26.717	0	282.533	0	72.0	4	23.8	4	-1E+10	1	-1E+10	1	-1E+10	1	-1E+10	1	-1E+10	1	-1E+10	1
4902549	77	C	09/28/2022	08:56	-131.629	47.214	0	286.10	0	6.0040	0	33.9410	0	26.719	0	283.523	0	71.8	4	23.7	4	-1E+10	1	-1E+10	1	-1E+10	1	-1E+10	1	-1E+10	1	-1E+10	1
4902549	77	C	09/28/2022	08:56	-131.629	47.214	0	287.00	0	5.9990	0	33.9440	0	26.722	0	284.415	0	71.7	4	23.7	4	-1E+10	1	-1E+10	1	-1E+10	1	-1E+10	1	-1E+10	1	-1E+10	1
4902549	77	C	09/28/2022	08:56	-131.629	47.214	0	288.00	0	5.9920	0	33.9450	0	26.723	0	285.405	0	71.7	4	23.7	4	-1E+10	1	-1E+10	1	-1E+10	1	-1E+10	1	-1E+10	1	-1E+10	1
4902549	77	C	09/28/2022	08:56	-131.629	47.214	0	289.00	0	5.9710	0	33.9440	0	26.725	0	286.395	0	71.7	4	23.7	4	-1E+10	1	-1E+10	1	-1E+10	1	-1E+10	1	-1E+10	1	-1E+10	1
4902549	77	C	09/28/2022	08:56	-131.629	47.214	0	290.00	0	5.9560	0	33.9420	0	26.725	0	287.386	0	71.6	4	23.6	4	-1E+10	1	-1E+10	1	-1E+10	1	-1E+10	1	-1E+10	1	-1E+10	1
4902549	77	C	09/28/2022	08:56	-131.629	47.214	0	290.90	0	5.9440	0	33.9410	0	26.726	0	288.277	0	71.3	4	23.5	4	-1E+10	1	-1E+10	1	-1E+10	1	-1E+10	1	-1E+10	1	-1E+10	1
4902549	77	C	09/28/2022	08:56	-131.629	47.214	0	291.90	0	5.9230	0	33.9400	0	26.728	0	289.267	0	71.1	4	23.5	4	-1E+10	1	-1E+10	1	-1E+10	1	-1E+10	1	-1E+10	1	-1E+10	1
4902549	77	C	09/28/2022	08:56	-131.629	47.214	0	292.90	0	5.9200	0	33.9410	0	26.729	0	290.257	0	70.8	4	23.3	4	-1E+10	1	-1E+10	1	-1E+10	1	-1E+10	1	-1E+10	1	-1E+10	1
4902549	77	C	09/28/2022	08:56	-131.629	47.214	0	293.90	0	5.9190	0	33.9400	0	26.728	0	291.248	0	70.4	4	23.2	4	-1E+10	1	-1E+10	1	-1E+10	1	-1E+10	1	-1E+10	1	-1E+10	1
4902549	77	C	09/28/2022	08:56	-131.629	47.214	0	294.90	0	5.9160	0	33.9400	0	26.729	0	292.238	0	70.1	4	23.1	4	-1E+10	1	-1E+10	1	-1E+10	1	-1E+10	1	-1E+10	1	-1E+10	1
4902549	77	C	09/28/2022	08:56	-131.629	47.214	0	295.90	0	5.9000	0	33.9410	0	26.732	0	293.228	0	69.7	4	23.0	4	-1E+10	1	-1E+10	1	-1E+10	1	-1E+10	1	-1E+10	1	-1E+10	1
4902549	77	C	09/28/2022	08:56	-131.629	47.214	0	296.90	0	5.8890	0	33.9420	0	26.734	0	294.218	0	69.4	4	22.9	4	-1E+10	1	-1E+10	1	-1E+10	1	-1E+10	1	-1E+10	1	-1E+10	1
4902549	77	C	09/28/2022	08:56	-131.629	47.214	0	297.90	0	5.8690	0	33.9440	0	26.738	0	295.209	0	69.2	4	22.8	4	-1E+10	1	-1E+10	1	-1E+10	1	-1E+10	1	-1E+10	1	-1E+10	1
4902549	77	C	09/28/2022	08:56	-131.629	47.214	0	298.90	0	5.8580	0	33.9440	0	26.739	0	296.199	0	68.9	4	22.7	4	-1E+10	1	-1E+10	1	-1E+10	1	-1E+10	1	-1E+10	1	-1E+10	1
4902549	77	C	09/28/2022	08:56	-131.629	47.214	0	299.90	0	5.8580	0	33.9450	0	26.740	0	297.189	0	68.6	4	22.6	4	-1E+10	1	-1E+10	1	-1E+10	1	-1E+10	1	-1E+10	1	-1E+10	1
4902549	77	C	09/28/2022	08:56	-131.629	47.214	0	300.90	0	5.8580	0	33.9470	0	26.742	0	298.179	0	68.4	4	22.5	4	-1E+10	1	-1E+10	1	-1E+10	1	-1E+10	1	-1E+10	1	-1E+10	1
4902549	77	C	09/28/2022	08:56	-131.629	47.214	0	302.00	0	5.8590	0	33.9470	0	26.741	0	299.269	0	68.1	4	22.4	4	-1E+10	1	-1E+10	1	-1E+10	1	-1E+10	1	-1E+10	1	-1E+10	1
4902549	77	C	09/28/2022	08:56	-131.629	47.214	0	302.90	0	5.8580	0	33.9490	0	26.743	0	300.160	0	67.9	4	22.4	4	-1E+10	1	-1E+10	1	-1E+10	1	-1E+10	1	-1E+10	1	-1E+10	1
4902549	77	C	09/28/2022	08:56	-131.629	47.214	0	304.00	0	5.8580	0	33.9480	0	26.742	0	301.249	0	67.7	4	22.3	4	-1E+10	1	-1E+10	1	-1E+10	1	-1E+10	1	-1E+10	1	-1E+10	1
4902549	77	C	09/28/2022	08:56	-131.629	47.214	0	305.00	0	5.8490	0	33.9480	0	26.744	0	302.239	0	67.5	4	22.2	4	-1E+10	1	-1E+10	1	-1E+10	1	-1E+10	1	-1E+10	1	-1E+10	1
4902549	77	C	09/28/2022	08:56	-131.629	47.214	0	306.00	0	5.8410	0	33.9510	0	26.747	0	303.230	0	67.3	4	22.2	4	-1E+10	1	-1E+10	1	-1E+10	1	-1E+10	1	-1E+10	1	-1E+10	1
4902549	77	C	09/28/2022	08:56	-131.629	47.214	0	307.00	0	5.8410	0	33.9490	0	26.745	0	304.220	0	67.2	4	22.1	4	-1E+10	1	-1E+10	1	-1E+10	1	-1E+10	1	-1E+10	1	-1E+10	1
4902549	77	C	09/28/2022	08:56	-131.629	47.214	0	308.00	0	5.8020	0	33.9480	0	26.749	0	305.210	0	67.0	4	22.0	4	-1E+10	1	-1E+10	1	-1E+10	1	-1E+10	1	-1E+10	1	-1E+10	1
4902549	77	C	09/28/2022	08:56	-131.629	47.214	0	309.00	0	5.8080	0	33.9460	0	26.747	0	306.200	0	66.7	4	22.0	4	-1E+10	1	-1E+10	1	-1E+10	1	-1E+10	1	-1E+10	1	-1E+10	1
4902549	77	C	09/28/2022	08:56	-131.629	47.214	0	310.10	0	5.8050	0	33.9490	0	26.750	0	307.289	0	66.5	4	21.9	4	-1E+10	1	-1E+10	1	-1E+10	1	-1E+10	1	-1E+10	1	-1E+10	1
4902549	77	C	09/28/2022	08:56	-131.629	47.214	0	311.10	0	5.8050	0	33.9470	0	26.748	0	308.280	0	66.2	4	21.8	4	-1E+10	1	-1E+10	1	-1E+10	1	-1E+10	1	-1E+10	1	-1E+10	1
4902549	77	C	09/28/2022	08:56	-131.629	47.214	0	312.10	0	5.8120	0	33.9500	0	26.750	0	309.270	0	65.9	4	21.7	4	-1E+10	1	-1E+10	1	-1E+10	1	-1E+10	1	-1E+10	1	-1E+10	1
4902549	77	C	09/28/2022	08:56	-131.629	47.214	0	313.10	0	5.8060	0	33.9530	0	26.753	0	310.260	0	65.6	4	21.6	4	-1E+10	1	-1E+10	1	-1E+10	1	-1E+10	1	-1E+10	1	-1E+10	1
4902549	77	C	09/28/2022	08:56	-131.629	47.214	0	314.10	0	5.7730	0	33.9500	0	26.755	0	311.250	0	65.3	4	21.5	4	-1E+10	1	-1E+10	1	-1E+10	1	-1E+10	1	-1E+10	1	-1E+10	1
4902549	77	C	09/28/2022	08:56	-131.629	47.214	0	315.10	0	5.7590	0	33.9510	0	26.757	0	312.240	0	65.0	4	21.4	4	-1E+10	1	-1E+10	1	-1E+10	1	-1E+10	1	-1E+10	1	-1E+10	1
4902549	77	C	09/28/2022	08:56	-131.629	47.214	0	316.10	0	5.7610	0	33.9530	0	26.758	0	313.230	0	64.8	4	21.3	4	-1E+10	1	-1E+10	1	-1E+10	1	-1E+10	1	-1E+10	1	-1E+10	1
4902549	77	C	09/28/2022	08:56	-131.629	47.214	0	317.20	0	5.7630	0	33.9530	0	26.758	0	314.320	0	64.5	4	21.2	4	-1E+10	1	-1E+10	1	-1E+10	1	-1E+10	1	-1E+10	1	-1E+10	1
4902549	77	C	09/28/2022	08:56	-131.629	47.214	0	318.20	0	5.7630	0	33.9540	0	26.759	0	315.310	0	64.2	4	21.1	4	-1E+10	1	-1E+10	1	-1E+10	1	-1E+10	1	-1E+10	1	-1E+10	1
4902549	77	C	09/28/2022	08:56	-131.629	47.214	0	319.20	0	5.7630	0	33.9530	0	26.758	0	316.300	0	63.9	4	21.0	4	-1E+10	1	-1E+10	1	-1E+10	1	-1E+10	1	-1E+10	1	-1E+10	1
4902549	77	C	09/28/2022	08:56	-131.629	47.214	0	320.20	0	5.7630	0	33.9530	0	26.758	0	317.290	0	63.6	4	20.9	4	-1E+10	1	-1E+10	1	-1E+10	1	-1E+10	1	-1E+10	1	-1E+10	1
4902549	77	C	09/28/2022	08:56	-131.629	47.214	0	321.20	0	5.7640	0	33.9550	0	26.760	0	318.280	0	63.3	4	20.8	4	-1E+10	1	-1E+10	1	-1E+10	1	-1E+10	1	-1E+10	1	-1E+10	1
4902549	77	C	09/28/2022	08:56	-131.629	47.214	0	322.20	0	5.7670	0	33.9540	0	26.759	0	319.270	0	63.0	4	20.7	4	-1E+10	1	-1E+10	1	-1E+10	1	-1E+10	1	-1E+10	1	-1E+10	1
4902549	77	C	09/28/2022	08:56	-131.629	47.214	0	323.20	0	5.7600	0	33.9570	0	26.762	0	320.261	0	62.7	4	20.6	4	-1E+10	1	-1E+10	1	-1E+10	1	-1E+10	1	-1E+10	1	-1E+10	1
4902549	77	C	09/28/2022	08:56	-131.629	47.214	0	324.20	0	5.7210	0	33.9570	0	26.767	0	321.251	0	62.5	4	20.5	4	-1E+10	1	-1E+10	1	-1E+10	1	-1E+10	1	-1E+10	1	-1E+10	1
4902549	77	C	09/28/2022	08:56	-131.629	47.214	0	325.20	0	5.7230	0	33.9580	0	26.767	0	322.241	0	62.2	4	20.4	4	-1E+10	1	-1E+10	1	-1E+10	1	-1E+10	1	-1E+10	1	-1E+10	1
4902549	77	C	09/28/2022	08:56	-131.629	47.214	0	326.20	0	5.7290	0	33.9580	0	26.766	0	323.231	0	62.0	4	20.4	4	-1E+10	1	-1E+10	1	-1E+10	1	-1E+10	1	-1E+10	1	-1E+10	1
4902549	77	C	09/28/2022	08:56	-131.629	47.214	0	327.30	0	5.7290	0	33.9590	0	26.767	0	324.320	0	61.8	4	20.3	4	-1E+10	1	-1E+10	1	-1E+10	1	-1E+10	1	-1E+10	1	-1E+10	1
4902549	77	C	09/28/2022	08:56	-131.629	47.214	0	328.30	0	5.6840	0	33.9580	0	26.772	0	325.310	0	61.6	4	20.2	4	-1E+10	1	-1E+10	1	-1E+10	1	-1E+10	1	-1E+10	1	-1E+10	1
4902549	77	C	09/28/2022	08:56	-131.629	47.214	0	329.30	0	5.6710	0	33.9590	0	26.774	0	326.300	0	61.4	4	20.1	4	-1E+10	1	-1E+10	1	-1E+10	1	-1E+10	1	-1E+10	1	-1E+10	1
4902549	77	C	09/28/2022	08:56	-131.629	47.214	0	330.30	0	5.6690	0	33.9600	0	26.775	0	327.290	0	61.2	4	20.1	4	-1E+10	1	-1E+10	1	-1E+10	1	-1E+10	1	-1E+10	1	-1E+10	1
4902549	77	C	09/28/2022	08:56	-131.629	47.214	0	331.30	0	5.6700	0	33.9600	0	26.775	0	328.280	0	61.0	4	20.0	4	-1E+10	1	-1E+10	1	-1E+10	1	-1E+10	1	-1E+10	1	-1E+10	1
4902549	77	C	09/28/2022	08:56	-131.629	47.214	0	332.40	0	5.6690	0	33.9610	0	26.776	0	329.370	0	60.7	4	19.9	4	-1E+10	1	-1E+10	1	-1E+10	1	-1E+10	1	-1E+10	1	-1E+10	1
4902549	77	C	09/28/2022	08:56	-131.629	47.214	0	333.40	0	5.6600	0	33.9580	0	26.775	0	330.360	0	60.4	4	19.8	4	-1E+10	1	-1E+10	1	-1E+10	1	-1E+10	1	-1E+10	1	-1E+10	1
4902549	77	C	09/28/2022	08:56	-131.629	47.214	0	334.40	0	5.6540	0	33.9600	0	26.777	0	331.350	0	60.1	4	19.7	4	-1E+10	1	-1E+10	1	-1E+10	1	-1E+10	1	-1E+10	1	-1E+10	1
4902549	77	C	09/28/2022	08:56	-131.629	47.214	0	335.40	0	5.6480	0	33.9600	0	26.778	0	332.340	0	59.8	4	19.6	4	-1E+10	1	-1E+10	1	-1E+10	1	-1E+10	1	-1E+10	1	-1E+10	1
4902549	77	C	09/28/2022	08:56	-131.629	47.214	0	336.40	0	5.6440	0	33.9610	0	26.779	0	333.330	0	59.4	4	19.5	4	-1E+10	1	-1E+10	1	-1E+10	1	-1E+10	1	-1E+10	1	-1E+10	1
4902549	77	C	09/28/2022	08:56	-131.629	47.214	0	337.40	0	5.6330	0	33.9610	0	26.781	0	334.320	0	59.1	4	19.4	4	-1E+10	1	-1E+10	1	-1E+10	1	-1E+10	1	-1E+10	1	-1E+10	1
4902549	77	C	09/28/2022	08:56	-131.629	47.214	0	338.50	0	5.6200	0	33.9600	0	26.781	0	335.409	0	58.6	4	19.2	4	-1E+10	1	-1E+10	1	-1E+10	1	-1E+10	1	-1E+10	1	-1E+10	1
4902549	77	C	09/28/2022	08:56	-131.629	47.214	0	339.50	0	5.5980	0	33.9620	0	26.786	0	336.399	0	58.2	4	19.1	4	-1E+10	1	-1E+10	1	-1E+10	1	-1E+10	1	-1E+10	1	-1E+10	1
4902549	77	C	09/28/2022	08:56	-131.629	47.214	0	340.50	0	5.5880	0	33.9610	0	26.786	0	337.389	0	57.7	4	18.9	4	-1E+10	1	-1E+10	1	-1E+10	1	-1E+10	1	-1E+10	1	-1E+10	1
4902549	77	C	09/28/2022	08:56	-131.629	47.214	0	341.50	0	5.5830	0	33.9620	0	26.787	0	338.379	0	57.3	4	18.8	4	-1E+10	1	-1E+10	1	-1E+10	1	-1E+10	1	-1E+10	1	-1E+10	1
4902549	77	C	09/28/2022	08:56	-131.629	47.214	0	342.50	0	5.5890	0	33.9650	0	26.789	0	339.369	0	56.9	4	18.6	4	-1E+10	1	-1E+10	1	-1E+10	1	-1E+10	1	-1E+10	1	-1E+10	1
4902549	77	C	09/28/2022	08:56	-131.629	47.214	0	343.50	0	5.5940	0	33.9690	0	26.792	0	340.359	0	56.6	4	18.5	4	-1E+10	1	-1E+10	1	-1E+10	1	-1E+10	1	-1E+10	1	-1E+10	1
4902549	77	C	09/28/2022	08:56	-131.629	47.214	0	344.50	0	5.5950	0	33.9690	0	26.791	0	341.349	0	56.3	4	18.4	4	-1E+10	1	-1E+10	1	-1E+10	1	-1E+10	1	-1E+10	1	-1E+10	1
4902549	77	C	09/28/2022	08:56	-131.629	47.214	0	345.60	0	5.6000	0	33.9710	0	26.792	0	342.438	0	55.9	4	18.3	4	-1E+10	1	-1E+10	1	-1E+10	1	-1E+10	1	-1E+10	1	-1E+10	1
4902549	77	C	09/28/2022	08:56	-131.629	47.214	0	346.60	0	5.6020	0	33.9720	0	26.793	0	343.428	0	55.6	4	18.2	4	-1E+10	1	-1E+10	1	-1E+10	1	-1E+10	1	-1E+10	1	-1E+10	1
4902549	77	C	09/28/2022	08:56	-131.629	47.214	0	347.60	0	5.6070	0	33.9730	0	26.793	0	344.418	0	55.3	4	18.1	4	-1E+10	1	-1E+10	1	-1E+10	1	-1E+10	1	-1E+10	1	-1E+10	1
4902549	77	C	09/28/2022	08:56	-131.629	47.214	0	348.70	0	5.6100	0	33.9730	0	26.793	0	345.507	0	55.1	4	18.0	4	-1E+10	1	-1E+10	1	-1E+10	1	-1E+10	1	-1E+10	1	-1E+10	1
4902549	77	C	09/28/2022	08:56	-131.629	47.214	0	349.70	0	5.6050	0	33.9750	0	26.795	0	346.497	0	54.8	4	18.0	4	-1E+10	1	-1E+10	1	-1E+10	1	-1E+10	1	-1E+10	1	-1E+10	1
4902549	77	C	09/28/2022	08:56	-131.629	47.214	0	352.70	0	5.5710	0	33.9780	0	26.802	0	349.467	0	54.2	4	17.7	4	-1E+10	1	-1E+10	1	-1E+10	1	-1E+10	1	-1E+10	1	-1E+10	1
4902549	77	C	09/28/2022	08:56	-131.629	47.214	0	357.80	0	5.5310	0	33.9790	0	26.807	0	354.516	0	53.2	4	17.4	4	-1E+10	1	-1E+10	1	-1E+10	1	-1E+10	1	-1E+10	1	-1E+10	1
4902549	77	C	09/28/2022	08:56	-131.629	47.214	0	362.80	0	5.4960	0	33.9820	0	26.814	0	359.466	0	52.6	4	17.2	4	-1E+10	1	-1E+10	1	-1E+10	1	-1E+10	1	-1E+10	1	-1E+10	1
4902549	77	C	09/28/2022	08:56	-131.629	47.214	0	367.90	0	5.4470	0	33.9810	0	26.819	0	364.515	0	52.1	4	17.0	4	-1E+10	1	-1E+10	1	-1E+10	1	-1E+10	1	-1E+10	1	-1E+10	1
4902549	77	C	09/28/2022	08:56	-131.629	47.214	0	372.80	0	5.4360	0	33.9810	0	26.820	0	369.365	0	51.3	4	16.7	4	-1E+10	1	-1E+10	1	-1E+10	1	-1E+10	1	-1E+10	1	-1E+10	1
4902549	77	C	09/28/2022	08:56	-131.629	47.214	0	377.70	0	5.3700	0	33.9830	0	26.830	0	374.216	0	50.4	4	16.4	4	-1E+10	1	-1E+10	1	-1E+10	1	-1E+10	1	-1E+10	1	-1E+10	1
4902549	77	C	09/28/2022	08:56	-131.629	47.214	0	382.70	0	5.3310	0	33.9860	0	26.837	0	379.165	0	49.4	4	16.1	4	-1E+10	1	-1E+10	1	-1E+10	1	-1E+10	1	-1E+10	1	-1E+10	1
4902549	77	C	09/28/2022	08:56	-131.629	47.214	0	387.70	0	5.3100	0	33.9880	0	26.841	0	384.114	0	48.5	4	15.8	4	-1E+10	1	-1E+10	1	-1E+10	1	-1E+10	1	-1E+10	1	-1E+10	1
4902549	77	C	09/28/2022	08:56	-131.629	47.214	0	392.80	0	5.2940	0	33.9900	0	26.844	0	389.162	0	47.2	4	15.4	4	-1E+10	1	-1E+10	1	-1E+10	1	-1E+10	1	-1E+10	1	-1E+10	1
4902549	77	C	09/28/2022	08:56	-131.629	47.214	0	397.90	0	5.2770	0	33.9960	0	26.851	0	394.210	0	45.8	4	14.9	4	-1E+10	1	-1E+10	1	-1E+10	1	-1E+10	1	-1E+10	1	-1E+10	1
4902549	77	C	09/28/2022	08:56	-131.629	47.214	0	403.00	0	5.2680	0	34.0000	0	26.855	0	399.258	0	44.8	4	14.5	4	-1E+10	1	-1E+10	1	-1E+10	1	-1E+10	1	-1E+10	1	-1E+10	1
4902549	77	C	09/28/2022	08:56	-131.629	47.214	0	408.10	0	5.2440	0	34.0060	0	26.863	0	404.306	0	44.2	4	14.4	4	-1E+10	1	-1E+10	1	-1E+10	1	-1E+10	1	-1E+10	1	-1E+10	1
4902549	77	C	09/28/2022	08:56	-131.629	47.214	0	413.20	0	5.1920	0	34.0060	0	26.869	0	409.353	0	44.3	4	14.4	4	-1E+10	1	-1E+10	1	-1E+10	1	-1E+10	1	-1E+10	1	-1E+10	1
4902549	77	C	09/28/2022	08:56	-131.629	47.214	0	418.20	0	5.1110	0	34.0040	0	26.877	0	414.302	0	44.1	4	14.3	4	-1E+10	1	-1E+10	1	-1E+10	1	-1E+10	1	-1E+10	1	-1E+10	1
4902549	77	C	09/28/2022	08:56	-131.629	47.214	0	423.30	0	5.1000	0	34.0050	0	26.879	0	419.349	0	43.3	4	14.0	4	-1E+10	1	-1E+10	1	-1E+10	1	-1E+10	1	-1E+10	1	-1E+10	1
4902549	77	C	09/28/2022	08:56	-131.629	47.214	0	427.80	0	5.1020	0	34.0080	0	26.881	0	423.802	0	42.3	4	13.7	4	-1E+10	1	-1E+10	1	-1E+10	1	-1E+10	1	-1E+10	1	-1E+10	1
4902549	77	C	09/28/2022	08:56	-131.629	47.214	0	432.70	0	5.0810	0	34.0130	0	26.888	0	428.652	0	41.5	4	13.4	4	-1E+10	1	-1E+10	1	-1E+10	1	-1E+10	1	-1E+10	1	-1E+10	1
4902549	77	C	09/28/2022	08:56	-131.629	47.214	0	437.80	0	5.0300	0	34.0140	0	26.894	0	433.698	0	41.0	4	13.3	4	-1E+10	1	-1E+10	1	-1E+10	1	-1E+10	1	-1E+10	1	-1E+10	1
4902549	77	C	09/28/2022	08:56	-131.629	47.214	0	443.00	0	5.0000	0	34.0150	0	26.898	0	438.844	0	40.0	4	12.9	4	-1E+10	1	-1E+10	1	-1E+10	1	-1E+10	1	-1E+10	1	-1E+10	1
4902549	77	C	09/28/2022	08:56	-131.629	47.214	0	447.90	0	4.9770	0	34.0200	0	26.905	0	443.693	0	38.5	4	12.4	4	-1E+10	1	-1E+10	1	-1E+10	1	-1E+10	1	-1E+10	1	-1E+10	1
4902549	77	C	09/28/2022	08:56	-131.629	47.214	0	452.60	0	4.9730	0	34.0250	0	26.909	0	448.344	0	37.1	4	12.0	4	-1E+10	1	-1E+10	1	-1E+10	1	-1E+10	1	-1E+10	1	-1E+10	1
4902549	77	C	09/28/2022	08:56	-131.629	47.214	0	457.70	0	4.9860	0	34.0320	0	26.914	0	453.390	0	35.8	4	11.6	4	-1E+10	1	-1E+10	1	-1E+10	1	-1E+10	1	-1E+10	1	-1E+10	1
4902549	77	C	09/28/2022	08:56	-131.629	47.214	0	462.80	0	4.9720	0	34.0360	0	26.918	0	458.437	0	35.0	4	11.3	4	-1E+10	1	-1E+10	1	-1E+10	1	-1E+10	1	-1E+10	1	-1E+10	1
4902549	77	C	09/28/2022	08:56	-131.629	47.214	0	468.10	0	4.9520	0	34.0390	0	26.923	0	463.681	0	33.8	4	10.9	4	-1E+10	1	-1E+10	1	-1E+10	1	-1E+10	1	-1E+10	1	-1E+10	1
4902549	77	C	09/28/2022	08:56	-131.629	47.214	0	473.10	0	4.9410	0	34.0440	0	26.928	0	468.628	0	32.8	4	10.6	4	-1E+10	1	-1E+10	1	-1E+10	1	-1E+10	1	-1E+10	1	-1E+10	1
4902549	77	C	09/28/2022	08:56	-131.629	47.214	0	477.80	0	4.9110	0	34.0470	0	26.934	0	473.278	0	32.2	4	10.4	4	-1E+10	1	-1E+10	1	-1E+10	1	-1E+10	1	-1E+10	1	-1E+10	1
4902549	77	C	09/28/2022	08:56	-131.629	47.214	0	482.60	0	4.8800	0	34.0500	0	26.940	0	478.027	0	31.5	4	10.1	4	-1E+10	1	-1E+10	1	-1E+10	1	-1E+10	1	-1E+10	1	-1E+10	1
4902549	77	C	09/28/2022	08:56	-131.629	47.214	0	487.80	0	4.8530	0	34.0530	0	26.946	0	483.172	0	30.6	4	9.9	4	-1E+10	1	-1E+10	1	-1E+10	1	-1E+10	1	-1E+10	1	-1E+10	1
4902549	77	C	09/28/2022	08:56	-131.629	47.214	0	493.20	0	4.8140	0	34.0570	0	26.953	0	488.514	0	29.7	4	9.5	4	-1E+10	1	-1E+10	1	-1E+10	1	-1E+10	1	-1E+10	1	-1E+10	1
4902549	77	C	09/28/2022	08:56	-131.629	47.214	0	498.10	0	4.8040	0	34.0600	0	26.957	0	493.362	0	28.7	4	9.2	4	-1E+10	1	-1E+10	1	-1E+10	1	-1E+10	1	-1E+10	1	-1E+10	1
4902549	77	C	09/28/2022	08:56	-131.629	47.214	0	503.10	0	4.7840	0	34.0660	0	26.964	0	498.308	0	27.6	4	8.9	4	-1E+10	1	-1E+10	1	-1E+10	1	-1E+10	1	-1E+10	1	-1E+10	1
4902549	77	C	09/28/2022	08:56	-131.629	47.214	0	508.00	0	4.7650	0	34.0700	0	26.969	0	503.156	0	26.6	4	8.5	4	-1E+10	1	-1E+10	1	-1E+10	1	-1E+10	1	-1E+10	1	-1E+10	1
4902549	77	C	09/28/2022	08:56	-131.629	47.214	0	513.00	0	4.7210	0	34.0740	0	26.977	0	508.102	0	25.7	4	8.2	4	-1E+10	1	-1E+10	1	-1E+10	1	-1E+10	1	-1E+10	1	-1E+10	1
4902549	77	C	09/28/2022	08:56	-131.629	47.214	0	518.00	0	4.7110	0	34.0790	0	26.982	0	513.048	0	24.7	4	7.9	4	-1E+10	1	-1E+10	1	-1E+10	1	-1E+10	1	-1E+10	1	-1E+10	1
4902549	77	C	09/28/2022	08:56	-131.629	47.214	0	522.90	0	4.6910	0	34.0840	0	26.988	0	517.895	0	23.5	4	7.5	4	-1E+10	1	-1E+10	1	-1E+10	1	-1E+10	1	-1E+10	1	-1E+10	1
4902549	77	C	09/28/2022	08:56	-131.629	47.214	0	527.60	0	4.6900	0	34.0920	0	26.995	0	522.544	0	22.0	4	7.1	4	-1E+10	1	-1E+10	1	-1E+10	1	-1E+10	1	-1E+10	1	-1E+10	1
4902549	77	C	09/28/2022	08:56	-131.629	47.214	0	532.90	0	4.6780	0	34.1010	0	27.003	0	527.787	0	21.3	4	6.8	4	-1E+10	1	-1E+10	1	-1E+10	1	-1E+10	1	-1E+10	1	-1E+10	1
4902549	77	C	09/28/2022	08:56	-131.629	47.214	0	538.10	0	4.6370	0	34.1040	0	27.010	0	532.930	0	20.4	4	6.6	4	-1E+10	1	-1E+10	1	-1E+10	1	-1E+10	1	-1E+10	1	-1E+10	1
4902549	77	C	09/28/2022	08:56	-131.629	47.214	0	542.90	0	4.6270	0	34.1100	0	27.016	0	537.678	0	19.7	4	6.3	4	-1E+10	1	-1E+10	1	-1E+10	1	-1E+10	1	-1E+10	1	-1E+10	1
4902549	77	C	09/28/2022	08:56	-131.629	47.214	0	547.80	0	4.6280	0	34.1150	0	27.020	0	542.524	0	19.1	4	6.1	4	-1E+10	1	-1E+10	1	-1E+10	1	-1E+10	1	-1E+10	1	-1E+10	1
4902549	77	C	09/28/2022	08:56	-131.629	47.214	0	552.70	0	4.6170	0	34.1170	0	27.023	0	547.371	0	18.7	4	6.0	4	-1E+10	1	-1E+10	1	-1E+10	1	-1E+10	1	-1E+10	1	-1E+10	1
4902549	77	C	09/28/2022	08:56	-131.629	47.214	0	557.60	0	4.5900	0	34.1200	0	27.028	0	552.217	0	18.0	4	5.8	4	-1E+10	1	-1E+10	1	-1E+10	1	-1E+10	1	-1E+10	1	-1E+10	1
4902549	77	C	09/28/2022	08:56	-131.629	47.214	0	562.80	0	4.5770	0	34.1250	0	27.034	0	557.360	0	17.5	4	5.6	4	-1E+10	1	-1E+10	1	-1E+10	1	-1E+10	1	-1E+10	1	-1E+10	1
4902549	77	C	09/28/2022	08:56	-131.629	47.214	0	568.20	0	4.5460	0	34.1260	0	27.038	0	562.700	0	17.1	4	5.5	4	-1E+10	1	-1E+10	1	-1E+10	1	-1E+10	1	-1E+10	1	-1E+10	1
4902549	77	C	09/28/2022	08:56	-131.629	47.214	0	573.00	0	4.4920	0	34.1310	0	27.048	0	567.447	0	16.5	4	5.3	4	-1E+10	1	-1E+10	1	-1E+10	1	-1E+10	1	-1E+10	1	-1E+10	1
4902549	77	C	09/28/2022	08:56	-131.629	47.214	0	578.00	0	4.4740	0	34.1340	0	27.052	0	572.392	0	15.8	4	5.0	4	-1E+10	1	-1E+10	1	-1E+10	1	-1E+10	1	-1E+10	1	-1E+10	1
4902549	77	C	09/28/2022	08:56	-131.629	47.214	0	583.00	0	4.4590	0	34.1400	0	27.059	0	577.337	0	15.1	4	4.8	4	-1E+10	1	-1E+10	1	-1E+10	1	-1E+10	1	-1E+10	1	-1E+10	1
4902549	77	C	09/28/2022	08:56	-131.629	47.214	0	588.10	0	4.4520	0	34.1450	0	27.063	0	582.380	0	14.5	4	4.6	4	-1E+10	1	-1E+10	1	-1E+10	1	-1E+10	1	-1E+10	1	-1E+10	1
4902549	77	C	09/28/2022	08:56	-131.629	47.214	0	593.20	0	4.4480	0	34.1510	0	27.069	0	587.423	0	13.9	4	4.4	4	-1E+10	1	-1E+10	1	-1E+10	1	-1E+10	1	-1E+10	1	-1E+10	1
4902549	77	C	09/28/2022	08:56	-131.629	47.214	0	597.90	0	4.4460	0	34.1560	0	27.073	0	592.071	0	13.5	4	4.3	4	-1E+10	1	-1E+10	1	-1E+10	1	-1E+10	1	-1E+10	1	-1E+10	1
4902549	77	C	09/28/2022	08:56	-131.629	47.214	0	602.90	0	4.4460	0	34.1590	0	27.075	0	597.015	0	13.1	4	4.2	4	-1E+10	1	-1E+10	1	-1E+10	1	-1E+10	1	-1E+10	1	-1E+10	1
4902549	77	C	09/28/2022	08:56	-131.629	47.214	0	608.10	0	4.4450	0	34.1640	0	27.079	0	602.156	0	12.5	4	4.0	4	-1E+10	1	-1E+10	1	-1E+10	1	-1E+10	1	-1E+10	1	-1E+10	1
4902549	77	C	09/28/2022	08:56	-131.629	47.214	0	613.00	0	4.4390	0	34.1680	0	27.083	0	607.001	0	12.1	4	3.9	4	-1E+10	1	-1E+10	1	-1E+10	1	-1E+10	1	-1E+10	1	-1E+10	1
4902549	77	C	09/28/2022	08:56	-131.629	47.214	0	618.00	0	4.4090	0	34.1730	0	27.090	0	611.945	0	11.7	4	3.7	4	-1E+10	1	-1E+10	1	-1E+10	1	-1E+10	1	-1E+10	1	-1E+10	1
4902549	77	C	09/28/2022	08:56	-131.629	47.214	0	623.20	0	4.3920	0	34.1770	0	27.095	0	617.086	0	11.4	4	3.6	4	-1E+10	1	-1E+10	1	-1E+10	1	-1E+10	1	-1E+10	1	-1E+10	1
4902549	77	C	09/28/2022	08:56	-131.629	47.214	0	628.00	0	4.3760	0	34.1800	0	27.100	0	621.832	0	11.1	4	3.5	4	-1E+10	1	-1E+10	1	-1E+10	1	-1E+10	1	-1E+10	1	-1E+10	1
4902549	77	C	09/28/2022	08:56	-131.629	47.214	0	632.80	0	4.3630	0	34.1840	0	27.104	0	626.578	0	10.7	4	3.4	4	-1E+10	1	-1E+10	1	-1E+10	1	-1E+10	1	-1E+10	1	-1E+10	1
4902549	77	C	09/28/2022	08:56	-131.629	47.214	0	638.00	0	4.3550	0	34.1890	0	27.109	0	631.719	0	10.4	4	3.3	4	-1E+10	1	-1E+10	1	-1E+10	1	-1E+10	1	-1E+10	1	-1E+10	1
4902549	77	C	09/28/2022	08:56	-131.629	47.214	0	643.20	0	4.3320	0	34.1930	0	27.115	0	636.860	0	10.3	4	3.3	4	-1E+10	1	-1E+10	1	-1E+10	1	-1E+10	1	-1E+10	1	-1E+10	1
4902549	77	C	09/28/2022	08:56	-131.629	47.214	0	648.10	0	4.3090	0	34.1930	0	27.117	0	641.704	0	10.2	4	3.2	4	-1E+10	1	-1E+10	1	-1E+10	1	-1E+10	1	-1E+10	1	-1E+10	1
4902549	77	C	09/28/2022	08:56	-131.629	47.214	0	652.90	0	4.3000	0	34.1960	0	27.120	0	646.449	0	10.1	4	3.2	4	-1E+10	1	-1E+10	1	-1E+10	1	-1E+10	1	-1E+10	1	-1E+10	1
4902549	77	C	09/28/2022	08:56	-131.629	47.214	0	657.90	0	4.2900	0	34.1970	0	27.122	0	651.392	0	9.9	4	3.2	4	-1E+10	1	-1E+10	1	-1E+10	1	-1E+10	1	-1E+10	1	-1E+10	1
4902549	77	C	09/28/2022	08:56	-131.629	47.214	0	662.90	0	4.2720	0	34.1970	0	27.124	0	656.335	0	9.7	4	3.1	4	-1E+10	1	-1E+10	1	-1E+10	1	-1E+10	1	-1E+10	1	-1E+10	1
4902549	77	C	09/28/2022	08:56	-131.629	47.214	0	667.90	0	4.2440	0	34.2020	0	27.131	0	661.277	0	9.4	4	3.0	4	-1E+10	1	-1E+10	1	-1E+10	1	-1E+10	1	-1E+10	1	-1E+10	1
4902549	77	C	09/28/2022	08:56	-131.629	47.214	0	672.50	0	4.2280	0	34.2060	0	27.136	0	665.824	0	9.2	4	2.9	4	-1E+10	1	-1E+10	1	-1E+10	1	-1E+10	1	-1E+10	1	-1E+10	1
4902549	77	C	09/28/2022	08:56	-131.629	47.214	0	677.80	0	4.2160	0	34.2080	0	27.139	0	671.063	0	9.0	4	2.9	4	-1E+10	1	-1E+10	1	-1E+10	1	-1E+10	1	-1E+10	1	-1E+10	1
4902549	77	C	09/28/2022	08:56	-131.629	47.214	0	682.90	0	4.1910	0	34.2120	0	27.145	0	676.104	0	8.8	4	2.8	4	-1E+10	1	-1E+10	1	-1E+10	1	-1E+10	1	-1E+10	1	-1E+10	1
4902549	77	C	09/28/2022	08:56	-131.629	47.214	0	687.70	0	4.1880	0	34.2150	0	27.148	0	680.848	0	8.6	4	2.7	4	-1E+10	1	-1E+10	1	-1E+10	1	-1E+10	1	-1E+10	1	-1E+10	1
4902549	77	C	09/28/2022	08:56	-131.629	47.214	0	693.00	0	4.1630	0	34.2180	0	27.153	0	686.087	0	8.5	4	2.7	4	-1E+10	1	-1E+10	1	-1E+10	1	-1E+10	1	-1E+10	1	-1E+10	1
4902549	77	C	09/28/2022	08:56	-131.629	47.214	0	698.20	0	4.1380	0	34.2200	0	27.157	0	691.226	0	8.3	4	2.6	4	-1E+10	1	-1E+10	1	-1E+10	1	-1E+10	1	-1E+10	1	-1E+10	1
4902549	77	C	09/28/2022	08:56	-131.629	47.214	0	703.00	0	4.1290	0	34.2230	0	27.160	0	695.970	0	8.0	4	2.5	4	-1E+10	1	-1E+10	1	-1E+10	1	-1E+10	1	-1E+10	1	-1E+10	1
4902549	77	C	09/28/2022	08:56	-131.629	47.214	0	707.80	0	4.1460	0	34.2300	0	27.164	0	700.714	0	7.7	4	2.4	4	-1E+10	1	-1E+10	1	-1E+10	1	-1E+10	1	-1E+10	1	-1E+10	1
4902549	77	C	09/28/2022	08:56	-131.629	47.214	0	712.70	0	4.1570	0	34.2340	0	27.166	0	705.557	0	7.7	4	2.4	4	-1E+10	1	-1E+10	1	-1E+10	1	-1E+10	1	-1E+10	1	-1E+10	1
4902549	77	C	09/28/2022	08:56	-131.629	47.214	0	717.50	0	4.1340	0	34.2340	0	27.169	0	710.301	0	7.6	4	2.4	4	-1E+10	1	-1E+10	1	-1E+10	1	-1E+10	1	-1E+10	1	-1E+10	1
4902549	77	C	09/28/2022	08:56	-131.629	47.214	0	722.40	0	4.1080	0	34.2370	0	27.174	0	715.143	0	7.5	4	2.4	4	-1E+10	1	-1E+10	1	-1E+10	1	-1E+10	1	-1E+10	1	-1E+10	1
4902549	77	C	09/28/2022	08:56	-131.629	47.214	0	727.90	0	4.1050	0	34.2380	0	27.175	0	720.578	0	7.3	4	2.3	4	-1E+10	1	-1E+10	1	-1E+10	1	-1E+10	1	-1E+10	1	-1E+10	1
4902549	77	C	09/28/2022	08:56	-131.629	47.214	0	733.30	0	4.0880	0	34.2410	0	27.179	0	725.915	0	7.1	4	2.3	4	-1E+10	1	-1E+10	1	-1E+10	1	-1E+10	1	-1E+10	1	-1E+10	1
4902549	77	C	09/28/2022	08:56	-131.629	47.214	0	738.30	0	4.0590	0	34.2440	0	27.184	0	730.856	0	7.0	4	2.2	4	-1E+10	1	-1E+10	1	-1E+10	1	-1E+10	1	-1E+10	1	-1E+10	1
4902549	77	C	09/28/2022	08:56	-131.629	47.214	0	743.40	0	4.0450	0	34.2490	0	27.190	0	735.895	0	6.8	4	2.1	4	-1E+10	1	-1E+10	1	-1E+10	1	-1E+10	1	-1E+10	1	-1E+10	1
4902549	77	C	09/28/2022	08:56	-131.629	47.214	0	748.40	0	4.0200	0	34.2530	0	27.196	0	740.836	0	6.6	4	2.1	4	-1E+10	1	-1E+10	1	-1E+10	1	-1E+10	1	-1E+10	1	-1E+10	1
4902549	77	C	09/28/2022	08:56	-131.629	47.214	0	753.40	0	3.9890	0	34.2600	0	27.204	0	745.776	0	6.5	4	2.0	4	-1E+10	1	-1E+10	1	-1E+10	1	-1E+10	1	-1E+10	1	-1E+10	1
4902549	77	C	09/28/2022	08:56	-131.629	47.214	0	758.30	0	3.9910	0	34.2630	0	27.207	0	750.618	0	6.4	4	2.0	4	-1E+10	1	-1E+10	1	-1E+10	1	-1E+10	1	-1E+10	1	-1E+10	1
4902549	77	C	09/28/2022	08:56	-131.629	47.214	0	762.90	0	3.9780	0	34.2660	0	27.210	0	755.163	0	6.3	4	2.0	4	-1E+10	1	-1E+10	1	-1E+10	1	-1E+10	1	-1E+10	1	-1E+10	1
4902549	77	C	09/28/2022	08:56	-131.629	47.214	0	767.50	0	3.9720	0	34.2680	0	27.213	0	759.708	0	6.3	4	2.0	4	-1E+10	1	-1E+10	1	-1E+10	1	-1E+10	1	-1E+10	1	-1E+10	1
4902549	77	C	09/28/2022	08:56	-131.629	47.214	0	772.70	0	3.9720	0	34.2690	0	27.213	0	764.846	0	6.2	4	1.9	4	-1E+10	1	-1E+10	1	-1E+10	1	-1E+10	1	-1E+10	1	-1E+10	1
4902549	77	C	09/28/2022	08:56	-131.629	47.214	0	777.80	0	3.9730	0	34.2720	0	27.216	0	769.884	0	6.0	4	1.9	4	-1E+10	1	-1E+10	1	-1E+10	1	-1E+10	1	-1E+10	1	-1E+10	1
4902549	77	C	09/28/2022	08:56	-131.629	47.214	0	783.00	0	3.9510	0	34.2780	0	27.223	0	775.022	0	6.1	4	1.9	4	-1E+10	1	-1E+10	1	-1E+10	1	-1E+10	1	-1E+10	1	-1E+10	1
4902549	77	C	09/28/2022	08:56	-131.629	47.214	0	788.10	0	3.9100	0	34.2780	0	27.227	0	780.060	0	6.1	4	1.9	4	-1E+10	1	-1E+10	1	-1E+10	1	-1E+10	1	-1E+10	1	-1E+10	1
4902549	77	C	09/28/2022	08:56	-131.629	47.214	0	792.90	0	3.8920	0	34.2810	0	27.231	0	784.802	0	6.1	4	1.9	4	-1E+10	1	-1E+10	1	-1E+10	1	-1E+10	1	-1E+10	1	-1E+10	1
4902549	77	C	09/28/2022	08:56	-131.629	47.214	0	797.90	0	3.8780	0	34.2820	0	27.233	0	789.742	0	6.1	4	1.9	4	-1E+10	1	-1E+10	1	-1E+10	1	-1E+10	1	-1E+10	1	-1E+10	1
4902549	77	C	09/28/2022	08:56	-131.629	47.214	0	802.90	0	3.8670	0	34.2840	0	27.236	0	794.681	0	6.1	4	1.9	4	-1E+10	1	-1E+10	1	-1E+10	1	-1E+10	1	-1E+10	1	-1E+10	1
4902549	77	C	09/28/2022	08:56	-131.629	47.214	0	808.00	0	3.8570	0	34.2850	0	27.238	0	799.719	0	6.0	4	1.9	4	-1E+10	1	-1E+10	1	-1E+10	1	-1E+10	1	-1E+10	1	-1E+10	1
4902549	77	C	09/28/2022	08:56	-131.629	47.214	0	813.20	0	3.8510	0	34.2860	0	27.239	0	804.856	0	6.0	4	1.9	4	-1E+10	1	-1E+10	1	-1E+10	1	-1E+10	1	-1E+10	1	-1E+10	1
4902549	77	C	09/28/2022	08:56	-131.629	47.214	0	818.00	0	3.8320	0	34.2890	0	27.244	0	809.597	0	6.0	4	1.9	4	-1E+10	1	-1E+10	1	-1E+10	1	-1E+10	1	-1E+10	1	-1E+10	1
4902549	77	C	09/28/2022	08:56	-131.629	47.214	0	822.90	0	3.8300	0	34.2890	0	27.244	0	814.438	0	6.0	4	1.9	4	-1E+10	1	-1E+10	1	-1E+10	1	-1E+10	1	-1E+10	1	-1E+10	1
4902549	77	C	09/28/2022	08:56	-131.629	47.214	0	827.90	0	3.8230	0	34.2900	0	27.246	0	819.376	0	6.0	4	1.9	4	-1E+10	1	-1E+10	1	-1E+10	1	-1E+10	1	-1E+10	1	-1E+10	1
4902549	77	C	09/28/2022	08:56	-131.629	47.214	0	832.80	0	3.8180	0	34.2910	0	27.247	0	824.216	0	5.9	4	1.9	4	-1E+10	1	-1E+10	1	-1E+10	1	-1E+10	1	-1E+10	1	-1E+10	1
4902549	77	C	09/28/2022	08:56	-131.629	47.214	0	837.70	0	3.8110	0	34.2930	0	27.249	0	829.056	0	5.9	4	1.8	4	-1E+10	1	-1E+10	1	-1E+10	1	-1E+10	1	-1E+10	1	-1E+10	1
4902549	77	C	09/28/2022	08:56	-131.629	47.214	0	842.70	0	3.7990	0	34.2970	0	27.254	0	833.995	0	5.8	4	1.8	4	-1E+10	1	-1E+10	1	-1E+10	1	-1E+10	1	-1E+10	1	-1E+10	1
4902549	77	C	09/28/2022	08:56	-131.629	47.214	0	848.10	0	3.7890	0	34.3000	0	27.257	0	839.328	0	5.8	4	1.8	4	-1E+10	1	-1E+10	1	-1E+10	1	-1E+10	1	-1E+10	1	-1E+10	1
4902549	77	C	09/28/2022	08:56	-131.629	47.214	0	853.10	0	3.7840	0	34.3010	0	27.258	0	844.266	0	5.7	4	1.8	4	-1E+10	1	-1E+10	1	-1E+10	1	-1E+10	1	-1E+10	1	-1E+10	1
4902549	77	C	09/28/2022	08:56	-131.629	47.214	0	858.00	0	3.7720	0	34.3030	0	27.261	0	849.105	0	5.7	4	1.8	4	-1E+10	1	-1E+10	1	-1E+10	1	-1E+10	1	-1E+10	1	-1E+10	1
4902549	77	C	09/28/2022	08:56	-131.629	47.214	0	863.10	0	3.7530	0	34.3070	0	27.266	0	854.142	0	5.6	4	1.8	4	-1E+10	1	-1E+10	1	-1E+10	1	-1E+10	1	-1E+10	1	-1E+10	1
4902549	77	C	09/28/2022	08:56	-131.629	47.214	0	868.10	0	3.7480	0	34.3090	0	27.268	0	859.080	0	5.6	4	1.8	4	-1E+10	1	-1E+10	1	-1E+10	1	-1E+10	1	-1E+10	1	-1E+10	1
4902549	77	C	09/28/2022	08:56	-131.629	47.214	0	873.10	0	3.7390	0	34.3110	0	27.271	0	864.018	0	5.6	4	1.8	4	-1E+10	1	-1E+10	1	-1E+10	1	-1E+10	1	-1E+10	1	-1E+10	1
4902549	77	C	09/28/2022	08:56	-131.629	47.214	0	877.70	0	3.7280	0	34.3130	0	27.274	0	868.560	0	5.6	4	1.8	4	-1E+10	1	-1E+10	1	-1E+10	1	-1E+10	1	-1E+10	1	-1E+10	1
4902549	77	C	09/28/2022	08:56	-131.629	47.214	0	882.70	0	3.7230	0	34.3170	0	27.277	0	873.498	0	5.6	4	1.8	4	-1E+10	1	-1E+10	1	-1E+10	1	-1E+10	1	-1E+10	1	-1E+10	1
4902549	77	C	09/28/2022	08:56	-131.629	47.214	0	887.90	0	3.7140	0	34.3180	0	27.279	0	878.633	0	5.6	4	1.8	4	-1E+10	1	-1E+10	1	-1E+10	1	-1E+10	1	-1E+10	1	-1E+10	1
4902549	77	C	09/28/2022	08:56	-131.629	47.214	0	892.60	0	3.6970	0	34.3190	0	27.282	0	883.274	0	5.7	4	1.8	4	-1E+10	1	-1E+10	1	-1E+10	1	-1E+10	1	-1E+10	1	-1E+10	1
4902549	77	C	09/28/2022	08:56	-131.629	47.214	0	897.70	0	3.6770	0	34.3210	0	27.285	0	888.310	0	5.7	4	1.8	4	-1E+10	1	-1E+10	1	-1E+10	1	-1E+10	1	-1E+10	1	-1E+10	1
4902549	77	C	09/28/2022	08:56	-131.629	47.214	0	902.90	0	3.6620	0	34.3230	0	27.288	0	893.444	0	5.7	4	1.8	4	-1E+10	1	-1E+10	1	-1E+10	1	-1E+10	1	-1E+10	1	-1E+10	1
4902549	77	C	09/28/2022	08:56	-131.629	47.214	0	908.00	0	3.6490	0	34.3250	0	27.291	0	898.480	0	5.7	4	1.8	4	-1E+10	1	-1E+10	1	-1E+10	1	-1E+10	1	-1E+10	1	-1E+10	1
4902549	77	C	09/28/2022	08:56	-131.629	47.214	0	913.10	0	3.6360	0	34.3260	0	27.293	0	903.515	0	5.7	4	1.8	4	-1E+10	1	-1E+10	1	-1E+10	1	-1E+10	1	-1E+10	1	-1E+10	1
4902549	77	C	09/28/2022	08:56	-131.629	47.214	0	917.80	0	3.6240	0	34.3290	0	27.297	0	908.156	0	5.7	4	1.8	4	-1E+10	1	-1E+10	1	-1E+10	1	-1E+10	1	-1E+10	1	-1E+10	1
4902549	77	C	09/28/2022	08:56	-131.629	47.214	0	922.80	0	3.6000	0	34.3330	0	27.302	0	913.092	0	5.8	4	1.8	4	-1E+10	1	-1E+10	1	-1E+10	1	-1E+10	1	-1E+10	1	-1E+10	1
4902549	77	C	09/28/2022	08:56	-131.629	47.214	0	928.00	0	3.5880	0	34.3360	0	27.306	0	918.226	0	5.7	4	1.8	4	-1E+10	1	-1E+10	1	-1E+10	1	-1E+10	1	-1E+10	1	-1E+10	1
4902549	77	C	09/28/2022	08:56	-131.629	47.214	0	933.10	0	3.5840	0	34.3400	0	27.310	0	923.261	0	5.7	4	1.8	4	-1E+10	1	-1E+10	1	-1E+10	1	-1E+10	1	-1E+10	1	-1E+10	1
4902549	77	C	09/28/2022	08:56	-131.629	47.214	0	938.20	0	3.5710	0	34.3470	0	27.316	0	928.296	0	5.7	4	1.8	4	-1E+10	1	-1E+10	1	-1E+10	1	-1E+10	1	-1E+10	1	-1E+10	1
4902549	77	C	09/28/2022	08:56	-131.629	47.214	0	942.90	0	3.5620	0	34.3500	0	27.320	0	932.936	0	5.7	4	1.8	4	-1E+10	1	-1E+10	1	-1E+10	1	-1E+10	1	-1E+10	1	-1E+10	1
4902549	77	C	09/28/2022	08:56	-131.629	47.214	0	947.70	0	3.5470	0	34.3530	0	27.324	0	937.675	0	5.7	4	1.8	4	-1E+10	1	-1E+10	1	-1E+10	1	-1E+10	1	-1E+10	1	-1E+10	1
4902549	77	C	09/28/2022	08:56	-131.629	47.214	0	952.90	0	3.5440	0	34.3550	0	27.326	0	942.808	0	5.8	4	1.8	4	-1E+10	1	-1E+10	1	-1E+10	1	-1E+10	1	-1E+10	1	-1E+10	1
4902549	77	C	09/28/2022	08:56	-131.629	47.214	0	958.20	0	3.5400	0	34.3570	0	27.328	0	948.040	0	5.8	4	1.8	4	-1E+10	1	-1E+10	1	-1E+10	1	-1E+10	1	-1E+10	1	-1E+10	1
4902549	77	C	09/28/2022	08:56	-131.629	47.214	0	962.90	0	3.5320	0	34.3580	0	27.329	0	952.679	0	5.8	4	1.8	4	-1E+10	1	-1E+10	1	-1E+10	1	-1E+10	1	-1E+10	1	-1E+10	1
4902549	77	C	09/28/2022	08:56	-131.629	47.214	0	967.60	0	3.5220	0	34.3600	0	27.332	0	957.319	0	5.8	4	1.8	4	-1E+10	1	-1E+10	1	-1E+10	1	-1E+10	1	-1E+10	1	-1E+10	1
4902549	77	C	09/28/2022	08:56	-131.629	47.214	0	972.80	0	3.5130	0	34.3610	0	27.333	0	962.451	0	5.9	4	1.8	4	-1E+10	1	-1E+10	1	-1E+10	1	-1E+10	1	-1E+10	1	-1E+10	1
4902549	77	C	09/28/2022	08:56	-131.629	47.214	0	978.10	0	3.5040	0	34.3610	0	27.334	0	967.683	0	5.9	4	1.8	4	-1E+10	1	-1E+10	1	-1E+10	1	-1E+10	1	-1E+10	1	-1E+10	1
4902549	77	C	09/28/2022	08:56	-131.629	47.214	0	982.90	0	3.4920	0	34.3620	0	27.336	0	972.421	0	5.9	4	1.9	4	-1E+10	1	-1E+10	1	-1E+10	1	-1E+10	1	-1E+10	1	-1E+10	1
4902549	77	C	09/28/2022	08:56	-131.629	47.214	0	987.70	0	3.4820	0	34.3630	0	27.338	0	977.158	0	6.0	4	1.9	4	-1E+10	1	-1E+10	1	-1E+10	1	-1E+10	1	-1E+10	1	-1E+10	1
4902549	77	C	09/28/2022	08:56	-131.629	47.214	0	992.50	0	3.4730	0	34.3640	0	27.340	0	981.896	0	6.0	4	1.9	4	-1E+10	1	-1E+10	1	-1E+10	1	-1E+10	1	-1E+10	1	-1E+10	1
4902549	77	C	09/28/2022	08:56	-131.629	47.214	0	997.90	0	3.4570	0	34.3660	0	27.343	0	987.225	0	6.1	4	1.9	4	-1E+10	1	-1E+10	1	-1E+10	1	-1E+10	1	-1E+10	1	-1E+10	1
4902549	77	C	09/28/2022	08:56	-131.629	47.214	0	1005.70	0	3.4480	0	34.3670	0	27.345	0	994.923	0	6.1	4	1.9	4	-1E+10	1	-1E+10	1	-1E+10	1	-1E+10	1	-1E+10	1	-1E+10	1
4902549	77	C	09/28/2022	08:56	-131.629	47.214	0	1015.50	0	3.4360	0	34.3670	0	27.346	0	1004.595	0	6.2	4	1.9	4	-1E+10	1	-1E+10	1	-1E+10	1	-1E+10	1	-1E+10	1	-1E+10	1
4902549	77	C	09/28/2022	08:56	-131.629	47.214	0	1025.40	0	3.4140	0	34.3700	0	27.350	0	1014.365	0	6.2	4	1.9	4	-1E+10	1	-1E+10	1	-1E+10	1	-1E+10	1	-1E+10	1	-1E+10	1
4902549	77	C	09/28/2022	08:56	-131.629	47.214	0	1035.50	0	3.3990	0	34.3730	0	27.354	0	1024.331	0	6.3	4	2.0	4	-1E+10	1	-1E+10	1	-1E+10	1	-1E+10	1	-1E+10	1	-1E+10	1
4902549	77	C	09/28/2022	08:56	-131.629	47.214	0	1045.60	0	3.3800	0	34.3750	0	27.358	0	1034.297	0	6.4	4	2.0	4	-1E+10	1	-1E+10	1	-1E+10	1	-1E+10	1	-1E+10	1	-1E+10	1
4902549	77	C	09/28/2022	08:56	-131.629	47.214	0	1055.70	0	3.3330	0	34.3780	0	27.365	0	1044.263	0	6.6	4	2.1	4	-1E+10	1	-1E+10	1	-1E+10	1	-1E+10	1	-1E+10	1	-1E+10	1
4902549	77	C	09/28/2022	08:56	-131.629	47.214	0	1065.20	0	3.2880	0	34.3840	0	27.374	0	1053.636	0	6.8	4	2.1	4	-1E+10	1	-1E+10	1	-1E+10	1	-1E+10	1	-1E+10	1	-1E+10	1
4902549	77	C	09/28/2022	08:56	-131.629	47.214	0	1075.10	0	3.2700	0	34.3920	0	27.382	0	1063.404	0	7.0	4	2.2	4	-1E+10	1	-1E+10	1	-1E+10	1	-1E+10	1	-1E+10	1	-1E+10	1
4902549	77	C	09/28/2022	08:56	-131.629	47.214	0	1085.50	0	3.2460	0	34.3950	0	27.387	0	1073.664	0	7.2	4	2.2	4	-1E+10	1	-1E+10	1	-1E+10	1	-1E+10	1	-1E+10	1	-1E+10	1
4902549	77	C	09/28/2022	08:56	-131.629	47.214	0	1095.80	0	3.2340	0	34.3990	0	27.391	0	1083.825	0	7.3	4	2.3	4	-1E+10	1	-1E+10	1	-1E+10	1	-1E+10	1	-1E+10	1	-1E+10	1
4902549	77	C	09/28/2022	08:56	-131.629	47.214	0	1105.40	0	3.2240	0	34.4010	0	27.394	0	1093.295	0	7.5	4	2.3	4	-1E+10	1	-1E+10	1	-1E+10	1	-1E+10	1	-1E+10	1	-1E+10	1
4902549	77	C	09/28/2022	08:56	-131.629	47.214	0	1115.30	0	3.1920	0	34.4050	0	27.400	0	1103.061	0	7.8	4	2.4	4	-1E+10	1	-1E+10	1	-1E+10	1	-1E+10	1	-1E+10	1	-1E+10	1
4902549	77	C	09/28/2022	08:56	-131.629	47.214	0	1125.40	0	3.1520	0	34.4100	0	27.407	0	1113.023	0	7.9	4	2.4	4	-1E+10	1	-1E+10	1	-1E+10	1	-1E+10	1	-1E+10	1	-1E+10	1
4902549	77	C	09/28/2022	08:56	-131.629	47.214	0	1135.10	0	3.1250	0	34.4110	0	27.411	0	1122.591	0	8.1	4	2.5	4	-1E+10	1	-1E+10	1	-1E+10	1	-1E+10	1	-1E+10	1	-1E+10	1
4902549	77	C	09/28/2022	08:56	-131.629	47.214	0	1145.10	0	3.1010	0	34.4150	0	27.416	0	1132.454	0	8.2	4	2.6	4	-1E+10	1	-1E+10	1	-1E+10	1	-1E+10	1	-1E+10	1	-1E+10	1
4902549	77	C	09/28/2022	08:56	-131.629	47.214	0	1155.10	0	3.0800	0	34.4180	0	27.421	0	1142.316	0	8.4	4	2.6	4	-1E+10	1	-1E+10	1	-1E+10	1	-1E+10	1	-1E+10	1	-1E+10	1
4902549	77	C	09/28/2022	08:56	-131.629	47.214	0	1165.00	0	3.0660	0	34.4190	0	27.423	0	1152.079	0	8.5	4	2.6	4	-1E+10	1	-1E+10	1	-1E+10	1	-1E+10	1	-1E+10	1	-1E+10	1
4902549	77	C	09/28/2022	08:56	-131.629	47.214	0	1175.10	0	3.0480	0	34.4210	0	27.426	0	1162.039	0	8.7	4	2.7	4	-1E+10	1	-1E+10	1	-1E+10	1	-1E+10	1	-1E+10	1	-1E+10	1
4902549	77	C	09/28/2022	08:56	-131.629	47.214	0	1185.40	0	3.0290	0	34.4230	0	27.429	0	1172.196	0	8.8	4	2.7	4	-1E+10	1	-1E+10	1	-1E+10	1	-1E+10	1	-1E+10	1	-1E+10	1
4902549	77	C	09/28/2022	08:56	-131.629	47.214	0	1195.60	0	3.0050	0	34.4260	0	27.434	0	1182.254	0	9.1	4	2.8	4	-1E+10	1	-1E+10	1	-1E+10	1	-1E+10	1	-1E+10	1	-1E+10	1
4902549	77	C	09/28/2022	08:56	-131.629	47.214	0	1205.60	0	2.9570	0	34.4300	0	27.442	0	1192.114	0	9.5	4	2.9	4	-1E+10	1	-1E+10	1	-1E+10	1	-1E+10	1	-1E+10	1	-1E+10	1
4902549	77	C	09/28/2022	08:56	-131.629	47.214	0	1215.60	0	2.9440	0	34.4340	0	27.446	0	1201.973	0	9.7	4	3.0	4	-1E+10	1	-1E+10	1	-1E+10	1	-1E+10	1	-1E+10	1	-1E+10	1
4902549	77	C	09/28/2022	08:56	-131.629	47.214	0	1225.70	0	2.9250	0	34.4370	0	27.450	0	1211.931	0	9.9	4	3.0	4	-1E+10	1	-1E+10	1	-1E+10	1	-1E+10	1	-1E+10	1	-1E+10	1
4902549	77	C	09/28/2022	08:56	-131.629	47.214	0	1235.50	0	2.9060	0	34.4390	0	27.453	0	1221.593	0	10.1	4	3.1	4	-1E+10	1	-1E+10	1	-1E+10	1	-1E+10	1	-1E+10	1	-1E+10	1
4902549	77	C	09/28/2022	08:56	-131.629	47.214	0	1245.50	0	2.8940	0	34.4410	0	27.456	0	1231.451	0	10.3	4	3.2	4	-1E+10	1	-1E+10	1	-1E+10	1	-1E+10	1	-1E+10	1	-1E+10	1
4902549	77	C	09/28/2022	08:56	-131.629	47.214	0	1255.20	0	2.8710	0	34.4430	0	27.460	0	1241.013	0	10.5	4	3.2	4	-1E+10	1	-1E+10	1	-1E+10	1	-1E+10	1	-1E+10	1	-1E+10	1
4902549	77	C	09/28/2022	08:56	-131.629	47.214	0	1265.10	0	2.8600	0	34.4450	0	27.462	0	1250.772	0	10.8	4	3.3	4	-1E+10	1	-1E+10	1	-1E+10	1	-1E+10	1	-1E+10	1	-1E+10	1
4902549	77	C	09/28/2022	08:56	-131.629	47.214	0	1275.00	0	2.8490	0	34.4470	0	27.465	0	1260.530	0	11.0	4	3.4	4	-1E+10	1	-1E+10	1	-1E+10	1	-1E+10	1	-1E+10	1	-1E+10	1
4902549	77	C	09/28/2022	08:56	-131.629	47.214	0	1285.10	0	2.8350	0	34.4490	0	27.468	0	1270.485	0	11.4	4	3.5	4	-1E+10	1	-1E+10	1	-1E+10	1	-1E+10	1	-1E+10	1	-1E+10	1
4902549	77	C	09/28/2022	08:56	-131.629	47.214	0	1295.30	0	2.8120	0	34.4540	0	27.474	0	1280.538	0	11.8	4	3.6	4	-1E+10	1	-1E+10	1	-1E+10	1	-1E+10	1	-1E+10	1	-1E+10	1
4902549	77	C	09/28/2022	08:56	-131.629	47.214	0	1305.20	0	2.8040	0	34.4550	0	27.476	0	1290.295	0	12.0	4	3.7	4	-1E+10	1	-1E+10	1	-1E+10	1	-1E+10	1	-1E+10	1	-1E+10	1
4902549	77	C	09/28/2022	08:56	-131.629	47.214	0	1315.10	0	2.7880	0	34.4580	0	27.479	0	1300.051	0	12.4	4	3.8	4	-1E+10	1	-1E+10	1	-1E+10	1	-1E+10	1	-1E+10	1	-1E+10	1
4902549	77	C	09/28/2022	08:56	-131.629	47.214	0	1325.20	0	2.7810	0	34.4600	0	27.482	0	1310.004	0	12.7	4	3.9	4	-1E+10	1	-1E+10	1	-1E+10	1	-1E+10	1	-1E+10	1	-1E+10	1
4902549	77	C	09/28/2022	08:56	-131.629	47.214	0	1335.50	0	2.7640	0	34.4640	0	27.487	0	1320.154	0	13.2	4	4.1	4	-1E+10	1	-1E+10	1	-1E+10	1	-1E+10	1	-1E+10	1	-1E+10	1
4902549	77	C	09/28/2022	08:56	-131.629	47.214	0	1345.40	0	2.7500	0	34.4660	0	27.489	0	1329.909	0	13.5	4	4.1	4	-1E+10	1	-1E+10	1	-1E+10	1	-1E+10	1	-1E+10	1	-1E+10	1
4902549	77	C	09/28/2022	08:56	-131.629	47.214	0	1355.30	0	2.7370	0	34.4680	0	27.492	0	1339.663	0	13.8	4	4.2	4	-1E+10	1	-1E+10	1	-1E+10	1	-1E+10	1	-1E+10	1	-1E+10	1
4902549	77	C	09/28/2022	08:56	-131.629	47.214	0	1365.50	0	2.7280	0	34.4690	0	27.494	0	1349.713	0	14.2	4	4.4	4	-1E+10	1	-1E+10	1	-1E+10	1	-1E+10	1	-1E+10	1	-1E+10	1
4902549	77	C	09/28/2022	08:56	-131.629	47.214	0	1375.40	0	2.7080	0	34.4730	0	27.499	0	1359.467	0	14.8	4	4.5	4	-1E+10	1	-1E+10	1	-1E+10	1	-1E+10	1	-1E+10	1	-1E+10	1
4902549	77	C	09/28/2022	08:56	-131.629	47.214	0	1385.50	0	2.6810	0	34.4770	0	27.504	0	1369.417	0	15.3	4	4.7	4	-1E+10	1	-1E+10	1	-1E+10	1	-1E+10	1	-1E+10	1	-1E+10	1
4902549	77	C	09/28/2022	08:56	-131.629	47.214	0	1395.80	0	2.6630	0	34.4790	0	27.508	0	1379.564	0	15.7	4	4.8	4	-1E+10	1	-1E+10	1	-1E+10	1	-1E+10	1	-1E+10	1	-1E+10	1
4902549	77	C	09/28/2022	08:56	-131.629	47.214	0	1405.50	0	2.6430	0	34.4810	0	27.511	0	1389.119	0	16.2	4	5.0	4	-1E+10	1	-1E+10	1	-1E+10	1	-1E+10	1	-1E+10	1	-1E+10	1
4902549	77	C	09/28/2022	08:56	-131.629	47.214	0	1415.50	0	2.6220	0	34.4840	0	27.515	0	1398.969	0	16.6	4	5.1	4	-1E+10	1	-1E+10	1	-1E+10	1	-1E+10	1	-1E+10	1	-1E+10	1
4902549	77	C	09/28/2022	08:56	-131.629	47.214	0	1425.40	0	2.6060	0	34.4860	0	27.518	0	1408.721	0	17.0	4	5.2	4	-1E+10	1	-1E+10	1	-1E+10	1	-1E+10	1	-1E+10	1	-1E+10	1
4902549	77	C	09/28/2022	08:56	-131.629	47.214	0	1435.50	0	2.5910	0	34.4870	0	27.520	0	1418.668	0	17.3	4	5.3	4	-1E+10	1	-1E+10	1	-1E+10	1	-1E+10	1	-1E+10	1	-1E+10	1
4902549	77	C	09/28/2022	08:56	-131.629	47.214	0	1446.00	0	2.5690	0	34.4900	0	27.525	0	1429.010	0	17.6	4	5.4	4	-1E+10	1	-1E+10	1	-1E+10	1	-1E+10	1	-1E+10	1	-1E+10	1
4902549	77	C	09/28/2022	08:56	-131.629	47.214	0	1455.50	0	2.5560	0	34.4900	0	27.526	0	1438.366	0	17.7	4	5.4	4	-1E+10	1	-1E+10	1	-1E+10	1	-1E+10	1	-1E+10	1	-1E+10	1
4902549	77	C	09/28/2022	08:56	-131.629	47.214	0	1465.60	0	2.5470	0	34.4910	0	27.527	0	1448.312	0	18.1	4	5.5	4	-1E+10	1	-1E+10	1	-1E+10	1	-1E+10	1	-1E+10	1	-1E+10	1
4902549	77	C	09/28/2022	08:56	-131.629	47.214	0	1475.70	0	2.5270	0	34.4930	0	27.531	0	1458.258	0	18.7	4	5.7	4	-1E+10	1	-1E+10	1	-1E+10	1	-1E+10	1	-1E+10	1	-1E+10	1
4902549	77	C	09/28/2022	08:56	-131.629	47.214	0	1485.60	0	2.5120	0	34.4960	0	27.534	0	1468.007	0	19.1	4	5.8	4	-1E+10	1	-1E+10	1	-1E+10	1	-1E+10	1	-1E+10	1	-1E+10	1
4902549	77	C	09/28/2022	08:56	-131.629	47.214	0	1495.40	0	2.5040	0	34.4970	0	27.536	0	1477.657	0	19.5	4	6.0	4	-1E+10	1	-1E+10	1	-1E+10	1	-1E+10	1	-1E+10	1	-1E+10	1
4902549	77	C	09/28/2022	08:56	-131.629	47.214	0	1505.50	0	2.4860	0	34.4990	0	27.539	0	1487.601	0	20.1	4	6.1	4	-1E+10	1	-1E+10	1	-1E+10	1	-1E+10	1	-1E+10	1	-1E+10	1
4902549	77	C	09/28/2022	08:56	-131.629	47.214	0	1515.60	0	2.4720	0	34.5010	0	27.542	0	1497.545	0	20.7	4	6.3	4	-1E+10	1	-1E+10	1	-1E+10	1	-1E+10	1	-1E+10	1	-1E+10	1
4902549	77	C	09/28/2022	08:56	-131.629	47.214	0	1525.70	0	2.4520	0	34.5030	0	27.545	0	1507.489	0	21.1	4	6.4	4	-1E+10	1	-1E+10	1	-1E+10	1	-1E+10	1	-1E+10	1	-1E+10	1
4902549	77	C	09/28/2022	08:56	-131.629	47.214	0	1535.50	0	2.4330	0	34.5050	0	27.549	0	1517.137	0	21.7	4	6.6	4	-1E+10	1	-1E+10	1	-1E+10	1	-1E+10	1	-1E+10	1	-1E+10	1
4902549	77	C	09/28/2022	08:56	-131.629	47.214	0	1545.50	0	2.4050	0	34.5080	0	27.553	0	1526.981	0	22.7	4	6.9	4	-1E+10	1	-1E+10	1	-1E+10	1	-1E+10	1	-1E+10	1	-1E+10	1
4902549	77	C	09/28/2022	08:56	-131.629	47.214	0	1555.60	0	2.3780	0	34.5110	0	27.558	0	1536.924	0	23.4	4	7.1	4	-1E+10	1	-1E+10	1	-1E+10	1	-1E+10	1	-1E+10	1	-1E+10	1
4902549	77	C	09/28/2022	08:56	-131.629	47.214	0	1565.60	0	2.3530	0	34.5130	0	27.562	0	1546.767	0	24.2	4	7.3	4	-1E+10	1	-1E+10	1	-1E+10	1	-1E+10	1	-1E+10	1	-1E+10	1
4902549	77	C	09/28/2022	08:56	-131.629	47.214	0	1575.40	0	2.3310	0	34.5160	0	27.566	0	1556.413	0	25.0	4	7.6	4	-1E+10	1	-1E+10	1	-1E+10	1	-1E+10	1	-1E+10	1	-1E+10	1
4902549	77	C	09/28/2022	08:56	-131.629	47.214	0	1585.30	0	2.3160	0	34.5190	0	27.570	0	1566.157	0	25.8	4	7.8	4	-1E+10	1	-1E+10	1	-1E+10	1	-1E+10	1	-1E+10	1	-1E+10	1
4902549	77	C	09/28/2022	08:56	-131.629	47.214	0	1595.30	0	2.3100	0	34.5220	0	27.572	0	1575.999	0	26.2	4	8.0	4	-1E+10	1	-1E+10	1	-1E+10	1	-1E+10	1	-1E+10	1	-1E+10	1
4902549	77	C	09/28/2022	08:56	-131.629	47.214	0	1605.20	0	2.3040	0	34.5230	0	27.574	0	1585.742	0	26.7	4	8.1	4	-1E+10	1	-1E+10	1	-1E+10	1	-1E+10	1	-1E+10	1	-1E+10	1
4902549	77	C	09/28/2022	08:56	-131.629	47.214	0	1615.30	0	2.2930	0	34.5250	0	27.576	0	1595.682	0	27.2	4	8.2	4	-1E+10	1	-1E+10	1	-1E+10	1	-1E+10	1	-1E+10	1	-1E+10	1
4902549	77	C	09/28/2022	08:56	-131.629	47.214	0	1625.60	0	2.2830	0	34.5260	0	27.578	0	1605.818	0	27.5	4	8.3	4	-1E+10	1	-1E+10	1	-1E+10	1	-1E+10	1	-1E+10	1	-1E+10	1
4902549	77	C	09/28/2022	08:56	-131.629	47.214	0	1635.40	0	2.2730	0	34.5280	0	27.581	0	1615.461	0	28.1	4	8.5	4	-1E+10	1	-1E+10	1	-1E+10	1	-1E+10	1	-1E+10	1	-1E+10	1
4902549	77	C	09/28/2022	08:56	-131.629	47.214	0	1645.40	0	2.2690	0	34.5290	0	27.582	0	1625.301	0	28.4	4	8.6	4	-1E+10	1	-1E+10	1	-1E+10	1	-1E+10	1	-1E+10	1	-1E+10	1
4902549	77	C	09/28/2022	08:56	-131.629	47.214	0	1655.90	0	2.2590	0	34.5300	0	27.583	0	1635.632	0	28.9	4	8.8	4	-1E+10	1	-1E+10	1	-1E+10	1	-1E+10	1	-1E+10	1	-1E+10	1
4902549	77	C	09/28/2022	08:56	-131.629	47.214	0	1665.70	0	2.2510	0	34.5310	0	27.585	0	1645.274	0	29.4	4	8.9	4	-1E+10	1	-1E+10	1	-1E+10	1	-1E+10	1	-1E+10	1	-1E+10	1
4902549	77	C	09/28/2022	08:56	-131.629	47.214	0	1675.30	0	2.2340	0	34.5330	0	27.588	0	1654.719	0	30.2	4	9.2	4	-1E+10	1	-1E+10	1	-1E+10	1	-1E+10	1	-1E+10	1	-1E+10	1
4902549	77	C	09/28/2022	08:56	-131.629	47.214	0	1685.40	0	2.2170	0	34.5350	0	27.591	0	1664.655	0	31.1	4	9.4	4	-1E+10	1	-1E+10	1	-1E+10	1	-1E+10	1	-1E+10	1	-1E+10	1
4902549	77	C	09/28/2022	08:56	-131.629	47.214	0	1695.70	0	2.2010	0	34.5380	0	27.595	0	1674.788	0	31.7	4	9.6	4	-1E+10	1	-1E+10	1	-1E+10	1	-1E+10	1	-1E+10	1	-1E+10	1
4902549	77	C	09/28/2022	08:56	-131.629	47.214	0	1705.30	0	2.1960	0	34.5390	0	27.596	0	1684.232	0	32.2	4	9.8	4	-1E+10	1	-1E+10	1	-1E+10	1	-1E+10	1	-1E+10	1	-1E+10	1
4902549	77	C	09/28/2022	08:56	-131.629	47.214	0	1715.10	0	2.1840	0	34.5400	0	27.598	0	1693.871	0	33.0	4	10.0	4	-1E+10	1	-1E+10	1	-1E+10	1	-1E+10	1	-1E+10	1	-1E+10	1
4902549	77	C	09/28/2022	08:56	-131.629	47.214	0	1725.50	0	2.1740	0	34.5420	0	27.600	0	1704.101	0	33.6	4	10.2	4	-1E+10	1	-1E+10	1	-1E+10	1	-1E+10	1	-1E+10	1	-1E+10	1
4902549	77	C	09/28/2022	08:56	-131.629	47.214	0	1735.40	0	2.1680	0	34.5440	0	27.602	0	1713.838	0	34.2	4	10.4	4	-1E+10	1	-1E+10	1	-1E+10	1	-1E+10	1	-1E+10	1	-1E+10	1
4902549	77	C	09/28/2022	08:56	-131.629	47.214	0	1745.50	0	2.1590	0	34.5460	0	27.605	0	1723.772	0	34.9	4	10.6	4	-1E+10	1	-1E+10	1	-1E+10	1	-1E+10	1	-1E+10	1	-1E+10	1
4902549	77	C	09/28/2022	08:56	-131.629	47.214	0	1755.60	0	2.1480	0	34.5470	0	27.606	0	1733.705	0	35.4	4	10.7	4	-1E+10	1	-1E+10	1	-1E+10	1	-1E+10	1	-1E+10	1	-1E+10	1
4902549	77	C	09/28/2022	08:56	-131.629	47.214	0	1765.20	0	2.1400	0	34.5490	0	27.609	0	1743.145	0	35.9	4	10.9	4	-1E+10	1	-1E+10	1	-1E+10	1	-1E+10	1	-1E+10	1	-1E+10	1
4902549	77	C	09/28/2022	08:56	-131.629	47.214	0	1775.40	0	2.1340	0	34.5500	0	27.610	0	1753.176	0	36.5	4	11.0	4	-1E+10	1	-1E+10	1	-1E+10	1	-1E+10	1	-1E+10	1	-1E+10	1
4902549	77	C	09/28/2022	08:56	-131.629	47.214	0	1785.80	0	2.1260	0	34.5520	0	27.612	0	1763.403	0	37.3	4	11.3	4	-1E+10	1	-1E+10	1	-1E+10	1	-1E+10	1	-1E+10	1	-1E+10	1
4902549	77	C	09/28/2022	08:56	-131.629	47.214	0	1795.70	0	2.1150	0	34.5540	0	27.615	0	1773.137	0	37.9	4	11.4	4	-1E+10	1	-1E+10	1	-1E+10	1	-1E+10	1	-1E+10	1	-1E+10	1
4902549	77	C	09/28/2022	08:56	-131.629	47.214	0	1805.70	0	2.1090	0	34.5550	0	27.616	0	1782.970	0	38.3	4	11.6	4	-1E+10	1	-1E+10	1	-1E+10	1	-1E+10	1	-1E+10	1	-1E+10	1
4902549	77	C	09/28/2022	08:56	-131.629	47.214	0	1815.60	0	2.1070	0	34.5560	0	27.617	0	1792.703	0	38.6	4	11.7	4	-1E+10	1	-1E+10	1	-1E+10	1	-1E+10	1	-1E+10	1	-1E+10	1
4902549	77	C	09/28/2022	08:56	-131.629	47.214	0	1825.70	0	2.1020	0	34.5570	0	27.618	0	1802.633	0	39.1	4	11.8	4	-1E+10	1	-1E+10	1	-1E+10	1	-1E+10	1	-1E+10	1	-1E+10	1
4902549	77	C	09/28/2022	08:56	-131.629	47.214	0	1836.00	0	2.0910	0	34.5580	0	27.620	0	1812.759	0	39.5	4	11.9	4	-1E+10	1	-1E+10	1	-1E+10	1	-1E+10	1	-1E+10	1	-1E+10	1
4902549	77	C	09/28/2022	08:56	-131.629	47.214	0	1845.40	0	2.0880	0	34.5590	0	27.621	0	1822.000	0	39.9	4	12.0	4	-1E+10	1	-1E+10	1	-1E+10	1	-1E+10	1	-1E+10	1	-1E+10	1
4902549	77	C	09/28/2022	08:56	-131.629	47.214	0	1855.10	0	2.0790	0	34.5600	0	27.623	0	1831.535	0	40.6	4	12.3	4	-1E+10	1	-1E+10	1	-1E+10	1	-1E+10	1	-1E+10	1	-1E+10	1
4902549	77	C	09/28/2022	08:56	-131.629	47.214	0	1865.10	0	2.0690	0	34.5610	0	27.624	0	1841.365	0	41.5	4	12.5	4	-1E+10	1	-1E+10	1	-1E+10	1	-1E+10	1	-1E+10	1	-1E+10	1
4902549	77	C	09/28/2022	08:56	-131.629	47.214	0	1875.20	0	2.0590	0	34.5640	0	27.628	0	1851.292	0	42.6	4	12.9	4	-1E+10	1	-1E+10	1	-1E+10	1	-1E+10	1	-1E+10	1	-1E+10	1
4902549	77	C	09/28/2022	08:56	-131.629	47.214	0	1885.50	0	2.0530	0	34.5670	0	27.631	0	1861.416	0	43.2	4	13.0	4	-1E+10	1	-1E+10	1	-1E+10	1	-1E+10	1	-1E+10	1	-1E+10	1
4902549	77	C	09/28/2022	08:56	-131.629	47.214	0	1895.70	0	2.0510	0	34.5670	0	27.631	0	1871.441	0	43.6	4	13.2	4	-1E+10	1	-1E+10	1	-1E+10	1	-1E+10	1	-1E+10	1	-1E+10	1
4902549	77	C	09/28/2022	08:56	-131.629	47.214	0	1905.50	0	2.0420	0	34.5680	0	27.632	0	1881.072	0	44.2	4	13.4	4	-1E+10	1	-1E+10	1	-1E+10	1	-1E+10	1	-1E+10	1	-1E+10	1
4902549	77	C	09/28/2022	08:56	-131.629	47.214	0	1915.30	0	2.0340	0	34.5700	0	27.635	0	1890.703	0	44.7	4	13.5	4	-1E+10	1	-1E+10	1	-1E+10	1	-1E+10	1	-1E+10	1	-1E+10	1
4902549	77	C	09/28/2022	08:56	-131.629	47.214	0	1925.10	0	2.0300	0	34.5710	0	27.636	0	1900.333	0	45.0	4	13.6	4	-1E+10	1	-1E+10	1	-1E+10	1	-1E+10	1	-1E+10	1	-1E+10	1
4902549	77	C	09/28/2022	08:56	-131.629	47.214	0	1935.00	0	2.0250	0	34.5710	0	27.636	0	1910.062	0	45.6	4	13.8	4	-1E+10	1	-1E+10	1	-1E+10	1	-1E+10	1	-1E+10	1	-1E+10	1
4902549	77	C	09/28/2022	08:56	-131.629	47.214	0	1945.00	0	2.0140	0	34.5730	0	27.639	0	1919.888	0	46.4	4	14.0	4	-1E+10	1	-1E+10	1	-1E+10	1	-1E+10	1	-1E+10	1	-1E+10	1
4902549	77	C	09/28/2022	08:56	-131.629	47.214	0	1955.30	0	2.0050	0	34.5750	0	27.641	0	1930.008	0	46.8	4	14.1	4	-1E+10	1	-1E+10	1	-1E+10	1	-1E+10	1	-1E+10	1	-1E+10	1
4902549	77	C	09/28/2022	08:56	-131.629	47.214	0	1965.20	0	2.0010	0	34.5750	0	27.642	0	1939.735	0	47.3	4	14.3	4	-1E+10	1	-1E+10	1	-1E+10	1	-1E+10	1	-1E+10	1	-1E+10	1
4902549	77	C	09/28/2022	08:56	-131.629	47.214	0	1975.10	0	1.9940	0	34.5760	0	27.643	0	1949.461	0	47.9	4	14.4	4	-1E+10	1	-1E+10	1	-1E+10	1	-1E+10	1	-1E+10	1	-1E+10	1
4902549	77	C	09/28/2022	08:56	-131.629	47.214	0	1985.50	0	1.9800	0	34.5780	0	27.646	0	1959.679	0	48.5	4	14.6	4	-1E+10	1	-1E+10	1	-1E+10	1	-1E+10	1	-1E+10	1	-1E+10	1
4902549	77	C	09/28/2022	08:56	-131.629	47.214	0	1996.10	0	1.9760	0	34.5790	0	27.647	0	1970.092	0	48.4	4	14.6	4	-1E+10	1	-1E+10	1	-1E+10	1	-1E+10	1	-1E+10	1	-1E+10	1
4902549	77	C	09/28/2022	08:56	-131.629	47.214	0	2001.50	0	1.9750	0	34.5800	0	27.648	0	1975.396	0	48.0	4	14.5	4	-1E+10	1	-1E+10	1	-1E+10	1	-1E+10	1	-1E+10	1	-1E+10	1
4902549	77	C	09/28/2022	08:56	-131.629	47.214	0																										
4902549	78	C	10/08/2022	13:59	-131.964	47.088	0	0.30	0	17.5460	0	32.2530	0	23.279	0	0.298	0	232.8	4	96.8	4	-1E+10	1	-1E+10	1	-1E+10	1	-1E+10	1	-1E+10	1	-1E+10	1
4902549	78	C	10/08/2022	13:59	-131.964	47.088	0	0.40	0	17.5466	0	32.2527	0	23.279	0	0.397	0	232.8	4	96.8	4	-1E+10	1	-1E+10	1	-1E+10	1	-1E+10	1	-1E+10	1	-1E+10	1
4902549	78	C	10/08/2022	13:59	-131.964	47.088	0	1.10	0	17.5510	0	32.2510	0	23.277	0	1.091	0	232.8	4	96.8	4	-1E+10	1	-1E+10	1	-1E+10	1	-1E+10	1	-1E+10	1	-1E+10	1
4902549	78	C	10/08/2022	13:59	-131.964	47.088	0	1.70	0	17.5540	0	32.2470	0	23.273	0	1.686	0	232.8	4	96.9	4	-1E+10	1	-1E+10	1	-1E+10	1	-1E+10	1	-1E+10	1	-1E+10	1
4902549	78	C	10/08/2022	13:59	-131.964	47.088	0	2.80	0	17.5550	0	32.2470	0	23.273	0	2.777	0	232.8	4	96.9	4	-1E+10	1	-1E+10	1	-1E+10	1	-1E+10	1	-1E+10	1	-1E+10	1
4902549	78	C	10/08/2022	13:59	-131.964	47.088	0	3.90	0	17.5550	0	32.2490	0	23.274	0	3.868	0	232.9	4	96.9	4	-1E+10	1	-1E+10	1	-1E+10	1	-1E+10	1	-1E+10	1	-1E+10	1
4902549	78	C	10/08/2022	13:59	-131.964	47.088	0	5.10	0	17.5540	0	32.2510	0	23.276	0	5.058	0	233.0	4	96.9	4	-1E+10	1	-1E+10	1	-1E+10	1	-1E+10	1	-1E+10	1	-1E+10	1
4902549	78	C	10/08/2022	13:59	-131.964	47.088	0	6.10	0	17.5550	0	32.2500	0	23.275	0	6.049	0	232.9	4	96.9	4	-1E+10	1	-1E+10	1	-1E+10	1	-1E+10	1	-1E+10	1	-1E+10	1
4902549	78	C	10/08/2022	13:59	-131.964	47.088	0	7.10	0	17.5490	0	32.2510	0	23.277	0	7.041	0	233.0	4	96.9	4	-1E+10	1	-1E+10	1	-1E+10	1	-1E+10	1	-1E+10	1	-1E+10	1
4902549	78	C	10/08/2022	13:59	-131.964	47.088	0	8.10	0	17.5510	0	32.2500	0	23.276	0	8.033	0	233.0	4	96.9	4	-1E+10	1	-1E+10	1	-1E+10	1	-1E+10	1	-1E+10	1	-1E+10	1
4902549	78	C	10/08/2022	13:59	-131.964	47.088	0	9.10	0	17.5450	0	32.2520	0	23.279	0	9.024	0	233.1	4	96.9	4	-1E+10	1	-1E+10	1	-1E+10	1	-1E+10	1	-1E+10	1	-1E+10	1
4902549	78	C	10/08/2022	13:59	-131.964	47.088	0	10.00	0	17.5380	0	32.2490	0	23.279	0	9.917	0	233.1	4	97.0	4	-1E+10	1	-1E+10	1	-1E+10	1	-1E+10	1	-1E+10	1	-1E+10	1
4902549	78	C	10/08/2022	13:59	-131.964	47.088	0	11.00	0	17.5260	0	32.2490	0	23.282	0	10.908	0	233.1	4	96.9	4	-1E+10	1	-1E+10	1	-1E+10	1	-1E+10	1	-1E+10	1	-1E+10	1
4902549	78	C	10/08/2022	13:59	-131.964	47.088	0	11.90	0	17.5300	0	32.2500	0	23.281	0	11.801	0	233.1	4	96.9	4	-1E+10	1	-1E+10	1	-1E+10	1	-1E+10	1	-1E+10	1	-1E+10	1
4902549	78	C	10/08/2022	13:59	-131.964	47.088	0	12.90	0	17.5160	0	32.2460	0	23.282	0	12.792	0	233.1	4	96.9	4	-1E+10	1	-1E+10	1	-1E+10	1	-1E+10	1	-1E+10	1	-1E+10	1
4902549	78	C	10/08/2022	13:59	-131.964	47.088	0	13.80	0	17.4780	0	32.2460	0	23.291	0	13.685	0	233.3	4	96.9	4	-1E+10	1	-1E+10	1	-1E+10	1	-1E+10	1	-1E+10	1	-1E+10	1
4902549	78	C	10/08/2022	13:59	-131.964	47.088	0	14.80	0	17.4390	0	32.2450	0	23.299	0	14.677	0	233.4	4	96.9	4	-1E+10	1	-1E+10	1	-1E+10	1	-1E+10	1	-1E+10	1	-1E+10	1
4902549	78	C	10/08/2022	13:59	-131.964	47.088	0	15.80	0	17.4310	0	32.2450	0	23.301	0	15.668	0	233.4	4	96.9	4	-1E+10	1	-1E+10	1	-1E+10	1	-1E+10	1	-1E+10	1	-1E+10	1
4902549	78	C	10/08/2022	13:59	-131.964	47.088	0	16.80	0	17.4260	0	32.2450	0	23.302	0	16.660	0	233.4	4	96.9	4	-1E+10	1	-1E+10	1	-1E+10	1	-1E+10	1	-1E+10	1	-1E+10	1
4902549	78	C	10/08/2022	13:59	-131.964	47.088	0	17.80	0	17.4210	0	32.2450	0	23.304	0	17.651	0	233.3	4	96.8	4	-1E+10	1	-1E+10	1	-1E+10	1	-1E+10	1	-1E+10	1	-1E+10	1
4902549	78	C	10/08/2022	13:59	-131.964	47.088	0	18.80	0	17.4160	0	32.2450	0	23.305	0	18.643	0	233.3	4	96.8	4	-1E+10	1	-1E+10	1	-1E+10	1	-1E+10	1	-1E+10	1	-1E+10	1
4902549	78	C	10/08/2022	13:59	-131.964	47.088	0	20.10	0	17.4110	0	32.2460	0	23.307	0	19.932	0	233.5	4	96.9	4	-1E+10	1	-1E+10	1	-1E+10	1	-1E+10	1	-1E+10	1	-1E+10	1
4902549	78	C	10/08/2022	13:59	-131.964	47.088	0	21.10	0	17.4070	0	32.2460	0	23.308	0	20.924	0	233.5	4	96.9	4	-1E+10	1	-1E+10	1	-1E+10	1	-1E+10	1	-1E+10	1	-1E+10	1
4902549	78	C	10/08/2022	13:59	-131.964	47.088	0	22.10	0	17.4030	0	32.2450	0	23.308	0	21.915	0	233.7	4	97.0	4	-1E+10	1	-1E+10	1	-1E+10	1	-1E+10	1	-1E+10	1	-1E+10	1
4902549	78	C	10/08/2022	13:59	-131.964	47.088	0	23.00	0	17.4010	0	32.2450	0	23.309	0	22.808	0	233.9	4	97.0	4	-1E+10	1	-1E+10	1	-1E+10	1	-1E+10	1	-1E+10	1	-1E+10	1
4902549	78	C	10/08/2022	13:59	-131.964	47.088	0	23.90	0	17.3980	0	32.2450	0	23.309	0	23.700	0	234.2	4	97.1	4	-1E+10	1	-1E+10	1	-1E+10	1	-1E+10	1	-1E+10	1	-1E+10	1
4902549	78	C	10/08/2022	13:59	-131.964	47.088	0	25.10	0	17.3930	0	32.2450	0	23.311	0	24.890	0	234.7	4	97.4	4	-1E+10	1	-1E+10	1	-1E+10	1	-1E+10	1	-1E+10	1	-1E+10	1
4902549	78	C	10/08/2022	13:59	-131.964	47.088	0	26.00	0	17.3900	0	32.2440	0	23.311	0	25.782	0	235.2	4	97.5	4	-1E+10	1	-1E+10	1	-1E+10	1	-1E+10	1	-1E+10	1	-1E+10	1
4902549	78	C	10/08/2022	13:59	-131.964	47.088	0	26.90	0	17.3240	0	32.2420	0	23.325	0	26.675	0	236.1	4	97.8	4	-1E+10	1	-1E+10	1	-1E+10	1	-1E+10	1	-1E+10	1	-1E+10	1
4902549	78	C	10/08/2022	13:59	-131.964	47.088	0	27.80	0	17.2560	0	32.2450	0	23.343	0	27.567	0	237.1	4	98.1	4	-1E+10	1	-1E+10	1	-1E+10	1	-1E+10	1	-1E+10	1	-1E+10	1
4902549	78	C	10/08/2022	13:59	-131.964	47.088	0	28.80	0	17.2010	0	32.2460	0	23.357	0	28.559	0	238.0	4	98.4	4	-1E+10	1	-1E+10	1	-1E+10	1	-1E+10	1	-1E+10	1	-1E+10	1
4902549	78	C	10/08/2022	13:59	-131.964	47.088	0	30.00	0	17.1280	0	32.2450	0	23.373	0	29.749	0	239.5	4	98.8	4	-1E+10	1	-1E+10	1	-1E+10	1	-1E+10	1	-1E+10	1	-1E+10	1
4902549	78	C	10/08/2022	13:59	-131.964	47.088	0	30.90	0	17.0880	0	32.2430	0	23.381	0	30.641	0	240.6	4	99.2	4	-1E+10	1	-1E+10	1	-1E+10	1	-1E+10	1	-1E+10	1	-1E+10	1
4902549	78	C	10/08/2022	13:59	-131.964	47.088	0	31.70	0	17.0670	0	32.2400	0	23.384	0	31.434	0	241.7	4	99.6	4	-1E+10	1	-1E+10	1	-1E+10	1	-1E+10	1	-1E+10	1	-1E+10	1
4902549	78	C	10/08/2022	13:59	-131.964	47.088	0	32.70	0	16.8500	0	32.2370	0	23.432	0	32.426	0	243.7	4	100.0	4	-1E+10	1	-1E+10	1	-1E+10	1	-1E+10	1	-1E+10	1	-1E+10	1
4902549	78	C	10/08/2022	13:59	-131.964	47.088	0	34.10	0	16.3930	0	32.2520	0	23.548	0	33.814	0	248.5	4	101.1	4	-1E+10	1	-1E+10	1	-1E+10	1	-1E+10	1	-1E+10	1	-1E+10	1
4902549	78	C	10/08/2022	13:59	-131.964	47.088	0	35.10	0	15.6870	0	32.2220	0	23.683	0	34.805	0	255.3	4	102.4	4	-1E+10	1	-1E+10	1	-1E+10	1	-1E+10	1	-1E+10	1	-1E+10	1
4902549	78	C	10/08/2022	13:59	-131.964	47.088	0	36.10	0	14.1840	0	32.2280	0	24.010	0	35.797	0	262.7	4	102.3	4	-1E+10	1	-1E+10	1	-1E+10	1	-1E+10	1	-1E+10	1	-1E+10	1
4902549	78	C	10/08/2022	13:59	-131.964	47.088	0	37.00	0	13.7820	0	32.2420	0	24.103	0	36.689	0	265.0	4	102.4	4	-1E+10	1	-1E+10	1	-1E+10	1	-1E+10	1	-1E+10	1	-1E+10	1
4902549	78	C	10/08/2022	13:59	-131.964	47.088	0	38.10	0	13.1730	0	32.2000	0	24.192	0	37.780	0	267.5	4	102.1	4	-1E+10	1	-1E+10	1	-1E+10	1	-1E+10	1	-1E+10	1	-1E+10	1
4902549	78	C	10/08/2022	13:59	-131.964	47.088	0	39.10	0	12.4140	0	32.2320	0	24.364	0	38.771	0	269.3	4	101.2	4	-1E+10	1	-1E+10	1	-1E+10	1	-1E+10	1	-1E+10	1	-1E+10	1
4902549	78	C	10/08/2022	13:59	-131.964	47.088	0	39.70	0	12.3700	0	32.2290	0	24.370	0	39.366	0	268.8	4	100.9	4	-1E+10	1	-1E+10	1	-1E+10	1	-1E+10	1	-1E+10	1	-1E+10	1
4902549	78	C	10/08/2022	13:59	-131.964	47.088	0	40.70	0	11.9880	0	32.2650	0	24.469	0	40.358	0	268.8	4	100.1	4	-1E+10	1	-1E+10	1	-1E+10	1	-1E+10	1	-1E+10	1	-1E+10	1
4902549	78	C	10/08/2022	13:59	-131.964	47.088	0	41.80	0	11.7270	0	32.2430	0	24.500	0	41.449	0	269.1	4	99.7	4	-1E+10	1	-1E+10	1	-1E+10	1	-1E+10	1	-1E+10	1	-1E+10	1
4902549	78	C	10/08/2022	13:59	-131.964	47.088	0	42.80	0	11.6130	0	32.2430	0	24.521	0	42.440	0	268.5	4	99.2	4	-1E+10	1	-1E+10	1	-1E+10	1	-1E+10	1	-1E+10	1	-1E+10	1
4902549	78	C	10/08/2022	13:59	-131.964	47.088	0	44.00	0	11.5620	0	32.2350	0	24.524	0	43.630	0	267.2	4	98.6	4	-1E+10	1	-1E+10	1	-1E+10	1	-1E+10	1	-1E+10	1	-1E+10	1
4902549	78	C	10/08/2022	13:59	-131.964	47.088	0	45.10	0	11.5400	0	32.2260	0	24.521	0	44.720	0	265.3	4	97.9	4	-1E+10	1	-1E+10	1	-1E+10	1	-1E+10	1	-1E+10	1	-1E+10	1
4902549	78	C	10/08/2022	13:59	-131.964	47.088	0	46.10	0	11.3690	0	32.2360	0	24.560	0	45.712	0	263.5	4	96.9	4	-1E+10	1	-1E+10	1	-1E+10	1	-1E+10	1	-1E+10	1	-1E+10	1
4902549	78	C	10/08/2022	13:59	-131.964	47.088	0	47.00	0	10.9870	0	32.2410	0	24.631	0	46.604	0	264.7	4	96.5	4	-1E+10	1	-1E+10	1	-1E+10	1	-1E+10	1	-1E+10	1	-1E+10	1
4902549	78	C	10/08/2022	13:59	-131.964	47.088	0	47.70	0	10.7930	0	32.2210	0	24.650	0	47.298	0	264.6	4	96.1	4	-1E+10	1	-1E+10	1	-1E+10	1	-1E+10	1	-1E+10	1	-1E+10	1
4902549	78	C	10/08/2022	13:59	-131.964	47.088	0	48.80	0	10.6210	0	32.2300	0	24.686	0	48.389	0	264.5	4	95.7	4	-1E+10	1	-1E+10	1	-1E+10	1	-1E+10	1	-1E+10	1	-1E+10	1
4902549	78	C	10/08/2022	13:59	-131.964	47.088	0	49.90	0	10.5030	0	32.2250	0	24.703	0	49.479	0	263.9	4	95.2	4	-1E+10	1	-1E+10	1	-1E+10	1	-1E+10	1	-1E+10	1	-1E+10	1
4902549	78	C	10/08/2022	13:59	-131.964	47.088	0	50.90	0	10.2920	0	32.2390	0	24.749	0	50.471	0	264.0	4	94.8	4	-1E+10	1	-1E+10	1	-1E+10	1	-1E+10	1	-1E+10	1	-1E+10	1
4902549	78	C	10/08/2022	13:59	-131.964	47.088	0	51.90	0	10.1890	0	32.2330	0	24.762	0	51.462	0	263.6	4	94.5	4	-1E+10	1	-1E+10	1	-1E+10	1	-1E+10	1	-1E+10	1	-1E+10	1
4902549	78	C	10/08/2022	13:59	-131.964	47.088	0	53.00	0	10.0410	0	32.2260	0	24.781	0	52.553	0	263.1	4	94.0	4	-1E+10	1	-1E+10	1	-1E+10	1	-1E+10	1	-1E+10	1	-1E+10	1
4902549	78	C	10/08/2022	13:59	-131.964	47.088	0	54.10	0	9.7930	0	32.2330	0	24.827	0	53.643	0	263.4	4	93.6	4	-1E+10	1	-1E+10	1	-1E+10	1	-1E+10	1	-1E+10	1	-1E+10	1
4902549	78	C	10/08/2022	13:59	-131.964	47.088	0	55.00	0	9.7200	0	32.2410	0	24.846	0	54.536	0	262.8	4	93.2	4	-1E+10	1	-1E+10	1	-1E+10	1	-1E+10	1	-1E+10	1	-1E+10	1
4902549	78	C	10/08/2022	13:59	-131.964	47.088	0	56.10	0	9.6890	0	32.2440	0	24.853	0	55.626	0	262.0	4	92.9	4	-1E+10	1	-1E+10	1	-1E+10	1	-1E+10	1	-1E+10	1	-1E+10	1
4902549	78	C	10/08/2022	13:59	-131.964	47.088	0	57.00	0	9.6750	0	32.2410	0	24.853	0	56.519	0	261.3	4	92.6	4	-1E+10	1	-1E+10	1	-1E+10	1	-1E+10	1	-1E+10	1	-1E+10	1
4902549	78	C	10/08/2022	13:59	-131.964	47.088	0	58.10	0	9.6660	0	32.2390	0	24.853	0	57.609	0	260.4	4	92.3	4	-1E+10	1	-1E+10	1	-1E+10	1	-1E+10	1	-1E+10	1	-1E+10	1
4902549	78	C	10/08/2022	13:59	-131.964	47.088	0	58.80	0	9.5940	0	32.2410	0	24.866	0	58.303	0	260.1	4	92.0	4	-1E+10	1	-1E+10	1	-1E+10	1	-1E+10	1	-1E+10	1	-1E+10	1
4902549	78	C	10/08/2022	13:59	-131.964	47.088	0	60.00	0	9.5050	0	32.2440	0	24.883	0	59.493	0	259.3	4	91.6	4	-1E+10	1	-1E+10	1	-1E+10	1	-1E+10	1	-1E+10	1	-1E+10	1
4902549	78	C	10/08/2022	13:59	-131.964	47.088	0	61.20	0	9.4350	0	32.2450	0	24.895	0	60.683	0	258.3	4	91.1	4	-1E+10	1	-1E+10	1	-1E+10	1	-1E+10	1	-1E+10	1	-1E+10	1
4902549	78	C	10/08/2022	13:59	-131.964	47.088	0	61.90	0	9.2930	0	32.2520	0	24.923	0	61.377	0	258.4	4	90.8	4	-1E+10	1	-1E+10	1	-1E+10	1	-1E+10	1	-1E+10	1	-1E+10	1
4902549	78	C	10/08/2022	13:59	-131.964	47.088	0	63.10	0	9.1470	0	32.2580	0	24.950	0	62.566	0	258.2	4	90.5	4	-1E+10	1	-1E+10	1	-1E+10	1	-1E+10	1	-1E+10	1	-1E+10	1
4902549	78	C	10/08/2022	13:59	-131.964	47.088	0	63.90	0	9.0860	0	32.2620	0	24.963	0	63.359	0	257.8	4	90.2	4	-1E+10	1	-1E+10	1	-1E+10	1	-1E+10	1	-1E+10	1	-1E+10	1
4902549	78	C	10/08/2022	13:59	-131.964	47.088	0	65.00	0	9.0040	0	32.2670	0	24.979	0	64.450	0	257.3	4	89.9	4	-1E+10	1	-1E+10	1	-1E+10	1	-1E+10	1	-1E+10	1	-1E+10	1
4902549	78	C	10/08/2022	13:59	-131.964	47.088	0	66.20	0	8.9770	0	32.2680	0	24.984	0	65.639	0	256.5	4	89.6	4	-1E+10	1	-1E+10	1	-1E+10	1	-1E+10	1	-1E+10	1	-1E+10	1
4902549	78	C	10/08/2022	13:59	-131.964	47.088	0	66.80	0	8.9690	0	32.2670	0	24.985	0	66.234	0	255.7	4	89.3	4	-1E+10	1	-1E+10	1	-1E+10	1	-1E+10	1	-1E+10	1	-1E+10	1
4902549	78	C	10/08/2022	13:59	-131.964	47.088	0	67.90	0	8.8960	0	32.2710	0	24.999	0	67.325	0	254.8	4	88.8	4	-1E+10	1	-1E+10	1	-1E+10	1	-1E+10	1	-1E+10	1	-1E+10	1
4902549	78	C	10/08/2022	13:59	-131.964	47.088	0	69.00	0	8.7180	0	32.2860	0	25.038	0	68.415	0	254.6	4	88.4	4	-1E+10	1	-1E+10	1	-1E+10	1	-1E+10	1	-1E+10	1	-1E+10	1
4902549	78	C	10/08/2022	13:59	-131.964	47.088	0	70.20	0	8.6460	0	32.2930	0	25.055	0	69.605	0	254.1	4	88.1	4	-1E+10	1	-1E+10	1	-1E+10	1	-1E+10	1	-1E+10	1	-1E+10	1
4902549	78	C	10/08/2022	13:59	-131.964	47.088	0	71.10	0	8.5950	0	32.2990	0	25.067	0	70.497	0	253.5	4	87.8	4	-1E+10	1	-1E+10	1	-1E+10	1	-1E+10	1	-1E+10	1	-1E+10	1
4902549	78	C	10/08/2022	13:59	-131.964	47.088	0	72.20	0	8.5270	0	32.3060	0	25.083	0	71.588	0	253.2	4	87.5	4	-1E+10	1	-1E+10	1	-1E+10	1	-1E+10	1	-1E+10	1	-1E+10	1
4902549	78	C	10/08/2022	13:59	-131.964	47.088	0	72.80	0	8.5000	0	32.3080	0	25.088	0	72.182	0	253.0	4	87.5	4	-1E+10	1	-1E+10	1	-1E+10	1	-1E+10	1	-1E+10	1	-1E+10	1
4902549	78	C	10/08/2022	13:59	-131.964	47.088	0	73.90	0	8.4470	0	32.3160	0	25.102	0	73.273	0	252.7	4	87.2	4	-1E+10	1	-1E+10	1	-1E+10	1	-1E+10	1	-1E+10	1	-1E+10	1
4902549	78	C	10/08/2022	13:59	-131.964	47.088	0	75.20	0	8.4420	0	32.3150	0	25.102	0	74.562	0	251.8	4	86.9	4	-1E+10	1	-1E+10	1	-1E+10	1	-1E+10	1	-1E+10	1	-1E+10	1
4902549	78	C	10/08/2022	13:59	-131.964	47.088	0	76.10	0	8.4270	0	32.3140	0	25.104	0	75.454	0	251.2	4	86.7	4	-1E+10	1	-1E+10	1	-1E+10	1	-1E+10	1	-1E+10	1	-1E+10	1
4902549	78	C	10/08/2022	13:59	-131.964	47.088	0	77.00	0	8.3160	0	32.3320	0	25.134	0	76.346	0	250.9	4	86.4	4	-1E+10	1	-1E+10	1	-1E+10	1	-1E+10	1	-1E+10	1	-1E+10	1
4902549	78	C	10/08/2022	13:59	-131.964	47.088	0	77.70	0	8.2950	0	32.3350	0	25.140	0	77.040	0	250.6	4	86.2	4	-1E+10	1	-1E+10	1	-1E+10	1	-1E+10	1	-1E+10	1	-1E+10	1
4902549	78	C	10/08/2022	13:59	-131.964	47.088	0	78.70	0	8.2700	0	32.3390	0	25.147	0	78.031	0	250.1	4	86.0	4	-1E+10	1	-1E+10	1	-1E+10	1	-1E+10	1	-1E+10	1	-1E+10	1
4902549	78	C	10/08/2022	13:59	-131.964	47.088	0	79.90	0	8.2600	0	32.3390	0	25.148	0	79.221	0	249.1	4	85.7	4	-1E+10	1	-1E+10	1	-1E+10	1	-1E+10	1	-1E+10	1	-1E+10	1
4902549	78	C	10/08/2022	13:59	-131.964	47.088	0	81.10	0	8.2430	0	32.3420	0	25.153	0	80.410	0	248.0	4	85.2	4	-1E+10	1	-1E+10	1	-1E+10	1	-1E+10	1	-1E+10	1	-1E+10	1
4902549	78	C	10/08/2022	13:59	-131.964	47.088	0	82.10	0	8.2130	0	32.3470	0	25.161	0	81.402	0	247.0	4	84.9	4	-1E+10	1	-1E+10	1	-1E+10	1	-1E+10	1	-1E+10	1	-1E+10	1
4902549	78	C	10/08/2022	13:59	-131.964	47.088	0	83.10	0	8.1320	0	32.3620	0	25.185	0	82.393	0	252.5	4	86.6	4	-1E+10	1	-1E+10	1	-1E+10	1	-1E+10	1	-1E+10	1	-1E+10	1
4902549	78	C	10/08/2022	13:59	-131.964	47.088	0	84.10	0	8.0210	0	32.3860	0	25.220	0	83.384	0	252.2	4	86.3	4	-1E+10	1	-1E+10	1	-1E+10	1	-1E+10	1	-1E+10	1	-1E+10	1
4902549	78	C	10/08/2022	13:59	-131.964	47.088	0	85.00	0	7.9870	0	32.3940	0	25.231	0	84.276	0	251.6	4	86.0	4	-1E+10	1	-1E+10	1	-1E+10	1	-1E+10	1	-1E+10	1	-1E+10	1
4902549	78	C	10/08/2022	13:59	-131.964	47.088	0	85.90	0	7.9420	0	32.4030	0	25.245	0	85.169	0	250.8	4	85.7	4	-1E+10	1	-1E+10	1	-1E+10	1	-1E+10	1	-1E+10	1	-1E+10	1
4902549	78	C	10/08/2022	13:59	-131.964	47.088	0	86.80	0	7.9170	0	32.4070	0	25.251	0	86.061	0	249.9	4	85.3	4	-1E+10	1	-1E+10	1	-1E+10	1	-1E+10	1	-1E+10	1	-1E+10	1
4902549	78	C	10/08/2022	13:59	-131.964	47.088	0	88.00	0	7.8710	0	32.4200	0	25.268	0	87.250	0	248.8	4	84.9	4	-1E+10	1	-1E+10	1	-1E+10	1	-1E+10	1	-1E+10	1	-1E+10	1
4902549	78	C	10/08/2022	13:59	-131.964	47.088	0	88.90	0	7.8530	0	32.4240	0	25.274	0	88.142	0	247.6	4	84.4	4	-1E+10	1	-1E+10	1	-1E+10	1	-1E+10	1	-1E+10	1	-1E+10	1
4902549	78	C	10/08/2022	13:59	-131.964	47.088	0	89.80	0	7.8130	0	32.4360	0	25.289	0	89.035	0	246.4	4	83.9	4	-1E+10	1	-1E+10	1	-1E+10	1	-1E+10	1	-1E+10	1	-1E+10	1
4902549	78	C	10/08/2022	13:59	-131.964	47.088	0	90.90	0	7.7650	0	32.4450	0	25.303	0	90.125	0	244.7	4	83.3	4	-1E+10	1	-1E+10	1	-1E+10	1	-1E+10	1	-1E+10	1	-1E+10	1
4902549	78	C	10/08/2022	13:59	-131.964	47.088	0	92.10	0	7.7410	0	32.4500	0	25.310	0	91.314	0	242.6	4	82.5	4	-1E+10	1	-1E+10	1	-1E+10	1	-1E+10	1	-1E+10	1	-1E+10	1
4902549	78	C	10/08/2022	13:59	-131.964	47.088	0	93.00	0	7.6800	0	32.4830	0	25.345	0	92.207	0	241.6	4	82.1	4	-1E+10	1	-1E+10	1	-1E+10	1	-1E+10	1	-1E+10	1	-1E+10	1
4902549	78	C	10/08/2022	13:59	-131.964	47.088	0	94.10	0	7.6560	0	32.4960	0	25.358	0	93.297	0	240.0	4	81.5	4	-1E+10	1	-1E+10	1	-1E+10	1	-1E+10	1	-1E+10	1	-1E+10	1
4902549	78	C	10/08/2022	13:59	-131.964	47.088	0	95.00	0	7.6310	0	32.5090	0	25.372	0	94.189	0	238.5	4	81.0	4	-1E+10	1	-1E+10	1	-1E+10	1	-1E+10	1	-1E+10	1	-1E+10	1
4902549	78	C	10/08/2022	13:59	-131.964	47.088	0	96.20	0	7.6220	0	32.5330	0	25.392	0	95.378	0	236.8	4	80.4	4	-1E+10	1	-1E+10	1	-1E+10	1	-1E+10	1	-1E+10	1	-1E+10	1
4902549	78	C	10/08/2022	13:59	-131.964	47.088	0	97.10	0	7.6370	0	32.5350	0	25.392	0	96.271	0	235.1	4	79.8	4	-1E+10	1	-1E+10	1	-1E+10	1	-1E+10	1	-1E+10	1	-1E+10	1
4902549	78	C	10/08/2022	13:59	-131.964	47.088	0	98.00	0	7.6530	0	32.5670	0	25.415	0	97.163	0	233.4	4	79.3	4	-1E+10	1	-1E+10	1	-1E+10	1	-1E+10	1	-1E+10	1	-1E+10	1
4902549	78	C	10/08/2022	13:59	-131.964	47.088	0	98.90	0	7.6180	0	32.5780	0	25.428	0	98.055	0	231.9	4	78.7	4	-1E+10	1	-1E+10	1	-1E+10	1	-1E+10	1	-1E+10	1	-1E+10	1
4902549	78	C	10/08/2022	13:59	-131.964	47.088	0	100.10	0	7.5620	0	32.6110	0	25.462	0	99.244	0	230.1	4	78.0	4	-1E+10	1	-1E+10	1	-1E+10	1	-1E+10	1	-1E+10	1	-1E+10	1
4902549	78	C	10/08/2022	13:59	-131.964	47.088	0	101.10	0	7.4820	0	32.6500	0	25.504	0	100.235	0	228.9	4	77.5	4	-1E+10	1	-1E+10	1	-1E+10	1	-1E+10	1	-1E+10	1	-1E+10	1
4902549	78	C	10/08/2022	13:59	-131.964	47.088	0	102.10	0	7.4860	0	32.6600	0	25.511	0	101.227	0	227.2	4	77.0	4	-1E+10	1	-1E+10	1	-1E+10	1	-1E+10	1	-1E+10	1	-1E+10	1
4902549	78	C	10/08/2022	13:59	-131.964	47.088	0	103.30	0	7.4930	0	32.6890	0	25.533	0	102.416	0	225.4	4	76.4	4	-1E+10	1	-1E+10	1	-1E+10	1	-1E+10	1	-1E+10	1	-1E+10	1
4902549	78	C	10/08/2022	13:59	-131.964	47.088	0	104.10	0	7.4940	0	32.6970	0	25.539	0	103.209	0	223.5	4	75.7	4	-1E+10	1	-1E+10	1	-1E+10	1	-1E+10	1	-1E+10	1	-1E+10	1
4902549	78	C	10/08/2022	13:59	-131.964	47.088	0	105.10	0	7.5030	0	32.7280	0	25.562	0	104.200	0	221.2	4	75.0	4	-1E+10	1	-1E+10	1	-1E+10	1	-1E+10	1	-1E+10	1	-1E+10	1
4902549	78	C	10/08/2022	13:59	-131.964	47.088	0	106.00	0	7.5060	0	32.7470	0	25.577	0	105.092	0	219.8	4	74.5	4	-1E+10	1	-1E+10	1	-1E+10	1	-1E+10	1	-1E+10	1	-1E+10	1
4902549	78	C	10/08/2022	13:59	-131.964	47.088	0	107.00	0	7.5020	0	32.7520	0	25.581	0	106.083	0	218.4	4	74.1	4	-1E+10	1	-1E+10	1	-1E+10	1	-1E+10	1	-1E+10	1	-1E+10	1
4902549	78	C	10/08/2022	13:59	-131.964	47.088	0	107.90	0	7.5010	0	32.7560	0	25.585	0	106.976	0	217.4	4	73.7	4	-1E+10	1	-1E+10	1	-1E+10	1	-1E+10	1	-1E+10	1	-1E+10	1
4902549	78	C	10/08/2022	13:59	-131.964	47.088	0	109.00	0	7.5000	0	32.7600	0	25.588	0	108.066	0	216.2	4	73.3	4	-1E+10	1	-1E+10	1	-1E+10	1	-1E+10	1	-1E+10	1	-1E+10	1
4902549	78	C	10/08/2022	13:59	-131.964	47.088	0	110.20	0	7.4990	0	32.7630	0	25.590	0	109.255	0	214.7	4	72.8	4	-1E+10	1	-1E+10	1	-1E+10	1	-1E+10	1	-1E+10	1	-1E+10	1
4902549	78	C	10/08/2022	13:59	-131.964	47.088	0	111.00	0	7.4920	0	32.7760	0	25.602	0	110.048	0	213.7	4	72.5	4	-1E+10	1	-1E+10	1	-1E+10	1	-1E+10	1	-1E+10	1	-1E+10	1
4902549	78	C	10/08/2022	13:59	-131.964	47.088	0	112.10	0	7.4810	0	32.7940	0	25.617	0	111.138	0	212.4	4	72.0	4	-1E+10	1	-1E+10	1	-1E+10	1	-1E+10	1	-1E+10	1	-1E+10	1
4902549	78	C	10/08/2022	13:59	-131.964	47.088	0	113.00	0	7.4740	0	32.8040	0	25.626	0	112.030	0	211.4	4	71.7	4	-1E+10	1	-1E+10	1	-1E+10	1	-1E+10	1	-1E+10	1	-1E+10	1
4902549	78	C	10/08/2022	13:59	-131.964	47.088	0	113.90	0	7.4680	0	32.8120	0	25.633	0	112.923	0	210.3	4	71.3	4	-1E+10	1	-1E+10	1	-1E+10	1	-1E+10	1	-1E+10	1	-1E+10	1
4902549	78	C	10/08/2022	13:59	-131.964	47.088	0	115.10	0	7.4590	0	32.8270	0	25.646	0	114.112	0	208.6	4	70.7	4	-1E+10	1	-1E+10	1	-1E+10	1	-1E+10	1	-1E+10	1	-1E+10	1
4902549	78	C	10/08/2022	13:59	-131.964	47.088	0	116.00	0	7.4430	0	32.8630	0	25.677	0	115.004	0	207.6	4	70.3	4	-1E+10	1	-1E+10	1	-1E+10	1	-1E+10	1	-1E+10	1	-1E+10	1
4902549	78	C	10/08/2022	13:59	-131.964	47.088	0	116.90	0	7.4410	0	32.8660	0	25.679	0	115.896	0	206.1	4	69.8	4	-1E+10	1	-1E+10	1	-1E+10	1	-1E+10	1	-1E+10	1	-1E+10	1
4902549	78	C	10/08/2022	13:59	-131.964	47.088	0	118.20	0	7.4370	0	32.8760	0	25.688	0	117.184	0	203.6	4	69.0	4	-1E+10	1	-1E+10	1	-1E+10	1	-1E+10	1	-1E+10	1	-1E+10	1
4902549	78	C	10/08/2022	13:59	-131.964	47.088	0	119.00	0	7.4300	0	32.8910	0	25.701	0	117.977	0	201.5	4	68.3	4	-1E+10	1	-1E+10	1	-1E+10	1	-1E+10	1	-1E+10	1	-1E+10	1
4902549	78	C	10/08/2022	13:59	-131.964	47.088	0	120.30	0	7.4160	0	32.9140	0	25.721	0	119.266	0	198.4	4	67.2	4	-1E+10	1	-1E+10	1	-1E+10	1	-1E+10	1	-1E+10	1	-1E+10	1
4902549	78	C	10/08/2022	13:59	-131.964	47.088	0	120.90	0	7.3830	0	32.9540	0	25.757	0	119.860	0	196.9	4	66.7	4	-1E+10	1	-1E+10	1	-1E+10	1	-1E+10	1	-1E+10	1	-1E+10	1
4902549	78	C	10/08/2022	13:59	-131.964	47.088	0	121.80	0	7.3580	0	33.0010	0	25.797	0	120.752	0	194.9	4	66.0	4	-1E+10	1	-1E+10	1	-1E+10	1	-1E+10	1	-1E+10	1	-1E+10	1
4902549	78	C	10/08/2022	13:59	-131.964	47.088	0	122.90	0	7.3580	0	33.0150	0	25.808	0	121.843	0	191.8	4	65.0	4	-1E+10	1	-1E+10	1	-1E+10	1	-1E+10	1	-1E+10	1	-1E+10	1
4902549	78	C	10/08/2022	13:59	-131.964	47.088	0	124.10	0	7.3570	0	33.0220	0	25.814	0	123.032	0	187.4	4	63.4	4	-1E+10	1	-1E+10	1	-1E+10	1	-1E+10	1	-1E+10	1	-1E+10	1
4902549	78	C	10/08/2022	13:59	-131.964	47.088	0	124.90	0	7.3540	0	33.0550	0	25.840	0	123.825	0	183.5	4	62.1	4	-1E+10	1	-1E+10	1	-1E+10	1	-1E+10	1	-1E+10	1	-1E+10	1
4902549	78	C	10/08/2022	13:59	-131.964	47.088	0	125.70	0	7.3590	0	33.1110	0	25.884	0	124.618	0	181.2	4	61.4	4	-1E+10	1	-1E+10	1	-1E+10	1	-1E+10	1	-1E+10	1	-1E+10	1
4902549	78	C	10/08/2022	13:59	-131.964	47.088	0	126.90	0	7.3650	0	33.1790	0	25.936	0	125.807	0	178.6	4	60.6	4	-1E+10	1	-1E+10	1	-1E+10	1	-1E+10	1	-1E+10	1	-1E+10	1
4902549	78	C	10/08/2022	13:59	-131.964	47.088	0	128.00	0	7.3670	0	33.2120	0	25.962	0	126.897	0	176.1	4	59.7	4	-1E+10	1	-1E+10	1	-1E+10	1	-1E+10	1	-1E+10	1	-1E+10	1
4902549	78	C	10/08/2022	13:59	-131.964	47.088	0	128.90	0	7.3680	0	33.2140	0	25.963	0	127.789	0	173.7	4	58.9	4	-1E+10	1	-1E+10	1	-1E+10	1	-1E+10	1	-1E+10	1	-1E+10	1
4902549	78	C	10/08/2022	13:59	-131.964	47.088	0	129.80	0	7.3640	0	33.2650	0	26.004	0	128.681	0	171.9	4	58.3	4	-1E+10	1	-1E+10	1	-1E+10	1	-1E+10	1	-1E+10	1	-1E+10	1
4902549	78	C	10/08/2022	13:59	-131.964	47.088	0	130.80	0	7.3640	0	33.2880	0	26.022	0	129.672	0	169.9	4	57.7	4	-1E+10	1	-1E+10	1	-1E+10	1	-1E+10	1	-1E+10	1	-1E+10	1
4902549	78	C	10/08/2022	13:59	-131.964	47.088	0	131.80	0	7.3620	0	33.3160	0	26.045	0	130.663	0	167.8	4	57.0	4	-1E+10	1	-1E+10	1	-1E+10	1	-1E+10	1	-1E+10	1	-1E+10	1
4902549	78	C	10/08/2022	13:59	-131.964	47.088	0	133.00	0	7.3620	0	33.3310	0	26.056	0	131.852	0	165.6	4	56.2	4	-1E+10	1	-1E+10	1	-1E+10	1	-1E+10	1	-1E+10	1	-1E+10	1
4902549	78	C	10/08/2022	13:59	-131.964	47.088	0	133.70	0	7.3610	0	33.3730	0	26.090	0	132.546	0	164.3	4	55.8	4	-1E+10	1	-1E+10	1	-1E+10	1	-1E+10	1	-1E+10	1	-1E+10	1
4902549	78	C	10/08/2022	13:59	-131.964	47.088	0	135.00	0	7.3580	0	33.4110	0	26.120	0	133.835	0	162.7	4	55.3	4	-1E+10	1	-1E+10	1	-1E+10	1	-1E+10	1	-1E+10	1	-1E+10	1
4902549	78	C	10/08/2022	13:59	-131.964	47.088	0	136.20	0	7.3510	0	33.4490	0	26.151	0	135.024	0	161.2	4	54.7	4	-1E+10	1	-1E+10	1	-1E+10	1	-1E+10	1	-1E+10	1	-1E+10	1
4902549	78	C	10/08/2022	13:59	-131.964	47.088	0	137.10	0	7.3490	0	33.4600	0	26.160	0	135.916	0	160.2	4	54.4	4	-1E+10	1	-1E+10	1	-1E+10	1	-1E+10	1	-1E+10	1	-1E+10	1
4902549	78	C	10/08/2022	13:59	-131.964	47.088	0	137.90	0	7.3480	0	33.4650	0	26.164	0	136.709	0	159.2	4	54.1	4	-1E+10	1	-1E+10	1	-1E+10	1	-1E+10	1	-1E+10	1	-1E+10	1
4902549	78	C	10/08/2022	13:59	-131.964	47.088	0	138.80	0	7.3480	0	33.4680	0	26.166	0	137.601	0	158.1	4	53.7	4	-1E+10	1	-1E+10	1	-1E+10	1	-1E+10	1	-1E+10	1	-1E+10	1
4902549	78	C	10/08/2022	13:59	-131.964	47.088	0	139.70	0	7.3480	0	33.4900	0	26.183	0	138.492	0	157.0	4	53.3	4	-1E+10	1	-1E+10	1	-1E+10	1	-1E+10	1	-1E+10	1	-1E+10	1
4902549	78	C	10/08/2022	13:59	-131.964	47.088	0	140.60	0	7.3470	0	33.4960	0	26.188	0	139.384	0	155.8	4	52.9	4	-1E+10	1	-1E+10	1	-1E+10	1	-1E+10	1	-1E+10	1	-1E+10	1
4902549	78	C	10/08/2022	13:59	-131.964	47.088	0	141.90	0	7.3410	0	33.5230	0	26.210	0	140.673	0	154.0	4	52.3	4	-1E+10	1	-1E+10	1	-1E+10	1	-1E+10	1	-1E+10	1	-1E+10	1
4902549	78	C	10/08/2022	13:59	-131.964	47.088	0	143.40	0	7.3330	0	33.5530	0	26.235	0	142.159	0	152.4	4	51.8	4	-1E+10	1	-1E+10	1	-1E+10	1	-1E+10	1	-1E+10	1	-1E+10	1
4902549	78	C	10/08/2022	13:59	-131.964	47.088	0	144.30	0	7.3260	0	33.5610	0	26.242	0	143.051	0	151.4	4	51.4	4	-1E+10	1	-1E+10	1	-1E+10	1	-1E+10	1	-1E+10	1	-1E+10	1
4902549	78	C	10/08/2022	13:59	-131.964	47.088	0	145.30	0	7.3230	0	33.5810	0	26.259	0	144.042	0	150.4	4	51.1	4	-1E+10	1	-1E+10	1	-1E+10	1	-1E+10	1	-1E+10	1	-1E+10	1
4902549	78	C	10/08/2022	13:59	-131.964	47.088	0	146.20	0	7.3140	0	33.6040	0	26.278	0	144.934	0	149.6	4	50.8	4	-1E+10	1	-1E+10	1	-1E+10	1	-1E+10	1	-1E+10	1	-1E+10	1
4902549	78	C	10/08/2022	13:59	-131.964	47.088	0	147.20	0	7.3170	0	33.6060	0	26.279	0	145.925	0	148.9	4	50.6	4	-1E+10	1	-1E+10	1	-1E+10	1	-1E+10	1	-1E+10	1	-1E+10	1
4902549	78	C	10/08/2022	13:59	-131.964	47.088	0	148.10	0	7.3170	0	33.6070	0	26.280	0	146.817	0	148.1	4	50.3	4	-1E+10	1	-1E+10	1	-1E+10	1	-1E+10	1	-1E+10	1	-1E+10	1
4902549	78	C	10/08/2022	13:59	-131.964	47.088	0	149.10	0	7.3100	0	33.6170	0	26.289	0	147.808	0	147.2	4	50.0	4	-1E+10	1	-1E+10	1	-1E+10	1	-1E+10	1	-1E+10	1	-1E+10	1
4902549	78	C	10/08/2022	13:59	-131.964	47.088	0	150.00	0	7.3000	0	33.6300	0	26.300	0	148.700	0	146.3	4	49.7	4	-1E+10	1	-1E+10	1	-1E+10	1	-1E+10	1	-1E+10	1	-1E+10	1
4902549	78	C	10/08/2022	13:59	-131.964	47.088	0	151.00	0	7.2960	0	33.6470	0	26.314	0	149.691	0	145.6	4	49.5	4	-1E+10	1	-1E+10	1	-1E+10	1	-1E+10	1	-1E+10	1	-1E+10	1
4902549	78	C	10/08/2022	13:59	-131.964	47.088	0	152.00	0	7.2930	0	33.6520	0	26.319	0	150.682	0	144.9	4	49.2	4	-1E+10	1	-1E+10	1	-1E+10	1	-1E+10	1	-1E+10	1	-1E+10	1
4902549	78	C	10/08/2022	13:59	-131.964	47.088	0	153.00	0	7.2920	0	33.6540	0	26.320	0	151.673	0	144.2	4	49.0	4	-1E+10	1	-1E+10	1	-1E+10	1	-1E+10	1	-1E+10	1	-1E+10	1
4902549	78	C	10/08/2022	13:59	-131.964	47.088	0	154.00	0	7.2920	0	33.6570	0	26.323	0	152.664	0	143.5	4	48.7	4	-1E+10	1	-1E+10	1	-1E+10	1	-1E+10	1	-1E+10	1	-1E+10	1
4902549	78	C	10/08/2022	13:59	-131.964	47.088	0	155.00	0	7.2890	0	33.6640	0	26.329	0	153.655	0	142.8	4	48.5	4	-1E+10	1	-1E+10	1	-1E+10	1	-1E+10	1	-1E+10	1	-1E+10	1
4902549	78	C	10/08/2022	13:59	-131.964	47.088	0	156.00	0	7.2870	0	33.6670	0	26.331	0	154.645	0	142.1	4	48.3	4	-1E+10	1	-1E+10	1	-1E+10	1	-1E+10	1	-1E+10	1	-1E+10	1
4902549	78	C	10/08/2022	13:59	-131.964	47.088	0	157.00	0	7.2840	0	33.6720	0	26.336	0	155.636	0	141.3	4	48.0	4	-1E+10	1	-1E+10	1	-1E+10	1	-1E+10	1	-1E+10	1	-1E+10	1
4902549	78	C	10/08/2022	13:59	-131.964	47.088	0	157.90	0	7.2810	0	33.6790	0	26.342	0	156.528	0	140.6	4	47.8	4	-1E+10	1	-1E+10	1	-1E+10	1	-1E+10	1	-1E+10	1	-1E+10	1
4902549	78	C	10/08/2022	13:59	-131.964	47.088	0	158.90	0	7.2680	0	33.6880	0	26.351	0	157.519	0	139.9	4	47.5	4	-1E+10	1	-1E+10	1	-1E+10	1	-1E+10	1	-1E+10	1	-1E+10	1
4902549	78	C	10/08/2022	13:59	-131.964	47.088	0	160.00	0	7.2590	0	33.6960	0	26.358	0	158.609	0	139.1	4	47.2	4	-1E+10	1	-1E+10	1	-1E+10	1	-1E+10	1	-1E+10	1	-1E+10	1
4902549	78	C	10/08/2022	13:59	-131.964	47.088	0	161.00	0	7.2500	0	33.7010	0	26.363	0	159.600	0	138.1	4	46.9	4	-1E+10	1	-1E+10	1	-1E+10	1	-1E+10	1	-1E+10	1	-1E+10	1
4902549	78	C	10/08/2022	13:59	-131.964	47.088	0	162.00	0	7.2420	0	33.7060	0	26.368	0	160.591	0	137.0	4	46.5	4	-1E+10	1	-1E+10	1	-1E+10	1	-1E+10	1	-1E+10	1	-1E+10	1
4902549	78	C	10/08/2022	13:59	-131.964	47.088	0	163.00	0	7.2440	0	33.7190	0	26.378	0	161.582	0	136.3	4	46.3	4	-1E+10	1	-1E+10	1	-1E+10	1	-1E+10	1	-1E+10	1	-1E+10	1
4902549	78	C	10/08/2022	13:59	-131.964	47.088	0	164.00	0	7.2400	0	33.7250	0	26.384	0	162.573	0	135.7	4	46.1	4	-1E+10	1	-1E+10	1	-1E+10	1	-1E+10	1	-1E+10	1	-1E+10	1
4902549	78	C	10/08/2022	13:59	-131.964	47.088	0	165.00	0	7.2300	0	33.7350	0	26.393	0	163.564	0	135.3	4	45.9	4	-1E+10	1	-1E+10	1	-1E+10	1	-1E+10	1	-1E+10	1	-1E+10	1
4902549	78	C	10/08/2022	13:59	-131.964	47.088	0	166.00	0	7.2130	0	33.7450	0	26.403	0	164.555	0	134.9	4	45.8	4	-1E+10	1	-1E+10	1	-1E+10	1	-1E+10	1	-1E+10	1	-1E+10	1
4902549	78	C	10/08/2022	13:59	-131.964	47.088	0	167.10	0	7.1990	0	33.7530	0	26.411	0	165.645	0	134.6	4	45.7	4	-1E+10	1	-1E+10	1	-1E+10	1	-1E+10	1	-1E+10	1	-1E+10	1
4902549	78	C	10/08/2022	13:59	-131.964	47.088	0	168.10	0	7.1940	0	33.7550	0	26.414	0	166.636	0	134.2	4	45.5	4	-1E+10	1	-1E+10	1	-1E+10	1	-1E+10	1	-1E+10	1	-1E+10	1
4902549	78	C	10/08/2022	13:59	-131.964	47.088	0	169.10	0	7.1870	0	33.7580	0	26.417	0	167.626	0	133.8	4	45.4	4	-1E+10	1	-1E+10	1	-1E+10	1	-1E+10	1	-1E+10	1	-1E+10	1
4902549	78	C	10/08/2022	13:59	-131.964	47.088	0	170.10	0	7.1820	0	33.7590	0	26.419	0	168.617	0	133.4	4	45.2	4	-1E+10	1	-1E+10	1	-1E+10	1	-1E+10	1	-1E+10	1	-1E+10	1
4902549	78	C	10/08/2022	13:59	-131.964	47.088	0	171.10	0	7.1760	0	33.7610	0	26.421	0	169.608	0	132.9	4	45.1	4	-1E+10	1	-1E+10	1	-1E+10	1	-1E+10	1	-1E+10	1	-1E+10	1
4902549	78	C	10/08/2022	13:59	-131.964	47.088	0	172.10	0	7.1720	0	33.7630	0	26.423	0	170.599	0	132.3	4	44.9	4	-1E+10	1	-1E+10	1	-1E+10	1	-1E+10	1	-1E+10	1	-1E+10	1
4902549	78	C	10/08/2022	13:59	-131.964	47.088	0	173.20	0	7.1610	0	33.7670	0	26.428	0	171.689	0	131.7	4	44.6	4	-1E+10	1	-1E+10	1	-1E+10	1	-1E+10	1	-1E+10	1	-1E+10	1
4902549	78	C	10/08/2022	13:59	-131.964	47.088	0	174.20	0	7.1530	0	33.7700	0	26.431	0	172.680	0	131.1	4	44.4	4	-1E+10	1	-1E+10	1	-1E+10	1	-1E+10	1	-1E+10	1	-1E+10	1
4902549	78	C	10/08/2022	13:59	-131.964	47.088	0	175.20	0	7.1250	0	33.7770	0	26.441	0	173.671	0	130.5	4	44.2	4	-1E+10	1	-1E+10	1	-1E+10	1	-1E+10	1	-1E+10	1	-1E+10	1
4902549	78	C	10/08/2022	13:59	-131.964	47.088	0	176.30	0	7.1150	0	33.7850	0	26.448	0	174.761	0	130.0	4	44.0	4	-1E+10	1	-1E+10	1	-1E+10	1	-1E+10	1	-1E+10	1	-1E+10	1
4902549	78	C	10/08/2022	13:59	-131.964	47.088	0	177.40	0	7.1080	0	33.7880	0	26.452	0	175.851	0	129.6	4	43.9	4	-1E+10	1	-1E+10	1	-1E+10	1	-1E+10	1	-1E+10	1	-1E+10	1
4902549	78	C	10/08/2022	13:59	-131.964	47.088	0	178.40	0	7.1080	0	33.7930	0	26.456	0	176.841	0	129.3	4	43.8	4	-1E+10	1	-1E+10	1	-1E+10	1	-1E+10	1	-1E+10	1	-1E+10	1
4902549	78	C	10/08/2022	13:59	-131.964	47.088	0	179.50	0	7.0740	0	33.7970	0	26.464	0	177.931	0	128.8	4	43.6	4	-1E+10	1	-1E+10	1	-1E+10	1	-1E+10	1	-1E+10	1	-1E+10	1
4902549	78	C	10/08/2022	13:59	-131.964	47.088	0	180.50	0	7.0530	0	33.7980	0	26.467	0	178.922	0	128.2	4	43.4	4	-1E+10	1	-1E+10	1	-1E+10	1	-1E+10	1	-1E+10	1	-1E+10	1
4902549	78	C	10/08/2022	13:59	-131.964	47.088	0	181.60	0	7.0130	0	33.8080	0	26.481	0	180.012	0	127.6	4	43.1	4	-1E+10	1	-1E+10	1	-1E+10	1	-1E+10	1	-1E+10	1	-1E+10	1
4902549	78	C	10/08/2022	13:59	-131.964	47.088	0	182.70	0	6.9890	0	33.8100	0	26.485	0	181.102	0	126.9	4	42.9	4	-1E+10	1	-1E+10	1	-1E+10	1	-1E+10	1	-1E+10	1	-1E+10	1
4902549	78	C	10/08/2022	13:59	-131.964	47.088	0	183.80	0	6.9880	0	33.8110	0	26.486	0	182.192	0	126.0	4	42.6	4	-1E+10	1	-1E+10	1	-1E+10	1	-1E+10	1	-1E+10	1	-1E+10	1
4902549	78	C	10/08/2022	13:59	-131.964	47.088	0	184.90	0	6.9860	0	33.8120	0	26.487	0	183.282	0	125.0	4	42.2	4	-1E+10	1	-1E+10	1	-1E+10	1	-1E+10	1	-1E+10	1	-1E+10	1
4902549	78	C	10/08/2022	13:59	-131.964	47.088	0	185.90	0	6.9850	0	33.8130	0	26.488	0	184.272	0	124.0	4	41.9	4	-1E+10	1	-1E+10	1	-1E+10	1	-1E+10	1	-1E+10	1	-1E+10	1
4902549	78	C	10/08/2022	13:59	-131.964	47.088	0	187.00	0	6.9840	0	33.8140	0	26.489	0	185.362	0	122.9	4	41.5	4	-1E+10	1	-1E+10	1	-1E+10	1	-1E+10	1	-1E+10	1	-1E+10	1
4902549	78	C	10/08/2022	13:59	-131.964	47.088	0	188.10	0	6.9830	0	33.8150	0	26.490	0	186.452	0	121.8	4	41.1	4	-1E+10	1	-1E+10	1	-1E+10	1	-1E+10	1	-1E+10	1	-1E+10	1
4902549	78	C	10/08/2022	13:59	-131.964	47.088	0	189.20	0	6.9820	0	33.8190	0	26.494	0	187.542	0	120.9	4	40.8	4	-1E+10	1	-1E+10	1	-1E+10	1	-1E+10	1	-1E+10	1	-1E+10	1
4902549	78	C	10/08/2022	13:59	-131.964	47.088	0	190.30	0	6.9780	0	33.8300	0	26.503	0	188.632	0	120.3	4	40.6	4	-1E+10	1	-1E+10	1	-1E+10	1	-1E+10	1	-1E+10	1	-1E+10	1
4902549	78	C	10/08/2022	13:59	-131.964	47.088	0	191.40	0	6.9650	0	33.8320	0	26.506	0	189.722	0	119.8	4	40.5	4	-1E+10	1	-1E+10	1	-1E+10	1	-1E+10	1	-1E+10	1	-1E+10	1
4902549	78	C	10/08/2022	13:59	-131.964	47.088	0	192.50	0	6.9400	0	33.8340	0	26.511	0	190.812	0	119.4	4	40.3	4	-1E+10	1	-1E+10	1	-1E+10	1	-1E+10	1	-1E+10	1	-1E+10	1
4902549	78	C	10/08/2022	13:59	-131.964	47.088	0	193.60	0	6.9250	0	33.8380	0	26.516	0	191.902	0	119.0	4	40.2	4	-1E+10	1	-1E+10	1	-1E+10	1	-1E+10	1	-1E+10	1	-1E+10	1
4902549	78	C	10/08/2022	13:59	-131.964	47.088	0	194.70	0	6.9250	0	33.8390	0	26.517	0	192.991	0	118.5	4	40.0	4	-1E+10	1	-1E+10	1	-1E+10	1	-1E+10	1	-1E+10	1	-1E+10	1
4902549	78	C	10/08/2022	13:59	-131.964	47.088	0	195.80	0	6.9210	0	33.8390	0	26.518	0	194.081	0	118.0	4	39.8	4	-1E+10	1	-1E+10	1	-1E+10	1	-1E+10	1	-1E+10	1	-1E+10	1
4902549	78	C	10/08/2022	13:59	-131.964	47.088	0	197.00	0	6.9160	0	33.8400	0	26.519	0	195.270	0	117.4	4	39.6	4	-1E+10	1	-1E+10	1	-1E+10	1	-1E+10	1	-1E+10	1	-1E+10	1
4902549	78	C	10/08/2022	13:59	-131.964	47.088	0	198.10	0	6.9130	0	33.8420	0	26.521	0	196.360	0	116.8	4	39.4	4	-1E+10	1	-1E+10	1	-1E+10	1	-1E+10	1	-1E+10	1	-1E+10	1
4902549	78	C	10/08/2022	13:59	-131.964	47.088	0	199.20	0	6.9120	0	33.8420	0	26.521	0	197.450	0	116.2	4	39.2	4	-1E+10	1	-1E+10	1	-1E+10	1	-1E+10	1	-1E+10	1	-1E+10	1
4902549	78	C	10/08/2022	13:59	-131.964	47.088	0	200.30	0	6.9070	0	33.8440	0	26.524	0	198.540	0	115.6	4	39.0	4	-1E+10	1	-1E+10	1	-1E+10	1	-1E+10	1	-1E+10	1	-1E+10	1
4902549	78	C	10/08/2022	13:59	-131.964	47.088	0	201.40	0	6.8900	0	33.8460	0	26.527	0	199.629	0	114.9	4	38.7	4	-1E+10	1	-1E+10	1	-1E+10	1	-1E+10	1	-1E+10	1	-1E+10	1
4902549	78	C	10/08/2022	13:59	-131.964	47.088	0	202.50	0	6.8870	0	33.8460	0	26.528	0	200.719	0	114.1	4	38.4	4	-1E+10	1	-1E+10	1	-1E+10	1	-1E+10	1	-1E+10	1	-1E+10	1
4902549	78	C	10/08/2022	13:59	-131.964	47.088	0	203.60	0	6.8850	0	33.8450	0	26.527	0	201.809	0	113.2	4	38.1	4	-1E+10	1	-1E+10	1	-1E+10	1	-1E+10	1	-1E+10	1	-1E+10	1
4902549	78	C	10/08/2022	13:59	-131.964	47.088	0	204.70	0	6.8570	0	33.8480	0	26.533	0	202.899	0	112.2	4	37.8	4	-1E+10	1	-1E+10	1	-1E+10	1	-1E+10	1	-1E+10	1	-1E+10	1
4902549	78	C	10/08/2022	13:59	-131.964	47.088	0	205.70	0	6.8560	0	33.8530	0	26.538	0	203.889	0	111.5	4	37.5	4	-1E+10	1	-1E+10	1	-1E+10	1	-1E+10	1	-1E+10	1	-1E+10	1
4902549	78	C	10/08/2022	13:59	-131.964	47.088	0	206.80	0	6.8490	0	33.8590	0	26.543	0	204.979	0	110.9	4	37.3	4	-1E+10	1	-1E+10	1	-1E+10	1	-1E+10	1	-1E+10	1	-1E+10	1
4902549	78	C	10/08/2022	13:59	-131.964	47.088	0	207.90	0	6.8420	0	33.8590	0	26.544	0	206.069	0	110.3	4	37.1	4	-1E+10	1	-1E+10	1	-1E+10	1	-1E+10	1	-1E+10	1	-1E+10	1
4902549	78	C	10/08/2022	13:59	-131.964	47.088	0	209.00	0	6.8340	0	33.8610	0	26.547	0	207.159	0	109.8	4	37.0	4	-1E+10	1	-1E+10	1	-1E+10	1	-1E+10	1	-1E+10	1	-1E+10	1
4902549	78	C	10/08/2022	13:59	-131.964	47.088	0	210.10	0	6.8260	0	33.8660	0	26.552	0	208.248	0	109.3	4	36.8	4	-1E+10	1	-1E+10	1	-1E+10	1	-1E+10	1	-1E+10	1	-1E+10	1
4902549	78	C	10/08/2022	13:59	-131.964	47.088	0	211.10	0	6.7980	0	33.8670	0	26.556	0	209.239	0	109.0	4	36.7	4	-1E+10	1	-1E+10	1	-1E+10	1	-1E+10	1	-1E+10	1	-1E+10	1
4902549	78	C	10/08/2022	13:59	-131.964	47.088	0	212.20	0	6.7940	0	33.8680	0	26.558	0	210.329	0	108.5	4	36.5	4	-1E+10	1	-1E+10	1	-1E+10	1	-1E+10	1	-1E+10	1	-1E+10	1
4902549	78	C	10/08/2022	13:59	-131.964	47.088	0	213.30	0	6.8050	0	33.8730	0	26.560	0	211.419	0	108.3	4	36.4	4	-1E+10	1	-1E+10	1	-1E+10	1	-1E+10	1	-1E+10	1	-1E+10	1
4902549	78	C	10/08/2022	13:59	-131.964	47.088	0	214.30	0	6.7820	0	33.8760	0	26.566	0	212.409	0	108.3	4	36.4	4	-1E+10	1	-1E+10	1	-1E+10	1	-1E+10	1	-1E+10	1	-1E+10	1
4902549	78	C	10/08/2022	13:59	-131.964	47.088	0	215.40	0	6.7680	0	33.8730	0	26.565	0	213.499	0	108.3	4	36.4	4	-1E+10	1	-1E+10	1	-1E+10	1	-1E+10	1	-1E+10	1	-1E+10	1
4902549	78	C	10/08/2022	13:59	-131.964	47.088	0	216.40	0	6.7460	0	33.8760	0	26.571	0	214.490	0	108.1	4	36.3	4	-1E+10	1	-1E+10	1	-1E+10	1	-1E+10	1	-1E+10	1	-1E+10	1
4902549	78	C	10/08/2022	13:59	-131.964	47.088	0	217.40	0	6.7250	0	33.8730	0	26.571	0	215.480	0	107.6	4	36.1	4	-1E+10	1	-1E+10	1	-1E+10	1	-1E+10	1	-1E+10	1	-1E+10	1
4902549	78	C	10/08/2022	13:59	-131.964	47.088	0	218.90	0	6.7200	0	33.8730	0	26.572	0	216.966	0	106.6	4	35.8	4	-1E+10	1	-1E+10	1	-1E+10	1	-1E+10	1	-1E+10	1	-1E+10	1
4902549	78	C	10/08/2022	13:59	-131.964	47.088	0	220.10	0	6.7340	0	33.8770	0	26.573	0	218.155	0	106.0	4	35.6	4	-1E+10	1	-1E+10	1	-1E+10	1	-1E+10	1	-1E+10	1	-1E+10	1
4902549	78	C	10/08/2022	13:59	-131.964	47.088	0	220.90	0	6.7350	0	33.8760	0	26.572	0	218.948	0	105.7	4	35.5	4	-1E+10	1	-1E+10	1	-1E+10	1	-1E+10	1	-1E+10	1	-1E+10	1
4902549	78	C	10/08/2022	13:59	-131.964	47.088	0	221.70	0	6.7360	0	33.8780	0	26.574	0	219.740	0	105.5	4	35.4	4	-1E+10	1	-1E+10	1	-1E+10	1	-1E+10	1	-1E+10	1	-1E+10	1
4902549	78	C	10/08/2022	13:59	-131.964	47.088	0	222.90	0	6.7340	0	33.8780	0	26.574	0	220.929	0	105.0	4	35.3	4	-1E+10	1	-1E+10	1	-1E+10	1	-1E+10	1	-1E+10	1	-1E+10	1
4902549	78	C	10/08/2022	13:59	-131.964	47.088	0	224.10	0	6.7260	0	33.8790	0	26.576	0	222.118	0	104.6	4	35.1	4	-1E+10	1	-1E+10	1	-1E+10	1	-1E+10	1	-1E+10	1	-1E+10	1
4902549	78	C	10/08/2022	13:59	-131.964	47.088	0	224.90	0	6.7240	0	33.8790	0	26.576	0	222.910	0	104.4	4	35.0	4	-1E+10	1	-1E+10	1	-1E+10	1	-1E+10	1	-1E+10	1	-1E+10	1
4902549	78	C	10/08/2022	13:59	-131.964	47.088	0	225.70	0	6.7120	0	33.8810	0	26.579	0	223.703	0	104.1	4	35.0	4	-1E+10	1	-1E+10	1	-1E+10	1	-1E+10	1	-1E+10	1	-1E+10	1
4902549	78	C	10/08/2022	13:59	-131.964	47.088	0	226.90	0	6.7030	0	33.8820	0	26.581	0	224.891	0	103.8	4	34.8	4	-1E+10	1	-1E+10	1	-1E+10	1	-1E+10	1	-1E+10	1	-1E+10	1
4902549	78	C	10/08/2022	13:59	-131.964	47.088	0	228.10	0	6.6940	0	33.8830	0	26.583	0	226.080	0	103.5	4	34.7	4	-1E+10	1	-1E+10	1	-1E+10	1	-1E+10	1	-1E+10	1	-1E+10	1
4902549	78	C	10/08/2022	13:59	-131.964	47.088	0	228.90	0	6.6760	0	33.8860	0	26.588	0	226.872	0	103.3	4	34.7	4	-1E+10	1	-1E+10	1	-1E+10	1	-1E+10	1	-1E+10	1	-1E+10	1
4902549	78	C	10/08/2022	13:59	-131.964	47.088	0	229.70	0	6.6680	0	33.8860	0	26.589	0	227.665	0	103.2	4	34.6	4	-1E+10	1	-1E+10	1	-1E+10	1	-1E+10	1	-1E+10	1	-1E+10	1
4902549	78	C	10/08/2022	13:59	-131.964	47.088	0	230.90	0	6.6540	0	33.8850	0	26.590	0	228.854	0	102.9	4	34.5	4	-1E+10	1	-1E+10	1	-1E+10	1	-1E+10	1	-1E+10	1	-1E+10	1
4902549	78	C	10/08/2022	13:59	-131.964	47.088	0	232.10	0	6.6510	0	33.8860	0	26.591	0	230.042	0	102.7	4	34.4	4	-1E+10	1	-1E+10	1	-1E+10	1	-1E+10	1	-1E+10	1	-1E+10	1
4902549	78	C	10/08/2022	13:59	-131.964	47.088	0	232.90	0	6.6510	0	33.8860	0	26.591	0	230.835	0	102.6	4	34.4	4	-1E+10	1	-1E+10	1	-1E+10	1	-1E+10	1	-1E+10	1	-1E+10	1
4902549	78	C	10/08/2022	13:59	-131.964	47.088	0	234.00	0	6.6190	0	33.8900	0	26.599	0	231.924	0	102.5	4	34.4	4	-1E+10	1	-1E+10	1	-1E+10	1	-1E+10	1	-1E+10	1	-1E+10	1
4902549	78	C	10/08/2022	13:59	-131.964	47.088	0	235.20	0	6.6070	0	33.8860	0	26.597	0	233.113	0	102.4	4	34.3	4	-1E+10	1	-1E+10	1	-1E+10	1	-1E+10	1	-1E+10	1	-1E+10	1
4902549	78	C	10/08/2022	13:59	-131.964	47.088	0	236.10	0	6.6030	0	33.8870	0	26.598	0	234.005	0	102.3	4	34.3	4	-1E+10	1	-1E+10	1	-1E+10	1	-1E+10	1	-1E+10	1	-1E+10	1
4902549	78	C	10/08/2022	13:59	-131.964	47.088	0	236.90	0	6.5830	0	33.8890	0	26.603	0	234.797	0	102.3	4	34.3	4	-1E+10	1	-1E+10	1	-1E+10	1	-1E+10	1	-1E+10	1	-1E+10	1
4902549	78	C	10/08/2022	13:59	-131.964	47.088	0	237.70	0	6.5650	0	33.8900	0	26.606	0	235.590	0	102.3	4	34.2	4	-1E+10	1	-1E+10	1	-1E+10	1	-1E+10	1	-1E+10	1	-1E+10	1
4902549	78	C	10/08/2022	13:59	-131.964	47.088	0	238.90	0	6.5610	0	33.8930	0	26.609	0	236.778	0	102.7	4	34.4	4	-1E+10	1	-1E+10	1	-1E+10	1	-1E+10	1	-1E+10	1	-1E+10	1
4902549	78	C	10/08/2022	13:59	-131.964	47.088	0	240.20	0	6.5540	0	33.8930	0	26.610	0	238.066	0	103.2	4	34.5	4	-1E+10	1	-1E+10	1	-1E+10	1	-1E+10	1	-1E+10	1	-1E+10	1
4902549	78	C	10/08/2022	13:59	-131.964	47.088	0	241.00	0	6.5260	0	33.8910	0	26.612	0	238.858	0	103.6	4	34.6	4	-1E+10	1	-1E+10	1	-1E+10	1	-1E+10	1	-1E+10	1	-1E+10	1
4902549	78	C	10/08/2022	13:59	-131.964	47.088	0	241.80	0	6.4640	0	33.8860	0	26.616	0	239.651	0	103.7	4	34.6	4	-1E+10	1	-1E+10	1	-1E+10	1	-1E+10	1	-1E+10	1	-1E+10	1
4902549	78	C	10/08/2022	13:59	-131.964	47.088	0	243.00	0	6.4410	0	33.8830	0	26.617	0	240.839	0	103.4	4	34.5	4	-1E+10	1	-1E+10	1	-1E+10	1	-1E+10	1	-1E+10	1	-1E+10	1
4902549	78	C	10/08/2022	13:59	-131.964	47.088	0	244.30	0	6.4170	0	33.8810	0	26.618	0	242.127	0	103.0	4	34.4	4	-1E+10	1	-1E+10	1	-1E+10	1	-1E+10	1	-1E+10	1	-1E+10	1
4902549	78	C	10/08/2022	13:59	-131.964	47.088	0	245.10	0	6.4080	0	33.8820	0	26.620	0	242.919	0	102.6	4	34.2	4	-1E+10	1	-1E+10	1	-1E+10	1	-1E+10	1	-1E+10	1	-1E+10	1
4902549	78	C	10/08/2022	13:59	-131.964	47.088	0	246.00	0	6.4030	0	33.8820	0	26.621	0	243.811	0	102.3	4	34.1	4	-1E+10	1	-1E+10	1	-1E+10	1	-1E+10	1	-1E+10	1	-1E+10	1
4902549	78	C	10/08/2022	13:59	-131.964	47.088	0	246.80	0	6.3890	0	33.8840	0	26.624	0	244.603	0	101.9	4	34.0	4	-1E+10	1	-1E+10	1	-1E+10	1	-1E+10	1	-1E+10	1	-1E+10	1
4902549	78	C	10/08/2022	13:59	-131.964	47.088	0	247.70	0	6.3760	0	33.8860	0	26.627	0	245.495	0	101.7	4	33.9	4	-1E+10	1	-1E+10	1	-1E+10	1	-1E+10	1	-1E+10	1	-1E+10	1
4902549	78	C	10/08/2022	13:59	-131.964	47.088	0	249.00	0	6.3650	0	33.8860	0	26.629	0	246.782	0	101.4	4	33.8	4	-1E+10	1	-1E+10	1	-1E+10	1	-1E+10	1	-1E+10	1	-1E+10	1
4902549	78	C	10/08/2022	13:59	-131.964	47.088	0	250.30	0	6.3520	0	33.8860	0	26.631	0	248.070	0	101.1	4	33.7	4	-1E+10	1	-1E+10	1	-1E+10	1	-1E+10	1	-1E+10	1	-1E+10	1
4902549	78	C	10/08/2022	13:59	-131.964	47.088	0	251.20	0	6.3410	0	33.8860	0	26.632	0	248.962	0	100.9	4	33.6	4	-1E+10	1	-1E+10	1	-1E+10	1	-1E+10	1	-1E+10	1	-1E+10	1
4902549	78	C	10/08/2022	13:59	-131.964	47.088	0	252.10	0	6.3350	0	33.8860	0	26.633	0	249.853	0	100.5	4	33.5	4	-1E+10	1	-1E+10	1	-1E+10	1	-1E+10	1	-1E+10	1	-1E+10	1
4902549	78	C	10/08/2022	13:59	-131.964	47.088	0	252.90	0	6.3230	0	33.8860	0	26.634	0	250.645	0	100.2	4	33.3	4	-1E+10	1	-1E+10	1	-1E+10	1	-1E+10	1	-1E+10	1	-1E+10	1
4902549	78	C	10/08/2022	13:59	-131.964	47.088	0	253.80	0	6.3080	0	33.8870	0	26.637	0	251.537	0	99.9	4	33.2	4	-1E+10	1	-1E+10	1	-1E+10	1	-1E+10	1	-1E+10	1	-1E+10	1
4902549	78	C	10/08/2022	13:59	-131.964	47.088	0	254.70	0	6.3030	0	33.8870	0	26.638	0	252.428	0	99.5	4	33.1	4	-1E+10	1	-1E+10	1	-1E+10	1	-1E+10	1	-1E+10	1	-1E+10	1
4902549	78	C	10/08/2022	13:59	-131.964	47.088	0	255.60	0	6.2990	0	33.8870	0	26.638	0	253.320	0	99.2	4	33.0	4	-1E+10	1	-1E+10	1	-1E+10	1	-1E+10	1	-1E+10	1	-1E+10	1
4902549	78	C	10/08/2022	13:59	-131.964	47.088	0	256.90	0	6.2950	0	33.8880	0	26.640	0	254.607	0	98.6	4	32.8	4	-1E+10	1	-1E+10	1	-1E+10	1	-1E+10	1	-1E+10	1	-1E+10	1
4902549	78	C	10/08/2022	13:59	-131.964	47.088	0	258.30	0	6.2850	0	33.8880	0	26.641	0	255.994	0	97.9	4	32.6	4	-1E+10	1	-1E+10	1	-1E+10	1	-1E+10	1	-1E+10	1	-1E+10	1
4902549	78	C	10/08/2022	13:59	-131.964	47.088	0	259.10	0	6.2780	0	33.8890	0	26.642	0	256.786	0	97.4	4	32.4	4	-1E+10	1	-1E+10	1	-1E+10	1	-1E+10	1	-1E+10	1	-1E+10	1
4902549	78	C	10/08/2022	13:59	-131.964	47.088	0	260.10	0	6.2660	0	33.8910	0	26.646	0	257.777	0	96.9	4	32.2	4	-1E+10	1	-1E+10	1	-1E+10	1	-1E+10	1	-1E+10	1	-1E+10	1
4902549	78	C	10/08/2022	13:59	-131.964	47.088	0	261.00	0	6.2650	0	33.8910	0	26.646	0	258.668	0	96.5	4	32.1	4	-1E+10	1	-1E+10	1	-1E+10	1	-1E+10	1	-1E+10	1	-1E+10	1
4902549	78	C	10/08/2022	13:59	-131.964	47.088	0	261.90	0	6.2630	0	33.8910	0	26.646	0	259.559	0	95.9	4	31.9	4	-1E+10	1	-1E+10	1	-1E+10	1	-1E+10	1	-1E+10	1	-1E+10	1
4902549	78	C	10/08/2022	13:59	-131.964	47.088	0	262.80	0	6.2540	0	33.8900	0	26.646	0	260.451	0	95.4	4	31.7	4	-1E+10	1	-1E+10	1	-1E+10	1	-1E+10	1	-1E+10	1	-1E+10	1
4902549	78	C	10/08/2022	13:59	-131.964	47.088	0	263.70	0	6.2330	0	33.8910	0	26.650	0	261.342	0	94.9	4	31.5	4	-1E+10	1	-1E+10	1	-1E+10	1	-1E+10	1	-1E+10	1	-1E+10	1
4902549	78	C	10/08/2022	13:59	-131.964	47.088	0	264.60	0	6.2440	0	33.8980	0	26.654	0	262.234	0	94.6	4	31.4	4	-1E+10	1	-1E+10	1	-1E+10	1	-1E+10	1	-1E+10	1	-1E+10	1
4902549	78	C	10/08/2022	13:59	-131.964	47.088	0	265.90	0	6.2230	0	33.8960	0	26.655	0	263.521	0	94.1	4	31.3	4	-1E+10	1	-1E+10	1	-1E+10	1	-1E+10	1	-1E+10	1	-1E+10	1
4902549	78	C	10/08/2022	13:59	-131.964	47.088	0	267.30	0	6.1970	0	33.8960	0	26.658	0	264.908	0	93.6	4	31.0	4	-1E+10	1	-1E+10	1	-1E+10	1	-1E+10	1	-1E+10	1	-1E+10	1
4902549	78	C	10/08/2022	13:59	-131.964	47.088	0	268.20	0	6.1870	0	33.8970	0	26.661	0	265.799	0	93.1	4	30.9	4	-1E+10	1	-1E+10	1	-1E+10	1	-1E+10	1	-1E+10	1	-1E+10	1
4902549	78	C	10/08/2022	13:59	-131.964	47.088	0	269.10	0	6.1750	0	33.8960	0	26.661	0	266.690	0	92.6	4	30.7	4	-1E+10	1	-1E+10	1	-1E+10	1	-1E+10	1	-1E+10	1	-1E+10	1
4902549	78	C	10/08/2022	13:59	-131.964	47.088	0	270.00	0	6.1740	0	33.8980	0	26.663	0	267.582	0	92.1	4	30.6	4	-1E+10	1	-1E+10	1	-1E+10	1	-1E+10	1	-1E+10	1	-1E+10	1
4902549	78	C	10/08/2022	13:59	-131.964	47.088	0	270.90	0	6.1720	0	33.8990	0	26.664	0	268.473	0	91.7	4	30.4	4	-1E+10	1	-1E+10	1	-1E+10	1	-1E+10	1	-1E+10	1	-1E+10	1
4902549	78	C	10/08/2022	13:59	-131.964	47.088	0	271.80	0	6.1650	0	33.9000	0	26.666	0	269.365	0	91.2	4	30.3	4	-1E+10	1	-1E+10	1	-1E+10	1	-1E+10	1	-1E+10	1	-1E+10	1
4902549	78	C	10/08/2022	13:59	-131.964	47.088	0	272.70	0	6.1480	0	33.9000	0	26.668	0	270.256	0	90.7	4	30.1	4	-1E+10	1	-1E+10	1	-1E+10	1	-1E+10	1	-1E+10	1	-1E+10	1
4902549	78	C	10/08/2022	13:59	-131.964	47.088	0	273.60	0	6.1510	0	33.9010	0	26.668	0	271.147	0	90.2	4	29.9	4	-1E+10	1	-1E+10	1	-1E+10	1	-1E+10	1	-1E+10	1	-1E+10	1
4902549	78	C	10/08/2022	13:59	-131.964	47.088	0	274.90	0	6.1390	0	33.9010	0	26.670	0	272.435	0	89.4	4	29.6	4	-1E+10	1	-1E+10	1	-1E+10	1	-1E+10	1	-1E+10	1	-1E+10	1
4902549	78	C	10/08/2022	13:59	-131.964	47.088	0	276.30	0	6.1370	0	33.9030	0	26.672	0	273.821	0	88.5	4	29.3	4	-1E+10	1	-1E+10	1	-1E+10	1	-1E+10	1	-1E+10	1	-1E+10	1
4902549	78	C	10/08/2022	13:59	-131.964	47.088	0	277.20	0	6.1370	0	33.9030	0	26.672	0	274.713	0	87.8	4	29.1	4	-1E+10	1	-1E+10	1	-1E+10	1	-1E+10	1	-1E+10	1	-1E+10	1
4902549	78	C	10/08/2022	13:59	-131.964	47.088	0	278.20	0	6.1350	0	33.9040	0	26.673	0	275.703	0	87.1	4	28.9	4	-1E+10	1	-1E+10	1	-1E+10	1	-1E+10	1	-1E+10	1	-1E+10	1
4902549	78	C	10/08/2022	13:59	-131.964	47.088	0	279.10	0	6.1320	0	33.9040	0	26.673	0	276.594	0	86.4	4	28.6	4	-1E+10	1	-1E+10	1	-1E+10	1	-1E+10	1	-1E+10	1	-1E+10	1
4902549	78	C	10/08/2022	13:59	-131.964	47.088	0	280.00	0	6.1320	0	33.9090	0	26.677	0	277.486	0	85.9	4	28.5	4	-1E+10	1	-1E+10	1	-1E+10	1	-1E+10	1	-1E+10	1	-1E+10	1
4902549	78	C	10/08/2022	13:59	-131.964	47.088	0	280.90	0	6.1260	0	33.9150	0	26.683	0	278.377	0	85.7	4	28.4	4	-1E+10	1	-1E+10	1	-1E+10	1	-1E+10	1	-1E+10	1	-1E+10	1
4902549	78	C	10/08/2022	13:59	-131.964	47.088	0	281.80	0	6.1190	0	33.9160	0	26.684	0	279.268	0	85.6	4	28.4	4	-1E+10	1	-1E+10	1	-1E+10	1	-1E+10	1	-1E+10	1	-1E+10	1
4902549	78	C	10/08/2022	13:59	-131.964	47.088	0	282.70	0	6.1110	0	33.9150	0	26.685	0	280.160	0	85.3	4	28.3	4	-1E+10	1	-1E+10	1	-1E+10	1	-1E+10	1	-1E+10	1	-1E+10	1
4902549	78	C	10/08/2022	13:59	-131.964	47.088	0	283.60	0	6.1080	0	33.9150	0	26.685	0	281.051	0	85.2	4	28.2	4	-1E+10	1	-1E+10	1	-1E+10	1	-1E+10	1	-1E+10	1	-1E+10	1
4902549	78	C	10/08/2022	13:59	-131.964	47.088	0	284.90	0	6.0890	0	33.9140	0	26.687	0	282.338	0	84.9	4	28.1	4	-1E+10	1	-1E+10	1	-1E+10	1	-1E+10	1	-1E+10	1	-1E+10	1
4902549	78	C	10/08/2022	13:59	-131.964	47.088	0	286.30	0	6.0570	0	33.9140	0	26.691	0	283.725	0	84.5	4	27.9	4	-1E+10	1	-1E+10	1	-1E+10	1	-1E+10	1	-1E+10	1	-1E+10	1
4902549	78	C	10/08/2022	13:59	-131.964	47.088	0	287.30	0	6.0280	0	33.9110	0	26.692	0	284.715	0	84.0	4	27.8	4	-1E+10	1	-1E+10	1	-1E+10	1	-1E+10	1	-1E+10	1	-1E+10	1
4902549	78	C	10/08/2022	13:59	-131.964	47.088	0	288.20	0	6.0110	0	33.9090	0	26.692	0	285.606	0	83.5	4	27.6	4	-1E+10	1	-1E+10	1	-1E+10	1	-1E+10	1	-1E+10	1	-1E+10	1
4902549	78	C	10/08/2022	13:59	-131.964	47.088	0	289.10	0	6.0100	0	33.9090	0	26.693	0	286.498	0	82.7	4	27.3	4	-1E+10	1	-1E+10	1	-1E+10	1	-1E+10	1	-1E+10	1	-1E+10	1
4902549	78	C	10/08/2022	13:59	-131.964	47.088	0	290.10	0	5.9950	0	33.9140	0	26.698	0	287.488	0	82.2	4	27.2	4	-1E+10	1	-1E+10	1	-1E+10	1	-1E+10	1	-1E+10	1	-1E+10	1
4902549	78	C	10/08/2022	13:59	-131.964	47.088	0	291.00	0	5.9860	0	33.9150	0	26.700	0	288.379	0	81.8	4	27.0	4	-1E+10	1	-1E+10	1	-1E+10	1	-1E+10	1	-1E+10	1	-1E+10	1
4902549	78	C	10/08/2022	13:59	-131.964	47.088	0	291.90	0	5.9840	0	33.9180	0	26.703	0	289.270	0	81.5	4	26.9	4	-1E+10	1	-1E+10	1	-1E+10	1	-1E+10	1	-1E+10	1	-1E+10	1
4902549	78	C	10/08/2022	13:59	-131.964	47.088	0	292.80	0	5.9870	0	33.9190	0	26.703	0	290.162	0	81.1	4	26.8	4	-1E+10	1	-1E+10	1	-1E+10	1	-1E+10	1	-1E+10	1	-1E+10	1
4902549	78	C	10/08/2022	13:59	-131.964	47.088	0	293.80	0	5.9890	0	33.9200	0	26.704	0	291.152	0	80.8	4	26.7	4	-1E+10	1	-1E+10	1	-1E+10	1	-1E+10	1	-1E+10	1	-1E+10	1
4902549	78	C	10/08/2022	13:59	-131.964	47.088	0	294.70	0	5.9870	0	33.9200	0	26.704	0	292.043	0	80.5	4	26.6	4	-1E+10	1	-1E+10	1	-1E+10	1	-1E+10	1	-1E+10	1	-1E+10	1
4902549	78	C	10/08/2022	13:59	-131.964	47.088	0	295.60	0	5.9820	0	33.9200	0	26.705	0	292.934	0	80.1	4	26.4	4	-1E+10	1	-1E+10	1	-1E+10	1	-1E+10	1	-1E+10	1	-1E+10	1
4902549	78	C	10/08/2022	13:59	-131.964	47.088	0	296.50	0	5.9840	0	33.9200	0	26.705	0	293.826	0	79.7	4	26.3	4	-1E+10	1	-1E+10	1	-1E+10	1	-1E+10	1	-1E+10	1	-1E+10	1
4902549	78	C	10/08/2022	13:59	-131.964	47.088	0	297.90	0	5.9600	0	33.9210	0	26.708	0	295.212	0	79.0	4	26.1	4	-1E+10	1	-1E+10	1	-1E+10	1	-1E+10	1	-1E+10	1	-1E+10	1
4902549	78	C	10/08/2022	13:59	-131.964	47.088	0	299.40	0	5.9370	0	33.9180	0	26.709	0	296.697	0	78.2	4	25.8	4	-1E+10	1	-1E+10	1	-1E+10	1	-1E+10	1	-1E+10	1	-1E+10	1
4902549	78	C	10/08/2022	13:59	-131.964	47.088	0	300.30	0	5.9360	0	33.9220	0	26.712	0	297.589	0	77.7	4	25.6	4	-1E+10	1	-1E+10	1	-1E+10	1	-1E+10	1	-1E+10	1	-1E+10	1
4902549	78	C	10/08/2022	13:59	-131.964	47.088	0	301.20	0	5.9160	0	33.9220	0	26.715	0	298.480	0	77.2	4	25.5	4	-1E+10	1	-1E+10	1	-1E+10	1	-1E+10	1	-1E+10	1	-1E+10	1
4902549	78	C	10/08/2022	13:59	-131.964	47.088	0	302.20	0	5.9100	0	33.9250	0	26.718	0	299.470	0	76.8	4	25.3	4	-1E+10	1	-1E+10	1	-1E+10	1	-1E+10	1	-1E+10	1	-1E+10	1
4902549	78	C	10/08/2022	13:59	-131.964	47.088	0	303.10	0	5.8980	0	33.9250	0	26.719	0	300.361	0	76.2	4	25.1	4	-1E+10	1	-1E+10	1	-1E+10	1	-1E+10	1	-1E+10	1	-1E+10	1
4902549	78	C	10/08/2022	13:59	-131.964	47.088	0	304.10	0	5.9110	0	33.9280	0	26.720	0	301.352	0	75.9	4	25.0	4	-1E+10	1	-1E+10	1	-1E+10	1	-1E+10	1	-1E+10	1	-1E+10	1
4902549	78	C	10/08/2022	13:59	-131.964	47.088	0	305.00	0	5.9250	0	33.9310	0	26.721	0	302.243	0	75.7	4	25.0	4	-1E+10	1	-1E+10	1	-1E+10	1	-1E+10	1	-1E+10	1	-1E+10	1
4902549	78	C	10/08/2022	13:59	-131.964	47.088	0	306.00	0	5.9140	0	33.9320	0	26.723	0	303.233	0	75.5	4	24.9	4	-1E+10	1	-1E+10	1	-1E+10	1	-1E+10	1	-1E+10	1	-1E+10	1
4902549	78	C	10/08/2022	13:59	-131.964	47.088	0	307.00	0	5.8910	0	33.9320	0	26.726	0	304.223	0	75.4	4	24.8	4	-1E+10	1	-1E+10	1	-1E+10	1	-1E+10	1	-1E+10	1	-1E+10	1
4902549	78	C	10/08/2022	13:59	-131.964	47.088	0	307.90	0	5.8690	0	33.9330	0	26.729	0	305.114	0	75.1	4	24.8	4	-1E+10	1	-1E+10	1	-1E+10	1	-1E+10	1	-1E+10	1	-1E+10	1
4902549	78	C	10/08/2022	13:59	-131.964	47.088	0	308.90	0	5.8640	0	33.9310	0	26.728	0	306.105	0	74.9	4	24.7	4	-1E+10	1	-1E+10	1	-1E+10	1	-1E+10	1	-1E+10	1	-1E+10	1
4902549	78	C	10/08/2022	13:59	-131.964	47.088	0	309.90	0	5.8590	0	33.9310	0	26.729	0	307.095	0	74.5	4	24.5	4	-1E+10	1	-1E+10	1	-1E+10	1	-1E+10	1	-1E+10	1	-1E+10	1
4902549	78	C	10/08/2022	13:59	-131.964	47.088	0	310.90	0	5.8520	0	33.9300	0	26.729	0	308.085	0	74.2	4	24.4	4	-1E+10	1	-1E+10	1	-1E+10	1	-1E+10	1	-1E+10	1	-1E+10	1
4902549	78	C	10/08/2022	13:59	-131.964	47.088	0	311.90	0	5.8440	0	33.9310	0	26.731	0	309.075	0	73.7	4	24.3	4	-1E+10	1	-1E+10	1	-1E+10	1	-1E+10	1	-1E+10	1	-1E+10	1
4902549	78	C	10/08/2022	13:59	-131.964	47.088	0	312.80	0	5.8450	0	33.9330	0	26.732	0	309.966	0	73.4	4	24.2	4	-1E+10	1	-1E+10	1	-1E+10	1	-1E+10	1	-1E+10	1	-1E+10	1
4902549	78	C	10/08/2022	13:59	-131.964	47.088	0	313.80	0	5.8460	0	33.9330	0	26.732	0	310.957	0	72.9	4	24.0	4	-1E+10	1	-1E+10	1	-1E+10	1	-1E+10	1	-1E+10	1	-1E+10	1
4902549	78	C	10/08/2022	13:59	-131.964	47.088	0	314.80	0	5.8470	0	33.9330	0	26.732	0	311.947	0	72.5	4	23.9	4	-1E+10	1	-1E+10	1	-1E+10	1	-1E+10	1	-1E+10	1	-1E+10	1
4902549	78	C	10/08/2022	13:59	-131.964	47.088	0	315.80	0	5.8480	0	33.9330	0	26.732	0	312.937	0	72.0	4	23.7	4	-1E+10	1	-1E+10	1	-1E+10	1	-1E+10	1	-1E+10	1	-1E+10	1
4902549	78	C	10/08/2022	13:59	-131.964	47.088	0	316.70	0	5.8500	0	33.9340	0	26.732	0	313.828	0	71.4	4	23.5	4	-1E+10	1	-1E+10	1	-1E+10	1	-1E+10	1	-1E+10	1	-1E+10	1
4902549	78	C	10/08/2022	13:59	-131.964	47.088	0	317.70	0	5.8530	0	33.9360	0	26.734	0	314.818	0	70.9	4	23.4	4	-1E+10	1	-1E+10	1	-1E+10	1	-1E+10	1	-1E+10	1	-1E+10	1
4902549	78	C	10/08/2022	13:59	-131.964	47.088	0	318.70	0	5.8510	0	33.9380	0	26.736	0	315.809	0	70.5	4	23.2	4	-1E+10	1	-1E+10	1	-1E+10	1	-1E+10	1	-1E+10	1	-1E+10	1
4902549	78	C	10/08/2022	13:59	-131.964	47.088	0	319.70	0	5.8430	0	33.9400	0	26.738	0	316.799	0	70.1	4	23.1	4	-1E+10	1	-1E+10	1	-1E+10	1	-1E+10	1	-1E+10	1	-1E+10	1
4902549	78	C	10/08/2022	13:59	-131.964	47.088	0	320.60	0	5.8460	0	33.9400	0	26.738	0	317.690	0	69.8	4	23.0	4	-1E+10	1	-1E+10	1	-1E+10	1	-1E+10	1	-1E+10	1	-1E+10	1
4902549	78	C	10/08/2022	13:59	-131.964	47.088	0	321.60	0	5.8390	0	33.9400	0	26.739	0	318.680	0	69.4	4	22.8	4	-1E+10	1	-1E+10	1	-1E+10	1	-1E+10	1	-1E+10	1	-1E+10	1
4902549	78	C	10/08/2022	13:59	-131.964	47.088	0	322.60	0	5.8330	0	33.9420	0	26.741	0	319.670	0	69.0	4	22.7	4	-1E+10	1	-1E+10	1	-1E+10	1	-1E+10	1	-1E+10	1	-1E+10	1
4902549	78	C	10/08/2022	13:59	-131.964	47.088	0	323.60	0	5.8300	0	33.9420	0	26.741	0	320.660	0	68.6	4	22.6	4	-1E+10	1	-1E+10	1	-1E+10	1	-1E+10	1	-1E+10	1	-1E+10	1
4902549	78	C	10/08/2022	13:59	-131.964	47.088	0	324.60	0	5.8270	0	33.9420	0	26.742	0	321.650	0	68.2	4	22.5	4	-1E+10	1	-1E+10	1	-1E+10	1	-1E+10	1	-1E+10	1	-1E+10	1
4902549	78	C	10/08/2022	13:59	-131.964	47.088	0	325.60	0	5.8140	0	33.9450	0	26.746	0	322.641	0	68.0	4	22.4	4	-1E+10	1	-1E+10	1	-1E+10	1	-1E+10	1	-1E+10	1	-1E+10	1
4902549	78	C	10/08/2022	13:59	-131.964	47.088	0	326.50	0	5.8070	0	33.9450	0	26.747	0	323.532	0	67.8	4	22.3	4	-1E+10	1	-1E+10	1	-1E+10	1	-1E+10	1	-1E+10	1	-1E+10	1
4902549	78	C	10/08/2022	13:59	-131.964	47.088	0	327.50	0	5.7960	0	33.9470	0	26.749	0	324.522	0	67.7	4	22.3	4	-1E+10	1	-1E+10	1	-1E+10	1	-1E+10	1	-1E+10	1	-1E+10	1
4902549	78	C	10/08/2022	13:59	-131.964	47.088	0	328.50	0	5.7810	0	33.9460	0	26.751	0	325.512	0	67.6	4	22.2	4	-1E+10	1	-1E+10	1	-1E+10	1	-1E+10	1	-1E+10	1	-1E+10	1
4902549	78	C	10/08/2022	13:59	-131.964	47.088	0	329.60	0	5.7500	0	33.9470	0	26.755	0	326.601	0	67.3	4	22.1	4	-1E+10	1	-1E+10	1	-1E+10	1	-1E+10	1	-1E+10	1	-1E+10	1
4902549	78	C	10/08/2022	13:59	-131.964	47.088	0	330.60	0	5.7210	0	33.9440	0	26.756	0	327.591	0	67.0	4	22.0	4	-1E+10	1	-1E+10	1	-1E+10	1	-1E+10	1	-1E+10	1	-1E+10	1
4902549	78	C	10/08/2022	13:59	-131.964	47.088	0	331.60	0	5.6920	0	33.9410	0	26.757	0	328.581	0	66.4	4	21.8	4	-1E+10	1	-1E+10	1	-1E+10	1	-1E+10	1	-1E+10	1	-1E+10	1
4902549	78	C	10/08/2022	13:59	-131.964	47.088	0	332.60	0	5.6870	0	33.9430	0	26.760	0	329.571	0	65.8	4	21.6	4	-1E+10	1	-1E+10	1	-1E+10	1	-1E+10	1	-1E+10	1	-1E+10	1
4902549	78	C	10/08/2022	13:59	-131.964	47.088	0	333.70	0	5.6880	0	33.9390	0	26.756	0	330.661	0	65.1	4	21.4	4	-1E+10	1	-1E+10	1	-1E+10	1	-1E+10	1	-1E+10	1	-1E+10	1
4902549	78	C	10/08/2022	13:59	-131.964	47.088	0	334.70	0	5.6990	0	33.9450	0	26.760	0	331.651	0	64.5	4	21.2	4	-1E+10	1	-1E+10	1	-1E+10	1	-1E+10	1	-1E+10	1	-1E+10	1
4902549	78	C	10/08/2022	13:59	-131.964	47.088	0	335.70	0	5.7110	0	33.9480	0	26.761	0	332.641	0	64.0	4	21.0	4	-1E+10	1	-1E+10	1	-1E+10	1	-1E+10	1	-1E+10	1	-1E+10	1
4902549	78	C	10/08/2022	13:59	-131.964	47.088	0	336.80	0	5.7050	0	33.9520	0	26.765	0	333.730	0	63.7	4	20.9	4	-1E+10	1	-1E+10	1	-1E+10	1	-1E+10	1	-1E+10	1	-1E+10	1
4902549	78	C	10/08/2022	13:59	-131.964	47.088	0	337.80	0	5.6910	0	33.9540	0	26.768	0	334.720	0	63.5	4	20.8	4	-1E+10	1	-1E+10	1	-1E+10	1	-1E+10	1	-1E+10	1	-1E+10	1
4902549	78	C	10/08/2022	13:59	-131.964	47.088	0	338.80	0	5.6830	0	33.9550	0	26.770	0	335.710	0	63.2	4	20.7	4	-1E+10	1	-1E+10	1	-1E+10	1	-1E+10	1	-1E+10	1	-1E+10	1
4902549	78	C	10/08/2022	13:59	-131.964	47.088	0	339.90	0	5.6770	0	33.9530	0	26.769	0	336.799	0	62.9	4	20.6	4	-1E+10	1	-1E+10	1	-1E+10	1	-1E+10	1	-1E+10	1	-1E+10	1
4902549	78	C	10/08/2022	13:59	-131.964	47.088	0	340.90	0	5.6650	0	33.9550	0	26.772	0	337.789	0	62.4	4	20.5	4	-1E+10	1	-1E+10	1	-1E+10	1	-1E+10	1	-1E+10	1	-1E+10	1
4902549	78	C	10/08/2022	13:59	-131.964	47.088	0	342.00	0	5.6540	0	33.9560	0	26.774	0	338.878	0	62.0	4	20.3	4	-1E+10	1	-1E+10	1	-1E+10	1	-1E+10	1	-1E+10	1	-1E+10	1
4902549	78	C	10/08/2022	13:59	-131.964	47.088	0	343.00	0	5.6470	0	33.9550	0	26.774	0	339.868	0	61.7	4	20.2	4	-1E+10	1	-1E+10	1	-1E+10	1	-1E+10	1	-1E+10	1	-1E+10	1
4902549	78	C	10/08/2022	13:59	-131.964	47.088	0	344.10	0	5.6480	0	33.9550	0	26.774	0	340.957	0	61.2	4	20.1	4	-1E+10	1	-1E+10	1	-1E+10	1	-1E+10	1	-1E+10	1	-1E+10	1
4902549	78	C	10/08/2022	13:59	-131.964	47.088	0	345.10	0	5.6380	0	33.9560	0	26.776	0	341.947	0	60.8	4	19.9	4	-1E+10	1	-1E+10	1	-1E+10	1	-1E+10	1	-1E+10	1	-1E+10	1
4902549	78	C	10/08/2022	13:59	-131.964	47.088	0	346.20	0	5.6310	0	33.9560	0	26.777	0	343.036	0	60.3	4	19.8	4	-1E+10	1	-1E+10	1	-1E+10	1	-1E+10	1	-1E+10	1	-1E+10	1
4902549	78	C	10/08/2022	13:59	-131.964	47.088	0	347.20	0	5.6160	0	33.9570	0	26.779	0	344.026	0	59.9	4	19.6	4	-1E+10	1	-1E+10	1	-1E+10	1	-1E+10	1	-1E+10	1	-1E+10	1
4902549	78	C	10/08/2022	13:59	-131.964	47.088	0	348.30	0	5.6100	0	33.9570	0	26.780	0	345.115	0	59.4	4	19.5	4	-1E+10	1	-1E+10	1	-1E+10	1	-1E+10	1	-1E+10	1	-1E+10	1
4902549	78	C	10/08/2022	13:59	-131.964	47.088	0	349.30	0	5.6120	0	33.9620	0	26.784	0	346.105	0	59.1	4	19.4	4	-1E+10	1	-1E+10	1	-1E+10	1	-1E+10	1	-1E+10	1	-1E+10	1
4902549	78	C	10/08/2022	13:59	-131.964	47.088	0	350.40	0	5.6010	0	33.9660	0	26.788	0	347.194	0	58.8	4	19.3	4	-1E+10	1	-1E+10	1	-1E+10	1	-1E+10	1	-1E+10	1	-1E+10	1
4902549	78	C	10/08/2022	13:59	-131.964	47.088	0	353.00	0	5.5820	0	33.9650	0	26.790	0	349.768	0	58.3	4	19.1	4	-1E+10	1	-1E+10	1	-1E+10	1	-1E+10	1	-1E+10	1	-1E+10	1
4902549	78	C	10/08/2022	13:59	-131.964	47.088	0	357.70	0	5.5650	0	33.9660	0	26.793	0	354.421	0	57.1	4	18.7	4	-1E+10	1	-1E+10	1	-1E+10	1	-1E+10	1	-1E+10	1	-1E+10	1
4902549	78	C	10/08/2022	13:59	-131.964	47.088	0	363.00	0	5.5380	0	33.9690	0	26.799	0	359.668	0	55.4	4	18.1	4	-1E+10	1	-1E+10	1	-1E+10	1	-1E+10	1	-1E+10	1	-1E+10	1
4902549	78	C	10/08/2022	13:59	-131.964	47.088	0	368.20	0	5.4660	0	33.9720	0	26.810	0	364.816	0	53.7	4	17.5	4	-1E+10	1	-1E+10	1	-1E+10	1	-1E+10	1	-1E+10	1	-1E+10	1
4902549	78	C	10/08/2022	13:59	-131.964	47.088	0	373.00	0	5.4420	0	33.9800	0	26.819	0	369.568	0	52.3	4	17.1	4	-1E+10	1	-1E+10	1	-1E+10	1	-1E+10	1	-1E+10	1	-1E+10	1
4902549	78	C	10/08/2022	13:59	-131.964	47.088	0	377.80	0	5.4230	0	33.9810	0	26.822	0	374.319	0	51.5	4	16.8	4	-1E+10	1	-1E+10	1	-1E+10	1	-1E+10	1	-1E+10	1	-1E+10	1
4902549	78	C	10/08/2022	13:59	-131.964	47.088	0	383.10	0	5.4160	0	33.9850	0	26.826	0	379.565	0	50.1	4	16.3	4	-1E+10	1	-1E+10	1	-1E+10	1	-1E+10	1	-1E+10	1	-1E+10	1
4902549	78	C	10/08/2022	13:59	-131.964	47.088	0	387.80	0	5.4150	0	33.9900	0	26.830	0	384.218	0	49.5	4	16.1	4	-1E+10	1	-1E+10	1	-1E+10	1	-1E+10	1	-1E+10	1	-1E+10	1
4902549	78	C	10/08/2022	13:59	-131.964	47.088	0	392.60	0	5.3920	0	33.9920	0	26.834	0	388.969	0	49.7	4	16.2	4	-1E+10	1	-1E+10	1	-1E+10	1	-1E+10	1	-1E+10	1	-1E+10	1
4902549	78	C	10/08/2022	13:59	-131.964	47.088	0	397.80	0	5.3180	0	33.9870	0	26.839	0	394.116	0	50.6	4	16.5	4	-1E+10	1	-1E+10	1	-1E+10	1	-1E+10	1	-1E+10	1	-1E+10	1
4902549	78	C	10/08/2022	13:59	-131.964	47.088	0	403.00	0	5.2160	0	33.9810	0	26.846	0	399.263	0	50.2	4	16.3	4	-1E+10	1	-1E+10	1	-1E+10	1	-1E+10	1	-1E+10	1	-1E+10	1
4902549	78	C	10/08/2022	13:59	-131.964	47.088	0	408.20	0	5.1890	0	33.9840	0	26.852	0	404.409	0	49.2	4	16.0	4	-1E+10	1	-1E+10	1	-1E+10	1	-1E+10	1	-1E+10	1	-1E+10	1
4902549	78	C	10/08/2022	13:59	-131.964	47.088	0	412.80	0	5.1790	0	33.9870	0	26.855	0	408.962	0	47.9	4	15.5	4	-1E+10	1	-1E+10	1	-1E+10	1	-1E+10	1	-1E+10	1	-1E+10	1
4902549	78	C	10/08/2022	13:59	-131.964	47.088	0	417.50	0	5.1690	0	33.9930	0	26.861	0	413.614	0	47.1	4	15.3	4	-1E+10	1	-1E+10	1	-1E+10	1	-1E+10	1	-1E+10	1	-1E+10	1
4902549	78	C	10/08/2022	13:59	-131.964	47.088	0	422.60	0	5.1510	0	33.9940	0	26.864	0	418.661	0	46.4	4	15.0	4	-1E+10	1	-1E+10	1	-1E+10	1	-1E+10	1	-1E+10	1	-1E+10	1
4902549	78	C	10/08/2022	13:59	-131.964	47.088	0	427.70	0	5.1120	0	33.9990	0	26.873	0	423.708	0	45.7	4	14.8	4	-1E+10	1	-1E+10	1	-1E+10	1	-1E+10	1	-1E+10	1	-1E+10	1
4902549	78	C	10/08/2022	13:59	-131.964	47.088	0	432.90	0	5.0690	0	33.9990	0	26.878	0	428.854	0	45.1	4	14.6	4	-1E+10	1	-1E+10	1	-1E+10	1	-1E+10	1	-1E+10	1	-1E+10	1
4902549	78	C	10/08/2022	13:59	-131.964	47.088	0	438.20	0	4.9620	0	33.9980	0	26.889	0	434.099	0	44.2	4	14.3	4	-1E+10	1	-1E+10	1	-1E+10	1	-1E+10	1	-1E+10	1	-1E+10	1
4902549	78	C	10/08/2022	13:59	-131.964	47.088	0	443.00	0	4.9420	0	34.0030	0	26.895	0	438.849	0	42.8	4	13.8	4	-1E+10	1	-1E+10	1	-1E+10	1	-1E+10	1	-1E+10	1	-1E+10	1
4902549	78	C	10/08/2022	13:59	-131.964	47.088	0	447.80	0	4.9360	0	34.0100	0	26.902	0	443.599	0	41.6	4	13.4	4	-1E+10	1	-1E+10	1	-1E+10	1	-1E+10	1	-1E+10	1	-1E+10	1
4902549	78	C	10/08/2022	13:59	-131.964	47.088	0	453.00	0	4.9260	0	34.0140	0	26.906	0	448.745	0	40.8	4	13.1	4	-1E+10	1	-1E+10	1	-1E+10	1	-1E+10	1	-1E+10	1	-1E+10	1
4902549	78	C	10/08/2022	13:59	-131.964	47.088	0	458.20	0	4.9070	0	34.0160	0	26.910	0	453.890	0	40.1	4	12.9	4	-1E+10	1	-1E+10	1	-1E+10	1	-1E+10	1	-1E+10	1	-1E+10	1
4902549	78	C	10/08/2022	13:59	-131.964	47.088	0	463.00	0	4.8750	0	34.0170	0	26.914	0	458.640	0	39.1	4	12.6	4	-1E+10	1	-1E+10	1	-1E+10	1	-1E+10	1	-1E+10	1	-1E+10	1
4902549	78	C	10/08/2022	13:59	-131.964	47.088	0	467.80	0	4.8490	0	34.0200	0	26.920	0	463.389	0	37.2	4	12.0	4	-1E+10	1	-1E+10	1	-1E+10	1	-1E+10	1	-1E+10	1	-1E+10	1
4902549	78	C	10/08/2022	13:59	-131.964	47.088	0	472.90	0	4.8180	0	34.0310	0	26.932	0	468.435	0	35.2	4	11.3	4	-1E+10	1	-1E+10	1	-1E+10	1	-1E+10	1	-1E+10	1	-1E+10	1
4902549	78	C	10/08/2022	13:59	-131.964	47.088	0	478.00	0	4.8300	0	34.0390	0	26.937	0	473.482	0	34.1	4	11.0	4	-1E+10	1	-1E+10	1	-1E+10	1	-1E+10	1	-1E+10	1	-1E+10	1
4902549	78	C	10/08/2022	13:59	-131.964	47.088	0	483.00	0	4.8160	0	34.0430	0	26.942	0	478.429	0	33.3	4	10.7	4	-1E+10	1	-1E+10	1	-1E+10	1	-1E+10	1	-1E+10	1	-1E+10	1
4902549	78	C	10/08/2022	13:59	-131.964	47.088	0	488.10	0	4.7420	0	34.0460	0	26.952	0	483.474	0	32.6	4	10.5	4	-1E+10	1	-1E+10	1	-1E+10	1	-1E+10	1	-1E+10	1	-1E+10	1
4902549	78	C	10/08/2022	13:59	-131.964	47.088	0	492.80	0	4.7160	0	34.0470	0	26.956	0	488.124	0	31.7	4	10.2	4	-1E+10	1	-1E+10	1	-1E+10	1	-1E+10	1	-1E+10	1	-1E+10	1
4902549	78	C	10/08/2022	13:59	-131.964	47.088	0	497.60	0	4.6970	0	34.0530	0	26.963	0	492.873	0	30.4	4	9.7	4	-1E+10	1	-1E+10	1	-1E+10	1	-1E+10	1	-1E+10	1	-1E+10	1
4902549	78	C	10/08/2022	13:59	-131.964	47.088	0	502.80	0	4.6850	0	34.0580	0	26.968	0	498.017	0	29.4	4	9.4	4	-1E+10	1	-1E+10	1	-1E+10	1	-1E+10	1	-1E+10	1	-1E+10	1
4902549	78	C	10/08/2022	13:59	-131.964	47.088	0	508.00	0	4.6710	0	34.0630	0	26.974	0	503.162	0	28.4	4	9.1	4	-1E+10	1	-1E+10	1	-1E+10	1	-1E+10	1	-1E+10	1	-1E+10	1
4902549	78	C	10/08/2022	13:59	-131.964	47.088	0	513.20	0	4.6510	0	34.0660	0	26.978	0	508.306	0	27.2	4	8.7	4	-1E+10	1	-1E+10	1	-1E+10	1	-1E+10	1	-1E+10	1	-1E+10	1
4902549	78	C	10/08/2022	13:59	-131.964	47.088	0	518.00	0	4.6390	0	34.0720	0	26.984	0	513.054	0	26.2	4	8.4	4	-1E+10	1	-1E+10	1	-1E+10	1	-1E+10	1	-1E+10	1	-1E+10	1
4902549	78	C	10/08/2022	13:59	-131.964	47.088	0	522.80	0	4.6140	0	34.0780	0	26.992	0	517.802	0	25.1	4	8.0	4	-1E+10	1	-1E+10	1	-1E+10	1	-1E+10	1	-1E+10	1	-1E+10	1
4902549	78	C	10/08/2022	13:59	-131.964	47.088	0	527.80	0	4.5970	0	34.0830	0	26.998	0	522.748	0	24.1	4	7.7	4	-1E+10	1	-1E+10	1	-1E+10	1	-1E+10	1	-1E+10	1	-1E+10	1
4902549	78	C	10/08/2022	13:59	-131.964	47.088	0	532.80	0	4.5800	0	34.0890	0	27.005	0	527.694	0	23.2	4	7.4	4	-1E+10	1	-1E+10	1	-1E+10	1	-1E+10	1	-1E+10	1	-1E+10	1
4902549	78	C	10/08/2022	13:59	-131.964	47.088	0	537.90	0	4.5540	0	34.0930	0	27.011	0	532.739	0	22.4	4	7.2	4	-1E+10	1	-1E+10	1	-1E+10	1	-1E+10	1	-1E+10	1	-1E+10	1
4902549	78	C	10/08/2022	13:59	-131.964	47.088	0	542.70	0	4.5360	0	34.0970	0	27.016	0	537.486	0	21.7	4	6.9	4	-1E+10	1	-1E+10	1	-1E+10	1	-1E+10	1	-1E+10	1	-1E+10	1
4902549	78	C	10/08/2022	13:59	-131.964	47.088	0	547.90	0	4.5180	0	34.1020	0	27.022	0	542.630	0	20.8	4	6.6	4	-1E+10	1	-1E+10	1	-1E+10	1	-1E+10	1	-1E+10	1	-1E+10	1
4902549	78	C	10/08/2022	13:59	-131.964	47.088	0	553.40	0	4.4940	0	34.1090	0	27.030	0	548.069	0	20.2	4	6.5	4	-1E+10	1	-1E+10	1	-1E+10	1	-1E+10	1	-1E+10	1	-1E+10	1
4902549	78	C	10/08/2022	13:59	-131.964	47.088	0	558.40	0	4.4800	0	34.1110	0	27.033	0	553.015	0	19.9	4	6.3	4	-1E+10	1	-1E+10	1	-1E+10	1	-1E+10	1	-1E+10	1	-1E+10	1
4902549	78	C	10/08/2022	13:59	-131.964	47.088	0	562.90	0	4.4640	0	34.1130	0	27.036	0	557.465	0	19.3	4	6.1	4	-1E+10	1	-1E+10	1	-1E+10	1	-1E+10	1	-1E+10	1	-1E+10	1
4902549	78	C	10/08/2022	13:59	-131.964	47.088	0	567.60	0	4.4490	0	34.1160	0	27.040	0	562.113	0	18.4	4	5.9	4	-1E+10	1	-1E+10	1	-1E+10	1	-1E+10	1	-1E+10	1	-1E+10	1
4902549	78	C	10/08/2022	13:59	-131.964	47.088	0	572.90	0	4.4390	0	34.1220	0	27.046	0	567.355	0	17.4	4	5.5	4	-1E+10	1	-1E+10	1	-1E+10	1	-1E+10	1	-1E+10	1	-1E+10	1
4902549	78	C	10/08/2022	13:59	-131.964	47.088	0	578.00	0	4.4290	0	34.1290	0	27.053	0	572.399	0	16.6	4	5.3	4	-1E+10	1	-1E+10	1	-1E+10	1	-1E+10	1	-1E+10	1	-1E+10	1
4902549	78	C	10/08/2022	13:59	-131.964	47.088	0	583.30	0	4.4180	0	34.1340	0	27.058	0	577.640	0	16.0	4	5.1	4	-1E+10	1	-1E+10	1	-1E+10	1	-1E+10	1	-1E+10	1	-1E+10	1
4902549	78	C	10/08/2022	13:59	-131.964	47.088	0	588.40	0	4.4070	0	34.1400	0	27.064	0	582.683	0	15.5	4	4.9	4	-1E+10	1	-1E+10	1	-1E+10	1	-1E+10	1	-1E+10	1	-1E+10	1
4902549	78	C	10/08/2022	13:59	-131.964	47.088	0	593.00	0	4.4020	0	34.1430	0	27.067	0	587.232	0	15.1	4	4.8	4	-1E+10	1	-1E+10	1	-1E+10	1	-1E+10	1	-1E+10	1	-1E+10	1
4902549	78	C	10/08/2022	13:59	-131.964	47.088	0	597.70	0	4.3980	0	34.1460	0	27.070	0	591.880	0	14.6	4	4.7	4	-1E+10	1	-1E+10	1	-1E+10	1	-1E+10	1	-1E+10	1	-1E+10	1
4902549	78	C	10/08/2022	13:59	-131.964	47.088	0	602.90	0	4.3890	0	34.1500	0	27.074	0	597.022	0	14.1	4	4.5	4	-1E+10	1	-1E+10	1	-1E+10	1	-1E+10	1	-1E+10	1	-1E+10	1
4902549	78	C	10/08/2022	13:59	-131.964	47.088	0	608.20	0	4.3770	0	34.1540	0	27.079	0	602.262	0	13.6	4	4.3	4	-1E+10	1	-1E+10	1	-1E+10	1	-1E+10	1	-1E+10	1	-1E+10	1
4902549	78	C	10/08/2022	13:59	-131.964	47.088	0	613.20	0	4.3670	0	34.1580	0	27.083	0	607.206	0	13.1	4	4.2	4	-1E+10	1	-1E+10	1	-1E+10	1	-1E+10	1	-1E+10	1	-1E+10	1
4902549	78	C	10/08/2022	13:59	-131.964	47.088	0	617.90	0	4.3570	0	34.1650	0	27.090	0	611.853	0	12.8	4	4.1	4	-1E+10	1	-1E+10	1	-1E+10	1	-1E+10	1	-1E+10	1	-1E+10	1
4902549	78	C	10/08/2022	13:59	-131.964	47.088	0	622.70	0	4.3450	0	34.1670	0	27.092	0	616.599	0	12.5	4	4.0	4	-1E+10	1	-1E+10	1	-1E+10	1	-1E+10	1	-1E+10	1	-1E+10	1
4902549	78	C	10/08/2022	13:59	-131.964	47.088	0	628.10	0	4.3390	0	34.1680	0	27.094	0	621.938	0	12.2	4	3.9	4	-1E+10	1	-1E+10	1	-1E+10	1	-1E+10	1	-1E+10	1	-1E+10	1
4902549	78	C	10/08/2022	13:59	-131.964	47.088	0	633.10	0	4.3360	0	34.1700	0	27.096	0	626.882	0	11.8	4	3.7	4	-1E+10	1	-1E+10	1	-1E+10	1	-1E+10	1	-1E+10	1	-1E+10	1
4902549	78	C	10/08/2022	13:59	-131.964	47.088	0	637.70	0	4.3260	0	34.1750	0	27.101	0	631.430	0	11.4	4	3.6	4	-1E+10	1	-1E+10	1	-1E+10	1	-1E+10	1	-1E+10	1	-1E+10	1
4902549	78	C	10/08/2022	13:59	-131.964	47.088	0	642.50	0	4.3170	0	34.1800	0	27.106	0	636.175	0	11.1	4	3.5	4	-1E+10	1	-1E+10	1	-1E+10	1	-1E+10	1	-1E+10	1	-1E+10	1
4902549	78	C	10/08/2022	13:59	-131.964	47.088	0	647.90	0	4.3060	0	34.1830	0	27.109	0	641.514	0	10.8	4	3.4	4	-1E+10	1	-1E+10	1	-1E+10	1	-1E+10	1	-1E+10	1	-1E+10	1
4902549	78	C	10/08/2022	13:59	-131.964	47.088	0	653.30	0	4.3030	0	34.1860	0	27.112	0	646.852	0	10.6	4	3.4	4	-1E+10	1	-1E+10	1	-1E+10	1	-1E+10	1	-1E+10	1	-1E+10	1
4902549	78	C	10/08/2022	13:59	-131.964	47.088	0	658.20	0	4.2970	0	34.1880	0	27.114	0	651.696	0	10.3	4	3.3	4	-1E+10	1	-1E+10	1	-1E+10	1	-1E+10	1	-1E+10	1	-1E+10	1
4902549	78	C	10/08/2022	13:59	-131.964	47.088	0	663.10	0	4.2910	0	34.1910	0	27.118	0	656.540	0	10.0	4	3.2	4	-1E+10	1	-1E+10	1	-1E+10	1	-1E+10	1	-1E+10	1	-1E+10	1
4902549	78	C	10/08/2022	13:59	-131.964	47.088	0	668.10	0	4.2750	0	34.1950	0	27.122	0	661.482	0	9.7	4	3.1	4	-1E+10	1	-1E+10	1	-1E+10	1	-1E+10	1	-1E+10	1	-1E+10	1
4902549	78	C	10/08/2022	13:59	-131.964	47.088	0	673.10	0	4.2590	0	34.1990	0	27.127	0	666.425	0	9.4	4	3.0	4	-1E+10	1	-1E+10	1	-1E+10	1	-1E+10	1	-1E+10	1	-1E+10	1
4902549	78	C	10/08/2022	13:59	-131.964	47.088	0	678.10	0	4.2430	0	34.2040	0	27.133	0	671.367	0	9.1	4	2.9	4	-1E+10	1	-1E+10	1	-1E+10	1	-1E+10	1	-1E+10	1	-1E+10	1
4902549	78	C	10/08/2022	13:59	-131.964	47.088	0	683.10	0	4.2370	0	34.2070	0	27.136	0	676.309	0	8.9	4	2.8	4	-1E+10	1	-1E+10	1	-1E+10	1	-1E+10	1	-1E+10	1	-1E+10	1
4902549	78	C	10/08/2022	13:59	-131.964	47.088	0	688.10	0	4.2290	0	34.2090	0	27.139	0	681.252	0	8.7	4	2.8	4	-1E+10	1	-1E+10	1	-1E+10	1	-1E+10	1	-1E+10	1	-1E+10	1
4902549	78	C	10/08/2022	13:59	-131.964	47.088	0	693.10	0	4.2020	0	34.2150	0	27.146	0	686.194	0	8.5	4	2.7	4	-1E+10	1	-1E+10	1	-1E+10	1	-1E+10	1	-1E+10	1	-1E+10	1
4902549	78	C	10/08/2022	13:59	-131.964	47.088	0	698.20	0	4.1940	0	34.2170	0	27.149	0	691.234	0	8.4	4	2.7	4	-1E+10	1	-1E+10	1	-1E+10	1	-1E+10	1	-1E+10	1	-1E+10	1
4902549	78	C	10/08/2022	13:59	-131.964	47.088	0	703.20	0	4.1840	0	34.2190	0	27.151	0	696.176	0	8.2	4	2.6	4	-1E+10	1	-1E+10	1	-1E+10	1	-1E+10	1	-1E+10	1	-1E+10	1
4902549	78	C	10/08/2022	13:59	-131.964	47.088	0	708.10	0	4.1760	0	34.2240	0	27.156	0	701.019	0	7.9	4	2.5	4	-1E+10	1	-1E+10	1	-1E+10	1	-1E+10	1	-1E+10	1	-1E+10	1
4902549	78	C	10/08/2022	13:59	-131.964	47.088	0	713.10	0	4.1690	0	34.2270	0	27.159	0	705.960	0	7.8	4	2.5	4	-1E+10	1	-1E+10	1	-1E+10	1	-1E+10	1	-1E+10	1	-1E+10	1
4902549	78	C	10/08/2022	13:59	-131.964	47.088	0	718.10	0	4.1500	0	34.2300	0	27.164	0	710.902	0	7.6	4	2.4	4	-1E+10	1	-1E+10	1	-1E+10	1	-1E+10	1	-1E+10	1	-1E+10	1
4902549	78	C	10/08/2022	13:59	-131.964	47.088	0	723.10	0	4.1300	0	34.2330	0	27.168	0	715.843	0	7.4	4	2.3	4	-1E+10	1	-1E+10	1	-1E+10	1	-1E+10	1	-1E+10	1	-1E+10	1
4902549	78	C	10/08/2022	13:59	-131.964	47.088	0	728.10	0	4.1060	0	34.2380	0	27.175	0	720.784	0	7.1	4	2.2	4	-1E+10	1	-1E+10	1	-1E+10	1	-1E+10	1	-1E+10	1	-1E+10	1
4902549	78	C	10/08/2022	13:59	-131.964	47.088	0	733.10	0	4.0990	0	34.2440	0	27.180	0	725.725	0	6.8	4	2.1	4	-1E+10	1	-1E+10	1	-1E+10	1	-1E+10	1	-1E+10	1	-1E+10	1
4902549	78	C	10/08/2022	13:59	-131.964	47.088	0	738.10	0	4.1070	0	34.2520	0	27.186	0	730.666	0	6.6	4	2.1	4	-1E+10	1	-1E+10	1	-1E+10	1	-1E+10	1	-1E+10	1	-1E+10	1
4902549	78	C	10/08/2022	13:59	-131.964	47.088	0	743.20	0	4.1020	0	34.2540	0	27.188	0	735.706	0	6.6	4	2.1	4	-1E+10	1	-1E+10	1	-1E+10	1	-1E+10	1	-1E+10	1	-1E+10	1
4902549	78	C	10/08/2022	13:59	-131.964	47.088	0	748.20	0	4.0870	0	34.2550	0	27.190	0	740.647	0	6.5	4	2.1	4	-1E+10	1	-1E+10	1	-1E+10	1	-1E+10	1	-1E+10	1	-1E+10	1
4902549	78	C	10/08/2022	13:59	-131.964	47.088	0	753.30	0	4.0690	0	34.2570	0	27.194	0	745.686	0	6.5	4	2.0	4	-1E+10	1	-1E+10	1	-1E+10	1	-1E+10	1	-1E+10	1	-1E+10	1
4902549	78	C	10/08/2022	13:59	-131.964	47.088	0	758.30	0	4.0600	0	34.2580	0	27.196	0	750.627	0	6.4	4	2.0	4	-1E+10	1	-1E+10	1	-1E+10	1	-1E+10	1	-1E+10	1	-1E+10	1
4902549	78	C	10/08/2022	13:59	-131.964	47.088	0	763.20	0	4.0360	0	34.2610	0	27.200	0	755.468	0	6.1	4	1.9	4	-1E+10	1	-1E+10	1	-1E+10	1	-1E+10	1	-1E+10	1	-1E+10	1
4902549	78	C	10/08/2022	13:59	-131.964	47.088	0	768.30	0	4.0270	0	34.2690	0	27.208	0	760.507	0	6.0	4	1.9	4	-1E+10	1	-1E+10	1	-1E+10	1	-1E+10	1	-1E+10	1	-1E+10	1
4902549	78	C	10/08/2022	13:59	-131.964	47.088	0	773.30	0	4.0250	0	34.2730	0	27.211	0	765.447	0	5.9	4	1.9	4	-1E+10	1	-1E+10	1	-1E+10	1	-1E+10	1	-1E+10	1	-1E+10	1
4902549	78	C	10/08/2022	13:59	-131.964	47.088	0	778.30	0	4.0170	0	34.2750	0	27.214	0	770.387	0	5.8	4	1.8	4	-1E+10	1	-1E+10	1	-1E+10	1	-1E+10	1	-1E+10	1	-1E+10	1
4902549	78	C	10/08/2022	13:59	-131.964	47.088	0	783.30	0	4.0100	0	34.2790	0	27.218	0	775.327	0	5.7	4	1.8	4	-1E+10	1	-1E+10	1	-1E+10	1	-1E+10	1	-1E+10	1	-1E+10	1
4902549	78	C	10/08/2022	13:59	-131.964	47.088	0	787.90	0	3.9970	0	34.2840	0	27.223	0	779.872	0	5.6	4	1.8	4	-1E+10	1	-1E+10	1	-1E+10	1	-1E+10	1	-1E+10	1	-1E+10	1
4902549	78	C	10/08/2022	13:59	-131.964	47.088	0	792.50	0	3.9890	0	34.2850	0	27.225	0	784.416	0	5.6	4	1.8	4	-1E+10	1	-1E+10	1	-1E+10	1	-1E+10	1	-1E+10	1	-1E+10	1
4902549	78	C	10/08/2022	13:59	-131.964	47.088	0	797.90	0	3.9710	0	34.2860	0	27.227	0	789.751	0	5.7	4	1.8	4	-1E+10	1	-1E+10	1	-1E+10	1	-1E+10	1	-1E+10	1	-1E+10	1
4902549	78	C	10/08/2022	13:59	-131.964	47.088	0	803.00	0	3.9540	0	34.2860	0	27.229	0	794.789	0	5.6	4	1.8	4	-1E+10	1	-1E+10	1	-1E+10	1	-1E+10	1	-1E+10	1	-1E+10	1
4902549	78	C	10/08/2022	13:59	-131.964	47.088	0	807.80	0	3.9360	0	34.2900	0	27.234	0	799.531	0	5.6	4	1.8	4	-1E+10	1	-1E+10	1	-1E+10	1	-1E+10	1	-1E+10	1	-1E+10	1
4902549	78	C	10/08/2022	13:59	-131.964	47.088	0	813.00	0	3.9120	0	34.2920	0	27.238	0	804.668	0	5.5	4	1.7	4	-1E+10	1	-1E+10	1	-1E+10	1	-1E+10	1	-1E+10	1	-1E+10	1
4902549	78	C	10/08/2022	13:59	-131.964	47.088	0	818.30	0	3.8960	0	34.2960	0	27.243	0	809.903	0	5.5	4	1.7	4	-1E+10	1	-1E+10	1	-1E+10	1	-1E+10	1	-1E+10	1	-1E+10	1
4902549	78	C	10/08/2022	13:59	-131.964	47.088	0	822.90	0	3.8890	0	34.2980	0	27.245	0	814.447	0	5.5	4	1.7	4	-1E+10	1	-1E+10	1	-1E+10	1	-1E+10	1	-1E+10	1	-1E+10	1
4902549	78	C	10/08/2022	13:59	-131.964	47.088	0	827.60	0	3.8760	0	34.3000	0	27.248	0	819.090	0	5.6	4	1.8	4	-1E+10	1	-1E+10	1	-1E+10	1	-1E+10	1	-1E+10	1	-1E+10	1
4902549	78	C	10/08/2022	13:59	-131.964	47.088	0	833.00	0	3.8490	0	34.3010	0	27.252	0	824.423	0	5.6	4	1.8	4	-1E+10	1	-1E+10	1	-1E+10	1	-1E+10	1	-1E+10	1	-1E+10	1
4902549	78	C	10/08/2022	13:59	-131.964	47.088	0	838.00	0	3.8360	0	34.3020	0	27.254	0	829.362	0	5.7	4	1.8	4	-1E+10	1	-1E+10	1	-1E+10	1	-1E+10	1	-1E+10	1	-1E+10	1
4902549	78	C	10/08/2022	13:59	-131.964	47.088	0	843.00	0	3.8170	0	34.3030	0	27.257	0	834.301	0	5.9	4	1.8	4	-1E+10	1	-1E+10	1	-1E+10	1	-1E+10	1	-1E+10	1	-1E+10	1
4902549	78	C	10/08/2022	13:59	-131.964	47.088	0	848.30	0	3.7710	0	34.3020	0	27.260	0	839.535	0	6.0	4	1.9	4	-1E+10	1	-1E+10	1	-1E+10	1	-1E+10	1	-1E+10	1	-1E+10	1
4902549	78	C	10/08/2022	13:59	-131.964	47.088	0	853.10	0	3.7330	0	34.2990	0	27.262	0	844.276	0	6.1	4	1.9	4	-1E+10	1	-1E+10	1	-1E+10	1	-1E+10	1	-1E+10	1	-1E+10	1
4902549	78	C	10/08/2022	13:59	-131.964	47.088	0	857.90	0	3.7320	0	34.3010	0	27.264	0	849.017	0	6.0	4	1.9	4	-1E+10	1	-1E+10	1	-1E+10	1	-1E+10	1	-1E+10	1	-1E+10	1
4902549	78	C	10/08/2022	13:59	-131.964	47.088	0	862.80	0	3.7220	0	34.3030	0	27.266	0	853.856	0	6.0	4	1.9	4	-1E+10	1	-1E+10	1	-1E+10	1	-1E+10	1	-1E+10	1	-1E+10	1
4902549	78	C	10/08/2022	13:59	-131.964	47.088	0	867.70	0	3.7060	0	34.3030	0	27.268	0	858.695	0	6.0	4	1.9	4	-1E+10	1	-1E+10	1	-1E+10	1	-1E+10	1	-1E+10	1	-1E+10	1
4902549	78	C	10/08/2022	13:59	-131.964	47.088	0	872.60	0	3.7030	0	34.3040	0	27.269	0	863.534	0	5.9	4	1.9	4	-1E+10	1	-1E+10	1	-1E+10	1	-1E+10	1	-1E+10	1	-1E+10	1
4902549	78	C	10/08/2022	13:59	-131.964	47.088	0	877.60	0	3.7000	0	34.3080	0	27.272	0	868.472	0	5.9	4	1.9	4	-1E+10	1	-1E+10	1	-1E+10	1	-1E+10	1	-1E+10	1	-1E+10	1
4902549	78	C	10/08/2022	13:59	-131.964	47.088	0	882.60	0	3.6740	0	34.3110	0	27.277	0	873.409	0	6.0	4	1.9	4	-1E+10	1	-1E+10	1	-1E+10	1	-1E+10	1	-1E+10	1	-1E+10	1
4902549	78	C	10/08/2022	13:59	-131.964	47.088	0	887.60	0	3.6550	0	34.3110	0	27.279	0	878.347	0	6.0	4	1.9	4	-1E+10	1	-1E+10	1	-1E+10	1	-1E+10	1	-1E+10	1	-1E+10	1
4902549	78	C	10/08/2022	13:59	-131.964	47.088	0	892.80	0	3.6470	0	34.3120	0	27.281	0	883.481	0	6.0	4	1.9	4	-1E+10	1	-1E+10	1	-1E+10	1	-1E+10	1	-1E+10	1	-1E+10	1
4902549	78	C	10/08/2022	13:59	-131.964	47.088	0	898.00	0	3.6370	0	34.3130	0	27.283	0	888.616	0	5.9	4	1.9	4	-1E+10	1	-1E+10	1	-1E+10	1	-1E+10	1	-1E+10	1	-1E+10	1
4902549	78	C	10/08/2022	13:59	-131.964	47.088	0	903.30	0	3.6340	0	34.3150	0	27.285	0	893.849	0	5.9	4	1.8	4	-1E+10	1	-1E+10	1	-1E+10	1	-1E+10	1	-1E+10	1	-1E+10	1
4902549	78	C	10/08/2022	13:59	-131.964	47.088	0	908.00	0	3.6270	0	34.3170	0	27.287	0	898.490	0	5.8	4	1.8	4	-1E+10	1	-1E+10	1	-1E+10	1	-1E+10	1	-1E+10	1	-1E+10	1
4902549	78	C	10/08/2022	13:59	-131.964	47.088	0	912.60	0	3.6390	0	34.3210	0	27.289	0	903.032	0	5.7	4	1.8	4	-1E+10	1	-1E+10	1	-1E+10	1	-1E+10	1	-1E+10	1	-1E+10	1
4902549	78	C	10/08/2022	13:59	-131.964	47.088	0	917.80	0	3.6320	0	34.3260	0	27.294	0	908.166	0	5.7	4	1.8	4	-1E+10	1	-1E+10	1	-1E+10	1	-1E+10	1	-1E+10	1	-1E+10	1
4902549	78	C	10/08/2022	13:59	-131.964	47.088	0	923.10	0	3.6250	0	34.3260	0	27.294	0	913.399	0	5.7	4	1.8	4	-1E+10	1	-1E+10	1	-1E+10	1	-1E+10	1	-1E+10	1	-1E+10	1
4902549	78	C	10/08/2022	13:59	-131.964	47.088	0	927.90	0	3.6260	0	34.3320	0	27.299	0	918.138	0	5.7	4	1.8	4	-1E+10	1	-1E+10	1	-1E+10	1	-1E+10	1	-1E+10	1	-1E+10	1
4902549	78	C	10/08/2022	13:59	-131.964	47.088	0	932.60	0	3.6220	0	34.3320	0	27.300	0	922.778	0	5.7	4	1.8	4	-1E+10	1	-1E+10	1	-1E+10	1	-1E+10	1	-1E+10	1	-1E+10	1
4902549	78	C	10/08/2022	13:59	-131.964	47.088	0	937.90	0	3.6210	0	34.3340	0	27.301	0	928.011	0	5.7	4	1.8	4	-1E+10	1	-1E+10	1	-1E+10	1	-1E+10	1	-1E+10	1	-1E+10	1
4902549	78	C	10/08/2022	13:59	-131.964	47.088	0	943.10	0	3.6170	0	34.3360	0	27.303	0	933.144	0	5.7	4	1.8	4	-1E+10	1	-1E+10	1	-1E+10	1	-1E+10	1	-1E+10	1	-1E+10	1
4902549	78	C	10/08/2022	13:59	-131.964	47.088	0	948.20	0	3.6020	0	34.3380	0	27.306	0	938.179	0	5.7	4	1.8	4	-1E+10	1	-1E+10	1	-1E+10	1	-1E+10	1	-1E+10	1	-1E+10	1
4902549	78	C	10/08/2022	13:59	-131.964	47.088	0	952.70	0	3.5880	0	34.3420	0	27.311	0	942.621	0	5.7	4	1.8	4	-1E+10	1	-1E+10	1	-1E+10	1	-1E+10	1	-1E+10	1	-1E+10	1
4902549	78	C	10/08/2022	13:59	-131.964	47.088	0	957.90	0	3.5840	0	34.3440	0	27.313	0	947.755	0	5.7	4	1.8	4	-1E+10	1	-1E+10	1	-1E+10	1	-1E+10	1	-1E+10	1	-1E+10	1
4902549	78	C	10/08/2022	13:59	-131.964	47.088	0	963.40	0	3.5770	0	34.3470	0	27.316	0	953.184	0	5.7	4	1.8	4	-1E+10	1	-1E+10	1	-1E+10	1	-1E+10	1	-1E+10	1	-1E+10	1
4902549	78	C	10/08/2022	13:59	-131.964	47.088	0	968.40	0	3.5670	0	34.3490	0	27.319	0	958.119	0	5.7	4	1.8	4	-1E+10	1	-1E+10	1	-1E+10	1	-1E+10	1	-1E+10	1	-1E+10	1
4902549	78	C	10/08/2022	13:59	-131.964	47.088	0	973.10	0	3.5550	0	34.3520	0	27.322	0	962.759	0	5.8	4	1.8	4	-1E+10	1	-1E+10	1	-1E+10	1	-1E+10	1	-1E+10	1	-1E+10	1
4902549	78	C	10/08/2022	13:59	-131.964	47.088	0	977.50	0	3.5460	0	34.3530	0	27.324	0	967.102	0	5.8	4	1.8	4	-1E+10	1	-1E+10	1	-1E+10	1	-1E+10	1	-1E+10	1	-1E+10	1
4902549	78	C	10/08/2022	13:59	-131.964	47.088	0	982.90	0	3.5370	0	34.3560	0	27.327	0	972.432	0	5.8	4	1.8	4	-1E+10	1	-1E+10	1	-1E+10	1	-1E+10	1	-1E+10	1	-1E+10	1
4902549	78	C	10/08/2022	13:59	-131.964	47.088	0	988.30	0	3.5180	0	34.3580	0	27.331	0	977.762	0	5.9	4	1.8	4	-1E+10	1	-1E+10	1	-1E+10	1	-1E+10	1	-1E+10	1	-1E+10	1
4902549	78	C	10/08/2022	13:59	-131.964	47.088	0	993.10	0	3.5010	0	34.3580	0	27.332	0	982.499	0	6.0	4	1.9	4	-1E+10	1	-1E+10	1	-1E+10	1	-1E+10	1	-1E+10	1	-1E+10	1
4902549	78	C	10/08/2022	13:59	-131.964	47.088	0	997.90	0	3.4830	0	34.3600	0	27.336	0	987.237	0	6.0	4	1.9	4	-1E+10	1	-1E+10	1	-1E+10	1	-1E+10	1	-1E+10	1	-1E+10	1
4902549	78	C	10/08/2022	13:59	-131.964	47.088	0	1005.30	0	3.4640	0	34.3650	0	27.342	0	994.540	0	6.1	4	1.9	4	-1E+10	1	-1E+10	1	-1E+10	1	-1E+10	1	-1E+10	1	-1E+10	1
4902549	78	C	10/08/2022	13:59	-131.964	47.088	0	1014.90	0	3.4330	0	34.3690	0	27.348	0	1004.014	0	6.2	4	1.9	4	-1E+10	1	-1E+10	1	-1E+10	1	-1E+10	1	-1E+10	1	-1E+10	1
4902549	78	C	10/08/2022	13:59	-131.964	47.088	0	1025.20	0	3.3980	0	34.3720	0	27.354	0	1014.179	0	6.3	4	2.0	4	-1E+10	1	-1E+10	1	-1E+10	1	-1E+10	1	-1E+10	1	-1E+10	1
4902549	78	C	10/08/2022	13:59	-131.964	47.088	0	1035.60	0	3.3610	0	34.3750	0	27.360	0	1024.442	0	6.4	4	2.0	4	-1E+10	1	-1E+10	1	-1E+10	1	-1E+10	1	-1E+10	1	-1E+10	1
4902549	78	C	10/08/2022	13:59	-131.964	47.088	0	1045.60	0	3.3320	0	34.3780	0	27.365	0	1034.309	0	6.5	4	2.0	4	-1E+10	1	-1E+10	1	-1E+10	1	-1E+10	1	-1E+10	1	-1E+10	1
4902549	78	C	10/08/2022	13:59	-131.964	47.088	0	1055.70	0	3.3050	0	34.3820	0	27.370	0	1044.275	0	6.7	4	2.1	4	-1E+10	1	-1E+10	1	-1E+10	1	-1E+10	1	-1E+10	1	-1E+10	1
4902549	78	C	10/08/2022	13:59	-131.964	47.088	0	1065.70	0	3.2770	0	34.3860	0	27.376	0	1054.142	0	6.8	4	2.1	4	-1E+10	1	-1E+10	1	-1E+10	1	-1E+10	1	-1E+10	1	-1E+10	1
4902549	78	C	10/08/2022	13:59	-131.964	47.088	0	1075.40	0	3.2570	0	34.3890	0	27.381	0	1063.712	0	6.9	4	2.1	4	-1E+10	1	-1E+10	1	-1E+10	1	-1E+10	1	-1E+10	1	-1E+10	1
4902549	78	C	10/08/2022	13:59	-131.964	47.088	0	1085.00	0	3.2280	0	34.3900	0	27.384	0	1073.183	0	7.0	4	2.2	4	-1E+10	1	-1E+10	1	-1E+10	1	-1E+10	1	-1E+10	1	-1E+10	1
4902549	78	C	10/08/2022	13:59	-131.964	47.088	0	1095.10	0	3.2060	0	34.3930	0	27.389	0	1083.147	0	7.1	4	2.2	4	-1E+10	1	-1E+10	1	-1E+10	1	-1E+10	1	-1E+10	1	-1E+10	1
4902549	78	C	10/08/2022	13:59	-131.964	47.088	0	1105.10	0	3.1860	0	34.3970	0	27.394	0	1093.012	0	7.3	4	2.2	4	-1E+10	1	-1E+10	1	-1E+10	1	-1E+10	1	-1E+10	1	-1E+10	1
4902549	78	C	10/08/2022	13:59	-131.964	47.088	0	1115.40	0	3.1540	0	34.3990	0	27.398	0	1103.172	0	7.4	4	2.3	4	-1E+10	1	-1E+10	1	-1E+10	1	-1E+10	1	-1E+10	1	-1E+10	1
4902549	78	C	10/08/2022	13:59	-131.964	47.088	0	1125.60	0	3.1280	0	34.4020	0	27.403	0	1113.233	0	7.5	4	2.3	4	-1E+10	1	-1E+10	1	-1E+10	1	-1E+10	1	-1E+10	1	-1E+10	1
4902549	78	C	10/08/2022	13:59	-131.964	47.088	0	1135.60	0	3.1060	0	34.4040	0	27.407	0	1123.097	0	7.7	4	2.4	4	-1E+10	1	-1E+10	1	-1E+10	1	-1E+10	1	-1E+10	1	-1E+10	1
4902549	78	C	10/08/2022	13:59	-131.964	47.088	0	1145.80	0	3.0770	0	34.4080	0	27.413	0	1133.157	0	7.9	4	2.4	4	-1E+10	1	-1E+10	1	-1E+10	1	-1E+10	1	-1E+10	1	-1E+10	1
4902549	78	C	10/08/2022	13:59	-131.964	47.088	0	1155.70	0	3.0560	0	34.4110	0	27.417	0	1142.921	0	8.0	4	2.5	4	-1E+10	1	-1E+10	1	-1E+10	1	-1E+10	1	-1E+10	1	-1E+10	1
4902549	78	C	10/08/2022	13:59	-131.964	47.088	0	1165.90	0	3.0430	0	34.4140	0	27.421	0	1152.980	0	8.2	4	2.5	4	-1E+10	1	-1E+10	1	-1E+10	1	-1E+10	1	-1E+10	1	-1E+10	1
4902549	78	C	10/08/2022	13:59	-131.964	47.088	0	1175.40	0	3.0310	0	34.4170	0	27.424	0	1162.349	0	8.4	4	2.6	4	-1E+10	1	-1E+10	1	-1E+10	1	-1E+10	1	-1E+10	1	-1E+10	1
4902549	78	C	10/08/2022	13:59	-131.964	47.088	0	1185.00	0	3.0180	0	34.4190	0	27.427	0	1171.815	0	8.6	4	2.7	4	-1E+10	1	-1E+10	1	-1E+10	1	-1E+10	1	-1E+10	1	-1E+10	1
4902549	78	C	10/08/2022	13:59	-131.964	47.088	0	1195.10	0	2.9970	0	34.4240	0	27.433	0	1181.775	0	8.9	4	2.7	4	-1E+10	1	-1E+10	1	-1E+10	1	-1E+10	1	-1E+10	1	-1E+10	1
4902549	78	C	10/08/2022	13:59	-131.964	47.088	0	1205.30	0	2.9820	0	34.4270	0	27.437	0	1191.832	0	9.1	4	2.8	4	-1E+10	1	-1E+10	1	-1E+10	1	-1E+10	1	-1E+10	1	-1E+10	1
4902549	78	C	10/08/2022	13:59	-131.964	47.088	0	1215.60	0	2.9530	0	34.4300	0	27.442	0	1201.987	0	9.4	4	2.9	4	-1E+10	1	-1E+10	1	-1E+10	1	-1E+10	1	-1E+10	1	-1E+10	1
4902549	78	C	10/08/2022	13:59	-131.964	47.088	0	1225.60	0	2.9400	0	34.4330	0	27.446	0	1211.847	0	9.7	4	3.0	4	-1E+10	1	-1E+10	1	-1E+10	1	-1E+10	1	-1E+10	1	-1E+10	1
4902549	78	C	10/08/2022	13:59	-131.964	47.088	0	1235.70	0	2.9200	0	34.4360	0	27.450	0	1221.804	0	10.2	4	3.1	4	-1E+10	1	-1E+10	1	-1E+10	1	-1E+10	1	-1E+10	1	-1E+10	1
4902549	78	C	10/08/2022	13:59	-131.964	47.088	0	1245.80	0	2.8960	0	34.4420	0	27.457	0	1231.761	0	10.7	4	3.3	4	-1E+10	1	-1E+10	1	-1E+10	1	-1E+10	1	-1E+10	1	-1E+10	1
4902549	78	C	10/08/2022	13:59	-131.964	47.088	0	1255.60	0	2.8860	0	34.4470	0	27.462	0	1241.422	0	11.0	4	3.4	4	-1E+10	1	-1E+10	1	-1E+10	1	-1E+10	1	-1E+10	1	-1E+10	1
4902549	78	C	10/08/2022	13:59	-131.964	47.088	0	1265.50	0	2.8710	0	34.4490	0	27.465	0	1251.180	0	11.2	4	3.5	4	-1E+10	1	-1E+10	1	-1E+10	1	-1E+10	1	-1E+10	1	-1E+10	1
4902549	78	C	10/08/2022	13:59	-131.964	47.088	0	1275.30	0	2.8580	0	34.4510	0	27.468	0	1260.840	0	11.4	4	3.5	4	-1E+10	1	-1E+10	1	-1E+10	1	-1E+10	1	-1E+10	1	-1E+10	1
4902549	78	C	10/08/2022	13:59	-131.964	47.088	0	1285.50	0	2.8420	0	34.4530	0	27.471	0	1270.894	0	11.7	4	3.6	4	-1E+10	1	-1E+10	1	-1E+10	1	-1E+10	1	-1E+10	1	-1E+10	1
4902549	78	C	10/08/2022	13:59	-131.964	47.088	0	1295.50	0	2.8270	0	34.4550	0	27.474	0	1280.750	0	12.1	4	3.7	4	-1E+10	1	-1E+10	1	-1E+10	1	-1E+10	1	-1E+10	1	-1E+10	1
4902549	78	C	10/08/2022	13:59	-131.964	47.088	0	1305.40	0	2.8050	0	34.4580	0	27.478	0	1290.507	0	12.4	4	3.8	4	-1E+10	1	-1E+10	1	-1E+10	1	-1E+10	1	-1E+10	1	-1E+10	1
4902549	78	C	10/08/2022	13:59	-131.964	47.088	0	1315.70	0	2.7890	0	34.4610	0	27.482	0	1300.657	0	12.8	4	3.9	4	-1E+10	1	-1E+10	1	-1E+10	1	-1E+10	1	-1E+10	1	-1E+10	1
4902549	78	C	10/08/2022	13:59	-131.964	47.088	0	1325.90	0	2.7700	0	34.4640	0	27.486	0	1310.709	0	13.2	4	4.1	4	-1E+10	1	-1E+10	1	-1E+10	1	-1E+10	1	-1E+10	1	-1E+10	1
4902549	78	C	10/08/2022	13:59	-131.964	47.088	0	1335.40	0	2.7470	0	34.4670	0	27.490	0	1320.070	0	13.6	4	4.2	4	-1E+10	1	-1E+10	1	-1E+10	1	-1E+10	1	-1E+10	1	-1E+10	1
4902549	78	C	10/08/2022	13:59	-131.964	47.088	0	1345.30	0	2.7260	0	34.4690	0	27.494	0	1329.826	0	14.0	4	4.3	4	-1E+10	1	-1E+10	1	-1E+10	1	-1E+10	1	-1E+10	1	-1E+10	1
4902549	78	C	10/08/2022	13:59	-131.964	47.088	0	1355.20	0	2.7040	0	34.4720	0	27.498	0	1339.580	0	14.4	4	4.4	4	-1E+10	1	-1E+10	1	-1E+10	1	-1E+10	1	-1E+10	1	-1E+10	1
4902549	78	C	10/08/2022	13:59	-131.964	47.088	0	1365.50	0	2.6860	0	34.4740	0	27.501	0	1349.729	0	14.8	4	4.5	4	-1E+10	1	-1E+10	1	-1E+10	1	-1E+10	1	-1E+10	1	-1E+10	1
4902549	78	C	10/08/2022	13:59	-131.964	47.088	0	1375.70	0	2.6700	0	34.4760	0	27.504	0	1359.778	0	15.3	4	4.7	4	-1E+10	1	-1E+10	1	-1E+10	1	-1E+10	1	-1E+10	1	-1E+10	1
4902549	78	C	10/08/2022	13:59	-131.964	47.088	0	1385.60	0	2.6490	0	34.4790	0	27.509	0	1369.531	0	15.8	4	4.8	4	-1E+10	1	-1E+10	1	-1E+10	1	-1E+10	1	-1E+10	1	-1E+10	1
4902549	78	C	10/08/2022	13:59	-131.964	47.088	0	1395.50	0	2.6230	0	34.4820	0	27.513	0	1379.284	0	16.3	4	5.0	4	-1E+10	1	-1E+10	1	-1E+10	1	-1E+10	1	-1E+10	1	-1E+10	1
4902549	78	C	10/08/2022	13:59	-131.964	47.088	0	1405.10	0	2.6070	0	34.4840	0	27.516	0	1388.741	0	16.8	4	5.2	4	-1E+10	1	-1E+10	1	-1E+10	1	-1E+10	1	-1E+10	1	-1E+10	1
4902549	78	C	10/08/2022	13:59	-131.964	47.088	0	1415.40	0	2.5840	0	34.4870	0	27.521	0	1398.887	0	17.4	4	5.3	4	-1E+10	1	-1E+10	1	-1E+10	1	-1E+10	1	-1E+10	1	-1E+10	1
4902549	78	C	10/08/2022	13:59	-131.964	47.088	0	1425.30	0	2.5640	0	34.4900	0	27.525	0	1408.638	0	17.9	4	5.5	4	-1E+10	1	-1E+10	1	-1E+10	1	-1E+10	1	-1E+10	1	-1E+10	1
4902549	78	C	10/08/2022	13:59	-131.964	47.088	0	1435.50	0	2.5490	0	34.4920	0	27.528	0	1418.685	0	18.3	4	5.6	4	-1E+10	1	-1E+10	1	-1E+10	1	-1E+10	1	-1E+10	1	-1E+10	1
4902549	78	C	10/08/2022	13:59	-131.964	47.088	0	1445.70	0	2.5330	0	34.4940	0	27.531	0	1428.731	0	18.8	4	5.7	4	-1E+10	1	-1E+10	1	-1E+10	1	-1E+10	1	-1E+10	1	-1E+10	1
4902549	78	C	10/08/2022	13:59	-131.964	47.088	0	1455.50	0	2.5170	0	34.4960	0	27.534	0	1438.383	0	19.3	4	5.9	4	-1E+10	1	-1E+10	1	-1E+10	1	-1E+10	1	-1E+10	1	-1E+10	1
4902549	78	C	10/08/2022	13:59	-131.964	47.088	0	1465.30	0	2.4980	0	34.4980	0	27.537	0	1448.034	0	19.8	4	6.0	4	-1E+10	1	-1E+10	1	-1E+10	1	-1E+10	1	-1E+10	1	-1E+10	1
4902549	78	C	10/08/2022	13:59	-131.964	47.088	0	1475.30	0	2.4840	0	34.5000	0	27.540	0	1457.881	0	20.1	4	6.1	4	-1E+10	1	-1E+10	1	-1E+10	1	-1E+10	1	-1E+10	1	-1E+10	1
4902549	78	C	10/08/2022	13:59	-131.964	47.088	0	1485.20	0	2.4740	0	34.5010	0	27.542	0	1467.630	0	20.5	4	6.2	4	-1E+10	1	-1E+10	1	-1E+10	1	-1E+10	1	-1E+10	1	-1E+10	1
4902549	78	C	10/08/2022	13:59	-131.964	47.088	0	1495.30	0	2.4580	0	34.5030	0	27.545	0	1477.575	0	20.8	4	6.3	4	-1E+10	1	-1E+10	1	-1E+10	1	-1E+10	1	-1E+10	1	-1E+10	1
4902549	78	C	10/08/2022	13:59	-131.964	47.088	0	1505.50	0	2.4470	0	34.5040	0	27.546	0	1487.619	0	21.0	4	6.4	4	-1E+10	1	-1E+10	1	-1E+10	1	-1E+10	1	-1E+10	1	-1E+10	1
4902549	78	C	10/08/2022	13:59	-131.964	47.088	0	1515.20	0	2.4370	0	34.5050	0	27.548	0	1497.169	0	21.2	4	6.5	4	-1E+10	1	-1E+10	1	-1E+10	1	-1E+10	1	-1E+10	1	-1E+10	1
4902549	78	C	10/08/2022	13:59	-131.964	47.088	0	1525.20	0	2.4170	0	34.5050	0	27.550	0	1507.014	0	21.3	4	6.5	4	-1E+10	1	-1E+10	1	-1E+10	1	-1E+10	1	-1E+10	1	-1E+10	1
4902549	78	C	10/08/2022	13:59	-131.964	47.088	0	1535.30	0	2.4040	0	34.5050	0	27.551	0	1516.958	0	21.7	4	6.6	4	-1E+10	1	-1E+10	1	-1E+10	1	-1E+10	1	-1E+10	1	-1E+10	1
4902549	78	C	10/08/2022	13:59	-131.964	47.088	0	1545.30	0	2.3970	0	34.5070	0	27.553	0	1526.802	0	22.5	4	6.8	4	-1E+10	1	-1E+10	1	-1E+10	1	-1E+10	1	-1E+10	1	-1E+10	1
4902549	78	C	10/08/2022	13:59	-131.964	47.088	0	1555.50	0	2.3840	0	34.5110	0	27.557	0	1536.843	0	23.5	4	7.1	4	-1E+10	1	-1E+10	1	-1E+10	1	-1E+10	1	-1E+10	1	-1E+10	1
4902549	78	C	10/08/2022	13:59	-131.964	47.088	0	1565.10	0	2.3690	0	34.5130	0	27.560	0	1546.293	0	24.3	4	7.4	4	-1E+10	1	-1E+10	1	-1E+10	1	-1E+10	1	-1E+10	1	-1E+10	1
4902549	78	C	10/08/2022	13:59	-131.964	47.088	0	1575.30	0	2.3590	0	34.5170	0	27.564	0	1556.333	0	25.0	4	7.6	4	-1E+10	1	-1E+10	1	-1E+10	1	-1E+10	1	-1E+10	1	-1E+10	1
4902549	78	C	10/08/2022	13:59	-131.964	47.088	0	1585.40	0	2.3480	0	34.5180	0	27.566	0	1566.274	0	25.4	4	7.7	4	-1E+10	1	-1E+10	1	-1E+10	1	-1E+10	1	-1E+10	1	-1E+10	1
4902549	78	C	10/08/2022	13:59	-131.964	47.088	0	1595.20	0	2.3350	0	34.5200	0	27.569	0	1575.919	0	25.8	4	7.8	4	-1E+10	1	-1E+10	1	-1E+10	1	-1E+10	1	-1E+10	1	-1E+10	1
4902549	78	C	10/08/2022	13:59	-131.964	47.088	0	1605.10	0	2.3170	0	34.5200	0	27.570	0	1585.662	0	25.8	4	7.9	4	-1E+10	1	-1E+10	1	-1E+10	1	-1E+10	1	-1E+10	1	-1E+10	1
4902549	78	C	10/08/2022	13:59	-131.964	47.088	0	1615.10	0	2.3030	0	34.5210	0	27.572	0	1595.504	0	26.3	4	8.0	4	-1E+10	1	-1E+10	1	-1E+10	1	-1E+10	1	-1E+10	1	-1E+10	1
4902549	78	C	10/08/2022	13:59	-131.964	47.088	0	1625.10	0	2.2970	0	34.5220	0	27.574	0	1605.344	0	26.8	4	8.1	4	-1E+10	1	-1E+10	1	-1E+10	1	-1E+10	1	-1E+10	1	-1E+10	1
4902549	78	C	10/08/2022	13:59	-131.964	47.088	0	1635.50	0	2.2880	0	34.5240	0	27.576	0	1615.578	0	27.3	4	8.3	4	-1E+10	1	-1E+10	1	-1E+10	1	-1E+10	1	-1E+10	1	-1E+10	1
4902549	78	C	10/08/2022	13:59	-131.964	47.088	0	1645.40	0	2.2740	0	34.5260	0	27.579	0	1625.320	0	27.8	4	8.4	4	-1E+10	1	-1E+10	1	-1E+10	1	-1E+10	1	-1E+10	1	-1E+10	1
4902549	78	C	10/08/2022	13:59	-131.964	47.088	0	1655.70	0	2.2630	0	34.5280	0	27.581	0	1635.454	0	28.3	4	8.6	4	-1E+10	1	-1E+10	1	-1E+10	1	-1E+10	1	-1E+10	1	-1E+10	1
4902549	78	C	10/08/2022	13:59	-131.964	47.088	0	1665.60	0	2.2560	0	34.5290	0	27.583	0	1645.195	0	28.7	4	8.7	4	-1E+10	1	-1E+10	1	-1E+10	1	-1E+10	1	-1E+10	1	-1E+10	1
4902549	78	C	10/08/2022	13:59	-131.964	47.088	0	1675.50	0	2.2480	0	34.5300	0	27.584	0	1654.935	0	29.0	4	8.8	4	-1E+10	1	-1E+10	1	-1E+10	1	-1E+10	1	-1E+10	1	-1E+10	1
4902549	78	C	10/08/2022	13:59	-131.964	47.088	0	1685.20	0	2.2350	0	34.5310	0	27.586	0	1664.478	0	29.5	4	9.0	4	-1E+10	1	-1E+10	1	-1E+10	1	-1E+10	1	-1E+10	1	-1E+10	1
4902549	78	C	10/08/2022	13:59	-131.964	47.088	0	1695.10	0	2.2260	0	34.5320	0	27.588	0	1674.217	0	30.1	4	9.1	4	-1E+10	1	-1E+10	1	-1E+10	1	-1E+10	1	-1E+10	1	-1E+10	1
4902549	78	C	10/08/2022	13:59	-131.964	47.088	0	1705.20	0	2.2160	0	34.5340	0	27.590	0	1684.153	0	30.7	4	9.3	4	-1E+10	1	-1E+10	1	-1E+10	1	-1E+10	1	-1E+10	1	-1E+10	1
4902549	78	C	10/08/2022	13:59	-131.964	47.088	0	1715.50	0	2.2060	0	34.5360	0	27.593	0	1694.284	0	31.5	4	9.5	4	-1E+10	1	-1E+10	1	-1E+10	1	-1E+10	1	-1E+10	1	-1E+10	1
4902549	78	C	10/08/2022	13:59	-131.964	47.088	0	1725.50	0	2.1960	0	34.5380	0	27.595	0	1704.121	0	32.3	4	9.8	4	-1E+10	1	-1E+10	1	-1E+10	1	-1E+10	1	-1E+10	1	-1E+10	1
4902549	78	C	10/08/2022	13:59	-131.964	47.088	0	1735.30	0	2.1840	0	34.5400	0	27.598	0	1713.760	0	33.0	4	10.0	4	-1E+10	1	-1E+10	1	-1E+10	1	-1E+10	1	-1E+10	1	-1E+10	1
4902549	78	C	10/08/2022	13:59	-131.964	47.088	0	1745.30	0	2.1750	0	34.5420	0	27.600	0	1723.595	0	33.6	4	10.2	4	-1E+10	1	-1E+10	1	-1E+10	1	-1E+10	1	-1E+10	1	-1E+10	1
4902549	78	C	10/08/2022	13:59	-131.964	47.088	0	1755.50	0	2.1670	0	34.5440	0	27.603	0	1733.626	0	34.0	4	10.3	4	-1E+10	1	-1E+10	1	-1E+10	1	-1E+10	1	-1E+10	1	-1E+10	1
4902549	78	C	10/08/2022	13:59	-131.964	47.088	0	1765.50	0	2.1590	0	34.5440	0	27.603	0	1743.461	0	34.3	4	10.4	4	-1E+10	1	-1E+10	1	-1E+10	1	-1E+10	1	-1E+10	1	-1E+10	1
4902549	78	C	10/08/2022	13:59	-131.964	47.088	0	1775.10	0	2.1520	0	34.5450	0	27.605	0	1752.901	0	34.8	4	10.5	4	-1E+10	1	-1E+10	1	-1E+10	1	-1E+10	1	-1E+10	1	-1E+10	1
4902549	78	C	10/08/2022	13:59	-131.964	47.088	0	1785.00	0	2.1450	0	34.5470	0	27.607	0	1762.636	0	35.4	4	10.7	4	-1E+10	1	-1E+10	1	-1E+10	1	-1E+10	1	-1E+10	1	-1E+10	1
4902549	78	C	10/08/2022	13:59	-131.964	47.088	0	1795.10	0	2.1360	0	34.5480	0	27.608	0	1772.568	0	36.0	4	10.9	4	-1E+10	1	-1E+10	1	-1E+10	1	-1E+10	1	-1E+10	1	-1E+10	1
4902549	78	C	10/08/2022	13:59	-131.964	47.088	0	1805.50	0	2.1270	0	34.5500	0	27.611	0	1782.794	0	36.8	4	11.1	4	-1E+10	1	-1E+10	1	-1E+10	1	-1E+10	1	-1E+10	1	-1E+10	1
4902549	78	C	10/08/2022	13:59	-131.964	47.088	0	1815.40	0	2.1230	0	34.5520	0	27.613	0	1792.527	0	38.0	4	11.5	4	-1E+10	1	-1E+10	1	-1E+10	1	-1E+10	1	-1E+10	1	-1E+10	1
4902549	78	C	10/08/2022	13:59	-131.964	47.088	0	1825.30	0	2.1210	0	34.5550	0	27.615	0	1802.261	0	38.7	4	11.7	4	-1E+10	1	-1E+10	1	-1E+10	1	-1E+10	1	-1E+10	1	-1E+10	1
4902549	78	C	10/08/2022	13:59	-131.964	47.088	0	1835.30	0	2.1050	0	34.5560	0	27.617	0	1812.092	0	39.2	4	11.8	4	-1E+10	1	-1E+10	1	-1E+10	1	-1E+10	1	-1E+10	1	-1E+10	1
4902549	78	C	10/08/2022	13:59	-131.964	47.088	0	1845.30	0	2.0900	0	34.5570	0	27.620	0	1821.923	0	39.8	4	12.0	4	-1E+10	1	-1E+10	1	-1E+10	1	-1E+10	1	-1E+10	1	-1E+10	1
4902549	78	C	10/08/2022	13:59	-131.964	47.088	0	1855.40	0	2.0800	0	34.5590	0	27.622	0	1831.851	0	40.6	4	12.3	4	-1E+10	1	-1E+10	1	-1E+10	1	-1E+10	1	-1E+10	1	-1E+10	1
4902549	78	C	10/08/2022	13:59	-131.964	47.088	0	1865.40	0	2.0710	0	34.5610	0	27.624	0	1841.681	0	41.3	4	12.5	4	-1E+10	1	-1E+10	1	-1E+10	1	-1E+10	1	-1E+10	1	-1E+10	1
4902549	78	C	10/08/2022	13:59	-131.964	47.088	0	1875.40	0	2.0570	0	34.5620	0	27.626	0	1851.510	0	42.0	4	12.7	4	-1E+10	1	-1E+10	1	-1E+10	1	-1E+10	1	-1E+10	1	-1E+10	1
4902549	78	C	10/08/2022	13:59	-131.964	47.088	0	1885.40	0	2.0460	0	34.5640	0	27.629	0	1861.339	0	42.7	4	12.9	4	-1E+10	1	-1E+10	1	-1E+10	1	-1E+10	1	-1E+10	1	-1E+10	1
4902549	78	C	10/08/2022	13:59	-131.964	47.088	0	1896.00	0	2.0360	0	34.5660	0	27.631	0	1871.757	0	43.3	4	13.1	4	-1E+10	1	-1E+10	1	-1E+10	1	-1E+10	1	-1E+10	1	-1E+10	1
4902549	78	C	10/08/2022	13:59	-131.964	47.088	0	1905.70	0	2.0290	0	34.5670	0	27.633	0	1881.290	0	44.0	4	13.3	4	-1E+10	1	-1E+10	1	-1E+10	1	-1E+10	1	-1E+10	1	-1E+10	1
4902549	78	C	10/08/2022	13:59	-131.964	47.088	0	1915.60	0	2.0230	0	34.5690	0	27.635	0	1891.020	0	44.6	4	13.5	4	-1E+10	1	-1E+10	1	-1E+10	1	-1E+10	1	-1E+10	1	-1E+10	1
4902549	78	C	10/08/2022	13:59	-131.964	47.088	0	1925.70	0	2.0160	0	34.5700	0	27.636	0	1900.945	0	45.0	4	13.6	4	-1E+10	1	-1E+10	1	-1E+10	1	-1E+10	1	-1E+10	1	-1E+10	1
4902549	78	C	10/08/2022	13:59	-131.964	47.088	0	1935.40	0	2.0100	0	34.5710	0	27.637	0	1910.477	0	45.5	4	13.7	4	-1E+10	1	-1E+10	1	-1E+10	1	-1E+10	1	-1E+10	1	-1E+10	1
4902549	78	C	10/08/2022	13:59	-131.964	47.088	0	1945.40	0	2.0040	0	34.5730	0	27.640	0	1920.303	0	46.0	4	13.9	4	-1E+10	1	-1E+10	1	-1E+10	1	-1E+10	1	-1E+10	1	-1E+10	1
4902549	78	C	10/08/2022	13:59	-131.964	47.088	0	1955.50	0	1.9970	0	34.5740	0	27.641	0	1930.227	0	46.7	4	14.1	4	-1E+10	1	-1E+10	1	-1E+10	1	-1E+10	1	-1E+10	1	-1E+10	1
4902549	78	C	10/08/2022	13:59	-131.964	47.088	0	1965.40	0	1.9860	0	34.5760	0	27.644	0	1939.954	0	47.4	4	14.3	4	-1E+10	1	-1E+10	1	-1E+10	1	-1E+10	1	-1E+10	1	-1E+10	1
4902549	78	C	10/08/2022	13:59	-131.964	47.088	0	1975.60	0	1.9710	0	34.5780	0	27.646	0	1949.975	0	47.9	4	14.4	4	-1E+10	1	-1E+10	1	-1E+10	1	-1E+10	1	-1E+10	1	-1E+10	1
4902549	78	C	10/08/2022	13:59	-131.964	47.088	0	1982.30	0	1.9630	0	34.5800	0	27.649	0	1956.558	0	47.3	4	14.2	4	-1E+10	1	-1E+10	1	-1E+10	1	-1E+10	1	-1E+10	1	-1E+10	1
4902549	78	C	10/08/2022	13:59	-131.964	47.088	0																										
4902549	79	C	10/18/2022	19:06	-132.323	47.062	0	0.20	0	17.4400	0	32.3150	0	23.352	0	0.198	0	232.3	4	96.5	4	-1E+10	1	-1E+10	1	-1E+10	1	-1E+10	1	-1E+10	1	-1E+10	1
4902549	79	C	10/18/2022	19:06	-132.323	47.062	0	1.10	0	17.4400	0	32.3110	0	23.349	0	1.091	0	232.3	4	96.5	4	-1E+10	1	-1E+10	1	-1E+10	1	-1E+10	1	-1E+10	1	-1E+10	1
4902549	79	C	10/18/2022	19:06	-132.323	47.062	0	1.80	0	17.4410	0	32.3100	0	23.348	0	1.785	0	232.3	4	96.5	4	-1E+10	1	-1E+10	1	-1E+10	1	-1E+10	1	-1E+10	1	-1E+10	1
4902549	79	C	10/18/2022	19:06	-132.323	47.062	0	2.90	0	17.4400	0	32.3100	0	23.348	0	2.876	0	232.3	4	96.5	4	-1E+10	1	-1E+10	1	-1E+10	1	-1E+10	1	-1E+10	1	-1E+10	1
4902549	79	C	10/18/2022	19:06	-132.323	47.062	0	4.00	0	17.4380	0	32.3140	0	23.352	0	3.967	0	232.2	4	96.4	4	-1E+10	1	-1E+10	1	-1E+10	1	-1E+10	1	-1E+10	1	-1E+10	1
4902549	79	C	10/18/2022	19:06	-132.323	47.062	0	5.00	0	17.4360	0	32.3170	0	23.355	0	4.958	0	232.2	4	96.4	4	-1E+10	1	-1E+10	1	-1E+10	1	-1E+10	1	-1E+10	1	-1E+10	1
4902549	79	C	10/18/2022	19:06	-132.323	47.062	0	6.10	0	17.4360	0	32.3170	0	23.355	0	6.049	0	232.2	4	96.4	4	-1E+10	1	-1E+10	1	-1E+10	1	-1E+10	1	-1E+10	1	-1E+10	1
4902549	79	C	10/18/2022	19:06	-132.323	47.062	0	7.00	0	17.4360	0	32.3170	0	23.355	0	6.942	0	232.2	4	96.4	4	-1E+10	1	-1E+10	1	-1E+10	1	-1E+10	1	-1E+10	1	-1E+10	1
4902549	79	C	10/18/2022	19:06	-132.323	47.062	0	7.80	0	17.4370	0	32.3170	0	23.355	0	7.735	0	232.3	4	96.5	4	-1E+10	1	-1E+10	1	-1E+10	1	-1E+10	1	-1E+10	1	-1E+10	1
4902549	79	C	10/18/2022	19:06	-132.323	47.062	0	8.90	0	17.4360	0	32.3170	0	23.355	0	8.826	0	232.4	4	96.5	4	-1E+10	1	-1E+10	1	-1E+10	1	-1E+10	1	-1E+10	1	-1E+10	1
4902549	79	C	10/18/2022	19:06	-132.323	47.062	0	10.10	0	17.4350	0	32.3170	0	23.355	0	10.016	0	232.3	4	96.5	4	-1E+10	1	-1E+10	1	-1E+10	1	-1E+10	1	-1E+10	1	-1E+10	1
4902549	79	C	10/18/2022	19:06	-132.323	47.062	0	11.10	0	17.4360	0	32.3170	0	23.355	0	11.008	0	232.4	4	96.5	4	-1E+10	1	-1E+10	1	-1E+10	1	-1E+10	1	-1E+10	1	-1E+10	1
4902549	79	C	10/18/2022	19:06	-132.323	47.062	0	12.00	0	17.4370	0	32.3170	0	23.355	0	11.900	0	232.3	4	96.5	4	-1E+10	1	-1E+10	1	-1E+10	1	-1E+10	1	-1E+10	1	-1E+10	1
4902549	79	C	10/18/2022	19:06	-132.323	47.062	0	12.90	0	17.4370	0	32.3170	0	23.355	0	12.792	0	232.4	4	96.5	4	-1E+10	1	-1E+10	1	-1E+10	1	-1E+10	1	-1E+10	1	-1E+10	1
4902549	79	C	10/18/2022	19:06	-132.323	47.062	0	14.00	0	17.4380	0	32.3170	0	23.355	0	13.883	0	232.5	4	96.5	4	-1E+10	1	-1E+10	1	-1E+10	1	-1E+10	1	-1E+10	1	-1E+10	1
4902549	79	C	10/18/2022	19:06	-132.323	47.062	0	15.10	0	17.4380	0	32.3170	0	23.355	0	14.974	0	232.5	4	96.6	4	-1E+10	1	-1E+10	1	-1E+10	1	-1E+10	1	-1E+10	1	-1E+10	1
4902549	79	C	10/18/2022	19:06	-132.323	47.062	0	16.00	0	17.4380	0	32.3170	0	23.355	0	15.866	0	232.5	4	96.5	4	-1E+10	1	-1E+10	1	-1E+10	1	-1E+10	1	-1E+10	1	-1E+10	1
4902549	79	C	10/18/2022	19:06	-132.323	47.062	0	16.80	0	17.4380	0	32.3170	0	23.355	0	16.660	0	232.5	4	96.6	4	-1E+10	1	-1E+10	1	-1E+10	1	-1E+10	1	-1E+10	1	-1E+10	1
4902549	79	C	10/18/2022	19:06	-132.323	47.062	0	18.00	0	17.4380	0	32.3170	0	23.355	0	17.850	0	232.6	4	96.6	4	-1E+10	1	-1E+10	1	-1E+10	1	-1E+10	1	-1E+10	1	-1E+10	1
4902549	79	C	10/18/2022	19:06	-132.323	47.062	0	19.00	0	17.4390	0	32.3170	0	23.355	0	18.841	0	232.6	4	96.6	4	-1E+10	1	-1E+10	1	-1E+10	1	-1E+10	1	-1E+10	1	-1E+10	1
4902549	79	C	10/18/2022	19:06	-132.323	47.062	0	19.80	0	17.4380	0	32.3170	0	23.355	0	19.635	0	232.7	4	96.6	4	-1E+10	1	-1E+10	1	-1E+10	1	-1E+10	1	-1E+10	1	-1E+10	1
4902549	79	C	10/18/2022	19:06	-132.323	47.062	0	20.90	0	17.4380	0	32.3170	0	23.355	0	20.725	0	232.8	4	96.7	4	-1E+10	1	-1E+10	1	-1E+10	1	-1E+10	1	-1E+10	1	-1E+10	1
4902549	79	C	10/18/2022	19:06	-132.323	47.062	0	22.00	0	17.4390	0	32.3170	0	23.355	0	21.816	0	233.0	4	96.8	4	-1E+10	1	-1E+10	1	-1E+10	1	-1E+10	1	-1E+10	1	-1E+10	1
4902549	79	C	10/18/2022	19:06	-132.323	47.062	0	23.00	0	17.4380	0	32.3170	0	23.355	0	22.808	0	233.1	4	96.8	4	-1E+10	1	-1E+10	1	-1E+10	1	-1E+10	1	-1E+10	1	-1E+10	1
4902549	79	C	10/18/2022	19:06	-132.323	47.062	0	24.00	0	17.4390	0	32.3170	0	23.355	0	23.799	0	233.4	4	96.9	4	-1E+10	1	-1E+10	1	-1E+10	1	-1E+10	1	-1E+10	1	-1E+10	1
4902549	79	C	10/18/2022	19:06	-132.323	47.062	0	25.00	0	17.4390	0	32.3170	0	23.355	0	24.791	0	233.6	4	97.0	4	-1E+10	1	-1E+10	1	-1E+10	1	-1E+10	1	-1E+10	1	-1E+10	1
4902549	79	C	10/18/2022	19:06	-132.323	47.062	0	26.00	0	17.4390	0	32.3170	0	23.355	0	25.782	0	233.9	4	97.1	4	-1E+10	1	-1E+10	1	-1E+10	1	-1E+10	1	-1E+10	1	-1E+10	1
4902549	79	C	10/18/2022	19:06	-132.323	47.062	0	26.90	0	17.4400	0	32.3160	0	23.354	0	26.675	0	234.2	4	97.3	4	-1E+10	1	-1E+10	1	-1E+10	1	-1E+10	1	-1E+10	1	-1E+10	1
4902549	79	C	10/18/2022	19:06	-132.323	47.062	0	27.80	0	17.4400	0	32.3160	0	23.354	0	27.567	0	234.6	4	97.4	4	-1E+10	1	-1E+10	1	-1E+10	1	-1E+10	1	-1E+10	1	-1E+10	1
4902549	79	C	10/18/2022	19:06	-132.323	47.062	0	29.00	0	17.4400	0	32.3150	0	23.353	0	28.757	0	235.3	4	97.7	4	-1E+10	1	-1E+10	1	-1E+10	1	-1E+10	1	-1E+10	1	-1E+10	1
4902549	79	C	10/18/2022	19:06	-132.323	47.062	0	29.90	0	17.4380	0	32.3150	0	23.354	0	29.650	0	236.1	4	98.0	4	-1E+10	1	-1E+10	1	-1E+10	1	-1E+10	1	-1E+10	1	-1E+10	1
4902549	79	C	10/18/2022	19:06	-132.323	47.062	0	30.70	0	17.4100	0	32.3090	0	23.356	0	30.443	0	237.1	4	98.4	4	-1E+10	1	-1E+10	1	-1E+10	1	-1E+10	1	-1E+10	1	-1E+10	1
4902549	79	C	10/18/2022	19:06	-132.323	47.062	0	32.10	0	16.9910	0	32.3140	0	23.458	0	31.831	0	241.8	4	99.6	4	-1E+10	1	-1E+10	1	-1E+10	1	-1E+10	1	-1E+10	1	-1E+10	1
4902549	79	C	10/18/2022	19:06	-132.323	47.062	0	33.10	0	16.2700	0	32.3450	0	23.647	0	32.822	0	250.5	4	101.7	4	-1E+10	1	-1E+10	1	-1E+10	1	-1E+10	1	-1E+10	1	-1E+10	1
4902549	79	C	10/18/2022	19:06	-132.323	47.062	0	34.20	0	15.9200	0	32.2570	0	23.659	0	33.913	0	253.8	4	102.3	4	-1E+10	1	-1E+10	1	-1E+10	1	-1E+10	1	-1E+10	1	-1E+10	1
4902549	79	C	10/18/2022	19:06	-132.323	47.062	0	35.00	0	15.4970	0	32.3070	0	23.791	0	34.706	0	255.9	4	102.4	4	-1E+10	1	-1E+10	1	-1E+10	1	-1E+10	1	-1E+10	1	-1E+10	1
4902549	79	C	10/18/2022	19:06	-132.323	47.062	0	35.70	0	15.3470	0	32.2920	0	23.812	0	35.400	0	257.5	4	102.7	4	-1E+10	1	-1E+10	1	-1E+10	1	-1E+10	1	-1E+10	1	-1E+10	1
4902549	79	C	10/18/2022	19:06	-132.323	47.062	0	36.90	0	15.2850	0	32.2920	0	23.825	0	36.590	0	258.6	4	103.0	4	-1E+10	1	-1E+10	1	-1E+10	1	-1E+10	1	-1E+10	1	-1E+10	1
4902549	79	C	10/18/2022	19:06	-132.323	47.062	0	38.10	0	15.2020	0	32.2920	0	23.843	0	37.780	0	259.9	4	103.4	4	-1E+10	1	-1E+10	1	-1E+10	1	-1E+10	1	-1E+10	1	-1E+10	1
4902549	79	C	10/18/2022	19:06	-132.323	47.062	0	39.10	0	15.0380	0	32.3200	0	23.900	0	38.772	0	261.2	4	103.5	4	-1E+10	1	-1E+10	1	-1E+10	1	-1E+10	1	-1E+10	1	-1E+10	1
4902549	79	C	10/18/2022	19:06	-132.323	47.062	0	40.10	0	15.0330	0	32.2920	0	23.880	0	39.763	0	262.0	4	103.8	4	-1E+10	1	-1E+10	1	-1E+10	1	-1E+10	1	-1E+10	1	-1E+10	1
4902549	79	C	10/18/2022	19:06	-132.323	47.062	0	40.90	0	15.0420	0	32.2930	0	23.879	0	40.556	0	262.5	4	104.1	4	-1E+10	1	-1E+10	1	-1E+10	1	-1E+10	1	-1E+10	1	-1E+10	1
4902549	79	C	10/18/2022	19:06	-132.323	47.062	0	41.80	0	15.0150	0	32.2850	0	23.879	0	41.449	0	263.5	4	104.4	4	-1E+10	1	-1E+10	1	-1E+10	1	-1E+10	1	-1E+10	1	-1E+10	1
4902549	79	C	10/18/2022	19:06	-132.323	47.062	0	42.90	0	14.8550	0	32.2890	0	23.916	0	42.539	0	263.6	4	104.1	4	-1E+10	1	-1E+10	1	-1E+10	1	-1E+10	1	-1E+10	1	-1E+10	1
4902549	79	C	10/18/2022	19:06	-132.323	47.062	0	43.80	0	14.4590	0	32.2990	0	24.007	0	43.432	0	265.7	4	104.1	4	-1E+10	1	-1E+10	1	-1E+10	1	-1E+10	1	-1E+10	1	-1E+10	1
4902549	79	C	10/18/2022	19:06	-132.323	47.062	0	44.80	0	14.0300	0	32.3110	0	24.106	0	44.423	0	267.3	4	103.8	4	-1E+10	1	-1E+10	1	-1E+10	1	-1E+10	1	-1E+10	1	-1E+10	1
4902549	79	C	10/18/2022	19:06	-132.323	47.062	0	46.00	0	12.9650	0	32.3070	0	24.316	0	45.613	0	270.8	4	103.0	4	-1E+10	1	-1E+10	1	-1E+10	1	-1E+10	1	-1E+10	1	-1E+10	1
4902549	79	C	10/18/2022	19:06	-132.323	47.062	0	47.10	0	12.8630	0	32.2970	0	24.328	0	46.703	0	268.3	4	101.8	4	-1E+10	1	-1E+10	1	-1E+10	1	-1E+10	1	-1E+10	1	-1E+10	1
4902549	79	C	10/18/2022	19:06	-132.323	47.062	0	47.90	0	12.4070	0	32.2860	0	24.407	0	47.497	0	265.1	4	99.6	4	-1E+10	1	-1E+10	1	-1E+10	1	-1E+10	1	-1E+10	1	-1E+10	1
4902549	79	C	10/18/2022	19:06	-132.323	47.062	0	49.00	0	11.8180	0	32.2620	0	24.499	0	48.587	0	263.8	4	97.9	4	-1E+10	1	-1E+10	1	-1E+10	1	-1E+10	1	-1E+10	1	-1E+10	1
4902549	79	C	10/18/2022	19:06	-132.323	47.062	0	50.00	0	11.3810	0	32.2380	0	24.559	0	49.579	0	261.8	4	96.3	4	-1E+10	1	-1E+10	1	-1E+10	1	-1E+10	1	-1E+10	1	-1E+10	1
4902549	79	C	10/18/2022	19:06	-132.323	47.062	0	50.70	0	10.9320	0	32.2350	0	24.637	0	50.273	0	263.6	4	96.0	4	-1E+10	1	-1E+10	1	-1E+10	1	-1E+10	1	-1E+10	1	-1E+10	1
4902549	79	C	10/18/2022	19:06	-132.323	47.062	0	51.80	0	10.6960	0	32.2300	0	24.674	0	51.363	0	263.7	4	95.6	4	-1E+10	1	-1E+10	1	-1E+10	1	-1E+10	1	-1E+10	1	-1E+10	1
4902549	79	C	10/18/2022	19:06	-132.323	47.062	0	53.00	0	10.6380	0	32.2270	0	24.681	0	52.553	0	263.0	4	95.2	4	-1E+10	1	-1E+10	1	-1E+10	1	-1E+10	1	-1E+10	1	-1E+10	1
4902549	79	C	10/18/2022	19:06	-132.323	47.062	0	53.90	0	10.5930	0	32.2290	0	24.691	0	53.445	0	262.1	4	94.8	4	-1E+10	1	-1E+10	1	-1E+10	1	-1E+10	1	-1E+10	1	-1E+10	1
4902549	79	C	10/18/2022	19:06	-132.323	47.062	0	54.80	0	10.5240	0	32.2250	0	24.699	0	54.338	0	261.4	4	94.4	4	-1E+10	1	-1E+10	1	-1E+10	1	-1E+10	1	-1E+10	1	-1E+10	1
4902549	79	C	10/18/2022	19:06	-132.323	47.062	0	56.10	0	10.3210	0	32.2280	0	24.736	0	55.626	0	261.1	4	93.9	4	-1E+10	1	-1E+10	1	-1E+10	1	-1E+10	1	-1E+10	1	-1E+10	1
4902549	79	C	10/18/2022	19:06	-132.323	47.062	0	56.90	0	10.0700	0	32.2380	0	24.786	0	56.420	0	261.4	4	93.5	4	-1E+10	1	-1E+10	1	-1E+10	1	-1E+10	1	-1E+10	1	-1E+10	1
4902549	79	C	10/18/2022	19:06	-132.323	47.062	0	57.90	0	9.9350	0	32.2360	0	24.807	0	57.411	0	261.4	4	93.2	4	-1E+10	1	-1E+10	1	-1E+10	1	-1E+10	1	-1E+10	1	-1E+10	1
4902549	79	C	10/18/2022	19:06	-132.323	47.062	0	59.00	0	9.7860	0	32.2390	0	24.833	0	58.502	0	260.9	4	92.7	4	-1E+10	1	-1E+10	1	-1E+10	1	-1E+10	1	-1E+10	1	-1E+10	1
4902549	79	C	10/18/2022	19:06	-132.323	47.062	0	60.00	0	9.5320	0	32.2490	0	24.882	0	59.493	0	260.8	4	92.2	4	-1E+10	1	-1E+10	1	-1E+10	1	-1E+10	1	-1E+10	1	-1E+10	1
4902549	79	C	10/18/2022	19:06	-132.323	47.062	0	60.90	0	9.4600	0	32.2510	0	24.895	0	60.385	0	260.6	4	91.9	4	-1E+10	1	-1E+10	1	-1E+10	1	-1E+10	1	-1E+10	1	-1E+10	1
4902549	79	C	10/18/2022	19:06	-132.323	47.062	0	62.10	0	9.4180	0	32.2540	0	24.904	0	61.575	0	260.0	4	91.7	4	-1E+10	1	-1E+10	1	-1E+10	1	-1E+10	1	-1E+10	1	-1E+10	1
4902549	79	C	10/18/2022	19:06	-132.323	47.062	0	63.00	0	9.3890	0	32.2540	0	24.909	0	62.467	0	259.4	4	91.4	4	-1E+10	1	-1E+10	1	-1E+10	1	-1E+10	1	-1E+10	1	-1E+10	1
4902549	79	C	10/18/2022	19:06	-132.323	47.062	0	63.90	0	9.3620	0	32.2550	0	24.914	0	63.359	0	258.8	4	91.1	4	-1E+10	1	-1E+10	1	-1E+10	1	-1E+10	1	-1E+10	1	-1E+10	1
4902549	79	C	10/18/2022	19:06	-132.323	47.062	0	64.80	0	9.3350	0	32.2560	0	24.919	0	64.252	0	258.1	4	90.8	4	-1E+10	1	-1E+10	1	-1E+10	1	-1E+10	1	-1E+10	1	-1E+10	1
4902549	79	C	10/18/2022	19:06	-132.323	47.062	0	65.80	0	9.2780	0	32.2640	0	24.934	0	65.243	0	257.3	4	90.4	4	-1E+10	1	-1E+10	1	-1E+10	1	-1E+10	1	-1E+10	1	-1E+10	1
4902549	79	C	10/18/2022	19:06	-132.323	47.062	0	66.90	0	9.2410	0	32.2600	0	24.937	0	66.334	0	256.2	4	90.0	4	-1E+10	1	-1E+10	1	-1E+10	1	-1E+10	1	-1E+10	1	-1E+10	1
4902549	79	C	10/18/2022	19:06	-132.323	47.062	0	68.00	0	9.1570	0	32.2650	0	24.954	0	67.424	0	255.5	4	89.6	4	-1E+10	1	-1E+10	1	-1E+10	1	-1E+10	1	-1E+10	1	-1E+10	1
4902549	79	C	10/18/2022	19:06	-132.323	47.062	0	69.20	0	9.0950	0	32.2710	0	24.969	0	68.614	0	254.7	4	89.2	4	-1E+10	1	-1E+10	1	-1E+10	1	-1E+10	1	-1E+10	1	-1E+10	1
4902549	79	C	10/18/2022	19:06	-132.323	47.062	0	70.00	0	9.0230	0	32.2750	0	24.983	0	69.407	0	254.3	4	88.9	4	-1E+10	1	-1E+10	1	-1E+10	1	-1E+10	1	-1E+10	1	-1E+10	1
4902549	79	C	10/18/2022	19:06	-132.323	47.062	0	71.00	0	8.9540	0	32.2790	0	24.997	0	70.398	0	253.7	4	88.6	4	-1E+10	1	-1E+10	1	-1E+10	1	-1E+10	1	-1E+10	1	-1E+10	1
4902549	79	C	10/18/2022	19:06	-132.323	47.062	0	71.90	0	8.8940	0	32.2830	0	25.009	0	71.290	0	253.5	4	88.4	4	-1E+10	1	-1E+10	1	-1E+10	1	-1E+10	1	-1E+10	1	-1E+10	1
4902549	79	C	10/18/2022	19:06	-132.323	47.062	0	73.00	0	8.7790	0	32.2940	0	25.035	0	72.381	0	253.3	4	88.1	4	-1E+10	1	-1E+10	1	-1E+10	1	-1E+10	1	-1E+10	1	-1E+10	1
4902549	79	C	10/18/2022	19:06	-132.323	47.062	0	74.00	0	8.7450	0	32.2950	0	25.041	0	73.372	0	253.0	4	87.9	4	-1E+10	1	-1E+10	1	-1E+10	1	-1E+10	1	-1E+10	1	-1E+10	1
4902549	79	C	10/18/2022	19:06	-132.323	47.062	0	75.10	0	8.7400	0	32.2940	0	25.041	0	74.463	0	252.3	4	87.7	4	-1E+10	1	-1E+10	1	-1E+10	1	-1E+10	1	-1E+10	1	-1E+10	1
4902549	79	C	10/18/2022	19:06	-132.323	47.062	0	75.90	0	8.6850	0	32.2970	0	25.052	0	75.256	0	252.0	4	87.4	4	-1E+10	1	-1E+10	1	-1E+10	1	-1E+10	1	-1E+10	1	-1E+10	1
4902549	79	C	10/18/2022	19:06	-132.323	47.062	0	76.80	0	8.5920	0	32.3090	0	25.075	0	76.148	0	251.9	4	87.2	4	-1E+10	1	-1E+10	1	-1E+10	1	-1E+10	1	-1E+10	1	-1E+10	1
4902549	79	C	10/18/2022	19:06	-132.323	47.062	0	77.90	0	8.5440	0	32.3110	0	25.084	0	77.238	0	251.6	4	87.0	4	-1E+10	1	-1E+10	1	-1E+10	1	-1E+10	1	-1E+10	1	-1E+10	1
4902549	79	C	10/18/2022	19:06	-132.323	47.062	0	79.00	0	8.5300	0	32.3110	0	25.086	0	78.329	0	250.8	4	86.7	4	-1E+10	1	-1E+10	1	-1E+10	1	-1E+10	1	-1E+10	1	-1E+10	1
4902549	79	C	10/18/2022	19:06	-132.323	47.062	0	80.10	0	8.4020	0	32.3220	0	25.114	0	79.419	0	250.5	4	86.4	4	-1E+10	1	-1E+10	1	-1E+10	1	-1E+10	1	-1E+10	1	-1E+10	1
4902549	79	C	10/18/2022	19:06	-132.323	47.062	0	81.00	0	8.2900	0	32.3420	0	25.146	0	80.311	0	250.5	4	86.2	4	-1E+10	1	-1E+10	1	-1E+10	1	-1E+10	1	-1E+10	1	-1E+10	1
4902549	79	C	10/18/2022	19:06	-132.323	47.062	0	81.80	0	8.2720	0	32.3440	0	25.150	0	81.104	0	250.2	4	86.0	4	-1E+10	1	-1E+10	1	-1E+10	1	-1E+10	1	-1E+10	1	-1E+10	1
4902549	79	C	10/18/2022	19:06	-132.323	47.062	0	82.90	0	8.2410	0	32.3480	0	25.158	0	82.195	0	256.1	4	88.0	4	-1E+10	1	-1E+10	1	-1E+10	1	-1E+10	1	-1E+10	1	-1E+10	1
4902549	79	C	10/18/2022	19:06	-132.323	47.062	0	83.90	0	8.2140	0	32.3520	0	25.165	0	83.186	0	255.5	4	87.8	4	-1E+10	1	-1E+10	1	-1E+10	1	-1E+10	1	-1E+10	1	-1E+10	1
4902549	79	C	10/18/2022	19:06	-132.323	47.062	0	84.90	0	8.1900	0	32.3550	0	25.171	0	84.178	0	254.9	4	87.5	4	-1E+10	1	-1E+10	1	-1E+10	1	-1E+10	1	-1E+10	1	-1E+10	1
4902549	79	C	10/18/2022	19:06	-132.323	47.062	0	85.90	0	8.1550	0	32.3610	0	25.181	0	85.169	0	254.2	4	87.2	4	-1E+10	1	-1E+10	1	-1E+10	1	-1E+10	1	-1E+10	1	-1E+10	1
4902549	79	C	10/18/2022	19:06	-132.323	47.062	0	86.80	0	8.1360	0	32.3620	0	25.184	0	86.061	0	253.3	4	86.9	4	-1E+10	1	-1E+10	1	-1E+10	1	-1E+10	1	-1E+10	1	-1E+10	1
4902549	79	C	10/18/2022	19:06	-132.323	47.062	0	87.90	0	8.0970	0	32.3670	0	25.194	0	87.151	0	252.0	4	86.4	4	-1E+10	1	-1E+10	1	-1E+10	1	-1E+10	1	-1E+10	1	-1E+10	1
4902549	79	C	10/18/2022	19:06	-132.323	47.062	0	89.20	0	8.0200	0	32.3840	0	25.219	0	88.440	0	250.4	4	85.7	4	-1E+10	1	-1E+10	1	-1E+10	1	-1E+10	1	-1E+10	1	-1E+10	1
4902549	79	C	10/18/2022	19:06	-132.323	47.062	0	90.00	0	7.9490	0	32.4050	0	25.245	0	89.233	0	249.6	4	85.3	4	-1E+10	1	-1E+10	1	-1E+10	1	-1E+10	1	-1E+10	1	-1E+10	1
4902549	79	C	10/18/2022	19:06	-132.323	47.062	0	91.10	0	7.8960	0	32.4200	0	25.265	0	90.323	0	248.0	4	84.6	4	-1E+10	1	-1E+10	1	-1E+10	1	-1E+10	1	-1E+10	1	-1E+10	1
4902549	79	C	10/18/2022	19:06	-132.323	47.062	0	92.10	0	7.8350	0	32.4430	0	25.291	0	91.315	0	246.3	4	84.0	4	-1E+10	1	-1E+10	1	-1E+10	1	-1E+10	1	-1E+10	1	-1E+10	1
4902549	79	C	10/18/2022	19:06	-132.323	47.062	0	92.90	0	7.8170	0	32.4530	0	25.302	0	92.108	0	244.9	4	83.4	4	-1E+10	1	-1E+10	1	-1E+10	1	-1E+10	1	-1E+10	1	-1E+10	1
4902549	79	C	10/18/2022	19:06	-132.323	47.062	0	94.10	0	7.7930	0	32.4700	0	25.319	0	93.297	0	243.2	4	82.8	4	-1E+10	1	-1E+10	1	-1E+10	1	-1E+10	1	-1E+10	1	-1E+10	1
4902549	79	C	10/18/2022	19:06	-132.323	47.062	0	95.00	0	7.7750	0	32.4810	0	25.330	0	94.189	0	241.9	4	82.4	4	-1E+10	1	-1E+10	1	-1E+10	1	-1E+10	1	-1E+10	1	-1E+10	1
4902549	79	C	10/18/2022	19:06	-132.323	47.062	0	96.20	0	7.7650	0	32.4830	0	25.333	0	95.379	0	240.4	4	81.8	4	-1E+10	1	-1E+10	1	-1E+10	1	-1E+10	1	-1E+10	1	-1E+10	1
4902549	79	C	10/18/2022	19:06	-132.323	47.062	0	97.00	0	7.7480	0	32.4920	0	25.342	0	96.172	0	239.2	4	81.4	4	-1E+10	1	-1E+10	1	-1E+10	1	-1E+10	1	-1E+10	1	-1E+10	1
4902549	79	C	10/18/2022	19:06	-132.323	47.062	0	98.20	0	7.7290	0	32.5030	0	25.354	0	97.361	0	237.1	4	80.6	4	-1E+10	1	-1E+10	1	-1E+10	1	-1E+10	1	-1E+10	1	-1E+10	1
4902549	79	C	10/18/2022	19:06	-132.323	47.062	0	99.00	0	7.7190	0	32.5060	0	25.357	0	98.154	0	235.4	4	80.1	4	-1E+10	1	-1E+10	1	-1E+10	1	-1E+10	1	-1E+10	1	-1E+10	1
4902549	79	C	10/18/2022	19:06	-132.323	47.062	0	100.30	0	7.6830	0	32.5330	0	25.384	0	99.443	0	233.1	4	79.2	4	-1E+10	1	-1E+10	1	-1E+10	1	-1E+10	1	-1E+10	1	-1E+10	1
4902549	79	C	10/18/2022	19:06	-132.323	47.062	0	100.90	0	7.6460	0	32.5590	0	25.409	0	100.037	0	231.9	4	78.8	4	-1E+10	1	-1E+10	1	-1E+10	1	-1E+10	1	-1E+10	1	-1E+10	1
4902549	79	C	10/18/2022	19:06	-132.323	47.062	0	102.10	0	7.6080	0	32.5810	0	25.432	0	101.227	0	229.3	4	77.8	4	-1E+10	1	-1E+10	1	-1E+10	1	-1E+10	1	-1E+10	1	-1E+10	1
4902549	79	C	10/18/2022	19:06	-132.323	47.062	0	102.90	0	7.5980	0	32.6120	0	25.458	0	102.020	0	228.0	4	77.4	4	-1E+10	1	-1E+10	1	-1E+10	1	-1E+10	1	-1E+10	1	-1E+10	1
4902549	79	C	10/18/2022	19:06	-132.323	47.062	0	103.90	0	7.5780	0	32.6590	0	25.497	0	103.011	0	226.7	4	77.0	4	-1E+10	1	-1E+10	1	-1E+10	1	-1E+10	1	-1E+10	1	-1E+10	1
4902549	79	C	10/18/2022	19:06	-132.323	47.062	0	104.90	0	7.5500	0	32.6740	0	25.513	0	104.002	0	225.4	4	76.5	4	-1E+10	1	-1E+10	1	-1E+10	1	-1E+10	1	-1E+10	1	-1E+10	1
4902549	79	C	10/18/2022	19:06	-132.323	47.062	0	105.80	0	7.5430	0	32.6830	0	25.521	0	104.894	0	223.8	4	75.9	4	-1E+10	1	-1E+10	1	-1E+10	1	-1E+10	1	-1E+10	1	-1E+10	1
4902549	79	C	10/18/2022	19:06	-132.323	47.062	0	107.00	0	7.5400	0	32.7120	0	25.544	0	106.084	0	222.0	4	75.3	4	-1E+10	1	-1E+10	1	-1E+10	1	-1E+10	1	-1E+10	1	-1E+10	1
4902549	79	C	10/18/2022	19:06	-132.323	47.062	0	108.20	0	7.5240	0	32.7350	0	25.565	0	107.273	0	220.5	4	74.8	4	-1E+10	1	-1E+10	1	-1E+10	1	-1E+10	1	-1E+10	1	-1E+10	1
4902549	79	C	10/18/2022	19:06	-132.323	47.062	0	108.90	0	7.4690	0	32.7680	0	25.598	0	107.967	0	219.7	4	74.4	4	-1E+10	1	-1E+10	1	-1E+10	1	-1E+10	1	-1E+10	1	-1E+10	1
4902549	79	C	10/18/2022	19:06	-132.323	47.062	0	110.10	0	7.4440	0	32.7810	0	25.612	0	109.156	0	217.3	4	73.6	4	-1E+10	1	-1E+10	1	-1E+10	1	-1E+10	1	-1E+10	1	-1E+10	1
4902549	79	C	10/18/2022	19:06	-132.323	47.062	0	111.00	0	7.4400	0	32.7930	0	25.622	0	110.048	0	215.4	4	72.9	4	-1E+10	1	-1E+10	1	-1E+10	1	-1E+10	1	-1E+10	1	-1E+10	1
4902549	79	C	10/18/2022	19:06	-132.323	47.062	0	111.80	0	7.4350	0	32.7980	0	25.627	0	110.841	0	213.9	4	72.4	4	-1E+10	1	-1E+10	1	-1E+10	1	-1E+10	1	-1E+10	1	-1E+10	1
4902549	79	C	10/18/2022	19:06	-132.323	47.062	0	112.80	0	7.4120	0	32.8280	0	25.654	0	111.833	0	212.2	4	71.8	4	-1E+10	1	-1E+10	1	-1E+10	1	-1E+10	1	-1E+10	1	-1E+10	1
4902549	79	C	10/18/2022	19:06	-132.323	47.062	0	113.90	0	7.4080	0	32.8510	0	25.672	0	112.923	0	210.6	4	71.3	4	-1E+10	1	-1E+10	1	-1E+10	1	-1E+10	1	-1E+10	1	-1E+10	1
4902549	79	C	10/18/2022	19:06	-132.323	47.062	0	115.10	0	7.4050	0	32.8810	0	25.696	0	114.112	0	209.1	4	70.8	4	-1E+10	1	-1E+10	1	-1E+10	1	-1E+10	1	-1E+10	1	-1E+10	1
4902549	79	C	10/18/2022	19:06	-132.323	47.062	0	116.10	0	7.4070	0	32.8880	0	25.701	0	115.103	0	207.6	4	70.3	4	-1E+10	1	-1E+10	1	-1E+10	1	-1E+10	1	-1E+10	1	-1E+10	1
4902549	79	C	10/18/2022	19:06	-132.323	47.062	0	117.20	0	7.4070	0	32.8950	0	25.707	0	116.194	0	205.8	4	69.7	4	-1E+10	1	-1E+10	1	-1E+10	1	-1E+10	1	-1E+10	1	-1E+10	1
4902549	79	C	10/18/2022	19:06	-132.323	47.062	0	118.10	0	7.4020	0	32.9020	0	25.713	0	117.086	0	204.0	4	69.1	4	-1E+10	1	-1E+10	1	-1E+10	1	-1E+10	1	-1E+10	1	-1E+10	1
4902549	79	C	10/18/2022	19:06	-132.323	47.062	0	118.90	0	7.3990	0	32.9140	0	25.723	0	117.878	0	202.3	4	68.5	4	-1E+10	1	-1E+10	1	-1E+10	1	-1E+10	1	-1E+10	1	-1E+10	1
4902549	79	C	10/18/2022	19:06	-132.323	47.062	0	120.10	0	7.3940	0	32.9330	0	25.739	0	119.068	0	199.3	4	67.5	4	-1E+10	1	-1E+10	1	-1E+10	1	-1E+10	1	-1E+10	1	-1E+10	1
4902549	79	C	10/18/2022	19:06	-132.323	47.062	0	120.90	0	7.3930	0	32.9530	0	25.755	0	119.861	0	197.1	4	66.8	4	-1E+10	1	-1E+10	1	-1E+10	1	-1E+10	1	-1E+10	1	-1E+10	1
4902549	79	C	10/18/2022	19:06	-132.323	47.062	0	122.30	0	7.3820	0	33.0000	0	25.793	0	121.248	0	194.3	4	65.8	4	-1E+10	1	-1E+10	1	-1E+10	1	-1E+10	1	-1E+10	1	-1E+10	1
4902549	79	C	10/18/2022	19:06	-132.323	47.062	0	123.20	0	7.3670	0	33.0420	0	25.828	0	122.140	0	192.6	4	65.2	4	-1E+10	1	-1E+10	1	-1E+10	1	-1E+10	1	-1E+10	1	-1E+10	1
4902549	79	C	10/18/2022	19:06	-132.323	47.062	0	124.10	0	7.3660	0	33.0570	0	25.840	0	123.032	0	190.5	4	64.5	4	-1E+10	1	-1E+10	1	-1E+10	1	-1E+10	1	-1E+10	1	-1E+10	1
4902549	79	C	10/18/2022	19:06	-132.323	47.062	0	125.10	0	7.3640	0	33.0780	0	25.857	0	124.023	0	187.9	4	63.7	4	-1E+10	1	-1E+10	1	-1E+10	1	-1E+10	1	-1E+10	1	-1E+10	1
4902549	79	C	10/18/2022	19:06	-132.323	47.062	0	126.00	0	7.3650	0	33.1100	0	25.882	0	124.915	0	185.9	4	63.0	4	-1E+10	1	-1E+10	1	-1E+10	1	-1E+10	1	-1E+10	1	-1E+10	1
4902549	79	C	10/18/2022	19:06	-132.323	47.062	0	127.20	0	7.3660	0	33.1530	0	25.916	0	126.105	0	183.7	4	62.3	4	-1E+10	1	-1E+10	1	-1E+10	1	-1E+10	1	-1E+10	1	-1E+10	1
4902549	79	C	10/18/2022	19:06	-132.323	47.062	0	128.00	0	7.3670	0	33.1780	0	25.935	0	126.897	0	182.4	4	61.9	4	-1E+10	1	-1E+10	1	-1E+10	1	-1E+10	1	-1E+10	1	-1E+10	1
4902549	79	C	10/18/2022	19:06	-132.323	47.062	0	129.10	0	7.3670	0	33.2140	0	25.964	0	127.988	0	181.0	4	61.4	4	-1E+10	1	-1E+10	1	-1E+10	1	-1E+10	1	-1E+10	1	-1E+10	1
4902549	79	C	10/18/2022	19:06	-132.323	47.062	0	130.00	0	7.3660	0	33.2180	0	25.967	0	128.880	0	179.6	4	60.9	4	-1E+10	1	-1E+10	1	-1E+10	1	-1E+10	1	-1E+10	1	-1E+10	1
4902549	79	C	10/18/2022	19:06	-132.323	47.062	0	130.80	0	7.3660	0	33.2230	0	25.971	0	129.672	0	177.9	4	60.4	4	-1E+10	1	-1E+10	1	-1E+10	1	-1E+10	1	-1E+10	1	-1E+10	1
4902549	79	C	10/18/2022	19:06	-132.323	47.062	0	131.90	0	7.3650	0	33.2300	0	25.976	0	130.763	0	175.4	4	59.5	4	-1E+10	1	-1E+10	1	-1E+10	1	-1E+10	1	-1E+10	1	-1E+10	1
4902549	79	C	10/18/2022	19:06	-132.323	47.062	0	133.10	0	7.3630	0	33.2440	0	25.988	0	131.952	0	172.6	4	58.6	4	-1E+10	1	-1E+10	1	-1E+10	1	-1E+10	1	-1E+10	1	-1E+10	1
4902549	79	C	10/18/2022	19:06	-132.323	47.062	0	134.00	0	7.3650	0	33.2670	0	26.006	0	132.844	0	170.4	4	57.8	4	-1E+10	1	-1E+10	1	-1E+10	1	-1E+10	1	-1E+10	1	-1E+10	1
4902549	79	C	10/18/2022	19:06	-132.323	47.062	0	135.00	0	7.3670	0	33.3090	0	26.038	0	133.835	0	168.3	4	57.1	4	-1E+10	1	-1E+10	1	-1E+10	1	-1E+10	1	-1E+10	1	-1E+10	1
4902549	79	C	10/18/2022	19:06	-132.323	47.062	0	136.10	0	7.3690	0	33.3510	0	26.071	0	134.925	0	166.6	4	56.6	4	-1E+10	1	-1E+10	1	-1E+10	1	-1E+10	1	-1E+10	1	-1E+10	1
4902549	79	C	10/18/2022	19:06	-132.323	47.062	0	136.80	0	7.3740	0	33.3920	0	26.103	0	135.619	0	165.8	4	56.3	4	-1E+10	1	-1E+10	1	-1E+10	1	-1E+10	1	-1E+10	1	-1E+10	1
4902549	79	C	10/18/2022	19:06	-132.323	47.062	0	137.90	0	7.3670	0	33.4210	0	26.127	0	136.709	0	164.9	4	56.0	4	-1E+10	1	-1E+10	1	-1E+10	1	-1E+10	1	-1E+10	1	-1E+10	1
4902549	79	C	10/18/2022	19:06	-132.323	47.062	0	139.10	0	7.3670	0	33.4340	0	26.137	0	137.898	0	164.1	4	55.7	4	-1E+10	1	-1E+10	1	-1E+10	1	-1E+10	1	-1E+10	1	-1E+10	1
4902549	79	C	10/18/2022	19:06	-132.323	47.062	0	139.90	0	7.3670	0	33.4480	0	26.148	0	138.691	0	163.5	4	55.6	4	-1E+10	1	-1E+10	1	-1E+10	1	-1E+10	1	-1E+10	1	-1E+10	1
4902549	79	C	10/18/2022	19:06	-132.323	47.062	0	140.70	0	7.3670	0	33.4500	0	26.149	0	139.484	0	163.0	4	55.4	4	-1E+10	1	-1E+10	1	-1E+10	1	-1E+10	1	-1E+10	1	-1E+10	1
4902549	79	C	10/18/2022	19:06	-132.323	47.062	0	141.90	0	7.3660	0	33.4590	0	26.157	0	140.673	0	162.1	4	55.1	4	-1E+10	1	-1E+10	1	-1E+10	1	-1E+10	1	-1E+10	1	-1E+10	1
4902549	79	C	10/18/2022	19:06	-132.323	47.062	0	143.10	0	7.3630	0	33.4740	0	26.169	0	141.862	0	161.4	4	54.9	4	-1E+10	1	-1E+10	1	-1E+10	1	-1E+10	1	-1E+10	1	-1E+10	1
4902549	79	C	10/18/2022	19:06	-132.323	47.062	0	143.90	0	7.3630	0	33.4760	0	26.170	0	142.655	0	160.9	4	54.7	4	-1E+10	1	-1E+10	1	-1E+10	1	-1E+10	1	-1E+10	1	-1E+10	1
4902549	79	C	10/18/2022	19:06	-132.323	47.062	0	144.70	0	7.3620	0	33.4790	0	26.173	0	143.448	0	160.3	4	54.5	4	-1E+10	1	-1E+10	1	-1E+10	1	-1E+10	1	-1E+10	1	-1E+10	1
4902549	79	C	10/18/2022	19:06	-132.323	47.062	0	145.90	0	7.3590	0	33.4860	0	26.179	0	144.637	0	159.2	4	54.1	4	-1E+10	1	-1E+10	1	-1E+10	1	-1E+10	1	-1E+10	1	-1E+10	1
4902549	79	C	10/18/2022	19:06	-132.323	47.062	0	147.10	0	7.3590	0	33.4890	0	26.181	0	145.826	0	158.1	4	53.7	4	-1E+10	1	-1E+10	1	-1E+10	1	-1E+10	1	-1E+10	1	-1E+10	1
4902549	79	C	10/18/2022	19:06	-132.323	47.062	0	147.90	0	7.3560	0	33.5060	0	26.195	0	146.619	0	157.4	4	53.5	4	-1E+10	1	-1E+10	1	-1E+10	1	-1E+10	1	-1E+10	1	-1E+10	1
4902549	79	C	10/18/2022	19:06	-132.323	47.062	0	148.70	0	7.3540	0	33.5160	0	26.203	0	147.412	0	156.7	4	53.2	4	-1E+10	1	-1E+10	1	-1E+10	1	-1E+10	1	-1E+10	1	-1E+10	1
4902549	79	C	10/18/2022	19:06	-132.323	47.062	0	149.90	0	7.3430	0	33.5480	0	26.230	0	148.601	0	155.9	4	53.0	4	-1E+10	1	-1E+10	1	-1E+10	1	-1E+10	1	-1E+10	1	-1E+10	1
4902549	79	C	10/18/2022	19:06	-132.323	47.062	0	151.20	0	7.3300	0	33.5770	0	26.255	0	149.889	0	155.5	4	52.8	4	-1E+10	1	-1E+10	1	-1E+10	1	-1E+10	1	-1E+10	1	-1E+10	1
4902549	79	C	10/18/2022	19:06	-132.323	47.062	0	152.00	0	7.3270	0	33.5780	0	26.256	0	150.682	0	155.1	4	52.7	4	-1E+10	1	-1E+10	1	-1E+10	1	-1E+10	1	-1E+10	1	-1E+10	1
4902549	79	C	10/18/2022	19:06	-132.323	47.062	0	152.90	0	7.3230	0	33.5880	0	26.264	0	151.574	0	154.6	4	52.5	4	-1E+10	1	-1E+10	1	-1E+10	1	-1E+10	1	-1E+10	1	-1E+10	1
4902549	79	C	10/18/2022	19:06	-132.323	47.062	0	153.70	0	7.3210	0	33.5910	0	26.267	0	152.367	0	154.2	4	52.4	4	-1E+10	1	-1E+10	1	-1E+10	1	-1E+10	1	-1E+10	1	-1E+10	1
4902549	79	C	10/18/2022	19:06	-132.323	47.062	0	154.90	0	7.3150	0	33.6020	0	26.276	0	153.556	0	153.4	4	52.1	4	-1E+10	1	-1E+10	1	-1E+10	1	-1E+10	1	-1E+10	1	-1E+10	1
4902549	79	C	10/18/2022	19:06	-132.323	47.062	0	156.20	0	7.3120	0	33.6080	0	26.282	0	154.844	0	152.5	4	51.8	4	-1E+10	1	-1E+10	1	-1E+10	1	-1E+10	1	-1E+10	1	-1E+10	1
4902549	79	C	10/18/2022	19:06	-132.323	47.062	0	157.00	0	7.3100	0	33.6140	0	26.287	0	155.637	0	152.0	4	51.6	4	-1E+10	1	-1E+10	1	-1E+10	1	-1E+10	1	-1E+10	1	-1E+10	1
4902549	79	C	10/18/2022	19:06	-132.323	47.062	0	157.80	0	7.3080	0	33.6190	0	26.291	0	156.430	0	151.5	4	51.5	4	-1E+10	1	-1E+10	1	-1E+10	1	-1E+10	1	-1E+10	1	-1E+10	1
4902549	79	C	10/18/2022	19:06	-132.323	47.062	0	159.00	0	7.2920	0	33.6430	0	26.312	0	157.619	0	151.1	4	51.3	4	-1E+10	1	-1E+10	1	-1E+10	1	-1E+10	1	-1E+10	1	-1E+10	1
4902549	79	C	10/18/2022	19:06	-132.323	47.062	0	160.20	0	7.2880	0	33.6480	0	26.316	0	158.808	0	150.6	4	51.2	4	-1E+10	1	-1E+10	1	-1E+10	1	-1E+10	1	-1E+10	1	-1E+10	1
4902549	79	C	10/18/2022	19:06	-132.323	47.062	0	161.00	0	7.2870	0	33.6480	0	26.317	0	159.600	0	150.3	4	51.0	4	-1E+10	1	-1E+10	1	-1E+10	1	-1E+10	1	-1E+10	1	-1E+10	1
4902549	79	C	10/18/2022	19:06	-132.323	47.062	0	161.80	0	7.2790	0	33.6590	0	26.326	0	160.393	0	149.9	4	50.9	4	-1E+10	1	-1E+10	1	-1E+10	1	-1E+10	1	-1E+10	1	-1E+10	1
4902549	79	C	10/18/2022	19:06	-132.323	47.062	0	163.00	0	7.2650	0	33.6740	0	26.340	0	161.582	0	149.6	4	50.8	4	-1E+10	1	-1E+10	1	-1E+10	1	-1E+10	1	-1E+10	1	-1E+10	1
4902549	79	C	10/18/2022	19:06	-132.323	47.062	0	164.30	0	7.2570	0	33.6840	0	26.349	0	162.871	0	149.3	4	50.7	4	-1E+10	1	-1E+10	1	-1E+10	1	-1E+10	1	-1E+10	1	-1E+10	1
4902549	79	C	10/18/2022	19:06	-132.323	47.062	0	165.10	0	7.2520	0	33.6890	0	26.354	0	163.663	0	149.0	4	50.6	4	-1E+10	1	-1E+10	1	-1E+10	1	-1E+10	1	-1E+10	1	-1E+10	1
4902549	79	C	10/18/2022	19:06	-132.323	47.062	0	165.90	0	7.2480	0	33.6920	0	26.357	0	164.456	0	148.8	4	50.5	4	-1E+10	1	-1E+10	1	-1E+10	1	-1E+10	1	-1E+10	1	-1E+10	1
4902549	79	C	10/18/2022	19:06	-132.323	47.062	0	166.80	0	7.2350	0	33.7030	0	26.367	0	165.348	0	148.8	4	50.5	4	-1E+10	1	-1E+10	1	-1E+10	1	-1E+10	1	-1E+10	1	-1E+10	1
4902549	79	C	10/18/2022	19:06	-132.323	47.062	0	167.60	0	7.2290	0	33.7060	0	26.370	0	166.140	0	148.6	4	50.4	4	-1E+10	1	-1E+10	1	-1E+10	1	-1E+10	1	-1E+10	1	-1E+10	1
4902549	79	C	10/18/2022	19:06	-132.323	47.062	0	168.90	0	7.2160	0	33.7150	0	26.379	0	167.429	0	148.5	4	50.4	4	-1E+10	1	-1E+10	1	-1E+10	1	-1E+10	1	-1E+10	1	-1E+10	1
4902549	79	C	10/18/2022	19:06	-132.323	47.062	0	170.20	0	7.2100	0	33.7170	0	26.382	0	168.717	0	148.3	4	50.3	4	-1E+10	1	-1E+10	1	-1E+10	1	-1E+10	1	-1E+10	1	-1E+10	1
4902549	79	C	10/18/2022	19:06	-132.323	47.062	0	171.00	0	7.1960	0	33.7200	0	26.386	0	169.509	0	148.0	4	50.2	4	-1E+10	1	-1E+10	1	-1E+10	1	-1E+10	1	-1E+10	1	-1E+10	1
4902549	79	C	10/18/2022	19:06	-132.323	47.062	0	171.90	0	7.1910	0	33.7250	0	26.391	0	170.401	0	147.4	4	50.0	4	-1E+10	1	-1E+10	1	-1E+10	1	-1E+10	1	-1E+10	1	-1E+10	1
4902549	79	C	10/18/2022	19:06	-132.323	47.062	0	172.80	0	7.1690	0	33.7370	0	26.403	0	171.293	0	146.8	4	49.8	4	-1E+10	1	-1E+10	1	-1E+10	1	-1E+10	1	-1E+10	1	-1E+10	1
4902549	79	C	10/18/2022	19:06	-132.323	47.062	0	173.70	0	7.1540	0	33.7420	0	26.409	0	172.185	0	146.6	4	49.7	4	-1E+10	1	-1E+10	1	-1E+10	1	-1E+10	1	-1E+10	1	-1E+10	1
4902549	79	C	10/18/2022	19:06	-132.323	47.062	0	174.90	0	7.1520	0	33.7430	0	26.410	0	173.374	0	146.5	4	49.6	4	-1E+10	1	-1E+10	1	-1E+10	1	-1E+10	1	-1E+10	1	-1E+10	1
4902549	79	C	10/18/2022	19:06	-132.323	47.062	0	176.30	0	7.1440	0	33.7480	0	26.415	0	174.761	0	146.5	4	49.6	4	-1E+10	1	-1E+10	1	-1E+10	1	-1E+10	1	-1E+10	1	-1E+10	1
4902549	79	C	10/18/2022	19:06	-132.323	47.062	0	177.10	0	7.1330	0	33.7520	0	26.420	0	175.554	0	146.5	4	49.6	4	-1E+10	1	-1E+10	1	-1E+10	1	-1E+10	1	-1E+10	1	-1E+10	1
4902549	79	C	10/18/2022	19:06	-132.323	47.062	0	178.00	0	7.1300	0	33.7520	0	26.420	0	176.445	0	146.5	4	49.6	4	-1E+10	1	-1E+10	1	-1E+10	1	-1E+10	1	-1E+10	1	-1E+10	1
4902549	79	C	10/18/2022	19:06	-132.323	47.062	0	178.90	0	7.1290	0	33.7510	0	26.420	0	177.337	0	146.4	4	49.6	4	-1E+10	1	-1E+10	1	-1E+10	1	-1E+10	1	-1E+10	1	-1E+10	1
4902549	79	C	10/18/2022	19:06	-132.323	47.062	0	179.80	0	7.1090	0	33.7600	0	26.430	0	178.229	0	146.4	4	49.6	4	-1E+10	1	-1E+10	1	-1E+10	1	-1E+10	1	-1E+10	1	-1E+10	1
4902549	79	C	10/18/2022	19:06	-132.323	47.062	0	180.70	0	7.0930	0	33.7640	0	26.435	0	179.121	0	146.4	4	49.5	4	-1E+10	1	-1E+10	1	-1E+10	1	-1E+10	1	-1E+10	1	-1E+10	1
4902549	79	C	10/18/2022	19:06	-132.323	47.062	0	181.60	0	7.0800	0	33.7670	0	26.439	0	180.012	0	146.4	4	49.5	4	-1E+10	1	-1E+10	1	-1E+10	1	-1E+10	1	-1E+10	1	-1E+10	1
4902549	79	C	10/18/2022	19:06	-132.323	47.062	0	182.90	0	7.0570	0	33.7730	0	26.447	0	181.301	0	146.3	4	49.5	4	-1E+10	1	-1E+10	1	-1E+10	1	-1E+10	1	-1E+10	1	-1E+10	1
4902549	79	C	10/18/2022	19:06	-132.323	47.062	0	184.30	0	7.0240	0	33.7810	0	26.458	0	182.688	0	146.2	4	49.4	4	-1E+10	1	-1E+10	1	-1E+10	1	-1E+10	1	-1E+10	1	-1E+10	1
4902549	79	C	10/18/2022	19:06	-132.323	47.062	0	185.30	0	6.9870	0	33.7850	0	26.466	0	183.678	0	146.1	4	49.3	4	-1E+10	1	-1E+10	1	-1E+10	1	-1E+10	1	-1E+10	1	-1E+10	1
4902549	79	C	10/18/2022	19:06	-132.323	47.062	0	186.20	0	6.9750	0	33.7870	0	26.469	0	184.570	0	145.9	4	49.3	4	-1E+10	1	-1E+10	1	-1E+10	1	-1E+10	1	-1E+10	1	-1E+10	1
4902549	79	C	10/18/2022	19:06	-132.323	47.062	0	187.20	0	6.9680	0	33.7870	0	26.470	0	185.561	0	145.6	4	49.1	4	-1E+10	1	-1E+10	1	-1E+10	1	-1E+10	1	-1E+10	1	-1E+10	1
4902549	79	C	10/18/2022	19:06	-132.323	47.062	0	188.10	0	6.9630	0	33.7880	0	26.472	0	186.453	0	145.3	4	49.0	4	-1E+10	1	-1E+10	1	-1E+10	1	-1E+10	1	-1E+10	1	-1E+10	1
4902549	79	C	10/18/2022	19:06	-132.323	47.062	0	189.10	0	6.9620	0	33.7880	0	26.472	0	187.443	0	145.0	4	48.9	4	-1E+10	1	-1E+10	1	-1E+10	1	-1E+10	1	-1E+10	1	-1E+10	1
4902549	79	C	10/18/2022	19:06	-132.323	47.062	0	190.10	0	6.9600	0	33.7890	0	26.473	0	188.434	0	144.6	4	48.8	4	-1E+10	1	-1E+10	1	-1E+10	1	-1E+10	1	-1E+10	1	-1E+10	1
4902549	79	C	10/18/2022	19:06	-132.323	47.062	0	191.10	0	6.9530	0	33.7920	0	26.476	0	189.425	0	144.3	4	48.7	4	-1E+10	1	-1E+10	1	-1E+10	1	-1E+10	1	-1E+10	1	-1E+10	1
4902549	79	C	10/18/2022	19:06	-132.323	47.062	0	192.10	0	6.9530	0	33.7920	0	26.476	0	190.416	0	144.0	4	48.6	4	-1E+10	1	-1E+10	1	-1E+10	1	-1E+10	1	-1E+10	1	-1E+10	1
4902549	79	C	10/18/2022	19:06	-132.323	47.062	0	193.00	0	6.9510	0	33.7930	0	26.477	0	191.308	0	143.6	4	48.4	4	-1E+10	1	-1E+10	1	-1E+10	1	-1E+10	1	-1E+10	1	-1E+10	1
4902549	79	C	10/18/2022	19:06	-132.323	47.062	0	194.00	0	6.9470	0	33.7920	0	26.477	0	192.298	0	143.3	4	48.3	4	-1E+10	1	-1E+10	1	-1E+10	1	-1E+10	1	-1E+10	1	-1E+10	1
4902549	79	C	10/18/2022	19:06	-132.323	47.062	0	195.00	0	6.9220	0	33.7990	0	26.486	0	193.289	0	143.0	4	48.2	4	-1E+10	1	-1E+10	1	-1E+10	1	-1E+10	1	-1E+10	1	-1E+10	1
4902549	79	C	10/18/2022	19:06	-132.323	47.062	0	196.00	0	6.8710	0	33.7960	0	26.490	0	194.280	0	142.5	4	48.0	4	-1E+10	1	-1E+10	1	-1E+10	1	-1E+10	1	-1E+10	1	-1E+10	1
4902549	79	C	10/18/2022	19:06	-132.323	47.062	0	197.00	0	6.8520	0	33.8000	0	26.496	0	195.271	0	141.8	4	47.7	4	-1E+10	1	-1E+10	1	-1E+10	1	-1E+10	1	-1E+10	1	-1E+10	1
4902549	79	C	10/18/2022	19:06	-132.323	47.062	0	198.00	0	6.8440	0	33.8010	0	26.498	0	196.261	0	141.2	4	47.5	4	-1E+10	1	-1E+10	1	-1E+10	1	-1E+10	1	-1E+10	1	-1E+10	1
4902549	79	C	10/18/2022	19:06	-132.323	47.062	0	199.00	0	6.8410	0	33.8020	0	26.499	0	197.252	0	140.6	4	47.3	4	-1E+10	1	-1E+10	1	-1E+10	1	-1E+10	1	-1E+10	1	-1E+10	1
4902549	79	C	10/18/2022	19:06	-132.323	47.062	0	200.00	0	6.8400	0	33.8030	0	26.500	0	198.243	0	139.9	4	47.1	4	-1E+10	1	-1E+10	1	-1E+10	1	-1E+10	1	-1E+10	1	-1E+10	1
4902549	79	C	10/18/2022	19:06	-132.323	47.062	0	201.00	0	6.8120	0	33.8050	0	26.506	0	199.234	0	139.3	4	46.8	4	-1E+10	1	-1E+10	1	-1E+10	1	-1E+10	1	-1E+10	1	-1E+10	1
4902549	79	C	10/18/2022	19:06	-132.323	47.062	0	202.00	0	6.8040	0	33.8070	0	26.508	0	200.224	0	138.7	4	46.6	4	-1E+10	1	-1E+10	1	-1E+10	1	-1E+10	1	-1E+10	1	-1E+10	1
4902549	79	C	10/18/2022	19:06	-132.323	47.062	0	203.00	0	6.8030	0	33.8070	0	26.508	0	201.215	0	138.0	4	46.4	4	-1E+10	1	-1E+10	1	-1E+10	1	-1E+10	1	-1E+10	1	-1E+10	1
4902549	79	C	10/18/2022	19:06	-132.323	47.062	0	204.00	0	6.8030	0	33.8060	0	26.508	0	202.206	0	137.2	4	46.2	4	-1E+10	1	-1E+10	1	-1E+10	1	-1E+10	1	-1E+10	1	-1E+10	1
4902549	79	C	10/18/2022	19:06	-132.323	47.062	0	205.00	0	6.7480	0	33.8130	0	26.520	0	203.196	0	136.6	4	45.9	4	-1E+10	1	-1E+10	1	-1E+10	1	-1E+10	1	-1E+10	1	-1E+10	1
4902549	79	C	10/18/2022	19:06	-132.323	47.062	0	206.00	0	6.7300	0	33.8140	0	26.524	0	204.187	0	136.3	4	45.7	4	-1E+10	1	-1E+10	1	-1E+10	1	-1E+10	1	-1E+10	1	-1E+10	1
4902549	79	C	10/18/2022	19:06	-132.323	47.062	0	207.00	0	6.7150	0	33.8140	0	26.526	0	205.178	0	135.8	4	45.6	4	-1E+10	1	-1E+10	1	-1E+10	1	-1E+10	1	-1E+10	1	-1E+10	1
4902549	79	C	10/18/2022	19:06	-132.323	47.062	0	208.10	0	6.6980	0	33.8170	0	26.530	0	206.268	0	135.1	4	45.3	4	-1E+10	1	-1E+10	1	-1E+10	1	-1E+10	1	-1E+10	1	-1E+10	1
4902549	79	C	10/18/2022	19:06	-132.323	47.062	0	209.10	0	6.6830	0	33.8170	0	26.532	0	207.258	0	134.5	4	45.1	4	-1E+10	1	-1E+10	1	-1E+10	1	-1E+10	1	-1E+10	1	-1E+10	1
4902549	79	C	10/18/2022	19:06	-132.323	47.062	0	210.10	0	6.6730	0	33.8180	0	26.534	0	208.249	0	134.1	4	45.0	4	-1E+10	1	-1E+10	1	-1E+10	1	-1E+10	1	-1E+10	1	-1E+10	1
4902549	79	C	10/18/2022	19:06	-132.323	47.062	0	211.10	0	6.6420	0	33.8190	0	26.539	0	209.240	0	133.5	4	44.7	4	-1E+10	1	-1E+10	1	-1E+10	1	-1E+10	1	-1E+10	1	-1E+10	1
4902549	79	C	10/18/2022	19:06	-132.323	47.062	0	212.10	0	6.6220	0	33.8220	0	26.544	0	210.230	0	132.9	4	44.5	4	-1E+10	1	-1E+10	1	-1E+10	1	-1E+10	1	-1E+10	1	-1E+10	1
4902549	79	C	10/18/2022	19:06	-132.323	47.062	0	213.20	0	6.5910	0	33.8210	0	26.548	0	211.320	0	132.0	4	44.2	4	-1E+10	1	-1E+10	1	-1E+10	1	-1E+10	1	-1E+10	1	-1E+10	1
4902549	79	C	10/18/2022	19:06	-132.323	47.062	0	214.20	0	6.5860	0	33.8220	0	26.549	0	212.311	0	130.9	4	43.8	4	-1E+10	1	-1E+10	1	-1E+10	1	-1E+10	1	-1E+10	1	-1E+10	1
4902549	79	C	10/18/2022	19:06	-132.323	47.062	0	215.20	0	6.5810	0	33.8230	0	26.551	0	213.301	0	129.8	4	43.4	4	-1E+10	1	-1E+10	1	-1E+10	1	-1E+10	1	-1E+10	1	-1E+10	1
4902549	79	C	10/18/2022	19:06	-132.323	47.062	0	216.20	0	6.5650	0	33.8270	0	26.556	0	214.292	0	129.0	4	43.1	4	-1E+10	1	-1E+10	1	-1E+10	1	-1E+10	1	-1E+10	1	-1E+10	1
4902549	79	C	10/18/2022	19:06	-132.323	47.062	0	217.20	0	6.5380	0	33.8370	0	26.567	0	215.283	0	128.1	4	42.8	4	-1E+10	1	-1E+10	1	-1E+10	1	-1E+10	1	-1E+10	1	-1E+10	1
4902549	79	C	10/18/2022	19:06	-132.323	47.062	0	218.20	0	6.5090	0	33.8280	0	26.564	0	216.273	0	127.1	4	42.5	4	-1E+10	1	-1E+10	1	-1E+10	1	-1E+10	1	-1E+10	1	-1E+10	1
4902549	79	C	10/18/2022	19:06	-132.323	47.062	0	219.20	0	6.5000	0	33.8290	0	26.566	0	217.264	0	125.8	4	42.0	4	-1E+10	1	-1E+10	1	-1E+10	1	-1E+10	1	-1E+10	1	-1E+10	1
4902549	79	C	10/18/2022	19:06	-132.323	47.062	0	220.20	0	6.4800	0	33.8310	0	26.570	0	218.255	0	124.5	4	41.6	4	-1E+10	1	-1E+10	1	-1E+10	1	-1E+10	1	-1E+10	1	-1E+10	1
4902549	79	C	10/18/2022	19:06	-132.323	47.062	0	221.30	0	6.4850	0	33.8340	0	26.572	0	219.344	0	123.4	4	41.2	4	-1E+10	1	-1E+10	1	-1E+10	1	-1E+10	1	-1E+10	1	-1E+10	1
4902549	79	C	10/18/2022	19:06	-132.323	47.062	0	222.30	0	6.4660	0	33.8450	0	26.583	0	220.335	0	122.7	4	40.9	4	-1E+10	1	-1E+10	1	-1E+10	1	-1E+10	1	-1E+10	1	-1E+10	1
4902549	79	C	10/18/2022	19:06	-132.323	47.062	0	223.30	0	6.4580	0	33.8450	0	26.584	0	221.326	0	122.1	4	40.7	4	-1E+10	1	-1E+10	1	-1E+10	1	-1E+10	1	-1E+10	1	-1E+10	1
4902549	79	C	10/18/2022	19:06	-132.323	47.062	0	224.30	0	6.4310	0	33.8450	0	26.588	0	222.316	0	121.4	4	40.5	4	-1E+10	1	-1E+10	1	-1E+10	1	-1E+10	1	-1E+10	1	-1E+10	1
4902549	79	C	10/18/2022	19:06	-132.323	47.062	0	225.30	0	6.4250	0	33.8470	0	26.590	0	223.307	0	120.9	4	40.3	4	-1E+10	1	-1E+10	1	-1E+10	1	-1E+10	1	-1E+10	1	-1E+10	1
4902549	79	C	10/18/2022	19:06	-132.323	47.062	0	226.30	0	6.4050	0	33.8480	0	26.593	0	224.297	0	120.2	4	40.1	4	-1E+10	1	-1E+10	1	-1E+10	1	-1E+10	1	-1E+10	1	-1E+10	1
4902549	79	C	10/18/2022	19:06	-132.323	47.062	0	227.30	0	6.3900	0	33.8470	0	26.595	0	225.288	0	119.4	4	39.8	4	-1E+10	1	-1E+10	1	-1E+10	1	-1E+10	1	-1E+10	1	-1E+10	1
4902549	79	C	10/18/2022	19:06	-132.323	47.062	0	228.30	0	6.3850	0	33.8450	0	26.594	0	226.279	0	118.4	4	39.5	4	-1E+10	1	-1E+10	1	-1E+10	1	-1E+10	1	-1E+10	1	-1E+10	1
4902549	79	C	10/18/2022	19:06	-132.323	47.062	0	229.40	0	6.3820	0	33.8540	0	26.601	0	227.368	0	118.0	4	39.3	4	-1E+10	1	-1E+10	1	-1E+10	1	-1E+10	1	-1E+10	1	-1E+10	1
4902549	79	C	10/18/2022	19:06	-132.323	47.062	0	230.40	0	6.3590	0	33.8550	0	26.605	0	228.359	0	117.9	4	39.3	4	-1E+10	1	-1E+10	1	-1E+10	1	-1E+10	1	-1E+10	1	-1E+10	1
4902549	79	C	10/18/2022	19:06	-132.323	47.062	0	231.40	0	6.3510	0	33.8550	0	26.606	0	229.349	0	117.6	4	39.2	4	-1E+10	1	-1E+10	1	-1E+10	1	-1E+10	1	-1E+10	1	-1E+10	1
4902549	79	C	10/18/2022	19:06	-132.323	47.062	0	232.40	0	6.3420	0	33.8520	0	26.605	0	230.340	0	117.2	4	39.0	4	-1E+10	1	-1E+10	1	-1E+10	1	-1E+10	1	-1E+10	1	-1E+10	1
4902549	79	C	10/18/2022	19:06	-132.323	47.062	0	233.40	0	6.3160	0	33.8590	0	26.614	0	231.331	0	116.7	4	38.8	4	-1E+10	1	-1E+10	1	-1E+10	1	-1E+10	1	-1E+10	1	-1E+10	1
4902549	79	C	10/18/2022	19:06	-132.323	47.062	0	234.40	0	6.2730	0	33.8520	0	26.614	0	232.321	0	116.0	4	38.6	4	-1E+10	1	-1E+10	1	-1E+10	1	-1E+10	1	-1E+10	1	-1E+10	1
4902549	79	C	10/18/2022	19:06	-132.323	47.062	0	235.40	0	6.2460	0	33.8530	0	26.618	0	233.312	0	115.2	4	38.3	4	-1E+10	1	-1E+10	1	-1E+10	1	-1E+10	1	-1E+10	1	-1E+10	1
4902549	79	C	10/18/2022	19:06	-132.323	47.062	0	236.40	0	6.2160	0	33.8550	0	26.623	0	234.302	0	114.5	4	38.0	4	-1E+10	1	-1E+10	1	-1E+10	1	-1E+10	1	-1E+10	1	-1E+10	1
4902549	79	C	10/18/2022	19:06	-132.323	47.062	0	237.40	0	6.2010	0	33.8560	0	26.626	0	235.293	0	113.7	4	37.7	4	-1E+10	1	-1E+10	1	-1E+10	1	-1E+10	1	-1E+10	1	-1E+10	1
4902549	79	C	10/18/2022	19:06	-132.323	47.062	0	238.30	0	6.1850	0	33.8590	0	26.630	0	236.184	0	112.9	4	37.4	4	-1E+10	1	-1E+10	1	-1E+10	1	-1E+10	1	-1E+10	1	-1E+10	1
4902549	79	C	10/18/2022	19:06	-132.323	47.062	0	239.40	0	6.1710	0	33.8600	0	26.633	0	237.274	0	111.9	4	37.1	4	-1E+10	1	-1E+10	1	-1E+10	1	-1E+10	1	-1E+10	1	-1E+10	1
4902549	79	C	10/18/2022	19:06	-132.323	47.062	0	240.10	0	6.1730	0	33.8610	0	26.634	0	237.967	0	111.2	4	36.9	4	-1E+10	1	-1E+10	1	-1E+10	1	-1E+10	1	-1E+10	1	-1E+10	1
4902549	79	C	10/18/2022	19:06	-132.323	47.062	0	240.80	0	6.1720	0	33.8620	0	26.634	0	238.661	0	110.6	4	36.7	4	-1E+10	1	-1E+10	1	-1E+10	1	-1E+10	1	-1E+10	1	-1E+10	1
4902549	79	C	10/18/2022	19:06	-132.323	47.062	0	241.90	0	6.1690	0	33.8640	0	26.636	0	239.750	0	109.7	4	36.4	4	-1E+10	1	-1E+10	1	-1E+10	1	-1E+10	1	-1E+10	1	-1E+10	1
4902549	79	C	10/18/2022	19:06	-132.323	47.062	0	243.00	0	6.1670	0	33.8650	0	26.638	0	240.840	0	108.8	4	36.1	4	-1E+10	1	-1E+10	1	-1E+10	1	-1E+10	1	-1E+10	1	-1E+10	1
4902549	79	C	10/18/2022	19:06	-132.323	47.062	0	243.70	0	6.1580	0	33.8670	0	26.640	0	241.533	0	108.3	4	35.9	4	-1E+10	1	-1E+10	1	-1E+10	1	-1E+10	1	-1E+10	1	-1E+10	1
4902549	79	C	10/18/2022	19:06	-132.323	47.062	0	244.90	0	6.1480	0	33.8760	0	26.649	0	242.722	0	108.4	4	35.9	4	-1E+10	1	-1E+10	1	-1E+10	1	-1E+10	1	-1E+10	1	-1E+10	1
4902549	79	C	10/18/2022	19:06	-132.323	47.062	0	246.00	0	6.0790	0	33.8710	0	26.653	0	243.812	0	108.5	4	35.9	4	-1E+10	1	-1E+10	1	-1E+10	1	-1E+10	1	-1E+10	1	-1E+10	1
4902549	79	C	10/18/2022	19:06	-132.323	47.062	0	246.80	0	6.0620	0	33.8670	0	26.652	0	244.604	0	108.3	4	35.8	4	-1E+10	1	-1E+10	1	-1E+10	1	-1E+10	1	-1E+10	1	-1E+10	1
4902549	79	C	10/18/2022	19:06	-132.323	47.062	0	247.90	0	6.0550	0	33.8680	0	26.654	0	245.693	0	107.7	4	35.6	4	-1E+10	1	-1E+10	1	-1E+10	1	-1E+10	1	-1E+10	1	-1E+10	1
4902549	79	C	10/18/2022	19:06	-132.323	47.062	0	249.10	0	6.0380	0	33.8690	0	26.657	0	246.882	0	107.1	4	35.4	4	-1E+10	1	-1E+10	1	-1E+10	1	-1E+10	1	-1E+10	1	-1E+10	1
4902549	79	C	10/18/2022	19:06	-132.323	47.062	0	249.90	0	6.0270	0	33.8680	0	26.658	0	247.674	0	106.7	4	35.3	4	-1E+10	1	-1E+10	1	-1E+10	1	-1E+10	1	-1E+10	1	-1E+10	1
4902549	79	C	10/18/2022	19:06	-132.323	47.062	0	251.00	0	6.0080	0	33.8690	0	26.661	0	248.764	0	106.0	4	35.0	4	-1E+10	1	-1E+10	1	-1E+10	1	-1E+10	1	-1E+10	1	-1E+10	1
4902549	79	C	10/18/2022	19:06	-132.323	47.062	0	252.20	0	5.9960	0	33.8690	0	26.662	0	249.953	0	105.2	4	34.7	4	-1E+10	1	-1E+10	1	-1E+10	1	-1E+10	1	-1E+10	1	-1E+10	1
4902549	79	C	10/18/2022	19:06	-132.323	47.062	0	253.00	0	5.9880	0	33.8690	0	26.663	0	250.745	0	104.6	4	34.6	4	-1E+10	1	-1E+10	1	-1E+10	1	-1E+10	1	-1E+10	1	-1E+10	1
4902549	79	C	10/18/2022	19:06	-132.323	47.062	0	253.80	0	5.9850	0	33.8690	0	26.664	0	251.537	0	104.1	4	34.4	4	-1E+10	1	-1E+10	1	-1E+10	1	-1E+10	1	-1E+10	1	-1E+10	1
4902549	79	C	10/18/2022	19:06	-132.323	47.062	0	254.70	0	5.9520	0	33.8740	0	26.672	0	252.429	0	103.6	4	34.2	4	-1E+10	1	-1E+10	1	-1E+10	1	-1E+10	1	-1E+10	1	-1E+10	1
4902549	79	C	10/18/2022	19:06	-132.323	47.062	0	255.90	0	5.9390	0	33.8710	0	26.671	0	253.617	0	102.7	4	33.9	4	-1E+10	1	-1E+10	1	-1E+10	1	-1E+10	1	-1E+10	1	-1E+10	1
4902549	79	C	10/18/2022	19:06	-132.323	47.062	0	257.10	0	5.9220	0	33.8710	0	26.673	0	254.806	0	101.7	4	33.5	4	-1E+10	1	-1E+10	1	-1E+10	1	-1E+10	1	-1E+10	1	-1E+10	1
4902549	79	C	10/18/2022	19:06	-132.323	47.062	0	258.00	0	5.9070	0	33.8720	0	26.676	0	255.697	0	101.0	4	33.3	4	-1E+10	1	-1E+10	1	-1E+10	1	-1E+10	1	-1E+10	1	-1E+10	1
4902549	79	C	10/18/2022	19:06	-132.323	47.062	0	258.80	0	5.9050	0	33.8720	0	26.676	0	256.490	0	100.1	4	33.0	4	-1E+10	1	-1E+10	1	-1E+10	1	-1E+10	1	-1E+10	1	-1E+10	1
4902549	79	C	10/18/2022	19:06	-132.323	47.062	0	259.70	0	5.8980	0	33.8730	0	26.678	0	257.381	0	99.2	4	32.7	4	-1E+10	1	-1E+10	1	-1E+10	1	-1E+10	1	-1E+10	1	-1E+10	1
4902549	79	C	10/18/2022	19:06	-132.323	47.062	0	260.90	0	5.8920	0	33.8740	0	26.679	0	258.570	0	97.5	4	32.1	4	-1E+10	1	-1E+10	1	-1E+10	1	-1E+10	1	-1E+10	1	-1E+10	1
4902549	79	C	10/18/2022	19:06	-132.323	47.062	0	262.20	0	5.9000	0	33.8770	0	26.681	0	259.857	0	95.8	4	31.6	4	-1E+10	1	-1E+10	1	-1E+10	1	-1E+10	1	-1E+10	1	-1E+10	1
4902549	79	C	10/18/2022	19:06	-132.323	47.062	0	263.10	0	5.9120	0	33.8760	0	26.678	0	260.749	0	94.7	4	31.2	4	-1E+10	1	-1E+10	1	-1E+10	1	-1E+10	1	-1E+10	1	-1E+10	1
4902549	79	C	10/18/2022	19:06	-132.323	47.062	0	263.90	0	5.9280	0	33.8820	0	26.681	0	261.541	0	93.6	4	30.9	4	-1E+10	1	-1E+10	1	-1E+10	1	-1E+10	1	-1E+10	1	-1E+10	1
4902549	79	C	10/18/2022	19:06	-132.323	47.062	0	264.80	0	5.9350	0	33.8850	0	26.683	0	262.432	0	92.5	4	30.5	4	-1E+10	1	-1E+10	1	-1E+10	1	-1E+10	1	-1E+10	1	-1E+10	1
4902549	79	C	10/18/2022	19:06	-132.323	47.062	0	265.60	0	5.9230	0	33.8850	0	26.684	0	263.225	0	91.2	4	30.1	4	-1E+10	1	-1E+10	1	-1E+10	1	-1E+10	1	-1E+10	1	-1E+10	1
4902549	79	C	10/18/2022	19:06	-132.323	47.062	0	266.90	0	5.9180	0	33.8890	0	26.688	0	264.512	0	89.5	4	29.5	4	-1E+10	1	-1E+10	1	-1E+10	1	-1E+10	1	-1E+10	1	-1E+10	1
4902549	79	C	10/18/2022	19:06	-132.323	47.062	0	268.30	0	5.9490	0	33.8970	0	26.690	0	265.899	0	88.3	4	29.1	4	-1E+10	1	-1E+10	1	-1E+10	1	-1E+10	1	-1E+10	1	-1E+10	1
4902549	79	C	10/18/2022	19:06	-132.323	47.062	0	269.10	0	5.9360	0	33.9030	0	26.697	0	266.691	0	87.7	4	28.9	4	-1E+10	1	-1E+10	1	-1E+10	1	-1E+10	1	-1E+10	1	-1E+10	1
4902549	79	C	10/18/2022	19:06	-132.323	47.062	0	270.00	0	5.9640	0	33.9070	0	26.697	0	267.582	0	87.5	4	28.9	4	-1E+10	1	-1E+10	1	-1E+10	1	-1E+10	1	-1E+10	1	-1E+10	1
4902549	79	C	10/18/2022	19:06	-132.323	47.062	0	270.90	0	5.9800	0	33.9120	0	26.698	0	268.474	0	87.6	4	28.9	4	-1E+10	1	-1E+10	1	-1E+10	1	-1E+10	1	-1E+10	1	-1E+10	1
4902549	79	C	10/18/2022	19:06	-132.323	47.062	0	271.80	0	5.9670	0	33.9130	0	26.701	0	269.365	0	87.7	4	29.0	4	-1E+10	1	-1E+10	1	-1E+10	1	-1E+10	1	-1E+10	1	-1E+10	1
4902549	79	C	10/18/2022	19:06	-132.323	47.062	0	272.70	0	5.9600	0	33.9100	0	26.699	0	270.257	0	87.9	4	29.0	4	-1E+10	1	-1E+10	1	-1E+10	1	-1E+10	1	-1E+10	1	-1E+10	1
4902549	79	C	10/18/2022	19:06	-132.323	47.062	0	273.60	0	5.9420	0	33.9080	0	26.700	0	271.148	0	87.9	4	29.0	4	-1E+10	1	-1E+10	1	-1E+10	1	-1E+10	1	-1E+10	1	-1E+10	1
4902549	79	C	10/18/2022	19:06	-132.323	47.062	0	275.00	0	5.9050	0	33.9040	0	26.702	0	272.534	0	87.9	4	29.0	4	-1E+10	1	-1E+10	1	-1E+10	1	-1E+10	1	-1E+10	1	-1E+10	1
4902549	79	C	10/18/2022	19:06	-132.323	47.062	0	276.40	0	5.8590	0	33.9020	0	26.706	0	273.921	0	87.7	4	28.9	4	-1E+10	1	-1E+10	1	-1E+10	1	-1E+10	1	-1E+10	1	-1E+10	1
4902549	79	C	10/18/2022	19:06	-132.323	47.062	0	277.30	0	5.8270	0	33.9010	0	26.709	0	274.812	0	87.3	4	28.7	4	-1E+10	1	-1E+10	1	-1E+10	1	-1E+10	1	-1E+10	1	-1E+10	1
4902549	79	C	10/18/2022	19:06	-132.323	47.062	0	278.30	0	5.7900	0	33.9020	0	26.714	0	275.803	0	86.6	4	28.5	4	-1E+10	1	-1E+10	1	-1E+10	1	-1E+10	1	-1E+10	1	-1E+10	1
4902549	79	C	10/18/2022	19:06	-132.323	47.062	0	279.20	0	5.7690	0	33.8960	0	26.712	0	276.694	0	85.8	4	28.2	4	-1E+10	1	-1E+10	1	-1E+10	1	-1E+10	1	-1E+10	1	-1E+10	1
4902549	79	C	10/18/2022	19:06	-132.323	47.062	0	280.20	0	5.7800	0	33.8970	0	26.711	0	277.684	0	84.8	4	27.9	4	-1E+10	1	-1E+10	1	-1E+10	1	-1E+10	1	-1E+10	1	-1E+10	1
4902549	79	C	10/18/2022	19:06	-132.323	47.062	0	281.10	0	5.7900	0	33.8960	0	26.709	0	278.576	0	84.0	4	27.6	4	-1E+10	1	-1E+10	1	-1E+10	1	-1E+10	1	-1E+10	1	-1E+10	1
4902549	79	C	10/18/2022	19:06	-132.323	47.062	0	282.10	0	5.8370	0	33.9120	0	26.716	0	279.566	0	83.7	4	27.5	4	-1E+10	1	-1E+10	1	-1E+10	1	-1E+10	1	-1E+10	1	-1E+10	1
4902549	79	C	10/18/2022	19:06	-132.323	47.062	0	283.00	0	5.8580	0	33.9150	0	26.716	0	280.457	0	83.6	4	27.5	4	-1E+10	1	-1E+10	1	-1E+10	1	-1E+10	1	-1E+10	1	-1E+10	1
4902549	79	C	10/18/2022	19:06	-132.323	47.062	0	283.90	0	5.8580	0	33.9150	0	26.716	0	281.349	0	83.6	4	27.5	4	-1E+10	1	-1E+10	1	-1E+10	1	-1E+10	1	-1E+10	1	-1E+10	1
4902549	79	C	10/18/2022	19:06	-132.323	47.062	0	284.90	0	5.8570	0	33.9130	0	26.715	0	282.339	0	83.7	4	27.5	4	-1E+10	1	-1E+10	1	-1E+10	1	-1E+10	1	-1E+10	1	-1E+10	1
4902549	79	C	10/18/2022	19:06	-132.323	47.062	0	285.90	0	5.8490	0	33.9130	0	26.716	0	283.329	0	83.6	4	27.5	4	-1E+10	1	-1E+10	1	-1E+10	1	-1E+10	1	-1E+10	1	-1E+10	1
4902549	79	C	10/18/2022	19:06	-132.323	47.062	0	286.90	0	5.7990	0	33.9100	0	26.719	0	284.320	0	83.5	4	27.5	4	-1E+10	1	-1E+10	1	-1E+10	1	-1E+10	1	-1E+10	1	-1E+10	1
4902549	79	C	10/18/2022	19:06	-132.323	47.062	0	287.80	0	5.6580	0	33.9000	0	26.729	0	285.211	0	82.8	4	27.1	4	-1E+10	1	-1E+10	1	-1E+10	1	-1E+10	1	-1E+10	1	-1E+10	1
4902549	79	C	10/18/2022	19:06	-132.323	47.062	0	288.80	0	5.6600	0	33.8980	0	26.727	0	286.201	0	81.9	4	26.8	4	-1E+10	1	-1E+10	1	-1E+10	1	-1E+10	1	-1E+10	1	-1E+10	1
4902549	79	C	10/18/2022	19:06	-132.323	47.062	0	289.80	0	5.7010	0	33.9000	0	26.724	0	287.191	0	81.2	4	26.6	4	-1E+10	1	-1E+10	1	-1E+10	1	-1E+10	1	-1E+10	1	-1E+10	1
4902549	79	C	10/18/2022	19:06	-132.323	47.062	0	290.80	0	5.7270	0	33.9140	0	26.731	0	288.182	0	80.7	4	26.5	4	-1E+10	1	-1E+10	1	-1E+10	1	-1E+10	1	-1E+10	1	-1E+10	1
4902549	79	C	10/18/2022	19:06	-132.323	47.062	0	291.80	0	5.7210	0	33.9130	0	26.731	0	289.172	0	80.4	4	26.4	4	-1E+10	1	-1E+10	1	-1E+10	1	-1E+10	1	-1E+10	1	-1E+10	1
4902549	79	C	10/18/2022	19:06	-132.323	47.062	0	292.80	0	5.7270	0	33.9150	0	26.732	0	290.162	0	80.0	4	26.3	4	-1E+10	1	-1E+10	1	-1E+10	1	-1E+10	1	-1E+10	1	-1E+10	1
4902549	79	C	10/18/2022	19:06	-132.323	47.062	0	293.80	0	5.7310	0	33.9180	0	26.734	0	291.153	0	79.8	4	26.2	4	-1E+10	1	-1E+10	1	-1E+10	1	-1E+10	1	-1E+10	1	-1E+10	1
4902549	79	C	10/18/2022	19:06	-132.323	47.062	0	294.80	0	5.7350	0	33.9190	0	26.734	0	292.143	0	79.7	4	26.2	4	-1E+10	1	-1E+10	1	-1E+10	1	-1E+10	1	-1E+10	1	-1E+10	1
4902549	79	C	10/18/2022	19:06	-132.323	47.062	0	295.80	0	5.7270	0	33.9190	0	26.735	0	293.133	0	79.5	4	26.1	4	-1E+10	1	-1E+10	1	-1E+10	1	-1E+10	1	-1E+10	1	-1E+10	1
4902549	79	C	10/18/2022	19:06	-132.323	47.062	0	296.80	0	5.7260	0	33.9190	0	26.736	0	294.123	0	79.3	4	26.0	4	-1E+10	1	-1E+10	1	-1E+10	1	-1E+10	1	-1E+10	1	-1E+10	1
4902549	79	C	10/18/2022	19:06	-132.323	47.062	0	297.80	0	5.7240	0	33.9190	0	26.736	0	295.114	0	79.2	4	26.0	4	-1E+10	1	-1E+10	1	-1E+10	1	-1E+10	1	-1E+10	1	-1E+10	1
4902549	79	C	10/18/2022	19:06	-132.323	47.062	0	298.80	0	5.7240	0	33.9180	0	26.735	0	296.104	0	78.9	4	25.9	4	-1E+10	1	-1E+10	1	-1E+10	1	-1E+10	1	-1E+10	1	-1E+10	1
4902549	79	C	10/18/2022	19:06	-132.323	47.062	0	299.80	0	5.7220	0	33.9180	0	26.735	0	297.094	0	78.7	4	25.8	4	-1E+10	1	-1E+10	1	-1E+10	1	-1E+10	1	-1E+10	1	-1E+10	1
4902549	79	C	10/18/2022	19:06	-132.323	47.062	0	300.80	0	5.7170	0	33.9180	0	26.736	0	298.085	0	78.3	4	25.7	4	-1E+10	1	-1E+10	1	-1E+10	1	-1E+10	1	-1E+10	1	-1E+10	1
4902549	79	C	10/18/2022	19:06	-132.323	47.062	0	301.80	0	5.7080	0	33.9170	0	26.736	0	299.075	0	77.9	4	25.6	4	-1E+10	1	-1E+10	1	-1E+10	1	-1E+10	1	-1E+10	1	-1E+10	1
4902549	79	C	10/18/2022	19:06	-132.323	47.062	0	302.80	0	5.6840	0	33.9150	0	26.738	0	300.065	0	77.3	4	25.4	4	-1E+10	1	-1E+10	1	-1E+10	1	-1E+10	1	-1E+10	1	-1E+10	1
4902549	79	C	10/18/2022	19:06	-132.323	47.062	0	303.80	0	5.6980	0	33.9120	0	26.734	0	301.055	0	76.9	4	25.2	4	-1E+10	1	-1E+10	1	-1E+10	1	-1E+10	1	-1E+10	1	-1E+10	1
4902549	79	C	10/18/2022	19:06	-132.323	47.062	0	304.90	0	5.7220	0	33.9230	0	26.739	0	302.145	0	76.6	4	25.2	4	-1E+10	1	-1E+10	1	-1E+10	1	-1E+10	1	-1E+10	1	-1E+10	1
4902549	79	C	10/18/2022	19:06	-132.323	47.062	0	305.80	0	5.7230	0	33.9260	0	26.742	0	303.036	0	76.5	4	25.1	4	-1E+10	1	-1E+10	1	-1E+10	1	-1E+10	1	-1E+10	1	-1E+10	1
4902549	79	C	10/18/2022	19:06	-132.323	47.062	0	306.90	0	5.7210	0	33.9260	0	26.742	0	304.125	0	76.5	4	25.1	4	-1E+10	1	-1E+10	1	-1E+10	1	-1E+10	1	-1E+10	1	-1E+10	1
4902549	79	C	10/18/2022	19:06	-132.323	47.062	0	307.90	0	5.7230	0	33.9260	0	26.742	0	305.115	0	76.4	4	25.1	4	-1E+10	1	-1E+10	1	-1E+10	1	-1E+10	1	-1E+10	1	-1E+10	1
4902549	79	C	10/18/2022	19:06	-132.323	47.062	0	308.90	0	5.6780	0	33.9310	0	26.751	0	306.105	0	76.4	4	25.1	4	-1E+10	1	-1E+10	1	-1E+10	1	-1E+10	1	-1E+10	1	-1E+10	1
4902549	79	C	10/18/2022	19:06	-132.323	47.062	0	309.90	0	5.6820	0	33.9290	0	26.749	0	307.096	0	76.5	4	25.1	4	-1E+10	1	-1E+10	1	-1E+10	1	-1E+10	1	-1E+10	1	-1E+10	1
4902549	79	C	10/18/2022	19:06	-132.323	47.062	0	310.90	0	5.6880	0	33.9270	0	26.747	0	308.086	0	76.7	4	25.2	4	-1E+10	1	-1E+10	1	-1E+10	1	-1E+10	1	-1E+10	1	-1E+10	1
4902549	79	C	10/18/2022	19:06	-132.323	47.062	0	311.90	0	5.6850	0	33.9300	0	26.749	0	309.076	0	77.0	4	25.3	4	-1E+10	1	-1E+10	1	-1E+10	1	-1E+10	1	-1E+10	1	-1E+10	1
4902549	79	C	10/18/2022	19:06	-132.323	47.062	0	312.90	0	5.6740	0	33.9300	0	26.751	0	310.066	0	77.3	4	25.3	4	-1E+10	1	-1E+10	1	-1E+10	1	-1E+10	1	-1E+10	1	-1E+10	1
4902549	79	C	10/18/2022	19:06	-132.323	47.062	0	313.90	0	5.6470	0	33.9270	0	26.752	0	311.056	0	77.5	4	25.4	4	-1E+10	1	-1E+10	1	-1E+10	1	-1E+10	1	-1E+10	1	-1E+10	1
4902549	79	C	10/18/2022	19:06	-132.323	47.062	0	314.90	0	5.6380	0	33.9250	0	26.751	0	312.047	0	77.7	4	25.5	4	-1E+10	1	-1E+10	1	-1E+10	1	-1E+10	1	-1E+10	1	-1E+10	1
4902549	79	C	10/18/2022	19:06	-132.323	47.062	0	315.90	0	5.6300	0	33.9240	0	26.751	0	313.037	0	78.1	4	25.6	4	-1E+10	1	-1E+10	1	-1E+10	1	-1E+10	1	-1E+10	1	-1E+10	1
4902549	79	C	10/18/2022	19:06	-132.323	47.062	0	316.90	0	5.6080	0	33.9270	0	26.756	0	314.027	0	78.4	4	25.7	4	-1E+10	1	-1E+10	1	-1E+10	1	-1E+10	1	-1E+10	1	-1E+10	1
4902549	79	C	10/18/2022	19:06	-132.323	47.062	0	318.00	0	5.5820	0	33.9260	0	26.759	0	315.116	0	78.6	4	25.7	4	-1E+10	1	-1E+10	1	-1E+10	1	-1E+10	1	-1E+10	1	-1E+10	1
4902549	79	C	10/18/2022	19:06	-132.323	47.062	0	318.90	0	5.5620	0	33.9200	0	26.756	0	316.007	0	78.9	4	25.8	4	-1E+10	1	-1E+10	1	-1E+10	1	-1E+10	1	-1E+10	1	-1E+10	1
4902549	79	C	10/18/2022	19:06	-132.323	47.062	0	319.90	0	5.5520	0	33.9200	0	26.758	0	316.998	0	79.2	4	25.9	4	-1E+10	1	-1E+10	1	-1E+10	1	-1E+10	1	-1E+10	1	-1E+10	1
4902549	79	C	10/18/2022	19:06	-132.323	47.062	0	320.90	0	5.5510	0	33.9170	0	26.755	0	317.988	0	79.5	4	26.0	4	-1E+10	1	-1E+10	1	-1E+10	1	-1E+10	1	-1E+10	1	-1E+10	1
4902549	79	C	10/18/2022	19:06	-132.323	47.062	0	321.90	0	5.5500	0	33.9160	0	26.755	0	318.978	0	79.8	4	26.1	4	-1E+10	1	-1E+10	1	-1E+10	1	-1E+10	1	-1E+10	1	-1E+10	1
4902549	79	C	10/18/2022	19:06	-132.323	47.062	0	322.90	0	5.5020	0	33.9200	0	26.764	0	319.968	0	80.2	4	26.2	4	-1E+10	1	-1E+10	1	-1E+10	1	-1E+10	1	-1E+10	1	-1E+10	1
4902549	79	C	10/18/2022	19:06	-132.323	47.062	0	323.90	0	5.4630	0	33.9130	0	26.763	0	320.958	0	80.6	4	26.3	4	-1E+10	1	-1E+10	1	-1E+10	1	-1E+10	1	-1E+10	1	-1E+10	1
4902549	79	C	10/18/2022	19:06	-132.323	47.062	0	324.90	0	5.4000	0	33.9140	0	26.771	0	321.948	0	80.7	4	26.3	4	-1E+10	1	-1E+10	1	-1E+10	1	-1E+10	1	-1E+10	1	-1E+10	1
4902549	79	C	10/18/2022	19:06	-132.323	47.062	0	325.90	0	5.3200	0	33.9050	0	26.773	0	322.938	0	80.5	4	26.2	4	-1E+10	1	-1E+10	1	-1E+10	1	-1E+10	1	-1E+10	1	-1E+10	1
4902549	79	C	10/18/2022	19:06	-132.323	47.062	0	326.80	0	5.3080	0	33.8980	0	26.769	0	323.830	0	80.2	4	26.1	4	-1E+10	1	-1E+10	1	-1E+10	1	-1E+10	1	-1E+10	1	-1E+10	1
4902549	79	C	10/18/2022	19:06	-132.323	47.062	0	327.80	0	5.3090	0	33.9000	0	26.771	0	324.820	0	79.7	4	25.9	4	-1E+10	1	-1E+10	1	-1E+10	1	-1E+10	1	-1E+10	1	-1E+10	1
4902549	79	C	10/18/2022	19:06	-132.323	47.062	0	328.80	0	5.3160	0	33.9000	0	26.770	0	325.810	0	79.3	4	25.8	4	-1E+10	1	-1E+10	1	-1E+10	1	-1E+10	1	-1E+10	1	-1E+10	1
4902549	79	C	10/18/2022	19:06	-132.323	47.062	0	329.80	0	5.3090	0	33.8990	0	26.770	0	326.800	0	78.8	4	25.6	4	-1E+10	1	-1E+10	1	-1E+10	1	-1E+10	1	-1E+10	1	-1E+10	1
4902549	79	C	10/18/2022	19:06	-132.323	47.062	0	330.80	0	5.2910	0	33.9000	0	26.773	0	327.790	0	78.2	4	25.4	4	-1E+10	1	-1E+10	1	-1E+10	1	-1E+10	1	-1E+10	1	-1E+10	1
4902549	79	C	10/18/2022	19:06	-132.323	47.062	0	331.80	0	5.2820	0	33.9000	0	26.774	0	328.780	0	77.6	4	25.2	4	-1E+10	1	-1E+10	1	-1E+10	1	-1E+10	1	-1E+10	1	-1E+10	1
4902549	79	C	10/18/2022	19:06	-132.323	47.062	0	332.80	0	5.2530	0	33.9000	0	26.777	0	329.770	0	77.1	4	25.0	4	-1E+10	1	-1E+10	1	-1E+10	1	-1E+10	1	-1E+10	1	-1E+10	1
4902549	79	C	10/18/2022	19:06	-132.323	47.062	0	333.70	0	5.2400	0	33.9050	0	26.783	0	330.661	0	76.7	4	24.9	4	-1E+10	1	-1E+10	1	-1E+10	1	-1E+10	1	-1E+10	1	-1E+10	1
4902549	79	C	10/18/2022	19:06	-132.323	47.062	0	334.70	0	5.2370	0	33.9040	0	26.782	0	331.651	0	76.2	4	24.7	4	-1E+10	1	-1E+10	1	-1E+10	1	-1E+10	1	-1E+10	1	-1E+10	1
4902549	79	C	10/18/2022	19:06	-132.323	47.062	0	335.70	0	5.2330	0	33.9050	0	26.784	0	332.641	0	75.8	4	24.6	4	-1E+10	1	-1E+10	1	-1E+10	1	-1E+10	1	-1E+10	1	-1E+10	1
4902549	79	C	10/18/2022	19:06	-132.323	47.062	0	336.70	0	5.2250	0	33.9070	0	26.786	0	333.632	0	75.4	4	24.5	4	-1E+10	1	-1E+10	1	-1E+10	1	-1E+10	1	-1E+10	1	-1E+10	1
4902549	79	C	10/18/2022	19:06	-132.323	47.062	0	337.70	0	5.2180	0	33.9070	0	26.787	0	334.622	0	75.0	4	24.3	4	-1E+10	1	-1E+10	1	-1E+10	1	-1E+10	1	-1E+10	1	-1E+10	1
4902549	79	C	10/18/2022	19:06	-132.323	47.062	0	338.60	0	5.2100	0	33.9080	0	26.789	0	335.513	0	74.7	4	24.2	4	-1E+10	1	-1E+10	1	-1E+10	1	-1E+10	1	-1E+10	1	-1E+10	1
4902549	79	C	10/18/2022	19:06	-132.323	47.062	0	339.60	0	5.1980	0	33.9100	0	26.792	0	336.503	0	74.4	4	24.1	4	-1E+10	1	-1E+10	1	-1E+10	1	-1E+10	1	-1E+10	1	-1E+10	1
4902549	79	C	10/18/2022	19:06	-132.323	47.062	0	340.60	0	5.1950	0	33.9100	0	26.792	0	337.493	0	74.1	4	24.0	4	-1E+10	1	-1E+10	1	-1E+10	1	-1E+10	1	-1E+10	1	-1E+10	1
4902549	79	C	10/18/2022	19:06	-132.323	47.062	0	341.60	0	5.1890	0	33.9110	0	26.793	0	338.483	0	73.7	4	23.9	4	-1E+10	1	-1E+10	1	-1E+10	1	-1E+10	1	-1E+10	1	-1E+10	1
4902549	79	C	10/18/2022	19:06	-132.323	47.062	0	342.50	0	5.1660	0	33.9110	0	26.796	0	339.374	0	73.4	4	23.8	4	-1E+10	1	-1E+10	1	-1E+10	1	-1E+10	1	-1E+10	1	-1E+10	1
4902549	79	C	10/18/2022	19:06	-132.323	47.062	0	343.50	0	5.1650	0	33.9110	0	26.796	0	340.364	0	72.9	4	23.6	4	-1E+10	1	-1E+10	1	-1E+10	1	-1E+10	1	-1E+10	1	-1E+10	1
4902549	79	C	10/18/2022	19:06	-132.323	47.062	0	344.50	0	5.1650	0	33.9110	0	26.796	0	341.354	0	72.4	4	23.4	4	-1E+10	1	-1E+10	1	-1E+10	1	-1E+10	1	-1E+10	1	-1E+10	1
4902549	79	C	10/18/2022	19:06	-132.323	47.062	0	345.50	0	5.1640	0	33.9110	0	26.796	0	342.344	0	71.9	4	23.3	4	-1E+10	1	-1E+10	1	-1E+10	1	-1E+10	1	-1E+10	1	-1E+10	1
4902549	79	C	10/18/2022	19:06	-132.323	47.062	0	346.50	0	5.1630	0	33.9120	0	26.797	0	343.334	0	71.3	4	23.1	4	-1E+10	1	-1E+10	1	-1E+10	1	-1E+10	1	-1E+10	1	-1E+10	1
4902549	79	C	10/18/2022	19:06	-132.323	47.062	0	347.90	0	5.1540	0	33.9140	0	26.800	0	344.720	0	70.4	4	22.8	4	-1E+10	1	-1E+10	1	-1E+10	1	-1E+10	1	-1E+10	1	-1E+10	1
4902549	79	C	10/18/2022	19:06	-132.323	47.062	0	349.40	0	5.1490	0	33.9150	0	26.801	0	346.205	0	69.4	4	22.5	4	-1E+10	1	-1E+10	1	-1E+10	1	-1E+10	1	-1E+10	1	-1E+10	1
4902549	79	C	10/18/2022	19:06	-132.323	47.062	0	350.40	0	5.1530	0	33.9180	0	26.803	0	347.195	0	68.8	4	22.3	4	-1E+10	1	-1E+10	1	-1E+10	1	-1E+10	1	-1E+10	1	-1E+10	1
4902549	79	C	10/18/2022	19:06	-132.323	47.062	0	353.30	0	5.1630	0	33.9260	0	26.808	0	350.066	0	67.8	4	22.0	4	-1E+10	1	-1E+10	1	-1E+10	1	-1E+10	1	-1E+10	1	-1E+10	1
4902549	79	C	10/18/2022	19:06	-132.323	47.062	0	358.20	0	5.1210	0	33.9290	0	26.816	0	354.917	0	66.6	4	21.6	4	-1E+10	1	-1E+10	1	-1E+10	1	-1E+10	1	-1E+10	1	-1E+10	1
4902549	79	C	10/18/2022	19:06	-132.323	47.062	0	363.10	0	5.0830	0	33.9300	0	26.821	0	359.768	0	65.1	4	21.1	4	-1E+10	1	-1E+10	1	-1E+10	1	-1E+10	1	-1E+10	1	-1E+10	1
4902549	79	C	10/18/2022	19:06	-132.323	47.062	0	368.00	0	5.0690	0	33.9340	0	26.826	0	364.619	0	63.1	4	20.4	4	-1E+10	1	-1E+10	1	-1E+10	1	-1E+10	1	-1E+10	1	-1E+10	1
4902549	79	C	10/18/2022	19:06	-132.323	47.062	0	373.00	0	5.0560	0	33.9420	0	26.834	0	369.568	0	60.8	4	19.6	4	-1E+10	1	-1E+10	1	-1E+10	1	-1E+10	1	-1E+10	1	-1E+10	1
4902549	79	C	10/18/2022	19:06	-132.323	47.062	0	378.00	0	5.0350	0	33.9470	0	26.840	0	374.518	0	58.8	4	19.0	4	-1E+10	1	-1E+10	1	-1E+10	1	-1E+10	1	-1E+10	1	-1E+10	1
4902549	79	C	10/18/2022	19:06	-132.323	47.062	0	383.00	0	5.0200	0	33.9550	0	26.848	0	379.467	0	57.2	4	18.5	4	-1E+10	1	-1E+10	1	-1E+10	1	-1E+10	1	-1E+10	1	-1E+10	1
4902549	79	C	10/18/2022	19:06	-132.323	47.062	0	388.00	0	4.9900	0	33.9590	0	26.855	0	384.417	0	56.4	4	18.2	4	-1E+10	1	-1E+10	1	-1E+10	1	-1E+10	1	-1E+10	1	-1E+10	1
4902549	79	C	10/18/2022	19:06	-132.323	47.062	0	393.00	0	4.9650	0	33.9600	0	26.858	0	389.366	0	55.7	4	18.0	4	-1E+10	1	-1E+10	1	-1E+10	1	-1E+10	1	-1E+10	1	-1E+10	1
4902549	79	C	10/18/2022	19:06	-132.323	47.062	0	398.10	0	4.9410	0	33.9620	0	26.863	0	394.414	0	54.6	4	17.6	4	-1E+10	1	-1E+10	1	-1E+10	1	-1E+10	1	-1E+10	1	-1E+10	1
4902549	79	C	10/18/2022	19:06	-132.323	47.062	0	402.90	0	4.9320	0	33.9670	0	26.868	0	399.165	0	53.5	4	17.2	4	-1E+10	1	-1E+10	1	-1E+10	1	-1E+10	1	-1E+10	1	-1E+10	1
4902549	79	C	10/18/2022	19:06	-132.323	47.062	0	407.50	0	4.9140	0	33.9690	0	26.871	0	403.717	0	52.5	4	16.9	4	-1E+10	1	-1E+10	1	-1E+10	1	-1E+10	1	-1E+10	1	-1E+10	1
4902549	79	C	10/18/2022	19:06	-132.323	47.062	0	412.90	0	4.8870	0	33.9720	0	26.877	0	409.062	0	50.6	4	16.3	4	-1E+10	1	-1E+10	1	-1E+10	1	-1E+10	1	-1E+10	1	-1E+10	1
4902549	79	C	10/18/2022	19:06	-132.323	47.062	0	418.10	0	4.8690	0	33.9800	0	26.885	0	414.208	0	49.0	4	15.8	4	-1E+10	1	-1E+10	1	-1E+10	1	-1E+10	1	-1E+10	1	-1E+10	1
4902549	79	C	10/18/2022	19:06	-132.323	47.062	0	422.90	0	4.8560	0	33.9870	0	26.892	0	418.959	0	48.3	4	15.5	4	-1E+10	1	-1E+10	1	-1E+10	1	-1E+10	1	-1E+10	1	-1E+10	1
4902549	79	C	10/18/2022	19:06	-132.323	47.062	0	427.80	0	4.8370	0	33.9870	0	26.894	0	423.808	0	47.5	4	15.3	4	-1E+10	1	-1E+10	1	-1E+10	1	-1E+10	1	-1E+10	1	-1E+10	1
4902549	79	C	10/18/2022	19:06	-132.323	47.062	0	432.70	0	4.8100	0	33.9910	0	26.901	0	428.658	0	46.5	4	14.9	4	-1E+10	1	-1E+10	1	-1E+10	1	-1E+10	1	-1E+10	1	-1E+10	1
4902549	79	C	10/18/2022	19:06	-132.323	47.062	0	437.70	0	4.7800	0	33.9940	0	26.906	0	433.606	0	45.8	4	14.7	4	-1E+10	1	-1E+10	1	-1E+10	1	-1E+10	1	-1E+10	1	-1E+10	1
4902549	79	C	10/18/2022	19:06	-132.323	47.062	0	442.70	0	4.7760	0	33.9950	0	26.908	0	438.554	0	44.6	4	14.3	4	-1E+10	1	-1E+10	1	-1E+10	1	-1E+10	1	-1E+10	1	-1E+10	1
4902549	79	C	10/18/2022	19:06	-132.323	47.062	0	447.80	0	4.7640	0	34.0000	0	26.913	0	443.600	0	43.2	4	13.9	4	-1E+10	1	-1E+10	1	-1E+10	1	-1E+10	1	-1E+10	1	-1E+10	1
4902549	79	C	10/18/2022	19:06	-132.323	47.062	0	453.00	0	4.7450	0	34.0050	0	26.919	0	448.746	0	41.9	4	13.4	4	-1E+10	1	-1E+10	1	-1E+10	1	-1E+10	1	-1E+10	1	-1E+10	1
4902549	79	C	10/18/2022	19:06	-132.323	47.062	0	458.10	0	4.7240	0	34.0090	0	26.925	0	453.792	0	40.4	4	13.0	4	-1E+10	1	-1E+10	1	-1E+10	1	-1E+10	1	-1E+10	1	-1E+10	1
4902549	79	C	10/18/2022	19:06	-132.323	47.062	0	462.90	0	4.7140	0	34.0150	0	26.931	0	458.542	0	38.4	4	12.3	4	-1E+10	1	-1E+10	1	-1E+10	1	-1E+10	1	-1E+10	1	-1E+10	1
4902549	79	C	10/18/2022	19:06	-132.323	47.062	0	467.70	0	4.7210	0	34.0250	0	26.938	0	463.292	0	36.9	4	11.8	4	-1E+10	1	-1E+10	1	-1E+10	1	-1E+10	1	-1E+10	1	-1E+10	1
4902549	79	C	10/18/2022	19:06	-132.323	47.062	0	473.00	0	4.7000	0	34.0310	0	26.945	0	468.536	0	35.8	4	11.5	4	-1E+10	1	-1E+10	1	-1E+10	1	-1E+10	1	-1E+10	1	-1E+10	1
4902549	79	C	10/18/2022	19:06	-132.323	47.062	0	477.90	0	4.6670	0	34.0350	0	26.952	0	473.384	0	34.9	4	11.2	4	-1E+10	1	-1E+10	1	-1E+10	1	-1E+10	1	-1E+10	1	-1E+10	1
4902549	79	C	10/18/2022	19:06	-132.323	47.062	0	482.80	0	4.6390	0	34.0390	0	26.958	0	478.232	0	34.0	4	10.9	4	-1E+10	1	-1E+10	1	-1E+10	1	-1E+10	1	-1E+10	1	-1E+10	1
4902549	79	C	10/18/2022	19:06	-132.323	47.062	0	487.80	0	4.6260	0	34.0420	0	26.962	0	483.179	0	33.0	4	10.6	4	-1E+10	1	-1E+10	1	-1E+10	1	-1E+10	1	-1E+10	1	-1E+10	1
4902549	79	C	10/18/2022	19:06	-132.323	47.062	0	492.80	0	4.6140	0	34.0470	0	26.967	0	488.125	0	31.8	4	10.2	4	-1E+10	1	-1E+10	1	-1E+10	1	-1E+10	1	-1E+10	1	-1E+10	1
4902549	79	C	10/18/2022	19:06	-132.323	47.062	0	497.90	0	4.5940	0	34.0510	0	26.973	0	493.171	0	30.4	4	9.7	4	-1E+10	1	-1E+10	1	-1E+10	1	-1E+10	1	-1E+10	1	-1E+10	1
4902549	79	C	10/18/2022	19:06	-132.323	47.062	0	503.00	0	4.6060	0	34.0590	0	26.978	0	498.216	0	28.7	4	9.2	4	-1E+10	1	-1E+10	1	-1E+10	1	-1E+10	1	-1E+10	1	-1E+10	1
4902549	79	C	10/18/2022	19:06	-132.323	47.062	0	508.10	0	4.6020	0	34.0670	0	26.984	0	503.262	0	27.7	4	8.9	4	-1E+10	1	-1E+10	1	-1E+10	1	-1E+10	1	-1E+10	1	-1E+10	1
4902549	79	C	10/18/2022	19:06	-132.323	47.062	0	512.80	0	4.5750	0	34.0700	0	26.990	0	507.911	0	26.7	4	8.5	4	-1E+10	1	-1E+10	1	-1E+10	1	-1E+10	1	-1E+10	1	-1E+10	1
4902549	79	C	10/18/2022	19:06	-132.323	47.062	0	517.60	0	4.5710	0	34.0760	0	26.995	0	512.660	0	25.5	4	8.1	4	-1E+10	1	-1E+10	1	-1E+10	1	-1E+10	1	-1E+10	1	-1E+10	1
4902549	79	C	10/18/2022	19:06	-132.323	47.062	0	522.60	0	4.5660	0	34.0830	0	27.001	0	517.606	0	24.6	4	7.9	4	-1E+10	1	-1E+10	1	-1E+10	1	-1E+10	1	-1E+10	1	-1E+10	1
4902549	79	C	10/18/2022	19:06	-132.323	47.062	0	527.60	0	4.5510	0	34.0880	0	27.007	0	522.552	0	23.9	4	7.6	4	-1E+10	1	-1E+10	1	-1E+10	1	-1E+10	1	-1E+10	1	-1E+10	1
4902549	79	C	10/18/2022	19:06	-132.323	47.062	0	532.70	0	4.5420	0	34.0890	0	27.009	0	527.596	0	23.4	4	7.5	4	-1E+10	1	-1E+10	1	-1E+10	1	-1E+10	1	-1E+10	1	-1E+10	1
4902549	79	C	10/18/2022	19:06	-132.323	47.062	0	537.70	0	4.5130	0	34.0920	0	27.014	0	532.542	0	22.5	4	7.2	4	-1E+10	1	-1E+10	1	-1E+10	1	-1E+10	1	-1E+10	1	-1E+10	1
4902549	79	C	10/18/2022	19:06	-132.323	47.062	0	542.70	0	4.5050	0	34.0970	0	27.019	0	537.488	0	21.3	4	6.8	4	-1E+10	1	-1E+10	1	-1E+10	1	-1E+10	1	-1E+10	1	-1E+10	1
4902549	79	C	10/18/2022	19:06	-132.323	47.062	0	547.70	0	4.5240	0	34.1060	0	27.024	0	542.433	0	20.5	4	6.5	4	-1E+10	1	-1E+10	1	-1E+10	1	-1E+10	1	-1E+10	1	-1E+10	1
4902549	79	C	10/18/2022	19:06	-132.323	47.062	0	552.90	0	4.5020	0	34.1080	0	27.028	0	547.576	0	19.8	4	6.3	4	-1E+10	1	-1E+10	1	-1E+10	1	-1E+10	1	-1E+10	1	-1E+10	1
4902549	79	C	10/18/2022	19:06	-132.323	47.062	0	557.90	0	4.4790	0	34.1130	0	27.035	0	552.521	0	19.0	4	6.1	4	-1E+10	1	-1E+10	1	-1E+10	1	-1E+10	1	-1E+10	1	-1E+10	1
4902549	79	C	10/18/2022	19:06	-132.323	47.062	0	563.10	0	4.4710	0	34.1160	0	27.038	0	557.664	0	18.2	4	5.8	4	-1E+10	1	-1E+10	1	-1E+10	1	-1E+10	1	-1E+10	1	-1E+10	1
4902549	79	C	10/18/2022	19:06	-132.323	47.062	0	568.20	0	4.4640	0	34.1210	0	27.043	0	562.708	0	17.1	4	5.5	4	-1E+10	1	-1E+10	1	-1E+10	1	-1E+10	1	-1E+10	1	-1E+10	1
4902549	79	C	10/18/2022	19:06	-132.323	47.062	0	572.90	0	4.4560	0	34.1300	0	27.051	0	567.356	0	16.2	4	5.2	4	-1E+10	1	-1E+10	1	-1E+10	1	-1E+10	1	-1E+10	1	-1E+10	1
4902549	79	C	10/18/2022	19:06	-132.323	47.062	0	577.50	0	4.4440	0	34.1360	0	27.057	0	571.906	0	15.6	4	5.0	4	-1E+10	1	-1E+10	1	-1E+10	1	-1E+10	1	-1E+10	1	-1E+10	1
4902549	79	C	10/18/2022	19:06	-132.323	47.062	0	582.70	0	4.4340	0	34.1410	0	27.062	0	577.048	0	15.0	4	4.8	4	-1E+10	1	-1E+10	1	-1E+10	1	-1E+10	1	-1E+10	1	-1E+10	1
4902549	79	C	10/18/2022	19:06	-132.323	47.062	0	587.80	0	4.4240	0	34.1440	0	27.065	0	582.091	0	14.3	4	4.6	4	-1E+10	1	-1E+10	1	-1E+10	1	-1E+10	1	-1E+10	1	-1E+10	1
4902549	79	C	10/18/2022	19:06	-132.323	47.062	0	592.90	0	4.4090	0	34.1510	0	27.073	0	587.135	0	13.5	4	4.3	4	-1E+10	1	-1E+10	1	-1E+10	1	-1E+10	1	-1E+10	1	-1E+10	1
4902549	79	C	10/18/2022	19:06	-132.323	47.062	0	598.00	0	4.3910	0	34.1590	0	27.081	0	592.178	0	13.0	4	4.2	4	-1E+10	1	-1E+10	1	-1E+10	1	-1E+10	1	-1E+10	1	-1E+10	1
4902549	79	C	10/18/2022	19:06	-132.323	47.062	0	603.20	0	4.3750	0	34.1630	0	27.086	0	597.320	0	12.6	4	4.0	4	-1E+10	1	-1E+10	1	-1E+10	1	-1E+10	1	-1E+10	1	-1E+10	1
4902549	79	C	10/18/2022	19:06	-132.323	47.062	0	607.90	0	4.3570	0	34.1680	0	27.092	0	601.967	0	12.4	4	3.9	4	-1E+10	1	-1E+10	1	-1E+10	1	-1E+10	1	-1E+10	1	-1E+10	1
4902549	79	C	10/18/2022	19:06	-132.323	47.062	0	612.70	0	4.3390	0	34.1690	0	27.095	0	606.713	0	12.2	4	3.9	4	-1E+10	1	-1E+10	1	-1E+10	1	-1E+10	1	-1E+10	1	-1E+10	1
4902549	79	C	10/18/2022	19:06	-132.323	47.062	0	618.00	0	4.3110	0	34.1710	0	27.099	0	611.954	0	11.6	4	3.7	4	-1E+10	1	-1E+10	1	-1E+10	1	-1E+10	1	-1E+10	1	-1E+10	1
4902549	79	C	10/18/2022	19:06	-132.323	47.062	0	622.80	0	4.3230	0	34.1790	0	27.104	0	616.700	0	11.0	4	3.5	4	-1E+10	1	-1E+10	1	-1E+10	1	-1E+10	1	-1E+10	1	-1E+10	1
4902549	79	C	10/18/2022	19:06	-132.323	47.062	0	627.90	0	4.3070	0	34.1840	0	27.110	0	621.742	0	10.8	4	3.4	4	-1E+10	1	-1E+10	1	-1E+10	1	-1E+10	1	-1E+10	1	-1E+10	1
4902549	79	C	10/18/2022	19:06	-132.323	47.062	0	633.20	0	4.3030	0	34.1860	0	27.112	0	626.982	0	10.5	4	3.3	4	-1E+10	1	-1E+10	1	-1E+10	1	-1E+10	1	-1E+10	1	-1E+10	1
4902549	79	C	10/18/2022	19:06	-132.323	47.062	0	638.30	0	4.2980	0	34.1890	0	27.115	0	632.024	0	10.2	4	3.2	4	-1E+10	1	-1E+10	1	-1E+10	1	-1E+10	1	-1E+10	1	-1E+10	1
4902549	79	C	10/18/2022	19:06	-132.323	47.062	0	642.90	0	4.2930	0	34.1930	0	27.119	0	636.572	0	9.9	4	3.1	4	-1E+10	1	-1E+10	1	-1E+10	1	-1E+10	1	-1E+10	1	-1E+10	1
4902549	79	C	10/18/2022	19:06	-132.323	47.062	0	647.80	0	4.2820	0	34.1980	0	27.124	0	641.416	0	9.6	4	3.0	4	-1E+10	1	-1E+10	1	-1E+10	1	-1E+10	1	-1E+10	1	-1E+10	1
4902549	79	C	10/18/2022	19:06	-132.323	47.062	0	653.10	0	4.2750	0	34.2010	0	27.127	0	646.656	0	9.3	4	3.0	4	-1E+10	1	-1E+10	1	-1E+10	1	-1E+10	1	-1E+10	1	-1E+10	1
4902549	79	C	10/18/2022	19:06	-132.323	47.062	0	658.10	0	4.2650	0	34.2050	0	27.131	0	651.599	0	9.0	4	2.9	4	-1E+10	1	-1E+10	1	-1E+10	1	-1E+10	1	-1E+10	1	-1E+10	1
4902549	79	C	10/18/2022	19:06	-132.323	47.062	0	662.90	0	4.2430	0	34.2100	0	27.138	0	656.344	0	8.7	4	2.8	4	-1E+10	1	-1E+10	1	-1E+10	1	-1E+10	1	-1E+10	1	-1E+10	1
4902549	79	C	10/18/2022	19:06	-132.323	47.062	0	667.90	0	4.2350	0	34.2160	0	27.143	0	661.286	0	8.6	4	2.7	4	-1E+10	1	-1E+10	1	-1E+10	1	-1E+10	1	-1E+10	1	-1E+10	1
4902549	79	C	10/18/2022	19:06	-132.323	47.062	0	672.90	0	4.2260	0	34.2170	0	27.145	0	666.229	0	8.6	4	2.7	4	-1E+10	1	-1E+10	1	-1E+10	1	-1E+10	1	-1E+10	1	-1E+10	1
4902549	79	C	10/18/2022	19:06	-132.323	47.062	0	677.90	0	4.1930	0	34.2170	0	27.149	0	671.171	0	8.6	4	2.7	4	-1E+10	1	-1E+10	1	-1E+10	1	-1E+10	1	-1E+10	1	-1E+10	1
4902549	79	C	10/18/2022	19:06	-132.323	47.062	0	683.00	0	4.1690	0	34.2190	0	27.153	0	676.212	0	8.4	4	2.7	4	-1E+10	1	-1E+10	1	-1E+10	1	-1E+10	1	-1E+10	1	-1E+10	1
4902549	79	C	10/18/2022	19:06	-132.323	47.062	0	688.20	0	4.1650	0	34.2220	0	27.156	0	681.352	0	8.2	4	2.6	4	-1E+10	1	-1E+10	1	-1E+10	1	-1E+10	1	-1E+10	1	-1E+10	1
4902549	79	C	10/18/2022	19:06	-132.323	47.062	0	692.90	0	4.1590	0	34.2250	0	27.159	0	685.998	0	8.0	4	2.5	4	-1E+10	1	-1E+10	1	-1E+10	1	-1E+10	1	-1E+10	1	-1E+10	1
4902549	79	C	10/18/2022	19:06	-132.323	47.062	0	697.60	0	4.1510	0	34.2280	0	27.162	0	690.643	0	7.9	4	2.5	4	-1E+10	1	-1E+10	1	-1E+10	1	-1E+10	1	-1E+10	1	-1E+10	1
4902549	79	C	10/18/2022	19:06	-132.323	47.062	0	702.80	0	4.1460	0	34.2310	0	27.165	0	695.782	0	7.7	4	2.4	4	-1E+10	1	-1E+10	1	-1E+10	1	-1E+10	1	-1E+10	1	-1E+10	1
4902549	79	C	10/18/2022	19:06	-132.323	47.062	0	708.20	0	4.1390	0	34.2340	0	27.168	0	701.119	0	7.5	4	2.4	4	-1E+10	1	-1E+10	1	-1E+10	1	-1E+10	1	-1E+10	1	-1E+10	1
4902549	79	C	10/18/2022	19:06	-132.323	47.062	0	713.00	0	4.1320	0	34.2370	0	27.171	0	705.863	0	7.3	4	2.3	4	-1E+10	1	-1E+10	1	-1E+10	1	-1E+10	1	-1E+10	1	-1E+10	1
4902549	79	C	10/18/2022	19:06	-132.323	47.062	0	717.80	0	4.1250	0	34.2400	0	27.174	0	710.607	0	7.1	4	2.3	4	-1E+10	1	-1E+10	1	-1E+10	1	-1E+10	1	-1E+10	1	-1E+10	1
4902549	79	C	10/18/2022	19:06	-132.323	47.062	0	722.80	0	4.1110	0	34.2440	0	27.179	0	715.548	0	7.0	4	2.2	4	-1E+10	1	-1E+10	1	-1E+10	1	-1E+10	1	-1E+10	1	-1E+10	1
4902549	79	C	10/18/2022	19:06	-132.323	47.062	0	727.80	0	4.0840	0	34.2480	0	27.185	0	720.490	0	6.9	4	2.2	4	-1E+10	1	-1E+10	1	-1E+10	1	-1E+10	1	-1E+10	1	-1E+10	1
4902549	79	C	10/18/2022	19:06	-132.323	47.062	0	732.80	0	4.0580	0	34.2510	0	27.190	0	725.431	0	6.8	4	2.1	4	-1E+10	1	-1E+10	1	-1E+10	1	-1E+10	1	-1E+10	1	-1E+10	1
4902549	79	C	10/18/2022	19:06	-132.323	47.062	0	737.90	0	4.0500	0	34.2540	0	27.193	0	730.471	0	6.7	4	2.1	4	-1E+10	1	-1E+10	1	-1E+10	1	-1E+10	1	-1E+10	1	-1E+10	1
4902549	79	C	10/18/2022	19:06	-132.323	47.062	0	743.00	0	4.0380	0	34.2570	0	27.197	0	735.510	0	6.6	4	2.1	4	-1E+10	1	-1E+10	1	-1E+10	1	-1E+10	1	-1E+10	1	-1E+10	1
4902549	79	C	10/18/2022	19:06	-132.323	47.062	0	748.20	0	4.0260	0	34.2600	0	27.201	0	740.649	0	6.4	4	2.0	4	-1E+10	1	-1E+10	1	-1E+10	1	-1E+10	1	-1E+10	1	-1E+10	1
4902549	79	C	10/18/2022	19:06	-132.323	47.062	0	752.80	0	4.0150	0	34.2620	0	27.203	0	745.194	0	6.3	4	2.0	4	-1E+10	1	-1E+10	1	-1E+10	1	-1E+10	1	-1E+10	1	-1E+10	1
4902549	79	C	10/18/2022	19:06	-132.323	47.062	0	757.50	0	4.0160	0	34.2650	0	27.206	0	749.838	0	6.2	4	2.0	4	-1E+10	1	-1E+10	1	-1E+10	1	-1E+10	1	-1E+10	1	-1E+10	1
4902549	79	C	10/18/2022	19:06	-132.323	47.062	0	762.60	0	4.0240	0	34.2690	0	27.208	0	754.877	0	6.2	4	2.0	4	-1E+10	1	-1E+10	1	-1E+10	1	-1E+10	1	-1E+10	1	-1E+10	1
4902549	79	C	10/18/2022	19:06	-132.323	47.062	0	767.80	0	3.9950	0	34.2690	0	27.211	0	760.015	0	6.2	4	2.0	4	-1E+10	1	-1E+10	1	-1E+10	1	-1E+10	1	-1E+10	1	-1E+10	1
4902549	79	C	10/18/2022	19:06	-132.323	47.062	0	773.00	0	3.9760	0	34.2700	0	27.214	0	765.153	0	6.3	4	2.0	4	-1E+10	1	-1E+10	1	-1E+10	1	-1E+10	1	-1E+10	1	-1E+10	1
4902549	79	C	10/18/2022	19:06	-132.323	47.062	0	778.10	0	3.9380	0	34.2710	0	27.218	0	770.192	0	6.2	4	2.0	4	-1E+10	1	-1E+10	1	-1E+10	1	-1E+10	1	-1E+10	1	-1E+10	1
4902549	79	C	10/18/2022	19:06	-132.323	47.062	0	782.80	0	3.9080	0	34.2750	0	27.225	0	774.835	0	6.2	4	2.0	4	-1E+10	1	-1E+10	1	-1E+10	1	-1E+10	1	-1E+10	1	-1E+10	1
4902549	79	C	10/18/2022	19:06	-132.323	47.062	0	787.60	0	3.8980	0	34.2770	0	27.227	0	779.577	0	6.2	4	1.9	4	-1E+10	1	-1E+10	1	-1E+10	1	-1E+10	1	-1E+10	1	-1E+10	1
4902549	79	C	10/18/2022	19:06	-132.323	47.062	0	792.80	0	3.8860	0	34.2790	0	27.230	0	784.715	0	6.1	4	1.9	4	-1E+10	1	-1E+10	1	-1E+10	1	-1E+10	1	-1E+10	1	-1E+10	1
4902549	79	C	10/18/2022	19:06	-132.323	47.062	0	798.10	0	3.8750	0	34.2810	0	27.233	0	789.951	0	6.1	4	1.9	4	-1E+10	1	-1E+10	1	-1E+10	1	-1E+10	1	-1E+10	1	-1E+10	1
4902549	79	C	10/18/2022	19:06	-132.323	47.062	0	802.90	0	3.8670	0	34.2820	0	27.235	0	794.692	0	6.0	4	1.9	4	-1E+10	1	-1E+10	1	-1E+10	1	-1E+10	1	-1E+10	1	-1E+10	1
4902549	79	C	10/18/2022	19:06	-132.323	47.062	0	807.60	0	3.8470	0	34.2850	0	27.239	0	799.335	0	6.0	4	1.9	4	-1E+10	1	-1E+10	1	-1E+10	1	-1E+10	1	-1E+10	1	-1E+10	1
4902549	79	C	10/18/2022	19:06	-132.323	47.062	0	812.70	0	3.8300	0	34.2880	0	27.243	0	804.373	0	6.0	4	1.9	4	-1E+10	1	-1E+10	1	-1E+10	1	-1E+10	1	-1E+10	1	-1E+10	1
4902549	79	C	10/18/2022	19:06	-132.323	47.062	0	817.90	0	3.8200	0	34.2900	0	27.246	0	809.510	0	5.9	4	1.9	4	-1E+10	1	-1E+10	1	-1E+10	1	-1E+10	1	-1E+10	1	-1E+10	1
4902549	79	C	10/18/2022	19:06	-132.323	47.062	0	823.10	0	3.8170	0	34.2910	0	27.247	0	814.647	0	5.9	4	1.9	4	-1E+10	1	-1E+10	1	-1E+10	1	-1E+10	1	-1E+10	1	-1E+10	1
4902549	79	C	10/18/2022	19:06	-132.323	47.062	0	827.90	0	3.8080	0	34.2940	0	27.250	0	819.388	0	5.8	4	1.8	4	-1E+10	1	-1E+10	1	-1E+10	1	-1E+10	1	-1E+10	1	-1E+10	1
4902549	79	C	10/18/2022	19:06	-132.323	47.062	0	832.70	0	3.7990	0	34.2960	0	27.253	0	824.129	0	5.8	4	1.8	4	-1E+10	1	-1E+10	1	-1E+10	1	-1E+10	1	-1E+10	1	-1E+10	1
4902549	79	C	10/18/2022	19:06	-132.323	47.062	0	837.60	0	3.7930	0	34.2980	0	27.255	0	828.969	0	5.7	4	1.8	4	-1E+10	1	-1E+10	1	-1E+10	1	-1E+10	1	-1E+10	1	-1E+10	1
4902549	79	C	10/18/2022	19:06	-132.323	47.062	0	842.90	0	3.7810	0	34.3010	0	27.259	0	834.204	0	5.7	4	1.8	4	-1E+10	1	-1E+10	1	-1E+10	1	-1E+10	1	-1E+10	1	-1E+10	1
4902549	79	C	10/18/2022	19:06	-132.323	47.062	0	847.90	0	3.7650	0	34.3050	0	27.263	0	839.142	0	5.7	4	1.8	4	-1E+10	1	-1E+10	1	-1E+10	1	-1E+10	1	-1E+10	1	-1E+10	1
4902549	79	C	10/18/2022	19:06	-132.323	47.062	0	852.60	0	3.7480	0	34.3070	0	27.267	0	843.784	0	5.7	4	1.8	4	-1E+10	1	-1E+10	1	-1E+10	1	-1E+10	1	-1E+10	1	-1E+10	1
4902549	79	C	10/18/2022	19:06	-132.323	47.062	0	857.70	0	3.7290	0	34.3110	0	27.272	0	848.821	0	5.6	4	1.8	4	-1E+10	1	-1E+10	1	-1E+10	1	-1E+10	1	-1E+10	1	-1E+10	1
4902549	79	C	10/18/2022	19:06	-132.323	47.062	0	862.90	0	3.7220	0	34.3130	0	27.274	0	853.957	0	5.6	4	1.8	4	-1E+10	1	-1E+10	1	-1E+10	1	-1E+10	1	-1E+10	1	-1E+10	1
4902549	79	C	10/18/2022	19:06	-132.323	47.062	0	868.10	0	3.7120	0	34.3150	0	27.277	0	859.092	0	5.6	4	1.8	4	-1E+10	1	-1E+10	1	-1E+10	1	-1E+10	1	-1E+10	1	-1E+10	1
4902549	79	C	10/18/2022	19:06	-132.323	47.062	0	872.90	0	3.7030	0	34.3170	0	27.279	0	863.832	0	5.6	4	1.8	4	-1E+10	1	-1E+10	1	-1E+10	1	-1E+10	1	-1E+10	1	-1E+10	1
4902549	79	C	10/18/2022	19:06	-132.323	47.062	0	877.80	0	3.6880	0	34.3200	0	27.283	0	868.671	0	5.6	4	1.8	4	-1E+10	1	-1E+10	1	-1E+10	1	-1E+10	1	-1E+10	1	-1E+10	1
4902549	79	C	10/18/2022	19:06	-132.323	47.062	0	882.80	0	3.6720	0	34.3230	0	27.287	0	873.609	0	5.6	4	1.8	4	-1E+10	1	-1E+10	1	-1E+10	1	-1E+10	1	-1E+10	1	-1E+10	1
4902549	79	C	10/18/2022	19:06	-132.323	47.062	0	887.70	0	3.6600	0	34.3250	0	27.290	0	878.447	0	5.6	4	1.8	4	-1E+10	1	-1E+10	1	-1E+10	1	-1E+10	1	-1E+10	1	-1E+10	1
4902549	79	C	10/18/2022	19:06	-132.323	47.062	0	893.10	0	3.6490	0	34.3270	0	27.293	0	883.780	0	5.6	4	1.8	4	-1E+10	1	-1E+10	1	-1E+10	1	-1E+10	1	-1E+10	1	-1E+10	1
4902549	79	C	10/18/2022	19:06	-132.323	47.062	0	898.10	0	3.6410	0	34.3290	0	27.295	0	888.717	0	5.6	4	1.8	4	-1E+10	1	-1E+10	1	-1E+10	1	-1E+10	1	-1E+10	1	-1E+10	1
4902549	79	C	10/18/2022	19:06	-132.323	47.062	0	903.10	0	3.6350	0	34.3300	0	27.296	0	893.654	0	5.6	4	1.8	4	-1E+10	1	-1E+10	1	-1E+10	1	-1E+10	1	-1E+10	1	-1E+10	1
4902549	79	C	10/18/2022	19:06	-132.323	47.062	0	908.20	0	3.6280	0	34.3330	0	27.300	0	898.690	0	5.7	4	1.8	4	-1E+10	1	-1E+10	1	-1E+10	1	-1E+10	1	-1E+10	1	-1E+10	1
4902549	79	C	10/18/2022	19:06	-132.323	47.062	0	912.80	0	3.6210	0	34.3340	0	27.301	0	903.232	0	5.7	4	1.8	4	-1E+10	1	-1E+10	1	-1E+10	1	-1E+10	1	-1E+10	1	-1E+10	1
4902549	79	C	10/18/2022	19:06	-132.323	47.062	0	918.00	0	3.6140	0	34.3350	0	27.303	0	908.366	0	5.7	4	1.8	4	-1E+10	1	-1E+10	1	-1E+10	1	-1E+10	1	-1E+10	1	-1E+10	1
4902549	79	C	10/18/2022	19:06	-132.323	47.062	0	923.20	0	3.6050	0	34.3360	0	27.304	0	913.500	0	5.8	4	1.8	4	-1E+10	1	-1E+10	1	-1E+10	1	-1E+10	1	-1E+10	1	-1E+10	1
4902549	79	C	10/18/2022	19:06	-132.323	47.062	0	927.90	0	3.5630	0	34.3350	0	27.308	0	918.140	0	5.8	4	1.8	4	-1E+10	1	-1E+10	1	-1E+10	1	-1E+10	1	-1E+10	1	-1E+10	1
4902549	79	C	10/18/2022	19:06	-132.323	47.062	0	932.60	0	3.5640	0	34.3390	0	27.311	0	922.780	0	5.8	4	1.8	4	-1E+10	1	-1E+10	1	-1E+10	1	-1E+10	1	-1E+10	1	-1E+10	1
4902549	79	C	10/18/2022	19:06	-132.323	47.062	0	937.80	0	3.5660	0	34.3440	0	27.315	0	927.914	0	5.7	4	1.8	4	-1E+10	1	-1E+10	1	-1E+10	1	-1E+10	1	-1E+10	1	-1E+10	1
4902549	79	C	10/18/2022	19:06	-132.323	47.062	0	943.10	0	3.5590	0	34.3470	0	27.318	0	933.147	0	5.7	4	1.8	4	-1E+10	1	-1E+10	1	-1E+10	1	-1E+10	1	-1E+10	1	-1E+10	1
4902549	79	C	10/18/2022	19:06	-132.323	47.062	0	947.80	0	3.5580	0	34.3480	0	27.319	0	937.786	0	5.8	4	1.8	4	-1E+10	1	-1E+10	1	-1E+10	1	-1E+10	1	-1E+10	1	-1E+10	1
4902549	79	C	10/18/2022	19:06	-132.323	47.062	0	952.60	0	3.5440	0	34.3510	0	27.322	0	942.525	0	5.8	4	1.8	4	-1E+10	1	-1E+10	1	-1E+10	1	-1E+10	1	-1E+10	1	-1E+10	1
4902549	79	C	10/18/2022	19:06	-132.323	47.062	0	957.90	0	3.5400	0	34.3520	0	27.324	0	947.757	0	5.8	4	1.8	4	-1E+10	1	-1E+10	1	-1E+10	1	-1E+10	1	-1E+10	1	-1E+10	1
4902549	79	C	10/18/2022	19:06	-132.323	47.062	0	963.30	0	3.5250	0	34.3540	0	27.327	0	953.087	0	5.9	4	1.8	4	-1E+10	1	-1E+10	1	-1E+10	1	-1E+10	1	-1E+10	1	-1E+10	1
4902549	79	C	10/18/2022	19:06	-132.323	47.062	0	968.10	0	3.5060	0	34.3560	0	27.330	0	957.826	0	5.9	4	1.8	4	-1E+10	1	-1E+10	1	-1E+10	1	-1E+10	1	-1E+10	1	-1E+10	1
4902549	79	C	10/18/2022	19:06	-132.323	47.062	0	972.90	0	3.4910	0	34.3570	0	27.332	0	962.564	0	5.9	4	1.9	4	-1E+10	1	-1E+10	1	-1E+10	1	-1E+10	1	-1E+10	1	-1E+10	1
4902549	79	C	10/18/2022	19:06	-132.323	47.062	0	977.60	0	3.4800	0	34.3590	0	27.335	0	967.203	0	6.0	4	1.9	4	-1E+10	1	-1E+10	1	-1E+10	1	-1E+10	1	-1E+10	1	-1E+10	1
4902549	79	C	10/18/2022	19:06	-132.323	47.062	0	982.90	0	3.4670	0	34.3610	0	27.338	0	972.434	0	6.0	4	1.9	4	-1E+10	1	-1E+10	1	-1E+10	1	-1E+10	1	-1E+10	1	-1E+10	1
4902549	79	C	10/18/2022	19:06	-132.323	47.062	0	988.10	0	3.4460	0	34.3620	0	27.341	0	977.567	0	6.1	4	1.9	4	-1E+10	1	-1E+10	1	-1E+10	1	-1E+10	1	-1E+10	1	-1E+10	1
4902549	79	C	10/18/2022	19:06	-132.323	47.062	0	992.90	0	3.4350	0	34.3630	0	27.343	0	982.304	0	6.1	4	1.9	4	-1E+10	1	-1E+10	1	-1E+10	1	-1E+10	1	-1E+10	1	-1E+10	1
4902549	79	C	10/18/2022	19:06	-132.323	47.062	0	997.60	0	3.4280	0	34.3630	0	27.343	0	986.943	0	6.1	4	1.9	4	-1E+10	1	-1E+10	1	-1E+10	1	-1E+10	1	-1E+10	1	-1E+10	1
4902549	79	C	10/18/2022	19:06	-132.323	47.062	0	1005.30	0	3.4100	0	34.3650	0	27.347	0	994.542	0	6.2	4	1.9	4	-1E+10	1	-1E+10	1	-1E+10	1	-1E+10	1	-1E+10	1	-1E+10	1
4902549	79	C	10/18/2022	19:06	-132.323	47.062	0	1015.40	0	3.3880	0	34.3680	0	27.351	0	1004.510	0	6.3	4	1.9	4	-1E+10	1	-1E+10	1	-1E+10	1	-1E+10	1	-1E+10	1	-1E+10	1
4902549	79	C	10/18/2022	19:06	-132.323	47.062	0	1025.10	0	3.3650	0	34.3720	0	27.357	0	1014.083	0	6.3	4	2.0	4	-1E+10	1	-1E+10	1	-1E+10	1	-1E+10	1	-1E+10	1	-1E+10	1
4902549	79	C	10/18/2022	19:06	-132.323	47.062	0	1034.90	0	3.3480	0	34.3750	0	27.361	0	1023.754	0	6.4	4	2.0	4	-1E+10	1	-1E+10	1	-1E+10	1	-1E+10	1	-1E+10	1	-1E+10	1
4902549	79	C	10/18/2022	19:06	-132.323	47.062	0	1045.00	0	3.3260	0	34.3790	0	27.366	0	1033.720	0	6.6	4	2.0	4	-1E+10	1	-1E+10	1	-1E+10	1	-1E+10	1	-1E+10	1	-1E+10	1
4902549	79	C	10/18/2022	19:06	-132.323	47.062	0	1055.30	0	3.3050	0	34.3840	0	27.372	0	1043.883	0	6.7	4	2.1	4	-1E+10	1	-1E+10	1	-1E+10	1	-1E+10	1	-1E+10	1	-1E+10	1
4902549	79	C	10/18/2022	19:06	-132.323	47.062	0	1065.40	0	3.2480	0	34.3880	0	27.381	0	1053.848	0	6.9	4	2.1	4	-1E+10	1	-1E+10	1	-1E+10	1	-1E+10	1	-1E+10	1	-1E+10	1
4902549	79	C	10/18/2022	19:06	-132.323	47.062	0	1075.40	0	3.2120	0	34.3930	0	27.388	0	1063.715	0	7.1	4	2.2	4	-1E+10	1	-1E+10	1	-1E+10	1	-1E+10	1	-1E+10	1	-1E+10	1
4902549	79	C	10/18/2022	19:06	-132.323	47.062	0	1085.50	0	3.1910	0	34.3980	0	27.394	0	1073.679	0	7.3	4	2.3	4	-1E+10	1	-1E+10	1	-1E+10	1	-1E+10	1	-1E+10	1	-1E+10	1
4902549	79	C	10/18/2022	19:06	-132.323	47.062	0	1095.80	0	3.1630	0	34.4020	0	27.400	0	1083.840	0	7.5	4	2.3	4	-1E+10	1	-1E+10	1	-1E+10	1	-1E+10	1	-1E+10	1	-1E+10	1
4902549	79	C	10/18/2022	19:06	-132.323	47.062	0	1105.40	0	3.1510	0	34.4050	0	27.403	0	1093.311	0	7.7	4	2.4	4	-1E+10	1	-1E+10	1	-1E+10	1	-1E+10	1	-1E+10	1	-1E+10	1
4902549	79	C	10/18/2022	19:06	-132.323	47.062	0	1115.20	0	3.1340	0	34.4080	0	27.407	0	1102.978	0	7.8	4	2.4	4	-1E+10	1	-1E+10	1	-1E+10	1	-1E+10	1	-1E+10	1	-1E+10	1
4902549	79	C	10/18/2022	19:06	-132.323	47.062	0	1125.20	0	3.1180	0	34.4090	0	27.410	0	1112.842	0	7.9	4	2.4	4	-1E+10	1	-1E+10	1	-1E+10	1	-1E+10	1	-1E+10	1	-1E+10	1
4902549	79	C	10/18/2022	19:06	-132.323	47.062	0	1135.40	0	3.1060	0	34.4100	0	27.412	0	1122.902	0	8.0	4	2.5	4	-1E+10	1	-1E+10	1	-1E+10	1	-1E+10	1	-1E+10	1	-1E+10	1
4902549	79	C	10/18/2022	19:06	-132.323	47.062	0	1145.90	0	3.0570	0	34.4130	0	27.419	0	1133.258	0	8.1	4	2.5	4	-1E+10	1	-1E+10	1	-1E+10	1	-1E+10	1	-1E+10	1	-1E+10	1
4902549	79	C	10/18/2022	19:06	-132.323	47.062	0	1155.40	0	3.0370	0	34.4140	0	27.421	0	1142.628	0	8.1	4	2.5	4	-1E+10	1	-1E+10	1	-1E+10	1	-1E+10	1	-1E+10	1	-1E+10	1
4902549	79	C	10/18/2022	19:06	-132.323	47.062	0	1165.00	0	3.0090	0	34.4140	0	27.424	0	1152.095	0	8.1	4	2.5	4	-1E+10	1	-1E+10	1	-1E+10	1	-1E+10	1	-1E+10	1	-1E+10	1
4902549	79	C	10/18/2022	19:06	-132.323	47.062	0	1175.10	0	2.9620	0	34.4140	0	27.428	0	1162.056	0	8.2	4	2.5	4	-1E+10	1	-1E+10	1	-1E+10	1	-1E+10	1	-1E+10	1	-1E+10	1
4902549	79	C	10/18/2022	19:06	-132.323	47.062	0	1185.40	0	2.9470	0	34.4170	0	27.432	0	1172.213	0	8.3	4	2.6	4	-1E+10	1	-1E+10	1	-1E+10	1	-1E+10	1	-1E+10	1	-1E+10	1
4902549	79	C	10/18/2022	19:06	-132.323	47.062	0	1195.40	0	2.9390	0	34.4190	0	27.434	0	1182.073	0	8.6	4	2.6	4	-1E+10	1	-1E+10	1	-1E+10	1	-1E+10	1	-1E+10	1	-1E+10	1
4902549	79	C	10/18/2022	19:06	-132.323	47.062	0	1205.50	0	2.9270	0	34.4230	0	27.439	0	1192.032	0	8.8	4	2.7	4	-1E+10	1	-1E+10	1	-1E+10	1	-1E+10	1	-1E+10	1	-1E+10	1
4902549	79	C	10/18/2022	19:06	-132.323	47.062	0	1215.80	0	2.9140	0	34.4270	0	27.443	0	1202.188	0	9.1	4	2.8	4	-1E+10	1	-1E+10	1	-1E+10	1	-1E+10	1	-1E+10	1	-1E+10	1
4902549	79	C	10/18/2022	19:06	-132.323	47.062	0	1226.00	0	2.9010	0	34.4300	0	27.447	0	1212.244	0	9.6	4	2.9	4	-1E+10	1	-1E+10	1	-1E+10	1	-1E+10	1	-1E+10	1	-1E+10	1
4902549	79	C	10/18/2022	19:06	-132.323	47.062	0	1235.40	0	2.8970	0	34.4360	0	27.452	0	1221.511	0	10.0	4	3.1	4	-1E+10	1	-1E+10	1	-1E+10	1	-1E+10	1	-1E+10	1	-1E+10	1
4902549	79	C	10/18/2022	19:06	-132.323	47.062	0	1245.10	0	2.8900	0	34.4410	0	27.457	0	1231.074	0	10.3	4	3.2	4	-1E+10	1	-1E+10	1	-1E+10	1	-1E+10	1	-1E+10	1	-1E+10	1
4902549	79	C	10/18/2022	19:06	-132.323	47.062	0	1255.40	0	2.8910	0	34.4430	0	27.458	0	1241.227	0	10.5	4	3.2	4	-1E+10	1	-1E+10	1	-1E+10	1	-1E+10	1	-1E+10	1	-1E+10	1
4902549	79	C	10/18/2022	19:06	-132.323	47.062	0	1265.30	0	2.8760	0	34.4460	0	27.462	0	1250.986	0	10.8	4	3.3	4	-1E+10	1	-1E+10	1	-1E+10	1	-1E+10	1	-1E+10	1	-1E+10	1
4902549	79	C	10/18/2022	19:06	-132.323	47.062	0	1275.30	0	2.8590	0	34.4480	0	27.465	0	1260.843	0	11.1	4	3.4	4	-1E+10	1	-1E+10	1	-1E+10	1	-1E+10	1	-1E+10	1	-1E+10	1
4902549	79	C	10/18/2022	19:06	-132.323	47.062	0	1285.30	0	2.8380	0	34.4510	0	27.469	0	1270.700	0	11.4	4	3.5	4	-1E+10	1	-1E+10	1	-1E+10	1	-1E+10	1	-1E+10	1	-1E+10	1
4902549	79	C	10/18/2022	19:06	-132.323	47.062	0	1295.30	0	2.8220	0	34.4530	0	27.472	0	1280.556	0	11.6	4	3.6	4	-1E+10	1	-1E+10	1	-1E+10	1	-1E+10	1	-1E+10	1	-1E+10	1
4902549	79	C	10/18/2022	19:06	-132.323	47.062	0	1305.60	0	2.8070	0	34.4550	0	27.475	0	1290.707	0	11.9	4	3.7	4	-1E+10	1	-1E+10	1	-1E+10	1	-1E+10	1	-1E+10	1	-1E+10	1
4902549	79	C	10/18/2022	19:06	-132.323	47.062	0	1315.50	0	2.7960	0	34.4570	0	27.478	0	1300.463	0	12.2	4	3.8	4	-1E+10	1	-1E+10	1	-1E+10	1	-1E+10	1	-1E+10	1	-1E+10	1
4902549	79	C	10/18/2022	19:06	-132.323	47.062	0	1325.30	0	2.7800	0	34.4600	0	27.482	0	1310.121	0	12.6	4	3.9	4	-1E+10	1	-1E+10	1	-1E+10	1	-1E+10	1	-1E+10	1	-1E+10	1
4902549	79	C	10/18/2022	19:06	-132.323	47.062	0	1335.10	0	2.7640	0	34.4630	0	27.486	0	1319.778	0	12.9	4	4.0	4	-1E+10	1	-1E+10	1	-1E+10	1	-1E+10	1	-1E+10	1	-1E+10	1
4902549	79	C	10/18/2022	19:06	-132.323	47.062	0	1345.50	0	2.7520	0	34.4650	0	27.488	0	1330.026	0	13.2	4	4.1	4	-1E+10	1	-1E+10	1	-1E+10	1	-1E+10	1	-1E+10	1	-1E+10	1
4902549	79	C	10/18/2022	19:06	-132.323	47.062	0	1355.90	0	2.7400	0	34.4670	0	27.491	0	1340.273	0	13.6	4	4.2	4	-1E+10	1	-1E+10	1	-1E+10	1	-1E+10	1	-1E+10	1	-1E+10	1
4902549	79	C	10/18/2022	19:06	-132.323	47.062	0	1365.40	0	2.7330	0	34.4690	0	27.493	0	1349.633	0	13.9	4	4.3	4	-1E+10	1	-1E+10	1	-1E+10	1	-1E+10	1	-1E+10	1	-1E+10	1
4902549	79	C	10/18/2022	19:06	-132.323	47.062	0	1375.10	0	2.7200	0	34.4710	0	27.496	0	1359.190	0	14.2	4	4.4	4	-1E+10	1	-1E+10	1	-1E+10	1	-1E+10	1	-1E+10	1	-1E+10	1
4902549	79	C	10/18/2022	19:06	-132.323	47.062	0	1385.20	0	2.7070	0	34.4730	0	27.499	0	1369.140	0	14.6	4	4.5	4	-1E+10	1	-1E+10	1	-1E+10	1	-1E+10	1	-1E+10	1	-1E+10	1
4902549	79	C	10/18/2022	19:06	-132.323	47.062	0	1395.20	0	2.6890	0	34.4750	0	27.502	0	1378.992	0	14.9	4	4.6	4	-1E+10	1	-1E+10	1	-1E+10	1	-1E+10	1	-1E+10	1	-1E+10	1
4902549	79	C	10/18/2022	19:06	-132.323	47.062	0	1405.40	0	2.6720	0	34.4770	0	27.505	0	1389.040	0	15.3	4	4.7	4	-1E+10	1	-1E+10	1	-1E+10	1	-1E+10	1	-1E+10	1	-1E+10	1
4902549	79	C	10/18/2022	19:06	-132.323	47.062	0	1415.50	0	2.6640	0	34.4790	0	27.508	0	1398.989	0	15.7	4	4.8	4	-1E+10	1	-1E+10	1	-1E+10	1	-1E+10	1	-1E+10	1	-1E+10	1
4902549	79	C	10/18/2022	19:06	-132.323	47.062	0	1425.60	0	2.6420	0	34.4810	0	27.511	0	1408.937	0	16.2	4	5.0	4	-1E+10	1	-1E+10	1	-1E+10	1	-1E+10	1	-1E+10	1	-1E+10	1
4902549	79	C	10/18/2022	19:06	-132.323	47.062	0	1435.80	0	2.6140	0	34.4840	0	27.516	0	1418.984	0	16.7	4	5.1	4	-1E+10	1	-1E+10	1	-1E+10	1	-1E+10	1	-1E+10	1	-1E+10	1
4902549	79	C	10/18/2022	19:06	-132.323	47.062	0	1445.40	0	2.5900	0	34.4860	0	27.520	0	1428.439	0	17.1	4	5.2	4	-1E+10	1	-1E+10	1	-1E+10	1	-1E+10	1	-1E+10	1	-1E+10	1
4902549	79	C	10/18/2022	19:06	-132.323	47.062	0	1455.10	0	2.5720	0	34.4880	0	27.523	0	1437.992	0	17.5	4	5.3	4	-1E+10	1	-1E+10	1	-1E+10	1	-1E+10	1	-1E+10	1	-1E+10	1
4902549	79	C	10/18/2022	19:06	-132.323	47.062	0	1465.40	0	2.5540	0	34.4900	0	27.526	0	1448.136	0	18.1	4	5.5	4	-1E+10	1	-1E+10	1	-1E+10	1	-1E+10	1	-1E+10	1	-1E+10	1
4902549	79	C	10/18/2022	19:06	-132.323	47.062	0	1475.70	0	2.5390	0	34.4930	0	27.530	0	1458.279	0	18.6	4	5.7	4	-1E+10	1	-1E+10	1	-1E+10	1	-1E+10	1	-1E+10	1	-1E+10	1
4902549	79	C	10/18/2022	19:06	-132.323	47.062	0	1485.80	0	2.5210	0	34.4950	0	27.533	0	1468.225	0	19.2	4	5.9	4	-1E+10	1	-1E+10	1	-1E+10	1	-1E+10	1	-1E+10	1	-1E+10	1
4902549	79	C	10/18/2022	19:06	-132.323	47.062	0	1495.20	0	2.5070	0	34.4970	0	27.536	0	1477.480	0	19.7	4	6.0	4	-1E+10	1	-1E+10	1	-1E+10	1	-1E+10	1	-1E+10	1	-1E+10	1
4902549	79	C	10/18/2022	19:06	-132.323	47.062	0	1505.10	0	2.4920	0	34.4990	0	27.539	0	1487.228	0	20.2	4	6.2	4	-1E+10	1	-1E+10	1	-1E+10	1	-1E+10	1	-1E+10	1	-1E+10	1
4902549	79	C	10/18/2022	19:06	-132.323	47.062	0	1515.30	0	2.4830	0	34.5010	0	27.541	0	1497.271	0	21.0	4	6.4	4	-1E+10	1	-1E+10	1	-1E+10	1	-1E+10	1	-1E+10	1	-1E+10	1
4902549	79	C	10/18/2022	19:06	-132.323	47.062	0	1525.40	0	2.4860	0	34.5060	0	27.545	0	1507.215	0	22.0	4	6.7	4	-1E+10	1	-1E+10	1	-1E+10	1	-1E+10	1	-1E+10	1	-1E+10	1
4902549	79	C	10/18/2022	19:06	-132.323	47.062	0	1535.10	0	2.4760	0	34.5090	0	27.548	0	1516.764	0	22.6	4	6.9	4	-1E+10	1	-1E+10	1	-1E+10	1	-1E+10	1	-1E+10	1	-1E+10	1
4902549	79	C	10/18/2022	19:06	-132.323	47.062	0	1545.40	0	2.4620	0	34.5110	0	27.551	0	1526.904	0	23.1	4	7.0	4	-1E+10	1	-1E+10	1	-1E+10	1	-1E+10	1	-1E+10	1	-1E+10	1
4902549	79	C	10/18/2022	19:06	-132.323	47.062	0	1555.70	0	2.4420	0	34.5120	0	27.554	0	1537.044	0	23.5	4	7.2	4	-1E+10	1	-1E+10	1	-1E+10	1	-1E+10	1	-1E+10	1	-1E+10	1
4902549	79	C	10/18/2022	19:06	-132.323	47.062	0	1565.50	0	2.4270	0	34.5140	0	27.556	0	1546.690	0	24.1	4	7.3	4	-1E+10	1	-1E+10	1	-1E+10	1	-1E+10	1	-1E+10	1	-1E+10	1
4902549	79	C	10/18/2022	19:06	-132.323	47.062	0	1575.50	0	2.4140	0	34.5160	0	27.559	0	1556.533	0	24.8	4	7.6	4	-1E+10	1	-1E+10	1	-1E+10	1	-1E+10	1	-1E+10	1	-1E+10	1
4902549	79	C	10/18/2022	19:06	-132.323	47.062	0	1585.30	0	2.4040	0	34.5190	0	27.562	0	1566.179	0	25.3	4	7.7	4	-1E+10	1	-1E+10	1	-1E+10	1	-1E+10	1	-1E+10	1	-1E+10	1
4902549	79	C	10/18/2022	19:06	-132.323	47.062	0	1595.30	0	2.3710	0	34.5180	0	27.564	0	1576.021	0	25.3	4	7.7	4	-1E+10	1	-1E+10	1	-1E+10	1	-1E+10	1	-1E+10	1	-1E+10	1
4902549	79	C	10/18/2022	19:06	-132.323	47.062	0	1605.40	0	2.3450	0	34.5190	0	27.567	0	1585.962	0	25.9	4	7.9	4	-1E+10	1	-1E+10	1	-1E+10	1	-1E+10	1	-1E+10	1	-1E+10	1
4902549	79	C	10/18/2022	19:06	-132.323	47.062	0	1615.10	0	2.3350	0	34.5220	0	27.571	0	1595.508	0	26.7	4	8.1	4	-1E+10	1	-1E+10	1	-1E+10	1	-1E+10	1	-1E+10	1	-1E+10	1
4902549	79	C	10/18/2022	19:06	-132.323	47.062	0	1625.00	0	2.3290	0	34.5240	0	27.573	0	1605.250	0	27.2	4	8.3	4	-1E+10	1	-1E+10	1	-1E+10	1	-1E+10	1	-1E+10	1	-1E+10	1
4902549	79	C	10/18/2022	19:06	-132.323	47.062	0	1635.00	0	2.3200	0	34.5250	0	27.574	0	1615.090	0	27.8	4	8.4	4	-1E+10	1	-1E+10	1	-1E+10	1	-1E+10	1	-1E+10	1	-1E+10	1
4902549	79	C	10/18/2022	19:06	-132.323	47.062	0	1645.00	0	2.3110	0	34.5270	0	27.577	0	1624.930	0	28.4	4	8.6	4	-1E+10	1	-1E+10	1	-1E+10	1	-1E+10	1	-1E+10	1	-1E+10	1
4902549	79	C	10/18/2022	19:06	-132.323	47.062	0	1655.30	0	2.3030	0	34.5280	0	27.578	0	1635.065	0	28.9	4	8.8	4	-1E+10	1	-1E+10	1	-1E+10	1	-1E+10	1	-1E+10	1	-1E+10	1
4902549	79	C	10/18/2022	19:06	-132.323	47.062	0	1665.70	0	2.2930	0	34.5300	0	27.581	0	1645.297	0	29.4	4	8.9	4	-1E+10	1	-1E+10	1	-1E+10	1	-1E+10	1	-1E+10	1	-1E+10	1
4902549	79	C	10/18/2022	19:06	-132.323	47.062	0	1675.50	0	2.2700	0	34.5310	0	27.583	0	1654.939	0	29.8	4	9.0	4	-1E+10	1	-1E+10	1	-1E+10	1	-1E+10	1	-1E+10	1	-1E+10	1
4902549	79	C	10/18/2022	19:06	-132.323	47.062	0	1685.20	0	2.2450	0	34.5330	0	27.587	0	1664.482	0	30.7	4	9.3	4	-1E+10	1	-1E+10	1	-1E+10	1	-1E+10	1	-1E+10	1	-1E+10	1
4902549	79	C	10/18/2022	19:06	-132.323	47.062	0	1695.60	0	2.2280	0	34.5370	0	27.592	0	1674.713	0	32.0	4	9.7	4	-1E+10	1	-1E+10	1	-1E+10	1	-1E+10	1	-1E+10	1	-1E+10	1
4902549	79	C	10/18/2022	19:06	-132.323	47.062	0	1705.40	0	2.2220	0	34.5400	0	27.595	0	1684.353	0	32.7	4	9.9	4	-1E+10	1	-1E+10	1	-1E+10	1	-1E+10	1	-1E+10	1	-1E+10	1
4902549	79	C	10/18/2022	19:06	-132.323	47.062	0	1715.70	0	2.1970	0	34.5410	0	27.597	0	1694.485	0	33.1	4	10.0	4	-1E+10	1	-1E+10	1	-1E+10	1	-1E+10	1	-1E+10	1	-1E+10	1
4902549	79	C	10/18/2022	19:06	-132.323	47.062	0	1725.50	0	2.1780	0	34.5430	0	27.601	0	1704.125	0	34.2	4	10.3	4	-1E+10	1	-1E+10	1	-1E+10	1	-1E+10	1	-1E+10	1	-1E+10	1
4902549	79	C	10/18/2022	19:06	-132.323	47.062	0	1735.30	0	2.1650	0	34.5470	0	27.605	0	1713.764	0	35.2	4	10.6	4	-1E+10	1	-1E+10	1	-1E+10	1	-1E+10	1	-1E+10	1	-1E+10	1
4902549	79	C	10/18/2022	19:06	-132.323	47.062	0	1745.30	0	2.1480	0	34.5490	0	27.608	0	1723.599	0	36.0	4	10.9	4	-1E+10	1	-1E+10	1	-1E+10	1	-1E+10	1	-1E+10	1	-1E+10	1
4902549	79	C	10/18/2022	19:06	-132.323	47.062	0	1755.20	0	2.1380	0	34.5500	0	27.610	0	1733.335	0	36.7	4	11.1	4	-1E+10	1	-1E+10	1	-1E+10	1	-1E+10	1	-1E+10	1	-1E+10	1
4902549	79	C	10/18/2022	19:06	-132.323	47.062	0	1765.30	0	2.1280	0	34.5520	0	27.612	0	1743.268	0	37.3	4	11.3	4	-1E+10	1	-1E+10	1	-1E+10	1	-1E+10	1	-1E+10	1	-1E+10	1
4902549	79	C	10/18/2022	19:06	-132.323	47.062	0	1775.50	0	2.1190	0	34.5530	0	27.614	0	1753.299	0	37.8	4	11.4	4	-1E+10	1	-1E+10	1	-1E+10	1	-1E+10	1	-1E+10	1	-1E+10	1
4902549	79	C	10/18/2022	19:06	-132.323	47.062	0	1785.50	0	2.1130	0	34.5540	0	27.615	0	1763.132	0	38.3	4	11.6	4	-1E+10	1	-1E+10	1	-1E+10	1	-1E+10	1	-1E+10	1	-1E+10	1
4902549	79	C	10/18/2022	19:06	-132.323	47.062	0	1795.60	0	2.1060	0	34.5560	0	27.617	0	1773.064	0	38.8	4	11.7	4	-1E+10	1	-1E+10	1	-1E+10	1	-1E+10	1	-1E+10	1	-1E+10	1
4902549	79	C	10/18/2022	19:06	-132.323	47.062	0	1805.70	0	2.1000	0	34.5570	0	27.618	0	1782.995	0	39.3	4	11.9	4	-1E+10	1	-1E+10	1	-1E+10	1	-1E+10	1	-1E+10	1	-1E+10	1
4902549	79	C	10/18/2022	19:06	-132.323	47.062	0	1815.70	0	2.0920	0	34.5580	0	27.620	0	1792.827	0	40.0	4	12.1	4	-1E+10	1	-1E+10	1	-1E+10	1	-1E+10	1	-1E+10	1	-1E+10	1
4902549	79	C	10/18/2022	19:06	-132.323	47.062	0	1825.40	0	2.0810	0	34.5600	0	27.622	0	1802.363	0	41.0	4	12.4	4	-1E+10	1	-1E+10	1	-1E+10	1	-1E+10	1	-1E+10	1	-1E+10	1
4902549	79	C	10/18/2022	19:06	-132.323	47.062	0	1835.30	0	2.0620	0	34.5630	0	27.626	0	1812.096	0	42.1	4	12.7	4	-1E+10	1	-1E+10	1	-1E+10	1	-1E+10	1	-1E+10	1	-1E+10	1
4902549	79	C	10/18/2022	19:06	-132.323	47.062	0	1845.40	0	2.0450	0	34.5650	0	27.629	0	1822.025	0	42.8	4	12.9	4	-1E+10	1	-1E+10	1	-1E+10	1	-1E+10	1	-1E+10	1	-1E+10	1
4902549	79	C	10/18/2022	19:06	-132.323	47.062	0	1855.10	0	2.0390	0	34.5660	0	27.631	0	1831.561	0	43.1	4	13.0	4	-1E+10	1	-1E+10	1	-1E+10	1	-1E+10	1	-1E+10	1	-1E+10	1
4902549	79	C	10/18/2022	19:06	-132.323	47.062	0	1865.00	0	2.0370	0	34.5670	0	27.632	0	1841.292	0	43.5	4	13.1	4	-1E+10	1	-1E+10	1	-1E+10	1	-1E+10	1	-1E+10	1	-1E+10	1
4902549	79	C	10/18/2022	19:06	-132.323	47.062	0	1875.10	0	2.0310	0	34.5680	0	27.633	0	1851.220	0	44.0	4	13.3	4	-1E+10	1	-1E+10	1	-1E+10	1	-1E+10	1	-1E+10	1	-1E+10	1
4902549	79	C	10/18/2022	19:06	-132.323	47.062	0	1885.00	0	2.0240	0	34.5690	0	27.634	0	1860.950	0	44.6	4	13.5	4	-1E+10	1	-1E+10	1	-1E+10	1	-1E+10	1	-1E+10	1	-1E+10	1
4902549	79	C	10/18/2022	19:06	-132.323	47.062	0	1895.00	0	2.0160	0	34.5710	0	27.637	0	1870.779	0	45.3	4	13.6	4	-1E+10	1	-1E+10	1	-1E+10	1	-1E+10	1	-1E+10	1	-1E+10	1
4902549	79	C	10/18/2022	19:06	-132.323	47.062	0	1905.10	0	2.0110	0	34.5720	0	27.638	0	1880.705	0	45.8	4	13.8	4	-1E+10	1	-1E+10	1	-1E+10	1	-1E+10	1	-1E+10	1	-1E+10	1
4902549	79	C	10/18/2022	19:06	-132.323	47.062	0	1915.30	0	2.0030	0	34.5730	0	27.639	0	1890.729	0	46.7	4	14.1	4	-1E+10	1	-1E+10	1	-1E+10	1	-1E+10	1	-1E+10	1	-1E+10	1
4902549	79	C	10/18/2022	19:06	-132.323	47.062	0	1925.60	0	1.9850	0	34.5760	0	27.643	0	1900.851	0	47.8	4	14.4	4	-1E+10	1	-1E+10	1	-1E+10	1	-1E+10	1	-1E+10	1	-1E+10	1
4902549	79	C	10/18/2022	19:06	-132.323	47.062	0	1935.80	0	1.9750	0	34.5790	0	27.647	0	1910.874	0	48.5	4	14.6	4	-1E+10	1	-1E+10	1	-1E+10	1	-1E+10	1	-1E+10	1	-1E+10	1
4902549	79	C	10/18/2022	19:06	-132.323	47.062	0	1945.20	0	1.9660	0	34.5800	0	27.648	0	1920.111	0	49.1	4	14.8	4	-1E+10	1	-1E+10	1	-1E+10	1	-1E+10	1	-1E+10	1	-1E+10	1
4902549	79	C	10/18/2022	19:06	-132.323	47.062	0	1955.10	0	1.9580	0	34.5810	0	27.650	0	1929.838	0	49.7	4	15.0	4	-1E+10	1	-1E+10	1	-1E+10	1	-1E+10	1	-1E+10	1	-1E+10	1
4902549	79	C	10/18/2022	19:06	-132.323	47.062	0	1965.40	0	1.9520	0	34.5830	0	27.652	0	1939.959	0	50.2	4	15.1	4	-1E+10	1	-1E+10	1	-1E+10	1	-1E+10	1	-1E+10	1	-1E+10	1
4902549	79	C	10/18/2022	19:06	-132.323	47.062	0	1975.60	0	1.9470	0	34.5840	0	27.653	0	1949.980	0	50.6	4	15.2	4	-1E+10	1	-1E+10	1	-1E+10	1	-1E+10	1	-1E+10	1	-1E+10	1
4902549	79	C	10/18/2022	19:06	-132.323	47.062	0	1985.40	0	1.9410	0	34.5850	0	27.654	0	1959.608	0	50.9	4	15.3	4	-1E+10	1	-1E+10	1	-1E+10	1	-1E+10	1	-1E+10	1	-1E+10	1
4902549	79	C	10/18/2022	19:06	-132.323	47.062	0	1992.90	0	1.9360	0	34.5860	0	27.655	0	1966.976	0	50.3	4	15.2	4	-1E+10	1	-1E+10	1	-1E+10	1	-1E+10	1	-1E+10	1	-1E+10	1
4902549	79	C	10/18/2022	19:06	-132.323	47.062	0																										
4902549	80	C	10/29/2022	00:07	-132.588	47.090	0	0.20	0	15.3630	0	32.2930	0	23.808	0	0.198	0	244.2	4	97.4	4	-1E+10	1	-1E+10	1	-1E+10	1	-1E+10	1	-1E+10	1	-1E+10	1
4902549	80	C	10/29/2022	00:07	-132.588	47.090	0	0.30	0	15.3630	0	32.2910	0	23.807	0	0.298	0	-1e10	1	-1e10	1	-1E+10	1	-1E+10	1	-1E+10	1	-1E+10	1	-1E+10	1	-1E+10	1
4902549	80	C	10/29/2022	00:07	-132.588	47.090	0	0.40	0	15.3750	0	32.2940	0	23.806	0	0.397	0	238.3	4	95.1	4	-1E+10	1	-1E+10	1	-1E+10	1	-1E+10	1	-1E+10	1	-1E+10	1
4902549	80	C	10/29/2022	00:07	-132.588	47.090	0	1.30	0	15.3750	0	32.2920	0	23.805	0	1.289	0	238.3	4	95.1	4	-1E+10	1	-1E+10	1	-1E+10	1	-1E+10	1	-1E+10	1	-1E+10	1
4902549	80	C	10/29/2022	00:07	-132.588	47.090	0	2.10	0	15.3760	0	32.2910	0	23.804	0	2.083	0	238.2	4	95.1	4	-1E+10	1	-1E+10	1	-1E+10	1	-1E+10	1	-1E+10	1	-1E+10	1
4902549	80	C	10/29/2022	00:07	-132.588	47.090	0	2.90	0	15.3760	0	32.2920	0	23.805	0	2.876	0	238.4	4	95.1	4	-1E+10	1	-1E+10	1	-1E+10	1	-1E+10	1	-1E+10	1	-1E+10	1
4902549	80	C	10/29/2022	00:07	-132.588	47.090	0	4.20	0	15.3770	0	32.2930	0	23.805	0	4.165	0	238.3	4	95.1	4	-1E+10	1	-1E+10	1	-1E+10	1	-1E+10	1	-1E+10	1	-1E+10	1
4902549	80	C	10/29/2022	00:07	-132.588	47.090	0	5.00	0	15.3760	0	32.2950	0	23.807	0	4.958	0	238.3	4	95.1	4	-1E+10	1	-1E+10	1	-1E+10	1	-1E+10	1	-1E+10	1	-1E+10	1
4902549	80	C	10/29/2022	00:07	-132.588	47.090	0	5.70	0	15.3760	0	32.2950	0	23.807	0	5.653	0	238.3	4	95.1	4	-1E+10	1	-1E+10	1	-1E+10	1	-1E+10	1	-1E+10	1	-1E+10	1
4902549	80	C	10/29/2022	00:07	-132.588	47.090	0	7.00	0	15.3760	0	32.2950	0	23.807	0	6.942	0	238.2	4	95.0	4	-1E+10	1	-1E+10	1	-1E+10	1	-1E+10	1	-1E+10	1	-1E+10	1
4902549	80	C	10/29/2022	00:07	-132.588	47.090	0	7.90	0	15.3760	0	32.2950	0	23.807	0	7.834	0	238.2	4	95.1	4	-1E+10	1	-1E+10	1	-1E+10	1	-1E+10	1	-1E+10	1	-1E+10	1
4902549	80	C	10/29/2022	00:07	-132.588	47.090	0	8.90	0	15.3760	0	32.2940	0	23.806	0	8.826	0	238.2	4	95.0	4	-1E+10	1	-1E+10	1	-1E+10	1	-1E+10	1	-1E+10	1	-1E+10	1
4902549	80	C	10/29/2022	00:07	-132.588	47.090	0	10.10	0	15.3770	0	32.2950	0	23.807	0	10.016	0	238.1	4	95.0	4	-1E+10	1	-1E+10	1	-1E+10	1	-1E+10	1	-1E+10	1	-1E+10	1
4902549	80	C	10/29/2022	00:07	-132.588	47.090	0	10.80	0	15.3770	0	32.2950	0	23.807	0	10.710	0	238.2	4	95.0	4	-1E+10	1	-1E+10	1	-1E+10	1	-1E+10	1	-1E+10	1	-1E+10	1
4902549	80	C	10/29/2022	00:07	-132.588	47.090	0	12.00	0	15.3770	0	32.2950	0	23.807	0	11.900	0	238.1	4	95.0	4	-1E+10	1	-1E+10	1	-1E+10	1	-1E+10	1	-1E+10	1	-1E+10	1
4902549	80	C	10/29/2022	00:07	-132.588	47.090	0	13.40	0	15.3770	0	32.2950	0	23.807	0	13.288	0	238.2	4	95.0	4	-1E+10	1	-1E+10	1	-1E+10	1	-1E+10	1	-1E+10	1	-1E+10	1
4902549	80	C	10/29/2022	00:07	-132.588	47.090	0	14.00	0	15.3770	0	32.2950	0	23.807	0	13.883	0	238.1	4	95.0	4	-1E+10	1	-1E+10	1	-1E+10	1	-1E+10	1	-1E+10	1	-1E+10	1
4902549	80	C	10/29/2022	00:07	-132.588	47.090	0	14.80	0	15.3770	0	32.2950	0	23.807	0	14.677	0	238.2	4	95.0	4	-1E+10	1	-1E+10	1	-1E+10	1	-1E+10	1	-1E+10	1	-1E+10	1
4902549	80	C	10/29/2022	00:07	-132.588	47.090	0	16.00	0	15.3770	0	32.2950	0	23.807	0	15.866	0	238.1	4	95.0	4	-1E+10	1	-1E+10	1	-1E+10	1	-1E+10	1	-1E+10	1	-1E+10	1
4902549	80	C	10/29/2022	00:07	-132.588	47.090	0	17.10	0	15.3770	0	32.2950	0	23.807	0	16.957	0	238.2	4	95.0	4	-1E+10	1	-1E+10	1	-1E+10	1	-1E+10	1	-1E+10	1	-1E+10	1
4902549	80	C	10/29/2022	00:07	-132.588	47.090	0	17.80	0	15.3770	0	32.2950	0	23.807	0	17.651	0	238.1	4	95.0	4	-1E+10	1	-1E+10	1	-1E+10	1	-1E+10	1	-1E+10	1	-1E+10	1
4902549	80	C	10/29/2022	00:07	-132.588	47.090	0	18.80	0	15.3780	0	32.2950	0	23.807	0	18.643	0	238.1	4	95.0	4	-1E+10	1	-1E+10	1	-1E+10	1	-1E+10	1	-1E+10	1	-1E+10	1
4902549	80	C	10/29/2022	00:07	-132.588	47.090	0	20.10	0	15.3770	0	32.2950	0	23.807	0	19.932	0	238.1	4	95.0	4	-1E+10	1	-1E+10	1	-1E+10	1	-1E+10	1	-1E+10	1	-1E+10	1
4902549	80	C	10/29/2022	00:07	-132.588	47.090	0	21.00	0	15.3770	0	32.2950	0	23.807	0	20.824	0	238.0	4	95.0	4	-1E+10	1	-1E+10	1	-1E+10	1	-1E+10	1	-1E+10	1	-1E+10	1
4902549	80	C	10/29/2022	00:07	-132.588	47.090	0	21.80	0	15.3770	0	32.2940	0	23.806	0	21.618	0	238.2	4	95.0	4	-1E+10	1	-1E+10	1	-1E+10	1	-1E+10	1	-1E+10	1	-1E+10	1
4902549	80	C	10/29/2022	00:07	-132.588	47.090	0	22.80	0	15.3780	0	32.2940	0	23.806	0	22.609	0	238.2	4	95.0	4	-1E+10	1	-1E+10	1	-1E+10	1	-1E+10	1	-1E+10	1	-1E+10	1
4902549	80	C	10/29/2022	00:07	-132.588	47.090	0	23.90	0	15.3780	0	32.2950	0	23.807	0	23.700	0	238.1	4	95.0	4	-1E+10	1	-1E+10	1	-1E+10	1	-1E+10	1	-1E+10	1	-1E+10	1
4902549	80	C	10/29/2022	00:07	-132.588	47.090	0	24.80	0	15.3780	0	32.2950	0	23.807	0	24.592	0	238.1	4	95.0	4	-1E+10	1	-1E+10	1	-1E+10	1	-1E+10	1	-1E+10	1	-1E+10	1
4902549	80	C	10/29/2022	00:07	-132.588	47.090	0	25.80	0	15.3780	0	32.2950	0	23.807	0	25.584	0	238.1	4	95.0	4	-1E+10	1	-1E+10	1	-1E+10	1	-1E+10	1	-1E+10	1	-1E+10	1
4902549	80	C	10/29/2022	00:07	-132.588	47.090	0	26.80	0	15.3780	0	32.2950	0	23.807	0	26.576	0	238.0	4	95.0	4	-1E+10	1	-1E+10	1	-1E+10	1	-1E+10	1	-1E+10	1	-1E+10	1
4902549	80	C	10/29/2022	00:07	-132.588	47.090	0	27.80	0	15.3780	0	32.2940	0	23.806	0	27.567	0	238.1	4	95.0	4	-1E+10	1	-1E+10	1	-1E+10	1	-1E+10	1	-1E+10	1	-1E+10	1
4902549	80	C	10/29/2022	00:07	-132.588	47.090	0	29.10	0	15.3780	0	32.2950	0	23.807	0	28.856	0	238.0	4	95.0	4	-1E+10	1	-1E+10	1	-1E+10	1	-1E+10	1	-1E+10	1	-1E+10	1
4902549	80	C	10/29/2022	00:07	-132.588	47.090	0	30.00	0	15.3790	0	32.2950	0	23.807	0	29.749	0	238.0	4	95.0	4	-1E+10	1	-1E+10	1	-1E+10	1	-1E+10	1	-1E+10	1	-1E+10	1
4902549	80	C	10/29/2022	00:07	-132.588	47.090	0	30.80	0	15.3790	0	32.2950	0	23.807	0	30.542	0	238.1	4	95.0	4	-1E+10	1	-1E+10	1	-1E+10	1	-1E+10	1	-1E+10	1	-1E+10	1
4902549	80	C	10/29/2022	00:07	-132.588	47.090	0	32.10	0	15.3790	0	32.2950	0	23.807	0	31.831	0	238.0	4	95.0	4	-1E+10	1	-1E+10	1	-1E+10	1	-1E+10	1	-1E+10	1	-1E+10	1
4902549	80	C	10/29/2022	00:07	-132.588	47.090	0	33.00	0	15.3790	0	32.2950	0	23.807	0	32.723	0	238.1	4	95.0	4	-1E+10	1	-1E+10	1	-1E+10	1	-1E+10	1	-1E+10	1	-1E+10	1
4902549	80	C	10/29/2022	00:07	-132.588	47.090	0	33.80	0	15.3790	0	32.2940	0	23.806	0	33.516	0	238.1	4	95.0	4	-1E+10	1	-1E+10	1	-1E+10	1	-1E+10	1	-1E+10	1	-1E+10	1
4902549	80	C	10/29/2022	00:07	-132.588	47.090	0	34.70	0	15.3790	0	32.2950	0	23.807	0	34.409	0	238.0	4	95.0	4	-1E+10	1	-1E+10	1	-1E+10	1	-1E+10	1	-1E+10	1	-1E+10	1
4902549	80	C	10/29/2022	00:07	-132.588	47.090	0	35.90	0	15.3790	0	32.2950	0	23.807	0	35.599	0	238.0	4	95.0	4	-1E+10	1	-1E+10	1	-1E+10	1	-1E+10	1	-1E+10	1	-1E+10	1
4902549	80	C	10/29/2022	00:07	-132.588	47.090	0	37.00	0	15.3790	0	32.2950	0	23.807	0	36.689	0	238.0	4	95.0	4	-1E+10	1	-1E+10	1	-1E+10	1	-1E+10	1	-1E+10	1	-1E+10	1
4902549	80	C	10/29/2022	00:07	-132.588	47.090	0	37.80	0	15.3790	0	32.2950	0	23.807	0	37.483	0	238.1	4	95.0	4	-1E+10	1	-1E+10	1	-1E+10	1	-1E+10	1	-1E+10	1	-1E+10	1
4902549	80	C	10/29/2022	00:07	-132.588	47.090	0	38.90	0	15.3790	0	32.2950	0	23.807	0	38.573	0	238.0	4	95.0	4	-1E+10	1	-1E+10	1	-1E+10	1	-1E+10	1	-1E+10	1	-1E+10	1
4902549	80	C	10/29/2022	00:07	-132.588	47.090	0	39.90	0	15.3800	0	32.2950	0	23.807	0	39.565	0	238.1	4	95.0	4	-1E+10	1	-1E+10	1	-1E+10	1	-1E+10	1	-1E+10	1	-1E+10	1
4902549	80	C	10/29/2022	00:07	-132.588	47.090	0	41.00	0	15.3800	0	32.2950	0	23.807	0	40.655	0	238.1	4	95.0	4	-1E+10	1	-1E+10	1	-1E+10	1	-1E+10	1	-1E+10	1	-1E+10	1
4902549	80	C	10/29/2022	00:07	-132.588	47.090	0	42.30	0	15.3810	0	32.2950	0	23.807	0	41.944	0	238.1	4	95.0	4	-1E+10	1	-1E+10	1	-1E+10	1	-1E+10	1	-1E+10	1	-1E+10	1
4902549	80	C	10/29/2022	00:07	-132.588	47.090	0	43.00	0	15.3810	0	32.2950	0	23.807	0	42.638	0	238.0	4	95.0	4	-1E+10	1	-1E+10	1	-1E+10	1	-1E+10	1	-1E+10	1	-1E+10	1
4902549	80	C	10/29/2022	00:07	-132.588	47.090	0	44.00	0	15.3810	0	32.2950	0	23.807	0	43.630	0	238.1	4	95.0	4	-1E+10	1	-1E+10	1	-1E+10	1	-1E+10	1	-1E+10	1	-1E+10	1
4902549	80	C	10/29/2022	00:07	-132.588	47.090	0	45.00	0	15.3810	0	32.2950	0	23.807	0	44.621	0	238.1	4	95.0	4	-1E+10	1	-1E+10	1	-1E+10	1	-1E+10	1	-1E+10	1	-1E+10	1
4902549	80	C	10/29/2022	00:07	-132.588	47.090	0	46.10	0	15.3810	0	32.2950	0	23.807	0	45.712	0	238.1	4	95.0	4	-1E+10	1	-1E+10	1	-1E+10	1	-1E+10	1	-1E+10	1	-1E+10	1
4902549	80	C	10/29/2022	00:07	-132.588	47.090	0	47.30	0	15.3810	0	32.2950	0	23.807	0	46.902	0	238.3	4	95.1	4	-1E+10	1	-1E+10	1	-1E+10	1	-1E+10	1	-1E+10	1	-1E+10	1
4902549	80	C	10/29/2022	00:07	-132.588	47.090	0	48.20	0	15.3810	0	32.2950	0	23.807	0	47.794	0	238.4	4	95.1	4	-1E+10	1	-1E+10	1	-1E+10	1	-1E+10	1	-1E+10	1	-1E+10	1
4902549	80	C	10/29/2022	00:07	-132.588	47.090	0	48.90	0	15.3820	0	32.2950	0	23.807	0	48.488	0	238.5	4	95.2	4	-1E+10	1	-1E+10	1	-1E+10	1	-1E+10	1	-1E+10	1	-1E+10	1
4902549	80	C	10/29/2022	00:07	-132.588	47.090	0	50.00	0	15.3820	0	32.2940	0	23.806	0	49.579	0	238.6	4	95.2	4	-1E+10	1	-1E+10	1	-1E+10	1	-1E+10	1	-1E+10	1	-1E+10	1
4902549	80	C	10/29/2022	00:07	-132.588	47.090	0	51.10	0	15.3820	0	32.2930	0	23.806	0	50.669	0	238.9	4	95.3	4	-1E+10	1	-1E+10	1	-1E+10	1	-1E+10	1	-1E+10	1	-1E+10	1
4902549	80	C	10/29/2022	00:07	-132.588	47.090	0	52.10	0	15.3570	0	32.2930	0	23.811	0	51.661	0	239.5	4	95.5	4	-1E+10	1	-1E+10	1	-1E+10	1	-1E+10	1	-1E+10	1	-1E+10	1
4902549	80	C	10/29/2022	00:07	-132.588	47.090	0	53.00	0	15.1600	0	32.2680	0	23.835	0	52.553	0	244.6	4	97.2	4	-1E+10	1	-1E+10	1	-1E+10	1	-1E+10	1	-1E+10	1	-1E+10	1
4902549	80	C	10/29/2022	00:07	-132.588	47.090	0	54.00	0	11.6540	0	32.3250	0	24.578	0	53.544	0	262.1	4	97.0	4	-1E+10	1	-1E+10	1	-1E+10	1	-1E+10	1	-1E+10	1	-1E+10	1
4902549	80	C	10/29/2022	00:07	-132.588	47.090	0	55.30	0	11.1250	0	32.2820	0	24.639	0	54.833	0	264.5	4	96.8	4	-1E+10	1	-1E+10	1	-1E+10	1	-1E+10	1	-1E+10	1	-1E+10	1
4902549	80	C	10/29/2022	00:07	-132.588	47.090	0	55.90	0	10.9680	0	32.2840	0	24.668	0	55.428	0	264.1	4	96.3	4	-1E+10	1	-1E+10	1	-1E+10	1	-1E+10	1	-1E+10	1	-1E+10	1
4902549	80	C	10/29/2022	00:07	-132.588	47.090	0	57.10	0	10.7100	0	32.2830	0	24.713	0	56.618	0	262.8	4	95.3	4	-1E+10	1	-1E+10	1	-1E+10	1	-1E+10	1	-1E+10	1	-1E+10	1
4902549	80	C	10/29/2022	00:07	-132.588	47.090	0	57.90	0	10.4250	0	32.2690	0	24.750	0	57.411	0	262.4	4	94.6	4	-1E+10	1	-1E+10	1	-1E+10	1	-1E+10	1	-1E+10	1	-1E+10	1
4902549	80	C	10/29/2022	00:07	-132.588	47.090	0	58.90	0	10.2330	0	32.2710	0	24.784	0	58.402	0	261.9	4	94.0	4	-1E+10	1	-1E+10	1	-1E+10	1	-1E+10	1	-1E+10	1	-1E+10	1
4902549	80	C	10/29/2022	00:07	-132.588	47.090	0	59.90	0	10.0890	0	32.2740	0	24.811	0	59.394	0	261.2	4	93.4	4	-1E+10	1	-1E+10	1	-1E+10	1	-1E+10	1	-1E+10	1	-1E+10	1
4902549	80	C	10/29/2022	00:07	-132.588	47.090	0	60.90	0	9.9230	0	32.2760	0	24.840	0	60.385	0	261.0	4	93.1	4	-1E+10	1	-1E+10	1	-1E+10	1	-1E+10	1	-1E+10	1	-1E+10	1
4902549	80	C	10/29/2022	00:07	-132.588	47.090	0	62.00	0	9.7560	0	32.2830	0	24.873	0	61.476	0	261.1	4	92.7	4	-1E+10	1	-1E+10	1	-1E+10	1	-1E+10	1	-1E+10	1	-1E+10	1
4902549	80	C	10/29/2022	00:07	-132.588	47.090	0	63.10	0	9.6550	0	32.2850	0	24.891	0	62.566	0	261.0	4	92.5	4	-1E+10	1	-1E+10	1	-1E+10	1	-1E+10	1	-1E+10	1	-1E+10	1
4902549	80	C	10/29/2022	00:07	-132.588	47.090	0	64.00	0	9.6220	0	32.2850	0	24.896	0	63.458	0	260.5	4	92.3	4	-1E+10	1	-1E+10	1	-1E+10	1	-1E+10	1	-1E+10	1	-1E+10	1
4902549	80	C	10/29/2022	00:07	-132.588	47.090	0	64.80	0	9.5890	0	32.2860	0	24.902	0	64.252	0	260.3	4	92.1	4	-1E+10	1	-1E+10	1	-1E+10	1	-1E+10	1	-1E+10	1	-1E+10	1
4902549	80	C	10/29/2022	00:07	-132.588	47.090	0	66.10	0	9.5170	0	32.2880	0	24.915	0	65.540	0	259.8	4	91.8	4	-1E+10	1	-1E+10	1	-1E+10	1	-1E+10	1	-1E+10	1	-1E+10	1
4902549	80	C	10/29/2022	00:07	-132.588	47.090	0	67.00	0	9.4970	0	32.2840	0	24.915	0	66.433	0	259.4	4	91.6	4	-1E+10	1	-1E+10	1	-1E+10	1	-1E+10	1	-1E+10	1	-1E+10	1
4902549	80	C	10/29/2022	00:07	-132.588	47.090	0	68.20	0	9.4030	0	32.2870	0	24.933	0	67.622	0	259.3	4	91.4	4	-1E+10	1	-1E+10	1	-1E+10	1	-1E+10	1	-1E+10	1	-1E+10	1
4902549	80	C	10/29/2022	00:07	-132.588	47.090	0	68.90	0	9.3710	0	32.2890	0	24.939	0	68.316	0	258.9	4	91.2	4	-1E+10	1	-1E+10	1	-1E+10	1	-1E+10	1	-1E+10	1	-1E+10	1
4902549	80	C	10/29/2022	00:07	-132.588	47.090	0	70.00	0	9.3170	0	32.2890	0	24.948	0	69.407	0	258.8	4	91.1	4	-1E+10	1	-1E+10	1	-1E+10	1	-1E+10	1	-1E+10	1	-1E+10	1
4902549	80	C	10/29/2022	00:07	-132.588	47.090	0	71.00	0	9.2890	0	32.2910	0	24.954	0	70.398	0	258.6	4	90.9	4	-1E+10	1	-1E+10	1	-1E+10	1	-1E+10	1	-1E+10	1	-1E+10	1
4902549	80	C	10/29/2022	00:07	-132.588	47.090	0	72.00	0	9.2560	0	32.2930	0	24.961	0	71.389	0	258.1	4	90.7	4	-1E+10	1	-1E+10	1	-1E+10	1	-1E+10	1	-1E+10	1	-1E+10	1
4902549	80	C	10/29/2022	00:07	-132.588	47.090	0	73.00	0	9.2500	0	32.2940	0	24.962	0	72.381	0	257.6	4	90.5	4	-1E+10	1	-1E+10	1	-1E+10	1	-1E+10	1	-1E+10	1	-1E+10	1
4902549	80	C	10/29/2022	00:07	-132.588	47.090	0	74.10	0	9.2060	0	32.2990	0	24.973	0	73.471	0	257.2	4	90.3	4	-1E+10	1	-1E+10	1	-1E+10	1	-1E+10	1	-1E+10	1	-1E+10	1
4902549	80	C	10/29/2022	00:07	-132.588	47.090	0	74.90	0	9.1560	0	32.3010	0	24.983	0	74.264	0	256.9	4	90.1	4	-1E+10	1	-1E+10	1	-1E+10	1	-1E+10	1	-1E+10	1	-1E+10	1
4902549	80	C	10/29/2022	00:07	-132.588	47.090	0	75.70	0	9.1090	0	32.3030	0	24.991	0	75.057	0	256.8	4	90.0	4	-1E+10	1	-1E+10	1	-1E+10	1	-1E+10	1	-1E+10	1	-1E+10	1
4902549	80	C	10/29/2022	00:07	-132.588	47.090	0	76.80	0	9.0730	0	32.3050	0	24.999	0	76.148	0	256.2	4	89.7	4	-1E+10	1	-1E+10	1	-1E+10	1	-1E+10	1	-1E+10	1	-1E+10	1
4902549	80	C	10/29/2022	00:07	-132.588	47.090	0	78.00	0	9.0190	0	32.3040	0	25.006	0	77.337	0	255.8	4	89.4	4	-1E+10	1	-1E+10	1	-1E+10	1	-1E+10	1	-1E+10	1	-1E+10	1
4902549	80	C	10/29/2022	00:07	-132.588	47.090	0	79.10	0	8.9600	0	32.3100	0	25.020	0	78.428	0	255.3	4	89.2	4	-1E+10	1	-1E+10	1	-1E+10	1	-1E+10	1	-1E+10	1	-1E+10	1
4902549	80	C	10/29/2022	00:07	-132.588	47.090	0	79.90	0	8.8350	0	32.3190	0	25.046	0	79.221	0	255.7	4	89.0	4	-1E+10	1	-1E+10	1	-1E+10	1	-1E+10	1	-1E+10	1	-1E+10	1
4902549	80	C	10/29/2022	00:07	-132.588	47.090	0	80.80	0	8.7830	0	32.3230	0	25.057	0	80.113	0	255.6	4	88.9	4	-1E+10	1	-1E+10	1	-1E+10	1	-1E+10	1	-1E+10	1	-1E+10	1
4902549	80	C	10/29/2022	00:07	-132.588	47.090	0	81.90	0	8.7380	0	32.3330	0	25.072	0	81.203	0	255.4	4	88.8	4	-1E+10	1	-1E+10	1	-1E+10	1	-1E+10	1	-1E+10	1	-1E+10	1
4902549	80	C	10/29/2022	00:07	-132.588	47.090	0	83.10	0	8.7070	0	32.3410	0	25.083	0	82.393	0	261.6	4	90.8	4	-1E+10	1	-1E+10	1	-1E+10	1	-1E+10	1	-1E+10	1	-1E+10	1
4902549	80	C	10/29/2022	00:07	-132.588	47.090	0	84.10	0	8.7100	0	32.3430	0	25.084	0	83.384	0	261.1	4	90.7	4	-1E+10	1	-1E+10	1	-1E+10	1	-1E+10	1	-1E+10	1	-1E+10	1
4902549	80	C	10/29/2022	00:07	-132.588	47.090	0	85.10	0	8.7110	0	32.3490	0	25.089	0	84.376	0	260.6	4	90.5	4	-1E+10	1	-1E+10	1	-1E+10	1	-1E+10	1	-1E+10	1	-1E+10	1
4902549	80	C	10/29/2022	00:07	-132.588	47.090	0	86.10	0	8.6800	0	32.3580	0	25.101	0	85.367	0	260.2	4	90.3	4	-1E+10	1	-1E+10	1	-1E+10	1	-1E+10	1	-1E+10	1	-1E+10	1
4902549	80	C	10/29/2022	00:07	-132.588	47.090	0	87.10	0	8.5510	0	32.3630	0	25.124	0	86.358	0	260.3	4	90.1	4	-1E+10	1	-1E+10	1	-1E+10	1	-1E+10	1	-1E+10	1	-1E+10	1
4902549	80	C	10/29/2022	00:07	-132.588	47.090	0	88.10	0	8.4770	0	32.3650	0	25.137	0	87.349	0	260.2	4	89.9	4	-1E+10	1	-1E+10	1	-1E+10	1	-1E+10	1	-1E+10	1	-1E+10	1
4902549	80	C	10/29/2022	00:07	-132.588	47.090	0	89.00	0	8.4480	0	32.3600	0	25.137	0	88.242	0	259.9	4	89.7	4	-1E+10	1	-1E+10	1	-1E+10	1	-1E+10	1	-1E+10	1	-1E+10	1
4902549	80	C	10/29/2022	00:07	-132.588	47.090	0	89.70	0	8.4020	0	32.3580	0	25.142	0	88.935	0	259.5	4	89.5	4	-1E+10	1	-1E+10	1	-1E+10	1	-1E+10	1	-1E+10	1	-1E+10	1
4902549	80	C	10/29/2022	00:07	-132.588	47.090	0	90.80	0	8.2920	0	32.3760	0	25.173	0	90.026	0	259.4	4	89.3	4	-1E+10	1	-1E+10	1	-1E+10	1	-1E+10	1	-1E+10	1	-1E+10	1
4902549	80	C	10/29/2022	00:07	-132.588	47.090	0	91.90	0	8.2220	0	32.3850	0	25.190	0	91.116	0	259.2	4	89.1	4	-1E+10	1	-1E+10	1	-1E+10	1	-1E+10	1	-1E+10	1	-1E+10	1
4902549	80	C	10/29/2022	00:07	-132.588	47.090	0	92.90	0	8.1980	0	32.3860	0	25.194	0	92.107	0	258.8	4	88.9	4	-1E+10	1	-1E+10	1	-1E+10	1	-1E+10	1	-1E+10	1	-1E+10	1
4902549	80	C	10/29/2022	00:07	-132.588	47.090	0	94.00	0	8.1860	0	32.3870	0	25.197	0	93.198	0	258.1	4	88.6	4	-1E+10	1	-1E+10	1	-1E+10	1	-1E+10	1	-1E+10	1	-1E+10	1
4902549	80	C	10/29/2022	00:07	-132.588	47.090	0	95.00	0	8.1720	0	32.3880	0	25.200	0	94.189	0	257.1	4	88.3	4	-1E+10	1	-1E+10	1	-1E+10	1	-1E+10	1	-1E+10	1	-1E+10	1
4902549	80	C	10/29/2022	00:07	-132.588	47.090	0	96.10	0	8.1110	0	32.3920	0	25.212	0	95.279	0	255.8	4	87.7	4	-1E+10	1	-1E+10	1	-1E+10	1	-1E+10	1	-1E+10	1	-1E+10	1
4902549	80	C	10/29/2022	00:07	-132.588	47.090	0	96.90	0	8.0940	0	32.4100	0	25.228	0	96.072	0	255.1	4	87.4	4	-1E+10	1	-1E+10	1	-1E+10	1	-1E+10	1	-1E+10	1	-1E+10	1
4902549	80	C	10/29/2022	00:07	-132.588	47.090	0	97.80	0	8.0790	0	32.4280	0	25.245	0	96.964	0	254.2	4	87.1	4	-1E+10	1	-1E+10	1	-1E+10	1	-1E+10	1	-1E+10	1	-1E+10	1
4902549	80	C	10/29/2022	00:07	-132.588	47.090	0	99.00	0	8.0190	0	32.4380	0	25.261	0	98.154	0	253.4	4	86.7	4	-1E+10	1	-1E+10	1	-1E+10	1	-1E+10	1	-1E+10	1	-1E+10	1
4902549	80	C	10/29/2022	00:07	-132.588	47.090	0	100.00	0	8.0000	0	32.4370	0	25.263	0	99.145	0	252.7	4	86.5	4	-1E+10	1	-1E+10	1	-1E+10	1	-1E+10	1	-1E+10	1	-1E+10	1
4902549	80	C	10/29/2022	00:07	-132.588	47.090	0	101.00	0	7.9920	0	32.4370	0	25.264	0	100.136	0	251.8	4	86.1	4	-1E+10	1	-1E+10	1	-1E+10	1	-1E+10	1	-1E+10	1	-1E+10	1
4902549	80	C	10/29/2022	00:07	-132.588	47.090	0	101.90	0	7.9880	0	32.4410	0	25.268	0	101.028	0	250.8	4	85.8	4	-1E+10	1	-1E+10	1	-1E+10	1	-1E+10	1	-1E+10	1	-1E+10	1
4902549	80	C	10/29/2022	00:07	-132.588	47.090	0	102.90	0	7.9380	0	32.4620	0	25.292	0	102.020	0	249.7	4	85.3	4	-1E+10	1	-1E+10	1	-1E+10	1	-1E+10	1	-1E+10	1	-1E+10	1
4902549	80	C	10/29/2022	00:07	-132.588	47.090	0	104.00	0	7.8940	0	32.4700	0	25.304	0	103.110	0	248.4	4	84.8	4	-1E+10	1	-1E+10	1	-1E+10	1	-1E+10	1	-1E+10	1	-1E+10	1
4902549	80	C	10/29/2022	00:07	-132.588	47.090	0	105.00	0	7.8760	0	32.4730	0	25.309	0	104.101	0	246.6	4	84.1	4	-1E+10	1	-1E+10	1	-1E+10	1	-1E+10	1	-1E+10	1	-1E+10	1
4902549	80	C	10/29/2022	00:07	-132.588	47.090	0	106.10	0	7.8500	0	32.4780	0	25.317	0	105.191	0	244.6	4	83.4	4	-1E+10	1	-1E+10	1	-1E+10	1	-1E+10	1	-1E+10	1	-1E+10	1
4902549	80	C	10/29/2022	00:07	-132.588	47.090	0	106.90	0	7.8290	0	32.4770	0	25.319	0	105.984	0	243.5	4	83.0	4	-1E+10	1	-1E+10	1	-1E+10	1	-1E+10	1	-1E+10	1	-1E+10	1
4902549	80	C	10/29/2022	00:07	-132.588	47.090	0	107.80	0	7.8170	0	32.4790	0	25.322	0	106.876	0	242.1	4	82.5	4	-1E+10	1	-1E+10	1	-1E+10	1	-1E+10	1	-1E+10	1	-1E+10	1
4902549	80	C	10/29/2022	00:07	-132.588	47.090	0	108.90	0	7.7500	0	32.5010	0	25.349	0	107.967	0	240.8	4	82.0	4	-1E+10	1	-1E+10	1	-1E+10	1	-1E+10	1	-1E+10	1	-1E+10	1
4902549	80	C	10/29/2022	00:07	-132.588	47.090	0	110.10	0	7.7270	0	32.5140	0	25.363	0	109.156	0	239.4	4	81.4	4	-1E+10	1	-1E+10	1	-1E+10	1	-1E+10	1	-1E+10	1	-1E+10	1
4902549	80	C	10/29/2022	00:07	-132.588	47.090	0	111.00	0	7.7160	0	32.5250	0	25.373	0	110.048	0	238.3	4	81.1	4	-1E+10	1	-1E+10	1	-1E+10	1	-1E+10	1	-1E+10	1	-1E+10	1
4902549	80	C	10/29/2022	00:07	-132.588	47.090	0	111.70	0	7.7040	0	32.5360	0	25.383	0	110.742	0	237.4	4	80.7	4	-1E+10	1	-1E+10	1	-1E+10	1	-1E+10	1	-1E+10	1	-1E+10	1
4902549	80	C	10/29/2022	00:07	-132.588	47.090	0	112.80	0	7.6880	0	32.5490	0	25.396	0	111.832	0	236.2	4	80.3	4	-1E+10	1	-1E+10	1	-1E+10	1	-1E+10	1	-1E+10	1	-1E+10	1
4902549	80	C	10/29/2022	00:07	-132.588	47.090	0	113.90	0	7.6710	0	32.5670	0	25.412	0	112.922	0	235.2	4	80.0	4	-1E+10	1	-1E+10	1	-1E+10	1	-1E+10	1	-1E+10	1	-1E+10	1
4902549	80	C	10/29/2022	00:07	-132.588	47.090	0	115.00	0	7.6410	0	32.5940	0	25.438	0	114.013	0	234.5	4	79.7	4	-1E+10	1	-1E+10	1	-1E+10	1	-1E+10	1	-1E+10	1	-1E+10	1
4902549	80	C	10/29/2022	00:07	-132.588	47.090	0	116.30	0	7.6260	0	32.6070	0	25.450	0	115.301	0	233.5	4	79.3	4	-1E+10	1	-1E+10	1	-1E+10	1	-1E+10	1	-1E+10	1	-1E+10	1
4902549	80	C	10/29/2022	00:07	-132.588	47.090	0	117.00	0	7.6080	0	32.6190	0	25.462	0	115.995	0	232.9	4	79.1	4	-1E+10	1	-1E+10	1	-1E+10	1	-1E+10	1	-1E+10	1	-1E+10	1
4902549	80	C	10/29/2022	00:07	-132.588	47.090	0	118.00	0	7.5630	0	32.6430	0	25.487	0	116.986	0	232.0	4	78.7	4	-1E+10	1	-1E+10	1	-1E+10	1	-1E+10	1	-1E+10	1	-1E+10	1
4902549	80	C	10/29/2022	00:07	-132.588	47.090	0	119.10	0	7.5060	0	32.6750	0	25.520	0	118.076	0	230.0	4	77.9	4	-1E+10	1	-1E+10	1	-1E+10	1	-1E+10	1	-1E+10	1	-1E+10	1
4902549	80	C	10/29/2022	00:07	-132.588	47.090	0	120.10	0	7.4950	0	32.6950	0	25.538	0	119.067	0	226.3	4	76.7	4	-1E+10	1	-1E+10	1	-1E+10	1	-1E+10	1	-1E+10	1	-1E+10	1
4902549	80	C	10/29/2022	00:07	-132.588	47.090	0	121.10	0	7.4810	0	32.7240	0	25.562	0	120.059	0	220.7	4	74.8	4	-1E+10	1	-1E+10	1	-1E+10	1	-1E+10	1	-1E+10	1	-1E+10	1
4902549	80	C	10/29/2022	00:07	-132.588	47.090	0	122.00	0	7.4670	0	32.7530	0	25.587	0	120.951	0	218.0	4	73.9	4	-1E+10	1	-1E+10	1	-1E+10	1	-1E+10	1	-1E+10	1	-1E+10	1
4902549	80	C	10/29/2022	00:07	-132.588	47.090	0	123.10	0	7.4590	0	32.7690	0	25.601	0	122.041	0	215.0	4	72.8	4	-1E+10	1	-1E+10	1	-1E+10	1	-1E+10	1	-1E+10	1	-1E+10	1
4902549	80	C	10/29/2022	00:07	-132.588	47.090	0	124.00	0	7.4450	0	32.7960	0	25.624	0	122.933	0	213.1	4	72.2	4	-1E+10	1	-1E+10	1	-1E+10	1	-1E+10	1	-1E+10	1	-1E+10	1
4902549	80	C	10/29/2022	00:07	-132.588	47.090	0	125.20	0	7.4310	0	32.8320	0	25.654	0	124.122	0	211.2	4	71.5	4	-1E+10	1	-1E+10	1	-1E+10	1	-1E+10	1	-1E+10	1	-1E+10	1
4902549	80	C	10/29/2022	00:07	-132.588	47.090	0	126.00	0	7.4280	0	32.8340	0	25.656	0	124.915	0	209.7	4	71.0	4	-1E+10	1	-1E+10	1	-1E+10	1	-1E+10	1	-1E+10	1	-1E+10	1
4902549	80	C	10/29/2022	00:07	-132.588	47.090	0	127.10	0	7.4200	0	32.8450	0	25.666	0	126.005	0	207.5	4	70.3	4	-1E+10	1	-1E+10	1	-1E+10	1	-1E+10	1	-1E+10	1	-1E+10	1
4902549	80	C	10/29/2022	00:07	-132.588	47.090	0	128.10	0	7.3990	0	32.8770	0	25.694	0	126.996	0	205.3	4	69.5	4	-1E+10	1	-1E+10	1	-1E+10	1	-1E+10	1	-1E+10	1	-1E+10	1
4902549	80	C	10/29/2022	00:07	-132.588	47.090	0	129.00	0	7.3860	0	32.9000	0	25.714	0	127.888	0	203.7	4	69.0	4	-1E+10	1	-1E+10	1	-1E+10	1	-1E+10	1	-1E+10	1	-1E+10	1
4902549	80	C	10/29/2022	00:07	-132.588	47.090	0	129.90	0	7.3840	0	32.9110	0	25.723	0	128.780	0	201.9	4	68.3	4	-1E+10	1	-1E+10	1	-1E+10	1	-1E+10	1	-1E+10	1	-1E+10	1
4902549	80	C	10/29/2022	00:07	-132.588	47.090	0	130.80	0	7.3820	0	32.9190	0	25.730	0	129.672	0	200.1	4	67.7	4	-1E+10	1	-1E+10	1	-1E+10	1	-1E+10	1	-1E+10	1	-1E+10	1
4902549	80	C	10/29/2022	00:07	-132.588	47.090	0	131.80	0	7.3690	0	32.9400	0	25.748	0	130.663	0	198.3	4	67.1	4	-1E+10	1	-1E+10	1	-1E+10	1	-1E+10	1	-1E+10	1	-1E+10	1
4902549	80	C	10/29/2022	00:07	-132.588	47.090	0	133.00	0	7.3590	0	32.9550	0	25.761	0	131.852	0	195.4	4	66.1	4	-1E+10	1	-1E+10	1	-1E+10	1	-1E+10	1	-1E+10	1	-1E+10	1
4902549	80	C	10/29/2022	00:07	-132.588	47.090	0	134.00	0	7.3590	0	32.9680	0	25.771	0	132.844	0	193.1	4	65.4	4	-1E+10	1	-1E+10	1	-1E+10	1	-1E+10	1	-1E+10	1	-1E+10	1
4902549	80	C	10/29/2022	00:07	-132.588	47.090	0	134.90	0	7.3390	0	33.0010	0	25.800	0	133.735	0	190.7	4	64.5	4	-1E+10	1	-1E+10	1	-1E+10	1	-1E+10	1	-1E+10	1	-1E+10	1
4902549	80	C	10/29/2022	00:07	-132.588	47.090	0	136.00	0	7.3270	0	33.0290	0	25.824	0	134.826	0	188.3	4	63.7	4	-1E+10	1	-1E+10	1	-1E+10	1	-1E+10	1	-1E+10	1	-1E+10	1
4902549	80	C	10/29/2022	00:07	-132.588	47.090	0	137.00	0	7.3370	0	33.0880	0	25.869	0	135.817	0	185.8	4	62.9	4	-1E+10	1	-1E+10	1	-1E+10	1	-1E+10	1	-1E+10	1	-1E+10	1
4902549	80	C	10/29/2022	00:07	-132.588	47.090	0	138.10	0	7.3420	0	33.1070	0	25.883	0	136.907	0	183.5	4	62.2	4	-1E+10	1	-1E+10	1	-1E+10	1	-1E+10	1	-1E+10	1	-1E+10	1
4902549	80	C	10/29/2022	00:07	-132.588	47.090	0	138.80	0	7.3430	0	33.1260	0	25.898	0	137.601	0	182.2	4	61.7	4	-1E+10	1	-1E+10	1	-1E+10	1	-1E+10	1	-1E+10	1	-1E+10	1
4902549	80	C	10/29/2022	00:07	-132.588	47.090	0	139.80	0	7.3360	0	33.1500	0	25.918	0	138.592	0	180.2	4	61.0	4	-1E+10	1	-1E+10	1	-1E+10	1	-1E+10	1	-1E+10	1	-1E+10	1
4902549	80	C	10/29/2022	00:07	-132.588	47.090	0	140.90	0	7.3340	0	33.1820	0	25.943	0	139.682	0	178.1	4	60.4	4	-1E+10	1	-1E+10	1	-1E+10	1	-1E+10	1	-1E+10	1	-1E+10	1
4902549	80	C	10/29/2022	00:07	-132.588	47.090	0	142.00	0	7.3320	0	33.2460	0	25.994	0	140.772	0	176.6	4	59.9	4	-1E+10	1	-1E+10	1	-1E+10	1	-1E+10	1	-1E+10	1	-1E+10	1
4902549	80	C	10/29/2022	00:07	-132.588	47.090	0	143.20	0	7.3050	0	33.2970	0	26.038	0	141.961	0	175.2	4	59.4	4	-1E+10	1	-1E+10	1	-1E+10	1	-1E+10	1	-1E+10	1	-1E+10	1
4902549	80	C	10/29/2022	00:07	-132.588	47.090	0	144.00	0	7.2910	0	33.3180	0	26.056	0	142.754	0	174.1	4	59.0	4	-1E+10	1	-1E+10	1	-1E+10	1	-1E+10	1	-1E+10	1	-1E+10	1
4902549	80	C	10/29/2022	00:07	-132.588	47.090	0	144.70	0	7.2870	0	33.3680	0	26.096	0	143.447	0	173.0	4	58.6	4	-1E+10	1	-1E+10	1	-1E+10	1	-1E+10	1	-1E+10	1	-1E+10	1
4902549	80	C	10/29/2022	00:07	-132.588	47.090	0	145.90	0	7.2760	0	33.3980	0	26.121	0	144.637	0	171.4	4	58.1	4	-1E+10	1	-1E+10	1	-1E+10	1	-1E+10	1	-1E+10	1	-1E+10	1
4902549	80	C	10/29/2022	00:07	-132.588	47.090	0	147.00	0	7.2720	0	33.4030	0	26.126	0	145.727	0	169.7	4	57.5	4	-1E+10	1	-1E+10	1	-1E+10	1	-1E+10	1	-1E+10	1	-1E+10	1
4902549	80	C	10/29/2022	00:07	-132.588	47.090	0	147.80	0	7.2690	0	33.4060	0	26.128	0	146.520	0	168.5	4	57.1	4	-1E+10	1	-1E+10	1	-1E+10	1	-1E+10	1	-1E+10	1	-1E+10	1
4902549	80	C	10/29/2022	00:07	-132.588	47.090	0	148.80	0	7.2630	0	33.4140	0	26.136	0	147.511	0	166.3	4	56.4	4	-1E+10	1	-1E+10	1	-1E+10	1	-1E+10	1	-1E+10	1	-1E+10	1
4902549	80	C	10/29/2022	00:07	-132.588	47.090	0	150.00	0	7.2590	0	33.4390	0	26.156	0	148.700	0	163.9	4	55.6	4	-1E+10	1	-1E+10	1	-1E+10	1	-1E+10	1	-1E+10	1	-1E+10	1
4902549	80	C	10/29/2022	00:07	-132.588	47.090	0	150.70	0	7.2580	0	33.4710	0	26.181	0	149.393	0	162.5	4	55.1	4	-1E+10	1	-1E+10	1	-1E+10	1	-1E+10	1	-1E+10	1	-1E+10	1
4902549	80	C	10/29/2022	00:07	-132.588	47.090	0	151.90	0	7.2570	0	33.5130	0	26.214	0	150.583	0	160.4	4	54.4	4	-1E+10	1	-1E+10	1	-1E+10	1	-1E+10	1	-1E+10	1	-1E+10	1
4902549	80	C	10/29/2022	00:07	-132.588	47.090	0	153.20	0	7.2670	0	33.5460	0	26.239	0	151.871	0	158.3	4	53.7	4	-1E+10	1	-1E+10	1	-1E+10	1	-1E+10	1	-1E+10	1	-1E+10	1
4902549	80	C	10/29/2022	00:07	-132.588	47.090	0	154.00	0	7.2740	0	33.5590	0	26.248	0	152.664	0	157.1	4	53.3	4	-1E+10	1	-1E+10	1	-1E+10	1	-1E+10	1	-1E+10	1	-1E+10	1
4902549	80	C	10/29/2022	00:07	-132.588	47.090	0	154.80	0	7.2730	0	33.5700	0	26.257	0	153.456	0	155.9	4	52.9	4	-1E+10	1	-1E+10	1	-1E+10	1	-1E+10	1	-1E+10	1	-1E+10	1
4902549	80	C	10/29/2022	00:07	-132.588	47.090	0	155.70	0	7.2640	0	33.5820	0	26.268	0	154.348	0	154.6	4	52.4	4	-1E+10	1	-1E+10	1	-1E+10	1	-1E+10	1	-1E+10	1	-1E+10	1
4902549	80	C	10/29/2022	00:07	-132.588	47.090	0	156.90	0	7.2570	0	33.5990	0	26.282	0	155.537	0	152.3	4	51.7	4	-1E+10	1	-1E+10	1	-1E+10	1	-1E+10	1	-1E+10	1	-1E+10	1
4902549	80	C	10/29/2022	00:07	-132.588	47.090	0	158.10	0	7.2630	0	33.6240	0	26.301	0	156.726	0	150.6	4	51.1	4	-1E+10	1	-1E+10	1	-1E+10	1	-1E+10	1	-1E+10	1	-1E+10	1
4902549	80	C	10/29/2022	00:07	-132.588	47.090	0	158.90	0	7.2780	0	33.6280	0	26.302	0	157.519	0	149.8	4	50.9	4	-1E+10	1	-1E+10	1	-1E+10	1	-1E+10	1	-1E+10	1	-1E+10	1
4902549	80	C	10/29/2022	00:07	-132.588	47.090	0	159.80	0	7.2800	0	33.6360	0	26.308	0	158.411	0	149.1	4	50.6	4	-1E+10	1	-1E+10	1	-1E+10	1	-1E+10	1	-1E+10	1	-1E+10	1
4902549	80	C	10/29/2022	00:07	-132.588	47.090	0	160.60	0	7.2790	0	33.6410	0	26.312	0	159.204	0	148.5	4	50.4	4	-1E+10	1	-1E+10	1	-1E+10	1	-1E+10	1	-1E+10	1	-1E+10	1
4902549	80	C	10/29/2022	00:07	-132.588	47.090	0	161.90	0	7.2760	0	33.6470	0	26.317	0	160.492	0	147.7	4	50.1	4	-1E+10	1	-1E+10	1	-1E+10	1	-1E+10	1	-1E+10	1	-1E+10	1
4902549	80	C	10/29/2022	00:07	-132.588	47.090	0	163.20	0	7.2660	0	33.6620	0	26.331	0	161.780	0	146.9	4	49.9	4	-1E+10	1	-1E+10	1	-1E+10	1	-1E+10	1	-1E+10	1	-1E+10	1
4902549	80	C	10/29/2022	00:07	-132.588	47.090	0	164.00	0	7.2630	0	33.6650	0	26.333	0	162.573	0	146.4	4	49.7	4	-1E+10	1	-1E+10	1	-1E+10	1	-1E+10	1	-1E+10	1	-1E+10	1
4902549	80	C	10/29/2022	00:07	-132.588	47.090	0	164.90	0	7.2530	0	33.6690	0	26.338	0	163.465	0	145.7	4	49.5	4	-1E+10	1	-1E+10	1	-1E+10	1	-1E+10	1	-1E+10	1	-1E+10	1
4902549	80	C	10/29/2022	00:07	-132.588	47.090	0	165.80	0	7.2500	0	33.6730	0	26.341	0	164.356	0	144.9	4	49.2	4	-1E+10	1	-1E+10	1	-1E+10	1	-1E+10	1	-1E+10	1	-1E+10	1
4902549	80	C	10/29/2022	00:07	-132.588	47.090	0	166.70	0	7.2520	0	33.6810	0	26.347	0	165.248	0	144.2	4	48.9	4	-1E+10	1	-1E+10	1	-1E+10	1	-1E+10	1	-1E+10	1	-1E+10	1
4902549	80	C	10/29/2022	00:07	-132.588	47.090	0	167.60	0	7.2390	0	33.6940	0	26.360	0	166.140	0	143.6	4	48.7	4	-1E+10	1	-1E+10	1	-1E+10	1	-1E+10	1	-1E+10	1	-1E+10	1
4902549	80	C	10/29/2022	00:07	-132.588	47.090	0	168.90	0	7.2340	0	33.6960	0	26.362	0	167.428	0	142.9	4	48.5	4	-1E+10	1	-1E+10	1	-1E+10	1	-1E+10	1	-1E+10	1	-1E+10	1
4902549	80	C	10/29/2022	00:07	-132.588	47.090	0	170.30	0	7.2080	0	33.7120	0	26.378	0	168.815	0	142.1	4	48.2	4	-1E+10	1	-1E+10	1	-1E+10	1	-1E+10	1	-1E+10	1	-1E+10	1
4902549	80	C	10/29/2022	00:07	-132.588	47.090	0	171.20	0	7.2020	0	33.7180	0	26.384	0	169.707	0	141.6	4	48.0	4	-1E+10	1	-1E+10	1	-1E+10	1	-1E+10	1	-1E+10	1	-1E+10	1
4902549	80	C	10/29/2022	00:07	-132.588	47.090	0	172.20	0	7.1980	0	33.7190	0	26.385	0	170.698	0	141.1	4	47.9	4	-1E+10	1	-1E+10	1	-1E+10	1	-1E+10	1	-1E+10	1	-1E+10	1
4902549	80	C	10/29/2022	00:07	-132.588	47.090	0	173.10	0	7.1840	0	33.7250	0	26.392	0	171.590	0	140.5	4	47.6	4	-1E+10	1	-1E+10	1	-1E+10	1	-1E+10	1	-1E+10	1	-1E+10	1
4902549	80	C	10/29/2022	00:07	-132.588	47.090	0	174.00	0	7.1760	0	33.7290	0	26.396	0	172.482	0	139.8	4	47.4	4	-1E+10	1	-1E+10	1	-1E+10	1	-1E+10	1	-1E+10	1	-1E+10	1
4902549	80	C	10/29/2022	00:07	-132.588	47.090	0	174.90	0	7.1680	0	33.7350	0	26.402	0	173.373	0	139.1	4	47.1	4	-1E+10	1	-1E+10	1	-1E+10	1	-1E+10	1	-1E+10	1	-1E+10	1
4902549	80	C	10/29/2022	00:07	-132.588	47.090	0	175.90	0	7.1600	0	33.7380	0	26.405	0	174.364	0	138.3	4	46.9	4	-1E+10	1	-1E+10	1	-1E+10	1	-1E+10	1	-1E+10	1	-1E+10	1
4902549	80	C	10/29/2022	00:07	-132.588	47.090	0	176.90	0	7.1500	0	33.7470	0	26.414	0	175.355	0	137.5	4	46.6	4	-1E+10	1	-1E+10	1	-1E+10	1	-1E+10	1	-1E+10	1	-1E+10	1
4902549	80	C	10/29/2022	00:07	-132.588	47.090	0	177.80	0	7.1160	0	33.7600	0	26.429	0	176.247	0	136.9	4	46.4	4	-1E+10	1	-1E+10	1	-1E+10	1	-1E+10	1	-1E+10	1	-1E+10	1
4902549	80	C	10/29/2022	00:07	-132.588	47.090	0	178.90	0	7.0860	0	33.7700	0	26.441	0	177.337	0	136.4	4	46.1	4	-1E+10	1	-1E+10	1	-1E+10	1	-1E+10	1	-1E+10	1	-1E+10	1
4902549	80	C	10/29/2022	00:07	-132.588	47.090	0	179.90	0	7.0760	0	33.7720	0	26.444	0	178.328	0	135.8	4	45.9	4	-1E+10	1	-1E+10	1	-1E+10	1	-1E+10	1	-1E+10	1	-1E+10	1
4902549	80	C	10/29/2022	00:07	-132.588	47.090	0	180.90	0	7.0780	0	33.7720	0	26.443	0	179.318	0	135.2	4	45.7	4	-1E+10	1	-1E+10	1	-1E+10	1	-1E+10	1	-1E+10	1	-1E+10	1
4902549	80	C	10/29/2022	00:07	-132.588	47.090	0	181.90	0	7.0540	0	33.7840	0	26.456	0	180.309	0	134.6	4	45.5	4	-1E+10	1	-1E+10	1	-1E+10	1	-1E+10	1	-1E+10	1	-1E+10	1
4902549	80	C	10/29/2022	00:07	-132.588	47.090	0	183.00	0	7.0450	0	33.7860	0	26.459	0	181.399	0	134.0	4	45.3	4	-1E+10	1	-1E+10	1	-1E+10	1	-1E+10	1	-1E+10	1	-1E+10	1
4902549	80	C	10/29/2022	00:07	-132.588	47.090	0	184.00	0	7.0370	0	33.7880	0	26.462	0	182.390	0	133.4	4	45.1	4	-1E+10	1	-1E+10	1	-1E+10	1	-1E+10	1	-1E+10	1	-1E+10	1
4902549	80	C	10/29/2022	00:07	-132.588	47.090	0	185.00	0	7.0240	0	33.7920	0	26.466	0	183.381	0	132.8	4	44.9	4	-1E+10	1	-1E+10	1	-1E+10	1	-1E+10	1	-1E+10	1	-1E+10	1
4902549	80	C	10/29/2022	00:07	-132.588	47.090	0	186.10	0	7.0130	0	33.7960	0	26.471	0	184.471	0	132.2	4	44.7	4	-1E+10	1	-1E+10	1	-1E+10	1	-1E+10	1	-1E+10	1	-1E+10	1
4902549	80	C	10/29/2022	00:07	-132.588	47.090	0	187.10	0	7.0050	0	33.7970	0	26.473	0	185.461	0	131.6	4	44.4	4	-1E+10	1	-1E+10	1	-1E+10	1	-1E+10	1	-1E+10	1	-1E+10	1
4902549	80	C	10/29/2022	00:07	-132.588	47.090	0	188.20	0	6.9980	0	33.7990	0	26.476	0	186.551	0	130.9	4	44.2	4	-1E+10	1	-1E+10	1	-1E+10	1	-1E+10	1	-1E+10	1	-1E+10	1
4902549	80	C	10/29/2022	00:07	-132.588	47.090	0	189.30	0	6.9810	0	33.8030	0	26.481	0	187.641	0	130.2	4	44.0	4	-1E+10	1	-1E+10	1	-1E+10	1	-1E+10	1	-1E+10	1	-1E+10	1
4902549	80	C	10/29/2022	00:07	-132.588	47.090	0	190.40	0	6.9570	0	33.8060	0	26.487	0	188.731	0	129.6	4	43.7	4	-1E+10	1	-1E+10	1	-1E+10	1	-1E+10	1	-1E+10	1	-1E+10	1
4902549	80	C	10/29/2022	00:07	-132.588	47.090	0	191.50	0	6.9520	0	33.8050	0	26.487	0	189.821	0	128.9	4	43.5	4	-1E+10	1	-1E+10	1	-1E+10	1	-1E+10	1	-1E+10	1	-1E+10	1
4902549	80	C	10/29/2022	00:07	-132.588	47.090	0	192.50	0	6.9260	0	33.8120	0	26.496	0	190.812	0	128.0	4	43.2	4	-1E+10	1	-1E+10	1	-1E+10	1	-1E+10	1	-1E+10	1	-1E+10	1
4902549	80	C	10/29/2022	00:07	-132.588	47.090	0	193.60	0	6.9040	0	33.8100	0	26.497	0	191.901	0	127.0	4	42.8	4	-1E+10	1	-1E+10	1	-1E+10	1	-1E+10	1	-1E+10	1	-1E+10	1
4902549	80	C	10/29/2022	00:07	-132.588	47.090	0	194.70	0	6.8770	0	33.8210	0	26.509	0	192.991	0	126.2	4	42.5	4	-1E+10	1	-1E+10	1	-1E+10	1	-1E+10	1	-1E+10	1	-1E+10	1
4902549	80	C	10/29/2022	00:07	-132.588	47.090	0	195.80	0	6.8590	0	33.8240	0	26.514	0	194.081	0	125.6	4	42.3	4	-1E+10	1	-1E+10	1	-1E+10	1	-1E+10	1	-1E+10	1	-1E+10	1
4902549	80	C	10/29/2022	00:07	-132.588	47.090	0	196.80	0	6.8540	0	33.8250	0	26.516	0	195.072	0	125.0	4	42.1	4	-1E+10	1	-1E+10	1	-1E+10	1	-1E+10	1	-1E+10	1	-1E+10	1
4902549	80	C	10/29/2022	00:07	-132.588	47.090	0	197.90	0	6.8390	0	33.8260	0	26.518	0	196.162	0	124.4	4	41.9	4	-1E+10	1	-1E+10	1	-1E+10	1	-1E+10	1	-1E+10	1	-1E+10	1
4902549	80	C	10/29/2022	00:07	-132.588	47.090	0	199.00	0	6.8320	0	33.8280	0	26.521	0	197.252	0	123.8	4	41.7	4	-1E+10	1	-1E+10	1	-1E+10	1	-1E+10	1	-1E+10	1	-1E+10	1
4902549	80	C	10/29/2022	00:07	-132.588	47.090	0	200.10	0	6.8110	0	33.8310	0	26.526	0	198.341	0	123.1	4	41.4	4	-1E+10	1	-1E+10	1	-1E+10	1	-1E+10	1	-1E+10	1	-1E+10	1
4902549	80	C	10/29/2022	00:07	-132.588	47.090	0	201.20	0	6.7770	0	33.8350	0	26.534	0	199.431	0	122.5	4	41.2	4	-1E+10	1	-1E+10	1	-1E+10	1	-1E+10	1	-1E+10	1	-1E+10	1
4902549	80	C	10/29/2022	00:07	-132.588	47.090	0	202.30	0	6.7680	0	33.8370	0	26.537	0	200.521	0	121.9	4	41.0	4	-1E+10	1	-1E+10	1	-1E+10	1	-1E+10	1	-1E+10	1	-1E+10	1
4902549	80	C	10/29/2022	00:07	-132.588	47.090	0	203.30	0	6.7590	0	33.8410	0	26.541	0	201.512	0	121.5	4	40.8	4	-1E+10	1	-1E+10	1	-1E+10	1	-1E+10	1	-1E+10	1	-1E+10	1
4902549	80	C	10/29/2022	00:07	-132.588	47.090	0	204.90	0	6.7390	0	33.8430	0	26.545	0	203.097	0	120.9	4	40.6	4	-1E+10	1	-1E+10	1	-1E+10	1	-1E+10	1	-1E+10	1	-1E+10	1
4902549	80	C	10/29/2022	00:07	-132.588	47.090	0	206.20	0	6.7320	0	33.8440	0	26.547	0	204.385	0	120.5	4	40.5	4	-1E+10	1	-1E+10	1	-1E+10	1	-1E+10	1	-1E+10	1	-1E+10	1
4902549	80	C	10/29/2022	00:07	-132.588	47.090	0	207.00	0	6.7240	0	33.8450	0	26.549	0	205.177	0	120.3	4	40.4	4	-1E+10	1	-1E+10	1	-1E+10	1	-1E+10	1	-1E+10	1	-1E+10	1
4902549	80	C	10/29/2022	00:07	-132.588	47.090	0	207.80	0	6.7130	0	33.8480	0	26.553	0	205.970	0	120.0	4	40.3	4	-1E+10	1	-1E+10	1	-1E+10	1	-1E+10	1	-1E+10	1	-1E+10	1
4902549	80	C	10/29/2022	00:07	-132.588	47.090	0	208.60	0	6.7020	0	33.8480	0	26.554	0	206.762	0	119.8	4	40.2	4	-1E+10	1	-1E+10	1	-1E+10	1	-1E+10	1	-1E+10	1	-1E+10	1
4902549	80	C	10/29/2022	00:07	-132.588	47.090	0	209.90	0	6.7000	0	33.8480	0	26.555	0	208.050	0	119.3	4	40.0	4	-1E+10	1	-1E+10	1	-1E+10	1	-1E+10	1	-1E+10	1	-1E+10	1
4902549	80	C	10/29/2022	00:07	-132.588	47.090	0	211.10	0	6.6970	0	33.8480	0	26.555	0	209.239	0	118.9	4	39.9	4	-1E+10	1	-1E+10	1	-1E+10	1	-1E+10	1	-1E+10	1	-1E+10	1
4902549	80	C	10/29/2022	00:07	-132.588	47.090	0	211.90	0	6.6950	0	33.8490	0	26.556	0	210.032	0	118.5	4	39.8	4	-1E+10	1	-1E+10	1	-1E+10	1	-1E+10	1	-1E+10	1	-1E+10	1
4902549	80	C	10/29/2022	00:07	-132.588	47.090	0	212.70	0	6.6840	0	33.8510	0	26.559	0	210.824	0	118.3	4	39.7	4	-1E+10	1	-1E+10	1	-1E+10	1	-1E+10	1	-1E+10	1	-1E+10	1
4902549	80	C	10/29/2022	00:07	-132.588	47.090	0	213.90	0	6.6830	0	33.8510	0	26.559	0	212.013	0	117.9	4	39.5	4	-1E+10	1	-1E+10	1	-1E+10	1	-1E+10	1	-1E+10	1	-1E+10	1
4902549	80	C	10/29/2022	00:07	-132.588	47.090	0	215.10	0	6.6680	0	33.8520	0	26.562	0	213.202	0	117.3	4	39.3	4	-1E+10	1	-1E+10	1	-1E+10	1	-1E+10	1	-1E+10	1	-1E+10	1
4902549	80	C	10/29/2022	00:07	-132.588	47.090	0	215.90	0	6.6560	0	33.8510	0	26.563	0	213.994	0	116.8	4	39.2	4	-1E+10	1	-1E+10	1	-1E+10	1	-1E+10	1	-1E+10	1	-1E+10	1
4902549	80	C	10/29/2022	00:07	-132.588	47.090	0	216.70	0	6.6510	0	33.8520	0	26.564	0	214.787	0	116.4	4	39.0	4	-1E+10	1	-1E+10	1	-1E+10	1	-1E+10	1	-1E+10	1	-1E+10	1
4902549	80	C	10/29/2022	00:07	-132.588	47.090	0	217.90	0	6.6390	0	33.8550	0	26.568	0	215.976	0	115.9	4	38.8	4	-1E+10	1	-1E+10	1	-1E+10	1	-1E+10	1	-1E+10	1	-1E+10	1
4902549	80	C	10/29/2022	00:07	-132.588	47.090	0	219.20	0	6.6350	0	33.8560	0	26.570	0	217.263	0	115.4	4	38.7	4	-1E+10	1	-1E+10	1	-1E+10	1	-1E+10	1	-1E+10	1	-1E+10	1
4902549	80	C	10/29/2022	00:07	-132.588	47.090	0	220.00	0	6.6330	0	33.8560	0	26.570	0	218.056	0	115.0	4	38.5	4	-1E+10	1	-1E+10	1	-1E+10	1	-1E+10	1	-1E+10	1	-1E+10	1
4902549	80	C	10/29/2022	00:07	-132.588	47.090	0	220.80	0	6.6290	0	33.8560	0	26.570	0	218.848	0	114.5	4	38.4	4	-1E+10	1	-1E+10	1	-1E+10	1	-1E+10	1	-1E+10	1	-1E+10	1
4902549	80	C	10/29/2022	00:07	-132.588	47.090	0	222.00	0	6.6220	0	33.8560	0	26.571	0	220.037	0	113.8	4	38.1	4	-1E+10	1	-1E+10	1	-1E+10	1	-1E+10	1	-1E+10	1	-1E+10	1
4902549	80	C	10/29/2022	00:07	-132.588	47.090	0	223.20	0	6.6100	0	33.8610	0	26.577	0	221.226	0	113.2	4	37.9	4	-1E+10	1	-1E+10	1	-1E+10	1	-1E+10	1	-1E+10	1	-1E+10	1
4902549	80	C	10/29/2022	00:07	-132.588	47.090	0	224.00	0	6.5900	0	33.8640	0	26.582	0	222.018	0	113.0	4	37.8	4	-1E+10	1	-1E+10	1	-1E+10	1	-1E+10	1	-1E+10	1	-1E+10	1
4902549	80	C	10/29/2022	00:07	-132.588	47.090	0	224.80	0	6.5730	0	33.8640	0	26.584	0	222.811	0	112.8	4	37.7	4	-1E+10	1	-1E+10	1	-1E+10	1	-1E+10	1	-1E+10	1	-1E+10	1
4902549	80	C	10/29/2022	00:07	-132.588	47.090	0	225.70	0	6.5670	0	33.8630	0	26.584	0	223.702	0	112.6	4	37.7	4	-1E+10	1	-1E+10	1	-1E+10	1	-1E+10	1	-1E+10	1	-1E+10	1
4902549	80	C	10/29/2022	00:07	-132.588	47.090	0	226.90	0	6.5510	0	33.8640	0	26.587	0	224.891	0	112.1	4	37.5	4	-1E+10	1	-1E+10	1	-1E+10	1	-1E+10	1	-1E+10	1	-1E+10	1
4902549	80	C	10/29/2022	00:07	-132.588	47.090	0	228.10	0	6.5440	0	33.8630	0	26.587	0	226.080	0	111.7	4	37.4	4	-1E+10	1	-1E+10	1	-1E+10	1	-1E+10	1	-1E+10	1	-1E+10	1
4902549	80	C	10/29/2022	00:07	-132.588	47.090	0	229.00	0	6.5210	0	33.8660	0	26.593	0	226.971	0	111.4	4	37.2	4	-1E+10	1	-1E+10	1	-1E+10	1	-1E+10	1	-1E+10	1	-1E+10	1
4902549	80	C	10/29/2022	00:07	-132.588	47.090	0	229.80	0	6.5190	0	33.8640	0	26.591	0	227.764	0	111.0	4	37.1	4	-1E+10	1	-1E+10	1	-1E+10	1	-1E+10	1	-1E+10	1	-1E+10	1
4902549	80	C	10/29/2022	00:07	-132.588	47.090	0	231.00	0	6.5030	0	33.8650	0	26.594	0	228.953	0	110.3	4	36.9	4	-1E+10	1	-1E+10	1	-1E+10	1	-1E+10	1	-1E+10	1	-1E+10	1
4902549	80	C	10/29/2022	00:07	-132.588	47.090	0	232.30	0	6.4930	0	33.8670	0	26.597	0	230.240	0	109.6	4	36.6	4	-1E+10	1	-1E+10	1	-1E+10	1	-1E+10	1	-1E+10	1	-1E+10	1
4902549	80	C	10/29/2022	00:07	-132.588	47.090	0	233.10	0	6.4770	0	33.8690	0	26.601	0	231.033	0	109.2	4	36.5	4	-1E+10	1	-1E+10	1	-1E+10	1	-1E+10	1	-1E+10	1	-1E+10	1
4902549	80	C	10/29/2022	00:07	-132.588	47.090	0	234.00	0	6.4700	0	33.8680	0	26.601	0	231.924	0	108.7	4	36.3	4	-1E+10	1	-1E+10	1	-1E+10	1	-1E+10	1	-1E+10	1	-1E+10	1
4902549	80	C	10/29/2022	00:07	-132.588	47.090	0	234.80	0	6.4690	0	33.8690	0	26.602	0	232.717	0	108.2	4	36.1	4	-1E+10	1	-1E+10	1	-1E+10	1	-1E+10	1	-1E+10	1	-1E+10	1
4902549	80	C	10/29/2022	00:07	-132.588	47.090	0	235.60	0	6.4670	0	33.8690	0	26.602	0	233.509	0	107.7	4	36.0	4	-1E+10	1	-1E+10	1	-1E+10	1	-1E+10	1	-1E+10	1	-1E+10	1
4902549	80	C	10/29/2022	00:07	-132.588	47.090	0	236.90	0	6.4410	0	33.8720	0	26.608	0	234.797	0	107.2	4	35.8	4	-1E+10	1	-1E+10	1	-1E+10	1	-1E+10	1	-1E+10	1	-1E+10	1
4902549	80	C	10/29/2022	00:07	-132.588	47.090	0	238.20	0	6.4070	0	33.8750	0	26.615	0	236.085	0	106.9	4	35.6	4	-1E+10	1	-1E+10	1	-1E+10	1	-1E+10	1	-1E+10	1	-1E+10	1
4902549	80	C	10/29/2022	00:07	-132.588	47.090	0	239.10	0	6.3730	0	33.8760	0	26.620	0	236.976	0	106.5	4	35.5	4	-1E+10	1	-1E+10	1	-1E+10	1	-1E+10	1	-1E+10	1	-1E+10	1
4902549	80	C	10/29/2022	00:07	-132.588	47.090	0	240.00	0	6.3540	0	33.8730	0	26.620	0	237.868	0	106.3	4	35.4	4	-1E+10	1	-1E+10	1	-1E+10	1	-1E+10	1	-1E+10	1	-1E+10	1
4902549	80	C	10/29/2022	00:07	-132.588	47.090	0	240.90	0	6.3530	0	33.8760	0	26.622	0	238.759	0	106.0	4	35.3	4	-1E+10	1	-1E+10	1	-1E+10	1	-1E+10	1	-1E+10	1	-1E+10	1
4902549	80	C	10/29/2022	00:07	-132.588	47.090	0	241.70	0	6.3410	0	33.8760	0	26.624	0	239.552	0	105.6	4	35.2	4	-1E+10	1	-1E+10	1	-1E+10	1	-1E+10	1	-1E+10	1	-1E+10	1
4902549	80	C	10/29/2022	00:07	-132.588	47.090	0	242.60	0	6.3200	0	33.8750	0	26.626	0	240.443	0	105.2	4	35.0	4	-1E+10	1	-1E+10	1	-1E+10	1	-1E+10	1	-1E+10	1	-1E+10	1
4902549	80	C	10/29/2022	00:07	-132.588	47.090	0	243.90	0	6.3100	0	33.8750	0	26.627	0	241.731	0	104.5	4	34.8	4	-1E+10	1	-1E+10	1	-1E+10	1	-1E+10	1	-1E+10	1	-1E+10	1
4902549	80	C	10/29/2022	00:07	-132.588	47.090	0	245.20	0	6.3030	0	33.8760	0	26.629	0	243.018	0	103.6	4	34.5	4	-1E+10	1	-1E+10	1	-1E+10	1	-1E+10	1	-1E+10	1	-1E+10	1
4902549	80	C	10/29/2022	00:07	-132.588	47.090	0	246.10	0	6.3010	0	33.8750	0	26.628	0	243.910	0	103.0	4	34.3	4	-1E+10	1	-1E+10	1	-1E+10	1	-1E+10	1	-1E+10	1	-1E+10	1
4902549	80	C	10/29/2022	00:07	-132.588	47.090	0	246.90	0	6.2940	0	33.8770	0	26.631	0	244.702	0	102.3	4	34.0	4	-1E+10	1	-1E+10	1	-1E+10	1	-1E+10	1	-1E+10	1	-1E+10	1
4902549	80	C	10/29/2022	00:07	-132.588	47.090	0	247.80	0	6.2880	0	33.8780	0	26.632	0	245.594	0	101.7	4	33.8	4	-1E+10	1	-1E+10	1	-1E+10	1	-1E+10	1	-1E+10	1	-1E+10	1
4902549	80	C	10/29/2022	00:07	-132.588	47.090	0	248.70	0	6.2750	0	33.8800	0	26.636	0	246.485	0	101.1	4	33.6	4	-1E+10	1	-1E+10	1	-1E+10	1	-1E+10	1	-1E+10	1	-1E+10	1
4902549	80	C	10/29/2022	00:07	-132.588	47.090	0	249.60	0	6.2590	0	33.8810	0	26.639	0	247.377	0	100.5	4	33.4	4	-1E+10	1	-1E+10	1	-1E+10	1	-1E+10	1	-1E+10	1	-1E+10	1
4902549	80	C	10/29/2022	00:07	-132.588	47.090	0	250.90	0	6.2530	0	33.8820	0	26.640	0	248.664	0	99.7	4	33.1	4	-1E+10	1	-1E+10	1	-1E+10	1	-1E+10	1	-1E+10	1	-1E+10	1
4902549	80	C	10/29/2022	00:07	-132.588	47.090	0	252.30	0	6.2210	0	33.8870	0	26.648	0	250.051	0	99.3	4	33.0	4	-1E+10	1	-1E+10	1	-1E+10	1	-1E+10	1	-1E+10	1	-1E+10	1
4902549	80	C	10/29/2022	00:07	-132.588	47.090	0	253.20	0	6.2350	0	33.8920	0	26.650	0	250.942	0	99.1	4	32.9	4	-1E+10	1	-1E+10	1	-1E+10	1	-1E+10	1	-1E+10	1	-1E+10	1
4902549	80	C	10/29/2022	00:07	-132.588	47.090	0	254.10	0	6.2200	0	33.8900	0	26.651	0	251.834	0	99.0	4	32.9	4	-1E+10	1	-1E+10	1	-1E+10	1	-1E+10	1	-1E+10	1	-1E+10	1
4902549	80	C	10/29/2022	00:07	-132.588	47.090	0	255.00	0	6.1960	0	33.8870	0	26.651	0	252.725	0	98.8	4	32.8	4	-1E+10	1	-1E+10	1	-1E+10	1	-1E+10	1	-1E+10	1	-1E+10	1
4902549	80	C	10/29/2022	00:07	-132.588	47.090	0	255.90	0	6.1890	0	33.8870	0	26.652	0	253.617	0	98.6	4	32.7	4	-1E+10	1	-1E+10	1	-1E+10	1	-1E+10	1	-1E+10	1	-1E+10	1
4902549	80	C	10/29/2022	00:07	-132.588	47.090	0	256.80	0	6.1830	0	33.8870	0	26.653	0	254.508	0	98.3	4	32.6	4	-1E+10	1	-1E+10	1	-1E+10	1	-1E+10	1	-1E+10	1	-1E+10	1
4902549	80	C	10/29/2022	00:07	-132.588	47.090	0	257.80	0	6.1760	0	33.8870	0	26.654	0	255.499	0	98.0	4	32.5	4	-1E+10	1	-1E+10	1	-1E+10	1	-1E+10	1	-1E+10	1	-1E+10	1
4902549	80	C	10/29/2022	00:07	-132.588	47.090	0	258.70	0	6.1700	0	33.8880	0	26.655	0	256.390	0	97.8	4	32.4	4	-1E+10	1	-1E+10	1	-1E+10	1	-1E+10	1	-1E+10	1	-1E+10	1
4902549	80	C	10/29/2022	00:07	-132.588	47.090	0	259.60	0	6.1500	0	33.8900	0	26.660	0	257.281	0	97.5	4	32.3	4	-1E+10	1	-1E+10	1	-1E+10	1	-1E+10	1	-1E+10	1	-1E+10	1
4902549	80	C	10/29/2022	00:07	-132.588	47.090	0	260.50	0	6.1350	0	33.8890	0	26.661	0	258.173	0	97.4	4	32.3	4	-1E+10	1	-1E+10	1	-1E+10	1	-1E+10	1	-1E+10	1	-1E+10	1
4902549	80	C	10/29/2022	00:07	-132.588	47.090	0	261.90	0	6.1220	0	33.8890	0	26.662	0	259.559	0	96.9	4	32.1	4	-1E+10	1	-1E+10	1	-1E+10	1	-1E+10	1	-1E+10	1	-1E+10	1
4902549	80	C	10/29/2022	00:07	-132.588	47.090	0	263.40	0	6.1060	0	33.8900	0	26.665	0	261.045	0	96.6	4	32.0	4	-1E+10	1	-1E+10	1	-1E+10	1	-1E+10	1	-1E+10	1	-1E+10	1
4902549	80	C	10/29/2022	00:07	-132.588	47.090	0	264.30	0	6.0980	0	33.8900	0	26.666	0	261.936	0	96.3	4	31.9	4	-1E+10	1	-1E+10	1	-1E+10	1	-1E+10	1	-1E+10	1	-1E+10	1
4902549	80	C	10/29/2022	00:07	-132.588	47.090	0	265.30	0	6.0720	0	33.8910	0	26.670	0	262.927	0	96.1	4	31.8	4	-1E+10	1	-1E+10	1	-1E+10	1	-1E+10	1	-1E+10	1	-1E+10	1
4902549	80	C	10/29/2022	00:07	-132.588	47.090	0	266.30	0	6.0670	0	33.8910	0	26.671	0	263.917	0	95.9	4	31.7	4	-1E+10	1	-1E+10	1	-1E+10	1	-1E+10	1	-1E+10	1	-1E+10	1
4902549	80	C	10/29/2022	00:07	-132.588	47.090	0	267.20	0	6.0640	0	33.8910	0	26.671	0	264.809	0	95.7	4	31.6	4	-1E+10	1	-1E+10	1	-1E+10	1	-1E+10	1	-1E+10	1	-1E+10	1
4902549	80	C	10/29/2022	00:07	-132.588	47.090	0	268.20	0	6.0620	0	33.8910	0	26.672	0	265.799	0	95.4	4	31.6	4	-1E+10	1	-1E+10	1	-1E+10	1	-1E+10	1	-1E+10	1	-1E+10	1
4902549	80	C	10/29/2022	00:07	-132.588	47.090	0	269.10	0	6.0600	0	33.8910	0	26.672	0	266.690	0	95.1	4	31.5	4	-1E+10	1	-1E+10	1	-1E+10	1	-1E+10	1	-1E+10	1	-1E+10	1
4902549	80	C	10/29/2022	00:07	-132.588	47.090	0	270.00	0	6.0590	0	33.8910	0	26.672	0	267.582	0	94.8	4	31.4	4	-1E+10	1	-1E+10	1	-1E+10	1	-1E+10	1	-1E+10	1	-1E+10	1
4902549	80	C	10/29/2022	00:07	-132.588	47.090	0	271.00	0	6.0570	0	33.8910	0	26.672	0	268.572	0	94.4	4	31.2	4	-1E+10	1	-1E+10	1	-1E+10	1	-1E+10	1	-1E+10	1	-1E+10	1
4902549	80	C	10/29/2022	00:07	-132.588	47.090	0	271.90	0	6.0560	0	33.8910	0	26.672	0	269.464	0	94.0	4	31.1	4	-1E+10	1	-1E+10	1	-1E+10	1	-1E+10	1	-1E+10	1	-1E+10	1
4902549	80	C	10/29/2022	00:07	-132.588	47.090	0	272.90	0	6.0450	0	33.8920	0	26.675	0	270.454	0	93.6	4	30.9	4	-1E+10	1	-1E+10	1	-1E+10	1	-1E+10	1	-1E+10	1	-1E+10	1
4902549	80	C	10/29/2022	00:07	-132.588	47.090	0	273.80	0	6.0380	0	33.8920	0	26.675	0	271.345	0	93.1	4	30.8	4	-1E+10	1	-1E+10	1	-1E+10	1	-1E+10	1	-1E+10	1	-1E+10	1
4902549	80	C	10/29/2022	00:07	-132.588	47.090	0	274.70	0	6.0350	0	33.8920	0	26.676	0	272.237	0	92.7	4	30.6	4	-1E+10	1	-1E+10	1	-1E+10	1	-1E+10	1	-1E+10	1	-1E+10	1
4902549	80	C	10/29/2022	00:07	-132.588	47.090	0	275.70	0	6.0260	0	33.8930	0	26.678	0	273.227	0	92.2	4	30.5	4	-1E+10	1	-1E+10	1	-1E+10	1	-1E+10	1	-1E+10	1	-1E+10	1
4902549	80	C	10/29/2022	00:07	-132.588	47.090	0	276.60	0	6.0200	0	33.8930	0	26.679	0	274.118	0	91.7	4	30.3	4	-1E+10	1	-1E+10	1	-1E+10	1	-1E+10	1	-1E+10	1	-1E+10	1
4902549	80	C	10/29/2022	00:07	-132.588	47.090	0	277.60	0	6.0110	0	33.8940	0	26.680	0	275.109	0	91.1	4	30.1	4	-1E+10	1	-1E+10	1	-1E+10	1	-1E+10	1	-1E+10	1	-1E+10	1
4902549	80	C	10/29/2022	00:07	-132.588	47.090	0	278.50	0	6.0000	0	33.8950	0	26.683	0	276.000	0	90.6	4	29.9	4	-1E+10	1	-1E+10	1	-1E+10	1	-1E+10	1	-1E+10	1	-1E+10	1
4902549	80	C	10/29/2022	00:07	-132.588	47.090	0	279.90	0	5.9910	0	33.8980	0	26.686	0	277.386	0	89.9	4	29.7	4	-1E+10	1	-1E+10	1	-1E+10	1	-1E+10	1	-1E+10	1	-1E+10	1
4902549	80	C	10/29/2022	00:07	-132.588	47.090	0	281.30	0	5.9830	0	33.8990	0	26.688	0	278.773	0	89.3	4	29.5	4	-1E+10	1	-1E+10	1	-1E+10	1	-1E+10	1	-1E+10	1	-1E+10	1
4902549	80	C	10/29/2022	00:07	-132.588	47.090	0	282.30	0	5.9710	0	33.9000	0	26.690	0	279.763	0	88.9	4	29.4	4	-1E+10	1	-1E+10	1	-1E+10	1	-1E+10	1	-1E+10	1	-1E+10	1
4902549	80	C	10/29/2022	00:07	-132.588	47.090	0	283.30	0	5.9350	0	33.9010	0	26.696	0	280.754	0	88.6	4	29.2	4	-1E+10	1	-1E+10	1	-1E+10	1	-1E+10	1	-1E+10	1	-1E+10	1
4902549	80	C	10/29/2022	00:07	-132.588	47.090	0	284.20	0	5.9290	0	33.9000	0	26.695	0	281.645	0	88.2	4	29.1	4	-1E+10	1	-1E+10	1	-1E+10	1	-1E+10	1	-1E+10	1	-1E+10	1
4902549	80	C	10/29/2022	00:07	-132.588	47.090	0	285.10	0	5.9230	0	33.9010	0	26.697	0	282.536	0	87.7	4	28.9	4	-1E+10	1	-1E+10	1	-1E+10	1	-1E+10	1	-1E+10	1	-1E+10	1
4902549	80	C	10/29/2022	00:07	-132.588	47.090	0	286.10	0	5.9220	0	33.9000	0	26.696	0	283.527	0	87.1	4	28.7	4	-1E+10	1	-1E+10	1	-1E+10	1	-1E+10	1	-1E+10	1	-1E+10	1
4902549	80	C	10/29/2022	00:07	-132.588	47.090	0	287.00	0	5.9220	0	33.8990	0	26.696	0	284.418	0	86.6	4	28.6	4	-1E+10	1	-1E+10	1	-1E+10	1	-1E+10	1	-1E+10	1	-1E+10	1
4902549	80	C	10/29/2022	00:07	-132.588	47.090	0	288.00	0	5.9180	0	33.9060	0	26.702	0	285.408	0	86.2	4	28.4	4	-1E+10	1	-1E+10	1	-1E+10	1	-1E+10	1	-1E+10	1	-1E+10	1
4902549	80	C	10/29/2022	00:07	-132.588	47.090	0	288.90	0	5.9200	0	33.9070	0	26.702	0	286.299	0	85.9	4	28.3	4	-1E+10	1	-1E+10	1	-1E+10	1	-1E+10	1	-1E+10	1	-1E+10	1
4902549	80	C	10/29/2022	00:07	-132.588	47.090	0	289.90	0	5.9070	0	33.9090	0	26.705	0	287.290	0	85.7	4	28.3	4	-1E+10	1	-1E+10	1	-1E+10	1	-1E+10	1	-1E+10	1	-1E+10	1
4902549	80	C	10/29/2022	00:07	-132.588	47.090	0	290.80	0	5.9050	0	33.9090	0	26.706	0	288.181	0	85.5	4	28.2	4	-1E+10	1	-1E+10	1	-1E+10	1	-1E+10	1	-1E+10	1	-1E+10	1
4902549	80	C	10/29/2022	00:07	-132.588	47.090	0	291.70	0	5.9040	0	33.9080	0	26.705	0	289.072	0	85.3	4	28.1	4	-1E+10	1	-1E+10	1	-1E+10	1	-1E+10	1	-1E+10	1	-1E+10	1
4902549	80	C	10/29/2022	00:07	-132.588	47.090	0	292.70	0	5.9020	0	33.9080	0	26.705	0	290.063	0	85.0	4	28.0	4	-1E+10	1	-1E+10	1	-1E+10	1	-1E+10	1	-1E+10	1	-1E+10	1
4902549	80	C	10/29/2022	00:07	-132.588	47.090	0	293.60	0	5.9020	0	33.9080	0	26.705	0	290.954	0	84.6	4	27.9	4	-1E+10	1	-1E+10	1	-1E+10	1	-1E+10	1	-1E+10	1	-1E+10	1
4902549	80	C	10/29/2022	00:07	-132.588	47.090	0	294.60	0	5.8930	0	33.9070	0	26.706	0	291.944	0	84.3	4	27.8	4	-1E+10	1	-1E+10	1	-1E+10	1	-1E+10	1	-1E+10	1	-1E+10	1
4902549	80	C	10/29/2022	00:07	-132.588	47.090	0	295.90	0	5.8690	0	33.9070	0	26.709	0	293.231	0	83.7	4	27.6	4	-1E+10	1	-1E+10	1	-1E+10	1	-1E+10	1	-1E+10	1	-1E+10	1
4902549	80	C	10/29/2022	00:07	-132.588	47.090	0	297.30	0	5.8220	0	33.9020	0	26.710	0	294.618	0	83.0	4	27.3	4	-1E+10	1	-1E+10	1	-1E+10	1	-1E+10	1	-1E+10	1	-1E+10	1
4902549	80	C	10/29/2022	00:07	-132.588	47.090	0	298.30	0	5.8010	0	33.9050	0	26.715	0	295.608	0	82.5	4	27.1	4	-1E+10	1	-1E+10	1	-1E+10	1	-1E+10	1	-1E+10	1	-1E+10	1
4902549	80	C	10/29/2022	00:07	-132.588	47.090	0	299.30	0	5.7880	0	33.9070	0	26.719	0	296.598	0	81.9	4	26.9	4	-1E+10	1	-1E+10	1	-1E+10	1	-1E+10	1	-1E+10	1	-1E+10	1
4902549	80	C	10/29/2022	00:07	-132.588	47.090	0	300.20	0	5.7780	0	33.9090	0	26.721	0	297.490	0	81.3	4	26.7	4	-1E+10	1	-1E+10	1	-1E+10	1	-1E+10	1	-1E+10	1	-1E+10	1
4902549	80	C	10/29/2022	00:07	-132.588	47.090	0	301.20	0	5.7700	0	33.9100	0	26.723	0	298.480	0	80.8	4	26.6	4	-1E+10	1	-1E+10	1	-1E+10	1	-1E+10	1	-1E+10	1	-1E+10	1
4902549	80	C	10/29/2022	00:07	-132.588	47.090	0	302.20	0	5.7620	0	33.9110	0	26.725	0	299.470	0	80.2	4	26.4	4	-1E+10	1	-1E+10	1	-1E+10	1	-1E+10	1	-1E+10	1	-1E+10	1
4902549	80	C	10/29/2022	00:07	-132.588	47.090	0	303.10	0	5.7550	0	33.9100	0	26.725	0	300.361	0	79.5	4	26.1	4	-1E+10	1	-1E+10	1	-1E+10	1	-1E+10	1	-1E+10	1	-1E+10	1
4902549	80	C	10/29/2022	00:07	-132.588	47.090	0	304.10	0	5.7450	0	33.9100	0	26.726	0	301.352	0	78.8	4	25.9	4	-1E+10	1	-1E+10	1	-1E+10	1	-1E+10	1	-1E+10	1	-1E+10	1
4902549	80	C	10/29/2022	00:07	-132.588	47.090	0	305.00	0	5.7480	0	33.9110	0	26.727	0	302.243	0	77.9	4	25.6	4	-1E+10	1	-1E+10	1	-1E+10	1	-1E+10	1	-1E+10	1	-1E+10	1
4902549	80	C	10/29/2022	00:07	-132.588	47.090	0	306.00	0	5.7430	0	33.9140	0	26.730	0	303.233	0	77.2	4	25.4	4	-1E+10	1	-1E+10	1	-1E+10	1	-1E+10	1	-1E+10	1	-1E+10	1
4902549	80	C	10/29/2022	00:07	-132.588	47.090	0	306.90	0	5.7760	0	33.9230	0	26.733	0	304.124	0	76.8	4	25.2	4	-1E+10	1	-1E+10	1	-1E+10	1	-1E+10	1	-1E+10	1	-1E+10	1
4902549	80	C	10/29/2022	00:07	-132.588	47.090	0	307.90	0	5.7780	0	33.9220	0	26.732	0	305.114	0	76.4	4	25.1	4	-1E+10	1	-1E+10	1	-1E+10	1	-1E+10	1	-1E+10	1	-1E+10	1
4902549	80	C	10/29/2022	00:07	-132.588	47.090	0	308.80	0	5.7770	0	33.9240	0	26.733	0	306.006	0	76.1	4	25.0	4	-1E+10	1	-1E+10	1	-1E+10	1	-1E+10	1	-1E+10	1	-1E+10	1
4902549	80	C	10/29/2022	00:07	-132.588	47.090	0	309.80	0	5.7700	0	33.9240	0	26.734	0	306.996	0	75.8	4	24.9	4	-1E+10	1	-1E+10	1	-1E+10	1	-1E+10	1	-1E+10	1	-1E+10	1
4902549	80	C	10/29/2022	00:07	-132.588	47.090	0	310.70	0	5.7500	0	33.9250	0	26.738	0	307.887	0	75.5	4	24.8	4	-1E+10	1	-1E+10	1	-1E+10	1	-1E+10	1	-1E+10	1	-1E+10	1
4902549	80	C	10/29/2022	00:07	-132.588	47.090	0	311.70	0	5.7340	0	33.9240	0	26.739	0	308.877	0	75.1	4	24.6	4	-1E+10	1	-1E+10	1	-1E+10	1	-1E+10	1	-1E+10	1	-1E+10	1
4902549	80	C	10/29/2022	00:07	-132.588	47.090	0	312.70	0	5.7160	0	33.9240	0	26.741	0	309.867	0	74.6	4	24.5	4	-1E+10	1	-1E+10	1	-1E+10	1	-1E+10	1	-1E+10	1	-1E+10	1
4902549	80	C	10/29/2022	00:07	-132.588	47.090	0	313.70	0	5.7090	0	33.9250	0	26.743	0	310.858	0	74.3	4	24.4	4	-1E+10	1	-1E+10	1	-1E+10	1	-1E+10	1	-1E+10	1	-1E+10	1
4902549	80	C	10/29/2022	00:07	-132.588	47.090	0	314.60	0	5.7090	0	33.9270	0	26.744	0	311.749	0	74.0	4	24.3	4	-1E+10	1	-1E+10	1	-1E+10	1	-1E+10	1	-1E+10	1	-1E+10	1
4902549	80	C	10/29/2022	00:07	-132.588	47.090	0	315.60	0	5.7050	0	33.9280	0	26.745	0	312.739	0	73.7	4	24.2	4	-1E+10	1	-1E+10	1	-1E+10	1	-1E+10	1	-1E+10	1	-1E+10	1
4902549	80	C	10/29/2022	00:07	-132.588	47.090	0	316.60	0	5.6920	0	33.9300	0	26.749	0	313.729	0	73.3	4	24.0	4	-1E+10	1	-1E+10	1	-1E+10	1	-1E+10	1	-1E+10	1	-1E+10	1
4902549	80	C	10/29/2022	00:07	-132.588	47.090	0	317.50	0	5.6770	0	33.9260	0	26.747	0	314.620	0	73.0	4	24.0	4	-1E+10	1	-1E+10	1	-1E+10	1	-1E+10	1	-1E+10	1	-1E+10	1
4902549	80	C	10/29/2022	00:07	-132.588	47.090	0	318.90	0	5.6700	0	33.9310	0	26.752	0	316.007	0	72.7	4	23.8	4	-1E+10	1	-1E+10	1	-1E+10	1	-1E+10	1	-1E+10	1	-1E+10	1
4902549	80	C	10/29/2022	00:07	-132.588	47.090	0	320.40	0	5.6580	0	33.9310	0	26.754	0	317.492	0	72.4	4	23.7	4	-1E+10	1	-1E+10	1	-1E+10	1	-1E+10	1	-1E+10	1	-1E+10	1
4902549	80	C	10/29/2022	00:07	-132.588	47.090	0	321.40	0	5.6280	0	33.9330	0	26.759	0	318.482	0	72.3	4	23.7	4	-1E+10	1	-1E+10	1	-1E+10	1	-1E+10	1	-1E+10	1	-1E+10	1
4902549	80	C	10/29/2022	00:07	-132.588	47.090	0	322.30	0	5.6220	0	33.9320	0	26.759	0	319.373	0	72.1	4	23.6	4	-1E+10	1	-1E+10	1	-1E+10	1	-1E+10	1	-1E+10	1	-1E+10	1
4902549	80	C	10/29/2022	00:07	-132.588	47.090	0	323.30	0	5.6230	0	33.9310	0	26.758	0	320.363	0	71.9	4	23.6	4	-1E+10	1	-1E+10	1	-1E+10	1	-1E+10	1	-1E+10	1	-1E+10	1
4902549	80	C	10/29/2022	00:07	-132.588	47.090	0	324.30	0	5.6190	0	33.9310	0	26.758	0	321.353	0	71.7	4	23.5	4	-1E+10	1	-1E+10	1	-1E+10	1	-1E+10	1	-1E+10	1	-1E+10	1
4902549	80	C	10/29/2022	00:07	-132.588	47.090	0	325.30	0	5.6140	0	33.9310	0	26.759	0	322.343	0	71.5	4	23.4	4	-1E+10	1	-1E+10	1	-1E+10	1	-1E+10	1	-1E+10	1	-1E+10	1
4902549	80	C	10/29/2022	00:07	-132.588	47.090	0	326.30	0	5.6060	0	33.9310	0	26.760	0	323.334	0	71.2	4	23.3	4	-1E+10	1	-1E+10	1	-1E+10	1	-1E+10	1	-1E+10	1	-1E+10	1
4902549	80	C	10/29/2022	00:07	-132.588	47.090	0	327.20	0	5.5950	0	33.9290	0	26.760	0	324.225	0	70.9	4	23.2	4	-1E+10	1	-1E+10	1	-1E+10	1	-1E+10	1	-1E+10	1	-1E+10	1
4902549	80	C	10/29/2022	00:07	-132.588	47.090	0	328.20	0	5.5820	0	33.9300	0	26.762	0	325.215	0	70.5	4	23.1	4	-1E+10	1	-1E+10	1	-1E+10	1	-1E+10	1	-1E+10	1	-1E+10	1
4902549	80	C	10/29/2022	00:07	-132.588	47.090	0	329.20	0	5.5660	0	33.9310	0	26.765	0	326.205	0	70.2	4	23.0	4	-1E+10	1	-1E+10	1	-1E+10	1	-1E+10	1	-1E+10	1	-1E+10	1
4902549	80	C	10/29/2022	00:07	-132.588	47.090	0	330.20	0	5.5640	0	33.9310	0	26.765	0	327.195	0	69.8	4	22.8	4	-1E+10	1	-1E+10	1	-1E+10	1	-1E+10	1	-1E+10	1	-1E+10	1
4902549	80	C	10/29/2022	00:07	-132.588	47.090	0	331.10	0	5.5560	0	33.9310	0	26.766	0	328.086	0	69.4	4	22.7	4	-1E+10	1	-1E+10	1	-1E+10	1	-1E+10	1	-1E+10	1	-1E+10	1
4902549	80	C	10/29/2022	00:07	-132.588	47.090	0	332.10	0	5.5490	0	33.9320	0	26.768	0	329.076	0	68.9	4	22.5	4	-1E+10	1	-1E+10	1	-1E+10	1	-1E+10	1	-1E+10	1	-1E+10	1
4902549	80	C	10/29/2022	00:07	-132.588	47.090	0	333.10	0	5.5320	0	33.9330	0	26.770	0	330.066	0	68.4	4	22.4	4	-1E+10	1	-1E+10	1	-1E+10	1	-1E+10	1	-1E+10	1	-1E+10	1
4902549	80	C	10/29/2022	00:07	-132.588	47.090	0	334.10	0	5.5580	0	33.9370	0	26.771	0	331.056	0	68.0	4	22.2	4	-1E+10	1	-1E+10	1	-1E+10	1	-1E+10	1	-1E+10	1	-1E+10	1
4902549	80	C	10/29/2022	00:07	-132.588	47.090	0	335.00	0	5.5670	0	33.9380	0	26.770	0	331.948	0	67.6	4	22.1	4	-1E+10	1	-1E+10	1	-1E+10	1	-1E+10	1	-1E+10	1	-1E+10	1
4902549	80	C	10/29/2022	00:07	-132.588	47.090	0	336.00	0	5.5670	0	33.9390	0	26.771	0	332.938	0	67.3	4	22.0	4	-1E+10	1	-1E+10	1	-1E+10	1	-1E+10	1	-1E+10	1	-1E+10	1
4902549	80	C	10/29/2022	00:07	-132.588	47.090	0	337.00	0	5.5660	0	33.9400	0	26.772	0	333.928	0	67.0	4	21.9	4	-1E+10	1	-1E+10	1	-1E+10	1	-1E+10	1	-1E+10	1	-1E+10	1
4902549	80	C	10/29/2022	00:07	-132.588	47.090	0	338.00	0	5.5640	0	33.9410	0	26.773	0	334.918	0	66.8	4	21.8	4	-1E+10	1	-1E+10	1	-1E+10	1	-1E+10	1	-1E+10	1	-1E+10	1
4902549	80	C	10/29/2022	00:07	-132.588	47.090	0	338.90	0	5.5560	0	33.9410	0	26.774	0	335.809	0	66.5	4	21.7	4	-1E+10	1	-1E+10	1	-1E+10	1	-1E+10	1	-1E+10	1	-1E+10	1
4902549	80	C	10/29/2022	00:07	-132.588	47.090	0	339.90	0	5.5500	0	33.9420	0	26.775	0	336.799	0	66.3	4	21.7	4	-1E+10	1	-1E+10	1	-1E+10	1	-1E+10	1	-1E+10	1	-1E+10	1
4902549	80	C	10/29/2022	00:07	-132.588	47.090	0	340.90	0	5.5380	0	33.9440	0	26.779	0	337.789	0	66.1	4	21.6	4	-1E+10	1	-1E+10	1	-1E+10	1	-1E+10	1	-1E+10	1	-1E+10	1
4902549	80	C	10/29/2022	00:07	-132.588	47.090	0	341.90	0	5.5270	0	33.9420	0	26.778	0	338.779	0	65.9	4	21.5	4	-1E+10	1	-1E+10	1	-1E+10	1	-1E+10	1	-1E+10	1	-1E+10	1
4902549	80	C	10/29/2022	00:07	-132.588	47.090	0	342.90	0	5.5210	0	33.9430	0	26.780	0	339.769	0	65.7	4	21.5	4	-1E+10	1	-1E+10	1	-1E+10	1	-1E+10	1	-1E+10	1	-1E+10	1
4902549	80	C	10/29/2022	00:07	-132.588	47.090	0	343.90	0	5.4990	0	33.9420	0	26.782	0	340.759	0	65.4	4	21.4	4	-1E+10	1	-1E+10	1	-1E+10	1	-1E+10	1	-1E+10	1	-1E+10	1
4902549	80	C	10/29/2022	00:07	-132.588	47.090	0	344.90	0	5.4990	0	33.9450	0	26.784	0	341.749	0	65.2	4	21.3	4	-1E+10	1	-1E+10	1	-1E+10	1	-1E+10	1	-1E+10	1	-1E+10	1
4902549	80	C	10/29/2022	00:07	-132.588	47.090	0	345.90	0	5.4900	0	33.9450	0	26.785	0	342.739	0	65.1	4	21.3	4	-1E+10	1	-1E+10	1	-1E+10	1	-1E+10	1	-1E+10	1	-1E+10	1
4902549	80	C	10/29/2022	00:07	-132.588	47.090	0	346.80	0	5.4830	0	33.9460	0	26.787	0	343.630	0	65.0	4	21.2	4	-1E+10	1	-1E+10	1	-1E+10	1	-1E+10	1	-1E+10	1	-1E+10	1
4902549	80	C	10/29/2022	00:07	-132.588	47.090	0	347.80	0	5.4810	0	33.9460	0	26.787	0	344.620	0	64.8	4	21.2	4	-1E+10	1	-1E+10	1	-1E+10	1	-1E+10	1	-1E+10	1	-1E+10	1
4902549	80	C	10/29/2022	00:07	-132.588	47.090	0	348.80	0	5.4760	0	33.9450	0	26.787	0	345.610	0	64.7	4	21.1	4	-1E+10	1	-1E+10	1	-1E+10	1	-1E+10	1	-1E+10	1	-1E+10	1
4902549	80	C	10/29/2022	00:07	-132.588	47.090	0	349.80	0	5.4750	0	33.9470	0	26.788	0	346.600	0	64.5	4	21.1	4	-1E+10	1	-1E+10	1	-1E+10	1	-1E+10	1	-1E+10	1	-1E+10	1
4902549	80	C	10/29/2022	00:07	-132.588	47.090	0	352.70	0	5.4550	0	33.9460	0	26.790	0	349.471	0	64.2	4	21.0	4	-1E+10	1	-1E+10	1	-1E+10	1	-1E+10	1	-1E+10	1	-1E+10	1
4902549	80	C	10/29/2022	00:07	-132.588	47.090	0	357.60	0	5.4020	0	33.9440	0	26.795	0	354.322	0	63.4	4	20.7	4	-1E+10	1	-1E+10	1	-1E+10	1	-1E+10	1	-1E+10	1	-1E+10	1
4902549	80	C	10/29/2022	00:07	-132.588	47.090	0	362.90	0	5.3340	0	33.9470	0	26.805	0	359.569	0	62.3	4	20.3	4	-1E+10	1	-1E+10	1	-1E+10	1	-1E+10	1	-1E+10	1	-1E+10	1
4902549	80	C	10/29/2022	00:07	-132.588	47.090	0	368.30	0	5.2580	0	33.9440	0	26.812	0	364.915	0	60.6	4	19.7	4	-1E+10	1	-1E+10	1	-1E+10	1	-1E+10	1	-1E+10	1	-1E+10	1
4902549	80	C	10/29/2022	00:07	-132.588	47.090	0	373.30	0	5.2000	0	33.9510	0	26.824	0	369.864	0	58.8	4	19.1	4	-1E+10	1	-1E+10	1	-1E+10	1	-1E+10	1	-1E+10	1	-1E+10	1
4902549	80	C	10/29/2022	00:07	-132.588	47.090	0	378.30	0	5.1700	0	33.9540	0	26.830	0	374.814	0	57.2	4	18.5	4	-1E+10	1	-1E+10	1	-1E+10	1	-1E+10	1	-1E+10	1	-1E+10	1
4902549	80	C	10/29/2022	00:07	-132.588	47.090	0	383.30	0	5.1470	0	33.9560	0	26.834	0	379.763	0	54.4	4	17.6	4	-1E+10	1	-1E+10	1	-1E+10	1	-1E+10	1	-1E+10	1	-1E+10	1
4902549	80	C	10/29/2022	00:07	-132.588	47.090	0	387.90	0	5.1490	0	33.9660	0	26.842	0	384.317	0	51.7	4	16.8	4	-1E+10	1	-1E+10	1	-1E+10	1	-1E+10	1	-1E+10	1	-1E+10	1
4902549	80	C	10/29/2022	00:07	-132.588	47.090	0	392.50	0	5.0860	0	33.9740	0	26.856	0	388.870	0	49.7	4	16.1	4	-1E+10	1	-1E+10	1	-1E+10	1	-1E+10	1	-1E+10	1	-1E+10	1
4902549	80	C	10/29/2022	00:07	-132.588	47.090	0	397.90	0	5.1190	0	33.9860	0	26.861	0	394.215	0	47.3	4	15.3	4	-1E+10	1	-1E+10	1	-1E+10	1	-1E+10	1	-1E+10	1	-1E+10	1
4902549	80	C	10/29/2022	00:07	-132.588	47.090	0	403.20	0	5.1060	0	33.9940	0	26.869	0	399.460	0	46.0	4	14.9	4	-1E+10	1	-1E+10	1	-1E+10	1	-1E+10	1	-1E+10	1	-1E+10	1
4902549	80	C	10/29/2022	00:07	-132.588	47.090	0	408.10	0	5.0890	0	33.9980	0	26.874	0	404.310	0	45.3	4	14.7	4	-1E+10	1	-1E+10	1	-1E+10	1	-1E+10	1	-1E+10	1	-1E+10	1
4902549	80	C	10/29/2022	00:07	-132.588	47.090	0	413.20	0	5.0270	0	33.9970	0	26.881	0	409.358	0	44.6	4	14.4	4	-1E+10	1	-1E+10	1	-1E+10	1	-1E+10	1	-1E+10	1	-1E+10	1
4902549	80	C	10/29/2022	00:07	-132.588	47.090	0	417.90	0	5.0280	0	34.0020	0	26.885	0	414.009	0	43.5	4	14.1	4	-1E+10	1	-1E+10	1	-1E+10	1	-1E+10	1	-1E+10	1	-1E+10	1
4902549	80	C	10/29/2022	00:07	-132.588	47.090	0	422.60	0	5.0020	0	34.0050	0	26.890	0	418.661	0	42.9	4	13.8	4	-1E+10	1	-1E+10	1	-1E+10	1	-1E+10	1	-1E+10	1	-1E+10	1
4902549	80	C	10/29/2022	00:07	-132.588	47.090	0	428.00	0	4.9700	0	34.0070	0	26.895	0	424.005	0	41.7	4	13.4	4	-1E+10	1	-1E+10	1	-1E+10	1	-1E+10	1	-1E+10	1	-1E+10	1
4902549	80	C	10/29/2022	00:07	-132.588	47.090	0	433.00	0	4.9610	0	34.0130	0	26.901	0	428.953	0	40.5	4	13.1	4	-1E+10	1	-1E+10	1	-1E+10	1	-1E+10	1	-1E+10	1	-1E+10	1
4902549	80	C	10/29/2022	00:07	-132.588	47.090	0	438.00	0	4.9570	0	34.0180	0	26.906	0	433.901	0	39.6	4	12.8	4	-1E+10	1	-1E+10	1	-1E+10	1	-1E+10	1	-1E+10	1	-1E+10	1
4902549	80	C	10/29/2022	00:07	-132.588	47.090	0	443.10	0	4.9410	0	34.0210	0	26.910	0	438.948	0	39.2	4	12.7	4	-1E+10	1	-1E+10	1	-1E+10	1	-1E+10	1	-1E+10	1	-1E+10	1
4902549	80	C	10/29/2022	00:07	-132.588	47.090	0	447.70	0	4.9310	0	34.0230	0	26.913	0	443.500	0	38.9	4	12.6	4	-1E+10	1	-1E+10	1	-1E+10	1	-1E+10	1	-1E+10	1	-1E+10	1
4902549	80	C	10/29/2022	00:07	-132.588	47.090	0	452.80	0	4.8790	0	34.0210	0	26.917	0	448.547	0	38.5	4	12.4	4	-1E+10	1	-1E+10	1	-1E+10	1	-1E+10	1	-1E+10	1	-1E+10	1
4902549	80	C	10/29/2022	00:07	-132.588	47.090	0	457.90	0	4.8620	0	34.0240	0	26.921	0	453.593	0	37.0	4	11.9	4	-1E+10	1	-1E+10	1	-1E+10	1	-1E+10	1	-1E+10	1	-1E+10	1
4902549	80	C	10/29/2022	00:07	-132.588	47.090	0	463.00	0	4.8670	0	34.0310	0	26.926	0	458.640	0	35.6	4	11.5	4	-1E+10	1	-1E+10	1	-1E+10	1	-1E+10	1	-1E+10	1	-1E+10	1
4902549	80	C	10/29/2022	00:07	-132.588	47.090	0	468.30	0	4.8550	0	34.0350	0	26.931	0	463.884	0	34.7	4	11.2	4	-1E+10	1	-1E+10	1	-1E+10	1	-1E+10	1	-1E+10	1	-1E+10	1
4902549	80	C	10/29/2022	00:07	-132.588	47.090	0	473.20	0	4.8380	0	34.0390	0	26.936	0	468.732	0	33.9	4	10.9	4	-1E+10	1	-1E+10	1	-1E+10	1	-1E+10	1	-1E+10	1	-1E+10	1
4902549	80	C	10/29/2022	00:07	-132.588	47.090	0	478.10	0	4.8230	0	34.0420	0	26.940	0	473.580	0	33.1	4	10.6	4	-1E+10	1	-1E+10	1	-1E+10	1	-1E+10	1	-1E+10	1	-1E+10	1
4902549	80	C	10/29/2022	00:07	-132.588	47.090	0	482.90	0	4.8050	0	34.0450	0	26.944	0	478.329	0	32.3	4	10.4	4	-1E+10	1	-1E+10	1	-1E+10	1	-1E+10	1	-1E+10	1	-1E+10	1
4902549	80	C	10/29/2022	00:07	-132.588	47.090	0	487.80	0	4.7810	0	34.0480	0	26.950	0	483.177	0	31.5	4	10.1	4	-1E+10	1	-1E+10	1	-1E+10	1	-1E+10	1	-1E+10	1	-1E+10	1
4902549	80	C	10/29/2022	00:07	-132.588	47.090	0	492.70	0	4.7760	0	34.0530	0	26.954	0	488.025	0	30.9	4	9.9	4	-1E+10	1	-1E+10	1	-1E+10	1	-1E+10	1	-1E+10	1	-1E+10	1
4902549	80	C	10/29/2022	00:07	-132.588	47.090	0	497.60	0	4.7530	0	34.0560	0	26.959	0	492.873	0	30.4	4	9.8	4	-1E+10	1	-1E+10	1	-1E+10	1	-1E+10	1	-1E+10	1	-1E+10	1
4902549	80	C	10/29/2022	00:07	-132.588	47.090	0	502.50	0	4.7240	0	34.0560	0	26.962	0	497.721	0	29.8	4	9.6	4	-1E+10	1	-1E+10	1	-1E+10	1	-1E+10	1	-1E+10	1	-1E+10	1
4902549	80	C	10/29/2022	00:07	-132.588	47.090	0	507.80	0	4.7000	0	34.0580	0	26.967	0	502.964	0	28.7	4	9.2	4	-1E+10	1	-1E+10	1	-1E+10	1	-1E+10	1	-1E+10	1	-1E+10	1
4902549	80	C	10/29/2022	00:07	-132.588	47.090	0	513.00	0	4.6690	0	34.0640	0	26.975	0	508.108	0	27.4	4	8.8	4	-1E+10	1	-1E+10	1	-1E+10	1	-1E+10	1	-1E+10	1	-1E+10	1
4902549	80	C	10/29/2022	00:07	-132.588	47.090	0	517.70	0	4.6650	0	34.0710	0	26.981	0	512.757	0	26.3	4	8.4	4	-1E+10	1	-1E+10	1	-1E+10	1	-1E+10	1	-1E+10	1	-1E+10	1
4902549	80	C	10/29/2022	00:07	-132.588	47.090	0	522.90	0	4.6490	0	34.0760	0	26.987	0	517.901	0	25.3	4	8.1	4	-1E+10	1	-1E+10	1	-1E+10	1	-1E+10	1	-1E+10	1	-1E+10	1
4902549	80	C	10/29/2022	00:07	-132.588	47.090	0	528.20	0	4.6350	0	34.0810	0	26.992	0	523.144	0	24.4	4	7.8	4	-1E+10	1	-1E+10	1	-1E+10	1	-1E+10	1	-1E+10	1	-1E+10	1
4902549	80	C	10/29/2022	00:07	-132.588	47.090	0	532.90	0	4.6110	0	34.0830	0	26.996	0	527.793	0	23.5	4	7.5	4	-1E+10	1	-1E+10	1	-1E+10	1	-1E+10	1	-1E+10	1	-1E+10	1
4902549	80	C	10/29/2022	00:07	-132.588	47.090	0	537.60	0	4.5860	0	34.0920	0	27.006	0	532.442	0	22.7	4	7.3	4	-1E+10	1	-1E+10	1	-1E+10	1	-1E+10	1	-1E+10	1	-1E+10	1
4902549	80	C	10/29/2022	00:07	-132.588	47.090	0	542.90	0	4.5760	0	34.0960	0	27.011	0	537.684	0	22.1	4	7.1	4	-1E+10	1	-1E+10	1	-1E+10	1	-1E+10	1	-1E+10	1	-1E+10	1
4902549	80	C	10/29/2022	00:07	-132.588	47.090	0	548.20	0	4.5740	0	34.0990	0	27.013	0	542.926	0	21.6	4	6.9	4	-1E+10	1	-1E+10	1	-1E+10	1	-1E+10	1	-1E+10	1	-1E+10	1
4902549	80	C	10/29/2022	00:07	-132.588	47.090	0	553.00	0	4.5610	0	34.1030	0	27.018	0	547.674	0	21.2	4	6.8	4	-1E+10	1	-1E+10	1	-1E+10	1	-1E+10	1	-1E+10	1	-1E+10	1
4902549	80	C	10/29/2022	00:07	-132.588	47.090	0	557.80	0	4.5360	0	34.1040	0	27.021	0	552.421	0	20.8	4	6.6	4	-1E+10	1	-1E+10	1	-1E+10	1	-1E+10	1	-1E+10	1	-1E+10	1
4902549	80	C	10/29/2022	00:07	-132.588	47.090	0	562.70	0	4.5060	0	34.1070	0	27.027	0	557.267	0	20.1	4	6.4	4	-1E+10	1	-1E+10	1	-1E+10	1	-1E+10	1	-1E+10	1	-1E+10	1
4902549	80	C	10/29/2022	00:07	-132.588	47.090	0	567.60	0	4.5040	0	34.1130	0	27.032	0	562.113	0	19.4	4	6.2	4	-1E+10	1	-1E+10	1	-1E+10	1	-1E+10	1	-1E+10	1	-1E+10	1
4902549	80	C	10/29/2022	00:07	-132.588	47.090	0	572.50	0	4.4760	0	34.1140	0	27.036	0	566.959	0	19.0	4	6.1	4	-1E+10	1	-1E+10	1	-1E+10	1	-1E+10	1	-1E+10	1	-1E+10	1
4902549	80	C	10/29/2022	00:07	-132.588	47.090	0	577.50	0	4.4610	0	34.1170	0	27.040	0	571.904	0	18.0	4	5.7	4	-1E+10	1	-1E+10	1	-1E+10	1	-1E+10	1	-1E+10	1	-1E+10	1
4902549	80	C	10/29/2022	00:07	-132.588	47.090	0	582.50	0	4.4680	0	34.1230	0	27.044	0	576.849	0	17.0	4	5.4	4	-1E+10	1	-1E+10	1	-1E+10	1	-1E+10	1	-1E+10	1	-1E+10	1
4902549	80	C	10/29/2022	00:07	-132.588	47.090	0	587.80	0	4.4700	0	34.1320	0	27.051	0	582.090	0	16.2	4	5.2	4	-1E+10	1	-1E+10	1	-1E+10	1	-1E+10	1	-1E+10	1	-1E+10	1
4902549	80	C	10/29/2022	00:07	-132.588	47.090	0	592.80	0	4.4610	0	34.1370	0	27.056	0	587.034	0	15.8	4	5.0	4	-1E+10	1	-1E+10	1	-1E+10	1	-1E+10	1	-1E+10	1	-1E+10	1
4902549	80	C	10/29/2022	00:07	-132.588	47.090	0	598.00	0	4.4500	0	34.1410	0	27.060	0	592.176	0	15.5	4	4.9	4	-1E+10	1	-1E+10	1	-1E+10	1	-1E+10	1	-1E+10	1	-1E+10	1
4902549	80	C	10/29/2022	00:07	-132.588	47.090	0	603.20	0	4.4390	0	34.1430	0	27.063	0	597.318	0	15.3	4	4.9	4	-1E+10	1	-1E+10	1	-1E+10	1	-1E+10	1	-1E+10	1	-1E+10	1
4902549	80	C	10/29/2022	00:07	-132.588	47.090	0	608.20	0	4.4150	0	34.1450	0	27.067	0	602.262	0	15.1	4	4.8	4	-1E+10	1	-1E+10	1	-1E+10	1	-1E+10	1	-1E+10	1	-1E+10	1
4902549	80	C	10/29/2022	00:07	-132.588	47.090	0	612.90	0	4.3730	0	34.1450	0	27.072	0	606.909	0	14.9	4	4.7	4	-1E+10	1	-1E+10	1	-1E+10	1	-1E+10	1	-1E+10	1	-1E+10	1
4902549	80	C	10/29/2022	00:07	-132.588	47.090	0	617.70	0	4.3470	0	34.1460	0	27.075	0	611.655	0	14.3	4	4.6	4	-1E+10	1	-1E+10	1	-1E+10	1	-1E+10	1	-1E+10	1	-1E+10	1
4902549	80	C	10/29/2022	00:07	-132.588	47.090	0	623.00	0	4.3580	0	34.1540	0	27.081	0	616.896	0	13.6	4	4.3	4	-1E+10	1	-1E+10	1	-1E+10	1	-1E+10	1	-1E+10	1	-1E+10	1
4902549	80	C	10/29/2022	00:07	-132.588	47.090	0	627.90	0	4.3370	0	34.1570	0	27.085	0	621.740	0	13.3	4	4.2	4	-1E+10	1	-1E+10	1	-1E+10	1	-1E+10	1	-1E+10	1	-1E+10	1
4902549	80	C	10/29/2022	00:07	-132.588	47.090	0	632.90	0	4.3330	0	34.1600	0	27.088	0	626.684	0	12.5	4	4.0	4	-1E+10	1	-1E+10	1	-1E+10	1	-1E+10	1	-1E+10	1	-1E+10	1
4902549	80	C	10/29/2022	00:07	-132.588	47.090	0	638.00	0	4.3680	0	34.1710	0	27.093	0	631.726	0	12.0	4	3.8	4	-1E+10	1	-1E+10	1	-1E+10	1	-1E+10	1	-1E+10	1	-1E+10	1
4902549	80	C	10/29/2022	00:07	-132.588	47.090	0	643.10	0	4.3520	0	34.1730	0	27.097	0	636.768	0	11.8	4	3.7	4	-1E+10	1	-1E+10	1	-1E+10	1	-1E+10	1	-1E+10	1	-1E+10	1
4902549	80	C	10/29/2022	00:07	-132.588	47.090	0	648.20	0	4.3280	0	34.1770	0	27.102	0	641.810	0	11.5	4	3.7	4	-1E+10	1	-1E+10	1	-1E+10	1	-1E+10	1	-1E+10	1	-1E+10	1
4902549	80	C	10/29/2022	00:07	-132.588	47.090	0	652.80	0	4.3220	0	34.1780	0	27.104	0	646.358	0	11.3	4	3.6	4	-1E+10	1	-1E+10	1	-1E+10	1	-1E+10	1	-1E+10	1	-1E+10	1
4902549	80	C	10/29/2022	00:07	-132.588	47.090	0	658.00	0	4.3130	0	34.1800	0	27.106	0	651.498	0	11.0	4	3.5	4	-1E+10	1	-1E+10	1	-1E+10	1	-1E+10	1	-1E+10	1	-1E+10	1
4902549	80	C	10/29/2022	00:07	-132.588	47.090	0	663.30	0	4.3060	0	34.1850	0	27.111	0	656.737	0	10.7	4	3.4	4	-1E+10	1	-1E+10	1	-1E+10	1	-1E+10	1	-1E+10	1	-1E+10	1
4902549	80	C	10/29/2022	00:07	-132.588	47.090	0	668.00	0	4.2860	0	34.1860	0	27.114	0	661.383	0	10.5	4	3.3	4	-1E+10	1	-1E+10	1	-1E+10	1	-1E+10	1	-1E+10	1	-1E+10	1
4902549	80	C	10/29/2022	00:07	-132.588	47.090	0	672.90	0	4.2810	0	34.1900	0	27.118	0	666.227	0	10.2	4	3.2	4	-1E+10	1	-1E+10	1	-1E+10	1	-1E+10	1	-1E+10	1	-1E+10	1
4902549	80	C	10/29/2022	00:07	-132.588	47.090	0	677.70	0	4.2650	0	34.1930	0	27.122	0	670.972	0	9.8	4	3.1	4	-1E+10	1	-1E+10	1	-1E+10	1	-1E+10	1	-1E+10	1	-1E+10	1
4902549	80	C	10/29/2022	00:07	-132.588	47.090	0	682.90	0	4.2640	0	34.2000	0	27.128	0	676.112	0	9.4	4	3.0	4	-1E+10	1	-1E+10	1	-1E+10	1	-1E+10	1	-1E+10	1	-1E+10	1
4902549	80	C	10/29/2022	00:07	-132.588	47.090	0	688.20	0	4.2570	0	34.2040	0	27.132	0	681.350	0	9.1	4	2.9	4	-1E+10	1	-1E+10	1	-1E+10	1	-1E+10	1	-1E+10	1	-1E+10	1
4902549	80	C	10/29/2022	00:07	-132.588	47.090	0	693.00	0	4.2380	0	34.2080	0	27.137	0	686.095	0	8.9	4	2.8	4	-1E+10	1	-1E+10	1	-1E+10	1	-1E+10	1	-1E+10	1	-1E+10	1
4902549	80	C	10/29/2022	00:07	-132.588	47.090	0	697.70	0	4.2250	0	34.2120	0	27.141	0	690.740	0	8.7	4	2.8	4	-1E+10	1	-1E+10	1	-1E+10	1	-1E+10	1	-1E+10	1	-1E+10	1
4902549	80	C	10/29/2022	00:07	-132.588	47.090	0	702.90	0	4.2120	0	34.2160	0	27.146	0	695.880	0	8.5	4	2.7	4	-1E+10	1	-1E+10	1	-1E+10	1	-1E+10	1	-1E+10	1	-1E+10	1
4902549	80	C	10/29/2022	00:07	-132.588	47.090	0	708.00	0	4.1920	0	34.2180	0	27.150	0	700.920	0	8.4	4	2.7	4	-1E+10	1	-1E+10	1	-1E+10	1	-1E+10	1	-1E+10	1	-1E+10	1
4902549	80	C	10/29/2022	00:07	-132.588	47.090	0	712.60	0	4.1560	0	34.2200	0	27.155	0	705.466	0	8.3	4	2.6	4	-1E+10	1	-1E+10	1	-1E+10	1	-1E+10	1	-1E+10	1	-1E+10	1
4902549	80	C	10/29/2022	00:07	-132.588	47.090	0	717.80	0	4.1360	0	34.2220	0	27.159	0	710.605	0	8.1	4	2.6	4	-1E+10	1	-1E+10	1	-1E+10	1	-1E+10	1	-1E+10	1	-1E+10	1
4902549	80	C	10/29/2022	00:07	-132.588	47.090	0	722.80	0	4.1420	0	34.2260	0	27.161	0	715.547	0	8.0	4	2.5	4	-1E+10	1	-1E+10	1	-1E+10	1	-1E+10	1	-1E+10	1	-1E+10	1
4902549	80	C	10/29/2022	00:07	-132.588	47.090	0	728.00	0	4.1260	0	34.2290	0	27.165	0	720.685	0	7.8	4	2.5	4	-1E+10	1	-1E+10	1	-1E+10	1	-1E+10	1	-1E+10	1	-1E+10	1
4902549	80	C	10/29/2022	00:07	-132.588	47.090	0	733.10	0	4.1010	0	34.2320	0	27.170	0	725.725	0	7.7	4	2.4	4	-1E+10	1	-1E+10	1	-1E+10	1	-1E+10	1	-1E+10	1	-1E+10	1
4902549	80	C	10/29/2022	00:07	-132.588	47.090	0	737.70	0	4.0920	0	34.2350	0	27.174	0	730.271	0	7.5	4	2.4	4	-1E+10	1	-1E+10	1	-1E+10	1	-1E+10	1	-1E+10	1	-1E+10	1
4902549	80	C	10/29/2022	00:07	-132.588	47.090	0	742.70	0	4.0770	0	34.2380	0	27.178	0	735.212	0	7.4	4	2.3	4	-1E+10	1	-1E+10	1	-1E+10	1	-1E+10	1	-1E+10	1	-1E+10	1
4902549	80	C	10/29/2022	00:07	-132.588	47.090	0	747.90	0	4.0670	0	34.2410	0	27.181	0	740.350	0	7.3	4	2.3	4	-1E+10	1	-1E+10	1	-1E+10	1	-1E+10	1	-1E+10	1	-1E+10	1
4902549	80	C	10/29/2022	00:07	-132.588	47.090	0	752.60	0	4.0590	0	34.2430	0	27.184	0	744.994	0	7.2	4	2.3	4	-1E+10	1	-1E+10	1	-1E+10	1	-1E+10	1	-1E+10	1	-1E+10	1
4902549	80	C	10/29/2022	00:07	-132.588	47.090	0	757.90	0	4.0400	0	34.2460	0	27.188	0	750.231	0	7.1	4	2.2	4	-1E+10	1	-1E+10	1	-1E+10	1	-1E+10	1	-1E+10	1	-1E+10	1
4902549	80	C	10/29/2022	00:07	-132.588	47.090	0	763.20	0	4.0120	0	34.2490	0	27.193	0	755.468	0	7.1	4	2.2	4	-1E+10	1	-1E+10	1	-1E+10	1	-1E+10	1	-1E+10	1	-1E+10	1
4902549	80	C	10/29/2022	00:07	-132.588	47.090	0	768.10	0	3.9960	0	34.2500	0	27.196	0	760.310	0	7.0	4	2.2	4	-1E+10	1	-1E+10	1	-1E+10	1	-1E+10	1	-1E+10	1	-1E+10	1
4902549	80	C	10/29/2022	00:07	-132.588	47.090	0	773.10	0	3.9850	0	34.2530	0	27.199	0	765.250	0	6.8	4	2.1	4	-1E+10	1	-1E+10	1	-1E+10	1	-1E+10	1	-1E+10	1	-1E+10	1
4902549	80	C	10/29/2022	00:07	-132.588	47.090	0	778.10	0	3.9720	0	34.2580	0	27.205	0	770.190	0	6.7	4	2.1	4	-1E+10	1	-1E+10	1	-1E+10	1	-1E+10	1	-1E+10	1	-1E+10	1
4902549	80	C	10/29/2022	00:07	-132.588	47.090	0	783.10	0	3.9610	0	34.2600	0	27.207	0	775.130	0	6.6	4	2.1	4	-1E+10	1	-1E+10	1	-1E+10	1	-1E+10	1	-1E+10	1	-1E+10	1
4902549	80	C	10/29/2022	00:07	-132.588	47.090	0	788.00	0	3.9490	0	34.2630	0	27.211	0	779.971	0	6.5	4	2.1	4	-1E+10	1	-1E+10	1	-1E+10	1	-1E+10	1	-1E+10	1	-1E+10	1
4902549	80	C	10/29/2022	00:07	-132.588	47.090	0	792.90	0	3.9380	0	34.2660	0	27.215	0	784.811	0	6.4	4	2.0	4	-1E+10	1	-1E+10	1	-1E+10	1	-1E+10	1	-1E+10	1	-1E+10	1
4902549	80	C	10/29/2022	00:07	-132.588	47.090	0	798.00	0	3.9180	0	34.2680	0	27.218	0	789.850	0	6.4	4	2.0	4	-1E+10	1	-1E+10	1	-1E+10	1	-1E+10	1	-1E+10	1	-1E+10	1
4902549	80	C	10/29/2022	00:07	-132.588	47.090	0	803.20	0	3.9010	0	34.2720	0	27.223	0	794.987	0	6.3	4	2.0	4	-1E+10	1	-1E+10	1	-1E+10	1	-1E+10	1	-1E+10	1	-1E+10	1
4902549	80	C	10/29/2022	00:07	-132.588	47.090	0	808.20	0	3.8900	0	34.2740	0	27.226	0	799.926	0	6.2	4	2.0	4	-1E+10	1	-1E+10	1	-1E+10	1	-1E+10	1	-1E+10	1	-1E+10	1
4902549	80	C	10/29/2022	00:07	-132.588	47.090	0	812.90	0	3.8800	0	34.2760	0	27.229	0	804.569	0	6.2	4	1.9	4	-1E+10	1	-1E+10	1	-1E+10	1	-1E+10	1	-1E+10	1	-1E+10	1
4902549	80	C	10/29/2022	00:07	-132.588	47.090	0	817.70	0	3.8630	0	34.2790	0	27.233	0	809.310	0	6.2	4	1.9	4	-1E+10	1	-1E+10	1	-1E+10	1	-1E+10	1	-1E+10	1	-1E+10	1
4902549	80	C	10/29/2022	00:07	-132.588	47.090	0	823.10	0	3.8460	0	34.2830	0	27.238	0	814.644	0	6.1	4	1.9	4	-1E+10	1	-1E+10	1	-1E+10	1	-1E+10	1	-1E+10	1	-1E+10	1
4902549	80	C	10/29/2022	00:07	-132.588	47.090	0	828.20	0	3.8290	0	34.2850	0	27.241	0	819.682	0	6.1	4	1.9	4	-1E+10	1	-1E+10	1	-1E+10	1	-1E+10	1	-1E+10	1	-1E+10	1
4902549	80	C	10/29/2022	00:07	-132.588	47.090	0	832.80	0	3.8130	0	34.2870	0	27.244	0	824.226	0	6.0	4	1.9	4	-1E+10	1	-1E+10	1	-1E+10	1	-1E+10	1	-1E+10	1	-1E+10	1
4902549	80	C	10/29/2022	00:07	-132.588	47.090	0	838.00	0	3.8080	0	34.2910	0	27.248	0	829.362	0	5.9	4	1.9	4	-1E+10	1	-1E+10	1	-1E+10	1	-1E+10	1	-1E+10	1	-1E+10	1
4902549	80	C	10/29/2022	00:07	-132.588	47.090	0	843.30	0	3.7980	0	34.2940	0	27.251	0	834.597	0	5.9	4	1.8	4	-1E+10	1	-1E+10	1	-1E+10	1	-1E+10	1	-1E+10	1	-1E+10	1
4902549	80	C	10/29/2022	00:07	-132.588	47.090	0	848.20	0	3.7830	0	34.2970	0	27.255	0	839.436	0	5.9	4	1.8	4	-1E+10	1	-1E+10	1	-1E+10	1	-1E+10	1	-1E+10	1	-1E+10	1
4902549	80	C	10/29/2022	00:07	-132.588	47.090	0	853.20	0	3.7730	0	34.2990	0	27.258	0	844.375	0	5.8	4	1.8	4	-1E+10	1	-1E+10	1	-1E+10	1	-1E+10	1	-1E+10	1	-1E+10	1
4902549	80	C	10/29/2022	00:07	-132.588	47.090	0	858.20	0	3.7570	0	34.3010	0	27.261	0	849.313	0	5.8	4	1.8	4	-1E+10	1	-1E+10	1	-1E+10	1	-1E+10	1	-1E+10	1	-1E+10	1
4902549	80	C	10/29/2022	00:07	-132.588	47.090	0	863.10	0	3.7330	0	34.3040	0	27.266	0	854.152	0	5.8	4	1.8	4	-1E+10	1	-1E+10	1	-1E+10	1	-1E+10	1	-1E+10	1	-1E+10	1
4902549	80	C	10/29/2022	00:07	-132.588	47.090	0	868.00	0	3.7270	0	34.3070	0	27.269	0	858.991	0	5.7	4	1.8	4	-1E+10	1	-1E+10	1	-1E+10	1	-1E+10	1	-1E+10	1	-1E+10	1
4902549	80	C	10/29/2022	00:07	-132.588	47.090	0	872.90	0	3.7200	0	34.3100	0	27.272	0	863.830	0	5.7	4	1.8	4	-1E+10	1	-1E+10	1	-1E+10	1	-1E+10	1	-1E+10	1	-1E+10	1
4902549	80	C	10/29/2022	00:07	-132.588	47.090	0	877.80	0	3.7110	0	34.3140	0	27.276	0	868.669	0	5.7	4	1.8	4	-1E+10	1	-1E+10	1	-1E+10	1	-1E+10	1	-1E+10	1	-1E+10	1
4902549	80	C	10/29/2022	00:07	-132.588	47.090	0	882.70	0	3.6950	0	34.3150	0	27.279	0	873.508	0	5.7	4	1.8	4	-1E+10	1	-1E+10	1	-1E+10	1	-1E+10	1	-1E+10	1	-1E+10	1
4902549	80	C	10/29/2022	00:07	-132.588	47.090	0	887.60	0	3.6770	0	34.3180	0	27.283	0	878.346	0	5.7	4	1.8	4	-1E+10	1	-1E+10	1	-1E+10	1	-1E+10	1	-1E+10	1	-1E+10	1
4902549	80	C	10/29/2022	00:07	-132.588	47.090	0	892.90	0	3.6510	0	34.3210	0	27.288	0	883.580	0	5.8	4	1.8	4	-1E+10	1	-1E+10	1	-1E+10	1	-1E+10	1	-1E+10	1	-1E+10	1
4902549	80	C	10/29/2022	00:07	-132.588	47.090	0	898.30	0	3.6360	0	34.3240	0	27.292	0	888.912	0	5.8	4	1.8	4	-1E+10	1	-1E+10	1	-1E+10	1	-1E+10	1	-1E+10	1	-1E+10	1
4902549	80	C	10/29/2022	00:07	-132.588	47.090	0	903.20	0	3.6220	0	34.3260	0	27.295	0	893.751	0	5.8	4	1.8	4	-1E+10	1	-1E+10	1	-1E+10	1	-1E+10	1	-1E+10	1	-1E+10	1
4902549	80	C	10/29/2022	00:07	-132.588	47.090	0	908.20	0	3.6080	0	34.3290	0	27.298	0	898.687	0	5.8	4	1.8	4	-1E+10	1	-1E+10	1	-1E+10	1	-1E+10	1	-1E+10	1	-1E+10	1
4902549	80	C	10/29/2022	00:07	-132.588	47.090	0	913.10	0	3.6000	0	34.3310	0	27.301	0	903.526	0	5.8	4	1.8	4	-1E+10	1	-1E+10	1	-1E+10	1	-1E+10	1	-1E+10	1	-1E+10	1
4902549	80	C	10/29/2022	00:07	-132.588	47.090	0	918.00	0	3.5910	0	34.3340	0	27.304	0	908.364	0	5.8	4	1.8	4	-1E+10	1	-1E+10	1	-1E+10	1	-1E+10	1	-1E+10	1	-1E+10	1
4902549	80	C	10/29/2022	00:07	-132.588	47.090	0	922.90	0	3.5770	0	34.3370	0	27.308	0	913.201	0	5.8	4	1.8	4	-1E+10	1	-1E+10	1	-1E+10	1	-1E+10	1	-1E+10	1	-1E+10	1
4902549	80	C	10/29/2022	00:07	-132.588	47.090	0	927.70	0	3.5450	0	34.3370	0	27.311	0	917.940	0	5.9	4	1.8	4	-1E+10	1	-1E+10	1	-1E+10	1	-1E+10	1	-1E+10	1	-1E+10	1
4902549	80	C	10/29/2022	00:07	-132.588	47.090	0	932.70	0	3.5360	0	34.3380	0	27.313	0	922.877	0	5.9	4	1.9	4	-1E+10	1	-1E+10	1	-1E+10	1	-1E+10	1	-1E+10	1	-1E+10	1
4902549	80	C	10/29/2022	00:07	-132.588	47.090	0	937.50	0	3.5160	0	34.3400	0	27.316	0	927.616	0	5.9	4	1.9	4	-1E+10	1	-1E+10	1	-1E+10	1	-1E+10	1	-1E+10	1	-1E+10	1
4902549	80	C	10/29/2022	00:07	-132.588	47.090	0	942.80	0	3.5170	0	34.3430	0	27.319	0	932.848	0	5.9	4	1.9	4	-1E+10	1	-1E+10	1	-1E+10	1	-1E+10	1	-1E+10	1	-1E+10	1
4902549	80	C	10/29/2022	00:07	-132.588	47.090	0	948.10	0	3.4910	0	34.3430	0	27.321	0	938.080	0	6.0	4	1.9	4	-1E+10	1	-1E+10	1	-1E+10	1	-1E+10	1	-1E+10	1	-1E+10	1
4902549	80	C	10/29/2022	00:07	-132.588	47.090	0	953.10	0	3.4790	0	34.3470	0	27.325	0	943.016	0	6.0	4	1.9	4	-1E+10	1	-1E+10	1	-1E+10	1	-1E+10	1	-1E+10	1	-1E+10	1
4902549	80	C	10/29/2022	00:07	-132.588	47.090	0	958.00	0	3.4600	0	34.3510	0	27.330	0	947.853	0	6.0	4	1.9	4	-1E+10	1	-1E+10	1	-1E+10	1	-1E+10	1	-1E+10	1	-1E+10	1
4902549	80	C	10/29/2022	00:07	-132.588	47.090	0	963.00	0	3.4660	0	34.3550	0	27.333	0	952.789	0	6.0	4	1.9	4	-1E+10	1	-1E+10	1	-1E+10	1	-1E+10	1	-1E+10	1	-1E+10	1
4902549	80	C	10/29/2022	00:07	-132.588	47.090	0	968.10	0	3.4570	0	34.3590	0	27.337	0	957.823	0	6.0	4	1.9	4	-1E+10	1	-1E+10	1	-1E+10	1	-1E+10	1	-1E+10	1	-1E+10	1
4902549	80	C	10/29/2022	00:07	-132.588	47.090	0	973.20	0	3.4490	0	34.3610	0	27.340	0	962.857	0	6.1	4	1.9	4	-1E+10	1	-1E+10	1	-1E+10	1	-1E+10	1	-1E+10	1	-1E+10	1
4902549	80	C	10/29/2022	00:07	-132.588	47.090	0	977.90	0	3.4240	0	34.3630	0	27.344	0	967.496	0	6.1	4	1.9	4	-1E+10	1	-1E+10	1	-1E+10	1	-1E+10	1	-1E+10	1	-1E+10	1
4902549	80	C	10/29/2022	00:07	-132.588	47.090	0	982.50	0	3.4180	0	34.3650	0	27.346	0	972.037	0	6.1	4	1.9	4	-1E+10	1	-1E+10	1	-1E+10	1	-1E+10	1	-1E+10	1	-1E+10	1
4902549	80	C	10/29/2022	00:07	-132.588	47.090	0	988.10	0	3.4030	0	34.3670	0	27.349	0	977.564	0	6.2	4	1.9	4	-1E+10	1	-1E+10	1	-1E+10	1	-1E+10	1	-1E+10	1	-1E+10	1
4902549	80	C	10/29/2022	00:07	-132.588	47.090	0	993.20	0	3.3930	0	34.3680	0	27.351	0	982.598	0	6.2	4	1.9	4	-1E+10	1	-1E+10	1	-1E+10	1	-1E+10	1	-1E+10	1	-1E+10	1
4902549	80	C	10/29/2022	00:07	-132.588	47.090	0	997.90	0	3.3840	0	34.3680	0	27.352	0	987.237	0	6.2	4	1.9	4	-1E+10	1	-1E+10	1	-1E+10	1	-1E+10	1	-1E+10	1	-1E+10	1
4902549	80	C	10/29/2022	00:07	-132.588	47.090	0	1005.10	0	3.3790	0	34.3720	0	27.355	0	994.343	0	6.3	4	2.0	4	-1E+10	1	-1E+10	1	-1E+10	1	-1E+10	1	-1E+10	1	-1E+10	1
4902549	80	C	10/29/2022	00:07	-132.588	47.090	0	1015.10	0	3.3620	0	34.3760	0	27.360	0	1004.212	0	6.4	4	2.0	4	-1E+10	1	-1E+10	1	-1E+10	1	-1E+10	1	-1E+10	1	-1E+10	1
4902549	80	C	10/29/2022	00:07	-132.588	47.090	0	1025.40	0	3.3340	0	34.3770	0	27.364	0	1014.376	0	6.5	4	2.0	4	-1E+10	1	-1E+10	1	-1E+10	1	-1E+10	1	-1E+10	1	-1E+10	1
4902549	80	C	10/29/2022	00:07	-132.588	47.090	0	1035.40	0	3.3020	0	34.3800	0	27.369	0	1024.244	0	6.6	4	2.1	4	-1E+10	1	-1E+10	1	-1E+10	1	-1E+10	1	-1E+10	1	-1E+10	1
4902549	80	C	10/29/2022	00:07	-132.588	47.090	0	1045.40	0	3.2790	0	34.3840	0	27.374	0	1034.112	0	6.7	4	2.1	4	-1E+10	1	-1E+10	1	-1E+10	1	-1E+10	1	-1E+10	1	-1E+10	1
4902549	80	C	10/29/2022	00:07	-132.588	47.090	0	1055.50	0	3.2540	0	34.3870	0	27.379	0	1044.078	0	6.9	4	2.1	4	-1E+10	1	-1E+10	1	-1E+10	1	-1E+10	1	-1E+10	1	-1E+10	1
4902549	80	C	10/29/2022	00:07	-132.588	47.090	0	1065.50	0	3.2240	0	34.3920	0	27.386	0	1053.944	0	7.1	4	2.2	4	-1E+10	1	-1E+10	1	-1E+10	1	-1E+10	1	-1E+10	1	-1E+10	1
4902549	80	C	10/29/2022	00:07	-132.588	47.090	0	1075.50	0	3.1980	0	34.3970	0	27.392	0	1063.811	0	7.2	4	2.2	4	-1E+10	1	-1E+10	1	-1E+10	1	-1E+10	1	-1E+10	1	-1E+10	1
4902549	80	C	10/29/2022	00:07	-132.588	47.090	0	1085.30	0	3.1810	0	34.4000	0	27.397	0	1073.479	0	7.4	4	2.3	4	-1E+10	1	-1E+10	1	-1E+10	1	-1E+10	1	-1E+10	1	-1E+10	1
4902549	80	C	10/29/2022	00:07	-132.588	47.090	0	1095.30	0	3.1450	0	34.4020	0	27.401	0	1083.344	0	7.5	4	2.3	4	-1E+10	1	-1E+10	1	-1E+10	1	-1E+10	1	-1E+10	1	-1E+10	1
4902549	80	C	10/29/2022	00:07	-132.588	47.090	0	1105.20	0	3.1030	0	34.4040	0	27.407	0	1093.110	0	7.6	4	2.4	4	-1E+10	1	-1E+10	1	-1E+10	1	-1E+10	1	-1E+10	1	-1E+10	1
4902549	80	C	10/29/2022	00:07	-132.588	47.090	0	1115.30	0	3.0560	0	34.4040	0	27.411	0	1103.074	0	7.7	4	2.4	4	-1E+10	1	-1E+10	1	-1E+10	1	-1E+10	1	-1E+10	1	-1E+10	1
4902549	80	C	10/29/2022	00:07	-132.588	47.090	0	1125.50	0	3.0240	0	34.4090	0	27.418	0	1113.135	0	7.9	4	2.4	4	-1E+10	1	-1E+10	1	-1E+10	1	-1E+10	1	-1E+10	1	-1E+10	1
4902549	80	C	10/29/2022	00:07	-132.588	47.090	0	1135.60	0	3.0150	0	34.4130	0	27.422	0	1123.097	0	8.2	4	2.5	4	-1E+10	1	-1E+10	1	-1E+10	1	-1E+10	1	-1E+10	1	-1E+10	1
4902549	80	C	10/29/2022	00:07	-132.588	47.090	0	1145.60	0	2.9940	0	34.4170	0	27.427	0	1132.960	0	8.5	4	2.6	4	-1E+10	1	-1E+10	1	-1E+10	1	-1E+10	1	-1E+10	1	-1E+10	1
4902549	80	C	10/29/2022	00:07	-132.588	47.090	0	1155.40	0	2.9690	0	34.4220	0	27.434	0	1142.625	0	8.7	4	2.7	4	-1E+10	1	-1E+10	1	-1E+10	1	-1E+10	1	-1E+10	1	-1E+10	1
4902549	80	C	10/29/2022	00:07	-132.588	47.090	0	1165.30	0	2.9370	0	34.4260	0	27.440	0	1152.388	0	9.1	4	2.8	4	-1E+10	1	-1E+10	1	-1E+10	1	-1E+10	1	-1E+10	1	-1E+10	1
4902549	80	C	10/29/2022	00:07	-132.588	47.090	0	1175.40	0	2.9250	0	34.4300	0	27.444	0	1162.348	0	9.3	4	2.9	4	-1E+10	1	-1E+10	1	-1E+10	1	-1E+10	1	-1E+10	1	-1E+10	1
4902549	80	C	10/29/2022	00:07	-132.588	47.090	0	1185.30	0	2.9100	0	34.4320	0	27.447	0	1172.111	0	9.4	4	2.9	4	-1E+10	1	-1E+10	1	-1E+10	1	-1E+10	1	-1E+10	1	-1E+10	1
4902549	80	C	10/29/2022	00:07	-132.588	47.090	0	1195.10	0	2.8860	0	34.4340	0	27.451	0	1181.774	0	9.7	4	3.0	4	-1E+10	1	-1E+10	1	-1E+10	1	-1E+10	1	-1E+10	1	-1E+10	1
4902549	80	C	10/29/2022	00:07	-132.588	47.090	0	1205.20	0	2.8750	0	34.4370	0	27.454	0	1191.733	0	10.0	4	3.1	4	-1E+10	1	-1E+10	1	-1E+10	1	-1E+10	1	-1E+10	1	-1E+10	1
4902549	80	C	10/29/2022	00:07	-132.588	47.090	0	1215.20	0	2.8650	0	34.4410	0	27.459	0	1201.593	0	10.4	4	3.2	4	-1E+10	1	-1E+10	1	-1E+10	1	-1E+10	1	-1E+10	1	-1E+10	1
4902549	80	C	10/29/2022	00:07	-132.588	47.090	0	1225.40	0	2.8670	0	34.4460	0	27.462	0	1211.649	0	11.0	4	3.4	4	-1E+10	1	-1E+10	1	-1E+10	1	-1E+10	1	-1E+10	1	-1E+10	1
4902549	80	C	10/29/2022	00:07	-132.588	47.090	0	1235.10	0	2.8510	0	34.4510	0	27.468	0	1221.212	0	11.5	4	3.5	4	-1E+10	1	-1E+10	1	-1E+10	1	-1E+10	1	-1E+10	1	-1E+10	1
4902549	80	C	10/29/2022	00:07	-132.588	47.090	0	1245.10	0	2.8380	0	34.4550	0	27.472	0	1231.071	0	11.9	4	3.7	4	-1E+10	1	-1E+10	1	-1E+10	1	-1E+10	1	-1E+10	1	-1E+10	1
4902549	80	C	10/29/2022	00:07	-132.588	47.090	0	1255.00	0	2.8130	0	34.4580	0	27.477	0	1240.830	0	12.4	4	3.8	4	-1E+10	1	-1E+10	1	-1E+10	1	-1E+10	1	-1E+10	1	-1E+10	1
4902549	80	C	10/29/2022	00:07	-132.588	47.090	0	1265.10	0	2.8000	0	34.4630	0	27.482	0	1250.786	0	12.9	4	4.0	4	-1E+10	1	-1E+10	1	-1E+10	1	-1E+10	1	-1E+10	1	-1E+10	1
4902549	80	C	10/29/2022	00:07	-132.588	47.090	0	1275.30	0	2.7870	0	34.4650	0	27.485	0	1260.840	0	13.2	4	4.0	4	-1E+10	1	-1E+10	1	-1E+10	1	-1E+10	1	-1E+10	1	-1E+10	1
4902549	80	C	10/29/2022	00:07	-132.588	47.090	0	1285.60	0	2.7780	0	34.4670	0	27.487	0	1270.992	0	13.6	4	4.2	4	-1E+10	1	-1E+10	1	-1E+10	1	-1E+10	1	-1E+10	1	-1E+10	1
4902549	80	C	10/29/2022	00:07	-132.588	47.090	0	1295.50	0	2.7650	0	34.4700	0	27.491	0	1280.749	0	14.0	4	4.3	4	-1E+10	1	-1E+10	1	-1E+10	1	-1E+10	1	-1E+10	1	-1E+10	1
4902549	80	C	10/29/2022	00:07	-132.588	47.090	0	1305.60	0	2.7460	0	34.4720	0	27.494	0	1290.704	0	14.4	4	4.4	4	-1E+10	1	-1E+10	1	-1E+10	1	-1E+10	1	-1E+10	1	-1E+10	1
4902549	80	C	10/29/2022	00:07	-132.588	47.090	0	1315.80	0	2.7360	0	34.4750	0	27.498	0	1300.756	0	14.8	4	4.5	4	-1E+10	1	-1E+10	1	-1E+10	1	-1E+10	1	-1E+10	1	-1E+10	1
4902549	80	C	10/29/2022	00:07	-132.588	47.090	0	1325.40	0	2.7270	0	34.4770	0	27.500	0	1310.216	0	15.1	4	4.6	4	-1E+10	1	-1E+10	1	-1E+10	1	-1E+10	1	-1E+10	1	-1E+10	1
4902549	80	C	10/29/2022	00:07	-132.588	47.090	0	1335.10	0	2.7120	0	34.4790	0	27.503	0	1319.775	0	15.4	4	4.7	4	-1E+10	1	-1E+10	1	-1E+10	1	-1E+10	1	-1E+10	1	-1E+10	1
4902549	80	C	10/29/2022	00:07	-132.588	47.090	0	1345.40	0	2.7060	0	34.4800	0	27.504	0	1329.924	0	15.8	4	4.8	4	-1E+10	1	-1E+10	1	-1E+10	1	-1E+10	1	-1E+10	1	-1E+10	1
4902549	80	C	10/29/2022	00:07	-132.588	47.090	0	1355.30	0	2.6880	0	34.4820	0	27.508	0	1339.679	0	16.1	4	4.9	4	-1E+10	1	-1E+10	1	-1E+10	1	-1E+10	1	-1E+10	1	-1E+10	1
4902549	80	C	10/29/2022	00:07	-132.588	47.090	0	1365.30	0	2.6730	0	34.4840	0	27.511	0	1349.531	0	16.5	4	5.1	4	-1E+10	1	-1E+10	1	-1E+10	1	-1E+10	1	-1E+10	1	-1E+10	1
4902549	80	C	10/29/2022	00:07	-132.588	47.090	0	1375.30	0	2.6590	0	34.4870	0	27.514	0	1359.384	0	16.9	4	5.2	4	-1E+10	1	-1E+10	1	-1E+10	1	-1E+10	1	-1E+10	1	-1E+10	1
4902549	80	C	10/29/2022	00:07	-132.588	47.090	0	1385.30	0	2.6490	0	34.4870	0	27.515	0	1369.235	0	17.1	4	5.2	4	-1E+10	1	-1E+10	1	-1E+10	1	-1E+10	1	-1E+10	1	-1E+10	1
4902549	80	C	10/29/2022	00:07	-132.588	47.090	0	1395.40	0	2.6340	0	34.4880	0	27.517	0	1379.185	0	17.5	4	5.4	4	-1E+10	1	-1E+10	1	-1E+10	1	-1E+10	1	-1E+10	1	-1E+10	1
4902549	80	C	10/29/2022	00:07	-132.588	47.090	0	1405.50	0	2.6370	0	34.4920	0	27.520	0	1389.135	0	18.0	4	5.5	4	-1E+10	1	-1E+10	1	-1E+10	1	-1E+10	1	-1E+10	1	-1E+10	1
4902549	80	C	10/29/2022	00:07	-132.588	47.090	0	1415.60	0	2.6250	0	34.4930	0	27.522	0	1399.084	0	18.2	4	5.6	4	-1E+10	1	-1E+10	1	-1E+10	1	-1E+10	1	-1E+10	1	-1E+10	1
4902549	80	C	10/29/2022	00:07	-132.588	47.090	0	1425.50	0	2.6050	0	34.4930	0	27.524	0	1408.835	0	18.5	4	5.7	4	-1E+10	1	-1E+10	1	-1E+10	1	-1E+10	1	-1E+10	1	-1E+10	1
4902549	80	C	10/29/2022	00:07	-132.588	47.090	0	1435.80	0	2.5850	0	34.4960	0	27.528	0	1418.980	0	19.2	4	5.9	4	-1E+10	1	-1E+10	1	-1E+10	1	-1E+10	1	-1E+10	1	-1E+10	1
4902549	80	C	10/29/2022	00:07	-132.588	47.090	0	1445.10	0	2.5720	0	34.4970	0	27.530	0	1428.140	0	19.7	4	6.0	4	-1E+10	1	-1E+10	1	-1E+10	1	-1E+10	1	-1E+10	1	-1E+10	1
4902549	80	C	10/29/2022	00:07	-132.588	47.090	0	1455.40	0	2.5540	0	34.5000	0	27.534	0	1438.284	0	20.3	4	6.2	4	-1E+10	1	-1E+10	1	-1E+10	1	-1E+10	1	-1E+10	1	-1E+10	1
4902549	80	C	10/29/2022	00:07	-132.588	47.090	0	1465.50	0	2.5310	0	34.5030	0	27.538	0	1448.230	0	21.2	4	6.5	4	-1E+10	1	-1E+10	1	-1E+10	1	-1E+10	1	-1E+10	1	-1E+10	1
4902549	80	C	10/29/2022	00:07	-132.588	47.090	0	1475.40	0	2.5100	0	34.5060	0	27.543	0	1457.980	0	21.8	4	6.7	4	-1E+10	1	-1E+10	1	-1E+10	1	-1E+10	1	-1E+10	1	-1E+10	1
4902549	80	C	10/29/2022	00:07	-132.588	47.090	0	1485.40	0	2.5000	0	34.5080	0	27.545	0	1467.827	0	22.4	4	6.8	4	-1E+10	1	-1E+10	1	-1E+10	1	-1E+10	1	-1E+10	1	-1E+10	1
4902549	80	C	10/29/2022	00:07	-132.588	47.090	0	1495.60	0	2.4850	0	34.5100	0	27.548	0	1477.870	0	23.0	4	7.0	4	-1E+10	1	-1E+10	1	-1E+10	1	-1E+10	1	-1E+10	1	-1E+10	1
4902549	80	C	10/29/2022	00:07	-132.588	47.090	0	1505.50	0	2.4730	0	34.5130	0	27.551	0	1487.618	0	23.7	4	7.2	4	-1E+10	1	-1E+10	1	-1E+10	1	-1E+10	1	-1E+10	1	-1E+10	1
4902549	80	C	10/29/2022	00:07	-132.588	47.090	0	1515.10	0	2.4610	0	34.5160	0	27.555	0	1497.070	0	24.2	4	7.4	4	-1E+10	1	-1E+10	1	-1E+10	1	-1E+10	1	-1E+10	1	-1E+10	1
4902549	80	C	10/29/2022	00:07	-132.588	47.090	0	1525.30	0	2.4400	0	34.5160	0	27.557	0	1507.113	0	24.1	4	7.4	4	-1E+10	1	-1E+10	1	-1E+10	1	-1E+10	1	-1E+10	1	-1E+10	1
4902549	80	C	10/29/2022	00:07	-132.588	47.090	0	1535.70	0	2.4030	0	34.5150	0	27.559	0	1517.351	0	24.2	4	7.4	4	-1E+10	1	-1E+10	1	-1E+10	1	-1E+10	1	-1E+10	1	-1E+10	1
4902549	80	C	10/29/2022	00:07	-132.588	47.090	0	1545.80	0	2.3700	0	34.5160	0	27.563	0	1527.294	0	24.9	4	7.6	4	-1E+10	1	-1E+10	1	-1E+10	1	-1E+10	1	-1E+10	1	-1E+10	1
4902549	80	C	10/29/2022	00:07	-132.588	47.090	0	1555.60	0	2.3560	0	34.5190	0	27.566	0	1536.941	0	25.6	4	7.8	4	-1E+10	1	-1E+10	1	-1E+10	1	-1E+10	1	-1E+10	1	-1E+10	1
4902549	80	C	10/29/2022	00:07	-132.588	47.090	0	1565.20	0	2.3440	0	34.5200	0	27.568	0	1546.391	0	26.0	4	7.9	4	-1E+10	1	-1E+10	1	-1E+10	1	-1E+10	1	-1E+10	1	-1E+10	1
4902549	80	C	10/29/2022	00:07	-132.588	47.090	0	1575.50	0	2.3310	0	34.5210	0	27.570	0	1556.529	0	26.4	4	8.0	4	-1E+10	1	-1E+10	1	-1E+10	1	-1E+10	1	-1E+10	1	-1E+10	1
4902549	80	C	10/29/2022	00:07	-132.588	47.090	0	1585.90	0	2.3230	0	34.5220	0	27.571	0	1566.766	0	27.0	4	8.2	4	-1E+10	1	-1E+10	1	-1E+10	1	-1E+10	1	-1E+10	1	-1E+10	1
4902549	80	C	10/29/2022	00:07	-132.588	47.090	0	1595.80	0	2.3160	0	34.5250	0	27.574	0	1576.509	0	27.6	4	8.4	4	-1E+10	1	-1E+10	1	-1E+10	1	-1E+10	1	-1E+10	1	-1E+10	1
4902549	80	C	10/29/2022	00:07	-132.588	47.090	0	1605.90	0	2.2950	0	34.5260	0	27.577	0	1586.450	0	28.3	4	8.6	4	-1E+10	1	-1E+10	1	-1E+10	1	-1E+10	1	-1E+10	1	-1E+10	1
4902549	80	C	10/29/2022	00:07	-132.588	47.090	0	1615.60	0	2.2870	0	34.5290	0	27.580	0	1595.995	0	29.2	4	8.9	4	-1E+10	1	-1E+10	1	-1E+10	1	-1E+10	1	-1E+10	1	-1E+10	1
4902549	80	C	10/29/2022	00:07	-132.588	47.090	0	1625.30	0	2.2740	0	34.5310	0	27.583	0	1605.541	0	30.0	4	9.1	4	-1E+10	1	-1E+10	1	-1E+10	1	-1E+10	1	-1E+10	1	-1E+10	1
4902549	80	C	10/29/2022	00:07	-132.588	47.090	0	1635.60	0	2.2570	0	34.5330	0	27.586	0	1615.677	0	30.7	4	9.3	4	-1E+10	1	-1E+10	1	-1E+10	1	-1E+10	1	-1E+10	1	-1E+10	1
4902549	80	C	10/29/2022	00:07	-132.588	47.090	0	1645.30	0	2.2420	0	34.5360	0	27.589	0	1625.221	0	31.5	4	9.6	4	-1E+10	1	-1E+10	1	-1E+10	1	-1E+10	1	-1E+10	1	-1E+10	1
4902549	80	C	10/29/2022	00:07	-132.588	47.090	0	1655.40	0	2.2360	0	34.5380	0	27.592	0	1635.159	0	32.5	4	9.8	4	-1E+10	1	-1E+10	1	-1E+10	1	-1E+10	1	-1E+10	1	-1E+10	1
4902549	80	C	10/29/2022	00:07	-132.588	47.090	0	1665.50	0	2.2170	0	34.5410	0	27.596	0	1645.096	0	33.1	4	10.0	4	-1E+10	1	-1E+10	1	-1E+10	1	-1E+10	1	-1E+10	1	-1E+10	1
4902549	80	C	10/29/2022	00:07	-132.588	47.090	0	1675.70	0	2.1990	0	34.5420	0	27.598	0	1655.132	0	33.6	4	10.2	4	-1E+10	1	-1E+10	1	-1E+10	1	-1E+10	1	-1E+10	1	-1E+10	1
4902549	80	C	10/29/2022	00:07	-132.588	47.090	0	1685.70	0	2.1840	0	34.5440	0	27.601	0	1664.970	0	34.3	4	10.4	4	-1E+10	1	-1E+10	1	-1E+10	1	-1E+10	1	-1E+10	1	-1E+10	1
4902549	80	C	10/29/2022	00:07	-132.588	47.090	0	1695.50	0	2.1810	0	34.5460	0	27.603	0	1674.610	0	35.0	4	10.6	4	-1E+10	1	-1E+10	1	-1E+10	1	-1E+10	1	-1E+10	1	-1E+10	1
4902549	80	C	10/29/2022	00:07	-132.588	47.090	0	1705.30	0	2.1720	0	34.5480	0	27.605	0	1684.251	0	35.4	4	10.7	4	-1E+10	1	-1E+10	1	-1E+10	1	-1E+10	1	-1E+10	1	-1E+10	1
4902549	80	C	10/29/2022	00:07	-132.588	47.090	0	1715.20	0	2.1680	0	34.5480	0	27.605	0	1693.989	0	35.8	4	10.8	4	-1E+10	1	-1E+10	1	-1E+10	1	-1E+10	1	-1E+10	1	-1E+10	1
4902549	80	C	10/29/2022	00:07	-132.588	47.090	0	1725.20	0	2.1570	0	34.5490	0	27.607	0	1703.825	0	36.6	4	11.1	4	-1E+10	1	-1E+10	1	-1E+10	1	-1E+10	1	-1E+10	1	-1E+10	1
4902549	80	C	10/29/2022	00:07	-132.588	47.090	0	1735.30	0	2.1530	0	34.5510	0	27.609	0	1713.759	0	37.3	4	11.3	4	-1E+10	1	-1E+10	1	-1E+10	1	-1E+10	1	-1E+10	1	-1E+10	1
4902549	80	C	10/29/2022	00:07	-132.588	47.090	0	1745.50	0	2.1400	0	34.5540	0	27.613	0	1723.791	0	38.3	4	11.6	4	-1E+10	1	-1E+10	1	-1E+10	1	-1E+10	1	-1E+10	1	-1E+10	1
4902549	80	C	10/29/2022	00:07	-132.588	47.090	0	1755.50	0	2.1380	0	34.5560	0	27.614	0	1733.626	0	39.0	4	11.8	4	-1E+10	1	-1E+10	1	-1E+10	1	-1E+10	1	-1E+10	1	-1E+10	1
4902549	80	C	10/29/2022	00:07	-132.588	47.090	0	1765.10	0	2.1310	0	34.5570	0	27.616	0	1743.067	0	39.7	4	12.0	4	-1E+10	1	-1E+10	1	-1E+10	1	-1E+10	1	-1E+10	1	-1E+10	1
4902549	80	C	10/29/2022	00:07	-132.588	47.090	0	1775.30	0	2.1190	0	34.5590	0	27.618	0	1753.098	0	40.3	4	12.2	4	-1E+10	1	-1E+10	1	-1E+10	1	-1E+10	1	-1E+10	1	-1E+10	1
4902549	80	C	10/29/2022	00:07	-132.588	47.090	0	1785.50	0	2.1080	0	34.5610	0	27.621	0	1763.128	0	40.9	4	12.4	4	-1E+10	1	-1E+10	1	-1E+10	1	-1E+10	1	-1E+10	1	-1E+10	1
4902549	80	C	10/29/2022	00:07	-132.588	47.090	0	1795.40	0	2.0940	0	34.5620	0	27.623	0	1772.862	0	41.4	4	12.5	4	-1E+10	1	-1E+10	1	-1E+10	1	-1E+10	1	-1E+10	1	-1E+10	1
4902549	80	C	10/29/2022	00:07	-132.588	47.090	0	1805.50	0	2.0840	0	34.5640	0	27.625	0	1782.793	0	42.0	4	12.7	4	-1E+10	1	-1E+10	1	-1E+10	1	-1E+10	1	-1E+10	1	-1E+10	1
4902549	80	C	10/29/2022	00:07	-132.588	47.090	0	1815.70	0	2.0740	0	34.5650	0	27.627	0	1792.822	0	42.7	4	12.9	4	-1E+10	1	-1E+10	1	-1E+10	1	-1E+10	1	-1E+10	1	-1E+10	1
4902549	80	C	10/29/2022	00:07	-132.588	47.090	0	1825.60	0	2.0650	0	34.5670	0	27.629	0	1802.555	0	43.0	4	13.0	4	-1E+10	1	-1E+10	1	-1E+10	1	-1E+10	1	-1E+10	1	-1E+10	1
4902549	80	C	10/29/2022	00:07	-132.588	47.090	0	1835.30	0	2.0550	0	34.5680	0	27.631	0	1812.092	0	43.3	4	13.1	4	-1E+10	1	-1E+10	1	-1E+10	1	-1E+10	1	-1E+10	1	-1E+10	1
4902549	80	C	10/29/2022	00:07	-132.588	47.090	0	1845.20	0	2.0490	0	34.5690	0	27.632	0	1821.824	0	43.7	4	13.2	4	-1E+10	1	-1E+10	1	-1E+10	1	-1E+10	1	-1E+10	1	-1E+10	1
4902549	80	C	10/29/2022	00:07	-132.588	47.090	0	1855.20	0	2.0450	0	34.5700	0	27.633	0	1831.654	0	43.9	4	13.3	4	-1E+10	1	-1E+10	1	-1E+10	1	-1E+10	1	-1E+10	1	-1E+10	1
4902549	80	C	10/29/2022	00:07	-132.588	47.090	0	1865.10	0	2.0390	0	34.5700	0	27.634	0	1841.386	0	44.1	4	13.3	4	-1E+10	1	-1E+10	1	-1E+10	1	-1E+10	1	-1E+10	1	-1E+10	1
4902549	80	C	10/29/2022	00:07	-132.588	47.090	0	1875.20	0	2.0330	0	34.5710	0	27.635	0	1851.313	0	44.4	4	13.4	4	-1E+10	1	-1E+10	1	-1E+10	1	-1E+10	1	-1E+10	1	-1E+10	1
4902549	80	C	10/29/2022	00:07	-132.588	47.090	0	1885.50	0	2.0260	0	34.5710	0	27.636	0	1861.437	0	44.6	4	13.5	4	-1E+10	1	-1E+10	1	-1E+10	1	-1E+10	1	-1E+10	1	-1E+10	1
4902549	80	C	10/29/2022	00:07	-132.588	47.090	0	1895.50	0	2.0220	0	34.5720	0	27.637	0	1871.266	0	44.9	4	13.5	4	-1E+10	1	-1E+10	1	-1E+10	1	-1E+10	1	-1E+10	1	-1E+10	1
4902549	80	C	10/29/2022	00:07	-132.588	47.090	0	1905.20	0	2.0160	0	34.5730	0	27.638	0	1880.799	0	45.2	4	13.6	4	-1E+10	1	-1E+10	1	-1E+10	1	-1E+10	1	-1E+10	1	-1E+10	1
4902549	80	C	10/29/2022	00:07	-132.588	47.090	0	1915.40	0	2.0130	0	34.5740	0	27.640	0	1890.823	0	45.7	4	13.8	4	-1E+10	1	-1E+10	1	-1E+10	1	-1E+10	1	-1E+10	1	-1E+10	1
4902549	80	C	10/29/2022	00:07	-132.588	47.090	0	1925.60	0	2.0070	0	34.5750	0	27.641	0	1900.846	0	46.3	4	14.0	4	-1E+10	1	-1E+10	1	-1E+10	1	-1E+10	1	-1E+10	1	-1E+10	1
4902549	80	C	10/29/2022	00:07	-132.588	47.090	0	1935.50	0	2.0010	0	34.5760	0	27.642	0	1910.575	0	46.9	4	14.1	4	-1E+10	1	-1E+10	1	-1E+10	1	-1E+10	1	-1E+10	1	-1E+10	1
4902549	80	C	10/29/2022	00:07	-132.588	47.090	0	1945.70	0	1.9900	0	34.5780	0	27.645	0	1920.597	0	47.5	4	14.3	4	-1E+10	1	-1E+10	1	-1E+10	1	-1E+10	1	-1E+10	1	-1E+10	1
4902549	80	C	10/29/2022	00:07	-132.588	47.090	0	1955.30	0	1.9850	0	34.5790	0	27.646	0	1930.030	0	47.7	4	14.4	4	-1E+10	1	-1E+10	1	-1E+10	1	-1E+10	1	-1E+10	1	-1E+10	1
4902549	80	C	10/29/2022	00:07	-132.588	47.090	0	1965.50	0	1.9800	0	34.5800	0	27.647	0	1940.052	0	47.4	4	14.3	4	-1E+10	1	-1E+10	1	-1E+10	1	-1E+10	1	-1E+10	1	-1E+10	1
4902549	80	C	10/29/2022	00:07	-132.588	47.090	0	1971.90	0	1.9770	0	34.5810	0	27.648	0	1946.340	0	46.6	4	14.0	4	-1E+10	1	-1E+10	1	-1E+10	1	-1E+10	1	-1E+10	1	-1E+10	1
4902549	80	C	10/29/2022	00:07	-132.588	47.090	0																										
4902549	81	C	11/08/2022	05:03	-132.794	47.177	0	0.20	0	13.0820	0	32.2910	0	24.280	0	0.198	0	246.4	4	93.9	4	-1E+10	1	-1E+10	1	-1E+10	1	-1E+10	1	-1E+10	1	-1E+10	1
4902549	81	C	11/08/2022	05:03	-132.794	47.177	0	0.30	0	13.0920	0	32.2990	0	24.284	0	0.298	0	246.4	4	93.9	4	-1E+10	1	-1E+10	1	-1E+10	1	-1E+10	1	-1E+10	1	-1E+10	1
4902549	81	C	11/08/2022	05:03	-132.794	47.177	0	0.90	0	13.0980	0	32.2970	0	24.281	0	0.893	0	246.4	4	93.9	4	-1E+10	1	-1E+10	1	-1E+10	1	-1E+10	1	-1E+10	1	-1E+10	1
4902549	81	C	11/08/2022	05:03	-132.794	47.177	0	2.00	0	13.1000	0	32.2960	0	24.280	0	1.983	0	246.3	4	93.9	4	-1E+10	1	-1E+10	1	-1E+10	1	-1E+10	1	-1E+10	1	-1E+10	1
4902549	81	C	11/08/2022	05:03	-132.794	47.177	0	3.20	0	13.1040	0	32.2940	0	24.278	0	3.173	0	246.3	4	93.9	4	-1E+10	1	-1E+10	1	-1E+10	1	-1E+10	1	-1E+10	1	-1E+10	1
4902549	81	C	11/08/2022	05:03	-132.794	47.177	0	4.10	0	13.1030	0	32.2940	0	24.278	0	4.066	0	246.3	4	93.9	4	-1E+10	1	-1E+10	1	-1E+10	1	-1E+10	1	-1E+10	1	-1E+10	1
4902549	81	C	11/08/2022	05:03	-132.794	47.177	0	5.30	0	13.1070	0	32.2960	0	24.279	0	5.256	0	246.3	4	93.9	4	-1E+10	1	-1E+10	1	-1E+10	1	-1E+10	1	-1E+10	1	-1E+10	1
4902549	81	C	11/08/2022	05:03	-132.794	47.177	0	6.20	0	13.1050	0	32.2950	0	24.278	0	6.148	0	246.2	4	93.9	4	-1E+10	1	-1E+10	1	-1E+10	1	-1E+10	1	-1E+10	1	-1E+10	1
4902549	81	C	11/08/2022	05:03	-132.794	47.177	0	7.20	0	13.1020	0	32.2950	0	24.279	0	7.140	0	246.3	4	93.9	4	-1E+10	1	-1E+10	1	-1E+10	1	-1E+10	1	-1E+10	1	-1E+10	1
4902549	81	C	11/08/2022	05:03	-132.794	47.177	0	8.10	0	13.1060	0	32.2950	0	24.278	0	8.032	0	246.3	4	93.9	4	-1E+10	1	-1E+10	1	-1E+10	1	-1E+10	1	-1E+10	1	-1E+10	1
4902549	81	C	11/08/2022	05:03	-132.794	47.177	0	8.90	0	13.1070	0	32.2950	0	24.278	0	8.826	0	246.2	4	93.9	4	-1E+10	1	-1E+10	1	-1E+10	1	-1E+10	1	-1E+10	1	-1E+10	1
4902549	81	C	11/08/2022	05:03	-132.794	47.177	0	9.90	0	13.1040	0	32.2950	0	24.279	0	9.817	0	246.2	4	93.9	4	-1E+10	1	-1E+10	1	-1E+10	1	-1E+10	1	-1E+10	1	-1E+10	1
4902549	81	C	11/08/2022	05:03	-132.794	47.177	0	11.10	0	13.1040	0	32.2960	0	24.279	0	11.007	0	246.2	4	93.9	4	-1E+10	1	-1E+10	1	-1E+10	1	-1E+10	1	-1E+10	1	-1E+10	1
4902549	81	C	11/08/2022	05:03	-132.794	47.177	0	12.00	0	13.1000	0	32.2950	0	24.279	0	11.900	0	246.2	4	93.9	4	-1E+10	1	-1E+10	1	-1E+10	1	-1E+10	1	-1E+10	1	-1E+10	1
4902549	81	C	11/08/2022	05:03	-132.794	47.177	0	12.80	0	13.0990	0	32.2950	0	24.280	0	12.693	0	246.1	4	93.8	4	-1E+10	1	-1E+10	1	-1E+10	1	-1E+10	1	-1E+10	1	-1E+10	1
4902549	81	C	11/08/2022	05:03	-132.794	47.177	0	13.90	0	13.1050	0	32.2960	0	24.279	0	13.784	0	246.1	4	93.8	4	-1E+10	1	-1E+10	1	-1E+10	1	-1E+10	1	-1E+10	1	-1E+10	1
4902549	81	C	11/08/2022	05:03	-132.794	47.177	0	14.70	0	13.1060	0	32.2950	0	24.278	0	14.577	0	246.2	4	93.9	4	-1E+10	1	-1E+10	1	-1E+10	1	-1E+10	1	-1E+10	1	-1E+10	1
4902549	81	C	11/08/2022	05:03	-132.794	47.177	0	15.90	0	13.1060	0	32.2950	0	24.278	0	15.767	0	246.1	4	93.8	4	-1E+10	1	-1E+10	1	-1E+10	1	-1E+10	1	-1E+10	1	-1E+10	1
4902549	81	C	11/08/2022	05:03	-132.794	47.177	0	17.00	0	13.1080	0	32.2940	0	24.277	0	16.858	0	246.0	4	93.8	4	-1E+10	1	-1E+10	1	-1E+10	1	-1E+10	1	-1E+10	1	-1E+10	1
4902549	81	C	11/08/2022	05:03	-132.794	47.177	0	17.80	0	13.1050	0	32.2950	0	24.279	0	17.651	0	246.2	4	93.9	4	-1E+10	1	-1E+10	1	-1E+10	1	-1E+10	1	-1E+10	1	-1E+10	1
4902549	81	C	11/08/2022	05:03	-132.794	47.177	0	19.10	0	13.1050	0	32.2940	0	24.278	0	18.940	0	246.2	4	93.9	4	-1E+10	1	-1E+10	1	-1E+10	1	-1E+10	1	-1E+10	1	-1E+10	1
4902549	81	C	11/08/2022	05:03	-132.794	47.177	0	19.80	0	13.1050	0	32.2950	0	24.279	0	19.634	0	246.1	4	93.8	4	-1E+10	1	-1E+10	1	-1E+10	1	-1E+10	1	-1E+10	1	-1E+10	1
4902549	81	C	11/08/2022	05:03	-132.794	47.177	0	20.80	0	13.1020	0	32.2950	0	24.279	0	20.626	0	246.1	4	93.8	4	-1E+10	1	-1E+10	1	-1E+10	1	-1E+10	1	-1E+10	1	-1E+10	1
4902549	81	C	11/08/2022	05:03	-132.794	47.177	0	21.80	0	13.1080	0	32.2950	0	24.278	0	21.618	0	246.0	4	93.8	4	-1E+10	1	-1E+10	1	-1E+10	1	-1E+10	1	-1E+10	1	-1E+10	1
4902549	81	C	11/08/2022	05:03	-132.794	47.177	0	22.80	0	13.1080	0	32.2950	0	24.278	0	22.609	0	246.0	4	93.8	4	-1E+10	1	-1E+10	1	-1E+10	1	-1E+10	1	-1E+10	1	-1E+10	1
4902549	81	C	11/08/2022	05:03	-132.794	47.177	0	23.90	0	13.1100	0	32.2940	0	24.277	0	23.700	0	246.0	4	93.8	4	-1E+10	1	-1E+10	1	-1E+10	1	-1E+10	1	-1E+10	1	-1E+10	1
4902549	81	C	11/08/2022	05:03	-132.794	47.177	0	25.00	0	13.1090	0	32.2950	0	24.278	0	24.791	0	245.9	4	93.8	4	-1E+10	1	-1E+10	1	-1E+10	1	-1E+10	1	-1E+10	1	-1E+10	1
4902549	81	C	11/08/2022	05:03	-132.794	47.177	0	26.30	0	13.1090	0	32.2950	0	24.278	0	26.080	0	246.0	4	93.8	4	-1E+10	1	-1E+10	1	-1E+10	1	-1E+10	1	-1E+10	1	-1E+10	1
4902549	81	C	11/08/2022	05:03	-132.794	47.177	0	27.20	0	13.1100	0	32.2950	0	24.278	0	26.972	0	246.0	4	93.8	4	-1E+10	1	-1E+10	1	-1E+10	1	-1E+10	1	-1E+10	1	-1E+10	1
4902549	81	C	11/08/2022	05:03	-132.794	47.177	0	28.30	0	13.1090	0	32.2950	0	24.278	0	28.063	0	245.9	4	93.8	4	-1E+10	1	-1E+10	1	-1E+10	1	-1E+10	1	-1E+10	1	-1E+10	1
4902549	81	C	11/08/2022	05:03	-132.794	47.177	0	29.40	0	13.1090	0	32.2950	0	24.278	0	29.153	0	246.1	4	93.8	4	-1E+10	1	-1E+10	1	-1E+10	1	-1E+10	1	-1E+10	1	-1E+10	1
4902549	81	C	11/08/2022	05:03	-132.794	47.177	0	30.40	0	13.1090	0	32.2950	0	24.278	0	30.145	0	246.0	4	93.8	4	-1E+10	1	-1E+10	1	-1E+10	1	-1E+10	1	-1E+10	1	-1E+10	1
4902549	81	C	11/08/2022	05:03	-132.794	47.177	0	31.30	0	13.1090	0	32.2950	0	24.278	0	31.037	0	246.0	4	93.8	4	-1E+10	1	-1E+10	1	-1E+10	1	-1E+10	1	-1E+10	1	-1E+10	1
4902549	81	C	11/08/2022	05:03	-132.794	47.177	0	32.30	0	13.1110	0	32.2950	0	24.278	0	32.029	0	246.0	4	93.8	4	-1E+10	1	-1E+10	1	-1E+10	1	-1E+10	1	-1E+10	1	-1E+10	1
4902549	81	C	11/08/2022	05:03	-132.794	47.177	0	33.30	0	13.1110	0	32.2940	0	24.277	0	33.020	0	246.0	4	93.8	4	-1E+10	1	-1E+10	1	-1E+10	1	-1E+10	1	-1E+10	1	-1E+10	1
4902549	81	C	11/08/2022	05:03	-132.794	47.177	0	34.20	0	13.1110	0	32.2950	0	24.278	0	33.913	0	246.0	4	93.8	4	-1E+10	1	-1E+10	1	-1E+10	1	-1E+10	1	-1E+10	1	-1E+10	1
4902549	81	C	11/08/2022	05:03	-132.794	47.177	0	35.10	0	13.1110	0	32.2950	0	24.278	0	34.805	0	246.0	4	93.8	4	-1E+10	1	-1E+10	1	-1E+10	1	-1E+10	1	-1E+10	1	-1E+10	1
4902549	81	C	11/08/2022	05:03	-132.794	47.177	0	36.00	0	13.1110	0	32.2960	0	24.279	0	35.697	0	246.0	4	93.8	4	-1E+10	1	-1E+10	1	-1E+10	1	-1E+10	1	-1E+10	1	-1E+10	1
4902549	81	C	11/08/2022	05:03	-132.794	47.177	0	37.00	0	13.1090	0	32.2950	0	24.278	0	36.689	0	246.0	4	93.8	4	-1E+10	1	-1E+10	1	-1E+10	1	-1E+10	1	-1E+10	1	-1E+10	1
4902549	81	C	11/08/2022	05:03	-132.794	47.177	0	38.00	0	13.1110	0	32.2940	0	24.277	0	37.681	0	246.1	4	93.8	4	-1E+10	1	-1E+10	1	-1E+10	1	-1E+10	1	-1E+10	1	-1E+10	1
4902549	81	C	11/08/2022	05:03	-132.794	47.177	0	39.00	0	13.1070	0	32.2950	0	24.279	0	38.672	0	246.0	4	93.8	4	-1E+10	1	-1E+10	1	-1E+10	1	-1E+10	1	-1E+10	1	-1E+10	1
4902549	81	C	11/08/2022	05:03	-132.794	47.177	0	39.80	0	13.1080	0	32.2950	0	24.279	0	39.465	0	246.0	4	93.8	4	-1E+10	1	-1E+10	1	-1E+10	1	-1E+10	1	-1E+10	1	-1E+10	1
4902549	81	C	11/08/2022	05:03	-132.794	47.177	0	40.70	0	13.1110	0	32.2950	0	24.278	0	40.358	0	246.1	4	93.8	4	-1E+10	1	-1E+10	1	-1E+10	1	-1E+10	1	-1E+10	1	-1E+10	1
4902549	81	C	11/08/2022	05:03	-132.794	47.177	0	41.90	0	13.1100	0	32.2950	0	24.278	0	41.547	0	246.1	4	93.8	4	-1E+10	1	-1E+10	1	-1E+10	1	-1E+10	1	-1E+10	1	-1E+10	1
4902549	81	C	11/08/2022	05:03	-132.794	47.177	0	43.20	0	13.1120	0	32.2950	0	24.278	0	42.836	0	245.9	4	93.8	4	-1E+10	1	-1E+10	1	-1E+10	1	-1E+10	1	-1E+10	1	-1E+10	1
4902549	81	C	11/08/2022	05:03	-132.794	47.177	0	44.10	0	13.1110	0	32.2950	0	24.278	0	43.729	0	246.1	4	93.8	4	-1E+10	1	-1E+10	1	-1E+10	1	-1E+10	1	-1E+10	1	-1E+10	1
4902549	81	C	11/08/2022	05:03	-132.794	47.177	0	45.10	0	13.1130	0	32.2950	0	24.278	0	44.720	0	246.0	4	93.8	4	-1E+10	1	-1E+10	1	-1E+10	1	-1E+10	1	-1E+10	1	-1E+10	1
4902549	81	C	11/08/2022	05:03	-132.794	47.177	0	46.00	0	13.1140	0	32.2950	0	24.278	0	45.612	0	246.0	4	93.8	4	-1E+10	1	-1E+10	1	-1E+10	1	-1E+10	1	-1E+10	1	-1E+10	1
4902549	81	C	11/08/2022	05:03	-132.794	47.177	0	47.00	0	13.1140	0	32.2940	0	24.277	0	46.604	0	246.0	4	93.8	4	-1E+10	1	-1E+10	1	-1E+10	1	-1E+10	1	-1E+10	1	-1E+10	1
4902549	81	C	11/08/2022	05:03	-132.794	47.177	0	48.10	0	13.1140	0	32.2950	0	24.278	0	47.694	0	246.0	4	93.8	4	-1E+10	1	-1E+10	1	-1E+10	1	-1E+10	1	-1E+10	1	-1E+10	1
4902549	81	C	11/08/2022	05:03	-132.794	47.177	0	49.10	0	13.1020	0	32.2940	0	24.279	0	48.686	0	246.1	4	93.8	4	-1E+10	1	-1E+10	1	-1E+10	1	-1E+10	1	-1E+10	1	-1E+10	1
4902549	81	C	11/08/2022	05:03	-132.794	47.177	0	50.00	0	13.1080	0	32.2950	0	24.279	0	49.578	0	246.1	4	93.8	4	-1E+10	1	-1E+10	1	-1E+10	1	-1E+10	1	-1E+10	1	-1E+10	1
4902549	81	C	11/08/2022	05:03	-132.794	47.177	0	50.90	0	13.1140	0	32.2950	0	24.278	0	50.470	0	246.0	4	93.8	4	-1E+10	1	-1E+10	1	-1E+10	1	-1E+10	1	-1E+10	1	-1E+10	1
4902549	81	C	11/08/2022	05:03	-132.794	47.177	0	51.80	0	13.1140	0	32.2940	0	24.277	0	51.363	0	246.1	4	93.8	4	-1E+10	1	-1E+10	1	-1E+10	1	-1E+10	1	-1E+10	1	-1E+10	1
4902549	81	C	11/08/2022	05:03	-132.794	47.177	0	52.80	0	13.1060	0	32.2980	0	24.282	0	52.354	0	246.1	4	93.8	4	-1E+10	1	-1E+10	1	-1E+10	1	-1E+10	1	-1E+10	1	-1E+10	1
4902549	81	C	11/08/2022	05:03	-132.794	47.177	0	53.70	0	13.0940	0	32.2990	0	24.285	0	53.246	0	246.3	4	93.9	4	-1E+10	1	-1E+10	1	-1E+10	1	-1E+10	1	-1E+10	1	-1E+10	1
4902549	81	C	11/08/2022	05:03	-132.794	47.177	0	54.70	0	13.0890	0	32.2970	0	24.284	0	54.238	0	246.3	4	93.9	4	-1E+10	1	-1E+10	1	-1E+10	1	-1E+10	1	-1E+10	1	-1E+10	1
4902549	81	C	11/08/2022	05:03	-132.794	47.177	0	55.90	0	13.0910	0	32.2930	0	24.281	0	55.428	0	246.4	4	93.9	4	-1E+10	1	-1E+10	1	-1E+10	1	-1E+10	1	-1E+10	1	-1E+10	1
4902549	81	C	11/08/2022	05:03	-132.794	47.177	0	57.30	0	13.0840	0	32.2940	0	24.283	0	56.816	0	246.4	4	93.9	4	-1E+10	1	-1E+10	1	-1E+10	1	-1E+10	1	-1E+10	1	-1E+10	1
4902549	81	C	11/08/2022	05:03	-132.794	47.177	0	58.10	0	13.0830	0	32.2960	0	24.285	0	57.609	0	246.5	4	93.9	4	-1E+10	1	-1E+10	1	-1E+10	1	-1E+10	1	-1E+10	1	-1E+10	1
4902549	81	C	11/08/2022	05:03	-132.794	47.177	0	59.10	0	13.0700	0	32.2940	0	24.286	0	58.600	0	246.7	4	94.0	4	-1E+10	1	-1E+10	1	-1E+10	1	-1E+10	1	-1E+10	1	-1E+10	1
4902549	81	C	11/08/2022	05:03	-132.794	47.177	0	60.00	0	13.0760	0	32.2890	0	24.281	0	59.492	0	246.9	4	94.1	4	-1E+10	1	-1E+10	1	-1E+10	1	-1E+10	1	-1E+10	1	-1E+10	1
4902549	81	C	11/08/2022	05:03	-132.794	47.177	0	61.00	0	13.0200	0	32.2960	0	24.297	0	60.484	0	247.1	4	94.0	4	-1E+10	1	-1E+10	1	-1E+10	1	-1E+10	1	-1E+10	1	-1E+10	1
4902549	81	C	11/08/2022	05:03	-132.794	47.177	0	62.00	0	13.0200	0	32.2980	0	24.299	0	61.475	0	247.5	4	94.2	4	-1E+10	1	-1E+10	1	-1E+10	1	-1E+10	1	-1E+10	1	-1E+10	1
4902549	81	C	11/08/2022	05:03	-132.794	47.177	0	62.90	0	13.0040	0	32.2880	0	24.294	0	62.367	0	247.8	4	94.3	4	-1E+10	1	-1E+10	1	-1E+10	1	-1E+10	1	-1E+10	1	-1E+10	1
4902549	81	C	11/08/2022	05:03	-132.794	47.177	0	64.10	0	12.2540	0	32.2930	0	24.442	0	63.557	0	251.7	4	94.3	4	-1E+10	1	-1E+10	1	-1E+10	1	-1E+10	1	-1E+10	1	-1E+10	1
4902549	81	C	11/08/2022	05:03	-132.794	47.177	0	65.00	0	11.7600	0	32.2810	0	24.524	0	64.449	0	254.2	4	94.3	4	-1E+10	1	-1E+10	1	-1E+10	1	-1E+10	1	-1E+10	1	-1E+10	1
4902549	81	C	11/08/2022	05:03	-132.794	47.177	0	66.00	0	11.2890	0	32.2850	0	24.613	0	65.441	0	256.8	4	94.3	4	-1E+10	1	-1E+10	1	-1E+10	1	-1E+10	1	-1E+10	1	-1E+10	1
4902549	81	C	11/08/2022	05:03	-132.794	47.177	0	67.10	0	10.0180	0	32.3240	0	24.862	0	66.531	0	259.9	4	92.9	4	-1E+10	1	-1E+10	1	-1E+10	1	-1E+10	1	-1E+10	1	-1E+10	1
4902549	81	C	11/08/2022	05:03	-132.794	47.177	0	67.90	0	9.5130	0	32.3210	0	24.942	0	67.324	0	262.3	4	92.7	4	-1E+10	1	-1E+10	1	-1E+10	1	-1E+10	1	-1E+10	1	-1E+10	1
4902549	81	C	11/08/2022	05:03	-132.794	47.177	0	68.90	0	9.4810	0	32.3270	0	24.951	0	68.316	0	261.9	4	92.5	4	-1E+10	1	-1E+10	1	-1E+10	1	-1E+10	1	-1E+10	1	-1E+10	1
4902549	81	C	11/08/2022	05:03	-132.794	47.177	0	69.80	0	9.4530	0	32.3290	0	24.957	0	69.208	0	261.4	4	92.3	4	-1E+10	1	-1E+10	1	-1E+10	1	-1E+10	1	-1E+10	1	-1E+10	1
4902549	81	C	11/08/2022	05:03	-132.794	47.177	0	70.80	0	9.4310	0	32.3300	0	24.962	0	70.199	0	260.7	4	92.0	4	-1E+10	1	-1E+10	1	-1E+10	1	-1E+10	1	-1E+10	1	-1E+10	1
4902549	81	C	11/08/2022	05:03	-132.794	47.177	0	71.80	0	9.3990	0	32.3350	0	24.971	0	71.190	0	259.7	4	91.6	4	-1E+10	1	-1E+10	1	-1E+10	1	-1E+10	1	-1E+10	1	-1E+10	1
4902549	81	C	11/08/2022	05:03	-132.794	47.177	0	72.90	0	9.3370	0	32.3350	0	24.981	0	72.281	0	258.8	4	91.1	4	-1E+10	1	-1E+10	1	-1E+10	1	-1E+10	1	-1E+10	1	-1E+10	1
4902549	81	C	11/08/2022	05:03	-132.794	47.177	0	74.10	0	9.2890	0	32.3380	0	24.991	0	73.471	0	257.7	4	90.7	4	-1E+10	1	-1E+10	1	-1E+10	1	-1E+10	1	-1E+10	1	-1E+10	1
4902549	81	C	11/08/2022	05:03	-132.794	47.177	0	74.90	0	9.2610	0	32.3420	0	24.998	0	74.264	0	256.9	4	90.3	4	-1E+10	1	-1E+10	1	-1E+10	1	-1E+10	1	-1E+10	1	-1E+10	1
4902549	81	C	11/08/2022	05:03	-132.794	47.177	0	76.00	0	9.2000	0	32.3500	0	25.014	0	75.354	0	255.9	4	89.9	4	-1E+10	1	-1E+10	1	-1E+10	1	-1E+10	1	-1E+10	1	-1E+10	1
4902549	81	C	11/08/2022	05:03	-132.794	47.177	0	77.10	0	9.0560	0	32.3340	0	25.024	0	76.445	0	255.9	4	89.6	4	-1E+10	1	-1E+10	1	-1E+10	1	-1E+10	1	-1E+10	1	-1E+10	1
4902549	81	C	11/08/2022	05:03	-132.794	47.177	0	77.90	0	8.9750	0	32.3320	0	25.035	0	77.238	0	255.9	4	89.4	4	-1E+10	1	-1E+10	1	-1E+10	1	-1E+10	1	-1E+10	1	-1E+10	1
4902549	81	C	11/08/2022	05:03	-132.794	47.177	0	78.80	0	8.8930	0	32.3340	0	25.049	0	78.130	0	256.2	4	89.3	4	-1E+10	1	-1E+10	1	-1E+10	1	-1E+10	1	-1E+10	1	-1E+10	1
4902549	81	C	11/08/2022	05:03	-132.794	47.177	0	80.00	0	8.8830	0	32.3370	0	25.053	0	79.319	0	255.7	4	89.1	4	-1E+10	1	-1E+10	1	-1E+10	1	-1E+10	1	-1E+10	1	-1E+10	1
4902549	81	C	11/08/2022	05:03	-132.794	47.177	0	80.90	0	8.8770	0	32.3390	0	25.056	0	80.211	0	255.1	4	88.9	4	-1E+10	1	-1E+10	1	-1E+10	1	-1E+10	1	-1E+10	1	-1E+10	1
4902549	81	C	11/08/2022	05:03	-132.794	47.177	0	81.70	0	8.8660	0	32.3410	0	25.059	0	81.004	0	254.7	4	88.8	4	-1E+10	1	-1E+10	1	-1E+10	1	-1E+10	1	-1E+10	1	-1E+10	1
4902549	81	C	11/08/2022	05:03	-132.794	47.177	0	82.90	0	8.8400	0	32.3450	0	25.066	0	82.194	0	260.5	4	90.7	4	-1E+10	1	-1E+10	1	-1E+10	1	-1E+10	1	-1E+10	1	-1E+10	1
4902549	81	C	11/08/2022	05:03	-132.794	47.177	0	84.10	0	8.7930	0	32.3460	0	25.074	0	83.384	0	259.8	4	90.4	4	-1E+10	1	-1E+10	1	-1E+10	1	-1E+10	1	-1E+10	1	-1E+10	1
4902549	81	C	11/08/2022	05:03	-132.794	47.177	0	85.00	0	8.7180	0	32.3470	0	25.086	0	84.276	0	259.7	4	90.2	4	-1E+10	1	-1E+10	1	-1E+10	1	-1E+10	1	-1E+10	1	-1E+10	1
4902549	81	C	11/08/2022	05:03	-132.794	47.177	0	85.90	0	8.7140	0	32.3570	0	25.095	0	85.168	0	258.8	4	89.9	4	-1E+10	1	-1E+10	1	-1E+10	1	-1E+10	1	-1E+10	1	-1E+10	1
4902549	81	C	11/08/2022	05:03	-132.794	47.177	0	87.10	0	8.5430	0	32.3620	0	25.124	0	86.357	0	258.8	4	89.6	4	-1E+10	1	-1E+10	1	-1E+10	1	-1E+10	1	-1E+10	1	-1E+10	1
4902549	81	C	11/08/2022	05:03	-132.794	47.177	0	88.00	0	8.4780	0	32.3580	0	25.131	0	87.250	0	258.8	4	89.4	4	-1E+10	1	-1E+10	1	-1E+10	1	-1E+10	1	-1E+10	1	-1E+10	1
4902549	81	C	11/08/2022	05:03	-132.794	47.177	0	88.80	0	8.4770	0	32.3580	0	25.131	0	88.043	0	258.4	4	89.3	4	-1E+10	1	-1E+10	1	-1E+10	1	-1E+10	1	-1E+10	1	-1E+10	1
4902549	81	C	11/08/2022	05:03	-132.794	47.177	0	89.90	0	8.4310	0	32.3610	0	25.140	0	89.133	0	257.8	4	89.0	4	-1E+10	1	-1E+10	1	-1E+10	1	-1E+10	1	-1E+10	1	-1E+10	1
4902549	81	C	11/08/2022	05:03	-132.794	47.177	0	91.00	0	8.3490	0	32.3670	0	25.157	0	90.223	0	257.1	4	88.6	4	-1E+10	1	-1E+10	1	-1E+10	1	-1E+10	1	-1E+10	1	-1E+10	1
4902549	81	C	11/08/2022	05:03	-132.794	47.177	0	92.00	0	8.3040	0	32.3680	0	25.165	0	91.215	0	256.4	4	88.3	4	-1E+10	1	-1E+10	1	-1E+10	1	-1E+10	1	-1E+10	1	-1E+10	1
4902549	81	C	11/08/2022	05:03	-132.794	47.177	0	93.00	0	8.2450	0	32.3720	0	25.176	0	92.206	0	255.5	4	87.9	4	-1E+10	1	-1E+10	1	-1E+10	1	-1E+10	1	-1E+10	1	-1E+10	1
4902549	81	C	11/08/2022	05:03	-132.794	47.177	0	94.00	0	8.1500	0	32.3840	0	25.200	0	93.197	0	255.1	4	87.5	4	-1E+10	1	-1E+10	1	-1E+10	1	-1E+10	1	-1E+10	1	-1E+10	1
4902549	81	C	11/08/2022	05:03	-132.794	47.177	0	95.20	0	8.0970	0	32.4010	0	25.221	0	94.386	0	254.4	4	87.2	4	-1E+10	1	-1E+10	1	-1E+10	1	-1E+10	1	-1E+10	1	-1E+10	1
4902549	81	C	11/08/2022	05:03	-132.794	47.177	0	96.20	0	8.0300	0	32.4300	0	25.253	0	95.378	0	253.9	4	86.9	4	-1E+10	1	-1E+10	1	-1E+10	1	-1E+10	1	-1E+10	1	-1E+10	1
4902549	81	C	11/08/2022	05:03	-132.794	47.177	0	97.00	0	8.0060	0	32.4270	0	25.254	0	96.171	0	253.2	4	86.6	4	-1E+10	1	-1E+10	1	-1E+10	1	-1E+10	1	-1E+10	1	-1E+10	1
4902549	81	C	11/08/2022	05:03	-132.794	47.177	0	98.00	0	7.9450	0	32.4390	0	25.273	0	97.162	0	252.7	4	86.3	4	-1E+10	1	-1E+10	1	-1E+10	1	-1E+10	1	-1E+10	1	-1E+10	1
4902549	81	C	11/08/2022	05:03	-132.794	47.177	0	99.00	0	7.8820	0	32.4560	0	25.295	0	98.153	0	251.7	4	85.9	4	-1E+10	1	-1E+10	1	-1E+10	1	-1E+10	1	-1E+10	1	-1E+10	1
4902549	81	C	11/08/2022	05:03	-132.794	47.177	0	100.10	0	7.8430	0	32.4630	0	25.306	0	99.243	0	250.5	4	85.4	4	-1E+10	1	-1E+10	1	-1E+10	1	-1E+10	1	-1E+10	1	-1E+10	1
4902549	81	C	11/08/2022	05:03	-132.794	47.177	0	101.00	0	7.7900	0	32.4780	0	25.325	0	100.136	0	249.5	4	85.0	4	-1E+10	1	-1E+10	1	-1E+10	1	-1E+10	1	-1E+10	1	-1E+10	1
4902549	81	C	11/08/2022	05:03	-132.794	47.177	0	102.00	0	7.7570	0	32.4880	0	25.338	0	101.127	0	248.4	4	84.6	4	-1E+10	1	-1E+10	1	-1E+10	1	-1E+10	1	-1E+10	1	-1E+10	1
4902549	81	C	11/08/2022	05:03	-132.794	47.177	0	103.00	0	7.7380	0	32.4950	0	25.346	0	102.118	0	247.2	4	84.1	4	-1E+10	1	-1E+10	1	-1E+10	1	-1E+10	1	-1E+10	1	-1E+10	1
4902549	81	C	11/08/2022	05:03	-132.794	47.177	0	104.20	0	7.7260	0	32.5030	0	25.354	0	103.307	0	245.4	4	83.5	4	-1E+10	1	-1E+10	1	-1E+10	1	-1E+10	1	-1E+10	1	-1E+10	1
4902549	81	C	11/08/2022	05:03	-132.794	47.177	0	104.90	0	7.7040	0	32.5150	0	25.367	0	104.001	0	244.0	4	83.0	4	-1E+10	1	-1E+10	1	-1E+10	1	-1E+10	1	-1E+10	1	-1E+10	1
4902549	81	C	11/08/2022	05:03	-132.794	47.177	0	106.10	0	7.6680	0	32.5320	0	25.385	0	105.191	0	241.8	4	82.1	4	-1E+10	1	-1E+10	1	-1E+10	1	-1E+10	1	-1E+10	1	-1E+10	1
4902549	81	C	11/08/2022	05:03	-132.794	47.177	0	106.90	0	7.6470	0	32.5460	0	25.399	0	105.984	0	240.2	4	81.6	4	-1E+10	1	-1E+10	1	-1E+10	1	-1E+10	1	-1E+10	1	-1E+10	1
4902549	81	C	11/08/2022	05:03	-132.794	47.177	0	108.10	0	7.6200	0	32.5640	0	25.417	0	107.173	0	237.7	4	80.7	4	-1E+10	1	-1E+10	1	-1E+10	1	-1E+10	1	-1E+10	1	-1E+10	1
4902549	81	C	11/08/2022	05:03	-132.794	47.177	0	108.90	0	7.5970	0	32.5800	0	25.433	0	107.966	0	235.8	4	80.0	4	-1E+10	1	-1E+10	1	-1E+10	1	-1E+10	1	-1E+10	1	-1E+10	1
4902549	81	C	11/08/2022	05:03	-132.794	47.177	0	109.90	0	7.5770	0	32.5990	0	25.451	0	108.957	0	233.1	4	79.1	4	-1E+10	1	-1E+10	1	-1E+10	1	-1E+10	1	-1E+10	1	-1E+10	1
4902549	81	C	11/08/2022	05:03	-132.794	47.177	0	111.00	0	7.5380	0	32.6360	0	25.485	0	110.047	0	230.6	4	78.2	4	-1E+10	1	-1E+10	1	-1E+10	1	-1E+10	1	-1E+10	1	-1E+10	1
4902549	81	C	11/08/2022	05:03	-132.794	47.177	0	111.90	0	7.5180	0	32.6730	0	25.517	0	110.939	0	229.1	4	77.7	4	-1E+10	1	-1E+10	1	-1E+10	1	-1E+10	1	-1E+10	1	-1E+10	1
4902549	81	C	11/08/2022	05:03	-132.794	47.177	0	113.10	0	7.4770	0	32.7420	0	25.577	0	112.129	0	227.5	4	77.1	4	-1E+10	1	-1E+10	1	-1E+10	1	-1E+10	1	-1E+10	1	-1E+10	1
4902549	81	C	11/08/2022	05:03	-132.794	47.177	0	114.00	0	7.4540	0	32.7800	0	25.610	0	113.021	0	225.1	4	76.3	4	-1E+10	1	-1E+10	1	-1E+10	1	-1E+10	1	-1E+10	1	-1E+10	1
4902549	81	C	11/08/2022	05:03	-132.794	47.177	0	115.10	0	7.4370	0	32.8210	0	25.645	0	114.111	0	222.5	4	75.4	4	-1E+10	1	-1E+10	1	-1E+10	1	-1E+10	1	-1E+10	1	-1E+10	1
4902549	81	C	11/08/2022	05:03	-132.794	47.177	0	116.10	0	7.4270	0	32.8420	0	25.663	0	115.102	0	219.1	4	74.2	4	-1E+10	1	-1E+10	1	-1E+10	1	-1E+10	1	-1E+10	1	-1E+10	1
4902549	81	C	11/08/2022	05:03	-132.794	47.177	0	117.00	0	7.4250	0	32.8470	0	25.667	0	115.994	0	216.2	4	73.2	4	-1E+10	1	-1E+10	1	-1E+10	1	-1E+10	1	-1E+10	1	-1E+10	1
4902549	81	C	11/08/2022	05:03	-132.794	47.177	0	117.90	0	7.4210	0	32.8600	0	25.678	0	116.886	0	212.5	4	72.0	4	-1E+10	1	-1E+10	1	-1E+10	1	-1E+10	1	-1E+10	1	-1E+10	1
4902549	81	C	11/08/2022	05:03	-132.794	47.177	0	118.90	0	7.4190	0	32.8770	0	25.691	0	117.877	0	208.7	4	70.7	4	-1E+10	1	-1E+10	1	-1E+10	1	-1E+10	1	-1E+10	1	-1E+10	1
4902549	81	C	11/08/2022	05:03	-132.794	47.177	0	120.00	0	7.4050	0	32.9270	0	25.732	0	118.967	0	205.7	4	69.7	4	-1E+10	1	-1E+10	1	-1E+10	1	-1E+10	1	-1E+10	1	-1E+10	1
4902549	81	C	11/08/2022	05:03	-132.794	47.177	0	121.20	0	7.3900	0	32.9530	0	25.755	0	120.157	0	203.7	4	69.0	4	-1E+10	1	-1E+10	1	-1E+10	1	-1E+10	1	-1E+10	1	-1E+10	1
4902549	81	C	11/08/2022	05:03	-132.794	47.177	0	122.10	0	7.3880	0	32.9690	0	25.768	0	121.049	0	202.3	4	68.5	4	-1E+10	1	-1E+10	1	-1E+10	1	-1E+10	1	-1E+10	1	-1E+10	1
4902549	81	C	11/08/2022	05:03	-132.794	47.177	0	122.90	0	7.3940	0	32.9970	0	25.789	0	121.842	0	200.8	4	68.0	4	-1E+10	1	-1E+10	1	-1E+10	1	-1E+10	1	-1E+10	1	-1E+10	1
4902549	81	C	11/08/2022	05:03	-132.794	47.177	0	124.10	0	7.4040	0	33.0150	0	25.802	0	123.031	0	198.5	4	67.3	4	-1E+10	1	-1E+10	1	-1E+10	1	-1E+10	1	-1E+10	1	-1E+10	1
4902549	81	C	11/08/2022	05:03	-132.794	47.177	0	125.10	0	7.3880	0	33.0610	0	25.840	0	124.022	0	196.7	4	66.7	4	-1E+10	1	-1E+10	1	-1E+10	1	-1E+10	1	-1E+10	1	-1E+10	1
4902549	81	C	11/08/2022	05:03	-132.794	47.177	0	126.10	0	7.3630	0	33.1100	0	25.882	0	125.013	0	195.1	4	66.1	4	-1E+10	1	-1E+10	1	-1E+10	1	-1E+10	1	-1E+10	1	-1E+10	1
4902549	81	C	11/08/2022	05:03	-132.794	47.177	0	127.10	0	7.3460	0	33.1540	0	25.919	0	126.004	0	193.8	4	65.7	4	-1E+10	1	-1E+10	1	-1E+10	1	-1E+10	1	-1E+10	1	-1E+10	1
4902549	81	C	11/08/2022	05:03	-132.794	47.177	0	128.10	0	7.3390	0	33.1920	0	25.950	0	126.995	0	192.5	4	65.2	4	-1E+10	1	-1E+10	1	-1E+10	1	-1E+10	1	-1E+10	1	-1E+10	1
4902549	81	C	11/08/2022	05:03	-132.794	47.177	0	129.00	0	7.3350	0	33.2170	0	25.970	0	127.887	0	191.6	4	64.9	4	-1E+10	1	-1E+10	1	-1E+10	1	-1E+10	1	-1E+10	1	-1E+10	1
4902549	81	C	11/08/2022	05:03	-132.794	47.177	0	129.90	0	7.3300	0	33.2350	0	25.985	0	128.779	0	190.7	4	64.6	4	-1E+10	1	-1E+10	1	-1E+10	1	-1E+10	1	-1E+10	1	-1E+10	1
4902549	81	C	11/08/2022	05:03	-132.794	47.177	0	131.10	0	7.3250	0	33.2490	0	25.997	0	129.968	0	189.3	4	64.2	4	-1E+10	1	-1E+10	1	-1E+10	1	-1E+10	1	-1E+10	1	-1E+10	1
4902549	81	C	11/08/2022	05:03	-132.794	47.177	0	132.00	0	7.3220	0	33.2600	0	26.006	0	130.860	0	188.4	4	63.9	4	-1E+10	1	-1E+10	1	-1E+10	1	-1E+10	1	-1E+10	1	-1E+10	1
4902549	81	C	11/08/2022	05:03	-132.794	47.177	0	132.90	0	7.3220	0	33.2750	0	26.018	0	131.752	0	187.8	4	63.7	4	-1E+10	1	-1E+10	1	-1E+10	1	-1E+10	1	-1E+10	1	-1E+10	1
4902549	81	C	11/08/2022	05:03	-132.794	47.177	0	133.90	0	7.3270	0	33.2830	0	26.023	0	132.743	0	186.9	4	63.4	4	-1E+10	1	-1E+10	1	-1E+10	1	-1E+10	1	-1E+10	1	-1E+10	1
4902549	81	C	11/08/2022	05:03	-132.794	47.177	0	134.80	0	7.3340	0	33.3090	0	26.043	0	133.635	0	185.8	4	63.0	4	-1E+10	1	-1E+10	1	-1E+10	1	-1E+10	1	-1E+10	1	-1E+10	1
4902549	81	C	11/08/2022	05:03	-132.794	47.177	0	136.00	0	7.3160	0	33.3320	0	26.064	0	134.825	0	184.8	4	62.7	4	-1E+10	1	-1E+10	1	-1E+10	1	-1E+10	1	-1E+10	1	-1E+10	1
4902549	81	C	11/08/2022	05:03	-132.794	47.177	0	137.00	0	7.3210	0	33.3540	0	26.080	0	135.816	0	183.5	4	62.2	4	-1E+10	1	-1E+10	1	-1E+10	1	-1E+10	1	-1E+10	1	-1E+10	1
4902549	81	C	11/08/2022	05:03	-132.794	47.177	0	138.00	0	7.3070	0	33.3730	0	26.097	0	136.807	0	182.1	4	61.7	4	-1E+10	1	-1E+10	1	-1E+10	1	-1E+10	1	-1E+10	1	-1E+10	1
4902549	81	C	11/08/2022	05:03	-132.794	47.177	0	139.10	0	7.2940	0	33.3880	0	26.111	0	137.897	0	181.3	4	61.5	4	-1E+10	1	-1E+10	1	-1E+10	1	-1E+10	1	-1E+10	1	-1E+10	1
4902549	81	C	11/08/2022	05:03	-132.794	47.177	0	140.00	0	7.2910	0	33.3970	0	26.118	0	138.789	0	181.0	4	61.4	4	-1E+10	1	-1E+10	1	-1E+10	1	-1E+10	1	-1E+10	1	-1E+10	1
4902549	81	C	11/08/2022	05:03	-132.794	47.177	0	141.10	0	7.2910	0	33.4060	0	26.125	0	139.879	0	180.6	4	61.2	4	-1E+10	1	-1E+10	1	-1E+10	1	-1E+10	1	-1E+10	1	-1E+10	1
4902549	81	C	11/08/2022	05:03	-132.794	47.177	0	141.80	0	7.2860	0	33.4170	0	26.135	0	140.572	0	180.5	4	61.2	4	-1E+10	1	-1E+10	1	-1E+10	1	-1E+10	1	-1E+10	1	-1E+10	1
4902549	81	C	11/08/2022	05:03	-132.794	47.177	0	142.90	0	7.2830	0	33.4270	0	26.143	0	141.663	0	179.8	4	60.9	4	-1E+10	1	-1E+10	1	-1E+10	1	-1E+10	1	-1E+10	1	-1E+10	1
4902549	81	C	11/08/2022	05:03	-132.794	47.177	0	144.00	0	7.2760	0	33.4540	0	26.165	0	142.753	0	178.9	4	60.7	4	-1E+10	1	-1E+10	1	-1E+10	1	-1E+10	1	-1E+10	1	-1E+10	1
4902549	81	C	11/08/2022	05:03	-132.794	47.177	0	145.00	0	7.2750	0	33.4630	0	26.172	0	143.744	0	177.9	4	60.3	4	-1E+10	1	-1E+10	1	-1E+10	1	-1E+10	1	-1E+10	1	-1E+10	1
4902549	81	C	11/08/2022	05:03	-132.794	47.177	0	146.10	0	7.2760	0	33.4710	0	26.179	0	144.834	0	176.5	4	59.8	4	-1E+10	1	-1E+10	1	-1E+10	1	-1E+10	1	-1E+10	1	-1E+10	1
4902549	81	C	11/08/2022	05:03	-132.794	47.177	0	146.80	0	7.2930	0	33.4880	0	26.190	0	145.527	0	175.0	4	59.4	4	-1E+10	1	-1E+10	1	-1E+10	1	-1E+10	1	-1E+10	1	-1E+10	1
4902549	81	C	11/08/2022	05:03	-132.794	47.177	0	147.90	0	7.2910	0	33.4920	0	26.193	0	146.617	0	172.3	4	58.5	4	-1E+10	1	-1E+10	1	-1E+10	1	-1E+10	1	-1E+10	1	-1E+10	1
4902549	81	C	11/08/2022	05:03	-132.794	47.177	0	149.10	0	7.2810	0	33.5040	0	26.204	0	147.807	0	169.8	4	57.6	4	-1E+10	1	-1E+10	1	-1E+10	1	-1E+10	1	-1E+10	1	-1E+10	1
4902549	81	C	11/08/2022	05:03	-132.794	47.177	0	149.80	0	7.2780	0	33.5050	0	26.205	0	148.500	0	168.1	4	57.0	4	-1E+10	1	-1E+10	1	-1E+10	1	-1E+10	1	-1E+10	1	-1E+10	1
4902549	81	C	11/08/2022	05:03	-132.794	47.177	0	151.00	0	7.2470	0	33.5250	0	26.225	0	149.689	0	166.7	4	56.5	4	-1E+10	1	-1E+10	1	-1E+10	1	-1E+10	1	-1E+10	1	-1E+10	1
4902549	81	C	11/08/2022	05:03	-132.794	47.177	0	152.20	0	7.2330	0	33.5450	0	26.243	0	150.879	0	165.7	4	56.2	4	-1E+10	1	-1E+10	1	-1E+10	1	-1E+10	1	-1E+10	1	-1E+10	1
4902549	81	C	11/08/2022	05:03	-132.794	47.177	0	153.00	0	7.2270	0	33.5530	0	26.250	0	151.671	0	164.9	4	55.9	4	-1E+10	1	-1E+10	1	-1E+10	1	-1E+10	1	-1E+10	1	-1E+10	1
4902549	81	C	11/08/2022	05:03	-132.794	47.177	0	153.80	0	7.2240	0	33.5630	0	26.258	0	152.464	0	164.0	4	55.6	4	-1E+10	1	-1E+10	1	-1E+10	1	-1E+10	1	-1E+10	1	-1E+10	1
4902549	81	C	11/08/2022	05:03	-132.794	47.177	0	154.60	0	7.2160	0	33.5710	0	26.266	0	153.257	0	163.2	4	55.3	4	-1E+10	1	-1E+10	1	-1E+10	1	-1E+10	1	-1E+10	1	-1E+10	1
4902549	81	C	11/08/2022	05:03	-132.794	47.177	0	155.90	0	7.2060	0	33.5840	0	26.277	0	154.545	0	161.8	4	54.8	4	-1E+10	1	-1E+10	1	-1E+10	1	-1E+10	1	-1E+10	1	-1E+10	1
4902549	81	C	11/08/2022	05:03	-132.794	47.177	0	157.10	0	7.2050	0	33.5950	0	26.286	0	155.734	0	160.4	4	54.4	4	-1E+10	1	-1E+10	1	-1E+10	1	-1E+10	1	-1E+10	1	-1E+10	1
4902549	81	C	11/08/2022	05:03	-132.794	47.177	0	157.90	0	7.2030	0	33.6010	0	26.291	0	156.527	0	159.4	4	54.0	4	-1E+10	1	-1E+10	1	-1E+10	1	-1E+10	1	-1E+10	1	-1E+10	1
4902549	81	C	11/08/2022	05:03	-132.794	47.177	0	158.80	0	7.1970	0	33.6120	0	26.301	0	157.419	0	158.5	4	53.7	4	-1E+10	1	-1E+10	1	-1E+10	1	-1E+10	1	-1E+10	1	-1E+10	1
4902549	81	C	11/08/2022	05:03	-132.794	47.177	0	159.60	0	7.1930	0	33.6320	0	26.317	0	158.212	0	157.4	4	53.3	4	-1E+10	1	-1E+10	1	-1E+10	1	-1E+10	1	-1E+10	1	-1E+10	1
4902549	81	C	11/08/2022	05:03	-132.794	47.177	0	160.90	0	7.1910	0	33.6430	0	26.326	0	159.500	0	156.0	4	52.9	4	-1E+10	1	-1E+10	1	-1E+10	1	-1E+10	1	-1E+10	1	-1E+10	1
4902549	81	C	11/08/2022	05:03	-132.794	47.177	0	162.10	0	7.1750	0	33.6550	0	26.338	0	160.689	0	154.2	4	52.2	4	-1E+10	1	-1E+10	1	-1E+10	1	-1E+10	1	-1E+10	1	-1E+10	1
4902549	81	C	11/08/2022	05:03	-132.794	47.177	0	163.00	0	7.1700	0	33.6630	0	26.345	0	161.581	0	153.0	4	51.8	4	-1E+10	1	-1E+10	1	-1E+10	1	-1E+10	1	-1E+10	1	-1E+10	1
4902549	81	C	11/08/2022	05:03	-132.794	47.177	0	163.90	0	7.1630	0	33.6740	0	26.354	0	162.472	0	151.9	4	51.4	4	-1E+10	1	-1E+10	1	-1E+10	1	-1E+10	1	-1E+10	1	-1E+10	1
4902549	81	C	11/08/2022	05:03	-132.794	47.177	0	164.80	0	7.1780	0	33.6870	0	26.362	0	163.364	0	151.0	4	51.2	4	-1E+10	1	-1E+10	1	-1E+10	1	-1E+10	1	-1E+10	1	-1E+10	1
4902549	81	C	11/08/2022	05:03	-132.794	47.177	0	165.60	0	7.1860	0	33.6900	0	26.364	0	164.157	0	150.4	4	51.0	4	-1E+10	1	-1E+10	1	-1E+10	1	-1E+10	1	-1E+10	1	-1E+10	1
4902549	81	C	11/08/2022	05:03	-132.794	47.177	0	166.90	0	7.1830	0	33.6930	0	26.366	0	165.445	0	149.3	4	50.6	4	-1E+10	1	-1E+10	1	-1E+10	1	-1E+10	1	-1E+10	1	-1E+10	1
4902549	81	C	11/08/2022	05:03	-132.794	47.177	0	168.30	0	7.1730	0	33.7000	0	26.373	0	166.832	0	148.3	4	50.2	4	-1E+10	1	-1E+10	1	-1E+10	1	-1E+10	1	-1E+10	1	-1E+10	1
4902549	81	C	11/08/2022	05:03	-132.794	47.177	0	169.20	0	7.1670	0	33.7030	0	26.377	0	167.724	0	147.4	4	49.9	4	-1E+10	1	-1E+10	1	-1E+10	1	-1E+10	1	-1E+10	1	-1E+10	1
4902549	81	C	11/08/2022	05:03	-132.794	47.177	0	170.10	0	7.1680	0	33.7080	0	26.380	0	168.616	0	146.6	4	49.7	4	-1E+10	1	-1E+10	1	-1E+10	1	-1E+10	1	-1E+10	1	-1E+10	1
4902549	81	C	11/08/2022	05:03	-132.794	47.177	0	171.00	0	7.1700	0	33.7160	0	26.386	0	169.508	0	146.0	4	49.5	4	-1E+10	1	-1E+10	1	-1E+10	1	-1E+10	1	-1E+10	1	-1E+10	1
4902549	81	C	11/08/2022	05:03	-132.794	47.177	0	171.90	0	7.1710	0	33.7200	0	26.389	0	170.399	0	145.7	4	49.4	4	-1E+10	1	-1E+10	1	-1E+10	1	-1E+10	1	-1E+10	1	-1E+10	1
4902549	81	C	11/08/2022	05:03	-132.794	47.177	0	172.80	0	7.1690	0	33.7280	0	26.396	0	171.291	0	145.6	4	49.3	4	-1E+10	1	-1E+10	1	-1E+10	1	-1E+10	1	-1E+10	1	-1E+10	1
4902549	81	C	11/08/2022	05:03	-132.794	47.177	0	173.70	0	7.1520	0	33.7350	0	26.404	0	172.183	0	145.6	4	49.3	4	-1E+10	1	-1E+10	1	-1E+10	1	-1E+10	1	-1E+10	1	-1E+10	1
4902549	81	C	11/08/2022	05:03	-132.794	47.177	0	174.70	0	7.1360	0	33.7410	0	26.411	0	173.174	0	145.6	4	49.3	4	-1E+10	1	-1E+10	1	-1E+10	1	-1E+10	1	-1E+10	1	-1E+10	1
4902549	81	C	11/08/2022	05:03	-132.794	47.177	0	175.60	0	7.1350	0	33.7400	0	26.410	0	174.066	0	145.6	4	49.3	4	-1E+10	1	-1E+10	1	-1E+10	1	-1E+10	1	-1E+10	1	-1E+10	1
4902549	81	C	11/08/2022	05:03	-132.794	47.177	0	176.90	0	7.1090	0	33.7470	0	26.419	0	175.354	0	145.3	4	49.2	4	-1E+10	1	-1E+10	1	-1E+10	1	-1E+10	1	-1E+10	1	-1E+10	1
4902549	81	C	11/08/2022	05:03	-132.794	47.177	0	178.30	0	7.0800	0	33.7520	0	26.427	0	176.741	0	144.8	4	49.0	4	-1E+10	1	-1E+10	1	-1E+10	1	-1E+10	1	-1E+10	1	-1E+10	1
4902549	81	C	11/08/2022	05:03	-132.794	47.177	0	179.20	0	7.0700	0	33.7580	0	26.433	0	177.633	0	144.2	4	48.8	4	-1E+10	1	-1E+10	1	-1E+10	1	-1E+10	1	-1E+10	1	-1E+10	1
4902549	81	C	11/08/2022	05:03	-132.794	47.177	0	180.10	0	7.0550	0	33.7590	0	26.436	0	178.524	0	143.6	4	48.6	4	-1E+10	1	-1E+10	1	-1E+10	1	-1E+10	1	-1E+10	1	-1E+10	1
4902549	81	C	11/08/2022	05:03	-132.794	47.177	0	181.00	0	7.0430	0	33.7650	0	26.443	0	179.416	0	143.0	4	48.3	4	-1E+10	1	-1E+10	1	-1E+10	1	-1E+10	1	-1E+10	1	-1E+10	1
4902549	81	C	11/08/2022	05:03	-132.794	47.177	0	181.90	0	7.0270	0	33.7650	0	26.445	0	180.308	0	142.2	4	48.0	4	-1E+10	1	-1E+10	1	-1E+10	1	-1E+10	1	-1E+10	1	-1E+10	1
4902549	81	C	11/08/2022	05:03	-132.794	47.177	0	182.80	0	7.0130	0	33.7710	0	26.451	0	181.200	0	141.3	4	47.7	4	-1E+10	1	-1E+10	1	-1E+10	1	-1E+10	1	-1E+10	1	-1E+10	1
4902549	81	C	11/08/2022	05:03	-132.794	47.177	0	183.70	0	7.0090	0	33.7740	0	26.454	0	182.091	0	140.5	4	47.4	4	-1E+10	1	-1E+10	1	-1E+10	1	-1E+10	1	-1E+10	1	-1E+10	1
4902549	81	C	11/08/2022	05:03	-132.794	47.177	0	184.60	0	7.0040	0	33.7770	0	26.457	0	182.983	0	139.7	4	47.2	4	-1E+10	1	-1E+10	1	-1E+10	1	-1E+10	1	-1E+10	1	-1E+10	1
4902549	81	C	11/08/2022	05:03	-132.794	47.177	0	185.90	0	6.9980	0	33.7820	0	26.462	0	184.271	0	138.8	4	46.9	4	-1E+10	1	-1E+10	1	-1E+10	1	-1E+10	1	-1E+10	1	-1E+10	1
4902549	81	C	11/08/2022	05:03	-132.794	47.177	0	187.30	0	6.9810	0	33.7890	0	26.470	0	185.658	0	138.2	4	46.7	4	-1E+10	1	-1E+10	1	-1E+10	1	-1E+10	1	-1E+10	1	-1E+10	1
4902549	81	C	11/08/2022	05:03	-132.794	47.177	0	188.20	0	6.9700	0	33.7900	0	26.472	0	186.550	0	137.8	4	46.5	4	-1E+10	1	-1E+10	1	-1E+10	1	-1E+10	1	-1E+10	1	-1E+10	1
4902549	81	C	11/08/2022	05:03	-132.794	47.177	0	189.10	0	6.9600	0	33.7910	0	26.474	0	187.441	0	137.2	4	46.3	4	-1E+10	1	-1E+10	1	-1E+10	1	-1E+10	1	-1E+10	1	-1E+10	1
4902549	81	C	11/08/2022	05:03	-132.794	47.177	0	190.00	0	6.9400	0	33.7960	0	26.481	0	188.333	0	136.7	4	46.1	4	-1E+10	1	-1E+10	1	-1E+10	1	-1E+10	1	-1E+10	1	-1E+10	1
4902549	81	C	11/08/2022	05:03	-132.794	47.177	0	190.90	0	6.9330	0	33.7990	0	26.484	0	189.225	0	136.3	4	46.0	4	-1E+10	1	-1E+10	1	-1E+10	1	-1E+10	1	-1E+10	1	-1E+10	1
4902549	81	C	11/08/2022	05:03	-132.794	47.177	0	191.80	0	6.9290	0	33.7990	0	26.485	0	190.117	0	135.9	4	45.8	4	-1E+10	1	-1E+10	1	-1E+10	1	-1E+10	1	-1E+10	1	-1E+10	1
4902549	81	C	11/08/2022	05:03	-132.794	47.177	0	192.70	0	6.9210	0	33.8010	0	26.488	0	191.008	0	135.4	4	45.7	4	-1E+10	1	-1E+10	1	-1E+10	1	-1E+10	1	-1E+10	1	-1E+10	1
4902549	81	C	11/08/2022	05:03	-132.794	47.177	0	193.60	0	6.9110	0	33.7990	0	26.487	0	191.900	0	134.7	4	45.4	4	-1E+10	1	-1E+10	1	-1E+10	1	-1E+10	1	-1E+10	1	-1E+10	1
4902549	81	C	11/08/2022	05:03	-132.794	47.177	0	194.90	0	6.8760	0	33.8080	0	26.499	0	193.188	0	134.1	4	45.2	4	-1E+10	1	-1E+10	1	-1E+10	1	-1E+10	1	-1E+10	1	-1E+10	1
4902549	81	C	11/08/2022	05:03	-132.794	47.177	0	196.20	0	6.8590	0	33.8110	0	26.504	0	194.476	0	133.8	4	45.0	4	-1E+10	1	-1E+10	1	-1E+10	1	-1E+10	1	-1E+10	1	-1E+10	1
4902549	81	C	11/08/2022	05:03	-132.794	47.177	0	197.20	0	6.8290	0	33.8120	0	26.509	0	195.467	0	133.5	4	44.9	4	-1E+10	1	-1E+10	1	-1E+10	1	-1E+10	1	-1E+10	1	-1E+10	1
4902549	81	C	11/08/2022	05:03	-132.794	47.177	0	198.10	0	6.7570	0	33.8120	0	26.518	0	196.358	0	133.1	4	44.7	4	-1E+10	1	-1E+10	1	-1E+10	1	-1E+10	1	-1E+10	1	-1E+10	1
4902549	81	C	11/08/2022	05:03	-132.794	47.177	0	199.00	0	6.7270	0	33.8150	0	26.525	0	197.250	0	132.5	4	44.5	4	-1E+10	1	-1E+10	1	-1E+10	1	-1E+10	1	-1E+10	1	-1E+10	1
4902549	81	C	11/08/2022	05:03	-132.794	47.177	0	199.90	0	6.7130	0	33.8160	0	26.527	0	198.142	0	131.8	4	44.2	4	-1E+10	1	-1E+10	1	-1E+10	1	-1E+10	1	-1E+10	1	-1E+10	1
4902549	81	C	11/08/2022	05:03	-132.794	47.177	0	200.80	0	6.6880	0	33.8210	0	26.535	0	199.033	0	131.2	4	44.0	4	-1E+10	1	-1E+10	1	-1E+10	1	-1E+10	1	-1E+10	1	-1E+10	1
4902549	81	C	11/08/2022	05:03	-132.794	47.177	0	201.80	0	6.6720	0	33.8220	0	26.538	0	200.024	0	130.6	4	43.8	4	-1E+10	1	-1E+10	1	-1E+10	1	-1E+10	1	-1E+10	1	-1E+10	1
4902549	81	C	11/08/2022	05:03	-132.794	47.177	0	202.70	0	6.6660	0	33.8240	0	26.540	0	200.916	0	130.1	4	43.6	4	-1E+10	1	-1E+10	1	-1E+10	1	-1E+10	1	-1E+10	1	-1E+10	1
4902549	81	C	11/08/2022	05:03	-132.794	47.177	0	203.60	0	6.6510	0	33.8260	0	26.544	0	201.807	0	129.6	4	43.4	4	-1E+10	1	-1E+10	1	-1E+10	1	-1E+10	1	-1E+10	1	-1E+10	1
4902549	81	C	11/08/2022	05:03	-132.794	47.177	0	204.60	0	6.6370	0	33.8270	0	26.546	0	202.798	0	129.0	4	43.2	4	-1E+10	1	-1E+10	1	-1E+10	1	-1E+10	1	-1E+10	1	-1E+10	1
4902549	81	C	11/08/2022	05:03	-132.794	47.177	0	205.50	0	6.6250	0	33.8270	0	26.548	0	203.690	0	128.5	4	43.0	4	-1E+10	1	-1E+10	1	-1E+10	1	-1E+10	1	-1E+10	1	-1E+10	1
4902549	81	C	11/08/2022	05:03	-132.794	47.177	0	206.90	0	6.6090	0	33.8300	0	26.552	0	205.077	0	127.8	4	42.8	4	-1E+10	1	-1E+10	1	-1E+10	1	-1E+10	1	-1E+10	1	-1E+10	1
4902549	81	C	11/08/2022	05:03	-132.794	47.177	0	208.40	0	6.6060	0	33.8350	0	26.557	0	206.563	0	127.4	4	42.6	4	-1E+10	1	-1E+10	1	-1E+10	1	-1E+10	1	-1E+10	1	-1E+10	1
4902549	81	C	11/08/2022	05:03	-132.794	47.177	0	209.40	0	6.5930	0	33.8380	0	26.561	0	207.553	0	127.3	4	42.6	4	-1E+10	1	-1E+10	1	-1E+10	1	-1E+10	1	-1E+10	1	-1E+10	1
4902549	81	C	11/08/2022	05:03	-132.794	47.177	0	210.40	0	6.5950	0	33.8380	0	26.561	0	208.544	0	127.2	4	42.6	4	-1E+10	1	-1E+10	1	-1E+10	1	-1E+10	1	-1E+10	1	-1E+10	1
4902549	81	C	11/08/2022	05:03	-132.794	47.177	0	211.40	0	6.5960	0	33.8370	0	26.560	0	209.535	0	127.1	4	42.6	4	-1E+10	1	-1E+10	1	-1E+10	1	-1E+10	1	-1E+10	1	-1E+10	1
4902549	81	C	11/08/2022	05:03	-132.794	47.177	0	212.40	0	6.6000	0	33.8370	0	26.559	0	210.525	0	127.2	4	42.6	4	-1E+10	1	-1E+10	1	-1E+10	1	-1E+10	1	-1E+10	1	-1E+10	1
4902549	81	C	11/08/2022	05:03	-132.794	47.177	0	213.30	0	6.5730	0	33.8370	0	26.563	0	211.417	0	127.2	4	42.5	4	-1E+10	1	-1E+10	1	-1E+10	1	-1E+10	1	-1E+10	1	-1E+10	1
4902549	81	C	11/08/2022	05:03	-132.794	47.177	0	214.30	0	6.5310	0	33.8340	0	26.566	0	212.408	0	127.0	4	42.5	4	-1E+10	1	-1E+10	1	-1E+10	1	-1E+10	1	-1E+10	1	-1E+10	1
4902549	81	C	11/08/2022	05:03	-132.794	47.177	0	215.40	0	6.5170	0	33.8340	0	26.568	0	213.497	0	126.8	4	42.4	4	-1E+10	1	-1E+10	1	-1E+10	1	-1E+10	1	-1E+10	1	-1E+10	1
4902549	81	C	11/08/2022	05:03	-132.794	47.177	0	216.40	0	6.5130	0	33.8370	0	26.571	0	214.488	0	126.4	4	42.2	4	-1E+10	1	-1E+10	1	-1E+10	1	-1E+10	1	-1E+10	1	-1E+10	1
4902549	81	C	11/08/2022	05:03	-132.794	47.177	0	217.40	0	6.5110	0	33.8350	0	26.569	0	215.479	0	126.1	4	42.1	4	-1E+10	1	-1E+10	1	-1E+10	1	-1E+10	1	-1E+10	1	-1E+10	1
4902549	81	C	11/08/2022	05:03	-132.794	47.177	0	218.40	0	6.5070	0	33.8350	0	26.570	0	216.469	0	125.8	4	42.0	4	-1E+10	1	-1E+10	1	-1E+10	1	-1E+10	1	-1E+10	1	-1E+10	1
4902549	81	C	11/08/2022	05:03	-132.794	47.177	0	219.40	0	6.5020	0	33.8360	0	26.571	0	217.460	0	125.3	4	41.9	4	-1E+10	1	-1E+10	1	-1E+10	1	-1E+10	1	-1E+10	1	-1E+10	1
4902549	81	C	11/08/2022	05:03	-132.794	47.177	0	220.40	0	6.4980	0	33.8360	0	26.572	0	218.450	0	124.9	4	41.7	4	-1E+10	1	-1E+10	1	-1E+10	1	-1E+10	1	-1E+10	1	-1E+10	1
4902549	81	C	11/08/2022	05:03	-132.794	47.177	0	221.40	0	6.4960	0	33.8370	0	26.573	0	219.441	0	124.4	4	41.6	4	-1E+10	1	-1E+10	1	-1E+10	1	-1E+10	1	-1E+10	1	-1E+10	1
4902549	81	C	11/08/2022	05:03	-132.794	47.177	0	222.50	0	6.4940	0	33.8360	0	26.572	0	220.531	0	123.9	4	41.4	4	-1E+10	1	-1E+10	1	-1E+10	1	-1E+10	1	-1E+10	1	-1E+10	1
4902549	81	C	11/08/2022	05:03	-132.794	47.177	0	223.50	0	6.4930	0	33.8360	0	26.572	0	221.521	0	123.2	4	41.1	4	-1E+10	1	-1E+10	1	-1E+10	1	-1E+10	1	-1E+10	1	-1E+10	1
4902549	81	C	11/08/2022	05:03	-132.794	47.177	0	224.90	0	6.4720	0	33.8380	0	26.577	0	222.908	0	122.3	4	40.8	4	-1E+10	1	-1E+10	1	-1E+10	1	-1E+10	1	-1E+10	1	-1E+10	1
4902549	81	C	11/08/2022	05:03	-132.794	47.177	0	226.90	0	6.4560	0	33.8420	0	26.582	0	224.889	0	121.1	4	40.4	4	-1E+10	1	-1E+10	1	-1E+10	1	-1E+10	1	-1E+10	1	-1E+10	1
4902549	81	C	11/08/2022	05:03	-132.794	47.177	0	228.00	0	6.4530	0	33.8430	0	26.583	0	225.979	0	120.4	4	40.2	4	-1E+10	1	-1E+10	1	-1E+10	1	-1E+10	1	-1E+10	1	-1E+10	1
4902549	81	C	11/08/2022	05:03	-132.794	47.177	0	228.80	0	6.4480	0	33.8450	0	26.585	0	226.772	0	119.9	4	40.0	4	-1E+10	1	-1E+10	1	-1E+10	1	-1E+10	1	-1E+10	1	-1E+10	1
4902549	81	C	11/08/2022	05:03	-132.794	47.177	0	230.00	0	6.4300	0	33.8470	0	26.589	0	227.960	0	119.4	4	39.8	4	-1E+10	1	-1E+10	1	-1E+10	1	-1E+10	1	-1E+10	1	-1E+10	1
4902549	81	C	11/08/2022	05:03	-132.794	47.177	0	231.20	0	6.4280	0	33.8480	0	26.590	0	229.149	0	118.8	4	39.6	4	-1E+10	1	-1E+10	1	-1E+10	1	-1E+10	1	-1E+10	1	-1E+10	1
4902549	81	C	11/08/2022	05:03	-132.794	47.177	0	231.90	0	6.4300	0	33.8460	0	26.589	0	229.842	0	118.3	4	39.5	4	-1E+10	1	-1E+10	1	-1E+10	1	-1E+10	1	-1E+10	1	-1E+10	1
4902549	81	C	11/08/2022	05:03	-132.794	47.177	0	232.70	0	6.4220	0	33.8470	0	26.590	0	230.635	0	117.8	4	39.3	4	-1E+10	1	-1E+10	1	-1E+10	1	-1E+10	1	-1E+10	1	-1E+10	1
4902549	81	C	11/08/2022	05:03	-132.794	47.177	0	233.90	0	6.4110	0	33.8470	0	26.592	0	231.823	0	117.0	4	39.0	4	-1E+10	1	-1E+10	1	-1E+10	1	-1E+10	1	-1E+10	1	-1E+10	1
4902549	81	C	11/08/2022	05:03	-132.794	47.177	0	235.10	0	6.3800	0	33.8500	0	26.598	0	233.012	0	116.3	4	38.8	4	-1E+10	1	-1E+10	1	-1E+10	1	-1E+10	1	-1E+10	1	-1E+10	1
4902549	81	C	11/08/2022	05:03	-132.794	47.177	0	235.90	0	6.3700	0	33.8490	0	26.599	0	233.805	0	115.8	4	38.6	4	-1E+10	1	-1E+10	1	-1E+10	1	-1E+10	1	-1E+10	1	-1E+10	1
4902549	81	C	11/08/2022	05:03	-132.794	47.177	0	236.80	0	6.3570	0	33.8510	0	26.602	0	234.696	0	115.2	4	38.4	4	-1E+10	1	-1E+10	1	-1E+10	1	-1E+10	1	-1E+10	1	-1E+10	1
4902549	81	C	11/08/2022	05:03	-132.794	47.177	0	238.00	0	6.3360	0	33.8480	0	26.602	0	235.885	0	114.2	4	38.0	4	-1E+10	1	-1E+10	1	-1E+10	1	-1E+10	1	-1E+10	1	-1E+10	1
4902549	81	C	11/08/2022	05:03	-132.794	47.177	0	239.20	0	6.3200	0	33.8500	0	26.606	0	237.073	0	113.1	4	37.6	4	-1E+10	1	-1E+10	1	-1E+10	1	-1E+10	1	-1E+10	1	-1E+10	1
4902549	81	C	11/08/2022	05:03	-132.794	47.177	0	240.00	0	6.3260	0	33.8550	0	26.609	0	237.866	0	112.5	4	37.4	4	-1E+10	1	-1E+10	1	-1E+10	1	-1E+10	1	-1E+10	1	-1E+10	1
4902549	81	C	11/08/2022	05:03	-132.794	47.177	0	240.80	0	6.3220	0	33.8560	0	26.611	0	238.658	0	111.9	4	37.2	4	-1E+10	1	-1E+10	1	-1E+10	1	-1E+10	1	-1E+10	1	-1E+10	1
4902549	81	C	11/08/2022	05:03	-132.794	47.177	0	242.00	0	6.3160	0	33.8560	0	26.611	0	239.847	0	110.8	4	36.9	4	-1E+10	1	-1E+10	1	-1E+10	1	-1E+10	1	-1E+10	1	-1E+10	1
4902549	81	C	11/08/2022	05:03	-132.794	47.177	0	243.20	0	6.3050	0	33.8590	0	26.615	0	241.035	0	109.7	4	36.5	4	-1E+10	1	-1E+10	1	-1E+10	1	-1E+10	1	-1E+10	1	-1E+10	1
4902549	81	C	11/08/2022	05:03	-132.794	47.177	0	244.00	0	6.3040	0	33.8590	0	26.615	0	241.828	0	109.0	4	36.3	4	-1E+10	1	-1E+10	1	-1E+10	1	-1E+10	1	-1E+10	1	-1E+10	1
4902549	81	C	11/08/2022	05:03	-132.794	47.177	0	244.80	0	6.2950	0	33.8610	0	26.618	0	242.620	0	108.3	4	36.0	4	-1E+10	1	-1E+10	1	-1E+10	1	-1E+10	1	-1E+10	1	-1E+10	1
4902549	81	C	11/08/2022	05:03	-132.794	47.177	0	246.00	0	6.2840	0	33.8700	0	26.627	0	243.809	0	107.8	4	35.9	4	-1E+10	1	-1E+10	1	-1E+10	1	-1E+10	1	-1E+10	1	-1E+10	1
4902549	81	C	11/08/2022	05:03	-132.794	47.177	0	247.30	0	6.2820	0	33.8700	0	26.627	0	245.097	0	107.4	4	35.7	4	-1E+10	1	-1E+10	1	-1E+10	1	-1E+10	1	-1E+10	1	-1E+10	1
4902549	81	C	11/08/2022	05:03	-132.794	47.177	0	248.10	0	6.2800	0	33.8710	0	26.628	0	245.889	0	107.0	4	35.6	4	-1E+10	1	-1E+10	1	-1E+10	1	-1E+10	1	-1E+10	1	-1E+10	1
4902549	81	C	11/08/2022	05:03	-132.794	47.177	0	248.90	0	6.2780	0	33.8710	0	26.628	0	246.681	0	106.6	4	35.4	4	-1E+10	1	-1E+10	1	-1E+10	1	-1E+10	1	-1E+10	1	-1E+10	1
4902549	81	C	11/08/2022	05:03	-132.794	47.177	0	249.80	0	6.2750	0	33.8700	0	26.628	0	247.573	0	106.2	4	35.3	4	-1E+10	1	-1E+10	1	-1E+10	1	-1E+10	1	-1E+10	1	-1E+10	1
4902549	81	C	11/08/2022	05:03	-132.794	47.177	0	251.00	0	6.2660	0	33.8690	0	26.628	0	248.761	0	105.4	4	35.0	4	-1E+10	1	-1E+10	1	-1E+10	1	-1E+10	1	-1E+10	1	-1E+10	1
4902549	81	C	11/08/2022	05:03	-132.794	47.177	0	252.30	0	6.2320	0	33.8700	0	26.633	0	250.049	0	104.6	4	34.7	4	-1E+10	1	-1E+10	1	-1E+10	1	-1E+10	1	-1E+10	1	-1E+10	1
4902549	81	C	11/08/2022	05:03	-132.794	47.177	0	253.10	0	6.2320	0	33.8750	0	26.637	0	250.841	0	104.3	4	34.6	4	-1E+10	1	-1E+10	1	-1E+10	1	-1E+10	1	-1E+10	1	-1E+10	1
4902549	81	C	11/08/2022	05:03	-132.794	47.177	0	253.90	0	6.2150	0	33.8730	0	26.638	0	251.634	0	103.9	4	34.5	4	-1E+10	1	-1E+10	1	-1E+10	1	-1E+10	1	-1E+10	1	-1E+10	1
4902549	81	C	11/08/2022	05:03	-132.794	47.177	0	254.80	0	6.1790	0	33.8750	0	26.644	0	252.525	0	103.3	4	34.3	4	-1E+10	1	-1E+10	1	-1E+10	1	-1E+10	1	-1E+10	1	-1E+10	1
4902549	81	C	11/08/2022	05:03	-132.794	47.177	0	255.60	0	6.1360	0	33.8680	0	26.644	0	253.318	0	102.7	4	34.0	4	-1E+10	1	-1E+10	1	-1E+10	1	-1E+10	1	-1E+10	1	-1E+10	1
4902549	81	C	11/08/2022	05:03	-132.794	47.177	0	256.90	0	6.1340	0	33.8690	0	26.645	0	254.605	0	101.4	4	33.6	4	-1E+10	1	-1E+10	1	-1E+10	1	-1E+10	1	-1E+10	1	-1E+10	1
4902549	81	C	11/08/2022	05:03	-132.794	47.177	0	258.20	0	6.1470	0	33.8740	0	26.647	0	255.893	0	99.9	4	33.1	4	-1E+10	1	-1E+10	1	-1E+10	1	-1E+10	1	-1E+10	1	-1E+10	1
4902549	81	C	11/08/2022	05:03	-132.794	47.177	0	259.00	0	6.1530	0	33.8790	0	26.651	0	256.685	0	99.2	4	32.9	4	-1E+10	1	-1E+10	1	-1E+10	1	-1E+10	1	-1E+10	1	-1E+10	1
4902549	81	C	11/08/2022	05:03	-132.794	47.177	0	259.90	0	6.1490	0	33.8830	0	26.654	0	257.576	0	98.5	4	32.7	4	-1E+10	1	-1E+10	1	-1E+10	1	-1E+10	1	-1E+10	1	-1E+10	1
4902549	81	C	11/08/2022	05:03	-132.794	47.177	0	260.70	0	6.1510	0	33.8820	0	26.653	0	258.369	0	98.0	4	32.5	4	-1E+10	1	-1E+10	1	-1E+10	1	-1E+10	1	-1E+10	1	-1E+10	1
4902549	81	C	11/08/2022	05:03	-132.794	47.177	0	262.00	0	6.1280	0	33.8830	0	26.657	0	259.656	0	97.2	4	32.2	4	-1E+10	1	-1E+10	1	-1E+10	1	-1E+10	1	-1E+10	1	-1E+10	1
4902549	81	C	11/08/2022	05:03	-132.794	47.177	0	263.30	0	6.0930	0	33.8860	0	26.664	0	260.944	0	96.6	4	32.0	4	-1E+10	1	-1E+10	1	-1E+10	1	-1E+10	1	-1E+10	1	-1E+10	1
4902549	81	C	11/08/2022	05:03	-132.794	47.177	0	264.20	0	6.0720	0	33.8890	0	26.669	0	261.835	0	96.2	4	31.8	4	-1E+10	1	-1E+10	1	-1E+10	1	-1E+10	1	-1E+10	1	-1E+10	1
4902549	81	C	11/08/2022	05:03	-132.794	47.177	0	265.00	0	6.0560	0	33.8870	0	26.669	0	262.628	0	95.9	4	31.7	4	-1E+10	1	-1E+10	1	-1E+10	1	-1E+10	1	-1E+10	1	-1E+10	1
4902549	81	C	11/08/2022	05:03	-132.794	47.177	0	265.90	0	6.0580	0	33.8900	0	26.671	0	263.519	0	95.5	4	31.6	4	-1E+10	1	-1E+10	1	-1E+10	1	-1E+10	1	-1E+10	1	-1E+10	1
4902549	81	C	11/08/2022	05:03	-132.794	47.177	0	266.80	0	6.0570	0	33.8930	0	26.674	0	264.410	0	95.3	4	31.5	4	-1E+10	1	-1E+10	1	-1E+10	1	-1E+10	1	-1E+10	1	-1E+10	1
4902549	81	C	11/08/2022	05:03	-132.794	47.177	0	267.60	0	6.0460	0	33.8910	0	26.674	0	265.203	0	95.0	4	31.4	4	-1E+10	1	-1E+10	1	-1E+10	1	-1E+10	1	-1E+10	1	-1E+10	1
4902549	81	C	11/08/2022	05:03	-132.794	47.177	0	268.90	0	6.0120	0	33.8880	0	26.675	0	266.490	0	94.5	4	31.2	4	-1E+10	1	-1E+10	1	-1E+10	1	-1E+10	1	-1E+10	1	-1E+10	1
4902549	81	C	11/08/2022	05:03	-132.794	47.177	0	270.30	0	6.0140	0	33.8950	0	26.681	0	267.877	0	94.0	4	31.1	4	-1E+10	1	-1E+10	1	-1E+10	1	-1E+10	1	-1E+10	1	-1E+10	1
4902549	81	C	11/08/2022	05:03	-132.794	47.177	0	271.20	0	6.0150	0	33.8940	0	26.680	0	268.768	0	93.8	4	31.0	4	-1E+10	1	-1E+10	1	-1E+10	1	-1E+10	1	-1E+10	1	-1E+10	1
4902549	81	C	11/08/2022	05:03	-132.794	47.177	0	272.00	0	6.0140	0	33.8960	0	26.682	0	269.560	0	93.6	4	30.9	4	-1E+10	1	-1E+10	1	-1E+10	1	-1E+10	1	-1E+10	1	-1E+10	1
4902549	81	C	11/08/2022	05:03	-132.794	47.177	0	272.90	0	5.9950	0	33.8950	0	26.683	0	270.452	0	93.3	4	30.8	4	-1E+10	1	-1E+10	1	-1E+10	1	-1E+10	1	-1E+10	1	-1E+10	1
4902549	81	C	11/08/2022	05:03	-132.794	47.177	0	273.80	0	5.9890	0	33.8940	0	26.683	0	271.343	0	93.0	4	30.7	4	-1E+10	1	-1E+10	1	-1E+10	1	-1E+10	1	-1E+10	1	-1E+10	1
4902549	81	C	11/08/2022	05:03	-132.794	47.177	0	274.60	0	5.9840	0	33.8940	0	26.684	0	272.135	0	92.6	4	30.6	4	-1E+10	1	-1E+10	1	-1E+10	1	-1E+10	1	-1E+10	1	-1E+10	1
4902549	81	C	11/08/2022	05:03	-132.794	47.177	0	275.90	0	5.9780	0	33.8940	0	26.685	0	273.423	0	92.1	4	30.4	4	-1E+10	1	-1E+10	1	-1E+10	1	-1E+10	1	-1E+10	1	-1E+10	1
4902549	81	C	11/08/2022	05:03	-132.794	47.177	0	277.20	0	5.9740	0	33.8940	0	26.685	0	274.710	0	91.5	4	30.2	4	-1E+10	1	-1E+10	1	-1E+10	1	-1E+10	1	-1E+10	1	-1E+10	1
4902549	81	C	11/08/2022	05:03	-132.794	47.177	0	278.10	0	5.9670	0	33.8960	0	26.688	0	275.602	0	91.1	4	30.1	4	-1E+10	1	-1E+10	1	-1E+10	1	-1E+10	1	-1E+10	1	-1E+10	1
4902549	81	C	11/08/2022	05:03	-132.794	47.177	0	279.00	0	5.9570	0	33.8960	0	26.689	0	276.493	0	90.7	4	29.9	4	-1E+10	1	-1E+10	1	-1E+10	1	-1E+10	1	-1E+10	1	-1E+10	1
4902549	81	C	11/08/2022	05:03	-132.794	47.177	0	279.90	0	5.9450	0	33.8970	0	26.691	0	277.384	0	90.4	4	29.8	4	-1E+10	1	-1E+10	1	-1E+10	1	-1E+10	1	-1E+10	1	-1E+10	1
4902549	81	C	11/08/2022	05:03	-132.794	47.177	0	280.80	0	5.9410	0	33.8990	0	26.693	0	278.276	0	90.0	4	29.7	4	-1E+10	1	-1E+10	1	-1E+10	1	-1E+10	1	-1E+10	1	-1E+10	1
4902549	81	C	11/08/2022	05:03	-132.794	47.177	0	281.70	0	5.9400	0	33.8980	0	26.692	0	279.167	0	89.6	4	29.6	4	-1E+10	1	-1E+10	1	-1E+10	1	-1E+10	1	-1E+10	1	-1E+10	1
4902549	81	C	11/08/2022	05:03	-132.794	47.177	0	282.70	0	5.9340	0	33.9020	0	26.696	0	280.157	0	89.3	4	29.5	4	-1E+10	1	-1E+10	1	-1E+10	1	-1E+10	1	-1E+10	1	-1E+10	1
4902549	81	C	11/08/2022	05:03	-132.794	47.177	0	283.60	0	5.9090	0	33.9030	0	26.700	0	281.049	0	89.1	4	29.4	4	-1E+10	1	-1E+10	1	-1E+10	1	-1E+10	1	-1E+10	1	-1E+10	1
4902549	81	C	11/08/2022	05:03	-132.794	47.177	0	284.90	0	5.8880	0	33.9010	0	26.701	0	282.336	0	88.9	4	29.3	4	-1E+10	1	-1E+10	1	-1E+10	1	-1E+10	1	-1E+10	1	-1E+10	1
4902549	81	C	11/08/2022	05:03	-132.794	47.177	0	286.40	0	5.8830	0	33.9000	0	26.701	0	283.821	0	88.7	4	29.2	4	-1E+10	1	-1E+10	1	-1E+10	1	-1E+10	1	-1E+10	1	-1E+10	1
4902549	81	C	11/08/2022	05:03	-132.794	47.177	0	287.30	0	5.8700	0	33.9010	0	26.704	0	284.713	0	88.5	4	29.1	4	-1E+10	1	-1E+10	1	-1E+10	1	-1E+10	1	-1E+10	1	-1E+10	1
4902549	81	C	11/08/2022	05:03	-132.794	47.177	0	288.20	0	5.8590	0	33.9020	0	26.706	0	285.604	0	88.3	4	29.1	4	-1E+10	1	-1E+10	1	-1E+10	1	-1E+10	1	-1E+10	1	-1E+10	1
4902549	81	C	11/08/2022	05:03	-132.794	47.177	0	289.20	0	5.8510	0	33.9020	0	26.707	0	286.594	0	88.1	4	29.0	4	-1E+10	1	-1E+10	1	-1E+10	1	-1E+10	1	-1E+10	1	-1E+10	1
4902549	81	C	11/08/2022	05:03	-132.794	47.177	0	290.20	0	5.8460	0	33.9030	0	26.708	0	287.585	0	87.9	4	28.9	4	-1E+10	1	-1E+10	1	-1E+10	1	-1E+10	1	-1E+10	1	-1E+10	1
4902549	81	C	11/08/2022	05:03	-132.794	47.177	0	291.10	0	5.8410	0	33.9020	0	26.708	0	288.476	0	87.7	4	28.9	4	-1E+10	1	-1E+10	1	-1E+10	1	-1E+10	1	-1E+10	1	-1E+10	1
4902549	81	C	11/08/2022	05:03	-132.794	47.177	0	292.00	0	5.8430	0	33.9020	0	26.708	0	289.367	0	87.6	4	28.8	4	-1E+10	1	-1E+10	1	-1E+10	1	-1E+10	1	-1E+10	1	-1E+10	1
4902549	81	C	11/08/2022	05:03	-132.794	47.177	0	293.00	0	5.8430	0	33.9030	0	26.709	0	290.357	0	87.4	4	28.8	4	-1E+10	1	-1E+10	1	-1E+10	1	-1E+10	1	-1E+10	1	-1E+10	1
4902549	81	C	11/08/2022	05:03	-132.794	47.177	0	294.00	0	5.8410	0	33.9040	0	26.710	0	291.348	0	87.1	4	28.7	4	-1E+10	1	-1E+10	1	-1E+10	1	-1E+10	1	-1E+10	1	-1E+10	1
4902549	81	C	11/08/2022	05:03	-132.794	47.177	0	294.90	0	5.8360	0	33.9030	0	26.709	0	292.239	0	86.8	4	28.6	4	-1E+10	1	-1E+10	1	-1E+10	1	-1E+10	1	-1E+10	1	-1E+10	1
4902549	81	C	11/08/2022	05:03	-132.794	47.177	0	295.90	0	5.8340	0	33.9030	0	26.710	0	293.229	0	86.6	4	28.5	4	-1E+10	1	-1E+10	1	-1E+10	1	-1E+10	1	-1E+10	1	-1E+10	1
4902549	81	C	11/08/2022	05:03	-132.794	47.177	0	296.90	0	5.8320	0	33.9030	0	26.710	0	294.219	0	86.3	4	28.4	4	-1E+10	1	-1E+10	1	-1E+10	1	-1E+10	1	-1E+10	1	-1E+10	1
4902549	81	C	11/08/2022	05:03	-132.794	47.177	0	297.90	0	5.8300	0	33.9040	0	26.711	0	295.210	0	86.0	4	28.3	4	-1E+10	1	-1E+10	1	-1E+10	1	-1E+10	1	-1E+10	1	-1E+10	1
4902549	81	C	11/08/2022	05:03	-132.794	47.177	0	298.80	0	5.8290	0	33.9040	0	26.711	0	296.101	0	85.7	4	28.2	4	-1E+10	1	-1E+10	1	-1E+10	1	-1E+10	1	-1E+10	1	-1E+10	1
4902549	81	C	11/08/2022	05:03	-132.794	47.177	0	299.80	0	5.8280	0	33.9050	0	26.712	0	297.091	0	85.4	4	28.1	4	-1E+10	1	-1E+10	1	-1E+10	1	-1E+10	1	-1E+10	1	-1E+10	1
4902549	81	C	11/08/2022	05:03	-132.794	47.177	0	300.80	0	5.8270	0	33.9040	0	26.711	0	298.081	0	85.0	4	28.0	4	-1E+10	1	-1E+10	1	-1E+10	1	-1E+10	1	-1E+10	1	-1E+10	1
4902549	81	C	11/08/2022	05:03	-132.794	47.177	0	301.80	0	5.8270	0	33.9040	0	26.711	0	299.072	0	84.7	4	27.9	4	-1E+10	1	-1E+10	1	-1E+10	1	-1E+10	1	-1E+10	1	-1E+10	1
4902549	81	C	11/08/2022	05:03	-132.794	47.177	0	302.80	0	5.8140	0	33.9060	0	26.715	0	300.062	0	84.4	4	27.8	4	-1E+10	1	-1E+10	1	-1E+10	1	-1E+10	1	-1E+10	1	-1E+10	1
4902549	81	C	11/08/2022	05:03	-132.794	47.177	0	303.80	0	5.7960	0	33.9070	0	26.718	0	301.052	0	84.1	4	27.6	4	-1E+10	1	-1E+10	1	-1E+10	1	-1E+10	1	-1E+10	1	-1E+10	1
4902549	81	C	11/08/2022	05:03	-132.794	47.177	0	304.80	0	5.7900	0	33.9070	0	26.718	0	302.042	0	83.8	4	27.6	4	-1E+10	1	-1E+10	1	-1E+10	1	-1E+10	1	-1E+10	1	-1E+10	1
4902549	81	C	11/08/2022	05:03	-132.794	47.177	0	305.90	0	5.7860	0	33.9070	0	26.719	0	303.132	0	83.5	4	27.4	4	-1E+10	1	-1E+10	1	-1E+10	1	-1E+10	1	-1E+10	1	-1E+10	1
4902549	81	C	11/08/2022	05:03	-132.794	47.177	0	306.90	0	5.7820	0	33.9080	0	26.720	0	304.122	0	83.2	4	27.3	4	-1E+10	1	-1E+10	1	-1E+10	1	-1E+10	1	-1E+10	1	-1E+10	1
4902549	81	C	11/08/2022	05:03	-132.794	47.177	0	307.90	0	5.7790	0	33.9090	0	26.721	0	305.112	0	82.9	4	27.2	4	-1E+10	1	-1E+10	1	-1E+10	1	-1E+10	1	-1E+10	1	-1E+10	1
4902549	81	C	11/08/2022	05:03	-132.794	47.177	0	308.90	0	5.7780	0	33.9090	0	26.721	0	306.102	0	82.6	4	27.1	4	-1E+10	1	-1E+10	1	-1E+10	1	-1E+10	1	-1E+10	1	-1E+10	1
4902549	81	C	11/08/2022	05:03	-132.794	47.177	0	309.90	0	5.7750	0	33.9100	0	26.723	0	307.092	0	82.3	4	27.0	4	-1E+10	1	-1E+10	1	-1E+10	1	-1E+10	1	-1E+10	1	-1E+10	1
4902549	81	C	11/08/2022	05:03	-132.794	47.177	0	311.00	0	5.7690	0	33.9110	0	26.724	0	308.182	0	82.0	4	27.0	4	-1E+10	1	-1E+10	1	-1E+10	1	-1E+10	1	-1E+10	1	-1E+10	1
4902549	81	C	11/08/2022	05:03	-132.794	47.177	0	312.00	0	5.7660	0	33.9110	0	26.725	0	309.172	0	81.7	4	26.8	4	-1E+10	1	-1E+10	1	-1E+10	1	-1E+10	1	-1E+10	1	-1E+10	1
4902549	81	C	11/08/2022	05:03	-132.794	47.177	0	313.00	0	5.7570	0	33.9120	0	26.726	0	310.162	0	81.4	4	26.7	4	-1E+10	1	-1E+10	1	-1E+10	1	-1E+10	1	-1E+10	1	-1E+10	1
4902549	81	C	11/08/2022	05:03	-132.794	47.177	0	314.10	0	5.7500	0	33.9120	0	26.727	0	311.251	0	81.1	4	26.6	4	-1E+10	1	-1E+10	1	-1E+10	1	-1E+10	1	-1E+10	1	-1E+10	1
4902549	81	C	11/08/2022	05:03	-132.794	47.177	0	315.10	0	5.7450	0	33.9120	0	26.728	0	312.241	0	80.9	4	26.6	4	-1E+10	1	-1E+10	1	-1E+10	1	-1E+10	1	-1E+10	1	-1E+10	1
4902549	81	C	11/08/2022	05:03	-132.794	47.177	0	316.10	0	5.7390	0	33.9120	0	26.729	0	313.232	0	80.5	4	26.4	4	-1E+10	1	-1E+10	1	-1E+10	1	-1E+10	1	-1E+10	1	-1E+10	1
4902549	81	C	11/08/2022	05:03	-132.794	47.177	0	317.20	0	5.7310	0	33.9130	0	26.730	0	314.321	0	80.2	4	26.3	4	-1E+10	1	-1E+10	1	-1E+10	1	-1E+10	1	-1E+10	1	-1E+10	1
4902549	81	C	11/08/2022	05:03	-132.794	47.177	0	318.20	0	5.7180	0	33.9140	0	26.733	0	315.311	0	79.9	4	26.2	4	-1E+10	1	-1E+10	1	-1E+10	1	-1E+10	1	-1E+10	1	-1E+10	1
4902549	81	C	11/08/2022	05:03	-132.794	47.177	0	319.30	0	5.7120	0	33.9150	0	26.734	0	316.400	0	79.6	4	26.1	4	-1E+10	1	-1E+10	1	-1E+10	1	-1E+10	1	-1E+10	1	-1E+10	1
4902549	81	C	11/08/2022	05:03	-132.794	47.177	0	320.40	0	5.7060	0	33.9150	0	26.735	0	317.489	0	79.3	4	26.0	4	-1E+10	1	-1E+10	1	-1E+10	1	-1E+10	1	-1E+10	1	-1E+10	1
4902549	81	C	11/08/2022	05:03	-132.794	47.177	0	321.40	0	5.7040	0	33.9150	0	26.735	0	318.479	0	79.0	4	25.9	4	-1E+10	1	-1E+10	1	-1E+10	1	-1E+10	1	-1E+10	1	-1E+10	1
4902549	81	C	11/08/2022	05:03	-132.794	47.177	0	322.50	0	5.7030	0	33.9150	0	26.735	0	319.569	0	78.6	4	25.8	4	-1E+10	1	-1E+10	1	-1E+10	1	-1E+10	1	-1E+10	1	-1E+10	1
4902549	81	C	11/08/2022	05:03	-132.794	47.177	0	323.50	0	5.7020	0	33.9150	0	26.736	0	320.559	0	78.3	4	25.7	4	-1E+10	1	-1E+10	1	-1E+10	1	-1E+10	1	-1E+10	1	-1E+10	1
4902549	81	C	11/08/2022	05:03	-132.794	47.177	0	324.60	0	5.7010	0	33.9150	0	26.736	0	321.648	0	77.8	4	25.5	4	-1E+10	1	-1E+10	1	-1E+10	1	-1E+10	1	-1E+10	1	-1E+10	1
4902549	81	C	11/08/2022	05:03	-132.794	47.177	0	325.60	0	5.6950	0	33.9150	0	26.736	0	322.638	0	77.3	4	25.4	4	-1E+10	1	-1E+10	1	-1E+10	1	-1E+10	1	-1E+10	1	-1E+10	1
4902549	81	C	11/08/2022	05:03	-132.794	47.177	0	326.70	0	5.6830	0	33.9160	0	26.739	0	323.727	0	76.8	4	25.2	4	-1E+10	1	-1E+10	1	-1E+10	1	-1E+10	1	-1E+10	1	-1E+10	1
4902549	81	C	11/08/2022	05:03	-132.794	47.177	0	327.70	0	5.6720	0	33.9170	0	26.741	0	324.717	0	76.3	4	25.0	4	-1E+10	1	-1E+10	1	-1E+10	1	-1E+10	1	-1E+10	1	-1E+10	1
4902549	81	C	11/08/2022	05:03	-132.794	47.177	0	328.80	0	5.6680	0	33.9170	0	26.741	0	325.806	0	75.8	4	24.8	4	-1E+10	1	-1E+10	1	-1E+10	1	-1E+10	1	-1E+10	1	-1E+10	1
4902549	81	C	11/08/2022	05:03	-132.794	47.177	0	329.80	0	5.6470	0	33.9180	0	26.745	0	326.796	0	75.3	4	24.7	4	-1E+10	1	-1E+10	1	-1E+10	1	-1E+10	1	-1E+10	1	-1E+10	1
4902549	81	C	11/08/2022	05:03	-132.794	47.177	0	330.90	0	5.6230	0	33.9220	0	26.751	0	327.886	0	75.0	4	24.5	4	-1E+10	1	-1E+10	1	-1E+10	1	-1E+10	1	-1E+10	1	-1E+10	1
4902549	81	C	11/08/2022	05:03	-132.794	47.177	0	331.90	0	5.6200	0	33.9210	0	26.750	0	328.876	0	74.6	4	24.4	4	-1E+10	1	-1E+10	1	-1E+10	1	-1E+10	1	-1E+10	1	-1E+10	1
4902549	81	C	11/08/2022	05:03	-132.794	47.177	0	333.00	0	5.6200	0	33.9220	0	26.751	0	329.965	0	74.2	4	24.3	4	-1E+10	1	-1E+10	1	-1E+10	1	-1E+10	1	-1E+10	1	-1E+10	1
4902549	81	C	11/08/2022	05:03	-132.794	47.177	0	334.00	0	5.6180	0	33.9230	0	26.752	0	330.955	0	73.9	4	24.2	4	-1E+10	1	-1E+10	1	-1E+10	1	-1E+10	1	-1E+10	1	-1E+10	1
4902549	81	C	11/08/2022	05:03	-132.794	47.177	0	335.10	0	5.6190	0	33.9230	0	26.752	0	332.044	0	73.5	4	24.1	4	-1E+10	1	-1E+10	1	-1E+10	1	-1E+10	1	-1E+10	1	-1E+10	1
4902549	81	C	11/08/2022	05:03	-132.794	47.177	0	336.10	0	5.6150	0	33.9250	0	26.754	0	333.034	0	73.2	4	24.0	4	-1E+10	1	-1E+10	1	-1E+10	1	-1E+10	1	-1E+10	1	-1E+10	1
4902549	81	C	11/08/2022	05:03	-132.794	47.177	0	337.10	0	5.6020	0	33.9270	0	26.757	0	334.024	0	72.9	4	23.9	4	-1E+10	1	-1E+10	1	-1E+10	1	-1E+10	1	-1E+10	1	-1E+10	1
4902549	81	C	11/08/2022	05:03	-132.794	47.177	0	338.20	0	5.5960	0	33.9280	0	26.759	0	335.113	0	72.7	4	23.8	4	-1E+10	1	-1E+10	1	-1E+10	1	-1E+10	1	-1E+10	1	-1E+10	1
4902549	81	C	11/08/2022	05:03	-132.794	47.177	0	339.20	0	5.5880	0	33.9280	0	26.760	0	336.103	0	72.6	4	23.7	4	-1E+10	1	-1E+10	1	-1E+10	1	-1E+10	1	-1E+10	1	-1E+10	1
4902549	81	C	11/08/2022	05:03	-132.794	47.177	0	340.30	0	5.5700	0	33.9330	0	26.766	0	337.192	0	72.4	4	23.7	4	-1E+10	1	-1E+10	1	-1E+10	1	-1E+10	1	-1E+10	1	-1E+10	1
4902549	81	C	11/08/2022	05:03	-132.794	47.177	0	341.30	0	5.5600	0	33.9290	0	26.764	0	338.182	0	72.3	4	23.7	4	-1E+10	1	-1E+10	1	-1E+10	1	-1E+10	1	-1E+10	1	-1E+10	1
4902549	81	C	11/08/2022	05:03	-132.794	47.177	0	342.30	0	5.5560	0	33.9290	0	26.765	0	339.172	0	72.1	4	23.6	4	-1E+10	1	-1E+10	1	-1E+10	1	-1E+10	1	-1E+10	1	-1E+10	1
4902549	81	C	11/08/2022	05:03	-132.794	47.177	0	343.40	0	5.5530	0	33.9290	0	26.765	0	340.261	0	72.0	4	23.5	4	-1E+10	1	-1E+10	1	-1E+10	1	-1E+10	1	-1E+10	1	-1E+10	1
4902549	81	C	11/08/2022	05:03	-132.794	47.177	0	344.40	0	5.5490	0	33.9300	0	26.766	0	341.251	0	71.8	4	23.5	4	-1E+10	1	-1E+10	1	-1E+10	1	-1E+10	1	-1E+10	1	-1E+10	1
4902549	81	C	11/08/2022	05:03	-132.794	47.177	0	345.40	0	5.5490	0	33.9290	0	26.765	0	342.241	0	71.6	4	23.4	4	-1E+10	1	-1E+10	1	-1E+10	1	-1E+10	1	-1E+10	1	-1E+10	1
4902549	81	C	11/08/2022	05:03	-132.794	47.177	0	346.40	0	5.5490	0	33.9290	0	26.765	0	343.231	0	71.3	4	23.3	4	-1E+10	1	-1E+10	1	-1E+10	1	-1E+10	1	-1E+10	1	-1E+10	1
4902549	81	C	11/08/2022	05:03	-132.794	47.177	0	347.40	0	5.5460	0	33.9290	0	26.766	0	344.222	0	71.1	4	23.2	4	-1E+10	1	-1E+10	1	-1E+10	1	-1E+10	1	-1E+10	1	-1E+10	1
4902549	81	C	11/08/2022	05:03	-132.794	47.177	0	348.40	0	5.5430	0	33.9300	0	26.767	0	345.212	0	70.8	4	23.1	4	-1E+10	1	-1E+10	1	-1E+10	1	-1E+10	1	-1E+10	1	-1E+10	1
4902549	81	C	11/08/2022	05:03	-132.794	47.177	0	349.50	0	5.5420	0	33.9300	0	26.767	0	346.301	0	70.5	4	23.0	4	-1E+10	1	-1E+10	1	-1E+10	1	-1E+10	1	-1E+10	1	-1E+10	1
4902549	81	C	11/08/2022	05:03	-132.794	47.177	0	352.50	0	5.5320	0	33.9310	0	26.769	0	349.271	0	69.5	4	22.7	4	-1E+10	1	-1E+10	1	-1E+10	1	-1E+10	1	-1E+10	1	-1E+10	1
4902549	81	C	11/08/2022	05:03	-132.794	47.177	0	357.90	0	5.4860	0	33.9350	0	26.778	0	354.616	0	68.2	4	22.3	4	-1E+10	1	-1E+10	1	-1E+10	1	-1E+10	1	-1E+10	1	-1E+10	1
4902549	81	C	11/08/2022	05:03	-132.794	47.177	0	363.30	0	5.4400	0	33.9350	0	26.783	0	359.962	0	67.1	4	21.9	4	-1E+10	1	-1E+10	1	-1E+10	1	-1E+10	1	-1E+10	1	-1E+10	1
4902549	81	C	11/08/2022	05:03	-132.794	47.177	0	368.20	0	5.4190	0	33.9360	0	26.787	0	364.813	0	64.8	4	21.1	4	-1E+10	1	-1E+10	1	-1E+10	1	-1E+10	1	-1E+10	1	-1E+10	1
4902549	81	C	11/08/2022	05:03	-132.794	47.177	0	373.10	0	5.3860	0	33.9410	0	26.795	0	369.663	0	62.1	4	20.2	4	-1E+10	1	-1E+10	1	-1E+10	1	-1E+10	1	-1E+10	1	-1E+10	1
4902549	81	C	11/08/2022	05:03	-132.794	47.177	0	378.00	0	5.3170	0	33.9470	0	26.807	0	374.514	0	59.5	4	19.3	4	-1E+10	1	-1E+10	1	-1E+10	1	-1E+10	1	-1E+10	1	-1E+10	1
4902549	81	C	11/08/2022	05:03	-132.794	47.177	0	382.90	0	5.2590	0	33.9550	0	26.821	0	379.364	0	57.6	4	18.7	4	-1E+10	1	-1E+10	1	-1E+10	1	-1E+10	1	-1E+10	1	-1E+10	1
4902549	81	C	11/08/2022	05:03	-132.794	47.177	0	387.80	0	5.2170	0	33.9580	0	26.828	0	384.214	0	55.9	4	18.1	4	-1E+10	1	-1E+10	1	-1E+10	1	-1E+10	1	-1E+10	1	-1E+10	1
4902549	81	C	11/08/2022	05:03	-132.794	47.177	0	392.80	0	5.1800	0	33.9630	0	26.836	0	389.164	0	54.1	4	17.5	4	-1E+10	1	-1E+10	1	-1E+10	1	-1E+10	1	-1E+10	1	-1E+10	1
4902549	81	C	11/08/2022	05:03	-132.794	47.177	0	397.80	0	5.1500	0	33.9680	0	26.844	0	394.112	0	52.4	4	17.0	4	-1E+10	1	-1E+10	1	-1E+10	1	-1E+10	1	-1E+10	1	-1E+10	1
4902549	81	C	11/08/2022	05:03	-132.794	47.177	0	402.90	0	5.1440	0	33.9760	0	26.851	0	399.160	0	50.8	4	16.5	4	-1E+10	1	-1E+10	1	-1E+10	1	-1E+10	1	-1E+10	1	-1E+10	1
4902549	81	C	11/08/2022	05:03	-132.794	47.177	0	408.00	0	5.0960	0	33.9800	0	26.859	0	404.208	0	49.7	4	16.1	4	-1E+10	1	-1E+10	1	-1E+10	1	-1E+10	1	-1E+10	1	-1E+10	1
4902549	81	C	11/08/2022	05:03	-132.794	47.177	0	413.20	0	5.0980	0	33.9840	0	26.862	0	409.355	0	48.4	4	15.7	4	-1E+10	1	-1E+10	1	-1E+10	1	-1E+10	1	-1E+10	1	-1E+10	1
4902549	81	C	11/08/2022	05:03	-132.794	47.177	0	417.90	0	5.0770	0	33.9890	0	26.869	0	414.006	0	47.8	4	15.5	4	-1E+10	1	-1E+10	1	-1E+10	1	-1E+10	1	-1E+10	1	-1E+10	1
4902549	81	C	11/08/2022	05:03	-132.794	47.177	0	423.00	0	5.0490	0	33.9900	0	26.873	0	419.053	0	47.0	4	15.2	4	-1E+10	1	-1E+10	1	-1E+10	1	-1E+10	1	-1E+10	1	-1E+10	1
4902549	81	C	11/08/2022	05:03	-132.794	47.177	0	428.30	0	5.0210	0	33.9910	0	26.877	0	424.299	0	45.9	4	14.8	4	-1E+10	1	-1E+10	1	-1E+10	1	-1E+10	1	-1E+10	1	-1E+10	1
4902549	81	C	11/08/2022	05:03	-132.794	47.177	0	433.20	0	5.0050	0	33.9960	0	26.883	0	429.148	0	44.5	4	14.4	4	-1E+10	1	-1E+10	1	-1E+10	1	-1E+10	1	-1E+10	1	-1E+10	1
4902549	81	C	11/08/2022	05:03	-132.794	47.177	0	437.90	0	4.9960	0	34.0020	0	26.889	0	433.799	0	43.6	4	14.1	4	-1E+10	1	-1E+10	1	-1E+10	1	-1E+10	1	-1E+10	1	-1E+10	1
4902549	81	C	11/08/2022	05:03	-132.794	47.177	0	442.60	0	4.9660	0	34.0030	0	26.893	0	438.450	0	42.7	4	13.8	4	-1E+10	1	-1E+10	1	-1E+10	1	-1E+10	1	-1E+10	1	-1E+10	1
4902549	81	C	11/08/2022	05:03	-132.794	47.177	0	447.80	0	4.9350	0	34.0070	0	26.899	0	443.596	0	41.5	4	13.4	4	-1E+10	1	-1E+10	1	-1E+10	1	-1E+10	1	-1E+10	1	-1E+10	1
4902549	81	C	11/08/2022	05:03	-132.794	47.177	0	453.00	0	4.9130	0	34.0120	0	26.906	0	448.741	0	40.3	4	13.0	4	-1E+10	1	-1E+10	1	-1E+10	1	-1E+10	1	-1E+10	1	-1E+10	1
4902549	81	C	11/08/2022	05:03	-132.794	47.177	0	457.90	0	4.8930	0	34.0160	0	26.911	0	453.590	0	39.3	4	12.7	4	-1E+10	1	-1E+10	1	-1E+10	1	-1E+10	1	-1E+10	1	-1E+10	1
4902549	81	C	11/08/2022	05:03	-132.794	47.177	0	462.80	0	4.8760	0	34.0200	0	26.917	0	458.438	0	38.2	4	12.3	4	-1E+10	1	-1E+10	1	-1E+10	1	-1E+10	1	-1E+10	1	-1E+10	1
4902549	81	C	11/08/2022	05:03	-132.794	47.177	0	467.80	0	4.8610	0	34.0230	0	26.921	0	463.386	0	37.1	4	11.9	4	-1E+10	1	-1E+10	1	-1E+10	1	-1E+10	1	-1E+10	1	-1E+10	1
4902549	81	C	11/08/2022	05:03	-132.794	47.177	0	472.90	0	4.8370	0	34.0290	0	26.928	0	468.432	0	35.8	4	11.5	4	-1E+10	1	-1E+10	1	-1E+10	1	-1E+10	1	-1E+10	1	-1E+10	1
4902549	81	C	11/08/2022	05:03	-132.794	47.177	0	478.00	0	4.8140	0	34.0350	0	26.935	0	473.478	0	34.7	4	11.2	4	-1E+10	1	-1E+10	1	-1E+10	1	-1E+10	1	-1E+10	1	-1E+10	1
4902549	81	C	11/08/2022	05:03	-132.794	47.177	0	482.70	0	4.7780	0	34.0370	0	26.941	0	478.128	0	33.8	4	10.9	4	-1E+10	1	-1E+10	1	-1E+10	1	-1E+10	1	-1E+10	1	-1E+10	1
4902549	81	C	11/08/2022	05:03	-132.794	47.177	0	487.80	0	4.7550	0	34.0410	0	26.947	0	483.174	0	32.7	4	10.5	4	-1E+10	1	-1E+10	1	-1E+10	1	-1E+10	1	-1E+10	1	-1E+10	1
4902549	81	C	11/08/2022	05:03	-132.794	47.177	0	492.90	0	4.7290	0	34.0460	0	26.954	0	488.219	0	31.4	4	10.1	4	-1E+10	1	-1E+10	1	-1E+10	1	-1E+10	1	-1E+10	1	-1E+10	1
4902549	81	C	11/08/2022	05:03	-132.794	47.177	0	498.00	0	4.7010	0	34.0510	0	26.961	0	493.265	0	30.2	4	9.7	4	-1E+10	1	-1E+10	1	-1E+10	1	-1E+10	1	-1E+10	1	-1E+10	1
4902549	81	C	11/08/2022	05:03	-132.794	47.177	0	503.10	0	4.7050	0	34.0570	0	26.965	0	498.310	0	28.7	4	9.2	4	-1E+10	1	-1E+10	1	-1E+10	1	-1E+10	1	-1E+10	1	-1E+10	1
4902549	81	C	11/08/2022	05:03	-132.794	47.177	0	507.80	0	4.7020	0	34.0640	0	26.971	0	502.960	0	27.7	4	8.9	4	-1E+10	1	-1E+10	1	-1E+10	1	-1E+10	1	-1E+10	1	-1E+10	1
4902549	81	C	11/08/2022	05:03	-132.794	47.177	0	512.90	0	4.6830	0	34.0680	0	26.976	0	508.005	0	26.9	4	8.6	4	-1E+10	1	-1E+10	1	-1E+10	1	-1E+10	1	-1E+10	1	-1E+10	1
4902549	81	C	11/08/2022	05:03	-132.794	47.177	0	518.10	0	4.6660	0	34.0720	0	26.982	0	513.149	0	25.9	4	8.3	4	-1E+10	1	-1E+10	1	-1E+10	1	-1E+10	1	-1E+10	1	-1E+10	1
4902549	81	C	11/08/2022	05:03	-132.794	47.177	0	522.90	0	4.6500	0	34.0770	0	26.987	0	517.897	0	25.0	4	8.0	4	-1E+10	1	-1E+10	1	-1E+10	1	-1E+10	1	-1E+10	1	-1E+10	1
4902549	81	C	11/08/2022	05:03	-132.794	47.177	0	527.70	0	4.6310	0	34.0830	0	26.994	0	522.645	0	24.3	4	7.8	4	-1E+10	1	-1E+10	1	-1E+10	1	-1E+10	1	-1E+10	1	-1E+10	1
4902549	81	C	11/08/2022	05:03	-132.794	47.177	0	532.60	0	4.6130	0	34.0870	0	26.999	0	527.492	0	23.6	4	7.6	4	-1E+10	1	-1E+10	1	-1E+10	1	-1E+10	1	-1E+10	1	-1E+10	1
4902549	81	C	11/08/2022	05:03	-132.794	47.177	0	537.60	0	4.5980	0	34.0890	0	27.003	0	532.437	0	22.9	4	7.3	4	-1E+10	1	-1E+10	1	-1E+10	1	-1E+10	1	-1E+10	1	-1E+10	1
4902549	81	C	11/08/2022	05:03	-132.794	47.177	0	542.60	0	4.5850	0	34.0940	0	27.008	0	537.383	0	22.1	4	7.1	4	-1E+10	1	-1E+10	1	-1E+10	1	-1E+10	1	-1E+10	1	-1E+10	1
4902549	81	C	11/08/2022	05:03	-132.794	47.177	0	547.60	0	4.5710	0	34.0990	0	27.014	0	542.328	0	21.5	4	6.9	4	-1E+10	1	-1E+10	1	-1E+10	1	-1E+10	1	-1E+10	1	-1E+10	1
4902549	81	C	11/08/2022	05:03	-132.794	47.177	0	552.70	0	4.5600	0	34.1020	0	27.017	0	547.373	0	20.9	4	6.7	4	-1E+10	1	-1E+10	1	-1E+10	1	-1E+10	1	-1E+10	1	-1E+10	1
4902549	81	C	11/08/2022	05:03	-132.794	47.177	0	557.80	0	4.5470	0	34.1050	0	27.021	0	552.417	0	20.4	4	6.5	4	-1E+10	1	-1E+10	1	-1E+10	1	-1E+10	1	-1E+10	1	-1E+10	1
4902549	81	C	11/08/2022	05:03	-132.794	47.177	0	563.00	0	4.5320	0	34.1070	0	27.024	0	557.559	0	19.8	4	6.3	4	-1E+10	1	-1E+10	1	-1E+10	1	-1E+10	1	-1E+10	1	-1E+10	1
4902549	81	C	11/08/2022	05:03	-132.794	47.177	0	568.20	0	4.5130	0	34.1110	0	27.030	0	562.702	0	19.1	4	6.1	4	-1E+10	1	-1E+10	1	-1E+10	1	-1E+10	1	-1E+10	1	-1E+10	1
4902549	81	C	11/08/2022	05:03	-132.794	47.177	0	572.90	0	4.5040	0	34.1150	0	27.034	0	567.350	0	18.5	4	5.9	4	-1E+10	1	-1E+10	1	-1E+10	1	-1E+10	1	-1E+10	1	-1E+10	1
4902549	81	C	11/08/2022	05:03	-132.794	47.177	0	577.70	0	4.4890	0	34.1200	0	27.039	0	572.097	0	18.0	4	5.8	4	-1E+10	1	-1E+10	1	-1E+10	1	-1E+10	1	-1E+10	1	-1E+10	1
4902549	81	C	11/08/2022	05:03	-132.794	47.177	0	583.10	0	4.4740	0	34.1220	0	27.043	0	577.437	0	17.5	4	5.6	4	-1E+10	1	-1E+10	1	-1E+10	1	-1E+10	1	-1E+10	1	-1E+10	1
4902549	81	C	11/08/2022	05:03	-132.794	47.177	0	587.80	0	4.4620	0	34.1270	0	27.048	0	582.085	0	16.9	4	5.4	4	-1E+10	1	-1E+10	1	-1E+10	1	-1E+10	1	-1E+10	1	-1E+10	1
4902549	81	C	11/08/2022	05:03	-132.794	47.177	0	592.90	0	4.4460	0	34.1300	0	27.052	0	587.128	0	16.4	4	5.2	4	-1E+10	1	-1E+10	1	-1E+10	1	-1E+10	1	-1E+10	1	-1E+10	1
4902549	81	C	11/08/2022	05:03	-132.794	47.177	0	598.10	0	4.4320	0	34.1370	0	27.059	0	592.270	0	15.6	4	5.0	4	-1E+10	1	-1E+10	1	-1E+10	1	-1E+10	1	-1E+10	1	-1E+10	1
4902549	81	C	11/08/2022	05:03	-132.794	47.177	0	603.00	0	4.4200	0	34.1410	0	27.064	0	597.116	0	15.1	4	4.8	4	-1E+10	1	-1E+10	1	-1E+10	1	-1E+10	1	-1E+10	1	-1E+10	1
4902549	81	C	11/08/2022	05:03	-132.794	47.177	0	608.00	0	4.4050	0	34.1460	0	27.069	0	602.060	0	14.7	4	4.7	4	-1E+10	1	-1E+10	1	-1E+10	1	-1E+10	1	-1E+10	1	-1E+10	1
4902549	81	C	11/08/2022	05:03	-132.794	47.177	0	613.00	0	4.3890	0	34.1480	0	27.073	0	607.003	0	14.3	4	4.5	4	-1E+10	1	-1E+10	1	-1E+10	1	-1E+10	1	-1E+10	1	-1E+10	1
4902549	81	C	11/08/2022	05:03	-132.794	47.177	0	618.20	0	4.3840	0	34.1530	0	27.077	0	612.145	0	13.8	4	4.4	4	-1E+10	1	-1E+10	1	-1E+10	1	-1E+10	1	-1E+10	1	-1E+10	1
4902549	81	C	11/08/2022	05:03	-132.794	47.177	0	622.90	0	4.3680	0	34.1570	0	27.082	0	616.792	0	13.5	4	4.3	4	-1E+10	1	-1E+10	1	-1E+10	1	-1E+10	1	-1E+10	1	-1E+10	1
4902549	81	C	11/08/2022	05:03	-132.794	47.177	0	627.70	0	4.3500	0	34.1600	0	27.086	0	621.538	0	13.2	4	4.2	4	-1E+10	1	-1E+10	1	-1E+10	1	-1E+10	1	-1E+10	1	-1E+10	1
4902549	81	C	11/08/2022	05:03	-132.794	47.177	0	633.10	0	4.3370	0	34.1620	0	27.089	0	626.877	0	12.8	4	4.1	4	-1E+10	1	-1E+10	1	-1E+10	1	-1E+10	1	-1E+10	1	-1E+10	1
4902549	81	C	11/08/2022	05:03	-132.794	47.177	0	638.10	0	4.3300	0	34.1650	0	27.093	0	631.820	0	12.4	4	4.0	4	-1E+10	1	-1E+10	1	-1E+10	1	-1E+10	1	-1E+10	1	-1E+10	1
4902549	81	C	11/08/2022	05:03	-132.794	47.177	0	643.10	0	4.3140	0	34.1690	0	27.097	0	636.763	0	12.1	4	3.9	4	-1E+10	1	-1E+10	1	-1E+10	1	-1E+10	1	-1E+10	1	-1E+10	1
4902549	81	C	11/08/2022	05:03	-132.794	47.177	0	648.10	0	4.2980	0	34.1730	0	27.102	0	641.706	0	11.9	4	3.8	4	-1E+10	1	-1E+10	1	-1E+10	1	-1E+10	1	-1E+10	1	-1E+10	1
4902549	81	C	11/08/2022	05:03	-132.794	47.177	0	652.70	0	4.2830	0	34.1770	0	27.107	0	646.254	0	11.7	4	3.7	4	-1E+10	1	-1E+10	1	-1E+10	1	-1E+10	1	-1E+10	1	-1E+10	1
4902549	81	C	11/08/2022	05:03	-132.794	47.177	0	657.70	0	4.2610	0	34.1800	0	27.112	0	651.196	0	11.3	4	3.6	4	-1E+10	1	-1E+10	1	-1E+10	1	-1E+10	1	-1E+10	1	-1E+10	1
4902549	81	C	11/08/2022	05:03	-132.794	47.177	0	662.70	0	4.2370	0	34.1860	0	27.119	0	656.139	0	10.8	4	3.4	4	-1E+10	1	-1E+10	1	-1E+10	1	-1E+10	1	-1E+10	1	-1E+10	1
4902549	81	C	11/08/2022	05:03	-132.794	47.177	0	667.70	0	4.2280	0	34.1920	0	27.125	0	661.082	0	10.3	4	3.3	4	-1E+10	1	-1E+10	1	-1E+10	1	-1E+10	1	-1E+10	1	-1E+10	1
4902549	81	C	11/08/2022	05:03	-132.794	47.177	0	673.10	0	4.2180	0	34.1960	0	27.129	0	666.419	0	9.9	4	3.1	4	-1E+10	1	-1E+10	1	-1E+10	1	-1E+10	1	-1E+10	1	-1E+10	1
4902549	81	C	11/08/2022	05:03	-132.794	47.177	0	678.10	0	4.1980	0	34.2020	0	27.136	0	671.362	0	9.5	4	3.0	4	-1E+10	1	-1E+10	1	-1E+10	1	-1E+10	1	-1E+10	1	-1E+10	1
4902549	81	C	11/08/2022	05:03	-132.794	47.177	0	683.10	0	4.1800	0	34.2050	0	27.140	0	676.304	0	9.3	4	2.9	4	-1E+10	1	-1E+10	1	-1E+10	1	-1E+10	1	-1E+10	1	-1E+10	1
4902549	81	C	11/08/2022	05:03	-132.794	47.177	0	688.00	0	4.1620	0	34.2080	0	27.145	0	681.147	0	9.0	4	2.9	4	-1E+10	1	-1E+10	1	-1E+10	1	-1E+10	1	-1E+10	1	-1E+10	1
4902549	81	C	11/08/2022	05:03	-132.794	47.177	0	692.90	0	4.1530	0	34.2140	0	27.150	0	685.990	0	8.8	4	2.8	4	-1E+10	1	-1E+10	1	-1E+10	1	-1E+10	1	-1E+10	1	-1E+10	1
4902549	81	C	11/08/2022	05:03	-132.794	47.177	0	698.20	0	4.1340	0	34.2190	0	27.156	0	691.229	0	8.6	4	2.7	4	-1E+10	1	-1E+10	1	-1E+10	1	-1E+10	1	-1E+10	1	-1E+10	1
4902549	81	C	11/08/2022	05:03	-132.794	47.177	0	703.00	0	4.1220	0	34.2220	0	27.160	0	695.973	0	8.4	4	2.7	4	-1E+10	1	-1E+10	1	-1E+10	1	-1E+10	1	-1E+10	1	-1E+10	1
4902549	81	C	11/08/2022	05:03	-132.794	47.177	0	707.80	0	4.1090	0	34.2250	0	27.164	0	700.717	0	8.2	4	2.6	4	-1E+10	1	-1E+10	1	-1E+10	1	-1E+10	1	-1E+10	1	-1E+10	1
4902549	81	C	11/08/2022	05:03	-132.794	47.177	0	713.10	0	4.0950	0	34.2290	0	27.169	0	705.955	0	7.9	4	2.5	4	-1E+10	1	-1E+10	1	-1E+10	1	-1E+10	1	-1E+10	1	-1E+10	1
4902549	81	C	11/08/2022	05:03	-132.794	47.177	0	717.90	0	4.0740	0	34.2340	0	27.175	0	710.698	0	7.7	4	2.5	4	-1E+10	1	-1E+10	1	-1E+10	1	-1E+10	1	-1E+10	1	-1E+10	1
4902549	81	C	11/08/2022	05:03	-132.794	47.177	0	722.80	0	4.0680	0	34.2360	0	27.177	0	715.541	0	7.6	4	2.4	4	-1E+10	1	-1E+10	1	-1E+10	1	-1E+10	1	-1E+10	1	-1E+10	1
4902549	81	C	11/08/2022	05:03	-132.794	47.177	0	728.00	0	4.0560	0	34.2390	0	27.181	0	720.680	0	7.5	4	2.4	4	-1E+10	1	-1E+10	1	-1E+10	1	-1E+10	1	-1E+10	1	-1E+10	1
4902549	81	C	11/08/2022	05:03	-132.794	47.177	0	732.90	0	4.0500	0	34.2420	0	27.184	0	725.522	0	7.4	4	2.3	4	-1E+10	1	-1E+10	1	-1E+10	1	-1E+10	1	-1E+10	1	-1E+10	1
4902549	81	C	11/08/2022	05:03	-132.794	47.177	0	737.70	0	4.0400	0	34.2440	0	27.186	0	730.265	0	7.2	4	2.3	4	-1E+10	1	-1E+10	1	-1E+10	1	-1E+10	1	-1E+10	1	-1E+10	1
4902549	81	C	11/08/2022	05:03	-132.794	47.177	0	743.00	0	4.0340	0	34.2470	0	27.189	0	735.502	0	7.1	4	2.2	4	-1E+10	1	-1E+10	1	-1E+10	1	-1E+10	1	-1E+10	1	-1E+10	1
4902549	81	C	11/08/2022	05:03	-132.794	47.177	0	748.10	0	4.0230	0	34.2500	0	27.193	0	740.542	0	7.0	4	2.2	4	-1E+10	1	-1E+10	1	-1E+10	1	-1E+10	1	-1E+10	1	-1E+10	1
4902549	81	C	11/08/2022	05:03	-132.794	47.177	0	753.00	0	4.0110	0	34.2510	0	27.195	0	745.384	0	6.8	4	2.2	4	-1E+10	1	-1E+10	1	-1E+10	1	-1E+10	1	-1E+10	1	-1E+10	1
4902549	81	C	11/08/2022	05:03	-132.794	47.177	0	757.90	0	4.0020	0	34.2560	0	27.200	0	750.225	0	6.7	4	2.1	4	-1E+10	1	-1E+10	1	-1E+10	1	-1E+10	1	-1E+10	1	-1E+10	1
4902549	81	C	11/08/2022	05:03	-132.794	47.177	0	762.90	0	3.9940	0	34.2590	0	27.203	0	755.166	0	6.6	4	2.1	4	-1E+10	1	-1E+10	1	-1E+10	1	-1E+10	1	-1E+10	1	-1E+10	1
4902549	81	C	11/08/2022	05:03	-132.794	47.177	0	768.00	0	3.9700	0	34.2630	0	27.209	0	760.205	0	6.5	4	2.0	4	-1E+10	1	-1E+10	1	-1E+10	1	-1E+10	1	-1E+10	1	-1E+10	1
4902549	81	C	11/08/2022	05:03	-132.794	47.177	0	773.10	0	3.9510	0	34.2660	0	27.213	0	765.243	0	6.3	4	2.0	4	-1E+10	1	-1E+10	1	-1E+10	1	-1E+10	1	-1E+10	1	-1E+10	1
4902549	81	C	11/08/2022	05:03	-132.794	47.177	0	777.90	0	3.9350	0	34.2690	0	27.217	0	769.986	0	6.3	4	2.0	4	-1E+10	1	-1E+10	1	-1E+10	1	-1E+10	1	-1E+10	1	-1E+10	1
4902549	81	C	11/08/2022	05:03	-132.794	47.177	0	782.70	0	3.9170	0	34.2720	0	27.221	0	774.728	0	6.2	4	2.0	4	-1E+10	1	-1E+10	1	-1E+10	1	-1E+10	1	-1E+10	1	-1E+10	1
4902549	81	C	11/08/2022	05:03	-132.794	47.177	0	787.50	0	3.9050	0	34.2750	0	27.225	0	779.470	0	6.2	4	2.0	4	-1E+10	1	-1E+10	1	-1E+10	1	-1E+10	1	-1E+10	1	-1E+10	1
4902549	81	C	11/08/2022	05:03	-132.794	47.177	0	792.50	0	3.8870	0	34.2770	0	27.229	0	784.410	0	6.2	4	1.9	4	-1E+10	1	-1E+10	1	-1E+10	1	-1E+10	1	-1E+10	1	-1E+10	1
4902549	81	C	11/08/2022	05:03	-132.794	47.177	0	797.40	0	3.8760	0	34.2780	0	27.230	0	789.251	0	6.1	4	1.9	4	-1E+10	1	-1E+10	1	-1E+10	1	-1E+10	1	-1E+10	1	-1E+10	1
4902549	81	C	11/08/2022	05:03	-132.794	47.177	0	802.40	0	3.8770	0	34.2820	0	27.234	0	794.190	0	6.0	4	1.9	4	-1E+10	1	-1E+10	1	-1E+10	1	-1E+10	1	-1E+10	1	-1E+10	1
4902549	81	C	11/08/2022	05:03	-132.794	47.177	0	807.50	0	3.8630	0	34.2850	0	27.237	0	799.228	0	5.9	4	1.9	4	-1E+10	1	-1E+10	1	-1E+10	1	-1E+10	1	-1E+10	1	-1E+10	1
4902549	81	C	11/08/2022	05:03	-132.794	47.177	0	812.60	0	3.8470	0	34.2900	0	27.243	0	804.266	0	5.9	4	1.8	4	-1E+10	1	-1E+10	1	-1E+10	1	-1E+10	1	-1E+10	1	-1E+10	1
4902549	81	C	11/08/2022	05:03	-132.794	47.177	0	818.10	0	3.8320	0	34.2920	0	27.246	0	809.699	0	5.9	4	1.8	4	-1E+10	1	-1E+10	1	-1E+10	1	-1E+10	1	-1E+10	1	-1E+10	1
4902549	81	C	11/08/2022	05:03	-132.794	47.177	0	823.00	0	3.8170	0	34.2940	0	27.249	0	814.539	0	5.9	4	1.8	4	-1E+10	1	-1E+10	1	-1E+10	1	-1E+10	1	-1E+10	1	-1E+10	1
4902549	81	C	11/08/2022	05:03	-132.794	47.177	0	827.80	0	3.8010	0	34.2960	0	27.253	0	819.280	0	5.9	4	1.8	4	-1E+10	1	-1E+10	1	-1E+10	1	-1E+10	1	-1E+10	1	-1E+10	1
4902549	81	C	11/08/2022	05:03	-132.794	47.177	0	832.60	0	3.7840	0	34.2990	0	27.257	0	824.022	0	5.9	4	1.8	4	-1E+10	1	-1E+10	1	-1E+10	1	-1E+10	1	-1E+10	1	-1E+10	1
4902549	81	C	11/08/2022	05:03	-132.794	47.177	0	837.60	0	3.7560	0	34.3000	0	27.260	0	828.960	0	5.9	4	1.9	4	-1E+10	1	-1E+10	1	-1E+10	1	-1E+10	1	-1E+10	1	-1E+10	1
4902549	81	C	11/08/2022	05:03	-132.794	47.177	0	842.70	0	3.7300	0	34.3030	0	27.265	0	833.997	0	5.9	4	1.9	4	-1E+10	1	-1E+10	1	-1E+10	1	-1E+10	1	-1E+10	1	-1E+10	1
4902549	81	C	11/08/2022	05:03	-132.794	47.177	0	847.80	0	3.7100	0	34.3060	0	27.270	0	839.034	0	5.9	4	1.9	4	-1E+10	1	-1E+10	1	-1E+10	1	-1E+10	1	-1E+10	1	-1E+10	1
4902549	81	C	11/08/2022	05:03	-132.794	47.177	0	853.10	0	3.7030	0	34.3070	0	27.271	0	844.269	0	5.9	4	1.8	4	-1E+10	1	-1E+10	1	-1E+10	1	-1E+10	1	-1E+10	1	-1E+10	1
4902549	81	C	11/08/2022	05:03	-132.794	47.177	0	858.10	0	3.7000	0	34.3080	0	27.272	0	849.207	0	5.9	4	1.8	4	-1E+10	1	-1E+10	1	-1E+10	1	-1E+10	1	-1E+10	1	-1E+10	1
4902549	81	C	11/08/2022	05:03	-132.794	47.177	0	862.70	0	3.6940	0	34.3080	0	27.273	0	853.750	0	5.9	4	1.8	4	-1E+10	1	-1E+10	1	-1E+10	1	-1E+10	1	-1E+10	1	-1E+10	1
4902549	81	C	11/08/2022	05:03	-132.794	47.177	0	867.90	0	3.6820	0	34.3100	0	27.276	0	858.885	0	5.9	4	1.8	4	-1E+10	1	-1E+10	1	-1E+10	1	-1E+10	1	-1E+10	1	-1E+10	1
4902549	81	C	11/08/2022	05:03	-132.794	47.177	0	873.10	0	3.6650	0	34.3130	0	27.280	0	864.021	0	5.9	4	1.8	4	-1E+10	1	-1E+10	1	-1E+10	1	-1E+10	1	-1E+10	1	-1E+10	1
4902549	81	C	11/08/2022	05:03	-132.794	47.177	0	877.90	0	3.6540	0	34.3140	0	27.282	0	868.761	0	5.9	4	1.8	4	-1E+10	1	-1E+10	1	-1E+10	1	-1E+10	1	-1E+10	1	-1E+10	1
4902549	81	C	11/08/2022	05:03	-132.794	47.177	0	882.80	0	3.6490	0	34.3160	0	27.284	0	873.599	0	5.9	4	1.8	4	-1E+10	1	-1E+10	1	-1E+10	1	-1E+10	1	-1E+10	1	-1E+10	1
4902549	81	C	11/08/2022	05:03	-132.794	47.177	0	887.70	0	3.6410	0	34.3180	0	27.286	0	878.438	0	5.8	4	1.8	4	-1E+10	1	-1E+10	1	-1E+10	1	-1E+10	1	-1E+10	1	-1E+10	1
4902549	81	C	11/08/2022	05:03	-132.794	47.177	0	892.60	0	3.6310	0	34.3200	0	27.289	0	883.277	0	5.8	4	1.8	4	-1E+10	1	-1E+10	1	-1E+10	1	-1E+10	1	-1E+10	1	-1E+10	1
4902549	81	C	11/08/2022	05:03	-132.794	47.177	0	897.60	0	3.6220	0	34.3210	0	27.291	0	888.214	0	5.8	4	1.8	4	-1E+10	1	-1E+10	1	-1E+10	1	-1E+10	1	-1E+10	1	-1E+10	1
4902549	81	C	11/08/2022	05:03	-132.794	47.177	0	902.70	0	3.6150	0	34.3230	0	27.293	0	893.250	0	5.8	4	1.8	4	-1E+10	1	-1E+10	1	-1E+10	1	-1E+10	1	-1E+10	1	-1E+10	1
4902549	81	C	11/08/2022	05:03	-132.794	47.177	0	907.70	0	3.6100	0	34.3240	0	27.294	0	898.187	0	5.8	4	1.8	4	-1E+10	1	-1E+10	1	-1E+10	1	-1E+10	1	-1E+10	1	-1E+10	1
4902549	81	C	11/08/2022	05:03	-132.794	47.177	0	912.70	0	3.5910	0	34.3260	0	27.298	0	903.123	0	5.8	4	1.8	4	-1E+10	1	-1E+10	1	-1E+10	1	-1E+10	1	-1E+10	1	-1E+10	1
4902549	81	C	11/08/2022	05:03	-132.794	47.177	0	917.70	0	3.5830	0	34.3290	0	27.301	0	908.060	0	5.8	4	1.8	4	-1E+10	1	-1E+10	1	-1E+10	1	-1E+10	1	-1E+10	1	-1E+10	1
4902549	81	C	11/08/2022	05:03	-132.794	47.177	0	922.80	0	3.5770	0	34.3320	0	27.304	0	913.095	0	5.8	4	1.8	4	-1E+10	1	-1E+10	1	-1E+10	1	-1E+10	1	-1E+10	1	-1E+10	1
4902549	81	C	11/08/2022	05:03	-132.794	47.177	0	927.90	0	3.5620	0	34.3350	0	27.308	0	918.131	0	5.8	4	1.8	4	-1E+10	1	-1E+10	1	-1E+10	1	-1E+10	1	-1E+10	1	-1E+10	1
4902549	81	C	11/08/2022	05:03	-132.794	47.177	0	933.00	0	3.5570	0	34.3380	0	27.311	0	923.166	0	5.8	4	1.8	4	-1E+10	1	-1E+10	1	-1E+10	1	-1E+10	1	-1E+10	1	-1E+10	1
4902549	81	C	11/08/2022	05:03	-132.794	47.177	0	938.20	0	3.5530	0	34.3410	0	27.313	0	928.299	0	5.8	4	1.8	4	-1E+10	1	-1E+10	1	-1E+10	1	-1E+10	1	-1E+10	1	-1E+10	1
4902549	81	C	11/08/2022	05:03	-132.794	47.177	0	942.90	0	3.5250	0	34.3410	0	27.316	0	932.939	0	5.9	4	1.8	4	-1E+10	1	-1E+10	1	-1E+10	1	-1E+10	1	-1E+10	1	-1E+10	1
4902549	81	C	11/08/2022	05:03	-132.794	47.177	0	947.50	0	3.5150	0	34.3440	0	27.320	0	937.480	0	5.9	4	1.8	4	-1E+10	1	-1E+10	1	-1E+10	1	-1E+10	1	-1E+10	1	-1E+10	1
4902549	81	C	11/08/2022	05:03	-132.794	47.177	0	952.70	0	3.5070	0	34.3440	0	27.320	0	942.614	0	5.9	4	1.8	4	-1E+10	1	-1E+10	1	-1E+10	1	-1E+10	1	-1E+10	1	-1E+10	1
4902549	81	C	11/08/2022	05:03	-132.794	47.177	0	957.90	0	3.4970	0	34.3470	0	27.324	0	947.747	0	5.9	4	1.8	4	-1E+10	1	-1E+10	1	-1E+10	1	-1E+10	1	-1E+10	1	-1E+10	1
4902549	81	C	11/08/2022	05:03	-132.794	47.177	0	963.00	0	3.4850	0	34.3470	0	27.325	0	952.781	0	5.9	4	1.8	4	-1E+10	1	-1E+10	1	-1E+10	1	-1E+10	1	-1E+10	1	-1E+10	1
4902549	81	C	11/08/2022	05:03	-132.794	47.177	0	968.00	0	3.4720	0	34.3480	0	27.327	0	957.717	0	5.9	4	1.9	4	-1E+10	1	-1E+10	1	-1E+10	1	-1E+10	1	-1E+10	1	-1E+10	1
4902549	81	C	11/08/2022	05:03	-132.794	47.177	0	973.10	0	3.4740	0	34.3540	0	27.332	0	962.751	0	6.0	4	1.9	4	-1E+10	1	-1E+10	1	-1E+10	1	-1E+10	1	-1E+10	1	-1E+10	1
4902549	81	C	11/08/2022	05:03	-132.794	47.177	0	978.10	0	3.4630	0	34.3550	0	27.334	0	967.686	0	6.0	4	1.9	4	-1E+10	1	-1E+10	1	-1E+10	1	-1E+10	1	-1E+10	1	-1E+10	1
4902549	81	C	11/08/2022	05:03	-132.794	47.177	0	983.20	0	3.4580	0	34.3560	0	27.335	0	972.720	0	6.0	4	1.9	4	-1E+10	1	-1E+10	1	-1E+10	1	-1E+10	1	-1E+10	1	-1E+10	1
4902549	81	C	11/08/2022	05:03	-132.794	47.177	0	988.30	0	3.4450	0	34.3570	0	27.337	0	977.754	0	6.0	4	1.9	4	-1E+10	1	-1E+10	1	-1E+10	1	-1E+10	1	-1E+10	1	-1E+10	1
4902549	81	C	11/08/2022	05:03	-132.794	47.177	0	993.30	0	3.4340	0	34.3580	0	27.339	0	982.689	0	6.1	4	1.9	4	-1E+10	1	-1E+10	1	-1E+10	1	-1E+10	1	-1E+10	1	-1E+10	1
4902549	81	C	11/08/2022	05:03	-132.794	47.177	0	998.30	0	3.4280	0	34.3600	0	27.341	0	987.623	0	6.1	4	1.9	4	-1E+10	1	-1E+10	1	-1E+10	1	-1E+10	1	-1E+10	1	-1E+10	1
4902549	81	C	11/08/2022	05:03	-132.794	47.177	0	1005.80	0	3.4120	0	34.3620	0	27.344	0	995.025	0	6.1	4	1.9	4	-1E+10	1	-1E+10	1	-1E+10	1	-1E+10	1	-1E+10	1	-1E+10	1
4902549	81	C	11/08/2022	05:03	-132.794	47.177	0	1015.70	0	3.3880	0	34.3650	0	27.349	0	1004.796	0	6.2	4	1.9	4	-1E+10	1	-1E+10	1	-1E+10	1	-1E+10	1	-1E+10	1	-1E+10	1
4902549	81	C	11/08/2022	05:03	-132.794	47.177	0	1025.50	0	3.3630	0	34.3690	0	27.354	0	1014.467	0	6.3	4	2.0	4	-1E+10	1	-1E+10	1	-1E+10	1	-1E+10	1	-1E+10	1	-1E+10	1
4902549	81	C	11/08/2022	05:03	-132.794	47.177	0	1035.20	0	3.3440	0	34.3730	0	27.360	0	1024.039	0	6.4	4	2.0	4	-1E+10	1	-1E+10	1	-1E+10	1	-1E+10	1	-1E+10	1	-1E+10	1
4902549	81	C	11/08/2022	05:03	-132.794	47.177	0	1045.30	0	3.3140	0	34.3770	0	27.366	0	1034.005	0	6.6	4	2.0	4	-1E+10	1	-1E+10	1	-1E+10	1	-1E+10	1	-1E+10	1	-1E+10	1
4902549	81	C	11/08/2022	05:03	-132.794	47.177	0	1055.40	0	3.2780	0	34.3820	0	27.373	0	1043.971	0	6.7	4	2.1	4	-1E+10	1	-1E+10	1	-1E+10	1	-1E+10	1	-1E+10	1	-1E+10	1
4902549	81	C	11/08/2022	05:03	-132.794	47.177	0	1065.10	0	3.2540	0	34.3860	0	27.378	0	1053.541	0	6.8	4	2.1	4	-1E+10	1	-1E+10	1	-1E+10	1	-1E+10	1	-1E+10	1	-1E+10	1
4902549	81	C	11/08/2022	05:03	-132.794	47.177	0	1075.20	0	3.2320	0	34.3900	0	27.384	0	1063.506	0	6.9	4	2.2	4	-1E+10	1	-1E+10	1	-1E+10	1	-1E+10	1	-1E+10	1	-1E+10	1
4902549	81	C	11/08/2022	05:03	-132.794	47.177	0	1085.50	0	3.2100	0	34.3940	0	27.389	0	1073.668	0	7.1	4	2.2	4	-1E+10	1	-1E+10	1	-1E+10	1	-1E+10	1	-1E+10	1	-1E+10	1
4902549	81	C	11/08/2022	05:03	-132.794	47.177	0	1095.30	0	3.1800	0	34.3980	0	27.395	0	1083.336	0	7.3	4	2.3	4	-1E+10	1	-1E+10	1	-1E+10	1	-1E+10	1	-1E+10	1	-1E+10	1
4902549	81	C	11/08/2022	05:03	-132.794	47.177	0	1105.70	0	3.1560	0	34.4010	0	27.400	0	1093.595	0	7.4	4	2.3	4	-1E+10	1	-1E+10	1	-1E+10	1	-1E+10	1	-1E+10	1	-1E+10	1
4902549	81	C	11/08/2022	05:03	-132.794	47.177	0	1115.40	0	3.1360	0	34.4030	0	27.403	0	1103.163	0	7.6	4	2.4	4	-1E+10	1	-1E+10	1	-1E+10	1	-1E+10	1	-1E+10	1	-1E+10	1
4902549	81	C	11/08/2022	05:03	-132.794	47.177	0	1125.20	0	3.1210	0	34.4080	0	27.409	0	1112.830	0	7.8	4	2.4	4	-1E+10	1	-1E+10	1	-1E+10	1	-1E+10	1	-1E+10	1	-1E+10	1
4902549	81	C	11/08/2022	05:03	-132.794	47.177	0	1135.40	0	3.0880	0	34.4100	0	27.413	0	1122.890	0	7.9	4	2.4	4	-1E+10	1	-1E+10	1	-1E+10	1	-1E+10	1	-1E+10	1	-1E+10	1
4902549	81	C	11/08/2022	05:03	-132.794	47.177	0	1145.70	0	3.0680	0	34.4130	0	27.418	0	1133.049	0	8.1	4	2.5	4	-1E+10	1	-1E+10	1	-1E+10	1	-1E+10	1	-1E+10	1	-1E+10	1
4902549	81	C	11/08/2022	05:03	-132.794	47.177	0	1155.70	0	3.0450	0	34.4140	0	27.421	0	1142.911	0	8.2	4	2.5	4	-1E+10	1	-1E+10	1	-1E+10	1	-1E+10	1	-1E+10	1	-1E+10	1
4902549	81	C	11/08/2022	05:03	-132.794	47.177	0	1165.40	0	3.0260	0	34.4180	0	27.426	0	1152.478	0	8.4	4	2.6	4	-1E+10	1	-1E+10	1	-1E+10	1	-1E+10	1	-1E+10	1	-1E+10	1
4902549	81	C	11/08/2022	05:03	-132.794	47.177	0	1175.20	0	3.0090	0	34.4210	0	27.430	0	1162.142	0	8.6	4	2.7	4	-1E+10	1	-1E+10	1	-1E+10	1	-1E+10	1	-1E+10	1	-1E+10	1
4902549	81	C	11/08/2022	05:03	-132.794	47.177	0	1185.10	0	2.9730	0	34.4230	0	27.434	0	1171.904	0	8.7	4	2.7	4	-1E+10	1	-1E+10	1	-1E+10	1	-1E+10	1	-1E+10	1	-1E+10	1
4902549	81	C	11/08/2022	05:03	-132.794	47.177	0	1195.50	0	2.9570	0	34.4250	0	27.437	0	1182.159	0	8.9	4	2.7	4	-1E+10	1	-1E+10	1	-1E+10	1	-1E+10	1	-1E+10	1	-1E+10	1
4902549	81	C	11/08/2022	05:03	-132.794	47.177	0	1205.60	0	2.9420	0	34.4270	0	27.440	0	1192.118	0	9.1	4	2.8	4	-1E+10	1	-1E+10	1	-1E+10	1	-1E+10	1	-1E+10	1	-1E+10	1
4902549	81	C	11/08/2022	05:03	-132.794	47.177	0	1215.20	0	2.9150	0	34.4310	0	27.446	0	1201.583	0	9.3	4	2.9	4	-1E+10	1	-1E+10	1	-1E+10	1	-1E+10	1	-1E+10	1	-1E+10	1
4902549	81	C	11/08/2022	05:03	-132.794	47.177	0	1225.40	0	2.8920	0	34.4330	0	27.450	0	1211.640	0	9.5	4	2.9	4	-1E+10	1	-1E+10	1	-1E+10	1	-1E+10	1	-1E+10	1	-1E+10	1
4902549	81	C	11/08/2022	05:03	-132.794	47.177	0	1235.60	0	2.8910	0	34.4370	0	27.453	0	1221.695	0	10.0	4	3.1	4	-1E+10	1	-1E+10	1	-1E+10	1	-1E+10	1	-1E+10	1	-1E+10	1
4902549	81	C	11/08/2022	05:03	-132.794	47.177	0	1245.50	0	2.8950	0	34.4410	0	27.456	0	1231.455	0	10.4	4	3.2	4	-1E+10	1	-1E+10	1	-1E+10	1	-1E+10	1	-1E+10	1	-1E+10	1
4902549	81	C	11/08/2022	05:03	-132.794	47.177	0	1255.50	0	2.8780	0	34.4440	0	27.460	0	1241.313	0	10.6	4	3.3	4	-1E+10	1	-1E+10	1	-1E+10	1	-1E+10	1	-1E+10	1	-1E+10	1
4902549	81	C	11/08/2022	05:03	-132.794	47.177	0	1265.60	0	2.8520	0	34.4460	0	27.464	0	1251.269	0	10.9	4	3.3	4	-1E+10	1	-1E+10	1	-1E+10	1	-1E+10	1	-1E+10	1	-1E+10	1
4902549	81	C	11/08/2022	05:03	-132.794	47.177	0	1275.50	0	2.8270	0	34.4490	0	27.469	0	1261.027	0	11.3	4	3.5	4	-1E+10	1	-1E+10	1	-1E+10	1	-1E+10	1	-1E+10	1	-1E+10	1
4902549	81	C	11/08/2022	05:03	-132.794	47.177	0	1285.30	0	2.8160	0	34.4540	0	27.474	0	1270.686	0	11.8	4	3.6	4	-1E+10	1	-1E+10	1	-1E+10	1	-1E+10	1	-1E+10	1	-1E+10	1
4902549	81	C	11/08/2022	05:03	-132.794	47.177	0	1295.30	0	2.8050	0	34.4560	0	27.476	0	1280.542	0	12.2	4	3.7	4	-1E+10	1	-1E+10	1	-1E+10	1	-1E+10	1	-1E+10	1	-1E+10	1
4902549	81	C	11/08/2022	05:03	-132.794	47.177	0	1305.30	0	2.7810	0	34.4600	0	27.482	0	1290.398	0	12.6	4	3.9	4	-1E+10	1	-1E+10	1	-1E+10	1	-1E+10	1	-1E+10	1	-1E+10	1
4902549	81	C	11/08/2022	05:03	-132.794	47.177	0	1315.50	0	2.7620	0	34.4620	0	27.485	0	1300.450	0	12.9	4	4.0	4	-1E+10	1	-1E+10	1	-1E+10	1	-1E+10	1	-1E+10	1	-1E+10	1
4902549	81	C	11/08/2022	05:03	-132.794	47.177	0	1325.30	0	2.7330	0	34.4640	0	27.489	0	1310.107	0	13.3	4	4.1	4	-1E+10	1	-1E+10	1	-1E+10	1	-1E+10	1	-1E+10	1	-1E+10	1
4902549	81	C	11/08/2022	05:03	-132.794	47.177	0	1335.50	0	2.7070	0	34.4690	0	27.495	0	1320.158	0	14.1	4	4.3	4	-1E+10	1	-1E+10	1	-1E+10	1	-1E+10	1	-1E+10	1	-1E+10	1
4902549	81	C	11/08/2022	05:03	-132.794	47.177	0	1345.50	0	2.6810	0	34.4730	0	27.501	0	1330.012	0	14.7	4	4.5	4	-1E+10	1	-1E+10	1	-1E+10	1	-1E+10	1	-1E+10	1	-1E+10	1
4902549	81	C	11/08/2022	05:03	-132.794	47.177	0	1355.50	0	2.6610	0	34.4760	0	27.505	0	1339.865	0	15.1	4	4.6	4	-1E+10	1	-1E+10	1	-1E+10	1	-1E+10	1	-1E+10	1	-1E+10	1
4902549	81	C	11/08/2022	05:03	-132.794	47.177	0	1365.80	0	2.6370	0	34.4780	0	27.509	0	1350.013	0	15.4	4	4.7	4	-1E+10	1	-1E+10	1	-1E+10	1	-1E+10	1	-1E+10	1	-1E+10	1
4902549	81	C	11/08/2022	05:03	-132.794	47.177	0	1375.90	0	2.6240	0	34.4800	0	27.512	0	1359.964	0	15.7	4	4.8	4	-1E+10	1	-1E+10	1	-1E+10	1	-1E+10	1	-1E+10	1	-1E+10	1
4902549	81	C	11/08/2022	05:03	-132.794	47.177	0	1385.50	0	2.6130	0	34.4810	0	27.513	0	1369.421	0	15.8	4	4.8	4	-1E+10	1	-1E+10	1	-1E+10	1	-1E+10	1	-1E+10	1	-1E+10	1
4902549	81	C	11/08/2022	05:03	-132.794	47.177	0	1395.50	0	2.5960	0	34.4820	0	27.516	0	1379.273	0	16.2	4	5.0	4	-1E+10	1	-1E+10	1	-1E+10	1	-1E+10	1	-1E+10	1	-1E+10	1
4902549	81	C	11/08/2022	05:03	-132.794	47.177	0	1405.50	0	2.5600	0	34.4840	0	27.520	0	1389.124	0	16.6	4	5.1	4	-1E+10	1	-1E+10	1	-1E+10	1	-1E+10	1	-1E+10	1	-1E+10	1
4902549	81	C	11/08/2022	05:03	-132.794	47.177	0	1415.50	0	2.5430	0	34.4860	0	27.523	0	1398.974	0	17.0	4	5.2	4	-1E+10	1	-1E+10	1	-1E+10	1	-1E+10	1	-1E+10	1	-1E+10	1
4902549	81	C	11/08/2022	05:03	-132.794	47.177	0	1425.60	0	2.5270	0	34.4880	0	27.526	0	1408.922	0	17.3	4	5.3	4	-1E+10	1	-1E+10	1	-1E+10	1	-1E+10	1	-1E+10	1	-1E+10	1
4902549	81	C	11/08/2022	05:03	-132.794	47.177	0	1435.40	0	2.5190	0	34.4890	0	27.528	0	1418.575	0	17.7	4	5.4	4	-1E+10	1	-1E+10	1	-1E+10	1	-1E+10	1	-1E+10	1	-1E+10	1
4902549	81	C	11/08/2022	05:03	-132.794	47.177	0	1445.40	0	2.5060	0	34.4910	0	27.531	0	1428.424	0	18.4	4	5.6	4	-1E+10	1	-1E+10	1	-1E+10	1	-1E+10	1	-1E+10	1	-1E+10	1
4902549	81	C	11/08/2022	05:03	-132.794	47.177	0	1455.60	0	2.4900	0	34.4940	0	27.534	0	1438.469	0	19.1	4	5.8	4	-1E+10	1	-1E+10	1	-1E+10	1	-1E+10	1	-1E+10	1	-1E+10	1
4902549	81	C	11/08/2022	05:03	-132.794	47.177	0	1465.80	0	2.4710	0	34.4980	0	27.539	0	1448.514	0	19.7	4	6.0	4	-1E+10	1	-1E+10	1	-1E+10	1	-1E+10	1	-1E+10	1	-1E+10	1
4902549	81	C	11/08/2022	05:03	-132.794	47.177	0	1475.70	0	2.4660	0	34.4990	0	27.541	0	1458.263	0	20.0	4	6.1	4	-1E+10	1	-1E+10	1	-1E+10	1	-1E+10	1	-1E+10	1	-1E+10	1
4902549	81	C	11/08/2022	05:03	-132.794	47.177	0	1485.80	0	2.4540	0	34.5010	0	27.543	0	1468.209	0	20.3	4	6.2	4	-1E+10	1	-1E+10	1	-1E+10	1	-1E+10	1	-1E+10	1	-1E+10	1
4902549	81	C	11/08/2022	05:03	-132.794	47.177	0	1495.90	0	2.4420	0	34.5020	0	27.545	0	1478.154	0	20.6	4	6.3	4	-1E+10	1	-1E+10	1	-1E+10	1	-1E+10	1	-1E+10	1	-1E+10	1
4902549	81	C	11/08/2022	05:03	-132.794	47.177	0	1505.50	0	2.4360	0	34.5030	0	27.546	0	1487.606	0	21.0	4	6.4	4	-1E+10	1	-1E+10	1	-1E+10	1	-1E+10	1	-1E+10	1	-1E+10	1
4902549	81	C	11/08/2022	05:03	-132.794	47.177	0	1515.00	0	2.4250	0	34.5040	0	27.548	0	1496.960	0	21.5	4	6.6	4	-1E+10	1	-1E+10	1	-1E+10	1	-1E+10	1	-1E+10	1	-1E+10	1
4902549	81	C	11/08/2022	05:03	-132.794	47.177	0	1525.00	0	2.4120	0	34.5070	0	27.552	0	1506.805	0	21.9	4	6.7	4	-1E+10	1	-1E+10	1	-1E+10	1	-1E+10	1	-1E+10	1	-1E+10	1
4902549	81	C	11/08/2022	05:03	-132.794	47.177	0	1535.40	0	2.4050	0	34.5080	0	27.553	0	1517.044	0	22.2	4	6.8	4	-1E+10	1	-1E+10	1	-1E+10	1	-1E+10	1	-1E+10	1	-1E+10	1
4902549	81	C	11/08/2022	05:03	-132.794	47.177	0	1545.80	0	2.3960	0	34.5090	0	27.555	0	1527.282	0	22.9	4	7.0	4	-1E+10	1	-1E+10	1	-1E+10	1	-1E+10	1	-1E+10	1	-1E+10	1
4902549	81	C	11/08/2022	05:03	-132.794	47.177	0	1555.60	0	2.3740	0	34.5120	0	27.559	0	1536.929	0	23.6	4	7.2	4	-1E+10	1	-1E+10	1	-1E+10	1	-1E+10	1	-1E+10	1	-1E+10	1
4902549	81	C	11/08/2022	05:03	-132.794	47.177	0	1565.50	0	2.3650	0	34.5140	0	27.561	0	1546.674	0	24.2	4	7.3	4	-1E+10	1	-1E+10	1	-1E+10	1	-1E+10	1	-1E+10	1	-1E+10	1
4902549	81	C	11/08/2022	05:03	-132.794	47.177	0	1575.40	0	2.3560	0	34.5160	0	27.564	0	1556.418	0	24.7	4	7.5	4	-1E+10	1	-1E+10	1	-1E+10	1	-1E+10	1	-1E+10	1	-1E+10	1
4902549	81	C	11/08/2022	05:03	-132.794	47.177	0	1585.50	0	2.3440	0	34.5170	0	27.566	0	1566.359	0	25.4	4	7.7	4	-1E+10	1	-1E+10	1	-1E+10	1	-1E+10	1	-1E+10	1	-1E+10	1
4902549	81	C	11/08/2022	05:03	-132.794	47.177	0	1595.40	0	2.3230	0	34.5200	0	27.570	0	1576.103	0	26.3	4	8.0	4	-1E+10	1	-1E+10	1	-1E+10	1	-1E+10	1	-1E+10	1	-1E+10	1
4902549	81	C	11/08/2022	05:03	-132.794	47.177	0	1605.50	0	2.3120	0	34.5230	0	27.573	0	1586.043	0	26.9	4	8.2	4	-1E+10	1	-1E+10	1	-1E+10	1	-1E+10	1	-1E+10	1	-1E+10	1
4902549	81	C	11/08/2022	05:03	-132.794	47.177	0	1615.70	0	2.3010	0	34.5250	0	27.576	0	1596.081	0	27.6	4	8.4	4	-1E+10	1	-1E+10	1	-1E+10	1	-1E+10	1	-1E+10	1	-1E+10	1
4902549	81	C	11/08/2022	05:03	-132.794	47.177	0	1625.40	0	2.2900	0	34.5270	0	27.578	0	1605.627	0	28.2	4	8.5	4	-1E+10	1	-1E+10	1	-1E+10	1	-1E+10	1	-1E+10	1	-1E+10	1
4902549	81	C	11/08/2022	05:03	-132.794	47.177	0	1635.10	0	2.2730	0	34.5280	0	27.581	0	1615.172	0	28.6	4	8.7	4	-1E+10	1	-1E+10	1	-1E+10	1	-1E+10	1	-1E+10	1	-1E+10	1
4902549	81	C	11/08/2022	05:03	-132.794	47.177	0	1645.30	0	2.2630	0	34.5300	0	27.583	0	1625.208	0	29.2	4	8.9	4	-1E+10	1	-1E+10	1	-1E+10	1	-1E+10	1	-1E+10	1	-1E+10	1
4902549	81	C	11/08/2022	05:03	-132.794	47.177	0	1655.50	0	2.2520	0	34.5320	0	27.586	0	1635.244	0	30.0	4	9.1	4	-1E+10	1	-1E+10	1	-1E+10	1	-1E+10	1	-1E+10	1	-1E+10	1
4902549	81	C	11/08/2022	05:03	-132.794	47.177	0	1665.20	0	2.2410	0	34.5340	0	27.588	0	1644.788	0	30.8	4	9.3	4	-1E+10	1	-1E+10	1	-1E+10	1	-1E+10	1	-1E+10	1	-1E+10	1
4902549	81	C	11/08/2022	05:03	-132.794	47.177	0	1675.40	0	2.2280	0	34.5360	0	27.591	0	1654.823	0	31.5	4	9.6	4	-1E+10	1	-1E+10	1	-1E+10	1	-1E+10	1	-1E+10	1	-1E+10	1
4902549	81	C	11/08/2022	05:03	-132.794	47.177	0	1685.60	0	2.2130	0	34.5390	0	27.594	0	1664.858	0	32.5	4	9.8	4	-1E+10	1	-1E+10	1	-1E+10	1	-1E+10	1	-1E+10	1	-1E+10	1
4902549	81	C	11/08/2022	05:03	-132.794	47.177	0	1695.40	0	2.1990	0	34.5410	0	27.597	0	1674.499	0	33.3	4	10.1	4	-1E+10	1	-1E+10	1	-1E+10	1	-1E+10	1	-1E+10	1	-1E+10	1
4902549	81	C	11/08/2022	05:03	-132.794	47.177	0	1705.30	0	2.1830	0	34.5430	0	27.600	0	1684.237	0	34.1	4	10.3	4	-1E+10	1	-1E+10	1	-1E+10	1	-1E+10	1	-1E+10	1	-1E+10	1
4902549	81	C	11/08/2022	05:03	-132.794	47.177	0	1715.30	0	2.1660	0	34.5450	0	27.603	0	1694.074	0	34.8	4	10.5	4	-1E+10	1	-1E+10	1	-1E+10	1	-1E+10	1	-1E+10	1	-1E+10	1
4902549	81	C	11/08/2022	05:03	-132.794	47.177	0	1725.90	0	2.1600	0	34.5470	0	27.605	0	1704.500	0	35.6	4	10.8	4	-1E+10	1	-1E+10	1	-1E+10	1	-1E+10	1	-1E+10	1	-1E+10	1
4902549	81	C	11/08/2022	05:03	-132.794	47.177	0	1735.40	0	2.1440	0	34.5490	0	27.608	0	1713.844	0	36.5	4	11.0	4	-1E+10	1	-1E+10	1	-1E+10	1	-1E+10	1	-1E+10	1	-1E+10	1
4902549	81	C	11/08/2022	05:03	-132.794	47.177	0	1745.10	0	2.1340	0	34.5520	0	27.611	0	1723.384	0	37.6	4	11.4	4	-1E+10	1	-1E+10	1	-1E+10	1	-1E+10	1	-1E+10	1	-1E+10	1
4902549	81	C	11/08/2022	05:03	-132.794	47.177	0	1755.10	0	2.1280	0	34.5550	0	27.614	0	1733.219	0	38.2	4	11.5	4	-1E+10	1	-1E+10	1	-1E+10	1	-1E+10	1	-1E+10	1	-1E+10	1
4902549	81	C	11/08/2022	05:03	-132.794	47.177	0	1765.40	0	2.1160	0	34.5560	0	27.616	0	1743.348	0	38.5	4	11.7	4	-1E+10	1	-1E+10	1	-1E+10	1	-1E+10	1	-1E+10	1	-1E+10	1
4902549	81	C	11/08/2022	05:03	-132.794	47.177	0	1775.50	0	2.1040	0	34.5560	0	27.617	0	1753.280	0	38.9	4	11.8	4	-1E+10	1	-1E+10	1	-1E+10	1	-1E+10	1	-1E+10	1	-1E+10	1
4902549	81	C	11/08/2022	05:03	-132.794	47.177	0	1785.40	0	2.1030	0	34.5580	0	27.619	0	1763.015	0	39.5	4	12.0	4	-1E+10	1	-1E+10	1	-1E+10	1	-1E+10	1	-1E+10	1	-1E+10	1
4902549	81	C	11/08/2022	05:03	-132.794	47.177	0	1795.50	0	2.0950	0	34.5590	0	27.620	0	1772.947	0	40.1	4	12.1	4	-1E+10	1	-1E+10	1	-1E+10	1	-1E+10	1	-1E+10	1	-1E+10	1
4902549	81	C	11/08/2022	05:03	-132.794	47.177	0	1805.30	0	2.0950	0	34.5610	0	27.622	0	1782.582	0	40.9	4	12.4	4	-1E+10	1	-1E+10	1	-1E+10	1	-1E+10	1	-1E+10	1	-1E+10	1
4902549	81	C	11/08/2022	05:03	-132.794	47.177	0	1815.40	0	2.0890	0	34.5630	0	27.624	0	1792.513	0	41.3	4	12.5	4	-1E+10	1	-1E+10	1	-1E+10	1	-1E+10	1	-1E+10	1	-1E+10	1
4902549	81	C	11/08/2022	05:03	-132.794	47.177	0	1825.60	0	2.0750	0	34.5630	0	27.625	0	1802.541	0	41.9	4	12.6	4	-1E+10	1	-1E+10	1	-1E+10	1	-1E+10	1	-1E+10	1	-1E+10	1
4902549	81	C	11/08/2022	05:03	-132.794	47.177	0	1835.60	0	2.0670	0	34.5650	0	27.628	0	1812.372	0	42.3	4	12.8	4	-1E+10	1	-1E+10	1	-1E+10	1	-1E+10	1	-1E+10	1	-1E+10	1
4902549	81	C	11/08/2022	05:03	-132.794	47.177	0	1845.60	0	2.0580	0	34.5660	0	27.629	0	1822.202	0	42.9	4	12.9	4	-1E+10	1	-1E+10	1	-1E+10	1	-1E+10	1	-1E+10	1	-1E+10	1
4902549	81	C	11/08/2022	05:03	-132.794	47.177	0	1855.30	0	2.0520	0	34.5680	0	27.631	0	1831.738	0	43.4	4	13.1	4	-1E+10	1	-1E+10	1	-1E+10	1	-1E+10	1	-1E+10	1	-1E+10	1
4902549	81	C	11/08/2022	05:03	-132.794	47.177	0	1865.20	0	2.0390	0	34.5690	0	27.633	0	1841.469	0	43.9	4	13.2	4	-1E+10	1	-1E+10	1	-1E+10	1	-1E+10	1	-1E+10	1	-1E+10	1
4902549	81	C	11/08/2022	05:03	-132.794	47.177	0	1875.30	0	2.0330	0	34.5700	0	27.635	0	1851.397	0	44.6	4	13.5	4	-1E+10	1	-1E+10	1	-1E+10	1	-1E+10	1	-1E+10	1	-1E+10	1
4902549	81	C	11/08/2022	05:03	-132.794	47.177	0	1885.20	0	2.0170	0	34.5710	0	27.637	0	1861.127	0	45.3	4	13.7	4	-1E+10	1	-1E+10	1	-1E+10	1	-1E+10	1	-1E+10	1	-1E+10	1
4902549	81	C	11/08/2022	05:03	-132.794	47.177	0	1895.00	0	2.0100	0	34.5720	0	27.638	0	1870.759	0	46.0	4	13.9	4	-1E+10	1	-1E+10	1	-1E+10	1	-1E+10	1	-1E+10	1	-1E+10	1
4902549	81	C	11/08/2022	05:03	-132.794	47.177	0	1905.20	0	1.9980	0	34.5740	0	27.641	0	1880.784	0	46.7	4	14.1	4	-1E+10	1	-1E+10	1	-1E+10	1	-1E+10	1	-1E+10	1	-1E+10	1
4902549	81	C	11/08/2022	05:03	-132.794	47.177	0	1915.40	0	1.9910	0	34.5750	0	27.642	0	1890.808	0	47.5	4	14.3	4	-1E+10	1	-1E+10	1	-1E+10	1	-1E+10	1	-1E+10	1	-1E+10	1
4902549	81	C	11/08/2022	05:03	-132.794	47.177	0	1925.30	0	1.9840	0	34.5770	0	27.644	0	1900.536	0	48.1	4	14.5	4	-1E+10	1	-1E+10	1	-1E+10	1	-1E+10	1	-1E+10	1	-1E+10	1
4902549	81	C	11/08/2022	05:03	-132.794	47.177	0	1935.50	0	1.9760	0	34.5790	0	27.646	0	1910.559	0	48.5	4	14.6	4	-1E+10	1	-1E+10	1	-1E+10	1	-1E+10	1	-1E+10	1	-1E+10	1
4902549	81	C	11/08/2022	05:03	-132.794	47.177	0	1945.80	0	1.9740	0	34.5790	0	27.647	0	1920.680	0	48.7	4	14.7	4	-1E+10	1	-1E+10	1	-1E+10	1	-1E+10	1	-1E+10	1	-1E+10	1
4902549	81	C	11/08/2022	05:03	-132.794	47.177	0	1955.80	0	1.9740	0	34.5800	0	27.648	0	1930.506	0	48.9	4	14.7	4	-1E+10	1	-1E+10	1	-1E+10	1	-1E+10	1	-1E+10	1	-1E+10	1
4902549	81	C	11/08/2022	05:03	-132.794	47.177	0	1965.90	0	1.9710	0	34.5800	0	27.648	0	1940.429	0	49.4	4	14.9	4	-1E+10	1	-1E+10	1	-1E+10	1	-1E+10	1	-1E+10	1	-1E+10	1
4902549	81	C	11/08/2022	05:03	-132.794	47.177	0	1975.90	0	1.9620	0	34.5820	0	27.650	0	1950.254	0	50.1	4	15.1	4	-1E+10	1	-1E+10	1	-1E+10	1	-1E+10	1	-1E+10	1	-1E+10	1
4902549	81	C	11/08/2022	05:03	-132.794	47.177	0	1986.10	0	1.9530	0	34.5830	0	27.652	0	1960.275	0	50.2	4	15.1	4	-1E+10	1	-1E+10	1	-1E+10	1	-1E+10	1	-1E+10	1	-1E+10	1
4902549	81	C	11/08/2022	05:03	-132.794	47.177	0	1991.70	0	1.9510	0	34.5840	0	27.653	0	1965.776	0	49.8	4	15.0	4	-1E+10	1	-1E+10	1	-1E+10	1	-1E+10	1	-1E+10	1	-1E+10	1
4902549	81	C	11/08/2022	05:03	-132.794	47.177	0																										
4902549	82	C	11/18/2022	10:10	-132.975	47.243	0	0.60	0	12.5240	0	32.3090	0	24.402	0	0.595	0	256.2	4	96.5	4	-1E+10	1	-1E+10	1	-1E+10	1	-1E+10	1	-1E+10	1	-1E+10	1
4902549	82	C	11/18/2022	10:10	-132.975	47.243	0	1.20	0	12.5250	0	32.3040	0	24.398	0	1.190	0	256.0	4	96.5	4	-1E+10	1	-1E+10	1	-1E+10	1	-1E+10	1	-1E+10	1	-1E+10	1
4902549	82	C	11/18/2022	10:10	-132.975	47.243	0	2.50	0	12.5250	0	32.3050	0	24.398	0	2.479	0	-1e10	1	-1e10	1	-1E+10	1	-1E+10	1	-1E+10	1	-1E+10	1	-1E+10	1	-1E+10	1
4902549	82	C	11/18/2022	10:10	-132.975	47.243	0	2.90	0	12.5250	0	32.3080	0	24.401	0	2.876	0	249.7	4	94.1	4	-1E+10	1	-1E+10	1	-1E+10	1	-1E+10	1	-1E+10	1	-1E+10	1
4902549	82	C	11/18/2022	10:10	-132.975	47.243	0	4.00	0	12.5250	0	32.3090	0	24.401	0	3.967	0	249.7	4	94.1	4	-1E+10	1	-1E+10	1	-1E+10	1	-1E+10	1	-1E+10	1	-1E+10	1
4902549	82	C	11/18/2022	10:10	-132.975	47.243	0	5.20	0	12.5260	0	32.3100	0	24.402	0	5.157	0	249.8	4	94.1	4	-1E+10	1	-1E+10	1	-1E+10	1	-1E+10	1	-1E+10	1	-1E+10	1
4902549	82	C	11/18/2022	10:10	-132.975	47.243	0	5.90	0	12.5270	0	32.3100	0	24.402	0	5.851	0	249.7	4	94.1	4	-1E+10	1	-1E+10	1	-1E+10	1	-1E+10	1	-1E+10	1	-1E+10	1
4902549	82	C	11/18/2022	10:10	-132.975	47.243	0	7.10	0	12.5270	0	32.3100	0	24.402	0	7.041	0	249.7	4	94.1	4	-1E+10	1	-1E+10	1	-1E+10	1	-1E+10	1	-1E+10	1	-1E+10	1
4902549	82	C	11/18/2022	10:10	-132.975	47.243	0	7.80	0	12.5270	0	32.3100	0	24.402	0	7.735	0	249.7	4	94.1	4	-1E+10	1	-1E+10	1	-1E+10	1	-1E+10	1	-1E+10	1	-1E+10	1
4902549	82	C	11/18/2022	10:10	-132.975	47.243	0	8.80	0	12.5280	0	32.3100	0	24.402	0	8.727	0	249.7	4	94.1	4	-1E+10	1	-1E+10	1	-1E+10	1	-1E+10	1	-1E+10	1	-1E+10	1
4902549	82	C	11/18/2022	10:10	-132.975	47.243	0	9.80	0	12.5270	0	32.3100	0	24.402	0	9.718	0	249.6	4	94.1	4	-1E+10	1	-1E+10	1	-1E+10	1	-1E+10	1	-1E+10	1	-1E+10	1
4902549	82	C	11/18/2022	10:10	-132.975	47.243	0	10.90	0	12.5250	0	32.3090	0	24.402	0	10.809	0	249.6	4	94.1	4	-1E+10	1	-1E+10	1	-1E+10	1	-1E+10	1	-1E+10	1	-1E+10	1
4902549	82	C	11/18/2022	10:10	-132.975	47.243	0	12.20	0	12.5260	0	32.3090	0	24.402	0	12.098	0	249.6	4	94.1	4	-1E+10	1	-1E+10	1	-1E+10	1	-1E+10	1	-1E+10	1	-1E+10	1
4902549	82	C	11/18/2022	10:10	-132.975	47.243	0	12.80	0	12.5240	0	32.3100	0	24.403	0	12.693	0	249.7	4	94.1	4	-1E+10	1	-1E+10	1	-1E+10	1	-1E+10	1	-1E+10	1	-1E+10	1
4902549	82	C	11/18/2022	10:10	-132.975	47.243	0	13.70	0	12.5220	0	32.3100	0	24.403	0	13.586	0	249.6	4	94.0	4	-1E+10	1	-1E+10	1	-1E+10	1	-1E+10	1	-1E+10	1	-1E+10	1
4902549	82	C	11/18/2022	10:10	-132.975	47.243	0	14.70	0	12.5220	0	32.3100	0	24.403	0	14.577	0	249.5	4	94.0	4	-1E+10	1	-1E+10	1	-1E+10	1	-1E+10	1	-1E+10	1	-1E+10	1
4902549	82	C	11/18/2022	10:10	-132.975	47.243	0	15.70	0	12.5230	0	32.3100	0	24.403	0	15.569	0	249.5	4	94.0	4	-1E+10	1	-1E+10	1	-1E+10	1	-1E+10	1	-1E+10	1	-1E+10	1
4902549	82	C	11/18/2022	10:10	-132.975	47.243	0	16.80	0	12.5230	0	32.3100	0	24.403	0	16.660	0	249.5	4	94.0	4	-1E+10	1	-1E+10	1	-1E+10	1	-1E+10	1	-1E+10	1	-1E+10	1
4902549	82	C	11/18/2022	10:10	-132.975	47.243	0	17.90	0	12.5230	0	32.3100	0	24.403	0	17.750	0	249.5	4	94.0	4	-1E+10	1	-1E+10	1	-1E+10	1	-1E+10	1	-1E+10	1	-1E+10	1
4902549	82	C	11/18/2022	10:10	-132.975	47.243	0	19.10	0	12.5240	0	32.3100	0	24.403	0	18.940	0	249.5	4	94.0	4	-1E+10	1	-1E+10	1	-1E+10	1	-1E+10	1	-1E+10	1	-1E+10	1
4902549	82	C	11/18/2022	10:10	-132.975	47.243	0	20.00	0	12.5230	0	32.3100	0	24.403	0	19.833	0	249.5	4	94.0	4	-1E+10	1	-1E+10	1	-1E+10	1	-1E+10	1	-1E+10	1	-1E+10	1
4902549	82	C	11/18/2022	10:10	-132.975	47.243	0	20.90	0	12.5230	0	32.3100	0	24.403	0	20.725	0	249.5	4	94.0	4	-1E+10	1	-1E+10	1	-1E+10	1	-1E+10	1	-1E+10	1	-1E+10	1
4902549	82	C	11/18/2022	10:10	-132.975	47.243	0	21.80	0	12.5230	0	32.3100	0	24.403	0	21.617	0	249.5	4	94.0	4	-1E+10	1	-1E+10	1	-1E+10	1	-1E+10	1	-1E+10	1	-1E+10	1
4902549	82	C	11/18/2022	10:10	-132.975	47.243	0	22.80	0	12.5230	0	32.3100	0	24.403	0	22.609	0	249.5	4	94.0	4	-1E+10	1	-1E+10	1	-1E+10	1	-1E+10	1	-1E+10	1	-1E+10	1
4902549	82	C	11/18/2022	10:10	-132.975	47.243	0	24.00	0	12.5240	0	32.3090	0	24.402	0	23.799	0	249.5	4	94.0	4	-1E+10	1	-1E+10	1	-1E+10	1	-1E+10	1	-1E+10	1	-1E+10	1
4902549	82	C	11/18/2022	10:10	-132.975	47.243	0	24.90	0	12.5240	0	32.3090	0	24.402	0	24.691	0	249.5	4	94.0	4	-1E+10	1	-1E+10	1	-1E+10	1	-1E+10	1	-1E+10	1	-1E+10	1
4902549	82	C	11/18/2022	10:10	-132.975	47.243	0	25.80	0	12.5230	0	32.3100	0	24.403	0	25.584	0	249.5	4	94.0	4	-1E+10	1	-1E+10	1	-1E+10	1	-1E+10	1	-1E+10	1	-1E+10	1
4902549	82	C	11/18/2022	10:10	-132.975	47.243	0	26.90	0	12.5230	0	32.3090	0	24.402	0	26.674	0	249.4	4	94.0	4	-1E+10	1	-1E+10	1	-1E+10	1	-1E+10	1	-1E+10	1	-1E+10	1
4902549	82	C	11/18/2022	10:10	-132.975	47.243	0	28.00	0	12.5240	0	32.3090	0	24.402	0	27.765	0	249.5	4	94.0	4	-1E+10	1	-1E+10	1	-1E+10	1	-1E+10	1	-1E+10	1	-1E+10	1
4902549	82	C	11/18/2022	10:10	-132.975	47.243	0	29.10	0	12.5230	0	32.3090	0	24.403	0	28.856	0	249.5	4	94.0	4	-1E+10	1	-1E+10	1	-1E+10	1	-1E+10	1	-1E+10	1	-1E+10	1
4902549	82	C	11/18/2022	10:10	-132.975	47.243	0	30.10	0	12.5240	0	32.3100	0	24.403	0	29.847	0	249.4	4	94.0	4	-1E+10	1	-1E+10	1	-1E+10	1	-1E+10	1	-1E+10	1	-1E+10	1
4902549	82	C	11/18/2022	10:10	-132.975	47.243	0	31.40	0	12.5240	0	32.3100	0	24.403	0	31.136	0	249.4	4	94.0	4	-1E+10	1	-1E+10	1	-1E+10	1	-1E+10	1	-1E+10	1	-1E+10	1
4902549	82	C	11/18/2022	10:10	-132.975	47.243	0	32.40	0	12.5260	0	32.3100	0	24.403	0	32.128	0	249.3	4	93.9	4	-1E+10	1	-1E+10	1	-1E+10	1	-1E+10	1	-1E+10	1	-1E+10	1
4902549	82	C	11/18/2022	10:10	-132.975	47.243	0	33.10	0	12.5260	0	32.3100	0	24.403	0	32.822	0	249.4	4	94.0	4	-1E+10	1	-1E+10	1	-1E+10	1	-1E+10	1	-1E+10	1	-1E+10	1
4902549	82	C	11/18/2022	10:10	-132.975	47.243	0	34.00	0	12.5260	0	32.3100	0	24.403	0	33.714	0	249.4	4	94.0	4	-1E+10	1	-1E+10	1	-1E+10	1	-1E+10	1	-1E+10	1	-1E+10	1
4902549	82	C	11/18/2022	10:10	-132.975	47.243	0	34.90	0	12.5280	0	32.3090	0	24.402	0	34.607	0	249.3	4	93.9	4	-1E+10	1	-1E+10	1	-1E+10	1	-1E+10	1	-1E+10	1	-1E+10	1
4902549	82	C	11/18/2022	10:10	-132.975	47.243	0	35.80	0	12.5290	0	32.3100	0	24.402	0	35.499	0	249.3	4	94.0	4	-1E+10	1	-1E+10	1	-1E+10	1	-1E+10	1	-1E+10	1	-1E+10	1
4902549	82	C	11/18/2022	10:10	-132.975	47.243	0	36.80	0	12.5310	0	32.3100	0	24.402	0	36.490	0	249.3	4	93.9	4	-1E+10	1	-1E+10	1	-1E+10	1	-1E+10	1	-1E+10	1	-1E+10	1
4902549	82	C	11/18/2022	10:10	-132.975	47.243	0	37.80	0	12.5280	0	32.3100	0	24.403	0	37.482	0	249.3	4	93.9	4	-1E+10	1	-1E+10	1	-1E+10	1	-1E+10	1	-1E+10	1	-1E+10	1
4902549	82	C	11/18/2022	10:10	-132.975	47.243	0	38.80	0	12.5250	0	32.3110	0	24.404	0	38.473	0	249.3	4	93.9	4	-1E+10	1	-1E+10	1	-1E+10	1	-1E+10	1	-1E+10	1	-1E+10	1
4902549	82	C	11/18/2022	10:10	-132.975	47.243	0	39.90	0	12.5250	0	32.3090	0	24.402	0	39.564	0	249.2	4	93.9	4	-1E+10	1	-1E+10	1	-1E+10	1	-1E+10	1	-1E+10	1	-1E+10	1
4902549	82	C	11/18/2022	10:10	-132.975	47.243	0	41.10	0	12.5250	0	32.3090	0	24.402	0	40.754	0	249.2	4	93.9	4	-1E+10	1	-1E+10	1	-1E+10	1	-1E+10	1	-1E+10	1	-1E+10	1
4902549	82	C	11/18/2022	10:10	-132.975	47.243	0	42.10	0	12.5270	0	32.3110	0	24.404	0	41.745	0	249.2	4	93.9	4	-1E+10	1	-1E+10	1	-1E+10	1	-1E+10	1	-1E+10	1	-1E+10	1
4902549	82	C	11/18/2022	10:10	-132.975	47.243	0	43.00	0	12.5310	0	32.3100	0	24.402	0	42.638	0	249.2	4	93.9	4	-1E+10	1	-1E+10	1	-1E+10	1	-1E+10	1	-1E+10	1	-1E+10	1
4902549	82	C	11/18/2022	10:10	-132.975	47.243	0	44.00	0	12.5320	0	32.3100	0	24.402	0	43.629	0	249.1	4	93.9	4	-1E+10	1	-1E+10	1	-1E+10	1	-1E+10	1	-1E+10	1	-1E+10	1
4902549	82	C	11/18/2022	10:10	-132.975	47.243	0	44.90	0	12.5310	0	32.3100	0	24.402	0	44.521	0	249.2	4	93.9	4	-1E+10	1	-1E+10	1	-1E+10	1	-1E+10	1	-1E+10	1	-1E+10	1
4902549	82	C	11/18/2022	10:10	-132.975	47.243	0	46.10	0	12.5210	0	32.3090	0	24.403	0	45.711	0	249.1	4	93.9	4	-1E+10	1	-1E+10	1	-1E+10	1	-1E+10	1	-1E+10	1	-1E+10	1
4902549	82	C	11/18/2022	10:10	-132.975	47.243	0	47.00	0	12.5220	0	32.3090	0	24.403	0	46.604	0	249.2	4	93.9	4	-1E+10	1	-1E+10	1	-1E+10	1	-1E+10	1	-1E+10	1	-1E+10	1
4902549	82	C	11/18/2022	10:10	-132.975	47.243	0	48.00	0	12.5220	0	32.3100	0	24.404	0	47.595	0	249.2	4	93.9	4	-1E+10	1	-1E+10	1	-1E+10	1	-1E+10	1	-1E+10	1	-1E+10	1
4902549	82	C	11/18/2022	10:10	-132.975	47.243	0	48.90	0	12.5220	0	32.3070	0	24.402	0	48.487	0	249.2	4	93.9	4	-1E+10	1	-1E+10	1	-1E+10	1	-1E+10	1	-1E+10	1	-1E+10	1
4902549	82	C	11/18/2022	10:10	-132.975	47.243	0	49.70	0	12.5090	0	32.3090	0	24.406	0	49.280	0	249.1	4	93.8	4	-1E+10	1	-1E+10	1	-1E+10	1	-1E+10	1	-1E+10	1	-1E+10	1
4902549	82	C	11/18/2022	10:10	-132.975	47.243	0	50.90	0	12.5090	0	32.3090	0	24.406	0	50.470	0	249.2	4	93.8	4	-1E+10	1	-1E+10	1	-1E+10	1	-1E+10	1	-1E+10	1	-1E+10	1
4902549	82	C	11/18/2022	10:10	-132.975	47.243	0	52.00	0	12.5080	0	32.3080	0	24.405	0	51.561	0	249.0	4	93.8	4	-1E+10	1	-1E+10	1	-1E+10	1	-1E+10	1	-1E+10	1	-1E+10	1
4902549	82	C	11/18/2022	10:10	-132.975	47.243	0	53.10	0	12.5050	0	32.3080	0	24.406	0	52.651	0	249.1	4	93.8	4	-1E+10	1	-1E+10	1	-1E+10	1	-1E+10	1	-1E+10	1	-1E+10	1
4902549	82	C	11/18/2022	10:10	-132.975	47.243	0	54.00	0	12.5030	0	32.3090	0	24.407	0	53.544	0	249.2	4	93.8	4	-1E+10	1	-1E+10	1	-1E+10	1	-1E+10	1	-1E+10	1	-1E+10	1
4902549	82	C	11/18/2022	10:10	-132.975	47.243	0	54.80	0	12.5050	0	32.3090	0	24.407	0	54.337	0	249.0	4	93.8	4	-1E+10	1	-1E+10	1	-1E+10	1	-1E+10	1	-1E+10	1	-1E+10	1
4902549	82	C	11/18/2022	10:10	-132.975	47.243	0	55.80	0	12.5050	0	32.3080	0	24.406	0	55.328	0	249.0	4	93.8	4	-1E+10	1	-1E+10	1	-1E+10	1	-1E+10	1	-1E+10	1	-1E+10	1
4902549	82	C	11/18/2022	10:10	-132.975	47.243	0	56.90	0	12.5060	0	32.3090	0	24.406	0	56.419	0	249.0	4	93.8	4	-1E+10	1	-1E+10	1	-1E+10	1	-1E+10	1	-1E+10	1	-1E+10	1
4902549	82	C	11/18/2022	10:10	-132.975	47.243	0	57.90	0	12.5070	0	32.3090	0	24.406	0	57.410	0	249.0	4	93.8	4	-1E+10	1	-1E+10	1	-1E+10	1	-1E+10	1	-1E+10	1	-1E+10	1
4902549	82	C	11/18/2022	10:10	-132.975	47.243	0	58.80	0	12.5060	0	32.3090	0	24.406	0	58.302	0	248.9	4	93.8	4	-1E+10	1	-1E+10	1	-1E+10	1	-1E+10	1	-1E+10	1	-1E+10	1
4902549	82	C	11/18/2022	10:10	-132.975	47.243	0	59.80	0	12.5070	0	32.3080	0	24.406	0	59.294	0	248.9	4	93.7	4	-1E+10	1	-1E+10	1	-1E+10	1	-1E+10	1	-1E+10	1	-1E+10	1
4902549	82	C	11/18/2022	10:10	-132.975	47.243	0	61.00	0	12.5050	0	32.3090	0	24.407	0	60.483	0	248.8	4	93.7	4	-1E+10	1	-1E+10	1	-1E+10	1	-1E+10	1	-1E+10	1	-1E+10	1
4902549	82	C	11/18/2022	10:10	-132.975	47.243	0	61.90	0	12.5010	0	32.3080	0	24.407	0	61.376	0	248.8	4	93.7	4	-1E+10	1	-1E+10	1	-1E+10	1	-1E+10	1	-1E+10	1	-1E+10	1
4902549	82	C	11/18/2022	10:10	-132.975	47.243	0	63.10	0	12.4970	0	32.3080	0	24.408	0	62.565	0	248.7	4	93.7	4	-1E+10	1	-1E+10	1	-1E+10	1	-1E+10	1	-1E+10	1	-1E+10	1
4902549	82	C	11/18/2022	10:10	-132.975	47.243	0	64.20	0	12.4960	0	32.3070	0	24.407	0	63.656	0	248.7	4	93.6	4	-1E+10	1	-1E+10	1	-1E+10	1	-1E+10	1	-1E+10	1	-1E+10	1
4902549	82	C	11/18/2022	10:10	-132.975	47.243	0	65.00	0	12.4890	0	32.3080	0	24.409	0	64.449	0	248.6	4	93.6	4	-1E+10	1	-1E+10	1	-1E+10	1	-1E+10	1	-1E+10	1	-1E+10	1
4902549	82	C	11/18/2022	10:10	-132.975	47.243	0	66.20	0	12.4590	0	32.3140	0	24.419	0	65.639	0	248.6	4	93.6	4	-1E+10	1	-1E+10	1	-1E+10	1	-1E+10	1	-1E+10	1	-1E+10	1
4902549	82	C	11/18/2022	10:10	-132.975	47.243	0	66.90	0	12.4410	0	32.3050	0	24.416	0	66.332	0	248.6	4	93.5	4	-1E+10	1	-1E+10	1	-1E+10	1	-1E+10	1	-1E+10	1	-1E+10	1
4902549	82	C	11/18/2022	10:10	-132.975	47.243	0	68.00	0	12.3180	0	32.2950	0	24.432	0	67.423	0	248.4	4	93.2	4	-1E+10	1	-1E+10	1	-1E+10	1	-1E+10	1	-1E+10	1	-1E+10	1
4902549	82	C	11/18/2022	10:10	-132.975	47.243	0	69.00	0	11.5620	0	32.3220	0	24.592	0	68.414	0	251.5	4	92.9	4	-1E+10	1	-1E+10	1	-1E+10	1	-1E+10	1	-1E+10	1	-1E+10	1
4902549	82	C	11/18/2022	10:10	-132.975	47.243	0	69.90	0	10.5550	0	32.3150	0	24.764	0	69.307	0	255.9	4	92.5	4	-1E+10	1	-1E+10	1	-1E+10	1	-1E+10	1	-1E+10	1	-1E+10	1
4902549	82	C	11/18/2022	10:10	-132.975	47.243	0	71.10	0	9.9200	0	32.3060	0	24.864	0	70.496	0	257.7	4	91.9	4	-1E+10	1	-1E+10	1	-1E+10	1	-1E+10	1	-1E+10	1	-1E+10	1
4902549	82	C	11/18/2022	10:10	-132.975	47.243	0	72.00	0	9.5050	0	32.3340	0	24.953	0	71.388	0	258.4	4	91.3	4	-1E+10	1	-1E+10	1	-1E+10	1	-1E+10	1	-1E+10	1	-1E+10	1
4902549	82	C	11/18/2022	10:10	-132.975	47.243	0	72.90	0	9.3970	0	32.3250	0	24.963	0	72.281	0	258.1	4	91.0	4	-1E+10	1	-1E+10	1	-1E+10	1	-1E+10	1	-1E+10	1	-1E+10	1
4902549	82	C	11/18/2022	10:10	-132.975	47.243	0	73.80	0	9.1980	0	32.3290	0	24.998	0	73.173	0	258.1	4	90.6	4	-1E+10	1	-1E+10	1	-1E+10	1	-1E+10	1	-1E+10	1	-1E+10	1
4902549	82	C	11/18/2022	10:10	-132.975	47.243	0	74.80	0	9.0610	0	32.3280	0	25.018	0	74.164	0	258.2	4	90.4	4	-1E+10	1	-1E+10	1	-1E+10	1	-1E+10	1	-1E+10	1	-1E+10	1
4902549	82	C	11/18/2022	10:10	-132.975	47.243	0	75.80	0	8.9300	0	32.3380	0	25.047	0	75.155	0	258.0	4	90.0	4	-1E+10	1	-1E+10	1	-1E+10	1	-1E+10	1	-1E+10	1	-1E+10	1
4902549	82	C	11/18/2022	10:10	-132.975	47.243	0	76.80	0	8.7910	0	32.3390	0	25.069	0	76.147	0	258.1	4	89.8	4	-1E+10	1	-1E+10	1	-1E+10	1	-1E+10	1	-1E+10	1	-1E+10	1
4902549	82	C	11/18/2022	10:10	-132.975	47.243	0	77.80	0	8.7580	0	32.3400	0	25.075	0	77.138	0	257.5	4	89.5	4	-1E+10	1	-1E+10	1	-1E+10	1	-1E+10	1	-1E+10	1	-1E+10	1
4902549	82	C	11/18/2022	10:10	-132.975	47.243	0	78.80	0	8.6900	0	32.3440	0	25.088	0	78.129	0	256.9	4	89.2	4	-1E+10	1	-1E+10	1	-1E+10	1	-1E+10	1	-1E+10	1	-1E+10	1
4902549	82	C	11/18/2022	10:10	-132.975	47.243	0	79.80	0	8.6400	0	32.3450	0	25.096	0	79.121	0	256.4	4	88.9	4	-1E+10	1	-1E+10	1	-1E+10	1	-1E+10	1	-1E+10	1	-1E+10	1
4902549	82	C	11/18/2022	10:10	-132.975	47.243	0	80.90	0	8.5460	0	32.3490	0	25.114	0	80.211	0	256.2	4	88.7	4	-1E+10	1	-1E+10	1	-1E+10	1	-1E+10	1	-1E+10	1	-1E+10	1
4902549	82	C	11/18/2022	10:10	-132.975	47.243	0	82.00	0	8.4650	0	32.3540	0	25.130	0	81.301	0	256.0	4	88.4	4	-1E+10	1	-1E+10	1	-1E+10	1	-1E+10	1	-1E+10	1	-1E+10	1
4902549	82	C	11/18/2022	10:10	-132.975	47.243	0	82.90	0	8.4160	0	32.3560	0	25.139	0	82.194	0	255.5	4	88.2	4	-1E+10	1	-1E+10	1	-1E+10	1	-1E+10	1	-1E+10	1	-1E+10	1
4902549	82	C	11/18/2022	10:10	-132.975	47.243	0	83.80	0	8.2890	0	32.3670	0	25.166	0	83.086	0	255.8	4	88.0	4	-1E+10	1	-1E+10	1	-1E+10	1	-1E+10	1	-1E+10	1	-1E+10	1
4902549	82	C	11/18/2022	10:10	-132.975	47.243	0	85.00	0	8.1750	0	32.3730	0	25.187	0	84.275	0	255.9	4	87.8	4	-1E+10	1	-1E+10	1	-1E+10	1	-1E+10	1	-1E+10	1	-1E+10	1
4902549	82	C	11/18/2022	10:10	-132.975	47.243	0	86.00	0	8.1150	0	32.3820	0	25.203	0	85.266	0	262.2	4	89.9	4	-1E+10	1	-1E+10	1	-1E+10	1	-1E+10	1	-1E+10	1	-1E+10	1
4902549	82	C	11/18/2022	10:10	-132.975	47.243	0	87.00	0	7.9980	0	32.3940	0	25.229	0	86.258	0	262.5	4	89.8	4	-1E+10	1	-1E+10	1	-1E+10	1	-1E+10	1	-1E+10	1	-1E+10	1
4902549	82	C	11/18/2022	10:10	-132.975	47.243	0	87.90	0	7.9710	0	32.3970	0	25.236	0	87.150	0	262.4	4	89.7	4	-1E+10	1	-1E+10	1	-1E+10	1	-1E+10	1	-1E+10	1	-1E+10	1
4902549	82	C	11/18/2022	10:10	-132.975	47.243	0	88.90	0	7.9650	0	32.3970	0	25.237	0	88.141	0	262.1	4	89.6	4	-1E+10	1	-1E+10	1	-1E+10	1	-1E+10	1	-1E+10	1	-1E+10	1
4902549	82	C	11/18/2022	10:10	-132.975	47.243	0	90.10	0	7.9190	0	32.4020	0	25.247	0	89.331	0	261.9	4	89.4	4	-1E+10	1	-1E+10	1	-1E+10	1	-1E+10	1	-1E+10	1	-1E+10	1
4902549	82	C	11/18/2022	10:10	-132.975	47.243	0	91.00	0	7.9060	0	32.4030	0	25.250	0	90.223	0	261.6	4	89.3	4	-1E+10	1	-1E+10	1	-1E+10	1	-1E+10	1	-1E+10	1	-1E+10	1
4902549	82	C	11/18/2022	10:10	-132.975	47.243	0	91.80	0	7.8920	0	32.4070	0	25.255	0	91.016	0	261.0	4	89.1	4	-1E+10	1	-1E+10	1	-1E+10	1	-1E+10	1	-1E+10	1	-1E+10	1
4902549	82	C	11/18/2022	10:10	-132.975	47.243	0	93.10	0	7.8910	0	32.4070	0	25.255	0	92.304	0	260.0	4	88.7	4	-1E+10	1	-1E+10	1	-1E+10	1	-1E+10	1	-1E+10	1	-1E+10	1
4902549	82	C	11/18/2022	10:10	-132.975	47.243	0	94.10	0	7.8680	0	32.4100	0	25.261	0	93.296	0	259.1	4	88.4	4	-1E+10	1	-1E+10	1	-1E+10	1	-1E+10	1	-1E+10	1	-1E+10	1
4902549	82	C	11/18/2022	10:10	-132.975	47.243	0	95.00	0	7.8400	0	32.4150	0	25.269	0	94.188	0	258.1	4	88.0	4	-1E+10	1	-1E+10	1	-1E+10	1	-1E+10	1	-1E+10	1	-1E+10	1
4902549	82	C	11/18/2022	10:10	-132.975	47.243	0	95.90	0	7.8110	0	32.4210	0	25.278	0	95.080	0	256.9	4	87.5	4	-1E+10	1	-1E+10	1	-1E+10	1	-1E+10	1	-1E+10	1	-1E+10	1
4902549	82	C	11/18/2022	10:10	-132.975	47.243	0	97.10	0	7.7750	0	32.4290	0	25.289	0	96.269	0	255.7	4	87.0	4	-1E+10	1	-1E+10	1	-1E+10	1	-1E+10	1	-1E+10	1	-1E+10	1
4902549	82	C	11/18/2022	10:10	-132.975	47.243	0	98.20	0	7.7300	0	32.4480	0	25.310	0	97.360	0	255.0	4	86.7	4	-1E+10	1	-1E+10	1	-1E+10	1	-1E+10	1	-1E+10	1	-1E+10	1
4902549	82	C	11/18/2022	10:10	-132.975	47.243	0	98.90	0	7.7080	0	32.4540	0	25.318	0	98.053	0	254.5	4	86.5	4	-1E+10	1	-1E+10	1	-1E+10	1	-1E+10	1	-1E+10	1	-1E+10	1
4902549	82	C	11/18/2022	10:10	-132.975	47.243	0	100.10	0	7.6860	0	32.4580	0	25.324	0	99.243	0	253.5	4	86.1	4	-1E+10	1	-1E+10	1	-1E+10	1	-1E+10	1	-1E+10	1	-1E+10	1
4902549	82	C	11/18/2022	10:10	-132.975	47.243	0	100.90	0	7.6520	0	32.4610	0	25.331	0	100.036	0	252.8	4	85.8	4	-1E+10	1	-1E+10	1	-1E+10	1	-1E+10	1	-1E+10	1	-1E+10	1
4902549	82	C	11/18/2022	10:10	-132.975	47.243	0	102.00	0	7.6610	0	32.4720	0	25.339	0	101.126	0	251.3	4	85.3	4	-1E+10	1	-1E+10	1	-1E+10	1	-1E+10	1	-1E+10	1	-1E+10	1
4902549	82	C	11/18/2022	10:10	-132.975	47.243	0	103.20	0	7.6000	0	32.4770	0	25.351	0	102.316	0	249.7	4	84.7	4	-1E+10	1	-1E+10	1	-1E+10	1	-1E+10	1	-1E+10	1	-1E+10	1
4902549	82	C	11/18/2022	10:10	-132.975	47.243	0	104.10	0	7.5640	0	32.4830	0	25.361	0	103.208	0	248.5	4	84.2	4	-1E+10	1	-1E+10	1	-1E+10	1	-1E+10	1	-1E+10	1	-1E+10	1
4902549	82	C	11/18/2022	10:10	-132.975	47.243	0	104.90	0	7.5770	0	32.5120	0	25.382	0	104.001	0	247.0	4	83.7	4	-1E+10	1	-1E+10	1	-1E+10	1	-1E+10	1	-1E+10	1	-1E+10	1
4902549	82	C	11/18/2022	10:10	-132.975	47.243	0	106.30	0	7.6080	0	32.5490	0	25.407	0	105.388	0	244.6	4	83.0	4	-1E+10	1	-1E+10	1	-1E+10	1	-1E+10	1	-1E+10	1	-1E+10	1
4902549	82	C	11/18/2022	10:10	-132.975	47.243	0	107.20	0	7.5950	0	32.5630	0	25.420	0	106.280	0	243.5	4	82.6	4	-1E+10	1	-1E+10	1	-1E+10	1	-1E+10	1	-1E+10	1	-1E+10	1
4902549	82	C	11/18/2022	10:10	-132.975	47.243	0	107.90	0	7.5850	0	32.5680	0	25.425	0	106.974	0	242.2	4	82.2	4	-1E+10	1	-1E+10	1	-1E+10	1	-1E+10	1	-1E+10	1	-1E+10	1
4902549	82	C	11/18/2022	10:10	-132.975	47.243	0	108.90	0	7.5710	0	32.5920	0	25.446	0	107.965	0	240.8	4	81.7	4	-1E+10	1	-1E+10	1	-1E+10	1	-1E+10	1	-1E+10	1	-1E+10	1
4902549	82	C	11/18/2022	10:10	-132.975	47.243	0	110.10	0	7.5640	0	32.6170	0	25.466	0	109.155	0	239.1	4	81.1	4	-1E+10	1	-1E+10	1	-1E+10	1	-1E+10	1	-1E+10	1	-1E+10	1
4902549	82	C	11/18/2022	10:10	-132.975	47.243	0	110.80	0	7.5570	0	32.6240	0	25.473	0	109.848	0	238.4	4	80.9	4	-1E+10	1	-1E+10	1	-1E+10	1	-1E+10	1	-1E+10	1	-1E+10	1
4902549	82	C	11/18/2022	10:10	-132.975	47.243	0	112.00	0	7.5440	0	32.6320	0	25.481	0	111.038	0	237.1	4	80.4	4	-1E+10	1	-1E+10	1	-1E+10	1	-1E+10	1	-1E+10	1	-1E+10	1
4902549	82	C	11/18/2022	10:10	-132.975	47.243	0	113.10	0	7.5280	0	32.6520	0	25.499	0	112.128	0	235.7	4	79.9	4	-1E+10	1	-1E+10	1	-1E+10	1	-1E+10	1	-1E+10	1	-1E+10	1
4902549	82	C	11/18/2022	10:10	-132.975	47.243	0	114.00	0	7.5150	0	32.6810	0	25.524	0	113.020	0	234.8	4	79.6	4	-1E+10	1	-1E+10	1	-1E+10	1	-1E+10	1	-1E+10	1	-1E+10	1
4902549	82	C	11/18/2022	10:10	-132.975	47.243	0	115.00	0	7.5000	0	32.7060	0	25.545	0	114.011	0	233.8	4	79.3	4	-1E+10	1	-1E+10	1	-1E+10	1	-1E+10	1	-1E+10	1	-1E+10	1
4902549	82	C	11/18/2022	10:10	-132.975	47.243	0	116.10	0	7.4870	0	32.7300	0	25.566	0	115.101	0	232.5	4	78.8	4	-1E+10	1	-1E+10	1	-1E+10	1	-1E+10	1	-1E+10	1	-1E+10	1
4902549	82	C	11/18/2022	10:10	-132.975	47.243	0	117.00	0	7.4730	0	32.7520	0	25.585	0	115.993	0	231.6	4	78.5	4	-1E+10	1	-1E+10	1	-1E+10	1	-1E+10	1	-1E+10	1	-1E+10	1
4902549	82	C	11/18/2022	10:10	-132.975	47.243	0	118.10	0	7.4510	0	32.7910	0	25.619	0	117.084	0	230.6	4	78.1	4	-1E+10	1	-1E+10	1	-1E+10	1	-1E+10	1	-1E+10	1	-1E+10	1
4902549	82	C	11/18/2022	10:10	-132.975	47.243	0	119.10	0	7.4440	0	32.8040	0	25.630	0	118.075	0	229.6	4	77.8	4	-1E+10	1	-1E+10	1	-1E+10	1	-1E+10	1	-1E+10	1	-1E+10	1
4902549	82	C	11/18/2022	10:10	-132.975	47.243	0	120.00	0	7.4380	0	32.8210	0	25.645	0	118.967	0	228.5	4	77.4	4	-1E+10	1	-1E+10	1	-1E+10	1	-1E+10	1	-1E+10	1	-1E+10	1
4902549	82	C	11/18/2022	10:10	-132.975	47.243	0	121.00	0	7.4290	0	32.8350	0	25.657	0	119.958	0	227.4	4	77.0	4	-1E+10	1	-1E+10	1	-1E+10	1	-1E+10	1	-1E+10	1	-1E+10	1
4902549	82	C	11/18/2022	10:10	-132.975	47.243	0	122.10	0	7.4150	0	32.8410	0	25.663	0	121.048	0	226.1	4	76.6	4	-1E+10	1	-1E+10	1	-1E+10	1	-1E+10	1	-1E+10	1	-1E+10	1
4902549	82	C	11/18/2022	10:10	-132.975	47.243	0	122.80	0	7.4130	0	32.8550	0	25.675	0	121.742	0	225.0	4	76.2	4	-1E+10	1	-1E+10	1	-1E+10	1	-1E+10	1	-1E+10	1	-1E+10	1
4902549	82	C	11/18/2022	10:10	-132.975	47.243	0	123.90	0	7.3990	0	32.8700	0	25.689	0	122.832	0	223.4	4	75.6	4	-1E+10	1	-1E+10	1	-1E+10	1	-1E+10	1	-1E+10	1	-1E+10	1
4902549	82	C	11/18/2022	10:10	-132.975	47.243	0	124.90	0	7.3830	0	32.8840	0	25.702	0	123.823	0	221.8	4	75.1	4	-1E+10	1	-1E+10	1	-1E+10	1	-1E+10	1	-1E+10	1	-1E+10	1
4902549	82	C	11/18/2022	10:10	-132.975	47.243	0	126.00	0	7.3690	0	32.8900	0	25.708	0	124.913	0	220.3	4	74.5	4	-1E+10	1	-1E+10	1	-1E+10	1	-1E+10	1	-1E+10	1	-1E+10	1
4902549	82	C	11/18/2022	10:10	-132.975	47.243	0	127.00	0	7.3470	0	32.9070	0	25.725	0	125.904	0	218.5	4	73.9	4	-1E+10	1	-1E+10	1	-1E+10	1	-1E+10	1	-1E+10	1	-1E+10	1
4902549	82	C	11/18/2022	10:10	-132.975	47.243	0	128.10	0	7.3320	0	32.9290	0	25.744	0	126.994	0	216.9	4	73.4	4	-1E+10	1	-1E+10	1	-1E+10	1	-1E+10	1	-1E+10	1	-1E+10	1
4902549	82	C	11/18/2022	10:10	-132.975	47.243	0	128.80	0	7.3300	0	32.9360	0	25.750	0	127.688	0	215.7	4	73.0	4	-1E+10	1	-1E+10	1	-1E+10	1	-1E+10	1	-1E+10	1	-1E+10	1
4902549	82	C	11/18/2022	10:10	-132.975	47.243	0	130.00	0	7.3250	0	32.9610	0	25.770	0	128.877	0	213.8	4	72.3	4	-1E+10	1	-1E+10	1	-1E+10	1	-1E+10	1	-1E+10	1	-1E+10	1
4902549	82	C	11/18/2022	10:10	-132.975	47.243	0	131.00	0	7.3230	0	32.9930	0	25.796	0	129.869	0	212.6	4	71.9	4	-1E+10	1	-1E+10	1	-1E+10	1	-1E+10	1	-1E+10	1	-1E+10	1
4902549	82	C	11/18/2022	10:10	-132.975	47.243	0	132.10	0	7.3220	0	33.0030	0	25.804	0	130.959	0	210.9	4	71.3	4	-1E+10	1	-1E+10	1	-1E+10	1	-1E+10	1	-1E+10	1	-1E+10	1
4902549	82	C	11/18/2022	10:10	-132.975	47.243	0	133.00	0	7.3230	0	33.0300	0	25.825	0	131.851	0	209.3	4	70.8	4	-1E+10	1	-1E+10	1	-1E+10	1	-1E+10	1	-1E+10	1	-1E+10	1
4902549	82	C	11/18/2022	10:10	-132.975	47.243	0	133.70	0	7.3130	0	33.0520	0	25.844	0	132.544	0	208.2	4	70.4	4	-1E+10	1	-1E+10	1	-1E+10	1	-1E+10	1	-1E+10	1	-1E+10	1
4902549	82	C	11/18/2022	10:10	-132.975	47.243	0	134.80	0	7.3020	0	33.0820	0	25.869	0	133.634	0	206.9	4	70.0	4	-1E+10	1	-1E+10	1	-1E+10	1	-1E+10	1	-1E+10	1	-1E+10	1
4902549	82	C	11/18/2022	10:10	-132.975	47.243	0	136.00	0	7.2950	0	33.1120	0	25.893	0	134.824	0	205.8	4	69.6	4	-1E+10	1	-1E+10	1	-1E+10	1	-1E+10	1	-1E+10	1	-1E+10	1
4902549	82	C	11/18/2022	10:10	-132.975	47.243	0	137.10	0	7.3060	0	33.1520	0	25.923	0	135.914	0	204.2	4	69.1	4	-1E+10	1	-1E+10	1	-1E+10	1	-1E+10	1	-1E+10	1	-1E+10	1
4902549	82	C	11/18/2022	10:10	-132.975	47.243	0	138.00	0	7.3060	0	33.1560	0	25.927	0	136.806	0	202.8	4	68.7	4	-1E+10	1	-1E+10	1	-1E+10	1	-1E+10	1	-1E+10	1	-1E+10	1
4902549	82	C	11/18/2022	10:10	-132.975	47.243	0	138.90	0	7.3030	0	33.1670	0	25.936	0	137.698	0	201.2	4	68.1	4	-1E+10	1	-1E+10	1	-1E+10	1	-1E+10	1	-1E+10	1	-1E+10	1
4902549	82	C	11/18/2022	10:10	-132.975	47.243	0	139.80	0	7.2950	0	33.1980	0	25.961	0	138.590	0	199.5	4	67.5	4	-1E+10	1	-1E+10	1	-1E+10	1	-1E+10	1	-1E+10	1	-1E+10	1
4902549	82	C	11/18/2022	10:10	-132.975	47.243	0	140.80	0	7.2890	0	33.2350	0	25.991	0	139.581	0	197.9	4	67.0	4	-1E+10	1	-1E+10	1	-1E+10	1	-1E+10	1	-1E+10	1	-1E+10	1
4902549	82	C	11/18/2022	10:10	-132.975	47.243	0	141.80	0	7.2840	0	33.2720	0	26.021	0	140.572	0	196.2	4	66.5	4	-1E+10	1	-1E+10	1	-1E+10	1	-1E+10	1	-1E+10	1	-1E+10	1
4902549	82	C	11/18/2022	10:10	-132.975	47.243	0	142.90	0	7.2800	0	33.2930	0	26.038	0	141.662	0	194.3	4	65.8	4	-1E+10	1	-1E+10	1	-1E+10	1	-1E+10	1	-1E+10	1	-1E+10	1
4902549	82	C	11/18/2022	10:10	-132.975	47.243	0	144.00	0	7.2770	0	33.3200	0	26.060	0	142.752	0	192.1	4	65.1	4	-1E+10	1	-1E+10	1	-1E+10	1	-1E+10	1	-1E+10	1	-1E+10	1
4902549	82	C	11/18/2022	10:10	-132.975	47.243	0	144.70	0	7.2780	0	33.3370	0	26.073	0	143.445	0	190.6	4	64.6	4	-1E+10	1	-1E+10	1	-1E+10	1	-1E+10	1	-1E+10	1	-1E+10	1
4902549	82	C	11/18/2022	10:10	-132.975	47.243	0	145.90	0	7.2810	0	33.3570	0	26.088	0	144.635	0	188.1	4	63.7	4	-1E+10	1	-1E+10	1	-1E+10	1	-1E+10	1	-1E+10	1	-1E+10	1
4902549	82	C	11/18/2022	10:10	-132.975	47.243	0	147.10	0	7.2880	0	33.4180	0	26.135	0	145.824	0	185.9	4	63.0	4	-1E+10	1	-1E+10	1	-1E+10	1	-1E+10	1	-1E+10	1	-1E+10	1
4902549	82	C	11/18/2022	10:10	-132.975	47.243	0	147.90	0	7.2940	0	33.4320	0	26.145	0	146.617	0	184.7	4	62.7	4	-1E+10	1	-1E+10	1	-1E+10	1	-1E+10	1	-1E+10	1	-1E+10	1
4902549	82	C	11/18/2022	10:10	-132.975	47.243	0	148.70	0	7.3040	0	33.4630	0	26.168	0	147.409	0	183.7	4	62.3	4	-1E+10	1	-1E+10	1	-1E+10	1	-1E+10	1	-1E+10	1	-1E+10	1
4902549	82	C	11/18/2022	10:10	-132.975	47.243	0	149.90	0	7.3100	0	33.4850	0	26.185	0	148.598	0	182.6	4	62.0	4	-1E+10	1	-1E+10	1	-1E+10	1	-1E+10	1	-1E+10	1	-1E+10	1
4902549	82	C	11/18/2022	10:10	-132.975	47.243	0	151.20	0	7.3140	0	33.4980	0	26.195	0	149.887	0	181.2	4	61.5	4	-1E+10	1	-1E+10	1	-1E+10	1	-1E+10	1	-1E+10	1	-1E+10	1
4902549	82	C	11/18/2022	10:10	-132.975	47.243	0	152.00	0	7.3120	0	33.5020	0	26.198	0	150.679	0	180.4	4	61.2	4	-1E+10	1	-1E+10	1	-1E+10	1	-1E+10	1	-1E+10	1	-1E+10	1
4902549	82	C	11/18/2022	10:10	-132.975	47.243	0	152.80	0	7.3140	0	33.5060	0	26.201	0	151.472	0	179.5	4	60.9	4	-1E+10	1	-1E+10	1	-1E+10	1	-1E+10	1	-1E+10	1	-1E+10	1
4902549	82	C	11/18/2022	10:10	-132.975	47.243	0	153.70	0	7.3120	0	33.5190	0	26.211	0	152.364	0	178.6	4	60.6	4	-1E+10	1	-1E+10	1	-1E+10	1	-1E+10	1	-1E+10	1	-1E+10	1
4902549	82	C	11/18/2022	10:10	-132.975	47.243	0	154.90	0	7.3070	0	33.5460	0	26.233	0	153.553	0	177.2	4	60.2	4	-1E+10	1	-1E+10	1	-1E+10	1	-1E+10	1	-1E+10	1	-1E+10	1
4902549	82	C	11/18/2022	10:10	-132.975	47.243	0	156.20	0	7.3050	0	33.5720	0	26.254	0	154.841	0	175.7	4	59.7	4	-1E+10	1	-1E+10	1	-1E+10	1	-1E+10	1	-1E+10	1	-1E+10	1
4902549	82	C	11/18/2022	10:10	-132.975	47.243	0	157.00	0	7.3030	0	33.5880	0	26.267	0	155.634	0	175.0	4	59.4	4	-1E+10	1	-1E+10	1	-1E+10	1	-1E+10	1	-1E+10	1	-1E+10	1
4902549	82	C	11/18/2022	10:10	-132.975	47.243	0	157.90	0	7.3010	0	33.5930	0	26.271	0	156.526	0	174.4	4	59.2	4	-1E+10	1	-1E+10	1	-1E+10	1	-1E+10	1	-1E+10	1	-1E+10	1
4902549	82	C	11/18/2022	10:10	-132.975	47.243	0	158.70	0	7.2990	0	33.5970	0	26.275	0	157.319	0	173.7	4	59.0	4	-1E+10	1	-1E+10	1	-1E+10	1	-1E+10	1	-1E+10	1	-1E+10	1
4902549	82	C	11/18/2022	10:10	-132.975	47.243	0	160.00	0	7.2910	0	33.6100	0	26.286	0	158.607	0	172.7	4	58.6	4	-1E+10	1	-1E+10	1	-1E+10	1	-1E+10	1	-1E+10	1	-1E+10	1
4902549	82	C	11/18/2022	10:10	-132.975	47.243	0	161.20	0	7.2850	0	33.6180	0	26.293	0	159.796	0	171.6	4	58.3	4	-1E+10	1	-1E+10	1	-1E+10	1	-1E+10	1	-1E+10	1	-1E+10	1
4902549	82	C	11/18/2022	10:10	-132.975	47.243	0	162.10	0	7.2820	0	33.6230	0	26.298	0	160.688	0	170.8	4	58.0	4	-1E+10	1	-1E+10	1	-1E+10	1	-1E+10	1	-1E+10	1	-1E+10	1
4902549	82	C	11/18/2022	10:10	-132.975	47.243	0	162.90	0	7.2790	0	33.6280	0	26.302	0	161.481	0	169.8	4	57.6	4	-1E+10	1	-1E+10	1	-1E+10	1	-1E+10	1	-1E+10	1	-1E+10	1
4902549	82	C	11/18/2022	10:10	-132.975	47.243	0	163.80	0	7.2750	0	33.6360	0	26.309	0	162.372	0	168.8	4	57.3	4	-1E+10	1	-1E+10	1	-1E+10	1	-1E+10	1	-1E+10	1	-1E+10	1
4902549	82	C	11/18/2022	10:10	-132.975	47.243	0	164.60	0	7.2710	0	33.6450	0	26.316	0	163.165	0	167.9	4	57.0	4	-1E+10	1	-1E+10	1	-1E+10	1	-1E+10	1	-1E+10	1	-1E+10	1
4902549	82	C	11/18/2022	10:10	-132.975	47.243	0	165.90	0	7.2420	0	33.6790	0	26.347	0	164.453	0	167.0	4	56.7	4	-1E+10	1	-1E+10	1	-1E+10	1	-1E+10	1	-1E+10	1	-1E+10	1
4902549	82	C	11/18/2022	10:10	-132.975	47.243	0	167.30	0	7.2350	0	33.6910	0	26.358	0	165.840	0	166.2	4	56.4	4	-1E+10	1	-1E+10	1	-1E+10	1	-1E+10	1	-1E+10	1	-1E+10	1
4902549	82	C	11/18/2022	10:10	-132.975	47.243	0	168.30	0	7.2290	0	33.6980	0	26.364	0	166.831	0	165.7	4	56.2	4	-1E+10	1	-1E+10	1	-1E+10	1	-1E+10	1	-1E+10	1	-1E+10	1
4902549	82	C	11/18/2022	10:10	-132.975	47.243	0	169.20	0	7.2270	0	33.6990	0	26.365	0	167.723	0	165.1	4	56.0	4	-1E+10	1	-1E+10	1	-1E+10	1	-1E+10	1	-1E+10	1	-1E+10	1
4902549	82	C	11/18/2022	10:10	-132.975	47.243	0	170.10	0	7.2170	0	33.7030	0	26.370	0	168.615	0	164.6	4	55.8	4	-1E+10	1	-1E+10	1	-1E+10	1	-1E+10	1	-1E+10	1	-1E+10	1
4902549	82	C	11/18/2022	10:10	-132.975	47.243	0	171.00	0	7.1960	0	33.7130	0	26.380	0	169.507	0	164.3	4	55.7	4	-1E+10	1	-1E+10	1	-1E+10	1	-1E+10	1	-1E+10	1	-1E+10	1
4902549	82	C	11/18/2022	10:10	-132.975	47.243	0	171.90	0	7.1910	0	33.7160	0	26.384	0	170.398	0	164.3	4	55.7	4	-1E+10	1	-1E+10	1	-1E+10	1	-1E+10	1	-1E+10	1	-1E+10	1
4902549	82	C	11/18/2022	10:10	-132.975	47.243	0	172.90	0	7.1840	0	33.7200	0	26.388	0	171.389	0	164.2	4	55.7	4	-1E+10	1	-1E+10	1	-1E+10	1	-1E+10	1	-1E+10	1	-1E+10	1
4902549	82	C	11/18/2022	10:10	-132.975	47.243	0	173.80	0	7.1800	0	33.7230	0	26.391	0	172.281	0	164.2	4	55.6	4	-1E+10	1	-1E+10	1	-1E+10	1	-1E+10	1	-1E+10	1	-1E+10	1
4902549	82	C	11/18/2022	10:10	-132.975	47.243	0	174.80	0	7.1730	0	33.7250	0	26.393	0	173.272	0	164.1	4	55.6	4	-1E+10	1	-1E+10	1	-1E+10	1	-1E+10	1	-1E+10	1	-1E+10	1
4902549	82	C	11/18/2022	10:10	-132.975	47.243	0	175.70	0	7.1660	0	33.7260	0	26.395	0	174.164	0	164.1	4	55.6	4	-1E+10	1	-1E+10	1	-1E+10	1	-1E+10	1	-1E+10	1	-1E+10	1
4902549	82	C	11/18/2022	10:10	-132.975	47.243	0	176.70	0	7.1460	0	33.7360	0	26.406	0	175.154	0	164.3	4	55.6	4	-1E+10	1	-1E+10	1	-1E+10	1	-1E+10	1	-1E+10	1	-1E+10	1
4902549	82	C	11/18/2022	10:10	-132.975	47.243	0	177.60	0	7.1160	0	33.7470	0	26.418	0	176.046	0	164.7	4	55.8	4	-1E+10	1	-1E+10	1	-1E+10	1	-1E+10	1	-1E+10	1	-1E+10	1
4902549	82	C	11/18/2022	10:10	-132.975	47.243	0	178.60	0	7.1080	0	33.7540	0	26.425	0	177.037	0	164.5	4	55.7	4	-1E+10	1	-1E+10	1	-1E+10	1	-1E+10	1	-1E+10	1	-1E+10	1
4902549	82	C	11/18/2022	10:10	-132.975	47.243	0	179.50	0	7.0970	0	33.7600	0	26.431	0	177.929	0	164.0	4	55.5	4	-1E+10	1	-1E+10	1	-1E+10	1	-1E+10	1	-1E+10	1	-1E+10	1
4902549	82	C	11/18/2022	10:10	-132.975	47.243	0	180.90	0	7.0790	0	33.7660	0	26.438	0	179.316	0	163.1	4	55.2	4	-1E+10	1	-1E+10	1	-1E+10	1	-1E+10	1	-1E+10	1	-1E+10	1
4902549	82	C	11/18/2022	10:10	-132.975	47.243	0	182.40	0	7.0640	0	33.7690	0	26.443	0	180.802	0	162.1	4	54.8	4	-1E+10	1	-1E+10	1	-1E+10	1	-1E+10	1	-1E+10	1	-1E+10	1
4902549	82	C	11/18/2022	10:10	-132.975	47.243	0	183.40	0	7.0560	0	33.7690	0	26.444	0	181.793	0	161.5	4	54.6	4	-1E+10	1	-1E+10	1	-1E+10	1	-1E+10	1	-1E+10	1	-1E+10	1
4902549	82	C	11/18/2022	10:10	-132.975	47.243	0	184.30	0	7.0310	0	33.7710	0	26.449	0	182.685	0	161.1	4	54.4	4	-1E+10	1	-1E+10	1	-1E+10	1	-1E+10	1	-1E+10	1	-1E+10	1
4902549	82	C	11/18/2022	10:10	-132.975	47.243	0	185.30	0	7.0220	0	33.7750	0	26.453	0	183.675	0	160.5	4	54.2	4	-1E+10	1	-1E+10	1	-1E+10	1	-1E+10	1	-1E+10	1	-1E+10	1
4902549	82	C	11/18/2022	10:10	-132.975	47.243	0	186.30	0	6.9970	0	33.7800	0	26.461	0	184.666	0	160.1	4	54.1	4	-1E+10	1	-1E+10	1	-1E+10	1	-1E+10	1	-1E+10	1	-1E+10	1
4902549	82	C	11/18/2022	10:10	-132.975	47.243	0	187.30	0	6.9640	0	33.7830	0	26.468	0	185.657	0	160.0	4	54.0	4	-1E+10	1	-1E+10	1	-1E+10	1	-1E+10	1	-1E+10	1	-1E+10	1
4902549	82	C	11/18/2022	10:10	-132.975	47.243	0	188.30	0	6.9500	0	33.7850	0	26.471	0	186.648	0	160.1	4	54.0	4	-1E+10	1	-1E+10	1	-1E+10	1	-1E+10	1	-1E+10	1	-1E+10	1
4902549	82	C	11/18/2022	10:10	-132.975	47.243	0	189.30	0	6.9410	0	33.7850	0	26.472	0	187.639	0	160.0	4	54.0	4	-1E+10	1	-1E+10	1	-1E+10	1	-1E+10	1	-1E+10	1	-1E+10	1
4902549	82	C	11/18/2022	10:10	-132.975	47.243	0	190.30	0	6.9330	0	33.7870	0	26.475	0	188.629	0	159.8	4	53.9	4	-1E+10	1	-1E+10	1	-1E+10	1	-1E+10	1	-1E+10	1	-1E+10	1
4902549	82	C	11/18/2022	10:10	-132.975	47.243	0	191.30	0	6.9220	0	33.7870	0	26.476	0	189.620	0	159.6	4	53.8	4	-1E+10	1	-1E+10	1	-1E+10	1	-1E+10	1	-1E+10	1	-1E+10	1
4902549	82	C	11/18/2022	10:10	-132.975	47.243	0	192.30	0	6.9020	0	33.7880	0	26.480	0	190.611	0	159.3	4	53.7	4	-1E+10	1	-1E+10	1	-1E+10	1	-1E+10	1	-1E+10	1	-1E+10	1
4902549	82	C	11/18/2022	10:10	-132.975	47.243	0	193.30	0	6.8950	0	33.7890	0	26.482	0	191.602	0	158.9	4	53.6	4	-1E+10	1	-1E+10	1	-1E+10	1	-1E+10	1	-1E+10	1	-1E+10	1
4902549	82	C	11/18/2022	10:10	-132.975	47.243	0	194.30	0	6.8890	0	33.7900	0	26.483	0	192.592	0	158.5	4	53.4	4	-1E+10	1	-1E+10	1	-1E+10	1	-1E+10	1	-1E+10	1	-1E+10	1
4902549	82	C	11/18/2022	10:10	-132.975	47.243	0	195.30	0	6.8810	0	33.7900	0	26.484	0	193.583	0	158.0	4	53.2	4	-1E+10	1	-1E+10	1	-1E+10	1	-1E+10	1	-1E+10	1	-1E+10	1
4902549	82	C	11/18/2022	10:10	-132.975	47.243	0	196.30	0	6.8690	0	33.7900	0	26.486	0	194.574	0	157.3	4	53.0	4	-1E+10	1	-1E+10	1	-1E+10	1	-1E+10	1	-1E+10	1	-1E+10	1
4902549	82	C	11/18/2022	10:10	-132.975	47.243	0	197.30	0	6.8630	0	33.7900	0	26.487	0	195.565	0	156.4	4	52.6	4	-1E+10	1	-1E+10	1	-1E+10	1	-1E+10	1	-1E+10	1	-1E+10	1
4902549	82	C	11/18/2022	10:10	-132.975	47.243	0	198.30	0	6.8530	0	33.7910	0	26.489	0	196.555	0	155.3	4	52.3	4	-1E+10	1	-1E+10	1	-1E+10	1	-1E+10	1	-1E+10	1	-1E+10	1
4902549	82	C	11/18/2022	10:10	-132.975	47.243	0	199.30	0	6.8350	0	33.7920	0	26.492	0	197.546	0	154.2	4	51.9	4	-1E+10	1	-1E+10	1	-1E+10	1	-1E+10	1	-1E+10	1	-1E+10	1
4902549	82	C	11/18/2022	10:10	-132.975	47.243	0	200.40	0	6.8200	0	33.7920	0	26.494	0	198.636	0	153.1	4	51.5	4	-1E+10	1	-1E+10	1	-1E+10	1	-1E+10	1	-1E+10	1	-1E+10	1
4902549	82	C	11/18/2022	10:10	-132.975	47.243	0	201.40	0	6.8130	0	33.7940	0	26.497	0	199.626	0	151.9	4	51.1	4	-1E+10	1	-1E+10	1	-1E+10	1	-1E+10	1	-1E+10	1	-1E+10	1
4902549	82	C	11/18/2022	10:10	-132.975	47.243	0	202.40	0	6.8110	0	33.7950	0	26.498	0	200.617	0	151.0	4	50.8	4	-1E+10	1	-1E+10	1	-1E+10	1	-1E+10	1	-1E+10	1	-1E+10	1
4902549	82	C	11/18/2022	10:10	-132.975	47.243	0	203.40	0	6.7960	0	33.7970	0	26.501	0	201.608	0	150.3	4	50.5	4	-1E+10	1	-1E+10	1	-1E+10	1	-1E+10	1	-1E+10	1	-1E+10	1
4902549	82	C	11/18/2022	10:10	-132.975	47.243	0	204.50	0	6.7790	0	33.7980	0	26.505	0	202.698	0	149.6	4	50.3	4	-1E+10	1	-1E+10	1	-1E+10	1	-1E+10	1	-1E+10	1	-1E+10	1
4902549	82	C	11/18/2022	10:10	-132.975	47.243	0	205.50	0	6.7510	0	33.7960	0	26.507	0	203.688	0	148.5	4	49.9	4	-1E+10	1	-1E+10	1	-1E+10	1	-1E+10	1	-1E+10	1	-1E+10	1
4902549	82	C	11/18/2022	10:10	-132.975	47.243	0	206.60	0	6.7290	0	33.7950	0	26.509	0	204.778	0	147.0	4	49.3	4	-1E+10	1	-1E+10	1	-1E+10	1	-1E+10	1	-1E+10	1	-1E+10	1
4902549	82	C	11/18/2022	10:10	-132.975	47.243	0	207.60	0	6.7100	0	33.7980	0	26.514	0	205.769	0	145.4	4	48.8	4	-1E+10	1	-1E+10	1	-1E+10	1	-1E+10	1	-1E+10	1	-1E+10	1
4902549	82	C	11/18/2022	10:10	-132.975	47.243	0	208.70	0	6.6990	0	33.8020	0	26.518	0	206.859	0	144.4	4	48.4	4	-1E+10	1	-1E+10	1	-1E+10	1	-1E+10	1	-1E+10	1	-1E+10	1
4902549	82	C	11/18/2022	10:10	-132.975	47.243	0	209.80	0	6.6810	0	33.8080	0	26.525	0	207.948	0	143.7	4	48.2	4	-1E+10	1	-1E+10	1	-1E+10	1	-1E+10	1	-1E+10	1	-1E+10	1
4902549	82	C	11/18/2022	10:10	-132.975	47.243	0	210.90	0	6.6770	0	33.8080	0	26.526	0	209.038	0	143.2	4	48.0	4	-1E+10	1	-1E+10	1	-1E+10	1	-1E+10	1	-1E+10	1	-1E+10	1
4902549	82	C	11/18/2022	10:10	-132.975	47.243	0	212.00	0	6.6730	0	33.8100	0	26.528	0	210.128	0	142.9	4	47.9	4	-1E+10	1	-1E+10	1	-1E+10	1	-1E+10	1	-1E+10	1	-1E+10	1
4902549	82	C	11/18/2022	10:10	-132.975	47.243	0	213.00	0	6.6720	0	33.8120	0	26.530	0	211.118	0	142.9	4	47.9	4	-1E+10	1	-1E+10	1	-1E+10	1	-1E+10	1	-1E+10	1	-1E+10	1
4902549	82	C	11/18/2022	10:10	-132.975	47.243	0	214.10	0	6.6670	0	33.8140	0	26.532	0	212.208	0	143.2	4	48.0	4	-1E+10	1	-1E+10	1	-1E+10	1	-1E+10	1	-1E+10	1	-1E+10	1
4902549	82	C	11/18/2022	10:10	-132.975	47.243	0	215.20	0	6.6420	0	33.8150	0	26.536	0	213.298	0	143.6	4	48.1	4	-1E+10	1	-1E+10	1	-1E+10	1	-1E+10	1	-1E+10	1	-1E+10	1
4902549	82	C	11/18/2022	10:10	-132.975	47.243	0	216.30	0	6.6390	0	33.8150	0	26.537	0	214.388	0	143.8	4	48.2	4	-1E+10	1	-1E+10	1	-1E+10	1	-1E+10	1	-1E+10	1	-1E+10	1
4902549	82	C	11/18/2022	10:10	-132.975	47.243	0	217.30	0	6.6260	0	33.8120	0	26.536	0	215.378	0	144.0	4	48.2	4	-1E+10	1	-1E+10	1	-1E+10	1	-1E+10	1	-1E+10	1	-1E+10	1
4902549	82	C	11/18/2022	10:10	-132.975	47.243	0	218.40	0	6.6150	0	33.8110	0	26.537	0	216.468	0	144.0	4	48.2	4	-1E+10	1	-1E+10	1	-1E+10	1	-1E+10	1	-1E+10	1	-1E+10	1
4902549	82	C	11/18/2022	10:10	-132.975	47.243	0	219.50	0	6.5910	0	33.8100	0	26.539	0	217.558	0	143.8	4	48.1	4	-1E+10	1	-1E+10	1	-1E+10	1	-1E+10	1	-1E+10	1	-1E+10	1
4902549	82	C	11/18/2022	10:10	-132.975	47.243	0	220.60	0	6.5880	0	33.8100	0	26.539	0	218.647	0	143.5	4	48.0	4	-1E+10	1	-1E+10	1	-1E+10	1	-1E+10	1	-1E+10	1	-1E+10	1
4902549	82	C	11/18/2022	10:10	-132.975	47.243	0	221.70	0	6.5890	0	33.8120	0	26.541	0	219.737	0	143.3	4	48.0	4	-1E+10	1	-1E+10	1	-1E+10	1	-1E+10	1	-1E+10	1	-1E+10	1
4902549	82	C	11/18/2022	10:10	-132.975	47.243	0	222.80	0	6.5870	0	33.8130	0	26.542	0	220.827	0	143.3	4	48.0	4	-1E+10	1	-1E+10	1	-1E+10	1	-1E+10	1	-1E+10	1	-1E+10	1
4902549	82	C	11/18/2022	10:10	-132.975	47.243	0	223.90	0	6.5890	0	33.8130	0	26.542	0	221.916	0	143.5	4	48.0	4	-1E+10	1	-1E+10	1	-1E+10	1	-1E+10	1	-1E+10	1	-1E+10	1
4902549	82	C	11/18/2022	10:10	-132.975	47.243	0	225.00	0	6.5860	0	33.8130	0	26.542	0	223.006	0	143.6	4	48.0	4	-1E+10	1	-1E+10	1	-1E+10	1	-1E+10	1	-1E+10	1	-1E+10	1
4902549	82	C	11/18/2022	10:10	-132.975	47.243	0	226.00	0	6.5420	0	33.8100	0	26.546	0	223.997	0	143.5	4	48.0	4	-1E+10	1	-1E+10	1	-1E+10	1	-1E+10	1	-1E+10	1	-1E+10	1
4902549	82	C	11/18/2022	10:10	-132.975	47.243	0	227.10	0	6.5280	0	33.8090	0	26.547	0	225.086	0	143.2	4	47.8	4	-1E+10	1	-1E+10	1	-1E+10	1	-1E+10	1	-1E+10	1	-1E+10	1
4902549	82	C	11/18/2022	10:10	-132.975	47.243	0	228.20	0	6.5120	0	33.8060	0	26.546	0	226.176	0	142.7	4	47.7	4	-1E+10	1	-1E+10	1	-1E+10	1	-1E+10	1	-1E+10	1	-1E+10	1
4902549	82	C	11/18/2022	10:10	-132.975	47.243	0	229.30	0	6.4640	0	33.8120	0	26.557	0	227.265	0	142.1	4	47.4	4	-1E+10	1	-1E+10	1	-1E+10	1	-1E+10	1	-1E+10	1	-1E+10	1
4902549	82	C	11/18/2022	10:10	-132.975	47.243	0	230.40	0	6.4220	0	33.8060	0	26.558	0	228.355	0	141.3	4	47.1	4	-1E+10	1	-1E+10	1	-1E+10	1	-1E+10	1	-1E+10	1	-1E+10	1
4902549	82	C	11/18/2022	10:10	-132.975	47.243	0	231.40	0	6.3760	0	33.8070	0	26.565	0	229.346	0	140.4	4	46.7	4	-1E+10	1	-1E+10	1	-1E+10	1	-1E+10	1	-1E+10	1	-1E+10	1
4902549	82	C	11/18/2022	10:10	-132.975	47.243	0	232.50	0	6.3730	0	33.8080	0	26.566	0	230.435	0	139.2	4	46.3	4	-1E+10	1	-1E+10	1	-1E+10	1	-1E+10	1	-1E+10	1	-1E+10	1
4902549	82	C	11/18/2022	10:10	-132.975	47.243	0	233.60	0	6.3630	0	33.8090	0	26.568	0	231.525	0	138.0	4	45.9	4	-1E+10	1	-1E+10	1	-1E+10	1	-1E+10	1	-1E+10	1	-1E+10	1
4902549	82	C	11/18/2022	10:10	-132.975	47.243	0	234.70	0	6.3560	0	33.8090	0	26.569	0	232.615	0	136.7	4	45.5	4	-1E+10	1	-1E+10	1	-1E+10	1	-1E+10	1	-1E+10	1	-1E+10	1
4902549	82	C	11/18/2022	10:10	-132.975	47.243	0	235.80	0	6.3470	0	33.8140	0	26.574	0	233.704	0	135.7	4	45.2	4	-1E+10	1	-1E+10	1	-1E+10	1	-1E+10	1	-1E+10	1	-1E+10	1
4902549	82	C	11/18/2022	10:10	-132.975	47.243	0	236.80	0	6.3440	0	33.8150	0	26.575	0	234.695	0	134.6	4	44.8	4	-1E+10	1	-1E+10	1	-1E+10	1	-1E+10	1	-1E+10	1	-1E+10	1
4902549	82	C	11/18/2022	10:10	-132.975	47.243	0	237.90	0	6.3380	0	33.8150	0	26.576	0	235.784	0	133.5	4	44.4	4	-1E+10	1	-1E+10	1	-1E+10	1	-1E+10	1	-1E+10	1	-1E+10	1
4902549	82	C	11/18/2022	10:10	-132.975	47.243	0	239.00	0	6.3320	0	33.8160	0	26.578	0	236.874	0	132.2	4	44.0	4	-1E+10	1	-1E+10	1	-1E+10	1	-1E+10	1	-1E+10	1	-1E+10	1
4902549	82	C	11/18/2022	10:10	-132.975	47.243	0	240.00	0	6.3320	0	33.8180	0	26.579	0	237.864	0	131.0	4	43.6	4	-1E+10	1	-1E+10	1	-1E+10	1	-1E+10	1	-1E+10	1	-1E+10	1
4902549	82	C	11/18/2022	10:10	-132.975	47.243	0	241.10	0	6.3250	0	33.8240	0	26.585	0	238.954	0	130.1	4	43.3	4	-1E+10	1	-1E+10	1	-1E+10	1	-1E+10	1	-1E+10	1	-1E+10	1
4902549	82	C	11/18/2022	10:10	-132.975	47.243	0	242.20	0	6.3210	0	33.8240	0	26.585	0	240.044	0	129.1	4	42.9	4	-1E+10	1	-1E+10	1	-1E+10	1	-1E+10	1	-1E+10	1	-1E+10	1
4902549	82	C	11/18/2022	10:10	-132.975	47.243	0	243.20	0	6.3200	0	33.8240	0	26.586	0	241.034	0	127.9	4	42.6	4	-1E+10	1	-1E+10	1	-1E+10	1	-1E+10	1	-1E+10	1	-1E+10	1
4902549	82	C	11/18/2022	10:10	-132.975	47.243	0	244.20	0	6.3170	0	33.8240	0	26.586	0	242.025	0	126.7	4	42.1	4	-1E+10	1	-1E+10	1	-1E+10	1	-1E+10	1	-1E+10	1	-1E+10	1
4902549	82	C	11/18/2022	10:10	-132.975	47.243	0	245.30	0	6.3140	0	33.8260	0	26.588	0	243.114	0	125.4	4	41.7	4	-1E+10	1	-1E+10	1	-1E+10	1	-1E+10	1	-1E+10	1	-1E+10	1
4902549	82	C	11/18/2022	10:10	-132.975	47.243	0	246.30	0	6.3050	0	33.8320	0	26.594	0	244.105	0	124.4	4	41.4	4	-1E+10	1	-1E+10	1	-1E+10	1	-1E+10	1	-1E+10	1	-1E+10	1
4902549	82	C	11/18/2022	10:10	-132.975	47.243	0	247.30	0	6.3010	0	33.8310	0	26.594	0	245.095	0	123.4	4	41.0	4	-1E+10	1	-1E+10	1	-1E+10	1	-1E+10	1	-1E+10	1	-1E+10	1
4902549	82	C	11/18/2022	10:10	-132.975	47.243	0	248.30	0	6.2960	0	33.8330	0	26.596	0	246.086	0	122.3	4	40.7	4	-1E+10	1	-1E+10	1	-1E+10	1	-1E+10	1	-1E+10	1	-1E+10	1
4902549	82	C	11/18/2022	10:10	-132.975	47.243	0	249.30	0	6.2850	0	33.8350	0	26.599	0	247.076	0	121.3	4	40.3	4	-1E+10	1	-1E+10	1	-1E+10	1	-1E+10	1	-1E+10	1	-1E+10	1
4902549	82	C	11/18/2022	10:10	-132.975	47.243	0	250.30	0	6.2820	0	33.8350	0	26.599	0	248.067	0	120.0	4	39.9	4	-1E+10	1	-1E+10	1	-1E+10	1	-1E+10	1	-1E+10	1	-1E+10	1
4902549	82	C	11/18/2022	10:10	-132.975	47.243	0	251.10	0	6.2830	0	33.8360	0	26.600	0	248.859	0	118.9	4	39.5	4	-1E+10	1	-1E+10	1	-1E+10	1	-1E+10	1	-1E+10	1	-1E+10	1
4902549	82	C	11/18/2022	10:10	-132.975	47.243	0	251.90	0	6.2840	0	33.8370	0	26.601	0	249.651	0	117.7	4	39.1	4	-1E+10	1	-1E+10	1	-1E+10	1	-1E+10	1	-1E+10	1	-1E+10	1
4902549	82	C	11/18/2022	10:10	-132.975	47.243	0	253.00	0	6.2890	0	33.8420	0	26.604	0	250.741	0	116.2	4	38.6	4	-1E+10	1	-1E+10	1	-1E+10	1	-1E+10	1	-1E+10	1	-1E+10	1
4902549	82	C	11/18/2022	10:10	-132.975	47.243	0	254.10	0	6.2850	0	33.8450	0	26.607	0	251.830	0	115.0	4	38.2	4	-1E+10	1	-1E+10	1	-1E+10	1	-1E+10	1	-1E+10	1	-1E+10	1
4902549	82	C	11/18/2022	10:10	-132.975	47.243	0	254.90	0	6.2800	0	33.8480	0	26.610	0	252.623	0	114.2	4	38.0	4	-1E+10	1	-1E+10	1	-1E+10	1	-1E+10	1	-1E+10	1	-1E+10	1
4902549	82	C	11/18/2022	10:10	-132.975	47.243	0	256.00	0	6.2740	0	33.8490	0	26.611	0	253.712	0	113.0	4	37.6	4	-1E+10	1	-1E+10	1	-1E+10	1	-1E+10	1	-1E+10	1	-1E+10	1
4902549	82	C	11/18/2022	10:10	-132.975	47.243	0	257.20	0	6.2690	0	33.8490	0	26.612	0	254.901	0	111.7	4	37.1	4	-1E+10	1	-1E+10	1	-1E+10	1	-1E+10	1	-1E+10	1	-1E+10	1
4902549	82	C	11/18/2022	10:10	-132.975	47.243	0	257.90	0	6.2730	0	33.8530	0	26.615	0	255.594	0	111.0	4	36.9	4	-1E+10	1	-1E+10	1	-1E+10	1	-1E+10	1	-1E+10	1	-1E+10	1
4902549	82	C	11/18/2022	10:10	-132.975	47.243	0	259.00	0	6.2610	0	33.8570	0	26.619	0	256.684	0	110.0	4	36.6	4	-1E+10	1	-1E+10	1	-1E+10	1	-1E+10	1	-1E+10	1	-1E+10	1
4902549	82	C	11/18/2022	10:10	-132.975	47.243	0	260.20	0	6.2590	0	33.8580	0	26.620	0	257.872	0	109.0	4	36.2	4	-1E+10	1	-1E+10	1	-1E+10	1	-1E+10	1	-1E+10	1	-1E+10	1
4902549	82	C	11/18/2022	10:10	-132.975	47.243	0	260.90	0	6.2580	0	33.8590	0	26.621	0	258.565	0	108.3	4	36.0	4	-1E+10	1	-1E+10	1	-1E+10	1	-1E+10	1	-1E+10	1	-1E+10	1
4902549	82	C	11/18/2022	10:10	-132.975	47.243	0	261.70	0	6.2540	0	33.8590	0	26.622	0	259.358	0	107.6	4	35.7	4	-1E+10	1	-1E+10	1	-1E+10	1	-1E+10	1	-1E+10	1	-1E+10	1
4902549	82	C	11/18/2022	10:10	-132.975	47.243	0	262.80	0	6.2440	0	33.8590	0	26.623	0	260.447	0	106.4	4	35.3	4	-1E+10	1	-1E+10	1	-1E+10	1	-1E+10	1	-1E+10	1	-1E+10	1
4902549	82	C	11/18/2022	10:10	-132.975	47.243	0	264.00	0	6.2040	0	33.8600	0	26.629	0	261.636	0	105.2	4	34.9	4	-1E+10	1	-1E+10	1	-1E+10	1	-1E+10	1	-1E+10	1	-1E+10	1
4902549	82	C	11/18/2022	10:10	-132.975	47.243	0	264.80	0	6.1260	0	33.8650	0	26.643	0	262.428	0	104.4	4	34.6	4	-1E+10	1	-1E+10	1	-1E+10	1	-1E+10	1	-1E+10	1	-1E+10	1
4902549	82	C	11/18/2022	10:10	-132.975	47.243	0	265.90	0	6.1260	0	33.8650	0	26.643	0	263.517	0	103.1	4	34.2	4	-1E+10	1	-1E+10	1	-1E+10	1	-1E+10	1	-1E+10	1	-1E+10	1
4902549	82	C	11/18/2022	10:10	-132.975	47.243	0	267.10	0	6.1410	0	33.8670	0	26.643	0	264.706	0	101.8	4	33.7	4	-1E+10	1	-1E+10	1	-1E+10	1	-1E+10	1	-1E+10	1	-1E+10	1
4902549	82	C	11/18/2022	10:10	-132.975	47.243	0	267.90	0	6.1570	0	33.8710	0	26.644	0	265.498	0	100.9	4	33.4	4	-1E+10	1	-1E+10	1	-1E+10	1	-1E+10	1	-1E+10	1	-1E+10	1
4902549	82	C	11/18/2022	10:10	-132.975	47.243	0	268.70	0	6.1650	0	33.8740	0	26.645	0	266.291	0	100.1	4	33.2	4	-1E+10	1	-1E+10	1	-1E+10	1	-1E+10	1	-1E+10	1	-1E+10	1
4902549	82	C	11/18/2022	10:10	-132.975	47.243	0	269.90	0	6.1500	0	33.8810	0	26.653	0	267.479	0	99.3	4	32.9	4	-1E+10	1	-1E+10	1	-1E+10	1	-1E+10	1	-1E+10	1	-1E+10	1
4902549	82	C	11/18/2022	10:10	-132.975	47.243	0	271.10	0	6.1410	0	33.8820	0	26.655	0	268.667	0	98.7	4	32.7	4	-1E+10	1	-1E+10	1	-1E+10	1	-1E+10	1	-1E+10	1	-1E+10	1
4902549	82	C	11/18/2022	10:10	-132.975	47.243	0	271.90	0	6.1400	0	33.8820	0	26.655	0	269.460	0	98.2	4	32.5	4	-1E+10	1	-1E+10	1	-1E+10	1	-1E+10	1	-1E+10	1	-1E+10	1
4902549	82	C	11/18/2022	10:10	-132.975	47.243	0	272.70	0	6.1230	0	33.8860	0	26.660	0	270.252	0	97.9	4	32.4	4	-1E+10	1	-1E+10	1	-1E+10	1	-1E+10	1	-1E+10	1	-1E+10	1
4902549	82	C	11/18/2022	10:10	-132.975	47.243	0	273.90	0	6.1080	0	33.8860	0	26.662	0	271.440	0	97.4	4	32.3	4	-1E+10	1	-1E+10	1	-1E+10	1	-1E+10	1	-1E+10	1	-1E+10	1
4902549	82	C	11/18/2022	10:10	-132.975	47.243	0	275.20	0	6.1020	0	33.8860	0	26.663	0	272.728	0	97.0	4	32.1	4	-1E+10	1	-1E+10	1	-1E+10	1	-1E+10	1	-1E+10	1	-1E+10	1
4902549	82	C	11/18/2022	10:10	-132.975	47.243	0	276.00	0	6.0890	0	33.8870	0	26.665	0	273.520	0	96.6	4	32.0	4	-1E+10	1	-1E+10	1	-1E+10	1	-1E+10	1	-1E+10	1	-1E+10	1
4902549	82	C	11/18/2022	10:10	-132.975	47.243	0	276.80	0	6.0840	0	33.8860	0	26.665	0	274.313	0	96.3	4	31.9	4	-1E+10	1	-1E+10	1	-1E+10	1	-1E+10	1	-1E+10	1	-1E+10	1
4902549	82	C	11/18/2022	10:10	-132.975	47.243	0	277.60	0	6.0690	0	33.8860	0	26.667	0	275.105	0	95.9	4	31.7	4	-1E+10	1	-1E+10	1	-1E+10	1	-1E+10	1	-1E+10	1	-1E+10	1
4902549	82	C	11/18/2022	10:10	-132.975	47.243	0	278.90	0	6.0420	0	33.8880	0	26.672	0	276.392	0	95.3	4	31.5	4	-1E+10	1	-1E+10	1	-1E+10	1	-1E+10	1	-1E+10	1	-1E+10	1
4902549	82	C	11/18/2022	10:10	-132.975	47.243	0	280.10	0	6.0090	0	33.8900	0	26.678	0	277.581	0	94.9	4	31.4	4	-1E+10	1	-1E+10	1	-1E+10	1	-1E+10	1	-1E+10	1	-1E+10	1
4902549	82	C	11/18/2022	10:10	-132.975	47.243	0	281.00	0	6.0050	0	33.8890	0	26.677	0	278.472	0	94.6	4	31.3	4	-1E+10	1	-1E+10	1	-1E+10	1	-1E+10	1	-1E+10	1	-1E+10	1
4902549	82	C	11/18/2022	10:10	-132.975	47.243	0	281.90	0	5.9940	0	33.8900	0	26.679	0	279.363	0	94.4	4	31.2	4	-1E+10	1	-1E+10	1	-1E+10	1	-1E+10	1	-1E+10	1	-1E+10	1
4902549	82	C	11/18/2022	10:10	-132.975	47.243	0	282.70	0	5.9830	0	33.8900	0	26.681	0	280.156	0	94.1	4	31.1	4	-1E+10	1	-1E+10	1	-1E+10	1	-1E+10	1	-1E+10	1	-1E+10	1
4902549	82	C	11/18/2022	10:10	-132.975	47.243	0	284.00	0	5.9700	0	33.8900	0	26.682	0	281.443	0	93.7	4	30.9	4	-1E+10	1	-1E+10	1	-1E+10	1	-1E+10	1	-1E+10	1	-1E+10	1
4902549	82	C	11/18/2022	10:10	-132.975	47.243	0	285.30	0	5.9510	0	33.8910	0	26.686	0	282.730	0	93.3	4	30.8	4	-1E+10	1	-1E+10	1	-1E+10	1	-1E+10	1	-1E+10	1	-1E+10	1
4902549	82	C	11/18/2022	10:10	-132.975	47.243	0	286.10	0	5.9410	0	33.8920	0	26.688	0	283.523	0	93.0	4	30.7	4	-1E+10	1	-1E+10	1	-1E+10	1	-1E+10	1	-1E+10	1	-1E+10	1
4902549	82	C	11/18/2022	10:10	-132.975	47.243	0	287.00	0	5.9300	0	33.8920	0	26.689	0	284.414	0	92.7	4	30.6	4	-1E+10	1	-1E+10	1	-1E+10	1	-1E+10	1	-1E+10	1	-1E+10	1
4902549	82	C	11/18/2022	10:10	-132.975	47.243	0	287.90	0	5.9270	0	33.8920	0	26.689	0	285.305	0	92.4	4	30.5	4	-1E+10	1	-1E+10	1	-1E+10	1	-1E+10	1	-1E+10	1	-1E+10	1
4902549	82	C	11/18/2022	10:10	-132.975	47.243	0	288.80	0	5.9210	0	33.8940	0	26.692	0	286.196	0	92.2	4	30.4	4	-1E+10	1	-1E+10	1	-1E+10	1	-1E+10	1	-1E+10	1	-1E+10	1
4902549	82	C	11/18/2022	10:10	-132.975	47.243	0	289.70	0	5.9100	0	33.8930	0	26.692	0	287.088	0	92.0	4	30.3	4	-1E+10	1	-1E+10	1	-1E+10	1	-1E+10	1	-1E+10	1	-1E+10	1
4902549	82	C	11/18/2022	10:10	-132.975	47.243	0	290.90	0	5.8970	0	33.8930	0	26.694	0	288.276	0	91.7	4	30.2	4	-1E+10	1	-1E+10	1	-1E+10	1	-1E+10	1	-1E+10	1	-1E+10	1
4902549	82	C	11/18/2022	10:10	-132.975	47.243	0	292.30	0	5.8820	0	33.8930	0	26.696	0	289.662	0	91.4	4	30.1	4	-1E+10	1	-1E+10	1	-1E+10	1	-1E+10	1	-1E+10	1	-1E+10	1
4902549	82	C	11/18/2022	10:10	-132.975	47.243	0	293.20	0	5.8600	0	33.8950	0	26.700	0	290.554	0	91.0	4	30.0	4	-1E+10	1	-1E+10	1	-1E+10	1	-1E+10	1	-1E+10	1	-1E+10	1
4902549	82	C	11/18/2022	10:10	-132.975	47.243	0	294.10	0	5.8450	0	33.8900	0	26.698	0	291.445	0	90.6	4	29.8	4	-1E+10	1	-1E+10	1	-1E+10	1	-1E+10	1	-1E+10	1	-1E+10	1
4902549	82	C	11/18/2022	10:10	-132.975	47.243	0	295.00	0	5.8360	0	33.8890	0	26.698	0	292.336	0	90.1	4	29.7	4	-1E+10	1	-1E+10	1	-1E+10	1	-1E+10	1	-1E+10	1	-1E+10	1
4902549	82	C	11/18/2022	10:10	-132.975	47.243	0	295.90	0	5.8350	0	33.8890	0	26.699	0	293.227	0	89.7	4	29.5	4	-1E+10	1	-1E+10	1	-1E+10	1	-1E+10	1	-1E+10	1	-1E+10	1
4902549	82	C	11/18/2022	10:10	-132.975	47.243	0	296.80	0	5.8370	0	33.8930	0	26.701	0	294.119	0	89.3	4	29.4	4	-1E+10	1	-1E+10	1	-1E+10	1	-1E+10	1	-1E+10	1	-1E+10	1
4902549	82	C	11/18/2022	10:10	-132.975	47.243	0	297.70	0	5.8360	0	33.8940	0	26.702	0	295.010	0	88.9	4	29.3	4	-1E+10	1	-1E+10	1	-1E+10	1	-1E+10	1	-1E+10	1	-1E+10	1
4902549	82	C	11/18/2022	10:10	-132.975	47.243	0	298.60	0	5.8390	0	33.8950	0	26.703	0	295.901	0	88.5	4	29.1	4	-1E+10	1	-1E+10	1	-1E+10	1	-1E+10	1	-1E+10	1	-1E+10	1
4902549	82	C	11/18/2022	10:10	-132.975	47.243	0	299.90	0	5.8440	0	33.8970	0	26.704	0	297.188	0	87.9	4	28.9	4	-1E+10	1	-1E+10	1	-1E+10	1	-1E+10	1	-1E+10	1	-1E+10	1
4902549	82	C	11/18/2022	10:10	-132.975	47.243	0	301.30	0	5.8360	0	33.8990	0	26.706	0	298.575	0	87.3	4	28.7	4	-1E+10	1	-1E+10	1	-1E+10	1	-1E+10	1	-1E+10	1	-1E+10	1
4902549	82	C	11/18/2022	10:10	-132.975	47.243	0	302.20	0	5.8160	0	33.8970	0	26.707	0	299.466	0	86.8	4	28.6	4	-1E+10	1	-1E+10	1	-1E+10	1	-1E+10	1	-1E+10	1	-1E+10	1
4902549	82	C	11/18/2022	10:10	-132.975	47.243	0	303.10	0	5.8160	0	33.8980	0	26.708	0	300.357	0	86.4	4	28.4	4	-1E+10	1	-1E+10	1	-1E+10	1	-1E+10	1	-1E+10	1	-1E+10	1
4902549	82	C	11/18/2022	10:10	-132.975	47.243	0	304.00	0	5.8220	0	33.8980	0	26.707	0	301.248	0	86.0	4	28.3	4	-1E+10	1	-1E+10	1	-1E+10	1	-1E+10	1	-1E+10	1	-1E+10	1
4902549	82	C	11/18/2022	10:10	-132.975	47.243	0	305.00	0	5.7930	0	33.9000	0	26.712	0	302.239	0	85.6	4	28.1	4	-1E+10	1	-1E+10	1	-1E+10	1	-1E+10	1	-1E+10	1	-1E+10	1
4902549	82	C	11/18/2022	10:10	-132.975	47.243	0	305.90	0	5.7620	0	33.9000	0	26.716	0	303.130	0	85.2	4	28.0	4	-1E+10	1	-1E+10	1	-1E+10	1	-1E+10	1	-1E+10	1	-1E+10	1
4902549	82	C	11/18/2022	10:10	-132.975	47.243	0	306.90	0	5.7480	0	33.9010	0	26.719	0	304.120	0	84.8	4	27.9	4	-1E+10	1	-1E+10	1	-1E+10	1	-1E+10	1	-1E+10	1	-1E+10	1
4902549	82	C	11/18/2022	10:10	-132.975	47.243	0	307.80	0	5.7450	0	33.9010	0	26.719	0	305.011	0	84.4	4	27.7	4	-1E+10	1	-1E+10	1	-1E+10	1	-1E+10	1	-1E+10	1	-1E+10	1
4902549	82	C	11/18/2022	10:10	-132.975	47.243	0	308.80	0	5.7400	0	33.9030	0	26.721	0	306.001	0	84.0	4	27.6	4	-1E+10	1	-1E+10	1	-1E+10	1	-1E+10	1	-1E+10	1	-1E+10	1
4902549	82	C	11/18/2022	10:10	-132.975	47.243	0	309.70	0	5.7390	0	33.9040	0	26.722	0	306.893	0	83.6	4	27.4	4	-1E+10	1	-1E+10	1	-1E+10	1	-1E+10	1	-1E+10	1	-1E+10	1
4902549	82	C	11/18/2022	10:10	-132.975	47.243	0	310.60	0	5.7350	0	33.9040	0	26.723	0	307.784	0	83.2	4	27.3	4	-1E+10	1	-1E+10	1	-1E+10	1	-1E+10	1	-1E+10	1	-1E+10	1
4902549	82	C	11/18/2022	10:10	-132.975	47.243	0	311.60	0	5.7330	0	33.9040	0	26.723	0	308.774	0	82.8	4	27.2	4	-1E+10	1	-1E+10	1	-1E+10	1	-1E+10	1	-1E+10	1	-1E+10	1
4902549	82	C	11/18/2022	10:10	-132.975	47.243	0	312.60	0	5.7330	0	33.9040	0	26.723	0	309.764	0	82.3	4	27.0	4	-1E+10	1	-1E+10	1	-1E+10	1	-1E+10	1	-1E+10	1	-1E+10	1
4902549	82	C	11/18/2022	10:10	-132.975	47.243	0	313.50	0	5.7310	0	33.9070	0	26.726	0	310.655	0	81.8	4	26.9	4	-1E+10	1	-1E+10	1	-1E+10	1	-1E+10	1	-1E+10	1	-1E+10	1
4902549	82	C	11/18/2022	10:10	-132.975	47.243	0	314.50	0	5.7270	0	33.9070	0	26.726	0	311.645	0	81.4	4	26.7	4	-1E+10	1	-1E+10	1	-1E+10	1	-1E+10	1	-1E+10	1	-1E+10	1
4902549	82	C	11/18/2022	10:10	-132.975	47.243	0	315.90	0	5.7140	0	33.9110	0	26.731	0	313.032	0	81.0	4	26.6	4	-1E+10	1	-1E+10	1	-1E+10	1	-1E+10	1	-1E+10	1	-1E+10	1
4902549	82	C	11/18/2022	10:10	-132.975	47.243	0	317.40	0	5.7000	0	33.9110	0	26.733	0	314.517	0	80.8	4	26.5	4	-1E+10	1	-1E+10	1	-1E+10	1	-1E+10	1	-1E+10	1	-1E+10	1
4902549	82	C	11/18/2022	10:10	-132.975	47.243	0	318.40	0	5.6890	0	33.9110	0	26.734	0	315.507	0	80.5	4	26.4	4	-1E+10	1	-1E+10	1	-1E+10	1	-1E+10	1	-1E+10	1	-1E+10	1
4902549	82	C	11/18/2022	10:10	-132.975	47.243	0	319.30	0	5.6840	0	33.9100	0	26.734	0	316.398	0	80.1	4	26.3	4	-1E+10	1	-1E+10	1	-1E+10	1	-1E+10	1	-1E+10	1	-1E+10	1
4902549	82	C	11/18/2022	10:10	-132.975	47.243	0	320.30	0	5.6740	0	33.9120	0	26.737	0	317.388	0	79.7	4	26.1	4	-1E+10	1	-1E+10	1	-1E+10	1	-1E+10	1	-1E+10	1	-1E+10	1
4902549	82	C	11/18/2022	10:10	-132.975	47.243	0	321.30	0	5.6730	0	33.9100	0	26.735	0	318.378	0	79.3	4	26.0	4	-1E+10	1	-1E+10	1	-1E+10	1	-1E+10	1	-1E+10	1	-1E+10	1
4902549	82	C	11/18/2022	10:10	-132.975	47.243	0	322.30	0	5.6670	0	33.9100	0	26.736	0	319.369	0	78.8	4	25.8	4	-1E+10	1	-1E+10	1	-1E+10	1	-1E+10	1	-1E+10	1	-1E+10	1
4902549	82	C	11/18/2022	10:10	-132.975	47.243	0	323.20	0	5.6580	0	33.9110	0	26.738	0	320.260	0	78.4	4	25.7	4	-1E+10	1	-1E+10	1	-1E+10	1	-1E+10	1	-1E+10	1	-1E+10	1
4902549	82	C	11/18/2022	10:10	-132.975	47.243	0	324.20	0	5.6320	0	33.9110	0	26.741	0	321.250	0	78.0	4	25.5	4	-1E+10	1	-1E+10	1	-1E+10	1	-1E+10	1	-1E+10	1	-1E+10	1
4902549	82	C	11/18/2022	10:10	-132.975	47.243	0	325.20	0	5.6420	0	33.9140	0	26.742	0	322.240	0	77.7	4	25.4	4	-1E+10	1	-1E+10	1	-1E+10	1	-1E+10	1	-1E+10	1	-1E+10	1
4902549	82	C	11/18/2022	10:10	-132.975	47.243	0	326.10	0	5.6400	0	33.9150	0	26.743	0	323.131	0	77.4	4	25.3	4	-1E+10	1	-1E+10	1	-1E+10	1	-1E+10	1	-1E+10	1	-1E+10	1
4902549	82	C	11/18/2022	10:10	-132.975	47.243	0	327.10	0	5.6200	0	33.9160	0	26.746	0	324.121	0	77.1	4	25.3	4	-1E+10	1	-1E+10	1	-1E+10	1	-1E+10	1	-1E+10	1	-1E+10	1
4902549	82	C	11/18/2022	10:10	-132.975	47.243	0	328.00	0	5.6170	0	33.9160	0	26.747	0	325.012	0	76.8	4	25.1	4	-1E+10	1	-1E+10	1	-1E+10	1	-1E+10	1	-1E+10	1	-1E+10	1
4902549	82	C	11/18/2022	10:10	-132.975	47.243	0	329.00	0	5.6150	0	33.9140	0	26.745	0	326.002	0	76.4	4	25.0	4	-1E+10	1	-1E+10	1	-1E+10	1	-1E+10	1	-1E+10	1	-1E+10	1
4902549	82	C	11/18/2022	10:10	-132.975	47.243	0	329.90	0	5.5930	0	33.9130	0	26.747	0	326.893	0	76.0	4	24.9	4	-1E+10	1	-1E+10	1	-1E+10	1	-1E+10	1	-1E+10	1	-1E+10	1
4902549	82	C	11/18/2022	10:10	-132.975	47.243	0	330.90	0	5.5890	0	33.9150	0	26.749	0	327.884	0	75.4	4	24.7	4	-1E+10	1	-1E+10	1	-1E+10	1	-1E+10	1	-1E+10	1	-1E+10	1
4902549	82	C	11/18/2022	10:10	-132.975	47.243	0	331.80	0	5.5910	0	33.9160	0	26.750	0	328.775	0	74.9	4	24.5	4	-1E+10	1	-1E+10	1	-1E+10	1	-1E+10	1	-1E+10	1	-1E+10	1
4902549	82	C	11/18/2022	10:10	-132.975	47.243	0	332.80	0	5.6020	0	33.9170	0	26.749	0	329.765	0	74.5	4	24.4	4	-1E+10	1	-1E+10	1	-1E+10	1	-1E+10	1	-1E+10	1	-1E+10	1
4902549	82	C	11/18/2022	10:10	-132.975	47.243	0	333.70	0	5.5920	0	33.9220	0	26.755	0	330.656	0	74.1	4	24.2	4	-1E+10	1	-1E+10	1	-1E+10	1	-1E+10	1	-1E+10	1	-1E+10	1
4902549	82	C	11/18/2022	10:10	-132.975	47.243	0	334.70	0	5.5730	0	33.9210	0	26.756	0	331.646	0	73.7	4	24.1	4	-1E+10	1	-1E+10	1	-1E+10	1	-1E+10	1	-1E+10	1	-1E+10	1
4902549	82	C	11/18/2022	10:10	-132.975	47.243	0	335.60	0	5.5770	0	33.9210	0	26.756	0	332.537	0	73.3	4	24.0	4	-1E+10	1	-1E+10	1	-1E+10	1	-1E+10	1	-1E+10	1	-1E+10	1
4902549	82	C	11/18/2022	10:10	-132.975	47.243	0	336.60	0	5.5730	0	33.9230	0	26.758	0	333.527	0	73.0	4	23.9	4	-1E+10	1	-1E+10	1	-1E+10	1	-1E+10	1	-1E+10	1	-1E+10	1
4902549	82	C	11/18/2022	10:10	-132.975	47.243	0	337.50	0	5.5620	0	33.9240	0	26.760	0	334.418	0	72.7	4	23.8	4	-1E+10	1	-1E+10	1	-1E+10	1	-1E+10	1	-1E+10	1	-1E+10	1
4902549	82	C	11/18/2022	10:10	-132.975	47.243	0	338.90	0	5.5460	0	33.9230	0	26.761	0	335.804	0	72.1	4	23.6	4	-1E+10	1	-1E+10	1	-1E+10	1	-1E+10	1	-1E+10	1	-1E+10	1
4902549	82	C	11/18/2022	10:10	-132.975	47.243	0	340.40	0	5.5390	0	33.9250	0	26.763	0	337.289	0	71.5	4	23.4	4	-1E+10	1	-1E+10	1	-1E+10	1	-1E+10	1	-1E+10	1	-1E+10	1
4902549	82	C	11/18/2022	10:10	-132.975	47.243	0	341.30	0	5.5340	0	33.9260	0	26.765	0	338.180	0	71.2	4	23.3	4	-1E+10	1	-1E+10	1	-1E+10	1	-1E+10	1	-1E+10	1	-1E+10	1
4902549	82	C	11/18/2022	10:10	-132.975	47.243	0	342.30	0	5.5170	0	33.9280	0	26.768	0	339.170	0	70.8	4	23.1	4	-1E+10	1	-1E+10	1	-1E+10	1	-1E+10	1	-1E+10	1	-1E+10	1
4902549	82	C	11/18/2022	10:10	-132.975	47.243	0	343.20	0	5.5010	0	33.9240	0	26.767	0	340.061	0	70.4	4	23.0	4	-1E+10	1	-1E+10	1	-1E+10	1	-1E+10	1	-1E+10	1	-1E+10	1
4902549	82	C	11/18/2022	10:10	-132.975	47.243	0	344.20	0	5.4940	0	33.9250	0	26.769	0	341.051	0	70.0	4	22.9	4	-1E+10	1	-1E+10	1	-1E+10	1	-1E+10	1	-1E+10	1	-1E+10	1
4902549	82	C	11/18/2022	10:10	-132.975	47.243	0	345.10	0	5.4680	0	33.9260	0	26.773	0	341.942	0	69.7	4	22.7	4	-1E+10	1	-1E+10	1	-1E+10	1	-1E+10	1	-1E+10	1	-1E+10	1
4902549	82	C	11/18/2022	10:10	-132.975	47.243	0	346.00	0	5.4550	0	33.9270	0	26.775	0	342.833	0	69.3	4	22.6	4	-1E+10	1	-1E+10	1	-1E+10	1	-1E+10	1	-1E+10	1	-1E+10	1
4902549	82	C	11/18/2022	10:10	-132.975	47.243	0	347.00	0	5.4360	0	33.9310	0	26.780	0	343.823	0	68.8	4	22.4	4	-1E+10	1	-1E+10	1	-1E+10	1	-1E+10	1	-1E+10	1	-1E+10	1
4902549	82	C	11/18/2022	10:10	-132.975	47.243	0	347.90	0	5.4300	0	33.9300	0	26.780	0	344.714	0	68.5	4	22.3	4	-1E+10	1	-1E+10	1	-1E+10	1	-1E+10	1	-1E+10	1	-1E+10	1
4902549	82	C	11/18/2022	10:10	-132.975	47.243	0	348.90	0	5.4330	0	33.9310	0	26.781	0	345.704	0	68.2	4	22.2	4	-1E+10	1	-1E+10	1	-1E+10	1	-1E+10	1	-1E+10	1	-1E+10	1
4902549	82	C	11/18/2022	10:10	-132.975	47.243	0	349.80	0	5.4360	0	33.9330	0	26.782	0	346.595	0	67.9	4	22.2	4	-1E+10	1	-1E+10	1	-1E+10	1	-1E+10	1	-1E+10	1	-1E+10	1
4902549	82	C	11/18/2022	10:10	-132.975	47.243	0	353.00	0	5.4130	0	33.9330	0	26.785	0	349.763	0	66.9	4	21.8	4	-1E+10	1	-1E+10	1	-1E+10	1	-1E+10	1	-1E+10	1	-1E+10	1
4902549	82	C	11/18/2022	10:10	-132.975	47.243	0	358.20	0	5.3720	0	33.9370	0	26.793	0	354.911	0	65.1	4	21.2	4	-1E+10	1	-1E+10	1	-1E+10	1	-1E+10	1	-1E+10	1	-1E+10	1
4902549	82	C	11/18/2022	10:10	-132.975	47.243	0	362.90	0	5.3380	0	33.9400	0	26.799	0	359.564	0	63.5	4	20.7	4	-1E+10	1	-1E+10	1	-1E+10	1	-1E+10	1	-1E+10	1	-1E+10	1
4902549	82	C	11/18/2022	10:10	-132.975	47.243	0	367.60	0	5.2930	0	33.9450	0	26.809	0	364.217	0	61.8	4	20.1	4	-1E+10	1	-1E+10	1	-1E+10	1	-1E+10	1	-1E+10	1	-1E+10	1
4902549	82	C	11/18/2022	10:10	-132.975	47.243	0	372.90	0	5.2560	0	33.9490	0	26.816	0	369.463	0	60.3	4	19.6	4	-1E+10	1	-1E+10	1	-1E+10	1	-1E+10	1	-1E+10	1	-1E+10	1
4902549	82	C	11/18/2022	10:10	-132.975	47.243	0	378.20	0	5.2290	0	33.9520	0	26.822	0	374.710	0	59.1	4	19.2	4	-1E+10	1	-1E+10	1	-1E+10	1	-1E+10	1	-1E+10	1	-1E+10	1
4902549	82	C	11/18/2022	10:10	-132.975	47.243	0	383.00	0	5.2160	0	33.9560	0	26.826	0	379.461	0	58.3	4	18.9	4	-1E+10	1	-1E+10	1	-1E+10	1	-1E+10	1	-1E+10	1	-1E+10	1
4902549	82	C	11/18/2022	10:10	-132.975	47.243	0	387.90	0	5.1890	0	33.9580	0	26.831	0	384.311	0	58.0	4	18.8	4	-1E+10	1	-1E+10	1	-1E+10	1	-1E+10	1	-1E+10	1	-1E+10	1
4902549	82	C	11/18/2022	10:10	-132.975	47.243	0	392.90	0	5.1140	0	33.9530	0	26.836	0	389.260	0	57.1	4	18.5	4	-1E+10	1	-1E+10	1	-1E+10	1	-1E+10	1	-1E+10	1	-1E+10	1
4902549	82	C	11/18/2022	10:10	-132.975	47.243	0	397.90	0	5.1070	0	33.9560	0	26.839	0	394.209	0	55.4	4	17.9	4	-1E+10	1	-1E+10	1	-1E+10	1	-1E+10	1	-1E+10	1	-1E+10	1
4902549	82	C	11/18/2022	10:10	-132.975	47.243	0	402.90	0	5.0590	0	33.9600	0	26.848	0	399.158	0	53.7	4	17.4	4	-1E+10	1	-1E+10	1	-1E+10	1	-1E+10	1	-1E+10	1	-1E+10	1
4902549	82	C	11/18/2022	10:10	-132.975	47.243	0	407.90	0	5.0280	0	33.9680	0	26.858	0	404.107	0	52.6	4	17.0	4	-1E+10	1	-1E+10	1	-1E+10	1	-1E+10	1	-1E+10	1	-1E+10	1
4902549	82	C	11/18/2022	10:10	-132.975	47.243	0	413.00	0	4.9870	0	33.9690	0	26.863	0	409.154	0	51.5	4	16.6	4	-1E+10	1	-1E+10	1	-1E+10	1	-1E+10	1	-1E+10	1	-1E+10	1
4902549	82	C	11/18/2022	10:10	-132.975	47.243	0	418.20	0	4.9580	0	33.9720	0	26.869	0	414.301	0	50.1	4	16.2	4	-1E+10	1	-1E+10	1	-1E+10	1	-1E+10	1	-1E+10	1	-1E+10	1
4902549	82	C	11/18/2022	10:10	-132.975	47.243	0	423.30	0	4.9280	0	33.9770	0	26.876	0	419.348	0	48.5	4	15.6	4	-1E+10	1	-1E+10	1	-1E+10	1	-1E+10	1	-1E+10	1	-1E+10	1
4902549	82	C	11/18/2022	10:10	-132.975	47.243	0	428.20	0	4.9120	0	33.9840	0	26.884	0	424.197	0	46.8	4	15.1	4	-1E+10	1	-1E+10	1	-1E+10	1	-1E+10	1	-1E+10	1	-1E+10	1
4902549	82	C	11/18/2022	10:10	-132.975	47.243	0	433.00	0	4.8990	0	33.9880	0	26.888	0	428.947	0	44.8	4	14.4	4	-1E+10	1	-1E+10	1	-1E+10	1	-1E+10	1	-1E+10	1	-1E+10	1
4902549	82	C	11/18/2022	10:10	-132.975	47.243	0	438.20	0	4.8980	0	33.9970	0	26.896	0	434.093	0	42.8	4	13.8	4	-1E+10	1	-1E+10	1	-1E+10	1	-1E+10	1	-1E+10	1	-1E+10	1
4902549	82	C	11/18/2022	10:10	-132.975	47.243	0	443.00	0	4.8840	0	34.0050	0	26.904	0	438.843	0	41.1	4	13.2	4	-1E+10	1	-1E+10	1	-1E+10	1	-1E+10	1	-1E+10	1	-1E+10	1
4902549	82	C	11/18/2022	10:10	-132.975	47.243	0	448.00	0	4.8470	0	34.0130	0	26.914	0	443.791	0	39.8	4	12.8	4	-1E+10	1	-1E+10	1	-1E+10	1	-1E+10	1	-1E+10	1	-1E+10	1
4902549	82	C	11/18/2022	10:10	-132.975	47.243	0	453.00	0	4.8320	0	34.0170	0	26.919	0	448.738	0	38.6	4	12.4	4	-1E+10	1	-1E+10	1	-1E+10	1	-1E+10	1	-1E+10	1	-1E+10	1
4902549	82	C	11/18/2022	10:10	-132.975	47.243	0	458.10	0	4.8150	0	34.0230	0	26.926	0	453.785	0	37.6	4	12.1	4	-1E+10	1	-1E+10	1	-1E+10	1	-1E+10	1	-1E+10	1	-1E+10	1
4902549	82	C	11/18/2022	10:10	-132.975	47.243	0	463.30	0	4.7690	0	34.0240	0	26.932	0	458.930	0	36.3	4	11.7	4	-1E+10	1	-1E+10	1	-1E+10	1	-1E+10	1	-1E+10	1	-1E+10	1
4902549	82	C	11/18/2022	10:10	-132.975	47.243	0	468.00	0	4.7790	0	34.0330	0	26.938	0	463.581	0	34.8	4	11.2	4	-1E+10	1	-1E+10	1	-1E+10	1	-1E+10	1	-1E+10	1	-1E+10	1
4902549	82	C	11/18/2022	10:10	-132.975	47.243	0	472.70	0	4.7800	0	34.0380	0	26.942	0	468.231	0	34.0	4	10.9	4	-1E+10	1	-1E+10	1	-1E+10	1	-1E+10	1	-1E+10	1	-1E+10	1
4902549	82	C	11/18/2022	10:10	-132.975	47.243	0	477.80	0	4.7660	0	34.0420	0	26.946	0	473.277	0	33.3	4	10.7	4	-1E+10	1	-1E+10	1	-1E+10	1	-1E+10	1	-1E+10	1	-1E+10	1
4902549	82	C	11/18/2022	10:10	-132.975	47.243	0	482.90	0	4.7440	0	34.0440	0	26.950	0	478.323	0	32.7	4	10.5	4	-1E+10	1	-1E+10	1	-1E+10	1	-1E+10	1	-1E+10	1	-1E+10	1
4902549	82	C	11/18/2022	10:10	-132.975	47.243	0	488.00	0	4.7140	0	34.0470	0	26.956	0	483.368	0	32.0	4	10.3	4	-1E+10	1	-1E+10	1	-1E+10	1	-1E+10	1	-1E+10	1	-1E+10	1
4902549	82	C	11/18/2022	10:10	-132.975	47.243	0	492.80	0	4.6870	0	34.0500	0	26.962	0	488.117	0	31.3	4	10.0	4	-1E+10	1	-1E+10	1	-1E+10	1	-1E+10	1	-1E+10	1	-1E+10	1
4902549	82	C	11/18/2022	10:10	-132.975	47.243	0	497.60	0	4.6560	0	34.0510	0	26.966	0	492.866	0	30.4	4	9.8	4	-1E+10	1	-1E+10	1	-1E+10	1	-1E+10	1	-1E+10	1	-1E+10	1
4902549	82	C	11/18/2022	10:10	-132.975	47.243	0	502.80	0	4.6290	0	34.0560	0	26.973	0	498.010	0	29.4	4	9.4	4	-1E+10	1	-1E+10	1	-1E+10	1	-1E+10	1	-1E+10	1	-1E+10	1
4902549	82	C	11/18/2022	10:10	-132.975	47.243	0	507.80	0	4.6200	0	34.0600	0	26.977	0	502.957	0	28.3	4	9.1	4	-1E+10	1	-1E+10	1	-1E+10	1	-1E+10	1	-1E+10	1	-1E+10	1
4902549	82	C	11/18/2022	10:10	-132.975	47.243	0	512.90	0	4.6080	0	34.0650	0	26.982	0	508.002	0	27.0	4	8.7	4	-1E+10	1	-1E+10	1	-1E+10	1	-1E+10	1	-1E+10	1	-1E+10	1
4902549	82	C	11/18/2022	10:10	-132.975	47.243	0	517.90	0	4.5830	0	34.0710	0	26.990	0	512.948	0	25.9	4	8.3	4	-1E+10	1	-1E+10	1	-1E+10	1	-1E+10	1	-1E+10	1	-1E+10	1
4902549	82	C	11/18/2022	10:10	-132.975	47.243	0	522.90	0	4.5450	0	34.0780	0	27.000	0	517.894	0	24.8	4	7.9	4	-1E+10	1	-1E+10	1	-1E+10	1	-1E+10	1	-1E+10	1	-1E+10	1
4902549	82	C	11/18/2022	10:10	-132.975	47.243	0	528.00	0	4.5300	0	34.0830	0	27.005	0	522.939	0	23.5	4	7.5	4	-1E+10	1	-1E+10	1	-1E+10	1	-1E+10	1	-1E+10	1	-1E+10	1
4902549	82	C	11/18/2022	10:10	-132.975	47.243	0	533.00	0	4.5350	0	34.0940	0	27.013	0	527.884	0	22.3	4	7.1	4	-1E+10	1	-1E+10	1	-1E+10	1	-1E+10	1	-1E+10	1	-1E+10	1
4902549	82	C	11/18/2022	10:10	-132.975	47.243	0	538.00	0	4.5160	0	34.0980	0	27.019	0	532.830	0	21.9	4	7.0	4	-1E+10	1	-1E+10	1	-1E+10	1	-1E+10	1	-1E+10	1	-1E+10	1
4902549	82	C	11/18/2022	10:10	-132.975	47.243	0	542.90	0	4.4830	0	34.0980	0	27.022	0	537.676	0	21.2	4	6.8	4	-1E+10	1	-1E+10	1	-1E+10	1	-1E+10	1	-1E+10	1	-1E+10	1
4902549	82	C	11/18/2022	10:10	-132.975	47.243	0	547.80	0	4.4770	0	34.1030	0	27.027	0	542.523	0	20.0	4	6.4	4	-1E+10	1	-1E+10	1	-1E+10	1	-1E+10	1	-1E+10	1	-1E+10	1
4902549	82	C	11/18/2022	10:10	-132.975	47.243	0	552.70	0	4.4830	0	34.1100	0	27.032	0	547.369	0	18.9	4	6.0	4	-1E+10	1	-1E+10	1	-1E+10	1	-1E+10	1	-1E+10	1	-1E+10	1
4902549	82	C	11/18/2022	10:10	-132.975	47.243	0	557.60	0	4.4630	0	34.1170	0	27.040	0	552.215	0	17.9	4	5.7	4	-1E+10	1	-1E+10	1	-1E+10	1	-1E+10	1	-1E+10	1	-1E+10	1
4902549	82	C	11/18/2022	10:10	-132.975	47.243	0	562.50	0	4.4610	0	34.1240	0	27.045	0	557.062	0	17.0	4	5.4	4	-1E+10	1	-1E+10	1	-1E+10	1	-1E+10	1	-1E+10	1	-1E+10	1
4902549	82	C	11/18/2022	10:10	-132.975	47.243	0	567.60	0	4.4370	0	34.1290	0	27.052	0	562.105	0	16.3	4	5.2	4	-1E+10	1	-1E+10	1	-1E+10	1	-1E+10	1	-1E+10	1	-1E+10	1
4902549	82	C	11/18/2022	10:10	-132.975	47.243	0	572.80	0	4.4170	0	34.1360	0	27.060	0	567.248	0	15.4	4	4.9	4	-1E+10	1	-1E+10	1	-1E+10	1	-1E+10	1	-1E+10	1	-1E+10	1
4902549	82	C	11/18/2022	10:10	-132.975	47.243	0	578.10	0	4.3980	0	34.1430	0	27.067	0	572.489	0	14.7	4	4.7	4	-1E+10	1	-1E+10	1	-1E+10	1	-1E+10	1	-1E+10	1	-1E+10	1
4902549	82	C	11/18/2022	10:10	-132.975	47.243	0	583.20	0	4.3840	0	34.1480	0	27.073	0	577.533	0	14.1	4	4.5	4	-1E+10	1	-1E+10	1	-1E+10	1	-1E+10	1	-1E+10	1	-1E+10	1
4902549	82	C	11/18/2022	10:10	-132.975	47.243	0	587.90	0	4.3560	0	34.1540	0	27.081	0	582.181	0	13.7	4	4.4	4	-1E+10	1	-1E+10	1	-1E+10	1	-1E+10	1	-1E+10	1	-1E+10	1
4902549	82	C	11/18/2022	10:10	-132.975	47.243	0	592.80	0	4.3400	0	34.1580	0	27.086	0	587.026	0	13.4	4	4.3	4	-1E+10	1	-1E+10	1	-1E+10	1	-1E+10	1	-1E+10	1	-1E+10	1
4902549	82	C	11/18/2022	10:10	-132.975	47.243	0	597.70	0	4.3340	0	34.1610	0	27.089	0	591.871	0	13.1	4	4.2	4	-1E+10	1	-1E+10	1	-1E+10	1	-1E+10	1	-1E+10	1	-1E+10	1
4902549	82	C	11/18/2022	10:10	-132.975	47.243	0	602.70	0	4.3280	0	34.1630	0	27.091	0	596.815	0	12.8	4	4.1	4	-1E+10	1	-1E+10	1	-1E+10	1	-1E+10	1	-1E+10	1	-1E+10	1
4902549	82	C	11/18/2022	10:10	-132.975	47.243	0	607.80	0	4.3200	0	34.1650	0	27.093	0	601.858	0	12.5	4	4.0	4	-1E+10	1	-1E+10	1	-1E+10	1	-1E+10	1	-1E+10	1	-1E+10	1
4902549	82	C	11/18/2022	10:10	-132.975	47.243	0	613.00	0	4.3120	0	34.1690	0	27.097	0	607.000	0	12.2	4	3.9	4	-1E+10	1	-1E+10	1	-1E+10	1	-1E+10	1	-1E+10	1	-1E+10	1
4902549	82	C	11/18/2022	10:10	-132.975	47.243	0	618.00	0	4.3010	0	34.1720	0	27.101	0	611.943	0	11.9	4	3.8	4	-1E+10	1	-1E+10	1	-1E+10	1	-1E+10	1	-1E+10	1	-1E+10	1
4902549	82	C	11/18/2022	10:10	-132.975	47.243	0	623.10	0	4.2900	0	34.1750	0	27.105	0	616.986	0	11.7	4	3.7	4	-1E+10	1	-1E+10	1	-1E+10	1	-1E+10	1	-1E+10	1	-1E+10	1
4902549	82	C	11/18/2022	10:10	-132.975	47.243	0	627.90	0	4.2830	0	34.1770	0	27.107	0	621.732	0	11.6	4	3.7	4	-1E+10	1	-1E+10	1	-1E+10	1	-1E+10	1	-1E+10	1	-1E+10	1
4902549	82	C	11/18/2022	10:10	-132.975	47.243	0	632.80	0	4.2790	0	34.1790	0	27.109	0	626.576	0	11.4	4	3.6	4	-1E+10	1	-1E+10	1	-1E+10	1	-1E+10	1	-1E+10	1	-1E+10	1
4902549	82	C	11/18/2022	10:10	-132.975	47.243	0	637.80	0	4.2720	0	34.1810	0	27.111	0	631.519	0	11.2	4	3.6	4	-1E+10	1	-1E+10	1	-1E+10	1	-1E+10	1	-1E+10	1	-1E+10	1
4902549	82	C	11/18/2022	10:10	-132.975	47.243	0	643.00	0	4.2580	0	34.1840	0	27.115	0	636.660	0	11.0	4	3.5	4	-1E+10	1	-1E+10	1	-1E+10	1	-1E+10	1	-1E+10	1	-1E+10	1
4902549	82	C	11/18/2022	10:10	-132.975	47.243	0	648.20	0	4.2450	0	34.1870	0	27.119	0	641.801	0	10.8	4	3.4	4	-1E+10	1	-1E+10	1	-1E+10	1	-1E+10	1	-1E+10	1	-1E+10	1
4902549	82	C	11/18/2022	10:10	-132.975	47.243	0	652.90	0	4.2350	0	34.1890	0	27.122	0	646.447	0	10.6	4	3.4	4	-1E+10	1	-1E+10	1	-1E+10	1	-1E+10	1	-1E+10	1	-1E+10	1
4902549	82	C	11/18/2022	10:10	-132.975	47.243	0	657.70	0	4.2220	0	34.1910	0	27.125	0	651.192	0	10.4	4	3.3	4	-1E+10	1	-1E+10	1	-1E+10	1	-1E+10	1	-1E+10	1	-1E+10	1
4902549	82	C	11/18/2022	10:10	-132.975	47.243	0	662.90	0	4.2100	0	34.1930	0	27.128	0	656.333	0	10.2	4	3.2	4	-1E+10	1	-1E+10	1	-1E+10	1	-1E+10	1	-1E+10	1	-1E+10	1
4902549	82	C	11/18/2022	10:10	-132.975	47.243	0	668.20	0	4.1960	0	34.1960	0	27.131	0	661.572	0	9.9	4	3.2	4	-1E+10	1	-1E+10	1	-1E+10	1	-1E+10	1	-1E+10	1	-1E+10	1
4902549	82	C	11/18/2022	10:10	-132.975	47.243	0	673.00	0	4.1830	0	34.2000	0	27.136	0	666.317	0	9.7	4	3.1	4	-1E+10	1	-1E+10	1	-1E+10	1	-1E+10	1	-1E+10	1	-1E+10	1
4902549	82	C	11/18/2022	10:10	-132.975	47.243	0	677.70	0	4.1740	0	34.2030	0	27.139	0	670.962	0	9.4	4	3.0	4	-1E+10	1	-1E+10	1	-1E+10	1	-1E+10	1	-1E+10	1	-1E+10	1
4902549	82	C	11/18/2022	10:10	-132.975	47.243	0	682.90	0	4.1590	0	34.2070	0	27.144	0	676.102	0	9.1	4	2.9	4	-1E+10	1	-1E+10	1	-1E+10	1	-1E+10	1	-1E+10	1	-1E+10	1
4902549	82	C	11/18/2022	10:10	-132.975	47.243	0	688.00	0	4.1460	0	34.2110	0	27.149	0	681.143	0	8.7	4	2.8	4	-1E+10	1	-1E+10	1	-1E+10	1	-1E+10	1	-1E+10	1	-1E+10	1
4902549	82	C	11/18/2022	10:10	-132.975	47.243	0	692.60	0	4.1250	0	34.2180	0	27.157	0	685.690	0	8.6	4	2.7	4	-1E+10	1	-1E+10	1	-1E+10	1	-1E+10	1	-1E+10	1	-1E+10	1
4902549	82	C	11/18/2022	10:10	-132.975	47.243	0	697.80	0	4.1100	0	34.2210	0	27.161	0	690.829	0	8.4	4	2.7	4	-1E+10	1	-1E+10	1	-1E+10	1	-1E+10	1	-1E+10	1	-1E+10	1
4902549	82	C	11/18/2022	10:10	-132.975	47.243	0	702.80	0	4.1020	0	34.2230	0	27.163	0	695.771	0	8.2	4	2.6	4	-1E+10	1	-1E+10	1	-1E+10	1	-1E+10	1	-1E+10	1	-1E+10	1
4902549	82	C	11/18/2022	10:10	-132.975	47.243	0	707.80	0	4.0890	0	34.2260	0	27.167	0	700.712	0	8.0	4	2.5	4	-1E+10	1	-1E+10	1	-1E+10	1	-1E+10	1	-1E+10	1	-1E+10	1
4902549	82	C	11/18/2022	10:10	-132.975	47.243	0	712.90	0	4.0750	0	34.2300	0	27.171	0	705.753	0	7.7	4	2.4	4	-1E+10	1	-1E+10	1	-1E+10	1	-1E+10	1	-1E+10	1	-1E+10	1
4902549	82	C	11/18/2022	10:10	-132.975	47.243	0	717.80	0	4.0560	0	34.2350	0	27.177	0	710.595	0	7.5	4	2.4	4	-1E+10	1	-1E+10	1	-1E+10	1	-1E+10	1	-1E+10	1	-1E+10	1
4902549	82	C	11/18/2022	10:10	-132.975	47.243	0	722.80	0	4.0400	0	34.2400	0	27.183	0	715.537	0	7.3	4	2.3	4	-1E+10	1	-1E+10	1	-1E+10	1	-1E+10	1	-1E+10	1	-1E+10	1
4902549	82	C	11/18/2022	10:10	-132.975	47.243	0	727.80	0	4.0240	0	34.2440	0	27.188	0	720.478	0	7.2	4	2.3	4	-1E+10	1	-1E+10	1	-1E+10	1	-1E+10	1	-1E+10	1	-1E+10	1
4902549	82	C	11/18/2022	10:10	-132.975	47.243	0	732.80	0	4.0090	0	34.2470	0	27.192	0	725.419	0	7.0	4	2.2	4	-1E+10	1	-1E+10	1	-1E+10	1	-1E+10	1	-1E+10	1	-1E+10	1
4902549	82	C	11/18/2022	10:10	-132.975	47.243	0	737.90	0	3.9990	0	34.2500	0	27.195	0	730.458	0	6.9	4	2.2	4	-1E+10	1	-1E+10	1	-1E+10	1	-1E+10	1	-1E+10	1	-1E+10	1
4902549	82	C	11/18/2022	10:10	-132.975	47.243	0	743.00	0	3.9840	0	34.2530	0	27.199	0	735.498	0	6.9	4	2.2	4	-1E+10	1	-1E+10	1	-1E+10	1	-1E+10	1	-1E+10	1	-1E+10	1
4902549	82	C	11/18/2022	10:10	-132.975	47.243	0	747.70	0	3.9660	0	34.2560	0	27.203	0	740.142	0	6.7	4	2.1	4	-1E+10	1	-1E+10	1	-1E+10	1	-1E+10	1	-1E+10	1	-1E+10	1
4902549	82	C	11/18/2022	10:10	-132.975	47.243	0	752.90	0	3.9490	0	34.2590	0	27.208	0	745.280	0	6.6	4	2.1	4	-1E+10	1	-1E+10	1	-1E+10	1	-1E+10	1	-1E+10	1	-1E+10	1
4902549	82	C	11/18/2022	10:10	-132.975	47.243	0	758.10	0	3.9440	0	34.2630	0	27.211	0	750.418	0	6.5	4	2.0	4	-1E+10	1	-1E+10	1	-1E+10	1	-1E+10	1	-1E+10	1	-1E+10	1
4902549	82	C	11/18/2022	10:10	-132.975	47.243	0	762.90	0	3.9410	0	34.2670	0	27.215	0	755.161	0	6.4	4	2.0	4	-1E+10	1	-1E+10	1	-1E+10	1	-1E+10	1	-1E+10	1	-1E+10	1
4902549	82	C	11/18/2022	10:10	-132.975	47.243	0	767.60	0	3.9240	0	34.2700	0	27.219	0	759.805	0	6.4	4	2.0	4	-1E+10	1	-1E+10	1	-1E+10	1	-1E+10	1	-1E+10	1	-1E+10	1
4902549	82	C	11/18/2022	10:10	-132.975	47.243	0	772.80	0	3.9070	0	34.2730	0	27.223	0	764.942	0	6.4	4	2.0	4	-1E+10	1	-1E+10	1	-1E+10	1	-1E+10	1	-1E+10	1	-1E+10	1
4902549	82	C	11/18/2022	10:10	-132.975	47.243	0	778.00	0	3.8980	0	34.2730	0	27.224	0	770.080	0	6.4	4	2.0	4	-1E+10	1	-1E+10	1	-1E+10	1	-1E+10	1	-1E+10	1	-1E+10	1
4902549	82	C	11/18/2022	10:10	-132.975	47.243	0	782.70	0	3.8790	0	34.2750	0	27.228	0	774.723	0	6.3	4	2.0	4	-1E+10	1	-1E+10	1	-1E+10	1	-1E+10	1	-1E+10	1	-1E+10	1
4902549	82	C	11/18/2022	10:10	-132.975	47.243	0	787.80	0	3.8690	0	34.2770	0	27.230	0	779.762	0	6.2	4	2.0	4	-1E+10	1	-1E+10	1	-1E+10	1	-1E+10	1	-1E+10	1	-1E+10	1
4902549	82	C	11/18/2022	10:10	-132.975	47.243	0	792.80	0	3.8500	0	34.2810	0	27.235	0	784.702	0	6.2	4	1.9	4	-1E+10	1	-1E+10	1	-1E+10	1	-1E+10	1	-1E+10	1	-1E+10	1
4902549	82	C	11/18/2022	10:10	-132.975	47.243	0	797.90	0	3.8290	0	34.2840	0	27.240	0	789.740	0	6.2	4	1.9	4	-1E+10	1	-1E+10	1	-1E+10	1	-1E+10	1	-1E+10	1	-1E+10	1
4902549	82	C	11/18/2022	10:10	-132.975	47.243	0	803.10	0	3.8160	0	34.2860	0	27.243	0	794.877	0	6.1	4	1.9	4	-1E+10	1	-1E+10	1	-1E+10	1	-1E+10	1	-1E+10	1	-1E+10	1
4902549	82	C	11/18/2022	10:10	-132.975	47.243	0	807.80	0	3.7920	0	34.2890	0	27.248	0	799.520	0	6.1	4	1.9	4	-1E+10	1	-1E+10	1	-1E+10	1	-1E+10	1	-1E+10	1	-1E+10	1
4902549	82	C	11/18/2022	10:10	-132.975	47.243	0	813.00	0	3.7650	0	34.2920	0	27.253	0	804.656	0	6.1	4	1.9	4	-1E+10	1	-1E+10	1	-1E+10	1	-1E+10	1	-1E+10	1	-1E+10	1
4902549	82	C	11/18/2022	10:10	-132.975	47.243	0	818.30	0	3.7540	0	34.2960	0	27.257	0	809.892	0	6.0	4	1.9	4	-1E+10	1	-1E+10	1	-1E+10	1	-1E+10	1	-1E+10	1	-1E+10	1
4902549	82	C	11/18/2022	10:10	-132.975	47.243	0	823.20	0	3.7360	0	34.2990	0	27.261	0	814.732	0	6.0	4	1.9	4	-1E+10	1	-1E+10	1	-1E+10	1	-1E+10	1	-1E+10	1	-1E+10	1
4902549	82	C	11/18/2022	10:10	-132.975	47.243	0	828.20	0	3.7140	0	34.3000	0	27.264	0	819.671	0	6.0	4	1.9	4	-1E+10	1	-1E+10	1	-1E+10	1	-1E+10	1	-1E+10	1	-1E+10	1
4902549	82	C	11/18/2022	10:10	-132.975	47.243	0	833.10	0	3.6920	0	34.3030	0	27.269	0	824.510	0	6.0	4	1.9	4	-1E+10	1	-1E+10	1	-1E+10	1	-1E+10	1	-1E+10	1	-1E+10	1
4902549	82	C	11/18/2022	10:10	-132.975	47.243	0	838.20	0	3.6840	0	34.3060	0	27.272	0	829.548	0	6.0	4	1.9	4	-1E+10	1	-1E+10	1	-1E+10	1	-1E+10	1	-1E+10	1	-1E+10	1
4902549	82	C	11/18/2022	10:10	-132.975	47.243	0	843.30	0	3.6740	0	34.3080	0	27.275	0	834.585	0	6.0	4	1.9	4	-1E+10	1	-1E+10	1	-1E+10	1	-1E+10	1	-1E+10	1	-1E+10	1
4902549	82	C	11/18/2022	10:10	-132.975	47.243	0	848.40	0	3.6610	0	34.3090	0	27.277	0	839.622	0	6.0	4	1.9	4	-1E+10	1	-1E+10	1	-1E+10	1	-1E+10	1	-1E+10	1	-1E+10	1
4902549	82	C	11/18/2022	10:10	-132.975	47.243	0	853.20	0	3.6390	0	34.3120	0	27.281	0	844.363	0	6.0	4	1.9	4	-1E+10	1	-1E+10	1	-1E+10	1	-1E+10	1	-1E+10	1	-1E+10	1
4902549	82	C	11/18/2022	10:10	-132.975	47.243	0	858.00	0	3.6350	0	34.3130	0	27.283	0	849.103	0	6.0	4	1.9	4	-1E+10	1	-1E+10	1	-1E+10	1	-1E+10	1	-1E+10	1	-1E+10	1
4902549	82	C	11/18/2022	10:10	-132.975	47.243	0	862.90	0	3.6330	0	34.3130	0	27.283	0	853.942	0	6.0	4	1.9	4	-1E+10	1	-1E+10	1	-1E+10	1	-1E+10	1	-1E+10	1	-1E+10	1
4902549	82	C	11/18/2022	10:10	-132.975	47.243	0	867.90	0	3.6270	0	34.3150	0	27.285	0	858.880	0	5.9	4	1.9	4	-1E+10	1	-1E+10	1	-1E+10	1	-1E+10	1	-1E+10	1	-1E+10	1
4902549	82	C	11/18/2022	10:10	-132.975	47.243	0	873.10	0	3.6070	0	34.3180	0	27.289	0	864.015	0	6.0	4	1.9	4	-1E+10	1	-1E+10	1	-1E+10	1	-1E+10	1	-1E+10	1	-1E+10	1
4902549	82	C	11/18/2022	10:10	-132.975	47.243	0	877.90	0	3.5970	0	34.3190	0	27.291	0	868.755	0	5.9	4	1.9	4	-1E+10	1	-1E+10	1	-1E+10	1	-1E+10	1	-1E+10	1	-1E+10	1
4902549	82	C	11/18/2022	10:10	-132.975	47.243	0	882.80	0	3.5910	0	34.3200	0	27.293	0	873.594	0	5.9	4	1.9	4	-1E+10	1	-1E+10	1	-1E+10	1	-1E+10	1	-1E+10	1	-1E+10	1
4902549	82	C	11/18/2022	10:10	-132.975	47.243	0	888.10	0	3.5840	0	34.3210	0	27.294	0	878.828	0	5.9	4	1.9	4	-1E+10	1	-1E+10	1	-1E+10	1	-1E+10	1	-1E+10	1	-1E+10	1
4902549	82	C	11/18/2022	10:10	-132.975	47.243	0	893.00	0	3.5680	0	34.3230	0	27.297	0	883.666	0	5.9	4	1.9	4	-1E+10	1	-1E+10	1	-1E+10	1	-1E+10	1	-1E+10	1	-1E+10	1
4902549	82	C	11/18/2022	10:10	-132.975	47.243	0	897.90	0	3.5600	0	34.3260	0	27.301	0	888.505	0	5.9	4	1.9	4	-1E+10	1	-1E+10	1	-1E+10	1	-1E+10	1	-1E+10	1	-1E+10	1
4902549	82	C	11/18/2022	10:10	-132.975	47.243	0	902.90	0	3.5490	0	34.3270	0	27.302	0	893.442	0	5.9	4	1.9	4	-1E+10	1	-1E+10	1	-1E+10	1	-1E+10	1	-1E+10	1	-1E+10	1
4902549	82	C	11/18/2022	10:10	-132.975	47.243	0	907.90	0	3.5340	0	34.3290	0	27.305	0	898.379	0	5.9	4	1.8	4	-1E+10	1	-1E+10	1	-1E+10	1	-1E+10	1	-1E+10	1	-1E+10	1
4902549	82	C	11/18/2022	10:10	-132.975	47.243	0	912.90	0	3.5250	0	34.3320	0	27.309	0	903.315	0	5.9	4	1.8	4	-1E+10	1	-1E+10	1	-1E+10	1	-1E+10	1	-1E+10	1	-1E+10	1
4902549	82	C	11/18/2022	10:10	-132.975	47.243	0	918.00	0	3.5170	0	34.3350	0	27.312	0	908.351	0	5.9	4	1.8	4	-1E+10	1	-1E+10	1	-1E+10	1	-1E+10	1	-1E+10	1	-1E+10	1
4902549	82	C	11/18/2022	10:10	-132.975	47.243	0	923.10	0	3.5040	0	34.3370	0	27.315	0	913.386	0	5.9	4	1.8	4	-1E+10	1	-1E+10	1	-1E+10	1	-1E+10	1	-1E+10	1	-1E+10	1
4902549	82	C	11/18/2022	10:10	-132.975	47.243	0	927.80	0	3.4960	0	34.3390	0	27.317	0	918.026	0	5.9	4	1.8	4	-1E+10	1	-1E+10	1	-1E+10	1	-1E+10	1	-1E+10	1	-1E+10	1
4902549	82	C	11/18/2022	10:10	-132.975	47.243	0	932.90	0	3.4750	0	34.3390	0	27.319	0	923.061	0	5.9	4	1.9	4	-1E+10	1	-1E+10	1	-1E+10	1	-1E+10	1	-1E+10	1	-1E+10	1
4902549	82	C	11/18/2022	10:10	-132.975	47.243	0	938.10	0	3.4630	0	34.3400	0	27.321	0	928.195	0	5.9	4	1.9	4	-1E+10	1	-1E+10	1	-1E+10	1	-1E+10	1	-1E+10	1	-1E+10	1
4902549	82	C	11/18/2022	10:10	-132.975	47.243	0	942.90	0	3.4490	0	34.3430	0	27.325	0	932.934	0	5.9	4	1.9	4	-1E+10	1	-1E+10	1	-1E+10	1	-1E+10	1	-1E+10	1	-1E+10	1
4902549	82	C	11/18/2022	10:10	-132.975	47.243	0	947.70	0	3.4450	0	34.3430	0	27.325	0	937.672	0	6.0	4	1.9	4	-1E+10	1	-1E+10	1	-1E+10	1	-1E+10	1	-1E+10	1	-1E+10	1
4902549	82	C	11/18/2022	10:10	-132.975	47.243	0	952.60	0	3.4370	0	34.3460	0	27.329	0	942.509	0	6.0	4	1.9	4	-1E+10	1	-1E+10	1	-1E+10	1	-1E+10	1	-1E+10	1	-1E+10	1
4902549	82	C	11/18/2022	10:10	-132.975	47.243	0	957.60	0	3.4300	0	34.3480	0	27.331	0	947.445	0	6.0	4	1.9	4	-1E+10	1	-1E+10	1	-1E+10	1	-1E+10	1	-1E+10	1	-1E+10	1
4902549	82	C	11/18/2022	10:10	-132.975	47.243	0	962.50	0	3.4150	0	34.3520	0	27.336	0	952.282	0	6.0	4	1.9	4	-1E+10	1	-1E+10	1	-1E+10	1	-1E+10	1	-1E+10	1	-1E+10	1
4902549	82	C	11/18/2022	10:10	-132.975	47.243	0	967.50	0	3.3990	0	34.3530	0	27.338	0	957.217	0	6.0	4	1.9	4	-1E+10	1	-1E+10	1	-1E+10	1	-1E+10	1	-1E+10	1	-1E+10	1
4902549	82	C	11/18/2022	10:10	-132.975	47.243	0	972.50	0	3.4030	0	34.3570	0	27.341	0	962.153	0	6.1	4	1.9	4	-1E+10	1	-1E+10	1	-1E+10	1	-1E+10	1	-1E+10	1	-1E+10	1
4902549	82	C	11/18/2022	10:10	-132.975	47.243	0	977.60	0	3.4120	0	34.3610	0	27.343	0	967.187	0	6.1	4	1.9	4	-1E+10	1	-1E+10	1	-1E+10	1	-1E+10	1	-1E+10	1	-1E+10	1
4902549	82	C	11/18/2022	10:10	-132.975	47.243	0	982.80	0	3.4020	0	34.3640	0	27.347	0	972.319	0	6.2	4	1.9	4	-1E+10	1	-1E+10	1	-1E+10	1	-1E+10	1	-1E+10	1	-1E+10	1
4902549	82	C	11/18/2022	10:10	-132.975	47.243	0	988.00	0	3.3950	0	34.3660	0	27.349	0	977.452	0	6.2	4	1.9	4	-1E+10	1	-1E+10	1	-1E+10	1	-1E+10	1	-1E+10	1	-1E+10	1
4902549	82	C	11/18/2022	10:10	-132.975	47.243	0	993.20	0	3.3820	0	34.3670	0	27.351	0	982.584	0	6.2	4	1.9	4	-1E+10	1	-1E+10	1	-1E+10	1	-1E+10	1	-1E+10	1	-1E+10	1
4902549	82	C	11/18/2022	10:10	-132.975	47.243	0	997.90	0	3.3740	0	34.3680	0	27.352	0	987.223	0	6.2	4	1.9	4	-1E+10	1	-1E+10	1	-1E+10	1	-1E+10	1	-1E+10	1	-1E+10	1
4902549	82	C	11/18/2022	10:10	-132.975	47.243	0	1005.20	0	3.3650	0	34.3690	0	27.354	0	994.427	0	6.3	4	2.0	4	-1E+10	1	-1E+10	1	-1E+10	1	-1E+10	1	-1E+10	1	-1E+10	1
4902549	82	C	11/18/2022	10:10	-132.975	47.243	0	1015.20	0	3.3430	0	34.3730	0	27.359	0	1004.296	0	6.4	4	2.0	4	-1E+10	1	-1E+10	1	-1E+10	1	-1E+10	1	-1E+10	1	-1E+10	1
4902549	82	C	11/18/2022	10:10	-132.975	47.243	0	1025.20	0	3.3170	0	34.3760	0	27.364	0	1014.164	0	6.5	4	2.0	4	-1E+10	1	-1E+10	1	-1E+10	1	-1E+10	1	-1E+10	1	-1E+10	1
4902549	82	C	11/18/2022	10:10	-132.975	47.243	0	1035.30	0	3.3040	0	34.3820	0	27.370	0	1024.131	0	6.6	4	2.1	4	-1E+10	1	-1E+10	1	-1E+10	1	-1E+10	1	-1E+10	1	-1E+10	1
4902549	82	C	11/18/2022	10:10	-132.975	47.243	0	1045.50	0	3.2850	0	34.3860	0	27.375	0	1034.196	0	6.8	4	2.1	4	-1E+10	1	-1E+10	1	-1E+10	1	-1E+10	1	-1E+10	1	-1E+10	1
4902549	82	C	11/18/2022	10:10	-132.975	47.243	0	1055.40	0	3.2610	0	34.3900	0	27.381	0	1043.964	0	6.9	4	2.1	4	-1E+10	1	-1E+10	1	-1E+10	1	-1E+10	1	-1E+10	1	-1E+10	1
4902549	82	C	11/18/2022	10:10	-132.975	47.243	0	1065.20	0	3.2240	0	34.3930	0	27.387	0	1053.633	0	7.0	4	2.2	4	-1E+10	1	-1E+10	1	-1E+10	1	-1E+10	1	-1E+10	1	-1E+10	1
4902549	82	C	11/18/2022	10:10	-132.975	47.243	0	1075.20	0	3.2060	0	34.3950	0	27.390	0	1063.500	0	7.1	4	2.2	4	-1E+10	1	-1E+10	1	-1E+10	1	-1E+10	1	-1E+10	1	-1E+10	1
4902549	82	C	11/18/2022	10:10	-132.975	47.243	0	1085.40	0	3.1850	0	34.3980	0	27.395	0	1073.563	0	7.2	4	2.2	4	-1E+10	1	-1E+10	1	-1E+10	1	-1E+10	1	-1E+10	1	-1E+10	1
4902549	82	C	11/18/2022	10:10	-132.975	47.243	0	1095.80	0	3.1640	0	34.4000	0	27.398	0	1083.822	0	7.4	4	2.3	4	-1E+10	1	-1E+10	1	-1E+10	1	-1E+10	1	-1E+10	1	-1E+10	1
4902549	82	C	11/18/2022	10:10	-132.975	47.243	0	1105.50	0	3.1480	0	34.4030	0	27.402	0	1093.391	0	7.5	4	2.3	4	-1E+10	1	-1E+10	1	-1E+10	1	-1E+10	1	-1E+10	1	-1E+10	1
4902549	82	C	11/18/2022	10:10	-132.975	47.243	0	1115.10	0	3.1250	0	34.4050	0	27.406	0	1102.861	0	7.6	4	2.4	4	-1E+10	1	-1E+10	1	-1E+10	1	-1E+10	1	-1E+10	1	-1E+10	1
4902549	82	C	11/18/2022	10:10	-132.975	47.243	0	1125.40	0	3.1060	0	34.4080	0	27.410	0	1113.020	0	7.8	4	2.4	4	-1E+10	1	-1E+10	1	-1E+10	1	-1E+10	1	-1E+10	1	-1E+10	1
4902549	82	C	11/18/2022	10:10	-132.975	47.243	0	1135.40	0	3.0920	0	34.4110	0	27.414	0	1122.884	0	7.9	4	2.4	4	-1E+10	1	-1E+10	1	-1E+10	1	-1E+10	1	-1E+10	1	-1E+10	1
4902549	82	C	11/18/2022	10:10	-132.975	47.243	0	1145.10	0	3.0680	0	34.4130	0	27.418	0	1132.451	0	8.1	4	2.5	4	-1E+10	1	-1E+10	1	-1E+10	1	-1E+10	1	-1E+10	1	-1E+10	1
4902549	82	C	11/18/2022	10:10	-132.975	47.243	0	1155.30	0	3.0430	0	34.4170	0	27.423	0	1142.510	0	8.3	4	2.6	4	-1E+10	1	-1E+10	1	-1E+10	1	-1E+10	1	-1E+10	1	-1E+10	1
4902549	82	C	11/18/2022	10:10	-132.975	47.243	0	1165.20	0	3.0340	0	34.4180	0	27.425	0	1152.273	0	8.4	4	2.6	4	-1E+10	1	-1E+10	1	-1E+10	1	-1E+10	1	-1E+10	1	-1E+10	1
4902549	82	C	11/18/2022	10:10	-132.975	47.243	0	1175.20	0	3.0180	0	34.4220	0	27.429	0	1162.135	0	8.6	4	2.7	4	-1E+10	1	-1E+10	1	-1E+10	1	-1E+10	1	-1E+10	1	-1E+10	1
4902549	82	C	11/18/2022	10:10	-132.975	47.243	0	1185.20	0	3.0070	0	34.4240	0	27.432	0	1171.996	0	8.8	4	2.7	4	-1E+10	1	-1E+10	1	-1E+10	1	-1E+10	1	-1E+10	1	-1E+10	1
4902549	82	C	11/18/2022	10:10	-132.975	47.243	0	1195.30	0	2.9900	0	34.4260	0	27.435	0	1181.955	0	8.9	4	2.8	4	-1E+10	1	-1E+10	1	-1E+10	1	-1E+10	1	-1E+10	1	-1E+10	1
4902549	82	C	11/18/2022	10:10	-132.975	47.243	0	1205.30	0	2.9770	0	34.4280	0	27.438	0	1191.815	0	9.1	4	2.8	4	-1E+10	1	-1E+10	1	-1E+10	1	-1E+10	1	-1E+10	1	-1E+10	1
4902549	82	C	11/18/2022	10:10	-132.975	47.243	0	1215.40	0	2.9540	0	34.4310	0	27.443	0	1201.773	0	9.3	4	2.9	4	-1E+10	1	-1E+10	1	-1E+10	1	-1E+10	1	-1E+10	1	-1E+10	1
4902549	82	C	11/18/2022	10:10	-132.975	47.243	0	1225.50	0	2.9290	0	34.4330	0	27.447	0	1211.731	0	9.6	4	3.0	4	-1E+10	1	-1E+10	1	-1E+10	1	-1E+10	1	-1E+10	1	-1E+10	1
4902549	82	C	11/18/2022	10:10	-132.975	47.243	0	1235.50	0	2.9140	0	34.4360	0	27.450	0	1221.589	0	10.0	4	3.1	4	-1E+10	1	-1E+10	1	-1E+10	1	-1E+10	1	-1E+10	1	-1E+10	1
4902549	82	C	11/18/2022	10:10	-132.975	47.243	0	1245.50	0	2.8990	0	34.4410	0	27.456	0	1231.448	0	10.3	4	3.2	4	-1E+10	1	-1E+10	1	-1E+10	1	-1E+10	1	-1E+10	1	-1E+10	1
4902549	82	C	11/18/2022	10:10	-132.975	47.243	0	1255.30	0	2.8820	0	34.4430	0	27.459	0	1241.108	0	10.6	4	3.3	4	-1E+10	1	-1E+10	1	-1E+10	1	-1E+10	1	-1E+10	1	-1E+10	1
4902549	82	C	11/18/2022	10:10	-132.975	47.243	0	1265.50	0	2.8550	0	34.4460	0	27.464	0	1251.162	0	10.8	4	3.3	4	-1E+10	1	-1E+10	1	-1E+10	1	-1E+10	1	-1E+10	1	-1E+10	1
4902549	82	C	11/18/2022	10:10	-132.975	47.243	0	1275.70	0	2.8360	0	34.4490	0	27.468	0	1261.216	0	11.0	4	3.4	4	-1E+10	1	-1E+10	1	-1E+10	1	-1E+10	1	-1E+10	1	-1E+10	1
4902549	82	C	11/18/2022	10:10	-132.975	47.243	0	1285.40	0	2.8080	0	34.4500	0	27.471	0	1270.777	0	11.2	4	3.4	4	-1E+10	1	-1E+10	1	-1E+10	1	-1E+10	1	-1E+10	1	-1E+10	1
4902549	82	C	11/18/2022	10:10	-132.975	47.243	0	1295.20	0	2.7880	0	34.4520	0	27.475	0	1280.436	0	11.5	4	3.5	4	-1E+10	1	-1E+10	1	-1E+10	1	-1E+10	1	-1E+10	1	-1E+10	1
4902549	82	C	11/18/2022	10:10	-132.975	47.243	0	1305.60	0	2.7760	0	34.4550	0	27.478	0	1290.685	0	11.9	4	3.7	4	-1E+10	1	-1E+10	1	-1E+10	1	-1E+10	1	-1E+10	1	-1E+10	1
4902549	82	C	11/18/2022	10:10	-132.975	47.243	0	1315.80	0	2.7640	0	34.4590	0	27.482	0	1300.737	0	12.5	4	3.8	4	-1E+10	1	-1E+10	1	-1E+10	1	-1E+10	1	-1E+10	1	-1E+10	1
4902549	82	C	11/18/2022	10:10	-132.975	47.243	0	1325.20	0	2.7440	0	34.4630	0	27.487	0	1310.000	0	13.0	4	4.0	4	-1E+10	1	-1E+10	1	-1E+10	1	-1E+10	1	-1E+10	1	-1E+10	1
4902549	82	C	11/18/2022	10:10	-132.975	47.243	0	1335.40	0	2.7330	0	34.4660	0	27.491	0	1320.052	0	13.5	4	4.1	4	-1E+10	1	-1E+10	1	-1E+10	1	-1E+10	1	-1E+10	1	-1E+10	1
4902549	82	C	11/18/2022	10:10	-132.975	47.243	0	1345.30	0	2.7100	0	34.4690	0	27.495	0	1329.807	0	14.2	4	4.3	4	-1E+10	1	-1E+10	1	-1E+10	1	-1E+10	1	-1E+10	1	-1E+10	1
4902549	82	C	11/18/2022	10:10	-132.975	47.243	0	1355.40	0	2.6880	0	34.4740	0	27.501	0	1339.758	0	14.7	4	4.5	4	-1E+10	1	-1E+10	1	-1E+10	1	-1E+10	1	-1E+10	1	-1E+10	1
4902549	82	C	11/18/2022	10:10	-132.975	47.243	0	1365.70	0	2.6670	0	34.4760	0	27.505	0	1349.906	0	15.0	4	4.6	4	-1E+10	1	-1E+10	1	-1E+10	1	-1E+10	1	-1E+10	1	-1E+10	1
4902549	82	C	11/18/2022	10:10	-132.975	47.243	0	1375.50	0	2.6450	0	34.4780	0	27.508	0	1359.562	0	15.2	4	4.7	4	-1E+10	1	-1E+10	1	-1E+10	1	-1E+10	1	-1E+10	1	-1E+10	1
4902549	82	C	11/18/2022	10:10	-132.975	47.243	0	1385.40	0	2.6400	0	34.4780	0	27.509	0	1369.315	0	15.4	4	4.7	4	-1E+10	1	-1E+10	1	-1E+10	1	-1E+10	1	-1E+10	1	-1E+10	1
4902549	82	C	11/18/2022	10:10	-132.975	47.243	0	1395.70	0	2.6160	0	34.4800	0	27.512	0	1379.461	0	15.7	4	4.8	4	-1E+10	1	-1E+10	1	-1E+10	1	-1E+10	1	-1E+10	1	-1E+10	1
4902549	82	C	11/18/2022	10:10	-132.975	47.243	0	1405.60	0	2.5980	0	34.4810	0	27.515	0	1389.214	0	16.0	4	4.9	4	-1E+10	1	-1E+10	1	-1E+10	1	-1E+10	1	-1E+10	1	-1E+10	1
4902549	82	C	11/18/2022	10:10	-132.975	47.243	0	1415.70	0	2.5610	0	34.4840	0	27.520	0	1399.162	0	16.8	4	5.1	4	-1E+10	1	-1E+10	1	-1E+10	1	-1E+10	1	-1E+10	1	-1E+10	1
4902549	82	C	11/18/2022	10:10	-132.975	47.243	0	1425.90	0	2.5510	0	34.4870	0	27.524	0	1409.209	0	17.3	4	5.3	4	-1E+10	1	-1E+10	1	-1E+10	1	-1E+10	1	-1E+10	1	-1E+10	1
4902549	82	C	11/18/2022	10:10	-132.975	47.243	0	1435.50	0	2.5370	0	34.4890	0	27.526	0	1418.665	0	17.7	4	5.4	4	-1E+10	1	-1E+10	1	-1E+10	1	-1E+10	1	-1E+10	1	-1E+10	1
4902549	82	C	11/18/2022	10:10	-132.975	47.243	0	1445.40	0	2.5360	0	34.4910	0	27.528	0	1428.415	0	18.0	4	5.5	4	-1E+10	1	-1E+10	1	-1E+10	1	-1E+10	1	-1E+10	1	-1E+10	1
4902549	82	C	11/18/2022	10:10	-132.975	47.243	0	1455.10	0	2.5310	0	34.4920	0	27.529	0	1437.968	0	18.3	4	5.6	4	-1E+10	1	-1E+10	1	-1E+10	1	-1E+10	1	-1E+10	1	-1E+10	1
4902549	82	C	11/18/2022	10:10	-132.975	47.243	0	1465.40	0	2.5210	0	34.4940	0	27.532	0	1448.112	0	18.9	4	5.8	4	-1E+10	1	-1E+10	1	-1E+10	1	-1E+10	1	-1E+10	1	-1E+10	1
4902549	82	C	11/18/2022	10:10	-132.975	47.243	0	1475.70	0	2.5100	0	34.4960	0	27.535	0	1458.254	0	19.5	4	6.0	4	-1E+10	1	-1E+10	1	-1E+10	1	-1E+10	1	-1E+10	1	-1E+10	1
4902549	82	C	11/18/2022	10:10	-132.975	47.243	0	1485.40	0	2.4880	0	34.4990	0	27.539	0	1467.806	0	20.1	4	6.1	4	-1E+10	1	-1E+10	1	-1E+10	1	-1E+10	1	-1E+10	1	-1E+10	1
4902549	82	C	11/18/2022	10:10	-132.975	47.243	0	1495.10	0	2.4830	0	34.5010	0	27.541	0	1477.357	0	20.5	4	6.2	4	-1E+10	1	-1E+10	1	-1E+10	1	-1E+10	1	-1E+10	1	-1E+10	1
4902549	82	C	11/18/2022	10:10	-132.975	47.243	0	1505.40	0	2.4720	0	34.5030	0	27.543	0	1487.499	0	20.9	4	6.4	4	-1E+10	1	-1E+10	1	-1E+10	1	-1E+10	1	-1E+10	1	-1E+10	1
4902549	82	C	11/18/2022	10:10	-132.975	47.243	0	1515.60	0	2.4610	0	34.5040	0	27.545	0	1497.541	0	21.3	4	6.5	4	-1E+10	1	-1E+10	1	-1E+10	1	-1E+10	1	-1E+10	1	-1E+10	1
4902549	82	C	11/18/2022	10:10	-132.975	47.243	0	1525.50	0	2.4430	0	34.5050	0	27.548	0	1507.288	0	21.7	4	6.6	4	-1E+10	1	-1E+10	1	-1E+10	1	-1E+10	1	-1E+10	1	-1E+10	1
4902549	82	C	11/18/2022	10:10	-132.975	47.243	0	1535.30	0	2.4250	0	34.5070	0	27.551	0	1516.936	0	22.3	4	6.8	4	-1E+10	1	-1E+10	1	-1E+10	1	-1E+10	1	-1E+10	1	-1E+10	1
4902549	82	C	11/18/2022	10:10	-132.975	47.243	0	1545.40	0	2.4070	0	34.5100	0	27.555	0	1526.879	0	23.0	4	7.0	4	-1E+10	1	-1E+10	1	-1E+10	1	-1E+10	1	-1E+10	1	-1E+10	1
4902549	82	C	11/18/2022	10:10	-132.975	47.243	0	1555.60	0	2.3940	0	34.5120	0	27.557	0	1536.920	0	23.4	4	7.1	4	-1E+10	1	-1E+10	1	-1E+10	1	-1E+10	1	-1E+10	1	-1E+10	1
4902549	82	C	11/18/2022	10:10	-132.975	47.243	0	1565.30	0	2.3870	0	34.5130	0	27.559	0	1546.468	0	23.8	4	7.2	4	-1E+10	1	-1E+10	1	-1E+10	1	-1E+10	1	-1E+10	1	-1E+10	1
4902549	82	C	11/18/2022	10:10	-132.975	47.243	0	1575.10	0	2.3750	0	34.5140	0	27.561	0	1556.114	0	24.3	4	7.4	4	-1E+10	1	-1E+10	1	-1E+10	1	-1E+10	1	-1E+10	1	-1E+10	1
4902549	82	C	11/18/2022	10:10	-132.975	47.243	0	1585.30	0	2.3580	0	34.5170	0	27.565	0	1566.153	0	25.0	4	7.6	4	-1E+10	1	-1E+10	1	-1E+10	1	-1E+10	1	-1E+10	1	-1E+10	1
4902549	82	C	11/18/2022	10:10	-132.975	47.243	0	1595.60	0	2.3490	0	34.5180	0	27.566	0	1576.290	0	25.4	4	7.7	4	-1E+10	1	-1E+10	1	-1E+10	1	-1E+10	1	-1E+10	1	-1E+10	1
4902549	82	C	11/18/2022	10:10	-132.975	47.243	0	1605.80	0	2.3370	0	34.5200	0	27.569	0	1586.329	0	26.3	4	8.0	4	-1E+10	1	-1E+10	1	-1E+10	1	-1E+10	1	-1E+10	1	-1E+10	1
4902549	82	C	11/18/2022	10:10	-132.975	47.243	0	1615.80	0	2.3240	0	34.5230	0	27.572	0	1596.170	0	27.2	4	8.3	4	-1E+10	1	-1E+10	1	-1E+10	1	-1E+10	1	-1E+10	1	-1E+10	1
4902549	82	C	11/18/2022	10:10	-132.975	47.243	0	1625.70	0	2.3060	0	34.5260	0	27.576	0	1605.912	0	28.1	4	8.5	4	-1E+10	1	-1E+10	1	-1E+10	1	-1E+10	1	-1E+10	1	-1E+10	1
4902549	82	C	11/18/2022	10:10	-132.975	47.243	0	1635.80	0	2.2970	0	34.5290	0	27.579	0	1615.851	0	29.1	4	8.8	4	-1E+10	1	-1E+10	1	-1E+10	1	-1E+10	1	-1E+10	1	-1E+10	1
4902549	82	C	11/18/2022	10:10	-132.975	47.243	0	1645.50	0	2.2920	0	34.5320	0	27.582	0	1625.395	0	29.9	4	9.1	4	-1E+10	1	-1E+10	1	-1E+10	1	-1E+10	1	-1E+10	1	-1E+10	1
4902549	82	C	11/18/2022	10:10	-132.975	47.243	0	1655.20	0	2.2800	0	34.5340	0	27.585	0	1634.939	0	30.6	4	9.3	4	-1E+10	1	-1E+10	1	-1E+10	1	-1E+10	1	-1E+10	1	-1E+10	1
4902549	82	C	11/18/2022	10:10	-132.975	47.243	0	1665.60	0	2.2610	0	34.5360	0	27.588	0	1645.171	0	31.4	4	9.5	4	-1E+10	1	-1E+10	1	-1E+10	1	-1E+10	1	-1E+10	1	-1E+10	1
4902549	82	C	11/18/2022	10:10	-132.975	47.243	0	1675.60	0	2.2390	0	34.5390	0	27.592	0	1655.010	0	32.2	4	9.8	4	-1E+10	1	-1E+10	1	-1E+10	1	-1E+10	1	-1E+10	1	-1E+10	1
4902549	82	C	11/18/2022	10:10	-132.975	47.243	0	1685.20	0	2.2210	0	34.5410	0	27.595	0	1664.454	0	32.7	4	9.9	4	-1E+10	1	-1E+10	1	-1E+10	1	-1E+10	1	-1E+10	1	-1E+10	1
4902549	82	C	11/18/2022	10:10	-132.975	47.243	0	1695.10	0	2.2080	0	34.5430	0	27.598	0	1674.193	0	33.3	4	10.1	4	-1E+10	1	-1E+10	1	-1E+10	1	-1E+10	1	-1E+10	1	-1E+10	1
4902549	82	C	11/18/2022	10:10	-132.975	47.243	0	1705.10	0	2.1980	0	34.5440	0	27.600	0	1684.030	0	33.8	4	10.2	4	-1E+10	1	-1E+10	1	-1E+10	1	-1E+10	1	-1E+10	1	-1E+10	1
4902549	82	C	11/18/2022	10:10	-132.975	47.243	0	1715.10	0	2.1870	0	34.5460	0	27.602	0	1693.867	0	34.3	4	10.4	4	-1E+10	1	-1E+10	1	-1E+10	1	-1E+10	1	-1E+10	1	-1E+10	1
4902549	82	C	11/18/2022	10:10	-132.975	47.243	0	1725.10	0	2.1780	0	34.5470	0	27.604	0	1703.703	0	34.9	4	10.6	4	-1E+10	1	-1E+10	1	-1E+10	1	-1E+10	1	-1E+10	1	-1E+10	1
4902549	82	C	11/18/2022	10:10	-132.975	47.243	0	1735.50	0	2.1710	0	34.5490	0	27.606	0	1713.932	0	35.4	4	10.7	4	-1E+10	1	-1E+10	1	-1E+10	1	-1E+10	1	-1E+10	1	-1E+10	1
4902549	82	C	11/18/2022	10:10	-132.975	47.243	0	1745.30	0	2.1630	0	34.5490	0	27.607	0	1723.570	0	35.6	4	10.8	4	-1E+10	1	-1E+10	1	-1E+10	1	-1E+10	1	-1E+10	1	-1E+10	1
4902549	82	C	11/18/2022	10:10	-132.975	47.243	0	1755.20	0	2.1530	0	34.5500	0	27.608	0	1733.307	0	36.1	4	10.9	4	-1E+10	1	-1E+10	1	-1E+10	1	-1E+10	1	-1E+10	1	-1E+10	1
4902549	82	C	11/18/2022	10:10	-132.975	47.243	0	1765.30	0	2.1400	0	34.5520	0	27.611	0	1743.239	0	36.8	4	11.1	4	-1E+10	1	-1E+10	1	-1E+10	1	-1E+10	1	-1E+10	1	-1E+10	1
4902549	82	C	11/18/2022	10:10	-132.975	47.243	0	1775.30	0	2.1310	0	34.5540	0	27.613	0	1753.073	0	37.4	4	11.3	4	-1E+10	1	-1E+10	1	-1E+10	1	-1E+10	1	-1E+10	1	-1E+10	1
4902549	82	C	11/18/2022	10:10	-132.975	47.243	0	1785.50	0	2.1250	0	34.5550	0	27.615	0	1763.103	0	38.0	4	11.5	4	-1E+10	1	-1E+10	1	-1E+10	1	-1E+10	1	-1E+10	1	-1E+10	1
4902549	82	C	11/18/2022	10:10	-132.975	47.243	0	1795.70	0	2.1130	0	34.5570	0	27.617	0	1773.132	0	38.5	4	11.6	4	-1E+10	1	-1E+10	1	-1E+10	1	-1E+10	1	-1E+10	1	-1E+10	1
4902549	82	C	11/18/2022	10:10	-132.975	47.243	0	1805.30	0	2.1060	0	34.5580	0	27.619	0	1782.572	0	38.9	4	11.7	4	-1E+10	1	-1E+10	1	-1E+10	1	-1E+10	1	-1E+10	1	-1E+10	1
4902549	82	C	11/18/2022	10:10	-132.975	47.243	0	1815.20	0	2.1020	0	34.5580	0	27.619	0	1792.305	0	39.3	4	11.9	4	-1E+10	1	-1E+10	1	-1E+10	1	-1E+10	1	-1E+10	1	-1E+10	1
4902549	82	C	11/18/2022	10:10	-132.975	47.243	0	1825.40	0	2.0930	0	34.5600	0	27.622	0	1802.333	0	39.9	4	12.1	4	-1E+10	1	-1E+10	1	-1E+10	1	-1E+10	1	-1E+10	1	-1E+10	1
4902549	82	C	11/18/2022	10:10	-132.975	47.243	0	1835.30	0	2.0840	0	34.5610	0	27.623	0	1812.066	0	40.4	4	12.2	4	-1E+10	1	-1E+10	1	-1E+10	1	-1E+10	1	-1E+10	1	-1E+10	1
4902549	82	C	11/18/2022	10:10	-132.975	47.243	0	1845.50	0	2.0750	0	34.5620	0	27.625	0	1822.093	0	41.0	4	12.4	4	-1E+10	1	-1E+10	1	-1E+10	1	-1E+10	1	-1E+10	1	-1E+10	1
4902549	82	C	11/18/2022	10:10	-132.975	47.243	0	1855.70	0	2.0670	0	34.5640	0	27.627	0	1832.120	0	41.6	4	12.6	4	-1E+10	1	-1E+10	1	-1E+10	1	-1E+10	1	-1E+10	1	-1E+10	1
4902549	82	C	11/18/2022	10:10	-132.975	47.243	0	1865.40	0	2.0560	0	34.5640	0	27.628	0	1841.655	0	42.2	4	12.7	4	-1E+10	1	-1E+10	1	-1E+10	1	-1E+10	1	-1E+10	1	-1E+10	1
4902549	82	C	11/18/2022	10:10	-132.975	47.243	0	1875.30	0	2.0450	0	34.5660	0	27.630	0	1851.386	0	42.8	4	12.9	4	-1E+10	1	-1E+10	1	-1E+10	1	-1E+10	1	-1E+10	1	-1E+10	1
4902549	82	C	11/18/2022	10:10	-132.975	47.243	0	1885.40	0	2.0350	0	34.5670	0	27.632	0	1861.313	0	43.5	4	13.1	4	-1E+10	1	-1E+10	1	-1E+10	1	-1E+10	1	-1E+10	1	-1E+10	1
4902549	82	C	11/18/2022	10:10	-132.975	47.243	0	1895.40	0	2.0300	0	34.5690	0	27.634	0	1871.141	0	44.3	4	13.4	4	-1E+10	1	-1E+10	1	-1E+10	1	-1E+10	1	-1E+10	1	-1E+10	1
4902549	82	C	11/18/2022	10:10	-132.975	47.243	0	1905.30	0	2.0200	0	34.5710	0	27.637	0	1880.871	0	45.0	4	13.6	4	-1E+10	1	-1E+10	1	-1E+10	1	-1E+10	1	-1E+10	1	-1E+10	1
4902549	82	C	11/18/2022	10:10	-132.975	47.243	0	1915.70	0	2.0130	0	34.5730	0	27.639	0	1891.091	0	45.6	4	13.7	4	-1E+10	1	-1E+10	1	-1E+10	1	-1E+10	1	-1E+10	1	-1E+10	1
4902549	82	C	11/18/2022	10:10	-132.975	47.243	0	1925.50	0	2.0050	0	34.5740	0	27.640	0	1900.721	0	46.1	4	13.9	4	-1E+10	1	-1E+10	1	-1E+10	1	-1E+10	1	-1E+10	1	-1E+10	1
4902549	82	C	11/18/2022	10:10	-132.975	47.243	0	1935.30	0	1.9960	0	34.5750	0	27.642	0	1910.351	0	46.7	4	14.1	4	-1E+10	1	-1E+10	1	-1E+10	1	-1E+10	1	-1E+10	1	-1E+10	1
4902549	82	C	11/18/2022	10:10	-132.975	47.243	0	1945.60	0	1.9900	0	34.5760	0	27.643	0	1920.472	0	47.2	4	14.2	4	-1E+10	1	-1E+10	1	-1E+10	1	-1E+10	1	-1E+10	1	-1E+10	1
4902549	82	C	11/18/2022	10:10	-132.975	47.243	0	1955.40	0	1.9830	0	34.5780	0	27.645	0	1930.101	0	47.9	4	14.4	4	-1E+10	1	-1E+10	1	-1E+10	1	-1E+10	1	-1E+10	1	-1E+10	1
4902549	82	C	11/18/2022	10:10	-132.975	47.243	0	1965.20	0	1.9760	0	34.5790	0	27.647	0	1939.730	0	48.4	4	14.6	4	-1E+10	1	-1E+10	1	-1E+10	1	-1E+10	1	-1E+10	1	-1E+10	1
4902549	82	C	11/18/2022	10:10	-132.975	47.243	0	1975.20	0	1.9680	0	34.5800	0	27.648	0	1949.554	0	48.9	4	14.7	4	-1E+10	1	-1E+10	1	-1E+10	1	-1E+10	1	-1E+10	1	-1E+10	1
4902549	82	C	11/18/2022	10:10	-132.975	47.243	0	1985.30	0	1.9620	0	34.5810	0	27.649	0	1959.477	0	49.4	4	14.9	4	-1E+10	1	-1E+10	1	-1E+10	1	-1E+10	1	-1E+10	1	-1E+10	1
4902549	82	C	11/18/2022	10:10	-132.975	47.243	0	1995.00	0	1.9540	0	34.5830	0	27.652	0	1969.006	0	49.4	4	14.9	4	-1E+10	1	-1E+10	1	-1E+10	1	-1E+10	1	-1E+10	1	-1E+10	1
4902549	82	C	11/18/2022	10:10	-132.975	47.243	0																										
4902549	83	C	11/28/2022	15:07	-133.134	47.286	0	0.60	0	11.9910	0	32.2980	0	24.493	0	0.595	0	-1e10	1	-1e10	1	-1E+10	1	-1E+10	1	-1E+10	1	-1E+10	1	-1E+10	1	-1E+10	1
4902549	83	C	11/28/2022	15:07	-133.134	47.286	0	0.80	0	12.0090	0	32.2970	0	24.489	0	0.793	0	252.6	4	94.1	4	-1E+10	1	-1E+10	1	-1E+10	1	-1E+10	1	-1E+10	1	-1E+10	1
4902549	83	C	11/28/2022	15:07	-133.134	47.286	0	2.10	0	12.0120	0	32.2950	0	24.487	0	2.083	0	252.5	4	94.1	4	-1E+10	1	-1E+10	1	-1E+10	1	-1E+10	1	-1E+10	1	-1E+10	1
4902549	83	C	11/28/2022	15:07	-133.134	47.286	0	3.10	0	12.0120	0	32.2950	0	24.487	0	3.074	0	252.5	4	94.1	4	-1E+10	1	-1E+10	1	-1E+10	1	-1E+10	1	-1E+10	1	-1E+10	1
4902549	83	C	11/28/2022	15:07	-133.134	47.286	0	3.90	0	12.0090	0	32.2980	0	24.490	0	3.867	0	252.5	4	94.1	4	-1E+10	1	-1E+10	1	-1E+10	1	-1E+10	1	-1E+10	1	-1E+10	1
4902549	83	C	11/28/2022	15:07	-133.134	47.286	0	4.90	0	12.0120	0	32.2980	0	24.490	0	4.859	0	252.5	4	94.1	4	-1E+10	1	-1E+10	1	-1E+10	1	-1E+10	1	-1E+10	1	-1E+10	1
4902549	83	C	11/28/2022	15:07	-133.134	47.286	0	5.10	0	12.0120	0	32.2980	0	24.490	0	5.057	0	252.5	4	94.1	4	-1E+10	1	-1E+10	1	-1E+10	1	-1E+10	1	-1E+10	1	-1E+10	1
4902549	83	C	11/28/2022	15:07	-133.134	47.286	0	5.90	0	12.0120	0	32.2980	0	24.490	0	5.851	0	252.4	4	94.1	4	-1E+10	1	-1E+10	1	-1E+10	1	-1E+10	1	-1E+10	1	-1E+10	1
4902549	83	C	11/28/2022	15:07	-133.134	47.286	0	6.90	0	12.0120	0	32.2980	0	24.490	0	6.842	0	252.4	4	94.1	4	-1E+10	1	-1E+10	1	-1E+10	1	-1E+10	1	-1E+10	1	-1E+10	1
4902549	83	C	11/28/2022	15:07	-133.134	47.286	0	7.80	0	12.0110	0	32.2990	0	24.491	0	7.735	0	252.3	4	94.1	4	-1E+10	1	-1E+10	1	-1E+10	1	-1E+10	1	-1E+10	1	-1E+10	1
4902549	83	C	11/28/2022	15:07	-133.134	47.286	0	9.00	0	12.0110	0	32.2990	0	24.491	0	8.925	0	252.4	4	94.1	4	-1E+10	1	-1E+10	1	-1E+10	1	-1E+10	1	-1E+10	1	-1E+10	1
4902549	83	C	11/28/2022	15:07	-133.134	47.286	0	10.00	0	12.0110	0	32.2990	0	24.491	0	9.916	0	252.4	4	94.1	4	-1E+10	1	-1E+10	1	-1E+10	1	-1E+10	1	-1E+10	1	-1E+10	1
4902549	83	C	11/28/2022	15:07	-133.134	47.286	0	10.90	0	12.0120	0	32.2980	0	24.490	0	10.809	0	252.4	4	94.1	4	-1E+10	1	-1E+10	1	-1E+10	1	-1E+10	1	-1E+10	1	-1E+10	1
4902549	83	C	11/28/2022	15:07	-133.134	47.286	0	11.90	0	12.0110	0	32.2980	0	24.490	0	11.801	0	252.4	4	94.1	4	-1E+10	1	-1E+10	1	-1E+10	1	-1E+10	1	-1E+10	1	-1E+10	1
4902549	83	C	11/28/2022	15:07	-133.134	47.286	0	12.80	0	12.0100	0	32.2990	0	24.491	0	12.693	0	252.3	4	94.1	4	-1E+10	1	-1E+10	1	-1E+10	1	-1E+10	1	-1E+10	1	-1E+10	1
4902549	83	C	11/28/2022	15:07	-133.134	47.286	0	13.80	0	12.0110	0	32.2980	0	24.490	0	13.685	0	252.3	4	94.1	4	-1E+10	1	-1E+10	1	-1E+10	1	-1E+10	1	-1E+10	1	-1E+10	1
4902549	83	C	11/28/2022	15:07	-133.134	47.286	0	14.80	0	12.0140	0	32.2980	0	24.490	0	14.676	0	252.3	4	94.0	4	-1E+10	1	-1E+10	1	-1E+10	1	-1E+10	1	-1E+10	1	-1E+10	1
4902549	83	C	11/28/2022	15:07	-133.134	47.286	0	16.00	0	12.0160	0	32.2980	0	24.489	0	15.866	0	252.2	4	94.0	4	-1E+10	1	-1E+10	1	-1E+10	1	-1E+10	1	-1E+10	1	-1E+10	1
4902549	83	C	11/28/2022	15:07	-133.134	47.286	0	17.00	0	12.0170	0	32.2980	0	24.489	0	16.858	0	252.3	4	94.1	4	-1E+10	1	-1E+10	1	-1E+10	1	-1E+10	1	-1E+10	1	-1E+10	1
4902549	83	C	11/28/2022	15:07	-133.134	47.286	0	18.10	0	12.0150	0	32.2990	0	24.490	0	17.949	0	252.3	4	94.1	4	-1E+10	1	-1E+10	1	-1E+10	1	-1E+10	1	-1E+10	1	-1E+10	1
4902549	83	C	11/28/2022	15:07	-133.134	47.286	0	19.10	0	12.0140	0	32.2980	0	24.490	0	18.940	0	252.2	4	94.0	4	-1E+10	1	-1E+10	1	-1E+10	1	-1E+10	1	-1E+10	1	-1E+10	1
4902549	83	C	11/28/2022	15:07	-133.134	47.286	0	20.00	0	12.0160	0	32.2980	0	24.489	0	19.833	0	252.2	4	94.0	4	-1E+10	1	-1E+10	1	-1E+10	1	-1E+10	1	-1E+10	1	-1E+10	1
4902549	83	C	11/28/2022	15:07	-133.134	47.286	0	20.90	0	12.0190	0	32.2980	0	24.489	0	20.725	0	252.1	4	94.0	4	-1E+10	1	-1E+10	1	-1E+10	1	-1E+10	1	-1E+10	1	-1E+10	1
4902549	83	C	11/28/2022	15:07	-133.134	47.286	0	22.00	0	12.0160	0	32.2990	0	24.490	0	21.816	0	252.3	4	94.0	4	-1E+10	1	-1E+10	1	-1E+10	1	-1E+10	1	-1E+10	1	-1E+10	1
4902549	83	C	11/28/2022	15:07	-133.134	47.286	0	22.90	0	12.0170	0	32.2990	0	24.490	0	22.708	0	252.2	4	94.0	4	-1E+10	1	-1E+10	1	-1E+10	1	-1E+10	1	-1E+10	1	-1E+10	1
4902549	83	C	11/28/2022	15:07	-133.134	47.286	0	23.80	0	12.0190	0	32.2980	0	24.489	0	23.600	0	252.2	4	94.0	4	-1E+10	1	-1E+10	1	-1E+10	1	-1E+10	1	-1E+10	1	-1E+10	1
4902549	83	C	11/28/2022	15:07	-133.134	47.286	0	25.10	0	12.0200	0	32.2980	0	24.489	0	24.889	0	252.1	4	94.0	4	-1E+10	1	-1E+10	1	-1E+10	1	-1E+10	1	-1E+10	1	-1E+10	1
4902549	83	C	11/28/2022	15:07	-133.134	47.286	0	26.20	0	12.0210	0	32.2980	0	24.489	0	25.980	0	252.3	4	94.1	4	-1E+10	1	-1E+10	1	-1E+10	1	-1E+10	1	-1E+10	1	-1E+10	1
4902549	83	C	11/28/2022	15:07	-133.134	47.286	0	26.80	0	12.0210	0	32.2980	0	24.489	0	26.575	0	252.1	4	94.0	4	-1E+10	1	-1E+10	1	-1E+10	1	-1E+10	1	-1E+10	1	-1E+10	1
4902549	83	C	11/28/2022	15:07	-133.134	47.286	0	27.90	0	12.0210	0	32.2980	0	24.489	0	27.666	0	252.1	4	94.0	4	-1E+10	1	-1E+10	1	-1E+10	1	-1E+10	1	-1E+10	1	-1E+10	1
4902549	83	C	11/28/2022	15:07	-133.134	47.286	0	29.00	0	12.0220	0	32.2980	0	24.488	0	28.757	0	252.2	4	94.0	4	-1E+10	1	-1E+10	1	-1E+10	1	-1E+10	1	-1E+10	1	-1E+10	1
4902549	83	C	11/28/2022	15:07	-133.134	47.286	0	30.00	0	12.0220	0	32.2980	0	24.488	0	29.748	0	252.1	4	94.0	4	-1E+10	1	-1E+10	1	-1E+10	1	-1E+10	1	-1E+10	1	-1E+10	1
4902549	83	C	11/28/2022	15:07	-133.134	47.286	0	31.00	0	12.0200	0	32.2990	0	24.490	0	30.740	0	252.1	4	94.0	4	-1E+10	1	-1E+10	1	-1E+10	1	-1E+10	1	-1E+10	1	-1E+10	1
4902549	83	C	11/28/2022	15:07	-133.134	47.286	0	31.90	0	12.0210	0	32.2980	0	24.489	0	31.632	0	252.1	4	94.0	4	-1E+10	1	-1E+10	1	-1E+10	1	-1E+10	1	-1E+10	1	-1E+10	1
4902549	83	C	11/28/2022	15:07	-133.134	47.286	0	33.10	0	12.0230	0	32.2990	0	24.489	0	32.822	0	252.0	4	94.0	4	-1E+10	1	-1E+10	1	-1E+10	1	-1E+10	1	-1E+10	1	-1E+10	1
4902549	83	C	11/28/2022	15:07	-133.134	47.286	0	34.10	0	12.0220	0	32.2990	0	24.489	0	33.813	0	252.0	4	93.9	4	-1E+10	1	-1E+10	1	-1E+10	1	-1E+10	1	-1E+10	1	-1E+10	1
4902549	83	C	11/28/2022	15:07	-133.134	47.286	0	35.10	0	12.0240	0	32.2980	0	24.488	0	34.805	0	251.9	4	93.9	4	-1E+10	1	-1E+10	1	-1E+10	1	-1E+10	1	-1E+10	1	-1E+10	1
4902549	83	C	11/28/2022	15:07	-133.134	47.286	0	35.90	0	12.0230	0	32.2980	0	24.488	0	35.598	0	251.9	4	93.9	4	-1E+10	1	-1E+10	1	-1E+10	1	-1E+10	1	-1E+10	1	-1E+10	1
4902549	83	C	11/28/2022	15:07	-133.134	47.286	0	37.00	0	12.0240	0	32.2980	0	24.488	0	36.689	0	251.8	4	93.9	4	-1E+10	1	-1E+10	1	-1E+10	1	-1E+10	1	-1E+10	1	-1E+10	1
4902549	83	C	11/28/2022	15:07	-133.134	47.286	0	38.10	0	12.0240	0	32.2980	0	24.488	0	37.779	0	251.9	4	93.9	4	-1E+10	1	-1E+10	1	-1E+10	1	-1E+10	1	-1E+10	1	-1E+10	1
4902549	83	C	11/28/2022	15:07	-133.134	47.286	0	39.00	0	12.0250	0	32.2980	0	24.488	0	38.672	0	251.8	4	93.9	4	-1E+10	1	-1E+10	1	-1E+10	1	-1E+10	1	-1E+10	1	-1E+10	1
4902549	83	C	11/28/2022	15:07	-133.134	47.286	0	40.20	0	12.0230	0	32.2980	0	24.488	0	39.861	0	251.7	4	93.8	4	-1E+10	1	-1E+10	1	-1E+10	1	-1E+10	1	-1E+10	1	-1E+10	1
4902549	83	C	11/28/2022	15:07	-133.134	47.286	0	41.00	0	12.0230	0	32.2980	0	24.488	0	40.655	0	251.7	4	93.8	4	-1E+10	1	-1E+10	1	-1E+10	1	-1E+10	1	-1E+10	1	-1E+10	1
4902549	83	C	11/28/2022	15:07	-133.134	47.286	0	42.10	0	12.0230	0	32.2990	0	24.489	0	41.745	0	251.7	4	93.8	4	-1E+10	1	-1E+10	1	-1E+10	1	-1E+10	1	-1E+10	1	-1E+10	1
4902549	83	C	11/28/2022	15:07	-133.134	47.286	0	43.10	0	12.0240	0	32.2980	0	24.488	0	42.737	0	251.6	4	93.8	4	-1E+10	1	-1E+10	1	-1E+10	1	-1E+10	1	-1E+10	1	-1E+10	1
4902549	83	C	11/28/2022	15:07	-133.134	47.286	0	44.10	0	12.0240	0	32.2980	0	24.488	0	43.728	0	251.5	4	93.8	4	-1E+10	1	-1E+10	1	-1E+10	1	-1E+10	1	-1E+10	1	-1E+10	1
4902549	83	C	11/28/2022	15:07	-133.134	47.286	0	45.10	0	12.0230	0	32.2990	0	24.489	0	44.720	0	251.5	4	93.8	4	-1E+10	1	-1E+10	1	-1E+10	1	-1E+10	1	-1E+10	1	-1E+10	1
4902549	83	C	11/28/2022	15:07	-133.134	47.286	0	46.10	0	12.0250	0	32.2980	0	24.488	0	45.711	0	251.5	4	93.8	4	-1E+10	1	-1E+10	1	-1E+10	1	-1E+10	1	-1E+10	1	-1E+10	1
4902549	83	C	11/28/2022	15:07	-133.134	47.286	0	47.00	0	12.0250	0	32.2980	0	24.488	0	46.603	0	251.3	4	93.7	4	-1E+10	1	-1E+10	1	-1E+10	1	-1E+10	1	-1E+10	1	-1E+10	1
4902549	83	C	11/28/2022	15:07	-133.134	47.286	0	48.20	0	12.0230	0	32.2990	0	24.489	0	47.793	0	251.4	4	93.7	4	-1E+10	1	-1E+10	1	-1E+10	1	-1E+10	1	-1E+10	1	-1E+10	1
4902549	83	C	11/28/2022	15:07	-133.134	47.286	0	49.00	0	12.0220	0	32.2980	0	24.489	0	48.586	0	251.4	4	93.7	4	-1E+10	1	-1E+10	1	-1E+10	1	-1E+10	1	-1E+10	1	-1E+10	1
4902549	83	C	11/28/2022	15:07	-133.134	47.286	0	50.00	0	12.0220	0	32.2990	0	24.490	0	49.578	0	251.3	4	93.7	4	-1E+10	1	-1E+10	1	-1E+10	1	-1E+10	1	-1E+10	1	-1E+10	1
4902549	83	C	11/28/2022	15:07	-133.134	47.286	0	51.00	0	12.0230	0	32.2990	0	24.489	0	50.569	0	251.3	4	93.7	4	-1E+10	1	-1E+10	1	-1E+10	1	-1E+10	1	-1E+10	1	-1E+10	1
4902549	83	C	11/28/2022	15:07	-133.134	47.286	0	52.10	0	12.0230	0	32.2980	0	24.489	0	51.660	0	251.2	4	93.6	4	-1E+10	1	-1E+10	1	-1E+10	1	-1E+10	1	-1E+10	1	-1E+10	1
4902549	83	C	11/28/2022	15:07	-133.134	47.286	0	52.90	0	12.0230	0	32.2980	0	24.489	0	52.453	0	251.2	4	93.6	4	-1E+10	1	-1E+10	1	-1E+10	1	-1E+10	1	-1E+10	1	-1E+10	1
4902549	83	C	11/28/2022	15:07	-133.134	47.286	0	54.10	0	12.0230	0	32.2980	0	24.489	0	53.643	0	251.0	4	93.6	4	-1E+10	1	-1E+10	1	-1E+10	1	-1E+10	1	-1E+10	1	-1E+10	1
4902549	83	C	11/28/2022	15:07	-133.134	47.286	0	55.00	0	12.0230	0	32.2980	0	24.489	0	54.535	0	250.9	4	93.6	4	-1E+10	1	-1E+10	1	-1E+10	1	-1E+10	1	-1E+10	1	-1E+10	1
4902549	83	C	11/28/2022	15:07	-133.134	47.286	0	56.00	0	12.0210	0	32.2980	0	24.489	0	55.526	0	250.9	4	93.6	4	-1E+10	1	-1E+10	1	-1E+10	1	-1E+10	1	-1E+10	1	-1E+10	1
4902549	83	C	11/28/2022	15:07	-133.134	47.286	0	57.10	0	12.0210	0	32.2980	0	24.489	0	56.617	0	250.8	4	93.5	4	-1E+10	1	-1E+10	1	-1E+10	1	-1E+10	1	-1E+10	1	-1E+10	1
4902549	83	C	11/28/2022	15:07	-133.134	47.286	0	58.10	0	12.0170	0	32.2980	0	24.490	0	57.608	0	250.6	4	93.4	4	-1E+10	1	-1E+10	1	-1E+10	1	-1E+10	1	-1E+10	1	-1E+10	1
4902549	83	C	11/28/2022	15:07	-133.134	47.286	0	59.00	0	12.0030	0	32.3010	0	24.495	0	58.500	0	250.5	4	93.4	4	-1E+10	1	-1E+10	1	-1E+10	1	-1E+10	1	-1E+10	1	-1E+10	1
4902549	83	C	11/28/2022	15:07	-133.134	47.286	0	60.10	0	12.0080	0	32.3040	0	24.496	0	59.591	0	250.3	4	93.3	4	-1E+10	1	-1E+10	1	-1E+10	1	-1E+10	1	-1E+10	1	-1E+10	1
4902549	83	C	11/28/2022	15:07	-133.134	47.286	0	60.80	0	12.0200	0	32.2970	0	24.489	0	60.285	0	250.1	4	93.2	4	-1E+10	1	-1E+10	1	-1E+10	1	-1E+10	1	-1E+10	1	-1E+10	1
4902549	83	C	11/28/2022	15:07	-133.134	47.286	0	61.80	0	12.0170	0	32.2960	0	24.489	0	61.276	0	249.8	4	93.1	4	-1E+10	1	-1E+10	1	-1E+10	1	-1E+10	1	-1E+10	1	-1E+10	1
4902549	83	C	11/28/2022	15:07	-133.134	47.286	0	62.90	0	11.9890	0	32.2960	0	24.494	0	62.367	0	249.3	4	92.9	4	-1E+10	1	-1E+10	1	-1E+10	1	-1E+10	1	-1E+10	1	-1E+10	1
4902549	83	C	11/28/2022	15:07	-133.134	47.286	0	64.10	0	11.9050	0	32.2800	0	24.497	0	63.556	0	249.2	4	92.7	4	-1E+10	1	-1E+10	1	-1E+10	1	-1E+10	1	-1E+10	1	-1E+10	1
4902549	83	C	11/28/2022	15:07	-133.134	47.286	0	65.10	0	11.4800	0	32.2540	0	24.554	0	64.548	0	250.1	4	92.2	4	-1E+10	1	-1E+10	1	-1E+10	1	-1E+10	1	-1E+10	1	-1E+10	1
4902549	83	C	11/28/2022	15:07	-133.134	47.286	0	66.10	0	11.2550	0	32.2860	0	24.620	0	65.539	0	248.9	4	91.3	4	-1E+10	1	-1E+10	1	-1E+10	1	-1E+10	1	-1E+10	1	-1E+10	1
4902549	83	C	11/28/2022	15:07	-133.134	47.286	0	67.10	0	9.8740	0	32.3730	0	24.924	0	66.530	0	251.1	4	89.5	4	-1E+10	1	-1E+10	1	-1E+10	1	-1E+10	1	-1E+10	1	-1E+10	1
4902549	83	C	11/28/2022	15:07	-133.134	47.286	0	68.20	0	8.7770	0	32.3500	0	25.079	0	67.621	0	254.8	4	88.6	4	-1E+10	1	-1E+10	1	-1E+10	1	-1E+10	1	-1E+10	1	-1E+10	1
4902549	83	C	11/28/2022	15:07	-133.134	47.286	0	69.10	0	8.6960	0	32.3560	0	25.096	0	68.513	0	254.8	4	88.5	4	-1E+10	1	-1E+10	1	-1E+10	1	-1E+10	1	-1E+10	1	-1E+10	1
4902549	83	C	11/28/2022	15:07	-133.134	47.286	0	69.90	0	8.6730	0	32.3570	0	25.101	0	69.306	0	254.6	4	88.4	4	-1E+10	1	-1E+10	1	-1E+10	1	-1E+10	1	-1E+10	1	-1E+10	1
4902549	83	C	11/28/2022	15:07	-133.134	47.286	0	71.00	0	8.6110	0	32.3610	0	25.113	0	70.397	0	254.5	4	88.2	4	-1E+10	1	-1E+10	1	-1E+10	1	-1E+10	1	-1E+10	1	-1E+10	1
4902549	83	C	11/28/2022	15:07	-133.134	47.286	0	72.10	0	8.6030	0	32.3630	0	25.116	0	71.487	0	254.2	4	88.1	4	-1E+10	1	-1E+10	1	-1E+10	1	-1E+10	1	-1E+10	1	-1E+10	1
4902549	83	C	11/28/2022	15:07	-133.134	47.286	0	73.10	0	8.6040	0	32.3650	0	25.117	0	72.478	0	253.7	4	87.9	4	-1E+10	1	-1E+10	1	-1E+10	1	-1E+10	1	-1E+10	1	-1E+10	1
4902549	83	C	11/28/2022	15:07	-133.134	47.286	0	74.00	0	8.6160	0	32.3730	0	25.122	0	73.371	0	253.2	4	87.8	4	-1E+10	1	-1E+10	1	-1E+10	1	-1E+10	1	-1E+10	1	-1E+10	1
4902549	83	C	11/28/2022	15:07	-133.134	47.286	0	74.90	0	8.6290	0	32.3840	0	25.128	0	74.263	0	252.7	4	87.6	4	-1E+10	1	-1E+10	1	-1E+10	1	-1E+10	1	-1E+10	1	-1E+10	1
4902549	83	C	11/28/2022	15:07	-133.134	47.286	0	76.10	0	8.5610	0	32.3940	0	25.147	0	75.452	0	252.2	4	87.3	4	-1E+10	1	-1E+10	1	-1E+10	1	-1E+10	1	-1E+10	1	-1E+10	1
4902549	83	C	11/28/2022	15:07	-133.134	47.286	0	76.80	0	8.4690	0	32.3930	0	25.160	0	76.146	0	252.1	4	87.1	4	-1E+10	1	-1E+10	1	-1E+10	1	-1E+10	1	-1E+10	1	-1E+10	1
4902549	83	C	11/28/2022	15:07	-133.134	47.286	0	77.80	0	8.3580	0	32.3850	0	25.170	0	77.138	0	252.5	4	87.1	4	-1E+10	1	-1E+10	1	-1E+10	1	-1E+10	1	-1E+10	1	-1E+10	1
4902549	83	C	11/28/2022	15:07	-133.134	47.286	0	78.80	0	8.4200	0	32.4060	0	25.177	0	78.129	0	251.7	4	86.9	4	-1E+10	1	-1E+10	1	-1E+10	1	-1E+10	1	-1E+10	1	-1E+10	1
4902549	83	C	11/28/2022	15:07	-133.134	47.286	0	79.80	0	8.2940	0	32.3970	0	25.189	0	79.120	0	252.0	4	86.7	4	-1E+10	1	-1E+10	1	-1E+10	1	-1E+10	1	-1E+10	1	-1E+10	1
4902549	83	C	11/28/2022	15:07	-133.134	47.286	0	80.80	0	8.2510	0	32.4060	0	25.202	0	80.112	0	251.8	4	86.6	4	-1E+10	1	-1E+10	1	-1E+10	1	-1E+10	1	-1E+10	1	-1E+10	1
4902549	83	C	11/28/2022	15:07	-133.134	47.286	0	81.90	0	8.1470	0	32.4140	0	25.224	0	81.202	0	252.2	4	86.6	4	-1E+10	1	-1E+10	1	-1E+10	1	-1E+10	1	-1E+10	1	-1E+10	1
4902549	83	C	11/28/2022	15:07	-133.134	47.286	0	83.10	0	8.1360	0	32.4190	0	25.229	0	82.391	0	251.9	4	86.4	4	-1E+10	1	-1E+10	1	-1E+10	1	-1E+10	1	-1E+10	1	-1E+10	1
4902549	83	C	11/28/2022	15:07	-133.134	47.286	0	84.00	0	8.1350	0	32.4210	0	25.231	0	83.284	0	258.0	4	88.5	4	-1E+10	1	-1E+10	1	-1E+10	1	-1E+10	1	-1E+10	1	-1E+10	1
4902549	83	C	11/28/2022	15:07	-133.134	47.286	0	84.80	0	8.1240	0	32.4220	0	25.233	0	84.077	0	257.7	4	88.4	4	-1E+10	1	-1E+10	1	-1E+10	1	-1E+10	1	-1E+10	1	-1E+10	1
4902549	83	C	11/28/2022	15:07	-133.134	47.286	0	86.00	0	8.0880	0	32.4300	0	25.245	0	85.266	0	257.3	4	88.2	4	-1E+10	1	-1E+10	1	-1E+10	1	-1E+10	1	-1E+10	1	-1E+10	1
4902549	83	C	11/28/2022	15:07	-133.134	47.286	0	87.00	0	8.0650	0	32.4380	0	25.254	0	86.257	0	256.7	4	88.0	4	-1E+10	1	-1E+10	1	-1E+10	1	-1E+10	1	-1E+10	1	-1E+10	1
4902549	83	C	11/28/2022	15:07	-133.134	47.286	0	87.90	0	8.0070	0	32.4420	0	25.266	0	87.150	0	256.7	4	87.8	4	-1E+10	1	-1E+10	1	-1E+10	1	-1E+10	1	-1E+10	1	-1E+10	1
4902549	83	C	11/28/2022	15:07	-133.134	47.286	0	88.90	0	7.9650	0	32.4450	0	25.274	0	88.141	0	256.3	4	87.6	4	-1E+10	1	-1E+10	1	-1E+10	1	-1E+10	1	-1E+10	1	-1E+10	1
4902549	83	C	11/28/2022	15:07	-133.134	47.286	0	89.80	0	7.9630	0	32.4490	0	25.278	0	89.033	0	255.8	4	87.4	4	-1E+10	1	-1E+10	1	-1E+10	1	-1E+10	1	-1E+10	1	-1E+10	1
4902549	83	C	11/28/2022	15:07	-133.134	47.286	0	91.10	0	7.9300	0	32.4520	0	25.285	0	90.322	0	255.2	4	87.2	4	-1E+10	1	-1E+10	1	-1E+10	1	-1E+10	1	-1E+10	1	-1E+10	1
4902549	83	C	11/28/2022	15:07	-133.134	47.286	0	92.00	0	7.8850	0	32.4550	0	25.294	0	91.214	0	254.8	4	86.9	4	-1E+10	1	-1E+10	1	-1E+10	1	-1E+10	1	-1E+10	1	-1E+10	1
4902549	83	C	11/28/2022	15:07	-133.134	47.286	0	92.90	0	7.8370	0	32.4630	0	25.307	0	92.106	0	254.5	4	86.7	4	-1E+10	1	-1E+10	1	-1E+10	1	-1E+10	1	-1E+10	1	-1E+10	1
4902549	83	C	11/28/2022	15:07	-133.134	47.286	0	93.90	0	7.8150	0	32.4680	0	25.314	0	93.097	0	253.8	4	86.5	4	-1E+10	1	-1E+10	1	-1E+10	1	-1E+10	1	-1E+10	1	-1E+10	1
4902549	83	C	11/28/2022	15:07	-133.134	47.286	0	94.90	0	7.7830	0	32.4730	0	25.322	0	94.088	0	253.2	4	86.2	4	-1E+10	1	-1E+10	1	-1E+10	1	-1E+10	1	-1E+10	1	-1E+10	1
4902549	83	C	11/28/2022	15:07	-133.134	47.286	0	96.00	0	7.7630	0	32.4770	0	25.328	0	95.179	0	252.0	4	85.8	4	-1E+10	1	-1E+10	1	-1E+10	1	-1E+10	1	-1E+10	1	-1E+10	1
4902549	83	C	11/28/2022	15:07	-133.134	47.286	0	97.20	0	7.7620	0	32.4810	0	25.332	0	96.368	0	250.2	4	85.2	4	-1E+10	1	-1E+10	1	-1E+10	1	-1E+10	1	-1E+10	1	-1E+10	1
4902549	83	C	11/28/2022	15:07	-133.134	47.286	0	98.10	0	7.7410	0	32.4890	0	25.341	0	97.260	0	248.4	4	84.5	4	-1E+10	1	-1E+10	1	-1E+10	1	-1E+10	1	-1E+10	1	-1E+10	1
4902549	83	C	11/28/2022	15:07	-133.134	47.286	0	99.00	0	7.6960	0	32.5250	0	25.376	0	98.152	0	246.4	4	83.8	4	-1E+10	1	-1E+10	1	-1E+10	1	-1E+10	1	-1E+10	1	-1E+10	1
4902549	83	C	11/28/2022	15:07	-133.134	47.286	0	99.90	0	7.6470	0	32.5560	0	25.407	0	99.044	0	245.2	4	83.3	4	-1E+10	1	-1E+10	1	-1E+10	1	-1E+10	1	-1E+10	1	-1E+10	1
4902549	83	C	11/28/2022	15:07	-133.134	47.286	0	100.90	0	7.6160	0	32.5720	0	25.424	0	100.035	0	244.0	4	82.8	4	-1E+10	1	-1E+10	1	-1E+10	1	-1E+10	1	-1E+10	1	-1E+10	1
4902549	83	C	11/28/2022	15:07	-133.134	47.286	0	102.00	0	7.5840	0	32.5900	0	25.442	0	101.126	0	242.9	4	82.4	4	-1E+10	1	-1E+10	1	-1E+10	1	-1E+10	1	-1E+10	1	-1E+10	1
4902549	83	C	11/28/2022	15:07	-133.134	47.286	0	103.20	0	7.5750	0	32.6020	0	25.453	0	102.315	0	241.9	4	82.1	4	-1E+10	1	-1E+10	1	-1E+10	1	-1E+10	1	-1E+10	1	-1E+10	1
4902549	83	C	11/28/2022	15:07	-133.134	47.286	0	103.80	0	7.5740	0	32.6040	0	25.455	0	102.910	0	240.9	4	81.7	4	-1E+10	1	-1E+10	1	-1E+10	1	-1E+10	1	-1E+10	1	-1E+10	1
4902549	83	C	11/28/2022	15:07	-133.134	47.286	0	104.90	0	7.5710	0	32.6060	0	25.457	0	104.000	0	239.4	4	81.2	4	-1E+10	1	-1E+10	1	-1E+10	1	-1E+10	1	-1E+10	1	-1E+10	1
4902549	83	C	11/28/2022	15:07	-133.134	47.286	0	106.00	0	7.5620	0	32.6120	0	25.463	0	105.090	0	237.7	4	80.6	4	-1E+10	1	-1E+10	1	-1E+10	1	-1E+10	1	-1E+10	1	-1E+10	1
4902549	83	C	11/28/2022	15:07	-133.134	47.286	0	107.20	0	7.5470	0	32.6250	0	25.475	0	106.280	0	235.9	4	80.0	4	-1E+10	1	-1E+10	1	-1E+10	1	-1E+10	1	-1E+10	1	-1E+10	1
4902549	83	C	11/28/2022	15:07	-133.134	47.286	0	107.90	0	7.5400	0	32.6510	0	25.497	0	106.974	0	234.7	4	79.6	4	-1E+10	1	-1E+10	1	-1E+10	1	-1E+10	1	-1E+10	1	-1E+10	1
4902549	83	C	11/28/2022	15:07	-133.134	47.286	0	109.00	0	7.5300	0	32.6860	0	25.525	0	108.064	0	233.2	4	79.1	4	-1E+10	1	-1E+10	1	-1E+10	1	-1E+10	1	-1E+10	1	-1E+10	1
4902549	83	C	11/28/2022	15:07	-133.134	47.286	0	110.10	0	7.4990	0	32.7110	0	25.549	0	109.154	0	227.6	4	77.1	4	-1E+10	1	-1E+10	1	-1E+10	1	-1E+10	1	-1E+10	1	-1E+10	1
4902549	83	C	11/28/2022	15:07	-133.134	47.286	0	111.10	0	7.4710	0	32.7810	0	25.608	0	110.145	0	223.5	4	75.7	4	-1E+10	1	-1E+10	1	-1E+10	1	-1E+10	1	-1E+10	1	-1E+10	1
4902549	83	C	11/28/2022	15:07	-133.134	47.286	0	112.00	0	7.4630	0	32.8440	0	25.659	0	111.037	0	222.0	4	75.3	4	-1E+10	1	-1E+10	1	-1E+10	1	-1E+10	1	-1E+10	1	-1E+10	1
4902549	83	C	11/28/2022	15:07	-133.134	47.286	0	113.10	0	7.4520	0	32.8780	0	25.687	0	112.128	0	221.0	4	74.9	4	-1E+10	1	-1E+10	1	-1E+10	1	-1E+10	1	-1E+10	1	-1E+10	1
4902549	83	C	11/28/2022	15:07	-133.134	47.286	0	113.90	0	7.4470	0	32.8900	0	25.697	0	112.920	0	220.3	4	74.7	4	-1E+10	1	-1E+10	1	-1E+10	1	-1E+10	1	-1E+10	1	-1E+10	1
4902549	83	C	11/28/2022	15:07	-133.134	47.286	0	115.20	0	7.4420	0	32.9010	0	25.707	0	114.209	0	219.1	4	74.3	4	-1E+10	1	-1E+10	1	-1E+10	1	-1E+10	1	-1E+10	1	-1E+10	1
4902549	83	C	11/28/2022	15:07	-133.134	47.286	0	116.00	0	7.4370	0	32.9150	0	25.719	0	115.002	0	218.5	4	74.1	4	-1E+10	1	-1E+10	1	-1E+10	1	-1E+10	1	-1E+10	1	-1E+10	1
4902549	83	C	11/28/2022	15:07	-133.134	47.286	0	116.90	0	7.4350	0	32.9190	0	25.722	0	115.894	0	217.8	4	73.8	4	-1E+10	1	-1E+10	1	-1E+10	1	-1E+10	1	-1E+10	1	-1E+10	1
4902549	83	C	11/28/2022	15:07	-133.134	47.286	0	118.00	0	7.4320	0	32.9260	0	25.728	0	116.984	0	216.7	4	73.4	4	-1E+10	1	-1E+10	1	-1E+10	1	-1E+10	1	-1E+10	1	-1E+10	1
4902549	83	C	11/28/2022	15:07	-133.134	47.286	0	119.20	0	7.4280	0	32.9360	0	25.736	0	118.173	0	215.4	4	73.0	4	-1E+10	1	-1E+10	1	-1E+10	1	-1E+10	1	-1E+10	1	-1E+10	1
4902549	83	C	11/28/2022	15:07	-133.134	47.286	0	120.10	0	7.4230	0	32.9450	0	25.744	0	119.065	0	214.2	4	72.6	4	-1E+10	1	-1E+10	1	-1E+10	1	-1E+10	1	-1E+10	1	-1E+10	1
4902549	83	C	11/28/2022	15:07	-133.134	47.286	0	121.00	0	7.4170	0	32.9570	0	25.754	0	119.957	0	213.2	4	72.3	4	-1E+10	1	-1E+10	1	-1E+10	1	-1E+10	1	-1E+10	1	-1E+10	1
4902549	83	C	11/28/2022	15:07	-133.134	47.286	0	121.90	0	7.4160	0	32.9610	0	25.758	0	120.849	0	212.0	4	71.8	4	-1E+10	1	-1E+10	1	-1E+10	1	-1E+10	1	-1E+10	1	-1E+10	1
4902549	83	C	11/28/2022	15:07	-133.134	47.286	0	123.30	0	7.4130	0	32.9700	0	25.765	0	122.237	0	209.9	4	71.1	4	-1E+10	1	-1E+10	1	-1E+10	1	-1E+10	1	-1E+10	1	-1E+10	1
4902549	83	C	11/28/2022	15:07	-133.134	47.286	0	124.00	0	7.4080	0	32.9900	0	25.782	0	122.931	0	208.8	4	70.8	4	-1E+10	1	-1E+10	1	-1E+10	1	-1E+10	1	-1E+10	1	-1E+10	1
4902549	83	C	11/28/2022	15:07	-133.134	47.286	0	125.00	0	7.4040	0	33.0080	0	25.796	0	123.922	0	207.3	4	70.3	4	-1E+10	1	-1E+10	1	-1E+10	1	-1E+10	1	-1E+10	1	-1E+10	1
4902549	83	C	11/28/2022	15:07	-133.134	47.286	0	126.20	0	7.3960	0	33.0380	0	25.821	0	125.111	0	204.8	4	69.4	4	-1E+10	1	-1E+10	1	-1E+10	1	-1E+10	1	-1E+10	1	-1E+10	1
4902549	83	C	11/28/2022	15:07	-133.134	47.286	0	127.00	0	7.3860	0	33.0590	0	25.839	0	125.904	0	203.7	4	69.0	4	-1E+10	1	-1E+10	1	-1E+10	1	-1E+10	1	-1E+10	1	-1E+10	1
4902549	83	C	11/28/2022	15:07	-133.134	47.286	0	128.10	0	7.3700	0	33.0960	0	25.870	0	126.994	0	202.7	4	68.7	4	-1E+10	1	-1E+10	1	-1E+10	1	-1E+10	1	-1E+10	1	-1E+10	1
4902549	83	C	11/28/2022	15:07	-133.134	47.286	0	128.90	0	7.3580	0	33.1420	0	25.908	0	127.787	0	202.4	4	68.6	4	-1E+10	1	-1E+10	1	-1E+10	1	-1E+10	1	-1E+10	1	-1E+10	1
4902549	83	C	11/28/2022	15:07	-133.134	47.286	0	129.70	0	7.3570	0	33.1510	0	25.915	0	128.580	0	202.0	4	68.5	4	-1E+10	1	-1E+10	1	-1E+10	1	-1E+10	1	-1E+10	1	-1E+10	1
4902549	83	C	11/28/2022	15:07	-133.134	47.286	0	130.70	0	7.3560	0	33.1630	0	25.925	0	129.571	0	201.5	4	68.3	4	-1E+10	1	-1E+10	1	-1E+10	1	-1E+10	1	-1E+10	1	-1E+10	1
4902549	83	C	11/28/2022	15:07	-133.134	47.286	0	131.80	0	7.3530	0	33.1790	0	25.938	0	130.661	0	200.8	4	68.1	4	-1E+10	1	-1E+10	1	-1E+10	1	-1E+10	1	-1E+10	1	-1E+10	1
4902549	83	C	11/28/2022	15:07	-133.134	47.286	0	133.00	0	7.3480	0	33.2200	0	25.971	0	131.850	0	200.0	4	67.8	4	-1E+10	1	-1E+10	1	-1E+10	1	-1E+10	1	-1E+10	1	-1E+10	1
4902549	83	C	11/28/2022	15:07	-133.134	47.286	0	134.00	0	7.3420	0	33.2630	0	26.006	0	132.841	0	198.9	4	67.5	4	-1E+10	1	-1E+10	1	-1E+10	1	-1E+10	1	-1E+10	1	-1E+10	1
4902549	83	C	11/28/2022	15:07	-133.134	47.286	0	134.90	0	7.3390	0	33.2940	0	26.030	0	133.733	0	197.2	4	66.9	4	-1E+10	1	-1E+10	1	-1E+10	1	-1E+10	1	-1E+10	1	-1E+10	1
4902549	83	C	11/28/2022	15:07	-133.134	47.286	0	136.10	0	7.3400	0	33.3090	0	26.042	0	134.922	0	194.6	4	66.0	4	-1E+10	1	-1E+10	1	-1E+10	1	-1E+10	1	-1E+10	1	-1E+10	1
4902549	83	C	11/28/2022	15:07	-133.134	47.286	0	137.00	0	7.3390	0	33.3220	0	26.053	0	135.814	0	192.2	4	65.2	4	-1E+10	1	-1E+10	1	-1E+10	1	-1E+10	1	-1E+10	1	-1E+10	1
4902549	83	C	11/28/2022	15:07	-133.134	47.286	0	137.90	0	7.3330	0	33.3470	0	26.073	0	136.706	0	189.6	4	64.3	4	-1E+10	1	-1E+10	1	-1E+10	1	-1E+10	1	-1E+10	1	-1E+10	1
4902549	83	C	11/28/2022	15:07	-133.134	47.286	0	138.90	0	7.3310	0	33.3600	0	26.084	0	137.697	0	186.4	4	63.2	4	-1E+10	1	-1E+10	1	-1E+10	1	-1E+10	1	-1E+10	1	-1E+10	1
4902549	83	C	11/28/2022	15:07	-133.134	47.286	0	139.80	0	7.3220	0	33.3930	0	26.111	0	138.589	0	182.9	4	62.1	4	-1E+10	1	-1E+10	1	-1E+10	1	-1E+10	1	-1E+10	1	-1E+10	1
4902549	83	C	11/28/2022	15:07	-133.134	47.286	0	140.90	0	7.3230	0	33.4390	0	26.147	0	139.679	0	180.3	4	61.2	4	-1E+10	1	-1E+10	1	-1E+10	1	-1E+10	1	-1E+10	1	-1E+10	1
4902549	83	C	11/28/2022	15:07	-133.134	47.286	0	142.00	0	7.3160	0	33.4920	0	26.190	0	140.769	0	179.1	4	60.8	4	-1E+10	1	-1E+10	1	-1E+10	1	-1E+10	1	-1E+10	1	-1E+10	1
4902549	83	C	11/28/2022	15:07	-133.134	47.286	0	143.20	0	7.3150	0	33.4980	0	26.194	0	141.958	0	178.1	4	60.4	4	-1E+10	1	-1E+10	1	-1E+10	1	-1E+10	1	-1E+10	1	-1E+10	1
4902549	83	C	11/28/2022	15:07	-133.134	47.286	0	144.00	0	7.3170	0	33.5040	0	26.199	0	142.751	0	177.6	4	60.3	4	-1E+10	1	-1E+10	1	-1E+10	1	-1E+10	1	-1E+10	1	-1E+10	1
4902549	83	C	11/28/2022	15:07	-133.134	47.286	0	144.80	0	7.3150	0	33.5230	0	26.214	0	143.544	0	177.6	4	60.3	4	-1E+10	1	-1E+10	1	-1E+10	1	-1E+10	1	-1E+10	1	-1E+10	1
4902549	83	C	11/28/2022	15:07	-133.134	47.286	0	146.00	0	7.3130	0	33.5370	0	26.225	0	144.733	0	177.7	4	60.3	4	-1E+10	1	-1E+10	1	-1E+10	1	-1E+10	1	-1E+10	1	-1E+10	1
4902549	83	C	11/28/2022	15:07	-133.134	47.286	0	147.30	0	7.3110	0	33.5470	0	26.234	0	146.021	0	178.0	4	60.4	4	-1E+10	1	-1E+10	1	-1E+10	1	-1E+10	1	-1E+10	1	-1E+10	1
4902549	83	C	11/28/2022	15:07	-133.134	47.286	0	148.10	0	7.3070	0	33.5540	0	26.240	0	146.814	0	177.7	4	60.3	4	-1E+10	1	-1E+10	1	-1E+10	1	-1E+10	1	-1E+10	1	-1E+10	1
4902549	83	C	11/28/2022	15:07	-133.134	47.286	0	148.90	0	7.3030	0	33.5610	0	26.246	0	147.607	0	176.8	4	60.0	4	-1E+10	1	-1E+10	1	-1E+10	1	-1E+10	1	-1E+10	1	-1E+10	1
4902549	83	C	11/28/2022	15:07	-133.134	47.286	0	149.80	0	7.3000	0	33.5680	0	26.252	0	148.499	0	175.6	4	59.6	4	-1E+10	1	-1E+10	1	-1E+10	1	-1E+10	1	-1E+10	1	-1E+10	1
4902549	83	C	11/28/2022	15:07	-133.134	47.286	0	150.60	0	7.2970	0	33.5730	0	26.256	0	149.292	0	174.2	4	59.1	4	-1E+10	1	-1E+10	1	-1E+10	1	-1E+10	1	-1E+10	1	-1E+10	1
4902549	83	C	11/28/2022	15:07	-133.134	47.286	0	151.90	0	7.2830	0	33.5960	0	26.276	0	150.580	0	172.2	4	58.4	4	-1E+10	1	-1E+10	1	-1E+10	1	-1E+10	1	-1E+10	1	-1E+10	1
4902549	83	C	11/28/2022	15:07	-133.134	47.286	0	153.30	0	7.2750	0	33.6100	0	26.288	0	151.967	0	170.5	4	57.9	4	-1E+10	1	-1E+10	1	-1E+10	1	-1E+10	1	-1E+10	1	-1E+10	1
4902549	83	C	11/28/2022	15:07	-133.134	47.286	0	154.10	0	7.2730	0	33.6140	0	26.292	0	152.760	0	169.5	4	57.5	4	-1E+10	1	-1E+10	1	-1E+10	1	-1E+10	1	-1E+10	1	-1E+10	1
4902549	83	C	11/28/2022	15:07	-133.134	47.286	0	155.00	0	7.2700	0	33.6170	0	26.294	0	153.652	0	168.6	4	57.2	4	-1E+10	1	-1E+10	1	-1E+10	1	-1E+10	1	-1E+10	1	-1E+10	1
4902549	83	C	11/28/2022	15:07	-133.134	47.286	0	155.90	0	7.2650	0	33.6290	0	26.305	0	154.544	0	167.7	4	56.9	4	-1E+10	1	-1E+10	1	-1E+10	1	-1E+10	1	-1E+10	1	-1E+10	1
4902549	83	C	11/28/2022	15:07	-133.134	47.286	0	156.70	0	7.2600	0	33.6420	0	26.316	0	155.336	0	166.6	4	56.5	4	-1E+10	1	-1E+10	1	-1E+10	1	-1E+10	1	-1E+10	1	-1E+10	1
4902549	83	C	11/28/2022	15:07	-133.134	47.286	0	157.60	0	7.2580	0	33.6470	0	26.320	0	156.228	0	165.7	4	56.2	4	-1E+10	1	-1E+10	1	-1E+10	1	-1E+10	1	-1E+10	1	-1E+10	1
4902549	83	C	11/28/2022	15:07	-133.134	47.286	0	158.90	0	7.2520	0	33.6620	0	26.332	0	157.516	0	163.7	4	55.5	4	-1E+10	1	-1E+10	1	-1E+10	1	-1E+10	1	-1E+10	1	-1E+10	1
4902549	83	C	11/28/2022	15:07	-133.134	47.286	0	160.30	0	7.2290	0	33.6780	0	26.348	0	158.904	0	162.2	4	55.0	4	-1E+10	1	-1E+10	1	-1E+10	1	-1E+10	1	-1E+10	1	-1E+10	1
4902549	83	C	11/28/2022	15:07	-133.134	47.286	0	161.20	0	7.2090	0	33.6860	0	26.357	0	159.795	0	161.7	4	54.8	4	-1E+10	1	-1E+10	1	-1E+10	1	-1E+10	1	-1E+10	1	-1E+10	1
4902549	83	C	11/28/2022	15:07	-133.134	47.286	0	162.10	0	7.1750	0	33.7100	0	26.381	0	160.687	0	161.1	4	54.6	4	-1E+10	1	-1E+10	1	-1E+10	1	-1E+10	1	-1E+10	1	-1E+10	1
4902549	83	C	11/28/2022	15:07	-133.134	47.286	0	163.10	0	7.1760	0	33.7150	0	26.385	0	161.678	0	160.1	4	54.3	4	-1E+10	1	-1E+10	1	-1E+10	1	-1E+10	1	-1E+10	1	-1E+10	1
4902549	83	C	11/28/2022	15:07	-133.134	47.286	0	164.00	0	7.1740	0	33.7200	0	26.389	0	162.570	0	159.0	4	53.9	4	-1E+10	1	-1E+10	1	-1E+10	1	-1E+10	1	-1E+10	1	-1E+10	1
4902549	83	C	11/28/2022	15:07	-133.134	47.286	0	165.00	0	7.1680	0	33.7230	0	26.392	0	163.561	0	157.8	4	53.5	4	-1E+10	1	-1E+10	1	-1E+10	1	-1E+10	1	-1E+10	1	-1E+10	1
4902549	83	C	11/28/2022	15:07	-133.134	47.286	0	165.90	0	7.1580	0	33.7180	0	26.390	0	164.453	0	156.8	4	53.1	4	-1E+10	1	-1E+10	1	-1E+10	1	-1E+10	1	-1E+10	1	-1E+10	1
4902549	83	C	11/28/2022	15:07	-133.134	47.286	0	166.80	0	7.1500	0	33.7200	0	26.392	0	165.344	0	155.7	4	52.7	4	-1E+10	1	-1E+10	1	-1E+10	1	-1E+10	1	-1E+10	1	-1E+10	1
4902549	83	C	11/28/2022	15:07	-133.134	47.286	0	167.80	0	7.1410	0	33.7190	0	26.393	0	166.335	0	154.7	4	52.4	4	-1E+10	1	-1E+10	1	-1E+10	1	-1E+10	1	-1E+10	1	-1E+10	1
4902549	83	C	11/28/2022	15:07	-133.134	47.286	0	168.80	0	7.1340	0	33.7200	0	26.394	0	167.326	0	153.6	4	52.0	4	-1E+10	1	-1E+10	1	-1E+10	1	-1E+10	1	-1E+10	1	-1E+10	1
4902549	83	C	11/28/2022	15:07	-133.134	47.286	0	169.70	0	7.1220	0	33.7230	0	26.399	0	168.218	0	152.5	4	51.6	4	-1E+10	1	-1E+10	1	-1E+10	1	-1E+10	1	-1E+10	1	-1E+10	1
4902549	83	C	11/28/2022	15:07	-133.134	47.286	0	170.70	0	7.1010	0	33.7320	0	26.409	0	169.209	0	151.5	4	51.3	4	-1E+10	1	-1E+10	1	-1E+10	1	-1E+10	1	-1E+10	1	-1E+10	1
4902549	83	C	11/28/2022	15:07	-133.134	47.286	0	171.60	0	7.0870	0	33.7380	0	26.415	0	170.100	0	150.5	4	50.9	4	-1E+10	1	-1E+10	1	-1E+10	1	-1E+10	1	-1E+10	1	-1E+10	1
4902549	83	C	11/28/2022	15:07	-133.134	47.286	0	172.60	0	7.0710	0	33.7420	0	26.421	0	171.091	0	149.4	4	50.5	4	-1E+10	1	-1E+10	1	-1E+10	1	-1E+10	1	-1E+10	1	-1E+10	1
4902549	83	C	11/28/2022	15:07	-133.134	47.286	0	173.50	0	7.0510	0	33.7540	0	26.433	0	171.983	0	148.3	4	50.1	4	-1E+10	1	-1E+10	1	-1E+10	1	-1E+10	1	-1E+10	1	-1E+10	1
4902549	83	C	11/28/2022	15:07	-133.134	47.286	0	174.90	0	7.0300	0	33.7600	0	26.440	0	173.370	0	146.7	4	49.6	4	-1E+10	1	-1E+10	1	-1E+10	1	-1E+10	1	-1E+10	1	-1E+10	1
4902549	83	C	11/28/2022	15:07	-133.134	47.286	0	176.40	0	7.0080	0	33.7680	0	26.450	0	174.857	0	145.7	4	49.2	4	-1E+10	1	-1E+10	1	-1E+10	1	-1E+10	1	-1E+10	1	-1E+10	1
4902549	83	C	11/28/2022	15:07	-133.134	47.286	0	177.40	0	7.0010	0	33.7690	0	26.451	0	175.847	0	145.1	4	49.0	4	-1E+10	1	-1E+10	1	-1E+10	1	-1E+10	1	-1E+10	1	-1E+10	1
4902549	83	C	11/28/2022	15:07	-133.134	47.286	0	178.30	0	6.9810	0	33.7720	0	26.456	0	176.739	0	144.6	4	48.8	4	-1E+10	1	-1E+10	1	-1E+10	1	-1E+10	1	-1E+10	1	-1E+10	1
4902549	83	C	11/28/2022	15:07	-133.134	47.286	0	179.30	0	6.9590	0	33.7780	0	26.464	0	177.730	0	144.1	4	48.6	4	-1E+10	1	-1E+10	1	-1E+10	1	-1E+10	1	-1E+10	1	-1E+10	1
4902549	83	C	11/28/2022	15:07	-133.134	47.286	0	180.30	0	6.9390	0	33.7850	0	26.472	0	178.721	0	143.6	4	48.4	4	-1E+10	1	-1E+10	1	-1E+10	1	-1E+10	1	-1E+10	1	-1E+10	1
4902549	83	C	11/28/2022	15:07	-133.134	47.286	0	181.30	0	6.9170	0	33.7870	0	26.477	0	179.712	0	143.5	4	48.4	4	-1E+10	1	-1E+10	1	-1E+10	1	-1E+10	1	-1E+10	1	-1E+10	1
4902549	83	C	11/28/2022	15:07	-133.134	47.286	0	182.20	0	6.9040	0	33.7890	0	26.480	0	180.603	0	143.3	4	48.3	4	-1E+10	1	-1E+10	1	-1E+10	1	-1E+10	1	-1E+10	1	-1E+10	1
4902549	83	C	11/28/2022	15:07	-133.134	47.286	0	183.20	0	6.8940	0	33.7900	0	26.483	0	181.594	0	143.0	4	48.2	4	-1E+10	1	-1E+10	1	-1E+10	1	-1E+10	1	-1E+10	1	-1E+10	1
4902549	83	C	11/28/2022	15:07	-133.134	47.286	0	184.20	0	6.8860	0	33.7920	0	26.485	0	182.585	0	142.8	4	48.1	4	-1E+10	1	-1E+10	1	-1E+10	1	-1E+10	1	-1E+10	1	-1E+10	1
4902549	83	C	11/28/2022	15:07	-133.134	47.286	0	185.20	0	6.8860	0	33.7920	0	26.485	0	183.576	0	142.5	4	48.0	4	-1E+10	1	-1E+10	1	-1E+10	1	-1E+10	1	-1E+10	1	-1E+10	1
4902549	83	C	11/28/2022	15:07	-133.134	47.286	0	186.20	0	6.8840	0	33.7920	0	26.485	0	184.566	0	142.1	4	47.9	4	-1E+10	1	-1E+10	1	-1E+10	1	-1E+10	1	-1E+10	1	-1E+10	1
4902549	83	C	11/28/2022	15:07	-133.134	47.286	0	187.20	0	6.8810	0	33.7930	0	26.487	0	185.557	0	141.9	4	47.8	4	-1E+10	1	-1E+10	1	-1E+10	1	-1E+10	1	-1E+10	1	-1E+10	1
4902549	83	C	11/28/2022	15:07	-133.134	47.286	0	188.10	0	6.8710	0	33.7960	0	26.490	0	186.449	0	141.6	4	47.7	4	-1E+10	1	-1E+10	1	-1E+10	1	-1E+10	1	-1E+10	1	-1E+10	1
4902549	83	C	11/28/2022	15:07	-133.134	47.286	0	189.10	0	6.8580	0	33.7970	0	26.493	0	187.440	0	141.4	4	47.6	4	-1E+10	1	-1E+10	1	-1E+10	1	-1E+10	1	-1E+10	1	-1E+10	1
4902549	83	C	11/28/2022	15:07	-133.134	47.286	0	190.10	0	6.8520	0	33.7970	0	26.494	0	188.430	0	141.1	4	47.5	4	-1E+10	1	-1E+10	1	-1E+10	1	-1E+10	1	-1E+10	1	-1E+10	1
4902549	83	C	11/28/2022	15:07	-133.134	47.286	0	191.10	0	6.8480	0	33.7970	0	26.494	0	189.421	0	140.7	4	47.4	4	-1E+10	1	-1E+10	1	-1E+10	1	-1E+10	1	-1E+10	1	-1E+10	1
4902549	83	C	11/28/2022	15:07	-133.134	47.286	0	192.10	0	6.8460	0	33.7970	0	26.495	0	190.412	0	140.2	4	47.2	4	-1E+10	1	-1E+10	1	-1E+10	1	-1E+10	1	-1E+10	1	-1E+10	1
4902549	83	C	11/28/2022	15:07	-133.134	47.286	0	193.00	0	6.8420	0	33.7990	0	26.497	0	191.304	0	139.8	4	47.0	4	-1E+10	1	-1E+10	1	-1E+10	1	-1E+10	1	-1E+10	1	-1E+10	1
4902549	83	C	11/28/2022	15:07	-133.134	47.286	0	194.00	0	6.8370	0	33.7980	0	26.497	0	192.294	0	139.2	4	46.8	4	-1E+10	1	-1E+10	1	-1E+10	1	-1E+10	1	-1E+10	1	-1E+10	1
4902549	83	C	11/28/2022	15:07	-133.134	47.286	0	195.00	0	6.8360	0	33.7980	0	26.497	0	193.285	0	138.6	4	46.6	4	-1E+10	1	-1E+10	1	-1E+10	1	-1E+10	1	-1E+10	1	-1E+10	1
4902549	83	C	11/28/2022	15:07	-133.134	47.286	0	195.90	0	6.8320	0	33.7980	0	26.497	0	194.177	0	137.9	4	46.4	4	-1E+10	1	-1E+10	1	-1E+10	1	-1E+10	1	-1E+10	1	-1E+10	1
4902549	83	C	11/28/2022	15:07	-133.134	47.286	0	196.90	0	6.7970	0	33.8020	0	26.505	0	195.167	0	137.2	4	46.1	4	-1E+10	1	-1E+10	1	-1E+10	1	-1E+10	1	-1E+10	1	-1E+10	1
4902549	83	C	11/28/2022	15:07	-133.134	47.286	0	197.90	0	6.7900	0	33.8010	0	26.505	0	196.158	0	136.5	4	45.9	4	-1E+10	1	-1E+10	1	-1E+10	1	-1E+10	1	-1E+10	1	-1E+10	1
4902549	83	C	11/28/2022	15:07	-133.134	47.286	0	198.90	0	6.7770	0	33.8080	0	26.513	0	197.149	0	135.9	4	45.7	4	-1E+10	1	-1E+10	1	-1E+10	1	-1E+10	1	-1E+10	1	-1E+10	1
4902549	83	C	11/28/2022	15:07	-133.134	47.286	0	199.90	0	6.7040	0	33.8140	0	26.527	0	198.140	0	135.6	4	45.5	4	-1E+10	1	-1E+10	1	-1E+10	1	-1E+10	1	-1E+10	1	-1E+10	1
4902549	83	C	11/28/2022	15:07	-133.134	47.286	0	200.90	0	6.6950	0	33.8130	0	26.527	0	199.130	0	135.1	4	45.3	4	-1E+10	1	-1E+10	1	-1E+10	1	-1E+10	1	-1E+10	1	-1E+10	1
4902549	83	C	11/28/2022	15:07	-133.134	47.286	0	201.90	0	6.6930	0	33.8140	0	26.529	0	200.121	0	134.4	4	45.1	4	-1E+10	1	-1E+10	1	-1E+10	1	-1E+10	1	-1E+10	1	-1E+10	1
4902549	83	C	11/28/2022	15:07	-133.134	47.286	0	202.90	0	6.6930	0	33.8140	0	26.529	0	201.112	0	133.7	4	44.8	4	-1E+10	1	-1E+10	1	-1E+10	1	-1E+10	1	-1E+10	1	-1E+10	1
4902549	83	C	11/28/2022	15:07	-133.134	47.286	0	203.90	0	6.6910	0	33.8150	0	26.530	0	202.102	0	132.8	4	44.6	4	-1E+10	1	-1E+10	1	-1E+10	1	-1E+10	1	-1E+10	1	-1E+10	1
4902549	83	C	11/28/2022	15:07	-133.134	47.286	0	204.90	0	6.6930	0	33.8160	0	26.530	0	203.093	0	132.0	4	44.3	4	-1E+10	1	-1E+10	1	-1E+10	1	-1E+10	1	-1E+10	1	-1E+10	1
4902549	83	C	11/28/2022	15:07	-133.134	47.286	0	206.00	0	6.6940	0	33.8170	0	26.531	0	204.183	0	131.2	4	44.0	4	-1E+10	1	-1E+10	1	-1E+10	1	-1E+10	1	-1E+10	1	-1E+10	1
4902549	83	C	11/28/2022	15:07	-133.134	47.286	0	207.00	0	6.7140	0	33.8210	0	26.531	0	205.174	0	130.6	4	43.8	4	-1E+10	1	-1E+10	1	-1E+10	1	-1E+10	1	-1E+10	1	-1E+10	1
4902549	83	C	11/28/2022	15:07	-133.134	47.286	0	208.00	0	6.6990	0	33.8270	0	26.538	0	206.164	0	130.3	4	43.7	4	-1E+10	1	-1E+10	1	-1E+10	1	-1E+10	1	-1E+10	1	-1E+10	1
4902549	83	C	11/28/2022	15:07	-133.134	47.286	0	208.90	0	6.6850	0	33.8270	0	26.540	0	207.056	0	129.9	4	43.6	4	-1E+10	1	-1E+10	1	-1E+10	1	-1E+10	1	-1E+10	1	-1E+10	1
4902549	83	C	11/28/2022	15:07	-133.134	47.286	0	209.90	0	6.6750	0	33.8270	0	26.541	0	208.047	0	129.4	4	43.4	4	-1E+10	1	-1E+10	1	-1E+10	1	-1E+10	1	-1E+10	1	-1E+10	1
4902549	83	C	11/28/2022	15:07	-133.134	47.286	0	211.00	0	6.6680	0	33.8270	0	26.542	0	209.136	0	128.7	4	43.1	4	-1E+10	1	-1E+10	1	-1E+10	1	-1E+10	1	-1E+10	1	-1E+10	1
4902549	83	C	11/28/2022	15:07	-133.134	47.286	0	212.10	0	6.6620	0	33.8280	0	26.544	0	210.226	0	128.0	4	42.9	4	-1E+10	1	-1E+10	1	-1E+10	1	-1E+10	1	-1E+10	1	-1E+10	1
4902549	83	C	11/28/2022	15:07	-133.134	47.286	0	212.90	0	6.6600	0	33.8290	0	26.545	0	211.019	0	127.5	4	42.7	4	-1E+10	1	-1E+10	1	-1E+10	1	-1E+10	1	-1E+10	1	-1E+10	1
4902549	83	C	11/28/2022	15:07	-133.134	47.286	0	214.00	0	6.6610	0	33.8290	0	26.545	0	212.108	0	126.4	4	42.4	4	-1E+10	1	-1E+10	1	-1E+10	1	-1E+10	1	-1E+10	1	-1E+10	1
4902549	83	C	11/28/2022	15:07	-133.134	47.286	0	215.10	0	6.6470	0	33.8310	0	26.548	0	213.198	0	125.5	4	42.1	4	-1E+10	1	-1E+10	1	-1E+10	1	-1E+10	1	-1E+10	1	-1E+10	1
4902549	83	C	11/28/2022	15:07	-133.134	47.286	0	215.90	0	6.6380	0	33.8360	0	26.553	0	213.990	0	124.8	4	41.8	4	-1E+10	1	-1E+10	1	-1E+10	1	-1E+10	1	-1E+10	1	-1E+10	1
4902549	83	C	11/28/2022	15:07	-133.134	47.286	0	216.70	0	6.6310	0	33.8340	0	26.553	0	214.783	0	124.1	4	41.6	4	-1E+10	1	-1E+10	1	-1E+10	1	-1E+10	1	-1E+10	1	-1E+10	1
4902549	83	C	11/28/2022	15:07	-133.134	47.286	0	217.90	0	6.5990	0	33.8360	0	26.559	0	215.972	0	123.1	4	41.2	4	-1E+10	1	-1E+10	1	-1E+10	1	-1E+10	1	-1E+10	1	-1E+10	1
4902549	83	C	11/28/2022	15:07	-133.134	47.286	0	219.10	0	6.5770	0	33.8370	0	26.562	0	217.160	0	122.0	4	40.8	4	-1E+10	1	-1E+10	1	-1E+10	1	-1E+10	1	-1E+10	1	-1E+10	1
4902549	83	C	11/28/2022	15:07	-133.134	47.286	0	219.90	0	6.5720	0	33.8410	0	26.566	0	217.953	0	121.3	4	40.6	4	-1E+10	1	-1E+10	1	-1E+10	1	-1E+10	1	-1E+10	1	-1E+10	1
4902549	83	C	11/28/2022	15:07	-133.134	47.286	0	220.70	0	6.5770	0	33.8430	0	26.567	0	218.745	0	120.7	4	40.4	4	-1E+10	1	-1E+10	1	-1E+10	1	-1E+10	1	-1E+10	1	-1E+10	1
4902549	83	C	11/28/2022	15:07	-133.134	47.286	0	221.90	0	6.5780	0	33.8450	0	26.568	0	219.934	0	120.0	4	40.1	4	-1E+10	1	-1E+10	1	-1E+10	1	-1E+10	1	-1E+10	1	-1E+10	1
4902549	83	C	11/28/2022	15:07	-133.134	47.286	0	223.10	0	6.5730	0	33.8470	0	26.571	0	221.123	0	119.3	4	39.9	4	-1E+10	1	-1E+10	1	-1E+10	1	-1E+10	1	-1E+10	1	-1E+10	1
4902549	83	C	11/28/2022	15:07	-133.134	47.286	0	223.90	0	6.5680	0	33.8480	0	26.572	0	221.915	0	118.8	4	39.7	4	-1E+10	1	-1E+10	1	-1E+10	1	-1E+10	1	-1E+10	1	-1E+10	1
4902549	83	C	11/28/2022	15:07	-133.134	47.286	0	224.70	0	6.5660	0	33.8490	0	26.573	0	222.708	0	118.4	4	39.6	4	-1E+10	1	-1E+10	1	-1E+10	1	-1E+10	1	-1E+10	1	-1E+10	1
4902549	83	C	11/28/2022	15:07	-133.134	47.286	0	225.90	0	6.5540	0	33.8490	0	26.575	0	223.897	0	117.7	4	39.4	4	-1E+10	1	-1E+10	1	-1E+10	1	-1E+10	1	-1E+10	1	-1E+10	1
4902549	83	C	11/28/2022	15:07	-133.134	47.286	0	227.20	0	6.5390	0	33.8450	0	26.574	0	225.184	0	117.0	4	39.1	4	-1E+10	1	-1E+10	1	-1E+10	1	-1E+10	1	-1E+10	1	-1E+10	1
4902549	83	C	11/28/2022	15:07	-133.134	47.286	0	228.00	0	6.5080	0	33.8530	0	26.584	0	225.977	0	116.5	4	38.9	4	-1E+10	1	-1E+10	1	-1E+10	1	-1E+10	1	-1E+10	1	-1E+10	1
4902549	83	C	11/28/2022	15:07	-133.134	47.286	0	228.90	0	6.5050	0	33.8570	0	26.588	0	226.868	0	116.4	4	38.9	4	-1E+10	1	-1E+10	1	-1E+10	1	-1E+10	1	-1E+10	1	-1E+10	1
4902549	83	C	11/28/2022	15:07	-133.134	47.286	0	229.70	0	6.5060	0	33.8580	0	26.588	0	227.661	0	116.3	4	38.9	4	-1E+10	1	-1E+10	1	-1E+10	1	-1E+10	1	-1E+10	1	-1E+10	1
4902549	83	C	11/28/2022	15:07	-133.134	47.286	0	231.00	0	6.4890	0	33.8600	0	26.592	0	228.949	0	116.4	4	38.9	4	-1E+10	1	-1E+10	1	-1E+10	1	-1E+10	1	-1E+10	1	-1E+10	1
4902549	83	C	11/28/2022	15:07	-133.134	47.286	0	232.30	0	6.4590	0	33.8570	0	26.594	0	230.236	0	116.4	4	38.8	4	-1E+10	1	-1E+10	1	-1E+10	1	-1E+10	1	-1E+10	1	-1E+10	1
4902549	83	C	11/28/2022	15:07	-133.134	47.286	0	233.10	0	6.4350	0	33.8560	0	26.596	0	231.029	0	116.2	4	38.8	4	-1E+10	1	-1E+10	1	-1E+10	1	-1E+10	1	-1E+10	1	-1E+10	1
4902549	83	C	11/28/2022	15:07	-133.134	47.286	0	234.00	0	6.4110	0	33.8590	0	26.601	0	231.920	0	116.0	4	38.7	4	-1E+10	1	-1E+10	1	-1E+10	1	-1E+10	1	-1E+10	1	-1E+10	1
4902549	83	C	11/28/2022	15:07	-133.134	47.286	0	234.80	0	6.3900	0	33.8550	0	26.601	0	232.713	0	115.8	4	38.6	4	-1E+10	1	-1E+10	1	-1E+10	1	-1E+10	1	-1E+10	1	-1E+10	1
4902549	83	C	11/28/2022	15:07	-133.134	47.286	0	235.70	0	6.3740	0	33.8550	0	26.603	0	233.604	0	115.6	4	38.5	4	-1E+10	1	-1E+10	1	-1E+10	1	-1E+10	1	-1E+10	1	-1E+10	1
4902549	83	C	11/28/2022	15:07	-133.134	47.286	0	236.90	0	6.3620	0	33.8560	0	26.605	0	234.793	0	115.2	4	38.4	4	-1E+10	1	-1E+10	1	-1E+10	1	-1E+10	1	-1E+10	1	-1E+10	1
4902549	83	C	11/28/2022	15:07	-133.134	47.286	0	238.30	0	6.3500	0	33.8560	0	26.607	0	236.180	0	114.7	4	38.2	4	-1E+10	1	-1E+10	1	-1E+10	1	-1E+10	1	-1E+10	1	-1E+10	1
4902549	83	C	11/28/2022	15:07	-133.134	47.286	0	239.10	0	6.3490	0	33.8570	0	26.608	0	236.972	0	114.4	4	38.1	4	-1E+10	1	-1E+10	1	-1E+10	1	-1E+10	1	-1E+10	1	-1E+10	1
4902549	83	C	11/28/2022	15:07	-133.134	47.286	0	240.00	0	6.3480	0	33.8560	0	26.607	0	237.863	0	114.0	4	38.0	4	-1E+10	1	-1E+10	1	-1E+10	1	-1E+10	1	-1E+10	1	-1E+10	1
4902549	83	C	11/28/2022	15:07	-133.134	47.286	0	240.80	0	6.3470	0	33.8560	0	26.607	0	238.656	0	113.6	4	37.8	4	-1E+10	1	-1E+10	1	-1E+10	1	-1E+10	1	-1E+10	1	-1E+10	1
4902549	83	C	11/28/2022	15:07	-133.134	47.286	0	241.70	0	6.3270	0	33.8580	0	26.612	0	239.547	0	113.1	4	37.6	4	-1E+10	1	-1E+10	1	-1E+10	1	-1E+10	1	-1E+10	1	-1E+10	1
4902549	83	C	11/28/2022	15:07	-133.134	47.286	0	242.60	0	6.3250	0	33.8550	0	26.609	0	240.439	0	112.7	4	37.5	4	-1E+10	1	-1E+10	1	-1E+10	1	-1E+10	1	-1E+10	1	-1E+10	1
4902549	83	C	11/28/2022	15:07	-133.134	47.286	0	243.90	0	6.3150	0	33.8580	0	26.613	0	241.726	0	111.9	4	37.2	4	-1E+10	1	-1E+10	1	-1E+10	1	-1E+10	1	-1E+10	1	-1E+10	1
4902549	83	C	11/28/2022	15:07	-133.134	47.286	0	245.20	0	6.3120	0	33.8580	0	26.614	0	243.014	0	111.1	4	37.0	4	-1E+10	1	-1E+10	1	-1E+10	1	-1E+10	1	-1E+10	1	-1E+10	1
4902549	83	C	11/28/2022	15:07	-133.134	47.286	0	246.10	0	6.3050	0	33.8610	0	26.617	0	243.906	0	110.6	4	36.8	4	-1E+10	1	-1E+10	1	-1E+10	1	-1E+10	1	-1E+10	1	-1E+10	1
4902549	83	C	11/28/2022	15:07	-133.134	47.286	0	247.10	0	6.3000	0	33.8610	0	26.617	0	244.896	0	110.2	4	36.6	4	-1E+10	1	-1E+10	1	-1E+10	1	-1E+10	1	-1E+10	1	-1E+10	1
4902549	83	C	11/28/2022	15:07	-133.134	47.286	0	247.90	0	6.2910	0	33.8620	0	26.619	0	245.688	0	109.5	4	36.4	4	-1E+10	1	-1E+10	1	-1E+10	1	-1E+10	1	-1E+10	1	-1E+10	1
4902549	83	C	11/28/2022	15:07	-133.134	47.286	0	248.80	0	6.2860	0	33.8610	0	26.619	0	246.580	0	109.0	4	36.2	4	-1E+10	1	-1E+10	1	-1E+10	1	-1E+10	1	-1E+10	1	-1E+10	1
4902549	83	C	11/28/2022	15:07	-133.134	47.286	0	249.80	0	6.2690	0	33.8620	0	26.622	0	247.570	0	108.3	4	36.0	4	-1E+10	1	-1E+10	1	-1E+10	1	-1E+10	1	-1E+10	1	-1E+10	1
4902549	83	C	11/28/2022	15:07	-133.134	47.286	0	250.60	0	6.2600	0	33.8640	0	26.625	0	248.363	0	107.8	4	35.8	4	-1E+10	1	-1E+10	1	-1E+10	1	-1E+10	1	-1E+10	1	-1E+10	1
4902549	83	C	11/28/2022	15:07	-133.134	47.286	0	251.90	0	6.2450	0	33.8690	0	26.631	0	249.650	0	107.1	4	35.6	4	-1E+10	1	-1E+10	1	-1E+10	1	-1E+10	1	-1E+10	1	-1E+10	1
4902549	83	C	11/28/2022	15:07	-133.134	47.286	0	253.30	0	6.2520	0	33.8700	0	26.631	0	251.037	0	106.7	4	35.5	4	-1E+10	1	-1E+10	1	-1E+10	1	-1E+10	1	-1E+10	1	-1E+10	1
4902549	83	C	11/28/2022	15:07	-133.134	47.286	0	254.20	0	6.2420	0	33.8710	0	26.633	0	251.928	0	106.5	4	35.4	4	-1E+10	1	-1E+10	1	-1E+10	1	-1E+10	1	-1E+10	1	-1E+10	1
4902549	83	C	11/28/2022	15:07	-133.134	47.286	0	255.20	0	6.2060	0	33.8700	0	26.637	0	252.919	0	106.2	4	35.2	4	-1E+10	1	-1E+10	1	-1E+10	1	-1E+10	1	-1E+10	1	-1E+10	1
4902549	83	C	11/28/2022	15:07	-133.134	47.286	0	256.10	0	6.1700	0	33.8690	0	26.640	0	253.810	0	105.8	4	35.1	4	-1E+10	1	-1E+10	1	-1E+10	1	-1E+10	1	-1E+10	1	-1E+10	1
4902549	83	C	11/28/2022	15:07	-133.134	47.286	0	257.00	0	6.1560	0	33.8700	0	26.643	0	254.702	0	105.3	4	34.9	4	-1E+10	1	-1E+10	1	-1E+10	1	-1E+10	1	-1E+10	1	-1E+10	1
4902549	83	C	11/28/2022	15:07	-133.134	47.286	0	257.90	0	6.1390	0	33.8700	0	26.645	0	255.593	0	104.8	4	34.7	4	-1E+10	1	-1E+10	1	-1E+10	1	-1E+10	1	-1E+10	1	-1E+10	1
4902549	83	C	11/28/2022	15:07	-133.134	47.286	0	258.80	0	6.1430	0	33.8680	0	26.643	0	256.484	0	104.5	4	34.6	4	-1E+10	1	-1E+10	1	-1E+10	1	-1E+10	1	-1E+10	1	-1E+10	1
4902549	83	C	11/28/2022	15:07	-133.134	47.286	0	259.70	0	6.1540	0	33.8740	0	26.646	0	257.376	0	104.3	4	34.6	4	-1E+10	1	-1E+10	1	-1E+10	1	-1E+10	1	-1E+10	1	-1E+10	1
4902549	83	C	11/28/2022	15:07	-133.134	47.286	0	260.60	0	6.1440	0	33.8760	0	26.649	0	258.267	0	104.1	4	34.5	4	-1E+10	1	-1E+10	1	-1E+10	1	-1E+10	1	-1E+10	1	-1E+10	1
4902549	83	C	11/28/2022	15:07	-133.134	47.286	0	261.50	0	6.1260	0	33.8760	0	26.652	0	259.159	0	104.1	4	34.5	4	-1E+10	1	-1E+10	1	-1E+10	1	-1E+10	1	-1E+10	1	-1E+10	1
4902549	83	C	11/28/2022	15:07	-133.134	47.286	0	262.90	0	6.1230	0	33.8780	0	26.654	0	260.545	0	104.1	4	34.5	4	-1E+10	1	-1E+10	1	-1E+10	1	-1E+10	1	-1E+10	1	-1E+10	1
4902549	83	C	11/28/2022	15:07	-133.134	47.286	0	264.20	0	6.1160	0	33.8770	0	26.654	0	261.833	0	104.4	4	34.6	4	-1E+10	1	-1E+10	1	-1E+10	1	-1E+10	1	-1E+10	1	-1E+10	1
4902549	83	C	11/28/2022	15:07	-133.134	47.286	0	265.10	0	6.1030	0	33.8770	0	26.655	0	262.724	0	104.7	4	34.7	4	-1E+10	1	-1E+10	1	-1E+10	1	-1E+10	1	-1E+10	1	-1E+10	1
4902549	83	C	11/28/2022	15:07	-133.134	47.286	0	266.10	0	6.0550	0	33.8810	0	26.665	0	263.714	0	104.9	4	34.7	4	-1E+10	1	-1E+10	1	-1E+10	1	-1E+10	1	-1E+10	1	-1E+10	1
4902549	83	C	11/28/2022	15:07	-133.134	47.286	0	267.00	0	5.9720	0	33.8670	0	26.664	0	264.606	0	104.6	4	34.5	4	-1E+10	1	-1E+10	1	-1E+10	1	-1E+10	1	-1E+10	1	-1E+10	1
4902549	83	C	11/28/2022	15:07	-133.134	47.286	0	267.90	0	5.9340	0	33.8610	0	26.664	0	265.497	0	103.8	4	34.2	4	-1E+10	1	-1E+10	1	-1E+10	1	-1E+10	1	-1E+10	1	-1E+10	1
4902549	83	C	11/28/2022	15:07	-133.134	47.286	0	268.90	0	5.9170	0	33.8590	0	26.664	0	266.488	0	102.7	4	33.9	4	-1E+10	1	-1E+10	1	-1E+10	1	-1E+10	1	-1E+10	1	-1E+10	1
4902549	83	C	11/28/2022	15:07	-133.134	47.286	0	269.80	0	5.9100	0	33.8590	0	26.665	0	267.379	0	101.5	4	33.4	4	-1E+10	1	-1E+10	1	-1E+10	1	-1E+10	1	-1E+10	1	-1E+10	1
4902549	83	C	11/28/2022	15:07	-133.134	47.286	0	270.70	0	5.8970	0	33.8600	0	26.668	0	268.270	0	100.1	4	33.0	4	-1E+10	1	-1E+10	1	-1E+10	1	-1E+10	1	-1E+10	1	-1E+10	1
4902549	83	C	11/28/2022	15:07	-133.134	47.286	0	271.60	0	5.8860	0	33.8620	0	26.671	0	269.162	0	98.7	4	32.5	4	-1E+10	1	-1E+10	1	-1E+10	1	-1E+10	1	-1E+10	1	-1E+10	1
4902549	83	C	11/28/2022	15:07	-133.134	47.286	0	272.60	0	5.9440	0	33.8740	0	26.673	0	270.152	0	97.8	4	32.2	4	-1E+10	1	-1E+10	1	-1E+10	1	-1E+10	1	-1E+10	1	-1E+10	1
4902549	83	C	11/28/2022	15:07	-133.134	47.286	0	273.90	0	5.9440	0	33.8720	0	26.671	0	271.439	0	96.9	4	32.0	4	-1E+10	1	-1E+10	1	-1E+10	1	-1E+10	1	-1E+10	1	-1E+10	1
4902549	83	C	11/28/2022	15:07	-133.134	47.286	0	275.40	0	5.9260	0	33.8810	0	26.681	0	272.925	0	96.3	4	31.7	4	-1E+10	1	-1E+10	1	-1E+10	1	-1E+10	1	-1E+10	1	-1E+10	1
4902549	83	C	11/28/2022	15:07	-133.134	47.286	0	276.30	0	5.8940	0	33.8820	0	26.685	0	273.816	0	95.9	4	31.6	4	-1E+10	1	-1E+10	1	-1E+10	1	-1E+10	1	-1E+10	1	-1E+10	1
4902549	83	C	11/28/2022	15:07	-133.134	47.286	0	277.20	0	5.8650	0	33.8800	0	26.688	0	274.708	0	95.5	4	31.4	4	-1E+10	1	-1E+10	1	-1E+10	1	-1E+10	1	-1E+10	1	-1E+10	1
4902549	83	C	11/28/2022	15:07	-133.134	47.286	0	278.20	0	5.8620	0	33.8810	0	26.689	0	275.698	0	95.0	4	31.3	4	-1E+10	1	-1E+10	1	-1E+10	1	-1E+10	1	-1E+10	1	-1E+10	1
4902549	83	C	11/28/2022	15:07	-133.134	47.286	0	279.10	0	5.8580	0	33.8830	0	26.691	0	276.589	0	94.6	4	31.2	4	-1E+10	1	-1E+10	1	-1E+10	1	-1E+10	1	-1E+10	1	-1E+10	1
4902549	83	C	11/28/2022	15:07	-133.134	47.286	0	280.00	0	5.8600	0	33.8850	0	26.692	0	277.481	0	94.3	4	31.1	4	-1E+10	1	-1E+10	1	-1E+10	1	-1E+10	1	-1E+10	1	-1E+10	1
4902549	83	C	11/28/2022	15:07	-133.134	47.286	0	281.00	0	5.8640	0	33.8860	0	26.692	0	278.471	0	94.1	4	31.0	4	-1E+10	1	-1E+10	1	-1E+10	1	-1E+10	1	-1E+10	1	-1E+10	1
4902549	83	C	11/28/2022	15:07	-133.134	47.286	0	281.90	0	5.8640	0	33.8880	0	26.694	0	279.362	0	94.0	4	30.9	4	-1E+10	1	-1E+10	1	-1E+10	1	-1E+10	1	-1E+10	1	-1E+10	1
4902549	83	C	11/28/2022	15:07	-133.134	47.286	0	282.80	0	5.8630	0	33.8890	0	26.695	0	280.253	0	93.8	4	30.9	4	-1E+10	1	-1E+10	1	-1E+10	1	-1E+10	1	-1E+10	1	-1E+10	1
4902549	83	C	11/28/2022	15:07	-133.134	47.286	0	283.80	0	5.8670	0	33.8870	0	26.693	0	281.244	0	93.6	4	30.8	4	-1E+10	1	-1E+10	1	-1E+10	1	-1E+10	1	-1E+10	1	-1E+10	1
4902549	83	C	11/28/2022	15:07	-133.134	47.286	0	284.70	0	5.8730	0	33.8890	0	26.694	0	282.135	0	93.5	4	30.8	4	-1E+10	1	-1E+10	1	-1E+10	1	-1E+10	1	-1E+10	1	-1E+10	1
4902549	83	C	11/28/2022	15:07	-133.134	47.286	0	285.60	0	5.8620	0	33.8890	0	26.695	0	283.026	0	93.4	4	30.8	4	-1E+10	1	-1E+10	1	-1E+10	1	-1E+10	1	-1E+10	1	-1E+10	1
4902549	83	C	11/28/2022	15:07	-133.134	47.286	0	286.90	0	5.8450	0	33.8870	0	26.696	0	284.314	0	93.2	4	30.7	4	-1E+10	1	-1E+10	1	-1E+10	1	-1E+10	1	-1E+10	1	-1E+10	1
4902549	83	C	11/28/2022	15:07	-133.134	47.286	0	288.30	0	5.8350	0	33.8880	0	26.698	0	285.700	0	92.8	4	30.6	4	-1E+10	1	-1E+10	1	-1E+10	1	-1E+10	1	-1E+10	1	-1E+10	1
4902549	83	C	11/28/2022	15:07	-133.134	47.286	0	289.20	0	5.8250	0	33.8870	0	26.698	0	286.591	0	92.5	4	30.4	4	-1E+10	1	-1E+10	1	-1E+10	1	-1E+10	1	-1E+10	1	-1E+10	1
4902549	83	C	11/28/2022	15:07	-133.134	47.286	0	290.20	0	5.8240	0	33.8870	0	26.698	0	287.582	0	92.2	4	30.3	4	-1E+10	1	-1E+10	1	-1E+10	1	-1E+10	1	-1E+10	1	-1E+10	1
4902549	83	C	11/28/2022	15:07	-133.134	47.286	0	291.10	0	5.8040	0	33.8880	0	26.701	0	288.473	0	91.7	4	30.2	4	-1E+10	1	-1E+10	1	-1E+10	1	-1E+10	1	-1E+10	1	-1E+10	1
4902549	83	C	11/28/2022	15:07	-133.134	47.286	0	292.00	0	5.8010	0	33.8870	0	26.701	0	289.364	0	91.3	4	30.0	4	-1E+10	1	-1E+10	1	-1E+10	1	-1E+10	1	-1E+10	1	-1E+10	1
4902549	83	C	11/28/2022	15:07	-133.134	47.286	0	293.00	0	5.7940	0	33.8880	0	26.703	0	290.354	0	90.8	4	29.9	4	-1E+10	1	-1E+10	1	-1E+10	1	-1E+10	1	-1E+10	1	-1E+10	1
4902549	83	C	11/28/2022	15:07	-133.134	47.286	0	293.90	0	5.7890	0	33.8900	0	26.705	0	291.246	0	90.5	4	29.8	4	-1E+10	1	-1E+10	1	-1E+10	1	-1E+10	1	-1E+10	1	-1E+10	1
4902549	83	C	11/28/2022	15:07	-133.134	47.286	0	294.80	0	5.7870	0	33.8900	0	26.705	0	292.137	0	90.1	4	29.6	4	-1E+10	1	-1E+10	1	-1E+10	1	-1E+10	1	-1E+10	1	-1E+10	1
4902549	83	C	11/28/2022	15:07	-133.134	47.286	0	295.80	0	5.7860	0	33.8900	0	26.705	0	293.127	0	89.7	4	29.5	4	-1E+10	1	-1E+10	1	-1E+10	1	-1E+10	1	-1E+10	1	-1E+10	1
4902549	83	C	11/28/2022	15:07	-133.134	47.286	0	296.70	0	5.7770	0	33.8940	0	26.710	0	294.018	0	89.3	4	29.3	4	-1E+10	1	-1E+10	1	-1E+10	1	-1E+10	1	-1E+10	1	-1E+10	1
4902549	83	C	11/28/2022	15:07	-133.134	47.286	0	297.60	0	5.7720	0	33.8900	0	26.707	0	294.910	0	88.8	4	29.2	4	-1E+10	1	-1E+10	1	-1E+10	1	-1E+10	1	-1E+10	1	-1E+10	1
4902549	83	C	11/28/2022	15:07	-133.134	47.286	0	298.50	0	5.7540	0	33.8940	0	26.712	0	295.801	0	88.4	4	29.0	4	-1E+10	1	-1E+10	1	-1E+10	1	-1E+10	1	-1E+10	1	-1E+10	1
4902549	83	C	11/28/2022	15:07	-133.134	47.286	0	299.90	0	5.7510	0	33.8920	0	26.711	0	297.187	0	87.8	4	28.8	4	-1E+10	1	-1E+10	1	-1E+10	1	-1E+10	1	-1E+10	1	-1E+10	1
4902549	83	C	11/28/2022	15:07	-133.134	47.286	0	301.30	0	5.7460	0	33.8930	0	26.713	0	298.574	0	86.9	4	28.5	4	-1E+10	1	-1E+10	1	-1E+10	1	-1E+10	1	-1E+10	1	-1E+10	1
4902549	83	C	11/28/2022	15:07	-133.134	47.286	0	302.30	0	5.7330	0	33.8930	0	26.714	0	299.564	0	86.4	4	28.4	4	-1E+10	1	-1E+10	1	-1E+10	1	-1E+10	1	-1E+10	1	-1E+10	1
4902549	83	C	11/28/2022	15:07	-133.134	47.286	0	303.20	0	5.7330	0	33.8940	0	26.715	0	300.455	0	85.8	4	28.2	4	-1E+10	1	-1E+10	1	-1E+10	1	-1E+10	1	-1E+10	1	-1E+10	1
4902549	83	C	11/28/2022	15:07	-133.134	47.286	0	304.10	0	5.7320	0	33.8940	0	26.715	0	301.346	0	85.0	4	27.9	4	-1E+10	1	-1E+10	1	-1E+10	1	-1E+10	1	-1E+10	1	-1E+10	1
4902549	83	C	11/28/2022	15:07	-133.134	47.286	0	305.10	0	5.7330	0	33.8950	0	26.716	0	302.336	0	84.2	4	27.7	4	-1E+10	1	-1E+10	1	-1E+10	1	-1E+10	1	-1E+10	1	-1E+10	1
4902549	83	C	11/28/2022	15:07	-133.134	47.286	0	306.10	0	5.7330	0	33.8970	0	26.717	0	303.327	0	83.5	4	27.4	4	-1E+10	1	-1E+10	1	-1E+10	1	-1E+10	1	-1E+10	1	-1E+10	1
4902549	83	C	11/28/2022	15:07	-133.134	47.286	0	307.00	0	5.7360	0	33.9050	0	26.723	0	304.218	0	82.8	4	27.2	4	-1E+10	1	-1E+10	1	-1E+10	1	-1E+10	1	-1E+10	1	-1E+10	1
4902549	83	C	11/28/2022	15:07	-133.134	47.286	0	307.90	0	5.7330	0	33.9040	0	26.723	0	305.109	0	82.4	4	27.0	4	-1E+10	1	-1E+10	1	-1E+10	1	-1E+10	1	-1E+10	1	-1E+10	1
4902549	83	C	11/28/2022	15:07	-133.134	47.286	0	308.90	0	5.7330	0	33.9060	0	26.725	0	306.099	0	81.9	4	26.9	4	-1E+10	1	-1E+10	1	-1E+10	1	-1E+10	1	-1E+10	1	-1E+10	1
4902549	83	C	11/28/2022	15:07	-133.134	47.286	0	309.80	0	5.7320	0	33.9070	0	26.726	0	306.990	0	81.4	4	26.7	4	-1E+10	1	-1E+10	1	-1E+10	1	-1E+10	1	-1E+10	1	-1E+10	1
4902549	83	C	11/28/2022	15:07	-133.134	47.286	0	310.80	0	5.7300	0	33.9070	0	26.726	0	307.980	0	80.9	4	26.6	4	-1E+10	1	-1E+10	1	-1E+10	1	-1E+10	1	-1E+10	1	-1E+10	1
4902549	83	C	11/28/2022	15:07	-133.134	47.286	0	311.70	0	5.7230	0	33.9080	0	26.727	0	308.872	0	80.4	4	26.4	4	-1E+10	1	-1E+10	1	-1E+10	1	-1E+10	1	-1E+10	1	-1E+10	1
4902549	83	C	11/28/2022	15:07	-133.134	47.286	0	312.60	0	5.6990	0	33.9100	0	26.732	0	309.763	0	80.0	4	26.2	4	-1E+10	1	-1E+10	1	-1E+10	1	-1E+10	1	-1E+10	1	-1E+10	1
4902549	83	C	11/28/2022	15:07	-133.134	47.286	0	313.60	0	5.6990	0	33.9090	0	26.731	0	310.753	0	79.5	4	26.1	4	-1E+10	1	-1E+10	1	-1E+10	1	-1E+10	1	-1E+10	1	-1E+10	1
4902549	83	C	11/28/2022	15:07	-133.134	47.286	0	314.50	0	5.7010	0	33.9090	0	26.731	0	311.644	0	79.0	4	25.9	4	-1E+10	1	-1E+10	1	-1E+10	1	-1E+10	1	-1E+10	1	-1E+10	1
4902549	83	C	11/28/2022	15:07	-133.134	47.286	0	315.90	0	5.6950	0	33.9130	0	26.735	0	313.030	0	78.3	4	25.7	4	-1E+10	1	-1E+10	1	-1E+10	1	-1E+10	1	-1E+10	1	-1E+10	1
4902549	83	C	11/28/2022	15:07	-133.134	47.286	0	317.30	0	5.6800	0	33.9150	0	26.738	0	314.417	0	77.8	4	25.5	4	-1E+10	1	-1E+10	1	-1E+10	1	-1E+10	1	-1E+10	1	-1E+10	1
4902549	83	C	11/28/2022	15:07	-133.134	47.286	0	318.30	0	5.6740	0	33.9180	0	26.741	0	315.407	0	77.5	4	25.4	4	-1E+10	1	-1E+10	1	-1E+10	1	-1E+10	1	-1E+10	1	-1E+10	1
4902549	83	C	11/28/2022	15:07	-133.134	47.286	0	319.20	0	5.6700	0	33.9180	0	26.742	0	316.298	0	77.2	4	25.3	4	-1E+10	1	-1E+10	1	-1E+10	1	-1E+10	1	-1E+10	1	-1E+10	1
4902549	83	C	11/28/2022	15:07	-133.134	47.286	0	320.20	0	5.6680	0	33.9180	0	26.742	0	317.288	0	76.9	4	25.2	4	-1E+10	1	-1E+10	1	-1E+10	1	-1E+10	1	-1E+10	1	-1E+10	1
4902549	83	C	11/28/2022	15:07	-133.134	47.286	0	321.10	0	5.6660	0	33.9180	0	26.742	0	318.179	0	76.5	4	25.1	4	-1E+10	1	-1E+10	1	-1E+10	1	-1E+10	1	-1E+10	1	-1E+10	1
4902549	83	C	11/28/2022	15:07	-133.134	47.286	0	322.10	0	5.6540	0	33.9180	0	26.744	0	319.169	0	76.1	4	24.9	4	-1E+10	1	-1E+10	1	-1E+10	1	-1E+10	1	-1E+10	1	-1E+10	1
4902549	83	C	11/28/2022	15:07	-133.134	47.286	0	323.00	0	5.6510	0	33.9180	0	26.744	0	320.060	0	75.7	4	24.8	4	-1E+10	1	-1E+10	1	-1E+10	1	-1E+10	1	-1E+10	1	-1E+10	1
4902549	83	C	11/28/2022	15:07	-133.134	47.286	0	324.00	0	5.6450	0	33.9210	0	26.747	0	321.051	0	75.3	4	24.7	4	-1E+10	1	-1E+10	1	-1E+10	1	-1E+10	1	-1E+10	1	-1E+10	1
4902549	83	C	11/28/2022	15:07	-133.134	47.286	0	324.90	0	5.6360	0	33.9220	0	26.749	0	321.942	0	75.1	4	24.6	4	-1E+10	1	-1E+10	1	-1E+10	1	-1E+10	1	-1E+10	1	-1E+10	1
4902549	83	C	11/28/2022	15:07	-133.134	47.286	0	325.90	0	5.6280	0	33.9210	0	26.749	0	322.932	0	74.8	4	24.5	4	-1E+10	1	-1E+10	1	-1E+10	1	-1E+10	1	-1E+10	1	-1E+10	1
4902549	83	C	11/28/2022	15:07	-133.134	47.286	0	326.80	0	5.6170	0	33.9210	0	26.751	0	323.823	0	74.5	4	24.4	4	-1E+10	1	-1E+10	1	-1E+10	1	-1E+10	1	-1E+10	1	-1E+10	1
4902549	83	C	11/28/2022	15:07	-133.134	47.286	0	327.70	0	5.5900	0	33.9250	0	26.757	0	324.714	0	74.3	4	24.3	4	-1E+10	1	-1E+10	1	-1E+10	1	-1E+10	1	-1E+10	1	-1E+10	1
4902549	83	C	11/28/2022	15:07	-133.134	47.286	0	328.70	0	5.5850	0	33.9240	0	26.757	0	325.704	0	74.2	4	24.3	4	-1E+10	1	-1E+10	1	-1E+10	1	-1E+10	1	-1E+10	1	-1E+10	1
4902549	83	C	11/28/2022	15:07	-133.134	47.286	0	329.70	0	5.5840	0	33.9230	0	26.756	0	326.694	0	73.9	4	24.2	4	-1E+10	1	-1E+10	1	-1E+10	1	-1E+10	1	-1E+10	1	-1E+10	1
4902549	83	C	11/28/2022	15:07	-133.134	47.286	0	330.60	0	5.5830	0	33.9240	0	26.757	0	327.585	0	73.6	4	24.1	4	-1E+10	1	-1E+10	1	-1E+10	1	-1E+10	1	-1E+10	1	-1E+10	1
4902549	83	C	11/28/2022	15:07	-133.134	47.286	0	331.50	0	5.5820	0	33.9250	0	26.758	0	328.476	0	73.3	4	24.0	4	-1E+10	1	-1E+10	1	-1E+10	1	-1E+10	1	-1E+10	1	-1E+10	1
4902549	83	C	11/28/2022	15:07	-133.134	47.286	0	332.90	0	5.5720	0	33.9250	0	26.759	0	329.862	0	72.9	4	23.8	4	-1E+10	1	-1E+10	1	-1E+10	1	-1E+10	1	-1E+10	1	-1E+10	1
4902549	83	C	11/28/2022	15:07	-133.134	47.286	0	334.30	0	5.5580	0	33.9260	0	26.762	0	331.249	0	72.5	4	23.7	4	-1E+10	1	-1E+10	1	-1E+10	1	-1E+10	1	-1E+10	1	-1E+10	1
4902549	83	C	11/28/2022	15:07	-133.134	47.286	0	335.30	0	5.5540	0	33.9260	0	26.762	0	332.239	0	72.2	4	23.6	4	-1E+10	1	-1E+10	1	-1E+10	1	-1E+10	1	-1E+10	1	-1E+10	1
4902549	83	C	11/28/2022	15:07	-133.134	47.286	0	336.20	0	5.5470	0	33.9280	0	26.765	0	333.130	0	72.0	4	23.5	4	-1E+10	1	-1E+10	1	-1E+10	1	-1E+10	1	-1E+10	1	-1E+10	1
4902549	83	C	11/28/2022	15:07	-133.134	47.286	0	337.10	0	5.5390	0	33.9280	0	26.766	0	334.021	0	71.8	4	23.5	4	-1E+10	1	-1E+10	1	-1E+10	1	-1E+10	1	-1E+10	1	-1E+10	1
4902549	83	C	11/28/2022	15:07	-133.134	47.286	0	338.00	0	5.5350	0	33.9280	0	26.766	0	334.912	0	71.5	4	23.4	4	-1E+10	1	-1E+10	1	-1E+10	1	-1E+10	1	-1E+10	1	-1E+10	1
4902549	83	C	11/28/2022	15:07	-133.134	47.286	0	339.00	0	5.5290	0	33.9280	0	26.767	0	335.902	0	71.2	4	23.3	4	-1E+10	1	-1E+10	1	-1E+10	1	-1E+10	1	-1E+10	1	-1E+10	1
4902549	83	C	11/28/2022	15:07	-133.134	47.286	0	339.90	0	5.5240	0	33.9260	0	26.766	0	336.793	0	70.9	4	23.2	4	-1E+10	1	-1E+10	1	-1E+10	1	-1E+10	1	-1E+10	1	-1E+10	1
4902549	83	C	11/28/2022	15:07	-133.134	47.286	0	340.80	0	5.5190	0	33.9270	0	26.767	0	337.684	0	70.5	4	23.0	4	-1E+10	1	-1E+10	1	-1E+10	1	-1E+10	1	-1E+10	1	-1E+10	1
4902549	83	C	11/28/2022	15:07	-133.134	47.286	0	341.70	0	5.5160	0	33.9280	0	26.768	0	338.575	0	70.2	4	22.9	4	-1E+10	1	-1E+10	1	-1E+10	1	-1E+10	1	-1E+10	1	-1E+10	1
4902549	83	C	11/28/2022	15:07	-133.134	47.286	0	342.60	0	5.5040	0	33.9310	0	26.772	0	339.466	0	70.0	4	22.9	4	-1E+10	1	-1E+10	1	-1E+10	1	-1E+10	1	-1E+10	1	-1E+10	1
4902549	83	C	11/28/2022	15:07	-133.134	47.286	0	343.60	0	5.4960	0	33.9310	0	26.773	0	340.456	0	69.8	4	22.8	4	-1E+10	1	-1E+10	1	-1E+10	1	-1E+10	1	-1E+10	1	-1E+10	1
4902549	83	C	11/28/2022	15:07	-133.134	47.286	0	344.90	0	5.4790	0	33.9310	0	26.775	0	341.743	0	69.6	4	22.7	4	-1E+10	1	-1E+10	1	-1E+10	1	-1E+10	1	-1E+10	1	-1E+10	1
4902549	83	C	11/28/2022	15:07	-133.134	47.286	0	346.40	0	5.4620	0	33.9300	0	26.777	0	343.228	0	69.3	4	22.6	4	-1E+10	1	-1E+10	1	-1E+10	1	-1E+10	1	-1E+10	1	-1E+10	1
4902549	83	C	11/28/2022	15:07	-133.134	47.286	0	347.30	0	5.4320	0	33.9300	0	26.780	0	344.119	0	69.1	4	22.5	4	-1E+10	1	-1E+10	1	-1E+10	1	-1E+10	1	-1E+10	1	-1E+10	1
4902549	83	C	11/28/2022	15:07	-133.134	47.286	0	348.20	0	5.4250	0	33.9300	0	26.781	0	345.010	0	68.8	4	22.4	4	-1E+10	1	-1E+10	1	-1E+10	1	-1E+10	1	-1E+10	1	-1E+10	1
4902549	83	C	11/28/2022	15:07	-133.134	47.286	0	349.10	0	5.3870	0	33.9300	0	26.785	0	345.901	0	68.3	4	22.3	4	-1E+10	1	-1E+10	1	-1E+10	1	-1E+10	1	-1E+10	1	-1E+10	1
4902549	83	C	11/28/2022	15:07	-133.134	47.286	0	350.00	0	5.3750	0	33.9260	0	26.784	0	346.792	0	67.8	4	22.1	4	-1E+10	1	-1E+10	1	-1E+10	1	-1E+10	1	-1E+10	1	-1E+10	1
4902549	83	C	11/28/2022	15:07	-133.134	47.286	0	352.80	0	5.4120	0	33.9340	0	26.786	0	349.564	0	66.8	4	21.8	4	-1E+10	1	-1E+10	1	-1E+10	1	-1E+10	1	-1E+10	1	-1E+10	1
4902549	83	C	11/28/2022	15:07	-133.134	47.286	0	357.60	0	5.3960	0	33.9380	0	26.791	0	354.316	0	65.6	4	21.4	4	-1E+10	1	-1E+10	1	-1E+10	1	-1E+10	1	-1E+10	1	-1E+10	1
4902549	83	C	11/28/2022	15:07	-133.134	47.286	0	362.80	0	5.3750	0	33.9410	0	26.796	0	359.464	0	64.1	4	20.9	4	-1E+10	1	-1E+10	1	-1E+10	1	-1E+10	1	-1E+10	1	-1E+10	1
4902549	83	C	11/28/2022	15:07	-133.134	47.286	0	368.20	0	5.3070	0	33.9430	0	26.805	0	364.809	0	63.1	4	20.5	4	-1E+10	1	-1E+10	1	-1E+10	1	-1E+10	1	-1E+10	1	-1E+10	1
4902549	83	C	11/28/2022	15:07	-133.134	47.286	0	373.10	0	5.2780	0	33.9460	0	26.811	0	369.660	0	61.9	4	20.1	4	-1E+10	1	-1E+10	1	-1E+10	1	-1E+10	1	-1E+10	1	-1E+10	1
4902549	83	C	11/28/2022	15:07	-133.134	47.286	0	378.00	0	5.2570	0	33.9470	0	26.814	0	374.510	0	61.1	4	19.8	4	-1E+10	1	-1E+10	1	-1E+10	1	-1E+10	1	-1E+10	1	-1E+10	1
4902549	83	C	11/28/2022	15:07	-133.134	47.286	0	383.00	0	5.2050	0	33.9470	0	26.820	0	379.459	0	59.9	4	19.4	4	-1E+10	1	-1E+10	1	-1E+10	1	-1E+10	1	-1E+10	1	-1E+10	1
4902549	83	C	11/28/2022	15:07	-133.134	47.286	0	388.10	0	5.1520	0	33.9470	0	26.827	0	384.508	0	57.6	4	18.7	4	-1E+10	1	-1E+10	1	-1E+10	1	-1E+10	1	-1E+10	1	-1E+10	1
4902549	83	C	11/28/2022	15:07	-133.134	47.286	0	393.20	0	5.1340	0	33.9590	0	26.838	0	389.556	0	55.6	4	18.0	4	-1E+10	1	-1E+10	1	-1E+10	1	-1E+10	1	-1E+10	1	-1E+10	1
4902549	83	C	11/28/2022	15:07	-133.134	47.286	0	397.90	0	5.1010	0	33.9620	0	26.844	0	394.208	0	54.6	4	17.7	4	-1E+10	1	-1E+10	1	-1E+10	1	-1E+10	1	-1E+10	1	-1E+10	1
4902549	83	C	11/28/2022	15:07	-133.134	47.286	0	402.60	0	5.0570	0	33.9620	0	26.850	0	398.859	0	53.0	4	17.1	4	-1E+10	1	-1E+10	1	-1E+10	1	-1E+10	1	-1E+10	1	-1E+10	1
4902549	83	C	11/28/2022	15:07	-133.134	47.286	0	407.80	0	5.0430	0	33.9700	0	26.858	0	404.006	0	50.6	4	16.3	4	-1E+10	1	-1E+10	1	-1E+10	1	-1E+10	1	-1E+10	1	-1E+10	1
4902549	83	C	11/28/2022	15:07	-133.134	47.286	0	413.10	0	5.0370	0	33.9810	0	26.867	0	409.252	0	48.9	4	15.8	4	-1E+10	1	-1E+10	1	-1E+10	1	-1E+10	1	-1E+10	1	-1E+10	1
4902549	83	C	11/28/2022	15:07	-133.134	47.286	0	417.90	0	5.0190	0	33.9860	0	26.873	0	414.002	0	48.1	4	15.5	4	-1E+10	1	-1E+10	1	-1E+10	1	-1E+10	1	-1E+10	1	-1E+10	1
4902549	83	C	11/28/2022	15:07	-133.134	47.286	0	422.90	0	4.9860	0	33.9880	0	26.878	0	418.950	0	47.4	4	15.3	4	-1E+10	1	-1E+10	1	-1E+10	1	-1E+10	1	-1E+10	1	-1E+10	1
4902549	83	C	11/28/2022	15:07	-133.134	47.286	0	427.90	0	4.9680	0	33.9900	0	26.882	0	423.899	0	46.8	4	15.1	4	-1E+10	1	-1E+10	1	-1E+10	1	-1E+10	1	-1E+10	1	-1E+10	1
4902549	83	C	11/28/2022	15:07	-133.134	47.286	0	433.00	0	4.8980	0	33.9900	0	26.890	0	428.946	0	46.2	4	14.9	4	-1E+10	1	-1E+10	1	-1E+10	1	-1E+10	1	-1E+10	1	-1E+10	1
4902549	83	C	11/28/2022	15:07	-133.134	47.286	0	438.20	0	4.8290	0	33.9910	0	26.899	0	434.091	0	44.6	4	14.3	4	-1E+10	1	-1E+10	1	-1E+10	1	-1E+10	1	-1E+10	1	-1E+10	1
4902549	83	C	11/28/2022	15:07	-133.134	47.286	0	443.00	0	4.8400	0	34.0010	0	26.905	0	438.841	0	43.2	4	13.9	4	-1E+10	1	-1E+10	1	-1E+10	1	-1E+10	1	-1E+10	1	-1E+10	1
4902549	83	C	11/28/2022	15:07	-133.134	47.286	0	447.90	0	4.8360	0	34.0040	0	26.908	0	443.690	0	42.4	4	13.6	4	-1E+10	1	-1E+10	1	-1E+10	1	-1E+10	1	-1E+10	1	-1E+10	1
4902549	83	C	11/28/2022	15:07	-133.134	47.286	0	452.80	0	4.8090	0	34.0060	0	26.913	0	448.539	0	41.5	4	13.3	4	-1E+10	1	-1E+10	1	-1E+10	1	-1E+10	1	-1E+10	1	-1E+10	1
4902549	83	C	11/28/2022	15:07	-133.134	47.286	0	457.80	0	4.7910	0	34.0090	0	26.917	0	453.486	0	40.0	4	12.9	4	-1E+10	1	-1E+10	1	-1E+10	1	-1E+10	1	-1E+10	1	-1E+10	1
4902549	83	C	11/28/2022	15:07	-133.134	47.286	0	462.80	0	4.7860	0	34.0180	0	26.925	0	458.434	0	38.3	4	12.3	4	-1E+10	1	-1E+10	1	-1E+10	1	-1E+10	1	-1E+10	1	-1E+10	1
4902549	83	C	11/28/2022	15:07	-133.134	47.286	0	467.80	0	4.8050	0	34.0240	0	26.928	0	463.381	0	36.7	4	11.8	4	-1E+10	1	-1E+10	1	-1E+10	1	-1E+10	1	-1E+10	1	-1E+10	1
4902549	83	C	11/28/2022	15:07	-133.134	47.286	0	472.90	0	4.8080	0	34.0310	0	26.933	0	468.427	0	35.4	4	11.4	4	-1E+10	1	-1E+10	1	-1E+10	1	-1E+10	1	-1E+10	1	-1E+10	1
4902549	83	C	11/28/2022	15:07	-133.134	47.286	0	478.10	0	4.7800	0	34.0370	0	26.941	0	473.572	0	34.7	4	11.2	4	-1E+10	1	-1E+10	1	-1E+10	1	-1E+10	1	-1E+10	1	-1E+10	1
4902549	83	C	11/28/2022	15:07	-133.134	47.286	0	483.00	0	4.7710	0	34.0390	0	26.943	0	478.420	0	34.4	4	11.0	4	-1E+10	1	-1E+10	1	-1E+10	1	-1E+10	1	-1E+10	1	-1E+10	1
4902549	83	C	11/28/2022	15:07	-133.134	47.286	0	487.90	0	4.7530	0	34.0400	0	26.946	0	483.268	0	33.9	4	10.9	4	-1E+10	1	-1E+10	1	-1E+10	1	-1E+10	1	-1E+10	1	-1E+10	1
4902549	83	C	11/28/2022	15:07	-133.134	47.286	0	492.80	0	4.7380	0	34.0420	0	26.950	0	488.115	0	33.4	4	10.7	4	-1E+10	1	-1E+10	1	-1E+10	1	-1E+10	1	-1E+10	1	-1E+10	1
4902549	83	C	11/28/2022	15:07	-133.134	47.286	0	497.70	0	4.7240	0	34.0430	0	26.952	0	492.963	0	32.8	4	10.5	4	-1E+10	1	-1E+10	1	-1E+10	1	-1E+10	1	-1E+10	1	-1E+10	1
4902549	83	C	11/28/2022	15:07	-133.134	47.286	0	502.70	0	4.7020	0	34.0480	0	26.958	0	497.909	0	32.2	4	10.3	4	-1E+10	1	-1E+10	1	-1E+10	1	-1E+10	1	-1E+10	1	-1E+10	1
4902549	83	C	11/28/2022	15:07	-133.134	47.286	0	507.80	0	4.6700	0	34.0480	0	26.962	0	502.955	0	32.0	4	10.3	4	-1E+10	1	-1E+10	1	-1E+10	1	-1E+10	1	-1E+10	1	-1E+10	1
4902549	83	C	11/28/2022	15:07	-133.134	47.286	0	513.00	0	4.6080	0	34.0480	0	26.969	0	508.099	0	31.6	4	10.1	4	-1E+10	1	-1E+10	1	-1E+10	1	-1E+10	1	-1E+10	1	-1E+10	1
4902549	83	C	11/28/2022	15:07	-133.134	47.286	0	517.70	0	4.5910	0	34.0520	0	26.974	0	512.748	0	30.8	4	9.9	4	-1E+10	1	-1E+10	1	-1E+10	1	-1E+10	1	-1E+10	1	-1E+10	1
4902549	83	C	11/28/2022	15:07	-133.134	47.286	0	523.00	0	4.5860	0	34.0540	0	26.976	0	517.991	0	29.7	4	9.5	4	-1E+10	1	-1E+10	1	-1E+10	1	-1E+10	1	-1E+10	1	-1E+10	1
4902549	83	C	11/28/2022	15:07	-133.134	47.286	0	528.30	0	4.5820	0	34.0620	0	26.983	0	523.233	0	28.4	4	9.1	4	-1E+10	1	-1E+10	1	-1E+10	1	-1E+10	1	-1E+10	1	-1E+10	1
4902549	83	C	11/28/2022	15:07	-133.134	47.286	0	533.10	0	4.5800	0	34.0660	0	26.986	0	527.981	0	27.8	4	8.9	4	-1E+10	1	-1E+10	1	-1E+10	1	-1E+10	1	-1E+10	1	-1E+10	1
4902549	83	C	11/28/2022	15:07	-133.134	47.286	0	537.90	0	4.5610	0	34.0680	0	26.990	0	532.729	0	27.1	4	8.7	4	-1E+10	1	-1E+10	1	-1E+10	1	-1E+10	1	-1E+10	1	-1E+10	1
4902549	83	C	11/28/2022	15:07	-133.134	47.286	0	542.90	0	4.5420	0	34.0710	0	26.994	0	537.674	0	26.1	4	8.3	4	-1E+10	1	-1E+10	1	-1E+10	1	-1E+10	1	-1E+10	1	-1E+10	1
4902549	83	C	11/28/2022	15:07	-133.134	47.286	0	548.00	0	4.5240	0	34.0780	0	27.002	0	542.719	0	25.1	4	8.0	4	-1E+10	1	-1E+10	1	-1E+10	1	-1E+10	1	-1E+10	1	-1E+10	1
4902549	83	C	11/28/2022	15:07	-133.134	47.286	0	553.10	0	4.5110	0	34.0830	0	27.007	0	547.763	0	24.3	4	7.8	4	-1E+10	1	-1E+10	1	-1E+10	1	-1E+10	1	-1E+10	1	-1E+10	1
4902549	83	C	11/28/2022	15:07	-133.134	47.286	0	557.80	0	4.5080	0	34.0830	0	27.008	0	552.411	0	23.3	4	7.4	4	-1E+10	1	-1E+10	1	-1E+10	1	-1E+10	1	-1E+10	1	-1E+10	1
4902549	83	C	11/28/2022	15:07	-133.134	47.286	0	562.60	0	4.5060	0	34.0930	0	27.016	0	557.158	0	22.6	4	7.2	4	-1E+10	1	-1E+10	1	-1E+10	1	-1E+10	1	-1E+10	1	-1E+10	1
4902549	83	C	11/28/2022	15:07	-133.134	47.286	0	567.90	0	4.4940	0	34.0960	0	27.020	0	562.400	0	22.0	4	7.0	4	-1E+10	1	-1E+10	1	-1E+10	1	-1E+10	1	-1E+10	1	-1E+10	1
4902549	83	C	11/28/2022	15:07	-133.134	47.286	0	572.80	0	4.4730	0	34.0990	0	27.024	0	567.246	0	21.5	4	6.9	4	-1E+10	1	-1E+10	1	-1E+10	1	-1E+10	1	-1E+10	1	-1E+10	1
4902549	83	C	11/28/2022	15:07	-133.134	47.286	0	577.70	0	4.4420	0	34.1030	0	27.031	0	572.092	0	21.0	4	6.7	4	-1E+10	1	-1E+10	1	-1E+10	1	-1E+10	1	-1E+10	1	-1E+10	1
4902549	83	C	11/28/2022	15:07	-133.134	47.286	0	583.10	0	4.4370	0	34.1080	0	27.035	0	577.432	0	20.3	4	6.5	4	-1E+10	1	-1E+10	1	-1E+10	1	-1E+10	1	-1E+10	1	-1E+10	1
4902549	83	C	11/28/2022	15:07	-133.134	47.286	0	588.00	0	4.4370	0	34.1120	0	27.039	0	582.277	0	20.0	4	6.4	4	-1E+10	1	-1E+10	1	-1E+10	1	-1E+10	1	-1E+10	1	-1E+10	1
4902549	83	C	11/28/2022	15:07	-133.134	47.286	0	592.80	0	4.4270	0	34.1130	0	27.041	0	587.024	0	19.7	4	6.3	4	-1E+10	1	-1E+10	1	-1E+10	1	-1E+10	1	-1E+10	1	-1E+10	1
4902549	83	C	11/28/2022	15:07	-133.134	47.286	0	597.60	0	4.4150	0	34.1170	0	27.045	0	591.770	0	19.6	4	6.2	4	-1E+10	1	-1E+10	1	-1E+10	1	-1E+10	1	-1E+10	1	-1E+10	1
4902549	83	C	11/28/2022	15:07	-133.134	47.286	0	602.70	0	4.3890	0	34.1170	0	27.048	0	596.813	0	19.5	4	6.2	4	-1E+10	1	-1E+10	1	-1E+10	1	-1E+10	1	-1E+10	1	-1E+10	1
4902549	83	C	11/28/2022	15:07	-133.134	47.286	0	608.10	0	4.3390	0	34.1180	0	27.054	0	602.152	0	19.5	4	6.2	4	-1E+10	1	-1E+10	1	-1E+10	1	-1E+10	1	-1E+10	1	-1E+10	1
4902549	83	C	11/28/2022	15:07	-133.134	47.286	0	612.90	0	4.3100	0	34.1200	0	27.059	0	606.899	0	18.4	4	5.9	4	-1E+10	1	-1E+10	1	-1E+10	1	-1E+10	1	-1E+10	1	-1E+10	1
4902549	83	C	11/28/2022	15:07	-133.134	47.286	0	617.80	0	4.3040	0	34.1280	0	27.066	0	611.743	0	17.5	4	5.6	4	-1E+10	1	-1E+10	1	-1E+10	1	-1E+10	1	-1E+10	1	-1E+10	1
4902549	83	C	11/28/2022	15:07	-133.134	47.286	0	623.20	0	4.3290	0	34.1350	0	27.069	0	617.082	0	16.6	4	5.3	4	-1E+10	1	-1E+10	1	-1E+10	1	-1E+10	1	-1E+10	1	-1E+10	1
4902549	83	C	11/28/2022	15:07	-133.134	47.286	0	628.30	0	4.3090	0	34.1380	0	27.073	0	622.125	0	16.3	4	5.2	4	-1E+10	1	-1E+10	1	-1E+10	1	-1E+10	1	-1E+10	1	-1E+10	1
4902549	83	C	11/28/2022	15:07	-133.134	47.286	0	632.80	0	4.2850	0	34.1420	0	27.079	0	626.574	0	15.9	4	5.0	4	-1E+10	1	-1E+10	1	-1E+10	1	-1E+10	1	-1E+10	1	-1E+10	1
4902549	83	C	11/28/2022	15:07	-133.134	47.286	0	637.70	0	4.2740	0	34.1440	0	27.082	0	631.418	0	14.9	4	4.7	4	-1E+10	1	-1E+10	1	-1E+10	1	-1E+10	1	-1E+10	1	-1E+10	1
4902549	83	C	11/28/2022	15:07	-133.134	47.286	0	643.00	0	4.2750	0	34.1540	0	27.090	0	636.658	0	13.9	4	4.4	4	-1E+10	1	-1E+10	1	-1E+10	1	-1E+10	1	-1E+10	1	-1E+10	1
4902549	83	C	11/28/2022	15:07	-133.134	47.286	0	648.20	0	4.2820	0	34.1610	0	27.095	0	641.798	0	13.2	4	4.2	4	-1E+10	1	-1E+10	1	-1E+10	1	-1E+10	1	-1E+10	1	-1E+10	1
4902549	83	C	11/28/2022	15:07	-133.134	47.286	0	653.10	0	4.2720	0	34.1640	0	27.098	0	646.642	0	12.8	4	4.1	4	-1E+10	1	-1E+10	1	-1E+10	1	-1E+10	1	-1E+10	1	-1E+10	1
4902549	83	C	11/28/2022	15:07	-133.134	47.286	0	658.00	0	4.2650	0	34.1680	0	27.102	0	651.486	0	12.3	4	3.9	4	-1E+10	1	-1E+10	1	-1E+10	1	-1E+10	1	-1E+10	1	-1E+10	1
4902549	83	C	11/28/2022	15:07	-133.134	47.286	0	663.00	0	4.2620	0	34.1740	0	27.107	0	656.429	0	12.0	4	3.8	4	-1E+10	1	-1E+10	1	-1E+10	1	-1E+10	1	-1E+10	1	-1E+10	1
4902549	83	C	11/28/2022	15:07	-133.134	47.286	0	667.90	0	4.2250	0	34.1760	0	27.113	0	661.273	0	11.9	4	3.8	4	-1E+10	1	-1E+10	1	-1E+10	1	-1E+10	1	-1E+10	1	-1E+10	1
4902549	83	C	11/28/2022	15:07	-133.134	47.286	0	673.00	0	4.2080	0	34.1790	0	27.117	0	666.314	0	11.5	4	3.7	4	-1E+10	1	-1E+10	1	-1E+10	1	-1E+10	1	-1E+10	1	-1E+10	1
4902549	83	C	11/28/2022	15:07	-133.134	47.286	0	678.10	0	4.1960	0	34.1840	0	27.122	0	671.355	0	11.0	4	3.5	4	-1E+10	1	-1E+10	1	-1E+10	1	-1E+10	1	-1E+10	1	-1E+10	1
4902549	83	C	11/28/2022	15:07	-133.134	47.286	0	683.10	0	4.1880	0	34.1900	0	27.128	0	676.297	0	10.5	4	3.3	4	-1E+10	1	-1E+10	1	-1E+10	1	-1E+10	1	-1E+10	1	-1E+10	1
4902549	83	C	11/28/2022	15:07	-133.134	47.286	0	687.90	0	4.1810	0	34.1950	0	27.132	0	681.042	0	10.2	4	3.2	4	-1E+10	1	-1E+10	1	-1E+10	1	-1E+10	1	-1E+10	1	-1E+10	1
4902549	83	C	11/28/2022	15:07	-133.134	47.286	0	692.60	0	4.1720	0	34.2010	0	27.138	0	685.687	0	10.0	4	3.2	4	-1E+10	1	-1E+10	1	-1E+10	1	-1E+10	1	-1E+10	1	-1E+10	1
4902549	83	C	11/28/2022	15:07	-133.134	47.286	0	697.80	0	4.1460	0	34.2030	0	27.142	0	690.826	0	10.0	4	3.2	4	-1E+10	1	-1E+10	1	-1E+10	1	-1E+10	1	-1E+10	1	-1E+10	1
4902549	83	C	11/28/2022	15:07	-133.134	47.286	0	703.00	0	4.1310	0	34.2050	0	27.146	0	695.966	0	9.9	4	3.1	4	-1E+10	1	-1E+10	1	-1E+10	1	-1E+10	1	-1E+10	1	-1E+10	1
4902549	83	C	11/28/2022	15:07	-133.134	47.286	0	707.80	0	4.1070	0	34.2070	0	27.150	0	700.710	0	9.7	4	3.1	4	-1E+10	1	-1E+10	1	-1E+10	1	-1E+10	1	-1E+10	1	-1E+10	1
4902549	83	C	11/28/2022	15:07	-133.134	47.286	0	712.70	0	4.0860	0	34.2130	0	27.157	0	705.552	0	9.2	4	2.9	4	-1E+10	1	-1E+10	1	-1E+10	1	-1E+10	1	-1E+10	1	-1E+10	1
4902549	83	C	11/28/2022	15:07	-133.134	47.286	0	718.00	0	4.0780	0	34.2200	0	27.163	0	710.790	0	9.0	4	2.8	4	-1E+10	1	-1E+10	1	-1E+10	1	-1E+10	1	-1E+10	1	-1E+10	1
4902549	83	C	11/28/2022	15:07	-133.134	47.286	0	722.90	0	4.0590	0	34.2210	0	27.166	0	715.633	0	9.1	4	2.9	4	-1E+10	1	-1E+10	1	-1E+10	1	-1E+10	1	-1E+10	1	-1E+10	1
4902549	83	C	11/28/2022	15:07	-133.134	47.286	0	727.90	0	4.0330	0	34.2220	0	27.169	0	720.574	0	8.8	4	2.8	4	-1E+10	1	-1E+10	1	-1E+10	1	-1E+10	1	-1E+10	1	-1E+10	1
4902549	83	C	11/28/2022	15:07	-133.134	47.286	0	733.00	0	4.0330	0	34.2270	0	27.173	0	725.613	0	8.7	4	2.7	4	-1E+10	1	-1E+10	1	-1E+10	1	-1E+10	1	-1E+10	1	-1E+10	1
4902549	83	C	11/28/2022	15:07	-133.134	47.286	0	737.60	0	4.0030	0	34.2280	0	27.177	0	730.159	0	8.0	4	2.5	4	-1E+10	1	-1E+10	1	-1E+10	1	-1E+10	1	-1E+10	1	-1E+10	1
4902549	83	C	11/28/2022	15:07	-133.134	47.286	0	742.80	0	4.0350	0	34.2360	0	27.181	0	735.297	0	7.6	4	2.4	4	-1E+10	1	-1E+10	1	-1E+10	1	-1E+10	1	-1E+10	1	-1E+10	1
4902549	83	C	11/28/2022	15:07	-133.134	47.286	0	748.00	0	4.0340	0	34.2400	0	27.184	0	740.436	0	7.4	4	2.4	4	-1E+10	1	-1E+10	1	-1E+10	1	-1E+10	1	-1E+10	1	-1E+10	1
4902549	83	C	11/28/2022	15:07	-133.134	47.286	0	752.90	0	4.0210	0	34.2430	0	27.188	0	745.277	0	7.4	4	2.3	4	-1E+10	1	-1E+10	1	-1E+10	1	-1E+10	1	-1E+10	1	-1E+10	1
4902549	83	C	11/28/2022	15:07	-133.134	47.286	0	757.90	0	4.0040	0	34.2460	0	27.192	0	750.218	0	7.3	4	2.3	4	-1E+10	1	-1E+10	1	-1E+10	1	-1E+10	1	-1E+10	1	-1E+10	1
4902549	83	C	11/28/2022	15:07	-133.134	47.286	0	762.80	0	3.9840	0	34.2470	0	27.195	0	755.059	0	7.3	4	2.3	4	-1E+10	1	-1E+10	1	-1E+10	1	-1E+10	1	-1E+10	1	-1E+10	1
4902549	83	C	11/28/2022	15:07	-133.134	47.286	0	767.80	0	3.9590	0	34.2500	0	27.200	0	759.999	0	7.2	4	2.3	4	-1E+10	1	-1E+10	1	-1E+10	1	-1E+10	1	-1E+10	1	-1E+10	1
4902549	83	C	11/28/2022	15:07	-133.134	47.286	0	772.90	0	3.9380	0	34.2540	0	27.205	0	765.038	0	7.1	4	2.2	4	-1E+10	1	-1E+10	1	-1E+10	1	-1E+10	1	-1E+10	1	-1E+10	1
4902549	83	C	11/28/2022	15:07	-133.134	47.286	0	777.80	0	3.9210	0	34.2560	0	27.208	0	769.879	0	7.1	4	2.2	4	-1E+10	1	-1E+10	1	-1E+10	1	-1E+10	1	-1E+10	1	-1E+10	1
4902549	83	C	11/28/2022	15:07	-133.134	47.286	0	782.80	0	3.9060	0	34.2580	0	27.211	0	774.819	0	6.9	4	2.2	4	-1E+10	1	-1E+10	1	-1E+10	1	-1E+10	1	-1E+10	1	-1E+10	1
4902549	83	C	11/28/2022	15:07	-133.134	47.286	0	787.90	0	3.8900	0	34.2630	0	27.217	0	779.858	0	6.8	4	2.1	4	-1E+10	1	-1E+10	1	-1E+10	1	-1E+10	1	-1E+10	1	-1E+10	1
4902549	83	C	11/28/2022	15:07	-133.134	47.286	0	792.70	0	3.8790	0	34.2660	0	27.221	0	784.600	0	6.7	4	2.1	4	-1E+10	1	-1E+10	1	-1E+10	1	-1E+10	1	-1E+10	1	-1E+10	1
4902549	83	C	11/28/2022	15:07	-133.134	47.286	0	797.60	0	3.8740	0	34.2680	0	27.223	0	789.440	0	6.6	4	2.1	4	-1E+10	1	-1E+10	1	-1E+10	1	-1E+10	1	-1E+10	1	-1E+10	1
4902549	83	C	11/28/2022	15:07	-133.134	47.286	0	802.60	0	3.8710	0	34.2720	0	27.226	0	794.380	0	6.5	4	2.0	4	-1E+10	1	-1E+10	1	-1E+10	1	-1E+10	1	-1E+10	1	-1E+10	1
4902549	83	C	11/28/2022	15:07	-133.134	47.286	0	807.70	0	3.8590	0	34.2730	0	27.228	0	799.418	0	6.5	4	2.0	4	-1E+10	1	-1E+10	1	-1E+10	1	-1E+10	1	-1E+10	1	-1E+10	1
4902549	83	C	11/28/2022	15:07	-133.134	47.286	0	813.00	0	3.8320	0	34.2750	0	27.233	0	804.653	0	6.4	4	2.0	4	-1E+10	1	-1E+10	1	-1E+10	1	-1E+10	1	-1E+10	1	-1E+10	1
4902549	83	C	11/28/2022	15:07	-133.134	47.286	0	817.90	0	3.8180	0	34.2790	0	27.237	0	809.493	0	6.4	4	2.0	4	-1E+10	1	-1E+10	1	-1E+10	1	-1E+10	1	-1E+10	1	-1E+10	1
4902549	83	C	11/28/2022	15:07	-133.134	47.286	0	822.80	0	3.8140	0	34.2820	0	27.240	0	814.333	0	6.3	4	2.0	4	-1E+10	1	-1E+10	1	-1E+10	1	-1E+10	1	-1E+10	1	-1E+10	1
4902549	83	C	11/28/2022	15:07	-133.134	47.286	0	827.90	0	3.8060	0	34.2840	0	27.242	0	819.371	0	6.2	4	2.0	4	-1E+10	1	-1E+10	1	-1E+10	1	-1E+10	1	-1E+10	1	-1E+10	1
4902549	83	C	11/28/2022	15:07	-133.134	47.286	0	833.00	0	3.8030	0	34.2850	0	27.244	0	824.408	0	6.2	4	1.9	4	-1E+10	1	-1E+10	1	-1E+10	1	-1E+10	1	-1E+10	1	-1E+10	1
4902549	83	C	11/28/2022	15:07	-133.134	47.286	0	838.00	0	3.8010	0	34.2870	0	27.245	0	829.347	0	6.1	4	1.9	4	-1E+10	1	-1E+10	1	-1E+10	1	-1E+10	1	-1E+10	1	-1E+10	1
4902549	83	C	11/28/2022	15:07	-133.134	47.286	0	842.70	0	3.7980	0	34.2890	0	27.247	0	833.989	0	6.0	4	1.9	4	-1E+10	1	-1E+10	1	-1E+10	1	-1E+10	1	-1E+10	1	-1E+10	1
4902549	83	C	11/28/2022	15:07	-133.134	47.286	0	847.80	0	3.7880	0	34.2930	0	27.252	0	839.026	0	6.0	4	1.9	4	-1E+10	1	-1E+10	1	-1E+10	1	-1E+10	1	-1E+10	1	-1E+10	1
4902549	83	C	11/28/2022	15:07	-133.134	47.286	0	853.00	0	3.7810	0	34.2940	0	27.253	0	844.162	0	6.0	4	1.9	4	-1E+10	1	-1E+10	1	-1E+10	1	-1E+10	1	-1E+10	1	-1E+10	1
4902549	83	C	11/28/2022	15:07	-133.134	47.286	0	857.70	0	3.7690	0	34.2960	0	27.256	0	848.804	0	6.0	4	1.9	4	-1E+10	1	-1E+10	1	-1E+10	1	-1E+10	1	-1E+10	1	-1E+10	1
4902549	83	C	11/28/2022	15:07	-133.134	47.286	0	862.90	0	3.7560	0	34.2970	0	27.258	0	853.939	0	6.0	4	1.9	4	-1E+10	1	-1E+10	1	-1E+10	1	-1E+10	1	-1E+10	1	-1E+10	1
4902549	83	C	11/28/2022	15:07	-133.134	47.286	0	868.10	0	3.7330	0	34.3010	0	27.264	0	859.074	0	6.0	4	1.9	4	-1E+10	1	-1E+10	1	-1E+10	1	-1E+10	1	-1E+10	1	-1E+10	1
4902549	83	C	11/28/2022	15:07	-133.134	47.286	0	872.90	0	3.7200	0	34.3030	0	27.266	0	863.815	0	6.0	4	1.9	4	-1E+10	1	-1E+10	1	-1E+10	1	-1E+10	1	-1E+10	1	-1E+10	1
4902549	83	C	11/28/2022	15:07	-133.134	47.286	0	877.70	0	3.7120	0	34.3040	0	27.268	0	868.555	0	6.0	4	1.9	4	-1E+10	1	-1E+10	1	-1E+10	1	-1E+10	1	-1E+10	1	-1E+10	1
4902549	83	C	11/28/2022	15:07	-133.134	47.286	0	883.00	0	3.7030	0	34.3050	0	27.270	0	873.788	0	6.0	4	1.9	4	-1E+10	1	-1E+10	1	-1E+10	1	-1E+10	1	-1E+10	1	-1E+10	1
4902549	83	C	11/28/2022	15:07	-133.134	47.286	0	888.30	0	3.6890	0	34.3060	0	27.272	0	879.022	0	6.0	4	1.9	4	-1E+10	1	-1E+10	1	-1E+10	1	-1E+10	1	-1E+10	1	-1E+10	1
4902549	83	C	11/28/2022	15:07	-133.134	47.286	0	893.10	0	3.6710	0	34.3080	0	27.275	0	883.762	0	6.0	4	1.9	4	-1E+10	1	-1E+10	1	-1E+10	1	-1E+10	1	-1E+10	1	-1E+10	1
4902549	83	C	11/28/2022	15:07	-133.134	47.286	0	897.90	0	3.6540	0	34.3110	0	27.279	0	888.501	0	6.0	4	1.9	4	-1E+10	1	-1E+10	1	-1E+10	1	-1E+10	1	-1E+10	1	-1E+10	1
4902549	83	C	11/28/2022	15:07	-133.134	47.286	0	902.70	0	3.6380	0	34.3130	0	27.283	0	893.241	0	6.0	4	1.9	4	-1E+10	1	-1E+10	1	-1E+10	1	-1E+10	1	-1E+10	1	-1E+10	1
4902549	83	C	11/28/2022	15:07	-133.134	47.286	0	907.60	0	3.6240	0	34.3150	0	27.286	0	898.079	0	5.9	4	1.9	4	-1E+10	1	-1E+10	1	-1E+10	1	-1E+10	1	-1E+10	1	-1E+10	1
4902549	83	C	11/28/2022	15:07	-133.134	47.286	0	912.60	0	3.6070	0	34.3190	0	27.290	0	903.016	0	5.9	4	1.9	4	-1E+10	1	-1E+10	1	-1E+10	1	-1E+10	1	-1E+10	1	-1E+10	1
4902549	83	C	11/28/2022	15:07	-133.134	47.286	0	917.50	0	3.5910	0	34.3210	0	27.294	0	907.854	0	5.9	4	1.9	4	-1E+10	1	-1E+10	1	-1E+10	1	-1E+10	1	-1E+10	1	-1E+10	1
4902549	83	C	11/28/2022	15:07	-133.134	47.286	0	922.90	0	3.5730	0	34.3240	0	27.298	0	913.185	0	5.9	4	1.9	4	-1E+10	1	-1E+10	1	-1E+10	1	-1E+10	1	-1E+10	1	-1E+10	1
4902549	83	C	11/28/2022	15:07	-133.134	47.286	0	928.40	0	3.5630	0	34.3260	0	27.300	0	918.615	0	5.9	4	1.8	4	-1E+10	1	-1E+10	1	-1E+10	1	-1E+10	1	-1E+10	1	-1E+10	1
4902549	83	C	11/28/2022	15:07	-133.134	47.286	0	933.40	0	3.5510	0	34.3300	0	27.305	0	923.551	0	5.9	4	1.9	4	-1E+10	1	-1E+10	1	-1E+10	1	-1E+10	1	-1E+10	1	-1E+10	1
4902549	83	C	11/28/2022	15:07	-133.134	47.286	0	938.40	0	3.5340	0	34.3320	0	27.308	0	928.487	0	5.9	4	1.8	4	-1E+10	1	-1E+10	1	-1E+10	1	-1E+10	1	-1E+10	1	-1E+10	1
4902549	83	C	11/28/2022	15:07	-133.134	47.286	0	943.00	0	3.5230	0	34.3350	0	27.312	0	933.029	0	5.9	4	1.8	4	-1E+10	1	-1E+10	1	-1E+10	1	-1E+10	1	-1E+10	1	-1E+10	1
4902549	83	C	11/28/2022	15:07	-133.134	47.286	0	947.60	0	3.5220	0	34.3360	0	27.313	0	937.570	0	5.9	4	1.8	4	-1E+10	1	-1E+10	1	-1E+10	1	-1E+10	1	-1E+10	1	-1E+10	1
4902549	83	C	11/28/2022	15:07	-133.134	47.286	0	952.80	0	3.5170	0	34.3380	0	27.315	0	942.703	0	5.9	4	1.8	4	-1E+10	1	-1E+10	1	-1E+10	1	-1E+10	1	-1E+10	1	-1E+10	1
4902549	83	C	11/28/2022	15:07	-133.134	47.286	0	957.90	0	3.4910	0	34.3400	0	27.319	0	947.737	0	5.9	4	1.8	4	-1E+10	1	-1E+10	1	-1E+10	1	-1E+10	1	-1E+10	1	-1E+10	1
4902549	83	C	11/28/2022	15:07	-133.134	47.286	0	963.00	0	3.4790	0	34.3410	0	27.321	0	952.772	0	5.9	4	1.8	4	-1E+10	1	-1E+10	1	-1E+10	1	-1E+10	1	-1E+10	1	-1E+10	1
4902549	83	C	11/28/2022	15:07	-133.134	47.286	0	968.20	0	3.4710	0	34.3420	0	27.322	0	957.905	0	5.9	4	1.9	4	-1E+10	1	-1E+10	1	-1E+10	1	-1E+10	1	-1E+10	1	-1E+10	1
4902549	83	C	11/28/2022	15:07	-133.134	47.286	0	972.90	0	3.4610	0	34.3430	0	27.324	0	962.544	0	5.9	4	1.9	4	-1E+10	1	-1E+10	1	-1E+10	1	-1E+10	1	-1E+10	1	-1E+10	1
4902549	83	C	11/28/2022	15:07	-133.134	47.286	0	977.70	0	3.4570	0	34.3440	0	27.325	0	967.282	0	5.9	4	1.9	4	-1E+10	1	-1E+10	1	-1E+10	1	-1E+10	1	-1E+10	1	-1E+10	1
4902549	83	C	11/28/2022	15:07	-133.134	47.286	0	983.10	0	3.4490	0	34.3440	0	27.326	0	972.612	0	5.9	4	1.9	4	-1E+10	1	-1E+10	1	-1E+10	1	-1E+10	1	-1E+10	1	-1E+10	1
4902549	83	C	11/28/2022	15:07	-133.134	47.286	0	988.00	0	3.4400	0	34.3470	0	27.329	0	977.448	0	6.0	4	1.9	4	-1E+10	1	-1E+10	1	-1E+10	1	-1E+10	1	-1E+10	1	-1E+10	1
4902549	83	C	11/28/2022	15:07	-133.134	47.286	0	992.80	0	3.4270	0	34.3490	0	27.332	0	982.185	0	6.0	4	1.9	4	-1E+10	1	-1E+10	1	-1E+10	1	-1E+10	1	-1E+10	1	-1E+10	1
4902549	83	C	11/28/2022	15:07	-133.134	47.286	0	998.10	0	3.4170	0	34.3510	0	27.335	0	987.416	0	6.0	4	1.9	4	-1E+10	1	-1E+10	1	-1E+10	1	-1E+10	1	-1E+10	1	-1E+10	1
4902549	83	C	11/28/2022	15:07	-133.134	47.286	0	1005.70	0	3.4070	0	34.3560	0	27.340	0	994.917	0	6.1	4	1.9	4	-1E+10	1	-1E+10	1	-1E+10	1	-1E+10	1	-1E+10	1	-1E+10	1
4902549	83	C	11/28/2022	15:07	-133.134	47.286	0	1015.20	0	3.4040	0	34.3640	0	27.347	0	1004.292	0	6.2	4	1.9	4	-1E+10	1	-1E+10	1	-1E+10	1	-1E+10	1	-1E+10	1	-1E+10	1
4902549	83	C	11/28/2022	15:07	-133.134	47.286	0	1025.30	0	3.3800	0	34.3690	0	27.353	0	1014.259	0	6.2	4	1.9	4	-1E+10	1	-1E+10	1	-1E+10	1	-1E+10	1	-1E+10	1	-1E+10	1
4902549	83	C	11/28/2022	15:07	-133.134	47.286	0	1035.30	0	3.3510	0	34.3700	0	27.356	0	1024.127	0	6.3	4	2.0	4	-1E+10	1	-1E+10	1	-1E+10	1	-1E+10	1	-1E+10	1	-1E+10	1
4902549	83	C	11/28/2022	15:07	-133.134	47.286	0	1045.50	0	3.3340	0	34.3750	0	27.362	0	1034.192	0	6.4	4	2.0	4	-1E+10	1	-1E+10	1	-1E+10	1	-1E+10	1	-1E+10	1	-1E+10	1
4902549	83	C	11/28/2022	15:07	-133.134	47.286	0	1055.80	0	3.3120	0	34.3780	0	27.367	0	1044.355	0	6.5	4	2.0	4	-1E+10	1	-1E+10	1	-1E+10	1	-1E+10	1	-1E+10	1	-1E+10	1
4902549	83	C	11/28/2022	15:07	-133.134	47.286	0	1065.30	0	3.2860	0	34.3820	0	27.372	0	1053.728	0	6.7	4	2.1	4	-1E+10	1	-1E+10	1	-1E+10	1	-1E+10	1	-1E+10	1	-1E+10	1
4902549	83	C	11/28/2022	15:07	-133.134	47.286	0	1075.60	0	3.2660	0	34.3880	0	27.379	0	1063.890	0	6.8	4	2.1	4	-1E+10	1	-1E+10	1	-1E+10	1	-1E+10	1	-1E+10	1	-1E+10	1
4902549	83	C	11/28/2022	15:07	-133.134	47.286	0	1085.50	0	3.2410	0	34.3910	0	27.384	0	1073.657	0	6.9	4	2.1	4	-1E+10	1	-1E+10	1	-1E+10	1	-1E+10	1	-1E+10	1	-1E+10	1
4902549	83	C	11/28/2022	15:07	-133.134	47.286	0	1095.60	0	3.2300	0	34.3930	0	27.387	0	1083.621	0	7.0	4	2.2	4	-1E+10	1	-1E+10	1	-1E+10	1	-1E+10	1	-1E+10	1	-1E+10	1
4902549	83	C	11/28/2022	15:07	-133.134	47.286	0	1105.60	0	3.2050	0	34.3960	0	27.391	0	1093.485	0	7.1	4	2.2	4	-1E+10	1	-1E+10	1	-1E+10	1	-1E+10	1	-1E+10	1	-1E+10	1
4902549	83	C	11/28/2022	15:07	-133.134	47.286	0	1115.80	0	3.1850	0	34.3980	0	27.395	0	1103.547	0	7.2	4	2.2	4	-1E+10	1	-1E+10	1	-1E+10	1	-1E+10	1	-1E+10	1	-1E+10	1
4902549	83	C	11/28/2022	15:07	-133.134	47.286	0	1125.80	0	3.1640	0	34.4010	0	27.399	0	1113.411	0	7.4	4	2.3	4	-1E+10	1	-1E+10	1	-1E+10	1	-1E+10	1	-1E+10	1	-1E+10	1
4902549	83	C	11/28/2022	15:07	-133.134	47.286	0	1135.40	0	3.1430	0	34.4040	0	27.404	0	1122.879	0	7.6	4	2.4	4	-1E+10	1	-1E+10	1	-1E+10	1	-1E+10	1	-1E+10	1	-1E+10	1
4902549	83	C	11/28/2022	15:07	-133.134	47.286	0	1145.20	0	3.1090	0	34.4070	0	27.409	0	1132.545	0	7.8	4	2.4	4	-1E+10	1	-1E+10	1	-1E+10	1	-1E+10	1	-1E+10	1	-1E+10	1
4902549	83	C	11/28/2022	15:07	-133.134	47.286	0	1155.50	0	3.0590	0	34.4090	0	27.415	0	1142.703	0	7.9	4	2.4	4	-1E+10	1	-1E+10	1	-1E+10	1	-1E+10	1	-1E+10	1	-1E+10	1
4902549	83	C	11/28/2022	15:07	-133.134	47.286	0	1165.70	0	3.0430	0	34.4140	0	27.421	0	1152.762	0	8.2	4	2.5	4	-1E+10	1	-1E+10	1	-1E+10	1	-1E+10	1	-1E+10	1	-1E+10	1
4902549	83	C	11/28/2022	15:07	-133.134	47.286	0	1175.40	0	3.0300	0	34.4190	0	27.426	0	1162.328	0	8.5	4	2.6	4	-1E+10	1	-1E+10	1	-1E+10	1	-1E+10	1	-1E+10	1	-1E+10	1
4902549	83	C	11/28/2022	15:07	-133.134	47.286	0	1185.30	0	3.0100	0	34.4240	0	27.432	0	1172.090	0	8.7	4	2.7	4	-1E+10	1	-1E+10	1	-1E+10	1	-1E+10	1	-1E+10	1	-1E+10	1
4902549	83	C	11/28/2022	15:07	-133.134	47.286	0	1195.30	0	2.9930	0	34.4260	0	27.435	0	1181.950	0	9.0	4	2.8	4	-1E+10	1	-1E+10	1	-1E+10	1	-1E+10	1	-1E+10	1	-1E+10	1
4902549	83	C	11/28/2022	15:07	-133.134	47.286	0	1205.20	0	2.9710	0	34.4290	0	27.439	0	1191.712	0	9.2	4	2.8	4	-1E+10	1	-1E+10	1	-1E+10	1	-1E+10	1	-1E+10	1	-1E+10	1
4902549	83	C	11/28/2022	15:07	-133.134	47.286	0	1215.20	0	2.9550	0	34.4320	0	27.443	0	1201.571	0	9.4	4	2.9	4	-1E+10	1	-1E+10	1	-1E+10	1	-1E+10	1	-1E+10	1	-1E+10	1
4902549	83	C	11/28/2022	15:07	-133.134	47.286	0	1225.60	0	2.9460	0	34.4330	0	27.445	0	1211.825	0	9.5	4	2.9	4	-1E+10	1	-1E+10	1	-1E+10	1	-1E+10	1	-1E+10	1	-1E+10	1
4902549	83	C	11/28/2022	15:07	-133.134	47.286	0	1235.90	0	2.9370	0	34.4350	0	27.448	0	1221.979	0	9.7	4	3.0	4	-1E+10	1	-1E+10	1	-1E+10	1	-1E+10	1	-1E+10	1	-1E+10	1
4902549	83	C	11/28/2022	15:07	-133.134	47.286	0	1245.50	0	2.9250	0	34.4370	0	27.450	0	1231.443	0	9.9	4	3.0	4	-1E+10	1	-1E+10	1	-1E+10	1	-1E+10	1	-1E+10	1	-1E+10	1
4902549	83	C	11/28/2022	15:07	-133.134	47.286	0	1255.60	0	2.9070	0	34.4390	0	27.454	0	1241.399	0	10.2	4	3.1	4	-1E+10	1	-1E+10	1	-1E+10	1	-1E+10	1	-1E+10	1	-1E+10	1
4902549	83	C	11/28/2022	15:07	-133.134	47.286	0	1265.30	0	2.8930	0	34.4430	0	27.458	0	1250.961	0	10.5	4	3.2	4	-1E+10	1	-1E+10	1	-1E+10	1	-1E+10	1	-1E+10	1	-1E+10	1
4902549	83	C	11/28/2022	15:07	-133.134	47.286	0	1275.20	0	2.8830	0	34.4450	0	27.461	0	1260.719	0	10.6	4	3.3	4	-1E+10	1	-1E+10	1	-1E+10	1	-1E+10	1	-1E+10	1	-1E+10	1
4902549	83	C	11/28/2022	15:07	-133.134	47.286	0	1285.40	0	2.8680	0	34.4470	0	27.464	0	1270.772	0	11.0	4	3.4	4	-1E+10	1	-1E+10	1	-1E+10	1	-1E+10	1	-1E+10	1	-1E+10	1
4902549	83	C	11/28/2022	15:07	-133.134	47.286	0	1295.50	0	2.8630	0	34.4500	0	27.466	0	1280.726	0	11.2	4	3.4	4	-1E+10	1	-1E+10	1	-1E+10	1	-1E+10	1	-1E+10	1	-1E+10	1
4902549	83	C	11/28/2022	15:07	-133.134	47.286	0	1305.40	0	2.8300	0	34.4510	0	27.470	0	1290.483	0	11.4	4	3.5	4	-1E+10	1	-1E+10	1	-1E+10	1	-1E+10	1	-1E+10	1	-1E+10	1
4902549	83	C	11/28/2022	15:07	-133.134	47.286	0	1315.50	0	2.8120	0	34.4540	0	27.474	0	1300.437	0	11.9	4	3.7	4	-1E+10	1	-1E+10	1	-1E+10	1	-1E+10	1	-1E+10	1	-1E+10	1
4902549	83	C	11/28/2022	15:07	-133.134	47.286	0	1325.90	0	2.8070	0	34.4580	0	27.478	0	1310.685	0	12.4	4	3.8	4	-1E+10	1	-1E+10	1	-1E+10	1	-1E+10	1	-1E+10	1	-1E+10	1
4902549	83	C	11/28/2022	15:07	-133.134	47.286	0	1335.70	0	2.7910	0	34.4610	0	27.482	0	1320.342	0	12.8	4	3.9	4	-1E+10	1	-1E+10	1	-1E+10	1	-1E+10	1	-1E+10	1	-1E+10	1
4902549	83	C	11/28/2022	15:07	-133.134	47.286	0	1345.40	0	2.7710	0	34.4640	0	27.486	0	1329.900	0	13.2	4	4.0	4	-1E+10	1	-1E+10	1	-1E+10	1	-1E+10	1	-1E+10	1	-1E+10	1
4902549	83	C	11/28/2022	15:07	-133.134	47.286	0	1355.20	0	2.7450	0	34.4670	0	27.491	0	1339.556	0	13.5	4	4.1	4	-1E+10	1	-1E+10	1	-1E+10	1	-1E+10	1	-1E+10	1	-1E+10	1
4902549	83	C	11/28/2022	15:07	-133.134	47.286	0	1365.00	0	2.7310	0	34.4680	0	27.493	0	1349.211	0	13.7	4	4.2	4	-1E+10	1	-1E+10	1	-1E+10	1	-1E+10	1	-1E+10	1	-1E+10	1
4902549	83	C	11/28/2022	15:07	-133.134	47.286	0	1375.40	0	2.7120	0	34.4710	0	27.497	0	1359.458	0	14.1	4	4.3	4	-1E+10	1	-1E+10	1	-1E+10	1	-1E+10	1	-1E+10	1	-1E+10	1
4902549	83	C	11/28/2022	15:07	-133.134	47.286	0	1385.80	0	2.6980	0	34.4730	0	27.500	0	1369.703	0	14.4	4	4.4	4	-1E+10	1	-1E+10	1	-1E+10	1	-1E+10	1	-1E+10	1	-1E+10	1
4902549	83	C	11/28/2022	15:07	-133.134	47.286	0	1395.50	0	2.6770	0	34.4740	0	27.502	0	1379.259	0	14.6	4	4.5	4	-1E+10	1	-1E+10	1	-1E+10	1	-1E+10	1	-1E+10	1	-1E+10	1
4902549	83	C	11/28/2022	15:07	-133.134	47.286	0	1405.40	0	2.6660	0	34.4750	0	27.504	0	1389.011	0	15.1	4	4.6	4	-1E+10	1	-1E+10	1	-1E+10	1	-1E+10	1	-1E+10	1	-1E+10	1
4902549	83	C	11/28/2022	15:07	-133.134	47.286	0	1415.30	0	2.6520	0	34.4780	0	27.508	0	1398.763	0	15.6	4	4.8	4	-1E+10	1	-1E+10	1	-1E+10	1	-1E+10	1	-1E+10	1	-1E+10	1
4902549	83	C	11/28/2022	15:07	-133.134	47.286	0	1425.10	0	2.6260	0	34.4810	0	27.512	0	1408.416	0	16.1	4	4.9	4	-1E+10	1	-1E+10	1	-1E+10	1	-1E+10	1	-1E+10	1	-1E+10	1
4902549	83	C	11/28/2022	15:07	-133.134	47.286	0	1435.00	0	2.6110	0	34.4830	0	27.515	0	1418.167	0	16.5	4	5.0	4	-1E+10	1	-1E+10	1	-1E+10	1	-1E+10	1	-1E+10	1	-1E+10	1
4902549	83	C	11/28/2022	15:07	-133.134	47.286	0	1445.30	0	2.5960	0	34.4850	0	27.518	0	1428.311	0	16.9	4	5.2	4	-1E+10	1	-1E+10	1	-1E+10	1	-1E+10	1	-1E+10	1	-1E+10	1
4902549	83	C	11/28/2022	15:07	-133.134	47.286	0	1455.60	0	2.5820	0	34.4870	0	27.521	0	1438.455	0	17.4	4	5.3	4	-1E+10	1	-1E+10	1	-1E+10	1	-1E+10	1	-1E+10	1	-1E+10	1
4902549	83	C	11/28/2022	15:07	-133.134	47.286	0	1465.50	0	2.5650	0	34.4890	0	27.524	0	1448.204	0	18.1	4	5.5	4	-1E+10	1	-1E+10	1	-1E+10	1	-1E+10	1	-1E+10	1	-1E+10	1
4902549	83	C	11/28/2022	15:07	-133.134	47.286	0	1475.30	0	2.5420	0	34.4930	0	27.529	0	1457.855	0	18.9	4	5.8	4	-1E+10	1	-1E+10	1	-1E+10	1	-1E+10	1	-1E+10	1	-1E+10	1
4902549	83	C	11/28/2022	15:07	-133.134	47.286	0	1485.50	0	2.5170	0	34.4970	0	27.535	0	1467.899	0	19.7	4	6.0	4	-1E+10	1	-1E+10	1	-1E+10	1	-1E+10	1	-1E+10	1	-1E+10	1
4902549	83	C	11/28/2022	15:07	-133.134	47.286	0	1495.60	0	2.5010	0	34.4990	0	27.538	0	1477.844	0	20.5	4	6.3	4	-1E+10	1	-1E+10	1	-1E+10	1	-1E+10	1	-1E+10	1	-1E+10	1
4902549	83	C	11/28/2022	15:07	-133.134	47.286	0	1505.60	0	2.4760	0	34.5020	0	27.542	0	1487.690	0	21.6	4	6.6	4	-1E+10	1	-1E+10	1	-1E+10	1	-1E+10	1	-1E+10	1	-1E+10	1
4902549	83	C	11/28/2022	15:07	-133.134	47.286	0	1515.60	0	2.4800	0	34.5100	0	27.549	0	1497.536	0	22.8	4	6.9	4	-1E+10	1	-1E+10	1	-1E+10	1	-1E+10	1	-1E+10	1	-1E+10	1
4902549	83	C	11/28/2022	15:07	-133.134	47.286	0	1525.30	0	2.4410	0	34.5100	0	27.552	0	1507.086	0	23.1	4	7.1	4	-1E+10	1	-1E+10	1	-1E+10	1	-1E+10	1	-1E+10	1	-1E+10	1
4902549	83	C	11/28/2022	15:07	-133.134	47.286	0	1535.00	0	2.4260	0	34.5130	0	27.555	0	1516.635	0	23.8	4	7.3	4	-1E+10	1	-1E+10	1	-1E+10	1	-1E+10	1	-1E+10	1	-1E+10	1
4902549	83	C	11/28/2022	15:07	-133.134	47.286	0	1545.00	0	2.4060	0	34.5160	0	27.560	0	1526.479	0	24.4	4	7.4	4	-1E+10	1	-1E+10	1	-1E+10	1	-1E+10	1	-1E+10	1	-1E+10	1
4902549	83	C	11/28/2022	15:07	-133.134	47.286	0	1555.40	0	2.3910	0	34.5170	0	27.562	0	1536.717	0	25.0	4	7.6	4	-1E+10	1	-1E+10	1	-1E+10	1	-1E+10	1	-1E+10	1	-1E+10	1
4902549	83	C	11/28/2022	15:07	-133.134	47.286	0	1565.40	0	2.3730	0	34.5200	0	27.566	0	1546.560	0	25.6	4	7.8	4	-1E+10	1	-1E+10	1	-1E+10	1	-1E+10	1	-1E+10	1	-1E+10	1
4902549	83	C	11/28/2022	15:07	-133.134	47.286	0	1575.40	0	2.3510	0	34.5220	0	27.569	0	1556.403	0	26.3	4	8.0	4	-1E+10	1	-1E+10	1	-1E+10	1	-1E+10	1	-1E+10	1	-1E+10	1
4902549	83	C	11/28/2022	15:07	-133.134	47.286	0	1585.30	0	2.3320	0	34.5250	0	27.573	0	1566.147	0	27.1	4	8.2	4	-1E+10	1	-1E+10	1	-1E+10	1	-1E+10	1	-1E+10	1	-1E+10	1
4902549	83	C	11/28/2022	15:07	-133.134	47.286	0	1595.60	0	2.3190	0	34.5270	0	27.576	0	1576.284	0	27.8	4	8.4	4	-1E+10	1	-1E+10	1	-1E+10	1	-1E+10	1	-1E+10	1	-1E+10	1
4902549	83	C	11/28/2022	15:07	-133.134	47.286	0	1605.40	0	2.3120	0	34.5280	0	27.577	0	1585.929	0	28.1	4	8.5	4	-1E+10	1	-1E+10	1	-1E+10	1	-1E+10	1	-1E+10	1	-1E+10	1
4902549	83	C	11/28/2022	15:07	-133.134	47.286	0	1615.30	0	2.3010	0	34.5290	0	27.579	0	1595.672	0	28.4	4	8.6	4	-1E+10	1	-1E+10	1	-1E+10	1	-1E+10	1	-1E+10	1	-1E+10	1
4902549	83	C	11/28/2022	15:07	-133.134	47.286	0	1625.70	0	2.2870	0	34.5300	0	27.581	0	1605.906	0	28.7	4	8.7	4	-1E+10	1	-1E+10	1	-1E+10	1	-1E+10	1	-1E+10	1	-1E+10	1
4902549	83	C	11/28/2022	15:07	-133.134	47.286	0	1635.70	0	2.2780	0	34.5310	0	27.583	0	1615.746	0	29.2	4	8.8	4	-1E+10	1	-1E+10	1	-1E+10	1	-1E+10	1	-1E+10	1	-1E+10	1
4902549	83	C	11/28/2022	15:07	-133.134	47.286	0	1645.60	0	2.2680	0	34.5330	0	27.585	0	1625.487	0	29.6	4	9.0	4	-1E+10	1	-1E+10	1	-1E+10	1	-1E+10	1	-1E+10	1	-1E+10	1
4902549	83	C	11/28/2022	15:07	-133.134	47.286	0	1655.30	0	2.2570	0	34.5340	0	27.587	0	1635.031	0	30.0	4	9.1	4	-1E+10	1	-1E+10	1	-1E+10	1	-1E+10	1	-1E+10	1	-1E+10	1
4902549	83	C	11/28/2022	15:07	-133.134	47.286	0	1665.40	0	2.2470	0	34.5350	0	27.588	0	1644.968	0	30.3	4	9.2	4	-1E+10	1	-1E+10	1	-1E+10	1	-1E+10	1	-1E+10	1	-1E+10	1
4902549	83	C	11/28/2022	15:07	-133.134	47.286	0	1675.30	0	2.2390	0	34.5360	0	27.590	0	1654.708	0	30.7	4	9.3	4	-1E+10	1	-1E+10	1	-1E+10	1	-1E+10	1	-1E+10	1	-1E+10	1
4902549	83	C	11/28/2022	15:07	-133.134	47.286	0	1685.20	0	2.2290	0	34.5370	0	27.592	0	1664.448	0	31.2	4	9.4	4	-1E+10	1	-1E+10	1	-1E+10	1	-1E+10	1	-1E+10	1	-1E+10	1
4902549	83	C	11/28/2022	15:07	-133.134	47.286	0	1695.30	0	2.2210	0	34.5390	0	27.594	0	1674.384	0	31.6	4	9.6	4	-1E+10	1	-1E+10	1	-1E+10	1	-1E+10	1	-1E+10	1	-1E+10	1
4902549	83	C	11/28/2022	15:07	-133.134	47.286	0	1705.10	0	2.2100	0	34.5400	0	27.596	0	1684.024	0	32.3	4	9.8	4	-1E+10	1	-1E+10	1	-1E+10	1	-1E+10	1	-1E+10	1	-1E+10	1
4902549	83	C	11/28/2022	15:07	-133.134	47.286	0	1715.10	0	2.1940	0	34.5410	0	27.598	0	1693.860	0	32.8	4	9.9	4	-1E+10	1	-1E+10	1	-1E+10	1	-1E+10	1	-1E+10	1	-1E+10	1
4902549	83	C	11/28/2022	15:07	-133.134	47.286	0	1725.40	0	2.1710	0	34.5440	0	27.602	0	1703.991	0	33.7	4	10.2	4	-1E+10	1	-1E+10	1	-1E+10	1	-1E+10	1	-1E+10	1	-1E+10	1
4902549	83	C	11/28/2022	15:07	-133.134	47.286	0	1735.40	0	2.1620	0	34.5450	0	27.604	0	1713.827	0	34.1	4	10.3	4	-1E+10	1	-1E+10	1	-1E+10	1	-1E+10	1	-1E+10	1	-1E+10	1
4902549	83	C	11/28/2022	15:07	-133.134	47.286	0	1745.10	0	2.1540	0	34.5470	0	27.606	0	1723.367	0	34.7	4	10.5	4	-1E+10	1	-1E+10	1	-1E+10	1	-1E+10	1	-1E+10	1	-1E+10	1
4902549	83	C	11/28/2022	15:07	-133.134	47.286	0	1755.30	0	2.1460	0	34.5480	0	27.607	0	1733.398	0	35.2	4	10.6	4	-1E+10	1	-1E+10	1	-1E+10	1	-1E+10	1	-1E+10	1	-1E+10	1
4902549	83	C	11/28/2022	15:07	-133.134	47.286	0	1765.70	0	2.1420	0	34.5490	0	27.609	0	1743.626	0	35.9	4	10.8	4	-1E+10	1	-1E+10	1	-1E+10	1	-1E+10	1	-1E+10	1	-1E+10	1
4902549	83	C	11/28/2022	15:07	-133.134	47.286	0	1775.80	0	2.1340	0	34.5510	0	27.611	0	1753.558	0	36.5	4	11.1	4	-1E+10	1	-1E+10	1	-1E+10	1	-1E+10	1	-1E+10	1	-1E+10	1
4902549	83	C	11/28/2022	15:07	-133.134	47.286	0	1785.50	0	2.1240	0	34.5520	0	27.612	0	1763.096	0	37.0	4	11.2	4	-1E+10	1	-1E+10	1	-1E+10	1	-1E+10	1	-1E+10	1	-1E+10	1
4902549	83	C	11/28/2022	15:07	-133.134	47.286	0	1795.20	0	2.1150	0	34.5530	0	27.614	0	1772.634	0	37.5	4	11.3	4	-1E+10	1	-1E+10	1	-1E+10	1	-1E+10	1	-1E+10	1	-1E+10	1
4902549	83	C	11/28/2022	15:07	-133.134	47.286	0	1805.60	0	2.1030	0	34.5550	0	27.617	0	1782.860	0	38.2	4	11.5	4	-1E+10	1	-1E+10	1	-1E+10	1	-1E+10	1	-1E+10	1	-1E+10	1
4902549	83	C	11/28/2022	15:07	-133.134	47.286	0	1815.60	0	2.0960	0	34.5570	0	27.619	0	1792.691	0	39.0	4	11.8	4	-1E+10	1	-1E+10	1	-1E+10	1	-1E+10	1	-1E+10	1	-1E+10	1
4902549	83	C	11/28/2022	15:07	-133.134	47.286	0	1825.60	0	2.0910	0	34.5580	0	27.620	0	1802.523	0	39.7	4	12.0	4	-1E+10	1	-1E+10	1	-1E+10	1	-1E+10	1	-1E+10	1	-1E+10	1
4902549	83	C	11/28/2022	15:07	-133.134	47.286	0	1835.80	0	2.0850	0	34.5600	0	27.622	0	1812.551	0	40.1	4	12.1	4	-1E+10	1	-1E+10	1	-1E+10	1	-1E+10	1	-1E+10	1	-1E+10	1
4902549	83	C	11/28/2022	15:07	-133.134	47.286	0	1845.30	0	2.0790	0	34.5610	0	27.624	0	1821.890	0	40.6	4	12.3	4	-1E+10	1	-1E+10	1	-1E+10	1	-1E+10	1	-1E+10	1	-1E+10	1
4902549	83	C	11/28/2022	15:07	-133.134	47.286	0	1855.60	0	2.0700	0	34.5620	0	27.625	0	1832.014	0	41.4	4	12.5	4	-1E+10	1	-1E+10	1	-1E+10	1	-1E+10	1	-1E+10	1	-1E+10	1
4902549	83	C	11/28/2022	15:07	-133.134	47.286	0	1865.50	0	2.0560	0	34.5650	0	27.629	0	1841.746	0	42.1	4	12.7	4	-1E+10	1	-1E+10	1	-1E+10	1	-1E+10	1	-1E+10	1	-1E+10	1
4902549	83	C	11/28/2022	15:07	-133.134	47.286	0	1875.40	0	2.0460	0	34.5660	0	27.630	0	1851.477	0	42.7	4	12.9	4	-1E+10	1	-1E+10	1	-1E+10	1	-1E+10	1	-1E+10	1	-1E+10	1
4902549	83	C	11/28/2022	15:07	-133.134	47.286	0	1885.40	0	2.0380	0	34.5670	0	27.632	0	1861.305	0	43.4	4	13.1	4	-1E+10	1	-1E+10	1	-1E+10	1	-1E+10	1	-1E+10	1	-1E+10	1
4902549	83	C	11/28/2022	15:07	-133.134	47.286	0	1895.50	0	2.0320	0	34.5690	0	27.634	0	1871.232	0	44.0	4	13.3	4	-1E+10	1	-1E+10	1	-1E+10	1	-1E+10	1	-1E+10	1	-1E+10	1
4902549	83	C	11/28/2022	15:07	-133.134	47.286	0	1905.70	0	2.0220	0	34.5700	0	27.636	0	1881.256	0	44.5	4	13.4	4	-1E+10	1	-1E+10	1	-1E+10	1	-1E+10	1	-1E+10	1	-1E+10	1
4902549	83	C	11/28/2022	15:07	-133.134	47.286	0	1915.50	0	2.0160	0	34.5710	0	27.637	0	1890.887	0	45.2	4	13.6	4	-1E+10	1	-1E+10	1	-1E+10	1	-1E+10	1	-1E+10	1	-1E+10	1
4902549	83	C	11/28/2022	15:07	-133.134	47.286	0	1925.50	0	2.0080	0	34.5730	0	27.639	0	1900.714	0	45.8	4	13.8	4	-1E+10	1	-1E+10	1	-1E+10	1	-1E+10	1	-1E+10	1	-1E+10	1
4902549	83	C	11/28/2022	15:07	-133.134	47.286	0	1935.30	0	2.0030	0	34.5740	0	27.640	0	1910.344	0	46.4	4	14.0	4	-1E+10	1	-1E+10	1	-1E+10	1	-1E+10	1	-1E+10	1	-1E+10	1
4902549	83	C	11/28/2022	15:07	-133.134	47.286	0	1945.30	0	1.9970	0	34.5760	0	27.643	0	1920.170	0	46.9	4	14.1	4	-1E+10	1	-1E+10	1	-1E+10	1	-1E+10	1	-1E+10	1	-1E+10	1
4902549	83	C	11/28/2022	15:07	-133.134	47.286	0	1955.30	0	1.9880	0	34.5760	0	27.643	0	1929.995	0	47.3	4	14.3	4	-1E+10	1	-1E+10	1	-1E+10	1	-1E+10	1	-1E+10	1	-1E+10	1
4902549	83	C	11/28/2022	15:07	-133.134	47.286	0	1965.40	0	1.9770	0	34.5770	0	27.645	0	1939.919	0	47.9	4	14.4	4	-1E+10	1	-1E+10	1	-1E+10	1	-1E+10	1	-1E+10	1	-1E+10	1
4902549	83	C	11/28/2022	15:07	-133.134	47.286	0	1975.60	0	1.9700	0	34.5780	0	27.646	0	1949.940	0	48.4	4	14.6	4	-1E+10	1	-1E+10	1	-1E+10	1	-1E+10	1	-1E+10	1	-1E+10	1
4902549	83	C	11/28/2022	15:07	-133.134	47.286	0	1985.40	0	1.9660	0	34.5790	0	27.648	0	1959.567	0	48.9	4	14.7	4	-1E+10	1	-1E+10	1	-1E+10	1	-1E+10	1	-1E+10	1	-1E+10	1
4902549	83	C	11/28/2022	15:07	-133.134	47.286	0	1995.60	0	1.9560	0	34.5810	0	27.650	0	1969.588	0	49.4	4	14.9	4	-1E+10	1	-1E+10	1	-1E+10	1	-1E+10	1	-1E+10	1	-1E+10	1
4902549	83	C	11/28/2022	15:07	-133.134	47.286	0	2002.90	0	1.9510	0	34.5820	0	27.651	0	1976.759	0	49.6	4	14.9	4	-1E+10	1	-1E+10	1	-1E+10	1	-1E+10	1	-1E+10	1	-1E+10	1
4902549	83	C	11/28/2022	15:07	-133.134	47.286	0																										
4902549	84	C	12/08/2022	20:04	-133.302	47.371	0	0.20	0	10.8550	0	32.3070	0	24.705	0	0.198	0	256.6	4	93.4	4	-1E+10	1	-1E+10	1	-1E+10	1	-1E+10	1	-1E+10	1	-1E+10	1
4902549	84	C	12/08/2022	20:04	-133.302	47.371	0	0.40	0	10.8660	0	32.3090	0	24.705	0	0.397	0	256.3	4	93.3	4	-1E+10	1	-1E+10	1	-1E+10	1	-1E+10	1	-1E+10	1	-1E+10	1
4902549	84	C	12/08/2022	20:04	-133.302	47.371	0	0.90	0	10.8650	0	32.3100	0	24.706	0	0.892	0	256.3	4	93.3	4	-1E+10	1	-1E+10	1	-1E+10	1	-1E+10	1	-1E+10	1	-1E+10	1
4902549	84	C	12/08/2022	20:04	-133.302	47.371	0	2.00	0	10.8680	0	32.3070	0	24.703	0	1.983	0	256.3	4	93.3	4	-1E+10	1	-1E+10	1	-1E+10	1	-1E+10	1	-1E+10	1	-1E+10	1
4902549	84	C	12/08/2022	20:04	-133.302	47.371	0	2.90	0	10.8680	0	32.3080	0	24.704	0	2.876	0	256.2	4	93.3	4	-1E+10	1	-1E+10	1	-1E+10	1	-1E+10	1	-1E+10	1	-1E+10	1
4902549	84	C	12/08/2022	20:04	-133.302	47.371	0	3.90	0	10.8670	0	32.3080	0	24.704	0	3.867	0	256.3	4	93.3	4	-1E+10	1	-1E+10	1	-1E+10	1	-1E+10	1	-1E+10	1	-1E+10	1
4902549	84	C	12/08/2022	20:04	-133.302	47.371	0	4.80	0	10.8660	0	32.3090	0	24.705	0	4.760	0	256.2	4	93.2	4	-1E+10	1	-1E+10	1	-1E+10	1	-1E+10	1	-1E+10	1	-1E+10	1
4902549	84	C	12/08/2022	20:04	-133.302	47.371	0	5.80	0	10.8650	0	32.3090	0	24.705	0	5.752	0	256.3	4	93.2	4	-1E+10	1	-1E+10	1	-1E+10	1	-1E+10	1	-1E+10	1	-1E+10	1
4902549	84	C	12/08/2022	20:04	-133.302	47.371	0	7.00	0	10.8660	0	32.3090	0	24.705	0	6.942	0	256.2	4	93.2	4	-1E+10	1	-1E+10	1	-1E+10	1	-1E+10	1	-1E+10	1	-1E+10	1
4902549	84	C	12/08/2022	20:04	-133.302	47.371	0	7.90	0	10.8650	0	32.3090	0	24.705	0	7.834	0	256.2	4	93.2	4	-1E+10	1	-1E+10	1	-1E+10	1	-1E+10	1	-1E+10	1	-1E+10	1
4902549	84	C	12/08/2022	20:04	-133.302	47.371	0	8.90	0	10.8650	0	32.3090	0	24.705	0	8.826	0	256.1	4	93.2	4	-1E+10	1	-1E+10	1	-1E+10	1	-1E+10	1	-1E+10	1	-1E+10	1
4902549	84	C	12/08/2022	20:04	-133.302	47.371	0	10.00	0	10.8650	0	32.3090	0	24.705	0	9.916	0	256.0	4	93.2	4	-1E+10	1	-1E+10	1	-1E+10	1	-1E+10	1	-1E+10	1	-1E+10	1
4902549	84	C	12/08/2022	20:04	-133.302	47.371	0	10.90	0	10.8640	0	32.3100	0	24.706	0	10.809	0	256.1	4	93.2	4	-1E+10	1	-1E+10	1	-1E+10	1	-1E+10	1	-1E+10	1	-1E+10	1
4902549	84	C	12/08/2022	20:04	-133.302	47.371	0	11.70	0	10.8640	0	32.3100	0	24.706	0	11.602	0	256.0	4	93.2	4	-1E+10	1	-1E+10	1	-1E+10	1	-1E+10	1	-1E+10	1	-1E+10	1
4902549	84	C	12/08/2022	20:04	-133.302	47.371	0	12.70	0	10.8640	0	32.3100	0	24.706	0	12.594	0	256.0	4	93.2	4	-1E+10	1	-1E+10	1	-1E+10	1	-1E+10	1	-1E+10	1	-1E+10	1
4902549	84	C	12/08/2022	20:04	-133.302	47.371	0	13.70	0	10.8640	0	32.3100	0	24.706	0	13.585	0	256.0	4	93.2	4	-1E+10	1	-1E+10	1	-1E+10	1	-1E+10	1	-1E+10	1	-1E+10	1
4902549	84	C	12/08/2022	20:04	-133.302	47.371	0	14.70	0	10.8630	0	32.3100	0	24.706	0	14.577	0	256.0	4	93.1	4	-1E+10	1	-1E+10	1	-1E+10	1	-1E+10	1	-1E+10	1	-1E+10	1
4902549	84	C	12/08/2022	20:04	-133.302	47.371	0	15.70	0	10.8630	0	32.3100	0	24.706	0	15.569	0	256.0	4	93.2	4	-1E+10	1	-1E+10	1	-1E+10	1	-1E+10	1	-1E+10	1	-1E+10	1
4902549	84	C	12/08/2022	20:04	-133.302	47.371	0	16.70	0	10.8660	0	32.3100	0	24.706	0	16.560	0	255.9	4	93.1	4	-1E+10	1	-1E+10	1	-1E+10	1	-1E+10	1	-1E+10	1	-1E+10	1
4902549	84	C	12/08/2022	20:04	-133.302	47.371	0	17.70	0	10.8680	0	32.3090	0	24.705	0	17.552	0	256.0	4	93.1	4	-1E+10	1	-1E+10	1	-1E+10	1	-1E+10	1	-1E+10	1	-1E+10	1
4902549	84	C	12/08/2022	20:04	-133.302	47.371	0	18.70	0	10.8670	0	32.3090	0	24.705	0	18.543	0	255.8	4	93.1	4	-1E+10	1	-1E+10	1	-1E+10	1	-1E+10	1	-1E+10	1	-1E+10	1
4902549	84	C	12/08/2022	20:04	-133.302	47.371	0	20.00	0	10.8670	0	32.3090	0	24.705	0	19.832	0	255.8	4	93.1	4	-1E+10	1	-1E+10	1	-1E+10	1	-1E+10	1	-1E+10	1	-1E+10	1
4902549	84	C	12/08/2022	20:04	-133.302	47.371	0	20.80	0	10.8670	0	32.3090	0	24.705	0	20.626	0	255.9	4	93.1	4	-1E+10	1	-1E+10	1	-1E+10	1	-1E+10	1	-1E+10	1	-1E+10	1
4902549	84	C	12/08/2022	20:04	-133.302	47.371	0	22.00	0	10.8650	0	32.3080	0	24.704	0	21.815	0	255.9	4	93.1	4	-1E+10	1	-1E+10	1	-1E+10	1	-1E+10	1	-1E+10	1	-1E+10	1
4902549	84	C	12/08/2022	20:04	-133.302	47.371	0	22.90	0	10.8660	0	32.3090	0	24.705	0	22.708	0	255.9	4	93.1	4	-1E+10	1	-1E+10	1	-1E+10	1	-1E+10	1	-1E+10	1	-1E+10	1
4902549	84	C	12/08/2022	20:04	-133.302	47.371	0	23.80	0	10.8660	0	32.3090	0	24.705	0	23.600	0	255.8	4	93.1	4	-1E+10	1	-1E+10	1	-1E+10	1	-1E+10	1	-1E+10	1	-1E+10	1
4902549	84	C	12/08/2022	20:04	-133.302	47.371	0	25.10	0	10.8650	0	32.3090	0	24.705	0	24.889	0	255.9	4	93.1	4	-1E+10	1	-1E+10	1	-1E+10	1	-1E+10	1	-1E+10	1	-1E+10	1
4902549	84	C	12/08/2022	20:04	-133.302	47.371	0	26.00	0	10.8640	0	32.3090	0	24.705	0	25.782	0	255.8	4	93.1	4	-1E+10	1	-1E+10	1	-1E+10	1	-1E+10	1	-1E+10	1	-1E+10	1
4902549	84	C	12/08/2022	20:04	-133.302	47.371	0	27.00	0	10.8640	0	32.3090	0	24.705	0	26.773	0	255.8	4	93.1	4	-1E+10	1	-1E+10	1	-1E+10	1	-1E+10	1	-1E+10	1	-1E+10	1
4902549	84	C	12/08/2022	20:04	-133.302	47.371	0	28.00	0	10.8640	0	32.3090	0	24.706	0	27.765	0	255.8	4	93.1	4	-1E+10	1	-1E+10	1	-1E+10	1	-1E+10	1	-1E+10	1	-1E+10	1
4902549	84	C	12/08/2022	20:04	-133.302	47.371	0	28.90	0	10.8640	0	32.3090	0	24.706	0	28.657	0	255.8	4	93.1	4	-1E+10	1	-1E+10	1	-1E+10	1	-1E+10	1	-1E+10	1	-1E+10	1
4902549	84	C	12/08/2022	20:04	-133.302	47.371	0	29.80	0	10.8650	0	32.3090	0	24.705	0	29.550	0	255.7	4	93.1	4	-1E+10	1	-1E+10	1	-1E+10	1	-1E+10	1	-1E+10	1	-1E+10	1
4902549	84	C	12/08/2022	20:04	-133.302	47.371	0	30.80	0	10.8640	0	32.3090	0	24.706	0	30.541	0	255.8	4	93.1	4	-1E+10	1	-1E+10	1	-1E+10	1	-1E+10	1	-1E+10	1	-1E+10	1
4902549	84	C	12/08/2022	20:04	-133.302	47.371	0	32.00	0	10.8640	0	32.3090	0	24.706	0	31.731	0	255.7	4	93.1	4	-1E+10	1	-1E+10	1	-1E+10	1	-1E+10	1	-1E+10	1	-1E+10	1
4902549	84	C	12/08/2022	20:04	-133.302	47.371	0	33.00	0	10.8650	0	32.3090	0	24.705	0	32.722	0	255.7	4	93.0	4	-1E+10	1	-1E+10	1	-1E+10	1	-1E+10	1	-1E+10	1	-1E+10	1
4902549	84	C	12/08/2022	20:04	-133.302	47.371	0	33.90	0	10.8640	0	32.3090	0	24.706	0	33.615	0	255.7	4	93.0	4	-1E+10	1	-1E+10	1	-1E+10	1	-1E+10	1	-1E+10	1	-1E+10	1
4902549	84	C	12/08/2022	20:04	-133.302	47.371	0	35.10	0	10.8650	0	32.3090	0	24.705	0	34.805	0	255.7	4	93.0	4	-1E+10	1	-1E+10	1	-1E+10	1	-1E+10	1	-1E+10	1	-1E+10	1
4902549	84	C	12/08/2022	20:04	-133.302	47.371	0	36.00	0	10.8650	0	32.3090	0	24.705	0	35.697	0	255.6	4	93.0	4	-1E+10	1	-1E+10	1	-1E+10	1	-1E+10	1	-1E+10	1	-1E+10	1
4902549	84	C	12/08/2022	20:04	-133.302	47.371	0	36.80	0	10.8650	0	32.3080	0	24.705	0	36.490	0	255.6	4	93.0	4	-1E+10	1	-1E+10	1	-1E+10	1	-1E+10	1	-1E+10	1	-1E+10	1
4902549	84	C	12/08/2022	20:04	-133.302	47.371	0	38.00	0	10.8650	0	32.3090	0	24.706	0	37.680	0	255.6	4	93.0	4	-1E+10	1	-1E+10	1	-1E+10	1	-1E+10	1	-1E+10	1	-1E+10	1
4902549	84	C	12/08/2022	20:04	-133.302	47.371	0	39.10	0	10.8650	0	32.3090	0	24.706	0	38.770	0	255.5	4	93.0	4	-1E+10	1	-1E+10	1	-1E+10	1	-1E+10	1	-1E+10	1	-1E+10	1
4902549	84	C	12/08/2022	20:04	-133.302	47.371	0	39.90	0	10.8650	0	32.3090	0	24.706	0	39.564	0	255.5	4	93.0	4	-1E+10	1	-1E+10	1	-1E+10	1	-1E+10	1	-1E+10	1	-1E+10	1
4902549	84	C	12/08/2022	20:04	-133.302	47.371	0	40.70	0	10.8650	0	32.3090	0	24.706	0	40.357	0	255.4	4	92.9	4	-1E+10	1	-1E+10	1	-1E+10	1	-1E+10	1	-1E+10	1	-1E+10	1
4902549	84	C	12/08/2022	20:04	-133.302	47.371	0	41.80	0	10.8650	0	32.3090	0	24.706	0	41.447	0	255.4	4	93.0	4	-1E+10	1	-1E+10	1	-1E+10	1	-1E+10	1	-1E+10	1	-1E+10	1
4902549	84	C	12/08/2022	20:04	-133.302	47.371	0	43.00	0	10.8660	0	32.3090	0	24.705	0	42.637	0	255.4	4	92.9	4	-1E+10	1	-1E+10	1	-1E+10	1	-1E+10	1	-1E+10	1	-1E+10	1
4902549	84	C	12/08/2022	20:04	-133.302	47.371	0	43.90	0	10.8660	0	32.3090	0	24.705	0	43.530	0	255.4	4	92.9	4	-1E+10	1	-1E+10	1	-1E+10	1	-1E+10	1	-1E+10	1	-1E+10	1
4902549	84	C	12/08/2022	20:04	-133.302	47.371	0	44.80	0	10.8650	0	32.3090	0	24.706	0	44.422	0	255.3	4	92.9	4	-1E+10	1	-1E+10	1	-1E+10	1	-1E+10	1	-1E+10	1	-1E+10	1
4902549	84	C	12/08/2022	20:04	-133.302	47.371	0	46.10	0	10.8640	0	32.3080	0	24.705	0	45.711	0	255.4	4	92.9	4	-1E+10	1	-1E+10	1	-1E+10	1	-1E+10	1	-1E+10	1	-1E+10	1
4902549	84	C	12/08/2022	20:04	-133.302	47.371	0	47.10	0	10.8660	0	32.3090	0	24.706	0	46.702	0	255.3	4	92.9	4	-1E+10	1	-1E+10	1	-1E+10	1	-1E+10	1	-1E+10	1	-1E+10	1
4902549	84	C	12/08/2022	20:04	-133.302	47.371	0	48.00	0	10.8640	0	32.3090	0	24.706	0	47.594	0	255.1	4	92.8	4	-1E+10	1	-1E+10	1	-1E+10	1	-1E+10	1	-1E+10	1	-1E+10	1
4902549	84	C	12/08/2022	20:04	-133.302	47.371	0	49.20	0	10.8650	0	32.3080	0	24.705	0	48.784	0	255.2	4	92.9	4	-1E+10	1	-1E+10	1	-1E+10	1	-1E+10	1	-1E+10	1	-1E+10	1
4902549	84	C	12/08/2022	20:04	-133.302	47.371	0	50.10	0	10.8640	0	32.3080	0	24.705	0	49.676	0	255.1	4	92.8	4	-1E+10	1	-1E+10	1	-1E+10	1	-1E+10	1	-1E+10	1	-1E+10	1
4902549	84	C	12/08/2022	20:04	-133.302	47.371	0	51.10	0	10.8640	0	32.3080	0	24.705	0	50.668	0	255.1	4	92.8	4	-1E+10	1	-1E+10	1	-1E+10	1	-1E+10	1	-1E+10	1	-1E+10	1
4902549	84	C	12/08/2022	20:04	-133.302	47.371	0	52.10	0	10.8640	0	32.3080	0	24.705	0	51.659	0	255.0	4	92.8	4	-1E+10	1	-1E+10	1	-1E+10	1	-1E+10	1	-1E+10	1	-1E+10	1
4902549	84	C	12/08/2022	20:04	-133.302	47.371	0	53.00	0	10.8640	0	32.3090	0	24.706	0	52.552	0	255.1	4	92.8	4	-1E+10	1	-1E+10	1	-1E+10	1	-1E+10	1	-1E+10	1	-1E+10	1
4902549	84	C	12/08/2022	20:04	-133.302	47.371	0	54.00	0	10.8660	0	32.3090	0	24.706	0	53.543	0	255.0	4	92.8	4	-1E+10	1	-1E+10	1	-1E+10	1	-1E+10	1	-1E+10	1	-1E+10	1
4902549	84	C	12/08/2022	20:04	-133.302	47.371	0	55.10	0	10.8670	0	32.3090	0	24.706	0	54.633	0	254.9	4	92.8	4	-1E+10	1	-1E+10	1	-1E+10	1	-1E+10	1	-1E+10	1	-1E+10	1
4902549	84	C	12/08/2022	20:04	-133.302	47.371	0	56.00	0	10.8670	0	32.3090	0	24.706	0	55.526	0	254.8	4	92.7	4	-1E+10	1	-1E+10	1	-1E+10	1	-1E+10	1	-1E+10	1	-1E+10	1
4902549	84	C	12/08/2022	20:04	-133.302	47.371	0	56.80	0	10.8650	0	32.3090	0	24.706	0	56.319	0	254.7	4	92.7	4	-1E+10	1	-1E+10	1	-1E+10	1	-1E+10	1	-1E+10	1	-1E+10	1
4902549	84	C	12/08/2022	20:04	-133.302	47.371	0	57.90	0	10.8620	0	32.3090	0	24.706	0	57.409	0	254.7	4	92.7	4	-1E+10	1	-1E+10	1	-1E+10	1	-1E+10	1	-1E+10	1	-1E+10	1
4902549	84	C	12/08/2022	20:04	-133.302	47.371	0	59.00	0	10.8630	0	32.3080	0	24.706	0	58.500	0	254.6	4	92.7	4	-1E+10	1	-1E+10	1	-1E+10	1	-1E+10	1	-1E+10	1	-1E+10	1
4902549	84	C	12/08/2022	20:04	-133.302	47.371	0	60.10	0	10.8610	0	32.3080	0	24.706	0	59.590	0	254.5	4	92.6	4	-1E+10	1	-1E+10	1	-1E+10	1	-1E+10	1	-1E+10	1	-1E+10	1
4902549	84	C	12/08/2022	20:04	-133.302	47.371	0	61.00	0	10.8650	0	32.3050	0	24.703	0	60.483	0	254.5	4	92.6	4	-1E+10	1	-1E+10	1	-1E+10	1	-1E+10	1	-1E+10	1	-1E+10	1
4902549	84	C	12/08/2022	20:04	-133.302	47.371	0	61.80	0	10.8650	0	32.3080	0	24.705	0	61.276	0	254.3	4	92.6	4	-1E+10	1	-1E+10	1	-1E+10	1	-1E+10	1	-1E+10	1	-1E+10	1
4902549	84	C	12/08/2022	20:04	-133.302	47.371	0	63.00	0	10.8640	0	32.3080	0	24.705	0	62.465	0	254.2	4	92.5	4	-1E+10	1	-1E+10	1	-1E+10	1	-1E+10	1	-1E+10	1	-1E+10	1
4902549	84	C	12/08/2022	20:04	-133.302	47.371	0	64.10	0	10.8630	0	32.3090	0	24.706	0	63.556	0	254.0	4	92.4	4	-1E+10	1	-1E+10	1	-1E+10	1	-1E+10	1	-1E+10	1	-1E+10	1
4902549	84	C	12/08/2022	20:04	-133.302	47.371	0	65.00	0	10.8640	0	32.3080	0	24.705	0	64.448	0	253.8	4	92.4	4	-1E+10	1	-1E+10	1	-1E+10	1	-1E+10	1	-1E+10	1	-1E+10	1
4902549	84	C	12/08/2022	20:04	-133.302	47.371	0	65.70	0	10.8640	0	32.3080	0	24.706	0	65.142	0	253.7	4	92.3	4	-1E+10	1	-1E+10	1	-1E+10	1	-1E+10	1	-1E+10	1	-1E+10	1
4902549	84	C	12/08/2022	20:04	-133.302	47.371	0	66.80	0	10.8640	0	32.3080	0	24.706	0	66.233	0	253.4	4	92.2	4	-1E+10	1	-1E+10	1	-1E+10	1	-1E+10	1	-1E+10	1	-1E+10	1
4902549	84	C	12/08/2022	20:04	-133.302	47.371	0	67.80	0	10.8600	0	32.3080	0	24.706	0	67.224	0	253.2	4	92.1	4	-1E+10	1	-1E+10	1	-1E+10	1	-1E+10	1	-1E+10	1	-1E+10	1
4902549	84	C	12/08/2022	20:04	-133.302	47.371	0	68.80	0	10.8590	0	32.3080	0	24.706	0	68.215	0	252.8	4	92.0	4	-1E+10	1	-1E+10	1	-1E+10	1	-1E+10	1	-1E+10	1	-1E+10	1
4902549	84	C	12/08/2022	20:04	-133.302	47.371	0	69.90	0	10.8560	0	32.3090	0	24.708	0	69.306	0	252.2	4	91.8	4	-1E+10	1	-1E+10	1	-1E+10	1	-1E+10	1	-1E+10	1	-1E+10	1
4902549	84	C	12/08/2022	20:04	-133.302	47.371	0	71.10	0	10.8540	0	32.3060	0	24.706	0	70.495	0	251.3	4	91.4	4	-1E+10	1	-1E+10	1	-1E+10	1	-1E+10	1	-1E+10	1	-1E+10	1
4902549	84	C	12/08/2022	20:04	-133.302	47.371	0	71.80	0	10.8330	0	32.3080	0	24.711	0	71.189	0	250.6	4	91.1	4	-1E+10	1	-1E+10	1	-1E+10	1	-1E+10	1	-1E+10	1	-1E+10	1
4902549	84	C	12/08/2022	20:04	-133.302	47.371	0	72.80	0	10.5080	0	32.3220	0	24.778	0	72.181	0	248.2	4	89.6	4	-1E+10	1	-1E+10	1	-1E+10	1	-1E+10	1	-1E+10	1	-1E+10	1
4902549	84	C	12/08/2022	20:04	-133.302	47.371	0	73.80	0	9.5780	0	32.3200	0	24.930	0	73.172	0	248.5	4	88.0	4	-1E+10	1	-1E+10	1	-1E+10	1	-1E+10	1	-1E+10	1	-1E+10	1
4902549	84	C	12/08/2022	20:04	-133.302	47.371	0	75.10	0	8.6460	0	32.3450	0	25.095	0	74.461	0	252.0	4	87.4	4	-1E+10	1	-1E+10	1	-1E+10	1	-1E+10	1	-1E+10	1	-1E+10	1
4902549	84	C	12/08/2022	20:04	-133.302	47.371	0	75.80	0	8.5210	0	32.3510	0	25.119	0	75.154	0	252.0	4	87.1	4	-1E+10	1	-1E+10	1	-1E+10	1	-1E+10	1	-1E+10	1	-1E+10	1
4902549	84	C	12/08/2022	20:04	-133.302	47.371	0	77.00	0	8.3540	0	32.3570	0	25.148	0	76.344	0	251.9	4	86.8	4	-1E+10	1	-1E+10	1	-1E+10	1	-1E+10	1	-1E+10	1	-1E+10	1
4902549	84	C	12/08/2022	20:04	-133.302	47.371	0	78.10	0	8.2780	0	32.3650	0	25.166	0	77.434	0	251.4	4	86.5	4	-1E+10	1	-1E+10	1	-1E+10	1	-1E+10	1	-1E+10	1	-1E+10	1
4902549	84	C	12/08/2022	20:04	-133.302	47.371	0	79.10	0	8.2300	0	32.3710	0	25.178	0	78.426	0	250.9	4	86.2	4	-1E+10	1	-1E+10	1	-1E+10	1	-1E+10	1	-1E+10	1	-1E+10	1
4902549	84	C	12/08/2022	20:04	-133.302	47.371	0	79.90	0	8.0690	0	32.3910	0	25.217	0	79.219	0	251.2	4	86.0	4	-1E+10	1	-1E+10	1	-1E+10	1	-1E+10	1	-1E+10	1	-1E+10	1
4902549	84	C	12/08/2022	20:04	-133.302	47.371	0	81.10	0	8.0240	0	32.3940	0	25.226	0	80.408	0	250.8	4	85.8	4	-1E+10	1	-1E+10	1	-1E+10	1	-1E+10	1	-1E+10	1	-1E+10	1
4902549	84	C	12/08/2022	20:04	-133.302	47.371	0	81.80	0	7.9820	0	32.4010	0	25.237	0	81.102	0	250.5	4	85.6	4	-1E+10	1	-1E+10	1	-1E+10	1	-1E+10	1	-1E+10	1	-1E+10	1
4902549	84	C	12/08/2022	20:04	-133.302	47.371	0	83.10	0	7.9290	0	32.4090	0	25.251	0	82.391	0	256.3	4	87.5	4	-1E+10	1	-1E+10	1	-1E+10	1	-1E+10	1	-1E+10	1	-1E+10	1
4902549	84	C	12/08/2022	20:04	-133.302	47.371	0	84.10	0	7.8700	0	32.4190	0	25.267	0	83.382	0	255.7	4	87.2	4	-1E+10	1	-1E+10	1	-1E+10	1	-1E+10	1	-1E+10	1	-1E+10	1
4902549	84	C	12/08/2022	20:04	-133.302	47.371	0	85.10	0	7.8430	0	32.4220	0	25.274	0	84.373	0	255.2	4	87.0	4	-1E+10	1	-1E+10	1	-1E+10	1	-1E+10	1	-1E+10	1	-1E+10	1
4902549	84	C	12/08/2022	20:04	-133.302	47.371	0	86.10	0	7.8300	0	32.4250	0	25.278	0	85.365	0	254.0	4	86.5	4	-1E+10	1	-1E+10	1	-1E+10	1	-1E+10	1	-1E+10	1	-1E+10	1
4902549	84	C	12/08/2022	20:04	-133.302	47.371	0	87.00	0	7.8180	0	32.4280	0	25.282	0	86.257	0	252.7	4	86.1	4	-1E+10	1	-1E+10	1	-1E+10	1	-1E+10	1	-1E+10	1	-1E+10	1
4902549	84	C	12/08/2022	20:04	-133.302	47.371	0	88.00	0	7.8100	0	32.4320	0	25.286	0	87.248	0	251.3	4	85.6	4	-1E+10	1	-1E+10	1	-1E+10	1	-1E+10	1	-1E+10	1	-1E+10	1
4902549	84	C	12/08/2022	20:04	-133.302	47.371	0	89.10	0	7.7830	0	32.4440	0	25.299	0	88.338	0	250.0	4	85.1	4	-1E+10	1	-1E+10	1	-1E+10	1	-1E+10	1	-1E+10	1	-1E+10	1
4902549	84	C	12/08/2022	20:04	-133.302	47.371	0	90.10	0	7.6980	0	32.4710	0	25.333	0	89.330	0	249.5	4	84.8	4	-1E+10	1	-1E+10	1	-1E+10	1	-1E+10	1	-1E+10	1	-1E+10	1
4902549	84	C	12/08/2022	20:04	-133.302	47.371	0	91.20	0	7.6250	0	32.4940	0	25.361	0	90.420	0	249.1	4	84.5	4	-1E+10	1	-1E+10	1	-1E+10	1	-1E+10	1	-1E+10	1	-1E+10	1
4902549	84	C	12/08/2022	20:04	-133.302	47.371	0	91.80	0	7.5840	0	32.4960	0	25.368	0	91.015	0	248.5	4	84.3	4	-1E+10	1	-1E+10	1	-1E+10	1	-1E+10	1	-1E+10	1	-1E+10	1
4902549	84	C	12/08/2022	20:04	-133.302	47.371	0	93.10	0	7.5130	0	32.5020	0	25.383	0	92.303	0	247.1	4	83.6	4	-1E+10	1	-1E+10	1	-1E+10	1	-1E+10	1	-1E+10	1	-1E+10	1
4902549	84	C	12/08/2022	20:04	-133.302	47.371	0	94.00	0	7.4600	0	32.5040	0	25.392	0	93.195	0	245.6	4	83.1	4	-1E+10	1	-1E+10	1	-1E+10	1	-1E+10	1	-1E+10	1	-1E+10	1
4902549	84	C	12/08/2022	20:04	-133.302	47.371	0	95.00	0	7.4350	0	32.5070	0	25.398	0	94.187	0	243.7	4	82.4	4	-1E+10	1	-1E+10	1	-1E+10	1	-1E+10	1	-1E+10	1	-1E+10	1
4902549	84	C	12/08/2022	20:04	-133.302	47.371	0	96.00	0	7.4040	0	32.5100	0	25.404	0	95.178	0	241.1	4	81.4	4	-1E+10	1	-1E+10	1	-1E+10	1	-1E+10	1	-1E+10	1	-1E+10	1
4902549	84	C	12/08/2022	20:04	-133.302	47.371	0	97.00	0	7.4080	0	32.5260	0	25.416	0	96.169	0	238.0	4	80.4	4	-1E+10	1	-1E+10	1	-1E+10	1	-1E+10	1	-1E+10	1	-1E+10	1
4902549	84	C	12/08/2022	20:04	-133.302	47.371	0	98.20	0	7.5100	0	32.5560	0	25.426	0	97.358	0	234.6	4	79.4	4	-1E+10	1	-1E+10	1	-1E+10	1	-1E+10	1	-1E+10	1	-1E+10	1
4902549	84	C	12/08/2022	20:04	-133.302	47.371	0	98.90	0	7.5580	0	32.5850	0	25.442	0	98.052	0	233.1	4	79.0	4	-1E+10	1	-1E+10	1	-1E+10	1	-1E+10	1	-1E+10	1	-1E+10	1
4902549	84	C	12/08/2022	20:04	-133.302	47.371	0	100.10	0	7.5620	0	32.6020	0	25.455	0	99.242	0	231.0	4	78.4	4	-1E+10	1	-1E+10	1	-1E+10	1	-1E+10	1	-1E+10	1	-1E+10	1
4902549	84	C	12/08/2022	20:04	-133.302	47.371	0	100.90	0	7.5400	0	32.6170	0	25.470	0	100.035	0	230.0	4	78.0	4	-1E+10	1	-1E+10	1	-1E+10	1	-1E+10	1	-1E+10	1	-1E+10	1
4902549	84	C	12/08/2022	20:04	-133.302	47.371	0	101.90	0	7.5180	0	32.6330	0	25.485	0	101.026	0	228.3	4	77.4	4	-1E+10	1	-1E+10	1	-1E+10	1	-1E+10	1	-1E+10	1	-1E+10	1
4902549	84	C	12/08/2022	20:04	-133.302	47.371	0	102.90	0	7.5110	0	32.6500	0	25.500	0	102.017	0	226.2	4	76.6	4	-1E+10	1	-1E+10	1	-1E+10	1	-1E+10	1	-1E+10	1	-1E+10	1
4902549	84	C	12/08/2022	20:04	-133.302	47.371	0	104.00	0	7.5010	0	32.6720	0	25.518	0	103.107	0	224.1	4	75.9	4	-1E+10	1	-1E+10	1	-1E+10	1	-1E+10	1	-1E+10	1	-1E+10	1
4902549	84	C	12/08/2022	20:04	-133.302	47.371	0	105.00	0	7.4640	0	32.7310	0	25.570	0	104.098	0	222.6	4	75.4	4	-1E+10	1	-1E+10	1	-1E+10	1	-1E+10	1	-1E+10	1	-1E+10	1
4902549	84	C	12/08/2022	20:04	-133.302	47.371	0	106.20	0	7.4580	0	32.7540	0	25.589	0	105.288	0	220.9	4	74.8	4	-1E+10	1	-1E+10	1	-1E+10	1	-1E+10	1	-1E+10	1	-1E+10	1
4902549	84	C	12/08/2022	20:04	-133.302	47.371	0	107.10	0	7.4570	0	32.7580	0	25.592	0	106.180	0	218.5	4	74.0	4	-1E+10	1	-1E+10	1	-1E+10	1	-1E+10	1	-1E+10	1	-1E+10	1
4902549	84	C	12/08/2022	20:04	-133.302	47.371	0	107.90	0	7.4530	0	32.7810	0	25.611	0	106.973	0	216.9	4	73.5	4	-1E+10	1	-1E+10	1	-1E+10	1	-1E+10	1	-1E+10	1	-1E+10	1
4902549	84	C	12/08/2022	20:04	-133.302	47.371	0	109.10	0	7.4550	0	32.8380	0	25.655	0	108.162	0	215.2	4	72.9	4	-1E+10	1	-1E+10	1	-1E+10	1	-1E+10	1	-1E+10	1	-1E+10	1
4902549	84	C	12/08/2022	20:04	-133.302	47.371	0	110.10	0	7.4520	0	32.8670	0	25.679	0	109.153	0	213.6	4	72.4	4	-1E+10	1	-1E+10	1	-1E+10	1	-1E+10	1	-1E+10	1	-1E+10	1
4902549	84	C	12/08/2022	20:04	-133.302	47.371	0	110.80	0	7.4490	0	32.8870	0	25.695	0	109.847	0	212.2	4	71.9	4	-1E+10	1	-1E+10	1	-1E+10	1	-1E+10	1	-1E+10	1	-1E+10	1
4902549	84	C	12/08/2022	20:04	-133.302	47.371	0	111.90	0	7.4390	0	32.9060	0	25.711	0	110.937	0	210.1	4	71.2	4	-1E+10	1	-1E+10	1	-1E+10	1	-1E+10	1	-1E+10	1	-1E+10	1
4902549	84	C	12/08/2022	20:04	-133.302	47.371	0	113.10	0	7.4310	0	32.9360	0	25.736	0	112.127	0	207.7	4	70.4	4	-1E+10	1	-1E+10	1	-1E+10	1	-1E+10	1	-1E+10	1	-1E+10	1
4902549	84	C	12/08/2022	20:04	-133.302	47.371	0	113.90	0	7.4260	0	32.9700	0	25.763	0	112.920	0	205.5	4	69.7	4	-1E+10	1	-1E+10	1	-1E+10	1	-1E+10	1	-1E+10	1	-1E+10	1
4902549	84	C	12/08/2022	20:04	-133.302	47.371	0	114.90	0	7.4060	0	33.0010	0	25.790	0	113.911	0	202.7	4	68.7	4	-1E+10	1	-1E+10	1	-1E+10	1	-1E+10	1	-1E+10	1	-1E+10	1
4902549	84	C	12/08/2022	20:04	-133.302	47.371	0	115.90	0	7.3800	0	33.0250	0	25.813	0	114.902	0	200.0	4	67.8	4	-1E+10	1	-1E+10	1	-1E+10	1	-1E+10	1	-1E+10	1	-1E+10	1
4902549	84	C	12/08/2022	20:04	-133.302	47.371	0	117.20	0	7.3740	0	33.0330	0	25.820	0	116.190	0	195.8	4	66.3	4	-1E+10	1	-1E+10	1	-1E+10	1	-1E+10	1	-1E+10	1	-1E+10	1
4902549	84	C	12/08/2022	20:04	-133.302	47.371	0	117.80	0	7.3630	0	33.0430	0	25.829	0	116.785	0	193.4	4	65.5	4	-1E+10	1	-1E+10	1	-1E+10	1	-1E+10	1	-1E+10	1	-1E+10	1
4902549	84	C	12/08/2022	20:04	-133.302	47.371	0	118.90	0	7.3050	0	33.1360	0	25.911	0	117.875	0	191.1	4	64.7	4	-1E+10	1	-1E+10	1	-1E+10	1	-1E+10	1	-1E+10	1	-1E+10	1
4902549	84	C	12/08/2022	20:04	-133.302	47.371	0	120.00	0	7.2870	0	33.1850	0	25.952	0	118.965	0	189.3	4	64.1	4	-1E+10	1	-1E+10	1	-1E+10	1	-1E+10	1	-1E+10	1	-1E+10	1
4902549	84	C	12/08/2022	20:04	-133.302	47.371	0	121.10	0	7.2850	0	33.2290	0	25.987	0	120.056	0	187.7	4	63.5	4	-1E+10	1	-1E+10	1	-1E+10	1	-1E+10	1	-1E+10	1	-1E+10	1
4902549	84	C	12/08/2022	20:04	-133.302	47.371	0	122.00	0	7.2850	0	33.2600	0	26.011	0	120.947	0	186.3	4	63.1	4	-1E+10	1	-1E+10	1	-1E+10	1	-1E+10	1	-1E+10	1	-1E+10	1
4902549	84	C	12/08/2022	20:04	-133.302	47.371	0	122.90	0	7.2850	0	33.2880	0	26.033	0	121.839	0	185.0	4	62.6	4	-1E+10	1	-1E+10	1	-1E+10	1	-1E+10	1	-1E+10	1	-1E+10	1
4902549	84	C	12/08/2022	20:04	-133.302	47.371	0	124.10	0	7.2840	0	33.3280	0	26.065	0	123.029	0	183.2	4	62.1	4	-1E+10	1	-1E+10	1	-1E+10	1	-1E+10	1	-1E+10	1	-1E+10	1
4902549	84	C	12/08/2022	20:04	-133.302	47.371	0	125.00	0	7.2900	0	33.3500	0	26.081	0	123.921	0	181.9	4	61.7	4	-1E+10	1	-1E+10	1	-1E+10	1	-1E+10	1	-1E+10	1	-1E+10	1
4902549	84	C	12/08/2022	20:04	-133.302	47.371	0	125.90	0	7.2960	0	33.3930	0	26.114	0	124.813	0	180.9	4	61.4	4	-1E+10	1	-1E+10	1	-1E+10	1	-1E+10	1	-1E+10	1	-1E+10	1
4902549	84	C	12/08/2022	20:04	-133.302	47.371	0	126.90	0	7.2850	0	33.4150	0	26.133	0	125.804	0	180.3	4	61.1	4	-1E+10	1	-1E+10	1	-1E+10	1	-1E+10	1	-1E+10	1	-1E+10	1
4902549	84	C	12/08/2022	20:04	-133.302	47.371	0	127.90	0	7.2720	0	33.4660	0	26.175	0	126.795	0	179.3	4	60.8	4	-1E+10	1	-1E+10	1	-1E+10	1	-1E+10	1	-1E+10	1	-1E+10	1
4902549	84	C	12/08/2022	20:04	-133.302	47.371	0	129.10	0	7.2720	0	33.5050	0	26.206	0	127.984	0	178.5	4	60.5	4	-1E+10	1	-1E+10	1	-1E+10	1	-1E+10	1	-1E+10	1	-1E+10	1
4902549	84	C	12/08/2022	20:04	-133.302	47.371	0	129.90	0	7.2720	0	33.5190	0	26.217	0	128.777	0	178.1	4	60.4	4	-1E+10	1	-1E+10	1	-1E+10	1	-1E+10	1	-1E+10	1	-1E+10	1
4902549	84	C	12/08/2022	20:04	-133.302	47.371	0	130.70	0	7.2730	0	33.5320	0	26.227	0	129.570	0	178.1	4	60.4	4	-1E+10	1	-1E+10	1	-1E+10	1	-1E+10	1	-1E+10	1	-1E+10	1
4902549	84	C	12/08/2022	20:04	-133.302	47.371	0	131.90	0	7.2680	0	33.5510	0	26.242	0	130.759	0	177.9	4	60.3	4	-1E+10	1	-1E+10	1	-1E+10	1	-1E+10	1	-1E+10	1	-1E+10	1
4902549	84	C	12/08/2022	20:04	-133.302	47.371	0	133.20	0	7.2680	0	33.5520	0	26.243	0	132.047	0	177.6	4	60.2	4	-1E+10	1	-1E+10	1	-1E+10	1	-1E+10	1	-1E+10	1	-1E+10	1
4902549	84	C	12/08/2022	20:04	-133.302	47.371	0	134.10	0	7.2680	0	33.5540	0	26.245	0	132.939	0	177.4	4	60.2	4	-1E+10	1	-1E+10	1	-1E+10	1	-1E+10	1	-1E+10	1	-1E+10	1
4902549	84	C	12/08/2022	20:04	-133.302	47.371	0	135.00	0	7.2670	0	33.5570	0	26.247	0	133.831	0	177.2	4	60.1	4	-1E+10	1	-1E+10	1	-1E+10	1	-1E+10	1	-1E+10	1	-1E+10	1
4902549	84	C	12/08/2022	20:04	-133.302	47.371	0	135.90	0	7.2670	0	33.5610	0	26.251	0	134.723	0	177.1	4	60.1	4	-1E+10	1	-1E+10	1	-1E+10	1	-1E+10	1	-1E+10	1	-1E+10	1
4902549	84	C	12/08/2022	20:04	-133.302	47.371	0	136.70	0	7.2670	0	33.5610	0	26.251	0	135.516	0	176.9	4	60.0	4	-1E+10	1	-1E+10	1	-1E+10	1	-1E+10	1	-1E+10	1	-1E+10	1
4902549	84	C	12/08/2022	20:04	-133.302	47.371	0	137.60	0	7.2670	0	33.5620	0	26.251	0	136.408	0	176.8	4	60.0	4	-1E+10	1	-1E+10	1	-1E+10	1	-1E+10	1	-1E+10	1	-1E+10	1
4902549	84	C	12/08/2022	20:04	-133.302	47.371	0	138.50	0	7.2670	0	33.5630	0	26.252	0	137.300	0	176.6	4	59.9	4	-1E+10	1	-1E+10	1	-1E+10	1	-1E+10	1	-1E+10	1	-1E+10	1
4902549	84	C	12/08/2022	20:04	-133.302	47.371	0	139.90	0	7.2650	0	33.5690	0	26.257	0	138.687	0	176.4	4	59.8	4	-1E+10	1	-1E+10	1	-1E+10	1	-1E+10	1	-1E+10	1	-1E+10	1
4902549	84	C	12/08/2022	20:04	-133.302	47.371	0	141.40	0	7.2620	0	33.5840	0	26.269	0	140.174	0	176.5	4	59.9	4	-1E+10	1	-1E+10	1	-1E+10	1	-1E+10	1	-1E+10	1	-1E+10	1
4902549	84	C	12/08/2022	20:04	-133.302	47.371	0	142.30	0	7.2560	0	33.6050	0	26.287	0	141.065	0	176.7	4	60.0	4	-1E+10	1	-1E+10	1	-1E+10	1	-1E+10	1	-1E+10	1	-1E+10	1
4902549	84	C	12/08/2022	20:04	-133.302	47.371	0	143.30	0	7.2550	0	33.6090	0	26.290	0	142.056	0	177.1	4	60.1	4	-1E+10	1	-1E+10	1	-1E+10	1	-1E+10	1	-1E+10	1	-1E+10	1
4902549	84	C	12/08/2022	20:04	-133.302	47.371	0	144.30	0	7.2520	0	33.6170	0	26.297	0	143.047	0	177.4	4	60.2	4	-1E+10	1	-1E+10	1	-1E+10	1	-1E+10	1	-1E+10	1	-1E+10	1
4902549	84	C	12/08/2022	20:04	-133.302	47.371	0	145.30	0	7.2510	0	33.6230	0	26.302	0	144.038	0	177.6	4	60.3	4	-1E+10	1	-1E+10	1	-1E+10	1	-1E+10	1	-1E+10	1	-1E+10	1
4902549	84	C	12/08/2022	20:04	-133.302	47.371	0	146.20	0	7.2490	0	33.6290	0	26.307	0	144.930	0	177.5	4	60.2	4	-1E+10	1	-1E+10	1	-1E+10	1	-1E+10	1	-1E+10	1	-1E+10	1
4902549	84	C	12/08/2022	20:04	-133.302	47.371	0	147.20	0	7.2470	0	33.6330	0	26.310	0	145.921	0	177.4	4	60.2	4	-1E+10	1	-1E+10	1	-1E+10	1	-1E+10	1	-1E+10	1	-1E+10	1
4902549	84	C	12/08/2022	20:04	-133.302	47.371	0	148.20	0	7.2400	0	33.6460	0	26.321	0	146.912	0	177.4	4	60.2	4	-1E+10	1	-1E+10	1	-1E+10	1	-1E+10	1	-1E+10	1	-1E+10	1
4902549	84	C	12/08/2022	20:04	-133.302	47.371	0	149.20	0	7.2350	0	33.6660	0	26.338	0	147.903	0	177.1	4	60.1	4	-1E+10	1	-1E+10	1	-1E+10	1	-1E+10	1	-1E+10	1	-1E+10	1
4902549	84	C	12/08/2022	20:04	-133.302	47.371	0	150.30	0	7.2370	0	33.6890	0	26.356	0	148.993	0	176.6	4	59.9	4	-1E+10	1	-1E+10	1	-1E+10	1	-1E+10	1	-1E+10	1	-1E+10	1
4902549	84	C	12/08/2022	20:04	-133.302	47.371	0	151.30	0	7.2380	0	33.7010	0	26.365	0	149.984	0	176.0	4	59.7	4	-1E+10	1	-1E+10	1	-1E+10	1	-1E+10	1	-1E+10	1	-1E+10	1
4902549	84	C	12/08/2022	20:04	-133.302	47.371	0	152.40	0	7.2340	0	33.7070	0	26.370	0	151.074	0	175.4	4	59.5	4	-1E+10	1	-1E+10	1	-1E+10	1	-1E+10	1	-1E+10	1	-1E+10	1
4902549	84	C	12/08/2022	20:04	-133.302	47.371	0	153.40	0	7.2230	0	33.7170	0	26.380	0	152.065	0	174.7	4	59.3	4	-1E+10	1	-1E+10	1	-1E+10	1	-1E+10	1	-1E+10	1	-1E+10	1
4902549	84	C	12/08/2022	20:04	-133.302	47.371	0	154.40	0	7.2180	0	33.7210	0	26.384	0	153.056	0	174.0	4	59.0	4	-1E+10	1	-1E+10	1	-1E+10	1	-1E+10	1	-1E+10	1	-1E+10	1
4902549	84	C	12/08/2022	20:04	-133.302	47.371	0	155.50	0	7.2110	0	33.7260	0	26.388	0	154.146	0	173.3	4	58.8	4	-1E+10	1	-1E+10	1	-1E+10	1	-1E+10	1	-1E+10	1	-1E+10	1
4902549	84	C	12/08/2022	20:04	-133.302	47.371	0	156.50	0	7.1980	0	33.7330	0	26.396	0	155.137	0	172.6	4	58.5	4	-1E+10	1	-1E+10	1	-1E+10	1	-1E+10	1	-1E+10	1	-1E+10	1
4902549	84	C	12/08/2022	20:04	-133.302	47.371	0	157.60	0	7.1740	0	33.7420	0	26.406	0	156.227	0	171.9	4	58.3	4	-1E+10	1	-1E+10	1	-1E+10	1	-1E+10	1	-1E+10	1	-1E+10	1
4902549	84	C	12/08/2022	20:04	-133.302	47.371	0	158.60	0	7.1600	0	33.7470	0	26.412	0	157.218	0	171.4	4	58.1	4	-1E+10	1	-1E+10	1	-1E+10	1	-1E+10	1	-1E+10	1	-1E+10	1
4902549	84	C	12/08/2022	20:04	-133.302	47.371	0	159.70	0	7.1480	0	33.7520	0	26.418	0	158.308	0	170.9	4	57.9	4	-1E+10	1	-1E+10	1	-1E+10	1	-1E+10	1	-1E+10	1	-1E+10	1
4902549	84	C	12/08/2022	20:04	-133.302	47.371	0	160.80	0	7.1390	0	33.7540	0	26.420	0	159.398	0	170.4	4	57.7	4	-1E+10	1	-1E+10	1	-1E+10	1	-1E+10	1	-1E+10	1	-1E+10	1
4902549	84	C	12/08/2022	20:04	-133.302	47.371	0	161.80	0	7.1300	0	33.7560	0	26.423	0	160.389	0	169.9	4	57.6	4	-1E+10	1	-1E+10	1	-1E+10	1	-1E+10	1	-1E+10	1	-1E+10	1
4902549	84	C	12/08/2022	20:04	-133.302	47.371	0	162.90	0	7.1160	0	33.7600	0	26.428	0	161.479	0	169.5	4	57.4	4	-1E+10	1	-1E+10	1	-1E+10	1	-1E+10	1	-1E+10	1	-1E+10	1
4902549	84	C	12/08/2022	20:04	-133.302	47.371	0	163.90	0	7.1000	0	33.7660	0	26.435	0	162.470	0	168.9	4	57.2	4	-1E+10	1	-1E+10	1	-1E+10	1	-1E+10	1	-1E+10	1	-1E+10	1
4902549	84	C	12/08/2022	20:04	-133.302	47.371	0	165.00	0	7.0930	0	33.7660	0	26.436	0	163.559	0	168.4	4	57.0	4	-1E+10	1	-1E+10	1	-1E+10	1	-1E+10	1	-1E+10	1	-1E+10	1
4902549	84	C	12/08/2022	20:04	-133.302	47.371	0	166.00	0	7.0890	0	33.7660	0	26.437	0	164.550	0	167.8	4	56.8	4	-1E+10	1	-1E+10	1	-1E+10	1	-1E+10	1	-1E+10	1	-1E+10	1
4902549	84	C	12/08/2022	20:04	-133.302	47.371	0	167.10	0	7.0470	0	33.7760	0	26.450	0	165.640	0	167.4	4	56.6	4	-1E+10	1	-1E+10	1	-1E+10	1	-1E+10	1	-1E+10	1	-1E+10	1
4902549	84	C	12/08/2022	20:04	-133.302	47.371	0	168.10	0	7.0090	0	33.7830	0	26.461	0	166.631	0	167.2	4	56.5	4	-1E+10	1	-1E+10	1	-1E+10	1	-1E+10	1	-1E+10	1	-1E+10	1
4902549	84	C	12/08/2022	20:04	-133.302	47.371	0	169.20	0	7.0080	0	33.7800	0	26.459	0	167.721	0	166.8	4	56.3	4	-1E+10	1	-1E+10	1	-1E+10	1	-1E+10	1	-1E+10	1	-1E+10	1
4902549	84	C	12/08/2022	20:04	-133.302	47.371	0	170.20	0	7.0080	0	33.7800	0	26.459	0	168.712	0	166.4	4	56.2	4	-1E+10	1	-1E+10	1	-1E+10	1	-1E+10	1	-1E+10	1	-1E+10	1
4902549	84	C	12/08/2022	20:04	-133.302	47.371	0	171.30	0	6.9920	0	33.7830	0	26.464	0	169.802	0	166.0	4	56.0	4	-1E+10	1	-1E+10	1	-1E+10	1	-1E+10	1	-1E+10	1	-1E+10	1
4902549	84	C	12/08/2022	20:04	-133.302	47.371	0	172.30	0	6.9720	0	33.7840	0	26.467	0	170.793	0	165.7	4	55.9	4	-1E+10	1	-1E+10	1	-1E+10	1	-1E+10	1	-1E+10	1	-1E+10	1
4902549	84	C	12/08/2022	20:04	-133.302	47.371	0	173.40	0	6.9610	0	33.7850	0	26.469	0	171.883	0	165.4	4	55.8	4	-1E+10	1	-1E+10	1	-1E+10	1	-1E+10	1	-1E+10	1	-1E+10	1
4902549	84	C	12/08/2022	20:04	-133.302	47.371	0	174.40	0	6.9530	0	33.7880	0	26.473	0	172.873	0	165.0	4	55.7	4	-1E+10	1	-1E+10	1	-1E+10	1	-1E+10	1	-1E+10	1	-1E+10	1
4902549	84	C	12/08/2022	20:04	-133.302	47.371	0	175.40	0	6.9420	0	33.7870	0	26.474	0	173.864	0	164.8	4	55.6	4	-1E+10	1	-1E+10	1	-1E+10	1	-1E+10	1	-1E+10	1	-1E+10	1
4902549	84	C	12/08/2022	20:04	-133.302	47.371	0	176.40	0	6.9390	0	33.7870	0	26.474	0	174.855	0	164.5	4	55.5	4	-1E+10	1	-1E+10	1	-1E+10	1	-1E+10	1	-1E+10	1	-1E+10	1
4902549	84	C	12/08/2022	20:04	-133.302	47.371	0	177.40	0	6.9370	0	33.7870	0	26.474	0	175.846	0	164.1	4	55.4	4	-1E+10	1	-1E+10	1	-1E+10	1	-1E+10	1	-1E+10	1	-1E+10	1
4902549	84	C	12/08/2022	20:04	-133.302	47.371	0	178.40	0	6.9340	0	33.7880	0	26.475	0	176.837	0	163.7	4	55.2	4	-1E+10	1	-1E+10	1	-1E+10	1	-1E+10	1	-1E+10	1	-1E+10	1
4902549	84	C	12/08/2022	20:04	-133.302	47.371	0	179.40	0	6.9310	0	33.7880	0	26.476	0	177.828	0	163.3	4	55.1	4	-1E+10	1	-1E+10	1	-1E+10	1	-1E+10	1	-1E+10	1	-1E+10	1
4902549	84	C	12/08/2022	20:04	-133.302	47.371	0	180.30	0	6.9260	0	33.7880	0	26.477	0	178.719	0	162.9	4	54.9	4	-1E+10	1	-1E+10	1	-1E+10	1	-1E+10	1	-1E+10	1	-1E+10	1
4902549	84	C	12/08/2022	20:04	-133.302	47.371	0	181.30	0	6.9210	0	33.7890	0	26.478	0	179.710	0	162.4	4	54.8	4	-1E+10	1	-1E+10	1	-1E+10	1	-1E+10	1	-1E+10	1	-1E+10	1
4902549	84	C	12/08/2022	20:04	-133.302	47.371	0	182.30	0	6.9140	0	33.7890	0	26.479	0	180.701	0	162.0	4	54.6	4	-1E+10	1	-1E+10	1	-1E+10	1	-1E+10	1	-1E+10	1	-1E+10	1
4902549	84	C	12/08/2022	20:04	-133.302	47.371	0	183.30	0	6.9120	0	33.7890	0	26.479	0	181.692	0	161.4	4	54.4	4	-1E+10	1	-1E+10	1	-1E+10	1	-1E+10	1	-1E+10	1	-1E+10	1
4902549	84	C	12/08/2022	20:04	-133.302	47.371	0	184.20	0	6.9090	0	33.7890	0	26.480	0	182.583	0	160.8	4	54.2	4	-1E+10	1	-1E+10	1	-1E+10	1	-1E+10	1	-1E+10	1	-1E+10	1
4902549	84	C	12/08/2022	20:04	-133.302	47.371	0	185.20	0	6.9050	0	33.7890	0	26.480	0	183.574	0	160.2	4	54.0	4	-1E+10	1	-1E+10	1	-1E+10	1	-1E+10	1	-1E+10	1	-1E+10	1
4902549	84	C	12/08/2022	20:04	-133.302	47.371	0	186.10	0	6.9040	0	33.7880	0	26.480	0	184.466	0	159.5	4	53.7	4	-1E+10	1	-1E+10	1	-1E+10	1	-1E+10	1	-1E+10	1	-1E+10	1
4902549	84	C	12/08/2022	20:04	-133.302	47.371	0	187.00	0	6.8960	0	33.7890	0	26.481	0	185.358	0	158.6	4	53.4	4	-1E+10	1	-1E+10	1	-1E+10	1	-1E+10	1	-1E+10	1	-1E+10	1
4902549	84	C	12/08/2022	20:04	-133.302	47.371	0	187.90	0	6.8800	0	33.7900	0	26.484	0	186.249	0	157.7	4	53.1	4	-1E+10	1	-1E+10	1	-1E+10	1	-1E+10	1	-1E+10	1	-1E+10	1
4902549	84	C	12/08/2022	20:04	-133.302	47.371	0	188.80	0	6.8550	0	33.7900	0	26.488	0	187.141	0	156.9	4	52.8	4	-1E+10	1	-1E+10	1	-1E+10	1	-1E+10	1	-1E+10	1	-1E+10	1
4902549	84	C	12/08/2022	20:04	-133.302	47.371	0	189.70	0	6.8430	0	33.7940	0	26.493	0	188.033	0	156.0	4	52.5	4	-1E+10	1	-1E+10	1	-1E+10	1	-1E+10	1	-1E+10	1	-1E+10	1
4902549	84	C	12/08/2022	20:04	-133.302	47.371	0	190.60	0	6.8190	0	33.7980	0	26.499	0	188.924	0	155.1	4	52.2	4	-1E+10	1	-1E+10	1	-1E+10	1	-1E+10	1	-1E+10	1	-1E+10	1
4902549	84	C	12/08/2022	20:04	-133.302	47.371	0	191.50	0	6.7870	0	33.7960	0	26.502	0	189.816	0	154.3	4	51.9	4	-1E+10	1	-1E+10	1	-1E+10	1	-1E+10	1	-1E+10	1	-1E+10	1
4902549	84	C	12/08/2022	20:04	-133.302	47.371	0	192.90	0	6.7570	0	33.7960	0	26.506	0	191.203	0	153.0	4	51.4	4	-1E+10	1	-1E+10	1	-1E+10	1	-1E+10	1	-1E+10	1	-1E+10	1
4902549	84	C	12/08/2022	20:04	-133.302	47.371	0	194.40	0	6.7190	0	33.8000	0	26.514	0	192.689	0	151.9	4	51.0	4	-1E+10	1	-1E+10	1	-1E+10	1	-1E+10	1	-1E+10	1	-1E+10	1
4902549	84	C	12/08/2022	20:04	-133.302	47.371	0	195.30	0	6.7040	0	33.7990	0	26.515	0	193.581	0	151.1	4	50.7	4	-1E+10	1	-1E+10	1	-1E+10	1	-1E+10	1	-1E+10	1	-1E+10	1
4902549	84	C	12/08/2022	20:04	-133.302	47.371	0	196.30	0	6.6990	0	33.7990	0	26.516	0	194.572	0	150.1	4	50.3	4	-1E+10	1	-1E+10	1	-1E+10	1	-1E+10	1	-1E+10	1	-1E+10	1
4902549	84	C	12/08/2022	20:04	-133.302	47.371	0	197.20	0	6.6910	0	33.7980	0	26.516	0	195.463	0	149.0	4	50.0	4	-1E+10	1	-1E+10	1	-1E+10	1	-1E+10	1	-1E+10	1	-1E+10	1
4902549	84	C	12/08/2022	20:04	-133.302	47.371	0	198.20	0	6.6730	0	33.8000	0	26.520	0	196.454	0	147.8	4	49.5	4	-1E+10	1	-1E+10	1	-1E+10	1	-1E+10	1	-1E+10	1	-1E+10	1
4902549	84	C	12/08/2022	20:04	-133.302	47.371	0	199.10	0	6.6620	0	33.7990	0	26.521	0	197.346	0	146.5	4	49.1	4	-1E+10	1	-1E+10	1	-1E+10	1	-1E+10	1	-1E+10	1	-1E+10	1
4902549	84	C	12/08/2022	20:04	-133.302	47.371	0	200.10	0	6.6060	0	33.8070	0	26.534	0	198.336	0	145.7	4	48.8	4	-1E+10	1	-1E+10	1	-1E+10	1	-1E+10	1	-1E+10	1	-1E+10	1
4902549	84	C	12/08/2022	20:04	-133.302	47.371	0	201.10	0	6.5890	0	33.8050	0	26.535	0	199.327	0	144.7	4	48.4	4	-1E+10	1	-1E+10	1	-1E+10	1	-1E+10	1	-1E+10	1	-1E+10	1
4902549	84	C	12/08/2022	20:04	-133.302	47.371	0	202.10	0	6.5680	0	33.8040	0	26.537	0	200.318	0	143.3	4	47.9	4	-1E+10	1	-1E+10	1	-1E+10	1	-1E+10	1	-1E+10	1	-1E+10	1
4902549	84	C	12/08/2022	20:04	-133.302	47.371	0	203.00	0	6.5550	0	33.8040	0	26.539	0	201.209	0	141.6	4	47.4	4	-1E+10	1	-1E+10	1	-1E+10	1	-1E+10	1	-1E+10	1	-1E+10	1
4902549	84	C	12/08/2022	20:04	-133.302	47.371	0	204.00	0	6.5420	0	33.8050	0	26.541	0	202.200	0	139.8	4	46.7	4	-1E+10	1	-1E+10	1	-1E+10	1	-1E+10	1	-1E+10	1	-1E+10	1
4902549	84	C	12/08/2022	20:04	-133.302	47.371	0	205.00	0	6.5230	0	33.8100	0	26.548	0	203.191	0	138.5	4	46.3	4	-1E+10	1	-1E+10	1	-1E+10	1	-1E+10	1	-1E+10	1	-1E+10	1
4902549	84	C	12/08/2022	20:04	-133.302	47.371	0	205.90	0	6.5170	0	33.8110	0	26.549	0	204.082	0	137.1	4	45.8	4	-1E+10	1	-1E+10	1	-1E+10	1	-1E+10	1	-1E+10	1	-1E+10	1
4902549	84	C	12/08/2022	20:04	-133.302	47.371	0	206.90	0	6.5090	0	33.8120	0	26.551	0	205.073	0	135.7	4	45.3	4	-1E+10	1	-1E+10	1	-1E+10	1	-1E+10	1	-1E+10	1	-1E+10	1
4902549	84	C	12/08/2022	20:04	-133.302	47.371	0	207.90	0	6.5060	0	33.8120	0	26.552	0	206.064	0	134.1	4	44.8	4	-1E+10	1	-1E+10	1	-1E+10	1	-1E+10	1	-1E+10	1	-1E+10	1
4902549	84	C	12/08/2022	20:04	-133.302	47.371	0	208.90	0	6.5040	0	33.8110	0	26.551	0	207.054	0	132.3	4	44.2	4	-1E+10	1	-1E+10	1	-1E+10	1	-1E+10	1	-1E+10	1	-1E+10	1
4902549	84	C	12/08/2022	20:04	-133.302	47.371	0	209.90	0	6.4980	0	33.8140	0	26.554	0	208.045	0	130.6	4	43.6	4	-1E+10	1	-1E+10	1	-1E+10	1	-1E+10	1	-1E+10	1	-1E+10	1
4902549	84	C	12/08/2022	20:04	-133.302	47.371	0	210.90	0	6.4750	0	33.8200	0	26.562	0	209.036	0	129.5	4	43.2	4	-1E+10	1	-1E+10	1	-1E+10	1	-1E+10	1	-1E+10	1	-1E+10	1
4902549	84	C	12/08/2022	20:04	-133.302	47.371	0	211.90	0	6.4440	0	33.8250	0	26.570	0	210.026	0	128.6	4	42.9	4	-1E+10	1	-1E+10	1	-1E+10	1	-1E+10	1	-1E+10	1	-1E+10	1
4902549	84	C	12/08/2022	20:04	-133.302	47.371	0	212.90	0	6.4270	0	33.8270	0	26.574	0	211.017	0	127.8	4	42.6	4	-1E+10	1	-1E+10	1	-1E+10	1	-1E+10	1	-1E+10	1	-1E+10	1
4902549	84	C	12/08/2022	20:04	-133.302	47.371	0	213.90	0	6.4180	0	33.8280	0	26.576	0	212.007	0	126.9	4	42.3	4	-1E+10	1	-1E+10	1	-1E+10	1	-1E+10	1	-1E+10	1	-1E+10	1
4902549	84	C	12/08/2022	20:04	-133.302	47.371	0	214.90	0	6.4160	0	33.8280	0	26.576	0	212.998	0	125.9	4	42.0	4	-1E+10	1	-1E+10	1	-1E+10	1	-1E+10	1	-1E+10	1	-1E+10	1
4902549	84	C	12/08/2022	20:04	-133.302	47.371	0	215.90	0	6.4150	0	33.8290	0	26.577	0	213.989	0	125.0	4	41.7	4	-1E+10	1	-1E+10	1	-1E+10	1	-1E+10	1	-1E+10	1	-1E+10	1
4902549	84	C	12/08/2022	20:04	-133.302	47.371	0	216.90	0	6.4230	0	33.8340	0	26.580	0	214.979	0	124.1	4	41.4	4	-1E+10	1	-1E+10	1	-1E+10	1	-1E+10	1	-1E+10	1	-1E+10	1
4902549	84	C	12/08/2022	20:04	-133.302	47.371	0	217.90	0	6.3960	0	33.8390	0	26.587	0	215.970	0	123.7	4	41.2	4	-1E+10	1	-1E+10	1	-1E+10	1	-1E+10	1	-1E+10	1	-1E+10	1
4902549	84	C	12/08/2022	20:04	-133.302	47.371	0	218.80	0	6.3970	0	33.8390	0	26.587	0	216.862	0	123.3	4	41.1	4	-1E+10	1	-1E+10	1	-1E+10	1	-1E+10	1	-1E+10	1	-1E+10	1
4902549	84	C	12/08/2022	20:04	-133.302	47.371	0	220.00	0	6.4000	0	33.8410	0	26.588	0	218.050	0	122.8	4	40.9	4	-1E+10	1	-1E+10	1	-1E+10	1	-1E+10	1	-1E+10	1	-1E+10	1
4902549	84	C	12/08/2022	20:04	-133.302	47.371	0	220.80	0	6.3830	0	33.8420	0	26.591	0	218.843	0	122.6	4	40.8	4	-1E+10	1	-1E+10	1	-1E+10	1	-1E+10	1	-1E+10	1	-1E+10	1
4902549	84	C	12/08/2022	20:04	-133.302	47.371	0	221.90	0	6.3620	0	33.8400	0	26.593	0	219.932	0	122.0	4	40.6	4	-1E+10	1	-1E+10	1	-1E+10	1	-1E+10	1	-1E+10	1	-1E+10	1
4902549	84	C	12/08/2022	20:04	-133.302	47.371	0	223.10	0	6.3480	0	33.8430	0	26.597	0	221.121	0	121.4	4	40.4	4	-1E+10	1	-1E+10	1	-1E+10	1	-1E+10	1	-1E+10	1	-1E+10	1
4902549	84	C	12/08/2022	20:04	-133.302	47.371	0	223.90	0	6.3360	0	33.8430	0	26.598	0	221.914	0	120.9	4	40.2	4	-1E+10	1	-1E+10	1	-1E+10	1	-1E+10	1	-1E+10	1	-1E+10	1
4902549	84	C	12/08/2022	20:04	-133.302	47.371	0	224.70	0	6.3150	0	33.8430	0	26.601	0	222.706	0	120.3	4	40.0	4	-1E+10	1	-1E+10	1	-1E+10	1	-1E+10	1	-1E+10	1	-1E+10	1
4902549	84	C	12/08/2022	20:04	-133.302	47.371	0	225.90	0	6.3010	0	33.8410	0	26.601	0	223.895	0	119.1	4	39.6	4	-1E+10	1	-1E+10	1	-1E+10	1	-1E+10	1	-1E+10	1	-1E+10	1
4902549	84	C	12/08/2022	20:04	-133.302	47.371	0	227.10	0	6.3060	0	33.8440	0	26.603	0	225.084	0	117.8	4	39.2	4	-1E+10	1	-1E+10	1	-1E+10	1	-1E+10	1	-1E+10	1	-1E+10	1
4902549	84	C	12/08/2022	20:04	-133.302	47.371	0	227.80	0	6.3140	0	33.8460	0	26.604	0	225.777	0	117.0	4	38.9	4	-1E+10	1	-1E+10	1	-1E+10	1	-1E+10	1	-1E+10	1	-1E+10	1
4902549	84	C	12/08/2022	20:04	-133.302	47.371	0	229.00	0	6.3210	0	33.8480	0	26.604	0	226.966	0	115.7	4	38.5	4	-1E+10	1	-1E+10	1	-1E+10	1	-1E+10	1	-1E+10	1	-1E+10	1
4902549	84	C	12/08/2022	20:04	-133.302	47.371	0	230.20	0	6.3220	0	33.8490	0	26.605	0	228.154	0	114.4	4	38.1	4	-1E+10	1	-1E+10	1	-1E+10	1	-1E+10	1	-1E+10	1	-1E+10	1
4902549	84	C	12/08/2022	20:04	-133.302	47.371	0	231.00	0	6.3260	0	33.8510	0	26.606	0	228.947	0	113.6	4	37.8	4	-1E+10	1	-1E+10	1	-1E+10	1	-1E+10	1	-1E+10	1	-1E+10	1
4902549	84	C	12/08/2022	20:04	-133.302	47.371	0	231.80	0	6.3300	0	33.8530	0	26.607	0	229.739	0	112.9	4	37.6	4	-1E+10	1	-1E+10	1	-1E+10	1	-1E+10	1	-1E+10	1	-1E+10	1
4902549	84	C	12/08/2022	20:04	-133.302	47.371	0	233.00	0	6.3280	0	33.8570	0	26.611	0	230.928	0	112.1	4	37.3	4	-1E+10	1	-1E+10	1	-1E+10	1	-1E+10	1	-1E+10	1	-1E+10	1
4902549	84	C	12/08/2022	20:04	-133.302	47.371	0	234.20	0	6.3010	0	33.8600	0	26.616	0	232.117	0	111.3	4	37.0	4	-1E+10	1	-1E+10	1	-1E+10	1	-1E+10	1	-1E+10	1	-1E+10	1
4902549	84	C	12/08/2022	20:04	-133.302	47.371	0	235.00	0	6.2980	0	33.8600	0	26.617	0	232.909	0	110.7	4	36.8	4	-1E+10	1	-1E+10	1	-1E+10	1	-1E+10	1	-1E+10	1	-1E+10	1
4902549	84	C	12/08/2022	20:04	-133.302	47.371	0	235.80	0	6.2970	0	33.8630	0	26.619	0	233.701	0	110.2	4	36.6	4	-1E+10	1	-1E+10	1	-1E+10	1	-1E+10	1	-1E+10	1	-1E+10	1
4902549	84	C	12/08/2022	20:04	-133.302	47.371	0	236.60	0	6.2810	0	33.8630	0	26.621	0	234.494	0	109.6	4	36.4	4	-1E+10	1	-1E+10	1	-1E+10	1	-1E+10	1	-1E+10	1	-1E+10	1
4902549	84	C	12/08/2022	20:04	-133.302	47.371	0	237.90	0	6.2890	0	33.8650	0	26.622	0	235.781	0	108.9	4	36.2	4	-1E+10	1	-1E+10	1	-1E+10	1	-1E+10	1	-1E+10	1	-1E+10	1
4902549	84	C	12/08/2022	20:04	-133.302	47.371	0	239.20	0	6.3010	0	33.8700	0	26.624	0	237.069	0	108.6	4	36.1	4	-1E+10	1	-1E+10	1	-1E+10	1	-1E+10	1	-1E+10	1	-1E+10	1
4902549	84	C	12/08/2022	20:04	-133.302	47.371	0	240.00	0	6.2960	0	33.8700	0	26.625	0	237.862	0	108.3	4	36.0	4	-1E+10	1	-1E+10	1	-1E+10	1	-1E+10	1	-1E+10	1	-1E+10	1
4902549	84	C	12/08/2022	20:04	-133.302	47.371	0	240.80	0	6.2780	0	33.8700	0	26.627	0	238.654	0	108.0	4	35.9	4	-1E+10	1	-1E+10	1	-1E+10	1	-1E+10	1	-1E+10	1	-1E+10	1
4902549	84	C	12/08/2022	20:04	-133.302	47.371	0	241.60	0	6.2320	0	33.8670	0	26.631	0	239.446	0	107.7	4	35.7	4	-1E+10	1	-1E+10	1	-1E+10	1	-1E+10	1	-1E+10	1	-1E+10	1
4902549	84	C	12/08/2022	20:04	-133.302	47.371	0	242.90	0	6.2350	0	33.8700	0	26.633	0	240.734	0	107.3	4	35.6	4	-1E+10	1	-1E+10	1	-1E+10	1	-1E+10	1	-1E+10	1	-1E+10	1
4902549	84	C	12/08/2022	20:04	-133.302	47.371	0	244.10	0	6.2260	0	33.8750	0	26.638	0	241.923	0	107.2	4	35.6	4	-1E+10	1	-1E+10	1	-1E+10	1	-1E+10	1	-1E+10	1	-1E+10	1
4902549	84	C	12/08/2022	20:04	-133.302	47.371	0	244.90	0	6.2170	0	33.8730	0	26.637	0	242.715	0	107.2	4	35.6	4	-1E+10	1	-1E+10	1	-1E+10	1	-1E+10	1	-1E+10	1	-1E+10	1
4902549	84	C	12/08/2022	20:04	-133.302	47.371	0	245.80	0	6.2010	0	33.8720	0	26.639	0	243.606	0	107.1	4	35.5	4	-1E+10	1	-1E+10	1	-1E+10	1	-1E+10	1	-1E+10	1	-1E+10	1
4902549	84	C	12/08/2022	20:04	-133.302	47.371	0	247.00	0	6.1860	0	33.8720	0	26.641	0	244.795	0	107.0	4	35.5	4	-1E+10	1	-1E+10	1	-1E+10	1	-1E+10	1	-1E+10	1	-1E+10	1
4902549	84	C	12/08/2022	20:04	-133.302	47.371	0	248.30	0	6.1820	0	33.8720	0	26.641	0	246.083	0	106.9	4	35.4	4	-1E+10	1	-1E+10	1	-1E+10	1	-1E+10	1	-1E+10	1	-1E+10	1
4902549	84	C	12/08/2022	20:04	-133.302	47.371	0	249.10	0	6.1790	0	33.8710	0	26.641	0	246.875	0	106.8	4	35.4	4	-1E+10	1	-1E+10	1	-1E+10	1	-1E+10	1	-1E+10	1	-1E+10	1
4902549	84	C	12/08/2022	20:04	-133.302	47.371	0	250.00	0	6.1660	0	33.8670	0	26.639	0	247.766	0	106.7	4	35.4	4	-1E+10	1	-1E+10	1	-1E+10	1	-1E+10	1	-1E+10	1	-1E+10	1
4902549	84	C	12/08/2022	20:04	-133.302	47.371	0	250.80	0	6.1590	0	33.8700	0	26.643	0	248.559	0	106.4	4	35.3	4	-1E+10	1	-1E+10	1	-1E+10	1	-1E+10	1	-1E+10	1	-1E+10	1
4902549	84	C	12/08/2022	20:04	-133.302	47.371	0	251.70	0	6.1570	0	33.8720	0	26.644	0	249.450	0	106.2	4	35.2	4	-1E+10	1	-1E+10	1	-1E+10	1	-1E+10	1	-1E+10	1	-1E+10	1
4902549	84	C	12/08/2022	20:04	-133.302	47.371	0	252.90	0	6.1510	0	33.8700	0	26.644	0	250.639	0	105.6	4	35.0	4	-1E+10	1	-1E+10	1	-1E+10	1	-1E+10	1	-1E+10	1	-1E+10	1
4902549	84	C	12/08/2022	20:04	-133.302	47.371	0	254.20	0	6.1440	0	33.8690	0	26.644	0	251.926	0	104.9	4	34.8	4	-1E+10	1	-1E+10	1	-1E+10	1	-1E+10	1	-1E+10	1	-1E+10	1
4902549	84	C	12/08/2022	20:04	-133.302	47.371	0	255.10	0	6.1500	0	33.8750	0	26.648	0	252.818	0	104.6	4	34.7	4	-1E+10	1	-1E+10	1	-1E+10	1	-1E+10	1	-1E+10	1	-1E+10	1
4902549	84	C	12/08/2022	20:04	-133.302	47.371	0	255.90	0	6.1400	0	33.8750	0	26.649	0	253.610	0	104.5	4	34.6	4	-1E+10	1	-1E+10	1	-1E+10	1	-1E+10	1	-1E+10	1	-1E+10	1
4902549	84	C	12/08/2022	20:04	-133.302	47.371	0	256.80	0	6.1350	0	33.8760	0	26.650	0	254.502	0	104.4	4	34.6	4	-1E+10	1	-1E+10	1	-1E+10	1	-1E+10	1	-1E+10	1	-1E+10	1
4902549	84	C	12/08/2022	20:04	-133.302	47.371	0	257.60	0	6.1430	0	33.8780	0	26.651	0	255.294	0	104.4	4	34.6	4	-1E+10	1	-1E+10	1	-1E+10	1	-1E+10	1	-1E+10	1	-1E+10	1
4902549	84	C	12/08/2022	20:04	-133.302	47.371	0	258.90	0	6.1390	0	33.8780	0	26.652	0	256.581	0	104.5	4	34.6	4	-1E+10	1	-1E+10	1	-1E+10	1	-1E+10	1	-1E+10	1	-1E+10	1
4902549	84	C	12/08/2022	20:04	-133.302	47.371	0	260.20	0	6.1380	0	33.8780	0	26.652	0	257.869	0	104.6	4	34.7	4	-1E+10	1	-1E+10	1	-1E+10	1	-1E+10	1	-1E+10	1	-1E+10	1
4902549	84	C	12/08/2022	20:04	-133.302	47.371	0	261.00	0	6.1360	0	33.8780	0	26.652	0	258.661	0	104.8	4	34.7	4	-1E+10	1	-1E+10	1	-1E+10	1	-1E+10	1	-1E+10	1	-1E+10	1
4902549	84	C	12/08/2022	20:04	-133.302	47.371	0	261.90	0	6.1120	0	33.8770	0	26.654	0	259.553	0	104.9	4	34.7	4	-1E+10	1	-1E+10	1	-1E+10	1	-1E+10	1	-1E+10	1	-1E+10	1
4902549	84	C	12/08/2022	20:04	-133.302	47.371	0	262.70	0	6.0860	0	33.8700	0	26.652	0	260.345	0	104.8	4	34.7	4	-1E+10	1	-1E+10	1	-1E+10	1	-1E+10	1	-1E+10	1	-1E+10	1
4902549	84	C	12/08/2022	20:04	-133.302	47.371	0	264.00	0	6.0180	0	33.8690	0	26.660	0	261.633	0	104.6	4	34.6	4	-1E+10	1	-1E+10	1	-1E+10	1	-1E+10	1	-1E+10	1	-1E+10	1
4902549	84	C	12/08/2022	20:04	-133.302	47.371	0	265.30	0	6.0130	0	33.8720	0	26.663	0	262.920	0	104.3	4	34.5	4	-1E+10	1	-1E+10	1	-1E+10	1	-1E+10	1	-1E+10	1	-1E+10	1
4902549	84	C	12/08/2022	20:04	-133.302	47.371	0	266.10	0	5.9970	0	33.8710	0	26.664	0	263.712	0	104.3	4	34.4	4	-1E+10	1	-1E+10	1	-1E+10	1	-1E+10	1	-1E+10	1	-1E+10	1
4902549	84	C	12/08/2022	20:04	-133.302	47.371	0	267.00	0	6.0210	0	33.8710	0	26.661	0	264.604	0	104.5	4	34.5	4	-1E+10	1	-1E+10	1	-1E+10	1	-1E+10	1	-1E+10	1	-1E+10	1
4902549	84	C	12/08/2022	20:04	-133.302	47.371	0	267.80	0	6.0240	0	33.8770	0	26.665	0	265.396	0	104.8	4	34.6	4	-1E+10	1	-1E+10	1	-1E+10	1	-1E+10	1	-1E+10	1	-1E+10	1
4902549	84	C	12/08/2022	20:04	-133.302	47.371	0	268.70	0	5.9240	0	33.8710	0	26.673	0	266.287	0	104.8	4	34.6	4	-1E+10	1	-1E+10	1	-1E+10	1	-1E+10	1	-1E+10	1	-1E+10	1
4902549	84	C	12/08/2022	20:04	-133.302	47.371	0	270.00	0	5.8520	0	33.8600	0	26.673	0	267.575	0	104.3	4	34.3	4	-1E+10	1	-1E+10	1	-1E+10	1	-1E+10	1	-1E+10	1	-1E+10	1
4902549	84	C	12/08/2022	20:04	-133.302	47.371	0	271.30	0	5.8120	0	33.8620	0	26.680	0	268.862	0	103.5	4	34.0	4	-1E+10	1	-1E+10	1	-1E+10	1	-1E+10	1	-1E+10	1	-1E+10	1
4902549	84	C	12/08/2022	20:04	-133.302	47.371	0	272.20	0	5.7970	0	33.8630	0	26.682	0	269.754	0	103.1	4	33.9	4	-1E+10	1	-1E+10	1	-1E+10	1	-1E+10	1	-1E+10	1	-1E+10	1
4902549	84	C	12/08/2022	20:04	-133.302	47.371	0	273.10	0	5.7840	0	33.8640	0	26.685	0	270.645	0	102.5	4	33.7	4	-1E+10	1	-1E+10	1	-1E+10	1	-1E+10	1	-1E+10	1	-1E+10	1
4902549	84	C	12/08/2022	20:04	-133.302	47.371	0	274.00	0	5.7780	0	33.8630	0	26.685	0	271.536	0	101.8	4	33.5	4	-1E+10	1	-1E+10	1	-1E+10	1	-1E+10	1	-1E+10	1	-1E+10	1
4902549	84	C	12/08/2022	20:04	-133.302	47.371	0	274.90	0	5.7720	0	33.8640	0	26.686	0	272.428	0	101.2	4	33.2	4	-1E+10	1	-1E+10	1	-1E+10	1	-1E+10	1	-1E+10	1	-1E+10	1
4902549	84	C	12/08/2022	20:04	-133.302	47.371	0	275.80	0	5.7610	0	33.8640	0	26.688	0	273.319	0	100.5	4	33.0	4	-1E+10	1	-1E+10	1	-1E+10	1	-1E+10	1	-1E+10	1	-1E+10	1
4902549	84	C	12/08/2022	20:04	-133.302	47.371	0	276.70	0	5.7550	0	33.8650	0	26.689	0	274.210	0	99.7	4	32.7	4	-1E+10	1	-1E+10	1	-1E+10	1	-1E+10	1	-1E+10	1	-1E+10	1
4902549	84	C	12/08/2022	20:04	-133.302	47.371	0	277.60	0	5.7430	0	33.8660	0	26.691	0	275.102	0	99.0	4	32.5	4	-1E+10	1	-1E+10	1	-1E+10	1	-1E+10	1	-1E+10	1	-1E+10	1
4902549	84	C	12/08/2022	20:04	-133.302	47.371	0	278.50	0	5.7330	0	33.8680	0	26.694	0	275.993	0	98.2	4	32.2	4	-1E+10	1	-1E+10	1	-1E+10	1	-1E+10	1	-1E+10	1	-1E+10	1
4902549	84	C	12/08/2022	20:04	-133.302	47.371	0	279.90	0	5.7270	0	33.8710	0	26.697	0	277.379	0	97.4	4	32.0	4	-1E+10	1	-1E+10	1	-1E+10	1	-1E+10	1	-1E+10	1	-1E+10	1
4902549	84	C	12/08/2022	20:04	-133.302	47.371	0	281.30	0	5.7270	0	33.8720	0	26.698	0	278.766	0	96.4	4	31.6	4	-1E+10	1	-1E+10	1	-1E+10	1	-1E+10	1	-1E+10	1	-1E+10	1
4902549	84	C	12/08/2022	20:04	-133.302	47.371	0	282.20	0	5.7260	0	33.8720	0	26.698	0	279.657	0	95.7	4	31.4	4	-1E+10	1	-1E+10	1	-1E+10	1	-1E+10	1	-1E+10	1	-1E+10	1
4902549	84	C	12/08/2022	20:04	-133.302	47.371	0	283.10	0	5.7250	0	33.8740	0	26.700	0	280.548	0	95.1	4	31.2	4	-1E+10	1	-1E+10	1	-1E+10	1	-1E+10	1	-1E+10	1	-1E+10	1
4902549	84	C	12/08/2022	20:04	-133.302	47.371	0	284.00	0	5.7250	0	33.8750	0	26.701	0	281.440	0	94.5	4	31.0	4	-1E+10	1	-1E+10	1	-1E+10	1	-1E+10	1	-1E+10	1	-1E+10	1
4902549	84	C	12/08/2022	20:04	-133.302	47.371	0	285.00	0	5.6920	0	33.8810	0	26.710	0	282.430	0	93.9	4	30.8	4	-1E+10	1	-1E+10	1	-1E+10	1	-1E+10	1	-1E+10	1	-1E+10	1
4902549	84	C	12/08/2022	20:04	-133.302	47.371	0	285.90	0	5.6840	0	33.8730	0	26.704	0	283.321	0	93.4	4	30.6	4	-1E+10	1	-1E+10	1	-1E+10	1	-1E+10	1	-1E+10	1	-1E+10	1
4902549	84	C	12/08/2022	20:04	-133.302	47.371	0	286.80	0	5.7130	0	33.8830	0	26.709	0	284.212	0	93.1	4	30.5	4	-1E+10	1	-1E+10	1	-1E+10	1	-1E+10	1	-1E+10	1	-1E+10	1
4902549	84	C	12/08/2022	20:04	-133.302	47.371	0	287.70	0	5.7150	0	33.8850	0	26.710	0	285.104	0	92.9	4	30.5	4	-1E+10	1	-1E+10	1	-1E+10	1	-1E+10	1	-1E+10	1	-1E+10	1
4902549	84	C	12/08/2022	20:04	-133.302	47.371	0	288.70	0	5.7160	0	33.8850	0	26.710	0	286.094	0	92.7	4	30.4	4	-1E+10	1	-1E+10	1	-1E+10	1	-1E+10	1	-1E+10	1	-1E+10	1
4902549	84	C	12/08/2022	20:04	-133.302	47.371	0	289.60	0	5.7130	0	33.8850	0	26.710	0	286.985	0	92.6	4	30.4	4	-1E+10	1	-1E+10	1	-1E+10	1	-1E+10	1	-1E+10	1	-1E+10	1
4902549	84	C	12/08/2022	20:04	-133.302	47.371	0	290.50	0	5.6980	0	33.8840	0	26.711	0	287.877	0	92.5	4	30.3	4	-1E+10	1	-1E+10	1	-1E+10	1	-1E+10	1	-1E+10	1	-1E+10	1
4902549	84	C	12/08/2022	20:04	-133.302	47.371	0	291.90	0	5.6840	0	33.8840	0	26.713	0	289.263	0	92.3	4	30.3	4	-1E+10	1	-1E+10	1	-1E+10	1	-1E+10	1	-1E+10	1	-1E+10	1
4902549	84	C	12/08/2022	20:04	-133.302	47.371	0	293.30	0	5.6490	0	33.8830	0	26.716	0	290.649	0	92.1	4	30.2	4	-1E+10	1	-1E+10	1	-1E+10	1	-1E+10	1	-1E+10	1	-1E+10	1
4902549	84	C	12/08/2022	20:04	-133.302	47.371	0	294.30	0	5.6370	0	33.8830	0	26.718	0	291.640	0	91.9	4	30.1	4	-1E+10	1	-1E+10	1	-1E+10	1	-1E+10	1	-1E+10	1	-1E+10	1
4902549	84	C	12/08/2022	20:04	-133.302	47.371	0	295.20	0	5.6020	0	33.8790	0	26.719	0	292.531	0	91.6	4	30.0	4	-1E+10	1	-1E+10	1	-1E+10	1	-1E+10	1	-1E+10	1	-1E+10	1
4902549	84	C	12/08/2022	20:04	-133.302	47.371	0	296.10	0	5.5860	0	33.8780	0	26.720	0	293.422	0	91.0	4	29.8	4	-1E+10	1	-1E+10	1	-1E+10	1	-1E+10	1	-1E+10	1	-1E+10	1
4902549	84	C	12/08/2022	20:04	-133.302	47.371	0	297.10	0	5.5730	0	33.8790	0	26.722	0	294.412	0	90.6	4	29.6	4	-1E+10	1	-1E+10	1	-1E+10	1	-1E+10	1	-1E+10	1	-1E+10	1
4902549	84	C	12/08/2022	20:04	-133.302	47.371	0	298.00	0	5.5860	0	33.8840	0	26.725	0	295.303	0	90.3	4	29.5	4	-1E+10	1	-1E+10	1	-1E+10	1	-1E+10	1	-1E+10	1	-1E+10	1
4902549	84	C	12/08/2022	20:04	-133.302	47.371	0	298.90	0	5.5690	0	33.8850	0	26.728	0	296.195	0	89.9	4	29.4	4	-1E+10	1	-1E+10	1	-1E+10	1	-1E+10	1	-1E+10	1	-1E+10	1
4902549	84	C	12/08/2022	20:04	-133.302	47.371	0	299.80	0	5.5700	0	33.8820	0	26.725	0	297.086	0	89.4	4	29.2	4	-1E+10	1	-1E+10	1	-1E+10	1	-1E+10	1	-1E+10	1	-1E+10	1
4902549	84	C	12/08/2022	20:04	-133.302	47.371	0	300.80	0	5.5390	0	33.8870	0	26.733	0	298.076	0	88.9	4	29.0	4	-1E+10	1	-1E+10	1	-1E+10	1	-1E+10	1	-1E+10	1	-1E+10	1
4902549	84	C	12/08/2022	20:04	-133.302	47.371	0	301.70	0	5.5250	0	33.8830	0	26.731	0	298.967	0	88.2	4	28.8	4	-1E+10	1	-1E+10	1	-1E+10	1	-1E+10	1	-1E+10	1	-1E+10	1
4902549	84	C	12/08/2022	20:04	-133.302	47.371	0	302.60	0	5.5170	0	33.8830	0	26.732	0	299.858	0	87.5	4	28.6	4	-1E+10	1	-1E+10	1	-1E+10	1	-1E+10	1	-1E+10	1	-1E+10	1
4902549	84	C	12/08/2022	20:04	-133.302	47.371	0	303.60	0	5.5140	0	33.8840	0	26.734	0	300.849	0	86.9	4	28.4	4	-1E+10	1	-1E+10	1	-1E+10	1	-1E+10	1	-1E+10	1	-1E+10	1
4902549	84	C	12/08/2022	20:04	-133.302	47.371	0	304.50	0	5.5130	0	33.8860	0	26.735	0	301.740	0	86.3	4	28.2	4	-1E+10	1	-1E+10	1	-1E+10	1	-1E+10	1	-1E+10	1	-1E+10	1
4902549	84	C	12/08/2022	20:04	-133.302	47.371	0	305.90	0	5.5050	0	33.8880	0	26.738	0	303.126	0	85.2	4	27.8	4	-1E+10	1	-1E+10	1	-1E+10	1	-1E+10	1	-1E+10	1	-1E+10	1
4902549	84	C	12/08/2022	20:04	-133.302	47.371	0	307.30	0	5.5010	0	33.8880	0	26.738	0	304.512	0	84.1	4	27.5	4	-1E+10	1	-1E+10	1	-1E+10	1	-1E+10	1	-1E+10	1	-1E+10	1
4902549	84	C	12/08/2022	20:04	-133.302	47.371	0	308.30	0	5.4930	0	33.8920	0	26.742	0	305.503	0	83.4	4	27.2	4	-1E+10	1	-1E+10	1	-1E+10	1	-1E+10	1	-1E+10	1	-1E+10	1
4902549	84	C	12/08/2022	20:04	-133.302	47.371	0	309.30	0	5.4910	0	33.8940	0	26.744	0	306.493	0	82.9	4	27.1	4	-1E+10	1	-1E+10	1	-1E+10	1	-1E+10	1	-1E+10	1	-1E+10	1
4902549	84	C	12/08/2022	20:04	-133.302	47.371	0	310.20	0	5.4880	0	33.8950	0	26.745	0	307.384	0	82.3	4	26.9	4	-1E+10	1	-1E+10	1	-1E+10	1	-1E+10	1	-1E+10	1	-1E+10	1
4902549	84	C	12/08/2022	20:04	-133.302	47.371	0	311.20	0	5.4850	0	33.8950	0	26.746	0	308.374	0	81.8	4	26.7	4	-1E+10	1	-1E+10	1	-1E+10	1	-1E+10	1	-1E+10	1	-1E+10	1
4902549	84	C	12/08/2022	20:04	-133.302	47.371	0	312.10	0	5.4830	0	33.8970	0	26.748	0	309.265	0	81.2	4	26.5	4	-1E+10	1	-1E+10	1	-1E+10	1	-1E+10	1	-1E+10	1	-1E+10	1
4902549	84	C	12/08/2022	20:04	-133.302	47.371	0	313.10	0	5.4810	0	33.8980	0	26.749	0	310.255	0	80.6	4	26.3	4	-1E+10	1	-1E+10	1	-1E+10	1	-1E+10	1	-1E+10	1	-1E+10	1
4902549	84	C	12/08/2022	20:04	-133.302	47.371	0	314.00	0	5.4810	0	33.8990	0	26.749	0	311.147	0	80.1	4	26.1	4	-1E+10	1	-1E+10	1	-1E+10	1	-1E+10	1	-1E+10	1	-1E+10	1
4902549	84	C	12/08/2022	20:04	-133.302	47.371	0	314.90	0	5.4800	0	33.9010	0	26.751	0	312.038	0	79.6	4	26.0	4	-1E+10	1	-1E+10	1	-1E+10	1	-1E+10	1	-1E+10	1	-1E+10	1
4902549	84	C	12/08/2022	20:04	-133.302	47.371	0	315.90	0	5.4690	0	33.9060	0	26.756	0	313.028	0	79.2	4	25.8	4	-1E+10	1	-1E+10	1	-1E+10	1	-1E+10	1	-1E+10	1	-1E+10	1
4902549	84	C	12/08/2022	20:04	-133.302	47.371	0	316.90	0	5.4600	0	33.9070	0	26.758	0	314.018	0	78.9	4	25.7	4	-1E+10	1	-1E+10	1	-1E+10	1	-1E+10	1	-1E+10	1	-1E+10	1
4902549	84	C	12/08/2022	20:04	-133.302	47.371	0	317.80	0	5.4590	0	33.9070	0	26.758	0	314.909	0	78.7	4	25.7	4	-1E+10	1	-1E+10	1	-1E+10	1	-1E+10	1	-1E+10	1	-1E+10	1
4902549	84	C	12/08/2022	20:04	-133.302	47.371	0	318.80	0	5.4580	0	33.9070	0	26.759	0	315.899	0	78.4	4	25.6	4	-1E+10	1	-1E+10	1	-1E+10	1	-1E+10	1	-1E+10	1	-1E+10	1
4902549	84	C	12/08/2022	20:04	-133.302	47.371	0	319.70	0	5.4530	0	33.9070	0	26.759	0	316.790	0	78.1	4	25.5	4	-1E+10	1	-1E+10	1	-1E+10	1	-1E+10	1	-1E+10	1	-1E+10	1
4902549	84	C	12/08/2022	20:04	-133.302	47.371	0	320.70	0	5.4530	0	33.9070	0	26.759	0	317.781	0	77.7	4	25.4	4	-1E+10	1	-1E+10	1	-1E+10	1	-1E+10	1	-1E+10	1	-1E+10	1
4902549	84	C	12/08/2022	20:04	-133.302	47.371	0	321.60	0	5.4510	0	33.9080	0	26.760	0	318.672	0	77.3	4	25.2	4	-1E+10	1	-1E+10	1	-1E+10	1	-1E+10	1	-1E+10	1	-1E+10	1
4902549	84	C	12/08/2022	20:04	-133.302	47.371	0	322.60	0	5.4490	0	33.9080	0	26.760	0	319.662	0	77.0	4	25.1	4	-1E+10	1	-1E+10	1	-1E+10	1	-1E+10	1	-1E+10	1	-1E+10	1
4902549	84	C	12/08/2022	20:04	-133.302	47.371	0	323.50	0	5.4460	0	33.9080	0	26.761	0	320.553	0	76.5	4	24.9	4	-1E+10	1	-1E+10	1	-1E+10	1	-1E+10	1	-1E+10	1	-1E+10	1
4902549	84	C	12/08/2022	20:04	-133.302	47.371	0	324.90	0	5.4320	0	33.9100	0	26.764	0	321.939	0	75.9	4	24.7	4	-1E+10	1	-1E+10	1	-1E+10	1	-1E+10	1	-1E+10	1	-1E+10	1
4902549	84	C	12/08/2022	20:04	-133.302	47.371	0	326.40	0	5.4210	0	33.9120	0	26.767	0	323.424	0	75.4	4	24.6	4	-1E+10	1	-1E+10	1	-1E+10	1	-1E+10	1	-1E+10	1	-1E+10	1
4902549	84	C	12/08/2022	20:04	-133.302	47.371	0	327.30	0	5.4130	0	33.9140	0	26.769	0	324.315	0	75.1	4	24.5	4	-1E+10	1	-1E+10	1	-1E+10	1	-1E+10	1	-1E+10	1	-1E+10	1
4902549	84	C	12/08/2022	20:04	-133.302	47.371	0	328.30	0	5.4050	0	33.9170	0	26.773	0	325.305	0	74.9	4	24.4	4	-1E+10	1	-1E+10	1	-1E+10	1	-1E+10	1	-1E+10	1	-1E+10	1
4902549	84	C	12/08/2022	20:04	-133.302	47.371	0	329.30	0	5.4040	0	33.9160	0	26.772	0	326.296	0	74.8	4	24.4	4	-1E+10	1	-1E+10	1	-1E+10	1	-1E+10	1	-1E+10	1	-1E+10	1
4902549	84	C	12/08/2022	20:04	-133.302	47.371	0	330.20	0	5.4020	0	33.9160	0	26.772	0	327.187	0	74.6	4	24.3	4	-1E+10	1	-1E+10	1	-1E+10	1	-1E+10	1	-1E+10	1	-1E+10	1
4902549	84	C	12/08/2022	20:04	-133.302	47.371	0	331.30	0	5.4010	0	33.9160	0	26.773	0	328.276	0	74.4	4	24.2	4	-1E+10	1	-1E+10	1	-1E+10	1	-1E+10	1	-1E+10	1	-1E+10	1
4902549	84	C	12/08/2022	20:04	-133.302	47.371	0	332.20	0	5.3990	0	33.9160	0	26.773	0	329.167	0	74.2	4	24.2	4	-1E+10	1	-1E+10	1	-1E+10	1	-1E+10	1	-1E+10	1	-1E+10	1
4902549	84	C	12/08/2022	20:04	-133.302	47.371	0	333.20	0	5.3710	0	33.9160	0	26.776	0	330.157	0	74.0	4	24.1	4	-1E+10	1	-1E+10	1	-1E+10	1	-1E+10	1	-1E+10	1	-1E+10	1
4902549	84	C	12/08/2022	20:04	-133.302	47.371	0	334.20	0	5.3630	0	33.9160	0	26.777	0	331.147	0	73.8	4	24.0	4	-1E+10	1	-1E+10	1	-1E+10	1	-1E+10	1	-1E+10	1	-1E+10	1
4902549	84	C	12/08/2022	20:04	-133.302	47.371	0	335.20	0	5.3530	0	33.9210	0	26.782	0	332.137	0	73.6	4	23.9	4	-1E+10	1	-1E+10	1	-1E+10	1	-1E+10	1	-1E+10	1	-1E+10	1
4902549	84	C	12/08/2022	20:04	-133.302	47.371	0	336.10	0	5.3380	0	33.9190	0	26.782	0	333.028	0	73.3	4	23.9	4	-1E+10	1	-1E+10	1	-1E+10	1	-1E+10	1	-1E+10	1	-1E+10	1
4902549	84	C	12/08/2022	20:04	-133.302	47.371	0	337.10	0	5.3260	0	33.9160	0	26.781	0	334.018	0	73.1	4	23.8	4	-1E+10	1	-1E+10	1	-1E+10	1	-1E+10	1	-1E+10	1	-1E+10	1
4902549	84	C	12/08/2022	20:04	-133.302	47.371	0	338.10	0	5.3290	0	33.9190	0	26.783	0	335.008	0	72.9	4	23.7	4	-1E+10	1	-1E+10	1	-1E+10	1	-1E+10	1	-1E+10	1	-1E+10	1
4902549	84	C	12/08/2022	20:04	-133.302	47.371	0	339.10	0	5.3080	0	33.9190	0	26.786	0	335.998	0	72.8	4	23.7	4	-1E+10	1	-1E+10	1	-1E+10	1	-1E+10	1	-1E+10	1	-1E+10	1
4902549	84	C	12/08/2022	20:04	-133.302	47.371	0	340.10	0	5.3000	0	33.9180	0	26.786	0	336.988	0	72.6	4	23.6	4	-1E+10	1	-1E+10	1	-1E+10	1	-1E+10	1	-1E+10	1	-1E+10	1
4902549	84	C	12/08/2022	20:04	-133.302	47.371	0	341.00	0	5.2950	0	33.9190	0	26.787	0	337.879	0	72.4	4	23.5	4	-1E+10	1	-1E+10	1	-1E+10	1	-1E+10	1	-1E+10	1	-1E+10	1
4902549	84	C	12/08/2022	20:04	-133.302	47.371	0	342.00	0	5.2870	0	33.9200	0	26.789	0	338.869	0	72.2	4	23.5	4	-1E+10	1	-1E+10	1	-1E+10	1	-1E+10	1	-1E+10	1	-1E+10	1
4902549	84	C	12/08/2022	20:04	-133.302	47.371	0	343.00	0	5.2830	0	33.9190	0	26.789	0	339.859	0	72.1	4	23.4	4	-1E+10	1	-1E+10	1	-1E+10	1	-1E+10	1	-1E+10	1	-1E+10	1
4902549	84	C	12/08/2022	20:04	-133.302	47.371	0	344.00	0	5.2820	0	33.9190	0	26.789	0	340.849	0	71.9	4	23.3	4	-1E+10	1	-1E+10	1	-1E+10	1	-1E+10	1	-1E+10	1	-1E+10	1
4902549	84	C	12/08/2022	20:04	-133.302	47.371	0	345.00	0	5.2750	0	33.9200	0	26.791	0	341.839	0	71.6	4	23.3	4	-1E+10	1	-1E+10	1	-1E+10	1	-1E+10	1	-1E+10	1	-1E+10	1
4902549	84	C	12/08/2022	20:04	-133.302	47.371	0	346.00	0	5.2740	0	33.9210	0	26.792	0	342.829	0	71.5	4	23.2	4	-1E+10	1	-1E+10	1	-1E+10	1	-1E+10	1	-1E+10	1	-1E+10	1
4902549	84	C	12/08/2022	20:04	-133.302	47.371	0	346.90	0	5.2680	0	33.9200	0	26.791	0	343.720	0	71.2	4	23.1	4	-1E+10	1	-1E+10	1	-1E+10	1	-1E+10	1	-1E+10	1	-1E+10	1
4902549	84	C	12/08/2022	20:04	-133.302	47.371	0	347.90	0	5.2560	0	33.9190	0	26.792	0	344.710	0	71.0	4	23.0	4	-1E+10	1	-1E+10	1	-1E+10	1	-1E+10	1	-1E+10	1	-1E+10	1
4902549	84	C	12/08/2022	20:04	-133.302	47.371	0	348.90	0	5.2510	0	33.9190	0	26.793	0	345.700	0	70.6	4	22.9	4	-1E+10	1	-1E+10	1	-1E+10	1	-1E+10	1	-1E+10	1	-1E+10	1
4902549	84	C	12/08/2022	20:04	-133.302	47.371	0	349.90	0	5.2430	0	33.9200	0	26.794	0	346.690	0	70.2	4	22.8	4	-1E+10	1	-1E+10	1	-1E+10	1	-1E+10	1	-1E+10	1	-1E+10	1
4902549	84	C	12/08/2022	20:04	-133.302	47.371	0	352.80	0	5.2260	0	33.9200	0	26.796	0	349.561	0	69.1	4	22.4	4	-1E+10	1	-1E+10	1	-1E+10	1	-1E+10	1	-1E+10	1	-1E+10	1
4902549	84	C	12/08/2022	20:04	-133.302	47.371	0	357.70	0	5.1850	0	33.9240	0	26.804	0	354.412	0	66.9	4	21.7	4	-1E+10	1	-1E+10	1	-1E+10	1	-1E+10	1	-1E+10	1	-1E+10	1
4902549	84	C	12/08/2022	20:04	-133.302	47.371	0	362.60	0	5.1900	0	33.9320	0	26.810	0	359.263	0	64.6	4	20.9	4	-1E+10	1	-1E+10	1	-1E+10	1	-1E+10	1	-1E+10	1	-1E+10	1
4902549	84	C	12/08/2022	20:04	-133.302	47.371	0	367.90	0	5.1440	0	33.9370	0	26.819	0	364.509	0	63.5	4	20.6	4	-1E+10	1	-1E+10	1	-1E+10	1	-1E+10	1	-1E+10	1	-1E+10	1
4902549	84	C	12/08/2022	20:04	-133.302	47.371	0	373.40	0	5.0780	0	33.9390	0	26.829	0	369.954	0	62.8	4	20.3	4	-1E+10	1	-1E+10	1	-1E+10	1	-1E+10	1	-1E+10	1	-1E+10	1
4902549	84	C	12/08/2022	20:04	-133.302	47.371	0	378.40	0	5.0420	0	33.9400	0	26.834	0	374.903	0	61.5	4	19.9	4	-1E+10	1	-1E+10	1	-1E+10	1	-1E+10	1	-1E+10	1	-1E+10	1
4902549	84	C	12/08/2022	20:04	-133.302	47.371	0	382.90	0	5.0260	0	33.9440	0	26.839	0	379.357	0	60.2	4	19.4	4	-1E+10	1	-1E+10	1	-1E+10	1	-1E+10	1	-1E+10	1	-1E+10	1
4902549	84	C	12/08/2022	20:04	-133.302	47.371	0	387.50	0	5.0110	0	33.9470	0	26.843	0	383.911	0	59.2	4	19.1	4	-1E+10	1	-1E+10	1	-1E+10	1	-1E+10	1	-1E+10	1	-1E+10	1
4902549	84	C	12/08/2022	20:04	-133.302	47.371	0	392.60	0	4.9850	0	33.9480	0	26.847	0	388.959	0	57.6	4	18.6	4	-1E+10	1	-1E+10	1	-1E+10	1	-1E+10	1	-1E+10	1	-1E+10	1
4902549	84	C	12/08/2022	20:04	-133.302	47.371	0	397.70	0	4.9310	0	33.9550	0	26.858	0	394.007	0	55.9	4	18.0	4	-1E+10	1	-1E+10	1	-1E+10	1	-1E+10	1	-1E+10	1	-1E+10	1
4902549	84	C	12/08/2022	20:04	-133.302	47.371	0	402.80	0	4.9220	0	33.9600	0	26.863	0	399.054	0	54.9	4	17.7	4	-1E+10	1	-1E+10	1	-1E+10	1	-1E+10	1	-1E+10	1	-1E+10	1
4902549	84	C	12/08/2022	20:04	-133.302	47.371	0	407.80	0	4.8870	0	33.9620	0	26.869	0	404.003	0	53.8	4	17.3	4	-1E+10	1	-1E+10	1	-1E+10	1	-1E+10	1	-1E+10	1	-1E+10	1
4902549	84	C	12/08/2022	20:04	-133.302	47.371	0	412.80	0	4.8530	0	33.9680	0	26.877	0	408.951	0	52.4	4	16.9	4	-1E+10	1	-1E+10	1	-1E+10	1	-1E+10	1	-1E+10	1	-1E+10	1
4902549	84	C	12/08/2022	20:04	-133.302	47.371	0	418.00	0	4.8100	0	33.9720	0	26.885	0	414.098	0	51.0	4	16.4	4	-1E+10	1	-1E+10	1	-1E+10	1	-1E+10	1	-1E+10	1	-1E+10	1
4902549	84	C	12/08/2022	20:04	-133.302	47.371	0	422.80	0	4.7950	0	33.9760	0	26.890	0	418.848	0	49.3	4	15.8	4	-1E+10	1	-1E+10	1	-1E+10	1	-1E+10	1	-1E+10	1	-1E+10	1
4902549	84	C	12/08/2022	20:04	-133.302	47.371	0	427.80	0	4.7770	0	33.9830	0	26.898	0	423.796	0	47.5	4	15.3	4	-1E+10	1	-1E+10	1	-1E+10	1	-1E+10	1	-1E+10	1	-1E+10	1
4902549	84	C	12/08/2022	20:04	-133.302	47.371	0	432.90	0	4.7390	0	33.9900	0	26.908	0	428.843	0	45.7	4	14.7	4	-1E+10	1	-1E+10	1	-1E+10	1	-1E+10	1	-1E+10	1	-1E+10	1
4902549	84	C	12/08/2022	20:04	-133.302	47.371	0	438.10	0	4.7060	0	33.9970	0	26.917	0	433.989	0	44.4	4	14.2	4	-1E+10	1	-1E+10	1	-1E+10	1	-1E+10	1	-1E+10	1	-1E+10	1
4902549	84	C	12/08/2022	20:04	-133.302	47.371	0	443.00	0	4.6900	0	34.0010	0	26.922	0	438.838	0	43.3	4	13.9	4	-1E+10	1	-1E+10	1	-1E+10	1	-1E+10	1	-1E+10	1	-1E+10	1
4902549	84	C	12/08/2022	20:04	-133.302	47.371	0	448.00	0	4.6780	0	34.0040	0	26.926	0	443.786	0	42.4	4	13.6	4	-1E+10	1	-1E+10	1	-1E+10	1	-1E+10	1	-1E+10	1	-1E+10	1
4902549	84	C	12/08/2022	20:04	-133.302	47.371	0	453.10	0	4.6710	0	34.0070	0	26.929	0	448.832	0	41.2	4	13.2	4	-1E+10	1	-1E+10	1	-1E+10	1	-1E+10	1	-1E+10	1	-1E+10	1
4902549	84	C	12/08/2022	20:04	-133.302	47.371	0	457.80	0	4.6630	0	34.0130	0	26.935	0	453.483	0	39.9	4	12.8	4	-1E+10	1	-1E+10	1	-1E+10	1	-1E+10	1	-1E+10	1	-1E+10	1
4902549	84	C	12/08/2022	20:04	-133.302	47.371	0	462.50	0	4.6470	0	34.0180	0	26.940	0	458.133	0	39.0	4	12.5	4	-1E+10	1	-1E+10	1	-1E+10	1	-1E+10	1	-1E+10	1	-1E+10	1
4902549	84	C	12/08/2022	20:04	-133.302	47.371	0	467.80	0	4.6400	0	34.0220	0	26.944	0	463.377	0	37.8	4	12.1	4	-1E+10	1	-1E+10	1	-1E+10	1	-1E+10	1	-1E+10	1	-1E+10	1
4902549	84	C	12/08/2022	20:04	-133.302	47.371	0	473.10	0	4.6090	0	34.0260	0	26.951	0	468.621	0	36.5	4	11.7	4	-1E+10	1	-1E+10	1	-1E+10	1	-1E+10	1	-1E+10	1	-1E+10	1
4902549	84	C	12/08/2022	20:04	-133.302	47.371	0	478.00	0	4.6020	0	34.0320	0	26.956	0	473.469	0	35.2	4	11.3	4	-1E+10	1	-1E+10	1	-1E+10	1	-1E+10	1	-1E+10	1	-1E+10	1
4902549	84	C	12/08/2022	20:04	-133.302	47.371	0	482.90	0	4.5970	0	34.0370	0	26.961	0	478.317	0	33.9	4	10.8	4	-1E+10	1	-1E+10	1	-1E+10	1	-1E+10	1	-1E+10	1	-1E+10	1
4902549	84	C	12/08/2022	20:04	-133.302	47.371	0	487.90	0	4.5930	0	34.0430	0	26.966	0	483.264	0	33.0	4	10.5	4	-1E+10	1	-1E+10	1	-1E+10	1	-1E+10	1	-1E+10	1	-1E+10	1
4902549	84	C	12/08/2022	20:04	-133.302	47.371	0	493.00	0	4.5940	0	34.0480	0	26.970	0	488.309	0	32.8	4	10.5	4	-1E+10	1	-1E+10	1	-1E+10	1	-1E+10	1	-1E+10	1	-1E+10	1
4902549	84	C	12/08/2022	20:04	-133.302	47.371	0	498.10	0	4.5510	0	34.0490	0	26.976	0	493.355	0	32.7	4	10.4	4	-1E+10	1	-1E+10	1	-1E+10	1	-1E+10	1	-1E+10	1	-1E+10	1
4902549	84	C	12/08/2022	20:04	-133.302	47.371	0	503.10	0	4.5200	0	34.0500	0	26.980	0	498.301	0	32.4	4	10.3	4	-1E+10	1	-1E+10	1	-1E+10	1	-1E+10	1	-1E+10	1	-1E+10	1
4902549	84	C	12/08/2022	20:04	-133.302	47.371	0	508.20	0	4.4890	0	34.0530	0	26.986	0	503.346	0	32.0	4	10.2	4	-1E+10	1	-1E+10	1	-1E+10	1	-1E+10	1	-1E+10	1	-1E+10	1
4902549	84	C	12/08/2022	20:04	-133.302	47.371	0	513.30	0	4.4750	0	34.0570	0	26.990	0	508.391	0	32.0	4	10.2	4	-1E+10	1	-1E+10	1	-1E+10	1	-1E+10	1	-1E+10	1	-1E+10	1
4902549	84	C	12/08/2022	20:04	-133.302	47.371	0	517.90	0	4.4320	0	34.0570	0	26.995	0	512.942	0	32.4	4	10.3	4	-1E+10	1	-1E+10	1	-1E+10	1	-1E+10	1	-1E+10	1	-1E+10	1
4902549	84	C	12/08/2022	20:04	-133.302	47.371	0	522.50	0	4.3950	0	34.0560	0	26.998	0	517.492	0	32.1	4	10.2	4	-1E+10	1	-1E+10	1	-1E+10	1	-1E+10	1	-1E+10	1	-1E+10	1
4902549	84	C	12/08/2022	20:04	-133.302	47.371	0	527.60	0	4.3700	0	34.0570	0	27.002	0	522.537	0	32.0	4	10.2	4	-1E+10	1	-1E+10	1	-1E+10	1	-1E+10	1	-1E+10	1	-1E+10	1
4902549	84	C	12/08/2022	20:04	-133.302	47.371	0	532.70	0	4.3340	0	34.0590	0	27.007	0	527.581	0	31.0	4	9.8	4	-1E+10	1	-1E+10	1	-1E+10	1	-1E+10	1	-1E+10	1	-1E+10	1
4902549	84	C	12/08/2022	20:04	-133.302	47.371	0	537.80	0	4.3360	0	34.0650	0	27.012	0	532.626	0	29.8	4	9.5	4	-1E+10	1	-1E+10	1	-1E+10	1	-1E+10	1	-1E+10	1	-1E+10	1
4902549	84	C	12/08/2022	20:04	-133.302	47.371	0	543.10	0	4.3130	0	34.0700	0	27.018	0	537.868	0	29.2	4	9.3	4	-1E+10	1	-1E+10	1	-1E+10	1	-1E+10	1	-1E+10	1	-1E+10	1
4902549	84	C	12/08/2022	20:04	-133.302	47.371	0	548.30	0	4.3010	0	34.0720	0	27.021	0	543.011	0	28.5	4	9.0	4	-1E+10	1	-1E+10	1	-1E+10	1	-1E+10	1	-1E+10	1	-1E+10	1
4902549	84	C	12/08/2022	20:04	-133.302	47.371	0	553.00	0	4.2980	0	34.0750	0	27.024	0	547.660	0	28.0	4	8.9	4	-1E+10	1	-1E+10	1	-1E+10	1	-1E+10	1	-1E+10	1	-1E+10	1
4902549	84	C	12/08/2022	20:04	-133.302	47.371	0	557.60	0	4.2940	0	34.0770	0	27.026	0	552.209	0	27.3	4	8.7	4	-1E+10	1	-1E+10	1	-1E+10	1	-1E+10	1	-1E+10	1	-1E+10	1
4902549	84	C	12/08/2022	20:04	-133.302	47.371	0	562.70	0	4.2610	0	34.0820	0	27.033	0	557.253	0	26.8	4	8.5	4	-1E+10	1	-1E+10	1	-1E+10	1	-1E+10	1	-1E+10	1	-1E+10	1
4902549	84	C	12/08/2022	20:04	-133.302	47.371	0	567.90	0	4.2530	0	34.0850	0	27.036	0	562.396	0	25.7	4	8.2	4	-1E+10	1	-1E+10	1	-1E+10	1	-1E+10	1	-1E+10	1	-1E+10	1
4902549	84	C	12/08/2022	20:04	-133.302	47.371	0	573.20	0	4.2490	0	34.0890	0	27.040	0	567.637	0	25.1	4	8.0	4	-1E+10	1	-1E+10	1	-1E+10	1	-1E+10	1	-1E+10	1	-1E+10	1
4902549	84	C	12/08/2022	20:04	-133.302	47.371	0	577.90	0	4.2290	0	34.0920	0	27.045	0	572.285	0	24.3	4	7.7	4	-1E+10	1	-1E+10	1	-1E+10	1	-1E+10	1	-1E+10	1	-1E+10	1
4902549	84	C	12/08/2022	20:04	-133.302	47.371	0	582.60	0	4.2180	0	34.0970	0	27.050	0	576.933	0	23.2	4	7.4	4	-1E+10	1	-1E+10	1	-1E+10	1	-1E+10	1	-1E+10	1	-1E+10	1
4902549	84	C	12/08/2022	20:04	-133.302	47.371	0	587.80	0	4.2130	0	34.1040	0	27.056	0	582.075	0	22.2	4	7.0	4	-1E+10	1	-1E+10	1	-1E+10	1	-1E+10	1	-1E+10	1	-1E+10	1
4902549	84	C	12/08/2022	20:04	-133.302	47.371	0	592.90	0	4.1920	0	34.1100	0	27.063	0	587.118	0	21.7	4	6.9	4	-1E+10	1	-1E+10	1	-1E+10	1	-1E+10	1	-1E+10	1	-1E+10	1
4902549	84	C	12/08/2022	20:04	-133.302	47.371	0	598.10	0	4.1840	0	34.1120	0	27.065	0	592.260	0	21.2	4	6.7	4	-1E+10	1	-1E+10	1	-1E+10	1	-1E+10	1	-1E+10	1	-1E+10	1
4902549	84	C	12/08/2022	20:04	-133.302	47.371	0	602.80	0	4.1610	0	34.1140	0	27.069	0	596.907	0	20.4	4	6.5	4	-1E+10	1	-1E+10	1	-1E+10	1	-1E+10	1	-1E+10	1	-1E+10	1
4902549	84	C	12/08/2022	20:04	-133.302	47.371	0	607.60	0	4.1490	0	34.1200	0	27.075	0	601.653	0	19.6	4	6.2	4	-1E+10	1	-1E+10	1	-1E+10	1	-1E+10	1	-1E+10	1	-1E+10	1
4902549	84	C	12/08/2022	20:04	-133.302	47.371	0	613.00	0	4.1420	0	34.1280	0	27.083	0	606.993	0	18.8	4	6.0	4	-1E+10	1	-1E+10	1	-1E+10	1	-1E+10	1	-1E+10	1	-1E+10	1
4902549	84	C	12/08/2022	20:04	-133.302	47.371	0	617.70	0	4.1340	0	34.1320	0	27.087	0	611.640	0	18.3	4	5.8	4	-1E+10	1	-1E+10	1	-1E+10	1	-1E+10	1	-1E+10	1	-1E+10	1
4902549	84	C	12/08/2022	20:04	-133.302	47.371	0	622.90	0	4.1250	0	34.1370	0	27.092	0	616.781	0	17.8	4	5.6	4	-1E+10	1	-1E+10	1	-1E+10	1	-1E+10	1	-1E+10	1	-1E+10	1
4902549	84	C	12/08/2022	20:04	-133.302	47.371	0	628.10	0	4.1090	0	34.1420	0	27.097	0	621.922	0	17.0	4	5.4	4	-1E+10	1	-1E+10	1	-1E+10	1	-1E+10	1	-1E+10	1	-1E+10	1
4902549	84	C	12/08/2022	20:04	-133.302	47.371	0	633.00	0	4.1020	0	34.1480	0	27.103	0	626.767	0	16.0	4	5.1	4	-1E+10	1	-1E+10	1	-1E+10	1	-1E+10	1	-1E+10	1	-1E+10	1
4902549	84	C	12/08/2022	20:04	-133.302	47.371	0	638.00	0	4.1050	0	34.1560	0	27.109	0	631.710	0	15.6	4	4.9	4	-1E+10	1	-1E+10	1	-1E+10	1	-1E+10	1	-1E+10	1	-1E+10	1
4902549	84	C	12/08/2022	20:04	-133.302	47.371	0	643.10	0	4.0910	0	34.1570	0	27.111	0	636.752	0	15.1	4	4.8	4	-1E+10	1	-1E+10	1	-1E+10	1	-1E+10	1	-1E+10	1	-1E+10	1
4902549	84	C	12/08/2022	20:04	-133.302	47.371	0	647.90	0	4.0900	0	34.1620	0	27.115	0	641.497	0	14.7	4	4.7	4	-1E+10	1	-1E+10	1	-1E+10	1	-1E+10	1	-1E+10	1	-1E+10	1
4902549	84	C	12/08/2022	20:04	-133.302	47.371	0	652.70	0	4.0760	0	34.1630	0	27.118	0	646.242	0	14.3	4	4.5	4	-1E+10	1	-1E+10	1	-1E+10	1	-1E+10	1	-1E+10	1	-1E+10	1
4902549	84	C	12/08/2022	20:04	-133.302	47.371	0	658.00	0	4.0680	0	34.1660	0	27.121	0	651.481	0	13.6	4	4.3	4	-1E+10	1	-1E+10	1	-1E+10	1	-1E+10	1	-1E+10	1	-1E+10	1
4902549	84	C	12/08/2022	20:04	-133.302	47.371	0	663.10	0	4.0830	0	34.1740	0	27.126	0	656.523	0	12.9	4	4.1	4	-1E+10	1	-1E+10	1	-1E+10	1	-1E+10	1	-1E+10	1	-1E+10	1
4902549	84	C	12/08/2022	20:04	-133.302	47.371	0	667.70	0	4.0820	0	34.1810	0	27.131	0	661.070	0	12.2	4	3.9	4	-1E+10	1	-1E+10	1	-1E+10	1	-1E+10	1	-1E+10	1	-1E+10	1
4902549	84	C	12/08/2022	20:04	-133.302	47.371	0	672.50	0	4.0880	0	34.1890	0	27.137	0	665.814	0	11.7	4	3.7	4	-1E+10	1	-1E+10	1	-1E+10	1	-1E+10	1	-1E+10	1	-1E+10	1
4902549	84	C	12/08/2022	20:04	-133.302	47.371	0	677.90	0	4.0800	0	34.1930	0	27.141	0	671.152	0	11.6	4	3.7	4	-1E+10	1	-1E+10	1	-1E+10	1	-1E+10	1	-1E+10	1	-1E+10	1
4902549	84	C	12/08/2022	20:04	-133.302	47.371	0	683.40	0	4.0550	0	34.1930	0	27.144	0	676.588	0	11.4	4	3.6	4	-1E+10	1	-1E+10	1	-1E+10	1	-1E+10	1	-1E+10	1	-1E+10	1
4902549	84	C	12/08/2022	20:04	-133.302	47.371	0	687.90	0	4.0490	0	34.1990	0	27.149	0	681.036	0	10.9	4	3.5	4	-1E+10	1	-1E+10	1	-1E+10	1	-1E+10	1	-1E+10	1	-1E+10	1
4902549	84	C	12/08/2022	20:04	-133.302	47.371	0	692.50	0	4.0580	0	34.2040	0	27.152	0	685.583	0	10.9	4	3.4	4	-1E+10	1	-1E+10	1	-1E+10	1	-1E+10	1	-1E+10	1	-1E+10	1
4902549	84	C	12/08/2022	20:04	-133.302	47.371	0	697.80	0	3.9930	0	34.2040	0	27.159	0	690.821	0	10.6	4	3.3	4	-1E+10	1	-1E+10	1	-1E+10	1	-1E+10	1	-1E+10	1	-1E+10	1
4902549	84	C	12/08/2022	20:04	-133.302	47.371	0	703.20	0	4.0200	0	34.2120	0	27.163	0	696.158	0	9.7	4	3.0	4	-1E+10	1	-1E+10	1	-1E+10	1	-1E+10	1	-1E+10	1	-1E+10	1
4902549	84	C	12/08/2022	20:04	-133.302	47.371	0	708.00	0	4.0410	0	34.2170	0	27.164	0	700.902	0	9.5	4	3.0	4	-1E+10	1	-1E+10	1	-1E+10	1	-1E+10	1	-1E+10	1	-1E+10	1
4902549	84	C	12/08/2022	20:04	-133.302	47.371	0	713.00	0	4.0020	0	34.2160	0	27.168	0	705.843	0	9.2	4	2.9	4	-1E+10	1	-1E+10	1	-1E+10	1	-1E+10	1	-1E+10	1	-1E+10	1
4902549	84	C	12/08/2022	20:04	-133.302	47.371	0	717.80	0	3.9930	0	34.2190	0	27.171	0	710.587	0	8.5	4	2.7	4	-1E+10	1	-1E+10	1	-1E+10	1	-1E+10	1	-1E+10	1	-1E+10	1
4902549	84	C	12/08/2022	20:04	-133.302	47.371	0	722.90	0	4.0260	0	34.2310	0	27.177	0	715.627	0	8.0	4	2.5	4	-1E+10	1	-1E+10	1	-1E+10	1	-1E+10	1	-1E+10	1	-1E+10	1
4902549	84	C	12/08/2022	20:04	-133.302	47.371	0	727.80	0	4.0290	0	34.2330	0	27.179	0	720.469	0	7.8	4	2.5	4	-1E+10	1	-1E+10	1	-1E+10	1	-1E+10	1	-1E+10	1	-1E+10	1
4902549	84	C	12/08/2022	20:04	-133.302	47.371	0	732.90	0	4.0180	0	34.2390	0	27.185	0	725.509	0	7.6	4	2.4	4	-1E+10	1	-1E+10	1	-1E+10	1	-1E+10	1	-1E+10	1	-1E+10	1
4902549	84	C	12/08/2022	20:04	-133.302	47.371	0	738.20	0	4.0100	0	34.2410	0	27.187	0	730.746	0	7.5	4	2.4	4	-1E+10	1	-1E+10	1	-1E+10	1	-1E+10	1	-1E+10	1	-1E+10	1
4902549	84	C	12/08/2022	20:04	-133.302	47.371	0	743.10	0	4.0030	0	34.2430	0	27.189	0	735.588	0	7.4	4	2.3	4	-1E+10	1	-1E+10	1	-1E+10	1	-1E+10	1	-1E+10	1	-1E+10	1
4902549	84	C	12/08/2022	20:04	-133.302	47.371	0	748.00	0	3.9910	0	34.2460	0	27.193	0	740.430	0	7.4	4	2.3	4	-1E+10	1	-1E+10	1	-1E+10	1	-1E+10	1	-1E+10	1	-1E+10	1
4902549	84	C	12/08/2022	20:04	-133.302	47.371	0	753.00	0	3.9820	0	34.2490	0	27.196	0	745.370	0	7.3	4	2.3	4	-1E+10	1	-1E+10	1	-1E+10	1	-1E+10	1	-1E+10	1	-1E+10	1
4902549	84	C	12/08/2022	20:04	-133.302	47.371	0	758.00	0	3.9580	0	34.2520	0	27.201	0	750.311	0	7.4	4	2.3	4	-1E+10	1	-1E+10	1	-1E+10	1	-1E+10	1	-1E+10	1	-1E+10	1
4902549	84	C	12/08/2022	20:04	-133.302	47.371	0	763.10	0	3.9280	0	34.2560	0	27.207	0	755.350	0	7.6	4	2.4	4	-1E+10	1	-1E+10	1	-1E+10	1	-1E+10	1	-1E+10	1	-1E+10	1
4902549	84	C	12/08/2022	20:04	-133.302	47.371	0	768.10	0	3.9070	0	34.2580	0	27.211	0	760.290	0	7.8	4	2.5	4	-1E+10	1	-1E+10	1	-1E+10	1	-1E+10	1	-1E+10	1	-1E+10	1
4902549	84	C	12/08/2022	20:04	-133.302	47.371	0	773.20	0	3.8810	0	34.2590	0	27.215	0	765.329	0	8.3	4	2.6	4	-1E+10	1	-1E+10	1	-1E+10	1	-1E+10	1	-1E+10	1	-1E+10	1
4902549	84	C	12/08/2022	20:04	-133.302	47.371	0	778.20	0	3.8380	0	34.2560	0	27.217	0	770.269	0	8.8	4	2.8	4	-1E+10	1	-1E+10	1	-1E+10	1	-1E+10	1	-1E+10	1	-1E+10	1
4902549	84	C	12/08/2022	20:04	-133.302	47.371	0	783.20	0	3.8130	0	34.2550	0	27.218	0	775.208	0	9.1	4	2.9	4	-1E+10	1	-1E+10	1	-1E+10	1	-1E+10	1	-1E+10	1	-1E+10	1
4902549	84	C	12/08/2022	20:04	-133.302	47.371	0	788.30	0	3.7550	0	34.2510	0	27.221	0	780.247	0	9.5	4	3.0	4	-1E+10	1	-1E+10	1	-1E+10	1	-1E+10	1	-1E+10	1	-1E+10	1
4902549	84	C	12/08/2022	20:04	-133.302	47.371	0	793.30	0	3.6930	0	34.2500	0	27.226	0	785.186	0	9.0	4	2.8	4	-1E+10	1	-1E+10	1	-1E+10	1	-1E+10	1	-1E+10	1	-1E+10	1
4902549	84	C	12/08/2022	20:04	-133.302	47.371	0	798.20	0	3.7220	0	34.2590	0	27.231	0	790.027	0	8.3	4	2.6	4	-1E+10	1	-1E+10	1	-1E+10	1	-1E+10	1	-1E+10	1	-1E+10	1
4902549	84	C	12/08/2022	20:04	-133.302	47.371	0	803.20	0	3.7190	0	34.2660	0	27.237	0	794.966	0	7.9	4	2.5	4	-1E+10	1	-1E+10	1	-1E+10	1	-1E+10	1	-1E+10	1	-1E+10	1
4902549	84	C	12/08/2022	20:04	-133.302	47.371	0	808.20	0	3.7130	0	34.2720	0	27.242	0	799.905	0	7.6	4	2.4	4	-1E+10	1	-1E+10	1	-1E+10	1	-1E+10	1	-1E+10	1	-1E+10	1
4902549	84	C	12/08/2022	20:04	-133.302	47.371	0	813.30	0	3.7170	0	34.2780	0	27.246	0	804.943	0	7.2	4	2.2	4	-1E+10	1	-1E+10	1	-1E+10	1	-1E+10	1	-1E+10	1	-1E+10	1
4902549	84	C	12/08/2022	20:04	-133.302	47.371	0	818.30	0	3.7080	0	34.2810	0	27.250	0	809.882	0	7.0	4	2.2	4	-1E+10	1	-1E+10	1	-1E+10	1	-1E+10	1	-1E+10	1	-1E+10	1
4902549	84	C	12/08/2022	20:04	-133.302	47.371	0	822.90	0	3.7030	0	34.2850	0	27.253	0	814.426	0	6.6	4	2.1	4	-1E+10	1	-1E+10	1	-1E+10	1	-1E+10	1	-1E+10	1	-1E+10	1
4902549	84	C	12/08/2022	20:04	-133.302	47.371	0	827.60	0	3.7100	0	34.2900	0	27.257	0	819.068	0	6.5	4	2.0	4	-1E+10	1	-1E+10	1	-1E+10	1	-1E+10	1	-1E+10	1	-1E+10	1
4902549	84	C	12/08/2022	20:04	-133.302	47.371	0	832.60	0	3.7000	0	34.2940	0	27.261	0	824.007	0	6.4	4	2.0	4	-1E+10	1	-1E+10	1	-1E+10	1	-1E+10	1	-1E+10	1	-1E+10	1
4902549	84	C	12/08/2022	20:04	-133.302	47.371	0	837.70	0	3.6820	0	34.2980	0	27.266	0	829.044	0	6.4	4	2.0	4	-1E+10	1	-1E+10	1	-1E+10	1	-1E+10	1	-1E+10	1	-1E+10	1
4902549	84	C	12/08/2022	20:04	-133.302	47.371	0	842.70	0	3.6660	0	34.3000	0	27.269	0	833.983	0	6.2	4	1.9	4	-1E+10	1	-1E+10	1	-1E+10	1	-1E+10	1	-1E+10	1	-1E+10	1
4902549	84	C	12/08/2022	20:04	-133.302	47.371	0	847.80	0	3.6640	0	34.3040	0	27.273	0	839.020	0	6.1	4	1.9	4	-1E+10	1	-1E+10	1	-1E+10	1	-1E+10	1	-1E+10	1	-1E+10	1
4902549	84	C	12/08/2022	20:04	-133.302	47.371	0	852.90	0	3.6490	0	34.3090	0	27.278	0	844.056	0	6.1	4	1.9	4	-1E+10	1	-1E+10	1	-1E+10	1	-1E+10	1	-1E+10	1	-1E+10	1
4902549	84	C	12/08/2022	20:04	-133.302	47.371	0	858.00	0	3.6370	0	34.3110	0	27.281	0	849.093	0	6.0	4	1.9	4	-1E+10	1	-1E+10	1	-1E+10	1	-1E+10	1	-1E+10	1	-1E+10	1
4902549	84	C	12/08/2022	20:04	-133.302	47.371	0	863.20	0	3.6210	0	34.3130	0	27.284	0	854.229	0	6.0	4	1.9	4	-1E+10	1	-1E+10	1	-1E+10	1	-1E+10	1	-1E+10	1	-1E+10	1
4902549	84	C	12/08/2022	20:04	-133.302	47.371	0	868.00	0	3.6060	0	34.3160	0	27.288	0	858.969	0	6.0	4	1.9	4	-1E+10	1	-1E+10	1	-1E+10	1	-1E+10	1	-1E+10	1	-1E+10	1
4902549	84	C	12/08/2022	20:04	-133.302	47.371	0	872.70	0	3.5960	0	34.3190	0	27.291	0	863.610	0	5.9	4	1.9	4	-1E+10	1	-1E+10	1	-1E+10	1	-1E+10	1	-1E+10	1	-1E+10	1
4902549	84	C	12/08/2022	20:04	-133.302	47.371	0	877.90	0	3.5840	0	34.3220	0	27.295	0	868.745	0	5.9	4	1.9	4	-1E+10	1	-1E+10	1	-1E+10	1	-1E+10	1	-1E+10	1	-1E+10	1
4902549	84	C	12/08/2022	20:04	-133.302	47.371	0	883.20	0	3.5740	0	34.3250	0	27.298	0	873.979	0	5.9	4	1.8	4	-1E+10	1	-1E+10	1	-1E+10	1	-1E+10	1	-1E+10	1	-1E+10	1
4902549	84	C	12/08/2022	20:04	-133.302	47.371	0	888.10	0	3.5650	0	34.3260	0	27.300	0	878.817	0	5.9	4	1.8	4	-1E+10	1	-1E+10	1	-1E+10	1	-1E+10	1	-1E+10	1	-1E+10	1
4902549	84	C	12/08/2022	20:04	-133.302	47.371	0	893.00	0	3.5520	0	34.3280	0	27.303	0	883.656	0	5.9	4	1.8	4	-1E+10	1	-1E+10	1	-1E+10	1	-1E+10	1	-1E+10	1	-1E+10	1
4902549	84	C	12/08/2022	20:04	-133.302	47.371	0	898.00	0	3.5380	0	34.3310	0	27.307	0	888.593	0	5.9	4	1.8	4	-1E+10	1	-1E+10	1	-1E+10	1	-1E+10	1	-1E+10	1	-1E+10	1
4902549	84	C	12/08/2022	20:04	-133.302	47.371	0	902.90	0	3.5300	0	34.3320	0	27.308	0	893.431	0	5.9	4	1.8	4	-1E+10	1	-1E+10	1	-1E+10	1	-1E+10	1	-1E+10	1	-1E+10	1
4902549	84	C	12/08/2022	20:04	-133.302	47.371	0	907.90	0	3.5210	0	34.3350	0	27.312	0	898.368	0	5.9	4	1.8	4	-1E+10	1	-1E+10	1	-1E+10	1	-1E+10	1	-1E+10	1	-1E+10	1
4902549	84	C	12/08/2022	20:04	-133.302	47.371	0	912.90	0	3.5100	0	34.3370	0	27.314	0	903.305	0	5.9	4	1.8	4	-1E+10	1	-1E+10	1	-1E+10	1	-1E+10	1	-1E+10	1	-1E+10	1
4902549	84	C	12/08/2022	20:04	-133.302	47.371	0	918.00	0	3.5030	0	34.3380	0	27.316	0	908.340	0	5.9	4	1.8	4	-1E+10	1	-1E+10	1	-1E+10	1	-1E+10	1	-1E+10	1	-1E+10	1
4902549	84	C	12/08/2022	20:04	-133.302	47.371	0	922.70	0	3.4940	0	34.3400	0	27.318	0	912.980	0	5.9	4	1.8	4	-1E+10	1	-1E+10	1	-1E+10	1	-1E+10	1	-1E+10	1	-1E+10	1
4902549	84	C	12/08/2022	20:04	-133.302	47.371	0	927.60	0	3.4790	0	34.3410	0	27.320	0	917.818	0	5.9	4	1.8	4	-1E+10	1	-1E+10	1	-1E+10	1	-1E+10	1	-1E+10	1	-1E+10	1
4902549	84	C	12/08/2022	20:04	-133.302	47.371	0	932.60	0	3.4690	0	34.3450	0	27.325	0	922.754	0	5.9	4	1.8	4	-1E+10	1	-1E+10	1	-1E+10	1	-1E+10	1	-1E+10	1	-1E+10	1
4902549	84	C	12/08/2022	20:04	-133.302	47.371	0	937.60	0	3.4550	0	34.3470	0	27.328	0	927.690	0	5.9	4	1.8	4	-1E+10	1	-1E+10	1	-1E+10	1	-1E+10	1	-1E+10	1	-1E+10	1
4902549	84	C	12/08/2022	20:04	-133.302	47.371	0	942.60	0	3.4440	0	34.3490	0	27.330	0	932.626	0	5.9	4	1.9	4	-1E+10	1	-1E+10	1	-1E+10	1	-1E+10	1	-1E+10	1	-1E+10	1
4902549	84	C	12/08/2022	20:04	-133.302	47.371	0	947.70	0	3.4340	0	34.3500	0	27.332	0	937.661	0	5.9	4	1.9	4	-1E+10	1	-1E+10	1	-1E+10	1	-1E+10	1	-1E+10	1	-1E+10	1
4902549	84	C	12/08/2022	20:04	-133.302	47.371	0	952.90	0	3.4250	0	34.3520	0	27.335	0	942.794	0	6.0	4	1.9	4	-1E+10	1	-1E+10	1	-1E+10	1	-1E+10	1	-1E+10	1	-1E+10	1
4902549	84	C	12/08/2022	20:04	-133.302	47.371	0	958.10	0	3.4160	0	34.3530	0	27.336	0	947.927	0	6.0	4	1.9	4	-1E+10	1	-1E+10	1	-1E+10	1	-1E+10	1	-1E+10	1	-1E+10	1
4902549	84	C	12/08/2022	20:04	-133.302	47.371	0	962.90	0	3.4070	0	34.3560	0	27.340	0	952.666	0	6.0	4	1.9	4	-1E+10	1	-1E+10	1	-1E+10	1	-1E+10	1	-1E+10	1	-1E+10	1
4902549	84	C	12/08/2022	20:04	-133.302	47.371	0	967.80	0	3.4020	0	34.3590	0	27.342	0	957.502	0	6.0	4	1.9	4	-1E+10	1	-1E+10	1	-1E+10	1	-1E+10	1	-1E+10	1	-1E+10	1
4902549	84	C	12/08/2022	20:04	-133.302	47.371	0	972.70	0	3.4020	0	34.3610	0	27.344	0	962.339	0	6.1	4	1.9	4	-1E+10	1	-1E+10	1	-1E+10	1	-1E+10	1	-1E+10	1	-1E+10	1
4902549	84	C	12/08/2022	20:04	-133.302	47.371	0	977.90	0	3.3990	0	34.3630	0	27.346	0	967.471	0	6.1	4	1.9	4	-1E+10	1	-1E+10	1	-1E+10	1	-1E+10	1	-1E+10	1	-1E+10	1
4902549	84	C	12/08/2022	20:04	-133.302	47.371	0	982.90	0	3.3950	0	34.3640	0	27.347	0	972.407	0	6.1	4	1.9	4	-1E+10	1	-1E+10	1	-1E+10	1	-1E+10	1	-1E+10	1	-1E+10	1
4902549	84	C	12/08/2022	20:04	-133.302	47.371	0	987.80	0	3.3920	0	34.3650	0	27.348	0	977.243	0	6.2	4	1.9	4	-1E+10	1	-1E+10	1	-1E+10	1	-1E+10	1	-1E+10	1	-1E+10	1
4902549	84	C	12/08/2022	20:04	-133.302	47.371	0	992.80	0	3.3890	0	34.3670	0	27.350	0	982.178	0	6.2	4	1.9	4	-1E+10	1	-1E+10	1	-1E+10	1	-1E+10	1	-1E+10	1	-1E+10	1
4902549	84	C	12/08/2022	20:04	-133.302	47.371	0	997.90	0	3.3820	0	34.3690	0	27.352	0	987.211	0	6.3	4	1.9	4	-1E+10	1	-1E+10	1	-1E+10	1	-1E+10	1	-1E+10	1	-1E+10	1
4902549	84	C	12/08/2022	20:04	-133.302	47.371	0	1005.60	0	3.3550	0	34.3730	0	27.358	0	994.810	0	6.3	4	2.0	4	-1E+10	1	-1E+10	1	-1E+10	1	-1E+10	1	-1E+10	1	-1E+10	1
4902549	84	C	12/08/2022	20:04	-133.302	47.371	0	1015.50	0	3.3160	0	34.3770	0	27.365	0	1004.580	0	6.5	4	2.0	4	-1E+10	1	-1E+10	1	-1E+10	1	-1E+10	1	-1E+10	1	-1E+10	1
4902549	84	C	12/08/2022	20:04	-133.302	47.371	0	1025.30	0	3.2850	0	34.3820	0	27.372	0	1014.251	0	6.6	4	2.1	4	-1E+10	1	-1E+10	1	-1E+10	1	-1E+10	1	-1E+10	1	-1E+10	1
4902549	84	C	12/08/2022	20:04	-133.302	47.371	0	1035.30	0	3.2680	0	34.3870	0	27.378	0	1024.119	0	6.7	4	2.1	4	-1E+10	1	-1E+10	1	-1E+10	1	-1E+10	1	-1E+10	1	-1E+10	1
4902549	84	C	12/08/2022	20:04	-133.302	47.371	0	1045.30	0	3.2530	0	34.3900	0	27.382	0	1033.987	0	6.9	4	2.1	4	-1E+10	1	-1E+10	1	-1E+10	1	-1E+10	1	-1E+10	1	-1E+10	1
4902549	84	C	12/08/2022	20:04	-133.302	47.371	0	1055.30	0	3.2360	0	34.3930	0	27.386	0	1043.853	0	7.0	4	2.2	4	-1E+10	1	-1E+10	1	-1E+10	1	-1E+10	1	-1E+10	1	-1E+10	1
4902549	84	C	12/08/2022	20:04	-133.302	47.371	0	1065.30	0	3.2140	0	34.3950	0	27.389	0	1053.720	0	7.1	4	2.2	4	-1E+10	1	-1E+10	1	-1E+10	1	-1E+10	1	-1E+10	1	-1E+10	1
4902549	84	C	12/08/2022	20:04	-133.302	47.371	0	1075.60	0	3.1860	0	34.3980	0	27.394	0	1063.882	0	7.3	4	2.3	4	-1E+10	1	-1E+10	1	-1E+10	1	-1E+10	1	-1E+10	1	-1E+10	1
4902549	84	C	12/08/2022	20:04	-133.302	47.371	0	1085.40	0	3.1670	0	34.4020	0	27.399	0	1073.550	0	7.4	4	2.3	4	-1E+10	1	-1E+10	1	-1E+10	1	-1E+10	1	-1E+10	1	-1E+10	1
4902549	84	C	12/08/2022	20:04	-133.302	47.371	0	1095.40	0	3.1420	0	34.4040	0	27.403	0	1083.415	0	7.5	4	2.3	4	-1E+10	1	-1E+10	1	-1E+10	1	-1E+10	1	-1E+10	1	-1E+10	1
4902549	84	C	12/08/2022	20:04	-133.302	47.371	0	1105.60	0	3.1200	0	34.4050	0	27.406	0	1093.477	0	7.6	4	2.4	4	-1E+10	1	-1E+10	1	-1E+10	1	-1E+10	1	-1E+10	1	-1E+10	1
4902549	84	C	12/08/2022	20:04	-133.302	47.371	0	1115.50	0	3.0990	0	34.4060	0	27.409	0	1103.242	0	7.7	4	2.4	4	-1E+10	1	-1E+10	1	-1E+10	1	-1E+10	1	-1E+10	1	-1E+10	1
4902549	84	C	12/08/2022	20:04	-133.302	47.371	0	1125.50	0	3.0740	0	34.4080	0	27.413	0	1113.106	0	7.9	4	2.4	4	-1E+10	1	-1E+10	1	-1E+10	1	-1E+10	1	-1E+10	1	-1E+10	1
4902549	84	C	12/08/2022	20:04	-133.302	47.371	0	1135.70	0	3.0570	0	34.4130	0	27.419	0	1123.166	0	8.1	4	2.5	4	-1E+10	1	-1E+10	1	-1E+10	1	-1E+10	1	-1E+10	1	-1E+10	1
4902549	84	C	12/08/2022	20:04	-133.302	47.371	0	1145.60	0	3.0460	0	34.4160	0	27.422	0	1132.930	0	8.3	4	2.6	4	-1E+10	1	-1E+10	1	-1E+10	1	-1E+10	1	-1E+10	1	-1E+10	1
4902549	84	C	12/08/2022	20:04	-133.302	47.371	0	1155.50	0	3.0240	0	34.4190	0	27.426	0	1142.694	0	8.5	4	2.6	4	-1E+10	1	-1E+10	1	-1E+10	1	-1E+10	1	-1E+10	1	-1E+10	1
4902549	84	C	12/08/2022	20:04	-133.302	47.371	0	1165.50	0	3.0070	0	34.4220	0	27.430	0	1152.556	0	8.7	4	2.7	4	-1E+10	1	-1E+10	1	-1E+10	1	-1E+10	1	-1E+10	1	-1E+10	1
4902549	84	C	12/08/2022	20:04	-133.302	47.371	0	1175.20	0	2.9860	0	34.4250	0	27.435	0	1162.121	0	8.9	4	2.8	4	-1E+10	1	-1E+10	1	-1E+10	1	-1E+10	1	-1E+10	1	-1E+10	1
4902549	84	C	12/08/2022	20:04	-133.302	47.371	0	1185.50	0	2.9670	0	34.4290	0	27.440	0	1172.278	0	9.2	4	2.8	4	-1E+10	1	-1E+10	1	-1E+10	1	-1E+10	1	-1E+10	1	-1E+10	1
4902549	84	C	12/08/2022	20:04	-133.302	47.371	0	1195.80	0	2.9500	0	34.4320	0	27.444	0	1182.434	0	9.5	4	2.9	4	-1E+10	1	-1E+10	1	-1E+10	1	-1E+10	1	-1E+10	1	-1E+10	1
4902549	84	C	12/08/2022	20:04	-133.302	47.371	0	1205.70	0	2.9280	0	34.4350	0	27.448	0	1192.195	0	9.7	4	3.0	4	-1E+10	1	-1E+10	1	-1E+10	1	-1E+10	1	-1E+10	1	-1E+10	1
4902549	84	C	12/08/2022	20:04	-133.302	47.371	0	1215.70	0	2.9070	0	34.4370	0	27.452	0	1202.055	0	10.1	4	3.1	4	-1E+10	1	-1E+10	1	-1E+10	1	-1E+10	1	-1E+10	1	-1E+10	1
4902549	84	C	12/08/2022	20:04	-133.302	47.371	0	1225.90	0	2.9020	0	34.4450	0	27.459	0	1212.111	0	10.7	4	3.3	4	-1E+10	1	-1E+10	1	-1E+10	1	-1E+10	1	-1E+10	1	-1E+10	1
4902549	84	C	12/08/2022	20:04	-133.302	47.371	0	1235.60	0	2.9040	0	34.4520	0	27.464	0	1221.674	0	11.1	4	3.4	4	-1E+10	1	-1E+10	1	-1E+10	1	-1E+10	1	-1E+10	1	-1E+10	1
4902549	84	C	12/08/2022	20:04	-133.302	47.371	0	1245.50	0	2.8920	0	34.4550	0	27.468	0	1231.433	0	11.4	4	3.5	4	-1E+10	1	-1E+10	1	-1E+10	1	-1E+10	1	-1E+10	1	-1E+10	1
4902549	84	C	12/08/2022	20:04	-133.302	47.371	0	1255.30	0	2.8750	0	34.4570	0	27.471	0	1241.094	0	11.7	4	3.6	4	-1E+10	1	-1E+10	1	-1E+10	1	-1E+10	1	-1E+10	1	-1E+10	1
4902549	84	C	12/08/2022	20:04	-133.302	47.371	0	1265.40	0	2.8540	0	34.4590	0	27.474	0	1251.049	0	12.0	4	3.7	4	-1E+10	1	-1E+10	1	-1E+10	1	-1E+10	1	-1E+10	1	-1E+10	1
4902549	84	C	12/08/2022	20:04	-133.302	47.371	0	1275.60	0	2.8360	0	34.4600	0	27.477	0	1261.103	0	12.3	4	3.8	4	-1E+10	1	-1E+10	1	-1E+10	1	-1E+10	1	-1E+10	1	-1E+10	1
4902549	84	C	12/08/2022	20:04	-133.302	47.371	0	1285.40	0	2.8130	0	34.4620	0	27.480	0	1270.762	0	12.6	4	3.9	4	-1E+10	1	-1E+10	1	-1E+10	1	-1E+10	1	-1E+10	1	-1E+10	1
4902549	84	C	12/08/2022	20:04	-133.302	47.371	0	1295.30	0	2.7890	0	34.4640	0	27.484	0	1280.519	0	13.0	4	4.0	4	-1E+10	1	-1E+10	1	-1E+10	1	-1E+10	1	-1E+10	1	-1E+10	1
4902549	84	C	12/08/2022	20:04	-133.302	47.371	0	1305.50	0	2.7620	0	34.4660	0	27.488	0	1290.572	0	13.4	4	4.1	4	-1E+10	1	-1E+10	1	-1E+10	1	-1E+10	1	-1E+10	1	-1E+10	1
4902549	84	C	12/08/2022	20:04	-133.302	47.371	0	1315.50	0	2.7430	0	34.4690	0	27.492	0	1300.426	0	13.8	4	4.2	4	-1E+10	1	-1E+10	1	-1E+10	1	-1E+10	1	-1E+10	1	-1E+10	1
4902549	84	C	12/08/2022	20:04	-133.302	47.371	0	1325.50	0	2.7280	0	34.4710	0	27.495	0	1310.281	0	14.1	4	4.3	4	-1E+10	1	-1E+10	1	-1E+10	1	-1E+10	1	-1E+10	1	-1E+10	1
4902549	84	C	12/08/2022	20:04	-133.302	47.371	0	1335.60	0	2.7200	0	34.4730	0	27.497	0	1320.233	0	14.4	4	4.4	4	-1E+10	1	-1E+10	1	-1E+10	1	-1E+10	1	-1E+10	1	-1E+10	1
4902549	84	C	12/08/2022	20:04	-133.302	47.371	0	1345.70	0	2.7080	0	34.4740	0	27.499	0	1330.185	0	14.7	4	4.5	4	-1E+10	1	-1E+10	1	-1E+10	1	-1E+10	1	-1E+10	1	-1E+10	1
4902549	84	C	12/08/2022	20:04	-133.302	47.371	0	1355.60	0	2.6900	0	34.4760	0	27.503	0	1339.940	0	15.1	4	4.6	4	-1E+10	1	-1E+10	1	-1E+10	1	-1E+10	1	-1E+10	1	-1E+10	1
4902549	84	C	12/08/2022	20:04	-133.302	47.371	0	1365.40	0	2.6700	0	34.4790	0	27.507	0	1349.595	0	15.6	4	4.8	4	-1E+10	1	-1E+10	1	-1E+10	1	-1E+10	1	-1E+10	1	-1E+10	1
4902549	84	C	12/08/2022	20:04	-133.302	47.371	0	1375.70	0	2.6590	0	34.4820	0	27.510	0	1359.743	0	16.2	4	4.9	4	-1E+10	1	-1E+10	1	-1E+10	1	-1E+10	1	-1E+10	1	-1E+10	1
4902549	84	C	12/08/2022	20:04	-133.302	47.371	0	1385.60	0	2.6440	0	34.4840	0	27.513	0	1369.496	0	16.8	4	5.1	4	-1E+10	1	-1E+10	1	-1E+10	1	-1E+10	1	-1E+10	1	-1E+10	1
4902549	84	C	12/08/2022	20:04	-133.302	47.371	0	1395.60	0	2.6280	0	34.4880	0	27.518	0	1379.347	0	17.4	4	5.3	4	-1E+10	1	-1E+10	1	-1E+10	1	-1E+10	1	-1E+10	1	-1E+10	1
4902549	84	C	12/08/2022	20:04	-133.302	47.371	0	1405.60	0	2.6180	0	34.4900	0	27.520	0	1389.197	0	18.1	4	5.5	4	-1E+10	1	-1E+10	1	-1E+10	1	-1E+10	1	-1E+10	1	-1E+10	1
4902549	84	C	12/08/2022	20:04	-133.302	47.371	0	1415.30	0	2.6100	0	34.4950	0	27.525	0	1398.752	0	18.9	4	5.8	4	-1E+10	1	-1E+10	1	-1E+10	1	-1E+10	1	-1E+10	1	-1E+10	1
4902549	84	C	12/08/2022	20:04	-133.302	47.371	0	1425.20	0	2.5880	0	34.4980	0	27.529	0	1408.503	0	19.5	4	5.9	4	-1E+10	1	-1E+10	1	-1E+10	1	-1E+10	1	-1E+10	1	-1E+10	1
4902549	84	C	12/08/2022	20:04	-133.302	47.371	0	1435.30	0	2.5700	0	34.5000	0	27.532	0	1418.451	0	20.0	4	6.1	4	-1E+10	1	-1E+10	1	-1E+10	1	-1E+10	1	-1E+10	1	-1E+10	1
4902549	84	C	12/08/2022	20:04	-133.302	47.371	0	1445.30	0	2.5590	0	34.5030	0	27.536	0	1428.300	0	20.7	4	6.3	4	-1E+10	1	-1E+10	1	-1E+10	1	-1E+10	1	-1E+10	1	-1E+10	1
4902549	84	C	12/08/2022	20:04	-133.302	47.371	0	1455.50	0	2.5400	0	34.5050	0	27.539	0	1438.345	0	21.0	4	6.4	4	-1E+10	1	-1E+10	1	-1E+10	1	-1E+10	1	-1E+10	1	-1E+10	1
4902549	84	C	12/08/2022	20:04	-133.302	47.371	0	1465.80	0	2.5270	0	34.5070	0	27.542	0	1448.489	0	21.3	4	6.5	4	-1E+10	1	-1E+10	1	-1E+10	1	-1E+10	1	-1E+10	1	-1E+10	1
4902549	84	C	12/08/2022	20:04	-133.302	47.371	0	1475.40	0	2.5180	0	34.5070	0	27.543	0	1457.942	0	21.6	4	6.6	4	-1E+10	1	-1E+10	1	-1E+10	1	-1E+10	1	-1E+10	1	-1E+10	1
4902549	84	C	12/08/2022	20:04	-133.302	47.371	0	1485.10	0	2.5020	0	34.5080	0	27.545	0	1467.493	0	21.8	4	6.6	4	-1E+10	1	-1E+10	1	-1E+10	1	-1E+10	1	-1E+10	1	-1E+10	1
4902549	84	C	12/08/2022	20:04	-133.302	47.371	0	1495.40	0	2.4630	0	34.5080	0	27.548	0	1477.635	0	22.1	4	6.7	4	-1E+10	1	-1E+10	1	-1E+10	1	-1E+10	1	-1E+10	1	-1E+10	1
4902549	84	C	12/08/2022	20:04	-133.302	47.371	0	1505.80	0	2.4410	0	34.5090	0	27.551	0	1487.875	0	22.4	4	6.8	4	-1E+10	1	-1E+10	1	-1E+10	1	-1E+10	1	-1E+10	1	-1E+10	1
4902549	84	C	12/08/2022	20:04	-133.302	47.371	0	1515.40	0	2.4250	0	34.5090	0	27.552	0	1497.327	0	22.8	4	7.0	4	-1E+10	1	-1E+10	1	-1E+10	1	-1E+10	1	-1E+10	1	-1E+10	1
4902549	84	C	12/08/2022	20:04	-133.302	47.371	0	1525.10	0	2.4080	0	34.5110	0	27.555	0	1506.877	0	23.6	4	7.2	4	-1E+10	1	-1E+10	1	-1E+10	1	-1E+10	1	-1E+10	1	-1E+10	1
4902549	84	C	12/08/2022	20:04	-133.302	47.371	0	1535.20	0	2.3950	0	34.5160	0	27.560	0	1516.820	0	24.6	4	7.5	4	-1E+10	1	-1E+10	1	-1E+10	1	-1E+10	1	-1E+10	1	-1E+10	1
4902549	84	C	12/08/2022	20:04	-133.302	47.371	0	1545.20	0	2.3730	0	34.5190	0	27.565	0	1526.664	0	25.2	4	7.7	4	-1E+10	1	-1E+10	1	-1E+10	1	-1E+10	1	-1E+10	1	-1E+10	1
4902549	84	C	12/08/2022	20:04	-133.302	47.371	0	1555.40	0	2.3540	0	34.5200	0	27.567	0	1536.705	0	25.9	4	7.9	4	-1E+10	1	-1E+10	1	-1E+10	1	-1E+10	1	-1E+10	1	-1E+10	1
4902549	84	C	12/08/2022	20:04	-133.302	47.371	0	1565.60	0	2.3300	0	34.5220	0	27.571	0	1546.745	0	26.8	4	8.1	4	-1E+10	1	-1E+10	1	-1E+10	1	-1E+10	1	-1E+10	1	-1E+10	1
4902549	84	C	12/08/2022	20:04	-133.302	47.371	0	1575.50	0	2.3190	0	34.5250	0	27.574	0	1556.489	0	27.6	4	8.4	4	-1E+10	1	-1E+10	1	-1E+10	1	-1E+10	1	-1E+10	1	-1E+10	1
4902549	84	C	12/08/2022	20:04	-133.302	47.371	0	1585.20	0	2.3100	0	34.5280	0	27.577	0	1566.036	0	28.1	4	8.5	4	-1E+10	1	-1E+10	1	-1E+10	1	-1E+10	1	-1E+10	1	-1E+10	1
4902549	84	C	12/08/2022	20:04	-133.302	47.371	0	1595.40	0	2.3010	0	34.5290	0	27.579	0	1576.075	0	28.6	4	8.7	4	-1E+10	1	-1E+10	1	-1E+10	1	-1E+10	1	-1E+10	1	-1E+10	1
4902549	84	C	12/08/2022	20:04	-133.302	47.371	0	1605.50	0	2.2840	0	34.5310	0	27.582	0	1586.015	0	29.1	4	8.8	4	-1E+10	1	-1E+10	1	-1E+10	1	-1E+10	1	-1E+10	1	-1E+10	1
4902549	84	C	12/08/2022	20:04	-133.302	47.371	0	1615.30	0	2.2680	0	34.5320	0	27.584	0	1595.659	0	29.5	4	8.9	4	-1E+10	1	-1E+10	1	-1E+10	1	-1E+10	1	-1E+10	1	-1E+10	1
4902549	84	C	12/08/2022	20:04	-133.302	47.371	0	1625.30	0	2.2490	0	34.5330	0	27.586	0	1605.500	0	30.0	4	9.1	4	-1E+10	1	-1E+10	1	-1E+10	1	-1E+10	1	-1E+10	1	-1E+10	1
4902549	84	C	12/08/2022	20:04	-133.302	47.371	0	1635.50	0	2.2250	0	34.5350	0	27.590	0	1615.536	0	30.6	4	9.3	4	-1E+10	1	-1E+10	1	-1E+10	1	-1E+10	1	-1E+10	1	-1E+10	1
4902549	84	C	12/08/2022	20:04	-133.302	47.371	0	1645.40	0	2.2080	0	34.5370	0	27.593	0	1625.278	0	31.4	4	9.5	4	-1E+10	1	-1E+10	1	-1E+10	1	-1E+10	1	-1E+10	1	-1E+10	1
4902549	84	C	12/08/2022	20:04	-133.302	47.371	0	1655.50	0	2.1970	0	34.5390	0	27.596	0	1635.215	0	32.2	4	9.8	4	-1E+10	1	-1E+10	1	-1E+10	1	-1E+10	1	-1E+10	1	-1E+10	1
4902549	84	C	12/08/2022	20:04	-133.302	47.371	0	1665.40	0	2.1830	0	34.5420	0	27.599	0	1644.955	0	32.8	4	9.9	4	-1E+10	1	-1E+10	1	-1E+10	1	-1E+10	1	-1E+10	1	-1E+10	1
4902549	84	C	12/08/2022	20:04	-133.302	47.371	0	1675.40	0	2.1710	0	34.5430	0	27.601	0	1654.794	0	33.3	4	10.1	4	-1E+10	1	-1E+10	1	-1E+10	1	-1E+10	1	-1E+10	1	-1E+10	1
4902549	84	C	12/08/2022	20:04	-133.302	47.371	0	1685.50	0	2.1640	0	34.5450	0	27.603	0	1664.730	0	34.2	4	10.4	4	-1E+10	1	-1E+10	1	-1E+10	1	-1E+10	1	-1E+10	1	-1E+10	1
4902549	84	C	12/08/2022	20:04	-133.302	47.371	0	1695.40	0	2.1560	0	34.5470	0	27.605	0	1674.469	0	34.8	4	10.5	4	-1E+10	1	-1E+10	1	-1E+10	1	-1E+10	1	-1E+10	1	-1E+10	1
4902549	84	C	12/08/2022	20:04	-133.302	47.371	0	1705.30	0	2.1410	0	34.5480	0	27.607	0	1684.207	0	35.3	4	10.7	4	-1E+10	1	-1E+10	1	-1E+10	1	-1E+10	1	-1E+10	1	-1E+10	1
4902549	84	C	12/08/2022	20:04	-133.302	47.371	0	1715.20	0	2.1230	0	34.5490	0	27.610	0	1693.945	0	35.9	4	10.9	4	-1E+10	1	-1E+10	1	-1E+10	1	-1E+10	1	-1E+10	1	-1E+10	1
4902549	84	C	12/08/2022	20:04	-133.302	47.371	0	1725.30	0	2.1060	0	34.5510	0	27.613	0	1703.880	0	36.7	4	11.1	4	-1E+10	1	-1E+10	1	-1E+10	1	-1E+10	1	-1E+10	1	-1E+10	1
4902549	84	C	12/08/2022	20:04	-133.302	47.371	0	1735.60	0	2.0950	0	34.5530	0	27.615	0	1714.010	0	37.5	4	11.3	4	-1E+10	1	-1E+10	1	-1E+10	1	-1E+10	1	-1E+10	1	-1E+10	1
4902549	84	C	12/08/2022	20:04	-133.302	47.371	0	1745.50	0	2.0830	0	34.5550	0	27.618	0	1723.747	0	38.2	4	11.5	4	-1E+10	1	-1E+10	1	-1E+10	1	-1E+10	1	-1E+10	1	-1E+10	1
4902549	84	C	12/08/2022	20:04	-133.302	47.371	0	1755.40	0	2.0730	0	34.5570	0	27.620	0	1733.483	0	38.9	4	11.8	4	-1E+10	1	-1E+10	1	-1E+10	1	-1E+10	1	-1E+10	1	-1E+10	1
4902549	84	C	12/08/2022	20:04	-133.302	47.371	0	1765.00	0	2.0640	0	34.5590	0	27.623	0	1742.924	0	39.6	4	12.0	4	-1E+10	1	-1E+10	1	-1E+10	1	-1E+10	1	-1E+10	1	-1E+10	1
4902549	84	C	12/08/2022	20:04	-133.302	47.371	0	1775.00	0	2.0550	0	34.5600	0	27.624	0	1752.757	0	40.2	4	12.1	4	-1E+10	1	-1E+10	1	-1E+10	1	-1E+10	1	-1E+10	1	-1E+10	1
4902549	84	C	12/08/2022	20:04	-133.302	47.371	0	1785.40	0	2.0480	0	34.5610	0	27.626	0	1762.984	0	40.7	4	12.3	4	-1E+10	1	-1E+10	1	-1E+10	1	-1E+10	1	-1E+10	1	-1E+10	1
4902549	84	C	12/08/2022	20:04	-133.302	47.371	0	1795.30	0	2.0430	0	34.5620	0	27.627	0	1772.718	0	41.2	4	12.4	4	-1E+10	1	-1E+10	1	-1E+10	1	-1E+10	1	-1E+10	1	-1E+10	1
4902549	84	C	12/08/2022	20:04	-133.302	47.371	0	1805.40	0	2.0370	0	34.5630	0	27.628	0	1782.649	0	41.8	4	12.6	4	-1E+10	1	-1E+10	1	-1E+10	1	-1E+10	1	-1E+10	1	-1E+10	1
4902549	84	C	12/08/2022	20:04	-133.302	47.371	0	1815.40	0	2.0290	0	34.5650	0	27.630	0	1792.481	0	42.3	4	12.8	4	-1E+10	1	-1E+10	1	-1E+10	1	-1E+10	1	-1E+10	1	-1E+10	1
4902549	84	C	12/08/2022	20:04	-133.302	47.371	0	1825.20	0	2.0260	0	34.5660	0	27.632	0	1802.116	0	42.7	4	12.9	4	-1E+10	1	-1E+10	1	-1E+10	1	-1E+10	1	-1E+10	1	-1E+10	1
4902549	84	C	12/08/2022	20:04	-133.302	47.371	0	1835.40	0	2.0220	0	34.5660	0	27.632	0	1812.143	0	43.1	4	13.0	4	-1E+10	1	-1E+10	1	-1E+10	1	-1E+10	1	-1E+10	1	-1E+10	1
4902549	84	C	12/08/2022	20:04	-133.302	47.371	0	1845.80	0	2.0160	0	34.5680	0	27.634	0	1822.367	0	43.7	4	13.2	4	-1E+10	1	-1E+10	1	-1E+10	1	-1E+10	1	-1E+10	1	-1E+10	1
4902549	84	C	12/08/2022	20:04	-133.302	47.371	0	1855.50	0	2.0110	0	34.5690	0	27.635	0	1831.902	0	44.0	4	13.3	4	-1E+10	1	-1E+10	1	-1E+10	1	-1E+10	1	-1E+10	1	-1E+10	1
4902549	84	C	12/08/2022	20:04	-133.302	47.371	0	1865.10	0	2.0060	0	34.5690	0	27.636	0	1841.338	0	44.4	4	13.4	4	-1E+10	1	-1E+10	1	-1E+10	1	-1E+10	1	-1E+10	1	-1E+10	1
4902549	84	C	12/08/2022	20:04	-133.302	47.371	0	1875.10	0	2.0020	0	34.5700	0	27.637	0	1851.167	0	44.8	4	13.5	4	-1E+10	1	-1E+10	1	-1E+10	1	-1E+10	1	-1E+10	1	-1E+10	1
4902549	84	C	12/08/2022	20:04	-133.302	47.371	0	1885.10	0	1.9950	0	34.5710	0	27.638	0	1860.996	0	45.6	4	13.7	4	-1E+10	1	-1E+10	1	-1E+10	1	-1E+10	1	-1E+10	1	-1E+10	1
4902549	84	C	12/08/2022	20:04	-133.302	47.371	0	1895.00	0	1.9850	0	34.5730	0	27.641	0	1870.726	0	46.5	4	14.0	4	-1E+10	1	-1E+10	1	-1E+10	1	-1E+10	1	-1E+10	1	-1E+10	1
4902549	84	C	12/08/2022	20:04	-133.302	47.371	0	1905.10	0	1.9770	0	34.5750	0	27.643	0	1880.652	0	47.1	4	14.2	4	-1E+10	1	-1E+10	1	-1E+10	1	-1E+10	1	-1E+10	1	-1E+10	1
4902549	84	C	12/08/2022	20:04	-133.302	47.371	0	1915.40	0	1.9710	0	34.5760	0	27.644	0	1890.774	0	47.5	4	14.3	4	-1E+10	1	-1E+10	1	-1E+10	1	-1E+10	1	-1E+10	1	-1E+10	1
4902549	84	C	12/08/2022	20:04	-133.302	47.371	0	1925.40	0	1.9670	0	34.5770	0	27.645	0	1900.601	0	47.9	4	14.4	4	-1E+10	1	-1E+10	1	-1E+10	1	-1E+10	1	-1E+10	1	-1E+10	1
4902549	84	C	12/08/2022	20:04	-133.302	47.371	0	1935.50	0	1.9600	0	34.5790	0	27.648	0	1910.525	0	48.5	4	14.6	4	-1E+10	1	-1E+10	1	-1E+10	1	-1E+10	1	-1E+10	1	-1E+10	1
4902549	84	C	12/08/2022	20:04	-133.302	47.371	0	1945.70	0	1.9540	0	34.5800	0	27.649	0	1920.548	0	48.8	4	14.7	4	-1E+10	1	-1E+10	1	-1E+10	1	-1E+10	1	-1E+10	1	-1E+10	1
4902549	84	C	12/08/2022	20:04	-133.302	47.371	0	1955.70	0	1.9510	0	34.5810	0	27.650	0	1930.373	0	48.7	4	14.7	4	-1E+10	1	-1E+10	1	-1E+10	1	-1E+10	1	-1E+10	1	-1E+10	1
4902549	84	C	12/08/2022	20:04	-133.302	47.371	0	1964.70	0	1.9500	0	34.5810	0	27.650	0	1939.216	0	47.9	4	14.4	4	-1E+10	1	-1E+10	1	-1E+10	1	-1E+10	1	-1E+10	1	-1E+10	1
4902549	84	C	12/08/2022	20:04	-133.302	47.371	0																										
4902549	85	C	12/19/2022	01:06	-133.446	47.458	0	0.30	0	10.3690	0	32.3250	0	24.802	0	0.297	0	259.1	4	93.3	4	-1E+10	1	-1E+10	1	-1E+10	1	-1E+10	1	-1E+10	1	-1E+10	1
4902549	85	C	12/19/2022	01:06	-133.446	47.458	0	0.40	0	10.3683	0	32.3252	0	24.803	0	0.397	0	259.1	4	93.3	4	-1E+10	1	-1E+10	1	-1E+10	1	-1E+10	1	-1E+10	1	-1E+10	1
4902549	85	C	12/19/2022	01:06	-133.446	47.458	0	0.90	0	10.3650	0	32.3260	0	24.804	0	0.892	0	259.1	4	93.3	4	-1E+10	1	-1E+10	1	-1E+10	1	-1E+10	1	-1E+10	1	-1E+10	1
4902549	85	C	12/19/2022	01:06	-133.446	47.458	0	2.20	0	10.3600	0	32.3320	0	24.809	0	2.182	0	259.0	4	93.3	4	-1E+10	1	-1E+10	1	-1E+10	1	-1E+10	1	-1E+10	1	-1E+10	1
4902549	85	C	12/19/2022	01:06	-133.446	47.458	0	2.90	0	10.3600	0	32.3320	0	24.809	0	2.876	0	259.1	4	93.3	4	-1E+10	1	-1E+10	1	-1E+10	1	-1E+10	1	-1E+10	1	-1E+10	1
4902549	85	C	12/19/2022	01:06	-133.446	47.458	0	4.10	0	10.3590	0	32.3330	0	24.810	0	4.066	0	259.0	4	93.3	4	-1E+10	1	-1E+10	1	-1E+10	1	-1E+10	1	-1E+10	1	-1E+10	1
4902549	85	C	12/19/2022	01:06	-133.446	47.458	0	5.10	0	10.3640	0	32.3320	0	24.809	0	5.057	0	259.1	4	93.3	4	-1E+10	1	-1E+10	1	-1E+10	1	-1E+10	1	-1E+10	1	-1E+10	1
4902549	85	C	12/19/2022	01:06	-133.446	47.458	0	6.00	0	10.3730	0	32.3320	0	24.807	0	5.950	0	259.0	4	93.3	4	-1E+10	1	-1E+10	1	-1E+10	1	-1E+10	1	-1E+10	1	-1E+10	1
4902549	85	C	12/19/2022	01:06	-133.446	47.458	0	7.20	0	10.3720	0	32.3320	0	24.808	0	7.140	0	258.9	4	93.2	4	-1E+10	1	-1E+10	1	-1E+10	1	-1E+10	1	-1E+10	1	-1E+10	1
4902549	85	C	12/19/2022	01:06	-133.446	47.458	0	8.10	0	10.3620	0	32.3330	0	24.810	0	8.032	0	259.0	4	93.3	4	-1E+10	1	-1E+10	1	-1E+10	1	-1E+10	1	-1E+10	1	-1E+10	1
4902549	85	C	12/19/2022	01:06	-133.446	47.458	0	8.90	0	10.3700	0	32.3310	0	24.807	0	8.826	0	259.0	4	93.3	4	-1E+10	1	-1E+10	1	-1E+10	1	-1E+10	1	-1E+10	1	-1E+10	1
4902549	85	C	12/19/2022	01:06	-133.446	47.458	0	10.10	0	10.3650	0	32.3320	0	24.809	0	10.016	0	258.9	4	93.2	4	-1E+10	1	-1E+10	1	-1E+10	1	-1E+10	1	-1E+10	1	-1E+10	1
4902549	85	C	12/19/2022	01:06	-133.446	47.458	0	11.10	0	10.3680	0	32.3310	0	24.808	0	11.007	0	258.9	4	93.2	4	-1E+10	1	-1E+10	1	-1E+10	1	-1E+10	1	-1E+10	1	-1E+10	1
4902549	85	C	12/19/2022	01:06	-133.446	47.458	0	12.10	0	10.3650	0	32.3330	0	24.810	0	11.999	0	259.0	4	93.2	4	-1E+10	1	-1E+10	1	-1E+10	1	-1E+10	1	-1E+10	1	-1E+10	1
4902549	85	C	12/19/2022	01:06	-133.446	47.458	0	13.00	0	10.3700	0	32.3340	0	24.810	0	12.891	0	259.0	4	93.3	4	-1E+10	1	-1E+10	1	-1E+10	1	-1E+10	1	-1E+10	1	-1E+10	1
4902549	85	C	12/19/2022	01:06	-133.446	47.458	0	13.80	0	10.3760	0	32.3330	0	24.808	0	13.684	0	258.8	4	93.2	4	-1E+10	1	-1E+10	1	-1E+10	1	-1E+10	1	-1E+10	1	-1E+10	1
4902549	85	C	12/19/2022	01:06	-133.446	47.458	0	15.10	0	10.3780	0	32.3320	0	24.807	0	14.973	0	258.8	4	93.2	4	-1E+10	1	-1E+10	1	-1E+10	1	-1E+10	1	-1E+10	1	-1E+10	1
4902549	85	C	12/19/2022	01:06	-133.446	47.458	0	16.10	0	10.3780	0	32.3320	0	24.807	0	15.965	0	258.8	4	93.2	4	-1E+10	1	-1E+10	1	-1E+10	1	-1E+10	1	-1E+10	1	-1E+10	1
4902549	85	C	12/19/2022	01:06	-133.446	47.458	0	17.00	0	10.3780	0	32.3320	0	24.807	0	16.857	0	258.8	4	93.2	4	-1E+10	1	-1E+10	1	-1E+10	1	-1E+10	1	-1E+10	1	-1E+10	1
4902549	85	C	12/19/2022	01:06	-133.446	47.458	0	18.00	0	10.3790	0	32.3320	0	24.807	0	17.849	0	258.9	4	93.2	4	-1E+10	1	-1E+10	1	-1E+10	1	-1E+10	1	-1E+10	1	-1E+10	1
4902549	85	C	12/19/2022	01:06	-133.446	47.458	0	19.00	0	10.3780	0	32.3320	0	24.807	0	18.841	0	258.8	4	93.2	4	-1E+10	1	-1E+10	1	-1E+10	1	-1E+10	1	-1E+10	1	-1E+10	1
4902549	85	C	12/19/2022	01:06	-133.446	47.458	0	20.10	0	10.3790	0	32.3320	0	24.807	0	19.931	0	258.9	4	93.2	4	-1E+10	1	-1E+10	1	-1E+10	1	-1E+10	1	-1E+10	1	-1E+10	1
4902549	85	C	12/19/2022	01:06	-133.446	47.458	0	21.00	0	10.3790	0	32.3320	0	24.807	0	20.824	0	258.8	4	93.2	4	-1E+10	1	-1E+10	1	-1E+10	1	-1E+10	1	-1E+10	1	-1E+10	1
4902549	85	C	12/19/2022	01:06	-133.446	47.458	0	21.90	0	10.3790	0	32.3320	0	24.807	0	21.716	0	258.8	4	93.2	4	-1E+10	1	-1E+10	1	-1E+10	1	-1E+10	1	-1E+10	1	-1E+10	1
4902549	85	C	12/19/2022	01:06	-133.446	47.458	0	22.80	0	10.3780	0	32.3320	0	24.807	0	22.609	0	258.7	4	93.2	4	-1E+10	1	-1E+10	1	-1E+10	1	-1E+10	1	-1E+10	1	-1E+10	1
4902549	85	C	12/19/2022	01:06	-133.446	47.458	0	24.00	0	10.3760	0	32.3320	0	24.807	0	23.798	0	258.8	4	93.2	4	-1E+10	1	-1E+10	1	-1E+10	1	-1E+10	1	-1E+10	1	-1E+10	1
4902549	85	C	12/19/2022	01:06	-133.446	47.458	0	25.10	0	10.3760	0	32.3320	0	24.807	0	24.889	0	258.7	4	93.2	4	-1E+10	1	-1E+10	1	-1E+10	1	-1E+10	1	-1E+10	1	-1E+10	1
4902549	85	C	12/19/2022	01:06	-133.446	47.458	0	26.00	0	10.3770	0	32.3330	0	24.808	0	25.781	0	258.7	4	93.2	4	-1E+10	1	-1E+10	1	-1E+10	1	-1E+10	1	-1E+10	1	-1E+10	1
4902549	85	C	12/19/2022	01:06	-133.446	47.458	0	26.90	0	10.3790	0	32.3330	0	24.808	0	26.674	0	258.8	4	93.2	4	-1E+10	1	-1E+10	1	-1E+10	1	-1E+10	1	-1E+10	1	-1E+10	1
4902549	85	C	12/19/2022	01:06	-133.446	47.458	0	28.10	0	10.3800	0	32.3320	0	24.807	0	27.864	0	258.7	4	93.2	4	-1E+10	1	-1E+10	1	-1E+10	1	-1E+10	1	-1E+10	1	-1E+10	1
4902549	85	C	12/19/2022	01:06	-133.446	47.458	0	29.00	0	10.3810	0	32.3320	0	24.806	0	28.756	0	258.7	4	93.2	4	-1E+10	1	-1E+10	1	-1E+10	1	-1E+10	1	-1E+10	1	-1E+10	1
4902549	85	C	12/19/2022	01:06	-133.446	47.458	0	29.90	0	10.3810	0	32.3320	0	24.806	0	29.648	0	258.7	4	93.2	4	-1E+10	1	-1E+10	1	-1E+10	1	-1E+10	1	-1E+10	1	-1E+10	1
4902549	85	C	12/19/2022	01:06	-133.446	47.458	0	31.00	0	10.3810	0	32.3320	0	24.806	0	30.739	0	258.6	4	93.2	4	-1E+10	1	-1E+10	1	-1E+10	1	-1E+10	1	-1E+10	1	-1E+10	1
4902549	85	C	12/19/2022	01:06	-133.446	47.458	0	31.90	0	10.3820	0	32.3320	0	24.806	0	31.631	0	258.7	4	93.2	4	-1E+10	1	-1E+10	1	-1E+10	1	-1E+10	1	-1E+10	1	-1E+10	1
4902549	85	C	12/19/2022	01:06	-133.446	47.458	0	32.80	0	10.3810	0	32.3330	0	24.807	0	32.524	0	258.6	4	93.1	4	-1E+10	1	-1E+10	1	-1E+10	1	-1E+10	1	-1E+10	1	-1E+10	1
4902549	85	C	12/19/2022	01:06	-133.446	47.458	0	33.90	0	10.3810	0	32.3320	0	24.807	0	33.614	0	258.6	4	93.2	4	-1E+10	1	-1E+10	1	-1E+10	1	-1E+10	1	-1E+10	1	-1E+10	1
4902549	85	C	12/19/2022	01:06	-133.446	47.458	0	35.00	0	10.3810	0	32.3320	0	24.807	0	34.705	0	258.6	4	93.1	4	-1E+10	1	-1E+10	1	-1E+10	1	-1E+10	1	-1E+10	1	-1E+10	1
4902549	85	C	12/19/2022	01:06	-133.446	47.458	0	35.90	0	10.3810	0	32.3320	0	24.807	0	35.597	0	258.6	4	93.1	4	-1E+10	1	-1E+10	1	-1E+10	1	-1E+10	1	-1E+10	1	-1E+10	1
4902549	85	C	12/19/2022	01:06	-133.446	47.458	0	36.70	0	10.3810	0	32.3330	0	24.807	0	36.391	0	258.6	4	93.1	4	-1E+10	1	-1E+10	1	-1E+10	1	-1E+10	1	-1E+10	1	-1E+10	1
4902549	85	C	12/19/2022	01:06	-133.446	47.458	0	37.90	0	10.3810	0	32.3330	0	24.807	0	37.580	0	258.6	4	93.1	4	-1E+10	1	-1E+10	1	-1E+10	1	-1E+10	1	-1E+10	1	-1E+10	1
4902549	85	C	12/19/2022	01:06	-133.446	47.458	0	38.90	0	10.3810	0	32.3320	0	24.807	0	38.572	0	258.5	4	93.1	4	-1E+10	1	-1E+10	1	-1E+10	1	-1E+10	1	-1E+10	1	-1E+10	1
4902549	85	C	12/19/2022	01:06	-133.446	47.458	0	40.00	0	10.3810	0	32.3320	0	24.807	0	39.662	0	258.5	4	93.1	4	-1E+10	1	-1E+10	1	-1E+10	1	-1E+10	1	-1E+10	1	-1E+10	1
4902549	85	C	12/19/2022	01:06	-133.446	47.458	0	41.10	0	10.3800	0	32.3320	0	24.807	0	40.753	0	258.4	4	93.1	4	-1E+10	1	-1E+10	1	-1E+10	1	-1E+10	1	-1E+10	1	-1E+10	1
4902549	85	C	12/19/2022	01:06	-133.446	47.458	0	41.90	0	10.3820	0	32.3320	0	24.807	0	41.546	0	258.4	4	93.1	4	-1E+10	1	-1E+10	1	-1E+10	1	-1E+10	1	-1E+10	1	-1E+10	1
4902549	85	C	12/19/2022	01:06	-133.446	47.458	0	42.80	0	10.3820	0	32.3320	0	24.807	0	42.439	0	258.4	4	93.1	4	-1E+10	1	-1E+10	1	-1E+10	1	-1E+10	1	-1E+10	1	-1E+10	1
4902549	85	C	12/19/2022	01:06	-133.446	47.458	0	43.80	0	10.3820	0	32.3320	0	24.807	0	43.430	0	258.4	4	93.1	4	-1E+10	1	-1E+10	1	-1E+10	1	-1E+10	1	-1E+10	1	-1E+10	1
4902549	85	C	12/19/2022	01:06	-133.446	47.458	0	44.90	0	10.3820	0	32.3330	0	24.807	0	44.521	0	258.4	4	93.1	4	-1E+10	1	-1E+10	1	-1E+10	1	-1E+10	1	-1E+10	1	-1E+10	1
4902549	85	C	12/19/2022	01:06	-133.446	47.458	0	45.90	0	10.3820	0	32.3320	0	24.807	0	45.512	0	258.3	4	93.0	4	-1E+10	1	-1E+10	1	-1E+10	1	-1E+10	1	-1E+10	1	-1E+10	1
4902549	85	C	12/19/2022	01:06	-133.446	47.458	0	46.70	0	10.3810	0	32.3330	0	24.808	0	46.305	0	258.3	4	93.0	4	-1E+10	1	-1E+10	1	-1E+10	1	-1E+10	1	-1E+10	1	-1E+10	1
4902549	85	C	12/19/2022	01:06	-133.446	47.458	0	47.90	0	10.3820	0	32.3330	0	24.807	0	47.495	0	258.2	4	93.0	4	-1E+10	1	-1E+10	1	-1E+10	1	-1E+10	1	-1E+10	1	-1E+10	1
4902549	85	C	12/19/2022	01:06	-133.446	47.458	0	49.10	0	10.3820	0	32.3330	0	24.807	0	48.685	0	258.2	4	93.0	4	-1E+10	1	-1E+10	1	-1E+10	1	-1E+10	1	-1E+10	1	-1E+10	1
4902549	85	C	12/19/2022	01:06	-133.446	47.458	0	50.00	0	10.3820	0	32.3330	0	24.807	0	49.577	0	258.1	4	93.0	4	-1E+10	1	-1E+10	1	-1E+10	1	-1E+10	1	-1E+10	1	-1E+10	1
4902549	85	C	12/19/2022	01:06	-133.446	47.458	0	50.90	0	10.3820	0	32.3330	0	24.807	0	50.469	0	258.1	4	93.0	4	-1E+10	1	-1E+10	1	-1E+10	1	-1E+10	1	-1E+10	1	-1E+10	1
4902549	85	C	12/19/2022	01:06	-133.446	47.458	0	51.80	0	10.3820	0	32.3330	0	24.807	0	51.361	0	258.0	4	92.9	4	-1E+10	1	-1E+10	1	-1E+10	1	-1E+10	1	-1E+10	1	-1E+10	1
4902549	85	C	12/19/2022	01:06	-133.446	47.458	0	52.80	0	10.3830	0	32.3320	0	24.807	0	52.353	0	258.0	4	92.9	4	-1E+10	1	-1E+10	1	-1E+10	1	-1E+10	1	-1E+10	1	-1E+10	1
4902549	85	C	12/19/2022	01:06	-133.446	47.458	0	53.90	0	10.3820	0	32.3320	0	24.807	0	53.443	0	257.9	4	92.9	4	-1E+10	1	-1E+10	1	-1E+10	1	-1E+10	1	-1E+10	1	-1E+10	1
4902549	85	C	12/19/2022	01:06	-133.446	47.458	0	55.10	0	10.3820	0	32.3320	0	24.807	0	54.633	0	257.8	4	92.9	4	-1E+10	1	-1E+10	1	-1E+10	1	-1E+10	1	-1E+10	1	-1E+10	1
4902549	85	C	12/19/2022	01:06	-133.446	47.458	0	56.00	0	10.3830	0	32.3330	0	24.807	0	55.525	0	257.8	4	92.9	4	-1E+10	1	-1E+10	1	-1E+10	1	-1E+10	1	-1E+10	1	-1E+10	1
4902549	85	C	12/19/2022	01:06	-133.446	47.458	0	56.90	0	10.3830	0	32.3320	0	24.807	0	56.418	0	257.7	4	92.8	4	-1E+10	1	-1E+10	1	-1E+10	1	-1E+10	1	-1E+10	1	-1E+10	1
4902549	85	C	12/19/2022	01:06	-133.446	47.458	0	57.90	0	10.3840	0	32.3320	0	24.806	0	57.409	0	257.5	4	92.8	4	-1E+10	1	-1E+10	1	-1E+10	1	-1E+10	1	-1E+10	1	-1E+10	1
4902549	85	C	12/19/2022	01:06	-133.446	47.458	0	58.80	0	10.3840	0	32.3320	0	24.807	0	58.301	0	257.5	4	92.7	4	-1E+10	1	-1E+10	1	-1E+10	1	-1E+10	1	-1E+10	1	-1E+10	1
4902549	85	C	12/19/2022	01:06	-133.446	47.458	0	59.90	0	10.3850	0	32.3320	0	24.806	0	59.392	0	257.4	4	92.7	4	-1E+10	1	-1E+10	1	-1E+10	1	-1E+10	1	-1E+10	1	-1E+10	1
4902549	85	C	12/19/2022	01:06	-133.446	47.458	0	60.80	0	10.3840	0	32.3320	0	24.807	0	60.284	0	257.4	4	92.7	4	-1E+10	1	-1E+10	1	-1E+10	1	-1E+10	1	-1E+10	1	-1E+10	1
4902549	85	C	12/19/2022	01:06	-133.446	47.458	0	61.80	0	10.3850	0	32.3320	0	24.806	0	61.275	0	257.1	4	92.6	4	-1E+10	1	-1E+10	1	-1E+10	1	-1E+10	1	-1E+10	1	-1E+10	1
4902549	85	C	12/19/2022	01:06	-133.446	47.458	0	62.80	0	10.3850	0	32.3320	0	24.806	0	62.267	0	257.0	4	92.6	4	-1E+10	1	-1E+10	1	-1E+10	1	-1E+10	1	-1E+10	1	-1E+10	1
4902549	85	C	12/19/2022	01:06	-133.446	47.458	0	63.80	0	10.3850	0	32.3320	0	24.806	0	63.258	0	256.8	4	92.5	4	-1E+10	1	-1E+10	1	-1E+10	1	-1E+10	1	-1E+10	1	-1E+10	1
4902549	85	C	12/19/2022	01:06	-133.446	47.458	0	64.80	0	10.3720	0	32.3340	0	24.810	0	64.249	0	256.7	4	92.5	4	-1E+10	1	-1E+10	1	-1E+10	1	-1E+10	1	-1E+10	1	-1E+10	1
4902549	85	C	12/19/2022	01:06	-133.446	47.458	0	66.10	0	10.3670	0	32.3310	0	24.809	0	65.538	0	256.6	4	92.4	4	-1E+10	1	-1E+10	1	-1E+10	1	-1E+10	1	-1E+10	1	-1E+10	1
4902549	85	C	12/19/2022	01:06	-133.446	47.458	0	67.00	0	10.3680	0	32.3310	0	24.809	0	66.430	0	256.4	4	92.3	4	-1E+10	1	-1E+10	1	-1E+10	1	-1E+10	1	-1E+10	1	-1E+10	1
4902549	85	C	12/19/2022	01:06	-133.446	47.458	0	68.00	0	10.3670	0	32.3310	0	24.809	0	67.422	0	256.3	4	92.3	4	-1E+10	1	-1E+10	1	-1E+10	1	-1E+10	1	-1E+10	1	-1E+10	1
4902549	85	C	12/19/2022	01:06	-133.446	47.458	0	68.90	0	10.3690	0	32.3320	0	24.809	0	68.314	0	255.9	4	92.2	4	-1E+10	1	-1E+10	1	-1E+10	1	-1E+10	1	-1E+10	1	-1E+10	1
4902549	85	C	12/19/2022	01:06	-133.446	47.458	0	69.90	0	10.3670	0	32.3310	0	24.809	0	69.305	0	255.7	4	92.1	4	-1E+10	1	-1E+10	1	-1E+10	1	-1E+10	1	-1E+10	1	-1E+10	1
4902549	85	C	12/19/2022	01:06	-133.446	47.458	0	70.90	0	10.3680	0	32.3310	0	24.809	0	70.296	0	255.4	4	92.0	4	-1E+10	1	-1E+10	1	-1E+10	1	-1E+10	1	-1E+10	1	-1E+10	1
4902549	85	C	12/19/2022	01:06	-133.446	47.458	0	71.80	0	10.3650	0	32.3300	0	24.808	0	71.189	0	255.1	4	91.9	4	-1E+10	1	-1E+10	1	-1E+10	1	-1E+10	1	-1E+10	1	-1E+10	1
4902549	85	C	12/19/2022	01:06	-133.446	47.458	0	73.00	0	10.3620	0	32.3300	0	24.809	0	72.378	0	254.5	4	91.6	4	-1E+10	1	-1E+10	1	-1E+10	1	-1E+10	1	-1E+10	1	-1E+10	1
4902549	85	C	12/19/2022	01:06	-133.446	47.458	0	74.10	0	10.3520	0	32.3290	0	24.810	0	73.469	0	253.7	4	91.3	4	-1E+10	1	-1E+10	1	-1E+10	1	-1E+10	1	-1E+10	1	-1E+10	1
4902549	85	C	12/19/2022	01:06	-133.446	47.458	0	74.90	0	10.3410	0	32.3300	0	24.813	0	74.262	0	253.1	4	91.1	4	-1E+10	1	-1E+10	1	-1E+10	1	-1E+10	1	-1E+10	1	-1E+10	1
4902549	85	C	12/19/2022	01:06	-133.446	47.458	0	75.80	0	10.2710	0	32.3260	0	24.821	0	75.154	0	252.7	4	90.8	4	-1E+10	1	-1E+10	1	-1E+10	1	-1E+10	1	-1E+10	1	-1E+10	1
4902549	85	C	12/19/2022	01:06	-133.446	47.458	0	77.00	0	10.1570	0	32.3310	0	24.844	0	76.343	0	252.2	4	90.4	4	-1E+10	1	-1E+10	1	-1E+10	1	-1E+10	1	-1E+10	1	-1E+10	1
4902549	85	C	12/19/2022	01:06	-133.446	47.458	0	78.00	0	10.0660	0	32.3340	0	24.862	0	77.335	0	251.8	4	90.1	4	-1E+10	1	-1E+10	1	-1E+10	1	-1E+10	1	-1E+10	1	-1E+10	1
4902549	85	C	12/19/2022	01:06	-133.446	47.458	0	79.00	0	9.8340	0	32.3530	0	24.915	0	78.326	0	251.7	4	89.6	4	-1E+10	1	-1E+10	1	-1E+10	1	-1E+10	1	-1E+10	1	-1E+10	1
4902549	85	C	12/19/2022	01:06	-133.446	47.458	0	80.10	0	9.9050	0	32.3410	0	24.894	0	79.416	0	247.8	4	88.3	4	-1E+10	1	-1E+10	1	-1E+10	1	-1E+10	1	-1E+10	1	-1E+10	1
4902549	85	C	12/19/2022	01:06	-133.446	47.458	0	80.90	0	9.5590	0	32.3480	0	24.956	0	80.209	0	246.6	4	87.3	4	-1E+10	1	-1E+10	1	-1E+10	1	-1E+10	1	-1E+10	1	-1E+10	1
4902549	85	C	12/19/2022	01:06	-133.446	47.458	0	82.00	0	8.6850	0	32.3890	0	25.124	0	81.300	0	248.7	4	86.4	4	-1E+10	1	-1E+10	1	-1E+10	1	-1E+10	1	-1E+10	1	-1E+10	1
4902549	85	C	12/19/2022	01:06	-133.446	47.458	0	83.20	0	8.3730	0	32.3970	0	25.177	0	82.489	0	256.2	4	88.4	4	-1E+10	1	-1E+10	1	-1E+10	1	-1E+10	1	-1E+10	1	-1E+10	1
4902549	85	C	12/19/2022	01:06	-133.446	47.458	0	84.00	0	8.3050	0	32.3990	0	25.189	0	83.282	0	256.2	4	88.2	4	-1E+10	1	-1E+10	1	-1E+10	1	-1E+10	1	-1E+10	1	-1E+10	1
4902549	85	C	12/19/2022	01:06	-133.446	47.458	0	85.20	0	8.1510	0	32.4070	0	25.218	0	84.472	0	256.3	4	88.0	4	-1E+10	1	-1E+10	1	-1E+10	1	-1E+10	1	-1E+10	1	-1E+10	1
4902549	85	C	12/19/2022	01:06	-133.446	47.458	0	86.00	0	7.9530	0	32.4200	0	25.256	0	85.265	0	255.2	4	87.2	4	-1E+10	1	-1E+10	1	-1E+10	1	-1E+10	1	-1E+10	1	-1E+10	1
4902549	85	C	12/19/2022	01:06	-133.446	47.458	0	87.10	0	7.9240	0	32.4280	0	25.267	0	86.355	0	252.3	4	86.2	4	-1E+10	1	-1E+10	1	-1E+10	1	-1E+10	1	-1E+10	1	-1E+10	1
4902549	85	C	12/19/2022	01:06	-133.446	47.458	0	88.00	0	7.9120	0	32.4390	0	25.277	0	87.247	0	250.2	4	85.4	4	-1E+10	1	-1E+10	1	-1E+10	1	-1E+10	1	-1E+10	1	-1E+10	1
4902549	85	C	12/19/2022	01:06	-133.446	47.458	0	89.10	0	7.9350	0	32.4540	0	25.286	0	88.338	0	248.9	4	85.0	4	-1E+10	1	-1E+10	1	-1E+10	1	-1E+10	1	-1E+10	1	-1E+10	1
4902549	85	C	12/19/2022	01:06	-133.446	47.458	0	90.00	0	7.9260	0	32.4550	0	25.288	0	89.230	0	248.0	4	84.7	4	-1E+10	1	-1E+10	1	-1E+10	1	-1E+10	1	-1E+10	1	-1E+10	1
4902549	85	C	12/19/2022	01:06	-133.446	47.458	0	90.90	0	7.9050	0	32.4600	0	25.295	0	90.122	0	247.2	4	84.4	4	-1E+10	1	-1E+10	1	-1E+10	1	-1E+10	1	-1E+10	1	-1E+10	1
4902549	85	C	12/19/2022	01:06	-133.446	47.458	0	91.90	0	7.8810	0	32.4620	0	25.300	0	91.113	0	246.3	4	84.0	4	-1E+10	1	-1E+10	1	-1E+10	1	-1E+10	1	-1E+10	1	-1E+10	1
4902549	85	C	12/19/2022	01:06	-133.446	47.458	0	93.10	0	7.8360	0	32.4760	0	25.317	0	92.303	0	245.4	4	83.7	4	-1E+10	1	-1E+10	1	-1E+10	1	-1E+10	1	-1E+10	1	-1E+10	1
4902549	85	C	12/19/2022	01:06	-133.446	47.458	0	93.90	0	7.8460	0	32.4810	0	25.320	0	93.095	0	244.8	4	83.5	4	-1E+10	1	-1E+10	1	-1E+10	1	-1E+10	1	-1E+10	1	-1E+10	1
4902549	85	C	12/19/2022	01:06	-133.446	47.458	0	95.10	0	7.8560	0	32.4880	0	25.324	0	94.285	0	244.1	4	83.3	4	-1E+10	1	-1E+10	1	-1E+10	1	-1E+10	1	-1E+10	1	-1E+10	1
4902549	85	C	12/19/2022	01:06	-133.446	47.458	0	95.90	0	7.8420	0	32.4900	0	25.327	0	95.078	0	243.7	4	83.1	4	-1E+10	1	-1E+10	1	-1E+10	1	-1E+10	1	-1E+10	1	-1E+10	1
4902549	85	C	12/19/2022	01:06	-133.446	47.458	0	96.90	0	7.8220	0	32.4960	0	25.335	0	96.069	0	243.2	4	82.9	4	-1E+10	1	-1E+10	1	-1E+10	1	-1E+10	1	-1E+10	1	-1E+10	1
4902549	85	C	12/19/2022	01:06	-133.446	47.458	0	97.80	0	7.7570	0	32.5100	0	25.355	0	96.961	0	243.1	4	82.8	4	-1E+10	1	-1E+10	1	-1E+10	1	-1E+10	1	-1E+10	1	-1E+10	1
4902549	85	C	12/19/2022	01:06	-133.446	47.458	0	98.80	0	7.6550	0	32.5250	0	25.381	0	97.952	0	243.2	4	82.6	4	-1E+10	1	-1E+10	1	-1E+10	1	-1E+10	1	-1E+10	1	-1E+10	1
4902549	85	C	12/19/2022	01:06	-133.446	47.458	0	99.80	0	7.6550	0	32.5300	0	25.385	0	98.944	0	242.6	4	82.4	4	-1E+10	1	-1E+10	1	-1E+10	1	-1E+10	1	-1E+10	1	-1E+10	1
4902549	85	C	12/19/2022	01:06	-133.446	47.458	0	100.80	0	7.5970	0	32.5380	0	25.400	0	99.935	0	242.0	4	82.1	4	-1E+10	1	-1E+10	1	-1E+10	1	-1E+10	1	-1E+10	1	-1E+10	1
4902549	85	C	12/19/2022	01:06	-133.446	47.458	0	101.70	0	7.5790	0	32.5400	0	25.404	0	100.827	0	241.0	4	81.7	4	-1E+10	1	-1E+10	1	-1E+10	1	-1E+10	1	-1E+10	1	-1E+10	1
4902549	85	C	12/19/2022	01:06	-133.446	47.458	0	102.90	0	7.5720	0	32.5430	0	25.407	0	102.016	0	239.2	4	81.1	4	-1E+10	1	-1E+10	1	-1E+10	1	-1E+10	1	-1E+10	1	-1E+10	1
4902549	85	C	12/19/2022	01:06	-133.446	47.458	0	104.30	0	7.5660	0	32.5520	0	25.415	0	103.404	0	236.9	4	80.3	4	-1E+10	1	-1E+10	1	-1E+10	1	-1E+10	1	-1E+10	1	-1E+10	1
4902549	85	C	12/19/2022	01:06	-133.446	47.458	0	105.20	0	7.5600	0	32.5760	0	25.435	0	104.296	0	235.4	4	79.8	4	-1E+10	1	-1E+10	1	-1E+10	1	-1E+10	1	-1E+10	1	-1E+10	1
4902549	85	C	12/19/2022	01:06	-133.446	47.458	0	105.90	0	7.5580	0	32.5840	0	25.441	0	104.990	0	234.2	4	79.4	4	-1E+10	1	-1E+10	1	-1E+10	1	-1E+10	1	-1E+10	1	-1E+10	1
4902549	85	C	12/19/2022	01:06	-133.446	47.458	0	106.90	0	7.5320	0	32.6050	0	25.461	0	105.981	0	232.9	4	78.9	4	-1E+10	1	-1E+10	1	-1E+10	1	-1E+10	1	-1E+10	1	-1E+10	1
4902549	85	C	12/19/2022	01:06	-133.446	47.458	0	108.10	0	7.5190	0	32.6190	0	25.474	0	107.170	0	231.0	4	78.3	4	-1E+10	1	-1E+10	1	-1E+10	1	-1E+10	1	-1E+10	1	-1E+10	1
4902549	85	C	12/19/2022	01:06	-133.446	47.458	0	108.80	0	7.5180	0	32.6300	0	25.483	0	107.864	0	229.8	4	77.9	4	-1E+10	1	-1E+10	1	-1E+10	1	-1E+10	1	-1E+10	1	-1E+10	1
4902549	85	C	12/19/2022	01:06	-133.446	47.458	0	109.80	0	7.4930	0	32.6520	0	25.504	0	108.855	0	228.1	4	77.3	4	-1E+10	1	-1E+10	1	-1E+10	1	-1E+10	1	-1E+10	1	-1E+10	1
4902549	85	C	12/19/2022	01:06	-133.446	47.458	0	110.90	0	7.4510	0	32.6880	0	25.538	0	109.945	0	226.7	4	76.7	4	-1E+10	1	-1E+10	1	-1E+10	1	-1E+10	1	-1E+10	1	-1E+10	1
4902549	85	C	12/19/2022	01:06	-133.446	47.458	0	112.00	0	7.4280	0	32.7110	0	25.559	0	111.036	0	225.4	4	76.3	4	-1E+10	1	-1E+10	1	-1E+10	1	-1E+10	1	-1E+10	1	-1E+10	1
4902549	85	C	12/19/2022	01:06	-133.446	47.458	0	113.20	0	7.4000	0	32.7640	0	25.605	0	112.225	0	224.3	4	75.9	4	-1E+10	1	-1E+10	1	-1E+10	1	-1E+10	1	-1E+10	1	-1E+10	1
4902549	85	C	12/19/2022	01:06	-133.446	47.458	0	114.10	0	7.3830	0	32.7800	0	25.620	0	113.117	0	223.3	4	75.5	4	-1E+10	1	-1E+10	1	-1E+10	1	-1E+10	1	-1E+10	1	-1E+10	1
4902549	85	C	12/19/2022	01:06	-133.446	47.458	0	115.10	0	7.3580	0	32.8140	0	25.650	0	114.108	0	222.1	4	75.1	4	-1E+10	1	-1E+10	1	-1E+10	1	-1E+10	1	-1E+10	1	-1E+10	1
4902549	85	C	12/19/2022	01:06	-133.446	47.458	0	116.00	0	7.3490	0	32.8260	0	25.661	0	115.000	0	221.3	4	74.8	4	-1E+10	1	-1E+10	1	-1E+10	1	-1E+10	1	-1E+10	1	-1E+10	1
4902549	85	C	12/19/2022	01:06	-133.446	47.458	0	116.90	0	7.3310	0	32.8410	0	25.675	0	115.892	0	220.6	4	74.6	4	-1E+10	1	-1E+10	1	-1E+10	1	-1E+10	1	-1E+10	1	-1E+10	1
4902549	85	C	12/19/2022	01:06	-133.446	47.458	0	117.90	0	7.3120	0	32.8670	0	25.698	0	116.883	0	220.1	4	74.4	4	-1E+10	1	-1E+10	1	-1E+10	1	-1E+10	1	-1E+10	1	-1E+10	1
4902549	85	C	12/19/2022	01:06	-133.446	47.458	0	119.10	0	7.2970	0	32.8840	0	25.714	0	118.072	0	219.6	4	74.2	4	-1E+10	1	-1E+10	1	-1E+10	1	-1E+10	1	-1E+10	1	-1E+10	1
4902549	85	C	12/19/2022	01:06	-133.446	47.458	0	119.90	0	7.2910	0	32.8900	0	25.719	0	118.865	0	219.2	4	74.0	4	-1E+10	1	-1E+10	1	-1E+10	1	-1E+10	1	-1E+10	1	-1E+10	1
4902549	85	C	12/19/2022	01:06	-133.446	47.458	0	121.10	0	7.2800	0	32.8990	0	25.728	0	120.055	0	218.5	4	73.8	4	-1E+10	1	-1E+10	1	-1E+10	1	-1E+10	1	-1E+10	1	-1E+10	1
4902549	85	C	12/19/2022	01:06	-133.446	47.458	0	121.90	0	7.2720	0	32.9080	0	25.736	0	120.847	0	217.8	4	73.6	4	-1E+10	1	-1E+10	1	-1E+10	1	-1E+10	1	-1E+10	1	-1E+10	1
4902549	85	C	12/19/2022	01:06	-133.446	47.458	0	123.20	0	7.2660	0	32.9140	0	25.741	0	122.136	0	216.8	4	73.2	4	-1E+10	1	-1E+10	1	-1E+10	1	-1E+10	1	-1E+10	1	-1E+10	1
4902549	85	C	12/19/2022	01:06	-133.446	47.458	0	124.10	0	7.2480	0	32.9380	0	25.763	0	123.028	0	216.2	4	73.0	4	-1E+10	1	-1E+10	1	-1E+10	1	-1E+10	1	-1E+10	1	-1E+10	1
4902549	85	C	12/19/2022	01:06	-133.446	47.458	0	124.80	0	7.2480	0	32.9440	0	25.768	0	123.721	0	215.8	4	72.8	4	-1E+10	1	-1E+10	1	-1E+10	1	-1E+10	1	-1E+10	1	-1E+10	1
4902549	85	C	12/19/2022	01:06	-133.446	47.458	0	125.80	0	7.2510	0	32.9480	0	25.770	0	124.713	0	215.1	4	72.6	4	-1E+10	1	-1E+10	1	-1E+10	1	-1E+10	1	-1E+10	1	-1E+10	1
4902549	85	C	12/19/2022	01:06	-133.446	47.458	0	126.90	0	7.2540	0	32.9480	0	25.770	0	125.803	0	214.1	4	72.3	4	-1E+10	1	-1E+10	1	-1E+10	1	-1E+10	1	-1E+10	1	-1E+10	1
4902549	85	C	12/19/2022	01:06	-133.446	47.458	0	128.30	0	7.2520	0	32.9480	0	25.770	0	127.190	0	212.6	4	71.8	4	-1E+10	1	-1E+10	1	-1E+10	1	-1E+10	1	-1E+10	1	-1E+10	1
4902549	85	C	12/19/2022	01:06	-133.446	47.458	0	128.90	0	7.2470	0	32.9500	0	25.772	0	127.785	0	211.7	4	71.5	4	-1E+10	1	-1E+10	1	-1E+10	1	-1E+10	1	-1E+10	1	-1E+10	1
4902549	85	C	12/19/2022	01:06	-133.446	47.458	0	129.90	0	7.2160	0	32.9780	0	25.799	0	128.776	0	210.4	4	71.0	4	-1E+10	1	-1E+10	1	-1E+10	1	-1E+10	1	-1E+10	1	-1E+10	1
4902549	85	C	12/19/2022	01:06	-133.446	47.458	0	130.90	0	7.1660	0	33.0260	0	25.843	0	129.767	0	209.2	4	70.5	4	-1E+10	1	-1E+10	1	-1E+10	1	-1E+10	1	-1E+10	1	-1E+10	1
4902549	85	C	12/19/2022	01:06	-133.446	47.458	0	131.90	0	7.1490	0	33.0520	0	25.866	0	130.758	0	207.8	4	70.0	4	-1E+10	1	-1E+10	1	-1E+10	1	-1E+10	1	-1E+10	1	-1E+10	1
4902549	85	C	12/19/2022	01:06	-133.446	47.458	0	133.00	0	7.1420	0	33.0730	0	25.884	0	131.848	0	206.5	4	69.6	4	-1E+10	1	-1E+10	1	-1E+10	1	-1E+10	1	-1E+10	1	-1E+10	1
4902549	85	C	12/19/2022	01:06	-133.446	47.458	0	134.10	0	7.1420	0	33.0750	0	25.885	0	132.938	0	204.9	4	69.1	4	-1E+10	1	-1E+10	1	-1E+10	1	-1E+10	1	-1E+10	1	-1E+10	1
4902549	85	C	12/19/2022	01:06	-133.446	47.458	0	134.90	0	7.1350	0	33.0930	0	25.900	0	133.731	0	203.7	4	68.7	4	-1E+10	1	-1E+10	1	-1E+10	1	-1E+10	1	-1E+10	1	-1E+10	1
4902549	85	C	12/19/2022	01:06	-133.446	47.458	0	135.80	0	7.1170	0	33.1520	0	25.949	0	134.623	0	202.7	4	68.3	4	-1E+10	1	-1E+10	1	-1E+10	1	-1E+10	1	-1E+10	1	-1E+10	1
4902549	85	C	12/19/2022	01:06	-133.446	47.458	0	137.00	0	7.1140	0	33.1680	0	25.962	0	135.812	0	201.4	4	67.9	4	-1E+10	1	-1E+10	1	-1E+10	1	-1E+10	1	-1E+10	1	-1E+10	1
4902549	85	C	12/19/2022	01:06	-133.446	47.458	0	138.10	0	7.1140	0	33.1920	0	25.981	0	136.902	0	200.2	4	67.5	4	-1E+10	1	-1E+10	1	-1E+10	1	-1E+10	1	-1E+10	1	-1E+10	1
4902549	85	C	12/19/2022	01:06	-133.446	47.458	0	139.00	0	7.1060	0	33.2000	0	25.989	0	137.794	0	199.4	4	67.2	4	-1E+10	1	-1E+10	1	-1E+10	1	-1E+10	1	-1E+10	1	-1E+10	1
4902549	85	C	12/19/2022	01:06	-133.446	47.458	0	139.90	0	7.0940	0	33.2200	0	26.006	0	138.686	0	198.6	4	67.0	4	-1E+10	1	-1E+10	1	-1E+10	1	-1E+10	1	-1E+10	1	-1E+10	1
4902549	85	C	12/19/2022	01:06	-133.446	47.458	0	141.10	0	7.0810	0	33.2430	0	26.026	0	139.875	0	197.6	4	66.6	4	-1E+10	1	-1E+10	1	-1E+10	1	-1E+10	1	-1E+10	1	-1E+10	1
4902549	85	C	12/19/2022	01:06	-133.446	47.458	0	142.10	0	7.0510	0	33.2710	0	26.052	0	140.866	0	196.6	4	66.2	4	-1E+10	1	-1E+10	1	-1E+10	1	-1E+10	1	-1E+10	1	-1E+10	1
4902549	85	C	12/19/2022	01:06	-133.446	47.458	0	142.90	0	7.0390	0	33.2700	0	26.053	0	141.659	0	195.5	4	65.8	4	-1E+10	1	-1E+10	1	-1E+10	1	-1E+10	1	-1E+10	1	-1E+10	1
4902549	85	C	12/19/2022	01:06	-133.446	47.458	0	143.80	0	7.0050	0	33.3000	0	26.081	0	142.551	0	194.3	4	65.4	4	-1E+10	1	-1E+10	1	-1E+10	1	-1E+10	1	-1E+10	1	-1E+10	1
4902549	85	C	12/19/2022	01:06	-133.446	47.458	0	144.80	0	6.9810	0	33.3350	0	26.112	0	143.542	0	193.2	4	65.0	4	-1E+10	1	-1E+10	1	-1E+10	1	-1E+10	1	-1E+10	1	-1E+10	1
4902549	85	C	12/19/2022	01:06	-133.446	47.458	0	145.90	0	6.9710	0	33.3650	0	26.137	0	144.632	0	192.2	4	64.7	4	-1E+10	1	-1E+10	1	-1E+10	1	-1E+10	1	-1E+10	1	-1E+10	1
4902549	85	C	12/19/2022	01:06	-133.446	47.458	0	146.90	0	6.9750	0	33.3840	0	26.151	0	145.623	0	190.9	4	64.3	4	-1E+10	1	-1E+10	1	-1E+10	1	-1E+10	1	-1E+10	1	-1E+10	1
4902549	85	C	12/19/2022	01:06	-133.446	47.458	0	148.00	0	6.9650	0	33.4070	0	26.171	0	146.713	0	189.6	4	63.8	4	-1E+10	1	-1E+10	1	-1E+10	1	-1E+10	1	-1E+10	1	-1E+10	1
4902549	85	C	12/19/2022	01:06	-133.446	47.458	0	148.70	0	6.9540	0	33.4450	0	26.202	0	147.406	0	188.9	4	63.6	4	-1E+10	1	-1E+10	1	-1E+10	1	-1E+10	1	-1E+10	1	-1E+10	1
4902549	85	C	12/19/2022	01:06	-133.446	47.458	0	149.80	0	6.9510	0	33.4750	0	26.226	0	148.496	0	188.1	4	63.3	4	-1E+10	1	-1E+10	1	-1E+10	1	-1E+10	1	-1E+10	1	-1E+10	1
4902549	85	C	12/19/2022	01:06	-133.446	47.458	0	151.00	0	6.9380	0	33.4950	0	26.244	0	149.686	0	187.2	4	63.0	4	-1E+10	1	-1E+10	1	-1E+10	1	-1E+10	1	-1E+10	1	-1E+10	1
4902549	85	C	12/19/2022	01:06	-133.446	47.458	0	151.80	0	6.9350	0	33.5000	0	26.248	0	150.478	0	186.5	4	62.8	4	-1E+10	1	-1E+10	1	-1E+10	1	-1E+10	1	-1E+10	1	-1E+10	1
4902549	85	C	12/19/2022	01:06	-133.446	47.458	0	152.70	0	6.9330	0	33.5010	0	26.249	0	151.370	0	185.6	4	62.5	4	-1E+10	1	-1E+10	1	-1E+10	1	-1E+10	1	-1E+10	1	-1E+10	1
4902549	85	C	12/19/2022	01:06	-133.446	47.458	0	153.90	0	6.9380	0	33.5100	0	26.256	0	152.559	0	184.3	4	62.0	4	-1E+10	1	-1E+10	1	-1E+10	1	-1E+10	1	-1E+10	1	-1E+10	1
4902549	85	C	12/19/2022	01:06	-133.446	47.458	0	155.10	0	6.9490	0	33.5250	0	26.266	0	153.748	0	183.0	4	61.6	4	-1E+10	1	-1E+10	1	-1E+10	1	-1E+10	1	-1E+10	1	-1E+10	1
4902549	85	C	12/19/2022	01:06	-133.446	47.458	0	155.90	0	6.9570	0	33.5360	0	26.274	0	154.541	0	182.3	4	61.4	4	-1E+10	1	-1E+10	1	-1E+10	1	-1E+10	1	-1E+10	1	-1E+10	1
4902549	85	C	12/19/2022	01:06	-133.446	47.458	0	156.80	0	6.9560	0	33.5440	0	26.280	0	155.433	0	181.6	4	61.2	4	-1E+10	1	-1E+10	1	-1E+10	1	-1E+10	1	-1E+10	1	-1E+10	1
4902549	85	C	12/19/2022	01:06	-133.446	47.458	0	158.00	0	6.9670	0	33.5550	0	26.287	0	156.622	0	180.7	4	60.9	4	-1E+10	1	-1E+10	1	-1E+10	1	-1E+10	1	-1E+10	1	-1E+10	1
4902549	85	C	12/19/2022	01:06	-133.446	47.458	0	159.20	0	6.9690	0	33.5630	0	26.293	0	157.811	0	179.9	4	60.6	4	-1E+10	1	-1E+10	1	-1E+10	1	-1E+10	1	-1E+10	1	-1E+10	1
4902549	85	C	12/19/2022	01:06	-133.446	47.458	0	160.00	0	6.9680	0	33.5640	0	26.294	0	158.604	0	179.3	4	60.4	4	-1E+10	1	-1E+10	1	-1E+10	1	-1E+10	1	-1E+10	1	-1E+10	1
4902549	85	C	12/19/2022	01:06	-133.446	47.458	0	160.80	0	6.9660	0	33.5670	0	26.297	0	159.397	0	178.7	4	60.2	4	-1E+10	1	-1E+10	1	-1E+10	1	-1E+10	1	-1E+10	1	-1E+10	1
4902549	85	C	12/19/2022	01:06	-133.446	47.458	0	161.60	0	6.9650	0	33.5680	0	26.298	0	160.189	0	178.0	4	60.0	4	-1E+10	1	-1E+10	1	-1E+10	1	-1E+10	1	-1E+10	1	-1E+10	1
4902549	85	C	12/19/2022	01:06	-133.446	47.458	0	162.90	0	6.9490	0	33.5840	0	26.313	0	161.477	0	177.1	4	59.6	4	-1E+10	1	-1E+10	1	-1E+10	1	-1E+10	1	-1E+10	1	-1E+10	1
4902549	85	C	12/19/2022	01:06	-133.446	47.458	0	164.20	0	6.9300	0	33.5970	0	26.325	0	162.765	0	175.6	4	59.1	4	-1E+10	1	-1E+10	1	-1E+10	1	-1E+10	1	-1E+10	1	-1E+10	1
4902549	85	C	12/19/2022	01:06	-133.446	47.458	0	165.00	0	6.8700	0	33.6140	0	26.347	0	163.558	0	174.4	4	58.7	4	-1E+10	1	-1E+10	1	-1E+10	1	-1E+10	1	-1E+10	1	-1E+10	1
4902549	85	C	12/19/2022	01:06	-133.446	47.458	0	165.90	0	6.8620	0	33.6220	0	26.354	0	164.450	0	172.7	4	58.1	4	-1E+10	1	-1E+10	1	-1E+10	1	-1E+10	1	-1E+10	1	-1E+10	1
4902549	85	C	12/19/2022	01:06	-133.446	47.458	0	166.80	0	6.8840	0	33.6440	0	26.369	0	165.342	0	171.1	4	57.6	4	-1E+10	1	-1E+10	1	-1E+10	1	-1E+10	1	-1E+10	1	-1E+10	1
4902549	85	C	12/19/2022	01:06	-133.446	47.458	0	167.60	0	6.9680	0	33.6670	0	26.375	0	166.134	0	170.0	4	57.3	4	-1E+10	1	-1E+10	1	-1E+10	1	-1E+10	1	-1E+10	1	-1E+10	1
4902549	85	C	12/19/2022	01:06	-133.446	47.458	0	168.90	0	6.9500	0	33.6760	0	26.385	0	167.423	0	169.2	4	57.0	4	-1E+10	1	-1E+10	1	-1E+10	1	-1E+10	1	-1E+10	1	-1E+10	1
4902549	85	C	12/19/2022	01:06	-133.446	47.458	0	170.30	0	6.9330	0	33.6800	0	26.390	0	168.810	0	168.2	4	56.7	4	-1E+10	1	-1E+10	1	-1E+10	1	-1E+10	1	-1E+10	1	-1E+10	1
4902549	85	C	12/19/2022	01:06	-133.446	47.458	0	171.20	0	6.9350	0	33.6830	0	26.393	0	169.701	0	167.4	4	56.4	4	-1E+10	1	-1E+10	1	-1E+10	1	-1E+10	1	-1E+10	1	-1E+10	1
4902549	85	C	12/19/2022	01:06	-133.446	47.458	0	172.10	0	6.9260	0	33.6830	0	26.394	0	170.593	0	166.5	4	56.1	4	-1E+10	1	-1E+10	1	-1E+10	1	-1E+10	1	-1E+10	1	-1E+10	1
4902549	85	C	12/19/2022	01:06	-133.446	47.458	0	172.90	0	6.8960	0	33.6810	0	26.396	0	171.386	0	165.2	4	55.6	4	-1E+10	1	-1E+10	1	-1E+10	1	-1E+10	1	-1E+10	1	-1E+10	1
4902549	85	C	12/19/2022	01:06	-133.446	47.458	0	173.80	0	6.8850	0	33.6830	0	26.399	0	172.278	0	163.7	4	55.1	4	-1E+10	1	-1E+10	1	-1E+10	1	-1E+10	1	-1E+10	1	-1E+10	1
4902549	85	C	12/19/2022	01:06	-133.446	47.458	0	174.60	0	6.9190	0	33.6940	0	26.403	0	173.070	0	162.2	4	54.6	4	-1E+10	1	-1E+10	1	-1E+10	1	-1E+10	1	-1E+10	1	-1E+10	1
4902549	85	C	12/19/2022	01:06	-133.446	47.458	0	175.90	0	6.9470	0	33.7070	0	26.410	0	174.358	0	160.5	4	54.1	4	-1E+10	1	-1E+10	1	-1E+10	1	-1E+10	1	-1E+10	1	-1E+10	1
4902549	85	C	12/19/2022	01:06	-133.446	47.458	0	177.20	0	6.9750	0	33.7190	0	26.416	0	175.646	0	159.8	4	53.9	4	-1E+10	1	-1E+10	1	-1E+10	1	-1E+10	1	-1E+10	1	-1E+10	1
4902549	85	C	12/19/2022	01:06	-133.446	47.458	0	178.10	0	6.9820	0	33.7230	0	26.418	0	176.538	0	159.6	4	53.9	4	-1E+10	1	-1E+10	1	-1E+10	1	-1E+10	1	-1E+10	1	-1E+10	1
4902549	85	C	12/19/2022	01:06	-133.446	47.458	0	179.00	0	6.9810	0	33.7230	0	26.418	0	177.430	0	159.6	4	53.9	4	-1E+10	1	-1E+10	1	-1E+10	1	-1E+10	1	-1E+10	1	-1E+10	1
4902549	85	C	12/19/2022	01:06	-133.446	47.458	0	179.90	0	6.9870	0	33.7300	0	26.423	0	178.322	0	159.9	4	54.0	4	-1E+10	1	-1E+10	1	-1E+10	1	-1E+10	1	-1E+10	1	-1E+10	1
4902549	85	C	12/19/2022	01:06	-133.446	47.458	0	180.70	0	6.9780	0	33.7400	0	26.432	0	179.114	0	161.1	4	54.4	4	-1E+10	1	-1E+10	1	-1E+10	1	-1E+10	1	-1E+10	1	-1E+10	1
4902549	85	C	12/19/2022	01:06	-133.446	47.458	0	181.80	0	6.9090	0	33.7540	0	26.452	0	180.204	0	162.2	4	54.7	4	-1E+10	1	-1E+10	1	-1E+10	1	-1E+10	1	-1E+10	1	-1E+10	1
4902549	85	C	12/19/2022	01:06	-133.446	47.458	0	182.90	0	6.8830	0	33.7530	0	26.455	0	181.294	0	161.9	4	54.5	4	-1E+10	1	-1E+10	1	-1E+10	1	-1E+10	1	-1E+10	1	-1E+10	1
4902549	85	C	12/19/2022	01:06	-133.446	47.458	0	184.20	0	6.8550	0	33.7580	0	26.463	0	182.582	0	161.3	4	54.3	4	-1E+10	1	-1E+10	1	-1E+10	1	-1E+10	1	-1E+10	1	-1E+10	1
4902549	85	C	12/19/2022	01:06	-133.446	47.458	0	185.10	0	6.8460	0	33.7600	0	26.465	0	183.474	0	160.6	4	54.0	4	-1E+10	1	-1E+10	1	-1E+10	1	-1E+10	1	-1E+10	1	-1E+10	1
4902549	85	C	12/19/2022	01:06	-133.446	47.458	0	185.90	0	6.8310	0	33.7620	0	26.469	0	184.266	0	159.9	4	53.8	4	-1E+10	1	-1E+10	1	-1E+10	1	-1E+10	1	-1E+10	1	-1E+10	1
4902549	85	C	12/19/2022	01:06	-133.446	47.458	0	186.80	0	6.8230	0	33.7680	0	26.475	0	185.158	0	159.5	4	53.7	4	-1E+10	1	-1E+10	1	-1E+10	1	-1E+10	1	-1E+10	1	-1E+10	1
4902549	85	C	12/19/2022	01:06	-133.446	47.458	0	187.60	0	6.8080	0	33.7680	0	26.477	0	185.951	0	159.1	4	53.5	4	-1E+10	1	-1E+10	1	-1E+10	1	-1E+10	1	-1E+10	1	-1E+10	1
4902549	85	C	12/19/2022	01:06	-133.446	47.458	0	188.90	0	6.7610	0	33.7720	0	26.486	0	187.239	0	158.2	4	53.1	4	-1E+10	1	-1E+10	1	-1E+10	1	-1E+10	1	-1E+10	1	-1E+10	1
4902549	85	C	12/19/2022	01:06	-133.446	47.458	0	190.20	0	6.7490	0	33.7730	0	26.489	0	188.526	0	157.1	4	52.7	4	-1E+10	1	-1E+10	1	-1E+10	1	-1E+10	1	-1E+10	1	-1E+10	1
4902549	85	C	12/19/2022	01:06	-133.446	47.458	0	191.10	0	6.7520	0	33.7720	0	26.487	0	189.418	0	156.1	4	52.4	4	-1E+10	1	-1E+10	1	-1E+10	1	-1E+10	1	-1E+10	1	-1E+10	1
4902549	85	C	12/19/2022	01:06	-133.446	47.458	0	192.00	0	6.7530	0	33.7720	0	26.487	0	190.310	0	155.1	4	52.1	4	-1E+10	1	-1E+10	1	-1E+10	1	-1E+10	1	-1E+10	1	-1E+10	1
4902549	85	C	12/19/2022	01:06	-133.446	47.458	0	192.90	0	6.7140	0	33.7800	0	26.499	0	191.201	0	154.2	4	51.7	4	-1E+10	1	-1E+10	1	-1E+10	1	-1E+10	1	-1E+10	1	-1E+10	1
4902549	85	C	12/19/2022	01:06	-133.446	47.458	0	193.80	0	6.6610	0	33.7760	0	26.503	0	192.093	0	153.0	4	51.3	4	-1E+10	1	-1E+10	1	-1E+10	1	-1E+10	1	-1E+10	1	-1E+10	1
4902549	85	C	12/19/2022	01:06	-133.446	47.458	0	194.60	0	6.6420	0	33.7740	0	26.504	0	192.886	0	151.5	4	50.8	4	-1E+10	1	-1E+10	1	-1E+10	1	-1E+10	1	-1E+10	1	-1E+10	1
4902549	85	C	12/19/2022	01:06	-133.446	47.458	0	195.90	0	6.6170	0	33.7760	0	26.509	0	194.174	0	148.9	4	49.9	4	-1E+10	1	-1E+10	1	-1E+10	1	-1E+10	1	-1E+10	1	-1E+10	1
4902549	85	C	12/19/2022	01:06	-133.446	47.458	0	197.30	0	6.6260	0	33.7830	0	26.513	0	195.561	0	146.3	4	49.0	4	-1E+10	1	-1E+10	1	-1E+10	1	-1E+10	1	-1E+10	1	-1E+10	1
4902549	85	C	12/19/2022	01:06	-133.446	47.458	0	198.20	0	6.6150	0	33.7860	0	26.517	0	196.452	0	145.0	4	48.6	4	-1E+10	1	-1E+10	1	-1E+10	1	-1E+10	1	-1E+10	1	-1E+10	1
4902549	85	C	12/19/2022	01:06	-133.446	47.458	0	199.00	0	6.6040	0	33.7870	0	26.519	0	197.245	0	143.5	4	48.0	4	-1E+10	1	-1E+10	1	-1E+10	1	-1E+10	1	-1E+10	1	-1E+10	1
4902549	85	C	12/19/2022	01:06	-133.446	47.458	0	199.90	0	6.6230	0	33.7860	0	26.516	0	198.136	0	142.1	4	47.6	4	-1E+10	1	-1E+10	1	-1E+10	1	-1E+10	1	-1E+10	1	-1E+10	1
4902549	85	C	12/19/2022	01:06	-133.446	47.458	0	200.90	0	6.6190	0	33.7960	0	26.524	0	199.127	0	140.8	4	47.2	4	-1E+10	1	-1E+10	1	-1E+10	1	-1E+10	1	-1E+10	1	-1E+10	1
4902549	85	C	12/19/2022	01:06	-133.446	47.458	0	201.80	0	6.6210	0	33.7980	0	26.525	0	200.019	0	139.9	4	46.8	4	-1E+10	1	-1E+10	1	-1E+10	1	-1E+10	1	-1E+10	1	-1E+10	1
4902549	85	C	12/19/2022	01:06	-133.446	47.458	0	202.70	0	6.6260	0	33.8010	0	26.527	0	200.910	0	139.0	4	46.6	4	-1E+10	1	-1E+10	1	-1E+10	1	-1E+10	1	-1E+10	1	-1E+10	1
4902549	85	C	12/19/2022	01:06	-133.446	47.458	0	203.70	0	6.6200	0	33.8020	0	26.529	0	201.901	0	138.2	4	46.3	4	-1E+10	1	-1E+10	1	-1E+10	1	-1E+10	1	-1E+10	1	-1E+10	1
4902549	85	C	12/19/2022	01:06	-133.446	47.458	0	204.60	0	6.6000	0	33.8040	0	26.533	0	202.793	0	137.4	4	46.0	4	-1E+10	1	-1E+10	1	-1E+10	1	-1E+10	1	-1E+10	1	-1E+10	1
4902549	85	C	12/19/2022	01:06	-133.446	47.458	0	205.60	0	6.5790	0	33.8030	0	26.535	0	203.783	0	136.3	4	45.6	4	-1E+10	1	-1E+10	1	-1E+10	1	-1E+10	1	-1E+10	1	-1E+10	1
4902549	85	C	12/19/2022	01:06	-133.446	47.458	0	206.50	0	6.5720	0	33.8060	0	26.538	0	204.675	0	135.5	4	45.3	4	-1E+10	1	-1E+10	1	-1E+10	1	-1E+10	1	-1E+10	1	-1E+10	1
4902549	85	C	12/19/2022	01:06	-133.446	47.458	0	207.50	0	6.5830	0	33.8110	0	26.541	0	205.666	0	135.0	4	45.2	4	-1E+10	1	-1E+10	1	-1E+10	1	-1E+10	1	-1E+10	1	-1E+10	1
4902549	85	C	12/19/2022	01:06	-133.446	47.458	0	208.90	0	6.5630	0	33.8150	0	26.547	0	207.053	0	134.4	4	45.0	4	-1E+10	1	-1E+10	1	-1E+10	1	-1E+10	1	-1E+10	1	-1E+10	1
4902549	85	C	12/19/2022	01:06	-133.446	47.458	0	210.40	0	6.5540	0	33.8160	0	26.549	0	208.539	0	133.9	4	44.8	4	-1E+10	1	-1E+10	1	-1E+10	1	-1E+10	1	-1E+10	1	-1E+10	1
4902549	85	C	12/19/2022	01:06	-133.446	47.458	0	211.40	0	6.5530	0	33.8160	0	26.549	0	209.529	0	133.5	4	44.6	4	-1E+10	1	-1E+10	1	-1E+10	1	-1E+10	1	-1E+10	1	-1E+10	1
4902549	85	C	12/19/2022	01:06	-133.446	47.458	0	213.00	0	6.5560	0	33.8170	0	26.549	0	211.114	0	132.8	4	44.4	4	-1E+10	1	-1E+10	1	-1E+10	1	-1E+10	1	-1E+10	1	-1E+10	1
4902549	85	C	12/19/2022	01:06	-133.446	47.458	0	214.40	0	6.5570	0	33.8180	0	26.550	0	212.501	0	132.3	4	44.2	4	-1E+10	1	-1E+10	1	-1E+10	1	-1E+10	1	-1E+10	1	-1E+10	1
4902549	85	C	12/19/2022	01:06	-133.446	47.458	0	215.40	0	6.5530	0	33.8190	0	26.551	0	213.492	0	131.9	4	44.1	4	-1E+10	1	-1E+10	1	-1E+10	1	-1E+10	1	-1E+10	1	-1E+10	1
4902549	85	C	12/19/2022	01:06	-133.446	47.458	0	216.40	0	6.5350	0	33.8180	0	26.553	0	214.482	0	131.5	4	43.9	4	-1E+10	1	-1E+10	1	-1E+10	1	-1E+10	1	-1E+10	1	-1E+10	1
4902549	85	C	12/19/2022	01:06	-133.446	47.458	0	217.40	0	6.5230	0	33.8180	0	26.554	0	215.473	0	130.9	4	43.8	4	-1E+10	1	-1E+10	1	-1E+10	1	-1E+10	1	-1E+10	1	-1E+10	1
4902549	85	C	12/19/2022	01:06	-133.446	47.458	0	218.30	0	6.5210	0	33.8200	0	26.556	0	216.365	0	130.4	4	43.6	4	-1E+10	1	-1E+10	1	-1E+10	1	-1E+10	1	-1E+10	1	-1E+10	1
4902549	85	C	12/19/2022	01:06	-133.446	47.458	0	219.40	0	6.5290	0	33.8220	0	26.557	0	217.454	0	129.8	4	43.4	4	-1E+10	1	-1E+10	1	-1E+10	1	-1E+10	1	-1E+10	1	-1E+10	1
4902549	85	C	12/19/2022	01:06	-133.446	47.458	0	220.40	0	6.5290	0	33.8220	0	26.557	0	218.445	0	129.3	4	43.2	4	-1E+10	1	-1E+10	1	-1E+10	1	-1E+10	1	-1E+10	1	-1E+10	1
4902549	85	C	12/19/2022	01:06	-133.446	47.458	0	221.30	0	6.5300	0	33.8240	0	26.558	0	219.336	0	128.7	4	43.0	4	-1E+10	1	-1E+10	1	-1E+10	1	-1E+10	1	-1E+10	1	-1E+10	1
4902549	85	C	12/19/2022	01:06	-133.446	47.458	0	222.80	0	6.5320	0	33.8290	0	26.562	0	220.822	0	128.3	4	42.9	4	-1E+10	1	-1E+10	1	-1E+10	1	-1E+10	1	-1E+10	1	-1E+10	1
4902549	85	C	12/19/2022	01:06	-133.446	47.458	0	224.10	0	6.5360	0	33.8320	0	26.564	0	222.110	0	128.3	4	42.9	4	-1E+10	1	-1E+10	1	-1E+10	1	-1E+10	1	-1E+10	1	-1E+10	1
4902549	85	C	12/19/2022	01:06	-133.446	47.458	0	224.80	0	6.5330	0	33.8330	0	26.565	0	222.803	0	128.6	4	43.0	4	-1E+10	1	-1E+10	1	-1E+10	1	-1E+10	1	-1E+10	1	-1E+10	1
4902549	85	C	12/19/2022	01:06	-133.446	47.458	0	226.00	0	6.4920	0	33.8380	0	26.574	0	223.992	0	129.1	4	43.1	4	-1E+10	1	-1E+10	1	-1E+10	1	-1E+10	1	-1E+10	1	-1E+10	1
4902549	85	C	12/19/2022	01:06	-133.446	47.458	0	227.20	0	6.4450	0	33.8280	0	26.572	0	225.181	0	129.6	4	43.2	4	-1E+10	1	-1E+10	1	-1E+10	1	-1E+10	1	-1E+10	1	-1E+10	1
4902549	85	C	12/19/2022	01:06	-133.446	47.458	0	228.00	0	6.4560	0	33.8320	0	26.574	0	225.973	0	129.9	4	43.3	4	-1E+10	1	-1E+10	1	-1E+10	1	-1E+10	1	-1E+10	1	-1E+10	1
4902549	85	C	12/19/2022	01:06	-133.446	47.458	0	228.80	0	6.4090	0	33.8260	0	26.576	0	226.766	0	130.0	4	43.3	4	-1E+10	1	-1E+10	1	-1E+10	1	-1E+10	1	-1E+10	1	-1E+10	1
4902549	85	C	12/19/2022	01:06	-133.446	47.458	0	230.00	0	6.3430	0	33.8210	0	26.580	0	227.954	0	129.9	4	43.2	4	-1E+10	1	-1E+10	1	-1E+10	1	-1E+10	1	-1E+10	1	-1E+10	1
4902549	85	C	12/19/2022	01:06	-133.446	47.458	0	231.20	0	6.3530	0	33.8220	0	26.580	0	229.143	0	129.6	4	43.1	4	-1E+10	1	-1E+10	1	-1E+10	1	-1E+10	1	-1E+10	1	-1E+10	1
4902549	85	C	12/19/2022	01:06	-133.446	47.458	0	232.00	0	6.3470	0	33.8210	0	26.580	0	229.935	0	129.4	4	43.1	4	-1E+10	1	-1E+10	1	-1E+10	1	-1E+10	1	-1E+10	1	-1E+10	1
4902549	85	C	12/19/2022	01:06	-133.446	47.458	0	232.90	0	6.3460	0	33.8210	0	26.580	0	230.827	0	129.2	4	43.0	4	-1E+10	1	-1E+10	1	-1E+10	1	-1E+10	1	-1E+10	1	-1E+10	1
4902549	85	C	12/19/2022	01:06	-133.446	47.458	0	233.70	0	6.3500	0	33.8240	0	26.582	0	231.619	0	129.2	4	43.0	4	-1E+10	1	-1E+10	1	-1E+10	1	-1E+10	1	-1E+10	1	-1E+10	1
4902549	85	C	12/19/2022	01:06	-133.446	47.458	0	234.90	0	6.2760	0	33.8190	0	26.587	0	232.808	0	128.9	4	42.8	4	-1E+10	1	-1E+10	1	-1E+10	1	-1E+10	1	-1E+10	1	-1E+10	1
4902549	85	C	12/19/2022	01:06	-133.446	47.458	0	236.10	0	6.1910	0	33.8140	0	26.594	0	233.997	0	128.0	4	42.4	4	-1E+10	1	-1E+10	1	-1E+10	1	-1E+10	1	-1E+10	1	-1E+10	1
4902549	85	C	12/19/2022	01:06	-133.446	47.458	0	237.00	0	6.1770	0	33.8120	0	26.594	0	234.888	0	126.9	4	42.1	4	-1E+10	1	-1E+10	1	-1E+10	1	-1E+10	1	-1E+10	1	-1E+10	1
4902549	85	C	12/19/2022	01:06	-133.446	47.458	0	237.80	0	6.1810	0	33.8060	0	26.589	0	235.681	0	125.8	4	41.7	4	-1E+10	1	-1E+10	1	-1E+10	1	-1E+10	1	-1E+10	1	-1E+10	1
4902549	85	C	12/19/2022	01:06	-133.446	47.458	0	239.00	0	6.1460	0	33.8100	0	26.597	0	236.869	0	123.8	4	41.0	4	-1E+10	1	-1E+10	1	-1E+10	1	-1E+10	1	-1E+10	1	-1E+10	1
4902549	85	C	12/19/2022	01:06	-133.446	47.458	0	240.30	0	6.1690	0	33.8130	0	26.596	0	238.157	0	121.9	4	40.4	4	-1E+10	1	-1E+10	1	-1E+10	1	-1E+10	1	-1E+10	1	-1E+10	1
4902549	85	C	12/19/2022	01:06	-133.446	47.458	0	241.10	0	6.1000	0	33.8170	0	26.608	0	238.949	0	120.8	4	40.0	4	-1E+10	1	-1E+10	1	-1E+10	1	-1E+10	1	-1E+10	1	-1E+10	1
4902549	85	C	12/19/2022	01:06	-133.446	47.458	0	241.90	0	6.1030	0	33.8170	0	26.608	0	239.742	0	119.3	4	39.5	4	-1E+10	1	-1E+10	1	-1E+10	1	-1E+10	1	-1E+10	1	-1E+10	1
4902549	85	C	12/19/2022	01:06	-133.446	47.458	0	242.80	0	6.1010	0	33.8170	0	26.608	0	240.633	0	117.8	4	39.0	4	-1E+10	1	-1E+10	1	-1E+10	1	-1E+10	1	-1E+10	1	-1E+10	1
4902549	85	C	12/19/2022	01:06	-133.446	47.458	0	243.60	0	6.1100	0	33.8190	0	26.608	0	241.425	0	116.1	4	38.4	4	-1E+10	1	-1E+10	1	-1E+10	1	-1E+10	1	-1E+10	1	-1E+10	1
4902549	85	C	12/19/2022	01:06	-133.446	47.458	0	244.90	0	6.1470	0	33.8290	0	26.612	0	242.713	0	114.1	4	37.8	4	-1E+10	1	-1E+10	1	-1E+10	1	-1E+10	1	-1E+10	1	-1E+10	1
4902549	85	C	12/19/2022	01:06	-133.446	47.458	0	246.20	0	6.2010	0	33.8510	0	26.622	0	244.001	0	112.8	4	37.4	4	-1E+10	1	-1E+10	1	-1E+10	1	-1E+10	1	-1E+10	1	-1E+10	1
4902549	85	C	12/19/2022	01:06	-133.446	47.458	0	247.10	0	6.1940	0	33.8490	0	26.621	0	244.892	0	112.3	4	37.2	4	-1E+10	1	-1E+10	1	-1E+10	1	-1E+10	1	-1E+10	1	-1E+10	1
4902549	85	C	12/19/2022	01:06	-133.446	47.458	0	247.90	0	6.1790	0	33.8500	0	26.624	0	245.685	0	111.6	4	37.0	4	-1E+10	1	-1E+10	1	-1E+10	1	-1E+10	1	-1E+10	1	-1E+10	1
4902549	85	C	12/19/2022	01:06	-133.446	47.458	0	248.80	0	6.1830	0	33.8510	0	26.624	0	246.576	0	110.9	4	36.8	4	-1E+10	1	-1E+10	1	-1E+10	1	-1E+10	1	-1E+10	1	-1E+10	1
4902549	85	C	12/19/2022	01:06	-133.446	47.458	0	249.60	0	6.1680	0	33.8560	0	26.630	0	247.368	0	110.4	4	36.6	4	-1E+10	1	-1E+10	1	-1E+10	1	-1E+10	1	-1E+10	1	-1E+10	1
4902549	85	C	12/19/2022	01:06	-133.446	47.458	0	250.90	0	6.1630	0	33.8570	0	26.632	0	248.656	0	109.8	4	36.4	4	-1E+10	1	-1E+10	1	-1E+10	1	-1E+10	1	-1E+10	1	-1E+10	1
4902549	85	C	12/19/2022	01:06	-133.446	47.458	0	252.20	0	6.1450	0	33.8610	0	26.637	0	249.944	0	109.4	4	36.3	4	-1E+10	1	-1E+10	1	-1E+10	1	-1E+10	1	-1E+10	1	-1E+10	1
4902549	85	C	12/19/2022	01:06	-133.446	47.458	0	253.10	0	6.1430	0	33.8610	0	26.638	0	250.835	0	109.1	4	36.2	4	-1E+10	1	-1E+10	1	-1E+10	1	-1E+10	1	-1E+10	1	-1E+10	1
4902549	85	C	12/19/2022	01:06	-133.446	47.458	0	253.90	0	6.1330	0	33.8600	0	26.638	0	251.627	0	108.8	4	36.0	4	-1E+10	1	-1E+10	1	-1E+10	1	-1E+10	1	-1E+10	1	-1E+10	1
4902549	85	C	12/19/2022	01:06	-133.446	47.458	0	254.80	0	6.1110	0	33.8610	0	26.642	0	252.519	0	108.4	4	35.9	4	-1E+10	1	-1E+10	1	-1E+10	1	-1E+10	1	-1E+10	1	-1E+10	1
4902549	85	C	12/19/2022	01:06	-133.446	47.458	0	256.00	0	6.1090	0	33.8620	0	26.643	0	253.707	0	108.0	4	35.8	4	-1E+10	1	-1E+10	1	-1E+10	1	-1E+10	1	-1E+10	1	-1E+10	1
4902549	85	C	12/19/2022	01:06	-133.446	47.458	0	257.30	0	6.0950	0	33.8630	0	26.645	0	254.995	0	107.6	4	35.6	4	-1E+10	1	-1E+10	1	-1E+10	1	-1E+10	1	-1E+10	1	-1E+10	1
4902549	85	C	12/19/2022	01:06	-133.446	47.458	0	258.20	0	6.0940	0	33.8640	0	26.646	0	255.886	0	107.3	4	35.5	4	-1E+10	1	-1E+10	1	-1E+10	1	-1E+10	1	-1E+10	1	-1E+10	1
4902549	85	C	12/19/2022	01:06	-133.446	47.458	0	259.00	0	6.0920	0	33.8640	0	26.646	0	256.678	0	107.1	4	35.4	4	-1E+10	1	-1E+10	1	-1E+10	1	-1E+10	1	-1E+10	1	-1E+10	1
4902549	85	C	12/19/2022	01:06	-133.446	47.458	0	259.80	0	6.0910	0	33.8640	0	26.647	0	257.471	0	106.8	4	35.3	4	-1E+10	1	-1E+10	1	-1E+10	1	-1E+10	1	-1E+10	1	-1E+10	1
4902549	85	C	12/19/2022	01:06	-133.446	47.458	0	260.70	0	6.0850	0	33.8640	0	26.647	0	258.362	0	106.5	4	35.2	4	-1E+10	1	-1E+10	1	-1E+10	1	-1E+10	1	-1E+10	1	-1E+10	1
4902549	85	C	12/19/2022	01:06	-133.446	47.458	0	261.90	0	6.0560	0	33.8640	0	26.651	0	259.551	0	106.0	4	35.0	4	-1E+10	1	-1E+10	1	-1E+10	1	-1E+10	1	-1E+10	1	-1E+10	1
4902549	85	C	12/19/2022	01:06	-133.446	47.458	0	263.20	0	6.0240	0	33.8660	0	26.657	0	260.838	0	105.6	4	34.9	4	-1E+10	1	-1E+10	1	-1E+10	1	-1E+10	1	-1E+10	1	-1E+10	1
4902549	85	C	12/19/2022	01:06	-133.446	47.458	0	264.00	0	6.0180	0	33.8670	0	26.658	0	261.630	0	105.4	4	34.8	4	-1E+10	1	-1E+10	1	-1E+10	1	-1E+10	1	-1E+10	1	-1E+10	1
4902549	85	C	12/19/2022	01:06	-133.446	47.458	0	264.90	0	6.0150	0	33.8660	0	26.658	0	262.522	0	105.1	4	34.7	4	-1E+10	1	-1E+10	1	-1E+10	1	-1E+10	1	-1E+10	1	-1E+10	1
4902549	85	C	12/19/2022	01:06	-133.446	47.458	0	265.70	0	6.0070	0	33.8690	0	26.661	0	263.314	0	104.8	4	34.6	4	-1E+10	1	-1E+10	1	-1E+10	1	-1E+10	1	-1E+10	1	-1E+10	1
4902549	85	C	12/19/2022	01:06	-133.446	47.458	0	266.90	0	5.9980	0	33.8650	0	26.659	0	264.503	0	104.2	4	34.4	4	-1E+10	1	-1E+10	1	-1E+10	1	-1E+10	1	-1E+10	1	-1E+10	1
4902549	85	C	12/19/2022	01:06	-133.446	47.458	0	268.20	0	5.9940	0	33.8660	0	26.660	0	265.790	0	103.6	4	34.2	4	-1E+10	1	-1E+10	1	-1E+10	1	-1E+10	1	-1E+10	1	-1E+10	1
4902549	85	C	12/19/2022	01:06	-133.446	47.458	0	269.00	0	5.9790	0	33.8690	0	26.665	0	266.582	0	103.3	4	34.1	4	-1E+10	1	-1E+10	1	-1E+10	1	-1E+10	1	-1E+10	1	-1E+10	1
4902549	85	C	12/19/2022	01:06	-133.446	47.458	0	269.80	0	5.9650	0	33.8690	0	26.666	0	267.375	0	103.1	4	34.0	4	-1E+10	1	-1E+10	1	-1E+10	1	-1E+10	1	-1E+10	1	-1E+10	1
4902549	85	C	12/19/2022	01:06	-133.446	47.458	0	270.80	0	5.9460	0	33.8680	0	26.668	0	268.365	0	102.7	4	33.9	4	-1E+10	1	-1E+10	1	-1E+10	1	-1E+10	1	-1E+10	1	-1E+10	1
4902549	85	C	12/19/2022	01:06	-133.446	47.458	0	271.90	0	5.9220	0	33.8690	0	26.672	0	269.454	0	102.4	4	33.8	4	-1E+10	1	-1E+10	1	-1E+10	1	-1E+10	1	-1E+10	1	-1E+10	1
4902549	85	C	12/19/2022	01:06	-133.446	47.458	0	273.20	0	5.9080	0	33.8670	0	26.672	0	270.742	0	102.0	4	33.6	4	-1E+10	1	-1E+10	1	-1E+10	1	-1E+10	1	-1E+10	1	-1E+10	1
4902549	85	C	12/19/2022	01:06	-133.446	47.458	0	274.00	0	5.8850	0	33.8650	0	26.673	0	271.534	0	101.7	4	33.5	4	-1E+10	1	-1E+10	1	-1E+10	1	-1E+10	1	-1E+10	1	-1E+10	1
4902549	85	C	12/19/2022	01:06	-133.446	47.458	0	274.80	0	5.8560	0	33.8640	0	26.676	0	272.326	0	101.3	4	33.3	4	-1E+10	1	-1E+10	1	-1E+10	1	-1E+10	1	-1E+10	1	-1E+10	1
4902549	85	C	12/19/2022	01:06	-133.446	47.458	0	275.60	0	5.8440	0	33.8680	0	26.681	0	273.119	0	100.9	4	33.2	4	-1E+10	1	-1E+10	1	-1E+10	1	-1E+10	1	-1E+10	1	-1E+10	1
4902549	85	C	12/19/2022	01:06	-133.446	47.458	0	277.00	0	5.8420	0	33.8690	0	26.682	0	274.505	0	100.3	4	33.0	4	-1E+10	1	-1E+10	1	-1E+10	1	-1E+10	1	-1E+10	1	-1E+10	1
4902549	85	C	12/19/2022	01:06	-133.446	47.458	0	278.10	0	5.8440	0	33.8720	0	26.684	0	275.595	0	100.0	4	32.9	4	-1E+10	1	-1E+10	1	-1E+10	1	-1E+10	1	-1E+10	1	-1E+10	1
4902549	85	C	12/19/2022	01:06	-133.446	47.458	0	278.90	0	5.8260	0	33.8760	0	26.689	0	276.387	0	99.9	4	32.9	4	-1E+10	1	-1E+10	1	-1E+10	1	-1E+10	1	-1E+10	1	-1E+10	1
4902549	85	C	12/19/2022	01:06	-133.446	47.458	0	279.70	0	5.8280	0	33.8730	0	26.687	0	277.179	0	99.7	4	32.8	4	-1E+10	1	-1E+10	1	-1E+10	1	-1E+10	1	-1E+10	1	-1E+10	1
4902549	85	C	12/19/2022	01:06	-133.446	47.458	0	280.90	0	5.8230	0	33.8730	0	26.687	0	278.367	0	99.5	4	32.7	4	-1E+10	1	-1E+10	1	-1E+10	1	-1E+10	1	-1E+10	1	-1E+10	1
4902549	85	C	12/19/2022	01:06	-133.446	47.458	0	282.20	0	5.8150	0	33.8740	0	26.689	0	279.655	0	99.3	4	32.7	4	-1E+10	1	-1E+10	1	-1E+10	1	-1E+10	1	-1E+10	1	-1E+10	1
4902549	85	C	12/19/2022	01:06	-133.446	47.458	0	283.00	0	5.7920	0	33.8740	0	26.692	0	280.447	0	99.3	4	32.6	4	-1E+10	1	-1E+10	1	-1E+10	1	-1E+10	1	-1E+10	1	-1E+10	1
4902549	85	C	12/19/2022	01:06	-133.446	47.458	0	283.80	0	5.7570	0	33.8720	0	26.695	0	281.239	0	99.2	4	32.6	4	-1E+10	1	-1E+10	1	-1E+10	1	-1E+10	1	-1E+10	1	-1E+10	1
4902549	85	C	12/19/2022	01:06	-133.446	47.458	0	285.00	0	5.7380	0	33.8740	0	26.698	0	282.428	0	99.3	4	32.6	4	-1E+10	1	-1E+10	1	-1E+10	1	-1E+10	1	-1E+10	1	-1E+10	1
4902549	85	C	12/19/2022	01:06	-133.446	47.458	0	286.30	0	5.7290	0	33.8760	0	26.701	0	283.715	0	99.7	4	32.7	4	-1E+10	1	-1E+10	1	-1E+10	1	-1E+10	1	-1E+10	1	-1E+10	1
4902549	85	C	12/19/2022	01:06	-133.446	47.458	0	287.10	0	5.6930	0	33.8910	0	26.717	0	284.507	0	99.8	4	32.7	4	-1E+10	1	-1E+10	1	-1E+10	1	-1E+10	1	-1E+10	1	-1E+10	1
4902549	85	C	12/19/2022	01:06	-133.446	47.458	0	287.90	0	5.6390	0	33.8680	0	26.706	0	285.299	0	99.8	4	32.7	4	-1E+10	1	-1E+10	1	-1E+10	1	-1E+10	1	-1E+10	1	-1E+10	1
4902549	85	C	12/19/2022	01:06	-133.446	47.458	0	288.70	0	5.6120	0	33.8690	0	26.710	0	286.092	0	99.6	4	32.6	4	-1E+10	1	-1E+10	1	-1E+10	1	-1E+10	1	-1E+10	1	-1E+10	1
4902549	85	C	12/19/2022	01:06	-133.446	47.458	0	289.90	0	5.6000	0	33.8670	0	26.710	0	287.280	0	99.0	4	32.4	4	-1E+10	1	-1E+10	1	-1E+10	1	-1E+10	1	-1E+10	1	-1E+10	1
4902549	85	C	12/19/2022	01:06	-133.446	47.458	0	291.20	0	5.6020	0	33.8660	0	26.709	0	288.567	0	98.4	4	32.2	4	-1E+10	1	-1E+10	1	-1E+10	1	-1E+10	1	-1E+10	1	-1E+10	1
4902549	85	C	12/19/2022	01:06	-133.446	47.458	0	292.00	0	5.6030	0	33.8690	0	26.711	0	289.360	0	98.1	4	32.1	4	-1E+10	1	-1E+10	1	-1E+10	1	-1E+10	1	-1E+10	1	-1E+10	1
4902549	85	C	12/19/2022	01:06	-133.446	47.458	0	292.80	0	5.5970	0	33.8690	0	26.712	0	290.152	0	97.7	4	32.0	4	-1E+10	1	-1E+10	1	-1E+10	1	-1E+10	1	-1E+10	1	-1E+10	1
4902549	85	C	12/19/2022	01:06	-133.446	47.458	0	294.00	0	5.6290	0	33.8750	0	26.713	0	291.340	0	97.7	4	32.0	4	-1E+10	1	-1E+10	1	-1E+10	1	-1E+10	1	-1E+10	1	-1E+10	1
4902549	85	C	12/19/2022	01:06	-133.446	47.458	0	295.20	0	5.6320	0	33.8740	0	26.711	0	292.528	0	97.8	4	32.0	4	-1E+10	1	-1E+10	1	-1E+10	1	-1E+10	1	-1E+10	1	-1E+10	1
4902549	85	C	12/19/2022	01:06	-133.446	47.458	0	296.00	0	5.6300	0	33.8770	0	26.714	0	293.321	0	98.0	4	32.1	4	-1E+10	1	-1E+10	1	-1E+10	1	-1E+10	1	-1E+10	1	-1E+10	1
4902549	85	C	12/19/2022	01:06	-133.446	47.458	0	296.90	0	5.5530	0	33.8830	0	26.728	0	294.212	0	98.0	4	32.0	4	-1E+10	1	-1E+10	1	-1E+10	1	-1E+10	1	-1E+10	1	-1E+10	1
4902549	85	C	12/19/2022	01:06	-133.446	47.458	0	297.70	0	5.5210	0	33.8640	0	26.717	0	295.004	0	97.7	4	31.9	4	-1E+10	1	-1E+10	1	-1E+10	1	-1E+10	1	-1E+10	1	-1E+10	1
4902549	85	C	12/19/2022	01:06	-133.446	47.458	0	299.00	0	5.4790	0	33.8640	0	26.722	0	296.291	0	96.7	4	31.5	4	-1E+10	1	-1E+10	1	-1E+10	1	-1E+10	1	-1E+10	1	-1E+10	1
4902549	85	C	12/19/2022	01:06	-133.446	47.458	0	300.20	0	5.4740	0	33.8660	0	26.724	0	297.480	0	95.7	4	31.2	4	-1E+10	1	-1E+10	1	-1E+10	1	-1E+10	1	-1E+10	1	-1E+10	1
4902549	85	C	12/19/2022	01:06	-133.446	47.458	0	301.10	0	5.4820	0	33.8680	0	26.725	0	298.371	0	95.1	4	31.0	4	-1E+10	1	-1E+10	1	-1E+10	1	-1E+10	1	-1E+10	1	-1E+10	1
4902549	85	C	12/19/2022	01:06	-133.446	47.458	0	301.90	0	5.4930	0	33.8710	0	26.726	0	299.163	0	94.5	4	30.9	4	-1E+10	1	-1E+10	1	-1E+10	1	-1E+10	1	-1E+10	1	-1E+10	1
4902549	85	C	12/19/2022	01:06	-133.446	47.458	0	302.70	0	5.5100	0	33.8750	0	26.727	0	299.955	0	94.1	4	30.7	4	-1E+10	1	-1E+10	1	-1E+10	1	-1E+10	1	-1E+10	1	-1E+10	1
4902549	85	C	12/19/2022	01:06	-133.446	47.458	0	304.00	0	5.5180	0	33.8790	0	26.729	0	301.242	0	93.9	4	30.7	4	-1E+10	1	-1E+10	1	-1E+10	1	-1E+10	1	-1E+10	1	-1E+10	1
4902549	85	C	12/19/2022	01:06	-133.446	47.458	0	305.20	0	5.5240	0	33.8840	0	26.732	0	302.431	0	94.3	4	30.8	4	-1E+10	1	-1E+10	1	-1E+10	1	-1E+10	1	-1E+10	1	-1E+10	1
4902549	85	C	12/19/2022	01:06	-133.446	47.458	0	306.10	0	5.5190	0	33.8850	0	26.734	0	303.322	0	94.6	4	30.9	4	-1E+10	1	-1E+10	1	-1E+10	1	-1E+10	1	-1E+10	1	-1E+10	1
4902549	85	C	12/19/2022	01:06	-133.446	47.458	0	306.90	0	5.5150	0	33.8800	0	26.730	0	304.114	0	95.0	4	31.0	4	-1E+10	1	-1E+10	1	-1E+10	1	-1E+10	1	-1E+10	1	-1E+10	1
4902549	85	C	12/19/2022	01:06	-133.446	47.458	0	307.70	0	5.5060	0	33.8820	0	26.733	0	304.906	0	95.4	4	31.2	4	-1E+10	1	-1E+10	1	-1E+10	1	-1E+10	1	-1E+10	1	-1E+10	1
4902549	85	C	12/19/2022	01:06	-133.446	47.458	0	308.90	0	5.4880	0	33.8760	0	26.730	0	306.094	0	96.1	4	31.3	4	-1E+10	1	-1E+10	1	-1E+10	1	-1E+10	1	-1E+10	1	-1E+10	1
4902549	85	C	12/19/2022	01:06	-133.446	47.458	0	310.20	0	5.4480	0	33.8730	0	26.733	0	307.382	0	96.5	4	31.5	4	-1E+10	1	-1E+10	1	-1E+10	1	-1E+10	1	-1E+10	1	-1E+10	1
4902549	85	C	12/19/2022	01:06	-133.446	47.458	0	311.10	0	5.4040	0	33.8750	0	26.740	0	308.273	0	96.8	4	31.5	4	-1E+10	1	-1E+10	1	-1E+10	1	-1E+10	1	-1E+10	1	-1E+10	1
4902549	85	C	12/19/2022	01:06	-133.446	47.458	0	311.90	0	5.3720	0	33.8760	0	26.744	0	309.065	0	96.8	4	31.5	4	-1E+10	1	-1E+10	1	-1E+10	1	-1E+10	1	-1E+10	1	-1E+10	1
4902549	85	C	12/19/2022	01:06	-133.446	47.458	0	312.70	0	5.3620	0	33.8660	0	26.737	0	309.857	0	96.6	4	31.4	4	-1E+10	1	-1E+10	1	-1E+10	1	-1E+10	1	-1E+10	1	-1E+10	1
4902549	85	C	12/19/2022	01:06	-133.446	47.458	0	314.00	0	5.3420	0	33.8640	0	26.738	0	311.144	0	96.2	4	31.3	4	-1E+10	1	-1E+10	1	-1E+10	1	-1E+10	1	-1E+10	1	-1E+10	1
4902549	85	C	12/19/2022	01:06	-133.446	47.458	0	315.30	0	5.3540	0	33.8680	0	26.740	0	312.431	0	95.9	4	31.2	4	-1E+10	1	-1E+10	1	-1E+10	1	-1E+10	1	-1E+10	1	-1E+10	1
4902549	85	C	12/19/2022	01:06	-133.446	47.458	0	316.10	0	5.3580	0	33.8710	0	26.742	0	313.223	0	95.8	4	31.2	4	-1E+10	1	-1E+10	1	-1E+10	1	-1E+10	1	-1E+10	1	-1E+10	1
4902549	85	C	12/19/2022	01:06	-133.446	47.458	0	316.90	0	5.3640	0	33.8700	0	26.740	0	314.016	0	95.8	4	31.2	4	-1E+10	1	-1E+10	1	-1E+10	1	-1E+10	1	-1E+10	1	-1E+10	1
4902549	85	C	12/19/2022	01:06	-133.446	47.458	0	317.70	0	5.3630	0	33.8700	0	26.740	0	314.808	0	95.8	4	31.2	4	-1E+10	1	-1E+10	1	-1E+10	1	-1E+10	1	-1E+10	1	-1E+10	1
4902549	85	C	12/19/2022	01:06	-133.446	47.458	0	319.00	0	5.3430	0	33.8680	0	26.741	0	316.095	0	95.8	4	31.2	4	-1E+10	1	-1E+10	1	-1E+10	1	-1E+10	1	-1E+10	1	-1E+10	1
4902549	85	C	12/19/2022	01:06	-133.446	47.458	0	320.30	0	5.3190	0	33.8660	0	26.742	0	317.382	0	95.8	4	31.1	4	-1E+10	1	-1E+10	1	-1E+10	1	-1E+10	1	-1E+10	1	-1E+10	1
4902549	85	C	12/19/2022	01:06	-133.446	47.458	0	321.10	0	5.2460	0	33.8650	0	26.750	0	318.174	0	95.7	4	31.0	4	-1E+10	1	-1E+10	1	-1E+10	1	-1E+10	1	-1E+10	1	-1E+10	1
4902549	85	C	12/19/2022	01:06	-133.446	47.458	0	322.00	0	5.2360	0	33.8620	0	26.749	0	319.065	0	95.5	4	31.0	4	-1E+10	1	-1E+10	1	-1E+10	1	-1E+10	1	-1E+10	1	-1E+10	1
4902549	85	C	12/19/2022	01:06	-133.446	47.458	0	322.80	0	5.2350	0	33.8620	0	26.749	0	319.857	0	95.1	4	30.9	4	-1E+10	1	-1E+10	1	-1E+10	1	-1E+10	1	-1E+10	1	-1E+10	1
4902549	85	C	12/19/2022	01:06	-133.446	47.458	0	324.00	0	5.2070	0	33.8620	0	26.752	0	321.045	0	94.6	4	30.7	4	-1E+10	1	-1E+10	1	-1E+10	1	-1E+10	1	-1E+10	1	-1E+10	1
4902549	85	C	12/19/2022	01:06	-133.446	47.458	0	325.10	0	5.1930	0	33.8630	0	26.755	0	322.135	0	94.0	4	30.5	4	-1E+10	1	-1E+10	1	-1E+10	1	-1E+10	1	-1E+10	1	-1E+10	1
4902549	85	C	12/19/2022	01:06	-133.446	47.458	0	326.00	0	5.1900	0	33.8610	0	26.754	0	323.026	0	93.6	4	30.3	4	-1E+10	1	-1E+10	1	-1E+10	1	-1E+10	1	-1E+10	1	-1E+10	1
4902549	85	C	12/19/2022	01:06	-133.446	47.458	0	326.90	0	5.1830	0	33.8640	0	26.757	0	323.917	0	93.2	4	30.2	4	-1E+10	1	-1E+10	1	-1E+10	1	-1E+10	1	-1E+10	1	-1E+10	1
4902549	85	C	12/19/2022	01:06	-133.446	47.458	0	327.70	0	5.1840	0	33.8650	0	26.757	0	324.709	0	92.8	4	30.1	4	-1E+10	1	-1E+10	1	-1E+10	1	-1E+10	1	-1E+10	1	-1E+10	1
4902549	85	C	12/19/2022	01:06	-133.446	47.458	0	328.90	0	5.1840	0	33.8650	0	26.757	0	325.897	0	92.0	4	29.8	4	-1E+10	1	-1E+10	1	-1E+10	1	-1E+10	1	-1E+10	1	-1E+10	1
4902549	85	C	12/19/2022	01:06	-133.446	47.458	0	330.20	0	5.1840	0	33.8660	0	26.758	0	327.184	0	91.2	4	29.6	4	-1E+10	1	-1E+10	1	-1E+10	1	-1E+10	1	-1E+10	1	-1E+10	1
4902549	85	C	12/19/2022	01:06	-133.446	47.458	0	331.00	0	5.1660	0	33.8710	0	26.764	0	327.976	0	90.7	4	29.4	4	-1E+10	1	-1E+10	1	-1E+10	1	-1E+10	1	-1E+10	1	-1E+10	1
4902549	85	C	12/19/2022	01:06	-133.446	47.458	0	331.80	0	5.1670	0	33.8720	0	26.765	0	328.768	0	90.2	4	29.2	4	-1E+10	1	-1E+10	1	-1E+10	1	-1E+10	1	-1E+10	1	-1E+10	1
4902549	85	C	12/19/2022	01:06	-133.446	47.458	0	332.60	0	5.1660	0	33.8740	0	26.767	0	329.560	0	89.7	4	29.1	4	-1E+10	1	-1E+10	1	-1E+10	1	-1E+10	1	-1E+10	1	-1E+10	1
4902549	85	C	12/19/2022	01:06	-133.446	47.458	0	334.00	0	5.1620	0	33.8750	0	26.768	0	330.946	0	89.1	4	28.8	4	-1E+10	1	-1E+10	1	-1E+10	1	-1E+10	1	-1E+10	1	-1E+10	1
4902549	85	C	12/19/2022	01:06	-133.446	47.458	0	335.30	0	5.1530	0	33.8760	0	26.770	0	332.233	0	88.4	4	28.6	4	-1E+10	1	-1E+10	1	-1E+10	1	-1E+10	1	-1E+10	1	-1E+10	1
4902549	85	C	12/19/2022	01:06	-133.446	47.458	0	336.10	0	5.1500	0	33.8770	0	26.771	0	333.025	0	87.9	4	28.5	4	-1E+10	1	-1E+10	1	-1E+10	1	-1E+10	1	-1E+10	1	-1E+10	1
4902549	85	C	12/19/2022	01:06	-133.446	47.458	0	337.00	0	5.1490	0	33.8780	0	26.772	0	333.916	0	87.5	4	28.3	4	-1E+10	1	-1E+10	1	-1E+10	1	-1E+10	1	-1E+10	1	-1E+10	1
4902549	85	C	12/19/2022	01:06	-133.446	47.458	0	337.80	0	5.1500	0	33.8780	0	26.772	0	334.708	0	87.0	4	28.2	4	-1E+10	1	-1E+10	1	-1E+10	1	-1E+10	1	-1E+10	1	-1E+10	1
4902549	85	C	12/19/2022	01:06	-133.446	47.458	0	338.70	0	5.1480	0	33.8780	0	26.772	0	335.600	0	86.4	4	28.0	4	-1E+10	1	-1E+10	1	-1E+10	1	-1E+10	1	-1E+10	1	-1E+10	1
4902549	85	C	12/19/2022	01:06	-133.446	47.458	0	339.90	0	5.1340	0	33.8820	0	26.777	0	336.788	0	85.7	4	27.7	4	-1E+10	1	-1E+10	1	-1E+10	1	-1E+10	1	-1E+10	1	-1E+10	1
4902549	85	C	12/19/2022	01:06	-133.446	47.458	0	341.30	0	5.1270	0	33.8820	0	26.778	0	338.174	0	84.9	4	27.5	4	-1E+10	1	-1E+10	1	-1E+10	1	-1E+10	1	-1E+10	1	-1E+10	1
4902549	85	C	12/19/2022	01:06	-133.446	47.458	0	342.10	0	5.1220	0	33.8820	0	26.778	0	338.966	0	84.3	4	27.3	4	-1E+10	1	-1E+10	1	-1E+10	1	-1E+10	1	-1E+10	1	-1E+10	1
4902549	85	C	12/19/2022	01:06	-133.446	47.458	0	343.00	0	5.0950	0	33.8840	0	26.783	0	339.857	0	83.8	4	27.1	4	-1E+10	1	-1E+10	1	-1E+10	1	-1E+10	1	-1E+10	1	-1E+10	1
4902549	85	C	12/19/2022	01:06	-133.446	47.458	0	343.80	0	5.0900	0	33.8850	0	26.784	0	340.649	0	83.3	4	26.9	4	-1E+10	1	-1E+10	1	-1E+10	1	-1E+10	1	-1E+10	1	-1E+10	1
4902549	85	C	12/19/2022	01:06	-133.446	47.458	0	344.60	0	5.0870	0	33.8850	0	26.785	0	341.441	0	82.7	4	26.7	4	-1E+10	1	-1E+10	1	-1E+10	1	-1E+10	1	-1E+10	1	-1E+10	1
4902549	85	C	12/19/2022	01:06	-133.446	47.458	0	345.90	0	5.0730	0	33.8870	0	26.788	0	342.728	0	81.9	4	26.5	4	-1E+10	1	-1E+10	1	-1E+10	1	-1E+10	1	-1E+10	1	-1E+10	1
4902549	85	C	12/19/2022	01:06	-133.446	47.458	0	347.30	0	5.0500	0	33.8890	0	26.792	0	344.114	0	81.0	4	26.2	4	-1E+10	1	-1E+10	1	-1E+10	1	-1E+10	1	-1E+10	1	-1E+10	1
4902549	85	C	12/19/2022	01:06	-133.446	47.458	0	348.20	0	5.0420	0	33.8900	0	26.794	0	345.005	0	80.3	4	25.9	4	-1E+10	1	-1E+10	1	-1E+10	1	-1E+10	1	-1E+10	1	-1E+10	1
4902549	85	C	12/19/2022	01:06	-133.446	47.458	0	349.10	0	5.0440	0	33.8900	0	26.793	0	345.896	0	79.5	4	25.7	4	-1E+10	1	-1E+10	1	-1E+10	1	-1E+10	1	-1E+10	1	-1E+10	1
4902549	85	C	12/19/2022	01:06	-133.446	47.458	0	350.00	0	5.0440	0	33.8920	0	26.795	0	346.787	0	78.8	4	25.4	4	-1E+10	1	-1E+10	1	-1E+10	1	-1E+10	1	-1E+10	1	-1E+10	1
4902549	85	C	12/19/2022	01:06	-133.446	47.458	0	352.70	0	5.0670	0	33.9010	0	26.800	0	349.460	0	77.6	4	25.1	4	-1E+10	1	-1E+10	1	-1E+10	1	-1E+10	1	-1E+10	1	-1E+10	1
4902549	85	C	12/19/2022	01:06	-133.446	47.458	0	357.80	0	5.0210	0	33.9040	0	26.807	0	354.508	0	76.4	4	24.7	4	-1E+10	1	-1E+10	1	-1E+10	1	-1E+10	1	-1E+10	1	-1E+10	1
4902549	85	C	12/19/2022	01:06	-133.446	47.458	0	363.00	0	4.9800	0	33.9070	0	26.814	0	359.656	0	74.3	4	24.0	4	-1E+10	1	-1E+10	1	-1E+10	1	-1E+10	1	-1E+10	1	-1E+10	1
4902549	85	C	12/19/2022	01:06	-133.446	47.458	0	367.80	0	4.9620	0	33.9130	0	26.821	0	364.408	0	72.4	4	23.4	4	-1E+10	1	-1E+10	1	-1E+10	1	-1E+10	1	-1E+10	1	-1E+10	1
4902549	85	C	12/19/2022	01:06	-133.446	47.458	0	372.70	0	4.9400	0	33.9180	0	26.828	0	369.258	0	71.5	4	23.0	4	-1E+10	1	-1E+10	1	-1E+10	1	-1E+10	1	-1E+10	1	-1E+10	1
4902549	85	C	12/19/2022	01:06	-133.446	47.458	0	377.60	0	4.8990	0	33.9190	0	26.833	0	374.108	0	70.3	4	22.6	4	-1E+10	1	-1E+10	1	-1E+10	1	-1E+10	1	-1E+10	1	-1E+10	1
4902549	85	C	12/19/2022	01:06	-133.446	47.458	0	382.60	0	4.8770	0	33.9230	0	26.839	0	379.058	0	68.8	4	22.1	4	-1E+10	1	-1E+10	1	-1E+10	1	-1E+10	1	-1E+10	1	-1E+10	1
4902549	85	C	12/19/2022	01:06	-133.446	47.458	0	387.50	0	4.8570	0	33.9280	0	26.845	0	383.908	0	67.2	4	21.6	4	-1E+10	1	-1E+10	1	-1E+10	1	-1E+10	1	-1E+10	1	-1E+10	1
4902549	85	C	12/19/2022	01:06	-133.446	47.458	0	392.40	0	4.8380	0	33.9330	0	26.851	0	388.758	0	66.0	4	21.2	4	-1E+10	1	-1E+10	1	-1E+10	1	-1E+10	1	-1E+10	1	-1E+10	1
4902549	85	C	12/19/2022	01:06	-133.446	47.458	0	397.90	0	4.7930	0	33.9360	0	26.859	0	394.201	0	64.5	4	20.7	4	-1E+10	1	-1E+10	1	-1E+10	1	-1E+10	1	-1E+10	1	-1E+10	1
4902549	85	C	12/19/2022	01:06	-133.446	47.458	0	403.20	0	4.7800	0	33.9410	0	26.864	0	399.447	0	63.2	4	20.3	4	-1E+10	1	-1E+10	1	-1E+10	1	-1E+10	1	-1E+10	1	-1E+10	1
4902549	85	C	12/19/2022	01:06	-133.446	47.458	0	408.00	0	4.7490	0	33.9430	0	26.869	0	404.198	0	60.7	4	19.5	4	-1E+10	1	-1E+10	1	-1E+10	1	-1E+10	1	-1E+10	1	-1E+10	1
4902549	85	C	12/19/2022	01:06	-133.446	47.458	0	413.00	0	4.7630	0	33.9510	0	26.874	0	409.146	0	57.9	4	18.6	4	-1E+10	1	-1E+10	1	-1E+10	1	-1E+10	1	-1E+10	1	-1E+10	1
4902549	85	C	12/19/2022	01:06	-133.446	47.458	0	417.90	0	4.7640	0	33.9600	0	26.881	0	413.995	0	56.6	4	18.2	4	-1E+10	1	-1E+10	1	-1E+10	1	-1E+10	1	-1E+10	1	-1E+10	1
4902549	85	C	12/19/2022	01:06	-133.446	47.458	0	422.80	0	4.7430	0	33.9640	0	26.887	0	418.845	0	56.0	4	18.0	4	-1E+10	1	-1E+10	1	-1E+10	1	-1E+10	1	-1E+10	1	-1E+10	1
4902549	85	C	12/19/2022	01:06	-133.446	47.458	0	427.80	0	4.7180	0	33.9660	0	26.891	0	423.793	0	55.5	4	17.8	4	-1E+10	1	-1E+10	1	-1E+10	1	-1E+10	1	-1E+10	1	-1E+10	1
4902549	85	C	12/19/2022	01:06	-133.446	47.458	0	432.70	0	4.6750	0	33.9680	0	26.897	0	428.642	0	55.1	4	17.7	4	-1E+10	1	-1E+10	1	-1E+10	1	-1E+10	1	-1E+10	1	-1E+10	1
4902549	85	C	12/19/2022	01:06	-133.446	47.458	0	437.70	0	4.6440	0	33.9710	0	26.903	0	433.590	0	54.1	4	17.3	4	-1E+10	1	-1E+10	1	-1E+10	1	-1E+10	1	-1E+10	1	-1E+10	1
4902549	85	C	12/19/2022	01:06	-133.446	47.458	0	442.60	0	4.6250	0	33.9740	0	26.908	0	438.439	0	53.5	4	17.1	4	-1E+10	1	-1E+10	1	-1E+10	1	-1E+10	1	-1E+10	1	-1E+10	1
4902549	85	C	12/19/2022	01:06	-133.446	47.458	0	447.60	0	4.6000	0	33.9750	0	26.911	0	443.386	0	52.3	4	16.7	4	-1E+10	1	-1E+10	1	-1E+10	1	-1E+10	1	-1E+10	1	-1E+10	1
4902549	85	C	12/19/2022	01:06	-133.446	47.458	0	452.60	0	4.5940	0	33.9820	0	26.917	0	448.334	0	51.1	4	16.4	4	-1E+10	1	-1E+10	1	-1E+10	1	-1E+10	1	-1E+10	1	-1E+10	1
4902549	85	C	12/19/2022	01:06	-133.446	47.458	0	457.70	0	4.5590	0	33.9850	0	26.924	0	453.380	0	50.4	4	16.1	4	-1E+10	1	-1E+10	1	-1E+10	1	-1E+10	1	-1E+10	1	-1E+10	1
4902549	85	C	12/19/2022	01:06	-133.446	47.458	0	462.80	0	4.5540	0	33.9880	0	26.927	0	458.426	0	49.3	4	15.8	4	-1E+10	1	-1E+10	1	-1E+10	1	-1E+10	1	-1E+10	1	-1E+10	1
4902549	85	C	12/19/2022	01:06	-133.446	47.458	0	467.90	0	4.5030	0	33.9920	0	26.935	0	463.473	0	48.4	4	15.4	4	-1E+10	1	-1E+10	1	-1E+10	1	-1E+10	1	-1E+10	1	-1E+10	1
4902549	85	C	12/19/2022	01:06	-133.446	47.458	0	473.00	0	4.4750	0	33.9970	0	26.942	0	468.519	0	47.0	4	15.0	4	-1E+10	1	-1E+10	1	-1E+10	1	-1E+10	1	-1E+10	1	-1E+10	1
4902549	85	C	12/19/2022	01:06	-133.446	47.458	0	478.00	0	4.4460	0	34.0020	0	26.949	0	473.465	0	46.0	4	14.6	4	-1E+10	1	-1E+10	1	-1E+10	1	-1E+10	1	-1E+10	1	-1E+10	1
4902549	85	C	12/19/2022	01:06	-133.446	47.458	0	483.20	0	4.4210	0	34.0090	0	26.958	0	478.610	0	45.0	4	14.3	4	-1E+10	1	-1E+10	1	-1E+10	1	-1E+10	1	-1E+10	1	-1E+10	1
4902549	85	C	12/19/2022	01:06	-133.446	47.458	0	488.00	0	4.4070	0	34.0110	0	26.961	0	483.359	0	44.1	4	14.0	4	-1E+10	1	-1E+10	1	-1E+10	1	-1E+10	1	-1E+10	1	-1E+10	1
4902549	85	C	12/19/2022	01:06	-133.446	47.458	0	493.00	0	4.3910	0	34.0150	0	26.966	0	488.306	0	42.7	4	13.6	4	-1E+10	1	-1E+10	1	-1E+10	1	-1E+10	1	-1E+10	1	-1E+10	1
4902549	85	C	12/19/2022	01:06	-133.446	47.458	0	498.20	0	4.3780	0	34.0210	0	26.972	0	493.450	0	41.1	4	13.1	4	-1E+10	1	-1E+10	1	-1E+10	1	-1E+10	1	-1E+10	1	-1E+10	1
4902549	85	C	12/19/2022	01:06	-133.446	47.458	0	503.10	0	4.3640	0	34.0270	0	26.978	0	498.297	0	39.6	4	12.6	4	-1E+10	1	-1E+10	1	-1E+10	1	-1E+10	1	-1E+10	1	-1E+10	1
4902549	85	C	12/19/2022	01:06	-133.446	47.458	0	508.00	0	4.3570	0	34.0320	0	26.983	0	503.145	0	37.9	4	12.1	4	-1E+10	1	-1E+10	1	-1E+10	1	-1E+10	1	-1E+10	1	-1E+10	1
4902549	85	C	12/19/2022	01:06	-133.446	47.458	0	513.10	0	4.3470	0	34.0400	0	26.990	0	508.190	0	36.0	4	11.4	4	-1E+10	1	-1E+10	1	-1E+10	1	-1E+10	1	-1E+10	1	-1E+10	1
4902549	85	C	12/19/2022	01:06	-133.446	47.458	0	518.00	0	4.3600	0	34.0450	0	26.993	0	513.037	0	34.8	4	11.1	4	-1E+10	1	-1E+10	1	-1E+10	1	-1E+10	1	-1E+10	1	-1E+10	1
4902549	85	C	12/19/2022	01:06	-133.446	47.458	0	522.80	0	4.3330	0	34.0490	0	26.999	0	517.785	0	33.6	4	10.7	4	-1E+10	1	-1E+10	1	-1E+10	1	-1E+10	1	-1E+10	1	-1E+10	1
4902549	85	C	12/19/2022	01:06	-133.446	47.458	0	527.80	0	4.3150	0	34.0550	0	27.006	0	522.730	0	32.1	4	10.2	4	-1E+10	1	-1E+10	1	-1E+10	1	-1E+10	1	-1E+10	1	-1E+10	1
4902549	85	C	12/19/2022	01:06	-133.446	47.458	0	532.70	0	4.3060	0	34.0620	0	27.012	0	527.577	0	30.8	4	9.8	4	-1E+10	1	-1E+10	1	-1E+10	1	-1E+10	1	-1E+10	1	-1E+10	1
4902549	85	C	12/19/2022	01:06	-133.446	47.458	0	537.70	0	4.3050	0	34.0670	0	27.016	0	532.523	0	29.8	4	9.5	4	-1E+10	1	-1E+10	1	-1E+10	1	-1E+10	1	-1E+10	1	-1E+10	1
4902549	85	C	12/19/2022	01:06	-133.446	47.458	0	542.70	0	4.2940	0	34.0700	0	27.020	0	537.468	0	28.9	4	9.2	4	-1E+10	1	-1E+10	1	-1E+10	1	-1E+10	1	-1E+10	1	-1E+10	1
4902549	85	C	12/19/2022	01:06	-133.446	47.458	0	547.80	0	4.2870	0	34.0720	0	27.022	0	542.512	0	27.5	4	8.7	4	-1E+10	1	-1E+10	1	-1E+10	1	-1E+10	1	-1E+10	1	-1E+10	1
4902549	85	C	12/19/2022	01:06	-133.446	47.458	0	552.90	0	4.2810	0	34.0800	0	27.029	0	547.556	0	25.7	4	8.2	4	-1E+10	1	-1E+10	1	-1E+10	1	-1E+10	1	-1E+10	1	-1E+10	1
4902549	85	C	12/19/2022	01:06	-133.446	47.458	0	558.20	0	4.2770	0	34.0860	0	27.035	0	552.798	0	23.5	4	7.5	4	-1E+10	1	-1E+10	1	-1E+10	1	-1E+10	1	-1E+10	1	-1E+10	1
4902549	85	C	12/19/2022	01:06	-133.446	47.458	0	563.00	0	4.2930	0	34.0970	0	27.042	0	557.545	0	21.8	4	6.9	4	-1E+10	1	-1E+10	1	-1E+10	1	-1E+10	1	-1E+10	1	-1E+10	1
4902549	85	C	12/19/2022	01:06	-133.446	47.458	0	567.90	0	4.2970	0	34.1060	0	27.049	0	562.391	0	20.6	4	6.6	4	-1E+10	1	-1E+10	1	-1E+10	1	-1E+10	1	-1E+10	1	-1E+10	1
4902549	85	C	12/19/2022	01:06	-133.446	47.458	0	572.90	0	4.2770	0	34.1130	0	27.056	0	567.336	0	19.8	4	6.3	4	-1E+10	1	-1E+10	1	-1E+10	1	-1E+10	1	-1E+10	1	-1E+10	1
4902549	85	C	12/19/2022	01:06	-133.446	47.458	0	578.00	0	4.2550	0	34.1190	0	27.063	0	572.379	0	19.4	4	6.2	4	-1E+10	1	-1E+10	1	-1E+10	1	-1E+10	1	-1E+10	1	-1E+10	1
4902549	85	C	12/19/2022	01:06	-133.446	47.458	0	583.20	0	4.2250	0	34.1220	0	27.069	0	577.521	0	19.0	4	6.0	4	-1E+10	1	-1E+10	1	-1E+10	1	-1E+10	1	-1E+10	1	-1E+10	1
4902549	85	C	12/19/2022	01:06	-133.446	47.458	0	587.90	0	4.1880	0	34.1260	0	27.076	0	582.169	0	18.7	4	5.9	4	-1E+10	1	-1E+10	1	-1E+10	1	-1E+10	1	-1E+10	1	-1E+10	1
4902549	85	C	12/19/2022	01:06	-133.446	47.458	0	592.50	0	4.1760	0	34.1280	0	27.079	0	586.718	0	18.2	4	5.8	4	-1E+10	1	-1E+10	1	-1E+10	1	-1E+10	1	-1E+10	1	-1E+10	1
4902549	85	C	12/19/2022	01:06	-133.446	47.458	0	597.80	0	4.1730	0	34.1330	0	27.083	0	591.958	0	17.6	4	5.6	4	-1E+10	1	-1E+10	1	-1E+10	1	-1E+10	1	-1E+10	1	-1E+10	1
4902549	85	C	12/19/2022	01:06	-133.446	47.458	0	603.10	0	4.1650	0	34.1360	0	27.086	0	597.199	0	17.0	4	5.4	4	-1E+10	1	-1E+10	1	-1E+10	1	-1E+10	1	-1E+10	1	-1E+10	1
4902549	85	C	12/19/2022	01:06	-133.446	47.458	0	607.90	0	4.1650	0	34.1410	0	27.090	0	601.945	0	16.5	4	5.2	4	-1E+10	1	-1E+10	1	-1E+10	1	-1E+10	1	-1E+10	1	-1E+10	1
4902549	85	C	12/19/2022	01:06	-133.446	47.458	0	612.70	0	4.1600	0	34.1440	0	27.093	0	606.691	0	16.1	4	5.1	4	-1E+10	1	-1E+10	1	-1E+10	1	-1E+10	1	-1E+10	1	-1E+10	1
4902549	85	C	12/19/2022	01:06	-133.446	47.458	0	618.00	0	4.1340	0	34.1500	0	27.101	0	611.931	0	15.8	4	5.0	4	-1E+10	1	-1E+10	1	-1E+10	1	-1E+10	1	-1E+10	1	-1E+10	1
4902549	85	C	12/19/2022	01:06	-133.446	47.458	0	622.90	0	4.1010	0	34.1530	0	27.107	0	616.776	0	15.5	4	4.9	4	-1E+10	1	-1E+10	1	-1E+10	1	-1E+10	1	-1E+10	1	-1E+10	1
4902549	85	C	12/19/2022	01:06	-133.446	47.458	0	627.70	0	4.0930	0	34.1570	0	27.111	0	621.522	0	14.9	4	4.7	4	-1E+10	1	-1E+10	1	-1E+10	1	-1E+10	1	-1E+10	1	-1E+10	1
4902549	85	C	12/19/2022	01:06	-133.446	47.458	0	633.10	0	4.0780	0	34.1610	0	27.116	0	626.860	0	14.6	4	4.6	4	-1E+10	1	-1E+10	1	-1E+10	1	-1E+10	1	-1E+10	1	-1E+10	1
4902549	85	C	12/19/2022	01:06	-133.446	47.458	0	637.90	0	4.0490	0	34.1630	0	27.120	0	631.606	0	14.2	4	4.5	4	-1E+10	1	-1E+10	1	-1E+10	1	-1E+10	1	-1E+10	1	-1E+10	1
4902549	85	C	12/19/2022	01:06	-133.446	47.458	0	642.90	0	4.0520	0	34.1700	0	27.125	0	636.549	0	13.7	4	4.3	4	-1E+10	1	-1E+10	1	-1E+10	1	-1E+10	1	-1E+10	1	-1E+10	1
4902549	85	C	12/19/2022	01:06	-133.446	47.458	0	647.90	0	4.0320	0	34.1740	0	27.131	0	641.492	0	13.6	4	4.3	4	-1E+10	1	-1E+10	1	-1E+10	1	-1E+10	1	-1E+10	1	-1E+10	1
4902549	85	C	12/19/2022	01:06	-133.446	47.458	0	652.80	0	4.0150	0	34.1760	0	27.134	0	646.336	0	13.4	4	4.2	4	-1E+10	1	-1E+10	1	-1E+10	1	-1E+10	1	-1E+10	1	-1E+10	1
4902549	85	C	12/19/2022	01:06	-133.446	47.458	0	657.80	0	3.9950	0	34.1790	0	27.139	0	651.278	0	13.0	4	4.1	4	-1E+10	1	-1E+10	1	-1E+10	1	-1E+10	1	-1E+10	1	-1E+10	1
4902549	85	C	12/19/2022	01:06	-133.446	47.458	0	662.80	0	3.9860	0	34.1830	0	27.143	0	656.221	0	12.6	4	4.0	4	-1E+10	1	-1E+10	1	-1E+10	1	-1E+10	1	-1E+10	1	-1E+10	1
4902549	85	C	12/19/2022	01:06	-133.446	47.458	0	667.90	0	3.9740	0	34.1880	0	27.148	0	661.262	0	12.3	4	3.9	4	-1E+10	1	-1E+10	1	-1E+10	1	-1E+10	1	-1E+10	1	-1E+10	1
4902549	85	C	12/19/2022	01:06	-133.446	47.458	0	672.90	0	3.9620	0	34.1920	0	27.152	0	666.205	0	12.1	4	3.8	4	-1E+10	1	-1E+10	1	-1E+10	1	-1E+10	1	-1E+10	1	-1E+10	1
4902549	85	C	12/19/2022	01:06	-133.446	47.458	0	677.90	0	3.9580	0	34.1950	0	27.155	0	671.147	0	11.7	4	3.7	4	-1E+10	1	-1E+10	1	-1E+10	1	-1E+10	1	-1E+10	1	-1E+10	1
4902549	85	C	12/19/2022	01:06	-133.446	47.458	0	682.90	0	3.9390	0	34.1990	0	27.160	0	676.089	0	11.8	4	3.7	4	-1E+10	1	-1E+10	1	-1E+10	1	-1E+10	1	-1E+10	1	-1E+10	1
4902549	85	C	12/19/2022	01:06	-133.446	47.458	0	687.90	0	3.9240	0	34.2010	0	27.163	0	681.031	0	11.5	4	3.6	4	-1E+10	1	-1E+10	1	-1E+10	1	-1E+10	1	-1E+10	1	-1E+10	1
4902549	85	C	12/19/2022	01:06	-133.446	47.458	0	692.90	0	3.9120	0	34.2040	0	27.167	0	685.973	0	11.5	4	3.6	4	-1E+10	1	-1E+10	1	-1E+10	1	-1E+10	1	-1E+10	1	-1E+10	1
4902549	85	C	12/19/2022	01:06	-133.446	47.458	0	698.00	0	3.8960	0	34.2060	0	27.170	0	691.013	0	11.4	4	3.6	4	-1E+10	1	-1E+10	1	-1E+10	1	-1E+10	1	-1E+10	1	-1E+10	1
4902549	85	C	12/19/2022	01:06	-133.446	47.458	0	703.00	0	3.8910	0	34.2100	0	27.174	0	695.955	0	11.4	4	3.6	4	-1E+10	1	-1E+10	1	-1E+10	1	-1E+10	1	-1E+10	1	-1E+10	1
4902549	85	C	12/19/2022	01:06	-133.446	47.458	0	708.00	0	3.8610	0	34.2120	0	27.179	0	700.896	0	11.6	4	3.6	4	-1E+10	1	-1E+10	1	-1E+10	1	-1E+10	1	-1E+10	1	-1E+10	1
4902549	85	C	12/19/2022	01:06	-133.446	47.458	0	713.00	0	3.8490	0	34.2160	0	27.183	0	705.838	0	11.5	4	3.6	4	-1E+10	1	-1E+10	1	-1E+10	1	-1E+10	1	-1E+10	1	-1E+10	1
4902549	85	C	12/19/2022	01:06	-133.446	47.458	0	717.80	0	3.8330	0	34.2170	0	27.186	0	710.581	0	11.2	4	3.5	4	-1E+10	1	-1E+10	1	-1E+10	1	-1E+10	1	-1E+10	1	-1E+10	1
4902549	85	C	12/19/2022	01:06	-133.446	47.458	0	722.60	0	3.8320	0	34.2210	0	27.189	0	715.325	0	10.5	4	3.3	4	-1E+10	1	-1E+10	1	-1E+10	1	-1E+10	1	-1E+10	1	-1E+10	1
4902549	85	C	12/19/2022	01:06	-133.446	47.458	0	727.90	0	3.8590	0	34.2320	0	27.195	0	720.562	0	9.6	4	3.0	4	-1E+10	1	-1E+10	1	-1E+10	1	-1E+10	1	-1E+10	1	-1E+10	1
4902549	85	C	12/19/2022	01:06	-133.446	47.458	0	732.90	0	3.8710	0	34.2380	0	27.199	0	725.503	0	9.8	4	3.1	4	-1E+10	1	-1E+10	1	-1E+10	1	-1E+10	1	-1E+10	1	-1E+10	1
4902549	85	C	12/19/2022	01:06	-133.446	47.458	0	737.90	0	3.8290	0	34.2360	0	27.201	0	730.444	0	9.8	4	3.1	4	-1E+10	1	-1E+10	1	-1E+10	1	-1E+10	1	-1E+10	1	-1E+10	1
4902549	85	C	12/19/2022	01:06	-133.446	47.458	0	743.00	0	3.8270	0	34.2380	0	27.203	0	735.483	0	9.5	4	3.0	4	-1E+10	1	-1E+10	1	-1E+10	1	-1E+10	1	-1E+10	1	-1E+10	1
4902549	85	C	12/19/2022	01:06	-133.446	47.458	0	747.60	0	3.8140	0	34.2420	0	27.208	0	740.029	0	9.3	4	2.9	4	-1E+10	1	-1E+10	1	-1E+10	1	-1E+10	1	-1E+10	1	-1E+10	1
4902549	85	C	12/19/2022	01:06	-133.446	47.458	0	752.80	0	3.8070	0	34.2460	0	27.212	0	745.167	0	9.1	4	2.8	4	-1E+10	1	-1E+10	1	-1E+10	1	-1E+10	1	-1E+10	1	-1E+10	1
4902549	85	C	12/19/2022	01:06	-133.446	47.458	0	758.10	0	3.7840	0	34.2490	0	27.216	0	750.404	0	8.8	4	2.7	4	-1E+10	1	-1E+10	1	-1E+10	1	-1E+10	1	-1E+10	1	-1E+10	1
4902549	85	C	12/19/2022	01:06	-133.446	47.458	0	762.90	0	3.7880	0	34.2540	0	27.220	0	755.146	0	8.3	4	2.6	4	-1E+10	1	-1E+10	1	-1E+10	1	-1E+10	1	-1E+10	1	-1E+10	1
4902549	85	C	12/19/2022	01:06	-133.446	47.458	0	767.90	0	3.7850	0	34.2590	0	27.224	0	760.086	0	8.0	4	2.5	4	-1E+10	1	-1E+10	1	-1E+10	1	-1E+10	1	-1E+10	1	-1E+10	1
4902549	85	C	12/19/2022	01:06	-133.446	47.458	0	772.90	0	3.7940	0	34.2650	0	27.228	0	765.026	0	7.8	4	2.5	4	-1E+10	1	-1E+10	1	-1E+10	1	-1E+10	1	-1E+10	1	-1E+10	1
4902549	85	C	12/19/2022	01:06	-133.446	47.458	0	777.80	0	3.7900	0	34.2680	0	27.231	0	769.867	0	7.8	4	2.5	4	-1E+10	1	-1E+10	1	-1E+10	1	-1E+10	1	-1E+10	1	-1E+10	1
4902549	85	C	12/19/2022	01:06	-133.446	47.458	0	782.80	0	3.7480	0	34.2690	0	27.236	0	774.807	0	7.9	4	2.5	4	-1E+10	1	-1E+10	1	-1E+10	1	-1E+10	1	-1E+10	1	-1E+10	1
4902549	85	C	12/19/2022	01:06	-133.446	47.458	0	787.70	0	3.7480	0	34.2720	0	27.238	0	779.648	0	7.7	4	2.4	4	-1E+10	1	-1E+10	1	-1E+10	1	-1E+10	1	-1E+10	1	-1E+10	1
4902549	85	C	12/19/2022	01:06	-133.446	47.458	0	792.80	0	3.7170	0	34.2720	0	27.241	0	784.686	0	7.8	4	2.4	4	-1E+10	1	-1E+10	1	-1E+10	1	-1E+10	1	-1E+10	1	-1E+10	1
4902549	85	C	12/19/2022	01:06	-133.446	47.458	0	798.00	0	3.7240	0	34.2760	0	27.244	0	789.823	0	7.5	4	2.4	4	-1E+10	1	-1E+10	1	-1E+10	1	-1E+10	1	-1E+10	1	-1E+10	1
4902549	85	C	12/19/2022	01:06	-133.446	47.458	0	803.00	0	3.6990	0	34.2760	0	27.246	0	794.762	0	7.4	4	2.3	4	-1E+10	1	-1E+10	1	-1E+10	1	-1E+10	1	-1E+10	1	-1E+10	1
4902549	85	C	12/19/2022	01:06	-133.446	47.458	0	808.10	0	3.6890	0	34.2800	0	27.251	0	799.800	0	6.9	4	2.2	4	-1E+10	1	-1E+10	1	-1E+10	1	-1E+10	1	-1E+10	1	-1E+10	1
4902549	85	C	12/19/2022	01:06	-133.446	47.458	0	813.30	0	3.7160	0	34.2890	0	27.255	0	804.937	0	6.5	4	2.1	4	-1E+10	1	-1E+10	1	-1E+10	1	-1E+10	1	-1E+10	1	-1E+10	1
4902549	85	C	12/19/2022	01:06	-133.446	47.458	0	818.00	0	3.7200	0	34.2920	0	27.257	0	809.579	0	6.5	4	2.1	4	-1E+10	1	-1E+10	1	-1E+10	1	-1E+10	1	-1E+10	1	-1E+10	1
4902549	85	C	12/19/2022	01:06	-133.446	47.458	0	822.80	0	3.7100	0	34.2960	0	27.261	0	814.321	0	6.7	4	2.1	4	-1E+10	1	-1E+10	1	-1E+10	1	-1E+10	1	-1E+10	1	-1E+10	1
4902549	85	C	12/19/2022	01:06	-133.446	47.458	0	828.10	0	3.6540	0	34.2930	0	27.265	0	819.556	0	7.1	4	2.2	4	-1E+10	1	-1E+10	1	-1E+10	1	-1E+10	1	-1E+10	1	-1E+10	1
4902549	85	C	12/19/2022	01:06	-133.446	47.458	0	833.10	0	3.6000	0	34.2890	0	27.267	0	824.494	0	6.8	4	2.1	4	-1E+10	1	-1E+10	1	-1E+10	1	-1E+10	1	-1E+10	1	-1E+10	1
4902549	85	C	12/19/2022	01:06	-133.446	47.458	0	838.00	0	3.6240	0	34.2990	0	27.272	0	829.334	0	6.5	4	2.0	4	-1E+10	1	-1E+10	1	-1E+10	1	-1E+10	1	-1E+10	1	-1E+10	1
4902549	85	C	12/19/2022	01:06	-133.446	47.458	0	843.00	0	3.6270	0	34.3040	0	27.276	0	834.272	0	6.3	4	2.0	4	-1E+10	1	-1E+10	1	-1E+10	1	-1E+10	1	-1E+10	1	-1E+10	1
4902549	85	C	12/19/2022	01:06	-133.446	47.458	0	848.00	0	3.6200	0	34.3070	0	27.279	0	839.210	0	6.3	4	2.0	4	-1E+10	1	-1E+10	1	-1E+10	1	-1E+10	1	-1E+10	1	-1E+10	1
4902549	85	C	12/19/2022	01:06	-133.446	47.458	0	853.20	0	3.6130	0	34.3080	0	27.281	0	844.346	0	6.3	4	2.0	4	-1E+10	1	-1E+10	1	-1E+10	1	-1E+10	1	-1E+10	1	-1E+10	1
4902549	85	C	12/19/2022	01:06	-133.446	47.458	0	857.80	0	3.6030	0	34.3110	0	27.284	0	848.889	0	6.2	4	1.9	4	-1E+10	1	-1E+10	1	-1E+10	1	-1E+10	1	-1E+10	1	-1E+10	1
4902549	85	C	12/19/2022	01:06	-133.446	47.458	0	862.90	0	3.5910	0	34.3140	0	27.288	0	853.926	0	6.2	4	1.9	4	-1E+10	1	-1E+10	1	-1E+10	1	-1E+10	1	-1E+10	1	-1E+10	1
4902549	85	C	12/19/2022	01:06	-133.446	47.458	0	868.10	0	3.5700	0	34.3190	0	27.294	0	859.061	0	6.1	4	1.9	4	-1E+10	1	-1E+10	1	-1E+10	1	-1E+10	1	-1E+10	1	-1E+10	1
4902549	85	C	12/19/2022	01:06	-133.446	47.458	0	872.80	0	3.5660	0	34.3200	0	27.295	0	863.702	0	6.1	4	1.9	4	-1E+10	1	-1E+10	1	-1E+10	1	-1E+10	1	-1E+10	1	-1E+10	1
4902549	85	C	12/19/2022	01:06	-133.446	47.458	0	878.00	0	3.5660	0	34.3200	0	27.295	0	868.837	0	6.0	4	1.9	4	-1E+10	1	-1E+10	1	-1E+10	1	-1E+10	1	-1E+10	1	-1E+10	1
4902549	85	C	12/19/2022	01:06	-133.446	47.458	0	883.20	0	3.5670	0	34.3230	0	27.297	0	873.972	0	6.0	4	1.9	4	-1E+10	1	-1E+10	1	-1E+10	1	-1E+10	1	-1E+10	1	-1E+10	1
4902549	85	C	12/19/2022	01:06	-133.446	47.458	0	888.10	0	3.5500	0	34.3250	0	27.301	0	878.810	0	6.0	4	1.9	4	-1E+10	1	-1E+10	1	-1E+10	1	-1E+10	1	-1E+10	1	-1E+10	1
4902549	85	C	12/19/2022	01:06	-133.446	47.458	0	892.80	0	3.5400	0	34.3270	0	27.303	0	883.451	0	5.9	4	1.9	4	-1E+10	1	-1E+10	1	-1E+10	1	-1E+10	1	-1E+10	1	-1E+10	1
4902549	85	C	12/19/2022	01:06	-133.446	47.458	0	898.00	0	3.5300	0	34.3320	0	27.308	0	888.586	0	5.9	4	1.8	4	-1E+10	1	-1E+10	1	-1E+10	1	-1E+10	1	-1E+10	1	-1E+10	1
4902549	85	C	12/19/2022	01:06	-133.446	47.458	0	903.10	0	3.5180	0	34.3350	0	27.312	0	893.622	0	5.9	4	1.8	4	-1E+10	1	-1E+10	1	-1E+10	1	-1E+10	1	-1E+10	1	-1E+10	1
4902549	85	C	12/19/2022	01:06	-133.446	47.458	0	907.80	0	3.5040	0	34.3390	0	27.316	0	898.262	0	5.9	4	1.8	4	-1E+10	1	-1E+10	1	-1E+10	1	-1E+10	1	-1E+10	1	-1E+10	1
4902549	85	C	12/19/2022	01:06	-133.446	47.458	0	913.00	0	3.4950	0	34.3420	0	27.320	0	903.396	0	5.9	4	1.8	4	-1E+10	1	-1E+10	1	-1E+10	1	-1E+10	1	-1E+10	1	-1E+10	1
4902549	85	C	12/19/2022	01:06	-133.446	47.458	0	918.30	0	3.4910	0	34.3430	0	27.321	0	908.629	0	5.9	4	1.8	4	-1E+10	1	-1E+10	1	-1E+10	1	-1E+10	1	-1E+10	1	-1E+10	1
4902549	85	C	12/19/2022	01:06	-133.446	47.458	0	923.10	0	3.4860	0	34.3440	0	27.322	0	913.368	0	5.9	4	1.8	4	-1E+10	1	-1E+10	1	-1E+10	1	-1E+10	1	-1E+10	1	-1E+10	1
4902549	85	C	12/19/2022	01:06	-133.446	47.458	0	928.00	0	3.4710	0	34.3460	0	27.325	0	918.206	0	5.9	4	1.9	4	-1E+10	1	-1E+10	1	-1E+10	1	-1E+10	1	-1E+10	1	-1E+10	1
4902549	85	C	12/19/2022	01:06	-133.446	47.458	0	933.00	0	3.4590	0	34.3500	0	27.330	0	923.142	0	6.0	4	1.9	4	-1E+10	1	-1E+10	1	-1E+10	1	-1E+10	1	-1E+10	1	-1E+10	1
4902549	85	C	12/19/2022	01:06	-133.446	47.458	0	937.90	0	3.4450	0	34.3530	0	27.333	0	927.979	0	6.0	4	1.9	4	-1E+10	1	-1E+10	1	-1E+10	1	-1E+10	1	-1E+10	1	-1E+10	1
4902549	85	C	12/19/2022	01:06	-133.446	47.458	0	942.90	0	3.4340	0	34.3550	0	27.336	0	932.915	0	6.0	4	1.9	4	-1E+10	1	-1E+10	1	-1E+10	1	-1E+10	1	-1E+10	1	-1E+10	1
4902549	85	C	12/19/2022	01:06	-133.446	47.458	0	948.00	0	3.4220	0	34.3560	0	27.338	0	937.950	0	6.0	4	1.9	4	-1E+10	1	-1E+10	1	-1E+10	1	-1E+10	1	-1E+10	1	-1E+10	1
4902549	85	C	12/19/2022	01:06	-133.446	47.458	0	953.10	0	3.4160	0	34.3570	0	27.339	0	942.984	0	6.0	4	1.9	4	-1E+10	1	-1E+10	1	-1E+10	1	-1E+10	1	-1E+10	1	-1E+10	1
4902549	85	C	12/19/2022	01:06	-133.446	47.458	0	958.20	0	3.4060	0	34.3590	0	27.342	0	948.019	0	6.1	4	1.9	4	-1E+10	1	-1E+10	1	-1E+10	1	-1E+10	1	-1E+10	1	-1E+10	1
4902549	85	C	12/19/2022	01:06	-133.446	47.458	0	963.30	0	3.3910	0	34.3630	0	27.347	0	953.053	0	6.1	4	1.9	4	-1E+10	1	-1E+10	1	-1E+10	1	-1E+10	1	-1E+10	1	-1E+10	1
4902549	85	C	12/19/2022	01:06	-133.446	47.458	0	967.90	0	3.3860	0	34.3650	0	27.349	0	957.593	0	6.2	4	1.9	4	-1E+10	1	-1E+10	1	-1E+10	1	-1E+10	1	-1E+10	1	-1E+10	1
4902549	85	C	12/19/2022	01:06	-133.446	47.458	0	972.60	0	3.3830	0	34.3660	0	27.350	0	962.232	0	6.2	4	1.9	4	-1E+10	1	-1E+10	1	-1E+10	1	-1E+10	1	-1E+10	1	-1E+10	1
4902549	85	C	12/19/2022	01:06	-133.446	47.458	0	977.70	0	3.3690	0	34.3690	0	27.354	0	967.266	0	6.2	4	1.9	4	-1E+10	1	-1E+10	1	-1E+10	1	-1E+10	1	-1E+10	1	-1E+10	1
4902549	85	C	12/19/2022	01:06	-133.446	47.458	0	982.90	0	3.3560	0	34.3710	0	27.356	0	972.399	0	6.3	4	2.0	4	-1E+10	1	-1E+10	1	-1E+10	1	-1E+10	1	-1E+10	1	-1E+10	1
4902549	85	C	12/19/2022	01:06	-133.446	47.458	0	987.90	0	3.3430	0	34.3730	0	27.359	0	977.334	0	6.3	4	2.0	4	-1E+10	1	-1E+10	1	-1E+10	1	-1E+10	1	-1E+10	1	-1E+10	1
4902549	85	C	12/19/2022	01:06	-133.446	47.458	0	992.70	0	3.3360	0	34.3750	0	27.362	0	982.071	0	6.4	4	2.0	4	-1E+10	1	-1E+10	1	-1E+10	1	-1E+10	1	-1E+10	1	-1E+10	1
4902549	85	C	12/19/2022	01:06	-133.446	47.458	0	997.90	0	3.3250	0	34.3760	0	27.363	0	987.203	0	6.4	4	2.0	4	-1E+10	1	-1E+10	1	-1E+10	1	-1E+10	1	-1E+10	1	-1E+10	1
4902549	85	C	12/19/2022	01:06	-133.446	47.458	0	1005.60	0	3.3050	0	34.3780	0	27.367	0	994.802	0	6.5	4	2.0	4	-1E+10	1	-1E+10	1	-1E+10	1	-1E+10	1	-1E+10	1	-1E+10	1
4902549	85	C	12/19/2022	01:06	-133.446	47.458	0	1015.60	0	3.2870	0	34.3810	0	27.371	0	1004.671	0	6.6	4	2.1	4	-1E+10	1	-1E+10	1	-1E+10	1	-1E+10	1	-1E+10	1	-1E+10	1
4902549	85	C	12/19/2022	01:06	-133.446	47.458	0	1025.60	0	3.2660	0	34.3860	0	27.377	0	1014.539	0	6.8	4	2.1	4	-1E+10	1	-1E+10	1	-1E+10	1	-1E+10	1	-1E+10	1	-1E+10	1
4902549	85	C	12/19/2022	01:06	-133.446	47.458	0	1035.40	0	3.2390	0	34.3910	0	27.384	0	1024.210	0	6.9	4	2.1	4	-1E+10	1	-1E+10	1	-1E+10	1	-1E+10	1	-1E+10	1	-1E+10	1
4902549	85	C	12/19/2022	01:06	-133.446	47.458	0	1045.00	0	3.2260	0	34.3930	0	27.387	0	1033.682	0	7.0	4	2.2	4	-1E+10	1	-1E+10	1	-1E+10	1	-1E+10	1	-1E+10	1	-1E+10	1
4902549	85	C	12/19/2022	01:06	-133.446	47.458	0	1055.10	0	3.2130	0	34.3950	0	27.389	0	1043.648	0	7.1	4	2.2	4	-1E+10	1	-1E+10	1	-1E+10	1	-1E+10	1	-1E+10	1	-1E+10	1
4902549	85	C	12/19/2022	01:06	-133.446	47.458	0	1065.40	0	3.1900	0	34.3980	0	27.394	0	1053.810	0	7.3	4	2.3	4	-1E+10	1	-1E+10	1	-1E+10	1	-1E+10	1	-1E+10	1	-1E+10	1
4902549	85	C	12/19/2022	01:06	-133.446	47.458	0	1075.20	0	3.1570	0	34.4020	0	27.400	0	1063.479	0	7.5	4	2.3	4	-1E+10	1	-1E+10	1	-1E+10	1	-1E+10	1	-1E+10	1	-1E+10	1
4902549	85	C	12/19/2022	01:06	-133.446	47.458	0	1085.30	0	3.1220	0	34.4060	0	27.407	0	1073.443	0	7.7	4	2.4	4	-1E+10	1	-1E+10	1	-1E+10	1	-1E+10	1	-1E+10	1	-1E+10	1
4902549	85	C	12/19/2022	01:06	-133.446	47.458	0	1095.60	0	3.1010	0	34.4090	0	27.411	0	1083.604	0	7.8	4	2.4	4	-1E+10	1	-1E+10	1	-1E+10	1	-1E+10	1	-1E+10	1	-1E+10	1
4902549	85	C	12/19/2022	01:06	-133.446	47.458	0	1105.50	0	3.0800	0	34.4110	0	27.415	0	1093.369	0	7.9	4	2.5	4	-1E+10	1	-1E+10	1	-1E+10	1	-1E+10	1	-1E+10	1	-1E+10	1
4902549	85	C	12/19/2022	01:06	-133.446	47.458	0	1115.60	0	3.0590	0	34.4140	0	27.419	0	1103.332	0	8.1	4	2.5	4	-1E+10	1	-1E+10	1	-1E+10	1	-1E+10	1	-1E+10	1	-1E+10	1
4902549	85	C	12/19/2022	01:06	-133.446	47.458	0	1125.30	0	3.0410	0	34.4170	0	27.423	0	1112.900	0	8.4	4	2.6	4	-1E+10	1	-1E+10	1	-1E+10	1	-1E+10	1	-1E+10	1	-1E+10	1
4902549	85	C	12/19/2022	01:06	-133.446	47.458	0	1135.20	0	3.0220	0	34.4210	0	27.428	0	1122.664	0	8.6	4	2.7	4	-1E+10	1	-1E+10	1	-1E+10	1	-1E+10	1	-1E+10	1	-1E+10	1
4902549	85	C	12/19/2022	01:06	-133.446	47.458	0	1145.30	0	2.9980	0	34.4250	0	27.433	0	1132.625	0	8.9	4	2.7	4	-1E+10	1	-1E+10	1	-1E+10	1	-1E+10	1	-1E+10	1	-1E+10	1
4902549	85	C	12/19/2022	01:06	-133.446	47.458	0	1155.40	0	2.9820	0	34.4270	0	27.437	0	1142.586	0	9.1	4	2.8	4	-1E+10	1	-1E+10	1	-1E+10	1	-1E+10	1	-1E+10	1	-1E+10	1
4902549	85	C	12/19/2022	01:06	-133.446	47.458	0	1165.60	0	2.9610	0	34.4310	0	27.442	0	1152.645	0	9.4	4	2.9	4	-1E+10	1	-1E+10	1	-1E+10	1	-1E+10	1	-1E+10	1	-1E+10	1
4902549	85	C	12/19/2022	01:06	-133.446	47.458	0	1175.40	0	2.9460	0	34.4350	0	27.446	0	1162.309	0	9.6	4	3.0	4	-1E+10	1	-1E+10	1	-1E+10	1	-1E+10	1	-1E+10	1	-1E+10	1
4902549	85	C	12/19/2022	01:06	-133.446	47.458	0	1185.40	0	2.9260	0	34.4370	0	27.450	0	1172.170	0	9.9	4	3.0	4	-1E+10	1	-1E+10	1	-1E+10	1	-1E+10	1	-1E+10	1	-1E+10	1
4902549	85	C	12/19/2022	01:06	-133.446	47.458	0	1195.50	0	2.9060	0	34.4390	0	27.453	0	1182.129	0	10.1	4	3.1	4	-1E+10	1	-1E+10	1	-1E+10	1	-1E+10	1	-1E+10	1	-1E+10	1
4902549	85	C	12/19/2022	01:06	-133.446	47.458	0	1205.80	0	2.8870	0	34.4420	0	27.457	0	1192.284	0	10.5	4	3.2	4	-1E+10	1	-1E+10	1	-1E+10	1	-1E+10	1	-1E+10	1	-1E+10	1
4902549	85	C	12/19/2022	01:06	-133.446	47.458	0	1215.90	0	2.8670	0	34.4460	0	27.462	0	1202.242	0	10.8	4	3.3	4	-1E+10	1	-1E+10	1	-1E+10	1	-1E+10	1	-1E+10	1	-1E+10	1
4902549	85	C	12/19/2022	01:06	-133.446	47.458	0	1225.20	0	2.8530	0	34.4490	0	27.466	0	1211.411	0	11.2	4	3.4	4	-1E+10	1	-1E+10	1	-1E+10	1	-1E+10	1	-1E+10	1	-1E+10	1
4902549	85	C	12/19/2022	01:06	-133.446	47.458	0	1235.40	0	2.8380	0	34.4520	0	27.470	0	1221.467	0	11.5	4	3.5	4	-1E+10	1	-1E+10	1	-1E+10	1	-1E+10	1	-1E+10	1	-1E+10	1
4902549	85	C	12/19/2022	01:06	-133.446	47.458	0	1245.40	0	2.8200	0	34.4550	0	27.474	0	1231.325	0	11.8	4	3.6	4	-1E+10	1	-1E+10	1	-1E+10	1	-1E+10	1	-1E+10	1	-1E+10	1
4902549	85	C	12/19/2022	01:06	-133.446	47.458	0	1255.40	0	2.8060	0	34.4580	0	27.478	0	1241.182	0	12.1	4	3.7	4	-1E+10	1	-1E+10	1	-1E+10	1	-1E+10	1	-1E+10	1	-1E+10	1
4902549	85	C	12/19/2022	01:06	-133.446	47.458	0	1265.40	0	2.8010	0	34.4590	0	27.479	0	1251.039	0	12.3	4	3.8	4	-1E+10	1	-1E+10	1	-1E+10	1	-1E+10	1	-1E+10	1	-1E+10	1
4902549	85	C	12/19/2022	01:06	-133.446	47.458	0	1275.30	0	2.7920	0	34.4610	0	27.481	0	1260.797	0	12.6	4	3.9	4	-1E+10	1	-1E+10	1	-1E+10	1	-1E+10	1	-1E+10	1	-1E+10	1
4902549	85	C	12/19/2022	01:06	-133.446	47.458	0	1285.40	0	2.7680	0	34.4630	0	27.485	0	1270.752	0	12.9	4	4.0	4	-1E+10	1	-1E+10	1	-1E+10	1	-1E+10	1	-1E+10	1	-1E+10	1
4902549	85	C	12/19/2022	01:06	-133.446	47.458	0	1295.30	0	2.7560	0	34.4650	0	27.488	0	1280.509	0	13.1	4	4.0	4	-1E+10	1	-1E+10	1	-1E+10	1	-1E+10	1	-1E+10	1	-1E+10	1
4902549	85	C	12/19/2022	01:06	-133.446	47.458	0	1305.30	0	2.7400	0	34.4670	0	27.491	0	1290.364	0	13.5	4	4.1	4	-1E+10	1	-1E+10	1	-1E+10	1	-1E+10	1	-1E+10	1	-1E+10	1
4902549	85	C	12/19/2022	01:06	-133.446	47.458	0	1315.50	0	2.7290	0	34.4690	0	27.493	0	1300.416	0	13.9	4	4.3	4	-1E+10	1	-1E+10	1	-1E+10	1	-1E+10	1	-1E+10	1	-1E+10	1
4902549	85	C	12/19/2022	01:06	-133.446	47.458	0	1325.30	0	2.7090	0	34.4720	0	27.498	0	1310.073	0	14.3	4	4.4	4	-1E+10	1	-1E+10	1	-1E+10	1	-1E+10	1	-1E+10	1	-1E+10	1
4902549	85	C	12/19/2022	01:06	-133.446	47.458	0	1335.20	0	2.6900	0	34.4740	0	27.501	0	1319.828	0	14.6	4	4.5	4	-1E+10	1	-1E+10	1	-1E+10	1	-1E+10	1	-1E+10	1	-1E+10	1
4902549	85	C	12/19/2022	01:06	-133.446	47.458	0	1345.60	0	2.6730	0	34.4760	0	27.504	0	1330.076	0	15.0	4	4.6	4	-1E+10	1	-1E+10	1	-1E+10	1	-1E+10	1	-1E+10	1	-1E+10	1
4902549	85	C	12/19/2022	01:06	-133.446	47.458	0	1355.50	0	2.6580	0	34.4790	0	27.508	0	1339.830	0	15.4	4	4.7	4	-1E+10	1	-1E+10	1	-1E+10	1	-1E+10	1	-1E+10	1	-1E+10	1
4902549	85	C	12/19/2022	01:06	-133.446	47.458	0	1365.50	0	2.6340	0	34.4810	0	27.511	0	1349.683	0	15.4	4	4.7	4	-1E+10	1	-1E+10	1	-1E+10	1	-1E+10	1	-1E+10	1	-1E+10	1
4902549	85	C	12/19/2022	01:06	-133.446	47.458	0	1376.00	0	2.5810	0	34.4790	0	27.514	0	1360.027	0	14.8	4	4.5	4	-1E+10	1	-1E+10	1	-1E+10	1	-1E+10	1	-1E+10	1	-1E+10	1
4902549	85	C	12/19/2022	01:06	-133.446	47.458	0	1385.40	0	2.5300	0	34.4750	0	27.515	0	1369.288	0	14.7	4	4.5	4	-1E+10	1	-1E+10	1	-1E+10	1	-1E+10	1	-1E+10	1	-1E+10	1
4902549	85	C	12/19/2022	01:06	-133.446	47.458	0	1395.50	0	2.5240	0	34.4750	0	27.516	0	1379.237	0	14.9	4	4.6	4	-1E+10	1	-1E+10	1	-1E+10	1	-1E+10	1	-1E+10	1	-1E+10	1
4902549	85	C	12/19/2022	01:06	-133.446	47.458	0	1405.40	0	2.5100	0	34.4770	0	27.519	0	1388.989	0	15.4	4	4.7	4	-1E+10	1	-1E+10	1	-1E+10	1	-1E+10	1	-1E+10	1	-1E+10	1
4902549	85	C	12/19/2022	01:06	-133.446	47.458	0	1415.10	0	2.5010	0	34.4790	0	27.521	0	1398.544	0	15.7	4	4.8	4	-1E+10	1	-1E+10	1	-1E+10	1	-1E+10	1	-1E+10	1	-1E+10	1
4902549	85	C	12/19/2022	01:06	-133.446	47.458	0	1425.20	0	2.4940	0	34.4810	0	27.524	0	1408.492	0	16.1	4	4.9	4	-1E+10	1	-1E+10	1	-1E+10	1	-1E+10	1	-1E+10	1	-1E+10	1
4902549	85	C	12/19/2022	01:06	-133.446	47.458	0	1435.50	0	2.4770	0	34.4830	0	27.527	0	1418.637	0	16.5	4	5.0	4	-1E+10	1	-1E+10	1	-1E+10	1	-1E+10	1	-1E+10	1	-1E+10	1
4902549	85	C	12/19/2022	01:06	-133.446	47.458	0	1445.50	0	2.4700	0	34.4850	0	27.529	0	1428.485	0	16.9	4	5.2	4	-1E+10	1	-1E+10	1	-1E+10	1	-1E+10	1	-1E+10	1	-1E+10	1
4902549	85	C	12/19/2022	01:06	-133.446	47.458	0	1455.20	0	2.4600	0	34.4870	0	27.531	0	1438.038	0	17.4	4	5.3	4	-1E+10	1	-1E+10	1	-1E+10	1	-1E+10	1	-1E+10	1	-1E+10	1
4902549	85	C	12/19/2022	01:06	-133.446	47.458	0	1465.10	0	2.4510	0	34.4900	0	27.535	0	1447.788	0	17.8	4	5.4	4	-1E+10	1	-1E+10	1	-1E+10	1	-1E+10	1	-1E+10	1	-1E+10	1
4902549	85	C	12/19/2022	01:06	-133.446	47.458	0	1475.10	0	2.4480	0	34.4920	0	27.536	0	1457.635	0	18.3	4	5.6	4	-1E+10	1	-1E+10	1	-1E+10	1	-1E+10	1	-1E+10	1	-1E+10	1
4902549	85	C	12/19/2022	01:06	-133.446	47.458	0	1485.10	0	2.4370	0	34.4940	0	27.539	0	1467.482	0	18.8	4	5.7	4	-1E+10	1	-1E+10	1	-1E+10	1	-1E+10	1	-1E+10	1	-1E+10	1
4902549	85	C	12/19/2022	01:06	-133.446	47.458	0	1495.10	0	2.4240	0	34.4960	0	27.542	0	1477.328	0	19.4	4	5.9	4	-1E+10	1	-1E+10	1	-1E+10	1	-1E+10	1	-1E+10	1	-1E+10	1
4902549	85	C	12/19/2022	01:06	-133.446	47.458	0	1505.30	0	2.4090	0	34.4990	0	27.545	0	1487.371	0	19.7	4	6.0	4	-1E+10	1	-1E+10	1	-1E+10	1	-1E+10	1	-1E+10	1	-1E+10	1
4902549	85	C	12/19/2022	01:06	-133.446	47.458	0	1515.60	0	2.3960	0	34.5000	0	27.547	0	1497.512	0	20.0	4	6.1	4	-1E+10	1	-1E+10	1	-1E+10	1	-1E+10	1	-1E+10	1	-1E+10	1
4902549	85	C	12/19/2022	01:06	-133.446	47.458	0	1525.60	0	2.3790	0	34.5010	0	27.550	0	1507.357	0	20.3	4	6.2	4	-1E+10	1	-1E+10	1	-1E+10	1	-1E+10	1	-1E+10	1	-1E+10	1
4902549	85	C	12/19/2022	01:06	-133.446	47.458	0	1535.20	0	2.3620	0	34.5030	0	27.553	0	1516.808	0	20.8	4	6.3	4	-1E+10	1	-1E+10	1	-1E+10	1	-1E+10	1	-1E+10	1	-1E+10	1
4902549	85	C	12/19/2022	01:06	-133.446	47.458	0	1545.30	0	2.3530	0	34.5050	0	27.555	0	1526.750	0	21.5	4	6.5	4	-1E+10	1	-1E+10	1	-1E+10	1	-1E+10	1	-1E+10	1	-1E+10	1
4902549	85	C	12/19/2022	01:06	-133.446	47.458	0	1555.50	0	2.3460	0	34.5070	0	27.557	0	1536.791	0	22.0	4	6.7	4	-1E+10	1	-1E+10	1	-1E+10	1	-1E+10	1	-1E+10	1	-1E+10	1
4902549	85	C	12/19/2022	01:06	-133.446	47.458	0	1565.60	0	2.3320	0	34.5090	0	27.560	0	1546.732	0	22.7	4	6.9	4	-1E+10	1	-1E+10	1	-1E+10	1	-1E+10	1	-1E+10	1	-1E+10	1
4902549	85	C	12/19/2022	01:06	-133.446	47.458	0	1575.60	0	2.3230	0	34.5120	0	27.563	0	1556.575	0	23.3	4	7.1	4	-1E+10	1	-1E+10	1	-1E+10	1	-1E+10	1	-1E+10	1	-1E+10	1
4902549	85	C	12/19/2022	01:06	-133.446	47.458	0	1585.50	0	2.3070	0	34.5140	0	27.566	0	1566.319	0	24.1	4	7.3	4	-1E+10	1	-1E+10	1	-1E+10	1	-1E+10	1	-1E+10	1	-1E+10	1
4902549	85	C	12/19/2022	01:06	-133.446	47.458	0	1595.40	0	2.2870	0	34.5170	0	27.570	0	1576.062	0	25.0	4	7.6	4	-1E+10	1	-1E+10	1	-1E+10	1	-1E+10	1	-1E+10	1	-1E+10	1
4902549	85	C	12/19/2022	01:06	-133.446	47.458	0	1605.30	0	2.2680	0	34.5190	0	27.574	0	1585.805	0	25.8	4	7.8	4	-1E+10	1	-1E+10	1	-1E+10	1	-1E+10	1	-1E+10	1	-1E+10	1
4902549	85	C	12/19/2022	01:06	-133.446	47.458	0	1615.20	0	2.2530	0	34.5230	0	27.578	0	1595.548	0	26.6	4	8.1	4	-1E+10	1	-1E+10	1	-1E+10	1	-1E+10	1	-1E+10	1	-1E+10	1
4902549	85	C	12/19/2022	01:06	-133.446	47.458	0	1625.20	0	2.2400	0	34.5250	0	27.581	0	1605.388	0	27.3	4	8.3	4	-1E+10	1	-1E+10	1	-1E+10	1	-1E+10	1	-1E+10	1	-1E+10	1
4902549	85	C	12/19/2022	01:06	-133.446	47.458	0	1635.20	0	2.2300	0	34.5270	0	27.583	0	1615.228	0	27.9	4	8.4	4	-1E+10	1	-1E+10	1	-1E+10	1	-1E+10	1	-1E+10	1	-1E+10	1
4902549	85	C	12/19/2022	01:06	-133.446	47.458	0	1645.30	0	2.2180	0	34.5280	0	27.585	0	1625.166	0	28.5	4	8.6	4	-1E+10	1	-1E+10	1	-1E+10	1	-1E+10	1	-1E+10	1	-1E+10	1
4902549	85	C	12/19/2022	01:06	-133.446	47.458	0	1655.50	0	2.2080	0	34.5300	0	27.587	0	1635.202	0	29.0	4	8.8	4	-1E+10	1	-1E+10	1	-1E+10	1	-1E+10	1	-1E+10	1	-1E+10	1
4902549	85	C	12/19/2022	01:06	-133.446	47.458	0	1665.50	0	2.2010	0	34.5310	0	27.589	0	1645.041	0	29.5	4	8.9	4	-1E+10	1	-1E+10	1	-1E+10	1	-1E+10	1	-1E+10	1	-1E+10	1
4902549	85	C	12/19/2022	01:06	-133.446	47.458	0	1675.60	0	2.1910	0	34.5330	0	27.591	0	1654.977	0	30.1	4	9.1	4	-1E+10	1	-1E+10	1	-1E+10	1	-1E+10	1	-1E+10	1	-1E+10	1
4902549	85	C	12/19/2022	01:06	-133.446	47.458	0	1685.80	0	2.1800	0	34.5350	0	27.594	0	1665.012	0	31.0	4	9.4	4	-1E+10	1	-1E+10	1	-1E+10	1	-1E+10	1	-1E+10	1	-1E+10	1
4902549	85	C	12/19/2022	01:06	-133.446	47.458	0	1695.40	0	2.1640	0	34.5380	0	27.598	0	1674.455	0	31.9	4	9.6	4	-1E+10	1	-1E+10	1	-1E+10	1	-1E+10	1	-1E+10	1	-1E+10	1
4902549	85	C	12/19/2022	01:06	-133.446	47.458	0	1705.40	0	2.1520	0	34.5400	0	27.600	0	1684.292	0	32.6	4	9.9	4	-1E+10	1	-1E+10	1	-1E+10	1	-1E+10	1	-1E+10	1	-1E+10	1
4902549	85	C	12/19/2022	01:06	-133.446	47.458	0	1715.70	0	2.1420	0	34.5420	0	27.603	0	1694.423	0	33.2	4	10.0	4	-1E+10	1	-1E+10	1	-1E+10	1	-1E+10	1	-1E+10	1	-1E+10	1
4902549	85	C	12/19/2022	01:06	-133.446	47.458	0	1725.50	0	2.1360	0	34.5440	0	27.605	0	1704.063	0	33.7	4	10.2	4	-1E+10	1	-1E+10	1	-1E+10	1	-1E+10	1	-1E+10	1	-1E+10	1
4902549	85	C	12/19/2022	01:06	-133.446	47.458	0	1735.50	0	2.1260	0	34.5450	0	27.606	0	1713.898	0	34.3	4	10.4	4	-1E+10	1	-1E+10	1	-1E+10	1	-1E+10	1	-1E+10	1	-1E+10	1
4902549	85	C	12/19/2022	01:06	-133.446	47.458	0	1745.60	0	2.1210	0	34.5470	0	27.608	0	1723.831	0	34.8	4	10.5	4	-1E+10	1	-1E+10	1	-1E+10	1	-1E+10	1	-1E+10	1	-1E+10	1
4902549	85	C	12/19/2022	01:06	-133.446	47.458	0	1755.50	0	2.1140	0	34.5480	0	27.610	0	1733.567	0	35.4	4	10.7	4	-1E+10	1	-1E+10	1	-1E+10	1	-1E+10	1	-1E+10	1	-1E+10	1
4902549	85	C	12/19/2022	01:06	-133.446	47.458	0	1765.60	0	2.1070	0	34.5490	0	27.611	0	1743.500	0	35.8	4	10.8	4	-1E+10	1	-1E+10	1	-1E+10	1	-1E+10	1	-1E+10	1	-1E+10	1
4902549	85	C	12/19/2022	01:06	-133.446	47.458	0	1775.50	0	2.1030	0	34.5500	0	27.612	0	1753.235	0	36.6	4	11.1	4	-1E+10	1	-1E+10	1	-1E+10	1	-1E+10	1	-1E+10	1	-1E+10	1
4902549	85	C	12/19/2022	01:06	-133.446	47.458	0	1785.10	0	2.0900	0	34.5530	0	27.616	0	1762.675	0	37.5	4	11.3	4	-1E+10	1	-1E+10	1	-1E+10	1	-1E+10	1	-1E+10	1	-1E+10	1
4902549	85	C	12/19/2022	01:06	-133.446	47.458	0	1795.40	0	2.0800	0	34.5550	0	27.618	0	1772.803	0	38.3	4	11.6	4	-1E+10	1	-1E+10	1	-1E+10	1	-1E+10	1	-1E+10	1	-1E+10	1
4902549	85	C	12/19/2022	01:06	-133.446	47.458	0	1805.80	0	2.0730	0	34.5560	0	27.620	0	1783.028	0	39.1	4	11.8	4	-1E+10	1	-1E+10	1	-1E+10	1	-1E+10	1	-1E+10	1	-1E+10	1
4902549	85	C	12/19/2022	01:06	-133.446	47.458	0	1815.80	0	2.0610	0	34.5580	0	27.622	0	1792.860	0	40.1	4	12.1	4	-1E+10	1	-1E+10	1	-1E+10	1	-1E+10	1	-1E+10	1	-1E+10	1
4902549	85	C	12/19/2022	01:06	-133.446	47.458	0	1825.50	0	2.0490	0	34.5610	0	27.626	0	1802.396	0	40.7	4	12.3	4	-1E+10	1	-1E+10	1	-1E+10	1	-1E+10	1	-1E+10	1	-1E+10	1
4902549	85	C	12/19/2022	01:06	-133.446	47.458	0	1835.60	0	2.0450	0	34.5610	0	27.626	0	1812.325	0	41.3	4	12.5	4	-1E+10	1	-1E+10	1	-1E+10	1	-1E+10	1	-1E+10	1	-1E+10	1
4902549	85	C	12/19/2022	01:06	-133.446	47.458	0	1845.40	0	2.0330	0	34.5640	0	27.630	0	1821.959	0	42.1	4	12.7	4	-1E+10	1	-1E+10	1	-1E+10	1	-1E+10	1	-1E+10	1	-1E+10	1
4902549	85	C	12/19/2022	01:06	-133.446	47.458	0	1855.40	0	2.0260	0	34.5650	0	27.631	0	1831.789	0	42.7	4	12.9	4	-1E+10	1	-1E+10	1	-1E+10	1	-1E+10	1	-1E+10	1	-1E+10	1
4902549	85	C	12/19/2022	01:06	-133.446	47.458	0	1865.40	0	2.0180	0	34.5670	0	27.633	0	1841.618	0	43.2	4	13.0	4	-1E+10	1	-1E+10	1	-1E+10	1	-1E+10	1	-1E+10	1	-1E+10	1
4902549	85	C	12/19/2022	01:06	-133.446	47.458	0	1875.20	0	2.0120	0	34.5680	0	27.635	0	1851.251	0	43.8	4	13.2	4	-1E+10	1	-1E+10	1	-1E+10	1	-1E+10	1	-1E+10	1	-1E+10	1
4902549	85	C	12/19/2022	01:06	-133.446	47.458	0	1885.20	0	2.0050	0	34.5690	0	27.636	0	1861.079	0	44.4	4	13.4	4	-1E+10	1	-1E+10	1	-1E+10	1	-1E+10	1	-1E+10	1	-1E+10	1
4902549	85	C	12/19/2022	01:06	-133.446	47.458	0	1895.30	0	1.9980	0	34.5710	0	27.638	0	1871.006	0	44.9	4	13.5	4	-1E+10	1	-1E+10	1	-1E+10	1	-1E+10	1	-1E+10	1	-1E+10	1
4902549	85	C	12/19/2022	01:06	-133.446	47.458	0	1905.70	0	1.9910	0	34.5720	0	27.640	0	1881.226	0	45.6	4	13.7	4	-1E+10	1	-1E+10	1	-1E+10	1	-1E+10	1	-1E+10	1	-1E+10	1
4902549	85	C	12/19/2022	01:06	-133.446	47.458	0	1915.70	0	1.9830	0	34.5730	0	27.641	0	1891.054	0	46.2	4	13.9	4	-1E+10	1	-1E+10	1	-1E+10	1	-1E+10	1	-1E+10	1	-1E+10	1
4902549	85	C	12/19/2022	01:06	-133.446	47.458	0	1925.70	0	1.9780	0	34.5740	0	27.642	0	1900.880	0	46.7	4	14.1	4	-1E+10	1	-1E+10	1	-1E+10	1	-1E+10	1	-1E+10	1	-1E+10	1
4902549	85	C	12/19/2022	01:06	-133.446	47.458	0	1935.50	0	1.9700	0	34.5760	0	27.645	0	1910.510	0	47.3	4	14.2	4	-1E+10	1	-1E+10	1	-1E+10	1	-1E+10	1	-1E+10	1	-1E+10	1
4902549	85	C	12/19/2022	01:06	-133.446	47.458	0	1945.40	0	1.9640	0	34.5770	0	27.646	0	1920.238	0	47.8	4	14.4	4	-1E+10	1	-1E+10	1	-1E+10	1	-1E+10	1	-1E+10	1	-1E+10	1
4902549	85	C	12/19/2022	01:06	-133.446	47.458	0	1955.40	0	1.9580	0	34.5780	0	27.647	0	1930.063	0	48.1	4	14.5	4	-1E+10	1	-1E+10	1	-1E+10	1	-1E+10	1	-1E+10	1	-1E+10	1
4902549	85	C	12/19/2022	01:06	-133.446	47.458	0	1965.20	0	1.9540	0	34.5790	0	27.648	0	1939.691	0	48.4	4	14.6	4	-1E+10	1	-1E+10	1	-1E+10	1	-1E+10	1	-1E+10	1	-1E+10	1
4902549	85	C	12/19/2022	01:06	-133.446	47.458	0	1975.50	0	1.9480	0	34.5810	0	27.650	0	1949.811	0	47.9	4	14.4	4	-1E+10	1	-1E+10	1	-1E+10	1	-1E+10	1	-1E+10	1	-1E+10	1
4902549	85	C	12/19/2022	01:06	-133.446	47.458	0																										
4902549	86	C	12/29/2022	05:57	-133.451	47.592	0	0.10	0	9.5430	0	32.3270	0	24.940	0	0.099	0	262.8	4	93.0	4	-1E+10	1	-1E+10	1	-1E+10	1	-1E+10	1	-1E+10	1	-1E+10	1
4902549	86	C	12/29/2022	05:57	-133.451	47.592	0	1.00	0	9.5420	0	32.3270	0	24.940	0	0.992	0	262.8	4	92.9	4	-1E+10	1	-1E+10	1	-1E+10	1	-1E+10	1	-1E+10	1	-1E+10	1
4902549	86	C	12/29/2022	05:57	-133.451	47.592	0	2.00	0	9.5430	0	32.3270	0	24.940	0	1.983	0	262.7	4	92.9	4	-1E+10	1	-1E+10	1	-1E+10	1	-1E+10	1	-1E+10	1	-1E+10	1
4902549	86	C	12/29/2022	05:57	-133.451	47.592	0	2.90	0	9.5430	0	32.3270	0	24.940	0	2.876	0	262.8	4	93.0	4	-1E+10	1	-1E+10	1	-1E+10	1	-1E+10	1	-1E+10	1	-1E+10	1
4902549	86	C	12/29/2022	05:57	-133.451	47.592	0	3.80	0	9.5430	0	32.3280	0	24.941	0	3.768	0	262.8	4	92.9	4	-1E+10	1	-1E+10	1	-1E+10	1	-1E+10	1	-1E+10	1	-1E+10	1
4902549	86	C	12/29/2022	05:57	-133.451	47.592	0	5.10	0	9.5430	0	32.3280	0	24.941	0	5.057	0	262.8	4	92.9	4	-1E+10	1	-1E+10	1	-1E+10	1	-1E+10	1	-1E+10	1	-1E+10	1
4902549	86	C	12/29/2022	05:57	-133.451	47.592	0	6.00	0	9.5440	0	32.3280	0	24.941	0	5.950	0	262.8	4	92.9	4	-1E+10	1	-1E+10	1	-1E+10	1	-1E+10	1	-1E+10	1	-1E+10	1
4902549	86	C	12/29/2022	05:57	-133.451	47.592	0	6.70	0	9.5440	0	32.3280	0	24.941	0	6.644	0	262.7	4	92.9	4	-1E+10	1	-1E+10	1	-1E+10	1	-1E+10	1	-1E+10	1	-1E+10	1
4902549	86	C	12/29/2022	05:57	-133.451	47.592	0	7.90	0	9.5440	0	32.3280	0	24.941	0	7.834	0	262.7	4	92.9	4	-1E+10	1	-1E+10	1	-1E+10	1	-1E+10	1	-1E+10	1	-1E+10	1
4902549	86	C	12/29/2022	05:57	-133.451	47.592	0	9.20	0	9.5440	0	32.3280	0	24.941	0	9.123	0	262.7	4	92.9	4	-1E+10	1	-1E+10	1	-1E+10	1	-1E+10	1	-1E+10	1	-1E+10	1
4902549	86	C	12/29/2022	05:57	-133.451	47.592	0	9.90	0	9.5440	0	32.3280	0	24.941	0	9.817	0	262.7	4	92.9	4	-1E+10	1	-1E+10	1	-1E+10	1	-1E+10	1	-1E+10	1	-1E+10	1
4902549	86	C	12/29/2022	05:57	-133.451	47.592	0	11.10	0	9.5400	0	32.3290	0	24.943	0	11.007	0	262.7	4	92.9	4	-1E+10	1	-1E+10	1	-1E+10	1	-1E+10	1	-1E+10	1	-1E+10	1
4902549	86	C	12/29/2022	05:57	-133.451	47.592	0	11.90	0	9.5410	0	32.3300	0	24.943	0	11.800	0	262.8	4	92.9	4	-1E+10	1	-1E+10	1	-1E+10	1	-1E+10	1	-1E+10	1	-1E+10	1
4902549	86	C	12/29/2022	05:57	-133.451	47.592	0	12.70	0	9.5410	0	32.3290	0	24.942	0	12.594	0	262.7	4	92.9	4	-1E+10	1	-1E+10	1	-1E+10	1	-1E+10	1	-1E+10	1	-1E+10	1
4902549	86	C	12/29/2022	05:57	-133.451	47.592	0	13.70	0	9.5420	0	32.3290	0	24.942	0	13.585	0	262.7	4	92.9	4	-1E+10	1	-1E+10	1	-1E+10	1	-1E+10	1	-1E+10	1	-1E+10	1
4902549	86	C	12/29/2022	05:57	-133.451	47.592	0	14.80	0	9.5430	0	32.3290	0	24.942	0	14.676	0	262.7	4	92.9	4	-1E+10	1	-1E+10	1	-1E+10	1	-1E+10	1	-1E+10	1	-1E+10	1
4902549	86	C	12/29/2022	05:57	-133.451	47.592	0	16.10	0	9.5430	0	32.3070	0	24.925	0	15.965	0	262.8	4	92.9	4	-1E+10	1	-1E+10	1	-1E+10	1	-1E+10	1	-1E+10	1	-1E+10	1
4902549	86	C	12/29/2022	05:57	-133.451	47.592	0	17.00	0	9.5430	0	32.3280	0	24.941	0	16.857	0	262.6	4	92.9	4	-1E+10	1	-1E+10	1	-1E+10	1	-1E+10	1	-1E+10	1	-1E+10	1
4902549	86	C	12/29/2022	05:57	-133.451	47.592	0	18.00	0	9.5380	0	32.3300	0	24.944	0	17.849	0	262.7	4	92.9	4	-1E+10	1	-1E+10	1	-1E+10	1	-1E+10	1	-1E+10	1	-1E+10	1
4902549	86	C	12/29/2022	05:57	-133.451	47.592	0	19.10	0	9.5390	0	32.3300	0	24.944	0	18.940	0	262.7	4	92.9	4	-1E+10	1	-1E+10	1	-1E+10	1	-1E+10	1	-1E+10	1	-1E+10	1
4902549	86	C	12/29/2022	05:57	-133.451	47.592	0	20.00	0	9.5400	0	32.3300	0	24.943	0	19.832	0	262.6	4	92.9	4	-1E+10	1	-1E+10	1	-1E+10	1	-1E+10	1	-1E+10	1	-1E+10	1
4902549	86	C	12/29/2022	05:57	-133.451	47.592	0	20.80	0	9.5430	0	32.3290	0	24.942	0	20.625	0	262.6	4	92.9	4	-1E+10	1	-1E+10	1	-1E+10	1	-1E+10	1	-1E+10	1	-1E+10	1
4902549	86	C	12/29/2022	05:57	-133.451	47.592	0	21.80	0	9.5440	0	32.3290	0	24.942	0	21.617	0	262.5	4	92.9	4	-1E+10	1	-1E+10	1	-1E+10	1	-1E+10	1	-1E+10	1	-1E+10	1
4902549	86	C	12/29/2022	05:57	-133.451	47.592	0	23.10	0	9.5420	0	32.3290	0	24.942	0	22.906	0	262.6	4	92.9	4	-1E+10	1	-1E+10	1	-1E+10	1	-1E+10	1	-1E+10	1	-1E+10	1
4902549	86	C	12/29/2022	05:57	-133.451	47.592	0	24.10	0	9.5410	0	32.3300	0	24.943	0	23.897	0	262.6	4	92.9	4	-1E+10	1	-1E+10	1	-1E+10	1	-1E+10	1	-1E+10	1	-1E+10	1
4902549	86	C	12/29/2022	05:57	-133.451	47.592	0	24.90	0	9.5420	0	32.3290	0	24.942	0	24.690	0	262.6	4	92.9	4	-1E+10	1	-1E+10	1	-1E+10	1	-1E+10	1	-1E+10	1	-1E+10	1
4902549	86	C	12/29/2022	05:57	-133.451	47.592	0	25.80	0	9.5410	0	32.3290	0	24.943	0	25.583	0	262.5	4	92.9	4	-1E+10	1	-1E+10	1	-1E+10	1	-1E+10	1	-1E+10	1	-1E+10	1
4902549	86	C	12/29/2022	05:57	-133.451	47.592	0	26.80	0	9.5380	0	32.3310	0	24.945	0	26.574	0	262.6	4	92.9	4	-1E+10	1	-1E+10	1	-1E+10	1	-1E+10	1	-1E+10	1	-1E+10	1
4902549	86	C	12/29/2022	05:57	-133.451	47.592	0	27.90	0	9.5360	0	32.3320	0	24.946	0	27.665	0	262.6	4	92.9	4	-1E+10	1	-1E+10	1	-1E+10	1	-1E+10	1	-1E+10	1	-1E+10	1
4902549	86	C	12/29/2022	05:57	-133.451	47.592	0	29.10	0	9.5360	0	32.3310	0	24.945	0	28.855	0	262.6	4	92.9	4	-1E+10	1	-1E+10	1	-1E+10	1	-1E+10	1	-1E+10	1	-1E+10	1
4902549	86	C	12/29/2022	05:57	-133.451	47.592	0	30.00	0	9.5290	0	32.3340	0	24.949	0	29.747	0	262.7	4	92.9	4	-1E+10	1	-1E+10	1	-1E+10	1	-1E+10	1	-1E+10	1	-1E+10	1
4902549	86	C	12/29/2022	05:57	-133.451	47.592	0	30.90	0	9.5290	0	32.3350	0	24.949	0	30.640	0	262.7	4	92.9	4	-1E+10	1	-1E+10	1	-1E+10	1	-1E+10	1	-1E+10	1	-1E+10	1
4902549	86	C	12/29/2022	05:57	-133.451	47.592	0	31.90	0	9.5290	0	32.3340	0	24.949	0	31.631	0	262.6	4	92.9	4	-1E+10	1	-1E+10	1	-1E+10	1	-1E+10	1	-1E+10	1	-1E+10	1
4902549	86	C	12/29/2022	05:57	-133.451	47.592	0	33.00	0	9.5290	0	32.3340	0	24.949	0	32.722	0	262.5	4	92.8	4	-1E+10	1	-1E+10	1	-1E+10	1	-1E+10	1	-1E+10	1	-1E+10	1
4902549	86	C	12/29/2022	05:57	-133.451	47.592	0	33.90	0	9.5300	0	32.3340	0	24.948	0	33.614	0	262.6	4	92.9	4	-1E+10	1	-1E+10	1	-1E+10	1	-1E+10	1	-1E+10	1	-1E+10	1
4902549	86	C	12/29/2022	05:57	-133.451	47.592	0	35.00	0	9.5320	0	32.3340	0	24.948	0	34.705	0	262.6	4	92.9	4	-1E+10	1	-1E+10	1	-1E+10	1	-1E+10	1	-1E+10	1	-1E+10	1
4902549	86	C	12/29/2022	05:57	-133.451	47.592	0	36.00	0	9.5290	0	32.3350	0	24.949	0	35.696	0	262.5	4	92.8	4	-1E+10	1	-1E+10	1	-1E+10	1	-1E+10	1	-1E+10	1	-1E+10	1
4902549	86	C	12/29/2022	05:57	-133.451	47.592	0	37.10	0	9.5300	0	32.3340	0	24.948	0	36.787	0	262.6	4	92.9	4	-1E+10	1	-1E+10	1	-1E+10	1	-1E+10	1	-1E+10	1	-1E+10	1
4902549	86	C	12/29/2022	05:57	-133.451	47.592	0	37.80	0	9.5270	0	32.3360	0	24.951	0	37.481	0	262.5	4	92.8	4	-1E+10	1	-1E+10	1	-1E+10	1	-1E+10	1	-1E+10	1	-1E+10	1
4902549	86	C	12/29/2022	05:57	-133.451	47.592	0	38.70	0	9.5260	0	32.3360	0	24.951	0	38.373	0	262.5	4	92.8	4	-1E+10	1	-1E+10	1	-1E+10	1	-1E+10	1	-1E+10	1	-1E+10	1
4902549	86	C	12/29/2022	05:57	-133.451	47.592	0	39.70	0	9.5260	0	32.3370	0	24.952	0	39.365	0	262.5	4	92.8	4	-1E+10	1	-1E+10	1	-1E+10	1	-1E+10	1	-1E+10	1	-1E+10	1
4902549	86	C	12/29/2022	05:57	-133.451	47.592	0	40.90	0	9.5270	0	32.3360	0	24.951	0	40.554	0	262.5	4	92.8	4	-1E+10	1	-1E+10	1	-1E+10	1	-1E+10	1	-1E+10	1	-1E+10	1
4902549	86	C	12/29/2022	05:57	-133.451	47.592	0	42.30	0	9.5260	0	32.3370	0	24.952	0	41.942	0	262.5	4	92.8	4	-1E+10	1	-1E+10	1	-1E+10	1	-1E+10	1	-1E+10	1	-1E+10	1
4902549	86	C	12/29/2022	05:57	-133.451	47.592	0	43.20	0	9.5260	0	32.3370	0	24.952	0	42.835	0	262.5	4	92.8	4	-1E+10	1	-1E+10	1	-1E+10	1	-1E+10	1	-1E+10	1	-1E+10	1
4902549	86	C	12/29/2022	05:57	-133.451	47.592	0	44.10	0	9.5270	0	32.3370	0	24.951	0	43.727	0	262.5	4	92.8	4	-1E+10	1	-1E+10	1	-1E+10	1	-1E+10	1	-1E+10	1	-1E+10	1
4902549	86	C	12/29/2022	05:57	-133.451	47.592	0	44.90	0	9.5270	0	32.3360	0	24.951	0	44.520	0	262.4	4	92.8	4	-1E+10	1	-1E+10	1	-1E+10	1	-1E+10	1	-1E+10	1	-1E+10	1
4902549	86	C	12/29/2022	05:57	-133.451	47.592	0	46.10	0	9.5250	0	32.3370	0	24.952	0	45.710	0	262.4	4	92.8	4	-1E+10	1	-1E+10	1	-1E+10	1	-1E+10	1	-1E+10	1	-1E+10	1
4902549	86	C	12/29/2022	05:57	-133.451	47.592	0	47.10	0	9.5220	0	32.3380	0	24.953	0	46.701	0	262.4	4	92.8	4	-1E+10	1	-1E+10	1	-1E+10	1	-1E+10	1	-1E+10	1	-1E+10	1
4902549	86	C	12/29/2022	05:57	-133.451	47.592	0	47.90	0	9.5200	0	32.3380	0	24.953	0	47.494	0	262.4	4	92.8	4	-1E+10	1	-1E+10	1	-1E+10	1	-1E+10	1	-1E+10	1	-1E+10	1
4902549	86	C	12/29/2022	05:57	-133.451	47.592	0	48.70	0	9.5210	0	32.3380	0	24.953	0	48.287	0	262.3	4	92.7	4	-1E+10	1	-1E+10	1	-1E+10	1	-1E+10	1	-1E+10	1	-1E+10	1
4902549	86	C	12/29/2022	05:57	-133.451	47.592	0	49.90	0	9.5240	0	32.3380	0	24.953	0	49.477	0	262.2	4	92.7	4	-1E+10	1	-1E+10	1	-1E+10	1	-1E+10	1	-1E+10	1	-1E+10	1
4902549	86	C	12/29/2022	05:57	-133.451	47.592	0	51.00	0	9.5250	0	32.3370	0	24.952	0	50.568	0	262.2	4	92.7	4	-1E+10	1	-1E+10	1	-1E+10	1	-1E+10	1	-1E+10	1	-1E+10	1
4902549	86	C	12/29/2022	05:57	-133.451	47.592	0	52.10	0	9.5250	0	32.3380	0	24.953	0	51.658	0	262.3	4	92.7	4	-1E+10	1	-1E+10	1	-1E+10	1	-1E+10	1	-1E+10	1	-1E+10	1
4902549	86	C	12/29/2022	05:57	-133.451	47.592	0	53.10	0	9.5250	0	32.3370	0	24.952	0	52.650	0	262.1	4	92.7	4	-1E+10	1	-1E+10	1	-1E+10	1	-1E+10	1	-1E+10	1	-1E+10	1
4902549	86	C	12/29/2022	05:57	-133.451	47.592	0	54.00	0	9.5250	0	32.3380	0	24.953	0	53.542	0	262.2	4	92.7	4	-1E+10	1	-1E+10	1	-1E+10	1	-1E+10	1	-1E+10	1	-1E+10	1
4902549	86	C	12/29/2022	05:57	-133.451	47.592	0	54.80	0	9.5220	0	32.3390	0	24.954	0	54.335	0	262.2	4	92.7	4	-1E+10	1	-1E+10	1	-1E+10	1	-1E+10	1	-1E+10	1	-1E+10	1
4902549	86	C	12/29/2022	05:57	-133.451	47.592	0	55.90	0	9.5200	0	32.3390	0	24.954	0	55.425	0	262.1	4	92.7	4	-1E+10	1	-1E+10	1	-1E+10	1	-1E+10	1	-1E+10	1	-1E+10	1
4902549	86	C	12/29/2022	05:57	-133.451	47.592	0	56.90	0	9.5240	0	32.3380	0	24.953	0	56.417	0	262.0	4	92.6	4	-1E+10	1	-1E+10	1	-1E+10	1	-1E+10	1	-1E+10	1	-1E+10	1
4902549	86	C	12/29/2022	05:57	-133.451	47.592	0	58.00	0	9.5190	0	32.3380	0	24.954	0	57.507	0	262.1	4	92.6	4	-1E+10	1	-1E+10	1	-1E+10	1	-1E+10	1	-1E+10	1	-1E+10	1
4902549	86	C	12/29/2022	05:57	-133.451	47.592	0	59.10	0	9.5120	0	32.3400	0	24.956	0	58.598	0	262.0	4	92.6	4	-1E+10	1	-1E+10	1	-1E+10	1	-1E+10	1	-1E+10	1	-1E+10	1
4902549	86	C	12/29/2022	05:57	-133.451	47.592	0	60.10	0	9.5060	0	32.3400	0	24.957	0	59.589	0	262.0	4	92.6	4	-1E+10	1	-1E+10	1	-1E+10	1	-1E+10	1	-1E+10	1	-1E+10	1
4902549	86	C	12/29/2022	05:57	-133.451	47.592	0	61.00	0	9.5060	0	32.3410	0	24.958	0	60.481	0	262.0	4	92.6	4	-1E+10	1	-1E+10	1	-1E+10	1	-1E+10	1	-1E+10	1	-1E+10	1
4902549	86	C	12/29/2022	05:57	-133.451	47.592	0	61.70	0	9.5040	0	32.3410	0	24.959	0	61.175	0	262.0	4	92.6	4	-1E+10	1	-1E+10	1	-1E+10	1	-1E+10	1	-1E+10	1	-1E+10	1
4902549	86	C	12/29/2022	05:57	-133.451	47.592	0	62.90	0	9.4850	0	32.3440	0	24.964	0	62.365	0	262.0	4	92.6	4	-1E+10	1	-1E+10	1	-1E+10	1	-1E+10	1	-1E+10	1	-1E+10	1
4902549	86	C	12/29/2022	05:57	-133.451	47.592	0	64.00	0	9.4760	0	32.3460	0	24.967	0	63.455	0	262.1	4	92.6	4	-1E+10	1	-1E+10	1	-1E+10	1	-1E+10	1	-1E+10	1	-1E+10	1
4902549	86	C	12/29/2022	05:57	-133.451	47.592	0	64.90	0	9.4840	0	32.3440	0	24.964	0	64.348	0	262.0	4	92.5	4	-1E+10	1	-1E+10	1	-1E+10	1	-1E+10	1	-1E+10	1	-1E+10	1
4902549	86	C	12/29/2022	05:57	-133.451	47.592	0	65.70	0	9.4770	0	32.3450	0	24.966	0	65.141	0	262.0	4	92.5	4	-1E+10	1	-1E+10	1	-1E+10	1	-1E+10	1	-1E+10	1	-1E+10	1
4902549	86	C	12/29/2022	05:57	-133.451	47.592	0	66.90	0	9.4650	0	32.3480	0	24.970	0	66.330	0	262.0	4	92.5	4	-1E+10	1	-1E+10	1	-1E+10	1	-1E+10	1	-1E+10	1	-1E+10	1
4902549	86	C	12/29/2022	05:57	-133.451	47.592	0	68.10	0	9.4650	0	32.3480	0	24.970	0	67.520	0	261.8	4	92.5	4	-1E+10	1	-1E+10	1	-1E+10	1	-1E+10	1	-1E+10	1	-1E+10	1
4902549	86	C	12/29/2022	05:57	-133.451	47.592	0	69.10	0	9.4640	0	32.3490	0	24.971	0	68.511	0	261.8	4	92.4	4	-1E+10	1	-1E+10	1	-1E+10	1	-1E+10	1	-1E+10	1	-1E+10	1
4902549	86	C	12/29/2022	05:57	-133.451	47.592	0	70.00	0	9.4580	0	32.3530	0	24.975	0	69.403	0	261.7	4	92.4	4	-1E+10	1	-1E+10	1	-1E+10	1	-1E+10	1	-1E+10	1	-1E+10	1
4902549	86	C	12/29/2022	05:57	-133.451	47.592	0	70.90	0	9.4580	0	32.3540	0	24.976	0	70.296	0	261.5	4	92.3	4	-1E+10	1	-1E+10	1	-1E+10	1	-1E+10	1	-1E+10	1	-1E+10	1
4902549	86	C	12/29/2022	05:57	-133.451	47.592	0	71.90	0	9.4370	0	32.3580	0	24.983	0	71.287	0	261.5	4	92.3	4	-1E+10	1	-1E+10	1	-1E+10	1	-1E+10	1	-1E+10	1	-1E+10	1
4902549	86	C	12/29/2022	05:57	-133.451	47.592	0	72.90	0	9.4180	0	32.3590	0	24.987	0	72.278	0	261.3	4	92.2	4	-1E+10	1	-1E+10	1	-1E+10	1	-1E+10	1	-1E+10	1	-1E+10	1
4902549	86	C	12/29/2022	05:57	-133.451	47.592	0	73.80	0	9.4020	0	32.3620	0	24.991	0	73.170	0	261.2	4	92.1	4	-1E+10	1	-1E+10	1	-1E+10	1	-1E+10	1	-1E+10	1	-1E+10	1
4902549	86	C	12/29/2022	05:57	-133.451	47.592	0	75.10	0	9.3800	0	32.3650	0	24.997	0	74.459	0	261.0	4	92.0	4	-1E+10	1	-1E+10	1	-1E+10	1	-1E+10	1	-1E+10	1	-1E+10	1
4902549	86	C	12/29/2022	05:57	-133.451	47.592	0	76.00	0	9.3570	0	32.3670	0	25.003	0	75.351	0	260.9	4	91.9	4	-1E+10	1	-1E+10	1	-1E+10	1	-1E+10	1	-1E+10	1	-1E+10	1
4902549	86	C	12/29/2022	05:57	-133.451	47.592	0	76.90	0	9.3320	0	32.3680	0	25.007	0	76.243	0	260.7	4	91.8	4	-1E+10	1	-1E+10	1	-1E+10	1	-1E+10	1	-1E+10	1	-1E+10	1
4902549	86	C	12/29/2022	05:57	-133.451	47.592	0	77.90	0	9.2680	0	32.3770	0	25.024	0	77.235	0	260.7	4	91.7	4	-1E+10	1	-1E+10	1	-1E+10	1	-1E+10	1	-1E+10	1	-1E+10	1
4902549	86	C	12/29/2022	05:57	-133.451	47.592	0	78.80	0	9.2370	0	32.3790	0	25.031	0	78.127	0	260.5	4	91.6	4	-1E+10	1	-1E+10	1	-1E+10	1	-1E+10	1	-1E+10	1	-1E+10	1
4902549	86	C	12/29/2022	05:57	-133.451	47.592	0	79.90	0	9.2280	0	32.3780	0	25.032	0	79.217	0	260.1	4	91.4	4	-1E+10	1	-1E+10	1	-1E+10	1	-1E+10	1	-1E+10	1	-1E+10	1
4902549	86	C	12/29/2022	05:57	-133.451	47.592	0	81.00	0	9.2210	0	32.3770	0	25.032	0	80.308	0	259.4	4	91.2	4	-1E+10	1	-1E+10	1	-1E+10	1	-1E+10	1	-1E+10	1	-1E+10	1
4902549	86	C	12/29/2022	05:57	-133.451	47.592	0	82.10	0	9.1910	0	32.3760	0	25.036	0	81.398	0	258.9	4	90.9	4	-1E+10	1	-1E+10	1	-1E+10	1	-1E+10	1	-1E+10	1	-1E+10	1
4902549	86	C	12/29/2022	05:57	-133.451	47.592	0	83.10	0	9.1160	0	32.3810	0	25.052	0	82.389	0	265.1	4	92.9	4	-1E+10	1	-1E+10	1	-1E+10	1	-1E+10	1	-1E+10	1	-1E+10	1
4902549	86	C	12/29/2022	05:57	-133.451	47.592	0	84.00	0	9.0180	0	32.3910	0	25.075	0	83.281	0	265.1	4	92.7	4	-1E+10	1	-1E+10	1	-1E+10	1	-1E+10	1	-1E+10	1	-1E+10	1
4902549	86	C	12/29/2022	05:57	-133.451	47.592	0	84.90	0	8.9580	0	32.3920	0	25.085	0	84.173	0	264.7	4	92.5	4	-1E+10	1	-1E+10	1	-1E+10	1	-1E+10	1	-1E+10	1	-1E+10	1
4902549	86	C	12/29/2022	05:57	-133.451	47.592	0	86.20	0	8.9080	0	32.3930	0	25.093	0	85.462	0	263.9	4	92.1	4	-1E+10	1	-1E+10	1	-1E+10	1	-1E+10	1	-1E+10	1	-1E+10	1
4902549	86	C	12/29/2022	05:57	-133.451	47.592	0	87.10	0	8.7850	0	32.4010	0	25.118	0	86.354	0	263.2	4	91.6	4	-1E+10	1	-1E+10	1	-1E+10	1	-1E+10	1	-1E+10	1	-1E+10	1
4902549	86	C	12/29/2022	05:57	-133.451	47.592	0	88.00	0	8.6660	0	32.4100	0	25.143	0	87.246	0	262.5	4	91.1	4	-1E+10	1	-1E+10	1	-1E+10	1	-1E+10	1	-1E+10	1	-1E+10	1
4902549	86	C	12/29/2022	05:57	-133.451	47.592	0	89.10	0	8.6150	0	32.4080	0	25.150	0	88.337	0	261.6	4	90.7	4	-1E+10	1	-1E+10	1	-1E+10	1	-1E+10	1	-1E+10	1	-1E+10	1
4902549	86	C	12/29/2022	05:57	-133.451	47.592	0	90.00	0	8.4150	0	32.4240	0	25.192	0	89.229	0	261.7	4	90.3	4	-1E+10	1	-1E+10	1	-1E+10	1	-1E+10	1	-1E+10	1	-1E+10	1
4902549	86	C	12/29/2022	05:57	-133.451	47.592	0	91.20	0	8.3000	0	32.4340	0	25.217	0	90.418	0	260.9	4	89.9	4	-1E+10	1	-1E+10	1	-1E+10	1	-1E+10	1	-1E+10	1	-1E+10	1
4902549	86	C	12/29/2022	05:57	-133.451	47.592	0	91.80	0	8.2690	0	32.4270	0	25.216	0	91.013	0	260.3	4	89.6	4	-1E+10	1	-1E+10	1	-1E+10	1	-1E+10	1	-1E+10	1	-1E+10	1
4902549	86	C	12/29/2022	05:57	-133.451	47.592	0	92.80	0	8.1980	0	32.4280	0	25.227	0	92.004	0	259.8	4	89.3	4	-1E+10	1	-1E+10	1	-1E+10	1	-1E+10	1	-1E+10	1	-1E+10	1
4902549	86	C	12/29/2022	05:57	-133.451	47.592	0	93.90	0	7.9930	0	32.4430	0	25.269	0	93.094	0	259.1	4	88.6	4	-1E+10	1	-1E+10	1	-1E+10	1	-1E+10	1	-1E+10	1	-1E+10	1
4902549	86	C	12/29/2022	05:57	-133.451	47.592	0	95.10	0	7.6080	0	32.4710	0	25.345	0	94.284	0	260.6	4	88.4	4	-1E+10	1	-1E+10	1	-1E+10	1	-1E+10	1	-1E+10	1	-1E+10	1
4902549	86	C	12/29/2022	05:57	-133.451	47.592	0	96.00	0	7.4900	0	32.4790	0	25.368	0	95.176	0	260.9	4	88.3	4	-1E+10	1	-1E+10	1	-1E+10	1	-1E+10	1	-1E+10	1	-1E+10	1
4902549	86	C	12/29/2022	05:57	-133.451	47.592	0	96.80	0	7.4760	0	32.4800	0	25.371	0	95.969	0	260.6	4	88.1	4	-1E+10	1	-1E+10	1	-1E+10	1	-1E+10	1	-1E+10	1	-1E+10	1
4902549	86	C	12/29/2022	05:57	-133.451	47.592	0	97.90	0	7.4510	0	32.4850	0	25.378	0	97.059	0	260.1	4	87.9	4	-1E+10	1	-1E+10	1	-1E+10	1	-1E+10	1	-1E+10	1	-1E+10	1
4902549	86	C	12/29/2022	05:57	-133.451	47.592	0	99.00	0	7.4150	0	32.4910	0	25.388	0	98.149	0	259.7	4	87.7	4	-1E+10	1	-1E+10	1	-1E+10	1	-1E+10	1	-1E+10	1	-1E+10	1
4902549	86	C	12/29/2022	05:57	-133.451	47.592	0	100.00	0	7.3840	0	32.4920	0	25.393	0	99.141	0	259.2	4	87.5	4	-1E+10	1	-1E+10	1	-1E+10	1	-1E+10	1	-1E+10	1	-1E+10	1
4902549	86	C	12/29/2022	05:57	-133.451	47.592	0	101.00	0	7.3770	0	32.4910	0	25.393	0	100.132	0	258.3	4	87.2	4	-1E+10	1	-1E+10	1	-1E+10	1	-1E+10	1	-1E+10	1	-1E+10	1
4902549	86	C	12/29/2022	05:57	-133.451	47.592	0	101.90	0	7.3220	0	32.4960	0	25.405	0	101.024	0	257.5	4	86.8	4	-1E+10	1	-1E+10	1	-1E+10	1	-1E+10	1	-1E+10	1	-1E+10	1
4902549	86	C	12/29/2022	05:57	-133.451	47.592	0	102.80	0	7.2810	0	32.5010	0	25.414	0	101.916	0	256.6	4	86.4	4	-1E+10	1	-1E+10	1	-1E+10	1	-1E+10	1	-1E+10	1	-1E+10	1
4902549	86	C	12/29/2022	05:57	-133.451	47.592	0	104.00	0	7.2220	0	32.5090	0	25.429	0	103.105	0	255.1	4	85.8	4	-1E+10	1	-1E+10	1	-1E+10	1	-1E+10	1	-1E+10	1	-1E+10	1
4902549	86	C	12/29/2022	05:57	-133.451	47.592	0	105.10	0	7.1790	0	32.5210	0	25.444	0	104.195	0	253.5	4	85.2	4	-1E+10	1	-1E+10	1	-1E+10	1	-1E+10	1	-1E+10	1	-1E+10	1
4902549	86	C	12/29/2022	05:57	-133.451	47.592	0	106.10	0	7.1290	0	32.5280	0	25.456	0	105.187	0	251.8	4	84.5	4	-1E+10	1	-1E+10	1	-1E+10	1	-1E+10	1	-1E+10	1	-1E+10	1
4902549	86	C	12/29/2022	05:57	-133.451	47.592	0	107.10	0	7.0850	0	32.5310	0	25.464	0	106.178	0	250.0	4	83.8	4	-1E+10	1	-1E+10	1	-1E+10	1	-1E+10	1	-1E+10	1	-1E+10	1
4902549	86	C	12/29/2022	05:57	-133.451	47.592	0	108.00	0	7.0480	0	32.5480	0	25.483	0	107.070	0	248.4	4	83.2	4	-1E+10	1	-1E+10	1	-1E+10	1	-1E+10	1	-1E+10	1	-1E+10	1
4902549	86	C	12/29/2022	05:57	-133.451	47.592	0	108.80	0	7.0410	0	32.5700	0	25.501	0	107.863	0	246.8	4	82.7	4	-1E+10	1	-1E+10	1	-1E+10	1	-1E+10	1	-1E+10	1	-1E+10	1
4902549	86	C	12/29/2022	05:57	-133.451	47.592	0	110.00	0	7.0550	0	32.5950	0	25.519	0	109.052	0	244.4	4	81.9	4	-1E+10	1	-1E+10	1	-1E+10	1	-1E+10	1	-1E+10	1	-1E+10	1
4902549	86	C	12/29/2022	05:57	-133.451	47.592	0	111.00	0	7.0780	0	32.6100	0	25.528	0	110.043	0	242.5	4	81.3	4	-1E+10	1	-1E+10	1	-1E+10	1	-1E+10	1	-1E+10	1	-1E+10	1
4902549	86	C	12/29/2022	05:57	-133.451	47.592	0	111.90	0	7.0510	0	32.6510	0	25.563	0	110.935	0	240.9	4	80.8	4	-1E+10	1	-1E+10	1	-1E+10	1	-1E+10	1	-1E+10	1	-1E+10	1
4902549	86	C	12/29/2022	05:57	-133.451	47.592	0	113.10	0	7.0360	0	32.6660	0	25.577	0	112.124	0	239.0	4	80.1	4	-1E+10	1	-1E+10	1	-1E+10	1	-1E+10	1	-1E+10	1	-1E+10	1
4902549	86	C	12/29/2022	05:57	-133.451	47.592	0	113.80	0	7.0370	0	32.6720	0	25.582	0	112.818	0	237.5	4	79.6	4	-1E+10	1	-1E+10	1	-1E+10	1	-1E+10	1	-1E+10	1	-1E+10	1
4902549	86	C	12/29/2022	05:57	-133.451	47.592	0	115.00	0	7.0340	0	32.6740	0	25.584	0	114.007	0	235.0	4	78.8	4	-1E+10	1	-1E+10	1	-1E+10	1	-1E+10	1	-1E+10	1	-1E+10	1
4902549	86	C	12/29/2022	05:57	-133.451	47.592	0	116.20	0	7.0000	0	32.7040	0	25.612	0	115.197	0	232.4	4	77.9	4	-1E+10	1	-1E+10	1	-1E+10	1	-1E+10	1	-1E+10	1	-1E+10	1
4902549	86	C	12/29/2022	05:57	-133.451	47.592	0	117.00	0	6.9690	0	32.7510	0	25.653	0	115.990	0	231.0	4	77.4	4	-1E+10	1	-1E+10	1	-1E+10	1	-1E+10	1	-1E+10	1	-1E+10	1
4902549	86	C	12/29/2022	05:57	-133.451	47.592	0	117.90	0	6.9710	0	32.7940	0	25.687	0	116.882	0	229.6	4	76.9	4	-1E+10	1	-1E+10	1	-1E+10	1	-1E+10	1	-1E+10	1	-1E+10	1
4902549	86	C	12/29/2022	05:57	-133.451	47.592	0	118.80	0	6.9770	0	32.8130	0	25.701	0	117.774	0	228.2	4	76.5	4	-1E+10	1	-1E+10	1	-1E+10	1	-1E+10	1	-1E+10	1	-1E+10	1
4902549	86	C	12/29/2022	05:57	-133.451	47.592	0	119.70	0	6.9830	0	32.8280	0	25.712	0	118.666	0	226.9	4	76.1	4	-1E+10	1	-1E+10	1	-1E+10	1	-1E+10	1	-1E+10	1	-1E+10	1
4902549	86	C	12/29/2022	05:57	-133.451	47.592	0	120.90	0	6.9840	0	32.8510	0	25.730	0	119.855	0	225.0	4	75.5	4	-1E+10	1	-1E+10	1	-1E+10	1	-1E+10	1	-1E+10	1	-1E+10	1
4902549	86	C	12/29/2022	05:57	-133.451	47.592	0	122.20	0	7.0110	0	32.8720	0	25.743	0	121.143	0	223.2	4	74.9	4	-1E+10	1	-1E+10	1	-1E+10	1	-1E+10	1	-1E+10	1	-1E+10	1
4902549	86	C	12/29/2022	05:57	-133.451	47.592	0	123.10	0	7.0430	0	32.8930	0	25.755	0	122.035	0	222.2	4	74.6	4	-1E+10	1	-1E+10	1	-1E+10	1	-1E+10	1	-1E+10	1	-1E+10	1
4902549	86	C	12/29/2022	05:57	-133.451	47.592	0	124.00	0	7.0490	0	32.9260	0	25.780	0	122.927	0	221.4	4	74.4	4	-1E+10	1	-1E+10	1	-1E+10	1	-1E+10	1	-1E+10	1	-1E+10	1
4902549	86	C	12/29/2022	05:57	-133.451	47.592	0	124.90	0	7.0200	0	32.9380	0	25.794	0	123.819	0	220.7	4	74.1	4	-1E+10	1	-1E+10	1	-1E+10	1	-1E+10	1	-1E+10	1	-1E+10	1
4902549	86	C	12/29/2022	05:57	-133.451	47.592	0	125.80	0	7.0060	0	32.9700	0	25.821	0	124.711	0	219.8	4	73.8	4	-1E+10	1	-1E+10	1	-1E+10	1	-1E+10	1	-1E+10	1	-1E+10	1
4902549	86	C	12/29/2022	05:57	-133.451	47.592	0	126.60	0	7.0210	0	32.9850	0	25.831	0	125.504	0	219.2	4	73.6	4	-1E+10	1	-1E+10	1	-1E+10	1	-1E+10	1	-1E+10	1	-1E+10	1
4902549	86	C	12/29/2022	05:57	-133.451	47.592	0	127.50	0	7.0300	0	32.9950	0	25.837	0	126.396	0	218.6	4	73.4	4	-1E+10	1	-1E+10	1	-1E+10	1	-1E+10	1	-1E+10	1	-1E+10	1
4902549	86	C	12/29/2022	05:57	-133.451	47.592	0	128.90	0	6.9550	0	33.0430	0	25.885	0	127.783	0	217.7	4	73.1	4	-1E+10	1	-1E+10	1	-1E+10	1	-1E+10	1	-1E+10	1	-1E+10	1
4902549	86	C	12/29/2022	05:57	-133.451	47.592	0	130.30	0	6.9390	0	33.0470	0	25.890	0	129.171	0	216.3	4	72.6	4	-1E+10	1	-1E+10	1	-1E+10	1	-1E+10	1	-1E+10	1	-1E+10	1
4902549	86	C	12/29/2022	05:57	-133.451	47.592	0	131.30	0	6.9360	0	33.0510	0	25.894	0	130.162	0	215.2	4	72.2	4	-1E+10	1	-1E+10	1	-1E+10	1	-1E+10	1	-1E+10	1	-1E+10	1
4902549	86	C	12/29/2022	05:57	-133.451	47.592	0	132.20	0	6.9320	0	33.0580	0	25.900	0	131.054	0	213.9	4	71.8	4	-1E+10	1	-1E+10	1	-1E+10	1	-1E+10	1	-1E+10	1	-1E+10	1
4902549	86	C	12/29/2022	05:57	-133.451	47.592	0	133.20	0	6.9270	0	33.0640	0	25.906	0	132.045	0	212.6	4	71.3	4	-1E+10	1	-1E+10	1	-1E+10	1	-1E+10	1	-1E+10	1	-1E+10	1
4902549	86	C	12/29/2022	05:57	-133.451	47.592	0	134.10	0	6.9280	0	33.0880	0	25.924	0	132.936	0	211.4	4	70.9	4	-1E+10	1	-1E+10	1	-1E+10	1	-1E+10	1	-1E+10	1	-1E+10	1
4902549	86	C	12/29/2022	05:57	-133.451	47.592	0	135.00	0	6.9380	0	33.0960	0	25.929	0	133.828	0	210.2	4	70.5	4	-1E+10	1	-1E+10	1	-1E+10	1	-1E+10	1	-1E+10	1	-1E+10	1
4902549	86	C	12/29/2022	05:57	-133.451	47.592	0	135.90	0	6.9320	0	33.1030	0	25.936	0	134.720	0	208.9	4	70.1	4	-1E+10	1	-1E+10	1	-1E+10	1	-1E+10	1	-1E+10	1	-1E+10	1
4902549	86	C	12/29/2022	05:57	-133.451	47.592	0	136.80	0	6.9320	0	33.1210	0	25.950	0	135.612	0	207.3	4	69.6	4	-1E+10	1	-1E+10	1	-1E+10	1	-1E+10	1	-1E+10	1	-1E+10	1
4902549	86	C	12/29/2022	05:57	-133.451	47.592	0	137.70	0	6.8640	0	33.1880	0	26.012	0	136.504	0	206.1	4	69.1	4	-1E+10	1	-1E+10	1	-1E+10	1	-1E+10	1	-1E+10	1	-1E+10	1
4902549	86	C	12/29/2022	05:57	-133.451	47.592	0	138.60	0	6.8640	0	33.2090	0	26.028	0	137.396	0	204.6	4	68.6	4	-1E+10	1	-1E+10	1	-1E+10	1	-1E+10	1	-1E+10	1	-1E+10	1
4902549	86	C	12/29/2022	05:57	-133.451	47.592	0	139.90	0	6.8720	0	33.2340	0	26.047	0	138.684	0	202.7	4	68.0	4	-1E+10	1	-1E+10	1	-1E+10	1	-1E+10	1	-1E+10	1	-1E+10	1
4902549	86	C	12/29/2022	05:57	-133.451	47.592	0	141.20	0	6.8740	0	33.2430	0	26.054	0	139.972	0	200.8	4	67.4	4	-1E+10	1	-1E+10	1	-1E+10	1	-1E+10	1	-1E+10	1	-1E+10	1
4902549	86	C	12/29/2022	05:57	-133.451	47.592	0	142.10	0	6.8550	0	33.2730	0	26.080	0	140.864	0	199.7	4	67.0	4	-1E+10	1	-1E+10	1	-1E+10	1	-1E+10	1	-1E+10	1	-1E+10	1
4902549	86	C	12/29/2022	05:57	-133.451	47.592	0	142.90	0	6.8510	0	33.2860	0	26.091	0	141.657	0	198.6	4	66.6	4	-1E+10	1	-1E+10	1	-1E+10	1	-1E+10	1	-1E+10	1	-1E+10	1
4902549	86	C	12/29/2022	05:57	-133.451	47.592	0	143.80	0	6.8480	0	33.2930	0	26.097	0	142.549	0	197.6	4	66.3	4	-1E+10	1	-1E+10	1	-1E+10	1	-1E+10	1	-1E+10	1	-1E+10	1
4902549	86	C	12/29/2022	05:57	-133.451	47.592	0	144.60	0	6.8330	0	33.3150	0	26.116	0	143.342	0	196.3	4	65.8	4	-1E+10	1	-1E+10	1	-1E+10	1	-1E+10	1	-1E+10	1	-1E+10	1
4902549	86	C	12/29/2022	05:57	-133.451	47.592	0	145.90	0	6.8200	0	33.3460	0	26.142	0	144.630	0	194.5	4	65.2	4	-1E+10	1	-1E+10	1	-1E+10	1	-1E+10	1	-1E+10	1	-1E+10	1
4902549	86	C	12/29/2022	05:57	-133.451	47.592	0	147.30	0	6.7930	0	33.3880	0	26.179	0	146.017	0	192.8	4	64.6	4	-1E+10	1	-1E+10	1	-1E+10	1	-1E+10	1	-1E+10	1	-1E+10	1
4902549	86	C	12/29/2022	05:57	-133.451	47.592	0	148.20	0	6.7950	0	33.4320	0	26.213	0	146.909	0	191.8	4	64.3	4	-1E+10	1	-1E+10	1	-1E+10	1	-1E+10	1	-1E+10	1	-1E+10	1
4902549	86	C	12/29/2022	05:57	-133.451	47.592	0	149.20	0	6.7790	0	33.4590	0	26.237	0	147.900	0	191.1	4	64.1	4	-1E+10	1	-1E+10	1	-1E+10	1	-1E+10	1	-1E+10	1	-1E+10	1
4902549	86	C	12/29/2022	05:57	-133.451	47.592	0	150.20	0	6.7720	0	33.4750	0	26.250	0	148.891	0	190.4	4	63.8	4	-1E+10	1	-1E+10	1	-1E+10	1	-1E+10	1	-1E+10	1	-1E+10	1
4902549	86	C	12/29/2022	05:57	-133.451	47.592	0	151.10	0	6.7720	0	33.4780	0	26.253	0	149.783	0	189.6	4	63.5	4	-1E+10	1	-1E+10	1	-1E+10	1	-1E+10	1	-1E+10	1	-1E+10	1
4902549	86	C	12/29/2022	05:57	-133.451	47.592	0	152.10	0	6.7710	0	33.4840	0	26.257	0	150.774	0	188.7	4	63.3	4	-1E+10	1	-1E+10	1	-1E+10	1	-1E+10	1	-1E+10	1	-1E+10	1
4902549	86	C	12/29/2022	05:57	-133.451	47.592	0	153.00	0	6.7690	0	33.4930	0	26.265	0	151.666	0	187.9	4	63.0	4	-1E+10	1	-1E+10	1	-1E+10	1	-1E+10	1	-1E+10	1	-1E+10	1
4902549	86	C	12/29/2022	05:57	-133.451	47.592	0	154.00	0	6.7680	0	33.5010	0	26.271	0	152.656	0	186.8	4	62.6	4	-1E+10	1	-1E+10	1	-1E+10	1	-1E+10	1	-1E+10	1	-1E+10	1
4902549	86	C	12/29/2022	05:57	-133.451	47.592	0	154.90	0	6.7260	0	33.5290	0	26.299	0	153.548	0	186.0	4	62.3	4	-1E+10	1	-1E+10	1	-1E+10	1	-1E+10	1	-1E+10	1	-1E+10	1
4902549	86	C	12/29/2022	05:57	-133.451	47.592	0	155.90	0	6.7200	0	33.5450	0	26.312	0	154.539	0	184.9	4	62.0	4	-1E+10	1	-1E+10	1	-1E+10	1	-1E+10	1	-1E+10	1	-1E+10	1
4902549	86	C	12/29/2022	05:57	-133.451	47.592	0	156.80	0	6.7190	0	33.5530	0	26.319	0	155.431	0	183.9	4	61.6	4	-1E+10	1	-1E+10	1	-1E+10	1	-1E+10	1	-1E+10	1	-1E+10	1
4902549	86	C	12/29/2022	05:57	-133.451	47.592	0	157.90	0	6.7130	0	33.5610	0	26.326	0	156.521	0	182.3	4	61.1	4	-1E+10	1	-1E+10	1	-1E+10	1	-1E+10	1	-1E+10	1	-1E+10	1
4902549	86	C	12/29/2022	05:57	-133.451	47.592	0	159.00	0	6.6960	0	33.5890	0	26.350	0	157.611	0	180.5	4	60.5	4	-1E+10	1	-1E+10	1	-1E+10	1	-1E+10	1	-1E+10	1	-1E+10	1
4902549	86	C	12/29/2022	05:57	-133.451	47.592	0	160.10	0	6.6880	0	33.6060	0	26.365	0	158.701	0	178.8	4	59.9	4	-1E+10	1	-1E+10	1	-1E+10	1	-1E+10	1	-1E+10	1	-1E+10	1
4902549	86	C	12/29/2022	05:57	-133.451	47.592	0	160.90	0	6.6900	0	33.6110	0	26.368	0	159.494	0	177.7	4	59.5	4	-1E+10	1	-1E+10	1	-1E+10	1	-1E+10	1	-1E+10	1	-1E+10	1
4902549	86	C	12/29/2022	05:57	-133.451	47.592	0	162.00	0	6.7460	0	33.6350	0	26.380	0	160.584	0	176.2	4	59.1	4	-1E+10	1	-1E+10	1	-1E+10	1	-1E+10	1	-1E+10	1	-1E+10	1
4902549	86	C	12/29/2022	05:57	-133.451	47.592	0	163.20	0	6.7690	0	33.6500	0	26.389	0	161.773	0	175.3	4	58.9	4	-1E+10	1	-1E+10	1	-1E+10	1	-1E+10	1	-1E+10	1	-1E+10	1
4902549	86	C	12/29/2022	05:57	-133.451	47.592	0	164.00	0	6.7230	0	33.6640	0	26.406	0	162.565	0	174.8	4	58.6	4	-1E+10	1	-1E+10	1	-1E+10	1	-1E+10	1	-1E+10	1	-1E+10	1
4902549	86	C	12/29/2022	05:57	-133.451	47.592	0	164.80	0	6.7040	0	33.6640	0	26.408	0	163.358	0	174.1	4	58.4	4	-1E+10	1	-1E+10	1	-1E+10	1	-1E+10	1	-1E+10	1	-1E+10	1
4902549	86	C	12/29/2022	05:57	-133.451	47.592	0	166.00	0	6.6930	0	33.6710	0	26.415	0	164.547	0	172.8	4	57.9	4	-1E+10	1	-1E+10	1	-1E+10	1	-1E+10	1	-1E+10	1	-1E+10	1
4902549	86	C	12/29/2022	05:57	-133.451	47.592	0	167.20	0	6.6920	0	33.6790	0	26.422	0	165.736	0	171.3	4	57.4	4	-1E+10	1	-1E+10	1	-1E+10	1	-1E+10	1	-1E+10	1	-1E+10	1
4902549	86	C	12/29/2022	05:57	-133.451	47.592	0	168.00	0	6.6950	0	33.6850	0	26.426	0	166.529	0	170.2	4	57.1	4	-1E+10	1	-1E+10	1	-1E+10	1	-1E+10	1	-1E+10	1	-1E+10	1
4902549	86	C	12/29/2022	05:57	-133.451	47.592	0	168.80	0	6.6940	0	33.6870	0	26.428	0	167.321	0	169.0	4	56.7	4	-1E+10	1	-1E+10	1	-1E+10	1	-1E+10	1	-1E+10	1	-1E+10	1
4902549	86	C	12/29/2022	05:57	-133.451	47.592	0	170.00	0	6.6930	0	33.7010	0	26.439	0	168.510	0	167.2	4	56.0	4	-1E+10	1	-1E+10	1	-1E+10	1	-1E+10	1	-1E+10	1	-1E+10	1
4902549	86	C	12/29/2022	05:57	-133.451	47.592	0	171.20	0	6.6930	0	33.7110	0	26.447	0	169.699	0	165.4	4	55.4	4	-1E+10	1	-1E+10	1	-1E+10	1	-1E+10	1	-1E+10	1	-1E+10	1
4902549	86	C	12/29/2022	05:57	-133.451	47.592	0	172.00	0	6.6900	0	33.7240	0	26.458	0	170.492	0	164.5	4	55.1	4	-1E+10	1	-1E+10	1	-1E+10	1	-1E+10	1	-1E+10	1	-1E+10	1
4902549	86	C	12/29/2022	05:57	-133.451	47.592	0	172.90	0	6.6710	0	33.7340	0	26.468	0	171.384	0	163.9	4	54.9	4	-1E+10	1	-1E+10	1	-1E+10	1	-1E+10	1	-1E+10	1	-1E+10	1
4902549	86	C	12/29/2022	05:57	-133.451	47.592	0	173.70	0	6.6640	0	33.7380	0	26.472	0	172.176	0	163.4	4	54.7	4	-1E+10	1	-1E+10	1	-1E+10	1	-1E+10	1	-1E+10	1	-1E+10	1
4902549	86	C	12/29/2022	05:57	-133.451	47.592	0	175.00	0	6.6410	0	33.7420	0	26.478	0	173.464	0	162.6	4	54.5	4	-1E+10	1	-1E+10	1	-1E+10	1	-1E+10	1	-1E+10	1	-1E+10	1
4902549	86	C	12/29/2022	05:57	-133.451	47.592	0	176.30	0	6.6260	0	33.7440	0	26.482	0	174.752	0	161.9	4	54.2	4	-1E+10	1	-1E+10	1	-1E+10	1	-1E+10	1	-1E+10	1	-1E+10	1
4902549	86	C	12/29/2022	05:57	-133.451	47.592	0	177.10	0	6.6190	0	33.7480	0	26.486	0	175.545	0	161.3	4	54.0	4	-1E+10	1	-1E+10	1	-1E+10	1	-1E+10	1	-1E+10	1	-1E+10	1
4902549	86	C	12/29/2022	05:57	-133.451	47.592	0	178.00	0	6.5640	0	33.7540	0	26.498	0	176.437	0	161.1	4	53.9	4	-1E+10	1	-1E+10	1	-1E+10	1	-1E+10	1	-1E+10	1	-1E+10	1
4902549	86	C	12/29/2022	05:57	-133.451	47.592	0	178.90	0	6.5420	0	33.7540	0	26.501	0	177.329	0	160.7	4	53.7	4	-1E+10	1	-1E+10	1	-1E+10	1	-1E+10	1	-1E+10	1	-1E+10	1
4902549	86	C	12/29/2022	05:57	-133.451	47.592	0	179.80	0	6.5180	0	33.7580	0	26.507	0	178.220	0	160.4	4	53.6	4	-1E+10	1	-1E+10	1	-1E+10	1	-1E+10	1	-1E+10	1	-1E+10	1
4902549	86	C	12/29/2022	05:57	-133.451	47.592	0	180.70	0	6.5050	0	33.7610	0	26.511	0	179.112	0	160.2	4	53.5	4	-1E+10	1	-1E+10	1	-1E+10	1	-1E+10	1	-1E+10	1	-1E+10	1
4902549	86	C	12/29/2022	05:57	-133.451	47.592	0	181.60	0	6.4950	0	33.7600	0	26.512	0	180.004	0	159.9	4	53.4	4	-1E+10	1	-1E+10	1	-1E+10	1	-1E+10	1	-1E+10	1	-1E+10	1
4902549	86	C	12/29/2022	05:57	-133.451	47.592	0	182.90	0	6.4480	0	33.7630	0	26.520	0	181.292	0	159.5	4	53.2	4	-1E+10	1	-1E+10	1	-1E+10	1	-1E+10	1	-1E+10	1	-1E+10	1
4902549	86	C	12/29/2022	05:57	-133.451	47.592	0	184.40	0	6.4340	0	33.7630	0	26.522	0	182.778	0	159.2	4	53.1	4	-1E+10	1	-1E+10	1	-1E+10	1	-1E+10	1	-1E+10	1	-1E+10	1
4902549	86	C	12/29/2022	05:57	-133.451	47.592	0	185.30	0	6.4260	0	33.7650	0	26.525	0	183.670	0	158.9	4	53.0	4	-1E+10	1	-1E+10	1	-1E+10	1	-1E+10	1	-1E+10	1	-1E+10	1
4902549	86	C	12/29/2022	05:57	-133.451	47.592	0	186.30	0	6.4210	0	33.7640	0	26.525	0	184.660	0	158.6	4	52.9	4	-1E+10	1	-1E+10	1	-1E+10	1	-1E+10	1	-1E+10	1	-1E+10	1
4902549	86	C	12/29/2022	05:57	-133.451	47.592	0	187.20	0	6.4220	0	33.7630	0	26.524	0	185.552	0	158.3	4	52.7	4	-1E+10	1	-1E+10	1	-1E+10	1	-1E+10	1	-1E+10	1	-1E+10	1
4902549	86	C	12/29/2022	05:57	-133.451	47.592	0	188.20	0	6.4220	0	33.7630	0	26.524	0	186.543	0	157.8	4	52.6	4	-1E+10	1	-1E+10	1	-1E+10	1	-1E+10	1	-1E+10	1	-1E+10	1
4902549	86	C	12/29/2022	05:57	-133.451	47.592	0	189.10	0	6.4190	0	33.7650	0	26.526	0	187.434	0	157.3	4	52.4	4	-1E+10	1	-1E+10	1	-1E+10	1	-1E+10	1	-1E+10	1	-1E+10	1
4902549	86	C	12/29/2022	05:57	-133.451	47.592	0	190.10	0	6.4190	0	33.7600	0	26.522	0	188.425	0	156.7	4	52.2	4	-1E+10	1	-1E+10	1	-1E+10	1	-1E+10	1	-1E+10	1	-1E+10	1
4902549	86	C	12/29/2022	05:57	-133.451	47.592	0	191.10	0	6.3540	0	33.7600	0	26.530	0	189.416	0	156.3	4	52.0	4	-1E+10	1	-1E+10	1	-1E+10	1	-1E+10	1	-1E+10	1	-1E+10	1
4902549	86	C	12/29/2022	05:57	-133.451	47.592	0	192.10	0	6.3340	0	33.7610	0	26.534	0	190.407	0	155.7	4	51.8	4	-1E+10	1	-1E+10	1	-1E+10	1	-1E+10	1	-1E+10	1	-1E+10	1
4902549	86	C	12/29/2022	05:57	-133.451	47.592	0	193.00	0	6.3260	0	33.7620	0	26.535	0	191.298	0	155.0	4	51.5	4	-1E+10	1	-1E+10	1	-1E+10	1	-1E+10	1	-1E+10	1	-1E+10	1
4902549	86	C	12/29/2022	05:57	-133.451	47.592	0	194.10	0	6.3290	0	33.7670	0	26.539	0	192.388	0	154.3	4	51.3	4	-1E+10	1	-1E+10	1	-1E+10	1	-1E+10	1	-1E+10	1	-1E+10	1
4902549	86	C	12/29/2022	05:57	-133.451	47.592	0	195.10	0	6.3280	0	33.7680	0	26.540	0	193.379	0	153.7	4	51.1	4	-1E+10	1	-1E+10	1	-1E+10	1	-1E+10	1	-1E+10	1	-1E+10	1
4902549	86	C	12/29/2022	05:57	-133.451	47.592	0	196.10	0	6.2960	0	33.7670	0	26.543	0	194.369	0	153.1	4	50.9	4	-1E+10	1	-1E+10	1	-1E+10	1	-1E+10	1	-1E+10	1	-1E+10	1
4902549	86	C	12/29/2022	05:57	-133.451	47.592	0	197.10	0	6.2960	0	33.7700	0	26.546	0	195.360	0	152.5	4	50.7	4	-1E+10	1	-1E+10	1	-1E+10	1	-1E+10	1	-1E+10	1	-1E+10	1
4902549	86	C	12/29/2022	05:57	-133.451	47.592	0	198.10	0	6.2670	0	33.7710	0	26.550	0	196.351	0	152.1	4	50.5	4	-1E+10	1	-1E+10	1	-1E+10	1	-1E+10	1	-1E+10	1	-1E+10	1
4902549	86	C	12/29/2022	05:57	-133.451	47.592	0	199.10	0	6.2610	0	33.7720	0	26.552	0	197.341	0	151.7	4	50.4	4	-1E+10	1	-1E+10	1	-1E+10	1	-1E+10	1	-1E+10	1	-1E+10	1
4902549	86	C	12/29/2022	05:57	-133.451	47.592	0	200.20	0	6.2550	0	33.7710	0	26.552	0	198.431	0	151.2	4	50.2	4	-1E+10	1	-1E+10	1	-1E+10	1	-1E+10	1	-1E+10	1	-1E+10	1
4902549	86	C	12/29/2022	05:57	-133.451	47.592	0	201.20	0	6.2480	0	33.7700	0	26.552	0	199.422	0	150.6	4	50.0	4	-1E+10	1	-1E+10	1	-1E+10	1	-1E+10	1	-1E+10	1	-1E+10	1
4902549	86	C	12/29/2022	05:57	-133.451	47.592	0	202.20	0	6.2390	0	33.7700	0	26.553	0	200.413	0	150.0	4	49.8	4	-1E+10	1	-1E+10	1	-1E+10	1	-1E+10	1	-1E+10	1	-1E+10	1
4902549	86	C	12/29/2022	05:57	-133.451	47.592	0	203.30	0	6.1910	0	33.7680	0	26.557	0	201.502	0	149.5	4	49.6	4	-1E+10	1	-1E+10	1	-1E+10	1	-1E+10	1	-1E+10	1	-1E+10	1
4902549	86	C	12/29/2022	05:57	-133.451	47.592	0	204.30	0	6.1530	0	33.7660	0	26.561	0	202.493	0	149.0	4	49.4	4	-1E+10	1	-1E+10	1	-1E+10	1	-1E+10	1	-1E+10	1	-1E+10	1
4902549	86	C	12/29/2022	05:57	-133.451	47.592	0	205.40	0	6.1420	0	33.7640	0	26.560	0	203.583	0	148.2	4	49.1	4	-1E+10	1	-1E+10	1	-1E+10	1	-1E+10	1	-1E+10	1	-1E+10	1
4902549	86	C	12/29/2022	05:57	-133.451	47.592	0	206.50	0	6.1210	0	33.7650	0	26.564	0	204.672	0	147.4	4	48.8	4	-1E+10	1	-1E+10	1	-1E+10	1	-1E+10	1	-1E+10	1	-1E+10	1
4902549	86	C	12/29/2022	05:57	-133.451	47.592	0	207.50	0	6.1030	0	33.7660	0	26.567	0	205.663	0	146.7	4	48.5	4	-1E+10	1	-1E+10	1	-1E+10	1	-1E+10	1	-1E+10	1	-1E+10	1
4902549	86	C	12/29/2022	05:57	-133.451	47.592	0	208.60	0	6.0740	0	33.7690	0	26.573	0	206.753	0	146.1	4	48.3	4	-1E+10	1	-1E+10	1	-1E+10	1	-1E+10	1	-1E+10	1	-1E+10	1
4902549	86	C	12/29/2022	05:57	-133.451	47.592	0	209.60	0	6.0680	0	33.7680	0	26.573	0	207.743	0	145.4	4	48.1	4	-1E+10	1	-1E+10	1	-1E+10	1	-1E+10	1	-1E+10	1	-1E+10	1
4902549	86	C	12/29/2022	05:57	-133.451	47.592	0	210.70	0	6.0600	0	33.7680	0	26.574	0	208.833	0	144.6	4	47.8	4	-1E+10	1	-1E+10	1	-1E+10	1	-1E+10	1	-1E+10	1	-1E+10	1
4902549	86	C	12/29/2022	05:57	-133.451	47.592	0	211.70	0	6.0490	0	33.7690	0	26.576	0	209.824	0	143.8	4	47.5	4	-1E+10	1	-1E+10	1	-1E+10	1	-1E+10	1	-1E+10	1	-1E+10	1
4902549	86	C	12/29/2022	05:57	-133.451	47.592	0	212.80	0	6.0440	0	33.7700	0	26.578	0	210.913	0	142.9	4	47.2	4	-1E+10	1	-1E+10	1	-1E+10	1	-1E+10	1	-1E+10	1	-1E+10	1
4902549	86	C	12/29/2022	05:57	-133.451	47.592	0	213.80	0	6.0230	0	33.7720	0	26.582	0	211.904	0	142.0	4	46.9	4	-1E+10	1	-1E+10	1	-1E+10	1	-1E+10	1	-1E+10	1	-1E+10	1
4902549	86	C	12/29/2022	05:57	-133.451	47.592	0	214.80	0	6.0100	0	33.7710	0	26.583	0	212.895	0	141.0	4	46.6	4	-1E+10	1	-1E+10	1	-1E+10	1	-1E+10	1	-1E+10	1	-1E+10	1
4902549	86	C	12/29/2022	05:57	-133.451	47.592	0	215.80	0	5.9640	0	33.7720	0	26.589	0	213.885	0	140.2	4	46.2	4	-1E+10	1	-1E+10	1	-1E+10	1	-1E+10	1	-1E+10	1	-1E+10	1
4902549	86	C	12/29/2022	05:57	-133.451	47.592	0	216.90	0	5.9500	0	33.7710	0	26.590	0	214.975	0	139.3	4	45.9	4	-1E+10	1	-1E+10	1	-1E+10	1	-1E+10	1	-1E+10	1	-1E+10	1
4902549	86	C	12/29/2022	05:57	-133.451	47.592	0	217.90	0	5.9270	0	33.7700	0	26.592	0	215.966	0	138.4	4	45.6	4	-1E+10	1	-1E+10	1	-1E+10	1	-1E+10	1	-1E+10	1	-1E+10	1
4902549	86	C	12/29/2022	05:57	-133.451	47.592	0	219.00	0	5.9010	0	33.7740	0	26.599	0	217.055	0	137.5	4	45.3	4	-1E+10	1	-1E+10	1	-1E+10	1	-1E+10	1	-1E+10	1	-1E+10	1
4902549	86	C	12/29/2022	05:57	-133.451	47.592	0	220.00	0	5.8930	0	33.7750	0	26.600	0	218.046	0	136.7	4	45.0	4	-1E+10	1	-1E+10	1	-1E+10	1	-1E+10	1	-1E+10	1	-1E+10	1
4902549	86	C	12/29/2022	05:57	-133.451	47.592	0	221.10	0	5.9090	0	33.7810	0	26.603	0	219.136	0	135.9	4	44.8	4	-1E+10	1	-1E+10	1	-1E+10	1	-1E+10	1	-1E+10	1	-1E+10	1
4902549	86	C	12/29/2022	05:57	-133.451	47.592	0	222.10	0	5.8950	0	33.7860	0	26.609	0	220.126	0	135.3	4	44.6	4	-1E+10	1	-1E+10	1	-1E+10	1	-1E+10	1	-1E+10	1	-1E+10	1
4902549	86	C	12/29/2022	05:57	-133.451	47.592	0	223.20	0	5.8830	0	33.7870	0	26.611	0	221.216	0	134.7	4	44.3	4	-1E+10	1	-1E+10	1	-1E+10	1	-1E+10	1	-1E+10	1	-1E+10	1
4902549	86	C	12/29/2022	05:57	-133.451	47.592	0	224.20	0	5.8640	0	33.7830	0	26.610	0	222.206	0	134.0	4	44.1	4	-1E+10	1	-1E+10	1	-1E+10	1	-1E+10	1	-1E+10	1	-1E+10	1
4902549	86	C	12/29/2022	05:57	-133.451	47.592	0	225.30	0	5.8520	0	33.7820	0	26.611	0	223.296	0	133.3	4	43.8	4	-1E+10	1	-1E+10	1	-1E+10	1	-1E+10	1	-1E+10	1	-1E+10	1
4902549	86	C	12/29/2022	05:57	-133.451	47.592	0	226.30	0	5.8410	0	33.7850	0	26.615	0	224.287	0	132.4	4	43.5	4	-1E+10	1	-1E+10	1	-1E+10	1	-1E+10	1	-1E+10	1	-1E+10	1
4902549	86	C	12/29/2022	05:57	-133.451	47.592	0	227.40	0	5.8200	0	33.7850	0	26.617	0	225.376	0	131.5	4	43.2	4	-1E+10	1	-1E+10	1	-1E+10	1	-1E+10	1	-1E+10	1	-1E+10	1
4902549	86	C	12/29/2022	05:57	-133.451	47.592	0	228.40	0	5.8090	0	33.7840	0	26.618	0	226.367	0	130.6	4	42.9	4	-1E+10	1	-1E+10	1	-1E+10	1	-1E+10	1	-1E+10	1	-1E+10	1
4902549	86	C	12/29/2022	05:57	-133.451	47.592	0	229.50	0	5.8010	0	33.7920	0	26.625	0	227.456	0	130.0	4	42.7	4	-1E+10	1	-1E+10	1	-1E+10	1	-1E+10	1	-1E+10	1	-1E+10	1
4902549	86	C	12/29/2022	05:57	-133.451	47.592	0	230.60	0	5.7860	0	33.7910	0	26.626	0	228.546	0	129.3	4	42.5	4	-1E+10	1	-1E+10	1	-1E+10	1	-1E+10	1	-1E+10	1	-1E+10	1
4902549	86	C	12/29/2022	05:57	-133.451	47.592	0	231.60	0	5.7900	0	33.7930	0	26.627	0	229.536	0	128.6	4	42.3	4	-1E+10	1	-1E+10	1	-1E+10	1	-1E+10	1	-1E+10	1	-1E+10	1
4902549	86	C	12/29/2022	05:57	-133.451	47.592	0	232.70	0	5.7920	0	33.7970	0	26.630	0	230.626	0	128.1	4	42.1	4	-1E+10	1	-1E+10	1	-1E+10	1	-1E+10	1	-1E+10	1	-1E+10	1
4902549	86	C	12/29/2022	05:57	-133.451	47.592	0	233.70	0	5.7740	0	33.7980	0	26.633	0	231.617	0	127.7	4	41.9	4	-1E+10	1	-1E+10	1	-1E+10	1	-1E+10	1	-1E+10	1	-1E+10	1
4902549	86	C	12/29/2022	05:57	-133.451	47.592	0	234.80	0	5.7700	0	33.7970	0	26.633	0	232.706	0	127.1	4	41.7	4	-1E+10	1	-1E+10	1	-1E+10	1	-1E+10	1	-1E+10	1	-1E+10	1
4902549	86	C	12/29/2022	05:57	-133.451	47.592	0	235.80	0	5.7690	0	33.7970	0	26.633	0	233.697	0	126.5	4	41.5	4	-1E+10	1	-1E+10	1	-1E+10	1	-1E+10	1	-1E+10	1	-1E+10	1
4902549	86	C	12/29/2022	05:57	-133.451	47.592	0	236.70	0	5.7630	0	33.7940	0	26.632	0	234.588	0	125.9	4	41.3	4	-1E+10	1	-1E+10	1	-1E+10	1	-1E+10	1	-1E+10	1	-1E+10	1
4902549	86	C	12/29/2022	05:57	-133.451	47.592	0	237.90	0	5.7450	0	33.8010	0	26.639	0	235.777	0	125.3	4	41.1	4	-1E+10	1	-1E+10	1	-1E+10	1	-1E+10	1	-1E+10	1	-1E+10	1
4902549	86	C	12/29/2022	05:57	-133.451	47.592	0	238.70	0	5.7360	0	33.8020	0	26.641	0	236.569	0	124.8	4	40.9	4	-1E+10	1	-1E+10	1	-1E+10	1	-1E+10	1	-1E+10	1	-1E+10	1
4902549	86	C	12/29/2022	05:57	-133.451	47.592	0	239.90	0	5.7340	0	33.8010	0	26.641	0	237.758	0	124.1	4	40.7	4	-1E+10	1	-1E+10	1	-1E+10	1	-1E+10	1	-1E+10	1	-1E+10	1
4902549	86	C	12/29/2022	05:57	-133.451	47.592	0	241.10	0	5.7290	0	33.8020	0	26.642	0	238.946	0	123.4	4	40.5	4	-1E+10	1	-1E+10	1	-1E+10	1	-1E+10	1	-1E+10	1	-1E+10	1
4902549	86	C	12/29/2022	05:57	-133.451	47.592	0	241.90	0	5.7160	0	33.8030	0	26.644	0	239.739	0	123.0	4	40.3	4	-1E+10	1	-1E+10	1	-1E+10	1	-1E+10	1	-1E+10	1	-1E+10	1
4902549	86	C	12/29/2022	05:57	-133.451	47.592	0	243.00	0	5.6990	0	33.8040	0	26.647	0	240.828	0	122.3	4	40.1	4	-1E+10	1	-1E+10	1	-1E+10	1	-1E+10	1	-1E+10	1	-1E+10	1
4902549	86	C	12/29/2022	05:57	-133.451	47.592	0	244.30	0	5.6890	0	33.8040	0	26.649	0	242.116	0	121.7	4	39.9	4	-1E+10	1	-1E+10	1	-1E+10	1	-1E+10	1	-1E+10	1	-1E+10	1
4902549	86	C	12/29/2022	05:57	-133.451	47.592	0	245.00	0	5.6830	0	33.8040	0	26.649	0	242.809	0	121.2	4	39.7	4	-1E+10	1	-1E+10	1	-1E+10	1	-1E+10	1	-1E+10	1	-1E+10	1
4902549	86	C	12/29/2022	05:57	-133.451	47.592	0	245.80	0	5.6720	0	33.8040	0	26.651	0	243.602	0	120.7	4	39.5	4	-1E+10	1	-1E+10	1	-1E+10	1	-1E+10	1	-1E+10	1	-1E+10	1
4902549	86	C	12/29/2022	05:57	-133.451	47.592	0	247.00	0	5.6610	0	33.8030	0	26.651	0	244.790	0	119.9	4	39.3	4	-1E+10	1	-1E+10	1	-1E+10	1	-1E+10	1	-1E+10	1	-1E+10	1
4902549	86	C	12/29/2022	05:57	-133.451	47.592	0	248.20	0	5.6410	0	33.8000	0	26.651	0	245.979	0	119.2	4	39.0	4	-1E+10	1	-1E+10	1	-1E+10	1	-1E+10	1	-1E+10	1	-1E+10	1
4902549	86	C	12/29/2022	05:57	-133.451	47.592	0	248.90	0	5.5840	0	33.8010	0	26.659	0	246.672	0	118.8	4	38.8	4	-1E+10	1	-1E+10	1	-1E+10	1	-1E+10	1	-1E+10	1	-1E+10	1
4902549	86	C	12/29/2022	05:57	-133.451	47.592	0	249.70	0	5.5600	0	33.8020	0	26.663	0	247.464	0	118.4	4	38.7	4	-1E+10	1	-1E+10	1	-1E+10	1	-1E+10	1	-1E+10	1	-1E+10	1
4902549	86	C	12/29/2022	05:57	-133.451	47.592	0	250.90	0	5.5480	0	33.8010	0	26.663	0	248.653	0	117.6	4	38.4	4	-1E+10	1	-1E+10	1	-1E+10	1	-1E+10	1	-1E+10	1	-1E+10	1
4902549	86	C	12/29/2022	05:57	-133.451	47.592	0	252.20	0	5.5110	0	33.7990	0	26.666	0	249.940	0	116.8	4	38.1	4	-1E+10	1	-1E+10	1	-1E+10	1	-1E+10	1	-1E+10	1	-1E+10	1
4902549	86	C	12/29/2022	05:57	-133.451	47.592	0	253.00	0	5.4920	0	33.7990	0	26.668	0	250.733	0	116.3	4	37.9	4	-1E+10	1	-1E+10	1	-1E+10	1	-1E+10	1	-1E+10	1	-1E+10	1
4902549	86	C	12/29/2022	05:57	-133.451	47.592	0	253.80	0	5.4690	0	33.7980	0	26.670	0	251.525	0	115.8	4	37.7	4	-1E+10	1	-1E+10	1	-1E+10	1	-1E+10	1	-1E+10	1	-1E+10	1
4902549	86	C	12/29/2022	05:57	-133.451	47.592	0	255.00	0	5.4590	0	33.8030	0	26.675	0	252.714	0	115.1	4	37.5	4	-1E+10	1	-1E+10	1	-1E+10	1	-1E+10	1	-1E+10	1	-1E+10	1
4902549	86	C	12/29/2022	05:57	-133.451	47.592	0	256.20	0	5.4140	0	33.8000	0	26.678	0	253.902	0	114.4	4	37.3	4	-1E+10	1	-1E+10	1	-1E+10	1	-1E+10	1	-1E+10	1	-1E+10	1
4902549	86	C	12/29/2022	05:57	-133.451	47.592	0	257.10	0	5.3980	0	33.7960	0	26.677	0	254.794	0	113.9	4	37.1	4	-1E+10	1	-1E+10	1	-1E+10	1	-1E+10	1	-1E+10	1	-1E+10	1
4902549	86	C	12/29/2022	05:57	-133.451	47.592	0	257.90	0	5.3550	0	33.8000	0	26.685	0	255.586	0	113.5	4	36.9	4	-1E+10	1	-1E+10	1	-1E+10	1	-1E+10	1	-1E+10	1	-1E+10	1
4902549	86	C	12/29/2022	05:57	-133.451	47.592	0	258.70	0	5.3520	0	33.7970	0	26.683	0	256.378	0	113.1	4	36.8	4	-1E+10	1	-1E+10	1	-1E+10	1	-1E+10	1	-1E+10	1	-1E+10	1
4902549	86	C	12/29/2022	05:57	-133.451	47.592	0	260.00	0	5.3360	0	33.7990	0	26.687	0	257.666	0	112.4	4	36.5	4	-1E+10	1	-1E+10	1	-1E+10	1	-1E+10	1	-1E+10	1	-1E+10	1
4902549	86	C	12/29/2022	05:57	-133.451	47.592	0	261.30	0	5.3270	0	33.7980	0	26.687	0	258.953	0	111.6	4	36.3	4	-1E+10	1	-1E+10	1	-1E+10	1	-1E+10	1	-1E+10	1	-1E+10	1
4902549	86	C	12/29/2022	05:57	-133.451	47.592	0	262.10	0	5.3240	0	33.7970	0	26.687	0	259.746	0	111.1	4	36.1	4	-1E+10	1	-1E+10	1	-1E+10	1	-1E+10	1	-1E+10	1	-1E+10	1
4902549	86	C	12/29/2022	05:57	-133.451	47.592	0	263.00	0	5.3140	0	33.7980	0	26.689	0	260.637	0	110.6	4	35.9	4	-1E+10	1	-1E+10	1	-1E+10	1	-1E+10	1	-1E+10	1	-1E+10	1
4902549	86	C	12/29/2022	05:57	-133.451	47.592	0	263.80	0	5.3050	0	33.7990	0	26.690	0	261.429	0	110.0	4	35.7	4	-1E+10	1	-1E+10	1	-1E+10	1	-1E+10	1	-1E+10	1	-1E+10	1
4902549	86	C	12/29/2022	05:57	-133.451	47.592	0	264.70	0	5.3040	0	33.7990	0	26.691	0	262.321	0	109.4	4	35.5	4	-1E+10	1	-1E+10	1	-1E+10	1	-1E+10	1	-1E+10	1	-1E+10	1
4902549	86	C	12/29/2022	05:57	-133.451	47.592	0	265.90	0	5.2770	0	33.8020	0	26.696	0	263.509	0	108.5	4	35.2	4	-1E+10	1	-1E+10	1	-1E+10	1	-1E+10	1	-1E+10	1	-1E+10	1
4902549	86	C	12/29/2022	05:57	-133.451	47.592	0	267.20	0	5.2460	0	33.8050	0	26.702	0	264.796	0	107.9	4	35.0	4	-1E+10	1	-1E+10	1	-1E+10	1	-1E+10	1	-1E+10	1	-1E+10	1
4902549	86	C	12/29/2022	05:57	-133.451	47.592	0	268.10	0	5.2380	0	33.8050	0	26.703	0	265.688	0	107.6	4	34.9	4	-1E+10	1	-1E+10	1	-1E+10	1	-1E+10	1	-1E+10	1	-1E+10	1
4902549	86	C	12/29/2022	05:57	-133.451	47.592	0	269.00	0	5.2280	0	33.8050	0	26.704	0	266.579	0	107.3	4	34.8	4	-1E+10	1	-1E+10	1	-1E+10	1	-1E+10	1	-1E+10	1	-1E+10	1
4902549	86	C	12/29/2022	05:57	-133.451	47.592	0	269.90	0	5.2140	0	33.8070	0	26.707	0	267.470	0	107.0	4	34.7	4	-1E+10	1	-1E+10	1	-1E+10	1	-1E+10	1	-1E+10	1	-1E+10	1
4902549	86	C	12/29/2022	05:57	-133.451	47.592	0	270.80	0	5.2090	0	33.8070	0	26.708	0	268.362	0	106.7	4	34.6	4	-1E+10	1	-1E+10	1	-1E+10	1	-1E+10	1	-1E+10	1	-1E+10	1
4902549	86	C	12/29/2022	05:57	-133.451	47.592	0	271.70	0	5.2060	0	33.8070	0	26.708	0	269.253	0	106.5	4	34.5	4	-1E+10	1	-1E+10	1	-1E+10	1	-1E+10	1	-1E+10	1	-1E+10	1
4902549	86	C	12/29/2022	05:57	-133.451	47.592	0	272.60	0	5.2030	0	33.8080	0	26.710	0	270.144	0	106.2	4	34.4	4	-1E+10	1	-1E+10	1	-1E+10	1	-1E+10	1	-1E+10	1	-1E+10	1
4902549	86	C	12/29/2022	05:57	-133.451	47.592	0	273.60	0	5.1990	0	33.8080	0	26.710	0	271.135	0	105.8	4	34.3	4	-1E+10	1	-1E+10	1	-1E+10	1	-1E+10	1	-1E+10	1	-1E+10	1
4902549	86	C	12/29/2022	05:57	-133.451	47.592	0	274.90	0	5.1900	0	33.8080	0	26.711	0	272.422	0	105.4	4	34.1	4	-1E+10	1	-1E+10	1	-1E+10	1	-1E+10	1	-1E+10	1	-1E+10	1
4902549	86	C	12/29/2022	05:57	-133.451	47.592	0	276.30	0	5.1860	0	33.8090	0	26.712	0	273.809	0	105.0	4	34.0	4	-1E+10	1	-1E+10	1	-1E+10	1	-1E+10	1	-1E+10	1	-1E+10	1
4902549	86	C	12/29/2022	05:57	-133.451	47.592	0	277.30	0	5.1840	0	33.8090	0	26.713	0	274.799	0	104.6	4	33.9	4	-1E+10	1	-1E+10	1	-1E+10	1	-1E+10	1	-1E+10	1	-1E+10	1
4902549	86	C	12/29/2022	05:57	-133.451	47.592	0	278.20	0	5.1840	0	33.8090	0	26.713	0	275.690	0	104.2	4	33.7	4	-1E+10	1	-1E+10	1	-1E+10	1	-1E+10	1	-1E+10	1	-1E+10	1
4902549	86	C	12/29/2022	05:57	-133.451	47.592	0	279.10	0	5.1690	0	33.8130	0	26.717	0	276.581	0	103.8	4	33.6	4	-1E+10	1	-1E+10	1	-1E+10	1	-1E+10	1	-1E+10	1	-1E+10	1
4902549	86	C	12/29/2022	05:57	-133.451	47.592	0	280.10	0	5.1640	0	33.8100	0	26.716	0	277.572	0	103.4	4	33.5	4	-1E+10	1	-1E+10	1	-1E+10	1	-1E+10	1	-1E+10	1	-1E+10	1
4902549	86	C	12/29/2022	05:57	-133.451	47.592	0	281.00	0	5.1520	0	33.8110	0	26.718	0	278.463	0	103.1	4	33.4	4	-1E+10	1	-1E+10	1	-1E+10	1	-1E+10	1	-1E+10	1	-1E+10	1
4902549	86	C	12/29/2022	05:57	-133.451	47.592	0	282.00	0	5.1430	0	33.8120	0	26.720	0	279.453	0	102.8	4	33.3	4	-1E+10	1	-1E+10	1	-1E+10	1	-1E+10	1	-1E+10	1	-1E+10	1
4902549	86	C	12/29/2022	05:57	-133.451	47.592	0	282.90	0	5.1370	0	33.8120	0	26.720	0	280.345	0	102.5	4	33.2	4	-1E+10	1	-1E+10	1	-1E+10	1	-1E+10	1	-1E+10	1	-1E+10	1
4902549	86	C	12/29/2022	05:57	-133.451	47.592	0	283.90	0	5.1340	0	33.8120	0	26.721	0	281.335	0	102.1	4	33.0	4	-1E+10	1	-1E+10	1	-1E+10	1	-1E+10	1	-1E+10	1	-1E+10	1
4902549	86	C	12/29/2022	05:57	-133.451	47.592	0	284.80	0	5.1310	0	33.8120	0	26.721	0	282.226	0	101.8	4	32.9	4	-1E+10	1	-1E+10	1	-1E+10	1	-1E+10	1	-1E+10	1	-1E+10	1
4902549	86	C	12/29/2022	05:57	-133.451	47.592	0	285.80	0	5.1310	0	33.8120	0	26.721	0	283.216	0	101.4	4	32.8	4	-1E+10	1	-1E+10	1	-1E+10	1	-1E+10	1	-1E+10	1	-1E+10	1
4902549	86	C	12/29/2022	05:57	-133.451	47.592	0	286.70	0	5.1300	0	33.8120	0	26.721	0	284.108	0	100.9	4	32.6	4	-1E+10	1	-1E+10	1	-1E+10	1	-1E+10	1	-1E+10	1	-1E+10	1
4902549	86	C	12/29/2022	05:57	-133.451	47.592	0	287.70	0	5.1200	0	33.8140	0	26.724	0	285.098	0	100.4	4	32.5	4	-1E+10	1	-1E+10	1	-1E+10	1	-1E+10	1	-1E+10	1	-1E+10	1
4902549	86	C	12/29/2022	05:57	-133.451	47.592	0	288.70	0	5.1000	0	33.8160	0	26.728	0	286.088	0	100.0	4	32.3	4	-1E+10	1	-1E+10	1	-1E+10	1	-1E+10	1	-1E+10	1	-1E+10	1
4902549	86	C	12/29/2022	05:57	-133.451	47.592	0	289.60	0	5.0940	0	33.8160	0	26.729	0	286.979	0	99.7	4	32.2	4	-1E+10	1	-1E+10	1	-1E+10	1	-1E+10	1	-1E+10	1	-1E+10	1
4902549	86	C	12/29/2022	05:57	-133.451	47.592	0	290.60	0	5.0840	0	33.8170	0	26.730	0	287.970	0	99.4	4	32.1	4	-1E+10	1	-1E+10	1	-1E+10	1	-1E+10	1	-1E+10	1	-1E+10	1
4902549	86	C	12/29/2022	05:57	-133.451	47.592	0	291.60	0	5.0810	0	33.8170	0	26.731	0	288.960	0	99.1	4	32.0	4	-1E+10	1	-1E+10	1	-1E+10	1	-1E+10	1	-1E+10	1	-1E+10	1
4902549	86	C	12/29/2022	05:57	-133.451	47.592	0	292.60	0	5.0800	0	33.8170	0	26.731	0	289.950	0	98.8	4	31.9	4	-1E+10	1	-1E+10	1	-1E+10	1	-1E+10	1	-1E+10	1	-1E+10	1
4902549	86	C	12/29/2022	05:57	-133.451	47.592	0	293.60	0	5.0780	0	33.8170	0	26.731	0	290.940	0	98.3	4	31.8	4	-1E+10	1	-1E+10	1	-1E+10	1	-1E+10	1	-1E+10	1	-1E+10	1
4902549	86	C	12/29/2022	05:57	-133.451	47.592	0	294.50	0	5.0700	0	33.8170	0	26.732	0	291.832	0	98.0	4	31.7	4	-1E+10	1	-1E+10	1	-1E+10	1	-1E+10	1	-1E+10	1	-1E+10	1
4902549	86	C	12/29/2022	05:57	-133.451	47.592	0	295.50	0	5.0640	0	33.8190	0	26.734	0	292.822	0	97.6	4	31.5	4	-1E+10	1	-1E+10	1	-1E+10	1	-1E+10	1	-1E+10	1	-1E+10	1
4902549	86	C	12/29/2022	05:57	-133.451	47.592	0	296.50	0	5.0610	0	33.8180	0	26.734	0	293.812	0	97.3	4	31.4	4	-1E+10	1	-1E+10	1	-1E+10	1	-1E+10	1	-1E+10	1	-1E+10	1
4902549	86	C	12/29/2022	05:57	-133.451	47.592	0	297.50	0	5.0570	0	33.8190	0	26.735	0	294.802	0	96.8	4	31.3	4	-1E+10	1	-1E+10	1	-1E+10	1	-1E+10	1	-1E+10	1	-1E+10	1
4902549	86	C	12/29/2022	05:57	-133.451	47.592	0	298.50	0	5.0470	0	33.8200	0	26.737	0	295.793	0	96.4	4	31.1	4	-1E+10	1	-1E+10	1	-1E+10	1	-1E+10	1	-1E+10	1	-1E+10	1
4902549	86	C	12/29/2022	05:57	-133.451	47.592	0	299.50	0	5.0420	0	33.8200	0	26.738	0	296.783	0	96.1	4	31.0	4	-1E+10	1	-1E+10	1	-1E+10	1	-1E+10	1	-1E+10	1	-1E+10	1
4902549	86	C	12/29/2022	05:57	-133.451	47.592	0	300.50	0	5.0390	0	33.8200	0	26.738	0	297.773	0	95.6	4	30.9	4	-1E+10	1	-1E+10	1	-1E+10	1	-1E+10	1	-1E+10	1	-1E+10	1
4902549	86	C	12/29/2022	05:57	-133.451	47.592	0	301.50	0	5.0350	0	33.8200	0	26.739	0	298.763	0	95.1	4	30.7	4	-1E+10	1	-1E+10	1	-1E+10	1	-1E+10	1	-1E+10	1	-1E+10	1
4902549	86	C	12/29/2022	05:57	-133.451	47.592	0	302.50	0	5.0310	0	33.8210	0	26.740	0	299.753	0	94.5	4	30.5	4	-1E+10	1	-1E+10	1	-1E+10	1	-1E+10	1	-1E+10	1	-1E+10	1
4902549	86	C	12/29/2022	05:57	-133.451	47.592	0	303.90	0	5.0070	0	33.8220	0	26.743	0	301.140	0	93.8	4	30.2	4	-1E+10	1	-1E+10	1	-1E+10	1	-1E+10	1	-1E+10	1	-1E+10	1
4902549	86	C	12/29/2022	05:57	-133.451	47.592	0	305.40	0	4.9830	0	33.8260	0	26.749	0	302.625	0	93.2	4	30.0	4	-1E+10	1	-1E+10	1	-1E+10	1	-1E+10	1	-1E+10	1	-1E+10	1
4902549	86	C	12/29/2022	05:57	-133.451	47.592	0	306.40	0	4.9810	0	33.8260	0	26.749	0	303.615	0	92.8	4	29.9	4	-1E+10	1	-1E+10	1	-1E+10	1	-1E+10	1	-1E+10	1	-1E+10	1
4902549	86	C	12/29/2022	05:57	-133.451	47.592	0	307.40	0	4.9780	0	33.8260	0	26.750	0	304.605	0	92.3	4	29.7	4	-1E+10	1	-1E+10	1	-1E+10	1	-1E+10	1	-1E+10	1	-1E+10	1
4902549	86	C	12/29/2022	05:57	-133.451	47.592	0	308.40	0	4.9760	0	33.8260	0	26.750	0	305.595	0	91.7	4	29.6	4	-1E+10	1	-1E+10	1	-1E+10	1	-1E+10	1	-1E+10	1	-1E+10	1
4902549	86	C	12/29/2022	05:57	-133.451	47.592	0	309.40	0	4.9740	0	33.8260	0	26.750	0	306.586	0	91.1	4	29.4	4	-1E+10	1	-1E+10	1	-1E+10	1	-1E+10	1	-1E+10	1	-1E+10	1
4902549	86	C	12/29/2022	05:57	-133.451	47.592	0	310.40	0	4.9710	0	33.8270	0	26.751	0	307.576	0	90.5	4	29.2	4	-1E+10	1	-1E+10	1	-1E+10	1	-1E+10	1	-1E+10	1	-1E+10	1
4902549	86	C	12/29/2022	05:57	-133.451	47.592	0	311.30	0	4.9600	0	33.8270	0	26.753	0	308.467	0	89.8	4	28.9	4	-1E+10	1	-1E+10	1	-1E+10	1	-1E+10	1	-1E+10	1	-1E+10	1
4902549	86	C	12/29/2022	05:57	-133.451	47.592	0	312.30	0	4.9490	0	33.8290	0	26.756	0	309.457	0	89.0	4	28.7	4	-1E+10	1	-1E+10	1	-1E+10	1	-1E+10	1	-1E+10	1	-1E+10	1
4902549	86	C	12/29/2022	05:57	-133.451	47.592	0	313.30	0	4.9380	0	33.8300	0	26.758	0	310.447	0	88.3	4	28.4	4	-1E+10	1	-1E+10	1	-1E+10	1	-1E+10	1	-1E+10	1	-1E+10	1
4902549	86	C	12/29/2022	05:57	-133.451	47.592	0	314.30	0	4.9220	0	33.8340	0	26.763	0	311.437	0	87.6	4	28.2	4	-1E+10	1	-1E+10	1	-1E+10	1	-1E+10	1	-1E+10	1	-1E+10	1
4902549	86	C	12/29/2022	05:57	-133.451	47.592	0	315.30	0	4.9070	0	33.8390	0	26.768	0	312.427	0	87.1	4	28.0	4	-1E+10	1	-1E+10	1	-1E+10	1	-1E+10	1	-1E+10	1	-1E+10	1
4902549	86	C	12/29/2022	05:57	-133.451	47.592	0	316.30	0	4.9090	0	33.8410	0	26.770	0	313.418	0	86.7	4	27.9	4	-1E+10	1	-1E+10	1	-1E+10	1	-1E+10	1	-1E+10	1	-1E+10	1
4902549	86	C	12/29/2022	05:57	-133.451	47.592	0	317.30	0	4.9110	0	33.8420	0	26.770	0	314.408	0	86.1	4	27.7	4	-1E+10	1	-1E+10	1	-1E+10	1	-1E+10	1	-1E+10	1	-1E+10	1
4902549	86	C	12/29/2022	05:57	-133.451	47.592	0	318.30	0	4.9120	0	33.8430	0	26.771	0	315.398	0	85.6	4	27.5	4	-1E+10	1	-1E+10	1	-1E+10	1	-1E+10	1	-1E+10	1	-1E+10	1
4902549	86	C	12/29/2022	05:57	-133.451	47.592	0	319.40	0	4.9140	0	33.8470	0	26.774	0	316.487	0	85.1	4	27.4	4	-1E+10	1	-1E+10	1	-1E+10	1	-1E+10	1	-1E+10	1	-1E+10	1
4902549	86	C	12/29/2022	05:57	-133.451	47.592	0	320.40	0	4.9140	0	33.8480	0	26.775	0	317.477	0	84.6	4	27.2	4	-1E+10	1	-1E+10	1	-1E+10	1	-1E+10	1	-1E+10	1	-1E+10	1
4902549	86	C	12/29/2022	05:57	-133.451	47.592	0	321.40	0	4.9150	0	33.8490	0	26.775	0	318.467	0	84.1	4	27.1	4	-1E+10	1	-1E+10	1	-1E+10	1	-1E+10	1	-1E+10	1	-1E+10	1
4902549	86	C	12/29/2022	05:57	-133.451	47.592	0	322.40	0	4.9130	0	33.8500	0	26.776	0	319.457	0	83.5	4	26.9	4	-1E+10	1	-1E+10	1	-1E+10	1	-1E+10	1	-1E+10	1	-1E+10	1
4902549	86	C	12/29/2022	05:57	-133.451	47.592	0	323.40	0	4.9130	0	33.8500	0	26.776	0	320.447	0	83.0	4	26.7	4	-1E+10	1	-1E+10	1	-1E+10	1	-1E+10	1	-1E+10	1	-1E+10	1
4902549	86	C	12/29/2022	05:57	-133.451	47.592	0	324.30	0	4.9150	0	33.8510	0	26.777	0	321.338	0	82.3	4	26.5	4	-1E+10	1	-1E+10	1	-1E+10	1	-1E+10	1	-1E+10	1	-1E+10	1
4902549	86	C	12/29/2022	05:57	-133.451	47.592	0	325.30	0	4.9160	0	33.8520	0	26.778	0	322.329	0	81.6	4	26.3	4	-1E+10	1	-1E+10	1	-1E+10	1	-1E+10	1	-1E+10	1	-1E+10	1
4902549	86	C	12/29/2022	05:57	-133.451	47.592	0	326.30	0	4.9200	0	33.8530	0	26.778	0	323.319	0	80.8	4	26.0	4	-1E+10	1	-1E+10	1	-1E+10	1	-1E+10	1	-1E+10	1	-1E+10	1
4902549	86	C	12/29/2022	05:57	-133.451	47.592	0	327.30	0	4.9270	0	33.8570	0	26.780	0	324.309	0	80.1	4	25.8	4	-1E+10	1	-1E+10	1	-1E+10	1	-1E+10	1	-1E+10	1	-1E+10	1
4902549	86	C	12/29/2022	05:57	-133.451	47.592	0	328.30	0	4.9410	0	33.8630	0	26.784	0	325.299	0	79.3	4	25.6	4	-1E+10	1	-1E+10	1	-1E+10	1	-1E+10	1	-1E+10	1	-1E+10	1
4902549	86	C	12/29/2022	05:57	-133.451	47.592	0	329.20	0	4.9420	0	33.8650	0	26.785	0	326.190	0	78.6	4	25.3	4	-1E+10	1	-1E+10	1	-1E+10	1	-1E+10	1	-1E+10	1	-1E+10	1
4902549	86	C	12/29/2022	05:57	-133.451	47.592	0	330.20	0	4.9450	0	33.8640	0	26.784	0	327.180	0	77.8	4	25.1	4	-1E+10	1	-1E+10	1	-1E+10	1	-1E+10	1	-1E+10	1	-1E+10	1
4902549	86	C	12/29/2022	05:57	-133.451	47.592	0	331.20	0	4.9560	0	33.8670	0	26.785	0	328.170	0	76.9	4	24.8	4	-1E+10	1	-1E+10	1	-1E+10	1	-1E+10	1	-1E+10	1	-1E+10	1
4902549	86	C	12/29/2022	05:57	-133.451	47.592	0	332.20	0	5.0110	0	33.8810	0	26.790	0	329.160	0	76.2	4	24.6	4	-1E+10	1	-1E+10	1	-1E+10	1	-1E+10	1	-1E+10	1	-1E+10	1
4902549	86	C	12/29/2022	05:57	-133.451	47.592	0	333.20	0	5.0220	0	33.8870	0	26.793	0	330.150	0	75.7	4	24.4	4	-1E+10	1	-1E+10	1	-1E+10	1	-1E+10	1	-1E+10	1	-1E+10	1
4902549	86	C	12/29/2022	05:57	-133.451	47.592	0	334.10	0	5.0210	0	33.8870	0	26.794	0	331.041	0	75.1	4	24.2	4	-1E+10	1	-1E+10	1	-1E+10	1	-1E+10	1	-1E+10	1	-1E+10	1
4902549	86	C	12/29/2022	05:57	-133.451	47.592	0	335.10	0	5.0150	0	33.8880	0	26.795	0	332.031	0	74.6	4	24.1	4	-1E+10	1	-1E+10	1	-1E+10	1	-1E+10	1	-1E+10	1	-1E+10	1
4902549	86	C	12/29/2022	05:57	-133.451	47.592	0	336.10	0	5.0250	0	33.8860	0	26.792	0	333.021	0	74.0	4	23.9	4	-1E+10	1	-1E+10	1	-1E+10	1	-1E+10	1	-1E+10	1	-1E+10	1
4902549	86	C	12/29/2022	05:57	-133.451	47.592	0	337.10	0	5.0300	0	33.8940	0	26.798	0	334.011	0	73.5	4	23.7	4	-1E+10	1	-1E+10	1	-1E+10	1	-1E+10	1	-1E+10	1	-1E+10	1
4902549	86	C	12/29/2022	05:57	-133.451	47.592	0	338.10	0	5.0480	0	33.9010	0	26.802	0	335.001	0	73.1	4	23.6	4	-1E+10	1	-1E+10	1	-1E+10	1	-1E+10	1	-1E+10	1	-1E+10	1
4902549	86	C	12/29/2022	05:57	-133.451	47.592	0	339.10	0	5.0530	0	33.8980	0	26.799	0	335.991	0	72.7	4	23.5	4	-1E+10	1	-1E+10	1	-1E+10	1	-1E+10	1	-1E+10	1	-1E+10	1
4902549	86	C	12/29/2022	05:57	-133.451	47.592	0	340.00	0	5.0610	0	33.9030	0	26.802	0	336.882	0	72.4	4	23.4	4	-1E+10	1	-1E+10	1	-1E+10	1	-1E+10	1	-1E+10	1	-1E+10	1
4902549	86	C	12/29/2022	05:57	-133.451	47.592	0	341.00	0	5.0600	0	33.9100	0	26.807	0	337.872	0	72.2	4	23.3	4	-1E+10	1	-1E+10	1	-1E+10	1	-1E+10	1	-1E+10	1	-1E+10	1
4902549	86	C	12/29/2022	05:57	-133.451	47.592	0	342.00	0	5.0130	0	33.9070	0	26.810	0	338.862	0	72.0	4	23.2	4	-1E+10	1	-1E+10	1	-1E+10	1	-1E+10	1	-1E+10	1	-1E+10	1
4902549	86	C	12/29/2022	05:57	-133.451	47.592	0	343.00	0	4.9880	0	33.9010	0	26.808	0	339.852	0	71.7	4	23.1	4	-1E+10	1	-1E+10	1	-1E+10	1	-1E+10	1	-1E+10	1	-1E+10	1
4902549	86	C	12/29/2022	05:57	-133.451	47.592	0	344.00	0	5.0050	0	33.9050	0	26.810	0	340.842	0	71.5	4	23.1	4	-1E+10	1	-1E+10	1	-1E+10	1	-1E+10	1	-1E+10	1	-1E+10	1
4902549	86	C	12/29/2022	05:57	-133.451	47.592	0	345.00	0	4.9870	0	33.9080	0	26.814	0	341.832	0	71.2	4	23.0	4	-1E+10	1	-1E+10	1	-1E+10	1	-1E+10	1	-1E+10	1	-1E+10	1
4902549	86	C	12/29/2022	05:57	-133.451	47.592	0	346.00	0	4.9630	0	33.9030	0	26.813	0	342.822	0	70.9	4	22.8	4	-1E+10	1	-1E+10	1	-1E+10	1	-1E+10	1	-1E+10	1	-1E+10	1
4902549	86	C	12/29/2022	05:57	-133.451	47.592	0	347.00	0	4.9410	0	33.9040	0	26.816	0	343.812	0	70.5	4	22.7	4	-1E+10	1	-1E+10	1	-1E+10	1	-1E+10	1	-1E+10	1	-1E+10	1
4902549	86	C	12/29/2022	05:57	-133.451	47.592	0	348.00	0	4.9420	0	33.9050	0	26.817	0	344.802	0	70.1	4	22.6	4	-1E+10	1	-1E+10	1	-1E+10	1	-1E+10	1	-1E+10	1	-1E+10	1
4902549	86	C	12/29/2022	05:57	-133.451	47.592	0	349.00	0	4.9460	0	33.9060	0	26.817	0	345.792	0	69.6	4	22.4	4	-1E+10	1	-1E+10	1	-1E+10	1	-1E+10	1	-1E+10	1	-1E+10	1
4902549	86	C	12/29/2022	05:57	-133.451	47.592	0	350.00	0	4.9560	0	33.9080	0	26.818	0	346.782	0	69.1	4	22.3	4	-1E+10	1	-1E+10	1	-1E+10	1	-1E+10	1	-1E+10	1	-1E+10	1
4902549	86	C	12/29/2022	05:57	-133.451	47.592	0	353.00	0	4.9740	0	33.9170	0	26.823	0	349.752	0	68.0	4	21.9	4	-1E+10	1	-1E+10	1	-1E+10	1	-1E+10	1	-1E+10	1	-1E+10	1
4902549	86	C	12/29/2022	05:57	-133.451	47.592	0	358.00	0	4.9650	0	33.9270	0	26.832	0	354.702	0	66.9	4	21.6	4	-1E+10	1	-1E+10	1	-1E+10	1	-1E+10	1	-1E+10	1	-1E+10	1
4902549	86	C	12/29/2022	05:57	-133.451	47.592	0	363.00	0	4.9270	0	33.9300	0	26.839	0	359.652	0	65.8	4	21.2	4	-1E+10	1	-1E+10	1	-1E+10	1	-1E+10	1	-1E+10	1	-1E+10	1
4902549	86	C	12/29/2022	05:57	-133.451	47.592	0	368.10	0	4.9070	0	33.9320	0	26.842	0	364.700	0	64.3	4	20.7	4	-1E+10	1	-1E+10	1	-1E+10	1	-1E+10	1	-1E+10	1	-1E+10	1
4902549	86	C	12/29/2022	05:57	-133.451	47.592	0	373.20	0	4.8840	0	33.9390	0	26.851	0	369.748	0	63.1	4	20.3	4	-1E+10	1	-1E+10	1	-1E+10	1	-1E+10	1	-1E+10	1	-1E+10	1
4902549	86	C	12/29/2022	05:57	-133.451	47.592	0	377.90	0	4.8350	0	33.9420	0	26.858	0	374.401	0	62.4	4	20.0	4	-1E+10	1	-1E+10	1	-1E+10	1	-1E+10	1	-1E+10	1	-1E+10	1
4902549	86	C	12/29/2022	05:57	-133.451	47.592	0	382.50	0	4.8070	0	33.9440	0	26.863	0	378.954	0	61.6	4	19.8	4	-1E+10	1	-1E+10	1	-1E+10	1	-1E+10	1	-1E+10	1	-1E+10	1
4902549	86	C	12/29/2022	05:57	-133.451	47.592	0	388.00	0	4.7730	0	33.9480	0	26.870	0	384.398	0	60.5	4	19.4	4	-1E+10	1	-1E+10	1	-1E+10	1	-1E+10	1	-1E+10	1	-1E+10	1
4902549	86	C	12/29/2022	05:57	-133.451	47.592	0	393.10	0	4.7200	0	33.9510	0	26.878	0	389.446	0	59.7	4	19.2	4	-1E+10	1	-1E+10	1	-1E+10	1	-1E+10	1	-1E+10	1	-1E+10	1
4902549	86	C	12/29/2022	05:57	-133.451	47.592	0	397.90	0	4.6930	0	33.9550	0	26.885	0	394.196	0	58.6	4	18.8	4	-1E+10	1	-1E+10	1	-1E+10	1	-1E+10	1	-1E+10	1	-1E+10	1
4902549	86	C	12/29/2022	05:57	-133.451	47.592	0	402.80	0	4.6940	0	33.9580	0	26.887	0	399.046	0	57.3	4	18.4	4	-1E+10	1	-1E+10	1	-1E+10	1	-1E+10	1	-1E+10	1	-1E+10	1
4902549	86	C	12/29/2022	05:57	-133.451	47.592	0	407.90	0	4.6860	0	33.9620	0	26.891	0	404.094	0	55.9	4	17.9	4	-1E+10	1	-1E+10	1	-1E+10	1	-1E+10	1	-1E+10	1	-1E+10	1
4902549	86	C	12/29/2022	05:57	-133.451	47.592	0	413.10	0	4.6670	0	33.9670	0	26.897	0	409.240	0	54.8	4	17.5	4	-1E+10	1	-1E+10	1	-1E+10	1	-1E+10	1	-1E+10	1	-1E+10	1
4902549	86	C	12/29/2022	05:57	-133.451	47.592	0	417.80	0	4.6480	0	33.9720	0	26.903	0	413.891	0	53.9	4	17.2	4	-1E+10	1	-1E+10	1	-1E+10	1	-1E+10	1	-1E+10	1	-1E+10	1
4902549	86	C	12/29/2022	05:57	-133.451	47.592	0	422.60	0	4.6320	0	33.9740	0	26.907	0	418.642	0	52.9	4	16.9	4	-1E+10	1	-1E+10	1	-1E+10	1	-1E+10	1	-1E+10	1	-1E+10	1
4902549	86	C	12/29/2022	05:57	-133.451	47.592	0	427.90	0	4.5940	0	33.9770	0	26.913	0	423.887	0	51.2	4	16.4	4	-1E+10	1	-1E+10	1	-1E+10	1	-1E+10	1	-1E+10	1	-1E+10	1
4902549	86	C	12/29/2022	05:57	-133.451	47.592	0	432.90	0	4.5780	0	33.9830	0	26.920	0	428.835	0	49.7	4	15.9	4	-1E+10	1	-1E+10	1	-1E+10	1	-1E+10	1	-1E+10	1	-1E+10	1
4902549	86	C	12/29/2022	05:57	-133.451	47.592	0	437.80	0	4.5640	0	33.9870	0	26.924	0	433.683	0	47.9	4	15.3	4	-1E+10	1	-1E+10	1	-1E+10	1	-1E+10	1	-1E+10	1	-1E+10	1
4902549	86	C	12/29/2022	05:57	-133.451	47.592	0	442.90	0	4.5650	0	33.9950	0	26.931	0	438.730	0	46.2	4	14.8	4	-1E+10	1	-1E+10	1	-1E+10	1	-1E+10	1	-1E+10	1	-1E+10	1
4902549	86	C	12/29/2022	05:57	-133.451	47.592	0	447.60	0	4.5610	0	33.9990	0	26.934	0	443.381	0	44.8	4	14.3	4	-1E+10	1	-1E+10	1	-1E+10	1	-1E+10	1	-1E+10	1	-1E+10	1
4902549	86	C	12/29/2022	05:57	-133.451	47.592	0	452.90	0	4.5640	0	34.0050	0	26.939	0	448.625	0	42.9	4	13.7	4	-1E+10	1	-1E+10	1	-1E+10	1	-1E+10	1	-1E+10	1	-1E+10	1
4902549	86	C	12/29/2022	05:57	-133.451	47.592	0	458.10	0	4.5600	0	34.0100	0	26.943	0	453.770	0	40.9	4	13.1	4	-1E+10	1	-1E+10	1	-1E+10	1	-1E+10	1	-1E+10	1	-1E+10	1
4902549	86	C	12/29/2022	05:57	-133.451	47.592	0	462.80	0	4.5670	0	34.0170	0	26.948	0	458.421	0	39.0	4	12.5	4	-1E+10	1	-1E+10	1	-1E+10	1	-1E+10	1	-1E+10	1	-1E+10	1
4902549	86	C	12/29/2022	05:57	-133.451	47.592	0	467.50	0	4.5690	0	34.0220	0	26.952	0	463.071	0	37.1	4	11.9	4	-1E+10	1	-1E+10	1	-1E+10	1	-1E+10	1	-1E+10	1	-1E+10	1
4902549	86	C	12/29/2022	05:57	-133.451	47.592	0	472.80	0	4.5460	0	34.0310	0	26.962	0	468.315	0	35.0	4	11.2	4	-1E+10	1	-1E+10	1	-1E+10	1	-1E+10	1	-1E+10	1	-1E+10	1
4902549	86	C	12/29/2022	05:57	-133.451	47.592	0	477.90	0	4.5330	0	34.0390	0	26.969	0	473.361	0	33.0	4	10.5	4	-1E+10	1	-1E+10	1	-1E+10	1	-1E+10	1	-1E+10	1	-1E+10	1
4902549	86	C	12/29/2022	05:57	-133.451	47.592	0	483.00	0	4.5220	0	34.0480	0	26.978	0	478.406	0	31.6	4	10.1	4	-1E+10	1	-1E+10	1	-1E+10	1	-1E+10	1	-1E+10	1	-1E+10	1
4902549	86	C	12/29/2022	05:57	-133.451	47.592	0	488.10	0	4.5030	0	34.0540	0	26.985	0	483.452	0	31.0	4	9.9	4	-1E+10	1	-1E+10	1	-1E+10	1	-1E+10	1	-1E+10	1	-1E+10	1
4902549	86	C	12/29/2022	05:57	-133.451	47.592	0	492.80	0	4.4680	0	34.0560	0	26.990	0	488.102	0	30.3	4	9.7	4	-1E+10	1	-1E+10	1	-1E+10	1	-1E+10	1	-1E+10	1	-1E+10	1
4902549	86	C	12/29/2022	05:57	-133.451	47.592	0	497.80	0	4.4560	0	34.0600	0	26.995	0	493.048	0	29.2	4	9.3	4	-1E+10	1	-1E+10	1	-1E+10	1	-1E+10	1	-1E+10	1	-1E+10	1
4902549	86	C	12/29/2022	05:57	-133.451	47.592	0	502.90	0	4.4330	0	34.0630	0	26.999	0	498.093	0	27.9	4	8.9	4	-1E+10	1	-1E+10	1	-1E+10	1	-1E+10	1	-1E+10	1	-1E+10	1
4902549	86	C	12/29/2022	05:57	-133.451	47.592	0	507.80	0	4.4270	0	34.0710	0	27.006	0	502.940	0	26.5	4	8.4	4	-1E+10	1	-1E+10	1	-1E+10	1	-1E+10	1	-1E+10	1	-1E+10	1
4902549	86	C	12/29/2022	05:57	-133.451	47.592	0	512.90	0	4.4160	0	34.0780	0	27.013	0	507.985	0	25.2	4	8.0	4	-1E+10	1	-1E+10	1	-1E+10	1	-1E+10	1	-1E+10	1	-1E+10	1
4902549	86	C	12/29/2022	05:57	-133.451	47.592	0	517.80	0	4.4130	0	34.0830	0	27.018	0	512.832	0	24.1	4	7.7	4	-1E+10	1	-1E+10	1	-1E+10	1	-1E+10	1	-1E+10	1	-1E+10	1
4902549	86	C	12/29/2022	05:57	-133.451	47.592	0	522.90	0	4.4010	0	34.0890	0	27.024	0	517.877	0	23.2	4	7.4	4	-1E+10	1	-1E+10	1	-1E+10	1	-1E+10	1	-1E+10	1	-1E+10	1
4902549	86	C	12/29/2022	05:57	-133.451	47.592	0	527.90	0	4.3870	0	34.0940	0	27.029	0	522.823	0	22.3	4	7.1	4	-1E+10	1	-1E+10	1	-1E+10	1	-1E+10	1	-1E+10	1	-1E+10	1
4902549	86	C	12/29/2022	05:57	-133.451	47.592	0	533.00	0	4.3840	0	34.0980	0	27.033	0	527.867	0	21.5	4	6.9	4	-1E+10	1	-1E+10	1	-1E+10	1	-1E+10	1	-1E+10	1	-1E+10	1
4902549	86	C	12/29/2022	05:57	-133.451	47.592	0	537.80	0	4.3780	0	34.1030	0	27.037	0	532.615	0	20.7	4	6.6	4	-1E+10	1	-1E+10	1	-1E+10	1	-1E+10	1	-1E+10	1	-1E+10	1
4902549	86	C	12/29/2022	05:57	-133.451	47.592	0	542.60	0	4.3690	0	34.1080	0	27.042	0	537.362	0	19.9	4	6.3	4	-1E+10	1	-1E+10	1	-1E+10	1	-1E+10	1	-1E+10	1	-1E+10	1
4902549	86	C	12/29/2022	05:57	-133.451	47.592	0	547.50	0	4.3660	0	34.1130	0	27.047	0	542.209	0	19.2	4	6.1	4	-1E+10	1	-1E+10	1	-1E+10	1	-1E+10	1	-1E+10	1	-1E+10	1
4902549	86	C	12/29/2022	05:57	-133.451	47.592	0	552.90	0	4.3530	0	34.1170	0	27.051	0	547.550	0	18.5	4	5.9	4	-1E+10	1	-1E+10	1	-1E+10	1	-1E+10	1	-1E+10	1	-1E+10	1
4902549	86	C	12/29/2022	05:57	-133.451	47.592	0	558.40	0	4.3370	0	34.1220	0	27.057	0	552.989	0	18.1	4	5.7	4	-1E+10	1	-1E+10	1	-1E+10	1	-1E+10	1	-1E+10	1	-1E+10	1
4902549	86	C	12/29/2022	05:57	-133.451	47.592	0	562.90	0	4.3200	0	34.1250	0	27.061	0	557.439	0	17.8	4	5.7	4	-1E+10	1	-1E+10	1	-1E+10	1	-1E+10	1	-1E+10	1	-1E+10	1
4902549	86	C	12/29/2022	05:57	-133.451	47.592	0	567.50	0	4.3030	0	34.1270	0	27.065	0	561.988	0	17.5	4	5.6	4	-1E+10	1	-1E+10	1	-1E+10	1	-1E+10	1	-1E+10	1	-1E+10	1
4902549	86	C	12/29/2022	05:57	-133.451	47.592	0	572.80	0	4.2700	0	34.1320	0	27.072	0	567.230	0	17.6	4	5.6	4	-1E+10	1	-1E+10	1	-1E+10	1	-1E+10	1	-1E+10	1	-1E+10	1
4902549	86	C	12/29/2022	05:57	-133.451	47.592	0	578.00	0	4.2280	0	34.1320	0	27.077	0	572.372	0	17.7	4	5.6	4	-1E+10	1	-1E+10	1	-1E+10	1	-1E+10	1	-1E+10	1	-1E+10	1
4902549	86	C	12/29/2022	05:57	-133.451	47.592	0	582.70	0	4.2060	0	34.1310	0	27.078	0	577.020	0	17.4	4	5.5	4	-1E+10	1	-1E+10	1	-1E+10	1	-1E+10	1	-1E+10	1	-1E+10	1
4902549	86	C	12/29/2022	05:57	-133.451	47.592	0	587.90	0	4.1970	0	34.1350	0	27.082	0	582.162	0	16.7	4	5.3	4	-1E+10	1	-1E+10	1	-1E+10	1	-1E+10	1	-1E+10	1	-1E+10	1
4902549	86	C	12/29/2022	05:57	-133.451	47.592	0	593.20	0	4.1950	0	34.1390	0	27.086	0	587.403	0	16.1	4	5.1	4	-1E+10	1	-1E+10	1	-1E+10	1	-1E+10	1	-1E+10	1	-1E+10	1
4902549	86	C	12/29/2022	05:57	-133.451	47.592	0	598.20	0	4.1870	0	34.1430	0	27.090	0	592.347	0	15.4	4	4.9	4	-1E+10	1	-1E+10	1	-1E+10	1	-1E+10	1	-1E+10	1	-1E+10	1
4902549	86	C	12/29/2022	05:57	-133.451	47.592	0	602.90	0	4.1890	0	34.1490	0	27.094	0	596.994	0	14.8	4	4.7	4	-1E+10	1	-1E+10	1	-1E+10	1	-1E+10	1	-1E+10	1	-1E+10	1
4902549	86	C	12/29/2022	05:57	-133.451	47.592	0	607.60	0	4.1780	0	34.1540	0	27.099	0	601.641	0	14.4	4	4.6	4	-1E+10	1	-1E+10	1	-1E+10	1	-1E+10	1	-1E+10	1	-1E+10	1
4902549	86	C	12/29/2022	05:57	-133.451	47.592	0	612.70	0	4.1690	0	34.1570	0	27.103	0	606.684	0	14.1	4	4.5	4	-1E+10	1	-1E+10	1	-1E+10	1	-1E+10	1	-1E+10	1	-1E+10	1
4902549	86	C	12/29/2022	05:57	-133.451	47.592	0	618.00	0	4.1550	0	34.1610	0	27.108	0	611.924	0	13.8	4	4.4	4	-1E+10	1	-1E+10	1	-1E+10	1	-1E+10	1	-1E+10	1	-1E+10	1
4902549	86	C	12/29/2022	05:57	-133.451	47.592	0	623.10	0	4.1480	0	34.1620	0	27.109	0	616.966	0	13.6	4	4.3	4	-1E+10	1	-1E+10	1	-1E+10	1	-1E+10	1	-1E+10	1	-1E+10	1
4902549	86	C	12/29/2022	05:57	-133.451	47.592	0	628.30	0	4.1280	0	34.1650	0	27.114	0	622.107	0	13.3	4	4.2	4	-1E+10	1	-1E+10	1	-1E+10	1	-1E+10	1	-1E+10	1	-1E+10	1
4902549	86	C	12/29/2022	05:57	-133.451	47.592	0	632.90	0	4.1140	0	34.1690	0	27.118	0	626.655	0	13.0	4	4.1	4	-1E+10	1	-1E+10	1	-1E+10	1	-1E+10	1	-1E+10	1	-1E+10	1
4902549	86	C	12/29/2022	05:57	-133.451	47.592	0	637.60	0	4.1030	0	34.1720	0	27.122	0	631.301	0	12.8	4	4.0	4	-1E+10	1	-1E+10	1	-1E+10	1	-1E+10	1	-1E+10	1	-1E+10	1
4902549	86	C	12/29/2022	05:57	-133.451	47.592	0	642.70	0	4.0980	0	34.1750	0	27.125	0	636.343	0	12.5	4	3.9	4	-1E+10	1	-1E+10	1	-1E+10	1	-1E+10	1	-1E+10	1	-1E+10	1
4902549	86	C	12/29/2022	05:57	-133.451	47.592	0	647.60	0	4.0880	0	34.1780	0	27.128	0	641.187	0	12.1	4	3.8	4	-1E+10	1	-1E+10	1	-1E+10	1	-1E+10	1	-1E+10	1	-1E+10	1
4902549	86	C	12/29/2022	05:57	-133.451	47.592	0	652.90	0	4.0710	0	34.1830	0	27.134	0	646.427	0	11.8	4	3.7	4	-1E+10	1	-1E+10	1	-1E+10	1	-1E+10	1	-1E+10	1	-1E+10	1
4902549	86	C	12/29/2022	05:57	-133.451	47.592	0	658.20	0	4.0520	0	34.1870	0	27.139	0	651.666	0	11.4	4	3.6	4	-1E+10	1	-1E+10	1	-1E+10	1	-1E+10	1	-1E+10	1	-1E+10	1
4902549	86	C	12/29/2022	05:57	-133.451	47.592	0	663.10	0	4.0430	0	34.1910	0	27.143	0	656.509	0	11.1	4	3.5	4	-1E+10	1	-1E+10	1	-1E+10	1	-1E+10	1	-1E+10	1	-1E+10	1
4902549	86	C	12/29/2022	05:57	-133.451	47.592	0	668.10	0	4.0270	0	34.1940	0	27.147	0	661.452	0	10.9	4	3.5	4	-1E+10	1	-1E+10	1	-1E+10	1	-1E+10	1	-1E+10	1	-1E+10	1
4902549	86	C	12/29/2022	05:57	-133.451	47.592	0	673.00	0	4.0190	0	34.1960	0	27.150	0	666.295	0	10.8	4	3.4	4	-1E+10	1	-1E+10	1	-1E+10	1	-1E+10	1	-1E+10	1	-1E+10	1
4902549	86	C	12/29/2022	05:57	-133.451	47.592	0	677.90	0	4.0020	0	34.1990	0	27.154	0	671.138	0	10.5	4	3.3	4	-1E+10	1	-1E+10	1	-1E+10	1	-1E+10	1	-1E+10	1	-1E+10	1
4902549	86	C	12/29/2022	05:57	-133.451	47.592	0	682.90	0	3.9840	0	34.2030	0	27.159	0	676.080	0	9.9	4	3.1	4	-1E+10	1	-1E+10	1	-1E+10	1	-1E+10	1	-1E+10	1	-1E+10	1
4902549	86	C	12/29/2022	05:57	-133.451	47.592	0	688.00	0	3.9820	0	34.2120	0	27.166	0	681.121	0	9.4	4	3.0	4	-1E+10	1	-1E+10	1	-1E+10	1	-1E+10	1	-1E+10	1	-1E+10	1
4902549	86	C	12/29/2022	05:57	-133.451	47.592	0	693.00	0	3.9820	0	34.2160	0	27.170	0	686.063	0	9.0	4	2.9	4	-1E+10	1	-1E+10	1	-1E+10	1	-1E+10	1	-1E+10	1	-1E+10	1
4902549	86	C	12/29/2022	05:57	-133.451	47.592	0	698.20	0	3.9760	0	34.2220	0	27.175	0	691.202	0	8.7	4	2.7	4	-1E+10	1	-1E+10	1	-1E+10	1	-1E+10	1	-1E+10	1	-1E+10	1
4902549	86	C	12/29/2022	05:57	-133.451	47.592	0	702.90	0	3.9680	0	34.2260	0	27.179	0	695.847	0	8.4	4	2.6	4	-1E+10	1	-1E+10	1	-1E+10	1	-1E+10	1	-1E+10	1	-1E+10	1
4902549	86	C	12/29/2022	05:57	-133.451	47.592	0	707.70	0	3.9690	0	34.2320	0	27.184	0	700.591	0	8.1	4	2.6	4	-1E+10	1	-1E+10	1	-1E+10	1	-1E+10	1	-1E+10	1	-1E+10	1
4902549	86	C	12/29/2022	05:57	-133.451	47.592	0	713.00	0	3.9540	0	34.2360	0	27.188	0	705.829	0	8.0	4	2.5	4	-1E+10	1	-1E+10	1	-1E+10	1	-1E+10	1	-1E+10	1	-1E+10	1
4902549	86	C	12/29/2022	05:57	-133.451	47.592	0	718.20	0	3.9310	0	34.2400	0	27.194	0	710.968	0	7.8	4	2.5	4	-1E+10	1	-1E+10	1	-1E+10	1	-1E+10	1	-1E+10	1	-1E+10	1
4902549	86	C	12/29/2022	05:57	-133.451	47.592	0	723.00	0	3.9100	0	34.2440	0	27.199	0	715.711	0	7.7	4	2.4	4	-1E+10	1	-1E+10	1	-1E+10	1	-1E+10	1	-1E+10	1	-1E+10	1
4902549	86	C	12/29/2022	05:57	-133.451	47.592	0	727.70	0	3.8920	0	34.2460	0	27.203	0	720.356	0	7.6	4	2.4	4	-1E+10	1	-1E+10	1	-1E+10	1	-1E+10	1	-1E+10	1	-1E+10	1
4902549	86	C	12/29/2022	05:57	-133.451	47.592	0	732.90	0	3.8820	0	34.2510	0	27.208	0	725.494	0	7.5	4	2.4	4	-1E+10	1	-1E+10	1	-1E+10	1	-1E+10	1	-1E+10	1	-1E+10	1
4902549	86	C	12/29/2022	05:57	-133.451	47.592	0	737.80	0	3.8600	0	34.2530	0	27.212	0	730.336	0	7.5	4	2.4	4	-1E+10	1	-1E+10	1	-1E+10	1	-1E+10	1	-1E+10	1	-1E+10	1
4902549	86	C	12/29/2022	05:57	-133.451	47.592	0	742.80	0	3.8510	0	34.2550	0	27.214	0	735.277	0	7.5	4	2.3	4	-1E+10	1	-1E+10	1	-1E+10	1	-1E+10	1	-1E+10	1	-1E+10	1
4902549	86	C	12/29/2022	05:57	-133.451	47.592	0	747.80	0	3.8160	0	34.2540	0	27.217	0	740.217	0	7.3	4	2.3	4	-1E+10	1	-1E+10	1	-1E+10	1	-1E+10	1	-1E+10	1	-1E+10	1
4902549	86	C	12/29/2022	05:57	-133.451	47.592	0	752.50	0	3.7950	0	34.2600	0	27.224	0	744.861	0	7.0	4	2.2	4	-1E+10	1	-1E+10	1	-1E+10	1	-1E+10	1	-1E+10	1	-1E+10	1
4902549	86	C	12/29/2022	05:57	-133.451	47.592	0	757.40	0	3.8130	0	34.2670	0	27.228	0	749.703	0	6.8	4	2.1	4	-1E+10	1	-1E+10	1	-1E+10	1	-1E+10	1	-1E+10	1	-1E+10	1
4902549	86	C	12/29/2022	05:57	-133.451	47.592	0	762.50	0	3.8040	0	34.2700	0	27.231	0	754.742	0	6.8	4	2.1	4	-1E+10	1	-1E+10	1	-1E+10	1	-1E+10	1	-1E+10	1	-1E+10	1
4902549	86	C	12/29/2022	05:57	-133.451	47.592	0	767.50	0	3.7940	0	34.2720	0	27.234	0	759.682	0	6.8	4	2.1	4	-1E+10	1	-1E+10	1	-1E+10	1	-1E+10	1	-1E+10	1	-1E+10	1
4902549	86	C	12/29/2022	05:57	-133.451	47.592	0	772.90	0	3.7850	0	34.2730	0	27.235	0	765.017	0	6.8	4	2.2	4	-1E+10	1	-1E+10	1	-1E+10	1	-1E+10	1	-1E+10	1	-1E+10	1
4902549	86	C	12/29/2022	05:57	-133.451	47.592	0	777.80	0	3.7570	0	34.2720	0	27.237	0	769.858	0	6.9	4	2.2	4	-1E+10	1	-1E+10	1	-1E+10	1	-1E+10	1	-1E+10	1	-1E+10	1
4902549	86	C	12/29/2022	05:57	-133.451	47.592	0	782.70	0	3.7440	0	34.2730	0	27.239	0	774.699	0	6.9	4	2.2	4	-1E+10	1	-1E+10	1	-1E+10	1	-1E+10	1	-1E+10	1	-1E+10	1
4902549	86	C	12/29/2022	05:57	-133.451	47.592	0	787.60	0	3.7250	0	34.2740	0	27.242	0	779.539	0	6.9	4	2.2	4	-1E+10	1	-1E+10	1	-1E+10	1	-1E+10	1	-1E+10	1	-1E+10	1
4902549	86	C	12/29/2022	05:57	-133.451	47.592	0	792.50	0	3.7240	0	34.2760	0	27.244	0	784.380	0	6.9	4	2.2	4	-1E+10	1	-1E+10	1	-1E+10	1	-1E+10	1	-1E+10	1	-1E+10	1
4902549	86	C	12/29/2022	05:57	-133.451	47.592	0	797.60	0	3.7170	0	34.2760	0	27.245	0	789.418	0	6.9	4	2.2	4	-1E+10	1	-1E+10	1	-1E+10	1	-1E+10	1	-1E+10	1	-1E+10	1
4902549	86	C	12/29/2022	05:57	-133.451	47.592	0	802.70	0	3.6870	0	34.2770	0	27.248	0	794.456	0	6.8	4	2.1	4	-1E+10	1	-1E+10	1	-1E+10	1	-1E+10	1	-1E+10	1	-1E+10	1
4902549	86	C	12/29/2022	05:57	-133.451	47.592	0	807.90	0	3.6660	0	34.2810	0	27.254	0	799.593	0	6.8	4	2.1	4	-1E+10	1	-1E+10	1	-1E+10	1	-1E+10	1	-1E+10	1	-1E+10	1
4902549	86	C	12/29/2022	05:57	-133.451	47.592	0	812.80	0	3.6510	0	34.2820	0	27.256	0	804.433	0	6.7	4	2.1	4	-1E+10	1	-1E+10	1	-1E+10	1	-1E+10	1	-1E+10	1	-1E+10	1
4902549	86	C	12/29/2022	05:57	-133.451	47.592	0	817.70	0	3.6410	0	34.2840	0	27.259	0	809.273	0	6.7	4	2.1	4	-1E+10	1	-1E+10	1	-1E+10	1	-1E+10	1	-1E+10	1	-1E+10	1
4902549	86	C	12/29/2022	05:57	-133.451	47.592	0	823.10	0	3.6300	0	34.2870	0	27.262	0	814.607	0	6.6	4	2.1	4	-1E+10	1	-1E+10	1	-1E+10	1	-1E+10	1	-1E+10	1	-1E+10	1
4902549	86	C	12/29/2022	05:57	-133.451	47.592	0	828.10	0	3.6220	0	34.2890	0	27.264	0	819.545	0	6.6	4	2.1	4	-1E+10	1	-1E+10	1	-1E+10	1	-1E+10	1	-1E+10	1	-1E+10	1
4902549	86	C	12/29/2022	05:57	-133.451	47.592	0	832.80	0	3.6140	0	34.2910	0	27.267	0	824.188	0	6.5	4	2.0	4	-1E+10	1	-1E+10	1	-1E+10	1	-1E+10	1	-1E+10	1	-1E+10	1
4902549	86	C	12/29/2022	05:57	-133.451	47.592	0	838.00	0	3.6050	0	34.2970	0	27.273	0	829.324	0	6.4	4	2.0	4	-1E+10	1	-1E+10	1	-1E+10	1	-1E+10	1	-1E+10	1	-1E+10	1
4902549	86	C	12/29/2022	05:57	-133.451	47.592	0	843.20	0	3.5930	0	34.2980	0	27.275	0	834.459	0	6.4	4	2.0	4	-1E+10	1	-1E+10	1	-1E+10	1	-1E+10	1	-1E+10	1	-1E+10	1
4902549	86	C	12/29/2022	05:57	-133.451	47.592	0	847.90	0	3.5910	0	34.3020	0	27.278	0	839.101	0	6.4	4	2.0	4	-1E+10	1	-1E+10	1	-1E+10	1	-1E+10	1	-1E+10	1	-1E+10	1
4902549	86	C	12/29/2022	05:57	-133.451	47.592	0	852.70	0	3.5760	0	34.3030	0	27.280	0	843.842	0	6.3	4	2.0	4	-1E+10	1	-1E+10	1	-1E+10	1	-1E+10	1	-1E+10	1	-1E+10	1
4902549	86	C	12/29/2022	05:57	-133.451	47.592	0	857.50	0	3.5720	0	34.3070	0	27.284	0	848.582	0	6.2	4	2.0	4	-1E+10	1	-1E+10	1	-1E+10	1	-1E+10	1	-1E+10	1	-1E+10	1
4902549	86	C	12/29/2022	05:57	-133.451	47.592	0	862.90	0	3.5840	0	34.3110	0	27.286	0	853.915	0	6.1	4	1.9	4	-1E+10	1	-1E+10	1	-1E+10	1	-1E+10	1	-1E+10	1	-1E+10	1
4902549	86	C	12/29/2022	05:57	-133.451	47.592	0	868.30	0	3.5760	0	34.3130	0	27.288	0	859.248	0	6.1	4	1.9	4	-1E+10	1	-1E+10	1	-1E+10	1	-1E+10	1	-1E+10	1	-1E+10	1
4902549	86	C	12/29/2022	05:57	-133.451	47.592	0	873.30	0	3.5800	0	34.3170	0	27.291	0	864.185	0	6.1	4	1.9	4	-1E+10	1	-1E+10	1	-1E+10	1	-1E+10	1	-1E+10	1	-1E+10	1
4902549	86	C	12/29/2022	05:57	-133.451	47.592	0	878.40	0	3.5770	0	34.3180	0	27.292	0	869.221	0	6.1	4	1.9	4	-1E+10	1	-1E+10	1	-1E+10	1	-1E+10	1	-1E+10	1	-1E+10	1
4902549	86	C	12/29/2022	05:57	-133.451	47.592	0	882.90	0	3.5690	0	34.3180	0	27.293	0	873.665	0	6.1	4	1.9	4	-1E+10	1	-1E+10	1	-1E+10	1	-1E+10	1	-1E+10	1	-1E+10	1
4902549	86	C	12/29/2022	05:57	-133.451	47.592	0	887.50	0	3.5440	0	34.3170	0	27.295	0	878.207	0	6.1	4	1.9	4	-1E+10	1	-1E+10	1	-1E+10	1	-1E+10	1	-1E+10	1	-1E+10	1
4902549	86	C	12/29/2022	05:57	-133.451	47.592	0	892.90	0	3.5360	0	34.3190	0	27.297	0	883.539	0	6.0	4	1.9	4	-1E+10	1	-1E+10	1	-1E+10	1	-1E+10	1	-1E+10	1	-1E+10	1
4902549	86	C	12/29/2022	05:57	-133.451	47.592	0	898.30	0	3.5480	0	34.3230	0	27.299	0	888.871	0	6.0	4	1.9	4	-1E+10	1	-1E+10	1	-1E+10	1	-1E+10	1	-1E+10	1	-1E+10	1
4902549	86	C	12/29/2022	05:57	-133.451	47.592	0	903.10	0	3.5440	0	34.3260	0	27.302	0	893.610	0	6.0	4	1.9	4	-1E+10	1	-1E+10	1	-1E+10	1	-1E+10	1	-1E+10	1	-1E+10	1
4902549	86	C	12/29/2022	05:57	-133.451	47.592	0	908.00	0	3.5330	0	34.3270	0	27.304	0	898.448	0	5.9	4	1.9	4	-1E+10	1	-1E+10	1	-1E+10	1	-1E+10	1	-1E+10	1	-1E+10	1
4902549	86	C	12/29/2022	05:57	-133.451	47.592	0	913.00	0	3.5180	0	34.3290	0	27.307	0	903.385	0	5.9	4	1.9	4	-1E+10	1	-1E+10	1	-1E+10	1	-1E+10	1	-1E+10	1	-1E+10	1
4902549	86	C	12/29/2022	05:57	-133.451	47.592	0	917.90	0	3.5010	0	34.3300	0	27.310	0	908.223	0	6.0	4	1.9	4	-1E+10	1	-1E+10	1	-1E+10	1	-1E+10	1	-1E+10	1	-1E+10	1
4902549	86	C	12/29/2022	05:57	-133.451	47.592	0	922.80	0	3.4910	0	34.3320	0	27.312	0	913.060	0	6.0	4	1.9	4	-1E+10	1	-1E+10	1	-1E+10	1	-1E+10	1	-1E+10	1	-1E+10	1
4902549	86	C	12/29/2022	05:57	-133.451	47.592	0	927.70	0	3.4830	0	34.3340	0	27.314	0	917.898	0	6.1	4	1.9	4	-1E+10	1	-1E+10	1	-1E+10	1	-1E+10	1	-1E+10	1	-1E+10	1
4902549	86	C	12/29/2022	05:57	-133.451	47.592	0	933.00	0	3.4750	0	34.3370	0	27.318	0	923.130	0	6.0	4	1.9	4	-1E+10	1	-1E+10	1	-1E+10	1	-1E+10	1	-1E+10	1	-1E+10	1
4902549	86	C	12/29/2022	05:57	-133.451	47.592	0	938.30	0	3.4660	0	34.3400	0	27.321	0	928.363	0	6.0	4	1.9	4	-1E+10	1	-1E+10	1	-1E+10	1	-1E+10	1	-1E+10	1	-1E+10	1
4902549	86	C	12/29/2022	05:57	-133.451	47.592	0	943.00	0	3.4720	0	34.3440	0	27.324	0	933.002	0	6.0	4	1.9	4	-1E+10	1	-1E+10	1	-1E+10	1	-1E+10	1	-1E+10	1	-1E+10	1
4902549	86	C	12/29/2022	05:57	-133.451	47.592	0	947.80	0	3.4620	0	34.3460	0	27.326	0	937.741	0	6.0	4	1.9	4	-1E+10	1	-1E+10	1	-1E+10	1	-1E+10	1	-1E+10	1	-1E+10	1
4902549	86	C	12/29/2022	05:57	-133.451	47.592	0	953.00	0	3.4490	0	34.3460	0	27.327	0	942.874	0	6.1	4	1.9	4	-1E+10	1	-1E+10	1	-1E+10	1	-1E+10	1	-1E+10	1	-1E+10	1
4902549	86	C	12/29/2022	05:57	-133.451	47.592	0	958.20	0	3.4340	0	34.3470	0	27.330	0	948.007	0	6.1	4	1.9	4	-1E+10	1	-1E+10	1	-1E+10	1	-1E+10	1	-1E+10	1	-1E+10	1
4902549	86	C	12/29/2022	05:57	-133.451	47.592	0	963.00	0	3.4250	0	34.3500	0	27.333	0	952.745	0	6.1	4	1.9	4	-1E+10	1	-1E+10	1	-1E+10	1	-1E+10	1	-1E+10	1	-1E+10	1
4902549	86	C	12/29/2022	05:57	-133.451	47.592	0	968.10	0	3.4170	0	34.3540	0	27.337	0	957.779	0	6.2	4	1.9	4	-1E+10	1	-1E+10	1	-1E+10	1	-1E+10	1	-1E+10	1	-1E+10	1
4902549	86	C	12/29/2022	05:57	-133.451	47.592	0	973.10	0	3.3890	0	34.3560	0	27.341	0	962.714	0	6.3	4	1.9	4	-1E+10	1	-1E+10	1	-1E+10	1	-1E+10	1	-1E+10	1	-1E+10	1
4902549	86	C	12/29/2022	05:57	-133.451	47.592	0	978.00	0	3.3770	0	34.3570	0	27.343	0	967.550	0	6.3	4	1.9	4	-1E+10	1	-1E+10	1	-1E+10	1	-1E+10	1	-1E+10	1	-1E+10	1
4902549	86	C	12/29/2022	05:57	-133.451	47.592	0	983.00	0	3.3630	0	34.3610	0	27.348	0	972.485	0	6.2	4	1.9	4	-1E+10	1	-1E+10	1	-1E+10	1	-1E+10	1	-1E+10	1	-1E+10	1
4902549	86	C	12/29/2022	05:57	-133.451	47.592	0	988.00	0	3.3630	0	34.3650	0	27.351	0	977.420	0	6.3	4	2.0	4	-1E+10	1	-1E+10	1	-1E+10	1	-1E+10	1	-1E+10	1	-1E+10	1
4902549	86	C	12/29/2022	05:57	-133.451	47.592	0	993.10	0	3.3610	0	34.3680	0	27.354	0	982.454	0	6.3	4	1.9	4	-1E+10	1	-1E+10	1	-1E+10	1	-1E+10	1	-1E+10	1	-1E+10	1
4902549	86	C	12/29/2022	05:57	-133.451	47.592	0	997.70	0	3.3600	0	34.3700	0	27.355	0	986.994	0	6.3	4	2.0	4	-1E+10	1	-1E+10	1	-1E+10	1	-1E+10	1	-1E+10	1	-1E+10	1
4902549	86	C	12/29/2022	05:57	-133.451	47.592	0	1005.20	0	3.3460	0	34.3730	0	27.359	0	994.395	0	6.3	4	2.0	4	-1E+10	1	-1E+10	1	-1E+10	1	-1E+10	1	-1E+10	1	-1E+10	1
4902549	86	C	12/29/2022	05:57	-133.451	47.592	0	1015.20	0	3.3250	0	34.3760	0	27.364	0	1004.264	0	6.4	4	2.0	4	-1E+10	1	-1E+10	1	-1E+10	1	-1E+10	1	-1E+10	1	-1E+10	1
4902549	86	C	12/29/2022	05:57	-133.451	47.592	0	1025.20	0	3.3020	0	34.3800	0	27.369	0	1014.132	0	6.6	4	2.0	4	-1E+10	1	-1E+10	1	-1E+10	1	-1E+10	1	-1E+10	1	-1E+10	1
4902549	86	C	12/29/2022	05:57	-133.451	47.592	0	1035.50	0	3.2710	0	34.3850	0	27.376	0	1024.296	0	6.8	4	2.1	4	-1E+10	1	-1E+10	1	-1E+10	1	-1E+10	1	-1E+10	1	-1E+10	1
4902549	86	C	12/29/2022	05:57	-133.451	47.592	0	1045.70	0	3.2370	0	34.3910	0	27.384	0	1034.360	0	7.0	4	2.2	4	-1E+10	1	-1E+10	1	-1E+10	1	-1E+10	1	-1E+10	1	-1E+10	1
4902549	86	C	12/29/2022	05:57	-133.451	47.592	0	1055.50	0	3.2110	0	34.3950	0	27.390	0	1044.029	0	7.1	4	2.2	4	-1E+10	1	-1E+10	1	-1E+10	1	-1E+10	1	-1E+10	1	-1E+10	1
4902549	86	C	12/29/2022	05:57	-133.451	47.592	0	1065.30	0	3.1850	0	34.3980	0	27.394	0	1053.698	0	7.3	4	2.3	4	-1E+10	1	-1E+10	1	-1E+10	1	-1E+10	1	-1E+10	1	-1E+10	1
4902549	86	C	12/29/2022	05:57	-133.451	47.592	0	1075.40	0	3.1610	0	34.4020	0	27.400	0	1063.663	0	7.4	4	2.3	4	-1E+10	1	-1E+10	1	-1E+10	1	-1E+10	1	-1E+10	1	-1E+10	1
4902549	86	C	12/29/2022	05:57	-133.451	47.592	0	1085.40	0	3.1480	0	34.4030	0	27.402	0	1073.528	0	7.5	4	2.3	4	-1E+10	1	-1E+10	1	-1E+10	1	-1E+10	1	-1E+10	1	-1E+10	1
4902549	86	C	12/29/2022	05:57	-133.451	47.592	0	1095.30	0	3.1240	0	34.4070	0	27.407	0	1083.294	0	7.7	4	2.4	4	-1E+10	1	-1E+10	1	-1E+10	1	-1E+10	1	-1E+10	1	-1E+10	1
4902549	86	C	12/29/2022	05:57	-133.451	47.592	0	1105.50	0	3.0990	0	34.4100	0	27.412	0	1093.356	0	7.9	4	2.4	4	-1E+10	1	-1E+10	1	-1E+10	1	-1E+10	1	-1E+10	1	-1E+10	1
4902549	86	C	12/29/2022	05:57	-133.451	47.592	0	1115.50	0	3.0770	0	34.4140	0	27.417	0	1103.220	0	8.1	4	2.5	4	-1E+10	1	-1E+10	1	-1E+10	1	-1E+10	1	-1E+10	1	-1E+10	1
4902549	86	C	12/29/2022	05:57	-133.451	47.592	0	1125.20	0	3.0630	0	34.4150	0	27.420	0	1112.787	0	8.3	4	2.6	4	-1E+10	1	-1E+10	1	-1E+10	1	-1E+10	1	-1E+10	1	-1E+10	1
4902549	86	C	12/29/2022	05:57	-133.451	47.592	0	1135.10	0	3.0420	0	34.4200	0	27.425	0	1122.552	0	8.5	4	2.6	4	-1E+10	1	-1E+10	1	-1E+10	1	-1E+10	1	-1E+10	1	-1E+10	1
4902549	86	C	12/29/2022	05:57	-133.451	47.592	0	1145.40	0	3.0450	0	34.4260	0	27.430	0	1132.710	0	8.8	4	2.7	4	-1E+10	1	-1E+10	1	-1E+10	1	-1E+10	1	-1E+10	1	-1E+10	1
4902549	86	C	12/29/2022	05:57	-133.451	47.592	0	1155.70	0	3.0280	0	34.4310	0	27.436	0	1142.868	0	9.1	4	2.8	4	-1E+10	1	-1E+10	1	-1E+10	1	-1E+10	1	-1E+10	1	-1E+10	1
4902549	86	C	12/29/2022	05:57	-133.451	47.592	0	1165.70	0	3.0030	0	34.4330	0	27.440	0	1152.729	0	9.3	4	2.9	4	-1E+10	1	-1E+10	1	-1E+10	1	-1E+10	1	-1E+10	1	-1E+10	1
4902549	86	C	12/29/2022	05:57	-133.451	47.592	0	1175.20	0	2.9960	0	34.4350	0	27.442	0	1162.097	0	9.5	4	2.9	4	-1E+10	1	-1E+10	1	-1E+10	1	-1E+10	1	-1E+10	1	-1E+10	1
4902549	86	C	12/29/2022	05:57	-133.451	47.592	0	1185.20	0	2.9760	0	34.4380	0	27.446	0	1171.958	0	9.6	4	3.0	4	-1E+10	1	-1E+10	1	-1E+10	1	-1E+10	1	-1E+10	1	-1E+10	1
4902549	86	C	12/29/2022	05:57	-133.451	47.592	0	1195.60	0	2.9130	0	34.4360	0	27.450	0	1182.213	0	9.3	4	2.9	4	-1E+10	1	-1E+10	1	-1E+10	1	-1E+10	1	-1E+10	1	-1E+10	1
4902549	86	C	12/29/2022	05:57	-133.451	47.592	0	1205.30	0	2.8320	0	34.4290	0	27.452	0	1191.777	0	9.2	4	2.8	4	-1E+10	1	-1E+10	1	-1E+10	1	-1E+10	1	-1E+10	1	-1E+10	1
4902549	86	C	12/29/2022	05:57	-133.451	47.592	0	1215.00	0	2.7890	0	34.4280	0	27.455	0	1201.340	0	9.3	4	2.9	4	-1E+10	1	-1E+10	1	-1E+10	1	-1E+10	1	-1E+10	1	-1E+10	1
4902549	86	C	12/29/2022	05:57	-133.451	47.592	0	1225.10	0	2.7770	0	34.4300	0	27.457	0	1211.297	0	9.5	4	2.9	4	-1E+10	1	-1E+10	1	-1E+10	1	-1E+10	1	-1E+10	1	-1E+10	1
4902549	86	C	12/29/2022	05:57	-133.451	47.592	0	1235.40	0	2.7610	0	34.4320	0	27.460	0	1221.452	0	9.8	4	3.0	4	-1E+10	1	-1E+10	1	-1E+10	1	-1E+10	1	-1E+10	1	-1E+10	1
4902549	86	C	12/29/2022	05:57	-133.451	47.592	0	1245.20	0	2.7390	0	34.4350	0	27.465	0	1231.112	0	10.1	4	3.1	4	-1E+10	1	-1E+10	1	-1E+10	1	-1E+10	1	-1E+10	1	-1E+10	1
4902549	86	C	12/29/2022	05:57	-133.451	47.592	0	1255.10	0	2.7200	0	34.4390	0	27.470	0	1240.871	0	10.4	4	3.2	4	-1E+10	1	-1E+10	1	-1E+10	1	-1E+10	1	-1E+10	1	-1E+10	1
4902549	86	C	12/29/2022	05:57	-133.451	47.592	0	1265.70	0	2.7020	0	34.4420	0	27.474	0	1251.319	0	10.6	4	3.2	4	-1E+10	1	-1E+10	1	-1E+10	1	-1E+10	1	-1E+10	1	-1E+10	1
4902549	86	C	12/29/2022	05:57	-133.451	47.592	0	1276.00	0	2.6830	0	34.4450	0	27.478	0	1261.472	0	10.9	4	3.3	4	-1E+10	1	-1E+10	1	-1E+10	1	-1E+10	1	-1E+10	1	-1E+10	1
4902549	86	C	12/29/2022	05:57	-133.451	47.592	0	1285.70	0	2.6680	0	34.4480	0	27.482	0	1271.032	0	11.1	4	3.4	4	-1E+10	1	-1E+10	1	-1E+10	1	-1E+10	1	-1E+10	1	-1E+10	1
4902549	86	C	12/29/2022	05:57	-133.451	47.592	0	1295.50	0	2.6550	0	34.4500	0	27.484	0	1280.690	0	11.3	4	3.5	4	-1E+10	1	-1E+10	1	-1E+10	1	-1E+10	1	-1E+10	1	-1E+10	1
4902549	86	C	12/29/2022	05:57	-133.451	47.592	0	1305.10	0	2.6380	0	34.4520	0	27.487	0	1290.151	0	11.7	4	3.6	4	-1E+10	1	-1E+10	1	-1E+10	1	-1E+10	1	-1E+10	1	-1E+10	1
4902549	86	C	12/29/2022	05:57	-133.451	47.592	0	1315.00	0	2.6180	0	34.4560	0	27.492	0	1299.907	0	12.0	4	3.7	4	-1E+10	1	-1E+10	1	-1E+10	1	-1E+10	1	-1E+10	1	-1E+10	1
4902549	86	C	12/29/2022	05:57	-133.451	47.592	0	1325.10	0	2.6020	0	34.4590	0	27.496	0	1309.860	0	12.4	4	3.8	4	-1E+10	1	-1E+10	1	-1E+10	1	-1E+10	1	-1E+10	1	-1E+10	1
4902549	86	C	12/29/2022	05:57	-133.451	47.592	0	1335.40	0	2.5860	0	34.4620	0	27.500	0	1320.009	0	12.7	4	3.9	4	-1E+10	1	-1E+10	1	-1E+10	1	-1E+10	1	-1E+10	1	-1E+10	1
4902549	86	C	12/29/2022	05:57	-133.451	47.592	0	1345.50	0	2.5760	0	34.4630	0	27.502	0	1329.961	0	13.1	4	4.0	4	-1E+10	1	-1E+10	1	-1E+10	1	-1E+10	1	-1E+10	1	-1E+10	1
4902549	86	C	12/29/2022	05:57	-133.451	47.592	0	1355.20	0	2.5630	0	34.4660	0	27.505	0	1339.518	0	13.5	4	4.1	4	-1E+10	1	-1E+10	1	-1E+10	1	-1E+10	1	-1E+10	1	-1E+10	1
4902549	86	C	12/29/2022	05:57	-133.451	47.592	0	1365.40	0	2.5480	0	34.4690	0	27.509	0	1349.568	0	14.0	4	4.3	4	-1E+10	1	-1E+10	1	-1E+10	1	-1E+10	1	-1E+10	1	-1E+10	1
4902549	86	C	12/29/2022	05:57	-133.451	47.592	0	1375.40	0	2.5320	0	34.4720	0	27.513	0	1359.419	0	14.6	4	4.4	4	-1E+10	1	-1E+10	1	-1E+10	1	-1E+10	1	-1E+10	1	-1E+10	1
4902549	86	C	12/29/2022	05:57	-133.451	47.592	0	1385.10	0	2.5080	0	34.4760	0	27.518	0	1368.975	0	15.1	4	4.6	4	-1E+10	1	-1E+10	1	-1E+10	1	-1E+10	1	-1E+10	1	-1E+10	1
4902549	86	C	12/29/2022	05:57	-133.451	47.592	0	1395.40	0	2.4910	0	34.4790	0	27.522	0	1379.122	0	15.7	4	4.8	4	-1E+10	1	-1E+10	1	-1E+10	1	-1E+10	1	-1E+10	1	-1E+10	1
4902549	86	C	12/29/2022	05:57	-133.451	47.592	0	1405.40	0	2.4800	0	34.4810	0	27.525	0	1388.972	0	16.2	4	4.9	4	-1E+10	1	-1E+10	1	-1E+10	1	-1E+10	1	-1E+10	1	-1E+10	1
4902549	86	C	12/29/2022	05:57	-133.451	47.592	0	1415.50	0	2.4690	0	34.4840	0	27.528	0	1398.921	0	16.8	4	5.1	4	-1E+10	1	-1E+10	1	-1E+10	1	-1E+10	1	-1E+10	1	-1E+10	1
4902549	86	C	12/29/2022	05:57	-133.451	47.592	0	1425.70	0	2.4430	0	34.4880	0	27.533	0	1408.967	0	17.4	4	5.3	4	-1E+10	1	-1E+10	1	-1E+10	1	-1E+10	1	-1E+10	1	-1E+10	1
4902549	86	C	12/29/2022	05:57	-133.451	47.592	0	1435.70	0	2.4290	0	34.4900	0	27.536	0	1418.816	0	17.9	4	5.4	4	-1E+10	1	-1E+10	1	-1E+10	1	-1E+10	1	-1E+10	1	-1E+10	1
4902549	86	C	12/29/2022	05:57	-133.451	47.592	0	1445.50	0	2.4150	0	34.4920	0	27.539	0	1428.468	0	18.6	4	5.7	4	-1E+10	1	-1E+10	1	-1E+10	1	-1E+10	1	-1E+10	1	-1E+10	1
4902549	86	C	12/29/2022	05:57	-133.451	47.592	0	1455.50	0	2.4020	0	34.4950	0	27.543	0	1438.316	0	19.1	4	5.8	4	-1E+10	1	-1E+10	1	-1E+10	1	-1E+10	1	-1E+10	1	-1E+10	1
4902549	86	C	12/29/2022	05:57	-133.451	47.592	0	1465.60	0	2.3950	0	34.4970	0	27.545	0	1448.262	0	19.4	4	5.9	4	-1E+10	1	-1E+10	1	-1E+10	1	-1E+10	1	-1E+10	1	-1E+10	1
4902549	86	C	12/29/2022	05:57	-133.451	47.592	0	1475.30	0	2.3910	0	34.4980	0	27.546	0	1457.814	0	19.9	4	6.1	4	-1E+10	1	-1E+10	1	-1E+10	1	-1E+10	1	-1E+10	1	-1E+10	1
4902549	86	C	12/29/2022	05:57	-133.451	47.592	0	1485.40	0	2.3770	0	34.5010	0	27.550	0	1467.759	0	20.4	4	6.2	4	-1E+10	1	-1E+10	1	-1E+10	1	-1E+10	1	-1E+10	1	-1E+10	1
4902549	86	C	12/29/2022	05:57	-133.451	47.592	0	1495.80	0	2.3630	0	34.5030	0	27.552	0	1477.999	0	20.7	4	6.3	4	-1E+10	1	-1E+10	1	-1E+10	1	-1E+10	1	-1E+10	1	-1E+10	1
4902549	86	C	12/29/2022	05:57	-133.451	47.592	0	1505.40	0	2.3520	0	34.5030	0	27.553	0	1487.451	0	21.1	4	6.4	4	-1E+10	1	-1E+10	1	-1E+10	1	-1E+10	1	-1E+10	1	-1E+10	1
4902549	86	C	12/29/2022	05:57	-133.451	47.592	0	1515.10	0	2.3410	0	34.5050	0	27.556	0	1497.001	0	21.6	4	6.6	4	-1E+10	1	-1E+10	1	-1E+10	1	-1E+10	1	-1E+10	1	-1E+10	1
4902549	86	C	12/29/2022	05:57	-133.451	47.592	0	1525.30	0	2.3300	0	34.5070	0	27.558	0	1507.043	0	22.3	4	6.8	4	-1E+10	1	-1E+10	1	-1E+10	1	-1E+10	1	-1E+10	1	-1E+10	1
4902549	86	C	12/29/2022	05:57	-133.451	47.592	0	1535.40	0	2.3150	0	34.5100	0	27.562	0	1516.986	0	22.9	4	7.0	4	-1E+10	1	-1E+10	1	-1E+10	1	-1E+10	1	-1E+10	1	-1E+10	1
4902549	86	C	12/29/2022	05:57	-133.451	47.592	0	1545.40	0	2.3020	0	34.5120	0	27.565	0	1526.830	0	23.5	4	7.1	4	-1E+10	1	-1E+10	1	-1E+10	1	-1E+10	1	-1E+10	1	-1E+10	1
4902549	86	C	12/29/2022	05:57	-133.451	47.592	0	1555.40	0	2.2920	0	34.5140	0	27.567	0	1536.673	0	24.1	4	7.3	4	-1E+10	1	-1E+10	1	-1E+10	1	-1E+10	1	-1E+10	1	-1E+10	1
4902549	86	C	12/29/2022	05:57	-133.451	47.592	0	1565.50	0	2.2780	0	34.5170	0	27.571	0	1546.615	0	24.7	4	7.5	4	-1E+10	1	-1E+10	1	-1E+10	1	-1E+10	1	-1E+10	1	-1E+10	1
4902549	86	C	12/29/2022	05:57	-133.451	47.592	0	1575.40	0	2.2710	0	34.5180	0	27.572	0	1556.359	0	25.2	4	7.6	4	-1E+10	1	-1E+10	1	-1E+10	1	-1E+10	1	-1E+10	1	-1E+10	1
4902549	86	C	12/29/2022	05:57	-133.451	47.592	0	1585.40	0	2.2600	0	34.5200	0	27.575	0	1566.201	0	26.0	4	7.9	4	-1E+10	1	-1E+10	1	-1E+10	1	-1E+10	1	-1E+10	1	-1E+10	1
4902549	86	C	12/29/2022	05:57	-133.451	47.592	0	1595.30	0	2.2450	0	34.5230	0	27.578	0	1575.945	0	26.6	4	8.1	4	-1E+10	1	-1E+10	1	-1E+10	1	-1E+10	1	-1E+10	1	-1E+10	1
4902549	86	C	12/29/2022	05:57	-133.451	47.592	0	1605.30	0	2.2370	0	34.5240	0	27.580	0	1585.786	0	27.2	4	8.2	4	-1E+10	1	-1E+10	1	-1E+10	1	-1E+10	1	-1E+10	1	-1E+10	1
4902549	86	C	12/29/2022	05:57	-133.451	47.592	0	1615.50	0	2.2250	0	34.5260	0	27.583	0	1595.823	0	27.8	4	8.4	4	-1E+10	1	-1E+10	1	-1E+10	1	-1E+10	1	-1E+10	1	-1E+10	1
4902549	86	C	12/29/2022	05:57	-133.451	47.592	0	1625.90	0	2.2170	0	34.5280	0	27.585	0	1606.057	0	28.4	4	8.6	4	-1E+10	1	-1E+10	1	-1E+10	1	-1E+10	1	-1E+10	1	-1E+10	1
4902549	86	C	12/29/2022	05:57	-133.451	47.592	0	1635.40	0	2.2080	0	34.5300	0	27.587	0	1615.405	0	29.1	4	8.8	4	-1E+10	1	-1E+10	1	-1E+10	1	-1E+10	1	-1E+10	1	-1E+10	1
4902549	86	C	12/29/2022	05:57	-133.451	47.592	0	1645.00	0	2.1940	0	34.5320	0	27.590	0	1624.851	0	29.8	4	9.0	4	-1E+10	1	-1E+10	1	-1E+10	1	-1E+10	1	-1E+10	1	-1E+10	1
4902549	86	C	12/29/2022	05:57	-133.451	47.592	0	1655.10	0	2.1820	0	34.5340	0	27.593	0	1634.788	0	30.5	4	9.2	4	-1E+10	1	-1E+10	1	-1E+10	1	-1E+10	1	-1E+10	1	-1E+10	1
4902549	86	C	12/29/2022	05:57	-133.451	47.592	0	1665.20	0	2.1750	0	34.5360	0	27.595	0	1644.725	0	30.9	4	9.4	4	-1E+10	1	-1E+10	1	-1E+10	1	-1E+10	1	-1E+10	1	-1E+10	1
4902549	86	C	12/29/2022	05:57	-133.451	47.592	0	1675.10	0	2.1680	0	34.5370	0	27.596	0	1654.465	0	31.5	4	9.5	4	-1E+10	1	-1E+10	1	-1E+10	1	-1E+10	1	-1E+10	1	-1E+10	1
4902549	86	C	12/29/2022	05:57	-133.451	47.592	0	1685.20	0	2.1600	0	34.5390	0	27.599	0	1664.401	0	32.0	4	9.7	4	-1E+10	1	-1E+10	1	-1E+10	1	-1E+10	1	-1E+10	1	-1E+10	1
4902549	86	C	12/29/2022	05:57	-133.451	47.592	0	1695.20	0	2.1520	0	34.5400	0	27.600	0	1674.238	0	32.5	4	9.8	4	-1E+10	1	-1E+10	1	-1E+10	1	-1E+10	1	-1E+10	1	-1E+10	1
4902549	86	C	12/29/2022	05:57	-133.451	47.592	0	1705.40	0	2.1450	0	34.5410	0	27.602	0	1684.271	0	33.0	4	10.0	4	-1E+10	1	-1E+10	1	-1E+10	1	-1E+10	1	-1E+10	1	-1E+10	1
4902549	86	C	12/29/2022	05:57	-133.451	47.592	0	1715.70	0	2.1410	0	34.5420	0	27.603	0	1694.402	0	33.4	4	10.1	4	-1E+10	1	-1E+10	1	-1E+10	1	-1E+10	1	-1E+10	1	-1E+10	1
4902549	86	C	12/29/2022	05:57	-133.451	47.592	0	1725.70	0	2.1350	0	34.5430	0	27.604	0	1704.238	0	33.8	4	10.2	4	-1E+10	1	-1E+10	1	-1E+10	1	-1E+10	1	-1E+10	1	-1E+10	1
4902549	86	C	12/29/2022	05:57	-133.451	47.592	0	1735.80	0	2.1310	0	34.5440	0	27.605	0	1714.172	0	34.3	4	10.4	4	-1E+10	1	-1E+10	1	-1E+10	1	-1E+10	1	-1E+10	1	-1E+10	1
4902549	86	C	12/29/2022	05:57	-133.451	47.592	0	1745.50	0	2.1210	0	34.5460	0	27.608	0	1723.712	0	35.0	4	10.6	4	-1E+10	1	-1E+10	1	-1E+10	1	-1E+10	1	-1E+10	1	-1E+10	1
4902549	86	C	12/29/2022	05:57	-133.451	47.592	0	1755.20	0	2.1140	0	34.5480	0	27.610	0	1733.251	0	35.5	4	10.7	4	-1E+10	1	-1E+10	1	-1E+10	1	-1E+10	1	-1E+10	1	-1E+10	1
4902549	86	C	12/29/2022	05:57	-133.451	47.592	0	1765.60	0	2.1080	0	34.5490	0	27.611	0	1743.478	0	36.2	4	10.9	4	-1E+10	1	-1E+10	1	-1E+10	1	-1E+10	1	-1E+10	1	-1E+10	1
4902549	86	C	12/29/2022	05:57	-133.451	47.592	0	1775.40	0	2.0970	0	34.5510	0	27.614	0	1753.115	0	37.0	4	11.2	4	-1E+10	1	-1E+10	1	-1E+10	1	-1E+10	1	-1E+10	1	-1E+10	1
4902549	86	C	12/29/2022	05:57	-133.451	47.592	0	1785.30	0	2.0840	0	34.5530	0	27.616	0	1762.850	0	37.8	4	11.4	4	-1E+10	1	-1E+10	1	-1E+10	1	-1E+10	1	-1E+10	1	-1E+10	1
4902549	86	C	12/29/2022	05:57	-133.451	47.592	0	1795.60	0	2.0770	0	34.5550	0	27.619	0	1772.977	0	38.4	4	11.6	4	-1E+10	1	-1E+10	1	-1E+10	1	-1E+10	1	-1E+10	1	-1E+10	1
4902549	86	C	12/29/2022	05:57	-133.451	47.592	0	1805.50	0	2.0700	0	34.5560	0	27.620	0	1782.711	0	39.2	4	11.8	4	-1E+10	1	-1E+10	1	-1E+10	1	-1E+10	1	-1E+10	1	-1E+10	1
4902549	86	C	12/29/2022	05:57	-133.451	47.592	0	1815.50	0	2.0580	0	34.5580	0	27.623	0	1792.543	0	39.9	4	12.1	4	-1E+10	1	-1E+10	1	-1E+10	1	-1E+10	1	-1E+10	1	-1E+10	1
4902549	86	C	12/29/2022	05:57	-133.451	47.592	0	1825.50	0	2.0490	0	34.5600	0	27.625	0	1802.374	0	40.7	4	12.3	4	-1E+10	1	-1E+10	1	-1E+10	1	-1E+10	1	-1E+10	1	-1E+10	1
4902549	86	C	12/29/2022	05:57	-133.451	47.592	0	1835.60	0	2.0400	0	34.5620	0	27.627	0	1812.303	0	41.5	4	12.5	4	-1E+10	1	-1E+10	1	-1E+10	1	-1E+10	1	-1E+10	1	-1E+10	1
4902549	86	C	12/29/2022	05:57	-133.451	47.592	0	1845.60	0	2.0310	0	34.5640	0	27.630	0	1822.133	0	42.2	4	12.7	4	-1E+10	1	-1E+10	1	-1E+10	1	-1E+10	1	-1E+10	1	-1E+10	1
4902549	86	C	12/29/2022	05:57	-133.451	47.592	0	1855.70	0	2.0220	0	34.5650	0	27.631	0	1832.061	0	42.7	4	12.9	4	-1E+10	1	-1E+10	1	-1E+10	1	-1E+10	1	-1E+10	1	-1E+10	1
4902549	86	C	12/29/2022	05:57	-133.451	47.592	0	1865.70	0	2.0160	0	34.5670	0	27.633	0	1841.890	0	43.4	4	13.1	4	-1E+10	1	-1E+10	1	-1E+10	1	-1E+10	1	-1E+10	1	-1E+10	1
4902549	86	C	12/29/2022	05:57	-133.451	47.592	0	1875.40	0	2.0090	0	34.5680	0	27.635	0	1851.424	0	44.0	4	13.3	4	-1E+10	1	-1E+10	1	-1E+10	1	-1E+10	1	-1E+10	1	-1E+10	1
4902549	86	C	12/29/2022	05:57	-133.451	47.592	0	1885.60	0	2.0010	0	34.5700	0	27.637	0	1861.449	0	44.6	4	13.4	4	-1E+10	1	-1E+10	1	-1E+10	1	-1E+10	1	-1E+10	1	-1E+10	1
4902549	86	C	12/29/2022	05:57	-133.451	47.592	0	1895.70	0	1.9950	0	34.5710	0	27.638	0	1871.376	0	45.1	4	13.6	4	-1E+10	1	-1E+10	1	-1E+10	1	-1E+10	1	-1E+10	1	-1E+10	1
4902549	86	C	12/29/2022	05:57	-133.451	47.592	0	1905.60	0	1.9920	0	34.5720	0	27.639	0	1881.105	0	45.4	4	13.7	4	-1E+10	1	-1E+10	1	-1E+10	1	-1E+10	1	-1E+10	1	-1E+10	1
4902549	86	C	12/29/2022	05:57	-133.451	47.592	0	1915.20	0	1.9870	0	34.5720	0	27.640	0	1890.539	0	45.9	4	13.8	4	-1E+10	1	-1E+10	1	-1E+10	1	-1E+10	1	-1E+10	1	-1E+10	1
4902549	86	C	12/29/2022	05:57	-133.451	47.592	0	1925.40	0	1.9810	0	34.5730	0	27.641	0	1900.562	0	46.5	4	14.0	4	-1E+10	1	-1E+10	1	-1E+10	1	-1E+10	1	-1E+10	1	-1E+10	1
4902549	86	C	12/29/2022	05:57	-133.451	47.592	0	1935.50	0	1.9730	0	34.5750	0	27.643	0	1910.486	0	47.1	4	14.2	4	-1E+10	1	-1E+10	1	-1E+10	1	-1E+10	1	-1E+10	1	-1E+10	1
4902549	86	C	12/29/2022	05:57	-133.451	47.592	0	1945.20	0	1.9680	0	34.5760	0	27.645	0	1920.017	0	47.6	4	14.3	4	-1E+10	1	-1E+10	1	-1E+10	1	-1E+10	1	-1E+10	1	-1E+10	1
4902549	86	C	12/29/2022	05:57	-133.451	47.592	0	1955.20	0	1.9600	0	34.5780	0	27.647	0	1929.843	0	48.0	4	14.4	4	-1E+10	1	-1E+10	1	-1E+10	1	-1E+10	1	-1E+10	1	-1E+10	1
4902549	86	C	12/29/2022	05:57	-133.451	47.592	0	1965.70	0	1.9560	0	34.5790	0	27.648	0	1940.159	0	47.8	4	14.4	4	-1E+10	1	-1E+10	1	-1E+10	1	-1E+10	1	-1E+10	1	-1E+10	1
4902549	86	C	12/29/2022	05:57	-133.451	47.592	0	1973.00	0	1.9550	0	34.5790	0	27.648	0	1947.330	0	47.1	4	14.2	4	-1E+10	1	-1E+10	1	-1E+10	1	-1E+10	1	-1E+10	1	-1E+10	1
4902549	86	C	12/29/2022	05:57	-133.451	47.592	0																										
4902549	87	C	01/08/2023	10:56	-133.302	47.619	0	4.20	0	9.6040	0	32.3000	0	24.909	0	4.165	0	260.6	4	92.3	4	-1E+10	1	-1E+10	1	-1E+10	1	-1E+10	1	-1E+10	1	-1E+10	1
4902549	87	C	01/08/2023	10:56	-133.302	47.619	0	5.00	0	9.6030	0	32.3000	0	24.910	0	4.958	0	260.5	4	92.3	4	-1E+10	1	-1E+10	1	-1E+10	1	-1E+10	1	-1E+10	1	-1E+10	1
4902549	87	C	01/08/2023	10:56	-133.302	47.619	0	6.30	0	9.6040	0	32.3000	0	24.909	0	6.247	0	260.7	4	92.3	4	-1E+10	1	-1E+10	1	-1E+10	1	-1E+10	1	-1E+10	1	-1E+10	1
4902549	87	C	01/08/2023	10:56	-133.302	47.619	0	6.80	0	9.6040	0	32.3000	0	24.909	0	6.743	0	260.5	4	92.2	4	-1E+10	1	-1E+10	1	-1E+10	1	-1E+10	1	-1E+10	1	-1E+10	1
4902549	87	C	01/08/2023	10:56	-133.302	47.619	0	7.80	0	9.6040	0	32.3000	0	24.910	0	7.735	0	260.5	4	92.2	4	-1E+10	1	-1E+10	1	-1E+10	1	-1E+10	1	-1E+10	1	-1E+10	1
4902549	87	C	01/08/2023	10:56	-133.302	47.619	0	8.40	0	9.6045	0	32.3000	0	24.909	0	8.330	0	-1e10	1	-1e10	1	-1E+10	1	-1E+10	1	-1E+10	1	-1E+10	1	-1E+10	1	-1E+10	1
4902549	87	C	01/08/2023	10:56	-133.302	47.619	0	8.80	0	9.6048	0	32.3000	0	24.909	0	8.726	0	-1e10	1	-1e10	1	-1E+10	1	-1E+10	1	-1E+10	1	-1E+10	1	-1E+10	1	-1E+10	1
4902549	87	C	01/08/2023	10:56	-133.302	47.619	0	9.00	0	9.6050	0	32.3000	0	24.909	0	8.925	0	260.6	4	92.3	4	-1E+10	1	-1E+10	1	-1E+10	1	-1E+10	1	-1E+10	1	-1E+10	1
4902549	87	C	01/08/2023	10:56	-133.302	47.619	0	9.70	0	9.6050	0	32.3000	0	24.909	0	9.619	0	-1e10	1	-1e10	1	-1E+10	1	-1E+10	1	-1E+10	1	-1E+10	1	-1E+10	1	-1E+10	1
4902549	87	C	01/08/2023	10:56	-133.302	47.619	0	9.90	0	9.6050	0	32.3000	0	24.909	0	9.817	0	260.5	4	92.2	4	-1E+10	1	-1E+10	1	-1E+10	1	-1E+10	1	-1E+10	1	-1E+10	1
4902549	87	C	01/08/2023	10:56	-133.302	47.619	0	10.80	0	9.6060	0	32.3000	0	24.909	0	10.709	0	260.5	4	92.2	4	-1E+10	1	-1E+10	1	-1E+10	1	-1E+10	1	-1E+10	1	-1E+10	1
4902549	87	C	01/08/2023	10:56	-133.302	47.619	0	11.50	0	9.6060	0	32.3000	0	24.909	0	11.404	0	260.5	4	92.2	4	-1E+10	1	-1E+10	1	-1E+10	1	-1E+10	1	-1E+10	1	-1E+10	1
4902549	87	C	01/08/2023	10:56	-133.302	47.619	0	11.90	0	9.6060	0	32.3000	0	24.909	0	11.800	0	-1e10	1	-1e10	1	-1E+10	1	-1E+10	1	-1E+10	1	-1E+10	1	-1E+10	1	-1E+10	1
4902549	87	C	01/08/2023	10:56	-133.302	47.619	0	12.10	0	9.6060	0	32.3000	0	24.909	0	11.999	0	260.5	4	92.2	4	-1E+10	1	-1E+10	1	-1E+10	1	-1E+10	1	-1E+10	1	-1E+10	1
4902549	87	C	01/08/2023	10:56	-133.302	47.619	0	13.00	0	9.6060	0	32.3000	0	24.909	0	12.891	0	260.5	4	92.2	4	-1E+10	1	-1E+10	1	-1E+10	1	-1E+10	1	-1E+10	1	-1E+10	1
4902549	87	C	01/08/2023	10:56	-133.302	47.619	0	14.10	0	9.6060	0	32.3000	0	24.909	0	13.982	0	260.5	4	92.2	4	-1E+10	1	-1E+10	1	-1E+10	1	-1E+10	1	-1E+10	1	-1E+10	1
4902549	87	C	01/08/2023	10:56	-133.302	47.619	0	14.90	0	9.6060	0	32.3000	0	24.909	0	14.775	0	260.4	4	92.2	4	-1E+10	1	-1E+10	1	-1E+10	1	-1E+10	1	-1E+10	1	-1E+10	1
4902549	87	C	01/08/2023	10:56	-133.302	47.619	0	16.10	0	9.6060	0	32.3000	0	24.909	0	15.965	0	260.5	4	92.2	4	-1E+10	1	-1E+10	1	-1E+10	1	-1E+10	1	-1E+10	1	-1E+10	1
4902549	87	C	01/08/2023	10:56	-133.302	47.619	0	17.10	0	9.6070	0	32.3000	0	24.909	0	16.956	0	260.5	4	92.2	4	-1E+10	1	-1E+10	1	-1E+10	1	-1E+10	1	-1E+10	1	-1E+10	1
4902549	87	C	01/08/2023	10:56	-133.302	47.619	0	17.90	0	9.6070	0	32.3000	0	24.909	0	17.750	0	260.4	4	92.2	4	-1E+10	1	-1E+10	1	-1E+10	1	-1E+10	1	-1E+10	1	-1E+10	1
4902549	87	C	01/08/2023	10:56	-133.302	47.619	0	18.80	0	9.6070	0	32.3000	0	24.909	0	18.642	0	260.4	4	92.2	4	-1E+10	1	-1E+10	1	-1E+10	1	-1E+10	1	-1E+10	1	-1E+10	1
4902549	87	C	01/08/2023	10:56	-133.302	47.619	0	20.10	0	9.6070	0	32.3000	0	24.909	0	19.931	0	260.5	4	92.2	4	-1E+10	1	-1E+10	1	-1E+10	1	-1E+10	1	-1E+10	1	-1E+10	1
4902549	87	C	01/08/2023	10:56	-133.302	47.619	0	21.00	0	9.6070	0	32.3000	0	24.909	0	20.823	0	260.5	4	92.2	4	-1E+10	1	-1E+10	1	-1E+10	1	-1E+10	1	-1E+10	1	-1E+10	1
4902549	87	C	01/08/2023	10:56	-133.302	47.619	0	22.00	0	9.6070	0	32.3000	0	24.909	0	21.815	0	260.5	4	92.2	4	-1E+10	1	-1E+10	1	-1E+10	1	-1E+10	1	-1E+10	1	-1E+10	1
4902549	87	C	01/08/2023	10:56	-133.302	47.619	0	22.90	0	9.6060	0	32.3010	0	24.910	0	22.707	0	260.3	4	92.2	4	-1E+10	1	-1E+10	1	-1E+10	1	-1E+10	1	-1E+10	1	-1E+10	1
4902549	87	C	01/08/2023	10:56	-133.302	47.619	0	23.90	0	9.6060	0	32.3000	0	24.909	0	23.699	0	260.4	4	92.2	4	-1E+10	1	-1E+10	1	-1E+10	1	-1E+10	1	-1E+10	1	-1E+10	1
4902549	87	C	01/08/2023	10:56	-133.302	47.619	0	24.90	0	9.6060	0	32.3000	0	24.909	0	24.690	0	260.5	4	92.2	4	-1E+10	1	-1E+10	1	-1E+10	1	-1E+10	1	-1E+10	1	-1E+10	1
4902549	87	C	01/08/2023	10:56	-133.302	47.619	0	25.90	0	9.6060	0	32.3000	0	24.910	0	25.682	0	260.3	4	92.2	4	-1E+10	1	-1E+10	1	-1E+10	1	-1E+10	1	-1E+10	1	-1E+10	1
4902549	87	C	01/08/2023	10:56	-133.302	47.619	0	27.00	0	9.6060	0	32.3000	0	24.910	0	26.773	0	260.4	4	92.2	4	-1E+10	1	-1E+10	1	-1E+10	1	-1E+10	1	-1E+10	1	-1E+10	1
4902549	87	C	01/08/2023	10:56	-133.302	47.619	0	28.00	0	9.6060	0	32.3010	0	24.910	0	27.764	0	260.4	4	92.2	4	-1E+10	1	-1E+10	1	-1E+10	1	-1E+10	1	-1E+10	1	-1E+10	1
4902549	87	C	01/08/2023	10:56	-133.302	47.619	0	29.20	0	9.6060	0	32.3010	0	24.910	0	28.954	0	260.3	4	92.2	4	-1E+10	1	-1E+10	1	-1E+10	1	-1E+10	1	-1E+10	1	-1E+10	1
4902549	87	C	01/08/2023	10:56	-133.302	47.619	0	29.80	0	9.6060	0	32.3010	0	24.910	0	29.549	0	260.4	4	92.2	4	-1E+10	1	-1E+10	1	-1E+10	1	-1E+10	1	-1E+10	1	-1E+10	1
4902549	87	C	01/08/2023	10:56	-133.302	47.619	0	30.80	0	9.6060	0	32.3000	0	24.910	0	30.540	0	260.3	4	92.2	4	-1E+10	1	-1E+10	1	-1E+10	1	-1E+10	1	-1E+10	1	-1E+10	1
4902549	87	C	01/08/2023	10:56	-133.302	47.619	0	31.90	0	9.6060	0	32.3010	0	24.910	0	31.631	0	260.3	4	92.2	4	-1E+10	1	-1E+10	1	-1E+10	1	-1E+10	1	-1E+10	1	-1E+10	1
4902549	87	C	01/08/2023	10:56	-133.302	47.619	0	32.90	0	9.6060	0	32.3000	0	24.910	0	32.622	0	260.3	4	92.2	4	-1E+10	1	-1E+10	1	-1E+10	1	-1E+10	1	-1E+10	1	-1E+10	1
4902549	87	C	01/08/2023	10:56	-133.302	47.619	0	33.90	0	9.6060	0	32.3010	0	24.910	0	33.614	0	260.3	4	92.2	4	-1E+10	1	-1E+10	1	-1E+10	1	-1E+10	1	-1E+10	1	-1E+10	1
4902549	87	C	01/08/2023	10:56	-133.302	47.619	0	34.80	0	9.6070	0	32.3000	0	24.909	0	34.506	0	260.2	4	92.2	4	-1E+10	1	-1E+10	1	-1E+10	1	-1E+10	1	-1E+10	1	-1E+10	1
4902549	87	C	01/08/2023	10:56	-133.302	47.619	0	35.90	0	9.6090	0	32.3000	0	24.909	0	35.597	0	260.3	4	92.2	4	-1E+10	1	-1E+10	1	-1E+10	1	-1E+10	1	-1E+10	1	-1E+10	1
4902549	87	C	01/08/2023	10:56	-133.302	47.619	0	36.80	0	9.6070	0	32.3000	0	24.910	0	36.489	0	260.3	4	92.2	4	-1E+10	1	-1E+10	1	-1E+10	1	-1E+10	1	-1E+10	1	-1E+10	1
4902549	87	C	01/08/2023	10:56	-133.302	47.619	0	37.80	0	9.6070	0	32.3000	0	24.910	0	37.481	0	260.1	4	92.1	4	-1E+10	1	-1E+10	1	-1E+10	1	-1E+10	1	-1E+10	1	-1E+10	1
4902549	87	C	01/08/2023	10:56	-133.302	47.619	0	38.80	0	9.6060	0	32.3000	0	24.910	0	38.472	0	260.1	4	92.1	4	-1E+10	1	-1E+10	1	-1E+10	1	-1E+10	1	-1E+10	1	-1E+10	1
4902549	87	C	01/08/2023	10:56	-133.302	47.619	0	40.00	0	9.6060	0	32.3010	0	24.911	0	39.662	0	260.3	4	92.2	4	-1E+10	1	-1E+10	1	-1E+10	1	-1E+10	1	-1E+10	1	-1E+10	1
4902549	87	C	01/08/2023	10:56	-133.302	47.619	0	41.10	0	9.6060	0	32.3010	0	24.911	0	40.752	0	260.2	4	92.1	4	-1E+10	1	-1E+10	1	-1E+10	1	-1E+10	1	-1E+10	1	-1E+10	1
4902549	87	C	01/08/2023	10:56	-133.302	47.619	0	42.20	0	9.6060	0	32.3010	0	24.911	0	41.843	0	260.1	4	92.1	4	-1E+10	1	-1E+10	1	-1E+10	1	-1E+10	1	-1E+10	1	-1E+10	1
4902549	87	C	01/08/2023	10:56	-133.302	47.619	0	42.90	0	9.6060	0	32.3010	0	24.911	0	42.537	0	260.2	4	92.1	4	-1E+10	1	-1E+10	1	-1E+10	1	-1E+10	1	-1E+10	1	-1E+10	1
4902549	87	C	01/08/2023	10:56	-133.302	47.619	0	43.90	0	9.6060	0	32.3000	0	24.910	0	43.529	0	260.1	4	92.1	4	-1E+10	1	-1E+10	1	-1E+10	1	-1E+10	1	-1E+10	1	-1E+10	1
4902549	87	C	01/08/2023	10:56	-133.302	47.619	0	45.00	0	9.6050	0	32.3010	0	24.911	0	44.619	0	260.1	4	92.1	4	-1E+10	1	-1E+10	1	-1E+10	1	-1E+10	1	-1E+10	1	-1E+10	1
4902549	87	C	01/08/2023	10:56	-133.302	47.619	0	46.00	0	9.6060	0	32.3010	0	24.911	0	45.611	0	260.1	4	92.1	4	-1E+10	1	-1E+10	1	-1E+10	1	-1E+10	1	-1E+10	1	-1E+10	1
4902549	87	C	01/08/2023	10:56	-133.302	47.619	0	47.00	0	9.6070	0	32.3010	0	24.910	0	46.602	0	260.1	4	92.1	4	-1E+10	1	-1E+10	1	-1E+10	1	-1E+10	1	-1E+10	1	-1E+10	1
4902549	87	C	01/08/2023	10:56	-133.302	47.619	0	48.00	0	9.6080	0	32.3000	0	24.910	0	47.593	0	260.0	4	92.1	4	-1E+10	1	-1E+10	1	-1E+10	1	-1E+10	1	-1E+10	1	-1E+10	1
4902549	87	C	01/08/2023	10:56	-133.302	47.619	0	49.00	0	9.6090	0	32.3000	0	24.909	0	48.585	0	260.0	4	92.1	4	-1E+10	1	-1E+10	1	-1E+10	1	-1E+10	1	-1E+10	1	-1E+10	1
4902549	87	C	01/08/2023	10:56	-133.302	47.619	0	50.00	0	9.6090	0	32.3000	0	24.909	0	49.576	0	260.0	4	92.1	4	-1E+10	1	-1E+10	1	-1E+10	1	-1E+10	1	-1E+10	1	-1E+10	1
4902549	87	C	01/08/2023	10:56	-133.302	47.619	0	51.10	0	9.6090	0	32.3000	0	24.909	0	50.667	0	260.0	4	92.1	4	-1E+10	1	-1E+10	1	-1E+10	1	-1E+10	1	-1E+10	1	-1E+10	1
4902549	87	C	01/08/2023	10:56	-133.302	47.619	0	51.80	0	9.6090	0	32.3010	0	24.910	0	51.361	0	259.9	4	92.0	4	-1E+10	1	-1E+10	1	-1E+10	1	-1E+10	1	-1E+10	1	-1E+10	1
4902549	87	C	01/08/2023	10:56	-133.302	47.619	0	52.80	0	9.6090	0	32.3000	0	24.909	0	52.352	0	259.8	4	92.0	4	-1E+10	1	-1E+10	1	-1E+10	1	-1E+10	1	-1E+10	1	-1E+10	1
4902549	87	C	01/08/2023	10:56	-133.302	47.619	0	54.10	0	9.6090	0	32.3000	0	24.910	0	53.641	0	259.9	4	92.0	4	-1E+10	1	-1E+10	1	-1E+10	1	-1E+10	1	-1E+10	1	-1E+10	1
4902549	87	C	01/08/2023	10:56	-133.302	47.619	0	55.00	0	9.6090	0	32.3000	0	24.910	0	54.533	0	259.8	4	92.0	4	-1E+10	1	-1E+10	1	-1E+10	1	-1E+10	1	-1E+10	1	-1E+10	1
4902549	87	C	01/08/2023	10:56	-133.302	47.619	0	55.90	0	9.6090	0	32.3000	0	24.910	0	55.425	0	259.7	4	92.0	4	-1E+10	1	-1E+10	1	-1E+10	1	-1E+10	1	-1E+10	1	-1E+10	1
4902549	87	C	01/08/2023	10:56	-133.302	47.619	0	56.90	0	9.6100	0	32.3000	0	24.909	0	56.417	0	259.7	4	92.0	4	-1E+10	1	-1E+10	1	-1E+10	1	-1E+10	1	-1E+10	1	-1E+10	1
4902549	87	C	01/08/2023	10:56	-133.302	47.619	0	57.90	0	9.6090	0	32.3000	0	24.910	0	57.408	0	259.7	4	92.0	4	-1E+10	1	-1E+10	1	-1E+10	1	-1E+10	1	-1E+10	1	-1E+10	1
4902549	87	C	01/08/2023	10:56	-133.302	47.619	0	59.10	0	9.6050	0	32.3020	0	24.912	0	58.598	0	259.6	4	91.9	4	-1E+10	1	-1E+10	1	-1E+10	1	-1E+10	1	-1E+10	1	-1E+10	1
4902549	87	C	01/08/2023	10:56	-133.302	47.619	0	60.00	0	9.6050	0	32.3010	0	24.911	0	59.490	0	259.7	4	91.9	4	-1E+10	1	-1E+10	1	-1E+10	1	-1E+10	1	-1E+10	1	-1E+10	1
4902549	87	C	01/08/2023	10:56	-133.302	47.619	0	60.90	0	9.6080	0	32.3010	0	24.911	0	60.382	0	259.7	4	92.0	4	-1E+10	1	-1E+10	1	-1E+10	1	-1E+10	1	-1E+10	1	-1E+10	1
4902549	87	C	01/08/2023	10:56	-133.302	47.619	0	61.80	0	9.6090	0	32.3010	0	24.910	0	61.274	0	259.6	4	91.9	4	-1E+10	1	-1E+10	1	-1E+10	1	-1E+10	1	-1E+10	1	-1E+10	1
4902549	87	C	01/08/2023	10:56	-133.302	47.619	0	62.70	0	9.6080	0	32.3010	0	24.911	0	62.167	0	259.5	4	91.9	4	-1E+10	1	-1E+10	1	-1E+10	1	-1E+10	1	-1E+10	1	-1E+10	1
4902549	87	C	01/08/2023	10:56	-133.302	47.619	0	63.90	0	9.6090	0	32.3010	0	24.910	0	63.356	0	259.4	4	91.9	4	-1E+10	1	-1E+10	1	-1E+10	1	-1E+10	1	-1E+10	1	-1E+10	1
4902549	87	C	01/08/2023	10:56	-133.302	47.619	0	65.10	0	9.6090	0	32.3000	0	24.910	0	64.546	0	259.4	4	91.8	4	-1E+10	1	-1E+10	1	-1E+10	1	-1E+10	1	-1E+10	1	-1E+10	1
4902549	87	C	01/08/2023	10:56	-133.302	47.619	0	65.90	0	9.6090	0	32.3010	0	24.911	0	65.339	0	259.4	4	91.9	4	-1E+10	1	-1E+10	1	-1E+10	1	-1E+10	1	-1E+10	1	-1E+10	1
4902549	87	C	01/08/2023	10:56	-133.302	47.619	0	67.00	0	9.6090	0	32.3010	0	24.911	0	66.429	0	259.3	4	91.8	4	-1E+10	1	-1E+10	1	-1E+10	1	-1E+10	1	-1E+10	1	-1E+10	1
4902549	87	C	01/08/2023	10:56	-133.302	47.619	0	68.20	0	9.6090	0	32.3010	0	24.911	0	67.619	0	259.2	4	91.8	4	-1E+10	1	-1E+10	1	-1E+10	1	-1E+10	1	-1E+10	1	-1E+10	1
4902549	87	C	01/08/2023	10:56	-133.302	47.619	0	68.90	0	9.6090	0	32.3000	0	24.910	0	68.313	0	259.1	4	91.8	4	-1E+10	1	-1E+10	1	-1E+10	1	-1E+10	1	-1E+10	1	-1E+10	1
4902549	87	C	01/08/2023	10:56	-133.302	47.619	0	70.00	0	9.6090	0	32.3000	0	24.910	0	69.403	0	259.0	4	91.7	4	-1E+10	1	-1E+10	1	-1E+10	1	-1E+10	1	-1E+10	1	-1E+10	1
4902549	87	C	01/08/2023	10:56	-133.302	47.619	0	71.10	0	9.6080	0	32.3010	0	24.911	0	70.494	0	258.8	4	91.7	4	-1E+10	1	-1E+10	1	-1E+10	1	-1E+10	1	-1E+10	1	-1E+10	1
4902549	87	C	01/08/2023	10:56	-133.302	47.619	0	71.90	0	9.6050	0	32.3010	0	24.911	0	71.287	0	258.8	4	91.7	4	-1E+10	1	-1E+10	1	-1E+10	1	-1E+10	1	-1E+10	1	-1E+10	1
4902549	87	C	01/08/2023	10:56	-133.302	47.619	0	72.70	0	9.6060	0	32.3010	0	24.911	0	72.080	0	258.7	4	91.6	4	-1E+10	1	-1E+10	1	-1E+10	1	-1E+10	1	-1E+10	1	-1E+10	1
4902549	87	C	01/08/2023	10:56	-133.302	47.619	0	73.90	0	9.6030	0	32.3010	0	24.912	0	73.269	0	258.6	4	91.6	4	-1E+10	1	-1E+10	1	-1E+10	1	-1E+10	1	-1E+10	1	-1E+10	1
4902549	87	C	01/08/2023	10:56	-133.302	47.619	0	75.00	0	9.6020	0	32.3020	0	24.913	0	74.360	0	258.4	4	91.5	4	-1E+10	1	-1E+10	1	-1E+10	1	-1E+10	1	-1E+10	1	-1E+10	1
4902549	87	C	01/08/2023	10:56	-133.302	47.619	0	75.80	0	9.6030	0	32.3020	0	24.912	0	75.153	0	258.3	4	91.5	4	-1E+10	1	-1E+10	1	-1E+10	1	-1E+10	1	-1E+10	1	-1E+10	1
4902549	87	C	01/08/2023	10:56	-133.302	47.619	0	76.90	0	9.5990	0	32.3010	0	24.912	0	76.243	0	258.1	4	91.4	4	-1E+10	1	-1E+10	1	-1E+10	1	-1E+10	1	-1E+10	1	-1E+10	1
4902549	87	C	01/08/2023	10:56	-133.302	47.619	0	78.10	0	9.5800	0	32.3050	0	24.919	0	77.433	0	257.7	4	91.2	4	-1E+10	1	-1E+10	1	-1E+10	1	-1E+10	1	-1E+10	1	-1E+10	1
4902549	87	C	01/08/2023	10:56	-133.302	47.619	0	78.80	0	9.5740	0	32.3100	0	24.923	0	78.127	0	257.8	4	91.2	4	-1E+10	1	-1E+10	1	-1E+10	1	-1E+10	1	-1E+10	1	-1E+10	1
4902549	87	C	01/08/2023	10:56	-133.302	47.619	0	79.70	0	9.5450	0	32.3040	0	24.923	0	79.019	0	257.7	4	91.1	4	-1E+10	1	-1E+10	1	-1E+10	1	-1E+10	1	-1E+10	1	-1E+10	1
4902549	87	C	01/08/2023	10:56	-133.302	47.619	0	80.90	0	9.5270	0	32.3110	0	24.932	0	80.208	0	257.7	4	91.1	4	-1E+10	1	-1E+10	1	-1E+10	1	-1E+10	1	-1E+10	1	-1E+10	1
4902549	87	C	01/08/2023	10:56	-133.302	47.619	0	82.10	0	9.5260	0	32.3130	0	24.933	0	81.398	0	257.6	4	91.1	4	-1E+10	1	-1E+10	1	-1E+10	1	-1E+10	1	-1E+10	1	-1E+10	1
4902549	87	C	01/08/2023	10:56	-133.302	47.619	0	82.80	0	9.5360	0	32.3090	0	24.929	0	82.092	0	257.5	4	91.0	4	-1E+10	1	-1E+10	1	-1E+10	1	-1E+10	1	-1E+10	1	-1E+10	1
4902549	87	C	01/08/2023	10:56	-133.302	47.619	0	84.00	0	9.5370	0	32.3090	0	24.929	0	83.281	0	257.2	4	90.9	4	-1E+10	1	-1E+10	1	-1E+10	1	-1E+10	1	-1E+10	1	-1E+10	1
4902549	87	C	01/08/2023	10:56	-133.302	47.619	0	85.20	0	9.5380	0	32.3120	0	24.931	0	84.471	0	256.9	4	90.9	4	-1E+10	1	-1E+10	1	-1E+10	1	-1E+10	1	-1E+10	1	-1E+10	1
4902549	87	C	01/08/2023	10:56	-133.302	47.619	0	86.00	0	9.5450	0	32.3070	0	24.926	0	85.264	0	263.0	4	93.0	4	-1E+10	1	-1E+10	1	-1E+10	1	-1E+10	1	-1E+10	1	-1E+10	1
4902549	87	C	01/08/2023	10:56	-133.302	47.619	0	87.00	0	9.5340	0	32.3100	0	24.930	0	86.255	0	262.6	4	92.8	4	-1E+10	1	-1E+10	1	-1E+10	1	-1E+10	1	-1E+10	1	-1E+10	1
4902549	87	C	01/08/2023	10:56	-133.302	47.619	0	88.10	0	9.5180	0	32.3130	0	24.935	0	87.345	0	262.3	4	92.7	4	-1E+10	1	-1E+10	1	-1E+10	1	-1E+10	1	-1E+10	1	-1E+10	1
4902549	87	C	01/08/2023	10:56	-133.302	47.619	0	89.00	0	9.5090	0	32.3130	0	24.936	0	88.237	0	261.8	4	92.5	4	-1E+10	1	-1E+10	1	-1E+10	1	-1E+10	1	-1E+10	1	-1E+10	1
4902549	87	C	01/08/2023	10:56	-133.302	47.619	0	90.00	0	9.4890	0	32.3150	0	24.941	0	89.228	0	261.1	4	92.2	4	-1E+10	1	-1E+10	1	-1E+10	1	-1E+10	1	-1E+10	1	-1E+10	1
4902549	87	C	01/08/2023	10:56	-133.302	47.619	0	91.20	0	9.4740	0	32.3100	0	24.940	0	90.418	0	260.1	4	91.8	4	-1E+10	1	-1E+10	1	-1E+10	1	-1E+10	1	-1E+10	1	-1E+10	1
4902549	87	C	01/08/2023	10:56	-133.302	47.619	0	92.10	0	9.4080	0	32.3250	0	24.962	0	91.310	0	258.6	4	91.2	4	-1E+10	1	-1E+10	1	-1E+10	1	-1E+10	1	-1E+10	1	-1E+10	1
4902549	87	C	01/08/2023	10:56	-133.302	47.619	0	93.10	0	8.8790	0	32.3840	0	25.091	0	92.301	0	258.8	4	90.3	4	-1E+10	1	-1E+10	1	-1E+10	1	-1E+10	1	-1E+10	1	-1E+10	1
4902549	87	C	01/08/2023	10:56	-133.302	47.619	0	93.90	0	8.6570	0	32.4160	0	25.150	0	93.094	0	248.7	4	86.3	4	-1E+10	1	-1E+10	1	-1E+10	1	-1E+10	1	-1E+10	1	-1E+10	1
4902549	87	C	01/08/2023	10:56	-133.302	47.619	0	95.10	0	8.1290	0	32.4590	0	25.262	0	94.284	0	248.7	4	85.3	4	-1E+10	1	-1E+10	1	-1E+10	1	-1E+10	1	-1E+10	1	-1E+10	1
4902549	87	C	01/08/2023	10:56	-133.302	47.619	0	96.10	0	8.0360	0	32.4760	0	25.288	0	95.275	0	248.1	4	85.0	4	-1E+10	1	-1E+10	1	-1E+10	1	-1E+10	1	-1E+10	1	-1E+10	1
4902549	87	C	01/08/2023	10:56	-133.302	47.619	0	97.10	0	7.9360	0	32.4890	0	25.313	0	96.266	0	247.0	4	84.4	4	-1E+10	1	-1E+10	1	-1E+10	1	-1E+10	1	-1E+10	1	-1E+10	1
4902549	87	C	01/08/2023	10:56	-133.302	47.619	0	97.90	0	7.8490	0	32.5050	0	25.338	0	97.059	0	246.4	4	84.0	4	-1E+10	1	-1E+10	1	-1E+10	1	-1E+10	1	-1E+10	1	-1E+10	1
4902549	87	C	01/08/2023	10:56	-133.302	47.619	0	99.00	0	7.6530	0	32.5570	0	25.407	0	98.149	0	246.4	4	83.7	4	-1E+10	1	-1E+10	1	-1E+10	1	-1E+10	1	-1E+10	1	-1E+10	1
4902549	87	C	01/08/2023	10:56	-133.302	47.619	0	100.20	0	7.6450	0	32.5620	0	25.412	0	99.339	0	245.6	4	83.4	4	-1E+10	1	-1E+10	1	-1E+10	1	-1E+10	1	-1E+10	1	-1E+10	1
4902549	87	C	01/08/2023	10:56	-133.302	47.619	0	100.80	0	7.6460	0	32.5660	0	25.415	0	99.933	0	245.1	4	83.2	4	-1E+10	1	-1E+10	1	-1E+10	1	-1E+10	1	-1E+10	1	-1E+10	1
4902549	87	C	01/08/2023	10:56	-133.302	47.619	0	102.00	0	7.6460	0	32.5720	0	25.420	0	101.123	0	244.0	4	82.9	4	-1E+10	1	-1E+10	1	-1E+10	1	-1E+10	1	-1E+10	1	-1E+10	1
4902549	87	C	01/08/2023	10:56	-133.302	47.619	0	102.70	0	7.6440	0	32.5730	0	25.421	0	101.816	0	243.3	4	82.6	4	-1E+10	1	-1E+10	1	-1E+10	1	-1E+10	1	-1E+10	1	-1E+10	1
4902549	87	C	01/08/2023	10:56	-133.302	47.619	0	103.70	0	7.6410	0	32.5760	0	25.423	0	102.808	0	242.2	4	82.3	4	-1E+10	1	-1E+10	1	-1E+10	1	-1E+10	1	-1E+10	1	-1E+10	1
4902549	87	C	01/08/2023	10:56	-133.302	47.619	0	104.70	0	7.6370	0	32.5810	0	25.428	0	103.799	0	240.8	4	81.8	4	-1E+10	1	-1E+10	1	-1E+10	1	-1E+10	1	-1E+10	1	-1E+10	1
4902549	87	C	01/08/2023	10:56	-133.302	47.619	0	105.80	0	7.6170	0	32.5930	0	25.440	0	104.889	0	239.5	4	81.3	4	-1E+10	1	-1E+10	1	-1E+10	1	-1E+10	1	-1E+10	1	-1E+10	1
4902549	87	C	01/08/2023	10:56	-133.302	47.619	0	106.80	0	7.5830	0	32.6010	0	25.451	0	105.880	0	238.3	4	80.9	4	-1E+10	1	-1E+10	1	-1E+10	1	-1E+10	1	-1E+10	1	-1E+10	1
4902549	87	C	01/08/2023	10:56	-133.302	47.619	0	107.90	0	7.5570	0	32.6200	0	25.470	0	106.970	0	237.2	4	80.4	4	-1E+10	1	-1E+10	1	-1E+10	1	-1E+10	1	-1E+10	1	-1E+10	1
4902549	87	C	01/08/2023	10:56	-133.302	47.619	0	109.00	0	7.5340	0	32.6320	0	25.482	0	108.061	0	236.1	4	80.0	4	-1E+10	1	-1E+10	1	-1E+10	1	-1E+10	1	-1E+10	1	-1E+10	1
4902549	87	C	01/08/2023	10:56	-133.302	47.619	0	110.10	0	7.5000	0	32.6530	0	25.504	0	109.151	0	235.0	4	79.6	4	-1E+10	1	-1E+10	1	-1E+10	1	-1E+10	1	-1E+10	1	-1E+10	1
4902549	87	C	01/08/2023	10:56	-133.302	47.619	0	111.10	0	7.5120	0	32.6620	0	25.509	0	110.142	0	233.5	4	79.1	4	-1E+10	1	-1E+10	1	-1E+10	1	-1E+10	1	-1E+10	1	-1E+10	1
4902549	87	C	01/08/2023	10:56	-133.302	47.619	0	112.30	0	7.5030	0	32.6710	0	25.517	0	111.331	0	231.6	4	78.5	4	-1E+10	1	-1E+10	1	-1E+10	1	-1E+10	1	-1E+10	1	-1E+10	1
4902549	87	C	01/08/2023	10:56	-133.302	47.619	0	113.00	0	7.5010	0	32.6740	0	25.520	0	112.025	0	230.1	4	78.0	4	-1E+10	1	-1E+10	1	-1E+10	1	-1E+10	1	-1E+10	1	-1E+10	1
4902549	87	C	01/08/2023	10:56	-133.302	47.619	0	114.10	0	7.4600	0	32.7150	0	25.558	0	113.115	0	228.0	4	77.2	4	-1E+10	1	-1E+10	1	-1E+10	1	-1E+10	1	-1E+10	1	-1E+10	1
4902549	87	C	01/08/2023	10:56	-133.302	47.619	0	114.90	0	7.4300	0	32.7400	0	25.582	0	113.908	0	226.6	4	76.7	4	-1E+10	1	-1E+10	1	-1E+10	1	-1E+10	1	-1E+10	1	-1E+10	1
4902549	87	C	01/08/2023	10:56	-133.302	47.619	0	116.00	0	7.3940	0	32.8040	0	25.637	0	114.998	0	224.4	4	75.9	4	-1E+10	1	-1E+10	1	-1E+10	1	-1E+10	1	-1E+10	1	-1E+10	1
4902549	87	C	01/08/2023	10:56	-133.302	47.619	0	117.10	0	7.3840	0	32.8240	0	25.654	0	116.088	0	223.2	4	75.5	4	-1E+10	1	-1E+10	1	-1E+10	1	-1E+10	1	-1E+10	1	-1E+10	1
4902549	87	C	01/08/2023	10:56	-133.302	47.619	0	117.90	0	7.3820	0	32.8270	0	25.657	0	116.881	0	222.5	4	75.3	4	-1E+10	1	-1E+10	1	-1E+10	1	-1E+10	1	-1E+10	1	-1E+10	1
4902549	87	C	01/08/2023	10:56	-133.302	47.619	0	119.10	0	7.3760	0	32.8360	0	25.665	0	118.071	0	221.2	4	74.8	4	-1E+10	1	-1E+10	1	-1E+10	1	-1E+10	1	-1E+10	1	-1E+10	1
4902549	87	C	01/08/2023	10:56	-133.302	47.619	0	120.00	0	7.3720	0	32.8450	0	25.673	0	118.963	0	220.0	4	74.4	4	-1E+10	1	-1E+10	1	-1E+10	1	-1E+10	1	-1E+10	1	-1E+10	1
4902549	87	C	01/08/2023	10:56	-133.302	47.619	0	121.00	0	7.3680	0	32.8540	0	25.680	0	119.954	0	218.4	4	73.9	4	-1E+10	1	-1E+10	1	-1E+10	1	-1E+10	1	-1E+10	1	-1E+10	1
4902549	87	C	01/08/2023	10:56	-133.302	47.619	0	121.90	0	7.3650	0	32.8610	0	25.686	0	120.846	0	216.7	4	73.3	4	-1E+10	1	-1E+10	1	-1E+10	1	-1E+10	1	-1E+10	1	-1E+10	1
4902549	87	C	01/08/2023	10:56	-133.302	47.619	0	122.90	0	7.3580	0	32.8730	0	25.697	0	121.837	0	214.8	4	72.7	4	-1E+10	1	-1E+10	1	-1E+10	1	-1E+10	1	-1E+10	1	-1E+10	1
4902549	87	C	01/08/2023	10:56	-133.302	47.619	0	123.90	0	7.3500	0	32.8940	0	25.714	0	122.828	0	212.8	4	72.0	4	-1E+10	1	-1E+10	1	-1E+10	1	-1E+10	1	-1E+10	1	-1E+10	1
4902549	87	C	01/08/2023	10:56	-133.302	47.619	0	125.00	0	7.3390	0	32.9220	0	25.738	0	123.918	0	210.7	4	71.3	4	-1E+10	1	-1E+10	1	-1E+10	1	-1E+10	1	-1E+10	1	-1E+10	1
4902549	87	C	01/08/2023	10:56	-133.302	47.619	0	125.90	0	7.3280	0	32.9420	0	25.755	0	124.810	0	209.2	4	70.7	4	-1E+10	1	-1E+10	1	-1E+10	1	-1E+10	1	-1E+10	1	-1E+10	1
4902549	87	C	01/08/2023	10:56	-133.302	47.619	0	127.00	0	7.3160	0	32.9600	0	25.771	0	125.900	0	207.4	4	70.1	4	-1E+10	1	-1E+10	1	-1E+10	1	-1E+10	1	-1E+10	1	-1E+10	1
4902549	87	C	01/08/2023	10:56	-133.302	47.619	0	128.10	0	7.3090	0	33.0120	0	25.813	0	126.990	0	205.7	4	69.6	4	-1E+10	1	-1E+10	1	-1E+10	1	-1E+10	1	-1E+10	1	-1E+10	1
4902549	87	C	01/08/2023	10:56	-133.302	47.619	0	129.10	0	7.3030	0	33.0370	0	25.833	0	127.981	0	204.6	4	69.2	4	-1E+10	1	-1E+10	1	-1E+10	1	-1E+10	1	-1E+10	1	-1E+10	1
4902549	87	C	01/08/2023	10:56	-133.302	47.619	0	130.00	0	7.2980	0	33.0500	0	25.844	0	128.873	0	203.7	4	68.9	4	-1E+10	1	-1E+10	1	-1E+10	1	-1E+10	1	-1E+10	1	-1E+10	1
4902549	87	C	01/08/2023	10:56	-133.302	47.619	0	130.80	0	7.2940	0	33.0630	0	25.855	0	129.666	0	202.8	4	68.6	4	-1E+10	1	-1E+10	1	-1E+10	1	-1E+10	1	-1E+10	1	-1E+10	1
4902549	87	C	01/08/2023	10:56	-133.302	47.619	0	132.00	0	7.2900	0	33.0860	0	25.874	0	130.855	0	201.6	4	68.2	4	-1E+10	1	-1E+10	1	-1E+10	1	-1E+10	1	-1E+10	1	-1E+10	1
4902549	87	C	01/08/2023	10:56	-133.302	47.619	0	133.10	0	7.2860	0	33.1000	0	25.885	0	131.945	0	200.2	4	67.7	4	-1E+10	1	-1E+10	1	-1E+10	1	-1E+10	1	-1E+10	1	-1E+10	1
4902549	87	C	01/08/2023	10:56	-133.302	47.619	0	133.90	0	7.2840	0	33.1090	0	25.893	0	132.738	0	199.2	4	67.4	4	-1E+10	1	-1E+10	1	-1E+10	1	-1E+10	1	-1E+10	1	-1E+10	1
4902549	87	C	01/08/2023	10:56	-133.302	47.619	0	134.80	0	7.2800	0	33.1210	0	25.903	0	133.630	0	198.2	4	67.0	4	-1E+10	1	-1E+10	1	-1E+10	1	-1E+10	1	-1E+10	1	-1E+10	1
4902549	87	C	01/08/2023	10:56	-133.302	47.619	0	135.90	0	7.2780	0	33.1340	0	25.913	0	134.720	0	196.7	4	66.5	4	-1E+10	1	-1E+10	1	-1E+10	1	-1E+10	1	-1E+10	1	-1E+10	1
4902549	87	C	01/08/2023	10:56	-133.302	47.619	0	137.00	0	7.2780	0	33.1380	0	25.916	0	135.810	0	194.9	4	65.9	4	-1E+10	1	-1E+10	1	-1E+10	1	-1E+10	1	-1E+10	1	-1E+10	1
4902549	87	C	01/08/2023	10:56	-133.302	47.619	0	138.10	0	7.2780	0	33.1410	0	25.919	0	136.900	0	193.0	4	65.3	4	-1E+10	1	-1E+10	1	-1E+10	1	-1E+10	1	-1E+10	1	-1E+10	1
4902549	87	C	01/08/2023	10:56	-133.302	47.619	0	139.00	0	7.2710	0	33.1860	0	25.955	0	137.792	0	191.5	4	64.8	4	-1E+10	1	-1E+10	1	-1E+10	1	-1E+10	1	-1E+10	1	-1E+10	1
4902549	87	C	01/08/2023	10:56	-133.302	47.619	0	139.90	0	7.2550	0	33.2320	0	25.993	0	138.684	0	190.5	4	64.5	4	-1E+10	1	-1E+10	1	-1E+10	1	-1E+10	1	-1E+10	1	-1E+10	1
4902549	87	C	01/08/2023	10:56	-133.302	47.619	0	141.00	0	7.2370	0	33.2740	0	26.029	0	139.774	0	189.3	4	64.0	4	-1E+10	1	-1E+10	1	-1E+10	1	-1E+10	1	-1E+10	1	-1E+10	1
4902549	87	C	01/08/2023	10:56	-133.302	47.619	0	142.10	0	7.2320	0	33.2860	0	26.039	0	140.864	0	188.1	4	63.6	4	-1E+10	1	-1E+10	1	-1E+10	1	-1E+10	1	-1E+10	1	-1E+10	1
4902549	87	C	01/08/2023	10:56	-133.302	47.619	0	143.10	0	7.2280	0	33.2910	0	26.044	0	141.855	0	186.4	4	63.0	4	-1E+10	1	-1E+10	1	-1E+10	1	-1E+10	1	-1E+10	1	-1E+10	1
4902549	87	C	01/08/2023	10:56	-133.302	47.619	0	144.00	0	7.2000	0	33.3260	0	26.075	0	142.747	0	185.1	4	62.6	4	-1E+10	1	-1E+10	1	-1E+10	1	-1E+10	1	-1E+10	1	-1E+10	1
4902549	87	C	01/08/2023	10:56	-133.302	47.619	0	144.70	0	7.1880	0	33.3330	0	26.082	0	143.440	0	183.5	4	62.0	4	-1E+10	1	-1E+10	1	-1E+10	1	-1E+10	1	-1E+10	1	-1E+10	1
4902549	87	C	01/08/2023	10:56	-133.302	47.619	0	145.80	0	7.1690	0	33.3590	0	26.105	0	144.531	0	181.2	4	61.2	4	-1E+10	1	-1E+10	1	-1E+10	1	-1E+10	1	-1E+10	1	-1E+10	1
4902549	87	C	01/08/2023	10:56	-133.302	47.619	0	147.00	0	7.1380	0	33.4130	0	26.152	0	145.720	0	178.7	4	60.4	4	-1E+10	1	-1E+10	1	-1E+10	1	-1E+10	1	-1E+10	1	-1E+10	1
4902549	87	C	01/08/2023	10:56	-133.302	47.619	0	148.00	0	7.1460	0	33.4470	0	26.178	0	146.711	0	176.9	4	59.8	4	-1E+10	1	-1E+10	1	-1E+10	1	-1E+10	1	-1E+10	1	-1E+10	1
4902549	87	C	01/08/2023	10:56	-133.302	47.619	0	149.00	0	7.1470	0	33.4670	0	26.193	0	147.702	0	175.2	4	59.2	4	-1E+10	1	-1E+10	1	-1E+10	1	-1E+10	1	-1E+10	1	-1E+10	1
4902549	87	C	01/08/2023	10:56	-133.302	47.619	0	150.00	0	7.1580	0	33.4840	0	26.205	0	148.692	0	173.4	4	58.6	4	-1E+10	1	-1E+10	1	-1E+10	1	-1E+10	1	-1E+10	1	-1E+10	1
4902549	87	C	01/08/2023	10:56	-133.302	47.619	0	150.80	0	7.1750	0	33.5090	0	26.223	0	149.485	0	172.3	4	58.3	4	-1E+10	1	-1E+10	1	-1E+10	1	-1E+10	1	-1E+10	1	-1E+10	1
4902549	87	C	01/08/2023	10:56	-133.302	47.619	0	151.90	0	7.1830	0	33.5370	0	26.243	0	150.575	0	170.7	4	57.8	4	-1E+10	1	-1E+10	1	-1E+10	1	-1E+10	1	-1E+10	1	-1E+10	1
4902549	87	C	01/08/2023	10:56	-133.302	47.619	0	153.00	0	7.1900	0	33.5590	0	26.260	0	151.665	0	169.5	4	57.4	4	-1E+10	1	-1E+10	1	-1E+10	1	-1E+10	1	-1E+10	1	-1E+10	1
4902549	87	C	01/08/2023	10:56	-133.302	47.619	0	153.90	0	7.1930	0	33.5660	0	26.265	0	152.557	0	168.7	4	57.1	4	-1E+10	1	-1E+10	1	-1E+10	1	-1E+10	1	-1E+10	1	-1E+10	1
4902549	87	C	01/08/2023	10:56	-133.302	47.619	0	154.70	0	7.1990	0	33.5890	0	26.282	0	153.350	0	168.0	4	56.9	4	-1E+10	1	-1E+10	1	-1E+10	1	-1E+10	1	-1E+10	1	-1E+10	1
4902549	87	C	01/08/2023	10:56	-133.302	47.619	0	155.90	0	7.1920	0	33.6090	0	26.299	0	154.539	0	167.1	4	56.6	4	-1E+10	1	-1E+10	1	-1E+10	1	-1E+10	1	-1E+10	1	-1E+10	1
4902549	87	C	01/08/2023	10:56	-133.302	47.619	0	157.20	0	7.1830	0	33.6250	0	26.313	0	155.827	0	166.5	4	56.4	4	-1E+10	1	-1E+10	1	-1E+10	1	-1E+10	1	-1E+10	1	-1E+10	1
4902549	87	C	01/08/2023	10:56	-133.302	47.619	0	158.00	0	7.1790	0	33.6290	0	26.317	0	156.620	0	166.1	4	56.3	4	-1E+10	1	-1E+10	1	-1E+10	1	-1E+10	1	-1E+10	1	-1E+10	1
4902549	87	C	01/08/2023	10:56	-133.302	47.619	0	158.90	0	7.1840	0	33.6350	0	26.321	0	157.511	0	165.6	4	56.1	4	-1E+10	1	-1E+10	1	-1E+10	1	-1E+10	1	-1E+10	1	-1E+10	1
4902549	87	C	01/08/2023	10:56	-133.302	47.619	0	159.70	0	7.1880	0	33.6430	0	26.326	0	158.304	0	165.2	4	56.0	4	-1E+10	1	-1E+10	1	-1E+10	1	-1E+10	1	-1E+10	1	-1E+10	1
4902549	87	C	01/08/2023	10:56	-133.302	47.619	0	160.60	0	7.1800	0	33.6510	0	26.334	0	159.196	0	164.8	4	55.8	4	-1E+10	1	-1E+10	1	-1E+10	1	-1E+10	1	-1E+10	1	-1E+10	1
4902549	87	C	01/08/2023	10:56	-133.302	47.619	0	161.60	0	7.1550	0	33.6620	0	26.346	0	160.187	0	164.6	4	55.7	4	-1E+10	1	-1E+10	1	-1E+10	1	-1E+10	1	-1E+10	1	-1E+10	1
4902549	87	C	01/08/2023	10:56	-133.302	47.619	0	162.90	0	7.1520	0	33.6670	0	26.350	0	161.475	0	164.0	4	55.5	4	-1E+10	1	-1E+10	1	-1E+10	1	-1E+10	1	-1E+10	1	-1E+10	1
4902549	87	C	01/08/2023	10:56	-133.302	47.619	0	164.20	0	7.1440	0	33.6740	0	26.357	0	162.763	0	163.4	4	55.3	4	-1E+10	1	-1E+10	1	-1E+10	1	-1E+10	1	-1E+10	1	-1E+10	1
4902549	87	C	01/08/2023	10:56	-133.302	47.619	0	165.20	0	7.1420	0	33.6780	0	26.360	0	163.754	0	163.1	4	55.2	4	-1E+10	1	-1E+10	1	-1E+10	1	-1E+10	1	-1E+10	1	-1E+10	1
4902549	87	C	01/08/2023	10:56	-133.302	47.619	0	166.10	0	7.1500	0	33.6900	0	26.369	0	164.646	0	162.6	4	55.1	4	-1E+10	1	-1E+10	1	-1E+10	1	-1E+10	1	-1E+10	1	-1E+10	1
4902549	87	C	01/08/2023	10:56	-133.302	47.619	0	167.00	0	7.1540	0	33.6920	0	26.370	0	165.537	0	162.2	4	55.0	4	-1E+10	1	-1E+10	1	-1E+10	1	-1E+10	1	-1E+10	1	-1E+10	1
4902549	87	C	01/08/2023	10:56	-133.302	47.619	0	167.90	0	7.1460	0	33.7000	0	26.377	0	166.429	0	161.9	4	54.8	4	-1E+10	1	-1E+10	1	-1E+10	1	-1E+10	1	-1E+10	1	-1E+10	1
4902549	87	C	01/08/2023	10:56	-133.302	47.619	0	168.90	0	7.1470	0	33.7040	0	26.380	0	167.420	0	161.4	4	54.7	4	-1E+10	1	-1E+10	1	-1E+10	1	-1E+10	1	-1E+10	1	-1E+10	1
4902549	87	C	01/08/2023	10:56	-133.302	47.619	0	169.90	0	7.1440	0	33.7080	0	26.384	0	168.411	0	161.1	4	54.6	4	-1E+10	1	-1E+10	1	-1E+10	1	-1E+10	1	-1E+10	1	-1E+10	1
4902549	87	C	01/08/2023	10:56	-133.302	47.619	0	170.80	0	7.1350	0	33.7130	0	26.389	0	169.303	0	160.7	4	54.4	4	-1E+10	1	-1E+10	1	-1E+10	1	-1E+10	1	-1E+10	1	-1E+10	1
4902549	87	C	01/08/2023	10:56	-133.302	47.619	0	171.80	0	7.1280	0	33.7150	0	26.391	0	170.293	0	160.3	4	54.3	4	-1E+10	1	-1E+10	1	-1E+10	1	-1E+10	1	-1E+10	1	-1E+10	1
4902549	87	C	01/08/2023	10:56	-133.302	47.619	0	172.70	0	7.1100	0	33.7240	0	26.401	0	171.185	0	160.0	4	54.1	4	-1E+10	1	-1E+10	1	-1E+10	1	-1E+10	1	-1E+10	1	-1E+10	1
4902549	87	C	01/08/2023	10:56	-133.302	47.619	0	173.70	0	7.0570	0	33.7270	0	26.411	0	172.176	0	159.6	4	53.9	4	-1E+10	1	-1E+10	1	-1E+10	1	-1E+10	1	-1E+10	1	-1E+10	1
4902549	87	C	01/08/2023	10:56	-133.302	47.619	0	174.70	0	7.0350	0	33.7270	0	26.414	0	173.167	0	159.2	4	53.8	4	-1E+10	1	-1E+10	1	-1E+10	1	-1E+10	1	-1E+10	1	-1E+10	1
4902549	87	C	01/08/2023	10:56	-133.302	47.619	0	175.70	0	7.0280	0	33.7310	0	26.418	0	174.158	0	158.6	4	53.6	4	-1E+10	1	-1E+10	1	-1E+10	1	-1E+10	1	-1E+10	1	-1E+10	1
4902549	87	C	01/08/2023	10:56	-133.302	47.619	0	176.60	0	7.0200	0	33.7320	0	26.420	0	175.049	0	157.9	4	53.4	4	-1E+10	1	-1E+10	1	-1E+10	1	-1E+10	1	-1E+10	1	-1E+10	1
4902549	87	C	01/08/2023	10:56	-133.302	47.619	0	177.60	0	7.0100	0	33.7360	0	26.424	0	176.040	0	157.2	4	53.1	4	-1E+10	1	-1E+10	1	-1E+10	1	-1E+10	1	-1E+10	1	-1E+10	1
4902549	87	C	01/08/2023	10:56	-133.302	47.619	0	178.60	0	7.0070	0	33.7370	0	26.425	0	177.031	0	156.5	4	52.8	4	-1E+10	1	-1E+10	1	-1E+10	1	-1E+10	1	-1E+10	1	-1E+10	1
4902549	87	C	01/08/2023	10:56	-133.302	47.619	0	179.60	0	6.9970	0	33.7400	0	26.429	0	178.022	0	155.6	4	52.5	4	-1E+10	1	-1E+10	1	-1E+10	1	-1E+10	1	-1E+10	1	-1E+10	1
4902549	87	C	01/08/2023	10:56	-133.302	47.619	0	180.60	0	6.9880	0	33.7450	0	26.434	0	179.012	0	154.7	4	52.2	4	-1E+10	1	-1E+10	1	-1E+10	1	-1E+10	1	-1E+10	1	-1E+10	1
4902549	87	C	01/08/2023	10:56	-133.302	47.619	0	181.60	0	6.9860	0	33.7470	0	26.436	0	180.003	0	153.7	4	51.9	4	-1E+10	1	-1E+10	1	-1E+10	1	-1E+10	1	-1E+10	1	-1E+10	1
4902549	87	C	01/08/2023	10:56	-133.302	47.619	0	182.60	0	6.9940	0	33.7520	0	26.439	0	180.994	0	152.5	4	51.5	4	-1E+10	1	-1E+10	1	-1E+10	1	-1E+10	1	-1E+10	1	-1E+10	1
4902549	87	C	01/08/2023	10:56	-133.302	47.619	0	183.70	0	6.9830	0	33.7650	0	26.451	0	182.084	0	151.7	4	51.2	4	-1E+10	1	-1E+10	1	-1E+10	1	-1E+10	1	-1E+10	1	-1E+10	1
4902549	87	C	01/08/2023	10:56	-133.302	47.619	0	184.70	0	6.9700	0	33.7730	0	26.459	0	183.075	0	151.2	4	51.0	4	-1E+10	1	-1E+10	1	-1E+10	1	-1E+10	1	-1E+10	1	-1E+10	1
4902549	87	C	01/08/2023	10:56	-133.302	47.619	0	185.70	0	6.9570	0	33.7760	0	26.463	0	184.065	0	150.7	4	50.8	4	-1E+10	1	-1E+10	1	-1E+10	1	-1E+10	1	-1E+10	1	-1E+10	1
4902549	87	C	01/08/2023	10:56	-133.302	47.619	0	186.80	0	6.9340	0	33.7740	0	26.465	0	185.155	0	150.1	4	50.6	4	-1E+10	1	-1E+10	1	-1E+10	1	-1E+10	1	-1E+10	1	-1E+10	1
4902549	87	C	01/08/2023	10:56	-133.302	47.619	0	187.80	0	6.9370	0	33.7770	0	26.467	0	186.146	0	149.4	4	50.4	4	-1E+10	1	-1E+10	1	-1E+10	1	-1E+10	1	-1E+10	1	-1E+10	1
4902549	87	C	01/08/2023	10:56	-133.302	47.619	0	188.90	0	6.9370	0	33.7780	0	26.467	0	187.236	0	148.7	4	50.1	4	-1E+10	1	-1E+10	1	-1E+10	1	-1E+10	1	-1E+10	1	-1E+10	1
4902549	87	C	01/08/2023	10:56	-133.302	47.619	0	189.90	0	6.9070	0	33.7860	0	26.478	0	188.226	0	148.0	4	49.9	4	-1E+10	1	-1E+10	1	-1E+10	1	-1E+10	1	-1E+10	1	-1E+10	1
4902549	87	C	01/08/2023	10:56	-133.302	47.619	0	191.00	0	6.8890	0	33.7890	0	26.482	0	189.316	0	147.4	4	49.7	4	-1E+10	1	-1E+10	1	-1E+10	1	-1E+10	1	-1E+10	1	-1E+10	1
4902549	87	C	01/08/2023	10:56	-133.302	47.619	0	192.00	0	6.8860	0	33.7880	0	26.482	0	190.307	0	146.8	4	49.5	4	-1E+10	1	-1E+10	1	-1E+10	1	-1E+10	1	-1E+10	1	-1E+10	1
4902549	87	C	01/08/2023	10:56	-133.302	47.619	0	193.10	0	6.8810	0	33.7890	0	26.484	0	191.397	0	146.1	4	49.2	4	-1E+10	1	-1E+10	1	-1E+10	1	-1E+10	1	-1E+10	1	-1E+10	1
4902549	87	C	01/08/2023	10:56	-133.302	47.619	0	194.20	0	6.8620	0	33.7920	0	26.489	0	192.487	0	145.4	4	49.0	4	-1E+10	1	-1E+10	1	-1E+10	1	-1E+10	1	-1E+10	1	-1E+10	1
4902549	87	C	01/08/2023	10:56	-133.302	47.619	0	195.30	0	6.8380	0	33.7940	0	26.493	0	193.576	0	145.0	4	48.8	4	-1E+10	1	-1E+10	1	-1E+10	1	-1E+10	1	-1E+10	1	-1E+10	1
4902549	87	C	01/08/2023	10:56	-133.302	47.619	0	196.30	0	6.8370	0	33.7940	0	26.493	0	194.567	0	144.3	4	48.6	4	-1E+10	1	-1E+10	1	-1E+10	1	-1E+10	1	-1E+10	1	-1E+10	1
4902549	87	C	01/08/2023	10:56	-133.302	47.619	0	197.40	0	6.8240	0	33.7960	0	26.497	0	195.657	0	143.8	4	48.4	4	-1E+10	1	-1E+10	1	-1E+10	1	-1E+10	1	-1E+10	1	-1E+10	1
4902549	87	C	01/08/2023	10:56	-133.302	47.619	0	198.50	0	6.8080	0	33.7970	0	26.500	0	196.747	0	143.1	4	48.1	4	-1E+10	1	-1E+10	1	-1E+10	1	-1E+10	1	-1E+10	1	-1E+10	1
4902549	87	C	01/08/2023	10:56	-133.302	47.619	0	199.60	0	6.7780	0	33.8020	0	26.508	0	197.836	0	142.7	4	47.9	4	-1E+10	1	-1E+10	1	-1E+10	1	-1E+10	1	-1E+10	1	-1E+10	1
4902549	87	C	01/08/2023	10:56	-133.302	47.619	0	200.80	0	6.7660	0	33.8030	0	26.510	0	199.025	0	142.2	4	47.8	4	-1E+10	1	-1E+10	1	-1E+10	1	-1E+10	1	-1E+10	1	-1E+10	1
4902549	87	C	01/08/2023	10:56	-133.302	47.619	0	201.90	0	6.7560	0	33.8040	0	26.512	0	200.115	0	141.7	4	47.6	4	-1E+10	1	-1E+10	1	-1E+10	1	-1E+10	1	-1E+10	1	-1E+10	1
4902549	87	C	01/08/2023	10:56	-133.302	47.619	0	203.00	0	6.7470	0	33.8050	0	26.514	0	201.205	0	141.2	4	47.4	4	-1E+10	1	-1E+10	1	-1E+10	1	-1E+10	1	-1E+10	1	-1E+10	1
4902549	87	C	01/08/2023	10:56	-133.302	47.619	0	204.10	0	6.7390	0	33.8050	0	26.515	0	202.294	0	140.8	4	47.3	4	-1E+10	1	-1E+10	1	-1E+10	1	-1E+10	1	-1E+10	1	-1E+10	1
4902549	87	C	01/08/2023	10:56	-133.302	47.619	0	205.20	0	6.7320	0	33.8060	0	26.517	0	203.384	0	140.3	4	47.1	4	-1E+10	1	-1E+10	1	-1E+10	1	-1E+10	1	-1E+10	1	-1E+10	1
4902549	87	C	01/08/2023	10:56	-133.302	47.619	0	206.30	0	6.7010	0	33.8070	0	26.522	0	204.474	0	139.9	4	46.9	4	-1E+10	1	-1E+10	1	-1E+10	1	-1E+10	1	-1E+10	1	-1E+10	1
4902549	87	C	01/08/2023	10:56	-133.302	47.619	0	207.40	0	6.6850	0	33.8090	0	26.526	0	205.564	0	139.5	4	46.8	4	-1E+10	1	-1E+10	1	-1E+10	1	-1E+10	1	-1E+10	1	-1E+10	1
4902549	87	C	01/08/2023	10:56	-133.302	47.619	0	208.50	0	6.6720	0	33.8100	0	26.528	0	206.653	0	139.1	4	46.6	4	-1E+10	1	-1E+10	1	-1E+10	1	-1E+10	1	-1E+10	1	-1E+10	1
4902549	87	C	01/08/2023	10:56	-133.302	47.619	0	209.70	0	6.6640	0	33.8110	0	26.530	0	207.842	0	138.7	4	46.5	4	-1E+10	1	-1E+10	1	-1E+10	1	-1E+10	1	-1E+10	1	-1E+10	1
4902549	87	C	01/08/2023	10:56	-133.302	47.619	0	210.80	0	6.6440	0	33.8160	0	26.537	0	208.932	0	138.4	4	46.4	4	-1E+10	1	-1E+10	1	-1E+10	1	-1E+10	1	-1E+10	1	-1E+10	1
4902549	87	C	01/08/2023	10:56	-133.302	47.619	0	212.00	0	6.6360	0	33.8130	0	26.535	0	210.120	0	138.2	4	46.3	4	-1E+10	1	-1E+10	1	-1E+10	1	-1E+10	1	-1E+10	1	-1E+10	1
4902549	87	C	01/08/2023	10:56	-133.302	47.619	0	213.10	0	6.6260	0	33.8140	0	26.538	0	211.210	0	137.8	4	46.2	4	-1E+10	1	-1E+10	1	-1E+10	1	-1E+10	1	-1E+10	1	-1E+10	1
4902549	87	C	01/08/2023	10:56	-133.302	47.619	0	214.20	0	6.6110	0	33.8150	0	26.540	0	212.300	0	137.5	4	46.0	4	-1E+10	1	-1E+10	1	-1E+10	1	-1E+10	1	-1E+10	1	-1E+10	1
4902549	87	C	01/08/2023	10:56	-133.302	47.619	0	215.40	0	6.6030	0	33.8150	0	26.541	0	213.489	0	137.2	4	45.9	4	-1E+10	1	-1E+10	1	-1E+10	1	-1E+10	1	-1E+10	1	-1E+10	1
4902549	87	C	01/08/2023	10:56	-133.302	47.619	0	216.50	0	6.5960	0	33.8150	0	26.542	0	214.578	0	136.9	4	45.8	4	-1E+10	1	-1E+10	1	-1E+10	1	-1E+10	1	-1E+10	1	-1E+10	1
4902549	87	C	01/08/2023	10:56	-133.302	47.619	0	217.70	0	6.5900	0	33.8150	0	26.543	0	215.767	0	136.5	4	45.7	4	-1E+10	1	-1E+10	1	-1E+10	1	-1E+10	1	-1E+10	1	-1E+10	1
4902549	87	C	01/08/2023	10:56	-133.302	47.619	0	218.80	0	6.5820	0	33.8130	0	26.543	0	216.857	0	136.0	4	45.5	4	-1E+10	1	-1E+10	1	-1E+10	1	-1E+10	1	-1E+10	1	-1E+10	1
4902549	87	C	01/08/2023	10:56	-133.302	47.619	0	220.00	0	6.5400	0	33.8280	0	26.560	0	218.045	0	135.3	4	45.2	4	-1E+10	1	-1E+10	1	-1E+10	1	-1E+10	1	-1E+10	1	-1E+10	1
4902549	87	C	01/08/2023	10:56	-133.302	47.619	0	221.10	0	6.4670	0	33.8170	0	26.561	0	219.135	0	134.7	4	45.0	4	-1E+10	1	-1E+10	1	-1E+10	1	-1E+10	1	-1E+10	1	-1E+10	1
4902549	87	C	01/08/2023	10:56	-133.302	47.619	0	222.20	0	6.4570	0	33.8170	0	26.562	0	220.225	0	134.1	4	44.7	4	-1E+10	1	-1E+10	1	-1E+10	1	-1E+10	1	-1E+10	1	-1E+10	1
4902549	87	C	01/08/2023	10:56	-133.302	47.619	0	223.40	0	6.4450	0	33.8150	0	26.562	0	221.413	0	133.4	4	44.5	4	-1E+10	1	-1E+10	1	-1E+10	1	-1E+10	1	-1E+10	1	-1E+10	1
4902549	87	C	01/08/2023	10:56	-133.302	47.619	0	224.50	0	6.4130	0	33.8210	0	26.571	0	222.503	0	132.9	4	44.3	4	-1E+10	1	-1E+10	1	-1E+10	1	-1E+10	1	-1E+10	1	-1E+10	1
4902549	87	C	01/08/2023	10:56	-133.302	47.619	0	225.70	0	6.3920	0	33.8190	0	26.572	0	223.692	0	132.5	4	44.2	4	-1E+10	1	-1E+10	1	-1E+10	1	-1E+10	1	-1E+10	1	-1E+10	1
4902549	87	C	01/08/2023	10:56	-133.302	47.619	0	226.80	0	6.3810	0	33.8190	0	26.574	0	224.781	0	132.1	4	44.0	4	-1E+10	1	-1E+10	1	-1E+10	1	-1E+10	1	-1E+10	1	-1E+10	1
4902549	87	C	01/08/2023	10:56	-133.302	47.619	0	227.90	0	6.3730	0	33.8180	0	26.574	0	225.871	0	131.5	4	43.8	4	-1E+10	1	-1E+10	1	-1E+10	1	-1E+10	1	-1E+10	1	-1E+10	1
4902549	87	C	01/08/2023	10:56	-133.302	47.619	0	229.00	0	6.3530	0	33.8180	0	26.576	0	226.960	0	131.0	4	43.6	4	-1E+10	1	-1E+10	1	-1E+10	1	-1E+10	1	-1E+10	1	-1E+10	1
4902549	87	C	01/08/2023	10:56	-133.302	47.619	0	230.20	0	6.2920	0	33.8230	0	26.588	0	228.149	0	130.6	4	43.4	4	-1E+10	1	-1E+10	1	-1E+10	1	-1E+10	1	-1E+10	1	-1E+10	1
4902549	87	C	01/08/2023	10:56	-133.302	47.619	0	231.30	0	6.2390	0	33.8230	0	26.595	0	229.239	0	130.4	4	43.3	4	-1E+10	1	-1E+10	1	-1E+10	1	-1E+10	1	-1E+10	1	-1E+10	1
4902549	87	C	01/08/2023	10:56	-133.302	47.619	0	232.50	0	6.2220	0	33.8200	0	26.595	0	230.427	0	130.1	4	43.2	4	-1E+10	1	-1E+10	1	-1E+10	1	-1E+10	1	-1E+10	1	-1E+10	1
4902549	87	C	01/08/2023	10:56	-133.302	47.619	0	233.60	0	6.2130	0	33.8200	0	26.596	0	231.517	0	129.7	4	43.0	4	-1E+10	1	-1E+10	1	-1E+10	1	-1E+10	1	-1E+10	1	-1E+10	1
4902549	87	C	01/08/2023	10:56	-133.302	47.619	0	234.70	0	6.1930	0	33.8200	0	26.599	0	232.606	0	129.4	4	42.9	4	-1E+10	1	-1E+10	1	-1E+10	1	-1E+10	1	-1E+10	1	-1E+10	1
4902549	87	C	01/08/2023	10:56	-133.302	47.619	0	235.80	0	6.1840	0	33.8210	0	26.601	0	233.696	0	129.0	4	42.8	4	-1E+10	1	-1E+10	1	-1E+10	1	-1E+10	1	-1E+10	1	-1E+10	1
4902549	87	C	01/08/2023	10:56	-133.302	47.619	0	237.00	0	6.1800	0	33.8200	0	26.600	0	234.885	0	128.7	4	42.7	4	-1E+10	1	-1E+10	1	-1E+10	1	-1E+10	1	-1E+10	1	-1E+10	1
4902549	87	C	01/08/2023	10:56	-133.302	47.619	0	238.10	0	6.1680	0	33.8200	0	26.602	0	235.974	0	128.3	4	42.5	4	-1E+10	1	-1E+10	1	-1E+10	1	-1E+10	1	-1E+10	1	-1E+10	1
4902549	87	C	01/08/2023	10:56	-133.302	47.619	0	239.20	0	6.1480	0	33.8190	0	26.604	0	237.064	0	127.9	4	42.4	4	-1E+10	1	-1E+10	1	-1E+10	1	-1E+10	1	-1E+10	1	-1E+10	1
4902549	87	C	01/08/2023	10:56	-133.302	47.619	0	240.30	0	6.0980	0	33.8210	0	26.611	0	238.153	0	127.6	4	42.2	4	-1E+10	1	-1E+10	1	-1E+10	1	-1E+10	1	-1E+10	1	-1E+10	1
4902549	87	C	01/08/2023	10:56	-133.302	47.619	0	241.40	0	6.0920	0	33.8180	0	26.610	0	239.243	0	127.3	4	42.1	4	-1E+10	1	-1E+10	1	-1E+10	1	-1E+10	1	-1E+10	1	-1E+10	1
4902549	87	C	01/08/2023	10:56	-133.302	47.619	0	242.50	0	6.0900	0	33.8180	0	26.610	0	240.332	0	126.8	4	42.0	4	-1E+10	1	-1E+10	1	-1E+10	1	-1E+10	1	-1E+10	1	-1E+10	1
4902549	87	C	01/08/2023	10:56	-133.302	47.619	0	243.70	0	6.0700	0	33.8200	0	26.614	0	241.521	0	126.4	4	41.8	4	-1E+10	1	-1E+10	1	-1E+10	1	-1E+10	1	-1E+10	1	-1E+10	1
4902549	87	C	01/08/2023	10:56	-133.302	47.619	0	244.70	0	6.0360	0	33.8170	0	26.616	0	242.511	0	125.9	4	41.6	4	-1E+10	1	-1E+10	1	-1E+10	1	-1E+10	1	-1E+10	1	-1E+10	1
4902549	87	C	01/08/2023	10:56	-133.302	47.619	0	245.80	0	6.0210	0	33.8160	0	26.617	0	243.601	0	125.4	4	41.4	4	-1E+10	1	-1E+10	1	-1E+10	1	-1E+10	1	-1E+10	1	-1E+10	1
4902549	87	C	01/08/2023	10:56	-133.302	47.619	0	246.90	0	5.9970	0	33.8150	0	26.619	0	244.690	0	124.9	4	41.2	4	-1E+10	1	-1E+10	1	-1E+10	1	-1E+10	1	-1E+10	1	-1E+10	1
4902549	87	C	01/08/2023	10:56	-133.302	47.619	0	247.90	0	5.9870	0	33.8190	0	26.624	0	245.681	0	124.3	4	41.0	4	-1E+10	1	-1E+10	1	-1E+10	1	-1E+10	1	-1E+10	1	-1E+10	1
4902549	87	C	01/08/2023	10:56	-133.302	47.619	0	249.00	0	5.9850	0	33.8180	0	26.623	0	246.770	0	123.8	4	40.9	4	-1E+10	1	-1E+10	1	-1E+10	1	-1E+10	1	-1E+10	1	-1E+10	1
4902549	87	C	01/08/2023	10:56	-133.302	47.619	0	250.10	0	5.9820	0	33.8180	0	26.624	0	247.860	0	123.2	4	40.6	4	-1E+10	1	-1E+10	1	-1E+10	1	-1E+10	1	-1E+10	1	-1E+10	1
4902549	87	C	01/08/2023	10:56	-133.302	47.619	0	251.10	0	5.9680	0	33.8180	0	26.625	0	248.850	0	122.6	4	40.4	4	-1E+10	1	-1E+10	1	-1E+10	1	-1E+10	1	-1E+10	1	-1E+10	1
4902549	87	C	01/08/2023	10:56	-133.302	47.619	0	252.20	0	5.9460	0	33.8190	0	26.629	0	249.940	0	122.1	4	40.3	4	-1E+10	1	-1E+10	1	-1E+10	1	-1E+10	1	-1E+10	1	-1E+10	1
4902549	87	C	01/08/2023	10:56	-133.302	47.619	0	253.30	0	5.9410	0	33.8190	0	26.630	0	251.029	0	121.5	4	40.1	4	-1E+10	1	-1E+10	1	-1E+10	1	-1E+10	1	-1E+10	1	-1E+10	1
4902549	87	C	01/08/2023	10:56	-133.302	47.619	0	254.30	0	5.9260	0	33.8200	0	26.632	0	252.020	0	121.0	4	39.9	4	-1E+10	1	-1E+10	1	-1E+10	1	-1E+10	1	-1E+10	1	-1E+10	1
4902549	87	C	01/08/2023	10:56	-133.302	47.619	0	255.30	0	5.9090	0	33.8160	0	26.631	0	253.010	0	120.5	4	39.7	4	-1E+10	1	-1E+10	1	-1E+10	1	-1E+10	1	-1E+10	1	-1E+10	1
4902549	87	C	01/08/2023	10:56	-133.302	47.619	0	256.40	0	5.8620	0	33.8240	0	26.643	0	254.100	0	120.1	4	39.5	4	-1E+10	1	-1E+10	1	-1E+10	1	-1E+10	1	-1E+10	1	-1E+10	1
4902549	87	C	01/08/2023	10:56	-133.302	47.619	0	257.40	0	5.8250	0	33.8160	0	26.642	0	255.090	0	119.7	4	39.4	4	-1E+10	1	-1E+10	1	-1E+10	1	-1E+10	1	-1E+10	1	-1E+10	1
4902549	87	C	01/08/2023	10:56	-133.302	47.619	0	258.50	0	5.8120	0	33.8210	0	26.647	0	256.179	0	119.3	4	39.2	4	-1E+10	1	-1E+10	1	-1E+10	1	-1E+10	1	-1E+10	1	-1E+10	1
4902549	87	C	01/08/2023	10:56	-133.302	47.619	0	259.50	0	5.7970	0	33.8220	0	26.650	0	257.170	0	119.0	4	39.1	4	-1E+10	1	-1E+10	1	-1E+10	1	-1E+10	1	-1E+10	1	-1E+10	1
4902549	87	C	01/08/2023	10:56	-133.302	47.619	0	260.60	0	5.7770	0	33.8220	0	26.652	0	258.259	0	118.8	4	39.0	4	-1E+10	1	-1E+10	1	-1E+10	1	-1E+10	1	-1E+10	1	-1E+10	1
4902549	87	C	01/08/2023	10:56	-133.302	47.619	0	261.60	0	5.7710	0	33.8240	0	26.655	0	259.250	0	118.4	4	38.9	4	-1E+10	1	-1E+10	1	-1E+10	1	-1E+10	1	-1E+10	1	-1E+10	1
4902549	87	C	01/08/2023	10:56	-133.302	47.619	0	262.60	0	5.7540	0	33.8200	0	26.654	0	260.240	0	118.1	4	38.8	4	-1E+10	1	-1E+10	1	-1E+10	1	-1E+10	1	-1E+10	1	-1E+10	1
4902549	87	C	01/08/2023	10:56	-133.302	47.619	0	263.70	0	5.7310	0	33.8180	0	26.655	0	261.329	0	117.7	4	38.6	4	-1E+10	1	-1E+10	1	-1E+10	1	-1E+10	1	-1E+10	1	-1E+10	1
4902549	87	C	01/08/2023	10:56	-133.302	47.619	0	264.60	0	5.6930	0	33.8150	0	26.657	0	262.221	0	117.3	4	38.4	4	-1E+10	1	-1E+10	1	-1E+10	1	-1E+10	1	-1E+10	1	-1E+10	1
4902549	87	C	01/08/2023	10:56	-133.302	47.619	0	265.70	0	5.6840	0	33.8140	0	26.657	0	263.310	0	116.7	4	38.2	4	-1E+10	1	-1E+10	1	-1E+10	1	-1E+10	1	-1E+10	1	-1E+10	1
4902549	87	C	01/08/2023	10:56	-133.302	47.619	0	266.90	0	5.6790	0	33.8180	0	26.661	0	264.499	0	115.9	4	38.0	4	-1E+10	1	-1E+10	1	-1E+10	1	-1E+10	1	-1E+10	1	-1E+10	1
4902549	87	C	01/08/2023	10:56	-133.302	47.619	0	268.10	0	5.6480	0	33.8160	0	26.663	0	265.687	0	115.0	4	37.7	4	-1E+10	1	-1E+10	1	-1E+10	1	-1E+10	1	-1E+10	1	-1E+10	1
4902549	87	C	01/08/2023	10:56	-133.302	47.619	0	268.80	0	5.6410	0	33.8130	0	26.662	0	266.380	0	114.3	4	37.4	4	-1E+10	1	-1E+10	1	-1E+10	1	-1E+10	1	-1E+10	1	-1E+10	1
4902549	87	C	01/08/2023	10:56	-133.302	47.619	0	269.80	0	5.6490	0	33.8160	0	26.663	0	267.371	0	113.5	4	37.2	4	-1E+10	1	-1E+10	1	-1E+10	1	-1E+10	1	-1E+10	1	-1E+10	1
4902549	87	C	01/08/2023	10:56	-133.302	47.619	0	270.90	0	5.6450	0	33.8190	0	26.666	0	268.460	0	112.5	4	36.8	4	-1E+10	1	-1E+10	1	-1E+10	1	-1E+10	1	-1E+10	1	-1E+10	1
4902549	87	C	01/08/2023	10:56	-133.302	47.619	0	272.10	0	5.6330	0	33.8200	0	26.668	0	269.648	0	111.5	4	36.5	4	-1E+10	1	-1E+10	1	-1E+10	1	-1E+10	1	-1E+10	1	-1E+10	1
4902549	87	C	01/08/2023	10:56	-133.302	47.619	0	272.90	0	5.6420	0	33.8280	0	26.674	0	270.441	0	111.1	4	36.4	4	-1E+10	1	-1E+10	1	-1E+10	1	-1E+10	1	-1E+10	1	-1E+10	1
4902549	87	C	01/08/2023	10:56	-133.302	47.619	0	273.70	0	5.6000	0	33.8270	0	26.678	0	271.233	0	110.7	4	36.2	4	-1E+10	1	-1E+10	1	-1E+10	1	-1E+10	1	-1E+10	1	-1E+10	1
4902549	87	C	01/08/2023	10:56	-133.302	47.619	0	274.90	0	5.5890	0	33.8270	0	26.679	0	272.421	0	110.1	4	36.0	4	-1E+10	1	-1E+10	1	-1E+10	1	-1E+10	1	-1E+10	1	-1E+10	1
4902549	87	C	01/08/2023	10:56	-133.302	47.619	0	276.10	0	5.6020	0	33.8310	0	26.681	0	273.610	0	109.8	4	35.9	4	-1E+10	1	-1E+10	1	-1E+10	1	-1E+10	1	-1E+10	1	-1E+10	1
4902549	87	C	01/08/2023	10:56	-133.302	47.619	0	276.90	0	5.5780	0	33.8280	0	26.681	0	274.402	0	109.8	4	35.9	4	-1E+10	1	-1E+10	1	-1E+10	1	-1E+10	1	-1E+10	1	-1E+10	1
4902549	87	C	01/08/2023	10:56	-133.302	47.619	0	277.70	0	5.5460	0	33.8270	0	26.684	0	275.194	0	109.6	4	35.8	4	-1E+10	1	-1E+10	1	-1E+10	1	-1E+10	1	-1E+10	1	-1E+10	1
4902549	87	C	01/08/2023	10:56	-133.302	47.619	0	278.90	0	5.4920	0	33.8260	0	26.690	0	276.383	0	109.1	4	35.6	4	-1E+10	1	-1E+10	1	-1E+10	1	-1E+10	1	-1E+10	1	-1E+10	1
4902549	87	C	01/08/2023	10:56	-133.302	47.619	0	280.10	0	5.4480	0	33.8210	0	26.691	0	277.571	0	108.5	4	35.4	4	-1E+10	1	-1E+10	1	-1E+10	1	-1E+10	1	-1E+10	1	-1E+10	1
4902549	87	C	01/08/2023	10:56	-133.302	47.619	0	280.90	0	5.4470	0	33.8220	0	26.692	0	278.363	0	107.9	4	35.2	4	-1E+10	1	-1E+10	1	-1E+10	1	-1E+10	1	-1E+10	1	-1E+10	1
4902549	87	C	01/08/2023	10:56	-133.302	47.619	0	281.70	0	5.4620	0	33.8260	0	26.694	0	279.156	0	107.3	4	35.0	4	-1E+10	1	-1E+10	1	-1E+10	1	-1E+10	1	-1E+10	1	-1E+10	1
4902549	87	C	01/08/2023	10:56	-133.302	47.619	0	282.90	0	5.4390	0	33.8230	0	26.694	0	280.344	0	106.5	4	34.7	4	-1E+10	1	-1E+10	1	-1E+10	1	-1E+10	1	-1E+10	1	-1E+10	1
4902549	87	C	01/08/2023	10:56	-133.302	47.619	0	284.10	0	5.4120	0	33.8220	0	26.696	0	281.532	0	105.5	4	34.3	4	-1E+10	1	-1E+10	1	-1E+10	1	-1E+10	1	-1E+10	1	-1E+10	1
4902549	87	C	01/08/2023	10:56	-133.302	47.619	0	284.90	0	5.3910	0	33.8200	0	26.697	0	282.324	0	104.6	4	34.1	4	-1E+10	1	-1E+10	1	-1E+10	1	-1E+10	1	-1E+10	1	-1E+10	1
4902549	87	C	01/08/2023	10:56	-133.302	47.619	0	285.80	0	5.3850	0	33.8220	0	26.700	0	283.216	0	103.7	4	33.7	4	-1E+10	1	-1E+10	1	-1E+10	1	-1E+10	1	-1E+10	1	-1E+10	1
4902549	87	C	01/08/2023	10:56	-133.302	47.619	0	287.00	0	5.3880	0	33.8260	0	26.702	0	284.404	0	102.2	4	33.3	4	-1E+10	1	-1E+10	1	-1E+10	1	-1E+10	1	-1E+10	1	-1E+10	1
4902549	87	C	01/08/2023	10:56	-133.302	47.619	0	288.20	0	5.4800	0	33.8410	0	26.703	0	285.592	0	101.1	4	33.0	4	-1E+10	1	-1E+10	1	-1E+10	1	-1E+10	1	-1E+10	1	-1E+10	1
4902549	87	C	01/08/2023	10:56	-133.302	47.619	0	289.10	0	5.4810	0	33.8420	0	26.704	0	286.484	0	100.5	4	32.8	4	-1E+10	1	-1E+10	1	-1E+10	1	-1E+10	1	-1E+10	1	-1E+10	1
4902549	87	C	01/08/2023	10:56	-133.302	47.619	0	289.90	0	5.4560	0	33.8380	0	26.704	0	287.276	0	100.1	4	32.6	4	-1E+10	1	-1E+10	1	-1E+10	1	-1E+10	1	-1E+10	1	-1E+10	1
4902549	87	C	01/08/2023	10:56	-133.302	47.619	0	290.70	0	5.4720	0	33.8460	0	26.708	0	288.068	0	99.6	4	32.5	4	-1E+10	1	-1E+10	1	-1E+10	1	-1E+10	1	-1E+10	1	-1E+10	1
4902549	87	C	01/08/2023	10:56	-133.302	47.619	0	292.00	0	5.4510	0	33.8450	0	26.710	0	289.355	0	98.9	4	32.2	4	-1E+10	1	-1E+10	1	-1E+10	1	-1E+10	1	-1E+10	1	-1E+10	1
4902549	87	C	01/08/2023	10:56	-133.302	47.619	0	293.20	0	5.4830	0	33.8530	0	26.713	0	290.544	0	98.4	4	32.1	4	-1E+10	1	-1E+10	1	-1E+10	1	-1E+10	1	-1E+10	1	-1E+10	1
4902549	87	C	01/08/2023	10:56	-133.302	47.619	0	294.10	0	5.4980	0	33.8560	0	26.713	0	291.435	0	98.3	4	32.1	4	-1E+10	1	-1E+10	1	-1E+10	1	-1E+10	1	-1E+10	1	-1E+10	1
4902549	87	C	01/08/2023	10:56	-133.302	47.619	0	294.90	0	5.4940	0	33.8570	0	26.714	0	292.227	0	98.3	4	32.1	4	-1E+10	1	-1E+10	1	-1E+10	1	-1E+10	1	-1E+10	1	-1E+10	1
4902549	87	C	01/08/2023	10:56	-133.302	47.619	0	295.70	0	5.4570	0	33.8610	0	26.722	0	293.019	0	98.3	4	32.0	4	-1E+10	1	-1E+10	1	-1E+10	1	-1E+10	1	-1E+10	1	-1E+10	1
4902549	87	C	01/08/2023	10:56	-133.302	47.619	0	297.00	0	5.4320	0	33.8490	0	26.715	0	294.306	0	98.0	4	31.9	4	-1E+10	1	-1E+10	1	-1E+10	1	-1E+10	1	-1E+10	1	-1E+10	1
4902549	87	C	01/08/2023	10:56	-133.302	47.619	0	298.30	0	5.3570	0	33.8510	0	26.726	0	295.594	0	97.7	4	31.8	4	-1E+10	1	-1E+10	1	-1E+10	1	-1E+10	1	-1E+10	1	-1E+10	1
4902549	87	C	01/08/2023	10:56	-133.302	47.619	0	299.10	0	5.3070	0	33.8430	0	26.725	0	296.386	0	97.6	4	31.7	4	-1E+10	1	-1E+10	1	-1E+10	1	-1E+10	1	-1E+10	1	-1E+10	1
4902549	87	C	01/08/2023	10:56	-133.302	47.619	0	300.00	0	5.3090	0	33.8420	0	26.724	0	297.277	0	97.3	4	31.6	4	-1E+10	1	-1E+10	1	-1E+10	1	-1E+10	1	-1E+10	1	-1E+10	1
4902549	87	C	01/08/2023	10:56	-133.302	47.619	0	300.80	0	5.3290	0	33.8470	0	26.726	0	298.069	0	97.2	4	31.6	4	-1E+10	1	-1E+10	1	-1E+10	1	-1E+10	1	-1E+10	1	-1E+10	1
4902549	87	C	01/08/2023	10:56	-133.302	47.619	0	301.70	0	5.3340	0	33.8490	0	26.727	0	298.960	0	97.1	4	31.6	4	-1E+10	1	-1E+10	1	-1E+10	1	-1E+10	1	-1E+10	1	-1E+10	1
4902549	87	C	01/08/2023	10:56	-133.302	47.619	0	302.90	0	5.3070	0	33.8480	0	26.729	0	300.149	0	96.9	4	31.5	4	-1E+10	1	-1E+10	1	-1E+10	1	-1E+10	1	-1E+10	1	-1E+10	1
4902549	87	C	01/08/2023	10:56	-133.302	47.619	0	304.20	0	5.2880	0	33.8450	0	26.729	0	301.436	0	96.8	4	31.4	4	-1E+10	1	-1E+10	1	-1E+10	1	-1E+10	1	-1E+10	1	-1E+10	1
4902549	87	C	01/08/2023	10:56	-133.302	47.619	0	305.10	0	5.2760	0	33.8430	0	26.729	0	302.327	0	96.6	4	31.4	4	-1E+10	1	-1E+10	1	-1E+10	1	-1E+10	1	-1E+10	1	-1E+10	1
4902549	87	C	01/08/2023	10:56	-133.302	47.619	0	306.00	0	5.2630	0	33.8420	0	26.730	0	303.218	0	96.4	4	31.3	4	-1E+10	1	-1E+10	1	-1E+10	1	-1E+10	1	-1E+10	1	-1E+10	1
4902549	87	C	01/08/2023	10:56	-133.302	47.619	0	306.80	0	5.2470	0	33.8410	0	26.731	0	304.010	0	96.0	4	31.2	4	-1E+10	1	-1E+10	1	-1E+10	1	-1E+10	1	-1E+10	1	-1E+10	1
4902549	87	C	01/08/2023	10:56	-133.302	47.619	0	307.70	0	5.1970	0	33.8390	0	26.735	0	304.902	0	95.7	4	31.0	4	-1E+10	1	-1E+10	1	-1E+10	1	-1E+10	1	-1E+10	1	-1E+10	1
4902549	87	C	01/08/2023	10:56	-133.302	47.619	0	308.90	0	5.1950	0	33.8350	0	26.732	0	306.090	0	94.8	4	30.7	4	-1E+10	1	-1E+10	1	-1E+10	1	-1E+10	1	-1E+10	1	-1E+10	1
4902549	87	C	01/08/2023	10:56	-133.302	47.619	0	310.30	0	5.1830	0	33.8430	0	26.740	0	307.476	0	93.7	4	30.4	4	-1E+10	1	-1E+10	1	-1E+10	1	-1E+10	1	-1E+10	1	-1E+10	1
4902549	87	C	01/08/2023	10:56	-133.302	47.619	0	311.10	0	5.1720	0	33.8360	0	26.736	0	308.268	0	93.0	4	30.1	4	-1E+10	1	-1E+10	1	-1E+10	1	-1E+10	1	-1E+10	1	-1E+10	1
4902549	87	C	01/08/2023	10:56	-133.302	47.619	0	312.00	0	5.1840	0	33.8400	0	26.737	0	309.159	0	92.3	4	29.9	4	-1E+10	1	-1E+10	1	-1E+10	1	-1E+10	1	-1E+10	1	-1E+10	1
4902549	87	C	01/08/2023	10:56	-133.302	47.619	0	312.80	0	5.1950	0	33.8430	0	26.739	0	309.951	0	91.7	4	29.7	4	-1E+10	1	-1E+10	1	-1E+10	1	-1E+10	1	-1E+10	1	-1E+10	1
4902549	87	C	01/08/2023	10:56	-133.302	47.619	0	313.70	0	5.1900	0	33.8480	0	26.743	0	310.842	0	91.3	4	29.6	4	-1E+10	1	-1E+10	1	-1E+10	1	-1E+10	1	-1E+10	1	-1E+10	1
4902549	87	C	01/08/2023	10:56	-133.302	47.619	0	314.90	0	5.1950	0	33.8490	0	26.743	0	312.031	0	90.8	4	29.4	4	-1E+10	1	-1E+10	1	-1E+10	1	-1E+10	1	-1E+10	1	-1E+10	1
4902549	87	C	01/08/2023	10:56	-133.302	47.619	0	316.20	0	5.1870	0	33.8500	0	26.745	0	313.318	0	90.3	4	29.3	4	-1E+10	1	-1E+10	1	-1E+10	1	-1E+10	1	-1E+10	1	-1E+10	1
4902549	87	C	01/08/2023	10:56	-133.302	47.619	0	317.10	0	5.1770	0	33.8490	0	26.745	0	314.209	0	90.0	4	29.1	4	-1E+10	1	-1E+10	1	-1E+10	1	-1E+10	1	-1E+10	1	-1E+10	1
4902549	87	C	01/08/2023	10:56	-133.302	47.619	0	317.90	0	5.0900	0	33.8570	0	26.762	0	315.001	0	89.7	4	29.0	4	-1E+10	1	-1E+10	1	-1E+10	1	-1E+10	1	-1E+10	1	-1E+10	1
4902549	87	C	01/08/2023	10:56	-133.302	47.619	0	318.80	0	5.0390	0	33.8430	0	26.756	0	315.892	0	89.3	4	28.8	4	-1E+10	1	-1E+10	1	-1E+10	1	-1E+10	1	-1E+10	1	-1E+10	1
4902549	87	C	01/08/2023	10:56	-133.302	47.619	0	319.70	0	5.0300	0	33.8420	0	26.757	0	316.783	0	88.9	4	28.7	4	-1E+10	1	-1E+10	1	-1E+10	1	-1E+10	1	-1E+10	1	-1E+10	1
4902549	87	C	01/08/2023	10:56	-133.302	47.619	0	320.90	0	5.0120	0	33.8440	0	26.760	0	317.971	0	88.2	4	28.5	4	-1E+10	1	-1E+10	1	-1E+10	1	-1E+10	1	-1E+10	1	-1E+10	1
4902549	87	C	01/08/2023	10:56	-133.302	47.619	0	322.30	0	5.0090	0	33.8460	0	26.762	0	319.358	0	87.5	4	28.2	4	-1E+10	1	-1E+10	1	-1E+10	1	-1E+10	1	-1E+10	1	-1E+10	1
4902549	87	C	01/08/2023	10:56	-133.302	47.619	0	323.10	0	5.0100	0	33.8460	0	26.762	0	320.150	0	87.0	4	28.1	4	-1E+10	1	-1E+10	1	-1E+10	1	-1E+10	1	-1E+10	1	-1E+10	1
4902549	87	C	01/08/2023	10:56	-133.302	47.619	0	324.00	0	5.0260	0	33.8510	0	26.764	0	321.041	0	86.5	4	27.9	4	-1E+10	1	-1E+10	1	-1E+10	1	-1E+10	1	-1E+10	1	-1E+10	1
4902549	87	C	01/08/2023	10:56	-133.302	47.619	0	324.90	0	5.0310	0	33.8600	0	26.771	0	321.932	0	86.2	4	27.8	4	-1E+10	1	-1E+10	1	-1E+10	1	-1E+10	1	-1E+10	1	-1E+10	1
4902549	87	C	01/08/2023	10:56	-133.302	47.619	0	325.70	0	5.0170	0	33.8580	0	26.771	0	322.724	0	86.0	4	27.8	4	-1E+10	1	-1E+10	1	-1E+10	1	-1E+10	1	-1E+10	1	-1E+10	1
4902549	87	C	01/08/2023	10:56	-133.302	47.619	0	326.60	0	5.0170	0	33.8570	0	26.770	0	323.615	0	85.7	4	27.7	4	-1E+10	1	-1E+10	1	-1E+10	1	-1E+10	1	-1E+10	1	-1E+10	1
4902549	87	C	01/08/2023	10:56	-133.302	47.619	0	327.90	0	5.0130	0	33.8560	0	26.770	0	324.902	0	85.2	4	27.5	4	-1E+10	1	-1E+10	1	-1E+10	1	-1E+10	1	-1E+10	1	-1E+10	1
4902549	87	C	01/08/2023	10:56	-133.302	47.619	0	329.30	0	5.0140	0	33.8540	0	26.768	0	326.288	0	84.7	4	27.3	4	-1E+10	1	-1E+10	1	-1E+10	1	-1E+10	1	-1E+10	1	-1E+10	1
4902549	87	C	01/08/2023	10:56	-133.302	47.619	0	330.20	0	5.0150	0	33.8640	0	26.776	0	327.179	0	84.5	4	27.3	4	-1E+10	1	-1E+10	1	-1E+10	1	-1E+10	1	-1E+10	1	-1E+10	1
4902549	87	C	01/08/2023	10:56	-133.302	47.619	0	331.10	0	5.0080	0	33.8630	0	26.776	0	328.070	0	84.3	4	27.2	4	-1E+10	1	-1E+10	1	-1E+10	1	-1E+10	1	-1E+10	1	-1E+10	1
4902549	87	C	01/08/2023	10:56	-133.302	47.619	0	332.00	0	5.0280	0	33.8660	0	26.776	0	328.961	0	84.2	4	27.2	4	-1E+10	1	-1E+10	1	-1E+10	1	-1E+10	1	-1E+10	1	-1E+10	1
4902549	87	C	01/08/2023	10:56	-133.302	47.619	0	332.80	0	5.0270	0	33.8670	0	26.777	0	329.753	0	84.2	4	27.2	4	-1E+10	1	-1E+10	1	-1E+10	1	-1E+10	1	-1E+10	1	-1E+10	1
4902549	87	C	01/08/2023	10:56	-133.302	47.619	0	333.70	0	4.9780	0	33.8640	0	26.780	0	330.644	0	84.1	4	27.1	4	-1E+10	1	-1E+10	1	-1E+10	1	-1E+10	1	-1E+10	1	-1E+10	1
4902549	87	C	01/08/2023	10:56	-133.302	47.619	0	334.70	0	4.9820	0	33.8570	0	26.774	0	331.634	0	84.0	4	27.1	4	-1E+10	1	-1E+10	1	-1E+10	1	-1E+10	1	-1E+10	1	-1E+10	1
4902549	87	C	01/08/2023	10:56	-133.302	47.619	0	335.60	0	4.9830	0	33.8600	0	26.776	0	332.525	0	83.8	4	27.0	4	-1E+10	1	-1E+10	1	-1E+10	1	-1E+10	1	-1E+10	1	-1E+10	1
4902549	87	C	01/08/2023	10:56	-133.302	47.619	0	336.90	0	4.9330	0	33.8780	0	26.796	0	333.812	0	83.5	4	26.9	4	-1E+10	1	-1E+10	1	-1E+10	1	-1E+10	1	-1E+10	1	-1E+10	1
4902549	87	C	01/08/2023	10:56	-133.302	47.619	0	338.30	0	4.9160	0	33.8560	0	26.781	0	335.198	0	83.0	4	26.7	4	-1E+10	1	-1E+10	1	-1E+10	1	-1E+10	1	-1E+10	1	-1E+10	1
4902549	87	C	01/08/2023	10:56	-133.302	47.619	0	339.20	0	4.9140	0	33.8620	0	26.786	0	336.090	0	82.5	4	26.6	4	-1E+10	1	-1E+10	1	-1E+10	1	-1E+10	1	-1E+10	1	-1E+10	1
4902549	87	C	01/08/2023	10:56	-133.302	47.619	0	340.10	0	4.9180	0	33.8580	0	26.782	0	336.981	0	82.0	4	26.4	4	-1E+10	1	-1E+10	1	-1E+10	1	-1E+10	1	-1E+10	1	-1E+10	1
4902549	87	C	01/08/2023	10:56	-133.302	47.619	0	341.00	0	4.9210	0	33.8580	0	26.782	0	337.872	0	81.4	4	26.2	4	-1E+10	1	-1E+10	1	-1E+10	1	-1E+10	1	-1E+10	1	-1E+10	1
4902549	87	C	01/08/2023	10:56	-133.302	47.619	0	342.00	0	4.9180	0	33.8610	0	26.785	0	338.862	0	80.8	4	26.0	4	-1E+10	1	-1E+10	1	-1E+10	1	-1E+10	1	-1E+10	1	-1E+10	1
4902549	87	C	01/08/2023	10:56	-133.302	47.619	0	342.90	0	4.9370	0	33.8610	0	26.783	0	339.753	0	80.2	4	25.8	4	-1E+10	1	-1E+10	1	-1E+10	1	-1E+10	1	-1E+10	1	-1E+10	1
4902549	87	C	01/08/2023	10:56	-133.302	47.619	0	343.80	0	4.9430	0	33.8630	0	26.783	0	340.644	0	79.6	4	25.6	4	-1E+10	1	-1E+10	1	-1E+10	1	-1E+10	1	-1E+10	1	-1E+10	1
4902549	87	C	01/08/2023	10:56	-133.302	47.619	0	344.70	0	4.9340	0	33.8660	0	26.787	0	341.535	0	78.9	4	25.4	4	-1E+10	1	-1E+10	1	-1E+10	1	-1E+10	1	-1E+10	1	-1E+10	1
4902549	87	C	01/08/2023	10:56	-133.302	47.619	0	345.60	0	4.9110	0	33.8650	0	26.789	0	342.426	0	78.0	4	25.1	4	-1E+10	1	-1E+10	1	-1E+10	1	-1E+10	1	-1E+10	1	-1E+10	1
4902549	87	C	01/08/2023	10:56	-133.302	47.619	0	346.90	0	4.9140	0	33.8630	0	26.787	0	343.713	0	76.7	4	24.7	4	-1E+10	1	-1E+10	1	-1E+10	1	-1E+10	1	-1E+10	1	-1E+10	1
4902549	87	C	01/08/2023	10:56	-133.302	47.619	0	348.40	0	4.8750	0	33.8670	0	26.794	0	345.197	0	75.2	4	24.2	4	-1E+10	1	-1E+10	1	-1E+10	1	-1E+10	1	-1E+10	1	-1E+10	1
4902549	87	C	01/08/2023	10:56	-133.302	47.619	0	349.30	0	4.8840	0	33.8690	0	26.795	0	346.088	0	74.1	4	23.8	4	-1E+10	1	-1E+10	1	-1E+10	1	-1E+10	1	-1E+10	1	-1E+10	1
4902549	87	C	01/08/2023	10:56	-133.302	47.619	0	350.20	0	4.9150	0	33.8770	0	26.798	0	346.979	0	72.9	4	23.5	4	-1E+10	1	-1E+10	1	-1E+10	1	-1E+10	1	-1E+10	1	-1E+10	1
4902549	87	C	01/08/2023	10:56	-133.302	47.619	0	352.90	0	5.0100	0	33.8970	0	26.803	0	349.652	0	70.9	4	22.9	4	-1E+10	1	-1E+10	1	-1E+10	1	-1E+10	1	-1E+10	1	-1E+10	1
4902549	87	C	01/08/2023	10:56	-133.302	47.619	0	358.00	0	5.0420	0	33.9150	0	26.814	0	354.701	0	67.8	4	21.9	4	-1E+10	1	-1E+10	1	-1E+10	1	-1E+10	1	-1E+10	1	-1E+10	1
4902549	87	C	01/08/2023	10:56	-133.302	47.619	0	363.00	0	5.0380	0	33.9230	0	26.820	0	359.651	0	65.8	4	21.3	4	-1E+10	1	-1E+10	1	-1E+10	1	-1E+10	1	-1E+10	1	-1E+10	1
4902549	87	C	01/08/2023	10:56	-133.302	47.619	0	367.70	0	5.0090	0	33.9300	0	26.829	0	364.303	0	64.1	4	20.7	4	-1E+10	1	-1E+10	1	-1E+10	1	-1E+10	1	-1E+10	1	-1E+10	1
4902549	87	C	01/08/2023	10:56	-133.302	47.619	0	372.80	0	4.9730	0	33.9340	0	26.837	0	369.351	0	62.4	4	20.1	4	-1E+10	1	-1E+10	1	-1E+10	1	-1E+10	1	-1E+10	1	-1E+10	1
4902549	87	C	01/08/2023	10:56	-133.302	47.619	0	378.00	0	4.9340	0	33.9390	0	26.845	0	374.499	0	61.3	4	19.7	4	-1E+10	1	-1E+10	1	-1E+10	1	-1E+10	1	-1E+10	1	-1E+10	1
4902549	87	C	01/08/2023	10:56	-133.302	47.619	0	382.80	0	4.9140	0	33.9420	0	26.850	0	379.250	0	60.1	4	19.3	4	-1E+10	1	-1E+10	1	-1E+10	1	-1E+10	1	-1E+10	1	-1E+10	1
4902549	87	C	01/08/2023	10:56	-133.302	47.619	0	387.70	0	4.8940	0	33.9460	0	26.855	0	384.100	0	59.1	4	19.0	4	-1E+10	1	-1E+10	1	-1E+10	1	-1E+10	1	-1E+10	1	-1E+10	1
4902549	87	C	01/08/2023	10:56	-133.302	47.619	0	392.70	0	4.8800	0	33.9510	0	26.861	0	389.049	0	58.4	4	18.8	4	-1E+10	1	-1E+10	1	-1E+10	1	-1E+10	1	-1E+10	1	-1E+10	1
4902549	87	C	01/08/2023	10:56	-133.302	47.619	0	397.70	0	4.8240	0	33.9510	0	26.867	0	393.998	0	58.2	4	18.7	4	-1E+10	1	-1E+10	1	-1E+10	1	-1E+10	1	-1E+10	1	-1E+10	1
4902549	87	C	01/08/2023	10:56	-133.302	47.619	0	402.80	0	4.7850	0	33.9540	0	26.874	0	399.045	0	57.7	4	18.5	4	-1E+10	1	-1E+10	1	-1E+10	1	-1E+10	1	-1E+10	1	-1E+10	1
4902549	87	C	01/08/2023	10:56	-133.302	47.619	0	407.90	0	4.7660	0	33.9560	0	26.878	0	404.093	0	56.9	4	18.3	4	-1E+10	1	-1E+10	1	-1E+10	1	-1E+10	1	-1E+10	1	-1E+10	1
4902549	87	C	01/08/2023	10:56	-133.302	47.619	0	412.90	0	4.7440	0	33.9600	0	26.883	0	409.041	0	56.1	4	18.0	4	-1E+10	1	-1E+10	1	-1E+10	1	-1E+10	1	-1E+10	1	-1E+10	1
4902549	87	C	01/08/2023	10:56	-133.302	47.619	0	417.70	0	4.7270	0	33.9640	0	26.888	0	413.791	0	55.4	4	17.8	4	-1E+10	1	-1E+10	1	-1E+10	1	-1E+10	1	-1E+10	1	-1E+10	1
4902549	87	C	01/08/2023	10:56	-133.302	47.619	0	422.90	0	4.7120	0	33.9660	0	26.892	0	418.937	0	54.3	4	17.4	4	-1E+10	1	-1E+10	1	-1E+10	1	-1E+10	1	-1E+10	1	-1E+10	1
4902549	87	C	01/08/2023	10:56	-133.302	47.619	0	428.20	0	4.7100	0	33.9710	0	26.896	0	424.182	0	53.0	4	17.0	4	-1E+10	1	-1E+10	1	-1E+10	1	-1E+10	1	-1E+10	1	-1E+10	1
4902549	87	C	01/08/2023	10:56	-133.302	47.619	0	433.20	0	4.6960	0	33.9750	0	26.901	0	429.130	0	52.3	4	16.8	4	-1E+10	1	-1E+10	1	-1E+10	1	-1E+10	1	-1E+10	1	-1E+10	1
4902549	87	C	01/08/2023	10:56	-133.302	47.619	0	438.30	0	4.6710	0	33.9790	0	26.906	0	434.177	0	51.5	4	16.5	4	-1E+10	1	-1E+10	1	-1E+10	1	-1E+10	1	-1E+10	1	-1E+10	1
4902549	87	C	01/08/2023	10:56	-133.302	47.619	0	443.00	0	4.6470	0	33.9800	0	26.910	0	438.828	0	50.8	4	16.3	4	-1E+10	1	-1E+10	1	-1E+10	1	-1E+10	1	-1E+10	1	-1E+10	1
4902549	87	C	01/08/2023	10:56	-133.302	47.619	0	447.80	0	4.6150	0	33.9830	0	26.916	0	443.578	0	49.7	4	15.9	4	-1E+10	1	-1E+10	1	-1E+10	1	-1E+10	1	-1E+10	1	-1E+10	1
4902549	87	C	01/08/2023	10:56	-133.302	47.619	0	453.10	0	4.5750	0	33.9880	0	26.924	0	448.822	0	48.4	4	15.5	4	-1E+10	1	-1E+10	1	-1E+10	1	-1E+10	1	-1E+10	1	-1E+10	1
4902549	87	C	01/08/2023	10:56	-133.302	47.619	0	457.90	0	4.5480	0	33.9930	0	26.931	0	453.571	0	47.2	4	15.1	4	-1E+10	1	-1E+10	1	-1E+10	1	-1E+10	1	-1E+10	1	-1E+10	1
4902549	87	C	01/08/2023	10:56	-133.302	47.619	0	462.80	0	4.5080	0	33.9990	0	26.940	0	458.420	0	46.0	4	14.7	4	-1E+10	1	-1E+10	1	-1E+10	1	-1E+10	1	-1E+10	1	-1E+10	1
4902549	87	C	01/08/2023	10:56	-133.302	47.619	0	467.80	0	4.4790	0	34.0040	0	26.947	0	463.367	0	45.2	4	14.4	4	-1E+10	1	-1E+10	1	-1E+10	1	-1E+10	1	-1E+10	1	-1E+10	1
4902549	87	C	01/08/2023	10:56	-133.302	47.619	0	472.80	0	4.4580	0	34.0070	0	26.952	0	468.314	0	44.4	4	14.2	4	-1E+10	1	-1E+10	1	-1E+10	1	-1E+10	1	-1E+10	1	-1E+10	1
4902549	87	C	01/08/2023	10:56	-133.302	47.619	0	477.90	0	4.4460	0	34.0100	0	26.956	0	473.359	0	43.5	4	13.9	4	-1E+10	1	-1E+10	1	-1E+10	1	-1E+10	1	-1E+10	1	-1E+10	1
4902549	87	C	01/08/2023	10:56	-133.302	47.619	0	483.00	0	4.4250	0	34.0140	0	26.961	0	478.405	0	42.6	4	13.6	4	-1E+10	1	-1E+10	1	-1E+10	1	-1E+10	1	-1E+10	1	-1E+10	1
4902549	87	C	01/08/2023	10:56	-133.302	47.619	0	488.10	0	4.3930	0	34.0200	0	26.969	0	483.451	0	41.5	4	13.2	4	-1E+10	1	-1E+10	1	-1E+10	1	-1E+10	1	-1E+10	1	-1E+10	1
4902549	87	C	01/08/2023	10:56	-133.302	47.619	0	492.70	0	4.3690	0	34.0250	0	26.976	0	488.001	0	40.8	4	13.0	4	-1E+10	1	-1E+10	1	-1E+10	1	-1E+10	1	-1E+10	1	-1E+10	1
4902549	87	C	01/08/2023	10:56	-133.302	47.619	0	497.70	0	4.3570	0	34.0280	0	26.980	0	492.948	0	40.2	4	12.8	4	-1E+10	1	-1E+10	1	-1E+10	1	-1E+10	1	-1E+10	1	-1E+10	1
4902549	87	C	01/08/2023	10:56	-133.302	47.619	0	502.90	0	4.3460	0	34.0300	0	26.982	0	498.092	0	39.4	4	12.5	4	-1E+10	1	-1E+10	1	-1E+10	1	-1E+10	1	-1E+10	1	-1E+10	1
4902549	87	C	01/08/2023	10:56	-133.302	47.619	0	508.10	0	4.3340	0	34.0330	0	26.986	0	503.236	0	38.4	4	12.2	4	-1E+10	1	-1E+10	1	-1E+10	1	-1E+10	1	-1E+10	1	-1E+10	1
4902549	87	C	01/08/2023	10:56	-133.302	47.619	0	513.20	0	4.3120	0	34.0390	0	26.993	0	508.281	0	37.4	4	11.9	4	-1E+10	1	-1E+10	1	-1E+10	1	-1E+10	1	-1E+10	1	-1E+10	1
4902549	87	C	01/08/2023	10:56	-133.302	47.619	0	518.00	0	4.2990	0	34.0430	0	26.998	0	513.029	0	36.7	4	11.7	4	-1E+10	1	-1E+10	1	-1E+10	1	-1E+10	1	-1E+10	1	-1E+10	1
4902549	87	C	01/08/2023	10:56	-133.302	47.619	0	522.70	0	4.2920	0	34.0450	0	27.000	0	517.678	0	35.9	4	11.4	4	-1E+10	1	-1E+10	1	-1E+10	1	-1E+10	1	-1E+10	1	-1E+10	1
4902549	87	C	01/08/2023	10:56	-133.302	47.619	0	528.00	0	4.2800	0	34.0500	0	27.006	0	522.920	0	34.9	4	11.1	4	-1E+10	1	-1E+10	1	-1E+10	1	-1E+10	1	-1E+10	1	-1E+10	1
4902549	87	C	01/08/2023	10:56	-133.302	47.619	0	533.30	0	4.2720	0	34.0530	0	27.009	0	528.163	0	33.9	4	10.8	4	-1E+10	1	-1E+10	1	-1E+10	1	-1E+10	1	-1E+10	1	-1E+10	1
4902549	87	C	01/08/2023	10:56	-133.302	47.619	0	538.20	0	4.2650	0	34.0580	0	27.014	0	533.009	0	32.8	4	10.4	4	-1E+10	1	-1E+10	1	-1E+10	1	-1E+10	1	-1E+10	1	-1E+10	1
4902549	87	C	01/08/2023	10:56	-133.302	47.619	0	543.20	0	4.2490	0	34.0630	0	27.019	0	537.955	0	31.8	4	10.1	4	-1E+10	1	-1E+10	1	-1E+10	1	-1E+10	1	-1E+10	1	-1E+10	1
4902549	87	C	01/08/2023	10:56	-133.302	47.619	0	548.20	0	4.2350	0	34.0670	0	27.024	0	542.900	0	30.8	4	9.8	4	-1E+10	1	-1E+10	1	-1E+10	1	-1E+10	1	-1E+10	1	-1E+10	1
4902549	87	C	01/08/2023	10:56	-133.302	47.619	0	553.20	0	4.2220	0	34.0720	0	27.029	0	547.845	0	29.7	4	9.4	4	-1E+10	1	-1E+10	1	-1E+10	1	-1E+10	1	-1E+10	1	-1E+10	1
4902549	87	C	01/08/2023	10:56	-133.302	47.619	0	557.90	0	4.2140	0	34.0750	0	27.033	0	552.493	0	28.7	4	9.1	4	-1E+10	1	-1E+10	1	-1E+10	1	-1E+10	1	-1E+10	1	-1E+10	1
4902549	87	C	01/08/2023	10:56	-133.302	47.619	0	562.50	0	4.2090	0	34.0790	0	27.036	0	557.042	0	27.4	4	8.7	4	-1E+10	1	-1E+10	1	-1E+10	1	-1E+10	1	-1E+10	1	-1E+10	1
4902549	87	C	01/08/2023	10:56	-133.302	47.619	0	567.70	0	4.2050	0	34.0840	0	27.041	0	562.185	0	26.0	4	8.2	4	-1E+10	1	-1E+10	1	-1E+10	1	-1E+10	1	-1E+10	1	-1E+10	1
4902549	87	C	01/08/2023	10:56	-133.302	47.619	0	573.00	0	4.2060	0	34.0920	0	27.047	0	567.426	0	24.6	4	7.8	4	-1E+10	1	-1E+10	1	-1E+10	1	-1E+10	1	-1E+10	1	-1E+10	1
4902549	87	C	01/08/2023	10:56	-133.302	47.619	0	577.80	0	4.2090	0	34.0970	0	27.051	0	572.173	0	23.9	4	7.6	4	-1E+10	1	-1E+10	1	-1E+10	1	-1E+10	1	-1E+10	1	-1E+10	1
4902549	87	C	01/08/2023	10:56	-133.302	47.619	0	582.60	0	4.1980	0	34.0990	0	27.053	0	576.919	0	23.1	4	7.3	4	-1E+10	1	-1E+10	1	-1E+10	1	-1E+10	1	-1E+10	1	-1E+10	1
4902549	87	C	01/08/2023	10:56	-133.302	47.619	0	588.10	0	4.1910	0	34.1040	0	27.058	0	582.358	0	22.1	4	7.0	4	-1E+10	1	-1E+10	1	-1E+10	1	-1E+10	1	-1E+10	1	-1E+10	1
4902549	87	C	01/08/2023	10:56	-133.302	47.619	0	593.00	0	4.1830	0	34.1100	0	27.064	0	587.203	0	21.6	4	6.9	4	-1E+10	1	-1E+10	1	-1E+10	1	-1E+10	1	-1E+10	1	-1E+10	1
4902549	87	C	01/08/2023	10:56	-133.302	47.619	0	597.90	0	4.1730	0	34.1130	0	27.067	0	592.049	0	21.2	4	6.7	4	-1E+10	1	-1E+10	1	-1E+10	1	-1E+10	1	-1E+10	1	-1E+10	1
4902549	87	C	01/08/2023	10:56	-133.302	47.619	0	602.80	0	4.1580	0	34.1150	0	27.070	0	596.894	0	20.7	4	6.6	4	-1E+10	1	-1E+10	1	-1E+10	1	-1E+10	1	-1E+10	1	-1E+10	1
4902549	87	C	01/08/2023	10:56	-133.302	47.619	0	607.60	0	4.1500	0	34.1180	0	27.074	0	601.640	0	20.2	4	6.4	4	-1E+10	1	-1E+10	1	-1E+10	1	-1E+10	1	-1E+10	1	-1E+10	1
4902549	87	C	01/08/2023	10:56	-133.302	47.619	0	613.10	0	4.1360	0	34.1210	0	27.078	0	607.078	0	19.7	4	6.2	4	-1E+10	1	-1E+10	1	-1E+10	1	-1E+10	1	-1E+10	1	-1E+10	1
4902549	87	C	01/08/2023	10:56	-133.302	47.619	0	618.00	0	4.1100	0	34.1270	0	27.085	0	611.922	0	19.3	4	6.1	4	-1E+10	1	-1E+10	1	-1E+10	1	-1E+10	1	-1E+10	1	-1E+10	1
4902549	87	C	01/08/2023	10:56	-133.302	47.619	0	622.90	0	4.1030	0	34.1290	0	27.087	0	616.767	0	19.0	4	6.0	4	-1E+10	1	-1E+10	1	-1E+10	1	-1E+10	1	-1E+10	1	-1E+10	1
4902549	87	C	01/08/2023	10:56	-133.302	47.619	0	627.80	0	4.0830	0	34.1310	0	27.091	0	621.611	0	18.6	4	5.9	4	-1E+10	1	-1E+10	1	-1E+10	1	-1E+10	1	-1E+10	1	-1E+10	1
4902549	87	C	01/08/2023	10:56	-133.302	47.619	0	632.60	0	4.0680	0	34.1350	0	27.096	0	626.357	0	18.1	4	5.7	4	-1E+10	1	-1E+10	1	-1E+10	1	-1E+10	1	-1E+10	1	-1E+10	1
4902549	87	C	01/08/2023	10:56	-133.302	47.619	0	638.00	0	4.0590	0	34.1390	0	27.100	0	631.695	0	17.5	4	5.5	4	-1E+10	1	-1E+10	1	-1E+10	1	-1E+10	1	-1E+10	1	-1E+10	1
4902549	87	C	01/08/2023	10:56	-133.302	47.619	0	642.90	0	4.0470	0	34.1430	0	27.104	0	636.539	0	16.9	4	5.4	4	-1E+10	1	-1E+10	1	-1E+10	1	-1E+10	1	-1E+10	1	-1E+10	1
4902549	87	C	01/08/2023	10:56	-133.302	47.619	0	647.70	0	4.0360	0	34.1480	0	27.110	0	641.285	0	16.3	4	5.1	4	-1E+10	1	-1E+10	1	-1E+10	1	-1E+10	1	-1E+10	1	-1E+10	1
4902549	87	C	01/08/2023	10:56	-133.302	47.619	0	653.00	0	4.0250	0	34.1520	0	27.114	0	646.524	0	15.5	4	4.9	4	-1E+10	1	-1E+10	1	-1E+10	1	-1E+10	1	-1E+10	1	-1E+10	1
4902549	87	C	01/08/2023	10:56	-133.302	47.619	0	657.70	0	4.0210	0	34.1590	0	27.120	0	651.170	0	14.6	4	4.6	4	-1E+10	1	-1E+10	1	-1E+10	1	-1E+10	1	-1E+10	1	-1E+10	1
4902549	87	C	01/08/2023	10:56	-133.302	47.619	0	662.50	0	4.0000	0	34.1660	0	27.128	0	655.915	0	14.1	4	4.5	4	-1E+10	1	-1E+10	1	-1E+10	1	-1E+10	1	-1E+10	1	-1E+10	1
4902549	87	C	01/08/2023	10:56	-133.302	47.619	0	667.60	0	3.9800	0	34.1720	0	27.135	0	660.956	0	13.5	4	4.2	4	-1E+10	1	-1E+10	1	-1E+10	1	-1E+10	1	-1E+10	1	-1E+10	1
4902549	87	C	01/08/2023	10:56	-133.302	47.619	0	672.80	0	3.9650	0	34.1800	0	27.142	0	666.096	0	13.0	4	4.1	4	-1E+10	1	-1E+10	1	-1E+10	1	-1E+10	1	-1E+10	1	-1E+10	1
4902549	87	C	01/08/2023	10:56	-133.302	47.619	0	677.60	0	3.9510	0	34.1830	0	27.146	0	670.840	0	12.5	4	3.9	4	-1E+10	1	-1E+10	1	-1E+10	1	-1E+10	1	-1E+10	1	-1E+10	1
4902549	87	C	01/08/2023	10:56	-133.302	47.619	0	682.90	0	3.9440	0	34.1880	0	27.151	0	676.079	0	11.9	4	3.8	4	-1E+10	1	-1E+10	1	-1E+10	1	-1E+10	1	-1E+10	1	-1E+10	1
4902549	87	C	01/08/2023	10:56	-133.302	47.619	0	688.10	0	3.9300	0	34.1930	0	27.156	0	681.218	0	11.4	4	3.6	4	-1E+10	1	-1E+10	1	-1E+10	1	-1E+10	1	-1E+10	1	-1E+10	1
4902549	87	C	01/08/2023	10:56	-133.302	47.619	0	693.00	0	3.9200	0	34.1990	0	27.162	0	686.061	0	10.8	4	3.4	4	-1E+10	1	-1E+10	1	-1E+10	1	-1E+10	1	-1E+10	1	-1E+10	1
4902549	87	C	01/08/2023	10:56	-133.302	47.619	0	698.00	0	3.9130	0	34.2060	0	27.169	0	691.003	0	10.4	4	3.3	4	-1E+10	1	-1E+10	1	-1E+10	1	-1E+10	1	-1E+10	1	-1E+10	1
4902549	87	C	01/08/2023	10:56	-133.302	47.619	0	702.80	0	3.9020	0	34.2100	0	27.173	0	695.747	0	10.1	4	3.2	4	-1E+10	1	-1E+10	1	-1E+10	1	-1E+10	1	-1E+10	1	-1E+10	1
4902549	87	C	01/08/2023	10:56	-133.302	47.619	0	707.90	0	3.8970	0	34.2130	0	27.176	0	700.787	0	9.9	4	3.1	4	-1E+10	1	-1E+10	1	-1E+10	1	-1E+10	1	-1E+10	1	-1E+10	1
4902549	87	C	01/08/2023	10:56	-133.302	47.619	0	712.80	0	3.8950	0	34.2140	0	27.177	0	705.630	0	9.6	4	3.0	4	-1E+10	1	-1E+10	1	-1E+10	1	-1E+10	1	-1E+10	1	-1E+10	1
4902549	87	C	01/08/2023	10:56	-133.302	47.619	0	717.80	0	3.8780	0	34.2200	0	27.183	0	710.571	0	9.3	4	2.9	4	-1E+10	1	-1E+10	1	-1E+10	1	-1E+10	1	-1E+10	1	-1E+10	1
4902549	87	C	01/08/2023	10:56	-133.302	47.619	0	722.90	0	3.8660	0	34.2230	0	27.187	0	715.611	0	9.0	4	2.8	4	-1E+10	1	-1E+10	1	-1E+10	1	-1E+10	1	-1E+10	1	-1E+10	1
4902549	87	C	01/08/2023	10:56	-133.302	47.619	0	728.10	0	3.8550	0	34.2270	0	27.191	0	720.749	0	8.5	4	2.7	4	-1E+10	1	-1E+10	1	-1E+10	1	-1E+10	1	-1E+10	1	-1E+10	1
4902549	87	C	01/08/2023	10:56	-133.302	47.619	0	733.00	0	3.8490	0	34.2360	0	27.199	0	725.591	0	8.0	4	2.5	4	-1E+10	1	-1E+10	1	-1E+10	1	-1E+10	1	-1E+10	1	-1E+10	1
4902549	87	C	01/08/2023	10:56	-133.302	47.619	0	737.90	0	3.8760	0	34.2450	0	27.204	0	730.433	0	7.6	4	2.4	4	-1E+10	1	-1E+10	1	-1E+10	1	-1E+10	1	-1E+10	1	-1E+10	1
4902549	87	C	01/08/2023	10:56	-133.302	47.619	0	742.90	0	3.8940	0	34.2520	0	27.208	0	735.374	0	7.3	4	2.3	4	-1E+10	1	-1E+10	1	-1E+10	1	-1E+10	1	-1E+10	1	-1E+10	1
4902549	87	C	01/08/2023	10:56	-133.302	47.619	0	748.00	0	3.8920	0	34.2570	0	27.212	0	740.413	0	7.1	4	2.3	4	-1E+10	1	-1E+10	1	-1E+10	1	-1E+10	1	-1E+10	1	-1E+10	1
4902549	87	C	01/08/2023	10:56	-133.302	47.619	0	753.20	0	3.8770	0	34.2610	0	27.216	0	745.551	0	7.1	4	2.2	4	-1E+10	1	-1E+10	1	-1E+10	1	-1E+10	1	-1E+10	1	-1E+10	1
4902549	87	C	01/08/2023	10:56	-133.302	47.619	0	758.00	0	3.8520	0	34.2660	0	27.223	0	750.294	0	7.1	4	2.2	4	-1E+10	1	-1E+10	1	-1E+10	1	-1E+10	1	-1E+10	1	-1E+10	1
4902549	87	C	01/08/2023	10:56	-133.302	47.619	0	763.00	0	3.8390	0	34.2670	0	27.225	0	755.234	0	7.0	4	2.2	4	-1E+10	1	-1E+10	1	-1E+10	1	-1E+10	1	-1E+10	1	-1E+10	1
4902549	87	C	01/08/2023	10:56	-133.302	47.619	0	768.00	0	3.8320	0	34.2690	0	27.227	0	760.174	0	6.8	4	2.1	4	-1E+10	1	-1E+10	1	-1E+10	1	-1E+10	1	-1E+10	1	-1E+10	1
4902549	87	C	01/08/2023	10:56	-133.302	47.619	0	773.00	0	3.8320	0	34.2730	0	27.231	0	765.114	0	6.7	4	2.1	4	-1E+10	1	-1E+10	1	-1E+10	1	-1E+10	1	-1E+10	1	-1E+10	1
4902549	87	C	01/08/2023	10:56	-133.302	47.619	0	778.10	0	3.8140	0	34.2750	0	27.234	0	770.152	0	6.6	4	2.1	4	-1E+10	1	-1E+10	1	-1E+10	1	-1E+10	1	-1E+10	1	-1E+10	1
4902549	87	C	01/08/2023	10:56	-133.302	47.619	0	783.20	0	3.8070	0	34.2780	0	27.237	0	775.191	0	6.5	4	2.0	4	-1E+10	1	-1E+10	1	-1E+10	1	-1E+10	1	-1E+10	1	-1E+10	1
4902549	87	C	01/08/2023	10:56	-133.302	47.619	0	788.30	0	3.8060	0	34.2800	0	27.239	0	780.229	0	6.3	4	2.0	4	-1E+10	1	-1E+10	1	-1E+10	1	-1E+10	1	-1E+10	1	-1E+10	1
4902549	87	C	01/08/2023	10:56	-133.302	47.619	0	793.40	0	3.7980	0	34.2820	0	27.241	0	785.267	0	6.2	4	2.0	4	-1E+10	1	-1E+10	1	-1E+10	1	-1E+10	1	-1E+10	1	-1E+10	1
4902549	87	C	01/08/2023	10:56	-133.302	47.619	0	797.90	0	3.7840	0	34.2860	0	27.246	0	789.713	0	6.1	4	1.9	4	-1E+10	1	-1E+10	1	-1E+10	1	-1E+10	1	-1E+10	1	-1E+10	1
4902549	87	C	01/08/2023	10:56	-133.302	47.619	0	802.50	0	3.7680	0	34.2910	0	27.252	0	794.257	0	6.1	4	1.9	4	-1E+10	1	-1E+10	1	-1E+10	1	-1E+10	1	-1E+10	1	-1E+10	1
4902549	87	C	01/08/2023	10:56	-133.302	47.619	0	807.60	0	3.7580	0	34.2930	0	27.254	0	799.294	0	6.0	4	1.9	4	-1E+10	1	-1E+10	1	-1E+10	1	-1E+10	1	-1E+10	1	-1E+10	1
4902549	87	C	01/08/2023	10:56	-133.302	47.619	0	812.80	0	3.7450	0	34.2960	0	27.258	0	804.431	0	6.0	4	1.9	4	-1E+10	1	-1E+10	1	-1E+10	1	-1E+10	1	-1E+10	1	-1E+10	1
4902549	87	C	01/08/2023	10:56	-133.302	47.619	0	818.10	0	3.7260	0	34.2990	0	27.262	0	809.666	0	6.0	4	1.9	4	-1E+10	1	-1E+10	1	-1E+10	1	-1E+10	1	-1E+10	1	-1E+10	1
4902549	87	C	01/08/2023	10:56	-133.302	47.619	0	823.00	0	3.7150	0	34.3000	0	27.264	0	814.506	0	6.0	4	1.9	4	-1E+10	1	-1E+10	1	-1E+10	1	-1E+10	1	-1E+10	1	-1E+10	1
4902549	87	C	01/08/2023	10:56	-133.302	47.619	0	827.80	0	3.7000	0	34.3020	0	27.267	0	819.247	0	6.0	4	1.9	4	-1E+10	1	-1E+10	1	-1E+10	1	-1E+10	1	-1E+10	1	-1E+10	1
4902549	87	C	01/08/2023	10:56	-133.302	47.619	0	832.70	0	3.6850	0	34.3040	0	27.270	0	824.087	0	5.9	4	1.9	4	-1E+10	1	-1E+10	1	-1E+10	1	-1E+10	1	-1E+10	1	-1E+10	1
4902549	87	C	01/08/2023	10:56	-133.302	47.619	0	837.70	0	3.6760	0	34.3070	0	27.274	0	829.025	0	5.9	4	1.8	4	-1E+10	1	-1E+10	1	-1E+10	1	-1E+10	1	-1E+10	1	-1E+10	1
4902549	87	C	01/08/2023	10:56	-133.302	47.619	0	842.80	0	3.6700	0	34.3100	0	27.277	0	834.062	0	5.8	4	1.8	4	-1E+10	1	-1E+10	1	-1E+10	1	-1E+10	1	-1E+10	1	-1E+10	1
4902549	87	C	01/08/2023	10:56	-133.302	47.619	0	847.90	0	3.6660	0	34.3130	0	27.279	0	839.099	0	5.8	4	1.8	4	-1E+10	1	-1E+10	1	-1E+10	1	-1E+10	1	-1E+10	1	-1E+10	1
4902549	87	C	01/08/2023	10:56	-133.302	47.619	0	853.10	0	3.6530	0	34.3160	0	27.283	0	844.235	0	5.8	4	1.8	4	-1E+10	1	-1E+10	1	-1E+10	1	-1E+10	1	-1E+10	1	-1E+10	1
4902549	87	C	01/08/2023	10:56	-133.302	47.619	0	857.80	0	3.6270	0	34.3180	0	27.287	0	848.876	0	5.8	4	1.8	4	-1E+10	1	-1E+10	1	-1E+10	1	-1E+10	1	-1E+10	1	-1E+10	1
4902549	87	C	01/08/2023	10:56	-133.302	47.619	0	862.60	0	3.6210	0	34.3180	0	27.288	0	853.616	0	5.8	4	1.8	4	-1E+10	1	-1E+10	1	-1E+10	1	-1E+10	1	-1E+10	1	-1E+10	1
4902549	87	C	01/08/2023	10:56	-133.302	47.619	0	867.90	0	3.6030	0	34.3210	0	27.292	0	858.850	0	5.8	4	1.8	4	-1E+10	1	-1E+10	1	-1E+10	1	-1E+10	1	-1E+10	1	-1E+10	1
4902549	87	C	01/08/2023	10:56	-133.302	47.619	0	872.90	0	3.5890	0	34.3250	0	27.297	0	863.788	0	5.8	4	1.8	4	-1E+10	1	-1E+10	1	-1E+10	1	-1E+10	1	-1E+10	1	-1E+10	1
4902549	87	C	01/08/2023	10:56	-133.302	47.619	0	877.80	0	3.5760	0	34.3250	0	27.298	0	868.627	0	5.8	4	1.8	4	-1E+10	1	-1E+10	1	-1E+10	1	-1E+10	1	-1E+10	1	-1E+10	1
4902549	87	C	01/08/2023	10:56	-133.302	47.619	0	882.80	0	3.5690	0	34.3260	0	27.300	0	873.564	0	5.8	4	1.8	4	-1E+10	1	-1E+10	1	-1E+10	1	-1E+10	1	-1E+10	1	-1E+10	1
4902549	87	C	01/08/2023	10:56	-133.302	47.619	0	887.80	0	3.5540	0	34.3290	0	27.303	0	878.501	0	5.8	4	1.8	4	-1E+10	1	-1E+10	1	-1E+10	1	-1E+10	1	-1E+10	1	-1E+10	1
4902549	87	C	01/08/2023	10:56	-133.302	47.619	0	892.90	0	3.5440	0	34.3310	0	27.306	0	883.537	0	5.8	4	1.8	4	-1E+10	1	-1E+10	1	-1E+10	1	-1E+10	1	-1E+10	1	-1E+10	1
4902549	87	C	01/08/2023	10:56	-133.302	47.619	0	897.70	0	3.5390	0	34.3400	0	27.314	0	888.276	0	5.8	4	1.8	4	-1E+10	1	-1E+10	1	-1E+10	1	-1E+10	1	-1E+10	1	-1E+10	1
4902549	87	C	01/08/2023	10:56	-133.302	47.619	0	902.90	0	3.5300	0	34.3440	0	27.318	0	893.411	0	5.8	4	1.8	4	-1E+10	1	-1E+10	1	-1E+10	1	-1E+10	1	-1E+10	1	-1E+10	1
4902549	87	C	01/08/2023	10:56	-133.302	47.619	0	908.20	0	3.5080	0	34.3440	0	27.320	0	898.644	0	5.8	4	1.8	4	-1E+10	1	-1E+10	1	-1E+10	1	-1E+10	1	-1E+10	1	-1E+10	1
4902549	87	C	01/08/2023	10:56	-133.302	47.619	0	913.10	0	3.4950	0	34.3440	0	27.321	0	903.482	0	5.8	4	1.8	4	-1E+10	1	-1E+10	1	-1E+10	1	-1E+10	1	-1E+10	1	-1E+10	1
4902549	87	C	01/08/2023	10:56	-133.302	47.619	0	918.00	0	3.4870	0	34.3440	0	27.322	0	908.319	0	5.9	4	1.8	4	-1E+10	1	-1E+10	1	-1E+10	1	-1E+10	1	-1E+10	1	-1E+10	1
4902549	87	C	01/08/2023	10:56	-133.302	47.619	0	922.90	0	3.4770	0	34.3440	0	27.323	0	913.157	0	5.9	4	1.8	4	-1E+10	1	-1E+10	1	-1E+10	1	-1E+10	1	-1E+10	1	-1E+10	1
4902549	87	C	01/08/2023	10:56	-133.302	47.619	0	927.90	0	3.4740	0	34.3470	0	27.326	0	918.093	0	5.9	4	1.8	4	-1E+10	1	-1E+10	1	-1E+10	1	-1E+10	1	-1E+10	1	-1E+10	1
4902549	87	C	01/08/2023	10:56	-133.302	47.619	0	932.90	0	3.4650	0	34.3490	0	27.328	0	923.029	0	5.9	4	1.8	4	-1E+10	1	-1E+10	1	-1E+10	1	-1E+10	1	-1E+10	1	-1E+10	1
4902549	87	C	01/08/2023	10:56	-133.302	47.619	0	937.80	0	3.4570	0	34.3510	0	27.331	0	927.867	0	5.9	4	1.8	4	-1E+10	1	-1E+10	1	-1E+10	1	-1E+10	1	-1E+10	1	-1E+10	1
4902549	87	C	01/08/2023	10:56	-133.302	47.619	0	942.80	0	3.4470	0	34.3540	0	27.334	0	932.803	0	5.9	4	1.9	4	-1E+10	1	-1E+10	1	-1E+10	1	-1E+10	1	-1E+10	1	-1E+10	1
4902549	87	C	01/08/2023	10:56	-133.302	47.619	0	947.80	0	3.4350	0	34.3560	0	27.337	0	937.738	0	6.0	4	1.9	4	-1E+10	1	-1E+10	1	-1E+10	1	-1E+10	1	-1E+10	1	-1E+10	1
4902549	87	C	01/08/2023	10:56	-133.302	47.619	0	952.70	0	3.4140	0	34.3580	0	27.340	0	942.575	0	6.0	4	1.9	4	-1E+10	1	-1E+10	1	-1E+10	1	-1E+10	1	-1E+10	1	-1E+10	1
4902549	87	C	01/08/2023	10:56	-133.302	47.619	0	957.70	0	3.3880	0	34.3610	0	27.345	0	947.511	0	6.1	4	1.9	4	-1E+10	1	-1E+10	1	-1E+10	1	-1E+10	1	-1E+10	1	-1E+10	1
4902549	87	C	01/08/2023	10:56	-133.302	47.619	0	962.60	0	3.3710	0	34.3640	0	27.349	0	952.348	0	6.1	4	1.9	4	-1E+10	1	-1E+10	1	-1E+10	1	-1E+10	1	-1E+10	1	-1E+10	1
4902549	87	C	01/08/2023	10:56	-133.302	47.619	0	967.60	0	3.3660	0	34.3640	0	27.350	0	957.283	0	6.1	4	1.9	4	-1E+10	1	-1E+10	1	-1E+10	1	-1E+10	1	-1E+10	1	-1E+10	1
4902549	87	C	01/08/2023	10:56	-133.302	47.619	0	972.50	0	3.3620	0	34.3660	0	27.352	0	962.119	0	6.2	4	1.9	4	-1E+10	1	-1E+10	1	-1E+10	1	-1E+10	1	-1E+10	1	-1E+10	1
4902549	87	C	01/08/2023	10:56	-133.302	47.619	0	977.50	0	3.3600	0	34.3670	0	27.353	0	967.055	0	6.2	4	1.9	4	-1E+10	1	-1E+10	1	-1E+10	1	-1E+10	1	-1E+10	1	-1E+10	1
4902549	87	C	01/08/2023	10:56	-133.302	47.619	0	982.60	0	3.3540	0	34.3690	0	27.355	0	972.088	0	6.2	4	1.9	4	-1E+10	1	-1E+10	1	-1E+10	1	-1E+10	1	-1E+10	1	-1E+10	1
4902549	87	C	01/08/2023	10:56	-133.302	47.619	0	987.60	0	3.3410	0	34.3700	0	27.357	0	977.023	0	6.3	4	2.0	4	-1E+10	1	-1E+10	1	-1E+10	1	-1E+10	1	-1E+10	1	-1E+10	1
4902549	87	C	01/08/2023	10:56	-133.302	47.619	0	992.70	0	3.3260	0	34.3730	0	27.361	0	982.056	0	6.3	4	2.0	4	-1E+10	1	-1E+10	1	-1E+10	1	-1E+10	1	-1E+10	1	-1E+10	1
4902549	87	C	01/08/2023	10:56	-133.302	47.619	0	997.90	0	3.3160	0	34.3750	0	27.363	0	987.189	0	6.4	4	2.0	4	-1E+10	1	-1E+10	1	-1E+10	1	-1E+10	1	-1E+10	1	-1E+10	1
4902549	87	C	01/08/2023	10:56	-133.302	47.619	0	1005.20	0	3.3050	0	34.3780	0	27.367	0	994.393	0	6.5	4	2.0	4	-1E+10	1	-1E+10	1	-1E+10	1	-1E+10	1	-1E+10	1	-1E+10	1
4902549	87	C	01/08/2023	10:56	-133.302	47.619	0	1015.10	0	3.2930	0	34.3800	0	27.370	0	1004.163	0	6.6	4	2.0	4	-1E+10	1	-1E+10	1	-1E+10	1	-1E+10	1	-1E+10	1	-1E+10	1
4902549	87	C	01/08/2023	10:56	-133.302	47.619	0	1025.60	0	3.2630	0	34.3860	0	27.377	0	1014.524	0	6.8	4	2.1	4	-1E+10	1	-1E+10	1	-1E+10	1	-1E+10	1	-1E+10	1	-1E+10	1
4902549	87	C	01/08/2023	10:56	-133.302	47.619	0	1036.10	0	3.2380	0	34.3900	0	27.383	0	1024.885	0	6.9	4	2.1	4	-1E+10	1	-1E+10	1	-1E+10	1	-1E+10	1	-1E+10	1	-1E+10	1
4902549	87	C	01/08/2023	10:56	-133.302	47.619	0	1045.50	0	3.2140	0	34.3940	0	27.388	0	1034.160	0	7.0	4	2.2	4	-1E+10	1	-1E+10	1	-1E+10	1	-1E+10	1	-1E+10	1	-1E+10	1
4902549	87	C	01/08/2023	10:56	-133.302	47.619	0	1055.50	0	3.2010	0	34.3960	0	27.391	0	1044.027	0	7.1	4	2.2	4	-1E+10	1	-1E+10	1	-1E+10	1	-1E+10	1	-1E+10	1	-1E+10	1
4902549	87	C	01/08/2023	10:56	-133.302	47.619	0	1065.70	0	3.1810	0	34.3990	0	27.396	0	1054.090	0	7.3	4	2.3	4	-1E+10	1	-1E+10	1	-1E+10	1	-1E+10	1	-1E+10	1	-1E+10	1
4902549	87	C	01/08/2023	10:56	-133.302	47.619	0	1075.50	0	3.1600	0	34.4020	0	27.400	0	1063.759	0	7.4	4	2.3	4	-1E+10	1	-1E+10	1	-1E+10	1	-1E+10	1	-1E+10	1	-1E+10	1
4902549	87	C	01/08/2023	10:56	-133.302	47.619	0	1085.30	0	3.1470	0	34.4050	0	27.404	0	1073.427	0	7.5	4	2.3	4	-1E+10	1	-1E+10	1	-1E+10	1	-1E+10	1	-1E+10	1	-1E+10	1
4902549	87	C	01/08/2023	10:56	-133.302	47.619	0	1095.50	0	3.1320	0	34.4080	0	27.407	0	1083.489	0	7.7	4	2.4	4	-1E+10	1	-1E+10	1	-1E+10	1	-1E+10	1	-1E+10	1	-1E+10	1
4902549	87	C	01/08/2023	10:56	-133.302	47.619	0	1105.60	0	3.1010	0	34.4120	0	27.414	0	1093.452	0	7.9	4	2.4	4	-1E+10	1	-1E+10	1	-1E+10	1	-1E+10	1	-1E+10	1	-1E+10	1
4902549	87	C	01/08/2023	10:56	-133.302	47.619	0	1115.50	0	3.0640	0	34.4150	0	27.419	0	1103.217	0	8.1	4	2.5	4	-1E+10	1	-1E+10	1	-1E+10	1	-1E+10	1	-1E+10	1	-1E+10	1
4902549	87	C	01/08/2023	10:56	-133.302	47.619	0	1125.30	0	3.0240	0	34.4170	0	27.425	0	1112.883	0	8.2	4	2.5	4	-1E+10	1	-1E+10	1	-1E+10	1	-1E+10	1	-1E+10	1	-1E+10	1
4902549	87	C	01/08/2023	10:56	-133.302	47.619	0	1135.30	0	2.9790	0	34.4170	0	27.429	0	1122.746	0	8.3	4	2.6	4	-1E+10	1	-1E+10	1	-1E+10	1	-1E+10	1	-1E+10	1	-1E+10	1
4902549	87	C	01/08/2023	10:56	-133.302	47.619	0	1145.40	0	2.9100	0	34.4130	0	27.432	0	1132.707	0	8.3	4	2.6	4	-1E+10	1	-1E+10	1	-1E+10	1	-1E+10	1	-1E+10	1	-1E+10	1
4902549	87	C	01/08/2023	10:56	-133.302	47.619	0	1155.30	0	2.8810	0	34.4150	0	27.436	0	1142.471	0	8.4	4	2.6	4	-1E+10	1	-1E+10	1	-1E+10	1	-1E+10	1	-1E+10	1	-1E+10	1
4902549	87	C	01/08/2023	10:56	-133.302	47.619	0	1165.50	0	2.8570	0	34.4170	0	27.440	0	1152.529	0	8.5	4	2.6	4	-1E+10	1	-1E+10	1	-1E+10	1	-1E+10	1	-1E+10	1	-1E+10	1
4902549	87	C	01/08/2023	10:56	-133.302	47.619	0	1175.70	0	2.8440	0	34.4180	0	27.442	0	1162.588	0	8.7	4	2.7	4	-1E+10	1	-1E+10	1	-1E+10	1	-1E+10	1	-1E+10	1	-1E+10	1
4902549	87	C	01/08/2023	10:56	-133.302	47.619	0	1185.60	0	2.8220	0	34.4200	0	27.445	0	1172.350	0	8.9	4	2.7	4	-1E+10	1	-1E+10	1	-1E+10	1	-1E+10	1	-1E+10	1	-1E+10	1
4902549	87	C	01/08/2023	10:56	-133.302	47.619	0	1195.50	0	2.8070	0	34.4230	0	27.449	0	1182.111	0	9.1	4	2.8	4	-1E+10	1	-1E+10	1	-1E+10	1	-1E+10	1	-1E+10	1	-1E+10	1
4902549	87	C	01/08/2023	10:56	-133.302	47.619	0	1205.60	0	2.7940	0	34.4250	0	27.452	0	1192.069	0	9.2	4	2.8	4	-1E+10	1	-1E+10	1	-1E+10	1	-1E+10	1	-1E+10	1	-1E+10	1
4902549	87	C	01/08/2023	10:56	-133.302	47.619	0	1215.50	0	2.7850	0	34.4290	0	27.456	0	1201.830	0	9.5	4	2.9	4	-1E+10	1	-1E+10	1	-1E+10	1	-1E+10	1	-1E+10	1	-1E+10	1
4902549	87	C	01/08/2023	10:56	-133.302	47.619	0	1225.50	0	2.7610	0	34.4320	0	27.460	0	1211.689	0	9.7	4	3.0	4	-1E+10	1	-1E+10	1	-1E+10	1	-1E+10	1	-1E+10	1	-1E+10	1
4902549	87	C	01/08/2023	10:56	-133.302	47.619	0	1235.10	0	2.7470	0	34.4340	0	27.463	0	1221.153	0	9.8	4	3.0	4	-1E+10	1	-1E+10	1	-1E+10	1	-1E+10	1	-1E+10	1	-1E+10	1
4902549	87	C	01/08/2023	10:56	-133.302	47.619	0	1245.20	0	2.7390	0	34.4350	0	27.465	0	1231.109	0	10.0	4	3.1	4	-1E+10	1	-1E+10	1	-1E+10	1	-1E+10	1	-1E+10	1	-1E+10	1
4902549	87	C	01/08/2023	10:56	-133.302	47.619	0	1255.10	0	2.7210	0	34.4390	0	27.470	0	1240.868	0	10.3	4	3.1	4	-1E+10	1	-1E+10	1	-1E+10	1	-1E+10	1	-1E+10	1	-1E+10	1
4902549	87	C	01/08/2023	10:56	-133.302	47.619	0	1265.50	0	2.7030	0	34.4410	0	27.473	0	1251.119	0	10.4	4	3.2	4	-1E+10	1	-1E+10	1	-1E+10	1	-1E+10	1	-1E+10	1	-1E+10	1
4902549	87	C	01/08/2023	10:56	-133.302	47.619	0	1275.30	0	2.6860	0	34.4440	0	27.477	0	1260.779	0	10.7	4	3.3	4	-1E+10	1	-1E+10	1	-1E+10	1	-1E+10	1	-1E+10	1	-1E+10	1
4902549	87	C	01/08/2023	10:56	-133.302	47.619	0	1285.50	0	2.6760	0	34.4460	0	27.479	0	1270.832	0	11.1	4	3.4	4	-1E+10	1	-1E+10	1	-1E+10	1	-1E+10	1	-1E+10	1	-1E+10	1
4902549	87	C	01/08/2023	10:56	-133.302	47.619	0	1295.70	0	2.6600	0	34.4500	0	27.484	0	1280.884	0	11.4	4	3.5	4	-1E+10	1	-1E+10	1	-1E+10	1	-1E+10	1	-1E+10	1	-1E+10	1
4902549	87	C	01/08/2023	10:56	-133.302	47.619	0	1305.70	0	2.6410	0	34.4530	0	27.488	0	1290.739	0	11.9	4	3.6	4	-1E+10	1	-1E+10	1	-1E+10	1	-1E+10	1	-1E+10	1	-1E+10	1
4902549	87	C	01/08/2023	10:56	-133.302	47.619	0	1315.40	0	2.6200	0	34.4570	0	27.493	0	1300.298	0	12.2	4	3.7	4	-1E+10	1	-1E+10	1	-1E+10	1	-1E+10	1	-1E+10	1	-1E+10	1
4902549	87	C	01/08/2023	10:56	-133.302	47.619	0	1325.30	0	2.6060	0	34.4600	0	27.497	0	1310.054	0	12.7	4	3.9	4	-1E+10	1	-1E+10	1	-1E+10	1	-1E+10	1	-1E+10	1	-1E+10	1
4902549	87	C	01/08/2023	10:56	-133.302	47.619	0	1335.30	0	2.5900	0	34.4630	0	27.501	0	1319.907	0	13.1	4	4.0	4	-1E+10	1	-1E+10	1	-1E+10	1	-1E+10	1	-1E+10	1	-1E+10	1
4902549	87	C	01/08/2023	10:56	-133.302	47.619	0	1345.20	0	2.5740	0	34.4660	0	27.504	0	1329.662	0	13.5	4	4.1	4	-1E+10	1	-1E+10	1	-1E+10	1	-1E+10	1	-1E+10	1	-1E+10	1
4902549	87	C	01/08/2023	10:56	-133.302	47.619	0	1355.20	0	2.5540	0	34.4690	0	27.508	0	1339.515	0	13.9	4	4.2	4	-1E+10	1	-1E+10	1	-1E+10	1	-1E+10	1	-1E+10	1	-1E+10	1
4902549	87	C	01/08/2023	10:56	-133.302	47.619	0	1365.40	0	2.5450	0	34.4710	0	27.511	0	1349.564	0	14.3	4	4.4	4	-1E+10	1	-1E+10	1	-1E+10	1	-1E+10	1	-1E+10	1	-1E+10	1
4902549	87	C	01/08/2023	10:56	-133.302	47.619	0	1375.40	0	2.5230	0	34.4750	0	27.516	0	1359.416	0	14.9	4	4.5	4	-1E+10	1	-1E+10	1	-1E+10	1	-1E+10	1	-1E+10	1	-1E+10	1
4902549	87	C	01/08/2023	10:56	-133.302	47.619	0	1385.40	0	2.5100	0	34.4770	0	27.519	0	1369.267	0	15.3	4	4.7	4	-1E+10	1	-1E+10	1	-1E+10	1	-1E+10	1	-1E+10	1	-1E+10	1
4902549	87	C	01/08/2023	10:56	-133.302	47.619	0	1395.50	0	2.4960	0	34.4790	0	27.522	0	1379.217	0	15.7	4	4.8	4	-1E+10	1	-1E+10	1	-1E+10	1	-1E+10	1	-1E+10	1	-1E+10	1
4902549	87	C	01/08/2023	10:56	-133.302	47.619	0	1405.50	0	2.4860	0	34.4810	0	27.524	0	1389.067	0	16.2	4	5.0	4	-1E+10	1	-1E+10	1	-1E+10	1	-1E+10	1	-1E+10	1	-1E+10	1
4902549	87	C	01/08/2023	10:56	-133.302	47.619	0	1415.60	0	2.4670	0	34.4850	0	27.529	0	1399.016	0	16.9	4	5.1	4	-1E+10	1	-1E+10	1	-1E+10	1	-1E+10	1	-1E+10	1	-1E+10	1
4902549	87	C	01/08/2023	10:56	-133.302	47.619	0	1426.10	0	2.4550	0	34.4880	0	27.532	0	1409.357	0	17.5	4	5.3	4	-1E+10	1	-1E+10	1	-1E+10	1	-1E+10	1	-1E+10	1	-1E+10	1
4902549	87	C	01/08/2023	10:56	-133.302	47.619	0	1435.40	0	2.4430	0	34.4900	0	27.535	0	1418.517	0	17.9	4	5.4	4	-1E+10	1	-1E+10	1	-1E+10	1	-1E+10	1	-1E+10	1	-1E+10	1
4902549	87	C	01/08/2023	10:56	-133.302	47.619	0	1445.20	0	2.4320	0	34.4920	0	27.538	0	1428.169	0	18.5	4	5.6	4	-1E+10	1	-1E+10	1	-1E+10	1	-1E+10	1	-1E+10	1	-1E+10	1
4902549	87	C	01/08/2023	10:56	-133.302	47.619	0	1455.30	0	2.4350	0	34.4950	0	27.540	0	1438.115	0	19.0	4	5.8	4	-1E+10	1	-1E+10	1	-1E+10	1	-1E+10	1	-1E+10	1	-1E+10	1
4902549	87	C	01/08/2023	10:56	-133.302	47.619	0	1465.20	0	2.4230	0	34.4970	0	27.542	0	1447.864	0	19.3	4	5.9	4	-1E+10	1	-1E+10	1	-1E+10	1	-1E+10	1	-1E+10	1	-1E+10	1
4902549	87	C	01/08/2023	10:56	-133.302	47.619	0	1475.40	0	2.4000	0	34.4970	0	27.544	0	1457.909	0	19.7	4	6.0	4	-1E+10	1	-1E+10	1	-1E+10	1	-1E+10	1	-1E+10	1	-1E+10	1
4902549	87	C	01/08/2023	10:56	-133.302	47.619	0	1485.40	0	2.3910	0	34.5000	0	27.548	0	1467.755	0	20.7	4	6.3	4	-1E+10	1	-1E+10	1	-1E+10	1	-1E+10	1	-1E+10	1	-1E+10	1
4902549	87	C	01/08/2023	10:56	-133.302	47.619	0	1495.50	0	2.3680	0	34.5040	0	27.553	0	1477.700	0	21.1	4	6.4	4	-1E+10	1	-1E+10	1	-1E+10	1	-1E+10	1	-1E+10	1	-1E+10	1
4902549	87	C	01/08/2023	10:56	-133.302	47.619	0	1505.80	0	2.3480	0	34.5050	0	27.555	0	1487.841	0	21.3	4	6.5	4	-1E+10	1	-1E+10	1	-1E+10	1	-1E+10	1	-1E+10	1	-1E+10	1
4902549	87	C	01/08/2023	10:56	-133.302	47.619	0	1515.70	0	2.3390	0	34.5060	0	27.557	0	1497.588	0	21.7	4	6.6	4	-1E+10	1	-1E+10	1	-1E+10	1	-1E+10	1	-1E+10	1	-1E+10	1
4902549	87	C	01/08/2023	10:56	-133.302	47.619	0	1525.30	0	2.3340	0	34.5080	0	27.559	0	1507.039	0	22.3	4	6.8	4	-1E+10	1	-1E+10	1	-1E+10	1	-1E+10	1	-1E+10	1	-1E+10	1
4902549	87	C	01/08/2023	10:56	-133.302	47.619	0	1535.00	0	2.3330	0	34.5100	0	27.561	0	1516.588	0	22.8	4	6.9	4	-1E+10	1	-1E+10	1	-1E+10	1	-1E+10	1	-1E+10	1	-1E+10	1
4902549	87	C	01/08/2023	10:56	-133.302	47.619	0	1545.20	0	2.3200	0	34.5110	0	27.563	0	1526.629	0	23.2	4	7.1	4	-1E+10	1	-1E+10	1	-1E+10	1	-1E+10	1	-1E+10	1	-1E+10	1
4902549	87	C	01/08/2023	10:56	-133.302	47.619	0	1555.40	0	2.3010	0	34.5130	0	27.566	0	1536.670	0	23.8	4	7.2	4	-1E+10	1	-1E+10	1	-1E+10	1	-1E+10	1	-1E+10	1	-1E+10	1
4902549	87	C	01/08/2023	10:56	-133.302	47.619	0	1565.20	0	2.2890	0	34.5150	0	27.568	0	1546.316	0	24.4	4	7.4	4	-1E+10	1	-1E+10	1	-1E+10	1	-1E+10	1	-1E+10	1	-1E+10	1
4902549	87	C	01/08/2023	10:56	-133.302	47.619	0	1575.10	0	2.2780	0	34.5160	0	27.570	0	1556.060	0	25.0	4	7.6	4	-1E+10	1	-1E+10	1	-1E+10	1	-1E+10	1	-1E+10	1	-1E+10	1
4902549	87	C	01/08/2023	10:56	-133.302	47.619	0	1585.60	0	2.2640	0	34.5190	0	27.574	0	1566.394	0	25.7	4	7.8	4	-1E+10	1	-1E+10	1	-1E+10	1	-1E+10	1	-1E+10	1	-1E+10	1
4902549	87	C	01/08/2023	10:56	-133.302	47.619	0	1595.70	0	2.2540	0	34.5210	0	27.576	0	1576.334	0	26.2	4	7.9	4	-1E+10	1	-1E+10	1	-1E+10	1	-1E+10	1	-1E+10	1	-1E+10	1
4902549	87	C	01/08/2023	10:56	-133.302	47.619	0	1605.20	0	2.2490	0	34.5220	0	27.577	0	1585.683	0	26.6	4	8.1	4	-1E+10	1	-1E+10	1	-1E+10	1	-1E+10	1	-1E+10	1	-1E+10	1
4902549	87	C	01/08/2023	10:56	-133.302	47.619	0	1615.20	0	2.2380	0	34.5240	0	27.580	0	1595.524	0	27.3	4	8.3	4	-1E+10	1	-1E+10	1	-1E+10	1	-1E+10	1	-1E+10	1	-1E+10	1
4902549	87	C	01/08/2023	10:56	-133.302	47.619	0	1625.30	0	2.2230	0	34.5260	0	27.583	0	1605.463	0	28.1	4	8.5	4	-1E+10	1	-1E+10	1	-1E+10	1	-1E+10	1	-1E+10	1	-1E+10	1
4902549	87	C	01/08/2023	10:56	-133.302	47.619	0	1635.40	0	2.2120	0	34.5290	0	27.586	0	1615.401	0	28.7	4	8.7	4	-1E+10	1	-1E+10	1	-1E+10	1	-1E+10	1	-1E+10	1	-1E+10	1
4902549	87	C	01/08/2023	10:56	-133.302	47.619	0	1645.40	0	2.2030	0	34.5300	0	27.588	0	1625.240	0	29.2	4	8.9	4	-1E+10	1	-1E+10	1	-1E+10	1	-1E+10	1	-1E+10	1	-1E+10	1
4902549	87	C	01/08/2023	10:56	-133.302	47.619	0	1655.50	0	2.1940	0	34.5320	0	27.590	0	1635.178	0	29.8	4	9.0	4	-1E+10	1	-1E+10	1	-1E+10	1	-1E+10	1	-1E+10	1	-1E+10	1
4902549	87	C	01/08/2023	10:56	-133.302	47.619	0	1665.60	0	2.1870	0	34.5340	0	27.592	0	1645.115	0	30.3	4	9.2	4	-1E+10	1	-1E+10	1	-1E+10	1	-1E+10	1	-1E+10	1	-1E+10	1
4902549	87	C	01/08/2023	10:56	-133.302	47.619	0	1675.40	0	2.1800	0	34.5350	0	27.594	0	1654.756	0	30.9	4	9.4	4	-1E+10	1	-1E+10	1	-1E+10	1	-1E+10	1	-1E+10	1	-1E+10	1
4902549	87	C	01/08/2023	10:56	-133.302	47.619	0	1685.40	0	2.1680	0	34.5370	0	27.596	0	1664.593	0	31.6	4	9.6	4	-1E+10	1	-1E+10	1	-1E+10	1	-1E+10	1	-1E+10	1	-1E+10	1
4902549	87	C	01/08/2023	10:56	-133.302	47.619	0	1695.40	0	2.1590	0	34.5390	0	27.599	0	1674.430	0	32.2	4	9.8	4	-1E+10	1	-1E+10	1	-1E+10	1	-1E+10	1	-1E+10	1	-1E+10	1
4902549	87	C	01/08/2023	10:56	-133.302	47.619	0	1705.10	0	2.1490	0	34.5410	0	27.601	0	1683.972	0	32.9	4	10.0	4	-1E+10	1	-1E+10	1	-1E+10	1	-1E+10	1	-1E+10	1	-1E+10	1
4902549	87	C	01/08/2023	10:56	-133.302	47.619	0	1715.40	0	2.1390	0	34.5420	0	27.603	0	1694.103	0	33.5	4	10.1	4	-1E+10	1	-1E+10	1	-1E+10	1	-1E+10	1	-1E+10	1	-1E+10	1
4902549	87	C	01/08/2023	10:56	-133.302	47.619	0	1725.70	0	2.1310	0	34.5440	0	27.605	0	1704.234	0	34.1	4	10.3	4	-1E+10	1	-1E+10	1	-1E+10	1	-1E+10	1	-1E+10	1	-1E+10	1
4902549	87	C	01/08/2023	10:56	-133.302	47.619	0	1735.50	0	2.1230	0	34.5450	0	27.607	0	1713.873	0	34.8	4	10.5	4	-1E+10	1	-1E+10	1	-1E+10	1	-1E+10	1	-1E+10	1	-1E+10	1
4902549	87	C	01/08/2023	10:56	-133.302	47.619	0	1745.50	0	2.1130	0	34.5480	0	27.610	0	1723.707	0	35.5	4	10.7	4	-1E+10	1	-1E+10	1	-1E+10	1	-1E+10	1	-1E+10	1	-1E+10	1
4902549	87	C	01/08/2023	10:56	-133.302	47.619	0	1755.50	0	2.1040	0	34.5490	0	27.611	0	1733.542	0	36.2	4	11.0	4	-1E+10	1	-1E+10	1	-1E+10	1	-1E+10	1	-1E+10	1	-1E+10	1
4902549	87	C	01/08/2023	10:56	-133.302	47.619	0	1765.60	0	2.0940	0	34.5510	0	27.614	0	1743.474	0	37.0	4	11.2	4	-1E+10	1	-1E+10	1	-1E+10	1	-1E+10	1	-1E+10	1	-1E+10	1
4902549	87	C	01/08/2023	10:56	-133.302	47.619	0	1775.60	0	2.0850	0	34.5520	0	27.615	0	1753.307	0	37.8	4	11.4	4	-1E+10	1	-1E+10	1	-1E+10	1	-1E+10	1	-1E+10	1	-1E+10	1
4902549	87	C	01/08/2023	10:56	-133.302	47.619	0	1785.70	0	2.0720	0	34.5550	0	27.619	0	1763.239	0	38.8	4	11.7	4	-1E+10	1	-1E+10	1	-1E+10	1	-1E+10	1	-1E+10	1	-1E+10	1
4902549	87	C	01/08/2023	10:56	-133.302	47.619	0	1795.50	0	2.0610	0	34.5570	0	27.621	0	1772.874	0	39.4	4	11.9	4	-1E+10	1	-1E+10	1	-1E+10	1	-1E+10	1	-1E+10	1	-1E+10	1
4902549	87	C	01/08/2023	10:56	-133.302	47.619	0	1805.10	0	2.0560	0	34.5580	0	27.623	0	1782.313	0	39.9	4	12.0	4	-1E+10	1	-1E+10	1	-1E+10	1	-1E+10	1	-1E+10	1	-1E+10	1
4902549	87	C	01/08/2023	10:56	-133.302	47.619	0	1815.30	0	2.0490	0	34.5600	0	27.625	0	1792.342	0	40.5	4	12.2	4	-1E+10	1	-1E+10	1	-1E+10	1	-1E+10	1	-1E+10	1	-1E+10	1
4902549	87	C	01/08/2023	10:56	-133.302	47.619	0	1825.60	0	2.0430	0	34.5610	0	27.626	0	1802.468	0	41.1	4	12.4	4	-1E+10	1	-1E+10	1	-1E+10	1	-1E+10	1	-1E+10	1	-1E+10	1
4902549	87	C	01/08/2023	10:56	-133.302	47.619	0	1835.40	0	2.0360	0	34.5620	0	27.628	0	1812.102	0	41.8	4	12.6	4	-1E+10	1	-1E+10	1	-1E+10	1	-1E+10	1	-1E+10	1	-1E+10	1
4902549	87	C	01/08/2023	10:56	-133.302	47.619	0	1845.20	0	2.0250	0	34.5640	0	27.630	0	1821.735	0	42.4	4	12.8	4	-1E+10	1	-1E+10	1	-1E+10	1	-1E+10	1	-1E+10	1	-1E+10	1
4902549	87	C	01/08/2023	10:56	-133.302	47.619	0	1855.20	0	2.0210	0	34.5650	0	27.631	0	1831.565	0	43.0	4	13.0	4	-1E+10	1	-1E+10	1	-1E+10	1	-1E+10	1	-1E+10	1	-1E+10	1
4902549	87	C	01/08/2023	10:56	-133.302	47.619	0	1865.30	0	2.0120	0	34.5670	0	27.634	0	1841.493	0	43.8	4	13.2	4	-1E+10	1	-1E+10	1	-1E+10	1	-1E+10	1	-1E+10	1	-1E+10	1
4902549	87	C	01/08/2023	10:56	-133.302	47.619	0	1875.60	0	2.0020	0	34.5690	0	27.636	0	1851.616	0	44.5	4	13.4	4	-1E+10	1	-1E+10	1	-1E+10	1	-1E+10	1	-1E+10	1	-1E+10	1
4902549	87	C	01/08/2023	10:56	-133.302	47.619	0	1885.40	0	1.9960	0	34.5700	0	27.637	0	1861.248	0	45.0	4	13.6	4	-1E+10	1	-1E+10	1	-1E+10	1	-1E+10	1	-1E+10	1	-1E+10	1
4902549	87	C	01/08/2023	10:56	-133.302	47.619	0	1895.50	0	1.9910	0	34.5710	0	27.639	0	1871.174	0	45.6	4	13.7	4	-1E+10	1	-1E+10	1	-1E+10	1	-1E+10	1	-1E+10	1	-1E+10	1
4902549	87	C	01/08/2023	10:56	-133.302	47.619	0	1905.30	0	1.9820	0	34.5730	0	27.641	0	1880.805	0	46.4	4	14.0	4	-1E+10	1	-1E+10	1	-1E+10	1	-1E+10	1	-1E+10	1	-1E+10	1
4902549	87	C	01/08/2023	10:56	-133.302	47.619	0	1915.30	0	1.9770	0	34.5740	0	27.642	0	1890.632	0	46.8	4	14.1	4	-1E+10	1	-1E+10	1	-1E+10	1	-1E+10	1	-1E+10	1	-1E+10	1
4902549	87	C	01/08/2023	10:56	-133.302	47.619	0	1925.30	0	1.9700	0	34.5750	0	27.644	0	1900.459	0	47.6	4	14.3	4	-1E+10	1	-1E+10	1	-1E+10	1	-1E+10	1	-1E+10	1	-1E+10	1
4902549	87	C	01/08/2023	10:56	-133.302	47.619	0	1935.40	0	1.9580	0	34.5780	0	27.647	0	1910.383	0	48.3	4	14.6	4	-1E+10	1	-1E+10	1	-1E+10	1	-1E+10	1	-1E+10	1	-1E+10	1
4902549	87	C	01/08/2023	10:56	-133.302	47.619	0	1945.40	0	1.9520	0	34.5790	0	27.648	0	1920.209	0	48.7	4	14.7	4	-1E+10	1	-1E+10	1	-1E+10	1	-1E+10	1	-1E+10	1	-1E+10	1
4902549	87	C	01/08/2023	10:56	-133.302	47.619	0	1955.50	0	1.9490	0	34.5800	0	27.649	0	1930.133	0	48.9	4	14.7	4	-1E+10	1	-1E+10	1	-1E+10	1	-1E+10	1	-1E+10	1	-1E+10	1
4902549	87	C	01/08/2023	10:56	-133.302	47.619	0	1965.70	0	1.9470	0	34.5800	0	27.650	0	1940.154	0	49.2	4	14.8	4	-1E+10	1	-1E+10	1	-1E+10	1	-1E+10	1	-1E+10	1	-1E+10	1
4902549	87	C	01/08/2023	10:56	-133.302	47.619	0	1975.80	0	1.9410	0	34.5810	0	27.651	0	1950.076	0	49.1	4	14.8	4	-1E+10	1	-1E+10	1	-1E+10	1	-1E+10	1	-1E+10	1	-1E+10	1
4902549	87	C	01/08/2023	10:56	-133.302	47.619	0																										
4902549	88	C	01/18/2023	15:53	-133.302	47.554	0	0.40	0	9.4170	0	32.2930	0	24.934	0	0.397	0	262.2	4	92.5	4	-1E+10	1	-1E+10	1	-1E+10	1	-1E+10	1	-1E+10	1	-1E+10	1
4902549	88	C	01/18/2023	15:53	-133.302	47.554	0	0.90	0	9.4190	0	32.2930	0	24.934	0	0.892	0	262.1	4	92.4	4	-1E+10	1	-1E+10	1	-1E+10	1	-1E+10	1	-1E+10	1	-1E+10	1
4902549	88	C	01/18/2023	15:53	-133.302	47.554	0	1.80	0	9.4230	0	32.2910	0	24.931	0	1.785	0	262.1	4	92.5	4	-1E+10	1	-1E+10	1	-1E+10	1	-1E+10	1	-1E+10	1	-1E+10	1
4902549	88	C	01/18/2023	15:53	-133.302	47.554	0	3.00	0	9.4220	0	32.2910	0	24.932	0	2.975	0	-1e10	1	-1e10	1	-1E+10	1	-1E+10	1	-1E+10	1	-1E+10	1	-1E+10	1	-1E+10	1
4902549	88	C	01/18/2023	15:53	-133.302	47.554	0	3.20	0	9.4220	0	32.2912	0	24.932	0	3.173	0	262.1	4	92.4	4	-1E+10	1	-1E+10	1	-1E+10	1	-1E+10	1	-1E+10	1	-1E+10	1
4902549	88	C	01/18/2023	15:53	-133.302	47.554	0	4.00	0	9.4220	0	32.2920	0	24.932	0	3.967	0	262.1	4	92.4	4	-1E+10	1	-1E+10	1	-1E+10	1	-1E+10	1	-1E+10	1	-1E+10	1
4902549	88	C	01/18/2023	15:53	-133.302	47.554	0	4.70	0	9.4220	0	32.2930	0	24.933	0	4.661	0	262.0	4	92.4	4	-1E+10	1	-1E+10	1	-1E+10	1	-1E+10	1	-1E+10	1	-1E+10	1
4902549	88	C	01/18/2023	15:53	-133.302	47.554	0	5.40	0	9.4225	0	32.2925	0	24.933	0	5.355	0	262.0	4	92.4	4	-1E+10	1	-1E+10	1	-1E+10	1	-1E+10	1	-1E+10	1	-1E+10	1
4902549	88	C	01/18/2023	15:53	-133.302	47.554	0	6.00	0	9.4230	0	32.2920	0	24.932	0	5.950	0	262.0	4	92.4	4	-1E+10	1	-1E+10	1	-1E+10	1	-1E+10	1	-1E+10	1	-1E+10	1
4902549	88	C	01/18/2023	15:53	-133.302	47.554	0	7.30	0	9.4240	0	32.2920	0	24.932	0	7.239	0	262.0	4	92.4	4	-1E+10	1	-1E+10	1	-1E+10	1	-1E+10	1	-1E+10	1	-1E+10	1
4902549	88	C	01/18/2023	15:53	-133.302	47.554	0	8.20	0	9.4240	0	32.2920	0	24.932	0	8.131	0	261.9	4	92.4	4	-1E+10	1	-1E+10	1	-1E+10	1	-1E+10	1	-1E+10	1	-1E+10	1
4902549	88	C	01/18/2023	15:53	-133.302	47.554	0	9.10	0	9.4240	0	32.2930	0	24.933	0	9.024	0	261.9	4	92.4	4	-1E+10	1	-1E+10	1	-1E+10	1	-1E+10	1	-1E+10	1	-1E+10	1
4902549	88	C	01/18/2023	15:53	-133.302	47.554	0	10.00	0	9.4240	0	32.2930	0	24.933	0	9.916	0	261.8	4	92.4	4	-1E+10	1	-1E+10	1	-1E+10	1	-1E+10	1	-1E+10	1	-1E+10	1
4902549	88	C	01/18/2023	15:53	-133.302	47.554	0	10.90	0	9.4240	0	32.2930	0	24.933	0	10.809	0	261.9	4	92.4	4	-1E+10	1	-1E+10	1	-1E+10	1	-1E+10	1	-1E+10	1	-1E+10	1
4902549	88	C	01/18/2023	15:53	-133.302	47.554	0	11.80	0	9.4240	0	32.2930	0	24.933	0	11.701	0	261.9	4	92.4	4	-1E+10	1	-1E+10	1	-1E+10	1	-1E+10	1	-1E+10	1	-1E+10	1
4902549	88	C	01/18/2023	15:53	-133.302	47.554	0	12.70	0	9.4240	0	32.2930	0	24.933	0	12.594	0	261.9	4	92.4	4	-1E+10	1	-1E+10	1	-1E+10	1	-1E+10	1	-1E+10	1	-1E+10	1
4902549	88	C	01/18/2023	15:53	-133.302	47.554	0	13.60	0	9.4240	0	32.2930	0	24.933	0	13.486	0	261.9	4	92.4	4	-1E+10	1	-1E+10	1	-1E+10	1	-1E+10	1	-1E+10	1	-1E+10	1
4902549	88	C	01/18/2023	15:53	-133.302	47.554	0	14.70	0	9.4240	0	32.2930	0	24.933	0	14.577	0	261.9	4	92.4	4	-1E+10	1	-1E+10	1	-1E+10	1	-1E+10	1	-1E+10	1	-1E+10	1
4902549	88	C	01/18/2023	15:53	-133.302	47.554	0	15.60	0	9.4230	0	32.2920	0	24.932	0	15.469	0	261.9	4	92.4	4	-1E+10	1	-1E+10	1	-1E+10	1	-1E+10	1	-1E+10	1	-1E+10	1
4902549	88	C	01/18/2023	15:53	-133.302	47.554	0	16.50	0	9.4240	0	32.2920	0	24.932	0	16.362	0	261.8	4	92.3	4	-1E+10	1	-1E+10	1	-1E+10	1	-1E+10	1	-1E+10	1	-1E+10	1
4902549	88	C	01/18/2023	15:53	-133.302	47.554	0	17.90	0	9.4240	0	32.2920	0	24.932	0	17.750	0	261.8	4	92.3	4	-1E+10	1	-1E+10	1	-1E+10	1	-1E+10	1	-1E+10	1	-1E+10	1
4902549	88	C	01/18/2023	15:53	-133.302	47.554	0	19.40	0	9.4240	0	32.2920	0	24.932	0	19.237	0	261.8	4	92.3	4	-1E+10	1	-1E+10	1	-1E+10	1	-1E+10	1	-1E+10	1	-1E+10	1
4902549	88	C	01/18/2023	15:53	-133.302	47.554	0	20.30	0	9.4240	0	32.2920	0	24.932	0	20.129	0	261.9	4	92.4	4	-1E+10	1	-1E+10	1	-1E+10	1	-1E+10	1	-1E+10	1	-1E+10	1
4902549	88	C	01/18/2023	15:53	-133.302	47.554	0	21.30	0	9.4240	0	32.2920	0	24.932	0	21.121	0	261.8	4	92.3	4	-1E+10	1	-1E+10	1	-1E+10	1	-1E+10	1	-1E+10	1	-1E+10	1
4902549	88	C	01/18/2023	15:53	-133.302	47.554	0	22.40	0	9.4240	0	32.2920	0	24.932	0	22.212	0	261.8	4	92.3	4	-1E+10	1	-1E+10	1	-1E+10	1	-1E+10	1	-1E+10	1	-1E+10	1
4902549	88	C	01/18/2023	15:53	-133.302	47.554	0	23.30	0	9.4240	0	32.2920	0	24.932	0	23.104	0	261.7	4	92.3	4	-1E+10	1	-1E+10	1	-1E+10	1	-1E+10	1	-1E+10	1	-1E+10	1
4902549	88	C	01/18/2023	15:53	-133.302	47.554	0	24.30	0	9.4240	0	32.2920	0	24.932	0	24.096	0	261.8	4	92.3	4	-1E+10	1	-1E+10	1	-1E+10	1	-1E+10	1	-1E+10	1	-1E+10	1
4902549	88	C	01/18/2023	15:53	-133.302	47.554	0	25.30	0	9.4240	0	32.2920	0	24.932	0	25.087	0	261.8	4	92.3	4	-1E+10	1	-1E+10	1	-1E+10	1	-1E+10	1	-1E+10	1	-1E+10	1
4902549	88	C	01/18/2023	15:53	-133.302	47.554	0	26.10	0	9.4250	0	32.2920	0	24.932	0	25.880	0	261.7	4	92.3	4	-1E+10	1	-1E+10	1	-1E+10	1	-1E+10	1	-1E+10	1	-1E+10	1
4902549	88	C	01/18/2023	15:53	-133.302	47.554	0	27.00	0	9.4250	0	32.2920	0	24.932	0	26.773	0	261.8	4	92.3	4	-1E+10	1	-1E+10	1	-1E+10	1	-1E+10	1	-1E+10	1	-1E+10	1
4902549	88	C	01/18/2023	15:53	-133.302	47.554	0	27.90	0	9.4250	0	32.2920	0	24.932	0	27.665	0	261.7	4	92.3	4	-1E+10	1	-1E+10	1	-1E+10	1	-1E+10	1	-1E+10	1	-1E+10	1
4902549	88	C	01/18/2023	15:53	-133.302	47.554	0	28.80	0	9.4250	0	32.2920	0	24.932	0	28.558	0	261.7	4	92.3	4	-1E+10	1	-1E+10	1	-1E+10	1	-1E+10	1	-1E+10	1	-1E+10	1
4902549	88	C	01/18/2023	15:53	-133.302	47.554	0	29.70	0	9.4250	0	32.2930	0	24.933	0	29.450	0	261.7	4	92.3	4	-1E+10	1	-1E+10	1	-1E+10	1	-1E+10	1	-1E+10	1	-1E+10	1
4902549	88	C	01/18/2023	15:53	-133.302	47.554	0	30.60	0	9.4250	0	32.2930	0	24.933	0	30.342	0	261.7	4	92.3	4	-1E+10	1	-1E+10	1	-1E+10	1	-1E+10	1	-1E+10	1	-1E+10	1
4902549	88	C	01/18/2023	15:53	-133.302	47.554	0	31.90	0	9.4250	0	32.2920	0	24.932	0	31.631	0	261.7	4	92.3	4	-1E+10	1	-1E+10	1	-1E+10	1	-1E+10	1	-1E+10	1	-1E+10	1
4902549	88	C	01/18/2023	15:53	-133.302	47.554	0	33.20	0	9.4250	0	32.2930	0	24.933	0	32.920	0	261.7	4	92.3	4	-1E+10	1	-1E+10	1	-1E+10	1	-1E+10	1	-1E+10	1	-1E+10	1
4902549	88	C	01/18/2023	15:53	-133.302	47.554	0	34.10	0	9.4250	0	32.2920	0	24.932	0	33.812	0	261.7	4	92.3	4	-1E+10	1	-1E+10	1	-1E+10	1	-1E+10	1	-1E+10	1	-1E+10	1
4902549	88	C	01/18/2023	15:53	-133.302	47.554	0	34.90	0	9.4250	0	32.2920	0	24.932	0	34.606	0	261.7	4	92.3	4	-1E+10	1	-1E+10	1	-1E+10	1	-1E+10	1	-1E+10	1	-1E+10	1
4902549	88	C	01/18/2023	15:53	-133.302	47.554	0	35.80	0	9.4260	0	32.2930	0	24.933	0	35.498	0	261.6	4	92.3	4	-1E+10	1	-1E+10	1	-1E+10	1	-1E+10	1	-1E+10	1	-1E+10	1
4902549	88	C	01/18/2023	15:53	-133.302	47.554	0	36.70	0	9.4260	0	32.2920	0	24.932	0	36.390	0	261.6	4	92.3	4	-1E+10	1	-1E+10	1	-1E+10	1	-1E+10	1	-1E+10	1	-1E+10	1
4902549	88	C	01/18/2023	15:53	-133.302	47.554	0	37.90	0	9.4260	0	32.2920	0	24.932	0	37.580	0	261.6	4	92.3	4	-1E+10	1	-1E+10	1	-1E+10	1	-1E+10	1	-1E+10	1	-1E+10	1
4902549	88	C	01/18/2023	15:53	-133.302	47.554	0	39.30	0	9.4260	0	32.2920	0	24.932	0	38.968	0	261.5	4	92.2	4	-1E+10	1	-1E+10	1	-1E+10	1	-1E+10	1	-1E+10	1	-1E+10	1
4902549	88	C	01/18/2023	15:53	-133.302	47.554	0	40.30	0	9.4260	0	32.2920	0	24.932	0	39.960	0	261.5	4	92.2	4	-1E+10	1	-1E+10	1	-1E+10	1	-1E+10	1	-1E+10	1	-1E+10	1
4902549	88	C	01/18/2023	15:53	-133.302	47.554	0	41.20	0	9.4260	0	32.2930	0	24.933	0	40.852	0	261.6	4	92.3	4	-1E+10	1	-1E+10	1	-1E+10	1	-1E+10	1	-1E+10	1	-1E+10	1
4902549	88	C	01/18/2023	15:53	-133.302	47.554	0	42.20	0	9.4260	0	32.2930	0	24.933	0	41.843	0	261.5	4	92.2	4	-1E+10	1	-1E+10	1	-1E+10	1	-1E+10	1	-1E+10	1	-1E+10	1
4902549	88	C	01/18/2023	15:53	-133.302	47.554	0	43.10	0	9.4270	0	32.2920	0	24.932	0	42.736	0	261.5	4	92.2	4	-1E+10	1	-1E+10	1	-1E+10	1	-1E+10	1	-1E+10	1	-1E+10	1
4902549	88	C	01/18/2023	15:53	-133.302	47.554	0	44.00	0	9.4270	0	32.2920	0	24.932	0	43.628	0	261.5	4	92.2	4	-1E+10	1	-1E+10	1	-1E+10	1	-1E+10	1	-1E+10	1	-1E+10	1
4902549	88	C	01/18/2023	15:53	-133.302	47.554	0	45.00	0	9.4270	0	32.2930	0	24.933	0	44.619	0	261.5	4	92.2	4	-1E+10	1	-1E+10	1	-1E+10	1	-1E+10	1	-1E+10	1	-1E+10	1
4902549	88	C	01/18/2023	15:53	-133.302	47.554	0	46.00	0	9.4270	0	32.2920	0	24.932	0	45.611	0	261.4	4	92.2	4	-1E+10	1	-1E+10	1	-1E+10	1	-1E+10	1	-1E+10	1	-1E+10	1
4902549	88	C	01/18/2023	15:53	-133.302	47.554	0	46.90	0	9.4270	0	32.2920	0	24.932	0	46.503	0	261.4	4	92.2	4	-1E+10	1	-1E+10	1	-1E+10	1	-1E+10	1	-1E+10	1	-1E+10	1
4902549	88	C	01/18/2023	15:53	-133.302	47.554	0	47.90	0	9.4270	0	32.2930	0	24.933	0	47.494	0	261.3	4	92.2	4	-1E+10	1	-1E+10	1	-1E+10	1	-1E+10	1	-1E+10	1	-1E+10	1
4902549	88	C	01/18/2023	15:53	-133.302	47.554	0	48.90	0	9.4270	0	32.2920	0	24.932	0	48.486	0	261.3	4	92.2	4	-1E+10	1	-1E+10	1	-1E+10	1	-1E+10	1	-1E+10	1	-1E+10	1
4902549	88	C	01/18/2023	15:53	-133.302	47.554	0	49.90	0	9.4270	0	32.2930	0	24.933	0	49.477	0	261.3	4	92.2	4	-1E+10	1	-1E+10	1	-1E+10	1	-1E+10	1	-1E+10	1	-1E+10	1
4902549	88	C	01/18/2023	15:53	-133.302	47.554	0	50.90	0	9.4270	0	32.2920	0	24.932	0	50.469	0	261.2	4	92.1	4	-1E+10	1	-1E+10	1	-1E+10	1	-1E+10	1	-1E+10	1	-1E+10	1
4902549	88	C	01/18/2023	15:53	-133.302	47.554	0	51.80	0	9.4270	0	32.2920	0	24.932	0	51.361	0	261.3	4	92.2	4	-1E+10	1	-1E+10	1	-1E+10	1	-1E+10	1	-1E+10	1	-1E+10	1
4902549	88	C	01/18/2023	15:53	-133.302	47.554	0	52.70	0	9.4270	0	32.2920	0	24.932	0	52.253	0	261.3	4	92.2	4	-1E+10	1	-1E+10	1	-1E+10	1	-1E+10	1	-1E+10	1	-1E+10	1
4902549	88	C	01/18/2023	15:53	-133.302	47.554	0	53.50	0	9.4270	0	32.2920	0	24.932	0	53.046	0	261.2	4	92.1	4	-1E+10	1	-1E+10	1	-1E+10	1	-1E+10	1	-1E+10	1	-1E+10	1
4902549	88	C	01/18/2023	15:53	-133.302	47.554	0	54.90	0	9.4270	0	32.2920	0	24.932	0	54.434	0	261.2	4	92.1	4	-1E+10	1	-1E+10	1	-1E+10	1	-1E+10	1	-1E+10	1	-1E+10	1
4902549	88	C	01/18/2023	15:53	-133.302	47.554	0	56.10	0	9.4270	0	32.2920	0	24.932	0	55.624	0	261.2	4	92.1	4	-1E+10	1	-1E+10	1	-1E+10	1	-1E+10	1	-1E+10	1	-1E+10	1
4902549	88	C	01/18/2023	15:53	-133.302	47.554	0	56.90	0	9.4270	0	32.2920	0	24.932	0	56.417	0	261.1	4	92.1	4	-1E+10	1	-1E+10	1	-1E+10	1	-1E+10	1	-1E+10	1	-1E+10	1
4902549	88	C	01/18/2023	15:53	-133.302	47.554	0	57.80	0	9.4270	0	32.2920	0	24.932	0	57.309	0	261.0	4	92.1	4	-1E+10	1	-1E+10	1	-1E+10	1	-1E+10	1	-1E+10	1	-1E+10	1
4902549	88	C	01/18/2023	15:53	-133.302	47.554	0	58.60	0	9.4280	0	32.2920	0	24.932	0	58.102	0	261.0	4	92.1	4	-1E+10	1	-1E+10	1	-1E+10	1	-1E+10	1	-1E+10	1	-1E+10	1
4902549	88	C	01/18/2023	15:53	-133.302	47.554	0	59.90	0	9.4270	0	32.2920	0	24.933	0	59.391	0	260.9	4	92.0	4	-1E+10	1	-1E+10	1	-1E+10	1	-1E+10	1	-1E+10	1	-1E+10	1
4902549	88	C	01/18/2023	15:53	-133.302	47.554	0	61.30	0	9.4280	0	32.2920	0	24.932	0	60.779	0	260.9	4	92.0	4	-1E+10	1	-1E+10	1	-1E+10	1	-1E+10	1	-1E+10	1	-1E+10	1
4902549	88	C	01/18/2023	15:53	-133.302	47.554	0	62.10	0	9.4280	0	32.2920	0	24.932	0	61.572	0	260.8	4	92.0	4	-1E+10	1	-1E+10	1	-1E+10	1	-1E+10	1	-1E+10	1	-1E+10	1
4902549	88	C	01/18/2023	15:53	-133.302	47.554	0	62.90	0	9.4280	0	32.2920	0	24.932	0	62.365	0	260.9	4	92.0	4	-1E+10	1	-1E+10	1	-1E+10	1	-1E+10	1	-1E+10	1	-1E+10	1
4902549	88	C	01/18/2023	15:53	-133.302	47.554	0	63.70	0	9.4280	0	32.2920	0	24.932	0	63.158	0	260.8	4	92.0	4	-1E+10	1	-1E+10	1	-1E+10	1	-1E+10	1	-1E+10	1	-1E+10	1
4902549	88	C	01/18/2023	15:53	-133.302	47.554	0	64.80	0	9.4280	0	32.2920	0	24.932	0	64.249	0	260.7	4	92.0	4	-1E+10	1	-1E+10	1	-1E+10	1	-1E+10	1	-1E+10	1	-1E+10	1
4902549	88	C	01/18/2023	15:53	-133.302	47.554	0	65.90	0	9.4280	0	32.2930	0	24.933	0	65.339	0	260.7	4	91.9	4	-1E+10	1	-1E+10	1	-1E+10	1	-1E+10	1	-1E+10	1	-1E+10	1
4902549	88	C	01/18/2023	15:53	-133.302	47.554	0	67.00	0	9.4290	0	32.2920	0	24.932	0	66.430	0	260.5	4	91.9	4	-1E+10	1	-1E+10	1	-1E+10	1	-1E+10	1	-1E+10	1	-1E+10	1
4902549	88	C	01/18/2023	15:53	-133.302	47.554	0	68.10	0	9.4290	0	32.2920	0	24.932	0	67.520	0	260.5	4	91.9	4	-1E+10	1	-1E+10	1	-1E+10	1	-1E+10	1	-1E+10	1	-1E+10	1
4902549	88	C	01/18/2023	15:53	-133.302	47.554	0	69.10	0	9.4290	0	32.2920	0	24.932	0	68.511	0	260.3	4	91.8	4	-1E+10	1	-1E+10	1	-1E+10	1	-1E+10	1	-1E+10	1	-1E+10	1
4902549	88	C	01/18/2023	15:53	-133.302	47.554	0	70.10	0	9.4290	0	32.2920	0	24.932	0	69.503	0	260.1	4	91.8	4	-1E+10	1	-1E+10	1	-1E+10	1	-1E+10	1	-1E+10	1	-1E+10	1
4902549	88	C	01/18/2023	15:53	-133.302	47.554	0	71.00	0	9.4290	0	32.2920	0	24.932	0	70.395	0	260.0	4	91.7	4	-1E+10	1	-1E+10	1	-1E+10	1	-1E+10	1	-1E+10	1	-1E+10	1
4902549	88	C	01/18/2023	15:53	-133.302	47.554	0	72.00	0	9.4310	0	32.2930	0	24.933	0	71.386	0	259.9	4	91.7	4	-1E+10	1	-1E+10	1	-1E+10	1	-1E+10	1	-1E+10	1	-1E+10	1
4902549	88	C	01/18/2023	15:53	-133.302	47.554	0	72.80	0	9.4300	0	32.2930	0	24.933	0	72.179	0	259.6	4	91.6	4	-1E+10	1	-1E+10	1	-1E+10	1	-1E+10	1	-1E+10	1	-1E+10	1
4902549	88	C	01/18/2023	15:53	-133.302	47.554	0	73.90	0	9.4290	0	32.2940	0	24.934	0	73.270	0	259.4	4	91.5	4	-1E+10	1	-1E+10	1	-1E+10	1	-1E+10	1	-1E+10	1	-1E+10	1
4902549	88	C	01/18/2023	15:53	-133.302	47.554	0	75.10	0	9.4240	0	32.2960	0	24.936	0	74.459	0	259.1	4	91.4	4	-1E+10	1	-1E+10	1	-1E+10	1	-1E+10	1	-1E+10	1	-1E+10	1
4902549	88	C	01/18/2023	15:53	-133.302	47.554	0	76.00	0	9.4230	0	32.2960	0	24.937	0	75.351	0	258.8	4	91.3	4	-1E+10	1	-1E+10	1	-1E+10	1	-1E+10	1	-1E+10	1	-1E+10	1
4902549	88	C	01/18/2023	15:53	-133.302	47.554	0	76.80	0	9.4230	0	32.2960	0	24.937	0	76.144	0	258.4	4	91.1	4	-1E+10	1	-1E+10	1	-1E+10	1	-1E+10	1	-1E+10	1	-1E+10	1
4902549	88	C	01/18/2023	15:53	-133.302	47.554	0	77.90	0	9.4230	0	32.2960	0	24.937	0	77.235	0	257.8	4	90.9	4	-1E+10	1	-1E+10	1	-1E+10	1	-1E+10	1	-1E+10	1	-1E+10	1
4902549	88	C	01/18/2023	15:53	-133.302	47.554	0	79.00	0	9.4170	0	32.2960	0	24.938	0	78.325	0	257.3	4	90.7	4	-1E+10	1	-1E+10	1	-1E+10	1	-1E+10	1	-1E+10	1	-1E+10	1
4902549	88	C	01/18/2023	15:53	-133.302	47.554	0	80.20	0	9.4190	0	32.2970	0	24.938	0	79.515	0	256.2	4	90.4	4	-1E+10	1	-1E+10	1	-1E+10	1	-1E+10	1	-1E+10	1	-1E+10	1
4902549	88	C	01/18/2023	15:53	-133.302	47.554	0	81.00	0	9.4130	0	32.2980	0	24.940	0	80.308	0	254.8	4	89.8	4	-1E+10	1	-1E+10	1	-1E+10	1	-1E+10	1	-1E+10	1	-1E+10	1
4902549	88	C	01/18/2023	15:53	-133.302	47.554	0	81.90	0	9.4020	0	32.2990	0	24.942	0	81.200	0	253.1	4	89.2	4	-1E+10	1	-1E+10	1	-1E+10	1	-1E+10	1	-1E+10	1	-1E+10	1
4902549	88	C	01/18/2023	15:53	-133.302	47.554	0	83.00	0	9.3610	0	32.3050	0	24.954	0	82.290	0	257.1	4	90.6	4	-1E+10	1	-1E+10	1	-1E+10	1	-1E+10	1	-1E+10	1	-1E+10	1
4902549	88	C	01/18/2023	15:53	-133.302	47.554	0	84.10	0	9.1990	0	32.3290	0	24.998	0	83.381	0	255.6	4	89.7	4	-1E+10	1	-1E+10	1	-1E+10	1	-1E+10	1	-1E+10	1	-1E+10	1
4902549	88	C	01/18/2023	15:53	-133.302	47.554	0	85.20	0	8.8070	0	32.3780	0	25.097	0	84.471	0	255.5	4	88.9	4	-1E+10	1	-1E+10	1	-1E+10	1	-1E+10	1	-1E+10	1	-1E+10	1
4902549	88	C	01/18/2023	15:53	-133.302	47.554	0	86.00	0	8.5660	0	32.4020	0	25.152	0	85.264	0	255.5	4	88.5	4	-1E+10	1	-1E+10	1	-1E+10	1	-1E+10	1	-1E+10	1	-1E+10	1
4902549	88	C	01/18/2023	15:53	-133.302	47.554	0	86.90	0	8.3820	0	32.4180	0	25.192	0	86.156	0	254.9	4	87.9	4	-1E+10	1	-1E+10	1	-1E+10	1	-1E+10	1	-1E+10	1	-1E+10	1
4902549	88	C	01/18/2023	15:53	-133.302	47.554	0	88.20	0	8.1720	0	32.4370	0	25.238	0	87.445	0	254.5	4	87.4	4	-1E+10	1	-1E+10	1	-1E+10	1	-1E+10	1	-1E+10	1	-1E+10	1
4902549	88	C	01/18/2023	15:53	-133.302	47.554	0	89.10	0	8.0580	0	32.4520	0	25.266	0	88.337	0	253.6	4	86.9	4	-1E+10	1	-1E+10	1	-1E+10	1	-1E+10	1	-1E+10	1	-1E+10	1
4902549	88	C	01/18/2023	15:53	-133.302	47.554	0	90.00	0	8.0160	0	32.4580	0	25.277	0	89.229	0	252.3	4	86.4	4	-1E+10	1	-1E+10	1	-1E+10	1	-1E+10	1	-1E+10	1	-1E+10	1
4902549	88	C	01/18/2023	15:53	-133.302	47.554	0	90.90	0	7.9790	0	32.4630	0	25.286	0	90.121	0	251.2	4	85.9	4	-1E+10	1	-1E+10	1	-1E+10	1	-1E+10	1	-1E+10	1	-1E+10	1
4902549	88	C	01/18/2023	15:53	-133.302	47.554	0	91.80	0	7.8930	0	32.4740	0	25.307	0	91.013	0	250.1	4	85.4	4	-1E+10	1	-1E+10	1	-1E+10	1	-1E+10	1	-1E+10	1	-1E+10	1
4902549	88	C	01/18/2023	15:53	-133.302	47.554	0	92.80	0	7.7820	0	32.4920	0	25.337	0	92.004	0	249.2	4	84.9	4	-1E+10	1	-1E+10	1	-1E+10	1	-1E+10	1	-1E+10	1	-1E+10	1
4902549	88	C	01/18/2023	15:53	-133.302	47.554	0	93.90	0	7.7140	0	32.5080	0	25.360	0	93.095	0	248.0	4	84.3	4	-1E+10	1	-1E+10	1	-1E+10	1	-1E+10	1	-1E+10	1	-1E+10	1
4902549	88	C	01/18/2023	15:53	-133.302	47.554	0	94.90	0	7.6700	0	32.5150	0	25.371	0	94.086	0	246.5	4	83.8	4	-1E+10	1	-1E+10	1	-1E+10	1	-1E+10	1	-1E+10	1	-1E+10	1
4902549	88	C	01/18/2023	15:53	-133.302	47.554	0	96.10	0	7.5840	0	32.5390	0	25.402	0	95.275	0	245.1	4	83.1	4	-1E+10	1	-1E+10	1	-1E+10	1	-1E+10	1	-1E+10	1	-1E+10	1
4902549	88	C	01/18/2023	15:53	-133.302	47.554	0	96.90	0	7.5250	0	32.5620	0	25.429	0	96.068	0	244.3	4	82.8	4	-1E+10	1	-1E+10	1	-1E+10	1	-1E+10	1	-1E+10	1	-1E+10	1
4902549	88	C	01/18/2023	15:53	-133.302	47.554	0	98.00	0	7.4590	0	32.5870	0	25.457	0	97.159	0	243.4	4	82.3	4	-1E+10	1	-1E+10	1	-1E+10	1	-1E+10	1	-1E+10	1	-1E+10	1
4902549	88	C	01/18/2023	15:53	-133.302	47.554	0	99.10	0	7.4190	0	32.6000	0	25.473	0	98.249	0	242.3	4	81.9	4	-1E+10	1	-1E+10	1	-1E+10	1	-1E+10	1	-1E+10	1	-1E+10	1
4902549	88	C	01/18/2023	15:53	-133.302	47.554	0	99.80	0	7.3970	0	32.6030	0	25.479	0	98.943	0	241.6	4	81.6	4	-1E+10	1	-1E+10	1	-1E+10	1	-1E+10	1	-1E+10	1	-1E+10	1
4902549	88	C	01/18/2023	15:53	-133.302	47.554	0	100.90	0	7.3480	0	32.6100	0	25.491	0	100.033	0	240.1	4	81.0	4	-1E+10	1	-1E+10	1	-1E+10	1	-1E+10	1	-1E+10	1	-1E+10	1
4902549	88	C	01/18/2023	15:53	-133.302	47.554	0	102.10	0	7.2950	0	32.6260	0	25.511	0	101.222	0	238.1	4	80.3	4	-1E+10	1	-1E+10	1	-1E+10	1	-1E+10	1	-1E+10	1	-1E+10	1
4902549	88	C	01/18/2023	15:53	-133.302	47.554	0	103.10	0	7.2970	0	32.6420	0	25.523	0	102.213	0	236.0	4	79.6	4	-1E+10	1	-1E+10	1	-1E+10	1	-1E+10	1	-1E+10	1	-1E+10	1
4902549	88	C	01/18/2023	15:53	-133.302	47.554	0	104.30	0	7.3000	0	32.6660	0	25.541	0	103.403	0	233.5	4	78.7	4	-1E+10	1	-1E+10	1	-1E+10	1	-1E+10	1	-1E+10	1	-1E+10	1
4902549	88	C	01/18/2023	15:53	-133.302	47.554	0	105.20	0	7.3060	0	32.6780	0	25.550	0	104.295	0	231.6	4	78.1	4	-1E+10	1	-1E+10	1	-1E+10	1	-1E+10	1	-1E+10	1	-1E+10	1
4902549	88	C	01/18/2023	15:53	-133.302	47.554	0	105.90	0	7.3130	0	32.6900	0	25.559	0	104.989	0	229.0	4	77.3	4	-1E+10	1	-1E+10	1	-1E+10	1	-1E+10	1	-1E+10	1	-1E+10	1
4902549	88	C	01/18/2023	15:53	-133.302	47.554	0	107.10	0	7.3560	0	32.7740	0	25.619	0	106.178	0	225.8	4	76.3	4	-1E+10	1	-1E+10	1	-1E+10	1	-1E+10	1	-1E+10	1	-1E+10	1
4902549	88	C	01/18/2023	15:53	-133.302	47.554	0	108.00	0	7.3650	0	32.7840	0	25.625	0	107.070	0	224.4	4	75.9	4	-1E+10	1	-1E+10	1	-1E+10	1	-1E+10	1	-1E+10	1	-1E+10	1
4902549	88	C	01/18/2023	15:53	-133.302	47.554	0	109.10	0	7.3690	0	32.7980	0	25.636	0	108.160	0	223.3	4	75.5	4	-1E+10	1	-1E+10	1	-1E+10	1	-1E+10	1	-1E+10	1	-1E+10	1
4902549	88	C	01/18/2023	15:53	-133.302	47.554	0	110.00	0	7.3700	0	32.8030	0	25.640	0	109.052	0	222.2	4	75.2	4	-1E+10	1	-1E+10	1	-1E+10	1	-1E+10	1	-1E+10	1	-1E+10	1
4902549	88	C	01/18/2023	15:53	-133.302	47.554	0	110.90	0	7.3640	0	32.8180	0	25.652	0	109.944	0	220.8	4	74.7	4	-1E+10	1	-1E+10	1	-1E+10	1	-1E+10	1	-1E+10	1	-1E+10	1
4902549	88	C	01/18/2023	15:53	-133.302	47.554	0	111.90	0	7.3570	0	32.8330	0	25.665	0	110.935	0	218.8	4	74.0	4	-1E+10	1	-1E+10	1	-1E+10	1	-1E+10	1	-1E+10	1	-1E+10	1
4902549	88	C	01/18/2023	15:53	-133.302	47.554	0	113.10	0	7.3510	0	32.8510	0	25.680	0	112.125	0	215.8	4	73.0	4	-1E+10	1	-1E+10	1	-1E+10	1	-1E+10	1	-1E+10	1	-1E+10	1
4902549	88	C	01/18/2023	15:53	-133.302	47.554	0	114.00	0	7.3460	0	32.8780	0	25.702	0	113.017	0	213.0	4	72.0	4	-1E+10	1	-1E+10	1	-1E+10	1	-1E+10	1	-1E+10	1	-1E+10	1
4902549	88	C	01/18/2023	15:53	-133.302	47.554	0	115.00	0	7.3410	0	32.8920	0	25.714	0	114.008	0	210.5	4	71.2	4	-1E+10	1	-1E+10	1	-1E+10	1	-1E+10	1	-1E+10	1	-1E+10	1
4902549	88	C	01/18/2023	15:53	-133.302	47.554	0	116.20	0	7.3110	0	32.9470	0	25.761	0	115.197	0	208.3	4	70.4	4	-1E+10	1	-1E+10	1	-1E+10	1	-1E+10	1	-1E+10	1	-1E+10	1
4902549	88	C	01/18/2023	15:53	-133.302	47.554	0	116.90	0	7.2960	0	32.9990	0	25.804	0	115.891	0	207.5	4	70.1	4	-1E+10	1	-1E+10	1	-1E+10	1	-1E+10	1	-1E+10	1	-1E+10	1
4902549	88	C	01/18/2023	15:53	-133.302	47.554	0	118.10	0	7.2880	0	33.0380	0	25.836	0	117.080	0	206.1	4	69.7	4	-1E+10	1	-1E+10	1	-1E+10	1	-1E+10	1	-1E+10	1	-1E+10	1
4902549	88	C	01/18/2023	15:53	-133.302	47.554	0	118.80	0	7.2860	0	33.0560	0	25.850	0	117.774	0	205.3	4	69.4	4	-1E+10	1	-1E+10	1	-1E+10	1	-1E+10	1	-1E+10	1	-1E+10	1
4902549	88	C	01/18/2023	15:53	-133.302	47.554	0	119.80	0	7.2850	0	33.0770	0	25.867	0	118.765	0	204.4	4	69.1	4	-1E+10	1	-1E+10	1	-1E+10	1	-1E+10	1	-1E+10	1	-1E+10	1
4902549	88	C	01/18/2023	15:53	-133.302	47.554	0	120.70	0	7.2850	0	33.0860	0	25.874	0	119.657	0	203.6	4	68.9	4	-1E+10	1	-1E+10	1	-1E+10	1	-1E+10	1	-1E+10	1	-1E+10	1
4902549	88	C	01/18/2023	15:53	-133.302	47.554	0	121.70	0	7.2850	0	33.0930	0	25.880	0	120.648	0	202.7	4	68.5	4	-1E+10	1	-1E+10	1	-1E+10	1	-1E+10	1	-1E+10	1	-1E+10	1
4902549	88	C	01/18/2023	15:53	-133.302	47.554	0	122.80	0	7.2850	0	33.1020	0	25.887	0	121.738	0	201.7	4	68.2	4	-1E+10	1	-1E+10	1	-1E+10	1	-1E+10	1	-1E+10	1	-1E+10	1
4902549	88	C	01/18/2023	15:53	-133.302	47.554	0	123.90	0	7.2870	0	33.1220	0	25.902	0	122.828	0	200.7	4	67.9	4	-1E+10	1	-1E+10	1	-1E+10	1	-1E+10	1	-1E+10	1	-1E+10	1
4902549	88	C	01/18/2023	15:53	-133.302	47.554	0	124.90	0	7.2890	0	33.1250	0	25.904	0	123.820	0	199.5	4	67.5	4	-1E+10	1	-1E+10	1	-1E+10	1	-1E+10	1	-1E+10	1	-1E+10	1
4902549	88	C	01/18/2023	15:53	-133.302	47.554	0	126.00	0	7.2890	0	33.1310	0	25.909	0	124.910	0	198.1	4	67.0	4	-1E+10	1	-1E+10	1	-1E+10	1	-1E+10	1	-1E+10	1	-1E+10	1
4902549	88	C	01/18/2023	15:53	-133.302	47.554	0	127.00	0	7.2900	0	33.1350	0	25.912	0	125.901	0	196.7	4	66.5	4	-1E+10	1	-1E+10	1	-1E+10	1	-1E+10	1	-1E+10	1	-1E+10	1
4902549	88	C	01/18/2023	15:53	-133.302	47.554	0	128.10	0	7.2910	0	33.1420	0	25.917	0	126.991	0	194.9	4	66.0	4	-1E+10	1	-1E+10	1	-1E+10	1	-1E+10	1	-1E+10	1	-1E+10	1
4902549	88	C	01/18/2023	15:53	-133.302	47.554	0	129.10	0	7.2950	0	33.1610	0	25.932	0	127.982	0	193.0	4	65.3	4	-1E+10	1	-1E+10	1	-1E+10	1	-1E+10	1	-1E+10	1	-1E+10	1
4902549	88	C	01/18/2023	15:53	-133.302	47.554	0	130.00	0	7.2980	0	33.1720	0	25.940	0	128.874	0	191.5	4	64.8	4	-1E+10	1	-1E+10	1	-1E+10	1	-1E+10	1	-1E+10	1	-1E+10	1
4902549	88	C	01/18/2023	15:53	-133.302	47.554	0	130.80	0	7.2990	0	33.1870	0	25.952	0	129.667	0	189.9	4	64.3	4	-1E+10	1	-1E+10	1	-1E+10	1	-1E+10	1	-1E+10	1	-1E+10	1
4902549	88	C	01/18/2023	15:53	-133.302	47.554	0	131.90	0	7.2990	0	33.2150	0	25.974	0	130.757	0	188.0	4	63.7	4	-1E+10	1	-1E+10	1	-1E+10	1	-1E+10	1	-1E+10	1	-1E+10	1
4902549	88	C	01/18/2023	15:53	-133.302	47.554	0	133.10	0	7.2890	0	33.2620	0	26.012	0	131.946	0	186.4	4	63.1	4	-1E+10	1	-1E+10	1	-1E+10	1	-1E+10	1	-1E+10	1	-1E+10	1
4902549	88	C	01/18/2023	15:53	-133.302	47.554	0	134.00	0	7.2770	0	33.3050	0	26.048	0	132.838	0	185.5	4	62.8	4	-1E+10	1	-1E+10	1	-1E+10	1	-1E+10	1	-1E+10	1	-1E+10	1
4902549	88	C	01/18/2023	15:53	-133.302	47.554	0	134.90	0	7.2690	0	33.3320	0	26.070	0	133.730	0	184.6	4	62.5	4	-1E+10	1	-1E+10	1	-1E+10	1	-1E+10	1	-1E+10	1	-1E+10	1
4902549	88	C	01/18/2023	15:53	-133.302	47.554	0	135.90	0	7.2710	0	33.3450	0	26.080	0	134.721	0	183.7	4	62.2	4	-1E+10	1	-1E+10	1	-1E+10	1	-1E+10	1	-1E+10	1	-1E+10	1
4902549	88	C	01/18/2023	15:53	-133.302	47.554	0	136.90	0	7.2720	0	33.3630	0	26.094	0	135.712	0	182.8	4	61.9	4	-1E+10	1	-1E+10	1	-1E+10	1	-1E+10	1	-1E+10	1	-1E+10	1
4902549	88	C	01/18/2023	15:53	-133.302	47.554	0	138.00	0	7.2730	0	33.3750	0	26.103	0	136.802	0	182.0	4	61.7	4	-1E+10	1	-1E+10	1	-1E+10	1	-1E+10	1	-1E+10	1	-1E+10	1
4902549	88	C	01/18/2023	15:53	-133.302	47.554	0	139.00	0	7.2730	0	33.3820	0	26.109	0	137.793	0	181.2	4	61.4	4	-1E+10	1	-1E+10	1	-1E+10	1	-1E+10	1	-1E+10	1	-1E+10	1
4902549	88	C	01/18/2023	15:53	-133.302	47.554	0	140.10	0	7.2730	0	33.3910	0	26.116	0	138.883	0	180.3	4	61.1	4	-1E+10	1	-1E+10	1	-1E+10	1	-1E+10	1	-1E+10	1	-1E+10	1
4902549	88	C	01/18/2023	15:53	-133.302	47.554	0	140.90	0	7.2700	0	33.4030	0	26.126	0	139.676	0	179.7	4	60.9	4	-1E+10	1	-1E+10	1	-1E+10	1	-1E+10	1	-1E+10	1	-1E+10	1
4902549	88	C	01/18/2023	15:53	-133.302	47.554	0	142.00	0	7.2670	0	33.4130	0	26.134	0	140.766	0	178.7	4	60.6	4	-1E+10	1	-1E+10	1	-1E+10	1	-1E+10	1	-1E+10	1	-1E+10	1
4902549	88	C	01/18/2023	15:53	-133.302	47.554	0	143.20	0	7.2660	0	33.4230	0	26.142	0	141.955	0	177.6	4	60.2	4	-1E+10	1	-1E+10	1	-1E+10	1	-1E+10	1	-1E+10	1	-1E+10	1
4902549	88	C	01/18/2023	15:53	-133.302	47.554	0	143.90	0	7.2660	0	33.4300	0	26.148	0	142.649	0	176.7	4	59.9	4	-1E+10	1	-1E+10	1	-1E+10	1	-1E+10	1	-1E+10	1	-1E+10	1
4902549	88	C	01/18/2023	15:53	-133.302	47.554	0	145.00	0	7.2670	0	33.4460	0	26.160	0	143.739	0	175.5	4	59.5	4	-1E+10	1	-1E+10	1	-1E+10	1	-1E+10	1	-1E+10	1	-1E+10	1
4902549	88	C	01/18/2023	15:53	-133.302	47.554	0	146.30	0	7.2670	0	33.4700	0	26.179	0	145.027	0	174.2	4	59.0	4	-1E+10	1	-1E+10	1	-1E+10	1	-1E+10	1	-1E+10	1	-1E+10	1
4902549	88	C	01/18/2023	15:53	-133.302	47.554	0	147.10	0	7.2700	0	33.4830	0	26.189	0	145.820	0	173.4	4	58.8	4	-1E+10	1	-1E+10	1	-1E+10	1	-1E+10	1	-1E+10	1	-1E+10	1
4902549	88	C	01/18/2023	15:53	-133.302	47.554	0	148.00	0	7.2740	0	33.4940	0	26.197	0	146.711	0	172.7	4	58.6	4	-1E+10	1	-1E+10	1	-1E+10	1	-1E+10	1	-1E+10	1	-1E+10	1
4902549	88	C	01/18/2023	15:53	-133.302	47.554	0	148.90	0	7.2790	0	33.5080	0	26.207	0	147.603	0	172.1	4	58.4	4	-1E+10	1	-1E+10	1	-1E+10	1	-1E+10	1	-1E+10	1	-1E+10	1
4902549	88	C	01/18/2023	15:53	-133.302	47.554	0	149.70	0	7.2790	0	33.5160	0	26.214	0	148.396	0	171.6	4	58.2	4	-1E+10	1	-1E+10	1	-1E+10	1	-1E+10	1	-1E+10	1	-1E+10	1
4902549	88	C	01/18/2023	15:53	-133.302	47.554	0	150.60	0	7.2800	0	33.5180	0	26.215	0	149.288	0	171.1	4	58.1	4	-1E+10	1	-1E+10	1	-1E+10	1	-1E+10	1	-1E+10	1	-1E+10	1
4902549	88	C	01/18/2023	15:53	-133.302	47.554	0	151.90	0	7.2790	0	33.5250	0	26.221	0	150.576	0	170.3	4	57.8	4	-1E+10	1	-1E+10	1	-1E+10	1	-1E+10	1	-1E+10	1	-1E+10	1
4902549	88	C	01/18/2023	15:53	-133.302	47.554	0	153.20	0	7.2810	0	33.5280	0	26.223	0	151.864	0	169.6	4	57.5	4	-1E+10	1	-1E+10	1	-1E+10	1	-1E+10	1	-1E+10	1	-1E+10	1
4902549	88	C	01/18/2023	15:53	-133.302	47.554	0	154.00	0	7.2810	0	33.5290	0	26.224	0	152.657	0	169.0	4	57.3	4	-1E+10	1	-1E+10	1	-1E+10	1	-1E+10	1	-1E+10	1	-1E+10	1
4902549	88	C	01/18/2023	15:53	-133.302	47.554	0	154.90	0	7.2800	0	33.5340	0	26.228	0	153.549	0	168.4	4	57.1	4	-1E+10	1	-1E+10	1	-1E+10	1	-1E+10	1	-1E+10	1	-1E+10	1
4902549	88	C	01/18/2023	15:53	-133.302	47.554	0	155.70	0	7.2810	0	33.5380	0	26.231	0	154.342	0	167.8	4	56.9	4	-1E+10	1	-1E+10	1	-1E+10	1	-1E+10	1	-1E+10	1	-1E+10	1
4902549	88	C	01/18/2023	15:53	-133.302	47.554	0	156.90	0	7.2780	0	33.5480	0	26.239	0	155.531	0	167.0	4	56.7	4	-1E+10	1	-1E+10	1	-1E+10	1	-1E+10	1	-1E+10	1	-1E+10	1
4902549	88	C	01/18/2023	15:53	-133.302	47.554	0	158.20	0	7.2700	0	33.5760	0	26.262	0	156.819	0	166.3	4	56.4	4	-1E+10	1	-1E+10	1	-1E+10	1	-1E+10	1	-1E+10	1	-1E+10	1
4902549	88	C	01/18/2023	15:53	-133.302	47.554	0	159.00	0	7.2620	0	33.5960	0	26.279	0	157.612	0	166.0	4	56.3	4	-1E+10	1	-1E+10	1	-1E+10	1	-1E+10	1	-1E+10	1	-1E+10	1
4902549	88	C	01/18/2023	15:53	-133.302	47.554	0	159.80	0	7.2470	0	33.6260	0	26.305	0	158.404	0	166.0	4	56.3	4	-1E+10	1	-1E+10	1	-1E+10	1	-1E+10	1	-1E+10	1	-1E+10	1
4902549	88	C	01/18/2023	15:53	-133.302	47.554	0	160.70	0	7.2370	0	33.6420	0	26.319	0	159.296	0	165.9	4	56.3	4	-1E+10	1	-1E+10	1	-1E+10	1	-1E+10	1	-1E+10	1	-1E+10	1
4902549	88	C	01/18/2023	15:53	-133.302	47.554	0	161.60	0	7.2160	0	33.6690	0	26.343	0	160.188	0	165.7	4	56.2	4	-1E+10	1	-1E+10	1	-1E+10	1	-1E+10	1	-1E+10	1	-1E+10	1
4902549	88	C	01/18/2023	15:53	-133.302	47.554	0	162.90	0	7.1940	0	33.6990	0	26.370	0	161.476	0	165.4	4	56.1	4	-1E+10	1	-1E+10	1	-1E+10	1	-1E+10	1	-1E+10	1	-1E+10	1
4902549	88	C	01/18/2023	15:53	-133.302	47.554	0	164.30	0	7.1780	0	33.7100	0	26.381	0	162.863	0	164.8	4	55.9	4	-1E+10	1	-1E+10	1	-1E+10	1	-1E+10	1	-1E+10	1	-1E+10	1
4902549	88	C	01/18/2023	15:53	-133.302	47.554	0	165.20	0	7.1720	0	33.7150	0	26.385	0	163.755	0	164.3	4	55.7	4	-1E+10	1	-1E+10	1	-1E+10	1	-1E+10	1	-1E+10	1	-1E+10	1
4902549	88	C	01/18/2023	15:53	-133.302	47.554	0	166.10	0	7.1440	0	33.7330	0	26.403	0	164.647	0	163.9	4	55.5	4	-1E+10	1	-1E+10	1	-1E+10	1	-1E+10	1	-1E+10	1	-1E+10	1
4902549	88	C	01/18/2023	15:53	-133.302	47.554	0	167.10	0	7.1150	0	33.7410	0	26.414	0	165.638	0	163.7	4	55.4	4	-1E+10	1	-1E+10	1	-1E+10	1	-1E+10	1	-1E+10	1	-1E+10	1
4902549	88	C	01/18/2023	15:53	-133.302	47.554	0	168.00	0	7.1080	0	33.7430	0	26.416	0	166.529	0	163.6	4	55.4	4	-1E+10	1	-1E+10	1	-1E+10	1	-1E+10	1	-1E+10	1	-1E+10	1
4902549	88	C	01/18/2023	15:53	-133.302	47.554	0	168.80	0	7.1030	0	33.7450	0	26.418	0	167.322	0	163.6	4	55.4	4	-1E+10	1	-1E+10	1	-1E+10	1	-1E+10	1	-1E+10	1	-1E+10	1
4902549	88	C	01/18/2023	15:53	-133.302	47.554	0	169.70	0	7.0810	0	33.7500	0	26.425	0	168.214	0	163.7	4	55.4	4	-1E+10	1	-1E+10	1	-1E+10	1	-1E+10	1	-1E+10	1	-1E+10	1
4902549	88	C	01/18/2023	15:53	-133.302	47.554	0	170.60	0	7.0730	0	33.7540	0	26.430	0	169.105	0	163.8	4	55.4	4	-1E+10	1	-1E+10	1	-1E+10	1	-1E+10	1	-1E+10	1	-1E+10	1
4902549	88	C	01/18/2023	15:53	-133.302	47.554	0	171.50	0	7.0670	0	33.7600	0	26.435	0	169.997	0	163.7	4	55.4	4	-1E+10	1	-1E+10	1	-1E+10	1	-1E+10	1	-1E+10	1	-1E+10	1
4902549	88	C	01/18/2023	15:53	-133.302	47.554	0	172.90	0	7.0540	0	33.7730	0	26.447	0	171.384	0	163.2	4	55.2	4	-1E+10	1	-1E+10	1	-1E+10	1	-1E+10	1	-1E+10	1	-1E+10	1
4902549	88	C	01/18/2023	15:53	-133.302	47.554	0	174.30	0	7.0330	0	33.7800	0	26.456	0	172.772	0	162.4	4	54.9	4	-1E+10	1	-1E+10	1	-1E+10	1	-1E+10	1	-1E+10	1	-1E+10	1
4902549	88	C	01/18/2023	15:53	-133.302	47.554	0	175.30	0	7.0270	0	33.7810	0	26.457	0	173.762	0	161.9	4	54.7	4	-1E+10	1	-1E+10	1	-1E+10	1	-1E+10	1	-1E+10	1	-1E+10	1
4902549	88	C	01/18/2023	15:53	-133.302	47.554	0	176.20	0	7.0220	0	33.7820	0	26.459	0	174.654	0	161.2	4	54.5	4	-1E+10	1	-1E+10	1	-1E+10	1	-1E+10	1	-1E+10	1	-1E+10	1
4902549	88	C	01/18/2023	15:53	-133.302	47.554	0	177.10	0	7.0190	0	33.7820	0	26.459	0	175.546	0	160.4	4	54.2	4	-1E+10	1	-1E+10	1	-1E+10	1	-1E+10	1	-1E+10	1	-1E+10	1
4902549	88	C	01/18/2023	15:53	-133.302	47.554	0	178.00	0	7.0180	0	33.7820	0	26.459	0	176.437	0	159.6	4	53.9	4	-1E+10	1	-1E+10	1	-1E+10	1	-1E+10	1	-1E+10	1	-1E+10	1
4902549	88	C	01/18/2023	15:53	-133.302	47.554	0	178.90	0	7.0140	0	33.7820	0	26.460	0	177.329	0	158.6	4	53.6	4	-1E+10	1	-1E+10	1	-1E+10	1	-1E+10	1	-1E+10	1	-1E+10	1
4902549	88	C	01/18/2023	15:53	-133.302	47.554	0	179.80	0	6.9920	0	33.7850	0	26.465	0	178.221	0	157.6	4	53.2	4	-1E+10	1	-1E+10	1	-1E+10	1	-1E+10	1	-1E+10	1	-1E+10	1
4902549	88	C	01/18/2023	15:53	-133.302	47.554	0	180.70	0	6.9790	0	33.7880	0	26.469	0	179.113	0	156.4	4	52.8	4	-1E+10	1	-1E+10	1	-1E+10	1	-1E+10	1	-1E+10	1	-1E+10	1
4902549	88	C	01/18/2023	15:53	-133.302	47.554	0	181.60	0	6.9720	0	33.7870	0	26.470	0	180.004	0	155.2	4	52.4	4	-1E+10	1	-1E+10	1	-1E+10	1	-1E+10	1	-1E+10	1	-1E+10	1
4902549	88	C	01/18/2023	15:53	-133.302	47.554	0	182.90	0	6.9640	0	33.7870	0	26.471	0	181.292	0	153.1	4	51.7	4	-1E+10	1	-1E+10	1	-1E+10	1	-1E+10	1	-1E+10	1	-1E+10	1
4902549	88	C	01/18/2023	15:53	-133.302	47.554	0	184.30	0	6.9410	0	33.7890	0	26.475	0	182.679	0	150.5	4	50.7	4	-1E+10	1	-1E+10	1	-1E+10	1	-1E+10	1	-1E+10	1	-1E+10	1
4902549	88	C	01/18/2023	15:53	-133.302	47.554	0	185.20	0	6.9090	0	33.7930	0	26.483	0	183.571	0	148.4	4	50.0	4	-1E+10	1	-1E+10	1	-1E+10	1	-1E+10	1	-1E+10	1	-1E+10	1
4902549	88	C	01/18/2023	15:53	-133.302	47.554	0	186.20	0	6.8970	0	33.7940	0	26.485	0	184.562	0	146.0	4	49.2	4	-1E+10	1	-1E+10	1	-1E+10	1	-1E+10	1	-1E+10	1	-1E+10	1
4902549	88	C	01/18/2023	15:53	-133.302	47.554	0	187.10	0	6.8870	0	33.7950	0	26.487	0	185.454	0	143.2	4	48.3	4	-1E+10	1	-1E+10	1	-1E+10	1	-1E+10	1	-1E+10	1	-1E+10	1
4902549	88	C	01/18/2023	15:53	-133.302	47.554	0	188.10	0	6.8610	0	33.7950	0	26.491	0	186.444	0	140.5	4	47.3	4	-1E+10	1	-1E+10	1	-1E+10	1	-1E+10	1	-1E+10	1	-1E+10	1
4902549	88	C	01/18/2023	15:53	-133.302	47.554	0	189.00	0	6.8340	0	33.7970	0	26.496	0	187.336	0	138.3	4	46.5	4	-1E+10	1	-1E+10	1	-1E+10	1	-1E+10	1	-1E+10	1	-1E+10	1
4902549	88	C	01/18/2023	15:53	-133.302	47.554	0	189.90	0	6.8370	0	33.8040	0	26.501	0	188.228	0	137.0	4	46.1	4	-1E+10	1	-1E+10	1	-1E+10	1	-1E+10	1	-1E+10	1	-1E+10	1
4902549	88	C	01/18/2023	15:53	-133.302	47.554	0	190.80	0	6.8220	0	33.8060	0	26.505	0	189.119	0	135.5	4	45.6	4	-1E+10	1	-1E+10	1	-1E+10	1	-1E+10	1	-1E+10	1	-1E+10	1
4902549	88	C	01/18/2023	15:53	-133.302	47.554	0	191.70	0	6.8170	0	33.8030	0	26.503	0	190.011	0	134.0	4	45.1	4	-1E+10	1	-1E+10	1	-1E+10	1	-1E+10	1	-1E+10	1	-1E+10	1
4902549	88	C	01/18/2023	15:53	-133.302	47.554	0	192.70	0	6.8220	0	33.8060	0	26.505	0	191.002	0	133.1	4	44.8	4	-1E+10	1	-1E+10	1	-1E+10	1	-1E+10	1	-1E+10	1	-1E+10	1
4902549	88	C	01/18/2023	15:53	-133.302	47.554	0	193.60	0	6.7930	0	33.8150	0	26.516	0	191.893	0	132.6	4	44.6	4	-1E+10	1	-1E+10	1	-1E+10	1	-1E+10	1	-1E+10	1	-1E+10	1
4902549	88	C	01/18/2023	15:53	-133.302	47.554	0	194.50	0	6.7690	0	33.8180	0	26.521	0	192.785	0	132.3	4	44.4	4	-1E+10	1	-1E+10	1	-1E+10	1	-1E+10	1	-1E+10	1	-1E+10	1
4902549	88	C	01/18/2023	15:53	-133.302	47.554	0	195.50	0	6.7530	0	33.8180	0	26.524	0	193.776	0	131.8	4	44.3	4	-1E+10	1	-1E+10	1	-1E+10	1	-1E+10	1	-1E+10	1	-1E+10	1
4902549	88	C	01/18/2023	15:53	-133.302	47.554	0	196.90	0	6.7460	0	33.8180	0	26.525	0	195.163	0	131.1	4	44.0	4	-1E+10	1	-1E+10	1	-1E+10	1	-1E+10	1	-1E+10	1	-1E+10	1
4902549	88	C	01/18/2023	15:53	-133.302	47.554	0	198.40	0	6.7360	0	33.8240	0	26.531	0	196.649	0	130.4	4	43.8	4	-1E+10	1	-1E+10	1	-1E+10	1	-1E+10	1	-1E+10	1	-1E+10	1
4902549	88	C	01/18/2023	15:53	-133.302	47.554	0	199.40	0	6.7120	0	33.8250	0	26.535	0	197.639	0	130.2	4	43.7	4	-1E+10	1	-1E+10	1	-1E+10	1	-1E+10	1	-1E+10	1	-1E+10	1
4902549	88	C	01/18/2023	15:53	-133.302	47.554	0	200.30	0	6.7080	0	33.8250	0	26.535	0	198.531	0	129.8	4	43.6	4	-1E+10	1	-1E+10	1	-1E+10	1	-1E+10	1	-1E+10	1	-1E+10	1
4902549	88	C	01/18/2023	15:53	-133.302	47.554	0	201.30	0	6.6980	0	33.8250	0	26.537	0	199.522	0	129.5	4	43.4	4	-1E+10	1	-1E+10	1	-1E+10	1	-1E+10	1	-1E+10	1	-1E+10	1
4902549	88	C	01/18/2023	15:53	-133.302	47.554	0	202.30	0	6.6860	0	33.8260	0	26.539	0	200.512	0	129.0	4	43.3	4	-1E+10	1	-1E+10	1	-1E+10	1	-1E+10	1	-1E+10	1	-1E+10	1
4902549	88	C	01/18/2023	15:53	-133.302	47.554	0	203.30	0	6.6750	0	33.8250	0	26.540	0	201.503	0	128.4	4	43.0	4	-1E+10	1	-1E+10	1	-1E+10	1	-1E+10	1	-1E+10	1	-1E+10	1
4902549	88	C	01/18/2023	15:53	-133.302	47.554	0	204.20	0	6.6570	0	33.8270	0	26.544	0	202.395	0	127.7	4	42.8	4	-1E+10	1	-1E+10	1	-1E+10	1	-1E+10	1	-1E+10	1	-1E+10	1
4902549	88	C	01/18/2023	15:53	-133.302	47.554	0	205.20	0	6.6370	0	33.8250	0	26.545	0	203.385	0	126.6	4	42.4	4	-1E+10	1	-1E+10	1	-1E+10	1	-1E+10	1	-1E+10	1	-1E+10	1
4902549	88	C	01/18/2023	15:53	-133.302	47.554	0	206.30	0	6.6370	0	33.8260	0	26.545	0	204.475	0	125.4	4	42.0	4	-1E+10	1	-1E+10	1	-1E+10	1	-1E+10	1	-1E+10	1	-1E+10	1
4902549	88	C	01/18/2023	15:53	-133.302	47.554	0	207.30	0	6.6280	0	33.8310	0	26.551	0	205.466	0	124.6	4	41.7	4	-1E+10	1	-1E+10	1	-1E+10	1	-1E+10	1	-1E+10	1	-1E+10	1
4902549	88	C	01/18/2023	15:53	-133.302	47.554	0	208.50	0	6.5940	0	33.8370	0	26.560	0	206.655	0	124.0	4	41.5	4	-1E+10	1	-1E+10	1	-1E+10	1	-1E+10	1	-1E+10	1	-1E+10	1
4902549	88	C	01/18/2023	15:53	-133.302	47.554	0	209.80	0	6.5720	0	33.8390	0	26.564	0	207.942	0	123.3	4	41.3	4	-1E+10	1	-1E+10	1	-1E+10	1	-1E+10	1	-1E+10	1	-1E+10	1
4902549	88	C	01/18/2023	15:53	-133.302	47.554	0	211.30	0	6.5610	0	33.8390	0	26.566	0	209.428	0	122.7	4	41.0	4	-1E+10	1	-1E+10	1	-1E+10	1	-1E+10	1	-1E+10	1	-1E+10	1
4902549	88	C	01/18/2023	15:53	-133.302	47.554	0	212.30	0	6.5560	0	33.8390	0	26.566	0	210.419	0	122.1	4	40.9	4	-1E+10	1	-1E+10	1	-1E+10	1	-1E+10	1	-1E+10	1	-1E+10	1
4902549	88	C	01/18/2023	15:53	-133.302	47.554	0	213.20	0	6.5230	0	33.8450	0	26.576	0	211.310	0	121.6	4	40.6	4	-1E+10	1	-1E+10	1	-1E+10	1	-1E+10	1	-1E+10	1	-1E+10	1
4902549	88	C	01/18/2023	15:53	-133.302	47.554	0	214.20	0	6.4970	0	33.8410	0	26.576	0	212.301	0	121.0	4	40.4	4	-1E+10	1	-1E+10	1	-1E+10	1	-1E+10	1	-1E+10	1	-1E+10	1
4902549	88	C	01/18/2023	15:53	-133.302	47.554	0	215.20	0	6.4710	0	33.8410	0	26.579	0	213.292	0	120.3	4	40.2	4	-1E+10	1	-1E+10	1	-1E+10	1	-1E+10	1	-1E+10	1	-1E+10	1
4902549	88	C	01/18/2023	15:53	-133.302	47.554	0	216.30	0	6.4520	0	33.8420	0	26.582	0	214.381	0	119.5	4	39.9	4	-1E+10	1	-1E+10	1	-1E+10	1	-1E+10	1	-1E+10	1	-1E+10	1
4902549	88	C	01/18/2023	15:53	-133.302	47.554	0	217.90	0	6.4620	0	33.8480	0	26.586	0	215.966	0	118.4	4	39.5	4	-1E+10	1	-1E+10	1	-1E+10	1	-1E+10	1	-1E+10	1	-1E+10	1
4902549	88	C	01/18/2023	15:53	-133.302	47.554	0	219.30	0	6.4650	0	33.8510	0	26.588	0	217.353	0	117.7	4	39.3	4	-1E+10	1	-1E+10	1	-1E+10	1	-1E+10	1	-1E+10	1	-1E+10	1
4902549	88	C	01/18/2023	15:53	-133.302	47.554	0	220.40	0	6.4570	0	33.8500	0	26.588	0	218.443	0	117.3	4	39.2	4	-1E+10	1	-1E+10	1	-1E+10	1	-1E+10	1	-1E+10	1	-1E+10	1
4902549	88	C	01/18/2023	15:53	-133.302	47.554	0	221.40	0	6.4560	0	33.8550	0	26.592	0	219.433	0	117.1	4	39.1	4	-1E+10	1	-1E+10	1	-1E+10	1	-1E+10	1	-1E+10	1	-1E+10	1
4902549	88	C	01/18/2023	15:53	-133.302	47.554	0	222.40	0	6.4130	0	33.8550	0	26.598	0	220.424	0	117.0	4	39.0	4	-1E+10	1	-1E+10	1	-1E+10	1	-1E+10	1	-1E+10	1	-1E+10	1
4902549	88	C	01/18/2023	15:53	-133.302	47.554	0	223.90	0	6.3780	0	33.8560	0	26.603	0	221.910	0	116.9	4	38.9	4	-1E+10	1	-1E+10	1	-1E+10	1	-1E+10	1	-1E+10	1	-1E+10	1
4902549	88	C	01/18/2023	15:53	-133.302	47.554	0	225.20	0	6.3600	0	33.8550	0	26.605	0	223.198	0	116.6	4	38.8	4	-1E+10	1	-1E+10	1	-1E+10	1	-1E+10	1	-1E+10	1	-1E+10	1
4902549	88	C	01/18/2023	15:53	-133.302	47.554	0	226.00	0	6.3600	0	33.8550	0	26.605	0	223.990	0	116.5	4	38.8	4	-1E+10	1	-1E+10	1	-1E+10	1	-1E+10	1	-1E+10	1	-1E+10	1
4902549	88	C	01/18/2023	15:53	-133.302	47.554	0	226.80	0	6.3630	0	33.8570	0	26.606	0	224.783	0	116.4	4	38.8	4	-1E+10	1	-1E+10	1	-1E+10	1	-1E+10	1	-1E+10	1	-1E+10	1
4902549	88	C	01/18/2023	15:53	-133.302	47.554	0	228.00	0	6.3510	0	33.8570	0	26.608	0	225.971	0	116.4	4	38.7	4	-1E+10	1	-1E+10	1	-1E+10	1	-1E+10	1	-1E+10	1	-1E+10	1
4902549	88	C	01/18/2023	15:53	-133.302	47.554	0	229.30	0	6.3400	0	33.8530	0	26.606	0	227.259	0	116.2	4	38.7	4	-1E+10	1	-1E+10	1	-1E+10	1	-1E+10	1	-1E+10	1	-1E+10	1
4902549	88	C	01/18/2023	15:53	-133.302	47.554	0	230.10	0	6.3020	0	33.8580	0	26.615	0	228.051	0	116.1	4	38.6	4	-1E+10	1	-1E+10	1	-1E+10	1	-1E+10	1	-1E+10	1	-1E+10	1
4902549	88	C	01/18/2023	15:53	-133.302	47.554	0	230.90	0	6.2990	0	33.8540	0	26.612	0	228.844	0	115.8	4	38.5	4	-1E+10	1	-1E+10	1	-1E+10	1	-1E+10	1	-1E+10	1	-1E+10	1
4902549	88	C	01/18/2023	15:53	-133.302	47.554	0	231.70	0	6.2880	0	33.8530	0	26.612	0	229.636	0	115.5	4	38.4	4	-1E+10	1	-1E+10	1	-1E+10	1	-1E+10	1	-1E+10	1	-1E+10	1
4902549	88	C	01/18/2023	15:53	-133.302	47.554	0	232.90	0	6.2840	0	33.8530	0	26.613	0	230.825	0	114.9	4	38.2	4	-1E+10	1	-1E+10	1	-1E+10	1	-1E+10	1	-1E+10	1	-1E+10	1
4902549	88	C	01/18/2023	15:53	-133.302	47.554	0	234.10	0	6.2680	0	33.8530	0	26.615	0	232.014	0	114.1	4	37.9	4	-1E+10	1	-1E+10	1	-1E+10	1	-1E+10	1	-1E+10	1	-1E+10	1
4902549	88	C	01/18/2023	15:53	-133.302	47.554	0	235.00	0	6.2330	0	33.8530	0	26.620	0	232.905	0	113.7	4	37.7	4	-1E+10	1	-1E+10	1	-1E+10	1	-1E+10	1	-1E+10	1	-1E+10	1
4902549	88	C	01/18/2023	15:53	-133.302	47.554	0	235.80	0	6.2210	0	33.8560	0	26.623	0	233.697	0	113.1	4	37.5	4	-1E+10	1	-1E+10	1	-1E+10	1	-1E+10	1	-1E+10	1	-1E+10	1
4902549	88	C	01/18/2023	15:53	-133.302	47.554	0	236.60	0	6.2100	0	33.8540	0	26.623	0	234.490	0	112.6	4	37.4	4	-1E+10	1	-1E+10	1	-1E+10	1	-1E+10	1	-1E+10	1	-1E+10	1
4902549	88	C	01/18/2023	15:53	-133.302	47.554	0	237.90	0	6.2030	0	33.8620	0	26.631	0	235.778	0	112.1	4	37.2	4	-1E+10	1	-1E+10	1	-1E+10	1	-1E+10	1	-1E+10	1	-1E+10	1
4902549	88	C	01/18/2023	15:53	-133.302	47.554	0	239.20	0	6.1780	0	33.8580	0	26.631	0	237.065	0	111.4	4	36.9	4	-1E+10	1	-1E+10	1	-1E+10	1	-1E+10	1	-1E+10	1	-1E+10	1
4902549	88	C	01/18/2023	15:53	-133.302	47.554	0	240.00	0	6.1900	0	33.8610	0	26.631	0	237.858	0	110.9	4	36.8	4	-1E+10	1	-1E+10	1	-1E+10	1	-1E+10	1	-1E+10	1	-1E+10	1
4902549	88	C	01/18/2023	15:53	-133.302	47.554	0	240.90	0	6.1930	0	33.8600	0	26.630	0	238.749	0	110.5	4	36.6	4	-1E+10	1	-1E+10	1	-1E+10	1	-1E+10	1	-1E+10	1	-1E+10	1
4902549	88	C	01/18/2023	15:53	-133.302	47.554	0	241.70	0	6.1860	0	33.8630	0	26.634	0	239.541	0	109.9	4	36.5	4	-1E+10	1	-1E+10	1	-1E+10	1	-1E+10	1	-1E+10	1	-1E+10	1
4902549	88	C	01/18/2023	15:53	-133.302	47.554	0	243.00	0	6.1670	0	33.8590	0	26.633	0	240.829	0	108.9	4	36.1	4	-1E+10	1	-1E+10	1	-1E+10	1	-1E+10	1	-1E+10	1	-1E+10	1
4902549	88	C	01/18/2023	15:53	-133.302	47.554	0	244.30	0	6.1530	0	33.8590	0	26.635	0	242.117	0	107.5	4	35.6	4	-1E+10	1	-1E+10	1	-1E+10	1	-1E+10	1	-1E+10	1	-1E+10	1
4902549	88	C	01/18/2023	15:53	-133.302	47.554	0	245.10	0	6.1690	0	33.8650	0	26.637	0	242.909	0	106.9	4	35.4	4	-1E+10	1	-1E+10	1	-1E+10	1	-1E+10	1	-1E+10	1	-1E+10	1
4902549	88	C	01/18/2023	15:53	-133.302	47.554	0	246.00	0	6.1720	0	33.8670	0	26.638	0	243.800	0	106.3	4	35.3	4	-1E+10	1	-1E+10	1	-1E+10	1	-1E+10	1	-1E+10	1	-1E+10	1
4902549	88	C	01/18/2023	15:53	-133.302	47.554	0	246.80	0	6.1750	0	33.8690	0	26.640	0	244.593	0	105.9	4	35.1	4	-1E+10	1	-1E+10	1	-1E+10	1	-1E+10	1	-1E+10	1	-1E+10	1
4902549	88	C	01/18/2023	15:53	-133.302	47.554	0	247.60	0	6.1720	0	33.8720	0	26.642	0	245.385	0	105.5	4	35.0	4	-1E+10	1	-1E+10	1	-1E+10	1	-1E+10	1	-1E+10	1	-1E+10	1
4902549	88	C	01/18/2023	15:53	-133.302	47.554	0	248.90	0	6.1610	0	33.8730	0	26.645	0	246.673	0	105.1	4	34.8	4	-1E+10	1	-1E+10	1	-1E+10	1	-1E+10	1	-1E+10	1	-1E+10	1
4902549	88	C	01/18/2023	15:53	-133.302	47.554	0	250.20	0	6.1500	0	33.8760	0	26.648	0	247.960	0	104.8	4	34.7	4	-1E+10	1	-1E+10	1	-1E+10	1	-1E+10	1	-1E+10	1	-1E+10	1
4902549	88	C	01/18/2023	15:53	-133.302	47.554	0	251.10	0	6.1460	0	33.8760	0	26.649	0	248.852	0	104.6	4	34.7	4	-1E+10	1	-1E+10	1	-1E+10	1	-1E+10	1	-1E+10	1	-1E+10	1
4902549	88	C	01/18/2023	15:53	-133.302	47.554	0	252.00	0	6.1460	0	33.8750	0	26.648	0	249.743	0	104.4	4	34.6	4	-1E+10	1	-1E+10	1	-1E+10	1	-1E+10	1	-1E+10	1	-1E+10	1
4902549	88	C	01/18/2023	15:53	-133.302	47.554	0	252.80	0	6.1440	0	33.8760	0	26.649	0	250.536	0	104.2	4	34.5	4	-1E+10	1	-1E+10	1	-1E+10	1	-1E+10	1	-1E+10	1	-1E+10	1
4902549	88	C	01/18/2023	15:53	-133.302	47.554	0	253.70	0	6.1440	0	33.8760	0	26.649	0	251.427	0	104.1	4	34.5	4	-1E+10	1	-1E+10	1	-1E+10	1	-1E+10	1	-1E+10	1	-1E+10	1
4902549	88	C	01/18/2023	15:53	-133.302	47.554	0	255.00	0	6.1080	0	33.8750	0	26.653	0	252.715	0	103.9	4	34.4	4	-1E+10	1	-1E+10	1	-1E+10	1	-1E+10	1	-1E+10	1	-1E+10	1
4902549	88	C	01/18/2023	15:53	-133.302	47.554	0	256.30	0	6.0830	0	33.8750	0	26.656	0	254.002	0	103.5	4	34.3	4	-1E+10	1	-1E+10	1	-1E+10	1	-1E+10	1	-1E+10	1	-1E+10	1
4902549	88	C	01/18/2023	15:53	-133.302	47.554	0	257.10	0	6.0760	0	33.8740	0	26.656	0	254.794	0	103.2	4	34.1	4	-1E+10	1	-1E+10	1	-1E+10	1	-1E+10	1	-1E+10	1	-1E+10	1
4902549	88	C	01/18/2023	15:53	-133.302	47.554	0	258.00	0	6.0660	0	33.8740	0	26.658	0	255.686	0	102.8	4	34.0	4	-1E+10	1	-1E+10	1	-1E+10	1	-1E+10	1	-1E+10	1	-1E+10	1
4902549	88	C	01/18/2023	15:53	-133.302	47.554	0	258.90	0	6.0550	0	33.8740	0	26.659	0	256.577	0	102.3	4	33.8	4	-1E+10	1	-1E+10	1	-1E+10	1	-1E+10	1	-1E+10	1	-1E+10	1
4902549	88	C	01/18/2023	15:53	-133.302	47.554	0	259.70	0	6.0440	0	33.8740	0	26.660	0	257.369	0	101.9	4	33.7	4	-1E+10	1	-1E+10	1	-1E+10	1	-1E+10	1	-1E+10	1	-1E+10	1
4902549	88	C	01/18/2023	15:53	-133.302	47.554	0	261.00	0	6.0100	0	33.8740	0	26.665	0	258.657	0	101.1	4	33.4	4	-1E+10	1	-1E+10	1	-1E+10	1	-1E+10	1	-1E+10	1	-1E+10	1
4902549	88	C	01/18/2023	15:53	-133.302	47.554	0	262.30	0	5.9640	0	33.8750	0	26.671	0	259.944	0	100.4	4	33.1	4	-1E+10	1	-1E+10	1	-1E+10	1	-1E+10	1	-1E+10	1	-1E+10	1
4902549	88	C	01/18/2023	15:53	-133.302	47.554	0	263.10	0	5.9600	0	33.8740	0	26.671	0	260.737	0	99.8	4	32.9	4	-1E+10	1	-1E+10	1	-1E+10	1	-1E+10	1	-1E+10	1	-1E+10	1
4902549	88	C	01/18/2023	15:53	-133.302	47.554	0	264.00	0	5.9430	0	33.8770	0	26.675	0	261.628	0	99.3	4	32.8	4	-1E+10	1	-1E+10	1	-1E+10	1	-1E+10	1	-1E+10	1	-1E+10	1
4902549	88	C	01/18/2023	15:53	-133.302	47.554	0	264.80	0	5.9390	0	33.8780	0	26.677	0	262.420	0	98.9	4	32.6	4	-1E+10	1	-1E+10	1	-1E+10	1	-1E+10	1	-1E+10	1	-1E+10	1
4902549	88	C	01/18/2023	15:53	-133.302	47.554	0	265.60	0	5.9380	0	33.8790	0	26.678	0	263.213	0	98.6	4	32.5	4	-1E+10	1	-1E+10	1	-1E+10	1	-1E+10	1	-1E+10	1	-1E+10	1
4902549	88	C	01/18/2023	15:53	-133.302	47.554	0	266.90	0	5.9360	0	33.8800	0	26.679	0	264.500	0	98.0	4	32.3	4	-1E+10	1	-1E+10	1	-1E+10	1	-1E+10	1	-1E+10	1	-1E+10	1
4902549	88	C	01/18/2023	15:53	-133.302	47.554	0	268.20	0	5.9260	0	33.8810	0	26.681	0	265.788	0	97.7	4	32.2	4	-1E+10	1	-1E+10	1	-1E+10	1	-1E+10	1	-1E+10	1	-1E+10	1
4902549	88	C	01/18/2023	15:53	-133.302	47.554	0	269.00	0	5.8880	0	33.8940	0	26.696	0	266.580	0	97.4	4	32.1	4	-1E+10	1	-1E+10	1	-1E+10	1	-1E+10	1	-1E+10	1	-1E+10	1
4902549	88	C	01/18/2023	15:53	-133.302	47.554	0	269.80	0	5.8570	0	33.8810	0	26.689	0	267.372	0	97.2	4	32.0	4	-1E+10	1	-1E+10	1	-1E+10	1	-1E+10	1	-1E+10	1	-1E+10	1
4902549	88	C	01/18/2023	15:53	-133.302	47.554	0	270.70	0	5.8550	0	33.8800	0	26.689	0	268.264	0	96.8	4	31.9	4	-1E+10	1	-1E+10	1	-1E+10	1	-1E+10	1	-1E+10	1	-1E+10	1
4902549	88	C	01/18/2023	15:53	-133.302	47.554	0	271.90	0	5.8500	0	33.8800	0	26.689	0	269.452	0	96.2	4	31.7	4	-1E+10	1	-1E+10	1	-1E+10	1	-1E+10	1	-1E+10	1	-1E+10	1
4902549	88	C	01/18/2023	15:53	-133.302	47.554	0	273.20	0	5.8440	0	33.8790	0	26.689	0	270.740	0	95.5	4	31.4	4	-1E+10	1	-1E+10	1	-1E+10	1	-1E+10	1	-1E+10	1	-1E+10	1
4902549	88	C	01/18/2023	15:53	-133.302	47.554	0	274.00	0	5.8300	0	33.8800	0	26.692	0	271.532	0	94.9	4	31.2	4	-1E+10	1	-1E+10	1	-1E+10	1	-1E+10	1	-1E+10	1	-1E+10	1
4902549	88	C	01/18/2023	15:53	-133.302	47.554	0	274.90	0	5.8220	0	33.8810	0	26.694	0	272.423	0	94.4	4	31.0	4	-1E+10	1	-1E+10	1	-1E+10	1	-1E+10	1	-1E+10	1	-1E+10	1
4902549	88	C	01/18/2023	15:53	-133.302	47.554	0	275.70	0	5.8020	0	33.8830	0	26.698	0	273.215	0	93.9	4	30.9	4	-1E+10	1	-1E+10	1	-1E+10	1	-1E+10	1	-1E+10	1	-1E+10	1
4902549	88	C	01/18/2023	15:53	-133.302	47.554	0	277.00	0	5.7800	0	33.8850	0	26.702	0	274.503	0	93.3	4	30.7	4	-1E+10	1	-1E+10	1	-1E+10	1	-1E+10	1	-1E+10	1	-1E+10	1
4902549	88	C	01/18/2023	15:53	-133.302	47.554	0	278.20	0	5.7690	0	33.8860	0	26.704	0	275.691	0	92.8	4	30.5	4	-1E+10	1	-1E+10	1	-1E+10	1	-1E+10	1	-1E+10	1	-1E+10	1
4902549	88	C	01/18/2023	15:53	-133.302	47.554	0	279.10	0	5.7660	0	33.8860	0	26.704	0	276.582	0	92.4	4	30.3	4	-1E+10	1	-1E+10	1	-1E+10	1	-1E+10	1	-1E+10	1	-1E+10	1
4902549	88	C	01/18/2023	15:53	-133.302	47.554	0	279.90	0	5.7650	0	33.8850	0	26.704	0	277.375	0	91.9	4	30.2	4	-1E+10	1	-1E+10	1	-1E+10	1	-1E+10	1	-1E+10	1	-1E+10	1
4902549	88	C	01/18/2023	15:53	-133.302	47.554	0	280.80	0	5.7520	0	33.8870	0	26.707	0	278.266	0	91.4	4	30.0	4	-1E+10	1	-1E+10	1	-1E+10	1	-1E+10	1	-1E+10	1	-1E+10	1
4902549	88	C	01/18/2023	15:53	-133.302	47.554	0	281.60	0	5.7450	0	33.8880	0	26.709	0	279.058	0	91.0	4	29.9	4	-1E+10	1	-1E+10	1	-1E+10	1	-1E+10	1	-1E+10	1	-1E+10	1
4902549	88	C	01/18/2023	15:53	-133.302	47.554	0	282.90	0	5.7310	0	33.8890	0	26.711	0	280.346	0	90.4	4	29.7	4	-1E+10	1	-1E+10	1	-1E+10	1	-1E+10	1	-1E+10	1	-1E+10	1
4902549	88	C	01/18/2023	15:53	-133.302	47.554	0	284.20	0	5.7180	0	33.8900	0	26.713	0	281.633	0	89.7	4	29.4	4	-1E+10	1	-1E+10	1	-1E+10	1	-1E+10	1	-1E+10	1	-1E+10	1
4902549	88	C	01/18/2023	15:53	-133.302	47.554	0	285.00	0	5.7120	0	33.8910	0	26.715	0	282.425	0	89.3	4	29.3	4	-1E+10	1	-1E+10	1	-1E+10	1	-1E+10	1	-1E+10	1	-1E+10	1
4902549	88	C	01/18/2023	15:53	-133.302	47.554	0	285.90	0	5.7040	0	33.8910	0	26.716	0	283.316	0	88.9	4	29.2	4	-1E+10	1	-1E+10	1	-1E+10	1	-1E+10	1	-1E+10	1	-1E+10	1
4902549	88	C	01/18/2023	15:53	-133.302	47.554	0	286.70	0	5.6990	0	33.8910	0	26.717	0	284.109	0	88.5	4	29.0	4	-1E+10	1	-1E+10	1	-1E+10	1	-1E+10	1	-1E+10	1	-1E+10	1
4902549	88	C	01/18/2023	15:53	-133.302	47.554	0	287.60	0	5.6890	0	33.8920	0	26.719	0	285.000	0	88.1	4	28.9	4	-1E+10	1	-1E+10	1	-1E+10	1	-1E+10	1	-1E+10	1	-1E+10	1
4902549	88	C	01/18/2023	15:53	-133.302	47.554	0	288.90	0	5.6780	0	33.8940	0	26.722	0	286.287	0	87.6	4	28.7	4	-1E+10	1	-1E+10	1	-1E+10	1	-1E+10	1	-1E+10	1	-1E+10	1
4902549	88	C	01/18/2023	15:53	-133.302	47.554	0	290.20	0	5.6750	0	33.8940	0	26.722	0	287.575	0	87.1	4	28.6	4	-1E+10	1	-1E+10	1	-1E+10	1	-1E+10	1	-1E+10	1	-1E+10	1
4902549	88	C	01/18/2023	15:53	-133.302	47.554	0	291.10	0	5.6720	0	33.8940	0	26.722	0	288.466	0	86.7	4	28.4	4	-1E+10	1	-1E+10	1	-1E+10	1	-1E+10	1	-1E+10	1	-1E+10	1
4902549	88	C	01/18/2023	15:53	-133.302	47.554	0	291.90	0	5.6730	0	33.8930	0	26.721	0	289.258	0	86.3	4	28.3	4	-1E+10	1	-1E+10	1	-1E+10	1	-1E+10	1	-1E+10	1	-1E+10	1
4902549	88	C	01/18/2023	15:53	-133.302	47.554	0	292.80	0	5.6680	0	33.8960	0	26.724	0	290.149	0	85.8	4	28.1	4	-1E+10	1	-1E+10	1	-1E+10	1	-1E+10	1	-1E+10	1	-1E+10	1
4902549	88	C	01/18/2023	15:53	-133.302	47.554	0	293.70	0	5.6500	0	33.8970	0	26.727	0	291.040	0	85.4	4	28.0	4	-1E+10	1	-1E+10	1	-1E+10	1	-1E+10	1	-1E+10	1	-1E+10	1
4902549	88	C	01/18/2023	15:53	-133.302	47.554	0	294.90	0	5.6300	0	33.8970	0	26.730	0	292.229	0	84.8	4	27.8	4	-1E+10	1	-1E+10	1	-1E+10	1	-1E+10	1	-1E+10	1	-1E+10	1
4902549	88	C	01/18/2023	15:53	-133.302	47.554	0	296.30	0	5.6190	0	33.8980	0	26.732	0	293.615	0	84.2	4	27.6	4	-1E+10	1	-1E+10	1	-1E+10	1	-1E+10	1	-1E+10	1	-1E+10	1
4902549	88	C	01/18/2023	15:53	-133.302	47.554	0	297.20	0	5.6040	0	33.8990	0	26.735	0	294.506	0	83.8	4	27.4	4	-1E+10	1	-1E+10	1	-1E+10	1	-1E+10	1	-1E+10	1	-1E+10	1
4902549	88	C	01/18/2023	15:53	-133.302	47.554	0	298.00	0	5.5960	0	33.8990	0	26.736	0	295.298	0	83.3	4	27.3	4	-1E+10	1	-1E+10	1	-1E+10	1	-1E+10	1	-1E+10	1	-1E+10	1
4902549	88	C	01/18/2023	15:53	-133.302	47.554	0	298.90	0	5.5940	0	33.9000	0	26.737	0	296.190	0	82.9	4	27.1	4	-1E+10	1	-1E+10	1	-1E+10	1	-1E+10	1	-1E+10	1	-1E+10	1
4902549	88	C	01/18/2023	15:53	-133.302	47.554	0	299.80	0	5.5900	0	33.9010	0	26.738	0	297.081	0	82.5	4	27.0	4	-1E+10	1	-1E+10	1	-1E+10	1	-1E+10	1	-1E+10	1	-1E+10	1
4902549	88	C	01/18/2023	15:53	-133.302	47.554	0	300.70	0	5.5810	0	33.9010	0	26.739	0	297.972	0	82.1	4	26.9	4	-1E+10	1	-1E+10	1	-1E+10	1	-1E+10	1	-1E+10	1	-1E+10	1
4902549	88	C	01/18/2023	15:53	-133.302	47.554	0	302.00	0	5.5670	0	33.9030	0	26.742	0	299.259	0	81.7	4	26.7	4	-1E+10	1	-1E+10	1	-1E+10	1	-1E+10	1	-1E+10	1	-1E+10	1
4902549	88	C	01/18/2023	15:53	-133.302	47.554	0	303.30	0	5.5540	0	33.9050	0	26.745	0	300.547	0	81.2	4	26.5	4	-1E+10	1	-1E+10	1	-1E+10	1	-1E+10	1	-1E+10	1	-1E+10	1
4902549	88	C	01/18/2023	15:53	-133.302	47.554	0	304.20	0	5.5530	0	33.9040	0	26.745	0	301.438	0	80.9	4	26.5	4	-1E+10	1	-1E+10	1	-1E+10	1	-1E+10	1	-1E+10	1	-1E+10	1
4902549	88	C	01/18/2023	15:53	-133.302	47.554	0	305.10	0	5.5490	0	33.9060	0	26.747	0	302.329	0	80.6	4	26.3	4	-1E+10	1	-1E+10	1	-1E+10	1	-1E+10	1	-1E+10	1	-1E+10	1
4902549	88	C	01/18/2023	15:53	-133.302	47.554	0	306.00	0	5.5420	0	33.9050	0	26.747	0	303.220	0	80.2	4	26.2	4	-1E+10	1	-1E+10	1	-1E+10	1	-1E+10	1	-1E+10	1	-1E+10	1
4902549	88	C	01/18/2023	15:53	-133.302	47.554	0	306.90	0	5.5380	0	33.9060	0	26.748	0	304.111	0	79.9	4	26.1	4	-1E+10	1	-1E+10	1	-1E+10	1	-1E+10	1	-1E+10	1	-1E+10	1
4902549	88	C	01/18/2023	15:53	-133.302	47.554	0	307.80	0	5.5340	0	33.9060	0	26.749	0	305.002	0	79.5	4	26.0	4	-1E+10	1	-1E+10	1	-1E+10	1	-1E+10	1	-1E+10	1	-1E+10	1
4902549	88	C	01/18/2023	15:53	-133.302	47.554	0	308.70	0	5.5280	0	33.9070	0	26.750	0	305.894	0	79.1	4	25.8	4	-1E+10	1	-1E+10	1	-1E+10	1	-1E+10	1	-1E+10	1	-1E+10	1
4902549	88	C	01/18/2023	15:53	-133.302	47.554	0	309.60	0	5.5220	0	33.9070	0	26.751	0	306.785	0	78.7	4	25.7	4	-1E+10	1	-1E+10	1	-1E+10	1	-1E+10	1	-1E+10	1	-1E+10	1
4902549	88	C	01/18/2023	15:53	-133.302	47.554	0	310.90	0	5.5170	0	33.9080	0	26.752	0	308.072	0	78.0	4	25.5	4	-1E+10	1	-1E+10	1	-1E+10	1	-1E+10	1	-1E+10	1	-1E+10	1
4902549	88	C	01/18/2023	15:53	-133.302	47.554	0	312.30	0	5.5070	0	33.9090	0	26.754	0	309.458	0	77.4	4	25.3	4	-1E+10	1	-1E+10	1	-1E+10	1	-1E+10	1	-1E+10	1	-1E+10	1
4902549	88	C	01/18/2023	15:53	-133.302	47.554	0	313.20	0	5.4910	0	33.9120	0	26.759	0	310.349	0	77.0	4	25.1	4	-1E+10	1	-1E+10	1	-1E+10	1	-1E+10	1	-1E+10	1	-1E+10	1
4902549	88	C	01/18/2023	15:53	-133.302	47.554	0	314.10	0	5.4850	0	33.9110	0	26.758	0	311.240	0	76.6	4	25.0	4	-1E+10	1	-1E+10	1	-1E+10	1	-1E+10	1	-1E+10	1	-1E+10	1
4902549	88	C	01/18/2023	15:53	-133.302	47.554	0	314.90	0	5.4810	0	33.9110	0	26.759	0	312.033	0	76.2	4	24.9	4	-1E+10	1	-1E+10	1	-1E+10	1	-1E+10	1	-1E+10	1	-1E+10	1
4902549	88	C	01/18/2023	15:53	-133.302	47.554	0	315.80	0	5.4770	0	33.9120	0	26.760	0	312.924	0	75.7	4	24.7	4	-1E+10	1	-1E+10	1	-1E+10	1	-1E+10	1	-1E+10	1	-1E+10	1
4902549	88	C	01/18/2023	15:53	-133.302	47.554	0	316.70	0	5.4660	0	33.9130	0	26.762	0	313.815	0	75.4	4	24.6	4	-1E+10	1	-1E+10	1	-1E+10	1	-1E+10	1	-1E+10	1	-1E+10	1
4902549	88	C	01/18/2023	15:53	-133.302	47.554	0	317.60	0	5.4650	0	33.9140	0	26.763	0	314.706	0	75.0	4	24.5	4	-1E+10	1	-1E+10	1	-1E+10	1	-1E+10	1	-1E+10	1	-1E+10	1
4902549	88	C	01/18/2023	15:53	-133.302	47.554	0	318.50	0	5.4630	0	33.9150	0	26.764	0	315.597	0	74.7	4	24.4	4	-1E+10	1	-1E+10	1	-1E+10	1	-1E+10	1	-1E+10	1	-1E+10	1
4902549	88	C	01/18/2023	15:53	-133.302	47.554	0	319.90	0	5.4530	0	33.9160	0	26.766	0	316.983	0	74.2	4	24.2	4	-1E+10	1	-1E+10	1	-1E+10	1	-1E+10	1	-1E+10	1	-1E+10	1
4902549	88	C	01/18/2023	15:53	-133.302	47.554	0	321.20	0	5.4500	0	33.9180	0	26.768	0	318.270	0	73.7	4	24.1	4	-1E+10	1	-1E+10	1	-1E+10	1	-1E+10	1	-1E+10	1	-1E+10	1
4902549	88	C	01/18/2023	15:53	-133.302	47.554	0	322.10	0	5.4500	0	33.9170	0	26.767	0	319.161	0	73.4	4	23.9	4	-1E+10	1	-1E+10	1	-1E+10	1	-1E+10	1	-1E+10	1	-1E+10	1
4902549	88	C	01/18/2023	15:53	-133.302	47.554	0	323.10	0	5.4470	0	33.9170	0	26.768	0	320.152	0	73.0	4	23.8	4	-1E+10	1	-1E+10	1	-1E+10	1	-1E+10	1	-1E+10	1	-1E+10	1
4902549	88	C	01/18/2023	15:53	-133.302	47.554	0	324.00	0	5.4440	0	33.9180	0	26.769	0	321.043	0	72.5	4	23.6	4	-1E+10	1	-1E+10	1	-1E+10	1	-1E+10	1	-1E+10	1	-1E+10	1
4902549	88	C	01/18/2023	15:53	-133.302	47.554	0	324.90	0	5.4340	0	33.9190	0	26.771	0	321.934	0	72.0	4	23.5	4	-1E+10	1	-1E+10	1	-1E+10	1	-1E+10	1	-1E+10	1	-1E+10	1
4902549	88	C	01/18/2023	15:53	-133.302	47.554	0	325.80	0	5.4310	0	33.9180	0	26.771	0	322.825	0	71.6	4	23.3	4	-1E+10	1	-1E+10	1	-1E+10	1	-1E+10	1	-1E+10	1	-1E+10	1
4902549	88	C	01/18/2023	15:53	-133.302	47.554	0	326.70	0	5.4120	0	33.9230	0	26.777	0	323.716	0	71.2	4	23.2	4	-1E+10	1	-1E+10	1	-1E+10	1	-1E+10	1	-1E+10	1	-1E+10	1
4902549	88	C	01/18/2023	15:53	-133.302	47.554	0	327.60	0	5.4020	0	33.9230	0	26.778	0	324.607	0	70.9	4	23.1	4	-1E+10	1	-1E+10	1	-1E+10	1	-1E+10	1	-1E+10	1	-1E+10	1
4902549	88	C	01/18/2023	15:53	-133.302	47.554	0	328.90	0	5.3950	0	33.9250	0	26.780	0	325.894	0	70.6	4	23.0	4	-1E+10	1	-1E+10	1	-1E+10	1	-1E+10	1	-1E+10	1	-1E+10	1
4902549	88	C	01/18/2023	15:53	-133.302	47.554	0	330.40	0	5.3940	0	33.9250	0	26.780	0	327.379	0	70.2	4	22.9	4	-1E+10	1	-1E+10	1	-1E+10	1	-1E+10	1	-1E+10	1	-1E+10	1
4902549	88	C	01/18/2023	15:53	-133.302	47.554	0	331.30	0	5.3930	0	33.9250	0	26.781	0	328.270	0	69.9	4	22.8	4	-1E+10	1	-1E+10	1	-1E+10	1	-1E+10	1	-1E+10	1	-1E+10	1
4902549	88	C	01/18/2023	15:53	-133.302	47.554	0	332.20	0	5.3880	0	33.9260	0	26.782	0	329.161	0	69.6	4	22.7	4	-1E+10	1	-1E+10	1	-1E+10	1	-1E+10	1	-1E+10	1	-1E+10	1
4902549	88	C	01/18/2023	15:53	-133.302	47.554	0	333.10	0	5.3860	0	33.9260	0	26.782	0	330.052	0	69.3	4	22.6	4	-1E+10	1	-1E+10	1	-1E+10	1	-1E+10	1	-1E+10	1	-1E+10	1
4902549	88	C	01/18/2023	15:53	-133.302	47.554	0	334.10	0	5.3860	0	33.9260	0	26.782	0	331.042	0	69.0	4	22.5	4	-1E+10	1	-1E+10	1	-1E+10	1	-1E+10	1	-1E+10	1	-1E+10	1
4902549	88	C	01/18/2023	15:53	-133.302	47.554	0	335.00	0	5.3840	0	33.9270	0	26.783	0	331.933	0	68.6	4	22.3	4	-1E+10	1	-1E+10	1	-1E+10	1	-1E+10	1	-1E+10	1	-1E+10	1
4902549	88	C	01/18/2023	15:53	-133.302	47.554	0	335.90	0	5.3820	0	33.9260	0	26.783	0	332.824	0	68.2	4	22.2	4	-1E+10	1	-1E+10	1	-1E+10	1	-1E+10	1	-1E+10	1	-1E+10	1
4902549	88	C	01/18/2023	15:53	-133.302	47.554	0	336.90	0	5.3730	0	33.9300	0	26.787	0	333.814	0	67.8	4	22.1	4	-1E+10	1	-1E+10	1	-1E+10	1	-1E+10	1	-1E+10	1	-1E+10	1
4902549	88	C	01/18/2023	15:53	-133.302	47.554	0	337.80	0	5.3640	0	33.9290	0	26.787	0	334.706	0	67.4	4	21.9	4	-1E+10	1	-1E+10	1	-1E+10	1	-1E+10	1	-1E+10	1	-1E+10	1
4902549	88	C	01/18/2023	15:53	-133.302	47.554	0	338.80	0	5.3510	0	33.9330	0	26.792	0	335.696	0	67.2	4	21.9	4	-1E+10	1	-1E+10	1	-1E+10	1	-1E+10	1	-1E+10	1	-1E+10	1
4902549	88	C	01/18/2023	15:53	-133.302	47.554	0	339.70	0	5.3460	0	33.9310	0	26.791	0	336.587	0	66.8	4	21.7	4	-1E+10	1	-1E+10	1	-1E+10	1	-1E+10	1	-1E+10	1	-1E+10	1
4902549	88	C	01/18/2023	15:53	-133.302	47.554	0	340.60	0	5.3400	0	33.9310	0	26.792	0	337.478	0	66.5	4	21.6	4	-1E+10	1	-1E+10	1	-1E+10	1	-1E+10	1	-1E+10	1	-1E+10	1
4902549	88	C	01/18/2023	15:53	-133.302	47.554	0	341.60	0	5.3300	0	33.9330	0	26.794	0	338.468	0	66.2	4	21.5	4	-1E+10	1	-1E+10	1	-1E+10	1	-1E+10	1	-1E+10	1	-1E+10	1
4902549	88	C	01/18/2023	15:53	-133.302	47.554	0	342.50	0	5.3230	0	33.9330	0	26.795	0	339.359	0	65.9	4	21.4	4	-1E+10	1	-1E+10	1	-1E+10	1	-1E+10	1	-1E+10	1	-1E+10	1
4902549	88	C	01/18/2023	15:53	-133.302	47.554	0	343.90	0	5.3170	0	33.9330	0	26.796	0	340.745	0	65.5	4	21.3	4	-1E+10	1	-1E+10	1	-1E+10	1	-1E+10	1	-1E+10	1	-1E+10	1
4902549	88	C	01/18/2023	15:53	-133.302	47.554	0	345.40	0	5.3110	0	33.9340	0	26.797	0	342.230	0	65.0	4	21.1	4	-1E+10	1	-1E+10	1	-1E+10	1	-1E+10	1	-1E+10	1	-1E+10	1
4902549	88	C	01/18/2023	15:53	-133.302	47.554	0	346.30	0	5.3070	0	33.9350	0	26.799	0	343.121	0	64.5	4	21.0	4	-1E+10	1	-1E+10	1	-1E+10	1	-1E+10	1	-1E+10	1	-1E+10	1
4902549	88	C	01/18/2023	15:53	-133.302	47.554	0	347.30	0	5.3040	0	33.9360	0	26.800	0	344.111	0	64.2	4	20.9	4	-1E+10	1	-1E+10	1	-1E+10	1	-1E+10	1	-1E+10	1	-1E+10	1
4902549	88	C	01/18/2023	15:53	-133.302	47.554	0	348.30	0	5.2980	0	33.9360	0	26.801	0	345.101	0	63.7	4	20.7	4	-1E+10	1	-1E+10	1	-1E+10	1	-1E+10	1	-1E+10	1	-1E+10	1
4902549	88	C	01/18/2023	15:53	-133.302	47.554	0	349.20	0	5.2920	0	33.9360	0	26.801	0	345.992	0	63.3	4	20.6	4	-1E+10	1	-1E+10	1	-1E+10	1	-1E+10	1	-1E+10	1	-1E+10	1
4902549	88	C	01/18/2023	15:53	-133.302	47.554	0	350.20	0	5.2830	0	33.9380	0	26.804	0	346.982	0	62.8	4	20.4	4	-1E+10	1	-1E+10	1	-1E+10	1	-1E+10	1	-1E+10	1	-1E+10	1
4902549	88	C	01/18/2023	15:53	-133.302	47.554	0	353.00	0	5.2600	0	33.9410	0	26.809	0	349.753	0	61.9	4	20.1	4	-1E+10	1	-1E+10	1	-1E+10	1	-1E+10	1	-1E+10	1	-1E+10	1
4902549	88	C	01/18/2023	15:53	-133.302	47.554	0	357.80	0	5.2270	0	33.9450	0	26.816	0	354.505	0	60.7	4	19.7	4	-1E+10	1	-1E+10	1	-1E+10	1	-1E+10	1	-1E+10	1	-1E+10	1
4902549	88	C	01/18/2023	15:53	-133.302	47.554	0	362.70	0	5.1980	0	33.9480	0	26.822	0	359.356	0	59.4	4	19.3	4	-1E+10	1	-1E+10	1	-1E+10	1	-1E+10	1	-1E+10	1	-1E+10	1
4902549	88	C	01/18/2023	15:53	-133.302	47.554	0	368.00	0	5.1690	0	33.9510	0	26.828	0	364.602	0	58.2	4	18.9	4	-1E+10	1	-1E+10	1	-1E+10	1	-1E+10	1	-1E+10	1	-1E+10	1
4902549	88	C	01/18/2023	15:53	-133.302	47.554	0	373.30	0	5.1430	0	33.9540	0	26.833	0	369.849	0	56.7	4	18.4	4	-1E+10	1	-1E+10	1	-1E+10	1	-1E+10	1	-1E+10	1	-1E+10	1
4902549	88	C	01/18/2023	15:53	-133.302	47.554	0	378.00	0	5.1120	0	33.9580	0	26.840	0	374.501	0	55.4	4	17.9	4	-1E+10	1	-1E+10	1	-1E+10	1	-1E+10	1	-1E+10	1	-1E+10	1
4902549	88	C	01/18/2023	15:53	-133.302	47.554	0	382.80	0	5.0980	0	33.9610	0	26.844	0	379.252	0	53.8	4	17.4	4	-1E+10	1	-1E+10	1	-1E+10	1	-1E+10	1	-1E+10	1	-1E+10	1
4902549	88	C	01/18/2023	15:53	-133.302	47.554	0	388.00	0	5.0570	0	33.9670	0	26.853	0	384.399	0	52.1	4	16.8	4	-1E+10	1	-1E+10	1	-1E+10	1	-1E+10	1	-1E+10	1	-1E+10	1
4902549	88	C	01/18/2023	15:53	-133.302	47.554	0	393.20	0	5.0110	0	33.9730	0	26.863	0	389.546	0	51.0	4	16.5	4	-1E+10	1	-1E+10	1	-1E+10	1	-1E+10	1	-1E+10	1	-1E+10	1
4902549	88	C	01/18/2023	15:53	-133.302	47.554	0	398.00	0	4.9810	0	33.9750	0	26.868	0	394.297	0	50.0	4	16.1	4	-1E+10	1	-1E+10	1	-1E+10	1	-1E+10	1	-1E+10	1	-1E+10	1
4902549	88	C	01/18/2023	15:53	-133.302	47.554	0	402.80	0	4.9310	0	33.9790	0	26.877	0	399.048	0	49.1	4	15.8	4	-1E+10	1	-1E+10	1	-1E+10	1	-1E+10	1	-1E+10	1	-1E+10	1
4902549	88	C	01/18/2023	15:53	-133.302	47.554	0	407.70	0	4.8980	0	33.9810	0	26.883	0	403.897	0	48.4	4	15.6	4	-1E+10	1	-1E+10	1	-1E+10	1	-1E+10	1	-1E+10	1	-1E+10	1
4902549	88	C	01/18/2023	15:53	-133.302	47.554	0	412.50	0	4.8840	0	33.9810	0	26.884	0	408.648	0	47.5	4	15.3	4	-1E+10	1	-1E+10	1	-1E+10	1	-1E+10	1	-1E+10	1	-1E+10	1
4902549	88	C	01/18/2023	15:53	-133.302	47.554	0	417.90	0	4.8500	0	33.9850	0	26.891	0	413.992	0	46.0	4	14.8	4	-1E+10	1	-1E+10	1	-1E+10	1	-1E+10	1	-1E+10	1	-1E+10	1
4902549	88	C	01/18/2023	15:53	-133.302	47.554	0	423.30	0	4.7870	0	33.9930	0	26.905	0	419.336	0	44.7	4	14.4	4	-1E+10	1	-1E+10	1	-1E+10	1	-1E+10	1	-1E+10	1	-1E+10	1
4902549	88	C	01/18/2023	15:53	-133.302	47.554	0	427.90	0	4.7670	0	33.9980	0	26.911	0	423.888	0	43.7	4	14.0	4	-1E+10	1	-1E+10	1	-1E+10	1	-1E+10	1	-1E+10	1	-1E+10	1
4902549	88	C	01/18/2023	15:53	-133.302	47.554	0	432.70	0	4.7360	0	34.0020	0	26.918	0	428.638	0	43.0	4	13.8	4	-1E+10	1	-1E+10	1	-1E+10	1	-1E+10	1	-1E+10	1	-1E+10	1
4902549	88	C	01/18/2023	15:53	-133.302	47.554	0	437.80	0	4.7170	0	34.0050	0	26.922	0	433.685	0	42.4	4	13.6	4	-1E+10	1	-1E+10	1	-1E+10	1	-1E+10	1	-1E+10	1	-1E+10	1
4902549	88	C	01/18/2023	15:53	-133.302	47.554	0	443.00	0	4.7120	0	34.0060	0	26.923	0	438.831	0	41.8	4	13.4	4	-1E+10	1	-1E+10	1	-1E+10	1	-1E+10	1	-1E+10	1	-1E+10	1
4902549	88	C	01/18/2023	15:53	-133.302	47.554	0	448.20	0	4.6870	0	34.0110	0	26.930	0	443.976	0	41.2	4	13.2	4	-1E+10	1	-1E+10	1	-1E+10	1	-1E+10	1	-1E+10	1	-1E+10	1
4902549	88	C	01/18/2023	15:53	-133.302	47.554	0	453.20	0	4.6620	0	34.0130	0	26.935	0	448.924	0	41.0	4	13.1	4	-1E+10	1	-1E+10	1	-1E+10	1	-1E+10	1	-1E+10	1	-1E+10	1
4902549	88	C	01/18/2023	15:53	-133.302	47.554	0	458.20	0	4.6360	0	34.0150	0	26.939	0	453.871	0	40.5	4	13.0	4	-1E+10	1	-1E+10	1	-1E+10	1	-1E+10	1	-1E+10	1	-1E+10	1
4902549	88	C	01/18/2023	15:53	-133.302	47.554	0	462.90	0	4.6030	0	34.0170	0	26.944	0	458.521	0	40.0	4	12.8	4	-1E+10	1	-1E+10	1	-1E+10	1	-1E+10	1	-1E+10	1	-1E+10	1
4902549	88	C	01/18/2023	15:53	-133.302	47.554	0	467.70	0	4.5850	0	34.0190	0	26.948	0	463.271	0	38.8	4	12.4	4	-1E+10	1	-1E+10	1	-1E+10	1	-1E+10	1	-1E+10	1	-1E+10	1
4902549	88	C	01/18/2023	15:53	-133.302	47.554	0	472.90	0	4.5670	0	34.0230	0	26.953	0	468.415	0	37.5	4	12.0	4	-1E+10	1	-1E+10	1	-1E+10	1	-1E+10	1	-1E+10	1	-1E+10	1
4902549	88	C	01/18/2023	15:53	-133.302	47.554	0	477.90	0	4.5590	0	34.0270	0	26.957	0	473.362	0	36.2	4	11.6	4	-1E+10	1	-1E+10	1	-1E+10	1	-1E+10	1	-1E+10	1	-1E+10	1
4902549	88	C	01/18/2023	15:53	-133.302	47.554	0	482.80	0	4.5340	0	34.0310	0	26.963	0	478.210	0	34.7	4	11.1	4	-1E+10	1	-1E+10	1	-1E+10	1	-1E+10	1	-1E+10	1	-1E+10	1
4902549	88	C	01/18/2023	15:53	-133.302	47.554	0	487.80	0	4.5230	0	34.0370	0	26.969	0	483.157	0	32.2	4	10.3	4	-1E+10	1	-1E+10	1	-1E+10	1	-1E+10	1	-1E+10	1	-1E+10	1
4902549	88	C	01/18/2023	15:53	-133.302	47.554	0	492.90	0	4.5270	0	34.0480	0	26.977	0	488.202	0	30.0	4	9.6	4	-1E+10	1	-1E+10	1	-1E+10	1	-1E+10	1	-1E+10	1	-1E+10	1
4902549	88	C	01/18/2023	15:53	-133.302	47.554	0	498.00	0	4.5320	0	34.0590	0	26.986	0	493.248	0	28.4	4	9.1	4	-1E+10	1	-1E+10	1	-1E+10	1	-1E+10	1	-1E+10	1	-1E+10	1
4902549	88	C	01/18/2023	15:53	-133.302	47.554	0	502.60	0	4.5240	0	34.0650	0	26.991	0	497.798	0	27.7	4	8.8	4	-1E+10	1	-1E+10	1	-1E+10	1	-1E+10	1	-1E+10	1	-1E+10	1
4902549	88	C	01/18/2023	15:53	-133.302	47.554	0	507.80	0	4.4900	0	34.0690	0	26.998	0	502.942	0	27.2	4	8.7	4	-1E+10	1	-1E+10	1	-1E+10	1	-1E+10	1	-1E+10	1	-1E+10	1
4902549	88	C	01/18/2023	15:53	-133.302	47.554	0	513.00	0	4.4680	0	34.0730	0	27.004	0	508.086	0	26.4	4	8.4	4	-1E+10	1	-1E+10	1	-1E+10	1	-1E+10	1	-1E+10	1	-1E+10	1
4902549	88	C	01/18/2023	15:53	-133.302	47.554	0	517.70	0	4.4630	0	34.0770	0	27.007	0	512.735	0	26.2	4	8.4	4	-1E+10	1	-1E+10	1	-1E+10	1	-1E+10	1	-1E+10	1	-1E+10	1
4902549	88	C	01/18/2023	15:53	-133.302	47.554	0	522.90	0	4.4230	0	34.0750	0	27.010	0	517.879	0	25.2	4	8.0	4	-1E+10	1	-1E+10	1	-1E+10	1	-1E+10	1	-1E+10	1	-1E+10	1
4902549	88	C	01/18/2023	15:53	-133.302	47.554	0	528.10	0	4.4360	0	34.0860	0	27.018	0	523.022	0	23.6	4	7.5	4	-1E+10	1	-1E+10	1	-1E+10	1	-1E+10	1	-1E+10	1	-1E+10	1
4902549	88	C	01/18/2023	15:53	-133.302	47.554	0	533.00	0	4.4400	0	34.0910	0	27.021	0	527.869	0	23.0	4	7.3	4	-1E+10	1	-1E+10	1	-1E+10	1	-1E+10	1	-1E+10	1	-1E+10	1
4902549	88	C	01/18/2023	15:53	-133.302	47.554	0	537.80	0	4.4270	0	34.0950	0	27.026	0	532.617	0	22.6	4	7.2	4	-1E+10	1	-1E+10	1	-1E+10	1	-1E+10	1	-1E+10	1	-1E+10	1
4902549	88	C	01/18/2023	15:53	-133.302	47.554	0	542.70	0	4.4160	0	34.0960	0	27.028	0	537.463	0	22.1	4	7.0	4	-1E+10	1	-1E+10	1	-1E+10	1	-1E+10	1	-1E+10	1	-1E+10	1
4902549	88	C	01/18/2023	15:53	-133.302	47.554	0	547.90	0	4.4000	0	34.1010	0	27.034	0	542.606	0	21.5	4	6.9	4	-1E+10	1	-1E+10	1	-1E+10	1	-1E+10	1	-1E+10	1	-1E+10	1
4902549	88	C	01/18/2023	15:53	-133.302	47.554	0	553.20	0	4.3820	0	34.1040	0	27.038	0	547.848	0	21.1	4	6.7	4	-1E+10	1	-1E+10	1	-1E+10	1	-1E+10	1	-1E+10	1	-1E+10	1
4902549	88	C	01/18/2023	15:53	-133.302	47.554	0	557.90	0	4.3590	0	34.1080	0	27.044	0	552.496	0	20.9	4	6.6	4	-1E+10	1	-1E+10	1	-1E+10	1	-1E+10	1	-1E+10	1	-1E+10	1
4902549	88	C	01/18/2023	15:53	-133.302	47.554	0	562.70	0	4.3220	0	34.1120	0	27.051	0	557.244	0	20.8	4	6.6	4	-1E+10	1	-1E+10	1	-1E+10	1	-1E+10	1	-1E+10	1	-1E+10	1
4902549	88	C	01/18/2023	15:53	-133.302	47.554	0	567.60	0	4.2880	0	34.1140	0	27.056	0	562.089	0	20.7	4	6.6	4	-1E+10	1	-1E+10	1	-1E+10	1	-1E+10	1	-1E+10	1	-1E+10	1
4902549	88	C	01/18/2023	15:53	-133.302	47.554	0	572.50	0	4.2500	0	34.1150	0	27.061	0	566.935	0	20.3	4	6.4	4	-1E+10	1	-1E+10	1	-1E+10	1	-1E+10	1	-1E+10	1	-1E+10	1
4902549	88	C	01/18/2023	15:53	-133.302	47.554	0	577.90	0	4.2490	0	34.1190	0	27.064	0	572.275	0	19.5	4	6.2	4	-1E+10	1	-1E+10	1	-1E+10	1	-1E+10	1	-1E+10	1	-1E+10	1
4902549	88	C	01/18/2023	15:53	-133.302	47.554	0	583.40	0	4.2280	0	34.1250	0	27.071	0	577.714	0	18.9	4	6.0	4	-1E+10	1	-1E+10	1	-1E+10	1	-1E+10	1	-1E+10	1	-1E+10	1
4902549	88	C	01/18/2023	15:53	-133.302	47.554	0	588.40	0	4.2130	0	34.1300	0	27.077	0	582.658	0	18.5	4	5.9	4	-1E+10	1	-1E+10	1	-1E+10	1	-1E+10	1	-1E+10	1	-1E+10	1
4902549	88	C	01/18/2023	15:53	-133.302	47.554	0	593.40	0	4.1900	0	34.1310	0	27.080	0	587.603	0	18.2	4	5.8	4	-1E+10	1	-1E+10	1	-1E+10	1	-1E+10	1	-1E+10	1	-1E+10	1
4902549	88	C	01/18/2023	15:53	-133.302	47.554	0	598.40	0	4.1700	0	34.1350	0	27.085	0	592.547	0	17.6	4	5.6	4	-1E+10	1	-1E+10	1	-1E+10	1	-1E+10	1	-1E+10	1	-1E+10	1
4902549	88	C	01/18/2023	15:53	-133.302	47.554	0	603.00	0	4.1620	0	34.1380	0	27.088	0	597.095	0	17.3	4	5.5	4	-1E+10	1	-1E+10	1	-1E+10	1	-1E+10	1	-1E+10	1	-1E+10	1
4902549	88	C	01/18/2023	15:53	-133.302	47.554	0	607.90	0	4.1230	0	34.1420	0	27.096	0	601.940	0	16.7	4	5.3	4	-1E+10	1	-1E+10	1	-1E+10	1	-1E+10	1	-1E+10	1	-1E+10	1
4902549	88	C	01/18/2023	15:53	-133.302	47.554	0	612.80	0	4.1520	0	34.1480	0	27.097	0	606.785	0	15.9	4	5.0	4	-1E+10	1	-1E+10	1	-1E+10	1	-1E+10	1	-1E+10	1	-1E+10	1
4902549	88	C	01/18/2023	15:53	-133.302	47.554	0	617.60	0	4.1570	0	34.1530	0	27.101	0	611.530	0	15.8	4	5.0	4	-1E+10	1	-1E+10	1	-1E+10	1	-1E+10	1	-1E+10	1	-1E+10	1
4902549	88	C	01/18/2023	15:53	-133.302	47.554	0	622.90	0	4.0970	0	34.1550	0	27.109	0	616.771	0	16.0	4	5.0	4	-1E+10	1	-1E+10	1	-1E+10	1	-1E+10	1	-1E+10	1	-1E+10	1
4902549	88	C	01/18/2023	15:53	-133.302	47.554	0	628.20	0	4.0530	0	34.1530	0	27.112	0	622.011	0	15.7	4	5.0	4	-1E+10	1	-1E+10	1	-1E+10	1	-1E+10	1	-1E+10	1	-1E+10	1
4902549	88	C	01/18/2023	15:53	-133.302	47.554	0	632.90	0	4.0380	0	34.1590	0	27.118	0	626.657	0	15.1	4	4.8	4	-1E+10	1	-1E+10	1	-1E+10	1	-1E+10	1	-1E+10	1	-1E+10	1
4902549	88	C	01/18/2023	15:53	-133.302	47.554	0	637.70	0	4.0320	0	34.1640	0	27.123	0	631.403	0	14.8	4	4.7	4	-1E+10	1	-1E+10	1	-1E+10	1	-1E+10	1	-1E+10	1	-1E+10	1
4902549	88	C	01/18/2023	15:53	-133.302	47.554	0	642.90	0	4.0070	0	34.1660	0	27.127	0	636.543	0	14.5	4	4.6	4	-1E+10	1	-1E+10	1	-1E+10	1	-1E+10	1	-1E+10	1	-1E+10	1
4902549	88	C	01/18/2023	15:53	-133.302	47.554	0	647.80	0	4.0020	0	34.1690	0	27.130	0	641.387	0	14.1	4	4.4	4	-1E+10	1	-1E+10	1	-1E+10	1	-1E+10	1	-1E+10	1	-1E+10	1
4902549	88	C	01/18/2023	15:53	-133.302	47.554	0	652.70	0	4.0080	0	34.1760	0	27.135	0	646.231	0	13.7	4	4.3	4	-1E+10	1	-1E+10	1	-1E+10	1	-1E+10	1	-1E+10	1	-1E+10	1
4902549	88	C	01/18/2023	15:53	-133.302	47.554	0	657.70	0	3.9920	0	34.1790	0	27.139	0	651.174	0	13.5	4	4.3	4	-1E+10	1	-1E+10	1	-1E+10	1	-1E+10	1	-1E+10	1	-1E+10	1
4902549	88	C	01/18/2023	15:53	-133.302	47.554	0	662.70	0	3.9630	0	34.1830	0	27.145	0	656.116	0	13.2	4	4.2	4	-1E+10	1	-1E+10	1	-1E+10	1	-1E+10	1	-1E+10	1	-1E+10	1
4902549	88	C	01/18/2023	15:53	-133.302	47.554	0	667.80	0	3.9350	0	34.1840	0	27.149	0	661.158	0	13.0	4	4.1	4	-1E+10	1	-1E+10	1	-1E+10	1	-1E+10	1	-1E+10	1	-1E+10	1
4902549	88	C	01/18/2023	15:53	-133.302	47.554	0	672.90	0	3.9240	0	34.1870	0	27.152	0	666.199	0	12.8	4	4.0	4	-1E+10	1	-1E+10	1	-1E+10	1	-1E+10	1	-1E+10	1	-1E+10	1
4902549	88	C	01/18/2023	15:53	-133.302	47.554	0	678.10	0	3.9080	0	34.1890	0	27.155	0	671.338	0	12.5	4	3.9	4	-1E+10	1	-1E+10	1	-1E+10	1	-1E+10	1	-1E+10	1	-1E+10	1
4902549	88	C	01/18/2023	15:53	-133.302	47.554	0	682.90	0	3.8990	0	34.1910	0	27.158	0	676.083	0	12.2	4	3.8	4	-1E+10	1	-1E+10	1	-1E+10	1	-1E+10	1	-1E+10	1	-1E+10	1
4902549	88	C	01/18/2023	15:53	-133.302	47.554	0	687.80	0	3.8850	0	34.1950	0	27.163	0	680.926	0	12.0	4	3.8	4	-1E+10	1	-1E+10	1	-1E+10	1	-1E+10	1	-1E+10	1	-1E+10	1
4902549	88	C	01/18/2023	15:53	-133.302	47.554	0	692.70	0	3.8790	0	34.1970	0	27.165	0	685.769	0	11.9	4	3.7	4	-1E+10	1	-1E+10	1	-1E+10	1	-1E+10	1	-1E+10	1	-1E+10	1
4902549	88	C	01/18/2023	15:53	-133.302	47.554	0	697.60	0	3.8710	0	34.2000	0	27.168	0	690.612	0	11.7	4	3.7	4	-1E+10	1	-1E+10	1	-1E+10	1	-1E+10	1	-1E+10	1	-1E+10	1
4902549	88	C	01/18/2023	15:53	-133.302	47.554	0	702.60	0	3.8640	0	34.2040	0	27.172	0	695.553	0	11.5	4	3.6	4	-1E+10	1	-1E+10	1	-1E+10	1	-1E+10	1	-1E+10	1	-1E+10	1
4902549	88	C	01/18/2023	15:53	-133.302	47.554	0	707.60	0	3.8580	0	34.2070	0	27.175	0	700.495	0	11.3	4	3.6	4	-1E+10	1	-1E+10	1	-1E+10	1	-1E+10	1	-1E+10	1	-1E+10	1
4902549	88	C	01/18/2023	15:53	-133.302	47.554	0	712.60	0	3.8480	0	34.2130	0	27.181	0	705.436	0	11.3	4	3.6	4	-1E+10	1	-1E+10	1	-1E+10	1	-1E+10	1	-1E+10	1	-1E+10	1
4902549	88	C	01/18/2023	15:53	-133.302	47.554	0	717.70	0	3.8420	0	34.2160	0	27.184	0	710.476	0	11.3	4	3.5	4	-1E+10	1	-1E+10	1	-1E+10	1	-1E+10	1	-1E+10	1	-1E+10	1
4902549	88	C	01/18/2023	15:53	-133.302	47.554	0	722.80	0	3.8340	0	34.2180	0	27.186	0	715.516	0	11.0	4	3.5	4	-1E+10	1	-1E+10	1	-1E+10	1	-1E+10	1	-1E+10	1	-1E+10	1
4902549	88	C	01/18/2023	15:53	-133.302	47.554	0	727.90	0	3.8290	0	34.2210	0	27.189	0	720.556	0	10.7	4	3.4	4	-1E+10	1	-1E+10	1	-1E+10	1	-1E+10	1	-1E+10	1	-1E+10	1
4902549	88	C	01/18/2023	15:53	-133.302	47.554	0	733.00	0	3.8170	0	34.2240	0	27.193	0	725.596	0	10.3	4	3.2	4	-1E+10	1	-1E+10	1	-1E+10	1	-1E+10	1	-1E+10	1	-1E+10	1
4902549	88	C	01/18/2023	15:53	-133.302	47.554	0	738.00	0	3.8040	0	34.2280	0	27.197	0	730.536	0	9.8	4	3.1	4	-1E+10	1	-1E+10	1	-1E+10	1	-1E+10	1	-1E+10	1	-1E+10	1
4902549	88	C	01/18/2023	15:53	-133.302	47.554	0	743.10	0	3.7890	0	34.2320	0	27.202	0	735.576	0	9.4	4	2.9	4	-1E+10	1	-1E+10	1	-1E+10	1	-1E+10	1	-1E+10	1	-1E+10	1
4902549	88	C	01/18/2023	15:53	-133.302	47.554	0	748.20	0	3.7800	0	34.2350	0	27.205	0	740.615	0	9.0	4	2.8	4	-1E+10	1	-1E+10	1	-1E+10	1	-1E+10	1	-1E+10	1	-1E+10	1
4902549	88	C	01/18/2023	15:53	-133.302	47.554	0	753.30	0	3.7710	0	34.2380	0	27.209	0	745.654	0	8.7	4	2.7	4	-1E+10	1	-1E+10	1	-1E+10	1	-1E+10	1	-1E+10	1	-1E+10	1
4902549	88	C	01/18/2023	15:53	-133.302	47.554	0	758.40	0	3.7590	0	34.2410	0	27.212	0	750.693	0	8.3	4	2.6	4	-1E+10	1	-1E+10	1	-1E+10	1	-1E+10	1	-1E+10	1	-1E+10	1
4902549	88	C	01/18/2023	15:53	-133.302	47.554	0	762.90	0	3.7600	0	34.2450	0	27.215	0	755.140	0	8.1	4	2.5	4	-1E+10	1	-1E+10	1	-1E+10	1	-1E+10	1	-1E+10	1	-1E+10	1
4902549	88	C	01/18/2023	15:53	-133.302	47.554	0	767.50	0	3.7590	0	34.2490	0	27.219	0	759.684	0	8.0	4	2.5	4	-1E+10	1	-1E+10	1	-1E+10	1	-1E+10	1	-1E+10	1	-1E+10	1
4902549	88	C	01/18/2023	15:53	-133.302	47.554	0	772.90	0	3.7540	0	34.2530	0	27.222	0	765.019	0	7.9	4	2.5	4	-1E+10	1	-1E+10	1	-1E+10	1	-1E+10	1	-1E+10	1	-1E+10	1
4902549	88	C	01/18/2023	15:53	-133.302	47.554	0	777.90	0	3.7390	0	34.2540	0	27.225	0	769.959	0	7.7	4	2.4	4	-1E+10	1	-1E+10	1	-1E+10	1	-1E+10	1	-1E+10	1	-1E+10	1
4902549	88	C	01/18/2023	15:53	-133.302	47.554	0	782.50	0	3.7340	0	34.2580	0	27.229	0	774.504	0	7.6	4	2.4	4	-1E+10	1	-1E+10	1	-1E+10	1	-1E+10	1	-1E+10	1	-1E+10	1
4902549	88	C	01/18/2023	15:53	-133.302	47.554	0	787.50	0	3.7420	0	34.2620	0	27.231	0	779.443	0	7.4	4	2.3	4	-1E+10	1	-1E+10	1	-1E+10	1	-1E+10	1	-1E+10	1	-1E+10	1
4902549	88	C	01/18/2023	15:53	-133.302	47.554	0	792.60	0	3.7290	0	34.2640	0	27.234	0	784.482	0	7.3	4	2.3	4	-1E+10	1	-1E+10	1	-1E+10	1	-1E+10	1	-1E+10	1	-1E+10	1
4902549	88	C	01/18/2023	15:53	-133.302	47.554	0	797.80	0	3.7170	0	34.2680	0	27.238	0	789.619	0	7.0	4	2.2	4	-1E+10	1	-1E+10	1	-1E+10	1	-1E+10	1	-1E+10	1	-1E+10	1
4902549	88	C	01/18/2023	15:53	-133.302	47.554	0	803.00	0	3.7220	0	34.2740	0	27.243	0	794.755	0	6.8	4	2.1	4	-1E+10	1	-1E+10	1	-1E+10	1	-1E+10	1	-1E+10	1	-1E+10	1
4902549	88	C	01/18/2023	15:53	-133.302	47.554	0	807.80	0	3.7310	0	34.2810	0	27.247	0	799.497	0	6.6	4	2.1	4	-1E+10	1	-1E+10	1	-1E+10	1	-1E+10	1	-1E+10	1	-1E+10	1
4902549	88	C	01/18/2023	15:53	-133.302	47.554	0	813.00	0	3.7350	0	34.2860	0	27.251	0	804.633	0	6.4	4	2.0	4	-1E+10	1	-1E+10	1	-1E+10	1	-1E+10	1	-1E+10	1	-1E+10	1
4902549	88	C	01/18/2023	15:53	-133.302	47.554	0	818.00	0	3.7340	0	34.2920	0	27.256	0	809.572	0	6.4	4	2.0	4	-1E+10	1	-1E+10	1	-1E+10	1	-1E+10	1	-1E+10	1	-1E+10	1
4902549	88	C	01/18/2023	15:53	-133.302	47.554	0	822.70	0	3.7060	0	34.2930	0	27.259	0	814.215	0	6.5	4	2.0	4	-1E+10	1	-1E+10	1	-1E+10	1	-1E+10	1	-1E+10	1	-1E+10	1
4902549	88	C	01/18/2023	15:53	-133.302	47.554	0	827.90	0	3.6920	0	34.2940	0	27.262	0	819.351	0	6.4	4	2.0	4	-1E+10	1	-1E+10	1	-1E+10	1	-1E+10	1	-1E+10	1	-1E+10	1
4902549	88	C	01/18/2023	15:53	-133.302	47.554	0	833.20	0	3.6900	0	34.2960	0	27.263	0	824.586	0	6.2	4	1.9	4	-1E+10	1	-1E+10	1	-1E+10	1	-1E+10	1	-1E+10	1	-1E+10	1
4902549	88	C	01/18/2023	15:53	-133.302	47.554	0	838.00	0	3.6870	0	34.3030	0	27.269	0	829.327	0	6.0	4	1.9	4	-1E+10	1	-1E+10	1	-1E+10	1	-1E+10	1	-1E+10	1	-1E+10	1
4902549	88	C	01/18/2023	15:53	-133.302	47.554	0	843.00	0	3.6790	0	34.3070	0	27.273	0	834.265	0	5.9	4	1.9	4	-1E+10	1	-1E+10	1	-1E+10	1	-1E+10	1	-1E+10	1	-1E+10	1
4902549	88	C	01/18/2023	15:53	-133.302	47.554	0	848.10	0	3.6580	0	34.3110	0	27.279	0	839.302	0	5.9	4	1.8	4	-1E+10	1	-1E+10	1	-1E+10	1	-1E+10	1	-1E+10	1	-1E+10	1
4902549	88	C	01/18/2023	15:53	-133.302	47.554	0	853.20	0	3.6370	0	34.3160	0	27.285	0	844.339	0	5.9	4	1.8	4	-1E+10	1	-1E+10	1	-1E+10	1	-1E+10	1	-1E+10	1	-1E+10	1
4902549	88	C	01/18/2023	15:53	-133.302	47.554	0	858.10	0	3.6300	0	34.3170	0	27.286	0	849.178	0	5.9	4	1.8	4	-1E+10	1	-1E+10	1	-1E+10	1	-1E+10	1	-1E+10	1	-1E+10	1
4902549	88	C	01/18/2023	15:53	-133.302	47.554	0	862.90	0	3.6300	0	34.3170	0	27.286	0	853.918	0	5.9	4	1.8	4	-1E+10	1	-1E+10	1	-1E+10	1	-1E+10	1	-1E+10	1	-1E+10	1
4902549	88	C	01/18/2023	15:53	-133.302	47.554	0	867.80	0	3.6290	0	34.3170	0	27.286	0	858.757	0	5.9	4	1.8	4	-1E+10	1	-1E+10	1	-1E+10	1	-1E+10	1	-1E+10	1	-1E+10	1
4902549	88	C	01/18/2023	15:53	-133.302	47.554	0	872.70	0	3.6090	0	34.3210	0	27.292	0	863.596	0	5.9	4	1.8	4	-1E+10	1	-1E+10	1	-1E+10	1	-1E+10	1	-1E+10	1	-1E+10	1
4902549	88	C	01/18/2023	15:53	-133.302	47.554	0	878.10	0	3.5910	0	34.3250	0	27.297	0	868.928	0	5.9	4	1.8	4	-1E+10	1	-1E+10	1	-1E+10	1	-1E+10	1	-1E+10	1	-1E+10	1
4902549	88	C	01/18/2023	15:53	-133.302	47.554	0	883.10	0	3.5820	0	34.3270	0	27.299	0	873.865	0	5.9	4	1.8	4	-1E+10	1	-1E+10	1	-1E+10	1	-1E+10	1	-1E+10	1	-1E+10	1
4902549	88	C	01/18/2023	15:53	-133.302	47.554	0	887.70	0	3.5660	0	34.3280	0	27.301	0	878.408	0	5.9	4	1.8	4	-1E+10	1	-1E+10	1	-1E+10	1	-1E+10	1	-1E+10	1	-1E+10	1
4902549	88	C	01/18/2023	15:53	-133.302	47.554	0	892.70	0	3.5480	0	34.3310	0	27.306	0	883.345	0	5.9	4	1.8	4	-1E+10	1	-1E+10	1	-1E+10	1	-1E+10	1	-1E+10	1	-1E+10	1
4902549	88	C	01/18/2023	15:53	-133.302	47.554	0	897.90	0	3.5320	0	34.3340	0	27.310	0	888.479	0	5.9	4	1.8	4	-1E+10	1	-1E+10	1	-1E+10	1	-1E+10	1	-1E+10	1	-1E+10	1
4902549	88	C	01/18/2023	15:53	-133.302	47.554	0	902.60	0	3.5190	0	34.3380	0	27.314	0	893.120	0	5.9	4	1.8	4	-1E+10	1	-1E+10	1	-1E+10	1	-1E+10	1	-1E+10	1	-1E+10	1
4902549	88	C	01/18/2023	15:53	-133.302	47.554	0	907.80	0	3.5150	0	34.3390	0	27.315	0	898.254	0	5.9	4	1.8	4	-1E+10	1	-1E+10	1	-1E+10	1	-1E+10	1	-1E+10	1	-1E+10	1
4902549	88	C	01/18/2023	15:53	-133.302	47.554	0	913.00	0	3.5110	0	34.3390	0	27.316	0	903.388	0	5.9	4	1.9	4	-1E+10	1	-1E+10	1	-1E+10	1	-1E+10	1	-1E+10	1	-1E+10	1
4902549	88	C	01/18/2023	15:53	-133.302	47.554	0	917.70	0	3.4950	0	34.3420	0	27.320	0	908.029	0	6.0	4	1.9	4	-1E+10	1	-1E+10	1	-1E+10	1	-1E+10	1	-1E+10	1	-1E+10	1
4902549	88	C	01/18/2023	15:53	-133.302	47.554	0	922.90	0	3.4820	0	34.3440	0	27.323	0	913.163	0	6.0	4	1.9	4	-1E+10	1	-1E+10	1	-1E+10	1	-1E+10	1	-1E+10	1	-1E+10	1
4902549	88	C	01/18/2023	15:53	-133.302	47.554	0	928.00	0	3.4580	0	34.3480	0	27.328	0	918.198	0	6.0	4	1.9	4	-1E+10	1	-1E+10	1	-1E+10	1	-1E+10	1	-1E+10	1	-1E+10	1
4902549	88	C	01/18/2023	15:53	-133.302	47.554	0	932.70	0	3.4520	0	34.3490	0	27.329	0	922.838	0	6.0	4	1.9	4	-1E+10	1	-1E+10	1	-1E+10	1	-1E+10	1	-1E+10	1	-1E+10	1
4902549	88	C	01/18/2023	15:53	-133.302	47.554	0	937.80	0	3.4410	0	34.3510	0	27.332	0	927.872	0	6.0	4	1.9	4	-1E+10	1	-1E+10	1	-1E+10	1	-1E+10	1	-1E+10	1	-1E+10	1
4902549	88	C	01/18/2023	15:53	-133.302	47.554	0	943.00	0	3.4280	0	34.3550	0	27.337	0	933.006	0	6.1	4	1.9	4	-1E+10	1	-1E+10	1	-1E+10	1	-1E+10	1	-1E+10	1	-1E+10	1
4902549	88	C	01/18/2023	15:53	-133.302	47.554	0	947.80	0	3.4140	0	34.3570	0	27.340	0	937.744	0	6.1	4	1.9	4	-1E+10	1	-1E+10	1	-1E+10	1	-1E+10	1	-1E+10	1	-1E+10	1
4902549	88	C	01/18/2023	15:53	-133.302	47.554	0	952.60	0	3.3990	0	34.3600	0	27.343	0	942.482	0	6.1	4	1.9	4	-1E+10	1	-1E+10	1	-1E+10	1	-1E+10	1	-1E+10	1	-1E+10	1
4902549	88	C	01/18/2023	15:53	-133.302	47.554	0	957.90	0	3.3850	0	34.3630	0	27.347	0	947.714	0	6.2	4	1.9	4	-1E+10	1	-1E+10	1	-1E+10	1	-1E+10	1	-1E+10	1	-1E+10	1
4902549	88	C	01/18/2023	15:53	-133.302	47.554	0	963.20	0	3.3770	0	34.3650	0	27.350	0	952.946	0	6.2	4	1.9	4	-1E+10	1	-1E+10	1	-1E+10	1	-1E+10	1	-1E+10	1	-1E+10	1
4902549	88	C	01/18/2023	15:53	-133.302	47.554	0	968.00	0	3.3730	0	34.3670	0	27.352	0	957.684	0	6.2	4	1.9	4	-1E+10	1	-1E+10	1	-1E+10	1	-1E+10	1	-1E+10	1	-1E+10	1
4902549	88	C	01/18/2023	15:53	-133.302	47.554	0	972.90	0	3.3610	0	34.3680	0	27.353	0	962.520	0	6.3	4	1.9	4	-1E+10	1	-1E+10	1	-1E+10	1	-1E+10	1	-1E+10	1	-1E+10	1
4902549	88	C	01/18/2023	15:53	-133.302	47.554	0	977.80	0	3.3480	0	34.3710	0	27.357	0	967.356	0	6.3	4	2.0	4	-1E+10	1	-1E+10	1	-1E+10	1	-1E+10	1	-1E+10	1	-1E+10	1
4902549	88	C	01/18/2023	15:53	-133.302	47.554	0	982.70	0	3.3330	0	34.3730	0	27.360	0	972.193	0	6.3	4	2.0	4	-1E+10	1	-1E+10	1	-1E+10	1	-1E+10	1	-1E+10	1	-1E+10	1
4902549	88	C	01/18/2023	15:53	-133.302	47.554	0	987.70	0	3.3120	0	34.3760	0	27.365	0	977.128	0	6.3	4	2.0	4	-1E+10	1	-1E+10	1	-1E+10	1	-1E+10	1	-1E+10	1	-1E+10	1
4902549	88	C	01/18/2023	15:53	-133.302	47.554	0	992.50	0	3.3040	0	34.3770	0	27.366	0	981.865	0	6.3	4	2.0	4	-1E+10	1	-1E+10	1	-1E+10	1	-1E+10	1	-1E+10	1	-1E+10	1
4902549	88	C	01/18/2023	15:53	-133.302	47.554	0	997.50	0	3.2980	0	34.3790	0	27.368	0	986.800	0	6.4	4	2.0	4	-1E+10	1	-1E+10	1	-1E+10	1	-1E+10	1	-1E+10	1	-1E+10	1
4902549	88	C	01/18/2023	15:53	-133.302	47.554	0	1004.90	0	3.2780	0	34.3810	0	27.372	0	994.103	0	6.5	4	2.0	4	-1E+10	1	-1E+10	1	-1E+10	1	-1E+10	1	-1E+10	1	-1E+10	1
4902549	88	C	01/18/2023	15:53	-133.302	47.554	0	1015.00	0	3.2600	0	34.3850	0	27.377	0	1004.070	0	6.7	4	2.1	4	-1E+10	1	-1E+10	1	-1E+10	1	-1E+10	1	-1E+10	1	-1E+10	1
4902549	88	C	01/18/2023	15:53	-133.302	47.554	0	1025.30	0	3.2410	0	34.3890	0	27.382	0	1014.234	0	6.8	4	2.1	4	-1E+10	1	-1E+10	1	-1E+10	1	-1E+10	1	-1E+10	1	-1E+10	1
4902549	88	C	01/18/2023	15:53	-133.302	47.554	0	1035.70	0	3.2250	0	34.3930	0	27.387	0	1024.497	0	7.0	4	2.2	4	-1E+10	1	-1E+10	1	-1E+10	1	-1E+10	1	-1E+10	1	-1E+10	1
4902549	88	C	01/18/2023	15:53	-133.302	47.554	0	1045.40	0	3.2060	0	34.3960	0	27.391	0	1034.068	0	7.1	4	2.2	4	-1E+10	1	-1E+10	1	-1E+10	1	-1E+10	1	-1E+10	1	-1E+10	1
4902549	88	C	01/18/2023	15:53	-133.302	47.554	0	1055.70	0	3.1900	0	34.3980	0	27.394	0	1044.230	0	7.2	4	2.2	4	-1E+10	1	-1E+10	1	-1E+10	1	-1E+10	1	-1E+10	1	-1E+10	1
4902549	88	C	01/18/2023	15:53	-133.302	47.554	0	1065.40	0	3.1660	0	34.4020	0	27.399	0	1053.801	0	7.3	4	2.3	4	-1E+10	1	-1E+10	1	-1E+10	1	-1E+10	1	-1E+10	1	-1E+10	1
4902549	88	C	01/18/2023	15:53	-133.302	47.554	0	1075.40	0	3.1460	0	34.4050	0	27.404	0	1063.667	0	7.5	4	2.3	4	-1E+10	1	-1E+10	1	-1E+10	1	-1E+10	1	-1E+10	1	-1E+10	1
4902549	88	C	01/18/2023	15:53	-133.302	47.554	0	1085.30	0	3.1210	0	34.4090	0	27.409	0	1073.433	0	7.7	4	2.4	4	-1E+10	1	-1E+10	1	-1E+10	1	-1E+10	1	-1E+10	1	-1E+10	1
4902549	88	C	01/18/2023	15:53	-133.302	47.554	0	1095.10	0	3.0980	0	34.4120	0	27.414	0	1083.101	0	7.9	4	2.4	4	-1E+10	1	-1E+10	1	-1E+10	1	-1E+10	1	-1E+10	1	-1E+10	1
4902549	88	C	01/18/2023	15:53	-133.302	47.554	0	1105.20	0	3.0680	0	34.4150	0	27.419	0	1093.064	0	8.1	4	2.5	4	-1E+10	1	-1E+10	1	-1E+10	1	-1E+10	1	-1E+10	1	-1E+10	1
4902549	88	C	01/18/2023	15:53	-133.302	47.554	0	1115.10	0	3.0430	0	34.4170	0	27.423	0	1102.829	0	8.2	4	2.5	4	-1E+10	1	-1E+10	1	-1E+10	1	-1E+10	1	-1E+10	1	-1E+10	1
4902549	88	C	01/18/2023	15:53	-133.302	47.554	0	1125.30	0	3.0050	0	34.4170	0	27.426	0	1112.890	0	8.3	4	2.6	4	-1E+10	1	-1E+10	1	-1E+10	1	-1E+10	1	-1E+10	1	-1E+10	1
4902549	88	C	01/18/2023	15:53	-133.302	47.554	0	1135.20	0	2.9980	0	34.4200	0	27.429	0	1122.654	0	8.5	4	2.6	4	-1E+10	1	-1E+10	1	-1E+10	1	-1E+10	1	-1E+10	1	-1E+10	1
4902549	88	C	01/18/2023	15:53	-133.302	47.554	0	1145.20	0	2.9700	0	34.4210	0	27.433	0	1132.517	0	8.5	4	2.6	4	-1E+10	1	-1E+10	1	-1E+10	1	-1E+10	1	-1E+10	1	-1E+10	1
4902549	88	C	01/18/2023	15:53	-133.302	47.554	0	1155.30	0	2.9330	0	34.4190	0	27.435	0	1142.478	0	8.5	4	2.6	4	-1E+10	1	-1E+10	1	-1E+10	1	-1E+10	1	-1E+10	1	-1E+10	1
4902549	88	C	01/18/2023	15:53	-133.302	47.554	0	1165.50	0	2.9130	0	34.4190	0	27.436	0	1152.536	0	8.5	4	2.6	4	-1E+10	1	-1E+10	1	-1E+10	1	-1E+10	1	-1E+10	1	-1E+10	1
4902549	88	C	01/18/2023	15:53	-133.302	47.554	0	1175.40	0	2.8870	0	34.4190	0	27.439	0	1162.299	0	8.7	4	2.7	4	-1E+10	1	-1E+10	1	-1E+10	1	-1E+10	1	-1E+10	1	-1E+10	1
4902549	88	C	01/18/2023	15:53	-133.302	47.554	0	1185.40	0	2.8880	0	34.4230	0	27.442	0	1172.160	0	9.2	4	2.8	4	-1E+10	1	-1E+10	1	-1E+10	1	-1E+10	1	-1E+10	1	-1E+10	1
4902549	88	C	01/18/2023	15:53	-133.302	47.554	0	1195.30	0	2.9140	0	34.4340	0	27.448	0	1181.921	0	9.6	4	3.0	4	-1E+10	1	-1E+10	1	-1E+10	1	-1E+10	1	-1E+10	1	-1E+10	1
4902549	88	C	01/18/2023	15:53	-133.302	47.554	0	1205.10	0	2.8700	0	34.4340	0	27.452	0	1191.584	0	9.8	4	3.0	4	-1E+10	1	-1E+10	1	-1E+10	1	-1E+10	1	-1E+10	1	-1E+10	1
4902549	88	C	01/18/2023	15:53	-133.302	47.554	0	1215.60	0	2.8790	0	34.4420	0	27.458	0	1201.936	0	10.0	4	3.1	4	-1E+10	1	-1E+10	1	-1E+10	1	-1E+10	1	-1E+10	1	-1E+10	1
4902549	88	C	01/18/2023	15:53	-133.302	47.554	0	1225.40	0	2.8260	0	34.4360	0	27.458	0	1211.598	0	9.9	4	3.0	4	-1E+10	1	-1E+10	1	-1E+10	1	-1E+10	1	-1E+10	1	-1E+10	1
4902549	88	C	01/18/2023	15:53	-133.302	47.554	0	1235.30	0	2.7870	0	34.4350	0	27.461	0	1221.357	0	10.0	4	3.1	4	-1E+10	1	-1E+10	1	-1E+10	1	-1E+10	1	-1E+10	1	-1E+10	1
4902549	88	C	01/18/2023	15:53	-133.302	47.554	0	1245.30	0	2.7890	0	34.4410	0	27.465	0	1231.215	0	10.5	4	3.2	4	-1E+10	1	-1E+10	1	-1E+10	1	-1E+10	1	-1E+10	1	-1E+10	1
4902549	88	C	01/18/2023	15:53	-133.302	47.554	0	1255.40	0	2.7610	0	34.4440	0	27.470	0	1241.171	0	10.5	4	3.2	4	-1E+10	1	-1E+10	1	-1E+10	1	-1E+10	1	-1E+10	1	-1E+10	1
4902549	88	C	01/18/2023	15:53	-133.302	47.554	0	1265.40	0	2.7100	0	34.4420	0	27.473	0	1251.028	0	10.6	4	3.3	4	-1E+10	1	-1E+10	1	-1E+10	1	-1E+10	1	-1E+10	1	-1E+10	1
4902549	88	C	01/18/2023	15:53	-133.302	47.554	0	1275.40	0	2.7030	0	34.4450	0	27.476	0	1260.885	0	10.9	4	3.3	4	-1E+10	1	-1E+10	1	-1E+10	1	-1E+10	1	-1E+10	1	-1E+10	1
4902549	88	C	01/18/2023	15:53	-133.302	47.554	0	1285.60	0	2.6990	0	34.4490	0	27.480	0	1270.938	0	11.2	4	3.4	4	-1E+10	1	-1E+10	1	-1E+10	1	-1E+10	1	-1E+10	1	-1E+10	1
4902549	88	C	01/18/2023	15:53	-133.302	47.554	0	1295.20	0	2.6870	0	34.4500	0	27.482	0	1280.399	0	11.5	4	3.5	4	-1E+10	1	-1E+10	1	-1E+10	1	-1E+10	1	-1E+10	1	-1E+10	1
4902549	88	C	01/18/2023	15:53	-133.302	47.554	0	1305.30	0	2.6750	0	34.4520	0	27.484	0	1290.353	0	11.7	4	3.6	4	-1E+10	1	-1E+10	1	-1E+10	1	-1E+10	1	-1E+10	1	-1E+10	1
4902549	88	C	01/18/2023	15:53	-133.302	47.554	0	1315.90	0	2.6530	0	34.4550	0	27.489	0	1300.799	0	12.3	4	3.8	4	-1E+10	1	-1E+10	1	-1E+10	1	-1E+10	1	-1E+10	1	-1E+10	1
4902549	88	C	01/18/2023	15:53	-133.302	47.554	0	1325.50	0	2.6600	0	34.4620	0	27.494	0	1310.259	0	12.9	4	4.0	4	-1E+10	1	-1E+10	1	-1E+10	1	-1E+10	1	-1E+10	1	-1E+10	1
4902549	88	C	01/18/2023	15:53	-133.302	47.554	0	1335.30	0	2.6470	0	34.4650	0	27.497	0	1319.915	0	13.2	4	4.0	4	-1E+10	1	-1E+10	1	-1E+10	1	-1E+10	1	-1E+10	1	-1E+10	1
4902549	88	C	01/18/2023	15:53	-133.302	47.554	0	1345.30	0	2.6150	0	34.4650	0	27.500	0	1329.769	0	13.2	4	4.0	4	-1E+10	1	-1E+10	1	-1E+10	1	-1E+10	1	-1E+10	1	-1E+10	1
4902549	88	C	01/18/2023	15:53	-133.302	47.554	0	1355.50	0	2.5900	0	34.4670	0	27.504	0	1339.819	0	13.7	4	4.2	4	-1E+10	1	-1E+10	1	-1E+10	1	-1E+10	1	-1E+10	1	-1E+10	1
4902549	88	C	01/18/2023	15:53	-133.302	47.554	0	1365.50	0	2.5730	0	34.4710	0	27.509	0	1349.671	0	14.1	4	4.3	4	-1E+10	1	-1E+10	1	-1E+10	1	-1E+10	1	-1E+10	1	-1E+10	1
4902549	88	C	01/18/2023	15:53	-133.302	47.554	0	1375.60	0	2.5540	0	34.4720	0	27.511	0	1359.621	0	14.5	4	4.4	4	-1E+10	1	-1E+10	1	-1E+10	1	-1E+10	1	-1E+10	1	-1E+10	1
4902549	88	C	01/18/2023	15:53	-133.302	47.554	0	1385.50	0	2.5290	0	34.4750	0	27.516	0	1369.374	0	15.0	4	4.6	4	-1E+10	1	-1E+10	1	-1E+10	1	-1E+10	1	-1E+10	1	-1E+10	1
4902549	88	C	01/18/2023	15:53	-133.302	47.554	0	1395.50	0	2.5180	0	34.4790	0	27.520	0	1379.225	0	15.7	4	4.8	4	-1E+10	1	-1E+10	1	-1E+10	1	-1E+10	1	-1E+10	1	-1E+10	1
4902549	88	C	01/18/2023	15:53	-133.302	47.554	0	1405.80	0	2.5090	0	34.4820	0	27.523	0	1389.371	0	16.2	4	4.9	4	-1E+10	1	-1E+10	1	-1E+10	1	-1E+10	1	-1E+10	1	-1E+10	1
4902549	88	C	01/18/2023	15:53	-133.302	47.554	0	1415.40	0	2.4980	0	34.4850	0	27.526	0	1398.827	0	16.4	4	5.0	4	-1E+10	1	-1E+10	1	-1E+10	1	-1E+10	1	-1E+10	1	-1E+10	1
4902549	88	C	01/18/2023	15:53	-133.302	47.554	0	1425.40	0	2.4640	0	34.4850	0	27.529	0	1408.677	0	16.7	4	5.1	4	-1E+10	1	-1E+10	1	-1E+10	1	-1E+10	1	-1E+10	1	-1E+10	1
4902549	88	C	01/18/2023	15:53	-133.302	47.554	0	1435.50	0	2.4500	0	34.4870	0	27.532	0	1418.624	0	17.2	4	5.2	4	-1E+10	1	-1E+10	1	-1E+10	1	-1E+10	1	-1E+10	1	-1E+10	1
4902549	88	C	01/18/2023	15:53	-133.302	47.554	0	1445.40	0	2.4390	0	34.4890	0	27.535	0	1428.374	0	17.7	4	5.4	4	-1E+10	1	-1E+10	1	-1E+10	1	-1E+10	1	-1E+10	1	-1E+10	1
4902549	88	C	01/18/2023	15:53	-133.302	47.554	0	1455.00	0	2.4250	0	34.4910	0	27.537	0	1437.829	0	18.1	4	5.5	4	-1E+10	1	-1E+10	1	-1E+10	1	-1E+10	1	-1E+10	1	-1E+10	1
4902549	88	C	01/18/2023	15:53	-133.302	47.554	0	1465.30	0	2.4080	0	34.4940	0	27.541	0	1447.972	0	18.6	4	5.7	4	-1E+10	1	-1E+10	1	-1E+10	1	-1E+10	1	-1E+10	1	-1E+10	1
4902549	88	C	01/18/2023	15:53	-133.302	47.554	0	1475.50	0	2.4010	0	34.4950	0	27.543	0	1458.016	0	18.9	4	5.8	4	-1E+10	1	-1E+10	1	-1E+10	1	-1E+10	1	-1E+10	1	-1E+10	1
4902549	88	C	01/18/2023	15:53	-133.302	47.554	0	1485.40	0	2.3940	0	34.4960	0	27.544	0	1467.764	0	19.4	4	5.9	4	-1E+10	1	-1E+10	1	-1E+10	1	-1E+10	1	-1E+10	1	-1E+10	1
4902549	88	C	01/18/2023	15:53	-133.302	47.554	0	1495.60	0	2.3800	0	34.4990	0	27.548	0	1477.807	0	20.1	4	6.1	4	-1E+10	1	-1E+10	1	-1E+10	1	-1E+10	1	-1E+10	1	-1E+10	1
4902549	88	C	01/18/2023	15:53	-133.302	47.554	0	1505.50	0	2.3700	0	34.5020	0	27.551	0	1487.555	0	20.6	4	6.3	4	-1E+10	1	-1E+10	1	-1E+10	1	-1E+10	1	-1E+10	1	-1E+10	1
4902549	88	C	01/18/2023	15:53	-133.302	47.554	0	1515.20	0	2.3580	0	34.5030	0	27.553	0	1497.105	0	21.0	4	6.4	4	-1E+10	1	-1E+10	1	-1E+10	1	-1E+10	1	-1E+10	1	-1E+10	1
4902549	88	C	01/18/2023	15:53	-133.302	47.554	0	1525.30	0	2.3500	0	34.5050	0	27.555	0	1507.048	0	21.5	4	6.5	4	-1E+10	1	-1E+10	1	-1E+10	1	-1E+10	1	-1E+10	1	-1E+10	1
4902549	88	C	01/18/2023	15:53	-133.302	47.554	0	1535.30	0	2.3450	0	34.5070	0	27.557	0	1516.893	0	21.9	4	6.7	4	-1E+10	1	-1E+10	1	-1E+10	1	-1E+10	1	-1E+10	1	-1E+10	1
4902549	88	C	01/18/2023	15:53	-133.302	47.554	0	1545.10	0	2.3340	0	34.5080	0	27.559	0	1526.540	0	22.5	4	6.8	4	-1E+10	1	-1E+10	1	-1E+10	1	-1E+10	1	-1E+10	1	-1E+10	1
4902549	88	C	01/18/2023	15:53	-133.302	47.554	0	1555.50	0	2.3260	0	34.5110	0	27.562	0	1536.777	0	23.1	4	7.0	4	-1E+10	1	-1E+10	1	-1E+10	1	-1E+10	1	-1E+10	1	-1E+10	1
4902549	88	C	01/18/2023	15:53	-133.302	47.554	0	1565.90	0	2.3100	0	34.5130	0	27.565	0	1547.014	0	23.8	4	7.2	4	-1E+10	1	-1E+10	1	-1E+10	1	-1E+10	1	-1E+10	1	-1E+10	1
4902549	88	C	01/18/2023	15:53	-133.302	47.554	0	1575.80	0	2.2920	0	34.5160	0	27.569	0	1556.758	0	24.6	4	7.5	4	-1E+10	1	-1E+10	1	-1E+10	1	-1E+10	1	-1E+10	1	-1E+10	1
4902549	88	C	01/18/2023	15:53	-133.302	47.554	0	1585.80	0	2.2780	0	34.5190	0	27.573	0	1566.601	0	25.1	4	7.6	4	-1E+10	1	-1E+10	1	-1E+10	1	-1E+10	1	-1E+10	1	-1E+10	1
4902549	88	C	01/18/2023	15:53	-133.302	47.554	0	1595.80	0	2.2720	0	34.5200	0	27.574	0	1576.442	0	25.6	4	7.8	4	-1E+10	1	-1E+10	1	-1E+10	1	-1E+10	1	-1E+10	1	-1E+10	1
4902549	88	C	01/18/2023	15:53	-133.302	47.554	0	1605.70	0	2.2620	0	34.5220	0	27.576	0	1586.185	0	26.0	4	7.9	4	-1E+10	1	-1E+10	1	-1E+10	1	-1E+10	1	-1E+10	1	-1E+10	1
4902549	88	C	01/18/2023	15:53	-133.302	47.554	0	1615.70	0	2.2520	0	34.5230	0	27.578	0	1596.026	0	26.5	4	8.0	4	-1E+10	1	-1E+10	1	-1E+10	1	-1E+10	1	-1E+10	1	-1E+10	1
4902549	88	C	01/18/2023	15:53	-133.302	47.554	0	1625.70	0	2.2420	0	34.5240	0	27.580	0	1605.866	0	27.1	4	8.2	4	-1E+10	1	-1E+10	1	-1E+10	1	-1E+10	1	-1E+10	1	-1E+10	1
4902549	88	C	01/18/2023	15:53	-133.302	47.554	0	1635.70	0	2.2310	0	34.5260	0	27.582	0	1615.706	0	27.6	4	8.4	4	-1E+10	1	-1E+10	1	-1E+10	1	-1E+10	1	-1E+10	1	-1E+10	1
4902549	88	C	01/18/2023	15:53	-133.302	47.554	0	1645.60	0	2.2230	0	34.5280	0	27.585	0	1625.447	0	28.2	4	8.6	4	-1E+10	1	-1E+10	1	-1E+10	1	-1E+10	1	-1E+10	1	-1E+10	1
4902549	88	C	01/18/2023	15:53	-133.302	47.554	0	1655.50	0	2.2090	0	34.5300	0	27.587	0	1635.188	0	28.9	4	8.8	4	-1E+10	1	-1E+10	1	-1E+10	1	-1E+10	1	-1E+10	1	-1E+10	1
4902549	88	C	01/18/2023	15:53	-133.302	47.554	0	1665.60	0	2.2000	0	34.5320	0	27.590	0	1645.125	0	29.5	4	8.9	4	-1E+10	1	-1E+10	1	-1E+10	1	-1E+10	1	-1E+10	1	-1E+10	1
4902549	88	C	01/18/2023	15:53	-133.302	47.554	0	1675.80	0	2.1890	0	34.5340	0	27.592	0	1655.159	0	30.3	4	9.2	4	-1E+10	1	-1E+10	1	-1E+10	1	-1E+10	1	-1E+10	1	-1E+10	1
4902549	88	C	01/18/2023	15:53	-133.302	47.554	0	1686.10	0	2.1770	0	34.5360	0	27.595	0	1665.292	0	30.9	4	9.4	4	-1E+10	1	-1E+10	1	-1E+10	1	-1E+10	1	-1E+10	1	-1E+10	1
4902549	88	C	01/18/2023	15:53	-133.302	47.554	0	1695.50	0	2.1700	0	34.5370	0	27.596	0	1674.539	0	31.5	4	9.5	4	-1E+10	1	-1E+10	1	-1E+10	1	-1E+10	1	-1E+10	1	-1E+10	1
4902549	88	C	01/18/2023	15:53	-133.302	47.554	0	1705.30	0	2.1610	0	34.5390	0	27.599	0	1684.179	0	32.1	4	9.7	4	-1E+10	1	-1E+10	1	-1E+10	1	-1E+10	1	-1E+10	1	-1E+10	1
4902549	88	C	01/18/2023	15:53	-133.302	47.554	0	1715.40	0	2.1530	0	34.5410	0	27.601	0	1694.114	0	32.8	4	9.9	4	-1E+10	1	-1E+10	1	-1E+10	1	-1E+10	1	-1E+10	1	-1E+10	1
4902549	88	C	01/18/2023	15:53	-133.302	47.554	0	1725.60	0	2.1410	0	34.5430	0	27.604	0	1704.146	0	33.6	4	10.2	4	-1E+10	1	-1E+10	1	-1E+10	1	-1E+10	1	-1E+10	1	-1E+10	1
4902549	88	C	01/18/2023	15:53	-133.302	47.554	0	1735.60	0	2.1270	0	34.5460	0	27.607	0	1713.981	0	34.6	4	10.5	4	-1E+10	1	-1E+10	1	-1E+10	1	-1E+10	1	-1E+10	1	-1E+10	1
4902549	88	C	01/18/2023	15:53	-133.302	47.554	0	1745.30	0	2.1160	0	34.5480	0	27.610	0	1723.521	0	35.3	4	10.7	4	-1E+10	1	-1E+10	1	-1E+10	1	-1E+10	1	-1E+10	1	-1E+10	1
4902549	88	C	01/18/2023	15:53	-133.302	47.554	0	1755.20	0	2.1060	0	34.5490	0	27.611	0	1733.257	0	35.8	4	10.8	4	-1E+10	1	-1E+10	1	-1E+10	1	-1E+10	1	-1E+10	1	-1E+10	1
4902549	88	C	01/18/2023	15:53	-133.302	47.554	0	1765.20	0	2.1020	0	34.5500	0	27.612	0	1743.091	0	36.4	4	11.0	4	-1E+10	1	-1E+10	1	-1E+10	1	-1E+10	1	-1E+10	1	-1E+10	1
4902549	88	C	01/18/2023	15:53	-133.302	47.554	0	1775.50	0	2.0940	0	34.5520	0	27.615	0	1753.220	0	36.9	4	11.2	4	-1E+10	1	-1E+10	1	-1E+10	1	-1E+10	1	-1E+10	1	-1E+10	1
4902549	88	C	01/18/2023	15:53	-133.302	47.554	0	1785.60	0	2.0890	0	34.5530	0	27.616	0	1763.151	0	37.4	4	11.3	4	-1E+10	1	-1E+10	1	-1E+10	1	-1E+10	1	-1E+10	1	-1E+10	1
4902549	88	C	01/18/2023	15:53	-133.302	47.554	0	1795.30	0	2.0830	0	34.5540	0	27.617	0	1772.689	0	38.0	4	11.5	4	-1E+10	1	-1E+10	1	-1E+10	1	-1E+10	1	-1E+10	1	-1E+10	1
4902549	88	C	01/18/2023	15:53	-133.302	47.554	0	1805.10	0	2.0770	0	34.5560	0	27.619	0	1782.324	0	38.6	4	11.7	4	-1E+10	1	-1E+10	1	-1E+10	1	-1E+10	1	-1E+10	1	-1E+10	1
4902549	88	C	01/18/2023	15:53	-133.302	47.554	0	1814.90	0	2.0690	0	34.5570	0	27.621	0	1791.959	0	39.3	4	11.9	4	-1E+10	1	-1E+10	1	-1E+10	1	-1E+10	1	-1E+10	1	-1E+10	1
4902549	88	C	01/18/2023	15:53	-133.302	47.554	0	1825.20	0	2.0620	0	34.5590	0	27.623	0	1802.085	0	39.9	4	12.1	4	-1E+10	1	-1E+10	1	-1E+10	1	-1E+10	1	-1E+10	1	-1E+10	1
4902549	88	C	01/18/2023	15:53	-133.302	47.554	0	1835.50	0	2.0550	0	34.5600	0	27.625	0	1812.211	0	40.6	4	12.3	4	-1E+10	1	-1E+10	1	-1E+10	1	-1E+10	1	-1E+10	1	-1E+10	1
4902549	88	C	01/18/2023	15:53	-133.302	47.554	0	1845.40	0	2.0480	0	34.5620	0	27.627	0	1821.943	0	41.2	4	12.4	4	-1E+10	1	-1E+10	1	-1E+10	1	-1E+10	1	-1E+10	1	-1E+10	1
4902549	88	C	01/18/2023	15:53	-133.302	47.554	0	1855.40	0	2.0390	0	34.5630	0	27.628	0	1831.773	0	41.9	4	12.7	4	-1E+10	1	-1E+10	1	-1E+10	1	-1E+10	1	-1E+10	1	-1E+10	1
4902549	88	C	01/18/2023	15:53	-133.302	47.554	0	1865.90	0	2.0280	0	34.5650	0	27.631	0	1842.094	0	42.8	4	12.9	4	-1E+10	1	-1E+10	1	-1E+10	1	-1E+10	1	-1E+10	1	-1E+10	1
4902549	88	C	01/18/2023	15:53	-133.302	47.554	0	1875.50	0	2.0180	0	34.5670	0	27.633	0	1851.529	0	43.5	4	13.1	4	-1E+10	1	-1E+10	1	-1E+10	1	-1E+10	1	-1E+10	1	-1E+10	1
4902549	88	C	01/18/2023	15:53	-133.302	47.554	0	1885.50	0	2.0090	0	34.5690	0	27.636	0	1861.358	0	44.2	4	13.3	4	-1E+10	1	-1E+10	1	-1E+10	1	-1E+10	1	-1E+10	1	-1E+10	1
4902549	88	C	01/18/2023	15:53	-133.302	47.554	0	1895.60	0	2.0010	0	34.5700	0	27.637	0	1871.284	0	44.7	4	13.5	4	-1E+10	1	-1E+10	1	-1E+10	1	-1E+10	1	-1E+10	1	-1E+10	1
4902549	88	C	01/18/2023	15:53	-133.302	47.554	0	1905.50	0	1.9960	0	34.5710	0	27.638	0	1881.013	0	45.2	4	13.6	4	-1E+10	1	-1E+10	1	-1E+10	1	-1E+10	1	-1E+10	1	-1E+10	1
4902549	88	C	01/18/2023	15:53	-133.302	47.554	0	1915.20	0	1.9900	0	34.5720	0	27.640	0	1890.546	0	45.8	4	13.8	4	-1E+10	1	-1E+10	1	-1E+10	1	-1E+10	1	-1E+10	1	-1E+10	1
4902549	88	C	01/18/2023	15:53	-133.302	47.554	0	1925.30	0	1.9830	0	34.5740	0	27.642	0	1900.471	0	46.4	4	14.0	4	-1E+10	1	-1E+10	1	-1E+10	1	-1E+10	1	-1E+10	1	-1E+10	1
4902549	88	C	01/18/2023	15:53	-133.302	47.554	0	1935.60	0	1.9770	0	34.5750	0	27.643	0	1910.591	0	46.9	4	14.1	4	-1E+10	1	-1E+10	1	-1E+10	1	-1E+10	1	-1E+10	1	-1E+10	1
4902549	88	C	01/18/2023	15:53	-133.302	47.554	0	1945.50	0	1.9700	0	34.5760	0	27.645	0	1920.319	0	47.5	4	14.3	4	-1E+10	1	-1E+10	1	-1E+10	1	-1E+10	1	-1E+10	1	-1E+10	1
4902549	88	C	01/18/2023	15:53	-133.302	47.554	0	1955.30	0	1.9640	0	34.5770	0	27.646	0	1929.948	0	48.0	4	14.5	4	-1E+10	1	-1E+10	1	-1E+10	1	-1E+10	1	-1E+10	1	-1E+10	1
4902549	88	C	01/18/2023	15:53	-133.302	47.554	0	1965.80	0	1.9550	0	34.5790	0	27.648	0	1940.264	0	48.4	4	14.6	4	-1E+10	1	-1E+10	1	-1E+10	1	-1E+10	1	-1E+10	1	-1E+10	1
4902549	88	C	01/18/2023	15:53	-133.302	47.554	0	1972.60	0	1.9510	0	34.5800	0	27.649	0	1946.944	0	48.3	4	14.5	4	-1E+10	1	-1E+10	1	-1E+10	1	-1E+10	1	-1E+10	1	-1E+10	1
4902549	88	C	01/18/2023	15:53	-133.302	47.554	0																										
4902549	89	C	01/28/2023	21:11	-133.319	47.471	0	2.40	0	9.2270	0	32.2840	0	24.957	0	2.380	0	267.2	4	93.8	4	-1E+10	1	-1E+10	1	-1E+10	1	-1E+10	1	-1E+10	1	-1E+10	1
4902549	89	C	01/28/2023	21:11	-133.319	47.471	0	2.90	0	9.2250	0	32.2850	0	24.958	0	2.876	0	267.1	4	93.8	4	-1E+10	1	-1E+10	1	-1E+10	1	-1E+10	1	-1E+10	1	-1E+10	1
4902549	89	C	01/28/2023	21:11	-133.319	47.471	0	4.20	0	9.2260	0	32.2850	0	24.958	0	4.165	0	266.9	4	93.7	4	-1E+10	1	-1E+10	1	-1E+10	1	-1E+10	1	-1E+10	1	-1E+10	1
4902549	89	C	01/28/2023	21:11	-133.319	47.471	0	4.90	0	9.2230	0	32.2860	0	24.959	0	4.859	0	267.0	4	93.8	4	-1E+10	1	-1E+10	1	-1E+10	1	-1E+10	1	-1E+10	1	-1E+10	1
4902549	89	C	01/28/2023	21:11	-133.319	47.471	0	5.90	0	9.2240	0	32.2860	0	24.959	0	5.851	0	267.0	4	93.8	4	-1E+10	1	-1E+10	1	-1E+10	1	-1E+10	1	-1E+10	1	-1E+10	1
4902549	89	C	01/28/2023	21:11	-133.319	47.471	0	6.90	0	9.2240	0	32.2860	0	24.959	0	6.842	0	267.1	4	93.8	4	-1E+10	1	-1E+10	1	-1E+10	1	-1E+10	1	-1E+10	1	-1E+10	1
4902549	89	C	01/28/2023	21:11	-133.319	47.471	0	8.00	0	9.2240	0	32.2860	0	24.959	0	7.933	0	266.9	4	93.7	4	-1E+10	1	-1E+10	1	-1E+10	1	-1E+10	1	-1E+10	1	-1E+10	1
4902549	89	C	01/28/2023	21:11	-133.319	47.471	0	9.00	0	9.2230	0	32.2860	0	24.959	0	8.925	0	266.8	4	93.7	4	-1E+10	1	-1E+10	1	-1E+10	1	-1E+10	1	-1E+10	1	-1E+10	1
4902549	89	C	01/28/2023	21:11	-133.319	47.471	0	9.80	0	9.2240	0	32.2860	0	24.959	0	9.718	0	266.9	4	93.7	4	-1E+10	1	-1E+10	1	-1E+10	1	-1E+10	1	-1E+10	1	-1E+10	1
4902549	89	C	01/28/2023	21:11	-133.319	47.471	0	10.80	0	9.2220	0	32.2860	0	24.959	0	10.710	0	266.8	4	93.7	4	-1E+10	1	-1E+10	1	-1E+10	1	-1E+10	1	-1E+10	1	-1E+10	1
4902549	89	C	01/28/2023	21:11	-133.319	47.471	0	11.40	0	9.2220	0	32.2860	0	24.959	0	11.305	0	266.8	4	93.7	4	-1E+10	1	-1E+10	1	-1E+10	1	-1E+10	1	-1E+10	1	-1E+10	1
4902549	89	C	01/28/2023	21:11	-133.319	47.471	0	12.00	0	9.2220	0	32.2860	0	24.959	0	11.900	0	266.8	4	93.7	4	-1E+10	1	-1E+10	1	-1E+10	1	-1E+10	1	-1E+10	1	-1E+10	1
4902549	89	C	01/28/2023	21:11	-133.319	47.471	0	13.10	0	9.2230	0	32.2860	0	24.959	0	12.990	0	266.7	4	93.6	4	-1E+10	1	-1E+10	1	-1E+10	1	-1E+10	1	-1E+10	1	-1E+10	1
4902549	89	C	01/28/2023	21:11	-133.319	47.471	0	13.90	0	9.2230	0	32.2860	0	24.959	0	13.784	0	266.7	4	93.6	4	-1E+10	1	-1E+10	1	-1E+10	1	-1E+10	1	-1E+10	1	-1E+10	1
4902549	89	C	01/28/2023	21:11	-133.319	47.471	0	15.10	0	9.2230	0	32.2860	0	24.959	0	14.973	0	266.6	4	93.6	4	-1E+10	1	-1E+10	1	-1E+10	1	-1E+10	1	-1E+10	1	-1E+10	1
4902549	89	C	01/28/2023	21:11	-133.319	47.471	0	16.20	0	9.2250	0	32.2860	0	24.959	0	16.064	0	266.6	4	93.6	4	-1E+10	1	-1E+10	1	-1E+10	1	-1E+10	1	-1E+10	1	-1E+10	1
4902549	89	C	01/28/2023	21:11	-133.319	47.471	0	16.90	0	9.2240	0	32.2860	0	24.959	0	16.758	0	266.6	4	93.6	4	-1E+10	1	-1E+10	1	-1E+10	1	-1E+10	1	-1E+10	1	-1E+10	1
4902549	89	C	01/28/2023	21:11	-133.319	47.471	0	18.00	0	9.2240	0	32.2860	0	24.959	0	17.849	0	266.6	4	93.6	4	-1E+10	1	-1E+10	1	-1E+10	1	-1E+10	1	-1E+10	1	-1E+10	1
4902549	89	C	01/28/2023	21:11	-133.319	47.471	0	19.00	0	9.2240	0	32.2860	0	24.959	0	18.841	0	266.5	4	93.6	4	-1E+10	1	-1E+10	1	-1E+10	1	-1E+10	1	-1E+10	1	-1E+10	1
4902549	89	C	01/28/2023	21:11	-133.319	47.471	0	19.80	0	9.2240	0	32.2860	0	24.959	0	19.634	0	266.5	4	93.6	4	-1E+10	1	-1E+10	1	-1E+10	1	-1E+10	1	-1E+10	1	-1E+10	1
4902549	89	C	01/28/2023	21:11	-133.319	47.471	0	20.90	0	9.2240	0	32.2860	0	24.959	0	20.725	0	266.5	4	93.6	4	-1E+10	1	-1E+10	1	-1E+10	1	-1E+10	1	-1E+10	1	-1E+10	1
4902549	89	C	01/28/2023	21:11	-133.319	47.471	0	21.90	0	9.2250	0	32.2860	0	24.959	0	21.716	0	266.5	4	93.6	4	-1E+10	1	-1E+10	1	-1E+10	1	-1E+10	1	-1E+10	1	-1E+10	1
4902549	89	C	01/28/2023	21:11	-133.319	47.471	0	22.80	0	9.2240	0	32.2860	0	24.959	0	22.609	0	266.5	4	93.6	4	-1E+10	1	-1E+10	1	-1E+10	1	-1E+10	1	-1E+10	1	-1E+10	1
4902549	89	C	01/28/2023	21:11	-133.319	47.471	0	23.80	0	9.2250	0	32.2860	0	24.959	0	23.600	0	266.5	4	93.6	4	-1E+10	1	-1E+10	1	-1E+10	1	-1E+10	1	-1E+10	1	-1E+10	1
4902549	89	C	01/28/2023	21:11	-133.319	47.471	0	24.80	0	9.2250	0	32.2860	0	24.959	0	24.592	0	266.5	4	93.6	4	-1E+10	1	-1E+10	1	-1E+10	1	-1E+10	1	-1E+10	1	-1E+10	1
4902549	89	C	01/28/2023	21:11	-133.319	47.471	0	25.80	0	9.2250	0	32.2860	0	24.959	0	25.583	0	266.4	4	93.6	4	-1E+10	1	-1E+10	1	-1E+10	1	-1E+10	1	-1E+10	1	-1E+10	1
4902549	89	C	01/28/2023	21:11	-133.319	47.471	0	26.80	0	9.2250	0	32.2860	0	24.959	0	26.575	0	266.4	4	93.5	4	-1E+10	1	-1E+10	1	-1E+10	1	-1E+10	1	-1E+10	1	-1E+10	1
4902549	89	C	01/28/2023	21:11	-133.319	47.471	0	28.00	0	9.2250	0	32.2860	0	24.959	0	27.765	0	266.4	4	93.6	4	-1E+10	1	-1E+10	1	-1E+10	1	-1E+10	1	-1E+10	1	-1E+10	1
4902549	89	C	01/28/2023	21:11	-133.319	47.471	0	29.00	0	9.2250	0	32.2860	0	24.959	0	28.756	0	266.4	4	93.6	4	-1E+10	1	-1E+10	1	-1E+10	1	-1E+10	1	-1E+10	1	-1E+10	1
4902549	89	C	01/28/2023	21:11	-133.319	47.471	0	30.10	0	9.2250	0	32.2860	0	24.959	0	29.847	0	266.3	4	93.5	4	-1E+10	1	-1E+10	1	-1E+10	1	-1E+10	1	-1E+10	1	-1E+10	1
4902549	89	C	01/28/2023	21:11	-133.319	47.471	0	30.90	0	9.2250	0	32.2860	0	24.959	0	30.640	0	266.4	4	93.5	4	-1E+10	1	-1E+10	1	-1E+10	1	-1E+10	1	-1E+10	1	-1E+10	1
4902549	89	C	01/28/2023	21:11	-133.319	47.471	0	31.80	0	9.2250	0	32.2860	0	24.959	0	31.532	0	266.3	4	93.5	4	-1E+10	1	-1E+10	1	-1E+10	1	-1E+10	1	-1E+10	1	-1E+10	1
4902549	89	C	01/28/2023	21:11	-133.319	47.471	0	32.90	0	9.2260	0	32.2860	0	24.959	0	32.623	0	266.3	4	93.5	4	-1E+10	1	-1E+10	1	-1E+10	1	-1E+10	1	-1E+10	1	-1E+10	1
4902549	89	C	01/28/2023	21:11	-133.319	47.471	0	34.10	0	9.2260	0	32.2860	0	24.959	0	33.813	0	266.2	4	93.5	4	-1E+10	1	-1E+10	1	-1E+10	1	-1E+10	1	-1E+10	1	-1E+10	1
4902549	89	C	01/28/2023	21:11	-133.319	47.471	0	35.00	0	9.2260	0	32.2860	0	24.959	0	34.705	0	266.1	4	93.5	4	-1E+10	1	-1E+10	1	-1E+10	1	-1E+10	1	-1E+10	1	-1E+10	1
4902549	89	C	01/28/2023	21:11	-133.319	47.471	0	35.90	0	9.2260	0	32.2860	0	24.959	0	35.597	0	266.1	4	93.4	4	-1E+10	1	-1E+10	1	-1E+10	1	-1E+10	1	-1E+10	1	-1E+10	1
4902549	89	C	01/28/2023	21:11	-133.319	47.471	0	37.10	0	9.2270	0	32.2860	0	24.959	0	36.787	0	266.0	4	93.4	4	-1E+10	1	-1E+10	1	-1E+10	1	-1E+10	1	-1E+10	1	-1E+10	1
4902549	89	C	01/28/2023	21:11	-133.319	47.471	0	38.10	0	9.2260	0	32.2860	0	24.959	0	37.779	0	266.0	4	93.4	4	-1E+10	1	-1E+10	1	-1E+10	1	-1E+10	1	-1E+10	1	-1E+10	1
4902549	89	C	01/28/2023	21:11	-133.319	47.471	0	38.90	0	9.2260	0	32.2860	0	24.959	0	38.572	0	265.9	4	93.4	4	-1E+10	1	-1E+10	1	-1E+10	1	-1E+10	1	-1E+10	1	-1E+10	1
4902549	89	C	01/28/2023	21:11	-133.319	47.471	0	39.80	0	9.2270	0	32.2860	0	24.959	0	39.464	0	265.8	4	93.4	4	-1E+10	1	-1E+10	1	-1E+10	1	-1E+10	1	-1E+10	1	-1E+10	1
4902549	89	C	01/28/2023	21:11	-133.319	47.471	0	41.00	0	9.2260	0	32.2860	0	24.959	0	40.654	0	265.8	4	93.3	4	-1E+10	1	-1E+10	1	-1E+10	1	-1E+10	1	-1E+10	1	-1E+10	1
4902549	89	C	01/28/2023	21:11	-133.319	47.471	0	41.90	0	9.2270	0	32.2860	0	24.959	0	41.546	0	265.6	4	93.3	4	-1E+10	1	-1E+10	1	-1E+10	1	-1E+10	1	-1E+10	1	-1E+10	1
4902549	89	C	01/28/2023	21:11	-133.319	47.471	0	42.80	0	9.2270	0	32.2860	0	24.959	0	42.439	0	265.5	4	93.2	4	-1E+10	1	-1E+10	1	-1E+10	1	-1E+10	1	-1E+10	1	-1E+10	1
4902549	89	C	01/28/2023	21:11	-133.319	47.471	0	44.00	0	9.2270	0	32.2860	0	24.959	0	43.628	0	265.3	4	93.2	4	-1E+10	1	-1E+10	1	-1E+10	1	-1E+10	1	-1E+10	1	-1E+10	1
4902549	89	C	01/28/2023	21:11	-133.319	47.471	0	44.80	0	9.2270	0	32.2860	0	24.959	0	44.421	0	265.2	4	93.1	4	-1E+10	1	-1E+10	1	-1E+10	1	-1E+10	1	-1E+10	1	-1E+10	1
4902549	89	C	01/28/2023	21:11	-133.319	47.471	0	46.10	0	9.2260	0	32.2870	0	24.960	0	45.710	0	264.9	4	93.0	4	-1E+10	1	-1E+10	1	-1E+10	1	-1E+10	1	-1E+10	1	-1E+10	1
4902549	89	C	01/28/2023	21:11	-133.319	47.471	0	47.00	0	9.2240	0	32.2880	0	24.961	0	46.603	0	264.9	4	93.0	4	-1E+10	1	-1E+10	1	-1E+10	1	-1E+10	1	-1E+10	1	-1E+10	1
4902549	89	C	01/28/2023	21:11	-133.319	47.471	0	48.00	0	9.2240	0	32.2880	0	24.961	0	47.594	0	264.8	4	93.0	4	-1E+10	1	-1E+10	1	-1E+10	1	-1E+10	1	-1E+10	1	-1E+10	1
4902549	89	C	01/28/2023	21:11	-133.319	47.471	0	48.80	0	9.2220	0	32.2890	0	24.962	0	48.387	0	264.7	4	93.0	4	-1E+10	1	-1E+10	1	-1E+10	1	-1E+10	1	-1E+10	1	-1E+10	1
4902549	89	C	01/28/2023	21:11	-133.319	47.471	0	50.00	0	9.2210	0	32.2900	0	24.963	0	49.577	0	264.5	4	92.9	4	-1E+10	1	-1E+10	1	-1E+10	1	-1E+10	1	-1E+10	1	-1E+10	1
4902549	89	C	01/28/2023	21:11	-133.319	47.471	0	50.90	0	9.2210	0	32.2900	0	24.963	0	50.469	0	264.4	4	92.8	4	-1E+10	1	-1E+10	1	-1E+10	1	-1E+10	1	-1E+10	1	-1E+10	1
4902549	89	C	01/28/2023	21:11	-133.319	47.471	0	52.20	0	9.2210	0	32.2910	0	24.964	0	51.758	0	264.2	4	92.8	4	-1E+10	1	-1E+10	1	-1E+10	1	-1E+10	1	-1E+10	1	-1E+10	1
4902549	89	C	01/28/2023	21:11	-133.319	47.471	0	53.00	0	9.2200	0	32.2910	0	24.964	0	52.551	0	264.2	4	92.8	4	-1E+10	1	-1E+10	1	-1E+10	1	-1E+10	1	-1E+10	1	-1E+10	1
4902549	89	C	01/28/2023	21:11	-133.319	47.471	0	54.00	0	9.2200	0	32.2910	0	24.964	0	53.542	0	264.0	4	92.7	4	-1E+10	1	-1E+10	1	-1E+10	1	-1E+10	1	-1E+10	1	-1E+10	1
4902549	89	C	01/28/2023	21:11	-133.319	47.471	0	55.20	0	9.2200	0	32.2910	0	24.964	0	54.732	0	263.8	4	92.6	4	-1E+10	1	-1E+10	1	-1E+10	1	-1E+10	1	-1E+10	1	-1E+10	1
4902549	89	C	01/28/2023	21:11	-133.319	47.471	0	56.10	0	9.2220	0	32.2900	0	24.963	0	55.624	0	263.4	4	92.5	4	-1E+10	1	-1E+10	1	-1E+10	1	-1E+10	1	-1E+10	1	-1E+10	1
4902549	89	C	01/28/2023	21:11	-133.319	47.471	0	57.00	0	9.2210	0	32.2900	0	24.963	0	56.517	0	263.1	4	92.4	4	-1E+10	1	-1E+10	1	-1E+10	1	-1E+10	1	-1E+10	1	-1E+10	1
4902549	89	C	01/28/2023	21:11	-133.319	47.471	0	57.90	0	9.2200	0	32.2920	0	24.965	0	57.409	0	262.8	4	92.3	4	-1E+10	1	-1E+10	1	-1E+10	1	-1E+10	1	-1E+10	1	-1E+10	1
4902549	89	C	01/28/2023	21:11	-133.319	47.471	0	59.00	0	9.2190	0	32.2930	0	24.966	0	58.499	0	262.4	4	92.1	4	-1E+10	1	-1E+10	1	-1E+10	1	-1E+10	1	-1E+10	1	-1E+10	1
4902549	89	C	01/28/2023	21:11	-133.319	47.471	0	60.20	0	9.2140	0	32.2960	0	24.969	0	59.689	0	261.9	4	92.0	4	-1E+10	1	-1E+10	1	-1E+10	1	-1E+10	1	-1E+10	1	-1E+10	1
4902549	89	C	01/28/2023	21:11	-133.319	47.471	0	61.00	0	9.2120	0	32.2940	0	24.968	0	60.482	0	261.3	4	91.7	4	-1E+10	1	-1E+10	1	-1E+10	1	-1E+10	1	-1E+10	1	-1E+10	1
4902549	89	C	01/28/2023	21:11	-133.319	47.471	0	62.20	0	9.1950	0	32.3020	0	24.977	0	61.672	0	260.5	4	91.4	4	-1E+10	1	-1E+10	1	-1E+10	1	-1E+10	1	-1E+10	1	-1E+10	1
4902549	89	C	01/28/2023	21:11	-133.319	47.471	0	63.10	0	9.1960	0	32.3010	0	24.976	0	62.564	0	259.9	4	91.2	4	-1E+10	1	-1E+10	1	-1E+10	1	-1E+10	1	-1E+10	1	-1E+10	1
4902549	89	C	01/28/2023	21:11	-133.319	47.471	0	63.90	0	9.1800	0	32.3070	0	24.983	0	63.357	0	259.1	4	90.9	4	-1E+10	1	-1E+10	1	-1E+10	1	-1E+10	1	-1E+10	1	-1E+10	1
4902549	89	C	01/28/2023	21:11	-133.319	47.471	0	65.30	0	9.1490	0	32.3160	0	24.995	0	64.745	0	258.3	4	90.6	4	-1E+10	1	-1E+10	1	-1E+10	1	-1E+10	1	-1E+10	1	-1E+10	1
4902549	89	C	01/28/2023	21:11	-133.319	47.471	0	65.90	0	9.1470	0	32.3160	0	24.996	0	65.340	0	257.9	4	90.4	4	-1E+10	1	-1E+10	1	-1E+10	1	-1E+10	1	-1E+10	1	-1E+10	1
4902549	89	C	01/28/2023	21:11	-133.319	47.471	0	66.80	0	9.1310	0	32.3200	0	25.001	0	66.232	0	257.4	4	90.2	4	-1E+10	1	-1E+10	1	-1E+10	1	-1E+10	1	-1E+10	1	-1E+10	1
4902549	89	C	01/28/2023	21:11	-133.319	47.471	0	67.90	0	9.1180	0	32.3220	0	25.005	0	67.322	0	256.6	4	89.9	4	-1E+10	1	-1E+10	1	-1E+10	1	-1E+10	1	-1E+10	1	-1E+10	1
4902549	89	C	01/28/2023	21:11	-133.319	47.471	0	69.20	0	9.0830	0	32.3300	0	25.017	0	68.611	0	255.8	4	89.6	4	-1E+10	1	-1E+10	1	-1E+10	1	-1E+10	1	-1E+10	1	-1E+10	1
4902549	89	C	01/28/2023	21:11	-133.319	47.471	0	70.00	0	9.0280	0	32.3390	0	25.032	0	69.404	0	255.5	4	89.3	4	-1E+10	1	-1E+10	1	-1E+10	1	-1E+10	1	-1E+10	1	-1E+10	1
4902549	89	C	01/28/2023	21:11	-133.319	47.471	0	71.00	0	8.9730	0	32.3490	0	25.048	0	70.396	0	255.1	4	89.1	4	-1E+10	1	-1E+10	1	-1E+10	1	-1E+10	1	-1E+10	1	-1E+10	1
4902549	89	C	01/28/2023	21:11	-133.319	47.471	0	72.10	0	8.9600	0	32.3510	0	25.052	0	71.486	0	254.3	4	88.8	4	-1E+10	1	-1E+10	1	-1E+10	1	-1E+10	1	-1E+10	1	-1E+10	1
4902549	89	C	01/28/2023	21:11	-133.319	47.471	0	73.10	0	8.9490	0	32.3520	0	25.055	0	72.477	0	253.5	4	88.5	4	-1E+10	1	-1E+10	1	-1E+10	1	-1E+10	1	-1E+10	1	-1E+10	1
4902549	89	C	01/28/2023	21:11	-133.319	47.471	0	74.20	0	8.9360	0	32.3550	0	25.059	0	73.568	0	252.6	4	88.2	4	-1E+10	1	-1E+10	1	-1E+10	1	-1E+10	1	-1E+10	1	-1E+10	1
4902549	89	C	01/28/2023	21:11	-133.319	47.471	0	75.00	0	8.9190	0	32.3580	0	25.064	0	74.361	0	251.8	4	87.9	4	-1E+10	1	-1E+10	1	-1E+10	1	-1E+10	1	-1E+10	1	-1E+10	1
4902549	89	C	01/28/2023	21:11	-133.319	47.471	0	76.10	0	8.8920	0	32.3600	0	25.070	0	75.451	0	250.5	4	87.4	4	-1E+10	1	-1E+10	1	-1E+10	1	-1E+10	1	-1E+10	1	-1E+10	1
4902549	89	C	01/28/2023	21:11	-133.319	47.471	0	77.00	0	8.7600	0	32.3830	0	25.108	0	76.343	0	250.1	4	87.0	4	-1E+10	1	-1E+10	1	-1E+10	1	-1E+10	1	-1E+10	1	-1E+10	1
4902549	89	C	01/28/2023	21:11	-133.319	47.471	0	78.00	0	8.6500	0	32.4020	0	25.139	0	77.335	0	249.6	4	86.6	4	-1E+10	1	-1E+10	1	-1E+10	1	-1E+10	1	-1E+10	1	-1E+10	1
4902549	89	C	01/28/2023	21:11	-133.319	47.471	0	79.00	0	8.6170	0	32.4060	0	25.148	0	78.326	0	248.6	4	86.2	4	-1E+10	1	-1E+10	1	-1E+10	1	-1E+10	1	-1E+10	1	-1E+10	1
4902549	89	C	01/28/2023	21:11	-133.319	47.471	0	80.20	0	8.5610	0	32.4130	0	25.161	0	79.515	0	247.5	4	85.7	4	-1E+10	1	-1E+10	1	-1E+10	1	-1E+10	1	-1E+10	1	-1E+10	1
4902549	89	C	01/28/2023	21:11	-133.319	47.471	0	80.90	0	8.5180	0	32.4190	0	25.173	0	80.209	0	247.1	4	85.5	4	-1E+10	1	-1E+10	1	-1E+10	1	-1E+10	1	-1E+10	1	-1E+10	1
4902549	89	C	01/28/2023	21:11	-133.319	47.471	0	82.10	0	8.4190	0	32.4320	0	25.198	0	81.399	0	245.7	4	84.8	4	-1E+10	1	-1E+10	1	-1E+10	1	-1E+10	1	-1E+10	1	-1E+10	1
4902549	89	C	01/28/2023	21:11	-133.319	47.471	0	83.00	0	8.2960	0	32.4490	0	25.229	0	82.291	0	244.8	4	84.3	4	-1E+10	1	-1E+10	1	-1E+10	1	-1E+10	1	-1E+10	1	-1E+10	1
4902549	89	C	01/28/2023	21:11	-133.319	47.471	0	83.90	0	8.2100	0	32.4710	0	25.259	0	83.183	0	243.9	4	83.8	4	-1E+10	1	-1E+10	1	-1E+10	1	-1E+10	1	-1E+10	1	-1E+10	1
4902549	89	C	01/28/2023	21:11	-133.319	47.471	0	84.90	0	8.1500	0	32.4930	0	25.285	0	84.174	0	249.1	4	85.5	4	-1E+10	1	-1E+10	1	-1E+10	1	-1E+10	1	-1E+10	1	-1E+10	1
4902549	89	C	01/28/2023	21:11	-133.319	47.471	0	85.90	0	8.1430	0	32.4970	0	25.289	0	85.166	0	247.7	4	85.0	4	-1E+10	1	-1E+10	1	-1E+10	1	-1E+10	1	-1E+10	1	-1E+10	1
4902549	89	C	01/28/2023	21:11	-133.319	47.471	0	87.00	0	8.1250	0	32.4990	0	25.294	0	86.256	0	245.9	4	84.4	4	-1E+10	1	-1E+10	1	-1E+10	1	-1E+10	1	-1E+10	1	-1E+10	1
4902549	89	C	01/28/2023	21:11	-133.319	47.471	0	88.00	0	8.0850	0	32.5150	0	25.312	0	87.247	0	244.7	4	83.9	4	-1E+10	1	-1E+10	1	-1E+10	1	-1E+10	1	-1E+10	1	-1E+10	1
4902549	89	C	01/28/2023	21:11	-133.319	47.471	0	89.10	0	8.0180	0	32.5380	0	25.340	0	88.338	0	243.6	4	83.4	4	-1E+10	1	-1E+10	1	-1E+10	1	-1E+10	1	-1E+10	1	-1E+10	1
4902549	89	C	01/28/2023	21:11	-133.319	47.471	0	90.00	0	7.9950	0	32.5400	0	25.345	0	89.230	0	242.6	4	83.0	4	-1E+10	1	-1E+10	1	-1E+10	1	-1E+10	1	-1E+10	1	-1E+10	1
4902549	89	C	01/28/2023	21:11	-133.319	47.471	0	90.90	0	7.9480	0	32.5550	0	25.363	0	90.122	0	241.4	4	82.6	4	-1E+10	1	-1E+10	1	-1E+10	1	-1E+10	1	-1E+10	1	-1E+10	1
4902549	89	C	01/28/2023	21:11	-133.319	47.471	0	92.20	0	7.8870	0	32.5640	0	25.379	0	91.410	0	239.7	4	81.9	4	-1E+10	1	-1E+10	1	-1E+10	1	-1E+10	1	-1E+10	1	-1E+10	1
4902549	89	C	01/28/2023	21:11	-133.319	47.471	0	93.10	0	7.8790	0	32.5830	0	25.395	0	92.302	0	238.2	4	81.4	4	-1E+10	1	-1E+10	1	-1E+10	1	-1E+10	1	-1E+10	1	-1E+10	1
4902549	89	C	01/28/2023	21:11	-133.319	47.471	0	93.80	0	7.8840	0	32.6060	0	25.412	0	92.996	0	237.6	4	81.2	4	-1E+10	1	-1E+10	1	-1E+10	1	-1E+10	1	-1E+10	1	-1E+10	1
4902549	89	C	01/28/2023	21:11	-133.319	47.471	0	94.80	0	7.8780	0	32.6130	0	25.419	0	93.987	0	236.7	4	80.9	4	-1E+10	1	-1E+10	1	-1E+10	1	-1E+10	1	-1E+10	1	-1E+10	1
4902549	89	C	01/28/2023	21:11	-133.319	47.471	0	95.80	0	7.8570	0	32.6230	0	25.430	0	94.979	0	236.2	4	80.7	4	-1E+10	1	-1E+10	1	-1E+10	1	-1E+10	1	-1E+10	1	-1E+10	1
4902549	89	C	01/28/2023	21:11	-133.319	47.471	0	97.00	0	7.8250	0	32.6350	0	25.444	0	96.168	0	235.7	4	80.4	4	-1E+10	1	-1E+10	1	-1E+10	1	-1E+10	1	-1E+10	1	-1E+10	1
4902549	89	C	01/28/2023	21:11	-133.319	47.471	0	98.10	0	7.7690	0	32.6460	0	25.460	0	97.258	0	235.3	4	80.2	4	-1E+10	1	-1E+10	1	-1E+10	1	-1E+10	1	-1E+10	1	-1E+10	1
4902549	89	C	01/28/2023	21:11	-133.319	47.471	0	99.20	0	7.7120	0	32.6550	0	25.475	0	98.349	0	235.1	4	80.0	4	-1E+10	1	-1E+10	1	-1E+10	1	-1E+10	1	-1E+10	1	-1E+10	1
4902549	89	C	01/28/2023	21:11	-133.319	47.471	0	100.00	0	7.6410	0	32.6570	0	25.487	0	99.142	0	234.8	4	79.8	4	-1E+10	1	-1E+10	1	-1E+10	1	-1E+10	1	-1E+10	1	-1E+10	1
4902549	89	C	01/28/2023	21:11	-133.319	47.471	0	101.00	0	7.5730	0	32.6760	0	25.511	0	100.133	0	234.1	4	79.5	4	-1E+10	1	-1E+10	1	-1E+10	1	-1E+10	1	-1E+10	1	-1E+10	1
4902549	89	C	01/28/2023	21:11	-133.319	47.471	0	101.90	0	7.4950	0	32.6880	0	25.532	0	101.025	0	233.4	4	79.1	4	-1E+10	1	-1E+10	1	-1E+10	1	-1E+10	1	-1E+10	1	-1E+10	1
4902549	89	C	01/28/2023	21:11	-133.319	47.471	0	102.80	0	7.3470	0	32.7060	0	25.566	0	101.917	0	233.0	4	78.7	4	-1E+10	1	-1E+10	1	-1E+10	1	-1E+10	1	-1E+10	1	-1E+10	1
4902549	89	C	01/28/2023	21:11	-133.319	47.471	0	104.10	0	7.2660	0	32.7650	0	25.624	0	103.205	0	232.2	4	78.3	4	-1E+10	1	-1E+10	1	-1E+10	1	-1E+10	1	-1E+10	1	-1E+10	1
4902549	89	C	01/28/2023	21:11	-133.319	47.471	0	105.10	0	7.2170	0	32.7760	0	25.639	0	104.197	0	231.6	4	78.0	4	-1E+10	1	-1E+10	1	-1E+10	1	-1E+10	1	-1E+10	1	-1E+10	1
4902549	89	C	01/28/2023	21:11	-133.319	47.471	0	106.00	0	7.2120	0	32.7900	0	25.651	0	105.089	0	231.6	4	78.0	4	-1E+10	1	-1E+10	1	-1E+10	1	-1E+10	1	-1E+10	1	-1E+10	1
4902549	89	C	01/28/2023	21:11	-133.319	47.471	0	107.10	0	7.2520	0	32.8100	0	25.661	0	106.179	0	232.5	4	78.4	4	-1E+10	1	-1E+10	1	-1E+10	1	-1E+10	1	-1E+10	1	-1E+10	1
4902549	89	C	01/28/2023	21:11	-133.319	47.471	0	108.00	0	7.2350	0	32.8180	0	25.670	0	107.071	0	234.0	4	78.9	4	-1E+10	1	-1E+10	1	-1E+10	1	-1E+10	1	-1E+10	1	-1E+10	1
4902549	89	C	01/28/2023	21:11	-133.319	47.471	0	109.10	0	7.0650	0	32.7960	0	25.676	0	108.161	0	235.0	4	78.9	4	-1E+10	1	-1E+10	1	-1E+10	1	-1E+10	1	-1E+10	1	-1E+10	1
4902549	89	C	01/28/2023	21:11	-133.319	47.471	0	110.10	0	6.9220	0	32.8050	0	25.702	0	109.152	0	234.5	4	78.5	4	-1E+10	1	-1E+10	1	-1E+10	1	-1E+10	1	-1E+10	1	-1E+10	1
4902549	89	C	01/28/2023	21:11	-133.319	47.471	0	111.20	0	6.8840	0	32.8180	0	25.717	0	110.243	0	232.7	4	77.8	4	-1E+10	1	-1E+10	1	-1E+10	1	-1E+10	1	-1E+10	1	-1E+10	1
4902549	89	C	01/28/2023	21:11	-133.319	47.471	0	111.90	0	6.8380	0	32.8200	0	25.725	0	110.936	0	231.2	4	77.3	4	-1E+10	1	-1E+10	1	-1E+10	1	-1E+10	1	-1E+10	1	-1E+10	1
4902549	89	C	01/28/2023	21:11	-133.319	47.471	0	112.80	0	6.8260	0	32.8290	0	25.734	0	111.828	0	228.8	4	76.4	4	-1E+10	1	-1E+10	1	-1E+10	1	-1E+10	1	-1E+10	1	-1E+10	1
4902549	89	C	01/28/2023	21:11	-133.319	47.471	0	113.70	0	6.8340	0	32.8360	0	25.738	0	112.720	0	225.9	4	75.5	4	-1E+10	1	-1E+10	1	-1E+10	1	-1E+10	1	-1E+10	1	-1E+10	1
4902549	89	C	01/28/2023	21:11	-133.319	47.471	0	115.10	0	6.8930	0	32.8630	0	25.752	0	114.108	0	220.9	4	73.9	4	-1E+10	1	-1E+10	1	-1E+10	1	-1E+10	1	-1E+10	1	-1E+10	1
4902549	89	C	01/28/2023	21:11	-133.319	47.471	0	116.20	0	6.8870	0	32.8680	0	25.756	0	115.198	0	215.9	4	72.3	4	-1E+10	1	-1E+10	1	-1E+10	1	-1E+10	1	-1E+10	1	-1E+10	1
4902549	89	C	01/28/2023	21:11	-133.319	47.471	0	117.10	0	6.8870	0	32.8760	0	25.763	0	116.090	0	211.1	4	70.6	4	-1E+10	1	-1E+10	1	-1E+10	1	-1E+10	1	-1E+10	1	-1E+10	1
4902549	89	C	01/28/2023	21:11	-133.319	47.471	0	118.00	0	7.0350	0	32.9320	0	25.787	0	116.982	0	206.5	4	69.4	4	-1E+10	1	-1E+10	1	-1E+10	1	-1E+10	1	-1E+10	1	-1E+10	1
4902549	89	C	01/28/2023	21:11	-133.319	47.471	0	118.90	0	7.1380	0	32.9590	0	25.794	0	117.874	0	202.3	4	68.1	4	-1E+10	1	-1E+10	1	-1E+10	1	-1E+10	1	-1E+10	1	-1E+10	1
4902549	89	C	01/28/2023	21:11	-133.319	47.471	0	120.20	0	7.2020	0	33.0110	0	25.826	0	119.162	0	196.0	4	66.1	4	-1E+10	1	-1E+10	1	-1E+10	1	-1E+10	1	-1E+10	1	-1E+10	1
4902549	89	C	01/28/2023	21:11	-133.319	47.471	0	121.00	0	7.2480	0	33.0440	0	25.846	0	119.955	0	192.1	4	64.9	4	-1E+10	1	-1E+10	1	-1E+10	1	-1E+10	1	-1E+10	1	-1E+10	1
4902549	89	C	01/28/2023	21:11	-133.319	47.471	0	121.70	0	7.3110	0	33.0890	0	25.873	0	120.649	0	189.7	4	64.2	4	-1E+10	1	-1E+10	1	-1E+10	1	-1E+10	1	-1E+10	1	-1E+10	1
4902549	89	C	01/28/2023	21:11	-133.319	47.471	0	122.70	0	7.3410	0	33.1200	0	25.893	0	121.640	0	187.4	4	63.5	4	-1E+10	1	-1E+10	1	-1E+10	1	-1E+10	1	-1E+10	1	-1E+10	1
4902549	89	C	01/28/2023	21:11	-133.319	47.471	0	123.70	0	7.3480	0	33.1460	0	25.913	0	122.631	0	185.5	4	62.9	4	-1E+10	1	-1E+10	1	-1E+10	1	-1E+10	1	-1E+10	1	-1E+10	1
4902549	89	C	01/28/2023	21:11	-133.319	47.471	0	124.90	0	7.3420	0	33.1760	0	25.937	0	123.820	0	183.7	4	62.2	4	-1E+10	1	-1E+10	1	-1E+10	1	-1E+10	1	-1E+10	1	-1E+10	1
4902549	89	C	01/28/2023	21:11	-133.319	47.471	0	125.80	0	7.3370	0	33.1950	0	25.953	0	124.712	0	182.2	4	61.8	4	-1E+10	1	-1E+10	1	-1E+10	1	-1E+10	1	-1E+10	1	-1E+10	1
4902549	89	C	01/28/2023	21:11	-133.319	47.471	0	126.80	0	7.3400	0	33.2150	0	25.968	0	125.703	0	180.8	4	61.3	4	-1E+10	1	-1E+10	1	-1E+10	1	-1E+10	1	-1E+10	1	-1E+10	1
4902549	89	C	01/28/2023	21:11	-133.319	47.471	0	128.10	0	7.3450	0	33.2360	0	25.984	0	126.992	0	178.8	4	60.6	4	-1E+10	1	-1E+10	1	-1E+10	1	-1E+10	1	-1E+10	1	-1E+10	1
4902549	89	C	01/28/2023	21:11	-133.319	47.471	0	129.10	0	7.3530	0	33.2550	0	25.998	0	127.983	0	177.6	4	60.2	4	-1E+10	1	-1E+10	1	-1E+10	1	-1E+10	1	-1E+10	1	-1E+10	1
4902549	89	C	01/28/2023	21:11	-133.319	47.471	0	129.80	0	7.3570	0	33.2690	0	26.008	0	128.677	0	176.8	4	60.0	4	-1E+10	1	-1E+10	1	-1E+10	1	-1E+10	1	-1E+10	1	-1E+10	1
4902549	89	C	01/28/2023	21:11	-133.319	47.471	0	130.90	0	7.3610	0	33.3020	0	26.034	0	129.767	0	175.8	4	59.7	4	-1E+10	1	-1E+10	1	-1E+10	1	-1E+10	1	-1E+10	1	-1E+10	1
4902549	89	C	01/28/2023	21:11	-133.319	47.471	0	132.10	0	7.3600	0	33.3200	0	26.048	0	130.956	0	174.8	4	59.3	4	-1E+10	1	-1E+10	1	-1E+10	1	-1E+10	1	-1E+10	1	-1E+10	1
4902549	89	C	01/28/2023	21:11	-133.319	47.471	0	132.80	0	7.3600	0	33.3230	0	26.050	0	131.650	0	174.3	4	59.2	4	-1E+10	1	-1E+10	1	-1E+10	1	-1E+10	1	-1E+10	1	-1E+10	1
4902549	89	C	01/28/2023	21:11	-133.319	47.471	0	133.90	0	7.3580	0	33.3300	0	26.056	0	132.740	0	173.3	4	58.8	4	-1E+10	1	-1E+10	1	-1E+10	1	-1E+10	1	-1E+10	1	-1E+10	1
4902549	89	C	01/28/2023	21:11	-133.319	47.471	0	135.10	0	7.3560	0	33.3450	0	26.068	0	133.929	0	172.4	4	58.5	4	-1E+10	1	-1E+10	1	-1E+10	1	-1E+10	1	-1E+10	1	-1E+10	1
4902549	89	C	01/28/2023	21:11	-133.319	47.471	0	135.90	0	7.3570	0	33.3520	0	26.074	0	134.722	0	171.8	4	58.3	4	-1E+10	1	-1E+10	1	-1E+10	1	-1E+10	1	-1E+10	1	-1E+10	1
4902549	89	C	01/28/2023	21:11	-133.319	47.471	0	137.00	0	7.3460	0	33.3770	0	26.095	0	135.812	0	170.9	4	58.0	4	-1E+10	1	-1E+10	1	-1E+10	1	-1E+10	1	-1E+10	1	-1E+10	1
4902549	89	C	01/28/2023	21:11	-133.319	47.471	0	138.20	0	7.3400	0	33.3870	0	26.104	0	137.001	0	169.8	4	57.6	4	-1E+10	1	-1E+10	1	-1E+10	1	-1E+10	1	-1E+10	1	-1E+10	1
4902549	89	C	01/28/2023	21:11	-133.319	47.471	0	139.00	0	7.3320	0	33.4140	0	26.126	0	137.794	0	169.1	4	57.4	4	-1E+10	1	-1E+10	1	-1E+10	1	-1E+10	1	-1E+10	1	-1E+10	1
4902549	89	C	01/28/2023	21:11	-133.319	47.471	0	139.80	0	7.3300	0	33.4290	0	26.138	0	138.587	0	168.4	4	57.2	4	-1E+10	1	-1E+10	1	-1E+10	1	-1E+10	1	-1E+10	1	-1E+10	1
4902549	89	C	01/28/2023	21:11	-133.319	47.471	0	140.90	0	7.3270	0	33.4390	0	26.146	0	139.677	0	167.5	4	56.8	4	-1E+10	1	-1E+10	1	-1E+10	1	-1E+10	1	-1E+10	1	-1E+10	1
4902549	89	C	01/28/2023	21:11	-133.319	47.471	0	142.10	0	7.3240	0	33.4480	0	26.154	0	140.866	0	166.4	4	56.5	4	-1E+10	1	-1E+10	1	-1E+10	1	-1E+10	1	-1E+10	1	-1E+10	1
4902549	89	C	01/28/2023	21:11	-133.319	47.471	0	142.80	0	7.3200	0	33.4700	0	26.172	0	141.560	0	165.6	4	56.2	4	-1E+10	1	-1E+10	1	-1E+10	1	-1E+10	1	-1E+10	1	-1E+10	1
4902549	89	C	01/28/2023	21:11	-133.319	47.471	0	143.90	0	7.3160	0	33.4810	0	26.181	0	142.650	0	164.4	4	55.8	4	-1E+10	1	-1E+10	1	-1E+10	1	-1E+10	1	-1E+10	1	-1E+10	1
4902549	89	C	01/28/2023	21:11	-133.319	47.471	0	145.10	0	7.3150	0	33.4880	0	26.187	0	143.839	0	163.1	4	55.4	4	-1E+10	1	-1E+10	1	-1E+10	1	-1E+10	1	-1E+10	1	-1E+10	1
4902549	89	C	01/28/2023	21:11	-133.319	47.471	0	145.90	0	7.3110	0	33.5030	0	26.199	0	144.632	0	162.2	4	55.1	4	-1E+10	1	-1E+10	1	-1E+10	1	-1E+10	1	-1E+10	1	-1E+10	1
4902549	89	C	01/28/2023	21:11	-133.319	47.471	0	146.70	0	7.3000	0	33.5360	0	26.226	0	145.424	0	161.4	4	54.8	4	-1E+10	1	-1E+10	1	-1E+10	1	-1E+10	1	-1E+10	1	-1E+10	1
4902549	89	C	01/28/2023	21:11	-133.319	47.471	0	147.90	0	7.2950	0	33.5520	0	26.240	0	146.613	0	160.2	4	54.4	4	-1E+10	1	-1E+10	1	-1E+10	1	-1E+10	1	-1E+10	1	-1E+10	1
4902549	89	C	01/28/2023	21:11	-133.319	47.471	0	149.10	0	7.2850	0	33.5770	0	26.261	0	147.803	0	159.2	4	54.0	4	-1E+10	1	-1E+10	1	-1E+10	1	-1E+10	1	-1E+10	1	-1E+10	1
4902549	89	C	01/28/2023	21:11	-133.319	47.471	0	149.90	0	7.2810	0	33.5850	0	26.268	0	148.595	0	158.5	4	53.8	4	-1E+10	1	-1E+10	1	-1E+10	1	-1E+10	1	-1E+10	1	-1E+10	1
4902549	89	C	01/28/2023	21:11	-133.319	47.471	0	150.70	0	7.2760	0	33.5970	0	26.278	0	149.388	0	157.7	4	53.5	4	-1E+10	1	-1E+10	1	-1E+10	1	-1E+10	1	-1E+10	1	-1E+10	1
4902549	89	C	01/28/2023	21:11	-133.319	47.471	0	152.00	0	7.2750	0	33.6090	0	26.287	0	150.676	0	156.8	4	53.2	4	-1E+10	1	-1E+10	1	-1E+10	1	-1E+10	1	-1E+10	1	-1E+10	1
4902549	89	C	01/28/2023	21:11	-133.319	47.471	0	153.20	0	7.2750	0	33.6120	0	26.290	0	151.865	0	155.9	4	52.9	4	-1E+10	1	-1E+10	1	-1E+10	1	-1E+10	1	-1E+10	1	-1E+10	1
4902549	89	C	01/28/2023	21:11	-133.319	47.471	0	154.00	0	7.2740	0	33.6160	0	26.293	0	152.658	0	155.3	4	52.7	4	-1E+10	1	-1E+10	1	-1E+10	1	-1E+10	1	-1E+10	1	-1E+10	1
4902549	89	C	01/28/2023	21:11	-133.319	47.471	0	154.90	0	7.2740	0	33.6180	0	26.295	0	153.550	0	154.8	4	52.5	4	-1E+10	1	-1E+10	1	-1E+10	1	-1E+10	1	-1E+10	1	-1E+10	1
4902549	89	C	01/28/2023	21:11	-133.319	47.471	0	155.70	0	7.2730	0	33.6200	0	26.296	0	154.343	0	154.1	4	52.3	4	-1E+10	1	-1E+10	1	-1E+10	1	-1E+10	1	-1E+10	1	-1E+10	1
4902549	89	C	01/28/2023	21:11	-133.319	47.471	0	156.90	0	7.2680	0	33.6300	0	26.305	0	155.532	0	153.0	4	51.9	4	-1E+10	1	-1E+10	1	-1E+10	1	-1E+10	1	-1E+10	1	-1E+10	1
4902549	89	C	01/28/2023	21:11	-133.319	47.471	0	158.10	0	7.2590	0	33.6440	0	26.317	0	156.721	0	152.0	4	51.6	4	-1E+10	1	-1E+10	1	-1E+10	1	-1E+10	1	-1E+10	1	-1E+10	1
4902549	89	C	01/28/2023	21:11	-133.319	47.471	0	159.00	0	7.2450	0	33.6620	0	26.333	0	157.613	0	151.5	4	51.4	4	-1E+10	1	-1E+10	1	-1E+10	1	-1E+10	1	-1E+10	1	-1E+10	1
4902549	89	C	01/28/2023	21:11	-133.319	47.471	0	159.90	0	7.2370	0	33.6720	0	26.342	0	158.504	0	151.1	4	51.3	4	-1E+10	1	-1E+10	1	-1E+10	1	-1E+10	1	-1E+10	1	-1E+10	1
4902549	89	C	01/28/2023	21:11	-133.319	47.471	0	160.70	0	7.2340	0	33.6750	0	26.345	0	159.297	0	150.7	4	51.1	4	-1E+10	1	-1E+10	1	-1E+10	1	-1E+10	1	-1E+10	1	-1E+10	1
4902549	89	C	01/28/2023	21:11	-133.319	47.471	0	161.90	0	7.2330	0	33.6760	0	26.346	0	160.486	0	149.9	4	50.9	4	-1E+10	1	-1E+10	1	-1E+10	1	-1E+10	1	-1E+10	1	-1E+10	1
4902549	89	C	01/28/2023	21:11	-133.319	47.471	0	163.20	0	7.2300	0	33.6790	0	26.349	0	161.774	0	149.1	4	50.6	4	-1E+10	1	-1E+10	1	-1E+10	1	-1E+10	1	-1E+10	1	-1E+10	1
4902549	89	C	01/28/2023	21:11	-133.319	47.471	0	164.00	0	7.2230	0	33.6860	0	26.355	0	162.567	0	148.6	4	50.4	4	-1E+10	1	-1E+10	1	-1E+10	1	-1E+10	1	-1E+10	1	-1E+10	1
4902549	89	C	01/28/2023	21:11	-133.319	47.471	0	164.90	0	7.2190	0	33.6880	0	26.358	0	163.459	0	148.0	4	50.2	4	-1E+10	1	-1E+10	1	-1E+10	1	-1E+10	1	-1E+10	1	-1E+10	1
4902549	89	C	01/28/2023	21:11	-133.319	47.471	0	165.80	0	7.2080	0	33.6970	0	26.366	0	164.351	0	147.4	4	50.0	4	-1E+10	1	-1E+10	1	-1E+10	1	-1E+10	1	-1E+10	1	-1E+10	1
4902549	89	C	01/28/2023	21:11	-133.319	47.471	0	166.60	0	7.1880	0	33.7130	0	26.382	0	165.143	0	147.0	4	49.8	4	-1E+10	1	-1E+10	1	-1E+10	1	-1E+10	1	-1E+10	1	-1E+10	1
4902549	89	C	01/28/2023	21:11	-133.319	47.471	0	167.90	0	7.1550	0	33.7320	0	26.401	0	166.431	0	146.7	4	49.7	4	-1E+10	1	-1E+10	1	-1E+10	1	-1E+10	1	-1E+10	1	-1E+10	1
4902549	89	C	01/28/2023	21:11	-133.319	47.471	0	169.30	0	7.1470	0	33.7360	0	26.405	0	167.819	0	146.2	4	49.5	4	-1E+10	1	-1E+10	1	-1E+10	1	-1E+10	1	-1E+10	1	-1E+10	1
4902549	89	C	01/28/2023	21:11	-133.319	47.471	0	170.20	0	7.1460	0	33.7360	0	26.405	0	168.710	0	145.8	4	49.4	4	-1E+10	1	-1E+10	1	-1E+10	1	-1E+10	1	-1E+10	1	-1E+10	1
4902549	89	C	01/28/2023	21:11	-133.319	47.471	0	171.00	0	7.1350	0	33.7410	0	26.411	0	169.503	0	145.4	4	49.3	4	-1E+10	1	-1E+10	1	-1E+10	1	-1E+10	1	-1E+10	1	-1E+10	1
4902549	89	C	01/28/2023	21:11	-133.319	47.471	0	171.90	0	7.1270	0	33.7440	0	26.414	0	170.395	0	144.9	4	49.1	4	-1E+10	1	-1E+10	1	-1E+10	1	-1E+10	1	-1E+10	1	-1E+10	1
4902549	89	C	01/28/2023	21:11	-133.319	47.471	0	172.80	0	7.1160	0	33.7490	0	26.420	0	171.287	0	144.3	4	48.9	4	-1E+10	1	-1E+10	1	-1E+10	1	-1E+10	1	-1E+10	1	-1E+10	1
4902549	89	C	01/28/2023	21:11	-133.319	47.471	0	173.70	0	7.1010	0	33.7550	0	26.427	0	172.178	0	143.9	4	48.7	4	-1E+10	1	-1E+10	1	-1E+10	1	-1E+10	1	-1E+10	1	-1E+10	1
4902549	89	C	01/28/2023	21:11	-133.319	47.471	0	174.60	0	7.0940	0	33.7560	0	26.428	0	173.070	0	143.4	4	48.5	4	-1E+10	1	-1E+10	1	-1E+10	1	-1E+10	1	-1E+10	1	-1E+10	1
4902549	89	C	01/28/2023	21:11	-133.319	47.471	0	175.90	0	7.0680	0	33.7660	0	26.440	0	174.358	0	142.9	4	48.3	4	-1E+10	1	-1E+10	1	-1E+10	1	-1E+10	1	-1E+10	1	-1E+10	1
4902549	89	C	01/28/2023	21:11	-133.319	47.471	0	177.40	0	7.0500	0	33.7700	0	26.445	0	175.844	0	142.2	4	48.1	4	-1E+10	1	-1E+10	1	-1E+10	1	-1E+10	1	-1E+10	1	-1E+10	1
4902549	89	C	01/28/2023	21:11	-133.319	47.471	0	178.20	0	7.0370	0	33.7730	0	26.450	0	176.637	0	141.8	4	47.9	4	-1E+10	1	-1E+10	1	-1E+10	1	-1E+10	1	-1E+10	1	-1E+10	1
4902549	89	C	01/28/2023	21:11	-133.319	47.471	0	179.20	0	7.0230	0	33.7780	0	26.456	0	177.628	0	141.4	4	47.8	4	-1E+10	1	-1E+10	1	-1E+10	1	-1E+10	1	-1E+10	1	-1E+10	1
4902549	89	C	01/28/2023	21:11	-133.319	47.471	0	180.10	0	7.0040	0	33.7830	0	26.462	0	178.519	0	141.3	4	47.7	4	-1E+10	1	-1E+10	1	-1E+10	1	-1E+10	1	-1E+10	1	-1E+10	1
4902549	89	C	01/28/2023	21:11	-133.319	47.471	0	181.00	0	6.9950	0	33.7850	0	26.465	0	179.411	0	141.0	4	47.6	4	-1E+10	1	-1E+10	1	-1E+10	1	-1E+10	1	-1E+10	1	-1E+10	1
4902549	89	C	01/28/2023	21:11	-133.319	47.471	0	181.90	0	6.9910	0	33.7850	0	26.465	0	180.303	0	140.7	4	47.5	4	-1E+10	1	-1E+10	1	-1E+10	1	-1E+10	1	-1E+10	1	-1E+10	1
4902549	89	C	01/28/2023	21:11	-133.319	47.471	0	182.80	0	6.9810	0	33.7870	0	26.468	0	181.195	0	140.4	4	47.4	4	-1E+10	1	-1E+10	1	-1E+10	1	-1E+10	1	-1E+10	1	-1E+10	1
4902549	89	C	01/28/2023	21:11	-133.319	47.471	0	183.70	0	6.9770	0	33.7880	0	26.470	0	182.086	0	140.1	4	47.3	4	-1E+10	1	-1E+10	1	-1E+10	1	-1E+10	1	-1E+10	1	-1E+10	1
4902549	89	C	01/28/2023	21:11	-133.319	47.471	0	184.60	0	6.9570	0	33.7930	0	26.476	0	182.978	0	139.8	4	47.2	4	-1E+10	1	-1E+10	1	-1E+10	1	-1E+10	1	-1E+10	1	-1E+10	1
4902549	89	C	01/28/2023	21:11	-133.319	47.471	0	185.90	0	6.9300	0	33.7950	0	26.482	0	184.266	0	139.2	4	46.9	4	-1E+10	1	-1E+10	1	-1E+10	1	-1E+10	1	-1E+10	1	-1E+10	1
4902549	89	C	01/28/2023	21:11	-133.319	47.471	0	187.30	0	6.9170	0	33.7980	0	26.486	0	185.653	0	138.5	4	46.7	4	-1E+10	1	-1E+10	1	-1E+10	1	-1E+10	1	-1E+10	1	-1E+10	1
4902549	89	C	01/28/2023	21:11	-133.319	47.471	0	188.20	0	6.9150	0	33.7980	0	26.486	0	186.545	0	137.9	4	46.5	4	-1E+10	1	-1E+10	1	-1E+10	1	-1E+10	1	-1E+10	1	-1E+10	1
4902549	89	C	01/28/2023	21:11	-133.319	47.471	0	189.10	0	6.9130	0	33.7980	0	26.486	0	187.436	0	137.3	4	46.3	4	-1E+10	1	-1E+10	1	-1E+10	1	-1E+10	1	-1E+10	1	-1E+10	1
4902549	89	C	01/28/2023	21:11	-133.319	47.471	0	190.00	0	6.8970	0	33.8020	0	26.492	0	188.328	0	136.7	4	46.1	4	-1E+10	1	-1E+10	1	-1E+10	1	-1E+10	1	-1E+10	1	-1E+10	1
4902549	89	C	01/28/2023	21:11	-133.319	47.471	0	190.90	0	6.8750	0	33.8030	0	26.495	0	189.220	0	136.2	4	45.9	4	-1E+10	1	-1E+10	1	-1E+10	1	-1E+10	1	-1E+10	1	-1E+10	1
4902549	89	C	01/28/2023	21:11	-133.319	47.471	0	191.80	0	6.8670	0	33.8050	0	26.498	0	190.111	0	135.8	4	45.7	4	-1E+10	1	-1E+10	1	-1E+10	1	-1E+10	1	-1E+10	1	-1E+10	1
4902549	89	C	01/28/2023	21:11	-133.319	47.471	0	192.70	0	6.8590	0	33.8070	0	26.501	0	191.003	0	135.3	4	45.6	4	-1E+10	1	-1E+10	1	-1E+10	1	-1E+10	1	-1E+10	1	-1E+10	1
4902549	89	C	01/28/2023	21:11	-133.319	47.471	0	193.60	0	6.8470	0	33.8080	0	26.503	0	191.895	0	134.8	4	45.4	4	-1E+10	1	-1E+10	1	-1E+10	1	-1E+10	1	-1E+10	1	-1E+10	1
4902549	89	C	01/28/2023	21:11	-133.319	47.471	0	194.50	0	6.8300	0	33.8100	0	26.507	0	192.786	0	134.3	4	45.2	4	-1E+10	1	-1E+10	1	-1E+10	1	-1E+10	1	-1E+10	1	-1E+10	1
4902549	89	C	01/28/2023	21:11	-133.319	47.471	0	195.90	0	6.8160	0	33.8110	0	26.510	0	194.173	0	133.4	4	44.9	4	-1E+10	1	-1E+10	1	-1E+10	1	-1E+10	1	-1E+10	1	-1E+10	1
4902549	89	C	01/28/2023	21:11	-133.319	47.471	0	197.30	0	6.7920	0	33.8180	0	26.518	0	195.560	0	132.7	4	44.6	4	-1E+10	1	-1E+10	1	-1E+10	1	-1E+10	1	-1E+10	1	-1E+10	1
4902549	89	C	01/28/2023	21:11	-133.319	47.471	0	198.20	0	6.7780	0	33.8180	0	26.520	0	196.452	0	132.3	4	44.5	4	-1E+10	1	-1E+10	1	-1E+10	1	-1E+10	1	-1E+10	1	-1E+10	1
4902549	89	C	01/28/2023	21:11	-133.319	47.471	0	199.10	0	6.7690	0	33.8180	0	26.522	0	197.344	0	131.9	4	44.3	4	-1E+10	1	-1E+10	1	-1E+10	1	-1E+10	1	-1E+10	1	-1E+10	1
4902549	89	C	01/28/2023	21:11	-133.319	47.471	0	200.10	0	6.7650	0	33.8190	0	26.523	0	198.334	0	131.4	4	44.2	4	-1E+10	1	-1E+10	1	-1E+10	1	-1E+10	1	-1E+10	1	-1E+10	1
4902549	89	C	01/28/2023	21:11	-133.319	47.471	0	201.00	0	6.7520	0	33.8210	0	26.526	0	199.226	0	130.9	4	44.0	4	-1E+10	1	-1E+10	1	-1E+10	1	-1E+10	1	-1E+10	1	-1E+10	1
4902549	89	C	01/28/2023	21:11	-133.319	47.471	0	201.90	0	6.7460	0	33.8210	0	26.527	0	200.118	0	130.4	4	43.8	4	-1E+10	1	-1E+10	1	-1E+10	1	-1E+10	1	-1E+10	1	-1E+10	1
4902549	89	C	01/28/2023	21:11	-133.319	47.471	0	202.90	0	6.7410	0	33.8210	0	26.528	0	201.108	0	129.8	4	43.6	4	-1E+10	1	-1E+10	1	-1E+10	1	-1E+10	1	-1E+10	1	-1E+10	1
4902549	89	C	01/28/2023	21:11	-133.319	47.471	0	203.90	0	6.7390	0	33.8200	0	26.527	0	202.099	0	129.1	4	43.4	4	-1E+10	1	-1E+10	1	-1E+10	1	-1E+10	1	-1E+10	1	-1E+10	1
4902549	89	C	01/28/2023	21:11	-133.319	47.471	0	204.70	0	6.7340	0	33.8210	0	26.529	0	202.892	0	128.4	4	43.1	4	-1E+10	1	-1E+10	1	-1E+10	1	-1E+10	1	-1E+10	1	-1E+10	1
4902549	89	C	01/28/2023	21:11	-133.319	47.471	0	205.70	0	6.7120	0	33.8250	0	26.535	0	203.882	0	127.7	4	42.9	4	-1E+10	1	-1E+10	1	-1E+10	1	-1E+10	1	-1E+10	1	-1E+10	1
4902549	89	C	01/28/2023	21:11	-133.319	47.471	0	206.60	0	6.6990	0	33.8260	0	26.537	0	204.774	0	127.2	4	42.7	4	-1E+10	1	-1E+10	1	-1E+10	1	-1E+10	1	-1E+10	1	-1E+10	1
4902549	89	C	01/28/2023	21:11	-133.319	47.471	0	207.60	0	6.6760	0	33.8280	0	26.542	0	205.764	0	126.7	4	42.5	4	-1E+10	1	-1E+10	1	-1E+10	1	-1E+10	1	-1E+10	1	-1E+10	1
4902549	89	C	01/28/2023	21:11	-133.319	47.471	0	208.50	0	6.6540	0	33.8310	0	26.547	0	206.656	0	126.2	4	42.3	4	-1E+10	1	-1E+10	1	-1E+10	1	-1E+10	1	-1E+10	1	-1E+10	1
4902549	89	C	01/28/2023	21:11	-133.319	47.471	0	209.50	0	6.6440	0	33.8320	0	26.549	0	207.647	0	125.6	4	42.1	4	-1E+10	1	-1E+10	1	-1E+10	1	-1E+10	1	-1E+10	1	-1E+10	1
4902549	89	C	01/28/2023	21:11	-133.319	47.471	0	210.90	0	6.6260	0	33.8340	0	26.553	0	209.034	0	124.9	4	41.8	4	-1E+10	1	-1E+10	1	-1E+10	1	-1E+10	1	-1E+10	1	-1E+10	1
4902549	89	C	01/28/2023	21:11	-133.319	47.471	0	212.40	0	6.6140	0	33.8370	0	26.557	0	210.520	0	124.4	4	41.7	4	-1E+10	1	-1E+10	1	-1E+10	1	-1E+10	1	-1E+10	1	-1E+10	1
4902549	89	C	01/28/2023	21:11	-133.319	47.471	0	213.40	0	6.6100	0	33.8370	0	26.558	0	211.510	0	124.1	4	41.5	4	-1E+10	1	-1E+10	1	-1E+10	1	-1E+10	1	-1E+10	1	-1E+10	1
4902549	89	C	01/28/2023	21:11	-133.319	47.471	0	214.30	0	6.5980	0	33.8370	0	26.559	0	212.402	0	123.6	4	41.4	4	-1E+10	1	-1E+10	1	-1E+10	1	-1E+10	1	-1E+10	1	-1E+10	1
4902549	89	C	01/28/2023	21:11	-133.319	47.471	0	215.30	0	6.5660	0	33.8380	0	26.564	0	213.392	0	123.1	4	41.2	4	-1E+10	1	-1E+10	1	-1E+10	1	-1E+10	1	-1E+10	1	-1E+10	1
4902549	89	C	01/28/2023	21:11	-133.319	47.471	0	216.30	0	6.5550	0	33.8380	0	26.566	0	214.383	0	122.5	4	41.0	4	-1E+10	1	-1E+10	1	-1E+10	1	-1E+10	1	-1E+10	1	-1E+10	1
4902549	89	C	01/28/2023	21:11	-133.319	47.471	0	217.30	0	6.5480	0	33.8390	0	26.568	0	215.374	0	121.9	4	40.8	4	-1E+10	1	-1E+10	1	-1E+10	1	-1E+10	1	-1E+10	1	-1E+10	1
4902549	89	C	01/28/2023	21:11	-133.319	47.471	0	218.30	0	6.5350	0	33.8410	0	26.571	0	216.364	0	121.5	4	40.6	4	-1E+10	1	-1E+10	1	-1E+10	1	-1E+10	1	-1E+10	1	-1E+10	1
4902549	89	C	01/28/2023	21:11	-133.319	47.471	0	219.30	0	6.5060	0	33.8440	0	26.577	0	217.355	0	121.1	4	40.4	4	-1E+10	1	-1E+10	1	-1E+10	1	-1E+10	1	-1E+10	1	-1E+10	1
4902549	89	C	01/28/2023	21:11	-133.319	47.471	0	220.30	0	6.5020	0	33.8440	0	26.578	0	218.345	0	120.6	4	40.3	4	-1E+10	1	-1E+10	1	-1E+10	1	-1E+10	1	-1E+10	1	-1E+10	1
4902549	89	C	01/28/2023	21:11	-133.319	47.471	0	221.20	0	6.5020	0	33.8440	0	26.578	0	219.237	0	120.1	4	40.1	4	-1E+10	1	-1E+10	1	-1E+10	1	-1E+10	1	-1E+10	1	-1E+10	1
4902549	89	C	01/28/2023	21:11	-133.319	47.471	0	222.20	0	6.5020	0	33.8440	0	26.578	0	220.228	0	119.4	4	39.9	4	-1E+10	1	-1E+10	1	-1E+10	1	-1E+10	1	-1E+10	1	-1E+10	1
4902549	89	C	01/28/2023	21:11	-133.319	47.471	0	223.20	0	6.4930	0	33.8440	0	26.579	0	221.218	0	118.7	4	39.7	4	-1E+10	1	-1E+10	1	-1E+10	1	-1E+10	1	-1E+10	1	-1E+10	1
4902549	89	C	01/28/2023	21:11	-133.319	47.471	0	224.20	0	6.4850	0	33.8460	0	26.581	0	222.209	0	118.0	4	39.4	4	-1E+10	1	-1E+10	1	-1E+10	1	-1E+10	1	-1E+10	1	-1E+10	1
4902549	89	C	01/28/2023	21:11	-133.319	47.471	0	225.20	0	6.4730	0	33.8480	0	26.585	0	223.199	0	117.4	4	39.2	4	-1E+10	1	-1E+10	1	-1E+10	1	-1E+10	1	-1E+10	1	-1E+10	1
4902549	89	C	01/28/2023	21:11	-133.319	47.471	0	226.20	0	6.4700	0	33.8480	0	26.585	0	224.190	0	116.7	4	39.0	4	-1E+10	1	-1E+10	1	-1E+10	1	-1E+10	1	-1E+10	1	-1E+10	1
4902549	89	C	01/28/2023	21:11	-133.319	47.471	0	227.30	0	6.4670	0	33.8480	0	26.585	0	225.280	0	116.0	4	38.7	4	-1E+10	1	-1E+10	1	-1E+10	1	-1E+10	1	-1E+10	1	-1E+10	1
4902549	89	C	01/28/2023	21:11	-133.319	47.471	0	228.30	0	6.4580	0	33.8500	0	26.588	0	226.270	0	115.3	4	38.5	4	-1E+10	1	-1E+10	1	-1E+10	1	-1E+10	1	-1E+10	1	-1E+10	1
4902549	89	C	01/28/2023	21:11	-133.319	47.471	0	229.30	0	6.4320	0	33.8520	0	26.593	0	227.261	0	114.8	4	38.3	4	-1E+10	1	-1E+10	1	-1E+10	1	-1E+10	1	-1E+10	1	-1E+10	1
4902549	89	C	01/28/2023	21:11	-133.319	47.471	0	230.30	0	6.4210	0	33.8570	0	26.598	0	228.251	0	114.4	4	38.2	4	-1E+10	1	-1E+10	1	-1E+10	1	-1E+10	1	-1E+10	1	-1E+10	1
4902549	89	C	01/28/2023	21:11	-133.319	47.471	0	231.30	0	6.4190	0	33.8560	0	26.598	0	229.242	0	114.0	4	38.0	4	-1E+10	1	-1E+10	1	-1E+10	1	-1E+10	1	-1E+10	1	-1E+10	1
4902549	89	C	01/28/2023	21:11	-133.319	47.471	0	232.40	0	6.4140	0	33.8570	0	26.599	0	230.331	0	113.6	4	37.9	4	-1E+10	1	-1E+10	1	-1E+10	1	-1E+10	1	-1E+10	1	-1E+10	1
4902549	89	C	01/28/2023	21:11	-133.319	47.471	0	233.40	0	6.4070	0	33.8580	0	26.601	0	231.322	0	113.1	4	37.7	4	-1E+10	1	-1E+10	1	-1E+10	1	-1E+10	1	-1E+10	1	-1E+10	1
4902549	89	C	01/28/2023	21:11	-133.319	47.471	0	234.40	0	6.4020	0	33.8600	0	26.603	0	232.312	0	112.7	4	37.6	4	-1E+10	1	-1E+10	1	-1E+10	1	-1E+10	1	-1E+10	1	-1E+10	1
4902549	89	C	01/28/2023	21:11	-133.319	47.471	0	235.40	0	6.3910	0	33.8610	0	26.606	0	233.303	0	112.4	4	37.5	4	-1E+10	1	-1E+10	1	-1E+10	1	-1E+10	1	-1E+10	1	-1E+10	1
4902549	89	C	01/28/2023	21:11	-133.319	47.471	0	236.50	0	6.3810	0	33.8610	0	26.607	0	234.393	0	112.1	4	37.4	4	-1E+10	1	-1E+10	1	-1E+10	1	-1E+10	1	-1E+10	1	-1E+10	1
4902549	89	C	01/28/2023	21:11	-133.319	47.471	0	237.50	0	6.3730	0	33.8600	0	26.607	0	235.383	0	111.7	4	37.2	4	-1E+10	1	-1E+10	1	-1E+10	1	-1E+10	1	-1E+10	1	-1E+10	1
4902549	89	C	01/28/2023	21:11	-133.319	47.471	0	238.50	0	6.3690	0	33.8610	0	26.608	0	236.374	0	111.3	4	37.1	4	-1E+10	1	-1E+10	1	-1E+10	1	-1E+10	1	-1E+10	1	-1E+10	1
4902549	89	C	01/28/2023	21:11	-133.319	47.471	0	239.50	0	6.3550	0	33.8620	0	26.611	0	237.364	0	110.8	4	36.9	4	-1E+10	1	-1E+10	1	-1E+10	1	-1E+10	1	-1E+10	1	-1E+10	1
4902549	89	C	01/28/2023	21:11	-133.319	47.471	0	240.50	0	6.3360	0	33.8620	0	26.614	0	238.355	0	110.4	4	36.7	4	-1E+10	1	-1E+10	1	-1E+10	1	-1E+10	1	-1E+10	1	-1E+10	1
4902549	89	C	01/28/2023	21:11	-133.319	47.471	0	241.50	0	6.3310	0	33.8620	0	26.614	0	239.345	0	110.0	4	36.6	4	-1E+10	1	-1E+10	1	-1E+10	1	-1E+10	1	-1E+10	1	-1E+10	1
4902549	89	C	01/28/2023	21:11	-133.319	47.471	0	242.50	0	6.3000	0	33.8660	0	26.621	0	240.336	0	109.6	4	36.4	4	-1E+10	1	-1E+10	1	-1E+10	1	-1E+10	1	-1E+10	1	-1E+10	1
4902549	89	C	01/28/2023	21:11	-133.319	47.471	0	243.60	0	6.2930	0	33.8640	0	26.621	0	241.425	0	109.1	4	36.3	4	-1E+10	1	-1E+10	1	-1E+10	1	-1E+10	1	-1E+10	1	-1E+10	1
4902549	89	C	01/28/2023	21:11	-133.319	47.471	0	244.60	0	6.2850	0	33.8630	0	26.621	0	242.416	0	108.6	4	36.1	4	-1E+10	1	-1E+10	1	-1E+10	1	-1E+10	1	-1E+10	1	-1E+10	1
4902549	89	C	01/28/2023	21:11	-133.319	47.471	0	245.60	0	6.2650	0	33.8650	0	26.625	0	243.406	0	108.2	4	35.9	4	-1E+10	1	-1E+10	1	-1E+10	1	-1E+10	1	-1E+10	1	-1E+10	1
4902549	89	C	01/28/2023	21:11	-133.319	47.471	0	246.60	0	6.2540	0	33.8660	0	26.627	0	244.397	0	107.6	4	35.7	4	-1E+10	1	-1E+10	1	-1E+10	1	-1E+10	1	-1E+10	1	-1E+10	1
4902549	89	C	01/28/2023	21:11	-133.319	47.471	0	247.60	0	6.2420	0	33.8660	0	26.629	0	245.387	0	107.1	4	35.6	4	-1E+10	1	-1E+10	1	-1E+10	1	-1E+10	1	-1E+10	1	-1E+10	1
4902549	89	C	01/28/2023	21:11	-133.319	47.471	0	248.70	0	6.2140	0	33.8670	0	26.633	0	246.477	0	106.6	4	35.4	4	-1E+10	1	-1E+10	1	-1E+10	1	-1E+10	1	-1E+10	1	-1E+10	1
4902549	89	C	01/28/2023	21:11	-133.319	47.471	0	249.70	0	6.2030	0	33.8670	0	26.635	0	247.467	0	106.1	4	35.2	4	-1E+10	1	-1E+10	1	-1E+10	1	-1E+10	1	-1E+10	1	-1E+10	1
4902549	89	C	01/28/2023	21:11	-133.319	47.471	0	250.70	0	6.1890	0	33.8680	0	26.637	0	248.458	0	105.5	4	35.0	4	-1E+10	1	-1E+10	1	-1E+10	1	-1E+10	1	-1E+10	1	-1E+10	1
4902549	89	C	01/28/2023	21:11	-133.319	47.471	0	251.80	0	6.1740	0	33.8680	0	26.639	0	249.547	0	105.0	4	34.8	4	-1E+10	1	-1E+10	1	-1E+10	1	-1E+10	1	-1E+10	1	-1E+10	1
4902549	89	C	01/28/2023	21:11	-133.319	47.471	0	252.80	0	6.1600	0	33.8700	0	26.642	0	250.537	0	104.4	4	34.6	4	-1E+10	1	-1E+10	1	-1E+10	1	-1E+10	1	-1E+10	1	-1E+10	1
4902549	89	C	01/28/2023	21:11	-133.319	47.471	0	253.80	0	6.1560	0	33.8690	0	26.642	0	251.528	0	103.8	4	34.4	4	-1E+10	1	-1E+10	1	-1E+10	1	-1E+10	1	-1E+10	1	-1E+10	1
4902549	89	C	01/28/2023	21:11	-133.319	47.471	0	254.80	0	6.1500	0	33.8700	0	26.644	0	252.518	0	103.2	4	34.2	4	-1E+10	1	-1E+10	1	-1E+10	1	-1E+10	1	-1E+10	1	-1E+10	1
4902549	89	C	01/28/2023	21:11	-133.319	47.471	0	255.80	0	6.1410	0	33.8710	0	26.646	0	253.509	0	102.6	4	34.0	4	-1E+10	1	-1E+10	1	-1E+10	1	-1E+10	1	-1E+10	1	-1E+10	1
4902549	89	C	01/28/2023	21:11	-133.319	47.471	0	256.80	0	6.1150	0	33.8740	0	26.651	0	254.499	0	102.0	4	33.8	4	-1E+10	1	-1E+10	1	-1E+10	1	-1E+10	1	-1E+10	1	-1E+10	1
4902549	89	C	01/28/2023	21:11	-133.319	47.471	0	257.80	0	6.0920	0	33.8760	0	26.656	0	255.490	0	101.6	4	33.6	4	-1E+10	1	-1E+10	1	-1E+10	1	-1E+10	1	-1E+10	1	-1E+10	1
4902549	89	C	01/28/2023	21:11	-133.319	47.471	0	258.90	0	6.0870	0	33.8750	0	26.656	0	256.579	0	101.1	4	33.4	4	-1E+10	1	-1E+10	1	-1E+10	1	-1E+10	1	-1E+10	1	-1E+10	1
4902549	89	C	01/28/2023	21:11	-133.319	47.471	0	259.70	0	6.0820	0	33.8760	0	26.657	0	257.371	0	100.6	4	33.3	4	-1E+10	1	-1E+10	1	-1E+10	1	-1E+10	1	-1E+10	1	-1E+10	1
4902549	89	C	01/28/2023	21:11	-133.319	47.471	0	260.90	0	6.0740	0	33.8760	0	26.658	0	258.560	0	99.8	4	33.0	4	-1E+10	1	-1E+10	1	-1E+10	1	-1E+10	1	-1E+10	1	-1E+10	1
4902549	89	C	01/28/2023	21:11	-133.319	47.471	0	262.00	0	6.0610	0	33.8750	0	26.659	0	259.649	0	99.0	4	32.7	4	-1E+10	1	-1E+10	1	-1E+10	1	-1E+10	1	-1E+10	1	-1E+10	1
4902549	89	C	01/28/2023	21:11	-133.319	47.471	0	262.80	0	6.0450	0	33.8780	0	26.663	0	260.442	0	98.6	4	32.6	4	-1E+10	1	-1E+10	1	-1E+10	1	-1E+10	1	-1E+10	1	-1E+10	1
4902549	89	C	01/28/2023	21:11	-133.319	47.471	0	264.00	0	5.9970	0	33.8800	0	26.671	0	261.630	0	98.0	4	32.4	4	-1E+10	1	-1E+10	1	-1E+10	1	-1E+10	1	-1E+10	1	-1E+10	1
4902549	89	C	01/28/2023	21:11	-133.319	47.471	0	265.20	0	5.9920	0	33.8800	0	26.672	0	262.819	0	97.4	4	32.2	4	-1E+10	1	-1E+10	1	-1E+10	1	-1E+10	1	-1E+10	1	-1E+10	1
4902549	89	C	01/28/2023	21:11	-133.319	47.471	0	266.00	0	5.9890	0	33.8800	0	26.672	0	263.611	0	96.9	4	32.0	4	-1E+10	1	-1E+10	1	-1E+10	1	-1E+10	1	-1E+10	1	-1E+10	1
4902549	89	C	01/28/2023	21:11	-133.319	47.471	0	266.80	0	5.9820	0	33.8800	0	26.673	0	264.403	0	96.3	4	31.8	4	-1E+10	1	-1E+10	1	-1E+10	1	-1E+10	1	-1E+10	1	-1E+10	1
4902549	89	C	01/28/2023	21:11	-133.319	47.471	0	268.00	0	5.9710	0	33.8780	0	26.673	0	265.592	0	95.4	4	31.5	4	-1E+10	1	-1E+10	1	-1E+10	1	-1E+10	1	-1E+10	1	-1E+10	1
4902549	89	C	01/28/2023	21:11	-133.319	47.471	0	269.20	0	5.9240	0	33.8830	0	26.682	0	266.780	0	94.7	4	31.2	4	-1E+10	1	-1E+10	1	-1E+10	1	-1E+10	1	-1E+10	1	-1E+10	1
4902549	89	C	01/28/2023	21:11	-133.319	47.471	0	270.00	0	5.9000	0	33.8840	0	26.686	0	267.572	0	94.3	4	31.1	4	-1E+10	1	-1E+10	1	-1E+10	1	-1E+10	1	-1E+10	1	-1E+10	1
4902549	89	C	01/28/2023	21:11	-133.319	47.471	0	270.80	0	5.8980	0	33.8840	0	26.687	0	268.365	0	93.8	4	30.9	4	-1E+10	1	-1E+10	1	-1E+10	1	-1E+10	1	-1E+10	1	-1E+10	1
4902549	89	C	01/28/2023	21:11	-133.319	47.471	0	272.00	0	5.8920	0	33.8840	0	26.687	0	269.553	0	92.9	4	30.6	4	-1E+10	1	-1E+10	1	-1E+10	1	-1E+10	1	-1E+10	1	-1E+10	1
4902549	89	C	01/28/2023	21:11	-133.319	47.471	0	273.30	0	5.8760	0	33.8870	0	26.692	0	270.841	0	92.2	4	30.4	4	-1E+10	1	-1E+10	1	-1E+10	1	-1E+10	1	-1E+10	1	-1E+10	1
4902549	89	C	01/28/2023	21:11	-133.319	47.471	0	274.10	0	5.8550	0	33.8870	0	26.694	0	271.633	0	91.7	4	30.2	4	-1E+10	1	-1E+10	1	-1E+10	1	-1E+10	1	-1E+10	1	-1E+10	1
4902549	89	C	01/28/2023	21:11	-133.319	47.471	0	275.00	0	5.8510	0	33.8890	0	26.696	0	272.524	0	91.2	4	30.0	4	-1E+10	1	-1E+10	1	-1E+10	1	-1E+10	1	-1E+10	1	-1E+10	1
4902549	89	C	01/28/2023	21:11	-133.319	47.471	0	275.80	0	5.8480	0	33.8880	0	26.696	0	273.316	0	90.8	4	29.9	4	-1E+10	1	-1E+10	1	-1E+10	1	-1E+10	1	-1E+10	1	-1E+10	1
4902549	89	C	01/28/2023	21:11	-133.319	47.471	0	277.00	0	5.8330	0	33.8930	0	26.702	0	274.505	0	90.3	4	29.7	4	-1E+10	1	-1E+10	1	-1E+10	1	-1E+10	1	-1E+10	1	-1E+10	1
4902549	89	C	01/28/2023	21:11	-133.319	47.471	0	278.30	0	5.8270	0	33.8920	0	26.702	0	275.792	0	89.8	4	29.6	4	-1E+10	1	-1E+10	1	-1E+10	1	-1E+10	1	-1E+10	1	-1E+10	1
4902549	89	C	01/28/2023	21:11	-133.319	47.471	0	279.20	0	5.8080	0	33.8940	0	26.706	0	276.684	0	89.6	4	29.5	4	-1E+10	1	-1E+10	1	-1E+10	1	-1E+10	1	-1E+10	1	-1E+10	1
4902549	89	C	01/28/2023	21:11	-133.319	47.471	0	280.00	0	5.7770	0	33.8920	0	26.708	0	277.476	0	89.3	4	29.3	4	-1E+10	1	-1E+10	1	-1E+10	1	-1E+10	1	-1E+10	1	-1E+10	1
4902549	89	C	01/28/2023	21:11	-133.319	47.471	0	280.90	0	5.7630	0	33.8930	0	26.710	0	278.367	0	88.9	4	29.2	4	-1E+10	1	-1E+10	1	-1E+10	1	-1E+10	1	-1E+10	1	-1E+10	1
4902549	89	C	01/28/2023	21:11	-133.319	47.471	0	281.70	0	5.7590	0	33.8920	0	26.710	0	279.159	0	88.6	4	29.1	4	-1E+10	1	-1E+10	1	-1E+10	1	-1E+10	1	-1E+10	1	-1E+10	1
4902549	89	C	01/28/2023	21:11	-133.319	47.471	0	283.00	0	5.7500	0	33.8920	0	26.711	0	280.447	0	87.9	4	28.9	4	-1E+10	1	-1E+10	1	-1E+10	1	-1E+10	1	-1E+10	1	-1E+10	1
4902549	89	C	01/28/2023	21:11	-133.319	47.471	0	284.30	0	5.7400	0	33.8930	0	26.713	0	281.734	0	87.2	4	28.6	4	-1E+10	1	-1E+10	1	-1E+10	1	-1E+10	1	-1E+10	1	-1E+10	1
4902549	89	C	01/28/2023	21:11	-133.319	47.471	0	285.10	0	5.7320	0	33.8940	0	26.715	0	282.526	0	86.7	4	28.5	4	-1E+10	1	-1E+10	1	-1E+10	1	-1E+10	1	-1E+10	1	-1E+10	1
4902549	89	C	01/28/2023	21:11	-133.319	47.471	0	286.00	0	5.7220	0	33.8970	0	26.719	0	283.418	0	86.3	4	28.3	4	-1E+10	1	-1E+10	1	-1E+10	1	-1E+10	1	-1E+10	1	-1E+10	1
4902549	89	C	01/28/2023	21:11	-133.319	47.471	0	286.90	0	5.7080	0	33.8980	0	26.721	0	284.309	0	86.0	4	28.2	4	-1E+10	1	-1E+10	1	-1E+10	1	-1E+10	1	-1E+10	1	-1E+10	1
4902549	89	C	01/28/2023	21:11	-133.319	47.471	0	287.80	0	5.6960	0	33.8990	0	26.723	0	285.200	0	85.7	4	28.1	4	-1E+10	1	-1E+10	1	-1E+10	1	-1E+10	1	-1E+10	1	-1E+10	1
4902549	89	C	01/28/2023	21:11	-133.319	47.471	0	288.70	0	5.6920	0	33.8990	0	26.724	0	286.091	0	85.3	4	28.0	4	-1E+10	1	-1E+10	1	-1E+10	1	-1E+10	1	-1E+10	1	-1E+10	1
4902549	89	C	01/28/2023	21:11	-133.319	47.471	0	289.90	0	5.6860	0	33.8990	0	26.725	0	287.280	0	84.8	4	27.8	4	-1E+10	1	-1E+10	1	-1E+10	1	-1E+10	1	-1E+10	1	-1E+10	1
4902549	89	C	01/28/2023	21:11	-133.319	47.471	0	291.30	0	5.6820	0	33.8990	0	26.725	0	288.666	0	84.2	4	27.6	4	-1E+10	1	-1E+10	1	-1E+10	1	-1E+10	1	-1E+10	1	-1E+10	1
4902549	89	C	01/28/2023	21:11	-133.319	47.471	0	292.20	0	5.6810	0	33.9000	0	26.726	0	289.557	0	83.8	4	27.5	4	-1E+10	1	-1E+10	1	-1E+10	1	-1E+10	1	-1E+10	1	-1E+10	1
4902549	89	C	01/28/2023	21:11	-133.319	47.471	0	293.10	0	5.6790	0	33.9000	0	26.726	0	290.449	0	83.4	4	27.3	4	-1E+10	1	-1E+10	1	-1E+10	1	-1E+10	1	-1E+10	1	-1E+10	1
4902549	89	C	01/28/2023	21:11	-133.319	47.471	0	294.00	0	5.6690	0	33.9010	0	26.728	0	291.340	0	83.0	4	27.2	4	-1E+10	1	-1E+10	1	-1E+10	1	-1E+10	1	-1E+10	1	-1E+10	1
4902549	89	C	01/28/2023	21:11	-133.319	47.471	0	294.90	0	5.6450	0	33.9030	0	26.733	0	292.231	0	82.7	4	27.1	4	-1E+10	1	-1E+10	1	-1E+10	1	-1E+10	1	-1E+10	1	-1E+10	1
4902549	89	C	01/28/2023	21:11	-133.319	47.471	0	296.00	0	5.6370	0	33.9040	0	26.735	0	293.320	0	82.4	4	27.0	4	-1E+10	1	-1E+10	1	-1E+10	1	-1E+10	1	-1E+10	1	-1E+10	1
4902549	89	C	01/28/2023	21:11	-133.319	47.471	0	296.90	0	5.6360	0	33.9040	0	26.735	0	294.211	0	82.0	4	26.9	4	-1E+10	1	-1E+10	1	-1E+10	1	-1E+10	1	-1E+10	1	-1E+10	1
4902549	89	C	01/28/2023	21:11	-133.319	47.471	0	297.80	0	5.6320	0	33.9040	0	26.735	0	295.103	0	81.7	4	26.8	4	-1E+10	1	-1E+10	1	-1E+10	1	-1E+10	1	-1E+10	1	-1E+10	1
4902549	89	C	01/28/2023	21:11	-133.319	47.471	0	298.70	0	5.6250	0	33.9050	0	26.737	0	295.994	0	81.4	4	26.7	4	-1E+10	1	-1E+10	1	-1E+10	1	-1E+10	1	-1E+10	1	-1E+10	1
4902549	89	C	01/28/2023	21:11	-133.319	47.471	0	299.60	0	5.6020	0	33.9070	0	26.741	0	296.885	0	81.1	4	26.5	4	-1E+10	1	-1E+10	1	-1E+10	1	-1E+10	1	-1E+10	1	-1E+10	1
4902549	89	C	01/28/2023	21:11	-133.319	47.471	0	300.50	0	5.5980	0	33.9050	0	26.740	0	297.776	0	80.8	4	26.5	4	-1E+10	1	-1E+10	1	-1E+10	1	-1E+10	1	-1E+10	1	-1E+10	1
4902549	89	C	01/28/2023	21:11	-133.319	47.471	0	301.90	0	5.5970	0	33.9050	0	26.740	0	299.163	0	80.3	4	26.3	4	-1E+10	1	-1E+10	1	-1E+10	1	-1E+10	1	-1E+10	1	-1E+10	1
4902549	89	C	01/28/2023	21:11	-133.319	47.471	0	303.30	0	5.5920	0	33.9070	0	26.742	0	300.549	0	79.7	4	26.1	4	-1E+10	1	-1E+10	1	-1E+10	1	-1E+10	1	-1E+10	1	-1E+10	1
4902549	89	C	01/28/2023	21:11	-133.319	47.471	0	304.20	0	5.5830	0	33.9060	0	26.743	0	301.440	0	79.4	4	26.0	4	-1E+10	1	-1E+10	1	-1E+10	1	-1E+10	1	-1E+10	1	-1E+10	1
4902549	89	C	01/28/2023	21:11	-133.319	47.471	0	305.10	0	5.5770	0	33.9080	0	26.745	0	302.331	0	79.0	4	25.8	4	-1E+10	1	-1E+10	1	-1E+10	1	-1E+10	1	-1E+10	1	-1E+10	1
4902549	89	C	01/28/2023	21:11	-133.319	47.471	0	306.00	0	5.5730	0	33.9070	0	26.745	0	303.222	0	78.6	4	25.7	4	-1E+10	1	-1E+10	1	-1E+10	1	-1E+10	1	-1E+10	1	-1E+10	1
4902549	89	C	01/28/2023	21:11	-133.319	47.471	0	306.90	0	5.5670	0	33.9070	0	26.745	0	304.114	0	78.2	4	25.6	4	-1E+10	1	-1E+10	1	-1E+10	1	-1E+10	1	-1E+10	1	-1E+10	1
4902549	89	C	01/28/2023	21:11	-133.319	47.471	0	307.90	0	5.5510	0	33.9090	0	26.749	0	305.104	0	77.9	4	25.5	4	-1E+10	1	-1E+10	1	-1E+10	1	-1E+10	1	-1E+10	1	-1E+10	1
4902549	89	C	01/28/2023	21:11	-133.319	47.471	0	308.80	0	5.5410	0	33.9100	0	26.751	0	305.995	0	77.6	4	25.4	4	-1E+10	1	-1E+10	1	-1E+10	1	-1E+10	1	-1E+10	1	-1E+10	1
4902549	89	C	01/28/2023	21:11	-133.319	47.471	0	309.80	0	5.5390	0	33.9100	0	26.751	0	306.985	0	77.2	4	25.2	4	-1E+10	1	-1E+10	1	-1E+10	1	-1E+10	1	-1E+10	1	-1E+10	1
4902549	89	C	01/28/2023	21:11	-133.319	47.471	0	310.70	0	5.5240	0	33.9130	0	26.755	0	307.876	0	76.8	4	25.1	4	-1E+10	1	-1E+10	1	-1E+10	1	-1E+10	1	-1E+10	1	-1E+10	1
4902549	89	C	01/28/2023	21:11	-133.319	47.471	0	311.70	0	5.5190	0	33.9120	0	26.755	0	308.866	0	76.5	4	25.0	4	-1E+10	1	-1E+10	1	-1E+10	1	-1E+10	1	-1E+10	1	-1E+10	1
4902549	89	C	01/28/2023	21:11	-133.319	47.471	0	312.60	0	5.5170	0	33.9110	0	26.755	0	309.758	0	76.1	4	24.9	4	-1E+10	1	-1E+10	1	-1E+10	1	-1E+10	1	-1E+10	1	-1E+10	1
4902549	89	C	01/28/2023	21:11	-133.319	47.471	0	313.60	0	5.5100	0	33.9130	0	26.757	0	310.748	0	75.8	4	24.7	4	-1E+10	1	-1E+10	1	-1E+10	1	-1E+10	1	-1E+10	1	-1E+10	1
4902549	89	C	01/28/2023	21:11	-133.319	47.471	0	314.50	0	5.5050	0	33.9130	0	26.758	0	311.639	0	75.3	4	24.6	4	-1E+10	1	-1E+10	1	-1E+10	1	-1E+10	1	-1E+10	1	-1E+10	1
4902549	89	C	01/28/2023	21:11	-133.319	47.471	0	315.90	0	5.5000	0	33.9130	0	26.758	0	313.025	0	74.6	4	24.4	4	-1E+10	1	-1E+10	1	-1E+10	1	-1E+10	1	-1E+10	1	-1E+10	1
4902549	89	C	01/28/2023	21:11	-133.319	47.471	0	317.40	0	5.4920	0	33.9130	0	26.759	0	314.510	0	73.9	4	24.1	4	-1E+10	1	-1E+10	1	-1E+10	1	-1E+10	1	-1E+10	1	-1E+10	1
4902549	89	C	01/28/2023	21:11	-133.319	47.471	0	318.30	0	5.4770	0	33.9150	0	26.763	0	315.401	0	73.4	4	23.9	4	-1E+10	1	-1E+10	1	-1E+10	1	-1E+10	1	-1E+10	1	-1E+10	1
4902549	89	C	01/28/2023	21:11	-133.319	47.471	0	319.30	0	5.4740	0	33.9140	0	26.762	0	316.391	0	72.8	4	23.8	4	-1E+10	1	-1E+10	1	-1E+10	1	-1E+10	1	-1E+10	1	-1E+10	1
4902549	89	C	01/28/2023	21:11	-133.319	47.471	0	320.20	0	5.4610	0	33.9160	0	26.765	0	317.283	0	72.2	4	23.6	4	-1E+10	1	-1E+10	1	-1E+10	1	-1E+10	1	-1E+10	1	-1E+10	1
4902549	89	C	01/28/2023	21:11	-133.319	47.471	0	321.20	0	5.4400	0	33.9180	0	26.769	0	318.273	0	71.7	4	23.4	4	-1E+10	1	-1E+10	1	-1E+10	1	-1E+10	1	-1E+10	1	-1E+10	1
4902549	89	C	01/28/2023	21:11	-133.319	47.471	0	322.20	0	5.4280	0	33.9190	0	26.772	0	319.263	0	71.2	4	23.2	4	-1E+10	1	-1E+10	1	-1E+10	1	-1E+10	1	-1E+10	1	-1E+10	1
4902549	89	C	01/28/2023	21:11	-133.319	47.471	0	323.20	0	5.4120	0	33.9200	0	26.774	0	320.253	0	70.8	4	23.1	4	-1E+10	1	-1E+10	1	-1E+10	1	-1E+10	1	-1E+10	1	-1E+10	1
4902549	89	C	01/28/2023	21:11	-133.319	47.471	0	324.10	0	5.4090	0	33.9220	0	26.776	0	321.144	0	70.4	4	22.9	4	-1E+10	1	-1E+10	1	-1E+10	1	-1E+10	1	-1E+10	1	-1E+10	1
4902549	89	C	01/28/2023	21:11	-133.319	47.471	0	325.10	0	5.4060	0	33.9230	0	26.777	0	322.134	0	70.1	4	22.8	4	-1E+10	1	-1E+10	1	-1E+10	1	-1E+10	1	-1E+10	1	-1E+10	1
4902549	89	C	01/28/2023	21:11	-133.319	47.471	0	326.10	0	5.3980	0	33.9250	0	26.780	0	323.124	0	69.8	4	22.7	4	-1E+10	1	-1E+10	1	-1E+10	1	-1E+10	1	-1E+10	1	-1E+10	1
4902549	89	C	01/28/2023	21:11	-133.319	47.471	0	327.00	0	5.3920	0	33.9250	0	26.781	0	324.015	0	69.5	4	22.6	4	-1E+10	1	-1E+10	1	-1E+10	1	-1E+10	1	-1E+10	1	-1E+10	1
4902549	89	C	01/28/2023	21:11	-133.319	47.471	0	328.00	0	5.3750	0	33.9260	0	26.783	0	325.005	0	69.2	4	22.5	4	-1E+10	1	-1E+10	1	-1E+10	1	-1E+10	1	-1E+10	1	-1E+10	1
4902549	89	C	01/28/2023	21:11	-133.319	47.471	0	329.00	0	5.3670	0	33.9260	0	26.784	0	325.996	0	68.9	4	22.4	4	-1E+10	1	-1E+10	1	-1E+10	1	-1E+10	1	-1E+10	1	-1E+10	1
4902549	89	C	01/28/2023	21:11	-133.319	47.471	0	330.00	0	5.3660	0	33.9280	0	26.786	0	326.986	0	68.6	4	22.3	4	-1E+10	1	-1E+10	1	-1E+10	1	-1E+10	1	-1E+10	1	-1E+10	1
4902549	89	C	01/28/2023	21:11	-133.319	47.471	0	331.00	0	5.3630	0	33.9270	0	26.786	0	327.976	0	68.2	4	22.2	4	-1E+10	1	-1E+10	1	-1E+10	1	-1E+10	1	-1E+10	1	-1E+10	1
4902549	89	C	01/28/2023	21:11	-133.319	47.471	0	331.90	0	5.3580	0	33.9280	0	26.787	0	328.867	0	67.9	4	22.1	4	-1E+10	1	-1E+10	1	-1E+10	1	-1E+10	1	-1E+10	1	-1E+10	1
4902549	89	C	01/28/2023	21:11	-133.319	47.471	0	332.90	0	5.3530	0	33.9290	0	26.788	0	329.857	0	67.6	4	22.0	4	-1E+10	1	-1E+10	1	-1E+10	1	-1E+10	1	-1E+10	1	-1E+10	1
4902549	89	C	01/28/2023	21:11	-133.319	47.471	0	333.90	0	5.3450	0	33.9290	0	26.789	0	330.847	0	67.2	4	21.9	4	-1E+10	1	-1E+10	1	-1E+10	1	-1E+10	1	-1E+10	1	-1E+10	1
4902549	89	C	01/28/2023	21:11	-133.319	47.471	0	334.90	0	5.3330	0	33.9320	0	26.793	0	331.837	0	67.0	4	21.8	4	-1E+10	1	-1E+10	1	-1E+10	1	-1E+10	1	-1E+10	1	-1E+10	1
4902549	89	C	01/28/2023	21:11	-133.319	47.471	0	335.90	0	5.3310	0	33.9300	0	26.792	0	332.827	0	66.6	4	21.7	4	-1E+10	1	-1E+10	1	-1E+10	1	-1E+10	1	-1E+10	1	-1E+10	1
4902549	89	C	01/28/2023	21:11	-133.319	47.471	0	336.90	0	5.3230	0	33.9320	0	26.794	0	333.817	0	66.4	4	21.6	4	-1E+10	1	-1E+10	1	-1E+10	1	-1E+10	1	-1E+10	1	-1E+10	1
4902549	89	C	01/28/2023	21:11	-133.319	47.471	0	337.90	0	5.3160	0	33.9320	0	26.795	0	334.807	0	66.1	4	21.5	4	-1E+10	1	-1E+10	1	-1E+10	1	-1E+10	1	-1E+10	1	-1E+10	1
4902549	89	C	01/28/2023	21:11	-133.319	47.471	0	338.80	0	5.3040	0	33.9340	0	26.798	0	335.698	0	65.9	4	21.4	4	-1E+10	1	-1E+10	1	-1E+10	1	-1E+10	1	-1E+10	1	-1E+10	1
4902549	89	C	01/28/2023	21:11	-133.319	47.471	0	339.80	0	5.3030	0	33.9330	0	26.798	0	336.688	0	65.6	4	21.3	4	-1E+10	1	-1E+10	1	-1E+10	1	-1E+10	1	-1E+10	1	-1E+10	1
4902549	89	C	01/28/2023	21:11	-133.319	47.471	0	340.80	0	5.2990	0	33.9330	0	26.798	0	337.678	0	65.3	4	21.2	4	-1E+10	1	-1E+10	1	-1E+10	1	-1E+10	1	-1E+10	1	-1E+10	1
4902549	89	C	01/28/2023	21:11	-133.319	47.471	0	341.80	0	5.2780	0	33.9370	0	26.804	0	338.668	0	65.1	4	21.2	4	-1E+10	1	-1E+10	1	-1E+10	1	-1E+10	1	-1E+10	1	-1E+10	1
4902549	89	C	01/28/2023	21:11	-133.319	47.471	0	342.70	0	5.2720	0	33.9360	0	26.804	0	339.559	0	65.0	4	21.1	4	-1E+10	1	-1E+10	1	-1E+10	1	-1E+10	1	-1E+10	1	-1E+10	1
4902549	89	C	01/28/2023	21:11	-133.319	47.471	0	343.70	0	5.2640	0	33.9370	0	26.805	0	340.549	0	64.8	4	21.0	4	-1E+10	1	-1E+10	1	-1E+10	1	-1E+10	1	-1E+10	1	-1E+10	1
4902549	89	C	01/28/2023	21:11	-133.319	47.471	0	344.70	0	5.2630	0	33.9360	0	26.805	0	341.539	0	64.6	4	21.0	4	-1E+10	1	-1E+10	1	-1E+10	1	-1E+10	1	-1E+10	1	-1E+10	1
4902549	89	C	01/28/2023	21:11	-133.319	47.471	0	345.70	0	5.2630	0	33.9370	0	26.805	0	342.529	0	64.4	4	20.9	4	-1E+10	1	-1E+10	1	-1E+10	1	-1E+10	1	-1E+10	1	-1E+10	1
4902549	89	C	01/28/2023	21:11	-133.319	47.471	0	346.60	0	5.2580	0	33.9380	0	26.807	0	343.420	0	64.2	4	20.8	4	-1E+10	1	-1E+10	1	-1E+10	1	-1E+10	1	-1E+10	1	-1E+10	1
4902549	89	C	01/28/2023	21:11	-133.319	47.471	0	347.60	0	5.2560	0	33.9370	0	26.806	0	344.410	0	63.9	4	20.8	4	-1E+10	1	-1E+10	1	-1E+10	1	-1E+10	1	-1E+10	1	-1E+10	1
4902549	89	C	01/28/2023	21:11	-133.319	47.471	0	348.60	0	5.2550	0	33.9370	0	26.806	0	345.400	0	63.6	4	20.7	4	-1E+10	1	-1E+10	1	-1E+10	1	-1E+10	1	-1E+10	1	-1E+10	1
4902549	89	C	01/28/2023	21:11	-133.319	47.471	0	349.50	0	5.2500	0	33.9380	0	26.808	0	346.291	0	63.3	4	20.6	4	-1E+10	1	-1E+10	1	-1E+10	1	-1E+10	1	-1E+10	1	-1E+10	1
4902549	89	C	01/28/2023	21:11	-133.319	47.471	0	352.90	0	5.2360	0	33.9390	0	26.810	0	349.657	0	62.1	4	20.2	4	-1E+10	1	-1E+10	1	-1E+10	1	-1E+10	1	-1E+10	1	-1E+10	1
4902549	89	C	01/28/2023	21:11	-133.319	47.471	0	358.20	0	5.1900	0	33.9430	0	26.819	0	354.904	0	60.4	4	19.6	4	-1E+10	1	-1E+10	1	-1E+10	1	-1E+10	1	-1E+10	1	-1E+10	1
4902549	89	C	01/28/2023	21:11	-133.319	47.471	0	363.00	0	5.1630	0	33.9460	0	26.824	0	359.656	0	58.4	4	18.9	4	-1E+10	1	-1E+10	1	-1E+10	1	-1E+10	1	-1E+10	1	-1E+10	1
4902549	89	C	01/28/2023	21:11	-133.319	47.471	0	367.90	0	5.1170	0	33.9530	0	26.835	0	364.506	0	56.8	4	18.4	4	-1E+10	1	-1E+10	1	-1E+10	1	-1E+10	1	-1E+10	1	-1E+10	1
4902549	89	C	01/28/2023	21:11	-133.319	47.471	0	372.70	0	5.0900	0	33.9560	0	26.841	0	369.258	0	55.2	4	17.9	4	-1E+10	1	-1E+10	1	-1E+10	1	-1E+10	1	-1E+10	1	-1E+10	1
4902549	89	C	01/28/2023	21:11	-133.319	47.471	0	377.70	0	5.0560	0	33.9620	0	26.849	0	374.207	0	53.7	4	17.4	4	-1E+10	1	-1E+10	1	-1E+10	1	-1E+10	1	-1E+10	1	-1E+10	1
4902549	89	C	01/28/2023	21:11	-133.319	47.471	0	382.60	0	5.0420	0	33.9650	0	26.853	0	379.057	0	52.3	4	16.9	4	-1E+10	1	-1E+10	1	-1E+10	1	-1E+10	1	-1E+10	1	-1E+10	1
4902549	89	C	01/28/2023	21:11	-133.319	47.471	0	387.50	0	5.0020	0	33.9720	0	26.864	0	383.907	0	51.2	4	16.5	4	-1E+10	1	-1E+10	1	-1E+10	1	-1E+10	1	-1E+10	1	-1E+10	1
4902549	89	C	01/28/2023	21:11	-133.319	47.471	0	392.50	0	4.9830	0	33.9740	0	26.867	0	388.856	0	50.3	4	16.2	4	-1E+10	1	-1E+10	1	-1E+10	1	-1E+10	1	-1E+10	1	-1E+10	1
4902549	89	C	01/28/2023	21:11	-133.319	47.471	0	397.60	0	4.9560	0	33.9770	0	26.873	0	393.904	0	49.1	4	15.8	4	-1E+10	1	-1E+10	1	-1E+10	1	-1E+10	1	-1E+10	1	-1E+10	1
4902549	89	C	01/28/2023	21:11	-133.319	47.471	0	402.60	0	4.9270	0	33.9810	0	26.879	0	398.853	0	48.0	4	15.5	4	-1E+10	1	-1E+10	1	-1E+10	1	-1E+10	1	-1E+10	1	-1E+10	1
4902549	89	C	01/28/2023	21:11	-133.319	47.471	0	407.80	0	4.9100	0	33.9850	0	26.884	0	403.999	0	46.8	4	15.1	4	-1E+10	1	-1E+10	1	-1E+10	1	-1E+10	1	-1E+10	1	-1E+10	1
4902549	89	C	01/28/2023	21:11	-133.319	47.471	0	413.00	0	4.8960	0	33.9890	0	26.889	0	409.146	0	45.5	4	14.6	4	-1E+10	1	-1E+10	1	-1E+10	1	-1E+10	1	-1E+10	1	-1E+10	1
4902549	89	C	01/28/2023	21:11	-133.319	47.471	0	418.30	0	4.8810	0	33.9920	0	26.893	0	414.391	0	43.9	4	14.1	4	-1E+10	1	-1E+10	1	-1E+10	1	-1E+10	1	-1E+10	1	-1E+10	1
4902549	89	C	01/28/2023	21:11	-133.319	47.471	0	422.90	0	4.8590	0	33.9990	0	26.901	0	418.943	0	42.4	4	13.7	4	-1E+10	1	-1E+10	1	-1E+10	1	-1E+10	1	-1E+10	1	-1E+10	1
4902549	89	C	01/28/2023	21:11	-133.319	47.471	0	427.70	0	4.8390	0	34.0050	0	26.908	0	423.693	0	41.3	4	13.3	4	-1E+10	1	-1E+10	1	-1E+10	1	-1E+10	1	-1E+10	1	-1E+10	1
4902549	89	C	01/28/2023	21:11	-133.319	47.471	0	432.90	0	4.8210	0	34.0090	0	26.914	0	428.839	0	40.0	4	12.9	4	-1E+10	1	-1E+10	1	-1E+10	1	-1E+10	1	-1E+10	1	-1E+10	1
4902549	89	C	01/28/2023	21:11	-133.319	47.471	0	438.20	0	4.8060	0	34.0130	0	26.919	0	434.084	0	38.4	4	12.4	4	-1E+10	1	-1E+10	1	-1E+10	1	-1E+10	1	-1E+10	1	-1E+10	1
4902549	89	C	01/28/2023	21:11	-133.319	47.471	0	443.10	0	4.7830	0	34.0220	0	26.928	0	438.933	0	37.1	4	11.9	4	-1E+10	1	-1E+10	1	-1E+10	1	-1E+10	1	-1E+10	1	-1E+10	1
4902549	89	C	01/28/2023	21:11	-133.319	47.471	0	448.00	0	4.7590	0	34.0260	0	26.934	0	443.782	0	35.9	4	11.5	4	-1E+10	1	-1E+10	1	-1E+10	1	-1E+10	1	-1E+10	1	-1E+10	1
4902549	89	C	01/28/2023	21:11	-133.319	47.471	0	453.30	0	4.7380	0	34.0320	0	26.941	0	449.026	0	34.6	4	11.1	4	-1E+10	1	-1E+10	1	-1E+10	1	-1E+10	1	-1E+10	1	-1E+10	1
4902549	89	C	01/28/2023	21:11	-133.319	47.471	0	458.10	0	4.7300	0	34.0370	0	26.946	0	453.775	0	33.6	4	10.8	4	-1E+10	1	-1E+10	1	-1E+10	1	-1E+10	1	-1E+10	1	-1E+10	1
4902549	89	C	01/28/2023	21:11	-133.319	47.471	0	463.00	0	4.7170	0	34.0410	0	26.951	0	458.624	0	32.7	4	10.5	4	-1E+10	1	-1E+10	1	-1E+10	1	-1E+10	1	-1E+10	1	-1E+10	1
4902549	89	C	01/28/2023	21:11	-133.319	47.471	0	467.90	0	4.7040	0	34.0460	0	26.956	0	463.472	0	32.0	4	10.3	4	-1E+10	1	-1E+10	1	-1E+10	1	-1E+10	1	-1E+10	1	-1E+10	1
4902549	89	C	01/28/2023	21:11	-133.319	47.471	0	472.90	0	4.7000	0	34.0470	0	26.958	0	468.419	0	31.3	4	10.0	4	-1E+10	1	-1E+10	1	-1E+10	1	-1E+10	1	-1E+10	1	-1E+10	1
4902549	89	C	01/28/2023	21:11	-133.319	47.471	0	477.90	0	4.6880	0	34.0500	0	26.961	0	473.366	0	30.3	4	9.7	4	-1E+10	1	-1E+10	1	-1E+10	1	-1E+10	1	-1E+10	1	-1E+10	1
4902549	89	C	01/28/2023	21:11	-133.319	47.471	0	482.90	0	4.6710	0	34.0550	0	26.967	0	478.313	0	29.4	4	9.4	4	-1E+10	1	-1E+10	1	-1E+10	1	-1E+10	1	-1E+10	1	-1E+10	1
4902549	89	C	01/28/2023	21:11	-133.319	47.471	0	488.00	0	4.6580	0	34.0590	0	26.972	0	483.358	0	28.6	4	9.2	4	-1E+10	1	-1E+10	1	-1E+10	1	-1E+10	1	-1E+10	1	-1E+10	1
4902549	89	C	01/28/2023	21:11	-133.319	47.471	0	493.00	0	4.6530	0	34.0610	0	26.974	0	488.305	0	27.5	4	8.8	4	-1E+10	1	-1E+10	1	-1E+10	1	-1E+10	1	-1E+10	1	-1E+10	1
4902549	89	C	01/28/2023	21:11	-133.319	47.471	0	498.10	0	4.6300	0	34.0680	0	26.982	0	493.350	0	26.1	4	8.3	4	-1E+10	1	-1E+10	1	-1E+10	1	-1E+10	1	-1E+10	1	-1E+10	1
4902549	89	C	01/28/2023	21:11	-133.319	47.471	0	502.90	0	4.6130	0	34.0730	0	26.988	0	498.099	0	24.9	4	8.0	4	-1E+10	1	-1E+10	1	-1E+10	1	-1E+10	1	-1E+10	1	-1E+10	1
4902549	89	C	01/28/2023	21:11	-133.319	47.471	0	507.80	0	4.5940	0	34.0800	0	26.996	0	502.946	0	23.9	4	7.7	4	-1E+10	1	-1E+10	1	-1E+10	1	-1E+10	1	-1E+10	1	-1E+10	1
4902549	89	C	01/28/2023	21:11	-133.319	47.471	0	512.80	0	4.5810	0	34.0840	0	27.000	0	507.892	0	22.9	4	7.3	4	-1E+10	1	-1E+10	1	-1E+10	1	-1E+10	1	-1E+10	1	-1E+10	1
4902549	89	C	01/28/2023	21:11	-133.319	47.471	0	517.90	0	4.5550	0	34.0910	0	27.009	0	512.937	0	22.0	4	7.0	4	-1E+10	1	-1E+10	1	-1E+10	1	-1E+10	1	-1E+10	1	-1E+10	1
4902549	89	C	01/28/2023	21:11	-133.319	47.471	0	523.10	0	4.5320	0	34.0970	0	27.016	0	518.081	0	21.2	4	6.8	4	-1E+10	1	-1E+10	1	-1E+10	1	-1E+10	1	-1E+10	1	-1E+10	1
4902549	89	C	01/28/2023	21:11	-133.319	47.471	0	528.00	0	4.5130	0	34.1010	0	27.021	0	522.928	0	20.7	4	6.6	4	-1E+10	1	-1E+10	1	-1E+10	1	-1E+10	1	-1E+10	1	-1E+10	1
4902549	89	C	01/28/2023	21:11	-133.319	47.471	0	533.00	0	4.4850	0	34.1050	0	27.027	0	527.873	0	20.1	4	6.4	4	-1E+10	1	-1E+10	1	-1E+10	1	-1E+10	1	-1E+10	1	-1E+10	1
4902549	89	C	01/28/2023	21:11	-133.319	47.471	0	538.10	0	4.4710	0	34.1090	0	27.032	0	532.918	0	19.5	4	6.2	4	-1E+10	1	-1E+10	1	-1E+10	1	-1E+10	1	-1E+10	1	-1E+10	1
4902549	89	C	01/28/2023	21:11	-133.319	47.471	0	543.20	0	4.4570	0	34.1130	0	27.037	0	537.962	0	19.0	4	6.0	4	-1E+10	1	-1E+10	1	-1E+10	1	-1E+10	1	-1E+10	1	-1E+10	1
4902549	89	C	01/28/2023	21:11	-133.319	47.471	0	548.10	0	4.4450	0	34.1170	0	27.041	0	542.808	0	18.5	4	5.9	4	-1E+10	1	-1E+10	1	-1E+10	1	-1E+10	1	-1E+10	1	-1E+10	1
4902549	89	C	01/28/2023	21:11	-133.319	47.471	0	552.70	0	4.4250	0	34.1200	0	27.046	0	547.358	0	17.9	4	5.7	4	-1E+10	1	-1E+10	1	-1E+10	1	-1E+10	1	-1E+10	1	-1E+10	1
4902549	89	C	01/28/2023	21:11	-133.319	47.471	0	558.00	0	4.4130	0	34.1250	0	27.051	0	552.600	0	17.4	4	5.6	4	-1E+10	1	-1E+10	1	-1E+10	1	-1E+10	1	-1E+10	1	-1E+10	1
4902549	89	C	01/28/2023	21:11	-133.319	47.471	0	563.20	0	4.4060	0	34.1280	0	27.054	0	557.742	0	17.0	4	5.4	4	-1E+10	1	-1E+10	1	-1E+10	1	-1E+10	1	-1E+10	1	-1E+10	1
4902549	89	C	01/28/2023	21:11	-133.319	47.471	0	568.00	0	4.3990	0	34.1310	0	27.058	0	562.489	0	16.6	4	5.3	4	-1E+10	1	-1E+10	1	-1E+10	1	-1E+10	1	-1E+10	1	-1E+10	1
4902549	89	C	01/28/2023	21:11	-133.319	47.471	0	572.90	0	4.3910	0	34.1330	0	27.060	0	567.335	0	16.2	4	5.2	4	-1E+10	1	-1E+10	1	-1E+10	1	-1E+10	1	-1E+10	1	-1E+10	1
4902549	89	C	01/28/2023	21:11	-133.319	47.471	0	577.90	0	4.3840	0	34.1370	0	27.064	0	572.280	0	15.8	4	5.0	4	-1E+10	1	-1E+10	1	-1E+10	1	-1E+10	1	-1E+10	1	-1E+10	1
4902549	89	C	01/28/2023	21:11	-133.319	47.471	0	582.90	0	4.3810	0	34.1390	0	27.066	0	577.224	0	15.4	4	4.9	4	-1E+10	1	-1E+10	1	-1E+10	1	-1E+10	1	-1E+10	1	-1E+10	1
4902549	89	C	01/28/2023	21:11	-133.319	47.471	0	588.00	0	4.3750	0	34.1410	0	27.068	0	582.267	0	15.0	4	4.8	4	-1E+10	1	-1E+10	1	-1E+10	1	-1E+10	1	-1E+10	1	-1E+10	1
4902549	89	C	01/28/2023	21:11	-133.319	47.471	0	593.00	0	4.3660	0	34.1440	0	27.072	0	587.211	0	14.5	4	4.6	4	-1E+10	1	-1E+10	1	-1E+10	1	-1E+10	1	-1E+10	1	-1E+10	1
4902549	89	C	01/28/2023	21:11	-133.319	47.471	0	598.00	0	4.3520	0	34.1490	0	27.077	0	592.155	0	13.9	4	4.4	4	-1E+10	1	-1E+10	1	-1E+10	1	-1E+10	1	-1E+10	1	-1E+10	1
4902549	89	C	01/28/2023	21:11	-133.319	47.471	0	602.90	0	4.3290	0	34.1540	0	27.084	0	597.001	0	13.4	4	4.3	4	-1E+10	1	-1E+10	1	-1E+10	1	-1E+10	1	-1E+10	1	-1E+10	1
4902549	89	C	01/28/2023	21:11	-133.319	47.471	0	607.90	0	4.3200	0	34.1600	0	27.089	0	601.944	0	12.8	4	4.1	4	-1E+10	1	-1E+10	1	-1E+10	1	-1E+10	1	-1E+10	1	-1E+10	1
4902549	89	C	01/28/2023	21:11	-133.319	47.471	0	613.00	0	4.3110	0	34.1650	0	27.094	0	606.987	0	12.5	4	4.0	4	-1E+10	1	-1E+10	1	-1E+10	1	-1E+10	1	-1E+10	1	-1E+10	1
4902549	89	C	01/28/2023	21:11	-133.319	47.471	0	618.00	0	4.3060	0	34.1670	0	27.097	0	611.931	0	12.2	4	3.9	4	-1E+10	1	-1E+10	1	-1E+10	1	-1E+10	1	-1E+10	1	-1E+10	1
4902549	89	C	01/28/2023	21:11	-133.319	47.471	0	623.20	0	4.2940	0	34.1700	0	27.100	0	617.072	0	11.7	4	3.7	4	-1E+10	1	-1E+10	1	-1E+10	1	-1E+10	1	-1E+10	1	-1E+10	1
4902549	89	C	01/28/2023	21:11	-133.319	47.471	0	628.20	0	4.2750	0	34.1760	0	27.107	0	622.015	0	11.4	4	3.6	4	-1E+10	1	-1E+10	1	-1E+10	1	-1E+10	1	-1E+10	1	-1E+10	1
4902549	89	C	01/28/2023	21:11	-133.319	47.471	0	632.90	0	4.2680	0	34.1790	0	27.110	0	626.662	0	11.1	4	3.5	4	-1E+10	1	-1E+10	1	-1E+10	1	-1E+10	1	-1E+10	1	-1E+10	1
4902549	89	C	01/28/2023	21:11	-133.319	47.471	0	637.60	0	4.2530	0	34.1840	0	27.116	0	631.308	0	10.9	4	3.5	4	-1E+10	1	-1E+10	1	-1E+10	1	-1E+10	1	-1E+10	1	-1E+10	1
4902549	89	C	01/28/2023	21:11	-133.319	47.471	0	642.70	0	4.2380	0	34.1870	0	27.120	0	636.350	0	10.8	4	3.4	4	-1E+10	1	-1E+10	1	-1E+10	1	-1E+10	1	-1E+10	1	-1E+10	1
4902549	89	C	01/28/2023	21:11	-133.319	47.471	0	647.90	0	4.2060	0	34.1880	0	27.124	0	641.491	0	10.7	4	3.4	4	-1E+10	1	-1E+10	1	-1E+10	1	-1E+10	1	-1E+10	1	-1E+10	1
4902549	89	C	01/28/2023	21:11	-133.319	47.471	0	653.10	0	4.2010	0	34.1890	0	27.125	0	646.631	0	10.4	4	3.3	4	-1E+10	1	-1E+10	1	-1E+10	1	-1E+10	1	-1E+10	1	-1E+10	1
4902549	89	C	01/28/2023	21:11	-133.319	47.471	0	657.90	0	4.2150	0	34.1940	0	27.128	0	651.376	0	10.1	4	3.2	4	-1E+10	1	-1E+10	1	-1E+10	1	-1E+10	1	-1E+10	1	-1E+10	1
4902549	89	C	01/28/2023	21:11	-133.319	47.471	0	662.70	0	4.2050	0	34.1950	0	27.130	0	656.121	0	10.0	4	3.2	4	-1E+10	1	-1E+10	1	-1E+10	1	-1E+10	1	-1E+10	1	-1E+10	1
4902549	89	C	01/28/2023	21:11	-133.319	47.471	0	668.00	0	4.1830	0	34.1980	0	27.134	0	661.360	0	9.7	4	3.1	4	-1E+10	1	-1E+10	1	-1E+10	1	-1E+10	1	-1E+10	1	-1E+10	1
4902549	89	C	01/28/2023	21:11	-133.319	47.471	0	672.80	0	4.1620	0	34.2030	0	27.141	0	666.105	0	9.5	4	3.0	4	-1E+10	1	-1E+10	1	-1E+10	1	-1E+10	1	-1E+10	1	-1E+10	1
4902549	89	C	01/28/2023	21:11	-133.319	47.471	0	677.70	0	4.1400	0	34.2050	0	27.145	0	670.948	0	9.3	4	2.9	4	-1E+10	1	-1E+10	1	-1E+10	1	-1E+10	1	-1E+10	1	-1E+10	1
4902549	89	C	01/28/2023	21:11	-133.319	47.471	0	683.00	0	4.1250	0	34.2100	0	27.150	0	676.187	0	8.9	4	2.8	4	-1E+10	1	-1E+10	1	-1E+10	1	-1E+10	1	-1E+10	1	-1E+10	1
4902549	89	C	01/28/2023	21:11	-133.319	47.471	0	688.00	0	4.1110	0	34.2150	0	27.156	0	681.129	0	8.6	4	2.7	4	-1E+10	1	-1E+10	1	-1E+10	1	-1E+10	1	-1E+10	1	-1E+10	1
4902549	89	C	01/28/2023	21:11	-133.319	47.471	0	692.90	0	4.0950	0	34.2220	0	27.163	0	685.972	0	8.4	4	2.6	4	-1E+10	1	-1E+10	1	-1E+10	1	-1E+10	1	-1E+10	1	-1E+10	1
4902549	89	C	01/28/2023	21:11	-133.319	47.471	0	697.90	0	4.0640	0	34.2270	0	27.170	0	690.914	0	8.2	4	2.6	4	-1E+10	1	-1E+10	1	-1E+10	1	-1E+10	1	-1E+10	1	-1E+10	1
4902549	89	C	01/28/2023	21:11	-133.319	47.471	0	703.00	0	4.0510	0	34.2290	0	27.173	0	695.954	0	7.9	4	2.5	4	-1E+10	1	-1E+10	1	-1E+10	1	-1E+10	1	-1E+10	1	-1E+10	1
4902549	89	C	01/28/2023	21:11	-133.319	47.471	0	708.10	0	4.0470	0	34.2360	0	27.179	0	700.994	0	7.6	4	2.4	4	-1E+10	1	-1E+10	1	-1E+10	1	-1E+10	1	-1E+10	1	-1E+10	1
4902549	89	C	01/28/2023	21:11	-133.319	47.471	0	712.70	0	4.0430	0	34.2390	0	27.182	0	705.540	0	7.4	4	2.4	4	-1E+10	1	-1E+10	1	-1E+10	1	-1E+10	1	-1E+10	1	-1E+10	1
4902549	89	C	01/28/2023	21:11	-133.319	47.471	0	717.90	0	4.0340	0	34.2430	0	27.186	0	710.679	0	7.3	4	2.3	4	-1E+10	1	-1E+10	1	-1E+10	1	-1E+10	1	-1E+10	1	-1E+10	1
4902549	89	C	01/28/2023	21:11	-133.319	47.471	0	723.10	0	4.0190	0	34.2480	0	27.192	0	715.818	0	7.2	4	2.3	4	-1E+10	1	-1E+10	1	-1E+10	1	-1E+10	1	-1E+10	1	-1E+10	1
4902549	89	C	01/28/2023	21:11	-133.319	47.471	0	727.90	0	4.0050	0	34.2500	0	27.195	0	720.561	0	7.2	4	2.3	4	-1E+10	1	-1E+10	1	-1E+10	1	-1E+10	1	-1E+10	1	-1E+10	1
4902549	89	C	01/28/2023	21:11	-133.319	47.471	0	732.70	0	3.9820	0	34.2520	0	27.199	0	725.305	0	7.3	4	2.3	4	-1E+10	1	-1E+10	1	-1E+10	1	-1E+10	1	-1E+10	1	-1E+10	1
4902549	89	C	01/28/2023	21:11	-133.319	47.471	0	737.50	0	3.9630	0	34.2540	0	27.202	0	730.048	0	7.3	4	2.3	4	-1E+10	1	-1E+10	1	-1E+10	1	-1E+10	1	-1E+10	1	-1E+10	1
4902549	89	C	01/28/2023	21:11	-133.319	47.471	0	742.50	0	3.9420	0	34.2550	0	27.205	0	734.988	0	7.3	4	2.3	4	-1E+10	1	-1E+10	1	-1E+10	1	-1E+10	1	-1E+10	1	-1E+10	1
4902549	89	C	01/28/2023	21:11	-133.319	47.471	0	747.50	0	3.9140	0	34.2580	0	27.210	0	739.929	0	7.4	4	2.3	4	-1E+10	1	-1E+10	1	-1E+10	1	-1E+10	1	-1E+10	1	-1E+10	1
4902549	89	C	01/28/2023	21:11	-133.319	47.471	0	752.60	0	3.8970	0	34.2590	0	27.213	0	744.968	0	7.5	4	2.4	4	-1E+10	1	-1E+10	1	-1E+10	1	-1E+10	1	-1E+10	1	-1E+10	1
4902549	89	C	01/28/2023	21:11	-133.319	47.471	0	758.10	0	3.8780	0	34.2600	0	27.216	0	750.403	0	7.7	4	2.4	4	-1E+10	1	-1E+10	1	-1E+10	1	-1E+10	1	-1E+10	1	-1E+10	1
4902549	89	C	01/28/2023	21:11	-133.319	47.471	0	763.00	0	3.8570	0	34.2600	0	27.218	0	755.244	0	8.1	4	2.6	4	-1E+10	1	-1E+10	1	-1E+10	1	-1E+10	1	-1E+10	1	-1E+10	1
4902549	89	C	01/28/2023	21:11	-133.319	47.471	0	767.70	0	3.8140	0	34.2580	0	27.220	0	759.888	0	8.6	4	2.7	4	-1E+10	1	-1E+10	1	-1E+10	1	-1E+10	1	-1E+10	1	-1E+10	1
4902549	89	C	01/28/2023	21:11	-133.319	47.471	0	772.90	0	3.7560	0	34.2550	0	27.224	0	765.025	0	8.9	4	2.8	4	-1E+10	1	-1E+10	1	-1E+10	1	-1E+10	1	-1E+10	1	-1E+10	1
4902549	89	C	01/28/2023	21:11	-133.319	47.471	0	778.20	0	3.7180	0	34.2540	0	27.227	0	770.261	0	8.8	4	2.8	4	-1E+10	1	-1E+10	1	-1E+10	1	-1E+10	1	-1E+10	1	-1E+10	1
4902549	89	C	01/28/2023	21:11	-133.319	47.471	0	783.10	0	3.7120	0	34.2540	0	27.227	0	775.102	0	8.6	4	2.7	4	-1E+10	1	-1E+10	1	-1E+10	1	-1E+10	1	-1E+10	1	-1E+10	1
4902549	89	C	01/28/2023	21:11	-133.319	47.471	0	788.10	0	3.6980	0	34.2570	0	27.231	0	780.042	0	8.3	4	2.6	4	-1E+10	1	-1E+10	1	-1E+10	1	-1E+10	1	-1E+10	1	-1E+10	1
4902549	89	C	01/28/2023	21:11	-133.319	47.471	0	793.10	0	3.6920	0	34.2590	0	27.234	0	784.981	0	8.0	4	2.5	4	-1E+10	1	-1E+10	1	-1E+10	1	-1E+10	1	-1E+10	1	-1E+10	1
4902549	89	C	01/28/2023	21:11	-133.319	47.471	0	797.80	0	3.6820	0	34.2620	0	27.237	0	789.624	0	7.7	4	2.4	4	-1E+10	1	-1E+10	1	-1E+10	1	-1E+10	1	-1E+10	1	-1E+10	1
4902549	89	C	01/28/2023	21:11	-133.319	47.471	0	802.60	0	3.6760	0	34.2650	0	27.240	0	794.366	0	7.2	4	2.3	4	-1E+10	1	-1E+10	1	-1E+10	1	-1E+10	1	-1E+10	1	-1E+10	1
4902549	89	C	01/28/2023	21:11	-133.319	47.471	0	807.80	0	3.7010	0	34.2750	0	27.245	0	799.503	0	6.8	4	2.1	4	-1E+10	1	-1E+10	1	-1E+10	1	-1E+10	1	-1E+10	1	-1E+10	1
4902549	89	C	01/28/2023	21:11	-133.319	47.471	0	813.10	0	3.7090	0	34.2800	0	27.249	0	804.738	0	6.7	4	2.1	4	-1E+10	1	-1E+10	1	-1E+10	1	-1E+10	1	-1E+10	1	-1E+10	1
4902549	89	C	01/28/2023	21:11	-133.319	47.471	0	818.00	0	3.7150	0	34.2850	0	27.252	0	809.578	0	6.6	4	2.1	4	-1E+10	1	-1E+10	1	-1E+10	1	-1E+10	1	-1E+10	1	-1E+10	1
4902549	89	C	01/28/2023	21:11	-133.319	47.471	0	823.10	0	3.7170	0	34.2860	0	27.253	0	814.616	0	6.5	4	2.1	4	-1E+10	1	-1E+10	1	-1E+10	1	-1E+10	1	-1E+10	1	-1E+10	1
4902549	89	C	01/28/2023	21:11	-133.319	47.471	0	828.10	0	3.7150	0	34.2880	0	27.255	0	819.555	0	6.5	4	2.0	4	-1E+10	1	-1E+10	1	-1E+10	1	-1E+10	1	-1E+10	1	-1E+10	1
4902549	89	C	01/28/2023	21:11	-133.319	47.471	0	832.80	0	3.6980	0	34.2920	0	27.260	0	824.197	0	6.4	4	2.0	4	-1E+10	1	-1E+10	1	-1E+10	1	-1E+10	1	-1E+10	1	-1E+10	1
4902549	89	C	01/28/2023	21:11	-133.319	47.471	0	838.00	0	3.6930	0	34.2950	0	27.262	0	829.333	0	6.3	4	2.0	4	-1E+10	1	-1E+10	1	-1E+10	1	-1E+10	1	-1E+10	1	-1E+10	1
4902549	89	C	01/28/2023	21:11	-133.319	47.471	0	843.10	0	3.6980	0	34.2980	0	27.264	0	834.370	0	6.1	4	1.9	4	-1E+10	1	-1E+10	1	-1E+10	1	-1E+10	1	-1E+10	1	-1E+10	1
4902549	89	C	01/28/2023	21:11	-133.319	47.471	0	847.80	0	3.6940	0	34.3010	0	27.267	0	839.012	0	6.1	4	1.9	4	-1E+10	1	-1E+10	1	-1E+10	1	-1E+10	1	-1E+10	1	-1E+10	1
4902549	89	C	01/28/2023	21:11	-133.319	47.471	0	853.00	0	3.6860	0	34.3030	0	27.270	0	844.147	0	6.0	4	1.9	4	-1E+10	1	-1E+10	1	-1E+10	1	-1E+10	1	-1E+10	1	-1E+10	1
4902549	89	C	01/28/2023	21:11	-133.319	47.471	0	858.20	0	3.6810	0	34.3060	0	27.273	0	849.283	0	6.0	4	1.9	4	-1E+10	1	-1E+10	1	-1E+10	1	-1E+10	1	-1E+10	1	-1E+10	1
4902549	89	C	01/28/2023	21:11	-133.319	47.471	0	862.90	0	3.6760	0	34.3070	0	27.274	0	853.924	0	5.9	4	1.9	4	-1E+10	1	-1E+10	1	-1E+10	1	-1E+10	1	-1E+10	1	-1E+10	1
4902549	89	C	01/28/2023	21:11	-133.319	47.471	0	867.60	0	3.6700	0	34.3090	0	27.276	0	858.566	0	5.9	4	1.9	4	-1E+10	1	-1E+10	1	-1E+10	1	-1E+10	1	-1E+10	1	-1E+10	1
4902549	89	C	01/28/2023	21:11	-133.319	47.471	0	872.90	0	3.6570	0	34.3120	0	27.280	0	863.800	0	5.9	4	1.8	4	-1E+10	1	-1E+10	1	-1E+10	1	-1E+10	1	-1E+10	1	-1E+10	1
4902549	89	C	01/28/2023	21:11	-133.319	47.471	0	878.20	0	3.6460	0	34.3140	0	27.282	0	869.033	0	5.9	4	1.8	4	-1E+10	1	-1E+10	1	-1E+10	1	-1E+10	1	-1E+10	1	-1E+10	1
4902549	89	C	01/28/2023	21:11	-133.319	47.471	0	883.10	0	3.6350	0	34.3160	0	27.285	0	873.872	0	5.9	4	1.8	4	-1E+10	1	-1E+10	1	-1E+10	1	-1E+10	1	-1E+10	1	-1E+10	1
4902549	89	C	01/28/2023	21:11	-133.319	47.471	0	887.90	0	3.6190	0	34.3200	0	27.290	0	878.612	0	5.9	4	1.8	4	-1E+10	1	-1E+10	1	-1E+10	1	-1E+10	1	-1E+10	1	-1E+10	1
4902549	89	C	01/28/2023	21:11	-133.319	47.471	0	892.80	0	3.6030	0	34.3230	0	27.294	0	883.450	0	5.9	4	1.8	4	-1E+10	1	-1E+10	1	-1E+10	1	-1E+10	1	-1E+10	1	-1E+10	1
4902549	89	C	01/28/2023	21:11	-133.319	47.471	0	897.70	0	3.5910	0	34.3250	0	27.297	0	888.289	0	5.9	4	1.8	4	-1E+10	1	-1E+10	1	-1E+10	1	-1E+10	1	-1E+10	1	-1E+10	1
4902549	89	C	01/28/2023	21:11	-133.319	47.471	0	902.90	0	3.5870	0	34.3260	0	27.298	0	893.423	0	5.9	4	1.8	4	-1E+10	1	-1E+10	1	-1E+10	1	-1E+10	1	-1E+10	1	-1E+10	1
4902549	89	C	01/28/2023	21:11	-133.319	47.471	0	908.20	0	3.5760	0	34.3280	0	27.301	0	898.656	0	5.9	4	1.8	4	-1E+10	1	-1E+10	1	-1E+10	1	-1E+10	1	-1E+10	1	-1E+10	1
4902549	89	C	01/28/2023	21:11	-133.319	47.471	0	913.00	0	3.5580	0	34.3320	0	27.306	0	903.395	0	5.9	4	1.8	4	-1E+10	1	-1E+10	1	-1E+10	1	-1E+10	1	-1E+10	1	-1E+10	1
4902549	89	C	01/28/2023	21:11	-133.319	47.471	0	917.70	0	3.5420	0	34.3340	0	27.309	0	908.036	0	5.9	4	1.8	4	-1E+10	1	-1E+10	1	-1E+10	1	-1E+10	1	-1E+10	1	-1E+10	1
4902549	89	C	01/28/2023	21:11	-133.319	47.471	0	922.90	0	3.5270	0	34.3370	0	27.313	0	913.169	0	5.9	4	1.8	4	-1E+10	1	-1E+10	1	-1E+10	1	-1E+10	1	-1E+10	1	-1E+10	1
4902549	89	C	01/28/2023	21:11	-133.319	47.471	0	928.10	0	3.5100	0	34.3400	0	27.317	0	918.303	0	5.9	4	1.8	4	-1E+10	1	-1E+10	1	-1E+10	1	-1E+10	1	-1E+10	1	-1E+10	1
4902549	89	C	01/28/2023	21:11	-133.319	47.471	0	932.80	0	3.4910	0	34.3440	0	27.322	0	922.943	0	5.9	4	1.8	4	-1E+10	1	-1E+10	1	-1E+10	1	-1E+10	1	-1E+10	1	-1E+10	1
4902549	89	C	01/28/2023	21:11	-133.319	47.471	0	938.00	0	3.4820	0	34.3450	0	27.323	0	928.077	0	5.9	4	1.9	4	-1E+10	1	-1E+10	1	-1E+10	1	-1E+10	1	-1E+10	1	-1E+10	1
4902549	89	C	01/28/2023	21:11	-133.319	47.471	0	943.20	0	3.4670	0	34.3480	0	27.327	0	933.210	0	6.0	4	1.9	4	-1E+10	1	-1E+10	1	-1E+10	1	-1E+10	1	-1E+10	1	-1E+10	1
4902549	89	C	01/28/2023	21:11	-133.319	47.471	0	948.00	0	3.4580	0	34.3490	0	27.329	0	937.949	0	6.0	4	1.9	4	-1E+10	1	-1E+10	1	-1E+10	1	-1E+10	1	-1E+10	1	-1E+10	1
4902549	89	C	01/28/2023	21:11	-133.319	47.471	0	952.70	0	3.4490	0	34.3510	0	27.331	0	942.588	0	6.0	4	1.9	4	-1E+10	1	-1E+10	1	-1E+10	1	-1E+10	1	-1E+10	1	-1E+10	1
4902549	89	C	01/28/2023	21:11	-133.319	47.471	0	957.90	0	3.4430	0	34.3520	0	27.333	0	947.721	0	6.0	4	1.9	4	-1E+10	1	-1E+10	1	-1E+10	1	-1E+10	1	-1E+10	1	-1E+10	1
4902549	89	C	01/28/2023	21:11	-133.319	47.471	0	963.10	0	3.4360	0	34.3540	0	27.335	0	952.854	0	6.1	4	1.9	4	-1E+10	1	-1E+10	1	-1E+10	1	-1E+10	1	-1E+10	1	-1E+10	1
4902549	89	C	01/28/2023	21:11	-133.319	47.471	0	967.80	0	3.4220	0	34.3560	0	27.338	0	957.493	0	6.1	4	1.9	4	-1E+10	1	-1E+10	1	-1E+10	1	-1E+10	1	-1E+10	1	-1E+10	1
4902549	89	C	01/28/2023	21:11	-133.319	47.471	0	972.90	0	3.3960	0	34.3600	0	27.344	0	962.527	0	6.2	4	1.9	4	-1E+10	1	-1E+10	1	-1E+10	1	-1E+10	1	-1E+10	1	-1E+10	1
4902549	89	C	01/28/2023	21:11	-133.319	47.471	0	978.00	0	3.3800	0	34.3630	0	27.348	0	967.561	0	6.2	4	1.9	4	-1E+10	1	-1E+10	1	-1E+10	1	-1E+10	1	-1E+10	1	-1E+10	1
4902549	89	C	01/28/2023	21:11	-133.319	47.471	0	983.10	0	3.3690	0	34.3650	0	27.350	0	972.595	0	6.2	4	1.9	4	-1E+10	1	-1E+10	1	-1E+10	1	-1E+10	1	-1E+10	1	-1E+10	1
4902549	89	C	01/28/2023	21:11	-133.319	47.471	0	988.20	0	3.3600	0	34.3660	0	27.352	0	977.629	0	6.3	4	2.0	4	-1E+10	1	-1E+10	1	-1E+10	1	-1E+10	1	-1E+10	1	-1E+10	1
4902549	89	C	01/28/2023	21:11	-133.319	47.471	0	992.80	0	3.3490	0	34.3680	0	27.355	0	982.169	0	6.3	4	2.0	4	-1E+10	1	-1E+10	1	-1E+10	1	-1E+10	1	-1E+10	1	-1E+10	1
4902549	89	C	01/28/2023	21:11	-133.319	47.471	0	997.80	0	3.3320	0	34.3720	0	27.360	0	987.103	0	6.4	4	2.0	4	-1E+10	1	-1E+10	1	-1E+10	1	-1E+10	1	-1E+10	1	-1E+10	1
4902549	89	C	01/28/2023	21:11	-133.319	47.471	0	1005.60	0	3.3160	0	34.3760	0	27.364	0	994.801	0	6.5	4	2.0	4	-1E+10	1	-1E+10	1	-1E+10	1	-1E+10	1	-1E+10	1	-1E+10	1
4902549	89	C	01/28/2023	21:11	-133.319	47.471	0	1015.40	0	3.2760	0	34.3820	0	27.373	0	1004.472	0	6.6	4	2.1	4	-1E+10	1	-1E+10	1	-1E+10	1	-1E+10	1	-1E+10	1	-1E+10	1
4902549	89	C	01/28/2023	21:11	-133.319	47.471	0	1025.40	0	3.2370	0	34.3870	0	27.381	0	1014.341	0	6.9	4	2.1	4	-1E+10	1	-1E+10	1	-1E+10	1	-1E+10	1	-1E+10	1	-1E+10	1
4902549	89	C	01/28/2023	21:11	-133.319	47.471	0	1035.60	0	3.1790	0	34.3890	0	27.388	0	1024.406	0	7.0	4	2.2	4	-1E+10	1	-1E+10	1	-1E+10	1	-1E+10	1	-1E+10	1	-1E+10	1
4902549	89	C	01/28/2023	21:11	-133.319	47.471	0	1045.70	0	3.1730	0	34.3950	0	27.393	0	1034.372	0	7.1	4	2.2	4	-1E+10	1	-1E+10	1	-1E+10	1	-1E+10	1	-1E+10	1	-1E+10	1
4902549	89	C	01/28/2023	21:11	-133.319	47.471	0	1056.00	0	3.1780	0	34.3990	0	27.396	0	1044.534	0	7.3	4	2.3	4	-1E+10	1	-1E+10	1	-1E+10	1	-1E+10	1	-1E+10	1	-1E+10	1
4902549	89	C	01/28/2023	21:11	-133.319	47.471	0	1065.60	0	3.1600	0	34.4020	0	27.400	0	1054.006	0	7.4	4	2.3	4	-1E+10	1	-1E+10	1	-1E+10	1	-1E+10	1	-1E+10	1	-1E+10	1
4902549	89	C	01/28/2023	21:11	-133.319	47.471	0	1075.20	0	3.1380	0	34.4060	0	27.405	0	1063.477	0	7.6	4	2.3	4	-1E+10	1	-1E+10	1	-1E+10	1	-1E+10	1	-1E+10	1	-1E+10	1
4902549	89	C	01/28/2023	21:11	-133.319	47.471	0	1085.20	0	3.1250	0	34.4080	0	27.408	0	1073.343	0	7.8	4	2.4	4	-1E+10	1	-1E+10	1	-1E+10	1	-1E+10	1	-1E+10	1	-1E+10	1
4902549	89	C	01/28/2023	21:11	-133.319	47.471	0	1095.50	0	3.1140	0	34.4130	0	27.413	0	1083.504	0	8.1	4	2.5	4	-1E+10	1	-1E+10	1	-1E+10	1	-1E+10	1	-1E+10	1	-1E+10	1
4902549	89	C	01/28/2023	21:11	-133.319	47.471	0	1105.60	0	3.0930	0	34.4160	0	27.417	0	1093.467	0	8.2	4	2.5	4	-1E+10	1	-1E+10	1	-1E+10	1	-1E+10	1	-1E+10	1	-1E+10	1
4902549	89	C	01/28/2023	21:11	-133.319	47.471	0	1115.40	0	3.0640	0	34.4180	0	27.422	0	1103.133	0	8.4	4	2.6	4	-1E+10	1	-1E+10	1	-1E+10	1	-1E+10	1	-1E+10	1	-1E+10	1
4902549	89	C	01/28/2023	21:11	-133.319	47.471	0	1125.40	0	3.0460	0	34.4190	0	27.424	0	1112.997	0	8.5	4	2.6	4	-1E+10	1	-1E+10	1	-1E+10	1	-1E+10	1	-1E+10	1	-1E+10	1
4902549	89	C	01/28/2023	21:11	-133.319	47.471	0	1135.50	0	3.0220	0	34.4220	0	27.429	0	1122.959	0	8.6	4	2.7	4	-1E+10	1	-1E+10	1	-1E+10	1	-1E+10	1	-1E+10	1	-1E+10	1
4902549	89	C	01/28/2023	21:11	-133.319	47.471	0	1145.40	0	3.0000	0	34.4250	0	27.433	0	1132.723	0	8.8	4	2.7	4	-1E+10	1	-1E+10	1	-1E+10	1	-1E+10	1	-1E+10	1	-1E+10	1
4902549	89	C	01/28/2023	21:11	-133.319	47.471	0	1156.00	0	2.9800	0	34.4270	0	27.437	0	1143.176	0	9.0	4	2.8	4	-1E+10	1	-1E+10	1	-1E+10	1	-1E+10	1	-1E+10	1	-1E+10	1
4902549	89	C	01/28/2023	21:11	-133.319	47.471	0	1165.40	0	2.9590	0	34.4300	0	27.441	0	1152.446	0	9.2	4	2.9	4	-1E+10	1	-1E+10	1	-1E+10	1	-1E+10	1	-1E+10	1	-1E+10	1
4902549	89	C	01/28/2023	21:11	-133.319	47.471	0	1175.30	0	2.9470	0	34.4320	0	27.444	0	1162.209	0	9.4	4	2.9	4	-1E+10	1	-1E+10	1	-1E+10	1	-1E+10	1	-1E+10	1	-1E+10	1
4902549	89	C	01/28/2023	21:11	-133.319	47.471	0	1185.60	0	2.9350	0	34.4340	0	27.447	0	1172.366	0	9.6	4	3.0	4	-1E+10	1	-1E+10	1	-1E+10	1	-1E+10	1	-1E+10	1	-1E+10	1
4902549	89	C	01/28/2023	21:11	-133.319	47.471	0	1195.40	0	2.9170	0	34.4360	0	27.450	0	1182.029	0	9.9	4	3.0	4	-1E+10	1	-1E+10	1	-1E+10	1	-1E+10	1	-1E+10	1	-1E+10	1
4902549	89	C	01/28/2023	21:11	-133.319	47.471	0	1205.40	0	2.8990	0	34.4390	0	27.454	0	1191.889	0	10.1	4	3.1	4	-1E+10	1	-1E+10	1	-1E+10	1	-1E+10	1	-1E+10	1	-1E+10	1
4902549	89	C	01/28/2023	21:11	-133.319	47.471	0	1215.50	0	2.8780	0	34.4420	0	27.458	0	1201.846	0	10.5	4	3.2	4	-1E+10	1	-1E+10	1	-1E+10	1	-1E+10	1	-1E+10	1	-1E+10	1
4902549	89	C	01/28/2023	21:11	-133.319	47.471	0	1225.20	0	2.8540	0	34.4460	0	27.464	0	1211.410	0	10.8	4	3.3	4	-1E+10	1	-1E+10	1	-1E+10	1	-1E+10	1	-1E+10	1	-1E+10	1
4902549	89	C	01/28/2023	21:11	-133.319	47.471	0	1235.40	0	2.8330	0	34.4490	0	27.468	0	1221.465	0	11.1	4	3.4	4	-1E+10	1	-1E+10	1	-1E+10	1	-1E+10	1	-1E+10	1	-1E+10	1
4902549	89	C	01/28/2023	21:11	-133.319	47.471	0	1245.70	0	2.8170	0	34.4520	0	27.472	0	1231.619	0	11.4	4	3.5	4	-1E+10	1	-1E+10	1	-1E+10	1	-1E+10	1	-1E+10	1	-1E+10	1
4902549	89	C	01/28/2023	21:11	-133.319	47.471	0	1255.50	0	2.8000	0	34.4540	0	27.475	0	1241.279	0	11.7	4	3.6	4	-1E+10	1	-1E+10	1	-1E+10	1	-1E+10	1	-1E+10	1	-1E+10	1
4902549	89	C	01/28/2023	21:11	-133.319	47.471	0	1265.20	0	2.7870	0	34.4560	0	27.478	0	1250.840	0	11.9	4	3.7	4	-1E+10	1	-1E+10	1	-1E+10	1	-1E+10	1	-1E+10	1	-1E+10	1
4902549	89	C	01/28/2023	21:11	-133.319	47.471	0	1275.40	0	2.7780	0	34.4580	0	27.480	0	1260.894	0	12.2	4	3.7	4	-1E+10	1	-1E+10	1	-1E+10	1	-1E+10	1	-1E+10	1	-1E+10	1
4902549	89	C	01/28/2023	21:11	-133.319	47.471	0	1285.30	0	2.7670	0	34.4590	0	27.482	0	1270.652	0	12.5	4	3.8	4	-1E+10	1	-1E+10	1	-1E+10	1	-1E+10	1	-1E+10	1	-1E+10	1
4902549	89	C	01/28/2023	21:11	-133.319	47.471	0	1295.20	0	2.7550	0	34.4620	0	27.485	0	1280.409	0	12.8	4	3.9	4	-1E+10	1	-1E+10	1	-1E+10	1	-1E+10	1	-1E+10	1	-1E+10	1
4902549	89	C	01/28/2023	21:11	-133.319	47.471	0	1305.60	0	2.7390	0	34.4650	0	27.489	0	1290.658	0	13.3	4	4.1	4	-1E+10	1	-1E+10	1	-1E+10	1	-1E+10	1	-1E+10	1	-1E+10	1
4902549	89	C	01/28/2023	21:11	-133.319	47.471	0	1315.60	0	2.7220	0	34.4680	0	27.493	0	1300.513	0	13.6	4	4.2	4	-1E+10	1	-1E+10	1	-1E+10	1	-1E+10	1	-1E+10	1	-1E+10	1
4902549	89	C	01/28/2023	21:11	-133.319	47.471	0	1325.30	0	2.7120	0	34.4700	0	27.496	0	1310.072	0	13.9	4	4.3	4	-1E+10	1	-1E+10	1	-1E+10	1	-1E+10	1	-1E+10	1	-1E+10	1
4902549	89	C	01/28/2023	21:11	-133.319	47.471	0	1335.10	0	2.7010	0	34.4710	0	27.498	0	1319.728	0	14.3	4	4.4	4	-1E+10	1	-1E+10	1	-1E+10	1	-1E+10	1	-1E+10	1	-1E+10	1
4902549	89	C	01/28/2023	21:11	-133.319	47.471	0	1345.10	0	2.6790	0	34.4740	0	27.502	0	1329.582	0	14.6	4	4.5	4	-1E+10	1	-1E+10	1	-1E+10	1	-1E+10	1	-1E+10	1	-1E+10	1
4902549	89	C	01/28/2023	21:11	-133.319	47.471	0	1355.30	0	2.6600	0	34.4750	0	27.504	0	1339.632	0	15.0	4	4.6	4	-1E+10	1	-1E+10	1	-1E+10	1	-1E+10	1	-1E+10	1	-1E+10	1
4902549	89	C	01/28/2023	21:11	-133.319	47.471	0	1365.80	0	2.6410	0	34.4790	0	27.509	0	1349.977	0	15.4	4	4.7	4	-1E+10	1	-1E+10	1	-1E+10	1	-1E+10	1	-1E+10	1	-1E+10	1
4902549	89	C	01/28/2023	21:11	-133.319	47.471	0	1375.30	0	2.6320	0	34.4800	0	27.511	0	1359.336	0	15.8	4	4.8	4	-1E+10	1	-1E+10	1	-1E+10	1	-1E+10	1	-1E+10	1	-1E+10	1
4902549	89	C	01/28/2023	21:11	-133.319	47.471	0	1385.20	0	2.6150	0	34.4820	0	27.514	0	1369.089	0	16.3	4	5.0	4	-1E+10	1	-1E+10	1	-1E+10	1	-1E+10	1	-1E+10	1	-1E+10	1
4902549	89	C	01/28/2023	21:11	-133.319	47.471	0	1395.40	0	2.5950	0	34.4850	0	27.518	0	1379.137	0	16.7	4	5.1	4	-1E+10	1	-1E+10	1	-1E+10	1	-1E+10	1	-1E+10	1	-1E+10	1
4902549	89	C	01/28/2023	21:11	-133.319	47.471	0	1405.40	0	2.5840	0	34.4870	0	27.521	0	1388.988	0	17.0	4	5.2	4	-1E+10	1	-1E+10	1	-1E+10	1	-1E+10	1	-1E+10	1	-1E+10	1
4902549	89	C	01/28/2023	21:11	-133.319	47.471	0	1415.30	0	2.5750	0	34.4880	0	27.522	0	1398.739	0	17.4	4	5.3	4	-1E+10	1	-1E+10	1	-1E+10	1	-1E+10	1	-1E+10	1	-1E+10	1
4902549	89	C	01/28/2023	21:11	-133.319	47.471	0	1425.40	0	2.5570	0	34.4910	0	27.526	0	1408.687	0	17.8	4	5.4	4	-1E+10	1	-1E+10	1	-1E+10	1	-1E+10	1	-1E+10	1	-1E+10	1
4902549	89	C	01/28/2023	21:11	-133.319	47.471	0	1435.20	0	2.5460	0	34.4920	0	27.528	0	1418.339	0	18.1	4	5.5	4	-1E+10	1	-1E+10	1	-1E+10	1	-1E+10	1	-1E+10	1	-1E+10	1
4902549	89	C	01/28/2023	21:11	-133.319	47.471	0	1445.00	0	2.5330	0	34.4930	0	27.530	0	1427.991	0	18.4	4	5.6	4	-1E+10	1	-1E+10	1	-1E+10	1	-1E+10	1	-1E+10	1	-1E+10	1
4902549	89	C	01/28/2023	21:11	-133.319	47.471	0	1455.00	0	2.5160	0	34.4950	0	27.533	0	1437.839	0	18.8	4	5.7	4	-1E+10	1	-1E+10	1	-1E+10	1	-1E+10	1	-1E+10	1	-1E+10	1
4902549	89	C	01/28/2023	21:11	-133.319	47.471	0	1465.10	0	2.5070	0	34.4960	0	27.535	0	1447.786	0	19.1	4	5.8	4	-1E+10	1	-1E+10	1	-1E+10	1	-1E+10	1	-1E+10	1	-1E+10	1
4902549	89	C	01/28/2023	21:11	-133.319	47.471	0	1475.30	0	2.4950	0	34.4970	0	27.537	0	1457.830	0	19.6	4	6.0	4	-1E+10	1	-1E+10	1	-1E+10	1	-1E+10	1	-1E+10	1	-1E+10	1
4902549	89	C	01/28/2023	21:11	-133.319	47.471	0	1485.70	0	2.4760	0	34.5000	0	27.541	0	1468.071	0	20.0	4	6.1	4	-1E+10	1	-1E+10	1	-1E+10	1	-1E+10	1	-1E+10	1	-1E+10	1
4902549	89	C	01/28/2023	21:11	-133.319	47.471	0	1495.70	0	2.4650	0	34.5010	0	27.542	0	1477.917	0	20.4	4	6.2	4	-1E+10	1	-1E+10	1	-1E+10	1	-1E+10	1	-1E+10	1	-1E+10	1
4902549	89	C	01/28/2023	21:11	-133.319	47.471	0	1505.40	0	2.4510	0	34.5030	0	27.545	0	1487.468	0	20.7	4	6.3	4	-1E+10	1	-1E+10	1	-1E+10	1	-1E+10	1	-1E+10	1	-1E+10	1
4902549	89	C	01/28/2023	21:11	-133.319	47.471	0	1515.50	0	2.4350	0	34.5040	0	27.547	0	1497.412	0	20.6	4	6.3	4	-1E+10	1	-1E+10	1	-1E+10	1	-1E+10	1	-1E+10	1	-1E+10	1
4902549	89	C	01/28/2023	21:11	-133.319	47.471	0	1525.60	0	2.3960	0	34.5010	0	27.548	0	1507.355	0	20.4	4	6.2	4	-1E+10	1	-1E+10	1	-1E+10	1	-1E+10	1	-1E+10	1	-1E+10	1
4902549	89	C	01/28/2023	21:11	-133.319	47.471	0	1535.20	0	2.3810	0	34.5020	0	27.550	0	1516.806	0	20.7	4	6.3	4	-1E+10	1	-1E+10	1	-1E+10	1	-1E+10	1	-1E+10	1	-1E+10	1
4902549	89	C	01/28/2023	21:11	-133.319	47.471	0	1545.30	0	2.3700	0	34.5040	0	27.553	0	1526.748	0	21.3	4	6.5	4	-1E+10	1	-1E+10	1	-1E+10	1	-1E+10	1	-1E+10	1	-1E+10	1
4902549	89	C	01/28/2023	21:11	-133.319	47.471	0	1555.40	0	2.3630	0	34.5060	0	27.555	0	1536.691	0	21.8	4	6.6	4	-1E+10	1	-1E+10	1	-1E+10	1	-1E+10	1	-1E+10	1	-1E+10	1
4902549	89	C	01/28/2023	21:11	-133.319	47.471	0	1565.50	0	2.3500	0	34.5080	0	27.558	0	1546.632	0	22.1	4	6.7	4	-1E+10	1	-1E+10	1	-1E+10	1	-1E+10	1	-1E+10	1	-1E+10	1
4902549	89	C	01/28/2023	21:11	-133.319	47.471	0	1575.40	0	2.3290	0	34.5090	0	27.560	0	1556.376	0	22.6	4	6.9	4	-1E+10	1	-1E+10	1	-1E+10	1	-1E+10	1	-1E+10	1	-1E+10	1
4902549	89	C	01/28/2023	21:11	-133.319	47.471	0	1585.10	0	2.3200	0	34.5110	0	27.563	0	1565.923	0	23.1	4	7.0	4	-1E+10	1	-1E+10	1	-1E+10	1	-1E+10	1	-1E+10	1	-1E+10	1
4902549	89	C	01/28/2023	21:11	-133.319	47.471	0	1595.40	0	2.3090	0	34.5130	0	27.565	0	1576.060	0	23.7	4	7.2	4	-1E+10	1	-1E+10	1	-1E+10	1	-1E+10	1	-1E+10	1	-1E+10	1
4902549	89	C	01/28/2023	21:11	-133.319	47.471	0	1605.70	0	2.2940	0	34.5150	0	27.568	0	1586.197	0	24.4	4	7.4	4	-1E+10	1	-1E+10	1	-1E+10	1	-1E+10	1	-1E+10	1	-1E+10	1
4902549	89	C	01/28/2023	21:11	-133.319	47.471	0	1615.50	0	2.2810	0	34.5170	0	27.571	0	1595.841	0	25.1	4	7.6	4	-1E+10	1	-1E+10	1	-1E+10	1	-1E+10	1	-1E+10	1	-1E+10	1
4902549	89	C	01/28/2023	21:11	-133.319	47.471	0	1625.20	0	2.2700	0	34.5200	0	27.574	0	1605.386	0	25.8	4	7.8	4	-1E+10	1	-1E+10	1	-1E+10	1	-1E+10	1	-1E+10	1	-1E+10	1
4902549	89	C	01/28/2023	21:11	-133.319	47.471	0	1635.40	0	2.2550	0	34.5220	0	27.577	0	1615.423	0	26.6	4	8.1	4	-1E+10	1	-1E+10	1	-1E+10	1	-1E+10	1	-1E+10	1	-1E+10	1
4902549	89	C	01/28/2023	21:11	-133.319	47.471	0	1645.60	0	2.2370	0	34.5250	0	27.581	0	1625.459	0	27.6	4	8.4	4	-1E+10	1	-1E+10	1	-1E+10	1	-1E+10	1	-1E+10	1	-1E+10	1
4902549	89	C	01/28/2023	21:11	-133.319	47.471	0	1655.60	0	2.2220	0	34.5280	0	27.585	0	1635.298	0	28.4	4	8.6	4	-1E+10	1	-1E+10	1	-1E+10	1	-1E+10	1	-1E+10	1	-1E+10	1
4902549	89	C	01/28/2023	21:11	-133.319	47.471	0	1665.50	0	2.2140	0	34.5300	0	27.587	0	1645.039	0	29.1	4	8.8	4	-1E+10	1	-1E+10	1	-1E+10	1	-1E+10	1	-1E+10	1	-1E+10	1
4902549	89	C	01/28/2023	21:11	-133.319	47.471	0	1675.50	0	2.2040	0	34.5320	0	27.589	0	1654.877	0	29.8	4	9.0	4	-1E+10	1	-1E+10	1	-1E+10	1	-1E+10	1	-1E+10	1	-1E+10	1
4902549	89	C	01/28/2023	21:11	-133.319	47.471	0	1685.90	0	2.1890	0	34.5350	0	27.593	0	1665.108	0	30.5	4	9.2	4	-1E+10	1	-1E+10	1	-1E+10	1	-1E+10	1	-1E+10	1	-1E+10	1
4902549	89	C	01/28/2023	21:11	-133.319	47.471	0	1695.80	0	2.1760	0	34.5370	0	27.596	0	1674.847	0	31.3	4	9.5	4	-1E+10	1	-1E+10	1	-1E+10	1	-1E+10	1	-1E+10	1	-1E+10	1
4902549	89	C	01/28/2023	21:11	-133.319	47.471	0	1705.40	0	2.1620	0	34.5390	0	27.599	0	1684.290	0	32.0	4	9.7	4	-1E+10	1	-1E+10	1	-1E+10	1	-1E+10	1	-1E+10	1	-1E+10	1
4902549	89	C	01/28/2023	21:11	-133.319	47.471	0	1715.30	0	2.1550	0	34.5410	0	27.601	0	1694.028	0	32.5	4	9.8	4	-1E+10	1	-1E+10	1	-1E+10	1	-1E+10	1	-1E+10	1	-1E+10	1
4902549	89	C	01/28/2023	21:11	-133.319	47.471	0	1725.20	0	2.1490	0	34.5420	0	27.602	0	1703.765	0	33.1	4	10.0	4	-1E+10	1	-1E+10	1	-1E+10	1	-1E+10	1	-1E+10	1	-1E+10	1
4902549	89	C	01/28/2023	21:11	-133.319	47.471	0	1735.60	0	2.1370	0	34.5440	0	27.605	0	1713.994	0	34.0	4	10.3	4	-1E+10	1	-1E+10	1	-1E+10	1	-1E+10	1	-1E+10	1	-1E+10	1
4902549	89	C	01/28/2023	21:11	-133.319	47.471	0	1745.40	0	2.1220	0	34.5460	0	27.608	0	1723.633	0	34.8	4	10.5	4	-1E+10	1	-1E+10	1	-1E+10	1	-1E+10	1	-1E+10	1	-1E+10	1
4902549	89	C	01/28/2023	21:11	-133.319	47.471	0	1755.10	0	2.1130	0	34.5480	0	27.610	0	1733.172	0	35.4	4	10.7	4	-1E+10	1	-1E+10	1	-1E+10	1	-1E+10	1	-1E+10	1	-1E+10	1
4902549	89	C	01/28/2023	21:11	-133.319	47.471	0	1765.50	0	2.1060	0	34.5500	0	27.612	0	1743.399	0	35.9	4	10.8	4	-1E+10	1	-1E+10	1	-1E+10	1	-1E+10	1	-1E+10	1	-1E+10	1
4902549	89	C	01/28/2023	21:11	-133.319	47.471	0	1775.70	0	2.1000	0	34.5510	0	27.613	0	1753.429	0	36.5	4	11.0	4	-1E+10	1	-1E+10	1	-1E+10	1	-1E+10	1	-1E+10	1	-1E+10	1
4902549	89	C	01/28/2023	21:11	-133.319	47.471	0	1785.50	0	2.0940	0	34.5520	0	27.615	0	1763.066	0	37.0	4	11.2	4	-1E+10	1	-1E+10	1	-1E+10	1	-1E+10	1	-1E+10	1	-1E+10	1
4902549	89	C	01/28/2023	21:11	-133.319	47.471	0	1795.60	0	2.0890	0	34.5530	0	27.616	0	1772.997	0	37.6	4	11.4	4	-1E+10	1	-1E+10	1	-1E+10	1	-1E+10	1	-1E+10	1	-1E+10	1
4902549	89	C	01/28/2023	21:11	-133.319	47.471	0	1805.80	0	2.0780	0	34.5550	0	27.619	0	1783.026	0	38.4	4	11.6	4	-1E+10	1	-1E+10	1	-1E+10	1	-1E+10	1	-1E+10	1	-1E+10	1
4902549	89	C	01/28/2023	21:11	-133.319	47.471	0	1815.60	0	2.0700	0	34.5570	0	27.621	0	1792.661	0	39.0	4	11.8	4	-1E+10	1	-1E+10	1	-1E+10	1	-1E+10	1	-1E+10	1	-1E+10	1
4902549	89	C	01/28/2023	21:11	-133.319	47.471	0	1825.50	0	2.0620	0	34.5580	0	27.622	0	1802.394	0	39.6	4	12.0	4	-1E+10	1	-1E+10	1	-1E+10	1	-1E+10	1	-1E+10	1	-1E+10	1
4902549	89	C	01/28/2023	21:11	-133.319	47.471	0	1835.90	0	2.0550	0	34.5600	0	27.625	0	1812.618	0	40.2	4	12.1	4	-1E+10	1	-1E+10	1	-1E+10	1	-1E+10	1	-1E+10	1	-1E+10	1
4902549	89	C	01/28/2023	21:11	-133.319	47.471	0	1845.60	0	2.0460	0	34.5610	0	27.626	0	1822.153	0	40.8	4	12.3	4	-1E+10	1	-1E+10	1	-1E+10	1	-1E+10	1	-1E+10	1	-1E+10	1
4902549	89	C	01/28/2023	21:11	-133.319	47.471	0	1855.50	0	2.0400	0	34.5630	0	27.628	0	1831.885	0	41.4	4	12.5	4	-1E+10	1	-1E+10	1	-1E+10	1	-1E+10	1	-1E+10	1	-1E+10	1
4902549	89	C	01/28/2023	21:11	-133.319	47.471	0	1865.60	0	2.0320	0	34.5640	0	27.630	0	1841.813	0	42.0	4	12.7	4	-1E+10	1	-1E+10	1	-1E+10	1	-1E+10	1	-1E+10	1	-1E+10	1
4902549	89	C	01/28/2023	21:11	-133.319	47.471	0	1875.60	0	2.0270	0	34.5650	0	27.631	0	1851.642	0	42.5	4	12.8	4	-1E+10	1	-1E+10	1	-1E+10	1	-1E+10	1	-1E+10	1	-1E+10	1
4902549	89	C	01/28/2023	21:11	-133.319	47.471	0	1885.20	0	2.0210	0	34.5660	0	27.632	0	1861.077	0	43.1	4	13.0	4	-1E+10	1	-1E+10	1	-1E+10	1	-1E+10	1	-1E+10	1	-1E+10	1
4902549	89	C	01/28/2023	21:11	-133.319	47.471	0	1895.40	0	2.0140	0	34.5680	0	27.635	0	1871.102	0	43.8	4	13.2	4	-1E+10	1	-1E+10	1	-1E+10	1	-1E+10	1	-1E+10	1	-1E+10	1
4902549	89	C	01/28/2023	21:11	-133.319	47.471	0	1905.80	0	2.0050	0	34.5690	0	27.636	0	1881.322	0	44.6	4	13.4	4	-1E+10	1	-1E+10	1	-1E+10	1	-1E+10	1	-1E+10	1	-1E+10	1
4902549	89	C	01/28/2023	21:11	-133.319	47.471	0	1915.50	0	1.9960	0	34.5710	0	27.638	0	1890.855	0	45.3	4	13.7	4	-1E+10	1	-1E+10	1	-1E+10	1	-1E+10	1	-1E+10	1	-1E+10	1
4902549	89	C	01/28/2023	21:11	-133.319	47.471	0	1925.30	0	1.9870	0	34.5730	0	27.641	0	1900.485	0	45.9	4	13.8	4	-1E+10	1	-1E+10	1	-1E+10	1	-1E+10	1	-1E+10	1	-1E+10	1
4902549	89	C	01/28/2023	21:11	-133.319	47.471	0	1935.60	0	1.9830	0	34.5740	0	27.642	0	1910.606	0	46.4	4	14.0	4	-1E+10	1	-1E+10	1	-1E+10	1	-1E+10	1	-1E+10	1	-1E+10	1
4902549	89	C	01/28/2023	21:11	-133.319	47.471	0	1945.30	0	1.9740	0	34.5750	0	27.643	0	1920.137	0	46.9	4	14.1	4	-1E+10	1	-1E+10	1	-1E+10	1	-1E+10	1	-1E+10	1	-1E+10	1
4902549	89	C	01/28/2023	21:11	-133.319	47.471	0	1955.10	0	1.9710	0	34.5760	0	27.645	0	1929.766	0	47.2	4	14.2	4	-1E+10	1	-1E+10	1	-1E+10	1	-1E+10	1	-1E+10	1	-1E+10	1
4902549	89	C	01/28/2023	21:11	-133.319	47.471	0	1965.50	0	1.9650	0	34.5770	0	27.646	0	1939.984	0	47.7	4	14.4	4	-1E+10	1	-1E+10	1	-1E+10	1	-1E+10	1	-1E+10	1	-1E+10	1
4902549	89	C	01/28/2023	21:11	-133.319	47.471	0	1975.90	0	1.9590	0	34.5790	0	27.648	0	1950.201	0	47.9	4	14.4	4	-1E+10	1	-1E+10	1	-1E+10	1	-1E+10	1	-1E+10	1	-1E+10	1
4902549	89	C	01/28/2023	21:11	-133.319	47.471	0	1983.80	0	1.9570	0	34.5790	0	27.648	0	1957.962	0	47.5	4	14.3	4	-1E+10	1	-1E+10	1	-1E+10	1	-1E+10	1	-1E+10	1	-1E+10	1
4902549	89	C	01/28/2023	21:11	-133.319	47.471	0																										
4902549	90	C	02/08/2023	02:14	-133.459	47.457	0	0.30	0	9.0680	0	32.2900	0	24.986	0	0.297	0	-1e10	1	-1e10	1	-1E+10	1	-1E+10	1	-1E+10	1	-1E+10	1	-1E+10	1	-1E+10	1
4902549	90	C	02/08/2023	02:14	-133.459	47.457	0	0.40	0	9.0730	0	32.2890	0	24.985	0	0.397	0	268.4	4	93.9	4	-1E+10	1	-1E+10	1	-1E+10	1	-1E+10	1	-1E+10	1	-1E+10	1
4902549	90	C	02/08/2023	02:14	-133.459	47.457	0	0.50	0	9.0730	0	32.2891	0	24.985	0	0.496	0	-1e10	1	-1e10	1	-1E+10	1	-1E+10	1	-1E+10	1	-1E+10	1	-1E+10	1	-1E+10	1
4902549	90	C	02/08/2023	02:14	-133.459	47.457	0	0.60	0	9.0730	0	32.2893	0	24.985	0	0.595	0	-1e10	1	-1e10	1	-1E+10	1	-1E+10	1	-1E+10	1	-1E+10	1	-1E+10	1	-1E+10	1
4902549	90	C	02/08/2023	02:14	-133.459	47.457	0	1.10	0	9.0730	0	32.2900	0	24.986	0	1.091	0	268.4	4	93.9	4	-1E+10	1	-1E+10	1	-1E+10	1	-1E+10	1	-1E+10	1	-1E+10	1
4902549	90	C	02/08/2023	02:14	-133.459	47.457	0	2.00	0	9.0730	0	32.2910	0	24.986	0	1.983	0	268.3	4	93.9	4	-1E+10	1	-1E+10	1	-1E+10	1	-1E+10	1	-1E+10	1	-1E+10	1
4902549	90	C	02/08/2023	02:14	-133.459	47.457	0	3.00	0	9.0730	0	32.2910	0	24.987	0	2.975	0	268.3	4	93.9	4	-1E+10	1	-1E+10	1	-1E+10	1	-1E+10	1	-1E+10	1	-1E+10	1
4902549	90	C	02/08/2023	02:14	-133.459	47.457	0	4.00	0	9.0740	0	32.2920	0	24.987	0	3.967	0	268.2	4	93.9	4	-1E+10	1	-1E+10	1	-1E+10	1	-1E+10	1	-1E+10	1	-1E+10	1
4902549	90	C	02/08/2023	02:14	-133.459	47.457	0	5.00	0	9.0770	0	32.2900	0	24.985	0	4.958	0	268.2	4	93.9	4	-1E+10	1	-1E+10	1	-1E+10	1	-1E+10	1	-1E+10	1	-1E+10	1
4902549	90	C	02/08/2023	02:14	-133.459	47.457	0	5.90	0	9.0790	0	32.2900	0	24.985	0	5.851	0	268.2	4	93.9	4	-1E+10	1	-1E+10	1	-1E+10	1	-1E+10	1	-1E+10	1	-1E+10	1
4902549	90	C	02/08/2023	02:14	-133.459	47.457	0	6.70	0	9.0790	0	32.2900	0	24.985	0	6.644	0	268.1	4	93.8	4	-1E+10	1	-1E+10	1	-1E+10	1	-1E+10	1	-1E+10	1	-1E+10	1
4902549	90	C	02/08/2023	02:14	-133.459	47.457	0	7.90	0	9.0790	0	32.2900	0	24.985	0	7.834	0	268.1	4	93.8	4	-1E+10	1	-1E+10	1	-1E+10	1	-1E+10	1	-1E+10	1	-1E+10	1
4902549	90	C	02/08/2023	02:14	-133.459	47.457	0	8.80	0	9.0800	0	32.2900	0	24.985	0	8.726	0	268.1	4	93.8	4	-1E+10	1	-1E+10	1	-1E+10	1	-1E+10	1	-1E+10	1	-1E+10	1
4902549	90	C	02/08/2023	02:14	-133.459	47.457	0	9.80	0	9.0800	0	32.2900	0	24.985	0	9.718	0	268.0	4	93.8	4	-1E+10	1	-1E+10	1	-1E+10	1	-1E+10	1	-1E+10	1	-1E+10	1
4902549	90	C	02/08/2023	02:14	-133.459	47.457	0	10.90	0	9.0780	0	32.2900	0	24.985	0	10.809	0	268.0	4	93.8	4	-1E+10	1	-1E+10	1	-1E+10	1	-1E+10	1	-1E+10	1	-1E+10	1
4902549	90	C	02/08/2023	02:14	-133.459	47.457	0	11.90	0	9.0790	0	32.2900	0	24.985	0	11.800	0	268.1	4	93.8	4	-1E+10	1	-1E+10	1	-1E+10	1	-1E+10	1	-1E+10	1	-1E+10	1
4902549	90	C	02/08/2023	02:14	-133.459	47.457	0	12.90	0	9.0790	0	32.2900	0	24.985	0	12.792	0	267.9	4	93.8	4	-1E+10	1	-1E+10	1	-1E+10	1	-1E+10	1	-1E+10	1	-1E+10	1
4902549	90	C	02/08/2023	02:14	-133.459	47.457	0	13.80	0	9.0790	0	32.2900	0	24.985	0	13.684	0	268.0	4	93.8	4	-1E+10	1	-1E+10	1	-1E+10	1	-1E+10	1	-1E+10	1	-1E+10	1
4902549	90	C	02/08/2023	02:14	-133.459	47.457	0	14.80	0	9.0800	0	32.2900	0	24.985	0	14.676	0	268.0	4	93.8	4	-1E+10	1	-1E+10	1	-1E+10	1	-1E+10	1	-1E+10	1	-1E+10	1
4902549	90	C	02/08/2023	02:14	-133.459	47.457	0	16.00	0	9.0800	0	32.2900	0	24.985	0	15.866	0	267.9	4	93.8	4	-1E+10	1	-1E+10	1	-1E+10	1	-1E+10	1	-1E+10	1	-1E+10	1
4902549	90	C	02/08/2023	02:14	-133.459	47.457	0	17.20	0	9.0810	0	32.2900	0	24.985	0	17.056	0	267.9	4	93.8	4	-1E+10	1	-1E+10	1	-1E+10	1	-1E+10	1	-1E+10	1	-1E+10	1
4902549	90	C	02/08/2023	02:14	-133.459	47.457	0	17.90	0	9.0800	0	32.2900	0	24.985	0	17.750	0	267.9	4	93.8	4	-1E+10	1	-1E+10	1	-1E+10	1	-1E+10	1	-1E+10	1	-1E+10	1
4902549	90	C	02/08/2023	02:14	-133.459	47.457	0	19.10	0	9.0810	0	32.2900	0	24.985	0	18.940	0	268.0	4	93.8	4	-1E+10	1	-1E+10	1	-1E+10	1	-1E+10	1	-1E+10	1	-1E+10	1
4902549	90	C	02/08/2023	02:14	-133.459	47.457	0	19.90	0	9.0810	0	32.2900	0	24.985	0	19.733	0	267.9	4	93.8	4	-1E+10	1	-1E+10	1	-1E+10	1	-1E+10	1	-1E+10	1	-1E+10	1
4902549	90	C	02/08/2023	02:14	-133.459	47.457	0	20.90	0	9.0800	0	32.2900	0	24.985	0	20.725	0	267.8	4	93.8	4	-1E+10	1	-1E+10	1	-1E+10	1	-1E+10	1	-1E+10	1	-1E+10	1
4902549	90	C	02/08/2023	02:14	-133.459	47.457	0	21.90	0	9.0800	0	32.2900	0	24.985	0	21.716	0	267.8	4	93.7	4	-1E+10	1	-1E+10	1	-1E+10	1	-1E+10	1	-1E+10	1	-1E+10	1
4902549	90	C	02/08/2023	02:14	-133.459	47.457	0	22.90	0	9.0800	0	32.2900	0	24.985	0	22.708	0	267.8	4	93.7	4	-1E+10	1	-1E+10	1	-1E+10	1	-1E+10	1	-1E+10	1	-1E+10	1
4902549	90	C	02/08/2023	02:14	-133.459	47.457	0	23.90	0	9.0810	0	32.2900	0	24.985	0	23.699	0	267.8	4	93.7	4	-1E+10	1	-1E+10	1	-1E+10	1	-1E+10	1	-1E+10	1	-1E+10	1
4902549	90	C	02/08/2023	02:14	-133.459	47.457	0	24.90	0	9.0800	0	32.2900	0	24.985	0	24.691	0	267.7	4	93.7	4	-1E+10	1	-1E+10	1	-1E+10	1	-1E+10	1	-1E+10	1	-1E+10	1
4902549	90	C	02/08/2023	02:14	-133.459	47.457	0	26.10	0	9.0810	0	32.2900	0	24.985	0	25.881	0	267.7	4	93.7	4	-1E+10	1	-1E+10	1	-1E+10	1	-1E+10	1	-1E+10	1	-1E+10	1
4902549	90	C	02/08/2023	02:14	-133.459	47.457	0	26.80	0	9.0810	0	32.2900	0	24.985	0	26.575	0	267.6	4	93.7	4	-1E+10	1	-1E+10	1	-1E+10	1	-1E+10	1	-1E+10	1	-1E+10	1
4902549	90	C	02/08/2023	02:14	-133.459	47.457	0	27.90	0	9.0810	0	32.2900	0	24.985	0	27.665	0	267.7	4	93.7	4	-1E+10	1	-1E+10	1	-1E+10	1	-1E+10	1	-1E+10	1	-1E+10	1
4902549	90	C	02/08/2023	02:14	-133.459	47.457	0	29.00	0	9.0810	0	32.2900	0	24.985	0	28.756	0	267.7	4	93.7	4	-1E+10	1	-1E+10	1	-1E+10	1	-1E+10	1	-1E+10	1	-1E+10	1
4902549	90	C	02/08/2023	02:14	-133.459	47.457	0	30.00	0	9.0820	0	32.2900	0	24.985	0	29.748	0	267.5	4	93.7	4	-1E+10	1	-1E+10	1	-1E+10	1	-1E+10	1	-1E+10	1	-1E+10	1
4902549	90	C	02/08/2023	02:14	-133.459	47.457	0	31.10	0	9.0810	0	32.2900	0	24.985	0	30.838	0	267.6	4	93.7	4	-1E+10	1	-1E+10	1	-1E+10	1	-1E+10	1	-1E+10	1	-1E+10	1
4902549	90	C	02/08/2023	02:14	-133.459	47.457	0	32.00	0	9.0810	0	32.2900	0	24.985	0	31.731	0	267.6	4	93.7	4	-1E+10	1	-1E+10	1	-1E+10	1	-1E+10	1	-1E+10	1	-1E+10	1
4902549	90	C	02/08/2023	02:14	-133.459	47.457	0	33.20	0	9.0820	0	32.2900	0	24.985	0	32.920	0	267.6	4	93.7	4	-1E+10	1	-1E+10	1	-1E+10	1	-1E+10	1	-1E+10	1	-1E+10	1
4902549	90	C	02/08/2023	02:14	-133.459	47.457	0	33.90	0	9.0820	0	32.2900	0	24.985	0	33.614	0	267.5	4	93.7	4	-1E+10	1	-1E+10	1	-1E+10	1	-1E+10	1	-1E+10	1	-1E+10	1
4902549	90	C	02/08/2023	02:14	-133.459	47.457	0	35.10	0	9.0810	0	32.2900	0	24.985	0	34.804	0	267.5	4	93.6	4	-1E+10	1	-1E+10	1	-1E+10	1	-1E+10	1	-1E+10	1	-1E+10	1
4902549	90	C	02/08/2023	02:14	-133.459	47.457	0	35.80	0	9.0810	0	32.2900	0	24.985	0	35.498	0	267.5	4	93.6	4	-1E+10	1	-1E+10	1	-1E+10	1	-1E+10	1	-1E+10	1	-1E+10	1
4902549	90	C	02/08/2023	02:14	-133.459	47.457	0	36.90	0	9.0810	0	32.2900	0	24.985	0	36.589	0	267.3	4	93.6	4	-1E+10	1	-1E+10	1	-1E+10	1	-1E+10	1	-1E+10	1	-1E+10	1
4902549	90	C	02/08/2023	02:14	-133.459	47.457	0	38.00	0	9.0810	0	32.2900	0	24.985	0	37.680	0	267.4	4	93.6	4	-1E+10	1	-1E+10	1	-1E+10	1	-1E+10	1	-1E+10	1	-1E+10	1
4902549	90	C	02/08/2023	02:14	-133.459	47.457	0	39.20	0	9.0810	0	32.2900	0	24.985	0	38.869	0	267.3	4	93.6	4	-1E+10	1	-1E+10	1	-1E+10	1	-1E+10	1	-1E+10	1	-1E+10	1
4902549	90	C	02/08/2023	02:14	-133.459	47.457	0	40.10	0	9.0810	0	32.2900	0	24.985	0	39.762	0	267.3	4	93.6	4	-1E+10	1	-1E+10	1	-1E+10	1	-1E+10	1	-1E+10	1	-1E+10	1
4902549	90	C	02/08/2023	02:14	-133.459	47.457	0	41.10	0	9.0820	0	32.2900	0	24.985	0	40.753	0	267.2	4	93.5	4	-1E+10	1	-1E+10	1	-1E+10	1	-1E+10	1	-1E+10	1	-1E+10	1
4902549	90	C	02/08/2023	02:14	-133.459	47.457	0	41.80	0	9.0810	0	32.2900	0	24.985	0	41.447	0	267.2	4	93.5	4	-1E+10	1	-1E+10	1	-1E+10	1	-1E+10	1	-1E+10	1	-1E+10	1
4902549	90	C	02/08/2023	02:14	-133.459	47.457	0	43.00	0	9.0800	0	32.2900	0	24.985	0	42.637	0	267.1	4	93.5	4	-1E+10	1	-1E+10	1	-1E+10	1	-1E+10	1	-1E+10	1	-1E+10	1
4902549	90	C	02/08/2023	02:14	-133.459	47.457	0	44.10	0	9.0800	0	32.2900	0	24.985	0	43.727	0	267.1	4	93.5	4	-1E+10	1	-1E+10	1	-1E+10	1	-1E+10	1	-1E+10	1	-1E+10	1
4902549	90	C	02/08/2023	02:14	-133.459	47.457	0	45.10	0	9.0800	0	32.2900	0	24.985	0	44.719	0	267.1	4	93.5	4	-1E+10	1	-1E+10	1	-1E+10	1	-1E+10	1	-1E+10	1	-1E+10	1
4902549	90	C	02/08/2023	02:14	-133.459	47.457	0	46.10	0	9.0810	0	32.2910	0	24.986	0	45.710	0	266.9	4	93.4	4	-1E+10	1	-1E+10	1	-1E+10	1	-1E+10	1	-1E+10	1	-1E+10	1
4902549	90	C	02/08/2023	02:14	-133.459	47.457	0	47.20	0	9.0800	0	32.2910	0	24.986	0	46.801	0	267.0	4	93.4	4	-1E+10	1	-1E+10	1	-1E+10	1	-1E+10	1	-1E+10	1	-1E+10	1
4902549	90	C	02/08/2023	02:14	-133.459	47.457	0	47.80	0	9.0800	0	32.2900	0	24.985	0	47.396	0	266.9	4	93.4	4	-1E+10	1	-1E+10	1	-1E+10	1	-1E+10	1	-1E+10	1	-1E+10	1
4902549	90	C	02/08/2023	02:14	-133.459	47.457	0	49.10	0	9.0810	0	32.2900	0	24.985	0	48.685	0	266.7	4	93.4	4	-1E+10	1	-1E+10	1	-1E+10	1	-1E+10	1	-1E+10	1	-1E+10	1
4902549	90	C	02/08/2023	02:14	-133.459	47.457	0	50.00	0	9.0810	0	32.2900	0	24.985	0	49.577	0	266.7	4	93.4	4	-1E+10	1	-1E+10	1	-1E+10	1	-1E+10	1	-1E+10	1	-1E+10	1
4902549	90	C	02/08/2023	02:14	-133.459	47.457	0	51.10	0	9.0810	0	32.2910	0	24.986	0	50.667	0	266.6	4	93.3	4	-1E+10	1	-1E+10	1	-1E+10	1	-1E+10	1	-1E+10	1	-1E+10	1
4902549	90	C	02/08/2023	02:14	-133.459	47.457	0	51.80	0	9.0810	0	32.2900	0	24.985	0	51.361	0	266.5	4	93.3	4	-1E+10	1	-1E+10	1	-1E+10	1	-1E+10	1	-1E+10	1	-1E+10	1
4902549	90	C	02/08/2023	02:14	-133.459	47.457	0	52.80	0	9.0820	0	32.2900	0	24.985	0	52.353	0	266.3	4	93.2	4	-1E+10	1	-1E+10	1	-1E+10	1	-1E+10	1	-1E+10	1	-1E+10	1
4902549	90	C	02/08/2023	02:14	-133.459	47.457	0	53.90	0	9.0820	0	32.2900	0	24.985	0	53.443	0	266.2	4	93.2	4	-1E+10	1	-1E+10	1	-1E+10	1	-1E+10	1	-1E+10	1	-1E+10	1
4902549	90	C	02/08/2023	02:14	-133.459	47.457	0	54.90	0	9.0820	0	32.2900	0	24.985	0	54.435	0	266.0	4	93.1	4	-1E+10	1	-1E+10	1	-1E+10	1	-1E+10	1	-1E+10	1	-1E+10	1
4902549	90	C	02/08/2023	02:14	-133.459	47.457	0	55.90	0	9.0830	0	32.2900	0	24.985	0	55.426	0	266.0	4	93.1	4	-1E+10	1	-1E+10	1	-1E+10	1	-1E+10	1	-1E+10	1	-1E+10	1
4902549	90	C	02/08/2023	02:14	-133.459	47.457	0	56.90	0	9.0820	0	32.2900	0	24.985	0	56.418	0	265.8	4	93.1	4	-1E+10	1	-1E+10	1	-1E+10	1	-1E+10	1	-1E+10	1	-1E+10	1
4902549	90	C	02/08/2023	02:14	-133.459	47.457	0	57.90	0	9.0820	0	32.2900	0	24.985	0	57.409	0	265.7	4	93.0	4	-1E+10	1	-1E+10	1	-1E+10	1	-1E+10	1	-1E+10	1	-1E+10	1
4902549	90	C	02/08/2023	02:14	-133.459	47.457	0	59.00	0	9.0820	0	32.2900	0	24.985	0	58.499	0	265.4	4	92.9	4	-1E+10	1	-1E+10	1	-1E+10	1	-1E+10	1	-1E+10	1	-1E+10	1
4902549	90	C	02/08/2023	02:14	-133.459	47.457	0	60.10	0	9.0820	0	32.2910	0	24.986	0	59.590	0	265.1	4	92.8	4	-1E+10	1	-1E+10	1	-1E+10	1	-1E+10	1	-1E+10	1	-1E+10	1
4902549	90	C	02/08/2023	02:14	-133.459	47.457	0	61.00	0	9.0830	0	32.2900	0	24.985	0	60.482	0	265.1	4	92.8	4	-1E+10	1	-1E+10	1	-1E+10	1	-1E+10	1	-1E+10	1	-1E+10	1
4902549	90	C	02/08/2023	02:14	-133.459	47.457	0	61.90	0	9.0820	0	32.2900	0	24.985	0	61.374	0	264.7	4	92.7	4	-1E+10	1	-1E+10	1	-1E+10	1	-1E+10	1	-1E+10	1	-1E+10	1
4902549	90	C	02/08/2023	02:14	-133.459	47.457	0	62.90	0	9.0810	0	32.2910	0	24.986	0	62.366	0	264.4	4	92.6	4	-1E+10	1	-1E+10	1	-1E+10	1	-1E+10	1	-1E+10	1	-1E+10	1
4902549	90	C	02/08/2023	02:14	-133.459	47.457	0	64.00	0	9.0820	0	32.2910	0	24.986	0	63.456	0	264.2	4	92.5	4	-1E+10	1	-1E+10	1	-1E+10	1	-1E+10	1	-1E+10	1	-1E+10	1
4902549	90	C	02/08/2023	02:14	-133.459	47.457	0	65.00	0	9.0820	0	32.2910	0	24.986	0	64.448	0	264.0	4	92.4	4	-1E+10	1	-1E+10	1	-1E+10	1	-1E+10	1	-1E+10	1	-1E+10	1
4902549	90	C	02/08/2023	02:14	-133.459	47.457	0	65.90	0	9.0820	0	32.2910	0	24.986	0	65.340	0	263.6	4	92.3	4	-1E+10	1	-1E+10	1	-1E+10	1	-1E+10	1	-1E+10	1	-1E+10	1
4902549	90	C	02/08/2023	02:14	-133.459	47.457	0	67.10	0	9.0820	0	32.2910	0	24.986	0	66.529	0	262.7	4	91.9	4	-1E+10	1	-1E+10	1	-1E+10	1	-1E+10	1	-1E+10	1	-1E+10	1
4902549	90	C	02/08/2023	02:14	-133.459	47.457	0	68.00	0	9.0810	0	32.2910	0	24.986	0	67.422	0	261.8	4	91.6	4	-1E+10	1	-1E+10	1	-1E+10	1	-1E+10	1	-1E+10	1	-1E+10	1
4902549	90	C	02/08/2023	02:14	-133.459	47.457	0	68.90	0	9.0760	0	32.2920	0	24.988	0	68.314	0	260.9	4	91.3	4	-1E+10	1	-1E+10	1	-1E+10	1	-1E+10	1	-1E+10	1	-1E+10	1
4902549	90	C	02/08/2023	02:14	-133.459	47.457	0	70.00	0	9.0760	0	32.2920	0	24.988	0	69.404	0	259.7	4	90.9	4	-1E+10	1	-1E+10	1	-1E+10	1	-1E+10	1	-1E+10	1	-1E+10	1
4902549	90	C	02/08/2023	02:14	-133.459	47.457	0	71.10	0	9.0720	0	32.2940	0	24.990	0	70.495	0	258.1	4	90.3	4	-1E+10	1	-1E+10	1	-1E+10	1	-1E+10	1	-1E+10	1	-1E+10	1
4902549	90	C	02/08/2023	02:14	-133.459	47.457	0	71.90	0	9.0640	0	32.2950	0	24.992	0	71.288	0	257.0	4	89.9	4	-1E+10	1	-1E+10	1	-1E+10	1	-1E+10	1	-1E+10	1	-1E+10	1
4902549	90	C	02/08/2023	02:14	-133.459	47.457	0	72.90	0	9.0600	0	32.2960	0	24.994	0	72.279	0	255.2	4	89.3	4	-1E+10	1	-1E+10	1	-1E+10	1	-1E+10	1	-1E+10	1	-1E+10	1
4902549	90	C	02/08/2023	02:14	-133.459	47.457	0	73.90	0	9.0610	0	32.2950	0	24.993	0	73.270	0	253.5	4	88.7	4	-1E+10	1	-1E+10	1	-1E+10	1	-1E+10	1	-1E+10	1	-1E+10	1
4902549	90	C	02/08/2023	02:14	-133.459	47.457	0	74.90	0	9.0560	0	32.2970	0	24.995	0	74.262	0	251.6	4	88.0	4	-1E+10	1	-1E+10	1	-1E+10	1	-1E+10	1	-1E+10	1	-1E+10	1
4902549	90	C	02/08/2023	02:14	-133.459	47.457	0	76.00	0	9.0550	0	32.2940	0	24.993	0	75.352	0	248.9	4	87.1	4	-1E+10	1	-1E+10	1	-1E+10	1	-1E+10	1	-1E+10	1	-1E+10	1
4902549	90	C	02/08/2023	02:14	-133.459	47.457	0	77.10	0	9.0550	0	32.2960	0	24.994	0	76.443	0	245.2	4	85.8	4	-1E+10	1	-1E+10	1	-1E+10	1	-1E+10	1	-1E+10	1	-1E+10	1
4902549	90	C	02/08/2023	02:14	-133.459	47.457	0	78.20	0	9.0250	0	32.3010	0	25.003	0	77.533	0	241.4	4	84.4	4	-1E+10	1	-1E+10	1	-1E+10	1	-1E+10	1	-1E+10	1	-1E+10	1
4902549	90	C	02/08/2023	02:14	-133.459	47.457	0	78.80	0	8.9480	0	32.3200	0	25.030	0	78.128	0	239.6	4	83.6	4	-1E+10	1	-1E+10	1	-1E+10	1	-1E+10	1	-1E+10	1	-1E+10	1
4902549	90	C	02/08/2023	02:14	-133.459	47.457	0	79.90	0	8.7350	0	32.3740	0	25.105	0	79.218	0	236.1	4	82.1	4	-1E+10	1	-1E+10	1	-1E+10	1	-1E+10	1	-1E+10	1	-1E+10	1
4902549	90	C	02/08/2023	02:14	-133.459	47.457	0	81.00	0	8.4640	0	32.4480	0	25.203	0	80.309	0	233.3	4	80.7	4	-1E+10	1	-1E+10	1	-1E+10	1	-1E+10	1	-1E+10	1	-1E+10	1
4902549	90	C	02/08/2023	02:14	-133.459	47.457	0	81.90	0	8.3260	0	32.4870	0	25.255	0	81.201	0	231.4	4	79.8	4	-1E+10	1	-1E+10	1	-1E+10	1	-1E+10	1	-1E+10	1	-1E+10	1
4902549	90	C	02/08/2023	02:14	-133.459	47.457	0	83.00	0	8.2760	0	32.4960	0	25.269	0	82.291	0	234.0	4	80.6	4	-1E+10	1	-1E+10	1	-1E+10	1	-1E+10	1	-1E+10	1	-1E+10	1
4902549	90	C	02/08/2023	02:14	-133.459	47.457	0	84.10	0	8.1850	0	32.5100	0	25.293	0	83.381	0	229.4	4	78.9	4	-1E+10	1	-1E+10	1	-1E+10	1	-1E+10	1	-1E+10	1	-1E+10	1
4902549	90	C	02/08/2023	02:14	-133.459	47.457	0	85.10	0	7.9960	0	32.5830	0	25.378	0	84.373	0	226.9	4	77.7	4	-1E+10	1	-1E+10	1	-1E+10	1	-1E+10	1	-1E+10	1	-1E+10	1
4902549	90	C	02/08/2023	02:14	-133.459	47.457	0	86.00	0	7.9650	0	32.6280	0	25.418	0	85.265	0	225.2	4	77.1	4	-1E+10	1	-1E+10	1	-1E+10	1	-1E+10	1	-1E+10	1	-1E+10	1
4902549	90	C	02/08/2023	02:14	-133.459	47.457	0	86.90	0	7.9350	0	32.6380	0	25.430	0	86.157	0	222.4	4	76.1	4	-1E+10	1	-1E+10	1	-1E+10	1	-1E+10	1	-1E+10	1	-1E+10	1
4902549	90	C	02/08/2023	02:14	-133.459	47.457	0	88.10	0	7.8750	0	32.6540	0	25.451	0	87.346	0	219.0	4	74.8	4	-1E+10	1	-1E+10	1	-1E+10	1	-1E+10	1	-1E+10	1	-1E+10	1
4902549	90	C	02/08/2023	02:14	-133.459	47.457	0	89.00	0	7.6070	0	32.7590	0	25.572	0	88.239	0	218.4	4	74.2	4	-1E+10	1	-1E+10	1	-1E+10	1	-1E+10	1	-1E+10	1	-1E+10	1
4902549	90	C	02/08/2023	02:14	-133.459	47.457	0	90.10	0	7.5700	0	32.7750	0	25.590	0	89.329	0	216.2	4	73.4	4	-1E+10	1	-1E+10	1	-1E+10	1	-1E+10	1	-1E+10	1	-1E+10	1
4902549	90	C	02/08/2023	02:14	-133.459	47.457	0	91.20	0	7.5430	0	32.7790	0	25.597	0	90.419	0	213.5	4	72.5	4	-1E+10	1	-1E+10	1	-1E+10	1	-1E+10	1	-1E+10	1	-1E+10	1
4902549	90	C	02/08/2023	02:14	-133.459	47.457	0	92.10	0	7.5210	0	32.8210	0	25.633	0	91.311	0	210.7	4	71.5	4	-1E+10	1	-1E+10	1	-1E+10	1	-1E+10	1	-1E+10	1	-1E+10	1
4902549	90	C	02/08/2023	02:14	-133.459	47.457	0	93.00	0	7.4780	0	32.8630	0	25.672	0	92.203	0	208.5	4	70.7	4	-1E+10	1	-1E+10	1	-1E+10	1	-1E+10	1	-1E+10	1	-1E+10	1
4902549	90	C	02/08/2023	02:14	-133.459	47.457	0	94.10	0	7.4570	0	32.9000	0	25.704	0	93.294	0	206.4	4	70.0	4	-1E+10	1	-1E+10	1	-1E+10	1	-1E+10	1	-1E+10	1	-1E+10	1
4902549	90	C	02/08/2023	02:14	-133.459	47.457	0	95.10	0	7.4500	0	32.9160	0	25.717	0	94.285	0	203.8	4	69.1	4	-1E+10	1	-1E+10	1	-1E+10	1	-1E+10	1	-1E+10	1	-1E+10	1
4902549	90	C	02/08/2023	02:14	-133.459	47.457	0	95.90	0	7.4490	0	32.9280	0	25.727	0	95.078	0	201.7	4	68.4	4	-1E+10	1	-1E+10	1	-1E+10	1	-1E+10	1	-1E+10	1	-1E+10	1
4902549	90	C	02/08/2023	02:14	-133.459	47.457	0	97.00	0	7.4510	0	32.9400	0	25.736	0	96.168	0	198.4	4	67.3	4	-1E+10	1	-1E+10	1	-1E+10	1	-1E+10	1	-1E+10	1	-1E+10	1
4902549	90	C	02/08/2023	02:14	-133.459	47.457	0	97.90	0	7.4430	0	32.9580	0	25.751	0	97.060	0	196.0	4	66.5	4	-1E+10	1	-1E+10	1	-1E+10	1	-1E+10	1	-1E+10	1	-1E+10	1
4902549	90	C	02/08/2023	02:14	-133.459	47.457	0	98.80	0	7.4220	0	33.0130	0	25.797	0	97.952	0	193.5	4	65.6	4	-1E+10	1	-1E+10	1	-1E+10	1	-1E+10	1	-1E+10	1	-1E+10	1
4902549	90	C	02/08/2023	02:14	-133.459	47.457	0	99.80	0	7.4120	0	33.0480	0	25.826	0	98.944	0	191.3	4	64.9	4	-1E+10	1	-1E+10	1	-1E+10	1	-1E+10	1	-1E+10	1	-1E+10	1
4902549	90	C	02/08/2023	02:14	-133.459	47.457	0	101.00	0	7.3990	0	33.0860	0	25.858	0	100.133	0	189.1	4	64.1	4	-1E+10	1	-1E+10	1	-1E+10	1	-1E+10	1	-1E+10	1	-1E+10	1
4902549	90	C	02/08/2023	02:14	-133.459	47.457	0	102.20	0	7.3740	0	33.1430	0	25.906	0	101.322	0	187.2	4	63.5	4	-1E+10	1	-1E+10	1	-1E+10	1	-1E+10	1	-1E+10	1	-1E+10	1
4902549	90	C	02/08/2023	02:14	-133.459	47.457	0	103.00	0	7.3690	0	33.1480	0	25.911	0	102.115	0	186.1	4	63.1	4	-1E+10	1	-1E+10	1	-1E+10	1	-1E+10	1	-1E+10	1	-1E+10	1
4902549	90	C	02/08/2023	02:14	-133.459	47.457	0	104.10	0	7.3700	0	33.1860	0	25.941	0	103.206	0	184.6	4	62.6	4	-1E+10	1	-1E+10	1	-1E+10	1	-1E+10	1	-1E+10	1	-1E+10	1
4902549	90	C	02/08/2023	02:14	-133.459	47.457	0	105.30	0	7.3540	0	33.2220	0	25.971	0	104.395	0	183.2	4	62.1	4	-1E+10	1	-1E+10	1	-1E+10	1	-1E+10	1	-1E+10	1	-1E+10	1
4902549	90	C	02/08/2023	02:14	-133.459	47.457	0	106.00	0	7.3520	0	33.2280	0	25.976	0	105.089	0	182.4	4	61.8	4	-1E+10	1	-1E+10	1	-1E+10	1	-1E+10	1	-1E+10	1	-1E+10	1
4902549	90	C	02/08/2023	02:14	-133.459	47.457	0	107.10	0	7.3490	0	33.2400	0	25.986	0	106.179	0	181.3	4	61.5	4	-1E+10	1	-1E+10	1	-1E+10	1	-1E+10	1	-1E+10	1	-1E+10	1
4902549	90	C	02/08/2023	02:14	-133.459	47.457	0	107.90	0	7.3490	0	33.2490	0	25.993	0	106.972	0	180.3	4	61.1	4	-1E+10	1	-1E+10	1	-1E+10	1	-1E+10	1	-1E+10	1	-1E+10	1
4902549	90	C	02/08/2023	02:14	-133.459	47.457	0	109.10	0	7.3470	0	33.2580	0	26.001	0	108.161	0	178.8	4	60.6	4	-1E+10	1	-1E+10	1	-1E+10	1	-1E+10	1	-1E+10	1	-1E+10	1
4902549	90	C	02/08/2023	02:14	-133.459	47.457	0	110.00	0	7.3450	0	33.2670	0	26.008	0	109.053	0	177.6	4	60.2	4	-1E+10	1	-1E+10	1	-1E+10	1	-1E+10	1	-1E+10	1	-1E+10	1
4902549	90	C	02/08/2023	02:14	-133.459	47.457	0	110.80	0	7.3440	0	33.2720	0	26.012	0	109.846	0	176.4	4	59.8	4	-1E+10	1	-1E+10	1	-1E+10	1	-1E+10	1	-1E+10	1	-1E+10	1
4902549	90	C	02/08/2023	02:14	-133.459	47.457	0	112.00	0	7.3390	0	33.2880	0	26.025	0	111.036	0	174.7	4	59.2	4	-1E+10	1	-1E+10	1	-1E+10	1	-1E+10	1	-1E+10	1	-1E+10	1
4902549	90	C	02/08/2023	02:14	-133.459	47.457	0	113.10	0	7.3280	0	33.3440	0	26.071	0	112.126	0	172.9	4	58.7	4	-1E+10	1	-1E+10	1	-1E+10	1	-1E+10	1	-1E+10	1	-1E+10	1
4902549	90	C	02/08/2023	02:14	-133.459	47.457	0	114.00	0	7.3310	0	33.3660	0	26.088	0	113.018	0	171.8	4	58.3	4	-1E+10	1	-1E+10	1	-1E+10	1	-1E+10	1	-1E+10	1	-1E+10	1
4902549	90	C	02/08/2023	02:14	-133.459	47.457	0	114.90	0	7.3300	0	33.3800	0	26.099	0	113.910	0	170.6	4	57.9	4	-1E+10	1	-1E+10	1	-1E+10	1	-1E+10	1	-1E+10	1	-1E+10	1
4902549	90	C	02/08/2023	02:14	-133.459	47.457	0	115.80	0	7.3300	0	33.3930	0	26.109	0	114.802	0	169.4	4	57.5	4	-1E+10	1	-1E+10	1	-1E+10	1	-1E+10	1	-1E+10	1	-1E+10	1
4902549	90	C	02/08/2023	02:14	-133.459	47.457	0	116.80	0	7.3290	0	33.4140	0	26.126	0	115.793	0	168.1	4	57.0	4	-1E+10	1	-1E+10	1	-1E+10	1	-1E+10	1	-1E+10	1	-1E+10	1
4902549	90	C	02/08/2023	02:14	-133.459	47.457	0	117.80	0	7.3270	0	33.4280	0	26.137	0	116.784	0	166.8	4	56.6	4	-1E+10	1	-1E+10	1	-1E+10	1	-1E+10	1	-1E+10	1	-1E+10	1
4902549	90	C	02/08/2023	02:14	-133.459	47.457	0	118.80	0	7.3190	0	33.4600	0	26.164	0	117.775	0	165.7	4	56.2	4	-1E+10	1	-1E+10	1	-1E+10	1	-1E+10	1	-1E+10	1	-1E+10	1
4902549	90	C	02/08/2023	02:14	-133.459	47.457	0	119.80	0	7.3110	0	33.4900	0	26.188	0	118.766	0	164.9	4	56.0	4	-1E+10	1	-1E+10	1	-1E+10	1	-1E+10	1	-1E+10	1	-1E+10	1
4902549	90	C	02/08/2023	02:14	-133.459	47.457	0	120.80	0	7.3100	0	33.4930	0	26.191	0	119.757	0	164.0	4	55.7	4	-1E+10	1	-1E+10	1	-1E+10	1	-1E+10	1	-1E+10	1	-1E+10	1
4902549	90	C	02/08/2023	02:14	-133.459	47.457	0	121.90	0	7.3090	0	33.5020	0	26.198	0	120.847	0	163.2	4	55.4	4	-1E+10	1	-1E+10	1	-1E+10	1	-1E+10	1	-1E+10	1	-1E+10	1
4902549	90	C	02/08/2023	02:14	-133.459	47.457	0	122.90	0	7.3080	0	33.5060	0	26.201	0	121.838	0	162.2	4	55.1	4	-1E+10	1	-1E+10	1	-1E+10	1	-1E+10	1	-1E+10	1	-1E+10	1
4902549	90	C	02/08/2023	02:14	-133.459	47.457	0	124.00	0	7.3060	0	33.5170	0	26.210	0	122.929	0	161.1	4	54.7	4	-1E+10	1	-1E+10	1	-1E+10	1	-1E+10	1	-1E+10	1	-1E+10	1
4902549	90	C	02/08/2023	02:14	-133.459	47.457	0	125.00	0	7.3020	0	33.5350	0	26.225	0	123.920	0	160.1	4	54.4	4	-1E+10	1	-1E+10	1	-1E+10	1	-1E+10	1	-1E+10	1	-1E+10	1
4902549	90	C	02/08/2023	02:14	-133.459	47.457	0	126.10	0	7.2990	0	33.5550	0	26.241	0	125.010	0	159.4	4	54.1	4	-1E+10	1	-1E+10	1	-1E+10	1	-1E+10	1	-1E+10	1	-1E+10	1
4902549	90	C	02/08/2023	02:14	-133.459	47.457	0	126.90	0	7.2930	0	33.5740	0	26.257	0	125.803	0	159.0	4	54.0	4	-1E+10	1	-1E+10	1	-1E+10	1	-1E+10	1	-1E+10	1	-1E+10	1
4902549	90	C	02/08/2023	02:14	-133.459	47.457	0	128.00	0	7.2810	0	33.5960	0	26.276	0	126.893	0	158.6	4	53.9	4	-1E+10	1	-1E+10	1	-1E+10	1	-1E+10	1	-1E+10	1	-1E+10	1
4902549	90	C	02/08/2023	02:14	-133.459	47.457	0	129.20	0	7.2790	0	33.6020	0	26.281	0	128.082	0	158.3	4	53.7	4	-1E+10	1	-1E+10	1	-1E+10	1	-1E+10	1	-1E+10	1	-1E+10	1
4902549	90	C	02/08/2023	02:14	-133.459	47.457	0	130.00	0	7.2790	0	33.6030	0	26.282	0	128.875	0	158.1	4	53.7	4	-1E+10	1	-1E+10	1	-1E+10	1	-1E+10	1	-1E+10	1	-1E+10	1
4902549	90	C	02/08/2023	02:14	-133.459	47.457	0	130.80	0	7.2780	0	33.6040	0	26.283	0	129.668	0	157.8	4	53.6	4	-1E+10	1	-1E+10	1	-1E+10	1	-1E+10	1	-1E+10	1	-1E+10	1
4902549	90	C	02/08/2023	02:14	-133.459	47.457	0	131.90	0	7.2750	0	33.6070	0	26.286	0	130.758	0	157.3	4	53.4	4	-1E+10	1	-1E+10	1	-1E+10	1	-1E+10	1	-1E+10	1	-1E+10	1
4902549	90	C	02/08/2023	02:14	-133.459	47.457	0	133.10	0	7.2730	0	33.6120	0	26.290	0	131.947	0	156.8	4	53.2	4	-1E+10	1	-1E+10	1	-1E+10	1	-1E+10	1	-1E+10	1	-1E+10	1
4902549	90	C	02/08/2023	02:14	-133.459	47.457	0	133.90	0	7.2700	0	33.6170	0	26.294	0	132.740	0	156.5	4	53.1	4	-1E+10	1	-1E+10	1	-1E+10	1	-1E+10	1	-1E+10	1	-1E+10	1
4902549	90	C	02/08/2023	02:14	-133.459	47.457	0	134.70	0	7.2650	0	33.6240	0	26.300	0	133.533	0	156.1	4	53.0	4	-1E+10	1	-1E+10	1	-1E+10	1	-1E+10	1	-1E+10	1	-1E+10	1
4902549	90	C	02/08/2023	02:14	-133.459	47.457	0	135.90	0	7.2590	0	33.6320	0	26.308	0	134.722	0	155.6	4	52.8	4	-1E+10	1	-1E+10	1	-1E+10	1	-1E+10	1	-1E+10	1	-1E+10	1
4902549	90	C	02/08/2023	02:14	-133.459	47.457	0	137.10	0	7.2500	0	33.6450	0	26.319	0	135.911	0	155.2	4	52.7	4	-1E+10	1	-1E+10	1	-1E+10	1	-1E+10	1	-1E+10	1	-1E+10	1
4902549	90	C	02/08/2023	02:14	-133.459	47.457	0	137.90	0	7.2460	0	33.6510	0	26.324	0	136.704	0	155.0	4	52.6	4	-1E+10	1	-1E+10	1	-1E+10	1	-1E+10	1	-1E+10	1	-1E+10	1
4902549	90	C	02/08/2023	02:14	-133.459	47.457	0	138.70	0	7.2430	0	33.6560	0	26.329	0	137.497	0	154.8	4	52.5	4	-1E+10	1	-1E+10	1	-1E+10	1	-1E+10	1	-1E+10	1	-1E+10	1
4902549	90	C	02/08/2023	02:14	-133.459	47.457	0	140.00	0	7.2370	0	33.6620	0	26.334	0	138.785	0	154.6	4	52.5	4	-1E+10	1	-1E+10	1	-1E+10	1	-1E+10	1	-1E+10	1	-1E+10	1
4902549	90	C	02/08/2023	02:14	-133.459	47.457	0	141.30	0	7.2280	0	33.6720	0	26.343	0	140.073	0	154.5	4	52.4	4	-1E+10	1	-1E+10	1	-1E+10	1	-1E+10	1	-1E+10	1	-1E+10	1
4902549	90	C	02/08/2023	02:14	-133.459	47.457	0	142.10	0	7.2260	0	33.6740	0	26.345	0	140.866	0	154.3	4	52.4	4	-1E+10	1	-1E+10	1	-1E+10	1	-1E+10	1	-1E+10	1	-1E+10	1
4902549	90	C	02/08/2023	02:14	-133.459	47.457	0	142.90	0	7.2240	0	33.6750	0	26.346	0	141.659	0	154.3	4	52.3	4	-1E+10	1	-1E+10	1	-1E+10	1	-1E+10	1	-1E+10	1	-1E+10	1
4902549	90	C	02/08/2023	02:14	-133.459	47.457	0	143.80	0	7.2200	0	33.6770	0	26.348	0	142.551	0	154.1	4	52.3	4	-1E+10	1	-1E+10	1	-1E+10	1	-1E+10	1	-1E+10	1	-1E+10	1
4902549	90	C	02/08/2023	02:14	-133.459	47.457	0	145.00	0	7.2130	0	33.6820	0	26.353	0	143.740	0	153.8	4	52.2	4	-1E+10	1	-1E+10	1	-1E+10	1	-1E+10	1	-1E+10	1	-1E+10	1
4902549	90	C	02/08/2023	02:14	-133.459	47.457	0	146.30	0	7.2070	0	33.6880	0	26.359	0	145.028	0	153.6	4	52.1	4	-1E+10	1	-1E+10	1	-1E+10	1	-1E+10	1	-1E+10	1	-1E+10	1
4902549	90	C	02/08/2023	02:14	-133.459	47.457	0	147.10	0	7.1930	0	33.6990	0	26.370	0	145.821	0	153.5	4	52.0	4	-1E+10	1	-1E+10	1	-1E+10	1	-1E+10	1	-1E+10	1	-1E+10	1
4902549	90	C	02/08/2023	02:14	-133.459	47.457	0	147.90	0	7.1910	0	33.7000	0	26.371	0	146.614	0	153.4	4	52.0	4	-1E+10	1	-1E+10	1	-1E+10	1	-1E+10	1	-1E+10	1	-1E+10	1
4902549	90	C	02/08/2023	02:14	-133.459	47.457	0	148.80	0	7.1850	0	33.7050	0	26.375	0	147.506	0	153.2	4	51.9	4	-1E+10	1	-1E+10	1	-1E+10	1	-1E+10	1	-1E+10	1	-1E+10	1
4902549	90	C	02/08/2023	02:14	-133.459	47.457	0	150.00	0	7.1760	0	33.7100	0	26.381	0	148.695	0	152.9	4	51.8	4	-1E+10	1	-1E+10	1	-1E+10	1	-1E+10	1	-1E+10	1	-1E+10	1
4902549	90	C	02/08/2023	02:14	-133.459	47.457	0	151.30	0	7.1560	0	33.7220	0	26.393	0	149.983	0	152.6	4	51.7	4	-1E+10	1	-1E+10	1	-1E+10	1	-1E+10	1	-1E+10	1	-1E+10	1
4902549	90	C	02/08/2023	02:14	-133.459	47.457	0	152.10	0	7.1470	0	33.7280	0	26.399	0	150.776	0	152.3	4	51.6	4	-1E+10	1	-1E+10	1	-1E+10	1	-1E+10	1	-1E+10	1	-1E+10	1
4902549	90	C	02/08/2023	02:14	-133.459	47.457	0	152.90	0	7.1450	0	33.7290	0	26.400	0	151.568	0	152.1	4	51.5	4	-1E+10	1	-1E+10	1	-1E+10	1	-1E+10	1	-1E+10	1	-1E+10	1
4902549	90	C	02/08/2023	02:14	-133.459	47.457	0	153.70	0	7.1360	0	33.7350	0	26.406	0	152.361	0	151.8	4	51.4	4	-1E+10	1	-1E+10	1	-1E+10	1	-1E+10	1	-1E+10	1	-1E+10	1
4902549	90	C	02/08/2023	02:14	-133.459	47.457	0	155.00	0	7.1180	0	33.7430	0	26.415	0	153.649	0	151.5	4	51.3	4	-1E+10	1	-1E+10	1	-1E+10	1	-1E+10	1	-1E+10	1	-1E+10	1
4902549	90	C	02/08/2023	02:14	-133.459	47.457	0	156.20	0	7.0920	0	33.7520	0	26.425	0	154.838	0	151.1	4	51.1	4	-1E+10	1	-1E+10	1	-1E+10	1	-1E+10	1	-1E+10	1	-1E+10	1
4902549	90	C	02/08/2023	02:14	-133.459	47.457	0	157.10	0	7.0760	0	33.7580	0	26.432	0	155.730	0	150.9	4	51.0	4	-1E+10	1	-1E+10	1	-1E+10	1	-1E+10	1	-1E+10	1	-1E+10	1
4902549	90	C	02/08/2023	02:14	-133.459	47.457	0	157.90	0	7.0680	0	33.7600	0	26.435	0	156.523	0	150.6	4	50.9	4	-1E+10	1	-1E+10	1	-1E+10	1	-1E+10	1	-1E+10	1	-1E+10	1
4902549	90	C	02/08/2023	02:14	-133.459	47.457	0	158.80	0	7.0660	0	33.7610	0	26.436	0	157.415	0	150.2	4	50.8	4	-1E+10	1	-1E+10	1	-1E+10	1	-1E+10	1	-1E+10	1	-1E+10	1
4902549	90	C	02/08/2023	02:14	-133.459	47.457	0	159.70	0	7.0620	0	33.7630	0	26.438	0	158.307	0	149.8	4	50.7	4	-1E+10	1	-1E+10	1	-1E+10	1	-1E+10	1	-1E+10	1	-1E+10	1
4902549	90	C	02/08/2023	02:14	-133.459	47.457	0	160.90	0	7.0540	0	33.7630	0	26.439	0	159.496	0	149.2	4	50.4	4	-1E+10	1	-1E+10	1	-1E+10	1	-1E+10	1	-1E+10	1	-1E+10	1
4902549	90	C	02/08/2023	02:14	-133.459	47.457	0	162.20	0	7.0450	0	33.7660	0	26.443	0	160.784	0	148.5	4	50.2	4	-1E+10	1	-1E+10	1	-1E+10	1	-1E+10	1	-1E+10	1	-1E+10	1
4902549	90	C	02/08/2023	02:14	-133.459	47.457	0	163.10	0	7.0390	0	33.7670	0	26.444	0	161.676	0	148.0	4	50.0	4	-1E+10	1	-1E+10	1	-1E+10	1	-1E+10	1	-1E+10	1	-1E+10	1
4902549	90	C	02/08/2023	02:14	-133.459	47.457	0	164.00	0	7.0170	0	33.7730	0	26.452	0	162.567	0	147.6	4	49.9	4	-1E+10	1	-1E+10	1	-1E+10	1	-1E+10	1	-1E+10	1	-1E+10	1
4902549	90	C	02/08/2023	02:14	-133.459	47.457	0	164.90	0	7.0120	0	33.7740	0	26.454	0	163.459	0	147.2	4	49.7	4	-1E+10	1	-1E+10	1	-1E+10	1	-1E+10	1	-1E+10	1	-1E+10	1
4902549	90	C	02/08/2023	02:14	-133.459	47.457	0	165.80	0	6.9980	0	33.7780	0	26.459	0	164.351	0	146.7	4	49.5	4	-1E+10	1	-1E+10	1	-1E+10	1	-1E+10	1	-1E+10	1	-1E+10	1
4902549	90	C	02/08/2023	02:14	-133.459	47.457	0	166.70	0	6.9820	0	33.7810	0	26.463	0	165.243	0	146.2	4	49.4	4	-1E+10	1	-1E+10	1	-1E+10	1	-1E+10	1	-1E+10	1	-1E+10	1
4902549	90	C	02/08/2023	02:14	-133.459	47.457	0	167.60	0	6.9690	0	33.7830	0	26.467	0	166.134	0	145.8	4	49.2	4	-1E+10	1	-1E+10	1	-1E+10	1	-1E+10	1	-1E+10	1	-1E+10	1
4902549	90	C	02/08/2023	02:14	-133.459	47.457	0	168.90	0	6.9550	0	33.7850	0	26.470	0	167.423	0	145.0	4	48.9	4	-1E+10	1	-1E+10	1	-1E+10	1	-1E+10	1	-1E+10	1	-1E+10	1
4902549	90	C	02/08/2023	02:14	-133.459	47.457	0	170.30	0	6.9390	0	33.7880	0	26.475	0	168.810	0	144.2	4	48.6	4	-1E+10	1	-1E+10	1	-1E+10	1	-1E+10	1	-1E+10	1	-1E+10	1
4902549	90	C	02/08/2023	02:14	-133.459	47.457	0	171.20	0	6.9300	0	33.7880	0	26.476	0	169.701	0	143.6	4	48.4	4	-1E+10	1	-1E+10	1	-1E+10	1	-1E+10	1	-1E+10	1	-1E+10	1
4902549	90	C	02/08/2023	02:14	-133.459	47.457	0	172.10	0	6.9210	0	33.7900	0	26.479	0	170.593	0	142.9	4	48.2	4	-1E+10	1	-1E+10	1	-1E+10	1	-1E+10	1	-1E+10	1	-1E+10	1
4902549	90	C	02/08/2023	02:14	-133.459	47.457	0	173.00	0	6.8830	0	33.7970	0	26.489	0	171.485	0	142.5	4	48.0	4	-1E+10	1	-1E+10	1	-1E+10	1	-1E+10	1	-1E+10	1	-1E+10	1
4902549	90	C	02/08/2023	02:14	-133.459	47.457	0	173.90	0	6.8740	0	33.7980	0	26.491	0	172.377	0	142.1	4	47.9	4	-1E+10	1	-1E+10	1	-1E+10	1	-1E+10	1	-1E+10	1	-1E+10	1
4902549	90	C	02/08/2023	02:14	-133.459	47.457	0	174.80	0	6.8660	0	33.7980	0	26.492	0	173.268	0	141.6	4	47.7	4	-1E+10	1	-1E+10	1	-1E+10	1	-1E+10	1	-1E+10	1	-1E+10	1
4902549	90	C	02/08/2023	02:14	-133.459	47.457	0	175.70	0	6.8640	0	33.7990	0	26.494	0	174.160	0	141.1	4	47.5	4	-1E+10	1	-1E+10	1	-1E+10	1	-1E+10	1	-1E+10	1	-1E+10	1
4902549	90	C	02/08/2023	02:14	-133.459	47.457	0	176.60	0	6.8480	0	33.8020	0	26.498	0	175.052	0	140.6	4	47.3	4	-1E+10	1	-1E+10	1	-1E+10	1	-1E+10	1	-1E+10	1	-1E+10	1
4902549	90	C	02/08/2023	02:14	-133.459	47.457	0	177.90	0	6.8300	0	33.8030	0	26.501	0	176.340	0	139.8	4	47.0	4	-1E+10	1	-1E+10	1	-1E+10	1	-1E+10	1	-1E+10	1	-1E+10	1
4902549	90	C	02/08/2023	02:14	-133.459	47.457	0	179.40	0	6.8180	0	33.8040	0	26.504	0	177.826	0	138.8	4	46.7	4	-1E+10	1	-1E+10	1	-1E+10	1	-1E+10	1	-1E+10	1	-1E+10	1
4902549	90	C	02/08/2023	02:14	-133.459	47.457	0	180.30	0	6.8110	0	33.8040	0	26.505	0	178.718	0	138.1	4	46.4	4	-1E+10	1	-1E+10	1	-1E+10	1	-1E+10	1	-1E+10	1	-1E+10	1
4902549	90	C	02/08/2023	02:14	-133.459	47.457	0	181.30	0	6.7990	0	33.8050	0	26.507	0	179.709	0	137.2	4	46.1	4	-1E+10	1	-1E+10	1	-1E+10	1	-1E+10	1	-1E+10	1	-1E+10	1
4902549	90	C	02/08/2023	02:14	-133.459	47.457	0	182.20	0	6.7880	0	33.8050	0	26.509	0	180.600	0	136.2	4	45.8	4	-1E+10	1	-1E+10	1	-1E+10	1	-1E+10	1	-1E+10	1	-1E+10	1
4902549	90	C	02/08/2023	02:14	-133.459	47.457	0	183.10	0	6.7710	0	33.8090	0	26.514	0	181.492	0	135.3	4	45.5	4	-1E+10	1	-1E+10	1	-1E+10	1	-1E+10	1	-1E+10	1	-1E+10	1
4902549	90	C	02/08/2023	02:14	-133.459	47.457	0	184.10	0	6.7610	0	33.8140	0	26.519	0	182.483	0	134.6	4	45.2	4	-1E+10	1	-1E+10	1	-1E+10	1	-1E+10	1	-1E+10	1	-1E+10	1
4902549	90	C	02/08/2023	02:14	-133.459	47.457	0	185.00	0	6.7530	0	33.8140	0	26.520	0	183.375	0	134.0	4	45.0	4	-1E+10	1	-1E+10	1	-1E+10	1	-1E+10	1	-1E+10	1	-1E+10	1
4902549	90	C	02/08/2023	02:14	-133.459	47.457	0	186.00	0	6.7400	0	33.8170	0	26.524	0	184.365	0	133.5	4	44.8	4	-1E+10	1	-1E+10	1	-1E+10	1	-1E+10	1	-1E+10	1	-1E+10	1
4902549	90	C	02/08/2023	02:14	-133.459	47.457	0	187.00	0	6.7340	0	33.8180	0	26.526	0	185.356	0	132.9	4	44.6	4	-1E+10	1	-1E+10	1	-1E+10	1	-1E+10	1	-1E+10	1	-1E+10	1
4902549	90	C	02/08/2023	02:14	-133.459	47.457	0	187.90	0	6.7310	0	33.8180	0	26.526	0	186.248	0	132.3	4	44.4	4	-1E+10	1	-1E+10	1	-1E+10	1	-1E+10	1	-1E+10	1	-1E+10	1
4902549	90	C	02/08/2023	02:14	-133.459	47.457	0	188.80	0	6.7260	0	33.8190	0	26.528	0	187.139	0	131.7	4	44.2	4	-1E+10	1	-1E+10	1	-1E+10	1	-1E+10	1	-1E+10	1	-1E+10	1
4902549	90	C	02/08/2023	02:14	-133.459	47.457	0	189.80	0	6.7220	0	33.8190	0	26.528	0	188.130	0	131.0	4	44.0	4	-1E+10	1	-1E+10	1	-1E+10	1	-1E+10	1	-1E+10	1	-1E+10	1
4902549	90	C	02/08/2023	02:14	-133.459	47.457	0	190.70	0	6.7090	0	33.8210	0	26.532	0	189.022	0	130.4	4	43.8	4	-1E+10	1	-1E+10	1	-1E+10	1	-1E+10	1	-1E+10	1	-1E+10	1
4902549	90	C	02/08/2023	02:14	-133.459	47.457	0	191.60	0	6.6990	0	33.8220	0	26.534	0	189.914	0	129.8	4	43.5	4	-1E+10	1	-1E+10	1	-1E+10	1	-1E+10	1	-1E+10	1	-1E+10	1
4902549	90	C	02/08/2023	02:14	-133.459	47.457	0	192.60	0	6.6850	0	33.8240	0	26.537	0	190.904	0	129.2	4	43.3	4	-1E+10	1	-1E+10	1	-1E+10	1	-1E+10	1	-1E+10	1	-1E+10	1
4902549	90	C	02/08/2023	02:14	-133.459	47.457	0	193.50	0	6.6770	0	33.8240	0	26.538	0	191.796	0	128.5	4	43.1	4	-1E+10	1	-1E+10	1	-1E+10	1	-1E+10	1	-1E+10	1	-1E+10	1
4902549	90	C	02/08/2023	02:14	-133.459	47.457	0	194.90	0	6.6630	0	33.8230	0	26.540	0	193.183	0	127.4	4	42.7	4	-1E+10	1	-1E+10	1	-1E+10	1	-1E+10	1	-1E+10	1	-1E+10	1
4902549	90	C	02/08/2023	02:14	-133.459	47.457	0	196.40	0	6.6250	0	33.8280	0	26.549	0	194.669	0	126.4	4	42.3	4	-1E+10	1	-1E+10	1	-1E+10	1	-1E+10	1	-1E+10	1	-1E+10	1
4902549	90	C	02/08/2023	02:14	-133.459	47.457	0	197.40	0	6.6000	0	33.8300	0	26.553	0	195.660	0	125.6	4	42.1	4	-1E+10	1	-1E+10	1	-1E+10	1	-1E+10	1	-1E+10	1	-1E+10	1
4902549	90	C	02/08/2023	02:14	-133.459	47.457	0	198.30	0	6.5760	0	33.8300	0	26.557	0	196.551	0	124.8	4	41.8	4	-1E+10	1	-1E+10	1	-1E+10	1	-1E+10	1	-1E+10	1	-1E+10	1
4902549	90	C	02/08/2023	02:14	-133.459	47.457	0	199.30	0	6.5660	0	33.8300	0	26.558	0	197.542	0	123.9	4	41.4	4	-1E+10	1	-1E+10	1	-1E+10	1	-1E+10	1	-1E+10	1	-1E+10	1
4902549	90	C	02/08/2023	02:14	-133.459	47.457	0	200.30	0	6.5520	0	33.8340	0	26.563	0	198.533	0	122.8	4	41.1	4	-1E+10	1	-1E+10	1	-1E+10	1	-1E+10	1	-1E+10	1	-1E+10	1
4902549	90	C	02/08/2023	02:14	-133.459	47.457	0	201.20	0	6.5320	0	33.8370	0	26.568	0	199.424	0	122.1	4	40.8	4	-1E+10	1	-1E+10	1	-1E+10	1	-1E+10	1	-1E+10	1	-1E+10	1
4902549	90	C	02/08/2023	02:14	-133.459	47.457	0	202.20	0	6.5250	0	33.8400	0	26.571	0	200.415	0	121.7	4	40.7	4	-1E+10	1	-1E+10	1	-1E+10	1	-1E+10	1	-1E+10	1	-1E+10	1
4902549	90	C	02/08/2023	02:14	-133.459	47.457	0	203.20	0	6.5210	0	33.8410	0	26.573	0	201.406	0	121.1	4	40.5	4	-1E+10	1	-1E+10	1	-1E+10	1	-1E+10	1	-1E+10	1	-1E+10	1
4902549	90	C	02/08/2023	02:14	-133.459	47.457	0	204.10	0	6.5090	0	33.8440	0	26.576	0	202.297	0	120.7	4	40.3	4	-1E+10	1	-1E+10	1	-1E+10	1	-1E+10	1	-1E+10	1	-1E+10	1
4902549	90	C	02/08/2023	02:14	-133.459	47.457	0	205.10	0	6.4940	0	33.8440	0	26.578	0	203.288	0	120.3	4	40.2	4	-1E+10	1	-1E+10	1	-1E+10	1	-1E+10	1	-1E+10	1	-1E+10	1
4902549	90	C	02/08/2023	02:14	-133.459	47.457	0	206.10	0	6.4900	0	33.8450	0	26.580	0	204.279	0	119.9	4	40.0	4	-1E+10	1	-1E+10	1	-1E+10	1	-1E+10	1	-1E+10	1	-1E+10	1
4902549	90	C	02/08/2023	02:14	-133.459	47.457	0	207.10	0	6.4740	0	33.8450	0	26.582	0	205.269	0	119.4	4	39.9	4	-1E+10	1	-1E+10	1	-1E+10	1	-1E+10	1	-1E+10	1	-1E+10	1
4902549	90	C	02/08/2023	02:14	-133.459	47.457	0	208.00	0	6.4610	0	33.8460	0	26.584	0	206.161	0	118.9	4	39.7	4	-1E+10	1	-1E+10	1	-1E+10	1	-1E+10	1	-1E+10	1	-1E+10	1
4902549	90	C	02/08/2023	02:14	-133.459	47.457	0	209.00	0	6.4500	0	33.8470	0	26.587	0	207.152	0	118.4	4	39.5	4	-1E+10	1	-1E+10	1	-1E+10	1	-1E+10	1	-1E+10	1	-1E+10	1
4902549	90	C	02/08/2023	02:14	-133.459	47.457	0	210.00	0	6.4440	0	33.8470	0	26.587	0	208.142	0	117.8	4	39.3	4	-1E+10	1	-1E+10	1	-1E+10	1	-1E+10	1	-1E+10	1	-1E+10	1
4902549	90	C	02/08/2023	02:14	-133.459	47.457	0	211.00	0	6.4340	0	33.8470	0	26.589	0	209.133	0	117.2	4	39.1	4	-1E+10	1	-1E+10	1	-1E+10	1	-1E+10	1	-1E+10	1	-1E+10	1
4902549	90	C	02/08/2023	02:14	-133.459	47.457	0	212.00	0	6.4180	0	33.8490	0	26.592	0	210.124	0	116.7	4	38.9	4	-1E+10	1	-1E+10	1	-1E+10	1	-1E+10	1	-1E+10	1	-1E+10	1
4902549	90	C	02/08/2023	02:14	-133.459	47.457	0	213.10	0	6.3980	0	33.8510	0	26.597	0	211.213	0	116.1	4	38.7	4	-1E+10	1	-1E+10	1	-1E+10	1	-1E+10	1	-1E+10	1	-1E+10	1
4902549	90	C	02/08/2023	02:14	-133.459	47.457	0	214.10	0	6.3880	0	33.8530	0	26.599	0	212.204	0	115.6	4	38.5	4	-1E+10	1	-1E+10	1	-1E+10	1	-1E+10	1	-1E+10	1	-1E+10	1
4902549	90	C	02/08/2023	02:14	-133.459	47.457	0	215.10	0	6.3710	0	33.8560	0	26.604	0	213.195	0	115.3	4	38.4	4	-1E+10	1	-1E+10	1	-1E+10	1	-1E+10	1	-1E+10	1	-1E+10	1
4902549	90	C	02/08/2023	02:14	-133.459	47.457	0	216.10	0	6.3640	0	33.8540	0	26.603	0	214.185	0	114.9	4	38.3	4	-1E+10	1	-1E+10	1	-1E+10	1	-1E+10	1	-1E+10	1	-1E+10	1
4902549	90	C	02/08/2023	02:14	-133.459	47.457	0	217.10	0	6.3520	0	33.8570	0	26.607	0	215.176	0	114.6	4	38.1	4	-1E+10	1	-1E+10	1	-1E+10	1	-1E+10	1	-1E+10	1	-1E+10	1
4902549	90	C	02/08/2023	02:14	-133.459	47.457	0	218.10	0	6.3470	0	33.8570	0	26.608	0	216.166	0	114.3	4	38.0	4	-1E+10	1	-1E+10	1	-1E+10	1	-1E+10	1	-1E+10	1	-1E+10	1
4902549	90	C	02/08/2023	02:14	-133.459	47.457	0	219.20	0	6.3410	0	33.8580	0	26.609	0	217.256	0	114.0	4	37.9	4	-1E+10	1	-1E+10	1	-1E+10	1	-1E+10	1	-1E+10	1	-1E+10	1
4902549	90	C	02/08/2023	02:14	-133.459	47.457	0	220.20	0	6.3400	0	33.8570	0	26.609	0	218.247	0	113.6	4	37.8	4	-1E+10	1	-1E+10	1	-1E+10	1	-1E+10	1	-1E+10	1	-1E+10	1
4902549	90	C	02/08/2023	02:14	-133.459	47.457	0	221.20	0	6.3390	0	33.8580	0	26.610	0	219.237	0	113.2	4	37.7	4	-1E+10	1	-1E+10	1	-1E+10	1	-1E+10	1	-1E+10	1	-1E+10	1
4902549	90	C	02/08/2023	02:14	-133.459	47.457	0	222.30	0	6.3370	0	33.8570	0	26.609	0	220.327	0	112.7	4	37.5	4	-1E+10	1	-1E+10	1	-1E+10	1	-1E+10	1	-1E+10	1	-1E+10	1
4902549	90	C	02/08/2023	02:14	-133.459	47.457	0	223.30	0	6.3350	0	33.8580	0	26.610	0	221.318	0	112.2	4	37.3	4	-1E+10	1	-1E+10	1	-1E+10	1	-1E+10	1	-1E+10	1	-1E+10	1
4902549	90	C	02/08/2023	02:14	-133.459	47.457	0	224.40	0	6.3280	0	33.8580	0	26.611	0	222.407	0	111.6	4	37.1	4	-1E+10	1	-1E+10	1	-1E+10	1	-1E+10	1	-1E+10	1	-1E+10	1
4902549	90	C	02/08/2023	02:14	-133.459	47.457	0	225.40	0	6.3250	0	33.8580	0	26.612	0	223.398	0	110.9	4	36.9	4	-1E+10	1	-1E+10	1	-1E+10	1	-1E+10	1	-1E+10	1	-1E+10	1
4902549	90	C	02/08/2023	02:14	-133.459	47.457	0	226.40	0	6.3130	0	33.8610	0	26.616	0	224.388	0	110.2	4	36.7	4	-1E+10	1	-1E+10	1	-1E+10	1	-1E+10	1	-1E+10	1	-1E+10	1
4902549	90	C	02/08/2023	02:14	-133.459	47.457	0	227.40	0	6.2910	0	33.8650	0	26.622	0	225.379	0	109.9	4	36.5	4	-1E+10	1	-1E+10	1	-1E+10	1	-1E+10	1	-1E+10	1	-1E+10	1
4902549	90	C	02/08/2023	02:14	-133.459	47.457	0	228.40	0	6.2810	0	33.8640	0	26.622	0	226.369	0	109.5	4	36.4	4	-1E+10	1	-1E+10	1	-1E+10	1	-1E+10	1	-1E+10	1	-1E+10	1
4902549	90	C	02/08/2023	02:14	-133.459	47.457	0	229.90	0	6.2710	0	33.8650	0	26.624	0	227.855	0	108.9	4	36.2	4	-1E+10	1	-1E+10	1	-1E+10	1	-1E+10	1	-1E+10	1	-1E+10	1
4902549	90	C	02/08/2023	02:14	-133.459	47.457	0	231.20	0	6.2650	0	33.8650	0	26.625	0	229.143	0	108.4	4	36.0	4	-1E+10	1	-1E+10	1	-1E+10	1	-1E+10	1	-1E+10	1	-1E+10	1
4902549	90	C	02/08/2023	02:14	-133.459	47.457	0	232.00	0	6.2540	0	33.8670	0	26.628	0	229.935	0	108.0	4	35.9	4	-1E+10	1	-1E+10	1	-1E+10	1	-1E+10	1	-1E+10	1	-1E+10	1
4902549	90	C	02/08/2023	02:14	-133.459	47.457	0	232.80	0	6.2400	0	33.8670	0	26.630	0	230.728	0	107.7	4	35.8	4	-1E+10	1	-1E+10	1	-1E+10	1	-1E+10	1	-1E+10	1	-1E+10	1
4902549	90	C	02/08/2023	02:14	-133.459	47.457	0	234.00	0	6.2390	0	33.8680	0	26.631	0	231.917	0	107.2	4	35.6	4	-1E+10	1	-1E+10	1	-1E+10	1	-1E+10	1	-1E+10	1	-1E+10	1
4902549	90	C	02/08/2023	02:14	-133.459	47.457	0	235.20	0	6.2340	0	33.8690	0	26.632	0	233.105	0	106.6	4	35.4	4	-1E+10	1	-1E+10	1	-1E+10	1	-1E+10	1	-1E+10	1	-1E+10	1
4902549	90	C	02/08/2023	02:14	-133.459	47.457	0	236.00	0	6.2310	0	33.8700	0	26.633	0	233.898	0	106.3	4	35.3	4	-1E+10	1	-1E+10	1	-1E+10	1	-1E+10	1	-1E+10	1	-1E+10	1
4902549	90	C	02/08/2023	02:14	-133.459	47.457	0	236.80	0	6.2280	0	33.8710	0	26.634	0	234.690	0	106.0	4	35.2	4	-1E+10	1	-1E+10	1	-1E+10	1	-1E+10	1	-1E+10	1	-1E+10	1
4902549	90	C	02/08/2023	02:14	-133.459	47.457	0	237.70	0	6.2270	0	33.8710	0	26.635	0	235.582	0	105.7	4	35.1	4	-1E+10	1	-1E+10	1	-1E+10	1	-1E+10	1	-1E+10	1	-1E+10	1
4902549	90	C	02/08/2023	02:14	-133.459	47.457	0	238.90	0	6.2250	0	33.8710	0	26.635	0	236.770	0	105.2	4	34.9	4	-1E+10	1	-1E+10	1	-1E+10	1	-1E+10	1	-1E+10	1	-1E+10	1
4902549	90	C	02/08/2023	02:14	-133.459	47.457	0	240.10	0	6.2210	0	33.8710	0	26.635	0	237.959	0	104.7	4	34.8	4	-1E+10	1	-1E+10	1	-1E+10	1	-1E+10	1	-1E+10	1	-1E+10	1
4902549	90	C	02/08/2023	02:14	-133.459	47.457	0	241.00	0	6.1980	0	33.8710	0	26.638	0	238.850	0	104.4	4	34.6	4	-1E+10	1	-1E+10	1	-1E+10	1	-1E+10	1	-1E+10	1	-1E+10	1
4902549	90	C	02/08/2023	02:14	-133.459	47.457	0	241.80	0	6.1780	0	33.8710	0	26.641	0	239.643	0	104.0	4	34.5	4	-1E+10	1	-1E+10	1	-1E+10	1	-1E+10	1	-1E+10	1	-1E+10	1
4902549	90	C	02/08/2023	02:14	-133.459	47.457	0	242.70	0	6.1770	0	33.8740	0	26.643	0	240.534	0	103.6	4	34.4	4	-1E+10	1	-1E+10	1	-1E+10	1	-1E+10	1	-1E+10	1	-1E+10	1
4902549	90	C	02/08/2023	02:14	-133.459	47.457	0	243.90	0	6.1700	0	33.8750	0	26.645	0	241.723	0	103.1	4	34.2	4	-1E+10	1	-1E+10	1	-1E+10	1	-1E+10	1	-1E+10	1	-1E+10	1
4902549	90	C	02/08/2023	02:14	-133.459	47.457	0	245.20	0	6.1630	0	33.8750	0	26.646	0	243.010	0	102.6	4	34.0	4	-1E+10	1	-1E+10	1	-1E+10	1	-1E+10	1	-1E+10	1	-1E+10	1
4902549	90	C	02/08/2023	02:14	-133.459	47.457	0	246.10	0	6.1570	0	33.8760	0	26.648	0	243.902	0	102.2	4	33.9	4	-1E+10	1	-1E+10	1	-1E+10	1	-1E+10	1	-1E+10	1	-1E+10	1
4902549	90	C	02/08/2023	02:14	-133.459	47.457	0	246.90	0	6.1500	0	33.8760	0	26.648	0	244.694	0	101.8	4	33.7	4	-1E+10	1	-1E+10	1	-1E+10	1	-1E+10	1	-1E+10	1	-1E+10	1
4902549	90	C	02/08/2023	02:14	-133.459	47.457	0	247.80	0	6.1440	0	33.8770	0	26.650	0	245.586	0	101.5	4	33.6	4	-1E+10	1	-1E+10	1	-1E+10	1	-1E+10	1	-1E+10	1	-1E+10	1
4902549	90	C	02/08/2023	02:14	-133.459	47.457	0	248.60	0	6.1450	0	33.8760	0	26.649	0	246.378	0	101.0	4	33.5	4	-1E+10	1	-1E+10	1	-1E+10	1	-1E+10	1	-1E+10	1	-1E+10	1
4902549	90	C	02/08/2023	02:14	-133.459	47.457	0	249.90	0	6.1380	0	33.8770	0	26.651	0	247.665	0	100.5	4	33.3	4	-1E+10	1	-1E+10	1	-1E+10	1	-1E+10	1	-1E+10	1	-1E+10	1
4902549	90	C	02/08/2023	02:14	-133.459	47.457	0	251.20	0	6.1080	0	33.8800	0	26.657	0	248.953	0	100.0	4	33.1	4	-1E+10	1	-1E+10	1	-1E+10	1	-1E+10	1	-1E+10	1	-1E+10	1
4902549	90	C	02/08/2023	02:14	-133.459	47.457	0	252.00	0	6.0980	0	33.8790	0	26.657	0	249.745	0	99.7	4	33.0	4	-1E+10	1	-1E+10	1	-1E+10	1	-1E+10	1	-1E+10	1	-1E+10	1
4902549	90	C	02/08/2023	02:14	-133.459	47.457	0	252.90	0	6.0960	0	33.8790	0	26.658	0	250.637	0	99.4	4	32.9	4	-1E+10	1	-1E+10	1	-1E+10	1	-1E+10	1	-1E+10	1	-1E+10	1
4902549	90	C	02/08/2023	02:14	-133.459	47.457	0	253.70	0	6.0810	0	33.8800	0	26.660	0	251.429	0	99.1	4	32.8	4	-1E+10	1	-1E+10	1	-1E+10	1	-1E+10	1	-1E+10	1	-1E+10	1
4902549	90	C	02/08/2023	02:14	-133.459	47.457	0	254.60	0	6.0780	0	33.8800	0	26.661	0	252.321	0	98.6	4	32.6	4	-1E+10	1	-1E+10	1	-1E+10	1	-1E+10	1	-1E+10	1	-1E+10	1
4902549	90	C	02/08/2023	02:14	-133.459	47.457	0	255.90	0	6.0530	0	33.8800	0	26.664	0	253.608	0	98.1	4	32.4	4	-1E+10	1	-1E+10	1	-1E+10	1	-1E+10	1	-1E+10	1	-1E+10	1
4902549	90	C	02/08/2023	02:14	-133.459	47.457	0	257.20	0	6.0410	0	33.8820	0	26.667	0	254.896	0	97.6	4	32.3	4	-1E+10	1	-1E+10	1	-1E+10	1	-1E+10	1	-1E+10	1	-1E+10	1
4902549	90	C	02/08/2023	02:14	-133.459	47.457	0	258.00	0	6.0250	0	33.8850	0	26.671	0	255.688	0	97.4	4	32.2	4	-1E+10	1	-1E+10	1	-1E+10	1	-1E+10	1	-1E+10	1	-1E+10	1
4902549	90	C	02/08/2023	02:14	-133.459	47.457	0	258.90	0	6.0140	0	33.8840	0	26.672	0	256.579	0	97.2	4	32.1	4	-1E+10	1	-1E+10	1	-1E+10	1	-1E+10	1	-1E+10	1	-1E+10	1
4902549	90	C	02/08/2023	02:14	-133.459	47.457	0	259.70	0	5.9830	0	33.8870	0	26.678	0	257.372	0	97.0	4	32.0	4	-1E+10	1	-1E+10	1	-1E+10	1	-1E+10	1	-1E+10	1	-1E+10	1
4902549	90	C	02/08/2023	02:14	-133.459	47.457	0	261.00	0	5.9710	0	33.8840	0	26.677	0	258.659	0	96.7	4	31.9	4	-1E+10	1	-1E+10	1	-1E+10	1	-1E+10	1	-1E+10	1	-1E+10	1
4902549	90	C	02/08/2023	02:14	-133.459	47.457	0	262.30	0	5.9670	0	33.8840	0	26.678	0	259.947	0	96.2	4	31.8	4	-1E+10	1	-1E+10	1	-1E+10	1	-1E+10	1	-1E+10	1	-1E+10	1
4902549	90	C	02/08/2023	02:14	-133.459	47.457	0	263.10	0	5.9660	0	33.8840	0	26.678	0	260.739	0	95.9	4	31.6	4	-1E+10	1	-1E+10	1	-1E+10	1	-1E+10	1	-1E+10	1	-1E+10	1
4902549	90	C	02/08/2023	02:14	-133.459	47.457	0	264.00	0	5.9640	0	33.8840	0	26.678	0	261.631	0	95.4	4	31.5	4	-1E+10	1	-1E+10	1	-1E+10	1	-1E+10	1	-1E+10	1	-1E+10	1
4902549	90	C	02/08/2023	02:14	-133.459	47.457	0	264.80	0	5.9570	0	33.8850	0	26.680	0	262.423	0	95.0	4	31.4	4	-1E+10	1	-1E+10	1	-1E+10	1	-1E+10	1	-1E+10	1	-1E+10	1
4902549	90	C	02/08/2023	02:14	-133.459	47.457	0	265.70	0	5.9540	0	33.8850	0	26.680	0	263.314	0	94.5	4	31.2	4	-1E+10	1	-1E+10	1	-1E+10	1	-1E+10	1	-1E+10	1	-1E+10	1
4902549	90	C	02/08/2023	02:14	-133.459	47.457	0	266.90	0	5.9480	0	33.8850	0	26.681	0	264.503	0	93.8	4	30.9	4	-1E+10	1	-1E+10	1	-1E+10	1	-1E+10	1	-1E+10	1	-1E+10	1
4902549	90	C	02/08/2023	02:14	-133.459	47.457	0	268.20	0	5.9320	0	33.8870	0	26.685	0	265.790	0	93.0	4	30.7	4	-1E+10	1	-1E+10	1	-1E+10	1	-1E+10	1	-1E+10	1	-1E+10	1
4902549	90	C	02/08/2023	02:14	-133.459	47.457	0	269.10	0	5.9220	0	33.8870	0	26.686	0	266.681	0	92.5	4	30.5	4	-1E+10	1	-1E+10	1	-1E+10	1	-1E+10	1	-1E+10	1	-1E+10	1
4902549	90	C	02/08/2023	02:14	-133.459	47.457	0	270.00	0	5.9180	0	33.8880	0	26.687	0	267.573	0	91.9	4	30.3	4	-1E+10	1	-1E+10	1	-1E+10	1	-1E+10	1	-1E+10	1	-1E+10	1
4902549	90	C	02/08/2023	02:14	-133.459	47.457	0	270.80	0	5.9160	0	33.8880	0	26.687	0	268.365	0	91.4	4	30.1	4	-1E+10	1	-1E+10	1	-1E+10	1	-1E+10	1	-1E+10	1	-1E+10	1
4902549	90	C	02/08/2023	02:14	-133.459	47.457	0	271.70	0	5.9170	0	33.8870	0	26.687	0	269.256	0	90.8	4	29.9	4	-1E+10	1	-1E+10	1	-1E+10	1	-1E+10	1	-1E+10	1	-1E+10	1
4902549	90	C	02/08/2023	02:14	-133.459	47.457	0	272.90	0	5.8930	0	33.8900	0	26.692	0	270.445	0	90.0	4	29.7	4	-1E+10	1	-1E+10	1	-1E+10	1	-1E+10	1	-1E+10	1	-1E+10	1
4902549	90	C	02/08/2023	02:14	-133.459	47.457	0	274.20	0	5.8460	0	33.8940	0	26.701	0	271.732	0	89.6	4	29.5	4	-1E+10	1	-1E+10	1	-1E+10	1	-1E+10	1	-1E+10	1	-1E+10	1
4902549	90	C	02/08/2023	02:14	-133.459	47.457	0	275.00	0	5.8360	0	33.8950	0	26.703	0	272.525	0	89.4	4	29.4	4	-1E+10	1	-1E+10	1	-1E+10	1	-1E+10	1	-1E+10	1	-1E+10	1
4902549	90	C	02/08/2023	02:14	-133.459	47.457	0	275.90	0	5.8230	0	33.8970	0	26.706	0	273.416	0	89.2	4	29.3	4	-1E+10	1	-1E+10	1	-1E+10	1	-1E+10	1	-1E+10	1	-1E+10	1
4902549	90	C	02/08/2023	02:14	-133.459	47.457	0	276.70	0	5.8220	0	33.8960	0	26.705	0	274.208	0	88.9	4	29.2	4	-1E+10	1	-1E+10	1	-1E+10	1	-1E+10	1	-1E+10	1	-1E+10	1
4902549	90	C	02/08/2023	02:14	-133.459	47.457	0	278.00	0	5.8150	0	33.8960	0	26.706	0	275.496	0	88.5	4	29.1	4	-1E+10	1	-1E+10	1	-1E+10	1	-1E+10	1	-1E+10	1	-1E+10	1
4902549	90	C	02/08/2023	02:14	-133.459	47.457	0	279.30	0	5.8080	0	33.8990	0	26.710	0	276.783	0	88.2	4	29.0	4	-1E+10	1	-1E+10	1	-1E+10	1	-1E+10	1	-1E+10	1	-1E+10	1
4902549	90	C	02/08/2023	02:14	-133.459	47.457	0	280.10	0	5.8050	0	33.8990	0	26.710	0	277.575	0	88.0	4	28.9	4	-1E+10	1	-1E+10	1	-1E+10	1	-1E+10	1	-1E+10	1	-1E+10	1
4902549	90	C	02/08/2023	02:14	-133.459	47.457	0	281.00	0	5.8060	0	33.8980	0	26.709	0	278.466	0	87.8	4	28.9	4	-1E+10	1	-1E+10	1	-1E+10	1	-1E+10	1	-1E+10	1	-1E+10	1
4902549	90	C	02/08/2023	02:14	-133.459	47.457	0	281.90	0	5.8050	0	33.8980	0	26.709	0	279.358	0	87.5	4	28.8	4	-1E+10	1	-1E+10	1	-1E+10	1	-1E+10	1	-1E+10	1	-1E+10	1
4902549	90	C	02/08/2023	02:14	-133.459	47.457	0	282.70	0	5.8060	0	33.8980	0	26.709	0	280.150	0	87.2	4	28.7	4	-1E+10	1	-1E+10	1	-1E+10	1	-1E+10	1	-1E+10	1	-1E+10	1
4902549	90	C	02/08/2023	02:14	-133.459	47.457	0	283.60	0	5.7970	0	33.8980	0	26.710	0	281.041	0	86.8	4	28.6	4	-1E+10	1	-1E+10	1	-1E+10	1	-1E+10	1	-1E+10	1	-1E+10	1
4902549	90	C	02/08/2023	02:14	-133.459	47.457	0	284.90	0	5.7950	0	33.8980	0	26.710	0	282.329	0	86.4	4	28.4	4	-1E+10	1	-1E+10	1	-1E+10	1	-1E+10	1	-1E+10	1	-1E+10	1
4902549	90	C	02/08/2023	02:14	-133.459	47.457	0	286.30	0	5.7680	0	33.9010	0	26.716	0	283.715	0	86.1	4	28.3	4	-1E+10	1	-1E+10	1	-1E+10	1	-1E+10	1	-1E+10	1	-1E+10	1
4902549	90	C	02/08/2023	02:14	-133.459	47.457	0	287.20	0	5.7600	0	33.9020	0	26.718	0	284.606	0	85.9	4	28.2	4	-1E+10	1	-1E+10	1	-1E+10	1	-1E+10	1	-1E+10	1	-1E+10	1
4902549	90	C	02/08/2023	02:14	-133.459	47.457	0	288.00	0	5.7580	0	33.9010	0	26.717	0	285.399	0	85.6	4	28.1	4	-1E+10	1	-1E+10	1	-1E+10	1	-1E+10	1	-1E+10	1	-1E+10	1
4902549	90	C	02/08/2023	02:14	-133.459	47.457	0	288.90	0	5.7570	0	33.9020	0	26.718	0	286.290	0	85.3	4	28.0	4	-1E+10	1	-1E+10	1	-1E+10	1	-1E+10	1	-1E+10	1	-1E+10	1
4902549	90	C	02/08/2023	02:14	-133.459	47.457	0	289.80	0	5.7530	0	33.9020	0	26.719	0	287.181	0	85.0	4	27.9	4	-1E+10	1	-1E+10	1	-1E+10	1	-1E+10	1	-1E+10	1	-1E+10	1
4902549	90	C	02/08/2023	02:14	-133.459	47.457	0	290.70	0	5.7510	0	33.9020	0	26.719	0	288.072	0	84.7	4	27.8	4	-1E+10	1	-1E+10	1	-1E+10	1	-1E+10	1	-1E+10	1	-1E+10	1
4902549	90	C	02/08/2023	02:14	-133.459	47.457	0	292.00	0	5.7440	0	33.9020	0	26.720	0	289.360	0	84.2	4	27.6	4	-1E+10	1	-1E+10	1	-1E+10	1	-1E+10	1	-1E+10	1	-1E+10	1
4902549	90	C	02/08/2023	02:14	-133.459	47.457	0	293.30	0	5.7400	0	33.9020	0	26.720	0	290.647	0	83.5	4	27.4	4	-1E+10	1	-1E+10	1	-1E+10	1	-1E+10	1	-1E+10	1	-1E+10	1
4902549	90	C	02/08/2023	02:14	-133.459	47.457	0	294.20	0	5.7330	0	33.9030	0	26.722	0	291.538	0	83.1	4	27.3	4	-1E+10	1	-1E+10	1	-1E+10	1	-1E+10	1	-1E+10	1	-1E+10	1
4902549	90	C	02/08/2023	02:14	-133.459	47.457	0	295.10	0	5.7310	0	33.9030	0	26.722	0	292.429	0	82.7	4	27.1	4	-1E+10	1	-1E+10	1	-1E+10	1	-1E+10	1	-1E+10	1	-1E+10	1
4902549	90	C	02/08/2023	02:14	-133.459	47.457	0	295.90	0	5.7160	0	33.9040	0	26.725	0	293.222	0	82.3	4	27.0	4	-1E+10	1	-1E+10	1	-1E+10	1	-1E+10	1	-1E+10	1	-1E+10	1
4902549	90	C	02/08/2023	02:14	-133.459	47.457	0	296.80	0	5.7150	0	33.9030	0	26.724	0	294.113	0	81.9	4	26.9	4	-1E+10	1	-1E+10	1	-1E+10	1	-1E+10	1	-1E+10	1	-1E+10	1
4902549	90	C	02/08/2023	02:14	-133.459	47.457	0	297.70	0	5.6960	0	33.9040	0	26.727	0	295.004	0	81.5	4	26.7	4	-1E+10	1	-1E+10	1	-1E+10	1	-1E+10	1	-1E+10	1	-1E+10	1
4902549	90	C	02/08/2023	02:14	-133.459	47.457	0	298.90	0	5.6830	0	33.9060	0	26.731	0	296.192	0	80.9	4	26.5	4	-1E+10	1	-1E+10	1	-1E+10	1	-1E+10	1	-1E+10	1	-1E+10	1
4902549	90	C	02/08/2023	02:14	-133.459	47.457	0	300.30	0	5.6640	0	33.9080	0	26.734	0	297.579	0	80.4	4	26.4	4	-1E+10	1	-1E+10	1	-1E+10	1	-1E+10	1	-1E+10	1	-1E+10	1
4902549	90	C	02/08/2023	02:14	-133.459	47.457	0	301.20	0	5.6580	0	33.9080	0	26.735	0	298.470	0	80.1	4	26.3	4	-1E+10	1	-1E+10	1	-1E+10	1	-1E+10	1	-1E+10	1	-1E+10	1
4902549	90	C	02/08/2023	02:14	-133.459	47.457	0	302.10	0	5.6490	0	33.9090	0	26.737	0	299.361	0	79.8	4	26.1	4	-1E+10	1	-1E+10	1	-1E+10	1	-1E+10	1	-1E+10	1	-1E+10	1
4902549	90	C	02/08/2023	02:14	-133.459	47.457	0	303.00	0	5.6430	0	33.9090	0	26.738	0	300.252	0	79.4	4	26.0	4	-1E+10	1	-1E+10	1	-1E+10	1	-1E+10	1	-1E+10	1	-1E+10	1
4902549	90	C	02/08/2023	02:14	-133.459	47.457	0	303.90	0	5.6350	0	33.9090	0	26.739	0	301.143	0	79.1	4	25.9	4	-1E+10	1	-1E+10	1	-1E+10	1	-1E+10	1	-1E+10	1	-1E+10	1
4902549	90	C	02/08/2023	02:14	-133.459	47.457	0	304.80	0	5.6270	0	33.9110	0	26.741	0	302.035	0	78.8	4	25.8	4	-1E+10	1	-1E+10	1	-1E+10	1	-1E+10	1	-1E+10	1	-1E+10	1
4902549	90	C	02/08/2023	02:14	-133.459	47.457	0	305.70	0	5.6180	0	33.9130	0	26.744	0	302.926	0	78.4	4	25.7	4	-1E+10	1	-1E+10	1	-1E+10	1	-1E+10	1	-1E+10	1	-1E+10	1
4902549	90	C	02/08/2023	02:14	-133.459	47.457	0	307.00	0	5.6140	0	33.9110	0	26.743	0	304.213	0	77.9	4	25.5	4	-1E+10	1	-1E+10	1	-1E+10	1	-1E+10	1	-1E+10	1	-1E+10	1
4902549	90	C	02/08/2023	02:14	-133.459	47.457	0	308.30	0	5.6060	0	33.9120	0	26.745	0	305.500	0	77.4	4	25.3	4	-1E+10	1	-1E+10	1	-1E+10	1	-1E+10	1	-1E+10	1	-1E+10	1
4902549	90	C	02/08/2023	02:14	-133.459	47.457	0	309.30	0	5.5980	0	33.9140	0	26.747	0	306.490	0	77.1	4	25.2	4	-1E+10	1	-1E+10	1	-1E+10	1	-1E+10	1	-1E+10	1	-1E+10	1
4902549	90	C	02/08/2023	02:14	-133.459	47.457	0	310.20	0	5.5960	0	33.9140	0	26.748	0	307.382	0	76.8	4	25.1	4	-1E+10	1	-1E+10	1	-1E+10	1	-1E+10	1	-1E+10	1	-1E+10	1
4902549	90	C	02/08/2023	02:14	-133.459	47.457	0	311.10	0	5.5950	0	33.9130	0	26.747	0	308.273	0	76.4	4	25.0	4	-1E+10	1	-1E+10	1	-1E+10	1	-1E+10	1	-1E+10	1	-1E+10	1
4902549	90	C	02/08/2023	02:14	-133.459	47.457	0	312.00	0	5.5910	0	33.9130	0	26.747	0	309.164	0	76.0	4	24.9	4	-1E+10	1	-1E+10	1	-1E+10	1	-1E+10	1	-1E+10	1	-1E+10	1
4902549	90	C	02/08/2023	02:14	-133.459	47.457	0	312.90	0	5.5700	0	33.9160	0	26.752	0	310.055	0	75.7	4	24.8	4	-1E+10	1	-1E+10	1	-1E+10	1	-1E+10	1	-1E+10	1	-1E+10	1
4902549	90	C	02/08/2023	02:14	-133.459	47.457	0	313.80	0	5.5500	0	33.9170	0	26.755	0	310.946	0	75.4	4	24.7	4	-1E+10	1	-1E+10	1	-1E+10	1	-1E+10	1	-1E+10	1	-1E+10	1
4902549	90	C	02/08/2023	02:14	-133.459	47.457	0	314.70	0	5.5410	0	33.9170	0	26.757	0	311.837	0	75.3	4	24.6	4	-1E+10	1	-1E+10	1	-1E+10	1	-1E+10	1	-1E+10	1	-1E+10	1
4902549	90	C	02/08/2023	02:14	-133.459	47.457	0	315.60	0	5.5400	0	33.9170	0	26.757	0	312.728	0	75.0	4	24.5	4	-1E+10	1	-1E+10	1	-1E+10	1	-1E+10	1	-1E+10	1	-1E+10	1
4902549	90	C	02/08/2023	02:14	-133.459	47.457	0	316.90	0	5.5340	0	33.9170	0	26.757	0	314.016	0	74.6	4	24.4	4	-1E+10	1	-1E+10	1	-1E+10	1	-1E+10	1	-1E+10	1	-1E+10	1
4902549	90	C	02/08/2023	02:14	-133.459	47.457	0	318.30	0	5.5270	0	33.9170	0	26.758	0	315.402	0	74.2	4	24.2	4	-1E+10	1	-1E+10	1	-1E+10	1	-1E+10	1	-1E+10	1	-1E+10	1
4902549	90	C	02/08/2023	02:14	-133.459	47.457	0	319.20	0	5.5250	0	33.9170	0	26.758	0	316.293	0	73.8	4	24.1	4	-1E+10	1	-1E+10	1	-1E+10	1	-1E+10	1	-1E+10	1	-1E+10	1
4902549	90	C	02/08/2023	02:14	-133.459	47.457	0	320.10	0	5.5190	0	33.9190	0	26.761	0	317.184	0	73.5	4	24.0	4	-1E+10	1	-1E+10	1	-1E+10	1	-1E+10	1	-1E+10	1	-1E+10	1
4902549	90	C	02/08/2023	02:14	-133.459	47.457	0	321.00	0	5.5130	0	33.9190	0	26.762	0	318.075	0	73.1	4	23.9	4	-1E+10	1	-1E+10	1	-1E+10	1	-1E+10	1	-1E+10	1	-1E+10	1
4902549	90	C	02/08/2023	02:14	-133.459	47.457	0	321.90	0	5.5040	0	33.9190	0	26.763	0	318.966	0	72.8	4	23.8	4	-1E+10	1	-1E+10	1	-1E+10	1	-1E+10	1	-1E+10	1	-1E+10	1
4902549	90	C	02/08/2023	02:14	-133.459	47.457	0	322.80	0	5.4850	0	33.9200	0	26.766	0	319.857	0	72.5	4	23.7	4	-1E+10	1	-1E+10	1	-1E+10	1	-1E+10	1	-1E+10	1	-1E+10	1
4902549	90	C	02/08/2023	02:14	-133.459	47.457	0	323.70	0	5.4770	0	33.9210	0	26.767	0	320.748	0	72.2	4	23.6	4	-1E+10	1	-1E+10	1	-1E+10	1	-1E+10	1	-1E+10	1	-1E+10	1
4902549	90	C	02/08/2023	02:14	-133.459	47.457	0	324.60	0	5.4720	0	33.9210	0	26.768	0	321.640	0	71.9	4	23.5	4	-1E+10	1	-1E+10	1	-1E+10	1	-1E+10	1	-1E+10	1	-1E+10	1
4902549	90	C	02/08/2023	02:14	-133.459	47.457	0	325.90	0	5.4620	0	33.9220	0	26.770	0	322.927	0	71.5	4	23.3	4	-1E+10	1	-1E+10	1	-1E+10	1	-1E+10	1	-1E+10	1	-1E+10	1
4902549	90	C	02/08/2023	02:14	-133.459	47.457	0	327.30	0	5.4540	0	33.9230	0	26.772	0	324.313	0	70.9	4	23.1	4	-1E+10	1	-1E+10	1	-1E+10	1	-1E+10	1	-1E+10	1	-1E+10	1
4902549	90	C	02/08/2023	02:14	-133.459	47.457	0	328.20	0	5.4440	0	33.9240	0	26.774	0	325.204	0	70.6	4	23.0	4	-1E+10	1	-1E+10	1	-1E+10	1	-1E+10	1	-1E+10	1	-1E+10	1
4902549	90	C	02/08/2023	02:14	-133.459	47.457	0	329.10	0	5.4410	0	33.9260	0	26.776	0	326.095	0	70.4	4	23.0	4	-1E+10	1	-1E+10	1	-1E+10	1	-1E+10	1	-1E+10	1	-1E+10	1
4902549	90	C	02/08/2023	02:14	-133.459	47.457	0	330.00	0	5.4380	0	33.9260	0	26.776	0	326.986	0	70.1	4	22.9	4	-1E+10	1	-1E+10	1	-1E+10	1	-1E+10	1	-1E+10	1	-1E+10	1
4902549	90	C	02/08/2023	02:14	-133.459	47.457	0	330.90	0	5.4320	0	33.9260	0	26.777	0	327.877	0	69.8	4	22.8	4	-1E+10	1	-1E+10	1	-1E+10	1	-1E+10	1	-1E+10	1	-1E+10	1
4902549	90	C	02/08/2023	02:14	-133.459	47.457	0	331.80	0	5.4270	0	33.9270	0	26.778	0	328.768	0	69.6	4	22.7	4	-1E+10	1	-1E+10	1	-1E+10	1	-1E+10	1	-1E+10	1	-1E+10	1
4902549	90	C	02/08/2023	02:14	-133.459	47.457	0	332.80	0	5.4250	0	33.9270	0	26.778	0	329.758	0	69.3	4	22.6	4	-1E+10	1	-1E+10	1	-1E+10	1	-1E+10	1	-1E+10	1	-1E+10	1
4902549	90	C	02/08/2023	02:14	-133.459	47.457	0	333.60	0	5.4210	0	33.9270	0	26.779	0	330.550	0	68.9	4	22.5	4	-1E+10	1	-1E+10	1	-1E+10	1	-1E+10	1	-1E+10	1	-1E+10	1
4902549	90	C	02/08/2023	02:14	-133.459	47.457	0	334.90	0	5.4160	0	33.9280	0	26.780	0	331.837	0	68.5	4	22.3	4	-1E+10	1	-1E+10	1	-1E+10	1	-1E+10	1	-1E+10	1	-1E+10	1
4902549	90	C	02/08/2023	02:14	-133.459	47.457	0	336.30	0	5.4150	0	33.9290	0	26.781	0	333.223	0	68.0	4	22.2	4	-1E+10	1	-1E+10	1	-1E+10	1	-1E+10	1	-1E+10	1	-1E+10	1
4902549	90	C	02/08/2023	02:14	-133.459	47.457	0	337.20	0	5.4130	0	33.9290	0	26.781	0	334.114	0	67.6	4	22.0	4	-1E+10	1	-1E+10	1	-1E+10	1	-1E+10	1	-1E+10	1	-1E+10	1
4902549	90	C	02/08/2023	02:14	-133.459	47.457	0	338.10	0	5.4090	0	33.9300	0	26.783	0	335.006	0	67.3	4	21.9	4	-1E+10	1	-1E+10	1	-1E+10	1	-1E+10	1	-1E+10	1	-1E+10	1
4902549	90	C	02/08/2023	02:14	-133.459	47.457	0	339.00	0	5.4050	0	33.9300	0	26.783	0	335.897	0	66.9	4	21.8	4	-1E+10	1	-1E+10	1	-1E+10	1	-1E+10	1	-1E+10	1	-1E+10	1
4902549	90	C	02/08/2023	02:14	-133.459	47.457	0	339.90	0	5.3950	0	33.9320	0	26.786	0	336.788	0	66.6	4	21.7	4	-1E+10	1	-1E+10	1	-1E+10	1	-1E+10	1	-1E+10	1	-1E+10	1
4902549	90	C	02/08/2023	02:14	-133.459	47.457	0	340.80	0	5.3920	0	33.9320	0	26.786	0	337.679	0	66.3	4	21.6	4	-1E+10	1	-1E+10	1	-1E+10	1	-1E+10	1	-1E+10	1	-1E+10	1
4902549	90	C	02/08/2023	02:14	-133.459	47.457	0	341.70	0	5.3790	0	33.9340	0	26.789	0	338.570	0	66.0	4	21.5	4	-1E+10	1	-1E+10	1	-1E+10	1	-1E+10	1	-1E+10	1	-1E+10	1
4902549	90	C	02/08/2023	02:14	-133.459	47.457	0	342.60	0	5.3660	0	33.9340	0	26.791	0	339.461	0	65.7	4	21.4	4	-1E+10	1	-1E+10	1	-1E+10	1	-1E+10	1	-1E+10	1	-1E+10	1
4902549	90	C	02/08/2023	02:14	-133.459	47.457	0	343.90	0	5.3630	0	33.9340	0	26.791	0	340.748	0	65.2	4	21.2	4	-1E+10	1	-1E+10	1	-1E+10	1	-1E+10	1	-1E+10	1	-1E+10	1
4902549	90	C	02/08/2023	02:14	-133.459	47.457	0	345.30	0	5.3560	0	33.9360	0	26.794	0	342.134	0	64.7	4	21.1	4	-1E+10	1	-1E+10	1	-1E+10	1	-1E+10	1	-1E+10	1	-1E+10	1
4902549	90	C	02/08/2023	02:14	-133.459	47.457	0	346.20	0	5.3540	0	33.9360	0	26.794	0	343.025	0	64.4	4	21.0	4	-1E+10	1	-1E+10	1	-1E+10	1	-1E+10	1	-1E+10	1	-1E+10	1
4902549	90	C	02/08/2023	02:14	-133.459	47.457	0	347.10	0	5.3540	0	33.9360	0	26.794	0	343.916	0	64.0	4	20.8	4	-1E+10	1	-1E+10	1	-1E+10	1	-1E+10	1	-1E+10	1	-1E+10	1
4902549	90	C	02/08/2023	02:14	-133.459	47.457	0	348.10	0	5.3530	0	33.9360	0	26.794	0	344.906	0	63.5	4	20.7	4	-1E+10	1	-1E+10	1	-1E+10	1	-1E+10	1	-1E+10	1	-1E+10	1
4902549	90	C	02/08/2023	02:14	-133.459	47.457	0	349.00	0	5.3400	0	33.9380	0	26.797	0	345.797	0	63.2	4	20.6	4	-1E+10	1	-1E+10	1	-1E+10	1	-1E+10	1	-1E+10	1	-1E+10	1
4902549	90	C	02/08/2023	02:14	-133.459	47.457	0	349.90	0	5.3310	0	33.9380	0	26.798	0	346.688	0	62.7	4	20.4	4	-1E+10	1	-1E+10	1	-1E+10	1	-1E+10	1	-1E+10	1	-1E+10	1
4902549	90	C	02/08/2023	02:14	-133.459	47.457	0	353.00	0	5.3110	0	33.9410	0	26.803	0	349.757	0	61.5	4	20.0	4	-1E+10	1	-1E+10	1	-1E+10	1	-1E+10	1	-1E+10	1	-1E+10	1
4902549	90	C	02/08/2023	02:14	-133.459	47.457	0	358.20	0	5.2570	0	33.9460	0	26.813	0	354.904	0	59.4	4	19.3	4	-1E+10	1	-1E+10	1	-1E+10	1	-1E+10	1	-1E+10	1	-1E+10	1
4902549	90	C	02/08/2023	02:14	-133.459	47.457	0	363.00	0	5.2250	0	33.9520	0	26.822	0	359.656	0	57.7	4	18.7	4	-1E+10	1	-1E+10	1	-1E+10	1	-1E+10	1	-1E+10	1	-1E+10	1
4902549	90	C	02/08/2023	02:14	-133.459	47.457	0	367.80	0	5.1870	0	33.9570	0	26.830	0	364.408	0	56.5	4	18.3	4	-1E+10	1	-1E+10	1	-1E+10	1	-1E+10	1	-1E+10	1	-1E+10	1
4902549	90	C	02/08/2023	02:14	-133.459	47.457	0	372.80	0	5.1490	0	33.9590	0	26.836	0	369.357	0	55.5	4	18.0	4	-1E+10	1	-1E+10	1	-1E+10	1	-1E+10	1	-1E+10	1	-1E+10	1
4902549	90	C	02/08/2023	02:14	-133.459	47.457	0	377.70	0	5.1320	0	33.9620	0	26.841	0	374.207	0	54.3	4	17.6	4	-1E+10	1	-1E+10	1	-1E+10	1	-1E+10	1	-1E+10	1	-1E+10	1
4902549	90	C	02/08/2023	02:14	-133.459	47.457	0	382.60	0	5.1110	0	33.9640	0	26.845	0	379.058	0	53.1	4	17.2	4	-1E+10	1	-1E+10	1	-1E+10	1	-1E+10	1	-1E+10	1	-1E+10	1
4902549	90	C	02/08/2023	02:14	-133.459	47.457	0	387.60	0	5.0880	0	33.9680	0	26.851	0	384.007	0	51.6	4	16.7	4	-1E+10	1	-1E+10	1	-1E+10	1	-1E+10	1	-1E+10	1	-1E+10	1
4902549	90	C	02/08/2023	02:14	-133.459	47.457	0	392.60	0	5.0590	0	33.9720	0	26.857	0	388.956	0	50.1	4	16.2	4	-1E+10	1	-1E+10	1	-1E+10	1	-1E+10	1	-1E+10	1	-1E+10	1
4902549	90	C	02/08/2023	02:14	-133.459	47.457	0	397.70	0	5.0060	0	33.9780	0	26.868	0	394.003	0	48.6	4	15.7	4	-1E+10	1	-1E+10	1	-1E+10	1	-1E+10	1	-1E+10	1	-1E+10	1
4902549	90	C	02/08/2023	02:14	-133.459	47.457	0	402.90	0	4.9720	0	33.9800	0	26.873	0	399.150	0	46.9	4	15.1	4	-1E+10	1	-1E+10	1	-1E+10	1	-1E+10	1	-1E+10	1	-1E+10	1
4902549	90	C	02/08/2023	02:14	-133.459	47.457	0	408.20	0	4.9290	0	33.9900	0	26.886	0	404.396	0	44.9	4	14.5	4	-1E+10	1	-1E+10	1	-1E+10	1	-1E+10	1	-1E+10	1	-1E+10	1
4902549	90	C	02/08/2023	02:14	-133.459	47.457	0	412.90	0	4.9000	0	33.9970	0	26.895	0	409.047	0	43.9	4	14.1	4	-1E+10	1	-1E+10	1	-1E+10	1	-1E+10	1	-1E+10	1	-1E+10	1
4902549	90	C	02/08/2023	02:14	-133.459	47.457	0	417.60	0	4.8880	0	34.0000	0	26.899	0	413.699	0	43.1	4	13.9	4	-1E+10	1	-1E+10	1	-1E+10	1	-1E+10	1	-1E+10	1	-1E+10	1
4902549	90	C	02/08/2023	02:14	-133.459	47.457	0	422.90	0	4.8730	0	34.0030	0	26.903	0	418.944	0	42.0	4	13.5	4	-1E+10	1	-1E+10	1	-1E+10	1	-1E+10	1	-1E+10	1	-1E+10	1
4902549	90	C	02/08/2023	02:14	-133.459	47.457	0	428.20	0	4.8610	0	34.0070	0	26.908	0	424.189	0	40.8	4	13.1	4	-1E+10	1	-1E+10	1	-1E+10	1	-1E+10	1	-1E+10	1	-1E+10	1
4902549	90	C	02/08/2023	02:14	-133.459	47.457	0	433.10	0	4.8450	0	34.0110	0	26.913	0	429.038	0	39.9	4	12.8	4	-1E+10	1	-1E+10	1	-1E+10	1	-1E+10	1	-1E+10	1	-1E+10	1
4902549	90	C	02/08/2023	02:14	-133.459	47.457	0	438.10	0	4.8220	0	34.0150	0	26.918	0	433.986	0	38.9	4	12.5	4	-1E+10	1	-1E+10	1	-1E+10	1	-1E+10	1	-1E+10	1	-1E+10	1
4902549	90	C	02/08/2023	02:14	-133.459	47.457	0	443.10	0	4.8080	0	34.0190	0	26.923	0	438.933	0	38.0	4	12.2	4	-1E+10	1	-1E+10	1	-1E+10	1	-1E+10	1	-1E+10	1	-1E+10	1
4902549	90	C	02/08/2023	02:14	-133.459	47.457	0	448.20	0	4.7980	0	34.0220	0	26.927	0	443.980	0	37.0	4	11.9	4	-1E+10	1	-1E+10	1	-1E+10	1	-1E+10	1	-1E+10	1	-1E+10	1
4902549	90	C	02/08/2023	02:14	-133.459	47.457	0	452.90	0	4.7810	0	34.0260	0	26.932	0	448.631	0	35.8	4	11.5	4	-1E+10	1	-1E+10	1	-1E+10	1	-1E+10	1	-1E+10	1	-1E+10	1
4902549	90	C	02/08/2023	02:14	-133.459	47.457	0	457.60	0	4.7660	0	34.0300	0	26.937	0	453.281	0	34.5	4	11.1	4	-1E+10	1	-1E+10	1	-1E+10	1	-1E+10	1	-1E+10	1	-1E+10	1
4902549	90	C	02/08/2023	02:14	-133.459	47.457	0	462.80	0	4.7330	0	34.0360	0	26.945	0	458.426	0	32.9	4	10.6	4	-1E+10	1	-1E+10	1	-1E+10	1	-1E+10	1	-1E+10	1	-1E+10	1
4902549	90	C	02/08/2023	02:14	-133.459	47.457	0	467.90	0	4.7120	0	34.0430	0	26.953	0	463.473	0	31.6	4	10.1	4	-1E+10	1	-1E+10	1	-1E+10	1	-1E+10	1	-1E+10	1	-1E+10	1
4902549	90	C	02/08/2023	02:14	-133.459	47.457	0	473.10	0	4.6900	0	34.0500	0	26.961	0	468.617	0	30.5	4	9.8	4	-1E+10	1	-1E+10	1	-1E+10	1	-1E+10	1	-1E+10	1	-1E+10	1
4902549	90	C	02/08/2023	02:14	-133.459	47.457	0	477.90	0	4.6760	0	34.0530	0	26.965	0	473.367	0	29.6	4	9.5	4	-1E+10	1	-1E+10	1	-1E+10	1	-1E+10	1	-1E+10	1	-1E+10	1
4902549	90	C	02/08/2023	02:14	-133.459	47.457	0	482.70	0	4.6610	0	34.0570	0	26.970	0	478.115	0	28.5	4	9.1	4	-1E+10	1	-1E+10	1	-1E+10	1	-1E+10	1	-1E+10	1	-1E+10	1
4902549	90	C	02/08/2023	02:14	-133.459	47.457	0	487.90	0	4.6410	0	34.0620	0	26.976	0	483.260	0	27.5	4	8.8	4	-1E+10	1	-1E+10	1	-1E+10	1	-1E+10	1	-1E+10	1	-1E+10	1
4902549	90	C	02/08/2023	02:14	-133.459	47.457	0	493.20	0	4.6140	0	34.0680	0	26.984	0	488.503	0	26.4	4	8.5	4	-1E+10	1	-1E+10	1	-1E+10	1	-1E+10	1	-1E+10	1	-1E+10	1
4902549	90	C	02/08/2023	02:14	-133.459	47.457	0	498.10	0	4.5890	0	34.0730	0	26.991	0	493.351	0	25.5	4	8.2	4	-1E+10	1	-1E+10	1	-1E+10	1	-1E+10	1	-1E+10	1	-1E+10	1
4902549	90	C	02/08/2023	02:14	-133.459	47.457	0	503.00	0	4.5710	0	34.0770	0	26.996	0	498.198	0	24.8	4	7.9	4	-1E+10	1	-1E+10	1	-1E+10	1	-1E+10	1	-1E+10	1	-1E+10	1
4902549	90	C	02/08/2023	02:14	-133.459	47.457	0	508.00	0	4.5580	0	34.0810	0	27.000	0	503.145	0	24.2	4	7.7	4	-1E+10	1	-1E+10	1	-1E+10	1	-1E+10	1	-1E+10	1	-1E+10	1
4902549	90	C	02/08/2023	02:14	-133.459	47.457	0	512.90	0	4.5500	0	34.0850	0	27.004	0	507.992	0	23.6	4	7.5	4	-1E+10	1	-1E+10	1	-1E+10	1	-1E+10	1	-1E+10	1	-1E+10	1
4902549	90	C	02/08/2023	02:14	-133.459	47.457	0	517.90	0	4.5370	0	34.0880	0	27.008	0	512.938	0	22.9	4	7.3	4	-1E+10	1	-1E+10	1	-1E+10	1	-1E+10	1	-1E+10	1	-1E+10	1
4902549	90	C	02/08/2023	02:14	-133.459	47.457	0	523.00	0	4.5230	0	34.0920	0	27.013	0	517.983	0	22.3	4	7.1	4	-1E+10	1	-1E+10	1	-1E+10	1	-1E+10	1	-1E+10	1	-1E+10	1
4902549	90	C	02/08/2023	02:14	-133.459	47.457	0	528.10	0	4.5060	0	34.0970	0	27.019	0	523.027	0	21.7	4	6.9	4	-1E+10	1	-1E+10	1	-1E+10	1	-1E+10	1	-1E+10	1	-1E+10	1
4902549	90	C	02/08/2023	02:14	-133.459	47.457	0	532.80	0	4.4960	0	34.0990	0	27.022	0	527.676	0	21.4	4	6.8	4	-1E+10	1	-1E+10	1	-1E+10	1	-1E+10	1	-1E+10	1	-1E+10	1
4902549	90	C	02/08/2023	02:14	-133.459	47.457	0	537.60	0	4.4940	0	34.1010	0	27.023	0	532.424	0	20.9	4	6.7	4	-1E+10	1	-1E+10	1	-1E+10	1	-1E+10	1	-1E+10	1	-1E+10	1
4902549	90	C	02/08/2023	02:14	-133.459	47.457	0	542.90	0	4.4830	0	34.1040	0	27.027	0	537.666	0	20.2	4	6.4	4	-1E+10	1	-1E+10	1	-1E+10	1	-1E+10	1	-1E+10	1	-1E+10	1
4902549	90	C	02/08/2023	02:14	-133.459	47.457	0	548.40	0	4.4640	0	34.1080	0	27.032	0	543.106	0	19.4	4	6.2	4	-1E+10	1	-1E+10	1	-1E+10	1	-1E+10	1	-1E+10	1	-1E+10	1
4902549	90	C	02/08/2023	02:14	-133.459	47.457	0	553.30	0	4.4470	0	34.1140	0	27.039	0	547.952	0	18.8	4	6.0	4	-1E+10	1	-1E+10	1	-1E+10	1	-1E+10	1	-1E+10	1	-1E+10	1
4902549	90	C	02/08/2023	02:14	-133.459	47.457	0	557.90	0	4.4420	0	34.1160	0	27.041	0	552.501	0	18.3	4	5.8	4	-1E+10	1	-1E+10	1	-1E+10	1	-1E+10	1	-1E+10	1	-1E+10	1
4902549	90	C	02/08/2023	02:14	-133.459	47.457	0	562.50	0	4.4300	0	34.1200	0	27.046	0	557.051	0	17.6	4	5.6	4	-1E+10	1	-1E+10	1	-1E+10	1	-1E+10	1	-1E+10	1	-1E+10	1
4902549	90	C	02/08/2023	02:14	-133.459	47.457	0	567.70	0	4.4100	0	34.1250	0	27.052	0	562.193	0	16.9	4	5.4	4	-1E+10	1	-1E+10	1	-1E+10	1	-1E+10	1	-1E+10	1	-1E+10	1
4902549	90	C	02/08/2023	02:14	-133.459	47.457	0	572.90	0	4.3920	0	34.1310	0	27.058	0	567.336	0	16.4	4	5.2	4	-1E+10	1	-1E+10	1	-1E+10	1	-1E+10	1	-1E+10	1	-1E+10	1
4902549	90	C	02/08/2023	02:14	-133.459	47.457	0	578.10	0	4.3830	0	34.1340	0	27.062	0	572.478	0	16.0	4	5.1	4	-1E+10	1	-1E+10	1	-1E+10	1	-1E+10	1	-1E+10	1	-1E+10	1
4902549	90	C	02/08/2023	02:14	-133.459	47.457	0	582.90	0	4.3660	0	34.1380	0	27.067	0	577.225	0	15.6	4	5.0	4	-1E+10	1	-1E+10	1	-1E+10	1	-1E+10	1	-1E+10	1	-1E+10	1
4902549	90	C	02/08/2023	02:14	-133.459	47.457	0	587.60	0	4.3580	0	34.1410	0	27.070	0	581.872	0	15.3	4	4.9	4	-1E+10	1	-1E+10	1	-1E+10	1	-1E+10	1	-1E+10	1	-1E+10	1
4902549	90	C	02/08/2023	02:14	-133.459	47.457	0	592.90	0	4.3450	0	34.1430	0	27.073	0	587.113	0	14.8	4	4.7	4	-1E+10	1	-1E+10	1	-1E+10	1	-1E+10	1	-1E+10	1	-1E+10	1
4902549	90	C	02/08/2023	02:14	-133.459	47.457	0	598.10	0	4.3280	0	34.1480	0	27.079	0	592.255	0	14.4	4	4.6	4	-1E+10	1	-1E+10	1	-1E+10	1	-1E+10	1	-1E+10	1	-1E+10	1
4902549	90	C	02/08/2023	02:14	-133.459	47.457	0	602.80	0	4.3190	0	34.1510	0	27.082	0	596.902	0	14.2	4	4.5	4	-1E+10	1	-1E+10	1	-1E+10	1	-1E+10	1	-1E+10	1	-1E+10	1
4902549	90	C	02/08/2023	02:14	-133.459	47.457	0	607.50	0	4.3130	0	34.1520	0	27.084	0	601.550	0	13.8	4	4.4	4	-1E+10	1	-1E+10	1	-1E+10	1	-1E+10	1	-1E+10	1	-1E+10	1
4902549	90	C	02/08/2023	02:14	-133.459	47.457	0	612.70	0	4.2950	0	34.1580	0	27.090	0	606.691	0	13.4	4	4.2	4	-1E+10	1	-1E+10	1	-1E+10	1	-1E+10	1	-1E+10	1	-1E+10	1
4902549	90	C	02/08/2023	02:14	-133.459	47.457	0	617.90	0	4.2820	0	34.1610	0	27.094	0	611.833	0	13.0	4	4.1	4	-1E+10	1	-1E+10	1	-1E+10	1	-1E+10	1	-1E+10	1	-1E+10	1
4902549	90	C	02/08/2023	02:14	-133.459	47.457	0	623.20	0	4.2690	0	34.1650	0	27.099	0	617.073	0	12.5	4	4.0	4	-1E+10	1	-1E+10	1	-1E+10	1	-1E+10	1	-1E+10	1	-1E+10	1
4902549	90	C	02/08/2023	02:14	-133.459	47.457	0	627.90	0	4.2630	0	34.1690	0	27.103	0	621.719	0	12.1	4	3.8	4	-1E+10	1	-1E+10	1	-1E+10	1	-1E+10	1	-1E+10	1	-1E+10	1
4902549	90	C	02/08/2023	02:14	-133.459	47.457	0	632.60	0	4.2530	0	34.1730	0	27.107	0	626.366	0	11.7	4	3.7	4	-1E+10	1	-1E+10	1	-1E+10	1	-1E+10	1	-1E+10	1	-1E+10	1
4902549	90	C	02/08/2023	02:14	-133.459	47.457	0	637.80	0	4.2360	0	34.1760	0	27.111	0	631.507	0	11.4	4	3.6	4	-1E+10	1	-1E+10	1	-1E+10	1	-1E+10	1	-1E+10	1	-1E+10	1
4902549	90	C	02/08/2023	02:14	-133.459	47.457	0	643.10	0	4.2110	0	34.1810	0	27.118	0	636.747	0	11.1	4	3.5	4	-1E+10	1	-1E+10	1	-1E+10	1	-1E+10	1	-1E+10	1	-1E+10	1
4902549	90	C	02/08/2023	02:14	-133.459	47.457	0	647.80	0	4.2020	0	34.1840	0	27.121	0	641.393	0	10.9	4	3.5	4	-1E+10	1	-1E+10	1	-1E+10	1	-1E+10	1	-1E+10	1	-1E+10	1
4902549	90	C	02/08/2023	02:14	-133.459	47.457	0	652.90	0	4.1900	0	34.1870	0	27.125	0	646.435	0	10.5	4	3.3	4	-1E+10	1	-1E+10	1	-1E+10	1	-1E+10	1	-1E+10	1	-1E+10	1
4902549	90	C	02/08/2023	02:14	-133.459	47.457	0	658.00	0	4.1760	0	34.1920	0	27.130	0	651.476	0	10.2	4	3.2	4	-1E+10	1	-1E+10	1	-1E+10	1	-1E+10	1	-1E+10	1	-1E+10	1
4902549	90	C	02/08/2023	02:14	-133.459	47.457	0	663.00	0	4.1690	0	34.1960	0	27.134	0	656.419	0	9.9	4	3.1	4	-1E+10	1	-1E+10	1	-1E+10	1	-1E+10	1	-1E+10	1	-1E+10	1
4902549	90	C	02/08/2023	02:14	-133.459	47.457	0	668.00	0	4.1590	0	34.2000	0	27.139	0	661.361	0	9.6	4	3.0	4	-1E+10	1	-1E+10	1	-1E+10	1	-1E+10	1	-1E+10	1	-1E+10	1
4902549	90	C	02/08/2023	02:14	-133.459	47.457	0	673.10	0	4.1470	0	34.2040	0	27.143	0	666.402	0	9.3	4	2.9	4	-1E+10	1	-1E+10	1	-1E+10	1	-1E+10	1	-1E+10	1	-1E+10	1
4902549	90	C	02/08/2023	02:14	-133.459	47.457	0	677.80	0	4.1350	0	34.2090	0	27.148	0	671.048	0	9.0	4	2.9	4	-1E+10	1	-1E+10	1	-1E+10	1	-1E+10	1	-1E+10	1	-1E+10	1
4902549	90	C	02/08/2023	02:14	-133.459	47.457	0	682.70	0	4.1230	0	34.2120	0	27.152	0	675.891	0	8.8	4	2.8	4	-1E+10	1	-1E+10	1	-1E+10	1	-1E+10	1	-1E+10	1	-1E+10	1
4902549	90	C	02/08/2023	02:14	-133.459	47.457	0	687.80	0	4.1070	0	34.2170	0	27.158	0	680.932	0	8.6	4	2.7	4	-1E+10	1	-1E+10	1	-1E+10	1	-1E+10	1	-1E+10	1	-1E+10	1
4902549	90	C	02/08/2023	02:14	-133.459	47.457	0	692.80	0	4.1000	0	34.2200	0	27.161	0	685.874	0	8.4	4	2.7	4	-1E+10	1	-1E+10	1	-1E+10	1	-1E+10	1	-1E+10	1	-1E+10	1
4902549	90	C	02/08/2023	02:14	-133.459	47.457	0	697.70	0	4.0910	0	34.2220	0	27.163	0	690.717	0	8.2	4	2.6	4	-1E+10	1	-1E+10	1	-1E+10	1	-1E+10	1	-1E+10	1	-1E+10	1
4902549	90	C	02/08/2023	02:14	-133.459	47.457	0	702.80	0	4.0760	0	34.2260	0	27.168	0	695.757	0	8.1	4	2.6	4	-1E+10	1	-1E+10	1	-1E+10	1	-1E+10	1	-1E+10	1	-1E+10	1
4902549	90	C	02/08/2023	02:14	-133.459	47.457	0	707.90	0	4.0650	0	34.2290	0	27.172	0	700.798	0	7.9	4	2.5	4	-1E+10	1	-1E+10	1	-1E+10	1	-1E+10	1	-1E+10	1	-1E+10	1
4902549	90	C	02/08/2023	02:14	-133.459	47.457	0	713.00	0	4.0520	0	34.2330	0	27.176	0	705.838	0	7.7	4	2.5	4	-1E+10	1	-1E+10	1	-1E+10	1	-1E+10	1	-1E+10	1	-1E+10	1
4902549	90	C	02/08/2023	02:14	-133.459	47.457	0	717.80	0	4.0490	0	34.2360	0	27.179	0	710.581	0	7.7	4	2.4	4	-1E+10	1	-1E+10	1	-1E+10	1	-1E+10	1	-1E+10	1	-1E+10	1
4902549	90	C	02/08/2023	02:14	-133.459	47.457	0	722.60	0	4.0390	0	34.2360	0	27.180	0	715.325	0	7.5	4	2.4	4	-1E+10	1	-1E+10	1	-1E+10	1	-1E+10	1	-1E+10	1	-1E+10	1
4902549	90	C	02/08/2023	02:14	-133.459	47.457	0	727.90	0	4.0270	0	34.2390	0	27.184	0	720.562	0	7.3	4	2.3	4	-1E+10	1	-1E+10	1	-1E+10	1	-1E+10	1	-1E+10	1	-1E+10	1
4902549	90	C	02/08/2023	02:14	-133.459	47.457	0	733.30	0	4.0190	0	34.2440	0	27.188	0	725.899	0	7.0	4	2.2	4	-1E+10	1	-1E+10	1	-1E+10	1	-1E+10	1	-1E+10	1	-1E+10	1
4902549	90	C	02/08/2023	02:14	-133.459	47.457	0	738.30	0	3.9960	0	34.2510	0	27.196	0	730.839	0	6.8	4	2.1	4	-1E+10	1	-1E+10	1	-1E+10	1	-1E+10	1	-1E+10	1	-1E+10	1
4902549	90	C	02/08/2023	02:14	-133.459	47.457	0	743.30	0	3.9800	0	34.2570	0	27.203	0	735.780	0	6.7	4	2.1	4	-1E+10	1	-1E+10	1	-1E+10	1	-1E+10	1	-1E+10	1	-1E+10	1
4902549	90	C	02/08/2023	02:14	-133.459	47.457	0	747.80	0	3.9480	0	34.2580	0	27.207	0	740.226	0	6.5	4	2.1	4	-1E+10	1	-1E+10	1	-1E+10	1	-1E+10	1	-1E+10	1	-1E+10	1
4902549	90	C	02/08/2023	02:14	-133.459	47.457	0	752.50	0	3.9420	0	34.2640	0	27.212	0	744.870	0	6.4	4	2.0	4	-1E+10	1	-1E+10	1	-1E+10	1	-1E+10	1	-1E+10	1	-1E+10	1
4902549	90	C	02/08/2023	02:14	-133.459	47.457	0	757.70	0	3.9380	0	34.2680	0	27.216	0	750.008	0	6.3	4	2.0	4	-1E+10	1	-1E+10	1	-1E+10	1	-1E+10	1	-1E+10	1	-1E+10	1
4902549	90	C	02/08/2023	02:14	-133.459	47.457	0	762.90	0	3.9230	0	34.2710	0	27.220	0	755.146	0	6.2	4	2.0	4	-1E+10	1	-1E+10	1	-1E+10	1	-1E+10	1	-1E+10	1	-1E+10	1
4902549	90	C	02/08/2023	02:14	-133.459	47.457	0	768.20	0	3.9140	0	34.2730	0	27.222	0	760.383	0	6.1	4	1.9	4	-1E+10	1	-1E+10	1	-1E+10	1	-1E+10	1	-1E+10	1	-1E+10	1
4902549	90	C	02/08/2023	02:14	-133.459	47.457	0	773.10	0	3.8960	0	34.2770	0	27.227	0	765.224	0	6.0	4	1.9	4	-1E+10	1	-1E+10	1	-1E+10	1	-1E+10	1	-1E+10	1	-1E+10	1
4902549	90	C	02/08/2023	02:14	-133.459	47.457	0	778.00	0	3.8790	0	34.2820	0	27.233	0	770.065	0	6.0	4	1.9	4	-1E+10	1	-1E+10	1	-1E+10	1	-1E+10	1	-1E+10	1	-1E+10	1
4902549	90	C	02/08/2023	02:14	-133.459	47.457	0	783.00	0	3.8680	0	34.2840	0	27.236	0	775.005	0	5.9	4	1.9	4	-1E+10	1	-1E+10	1	-1E+10	1	-1E+10	1	-1E+10	1	-1E+10	1
4902549	90	C	02/08/2023	02:14	-133.459	47.457	0	787.80	0	3.8600	0	34.2850	0	27.238	0	779.747	0	5.9	4	1.9	4	-1E+10	1	-1E+10	1	-1E+10	1	-1E+10	1	-1E+10	1	-1E+10	1
4902549	90	C	02/08/2023	02:14	-133.459	47.457	0	792.60	0	3.8470	0	34.2880	0	27.241	0	784.489	0	5.9	4	1.9	4	-1E+10	1	-1E+10	1	-1E+10	1	-1E+10	1	-1E+10	1	-1E+10	1
4902549	90	C	02/08/2023	02:14	-133.459	47.457	0	797.50	0	3.8400	0	34.2890	0	27.243	0	789.329	0	5.8	4	1.8	4	-1E+10	1	-1E+10	1	-1E+10	1	-1E+10	1	-1E+10	1	-1E+10	1
4902549	90	C	02/08/2023	02:14	-133.459	47.457	0	802.50	0	3.8340	0	34.2900	0	27.244	0	794.268	0	5.8	4	1.8	4	-1E+10	1	-1E+10	1	-1E+10	1	-1E+10	1	-1E+10	1	-1E+10	1
4902549	90	C	02/08/2023	02:14	-133.459	47.457	0	807.50	0	3.8290	0	34.2920	0	27.246	0	799.208	0	5.8	4	1.8	4	-1E+10	1	-1E+10	1	-1E+10	1	-1E+10	1	-1E+10	1	-1E+10	1
4902549	90	C	02/08/2023	02:14	-133.459	47.457	0	812.60	0	3.8140	0	34.2950	0	27.250	0	804.245	0	5.8	4	1.8	4	-1E+10	1	-1E+10	1	-1E+10	1	-1E+10	1	-1E+10	1	-1E+10	1
4902549	90	C	02/08/2023	02:14	-133.459	47.457	0	817.80	0	3.7900	0	34.2960	0	27.254	0	809.382	0	5.8	4	1.8	4	-1E+10	1	-1E+10	1	-1E+10	1	-1E+10	1	-1E+10	1	-1E+10	1
4902549	90	C	02/08/2023	02:14	-133.459	47.457	0	823.00	0	3.7820	0	34.2970	0	27.255	0	814.518	0	5.8	4	1.8	4	-1E+10	1	-1E+10	1	-1E+10	1	-1E+10	1	-1E+10	1	-1E+10	1
4902549	90	C	02/08/2023	02:14	-133.459	47.457	0	827.80	0	3.7730	0	34.3000	0	27.258	0	819.259	0	5.8	4	1.8	4	-1E+10	1	-1E+10	1	-1E+10	1	-1E+10	1	-1E+10	1	-1E+10	1
4902549	90	C	02/08/2023	02:14	-133.459	47.457	0	832.60	0	3.7610	0	34.3020	0	27.261	0	824.000	0	5.7	4	1.8	4	-1E+10	1	-1E+10	1	-1E+10	1	-1E+10	1	-1E+10	1	-1E+10	1
4902549	90	C	02/08/2023	02:14	-133.459	47.457	0	837.80	0	3.7500	0	34.3020	0	27.262	0	829.136	0	5.7	4	1.8	4	-1E+10	1	-1E+10	1	-1E+10	1	-1E+10	1	-1E+10	1	-1E+10	1
4902549	90	C	02/08/2023	02:14	-133.459	47.457	0	843.00	0	3.7540	0	34.3050	0	27.264	0	834.272	0	5.7	4	1.8	4	-1E+10	1	-1E+10	1	-1E+10	1	-1E+10	1	-1E+10	1	-1E+10	1
4902549	90	C	02/08/2023	02:14	-133.459	47.457	0	848.10	0	3.7510	0	34.3070	0	27.266	0	839.309	0	5.7	4	1.8	4	-1E+10	1	-1E+10	1	-1E+10	1	-1E+10	1	-1E+10	1	-1E+10	1
4902549	90	C	02/08/2023	02:14	-133.459	47.457	0	853.10	0	3.7360	0	34.3080	0	27.269	0	844.247	0	5.7	4	1.8	4	-1E+10	1	-1E+10	1	-1E+10	1	-1E+10	1	-1E+10	1	-1E+10	1
4902549	90	C	02/08/2023	02:14	-133.459	47.457	0	858.00	0	3.7240	0	34.3100	0	27.271	0	849.086	0	5.7	4	1.8	4	-1E+10	1	-1E+10	1	-1E+10	1	-1E+10	1	-1E+10	1	-1E+10	1
4902549	90	C	02/08/2023	02:14	-133.459	47.457	0	863.00	0	3.7050	0	34.3130	0	27.276	0	854.024	0	5.8	4	1.8	4	-1E+10	1	-1E+10	1	-1E+10	1	-1E+10	1	-1E+10	1	-1E+10	1
4902549	90	C	02/08/2023	02:14	-133.459	47.457	0	868.10	0	3.6900	0	34.3130	0	27.277	0	859.061	0	5.8	4	1.8	4	-1E+10	1	-1E+10	1	-1E+10	1	-1E+10	1	-1E+10	1	-1E+10	1
4902549	90	C	02/08/2023	02:14	-133.459	47.457	0	873.30	0	3.6630	0	34.3140	0	27.281	0	864.196	0	5.9	4	1.8	4	-1E+10	1	-1E+10	1	-1E+10	1	-1E+10	1	-1E+10	1	-1E+10	1
4902549	90	C	02/08/2023	02:14	-133.459	47.457	0	878.30	0	3.6490	0	34.3160	0	27.284	0	869.133	0	5.9	4	1.9	4	-1E+10	1	-1E+10	1	-1E+10	1	-1E+10	1	-1E+10	1	-1E+10	1
4902549	90	C	02/08/2023	02:14	-133.459	47.457	0	883.20	0	3.6250	0	34.3170	0	27.287	0	873.972	0	5.9	4	1.9	4	-1E+10	1	-1E+10	1	-1E+10	1	-1E+10	1	-1E+10	1	-1E+10	1
4902549	90	C	02/08/2023	02:14	-133.459	47.457	0	888.10	0	3.6180	0	34.3180	0	27.288	0	878.811	0	5.9	4	1.8	4	-1E+10	1	-1E+10	1	-1E+10	1	-1E+10	1	-1E+10	1	-1E+10	1
4902549	90	C	02/08/2023	02:14	-133.459	47.457	0	893.10	0	3.6100	0	34.3200	0	27.291	0	883.748	0	5.9	4	1.8	4	-1E+10	1	-1E+10	1	-1E+10	1	-1E+10	1	-1E+10	1	-1E+10	1
4902549	90	C	02/08/2023	02:14	-133.459	47.457	0	897.90	0	3.6050	0	34.3220	0	27.293	0	888.487	0	5.8	4	1.8	4	-1E+10	1	-1E+10	1	-1E+10	1	-1E+10	1	-1E+10	1	-1E+10	1
4902549	90	C	02/08/2023	02:14	-133.459	47.457	0	902.70	0	3.5840	0	34.3270	0	27.299	0	893.227	0	5.8	4	1.8	4	-1E+10	1	-1E+10	1	-1E+10	1	-1E+10	1	-1E+10	1	-1E+10	1
4902549	90	C	02/08/2023	02:14	-133.459	47.457	0	907.90	0	3.5690	0	34.3320	0	27.304	0	898.361	0	5.8	4	1.8	4	-1E+10	1	-1E+10	1	-1E+10	1	-1E+10	1	-1E+10	1	-1E+10	1
4902549	90	C	02/08/2023	02:14	-133.459	47.457	0	913.00	0	3.5520	0	34.3370	0	27.310	0	903.396	0	5.8	4	1.8	4	-1E+10	1	-1E+10	1	-1E+10	1	-1E+10	1	-1E+10	1	-1E+10	1
4902549	90	C	02/08/2023	02:14	-133.459	47.457	0	918.00	0	3.5410	0	34.3380	0	27.312	0	908.333	0	5.8	4	1.8	4	-1E+10	1	-1E+10	1	-1E+10	1	-1E+10	1	-1E+10	1	-1E+10	1
4902549	90	C	02/08/2023	02:14	-133.459	47.457	0	923.00	0	3.5230	0	34.3390	0	27.315	0	913.269	0	5.8	4	1.8	4	-1E+10	1	-1E+10	1	-1E+10	1	-1E+10	1	-1E+10	1	-1E+10	1
4902549	90	C	02/08/2023	02:14	-133.459	47.457	0	928.00	0	3.5100	0	34.3430	0	27.319	0	918.206	0	5.9	4	1.8	4	-1E+10	1	-1E+10	1	-1E+10	1	-1E+10	1	-1E+10	1	-1E+10	1
4902549	90	C	02/08/2023	02:14	-133.459	47.457	0	933.10	0	3.4760	0	34.3490	0	27.327	0	923.241	0	5.9	4	1.8	4	-1E+10	1	-1E+10	1	-1E+10	1	-1E+10	1	-1E+10	1	-1E+10	1
4902549	90	C	02/08/2023	02:14	-133.459	47.457	0	938.20	0	3.4630	0	34.3520	0	27.331	0	928.275	0	5.9	4	1.8	4	-1E+10	1	-1E+10	1	-1E+10	1	-1E+10	1	-1E+10	1	-1E+10	1
4902549	90	C	02/08/2023	02:14	-133.459	47.457	0	942.90	0	3.4550	0	34.3550	0	27.334	0	932.915	0	5.9	4	1.9	4	-1E+10	1	-1E+10	1	-1E+10	1	-1E+10	1	-1E+10	1	-1E+10	1
4902549	90	C	02/08/2023	02:14	-133.459	47.457	0	947.70	0	3.4480	0	34.3570	0	27.336	0	937.654	0	6.0	4	1.9	4	-1E+10	1	-1E+10	1	-1E+10	1	-1E+10	1	-1E+10	1	-1E+10	1
4902549	90	C	02/08/2023	02:14	-133.459	47.457	0	952.90	0	3.4190	0	34.3620	0	27.343	0	942.787	0	6.1	4	1.9	4	-1E+10	1	-1E+10	1	-1E+10	1	-1E+10	1	-1E+10	1	-1E+10	1
4902549	90	C	02/08/2023	02:14	-133.459	47.457	0	957.90	0	3.4090	0	34.3630	0	27.345	0	947.722	0	6.1	4	1.9	4	-1E+10	1	-1E+10	1	-1E+10	1	-1E+10	1	-1E+10	1	-1E+10	1
4902549	90	C	02/08/2023	02:14	-133.459	47.457	0	963.00	0	3.3970	0	34.3640	0	27.347	0	952.757	0	6.1	4	1.9	4	-1E+10	1	-1E+10	1	-1E+10	1	-1E+10	1	-1E+10	1	-1E+10	1
4902549	90	C	02/08/2023	02:14	-133.459	47.457	0	968.20	0	3.3890	0	34.3650	0	27.348	0	957.890	0	6.2	4	1.9	4	-1E+10	1	-1E+10	1	-1E+10	1	-1E+10	1	-1E+10	1	-1E+10	1
4902549	90	C	02/08/2023	02:14	-133.459	47.457	0	972.90	0	3.3620	0	34.3700	0	27.355	0	962.529	0	6.2	4	1.9	4	-1E+10	1	-1E+10	1	-1E+10	1	-1E+10	1	-1E+10	1	-1E+10	1
4902549	90	C	02/08/2023	02:14	-133.459	47.457	0	977.90	0	3.3500	0	34.3710	0	27.357	0	967.464	0	6.3	4	2.0	4	-1E+10	1	-1E+10	1	-1E+10	1	-1E+10	1	-1E+10	1	-1E+10	1
4902549	90	C	02/08/2023	02:14	-133.459	47.457	0	982.80	0	3.3350	0	34.3730	0	27.360	0	972.300	0	6.3	4	2.0	4	-1E+10	1	-1E+10	1	-1E+10	1	-1E+10	1	-1E+10	1	-1E+10	1
4902549	90	C	02/08/2023	02:14	-133.459	47.457	0	987.80	0	3.3230	0	34.3750	0	27.363	0	977.235	0	6.4	4	2.0	4	-1E+10	1	-1E+10	1	-1E+10	1	-1E+10	1	-1E+10	1	-1E+10	1
4902549	90	C	02/08/2023	02:14	-133.459	47.457	0	992.70	0	3.3180	0	34.3750	0	27.363	0	982.071	0	6.4	4	2.0	4	-1E+10	1	-1E+10	1	-1E+10	1	-1E+10	1	-1E+10	1	-1E+10	1
4902549	90	C	02/08/2023	02:14	-133.459	47.457	0	997.70	0	3.3150	0	34.3750	0	27.364	0	987.006	0	6.4	4	2.0	4	-1E+10	1	-1E+10	1	-1E+10	1	-1E+10	1	-1E+10	1	-1E+10	1
4902549	90	C	02/08/2023	02:14	-133.459	47.457	0	1005.40	0	3.3090	0	34.3770	0	27.366	0	994.605	0	6.5	4	2.0	4	-1E+10	1	-1E+10	1	-1E+10	1	-1E+10	1	-1E+10	1	-1E+10	1
4902549	90	C	02/08/2023	02:14	-133.459	47.457	0	1015.60	0	3.2800	0	34.3810	0	27.372	0	1004.671	0	6.6	4	2.1	4	-1E+10	1	-1E+10	1	-1E+10	1	-1E+10	1	-1E+10	1	-1E+10	1
4902549	90	C	02/08/2023	02:14	-133.459	47.457	0	1025.50	0	3.2470	0	34.3860	0	27.379	0	1014.441	0	6.8	4	2.1	4	-1E+10	1	-1E+10	1	-1E+10	1	-1E+10	1	-1E+10	1	-1E+10	1
4902549	90	C	02/08/2023	02:14	-133.459	47.457	0	1035.50	0	3.2170	0	34.3890	0	27.384	0	1024.308	0	6.9	4	2.1	4	-1E+10	1	-1E+10	1	-1E+10	1	-1E+10	1	-1E+10	1	-1E+10	1
4902549	90	C	02/08/2023	02:14	-133.459	47.457	0	1045.50	0	3.1990	0	34.3930	0	27.389	0	1034.176	0	7.0	4	2.2	4	-1E+10	1	-1E+10	1	-1E+10	1	-1E+10	1	-1E+10	1	-1E+10	1
4902549	90	C	02/08/2023	02:14	-133.459	47.457	0	1055.60	0	3.1800	0	34.3960	0	27.393	0	1044.141	0	7.1	4	2.2	4	-1E+10	1	-1E+10	1	-1E+10	1	-1E+10	1	-1E+10	1	-1E+10	1
4902549	90	C	02/08/2023	02:14	-133.459	47.457	0	1065.40	0	3.1700	0	34.3980	0	27.396	0	1053.810	0	7.2	4	2.2	4	-1E+10	1	-1E+10	1	-1E+10	1	-1E+10	1	-1E+10	1	-1E+10	1
4902549	90	C	02/08/2023	02:14	-133.459	47.457	0	1075.00	0	3.1620	0	34.4000	0	27.398	0	1063.281	0	7.3	4	2.3	4	-1E+10	1	-1E+10	1	-1E+10	1	-1E+10	1	-1E+10	1	-1E+10	1
4902549	90	C	02/08/2023	02:14	-133.459	47.457	0	1085.10	0	3.1410	0	34.4030	0	27.403	0	1073.245	0	7.5	4	2.3	4	-1E+10	1	-1E+10	1	-1E+10	1	-1E+10	1	-1E+10	1	-1E+10	1
4902549	90	C	02/08/2023	02:14	-133.459	47.457	0	1095.20	0	3.1210	0	34.4060	0	27.407	0	1083.209	0	7.7	4	2.4	4	-1E+10	1	-1E+10	1	-1E+10	1	-1E+10	1	-1E+10	1	-1E+10	1
4902549	90	C	02/08/2023	02:14	-133.459	47.457	0	1105.40	0	3.0950	0	34.4110	0	27.413	0	1093.271	0	7.9	4	2.4	4	-1E+10	1	-1E+10	1	-1E+10	1	-1E+10	1	-1E+10	1	-1E+10	1
4902549	90	C	02/08/2023	02:14	-133.459	47.457	0	1115.30	0	3.0680	0	34.4150	0	27.419	0	1103.036	0	8.1	4	2.5	4	-1E+10	1	-1E+10	1	-1E+10	1	-1E+10	1	-1E+10	1	-1E+10	1
4902549	90	C	02/08/2023	02:14	-133.459	47.457	0	1125.10	0	3.0500	0	34.4170	0	27.422	0	1112.703	0	8.3	4	2.6	4	-1E+10	1	-1E+10	1	-1E+10	1	-1E+10	1	-1E+10	1	-1E+10	1
4902549	90	C	02/08/2023	02:14	-133.459	47.457	0	1135.10	0	3.0270	0	34.4210	0	27.428	0	1122.566	0	8.5	4	2.6	4	-1E+10	1	-1E+10	1	-1E+10	1	-1E+10	1	-1E+10	1	-1E+10	1
4902549	90	C	02/08/2023	02:14	-133.459	47.457	0	1145.30	0	3.0120	0	34.4220	0	27.430	0	1132.626	0	8.6	4	2.7	4	-1E+10	1	-1E+10	1	-1E+10	1	-1E+10	1	-1E+10	1	-1E+10	1
4902549	90	C	02/08/2023	02:14	-133.459	47.457	0	1155.40	0	2.9970	0	34.4240	0	27.433	0	1142.586	0	8.8	4	2.7	4	-1E+10	1	-1E+10	1	-1E+10	1	-1E+10	1	-1E+10	1	-1E+10	1
4902549	90	C	02/08/2023	02:14	-133.459	47.457	0	1165.10	0	2.9750	0	34.4280	0	27.438	0	1152.152	0	9.0	4	2.8	4	-1E+10	1	-1E+10	1	-1E+10	1	-1E+10	1	-1E+10	1	-1E+10	1
4902549	90	C	02/08/2023	02:14	-133.459	47.457	0	1175.00	0	2.9560	0	34.4300	0	27.441	0	1161.915	0	9.2	4	2.8	4	-1E+10	1	-1E+10	1	-1E+10	1	-1E+10	1	-1E+10	1	-1E+10	1
4902549	90	C	02/08/2023	02:14	-133.459	47.457	0	1185.00	0	2.9470	0	34.4320	0	27.444	0	1171.776	0	9.4	4	2.9	4	-1E+10	1	-1E+10	1	-1E+10	1	-1E+10	1	-1E+10	1	-1E+10	1
4902549	90	C	02/08/2023	02:14	-133.459	47.457	0	1195.10	0	2.9230	0	34.4350	0	27.448	0	1181.734	0	9.6	4	3.0	4	-1E+10	1	-1E+10	1	-1E+10	1	-1E+10	1	-1E+10	1	-1E+10	1
4902549	90	C	02/08/2023	02:14	-133.459	47.457	0	1205.90	0	2.8990	0	34.4360	0	27.451	0	1192.383	0	9.8	4	3.0	4	-1E+10	1	-1E+10	1	-1E+10	1	-1E+10	1	-1E+10	1	-1E+10	1
4902549	90	C	02/08/2023	02:14	-133.459	47.457	0	1215.60	0	2.8830	0	34.4380	0	27.455	0	1201.947	0	10.0	4	3.1	4	-1E+10	1	-1E+10	1	-1E+10	1	-1E+10	1	-1E+10	1	-1E+10	1
4902549	90	C	02/08/2023	02:14	-133.459	47.457	0	1225.30	0	2.8720	0	34.4410	0	27.458	0	1211.510	0	10.3	4	3.2	4	-1E+10	1	-1E+10	1	-1E+10	1	-1E+10	1	-1E+10	1	-1E+10	1
4902549	90	C	02/08/2023	02:14	-133.459	47.457	0	1235.20	0	2.8570	0	34.4450	0	27.463	0	1221.270	0	10.5	4	3.2	4	-1E+10	1	-1E+10	1	-1E+10	1	-1E+10	1	-1E+10	1	-1E+10	1
4902549	90	C	02/08/2023	02:14	-133.459	47.457	0	1245.40	0	2.8430	0	34.4460	0	27.465	0	1231.325	0	10.8	4	3.3	4	-1E+10	1	-1E+10	1	-1E+10	1	-1E+10	1	-1E+10	1	-1E+10	1
4902549	90	C	02/08/2023	02:14	-133.459	47.457	0	1255.40	0	2.8260	0	34.4490	0	27.469	0	1241.182	0	11.0	4	3.4	4	-1E+10	1	-1E+10	1	-1E+10	1	-1E+10	1	-1E+10	1	-1E+10	1
4902549	90	C	02/08/2023	02:14	-133.459	47.457	0	1265.20	0	2.8140	0	34.4510	0	27.471	0	1250.842	0	11.3	4	3.5	4	-1E+10	1	-1E+10	1	-1E+10	1	-1E+10	1	-1E+10	1	-1E+10	1
4902549	90	C	02/08/2023	02:14	-133.459	47.457	0	1275.10	0	2.7960	0	34.4530	0	27.475	0	1260.600	0	11.5	4	3.5	4	-1E+10	1	-1E+10	1	-1E+10	1	-1E+10	1	-1E+10	1	-1E+10	1
4902549	90	C	02/08/2023	02:14	-133.459	47.457	0	1285.20	0	2.7810	0	34.4550	0	27.477	0	1270.555	0	11.7	4	3.6	4	-1E+10	1	-1E+10	1	-1E+10	1	-1E+10	1	-1E+10	1	-1E+10	1
4902549	90	C	02/08/2023	02:14	-133.459	47.457	0	1295.20	0	2.7510	0	34.4550	0	27.480	0	1280.411	0	11.9	4	3.7	4	-1E+10	1	-1E+10	1	-1E+10	1	-1E+10	1	-1E+10	1	-1E+10	1
4902549	90	C	02/08/2023	02:14	-133.459	47.457	0	1305.20	0	2.7390	0	34.4570	0	27.483	0	1290.266	0	12.3	4	3.8	4	-1E+10	1	-1E+10	1	-1E+10	1	-1E+10	1	-1E+10	1	-1E+10	1
4902549	90	C	02/08/2023	02:14	-133.459	47.457	0	1315.40	0	2.7120	0	34.4610	0	27.488	0	1300.318	0	12.5	4	3.8	4	-1E+10	1	-1E+10	1	-1E+10	1	-1E+10	1	-1E+10	1	-1E+10	1
4902549	90	C	02/08/2023	02:14	-133.459	47.457	0	1325.30	0	2.6840	0	34.4620	0	27.492	0	1310.073	0	12.8	4	3.9	4	-1E+10	1	-1E+10	1	-1E+10	1	-1E+10	1	-1E+10	1	-1E+10	1
4902549	90	C	02/08/2023	02:14	-133.459	47.457	0	1335.20	0	2.6600	0	34.4640	0	27.495	0	1319.829	0	13.0	4	4.0	4	-1E+10	1	-1E+10	1	-1E+10	1	-1E+10	1	-1E+10	1	-1E+10	1
4902549	90	C	02/08/2023	02:14	-133.459	47.457	0	1345.20	0	2.6370	0	34.4660	0	27.499	0	1329.682	0	13.5	4	4.1	4	-1E+10	1	-1E+10	1	-1E+10	1	-1E+10	1	-1E+10	1	-1E+10	1
4902549	90	C	02/08/2023	02:14	-133.459	47.457	0	1355.40	0	2.6300	0	34.4700	0	27.503	0	1339.732	0	13.9	4	4.3	4	-1E+10	1	-1E+10	1	-1E+10	1	-1E+10	1	-1E+10	1	-1E+10	1
4902549	90	C	02/08/2023	02:14	-133.459	47.457	0	1365.70	0	2.6070	0	34.4710	0	27.506	0	1349.880	0	14.1	4	4.3	4	-1E+10	1	-1E+10	1	-1E+10	1	-1E+10	1	-1E+10	1	-1E+10	1
4902549	90	C	02/08/2023	02:14	-133.459	47.457	0	1375.70	0	2.5880	0	34.4730	0	27.509	0	1359.732	0	14.5	4	4.4	4	-1E+10	1	-1E+10	1	-1E+10	1	-1E+10	1	-1E+10	1	-1E+10	1
4902549	90	C	02/08/2023	02:14	-133.459	47.457	0	1385.30	0	2.5750	0	34.4750	0	27.512	0	1369.189	0	14.9	4	4.5	4	-1E+10	1	-1E+10	1	-1E+10	1	-1E+10	1	-1E+10	1	-1E+10	1
4902549	90	C	02/08/2023	02:14	-133.459	47.457	0	1395.10	0	2.5730	0	34.4780	0	27.514	0	1378.843	0	15.2	4	4.7	4	-1E+10	1	-1E+10	1	-1E+10	1	-1E+10	1	-1E+10	1	-1E+10	1
4902549	90	C	02/08/2023	02:14	-133.459	47.457	0	1405.30	0	2.5490	0	34.4790	0	27.517	0	1388.891	0	15.4	4	4.7	4	-1E+10	1	-1E+10	1	-1E+10	1	-1E+10	1	-1E+10	1	-1E+10	1
4902549	90	C	02/08/2023	02:14	-133.459	47.457	0	1415.90	0	2.5240	0	34.4790	0	27.519	0	1399.332	0	15.6	4	4.8	4	-1E+10	1	-1E+10	1	-1E+10	1	-1E+10	1	-1E+10	1	-1E+10	1
4902549	90	C	02/08/2023	02:14	-133.459	47.457	0	1425.50	0	2.5050	0	34.4810	0	27.523	0	1408.788	0	16.1	4	4.9	4	-1E+10	1	-1E+10	1	-1E+10	1	-1E+10	1	-1E+10	1	-1E+10	1
4902549	90	C	02/08/2023	02:14	-133.459	47.457	0	1435.50	0	2.4900	0	34.4840	0	27.526	0	1418.637	0	16.6	4	5.1	4	-1E+10	1	-1E+10	1	-1E+10	1	-1E+10	1	-1E+10	1	-1E+10	1
4902549	90	C	02/08/2023	02:14	-133.459	47.457	0	1445.70	0	2.4770	0	34.4860	0	27.529	0	1428.682	0	17.1	4	5.2	4	-1E+10	1	-1E+10	1	-1E+10	1	-1E+10	1	-1E+10	1	-1E+10	1
4902549	90	C	02/08/2023	02:14	-133.459	47.457	0	1455.40	0	2.4670	0	34.4890	0	27.532	0	1438.235	0	17.9	4	5.5	4	-1E+10	1	-1E+10	1	-1E+10	1	-1E+10	1	-1E+10	1	-1E+10	1
4902549	90	C	02/08/2023	02:14	-133.459	47.457	0	1465.40	0	2.4560	0	34.4930	0	27.537	0	1448.083	0	18.5	4	5.6	4	-1E+10	1	-1E+10	1	-1E+10	1	-1E+10	1	-1E+10	1	-1E+10	1
4902549	90	C	02/08/2023	02:14	-133.459	47.457	0	1475.70	0	2.4430	0	34.4950	0	27.539	0	1458.226	0	18.9	4	5.8	4	-1E+10	1	-1E+10	1	-1E+10	1	-1E+10	1	-1E+10	1	-1E+10	1
4902549	90	C	02/08/2023	02:14	-133.459	47.457	0	1485.40	0	2.4310	0	34.4970	0	27.542	0	1467.777	0	19.4	4	5.9	4	-1E+10	1	-1E+10	1	-1E+10	1	-1E+10	1	-1E+10	1	-1E+10	1
4902549	90	C	02/08/2023	02:14	-133.459	47.457	0	1495.20	0	2.4240	0	34.4990	0	27.544	0	1477.427	0	19.7	4	6.0	4	-1E+10	1	-1E+10	1	-1E+10	1	-1E+10	1	-1E+10	1	-1E+10	1
4902549	90	C	02/08/2023	02:14	-133.459	47.457	0	1505.20	0	2.4180	0	34.5000	0	27.546	0	1487.273	0	20.2	4	6.1	4	-1E+10	1	-1E+10	1	-1E+10	1	-1E+10	1	-1E+10	1	-1E+10	1
4902549	90	C	02/08/2023	02:14	-133.459	47.457	0	1515.30	0	2.4030	0	34.5020	0	27.548	0	1497.217	0	20.6	4	6.3	4	-1E+10	1	-1E+10	1	-1E+10	1	-1E+10	1	-1E+10	1	-1E+10	1
4902549	90	C	02/08/2023	02:14	-133.459	47.457	0	1525.50	0	2.3860	0	34.5030	0	27.551	0	1507.259	0	21.3	4	6.5	4	-1E+10	1	-1E+10	1	-1E+10	1	-1E+10	1	-1E+10	1	-1E+10	1
4902549	90	C	02/08/2023	02:14	-133.459	47.457	0	1535.20	0	2.3720	0	34.5070	0	27.555	0	1516.808	0	22.1	4	6.7	4	-1E+10	1	-1E+10	1	-1E+10	1	-1E+10	1	-1E+10	1	-1E+10	1
4902549	90	C	02/08/2023	02:14	-133.459	47.457	0	1545.40	0	2.3540	0	34.5100	0	27.559	0	1526.849	0	22.8	4	6.9	4	-1E+10	1	-1E+10	1	-1E+10	1	-1E+10	1	-1E+10	1	-1E+10	1
4902549	90	C	02/08/2023	02:14	-133.459	47.457	0	1555.60	0	2.3360	0	34.5130	0	27.563	0	1536.889	0	23.4	4	7.1	4	-1E+10	1	-1E+10	1	-1E+10	1	-1E+10	1	-1E+10	1	-1E+10	1
4902549	90	C	02/08/2023	02:14	-133.459	47.457	0	1565.40	0	2.3290	0	34.5140	0	27.564	0	1546.536	0	23.9	4	7.3	4	-1E+10	1	-1E+10	1	-1E+10	1	-1E+10	1	-1E+10	1	-1E+10	1
4902549	90	C	02/08/2023	02:14	-133.459	47.457	0	1575.30	0	2.3210	0	34.5160	0	27.567	0	1556.280	0	24.2	4	7.3	4	-1E+10	1	-1E+10	1	-1E+10	1	-1E+10	1	-1E+10	1	-1E+10	1
4902549	90	C	02/08/2023	02:14	-133.459	47.457	0	1585.30	0	2.3150	0	34.5170	0	27.568	0	1566.122	0	24.7	4	7.5	4	-1E+10	1	-1E+10	1	-1E+10	1	-1E+10	1	-1E+10	1	-1E+10	1
4902549	90	C	02/08/2023	02:14	-133.459	47.457	0	1595.40	0	2.3050	0	34.5190	0	27.570	0	1576.063	0	25.3	4	7.7	4	-1E+10	1	-1E+10	1	-1E+10	1	-1E+10	1	-1E+10	1	-1E+10	1
4902549	90	C	02/08/2023	02:14	-133.459	47.457	0	1605.20	0	2.2940	0	34.5210	0	27.573	0	1585.707	0	25.8	4	7.8	4	-1E+10	1	-1E+10	1	-1E+10	1	-1E+10	1	-1E+10	1	-1E+10	1
4902549	90	C	02/08/2023	02:14	-133.459	47.457	0	1615.30	0	2.2840	0	34.5220	0	27.575	0	1595.646	0	26.2	4	8.0	4	-1E+10	1	-1E+10	1	-1E+10	1	-1E+10	1	-1E+10	1	-1E+10	1
4902549	90	C	02/08/2023	02:14	-133.459	47.457	0	1625.40	0	2.2770	0	34.5230	0	27.576	0	1605.585	0	26.9	4	8.2	4	-1E+10	1	-1E+10	1	-1E+10	1	-1E+10	1	-1E+10	1	-1E+10	1
4902549	90	C	02/08/2023	02:14	-133.459	47.457	0	1635.50	0	2.2750	0	34.5260	0	27.579	0	1615.524	0	27.7	4	8.4	4	-1E+10	1	-1E+10	1	-1E+10	1	-1E+10	1	-1E+10	1	-1E+10	1
4902549	90	C	02/08/2023	02:14	-133.459	47.457	0	1645.50	0	2.2680	0	34.5280	0	27.581	0	1625.363	0	28.0	4	8.5	4	-1E+10	1	-1E+10	1	-1E+10	1	-1E+10	1	-1E+10	1	-1E+10	1
4902549	90	C	02/08/2023	02:14	-133.459	47.457	0	1655.40	0	2.2490	0	34.5280	0	27.583	0	1635.104	0	28.4	4	8.6	4	-1E+10	1	-1E+10	1	-1E+10	1	-1E+10	1	-1E+10	1	-1E+10	1
4902549	90	C	02/08/2023	02:14	-133.459	47.457	0	1665.50	0	2.2340	0	34.5310	0	27.586	0	1645.041	0	29.1	4	8.8	4	-1E+10	1	-1E+10	1	-1E+10	1	-1E+10	1	-1E+10	1	-1E+10	1
4902549	90	C	02/08/2023	02:14	-133.459	47.457	0	1675.30	0	2.2240	0	34.5320	0	27.588	0	1654.682	0	29.6	4	9.0	4	-1E+10	1	-1E+10	1	-1E+10	1	-1E+10	1	-1E+10	1	-1E+10	1
4902549	90	C	02/08/2023	02:14	-133.459	47.457	0	1685.10	0	2.2160	0	34.5330	0	27.589	0	1664.323	0	30.1	4	9.1	4	-1E+10	1	-1E+10	1	-1E+10	1	-1E+10	1	-1E+10	1	-1E+10	1
4902549	90	C	02/08/2023	02:14	-133.459	47.457	0	1695.10	0	2.1990	0	34.5350	0	27.592	0	1674.160	0	30.8	4	9.3	4	-1E+10	1	-1E+10	1	-1E+10	1	-1E+10	1	-1E+10	1	-1E+10	1
4902549	90	C	02/08/2023	02:14	-133.459	47.457	0	1705.40	0	2.1860	0	34.5380	0	27.596	0	1684.292	0	31.7	4	9.6	4	-1E+10	1	-1E+10	1	-1E+10	1	-1E+10	1	-1E+10	1	-1E+10	1
4902549	90	C	02/08/2023	02:14	-133.459	47.457	0	1715.10	0	2.1710	0	34.5410	0	27.600	0	1693.834	0	32.5	4	9.8	4	-1E+10	1	-1E+10	1	-1E+10	1	-1E+10	1	-1E+10	1	-1E+10	1
4902549	90	C	02/08/2023	02:14	-133.459	47.457	0	1725.30	0	2.1650	0	34.5420	0	27.601	0	1703.866	0	33.1	4	10.0	4	-1E+10	1	-1E+10	1	-1E+10	1	-1E+10	1	-1E+10	1	-1E+10	1
4902549	90	C	02/08/2023	02:14	-133.459	47.457	0	1735.10	0	2.1510	0	34.5440	0	27.604	0	1713.505	0	33.8	4	10.2	4	-1E+10	1	-1E+10	1	-1E+10	1	-1E+10	1	-1E+10	1	-1E+10	1
4902549	90	C	02/08/2023	02:14	-133.459	47.457	0	1745.10	0	2.1410	0	34.5460	0	27.606	0	1723.340	0	34.6	4	10.5	4	-1E+10	1	-1E+10	1	-1E+10	1	-1E+10	1	-1E+10	1	-1E+10	1
4902549	90	C	02/08/2023	02:14	-133.459	47.457	0	1755.20	0	2.1250	0	34.5480	0	27.609	0	1733.273	0	35.4	4	10.7	4	-1E+10	1	-1E+10	1	-1E+10	1	-1E+10	1	-1E+10	1	-1E+10	1
4902549	90	C	02/08/2023	02:14	-133.459	47.457	0	1765.40	0	2.1140	0	34.5500	0	27.612	0	1743.303	0	36.0	4	10.9	4	-1E+10	1	-1E+10	1	-1E+10	1	-1E+10	1	-1E+10	1	-1E+10	1
4902549	90	C	02/08/2023	02:14	-133.459	47.457	0	1775.60	0	2.1020	0	34.5510	0	27.613	0	1753.334	0	37.0	4	11.2	4	-1E+10	1	-1E+10	1	-1E+10	1	-1E+10	1	-1E+10	1	-1E+10	1
4902549	90	C	02/08/2023	02:14	-133.459	47.457	0	1785.40	0	2.0890	0	34.5540	0	27.617	0	1762.970	0	37.9	4	11.5	4	-1E+10	1	-1E+10	1	-1E+10	1	-1E+10	1	-1E+10	1	-1E+10	1
4902549	90	C	02/08/2023	02:14	-133.459	47.457	0	1795.30	0	2.0800	0	34.5560	0	27.619	0	1772.704	0	38.5	4	11.6	4	-1E+10	1	-1E+10	1	-1E+10	1	-1E+10	1	-1E+10	1	-1E+10	1
4902549	90	C	02/08/2023	02:14	-133.459	47.457	0	1805.50	0	2.0720	0	34.5570	0	27.621	0	1782.733	0	39.1	4	11.8	4	-1E+10	1	-1E+10	1	-1E+10	1	-1E+10	1	-1E+10	1	-1E+10	1
4902549	90	C	02/08/2023	02:14	-133.459	47.457	0	1815.40	0	2.0630	0	34.5580	0	27.622	0	1792.467	0	39.7	4	12.0	4	-1E+10	1	-1E+10	1	-1E+10	1	-1E+10	1	-1E+10	1	-1E+10	1
4902549	90	C	02/08/2023	02:14	-133.459	47.457	0	1825.60	0	2.0560	0	34.5600	0	27.624	0	1802.495	0	40.3	4	12.2	4	-1E+10	1	-1E+10	1	-1E+10	1	-1E+10	1	-1E+10	1	-1E+10	1
4902549	90	C	02/08/2023	02:14	-133.459	47.457	0	1835.70	0	2.0510	0	34.5610	0	27.626	0	1812.424	0	41.1	4	12.4	4	-1E+10	1	-1E+10	1	-1E+10	1	-1E+10	1	-1E+10	1	-1E+10	1
4902549	90	C	02/08/2023	02:14	-133.459	47.457	0	1845.30	0	2.0460	0	34.5630	0	27.628	0	1821.861	0	42.0	4	12.7	4	-1E+10	1	-1E+10	1	-1E+10	1	-1E+10	1	-1E+10	1	-1E+10	1
4902549	90	C	02/08/2023	02:14	-133.459	47.457	0	1855.00	0	2.0390	0	34.5650	0	27.630	0	1831.396	0	42.7	4	12.9	4	-1E+10	1	-1E+10	1	-1E+10	1	-1E+10	1	-1E+10	1	-1E+10	1
4902549	90	C	02/08/2023	02:14	-133.459	47.457	0	1865.40	0	2.0300	0	34.5670	0	27.632	0	1841.619	0	43.2	4	13.0	4	-1E+10	1	-1E+10	1	-1E+10	1	-1E+10	1	-1E+10	1	-1E+10	1
4902549	90	C	02/08/2023	02:14	-133.459	47.457	0	1875.80	0	2.0220	0	34.5680	0	27.634	0	1851.841	0	43.8	4	13.2	4	-1E+10	1	-1E+10	1	-1E+10	1	-1E+10	1	-1E+10	1	-1E+10	1
4902549	90	C	02/08/2023	02:14	-133.459	47.457	0	1885.80	0	2.0150	0	34.5700	0	27.636	0	1861.669	0	44.7	4	13.5	4	-1E+10	1	-1E+10	1	-1E+10	1	-1E+10	1	-1E+10	1	-1E+10	1
4902549	90	C	02/08/2023	02:14	-133.459	47.457	0	1895.40	0	2.0050	0	34.5720	0	27.638	0	1871.104	0	45.6	4	13.7	4	-1E+10	1	-1E+10	1	-1E+10	1	-1E+10	1	-1E+10	1	-1E+10	1
4902549	90	C	02/08/2023	02:14	-133.459	47.457	0	1905.40	0	1.9950	0	34.5740	0	27.641	0	1880.932	0	46.3	4	14.0	4	-1E+10	1	-1E+10	1	-1E+10	1	-1E+10	1	-1E+10	1	-1E+10	1
4902549	90	C	02/08/2023	02:14	-133.459	47.457	0	1915.40	0	1.9890	0	34.5750	0	27.642	0	1890.759	0	46.7	4	14.1	4	-1E+10	1	-1E+10	1	-1E+10	1	-1E+10	1	-1E+10	1	-1E+10	1
4902549	90	C	02/08/2023	02:14	-133.459	47.457	0	1925.50	0	1.9810	0	34.5760	0	27.644	0	1900.684	0	47.2	4	14.2	4	-1E+10	1	-1E+10	1	-1E+10	1	-1E+10	1	-1E+10	1	-1E+10	1
4902549	90	C	02/08/2023	02:14	-133.459	47.457	0	1935.60	0	1.9730	0	34.5770	0	27.645	0	1910.609	0	47.8	4	14.4	4	-1E+10	1	-1E+10	1	-1E+10	1	-1E+10	1	-1E+10	1	-1E+10	1
4902549	90	C	02/08/2023	02:14	-133.459	47.457	0	1945.50	0	1.9660	0	34.5780	0	27.646	0	1920.336	0	48.4	4	14.6	4	-1E+10	1	-1E+10	1	-1E+10	1	-1E+10	1	-1E+10	1	-1E+10	1
4902549	90	C	02/08/2023	02:14	-133.459	47.457	0	1955.30	0	1.9580	0	34.5800	0	27.649	0	1929.965	0	49.0	4	14.7	4	-1E+10	1	-1E+10	1	-1E+10	1	-1E+10	1	-1E+10	1	-1E+10	1
4902549	90	C	02/08/2023	02:14	-133.459	47.457	0	1965.40	0	1.9520	0	34.5810	0	27.650	0	1939.888	0	49.4	4	14.9	4	-1E+10	1	-1E+10	1	-1E+10	1	-1E+10	1	-1E+10	1	-1E+10	1
4902549	90	C	02/08/2023	02:14	-133.459	47.457	0	1975.60	0	1.9430	0	34.5820	0	27.652	0	1949.909	0	49.7	4	14.9	4	-1E+10	1	-1E+10	1	-1E+10	1	-1E+10	1	-1E+10	1	-1E+10	1
4902549	90	C	02/08/2023	02:14	-133.459	47.457	0	1984.20	0	1.9390	0	34.5830	0	27.653	0	1958.358	0	49.4	4	14.9	4	-1E+10	1	-1E+10	1	-1E+10	1	-1E+10	1	-1E+10	1	-1E+10	1
4902549	90	C	02/08/2023	02:14	-133.459	47.457	0																										
4902549	91	C	02/18/2023	07:10	-133.576	47.422	0	0.30	0	8.8390	0	32.3080	0	25.036	0	0.297	0	270.8	4	94.3	4	-1E+10	1	-1E+10	1	-1E+10	1	-1E+10	1	-1E+10	1	-1E+10	1
4902549	91	C	02/18/2023	07:10	-133.576	47.422	0	0.40	0	8.8430	0	32.3060	0	25.034	0	0.397	0	270.7	4	94.3	4	-1E+10	1	-1E+10	1	-1E+10	1	-1E+10	1	-1E+10	1	-1E+10	1
4902549	91	C	02/18/2023	07:10	-133.576	47.422	0	1.00	0	8.8420	0	32.3060	0	25.034	0	0.992	0	270.7	4	94.3	4	-1E+10	1	-1E+10	1	-1E+10	1	-1E+10	1	-1E+10	1	-1E+10	1
4902549	91	C	02/18/2023	07:10	-133.576	47.422	0	1.90	0	8.8430	0	32.3070	0	25.035	0	1.884	0	270.7	4	94.3	4	-1E+10	1	-1E+10	1	-1E+10	1	-1E+10	1	-1E+10	1	-1E+10	1
4902549	91	C	02/18/2023	07:10	-133.576	47.422	0	2.80	0	8.8430	0	32.3060	0	25.034	0	2.777	0	270.7	4	94.3	4	-1E+10	1	-1E+10	1	-1E+10	1	-1E+10	1	-1E+10	1	-1E+10	1
4902549	91	C	02/18/2023	07:10	-133.576	47.422	0	3.90	0	8.8400	0	32.3090	0	25.037	0	3.867	0	270.7	4	94.3	4	-1E+10	1	-1E+10	1	-1E+10	1	-1E+10	1	-1E+10	1	-1E+10	1
4902549	91	C	02/18/2023	07:10	-133.576	47.422	0	4.80	0	8.8430	0	32.3070	0	25.035	0	4.760	0	270.6	4	94.3	4	-1E+10	1	-1E+10	1	-1E+10	1	-1E+10	1	-1E+10	1	-1E+10	1
4902549	91	C	02/18/2023	07:10	-133.576	47.422	0	5.80	0	8.8480	0	32.3070	0	25.034	0	5.752	0	270.6	4	94.2	4	-1E+10	1	-1E+10	1	-1E+10	1	-1E+10	1	-1E+10	1	-1E+10	1
4902549	91	C	02/18/2023	07:10	-133.576	47.422	0	7.00	0	8.8470	0	32.3070	0	25.034	0	6.942	0	270.5	4	94.2	4	-1E+10	1	-1E+10	1	-1E+10	1	-1E+10	1	-1E+10	1	-1E+10	1
4902549	91	C	02/18/2023	07:10	-133.576	47.422	0	8.10	0	8.8450	0	32.3070	0	25.034	0	8.032	0	270.5	4	94.2	4	-1E+10	1	-1E+10	1	-1E+10	1	-1E+10	1	-1E+10	1	-1E+10	1
4902549	91	C	02/18/2023	07:10	-133.576	47.422	0	9.00	0	8.8440	0	32.3070	0	25.034	0	8.925	0	270.4	4	94.2	4	-1E+10	1	-1E+10	1	-1E+10	1	-1E+10	1	-1E+10	1	-1E+10	1
4902549	91	C	02/18/2023	07:10	-133.576	47.422	0	9.80	0	8.8440	0	32.3070	0	25.034	0	9.718	0	270.5	4	94.2	4	-1E+10	1	-1E+10	1	-1E+10	1	-1E+10	1	-1E+10	1	-1E+10	1
4902549	91	C	02/18/2023	07:10	-133.576	47.422	0	11.00	0	8.8450	0	32.3070	0	25.034	0	10.908	0	270.5	4	94.2	4	-1E+10	1	-1E+10	1	-1E+10	1	-1E+10	1	-1E+10	1	-1E+10	1
4902549	91	C	02/18/2023	07:10	-133.576	47.422	0	12.10	0	8.8480	0	32.3070	0	25.034	0	11.999	0	270.4	4	94.2	4	-1E+10	1	-1E+10	1	-1E+10	1	-1E+10	1	-1E+10	1	-1E+10	1
4902549	91	C	02/18/2023	07:10	-133.576	47.422	0	13.00	0	8.8450	0	32.3070	0	25.034	0	12.891	0	270.4	4	94.2	4	-1E+10	1	-1E+10	1	-1E+10	1	-1E+10	1	-1E+10	1	-1E+10	1
4902549	91	C	02/18/2023	07:10	-133.576	47.422	0	14.00	0	8.8460	0	32.3070	0	25.034	0	13.883	0	270.5	4	94.2	4	-1E+10	1	-1E+10	1	-1E+10	1	-1E+10	1	-1E+10	1	-1E+10	1
4902549	91	C	02/18/2023	07:10	-133.576	47.422	0	14.90	0	8.8440	0	32.3070	0	25.035	0	14.775	0	270.6	4	94.2	4	-1E+10	1	-1E+10	1	-1E+10	1	-1E+10	1	-1E+10	1	-1E+10	1
4902549	91	C	02/18/2023	07:10	-133.576	47.422	0	16.00	0	8.8480	0	32.3050	0	25.032	0	15.866	0	270.6	4	94.2	4	-1E+10	1	-1E+10	1	-1E+10	1	-1E+10	1	-1E+10	1	-1E+10	1
4902549	91	C	02/18/2023	07:10	-133.576	47.422	0	17.00	0	8.8460	0	32.3070	0	25.034	0	16.858	0	270.5	4	94.2	4	-1E+10	1	-1E+10	1	-1E+10	1	-1E+10	1	-1E+10	1	-1E+10	1
4902549	91	C	02/18/2023	07:10	-133.576	47.422	0	18.00	0	8.8470	0	32.3050	0	25.033	0	17.849	0	270.5	4	94.2	4	-1E+10	1	-1E+10	1	-1E+10	1	-1E+10	1	-1E+10	1	-1E+10	1
4902549	91	C	02/18/2023	07:10	-133.576	47.422	0	18.90	0	8.8490	0	32.3070	0	25.034	0	18.742	0	270.5	4	94.2	4	-1E+10	1	-1E+10	1	-1E+10	1	-1E+10	1	-1E+10	1	-1E+10	1
4902549	91	C	02/18/2023	07:10	-133.576	47.422	0	19.80	0	8.8490	0	32.3070	0	25.034	0	19.634	0	270.4	4	94.2	4	-1E+10	1	-1E+10	1	-1E+10	1	-1E+10	1	-1E+10	1	-1E+10	1
4902549	91	C	02/18/2023	07:10	-133.576	47.422	0	20.90	0	8.8490	0	32.3070	0	25.034	0	20.725	0	270.5	4	94.2	4	-1E+10	1	-1E+10	1	-1E+10	1	-1E+10	1	-1E+10	1	-1E+10	1
4902549	91	C	02/18/2023	07:10	-133.576	47.422	0	22.00	0	8.8510	0	32.3070	0	25.034	0	21.815	0	270.4	4	94.2	4	-1E+10	1	-1E+10	1	-1E+10	1	-1E+10	1	-1E+10	1	-1E+10	1
4902549	91	C	02/18/2023	07:10	-133.576	47.422	0	23.10	0	8.8520	0	32.3060	0	25.033	0	22.906	0	270.4	4	94.2	4	-1E+10	1	-1E+10	1	-1E+10	1	-1E+10	1	-1E+10	1	-1E+10	1
4902549	91	C	02/18/2023	07:10	-133.576	47.422	0	24.10	0	8.8520	0	32.3070	0	25.033	0	23.898	0	270.4	4	94.2	4	-1E+10	1	-1E+10	1	-1E+10	1	-1E+10	1	-1E+10	1	-1E+10	1
4902549	91	C	02/18/2023	07:10	-133.576	47.422	0	25.10	0	8.8500	0	32.3060	0	25.033	0	24.889	0	270.3	4	94.1	4	-1E+10	1	-1E+10	1	-1E+10	1	-1E+10	1	-1E+10	1	-1E+10	1
4902549	91	C	02/18/2023	07:10	-133.576	47.422	0	26.20	0	8.8510	0	32.3070	0	25.034	0	25.980	0	270.2	4	94.1	4	-1E+10	1	-1E+10	1	-1E+10	1	-1E+10	1	-1E+10	1	-1E+10	1
4902549	91	C	02/18/2023	07:10	-133.576	47.422	0	27.10	0	8.8510	0	32.3070	0	25.034	0	26.872	0	270.3	4	94.1	4	-1E+10	1	-1E+10	1	-1E+10	1	-1E+10	1	-1E+10	1	-1E+10	1
4902549	91	C	02/18/2023	07:10	-133.576	47.422	0	27.90	0	8.8510	0	32.3060	0	25.033	0	27.665	0	270.2	4	94.1	4	-1E+10	1	-1E+10	1	-1E+10	1	-1E+10	1	-1E+10	1	-1E+10	1
4902549	91	C	02/18/2023	07:10	-133.576	47.422	0	28.80	0	8.8520	0	32.3070	0	25.034	0	28.558	0	270.2	4	94.1	4	-1E+10	1	-1E+10	1	-1E+10	1	-1E+10	1	-1E+10	1	-1E+10	1
4902549	91	C	02/18/2023	07:10	-133.576	47.422	0	30.00	0	8.8520	0	32.3070	0	25.034	0	29.748	0	270.2	4	94.1	4	-1E+10	1	-1E+10	1	-1E+10	1	-1E+10	1	-1E+10	1	-1E+10	1
4902549	91	C	02/18/2023	07:10	-133.576	47.422	0	31.20	0	8.8520	0	32.3070	0	25.034	0	30.937	0	270.2	4	94.1	4	-1E+10	1	-1E+10	1	-1E+10	1	-1E+10	1	-1E+10	1	-1E+10	1
4902549	91	C	02/18/2023	07:10	-133.576	47.422	0	32.00	0	8.8530	0	32.3060	0	25.033	0	31.731	0	270.1	4	94.1	4	-1E+10	1	-1E+10	1	-1E+10	1	-1E+10	1	-1E+10	1	-1E+10	1
4902549	91	C	02/18/2023	07:10	-133.576	47.422	0	33.20	0	8.8520	0	32.3070	0	25.034	0	32.921	0	270.2	4	94.1	4	-1E+10	1	-1E+10	1	-1E+10	1	-1E+10	1	-1E+10	1	-1E+10	1
4902549	91	C	02/18/2023	07:10	-133.576	47.422	0	34.10	0	8.8530	0	32.3070	0	25.033	0	33.813	0	270.1	4	94.1	4	-1E+10	1	-1E+10	1	-1E+10	1	-1E+10	1	-1E+10	1	-1E+10	1
4902549	91	C	02/18/2023	07:10	-133.576	47.422	0	35.00	0	8.8530	0	32.3070	0	25.033	0	34.705	0	270.1	4	94.1	4	-1E+10	1	-1E+10	1	-1E+10	1	-1E+10	1	-1E+10	1	-1E+10	1
4902549	91	C	02/18/2023	07:10	-133.576	47.422	0	36.00	0	8.8540	0	32.3060	0	25.033	0	35.697	0	270.1	4	94.1	4	-1E+10	1	-1E+10	1	-1E+10	1	-1E+10	1	-1E+10	1	-1E+10	1
4902549	91	C	02/18/2023	07:10	-133.576	47.422	0	37.00	0	8.8550	0	32.3070	0	25.033	0	36.688	0	269.9	4	94.0	4	-1E+10	1	-1E+10	1	-1E+10	1	-1E+10	1	-1E+10	1	-1E+10	1
4902549	91	C	02/18/2023	07:10	-133.576	47.422	0	37.90	0	8.8550	0	32.3060	0	25.032	0	37.581	0	269.9	4	94.0	4	-1E+10	1	-1E+10	1	-1E+10	1	-1E+10	1	-1E+10	1	-1E+10	1
4902549	91	C	02/18/2023	07:10	-133.576	47.422	0	38.80	0	8.8550	0	32.3060	0	25.032	0	38.473	0	269.9	4	94.0	4	-1E+10	1	-1E+10	1	-1E+10	1	-1E+10	1	-1E+10	1	-1E+10	1
4902549	91	C	02/18/2023	07:10	-133.576	47.422	0	39.80	0	8.8550	0	32.3060	0	25.032	0	39.464	0	269.8	4	94.0	4	-1E+10	1	-1E+10	1	-1E+10	1	-1E+10	1	-1E+10	1	-1E+10	1
4902549	91	C	02/18/2023	07:10	-133.576	47.422	0	41.00	0	8.8550	0	32.3070	0	25.033	0	40.654	0	269.8	4	94.0	4	-1E+10	1	-1E+10	1	-1E+10	1	-1E+10	1	-1E+10	1	-1E+10	1
4902549	91	C	02/18/2023	07:10	-133.576	47.422	0	42.10	0	8.8560	0	32.3060	0	25.032	0	41.745	0	269.7	4	94.0	4	-1E+10	1	-1E+10	1	-1E+10	1	-1E+10	1	-1E+10	1	-1E+10	1
4902549	91	C	02/18/2023	07:10	-133.576	47.422	0	42.80	0	8.8550	0	32.3060	0	25.033	0	42.439	0	269.8	4	94.0	4	-1E+10	1	-1E+10	1	-1E+10	1	-1E+10	1	-1E+10	1	-1E+10	1
4902549	91	C	02/18/2023	07:10	-133.576	47.422	0	43.90	0	8.8550	0	32.3060	0	25.033	0	43.529	0	269.7	4	93.9	4	-1E+10	1	-1E+10	1	-1E+10	1	-1E+10	1	-1E+10	1	-1E+10	1
4902549	91	C	02/18/2023	07:10	-133.576	47.422	0	45.00	0	8.8550	0	32.3060	0	25.033	0	44.620	0	269.6	4	93.9	4	-1E+10	1	-1E+10	1	-1E+10	1	-1E+10	1	-1E+10	1	-1E+10	1
4902549	91	C	02/18/2023	07:10	-133.576	47.422	0	46.00	0	8.8550	0	32.3060	0	25.033	0	45.611	0	269.7	4	94.0	4	-1E+10	1	-1E+10	1	-1E+10	1	-1E+10	1	-1E+10	1	-1E+10	1
4902549	91	C	02/18/2023	07:10	-133.576	47.422	0	47.10	0	8.8550	0	32.3060	0	25.033	0	46.702	0	269.6	4	93.9	4	-1E+10	1	-1E+10	1	-1E+10	1	-1E+10	1	-1E+10	1	-1E+10	1
4902549	91	C	02/18/2023	07:10	-133.576	47.422	0	48.00	0	8.8550	0	32.3070	0	25.033	0	47.594	0	269.6	4	93.9	4	-1E+10	1	-1E+10	1	-1E+10	1	-1E+10	1	-1E+10	1	-1E+10	1
4902549	91	C	02/18/2023	07:10	-133.576	47.422	0	49.10	0	8.8550	0	32.3060	0	25.033	0	48.685	0	269.6	4	93.9	4	-1E+10	1	-1E+10	1	-1E+10	1	-1E+10	1	-1E+10	1	-1E+10	1
4902549	91	C	02/18/2023	07:10	-133.576	47.422	0	50.10	0	8.8550	0	32.3060	0	25.033	0	49.676	0	269.5	4	93.9	4	-1E+10	1	-1E+10	1	-1E+10	1	-1E+10	1	-1E+10	1	-1E+10	1
4902549	91	C	02/18/2023	07:10	-133.576	47.422	0	51.00	0	8.8550	0	32.3070	0	25.033	0	50.568	0	269.4	4	93.9	4	-1E+10	1	-1E+10	1	-1E+10	1	-1E+10	1	-1E+10	1	-1E+10	1
4902549	91	C	02/18/2023	07:10	-133.576	47.422	0	51.90	0	8.8550	0	32.3070	0	25.033	0	51.461	0	269.5	4	93.9	4	-1E+10	1	-1E+10	1	-1E+10	1	-1E+10	1	-1E+10	1	-1E+10	1
4902549	91	C	02/18/2023	07:10	-133.576	47.422	0	52.90	0	8.8550	0	32.3060	0	25.033	0	52.452	0	269.3	4	93.8	4	-1E+10	1	-1E+10	1	-1E+10	1	-1E+10	1	-1E+10	1	-1E+10	1
4902549	91	C	02/18/2023	07:10	-133.576	47.422	0	53.90	0	8.8550	0	32.3070	0	25.033	0	53.444	0	269.3	4	93.8	4	-1E+10	1	-1E+10	1	-1E+10	1	-1E+10	1	-1E+10	1	-1E+10	1
4902549	91	C	02/18/2023	07:10	-133.576	47.422	0	54.90	0	8.8560	0	32.3070	0	25.033	0	54.435	0	269.3	4	93.8	4	-1E+10	1	-1E+10	1	-1E+10	1	-1E+10	1	-1E+10	1	-1E+10	1
4902549	91	C	02/18/2023	07:10	-133.576	47.422	0	55.90	0	8.8560	0	32.3060	0	25.033	0	55.426	0	269.1	4	93.7	4	-1E+10	1	-1E+10	1	-1E+10	1	-1E+10	1	-1E+10	1	-1E+10	1
4902549	91	C	02/18/2023	07:10	-133.576	47.422	0	57.00	0	8.8560	0	32.3070	0	25.033	0	56.517	0	269.1	4	93.7	4	-1E+10	1	-1E+10	1	-1E+10	1	-1E+10	1	-1E+10	1	-1E+10	1
4902549	91	C	02/18/2023	07:10	-133.576	47.422	0	58.20	0	8.8570	0	32.3060	0	25.032	0	57.707	0	268.9	4	93.7	4	-1E+10	1	-1E+10	1	-1E+10	1	-1E+10	1	-1E+10	1	-1E+10	1
4902549	91	C	02/18/2023	07:10	-133.576	47.422	0	58.90	0	8.8560	0	32.3060	0	25.033	0	58.401	0	268.9	4	93.7	4	-1E+10	1	-1E+10	1	-1E+10	1	-1E+10	1	-1E+10	1	-1E+10	1
4902549	91	C	02/18/2023	07:10	-133.576	47.422	0	60.10	0	8.8550	0	32.3060	0	25.033	0	59.590	0	268.8	4	93.6	4	-1E+10	1	-1E+10	1	-1E+10	1	-1E+10	1	-1E+10	1	-1E+10	1
4902549	91	C	02/18/2023	07:10	-133.576	47.422	0	60.90	0	8.8270	0	32.3110	0	25.041	0	60.383	0	268.8	4	93.6	4	-1E+10	1	-1E+10	1	-1E+10	1	-1E+10	1	-1E+10	1	-1E+10	1
4902549	91	C	02/18/2023	07:10	-133.576	47.422	0	62.10	0	8.8120	0	32.3150	0	25.046	0	61.573	0	268.9	4	93.6	4	-1E+10	1	-1E+10	1	-1E+10	1	-1E+10	1	-1E+10	1	-1E+10	1
4902549	91	C	02/18/2023	07:10	-133.576	47.422	0	62.90	0	8.8070	0	32.3160	0	25.048	0	62.366	0	268.9	4	93.6	4	-1E+10	1	-1E+10	1	-1E+10	1	-1E+10	1	-1E+10	1	-1E+10	1
4902549	91	C	02/18/2023	07:10	-133.576	47.422	0	63.90	0	8.8000	0	32.3070	0	25.042	0	63.357	0	269.0	4	93.6	4	-1E+10	1	-1E+10	1	-1E+10	1	-1E+10	1	-1E+10	1	-1E+10	1
4902549	91	C	02/18/2023	07:10	-133.576	47.422	0	65.00	0	8.7660	0	32.3210	0	25.058	0	64.448	0	268.9	4	93.5	4	-1E+10	1	-1E+10	1	-1E+10	1	-1E+10	1	-1E+10	1	-1E+10	1
4902549	91	C	02/18/2023	07:10	-133.576	47.422	0	66.00	0	8.7470	0	32.3250	0	25.064	0	65.439	0	268.9	4	93.5	4	-1E+10	1	-1E+10	1	-1E+10	1	-1E+10	1	-1E+10	1	-1E+10	1
4902549	91	C	02/18/2023	07:10	-133.576	47.422	0	67.10	0	8.7460	0	32.3290	0	25.068	0	66.530	0	268.8	4	93.4	4	-1E+10	1	-1E+10	1	-1E+10	1	-1E+10	1	-1E+10	1	-1E+10	1
4902549	91	C	02/18/2023	07:10	-133.576	47.422	0	68.10	0	8.7360	0	32.3280	0	25.068	0	67.521	0	268.8	4	93.4	4	-1E+10	1	-1E+10	1	-1E+10	1	-1E+10	1	-1E+10	1	-1E+10	1
4902549	91	C	02/18/2023	07:10	-133.576	47.422	0	69.20	0	8.7350	0	32.3280	0	25.068	0	68.611	0	268.7	4	93.4	4	-1E+10	1	-1E+10	1	-1E+10	1	-1E+10	1	-1E+10	1	-1E+10	1
4902549	91	C	02/18/2023	07:10	-133.576	47.422	0	70.00	0	8.7340	0	32.3270	0	25.068	0	69.405	0	268.6	4	93.3	4	-1E+10	1	-1E+10	1	-1E+10	1	-1E+10	1	-1E+10	1	-1E+10	1
4902549	91	C	02/18/2023	07:10	-133.576	47.422	0	71.00	0	8.7170	0	32.3280	0	25.071	0	70.396	0	268.6	4	93.3	4	-1E+10	1	-1E+10	1	-1E+10	1	-1E+10	1	-1E+10	1	-1E+10	1
4902549	91	C	02/18/2023	07:10	-133.576	47.422	0	72.10	0	8.7030	0	32.3300	0	25.075	0	71.486	0	268.4	4	93.2	4	-1E+10	1	-1E+10	1	-1E+10	1	-1E+10	1	-1E+10	1	-1E+10	1
4902549	91	C	02/18/2023	07:10	-133.576	47.422	0	72.90	0	8.7000	0	32.3300	0	25.075	0	72.279	0	268.3	4	93.2	4	-1E+10	1	-1E+10	1	-1E+10	1	-1E+10	1	-1E+10	1	-1E+10	1
4902549	91	C	02/18/2023	07:10	-133.576	47.422	0	74.10	0	8.7000	0	32.3300	0	25.075	0	73.469	0	268.1	4	93.1	4	-1E+10	1	-1E+10	1	-1E+10	1	-1E+10	1	-1E+10	1	-1E+10	1
4902549	91	C	02/18/2023	07:10	-133.576	47.422	0	75.00	0	8.7010	0	32.3290	0	25.074	0	74.361	0	267.9	4	93.0	4	-1E+10	1	-1E+10	1	-1E+10	1	-1E+10	1	-1E+10	1	-1E+10	1
4902549	91	C	02/18/2023	07:10	-133.576	47.422	0	76.00	0	8.7020	0	32.3290	0	25.074	0	75.352	0	267.6	4	92.9	4	-1E+10	1	-1E+10	1	-1E+10	1	-1E+10	1	-1E+10	1	-1E+10	1
4902549	91	C	02/18/2023	07:10	-133.576	47.422	0	77.10	0	8.6960	0	32.3310	0	25.077	0	76.443	0	267.3	4	92.8	4	-1E+10	1	-1E+10	1	-1E+10	1	-1E+10	1	-1E+10	1	-1E+10	1
4902549	91	C	02/18/2023	07:10	-133.576	47.422	0	78.00	0	8.6950	0	32.3310	0	25.077	0	77.335	0	267.1	4	92.7	4	-1E+10	1	-1E+10	1	-1E+10	1	-1E+10	1	-1E+10	1	-1E+10	1
4902549	91	C	02/18/2023	07:10	-133.576	47.422	0	79.30	0	8.6930	0	32.3310	0	25.077	0	78.624	0	266.7	4	92.6	4	-1E+10	1	-1E+10	1	-1E+10	1	-1E+10	1	-1E+10	1	-1E+10	1
4902549	91	C	02/18/2023	07:10	-133.576	47.422	0	80.20	0	8.6930	0	32.3310	0	25.077	0	79.516	0	266.4	4	92.5	4	-1E+10	1	-1E+10	1	-1E+10	1	-1E+10	1	-1E+10	1	-1E+10	1
4902549	91	C	02/18/2023	07:10	-133.576	47.422	0	81.10	0	8.6850	0	32.3330	0	25.080	0	80.408	0	266.0	4	92.3	4	-1E+10	1	-1E+10	1	-1E+10	1	-1E+10	1	-1E+10	1	-1E+10	1
4902549	91	C	02/18/2023	07:10	-133.576	47.422	0	81.80	0	8.6820	0	32.3330	0	25.081	0	81.102	0	265.6	4	92.2	4	-1E+10	1	-1E+10	1	-1E+10	1	-1E+10	1	-1E+10	1	-1E+10	1
4902549	91	C	02/18/2023	07:10	-133.576	47.422	0	82.90	0	8.6800	0	32.3330	0	25.081	0	82.192	0	271.6	4	94.3	4	-1E+10	1	-1E+10	1	-1E+10	1	-1E+10	1	-1E+10	1	-1E+10	1
4902549	91	C	02/18/2023	07:10	-133.576	47.422	0	84.30	0	8.6760	0	32.3330	0	25.082	0	83.580	0	270.6	4	93.9	4	-1E+10	1	-1E+10	1	-1E+10	1	-1E+10	1	-1E+10	1	-1E+10	1
4902549	91	C	02/18/2023	07:10	-133.576	47.422	0	85.20	0	8.6690	0	32.3350	0	25.084	0	84.472	0	269.8	4	93.6	4	-1E+10	1	-1E+10	1	-1E+10	1	-1E+10	1	-1E+10	1	-1E+10	1
4902549	91	C	02/18/2023	07:10	-133.576	47.422	0	85.90	0	8.6680	0	32.3340	0	25.084	0	85.166	0	269.1	4	93.4	4	-1E+10	1	-1E+10	1	-1E+10	1	-1E+10	1	-1E+10	1	-1E+10	1
4902549	91	C	02/18/2023	07:10	-133.576	47.422	0	86.80	0	8.6650	0	32.3350	0	25.085	0	86.058	0	267.9	4	92.9	4	-1E+10	1	-1E+10	1	-1E+10	1	-1E+10	1	-1E+10	1	-1E+10	1
4902549	91	C	02/18/2023	07:10	-133.576	47.422	0	87.90	0	8.6580	0	32.3350	0	25.086	0	87.148	0	266.2	4	92.3	4	-1E+10	1	-1E+10	1	-1E+10	1	-1E+10	1	-1E+10	1	-1E+10	1
4902549	91	C	02/18/2023	07:10	-133.576	47.422	0	89.30	0	8.6530	0	32.3360	0	25.087	0	88.536	0	263.7	4	91.5	4	-1E+10	1	-1E+10	1	-1E+10	1	-1E+10	1	-1E+10	1	-1E+10	1
4902549	91	C	02/18/2023	07:10	-133.576	47.422	0	90.10	0	8.6510	0	32.3370	0	25.089	0	89.329	0	261.5	4	90.7	4	-1E+10	1	-1E+10	1	-1E+10	1	-1E+10	1	-1E+10	1	-1E+10	1
4902549	91	C	02/18/2023	07:10	-133.576	47.422	0	90.80	0	8.6510	0	32.3400	0	25.091	0	90.023	0	259.1	4	89.9	4	-1E+10	1	-1E+10	1	-1E+10	1	-1E+10	1	-1E+10	1	-1E+10	1
4902549	91	C	02/18/2023	07:10	-133.576	47.422	0	91.90	0	8.6460	0	32.3410	0	25.092	0	91.113	0	254.5	4	88.3	4	-1E+10	1	-1E+10	1	-1E+10	1	-1E+10	1	-1E+10	1	-1E+10	1
4902549	91	C	02/18/2023	07:10	-133.576	47.422	0	92.90	0	8.6060	0	32.3570	0	25.111	0	92.105	0	248.9	4	86.2	4	-1E+10	1	-1E+10	1	-1E+10	1	-1E+10	1	-1E+10	1	-1E+10	1
4902549	91	C	02/18/2023	07:10	-133.576	47.422	0	94.00	0	8.5770	0	32.3680	0	25.124	0	93.195	0	241.8	4	83.7	4	-1E+10	1	-1E+10	1	-1E+10	1	-1E+10	1	-1E+10	1	-1E+10	1
4902549	91	C	02/18/2023	07:10	-133.576	47.422	0	95.20	0	8.4330	0	32.4400	0	25.202	0	94.384	0	236.0	4	81.5	4	-1E+10	1	-1E+10	1	-1E+10	1	-1E+10	1	-1E+10	1	-1E+10	1
4902549	91	C	02/18/2023	07:10	-133.576	47.422	0	96.00	0	8.2510	0	32.5100	0	25.284	0	95.177	0	231.9	4	79.8	4	-1E+10	1	-1E+10	1	-1E+10	1	-1E+10	1	-1E+10	1	-1E+10	1
4902549	91	C	02/18/2023	07:10	-133.576	47.422	0	97.00	0	7.9220	0	32.6260	0	25.423	0	96.169	0	227.2	4	77.7	4	-1E+10	1	-1E+10	1	-1E+10	1	-1E+10	1	-1E+10	1	-1E+10	1
4902549	91	C	02/18/2023	07:10	-133.576	47.422	0	98.00	0	7.7010	0	32.6850	0	25.501	0	97.160	0	225.5	4	76.8	4	-1E+10	1	-1E+10	1	-1E+10	1	-1E+10	1	-1E+10	1	-1E+10	1
4902549	91	C	02/18/2023	07:10	-133.576	47.422	0	98.90	0	7.6800	0	32.7000	0	25.515	0	98.052	0	222.8	4	75.8	4	-1E+10	1	-1E+10	1	-1E+10	1	-1E+10	1	-1E+10	1	-1E+10	1
4902549	91	C	02/18/2023	07:10	-133.576	47.422	0	99.90	0	7.6710	0	32.7170	0	25.530	0	99.043	0	220.1	4	74.9	4	-1E+10	1	-1E+10	1	-1E+10	1	-1E+10	1	-1E+10	1	-1E+10	1
4902549	91	C	02/18/2023	07:10	-133.576	47.422	0	101.10	0	7.6000	0	32.7550	0	25.570	0	100.232	0	217.7	4	74.0	4	-1E+10	1	-1E+10	1	-1E+10	1	-1E+10	1	-1E+10	1	-1E+10	1
4902549	91	C	02/18/2023	07:10	-133.576	47.422	0	102.00	0	7.5190	0	32.7950	0	25.613	0	101.124	0	216.2	4	73.4	4	-1E+10	1	-1E+10	1	-1E+10	1	-1E+10	1	-1E+10	1	-1E+10	1
4902549	91	C	02/18/2023	07:10	-133.576	47.422	0	103.10	0	7.4970	0	32.8190	0	25.635	0	102.215	0	214.1	4	72.6	4	-1E+10	1	-1E+10	1	-1E+10	1	-1E+10	1	-1E+10	1	-1E+10	1
4902549	91	C	02/18/2023	07:10	-133.576	47.422	0	104.00	0	7.5020	0	32.8300	0	25.643	0	103.107	0	211.0	4	71.6	4	-1E+10	1	-1E+10	1	-1E+10	1	-1E+10	1	-1E+10	1	-1E+10	1
4902549	91	C	02/18/2023	07:10	-133.576	47.422	0	105.10	0	7.4910	0	32.8640	0	25.671	0	104.197	0	207.7	4	70.5	4	-1E+10	1	-1E+10	1	-1E+10	1	-1E+10	1	-1E+10	1	-1E+10	1
4902549	91	C	02/18/2023	07:10	-133.576	47.422	0	105.90	0	7.4720	0	32.9000	0	25.702	0	104.990	0	206.4	4	70.0	4	-1E+10	1	-1E+10	1	-1E+10	1	-1E+10	1	-1E+10	1	-1E+10	1
4902549	91	C	02/18/2023	07:10	-133.576	47.422	0	106.90	0	7.4560	0	32.9250	0	25.724	0	105.981	0	205.3	4	69.6	4	-1E+10	1	-1E+10	1	-1E+10	1	-1E+10	1	-1E+10	1	-1E+10	1
4902549	91	C	02/18/2023	07:10	-133.576	47.422	0	107.90	0	7.4500	0	32.9420	0	25.738	0	106.972	0	203.9	4	69.1	4	-1E+10	1	-1E+10	1	-1E+10	1	-1E+10	1	-1E+10	1	-1E+10	1
4902549	91	C	02/18/2023	07:10	-133.576	47.422	0	108.80	0	7.4300	0	32.9640	0	25.758	0	107.864	0	202.4	4	68.6	4	-1E+10	1	-1E+10	1	-1E+10	1	-1E+10	1	-1E+10	1	-1E+10	1
4902549	91	C	02/18/2023	07:10	-133.576	47.422	0	109.80	0	7.4090	0	32.9820	0	25.775	0	108.855	0	200.7	4	68.0	4	-1E+10	1	-1E+10	1	-1E+10	1	-1E+10	1	-1E+10	1	-1E+10	1
4902549	91	C	02/18/2023	07:10	-133.576	47.422	0	110.80	0	7.3990	0	32.9840	0	25.778	0	109.847	0	198.7	4	67.3	4	-1E+10	1	-1E+10	1	-1E+10	1	-1E+10	1	-1E+10	1	-1E+10	1
4902549	91	C	02/18/2023	07:10	-133.576	47.422	0	112.00	0	7.3850	0	33.0010	0	25.793	0	111.036	0	196.2	4	66.5	4	-1E+10	1	-1E+10	1	-1E+10	1	-1E+10	1	-1E+10	1	-1E+10	1
4902549	91	C	02/18/2023	07:10	-133.576	47.422	0	113.20	0	7.3690	0	33.0340	0	25.822	0	112.225	0	193.5	4	65.6	4	-1E+10	1	-1E+10	1	-1E+10	1	-1E+10	1	-1E+10	1	-1E+10	1
4902549	91	C	02/18/2023	07:10	-133.576	47.422	0	113.90	0	7.3670	0	33.0630	0	25.845	0	112.919	0	192.2	4	65.1	4	-1E+10	1	-1E+10	1	-1E+10	1	-1E+10	1	-1E+10	1	-1E+10	1
4902549	91	C	02/18/2023	07:10	-133.576	47.422	0	114.80	0	7.3600	0	33.0930	0	25.869	0	113.811	0	190.6	4	64.6	4	-1E+10	1	-1E+10	1	-1E+10	1	-1E+10	1	-1E+10	1	-1E+10	1
4902549	91	C	02/18/2023	07:10	-133.576	47.422	0	115.80	0	7.3390	0	33.1150	0	25.889	0	114.802	0	188.9	4	64.0	4	-1E+10	1	-1E+10	1	-1E+10	1	-1E+10	1	-1E+10	1	-1E+10	1
4902549	91	C	02/18/2023	07:10	-133.576	47.422	0	116.80	0	7.3300	0	33.1360	0	25.907	0	115.793	0	187.0	4	63.3	4	-1E+10	1	-1E+10	1	-1E+10	1	-1E+10	1	-1E+10	1	-1E+10	1
4902549	91	C	02/18/2023	07:10	-133.576	47.422	0	117.90	0	7.3280	0	33.1560	0	25.923	0	116.883	0	185.1	4	62.7	4	-1E+10	1	-1E+10	1	-1E+10	1	-1E+10	1	-1E+10	1	-1E+10	1
4902549	91	C	02/18/2023	07:10	-133.576	47.422	0	119.00	0	7.3410	0	33.1980	0	25.954	0	117.974	0	183.5	4	62.2	4	-1E+10	1	-1E+10	1	-1E+10	1	-1E+10	1	-1E+10	1	-1E+10	1
4902549	91	C	02/18/2023	07:10	-133.576	47.422	0	120.00	0	7.3410	0	33.2090	0	25.963	0	118.965	0	181.9	4	61.7	4	-1E+10	1	-1E+10	1	-1E+10	1	-1E+10	1	-1E+10	1	-1E+10	1
4902549	91	C	02/18/2023	07:10	-133.576	47.422	0	120.90	0	7.3330	0	33.2160	0	25.970	0	119.857	0	180.5	4	61.2	4	-1E+10	1	-1E+10	1	-1E+10	1	-1E+10	1	-1E+10	1	-1E+10	1
4902549	91	C	02/18/2023	07:10	-133.576	47.422	0	121.80	0	7.3380	0	33.2360	0	25.985	0	120.749	0	179.1	4	60.7	4	-1E+10	1	-1E+10	1	-1E+10	1	-1E+10	1	-1E+10	1	-1E+10	1
4902549	91	C	02/18/2023	07:10	-133.576	47.422	0	123.00	0	7.3220	0	33.2760	0	26.019	0	121.938	0	177.5	4	60.2	4	-1E+10	1	-1E+10	1	-1E+10	1	-1E+10	1	-1E+10	1	-1E+10	1
4902549	91	C	02/18/2023	07:10	-133.576	47.422	0	124.00	0	7.3320	0	33.3050	0	26.040	0	122.929	0	176.3	4	59.8	4	-1E+10	1	-1E+10	1	-1E+10	1	-1E+10	1	-1E+10	1	-1E+10	1
4902549	91	C	02/18/2023	07:10	-133.576	47.422	0	125.00	0	7.3250	0	33.3310	0	26.061	0	123.920	0	175.4	4	59.5	4	-1E+10	1	-1E+10	1	-1E+10	1	-1E+10	1	-1E+10	1	-1E+10	1
4902549	91	C	02/18/2023	07:10	-133.576	47.422	0	126.10	0	7.3250	0	33.3400	0	26.068	0	125.010	0	174.4	4	59.1	4	-1E+10	1	-1E+10	1	-1E+10	1	-1E+10	1	-1E+10	1	-1E+10	1
4902549	91	C	02/18/2023	07:10	-133.576	47.422	0	126.80	0	7.3280	0	33.3530	0	26.078	0	125.704	0	173.8	4	58.9	4	-1E+10	1	-1E+10	1	-1E+10	1	-1E+10	1	-1E+10	1	-1E+10	1
4902549	91	C	02/18/2023	07:10	-133.576	47.422	0	127.80	0	7.3270	0	33.3640	0	26.087	0	126.695	0	172.8	4	58.6	4	-1E+10	1	-1E+10	1	-1E+10	1	-1E+10	1	-1E+10	1	-1E+10	1
4902549	91	C	02/18/2023	07:10	-133.576	47.422	0	128.90	0	7.3320	0	33.3870	0	26.105	0	127.785	0	172.0	4	58.4	4	-1E+10	1	-1E+10	1	-1E+10	1	-1E+10	1	-1E+10	1	-1E+10	1
4902549	91	C	02/18/2023	07:10	-133.576	47.422	0	130.00	0	7.3310	0	33.3910	0	26.108	0	128.875	0	171.3	4	58.1	4	-1E+10	1	-1E+10	1	-1E+10	1	-1E+10	1	-1E+10	1	-1E+10	1
4902549	91	C	02/18/2023	07:10	-133.576	47.422	0	131.10	0	7.3300	0	33.3950	0	26.111	0	129.966	0	170.5	4	57.9	4	-1E+10	1	-1E+10	1	-1E+10	1	-1E+10	1	-1E+10	1	-1E+10	1
4902549	91	C	02/18/2023	07:10	-133.576	47.422	0	131.80	0	7.3300	0	33.3960	0	26.112	0	130.659	0	169.9	4	57.7	4	-1E+10	1	-1E+10	1	-1E+10	1	-1E+10	1	-1E+10	1	-1E+10	1
4902549	91	C	02/18/2023	07:10	-133.576	47.422	0	132.90	0	7.3280	0	33.4020	0	26.117	0	131.749	0	169.0	4	57.3	4	-1E+10	1	-1E+10	1	-1E+10	1	-1E+10	1	-1E+10	1	-1E+10	1
4902549	91	C	02/18/2023	07:10	-133.576	47.422	0	134.00	0	7.3240	0	33.4160	0	26.129	0	132.839	0	168.0	4	57.0	4	-1E+10	1	-1E+10	1	-1E+10	1	-1E+10	1	-1E+10	1	-1E+10	1
4902549	91	C	02/18/2023	07:10	-133.576	47.422	0	134.70	0	7.3150	0	33.4290	0	26.140	0	133.533	0	167.4	4	56.8	4	-1E+10	1	-1E+10	1	-1E+10	1	-1E+10	1	-1E+10	1	-1E+10	1
4902549	91	C	02/18/2023	07:10	-133.576	47.422	0	135.80	0	7.3090	0	33.4440	0	26.153	0	134.623	0	166.5	4	56.5	4	-1E+10	1	-1E+10	1	-1E+10	1	-1E+10	1	-1E+10	1	-1E+10	1
4902549	91	C	02/18/2023	07:10	-133.576	47.422	0	137.00	0	7.3140	0	33.4580	0	26.163	0	135.812	0	165.4	4	56.1	4	-1E+10	1	-1E+10	1	-1E+10	1	-1E+10	1	-1E+10	1	-1E+10	1
4902549	91	C	02/18/2023	07:10	-133.576	47.422	0	138.00	0	7.3130	0	33.4690	0	26.172	0	136.803	0	164.3	4	55.8	4	-1E+10	1	-1E+10	1	-1E+10	1	-1E+10	1	-1E+10	1	-1E+10	1
4902549	91	C	02/18/2023	07:10	-133.576	47.422	0	139.20	0	7.3080	0	33.4850	0	26.185	0	137.993	0	163.4	4	55.4	4	-1E+10	1	-1E+10	1	-1E+10	1	-1E+10	1	-1E+10	1	-1E+10	1
4902549	91	C	02/18/2023	07:10	-133.576	47.422	0	139.90	0	7.3050	0	33.4920	0	26.191	0	138.686	0	162.8	4	55.2	4	-1E+10	1	-1E+10	1	-1E+10	1	-1E+10	1	-1E+10	1	-1E+10	1
4902549	91	C	02/18/2023	07:10	-133.576	47.422	0	141.00	0	7.3020	0	33.4960	0	26.195	0	139.776	0	161.6	4	54.8	4	-1E+10	1	-1E+10	1	-1E+10	1	-1E+10	1	-1E+10	1	-1E+10	1
4902549	91	C	02/18/2023	07:10	-133.576	47.422	0	142.20	0	7.2940	0	33.5150	0	26.211	0	140.966	0	160.5	4	54.5	4	-1E+10	1	-1E+10	1	-1E+10	1	-1E+10	1	-1E+10	1	-1E+10	1
4902549	91	C	02/18/2023	07:10	-133.576	47.422	0	143.00	0	7.2930	0	33.5250	0	26.219	0	141.758	0	159.9	4	54.3	4	-1E+10	1	-1E+10	1	-1E+10	1	-1E+10	1	-1E+10	1	-1E+10	1
4902549	91	C	02/18/2023	07:10	-133.576	47.422	0	143.80	0	7.2900	0	33.5420	0	26.233	0	142.551	0	159.2	4	54.0	4	-1E+10	1	-1E+10	1	-1E+10	1	-1E+10	1	-1E+10	1	-1E+10	1
4902549	91	C	02/18/2023	07:10	-133.576	47.422	0	144.90	0	7.2850	0	33.5570	0	26.245	0	143.641	0	158.2	4	53.7	4	-1E+10	1	-1E+10	1	-1E+10	1	-1E+10	1	-1E+10	1	-1E+10	1
4902549	91	C	02/18/2023	07:10	-133.576	47.422	0	146.10	0	7.2790	0	33.5780	0	26.262	0	144.830	0	157.3	4	53.4	4	-1E+10	1	-1E+10	1	-1E+10	1	-1E+10	1	-1E+10	1	-1E+10	1
4902549	91	C	02/18/2023	07:10	-133.576	47.422	0	146.90	0	7.2780	0	33.5810	0	26.265	0	145.623	0	156.7	4	53.2	4	-1E+10	1	-1E+10	1	-1E+10	1	-1E+10	1	-1E+10	1	-1E+10	1
4902549	91	C	02/18/2023	07:10	-133.576	47.422	0	147.80	0	7.2740	0	33.5900	0	26.273	0	146.515	0	156.1	4	53.0	4	-1E+10	1	-1E+10	1	-1E+10	1	-1E+10	1	-1E+10	1	-1E+10	1
4902549	91	C	02/18/2023	07:10	-133.576	47.422	0	149.00	0	7.2630	0	33.6180	0	26.296	0	147.704	0	155.3	4	52.7	4	-1E+10	1	-1E+10	1	-1E+10	1	-1E+10	1	-1E+10	1	-1E+10	1
4902549	91	C	02/18/2023	07:10	-133.576	47.422	0	150.20	0	7.2540	0	33.6340	0	26.310	0	148.893	0	154.6	4	52.5	4	-1E+10	1	-1E+10	1	-1E+10	1	-1E+10	1	-1E+10	1	-1E+10	1
4902549	91	C	02/18/2023	07:10	-133.576	47.422	0	151.10	0	7.2500	0	33.6380	0	26.314	0	149.785	0	154.2	4	52.3	4	-1E+10	1	-1E+10	1	-1E+10	1	-1E+10	1	-1E+10	1	-1E+10	1
4902549	91	C	02/18/2023	07:10	-133.576	47.422	0	151.90	0	7.2490	0	33.6410	0	26.316	0	150.578	0	153.9	4	52.2	4	-1E+10	1	-1E+10	1	-1E+10	1	-1E+10	1	-1E+10	1	-1E+10	1
4902549	91	C	02/18/2023	07:10	-133.576	47.422	0	152.80	0	7.2450	0	33.6460	0	26.321	0	151.470	0	153.6	4	52.1	4	-1E+10	1	-1E+10	1	-1E+10	1	-1E+10	1	-1E+10	1	-1E+10	1
4902549	91	C	02/18/2023	07:10	-133.576	47.422	0	153.60	0	7.2420	0	33.6510	0	26.325	0	152.263	0	153.3	4	52.0	4	-1E+10	1	-1E+10	1	-1E+10	1	-1E+10	1	-1E+10	1	-1E+10	1
4902549	91	C	02/18/2023	07:10	-133.576	47.422	0	154.90	0	7.2380	0	33.6560	0	26.330	0	153.551	0	153.0	4	51.9	4	-1E+10	1	-1E+10	1	-1E+10	1	-1E+10	1	-1E+10	1	-1E+10	1
4902549	91	C	02/18/2023	07:10	-133.576	47.422	0	156.20	0	7.2330	0	33.6640	0	26.337	0	154.839	0	152.7	4	51.8	4	-1E+10	1	-1E+10	1	-1E+10	1	-1E+10	1	-1E+10	1	-1E+10	1
4902549	91	C	02/18/2023	07:10	-133.576	47.422	0	157.10	0	7.2310	0	33.6660	0	26.338	0	155.731	0	152.7	4	51.8	4	-1E+10	1	-1E+10	1	-1E+10	1	-1E+10	1	-1E+10	1	-1E+10	1
4902549	91	C	02/18/2023	07:10	-133.576	47.422	0	158.00	0	7.2240	0	33.6720	0	26.344	0	156.623	0	152.6	4	51.8	4	-1E+10	1	-1E+10	1	-1E+10	1	-1E+10	1	-1E+10	1	-1E+10	1
4902549	91	C	02/18/2023	07:10	-133.576	47.422	0	158.80	0	7.2200	0	33.6770	0	26.349	0	157.415	0	152.6	4	51.7	4	-1E+10	1	-1E+10	1	-1E+10	1	-1E+10	1	-1E+10	1	-1E+10	1
4902549	91	C	02/18/2023	07:10	-133.576	47.422	0	159.70	0	7.2090	0	33.6830	0	26.355	0	158.307	0	152.4	4	51.7	4	-1E+10	1	-1E+10	1	-1E+10	1	-1E+10	1	-1E+10	1	-1E+10	1
4902549	91	C	02/18/2023	07:10	-133.576	47.422	0	160.60	0	7.1890	0	33.6920	0	26.365	0	159.199	0	152.1	4	51.5	4	-1E+10	1	-1E+10	1	-1E+10	1	-1E+10	1	-1E+10	1	-1E+10	1
4902549	91	C	02/18/2023	07:10	-133.576	47.422	0	161.90	0	7.1680	0	33.7050	0	26.378	0	160.487	0	151.5	4	51.3	4	-1E+10	1	-1E+10	1	-1E+10	1	-1E+10	1	-1E+10	1	-1E+10	1
4902549	91	C	02/18/2023	07:10	-133.576	47.422	0	163.30	0	7.1360	0	33.7250	0	26.398	0	161.874	0	151.1	4	51.2	4	-1E+10	1	-1E+10	1	-1E+10	1	-1E+10	1	-1E+10	1	-1E+10	1
4902549	91	C	02/18/2023	07:10	-133.576	47.422	0	164.30	0	7.1250	0	33.7310	0	26.404	0	162.865	0	150.8	4	51.1	4	-1E+10	1	-1E+10	1	-1E+10	1	-1E+10	1	-1E+10	1	-1E+10	1
4902549	91	C	02/18/2023	07:10	-133.576	47.422	0	165.20	0	7.1170	0	33.7350	0	26.409	0	163.757	0	150.5	4	51.0	4	-1E+10	1	-1E+10	1	-1E+10	1	-1E+10	1	-1E+10	1	-1E+10	1
4902549	91	C	02/18/2023	07:10	-133.576	47.422	0	166.10	0	7.1140	0	33.7370	0	26.411	0	164.649	0	150.2	4	50.8	4	-1E+10	1	-1E+10	1	-1E+10	1	-1E+10	1	-1E+10	1	-1E+10	1
4902549	91	C	02/18/2023	07:10	-133.576	47.422	0	167.10	0	7.1090	0	33.7400	0	26.414	0	165.640	0	149.8	4	50.7	4	-1E+10	1	-1E+10	1	-1E+10	1	-1E+10	1	-1E+10	1	-1E+10	1
4902549	91	C	02/18/2023	07:10	-133.576	47.422	0	168.00	0	7.1070	0	33.7410	0	26.415	0	166.531	0	149.6	4	50.6	4	-1E+10	1	-1E+10	1	-1E+10	1	-1E+10	1	-1E+10	1	-1E+10	1
4902549	91	C	02/18/2023	07:10	-133.576	47.422	0	169.00	0	7.1070	0	33.7410	0	26.415	0	167.522	0	149.2	4	50.5	4	-1E+10	1	-1E+10	1	-1E+10	1	-1E+10	1	-1E+10	1	-1E+10	1
4902549	91	C	02/18/2023	07:10	-133.576	47.422	0	170.00	0	7.0960	0	33.7450	0	26.419	0	168.513	0	149.0	4	50.4	4	-1E+10	1	-1E+10	1	-1E+10	1	-1E+10	1	-1E+10	1	-1E+10	1
4902549	91	C	02/18/2023	07:10	-133.576	47.422	0	171.00	0	7.0790	0	33.7510	0	26.426	0	169.504	0	148.8	4	50.3	4	-1E+10	1	-1E+10	1	-1E+10	1	-1E+10	1	-1E+10	1	-1E+10	1
4902549	91	C	02/18/2023	07:10	-133.576	47.422	0	172.00	0	7.0710	0	33.7520	0	26.428	0	170.495	0	148.4	4	50.2	4	-1E+10	1	-1E+10	1	-1E+10	1	-1E+10	1	-1E+10	1	-1E+10	1
4902549	91	C	02/18/2023	07:10	-133.576	47.422	0	173.00	0	7.0620	0	33.7540	0	26.431	0	171.486	0	148.0	4	50.1	4	-1E+10	1	-1E+10	1	-1E+10	1	-1E+10	1	-1E+10	1	-1E+10	1
4902549	91	C	02/18/2023	07:10	-133.576	47.422	0	174.00	0	7.0300	0	33.7650	0	26.444	0	172.476	0	147.7	4	49.9	4	-1E+10	1	-1E+10	1	-1E+10	1	-1E+10	1	-1E+10	1	-1E+10	1
4902549	91	C	02/18/2023	07:10	-133.576	47.422	0	175.00	0	7.0240	0	33.7650	0	26.445	0	173.467	0	147.3	4	49.8	4	-1E+10	1	-1E+10	1	-1E+10	1	-1E+10	1	-1E+10	1	-1E+10	1
4902549	91	C	02/18/2023	07:10	-133.576	47.422	0	176.00	0	7.0140	0	33.7690	0	26.450	0	174.458	0	146.9	4	49.6	4	-1E+10	1	-1E+10	1	-1E+10	1	-1E+10	1	-1E+10	1	-1E+10	1
4902549	91	C	02/18/2023	07:10	-133.576	47.422	0	177.10	0	7.0010	0	33.7720	0	26.454	0	175.548	0	146.4	4	49.4	4	-1E+10	1	-1E+10	1	-1E+10	1	-1E+10	1	-1E+10	1	-1E+10	1
4902549	91	C	02/18/2023	07:10	-133.576	47.422	0	178.10	0	6.9920	0	33.7740	0	26.457	0	176.539	0	146.0	4	49.3	4	-1E+10	1	-1E+10	1	-1E+10	1	-1E+10	1	-1E+10	1	-1E+10	1
4902549	91	C	02/18/2023	07:10	-133.576	47.422	0	179.10	0	6.9770	0	33.7760	0	26.460	0	177.530	0	145.6	4	49.1	4	-1E+10	1	-1E+10	1	-1E+10	1	-1E+10	1	-1E+10	1	-1E+10	1
4902549	91	C	02/18/2023	07:10	-133.576	47.422	0	180.20	0	6.9660	0	33.7790	0	26.464	0	178.619	0	145.1	4	49.0	4	-1E+10	1	-1E+10	1	-1E+10	1	-1E+10	1	-1E+10	1	-1E+10	1
4902549	91	C	02/18/2023	07:10	-133.576	47.422	0	181.20	0	6.9520	0	33.7830	0	26.469	0	179.610	0	144.8	4	48.8	4	-1E+10	1	-1E+10	1	-1E+10	1	-1E+10	1	-1E+10	1	-1E+10	1
4902549	91	C	02/18/2023	07:10	-133.576	47.422	0	182.20	0	6.9430	0	33.7840	0	26.471	0	180.601	0	144.5	4	48.7	4	-1E+10	1	-1E+10	1	-1E+10	1	-1E+10	1	-1E+10	1	-1E+10	1
4902549	91	C	02/18/2023	07:10	-133.576	47.422	0	183.20	0	6.9360	0	33.7850	0	26.473	0	181.592	0	144.1	4	48.6	4	-1E+10	1	-1E+10	1	-1E+10	1	-1E+10	1	-1E+10	1	-1E+10	1
4902549	91	C	02/18/2023	07:10	-133.576	47.422	0	184.20	0	6.9250	0	33.7870	0	26.476	0	182.583	0	143.8	4	48.5	4	-1E+10	1	-1E+10	1	-1E+10	1	-1E+10	1	-1E+10	1	-1E+10	1
4902549	91	C	02/18/2023	07:10	-133.576	47.422	0	185.30	0	6.9090	0	33.7890	0	26.480	0	183.672	0	143.4	4	48.3	4	-1E+10	1	-1E+10	1	-1E+10	1	-1E+10	1	-1E+10	1	-1E+10	1
4902549	91	C	02/18/2023	07:10	-133.576	47.422	0	186.30	0	6.9010	0	33.7890	0	26.481	0	184.663	0	143.0	4	48.2	4	-1E+10	1	-1E+10	1	-1E+10	1	-1E+10	1	-1E+10	1	-1E+10	1
4902549	91	C	02/18/2023	07:10	-133.576	47.422	0	187.30	0	6.8890	0	33.7910	0	26.484	0	185.654	0	142.6	4	48.0	4	-1E+10	1	-1E+10	1	-1E+10	1	-1E+10	1	-1E+10	1	-1E+10	1
4902549	91	C	02/18/2023	07:10	-133.576	47.422	0	188.40	0	6.8620	0	33.7940	0	26.490	0	186.744	0	142.3	4	47.9	4	-1E+10	1	-1E+10	1	-1E+10	1	-1E+10	1	-1E+10	1	-1E+10	1
4902549	91	C	02/18/2023	07:10	-133.576	47.422	0	189.40	0	6.8410	0	33.7970	0	26.495	0	187.734	0	142.0	4	47.8	4	-1E+10	1	-1E+10	1	-1E+10	1	-1E+10	1	-1E+10	1	-1E+10	1
4902549	91	C	02/18/2023	07:10	-133.576	47.422	0	190.50	0	6.8280	0	33.8000	0	26.499	0	188.824	0	141.6	4	47.6	4	-1E+10	1	-1E+10	1	-1E+10	1	-1E+10	1	-1E+10	1	-1E+10	1
4902549	91	C	02/18/2023	07:10	-133.576	47.422	0	191.50	0	6.8220	0	33.7990	0	26.499	0	189.815	0	141.2	4	47.5	4	-1E+10	1	-1E+10	1	-1E+10	1	-1E+10	1	-1E+10	1	-1E+10	1
4902549	91	C	02/18/2023	07:10	-133.576	47.422	0	192.60	0	6.8200	0	33.7980	0	26.499	0	190.905	0	140.7	4	47.3	4	-1E+10	1	-1E+10	1	-1E+10	1	-1E+10	1	-1E+10	1	-1E+10	1
4902549	91	C	02/18/2023	07:10	-133.576	47.422	0	193.60	0	6.8170	0	33.7990	0	26.500	0	191.896	0	140.1	4	47.1	4	-1E+10	1	-1E+10	1	-1E+10	1	-1E+10	1	-1E+10	1	-1E+10	1
4902549	91	C	02/18/2023	07:10	-133.576	47.422	0	194.60	0	6.8130	0	33.7980	0	26.500	0	192.886	0	139.5	4	46.9	4	-1E+10	1	-1E+10	1	-1E+10	1	-1E+10	1	-1E+10	1	-1E+10	1
4902549	91	C	02/18/2023	07:10	-133.576	47.422	0	195.60	0	6.7800	0	33.8010	0	26.507	0	193.877	0	138.9	4	46.7	4	-1E+10	1	-1E+10	1	-1E+10	1	-1E+10	1	-1E+10	1	-1E+10	1
4902549	91	C	02/18/2023	07:10	-133.576	47.422	0	196.70	0	6.7500	0	33.8080	0	26.516	0	194.967	0	138.3	4	46.5	4	-1E+10	1	-1E+10	1	-1E+10	1	-1E+10	1	-1E+10	1	-1E+10	1
4902549	91	C	02/18/2023	07:10	-133.576	47.422	0	197.70	0	6.7380	0	33.8070	0	26.517	0	195.958	0	137.7	4	46.2	4	-1E+10	1	-1E+10	1	-1E+10	1	-1E+10	1	-1E+10	1	-1E+10	1
4902549	91	C	02/18/2023	07:10	-133.576	47.422	0	198.80	0	6.7140	0	33.8090	0	26.522	0	197.047	0	137.2	4	46.0	4	-1E+10	1	-1E+10	1	-1E+10	1	-1E+10	1	-1E+10	1	-1E+10	1
4902549	91	C	02/18/2023	07:10	-133.576	47.422	0	199.80	0	6.6820	0	33.8160	0	26.532	0	198.038	0	136.6	4	45.8	4	-1E+10	1	-1E+10	1	-1E+10	1	-1E+10	1	-1E+10	1	-1E+10	1
4902549	91	C	02/18/2023	07:10	-133.576	47.422	0	200.80	0	6.6800	0	33.8130	0	26.529	0	199.029	0	136.2	4	45.7	4	-1E+10	1	-1E+10	1	-1E+10	1	-1E+10	1	-1E+10	1	-1E+10	1
4902549	91	C	02/18/2023	07:10	-133.576	47.422	0	201.90	0	6.6670	0	33.8160	0	26.534	0	200.119	0	135.7	4	45.5	4	-1E+10	1	-1E+10	1	-1E+10	1	-1E+10	1	-1E+10	1	-1E+10	1
4902549	91	C	02/18/2023	07:10	-133.576	47.422	0	202.90	0	6.6450	0	33.8160	0	26.536	0	201.109	0	135.3	4	45.3	4	-1E+10	1	-1E+10	1	-1E+10	1	-1E+10	1	-1E+10	1	-1E+10	1
4902549	91	C	02/18/2023	07:10	-133.576	47.422	0	203.90	0	6.6270	0	33.8180	0	26.540	0	202.100	0	134.9	4	45.2	4	-1E+10	1	-1E+10	1	-1E+10	1	-1E+10	1	-1E+10	1	-1E+10	1
4902549	91	C	02/18/2023	07:10	-133.576	47.422	0	205.00	0	6.6190	0	33.8170	0	26.541	0	203.190	0	134.4	4	45.0	4	-1E+10	1	-1E+10	1	-1E+10	1	-1E+10	1	-1E+10	1	-1E+10	1
4902549	91	C	02/18/2023	07:10	-133.576	47.422	0	206.00	0	6.6100	0	33.8180	0	26.543	0	204.180	0	133.9	4	44.8	4	-1E+10	1	-1E+10	1	-1E+10	1	-1E+10	1	-1E+10	1	-1E+10	1
4902549	91	C	02/18/2023	07:10	-133.576	47.422	0	207.00	0	6.5860	0	33.8210	0	26.548	0	205.171	0	133.5	4	44.7	4	-1E+10	1	-1E+10	1	-1E+10	1	-1E+10	1	-1E+10	1	-1E+10	1
4902549	91	C	02/18/2023	07:10	-133.576	47.422	0	208.00	0	6.5700	0	33.8220	0	26.551	0	206.162	0	133.1	4	44.5	4	-1E+10	1	-1E+10	1	-1E+10	1	-1E+10	1	-1E+10	1	-1E+10	1
4902549	91	C	02/18/2023	07:10	-133.576	47.422	0	209.00	0	6.5650	0	33.8210	0	26.551	0	207.152	0	132.6	4	44.3	4	-1E+10	1	-1E+10	1	-1E+10	1	-1E+10	1	-1E+10	1	-1E+10	1
4902549	91	C	02/18/2023	07:10	-133.576	47.422	0	210.10	0	6.5650	0	33.8220	0	26.552	0	208.242	0	132.1	4	44.2	4	-1E+10	1	-1E+10	1	-1E+10	1	-1E+10	1	-1E+10	1	-1E+10	1
4902549	91	C	02/18/2023	07:10	-133.576	47.422	0	211.10	0	6.5430	0	33.8210	0	26.554	0	209.233	0	131.6	4	44.0	4	-1E+10	1	-1E+10	1	-1E+10	1	-1E+10	1	-1E+10	1	-1E+10	1
4902549	91	C	02/18/2023	07:10	-133.576	47.422	0	212.10	0	6.5290	0	33.8230	0	26.557	0	210.223	0	131.0	4	43.8	4	-1E+10	1	-1E+10	1	-1E+10	1	-1E+10	1	-1E+10	1	-1E+10	1
4902549	91	C	02/18/2023	07:10	-133.576	47.422	0	213.10	0	6.5050	0	33.8250	0	26.562	0	211.214	0	130.6	4	43.6	4	-1E+10	1	-1E+10	1	-1E+10	1	-1E+10	1	-1E+10	1	-1E+10	1
4902549	91	C	02/18/2023	07:10	-133.576	47.422	0	214.10	0	6.4910	0	33.8250	0	26.564	0	212.205	0	130.2	4	43.5	4	-1E+10	1	-1E+10	1	-1E+10	1	-1E+10	1	-1E+10	1	-1E+10	1
4902549	91	C	02/18/2023	07:10	-133.576	47.422	0	215.10	0	6.4830	0	33.8250	0	26.565	0	213.195	0	129.7	4	43.3	4	-1E+10	1	-1E+10	1	-1E+10	1	-1E+10	1	-1E+10	1	-1E+10	1
4902549	91	C	02/18/2023	07:10	-133.576	47.422	0	216.10	0	6.4690	0	33.8270	0	26.568	0	214.186	0	129.2	4	43.1	4	-1E+10	1	-1E+10	1	-1E+10	1	-1E+10	1	-1E+10	1	-1E+10	1
4902549	91	C	02/18/2023	07:10	-133.576	47.422	0	217.10	0	6.4660	0	33.8270	0	26.569	0	215.177	0	128.6	4	42.9	4	-1E+10	1	-1E+10	1	-1E+10	1	-1E+10	1	-1E+10	1	-1E+10	1
4902549	91	C	02/18/2023	07:10	-133.576	47.422	0	218.10	0	6.4590	0	33.8280	0	26.571	0	216.167	0	128.1	4	42.7	4	-1E+10	1	-1E+10	1	-1E+10	1	-1E+10	1	-1E+10	1	-1E+10	1
4902549	91	C	02/18/2023	07:10	-133.576	47.422	0	219.00	0	6.4430	0	33.8280	0	26.573	0	217.059	0	127.5	4	42.5	4	-1E+10	1	-1E+10	1	-1E+10	1	-1E+10	1	-1E+10	1	-1E+10	1
4902549	91	C	02/18/2023	07:10	-133.576	47.422	0	220.00	0	6.4220	0	33.8290	0	26.576	0	218.049	0	127.0	4	42.4	4	-1E+10	1	-1E+10	1	-1E+10	1	-1E+10	1	-1E+10	1	-1E+10	1
4902549	91	C	02/18/2023	07:10	-133.576	47.422	0	221.00	0	6.4120	0	33.8300	0	26.578	0	219.040	0	126.5	4	42.2	4	-1E+10	1	-1E+10	1	-1E+10	1	-1E+10	1	-1E+10	1	-1E+10	1
4902549	91	C	02/18/2023	07:10	-133.576	47.422	0	222.00	0	6.4050	0	33.8310	0	26.580	0	220.030	0	125.8	4	41.9	4	-1E+10	1	-1E+10	1	-1E+10	1	-1E+10	1	-1E+10	1	-1E+10	1
4902549	91	C	02/18/2023	07:10	-133.576	47.422	0	223.00	0	6.3830	0	33.8320	0	26.584	0	221.021	0	125.3	4	41.7	4	-1E+10	1	-1E+10	1	-1E+10	1	-1E+10	1	-1E+10	1	-1E+10	1
4902549	91	C	02/18/2023	07:10	-133.576	47.422	0	224.00	0	6.3790	0	33.8320	0	26.584	0	222.012	0	124.8	4	41.6	4	-1E+10	1	-1E+10	1	-1E+10	1	-1E+10	1	-1E+10	1	-1E+10	1
4902549	91	C	02/18/2023	07:10	-133.576	47.422	0	225.00	0	6.3730	0	33.8320	0	26.585	0	223.002	0	124.1	4	41.3	4	-1E+10	1	-1E+10	1	-1E+10	1	-1E+10	1	-1E+10	1	-1E+10	1
4902549	91	C	02/18/2023	07:10	-133.576	47.422	0	226.00	0	6.3400	0	33.8350	0	26.592	0	223.993	0	123.5	4	41.1	4	-1E+10	1	-1E+10	1	-1E+10	1	-1E+10	1	-1E+10	1	-1E+10	1
4902549	91	C	02/18/2023	07:10	-133.576	47.422	0	227.00	0	6.3280	0	33.8360	0	26.594	0	224.983	0	122.8	4	40.9	4	-1E+10	1	-1E+10	1	-1E+10	1	-1E+10	1	-1E+10	1	-1E+10	1
4902549	91	C	02/18/2023	07:10	-133.576	47.422	0	228.00	0	6.3140	0	33.8370	0	26.596	0	225.974	0	122.2	4	40.7	4	-1E+10	1	-1E+10	1	-1E+10	1	-1E+10	1	-1E+10	1	-1E+10	1
4902549	91	C	02/18/2023	07:10	-133.576	47.422	0	229.10	0	6.2980	0	33.8380	0	26.599	0	227.064	0	121.7	4	40.4	4	-1E+10	1	-1E+10	1	-1E+10	1	-1E+10	1	-1E+10	1	-1E+10	1
4902549	91	C	02/18/2023	07:10	-133.576	47.422	0	230.10	0	6.2880	0	33.8390	0	26.601	0	228.054	0	121.1	4	40.2	4	-1E+10	1	-1E+10	1	-1E+10	1	-1E+10	1	-1E+10	1	-1E+10	1
4902549	91	C	02/18/2023	07:10	-133.576	47.422	0	231.10	0	6.2790	0	33.8400	0	26.603	0	229.045	0	120.4	4	40.0	4	-1E+10	1	-1E+10	1	-1E+10	1	-1E+10	1	-1E+10	1	-1E+10	1
4902549	91	C	02/18/2023	07:10	-133.576	47.422	0	232.00	0	6.2750	0	33.8410	0	26.605	0	229.936	0	119.7	4	39.8	4	-1E+10	1	-1E+10	1	-1E+10	1	-1E+10	1	-1E+10	1	-1E+10	1
4902549	91	C	02/18/2023	07:10	-133.576	47.422	0	233.10	0	6.2630	0	33.8440	0	26.609	0	231.026	0	119.1	4	39.6	4	-1E+10	1	-1E+10	1	-1E+10	1	-1E+10	1	-1E+10	1	-1E+10	1
4902549	91	C	02/18/2023	07:10	-133.576	47.422	0	234.10	0	6.2530	0	33.8440	0	26.610	0	232.016	0	118.6	4	39.4	4	-1E+10	1	-1E+10	1	-1E+10	1	-1E+10	1	-1E+10	1	-1E+10	1
4902549	91	C	02/18/2023	07:10	-133.576	47.422	0	235.10	0	6.2500	0	33.8440	0	26.610	0	233.007	0	118.0	4	39.2	4	-1E+10	1	-1E+10	1	-1E+10	1	-1E+10	1	-1E+10	1	-1E+10	1
4902549	91	C	02/18/2023	07:10	-133.576	47.422	0	236.10	0	6.2430	0	33.8460	0	26.613	0	233.997	0	117.4	4	39.0	4	-1E+10	1	-1E+10	1	-1E+10	1	-1E+10	1	-1E+10	1	-1E+10	1
4902549	91	C	02/18/2023	07:10	-133.576	47.422	0	237.10	0	6.2430	0	33.8470	0	26.614	0	234.988	0	116.8	4	38.8	4	-1E+10	1	-1E+10	1	-1E+10	1	-1E+10	1	-1E+10	1	-1E+10	1
4902549	91	C	02/18/2023	07:10	-133.576	47.422	0	238.00	0	6.2440	0	33.8480	0	26.614	0	235.879	0	116.2	4	38.6	4	-1E+10	1	-1E+10	1	-1E+10	1	-1E+10	1	-1E+10	1	-1E+10	1
4902549	91	C	02/18/2023	07:10	-133.576	47.422	0	239.10	0	6.2480	0	33.8490	0	26.615	0	236.969	0	115.5	4	38.4	4	-1E+10	1	-1E+10	1	-1E+10	1	-1E+10	1	-1E+10	1	-1E+10	1
4902549	91	C	02/18/2023	07:10	-133.576	47.422	0	239.80	0	6.2500	0	33.8500	0	26.615	0	237.662	0	115.0	4	38.2	4	-1E+10	1	-1E+10	1	-1E+10	1	-1E+10	1	-1E+10	1	-1E+10	1
4902549	91	C	02/18/2023	07:10	-133.576	47.422	0	240.90	0	6.2520	0	33.8510	0	26.616	0	238.752	0	114.3	4	38.0	4	-1E+10	1	-1E+10	1	-1E+10	1	-1E+10	1	-1E+10	1	-1E+10	1
4902549	91	C	02/18/2023	07:10	-133.576	47.422	0	242.00	0	6.2550	0	33.8520	0	26.616	0	239.841	0	113.6	4	37.7	4	-1E+10	1	-1E+10	1	-1E+10	1	-1E+10	1	-1E+10	1	-1E+10	1
4902549	91	C	02/18/2023	07:10	-133.576	47.422	0	242.70	0	6.2550	0	33.8560	0	26.619	0	240.535	0	113.2	4	37.6	4	-1E+10	1	-1E+10	1	-1E+10	1	-1E+10	1	-1E+10	1	-1E+10	1
4902549	91	C	02/18/2023	07:10	-133.576	47.422	0	243.80	0	6.2250	0	33.8570	0	26.624	0	241.624	0	112.9	4	37.5	4	-1E+10	1	-1E+10	1	-1E+10	1	-1E+10	1	-1E+10	1	-1E+10	1
4902549	91	C	02/18/2023	07:10	-133.576	47.422	0	245.00	0	6.2300	0	33.8590	0	26.625	0	242.813	0	112.6	4	37.4	4	-1E+10	1	-1E+10	1	-1E+10	1	-1E+10	1	-1E+10	1	-1E+10	1
4902549	91	C	02/18/2023	07:10	-133.576	47.422	0	245.80	0	6.2160	0	33.8590	0	26.627	0	243.605	0	112.5	4	37.3	4	-1E+10	1	-1E+10	1	-1E+10	1	-1E+10	1	-1E+10	1	-1E+10	1
4902549	91	C	02/18/2023	07:10	-133.576	47.422	0	246.90	0	6.1840	0	33.8590	0	26.631	0	244.695	0	112.0	4	37.1	4	-1E+10	1	-1E+10	1	-1E+10	1	-1E+10	1	-1E+10	1	-1E+10	1
4902549	91	C	02/18/2023	07:10	-133.576	47.422	0	248.10	0	6.1600	0	33.8560	0	26.631	0	245.883	0	111.4	4	36.9	4	-1E+10	1	-1E+10	1	-1E+10	1	-1E+10	1	-1E+10	1	-1E+10	1
4902549	91	C	02/18/2023	07:10	-133.576	47.422	0	248.90	0	6.1580	0	33.8570	0	26.632	0	246.676	0	110.9	4	36.8	4	-1E+10	1	-1E+10	1	-1E+10	1	-1E+10	1	-1E+10	1	-1E+10	1
4902549	91	C	02/18/2023	07:10	-133.576	47.422	0	250.00	0	6.1560	0	33.8570	0	26.633	0	247.765	0	110.2	4	36.5	4	-1E+10	1	-1E+10	1	-1E+10	1	-1E+10	1	-1E+10	1	-1E+10	1
4902549	91	C	02/18/2023	07:10	-133.576	47.422	0	251.20	0	6.1540	0	33.8590	0	26.635	0	248.954	0	109.4	4	36.2	4	-1E+10	1	-1E+10	1	-1E+10	1	-1E+10	1	-1E+10	1	-1E+10	1
4902549	91	C	02/18/2023	07:10	-133.576	47.422	0	252.00	0	6.1330	0	33.8650	0	26.642	0	249.746	0	108.9	4	36.1	4	-1E+10	1	-1E+10	1	-1E+10	1	-1E+10	1	-1E+10	1	-1E+10	1
4902549	91	C	02/18/2023	07:10	-133.576	47.422	0	252.80	0	6.1320	0	33.8620	0	26.640	0	250.539	0	108.5	4	36.0	4	-1E+10	1	-1E+10	1	-1E+10	1	-1E+10	1	-1E+10	1	-1E+10	1
4902549	91	C	02/18/2023	07:10	-133.576	47.422	0	253.60	0	6.1380	0	33.8630	0	26.640	0	251.331	0	108.2	4	35.9	4	-1E+10	1	-1E+10	1	-1E+10	1	-1E+10	1	-1E+10	1	-1E+10	1
4902549	91	C	02/18/2023	07:10	-133.576	47.422	0	254.90	0	6.1100	0	33.8630	0	26.643	0	252.619	0	107.8	4	35.7	4	-1E+10	1	-1E+10	1	-1E+10	1	-1E+10	1	-1E+10	1	-1E+10	1
4902549	91	C	02/18/2023	07:10	-133.576	47.422	0	256.10	0	6.0960	0	33.8670	0	26.648	0	253.807	0	107.3	4	35.5	4	-1E+10	1	-1E+10	1	-1E+10	1	-1E+10	1	-1E+10	1	-1E+10	1
4902549	91	C	02/18/2023	07:10	-133.576	47.422	0	256.90	0	6.0960	0	33.8670	0	26.648	0	254.599	0	107.1	4	35.5	4	-1E+10	1	-1E+10	1	-1E+10	1	-1E+10	1	-1E+10	1	-1E+10	1
4902549	91	C	02/18/2023	07:10	-133.576	47.422	0	257.80	0	6.0930	0	33.8650	0	26.647	0	255.491	0	106.9	4	35.4	4	-1E+10	1	-1E+10	1	-1E+10	1	-1E+10	1	-1E+10	1	-1E+10	1
4902549	91	C	02/18/2023	07:10	-133.576	47.422	0	258.60	0	6.0810	0	33.8690	0	26.652	0	256.283	0	106.7	4	35.3	4	-1E+10	1	-1E+10	1	-1E+10	1	-1E+10	1	-1E+10	1	-1E+10	1
4902549	91	C	02/18/2023	07:10	-133.576	47.422	0	259.90	0	6.0770	0	33.8670	0	26.651	0	257.571	0	106.3	4	35.2	4	-1E+10	1	-1E+10	1	-1E+10	1	-1E+10	1	-1E+10	1	-1E+10	1
4902549	91	C	02/18/2023	07:10	-133.576	47.422	0	261.20	0	6.0710	0	33.8670	0	26.651	0	258.858	0	106.0	4	35.1	4	-1E+10	1	-1E+10	1	-1E+10	1	-1E+10	1	-1E+10	1	-1E+10	1
4902549	91	C	02/18/2023	07:10	-133.576	47.422	0	262.00	0	6.0690	0	33.8680	0	26.652	0	259.651	0	105.7	4	35.0	4	-1E+10	1	-1E+10	1	-1E+10	1	-1E+10	1	-1E+10	1	-1E+10	1
4902549	91	C	02/18/2023	07:10	-133.576	47.422	0	262.90	0	6.0670	0	33.8690	0	26.654	0	260.542	0	105.5	4	34.9	4	-1E+10	1	-1E+10	1	-1E+10	1	-1E+10	1	-1E+10	1	-1E+10	1
4902549	91	C	02/18/2023	07:10	-133.576	47.422	0	263.70	0	6.0610	0	33.8680	0	26.653	0	261.334	0	105.2	4	34.8	4	-1E+10	1	-1E+10	1	-1E+10	1	-1E+10	1	-1E+10	1	-1E+10	1
4902549	91	C	02/18/2023	07:10	-133.576	47.422	0	264.90	0	6.0560	0	33.8670	0	26.653	0	262.523	0	104.6	4	34.6	4	-1E+10	1	-1E+10	1	-1E+10	1	-1E+10	1	-1E+10	1	-1E+10	1
4902549	91	C	02/18/2023	07:10	-133.576	47.422	0	266.20	0	6.0420	0	33.8700	0	26.657	0	263.810	0	104.1	4	34.4	4	-1E+10	1	-1E+10	1	-1E+10	1	-1E+10	1	-1E+10	1	-1E+10	1
4902549	91	C	02/18/2023	07:10	-133.576	47.422	0	267.10	0	6.0300	0	33.8710	0	26.660	0	264.702	0	103.9	4	34.3	4	-1E+10	1	-1E+10	1	-1E+10	1	-1E+10	1	-1E+10	1	-1E+10	1
4902549	91	C	02/18/2023	07:10	-133.576	47.422	0	267.90	0	6.0290	0	33.8710	0	26.660	0	265.494	0	103.7	4	34.3	4	-1E+10	1	-1E+10	1	-1E+10	1	-1E+10	1	-1E+10	1	-1E+10	1
4902549	91	C	02/18/2023	07:10	-133.576	47.422	0	268.80	0	6.0260	0	33.8720	0	26.661	0	266.385	0	103.5	4	34.2	4	-1E+10	1	-1E+10	1	-1E+10	1	-1E+10	1	-1E+10	1	-1E+10	1
4902549	91	C	02/18/2023	07:10	-133.576	47.422	0	269.60	0	6.0260	0	33.8710	0	26.660	0	267.177	0	103.2	4	34.1	4	-1E+10	1	-1E+10	1	-1E+10	1	-1E+10	1	-1E+10	1	-1E+10	1
4902549	91	C	02/18/2023	07:10	-133.576	47.422	0	270.90	0	6.0230	0	33.8720	0	26.661	0	268.465	0	102.8	4	34.0	4	-1E+10	1	-1E+10	1	-1E+10	1	-1E+10	1	-1E+10	1	-1E+10	1
4902549	91	C	02/18/2023	07:10	-133.576	47.422	0	272.20	0	6.0210	0	33.8720	0	26.662	0	269.752	0	102.4	4	33.8	4	-1E+10	1	-1E+10	1	-1E+10	1	-1E+10	1	-1E+10	1	-1E+10	1
4902549	91	C	02/18/2023	07:10	-133.576	47.422	0	273.00	0	6.0190	0	33.8700	0	26.660	0	270.545	0	102.1	4	33.7	4	-1E+10	1	-1E+10	1	-1E+10	1	-1E+10	1	-1E+10	1	-1E+10	1
4902549	91	C	02/18/2023	07:10	-133.576	47.422	0	273.80	0	6.0150	0	33.8710	0	26.662	0	271.337	0	101.7	4	33.6	4	-1E+10	1	-1E+10	1	-1E+10	1	-1E+10	1	-1E+10	1	-1E+10	1
4902549	91	C	02/18/2023	07:10	-133.576	47.422	0	274.70	0	5.9910	0	33.8700	0	26.664	0	272.228	0	101.2	4	33.4	4	-1E+10	1	-1E+10	1	-1E+10	1	-1E+10	1	-1E+10	1	-1E+10	1
4902549	91	C	02/18/2023	07:10	-133.576	47.422	0	276.00	0	5.9810	0	33.8700	0	26.665	0	273.516	0	100.5	4	33.2	4	-1E+10	1	-1E+10	1	-1E+10	1	-1E+10	1	-1E+10	1	-1E+10	1
4902549	91	C	02/18/2023	07:10	-133.576	47.422	0	277.30	0	5.9590	0	33.8750	0	26.672	0	274.803	0	99.8	4	32.9	4	-1E+10	1	-1E+10	1	-1E+10	1	-1E+10	1	-1E+10	1	-1E+10	1
4902549	91	C	02/18/2023	07:10	-133.576	47.422	0	278.10	0	5.9430	0	33.8730	0	26.672	0	275.595	0	99.3	4	32.7	4	-1E+10	1	-1E+10	1	-1E+10	1	-1E+10	1	-1E+10	1	-1E+10	1
4902549	91	C	02/18/2023	07:10	-133.576	47.422	0	279.00	0	5.9370	0	33.8740	0	26.674	0	276.487	0	98.8	4	32.6	4	-1E+10	1	-1E+10	1	-1E+10	1	-1E+10	1	-1E+10	1	-1E+10	1
4902549	91	C	02/18/2023	07:10	-133.576	47.422	0	279.80	0	5.9310	0	33.8760	0	26.676	0	277.279	0	98.3	4	32.4	4	-1E+10	1	-1E+10	1	-1E+10	1	-1E+10	1	-1E+10	1	-1E+10	1
4902549	91	C	02/18/2023	07:10	-133.576	47.422	0	280.70	0	5.9260	0	33.8760	0	26.677	0	278.170	0	97.7	4	32.2	4	-1E+10	1	-1E+10	1	-1E+10	1	-1E+10	1	-1E+10	1	-1E+10	1
4902549	91	C	02/18/2023	07:10	-133.576	47.422	0	281.90	0	5.9210	0	33.8780	0	26.679	0	279.359	0	97.0	4	32.0	4	-1E+10	1	-1E+10	1	-1E+10	1	-1E+10	1	-1E+10	1	-1E+10	1
4902549	91	C	02/18/2023	07:10	-133.576	47.422	0	283.30	0	5.9130	0	33.8780	0	26.680	0	280.745	0	96.1	4	31.7	4	-1E+10	1	-1E+10	1	-1E+10	1	-1E+10	1	-1E+10	1	-1E+10	1
4902549	91	C	02/18/2023	07:10	-133.576	47.422	0	284.10	0	5.9070	0	33.8770	0	26.680	0	281.537	0	95.4	4	31.5	4	-1E+10	1	-1E+10	1	-1E+10	1	-1E+10	1	-1E+10	1	-1E+10	1
4902549	91	C	02/18/2023	07:10	-133.576	47.422	0	285.00	0	5.8980	0	33.8790	0	26.683	0	282.429	0	94.8	4	31.3	4	-1E+10	1	-1E+10	1	-1E+10	1	-1E+10	1	-1E+10	1	-1E+10	1
4902549	91	C	02/18/2023	07:10	-133.576	47.422	0	285.80	0	5.8900	0	33.8810	0	26.685	0	283.221	0	94.3	4	31.1	4	-1E+10	1	-1E+10	1	-1E+10	1	-1E+10	1	-1E+10	1	-1E+10	1
4902549	91	C	02/18/2023	07:10	-133.576	47.422	0	286.70	0	5.8630	0	33.8840	0	26.691	0	284.112	0	93.9	4	30.9	4	-1E+10	1	-1E+10	1	-1E+10	1	-1E+10	1	-1E+10	1	-1E+10	1
4902549	91	C	02/18/2023	07:10	-133.576	47.422	0	288.00	0	5.8620	0	33.8840	0	26.691	0	285.399	0	93.2	4	30.7	4	-1E+10	1	-1E+10	1	-1E+10	1	-1E+10	1	-1E+10	1	-1E+10	1
4902549	91	C	02/18/2023	07:10	-133.576	47.422	0	289.30	0	5.8540	0	33.8840	0	26.692	0	286.687	0	92.4	4	30.4	4	-1E+10	1	-1E+10	1	-1E+10	1	-1E+10	1	-1E+10	1	-1E+10	1
4902549	91	C	02/18/2023	07:10	-133.576	47.422	0	290.20	0	5.8330	0	33.8860	0	26.696	0	287.578	0	91.9	4	30.2	4	-1E+10	1	-1E+10	1	-1E+10	1	-1E+10	1	-1E+10	1	-1E+10	1
4902549	91	C	02/18/2023	07:10	-133.576	47.422	0	291.10	0	5.8250	0	33.8850	0	26.697	0	288.469	0	91.4	4	30.1	4	-1E+10	1	-1E+10	1	-1E+10	1	-1E+10	1	-1E+10	1	-1E+10	1
4902549	91	C	02/18/2023	07:10	-133.576	47.422	0	291.90	0	5.8180	0	33.8860	0	26.698	0	289.262	0	90.8	4	29.9	4	-1E+10	1	-1E+10	1	-1E+10	1	-1E+10	1	-1E+10	1	-1E+10	1
4902549	91	C	02/18/2023	07:10	-133.576	47.422	0	292.80	0	5.8080	0	33.8870	0	26.700	0	290.153	0	90.3	4	29.7	4	-1E+10	1	-1E+10	1	-1E+10	1	-1E+10	1	-1E+10	1	-1E+10	1
4902549	91	C	02/18/2023	07:10	-133.576	47.422	0	293.70	0	5.7990	0	33.8880	0	26.702	0	291.044	0	89.7	4	29.5	4	-1E+10	1	-1E+10	1	-1E+10	1	-1E+10	1	-1E+10	1	-1E+10	1
4902549	91	C	02/18/2023	07:10	-133.576	47.422	0	294.60	0	5.7970	0	33.8900	0	26.704	0	291.935	0	89.2	4	29.3	4	-1E+10	1	-1E+10	1	-1E+10	1	-1E+10	1	-1E+10	1	-1E+10	1
4902549	91	C	02/18/2023	07:10	-133.576	47.422	0	295.90	0	5.7990	0	33.8930	0	26.706	0	293.223	0	88.6	4	29.1	4	-1E+10	1	-1E+10	1	-1E+10	1	-1E+10	1	-1E+10	1	-1E+10	1
4902549	91	C	02/18/2023	07:10	-133.576	47.422	0	297.20	0	5.7960	0	33.8940	0	26.707	0	294.510	0	88.0	4	28.9	4	-1E+10	1	-1E+10	1	-1E+10	1	-1E+10	1	-1E+10	1	-1E+10	1
4902549	91	C	02/18/2023	07:10	-133.576	47.422	0	298.10	0	5.7790	0	33.8950	0	26.710	0	295.401	0	87.6	4	28.8	4	-1E+10	1	-1E+10	1	-1E+10	1	-1E+10	1	-1E+10	1	-1E+10	1
4902549	91	C	02/18/2023	07:10	-133.576	47.422	0	299.00	0	5.7690	0	33.8960	0	26.712	0	296.292	0	87.4	4	28.7	4	-1E+10	1	-1E+10	1	-1E+10	1	-1E+10	1	-1E+10	1	-1E+10	1
4902549	91	C	02/18/2023	07:10	-133.576	47.422	0	299.90	0	5.7670	0	33.8970	0	26.713	0	297.183	0	87.1	4	28.6	4	-1E+10	1	-1E+10	1	-1E+10	1	-1E+10	1	-1E+10	1	-1E+10	1
4902549	91	C	02/18/2023	07:10	-133.576	47.422	0	300.80	0	5.7640	0	33.8970	0	26.714	0	298.075	0	86.7	4	28.5	4	-1E+10	1	-1E+10	1	-1E+10	1	-1E+10	1	-1E+10	1	-1E+10	1
4902549	91	C	02/18/2023	07:10	-133.576	47.422	0	301.70	0	5.7610	0	33.8980	0	26.715	0	298.966	0	86.4	4	28.4	4	-1E+10	1	-1E+10	1	-1E+10	1	-1E+10	1	-1E+10	1	-1E+10	1
4902549	91	C	02/18/2023	07:10	-133.576	47.422	0	302.60	0	5.7590	0	33.8990	0	26.716	0	299.857	0	86.1	4	28.3	4	-1E+10	1	-1E+10	1	-1E+10	1	-1E+10	1	-1E+10	1	-1E+10	1
4902549	91	C	02/18/2023	07:10	-133.576	47.422	0	303.90	0	5.7420	0	33.8990	0	26.718	0	301.144	0	85.7	4	28.1	4	-1E+10	1	-1E+10	1	-1E+10	1	-1E+10	1	-1E+10	1	-1E+10	1
4902549	91	C	02/18/2023	07:10	-133.576	47.422	0	305.30	0	5.7390	0	33.8990	0	26.718	0	302.531	0	85.2	4	28.0	4	-1E+10	1	-1E+10	1	-1E+10	1	-1E+10	1	-1E+10	1	-1E+10	1
4902549	91	C	02/18/2023	07:10	-133.576	47.422	0	306.20	0	5.7390	0	33.8990	0	26.718	0	303.422	0	84.9	4	27.9	4	-1E+10	1	-1E+10	1	-1E+10	1	-1E+10	1	-1E+10	1	-1E+10	1
4902549	91	C	02/18/2023	07:10	-133.576	47.422	0	307.10	0	5.7290	0	33.9010	0	26.721	0	304.313	0	84.5	4	27.7	4	-1E+10	1	-1E+10	1	-1E+10	1	-1E+10	1	-1E+10	1	-1E+10	1
4902549	91	C	02/18/2023	07:10	-133.576	47.422	0	308.00	0	5.7190	0	33.9020	0	26.723	0	305.204	0	84.3	4	27.7	4	-1E+10	1	-1E+10	1	-1E+10	1	-1E+10	1	-1E+10	1	-1E+10	1
4902549	91	C	02/18/2023	07:10	-133.576	47.422	0	308.90	0	5.7180	0	33.9020	0	26.723	0	306.095	0	84.0	4	27.6	4	-1E+10	1	-1E+10	1	-1E+10	1	-1E+10	1	-1E+10	1	-1E+10	1
4902549	91	C	02/18/2023	07:10	-133.576	47.422	0	309.80	0	5.7110	0	33.9020	0	26.724	0	306.986	0	83.7	4	27.5	4	-1E+10	1	-1E+10	1	-1E+10	1	-1E+10	1	-1E+10	1	-1E+10	1
4902549	91	C	02/18/2023	07:10	-133.576	47.422	0	310.70	0	5.7080	0	33.9030	0	26.725	0	307.878	0	83.4	4	27.4	4	-1E+10	1	-1E+10	1	-1E+10	1	-1E+10	1	-1E+10	1	-1E+10	1
4902549	91	C	02/18/2023	07:10	-133.576	47.422	0	311.60	0	5.7060	0	33.9020	0	26.725	0	308.769	0	83.0	4	27.2	4	-1E+10	1	-1E+10	1	-1E+10	1	-1E+10	1	-1E+10	1	-1E+10	1
4902549	91	C	02/18/2023	07:10	-133.576	47.422	0	312.90	0	5.6970	0	33.9030	0	26.727	0	310.056	0	82.5	4	27.1	4	-1E+10	1	-1E+10	1	-1E+10	1	-1E+10	1	-1E+10	1	-1E+10	1
4902549	91	C	02/18/2023	07:10	-133.576	47.422	0	314.30	0	5.6930	0	33.9040	0	26.728	0	311.442	0	82.0	4	26.9	4	-1E+10	1	-1E+10	1	-1E+10	1	-1E+10	1	-1E+10	1	-1E+10	1
4902549	91	C	02/18/2023	07:10	-133.576	47.422	0	315.20	0	5.6900	0	33.9040	0	26.728	0	312.333	0	81.6	4	26.8	4	-1E+10	1	-1E+10	1	-1E+10	1	-1E+10	1	-1E+10	1	-1E+10	1
4902549	91	C	02/18/2023	07:10	-133.576	47.422	0	316.10	0	5.6850	0	33.9050	0	26.730	0	313.224	0	81.2	4	26.6	4	-1E+10	1	-1E+10	1	-1E+10	1	-1E+10	1	-1E+10	1	-1E+10	1
4902549	91	C	02/18/2023	07:10	-133.576	47.422	0	317.00	0	5.6750	0	33.9060	0	26.732	0	314.116	0	80.9	4	26.5	4	-1E+10	1	-1E+10	1	-1E+10	1	-1E+10	1	-1E+10	1	-1E+10	1
4902549	91	C	02/18/2023	07:10	-133.576	47.422	0	317.90	0	5.6610	0	33.9070	0	26.734	0	315.007	0	80.6	4	26.4	4	-1E+10	1	-1E+10	1	-1E+10	1	-1E+10	1	-1E+10	1	-1E+10	1
4902549	91	C	02/18/2023	07:10	-133.576	47.422	0	318.80	0	5.6510	0	33.9080	0	26.736	0	315.898	0	80.3	4	26.3	4	-1E+10	1	-1E+10	1	-1E+10	1	-1E+10	1	-1E+10	1	-1E+10	1
4902549	91	C	02/18/2023	07:10	-133.576	47.422	0	319.80	0	5.6470	0	33.9080	0	26.737	0	316.888	0	80.0	4	26.2	4	-1E+10	1	-1E+10	1	-1E+10	1	-1E+10	1	-1E+10	1	-1E+10	1
4902549	91	C	02/18/2023	07:10	-133.576	47.422	0	320.70	0	5.6390	0	33.9080	0	26.738	0	317.779	0	79.6	4	26.1	4	-1E+10	1	-1E+10	1	-1E+10	1	-1E+10	1	-1E+10	1	-1E+10	1
4902549	91	C	02/18/2023	07:10	-133.576	47.422	0	321.60	0	5.6310	0	33.9070	0	26.738	0	318.670	0	79.2	4	25.9	4	-1E+10	1	-1E+10	1	-1E+10	1	-1E+10	1	-1E+10	1	-1E+10	1
4902549	91	C	02/18/2023	07:10	-133.576	47.422	0	322.50	0	5.6210	0	33.9100	0	26.741	0	319.561	0	78.9	4	25.8	4	-1E+10	1	-1E+10	1	-1E+10	1	-1E+10	1	-1E+10	1	-1E+10	1
4902549	91	C	02/18/2023	07:10	-133.576	47.422	0	323.90	0	5.6170	0	33.9110	0	26.743	0	320.947	0	78.5	4	25.7	4	-1E+10	1	-1E+10	1	-1E+10	1	-1E+10	1	-1E+10	1	-1E+10	1
4902549	91	C	02/18/2023	07:10	-133.576	47.422	0	325.30	0	5.6090	0	33.9120	0	26.745	0	322.334	0	78.1	4	25.6	4	-1E+10	1	-1E+10	1	-1E+10	1	-1E+10	1	-1E+10	1	-1E+10	1
4902549	91	C	02/18/2023	07:10	-133.576	47.422	0	326.20	0	5.6050	0	33.9120	0	26.745	0	323.225	0	77.8	4	25.5	4	-1E+10	1	-1E+10	1	-1E+10	1	-1E+10	1	-1E+10	1	-1E+10	1
4902549	91	C	02/18/2023	07:10	-133.576	47.422	0	327.10	0	5.5960	0	33.9130	0	26.747	0	324.116	0	77.6	4	25.4	4	-1E+10	1	-1E+10	1	-1E+10	1	-1E+10	1	-1E+10	1	-1E+10	1
4902549	91	C	02/18/2023	07:10	-133.576	47.422	0	328.00	0	5.5940	0	33.9120	0	26.746	0	325.007	0	77.3	4	25.3	4	-1E+10	1	-1E+10	1	-1E+10	1	-1E+10	1	-1E+10	1	-1E+10	1
4902549	91	C	02/18/2023	07:10	-133.576	47.422	0	328.90	0	5.5930	0	33.9120	0	26.746	0	325.898	0	76.9	4	25.2	4	-1E+10	1	-1E+10	1	-1E+10	1	-1E+10	1	-1E+10	1	-1E+10	1
4902549	91	C	02/18/2023	07:10	-133.576	47.422	0	329.80	0	5.5850	0	33.9120	0	26.747	0	326.789	0	76.6	4	25.1	4	-1E+10	1	-1E+10	1	-1E+10	1	-1E+10	1	-1E+10	1	-1E+10	1
4902549	91	C	02/18/2023	07:10	-133.576	47.422	0	330.70	0	5.5740	0	33.9140	0	26.750	0	327.680	0	76.3	4	24.9	4	-1E+10	1	-1E+10	1	-1E+10	1	-1E+10	1	-1E+10	1	-1E+10	1
4902549	91	C	02/18/2023	07:10	-133.576	47.422	0	331.60	0	5.5620	0	33.9140	0	26.752	0	328.571	0	75.9	4	24.8	4	-1E+10	1	-1E+10	1	-1E+10	1	-1E+10	1	-1E+10	1	-1E+10	1
4902549	91	C	02/18/2023	07:10	-133.576	47.422	0	332.60	0	5.5570	0	33.9150	0	26.753	0	329.561	0	75.5	4	24.7	4	-1E+10	1	-1E+10	1	-1E+10	1	-1E+10	1	-1E+10	1	-1E+10	1
4902549	91	C	02/18/2023	07:10	-133.576	47.422	0	333.90	0	5.5480	0	33.9150	0	26.754	0	330.848	0	75.1	4	24.5	4	-1E+10	1	-1E+10	1	-1E+10	1	-1E+10	1	-1E+10	1	-1E+10	1
4902549	91	C	02/18/2023	07:10	-133.576	47.422	0	335.30	0	5.5440	0	33.9150	0	26.755	0	332.234	0	74.6	4	24.4	4	-1E+10	1	-1E+10	1	-1E+10	1	-1E+10	1	-1E+10	1	-1E+10	1
4902549	91	C	02/18/2023	07:10	-133.576	47.422	0	336.20	0	5.5200	0	33.9170	0	26.759	0	333.126	0	74.3	4	24.3	4	-1E+10	1	-1E+10	1	-1E+10	1	-1E+10	1	-1E+10	1	-1E+10	1
4902549	91	C	02/18/2023	07:10	-133.576	47.422	0	337.20	0	5.5170	0	33.9170	0	26.760	0	334.116	0	73.9	4	24.2	4	-1E+10	1	-1E+10	1	-1E+10	1	-1E+10	1	-1E+10	1	-1E+10	1
4902549	91	C	02/18/2023	07:10	-133.576	47.422	0	338.10	0	5.5140	0	33.9170	0	26.760	0	335.007	0	73.6	4	24.0	4	-1E+10	1	-1E+10	1	-1E+10	1	-1E+10	1	-1E+10	1	-1E+10	1
4902549	91	C	02/18/2023	07:10	-133.576	47.422	0	339.00	0	5.4970	0	33.9200	0	26.764	0	335.898	0	73.4	4	24.0	4	-1E+10	1	-1E+10	1	-1E+10	1	-1E+10	1	-1E+10	1	-1E+10	1
4902549	91	C	02/18/2023	07:10	-133.576	47.422	0	339.90	0	5.4850	0	33.9190	0	26.765	0	336.789	0	73.1	4	23.9	4	-1E+10	1	-1E+10	1	-1E+10	1	-1E+10	1	-1E+10	1	-1E+10	1
4902549	91	C	02/18/2023	07:10	-133.576	47.422	0	340.80	0	5.4820	0	33.9200	0	26.766	0	337.680	0	72.8	4	23.8	4	-1E+10	1	-1E+10	1	-1E+10	1	-1E+10	1	-1E+10	1	-1E+10	1
4902549	91	C	02/18/2023	07:10	-133.576	47.422	0	341.70	0	5.4690	0	33.9220	0	26.769	0	338.571	0	72.5	4	23.7	4	-1E+10	1	-1E+10	1	-1E+10	1	-1E+10	1	-1E+10	1	-1E+10	1
4902549	91	C	02/18/2023	07:10	-133.576	47.422	0	342.70	0	5.4690	0	33.9200	0	26.768	0	339.561	0	72.2	4	23.5	4	-1E+10	1	-1E+10	1	-1E+10	1	-1E+10	1	-1E+10	1	-1E+10	1
4902549	91	C	02/18/2023	07:10	-133.576	47.422	0	343.60	0	5.4590	0	33.9220	0	26.771	0	340.452	0	71.9	4	23.5	4	-1E+10	1	-1E+10	1	-1E+10	1	-1E+10	1	-1E+10	1	-1E+10	1
4902549	91	C	02/18/2023	07:10	-133.576	47.422	0	344.90	0	5.4310	0	33.9220	0	26.774	0	341.739	0	71.5	4	23.3	4	-1E+10	1	-1E+10	1	-1E+10	1	-1E+10	1	-1E+10	1	-1E+10	1
4902549	91	C	02/18/2023	07:10	-133.576	47.422	0	346.30	0	5.4180	0	33.9220	0	26.775	0	343.125	0	71.1	4	23.2	4	-1E+10	1	-1E+10	1	-1E+10	1	-1E+10	1	-1E+10	1	-1E+10	1
4902549	91	C	02/18/2023	07:10	-133.576	47.422	0	347.20	0	5.4110	0	33.9230	0	26.777	0	344.016	0	70.8	4	23.1	4	-1E+10	1	-1E+10	1	-1E+10	1	-1E+10	1	-1E+10	1	-1E+10	1
4902549	91	C	02/18/2023	07:10	-133.576	47.422	0	348.10	0	5.4080	0	33.9220	0	26.777	0	344.907	0	70.4	4	22.9	4	-1E+10	1	-1E+10	1	-1E+10	1	-1E+10	1	-1E+10	1	-1E+10	1
4902549	91	C	02/18/2023	07:10	-133.576	47.422	0	349.00	0	5.4060	0	33.9220	0	26.777	0	345.798	0	70.0	4	22.8	4	-1E+10	1	-1E+10	1	-1E+10	1	-1E+10	1	-1E+10	1	-1E+10	1
4902549	91	C	02/18/2023	07:10	-133.576	47.422	0	349.90	0	5.3970	0	33.9250	0	26.780	0	346.689	0	69.7	4	22.7	4	-1E+10	1	-1E+10	1	-1E+10	1	-1E+10	1	-1E+10	1	-1E+10	1
4902549	91	C	02/18/2023	07:10	-133.576	47.422	0	353.00	0	5.3780	0	33.9260	0	26.783	0	349.758	0	68.6	4	22.3	4	-1E+10	1	-1E+10	1	-1E+10	1	-1E+10	1	-1E+10	1	-1E+10	1
4902549	91	C	02/18/2023	07:10	-133.576	47.422	0	357.90	0	5.3370	0	33.9290	0	26.791	0	354.608	0	66.6	4	21.7	4	-1E+10	1	-1E+10	1	-1E+10	1	-1E+10	1	-1E+10	1	-1E+10	1
4902549	91	C	02/18/2023	07:10	-133.576	47.422	0	362.90	0	5.2990	0	33.9340	0	26.799	0	359.558	0	64.2	4	20.9	4	-1E+10	1	-1E+10	1	-1E+10	1	-1E+10	1	-1E+10	1	-1E+10	1
4902549	91	C	02/18/2023	07:10	-133.576	47.422	0	367.90	0	5.2580	0	33.9390	0	26.808	0	364.508	0	61.5	4	20.0	4	-1E+10	1	-1E+10	1	-1E+10	1	-1E+10	1	-1E+10	1	-1E+10	1
4902549	91	C	02/18/2023	07:10	-133.576	47.422	0	373.00	0	5.2170	0	33.9470	0	26.819	0	369.556	0	59.6	4	19.3	4	-1E+10	1	-1E+10	1	-1E+10	1	-1E+10	1	-1E+10	1	-1E+10	1
4902549	91	C	02/18/2023	07:10	-133.576	47.422	0	378.20	0	5.1890	0	33.9510	0	26.825	0	374.703	0	58.0	4	18.8	4	-1E+10	1	-1E+10	1	-1E+10	1	-1E+10	1	-1E+10	1	-1E+10	1
4902549	91	C	02/18/2023	07:10	-133.576	47.422	0	383.00	0	5.1580	0	33.9560	0	26.833	0	379.455	0	56.8	4	18.4	4	-1E+10	1	-1E+10	1	-1E+10	1	-1E+10	1	-1E+10	1	-1E+10	1
4902549	91	C	02/18/2023	07:10	-133.576	47.422	0	387.80	0	5.1460	0	33.9570	0	26.835	0	384.206	0	55.4	4	18.0	4	-1E+10	1	-1E+10	1	-1E+10	1	-1E+10	1	-1E+10	1	-1E+10	1
4902549	91	C	02/18/2023	07:10	-133.576	47.422	0	392.60	0	5.1160	0	33.9610	0	26.842	0	388.957	0	53.6	4	17.3	4	-1E+10	1	-1E+10	1	-1E+10	1	-1E+10	1	-1E+10	1	-1E+10	1
4902549	91	C	02/18/2023	07:10	-133.576	47.422	0	397.50	0	5.0780	0	33.9670	0	26.851	0	393.807	0	52.0	4	16.8	4	-1E+10	1	-1E+10	1	-1E+10	1	-1E+10	1	-1E+10	1	-1E+10	1
4902549	91	C	02/18/2023	07:10	-133.576	47.422	0	402.50	0	5.0460	0	33.9710	0	26.858	0	398.755	0	50.4	4	16.3	4	-1E+10	1	-1E+10	1	-1E+10	1	-1E+10	1	-1E+10	1	-1E+10	1
4902549	91	C	02/18/2023	07:10	-133.576	47.422	0	407.50	0	5.0110	0	33.9760	0	26.866	0	403.704	0	49.1	4	15.9	4	-1E+10	1	-1E+10	1	-1E+10	1	-1E+10	1	-1E+10	1	-1E+10	1
4902549	91	C	02/18/2023	07:10	-133.576	47.422	0	412.60	0	4.9860	0	33.9800	0	26.872	0	408.752	0	47.6	4	15.4	4	-1E+10	1	-1E+10	1	-1E+10	1	-1E+10	1	-1E+10	1	-1E+10	1
4902549	91	C	02/18/2023	07:10	-133.576	47.422	0	417.70	0	4.9460	0	33.9860	0	26.881	0	413.799	0	46.0	4	14.8	4	-1E+10	1	-1E+10	1	-1E+10	1	-1E+10	1	-1E+10	1	-1E+10	1
4902549	91	C	02/18/2023	07:10	-133.576	47.422	0	422.90	0	4.9230	0	33.9900	0	26.887	0	418.945	0	44.5	4	14.3	4	-1E+10	1	-1E+10	1	-1E+10	1	-1E+10	1	-1E+10	1	-1E+10	1
4902549	91	C	02/18/2023	07:10	-133.576	47.422	0	428.20	0	4.8950	0	33.9970	0	26.896	0	424.190	0	42.7	4	13.8	4	-1E+10	1	-1E+10	1	-1E+10	1	-1E+10	1	-1E+10	1	-1E+10	1
4902549	91	C	02/18/2023	07:10	-133.576	47.422	0	432.90	0	4.8760	0	34.0030	0	26.903	0	428.841	0	41.4	4	13.3	4	-1E+10	1	-1E+10	1	-1E+10	1	-1E+10	1	-1E+10	1	-1E+10	1
4902549	91	C	02/18/2023	07:10	-133.576	47.422	0	437.50	0	4.8520	0	34.0080	0	26.909	0	433.393	0	40.4	4	13.0	4	-1E+10	1	-1E+10	1	-1E+10	1	-1E+10	1	-1E+10	1	-1E+10	1
4902549	91	C	02/18/2023	07:10	-133.576	47.422	0	442.80	0	4.8330	0	34.0120	0	26.915	0	438.638	0	39.2	4	12.6	4	-1E+10	1	-1E+10	1	-1E+10	1	-1E+10	1	-1E+10	1	-1E+10	1
4902549	91	C	02/18/2023	07:10	-133.576	47.422	0	448.20	0	4.8120	0	34.0170	0	26.921	0	443.981	0	37.7	4	12.1	4	-1E+10	1	-1E+10	1	-1E+10	1	-1E+10	1	-1E+10	1	-1E+10	1
4902549	91	C	02/18/2023	07:10	-133.576	47.422	0	453.00	0	4.7830	0	34.0230	0	26.929	0	448.731	0	36.3	4	11.7	4	-1E+10	1	-1E+10	1	-1E+10	1	-1E+10	1	-1E+10	1	-1E+10	1
4902549	91	C	02/18/2023	07:10	-133.576	47.422	0	457.80	0	4.7650	0	34.0280	0	26.935	0	453.481	0	34.7	4	11.2	4	-1E+10	1	-1E+10	1	-1E+10	1	-1E+10	1	-1E+10	1	-1E+10	1
4902549	91	C	02/18/2023	07:10	-133.576	47.422	0	462.60	0	4.7440	0	34.0340	0	26.942	0	458.230	0	33.1	4	10.6	4	-1E+10	1	-1E+10	1	-1E+10	1	-1E+10	1	-1E+10	1	-1E+10	1
4902549	91	C	02/18/2023	07:10	-133.576	47.422	0	467.50	0	4.7160	0	34.0420	0	26.952	0	463.078	0	31.5	4	10.1	4	-1E+10	1	-1E+10	1	-1E+10	1	-1E+10	1	-1E+10	1	-1E+10	1
4902549	91	C	02/18/2023	07:10	-133.576	47.422	0	472.70	0	4.6920	0	34.0480	0	26.959	0	468.223	0	30.3	4	9.7	4	-1E+10	1	-1E+10	1	-1E+10	1	-1E+10	1	-1E+10	1	-1E+10	1
4902549	91	C	02/18/2023	07:10	-133.576	47.422	0	477.90	0	4.6730	0	34.0540	0	26.966	0	473.368	0	29.0	4	9.3	4	-1E+10	1	-1E+10	1	-1E+10	1	-1E+10	1	-1E+10	1	-1E+10	1
4902549	91	C	02/18/2023	07:10	-133.576	47.422	0	482.90	0	4.6540	0	34.0600	0	26.973	0	478.315	0	28.0	4	9.0	4	-1E+10	1	-1E+10	1	-1E+10	1	-1E+10	1	-1E+10	1	-1E+10	1
4902549	91	C	02/18/2023	07:10	-133.576	47.422	0	487.90	0	4.6350	0	34.0650	0	26.979	0	483.262	0	27.1	4	8.7	4	-1E+10	1	-1E+10	1	-1E+10	1	-1E+10	1	-1E+10	1	-1E+10	1
4902549	91	C	02/18/2023	07:10	-133.576	47.422	0	493.10	0	4.6170	0	34.0690	0	26.984	0	488.406	0	26.4	4	8.5	4	-1E+10	1	-1E+10	1	-1E+10	1	-1E+10	1	-1E+10	1	-1E+10	1
4902549	91	C	02/18/2023	07:10	-133.576	47.422	0	497.80	0	4.6070	0	34.0720	0	26.988	0	493.056	0	25.8	4	8.2	4	-1E+10	1	-1E+10	1	-1E+10	1	-1E+10	1	-1E+10	1	-1E+10	1
4902549	91	C	02/18/2023	07:10	-133.576	47.422	0	502.60	0	4.5970	0	34.0750	0	26.991	0	497.804	0	25.1	4	8.0	4	-1E+10	1	-1E+10	1	-1E+10	1	-1E+10	1	-1E+10	1	-1E+10	1
4902549	91	C	02/18/2023	07:10	-133.576	47.422	0	507.50	0	4.5750	0	34.0800	0	26.998	0	502.652	0	24.5	4	7.8	4	-1E+10	1	-1E+10	1	-1E+10	1	-1E+10	1	-1E+10	1	-1E+10	1
4902549	91	C	02/18/2023	07:10	-133.576	47.422	0	512.50	0	4.5610	0	34.0830	0	27.002	0	507.598	0	23.9	4	7.7	4	-1E+10	1	-1E+10	1	-1E+10	1	-1E+10	1	-1E+10	1	-1E+10	1
4902549	91	C	02/18/2023	07:10	-133.576	47.422	0	517.50	0	4.5430	0	34.0860	0	27.006	0	512.544	0	23.4	4	7.5	4	-1E+10	1	-1E+10	1	-1E+10	1	-1E+10	1	-1E+10	1	-1E+10	1
4902549	91	C	02/18/2023	07:10	-133.576	47.422	0	522.60	0	4.5290	0	34.0890	0	27.010	0	517.588	0	22.7	4	7.3	4	-1E+10	1	-1E+10	1	-1E+10	1	-1E+10	1	-1E+10	1	-1E+10	1
4902549	91	C	02/18/2023	07:10	-133.576	47.422	0	527.70	0	4.5110	0	34.0940	0	27.016	0	522.633	0	22.2	4	7.1	4	-1E+10	1	-1E+10	1	-1E+10	1	-1E+10	1	-1E+10	1	-1E+10	1
4902549	91	C	02/18/2023	07:10	-133.576	47.422	0	532.80	0	4.5020	0	34.0960	0	27.019	0	527.678	0	21.7	4	6.9	4	-1E+10	1	-1E+10	1	-1E+10	1	-1E+10	1	-1E+10	1	-1E+10	1
4902549	91	C	02/18/2023	07:10	-133.576	47.422	0	537.90	0	4.4920	0	34.0980	0	27.021	0	532.722	0	21.1	4	6.7	4	-1E+10	1	-1E+10	1	-1E+10	1	-1E+10	1	-1E+10	1	-1E+10	1
4902549	91	C	02/18/2023	07:10	-133.576	47.422	0	542.90	0	4.4790	0	34.1030	0	27.027	0	537.668	0	20.5	4	6.6	4	-1E+10	1	-1E+10	1	-1E+10	1	-1E+10	1	-1E+10	1	-1E+10	1
4902549	91	C	02/18/2023	07:10	-133.576	47.422	0	548.00	0	4.4650	0	34.1060	0	27.031	0	542.712	0	20.0	4	6.4	4	-1E+10	1	-1E+10	1	-1E+10	1	-1E+10	1	-1E+10	1	-1E+10	1
4902549	91	C	02/18/2023	07:10	-133.576	47.422	0	553.00	0	4.4510	0	34.1100	0	27.035	0	547.657	0	19.5	4	6.2	4	-1E+10	1	-1E+10	1	-1E+10	1	-1E+10	1	-1E+10	1	-1E+10	1
4902549	91	C	02/18/2023	07:10	-133.576	47.422	0	557.90	0	4.4400	0	34.1120	0	27.038	0	552.503	0	18.9	4	6.0	4	-1E+10	1	-1E+10	1	-1E+10	1	-1E+10	1	-1E+10	1	-1E+10	1
4902549	91	C	02/18/2023	07:10	-133.576	47.422	0	562.90	0	4.4210	0	34.1170	0	27.044	0	557.448	0	18.3	4	5.8	4	-1E+10	1	-1E+10	1	-1E+10	1	-1E+10	1	-1E+10	1	-1E+10	1
4902549	91	C	02/18/2023	07:10	-133.576	47.422	0	567.80	0	4.4050	0	34.1220	0	27.050	0	562.294	0	17.6	4	5.6	4	-1E+10	1	-1E+10	1	-1E+10	1	-1E+10	1	-1E+10	1	-1E+10	1
4902549	91	C	02/18/2023	07:10	-133.576	47.422	0	572.70	0	4.3880	0	34.1270	0	27.056	0	567.140	0	17.0	4	5.4	4	-1E+10	1	-1E+10	1	-1E+10	1	-1E+10	1	-1E+10	1	-1E+10	1
4902549	91	C	02/18/2023	07:10	-133.576	47.422	0	577.60	0	4.3750	0	34.1310	0	27.060	0	571.985	0	16.5	4	5.3	4	-1E+10	1	-1E+10	1	-1E+10	1	-1E+10	1	-1E+10	1	-1E+10	1
4902549	91	C	02/18/2023	07:10	-133.576	47.422	0	582.90	0	4.3610	0	34.1350	0	27.065	0	577.227	0	15.8	4	5.0	4	-1E+10	1	-1E+10	1	-1E+10	1	-1E+10	1	-1E+10	1	-1E+10	1
4902549	91	C	02/18/2023	07:10	-133.576	47.422	0	588.20	0	4.3410	0	34.1390	0	27.070	0	582.468	0	15.1	4	4.8	4	-1E+10	1	-1E+10	1	-1E+10	1	-1E+10	1	-1E+10	1	-1E+10	1
4902549	91	C	02/18/2023	07:10	-133.576	47.422	0	592.90	0	4.3230	0	34.1460	0	27.078	0	587.115	0	14.4	4	4.6	4	-1E+10	1	-1E+10	1	-1E+10	1	-1E+10	1	-1E+10	1	-1E+10	1
4902549	91	C	02/18/2023	07:10	-133.576	47.422	0	597.70	0	4.3020	0	34.1520	0	27.085	0	591.862	0	13.8	4	4.4	4	-1E+10	1	-1E+10	1	-1E+10	1	-1E+10	1	-1E+10	1	-1E+10	1
4902549	91	C	02/18/2023	07:10	-133.576	47.422	0	602.90	0	4.2880	0	34.1580	0	27.091	0	597.003	0	13.4	4	4.2	4	-1E+10	1	-1E+10	1	-1E+10	1	-1E+10	1	-1E+10	1	-1E+10	1
4902549	91	C	02/18/2023	07:10	-133.576	47.422	0	608.00	0	4.2760	0	34.1620	0	27.096	0	602.046	0	12.9	4	4.1	4	-1E+10	1	-1E+10	1	-1E+10	1	-1E+10	1	-1E+10	1	-1E+10	1
4902549	91	C	02/18/2023	07:10	-133.576	47.422	0	612.70	0	4.2600	0	34.1670	0	27.101	0	606.693	0	12.5	4	4.0	4	-1E+10	1	-1E+10	1	-1E+10	1	-1E+10	1	-1E+10	1	-1E+10	1
4902549	91	C	02/18/2023	07:10	-133.576	47.422	0	617.80	0	4.2420	0	34.1720	0	27.107	0	611.736	0	12.1	4	3.8	4	-1E+10	1	-1E+10	1	-1E+10	1	-1E+10	1	-1E+10	1	-1E+10	1
4902549	91	C	02/18/2023	07:10	-133.576	47.422	0	623.00	0	4.2270	0	34.1760	0	27.112	0	616.877	0	11.7	4	3.7	4	-1E+10	1	-1E+10	1	-1E+10	1	-1E+10	1	-1E+10	1	-1E+10	1
4902549	91	C	02/18/2023	07:10	-133.576	47.422	0	627.90	0	4.2150	0	34.1800	0	27.116	0	621.721	0	11.4	4	3.6	4	-1E+10	1	-1E+10	1	-1E+10	1	-1E+10	1	-1E+10	1	-1E+10	1
4902549	91	C	02/18/2023	07:10	-133.576	47.422	0	632.80	0	4.2030	0	34.1840	0	27.121	0	626.566	0	11.2	4	3.6	4	-1E+10	1	-1E+10	1	-1E+10	1	-1E+10	1	-1E+10	1	-1E+10	1
4902549	91	C	02/18/2023	07:10	-133.576	47.422	0	637.70	0	4.1940	0	34.1860	0	27.124	0	631.410	0	10.9	4	3.5	4	-1E+10	1	-1E+10	1	-1E+10	1	-1E+10	1	-1E+10	1	-1E+10	1
4902549	91	C	02/18/2023	07:10	-133.576	47.422	0	642.80	0	4.1820	0	34.1900	0	27.128	0	636.452	0	10.7	4	3.4	4	-1E+10	1	-1E+10	1	-1E+10	1	-1E+10	1	-1E+10	1	-1E+10	1
4902549	91	C	02/18/2023	07:10	-133.576	47.422	0	648.00	0	4.1730	0	34.1930	0	27.131	0	641.593	0	10.5	4	3.3	4	-1E+10	1	-1E+10	1	-1E+10	1	-1E+10	1	-1E+10	1	-1E+10	1
4902549	91	C	02/18/2023	07:10	-133.576	47.422	0	653.20	0	4.1650	0	34.1950	0	27.134	0	646.733	0	10.3	4	3.3	4	-1E+10	1	-1E+10	1	-1E+10	1	-1E+10	1	-1E+10	1	-1E+10	1
4902549	91	C	02/18/2023	07:10	-133.576	47.422	0	658.10	0	4.1580	0	34.1980	0	27.137	0	651.577	0	10.0	4	3.2	4	-1E+10	1	-1E+10	1	-1E+10	1	-1E+10	1	-1E+10	1	-1E+10	1
4902549	91	C	02/18/2023	07:10	-133.576	47.422	0	663.20	0	4.1480	0	34.2010	0	27.140	0	656.618	0	9.8	4	3.1	4	-1E+10	1	-1E+10	1	-1E+10	1	-1E+10	1	-1E+10	1	-1E+10	1
4902549	91	C	02/18/2023	07:10	-133.576	47.422	0	668.00	0	4.1410	0	34.2030	0	27.143	0	661.363	0	9.7	4	3.1	4	-1E+10	1	-1E+10	1	-1E+10	1	-1E+10	1	-1E+10	1	-1E+10	1
4902549	91	C	02/18/2023	07:10	-133.576	47.422	0	672.90	0	4.1360	0	34.2050	0	27.145	0	666.207	0	9.5	4	3.0	4	-1E+10	1	-1E+10	1	-1E+10	1	-1E+10	1	-1E+10	1	-1E+10	1
4902549	91	C	02/18/2023	07:10	-133.576	47.422	0	677.90	0	4.1230	0	34.2090	0	27.149	0	671.149	0	9.3	4	2.9	4	-1E+10	1	-1E+10	1	-1E+10	1	-1E+10	1	-1E+10	1	-1E+10	1
4902549	91	C	02/18/2023	07:10	-133.576	47.422	0	682.70	0	4.1140	0	34.2110	0	27.152	0	675.893	0	9.1	4	2.9	4	-1E+10	1	-1E+10	1	-1E+10	1	-1E+10	1	-1E+10	1	-1E+10	1
4902549	91	C	02/18/2023	07:10	-133.576	47.422	0	687.60	0	4.1030	0	34.2130	0	27.155	0	680.736	0	9.0	4	2.9	4	-1E+10	1	-1E+10	1	-1E+10	1	-1E+10	1	-1E+10	1	-1E+10	1
4902549	91	C	02/18/2023	07:10	-133.576	47.422	0	692.60	0	4.0920	0	34.2150	0	27.158	0	685.678	0	8.9	4	2.8	4	-1E+10	1	-1E+10	1	-1E+10	1	-1E+10	1	-1E+10	1	-1E+10	1
4902549	91	C	02/18/2023	07:10	-133.576	47.422	0	697.50	0	4.0810	0	34.2170	0	27.160	0	690.521	0	8.8	4	2.8	4	-1E+10	1	-1E+10	1	-1E+10	1	-1E+10	1	-1E+10	1	-1E+10	1
4902549	91	C	02/18/2023	07:10	-133.576	47.422	0	702.60	0	4.0710	0	34.2200	0	27.164	0	695.562	0	8.6	4	2.7	4	-1E+10	1	-1E+10	1	-1E+10	1	-1E+10	1	-1E+10	1	-1E+10	1
4902549	91	C	02/18/2023	07:10	-133.576	47.422	0	707.80	0	4.0610	0	34.2240	0	27.168	0	700.701	0	8.4	4	2.6	4	-1E+10	1	-1E+10	1	-1E+10	1	-1E+10	1	-1E+10	1	-1E+10	1
4902549	91	C	02/18/2023	07:10	-133.576	47.422	0	713.10	0	4.0510	0	34.2270	0	27.171	0	705.939	0	8.2	4	2.6	4	-1E+10	1	-1E+10	1	-1E+10	1	-1E+10	1	-1E+10	1	-1E+10	1
4902549	91	C	02/18/2023	07:10	-133.576	47.422	0	717.90	0	4.0400	0	34.2300	0	27.175	0	710.682	0	8.1	4	2.6	4	-1E+10	1	-1E+10	1	-1E+10	1	-1E+10	1	-1E+10	1	-1E+10	1
4902549	91	C	02/18/2023	07:10	-133.576	47.422	0	722.70	0	4.0240	0	34.2320	0	27.178	0	715.426	0	8.0	4	2.5	4	-1E+10	1	-1E+10	1	-1E+10	1	-1E+10	1	-1E+10	1	-1E+10	1
4902549	91	C	02/18/2023	07:10	-133.576	47.422	0	728.00	0	4.0130	0	34.2350	0	27.182	0	720.663	0	7.9	4	2.5	4	-1E+10	1	-1E+10	1	-1E+10	1	-1E+10	1	-1E+10	1	-1E+10	1
4902549	91	C	02/18/2023	07:10	-133.576	47.422	0	732.90	0	4.0030	0	34.2370	0	27.184	0	725.506	0	7.8	4	2.5	4	-1E+10	1	-1E+10	1	-1E+10	1	-1E+10	1	-1E+10	1	-1E+10	1
4902549	91	C	02/18/2023	07:10	-133.576	47.422	0	737.70	0	3.9930	0	34.2390	0	27.187	0	730.249	0	7.7	4	2.4	4	-1E+10	1	-1E+10	1	-1E+10	1	-1E+10	1	-1E+10	1	-1E+10	1
4902549	91	C	02/18/2023	07:10	-133.576	47.422	0	743.10	0	3.9770	0	34.2420	0	27.191	0	735.585	0	7.6	4	2.4	4	-1E+10	1	-1E+10	1	-1E+10	1	-1E+10	1	-1E+10	1	-1E+10	1
4902549	91	C	02/18/2023	07:10	-133.576	47.422	0	748.00	0	3.9620	0	34.2450	0	27.195	0	740.426	0	7.5	4	2.4	4	-1E+10	1	-1E+10	1	-1E+10	1	-1E+10	1	-1E+10	1	-1E+10	1
4902549	91	C	02/18/2023	07:10	-133.576	47.422	0	752.80	0	3.9590	0	34.2470	0	27.197	0	745.169	0	7.4	4	2.3	4	-1E+10	1	-1E+10	1	-1E+10	1	-1E+10	1	-1E+10	1	-1E+10	1
4902549	91	C	02/18/2023	07:10	-133.576	47.422	0	758.20	0	3.9500	0	34.2510	0	27.201	0	750.505	0	7.3	4	2.3	4	-1E+10	1	-1E+10	1	-1E+10	1	-1E+10	1	-1E+10	1	-1E+10	1
4902549	91	C	02/18/2023	07:10	-133.576	47.422	0	763.00	0	3.9320	0	34.2540	0	27.205	0	755.247	0	7.3	4	2.3	4	-1E+10	1	-1E+10	1	-1E+10	1	-1E+10	1	-1E+10	1	-1E+10	1
4902549	91	C	02/18/2023	07:10	-133.576	47.422	0	767.80	0	3.9190	0	34.2560	0	27.208	0	759.990	0	7.3	4	2.3	4	-1E+10	1	-1E+10	1	-1E+10	1	-1E+10	1	-1E+10	1	-1E+10	1
4902549	91	C	02/18/2023	07:10	-133.576	47.422	0	773.20	0	3.9070	0	34.2570	0	27.210	0	765.325	0	7.3	4	2.3	4	-1E+10	1	-1E+10	1	-1E+10	1	-1E+10	1	-1E+10	1	-1E+10	1
4902549	91	C	02/18/2023	07:10	-133.576	47.422	0	777.90	0	3.8960	0	34.2580	0	27.212	0	769.969	0	7.3	4	2.3	4	-1E+10	1	-1E+10	1	-1E+10	1	-1E+10	1	-1E+10	1	-1E+10	1
4902549	91	C	02/18/2023	07:10	-133.576	47.422	0	782.60	0	3.8650	0	34.2610	0	27.218	0	774.612	0	7.4	4	2.3	4	-1E+10	1	-1E+10	1	-1E+10	1	-1E+10	1	-1E+10	1	-1E+10	1
4902549	91	C	02/18/2023	07:10	-133.576	47.422	0	787.90	0	3.8290	0	34.2650	0	27.225	0	779.848	0	7.4	4	2.3	4	-1E+10	1	-1E+10	1	-1E+10	1	-1E+10	1	-1E+10	1	-1E+10	1
4902549	91	C	02/18/2023	07:10	-133.576	47.422	0	793.10	0	3.8110	0	34.2650	0	27.227	0	784.985	0	7.5	4	2.3	4	-1E+10	1	-1E+10	1	-1E+10	1	-1E+10	1	-1E+10	1	-1E+10	1
4902549	91	C	02/18/2023	07:10	-133.576	47.422	0	797.90	0	3.8020	0	34.2660	0	27.228	0	789.727	0	7.5	4	2.4	4	-1E+10	1	-1E+10	1	-1E+10	1	-1E+10	1	-1E+10	1	-1E+10	1
4902549	91	C	02/18/2023	07:10	-133.576	47.422	0	802.50	0	3.7930	0	34.2660	0	27.229	0	794.271	0	7.6	4	2.4	4	-1E+10	1	-1E+10	1	-1E+10	1	-1E+10	1	-1E+10	1	-1E+10	1
4902549	91	C	02/18/2023	07:10	-133.576	47.422	0	807.60	0	3.7800	0	34.2670	0	27.231	0	799.309	0	7.6	4	2.4	4	-1E+10	1	-1E+10	1	-1E+10	1	-1E+10	1	-1E+10	1	-1E+10	1
4902549	91	C	02/18/2023	07:10	-133.576	47.422	0	812.80	0	3.7680	0	34.2680	0	27.233	0	804.446	0	7.7	4	2.4	4	-1E+10	1	-1E+10	1	-1E+10	1	-1E+10	1	-1E+10	1	-1E+10	1
4902549	91	C	02/18/2023	07:10	-133.576	47.422	0	818.00	0	3.7390	0	34.2690	0	27.237	0	809.582	0	7.8	4	2.4	4	-1E+10	1	-1E+10	1	-1E+10	1	-1E+10	1	-1E+10	1	-1E+10	1
4902549	91	C	02/18/2023	07:10	-133.576	47.422	0	823.10	0	3.7010	0	34.2710	0	27.242	0	814.620	0	7.7	4	2.4	4	-1E+10	1	-1E+10	1	-1E+10	1	-1E+10	1	-1E+10	1	-1E+10	1
4902549	91	C	02/18/2023	07:10	-133.576	47.422	0	828.30	0	3.6940	0	34.2730	0	27.245	0	819.756	0	7.6	4	2.4	4	-1E+10	1	-1E+10	1	-1E+10	1	-1E+10	1	-1E+10	1	-1E+10	1
4902549	91	C	02/18/2023	07:10	-133.576	47.422	0	832.90	0	3.6910	0	34.2760	0	27.247	0	824.299	0	7.4	4	2.3	4	-1E+10	1	-1E+10	1	-1E+10	1	-1E+10	1	-1E+10	1	-1E+10	1
4902549	91	C	02/18/2023	07:10	-133.576	47.422	0	837.50	0	3.6920	0	34.2800	0	27.251	0	828.843	0	7.3	4	2.3	4	-1E+10	1	-1E+10	1	-1E+10	1	-1E+10	1	-1E+10	1	-1E+10	1
4902549	91	C	02/18/2023	07:10	-133.576	47.422	0	842.70	0	3.6680	0	34.2820	0	27.255	0	833.979	0	7.1	4	2.2	4	-1E+10	1	-1E+10	1	-1E+10	1	-1E+10	1	-1E+10	1	-1E+10	1
4902549	91	C	02/18/2023	07:10	-133.576	47.422	0	847.90	0	3.6590	0	34.2870	0	27.259	0	839.114	0	6.7	4	2.1	4	-1E+10	1	-1E+10	1	-1E+10	1	-1E+10	1	-1E+10	1	-1E+10	1
4902549	91	C	02/18/2023	07:10	-133.576	47.422	0	853.10	0	3.6770	0	34.2970	0	27.266	0	844.250	0	6.5	4	2.0	4	-1E+10	1	-1E+10	1	-1E+10	1	-1E+10	1	-1E+10	1	-1E+10	1
4902549	91	C	02/18/2023	07:10	-133.576	47.422	0	858.30	0	3.6620	0	34.3010	0	27.270	0	849.385	0	6.6	4	2.1	4	-1E+10	1	-1E+10	1	-1E+10	1	-1E+10	1	-1E+10	1	-1E+10	1
4902549	91	C	02/18/2023	07:10	-133.576	47.422	0	863.00	0	3.6520	0	34.3030	0	27.273	0	854.027	0	6.8	4	2.1	4	-1E+10	1	-1E+10	1	-1E+10	1	-1E+10	1	-1E+10	1	-1E+10	1
4902549	91	C	02/18/2023	07:10	-133.576	47.422	0	867.60	0	3.6050	0	34.3010	0	27.276	0	858.570	0	7.0	4	2.2	4	-1E+10	1	-1E+10	1	-1E+10	1	-1E+10	1	-1E+10	1	-1E+10	1
4902549	91	C	02/18/2023	07:10	-133.576	47.422	0	873.00	0	3.5600	0	34.3000	0	27.280	0	863.902	0	7.0	4	2.2	4	-1E+10	1	-1E+10	1	-1E+10	1	-1E+10	1	-1E+10	1	-1E+10	1
4902549	91	C	02/18/2023	07:10	-133.576	47.422	0	878.20	0	3.5640	0	34.3040	0	27.282	0	869.037	0	7.0	4	2.2	4	-1E+10	1	-1E+10	1	-1E+10	1	-1E+10	1	-1E+10	1	-1E+10	1
4902549	91	C	02/18/2023	07:10	-133.576	47.422	0	883.10	0	3.5410	0	34.3050	0	27.285	0	873.876	0	6.9	4	2.2	4	-1E+10	1	-1E+10	1	-1E+10	1	-1E+10	1	-1E+10	1	-1E+10	1
4902549	91	C	02/18/2023	07:10	-133.576	47.422	0	888.00	0	3.5180	0	34.3080	0	27.290	0	878.715	0	6.9	4	2.1	4	-1E+10	1	-1E+10	1	-1E+10	1	-1E+10	1	-1E+10	1	-1E+10	1
4902549	91	C	02/18/2023	07:10	-133.576	47.422	0	893.00	0	3.5040	0	34.3120	0	27.295	0	883.652	0	6.8	4	2.1	4	-1E+10	1	-1E+10	1	-1E+10	1	-1E+10	1	-1E+10	1	-1E+10	1
4902549	91	C	02/18/2023	07:10	-133.576	47.422	0	898.10	0	3.4920	0	34.3170	0	27.300	0	888.688	0	6.6	4	2.1	4	-1E+10	1	-1E+10	1	-1E+10	1	-1E+10	1	-1E+10	1	-1E+10	1
4902549	91	C	02/18/2023	07:10	-133.576	47.422	0	903.20	0	3.4990	0	34.3220	0	27.303	0	893.723	0	6.5	4	2.0	4	-1E+10	1	-1E+10	1	-1E+10	1	-1E+10	1	-1E+10	1	-1E+10	1
4902549	91	C	02/18/2023	07:10	-133.576	47.422	0	908.00	0	3.4900	0	34.3250	0	27.306	0	898.463	0	6.5	4	2.0	4	-1E+10	1	-1E+10	1	-1E+10	1	-1E+10	1	-1E+10	1	-1E+10	1
4902549	91	C	02/18/2023	07:10	-133.576	47.422	0	912.90	0	3.4770	0	34.3270	0	27.309	0	903.301	0	6.4	4	2.0	4	-1E+10	1	-1E+10	1	-1E+10	1	-1E+10	1	-1E+10	1	-1E+10	1
4902549	91	C	02/18/2023	07:10	-133.576	47.422	0	917.80	0	3.4800	0	34.3310	0	27.312	0	908.138	0	6.5	4	2.0	4	-1E+10	1	-1E+10	1	-1E+10	1	-1E+10	1	-1E+10	1	-1E+10	1
4902549	91	C	02/18/2023	07:10	-133.576	47.422	0	922.80	0	3.4590	0	34.3300	0	27.314	0	913.075	0	6.5	4	2.0	4	-1E+10	1	-1E+10	1	-1E+10	1	-1E+10	1	-1E+10	1	-1E+10	1
4902549	91	C	02/18/2023	07:10	-133.576	47.422	0	927.80	0	3.4400	0	34.3320	0	27.317	0	918.011	0	6.5	4	2.0	4	-1E+10	1	-1E+10	1	-1E+10	1	-1E+10	1	-1E+10	1	-1E+10	1
4902549	91	C	02/18/2023	07:10	-133.576	47.422	0	932.90	0	3.4290	0	34.3340	0	27.320	0	923.046	0	6.4	4	2.0	4	-1E+10	1	-1E+10	1	-1E+10	1	-1E+10	1	-1E+10	1	-1E+10	1
4902549	91	C	02/18/2023	07:10	-133.576	47.422	0	937.90	0	3.4250	0	34.3360	0	27.322	0	927.982	0	6.3	4	2.0	4	-1E+10	1	-1E+10	1	-1E+10	1	-1E+10	1	-1E+10	1	-1E+10	1
4902549	91	C	02/18/2023	07:10	-133.576	47.422	0	942.60	0	3.4330	0	34.3400	0	27.324	0	932.622	0	6.3	4	1.9	4	-1E+10	1	-1E+10	1	-1E+10	1	-1E+10	1	-1E+10	1	-1E+10	1
4902549	91	C	02/18/2023	07:10	-133.576	47.422	0	947.90	0	3.4350	0	34.3450	0	27.328	0	937.854	0	6.2	4	1.9	4	-1E+10	1	-1E+10	1	-1E+10	1	-1E+10	1	-1E+10	1	-1E+10	1
4902549	91	C	02/18/2023	07:10	-133.576	47.422	0	953.30	0	3.4330	0	34.3480	0	27.331	0	943.185	0	6.1	4	1.9	4	-1E+10	1	-1E+10	1	-1E+10	1	-1E+10	1	-1E+10	1	-1E+10	1
4902549	91	C	02/18/2023	07:10	-133.576	47.422	0	958.20	0	3.4230	0	34.3490	0	27.332	0	948.022	0	6.1	4	1.9	4	-1E+10	1	-1E+10	1	-1E+10	1	-1E+10	1	-1E+10	1	-1E+10	1
4902549	91	C	02/18/2023	07:10	-133.576	47.422	0	963.10	0	3.4210	0	34.3540	0	27.337	0	952.858	0	6.1	4	1.9	4	-1E+10	1	-1E+10	1	-1E+10	1	-1E+10	1	-1E+10	1	-1E+10	1
4902549	91	C	02/18/2023	07:10	-133.576	47.422	0	968.00	0	3.4130	0	34.3570	0	27.340	0	957.695	0	6.1	4	1.9	4	-1E+10	1	-1E+10	1	-1E+10	1	-1E+10	1	-1E+10	1	-1E+10	1
4902549	91	C	02/18/2023	07:10	-133.576	47.422	0	973.00	0	3.4110	0	34.3610	0	27.343	0	962.630	0	6.1	4	1.9	4	-1E+10	1	-1E+10	1	-1E+10	1	-1E+10	1	-1E+10	1	-1E+10	1
4902549	91	C	02/18/2023	07:10	-133.576	47.422	0	978.00	0	3.4000	0	34.3620	0	27.345	0	967.566	0	6.2	4	1.9	4	-1E+10	1	-1E+10	1	-1E+10	1	-1E+10	1	-1E+10	1	-1E+10	1
4902549	91	C	02/18/2023	07:10	-133.576	47.422	0	982.90	0	3.3840	0	34.3620	0	27.347	0	972.402	0	6.2	4	1.9	4	-1E+10	1	-1E+10	1	-1E+10	1	-1E+10	1	-1E+10	1	-1E+10	1
4902549	91	C	02/18/2023	07:10	-133.576	47.422	0	987.90	0	3.3810	0	34.3660	0	27.350	0	977.337	0	6.2	4	1.9	4	-1E+10	1	-1E+10	1	-1E+10	1	-1E+10	1	-1E+10	1	-1E+10	1
4902549	91	C	02/18/2023	07:10	-133.576	47.422	0	992.80	0	3.3740	0	34.3700	0	27.354	0	982.173	0	6.3	4	2.0	4	-1E+10	1	-1E+10	1	-1E+10	1	-1E+10	1	-1E+10	1	-1E+10	1
4902549	91	C	02/18/2023	07:10	-133.576	47.422	0	997.70	0	3.3620	0	34.3720	0	27.357	0	987.009	0	6.3	4	2.0	4	-1E+10	1	-1E+10	1	-1E+10	1	-1E+10	1	-1E+10	1	-1E+10	1
4902549	91	C	02/18/2023	07:10	-133.576	47.422	0	1005.40	0	3.3410	0	34.3750	0	27.361	0	994.608	0	6.4	4	2.0	4	-1E+10	1	-1E+10	1	-1E+10	1	-1E+10	1	-1E+10	1	-1E+10	1
4902549	91	C	02/18/2023	07:10	-133.576	47.422	0	1015.70	0	3.3330	0	34.3780	0	27.364	0	1004.773	0	6.5	4	2.0	4	-1E+10	1	-1E+10	1	-1E+10	1	-1E+10	1	-1E+10	1	-1E+10	1
4902549	91	C	02/18/2023	07:10	-133.576	47.422	0	1025.50	0	3.3110	0	34.3810	0	27.369	0	1014.444	0	6.6	4	2.1	4	-1E+10	1	-1E+10	1	-1E+10	1	-1E+10	1	-1E+10	1	-1E+10	1
4902549	91	C	02/18/2023	07:10	-133.576	47.422	0	1035.20	0	3.2870	0	34.3860	0	27.375	0	1024.016	0	6.7	4	2.1	4	-1E+10	1	-1E+10	1	-1E+10	1	-1E+10	1	-1E+10	1	-1E+10	1
4902549	91	C	02/18/2023	07:10	-133.576	47.422	0	1045.30	0	3.2600	0	34.3870	0	27.379	0	1033.982	0	6.8	4	2.1	4	-1E+10	1	-1E+10	1	-1E+10	1	-1E+10	1	-1E+10	1	-1E+10	1
4902549	91	C	02/18/2023	07:10	-133.576	47.422	0	1055.50	0	3.2200	0	34.3900	0	27.385	0	1044.046	0	6.9	4	2.1	4	-1E+10	1	-1E+10	1	-1E+10	1	-1E+10	1	-1E+10	1	-1E+10	1
4902549	91	C	02/18/2023	07:10	-133.576	47.422	0	1065.30	0	3.2020	0	34.3930	0	27.389	0	1053.715	0	7.0	4	2.2	4	-1E+10	1	-1E+10	1	-1E+10	1	-1E+10	1	-1E+10	1	-1E+10	1
4902549	91	C	02/18/2023	07:10	-133.576	47.422	0	1075.10	0	3.1850	0	34.3960	0	27.393	0	1063.383	0	7.2	4	2.2	4	-1E+10	1	-1E+10	1	-1E+10	1	-1E+10	1	-1E+10	1	-1E+10	1
4902549	91	C	02/18/2023	07:10	-133.576	47.422	0	1085.00	0	3.1630	0	34.4000	0	27.398	0	1073.150	0	7.3	4	2.3	4	-1E+10	1	-1E+10	1	-1E+10	1	-1E+10	1	-1E+10	1	-1E+10	1
4902549	91	C	02/18/2023	07:10	-133.576	47.422	0	1095.60	0	3.1350	0	34.4040	0	27.404	0	1083.607	0	7.5	4	2.3	4	-1E+10	1	-1E+10	1	-1E+10	1	-1E+10	1	-1E+10	1	-1E+10	1
4902549	91	C	02/18/2023	07:10	-133.576	47.422	0	1105.60	0	3.1180	0	34.4070	0	27.408	0	1093.472	0	7.7	4	2.4	4	-1E+10	1	-1E+10	1	-1E+10	1	-1E+10	1	-1E+10	1	-1E+10	1
4902549	91	C	02/18/2023	07:10	-133.576	47.422	0	1115.60	0	3.0950	0	34.4100	0	27.413	0	1103.336	0	7.8	4	2.4	4	-1E+10	1	-1E+10	1	-1E+10	1	-1E+10	1	-1E+10	1	-1E+10	1
4902549	91	C	02/18/2023	07:10	-133.576	47.422	0	1125.50	0	3.0770	0	34.4130	0	27.417	0	1113.101	0	8.0	4	2.5	4	-1E+10	1	-1E+10	1	-1E+10	1	-1E+10	1	-1E+10	1	-1E+10	1
4902549	91	C	02/18/2023	07:10	-133.576	47.422	0	1135.30	0	3.0600	0	34.4160	0	27.421	0	1122.767	0	8.2	4	2.5	4	-1E+10	1	-1E+10	1	-1E+10	1	-1E+10	1	-1E+10	1	-1E+10	1
4902549	91	C	02/18/2023	07:10	-133.576	47.422	0	1145.50	0	3.0300	0	34.4200	0	27.427	0	1132.826	0	8.4	4	2.6	4	-1E+10	1	-1E+10	1	-1E+10	1	-1E+10	1	-1E+10	1	-1E+10	1
4902549	91	C	02/18/2023	07:10	-133.576	47.422	0	1155.60	0	3.0170	0	34.4220	0	27.429	0	1142.787	0	8.5	4	2.6	4	-1E+10	1	-1E+10	1	-1E+10	1	-1E+10	1	-1E+10	1	-1E+10	1
4902549	91	C	02/18/2023	07:10	-133.576	47.422	0	1165.30	0	3.0020	0	34.4240	0	27.432	0	1152.353	0	8.7	4	2.7	4	-1E+10	1	-1E+10	1	-1E+10	1	-1E+10	1	-1E+10	1	-1E+10	1
4902549	91	C	02/18/2023	07:10	-133.576	47.422	0	1175.20	0	2.9850	0	34.4270	0	27.436	0	1162.116	0	8.9	4	2.8	4	-1E+10	1	-1E+10	1	-1E+10	1	-1E+10	1	-1E+10	1	-1E+10	1
4902549	91	C	02/18/2023	07:10	-133.576	47.422	0	1185.20	0	2.9680	0	34.4290	0	27.440	0	1171.976	0	9.1	4	2.8	4	-1E+10	1	-1E+10	1	-1E+10	1	-1E+10	1	-1E+10	1	-1E+10	1
4902549	91	C	02/18/2023	07:10	-133.576	47.422	0	1195.30	0	2.9530	0	34.4320	0	27.443	0	1181.936	0	9.3	4	2.9	4	-1E+10	1	-1E+10	1	-1E+10	1	-1E+10	1	-1E+10	1	-1E+10	1
4902549	91	C	02/18/2023	07:10	-133.576	47.422	0	1205.50	0	2.9410	0	34.4330	0	27.445	0	1191.993	0	9.5	4	2.9	4	-1E+10	1	-1E+10	1	-1E+10	1	-1E+10	1	-1E+10	1	-1E+10	1
4902549	91	C	02/18/2023	07:10	-133.576	47.422	0	1215.30	0	2.9270	0	34.4360	0	27.449	0	1201.655	0	9.7	4	3.0	4	-1E+10	1	-1E+10	1	-1E+10	1	-1E+10	1	-1E+10	1	-1E+10	1
4902549	91	C	02/18/2023	07:10	-133.576	47.422	0	1225.20	0	2.9090	0	34.4380	0	27.452	0	1211.415	0	9.9	4	3.0	4	-1E+10	1	-1E+10	1	-1E+10	1	-1E+10	1	-1E+10	1	-1E+10	1
4902549	91	C	02/18/2023	07:10	-133.576	47.422	0	1235.10	0	2.8890	0	34.4400	0	27.456	0	1221.175	0	10.0	4	3.1	4	-1E+10	1	-1E+10	1	-1E+10	1	-1E+10	1	-1E+10	1	-1E+10	1
4902549	91	C	02/18/2023	07:10	-133.576	47.422	0	1245.60	0	2.8760	0	34.4410	0	27.458	0	1231.526	0	10.2	4	3.1	4	-1E+10	1	-1E+10	1	-1E+10	1	-1E+10	1	-1E+10	1	-1E+10	1
4902549	91	C	02/18/2023	07:10	-133.576	47.422	0	1255.40	0	2.8530	0	34.4430	0	27.461	0	1241.186	0	10.4	4	3.2	4	-1E+10	1	-1E+10	1	-1E+10	1	-1E+10	1	-1E+10	1	-1E+10	1
4902549	91	C	02/18/2023	07:10	-133.576	47.422	0	1265.20	0	2.8350	0	34.4460	0	27.465	0	1250.846	0	10.8	4	3.3	4	-1E+10	1	-1E+10	1	-1E+10	1	-1E+10	1	-1E+10	1	-1E+10	1
4902549	91	C	02/18/2023	07:10	-133.576	47.422	0	1275.40	0	2.8250	0	34.4490	0	27.469	0	1260.900	0	11.1	4	3.4	4	-1E+10	1	-1E+10	1	-1E+10	1	-1E+10	1	-1E+10	1	-1E+10	1
4902549	91	C	02/18/2023	07:10	-133.576	47.422	0	1285.70	0	2.8130	0	34.4510	0	27.472	0	1271.052	0	11.4	4	3.5	4	-1E+10	1	-1E+10	1	-1E+10	1	-1E+10	1	-1E+10	1	-1E+10	1
4902549	91	C	02/18/2023	07:10	-133.576	47.422	0	1295.60	0	2.7970	0	34.4540	0	27.475	0	1280.809	0	11.7	4	3.6	4	-1E+10	1	-1E+10	1	-1E+10	1	-1E+10	1	-1E+10	1	-1E+10	1
4902549	91	C	02/18/2023	07:10	-133.576	47.422	0	1305.70	0	2.7770	0	34.4570	0	27.480	0	1290.763	0	12.1	4	3.7	4	-1E+10	1	-1E+10	1	-1E+10	1	-1E+10	1	-1E+10	1	-1E+10	1
4902549	91	C	02/18/2023	07:10	-133.576	47.422	0	1315.80	0	2.7610	0	34.4600	0	27.483	0	1300.716	0	12.5	4	3.8	4	-1E+10	1	-1E+10	1	-1E+10	1	-1E+10	1	-1E+10	1	-1E+10	1
4902549	91	C	02/18/2023	07:10	-133.576	47.422	0	1325.50	0	2.7480	0	34.4620	0	27.486	0	1310.275	0	12.8	4	3.9	4	-1E+10	1	-1E+10	1	-1E+10	1	-1E+10	1	-1E+10	1	-1E+10	1
4902549	91	C	02/18/2023	07:10	-133.576	47.422	0	1335.30	0	2.7390	0	34.4650	0	27.489	0	1319.931	0	13.2	4	4.0	4	-1E+10	1	-1E+10	1	-1E+10	1	-1E+10	1	-1E+10	1	-1E+10	1
4902549	91	C	02/18/2023	07:10	-133.576	47.422	0	1345.20	0	2.7210	0	34.4680	0	27.493	0	1329.686	0	13.6	4	4.2	4	-1E+10	1	-1E+10	1	-1E+10	1	-1E+10	1	-1E+10	1	-1E+10	1
4902549	91	C	02/18/2023	07:10	-133.576	47.422	0	1355.20	0	2.6960	0	34.4710	0	27.498	0	1339.539	0	14.1	4	4.3	4	-1E+10	1	-1E+10	1	-1E+10	1	-1E+10	1	-1E+10	1	-1E+10	1
4902549	91	C	02/18/2023	07:10	-133.576	47.422	0	1365.30	0	2.6830	0	34.4730	0	27.501	0	1349.490	0	14.5	4	4.4	4	-1E+10	1	-1E+10	1	-1E+10	1	-1E+10	1	-1E+10	1	-1E+10	1
4902549	91	C	02/18/2023	07:10	-133.576	47.422	0	1375.00	0	2.6710	0	34.4750	0	27.504	0	1359.047	0	14.9	4	4.6	4	-1E+10	1	-1E+10	1	-1E+10	1	-1E+10	1	-1E+10	1	-1E+10	1
4902549	91	C	02/18/2023	07:10	-133.576	47.422	0	1385.00	0	2.6500	0	34.4790	0	27.509	0	1368.898	0	15.5	4	4.7	4	-1E+10	1	-1E+10	1	-1E+10	1	-1E+10	1	-1E+10	1	-1E+10	1
4902549	91	C	02/18/2023	07:10	-133.576	47.422	0	1395.10	0	2.6340	0	34.4810	0	27.512	0	1378.848	0	16.0	4	4.9	4	-1E+10	1	-1E+10	1	-1E+10	1	-1E+10	1	-1E+10	1	-1E+10	1
4902549	91	C	02/18/2023	07:10	-133.576	47.422	0	1405.50	0	2.6080	0	34.4840	0	27.516	0	1389.092	0	16.4	4	5.0	4	-1E+10	1	-1E+10	1	-1E+10	1	-1E+10	1	-1E+10	1	-1E+10	1
4902549	91	C	02/18/2023	07:10	-133.576	47.422	0	1415.70	0	2.5980	0	34.4860	0	27.519	0	1399.139	0	16.8	4	5.1	4	-1E+10	1	-1E+10	1	-1E+10	1	-1E+10	1	-1E+10	1	-1E+10	1
4902549	91	C	02/18/2023	07:10	-133.576	47.422	0	1425.80	0	2.5890	0	34.4880	0	27.521	0	1409.088	0	17.1	4	5.2	4	-1E+10	1	-1E+10	1	-1E+10	1	-1E+10	1	-1E+10	1	-1E+10	1
4902549	91	C	02/18/2023	07:10	-133.576	47.422	0	1435.50	0	2.5750	0	34.4890	0	27.523	0	1418.641	0	17.7	4	5.4	4	-1E+10	1	-1E+10	1	-1E+10	1	-1E+10	1	-1E+10	1	-1E+10	1
4902549	91	C	02/18/2023	07:10	-133.576	47.422	0	1445.40	0	2.5560	0	34.4920	0	27.527	0	1428.392	0	18.2	4	5.6	4	-1E+10	1	-1E+10	1	-1E+10	1	-1E+10	1	-1E+10	1	-1E+10	1
4902549	91	C	02/18/2023	07:10	-133.576	47.422	0	1455.80	0	2.5320	0	34.4950	0	27.532	0	1438.634	0	18.7	4	5.7	4	-1E+10	1	-1E+10	1	-1E+10	1	-1E+10	1	-1E+10	1	-1E+10	1
4902549	91	C	02/18/2023	07:10	-133.576	47.422	0	1465.40	0	2.5100	0	34.4960	0	27.534	0	1448.088	0	18.7	4	5.7	4	-1E+10	1	-1E+10	1	-1E+10	1	-1E+10	1	-1E+10	1	-1E+10	1
4902549	91	C	02/18/2023	07:10	-133.576	47.422	0	1475.40	0	2.4830	0	34.4950	0	27.536	0	1457.935	0	18.8	4	5.7	4	-1E+10	1	-1E+10	1	-1E+10	1	-1E+10	1	-1E+10	1	-1E+10	1
4902549	91	C	02/18/2023	07:10	-133.576	47.422	0	1485.50	0	2.4790	0	34.4970	0	27.538	0	1467.880	0	19.2	4	5.9	4	-1E+10	1	-1E+10	1	-1E+10	1	-1E+10	1	-1E+10	1	-1E+10	1
4902549	91	C	02/18/2023	07:10	-133.576	47.422	0	1495.40	0	2.4550	0	34.4970	0	27.540	0	1477.628	0	19.4	4	5.9	4	-1E+10	1	-1E+10	1	-1E+10	1	-1E+10	1	-1E+10	1	-1E+10	1
4902549	91	C	02/18/2023	07:10	-133.576	47.422	0	1505.40	0	2.4380	0	34.4990	0	27.543	0	1487.474	0	19.9	4	6.0	4	-1E+10	1	-1E+10	1	-1E+10	1	-1E+10	1	-1E+10	1	-1E+10	1
4902549	91	C	02/18/2023	07:10	-133.576	47.422	0	1515.40	0	2.4230	0	34.5010	0	27.546	0	1497.320	0	20.4	4	6.2	4	-1E+10	1	-1E+10	1	-1E+10	1	-1E+10	1	-1E+10	1	-1E+10	1
4902549	91	C	02/18/2023	07:10	-133.576	47.422	0	1525.20	0	2.4040	0	34.5030	0	27.549	0	1506.968	0	20.8	4	6.3	4	-1E+10	1	-1E+10	1	-1E+10	1	-1E+10	1	-1E+10	1	-1E+10	1
4902549	91	C	02/18/2023	07:10	-133.576	47.422	0	1535.10	0	2.3980	0	34.5050	0	27.551	0	1516.714	0	21.4	4	6.5	4	-1E+10	1	-1E+10	1	-1E+10	1	-1E+10	1	-1E+10	1	-1E+10	1
4902549	91	C	02/18/2023	07:10	-133.576	47.422	0	1545.30	0	2.3880	0	34.5070	0	27.554	0	1526.755	0	22.0	4	6.7	4	-1E+10	1	-1E+10	1	-1E+10	1	-1E+10	1	-1E+10	1	-1E+10	1
4902549	91	C	02/18/2023	07:10	-133.576	47.422	0	1555.60	0	2.3740	0	34.5090	0	27.557	0	1536.894	0	22.5	4	6.8	4	-1E+10	1	-1E+10	1	-1E+10	1	-1E+10	1	-1E+10	1	-1E+10	1
4902549	91	C	02/18/2023	07:10	-133.576	47.422	0	1565.40	0	2.3610	0	34.5110	0	27.559	0	1546.541	0	23.2	4	7.0	4	-1E+10	1	-1E+10	1	-1E+10	1	-1E+10	1	-1E+10	1	-1E+10	1
4902549	91	C	02/18/2023	07:10	-133.576	47.422	0	1575.20	0	2.3480	0	34.5130	0	27.562	0	1556.187	0	23.8	4	7.2	4	-1E+10	1	-1E+10	1	-1E+10	1	-1E+10	1	-1E+10	1	-1E+10	1
4902549	91	C	02/18/2023	07:10	-133.576	47.422	0	1585.30	0	2.3290	0	34.5160	0	27.566	0	1566.127	0	24.7	4	7.5	4	-1E+10	1	-1E+10	1	-1E+10	1	-1E+10	1	-1E+10	1	-1E+10	1
4902549	91	C	02/18/2023	07:10	-133.576	47.422	0	1595.60	0	2.3140	0	34.5190	0	27.570	0	1576.264	0	25.7	4	7.8	4	-1E+10	1	-1E+10	1	-1E+10	1	-1E+10	1	-1E+10	1	-1E+10	1
4902549	91	C	02/18/2023	07:10	-133.576	47.422	0	1605.50	0	2.2970	0	34.5220	0	27.574	0	1586.007	0	26.5	4	8.0	4	-1E+10	1	-1E+10	1	-1E+10	1	-1E+10	1	-1E+10	1	-1E+10	1
4902549	91	C	02/18/2023	07:10	-133.576	47.422	0	1615.40	0	2.2850	0	34.5250	0	27.577	0	1595.750	0	27.2	4	8.3	4	-1E+10	1	-1E+10	1	-1E+10	1	-1E+10	1	-1E+10	1	-1E+10	1
4902549	91	C	02/18/2023	07:10	-133.576	47.422	0	1625.50	0	2.2730	0	34.5260	0	27.579	0	1605.689	0	27.8	4	8.4	4	-1E+10	1	-1E+10	1	-1E+10	1	-1E+10	1	-1E+10	1	-1E+10	1
4902549	91	C	02/18/2023	07:10	-133.576	47.422	0	1635.60	0	2.2580	0	34.5290	0	27.583	0	1615.627	0	28.4	4	8.6	4	-1E+10	1	-1E+10	1	-1E+10	1	-1E+10	1	-1E+10	1	-1E+10	1
4902549	91	C	02/18/2023	07:10	-133.576	47.422	0	1645.40	0	2.2480	0	34.5300	0	27.584	0	1625.270	0	28.9	4	8.8	4	-1E+10	1	-1E+10	1	-1E+10	1	-1E+10	1	-1E+10	1	-1E+10	1
4902549	91	C	02/18/2023	07:10	-133.576	47.422	0	1655.40	0	2.2340	0	34.5320	0	27.587	0	1635.109	0	29.5	4	9.0	4	-1E+10	1	-1E+10	1	-1E+10	1	-1E+10	1	-1E+10	1	-1E+10	1
4902549	91	C	02/18/2023	07:10	-133.576	47.422	0	1665.60	0	2.2220	0	34.5340	0	27.590	0	1645.144	0	30.2	4	9.2	4	-1E+10	1	-1E+10	1	-1E+10	1	-1E+10	1	-1E+10	1	-1E+10	1
4902549	91	C	02/18/2023	07:10	-133.576	47.422	0	1675.40	0	2.2090	0	34.5360	0	27.592	0	1654.786	0	31.0	4	9.4	4	-1E+10	1	-1E+10	1	-1E+10	1	-1E+10	1	-1E+10	1	-1E+10	1
4902549	91	C	02/18/2023	07:10	-133.576	47.422	0	1685.70	0	2.1930	0	34.5380	0	27.595	0	1664.919	0	31.8	4	9.6	4	-1E+10	1	-1E+10	1	-1E+10	1	-1E+10	1	-1E+10	1	-1E+10	1
4902549	91	C	02/18/2023	07:10	-133.576	47.422	0	1695.30	0	2.1790	0	34.5400	0	27.598	0	1674.363	0	32.2	4	9.8	4	-1E+10	1	-1E+10	1	-1E+10	1	-1E+10	1	-1E+10	1	-1E+10	1
4902549	91	C	02/18/2023	07:10	-133.576	47.422	0	1705.40	0	2.1690	0	34.5410	0	27.600	0	1684.298	0	32.7	4	9.9	4	-1E+10	1	-1E+10	1	-1E+10	1	-1E+10	1	-1E+10	1	-1E+10	1
4902549	91	C	02/18/2023	07:10	-133.576	47.422	0	1715.60	0	2.1590	0	34.5430	0	27.602	0	1694.331	0	33.4	4	10.1	4	-1E+10	1	-1E+10	1	-1E+10	1	-1E+10	1	-1E+10	1	-1E+10	1
4902549	91	C	02/18/2023	07:10	-133.576	47.422	0	1725.70	0	2.1510	0	34.5440	0	27.604	0	1704.265	0	33.9	4	10.2	4	-1E+10	1	-1E+10	1	-1E+10	1	-1E+10	1	-1E+10	1	-1E+10	1
4902549	91	C	02/18/2023	07:10	-133.576	47.422	0	1735.70	0	2.1380	0	34.5460	0	27.606	0	1714.100	0	34.5	4	10.4	4	-1E+10	1	-1E+10	1	-1E+10	1	-1E+10	1	-1E+10	1	-1E+10	1
4902549	91	C	02/18/2023	07:10	-133.576	47.422	0	1745.40	0	2.1280	0	34.5480	0	27.609	0	1723.640	0	35.2	4	10.6	4	-1E+10	1	-1E+10	1	-1E+10	1	-1E+10	1	-1E+10	1	-1E+10	1
4902549	91	C	02/18/2023	07:10	-133.576	47.422	0	1755.40	0	2.1220	0	34.5490	0	27.610	0	1733.475	0	35.8	4	10.8	4	-1E+10	1	-1E+10	1	-1E+10	1	-1E+10	1	-1E+10	1	-1E+10	1
4902549	91	C	02/18/2023	07:10	-133.576	47.422	0	1765.30	0	2.1120	0	34.5510	0	27.612	0	1743.211	0	36.5	4	11.0	4	-1E+10	1	-1E+10	1	-1E+10	1	-1E+10	1	-1E+10	1	-1E+10	1
4902549	91	C	02/18/2023	07:10	-133.576	47.422	0	1775.40	0	2.1040	0	34.5520	0	27.614	0	1753.143	0	37.1	4	11.2	4	-1E+10	1	-1E+10	1	-1E+10	1	-1E+10	1	-1E+10	1	-1E+10	1
4902549	91	C	02/18/2023	07:10	-133.576	47.422	0	1785.60	0	2.0930	0	34.5540	0	27.617	0	1763.172	0	37.8	4	11.4	4	-1E+10	1	-1E+10	1	-1E+10	1	-1E+10	1	-1E+10	1	-1E+10	1
4902549	91	C	02/18/2023	07:10	-133.576	47.422	0	1795.50	0	2.0830	0	34.5550	0	27.618	0	1772.907	0	38.5	4	11.6	4	-1E+10	1	-1E+10	1	-1E+10	1	-1E+10	1	-1E+10	1	-1E+10	1
4902549	91	C	02/18/2023	07:10	-133.576	47.422	0	1805.50	0	2.0710	0	34.5570	0	27.621	0	1782.739	0	39.4	4	11.9	4	-1E+10	1	-1E+10	1	-1E+10	1	-1E+10	1	-1E+10	1	-1E+10	1
4902549	91	C	02/18/2023	07:10	-133.576	47.422	0	1815.50	0	2.0620	0	34.5590	0	27.623	0	1792.571	0	40.1	4	12.1	4	-1E+10	1	-1E+10	1	-1E+10	1	-1E+10	1	-1E+10	1	-1E+10	1
4902549	91	C	02/18/2023	07:10	-133.576	47.422	0	1825.40	0	2.0510	0	34.5610	0	27.626	0	1802.304	0	40.9	4	12.3	4	-1E+10	1	-1E+10	1	-1E+10	1	-1E+10	1	-1E+10	1	-1E+10	1
4902549	91	C	02/18/2023	07:10	-133.576	47.422	0	1835.60	0	2.0420	0	34.5620	0	27.627	0	1812.331	0	41.5	4	12.5	4	-1E+10	1	-1E+10	1	-1E+10	1	-1E+10	1	-1E+10	1	-1E+10	1
4902549	91	C	02/18/2023	07:10	-133.576	47.422	0	1845.40	0	2.0330	0	34.5640	0	27.630	0	1821.965	0	42.2	4	12.7	4	-1E+10	1	-1E+10	1	-1E+10	1	-1E+10	1	-1E+10	1	-1E+10	1
4902549	91	C	02/18/2023	07:10	-133.576	47.422	0	1855.20	0	2.0260	0	34.5650	0	27.631	0	1831.598	0	42.8	4	12.9	4	-1E+10	1	-1E+10	1	-1E+10	1	-1E+10	1	-1E+10	1	-1E+10	1
4902549	91	C	02/18/2023	07:10	-133.576	47.422	0	1865.70	0	2.0180	0	34.5670	0	27.633	0	1841.919	0	43.5	4	13.1	4	-1E+10	1	-1E+10	1	-1E+10	1	-1E+10	1	-1E+10	1	-1E+10	1
4902549	91	C	02/18/2023	07:10	-133.576	47.422	0	1876.10	0	2.0100	0	34.5690	0	27.635	0	1852.141	0	44.1	4	13.3	4	-1E+10	1	-1E+10	1	-1E+10	1	-1E+10	1	-1E+10	1	-1E+10	1
4902549	91	C	02/18/2023	07:10	-133.576	47.422	0	1885.60	0	2.0020	0	34.5700	0	27.637	0	1861.479	0	44.6	4	13.5	4	-1E+10	1	-1E+10	1	-1E+10	1	-1E+10	1	-1E+10	1	-1E+10	1
4902549	91	C	02/18/2023	07:10	-133.576	47.422	0	1895.40	0	1.9960	0	34.5710	0	27.638	0	1871.110	0	45.3	4	13.6	4	-1E+10	1	-1E+10	1	-1E+10	1	-1E+10	1	-1E+10	1	-1E+10	1
4902549	91	C	02/18/2023	07:10	-133.576	47.422	0	1905.20	0	1.9890	0	34.5730	0	27.640	0	1880.741	0	45.9	4	13.8	4	-1E+10	1	-1E+10	1	-1E+10	1	-1E+10	1	-1E+10	1	-1E+10	1
4902549	91	C	02/18/2023	07:10	-133.576	47.422	0	1915.10	0	1.9810	0	34.5740	0	27.642	0	1890.470	0	46.5	4	14.0	4	-1E+10	1	-1E+10	1	-1E+10	1	-1E+10	1	-1E+10	1	-1E+10	1
4902549	91	C	02/18/2023	07:10	-133.576	47.422	0	1925.20	0	1.9750	0	34.5750	0	27.643	0	1900.395	0	47.0	4	14.2	4	-1E+10	1	-1E+10	1	-1E+10	1	-1E+10	1	-1E+10	1	-1E+10	1
4902549	91	C	02/18/2023	07:10	-133.576	47.422	0	1935.10	0	1.9700	0	34.5760	0	27.645	0	1910.123	0	47.6	4	14.3	4	-1E+10	1	-1E+10	1	-1E+10	1	-1E+10	1	-1E+10	1	-1E+10	1
4902549	91	C	02/18/2023	07:10	-133.576	47.422	0	1945.20	0	1.9630	0	34.5780	0	27.647	0	1920.047	0	48.0	4	14.5	4	-1E+10	1	-1E+10	1	-1E+10	1	-1E+10	1	-1E+10	1	-1E+10	1
4902549	91	C	02/18/2023	07:10	-133.576	47.422	0	1955.30	0	1.9580	0	34.5790	0	27.648	0	1929.971	0	48.5	4	14.6	4	-1E+10	1	-1E+10	1	-1E+10	1	-1E+10	1	-1E+10	1	-1E+10	1
4902549	91	C	02/18/2023	07:10	-133.576	47.422	0	1965.50	0	1.9510	0	34.5800	0	27.649	0	1939.993	0	49.2	4	14.8	4	-1E+10	1	-1E+10	1	-1E+10	1	-1E+10	1	-1E+10	1	-1E+10	1
4902549	91	C	02/18/2023	07:10	-133.576	47.422	0	1975.50	0	1.9430	0	34.5810	0	27.651	0	1949.817	0	49.6	4	14.9	4	-1E+10	1	-1E+10	1	-1E+10	1	-1E+10	1	-1E+10	1	-1E+10	1
4902549	91	C	02/18/2023	07:10	-133.576	47.422	0	1985.80	0	1.9390	0	34.5820	0	27.652	0	1959.936	0	49.7	4	14.9	4	-1E+10	1	-1E+10	1	-1E+10	1	-1E+10	1	-1E+10	1	-1E+10	1
4902549	91	C	02/18/2023	07:10	-133.576	47.422	0	1990.60	0	1.9380	0	34.5830	0	27.653	0	1964.651	0	49.5	4	14.9	4	-1E+10	1	-1E+10	1	-1E+10	1	-1E+10	1	-1E+10	1	-1E+10	1
4902549	91	C	02/18/2023	07:10	-133.576	47.422	0																										
4902549	92	C	02/28/2023	12:08	-133.661	47.404	0	0.10	0	8.2620	0	32.3700	0	25.171	0	0.099	0	279.6	4	96.2	4	-1E+10	1	-1E+10	1	-1E+10	1	-1E+10	1	-1E+10	1	-1E+10	1
4902549	92	C	02/28/2023	12:08	-133.661	47.404	0	0.20	0	8.2730	0	32.3730	0	25.172	0	0.198	0	272.6	4	93.8	4	-1E+10	1	-1E+10	1	-1E+10	1	-1E+10	1	-1E+10	1	-1E+10	1
4902549	92	C	02/28/2023	12:08	-133.661	47.404	0	0.30	0	8.2738	0	32.3723	0	25.171	0	0.297	0	272.6	4	93.8	4	-1E+10	1	-1E+10	1	-1E+10	1	-1E+10	1	-1E+10	1	-1E+10	1
4902549	92	C	02/28/2023	12:08	-133.661	47.404	0	1.10	0	8.2800	0	32.3670	0	25.166	0	1.091	0	272.6	4	93.8	4	-1E+10	1	-1E+10	1	-1E+10	1	-1E+10	1	-1E+10	1	-1E+10	1
4902549	92	C	02/28/2023	12:08	-133.661	47.404	0	2.10	0	8.2800	0	32.3670	0	25.166	0	2.082	0	272.5	4	93.8	4	-1E+10	1	-1E+10	1	-1E+10	1	-1E+10	1	-1E+10	1	-1E+10	1
4902549	92	C	02/28/2023	12:08	-133.661	47.404	0	2.80	0	8.2800	0	32.3670	0	25.166	0	2.777	0	272.6	4	93.8	4	-1E+10	1	-1E+10	1	-1E+10	1	-1E+10	1	-1E+10	1	-1E+10	1
4902549	92	C	02/28/2023	12:08	-133.661	47.404	0	3.80	0	8.2800	0	32.3680	0	25.167	0	3.768	0	272.5	4	93.8	4	-1E+10	1	-1E+10	1	-1E+10	1	-1E+10	1	-1E+10	1	-1E+10	1
4902549	92	C	02/28/2023	12:08	-133.661	47.404	0	4.90	0	8.2800	0	32.3680	0	25.167	0	4.859	0	272.5	4	93.8	4	-1E+10	1	-1E+10	1	-1E+10	1	-1E+10	1	-1E+10	1	-1E+10	1
4902549	92	C	02/28/2023	12:08	-133.661	47.404	0	6.00	0	8.2790	0	32.3680	0	25.167	0	5.950	0	272.5	4	93.7	4	-1E+10	1	-1E+10	1	-1E+10	1	-1E+10	1	-1E+10	1	-1E+10	1
4902549	92	C	02/28/2023	12:08	-133.661	47.404	0	7.20	0	8.2800	0	32.3680	0	25.167	0	7.140	0	272.4	4	93.7	4	-1E+10	1	-1E+10	1	-1E+10	1	-1E+10	1	-1E+10	1	-1E+10	1
4902549	92	C	02/28/2023	12:08	-133.661	47.404	0	7.90	0	8.2800	0	32.3680	0	25.167	0	7.834	0	272.5	4	93.7	4	-1E+10	1	-1E+10	1	-1E+10	1	-1E+10	1	-1E+10	1	-1E+10	1
4902549	92	C	02/28/2023	12:08	-133.661	47.404	0	9.00	0	8.2800	0	32.3680	0	25.167	0	8.925	0	272.5	4	93.7	4	-1E+10	1	-1E+10	1	-1E+10	1	-1E+10	1	-1E+10	1	-1E+10	1
4902549	92	C	02/28/2023	12:08	-133.661	47.404	0	10.10	0	8.2800	0	32.3680	0	25.167	0	10.016	0	272.5	4	93.8	4	-1E+10	1	-1E+10	1	-1E+10	1	-1E+10	1	-1E+10	1	-1E+10	1
4902549	92	C	02/28/2023	12:08	-133.661	47.404	0	10.80	0	8.2800	0	32.3680	0	25.167	0	10.710	0	272.4	4	93.7	4	-1E+10	1	-1E+10	1	-1E+10	1	-1E+10	1	-1E+10	1	-1E+10	1
4902549	92	C	02/28/2023	12:08	-133.661	47.404	0	11.80	0	8.2800	0	32.3680	0	25.167	0	11.701	0	272.5	4	93.7	4	-1E+10	1	-1E+10	1	-1E+10	1	-1E+10	1	-1E+10	1	-1E+10	1
4902549	92	C	02/28/2023	12:08	-133.661	47.404	0	12.90	0	8.2810	0	32.3680	0	25.167	0	12.792	0	272.4	4	93.7	4	-1E+10	1	-1E+10	1	-1E+10	1	-1E+10	1	-1E+10	1	-1E+10	1
4902549	92	C	02/28/2023	12:08	-133.661	47.404	0	13.90	0	8.2800	0	32.3680	0	25.167	0	13.784	0	272.5	4	93.7	4	-1E+10	1	-1E+10	1	-1E+10	1	-1E+10	1	-1E+10	1	-1E+10	1
4902549	92	C	02/28/2023	12:08	-133.661	47.404	0	15.00	0	8.2800	0	32.3680	0	25.167	0	14.874	0	272.3	4	93.7	4	-1E+10	1	-1E+10	1	-1E+10	1	-1E+10	1	-1E+10	1	-1E+10	1
4902549	92	C	02/28/2023	12:08	-133.661	47.404	0	15.80	0	8.2800	0	32.3690	0	25.168	0	15.668	0	272.4	4	93.7	4	-1E+10	1	-1E+10	1	-1E+10	1	-1E+10	1	-1E+10	1	-1E+10	1
4902549	92	C	02/28/2023	12:08	-133.661	47.404	0	16.80	0	8.2780	0	32.3690	0	25.168	0	16.659	0	272.4	4	93.7	4	-1E+10	1	-1E+10	1	-1E+10	1	-1E+10	1	-1E+10	1	-1E+10	1
4902549	92	C	02/28/2023	12:08	-133.661	47.404	0	17.90	0	8.2820	0	32.3680	0	25.167	0	17.750	0	272.4	4	93.7	4	-1E+10	1	-1E+10	1	-1E+10	1	-1E+10	1	-1E+10	1	-1E+10	1
4902549	92	C	02/28/2023	12:08	-133.661	47.404	0	19.00	0	8.2810	0	32.3680	0	25.167	0	18.841	0	272.4	4	93.7	4	-1E+10	1	-1E+10	1	-1E+10	1	-1E+10	1	-1E+10	1	-1E+10	1
4902549	92	C	02/28/2023	12:08	-133.661	47.404	0	20.20	0	8.2810	0	32.3680	0	25.167	0	20.031	0	272.4	4	93.7	4	-1E+10	1	-1E+10	1	-1E+10	1	-1E+10	1	-1E+10	1	-1E+10	1
4902549	92	C	02/28/2023	12:08	-133.661	47.404	0	21.00	0	8.2780	0	32.3680	0	25.167	0	20.824	0	272.4	4	93.7	4	-1E+10	1	-1E+10	1	-1E+10	1	-1E+10	1	-1E+10	1	-1E+10	1
4902549	92	C	02/28/2023	12:08	-133.661	47.404	0	21.80	0	8.2780	0	32.3690	0	25.168	0	21.617	0	272.4	4	93.7	4	-1E+10	1	-1E+10	1	-1E+10	1	-1E+10	1	-1E+10	1	-1E+10	1
4902549	92	C	02/28/2023	12:08	-133.661	47.404	0	22.80	0	8.2780	0	32.3680	0	25.167	0	22.609	0	272.4	4	93.7	4	-1E+10	1	-1E+10	1	-1E+10	1	-1E+10	1	-1E+10	1	-1E+10	1
4902549	92	C	02/28/2023	12:08	-133.661	47.404	0	23.80	0	8.2790	0	32.3680	0	25.167	0	23.600	0	272.4	4	93.7	4	-1E+10	1	-1E+10	1	-1E+10	1	-1E+10	1	-1E+10	1	-1E+10	1
4902549	92	C	02/28/2023	12:08	-133.661	47.404	0	24.80	0	8.2780	0	32.3690	0	25.168	0	24.592	0	272.4	4	93.7	4	-1E+10	1	-1E+10	1	-1E+10	1	-1E+10	1	-1E+10	1	-1E+10	1
4902549	92	C	02/28/2023	12:08	-133.661	47.404	0	26.00	0	8.2780	0	32.3680	0	25.167	0	25.782	0	272.3	4	93.7	4	-1E+10	1	-1E+10	1	-1E+10	1	-1E+10	1	-1E+10	1	-1E+10	1
4902549	92	C	02/28/2023	12:08	-133.661	47.404	0	26.90	0	8.2780	0	32.3680	0	25.167	0	26.674	0	272.4	4	93.7	4	-1E+10	1	-1E+10	1	-1E+10	1	-1E+10	1	-1E+10	1	-1E+10	1
4902549	92	C	02/28/2023	12:08	-133.661	47.404	0	27.80	0	8.2770	0	32.3680	0	25.168	0	27.566	0	272.4	4	93.7	4	-1E+10	1	-1E+10	1	-1E+10	1	-1E+10	1	-1E+10	1	-1E+10	1
4902549	92	C	02/28/2023	12:08	-133.661	47.404	0	29.10	0	8.2760	0	32.3680	0	25.168	0	28.855	0	272.4	4	93.7	4	-1E+10	1	-1E+10	1	-1E+10	1	-1E+10	1	-1E+10	1	-1E+10	1
4902549	92	C	02/28/2023	12:08	-133.661	47.404	0	30.00	0	8.2740	0	32.3680	0	25.168	0	29.748	0	272.4	4	93.7	4	-1E+10	1	-1E+10	1	-1E+10	1	-1E+10	1	-1E+10	1	-1E+10	1
4902549	92	C	02/28/2023	12:08	-133.661	47.404	0	30.80	0	8.2740	0	32.3680	0	25.168	0	30.541	0	272.3	4	93.7	4	-1E+10	1	-1E+10	1	-1E+10	1	-1E+10	1	-1E+10	1	-1E+10	1
4902549	92	C	02/28/2023	12:08	-133.661	47.404	0	31.80	0	8.2750	0	32.3690	0	25.169	0	31.532	0	272.4	4	93.7	4	-1E+10	1	-1E+10	1	-1E+10	1	-1E+10	1	-1E+10	1	-1E+10	1
4902549	92	C	02/28/2023	12:08	-133.661	47.404	0	32.90	0	8.2780	0	32.3680	0	25.168	0	32.623	0	272.4	4	93.7	4	-1E+10	1	-1E+10	1	-1E+10	1	-1E+10	1	-1E+10	1	-1E+10	1
4902549	92	C	02/28/2023	12:08	-133.661	47.404	0	33.90	0	8.2790	0	32.3680	0	25.167	0	33.615	0	272.3	4	93.7	4	-1E+10	1	-1E+10	1	-1E+10	1	-1E+10	1	-1E+10	1	-1E+10	1
4902549	92	C	02/28/2023	12:08	-133.661	47.404	0	35.00	0	8.2790	0	32.3680	0	25.167	0	34.705	0	272.3	4	93.7	4	-1E+10	1	-1E+10	1	-1E+10	1	-1E+10	1	-1E+10	1	-1E+10	1
4902549	92	C	02/28/2023	12:08	-133.661	47.404	0	36.20	0	8.2800	0	32.3680	0	25.167	0	35.895	0	272.2	4	93.7	4	-1E+10	1	-1E+10	1	-1E+10	1	-1E+10	1	-1E+10	1	-1E+10	1
4902549	92	C	02/28/2023	12:08	-133.661	47.404	0	37.10	0	8.2800	0	32.3680	0	25.167	0	36.787	0	272.2	4	93.7	4	-1E+10	1	-1E+10	1	-1E+10	1	-1E+10	1	-1E+10	1	-1E+10	1
4902549	92	C	02/28/2023	12:08	-133.661	47.404	0	38.00	0	8.2800	0	32.3680	0	25.167	0	37.680	0	272.2	4	93.7	4	-1E+10	1	-1E+10	1	-1E+10	1	-1E+10	1	-1E+10	1	-1E+10	1
4902549	92	C	02/28/2023	12:08	-133.661	47.404	0	39.20	0	8.2800	0	32.3680	0	25.167	0	38.869	0	272.2	4	93.7	4	-1E+10	1	-1E+10	1	-1E+10	1	-1E+10	1	-1E+10	1	-1E+10	1
4902549	92	C	02/28/2023	12:08	-133.661	47.404	0	40.10	0	8.2800	0	32.3680	0	25.167	0	39.762	0	272.2	4	93.6	4	-1E+10	1	-1E+10	1	-1E+10	1	-1E+10	1	-1E+10	1	-1E+10	1
4902549	92	C	02/28/2023	12:08	-133.661	47.404	0	41.00	0	8.2800	0	32.3680	0	25.167	0	40.654	0	272.1	4	93.6	4	-1E+10	1	-1E+10	1	-1E+10	1	-1E+10	1	-1E+10	1	-1E+10	1
4902549	92	C	02/28/2023	12:08	-133.661	47.404	0	42.10	0	8.2790	0	32.3680	0	25.168	0	41.745	0	272.1	4	93.6	4	-1E+10	1	-1E+10	1	-1E+10	1	-1E+10	1	-1E+10	1	-1E+10	1
4902549	92	C	02/28/2023	12:08	-133.661	47.404	0	43.00	0	8.2790	0	32.3680	0	25.168	0	42.637	0	272.0	4	93.6	4	-1E+10	1	-1E+10	1	-1E+10	1	-1E+10	1	-1E+10	1	-1E+10	1
4902549	92	C	02/28/2023	12:08	-133.661	47.404	0	44.00	0	8.2800	0	32.3680	0	25.167	0	43.629	0	271.9	4	93.6	4	-1E+10	1	-1E+10	1	-1E+10	1	-1E+10	1	-1E+10	1	-1E+10	1
4902549	92	C	02/28/2023	12:08	-133.661	47.404	0	44.80	0	8.2800	0	32.3680	0	25.167	0	44.422	0	271.9	4	93.5	4	-1E+10	1	-1E+10	1	-1E+10	1	-1E+10	1	-1E+10	1	-1E+10	1
4902549	92	C	02/28/2023	12:08	-133.661	47.404	0	45.80	0	8.2780	0	32.3690	0	25.169	0	45.413	0	271.8	4	93.5	4	-1E+10	1	-1E+10	1	-1E+10	1	-1E+10	1	-1E+10	1	-1E+10	1
4902549	92	C	02/28/2023	12:08	-133.661	47.404	0	46.90	0	8.2770	0	32.3680	0	25.168	0	46.504	0	271.9	4	93.5	4	-1E+10	1	-1E+10	1	-1E+10	1	-1E+10	1	-1E+10	1	-1E+10	1
4902549	92	C	02/28/2023	12:08	-133.661	47.404	0	47.90	0	8.2770	0	32.3680	0	25.168	0	47.495	0	271.8	4	93.5	4	-1E+10	1	-1E+10	1	-1E+10	1	-1E+10	1	-1E+10	1	-1E+10	1
4902549	92	C	02/28/2023	12:08	-133.661	47.404	0	49.00	0	8.2770	0	32.3680	0	25.168	0	48.586	0	271.8	4	93.5	4	-1E+10	1	-1E+10	1	-1E+10	1	-1E+10	1	-1E+10	1	-1E+10	1
4902549	92	C	02/28/2023	12:08	-133.661	47.404	0	50.10	0	8.2770	0	32.3680	0	25.168	0	49.676	0	271.8	4	93.5	4	-1E+10	1	-1E+10	1	-1E+10	1	-1E+10	1	-1E+10	1	-1E+10	1
4902549	92	C	02/28/2023	12:08	-133.661	47.404	0	51.00	0	8.2770	0	32.3690	0	25.169	0	50.569	0	271.7	4	93.5	4	-1E+10	1	-1E+10	1	-1E+10	1	-1E+10	1	-1E+10	1	-1E+10	1
4902549	92	C	02/28/2023	12:08	-133.661	47.404	0	52.10	0	8.2770	0	32.3690	0	25.169	0	51.659	0	271.7	4	93.5	4	-1E+10	1	-1E+10	1	-1E+10	1	-1E+10	1	-1E+10	1	-1E+10	1
4902549	92	C	02/28/2023	12:08	-133.661	47.404	0	53.10	0	8.2780	0	32.3690	0	25.169	0	52.651	0	271.6	4	93.5	4	-1E+10	1	-1E+10	1	-1E+10	1	-1E+10	1	-1E+10	1	-1E+10	1
4902549	92	C	02/28/2023	12:08	-133.661	47.404	0	54.10	0	8.2780	0	32.3680	0	25.168	0	53.642	0	271.6	4	93.5	4	-1E+10	1	-1E+10	1	-1E+10	1	-1E+10	1	-1E+10	1	-1E+10	1
4902549	92	C	02/28/2023	12:08	-133.661	47.404	0	55.10	0	8.2780	0	32.3680	0	25.168	0	54.633	0	271.6	4	93.5	4	-1E+10	1	-1E+10	1	-1E+10	1	-1E+10	1	-1E+10	1	-1E+10	1
4902549	92	C	02/28/2023	12:08	-133.661	47.404	0	56.20	0	8.2780	0	32.3690	0	25.169	0	55.724	0	271.7	4	93.5	4	-1E+10	1	-1E+10	1	-1E+10	1	-1E+10	1	-1E+10	1	-1E+10	1
4902549	92	C	02/28/2023	12:08	-133.661	47.404	0	56.90	0	8.2780	0	32.3690	0	25.169	0	56.418	0	271.6	4	93.4	4	-1E+10	1	-1E+10	1	-1E+10	1	-1E+10	1	-1E+10	1	-1E+10	1
4902549	92	C	02/28/2023	12:08	-133.661	47.404	0	57.90	0	8.2780	0	32.3680	0	25.168	0	57.409	0	271.5	4	93.4	4	-1E+10	1	-1E+10	1	-1E+10	1	-1E+10	1	-1E+10	1	-1E+10	1
4902549	92	C	02/28/2023	12:08	-133.661	47.404	0	59.00	0	8.2840	0	32.3690	0	25.168	0	58.500	0	271.4	4	93.4	4	-1E+10	1	-1E+10	1	-1E+10	1	-1E+10	1	-1E+10	1	-1E+10	1
4902549	92	C	02/28/2023	12:08	-133.661	47.404	0	60.10	0	8.2840	0	32.3680	0	25.167	0	59.590	0	271.3	4	93.4	4	-1E+10	1	-1E+10	1	-1E+10	1	-1E+10	1	-1E+10	1	-1E+10	1
4902549	92	C	02/28/2023	12:08	-133.661	47.404	0	61.20	0	8.2850	0	32.3690	0	25.168	0	60.681	0	271.2	4	93.3	4	-1E+10	1	-1E+10	1	-1E+10	1	-1E+10	1	-1E+10	1	-1E+10	1
4902549	92	C	02/28/2023	12:08	-133.661	47.404	0	61.80	0	8.2850	0	32.3680	0	25.167	0	61.276	0	271.2	4	93.3	4	-1E+10	1	-1E+10	1	-1E+10	1	-1E+10	1	-1E+10	1	-1E+10	1
4902549	92	C	02/28/2023	12:08	-133.661	47.404	0	62.70	0	8.2850	0	32.3680	0	25.167	0	62.168	0	271.1	4	93.3	4	-1E+10	1	-1E+10	1	-1E+10	1	-1E+10	1	-1E+10	1	-1E+10	1
4902549	92	C	02/28/2023	12:08	-133.661	47.404	0	63.70	0	8.2850	0	32.3690	0	25.168	0	63.159	0	271.1	4	93.3	4	-1E+10	1	-1E+10	1	-1E+10	1	-1E+10	1	-1E+10	1	-1E+10	1
4902549	92	C	02/28/2023	12:08	-133.661	47.404	0	64.90	0	8.2850	0	32.3690	0	25.168	0	64.349	0	271.0	4	93.2	4	-1E+10	1	-1E+10	1	-1E+10	1	-1E+10	1	-1E+10	1	-1E+10	1
4902549	92	C	02/28/2023	12:08	-133.661	47.404	0	65.80	0	8.2850	0	32.3690	0	25.168	0	65.241	0	270.9	4	93.2	4	-1E+10	1	-1E+10	1	-1E+10	1	-1E+10	1	-1E+10	1	-1E+10	1
4902549	92	C	02/28/2023	12:08	-133.661	47.404	0	66.70	0	8.2860	0	32.3690	0	25.168	0	66.133	0	270.9	4	93.2	4	-1E+10	1	-1E+10	1	-1E+10	1	-1E+10	1	-1E+10	1	-1E+10	1
4902549	92	C	02/28/2023	12:08	-133.661	47.404	0	67.70	0	8.2860	0	32.3690	0	25.168	0	67.125	0	270.9	4	93.2	4	-1E+10	1	-1E+10	1	-1E+10	1	-1E+10	1	-1E+10	1	-1E+10	1
4902549	92	C	02/28/2023	12:08	-133.661	47.404	0	68.90	0	8.2860	0	32.3690	0	25.168	0	68.314	0	270.8	4	93.2	4	-1E+10	1	-1E+10	1	-1E+10	1	-1E+10	1	-1E+10	1	-1E+10	1
4902549	92	C	02/28/2023	12:08	-133.661	47.404	0	70.10	0	8.2860	0	32.3690	0	25.168	0	69.504	0	270.7	4	93.2	4	-1E+10	1	-1E+10	1	-1E+10	1	-1E+10	1	-1E+10	1	-1E+10	1
4902549	92	C	02/28/2023	12:08	-133.661	47.404	0	70.80	0	8.2860	0	32.3690	0	25.168	0	70.198	0	270.6	4	93.1	4	-1E+10	1	-1E+10	1	-1E+10	1	-1E+10	1	-1E+10	1	-1E+10	1
4902549	92	C	02/28/2023	12:08	-133.661	47.404	0	71.90	0	8.2880	0	32.3700	0	25.168	0	71.288	0	270.5	4	93.1	4	-1E+10	1	-1E+10	1	-1E+10	1	-1E+10	1	-1E+10	1	-1E+10	1
4902549	92	C	02/28/2023	12:08	-133.661	47.404	0	73.00	0	8.2870	0	32.3690	0	25.168	0	72.379	0	270.4	4	93.0	4	-1E+10	1	-1E+10	1	-1E+10	1	-1E+10	1	-1E+10	1	-1E+10	1
4902549	92	C	02/28/2023	12:08	-133.661	47.404	0	74.00	0	8.2870	0	32.3690	0	25.168	0	73.370	0	270.4	4	93.1	4	-1E+10	1	-1E+10	1	-1E+10	1	-1E+10	1	-1E+10	1	-1E+10	1
4902549	92	C	02/28/2023	12:08	-133.661	47.404	0	75.20	0	8.2870	0	32.3700	0	25.168	0	74.559	0	270.3	4	93.0	4	-1E+10	1	-1E+10	1	-1E+10	1	-1E+10	1	-1E+10	1	-1E+10	1
4902549	92	C	02/28/2023	12:08	-133.661	47.404	0	76.00	0	8.2870	0	32.3690	0	25.168	0	75.352	0	270.1	4	93.0	4	-1E+10	1	-1E+10	1	-1E+10	1	-1E+10	1	-1E+10	1	-1E+10	1
4902549	92	C	02/28/2023	12:08	-133.661	47.404	0	77.20	0	8.2890	0	32.3700	0	25.168	0	76.542	0	269.9	4	92.9	4	-1E+10	1	-1E+10	1	-1E+10	1	-1E+10	1	-1E+10	1	-1E+10	1
4902549	92	C	02/28/2023	12:08	-133.661	47.404	0	78.10	0	8.2860	0	32.3680	0	25.167	0	77.434	0	269.7	4	92.8	4	-1E+10	1	-1E+10	1	-1E+10	1	-1E+10	1	-1E+10	1	-1E+10	1
4902549	92	C	02/28/2023	12:08	-133.661	47.404	0	78.90	0	8.2870	0	32.3690	0	25.168	0	78.227	0	269.6	4	92.8	4	-1E+10	1	-1E+10	1	-1E+10	1	-1E+10	1	-1E+10	1	-1E+10	1
4902549	92	C	02/28/2023	12:08	-133.661	47.404	0	80.10	0	8.2870	0	32.3680	0	25.167	0	79.417	0	269.4	4	92.7	4	-1E+10	1	-1E+10	1	-1E+10	1	-1E+10	1	-1E+10	1	-1E+10	1
4902549	92	C	02/28/2023	12:08	-133.661	47.404	0	80.80	0	8.2880	0	32.3690	0	25.168	0	80.111	0	276.0	4	95.0	4	-1E+10	1	-1E+10	1	-1E+10	1	-1E+10	1	-1E+10	1	-1E+10	1
4902549	92	C	02/28/2023	12:08	-133.661	47.404	0	81.90	0	8.2890	0	32.3690	0	25.167	0	81.201	0	275.7	4	94.9	4	-1E+10	1	-1E+10	1	-1E+10	1	-1E+10	1	-1E+10	1	-1E+10	1
4902549	92	C	02/28/2023	12:08	-133.661	47.404	0	82.90	0	8.2900	0	32.3690	0	25.167	0	82.192	0	275.4	4	94.8	4	-1E+10	1	-1E+10	1	-1E+10	1	-1E+10	1	-1E+10	1	-1E+10	1
4902549	92	C	02/28/2023	12:08	-133.661	47.404	0	83.80	0	8.2900	0	32.3700	0	25.168	0	83.084	0	275.1	4	94.7	4	-1E+10	1	-1E+10	1	-1E+10	1	-1E+10	1	-1E+10	1	-1E+10	1
4902549	92	C	02/28/2023	12:08	-133.661	47.404	0	84.80	0	8.2870	0	32.3690	0	25.168	0	84.076	0	274.7	4	94.5	4	-1E+10	1	-1E+10	1	-1E+10	1	-1E+10	1	-1E+10	1	-1E+10	1
4902549	92	C	02/28/2023	12:08	-133.661	47.404	0	85.80	0	8.2860	0	32.3700	0	25.169	0	85.067	0	274.2	4	94.4	4	-1E+10	1	-1E+10	1	-1E+10	1	-1E+10	1	-1E+10	1	-1E+10	1
4902549	92	C	02/28/2023	12:08	-133.661	47.404	0	86.80	0	8.2860	0	32.3710	0	25.170	0	86.058	0	273.8	4	94.2	4	-1E+10	1	-1E+10	1	-1E+10	1	-1E+10	1	-1E+10	1	-1E+10	1
4902549	92	C	02/28/2023	12:08	-133.661	47.404	0	88.00	0	8.2850	0	32.3680	0	25.167	0	87.248	0	273.2	4	94.0	4	-1E+10	1	-1E+10	1	-1E+10	1	-1E+10	1	-1E+10	1	-1E+10	1
4902549	92	C	02/28/2023	12:08	-133.661	47.404	0	89.10	0	8.2850	0	32.3710	0	25.170	0	88.338	0	272.7	4	93.9	4	-1E+10	1	-1E+10	1	-1E+10	1	-1E+10	1	-1E+10	1	-1E+10	1
4902549	92	C	02/28/2023	12:08	-133.661	47.404	0	90.00	0	8.2850	0	32.3710	0	25.170	0	89.230	0	272.1	4	93.7	4	-1E+10	1	-1E+10	1	-1E+10	1	-1E+10	1	-1E+10	1	-1E+10	1
4902549	92	C	02/28/2023	12:08	-133.661	47.404	0	90.80	0	8.2850	0	32.3710	0	25.170	0	90.023	0	271.8	4	93.5	4	-1E+10	1	-1E+10	1	-1E+10	1	-1E+10	1	-1E+10	1	-1E+10	1
4902549	92	C	02/28/2023	12:08	-133.661	47.404	0	91.80	0	8.2860	0	32.3710	0	25.170	0	91.014	0	271.0	4	93.3	4	-1E+10	1	-1E+10	1	-1E+10	1	-1E+10	1	-1E+10	1	-1E+10	1
4902549	92	C	02/28/2023	12:08	-133.661	47.404	0	92.70	0	8.2860	0	32.3710	0	25.170	0	91.906	0	270.0	4	92.9	4	-1E+10	1	-1E+10	1	-1E+10	1	-1E+10	1	-1E+10	1	-1E+10	1
4902549	92	C	02/28/2023	12:08	-133.661	47.404	0	93.80	0	8.2860	0	32.3710	0	25.170	0	92.997	0	268.7	4	92.5	4	-1E+10	1	-1E+10	1	-1E+10	1	-1E+10	1	-1E+10	1	-1E+10	1
4902549	92	C	02/28/2023	12:08	-133.661	47.404	0	94.80	0	8.2870	0	32.3710	0	25.170	0	93.988	0	267.1	4	91.9	4	-1E+10	1	-1E+10	1	-1E+10	1	-1E+10	1	-1E+10	1	-1E+10	1
4902549	92	C	02/28/2023	12:08	-133.661	47.404	0	95.80	0	8.2870	0	32.3700	0	25.169	0	94.979	0	265.0	4	91.2	4	-1E+10	1	-1E+10	1	-1E+10	1	-1E+10	1	-1E+10	1	-1E+10	1
4902549	92	C	02/28/2023	12:08	-133.661	47.404	0	96.90	0	8.2870	0	32.3700	0	25.169	0	96.070	0	262.3	4	90.3	4	-1E+10	1	-1E+10	1	-1E+10	1	-1E+10	1	-1E+10	1	-1E+10	1
4902549	92	C	02/28/2023	12:08	-133.661	47.404	0	98.10	0	8.2760	0	32.3880	0	25.185	0	97.259	0	258.8	4	89.1	4	-1E+10	1	-1E+10	1	-1E+10	1	-1E+10	1	-1E+10	1	-1E+10	1
4902549	92	C	02/28/2023	12:08	-133.661	47.404	0	99.10	0	8.2540	0	32.4030	0	25.200	0	98.250	0	254.4	4	87.5	4	-1E+10	1	-1E+10	1	-1E+10	1	-1E+10	1	-1E+10	1	-1E+10	1
4902549	92	C	02/28/2023	12:08	-133.661	47.404	0	100.00	0	8.2000	0	32.4370	0	25.234	0	99.142	0	243.3	4	83.6	4	-1E+10	1	-1E+10	1	-1E+10	1	-1E+10	1	-1E+10	1	-1E+10	1
4902549	92	C	02/28/2023	12:08	-133.661	47.404	0	100.80	0	8.1530	0	32.4610	0	25.260	0	99.935	0	234.7	4	80.6	4	-1E+10	1	-1E+10	1	-1E+10	1	-1E+10	1	-1E+10	1	-1E+10	1
4902549	92	C	02/28/2023	12:08	-133.661	47.404	0	102.10	0	8.0180	0	32.5370	0	25.339	0	101.224	0	226.7	4	77.6	4	-1E+10	1	-1E+10	1	-1E+10	1	-1E+10	1	-1E+10	1	-1E+10	1
4902549	92	C	02/28/2023	12:08	-133.661	47.404	0	103.30	0	7.7620	0	32.6830	0	25.490	0	102.413	0	223.7	4	76.3	4	-1E+10	1	-1E+10	1	-1E+10	1	-1E+10	1	-1E+10	1	-1E+10	1
4902549	92	C	02/28/2023	12:08	-133.661	47.404	0	104.00	0	7.7380	0	32.6930	0	25.502	0	103.107	0	220.7	4	75.2	4	-1E+10	1	-1E+10	1	-1E+10	1	-1E+10	1	-1E+10	1	-1E+10	1
4902549	92	C	02/28/2023	12:08	-133.661	47.404	0	105.10	0	7.6470	0	32.7390	0	25.551	0	104.197	0	214.4	4	72.9	4	-1E+10	1	-1E+10	1	-1E+10	1	-1E+10	1	-1E+10	1	-1E+10	1
4902549	92	C	02/28/2023	12:08	-133.661	47.404	0	106.10	0	7.5110	0	32.8100	0	25.626	0	105.188	0	205.8	4	69.8	4	-1E+10	1	-1E+10	1	-1E+10	1	-1E+10	1	-1E+10	1	-1E+10	1
4902549	92	C	02/28/2023	12:08	-133.661	47.404	0	106.90	0	7.4190	0	32.8770	0	25.691	0	105.981	0	201.7	4	68.3	4	-1E+10	1	-1E+10	1	-1E+10	1	-1E+10	1	-1E+10	1	-1E+10	1
4902549	92	C	02/28/2023	12:08	-133.661	47.404	0	107.90	0	7.3700	0	32.9550	0	25.759	0	106.972	0	198.5	4	67.2	4	-1E+10	1	-1E+10	1	-1E+10	1	-1E+10	1	-1E+10	1	-1E+10	1
4902549	92	C	02/28/2023	12:08	-133.661	47.404	0	109.00	0	7.3630	0	33.0070	0	25.801	0	108.063	0	196.9	4	66.7	4	-1E+10	1	-1E+10	1	-1E+10	1	-1E+10	1	-1E+10	1	-1E+10	1
4902549	92	C	02/28/2023	12:08	-133.661	47.404	0	109.90	0	7.3620	0	33.0350	0	25.823	0	108.955	0	195.8	4	66.3	4	-1E+10	1	-1E+10	1	-1E+10	1	-1E+10	1	-1E+10	1	-1E+10	1
4902549	92	C	02/28/2023	12:08	-133.661	47.404	0	110.80	0	7.3560	0	33.0470	0	25.834	0	109.847	0	194.7	4	65.9	4	-1E+10	1	-1E+10	1	-1E+10	1	-1E+10	1	-1E+10	1	-1E+10	1
4902549	92	C	02/28/2023	12:08	-133.661	47.404	0	112.00	0	7.3510	0	33.0560	0	25.841	0	111.036	0	193.2	4	65.4	4	-1E+10	1	-1E+10	1	-1E+10	1	-1E+10	1	-1E+10	1	-1E+10	1
4902549	92	C	02/28/2023	12:08	-133.661	47.404	0	112.90	0	7.3510	0	33.0670	0	25.850	0	111.928	0	192.1	4	65.1	4	-1E+10	1	-1E+10	1	-1E+10	1	-1E+10	1	-1E+10	1	-1E+10	1
4902549	92	C	02/28/2023	12:08	-133.661	47.404	0	113.70	0	7.3530	0	33.0790	0	25.859	0	112.721	0	190.8	4	64.6	4	-1E+10	1	-1E+10	1	-1E+10	1	-1E+10	1	-1E+10	1	-1E+10	1
4902549	92	C	02/28/2023	12:08	-133.661	47.404	0	114.90	0	7.3450	0	33.1120	0	25.886	0	113.910	0	189.2	4	64.1	4	-1E+10	1	-1E+10	1	-1E+10	1	-1E+10	1	-1E+10	1	-1E+10	1
4902549	92	C	02/28/2023	12:08	-133.661	47.404	0	115.90	0	7.3350	0	33.1380	0	25.908	0	114.901	0	187.7	4	63.6	4	-1E+10	1	-1E+10	1	-1E+10	1	-1E+10	1	-1E+10	1	-1E+10	1
4902549	92	C	02/28/2023	12:08	-133.661	47.404	0	117.00	0	7.3520	0	33.1650	0	25.927	0	115.992	0	186.3	4	63.1	4	-1E+10	1	-1E+10	1	-1E+10	1	-1E+10	1	-1E+10	1	-1E+10	1
4902549	92	C	02/28/2023	12:08	-133.661	47.404	0	118.00	0	7.3550	0	33.1760	0	25.935	0	116.983	0	185.0	4	62.7	4	-1E+10	1	-1E+10	1	-1E+10	1	-1E+10	1	-1E+10	1	-1E+10	1
4902549	92	C	02/28/2023	12:08	-133.661	47.404	0	118.90	0	7.3550	0	33.1900	0	25.946	0	117.875	0	183.7	4	62.3	4	-1E+10	1	-1E+10	1	-1E+10	1	-1E+10	1	-1E+10	1	-1E+10	1
4902549	92	C	02/28/2023	12:08	-133.661	47.404	0	120.00	0	7.3490	0	33.2240	0	25.974	0	118.965	0	182.7	4	61.9	4	-1E+10	1	-1E+10	1	-1E+10	1	-1E+10	1	-1E+10	1	-1E+10	1
4902549	92	C	02/28/2023	12:08	-133.661	47.404	0	121.00	0	7.3450	0	33.2450	0	25.991	0	119.956	0	181.9	4	61.7	4	-1E+10	1	-1E+10	1	-1E+10	1	-1E+10	1	-1E+10	1	-1E+10	1
4902549	92	C	02/28/2023	12:08	-133.661	47.404	0	122.10	0	7.3440	0	33.2510	0	25.996	0	121.046	0	180.9	4	61.3	4	-1E+10	1	-1E+10	1	-1E+10	1	-1E+10	1	-1E+10	1	-1E+10	1
4902549	92	C	02/28/2023	12:08	-133.661	47.404	0	123.00	0	7.3420	0	33.2630	0	26.006	0	121.938	0	180.1	4	61.1	4	-1E+10	1	-1E+10	1	-1E+10	1	-1E+10	1	-1E+10	1	-1E+10	1
4902549	92	C	02/28/2023	12:08	-133.661	47.404	0	123.90	0	7.3400	0	33.2710	0	26.012	0	122.830	0	179.2	4	60.8	4	-1E+10	1	-1E+10	1	-1E+10	1	-1E+10	1	-1E+10	1	-1E+10	1
4902549	92	C	02/28/2023	12:08	-133.661	47.404	0	125.10	0	7.3360	0	33.2860	0	26.024	0	124.019	0	178.1	4	60.4	4	-1E+10	1	-1E+10	1	-1E+10	1	-1E+10	1	-1E+10	1	-1E+10	1
4902549	92	C	02/28/2023	12:08	-133.661	47.404	0	126.00	0	7.3350	0	33.2920	0	26.029	0	124.911	0	177.1	4	60.1	4	-1E+10	1	-1E+10	1	-1E+10	1	-1E+10	1	-1E+10	1	-1E+10	1
4902549	92	C	02/28/2023	12:08	-133.661	47.404	0	126.90	0	7.3340	0	33.2980	0	26.034	0	125.803	0	176.1	4	59.7	4	-1E+10	1	-1E+10	1	-1E+10	1	-1E+10	1	-1E+10	1	-1E+10	1
4902549	92	C	02/28/2023	12:08	-133.661	47.404	0	128.10	0	7.3340	0	33.3060	0	26.041	0	126.993	0	174.5	4	59.2	4	-1E+10	1	-1E+10	1	-1E+10	1	-1E+10	1	-1E+10	1	-1E+10	1
4902549	92	C	02/28/2023	12:08	-133.661	47.404	0	129.10	0	7.3330	0	33.3190	0	26.051	0	127.984	0	173.3	4	58.8	4	-1E+10	1	-1E+10	1	-1E+10	1	-1E+10	1	-1E+10	1	-1E+10	1
4902549	92	C	02/28/2023	12:08	-133.661	47.404	0	130.00	0	7.3310	0	33.3410	0	26.069	0	128.876	0	172.2	4	58.4	4	-1E+10	1	-1E+10	1	-1E+10	1	-1E+10	1	-1E+10	1	-1E+10	1
4902549	92	C	02/28/2023	12:08	-133.661	47.404	0	131.10	0	7.3310	0	33.3540	0	26.079	0	129.966	0	171.1	4	58.0	4	-1E+10	1	-1E+10	1	-1E+10	1	-1E+10	1	-1E+10	1	-1E+10	1
4902549	92	C	02/28/2023	12:08	-133.661	47.404	0	131.90	0	7.3290	0	33.3640	0	26.087	0	130.759	0	170.4	4	57.8	4	-1E+10	1	-1E+10	1	-1E+10	1	-1E+10	1	-1E+10	1	-1E+10	1
4902549	92	C	02/28/2023	12:08	-133.661	47.404	0	132.90	0	7.3270	0	33.3880	0	26.106	0	131.750	0	169.4	4	57.5	4	-1E+10	1	-1E+10	1	-1E+10	1	-1E+10	1	-1E+10	1	-1E+10	1
4902549	92	C	02/28/2023	12:08	-133.661	47.404	0	134.10	0	7.3280	0	33.4080	0	26.122	0	132.939	0	168.4	4	57.1	4	-1E+10	1	-1E+10	1	-1E+10	1	-1E+10	1	-1E+10	1	-1E+10	1
4902549	92	C	02/28/2023	12:08	-133.661	47.404	0	134.90	0	7.3260	0	33.4130	0	26.126	0	133.732	0	167.7	4	56.9	4	-1E+10	1	-1E+10	1	-1E+10	1	-1E+10	1	-1E+10	1	-1E+10	1
4902549	92	C	02/28/2023	12:08	-133.661	47.404	0	136.00	0	7.3220	0	33.4410	0	26.149	0	134.822	0	166.8	4	56.6	4	-1E+10	1	-1E+10	1	-1E+10	1	-1E+10	1	-1E+10	1	-1E+10	1
4902549	92	C	02/28/2023	12:08	-133.661	47.404	0	137.20	0	7.3190	0	33.4570	0	26.162	0	136.011	0	165.9	4	56.3	4	-1E+10	1	-1E+10	1	-1E+10	1	-1E+10	1	-1E+10	1	-1E+10	1
4902549	92	C	02/28/2023	12:08	-133.661	47.404	0	138.00	0	7.3180	0	33.4620	0	26.166	0	136.804	0	165.3	4	56.1	4	-1E+10	1	-1E+10	1	-1E+10	1	-1E+10	1	-1E+10	1	-1E+10	1
4902549	92	C	02/28/2023	12:08	-133.661	47.404	0	138.80	0	7.3150	0	33.4800	0	26.180	0	137.597	0	164.7	4	55.9	4	-1E+10	1	-1E+10	1	-1E+10	1	-1E+10	1	-1E+10	1	-1E+10	1
4902549	92	C	02/28/2023	12:08	-133.661	47.404	0	140.00	0	7.3140	0	33.4820	0	26.182	0	138.786	0	163.9	4	55.6	4	-1E+10	1	-1E+10	1	-1E+10	1	-1E+10	1	-1E+10	1	-1E+10	1
4902549	92	C	02/28/2023	12:08	-133.661	47.404	0	141.20	0	7.3110	0	33.4900	0	26.189	0	139.975	0	163.0	4	55.3	4	-1E+10	1	-1E+10	1	-1E+10	1	-1E+10	1	-1E+10	1	-1E+10	1
4902549	92	C	02/28/2023	12:08	-133.661	47.404	0	142.00	0	7.3050	0	33.4980	0	26.196	0	140.768	0	162.3	4	55.1	4	-1E+10	1	-1E+10	1	-1E+10	1	-1E+10	1	-1E+10	1	-1E+10	1
4902549	92	C	02/28/2023	12:08	-133.661	47.404	0	142.80	0	7.3050	0	33.5090	0	26.204	0	141.560	0	161.8	4	54.9	4	-1E+10	1	-1E+10	1	-1E+10	1	-1E+10	1	-1E+10	1	-1E+10	1
4902549	92	C	02/28/2023	12:08	-133.661	47.404	0	143.60	0	7.3010	0	33.5180	0	26.212	0	142.353	0	161.2	4	54.7	4	-1E+10	1	-1E+10	1	-1E+10	1	-1E+10	1	-1E+10	1	-1E+10	1
4902549	92	C	02/28/2023	12:08	-133.661	47.404	0	144.90	0	7.2960	0	33.5300	0	26.222	0	143.642	0	160.3	4	54.4	4	-1E+10	1	-1E+10	1	-1E+10	1	-1E+10	1	-1E+10	1	-1E+10	1
4902549	92	C	02/28/2023	12:08	-133.661	47.404	0	146.10	0	7.2910	0	33.5440	0	26.234	0	144.831	0	159.5	4	54.1	4	-1E+10	1	-1E+10	1	-1E+10	1	-1E+10	1	-1E+10	1	-1E+10	1
4902549	92	C	02/28/2023	12:08	-133.661	47.404	0	147.00	0	7.2860	0	33.5560	0	26.244	0	145.723	0	159.1	4	54.0	4	-1E+10	1	-1E+10	1	-1E+10	1	-1E+10	1	-1E+10	1	-1E+10	1
4902549	92	C	02/28/2023	12:08	-133.661	47.404	0	147.80	0	7.2700	0	33.5930	0	26.275	0	146.515	0	158.8	4	53.9	4	-1E+10	1	-1E+10	1	-1E+10	1	-1E+10	1	-1E+10	1	-1E+10	1
4902549	92	C	02/28/2023	12:08	-133.661	47.404	0	148.70	0	7.2680	0	33.5970	0	26.279	0	147.407	0	158.5	4	53.8	4	-1E+10	1	-1E+10	1	-1E+10	1	-1E+10	1	-1E+10	1	-1E+10	1
4902549	92	C	02/28/2023	12:08	-133.661	47.404	0	149.90	0	7.2650	0	33.5990	0	26.281	0	148.596	0	158.0	4	53.6	4	-1E+10	1	-1E+10	1	-1E+10	1	-1E+10	1	-1E+10	1	-1E+10	1
4902549	92	C	02/28/2023	12:08	-133.661	47.404	0	151.10	0	7.2640	0	33.6030	0	26.284	0	149.785	0	157.5	4	53.5	4	-1E+10	1	-1E+10	1	-1E+10	1	-1E+10	1	-1E+10	1	-1E+10	1
4902549	92	C	02/28/2023	12:08	-133.661	47.404	0	152.00	0	7.2590	0	33.6100	0	26.290	0	150.677	0	157.2	4	53.4	4	-1E+10	1	-1E+10	1	-1E+10	1	-1E+10	1	-1E+10	1	-1E+10	1
4902549	92	C	02/28/2023	12:08	-133.661	47.404	0	152.80	0	7.2550	0	33.6170	0	26.297	0	151.470	0	156.9	4	53.2	4	-1E+10	1	-1E+10	1	-1E+10	1	-1E+10	1	-1E+10	1	-1E+10	1
4902549	92	C	02/28/2023	12:08	-133.661	47.404	0	154.00	0	7.2490	0	33.6220	0	26.301	0	152.659	0	156.4	4	53.1	4	-1E+10	1	-1E+10	1	-1E+10	1	-1E+10	1	-1E+10	1	-1E+10	1
4902549	92	C	02/28/2023	12:08	-133.661	47.404	0	155.20	0	7.2410	0	33.6300	0	26.309	0	153.848	0	155.8	4	52.9	4	-1E+10	1	-1E+10	1	-1E+10	1	-1E+10	1	-1E+10	1	-1E+10	1
4902549	92	C	02/28/2023	12:08	-133.661	47.404	0	156.10	0	7.2340	0	33.6410	0	26.318	0	154.740	0	155.4	4	52.7	4	-1E+10	1	-1E+10	1	-1E+10	1	-1E+10	1	-1E+10	1	-1E+10	1
4902549	92	C	02/28/2023	12:08	-133.661	47.404	0	156.90	0	7.2080	0	33.6710	0	26.346	0	155.533	0	155.2	4	52.6	4	-1E+10	1	-1E+10	1	-1E+10	1	-1E+10	1	-1E+10	1	-1E+10	1
4902549	92	C	02/28/2023	12:08	-133.661	47.404	0	157.70	0	7.1990	0	33.6780	0	26.352	0	156.325	0	155.1	4	52.6	4	-1E+10	1	-1E+10	1	-1E+10	1	-1E+10	1	-1E+10	1	-1E+10	1
4902549	92	C	02/28/2023	12:08	-133.661	47.404	0	159.00	0	7.1960	0	33.6790	0	26.354	0	157.614	0	155.0	4	52.5	4	-1E+10	1	-1E+10	1	-1E+10	1	-1E+10	1	-1E+10	1	-1E+10	1
4902549	92	C	02/28/2023	12:08	-133.661	47.404	0	160.30	0	7.1790	0	33.6840	0	26.360	0	158.902	0	154.6	4	52.4	4	-1E+10	1	-1E+10	1	-1E+10	1	-1E+10	1	-1E+10	1	-1E+10	1
4902549	92	C	02/28/2023	12:08	-133.661	47.404	0	161.10	0	7.1560	0	33.6950	0	26.372	0	159.695	0	154.1	4	52.2	4	-1E+10	1	-1E+10	1	-1E+10	1	-1E+10	1	-1E+10	1	-1E+10	1
4902549	92	C	02/28/2023	12:08	-133.661	47.404	0	162.00	0	7.1420	0	33.7000	0	26.378	0	160.586	0	153.7	4	52.0	4	-1E+10	1	-1E+10	1	-1E+10	1	-1E+10	1	-1E+10	1	-1E+10	1
4902549	92	C	02/28/2023	12:08	-133.661	47.404	0	162.80	0	7.1320	0	33.7070	0	26.384	0	161.379	0	153.2	4	51.9	4	-1E+10	1	-1E+10	1	-1E+10	1	-1E+10	1	-1E+10	1	-1E+10	1
4902549	92	C	02/28/2023	12:08	-133.661	47.404	0	163.70	0	7.1240	0	33.7130	0	26.390	0	162.271	0	152.6	4	51.7	4	-1E+10	1	-1E+10	1	-1E+10	1	-1E+10	1	-1E+10	1	-1E+10	1
4902549	92	C	02/28/2023	12:08	-133.661	47.404	0	164.90	0	7.1180	0	33.7190	0	26.396	0	163.460	0	151.8	4	51.4	4	-1E+10	1	-1E+10	1	-1E+10	1	-1E+10	1	-1E+10	1	-1E+10	1
4902549	92	C	02/28/2023	12:08	-133.661	47.404	0	166.20	0	7.1150	0	33.7230	0	26.399	0	164.748	0	151.0	4	51.1	4	-1E+10	1	-1E+10	1	-1E+10	1	-1E+10	1	-1E+10	1	-1E+10	1
4902549	92	C	02/28/2023	12:08	-133.661	47.404	0	167.00	0	7.1050	0	33.7290	0	26.406	0	165.541	0	150.4	4	50.9	4	-1E+10	1	-1E+10	1	-1E+10	1	-1E+10	1	-1E+10	1	-1E+10	1
4902549	92	C	02/28/2023	12:08	-133.661	47.404	0	167.80	0	7.1010	0	33.7310	0	26.408	0	166.333	0	149.8	4	50.7	4	-1E+10	1	-1E+10	1	-1E+10	1	-1E+10	1	-1E+10	1	-1E+10	1
4902549	92	C	02/28/2023	12:08	-133.661	47.404	0	168.70	0	7.0950	0	33.7350	0	26.412	0	167.225	0	149.2	4	50.5	4	-1E+10	1	-1E+10	1	-1E+10	1	-1E+10	1	-1E+10	1	-1E+10	1
4902549	92	C	02/28/2023	12:08	-133.661	47.404	0	169.90	0	7.0920	0	33.7360	0	26.413	0	168.414	0	148.1	4	50.1	4	-1E+10	1	-1E+10	1	-1E+10	1	-1E+10	1	-1E+10	1	-1E+10	1
4902549	92	C	02/28/2023	12:08	-133.661	47.404	0	171.30	0	7.0790	0	33.7470	0	26.423	0	169.801	0	147.1	4	49.7	4	-1E+10	1	-1E+10	1	-1E+10	1	-1E+10	1	-1E+10	1	-1E+10	1
4902549	92	C	02/28/2023	12:08	-133.661	47.404	0	172.20	0	7.0680	0	33.7510	0	26.428	0	170.693	0	146.4	4	49.5	4	-1E+10	1	-1E+10	1	-1E+10	1	-1E+10	1	-1E+10	1	-1E+10	1
4902549	92	C	02/28/2023	12:08	-133.661	47.404	0	173.20	0	7.0440	0	33.7580	0	26.437	0	171.684	0	145.6	4	49.2	4	-1E+10	1	-1E+10	1	-1E+10	1	-1E+10	1	-1E+10	1	-1E+10	1
4902549	92	C	02/28/2023	12:08	-133.661	47.404	0	174.10	0	7.0210	0	33.7640	0	26.445	0	172.576	0	144.8	4	48.9	4	-1E+10	1	-1E+10	1	-1E+10	1	-1E+10	1	-1E+10	1	-1E+10	1
4902549	92	C	02/28/2023	12:08	-133.661	47.404	0	175.00	0	7.0100	0	33.7690	0	26.450	0	173.467	0	144.0	4	48.7	4	-1E+10	1	-1E+10	1	-1E+10	1	-1E+10	1	-1E+10	1	-1E+10	1
4902549	92	C	02/28/2023	12:08	-133.661	47.404	0	176.00	0	7.0040	0	33.7700	0	26.452	0	174.458	0	143.1	4	48.3	4	-1E+10	1	-1E+10	1	-1E+10	1	-1E+10	1	-1E+10	1	-1E+10	1
4902549	92	C	02/28/2023	12:08	-133.661	47.404	0	176.90	0	6.9910	0	33.7750	0	26.457	0	175.350	0	142.4	4	48.1	4	-1E+10	1	-1E+10	1	-1E+10	1	-1E+10	1	-1E+10	1	-1E+10	1
4902549	92	C	02/28/2023	12:08	-133.661	47.404	0	177.90	0	6.9810	0	33.7780	0	26.461	0	176.341	0	141.5	4	47.8	4	-1E+10	1	-1E+10	1	-1E+10	1	-1E+10	1	-1E+10	1	-1E+10	1
4902549	92	C	02/28/2023	12:08	-133.661	47.404	0	178.80	0	6.9600	0	33.7830	0	26.468	0	177.233	0	140.8	4	47.5	4	-1E+10	1	-1E+10	1	-1E+10	1	-1E+10	1	-1E+10	1	-1E+10	1
4902549	92	C	02/28/2023	12:08	-133.661	47.404	0	179.80	0	6.9400	0	33.7870	0	26.474	0	178.223	0	140.2	4	47.3	4	-1E+10	1	-1E+10	1	-1E+10	1	-1E+10	1	-1E+10	1	-1E+10	1
4902549	92	C	02/28/2023	12:08	-133.661	47.404	0	180.70	0	6.9130	0	33.7900	0	26.480	0	179.115	0	139.7	4	47.1	4	-1E+10	1	-1E+10	1	-1E+10	1	-1E+10	1	-1E+10	1	-1E+10	1
4902549	92	C	02/28/2023	12:08	-133.661	47.404	0	181.70	0	6.8970	0	33.7930	0	26.484	0	180.106	0	139.2	4	46.9	4	-1E+10	1	-1E+10	1	-1E+10	1	-1E+10	1	-1E+10	1	-1E+10	1
4902549	92	C	02/28/2023	12:08	-133.661	47.404	0	182.70	0	6.8820	0	33.7970	0	26.490	0	181.097	0	138.7	4	46.7	4	-1E+10	1	-1E+10	1	-1E+10	1	-1E+10	1	-1E+10	1	-1E+10	1
4902549	92	C	02/28/2023	12:08	-133.661	47.404	0	183.70	0	6.8730	0	33.7990	0	26.492	0	182.087	0	138.3	4	46.6	4	-1E+10	1	-1E+10	1	-1E+10	1	-1E+10	1	-1E+10	1	-1E+10	1
4902549	92	C	02/28/2023	12:08	-133.661	47.404	0	184.70	0	6.8640	0	33.8000	0	26.494	0	183.078	0	137.8	4	46.4	4	-1E+10	1	-1E+10	1	-1E+10	1	-1E+10	1	-1E+10	1	-1E+10	1
4902549	92	C	02/28/2023	12:08	-133.661	47.404	0	185.70	0	6.8580	0	33.8000	0	26.495	0	184.069	0	137.4	4	46.2	4	-1E+10	1	-1E+10	1	-1E+10	1	-1E+10	1	-1E+10	1	-1E+10	1
4902549	92	C	02/28/2023	12:08	-133.661	47.404	0	186.70	0	6.8540	0	33.8000	0	26.496	0	185.060	0	136.8	4	46.0	4	-1E+10	1	-1E+10	1	-1E+10	1	-1E+10	1	-1E+10	1	-1E+10	1
4902549	92	C	02/28/2023	12:08	-133.661	47.404	0	187.80	0	6.8050	0	33.8070	0	26.508	0	186.150	0	136.4	4	45.9	4	-1E+10	1	-1E+10	1	-1E+10	1	-1E+10	1	-1E+10	1	-1E+10	1
4902549	92	C	02/28/2023	12:08	-133.661	47.404	0	188.80	0	6.7930	0	33.8090	0	26.511	0	187.140	0	136.0	4	45.7	4	-1E+10	1	-1E+10	1	-1E+10	1	-1E+10	1	-1E+10	1	-1E+10	1
4902549	92	C	02/28/2023	12:08	-133.661	47.404	0	189.90	0	6.7850	0	33.8090	0	26.512	0	188.230	0	135.6	4	45.6	4	-1E+10	1	-1E+10	1	-1E+10	1	-1E+10	1	-1E+10	1	-1E+10	1
4902549	92	C	02/28/2023	12:08	-133.661	47.404	0	190.90	0	6.7790	0	33.8110	0	26.515	0	189.221	0	135.1	4	45.4	4	-1E+10	1	-1E+10	1	-1E+10	1	-1E+10	1	-1E+10	1	-1E+10	1
4902549	92	C	02/28/2023	12:08	-133.661	47.404	0	192.00	0	6.7580	0	33.8130	0	26.519	0	190.311	0	134.7	4	45.3	4	-1E+10	1	-1E+10	1	-1E+10	1	-1E+10	1	-1E+10	1	-1E+10	1
4902549	92	C	02/28/2023	12:08	-133.661	47.404	0	193.00	0	6.7450	0	33.8150	0	26.522	0	191.301	0	134.4	4	45.1	4	-1E+10	1	-1E+10	1	-1E+10	1	-1E+10	1	-1E+10	1	-1E+10	1
4902549	92	C	02/28/2023	12:08	-133.661	47.404	0	194.10	0	6.7180	0	33.8170	0	26.527	0	192.391	0	134.2	4	45.0	4	-1E+10	1	-1E+10	1	-1E+10	1	-1E+10	1	-1E+10	1	-1E+10	1
4902549	92	C	02/28/2023	12:08	-133.661	47.404	0	195.20	0	6.7050	0	33.8180	0	26.530	0	193.481	0	133.9	4	44.9	4	-1E+10	1	-1E+10	1	-1E+10	1	-1E+10	1	-1E+10	1	-1E+10	1
4902549	92	C	02/28/2023	12:08	-133.661	47.404	0	196.30	0	6.6990	0	33.8180	0	26.531	0	194.571	0	133.6	4	44.8	4	-1E+10	1	-1E+10	1	-1E+10	1	-1E+10	1	-1E+10	1	-1E+10	1
4902549	92	C	02/28/2023	12:08	-133.661	47.404	0	197.40	0	6.6930	0	33.8190	0	26.532	0	195.661	0	133.2	4	44.7	4	-1E+10	1	-1E+10	1	-1E+10	1	-1E+10	1	-1E+10	1	-1E+10	1
4902549	92	C	02/28/2023	12:08	-133.661	47.404	0	198.50	0	6.6920	0	33.8180	0	26.532	0	196.750	0	132.7	4	44.5	4	-1E+10	1	-1E+10	1	-1E+10	1	-1E+10	1	-1E+10	1	-1E+10	1
4902549	92	C	02/28/2023	12:08	-133.661	47.404	0	199.60	0	6.6860	0	33.8180	0	26.533	0	197.840	0	132.3	4	44.4	4	-1E+10	1	-1E+10	1	-1E+10	1	-1E+10	1	-1E+10	1	-1E+10	1
4902549	92	C	02/28/2023	12:08	-133.661	47.404	0	200.70	0	6.6650	0	33.8220	0	26.539	0	198.930	0	131.9	4	44.2	4	-1E+10	1	-1E+10	1	-1E+10	1	-1E+10	1	-1E+10	1	-1E+10	1
4902549	92	C	02/28/2023	12:08	-133.661	47.404	0	201.90	0	6.6490	0	33.8230	0	26.541	0	200.119	0	131.5	4	44.1	4	-1E+10	1	-1E+10	1	-1E+10	1	-1E+10	1	-1E+10	1	-1E+10	1
4902549	92	C	02/28/2023	12:08	-133.661	47.404	0	203.00	0	6.6440	0	33.8230	0	26.542	0	201.209	0	131.2	4	44.0	4	-1E+10	1	-1E+10	1	-1E+10	1	-1E+10	1	-1E+10	1	-1E+10	1
4902549	92	C	02/28/2023	12:08	-133.661	47.404	0	204.10	0	6.6330	0	33.8230	0	26.544	0	202.298	0	130.7	4	43.8	4	-1E+10	1	-1E+10	1	-1E+10	1	-1E+10	1	-1E+10	1	-1E+10	1
4902549	92	C	02/28/2023	12:08	-133.661	47.404	0	205.30	0	6.6230	0	33.8230	0	26.545	0	203.487	0	130.3	4	43.6	4	-1E+10	1	-1E+10	1	-1E+10	1	-1E+10	1	-1E+10	1	-1E+10	1
4902549	92	C	02/28/2023	12:08	-133.661	47.404	0	206.40	0	6.6060	0	33.8250	0	26.549	0	204.577	0	129.8	4	43.5	4	-1E+10	1	-1E+10	1	-1E+10	1	-1E+10	1	-1E+10	1	-1E+10	1
4902549	92	C	02/28/2023	12:08	-133.661	47.404	0	207.50	0	6.5880	0	33.8240	0	26.550	0	205.667	0	129.3	4	43.3	4	-1E+10	1	-1E+10	1	-1E+10	1	-1E+10	1	-1E+10	1	-1E+10	1
4902549	92	C	02/28/2023	12:08	-133.661	47.404	0	208.70	0	6.5810	0	33.8270	0	26.554	0	206.855	0	128.9	4	43.1	4	-1E+10	1	-1E+10	1	-1E+10	1	-1E+10	1	-1E+10	1	-1E+10	1
4902549	92	C	02/28/2023	12:08	-133.661	47.404	0	209.80	0	6.5720	0	33.8270	0	26.555	0	207.945	0	128.3	4	42.9	4	-1E+10	1	-1E+10	1	-1E+10	1	-1E+10	1	-1E+10	1	-1E+10	1
4902549	92	C	02/28/2023	12:08	-133.661	47.404	0	210.90	0	6.5640	0	33.8280	0	26.557	0	209.035	0	127.9	4	42.8	4	-1E+10	1	-1E+10	1	-1E+10	1	-1E+10	1	-1E+10	1	-1E+10	1
4902549	92	C	02/28/2023	12:08	-133.661	47.404	0	212.10	0	6.5530	0	33.8310	0	26.561	0	210.224	0	127.4	4	42.6	4	-1E+10	1	-1E+10	1	-1E+10	1	-1E+10	1	-1E+10	1	-1E+10	1
4902549	92	C	02/28/2023	12:08	-133.661	47.404	0	213.20	0	6.5320	0	33.8320	0	26.564	0	211.313	0	127.1	4	42.5	4	-1E+10	1	-1E+10	1	-1E+10	1	-1E+10	1	-1E+10	1	-1E+10	1
4902549	92	C	02/28/2023	12:08	-133.661	47.404	0	214.40	0	6.5170	0	33.8330	0	26.567	0	212.502	0	126.9	4	42.4	4	-1E+10	1	-1E+10	1	-1E+10	1	-1E+10	1	-1E+10	1	-1E+10	1
4902549	92	C	02/28/2023	12:08	-133.661	47.404	0	215.60	0	6.4860	0	33.8360	0	26.573	0	213.691	0	126.6	4	42.3	4	-1E+10	1	-1E+10	1	-1E+10	1	-1E+10	1	-1E+10	1	-1E+10	1
4902549	92	C	02/28/2023	12:08	-133.661	47.404	0	216.70	0	6.4690	0	33.8330	0	26.573	0	214.781	0	126.1	4	42.1	4	-1E+10	1	-1E+10	1	-1E+10	1	-1E+10	1	-1E+10	1	-1E+10	1
4902549	92	C	02/28/2023	12:08	-133.661	47.404	0	217.90	0	6.4700	0	33.8320	0	26.572	0	215.969	0	125.5	4	41.9	4	-1E+10	1	-1E+10	1	-1E+10	1	-1E+10	1	-1E+10	1	-1E+10	1
4902549	92	C	02/28/2023	12:08	-133.661	47.404	0	219.00	0	6.4710	0	33.8320	0	26.572	0	217.059	0	124.9	4	41.7	4	-1E+10	1	-1E+10	1	-1E+10	1	-1E+10	1	-1E+10	1	-1E+10	1
4902549	92	C	02/28/2023	12:08	-133.661	47.404	0	220.20	0	6.4700	0	33.8320	0	26.572	0	218.248	0	124.1	4	41.4	4	-1E+10	1	-1E+10	1	-1E+10	1	-1E+10	1	-1E+10	1	-1E+10	1
4902549	92	C	02/28/2023	12:08	-133.661	47.404	0	221.40	0	6.4520	0	33.8350	0	26.577	0	219.436	0	123.3	4	41.1	4	-1E+10	1	-1E+10	1	-1E+10	1	-1E+10	1	-1E+10	1	-1E+10	1
4902549	92	C	02/28/2023	12:08	-133.661	47.404	0	222.50	0	6.4400	0	33.8350	0	26.579	0	220.526	0	122.5	4	40.9	4	-1E+10	1	-1E+10	1	-1E+10	1	-1E+10	1	-1E+10	1	-1E+10	1
4902549	92	C	02/28/2023	12:08	-133.661	47.404	0	223.70	0	6.4270	0	33.8400	0	26.584	0	221.715	0	121.8	4	40.6	4	-1E+10	1	-1E+10	1	-1E+10	1	-1E+10	1	-1E+10	1	-1E+10	1
4902549	92	C	02/28/2023	12:08	-133.661	47.404	0	224.90	0	6.4040	0	33.8380	0	26.586	0	222.904	0	121.2	4	40.4	4	-1E+10	1	-1E+10	1	-1E+10	1	-1E+10	1	-1E+10	1	-1E+10	1
4902549	92	C	02/28/2023	12:08	-133.661	47.404	0	226.00	0	6.3950	0	33.8400	0	26.588	0	223.993	0	120.6	4	40.2	4	-1E+10	1	-1E+10	1	-1E+10	1	-1E+10	1	-1E+10	1	-1E+10	1
4902549	92	C	02/28/2023	12:08	-133.661	47.404	0	227.20	0	6.3960	0	33.8420	0	26.590	0	225.182	0	120.2	4	40.1	4	-1E+10	1	-1E+10	1	-1E+10	1	-1E+10	1	-1E+10	1	-1E+10	1
4902549	92	C	02/28/2023	12:08	-133.661	47.404	0	228.40	0	6.3960	0	33.8420	0	26.590	0	226.371	0	119.6	4	39.9	4	-1E+10	1	-1E+10	1	-1E+10	1	-1E+10	1	-1E+10	1	-1E+10	1
4902549	92	C	02/28/2023	12:08	-133.661	47.404	0	229.50	0	6.3820	0	33.8460	0	26.595	0	227.460	0	119.1	4	39.7	4	-1E+10	1	-1E+10	1	-1E+10	1	-1E+10	1	-1E+10	1	-1E+10	1
4902549	92	C	02/28/2023	12:08	-133.661	47.404	0	230.70	0	6.3670	0	33.8460	0	26.597	0	228.649	0	118.7	4	39.5	4	-1E+10	1	-1E+10	1	-1E+10	1	-1E+10	1	-1E+10	1	-1E+10	1
4902549	92	C	02/28/2023	12:08	-133.661	47.404	0	231.80	0	6.3620	0	33.8460	0	26.597	0	229.738	0	118.3	4	39.4	4	-1E+10	1	-1E+10	1	-1E+10	1	-1E+10	1	-1E+10	1	-1E+10	1
4902549	92	C	02/28/2023	12:08	-133.661	47.404	0	233.00	0	6.3550	0	33.8460	0	26.598	0	230.927	0	117.8	4	39.2	4	-1E+10	1	-1E+10	1	-1E+10	1	-1E+10	1	-1E+10	1	-1E+10	1
4902549	92	C	02/28/2023	12:08	-133.661	47.404	0	234.20	0	6.3530	0	33.8460	0	26.599	0	232.116	0	117.2	4	39.0	4	-1E+10	1	-1E+10	1	-1E+10	1	-1E+10	1	-1E+10	1	-1E+10	1
4902549	92	C	02/28/2023	12:08	-133.661	47.404	0	235.30	0	6.3410	0	33.8490	0	26.603	0	233.205	0	116.6	4	38.8	4	-1E+10	1	-1E+10	1	-1E+10	1	-1E+10	1	-1E+10	1	-1E+10	1
4902549	92	C	02/28/2023	12:08	-133.661	47.404	0	236.50	0	6.3340	0	33.8490	0	26.603	0	234.394	0	116.2	4	38.7	4	-1E+10	1	-1E+10	1	-1E+10	1	-1E+10	1	-1E+10	1	-1E+10	1
4902549	92	C	02/28/2023	12:08	-133.661	47.404	0	237.60	0	6.3310	0	33.8510	0	26.605	0	235.484	0	115.7	4	38.5	4	-1E+10	1	-1E+10	1	-1E+10	1	-1E+10	1	-1E+10	1	-1E+10	1
4902549	92	C	02/28/2023	12:08	-133.661	47.404	0	238.80	0	6.3280	0	33.8520	0	26.607	0	236.672	0	115.3	4	38.4	4	-1E+10	1	-1E+10	1	-1E+10	1	-1E+10	1	-1E+10	1	-1E+10	1
4902549	92	C	02/28/2023	12:08	-133.661	47.404	0	239.90	0	6.3280	0	33.8520	0	26.607	0	237.762	0	114.9	4	38.2	4	-1E+10	1	-1E+10	1	-1E+10	1	-1E+10	1	-1E+10	1	-1E+10	1
4902549	92	C	02/28/2023	12:08	-133.661	47.404	0	241.00	0	6.3240	0	33.8530	0	26.608	0	238.851	0	114.4	4	38.1	4	-1E+10	1	-1E+10	1	-1E+10	1	-1E+10	1	-1E+10	1	-1E+10	1
4902549	92	C	02/28/2023	12:08	-133.661	47.404	0	242.20	0	6.3230	0	33.8520	0	26.607	0	240.040	0	114.0	4	37.9	4	-1E+10	1	-1E+10	1	-1E+10	1	-1E+10	1	-1E+10	1	-1E+10	1
4902549	92	C	02/28/2023	12:08	-133.661	47.404	0	243.30	0	6.3160	0	33.8540	0	26.610	0	241.130	0	113.4	4	37.7	4	-1E+10	1	-1E+10	1	-1E+10	1	-1E+10	1	-1E+10	1	-1E+10	1
4902549	92	C	02/28/2023	12:08	-133.661	47.404	0	244.40	0	6.2970	0	33.8560	0	26.614	0	242.219	0	113.0	4	37.6	4	-1E+10	1	-1E+10	1	-1E+10	1	-1E+10	1	-1E+10	1	-1E+10	1
4902549	92	C	02/28/2023	12:08	-133.661	47.404	0	245.50	0	6.2900	0	33.8600	0	26.618	0	243.309	0	112.7	4	37.5	4	-1E+10	1	-1E+10	1	-1E+10	1	-1E+10	1	-1E+10	1	-1E+10	1
4902549	92	C	02/28/2023	12:08	-133.661	47.404	0	246.70	0	6.2800	0	33.8570	0	26.617	0	244.497	0	112.3	4	37.3	4	-1E+10	1	-1E+10	1	-1E+10	1	-1E+10	1	-1E+10	1	-1E+10	1
4902549	92	C	02/28/2023	12:08	-133.661	47.404	0	247.80	0	6.2750	0	33.8580	0	26.618	0	245.587	0	112.0	4	37.2	4	-1E+10	1	-1E+10	1	-1E+10	1	-1E+10	1	-1E+10	1	-1E+10	1
4902549	92	C	02/28/2023	12:08	-133.661	47.404	0	248.90	0	6.2670	0	33.8590	0	26.620	0	246.676	0	111.6	4	37.1	4	-1E+10	1	-1E+10	1	-1E+10	1	-1E+10	1	-1E+10	1	-1E+10	1
4902549	92	C	02/28/2023	12:08	-133.661	47.404	0	250.10	0	6.2620	0	33.8580	0	26.620	0	247.865	0	111.1	4	36.9	4	-1E+10	1	-1E+10	1	-1E+10	1	-1E+10	1	-1E+10	1	-1E+10	1
4902549	92	C	02/28/2023	12:08	-133.661	47.404	0	251.20	0	6.2600	0	33.8590	0	26.621	0	248.954	0	110.7	4	36.8	4	-1E+10	1	-1E+10	1	-1E+10	1	-1E+10	1	-1E+10	1	-1E+10	1
4902549	92	C	02/28/2023	12:08	-133.661	47.404	0	252.30	0	6.2560	0	33.8590	0	26.622	0	250.044	0	110.1	4	36.6	4	-1E+10	1	-1E+10	1	-1E+10	1	-1E+10	1	-1E+10	1	-1E+10	1
4902549	92	C	02/28/2023	12:08	-133.661	47.404	0	253.40	0	6.2410	0	33.8600	0	26.624	0	251.133	0	109.5	4	36.4	4	-1E+10	1	-1E+10	1	-1E+10	1	-1E+10	1	-1E+10	1	-1E+10	1
4902549	92	C	02/28/2023	12:08	-133.661	47.404	0	254.50	0	6.2250	0	33.8600	0	26.626	0	252.223	0	109.0	4	36.2	4	-1E+10	1	-1E+10	1	-1E+10	1	-1E+10	1	-1E+10	1	-1E+10	1
4902549	92	C	02/28/2023	12:08	-133.661	47.404	0	255.60	0	6.2150	0	33.8600	0	26.628	0	253.312	0	108.3	4	35.9	4	-1E+10	1	-1E+10	1	-1E+10	1	-1E+10	1	-1E+10	1	-1E+10	1
4902549	92	C	02/28/2023	12:08	-133.661	47.404	0	256.70	0	6.2180	0	33.8610	0	26.628	0	254.402	0	107.7	4	35.7	4	-1E+10	1	-1E+10	1	-1E+10	1	-1E+10	1	-1E+10	1	-1E+10	1
4902549	92	C	02/28/2023	12:08	-133.661	47.404	0	257.80	0	6.2170	0	33.8600	0	26.627	0	255.491	0	107.0	4	35.5	4	-1E+10	1	-1E+10	1	-1E+10	1	-1E+10	1	-1E+10	1	-1E+10	1
4902549	92	C	02/28/2023	12:08	-133.661	47.404	0	258.90	0	6.2020	0	33.8640	0	26.632	0	256.581	0	106.4	4	35.3	4	-1E+10	1	-1E+10	1	-1E+10	1	-1E+10	1	-1E+10	1	-1E+10	1
4902549	92	C	02/28/2023	12:08	-133.661	47.404	0	260.00	0	6.1650	0	33.8690	0	26.641	0	257.670	0	106.0	4	35.1	4	-1E+10	1	-1E+10	1	-1E+10	1	-1E+10	1	-1E+10	1	-1E+10	1
4902549	92	C	02/28/2023	12:08	-133.661	47.404	0	261.10	0	6.1530	0	33.8660	0	26.640	0	258.760	0	105.6	4	35.0	4	-1E+10	1	-1E+10	1	-1E+10	1	-1E+10	1	-1E+10	1	-1E+10	1
4902549	92	C	02/28/2023	12:08	-133.661	47.404	0	262.20	0	6.1280	0	33.8670	0	26.644	0	259.849	0	105.1	4	34.8	4	-1E+10	1	-1E+10	1	-1E+10	1	-1E+10	1	-1E+10	1	-1E+10	1
4902549	92	C	02/28/2023	12:08	-133.661	47.404	0	263.40	0	6.1150	0	33.8690	0	26.647	0	261.038	0	104.8	4	34.7	4	-1E+10	1	-1E+10	1	-1E+10	1	-1E+10	1	-1E+10	1	-1E+10	1
4902549	92	C	02/28/2023	12:08	-133.661	47.404	0	264.50	0	6.1110	0	33.8700	0	26.649	0	262.127	0	104.4	4	34.6	4	-1E+10	1	-1E+10	1	-1E+10	1	-1E+10	1	-1E+10	1	-1E+10	1
4902549	92	C	02/28/2023	12:08	-133.661	47.404	0	265.60	0	6.1060	0	33.8690	0	26.649	0	263.216	0	104.0	4	34.4	4	-1E+10	1	-1E+10	1	-1E+10	1	-1E+10	1	-1E+10	1	-1E+10	1
4902549	92	C	02/28/2023	12:08	-133.661	47.404	0	266.70	0	6.1020	0	33.8690	0	26.649	0	264.306	0	103.5	4	34.3	4	-1E+10	1	-1E+10	1	-1E+10	1	-1E+10	1	-1E+10	1	-1E+10	1
4902549	92	C	02/28/2023	12:08	-133.661	47.404	0	267.80	0	6.0970	0	33.8690	0	26.650	0	265.395	0	103.0	4	34.1	4	-1E+10	1	-1E+10	1	-1E+10	1	-1E+10	1	-1E+10	1	-1E+10	1
4902549	92	C	02/28/2023	12:08	-133.661	47.404	0	268.90	0	6.0850	0	33.8690	0	26.651	0	266.485	0	102.3	4	33.8	4	-1E+10	1	-1E+10	1	-1E+10	1	-1E+10	1	-1E+10	1	-1E+10	1
4902549	92	C	02/28/2023	12:08	-133.661	47.404	0	270.00	0	6.0870	0	33.8610	0	26.645	0	267.574	0	101.6	4	33.6	4	-1E+10	1	-1E+10	1	-1E+10	1	-1E+10	1	-1E+10	1	-1E+10	1
4902549	92	C	02/28/2023	12:08	-133.661	47.404	0	271.10	0	6.0840	0	33.8720	0	26.654	0	268.663	0	101.0	4	33.4	4	-1E+10	1	-1E+10	1	-1E+10	1	-1E+10	1	-1E+10	1	-1E+10	1
4902549	92	C	02/28/2023	12:08	-133.661	47.404	0	272.20	0	6.0800	0	33.8750	0	26.657	0	269.753	0	100.4	4	33.2	4	-1E+10	1	-1E+10	1	-1E+10	1	-1E+10	1	-1E+10	1	-1E+10	1
4902549	92	C	02/28/2023	12:08	-133.661	47.404	0	273.30	0	6.0690	0	33.8730	0	26.657	0	270.842	0	99.8	4	33.0	4	-1E+10	1	-1E+10	1	-1E+10	1	-1E+10	1	-1E+10	1	-1E+10	1
4902549	92	C	02/28/2023	12:08	-133.661	47.404	0	274.40	0	6.0600	0	33.8760	0	26.660	0	271.932	0	99.2	4	32.8	4	-1E+10	1	-1E+10	1	-1E+10	1	-1E+10	1	-1E+10	1	-1E+10	1
4902549	92	C	02/28/2023	12:08	-133.661	47.404	0	275.50	0	6.0290	0	33.8770	0	26.665	0	273.021	0	98.7	4	32.6	4	-1E+10	1	-1E+10	1	-1E+10	1	-1E+10	1	-1E+10	1	-1E+10	1
4902549	92	C	02/28/2023	12:08	-133.661	47.404	0	276.60	0	5.9960	0	33.8760	0	26.668	0	274.110	0	98.2	4	32.4	4	-1E+10	1	-1E+10	1	-1E+10	1	-1E+10	1	-1E+10	1	-1E+10	1
4902549	92	C	02/28/2023	12:08	-133.661	47.404	0	277.70	0	5.9770	0	33.8760	0	26.670	0	275.200	0	97.6	4	32.2	4	-1E+10	1	-1E+10	1	-1E+10	1	-1E+10	1	-1E+10	1	-1E+10	1
4902549	92	C	02/28/2023	12:08	-133.661	47.404	0	278.80	0	5.9750	0	33.8750	0	26.670	0	276.289	0	96.8	4	32.0	4	-1E+10	1	-1E+10	1	-1E+10	1	-1E+10	1	-1E+10	1	-1E+10	1
4902549	92	C	02/28/2023	12:08	-133.661	47.404	0	279.90	0	5.9560	0	33.8770	0	26.674	0	277.378	0	96.1	4	31.7	4	-1E+10	1	-1E+10	1	-1E+10	1	-1E+10	1	-1E+10	1	-1E+10	1
4902549	92	C	02/28/2023	12:08	-133.661	47.404	0	281.00	0	5.9360	0	33.8780	0	26.677	0	278.468	0	95.4	4	31.5	4	-1E+10	1	-1E+10	1	-1E+10	1	-1E+10	1	-1E+10	1	-1E+10	1
4902549	92	C	02/28/2023	12:08	-133.661	47.404	0	282.10	0	5.9240	0	33.8800	0	26.680	0	279.557	0	94.7	4	31.2	4	-1E+10	1	-1E+10	1	-1E+10	1	-1E+10	1	-1E+10	1	-1E+10	1
4902549	92	C	02/28/2023	12:08	-133.661	47.404	0	283.30	0	5.9170	0	33.8820	0	26.683	0	280.746	0	94.1	4	31.0	4	-1E+10	1	-1E+10	1	-1E+10	1	-1E+10	1	-1E+10	1	-1E+10	1
4902549	92	C	02/28/2023	12:08	-133.661	47.404	0	284.40	0	5.9080	0	33.8830	0	26.685	0	281.835	0	93.5	4	30.8	4	-1E+10	1	-1E+10	1	-1E+10	1	-1E+10	1	-1E+10	1	-1E+10	1
4902549	92	C	02/28/2023	12:08	-133.661	47.404	0	285.50	0	5.8820	0	33.8850	0	26.689	0	282.924	0	92.9	4	30.6	4	-1E+10	1	-1E+10	1	-1E+10	1	-1E+10	1	-1E+10	1	-1E+10	1
4902549	92	C	02/28/2023	12:08	-133.661	47.404	0	286.60	0	5.8630	0	33.8830	0	26.690	0	284.014	0	92.3	4	30.4	4	-1E+10	1	-1E+10	1	-1E+10	1	-1E+10	1	-1E+10	1	-1E+10	1
4902549	92	C	02/28/2023	12:08	-133.661	47.404	0	287.60	0	5.8550	0	33.8830	0	26.691	0	285.004	0	91.6	4	30.1	4	-1E+10	1	-1E+10	1	-1E+10	1	-1E+10	1	-1E+10	1	-1E+10	1
4902549	92	C	02/28/2023	12:08	-133.661	47.404	0	288.80	0	5.8460	0	33.8830	0	26.692	0	286.192	0	90.8	4	29.9	4	-1E+10	1	-1E+10	1	-1E+10	1	-1E+10	1	-1E+10	1	-1E+10	1
4902549	92	C	02/28/2023	12:08	-133.661	47.404	0	289.90	0	5.8290	0	33.8860	0	26.697	0	287.281	0	89.9	4	29.6	4	-1E+10	1	-1E+10	1	-1E+10	1	-1E+10	1	-1E+10	1	-1E+10	1
4902549	92	C	02/28/2023	12:08	-133.661	47.404	0	291.00	0	5.8100	0	33.8860	0	26.699	0	288.371	0	89.0	4	29.3	4	-1E+10	1	-1E+10	1	-1E+10	1	-1E+10	1	-1E+10	1	-1E+10	1
4902549	92	C	02/28/2023	12:08	-133.661	47.404	0	292.10	0	5.8020	0	33.8870	0	26.701	0	289.460	0	88.1	4	29.0	4	-1E+10	1	-1E+10	1	-1E+10	1	-1E+10	1	-1E+10	1	-1E+10	1
4902549	92	C	02/28/2023	12:08	-133.661	47.404	0	293.20	0	5.7850	0	33.8900	0	26.705	0	290.549	0	87.4	4	28.7	4	-1E+10	1	-1E+10	1	-1E+10	1	-1E+10	1	-1E+10	1	-1E+10	1
4902549	92	C	02/28/2023	12:08	-133.661	47.404	0	294.30	0	5.7780	0	33.8940	0	26.709	0	291.639	0	86.7	4	28.5	4	-1E+10	1	-1E+10	1	-1E+10	1	-1E+10	1	-1E+10	1	-1E+10	1
4902549	92	C	02/28/2023	12:08	-133.661	47.404	0	295.40	0	5.7630	0	33.8940	0	26.711	0	292.728	0	86.1	4	28.3	4	-1E+10	1	-1E+10	1	-1E+10	1	-1E+10	1	-1E+10	1	-1E+10	1
4902549	92	C	02/28/2023	12:08	-133.661	47.404	0	296.50	0	5.7510	0	33.8940	0	26.713	0	293.817	0	85.4	4	28.1	4	-1E+10	1	-1E+10	1	-1E+10	1	-1E+10	1	-1E+10	1	-1E+10	1
4902549	92	C	02/28/2023	12:08	-133.661	47.404	0	297.60	0	5.7420	0	33.8960	0	26.715	0	294.906	0	84.7	4	27.8	4	-1E+10	1	-1E+10	1	-1E+10	1	-1E+10	1	-1E+10	1	-1E+10	1
4902549	92	C	02/28/2023	12:08	-133.661	47.404	0	298.70	0	5.7310	0	33.8960	0	26.717	0	295.996	0	84.0	4	27.6	4	-1E+10	1	-1E+10	1	-1E+10	1	-1E+10	1	-1E+10	1	-1E+10	1
4902549	92	C	02/28/2023	12:08	-133.661	47.404	0	299.80	0	5.7300	0	33.8980	0	26.719	0	297.085	0	83.2	4	27.3	4	-1E+10	1	-1E+10	1	-1E+10	1	-1E+10	1	-1E+10	1	-1E+10	1
4902549	92	C	02/28/2023	12:08	-133.661	47.404	0	301.00	0	5.7220	0	33.9000	0	26.721	0	298.273	0	82.6	4	27.1	4	-1E+10	1	-1E+10	1	-1E+10	1	-1E+10	1	-1E+10	1	-1E+10	1
4902549	92	C	02/28/2023	12:08	-133.661	47.404	0	302.00	0	5.6970	0	33.9050	0	26.728	0	299.263	0	82.2	4	27.0	4	-1E+10	1	-1E+10	1	-1E+10	1	-1E+10	1	-1E+10	1	-1E+10	1
4902549	92	C	02/28/2023	12:08	-133.661	47.404	0	303.10	0	5.6920	0	33.9050	0	26.729	0	300.353	0	81.9	4	26.8	4	-1E+10	1	-1E+10	1	-1E+10	1	-1E+10	1	-1E+10	1	-1E+10	1
4902549	92	C	02/28/2023	12:08	-133.661	47.404	0	304.20	0	5.6780	0	33.9070	0	26.732	0	301.442	0	81.6	4	26.8	4	-1E+10	1	-1E+10	1	-1E+10	1	-1E+10	1	-1E+10	1	-1E+10	1
4902549	92	C	02/28/2023	12:08	-133.661	47.404	0	305.30	0	5.6740	0	33.9050	0	26.731	0	302.531	0	81.4	4	26.7	4	-1E+10	1	-1E+10	1	-1E+10	1	-1E+10	1	-1E+10	1	-1E+10	1
4902549	92	C	02/28/2023	12:08	-133.661	47.404	0	306.50	0	5.6670	0	33.9070	0	26.733	0	303.719	0	81.1	4	26.6	4	-1E+10	1	-1E+10	1	-1E+10	1	-1E+10	1	-1E+10	1	-1E+10	1
4902549	92	C	02/28/2023	12:08	-133.661	47.404	0	307.60	0	5.6570	0	33.9080	0	26.735	0	304.809	0	80.9	4	26.5	4	-1E+10	1	-1E+10	1	-1E+10	1	-1E+10	1	-1E+10	1	-1E+10	1
4902549	92	C	02/28/2023	12:08	-133.661	47.404	0	308.60	0	5.6240	0	33.9060	0	26.738	0	305.799	0	80.6	4	26.4	4	-1E+10	1	-1E+10	1	-1E+10	1	-1E+10	1	-1E+10	1	-1E+10	1
4902549	92	C	02/28/2023	12:08	-133.661	47.404	0	309.80	0	5.6000	0	33.9060	0	26.741	0	306.987	0	80.2	4	26.3	4	-1E+10	1	-1E+10	1	-1E+10	1	-1E+10	1	-1E+10	1	-1E+10	1
4902549	92	C	02/28/2023	12:08	-133.661	47.404	0	310.80	0	5.5940	0	33.9060	0	26.741	0	307.977	0	79.8	4	26.1	4	-1E+10	1	-1E+10	1	-1E+10	1	-1E+10	1	-1E+10	1	-1E+10	1
4902549	92	C	02/28/2023	12:08	-133.661	47.404	0	312.00	0	5.5860	0	33.9050	0	26.742	0	309.165	0	79.5	4	26.0	4	-1E+10	1	-1E+10	1	-1E+10	1	-1E+10	1	-1E+10	1	-1E+10	1
4902549	92	C	02/28/2023	12:08	-133.661	47.404	0	313.10	0	5.5740	0	33.9070	0	26.745	0	310.255	0	79.1	4	25.9	4	-1E+10	1	-1E+10	1	-1E+10	1	-1E+10	1	-1E+10	1	-1E+10	1
4902549	92	C	02/28/2023	12:08	-133.661	47.404	0	314.10	0	5.5740	0	33.9080	0	26.745	0	311.245	0	78.7	4	25.8	4	-1E+10	1	-1E+10	1	-1E+10	1	-1E+10	1	-1E+10	1	-1E+10	1
4902549	92	C	02/28/2023	12:08	-133.661	47.404	0	315.20	0	5.5700	0	33.9080	0	26.746	0	312.334	0	78.4	4	25.6	4	-1E+10	1	-1E+10	1	-1E+10	1	-1E+10	1	-1E+10	1	-1E+10	1
4902549	92	C	02/28/2023	12:08	-133.661	47.404	0	316.20	0	5.5460	0	33.9110	0	26.751	0	313.324	0	78.1	4	25.5	4	-1E+10	1	-1E+10	1	-1E+10	1	-1E+10	1	-1E+10	1	-1E+10	1
4902549	92	C	02/28/2023	12:08	-133.661	47.404	0	317.90	0	5.5120	0	33.9090	0	26.754	0	315.007	0	77.6	4	25.3	4	-1E+10	1	-1E+10	1	-1E+10	1	-1E+10	1	-1E+10	1	-1E+10	1
4902549	92	C	02/28/2023	12:08	-133.661	47.404	0	319.20	0	5.5020	0	33.9080	0	26.754	0	316.294	0	77.0	4	25.2	4	-1E+10	1	-1E+10	1	-1E+10	1	-1E+10	1	-1E+10	1	-1E+10	1
4902549	92	C	02/28/2023	12:08	-133.661	47.404	0	320.00	0	5.4950	0	33.9090	0	26.756	0	317.087	0	76.6	4	25.0	4	-1E+10	1	-1E+10	1	-1E+10	1	-1E+10	1	-1E+10	1	-1E+10	1
4902549	92	C	02/28/2023	12:08	-133.661	47.404	0	320.80	0	5.4830	0	33.9090	0	26.757	0	317.879	0	76.1	4	24.9	4	-1E+10	1	-1E+10	1	-1E+10	1	-1E+10	1	-1E+10	1	-1E+10	1
4902549	92	C	02/28/2023	12:08	-133.661	47.404	0	321.70	0	5.4720	0	33.9100	0	26.759	0	318.770	0	75.7	4	24.7	4	-1E+10	1	-1E+10	1	-1E+10	1	-1E+10	1	-1E+10	1	-1E+10	1
4902549	92	C	02/28/2023	12:08	-133.661	47.404	0	322.90	0	5.4570	0	33.9120	0	26.763	0	319.958	0	75.1	4	24.5	4	-1E+10	1	-1E+10	1	-1E+10	1	-1E+10	1	-1E+10	1	-1E+10	1
4902549	92	C	02/28/2023	12:08	-133.661	47.404	0	324.10	0	5.4430	0	33.9120	0	26.764	0	321.146	0	74.5	4	24.3	4	-1E+10	1	-1E+10	1	-1E+10	1	-1E+10	1	-1E+10	1	-1E+10	1
4902549	92	C	02/28/2023	12:08	-133.661	47.404	0	325.00	0	5.4390	0	33.9130	0	26.766	0	322.037	0	74.1	4	24.2	4	-1E+10	1	-1E+10	1	-1E+10	1	-1E+10	1	-1E+10	1	-1E+10	1
4902549	92	C	02/28/2023	12:08	-133.661	47.404	0	325.80	0	5.4230	0	33.9160	0	26.770	0	322.829	0	73.9	4	24.1	4	-1E+10	1	-1E+10	1	-1E+10	1	-1E+10	1	-1E+10	1	-1E+10	1
4902549	92	C	02/28/2023	12:08	-133.661	47.404	0	327.00	0	5.4200	0	33.9160	0	26.770	0	324.017	0	73.4	4	23.9	4	-1E+10	1	-1E+10	1	-1E+10	1	-1E+10	1	-1E+10	1	-1E+10	1
4902549	92	C	02/28/2023	12:08	-133.661	47.404	0	328.20	0	5.4180	0	33.9160	0	26.770	0	325.205	0	72.9	4	23.8	4	-1E+10	1	-1E+10	1	-1E+10	1	-1E+10	1	-1E+10	1	-1E+10	1
4902549	92	C	02/28/2023	12:08	-133.661	47.404	0	329.00	0	5.4120	0	33.9170	0	26.772	0	325.998	0	72.5	4	23.6	4	-1E+10	1	-1E+10	1	-1E+10	1	-1E+10	1	-1E+10	1	-1E+10	1
4902549	92	C	02/28/2023	12:08	-133.661	47.404	0	329.80	0	5.4010	0	33.9190	0	26.775	0	326.790	0	72.1	4	23.5	4	-1E+10	1	-1E+10	1	-1E+10	1	-1E+10	1	-1E+10	1	-1E+10	1
4902549	92	C	02/28/2023	12:08	-133.661	47.404	0	330.60	0	5.3890	0	33.9190	0	26.776	0	327.582	0	71.8	4	23.4	4	-1E+10	1	-1E+10	1	-1E+10	1	-1E+10	1	-1E+10	1	-1E+10	1
4902549	92	C	02/28/2023	12:08	-133.661	47.404	0	331.90	0	5.3750	0	33.9200	0	26.779	0	328.869	0	71.2	4	23.2	4	-1E+10	1	-1E+10	1	-1E+10	1	-1E+10	1	-1E+10	1	-1E+10	1
4902549	92	C	02/28/2023	12:08	-133.661	47.404	0	333.10	0	5.3670	0	33.9220	0	26.781	0	330.057	0	70.7	4	23.0	4	-1E+10	1	-1E+10	1	-1E+10	1	-1E+10	1	-1E+10	1	-1E+10	1
4902549	92	C	02/28/2023	12:08	-133.661	47.404	0	333.90	0	5.3640	0	33.9220	0	26.782	0	330.849	0	70.4	4	22.9	4	-1E+10	1	-1E+10	1	-1E+10	1	-1E+10	1	-1E+10	1	-1E+10	1
4902549	92	C	02/28/2023	12:08	-133.661	47.404	0	334.80	0	5.3640	0	33.9220	0	26.782	0	331.740	0	70.1	4	22.8	4	-1E+10	1	-1E+10	1	-1E+10	1	-1E+10	1	-1E+10	1	-1E+10	1
4902549	92	C	02/28/2023	12:08	-133.661	47.404	0	336.00	0	5.3610	0	33.9220	0	26.782	0	332.928	0	69.4	4	22.6	4	-1E+10	1	-1E+10	1	-1E+10	1	-1E+10	1	-1E+10	1	-1E+10	1
4902549	92	C	02/28/2023	12:08	-133.661	47.404	0	337.20	0	5.3510	0	33.9240	0	26.785	0	334.116	0	68.8	4	22.4	4	-1E+10	1	-1E+10	1	-1E+10	1	-1E+10	1	-1E+10	1	-1E+10	1
4902549	92	C	02/28/2023	12:08	-133.661	47.404	0	338.00	0	5.3450	0	33.9250	0	26.786	0	334.908	0	68.5	4	22.3	4	-1E+10	1	-1E+10	1	-1E+10	1	-1E+10	1	-1E+10	1	-1E+10	1
4902549	92	C	02/28/2023	12:08	-133.661	47.404	0	338.90	0	5.3410	0	33.9210	0	26.784	0	335.799	0	68.1	4	22.2	4	-1E+10	1	-1E+10	1	-1E+10	1	-1E+10	1	-1E+10	1	-1E+10	1
4902549	92	C	02/28/2023	12:08	-133.661	47.404	0	339.70	0	5.3350	0	33.9270	0	26.789	0	336.591	0	67.7	4	22.0	4	-1E+10	1	-1E+10	1	-1E+10	1	-1E+10	1	-1E+10	1	-1E+10	1
4902549	92	C	02/28/2023	12:08	-133.661	47.404	0	340.90	0	5.3180	0	33.9280	0	26.792	0	337.779	0	67.2	4	21.9	4	-1E+10	1	-1E+10	1	-1E+10	1	-1E+10	1	-1E+10	1	-1E+10	1
4902549	92	C	02/28/2023	12:08	-133.661	47.404	0	342.20	0	5.3040	0	33.9290	0	26.794	0	339.066	0	66.7	4	21.7	4	-1E+10	1	-1E+10	1	-1E+10	1	-1E+10	1	-1E+10	1	-1E+10	1
4902549	92	C	02/28/2023	12:08	-133.661	47.404	0	343.00	0	5.3040	0	33.9310	0	26.796	0	339.858	0	66.4	4	21.6	4	-1E+10	1	-1E+10	1	-1E+10	1	-1E+10	1	-1E+10	1	-1E+10	1
4902549	92	C	02/28/2023	12:08	-133.661	47.404	0	343.80	0	5.3000	0	33.9310	0	26.796	0	340.650	0	66.0	4	21.5	4	-1E+10	1	-1E+10	1	-1E+10	1	-1E+10	1	-1E+10	1	-1E+10	1
4902549	92	C	02/28/2023	12:08	-133.661	47.404	0	344.60	0	5.2960	0	33.9310	0	26.797	0	341.442	0	65.7	4	21.3	4	-1E+10	1	-1E+10	1	-1E+10	1	-1E+10	1	-1E+10	1	-1E+10	1
4902549	92	C	02/28/2023	12:08	-133.661	47.404	0	345.90	0	5.2810	0	33.9320	0	26.799	0	342.729	0	65.1	4	21.1	4	-1E+10	1	-1E+10	1	-1E+10	1	-1E+10	1	-1E+10	1	-1E+10	1
4902549	92	C	02/28/2023	12:08	-133.661	47.404	0	347.10	0	5.2690	0	33.9340	0	26.802	0	343.917	0	64.5	4	20.9	4	-1E+10	1	-1E+10	1	-1E+10	1	-1E+10	1	-1E+10	1	-1E+10	1
4902549	92	C	02/28/2023	12:08	-133.661	47.404	0	347.90	0	5.2710	0	33.9350	0	26.803	0	344.709	0	64.2	4	20.8	4	-1E+10	1	-1E+10	1	-1E+10	1	-1E+10	1	-1E+10	1	-1E+10	1
4902549	92	C	02/28/2023	12:08	-133.661	47.404	0	348.80	0	5.2700	0	33.9360	0	26.804	0	345.600	0	63.8	4	20.7	4	-1E+10	1	-1E+10	1	-1E+10	1	-1E+10	1	-1E+10	1	-1E+10	1
4902549	92	C	02/28/2023	12:08	-133.661	47.404	0	349.60	0	5.2660	0	33.9370	0	26.805	0	346.392	0	63.5	4	20.6	4	-1E+10	1	-1E+10	1	-1E+10	1	-1E+10	1	-1E+10	1	-1E+10	1
4902549	92	C	02/28/2023	12:08	-133.661	47.404	0	352.60	0	5.2580	0	33.9390	0	26.808	0	349.362	0	62.2	4	20.2	4	-1E+10	1	-1E+10	1	-1E+10	1	-1E+10	1	-1E+10	1	-1E+10	1
4902549	92	C	02/28/2023	12:08	-133.661	47.404	0	357.80	0	5.2210	0	33.9440	0	26.816	0	354.510	0	59.9	4	19.4	4	-1E+10	1	-1E+10	1	-1E+10	1	-1E+10	1	-1E+10	1	-1E+10	1
4902549	92	C	02/28/2023	12:08	-133.661	47.404	0	362.80	0	5.1880	0	33.9480	0	26.823	0	359.460	0	57.8	4	18.7	4	-1E+10	1	-1E+10	1	-1E+10	1	-1E+10	1	-1E+10	1	-1E+10	1
4902549	92	C	02/28/2023	12:08	-133.661	47.404	0	367.80	0	5.1370	0	33.9540	0	26.834	0	364.409	0	55.4	4	17.9	4	-1E+10	1	-1E+10	1	-1E+10	1	-1E+10	1	-1E+10	1	-1E+10	1
4902549	92	C	02/28/2023	12:08	-133.661	47.404	0	373.00	0	5.0830	0	33.9620	0	26.846	0	369.557	0	53.5	4	17.3	4	-1E+10	1	-1E+10	1	-1E+10	1	-1E+10	1	-1E+10	1	-1E+10	1
4902549	92	C	02/28/2023	12:08	-133.661	47.404	0	377.80	0	5.0510	0	33.9660	0	26.853	0	374.308	0	52.4	4	16.9	4	-1E+10	1	-1E+10	1	-1E+10	1	-1E+10	1	-1E+10	1	-1E+10	1
4902549	92	C	02/28/2023	12:08	-133.661	47.404	0	382.70	0	5.0170	0	33.9710	0	26.861	0	379.158	0	51.3	4	16.6	4	-1E+10	1	-1E+10	1	-1E+10	1	-1E+10	1	-1E+10	1	-1E+10	1
4902549	92	C	02/28/2023	12:08	-133.661	47.404	0	387.70	0	4.9980	0	33.9730	0	26.865	0	384.107	0	50.3	4	16.2	4	-1E+10	1	-1E+10	1	-1E+10	1	-1E+10	1	-1E+10	1	-1E+10	1
4902549	92	C	02/28/2023	12:08	-133.661	47.404	0	392.50	0	4.9810	0	33.9760	0	26.869	0	388.858	0	49.3	4	15.9	4	-1E+10	1	-1E+10	1	-1E+10	1	-1E+10	1	-1E+10	1	-1E+10	1
4902549	92	C	02/28/2023	12:08	-133.661	47.404	0	397.60	0	4.9680	0	33.9790	0	26.873	0	393.906	0	48.1	4	15.5	4	-1E+10	1	-1E+10	1	-1E+10	1	-1E+10	1	-1E+10	1	-1E+10	1
4902549	92	C	02/28/2023	12:08	-133.661	47.404	0	402.80	0	4.9370	0	33.9840	0	26.881	0	399.053	0	47.0	4	15.2	4	-1E+10	1	-1E+10	1	-1E+10	1	-1E+10	1	-1E+10	1	-1E+10	1
4902549	92	C	02/28/2023	12:08	-133.661	47.404	0	408.10	0	4.9200	0	33.9870	0	26.885	0	404.299	0	46.0	4	14.8	4	-1E+10	1	-1E+10	1	-1E+10	1	-1E+10	1	-1E+10	1	-1E+10	1
4902549	92	C	02/28/2023	12:08	-133.661	47.404	0	413.10	0	4.9080	0	33.9900	0	26.889	0	409.247	0	44.9	4	14.5	4	-1E+10	1	-1E+10	1	-1E+10	1	-1E+10	1	-1E+10	1	-1E+10	1
4902549	92	C	02/28/2023	12:08	-133.661	47.404	0	417.70	0	4.8930	0	33.9930	0	26.893	0	413.800	0	43.8	4	14.1	4	-1E+10	1	-1E+10	1	-1E+10	1	-1E+10	1	-1E+10	1	-1E+10	1
4902549	92	C	02/28/2023	12:08	-133.661	47.404	0	422.90	0	4.8600	0	33.9990	0	26.901	0	418.946	0	42.6	4	13.7	4	-1E+10	1	-1E+10	1	-1E+10	1	-1E+10	1	-1E+10	1	-1E+10	1
4902549	92	C	02/28/2023	12:08	-133.661	47.404	0	428.10	0	4.8450	0	34.0020	0	26.905	0	424.092	0	41.4	4	13.3	4	-1E+10	1	-1E+10	1	-1E+10	1	-1E+10	1	-1E+10	1	-1E+10	1
4902549	92	C	02/28/2023	12:08	-133.661	47.404	0	432.80	0	4.8340	0	34.0070	0	26.911	0	428.743	0	40.1	4	12.9	4	-1E+10	1	-1E+10	1	-1E+10	1	-1E+10	1	-1E+10	1	-1E+10	1
4902549	92	C	02/28/2023	12:08	-133.661	47.404	0	437.60	0	4.8220	0	34.0140	0	26.918	0	433.493	0	38.9	4	12.5	4	-1E+10	1	-1E+10	1	-1E+10	1	-1E+10	1	-1E+10	1	-1E+10	1
4902549	92	C	02/28/2023	12:08	-133.661	47.404	0	442.80	0	4.8090	0	34.0180	0	26.922	0	438.639	0	37.8	4	12.1	4	-1E+10	1	-1E+10	1	-1E+10	1	-1E+10	1	-1E+10	1	-1E+10	1
4902549	92	C	02/28/2023	12:08	-133.661	47.404	0	448.00	0	4.7890	0	34.0240	0	26.929	0	443.784	0	36.7	4	11.8	4	-1E+10	1	-1E+10	1	-1E+10	1	-1E+10	1	-1E+10	1	-1E+10	1
4902549	92	C	02/28/2023	12:08	-133.661	47.404	0	452.70	0	4.7740	0	34.0270	0	26.933	0	448.435	0	36.0	4	11.6	4	-1E+10	1	-1E+10	1	-1E+10	1	-1E+10	1	-1E+10	1	-1E+10	1
4902549	92	C	02/28/2023	12:08	-133.661	47.404	0	457.80	0	4.7620	0	34.0300	0	26.937	0	453.481	0	35.1	4	11.3	4	-1E+10	1	-1E+10	1	-1E+10	1	-1E+10	1	-1E+10	1	-1E+10	1
4902549	92	C	02/28/2023	12:08	-133.661	47.404	0	463.00	0	4.7340	0	34.0340	0	26.943	0	458.627	0	33.9	4	10.9	4	-1E+10	1	-1E+10	1	-1E+10	1	-1E+10	1	-1E+10	1	-1E+10	1
4902549	92	C	02/28/2023	12:08	-133.661	47.404	0	467.70	0	4.7270	0	34.0390	0	26.948	0	463.277	0	33.0	4	10.6	4	-1E+10	1	-1E+10	1	-1E+10	1	-1E+10	1	-1E+10	1	-1E+10	1
4902549	92	C	02/28/2023	12:08	-133.661	47.404	0	472.90	0	4.7130	0	34.0420	0	26.952	0	468.422	0	32.2	4	10.3	4	-1E+10	1	-1E+10	1	-1E+10	1	-1E+10	1	-1E+10	1	-1E+10	1
4902549	92	C	02/28/2023	12:08	-133.661	47.404	0	478.00	0	4.6880	0	34.0450	0	26.957	0	473.468	0	31.3	4	10.0	4	-1E+10	1	-1E+10	1	-1E+10	1	-1E+10	1	-1E+10	1	-1E+10	1
4902549	92	C	02/28/2023	12:08	-133.661	47.404	0	483.00	0	4.6760	0	34.0490	0	26.962	0	478.415	0	30.1	4	9.6	4	-1E+10	1	-1E+10	1	-1E+10	1	-1E+10	1	-1E+10	1	-1E+10	1
4902549	92	C	02/28/2023	12:08	-133.661	47.404	0	488.10	0	4.6620	0	34.0550	0	26.968	0	483.460	0	29.1	4	9.3	4	-1E+10	1	-1E+10	1	-1E+10	1	-1E+10	1	-1E+10	1	-1E+10	1
4902549	92	C	02/28/2023	12:08	-133.661	47.404	0	493.10	0	4.6470	0	34.0580	0	26.972	0	488.407	0	28.1	4	9.0	4	-1E+10	1	-1E+10	1	-1E+10	1	-1E+10	1	-1E+10	1	-1E+10	1
4902549	92	C	02/28/2023	12:08	-133.661	47.404	0	498.10	0	4.6240	0	34.0640	0	26.980	0	493.353	0	27.1	4	8.7	4	-1E+10	1	-1E+10	1	-1E+10	1	-1E+10	1	-1E+10	1	-1E+10	1
4902549	92	C	02/28/2023	12:08	-133.661	47.404	0	503.10	0	4.6070	0	34.0680	0	26.985	0	498.300	0	26.3	4	8.4	4	-1E+10	1	-1E+10	1	-1E+10	1	-1E+10	1	-1E+10	1	-1E+10	1
4902549	92	C	02/28/2023	12:08	-133.661	47.404	0	508.00	0	4.5940	0	34.0720	0	26.989	0	503.147	0	25.4	4	8.1	4	-1E+10	1	-1E+10	1	-1E+10	1	-1E+10	1	-1E+10	1	-1E+10	1
4902549	92	C	02/28/2023	12:08	-133.661	47.404	0	512.80	0	4.5770	0	34.0770	0	26.995	0	507.895	0	24.4	4	7.8	4	-1E+10	1	-1E+10	1	-1E+10	1	-1E+10	1	-1E+10	1	-1E+10	1
4902549	92	C	02/28/2023	12:08	-133.661	47.404	0	518.20	0	4.5580	0	34.0820	0	27.001	0	513.237	0	23.4	4	7.5	4	-1E+10	1	-1E+10	1	-1E+10	1	-1E+10	1	-1E+10	1	-1E+10	1
4902549	92	C	02/28/2023	12:08	-133.661	47.404	0	523.00	0	4.5280	0	34.0890	0	27.010	0	517.985	0	22.6	4	7.2	4	-1E+10	1	-1E+10	1	-1E+10	1	-1E+10	1	-1E+10	1	-1E+10	1
4902549	92	C	02/28/2023	12:08	-133.661	47.404	0	527.80	0	4.5210	0	34.0920	0	27.013	0	522.733	0	21.9	4	7.0	4	-1E+10	1	-1E+10	1	-1E+10	1	-1E+10	1	-1E+10	1	-1E+10	1
4902549	92	C	02/28/2023	12:08	-133.661	47.404	0	533.10	0	4.4970	0	34.0980	0	27.021	0	527.975	0	21.1	4	6.7	4	-1E+10	1	-1E+10	1	-1E+10	1	-1E+10	1	-1E+10	1	-1E+10	1
4902549	92	C	02/28/2023	12:08	-133.661	47.404	0	537.90	0	4.4770	0	34.1020	0	27.026	0	532.723	0	20.5	4	6.5	4	-1E+10	1	-1E+10	1	-1E+10	1	-1E+10	1	-1E+10	1	-1E+10	1
4902549	92	C	02/28/2023	12:08	-133.661	47.404	0	542.70	0	4.4570	0	34.1060	0	27.031	0	537.471	0	19.9	4	6.3	4	-1E+10	1	-1E+10	1	-1E+10	1	-1E+10	1	-1E+10	1	-1E+10	1
4902549	92	C	02/28/2023	12:08	-133.661	47.404	0	548.00	0	4.4380	0	34.1130	0	27.039	0	542.713	0	19.2	4	6.1	4	-1E+10	1	-1E+10	1	-1E+10	1	-1E+10	1	-1E+10	1	-1E+10	1
4902549	92	C	02/28/2023	12:08	-133.661	47.404	0	553.00	0	4.4330	0	34.1150	0	27.041	0	547.658	0	18.7	4	6.0	4	-1E+10	1	-1E+10	1	-1E+10	1	-1E+10	1	-1E+10	1	-1E+10	1
4902549	92	C	02/28/2023	12:08	-133.661	47.404	0	557.90	0	4.4180	0	34.1190	0	27.046	0	552.504	0	18.1	4	5.8	4	-1E+10	1	-1E+10	1	-1E+10	1	-1E+10	1	-1E+10	1	-1E+10	1
4902549	92	C	02/28/2023	12:08	-133.661	47.404	0	563.00	0	4.3990	0	34.1220	0	27.050	0	557.548	0	17.5	4	5.6	4	-1E+10	1	-1E+10	1	-1E+10	1	-1E+10	1	-1E+10	1	-1E+10	1
4902549	92	C	02/28/2023	12:08	-133.661	47.404	0	568.00	0	4.3820	0	34.1280	0	27.057	0	562.493	0	16.7	4	5.3	4	-1E+10	1	-1E+10	1	-1E+10	1	-1E+10	1	-1E+10	1	-1E+10	1
4902549	92	C	02/28/2023	12:08	-133.661	47.404	0	573.10	0	4.3660	0	34.1340	0	27.064	0	567.536	0	16.1	4	5.1	4	-1E+10	1	-1E+10	1	-1E+10	1	-1E+10	1	-1E+10	1	-1E+10	1
4902549	92	C	02/28/2023	12:08	-133.661	47.404	0	577.90	0	4.3550	0	34.1380	0	27.068	0	572.283	0	15.5	4	4.9	4	-1E+10	1	-1E+10	1	-1E+10	1	-1E+10	1	-1E+10	1	-1E+10	1
4902549	92	C	02/28/2023	12:08	-133.661	47.404	0	582.70	0	4.3370	0	34.1430	0	27.074	0	577.030	0	14.9	4	4.7	4	-1E+10	1	-1E+10	1	-1E+10	1	-1E+10	1	-1E+10	1	-1E+10	1
4902549	92	C	02/28/2023	12:08	-133.661	47.404	0	587.60	0	4.3180	0	34.1480	0	27.080	0	581.875	0	14.3	4	4.5	4	-1E+10	1	-1E+10	1	-1E+10	1	-1E+10	1	-1E+10	1	-1E+10	1
4902549	92	C	02/28/2023	12:08	-133.661	47.404	0	592.60	0	4.3010	0	34.1530	0	27.086	0	586.819	0	13.8	4	4.4	4	-1E+10	1	-1E+10	1	-1E+10	1	-1E+10	1	-1E+10	1	-1E+10	1
4902549	92	C	02/28/2023	12:08	-133.661	47.404	0	597.90	0	4.2860	0	34.1580	0	27.091	0	592.060	0	13.3	4	4.2	4	-1E+10	1	-1E+10	1	-1E+10	1	-1E+10	1	-1E+10	1	-1E+10	1
4902549	92	C	02/28/2023	12:08	-133.661	47.404	0	602.70	0	4.2670	0	34.1630	0	27.097	0	596.806	0	12.9	4	4.1	4	-1E+10	1	-1E+10	1	-1E+10	1	-1E+10	1	-1E+10	1	-1E+10	1
4902549	92	C	02/28/2023	12:08	-133.661	47.404	0	607.80	0	4.2540	0	34.1670	0	27.102	0	601.849	0	12.6	4	4.0	4	-1E+10	1	-1E+10	1	-1E+10	1	-1E+10	1	-1E+10	1	-1E+10	1
4902549	92	C	02/28/2023	12:08	-133.661	47.404	0	613.10	0	4.2420	0	34.1720	0	27.107	0	607.090	0	12.3	4	3.9	4	-1E+10	1	-1E+10	1	-1E+10	1	-1E+10	1	-1E+10	1	-1E+10	1
4902549	92	C	02/28/2023	12:08	-133.661	47.404	0	618.20	0	4.2310	0	34.1740	0	27.110	0	612.132	0	12.0	4	3.8	4	-1E+10	1	-1E+10	1	-1E+10	1	-1E+10	1	-1E+10	1	-1E+10	1
4902549	92	C	02/28/2023	12:08	-133.661	47.404	0	622.90	0	4.2210	0	34.1770	0	27.113	0	616.779	0	11.9	4	3.8	4	-1E+10	1	-1E+10	1	-1E+10	1	-1E+10	1	-1E+10	1	-1E+10	1
4902549	92	C	02/28/2023	12:08	-133.661	47.404	0	627.70	0	4.2190	0	34.1770	0	27.114	0	621.525	0	11.6	4	3.7	4	-1E+10	1	-1E+10	1	-1E+10	1	-1E+10	1	-1E+10	1	-1E+10	1
4902549	92	C	02/28/2023	12:08	-133.661	47.404	0	633.00	0	4.2030	0	34.1810	0	27.119	0	626.765	0	11.4	4	3.6	4	-1E+10	1	-1E+10	1	-1E+10	1	-1E+10	1	-1E+10	1	-1E+10	1
4902549	92	C	02/28/2023	12:08	-133.661	47.404	0	637.90	0	4.1940	0	34.1840	0	27.122	0	631.609	0	11.1	4	3.5	4	-1E+10	1	-1E+10	1	-1E+10	1	-1E+10	1	-1E+10	1	-1E+10	1
4902549	92	C	02/28/2023	12:08	-133.661	47.404	0	642.80	0	4.1880	0	34.1860	0	27.124	0	636.453	0	10.8	4	3.4	4	-1E+10	1	-1E+10	1	-1E+10	1	-1E+10	1	-1E+10	1	-1E+10	1
4902549	92	C	02/28/2023	12:08	-133.661	47.404	0	647.80	0	4.1790	0	34.1900	0	27.128	0	641.396	0	10.5	4	3.3	4	-1E+10	1	-1E+10	1	-1E+10	1	-1E+10	1	-1E+10	1	-1E+10	1
4902549	92	C	02/28/2023	12:08	-133.661	47.404	0	652.70	0	4.1640	0	34.1940	0	27.133	0	646.240	0	10.3	4	3.3	4	-1E+10	1	-1E+10	1	-1E+10	1	-1E+10	1	-1E+10	1	-1E+10	1
4902549	92	C	02/28/2023	12:08	-133.661	47.404	0	658.10	0	4.1450	0	34.1980	0	27.138	0	651.578	0	10.1	4	3.2	4	-1E+10	1	-1E+10	1	-1E+10	1	-1E+10	1	-1E+10	1	-1E+10	1
4902549	92	C	02/28/2023	12:08	-133.661	47.404	0	663.10	0	4.1300	0	34.2010	0	27.142	0	656.521	0	10.0	4	3.2	4	-1E+10	1	-1E+10	1	-1E+10	1	-1E+10	1	-1E+10	1	-1E+10	1
4902549	92	C	02/28/2023	12:08	-133.661	47.404	0	668.10	0	4.1100	0	34.2010	0	27.144	0	661.463	0	9.9	4	3.1	4	-1E+10	1	-1E+10	1	-1E+10	1	-1E+10	1	-1E+10	1	-1E+10	1
4902549	92	C	02/28/2023	12:08	-133.661	47.404	0	673.10	0	4.1060	0	34.2040	0	27.147	0	666.405	0	9.7	4	3.1	4	-1E+10	1	-1E+10	1	-1E+10	1	-1E+10	1	-1E+10	1	-1E+10	1
4902549	92	C	02/28/2023	12:08	-133.661	47.404	0	677.70	0	4.1020	0	34.2070	0	27.150	0	670.952	0	9.5	4	3.0	4	-1E+10	1	-1E+10	1	-1E+10	1	-1E+10	1	-1E+10	1	-1E+10	1
4902549	92	C	02/28/2023	12:08	-133.661	47.404	0	682.80	0	4.0940	0	34.2100	0	27.153	0	675.993	0	9.4	4	3.0	4	-1E+10	1	-1E+10	1	-1E+10	1	-1E+10	1	-1E+10	1	-1E+10	1
4902549	92	C	02/28/2023	12:08	-133.661	47.404	0	687.90	0	4.0850	0	34.2120	0	27.156	0	681.034	0	9.2	4	2.9	4	-1E+10	1	-1E+10	1	-1E+10	1	-1E+10	1	-1E+10	1	-1E+10	1
4902549	92	C	02/28/2023	12:08	-133.661	47.404	0	693.10	0	4.0770	0	34.2140	0	27.158	0	686.174	0	9.1	4	2.9	4	-1E+10	1	-1E+10	1	-1E+10	1	-1E+10	1	-1E+10	1	-1E+10	1
4902549	92	C	02/28/2023	12:08	-133.661	47.404	0	698.10	0	4.0620	0	34.2160	0	27.161	0	691.115	0	8.9	4	2.8	4	-1E+10	1	-1E+10	1	-1E+10	1	-1E+10	1	-1E+10	1	-1E+10	1
4902549	92	C	02/28/2023	12:08	-133.661	47.404	0	702.70	0	4.0580	0	34.2210	0	27.166	0	695.662	0	8.7	4	2.8	4	-1E+10	1	-1E+10	1	-1E+10	1	-1E+10	1	-1E+10	1	-1E+10	1
4902549	92	C	02/28/2023	12:08	-133.661	47.404	0	707.70	0	4.0310	0	34.2240	0	27.171	0	700.603	0	8.6	4	2.7	4	-1E+10	1	-1E+10	1	-1E+10	1	-1E+10	1	-1E+10	1	-1E+10	1
4902549	92	C	02/28/2023	12:08	-133.661	47.404	0	712.80	0	4.0090	0	34.2280	0	27.177	0	705.643	0	8.3	4	2.6	4	-1E+10	1	-1E+10	1	-1E+10	1	-1E+10	1	-1E+10	1	-1E+10	1
4902549	92	C	02/28/2023	12:08	-133.661	47.404	0	718.00	0	4.0010	0	34.2330	0	27.181	0	710.782	0	8.0	4	2.5	4	-1E+10	1	-1E+10	1	-1E+10	1	-1E+10	1	-1E+10	1	-1E+10	1
4902549	92	C	02/28/2023	12:08	-133.661	47.404	0	723.10	0	4.0030	0	34.2390	0	27.186	0	715.822	0	7.9	4	2.5	4	-1E+10	1	-1E+10	1	-1E+10	1	-1E+10	1	-1E+10	1	-1E+10	1
4902549	92	C	02/28/2023	12:08	-133.661	47.404	0	728.10	0	3.9840	0	34.2410	0	27.190	0	720.763	0	7.8	4	2.5	4	-1E+10	1	-1E+10	1	-1E+10	1	-1E+10	1	-1E+10	1	-1E+10	1
4902549	92	C	02/28/2023	12:08	-133.661	47.404	0	733.20	0	3.9630	0	34.2430	0	27.193	0	725.803	0	7.8	4	2.5	4	-1E+10	1	-1E+10	1	-1E+10	1	-1E+10	1	-1E+10	1	-1E+10	1
4902549	92	C	02/28/2023	12:08	-133.661	47.404	0	737.70	0	3.9530	0	34.2460	0	27.197	0	730.250	0	7.7	4	2.4	4	-1E+10	1	-1E+10	1	-1E+10	1	-1E+10	1	-1E+10	1	-1E+10	1
4902549	92	C	02/28/2023	12:08	-133.661	47.404	0	742.70	0	3.9450	0	34.2480	0	27.199	0	735.191	0	7.7	4	2.4	4	-1E+10	1	-1E+10	1	-1E+10	1	-1E+10	1	-1E+10	1	-1E+10	1
4902549	92	C	02/28/2023	12:08	-133.661	47.404	0	747.70	0	3.9220	0	34.2500	0	27.203	0	740.131	0	7.7	4	2.4	4	-1E+10	1	-1E+10	1	-1E+10	1	-1E+10	1	-1E+10	1	-1E+10	1
4902549	92	C	02/28/2023	12:08	-133.661	47.404	0	752.70	0	3.8960	0	34.2530	0	27.208	0	745.072	0	7.7	4	2.4	4	-1E+10	1	-1E+10	1	-1E+10	1	-1E+10	1	-1E+10	1	-1E+10	1
4902549	92	C	02/28/2023	12:08	-133.661	47.404	0	758.10	0	3.8720	0	34.2540	0	27.211	0	750.407	0	7.7	4	2.4	4	-1E+10	1	-1E+10	1	-1E+10	1	-1E+10	1	-1E+10	1	-1E+10	1
4902549	92	C	02/28/2023	12:08	-133.661	47.404	0	763.10	0	3.8510	0	34.2550	0	27.214	0	755.347	0	7.7	4	2.4	4	-1E+10	1	-1E+10	1	-1E+10	1	-1E+10	1	-1E+10	1	-1E+10	1
4902549	92	C	02/28/2023	12:08	-133.661	47.404	0	767.70	0	3.8330	0	34.2550	0	27.216	0	759.892	0	7.7	4	2.4	4	-1E+10	1	-1E+10	1	-1E+10	1	-1E+10	1	-1E+10	1	-1E+10	1
4902549	92	C	02/28/2023	12:08	-133.661	47.404	0	772.80	0	3.8160	0	34.2590	0	27.221	0	764.931	0	7.5	4	2.4	4	-1E+10	1	-1E+10	1	-1E+10	1	-1E+10	1	-1E+10	1	-1E+10	1
4902549	92	C	02/28/2023	12:08	-133.661	47.404	0	778.10	0	3.7980	0	34.2640	0	27.227	0	770.167	0	7.4	4	2.3	4	-1E+10	1	-1E+10	1	-1E+10	1	-1E+10	1	-1E+10	1	-1E+10	1
4902549	92	C	02/28/2023	12:08	-133.661	47.404	0	782.80	0	3.7870	0	34.2660	0	27.230	0	774.811	0	7.4	4	2.3	4	-1E+10	1	-1E+10	1	-1E+10	1	-1E+10	1	-1E+10	1	-1E+10	1
4902549	92	C	02/28/2023	12:08	-133.661	47.404	0	787.50	0	3.7710	0	34.2700	0	27.234	0	779.454	0	7.3	4	2.3	4	-1E+10	1	-1E+10	1	-1E+10	1	-1E+10	1	-1E+10	1	-1E+10	1
4902549	92	C	02/28/2023	12:08	-133.661	47.404	0	792.80	0	3.7590	0	34.2720	0	27.237	0	784.690	0	7.3	4	2.3	4	-1E+10	1	-1E+10	1	-1E+10	1	-1E+10	1	-1E+10	1	-1E+10	1
4902549	92	C	02/28/2023	12:08	-133.661	47.404	0	798.20	0	3.7410	0	34.2750	0	27.241	0	790.025	0	7.3	4	2.3	4	-1E+10	1	-1E+10	1	-1E+10	1	-1E+10	1	-1E+10	1	-1E+10	1
4902549	92	C	02/28/2023	12:08	-133.661	47.404	0	803.10	0	3.7230	0	34.2770	0	27.245	0	794.865	0	7.5	4	2.3	4	-1E+10	1	-1E+10	1	-1E+10	1	-1E+10	1	-1E+10	1	-1E+10	1
4902549	92	C	02/28/2023	12:08	-133.661	47.404	0	808.10	0	3.6750	0	34.2790	0	27.251	0	799.804	0	7.6	4	2.4	4	-1E+10	1	-1E+10	1	-1E+10	1	-1E+10	1	-1E+10	1	-1E+10	1
4902549	92	C	02/28/2023	12:08	-133.661	47.404	0	813.10	0	3.6490	0	34.2790	0	27.254	0	804.743	0	7.6	4	2.4	4	-1E+10	1	-1E+10	1	-1E+10	1	-1E+10	1	-1E+10	1	-1E+10	1
4902549	92	C	02/28/2023	12:08	-133.661	47.404	0	818.00	0	3.6410	0	34.2810	0	27.256	0	809.583	0	7.4	4	2.3	4	-1E+10	1	-1E+10	1	-1E+10	1	-1E+10	1	-1E+10	1	-1E+10	1
4902549	92	C	02/28/2023	12:08	-133.661	47.404	0	822.90	0	3.6230	0	34.2850	0	27.261	0	814.423	0	7.3	4	2.3	4	-1E+10	1	-1E+10	1	-1E+10	1	-1E+10	1	-1E+10	1	-1E+10	1
4902549	92	C	02/28/2023	12:08	-133.661	47.404	0	828.00	0	3.6160	0	34.2910	0	27.267	0	819.461	0	7.0	4	2.2	4	-1E+10	1	-1E+10	1	-1E+10	1	-1E+10	1	-1E+10	1	-1E+10	1
4902549	92	C	02/28/2023	12:08	-133.661	47.404	0	832.80	0	3.6220	0	34.2950	0	27.269	0	824.202	0	7.0	4	2.2	4	-1E+10	1	-1E+10	1	-1E+10	1	-1E+10	1	-1E+10	1	-1E+10	1
4902549	92	C	02/28/2023	12:08	-133.661	47.404	0	837.60	0	3.6030	0	34.2950	0	27.271	0	828.943	0	7.1	4	2.2	4	-1E+10	1	-1E+10	1	-1E+10	1	-1E+10	1	-1E+10	1	-1E+10	1
4902549	92	C	02/28/2023	12:08	-133.661	47.404	0	842.90	0	3.5850	0	34.2980	0	27.275	0	834.177	0	7.1	4	2.2	4	-1E+10	1	-1E+10	1	-1E+10	1	-1E+10	1	-1E+10	1	-1E+10	1
4902549	92	C	02/28/2023	12:08	-133.661	47.404	0	848.30	0	3.5660	0	34.2990	0	27.278	0	839.511	0	7.2	4	2.2	4	-1E+10	1	-1E+10	1	-1E+10	1	-1E+10	1	-1E+10	1	-1E+10	1
4902549	92	C	02/28/2023	12:08	-133.661	47.404	0	853.20	0	3.5540	0	34.2990	0	27.279	0	844.350	0	7.2	4	2.3	4	-1E+10	1	-1E+10	1	-1E+10	1	-1E+10	1	-1E+10	1	-1E+10	1
4902549	92	C	02/28/2023	12:08	-133.661	47.404	0	858.20	0	3.5350	0	34.3000	0	27.282	0	849.288	0	7.3	4	2.3	4	-1E+10	1	-1E+10	1	-1E+10	1	-1E+10	1	-1E+10	1	-1E+10	1
4902549	92	C	02/28/2023	12:08	-133.661	47.404	0	863.20	0	3.5060	0	34.2990	0	27.284	0	854.226	0	7.2	4	2.2	4	-1E+10	1	-1E+10	1	-1E+10	1	-1E+10	1	-1E+10	1	-1E+10	1
4902549	92	C	02/28/2023	12:08	-133.661	47.404	0	868.20	0	3.5160	0	34.3050	0	27.288	0	859.164	0	7.0	4	2.2	4	-1E+10	1	-1E+10	1	-1E+10	1	-1E+10	1	-1E+10	1	-1E+10	1
4902549	92	C	02/28/2023	12:08	-133.661	47.404	0	872.90	0	3.5070	0	34.3090	0	27.292	0	863.805	0	7.0	4	2.2	4	-1E+10	1	-1E+10	1	-1E+10	1	-1E+10	1	-1E+10	1	-1E+10	1
4902549	92	C	02/28/2023	12:08	-133.661	47.404	0	877.70	0	3.4680	0	34.3110	0	27.297	0	868.545	0	7.0	4	2.2	4	-1E+10	1	-1E+10	1	-1E+10	1	-1E+10	1	-1E+10	1	-1E+10	1
4902549	92	C	02/28/2023	12:08	-133.661	47.404	0	882.90	0	3.4600	0	34.3110	0	27.298	0	873.680	0	7.0	4	2.2	4	-1E+10	1	-1E+10	1	-1E+10	1	-1E+10	1	-1E+10	1	-1E+10	1
4902549	92	C	02/28/2023	12:08	-133.661	47.404	0	888.00	0	3.4440	0	34.3150	0	27.303	0	878.716	0	6.9	4	2.2	4	-1E+10	1	-1E+10	1	-1E+10	1	-1E+10	1	-1E+10	1	-1E+10	1
4902549	92	C	02/28/2023	12:08	-133.661	47.404	0	893.20	0	3.4270	0	34.3180	0	27.307	0	883.851	0	6.8	4	2.1	4	-1E+10	1	-1E+10	1	-1E+10	1	-1E+10	1	-1E+10	1	-1E+10	1
4902549	92	C	02/28/2023	12:08	-133.661	47.404	0	898.00	0	3.4300	0	34.3250	0	27.312	0	888.590	0	6.8	4	2.1	4	-1E+10	1	-1E+10	1	-1E+10	1	-1E+10	1	-1E+10	1	-1E+10	1
4902549	92	C	02/28/2023	12:08	-133.661	47.404	0	902.80	0	3.4160	0	34.3250	0	27.313	0	893.330	0	6.8	4	2.1	4	-1E+10	1	-1E+10	1	-1E+10	1	-1E+10	1	-1E+10	1	-1E+10	1
4902549	92	C	02/28/2023	12:08	-133.661	47.404	0	908.10	0	3.3820	0	34.3260	0	27.318	0	898.563	0	6.9	4	2.1	4	-1E+10	1	-1E+10	1	-1E+10	1	-1E+10	1	-1E+10	1	-1E+10	1
4902549	92	C	02/28/2023	12:08	-133.661	47.404	0	913.10	0	3.3670	0	34.3280	0	27.321	0	903.499	0	6.8	4	2.1	4	-1E+10	1	-1E+10	1	-1E+10	1	-1E+10	1	-1E+10	1	-1E+10	1
4902549	92	C	02/28/2023	12:08	-133.661	47.404	0	918.00	0	3.3520	0	34.3300	0	27.324	0	908.337	0	6.8	4	2.1	4	-1E+10	1	-1E+10	1	-1E+10	1	-1E+10	1	-1E+10	1	-1E+10	1
4902549	92	C	02/28/2023	12:08	-133.661	47.404	0	922.90	0	3.3500	0	34.3320	0	27.325	0	913.175	0	6.7	4	2.1	4	-1E+10	1	-1E+10	1	-1E+10	1	-1E+10	1	-1E+10	1	-1E+10	1
4902549	92	C	02/28/2023	12:08	-133.661	47.404	0	927.80	0	3.3510	0	34.3350	0	27.328	0	918.013	0	6.6	4	2.1	4	-1E+10	1	-1E+10	1	-1E+10	1	-1E+10	1	-1E+10	1	-1E+10	1
4902549	92	C	02/28/2023	12:08	-133.661	47.404	0	932.80	0	3.3540	0	34.3390	0	27.331	0	922.949	0	6.5	4	2.0	4	-1E+10	1	-1E+10	1	-1E+10	1	-1E+10	1	-1E+10	1	-1E+10	1
4902549	92	C	02/28/2023	12:08	-133.661	47.404	0	937.90	0	3.3550	0	34.3470	0	27.337	0	927.984	0	6.4	4	2.0	4	-1E+10	1	-1E+10	1	-1E+10	1	-1E+10	1	-1E+10	1	-1E+10	1
4902549	92	C	02/28/2023	12:08	-133.661	47.404	0	943.10	0	3.3480	0	34.3510	0	27.341	0	933.117	0	6.3	4	2.0	4	-1E+10	1	-1E+10	1	-1E+10	1	-1E+10	1	-1E+10	1	-1E+10	1
4902549	92	C	02/28/2023	12:08	-133.661	47.404	0	947.80	0	3.3770	0	34.3590	0	27.345	0	937.757	0	6.4	4	2.0	4	-1E+10	1	-1E+10	1	-1E+10	1	-1E+10	1	-1E+10	1	-1E+10	1
4902549	92	C	02/28/2023	12:08	-133.661	47.404	0	953.00	0	3.3560	0	34.3620	0	27.349	0	942.890	0	6.4	4	2.0	4	-1E+10	1	-1E+10	1	-1E+10	1	-1E+10	1	-1E+10	1	-1E+10	1
4902549	92	C	02/28/2023	12:08	-133.661	47.404	0	958.20	0	3.3400	0	34.3620	0	27.351	0	948.023	0	6.5	4	2.0	4	-1E+10	1	-1E+10	1	-1E+10	1	-1E+10	1	-1E+10	1	-1E+10	1
4902549	92	C	02/28/2023	12:08	-133.661	47.404	0	963.00	0	3.3260	0	34.3640	0	27.353	0	952.761	0	6.5	4	2.0	4	-1E+10	1	-1E+10	1	-1E+10	1	-1E+10	1	-1E+10	1	-1E+10	1
4902549	92	C	02/28/2023	12:08	-133.661	47.404	0	967.80	0	3.3210	0	34.3670	0	27.356	0	957.499	0	6.5	4	2.0	4	-1E+10	1	-1E+10	1	-1E+10	1	-1E+10	1	-1E+10	1	-1E+10	1
4902549	92	C	02/28/2023	12:08	-133.661	47.404	0	972.70	0	3.3180	0	34.3690	0	27.358	0	962.336	0	6.5	4	2.0	4	-1E+10	1	-1E+10	1	-1E+10	1	-1E+10	1	-1E+10	1	-1E+10	1
4902549	92	C	02/28/2023	12:08	-133.661	47.404	0	977.70	0	3.3140	0	34.3720	0	27.361	0	967.271	0	6.5	4	2.0	4	-1E+10	1	-1E+10	1	-1E+10	1	-1E+10	1	-1E+10	1	-1E+10	1
4902549	92	C	02/28/2023	12:08	-133.661	47.404	0	982.60	0	3.3030	0	34.3740	0	27.364	0	972.107	0	6.6	4	2.0	4	-1E+10	1	-1E+10	1	-1E+10	1	-1E+10	1	-1E+10	1	-1E+10	1
4902549	92	C	02/28/2023	12:08	-133.661	47.404	0	987.60	0	3.3000	0	34.3780	0	27.367	0	977.042	0	6.6	4	2.0	4	-1E+10	1	-1E+10	1	-1E+10	1	-1E+10	1	-1E+10	1	-1E+10	1
4902549	92	C	02/28/2023	12:08	-133.661	47.404	0	992.70	0	3.2910	0	34.3800	0	27.370	0	982.076	0	6.6	4	2.1	4	-1E+10	1	-1E+10	1	-1E+10	1	-1E+10	1	-1E+10	1	-1E+10	1
4902549	92	C	02/28/2023	12:08	-133.661	47.404	0	997.80	0	3.2760	0	34.3820	0	27.373	0	987.109	0	6.6	4	2.1	4	-1E+10	1	-1E+10	1	-1E+10	1	-1E+10	1	-1E+10	1	-1E+10	1
4902549	92	C	02/28/2023	12:08	-133.661	47.404	0	1005.50	0	3.2520	0	34.3830	0	27.376	0	994.709	0	6.7	4	2.1	4	-1E+10	1	-1E+10	1	-1E+10	1	-1E+10	1	-1E+10	1	-1E+10	1
4902549	92	C	02/28/2023	12:08	-133.661	47.404	0	1015.70	0	3.2360	0	34.3860	0	27.380	0	1004.775	0	6.8	4	2.1	4	-1E+10	1	-1E+10	1	-1E+10	1	-1E+10	1	-1E+10	1	-1E+10	1
4902549	92	C	02/28/2023	12:08	-133.661	47.404	0	1025.70	0	3.2170	0	34.3900	0	27.385	0	1014.643	0	6.9	4	2.2	4	-1E+10	1	-1E+10	1	-1E+10	1	-1E+10	1	-1E+10	1	-1E+10	1
4902549	92	C	02/28/2023	12:08	-133.661	47.404	0	1035.40	0	3.1950	0	34.3950	0	27.391	0	1024.215	0	7.0	4	2.2	4	-1E+10	1	-1E+10	1	-1E+10	1	-1E+10	1	-1E+10	1	-1E+10	1
4902549	92	C	02/28/2023	12:08	-133.661	47.404	0	1045.30	0	3.1850	0	34.3960	0	27.393	0	1033.983	0	7.1	4	2.2	4	-1E+10	1	-1E+10	1	-1E+10	1	-1E+10	1	-1E+10	1	-1E+10	1
4902549	92	C	02/28/2023	12:08	-133.661	47.404	0	1055.40	0	3.1640	0	34.3990	0	27.397	0	1043.949	0	7.3	4	2.3	4	-1E+10	1	-1E+10	1	-1E+10	1	-1E+10	1	-1E+10	1	-1E+10	1
4902549	92	C	02/28/2023	12:08	-133.661	47.404	0	1065.50	0	3.1500	0	34.4010	0	27.400	0	1053.914	0	7.4	4	2.3	4	-1E+10	1	-1E+10	1	-1E+10	1	-1E+10	1	-1E+10	1	-1E+10	1
4902549	92	C	02/28/2023	12:08	-133.661	47.404	0	1075.70	0	3.1210	0	34.4050	0	27.406	0	1063.977	0	7.6	4	2.3	4	-1E+10	1	-1E+10	1	-1E+10	1	-1E+10	1	-1E+10	1	-1E+10	1
4902549	92	C	02/28/2023	12:08	-133.661	47.404	0	1085.50	0	3.0950	0	34.4090	0	27.412	0	1073.645	0	7.7	4	2.4	4	-1E+10	1	-1E+10	1	-1E+10	1	-1E+10	1	-1E+10	1	-1E+10	1
4902549	92	C	02/28/2023	12:08	-133.661	47.404	0	1095.40	0	3.0820	0	34.4110	0	27.414	0	1083.412	0	7.8	4	2.4	4	-1E+10	1	-1E+10	1	-1E+10	1	-1E+10	1	-1E+10	1	-1E+10	1
4902549	92	C	02/28/2023	12:08	-133.661	47.404	0	1105.60	0	3.0730	0	34.4130	0	27.417	0	1093.473	0	7.9	4	2.5	4	-1E+10	1	-1E+10	1	-1E+10	1	-1E+10	1	-1E+10	1	-1E+10	1
4902549	92	C	02/28/2023	12:08	-133.661	47.404	0	1115.40	0	3.0590	0	34.4140	0	27.419	0	1103.140	0	8.1	4	2.5	4	-1E+10	1	-1E+10	1	-1E+10	1	-1E+10	1	-1E+10	1	-1E+10	1
4902549	92	C	02/28/2023	12:08	-133.661	47.404	0	1125.40	0	3.0430	0	34.4170	0	27.423	0	1113.004	0	8.2	4	2.5	4	-1E+10	1	-1E+10	1	-1E+10	1	-1E+10	1	-1E+10	1	-1E+10	1
4902549	92	C	02/28/2023	12:08	-133.661	47.404	0	1135.40	0	3.0270	0	34.4200	0	27.427	0	1122.867	0	8.4	4	2.6	4	-1E+10	1	-1E+10	1	-1E+10	1	-1E+10	1	-1E+10	1	-1E+10	1
4902549	92	C	02/28/2023	12:08	-133.661	47.404	0	1145.10	0	3.0120	0	34.4230	0	27.431	0	1132.434	0	8.6	4	2.6	4	-1E+10	1	-1E+10	1	-1E+10	1	-1E+10	1	-1E+10	1	-1E+10	1
4902549	92	C	02/28/2023	12:08	-133.661	47.404	0	1155.30	0	2.9990	0	34.4250	0	27.433	0	1142.493	0	8.8	4	2.7	4	-1E+10	1	-1E+10	1	-1E+10	1	-1E+10	1	-1E+10	1	-1E+10	1
4902549	92	C	02/28/2023	12:08	-133.661	47.404	0	1165.60	0	2.9820	0	34.4280	0	27.437	0	1152.651	0	9.0	4	2.8	4	-1E+10	1	-1E+10	1	-1E+10	1	-1E+10	1	-1E+10	1	-1E+10	1
4902549	92	C	02/28/2023	12:08	-133.661	47.404	0	1175.50	0	2.9660	0	34.4310	0	27.441	0	1162.413	0	9.2	4	2.8	4	-1E+10	1	-1E+10	1	-1E+10	1	-1E+10	1	-1E+10	1	-1E+10	1
4902549	92	C	02/28/2023	12:08	-133.661	47.404	0	1185.60	0	2.9480	0	34.4340	0	27.445	0	1172.373	0	9.4	4	2.9	4	-1E+10	1	-1E+10	1	-1E+10	1	-1E+10	1	-1E+10	1	-1E+10	1
4902549	92	C	02/28/2023	12:08	-133.661	47.404	0	1195.70	0	2.9190	0	34.4360	0	27.450	0	1182.332	0	9.7	4	3.0	4	-1E+10	1	-1E+10	1	-1E+10	1	-1E+10	1	-1E+10	1	-1E+10	1
4902549	92	C	02/28/2023	12:08	-133.661	47.404	0	1205.70	0	2.9040	0	34.4400	0	27.454	0	1192.192	0	10.0	4	3.1	4	-1E+10	1	-1E+10	1	-1E+10	1	-1E+10	1	-1E+10	1	-1E+10	1
4902549	92	C	02/28/2023	12:08	-133.661	47.404	0	1215.80	0	2.8890	0	34.4420	0	27.457	0	1202.150	0	10.3	4	3.2	4	-1E+10	1	-1E+10	1	-1E+10	1	-1E+10	1	-1E+10	1	-1E+10	1
4902549	92	C	02/28/2023	12:08	-133.661	47.404	0	1225.90	0	2.8630	0	34.4450	0	27.462	0	1212.107	0	10.6	4	3.3	4	-1E+10	1	-1E+10	1	-1E+10	1	-1E+10	1	-1E+10	1	-1E+10	1
4902549	92	C	02/28/2023	12:08	-133.661	47.404	0	1235.90	0	2.8400	0	34.4470	0	27.466	0	1221.966	0	11.0	4	3.4	4	-1E+10	1	-1E+10	1	-1E+10	1	-1E+10	1	-1E+10	1	-1E+10	1
4902549	92	C	02/28/2023	12:08	-133.661	47.404	0	1245.40	0	2.8220	0	34.4520	0	27.471	0	1231.331	0	11.4	4	3.5	4	-1E+10	1	-1E+10	1	-1E+10	1	-1E+10	1	-1E+10	1	-1E+10	1
4902549	92	C	02/28/2023	12:08	-133.661	47.404	0	1255.40	0	2.7980	0	34.4550	0	27.476	0	1241.188	0	11.7	4	3.6	4	-1E+10	1	-1E+10	1	-1E+10	1	-1E+10	1	-1E+10	1	-1E+10	1
4902549	92	C	02/28/2023	12:08	-133.661	47.404	0	1265.80	0	2.7820	0	34.4580	0	27.480	0	1251.440	0	12.2	4	3.7	4	-1E+10	1	-1E+10	1	-1E+10	1	-1E+10	1	-1E+10	1	-1E+10	1
4902549	92	C	02/28/2023	12:08	-133.661	47.404	0	1275.60	0	2.7610	0	34.4610	0	27.484	0	1261.099	0	12.5	4	3.8	4	-1E+10	1	-1E+10	1	-1E+10	1	-1E+10	1	-1E+10	1	-1E+10	1
4902549	92	C	02/28/2023	12:08	-133.661	47.404	0	1285.50	0	2.7370	0	34.4620	0	27.487	0	1270.857	0	12.8	4	3.9	4	-1E+10	1	-1E+10	1	-1E+10	1	-1E+10	1	-1E+10	1	-1E+10	1
4902549	92	C	02/28/2023	12:08	-133.661	47.404	0	1295.40	0	2.7260	0	34.4650	0	27.490	0	1280.614	0	13.2	4	4.0	4	-1E+10	1	-1E+10	1	-1E+10	1	-1E+10	1	-1E+10	1	-1E+10	1
4902549	92	C	02/28/2023	12:08	-133.661	47.404	0	1305.50	0	2.7150	0	34.4680	0	27.494	0	1290.568	0	13.6	4	4.2	4	-1E+10	1	-1E+10	1	-1E+10	1	-1E+10	1	-1E+10	1	-1E+10	1
4902549	92	C	02/28/2023	12:08	-133.661	47.404	0	1315.20	0	2.7040	0	34.4710	0	27.497	0	1300.127	0	14.1	4	4.3	4	-1E+10	1	-1E+10	1	-1E+10	1	-1E+10	1	-1E+10	1	-1E+10	1
4902549	92	C	02/28/2023	12:08	-133.661	47.404	0	1325.10	0	2.6840	0	34.4740	0	27.501	0	1309.883	0	14.5	4	4.5	4	-1E+10	1	-1E+10	1	-1E+10	1	-1E+10	1	-1E+10	1	-1E+10	1
4902549	92	C	02/28/2023	12:08	-133.661	47.404	0	1335.20	0	2.6650	0	34.4760	0	27.505	0	1319.835	0	14.9	4	4.6	4	-1E+10	1	-1E+10	1	-1E+10	1	-1E+10	1	-1E+10	1	-1E+10	1
4902549	92	C	02/28/2023	12:08	-133.661	47.404	0	1345.40	0	2.6420	0	34.4780	0	27.508	0	1329.885	0	15.0	4	4.6	4	-1E+10	1	-1E+10	1	-1E+10	1	-1E+10	1	-1E+10	1	-1E+10	1
4902549	92	C	02/28/2023	12:08	-133.661	47.404	0	1355.40	0	2.6080	0	34.4770	0	27.510	0	1339.738	0	15.6	4	4.8	4	-1E+10	1	-1E+10	1	-1E+10	1	-1E+10	1	-1E+10	1	-1E+10	1
4902549	92	C	02/28/2023	12:08	-133.661	47.404	0	1365.30	0	2.6200	0	34.4840	0	27.515	0	1349.492	0	16.4	4	5.0	4	-1E+10	1	-1E+10	1	-1E+10	1	-1E+10	1	-1E+10	1	-1E+10	1
4902549	92	C	02/28/2023	12:08	-133.661	47.404	0	1375.20	0	2.6010	0	34.4860	0	27.518	0	1359.246	0	16.6	4	5.1	4	-1E+10	1	-1E+10	1	-1E+10	1	-1E+10	1	-1E+10	1	-1E+10	1
4902549	92	C	02/28/2023	12:08	-133.661	47.404	0	1385.00	0	2.5690	0	34.4860	0	27.521	0	1368.900	0	16.8	4	5.1	4	-1E+10	1	-1E+10	1	-1E+10	1	-1E+10	1	-1E+10	1	-1E+10	1
4902549	92	C	02/28/2023	12:08	-133.661	47.404	0	1395.00	0	2.5590	0	34.4870	0	27.523	0	1378.751	0	17.2	4	5.2	4	-1E+10	1	-1E+10	1	-1E+10	1	-1E+10	1	-1E+10	1	-1E+10	1
4902549	92	C	02/28/2023	12:08	-133.661	47.404	0	1405.20	0	2.5440	0	34.4890	0	27.526	0	1388.799	0	17.7	4	5.4	4	-1E+10	1	-1E+10	1	-1E+10	1	-1E+10	1	-1E+10	1	-1E+10	1
4902549	92	C	02/28/2023	12:08	-133.661	47.404	0	1415.50	0	2.5310	0	34.4920	0	27.529	0	1398.945	0	18.3	4	5.6	4	-1E+10	1	-1E+10	1	-1E+10	1	-1E+10	1	-1E+10	1	-1E+10	1
4902549	92	C	02/28/2023	12:08	-133.661	47.404	0	1425.80	0	2.5140	0	34.4940	0	27.532	0	1409.090	0	18.8	4	5.7	4	-1E+10	1	-1E+10	1	-1E+10	1	-1E+10	1	-1E+10	1	-1E+10	1
4902549	92	C	02/28/2023	12:08	-133.661	47.404	0	1436.00	0	2.5030	0	34.4960	0	27.535	0	1419.136	0	19.5	4	5.9	4	-1E+10	1	-1E+10	1	-1E+10	1	-1E+10	1	-1E+10	1	-1E+10	1
4902549	92	C	02/28/2023	12:08	-133.661	47.404	0	1445.40	0	2.4970	0	34.5000	0	27.539	0	1428.394	0	20.2	4	6.2	4	-1E+10	1	-1E+10	1	-1E+10	1	-1E+10	1	-1E+10	1	-1E+10	1
4902549	92	C	02/28/2023	12:08	-133.661	47.404	0	1455.10	0	2.4820	0	34.5020	0	27.542	0	1437.947	0	20.7	4	6.3	4	-1E+10	1	-1E+10	1	-1E+10	1	-1E+10	1	-1E+10	1	-1E+10	1
4902549	92	C	02/28/2023	12:08	-133.661	47.404	0	1465.20	0	2.4510	0	34.5050	0	27.547	0	1447.893	0	21.3	4	6.5	4	-1E+10	1	-1E+10	1	-1E+10	1	-1E+10	1	-1E+10	1	-1E+10	1
4902549	92	C	02/28/2023	12:08	-133.661	47.404	0	1475.30	0	2.4330	0	34.5070	0	27.550	0	1457.839	0	21.8	4	6.6	4	-1E+10	1	-1E+10	1	-1E+10	1	-1E+10	1	-1E+10	1	-1E+10	1
4902549	92	C	02/28/2023	12:08	-133.661	47.404	0	1485.50	0	2.4110	0	34.5080	0	27.552	0	1467.883	0	22.2	4	6.8	4	-1E+10	1	-1E+10	1	-1E+10	1	-1E+10	1	-1E+10	1	-1E+10	1
4902549	92	C	02/28/2023	12:08	-133.661	47.404	0	1495.40	0	2.3920	0	34.5100	0	27.556	0	1477.631	0	23.0	4	7.0	4	-1E+10	1	-1E+10	1	-1E+10	1	-1E+10	1	-1E+10	1	-1E+10	1
4902549	92	C	02/28/2023	12:08	-133.661	47.404	0	1505.30	0	2.3860	0	34.5130	0	27.559	0	1487.378	0	23.5	4	7.2	4	-1E+10	1	-1E+10	1	-1E+10	1	-1E+10	1	-1E+10	1	-1E+10	1
4902549	92	C	02/28/2023	12:08	-133.661	47.404	0	1515.20	0	2.3580	0	34.5140	0	27.562	0	1497.125	0	24.0	4	7.3	4	-1E+10	1	-1E+10	1	-1E+10	1	-1E+10	1	-1E+10	1	-1E+10	1
4902549	92	C	02/28/2023	12:08	-133.661	47.404	0	1525.30	0	2.3410	0	34.5160	0	27.565	0	1507.069	0	24.6	4	7.5	4	-1E+10	1	-1E+10	1	-1E+10	1	-1E+10	1	-1E+10	1	-1E+10	1
4902549	92	C	02/28/2023	12:08	-133.661	47.404	0	1535.60	0	2.3320	0	34.5180	0	27.567	0	1517.209	0	25.2	4	7.7	4	-1E+10	1	-1E+10	1	-1E+10	1	-1E+10	1	-1E+10	1	-1E+10	1
4902549	92	C	02/28/2023	12:08	-133.661	47.404	0	1545.50	0	2.3210	0	34.5210	0	27.570	0	1526.955	0	26.0	4	7.9	4	-1E+10	1	-1E+10	1	-1E+10	1	-1E+10	1	-1E+10	1	-1E+10	1
4902549	92	C	02/28/2023	12:08	-133.661	47.404	0	1555.50	0	2.3030	0	34.5230	0	27.574	0	1536.798	0	26.5	4	8.0	4	-1E+10	1	-1E+10	1	-1E+10	1	-1E+10	1	-1E+10	1	-1E+10	1
4902549	92	C	02/28/2023	12:08	-133.661	47.404	0	1565.40	0	2.2790	0	34.5230	0	27.576	0	1546.543	0	26.4	4	8.0	4	-1E+10	1	-1E+10	1	-1E+10	1	-1E+10	1	-1E+10	1	-1E+10	1
4902549	92	C	02/28/2023	12:08	-133.661	47.404	0	1575.40	0	2.2560	0	34.5240	0	27.578	0	1556.386	0	26.9	4	8.2	4	-1E+10	1	-1E+10	1	-1E+10	1	-1E+10	1	-1E+10	1	-1E+10	1
4902549	92	C	02/28/2023	12:08	-133.661	47.404	0	1585.50	0	2.2410	0	34.5260	0	27.581	0	1566.327	0	27.6	4	8.4	4	-1E+10	1	-1E+10	1	-1E+10	1	-1E+10	1	-1E+10	1	-1E+10	1
4902549	92	C	02/28/2023	12:08	-133.661	47.404	0	1595.60	0	2.2260	0	34.5280	0	27.584	0	1576.267	0	28.3	4	8.6	4	-1E+10	1	-1E+10	1	-1E+10	1	-1E+10	1	-1E+10	1	-1E+10	1
4902549	92	C	02/28/2023	12:08	-133.661	47.404	0	1605.40	0	2.2110	0	34.5300	0	27.587	0	1585.912	0	29.0	4	8.8	4	-1E+10	1	-1E+10	1	-1E+10	1	-1E+10	1	-1E+10	1	-1E+10	1
4902549	92	C	02/28/2023	12:08	-133.661	47.404	0	1615.40	0	2.2040	0	34.5330	0	27.590	0	1595.753	0	29.7	4	9.0	4	-1E+10	1	-1E+10	1	-1E+10	1	-1E+10	1	-1E+10	1	-1E+10	1
4902549	92	C	02/28/2023	12:08	-133.661	47.404	0	1625.60	0	2.1900	0	34.5340	0	27.592	0	1605.790	0	30.2	4	9.1	4	-1E+10	1	-1E+10	1	-1E+10	1	-1E+10	1	-1E+10	1	-1E+10	1
4902549	92	C	02/28/2023	12:08	-133.661	47.404	0	1636.00	0	2.1830	0	34.5350	0	27.593	0	1616.023	0	30.6	4	9.3	4	-1E+10	1	-1E+10	1	-1E+10	1	-1E+10	1	-1E+10	1	-1E+10	1
4902549	92	C	02/28/2023	12:08	-133.661	47.404	0	1645.40	0	2.1750	0	34.5370	0	27.596	0	1625.273	0	31.1	4	9.4	4	-1E+10	1	-1E+10	1	-1E+10	1	-1E+10	1	-1E+10	1	-1E+10	1
4902549	92	C	02/28/2023	12:08	-133.661	47.404	0	1655.20	0	2.1650	0	34.5380	0	27.597	0	1634.915	0	31.6	4	9.6	4	-1E+10	1	-1E+10	1	-1E+10	1	-1E+10	1	-1E+10	1	-1E+10	1
4902549	92	C	02/28/2023	12:08	-133.661	47.404	0	1665.30	0	2.1560	0	34.5390	0	27.599	0	1644.852	0	32.2	4	9.7	4	-1E+10	1	-1E+10	1	-1E+10	1	-1E+10	1	-1E+10	1	-1E+10	1
4902549	92	C	02/28/2023	12:08	-133.661	47.404	0	1675.50	0	2.1460	0	34.5410	0	27.601	0	1654.887	0	32.7	4	9.9	4	-1E+10	1	-1E+10	1	-1E+10	1	-1E+10	1	-1E+10	1	-1E+10	1
4902549	92	C	02/28/2023	12:08	-133.661	47.404	0	1685.50	0	2.1380	0	34.5430	0	27.604	0	1664.725	0	33.3	4	10.1	4	-1E+10	1	-1E+10	1	-1E+10	1	-1E+10	1	-1E+10	1	-1E+10	1
4902549	92	C	02/28/2023	12:08	-133.661	47.404	0	1695.20	0	2.1310	0	34.5440	0	27.605	0	1674.267	0	33.8	4	10.2	4	-1E+10	1	-1E+10	1	-1E+10	1	-1E+10	1	-1E+10	1	-1E+10	1
4902549	92	C	02/28/2023	12:08	-133.661	47.404	0	1705.00	0	2.1240	0	34.5460	0	27.607	0	1683.907	0	34.4	4	10.4	4	-1E+10	1	-1E+10	1	-1E+10	1	-1E+10	1	-1E+10	1	-1E+10	1
4902549	92	C	02/28/2023	12:08	-133.661	47.404	0	1715.10	0	2.1170	0	34.5470	0	27.609	0	1693.842	0	35.0	4	10.6	4	-1E+10	1	-1E+10	1	-1E+10	1	-1E+10	1	-1E+10	1	-1E+10	1
4902549	92	C	02/28/2023	12:08	-133.661	47.404	0	1725.50	0	2.1100	0	34.5490	0	27.611	0	1704.071	0	35.5	4	10.7	4	-1E+10	1	-1E+10	1	-1E+10	1	-1E+10	1	-1E+10	1	-1E+10	1
4902549	92	C	02/28/2023	12:08	-133.661	47.404	0	1735.80	0	2.1050	0	34.5500	0	27.612	0	1714.202	0	35.9	4	10.9	4	-1E+10	1	-1E+10	1	-1E+10	1	-1E+10	1	-1E+10	1	-1E+10	1
4902549	92	C	02/28/2023	12:08	-133.661	47.404	0	1745.80	0	2.0980	0	34.5510	0	27.613	0	1724.037	0	36.5	4	11.0	4	-1E+10	1	-1E+10	1	-1E+10	1	-1E+10	1	-1E+10	1	-1E+10	1
4902549	92	C	02/28/2023	12:08	-133.661	47.404	0	1755.40	0	2.0910	0	34.5520	0	27.615	0	1733.478	0	37.2	4	11.2	4	-1E+10	1	-1E+10	1	-1E+10	1	-1E+10	1	-1E+10	1	-1E+10	1
4902549	92	C	02/28/2023	12:08	-133.661	47.404	0	1765.40	0	2.0820	0	34.5540	0	27.617	0	1743.312	0	37.8	4	11.4	4	-1E+10	1	-1E+10	1	-1E+10	1	-1E+10	1	-1E+10	1	-1E+10	1
4902549	92	C	02/28/2023	12:08	-133.661	47.404	0	1775.40	0	2.0750	0	34.5550	0	27.619	0	1753.145	0	38.3	4	11.6	4	-1E+10	1	-1E+10	1	-1E+10	1	-1E+10	1	-1E+10	1	-1E+10	1
4902549	92	C	02/28/2023	12:08	-133.661	47.404	0	1785.50	0	2.0700	0	34.5560	0	27.620	0	1763.077	0	38.8	4	11.7	4	-1E+10	1	-1E+10	1	-1E+10	1	-1E+10	1	-1E+10	1	-1E+10	1
4902549	92	C	02/28/2023	12:08	-133.661	47.404	0	1795.50	0	2.0620	0	34.5580	0	27.622	0	1772.910	0	39.4	4	11.9	4	-1E+10	1	-1E+10	1	-1E+10	1	-1E+10	1	-1E+10	1	-1E+10	1
4902549	92	C	02/28/2023	12:08	-133.661	47.404	0	1805.40	0	2.0570	0	34.5590	0	27.623	0	1782.643	0	40.0	4	12.1	4	-1E+10	1	-1E+10	1	-1E+10	1	-1E+10	1	-1E+10	1	-1E+10	1
4902549	92	C	02/28/2023	12:08	-133.661	47.404	0	1815.40	0	2.0500	0	34.5600	0	27.625	0	1792.475	0	40.5	4	12.2	4	-1E+10	1	-1E+10	1	-1E+10	1	-1E+10	1	-1E+10	1	-1E+10	1
4902549	92	C	02/28/2023	12:08	-133.661	47.404	0	1825.40	0	2.0440	0	34.5620	0	27.627	0	1802.307	0	41.1	4	12.4	4	-1E+10	1	-1E+10	1	-1E+10	1	-1E+10	1	-1E+10	1	-1E+10	1
4902549	92	C	02/28/2023	12:08	-133.661	47.404	0	1835.60	0	2.0360	0	34.5630	0	27.628	0	1812.334	0	41.7	4	12.6	4	-1E+10	1	-1E+10	1	-1E+10	1	-1E+10	1	-1E+10	1	-1E+10	1
4902549	92	C	02/28/2023	12:08	-133.661	47.404	0	1845.40	0	2.0310	0	34.5650	0	27.630	0	1821.968	0	42.1	4	12.7	4	-1E+10	1	-1E+10	1	-1E+10	1	-1E+10	1	-1E+10	1	-1E+10	1
4902549	92	C	02/28/2023	12:08	-133.661	47.404	0	1855.50	0	2.0260	0	34.5650	0	27.631	0	1831.896	0	42.6	4	12.9	4	-1E+10	1	-1E+10	1	-1E+10	1	-1E+10	1	-1E+10	1	-1E+10	1
4902549	92	C	02/28/2023	12:08	-133.661	47.404	0	1865.50	0	2.0190	0	34.5670	0	27.633	0	1841.726	0	43.1	4	13.0	4	-1E+10	1	-1E+10	1	-1E+10	1	-1E+10	1	-1E+10	1	-1E+10	1
4902549	92	C	02/28/2023	12:08	-133.661	47.404	0	1875.10	0	2.0140	0	34.5680	0	27.634	0	1851.162	0	43.6	4	13.2	4	-1E+10	1	-1E+10	1	-1E+10	1	-1E+10	1	-1E+10	1	-1E+10	1
4902549	92	C	02/28/2023	12:08	-133.661	47.404	0	1885.30	0	2.0060	0	34.5690	0	27.636	0	1861.187	0	44.2	4	13.3	4	-1E+10	1	-1E+10	1	-1E+10	1	-1E+10	1	-1E+10	1	-1E+10	1
4902549	92	C	02/28/2023	12:08	-133.661	47.404	0	1895.50	0	2.0010	0	34.5700	0	27.637	0	1871.211	0	44.6	4	13.4	4	-1E+10	1	-1E+10	1	-1E+10	1	-1E+10	1	-1E+10	1	-1E+10	1
4902549	92	C	02/28/2023	12:08	-133.661	47.404	0	1905.40	0	1.9970	0	34.5710	0	27.638	0	1880.941	0	45.1	4	13.6	4	-1E+10	1	-1E+10	1	-1E+10	1	-1E+10	1	-1E+10	1	-1E+10	1
4902549	92	C	02/28/2023	12:08	-133.661	47.404	0	1915.40	0	1.9900	0	34.5720	0	27.640	0	1890.768	0	45.7	4	13.8	4	-1E+10	1	-1E+10	1	-1E+10	1	-1E+10	1	-1E+10	1	-1E+10	1
4902549	92	C	02/28/2023	12:08	-133.661	47.404	0	1925.50	0	1.9830	0	34.5740	0	27.642	0	1900.693	0	46.4	4	14.0	4	-1E+10	1	-1E+10	1	-1E+10	1	-1E+10	1	-1E+10	1	-1E+10	1
4902549	92	C	02/28/2023	12:08	-133.661	47.404	0	1935.30	0	1.9730	0	34.5760	0	27.644	0	1910.323	0	47.1	4	14.2	4	-1E+10	1	-1E+10	1	-1E+10	1	-1E+10	1	-1E+10	1	-1E+10	1
4902549	92	C	02/28/2023	12:08	-133.661	47.404	0	1945.20	0	1.9660	0	34.5770	0	27.646	0	1920.051	0	47.6	4	14.4	4	-1E+10	1	-1E+10	1	-1E+10	1	-1E+10	1	-1E+10	1	-1E+10	1
4902549	92	C	02/28/2023	12:08	-133.661	47.404	0	1955.80	0	1.9580	0	34.5790	0	27.648	0	1930.466	0	47.9	4	14.4	4	-1E+10	1	-1E+10	1	-1E+10	1	-1E+10	1	-1E+10	1	-1E+10	1
4902549	92	C	02/28/2023	12:08	-133.661	47.404	0	1963.70	0	1.9540	0	34.5800	0	27.649	0	1938.227	0	47.4	4	14.3	4	-1E+10	1	-1E+10	1	-1E+10	1	-1E+10	1	-1E+10	1	-1E+10	1
4902549	92	C	02/28/2023	12:08	-133.661	47.404	0																										
4902549	94	C	03/20/2023	22:09	-133.681	47.541	0	0.30	0	8.2330	0	32.3790	0	25.182	0	0.297	0	276.2	4	94.9	4	-1E+10	1	-1E+10	1	-1E+10	1	-1E+10	1	-1E+10	1	-1E+10	1
4902549	94	C	03/20/2023	22:09	-133.681	47.541	0	0.40	0	8.2350	8	32.3580	8	25.166	0	0.397	0	275.8	4	94.8	4	-1E+10	1	-1E+10	1	-1E+10	1	-1E+10	1	-1E+10	1	-1E+10	1
4902549	94	C	03/20/2023	22:09	-133.681	47.541	0	1.10	0	8.2290	8	32.2790	8	25.105	0	1.091	0	275.9	4	94.8	4	-1E+10	1	-1E+10	1	-1E+10	1	-1E+10	1	-1E+10	1	-1E+10	1
4902549	94	C	03/20/2023	22:09	-133.681	47.541	0	2.00	0	8.1550	0	32.2910	0	25.125	0	1.983	0	276.1	4	94.7	4	-1E+10	1	-1E+10	1	-1E+10	1	-1E+10	1	-1E+10	1	-1E+10	1
4902549	94	C	03/20/2023	22:09	-133.681	47.541	0	2.80	0	8.1210	0	32.3080	0	25.143	0	2.777	0	276.4	4	94.7	4	-1E+10	1	-1E+10	1	-1E+10	1	-1E+10	1	-1E+10	1	-1E+10	1
4902549	94	C	03/20/2023	22:09	-133.681	47.541	0	3.90	0	8.0640	0	32.3500	0	25.184	0	3.867	0	275.8	4	94.4	4	-1E+10	1	-1E+10	1	-1E+10	1	-1E+10	1	-1E+10	1	-1E+10	1
4902549	94	C	03/20/2023	22:09	-133.681	47.541	0	5.10	0	8.0230	0	32.3820	0	25.215	0	5.057	0	276.0	4	94.4	4	-1E+10	1	-1E+10	1	-1E+10	1	-1E+10	1	-1E+10	1	-1E+10	1
4902549	94	C	03/20/2023	22:09	-133.681	47.541	0	6.00	0	7.9900	0	32.3820	0	25.220	0	5.950	0	276.0	4	94.4	4	-1E+10	1	-1E+10	1	-1E+10	1	-1E+10	1	-1E+10	1	-1E+10	1
4902549	94	C	03/20/2023	22:09	-133.681	47.541	0	7.00	0	7.9820	0	32.3820	0	25.221	0	6.941	0	276.0	4	94.3	4	-1E+10	1	-1E+10	1	-1E+10	1	-1E+10	1	-1E+10	1	-1E+10	1
4902549	94	C	03/20/2023	22:09	-133.681	47.541	0	8.00	0	7.9760	0	32.3820	0	25.222	0	7.933	0	276.1	4	94.4	4	-1E+10	1	-1E+10	1	-1E+10	1	-1E+10	1	-1E+10	1	-1E+10	1
4902549	94	C	03/20/2023	22:09	-133.681	47.541	0	9.00	0	7.9700	0	32.3820	0	25.223	0	8.925	0	276.0	4	94.3	4	-1E+10	1	-1E+10	1	-1E+10	1	-1E+10	1	-1E+10	1	-1E+10	1
4902549	94	C	03/20/2023	22:09	-133.681	47.541	0	10.10	0	7.9670	0	32.3830	0	25.224	0	10.015	0	276.0	4	94.3	4	-1E+10	1	-1E+10	1	-1E+10	1	-1E+10	1	-1E+10	1	-1E+10	1
4902549	94	C	03/20/2023	22:09	-133.681	47.541	0	10.80	0	7.9640	0	32.3830	0	25.225	0	10.710	0	276.1	4	94.3	4	-1E+10	1	-1E+10	1	-1E+10	1	-1E+10	1	-1E+10	1	-1E+10	1
4902549	94	C	03/20/2023	22:09	-133.681	47.541	0	12.00	0	7.9590	0	32.3830	0	25.225	0	11.899	0	276.0	4	94.3	4	-1E+10	1	-1E+10	1	-1E+10	1	-1E+10	1	-1E+10	1	-1E+10	1
4902549	94	C	03/20/2023	22:09	-133.681	47.541	0	13.10	0	7.9550	0	32.3830	0	25.226	0	12.990	0	276.0	4	94.3	4	-1E+10	1	-1E+10	1	-1E+10	1	-1E+10	1	-1E+10	1	-1E+10	1
4902549	94	C	03/20/2023	22:09	-133.681	47.541	0	13.90	0	7.9510	0	32.3830	0	25.227	0	13.783	0	276.1	4	94.3	4	-1E+10	1	-1E+10	1	-1E+10	1	-1E+10	1	-1E+10	1	-1E+10	1
4902549	94	C	03/20/2023	22:09	-133.681	47.541	0	15.00	0	7.9430	0	32.3830	0	25.228	0	14.874	0	276.1	4	94.3	4	-1E+10	1	-1E+10	1	-1E+10	1	-1E+10	1	-1E+10	1	-1E+10	1
4902549	94	C	03/20/2023	22:09	-133.681	47.541	0	16.20	0	7.9390	0	32.3840	0	25.229	0	16.064	0	276.1	4	94.3	4	-1E+10	1	-1E+10	1	-1E+10	1	-1E+10	1	-1E+10	1	-1E+10	1
4902549	94	C	03/20/2023	22:09	-133.681	47.541	0	17.00	0	7.9350	0	32.3840	0	25.230	0	16.857	0	276.1	4	94.3	4	-1E+10	1	-1E+10	1	-1E+10	1	-1E+10	1	-1E+10	1	-1E+10	1
4902549	94	C	03/20/2023	22:09	-133.681	47.541	0	18.20	0	7.9300	0	32.3850	0	25.231	0	18.047	0	276.1	4	94.3	4	-1E+10	1	-1E+10	1	-1E+10	1	-1E+10	1	-1E+10	1	-1E+10	1
4902549	94	C	03/20/2023	22:09	-133.681	47.541	0	19.00	0	7.9280	0	32.3850	0	25.232	0	18.840	0	276.1	4	94.3	4	-1E+10	1	-1E+10	1	-1E+10	1	-1E+10	1	-1E+10	1	-1E+10	1
4902549	94	C	03/20/2023	22:09	-133.681	47.541	0	20.20	0	7.9240	0	32.3850	0	25.232	0	20.030	0	276.1	4	94.3	4	-1E+10	1	-1E+10	1	-1E+10	1	-1E+10	1	-1E+10	1	-1E+10	1
4902549	94	C	03/20/2023	22:09	-133.681	47.541	0	21.00	0	7.9210	0	32.3850	0	25.233	0	20.824	0	276.2	4	94.3	4	-1E+10	1	-1E+10	1	-1E+10	1	-1E+10	1	-1E+10	1	-1E+10	1
4902549	94	C	03/20/2023	22:09	-133.681	47.541	0	22.20	0	7.9190	0	32.3850	0	25.233	0	22.013	0	276.2	4	94.3	4	-1E+10	1	-1E+10	1	-1E+10	1	-1E+10	1	-1E+10	1	-1E+10	1
4902549	94	C	03/20/2023	22:09	-133.681	47.541	0	23.00	0	7.9170	0	32.3850	0	25.233	0	22.807	0	276.2	4	94.3	4	-1E+10	1	-1E+10	1	-1E+10	1	-1E+10	1	-1E+10	1	-1E+10	1
4902549	94	C	03/20/2023	22:09	-133.681	47.541	0	24.10	0	7.9130	0	32.3860	0	25.235	0	23.897	0	276.2	4	94.3	4	-1E+10	1	-1E+10	1	-1E+10	1	-1E+10	1	-1E+10	1	-1E+10	1
4902549	94	C	03/20/2023	22:09	-133.681	47.541	0	24.90	0	7.9110	0	32.3860	0	25.235	0	24.691	0	276.2	4	94.2	4	-1E+10	1	-1E+10	1	-1E+10	1	-1E+10	1	-1E+10	1	-1E+10	1
4902549	94	C	03/20/2023	22:09	-133.681	47.541	0	26.10	0	7.9080	0	32.3860	0	25.235	0	25.880	0	276.2	4	94.3	4	-1E+10	1	-1E+10	1	-1E+10	1	-1E+10	1	-1E+10	1	-1E+10	1
4902549	94	C	03/20/2023	22:09	-133.681	47.541	0	26.80	0	7.9050	0	32.3860	0	25.236	0	26.575	0	276.2	4	94.2	4	-1E+10	1	-1E+10	1	-1E+10	1	-1E+10	1	-1E+10	1	-1E+10	1
4902549	94	C	03/20/2023	22:09	-133.681	47.541	0	28.00	0	7.9020	0	32.3870	0	25.237	0	27.764	0	276.1	4	94.2	4	-1E+10	1	-1E+10	1	-1E+10	1	-1E+10	1	-1E+10	1	-1E+10	1
4902549	94	C	03/20/2023	22:09	-133.681	47.541	0	29.10	0	7.9010	0	32.3870	0	25.237	0	28.855	0	276.1	4	94.2	4	-1E+10	1	-1E+10	1	-1E+10	1	-1E+10	1	-1E+10	1	-1E+10	1
4902549	94	C	03/20/2023	22:09	-133.681	47.541	0	29.90	0	7.8980	0	32.3870	0	25.238	0	29.648	0	276.1	4	94.2	4	-1E+10	1	-1E+10	1	-1E+10	1	-1E+10	1	-1E+10	1	-1E+10	1
4902549	94	C	03/20/2023	22:09	-133.681	47.541	0	31.10	0	7.8940	0	32.3880	0	25.239	0	30.838	0	276.1	4	94.2	4	-1E+10	1	-1E+10	1	-1E+10	1	-1E+10	1	-1E+10	1	-1E+10	1
4902549	94	C	03/20/2023	22:09	-133.681	47.541	0	31.80	0	7.8870	0	32.3880	0	25.240	0	31.532	0	276.1	4	94.2	4	-1E+10	1	-1E+10	1	-1E+10	1	-1E+10	1	-1E+10	1	-1E+10	1
4902549	94	C	03/20/2023	22:09	-133.681	47.541	0	33.00	0	7.8810	0	32.3880	0	25.241	0	32.722	0	276.1	4	94.2	4	-1E+10	1	-1E+10	1	-1E+10	1	-1E+10	1	-1E+10	1	-1E+10	1
4902549	94	C	03/20/2023	22:09	-133.681	47.541	0	34.20	0	7.8770	0	32.3890	0	25.242	0	33.912	0	276.1	4	94.2	4	-1E+10	1	-1E+10	1	-1E+10	1	-1E+10	1	-1E+10	1	-1E+10	1
4902549	94	C	03/20/2023	22:09	-133.681	47.541	0	35.00	0	7.8740	0	32.3890	0	25.243	0	34.705	0	276.2	4	94.2	4	-1E+10	1	-1E+10	1	-1E+10	1	-1E+10	1	-1E+10	1	-1E+10	1
4902549	94	C	03/20/2023	22:09	-133.681	47.541	0	36.20	0	7.8700	0	32.3900	0	25.244	0	35.895	0	276.1	4	94.2	4	-1E+10	1	-1E+10	1	-1E+10	1	-1E+10	1	-1E+10	1	-1E+10	1
4902549	94	C	03/20/2023	22:09	-133.681	47.541	0	37.00	0	7.8660	0	32.3900	0	25.245	0	36.688	0	276.1	4	94.1	4	-1E+10	1	-1E+10	1	-1E+10	1	-1E+10	1	-1E+10	1	-1E+10	1
4902549	94	C	03/20/2023	22:09	-133.681	47.541	0	38.30	0	7.8650	0	32.3900	0	25.245	0	37.977	0	276.1	4	94.1	4	-1E+10	1	-1E+10	1	-1E+10	1	-1E+10	1	-1E+10	1	-1E+10	1
4902549	94	C	03/20/2023	22:09	-133.681	47.541	0	39.10	0	7.8640	0	32.3900	0	25.245	0	38.770	0	276.0	4	94.1	4	-1E+10	1	-1E+10	1	-1E+10	1	-1E+10	1	-1E+10	1	-1E+10	1
4902549	94	C	03/20/2023	22:09	-133.681	47.541	0	40.10	0	7.8620	0	32.3900	0	25.245	0	39.761	0	275.9	4	94.1	4	-1E+10	1	-1E+10	1	-1E+10	1	-1E+10	1	-1E+10	1	-1E+10	1
4902549	94	C	03/20/2023	22:09	-133.681	47.541	0	41.20	0	7.8590	0	32.3910	0	25.246	0	40.852	0	276.0	4	94.1	4	-1E+10	1	-1E+10	1	-1E+10	1	-1E+10	1	-1E+10	1	-1E+10	1
4902549	94	C	03/20/2023	22:09	-133.681	47.541	0	42.10	0	7.8580	0	32.3910	0	25.247	0	41.744	0	276.0	4	94.1	4	-1E+10	1	-1E+10	1	-1E+10	1	-1E+10	1	-1E+10	1	-1E+10	1
4902549	94	C	03/20/2023	22:09	-133.681	47.541	0	42.90	0	7.8550	0	32.3900	0	25.246	0	42.537	0	276.0	4	94.1	4	-1E+10	1	-1E+10	1	-1E+10	1	-1E+10	1	-1E+10	1	-1E+10	1
4902549	94	C	03/20/2023	22:09	-133.681	47.541	0	44.30	0	7.8540	0	32.3910	0	25.247	0	43.925	0	275.9	4	94.0	4	-1E+10	1	-1E+10	1	-1E+10	1	-1E+10	1	-1E+10	1	-1E+10	1
4902549	94	C	03/20/2023	22:09	-133.681	47.541	0	44.90	0	7.8540	0	32.3910	0	25.247	0	44.520	0	276.0	4	94.1	4	-1E+10	1	-1E+10	1	-1E+10	1	-1E+10	1	-1E+10	1	-1E+10	1
4902549	94	C	03/20/2023	22:09	-133.681	47.541	0	45.80	0	7.8530	0	32.3910	0	25.247	0	45.413	0	275.9	4	94.1	4	-1E+10	1	-1E+10	1	-1E+10	1	-1E+10	1	-1E+10	1	-1E+10	1
4902549	94	C	03/20/2023	22:09	-133.681	47.541	0	46.90	0	7.8520	0	32.3910	0	25.247	0	46.503	0	275.9	4	94.0	4	-1E+10	1	-1E+10	1	-1E+10	1	-1E+10	1	-1E+10	1	-1E+10	1
4902549	94	C	03/20/2023	22:09	-133.681	47.541	0	48.30	0	7.8490	0	32.3910	0	25.248	0	47.891	0	275.9	4	94.0	4	-1E+10	1	-1E+10	1	-1E+10	1	-1E+10	1	-1E+10	1	-1E+10	1
4902549	94	C	03/20/2023	22:09	-133.681	47.541	0	49.20	0	7.8470	0	32.3910	0	25.248	0	48.783	0	275.9	4	94.0	4	-1E+10	1	-1E+10	1	-1E+10	1	-1E+10	1	-1E+10	1	-1E+10	1
4902549	94	C	03/20/2023	22:09	-133.681	47.541	0	50.10	0	7.8480	0	32.3910	0	25.248	0	49.676	0	275.8	4	94.0	4	-1E+10	1	-1E+10	1	-1E+10	1	-1E+10	1	-1E+10	1	-1E+10	1
4902549	94	C	03/20/2023	22:09	-133.681	47.541	0	51.00	0	7.8460	0	32.3910	0	25.248	0	50.568	0	275.9	4	94.0	4	-1E+10	1	-1E+10	1	-1E+10	1	-1E+10	1	-1E+10	1	-1E+10	1
4902549	94	C	03/20/2023	22:09	-133.681	47.541	0	52.30	0	7.8470	0	32.3910	0	25.248	0	51.857	0	275.8	4	94.0	4	-1E+10	1	-1E+10	1	-1E+10	1	-1E+10	1	-1E+10	1	-1E+10	1
4902549	94	C	03/20/2023	22:09	-133.681	47.541	0	53.20	0	7.8460	0	32.3910	0	25.248	0	52.749	0	275.8	4	94.0	4	-1E+10	1	-1E+10	1	-1E+10	1	-1E+10	1	-1E+10	1	-1E+10	1
4902549	94	C	03/20/2023	22:09	-133.681	47.541	0	54.10	0	7.8450	0	32.3920	0	25.249	0	53.641	0	275.8	4	94.0	4	-1E+10	1	-1E+10	1	-1E+10	1	-1E+10	1	-1E+10	1	-1E+10	1
4902549	94	C	03/20/2023	22:09	-133.681	47.541	0	54.90	0	7.8440	0	32.3910	0	25.249	0	54.434	0	275.7	4	94.0	4	-1E+10	1	-1E+10	1	-1E+10	1	-1E+10	1	-1E+10	1	-1E+10	1
4902549	94	C	03/20/2023	22:09	-133.681	47.541	0	56.30	0	7.8400	0	32.3940	0	25.252	0	55.822	0	275.7	4	93.9	4	-1E+10	1	-1E+10	1	-1E+10	1	-1E+10	1	-1E+10	1	-1E+10	1
4902549	94	C	03/20/2023	22:09	-133.681	47.541	0	57.20	0	7.8380	0	32.3920	0	25.250	0	56.715	0	275.7	4	94.0	4	-1E+10	1	-1E+10	1	-1E+10	1	-1E+10	1	-1E+10	1	-1E+10	1
4902549	94	C	03/20/2023	22:09	-133.681	47.541	0	57.80	0	7.8380	0	32.3920	0	25.250	0	57.309	0	275.6	4	93.9	4	-1E+10	1	-1E+10	1	-1E+10	1	-1E+10	1	-1E+10	1	-1E+10	1
4902549	94	C	03/20/2023	22:09	-133.681	47.541	0	59.00	0	7.8370	0	32.3920	0	25.251	0	58.499	0	275.6	4	93.9	4	-1E+10	1	-1E+10	1	-1E+10	1	-1E+10	1	-1E+10	1	-1E+10	1
4902549	94	C	03/20/2023	22:09	-133.681	47.541	0	60.20	0	7.8370	0	32.3910	0	25.250	0	59.689	0	275.5	4	93.9	4	-1E+10	1	-1E+10	1	-1E+10	1	-1E+10	1	-1E+10	1	-1E+10	1
4902549	94	C	03/20/2023	22:09	-133.681	47.541	0	61.10	0	7.8370	0	32.3920	0	25.251	0	60.581	0	275.6	4	93.9	4	-1E+10	1	-1E+10	1	-1E+10	1	-1E+10	1	-1E+10	1	-1E+10	1
4902549	94	C	03/20/2023	22:09	-133.681	47.541	0	61.90	0	7.8370	0	32.3920	0	25.251	0	61.374	0	275.5	4	93.9	4	-1E+10	1	-1E+10	1	-1E+10	1	-1E+10	1	-1E+10	1	-1E+10	1
4902549	94	C	03/20/2023	22:09	-133.681	47.541	0	63.10	0	7.8370	0	32.3920	0	25.251	0	62.564	0	275.3	4	93.8	4	-1E+10	1	-1E+10	1	-1E+10	1	-1E+10	1	-1E+10	1	-1E+10	1
4902549	94	C	03/20/2023	22:09	-133.681	47.541	0	63.90	0	7.8370	0	32.3910	0	25.250	0	63.357	0	275.2	4	93.8	4	-1E+10	1	-1E+10	1	-1E+10	1	-1E+10	1	-1E+10	1	-1E+10	1
4902549	94	C	03/20/2023	22:09	-133.681	47.541	0	65.20	0	7.8370	0	32.3910	0	25.250	0	64.645	0	275.1	4	93.7	4	-1E+10	1	-1E+10	1	-1E+10	1	-1E+10	1	-1E+10	1	-1E+10	1
4902549	94	C	03/20/2023	22:09	-133.681	47.541	0	66.00	0	7.8370	0	32.3910	0	25.250	0	65.438	0	275.0	4	93.7	4	-1E+10	1	-1E+10	1	-1E+10	1	-1E+10	1	-1E+10	1	-1E+10	1
4902549	94	C	03/20/2023	22:09	-133.681	47.541	0	66.90	0	7.8370	0	32.3910	0	25.250	0	66.331	0	274.9	4	93.7	4	-1E+10	1	-1E+10	1	-1E+10	1	-1E+10	1	-1E+10	1	-1E+10	1
4902549	94	C	03/20/2023	22:09	-133.681	47.541	0	68.10	0	7.8340	0	32.3920	0	25.251	0	67.520	0	274.7	4	93.6	4	-1E+10	1	-1E+10	1	-1E+10	1	-1E+10	1	-1E+10	1	-1E+10	1
4902549	94	C	03/20/2023	22:09	-133.681	47.541	0	69.00	0	7.8210	0	32.3920	0	25.253	0	68.412	0	274.7	4	93.6	4	-1E+10	1	-1E+10	1	-1E+10	1	-1E+10	1	-1E+10	1	-1E+10	1
4902549	94	C	03/20/2023	22:09	-133.681	47.541	0	70.00	0	7.8190	0	32.3920	0	25.253	0	69.404	0	274.7	4	93.6	4	-1E+10	1	-1E+10	1	-1E+10	1	-1E+10	1	-1E+10	1	-1E+10	1
4902549	94	C	03/20/2023	22:09	-133.681	47.541	0	70.90	0	7.8180	0	32.3920	0	25.253	0	70.296	0	274.7	4	93.5	4	-1E+10	1	-1E+10	1	-1E+10	1	-1E+10	1	-1E+10	1	-1E+10	1
4902549	94	C	03/20/2023	22:09	-133.681	47.541	0	72.00	0	7.8160	0	32.3920	0	25.254	0	71.386	0	274.6	4	93.5	4	-1E+10	1	-1E+10	1	-1E+10	1	-1E+10	1	-1E+10	1	-1E+10	1
4902549	94	C	03/20/2023	22:09	-133.681	47.541	0	73.30	0	7.8140	0	32.3920	0	25.254	0	72.675	0	274.5	4	93.5	4	-1E+10	1	-1E+10	1	-1E+10	1	-1E+10	1	-1E+10	1	-1E+10	1
4902549	94	C	03/20/2023	22:09	-133.681	47.541	0	73.90	0	7.8080	0	32.3930	0	25.256	0	73.270	0	274.3	4	93.4	4	-1E+10	1	-1E+10	1	-1E+10	1	-1E+10	1	-1E+10	1	-1E+10	1
4902549	94	C	03/20/2023	22:09	-133.681	47.541	0	74.80	0	7.8030	0	32.3920	0	25.256	0	74.162	0	274.3	4	93.4	4	-1E+10	1	-1E+10	1	-1E+10	1	-1E+10	1	-1E+10	1	-1E+10	1
4902549	94	C	03/20/2023	22:09	-133.681	47.541	0	76.10	0	7.8000	0	32.3930	0	25.257	0	75.451	0	274.2	4	93.4	4	-1E+10	1	-1E+10	1	-1E+10	1	-1E+10	1	-1E+10	1	-1E+10	1
4902549	94	C	03/20/2023	22:09	-133.681	47.541	0	77.00	0	7.8010	0	32.3920	0	25.256	0	76.343	0	274.0	4	93.3	4	-1E+10	1	-1E+10	1	-1E+10	1	-1E+10	1	-1E+10	1	-1E+10	1
4902549	94	C	03/20/2023	22:09	-133.681	47.541	0	77.90	0	7.7990	0	32.3920	0	25.256	0	77.235	0	274.0	4	93.3	4	-1E+10	1	-1E+10	1	-1E+10	1	-1E+10	1	-1E+10	1	-1E+10	1
4902549	94	C	03/20/2023	22:09	-133.681	47.541	0	78.80	0	7.7940	0	32.3910	0	25.256	0	78.127	0	273.8	4	93.2	4	-1E+10	1	-1E+10	1	-1E+10	1	-1E+10	1	-1E+10	1	-1E+10	1
4902549	94	C	03/20/2023	22:09	-133.681	47.541	0	79.80	0	7.7860	0	32.3920	0	25.258	0	79.118	0	273.8	4	93.2	4	-1E+10	1	-1E+10	1	-1E+10	1	-1E+10	1	-1E+10	1	-1E+10	1
4902549	94	C	03/20/2023	22:09	-133.681	47.541	0	81.00	0	7.7830	0	32.3930	0	25.259	0	80.308	0	273.5	4	93.1	4	-1E+10	1	-1E+10	1	-1E+10	1	-1E+10	1	-1E+10	1	-1E+10	1
4902549	94	C	03/20/2023	22:09	-133.681	47.541	0	81.70	0	7.7780	0	32.3930	0	25.260	0	81.002	0	273.4	4	93.0	4	-1E+10	1	-1E+10	1	-1E+10	1	-1E+10	1	-1E+10	1	-1E+10	1
4902549	94	C	03/20/2023	22:09	-133.681	47.541	0	82.70	0	7.7730	0	32.3940	0	25.262	0	81.993	0	280.2	4	95.3	4	-1E+10	1	-1E+10	1	-1E+10	1	-1E+10	1	-1E+10	1	-1E+10	1
4902549	94	C	03/20/2023	22:09	-133.681	47.541	0	83.90	0	7.7740	0	32.3960	0	25.263	0	83.183	0	280.0	4	95.3	4	-1E+10	1	-1E+10	1	-1E+10	1	-1E+10	1	-1E+10	1	-1E+10	1
4902549	94	C	03/20/2023	22:09	-133.681	47.541	0	85.10	0	7.7760	0	32.3960	0	25.263	0	84.372	0	279.7	4	95.2	4	-1E+10	1	-1E+10	1	-1E+10	1	-1E+10	1	-1E+10	1	-1E+10	1
4902549	94	C	03/20/2023	22:09	-133.681	47.541	0	86.10	0	7.7760	0	32.3960	0	25.263	0	85.363	0	279.6	4	95.1	4	-1E+10	1	-1E+10	1	-1E+10	1	-1E+10	1	-1E+10	1	-1E+10	1
4902549	94	C	03/20/2023	22:09	-133.681	47.541	0	87.10	0	7.7770	0	32.3960	0	25.263	0	86.355	0	279.3	4	95.1	4	-1E+10	1	-1E+10	1	-1E+10	1	-1E+10	1	-1E+10	1	-1E+10	1
4902549	94	C	03/20/2023	22:09	-133.681	47.541	0	88.10	0	7.7780	0	32.3970	0	25.263	0	87.346	0	279.2	4	95.0	4	-1E+10	1	-1E+10	1	-1E+10	1	-1E+10	1	-1E+10	1	-1E+10	1
4902549	94	C	03/20/2023	22:09	-133.681	47.541	0	89.10	0	7.7790	0	32.3970	0	25.263	0	88.337	0	278.8	4	94.9	4	-1E+10	1	-1E+10	1	-1E+10	1	-1E+10	1	-1E+10	1	-1E+10	1
4902549	94	C	03/20/2023	22:09	-133.681	47.541	0	90.10	0	7.7800	0	32.3970	0	25.263	0	89.328	0	278.7	4	94.8	4	-1E+10	1	-1E+10	1	-1E+10	1	-1E+10	1	-1E+10	1	-1E+10	1
4902549	94	C	03/20/2023	22:09	-133.681	47.541	0	91.00	0	7.7800	0	32.3980	0	25.264	0	90.220	0	278.5	4	94.8	4	-1E+10	1	-1E+10	1	-1E+10	1	-1E+10	1	-1E+10	1	-1E+10	1
4902549	94	C	03/20/2023	22:09	-133.681	47.541	0	91.70	0	7.7770	0	32.3990	0	25.265	0	90.914	0	278.2	4	94.7	4	-1E+10	1	-1E+10	1	-1E+10	1	-1E+10	1	-1E+10	1	-1E+10	1
4902549	94	C	03/20/2023	22:09	-133.681	47.541	0	92.80	0	7.7750	0	32.3990	0	25.265	0	92.004	0	278.0	4	94.6	4	-1E+10	1	-1E+10	1	-1E+10	1	-1E+10	1	-1E+10	1	-1E+10	1
4902549	94	C	03/20/2023	22:09	-133.681	47.541	0	93.90	0	7.7730	0	32.4000	0	25.266	0	93.095	0	277.7	4	94.5	4	-1E+10	1	-1E+10	1	-1E+10	1	-1E+10	1	-1E+10	1	-1E+10	1
4902549	94	C	03/20/2023	22:09	-133.681	47.541	0	95.00	0	7.7700	0	32.4000	0	25.267	0	94.185	0	277.3	4	94.3	4	-1E+10	1	-1E+10	1	-1E+10	1	-1E+10	1	-1E+10	1	-1E+10	1
4902549	94	C	03/20/2023	22:09	-133.681	47.541	0	96.10	0	7.7630	0	32.4000	0	25.268	0	95.275	0	276.9	4	94.2	4	-1E+10	1	-1E+10	1	-1E+10	1	-1E+10	1	-1E+10	1	-1E+10	1
4902549	94	C	03/20/2023	22:09	-133.681	47.541	0	97.00	0	7.7630	0	32.4000	0	25.268	0	96.167	0	276.6	4	94.1	4	-1E+10	1	-1E+10	1	-1E+10	1	-1E+10	1	-1E+10	1	-1E+10	1
4902549	94	C	03/20/2023	22:09	-133.681	47.541	0	97.70	0	7.7600	0	32.4000	0	25.268	0	96.861	0	276.1	4	93.9	4	-1E+10	1	-1E+10	1	-1E+10	1	-1E+10	1	-1E+10	1	-1E+10	1
4902549	94	C	03/20/2023	22:09	-133.681	47.541	0	98.80	0	7.7560	0	32.4000	0	25.269	0	97.952	0	275.6	4	93.7	4	-1E+10	1	-1E+10	1	-1E+10	1	-1E+10	1	-1E+10	1	-1E+10	1
4902549	94	C	03/20/2023	22:09	-133.681	47.541	0	99.90	0	7.7540	0	32.4000	0	25.269	0	99.042	0	274.8	4	93.5	4	-1E+10	1	-1E+10	1	-1E+10	1	-1E+10	1	-1E+10	1	-1E+10	1
4902549	94	C	03/20/2023	22:09	-133.681	47.541	0	101.00	0	7.7480	0	32.4010	0	25.271	0	100.132	0	273.9	4	93.1	4	-1E+10	1	-1E+10	1	-1E+10	1	-1E+10	1	-1E+10	1	-1E+10	1
4902549	94	C	03/20/2023	22:09	-133.681	47.541	0	102.10	0	7.7440	0	32.4020	0	25.272	0	101.222	0	272.9	4	92.8	4	-1E+10	1	-1E+10	1	-1E+10	1	-1E+10	1	-1E+10	1	-1E+10	1
4902549	94	C	03/20/2023	22:09	-133.681	47.541	0	103.10	0	7.7330	0	32.4020	0	25.274	0	102.214	0	271.5	4	92.3	4	-1E+10	1	-1E+10	1	-1E+10	1	-1E+10	1	-1E+10	1	-1E+10	1
4902549	94	C	03/20/2023	22:09	-133.681	47.541	0	104.10	0	7.7260	0	32.3980	0	25.272	0	103.205	0	269.8	4	91.7	4	-1E+10	1	-1E+10	1	-1E+10	1	-1E+10	1	-1E+10	1	-1E+10	1
4902549	94	C	03/20/2023	22:09	-133.681	47.541	0	105.10	0	7.7150	0	32.4020	0	25.276	0	104.196	0	267.7	4	91.0	4	-1E+10	1	-1E+10	1	-1E+10	1	-1E+10	1	-1E+10	1	-1E+10	1
4902549	94	C	03/20/2023	22:09	-133.681	47.541	0	106.10	0	7.7020	0	32.4090	0	25.284	0	105.187	0	265.7	4	90.3	4	-1E+10	1	-1E+10	1	-1E+10	1	-1E+10	1	-1E+10	1	-1E+10	1
4902549	94	C	03/20/2023	22:09	-133.681	47.541	0	107.00	0	7.7010	0	32.4180	0	25.291	0	106.079	0	263.8	4	89.6	4	-1E+10	1	-1E+10	1	-1E+10	1	-1E+10	1	-1E+10	1	-1E+10	1
4902549	94	C	03/20/2023	22:09	-133.681	47.541	0	107.80	0	7.7200	0	32.4400	0	25.306	0	106.872	0	262.1	4	89.1	4	-1E+10	1	-1E+10	1	-1E+10	1	-1E+10	1	-1E+10	1	-1E+10	1
4902549	94	C	03/20/2023	22:09	-133.681	47.541	0	108.90	0	7.7140	0	32.4510	0	25.315	0	107.962	0	259.6	4	88.3	4	-1E+10	1	-1E+10	1	-1E+10	1	-1E+10	1	-1E+10	1	-1E+10	1
4902549	94	C	03/20/2023	22:09	-133.681	47.541	0	110.20	0	7.6780	0	32.4600	0	25.327	0	109.251	0	256.1	4	87.0	4	-1E+10	1	-1E+10	1	-1E+10	1	-1E+10	1	-1E+10	1	-1E+10	1
4902549	94	C	03/20/2023	22:09	-133.681	47.541	0	111.00	0	7.6710	0	32.4620	0	25.330	0	110.044	0	252.6	4	85.8	4	-1E+10	1	-1E+10	1	-1E+10	1	-1E+10	1	-1E+10	1	-1E+10	1
4902549	94	C	03/20/2023	22:09	-133.681	47.541	0	112.10	0	7.6420	0	32.4890	0	25.355	0	111.134	0	243.6	4	82.7	4	-1E+10	1	-1E+10	1	-1E+10	1	-1E+10	1	-1E+10	1	-1E+10	1
4902549	94	C	03/20/2023	22:09	-133.681	47.541	0	113.10	0	7.5850	0	32.5750	0	25.431	0	112.125	0	234.6	4	79.6	4	-1E+10	1	-1E+10	1	-1E+10	1	-1E+10	1	-1E+10	1	-1E+10	1
4902549	94	C	03/20/2023	22:09	-133.681	47.541	0	114.10	0	7.5080	0	32.6770	0	25.522	0	113.116	0	229.7	4	77.8	4	-1E+10	1	-1E+10	1	-1E+10	1	-1E+10	1	-1E+10	1	-1E+10	1
4902549	94	C	03/20/2023	22:09	-133.681	47.541	0	115.10	0	7.4130	0	32.7410	0	25.585	0	114.107	0	225.9	4	76.4	4	-1E+10	1	-1E+10	1	-1E+10	1	-1E+10	1	-1E+10	1	-1E+10	1
4902549	94	C	03/20/2023	22:09	-133.681	47.541	0	116.20	0	7.3800	0	32.8160	0	25.649	0	115.197	0	223.4	4	75.6	4	-1E+10	1	-1E+10	1	-1E+10	1	-1E+10	1	-1E+10	1	-1E+10	1
4902549	94	C	03/20/2023	22:09	-133.681	47.541	0	116.90	0	7.3620	0	32.8470	0	25.675	0	115.891	0	221.8	4	75.0	4	-1E+10	1	-1E+10	1	-1E+10	1	-1E+10	1	-1E+10	1	-1E+10	1
4902549	94	C	03/20/2023	22:09	-133.681	47.541	0	118.00	0	7.3400	0	32.8790	0	25.704	0	116.981	0	219.7	4	74.3	4	-1E+10	1	-1E+10	1	-1E+10	1	-1E+10	1	-1E+10	1	-1E+10	1
4902549	94	C	03/20/2023	22:09	-133.681	47.541	0	119.00	0	7.3000	0	32.9170	0	25.739	0	117.972	0	218.2	4	73.7	4	-1E+10	1	-1E+10	1	-1E+10	1	-1E+10	1	-1E+10	1	-1E+10	1
4902549	94	C	03/20/2023	22:09	-133.681	47.541	0	120.10	0	7.2780	0	32.9360	0	25.757	0	119.063	0	217.4	4	73.4	4	-1E+10	1	-1E+10	1	-1E+10	1	-1E+10	1	-1E+10	1	-1E+10	1
4902549	94	C	03/20/2023	22:09	-133.681	47.541	0	121.00	0	7.2390	0	32.9590	0	25.781	0	119.955	0	216.7	4	73.1	4	-1E+10	1	-1E+10	1	-1E+10	1	-1E+10	1	-1E+10	1	-1E+10	1
4902549	94	C	03/20/2023	22:09	-133.681	47.541	0	122.00	0	7.1930	0	32.9720	0	25.797	0	120.946	0	215.7	4	72.7	4	-1E+10	1	-1E+10	1	-1E+10	1	-1E+10	1	-1E+10	1	-1E+10	1
4902549	94	C	03/20/2023	22:09	-133.681	47.541	0	122.90	0	7.1620	0	32.9870	0	25.813	0	121.838	0	214.5	4	72.3	4	-1E+10	1	-1E+10	1	-1E+10	1	-1E+10	1	-1E+10	1	-1E+10	1
4902549	94	C	03/20/2023	22:09	-133.681	47.541	0	123.90	0	7.1460	0	33.0060	0	25.830	0	122.829	0	213.2	4	71.8	4	-1E+10	1	-1E+10	1	-1E+10	1	-1E+10	1	-1E+10	1	-1E+10	1
4902549	94	C	03/20/2023	22:09	-133.681	47.541	0	124.90	0	7.1420	0	33.0180	0	25.840	0	123.820	0	211.8	4	71.4	4	-1E+10	1	-1E+10	1	-1E+10	1	-1E+10	1	-1E+10	1	-1E+10	1
4902549	94	C	03/20/2023	22:09	-133.681	47.541	0	125.90	0	7.0970	0	33.0310	0	25.857	0	124.811	0	209.8	4	70.6	4	-1E+10	1	-1E+10	1	-1E+10	1	-1E+10	1	-1E+10	1	-1E+10	1
4902549	94	C	03/20/2023	22:09	-133.681	47.541	0	127.10	0	7.0300	0	33.0640	0	25.892	0	126.000	0	207.1	4	69.6	4	-1E+10	1	-1E+10	1	-1E+10	1	-1E+10	1	-1E+10	1	-1E+10	1
4902549	94	C	03/20/2023	22:09	-133.681	47.541	0	127.90	0	7.0610	0	33.0950	0	25.912	0	126.793	0	205.1	4	69.0	4	-1E+10	1	-1E+10	1	-1E+10	1	-1E+10	1	-1E+10	1	-1E+10	1
4902549	94	C	03/20/2023	22:09	-133.681	47.541	0	129.30	0	7.0200	0	33.1110	0	25.930	0	128.180	0	201.4	4	67.7	4	-1E+10	1	-1E+10	1	-1E+10	1	-1E+10	1	-1E+10	1	-1E+10	1
4902549	94	C	03/20/2023	22:09	-133.681	47.541	0	130.10	0	7.0370	0	33.1410	0	25.951	0	128.973	0	199.2	4	67.0	4	-1E+10	1	-1E+10	1	-1E+10	1	-1E+10	1	-1E+10	1	-1E+10	1
4902549	94	C	03/20/2023	22:09	-133.681	47.541	0	130.90	0	7.0670	0	33.1840	0	25.981	0	129.766	0	197.4	4	66.5	4	-1E+10	1	-1E+10	1	-1E+10	1	-1E+10	1	-1E+10	1	-1E+10	1
4902549	94	C	03/20/2023	22:09	-133.681	47.541	0	131.70	0	7.1630	0	33.2320	0	26.006	0	130.559	0	195.8	4	66.1	4	-1E+10	1	-1E+10	1	-1E+10	1	-1E+10	1	-1E+10	1	-1E+10	1
4902549	94	C	03/20/2023	22:09	-133.681	47.541	0	132.80	0	7.1900	0	33.2440	0	26.012	0	131.649	0	194.3	4	65.6	4	-1E+10	1	-1E+10	1	-1E+10	1	-1E+10	1	-1E+10	1	-1E+10	1
4902549	94	C	03/20/2023	22:09	-133.681	47.541	0	133.90	0	7.1920	0	33.2520	0	26.018	0	132.739	0	192.6	4	65.1	4	-1E+10	1	-1E+10	1	-1E+10	1	-1E+10	1	-1E+10	1	-1E+10	1
4902549	94	C	03/20/2023	22:09	-133.681	47.541	0	135.00	0	7.1940	0	33.2590	0	26.023	0	133.829	0	191.1	4	64.6	4	-1E+10	1	-1E+10	1	-1E+10	1	-1E+10	1	-1E+10	1	-1E+10	1
4902549	94	C	03/20/2023	22:09	-133.681	47.541	0	136.10	0	7.1910	0	33.2890	0	26.047	0	134.919	0	189.8	4	64.1	4	-1E+10	1	-1E+10	1	-1E+10	1	-1E+10	1	-1E+10	1	-1E+10	1
4902549	94	C	03/20/2023	22:09	-133.681	47.541	0	137.00	0	7.1910	0	33.2970	0	26.053	0	135.811	0	188.9	4	63.8	4	-1E+10	1	-1E+10	1	-1E+10	1	-1E+10	1	-1E+10	1	-1E+10	1
4902549	94	C	03/20/2023	22:09	-133.681	47.541	0	137.90	0	7.1880	0	33.3050	0	26.060	0	136.703	0	188.1	4	63.6	4	-1E+10	1	-1E+10	1	-1E+10	1	-1E+10	1	-1E+10	1	-1E+10	1
4902549	94	C	03/20/2023	22:09	-133.681	47.541	0	139.10	0	7.1700	0	33.3280	0	26.081	0	137.892	0	187.0	4	63.2	4	-1E+10	1	-1E+10	1	-1E+10	1	-1E+10	1	-1E+10	1	-1E+10	1
4902549	94	C	03/20/2023	22:09	-133.681	47.541	0	140.00	0	7.1480	0	33.3490	0	26.100	0	138.784	0	186.2	4	62.9	4	-1E+10	1	-1E+10	1	-1E+10	1	-1E+10	1	-1E+10	1	-1E+10	1
4902549	94	C	03/20/2023	22:09	-133.681	47.541	0	140.90	0	7.1280	0	33.3810	0	26.128	0	139.676	0	185.4	4	62.6	4	-1E+10	1	-1E+10	1	-1E+10	1	-1E+10	1	-1E+10	1	-1E+10	1
4902549	94	C	03/20/2023	22:09	-133.681	47.541	0	142.10	0	7.1200	0	33.3950	0	26.140	0	140.865	0	184.2	4	62.2	4	-1E+10	1	-1E+10	1	-1E+10	1	-1E+10	1	-1E+10	1	-1E+10	1
4902549	94	C	03/20/2023	22:09	-133.681	47.541	0	143.00	0	7.1190	0	33.4020	0	26.146	0	141.757	0	183.3	4	61.9	4	-1E+10	1	-1E+10	1	-1E+10	1	-1E+10	1	-1E+10	1	-1E+10	1
4902549	94	C	03/20/2023	22:09	-133.681	47.541	0	143.90	0	7.1210	0	33.4120	0	26.153	0	142.649	0	182.5	4	61.6	4	-1E+10	1	-1E+10	1	-1E+10	1	-1E+10	1	-1E+10	1	-1E+10	1
4902549	94	C	03/20/2023	22:09	-133.681	47.541	0	144.90	0	7.1280	0	33.4220	0	26.160	0	143.640	0	181.6	4	61.4	4	-1E+10	1	-1E+10	1	-1E+10	1	-1E+10	1	-1E+10	1	-1E+10	1
4902549	94	C	03/20/2023	22:09	-133.681	47.541	0	145.80	0	7.1430	0	33.4330	0	26.167	0	144.532	0	180.9	4	61.2	4	-1E+10	1	-1E+10	1	-1E+10	1	-1E+10	1	-1E+10	1	-1E+10	1
4902549	94	C	03/20/2023	22:09	-133.681	47.541	0	146.80	0	7.1550	0	33.4440	0	26.174	0	145.523	0	180.4	4	61.0	4	-1E+10	1	-1E+10	1	-1E+10	1	-1E+10	1	-1E+10	1	-1E+10	1
4902549	94	C	03/20/2023	22:09	-133.681	47.541	0	147.80	0	7.1370	0	33.4590	0	26.188	0	146.513	0	180.0	4	60.9	4	-1E+10	1	-1E+10	1	-1E+10	1	-1E+10	1	-1E+10	1	-1E+10	1
4902549	94	C	03/20/2023	22:09	-133.681	47.541	0	148.80	0	7.0080	0	33.4790	0	26.222	0	147.504	0	179.5	4	60.5	4	-1E+10	1	-1E+10	1	-1E+10	1	-1E+10	1	-1E+10	1	-1E+10	1
4902549	94	C	03/20/2023	22:09	-133.681	47.541	0	149.80	0	7.0010	0	33.4820	0	26.225	0	148.495	0	177.8	4	59.9	4	-1E+10	1	-1E+10	1	-1E+10	1	-1E+10	1	-1E+10	1	-1E+10	1
4902549	94	C	03/20/2023	22:09	-133.681	47.541	0	151.10	0	7.0250	0	33.4930	0	26.230	0	149.784	0	175.4	4	59.1	4	-1E+10	1	-1E+10	1	-1E+10	1	-1E+10	1	-1E+10	1	-1E+10	1
4902549	94	C	03/20/2023	22:09	-133.681	47.541	0	152.10	0	7.0670	0	33.5160	0	26.243	0	150.774	0	173.9	4	58.7	4	-1E+10	1	-1E+10	1	-1E+10	1	-1E+10	1	-1E+10	1	-1E+10	1
4902549	94	C	03/20/2023	22:09	-133.681	47.541	0	153.00	0	7.0860	0	33.5440	0	26.262	0	151.666	0	172.9	4	58.4	4	-1E+10	1	-1E+10	1	-1E+10	1	-1E+10	1	-1E+10	1	-1E+10	1
4902549	94	C	03/20/2023	22:09	-133.681	47.541	0	154.10	0	7.0520	0	33.5530	0	26.274	0	152.756	0	172.3	4	58.2	4	-1E+10	1	-1E+10	1	-1E+10	1	-1E+10	1	-1E+10	1	-1E+10	1
4902549	94	C	03/20/2023	22:09	-133.681	47.541	0	154.80	0	7.0510	0	33.5590	0	26.279	0	153.450	0	171.5	4	57.9	4	-1E+10	1	-1E+10	1	-1E+10	1	-1E+10	1	-1E+10	1	-1E+10	1
4902549	94	C	03/20/2023	22:09	-133.681	47.541	0	155.90	0	7.0840	0	33.5830	0	26.293	0	154.540	0	170.3	4	57.5	4	-1E+10	1	-1E+10	1	-1E+10	1	-1E+10	1	-1E+10	1	-1E+10	1
4902549	94	C	03/20/2023	22:09	-133.681	47.541	0	157.00	0	7.1160	0	33.6120	0	26.312	0	155.630	0	169.7	4	57.4	4	-1E+10	1	-1E+10	1	-1E+10	1	-1E+10	1	-1E+10	1	-1E+10	1
4902549	94	C	03/20/2023	22:09	-133.681	47.541	0	157.80	0	7.0850	0	33.6160	0	26.319	0	156.423	0	169.4	4	57.2	4	-1E+10	1	-1E+10	1	-1E+10	1	-1E+10	1	-1E+10	1	-1E+10	1
4902549	94	C	03/20/2023	22:09	-133.681	47.541	0	159.00	0	7.0510	0	33.6240	0	26.330	0	157.612	0	168.8	4	57.0	4	-1E+10	1	-1E+10	1	-1E+10	1	-1E+10	1	-1E+10	1	-1E+10	1
4902549	94	C	03/20/2023	22:09	-133.681	47.541	0	160.20	0	7.0860	0	33.6420	0	26.340	0	158.801	0	168.5	4	57.0	4	-1E+10	1	-1E+10	1	-1E+10	1	-1E+10	1	-1E+10	1	-1E+10	1
4902549	94	C	03/20/2023	22:09	-133.681	47.541	0	160.90	0	7.0780	0	33.6540	0	26.350	0	159.494	0	168.5	4	57.0	4	-1E+10	1	-1E+10	1	-1E+10	1	-1E+10	1	-1E+10	1	-1E+10	1
4902549	94	C	03/20/2023	22:09	-133.681	47.541	0	161.80	0	7.0790	0	33.6540	0	26.350	0	160.386	0	168.7	4	57.0	4	-1E+10	1	-1E+10	1	-1E+10	1	-1E+10	1	-1E+10	1	-1E+10	1
4902549	94	C	03/20/2023	22:09	-133.681	47.541	0	163.00	0	7.0760	0	33.6610	0	26.356	0	161.575	0	168.7	4	57.0	4	-1E+10	1	-1E+10	1	-1E+10	1	-1E+10	1	-1E+10	1	-1E+10	1
4902549	94	C	03/20/2023	22:09	-133.681	47.541	0	164.20	0	7.0580	0	33.6770	0	26.371	0	162.764	0	169.0	4	57.1	4	-1E+10	1	-1E+10	1	-1E+10	1	-1E+10	1	-1E+10	1	-1E+10	1
4902549	94	C	03/20/2023	22:09	-133.681	47.541	0	165.10	0	7.0340	0	33.6830	0	26.379	0	163.656	0	169.0	4	57.1	4	-1E+10	1	-1E+10	1	-1E+10	1	-1E+10	1	-1E+10	1	-1E+10	1
4902549	94	C	03/20/2023	22:09	-133.681	47.541	0	165.90	0	7.0080	0	33.6870	0	26.386	0	164.449	0	168.8	4	57.0	4	-1E+10	1	-1E+10	1	-1E+10	1	-1E+10	1	-1E+10	1	-1E+10	1
4902549	94	C	03/20/2023	22:09	-133.681	47.541	0	166.80	0	7.0070	0	33.6880	0	26.387	0	165.340	0	168.5	4	56.9	4	-1E+10	1	-1E+10	1	-1E+10	1	-1E+10	1	-1E+10	1	-1E+10	1
4902549	94	C	03/20/2023	22:09	-133.681	47.541	0	167.70	0	7.0070	0	33.6880	0	26.387	0	166.232	0	168.1	4	56.8	4	-1E+10	1	-1E+10	1	-1E+10	1	-1E+10	1	-1E+10	1	-1E+10	1
4902549	94	C	03/20/2023	22:09	-133.681	47.541	0	168.90	0	7.0040	0	33.6930	0	26.391	0	167.421	0	167.6	4	56.6	4	-1E+10	1	-1E+10	1	-1E+10	1	-1E+10	1	-1E+10	1	-1E+10	1
4902549	94	C	03/20/2023	22:09	-133.681	47.541	0	170.30	0	6.9980	0	33.6960	0	26.394	0	168.808	0	167.2	4	56.4	4	-1E+10	1	-1E+10	1	-1E+10	1	-1E+10	1	-1E+10	1	-1E+10	1
4902549	94	C	03/20/2023	22:09	-133.681	47.541	0	171.10	0	6.9850	0	33.7040	0	26.402	0	169.601	0	166.9	4	56.3	4	-1E+10	1	-1E+10	1	-1E+10	1	-1E+10	1	-1E+10	1	-1E+10	1
4902549	94	C	03/20/2023	22:09	-133.681	47.541	0	172.00	0	6.9780	0	33.7040	0	26.403	0	170.493	0	166.7	4	56.2	4	-1E+10	1	-1E+10	1	-1E+10	1	-1E+10	1	-1E+10	1	-1E+10	1
4902549	94	C	03/20/2023	22:09	-133.681	47.541	0	173.00	0	6.9350	0	33.7180	0	26.420	0	171.484	0	166.4	4	56.1	4	-1E+10	1	-1E+10	1	-1E+10	1	-1E+10	1	-1E+10	1	-1E+10	1
4902549	94	C	03/20/2023	22:09	-133.681	47.541	0	173.90	0	6.8920	0	33.7310	0	26.436	0	172.375	0	166.3	4	56.0	4	-1E+10	1	-1E+10	1	-1E+10	1	-1E+10	1	-1E+10	1	-1E+10	1
4902549	94	C	03/20/2023	22:09	-133.681	47.541	0	174.90	0	6.8920	0	33.7320	0	26.437	0	173.366	0	166.1	4	55.9	4	-1E+10	1	-1E+10	1	-1E+10	1	-1E+10	1	-1E+10	1	-1E+10	1
4902549	94	C	03/20/2023	22:09	-133.681	47.541	0	175.80	0	6.8920	0	33.7320	0	26.437	0	174.258	0	165.8	4	55.8	4	-1E+10	1	-1E+10	1	-1E+10	1	-1E+10	1	-1E+10	1	-1E+10	1
4902549	94	C	03/20/2023	22:09	-133.681	47.541	0	176.70	0	6.8890	0	33.7330	0	26.438	0	175.150	0	165.5	4	55.7	4	-1E+10	1	-1E+10	1	-1E+10	1	-1E+10	1	-1E+10	1	-1E+10	1
4902549	94	C	03/20/2023	22:09	-133.681	47.541	0	177.70	0	6.8690	0	33.7380	0	26.445	0	176.140	0	165.3	4	55.7	4	-1E+10	1	-1E+10	1	-1E+10	1	-1E+10	1	-1E+10	1	-1E+10	1
4902549	94	C	03/20/2023	22:09	-133.681	47.541	0	178.70	0	6.8590	0	33.7410	0	26.449	0	177.131	0	165.2	4	55.6	4	-1E+10	1	-1E+10	1	-1E+10	1	-1E+10	1	-1E+10	1	-1E+10	1
4902549	94	C	03/20/2023	22:09	-133.681	47.541	0	179.60	0	6.8600	0	33.7420	0	26.449	0	178.023	0	165.1	4	55.6	4	-1E+10	1	-1E+10	1	-1E+10	1	-1E+10	1	-1E+10	1	-1E+10	1
4902549	94	C	03/20/2023	22:09	-133.681	47.541	0	180.60	0	6.8330	0	33.7440	0	26.454	0	179.014	0	164.9	4	55.5	4	-1E+10	1	-1E+10	1	-1E+10	1	-1E+10	1	-1E+10	1	-1E+10	1
4902549	94	C	03/20/2023	22:09	-133.681	47.541	0	181.60	0	6.8180	0	33.7440	0	26.456	0	180.005	0	164.6	4	55.3	4	-1E+10	1	-1E+10	1	-1E+10	1	-1E+10	1	-1E+10	1	-1E+10	1
4902549	94	C	03/20/2023	22:09	-133.681	47.541	0	182.60	0	6.8130	0	33.7440	0	26.457	0	180.995	0	164.2	4	55.2	4	-1E+10	1	-1E+10	1	-1E+10	1	-1E+10	1	-1E+10	1	-1E+10	1
4902549	94	C	03/20/2023	22:09	-133.681	47.541	0	183.50	0	6.8080	0	33.7450	0	26.459	0	181.887	0	163.7	4	55.0	4	-1E+10	1	-1E+10	1	-1E+10	1	-1E+10	1	-1E+10	1	-1E+10	1
4902549	94	C	03/20/2023	22:09	-133.681	47.541	0	184.90	0	6.7830	0	33.7510	0	26.467	0	183.274	0	163.1	4	54.8	4	-1E+10	1	-1E+10	1	-1E+10	1	-1E+10	1	-1E+10	1	-1E+10	1
4902549	94	C	03/20/2023	22:09	-133.681	47.541	0	186.40	0	6.7780	0	33.7530	0	26.469	0	184.760	0	162.6	4	54.6	4	-1E+10	1	-1E+10	1	-1E+10	1	-1E+10	1	-1E+10	1	-1E+10	1
4902549	94	C	03/20/2023	22:09	-133.681	47.541	0	187.40	0	6.7460	0	33.7580	0	26.477	0	185.751	0	162.3	4	54.5	4	-1E+10	1	-1E+10	1	-1E+10	1	-1E+10	1	-1E+10	1	-1E+10	1
4902549	94	C	03/20/2023	22:09	-133.681	47.541	0	188.30	0	6.7330	0	33.7590	0	26.480	0	186.643	0	162.1	4	54.4	4	-1E+10	1	-1E+10	1	-1E+10	1	-1E+10	1	-1E+10	1	-1E+10	1
4902549	94	C	03/20/2023	22:09	-133.681	47.541	0	189.30	0	6.7300	0	33.7590	0	26.480	0	187.633	0	161.9	4	54.3	4	-1E+10	1	-1E+10	1	-1E+10	1	-1E+10	1	-1E+10	1	-1E+10	1
4902549	94	C	03/20/2023	22:09	-133.681	47.541	0	190.20	0	6.7250	0	33.7600	0	26.482	0	188.525	0	161.5	4	54.2	4	-1E+10	1	-1E+10	1	-1E+10	1	-1E+10	1	-1E+10	1	-1E+10	1
4902549	94	C	03/20/2023	22:09	-133.681	47.541	0	191.20	0	6.7240	0	33.7600	0	26.482	0	189.516	0	161.1	4	54.1	4	-1E+10	1	-1E+10	1	-1E+10	1	-1E+10	1	-1E+10	1	-1E+10	1
4902549	94	C	03/20/2023	22:09	-133.681	47.541	0	192.10	0	6.7150	0	33.7610	0	26.484	0	190.407	0	160.8	4	53.9	4	-1E+10	1	-1E+10	1	-1E+10	1	-1E+10	1	-1E+10	1	-1E+10	1
4902549	94	C	03/20/2023	22:09	-133.681	47.541	0	193.10	0	6.7060	0	33.7630	0	26.486	0	191.398	0	160.4	4	53.8	4	-1E+10	1	-1E+10	1	-1E+10	1	-1E+10	1	-1E+10	1	-1E+10	1
4902549	94	C	03/20/2023	22:09	-133.681	47.541	0	194.00	0	6.6950	0	33.7610	0	26.486	0	192.290	0	160.0	4	53.7	4	-1E+10	1	-1E+10	1	-1E+10	1	-1E+10	1	-1E+10	1	-1E+10	1
4902549	94	C	03/20/2023	22:09	-133.681	47.541	0	195.00	0	6.6900	0	33.7620	0	26.488	0	193.281	0	159.4	4	53.4	4	-1E+10	1	-1E+10	1	-1E+10	1	-1E+10	1	-1E+10	1	-1E+10	1
4902549	94	C	03/20/2023	22:09	-133.681	47.541	0	195.90	0	6.6840	0	33.7630	0	26.489	0	194.172	0	158.8	4	53.2	4	-1E+10	1	-1E+10	1	-1E+10	1	-1E+10	1	-1E+10	1	-1E+10	1
4902549	94	C	03/20/2023	22:09	-133.681	47.541	0	196.80	0	6.6820	0	33.7630	0	26.490	0	195.064	0	158.1	4	53.0	4	-1E+10	1	-1E+10	1	-1E+10	1	-1E+10	1	-1E+10	1	-1E+10	1
4902549	94	C	03/20/2023	22:09	-133.681	47.541	0	197.80	0	6.6860	0	33.7650	0	26.491	0	196.055	0	157.5	4	52.8	4	-1E+10	1	-1E+10	1	-1E+10	1	-1E+10	1	-1E+10	1	-1E+10	1
4902549	94	C	03/20/2023	22:09	-133.681	47.541	0	198.70	0	6.6800	0	33.7670	0	26.493	0	196.946	0	156.8	4	52.6	4	-1E+10	1	-1E+10	1	-1E+10	1	-1E+10	1	-1E+10	1	-1E+10	1
4902549	94	C	03/20/2023	22:09	-133.681	47.541	0	199.60	0	6.6740	0	33.7680	0	26.495	0	197.838	0	156.3	4	52.4	4	-1E+10	1	-1E+10	1	-1E+10	1	-1E+10	1	-1E+10	1	-1E+10	1
4902549	94	C	03/20/2023	22:09	-133.681	47.541	0	200.90	0	6.6590	0	33.7690	0	26.498	0	199.126	0	155.5	4	52.1	4	-1E+10	1	-1E+10	1	-1E+10	1	-1E+10	1	-1E+10	1	-1E+10	1
4902549	94	C	03/20/2023	22:09	-133.681	47.541	0	202.40	0	6.6360	0	33.7690	0	26.501	0	200.612	0	154.6	4	51.8	4	-1E+10	1	-1E+10	1	-1E+10	1	-1E+10	1	-1E+10	1	-1E+10	1
4902549	94	C	03/20/2023	22:09	-133.681	47.541	0	203.30	0	6.6070	0	33.7780	0	26.512	0	201.503	0	154.0	4	51.5	4	-1E+10	1	-1E+10	1	-1E+10	1	-1E+10	1	-1E+10	1	-1E+10	1
4902549	94	C	03/20/2023	22:09	-133.681	47.541	0	204.20	0	6.5610	0	33.7700	0	26.511	0	202.395	0	153.4	4	51.3	4	-1E+10	1	-1E+10	1	-1E+10	1	-1E+10	1	-1E+10	1	-1E+10	1
4902549	94	C	03/20/2023	22:09	-133.681	47.541	0	205.10	0	6.5660	0	33.7760	0	26.515	0	203.287	0	152.5	4	51.0	4	-1E+10	1	-1E+10	1	-1E+10	1	-1E+10	1	-1E+10	1	-1E+10	1
4902549	94	C	03/20/2023	22:09	-133.681	47.541	0	206.10	0	6.5460	0	33.7760	0	26.518	0	204.277	0	152.0	4	50.8	4	-1E+10	1	-1E+10	1	-1E+10	1	-1E+10	1	-1E+10	1	-1E+10	1
4902549	94	C	03/20/2023	22:09	-133.681	47.541	0	207.00	0	6.5400	0	33.7790	0	26.521	0	205.169	0	151.5	4	50.6	4	-1E+10	1	-1E+10	1	-1E+10	1	-1E+10	1	-1E+10	1	-1E+10	1
4902549	94	C	03/20/2023	22:09	-133.681	47.541	0	207.90	0	6.4990	0	33.7780	0	26.526	0	206.060	0	151.0	4	50.4	4	-1E+10	1	-1E+10	1	-1E+10	1	-1E+10	1	-1E+10	1	-1E+10	1
4902549	94	C	03/20/2023	22:09	-133.681	47.541	0	208.80	0	6.4720	0	33.7820	0	26.532	0	206.952	0	150.4	4	50.2	4	-1E+10	1	-1E+10	1	-1E+10	1	-1E+10	1	-1E+10	1	-1E+10	1
4902549	94	C	03/20/2023	22:09	-133.681	47.541	0	209.70	0	6.4540	0	33.7820	0	26.535	0	207.844	0	149.9	4	50.0	4	-1E+10	1	-1E+10	1	-1E+10	1	-1E+10	1	-1E+10	1	-1E+10	1
4902549	94	C	03/20/2023	22:09	-133.681	47.541	0	210.70	0	6.4410	0	33.7840	0	26.538	0	208.834	0	149.3	4	49.8	4	-1E+10	1	-1E+10	1	-1E+10	1	-1E+10	1	-1E+10	1	-1E+10	1
4902549	94	C	03/20/2023	22:09	-133.681	47.541	0	211.60	0	6.4390	0	33.7820	0	26.537	0	209.726	0	148.6	4	49.6	4	-1E+10	1	-1E+10	1	-1E+10	1	-1E+10	1	-1E+10	1	-1E+10	1
4902549	94	C	03/20/2023	22:09	-133.681	47.541	0	212.90	0	6.4280	0	33.7820	0	26.538	0	211.014	0	147.4	4	49.1	4	-1E+10	1	-1E+10	1	-1E+10	1	-1E+10	1	-1E+10	1	-1E+10	1
4902549	94	C	03/20/2023	22:09	-133.681	47.541	0	214.30	0	6.4140	0	33.7830	0	26.541	0	212.400	0	146.1	4	48.7	4	-1E+10	1	-1E+10	1	-1E+10	1	-1E+10	1	-1E+10	1	-1E+10	1
4902549	94	C	03/20/2023	22:09	-133.681	47.541	0	215.20	0	6.4040	0	33.7850	0	26.544	0	213.292	0	145.1	4	48.4	4	-1E+10	1	-1E+10	1	-1E+10	1	-1E+10	1	-1E+10	1	-1E+10	1
4902549	94	C	03/20/2023	22:09	-133.681	47.541	0	216.10	0	6.3760	0	33.7930	0	26.554	0	214.184	0	144.2	4	48.0	4	-1E+10	1	-1E+10	1	-1E+10	1	-1E+10	1	-1E+10	1	-1E+10	1
4902549	94	C	03/20/2023	22:09	-133.681	47.541	0	217.00	0	6.3540	0	33.7900	0	26.554	0	215.075	0	143.6	4	47.8	4	-1E+10	1	-1E+10	1	-1E+10	1	-1E+10	1	-1E+10	1	-1E+10	1
4902549	94	C	03/20/2023	22:09	-133.681	47.541	0	217.90	0	6.3500	0	33.7890	0	26.554	0	215.967	0	142.8	4	47.5	4	-1E+10	1	-1E+10	1	-1E+10	1	-1E+10	1	-1E+10	1	-1E+10	1
4902549	94	C	03/20/2023	22:09	-133.681	47.541	0	218.80	0	6.3330	0	33.7940	0	26.560	0	216.858	0	141.9	4	47.2	4	-1E+10	1	-1E+10	1	-1E+10	1	-1E+10	1	-1E+10	1	-1E+10	1
4902549	94	C	03/20/2023	22:09	-133.681	47.541	0	219.70	0	6.3040	0	33.7930	0	26.563	0	217.750	0	141.0	4	46.9	4	-1E+10	1	-1E+10	1	-1E+10	1	-1E+10	1	-1E+10	1	-1E+10	1
4902549	94	C	03/20/2023	22:09	-133.681	47.541	0	220.60	0	6.2920	0	33.7900	0	26.562	0	218.641	0	140.1	4	46.6	4	-1E+10	1	-1E+10	1	-1E+10	1	-1E+10	1	-1E+10	1	-1E+10	1
4902549	94	C	03/20/2023	22:09	-133.681	47.541	0	221.90	0	6.2410	0	33.7940	0	26.572	0	219.929	0	138.6	4	46.0	4	-1E+10	1	-1E+10	1	-1E+10	1	-1E+10	1	-1E+10	1	-1E+10	1
4902549	94	C	03/20/2023	22:09	-133.681	47.541	0	223.30	0	6.2070	0	33.7930	0	26.575	0	221.316	0	137.3	4	45.5	4	-1E+10	1	-1E+10	1	-1E+10	1	-1E+10	1	-1E+10	1	-1E+10	1
4902549	94	C	03/20/2023	22:09	-133.681	47.541	0	224.20	0	6.1920	0	33.7960	0	26.580	0	222.207	0	136.3	4	45.2	4	-1E+10	1	-1E+10	1	-1E+10	1	-1E+10	1	-1E+10	1	-1E+10	1
4902549	94	C	03/20/2023	22:09	-133.681	47.541	0	225.10	0	6.1910	0	33.7950	0	26.579	0	223.099	0	135.4	4	44.9	4	-1E+10	1	-1E+10	1	-1E+10	1	-1E+10	1	-1E+10	1	-1E+10	1
4902549	94	C	03/20/2023	22:09	-133.681	47.541	0	226.00	0	6.2010	0	33.8080	0	26.588	0	223.990	0	134.8	4	44.7	4	-1E+10	1	-1E+10	1	-1E+10	1	-1E+10	1	-1E+10	1	-1E+10	1
4902549	94	C	03/20/2023	22:09	-133.681	47.541	0	226.90	0	6.1770	0	33.8030	0	26.587	0	224.882	0	134.4	4	44.6	4	-1E+10	1	-1E+10	1	-1E+10	1	-1E+10	1	-1E+10	1	-1E+10	1
4902549	94	C	03/20/2023	22:09	-133.681	47.541	0	227.90	0	6.1710	0	33.8000	0	26.585	0	225.872	0	133.8	4	44.3	4	-1E+10	1	-1E+10	1	-1E+10	1	-1E+10	1	-1E+10	1	-1E+10	1
4902549	94	C	03/20/2023	22:09	-133.681	47.541	0	228.80	0	6.1250	0	33.7990	0	26.591	0	226.764	0	133.1	4	44.1	4	-1E+10	1	-1E+10	1	-1E+10	1	-1E+10	1	-1E+10	1	-1E+10	1
4902549	94	C	03/20/2023	22:09	-133.681	47.541	0	229.70	0	6.1080	0	33.8000	0	26.593	0	227.655	0	132.2	4	43.8	4	-1E+10	1	-1E+10	1	-1E+10	1	-1E+10	1	-1E+10	1	-1E+10	1
4902549	94	C	03/20/2023	22:09	-133.681	47.541	0	230.60	0	6.0880	0	33.7990	0	26.595	0	228.547	0	131.2	4	43.4	4	-1E+10	1	-1E+10	1	-1E+10	1	-1E+10	1	-1E+10	1	-1E+10	1
4902549	94	C	03/20/2023	22:09	-133.681	47.541	0	231.60	0	6.0220	0	33.8020	0	26.606	0	229.537	0	130.2	4	43.0	4	-1E+10	1	-1E+10	1	-1E+10	1	-1E+10	1	-1E+10	1	-1E+10	1
4902549	94	C	03/20/2023	22:09	-133.681	47.541	0	232.90	0	5.9810	0	33.7970	0	26.607	0	230.825	0	128.9	4	42.5	4	-1E+10	1	-1E+10	1	-1E+10	1	-1E+10	1	-1E+10	1	-1E+10	1
4902549	94	C	03/20/2023	22:09	-133.681	47.541	0	234.30	0	5.9760	0	33.8000	0	26.610	0	232.212	0	127.5	4	42.1	4	-1E+10	1	-1E+10	1	-1E+10	1	-1E+10	1	-1E+10	1	-1E+10	1
4902549	94	C	03/20/2023	22:09	-133.681	47.541	0	235.30	0	5.9700	0	33.8040	0	26.614	0	233.202	0	126.4	4	41.7	4	-1E+10	1	-1E+10	1	-1E+10	1	-1E+10	1	-1E+10	1	-1E+10	1
4902549	94	C	03/20/2023	22:09	-133.681	47.541	0	236.00	0	5.9750	0	33.8060	0	26.615	0	233.896	0	125.5	4	41.4	4	-1E+10	1	-1E+10	1	-1E+10	1	-1E+10	1	-1E+10	1	-1E+10	1
4902549	94	C	03/20/2023	22:09	-133.681	47.541	0	236.70	0	5.9740	0	33.8090	0	26.617	0	234.589	0	124.7	4	41.1	4	-1E+10	1	-1E+10	1	-1E+10	1	-1E+10	1	-1E+10	1	-1E+10	1
4902549	94	C	03/20/2023	22:09	-133.681	47.541	0	237.80	0	5.9790	0	33.8110	0	26.618	0	235.679	0	123.6	4	40.8	4	-1E+10	1	-1E+10	1	-1E+10	1	-1E+10	1	-1E+10	1	-1E+10	1
4902549	94	C	03/20/2023	22:09	-133.681	47.541	0	238.90	0	5.9770	0	33.8140	0	26.621	0	236.768	0	122.5	4	40.4	4	-1E+10	1	-1E+10	1	-1E+10	1	-1E+10	1	-1E+10	1	-1E+10	1
4902549	94	C	03/20/2023	22:09	-133.681	47.541	0	240.00	0	5.9690	0	33.8160	0	26.624	0	237.858	0	121.3	4	40.0	4	-1E+10	1	-1E+10	1	-1E+10	1	-1E+10	1	-1E+10	1	-1E+10	1
4902549	94	C	03/20/2023	22:09	-133.681	47.541	0	241.10	0	5.9800	0	33.8210	0	26.626	0	238.947	0	120.4	4	39.7	4	-1E+10	1	-1E+10	1	-1E+10	1	-1E+10	1	-1E+10	1	-1E+10	1
4902549	94	C	03/20/2023	22:09	-133.681	47.541	0	241.90	0	5.9720	0	33.8220	0	26.628	0	239.740	0	119.8	4	39.5	4	-1E+10	1	-1E+10	1	-1E+10	1	-1E+10	1	-1E+10	1	-1E+10	1
4902549	94	C	03/20/2023	22:09	-133.681	47.541	0	242.90	0	5.9710	0	33.8220	0	26.628	0	240.730	0	119.0	4	39.2	4	-1E+10	1	-1E+10	1	-1E+10	1	-1E+10	1	-1E+10	1	-1E+10	1
4902549	94	C	03/20/2023	22:09	-133.681	47.541	0	244.10	0	5.9600	0	33.8260	0	26.633	0	241.919	0	118.2	4	39.0	4	-1E+10	1	-1E+10	1	-1E+10	1	-1E+10	1	-1E+10	1	-1E+10	1
4902549	94	C	03/20/2023	22:09	-133.681	47.541	0	244.80	0	5.9400	0	33.8270	0	26.636	0	242.612	0	117.8	4	38.8	4	-1E+10	1	-1E+10	1	-1E+10	1	-1E+10	1	-1E+10	1	-1E+10	1
4902549	94	C	03/20/2023	22:09	-133.681	47.541	0	246.00	0	5.9280	0	33.8270	0	26.637	0	243.801	0	117.3	4	38.7	4	-1E+10	1	-1E+10	1	-1E+10	1	-1E+10	1	-1E+10	1	-1E+10	1
4902549	94	C	03/20/2023	22:09	-133.681	47.541	0	247.10	0	5.9140	0	33.8260	0	26.638	0	244.890	0	116.7	4	38.5	4	-1E+10	1	-1E+10	1	-1E+10	1	-1E+10	1	-1E+10	1	-1E+10	1
4902549	94	C	03/20/2023	22:09	-133.681	47.541	0	247.90	0	5.8520	0	33.8270	0	26.647	0	245.683	0	116.4	4	38.3	4	-1E+10	1	-1E+10	1	-1E+10	1	-1E+10	1	-1E+10	1	-1E+10	1
4902549	94	C	03/20/2023	22:09	-133.681	47.541	0	248.70	0	5.7660	0	33.8180	0	26.650	0	246.475	0	116.2	4	38.1	4	-1E+10	1	-1E+10	1	-1E+10	1	-1E+10	1	-1E+10	1	-1E+10	1
4902549	94	C	03/20/2023	22:09	-133.681	47.541	0	249.90	0	5.7920	0	33.8240	0	26.652	0	247.664	0	115.6	4	38.0	4	-1E+10	1	-1E+10	1	-1E+10	1	-1E+10	1	-1E+10	1	-1E+10	1
4902549	94	C	03/20/2023	22:09	-133.681	47.541	0	251.10	0	5.7970	0	33.8270	0	26.654	0	248.852	0	115.1	4	37.8	4	-1E+10	1	-1E+10	1	-1E+10	1	-1E+10	1	-1E+10	1	-1E+10	1
4902549	94	C	03/20/2023	22:09	-133.681	47.541	0	251.90	0	5.7920	0	33.8260	0	26.654	0	249.644	0	114.8	4	37.7	4	-1E+10	1	-1E+10	1	-1E+10	1	-1E+10	1	-1E+10	1	-1E+10	1
4902549	94	C	03/20/2023	22:09	-133.681	47.541	0	252.70	0	5.7830	0	33.8260	0	26.655	0	250.437	0	114.6	4	37.6	4	-1E+10	1	-1E+10	1	-1E+10	1	-1E+10	1	-1E+10	1	-1E+10	1
4902549	94	C	03/20/2023	22:09	-133.681	47.541	0	254.00	0	5.7610	0	33.8240	0	26.656	0	251.724	0	114.0	4	37.4	4	-1E+10	1	-1E+10	1	-1E+10	1	-1E+10	1	-1E+10	1	-1E+10	1
4902549	94	C	03/20/2023	22:09	-133.681	47.541	0	255.20	0	5.7270	0	33.8220	0	26.658	0	252.913	0	113.5	4	37.2	4	-1E+10	1	-1E+10	1	-1E+10	1	-1E+10	1	-1E+10	1	-1E+10	1
4902549	94	C	03/20/2023	22:09	-133.681	47.541	0	256.00	0	5.7040	0	33.8180	0	26.658	0	253.705	0	113.0	4	37.1	4	-1E+10	1	-1E+10	1	-1E+10	1	-1E+10	1	-1E+10	1	-1E+10	1
4902549	94	C	03/20/2023	22:09	-133.681	47.541	0	256.80	0	5.6390	0	33.8170	0	26.665	0	254.498	0	112.6	4	36.9	4	-1E+10	1	-1E+10	1	-1E+10	1	-1E+10	1	-1E+10	1	-1E+10	1
4902549	94	C	03/20/2023	22:09	-133.681	47.541	0	257.60	0	5.5930	0	33.8150	0	26.669	0	255.290	0	112.1	4	36.7	4	-1E+10	1	-1E+10	1	-1E+10	1	-1E+10	1	-1E+10	1	-1E+10	1
4902549	94	C	03/20/2023	22:09	-133.681	47.541	0	258.90	0	5.5960	0	33.8150	0	26.669	0	256.577	0	111.2	4	36.4	4	-1E+10	1	-1E+10	1	-1E+10	1	-1E+10	1	-1E+10	1	-1E+10	1
4902549	94	C	03/20/2023	22:09	-133.681	47.541	0	260.20	0	5.5850	0	33.8220	0	26.676	0	257.865	0	110.4	4	36.1	4	-1E+10	1	-1E+10	1	-1E+10	1	-1E+10	1	-1E+10	1	-1E+10	1
4902549	94	C	03/20/2023	22:09	-133.681	47.541	0	261.00	0	5.5460	0	33.8170	0	26.676	0	258.657	0	109.9	4	35.9	4	-1E+10	1	-1E+10	1	-1E+10	1	-1E+10	1	-1E+10	1	-1E+10	1
4902549	94	C	03/20/2023	22:09	-133.681	47.541	0	261.90	0	5.5470	0	33.8230	0	26.681	0	259.549	0	109.5	4	35.8	4	-1E+10	1	-1E+10	1	-1E+10	1	-1E+10	1	-1E+10	1	-1E+10	1
4902549	94	C	03/20/2023	22:09	-133.681	47.541	0	262.70	0	5.5500	0	33.8250	0	26.682	0	260.341	0	109.2	4	35.7	4	-1E+10	1	-1E+10	1	-1E+10	1	-1E+10	1	-1E+10	1	-1E+10	1
4902549	94	C	03/20/2023	22:09	-133.681	47.541	0	263.90	0	5.5310	0	33.8250	0	26.684	0	261.529	0	108.7	4	35.5	4	-1E+10	1	-1E+10	1	-1E+10	1	-1E+10	1	-1E+10	1	-1E+10	1
4902549	94	C	03/20/2023	22:09	-133.681	47.541	0	265.20	0	5.5220	0	33.8260	0	26.686	0	262.817	0	108.2	4	35.3	4	-1E+10	1	-1E+10	1	-1E+10	1	-1E+10	1	-1E+10	1	-1E+10	1
4902549	94	C	03/20/2023	22:09	-133.681	47.541	0	266.10	0	5.5190	0	33.8250	0	26.686	0	263.708	0	107.8	4	35.2	4	-1E+10	1	-1E+10	1	-1E+10	1	-1E+10	1	-1E+10	1	-1E+10	1
4902549	94	C	03/20/2023	22:09	-133.681	47.541	0	266.90	0	5.5150	0	33.8250	0	26.686	0	264.501	0	107.4	4	35.1	4	-1E+10	1	-1E+10	1	-1E+10	1	-1E+10	1	-1E+10	1	-1E+10	1
4902549	94	C	03/20/2023	22:09	-133.681	47.541	0	267.70	0	5.5100	0	33.8250	0	26.687	0	265.293	0	106.9	4	34.9	4	-1E+10	1	-1E+10	1	-1E+10	1	-1E+10	1	-1E+10	1	-1E+10	1
4902549	94	C	03/20/2023	22:09	-133.681	47.541	0	269.00	0	5.5030	0	33.8250	0	26.688	0	266.580	0	106.1	4	34.6	4	-1E+10	1	-1E+10	1	-1E+10	1	-1E+10	1	-1E+10	1	-1E+10	1
4902549	94	C	03/20/2023	22:09	-133.681	47.541	0	270.20	0	5.4930	0	33.8260	0	26.690	0	267.769	0	105.2	4	34.3	4	-1E+10	1	-1E+10	1	-1E+10	1	-1E+10	1	-1E+10	1	-1E+10	1
4902549	94	C	03/20/2023	22:09	-133.681	47.541	0	271.10	0	5.4870	0	33.8270	0	26.691	0	268.660	0	104.6	4	34.1	4	-1E+10	1	-1E+10	1	-1E+10	1	-1E+10	1	-1E+10	1	-1E+10	1
4902549	94	C	03/20/2023	22:09	-133.681	47.541	0	271.90	0	5.4880	0	33.8280	0	26.692	0	269.452	0	104.0	4	33.9	4	-1E+10	1	-1E+10	1	-1E+10	1	-1E+10	1	-1E+10	1	-1E+10	1
4902549	94	C	03/20/2023	22:09	-133.681	47.541	0	272.80	0	5.5240	0	33.8330	0	26.692	0	270.344	0	103.5	4	33.8	4	-1E+10	1	-1E+10	1	-1E+10	1	-1E+10	1	-1E+10	1	-1E+10	1
4902549	94	C	03/20/2023	22:09	-133.681	47.541	0	273.60	0	5.5170	0	33.8420	0	26.700	0	271.136	0	103.2	4	33.7	4	-1E+10	1	-1E+10	1	-1E+10	1	-1E+10	1	-1E+10	1	-1E+10	1
4902549	94	C	03/20/2023	22:09	-133.681	47.541	0	274.90	0	5.4850	0	33.8390	0	26.701	0	272.423	0	102.9	4	33.6	4	-1E+10	1	-1E+10	1	-1E+10	1	-1E+10	1	-1E+10	1	-1E+10	1
4902549	94	C	03/20/2023	22:09	-133.681	47.541	0	276.20	0	5.4620	0	33.8350	0	26.701	0	273.711	0	102.5	4	33.4	4	-1E+10	1	-1E+10	1	-1E+10	1	-1E+10	1	-1E+10	1	-1E+10	1
4902549	94	C	03/20/2023	22:09	-133.681	47.541	0	277.00	0	5.4470	0	33.8330	0	26.701	0	274.503	0	102.1	4	33.3	4	-1E+10	1	-1E+10	1	-1E+10	1	-1E+10	1	-1E+10	1	-1E+10	1
4902549	94	C	03/20/2023	22:09	-133.681	47.541	0	277.90	0	5.3890	0	33.8300	0	26.705	0	275.394	0	101.6	4	33.1	4	-1E+10	1	-1E+10	1	-1E+10	1	-1E+10	1	-1E+10	1	-1E+10	1
4902549	94	C	03/20/2023	22:09	-133.681	47.541	0	278.70	0	5.3710	0	33.8250	0	26.703	0	276.187	0	101.1	4	32.9	4	-1E+10	1	-1E+10	1	-1E+10	1	-1E+10	1	-1E+10	1	-1E+10	1
4902549	94	C	03/20/2023	22:09	-133.681	47.541	0	279.90	0	5.3160	0	33.8280	0	26.712	0	277.375	0	100.4	4	32.6	4	-1E+10	1	-1E+10	1	-1E+10	1	-1E+10	1	-1E+10	1	-1E+10	1
4902549	94	C	03/20/2023	22:09	-133.681	47.541	0	281.30	0	5.2840	0	33.8300	0	26.718	0	278.761	0	99.8	4	32.4	4	-1E+10	1	-1E+10	1	-1E+10	1	-1E+10	1	-1E+10	1	-1E+10	1
4902549	94	C	03/20/2023	22:09	-133.681	47.541	0	282.10	0	5.2800	0	33.8300	0	26.718	0	279.554	0	99.3	4	32.2	4	-1E+10	1	-1E+10	1	-1E+10	1	-1E+10	1	-1E+10	1	-1E+10	1
4902549	94	C	03/20/2023	22:09	-133.681	47.541	0	283.00	0	5.2710	0	33.8310	0	26.720	0	280.445	0	98.8	4	32.1	4	-1E+10	1	-1E+10	1	-1E+10	1	-1E+10	1	-1E+10	1	-1E+10	1
4902549	94	C	03/20/2023	22:09	-133.681	47.541	0	283.90	0	5.2660	0	33.8320	0	26.721	0	281.336	0	98.3	4	31.9	4	-1E+10	1	-1E+10	1	-1E+10	1	-1E+10	1	-1E+10	1	-1E+10	1
4902549	94	C	03/20/2023	22:09	-133.681	47.541	0	284.70	0	5.2640	0	33.8320	0	26.722	0	282.128	0	97.8	4	31.7	4	-1E+10	1	-1E+10	1	-1E+10	1	-1E+10	1	-1E+10	1	-1E+10	1
4902549	94	C	03/20/2023	22:09	-133.681	47.541	0	286.00	0	5.2590	0	33.8320	0	26.722	0	283.416	0	96.8	4	31.4	4	-1E+10	1	-1E+10	1	-1E+10	1	-1E+10	1	-1E+10	1	-1E+10	1
4902549	94	C	03/20/2023	22:09	-133.681	47.541	0	287.30	0	5.2660	0	33.8370	0	26.725	0	284.703	0	95.8	4	31.1	4	-1E+10	1	-1E+10	1	-1E+10	1	-1E+10	1	-1E+10	1	-1E+10	1
4902549	94	C	03/20/2023	22:09	-133.681	47.541	0	288.20	0	5.2760	0	33.8390	0	26.726	0	285.594	0	95.1	4	30.9	4	-1E+10	1	-1E+10	1	-1E+10	1	-1E+10	1	-1E+10	1	-1E+10	1
4902549	94	C	03/20/2023	22:09	-133.681	47.541	0	289.10	0	5.2840	0	33.8410	0	26.726	0	286.486	0	94.4	4	30.7	4	-1E+10	1	-1E+10	1	-1E+10	1	-1E+10	1	-1E+10	1	-1E+10	1
4902549	94	C	03/20/2023	22:09	-133.681	47.541	0	289.90	0	5.2850	0	33.8490	0	26.733	0	287.278	0	93.8	4	30.5	4	-1E+10	1	-1E+10	1	-1E+10	1	-1E+10	1	-1E+10	1	-1E+10	1
4902549	94	C	03/20/2023	22:09	-133.681	47.541	0	290.80	0	5.3090	0	33.8480	0	26.729	0	288.169	0	93.2	4	30.3	4	-1E+10	1	-1E+10	1	-1E+10	1	-1E+10	1	-1E+10	1	-1E+10	1
4902549	94	C	03/20/2023	22:09	-133.681	47.541	0	291.70	0	5.3160	0	33.8510	0	26.731	0	289.060	0	92.5	4	30.1	4	-1E+10	1	-1E+10	1	-1E+10	1	-1E+10	1	-1E+10	1	-1E+10	1
4902549	94	C	03/20/2023	22:09	-133.681	47.541	0	292.90	0	5.3300	0	33.8530	0	26.731	0	290.249	0	91.5	4	29.7	4	-1E+10	1	-1E+10	1	-1E+10	1	-1E+10	1	-1E+10	1	-1E+10	1
4902549	94	C	03/20/2023	22:09	-133.681	47.541	0	294.30	0	5.3680	0	33.8660	0	26.736	0	291.635	0	90.6	4	29.5	4	-1E+10	1	-1E+10	1	-1E+10	1	-1E+10	1	-1E+10	1	-1E+10	1
4902549	94	C	03/20/2023	22:09	-133.681	47.541	0	295.20	0	5.3730	0	33.8680	0	26.737	0	292.526	0	90.3	4	29.4	4	-1E+10	1	-1E+10	1	-1E+10	1	-1E+10	1	-1E+10	1	-1E+10	1
4902549	94	C	03/20/2023	22:09	-133.681	47.541	0	296.10	0	5.3730	0	33.8680	0	26.737	0	293.417	0	90.0	4	29.3	4	-1E+10	1	-1E+10	1	-1E+10	1	-1E+10	1	-1E+10	1	-1E+10	1
4902549	94	C	03/20/2023	22:09	-133.681	47.541	0	297.00	0	5.3610	0	33.8700	0	26.740	0	294.309	0	89.7	4	29.2	4	-1E+10	1	-1E+10	1	-1E+10	1	-1E+10	1	-1E+10	1	-1E+10	1
4902549	94	C	03/20/2023	22:09	-133.681	47.541	0	297.90	0	5.3620	0	33.8700	0	26.740	0	295.200	0	89.5	4	29.1	4	-1E+10	1	-1E+10	1	-1E+10	1	-1E+10	1	-1E+10	1	-1E+10	1
4902549	94	C	03/20/2023	22:09	-133.681	47.541	0	298.70	0	5.3580	0	33.8720	0	26.742	0	295.992	0	89.4	4	29.1	4	-1E+10	1	-1E+10	1	-1E+10	1	-1E+10	1	-1E+10	1	-1E+10	1
4902549	94	C	03/20/2023	22:09	-133.681	47.541	0	299.60	0	5.3540	0	33.8720	0	26.743	0	296.883	0	89.1	4	29.0	4	-1E+10	1	-1E+10	1	-1E+10	1	-1E+10	1	-1E+10	1	-1E+10	1
4902549	94	C	03/20/2023	22:09	-133.681	47.541	0	300.90	0	5.3320	0	33.8730	0	26.746	0	298.170	0	88.8	4	28.9	4	-1E+10	1	-1E+10	1	-1E+10	1	-1E+10	1	-1E+10	1	-1E+10	1
4902549	94	C	03/20/2023	22:09	-133.681	47.541	0	302.30	0	5.3250	0	33.8730	0	26.747	0	299.557	0	88.5	4	28.8	4	-1E+10	1	-1E+10	1	-1E+10	1	-1E+10	1	-1E+10	1	-1E+10	1
4902549	94	C	03/20/2023	22:09	-133.681	47.541	0	303.20	0	5.3240	0	33.8730	0	26.747	0	300.448	0	88.4	4	28.7	4	-1E+10	1	-1E+10	1	-1E+10	1	-1E+10	1	-1E+10	1	-1E+10	1
4902549	94	C	03/20/2023	22:09	-133.681	47.541	0	304.10	0	5.3240	0	33.8730	0	26.747	0	301.339	0	88.1	4	28.7	4	-1E+10	1	-1E+10	1	-1E+10	1	-1E+10	1	-1E+10	1	-1E+10	1
4902549	94	C	03/20/2023	22:09	-133.681	47.541	0	305.00	0	5.3240	0	33.8730	0	26.747	0	302.230	0	87.9	4	28.6	4	-1E+10	1	-1E+10	1	-1E+10	1	-1E+10	1	-1E+10	1	-1E+10	1
4902549	94	C	03/20/2023	22:09	-133.681	47.541	0	305.90	0	5.3240	0	33.8730	0	26.747	0	303.121	0	87.7	4	28.5	4	-1E+10	1	-1E+10	1	-1E+10	1	-1E+10	1	-1E+10	1	-1E+10	1
4902549	94	C	03/20/2023	22:09	-133.681	47.541	0	306.80	0	5.3240	0	33.8720	0	26.746	0	304.013	0	87.4	4	28.4	4	-1E+10	1	-1E+10	1	-1E+10	1	-1E+10	1	-1E+10	1	-1E+10	1
4902549	94	C	03/20/2023	22:09	-133.681	47.541	0	307.70	0	5.3080	0	33.8750	0	26.751	0	304.904	0	87.2	4	28.3	4	-1E+10	1	-1E+10	1	-1E+10	1	-1E+10	1	-1E+10	1	-1E+10	1
4902549	94	C	03/20/2023	22:09	-133.681	47.541	0	308.60	0	5.2960	0	33.8730	0	26.751	0	305.795	0	87.0	4	28.3	4	-1E+10	1	-1E+10	1	-1E+10	1	-1E+10	1	-1E+10	1	-1E+10	1
4902549	94	C	03/20/2023	22:09	-133.681	47.541	0	309.90	0	5.2880	0	33.8740	0	26.752	0	307.082	0	86.6	4	28.1	4	-1E+10	1	-1E+10	1	-1E+10	1	-1E+10	1	-1E+10	1	-1E+10	1
4902549	94	C	03/20/2023	22:09	-133.681	47.541	0	311.30	0	5.2860	0	33.8750	0	26.753	0	308.468	0	86.2	4	28.0	4	-1E+10	1	-1E+10	1	-1E+10	1	-1E+10	1	-1E+10	1	-1E+10	1
4902549	94	C	03/20/2023	22:09	-133.681	47.541	0	312.20	0	5.2840	0	33.8750	0	26.754	0	309.360	0	86.0	4	27.9	4	-1E+10	1	-1E+10	1	-1E+10	1	-1E+10	1	-1E+10	1	-1E+10	1
4902549	94	C	03/20/2023	22:09	-133.681	47.541	0	313.10	0	5.2810	0	33.8750	0	26.754	0	310.251	0	85.8	4	27.9	4	-1E+10	1	-1E+10	1	-1E+10	1	-1E+10	1	-1E+10	1	-1E+10	1
4902549	94	C	03/20/2023	22:09	-133.681	47.541	0	314.10	0	5.2780	0	33.8750	0	26.754	0	311.241	0	85.5	4	27.8	4	-1E+10	1	-1E+10	1	-1E+10	1	-1E+10	1	-1E+10	1	-1E+10	1
4902549	94	C	03/20/2023	22:09	-133.681	47.541	0	315.00	0	5.2720	0	33.8740	0	26.754	0	312.132	0	85.3	4	27.7	4	-1E+10	1	-1E+10	1	-1E+10	1	-1E+10	1	-1E+10	1	-1E+10	1
4902549	94	C	03/20/2023	22:09	-133.681	47.541	0	315.90	0	5.2770	0	33.8810	0	26.759	0	313.023	0	85.3	4	27.7	4	-1E+10	1	-1E+10	1	-1E+10	1	-1E+10	1	-1E+10	1	-1E+10	1
4902549	94	C	03/20/2023	22:09	-133.681	47.541	0	316.90	0	5.2610	0	33.8860	0	26.765	0	314.013	0	85.3	4	27.7	4	-1E+10	1	-1E+10	1	-1E+10	1	-1E+10	1	-1E+10	1	-1E+10	1
4902549	94	C	03/20/2023	22:09	-133.681	47.541	0	317.80	0	5.2180	0	33.8850	0	26.769	0	314.904	0	85.3	4	27.7	4	-1E+10	1	-1E+10	1	-1E+10	1	-1E+10	1	-1E+10	1	-1E+10	1
4902549	94	C	03/20/2023	22:09	-133.681	47.541	0	318.70	0	5.2110	0	33.8750	0	26.762	0	315.795	0	85.3	4	27.6	4	-1E+10	1	-1E+10	1	-1E+10	1	-1E+10	1	-1E+10	1	-1E+10	1
4902549	94	C	03/20/2023	22:09	-133.681	47.541	0	319.70	0	5.1870	0	33.8740	0	26.764	0	316.786	0	85.1	4	27.6	4	-1E+10	1	-1E+10	1	-1E+10	1	-1E+10	1	-1E+10	1	-1E+10	1
4902549	94	C	03/20/2023	22:09	-133.681	47.541	0	320.60	0	5.1840	0	33.8730	0	26.764	0	317.677	0	84.9	4	27.5	4	-1E+10	1	-1E+10	1	-1E+10	1	-1E+10	1	-1E+10	1	-1E+10	1
4902549	94	C	03/20/2023	22:09	-133.681	47.541	0	321.90	0	5.1870	0	33.8730	0	26.763	0	318.964	0	84.6	4	27.4	4	-1E+10	1	-1E+10	1	-1E+10	1	-1E+10	1	-1E+10	1	-1E+10	1
4902549	94	C	03/20/2023	22:09	-133.681	47.541	0	323.40	0	5.1700	0	33.8820	0	26.772	0	320.449	0	84.2	4	27.3	4	-1E+10	1	-1E+10	1	-1E+10	1	-1E+10	1	-1E+10	1	-1E+10	1
4902549	94	C	03/20/2023	22:09	-133.681	47.541	0	324.30	0	5.1720	0	33.8680	0	26.761	0	321.340	0	83.9	4	27.2	4	-1E+10	1	-1E+10	1	-1E+10	1	-1E+10	1	-1E+10	1	-1E+10	1
4902549	94	C	03/20/2023	22:09	-133.681	47.541	0	325.30	0	5.1740	0	33.8670	0	26.760	0	322.330	0	83.6	4	27.1	4	-1E+10	1	-1E+10	1	-1E+10	1	-1E+10	1	-1E+10	1	-1E+10	1
4902549	94	C	03/20/2023	22:09	-133.681	47.541	0	326.20	0	5.1230	0	33.8660	0	26.765	0	323.221	0	83.2	4	26.9	4	-1E+10	1	-1E+10	1	-1E+10	1	-1E+10	1	-1E+10	1	-1E+10	1
4902549	94	C	03/20/2023	22:09	-133.681	47.541	0	327.20	0	5.1180	0	33.8670	0	26.767	0	324.211	0	82.7	4	26.7	4	-1E+10	1	-1E+10	1	-1E+10	1	-1E+10	1	-1E+10	1	-1E+10	1
4902549	94	C	03/20/2023	22:09	-133.681	47.541	0	328.10	0	5.0900	0	33.8700	0	26.772	0	325.102	0	82.3	4	26.6	4	-1E+10	1	-1E+10	1	-1E+10	1	-1E+10	1	-1E+10	1	-1E+10	1
4902549	94	C	03/20/2023	22:09	-133.681	47.541	0	329.10	0	5.0790	0	33.8700	0	26.773	0	326.092	0	81.9	4	26.5	4	-1E+10	1	-1E+10	1	-1E+10	1	-1E+10	1	-1E+10	1	-1E+10	1
4902549	94	C	03/20/2023	22:09	-133.681	47.541	0	330.00	0	5.0750	0	33.8710	0	26.775	0	326.983	0	81.5	4	26.3	4	-1E+10	1	-1E+10	1	-1E+10	1	-1E+10	1	-1E+10	1	-1E+10	1
4902549	94	C	03/20/2023	22:09	-133.681	47.541	0	331.00	0	5.0670	0	33.8720	0	26.776	0	327.974	0	81.1	4	26.2	4	-1E+10	1	-1E+10	1	-1E+10	1	-1E+10	1	-1E+10	1	-1E+10	1
4902549	94	C	03/20/2023	22:09	-133.681	47.541	0	331.90	0	5.0600	0	33.8710	0	26.776	0	328.865	0	80.7	4	26.1	4	-1E+10	1	-1E+10	1	-1E+10	1	-1E+10	1	-1E+10	1	-1E+10	1
4902549	94	C	03/20/2023	22:09	-133.681	47.541	0	332.90	0	5.0490	0	33.8720	0	26.778	0	329.855	0	80.2	4	25.9	4	-1E+10	1	-1E+10	1	-1E+10	1	-1E+10	1	-1E+10	1	-1E+10	1
4902549	94	C	03/20/2023	22:09	-133.681	47.541	0	333.80	0	5.0370	0	33.8730	0	26.781	0	330.746	0	79.8	4	25.8	4	-1E+10	1	-1E+10	1	-1E+10	1	-1E+10	1	-1E+10	1	-1E+10	1
4902549	94	C	03/20/2023	22:09	-133.681	47.541	0	334.70	0	5.0300	0	33.8730	0	26.781	0	331.637	0	79.3	4	25.6	4	-1E+10	1	-1E+10	1	-1E+10	1	-1E+10	1	-1E+10	1	-1E+10	1
4902549	94	C	03/20/2023	22:09	-133.681	47.541	0	335.70	0	5.0120	0	33.8780	0	26.787	0	332.627	0	78.9	4	25.5	4	-1E+10	1	-1E+10	1	-1E+10	1	-1E+10	1	-1E+10	1	-1E+10	1
4902549	94	C	03/20/2023	22:09	-133.681	47.541	0	336.60	0	5.0090	0	33.8780	0	26.788	0	333.518	0	78.6	4	25.4	4	-1E+10	1	-1E+10	1	-1E+10	1	-1E+10	1	-1E+10	1	-1E+10	1
4902549	94	C	03/20/2023	22:09	-133.681	47.541	0	337.60	0	5.0080	0	33.8790	0	26.789	0	334.508	0	78.3	4	25.3	4	-1E+10	1	-1E+10	1	-1E+10	1	-1E+10	1	-1E+10	1	-1E+10	1
4902549	94	C	03/20/2023	22:09	-133.681	47.541	0	338.50	0	5.0070	0	33.8800	0	26.790	0	335.399	0	78.0	4	25.2	4	-1E+10	1	-1E+10	1	-1E+10	1	-1E+10	1	-1E+10	1	-1E+10	1
4902549	94	C	03/20/2023	22:09	-133.681	47.541	0	339.90	0	5.0020	0	33.8800	0	26.790	0	336.785	0	77.5	4	25.0	4	-1E+10	1	-1E+10	1	-1E+10	1	-1E+10	1	-1E+10	1	-1E+10	1
4902549	94	C	03/20/2023	22:09	-133.681	47.541	0	341.40	0	5.0000	0	33.8800	0	26.790	0	338.270	0	76.9	4	24.8	4	-1E+10	1	-1E+10	1	-1E+10	1	-1E+10	1	-1E+10	1	-1E+10	1
4902549	94	C	03/20/2023	22:09	-133.681	47.541	0	342.40	0	4.9960	0	33.8800	0	26.791	0	339.260	0	76.4	4	24.6	4	-1E+10	1	-1E+10	1	-1E+10	1	-1E+10	1	-1E+10	1	-1E+10	1
4902549	94	C	03/20/2023	22:09	-133.681	47.541	0	343.30	0	5.0040	0	33.8830	0	26.792	0	340.151	0	75.9	4	24.5	4	-1E+10	1	-1E+10	1	-1E+10	1	-1E+10	1	-1E+10	1	-1E+10	1
4902549	94	C	03/20/2023	22:09	-133.681	47.541	0	344.20	0	5.0120	0	33.8830	0	26.791	0	341.042	0	75.5	4	24.4	4	-1E+10	1	-1E+10	1	-1E+10	1	-1E+10	1	-1E+10	1	-1E+10	1
4902549	94	C	03/20/2023	22:09	-133.681	47.541	0	345.20	0	5.0310	0	33.8890	0	26.794	0	342.032	0	75.1	4	24.2	4	-1E+10	1	-1E+10	1	-1E+10	1	-1E+10	1	-1E+10	1	-1E+10	1
4902549	94	C	03/20/2023	22:09	-133.681	47.541	0	346.20	0	5.0090	0	33.8900	0	26.797	0	343.022	0	74.8	4	24.1	4	-1E+10	1	-1E+10	1	-1E+10	1	-1E+10	1	-1E+10	1	-1E+10	1
4902549	94	C	03/20/2023	22:09	-133.681	47.541	0	347.10	0	4.9880	0	33.8910	0	26.801	0	343.913	0	74.6	4	24.1	4	-1E+10	1	-1E+10	1	-1E+10	1	-1E+10	1	-1E+10	1	-1E+10	1
4902549	94	C	03/20/2023	22:09	-133.681	47.541	0	348.00	0	4.9820	0	33.8900	0	26.800	0	344.804	0	74.4	4	24.0	4	-1E+10	1	-1E+10	1	-1E+10	1	-1E+10	1	-1E+10	1	-1E+10	1
4902549	94	C	03/20/2023	22:09	-133.681	47.541	0	349.00	0	4.9780	0	33.8920	0	26.803	0	345.794	0	74.1	4	23.9	4	-1E+10	1	-1E+10	1	-1E+10	1	-1E+10	1	-1E+10	1	-1E+10	1
4902549	94	C	03/20/2023	22:09	-133.681	47.541	0	349.90	0	4.9670	0	33.8920	0	26.804	0	346.685	0	73.8	4	23.8	4	-1E+10	1	-1E+10	1	-1E+10	1	-1E+10	1	-1E+10	1	-1E+10	1
4902549	94	C	03/20/2023	22:09	-133.681	47.541	0	352.80	0	4.9510	0	33.8910	0	26.805	0	349.556	0	72.9	4	23.5	4	-1E+10	1	-1E+10	1	-1E+10	1	-1E+10	1	-1E+10	1	-1E+10	1
4902549	94	C	03/20/2023	22:09	-133.681	47.541	0	357.60	0	4.8490	0	33.8880	0	26.814	0	354.308	0	70.9	4	22.8	4	-1E+10	1	-1E+10	1	-1E+10	1	-1E+10	1	-1E+10	1	-1E+10	1
4902549	94	C	03/20/2023	22:09	-133.681	47.541	0	362.50	0	4.8950	0	33.9020	0	26.820	0	359.158	0	67.9	4	21.8	4	-1E+10	1	-1E+10	1	-1E+10	1	-1E+10	1	-1E+10	1	-1E+10	1
4902549	94	C	03/20/2023	22:09	-133.681	47.541	0	367.90	0	4.9170	0	33.9160	0	26.829	0	364.504	0	66.3	4	21.4	4	-1E+10	1	-1E+10	1	-1E+10	1	-1E+10	1	-1E+10	1	-1E+10	1
4902549	94	C	03/20/2023	22:09	-133.681	47.541	0	373.40	0	4.8530	0	33.9140	0	26.834	0	369.948	0	64.2	4	20.7	4	-1E+10	1	-1E+10	1	-1E+10	1	-1E+10	1	-1E+10	1	-1E+10	1
4902549	94	C	03/20/2023	22:09	-133.681	47.541	0	378.30	0	4.8910	0	33.9250	0	26.839	0	374.798	0	61.1	4	19.7	4	-1E+10	1	-1E+10	1	-1E+10	1	-1E+10	1	-1E+10	1	-1E+10	1
4902549	94	C	03/20/2023	22:09	-133.681	47.541	0	382.80	0	4.9190	0	33.9390	0	26.847	0	379.253	0	58.8	4	18.9	4	-1E+10	1	-1E+10	1	-1E+10	1	-1E+10	1	-1E+10	1	-1E+10	1
4902549	94	C	03/20/2023	22:09	-133.681	47.541	0	387.50	0	4.9250	0	33.9480	0	26.853	0	383.905	0	57.0	4	18.4	4	-1E+10	1	-1E+10	1	-1E+10	1	-1E+10	1	-1E+10	1	-1E+10	1
4902549	94	C	03/20/2023	22:09	-133.681	47.541	0	392.70	0	4.9220	0	33.9540	0	26.858	0	389.052	0	56.0	4	18.1	4	-1E+10	1	-1E+10	1	-1E+10	1	-1E+10	1	-1E+10	1	-1E+10	1
4902549	94	C	03/20/2023	22:09	-133.681	47.541	0	397.90	0	4.8780	0	33.9550	0	26.864	0	394.198	0	55.1	4	17.7	4	-1E+10	1	-1E+10	1	-1E+10	1	-1E+10	1	-1E+10	1	-1E+10	1
4902549	94	C	03/20/2023	22:09	-133.681	47.541	0	402.70	0	4.8400	0	33.9580	0	26.871	0	398.949	0	53.7	4	17.3	4	-1E+10	1	-1E+10	1	-1E+10	1	-1E+10	1	-1E+10	1	-1E+10	1
4902549	94	C	03/20/2023	22:09	-133.681	47.541	0	407.60	0	4.8180	0	33.9640	0	26.878	0	403.799	0	52.5	4	16.9	4	-1E+10	1	-1E+10	1	-1E+10	1	-1E+10	1	-1E+10	1	-1E+10	1
4902549	94	C	03/20/2023	22:09	-133.681	47.541	0	412.80	0	4.8040	0	33.9670	0	26.882	0	408.945	0	51.1	4	16.4	4	-1E+10	1	-1E+10	1	-1E+10	1	-1E+10	1	-1E+10	1	-1E+10	1
4902549	94	C	03/20/2023	22:09	-133.681	47.541	0	418.00	0	4.7850	0	33.9720	0	26.888	0	414.091	0	49.5	4	15.9	4	-1E+10	1	-1E+10	1	-1E+10	1	-1E+10	1	-1E+10	1	-1E+10	1
4902549	94	C	03/20/2023	22:09	-133.681	47.541	0	423.30	0	4.7700	0	33.9790	0	26.895	0	419.336	0	48.1	4	15.5	4	-1E+10	1	-1E+10	1	-1E+10	1	-1E+10	1	-1E+10	1	-1E+10	1
4902549	94	C	03/20/2023	22:09	-133.681	47.541	0	428.10	0	4.7590	0	33.9820	0	26.899	0	424.087	0	47.2	4	15.1	4	-1E+10	1	-1E+10	1	-1E+10	1	-1E+10	1	-1E+10	1	-1E+10	1
4902549	94	C	03/20/2023	22:09	-133.681	47.541	0	433.00	0	4.7460	0	33.9850	0	26.903	0	428.935	0	45.7	4	14.7	4	-1E+10	1	-1E+10	1	-1E+10	1	-1E+10	1	-1E+10	1	-1E+10	1
4902549	94	C	03/20/2023	22:09	-133.681	47.541	0	437.80	0	4.7240	0	33.9930	0	26.912	0	433.685	0	44.1	4	14.2	4	-1E+10	1	-1E+10	1	-1E+10	1	-1E+10	1	-1E+10	1	-1E+10	1
4902549	94	C	03/20/2023	22:09	-133.681	47.541	0	442.70	0	4.7050	0	33.9990	0	26.919	0	438.534	0	43.0	4	13.8	4	-1E+10	1	-1E+10	1	-1E+10	1	-1E+10	1	-1E+10	1	-1E+10	1
4902549	94	C	03/20/2023	22:09	-133.681	47.541	0	447.90	0	4.6760	0	34.0040	0	26.926	0	443.680	0	41.8	4	13.4	4	-1E+10	1	-1E+10	1	-1E+10	1	-1E+10	1	-1E+10	1	-1E+10	1
4902549	94	C	03/20/2023	22:09	-133.681	47.541	0	453.30	0	4.6560	0	34.0120	0	26.934	0	449.023	0	41.4	4	13.3	4	-1E+10	1	-1E+10	1	-1E+10	1	-1E+10	1	-1E+10	1	-1E+10	1
4902549	94	C	03/20/2023	22:09	-133.681	47.541	0	458.20	0	4.6110	0	34.0100	0	26.938	0	453.871	0	41.6	4	13.3	4	-1E+10	1	-1E+10	1	-1E+10	1	-1E+10	1	-1E+10	1	-1E+10	1
4902549	94	C	03/20/2023	22:09	-133.681	47.541	0	463.20	0	4.5770	0	34.0090	0	26.941	0	458.819	0	41.1	4	13.1	4	-1E+10	1	-1E+10	1	-1E+10	1	-1E+10	1	-1E+10	1	-1E+10	1
4902549	94	C	03/20/2023	22:09	-133.681	47.541	0	468.20	0	4.5310	0	34.0120	0	26.948	0	463.766	0	39.8	4	12.7	4	-1E+10	1	-1E+10	1	-1E+10	1	-1E+10	1	-1E+10	1	-1E+10	1
4902549	94	C	03/20/2023	22:09	-133.681	47.541	0	473.00	0	4.5100	0	34.0190	0	26.956	0	468.515	0	38.6	4	12.3	4	-1E+10	1	-1E+10	1	-1E+10	1	-1E+10	1	-1E+10	1	-1E+10	1
4902549	94	C	03/20/2023	22:09	-133.681	47.541	0	477.80	0	4.4980	0	34.0250	0	26.962	0	473.264	0	37.6	4	12.0	4	-1E+10	1	-1E+10	1	-1E+10	1	-1E+10	1	-1E+10	1	-1E+10	1
4902549	94	C	03/20/2023	22:09	-133.681	47.541	0	483.10	0	4.4980	0	34.0270	0	26.964	0	478.508	0	36.9	4	11.8	4	-1E+10	1	-1E+10	1	-1E+10	1	-1E+10	1	-1E+10	1	-1E+10	1
4902549	94	C	03/20/2023	22:09	-133.681	47.541	0	488.10	0	4.4750	0	34.0290	0	26.968	0	483.454	0	35.3	4	11.3	4	-1E+10	1	-1E+10	1	-1E+10	1	-1E+10	1	-1E+10	1	-1E+10	1
4902549	94	C	03/20/2023	22:09	-133.681	47.541	0	493.00	0	4.4990	0	34.0420	0	26.976	0	488.302	0	34.7	4	11.1	4	-1E+10	1	-1E+10	1	-1E+10	1	-1E+10	1	-1E+10	1	-1E+10	1
4902549	94	C	03/20/2023	22:09	-133.681	47.541	0	498.00	0	4.4490	0	34.0380	0	26.978	0	493.248	0	34.1	4	10.9	4	-1E+10	1	-1E+10	1	-1E+10	1	-1E+10	1	-1E+10	1	-1E+10	1
4902549	94	C	03/20/2023	22:09	-133.681	47.541	0	502.70	0	4.4420	0	34.0430	0	26.983	0	497.898	0	33.0	4	10.5	4	-1E+10	1	-1E+10	1	-1E+10	1	-1E+10	1	-1E+10	1	-1E+10	1
4902549	94	C	03/20/2023	22:09	-133.681	47.541	0	507.70	0	4.4320	0	34.0470	0	26.987	0	502.844	0	32.3	4	10.3	4	-1E+10	1	-1E+10	1	-1E+10	1	-1E+10	1	-1E+10	1	-1E+10	1
4902549	94	C	03/20/2023	22:09	-133.681	47.541	0	512.80	0	4.4140	0	34.0500	0	26.991	0	507.889	0	31.4	4	10.0	4	-1E+10	1	-1E+10	1	-1E+10	1	-1E+10	1	-1E+10	1	-1E+10	1
4902549	94	C	03/20/2023	22:09	-133.681	47.541	0	517.80	0	4.4020	0	34.0540	0	26.996	0	512.835	0	30.6	4	9.7	4	-1E+10	1	-1E+10	1	-1E+10	1	-1E+10	1	-1E+10	1	-1E+10	1
4902549	94	C	03/20/2023	22:09	-133.681	47.541	0	523.00	0	4.3890	0	34.0570	0	27.000	0	517.979	0	29.7	4	9.5	4	-1E+10	1	-1E+10	1	-1E+10	1	-1E+10	1	-1E+10	1	-1E+10	1
4902549	94	C	03/20/2023	22:09	-133.681	47.541	0	528.10	0	4.3740	0	34.0610	0	27.004	0	523.023	0	28.8	4	9.2	4	-1E+10	1	-1E+10	1	-1E+10	1	-1E+10	1	-1E+10	1	-1E+10	1
4902549	94	C	03/20/2023	22:09	-133.681	47.541	0	533.10	0	4.3590	0	34.0650	0	27.009	0	527.969	0	28.0	4	8.9	4	-1E+10	1	-1E+10	1	-1E+10	1	-1E+10	1	-1E+10	1	-1E+10	1
4902549	94	C	03/20/2023	22:09	-133.681	47.541	0	537.80	0	4.3480	0	34.0690	0	27.014	0	532.617	0	27.2	4	8.6	4	-1E+10	1	-1E+10	1	-1E+10	1	-1E+10	1	-1E+10	1	-1E+10	1
4902549	94	C	03/20/2023	22:09	-133.681	47.541	0	543.00	0	4.3360	0	34.0740	0	27.019	0	537.761	0	26.2	4	8.3	4	-1E+10	1	-1E+10	1	-1E+10	1	-1E+10	1	-1E+10	1	-1E+10	1
4902549	94	C	03/20/2023	22:09	-133.681	47.541	0	548.20	0	4.3220	0	34.0790	0	27.024	0	542.904	0	25.2	4	8.0	4	-1E+10	1	-1E+10	1	-1E+10	1	-1E+10	1	-1E+10	1	-1E+10	1
4902549	94	C	03/20/2023	22:09	-133.681	47.541	0	552.90	0	4.3110	0	34.0850	0	27.030	0	547.552	0	24.4	4	7.7	4	-1E+10	1	-1E+10	1	-1E+10	1	-1E+10	1	-1E+10	1	-1E+10	1
4902549	94	C	03/20/2023	22:09	-133.681	47.541	0	557.70	0	4.2980	0	34.0900	0	27.036	0	552.299	0	23.7	4	7.5	4	-1E+10	1	-1E+10	1	-1E+10	1	-1E+10	1	-1E+10	1	-1E+10	1
4902549	94	C	03/20/2023	22:09	-133.681	47.541	0	562.90	0	4.2850	0	34.0950	0	27.041	0	557.442	0	23.0	4	7.3	4	-1E+10	1	-1E+10	1	-1E+10	1	-1E+10	1	-1E+10	1	-1E+10	1
4902549	94	C	03/20/2023	22:09	-133.681	47.541	0	568.20	0	4.2790	0	34.0990	0	27.045	0	562.683	0	22.6	4	7.2	4	-1E+10	1	-1E+10	1	-1E+10	1	-1E+10	1	-1E+10	1	-1E+10	1
4902549	94	C	03/20/2023	22:09	-133.681	47.541	0	573.10	0	4.2650	0	34.1030	0	27.050	0	567.529	0	22.2	4	7.1	4	-1E+10	1	-1E+10	1	-1E+10	1	-1E+10	1	-1E+10	1	-1E+10	1
4902549	94	C	03/20/2023	22:09	-133.681	47.541	0	578.00	0	4.2630	0	34.1040	0	27.051	0	572.375	0	21.9	4	7.0	4	-1E+10	1	-1E+10	1	-1E+10	1	-1E+10	1	-1E+10	1	-1E+10	1
4902549	94	C	03/20/2023	22:09	-133.681	47.541	0	583.00	0	4.2550	0	34.1060	0	27.053	0	577.319	0	21.5	4	6.8	4	-1E+10	1	-1E+10	1	-1E+10	1	-1E+10	1	-1E+10	1	-1E+10	1
4902549	94	C	03/20/2023	22:09	-133.681	47.541	0	588.00	0	4.2380	0	34.1100	0	27.058	0	582.263	0	21.0	4	6.7	4	-1E+10	1	-1E+10	1	-1E+10	1	-1E+10	1	-1E+10	1	-1E+10	1
4902549	94	C	03/20/2023	22:09	-133.681	47.541	0	593.00	0	4.2160	0	34.1140	0	27.064	0	587.208	0	20.5	4	6.5	4	-1E+10	1	-1E+10	1	-1E+10	1	-1E+10	1	-1E+10	1	-1E+10	1
4902549	94	C	03/20/2023	22:09	-133.681	47.541	0	598.00	0	4.1950	0	34.1180	0	27.069	0	592.152	0	20.0	4	6.3	4	-1E+10	1	-1E+10	1	-1E+10	1	-1E+10	1	-1E+10	1	-1E+10	1
4902549	94	C	03/20/2023	22:09	-133.681	47.541	0	603.10	0	4.1820	0	34.1220	0	27.074	0	597.194	0	19.4	4	6.1	4	-1E+10	1	-1E+10	1	-1E+10	1	-1E+10	1	-1E+10	1	-1E+10	1
4902549	94	C	03/20/2023	22:09	-133.681	47.541	0	608.30	0	4.1700	0	34.1270	0	27.079	0	602.336	0	18.8	4	6.0	4	-1E+10	1	-1E+10	1	-1E+10	1	-1E+10	1	-1E+10	1	-1E+10	1
4902549	94	C	03/20/2023	22:09	-133.681	47.541	0	612.90	0	4.1670	0	34.1300	0	27.082	0	606.884	0	18.4	4	5.8	4	-1E+10	1	-1E+10	1	-1E+10	1	-1E+10	1	-1E+10	1	-1E+10	1
4902549	94	C	03/20/2023	22:09	-133.681	47.541	0	617.50	0	4.1500	0	34.1340	0	27.087	0	611.432	0	18.0	4	5.7	4	-1E+10	1	-1E+10	1	-1E+10	1	-1E+10	1	-1E+10	1	-1E+10	1
4902549	94	C	03/20/2023	22:09	-133.681	47.541	0	622.60	0	4.1320	0	34.1370	0	27.091	0	616.475	0	17.5	4	5.5	4	-1E+10	1	-1E+10	1	-1E+10	1	-1E+10	1	-1E+10	1	-1E+10	1
4902549	94	C	03/20/2023	22:09	-133.681	47.541	0	627.70	0	4.1100	0	34.1440	0	27.099	0	621.517	0	17.0	4	5.4	4	-1E+10	1	-1E+10	1	-1E+10	1	-1E+10	1	-1E+10	1	-1E+10	1
4902549	94	C	03/20/2023	22:09	-133.681	47.541	0	632.80	0	4.0930	0	34.1480	0	27.104	0	626.559	0	16.6	4	5.3	4	-1E+10	1	-1E+10	1	-1E+10	1	-1E+10	1	-1E+10	1	-1E+10	1
4902549	94	C	03/20/2023	22:09	-133.681	47.541	0	638.00	0	4.0850	0	34.1510	0	27.107	0	631.700	0	16.2	4	5.1	4	-1E+10	1	-1E+10	1	-1E+10	1	-1E+10	1	-1E+10	1	-1E+10	1
4902549	94	C	03/20/2023	22:09	-133.681	47.541	0	643.20	0	4.0850	0	34.1540	0	27.109	0	636.841	0	15.7	4	5.0	4	-1E+10	1	-1E+10	1	-1E+10	1	-1E+10	1	-1E+10	1	-1E+10	1
4902549	94	C	03/20/2023	22:09	-133.681	47.541	0	648.30	0	4.0810	0	34.1580	0	27.113	0	641.882	0	15.3	4	4.8	4	-1E+10	1	-1E+10	1	-1E+10	1	-1E+10	1	-1E+10	1	-1E+10	1
4902549	94	C	03/20/2023	22:09	-133.681	47.541	0	653.00	0	4.0760	0	34.1620	0	27.117	0	646.528	0	14.8	4	4.7	4	-1E+10	1	-1E+10	1	-1E+10	1	-1E+10	1	-1E+10	1	-1E+10	1
4902549	94	C	03/20/2023	22:09	-133.681	47.541	0	657.70	0	4.0680	0	34.1660	0	27.121	0	651.175	0	14.2	4	4.5	4	-1E+10	1	-1E+10	1	-1E+10	1	-1E+10	1	-1E+10	1	-1E+10	1
4902549	94	C	03/20/2023	22:09	-133.681	47.541	0	663.00	0	4.0750	0	34.1730	0	27.126	0	656.414	0	14.0	4	4.4	4	-1E+10	1	-1E+10	1	-1E+10	1	-1E+10	1	-1E+10	1	-1E+10	1
4902549	94	C	03/20/2023	22:09	-133.681	47.541	0	668.30	0	4.0480	0	34.1740	0	27.129	0	661.653	0	14.2	4	4.5	4	-1E+10	1	-1E+10	1	-1E+10	1	-1E+10	1	-1E+10	1	-1E+10	1
4902549	94	C	03/20/2023	22:09	-133.681	47.541	0	673.00	0	4.0130	0	34.1740	0	27.133	0	666.298	0	14.1	4	4.5	4	-1E+10	1	-1E+10	1	-1E+10	1	-1E+10	1	-1E+10	1	-1E+10	1
4902549	94	C	03/20/2023	22:09	-133.681	47.541	0	677.80	0	3.9860	0	34.1770	0	27.138	0	671.043	0	13.9	4	4.4	4	-1E+10	1	-1E+10	1	-1E+10	1	-1E+10	1	-1E+10	1	-1E+10	1
4902549	94	C	03/20/2023	22:09	-133.681	47.541	0	683.00	0	3.9740	0	34.1790	0	27.141	0	676.182	0	13.5	4	4.3	4	-1E+10	1	-1E+10	1	-1E+10	1	-1E+10	1	-1E+10	1	-1E+10	1
4902549	94	C	03/20/2023	22:09	-133.681	47.541	0	688.30	0	3.9580	0	34.1830	0	27.146	0	681.421	0	13.1	4	4.1	4	-1E+10	1	-1E+10	1	-1E+10	1	-1E+10	1	-1E+10	1	-1E+10	1
4902549	94	C	03/20/2023	22:09	-133.681	47.541	0	693.20	0	3.9440	0	34.1870	0	27.150	0	686.264	0	12.8	4	4.0	4	-1E+10	1	-1E+10	1	-1E+10	1	-1E+10	1	-1E+10	1	-1E+10	1
4902549	94	C	03/20/2023	22:09	-133.681	47.541	0	697.70	0	3.9270	0	34.1910	0	27.155	0	690.711	0	12.4	4	3.9	4	-1E+10	1	-1E+10	1	-1E+10	1	-1E+10	1	-1E+10	1	-1E+10	1
4902549	94	C	03/20/2023	22:09	-133.681	47.541	0	702.90	0	3.9220	0	34.1970	0	27.161	0	695.851	0	12.0	4	3.8	4	-1E+10	1	-1E+10	1	-1E+10	1	-1E+10	1	-1E+10	1	-1E+10	1
4902549	94	C	03/20/2023	22:09	-133.681	47.541	0	708.20	0	3.9200	0	34.2020	0	27.165	0	701.089	0	11.4	4	3.6	4	-1E+10	1	-1E+10	1	-1E+10	1	-1E+10	1	-1E+10	1	-1E+10	1
4902549	94	C	03/20/2023	22:09	-133.681	47.541	0	713.10	0	3.9240	0	34.2070	0	27.168	0	705.931	0	11.1	4	3.5	4	-1E+10	1	-1E+10	1	-1E+10	1	-1E+10	1	-1E+10	1	-1E+10	1
4902549	94	C	03/20/2023	22:09	-133.681	47.541	0	718.10	0	3.9260	0	34.2100	0	27.171	0	710.872	0	10.6	4	3.3	4	-1E+10	1	-1E+10	1	-1E+10	1	-1E+10	1	-1E+10	1	-1E+10	1
4902549	94	C	03/20/2023	22:09	-133.681	47.541	0	723.20	0	3.9200	0	34.2130	0	27.174	0	715.912	0	10.1	4	3.2	4	-1E+10	1	-1E+10	1	-1E+10	1	-1E+10	1	-1E+10	1	-1E+10	1
4902549	94	C	03/20/2023	22:09	-133.681	47.541	0	728.30	0	3.9110	0	34.2190	0	27.179	0	720.952	0	9.7	4	3.0	4	-1E+10	1	-1E+10	1	-1E+10	1	-1E+10	1	-1E+10	1	-1E+10	1
4902549	94	C	03/20/2023	22:09	-133.681	47.541	0	733.00	0	3.9200	0	34.2250	0	27.183	0	725.596	0	9.1	4	2.9	4	-1E+10	1	-1E+10	1	-1E+10	1	-1E+10	1	-1E+10	1	-1E+10	1
4902549	94	C	03/20/2023	22:09	-133.681	47.541	0	737.80	0	3.9270	0	34.2300	0	27.187	0	730.340	0	8.9	4	2.8	4	-1E+10	1	-1E+10	1	-1E+10	1	-1E+10	1	-1E+10	1	-1E+10	1
4902549	94	C	03/20/2023	22:09	-133.681	47.541	0	743.10	0	3.9180	0	34.2330	0	27.190	0	735.577	0	8.9	4	2.8	4	-1E+10	1	-1E+10	1	-1E+10	1	-1E+10	1	-1E+10	1	-1E+10	1
4902549	94	C	03/20/2023	22:09	-133.681	47.541	0	748.10	0	3.9070	0	34.2350	0	27.193	0	740.517	0	9.0	4	2.8	4	-1E+10	1	-1E+10	1	-1E+10	1	-1E+10	1	-1E+10	1	-1E+10	1
4902549	94	C	03/20/2023	22:09	-133.681	47.541	0	752.70	0	3.8840	0	34.2350	0	27.195	0	745.062	0	9.2	4	2.9	4	-1E+10	1	-1E+10	1	-1E+10	1	-1E+10	1	-1E+10	1	-1E+10	1
4902549	94	C	03/20/2023	22:09	-133.681	47.541	0	757.80	0	3.8530	0	34.2360	0	27.199	0	750.101	0	9.2	4	2.9	4	-1E+10	1	-1E+10	1	-1E+10	1	-1E+10	1	-1E+10	1	-1E+10	1
4902549	94	C	03/20/2023	22:09	-133.681	47.541	0	763.00	0	3.8170	0	34.2360	0	27.203	0	755.239	0	9.1	4	2.9	4	-1E+10	1	-1E+10	1	-1E+10	1	-1E+10	1	-1E+10	1	-1E+10	1
4902549	94	C	03/20/2023	22:09	-133.681	47.541	0	767.80	0	3.8440	0	34.2450	0	27.207	0	759.982	0	8.9	4	2.8	4	-1E+10	1	-1E+10	1	-1E+10	1	-1E+10	1	-1E+10	1	-1E+10	1
4902549	94	C	03/20/2023	22:09	-133.681	47.541	0	772.60	0	3.8020	0	34.2430	0	27.210	0	764.724	0	9.0	4	2.8	4	-1E+10	1	-1E+10	1	-1E+10	1	-1E+10	1	-1E+10	1	-1E+10	1
4902549	94	C	03/20/2023	22:09	-133.681	47.541	0	778.00	0	3.7760	0	34.2450	0	27.214	0	770.059	0	8.8	4	2.8	4	-1E+10	1	-1E+10	1	-1E+10	1	-1E+10	1	-1E+10	1	-1E+10	1
4902549	94	C	03/20/2023	22:09	-133.681	47.541	0	783.40	0	3.7610	0	34.2500	0	27.219	0	775.394	0	8.8	4	2.8	4	-1E+10	1	-1E+10	1	-1E+10	1	-1E+10	1	-1E+10	1	-1E+10	1
4902549	94	C	03/20/2023	22:09	-133.681	47.541	0	788.40	0	3.7650	0	34.2510	0	27.220	0	780.333	0	8.8	4	2.8	4	-1E+10	1	-1E+10	1	-1E+10	1	-1E+10	1	-1E+10	1	-1E+10	1
4902549	94	C	03/20/2023	22:09	-133.681	47.541	0	793.40	0	3.7530	0	34.2510	0	27.221	0	785.273	0	8.9	4	2.8	4	-1E+10	1	-1E+10	1	-1E+10	1	-1E+10	1	-1E+10	1	-1E+10	1
4902549	94	C	03/20/2023	22:09	-133.681	47.541	0	798.40	0	3.7100	0	34.2510	0	27.225	0	790.212	0	9.1	4	2.8	4	-1E+10	1	-1E+10	1	-1E+10	1	-1E+10	1	-1E+10	1	-1E+10	1
4902549	94	C	03/20/2023	22:09	-133.681	47.541	0	803.00	0	3.6740	0	34.2520	0	27.230	0	794.756	0	8.9	4	2.8	4	-1E+10	1	-1E+10	1	-1E+10	1	-1E+10	1	-1E+10	1	-1E+10	1
4902549	94	C	03/20/2023	22:09	-133.681	47.541	0	807.60	0	3.6570	0	34.2570	0	27.235	0	799.300	0	8.5	4	2.7	4	-1E+10	1	-1E+10	1	-1E+10	1	-1E+10	1	-1E+10	1	-1E+10	1
4902549	94	C	03/20/2023	22:09	-133.681	47.541	0	812.90	0	3.6520	0	34.2610	0	27.239	0	804.536	0	8.2	4	2.6	4	-1E+10	1	-1E+10	1	-1E+10	1	-1E+10	1	-1E+10	1	-1E+10	1
4902549	94	C	03/20/2023	22:09	-133.681	47.541	0	818.10	0	3.6610	0	34.2710	0	27.246	0	809.672	0	7.8	4	2.4	4	-1E+10	1	-1E+10	1	-1E+10	1	-1E+10	1	-1E+10	1	-1E+10	1
4902549	94	C	03/20/2023	22:09	-133.681	47.541	0	822.80	0	3.6220	0	34.2720	0	27.251	0	814.314	0	7.5	4	2.3	4	-1E+10	1	-1E+10	1	-1E+10	1	-1E+10	1	-1E+10	1	-1E+10	1
4902549	94	C	03/20/2023	22:09	-133.681	47.541	0	827.90	0	3.6590	0	34.2810	0	27.255	0	819.352	0	7.0	4	2.2	4	-1E+10	1	-1E+10	1	-1E+10	1	-1E+10	1	-1E+10	1	-1E+10	1
4902549	94	C	03/20/2023	22:09	-133.681	47.541	0	833.10	0	3.6820	0	34.2880	0	27.258	0	824.488	0	6.7	4	2.1	4	-1E+10	1	-1E+10	1	-1E+10	1	-1E+10	1	-1E+10	1	-1E+10	1
4902549	94	C	03/20/2023	22:09	-133.681	47.541	0	838.00	0	3.6880	0	34.2890	0	27.258	0	829.327	0	6.5	4	2.1	4	-1E+10	1	-1E+10	1	-1E+10	1	-1E+10	1	-1E+10	1	-1E+10	1
4902549	94	C	03/20/2023	22:09	-133.681	47.541	0	843.00	0	3.6840	0	34.2950	0	27.263	0	834.266	0	6.5	4	2.0	4	-1E+10	1	-1E+10	1	-1E+10	1	-1E+10	1	-1E+10	1	-1E+10	1
4902549	94	C	03/20/2023	22:09	-133.681	47.541	0	848.20	0	3.6610	0	34.2980	0	27.268	0	839.401	0	6.5	4	2.0	4	-1E+10	1	-1E+10	1	-1E+10	1	-1E+10	1	-1E+10	1	-1E+10	1
4902549	94	C	03/20/2023	22:09	-133.681	47.541	0	852.90	0	3.6440	0	34.3000	0	27.271	0	844.043	0	6.5	4	2.0	4	-1E+10	1	-1E+10	1	-1E+10	1	-1E+10	1	-1E+10	1	-1E+10	1
4902549	94	C	03/20/2023	22:09	-133.681	47.541	0	857.80	0	3.6350	0	34.3030	0	27.275	0	848.882	0	6.5	4	2.0	4	-1E+10	1	-1E+10	1	-1E+10	1	-1E+10	1	-1E+10	1	-1E+10	1
4902549	94	C	03/20/2023	22:09	-133.681	47.541	0	863.10	0	3.6170	0	34.3040	0	27.277	0	854.116	0	6.5	4	2.0	4	-1E+10	1	-1E+10	1	-1E+10	1	-1E+10	1	-1E+10	1	-1E+10	1
4902549	94	C	03/20/2023	22:09	-133.681	47.541	0	868.10	0	3.5920	0	34.3080	0	27.283	0	859.054	0	6.5	4	2.0	4	-1E+10	1	-1E+10	1	-1E+10	1	-1E+10	1	-1E+10	1	-1E+10	1
4902549	94	C	03/20/2023	22:09	-133.681	47.541	0	873.10	0	3.5810	0	34.3100	0	27.286	0	863.992	0	6.6	4	2.1	4	-1E+10	1	-1E+10	1	-1E+10	1	-1E+10	1	-1E+10	1	-1E+10	1
4902549	94	C	03/20/2023	22:09	-133.681	47.541	0	878.10	0	3.5300	0	34.3090	0	27.290	0	868.929	0	6.7	4	2.1	4	-1E+10	1	-1E+10	1	-1E+10	1	-1E+10	1	-1E+10	1	-1E+10	1
4902549	94	C	03/20/2023	22:09	-133.681	47.541	0	882.70	0	3.5090	0	34.3120	0	27.294	0	873.472	0	6.6	4	2.1	4	-1E+10	1	-1E+10	1	-1E+10	1	-1E+10	1	-1E+10	1	-1E+10	1
4902549	94	C	03/20/2023	22:09	-133.681	47.541	0	887.80	0	3.5150	0	34.3160	0	27.297	0	878.507	0	6.5	4	2.0	4	-1E+10	1	-1E+10	1	-1E+10	1	-1E+10	1	-1E+10	1	-1E+10	1
4902549	94	C	03/20/2023	22:09	-133.681	47.541	0	892.80	0	3.5260	0	34.3200	0	27.299	0	883.445	0	6.4	4	2.0	4	-1E+10	1	-1E+10	1	-1E+10	1	-1E+10	1	-1E+10	1	-1E+10	1
4902549	94	C	03/20/2023	22:09	-133.681	47.541	0	897.90	0	3.5040	0	34.3210	0	27.302	0	888.480	0	6.5	4	2.0	4	-1E+10	1	-1E+10	1	-1E+10	1	-1E+10	1	-1E+10	1	-1E+10	1
4902549	94	C	03/20/2023	22:09	-133.681	47.541	0	902.90	0	3.4940	0	34.3240	0	27.305	0	893.417	0	6.4	4	2.0	4	-1E+10	1	-1E+10	1	-1E+10	1	-1E+10	1	-1E+10	1	-1E+10	1
4902549	94	C	03/20/2023	22:09	-133.681	47.541	0	908.00	0	3.4790	0	34.3280	0	27.310	0	898.453	0	6.5	4	2.0	4	-1E+10	1	-1E+10	1	-1E+10	1	-1E+10	1	-1E+10	1	-1E+10	1
4902549	94	C	03/20/2023	22:09	-133.681	47.541	0	913.10	0	3.4630	0	34.3300	0	27.313	0	903.488	0	6.5	4	2.0	4	-1E+10	1	-1E+10	1	-1E+10	1	-1E+10	1	-1E+10	1	-1E+10	1
4902549	94	C	03/20/2023	22:09	-133.681	47.541	0	917.80	0	3.4230	0	34.3310	0	27.318	0	908.128	0	6.6	4	2.1	4	-1E+10	1	-1E+10	1	-1E+10	1	-1E+10	1	-1E+10	1	-1E+10	1
4902549	94	C	03/20/2023	22:09	-133.681	47.541	0	922.90	0	3.3960	0	34.3300	0	27.320	0	913.164	0	6.6	4	2.1	4	-1E+10	1	-1E+10	1	-1E+10	1	-1E+10	1	-1E+10	1	-1E+10	1
4902549	94	C	03/20/2023	22:09	-133.681	47.541	0	928.10	0	3.4060	0	34.3350	0	27.323	0	918.297	0	6.6	4	2.0	4	-1E+10	1	-1E+10	1	-1E+10	1	-1E+10	1	-1E+10	1	-1E+10	1
4902549	94	C	03/20/2023	22:09	-133.681	47.541	0	932.90	0	3.3940	0	34.3360	0	27.325	0	923.036	0	6.6	4	2.0	4	-1E+10	1	-1E+10	1	-1E+10	1	-1E+10	1	-1E+10	1	-1E+10	1
4902549	94	C	03/20/2023	22:09	-133.681	47.541	0	937.70	0	3.3850	0	34.3370	0	27.326	0	927.775	0	6.5	4	2.0	4	-1E+10	1	-1E+10	1	-1E+10	1	-1E+10	1	-1E+10	1	-1E+10	1
4902549	94	C	03/20/2023	22:09	-133.681	47.541	0	943.00	0	3.3810	0	34.3390	0	27.328	0	933.007	0	6.5	4	2.0	4	-1E+10	1	-1E+10	1	-1E+10	1	-1E+10	1	-1E+10	1	-1E+10	1
4902549	94	C	03/20/2023	22:09	-133.681	47.541	0	948.30	0	3.3680	0	34.3420	0	27.332	0	938.239	0	6.5	4	2.0	4	-1E+10	1	-1E+10	1	-1E+10	1	-1E+10	1	-1E+10	1	-1E+10	1
4902549	94	C	03/20/2023	22:09	-133.681	47.541	0	953.20	0	3.3600	0	34.3440	0	27.334	0	943.076	0	6.5	4	2.0	4	-1E+10	1	-1E+10	1	-1E+10	1	-1E+10	1	-1E+10	1	-1E+10	1
4902549	94	C	03/20/2023	22:09	-133.681	47.541	0	958.10	0	3.3550	0	34.3450	0	27.336	0	947.913	0	6.5	4	2.0	4	-1E+10	1	-1E+10	1	-1E+10	1	-1E+10	1	-1E+10	1	-1E+10	1
4902549	94	C	03/20/2023	22:09	-133.681	47.541	0	963.00	0	3.3440	0	34.3460	0	27.337	0	952.749	0	6.4	4	2.0	4	-1E+10	1	-1E+10	1	-1E+10	1	-1E+10	1	-1E+10	1	-1E+10	1
4902549	94	C	03/20/2023	22:09	-133.681	47.541	0	968.00	0	3.3460	0	34.3520	0	27.342	0	957.685	0	6.4	4	2.0	4	-1E+10	1	-1E+10	1	-1E+10	1	-1E+10	1	-1E+10	1	-1E+10	1
4902549	94	C	03/20/2023	22:09	-133.681	47.541	0	973.00	0	3.3580	0	34.3570	0	27.345	0	962.620	0	6.3	4	2.0	4	-1E+10	1	-1E+10	1	-1E+10	1	-1E+10	1	-1E+10	1	-1E+10	1
4902549	94	C	03/20/2023	22:09	-133.681	47.541	0	978.00	0	3.3490	0	34.3610	0	27.349	0	967.555	0	6.3	4	2.0	4	-1E+10	1	-1E+10	1	-1E+10	1	-1E+10	1	-1E+10	1	-1E+10	1
4902549	94	C	03/20/2023	22:09	-133.681	47.541	0	983.00	0	3.3400	0	34.3630	0	27.352	0	972.490	0	6.4	4	2.0	4	-1E+10	1	-1E+10	1	-1E+10	1	-1E+10	1	-1E+10	1	-1E+10	1
4902549	94	C	03/20/2023	22:09	-133.681	47.541	0	988.10	0	3.3220	0	34.3670	0	27.356	0	977.524	0	6.4	4	2.0	4	-1E+10	1	-1E+10	1	-1E+10	1	-1E+10	1	-1E+10	1	-1E+10	1
4902549	94	C	03/20/2023	22:09	-133.681	47.541	0	993.30	0	3.3120	0	34.3710	0	27.361	0	982.656	0	6.4	4	2.0	4	-1E+10	1	-1E+10	1	-1E+10	1	-1E+10	1	-1E+10	1	-1E+10	1
4902549	94	C	03/20/2023	22:09	-133.681	47.541	0	998.00	0	3.3060	0	34.3740	0	27.364	0	987.294	0	6.4	4	2.0	4	-1E+10	1	-1E+10	1	-1E+10	1	-1E+10	1	-1E+10	1	-1E+10	1
4902549	94	C	03/20/2023	22:09	-133.681	47.541	0	1005.30	0	3.2880	0	34.3760	0	27.367	0	994.499	0	6.5	4	2.0	4	-1E+10	1	-1E+10	1	-1E+10	1	-1E+10	1	-1E+10	1	-1E+10	1
4902549	94	C	03/20/2023	22:09	-133.681	47.541	0	1015.40	0	3.2600	0	34.3820	0	27.374	0	1004.466	0	6.6	4	2.1	4	-1E+10	1	-1E+10	1	-1E+10	1	-1E+10	1	-1E+10	1	-1E+10	1
4902549	94	C	03/20/2023	22:09	-133.681	47.541	0	1025.10	0	3.2330	0	34.3860	0	27.380	0	1014.038	0	6.7	4	2.1	4	-1E+10	1	-1E+10	1	-1E+10	1	-1E+10	1	-1E+10	1	-1E+10	1
4902549	94	C	03/20/2023	22:09	-133.681	47.541	0	1035.30	0	3.2080	0	34.3900	0	27.386	0	1024.103	0	6.9	4	2.1	4	-1E+10	1	-1E+10	1	-1E+10	1	-1E+10	1	-1E+10	1	-1E+10	1
4902549	94	C	03/20/2023	22:09	-133.681	47.541	0	1045.70	0	3.1820	0	34.3940	0	27.391	0	1034.365	0	7.0	4	2.2	4	-1E+10	1	-1E+10	1	-1E+10	1	-1E+10	1	-1E+10	1	-1E+10	1
4902549	94	C	03/20/2023	22:09	-133.681	47.541	0	1055.50	0	3.1680	0	34.3950	0	27.394	0	1044.034	0	7.1	4	2.2	4	-1E+10	1	-1E+10	1	-1E+10	1	-1E+10	1	-1E+10	1	-1E+10	1
4902549	94	C	03/20/2023	22:09	-133.681	47.541	0	1065.10	0	3.1380	0	34.3990	0	27.400	0	1053.506	0	7.3	4	2.2	4	-1E+10	1	-1E+10	1	-1E+10	1	-1E+10	1	-1E+10	1	-1E+10	1
4902549	94	C	03/20/2023	22:09	-133.681	47.541	0	1075.30	0	3.1140	0	34.4040	0	27.406	0	1063.569	0	7.4	4	2.3	4	-1E+10	1	-1E+10	1	-1E+10	1	-1E+10	1	-1E+10	1	-1E+10	1
4902549	94	C	03/20/2023	22:09	-133.681	47.541	0	1085.80	0	3.1030	0	34.4070	0	27.409	0	1073.928	0	7.5	4	2.3	4	-1E+10	1	-1E+10	1	-1E+10	1	-1E+10	1	-1E+10	1	-1E+10	1
4902549	94	C	03/20/2023	22:09	-133.681	47.541	0	1095.50	0	3.0900	0	34.4080	0	27.411	0	1083.497	0	7.7	4	2.4	4	-1E+10	1	-1E+10	1	-1E+10	1	-1E+10	1	-1E+10	1	-1E+10	1
4902549	94	C	03/20/2023	22:09	-133.681	47.541	0	1105.50	0	3.0740	0	34.4110	0	27.415	0	1093.361	0	7.8	4	2.4	4	-1E+10	1	-1E+10	1	-1E+10	1	-1E+10	1	-1E+10	1	-1E+10	1
4902549	94	C	03/20/2023	22:09	-133.681	47.541	0	1115.60	0	3.0590	0	34.4140	0	27.419	0	1103.324	0	8.0	4	2.5	4	-1E+10	1	-1E+10	1	-1E+10	1	-1E+10	1	-1E+10	1	-1E+10	1
4902549	94	C	03/20/2023	22:09	-133.681	47.541	0	1125.30	0	3.0420	0	34.4160	0	27.422	0	1112.891	0	8.2	4	2.5	4	-1E+10	1	-1E+10	1	-1E+10	1	-1E+10	1	-1E+10	1	-1E+10	1
4902549	94	C	03/20/2023	22:09	-133.681	47.541	0	1135.10	0	3.0120	0	34.4200	0	27.428	0	1122.557	0	8.4	4	2.6	4	-1E+10	1	-1E+10	1	-1E+10	1	-1E+10	1	-1E+10	1	-1E+10	1
4902549	94	C	03/20/2023	22:09	-133.681	47.541	0	1145.10	0	2.9800	0	34.4220	0	27.433	0	1132.419	0	8.6	4	2.7	4	-1E+10	1	-1E+10	1	-1E+10	1	-1E+10	1	-1E+10	1	-1E+10	1
4902549	94	C	03/20/2023	22:09	-133.681	47.541	0	1155.10	0	2.9560	0	34.4260	0	27.438	0	1142.282	0	8.8	4	2.7	4	-1E+10	1	-1E+10	1	-1E+10	1	-1E+10	1	-1E+10	1	-1E+10	1
4902549	94	C	03/20/2023	22:09	-133.681	47.541	0	1165.30	0	2.9430	0	34.4280	0	27.441	0	1152.341	0	9.0	4	2.8	4	-1E+10	1	-1E+10	1	-1E+10	1	-1E+10	1	-1E+10	1	-1E+10	1
4902549	94	C	03/20/2023	22:09	-133.681	47.541	0	1175.20	0	2.9190	0	34.4290	0	27.444	0	1162.103	0	9.1	4	2.8	4	-1E+10	1	-1E+10	1	-1E+10	1	-1E+10	1	-1E+10	1	-1E+10	1
4902549	94	C	03/20/2023	22:09	-133.681	47.541	0	1185.10	0	2.9110	0	34.4330	0	27.448	0	1171.865	0	9.4	4	2.9	4	-1E+10	1	-1E+10	1	-1E+10	1	-1E+10	1	-1E+10	1	-1E+10	1
4902549	94	C	03/20/2023	22:09	-133.681	47.541	0	1195.50	0	2.9090	0	34.4360	0	27.451	0	1182.120	0	9.7	4	3.0	4	-1E+10	1	-1E+10	1	-1E+10	1	-1E+10	1	-1E+10	1	-1E+10	1
4902549	94	C	03/20/2023	22:09	-133.681	47.541	0	1205.50	0	2.8840	0	34.4390	0	27.455	0	1191.979	0	9.9	4	3.1	4	-1E+10	1	-1E+10	1	-1E+10	1	-1E+10	1	-1E+10	1	-1E+10	1
4902549	94	C	03/20/2023	22:09	-133.681	47.541	0	1215.50	0	2.8620	0	34.4420	0	27.460	0	1201.839	0	10.2	4	3.1	4	-1E+10	1	-1E+10	1	-1E+10	1	-1E+10	1	-1E+10	1	-1E+10	1
4902549	94	C	03/20/2023	22:09	-133.681	47.541	0	1225.60	0	2.8510	0	34.4450	0	27.463	0	1211.796	0	10.4	4	3.2	4	-1E+10	1	-1E+10	1	-1E+10	1	-1E+10	1	-1E+10	1	-1E+10	1
4902549	94	C	03/20/2023	22:09	-133.681	47.541	0	1235.70	0	2.8070	0	34.4440	0	27.466	0	1221.753	0	10.4	4	3.2	4	-1E+10	1	-1E+10	1	-1E+10	1	-1E+10	1	-1E+10	1	-1E+10	1
4902549	94	C	03/20/2023	22:09	-133.681	47.541	0	1245.70	0	2.7910	0	34.4460	0	27.469	0	1231.611	0	10.7	4	3.3	4	-1E+10	1	-1E+10	1	-1E+10	1	-1E+10	1	-1E+10	1	-1E+10	1
4902549	94	C	03/20/2023	22:09	-133.681	47.541	0	1255.60	0	2.7600	0	34.4470	0	27.473	0	1241.370	0	10.7	4	3.3	4	-1E+10	1	-1E+10	1	-1E+10	1	-1E+10	1	-1E+10	1	-1E+10	1
4902549	94	C	03/20/2023	22:09	-133.681	47.541	0	1265.70	0	2.7320	0	34.4470	0	27.475	0	1251.325	0	10.9	4	3.3	4	-1E+10	1	-1E+10	1	-1E+10	1	-1E+10	1	-1E+10	1	-1E+10	1
4902549	94	C	03/20/2023	22:09	-133.681	47.541	0	1275.40	0	2.7350	0	34.4500	0	27.477	0	1260.886	0	11.1	4	3.4	4	-1E+10	1	-1E+10	1	-1E+10	1	-1E+10	1	-1E+10	1	-1E+10	1
4902549	94	C	03/20/2023	22:09	-133.681	47.541	0	1285.20	0	2.7090	0	34.4500	0	27.480	0	1270.545	0	11.3	4	3.5	4	-1E+10	1	-1E+10	1	-1E+10	1	-1E+10	1	-1E+10	1	-1E+10	1
4902549	94	C	03/20/2023	22:09	-133.681	47.541	0	1295.30	0	2.6770	0	34.4530	0	27.485	0	1280.499	0	11.5	4	3.5	4	-1E+10	1	-1E+10	1	-1E+10	1	-1E+10	1	-1E+10	1	-1E+10	1
4902549	94	C	03/20/2023	22:09	-133.681	47.541	0	1305.30	0	2.6540	0	34.4540	0	27.488	0	1290.354	0	11.8	4	3.6	4	-1E+10	1	-1E+10	1	-1E+10	1	-1E+10	1	-1E+10	1	-1E+10	1
4902549	94	C	03/20/2023	22:09	-133.681	47.541	0	1315.30	0	2.6400	0	34.4570	0	27.491	0	1300.209	0	12.2	4	3.7	4	-1E+10	1	-1E+10	1	-1E+10	1	-1E+10	1	-1E+10	1	-1E+10	1
4902549	94	C	03/20/2023	22:09	-133.681	47.541	0	1325.30	0	2.6220	0	34.4600	0	27.495	0	1310.063	0	12.5	4	3.8	4	-1E+10	1	-1E+10	1	-1E+10	1	-1E+10	1	-1E+10	1	-1E+10	1
4902549	94	C	03/20/2023	22:09	-133.681	47.541	0	1335.50	0	2.6100	0	34.4630	0	27.499	0	1320.114	0	12.9	4	3.9	4	-1E+10	1	-1E+10	1	-1E+10	1	-1E+10	1	-1E+10	1	-1E+10	1
4902549	94	C	03/20/2023	22:09	-133.681	47.541	0	1345.30	0	2.5930	0	34.4650	0	27.502	0	1329.770	0	13.3	4	4.1	4	-1E+10	1	-1E+10	1	-1E+10	1	-1E+10	1	-1E+10	1	-1E+10	1
4902549	94	C	03/20/2023	22:09	-133.681	47.541	0	1355.30	0	2.5780	0	34.4680	0	27.506	0	1339.623	0	13.6	4	4.2	4	-1E+10	1	-1E+10	1	-1E+10	1	-1E+10	1	-1E+10	1	-1E+10	1
4902549	94	C	03/20/2023	22:09	-133.681	47.541	0	1365.50	0	2.5580	0	34.4700	0	27.509	0	1349.672	0	13.9	4	4.2	4	-1E+10	1	-1E+10	1	-1E+10	1	-1E+10	1	-1E+10	1	-1E+10	1
4902549	94	C	03/20/2023	22:09	-133.681	47.541	0	1375.40	0	2.5420	0	34.4720	0	27.512	0	1359.426	0	14.3	4	4.4	4	-1E+10	1	-1E+10	1	-1E+10	1	-1E+10	1	-1E+10	1	-1E+10	1
4902549	94	C	03/20/2023	22:09	-133.681	47.541	0	1385.20	0	2.5300	0	34.4740	0	27.515	0	1369.080	0	14.6	4	4.4	4	-1E+10	1	-1E+10	1	-1E+10	1	-1E+10	1	-1E+10	1	-1E+10	1
4902549	94	C	03/20/2023	22:09	-133.681	47.541	0	1395.10	0	2.5180	0	34.4750	0	27.517	0	1378.833	0	15.0	4	4.6	4	-1E+10	1	-1E+10	1	-1E+10	1	-1E+10	1	-1E+10	1	-1E+10	1
4902549	94	C	03/20/2023	22:09	-133.681	47.541	0	1405.20	0	2.5030	0	34.4790	0	27.521	0	1388.782	0	15.6	4	4.8	4	-1E+10	1	-1E+10	1	-1E+10	1	-1E+10	1	-1E+10	1	-1E+10	1
4902549	94	C	03/20/2023	22:09	-133.681	47.541	0	1415.00	0	2.4910	0	34.4820	0	27.525	0	1398.435	0	16.2	4	4.9	4	-1E+10	1	-1E+10	1	-1E+10	1	-1E+10	1	-1E+10	1	-1E+10	1
4902549	94	C	03/20/2023	22:09	-133.681	47.541	0	1425.50	0	2.4770	0	34.4840	0	27.527	0	1408.777	0	16.8	4	5.1	4	-1E+10	1	-1E+10	1	-1E+10	1	-1E+10	1	-1E+10	1	-1E+10	1
4902549	94	C	03/20/2023	22:09	-133.681	47.541	0	1435.40	0	2.4650	0	34.4870	0	27.531	0	1418.527	0	17.4	4	5.3	4	-1E+10	1	-1E+10	1	-1E+10	1	-1E+10	1	-1E+10	1	-1E+10	1
4902549	94	C	03/20/2023	22:09	-133.681	47.541	0	1445.40	0	2.4570	0	34.4900	0	27.534	0	1428.376	0	18.0	4	5.5	4	-1E+10	1	-1E+10	1	-1E+10	1	-1E+10	1	-1E+10	1	-1E+10	1
4902549	94	C	03/20/2023	22:09	-133.681	47.541	0	1455.40	0	2.4470	0	34.4930	0	27.537	0	1438.224	0	18.6	4	5.7	4	-1E+10	1	-1E+10	1	-1E+10	1	-1E+10	1	-1E+10	1	-1E+10	1
4902549	94	C	03/20/2023	22:09	-133.681	47.541	0	1465.00	0	2.4310	0	34.4950	0	27.540	0	1447.678	0	19.1	4	5.8	4	-1E+10	1	-1E+10	1	-1E+10	1	-1E+10	1	-1E+10	1	-1E+10	1
4902549	94	C	03/20/2023	22:09	-133.681	47.541	0	1475.00	0	2.4140	0	34.4980	0	27.544	0	1457.525	0	19.7	4	6.0	4	-1E+10	1	-1E+10	1	-1E+10	1	-1E+10	1	-1E+10	1	-1E+10	1
4902549	94	C	03/20/2023	22:09	-133.681	47.541	0	1485.50	0	2.4030	0	34.5000	0	27.547	0	1467.864	0	20.3	4	6.2	4	-1E+10	1	-1E+10	1	-1E+10	1	-1E+10	1	-1E+10	1	-1E+10	1
4902549	94	C	03/20/2023	22:09	-133.681	47.541	0	1495.60	0	2.3920	0	34.5020	0	27.549	0	1477.809	0	20.9	4	6.4	4	-1E+10	1	-1E+10	1	-1E+10	1	-1E+10	1	-1E+10	1	-1E+10	1
4902549	94	C	03/20/2023	22:09	-133.681	47.541	0	1505.50	0	2.3870	0	34.5050	0	27.552	0	1487.557	0	21.6	4	6.6	4	-1E+10	1	-1E+10	1	-1E+10	1	-1E+10	1	-1E+10	1	-1E+10	1
4902549	94	C	03/20/2023	22:09	-133.681	47.541	0	1515.60	0	2.3760	0	34.5070	0	27.555	0	1497.500	0	22.0	4	6.7	4	-1E+10	1	-1E+10	1	-1E+10	1	-1E+10	1	-1E+10	1	-1E+10	1
4902549	94	C	03/20/2023	22:09	-133.681	47.541	0	1525.70	0	2.3650	0	34.5090	0	27.557	0	1507.444	0	22.5	4	6.9	4	-1E+10	1	-1E+10	1	-1E+10	1	-1E+10	1	-1E+10	1	-1E+10	1
4902549	94	C	03/20/2023	22:09	-133.681	47.541	0	1535.30	0	2.3580	0	34.5110	0	27.559	0	1516.895	0	22.9	4	7.0	4	-1E+10	1	-1E+10	1	-1E+10	1	-1E+10	1	-1E+10	1	-1E+10	1
4902549	94	C	03/20/2023	22:09	-133.681	47.541	0	1545.20	0	2.3500	0	34.5120	0	27.561	0	1526.640	0	23.4	4	7.1	4	-1E+10	1	-1E+10	1	-1E+10	1	-1E+10	1	-1E+10	1	-1E+10	1
4902549	94	C	03/20/2023	22:09	-133.681	47.541	0	1555.70	0	2.3390	0	34.5140	0	27.563	0	1536.976	0	23.8	4	7.2	4	-1E+10	1	-1E+10	1	-1E+10	1	-1E+10	1	-1E+10	1	-1E+10	1
4902549	94	C	03/20/2023	22:09	-133.681	47.541	0	1565.60	0	2.3330	0	34.5150	0	27.565	0	1546.721	0	24.2	4	7.4	4	-1E+10	1	-1E+10	1	-1E+10	1	-1E+10	1	-1E+10	1	-1E+10	1
4902549	94	C	03/20/2023	22:09	-133.681	47.541	0	1575.50	0	2.3210	0	34.5170	0	27.567	0	1556.465	0	24.7	4	7.5	4	-1E+10	1	-1E+10	1	-1E+10	1	-1E+10	1	-1E+10	1	-1E+10	1
4902549	94	C	03/20/2023	22:09	-133.681	47.541	0	1585.30	0	2.3110	0	34.5180	0	27.569	0	1566.110	0	25.1	4	7.6	4	-1E+10	1	-1E+10	1	-1E+10	1	-1E+10	1	-1E+10	1	-1E+10	1
4902549	94	C	03/20/2023	22:09	-133.681	47.541	0	1595.10	0	2.3030	0	34.5200	0	27.571	0	1575.755	0	25.6	4	7.8	4	-1E+10	1	-1E+10	1	-1E+10	1	-1E+10	1	-1E+10	1	-1E+10	1
4902549	94	C	03/20/2023	22:09	-133.681	47.541	0	1605.30	0	2.2900	0	34.5220	0	27.574	0	1585.793	0	26.2	4	8.0	4	-1E+10	1	-1E+10	1	-1E+10	1	-1E+10	1	-1E+10	1	-1E+10	1
4902549	94	C	03/20/2023	22:09	-133.681	47.541	0	1615.40	0	2.2740	0	34.5240	0	27.577	0	1595.732	0	26.7	4	8.1	4	-1E+10	1	-1E+10	1	-1E+10	1	-1E+10	1	-1E+10	1	-1E+10	1
4902549	94	C	03/20/2023	22:09	-133.681	47.541	0	1625.50	0	2.2640	0	34.5250	0	27.579	0	1605.671	0	27.2	4	8.3	4	-1E+10	1	-1E+10	1	-1E+10	1	-1E+10	1	-1E+10	1	-1E+10	1
4902549	94	C	03/20/2023	22:09	-133.681	47.541	0	1635.60	0	2.2520	0	34.5270	0	27.581	0	1615.609	0	27.8	4	8.4	4	-1E+10	1	-1E+10	1	-1E+10	1	-1E+10	1	-1E+10	1	-1E+10	1
4902549	94	C	03/20/2023	22:09	-133.681	47.541	0	1645.70	0	2.2370	0	34.5290	0	27.584	0	1625.547	0	28.6	4	8.7	4	-1E+10	1	-1E+10	1	-1E+10	1	-1E+10	1	-1E+10	1	-1E+10	1
4902549	94	C	03/20/2023	22:09	-133.681	47.541	0	1655.40	0	2.2260	0	34.5310	0	27.587	0	1635.091	0	29.4	4	8.9	4	-1E+10	1	-1E+10	1	-1E+10	1	-1E+10	1	-1E+10	1	-1E+10	1
4902549	94	C	03/20/2023	22:09	-133.681	47.541	0	1665.20	0	2.2100	0	34.5340	0	27.591	0	1644.733	0	30.2	4	9.1	4	-1E+10	1	-1E+10	1	-1E+10	1	-1E+10	1	-1E+10	1	-1E+10	1
4902549	94	C	03/20/2023	22:09	-133.681	47.541	0	1675.60	0	2.1990	0	34.5360	0	27.593	0	1654.964	0	30.8	4	9.3	4	-1E+10	1	-1E+10	1	-1E+10	1	-1E+10	1	-1E+10	1	-1E+10	1
4902549	94	C	03/20/2023	22:09	-133.681	47.541	0	1685.60	0	2.1910	0	34.5370	0	27.595	0	1664.802	0	31.4	4	9.5	4	-1E+10	1	-1E+10	1	-1E+10	1	-1E+10	1	-1E+10	1	-1E+10	1
4902549	94	C	03/20/2023	22:09	-133.681	47.541	0	1695.60	0	2.1800	0	34.5380	0	27.596	0	1674.639	0	31.8	4	9.6	4	-1E+10	1	-1E+10	1	-1E+10	1	-1E+10	1	-1E+10	1	-1E+10	1
4902549	94	C	03/20/2023	22:09	-133.681	47.541	0	1705.50	0	2.1640	0	34.5400	0	27.599	0	1684.378	0	32.7	4	9.9	4	-1E+10	1	-1E+10	1	-1E+10	1	-1E+10	1	-1E+10	1	-1E+10	1
4902549	94	C	03/20/2023	22:09	-133.681	47.541	0	1715.10	0	2.1500	0	34.5430	0	27.603	0	1693.820	0	33.4	4	10.1	4	-1E+10	1	-1E+10	1	-1E+10	1	-1E+10	1	-1E+10	1	-1E+10	1
4902549	94	C	03/20/2023	22:09	-133.681	47.541	0	1725.10	0	2.1400	0	34.5440	0	27.604	0	1703.656	0	34.1	4	10.3	4	-1E+10	1	-1E+10	1	-1E+10	1	-1E+10	1	-1E+10	1	-1E+10	1
4902549	94	C	03/20/2023	22:09	-133.681	47.541	0	1735.10	0	2.1320	0	34.5460	0	27.607	0	1713.491	0	34.8	4	10.5	4	-1E+10	1	-1E+10	1	-1E+10	1	-1E+10	1	-1E+10	1	-1E+10	1
4902549	94	C	03/20/2023	22:09	-133.681	47.541	0	1745.30	0	2.1210	0	34.5480	0	27.609	0	1723.523	0	35.5	4	10.7	4	-1E+10	1	-1E+10	1	-1E+10	1	-1E+10	1	-1E+10	1	-1E+10	1
4902549	94	C	03/20/2023	22:09	-133.681	47.541	0	1755.60	0	2.1130	0	34.5500	0	27.612	0	1733.653	0	36.2	4	11.0	4	-1E+10	1	-1E+10	1	-1E+10	1	-1E+10	1	-1E+10	1	-1E+10	1
4902549	94	C	03/20/2023	22:09	-133.681	47.541	0	1765.60	0	2.1060	0	34.5510	0	27.613	0	1743.486	0	36.9	4	11.1	4	-1E+10	1	-1E+10	1	-1E+10	1	-1E+10	1	-1E+10	1	-1E+10	1
4902549	94	C	03/20/2023	22:09	-133.681	47.541	0	1775.20	0	2.0970	0	34.5530	0	27.615	0	1752.927	0	37.7	4	11.4	4	-1E+10	1	-1E+10	1	-1E+10	1	-1E+10	1	-1E+10	1	-1E+10	1
4902549	94	C	03/20/2023	22:09	-133.681	47.541	0	1785.30	0	2.0850	0	34.5550	0	27.618	0	1762.858	0	38.7	4	11.7	4	-1E+10	1	-1E+10	1	-1E+10	1	-1E+10	1	-1E+10	1	-1E+10	1
4902549	94	C	03/20/2023	22:09	-133.681	47.541	0	1795.60	0	2.0710	0	34.5580	0	27.621	0	1772.986	0	39.5	4	11.9	4	-1E+10	1	-1E+10	1	-1E+10	1	-1E+10	1	-1E+10	1	-1E+10	1
4902549	94	C	03/20/2023	22:09	-133.681	47.541	0	1805.50	0	2.0630	0	34.5590	0	27.623	0	1782.719	0	40.0	4	12.1	4	-1E+10	1	-1E+10	1	-1E+10	1	-1E+10	1	-1E+10	1	-1E+10	1
4902549	94	C	03/20/2023	22:09	-133.681	47.541	0	1815.60	0	2.0550	0	34.5610	0	27.625	0	1792.649	0	40.7	4	12.3	4	-1E+10	1	-1E+10	1	-1E+10	1	-1E+10	1	-1E+10	1	-1E+10	1
4902549	94	C	03/20/2023	22:09	-133.681	47.541	0	1825.60	0	2.0460	0	34.5620	0	27.627	0	1802.481	0	41.4	4	12.5	4	-1E+10	1	-1E+10	1	-1E+10	1	-1E+10	1	-1E+10	1	-1E+10	1
4902549	94	C	03/20/2023	22:09	-133.681	47.541	0	1835.60	0	2.0380	0	34.5640	0	27.629	0	1812.311	0	42.1	4	12.7	4	-1E+10	1	-1E+10	1	-1E+10	1	-1E+10	1	-1E+10	1	-1E+10	1
4902549	94	C	03/20/2023	22:09	-133.681	47.541	0	1845.50	0	2.0280	0	34.5660	0	27.632	0	1822.043	0	42.8	4	12.9	4	-1E+10	1	-1E+10	1	-1E+10	1	-1E+10	1	-1E+10	1	-1E+10	1
4902549	94	C	03/20/2023	22:09	-133.681	47.541	0	1855.50	0	2.0210	0	34.5670	0	27.633	0	1831.873	0	43.4	4	13.1	4	-1E+10	1	-1E+10	1	-1E+10	1	-1E+10	1	-1E+10	1	-1E+10	1
4902549	94	C	03/20/2023	22:09	-133.681	47.541	0	1865.70	0	2.0120	0	34.5680	0	27.634	0	1841.899	0	43.9	4	13.2	4	-1E+10	1	-1E+10	1	-1E+10	1	-1E+10	1	-1E+10	1	-1E+10	1
4902549	94	C	03/20/2023	22:09	-133.681	47.541	0	1875.60	0	2.0080	0	34.5690	0	27.636	0	1851.630	0	44.4	4	13.4	4	-1E+10	1	-1E+10	1	-1E+10	1	-1E+10	1	-1E+10	1	-1E+10	1
4902549	94	C	03/20/2023	22:09	-133.681	47.541	0	1885.80	0	2.0020	0	34.5700	0	27.637	0	1861.655	0	45.0	4	13.6	4	-1E+10	1	-1E+10	1	-1E+10	1	-1E+10	1	-1E+10	1	-1E+10	1
4902549	94	C	03/20/2023	22:09	-133.681	47.541	0	1895.50	0	1.9940	0	34.5720	0	27.639	0	1871.188	0	45.8	4	13.8	4	-1E+10	1	-1E+10	1	-1E+10	1	-1E+10	1	-1E+10	1	-1E+10	1
4902549	94	C	03/20/2023	22:09	-133.681	47.541	0	1905.20	0	1.9830	0	34.5740	0	27.642	0	1880.721	0	46.5	4	14.0	4	-1E+10	1	-1E+10	1	-1E+10	1	-1E+10	1	-1E+10	1	-1E+10	1
4902549	94	C	03/20/2023	22:09	-133.681	47.541	0	1915.60	0	1.9760	0	34.5750	0	27.643	0	1890.941	0	47.0	4	14.2	4	-1E+10	1	-1E+10	1	-1E+10	1	-1E+10	1	-1E+10	1	-1E+10	1
4902549	94	C	03/20/2023	22:09	-133.681	47.541	0	1925.50	0	1.9710	0	34.5760	0	27.644	0	1900.669	0	47.4	4	14.3	4	-1E+10	1	-1E+10	1	-1E+10	1	-1E+10	1	-1E+10	1	-1E+10	1
4902549	94	C	03/20/2023	22:09	-133.681	47.541	0	1935.30	0	1.9680	0	34.5770	0	27.645	0	1910.299	0	47.9	4	14.4	4	-1E+10	1	-1E+10	1	-1E+10	1	-1E+10	1	-1E+10	1	-1E+10	1
4902549	94	C	03/20/2023	22:09	-133.681	47.541	0	1945.30	0	1.9600	0	34.5780	0	27.647	0	1920.125	0	48.7	4	14.7	4	-1E+10	1	-1E+10	1	-1E+10	1	-1E+10	1	-1E+10	1	-1E+10	1
4902549	94	C	03/20/2023	22:09	-133.681	47.541	0	1955.10	0	1.9520	0	34.5800	0	27.649	0	1929.753	0	49.5	4	14.9	4	-1E+10	1	-1E+10	1	-1E+10	1	-1E+10	1	-1E+10	1	-1E+10	1
4902549	94	C	03/20/2023	22:09	-133.681	47.541	0	1965.50	0	1.9420	0	34.5810	0	27.651	0	1939.971	0	50.4	4	15.2	4	-1E+10	1	-1E+10	1	-1E+10	1	-1E+10	1	-1E+10	1	-1E+10	1
4902549	94	C	03/20/2023	22:09	-133.681	47.541	0	1975.50	0	1.9280	0	34.5840	0	27.654	0	1949.796	0	51.4	4	15.5	4	-1E+10	1	-1E+10	1	-1E+10	1	-1E+10	1	-1E+10	1	-1E+10	1
4902549	94	C	03/20/2023	22:09	-133.681	47.541	0	1985.40	0	1.9190	0	34.5860	0	27.657	0	1959.521	0	51.7	4	15.6	4	-1E+10	1	-1E+10	1	-1E+10	1	-1E+10	1	-1E+10	1	-1E+10	1
4902549	94	C	03/20/2023	22:09	-133.681	47.541	0	1995.40	0	1.9150	0	34.5870	0	27.658	0	1969.345	0	51.4	4	15.5	4	-1E+10	1	-1E+10	1	-1E+10	1	-1E+10	1	-1E+10	1	-1E+10	1
4902549	94	C	03/20/2023	22:09	-133.681	47.541	0																										
4902549	95	C	03/31/2023	03:05	-133.546	47.629	0	0.30	0	7.5120	0	32.4030	0	25.304	0	0.297	0	-1e10	1	-1e10	1	-1E+10	1	-1E+10	1	-1E+10	1	-1E+10	1	-1E+10	1	-1E+10	1
4902549	95	C	03/31/2023	03:05	-133.546	47.629	0	0.40	0	7.5124	0	32.4027	0	25.304	0	0.397	0	279.9	4	94.7	4	-1E+10	1	-1E+10	1	-1E+10	1	-1E+10	1	-1E+10	1	-1E+10	1
4902549	95	C	03/31/2023	03:05	-133.546	47.629	0	1.00	0	7.5150	0	32.4010	0	25.302	0	0.992	0	279.9	4	94.7	4	-1E+10	1	-1E+10	1	-1E+10	1	-1E+10	1	-1E+10	1	-1E+10	1
4902549	95	C	03/31/2023	03:05	-133.546	47.629	0	1.40	0	7.5158	0	32.4006	0	25.302	0	1.388	0	279.9	4	94.7	4	-1E+10	1	-1E+10	1	-1E+10	1	-1E+10	1	-1E+10	1	-1E+10	1
4902549	95	C	03/31/2023	03:05	-133.546	47.629	0	2.00	0	7.5170	0	32.4000	0	25.301	0	1.983	0	279.9	4	94.7	4	-1E+10	1	-1E+10	1	-1E+10	1	-1E+10	1	-1E+10	1	-1E+10	1
4902549	95	C	03/31/2023	03:05	-133.546	47.629	0	3.10	0	7.5170	0	32.4000	0	25.301	0	3.074	0	279.8	4	94.6	4	-1E+10	1	-1E+10	1	-1E+10	1	-1E+10	1	-1E+10	1	-1E+10	1
4902549	95	C	03/31/2023	03:05	-133.546	47.629	0	4.10	0	7.5180	0	32.4000	0	25.301	0	4.066	0	279.8	4	94.7	4	-1E+10	1	-1E+10	1	-1E+10	1	-1E+10	1	-1E+10	1	-1E+10	1
4902549	95	C	03/31/2023	03:05	-133.546	47.629	0	5.20	0	7.5190	0	32.4010	0	25.302	0	5.156	0	279.7	4	94.6	4	-1E+10	1	-1E+10	1	-1E+10	1	-1E+10	1	-1E+10	1	-1E+10	1
4902549	95	C	03/31/2023	03:05	-133.546	47.629	0	5.90	0	7.5190	0	32.4000	0	25.301	0	5.851	0	279.7	4	94.6	4	-1E+10	1	-1E+10	1	-1E+10	1	-1E+10	1	-1E+10	1	-1E+10	1
4902549	95	C	03/31/2023	03:05	-133.546	47.629	0	7.00	0	7.5200	0	32.4010	0	25.302	0	6.941	0	279.7	4	94.6	4	-1E+10	1	-1E+10	1	-1E+10	1	-1E+10	1	-1E+10	1	-1E+10	1
4902549	95	C	03/31/2023	03:05	-133.546	47.629	0	7.90	0	7.5210	0	32.4010	0	25.301	0	7.834	0	279.6	4	94.6	4	-1E+10	1	-1E+10	1	-1E+10	1	-1E+10	1	-1E+10	1	-1E+10	1
4902549	95	C	03/31/2023	03:05	-133.546	47.629	0	8.80	0	7.5210	0	32.4010	0	25.301	0	8.726	0	279.6	4	94.6	4	-1E+10	1	-1E+10	1	-1E+10	1	-1E+10	1	-1E+10	1	-1E+10	1
4902549	95	C	03/31/2023	03:05	-133.546	47.629	0	9.80	0	7.5210	0	32.4010	0	25.301	0	9.718	0	279.6	4	94.6	4	-1E+10	1	-1E+10	1	-1E+10	1	-1E+10	1	-1E+10	1	-1E+10	1
4902549	95	C	03/31/2023	03:05	-133.546	47.629	0	10.80	0	7.5210	0	32.4010	0	25.301	0	10.709	0	279.6	4	94.6	4	-1E+10	1	-1E+10	1	-1E+10	1	-1E+10	1	-1E+10	1	-1E+10	1
4902549	95	C	03/31/2023	03:05	-133.546	47.629	0	11.90	0	7.5210	0	32.4010	0	25.301	0	11.800	0	279.6	4	94.6	4	-1E+10	1	-1E+10	1	-1E+10	1	-1E+10	1	-1E+10	1	-1E+10	1
4902549	95	C	03/31/2023	03:05	-133.546	47.629	0	12.90	0	7.5210	0	32.4000	0	25.301	0	12.792	0	279.5	4	94.6	4	-1E+10	1	-1E+10	1	-1E+10	1	-1E+10	1	-1E+10	1	-1E+10	1
4902549	95	C	03/31/2023	03:05	-133.546	47.629	0	14.00	0	7.5210	0	32.4010	0	25.301	0	13.883	0	279.5	4	94.6	4	-1E+10	1	-1E+10	1	-1E+10	1	-1E+10	1	-1E+10	1	-1E+10	1
4902549	95	C	03/31/2023	03:05	-133.546	47.629	0	14.90	0	7.5210	0	32.4000	0	25.301	0	14.775	0	279.5	4	94.6	4	-1E+10	1	-1E+10	1	-1E+10	1	-1E+10	1	-1E+10	1	-1E+10	1
4902549	95	C	03/31/2023	03:05	-133.546	47.629	0	15.90	0	7.5220	0	32.4010	0	25.301	0	15.767	0	279.5	4	94.6	4	-1E+10	1	-1E+10	1	-1E+10	1	-1E+10	1	-1E+10	1	-1E+10	1
4902549	95	C	03/31/2023	03:05	-133.546	47.629	0	16.70	0	7.5210	0	32.4010	0	25.302	0	16.560	0	279.5	4	94.6	4	-1E+10	1	-1E+10	1	-1E+10	1	-1E+10	1	-1E+10	1	-1E+10	1
4902549	95	C	03/31/2023	03:05	-133.546	47.629	0	17.80	0	7.5210	0	32.4010	0	25.302	0	17.650	0	279.5	4	94.6	4	-1E+10	1	-1E+10	1	-1E+10	1	-1E+10	1	-1E+10	1	-1E+10	1
4902549	95	C	03/31/2023	03:05	-133.546	47.629	0	18.80	0	7.5210	0	32.4000	0	25.301	0	18.642	0	279.5	4	94.6	4	-1E+10	1	-1E+10	1	-1E+10	1	-1E+10	1	-1E+10	1	-1E+10	1
4902549	95	C	03/31/2023	03:05	-133.546	47.629	0	19.80	0	7.5210	0	32.4010	0	25.302	0	19.634	0	279.4	4	94.5	4	-1E+10	1	-1E+10	1	-1E+10	1	-1E+10	1	-1E+10	1	-1E+10	1
4902549	95	C	03/31/2023	03:05	-133.546	47.629	0	21.00	0	7.5210	0	32.4010	0	25.302	0	20.823	0	279.4	4	94.5	4	-1E+10	1	-1E+10	1	-1E+10	1	-1E+10	1	-1E+10	1	-1E+10	1
4902549	95	C	03/31/2023	03:05	-133.546	47.629	0	21.70	0	7.5210	0	32.4000	0	25.301	0	21.518	0	279.3	4	94.5	4	-1E+10	1	-1E+10	1	-1E+10	1	-1E+10	1	-1E+10	1	-1E+10	1
4902549	95	C	03/31/2023	03:05	-133.546	47.629	0	22.90	0	7.5220	0	32.4010	0	25.301	0	22.707	0	279.3	4	94.5	4	-1E+10	1	-1E+10	1	-1E+10	1	-1E+10	1	-1E+10	1	-1E+10	1
4902549	95	C	03/31/2023	03:05	-133.546	47.629	0	24.10	0	7.5200	0	32.4000	0	25.301	0	23.897	0	279.3	4	94.5	4	-1E+10	1	-1E+10	1	-1E+10	1	-1E+10	1	-1E+10	1	-1E+10	1
4902549	95	C	03/31/2023	03:05	-133.546	47.629	0	25.00	0	7.5210	0	32.4000	0	25.301	0	24.790	0	279.2	4	94.5	4	-1E+10	1	-1E+10	1	-1E+10	1	-1E+10	1	-1E+10	1	-1E+10	1
4902549	95	C	03/31/2023	03:05	-133.546	47.629	0	25.80	0	7.5210	0	32.3970	0	25.298	0	25.583	0	279.2	4	94.5	4	-1E+10	1	-1E+10	1	-1E+10	1	-1E+10	1	-1E+10	1	-1E+10	1
4902549	95	C	03/31/2023	03:05	-133.546	47.629	0	27.00	0	7.5200	0	32.4000	0	25.301	0	26.773	0	279.0	4	94.4	4	-1E+10	1	-1E+10	1	-1E+10	1	-1E+10	1	-1E+10	1	-1E+10	1
4902549	95	C	03/31/2023	03:05	-133.546	47.629	0	27.90	0	7.5140	0	32.4030	0	25.304	0	27.665	0	279.0	4	94.4	4	-1E+10	1	-1E+10	1	-1E+10	1	-1E+10	1	-1E+10	1	-1E+10	1
4902549	95	C	03/31/2023	03:05	-133.546	47.629	0	28.80	0	7.5070	0	32.3990	0	25.302	0	28.557	0	279.1	4	94.4	4	-1E+10	1	-1E+10	1	-1E+10	1	-1E+10	1	-1E+10	1	-1E+10	1
4902549	95	C	03/31/2023	03:05	-133.546	47.629	0	30.00	0	7.5070	0	32.3990	0	25.302	0	29.747	0	279.0	4	94.4	4	-1E+10	1	-1E+10	1	-1E+10	1	-1E+10	1	-1E+10	1	-1E+10	1
4902549	95	C	03/31/2023	03:05	-133.546	47.629	0	30.90	0	7.5070	0	32.3990	0	25.302	0	30.639	0	279.1	4	94.4	4	-1E+10	1	-1E+10	1	-1E+10	1	-1E+10	1	-1E+10	1	-1E+10	1
4902549	95	C	03/31/2023	03:05	-133.546	47.629	0	31.80	0	7.5070	0	32.3990	0	25.302	0	31.532	0	278.9	4	94.3	4	-1E+10	1	-1E+10	1	-1E+10	1	-1E+10	1	-1E+10	1	-1E+10	1
4902549	95	C	03/31/2023	03:05	-133.546	47.629	0	33.00	0	7.5080	0	32.3990	0	25.302	0	32.722	0	279.0	4	94.4	4	-1E+10	1	-1E+10	1	-1E+10	1	-1E+10	1	-1E+10	1	-1E+10	1
4902549	95	C	03/31/2023	03:05	-133.546	47.629	0	33.90	0	7.5080	0	32.3990	0	25.302	0	33.614	0	278.9	4	94.3	4	-1E+10	1	-1E+10	1	-1E+10	1	-1E+10	1	-1E+10	1	-1E+10	1
4902549	95	C	03/31/2023	03:05	-133.546	47.629	0	34.80	0	7.5080	0	32.3990	0	25.302	0	34.506	0	278.9	4	94.3	4	-1E+10	1	-1E+10	1	-1E+10	1	-1E+10	1	-1E+10	1	-1E+10	1
4902549	95	C	03/31/2023	03:05	-133.546	47.629	0	35.90	0	7.5070	0	32.3990	0	25.302	0	35.597	0	278.9	4	94.3	4	-1E+10	1	-1E+10	1	-1E+10	1	-1E+10	1	-1E+10	1	-1E+10	1
4902549	95	C	03/31/2023	03:05	-133.546	47.629	0	36.90	0	7.5070	0	32.3990	0	25.302	0	36.588	0	278.8	4	94.3	4	-1E+10	1	-1E+10	1	-1E+10	1	-1E+10	1	-1E+10	1	-1E+10	1
4902549	95	C	03/31/2023	03:05	-133.546	47.629	0	38.10	0	7.5070	0	32.3990	0	25.302	0	37.778	0	278.8	4	94.3	4	-1E+10	1	-1E+10	1	-1E+10	1	-1E+10	1	-1E+10	1	-1E+10	1
4902549	95	C	03/31/2023	03:05	-133.546	47.629	0	39.00	0	7.5060	0	32.3990	0	25.302	0	38.670	0	278.8	4	94.3	4	-1E+10	1	-1E+10	1	-1E+10	1	-1E+10	1	-1E+10	1	-1E+10	1
4902549	95	C	03/31/2023	03:05	-133.546	47.629	0	39.90	0	7.5050	0	32.3990	0	25.302	0	39.563	0	278.7	4	94.3	4	-1E+10	1	-1E+10	1	-1E+10	1	-1E+10	1	-1E+10	1	-1E+10	1
4902549	95	C	03/31/2023	03:05	-133.546	47.629	0	41.10	0	7.5060	0	32.3990	0	25.302	0	40.752	0	278.6	4	94.2	4	-1E+10	1	-1E+10	1	-1E+10	1	-1E+10	1	-1E+10	1	-1E+10	1
4902549	95	C	03/31/2023	03:05	-133.546	47.629	0	42.00	0	7.5030	0	32.3990	0	25.303	0	41.645	0	278.7	4	94.3	4	-1E+10	1	-1E+10	1	-1E+10	1	-1E+10	1	-1E+10	1	-1E+10	1
4902549	95	C	03/31/2023	03:05	-133.546	47.629	0	43.00	0	7.5010	0	32.3990	0	25.303	0	42.636	0	278.6	4	94.2	4	-1E+10	1	-1E+10	1	-1E+10	1	-1E+10	1	-1E+10	1	-1E+10	1
4902549	95	C	03/31/2023	03:05	-133.546	47.629	0	44.00	0	7.5010	0	32.3980	0	25.302	0	43.628	0	278.5	4	94.2	4	-1E+10	1	-1E+10	1	-1E+10	1	-1E+10	1	-1E+10	1	-1E+10	1
4902549	95	C	03/31/2023	03:05	-133.546	47.629	0	45.00	0	7.5010	0	32.3990	0	25.303	0	44.619	0	278.6	4	94.2	4	-1E+10	1	-1E+10	1	-1E+10	1	-1E+10	1	-1E+10	1	-1E+10	1
4902549	95	C	03/31/2023	03:05	-133.546	47.629	0	46.10	0	7.5010	0	32.3990	0	25.303	0	45.710	0	278.5	4	94.2	4	-1E+10	1	-1E+10	1	-1E+10	1	-1E+10	1	-1E+10	1	-1E+10	1
4902549	95	C	03/31/2023	03:05	-133.546	47.629	0	47.10	0	7.5000	0	32.3990	0	25.303	0	46.701	0	278.5	4	94.2	4	-1E+10	1	-1E+10	1	-1E+10	1	-1E+10	1	-1E+10	1	-1E+10	1
4902549	95	C	03/31/2023	03:05	-133.546	47.629	0	48.00	0	7.5000	0	32.3990	0	25.303	0	47.593	0	278.6	4	94.2	4	-1E+10	1	-1E+10	1	-1E+10	1	-1E+10	1	-1E+10	1	-1E+10	1
4902549	95	C	03/31/2023	03:05	-133.546	47.629	0	49.00	0	7.4970	0	32.3980	0	25.303	0	48.585	0	278.6	4	94.2	4	-1E+10	1	-1E+10	1	-1E+10	1	-1E+10	1	-1E+10	1	-1E+10	1
4902549	95	C	03/31/2023	03:05	-133.546	47.629	0	49.90	0	7.4900	0	32.3980	0	25.304	0	49.477	0	278.6	4	94.2	4	-1E+10	1	-1E+10	1	-1E+10	1	-1E+10	1	-1E+10	1	-1E+10	1
4902549	95	C	03/31/2023	03:05	-133.546	47.629	0	51.10	0	7.4860	0	32.3970	0	25.304	0	50.667	0	278.5	4	94.2	4	-1E+10	1	-1E+10	1	-1E+10	1	-1E+10	1	-1E+10	1	-1E+10	1
4902549	95	C	03/31/2023	03:05	-133.546	47.629	0	52.00	0	7.4860	0	32.3970	0	25.304	0	51.559	0	278.5	4	94.2	4	-1E+10	1	-1E+10	1	-1E+10	1	-1E+10	1	-1E+10	1	-1E+10	1
4902549	95	C	03/31/2023	03:05	-133.546	47.629	0	53.00	0	7.4760	0	32.3960	0	25.304	0	52.550	0	278.6	4	94.1	4	-1E+10	1	-1E+10	1	-1E+10	1	-1E+10	1	-1E+10	1	-1E+10	1
4902549	95	C	03/31/2023	03:05	-133.546	47.629	0	54.00	0	7.4760	0	32.3960	0	25.304	0	53.542	0	278.5	4	94.1	4	-1E+10	1	-1E+10	1	-1E+10	1	-1E+10	1	-1E+10	1	-1E+10	1
4902549	95	C	03/31/2023	03:05	-133.546	47.629	0	55.00	0	7.4750	0	32.3960	0	25.304	0	54.533	0	278.4	4	94.1	4	-1E+10	1	-1E+10	1	-1E+10	1	-1E+10	1	-1E+10	1	-1E+10	1
4902549	95	C	03/31/2023	03:05	-133.546	47.629	0	55.90	0	7.4710	0	32.3960	0	25.305	0	55.425	0	278.5	4	94.1	4	-1E+10	1	-1E+10	1	-1E+10	1	-1E+10	1	-1E+10	1	-1E+10	1
4902549	95	C	03/31/2023	03:05	-133.546	47.629	0	57.00	0	7.4690	0	32.3960	0	25.305	0	56.516	0	278.5	4	94.1	4	-1E+10	1	-1E+10	1	-1E+10	1	-1E+10	1	-1E+10	1	-1E+10	1
4902549	95	C	03/31/2023	03:05	-133.546	47.629	0	58.10	0	7.4690	0	32.3960	0	25.305	0	57.606	0	278.5	4	94.1	4	-1E+10	1	-1E+10	1	-1E+10	1	-1E+10	1	-1E+10	1	-1E+10	1
4902549	95	C	03/31/2023	03:05	-133.546	47.629	0	58.80	0	7.4680	0	32.3960	0	25.305	0	58.300	0	278.5	4	94.1	4	-1E+10	1	-1E+10	1	-1E+10	1	-1E+10	1	-1E+10	1	-1E+10	1
4902549	95	C	03/31/2023	03:05	-133.546	47.629	0	59.90	0	7.4680	0	32.3960	0	25.305	0	59.391	0	278.6	4	94.1	4	-1E+10	1	-1E+10	1	-1E+10	1	-1E+10	1	-1E+10	1	-1E+10	1
4902549	95	C	03/31/2023	03:05	-133.546	47.629	0	61.00	0	7.4670	0	32.3960	0	25.306	0	60.481	0	278.4	4	94.1	4	-1E+10	1	-1E+10	1	-1E+10	1	-1E+10	1	-1E+10	1	-1E+10	1
4902549	95	C	03/31/2023	03:05	-133.546	47.629	0	62.00	0	7.4670	0	32.3960	0	25.306	0	61.473	0	278.5	4	94.1	4	-1E+10	1	-1E+10	1	-1E+10	1	-1E+10	1	-1E+10	1	-1E+10	1
4902549	95	C	03/31/2023	03:05	-133.546	47.629	0	63.10	0	7.4640	0	32.3960	0	25.306	0	62.563	0	278.5	4	94.1	4	-1E+10	1	-1E+10	1	-1E+10	1	-1E+10	1	-1E+10	1	-1E+10	1
4902549	95	C	03/31/2023	03:05	-133.546	47.629	0	63.80	0	7.4640	0	32.3960	0	25.306	0	63.257	0	278.3	4	94.0	4	-1E+10	1	-1E+10	1	-1E+10	1	-1E+10	1	-1E+10	1	-1E+10	1
4902549	95	C	03/31/2023	03:05	-133.546	47.629	0	64.90	0	7.4610	0	32.3950	0	25.306	0	64.347	0	278.4	4	94.1	4	-1E+10	1	-1E+10	1	-1E+10	1	-1E+10	1	-1E+10	1	-1E+10	1
4902549	95	C	03/31/2023	03:05	-133.546	47.629	0	65.90	0	7.4600	0	32.3960	0	25.307	0	65.339	0	278.4	4	94.1	4	-1E+10	1	-1E+10	1	-1E+10	1	-1E+10	1	-1E+10	1	-1E+10	1
4902549	95	C	03/31/2023	03:05	-133.546	47.629	0	66.90	0	7.4630	0	32.3960	0	25.306	0	66.330	0	278.4	4	94.1	4	-1E+10	1	-1E+10	1	-1E+10	1	-1E+10	1	-1E+10	1	-1E+10	1
4902549	95	C	03/31/2023	03:05	-133.546	47.629	0	68.00	0	7.4600	0	32.3950	0	25.306	0	67.421	0	278.3	4	94.0	4	-1E+10	1	-1E+10	1	-1E+10	1	-1E+10	1	-1E+10	1	-1E+10	1
4902549	95	C	03/31/2023	03:05	-133.546	47.629	0	69.00	0	7.4600	0	32.3960	0	25.307	0	68.412	0	278.2	4	94.0	4	-1E+10	1	-1E+10	1	-1E+10	1	-1E+10	1	-1E+10	1	-1E+10	1
4902549	95	C	03/31/2023	03:05	-133.546	47.629	0	70.10	0	7.4610	0	32.3960	0	25.307	0	69.502	0	278.2	4	94.0	4	-1E+10	1	-1E+10	1	-1E+10	1	-1E+10	1	-1E+10	1	-1E+10	1
4902549	95	C	03/31/2023	03:05	-133.546	47.629	0	70.80	0	7.4610	0	32.3960	0	25.307	0	70.196	0	278.1	4	94.0	4	-1E+10	1	-1E+10	1	-1E+10	1	-1E+10	1	-1E+10	1	-1E+10	1
4902549	95	C	03/31/2023	03:05	-133.546	47.629	0	71.90	0	7.4630	0	32.3960	0	25.306	0	71.287	0	278.1	4	93.9	4	-1E+10	1	-1E+10	1	-1E+10	1	-1E+10	1	-1E+10	1	-1E+10	1
4902549	95	C	03/31/2023	03:05	-133.546	47.629	0	73.00	0	7.4590	0	32.3950	0	25.306	0	72.377	0	278.0	4	93.9	4	-1E+10	1	-1E+10	1	-1E+10	1	-1E+10	1	-1E+10	1	-1E+10	1
4902549	95	C	03/31/2023	03:05	-133.546	47.629	0	74.20	0	7.4580	0	32.3940	0	25.305	0	73.567	0	278.0	4	93.9	4	-1E+10	1	-1E+10	1	-1E+10	1	-1E+10	1	-1E+10	1	-1E+10	1
4902549	95	C	03/31/2023	03:05	-133.546	47.629	0	74.90	0	7.4560	0	32.3940	0	25.306	0	74.261	0	277.9	4	93.9	4	-1E+10	1	-1E+10	1	-1E+10	1	-1E+10	1	-1E+10	1	-1E+10	1
4902549	95	C	03/31/2023	03:05	-133.546	47.629	0	76.10	0	7.4570	0	32.3960	0	25.307	0	75.450	0	277.8	4	93.8	4	-1E+10	1	-1E+10	1	-1E+10	1	-1E+10	1	-1E+10	1	-1E+10	1
4902549	95	C	03/31/2023	03:05	-133.546	47.629	0	76.80	0	7.4550	0	32.3950	0	25.307	0	76.144	0	277.8	4	93.8	4	-1E+10	1	-1E+10	1	-1E+10	1	-1E+10	1	-1E+10	1	-1E+10	1
4902549	95	C	03/31/2023	03:05	-133.546	47.629	0	78.00	0	7.4560	0	32.3960	0	25.307	0	77.333	0	277.7	4	93.8	4	-1E+10	1	-1E+10	1	-1E+10	1	-1E+10	1	-1E+10	1	-1E+10	1
4902549	95	C	03/31/2023	03:05	-133.546	47.629	0	79.20	0	7.4560	0	32.3960	0	25.307	0	78.523	0	277.5	4	93.8	4	-1E+10	1	-1E+10	1	-1E+10	1	-1E+10	1	-1E+10	1	-1E+10	1
4902549	95	C	03/31/2023	03:05	-133.546	47.629	0	80.00	0	7.4560	0	32.3960	0	25.307	0	79.316	0	277.6	4	93.8	4	-1E+10	1	-1E+10	1	-1E+10	1	-1E+10	1	-1E+10	1	-1E+10	1
4902549	95	C	03/31/2023	03:05	-133.546	47.629	0	81.20	0	7.4570	0	32.3970	0	25.308	0	80.506	0	277.4	4	93.7	4	-1E+10	1	-1E+10	1	-1E+10	1	-1E+10	1	-1E+10	1	-1E+10	1
4902549	95	C	03/31/2023	03:05	-133.546	47.629	0	82.10	0	7.4560	0	32.3970	0	25.308	0	81.398	0	284.4	4	96.1	4	-1E+10	1	-1E+10	1	-1E+10	1	-1E+10	1	-1E+10	1	-1E+10	1
4902549	95	C	03/31/2023	03:05	-133.546	47.629	0	82.90	0	7.4570	0	32.3970	0	25.308	0	82.191	0	284.4	4	96.1	4	-1E+10	1	-1E+10	1	-1E+10	1	-1E+10	1	-1E+10	1	-1E+10	1
4902549	95	C	03/31/2023	03:05	-133.546	47.629	0	84.10	0	7.4570	0	32.3960	0	25.307	0	83.380	0	284.4	4	96.1	4	-1E+10	1	-1E+10	1	-1E+10	1	-1E+10	1	-1E+10	1	-1E+10	1
4902549	95	C	03/31/2023	03:05	-133.546	47.629	0	85.10	0	7.4560	0	32.3970	0	25.308	0	84.371	0	284.2	4	96.0	4	-1E+10	1	-1E+10	1	-1E+10	1	-1E+10	1	-1E+10	1	-1E+10	1
4902549	95	C	03/31/2023	03:05	-133.546	47.629	0	86.20	0	7.4570	0	32.3960	0	25.307	0	85.462	0	284.2	4	96.0	4	-1E+10	1	-1E+10	1	-1E+10	1	-1E+10	1	-1E+10	1	-1E+10	1
4902549	95	C	03/31/2023	03:05	-133.546	47.629	0	87.00	0	7.4560	0	32.3960	0	25.307	0	86.255	0	284.1	4	96.0	4	-1E+10	1	-1E+10	1	-1E+10	1	-1E+10	1	-1E+10	1	-1E+10	1
4902549	95	C	03/31/2023	03:05	-133.546	47.629	0	88.20	0	7.4530	0	32.3960	0	25.308	0	87.444	0	283.9	4	95.9	4	-1E+10	1	-1E+10	1	-1E+10	1	-1E+10	1	-1E+10	1	-1E+10	1
4902549	95	C	03/31/2023	03:05	-133.546	47.629	0	89.00	0	7.4510	0	32.3960	0	25.308	0	88.237	0	283.9	4	95.9	4	-1E+10	1	-1E+10	1	-1E+10	1	-1E+10	1	-1E+10	1	-1E+10	1
4902549	95	C	03/31/2023	03:05	-133.546	47.629	0	90.20	0	7.4440	0	32.3960	0	25.309	0	89.427	0	283.8	4	95.9	4	-1E+10	1	-1E+10	1	-1E+10	1	-1E+10	1	-1E+10	1	-1E+10	1
4902549	95	C	03/31/2023	03:05	-133.546	47.629	0	91.00	0	7.4440	0	32.3950	0	25.308	0	90.220	0	283.6	4	95.8	4	-1E+10	1	-1E+10	1	-1E+10	1	-1E+10	1	-1E+10	1	-1E+10	1
4902549	95	C	03/31/2023	03:05	-133.546	47.629	0	92.20	0	7.4440	0	32.3950	0	25.308	0	91.409	0	283.5	4	95.7	4	-1E+10	1	-1E+10	1	-1E+10	1	-1E+10	1	-1E+10	1	-1E+10	1
4902549	95	C	03/31/2023	03:05	-133.546	47.629	0	92.90	0	7.4430	0	32.3960	0	25.309	0	92.103	0	283.2	4	95.7	4	-1E+10	1	-1E+10	1	-1E+10	1	-1E+10	1	-1E+10	1	-1E+10	1
4902549	95	C	03/31/2023	03:05	-133.546	47.629	0	94.10	0	7.4430	0	32.3960	0	25.309	0	93.292	0	283.0	4	95.6	4	-1E+10	1	-1E+10	1	-1E+10	1	-1E+10	1	-1E+10	1	-1E+10	1
4902549	95	C	03/31/2023	03:05	-133.546	47.629	0	94.90	0	7.4430	0	32.3960	0	25.309	0	94.085	0	282.7	4	95.5	4	-1E+10	1	-1E+10	1	-1E+10	1	-1E+10	1	-1E+10	1	-1E+10	1
4902549	95	C	03/31/2023	03:05	-133.546	47.629	0	96.00	0	7.4430	0	32.3970	0	25.310	0	95.176	0	282.3	4	95.4	4	-1E+10	1	-1E+10	1	-1E+10	1	-1E+10	1	-1E+10	1	-1E+10	1
4902549	95	C	03/31/2023	03:05	-133.546	47.629	0	97.20	0	7.4450	0	32.4000	0	25.312	0	96.365	0	282.0	4	95.2	4	-1E+10	1	-1E+10	1	-1E+10	1	-1E+10	1	-1E+10	1	-1E+10	1
4902549	95	C	03/31/2023	03:05	-133.546	47.629	0	97.90	0	7.4460	0	32.4020	0	25.314	0	97.059	0	281.7	4	95.1	4	-1E+10	1	-1E+10	1	-1E+10	1	-1E+10	1	-1E+10	1	-1E+10	1
4902549	95	C	03/31/2023	03:05	-133.546	47.629	0	99.00	0	7.4460	0	32.4020	0	25.314	0	98.149	0	281.4	4	95.0	4	-1E+10	1	-1E+10	1	-1E+10	1	-1E+10	1	-1E+10	1	-1E+10	1
4902549	95	C	03/31/2023	03:05	-133.546	47.629	0	100.10	0	7.4470	0	32.4040	0	25.315	0	99.239	0	280.8	4	94.8	4	-1E+10	1	-1E+10	1	-1E+10	1	-1E+10	1	-1E+10	1	-1E+10	1
4902549	95	C	03/31/2023	03:05	-133.546	47.629	0	100.80	0	7.4480	0	32.4030	0	25.314	0	99.933	0	280.5	4	94.8	4	-1E+10	1	-1E+10	1	-1E+10	1	-1E+10	1	-1E+10	1	-1E+10	1
4902549	95	C	03/31/2023	03:05	-133.546	47.629	0	101.90	0	7.4570	0	32.4040	0	25.314	0	101.023	0	279.9	4	94.6	4	-1E+10	1	-1E+10	1	-1E+10	1	-1E+10	1	-1E+10	1	-1E+10	1
4902549	95	C	03/31/2023	03:05	-133.546	47.629	0	102.90	0	7.4570	0	32.4060	0	25.315	0	102.015	0	279.1	4	94.3	4	-1E+10	1	-1E+10	1	-1E+10	1	-1E+10	1	-1E+10	1	-1E+10	1
4902549	95	C	03/31/2023	03:05	-133.546	47.629	0	104.00	0	7.4570	0	32.4060	0	25.315	0	103.105	0	278.3	4	94.0	4	-1E+10	1	-1E+10	1	-1E+10	1	-1E+10	1	-1E+10	1	-1E+10	1
4902549	95	C	03/31/2023	03:05	-133.546	47.629	0	105.00	0	7.4580	0	32.4080	0	25.317	0	104.096	0	277.2	4	93.7	4	-1E+10	1	-1E+10	1	-1E+10	1	-1E+10	1	-1E+10	1	-1E+10	1
4902549	95	C	03/31/2023	03:05	-133.546	47.629	0	106.00	0	7.4590	0	32.4100	0	25.318	0	105.087	0	276.0	4	93.3	4	-1E+10	1	-1E+10	1	-1E+10	1	-1E+10	1	-1E+10	1	-1E+10	1
4902549	95	C	03/31/2023	03:05	-133.546	47.629	0	107.10	0	7.4590	0	32.4110	0	25.319	0	106.177	0	274.2	4	92.6	4	-1E+10	1	-1E+10	1	-1E+10	1	-1E+10	1	-1E+10	1	-1E+10	1
4902549	95	C	03/31/2023	03:05	-133.546	47.629	0	107.80	0	7.4600	0	32.4120	0	25.320	0	106.871	0	273.0	4	92.2	4	-1E+10	1	-1E+10	1	-1E+10	1	-1E+10	1	-1E+10	1	-1E+10	1
4902549	95	C	03/31/2023	03:05	-133.546	47.629	0	108.90	0	7.4610	0	32.4140	0	25.321	0	107.961	0	270.5	4	91.4	4	-1E+10	1	-1E+10	1	-1E+10	1	-1E+10	1	-1E+10	1	-1E+10	1
4902549	95	C	03/31/2023	03:05	-133.546	47.629	0	109.90	0	7.4570	0	32.4170	0	25.324	0	108.952	0	267.3	4	90.3	4	-1E+10	1	-1E+10	1	-1E+10	1	-1E+10	1	-1E+10	1	-1E+10	1
4902549	95	C	03/31/2023	03:05	-133.546	47.629	0	111.00	0	7.4540	0	32.4200	0	25.327	0	110.043	0	263.4	4	89.0	4	-1E+10	1	-1E+10	1	-1E+10	1	-1E+10	1	-1E+10	1	-1E+10	1
4902549	95	C	03/31/2023	03:05	-133.546	47.629	0	112.00	0	7.4380	0	32.4370	0	25.343	0	111.034	0	257.3	4	86.9	4	-1E+10	1	-1E+10	1	-1E+10	1	-1E+10	1	-1E+10	1	-1E+10	1
4902549	95	C	03/31/2023	03:05	-133.546	47.629	0	112.90	0	7.4180	0	32.4550	0	25.359	0	111.926	0	250.9	4	84.7	4	-1E+10	1	-1E+10	1	-1E+10	1	-1E+10	1	-1E+10	1	-1E+10	1
4902549	95	C	03/31/2023	03:05	-133.546	47.629	0	113.80	0	7.3610	0	32.5040	0	25.406	0	112.818	0	244.1	4	82.4	4	-1E+10	1	-1E+10	1	-1E+10	1	-1E+10	1	-1E+10	1	-1E+10	1
4902549	95	C	03/31/2023	03:05	-133.546	47.629	0	114.90	0	7.1490	0	32.6710	0	25.566	0	113.908	0	239.4	4	80.5	4	-1E+10	1	-1E+10	1	-1E+10	1	-1E+10	1	-1E+10	1	-1E+10	1
4902549	95	C	03/31/2023	03:05	-133.546	47.629	0	116.00	0	6.9660	0	32.8080	0	25.698	0	114.998	0	237.3	4	79.5	4	-1E+10	1	-1E+10	1	-1E+10	1	-1E+10	1	-1E+10	1	-1E+10	1
4902549	95	C	03/31/2023	03:05	-133.546	47.629	0	116.90	0	6.9190	0	32.8420	0	25.732	0	115.890	0	235.0	4	78.7	4	-1E+10	1	-1E+10	1	-1E+10	1	-1E+10	1	-1E+10	1	-1E+10	1
4902549	95	C	03/31/2023	03:05	-133.546	47.629	0	117.80	0	6.8000	0	32.9360	0	25.821	0	116.782	0	233.1	4	77.9	4	-1E+10	1	-1E+10	1	-1E+10	1	-1E+10	1	-1E+10	1	-1E+10	1
4902549	95	C	03/31/2023	03:05	-133.546	47.629	0	118.90	0	6.7190	0	33.0040	0	25.886	0	117.872	0	231.8	4	77.3	4	-1E+10	1	-1E+10	1	-1E+10	1	-1E+10	1	-1E+10	1	-1E+10	1
4902549	95	C	03/31/2023	03:05	-133.546	47.629	0	119.90	0	6.7030	0	33.0220	0	25.902	0	118.863	0	230.7	4	77.0	4	-1E+10	1	-1E+10	1	-1E+10	1	-1E+10	1	-1E+10	1	-1E+10	1
4902549	95	C	03/31/2023	03:05	-133.546	47.629	0	121.10	0	6.6930	0	33.0420	0	25.919	0	120.053	0	229.7	4	76.6	4	-1E+10	1	-1E+10	1	-1E+10	1	-1E+10	1	-1E+10	1	-1E+10	1
4902549	95	C	03/31/2023	03:05	-133.546	47.629	0	121.90	0	6.6720	0	33.0750	0	25.948	0	120.845	0	229.3	4	76.5	4	-1E+10	1	-1E+10	1	-1E+10	1	-1E+10	1	-1E+10	1	-1E+10	1
4902549	95	C	03/31/2023	03:05	-133.546	47.629	0	122.80	0	6.6460	0	33.1110	0	25.980	0	121.737	0	228.9	4	76.3	4	-1E+10	1	-1E+10	1	-1E+10	1	-1E+10	1	-1E+10	1	-1E+10	1
4902549	95	C	03/31/2023	03:05	-133.546	47.629	0	123.70	0	6.6240	0	33.1430	0	26.008	0	122.629	0	228.7	4	76.2	4	-1E+10	1	-1E+10	1	-1E+10	1	-1E+10	1	-1E+10	1	-1E+10	1
4902549	95	C	03/31/2023	03:05	-133.546	47.629	0	124.60	0	6.6220	0	33.1440	0	26.009	0	123.521	0	228.4	4	76.1	4	-1E+10	1	-1E+10	1	-1E+10	1	-1E+10	1	-1E+10	1	-1E+10	1
4902549	95	C	03/31/2023	03:05	-133.546	47.629	0	125.90	0	6.6180	0	33.1450	0	26.010	0	124.810	0	228.1	4	76.0	4	-1E+10	1	-1E+10	1	-1E+10	1	-1E+10	1	-1E+10	1	-1E+10	1
4902549	95	C	03/31/2023	03:05	-133.546	47.629	0	127.20	0	6.6170	0	33.1460	0	26.011	0	126.098	0	227.6	4	75.8	4	-1E+10	1	-1E+10	1	-1E+10	1	-1E+10	1	-1E+10	1	-1E+10	1
4902549	95	C	03/31/2023	03:05	-133.546	47.629	0	128.10	0	6.6160	0	33.1460	0	26.011	0	126.990	0	227.1	4	75.7	4	-1E+10	1	-1E+10	1	-1E+10	1	-1E+10	1	-1E+10	1	-1E+10	1
4902549	95	C	03/31/2023	03:05	-133.546	47.629	0	128.90	0	6.6120	0	33.1480	0	26.013	0	127.783	0	226.8	4	75.6	4	-1E+10	1	-1E+10	1	-1E+10	1	-1E+10	1	-1E+10	1	-1E+10	1
4902549	95	C	03/31/2023	03:05	-133.546	47.629	0	129.80	0	6.6130	0	33.1470	0	26.012	0	128.675	0	226.2	4	75.4	4	-1E+10	1	-1E+10	1	-1E+10	1	-1E+10	1	-1E+10	1	-1E+10	1
4902549	95	C	03/31/2023	03:05	-133.546	47.629	0	130.70	0	6.6050	0	33.1570	0	26.021	0	129.567	0	225.6	4	75.2	4	-1E+10	1	-1E+10	1	-1E+10	1	-1E+10	1	-1E+10	1	-1E+10	1
4902549	95	C	03/31/2023	03:05	-133.546	47.629	0	132.00	0	6.5960	0	33.1660	0	26.030	0	130.855	0	224.6	4	74.8	4	-1E+10	1	-1E+10	1	-1E+10	1	-1E+10	1	-1E+10	1	-1E+10	1
4902549	95	C	03/31/2023	03:05	-133.546	47.629	0	133.30	0	6.5910	0	33.1680	0	26.032	0	132.143	0	223.5	4	74.4	4	-1E+10	1	-1E+10	1	-1E+10	1	-1E+10	1	-1E+10	1	-1E+10	1
4902549	95	C	03/31/2023	03:05	-133.546	47.629	0	134.20	0	6.5750	0	33.1780	0	26.042	0	133.035	0	222.4	4	74.1	4	-1E+10	1	-1E+10	1	-1E+10	1	-1E+10	1	-1E+10	1	-1E+10	1
4902549	95	C	03/31/2023	03:05	-133.546	47.629	0	135.10	0	6.5550	0	33.2200	0	26.077	0	133.927	0	221.6	4	73.8	4	-1E+10	1	-1E+10	1	-1E+10	1	-1E+10	1	-1E+10	1	-1E+10	1
4902549	95	C	03/31/2023	03:05	-133.546	47.629	0	136.00	0	6.5700	0	33.2210	0	26.076	0	134.819	0	220.7	4	73.5	4	-1E+10	1	-1E+10	1	-1E+10	1	-1E+10	1	-1E+10	1	-1E+10	1
4902549	95	C	03/31/2023	03:05	-133.546	47.629	0	137.00	0	6.5730	0	33.2300	0	26.083	0	135.810	0	219.8	4	73.2	4	-1E+10	1	-1E+10	1	-1E+10	1	-1E+10	1	-1E+10	1	-1E+10	1
4902549	95	C	03/31/2023	03:05	-133.546	47.629	0	137.90	0	6.5770	0	33.2350	0	26.086	0	136.702	0	218.9	4	72.9	4	-1E+10	1	-1E+10	1	-1E+10	1	-1E+10	1	-1E+10	1	-1E+10	1
4902549	95	C	03/31/2023	03:05	-133.546	47.629	0	138.80	0	6.5830	0	33.2490	0	26.097	0	137.594	0	217.9	4	72.6	4	-1E+10	1	-1E+10	1	-1E+10	1	-1E+10	1	-1E+10	1	-1E+10	1
4902549	95	C	03/31/2023	03:05	-133.546	47.629	0	139.60	0	6.5800	0	33.2520	0	26.100	0	138.386	0	217.0	4	72.3	4	-1E+10	1	-1E+10	1	-1E+10	1	-1E+10	1	-1E+10	1	-1E+10	1
4902549	95	C	03/31/2023	03:05	-133.546	47.629	0	140.90	0	6.5770	0	33.2850	0	26.126	0	139.675	0	215.7	4	71.9	4	-1E+10	1	-1E+10	1	-1E+10	1	-1E+10	1	-1E+10	1	-1E+10	1
4902549	95	C	03/31/2023	03:05	-133.546	47.629	0	142.20	0	6.5800	0	33.3180	0	26.152	0	140.963	0	214.4	4	71.5	4	-1E+10	1	-1E+10	1	-1E+10	1	-1E+10	1	-1E+10	1	-1E+10	1
4902549	95	C	03/31/2023	03:05	-133.546	47.629	0	143.10	0	6.5800	0	33.3230	0	26.156	0	141.855	0	213.4	4	71.2	4	-1E+10	1	-1E+10	1	-1E+10	1	-1E+10	1	-1E+10	1	-1E+10	1
4902549	95	C	03/31/2023	03:05	-133.546	47.629	0	143.90	0	6.5660	0	33.3360	0	26.168	0	142.648	0	212.4	4	70.8	4	-1E+10	1	-1E+10	1	-1E+10	1	-1E+10	1	-1E+10	1	-1E+10	1
4902549	95	C	03/31/2023	03:05	-133.546	47.629	0	144.80	0	6.5670	0	33.3730	0	26.197	0	143.539	0	211.6	4	70.5	4	-1E+10	1	-1E+10	1	-1E+10	1	-1E+10	1	-1E+10	1	-1E+10	1
4902549	95	C	03/31/2023	03:05	-133.546	47.629	0	145.80	0	6.5670	0	33.3910	0	26.211	0	144.530	0	211.0	4	70.3	4	-1E+10	1	-1E+10	1	-1E+10	1	-1E+10	1	-1E+10	1	-1E+10	1
4902549	95	C	03/31/2023	03:05	-133.546	47.629	0	146.70	0	6.5670	0	33.3970	0	26.216	0	145.422	0	210.2	4	70.1	4	-1E+10	1	-1E+10	1	-1E+10	1	-1E+10	1	-1E+10	1	-1E+10	1
4902549	95	C	03/31/2023	03:05	-133.546	47.629	0	147.60	0	6.5660	0	33.4010	0	26.219	0	146.314	0	209.4	4	69.8	4	-1E+10	1	-1E+10	1	-1E+10	1	-1E+10	1	-1E+10	1	-1E+10	1
4902549	95	C	03/31/2023	03:05	-133.546	47.629	0	148.60	0	6.5560	0	33.4220	0	26.237	0	147.305	0	208.5	4	69.5	4	-1E+10	1	-1E+10	1	-1E+10	1	-1E+10	1	-1E+10	1	-1E+10	1
4902549	95	C	03/31/2023	03:05	-133.546	47.629	0	149.50	0	6.5450	0	33.4420	0	26.254	0	148.197	0	208.0	4	69.3	4	-1E+10	1	-1E+10	1	-1E+10	1	-1E+10	1	-1E+10	1	-1E+10	1
4902549	95	C	03/31/2023	03:05	-133.546	47.629	0	150.90	0	6.5270	0	33.4660	0	26.275	0	149.584	0	206.8	4	68.9	4	-1E+10	1	-1E+10	1	-1E+10	1	-1E+10	1	-1E+10	1	-1E+10	1
4902549	95	C	03/31/2023	03:05	-133.546	47.629	0	152.40	0	6.5260	0	33.4710	0	26.279	0	151.070	0	205.6	4	68.5	4	-1E+10	1	-1E+10	1	-1E+10	1	-1E+10	1	-1E+10	1	-1E+10	1
4902549	95	C	03/31/2023	03:05	-133.546	47.629	0	153.30	0	6.5260	0	33.4710	0	26.279	0	151.962	0	204.6	4	68.2	4	-1E+10	1	-1E+10	1	-1E+10	1	-1E+10	1	-1E+10	1	-1E+10	1
4902549	95	C	03/31/2023	03:05	-133.546	47.629	0	154.20	0	6.5260	0	33.4720	0	26.280	0	152.854	0	203.6	4	67.9	4	-1E+10	1	-1E+10	1	-1E+10	1	-1E+10	1	-1E+10	1	-1E+10	1
4902549	95	C	03/31/2023	03:05	-133.546	47.629	0	155.20	0	6.5240	0	33.4770	0	26.284	0	153.845	0	202.4	4	67.5	4	-1E+10	1	-1E+10	1	-1E+10	1	-1E+10	1	-1E+10	1	-1E+10	1
4902549	95	C	03/31/2023	03:05	-133.546	47.629	0	156.10	0	6.5120	0	33.4980	0	26.303	0	154.737	0	201.3	4	67.1	4	-1E+10	1	-1E+10	1	-1E+10	1	-1E+10	1	-1E+10	1	-1E+10	1
4902549	95	C	03/31/2023	03:05	-133.546	47.629	0	157.00	0	6.5100	0	33.5050	0	26.308	0	155.629	0	200.3	4	66.8	4	-1E+10	1	-1E+10	1	-1E+10	1	-1E+10	1	-1E+10	1	-1E+10	1
4902549	95	C	03/31/2023	03:05	-133.546	47.629	0	157.90	0	6.5040	0	33.5120	0	26.315	0	156.520	0	199.3	4	66.4	4	-1E+10	1	-1E+10	1	-1E+10	1	-1E+10	1	-1E+10	1	-1E+10	1
4902549	95	C	03/31/2023	03:05	-133.546	47.629	0	158.80	0	6.5010	0	33.5190	0	26.321	0	157.412	0	198.1	4	66.0	4	-1E+10	1	-1E+10	1	-1E+10	1	-1E+10	1	-1E+10	1	-1E+10	1
4902549	95	C	03/31/2023	03:05	-133.546	47.629	0	159.80	0	6.4880	0	33.5450	0	26.343	0	158.403	0	197.2	4	65.7	4	-1E+10	1	-1E+10	1	-1E+10	1	-1E+10	1	-1E+10	1	-1E+10	1
4902549	95	C	03/31/2023	03:05	-133.546	47.629	0	160.80	0	6.4680	0	33.5690	0	26.364	0	159.394	0	196.6	4	65.5	4	-1E+10	1	-1E+10	1	-1E+10	1	-1E+10	1	-1E+10	1	-1E+10	1
4902549	95	C	03/31/2023	03:05	-133.546	47.629	0	161.70	0	6.4600	0	33.5740	0	26.369	0	160.286	0	195.9	4	65.3	4	-1E+10	1	-1E+10	1	-1E+10	1	-1E+10	1	-1E+10	1	-1E+10	1
4902549	95	C	03/31/2023	03:05	-133.546	47.629	0	162.70	0	6.4570	0	33.5770	0	26.372	0	161.277	0	195.2	4	65.0	4	-1E+10	1	-1E+10	1	-1E+10	1	-1E+10	1	-1E+10	1	-1E+10	1
4902549	95	C	03/31/2023	03:05	-133.546	47.629	0	163.60	0	6.4540	0	33.5800	0	26.375	0	162.168	0	194.5	4	64.8	4	-1E+10	1	-1E+10	1	-1E+10	1	-1E+10	1	-1E+10	1	-1E+10	1
4902549	95	C	03/31/2023	03:05	-133.546	47.629	0	164.50	0	6.4520	0	33.5820	0	26.377	0	163.060	0	193.8	4	64.6	4	-1E+10	1	-1E+10	1	-1E+10	1	-1E+10	1	-1E+10	1	-1E+10	1
4902549	95	C	03/31/2023	03:05	-133.546	47.629	0	165.90	0	6.4500	0	33.5830	0	26.378	0	164.447	0	192.3	4	64.0	4	-1E+10	1	-1E+10	1	-1E+10	1	-1E+10	1	-1E+10	1	-1E+10	1
4902549	95	C	03/31/2023	03:05	-133.546	47.629	0	167.10	0	6.4380	0	33.5920	0	26.386	0	165.636	0	190.9	4	63.6	4	-1E+10	1	-1E+10	1	-1E+10	1	-1E+10	1	-1E+10	1	-1E+10	1
4902549	95	C	03/31/2023	03:05	-133.546	47.629	0	167.80	0	6.4160	0	33.6020	0	26.397	0	166.330	0	190.2	4	63.3	4	-1E+10	1	-1E+10	1	-1E+10	1	-1E+10	1	-1E+10	1	-1E+10	1
4902549	95	C	03/31/2023	03:05	-133.546	47.629	0	169.00	0	6.3940	0	33.6120	0	26.408	0	167.519	0	189.2	4	62.9	4	-1E+10	1	-1E+10	1	-1E+10	1	-1E+10	1	-1E+10	1	-1E+10	1
4902549	95	C	03/31/2023	03:05	-133.546	47.629	0	170.10	0	6.3940	0	33.6140	0	26.410	0	168.609	0	187.9	4	62.5	4	-1E+10	1	-1E+10	1	-1E+10	1	-1E+10	1	-1E+10	1	-1E+10	1
4902549	95	C	03/31/2023	03:05	-133.546	47.629	0	170.90	0	6.3930	0	33.6150	0	26.410	0	169.402	0	186.9	4	62.2	4	-1E+10	1	-1E+10	1	-1E+10	1	-1E+10	1	-1E+10	1	-1E+10	1
4902549	95	C	03/31/2023	03:05	-133.546	47.629	0	171.70	0	6.3860	0	33.6230	0	26.418	0	170.194	0	185.9	4	61.8	4	-1E+10	1	-1E+10	1	-1E+10	1	-1E+10	1	-1E+10	1	-1E+10	1
4902549	95	C	03/31/2023	03:05	-133.546	47.629	0	172.80	0	6.3830	0	33.6270	0	26.421	0	171.284	0	184.2	4	61.3	4	-1E+10	1	-1E+10	1	-1E+10	1	-1E+10	1	-1E+10	1	-1E+10	1
4902549	95	C	03/31/2023	03:05	-133.546	47.629	0	174.00	0	6.3750	0	33.6340	0	26.428	0	172.473	0	182.2	4	60.6	4	-1E+10	1	-1E+10	1	-1E+10	1	-1E+10	1	-1E+10	1	-1E+10	1
4902549	95	C	03/31/2023	03:05	-133.546	47.629	0	174.90	0	6.3650	0	33.6410	0	26.435	0	173.365	0	180.9	4	60.1	4	-1E+10	1	-1E+10	1	-1E+10	1	-1E+10	1	-1E+10	1	-1E+10	1
4902549	95	C	03/31/2023	03:05	-133.546	47.629	0	175.70	0	6.3580	0	33.6480	0	26.441	0	174.157	0	179.4	4	59.7	4	-1E+10	1	-1E+10	1	-1E+10	1	-1E+10	1	-1E+10	1	-1E+10	1
4902549	95	C	03/31/2023	03:05	-133.546	47.629	0	177.00	0	6.3000	0	33.6730	0	26.468	0	175.445	0	177.9	4	59.1	4	-1E+10	1	-1E+10	1	-1E+10	1	-1E+10	1	-1E+10	1	-1E+10	1
4902549	95	C	03/31/2023	03:05	-133.546	47.629	0	178.30	0	6.2790	0	33.6840	0	26.480	0	176.733	0	176.5	4	58.6	4	-1E+10	1	-1E+10	1	-1E+10	1	-1E+10	1	-1E+10	1	-1E+10	1
4902549	95	C	03/31/2023	03:05	-133.546	47.629	0	179.20	0	6.2680	0	33.6890	0	26.485	0	177.625	0	175.5	4	58.3	4	-1E+10	1	-1E+10	1	-1E+10	1	-1E+10	1	-1E+10	1	-1E+10	1
4902549	95	C	03/31/2023	03:05	-133.546	47.629	0	180.10	0	6.2600	0	33.6930	0	26.489	0	178.517	0	174.5	4	57.9	4	-1E+10	1	-1E+10	1	-1E+10	1	-1E+10	1	-1E+10	1	-1E+10	1
4902549	95	C	03/31/2023	03:05	-133.546	47.629	0	181.00	0	6.2400	0	33.7020	0	26.499	0	179.409	0	173.7	4	57.6	4	-1E+10	1	-1E+10	1	-1E+10	1	-1E+10	1	-1E+10	1	-1E+10	1
4902549	95	C	03/31/2023	03:05	-133.546	47.629	0	181.90	0	6.2180	0	33.7100	0	26.508	0	180.300	0	173.1	4	57.4	4	-1E+10	1	-1E+10	1	-1E+10	1	-1E+10	1	-1E+10	1	-1E+10	1
4902549	95	C	03/31/2023	03:05	-133.546	47.629	0	182.80	0	6.2150	0	33.7090	0	26.508	0	181.192	0	172.5	4	57.2	4	-1E+10	1	-1E+10	1	-1E+10	1	-1E+10	1	-1E+10	1	-1E+10	1
4902549	95	C	03/31/2023	03:05	-133.546	47.629	0	183.80	0	6.2020	0	33.7120	0	26.512	0	182.183	0	171.9	4	57.0	4	-1E+10	1	-1E+10	1	-1E+10	1	-1E+10	1	-1E+10	1	-1E+10	1
4902549	95	C	03/31/2023	03:05	-133.546	47.629	0	184.70	0	6.1980	0	33.7120	0	26.512	0	183.074	0	171.3	4	56.8	4	-1E+10	1	-1E+10	1	-1E+10	1	-1E+10	1	-1E+10	1	-1E+10	1
4902549	95	C	03/31/2023	03:05	-133.546	47.629	0	185.70	0	6.1920	0	33.7130	0	26.514	0	184.065	0	170.8	4	56.6	4	-1E+10	1	-1E+10	1	-1E+10	1	-1E+10	1	-1E+10	1	-1E+10	1
4902549	95	C	03/31/2023	03:05	-133.546	47.629	0	186.60	0	6.1850	0	33.7140	0	26.515	0	184.957	0	170.0	4	56.3	4	-1E+10	1	-1E+10	1	-1E+10	1	-1E+10	1	-1E+10	1	-1E+10	1
4902549	95	C	03/31/2023	03:05	-133.546	47.629	0	187.60	0	6.1810	0	33.7150	0	26.517	0	185.948	0	169.3	4	56.1	4	-1E+10	1	-1E+10	1	-1E+10	1	-1E+10	1	-1E+10	1	-1E+10	1
4902549	95	C	03/31/2023	03:05	-133.546	47.629	0	188.60	0	6.1630	0	33.7180	0	26.521	0	186.938	0	168.8	4	55.9	4	-1E+10	1	-1E+10	1	-1E+10	1	-1E+10	1	-1E+10	1	-1E+10	1
4902549	95	C	03/31/2023	03:05	-133.546	47.629	0	189.60	0	6.1540	0	33.7200	0	26.524	0	187.929	0	168.1	4	55.7	4	-1E+10	1	-1E+10	1	-1E+10	1	-1E+10	1	-1E+10	1	-1E+10	1
4902549	95	C	03/31/2023	03:05	-133.546	47.629	0	190.60	0	6.1470	0	33.7210	0	26.526	0	188.920	0	167.4	4	55.4	4	-1E+10	1	-1E+10	1	-1E+10	1	-1E+10	1	-1E+10	1	-1E+10	1
4902549	95	C	03/31/2023	03:05	-133.546	47.629	0	191.50	0	6.1420	0	33.7210	0	26.526	0	189.811	0	166.8	4	55.2	4	-1E+10	1	-1E+10	1	-1E+10	1	-1E+10	1	-1E+10	1	-1E+10	1
4902549	95	C	03/31/2023	03:05	-133.546	47.629	0	192.60	0	6.1250	0	33.7250	0	26.532	0	190.901	0	166.2	4	55.0	4	-1E+10	1	-1E+10	1	-1E+10	1	-1E+10	1	-1E+10	1	-1E+10	1
4902549	95	C	03/31/2023	03:05	-133.546	47.629	0	193.60	0	6.1200	0	33.7260	0	26.533	0	191.892	0	165.7	4	54.8	4	-1E+10	1	-1E+10	1	-1E+10	1	-1E+10	1	-1E+10	1	-1E+10	1
4902549	95	C	03/31/2023	03:05	-133.546	47.629	0	194.60	0	6.1120	0	33.7260	0	26.534	0	192.883	0	165.1	4	54.6	4	-1E+10	1	-1E+10	1	-1E+10	1	-1E+10	1	-1E+10	1	-1E+10	1
4902549	95	C	03/31/2023	03:05	-133.546	47.629	0	195.60	0	6.1050	0	33.7270	0	26.536	0	193.873	0	164.5	4	54.4	4	-1E+10	1	-1E+10	1	-1E+10	1	-1E+10	1	-1E+10	1	-1E+10	1
4902549	95	C	03/31/2023	03:05	-133.546	47.629	0	196.70	0	6.0960	0	33.7300	0	26.539	0	194.963	0	163.8	4	54.2	4	-1E+10	1	-1E+10	1	-1E+10	1	-1E+10	1	-1E+10	1	-1E+10	1
4902549	95	C	03/31/2023	03:05	-133.546	47.629	0	197.70	0	6.0890	0	33.7290	0	26.539	0	195.954	0	163.1	4	53.9	4	-1E+10	1	-1E+10	1	-1E+10	1	-1E+10	1	-1E+10	1	-1E+10	1
4902549	95	C	03/31/2023	03:05	-133.546	47.629	0	198.70	0	6.0880	0	33.7290	0	26.540	0	196.945	0	162.3	4	53.7	4	-1E+10	1	-1E+10	1	-1E+10	1	-1E+10	1	-1E+10	1	-1E+10	1
4902549	95	C	03/31/2023	03:05	-133.546	47.629	0	199.80	0	6.0740	0	33.7320	0	26.544	0	198.034	0	161.5	4	53.4	4	-1E+10	1	-1E+10	1	-1E+10	1	-1E+10	1	-1E+10	1	-1E+10	1
4902549	95	C	03/31/2023	03:05	-133.546	47.629	0	200.80	0	6.0680	0	33.7310	0	26.544	0	199.025	0	160.5	4	53.0	4	-1E+10	1	-1E+10	1	-1E+10	1	-1E+10	1	-1E+10	1	-1E+10	1
4902549	95	C	03/31/2023	03:05	-133.546	47.629	0	201.80	0	6.0620	0	33.7320	0	26.545	0	200.016	0	159.5	4	52.7	4	-1E+10	1	-1E+10	1	-1E+10	1	-1E+10	1	-1E+10	1	-1E+10	1
4902549	95	C	03/31/2023	03:05	-133.546	47.629	0	202.90	0	6.0380	0	33.7350	0	26.551	0	201.105	0	158.6	4	52.4	4	-1E+10	1	-1E+10	1	-1E+10	1	-1E+10	1	-1E+10	1	-1E+10	1
4902549	95	C	03/31/2023	03:05	-133.546	47.629	0	203.90	0	6.0180	0	33.7360	0	26.554	0	202.096	0	157.9	4	52.1	4	-1E+10	1	-1E+10	1	-1E+10	1	-1E+10	1	-1E+10	1	-1E+10	1
4902549	95	C	03/31/2023	03:05	-133.546	47.629	0	205.00	0	6.0150	0	33.7360	0	26.554	0	203.186	0	157.0	4	51.8	4	-1E+10	1	-1E+10	1	-1E+10	1	-1E+10	1	-1E+10	1	-1E+10	1
4902549	95	C	03/31/2023	03:05	-133.546	47.629	0	206.10	0	6.0060	0	33.7360	0	26.555	0	204.276	0	155.9	4	51.4	4	-1E+10	1	-1E+10	1	-1E+10	1	-1E+10	1	-1E+10	1	-1E+10	1
4902549	95	C	03/31/2023	03:05	-133.546	47.629	0	207.10	0	5.9730	0	33.7420	0	26.564	0	205.266	0	155.0	4	51.1	4	-1E+10	1	-1E+10	1	-1E+10	1	-1E+10	1	-1E+10	1	-1E+10	1
4902549	95	C	03/31/2023	03:05	-133.546	47.629	0	208.20	0	5.9500	0	33.7380	0	26.564	0	206.356	0	154.2	4	50.8	4	-1E+10	1	-1E+10	1	-1E+10	1	-1E+10	1	-1E+10	1	-1E+10	1
4902549	95	C	03/31/2023	03:05	-133.546	47.629	0	209.30	0	5.9200	0	33.7400	0	26.569	0	207.446	0	153.3	4	50.5	4	-1E+10	1	-1E+10	1	-1E+10	1	-1E+10	1	-1E+10	1	-1E+10	1
4902549	95	C	03/31/2023	03:05	-133.546	47.629	0	210.30	0	5.9050	0	33.7390	0	26.570	0	208.436	0	152.6	4	50.2	4	-1E+10	1	-1E+10	1	-1E+10	1	-1E+10	1	-1E+10	1	-1E+10	1
4902549	95	C	03/31/2023	03:05	-133.546	47.629	0	211.40	0	5.8680	0	33.7410	0	26.577	0	209.526	0	152.0	4	50.0	4	-1E+10	1	-1E+10	1	-1E+10	1	-1E+10	1	-1E+10	1	-1E+10	1
4902549	95	C	03/31/2023	03:05	-133.546	47.629	0	212.50	0	5.8600	0	33.7410	0	26.578	0	210.616	0	151.2	4	49.7	4	-1E+10	1	-1E+10	1	-1E+10	1	-1E+10	1	-1E+10	1	-1E+10	1
4902549	95	C	03/31/2023	03:05	-133.546	47.629	0	213.60	0	5.8460	0	33.7410	0	26.579	0	211.705	0	150.5	4	49.5	4	-1E+10	1	-1E+10	1	-1E+10	1	-1E+10	1	-1E+10	1	-1E+10	1
4902549	95	C	03/31/2023	03:05	-133.546	47.629	0	214.70	0	5.8320	0	33.7420	0	26.582	0	212.795	0	149.7	4	49.2	4	-1E+10	1	-1E+10	1	-1E+10	1	-1E+10	1	-1E+10	1	-1E+10	1
4902549	95	C	03/31/2023	03:05	-133.546	47.629	0	215.80	0	5.8140	0	33.7410	0	26.583	0	213.885	0	149.1	4	49.0	4	-1E+10	1	-1E+10	1	-1E+10	1	-1E+10	1	-1E+10	1	-1E+10	1
4902549	95	C	03/31/2023	03:05	-133.546	47.629	0	216.90	0	5.7750	0	33.7440	0	26.590	0	214.974	0	148.5	4	48.8	4	-1E+10	1	-1E+10	1	-1E+10	1	-1E+10	1	-1E+10	1	-1E+10	1
4902549	95	C	03/31/2023	03:05	-133.546	47.629	0	218.00	0	5.7670	0	33.7440	0	26.591	0	216.064	0	147.9	4	48.5	4	-1E+10	1	-1E+10	1	-1E+10	1	-1E+10	1	-1E+10	1	-1E+10	1
4902549	95	C	03/31/2023	03:05	-133.546	47.629	0	219.10	0	5.7620	0	33.7440	0	26.592	0	217.154	0	147.2	4	48.3	4	-1E+10	1	-1E+10	1	-1E+10	1	-1E+10	1	-1E+10	1	-1E+10	1
4902549	95	C	03/31/2023	03:05	-133.546	47.629	0	220.20	0	5.7550	0	33.7440	0	26.593	0	218.243	0	146.4	4	48.0	4	-1E+10	1	-1E+10	1	-1E+10	1	-1E+10	1	-1E+10	1	-1E+10	1
4902549	95	C	03/31/2023	03:05	-133.546	47.629	0	221.30	0	5.7530	0	33.7430	0	26.592	0	219.333	0	145.6	4	47.8	4	-1E+10	1	-1E+10	1	-1E+10	1	-1E+10	1	-1E+10	1	-1E+10	1
4902549	95	C	03/31/2023	03:05	-133.546	47.629	0	222.40	0	5.7460	0	33.7440	0	26.594	0	220.423	0	144.6	4	47.4	4	-1E+10	1	-1E+10	1	-1E+10	1	-1E+10	1	-1E+10	1	-1E+10	1
4902549	95	C	03/31/2023	03:05	-133.546	47.629	0	223.50	0	5.7210	0	33.7460	0	26.599	0	221.512	0	143.8	4	47.1	4	-1E+10	1	-1E+10	1	-1E+10	1	-1E+10	1	-1E+10	1	-1E+10	1
4902549	95	C	03/31/2023	03:05	-133.546	47.629	0	224.50	0	5.7040	0	33.7460	0	26.601	0	222.503	0	143.0	4	46.8	4	-1E+10	1	-1E+10	1	-1E+10	1	-1E+10	1	-1E+10	1	-1E+10	1
4902549	95	C	03/31/2023	03:05	-133.546	47.629	0	225.60	0	5.6650	0	33.7450	0	26.605	0	223.592	0	142.3	4	46.6	4	-1E+10	1	-1E+10	1	-1E+10	1	-1E+10	1	-1E+10	1	-1E+10	1
4902549	95	C	03/31/2023	03:05	-133.546	47.629	0	226.70	0	5.6560	0	33.7450	0	26.606	0	224.682	0	141.6	4	46.3	4	-1E+10	1	-1E+10	1	-1E+10	1	-1E+10	1	-1E+10	1	-1E+10	1
4902549	95	C	03/31/2023	03:05	-133.546	47.629	0	227.80	0	5.6390	0	33.7470	0	26.609	0	225.772	0	140.8	4	46.1	4	-1E+10	1	-1E+10	1	-1E+10	1	-1E+10	1	-1E+10	1	-1E+10	1
4902549	95	C	03/31/2023	03:05	-133.546	47.629	0	228.90	0	5.6220	0	33.7470	0	26.611	0	226.861	0	140.1	4	45.8	4	-1E+10	1	-1E+10	1	-1E+10	1	-1E+10	1	-1E+10	1	-1E+10	1
4902549	95	C	03/31/2023	03:05	-133.546	47.629	0	230.00	0	5.5990	0	33.7490	0	26.616	0	227.951	0	139.5	4	45.6	4	-1E+10	1	-1E+10	1	-1E+10	1	-1E+10	1	-1E+10	1	-1E+10	1
4902549	95	C	03/31/2023	03:05	-133.546	47.629	0	231.10	0	5.5960	0	33.7480	0	26.615	0	229.040	0	138.8	4	45.4	4	-1E+10	1	-1E+10	1	-1E+10	1	-1E+10	1	-1E+10	1	-1E+10	1
4902549	95	C	03/31/2023	03:05	-133.546	47.629	0	232.20	0	5.5850	0	33.7490	0	26.617	0	230.130	0	138.0	4	45.1	4	-1E+10	1	-1E+10	1	-1E+10	1	-1E+10	1	-1E+10	1	-1E+10	1
4902549	95	C	03/31/2023	03:05	-133.546	47.629	0	233.30	0	5.5680	0	33.7500	0	26.620	0	231.220	0	137.3	4	44.9	4	-1E+10	1	-1E+10	1	-1E+10	1	-1E+10	1	-1E+10	1	-1E+10	1
4902549	95	C	03/31/2023	03:05	-133.546	47.629	0	234.40	0	5.5580	0	33.7510	0	26.622	0	232.309	0	136.6	4	44.6	4	-1E+10	1	-1E+10	1	-1E+10	1	-1E+10	1	-1E+10	1	-1E+10	1
4902549	95	C	03/31/2023	03:05	-133.546	47.629	0	235.40	0	5.5480	0	33.7520	0	26.624	0	233.300	0	136.0	4	44.4	4	-1E+10	1	-1E+10	1	-1E+10	1	-1E+10	1	-1E+10	1	-1E+10	1
4902549	95	C	03/31/2023	03:05	-133.546	47.629	0	236.50	0	5.5240	0	33.7540	0	26.629	0	234.389	0	135.4	4	44.2	4	-1E+10	1	-1E+10	1	-1E+10	1	-1E+10	1	-1E+10	1	-1E+10	1
4902549	95	C	03/31/2023	03:05	-133.546	47.629	0	237.70	0	5.5160	0	33.7550	0	26.631	0	235.578	0	134.8	4	44.0	4	-1E+10	1	-1E+10	1	-1E+10	1	-1E+10	1	-1E+10	1	-1E+10	1
4902549	95	C	03/31/2023	03:05	-133.546	47.629	0	238.80	0	5.5090	0	33.7570	0	26.633	0	236.667	0	134.2	4	43.8	4	-1E+10	1	-1E+10	1	-1E+10	1	-1E+10	1	-1E+10	1	-1E+10	1
4902549	95	C	03/31/2023	03:05	-133.546	47.629	0	239.90	0	5.5010	0	33.7550	0	26.632	0	237.757	0	133.6	4	43.6	4	-1E+10	1	-1E+10	1	-1E+10	1	-1E+10	1	-1E+10	1	-1E+10	1
4902549	95	C	03/31/2023	03:05	-133.546	47.629	0	241.00	0	5.4830	0	33.7600	0	26.638	0	238.846	0	132.9	4	43.3	4	-1E+10	1	-1E+10	1	-1E+10	1	-1E+10	1	-1E+10	1	-1E+10	1
4902549	95	C	03/31/2023	03:05	-133.546	47.629	0	242.00	0	5.4700	0	33.7560	0	26.637	0	239.837	0	132.3	4	43.1	4	-1E+10	1	-1E+10	1	-1E+10	1	-1E+10	1	-1E+10	1	-1E+10	1
4902549	95	C	03/31/2023	03:05	-133.546	47.629	0	243.10	0	5.4630	0	33.7550	0	26.637	0	240.926	0	131.7	4	42.9	4	-1E+10	1	-1E+10	1	-1E+10	1	-1E+10	1	-1E+10	1	-1E+10	1
4902549	95	C	03/31/2023	03:05	-133.546	47.629	0	244.20	0	5.4570	0	33.7560	0	26.638	0	242.016	0	131.0	4	42.7	4	-1E+10	1	-1E+10	1	-1E+10	1	-1E+10	1	-1E+10	1	-1E+10	1
4902549	95	C	03/31/2023	03:05	-133.546	47.629	0	245.30	0	5.4390	0	33.7590	0	26.643	0	243.105	0	130.3	4	42.4	4	-1E+10	1	-1E+10	1	-1E+10	1	-1E+10	1	-1E+10	1	-1E+10	1
4902549	95	C	03/31/2023	03:05	-133.546	47.629	0	246.40	0	5.4350	0	33.7570	0	26.642	0	244.195	0	129.7	4	42.3	4	-1E+10	1	-1E+10	1	-1E+10	1	-1E+10	1	-1E+10	1	-1E+10	1
4902549	95	C	03/31/2023	03:05	-133.546	47.629	0	247.40	0	5.4290	0	33.7590	0	26.644	0	245.185	0	129.1	4	42.0	4	-1E+10	1	-1E+10	1	-1E+10	1	-1E+10	1	-1E+10	1	-1E+10	1
4902549	95	C	03/31/2023	03:05	-133.546	47.629	0	248.50	0	5.4160	0	33.7590	0	26.646	0	246.275	0	128.4	4	41.8	4	-1E+10	1	-1E+10	1	-1E+10	1	-1E+10	1	-1E+10	1	-1E+10	1
4902549	95	C	03/31/2023	03:05	-133.546	47.629	0	249.60	0	5.4060	0	33.7580	0	26.646	0	247.364	0	127.7	4	41.6	4	-1E+10	1	-1E+10	1	-1E+10	1	-1E+10	1	-1E+10	1	-1E+10	1
4902549	95	C	03/31/2023	03:05	-133.546	47.629	0	250.60	0	5.4010	0	33.7590	0	26.647	0	248.355	0	127.0	4	41.3	4	-1E+10	1	-1E+10	1	-1E+10	1	-1E+10	1	-1E+10	1	-1E+10	1
4902549	95	C	03/31/2023	03:05	-133.546	47.629	0	251.70	0	5.3590	0	33.7610	0	26.654	0	249.444	0	126.5	4	41.1	4	-1E+10	1	-1E+10	1	-1E+10	1	-1E+10	1	-1E+10	1	-1E+10	1
4902549	95	C	03/31/2023	03:05	-133.546	47.629	0	252.80	0	5.3370	0	33.7630	0	26.658	0	250.534	0	126.1	4	41.0	4	-1E+10	1	-1E+10	1	-1E+10	1	-1E+10	1	-1E+10	1	-1E+10	1
4902549	95	C	03/31/2023	03:05	-133.546	47.629	0	253.90	0	5.3300	0	33.7630	0	26.659	0	251.623	0	125.8	4	40.9	4	-1E+10	1	-1E+10	1	-1E+10	1	-1E+10	1	-1E+10	1	-1E+10	1
4902549	95	C	03/31/2023	03:05	-133.546	47.629	0	255.00	0	5.3220	0	33.7630	0	26.660	0	252.713	0	125.5	4	40.8	4	-1E+10	1	-1E+10	1	-1E+10	1	-1E+10	1	-1E+10	1	-1E+10	1
4902549	95	C	03/31/2023	03:05	-133.546	47.629	0	256.00	0	5.3200	0	33.7620	0	26.659	0	253.703	0	125.0	4	40.6	4	-1E+10	1	-1E+10	1	-1E+10	1	-1E+10	1	-1E+10	1	-1E+10	1
4902549	95	C	03/31/2023	03:05	-133.546	47.629	0	257.10	0	5.3060	0	33.7690	0	26.667	0	254.793	0	124.7	4	40.5	4	-1E+10	1	-1E+10	1	-1E+10	1	-1E+10	1	-1E+10	1	-1E+10	1
4902549	95	C	03/31/2023	03:05	-133.546	47.629	0	258.20	0	5.3040	0	33.7640	0	26.663	0	255.882	0	124.3	4	40.3	4	-1E+10	1	-1E+10	1	-1E+10	1	-1E+10	1	-1E+10	1	-1E+10	1
4902549	95	C	03/31/2023	03:05	-133.546	47.629	0	259.30	0	5.3030	0	33.7630	0	26.662	0	256.972	0	123.9	4	40.2	4	-1E+10	1	-1E+10	1	-1E+10	1	-1E+10	1	-1E+10	1	-1E+10	1
4902549	95	C	03/31/2023	03:05	-133.546	47.629	0	260.30	0	5.3000	0	33.7640	0	26.663	0	257.962	0	123.4	4	40.1	4	-1E+10	1	-1E+10	1	-1E+10	1	-1E+10	1	-1E+10	1	-1E+10	1
4902549	95	C	03/31/2023	03:05	-133.546	47.629	0	261.30	0	5.2990	0	33.7640	0	26.663	0	258.952	0	122.8	4	39.9	4	-1E+10	1	-1E+10	1	-1E+10	1	-1E+10	1	-1E+10	1	-1E+10	1
4902549	95	C	03/31/2023	03:05	-133.546	47.629	0	262.90	0	5.2880	0	33.7640	0	26.665	0	260.537	0	121.8	4	39.5	4	-1E+10	1	-1E+10	1	-1E+10	1	-1E+10	1	-1E+10	1	-1E+10	1
4902549	95	C	03/31/2023	03:05	-133.546	47.629	0	264.10	0	5.2750	0	33.7630	0	26.665	0	261.725	0	120.9	4	39.2	4	-1E+10	1	-1E+10	1	-1E+10	1	-1E+10	1	-1E+10	1	-1E+10	1
4902549	95	C	03/31/2023	03:05	-133.546	47.629	0	264.90	0	5.2580	0	33.7650	0	26.669	0	262.518	0	120.3	4	39.0	4	-1E+10	1	-1E+10	1	-1E+10	1	-1E+10	1	-1E+10	1	-1E+10	1
4902549	95	C	03/31/2023	03:05	-133.546	47.629	0	265.70	0	5.2400	0	33.7650	0	26.671	0	263.310	0	119.8	4	38.8	4	-1E+10	1	-1E+10	1	-1E+10	1	-1E+10	1	-1E+10	1	-1E+10	1
4902549	95	C	03/31/2023	03:05	-133.546	47.629	0	266.90	0	5.2290	0	33.7650	0	26.672	0	264.498	0	119.0	4	38.6	4	-1E+10	1	-1E+10	1	-1E+10	1	-1E+10	1	-1E+10	1	-1E+10	1
4902549	95	C	03/31/2023	03:05	-133.546	47.629	0	268.20	0	5.2210	0	33.7670	0	26.675	0	265.786	0	118.1	4	38.3	4	-1E+10	1	-1E+10	1	-1E+10	1	-1E+10	1	-1E+10	1	-1E+10	1
4902549	95	C	03/31/2023	03:05	-133.546	47.629	0	269.00	0	5.2040	0	33.7670	0	26.677	0	266.578	0	117.6	4	38.1	4	-1E+10	1	-1E+10	1	-1E+10	1	-1E+10	1	-1E+10	1	-1E+10	1
4902549	95	C	03/31/2023	03:05	-133.546	47.629	0	269.80	0	5.1910	0	33.7660	0	26.678	0	267.370	0	117.1	4	37.9	4	-1E+10	1	-1E+10	1	-1E+10	1	-1E+10	1	-1E+10	1	-1E+10	1
4902549	95	C	03/31/2023	03:05	-133.546	47.629	0	271.00	0	5.1780	0	33.7670	0	26.680	0	268.559	0	116.4	4	37.7	4	-1E+10	1	-1E+10	1	-1E+10	1	-1E+10	1	-1E+10	1	-1E+10	1
4902549	95	C	03/31/2023	03:05	-133.546	47.629	0	272.20	0	5.1700	0	33.7670	0	26.681	0	269.747	0	115.5	4	37.4	4	-1E+10	1	-1E+10	1	-1E+10	1	-1E+10	1	-1E+10	1	-1E+10	1
4902549	95	C	03/31/2023	03:05	-133.546	47.629	0	273.00	0	5.1660	0	33.7660	0	26.681	0	270.540	0	114.8	4	37.2	4	-1E+10	1	-1E+10	1	-1E+10	1	-1E+10	1	-1E+10	1	-1E+10	1
4902549	95	C	03/31/2023	03:05	-133.546	47.629	0	273.80	0	5.1640	0	33.7670	0	26.682	0	271.332	0	114.1	4	36.9	4	-1E+10	1	-1E+10	1	-1E+10	1	-1E+10	1	-1E+10	1	-1E+10	1
4902549	95	C	03/31/2023	03:05	-133.546	47.629	0	274.60	0	5.1610	0	33.7660	0	26.681	0	272.124	0	113.4	4	36.7	4	-1E+10	1	-1E+10	1	-1E+10	1	-1E+10	1	-1E+10	1	-1E+10	1
4902549	95	C	03/31/2023	03:05	-133.546	47.629	0	275.90	0	5.1360	0	33.7680	0	26.686	0	273.411	0	112.4	4	36.3	4	-1E+10	1	-1E+10	1	-1E+10	1	-1E+10	1	-1E+10	1	-1E+10	1
4902549	95	C	03/31/2023	03:05	-133.546	47.629	0	277.10	0	5.1110	0	33.7710	0	26.691	0	274.600	0	111.5	4	36.0	4	-1E+10	1	-1E+10	1	-1E+10	1	-1E+10	1	-1E+10	1	-1E+10	1
4902549	95	C	03/31/2023	03:05	-133.546	47.629	0	277.90	0	5.1000	0	33.7720	0	26.693	0	275.392	0	111.0	4	35.9	4	-1E+10	1	-1E+10	1	-1E+10	1	-1E+10	1	-1E+10	1	-1E+10	1
4902549	95	C	03/31/2023	03:05	-133.546	47.629	0	278.80	0	5.0920	0	33.7730	0	26.695	0	276.283	0	110.5	4	35.7	4	-1E+10	1	-1E+10	1	-1E+10	1	-1E+10	1	-1E+10	1	-1E+10	1
4902549	95	C	03/31/2023	03:05	-133.546	47.629	0	280.00	0	5.0730	0	33.7740	0	26.698	0	277.472	0	109.8	4	35.5	4	-1E+10	1	-1E+10	1	-1E+10	1	-1E+10	1	-1E+10	1	-1E+10	1
4902549	95	C	03/31/2023	03:05	-133.546	47.629	0	281.30	0	5.0570	0	33.7760	0	26.701	0	278.759	0	109.3	4	35.3	4	-1E+10	1	-1E+10	1	-1E+10	1	-1E+10	1	-1E+10	1	-1E+10	1
4902549	95	C	03/31/2023	03:05	-133.546	47.629	0	282.10	0	5.0480	0	33.7780	0	26.704	0	279.551	0	108.9	4	35.2	4	-1E+10	1	-1E+10	1	-1E+10	1	-1E+10	1	-1E+10	1	-1E+10	1
4902549	95	C	03/31/2023	03:05	-133.546	47.629	0	282.90	0	5.0540	0	33.7800	0	26.705	0	280.344	0	108.5	4	35.0	4	-1E+10	1	-1E+10	1	-1E+10	1	-1E+10	1	-1E+10	1	-1E+10	1
4902549	95	C	03/31/2023	03:05	-133.546	47.629	0	283.80	0	5.0440	0	33.7820	0	26.707	0	281.235	0	108.1	4	34.9	4	-1E+10	1	-1E+10	1	-1E+10	1	-1E+10	1	-1E+10	1	-1E+10	1
4902549	95	C	03/31/2023	03:05	-133.546	47.629	0	285.00	0	5.0390	0	33.7820	0	26.708	0	282.423	0	107.4	4	34.6	4	-1E+10	1	-1E+10	1	-1E+10	1	-1E+10	1	-1E+10	1	-1E+10	1
4902549	95	C	03/31/2023	03:05	-133.546	47.629	0	286.30	0	5.0290	0	33.7820	0	26.709	0	283.711	0	106.6	4	34.4	4	-1E+10	1	-1E+10	1	-1E+10	1	-1E+10	1	-1E+10	1	-1E+10	1
4902549	95	C	03/31/2023	03:05	-133.546	47.629	0	287.10	0	5.0230	0	33.7820	0	26.710	0	284.503	0	106.0	4	34.2	4	-1E+10	1	-1E+10	1	-1E+10	1	-1E+10	1	-1E+10	1	-1E+10	1
4902549	95	C	03/31/2023	03:05	-133.546	47.629	0	287.90	0	5.0210	0	33.7830	0	26.711	0	285.295	0	105.4	4	34.0	4	-1E+10	1	-1E+10	1	-1E+10	1	-1E+10	1	-1E+10	1	-1E+10	1
4902549	95	C	03/31/2023	03:05	-133.546	47.629	0	288.80	0	5.0250	0	33.7870	0	26.713	0	286.186	0	104.9	4	33.8	4	-1E+10	1	-1E+10	1	-1E+10	1	-1E+10	1	-1E+10	1	-1E+10	1
4902549	95	C	03/31/2023	03:05	-133.546	47.629	0	289.70	0	5.0170	0	33.7900	0	26.717	0	287.077	0	104.4	4	33.7	4	-1E+10	1	-1E+10	1	-1E+10	1	-1E+10	1	-1E+10	1	-1E+10	1
4902549	95	C	03/31/2023	03:05	-133.546	47.629	0	290.90	0	5.0220	0	33.7910	0	26.717	0	288.266	0	103.6	4	33.4	4	-1E+10	1	-1E+10	1	-1E+10	1	-1E+10	1	-1E+10	1	-1E+10	1
4902549	95	C	03/31/2023	03:05	-133.546	47.629	0	292.20	0	5.0650	0	33.8010	0	26.720	0	289.553	0	102.9	4	33.2	4	-1E+10	1	-1E+10	1	-1E+10	1	-1E+10	1	-1E+10	1	-1E+10	1
4902549	95	C	03/31/2023	03:05	-133.546	47.629	0	293.10	0	5.0770	0	33.8070	0	26.723	0	290.444	0	102.5	4	33.1	4	-1E+10	1	-1E+10	1	-1E+10	1	-1E+10	1	-1E+10	1	-1E+10	1
4902549	95	C	03/31/2023	03:05	-133.546	47.629	0	294.00	0	5.0660	0	33.8030	0	26.721	0	291.336	0	102.1	4	33.0	4	-1E+10	1	-1E+10	1	-1E+10	1	-1E+10	1	-1E+10	1	-1E+10	1
4902549	95	C	03/31/2023	03:05	-133.546	47.629	0	294.90	0	5.0600	0	33.8020	0	26.721	0	292.227	0	101.7	4	32.8	4	-1E+10	1	-1E+10	1	-1E+10	1	-1E+10	1	-1E+10	1	-1E+10	1
4902549	95	C	03/31/2023	03:05	-133.546	47.629	0	295.80	0	5.0590	0	33.8040	0	26.723	0	293.118	0	101.2	4	32.7	4	-1E+10	1	-1E+10	1	-1E+10	1	-1E+10	1	-1E+10	1	-1E+10	1
4902549	95	C	03/31/2023	03:05	-133.546	47.629	0	296.60	0	5.0490	0	33.8010	0	26.722	0	293.910	0	100.8	4	32.5	4	-1E+10	1	-1E+10	1	-1E+10	1	-1E+10	1	-1E+10	1	-1E+10	1
4902549	95	C	03/31/2023	03:05	-133.546	47.629	0	297.90	0	5.0110	0	33.8010	0	26.726	0	295.197	0	100.2	4	32.3	4	-1E+10	1	-1E+10	1	-1E+10	1	-1E+10	1	-1E+10	1	-1E+10	1
4902549	95	C	03/31/2023	03:05	-133.546	47.629	0	299.30	0	4.9840	0	33.8010	0	26.729	0	296.584	0	99.5	4	32.1	4	-1E+10	1	-1E+10	1	-1E+10	1	-1E+10	1	-1E+10	1	-1E+10	1
4902549	95	C	03/31/2023	03:05	-133.546	47.629	0	300.20	0	4.9770	0	33.8010	0	26.730	0	297.475	0	99.1	4	31.9	4	-1E+10	1	-1E+10	1	-1E+10	1	-1E+10	1	-1E+10	1	-1E+10	1
4902549	95	C	03/31/2023	03:05	-133.546	47.629	0	301.10	0	4.9690	0	33.8030	0	26.733	0	298.366	0	98.7	4	31.8	4	-1E+10	1	-1E+10	1	-1E+10	1	-1E+10	1	-1E+10	1	-1E+10	1
4902549	95	C	03/31/2023	03:05	-133.546	47.629	0	302.00	0	4.9630	0	33.8020	0	26.732	0	299.257	0	98.3	4	31.7	4	-1E+10	1	-1E+10	1	-1E+10	1	-1E+10	1	-1E+10	1	-1E+10	1
4902549	95	C	03/31/2023	03:05	-133.546	47.629	0	302.90	0	4.9550	0	33.8020	0	26.733	0	300.148	0	97.9	4	31.5	4	-1E+10	1	-1E+10	1	-1E+10	1	-1E+10	1	-1E+10	1	-1E+10	1
4902549	95	C	03/31/2023	03:05	-133.546	47.629	0	303.80	0	4.9270	0	33.8030	0	26.737	0	301.040	0	97.5	4	31.4	4	-1E+10	1	-1E+10	1	-1E+10	1	-1E+10	1	-1E+10	1	-1E+10	1
4902549	95	C	03/31/2023	03:05	-133.546	47.629	0	304.70	0	4.8850	0	33.8010	0	26.740	0	301.931	0	97.2	4	31.3	4	-1E+10	1	-1E+10	1	-1E+10	1	-1E+10	1	-1E+10	1	-1E+10	1
4902549	95	C	03/31/2023	03:05	-133.546	47.629	0	305.60	0	4.8750	0	33.8010	0	26.742	0	302.822	0	96.9	4	31.2	4	-1E+10	1	-1E+10	1	-1E+10	1	-1E+10	1	-1E+10	1	-1E+10	1
4902549	95	C	03/31/2023	03:05	-133.546	47.629	0	306.90	0	4.8650	0	33.8000	0	26.742	0	304.109	0	96.4	4	31.0	4	-1E+10	1	-1E+10	1	-1E+10	1	-1E+10	1	-1E+10	1	-1E+10	1
4902549	95	C	03/31/2023	03:05	-133.546	47.629	0	308.30	0	4.8540	0	33.8010	0	26.744	0	305.495	0	95.9	4	30.8	4	-1E+10	1	-1E+10	1	-1E+10	1	-1E+10	1	-1E+10	1	-1E+10	1
4902549	95	C	03/31/2023	03:05	-133.546	47.629	0	309.20	0	4.8510	0	33.8010	0	26.744	0	306.387	0	95.6	4	30.7	4	-1E+10	1	-1E+10	1	-1E+10	1	-1E+10	1	-1E+10	1	-1E+10	1
4902549	95	C	03/31/2023	03:05	-133.546	47.629	0	310.20	0	4.8480	0	33.8010	0	26.745	0	307.377	0	95.2	4	30.6	4	-1E+10	1	-1E+10	1	-1E+10	1	-1E+10	1	-1E+10	1	-1E+10	1
4902549	95	C	03/31/2023	03:05	-133.546	47.629	0	311.10	0	4.8450	0	33.8010	0	26.745	0	308.268	0	94.8	4	30.4	4	-1E+10	1	-1E+10	1	-1E+10	1	-1E+10	1	-1E+10	1	-1E+10	1
4902549	95	C	03/31/2023	03:05	-133.546	47.629	0	312.00	0	4.8430	0	33.8010	0	26.745	0	309.159	0	94.3	4	30.3	4	-1E+10	1	-1E+10	1	-1E+10	1	-1E+10	1	-1E+10	1	-1E+10	1
4902549	95	C	03/31/2023	03:05	-133.546	47.629	0	313.00	0	4.8390	0	33.8010	0	26.746	0	310.149	0	93.8	4	30.1	4	-1E+10	1	-1E+10	1	-1E+10	1	-1E+10	1	-1E+10	1	-1E+10	1
4902549	95	C	03/31/2023	03:05	-133.546	47.629	0	313.90	0	4.8320	0	33.8020	0	26.747	0	311.040	0	93.4	4	30.0	4	-1E+10	1	-1E+10	1	-1E+10	1	-1E+10	1	-1E+10	1	-1E+10	1
4902549	95	C	03/31/2023	03:05	-133.546	47.629	0	314.80	0	4.8280	0	33.8030	0	26.748	0	311.931	0	92.9	4	29.8	4	-1E+10	1	-1E+10	1	-1E+10	1	-1E+10	1	-1E+10	1	-1E+10	1
4902549	95	C	03/31/2023	03:05	-133.546	47.629	0	315.80	0	4.8290	0	33.8050	0	26.750	0	312.921	0	92.3	4	29.7	4	-1E+10	1	-1E+10	1	-1E+10	1	-1E+10	1	-1E+10	1	-1E+10	1
4902549	95	C	03/31/2023	03:05	-133.546	47.629	0	316.70	0	4.8170	0	33.8080	0	26.754	0	313.813	0	92.0	4	29.5	4	-1E+10	1	-1E+10	1	-1E+10	1	-1E+10	1	-1E+10	1	-1E+10	1
4902549	95	C	03/31/2023	03:05	-133.546	47.629	0	317.70	0	4.8060	0	33.8100	0	26.756	0	314.803	0	91.6	4	29.4	4	-1E+10	1	-1E+10	1	-1E+10	1	-1E+10	1	-1E+10	1	-1E+10	1
4902549	95	C	03/31/2023	03:05	-133.546	47.629	0	318.60	0	4.7990	0	33.8100	0	26.757	0	315.694	0	91.3	4	29.3	4	-1E+10	1	-1E+10	1	-1E+10	1	-1E+10	1	-1E+10	1	-1E+10	1
4902549	95	C	03/31/2023	03:05	-133.546	47.629	0	319.60	0	4.7980	0	33.8100	0	26.757	0	316.684	0	91.0	4	29.2	4	-1E+10	1	-1E+10	1	-1E+10	1	-1E+10	1	-1E+10	1	-1E+10	1
4902549	95	C	03/31/2023	03:05	-133.546	47.629	0	320.50	0	4.7940	0	33.8110	0	26.759	0	317.575	0	90.5	4	29.1	4	-1E+10	1	-1E+10	1	-1E+10	1	-1E+10	1	-1E+10	1	-1E+10	1
4902549	95	C	03/31/2023	03:05	-133.546	47.629	0	321.50	0	4.7940	0	33.8120	0	26.759	0	318.565	0	90.2	4	28.9	4	-1E+10	1	-1E+10	1	-1E+10	1	-1E+10	1	-1E+10	1	-1E+10	1
4902549	95	C	03/31/2023	03:05	-133.546	47.629	0	322.90	0	4.7930	0	33.8130	0	26.760	0	319.951	0	89.5	4	28.7	4	-1E+10	1	-1E+10	1	-1E+10	1	-1E+10	1	-1E+10	1	-1E+10	1
4902549	95	C	03/31/2023	03:05	-133.546	47.629	0	324.40	0	4.7910	0	33.8130	0	26.761	0	321.436	0	88.8	4	28.5	4	-1E+10	1	-1E+10	1	-1E+10	1	-1E+10	1	-1E+10	1	-1E+10	1
4902549	95	C	03/31/2023	03:05	-133.546	47.629	0	325.30	0	4.7910	0	33.8130	0	26.761	0	322.327	0	88.2	4	28.3	4	-1E+10	1	-1E+10	1	-1E+10	1	-1E+10	1	-1E+10	1	-1E+10	1
4902549	95	C	03/31/2023	03:05	-133.546	47.629	0	326.30	0	4.7880	0	33.8130	0	26.761	0	323.318	0	87.5	4	28.1	4	-1E+10	1	-1E+10	1	-1E+10	1	-1E+10	1	-1E+10	1	-1E+10	1
4902549	95	C	03/31/2023	03:05	-133.546	47.629	0	327.30	0	4.7760	0	33.8170	0	26.765	0	324.308	0	86.9	4	27.9	4	-1E+10	1	-1E+10	1	-1E+10	1	-1E+10	1	-1E+10	1	-1E+10	1
4902549	95	C	03/31/2023	03:05	-133.546	47.629	0	328.20	0	4.7670	0	33.8170	0	26.766	0	325.199	0	86.3	4	27.7	4	-1E+10	1	-1E+10	1	-1E+10	1	-1E+10	1	-1E+10	1	-1E+10	1
4902549	95	C	03/31/2023	03:05	-133.546	47.629	0	329.20	0	4.7660	0	33.8180	0	26.767	0	326.189	0	85.6	4	27.5	4	-1E+10	1	-1E+10	1	-1E+10	1	-1E+10	1	-1E+10	1	-1E+10	1
4902549	95	C	03/31/2023	03:05	-133.546	47.629	0	330.10	0	4.7630	0	33.8180	0	26.768	0	327.080	0	84.9	4	27.2	4	-1E+10	1	-1E+10	1	-1E+10	1	-1E+10	1	-1E+10	1	-1E+10	1
4902549	95	C	03/31/2023	03:05	-133.546	47.629	0	331.10	0	4.7590	0	33.8190	0	26.769	0	328.070	0	84.1	4	27.0	4	-1E+10	1	-1E+10	1	-1E+10	1	-1E+10	1	-1E+10	1	-1E+10	1
4902549	95	C	03/31/2023	03:05	-133.546	47.629	0	332.10	0	4.7510	0	33.8220	0	26.772	0	329.060	0	83.4	4	26.7	4	-1E+10	1	-1E+10	1	-1E+10	1	-1E+10	1	-1E+10	1	-1E+10	1
4902549	95	C	03/31/2023	03:05	-133.546	47.629	0	333.10	0	4.7310	0	33.8280	0	26.779	0	330.050	0	82.8	4	26.5	4	-1E+10	1	-1E+10	1	-1E+10	1	-1E+10	1	-1E+10	1	-1E+10	1
4902549	95	C	03/31/2023	03:05	-133.546	47.629	0	334.00	0	4.7170	0	33.8320	0	26.784	0	330.941	0	82.4	4	26.4	4	-1E+10	1	-1E+10	1	-1E+10	1	-1E+10	1	-1E+10	1	-1E+10	1
4902549	95	C	03/31/2023	03:05	-133.546	47.629	0	335.00	0	4.7070	0	33.8350	0	26.787	0	331.931	0	82.0	4	26.3	4	-1E+10	1	-1E+10	1	-1E+10	1	-1E+10	1	-1E+10	1	-1E+10	1
4902549	95	C	03/31/2023	03:05	-133.546	47.629	0	336.00	0	4.7000	0	33.8360	0	26.789	0	332.921	0	81.7	4	26.2	4	-1E+10	1	-1E+10	1	-1E+10	1	-1E+10	1	-1E+10	1	-1E+10	1
4902549	95	C	03/31/2023	03:05	-133.546	47.629	0	337.00	0	4.7000	0	33.8370	0	26.790	0	333.911	0	81.3	4	26.0	4	-1E+10	1	-1E+10	1	-1E+10	1	-1E+10	1	-1E+10	1	-1E+10	1
4902549	95	C	03/31/2023	03:05	-133.546	47.629	0	338.00	0	4.6980	0	33.8380	0	26.791	0	334.901	0	80.9	4	25.9	4	-1E+10	1	-1E+10	1	-1E+10	1	-1E+10	1	-1E+10	1	-1E+10	1
4902549	95	C	03/31/2023	03:05	-133.546	47.629	0	339.00	0	4.6980	0	33.8390	0	26.792	0	335.891	0	80.5	4	25.8	4	-1E+10	1	-1E+10	1	-1E+10	1	-1E+10	1	-1E+10	1	-1E+10	1
4902549	95	C	03/31/2023	03:05	-133.546	47.629	0	339.90	0	4.6970	0	33.8390	0	26.792	0	336.782	0	80.1	4	25.6	4	-1E+10	1	-1E+10	1	-1E+10	1	-1E+10	1	-1E+10	1	-1E+10	1
4902549	95	C	03/31/2023	03:05	-133.546	47.629	0	340.90	0	4.6960	0	33.8400	0	26.793	0	337.772	0	79.6	4	25.5	4	-1E+10	1	-1E+10	1	-1E+10	1	-1E+10	1	-1E+10	1	-1E+10	1
4902549	95	C	03/31/2023	03:05	-133.546	47.629	0	341.90	0	4.6950	0	33.8410	0	26.793	0	338.762	0	79.1	4	25.3	4	-1E+10	1	-1E+10	1	-1E+10	1	-1E+10	1	-1E+10	1	-1E+10	1
4902549	95	C	03/31/2023	03:05	-133.546	47.629	0	342.90	0	4.6940	0	33.8440	0	26.796	0	339.752	0	78.7	4	25.2	4	-1E+10	1	-1E+10	1	-1E+10	1	-1E+10	1	-1E+10	1	-1E+10	1
4902549	95	C	03/31/2023	03:05	-133.546	47.629	0	343.90	0	4.6940	0	33.8470	0	26.798	0	340.742	0	78.3	4	25.1	4	-1E+10	1	-1E+10	1	-1E+10	1	-1E+10	1	-1E+10	1	-1E+10	1
4902549	95	C	03/31/2023	03:05	-133.546	47.629	0	344.90	0	4.6960	0	33.8500	0	26.801	0	341.732	0	77.9	4	24.9	4	-1E+10	1	-1E+10	1	-1E+10	1	-1E+10	1	-1E+10	1	-1E+10	1
4902549	95	C	03/31/2023	03:05	-133.546	47.629	0	345.90	0	4.6970	0	33.8510	0	26.801	0	342.722	0	77.6	4	24.8	4	-1E+10	1	-1E+10	1	-1E+10	1	-1E+10	1	-1E+10	1	-1E+10	1
4902549	95	C	03/31/2023	03:05	-133.546	47.629	0	346.90	0	4.6990	0	33.8520	0	26.802	0	343.712	0	77.2	4	24.7	4	-1E+10	1	-1E+10	1	-1E+10	1	-1E+10	1	-1E+10	1	-1E+10	1
4902549	95	C	03/31/2023	03:05	-133.546	47.629	0	347.90	0	4.7010	0	33.8530	0	26.802	0	344.702	0	76.9	4	24.6	4	-1E+10	1	-1E+10	1	-1E+10	1	-1E+10	1	-1E+10	1	-1E+10	1
4902549	95	C	03/31/2023	03:05	-133.546	47.629	0	348.90	0	4.6990	0	33.8540	0	26.803	0	345.692	0	76.5	4	24.5	4	-1E+10	1	-1E+10	1	-1E+10	1	-1E+10	1	-1E+10	1	-1E+10	1
4902549	95	C	03/31/2023	03:05	-133.546	47.629	0	349.90	0	4.6940	0	33.8550	0	26.805	0	346.682	0	76.1	4	24.4	4	-1E+10	1	-1E+10	1	-1E+10	1	-1E+10	1	-1E+10	1	-1E+10	1
4902549	95	C	03/31/2023	03:05	-133.546	47.629	0	352.80	0	4.6760	0	33.8590	0	26.810	0	349.553	0	74.9	4	24.0	4	-1E+10	1	-1E+10	1	-1E+10	1	-1E+10	1	-1E+10	1	-1E+10	1
4902549	95	C	03/31/2023	03:05	-133.546	47.629	0	357.90	0	4.6300	0	33.8610	0	26.817	0	354.602	0	72.7	4	23.2	4	-1E+10	1	-1E+10	1	-1E+10	1	-1E+10	1	-1E+10	1	-1E+10	1
4902549	95	C	03/31/2023	03:05	-133.546	47.629	0	362.90	0	4.6030	0	33.8690	0	26.826	0	359.551	0	70.5	4	22.5	4	-1E+10	1	-1E+10	1	-1E+10	1	-1E+10	1	-1E+10	1	-1E+10	1
4902549	95	C	03/31/2023	03:05	-133.546	47.629	0	368.00	0	4.6360	0	33.8830	0	26.833	0	364.600	0	68.7	4	22.0	4	-1E+10	1	-1E+10	1	-1E+10	1	-1E+10	1	-1E+10	1	-1E+10	1
4902549	95	C	03/31/2023	03:05	-133.546	47.629	0	373.10	0	4.6600	0	33.8930	0	26.839	0	369.648	0	67.0	4	21.4	4	-1E+10	1	-1E+10	1	-1E+10	1	-1E+10	1	-1E+10	1	-1E+10	1
4902549	95	C	03/31/2023	03:05	-133.546	47.629	0	378.20	0	4.6220	0	33.8970	0	26.846	0	374.696	0	65.4	4	20.9	4	-1E+10	1	-1E+10	1	-1E+10	1	-1E+10	1	-1E+10	1	-1E+10	1
4902549	95	C	03/31/2023	03:05	-133.546	47.629	0	383.30	0	4.6250	0	33.9030	0	26.851	0	379.744	0	63.4	4	20.3	4	-1E+10	1	-1E+10	1	-1E+10	1	-1E+10	1	-1E+10	1	-1E+10	1
4902549	95	C	03/31/2023	03:05	-133.546	47.629	0	387.90	0	4.6210	0	33.9120	0	26.858	0	384.297	0	61.6	4	19.7	4	-1E+10	1	-1E+10	1	-1E+10	1	-1E+10	1	-1E+10	1	-1E+10	1
4902549	95	C	03/31/2023	03:05	-133.546	47.629	0	392.50	0	4.6320	0	33.9240	0	26.867	0	388.850	0	60.2	4	19.3	4	-1E+10	1	-1E+10	1	-1E+10	1	-1E+10	1	-1E+10	1	-1E+10	1
4902549	95	C	03/31/2023	03:05	-133.546	47.629	0	397.70	0	4.6430	0	33.9280	0	26.869	0	393.997	0	58.7	4	18.8	4	-1E+10	1	-1E+10	1	-1E+10	1	-1E+10	1	-1E+10	1	-1E+10	1
4902549	95	C	03/31/2023	03:05	-133.546	47.629	0	402.90	0	4.6160	0	33.9350	0	26.877	0	399.144	0	57.0	4	18.2	4	-1E+10	1	-1E+10	1	-1E+10	1	-1E+10	1	-1E+10	1	-1E+10	1
4902549	95	C	03/31/2023	03:05	-133.546	47.629	0	408.10	0	4.5730	0	33.9390	0	26.885	0	404.290	0	55.4	4	17.7	4	-1E+10	1	-1E+10	1	-1E+10	1	-1E+10	1	-1E+10	1	-1E+10	1
4902549	95	C	03/31/2023	03:05	-133.546	47.629	0	413.30	0	4.4920	0	33.9370	0	26.892	0	409.437	0	54.1	4	17.3	4	-1E+10	1	-1E+10	1	-1E+10	1	-1E+10	1	-1E+10	1	-1E+10	1
4902549	95	C	03/31/2023	03:05	-133.546	47.629	0	418.00	0	4.4640	0	33.9430	0	26.900	0	414.088	0	52.7	4	16.8	4	-1E+10	1	-1E+10	1	-1E+10	1	-1E+10	1	-1E+10	1	-1E+10	1
4902549	95	C	03/31/2023	03:05	-133.546	47.629	0	422.70	0	4.4650	0	33.9510	0	26.906	0	418.739	0	51.8	4	16.5	4	-1E+10	1	-1E+10	1	-1E+10	1	-1E+10	1	-1E+10	1	-1E+10	1
4902549	95	C	03/31/2023	03:05	-133.546	47.629	0	428.00	0	4.3970	0	33.9490	0	26.912	0	423.984	0	51.0	4	16.2	4	-1E+10	1	-1E+10	1	-1E+10	1	-1E+10	1	-1E+10	1	-1E+10	1
4902549	95	C	03/31/2023	03:05	-133.546	47.629	0	433.30	0	4.3960	0	33.9540	0	26.916	0	429.229	0	49.9	4	15.9	4	-1E+10	1	-1E+10	1	-1E+10	1	-1E+10	1	-1E+10	1	-1E+10	1
4902549	95	C	03/31/2023	03:05	-133.546	47.629	0	438.10	0	4.4010	0	33.9600	0	26.920	0	433.979	0	48.7	4	15.5	4	-1E+10	1	-1E+10	1	-1E+10	1	-1E+10	1	-1E+10	1	-1E+10	1
4902549	95	C	03/31/2023	03:05	-133.546	47.629	0	442.80	0	4.3910	0	33.9620	0	26.923	0	438.630	0	47.4	4	15.1	4	-1E+10	1	-1E+10	1	-1E+10	1	-1E+10	1	-1E+10	1	-1E+10	1
4902549	95	C	03/31/2023	03:05	-133.546	47.629	0	448.10	0	4.3300	0	33.9670	0	26.934	0	443.874	0	45.9	4	14.6	4	-1E+10	1	-1E+10	1	-1E+10	1	-1E+10	1	-1E+10	1	-1E+10	1
4902549	95	C	03/31/2023	03:05	-133.546	47.629	0	452.90	0	4.3160	0	33.9750	0	26.942	0	448.624	0	44.5	4	14.1	4	-1E+10	1	-1E+10	1	-1E+10	1	-1E+10	1	-1E+10	1	-1E+10	1
4902549	95	C	03/31/2023	03:05	-133.546	47.629	0	457.60	0	4.3160	0	33.9820	0	26.947	0	453.274	0	43.0	4	13.6	4	-1E+10	1	-1E+10	1	-1E+10	1	-1E+10	1	-1E+10	1	-1E+10	1
4902549	95	C	03/31/2023	03:05	-133.546	47.629	0	462.70	0	4.3750	0	34.0010	0	26.956	0	458.320	0	40.8	4	13.0	4	-1E+10	1	-1E+10	1	-1E+10	1	-1E+10	1	-1E+10	1	-1E+10	1
4902549	95	C	03/31/2023	03:05	-133.546	47.629	0	467.90	0	4.4400	0	34.0160	0	26.961	0	463.465	0	38.8	4	12.4	4	-1E+10	1	-1E+10	1	-1E+10	1	-1E+10	1	-1E+10	1	-1E+10	1
4902549	95	C	03/31/2023	03:05	-133.546	47.629	0	473.10	0	4.4130	0	34.0220	0	26.969	0	468.610	0	37.4	4	11.9	4	-1E+10	1	-1E+10	1	-1E+10	1	-1E+10	1	-1E+10	1	-1E+10	1
4902549	95	C	03/31/2023	03:05	-133.546	47.629	0	478.00	0	4.4320	0	34.0320	0	26.975	0	473.458	0	36.1	4	11.5	4	-1E+10	1	-1E+10	1	-1E+10	1	-1E+10	1	-1E+10	1	-1E+10	1
4902549	95	C	03/31/2023	03:05	-133.546	47.629	0	483.10	0	4.3820	0	34.0330	0	26.981	0	478.504	0	36.3	4	11.6	4	-1E+10	1	-1E+10	1	-1E+10	1	-1E+10	1	-1E+10	1	-1E+10	1
4902549	95	C	03/31/2023	03:05	-133.546	47.629	0	487.80	0	4.3070	0	34.0300	0	26.986	0	483.153	0	36.0	4	11.4	4	-1E+10	1	-1E+10	1	-1E+10	1	-1E+10	1	-1E+10	1	-1E+10	1
4902549	95	C	03/31/2023	03:05	-133.546	47.629	0	492.70	0	4.2900	0	34.0330	0	26.991	0	488.001	0	34.9	4	11.1	4	-1E+10	1	-1E+10	1	-1E+10	1	-1E+10	1	-1E+10	1	-1E+10	1
4902549	95	C	03/31/2023	03:05	-133.546	47.629	0	497.70	0	4.2850	0	34.0380	0	26.995	0	492.947	0	33.6	4	10.7	4	-1E+10	1	-1E+10	1	-1E+10	1	-1E+10	1	-1E+10	1	-1E+10	1
4902549	95	C	03/31/2023	03:05	-133.546	47.629	0	502.80	0	4.2900	0	34.0430	0	26.999	0	497.993	0	32.0	4	10.2	4	-1E+10	1	-1E+10	1	-1E+10	1	-1E+10	1	-1E+10	1	-1E+10	1
4902549	95	C	03/31/2023	03:05	-133.546	47.629	0	508.10	0	4.2710	0	34.0500	0	27.006	0	503.236	0	30.1	4	9.5	4	-1E+10	1	-1E+10	1	-1E+10	1	-1E+10	1	-1E+10	1	-1E+10	1
4902549	95	C	03/31/2023	03:05	-133.546	47.629	0	512.90	0	4.2660	0	34.0610	0	27.016	0	507.984	0	27.6	4	8.8	4	-1E+10	1	-1E+10	1	-1E+10	1	-1E+10	1	-1E+10	1	-1E+10	1
4902549	95	C	03/31/2023	03:05	-133.546	47.629	0	517.80	0	4.3230	0	34.0780	0	27.023	0	512.831	0	26.3	4	8.3	4	-1E+10	1	-1E+10	1	-1E+10	1	-1E+10	1	-1E+10	1	-1E+10	1
4902549	95	C	03/31/2023	03:05	-133.546	47.629	0	522.70	0	4.3200	0	34.0830	0	27.027	0	517.678	0	25.7	4	8.2	4	-1E+10	1	-1E+10	1	-1E+10	1	-1E+10	1	-1E+10	1	-1E+10	1
4902549	95	C	03/31/2023	03:05	-133.546	47.629	0	527.70	0	4.3110	0	34.0860	0	27.031	0	522.623	0	25.1	4	8.0	4	-1E+10	1	-1E+10	1	-1E+10	1	-1E+10	1	-1E+10	1	-1E+10	1
4902549	95	C	03/31/2023	03:05	-133.546	47.629	0	532.80	0	4.3030	0	34.0880	0	27.033	0	527.668	0	24.6	4	7.8	4	-1E+10	1	-1E+10	1	-1E+10	1	-1E+10	1	-1E+10	1	-1E+10	1
4902549	95	C	03/31/2023	03:05	-133.546	47.629	0	538.00	0	4.2790	0	34.0940	0	27.041	0	532.811	0	24.2	4	7.7	4	-1E+10	1	-1E+10	1	-1E+10	1	-1E+10	1	-1E+10	1	-1E+10	1
4902549	95	C	03/31/2023	03:05	-133.546	47.629	0	543.30	0	4.2750	0	34.0960	0	27.043	0	538.053	0	23.9	4	7.6	4	-1E+10	1	-1E+10	1	-1E+10	1	-1E+10	1	-1E+10	1	-1E+10	1
4902549	95	C	03/31/2023	03:05	-133.546	47.629	0	548.10	0	4.2700	0	34.0970	0	27.044	0	542.800	0	23.6	4	7.5	4	-1E+10	1	-1E+10	1	-1E+10	1	-1E+10	1	-1E+10	1	-1E+10	1
4902549	95	C	03/31/2023	03:05	-133.546	47.629	0	553.00	0	4.2580	0	34.1000	0	27.048	0	547.647	0	23.5	4	7.4	4	-1E+10	1	-1E+10	1	-1E+10	1	-1E+10	1	-1E+10	1	-1E+10	1
4902549	95	C	03/31/2023	03:05	-133.546	47.629	0	557.90	0	4.2340	0	34.1010	0	27.051	0	552.493	0	23.2	4	7.4	4	-1E+10	1	-1E+10	1	-1E+10	1	-1E+10	1	-1E+10	1	-1E+10	1
4902549	95	C	03/31/2023	03:05	-133.546	47.629	0	562.90	0	4.2230	0	34.1000	0	27.051	0	557.437	0	22.6	4	7.2	4	-1E+10	1	-1E+10	1	-1E+10	1	-1E+10	1	-1E+10	1	-1E+10	1
4902549	95	C	03/31/2023	03:05	-133.546	47.629	0	568.00	0	4.2180	0	34.1050	0	27.056	0	562.481	0	21.5	4	6.8	4	-1E+10	1	-1E+10	1	-1E+10	1	-1E+10	1	-1E+10	1	-1E+10	1
4902549	95	C	03/31/2023	03:05	-133.546	47.629	0	572.60	0	4.2310	0	34.1120	0	27.060	0	567.030	0	21.0	4	6.7	4	-1E+10	1	-1E+10	1	-1E+10	1	-1E+10	1	-1E+10	1	-1E+10	1
4902549	95	C	03/31/2023	03:05	-133.546	47.629	0	577.80	0	4.2080	0	34.1160	0	27.066	0	572.172	0	20.7	4	6.6	4	-1E+10	1	-1E+10	1	-1E+10	1	-1E+10	1	-1E+10	1	-1E+10	1
4902549	95	C	03/31/2023	03:05	-133.546	47.629	0	583.10	0	4.1940	0	34.1200	0	27.071	0	577.413	0	20.9	4	6.6	4	-1E+10	1	-1E+10	1	-1E+10	1	-1E+10	1	-1E+10	1	-1E+10	1
4902549	95	C	03/31/2023	03:05	-133.546	47.629	0	587.80	0	4.1270	0	34.1190	0	27.077	0	582.061	0	21.0	4	6.7	4	-1E+10	1	-1E+10	1	-1E+10	1	-1E+10	1	-1E+10	1	-1E+10	1
4902549	95	C	03/31/2023	03:05	-133.546	47.629	0	592.50	0	4.0920	0	34.1240	0	27.084	0	586.708	0	20.4	4	6.5	4	-1E+10	1	-1E+10	1	-1E+10	1	-1E+10	1	-1E+10	1	-1E+10	1
4902549	95	C	03/31/2023	03:05	-133.546	47.629	0	597.80	0	4.0950	0	34.1260	0	27.086	0	591.949	0	19.8	4	6.3	4	-1E+10	1	-1E+10	1	-1E+10	1	-1E+10	1	-1E+10	1	-1E+10	1
4902549	95	C	03/31/2023	03:05	-133.546	47.629	0	603.10	0	4.1010	0	34.1290	0	27.088	0	597.190	0	19.1	4	6.0	4	-1E+10	1	-1E+10	1	-1E+10	1	-1E+10	1	-1E+10	1	-1E+10	1
4902549	95	C	03/31/2023	03:05	-133.546	47.629	0	607.80	0	4.0920	0	34.1320	0	27.091	0	601.837	0	18.5	4	5.8	4	-1E+10	1	-1E+10	1	-1E+10	1	-1E+10	1	-1E+10	1	-1E+10	1
4902549	95	C	03/31/2023	03:05	-133.546	47.629	0	613.00	0	4.0850	0	34.1360	0	27.095	0	606.978	0	17.5	4	5.5	4	-1E+10	1	-1E+10	1	-1E+10	1	-1E+10	1	-1E+10	1	-1E+10	1
4902549	95	C	03/31/2023	03:05	-133.546	47.629	0	618.20	0	4.0780	0	34.1400	0	27.099	0	612.119	0	16.5	4	5.2	4	-1E+10	1	-1E+10	1	-1E+10	1	-1E+10	1	-1E+10	1	-1E+10	1
4902549	95	C	03/31/2023	03:05	-133.546	47.629	0	622.70	0	4.0700	0	34.1470	0	27.105	0	616.569	0	15.9	4	5.0	4	-1E+10	1	-1E+10	1	-1E+10	1	-1E+10	1	-1E+10	1	-1E+10	1
4902549	95	C	03/31/2023	03:05	-133.546	47.629	0	627.80	0	4.0620	0	34.1520	0	27.110	0	621.611	0	15.5	4	4.9	4	-1E+10	1	-1E+10	1	-1E+10	1	-1E+10	1	-1E+10	1	-1E+10	1
4902549	95	C	03/31/2023	03:05	-133.546	47.629	0	632.80	0	4.0520	0	34.1550	0	27.113	0	626.554	0	15.2	4	4.8	4	-1E+10	1	-1E+10	1	-1E+10	1	-1E+10	1	-1E+10	1	-1E+10	1
4902549	95	C	03/31/2023	03:05	-133.546	47.629	0	637.70	0	4.0440	0	34.1570	0	27.116	0	631.398	0	14.9	4	4.7	4	-1E+10	1	-1E+10	1	-1E+10	1	-1E+10	1	-1E+10	1	-1E+10	1
4902549	95	C	03/31/2023	03:05	-133.546	47.629	0	643.10	0	4.0420	0	34.1590	0	27.118	0	636.736	0	14.6	4	4.6	4	-1E+10	1	-1E+10	1	-1E+10	1	-1E+10	1	-1E+10	1	-1E+10	1
4902549	95	C	03/31/2023	03:05	-133.546	47.629	0	647.80	0	4.0170	0	34.1620	0	27.123	0	641.383	0	14.3	4	4.5	4	-1E+10	1	-1E+10	1	-1E+10	1	-1E+10	1	-1E+10	1	-1E+10	1
4902549	95	C	03/31/2023	03:05	-133.546	47.629	0	652.50	0	3.9950	0	34.1630	0	27.126	0	646.029	0	13.6	4	4.3	4	-1E+10	1	-1E+10	1	-1E+10	1	-1E+10	1	-1E+10	1	-1E+10	1
4902549	95	C	03/31/2023	03:05	-133.546	47.629	0	657.60	0	3.9810	0	34.1740	0	27.136	0	651.070	0	12.9	4	4.1	4	-1E+10	1	-1E+10	1	-1E+10	1	-1E+10	1	-1E+10	1	-1E+10	1
4902549	95	C	03/31/2023	03:05	-133.546	47.629	0	662.70	0	3.9660	0	34.1800	0	27.142	0	656.112	0	12.5	4	3.9	4	-1E+10	1	-1E+10	1	-1E+10	1	-1E+10	1	-1E+10	1	-1E+10	1
4902549	95	C	03/31/2023	03:05	-133.546	47.629	0	667.70	0	3.9570	0	34.1840	0	27.146	0	661.054	0	12.2	4	3.8	4	-1E+10	1	-1E+10	1	-1E+10	1	-1E+10	1	-1E+10	1	-1E+10	1
4902549	95	C	03/31/2023	03:05	-133.546	47.629	0	672.60	0	3.9390	0	34.1900	0	27.153	0	665.897	0	11.9	4	3.8	4	-1E+10	1	-1E+10	1	-1E+10	1	-1E+10	1	-1E+10	1	-1E+10	1
4902549	95	C	03/31/2023	03:05	-133.546	47.629	0	677.60	0	3.9270	0	34.1920	0	27.156	0	670.840	0	11.7	4	3.7	4	-1E+10	1	-1E+10	1	-1E+10	1	-1E+10	1	-1E+10	1	-1E+10	1
4902549	95	C	03/31/2023	03:05	-133.546	47.629	0	682.60	0	3.9210	0	34.1960	0	27.160	0	675.782	0	11.4	4	3.6	4	-1E+10	1	-1E+10	1	-1E+10	1	-1E+10	1	-1E+10	1	-1E+10	1
4902549	95	C	03/31/2023	03:05	-133.546	47.629	0	687.60	0	3.9210	0	34.2000	0	27.163	0	680.724	0	11.2	4	3.5	4	-1E+10	1	-1E+10	1	-1E+10	1	-1E+10	1	-1E+10	1	-1E+10	1
4902549	95	C	03/31/2023	03:05	-133.546	47.629	0	692.60	0	3.8980	0	34.2030	0	27.168	0	685.665	0	11.1	4	3.5	4	-1E+10	1	-1E+10	1	-1E+10	1	-1E+10	1	-1E+10	1	-1E+10	1
4902549	95	C	03/31/2023	03:05	-133.546	47.629	0	697.60	0	3.8690	0	34.2040	0	27.171	0	690.607	0	10.9	4	3.4	4	-1E+10	1	-1E+10	1	-1E+10	1	-1E+10	1	-1E+10	1	-1E+10	1
4902549	95	C	03/31/2023	03:05	-133.546	47.629	0	702.60	0	3.8670	0	34.2080	0	27.175	0	695.548	0	10.7	4	3.4	4	-1E+10	1	-1E+10	1	-1E+10	1	-1E+10	1	-1E+10	1	-1E+10	1
4902549	95	C	03/31/2023	03:05	-133.546	47.629	0	707.60	0	3.8640	0	34.2110	0	27.178	0	700.490	0	10.6	4	3.3	4	-1E+10	1	-1E+10	1	-1E+10	1	-1E+10	1	-1E+10	1	-1E+10	1
4902549	95	C	03/31/2023	03:05	-133.546	47.629	0	712.70	0	3.8400	0	34.2130	0	27.182	0	705.530	0	10.4	4	3.3	4	-1E+10	1	-1E+10	1	-1E+10	1	-1E+10	1	-1E+10	1	-1E+10	1
4902549	95	C	03/31/2023	03:05	-133.546	47.629	0	718.10	0	3.8130	0	34.2170	0	27.188	0	710.867	0	10.1	4	3.2	4	-1E+10	1	-1E+10	1	-1E+10	1	-1E+10	1	-1E+10	1	-1E+10	1
4902549	95	C	03/31/2023	03:05	-133.546	47.629	0	723.00	0	3.8000	0	34.2220	0	27.193	0	715.709	0	9.8	4	3.1	4	-1E+10	1	-1E+10	1	-1E+10	1	-1E+10	1	-1E+10	1	-1E+10	1
4902549	95	C	03/31/2023	03:05	-133.546	47.629	0	727.80	0	3.7920	0	34.2260	0	27.197	0	720.452	0	9.6	4	3.0	4	-1E+10	1	-1E+10	1	-1E+10	1	-1E+10	1	-1E+10	1	-1E+10	1
4902549	95	C	03/31/2023	03:05	-133.546	47.629	0	732.90	0	3.7700	0	34.2290	0	27.201	0	725.492	0	9.4	4	2.9	4	-1E+10	1	-1E+10	1	-1E+10	1	-1E+10	1	-1E+10	1	-1E+10	1
4902549	95	C	03/31/2023	03:05	-133.546	47.629	0	738.10	0	3.7550	0	34.2340	0	27.207	0	730.630	0	9.2	4	2.9	4	-1E+10	1	-1E+10	1	-1E+10	1	-1E+10	1	-1E+10	1	-1E+10	1
4902549	95	C	03/31/2023	03:05	-133.546	47.629	0	743.00	0	3.7460	0	34.2360	0	27.209	0	735.472	0	9.1	4	2.8	4	-1E+10	1	-1E+10	1	-1E+10	1	-1E+10	1	-1E+10	1	-1E+10	1
4902549	95	C	03/31/2023	03:05	-133.546	47.629	0	747.90	0	3.7440	0	34.2370	0	27.211	0	740.314	0	8.9	4	2.8	4	-1E+10	1	-1E+10	1	-1E+10	1	-1E+10	1	-1E+10	1	-1E+10	1
4902549	95	C	03/31/2023	03:05	-133.546	47.629	0	752.80	0	3.7330	0	34.2400	0	27.214	0	745.155	0	8.6	4	2.7	4	-1E+10	1	-1E+10	1	-1E+10	1	-1E+10	1	-1E+10	1	-1E+10	1
4902549	95	C	03/31/2023	03:05	-133.546	47.629	0	758.00	0	3.7210	0	34.2440	0	27.218	0	750.293	0	8.4	4	2.6	4	-1E+10	1	-1E+10	1	-1E+10	1	-1E+10	1	-1E+10	1	-1E+10	1
4902549	95	C	03/31/2023	03:05	-133.546	47.629	0	763.30	0	3.7110	0	34.2480	0	27.223	0	755.529	0	8.1	4	2.5	4	-1E+10	1	-1E+10	1	-1E+10	1	-1E+10	1	-1E+10	1	-1E+10	1
4902549	95	C	03/31/2023	03:05	-133.546	47.629	0	768.20	0	3.6980	0	34.2540	0	27.229	0	760.371	0	8.0	4	2.5	4	-1E+10	1	-1E+10	1	-1E+10	1	-1E+10	1	-1E+10	1	-1E+10	1
4902549	95	C	03/31/2023	03:05	-133.546	47.629	0	773.00	0	3.6910	0	34.2550	0	27.230	0	765.113	0	7.9	4	2.5	4	-1E+10	1	-1E+10	1	-1E+10	1	-1E+10	1	-1E+10	1	-1E+10	1
4902549	95	C	03/31/2023	03:05	-133.546	47.629	0	777.70	0	3.6760	0	34.2570	0	27.233	0	769.756	0	7.8	4	2.4	4	-1E+10	1	-1E+10	1	-1E+10	1	-1E+10	1	-1E+10	1	-1E+10	1
4902549	95	C	03/31/2023	03:05	-133.546	47.629	0	782.70	0	3.6690	0	34.2620	0	27.238	0	774.696	0	7.7	4	2.4	4	-1E+10	1	-1E+10	1	-1E+10	1	-1E+10	1	-1E+10	1	-1E+10	1
4902549	95	C	03/31/2023	03:05	-133.546	47.629	0	787.90	0	3.6620	0	34.2640	0	27.240	0	779.833	0	7.6	4	2.4	4	-1E+10	1	-1E+10	1	-1E+10	1	-1E+10	1	-1E+10	1	-1E+10	1
4902549	95	C	03/31/2023	03:05	-133.546	47.629	0	793.20	0	3.6490	0	34.2680	0	27.245	0	785.069	0	7.7	4	2.4	4	-1E+10	1	-1E+10	1	-1E+10	1	-1E+10	1	-1E+10	1	-1E+10	1
4902549	95	C	03/31/2023	03:05	-133.546	47.629	0	797.90	0	3.6360	0	34.2700	0	27.248	0	789.712	0	7.8	4	2.4	4	-1E+10	1	-1E+10	1	-1E+10	1	-1E+10	1	-1E+10	1	-1E+10	1
4902549	95	C	03/31/2023	03:05	-133.546	47.629	0	802.70	0	3.6220	0	34.2710	0	27.250	0	794.453	0	7.9	4	2.5	4	-1E+10	1	-1E+10	1	-1E+10	1	-1E+10	1	-1E+10	1	-1E+10	1
4902549	95	C	03/31/2023	03:05	-133.546	47.629	0	808.10	0	3.6030	0	34.2740	0	27.254	0	799.788	0	7.9	4	2.5	4	-1E+10	1	-1E+10	1	-1E+10	1	-1E+10	1	-1E+10	1	-1E+10	1
4902549	95	C	03/31/2023	03:05	-133.546	47.629	0	813.10	0	3.5940	0	34.2760	0	27.257	0	804.727	0	7.8	4	2.4	4	-1E+10	1	-1E+10	1	-1E+10	1	-1E+10	1	-1E+10	1	-1E+10	1
4902549	95	C	03/31/2023	03:05	-133.546	47.629	0	817.70	0	3.5900	0	34.2790	0	27.260	0	809.270	0	7.6	4	2.4	4	-1E+10	1	-1E+10	1	-1E+10	1	-1E+10	1	-1E+10	1	-1E+10	1
4902549	95	C	03/31/2023	03:05	-133.546	47.629	0	822.80	0	3.5800	0	34.2830	0	27.264	0	814.308	0	7.6	4	2.4	4	-1E+10	1	-1E+10	1	-1E+10	1	-1E+10	1	-1E+10	1	-1E+10	1
4902549	95	C	03/31/2023	03:05	-133.546	47.629	0	828.00	0	3.5740	0	34.2850	0	27.266	0	819.444	0	7.5	4	2.3	4	-1E+10	1	-1E+10	1	-1E+10	1	-1E+10	1	-1E+10	1	-1E+10	1
4902549	95	C	03/31/2023	03:05	-133.546	47.629	0	832.70	0	3.5610	0	34.2870	0	27.269	0	824.086	0	7.5	4	2.3	4	-1E+10	1	-1E+10	1	-1E+10	1	-1E+10	1	-1E+10	1	-1E+10	1
4902549	95	C	03/31/2023	03:05	-133.546	47.629	0	837.90	0	3.5500	0	34.2900	0	27.272	0	829.222	0	7.4	4	2.3	4	-1E+10	1	-1E+10	1	-1E+10	1	-1E+10	1	-1E+10	1	-1E+10	1
4902549	95	C	03/31/2023	03:05	-133.546	47.629	0	843.20	0	3.5470	0	34.2920	0	27.274	0	834.457	0	7.3	4	2.3	4	-1E+10	1	-1E+10	1	-1E+10	1	-1E+10	1	-1E+10	1	-1E+10	1
4902549	95	C	03/31/2023	03:05	-133.546	47.629	0	848.00	0	3.5360	0	34.2950	0	27.278	0	839.197	0	7.3	4	2.3	4	-1E+10	1	-1E+10	1	-1E+10	1	-1E+10	1	-1E+10	1	-1E+10	1
4902549	95	C	03/31/2023	03:05	-133.546	47.629	0	852.90	0	3.5290	0	34.2970	0	27.280	0	844.036	0	7.3	4	2.3	4	-1E+10	1	-1E+10	1	-1E+10	1	-1E+10	1	-1E+10	1	-1E+10	1
4902549	95	C	03/31/2023	03:05	-133.546	47.629	0	857.70	0	3.5140	0	34.2980	0	27.282	0	848.777	0	7.3	4	2.3	4	-1E+10	1	-1E+10	1	-1E+10	1	-1E+10	1	-1E+10	1	-1E+10	1
4902549	95	C	03/31/2023	03:05	-133.546	47.629	0	863.00	0	3.5050	0	34.3000	0	27.285	0	854.011	0	7.2	4	2.3	4	-1E+10	1	-1E+10	1	-1E+10	1	-1E+10	1	-1E+10	1	-1E+10	1
4902549	95	C	03/31/2023	03:05	-133.546	47.629	0	868.30	0	3.4960	0	34.3020	0	27.287	0	859.245	0	7.1	4	2.2	4	-1E+10	1	-1E+10	1	-1E+10	1	-1E+10	1	-1E+10	1	-1E+10	1
4902549	95	C	03/31/2023	03:05	-133.546	47.629	0	873.00	0	3.4860	0	34.3040	0	27.290	0	863.886	0	7.0	4	2.2	4	-1E+10	1	-1E+10	1	-1E+10	1	-1E+10	1	-1E+10	1	-1E+10	1
4902549	95	C	03/31/2023	03:05	-133.546	47.629	0	877.70	0	3.4810	0	34.3060	0	27.292	0	868.527	0	6.9	4	2.1	4	-1E+10	1	-1E+10	1	-1E+10	1	-1E+10	1	-1E+10	1	-1E+10	1
4902549	95	C	03/31/2023	03:05	-133.546	47.629	0	882.80	0	3.4730	0	34.3110	0	27.297	0	873.563	0	6.9	4	2.1	4	-1E+10	1	-1E+10	1	-1E+10	1	-1E+10	1	-1E+10	1	-1E+10	1
4902549	95	C	03/31/2023	03:05	-133.546	47.629	0	887.90	0	3.4580	0	34.3100	0	27.297	0	878.599	0	7.0	4	2.2	4	-1E+10	1	-1E+10	1	-1E+10	1	-1E+10	1	-1E+10	1	-1E+10	1
4902549	95	C	03/31/2023	03:05	-133.546	47.629	0	893.00	0	3.4440	0	34.3120	0	27.300	0	883.635	0	7.0	4	2.2	4	-1E+10	1	-1E+10	1	-1E+10	1	-1E+10	1	-1E+10	1	-1E+10	1
4902549	95	C	03/31/2023	03:05	-133.546	47.629	0	897.90	0	3.4360	0	34.3150	0	27.304	0	888.473	0	6.9	4	2.1	4	-1E+10	1	-1E+10	1	-1E+10	1	-1E+10	1	-1E+10	1	-1E+10	1
4902549	95	C	03/31/2023	03:05	-133.546	47.629	0	902.80	0	3.4360	0	34.3170	0	27.305	0	893.311	0	6.8	4	2.1	4	-1E+10	1	-1E+10	1	-1E+10	1	-1E+10	1	-1E+10	1	-1E+10	1
4902549	95	C	03/31/2023	03:05	-133.546	47.629	0	908.10	0	3.4350	0	34.3230	0	27.310	0	898.544	0	6.6	4	2.1	4	-1E+10	1	-1E+10	1	-1E+10	1	-1E+10	1	-1E+10	1	-1E+10	1
4902549	95	C	03/31/2023	03:05	-133.546	47.629	0	912.90	0	3.4420	0	34.3280	0	27.313	0	903.283	0	6.6	4	2.0	4	-1E+10	1	-1E+10	1	-1E+10	1	-1E+10	1	-1E+10	1	-1E+10	1
4902549	95	C	03/31/2023	03:05	-133.546	47.629	0	917.70	0	3.4400	0	34.3300	0	27.315	0	908.022	0	6.6	4	2.0	4	-1E+10	1	-1E+10	1	-1E+10	1	-1E+10	1	-1E+10	1	-1E+10	1
4902549	95	C	03/31/2023	03:05	-133.546	47.629	0	922.90	0	3.4290	0	34.3320	0	27.318	0	913.156	0	6.5	4	2.0	4	-1E+10	1	-1E+10	1	-1E+10	1	-1E+10	1	-1E+10	1	-1E+10	1
4902549	95	C	03/31/2023	03:05	-133.546	47.629	0	928.10	0	3.4110	0	34.3350	0	27.322	0	918.290	0	6.6	4	2.1	4	-1E+10	1	-1E+10	1	-1E+10	1	-1E+10	1	-1E+10	1	-1E+10	1
4902549	95	C	03/31/2023	03:05	-133.546	47.629	0	933.20	0	3.3790	0	34.3350	0	27.325	0	923.325	0	6.7	4	2.1	4	-1E+10	1	-1E+10	1	-1E+10	1	-1E+10	1	-1E+10	1	-1E+10	1
4902549	95	C	03/31/2023	03:05	-133.546	47.629	0	937.90	0	3.3510	0	34.3350	0	27.328	0	927.965	0	6.6	4	2.1	4	-1E+10	1	-1E+10	1	-1E+10	1	-1E+10	1	-1E+10	1	-1E+10	1
4902549	95	C	03/31/2023	03:05	-133.546	47.629	0	942.60	0	3.3430	0	34.3380	0	27.331	0	932.604	0	6.5	4	2.0	4	-1E+10	1	-1E+10	1	-1E+10	1	-1E+10	1	-1E+10	1	-1E+10	1
4902549	95	C	03/31/2023	03:05	-133.546	47.629	0	947.80	0	3.3510	0	34.3460	0	27.337	0	937.737	0	6.4	4	2.0	4	-1E+10	1	-1E+10	1	-1E+10	1	-1E+10	1	-1E+10	1	-1E+10	1
4902549	95	C	03/31/2023	03:05	-133.546	47.629	0	953.10	0	3.3390	0	34.3510	0	27.342	0	942.969	0	6.4	4	2.0	4	-1E+10	1	-1E+10	1	-1E+10	1	-1E+10	1	-1E+10	1	-1E+10	1
4902549	95	C	03/31/2023	03:05	-133.546	47.629	0	958.00	0	3.3240	0	34.3540	0	27.346	0	947.806	0	6.4	4	2.0	4	-1E+10	1	-1E+10	1	-1E+10	1	-1E+10	1	-1E+10	1	-1E+10	1
4902549	95	C	03/31/2023	03:05	-133.546	47.629	0	963.00	0	3.3290	0	34.3580	0	27.348	0	952.742	0	6.4	4	2.0	4	-1E+10	1	-1E+10	1	-1E+10	1	-1E+10	1	-1E+10	1	-1E+10	1
4902549	95	C	03/31/2023	03:05	-133.546	47.629	0	968.00	0	3.3200	0	34.3620	0	27.352	0	957.677	0	6.4	4	2.0	4	-1E+10	1	-1E+10	1	-1E+10	1	-1E+10	1	-1E+10	1	-1E+10	1
4902549	95	C	03/31/2023	03:05	-133.546	47.629	0	972.70	0	3.3170	0	34.3630	0	27.354	0	962.316	0	6.4	4	2.0	4	-1E+10	1	-1E+10	1	-1E+10	1	-1E+10	1	-1E+10	1	-1E+10	1
4902549	95	C	03/31/2023	03:05	-133.546	47.629	0	977.50	0	3.3060	0	34.3660	0	27.357	0	967.054	0	6.4	4	2.0	4	-1E+10	1	-1E+10	1	-1E+10	1	-1E+10	1	-1E+10	1	-1E+10	1
4902549	95	C	03/31/2023	03:05	-133.546	47.629	0	982.90	0	3.3050	0	34.3710	0	27.361	0	972.383	0	6.4	4	2.0	4	-1E+10	1	-1E+10	1	-1E+10	1	-1E+10	1	-1E+10	1	-1E+10	1
4902549	95	C	03/31/2023	03:05	-133.546	47.629	0	988.30	0	3.3010	0	34.3740	0	27.364	0	977.713	0	6.4	4	2.0	4	-1E+10	1	-1E+10	1	-1E+10	1	-1E+10	1	-1E+10	1	-1E+10	1
4902549	95	C	03/31/2023	03:05	-133.546	47.629	0	993.30	0	3.2930	0	34.3760	0	27.366	0	982.648	0	6.4	4	2.0	4	-1E+10	1	-1E+10	1	-1E+10	1	-1E+10	1	-1E+10	1	-1E+10	1
4902549	95	C	03/31/2023	03:05	-133.546	47.629	0	998.40	0	3.2880	0	34.3770	0	27.368	0	987.681	0	6.5	4	2.0	4	-1E+10	1	-1E+10	1	-1E+10	1	-1E+10	1	-1E+10	1	-1E+10	1
4902549	95	C	03/31/2023	03:05	-133.546	47.629	0	1005.50	0	3.2670	0	34.3800	0	27.372	0	994.688	0	6.6	4	2.0	4	-1E+10	1	-1E+10	1	-1E+10	1	-1E+10	1	-1E+10	1	-1E+10	1
4902549	95	C	03/31/2023	03:05	-133.546	47.629	0	1015.40	0	3.2450	0	34.3850	0	27.378	0	1004.458	0	6.7	4	2.1	4	-1E+10	1	-1E+10	1	-1E+10	1	-1E+10	1	-1E+10	1	-1E+10	1
4902549	95	C	03/31/2023	03:05	-133.546	47.629	0	1025.80	0	3.2280	0	34.3880	0	27.382	0	1014.721	0	6.8	4	2.1	4	-1E+10	1	-1E+10	1	-1E+10	1	-1E+10	1	-1E+10	1	-1E+10	1
4902549	95	C	03/31/2023	03:05	-133.546	47.629	0	1035.50	0	3.2070	0	34.3910	0	27.387	0	1024.292	0	6.9	4	2.1	4	-1E+10	1	-1E+10	1	-1E+10	1	-1E+10	1	-1E+10	1	-1E+10	1
4902549	95	C	03/31/2023	03:05	-133.546	47.629	0	1045.50	0	3.1880	0	34.3940	0	27.391	0	1034.159	0	7.0	4	2.2	4	-1E+10	1	-1E+10	1	-1E+10	1	-1E+10	1	-1E+10	1	-1E+10	1
4902549	95	C	03/31/2023	03:05	-133.546	47.629	0	1055.50	0	3.1720	0	34.3970	0	27.395	0	1044.026	0	7.1	4	2.2	4	-1E+10	1	-1E+10	1	-1E+10	1	-1E+10	1	-1E+10	1	-1E+10	1
4902549	95	C	03/31/2023	03:05	-133.546	47.629	0	1065.40	0	3.1510	0	34.4010	0	27.400	0	1053.793	0	7.3	4	2.2	4	-1E+10	1	-1E+10	1	-1E+10	1	-1E+10	1	-1E+10	1	-1E+10	1
4902549	95	C	03/31/2023	03:05	-133.546	47.629	0	1075.20	0	3.1390	0	34.4020	0	27.402	0	1063.462	0	7.4	4	2.3	4	-1E+10	1	-1E+10	1	-1E+10	1	-1E+10	1	-1E+10	1	-1E+10	1
4902549	95	C	03/31/2023	03:05	-133.546	47.629	0	1085.20	0	3.1200	0	34.4050	0	27.406	0	1073.327	0	7.5	4	2.3	4	-1E+10	1	-1E+10	1	-1E+10	1	-1E+10	1	-1E+10	1	-1E+10	1
4902549	95	C	03/31/2023	03:05	-133.546	47.629	0	1095.30	0	3.0980	0	34.4080	0	27.411	0	1083.291	0	7.7	4	2.4	4	-1E+10	1	-1E+10	1	-1E+10	1	-1E+10	1	-1E+10	1	-1E+10	1
4902549	95	C	03/31/2023	03:05	-133.546	47.629	0	1105.30	0	3.0710	0	34.4110	0	27.415	0	1093.155	0	7.8	4	2.4	4	-1E+10	1	-1E+10	1	-1E+10	1	-1E+10	1	-1E+10	1	-1E+10	1
4902549	95	C	03/31/2023	03:05	-133.546	47.629	0	1115.40	0	3.0530	0	34.4130	0	27.419	0	1103.117	0	7.9	4	2.4	4	-1E+10	1	-1E+10	1	-1E+10	1	-1E+10	1	-1E+10	1	-1E+10	1
4902549	95	C	03/31/2023	03:05	-133.546	47.629	0	1125.60	0	3.0440	0	34.4150	0	27.421	0	1113.178	0	8.0	4	2.5	4	-1E+10	1	-1E+10	1	-1E+10	1	-1E+10	1	-1E+10	1	-1E+10	1
4902549	95	C	03/31/2023	03:05	-133.546	47.629	0	1135.40	0	3.0290	0	34.4160	0	27.423	0	1122.844	0	8.2	4	2.5	4	-1E+10	1	-1E+10	1	-1E+10	1	-1E+10	1	-1E+10	1	-1E+10	1
4902549	95	C	03/31/2023	03:05	-133.546	47.629	0	1145.20	0	3.0020	0	34.4170	0	27.427	0	1132.509	0	8.3	4	2.6	4	-1E+10	1	-1E+10	1	-1E+10	1	-1E+10	1	-1E+10	1	-1E+10	1
4902549	95	C	03/31/2023	03:05	-133.546	47.629	0	1155.50	0	2.9760	0	34.4180	0	27.430	0	1142.667	0	8.4	4	2.6	4	-1E+10	1	-1E+10	1	-1E+10	1	-1E+10	1	-1E+10	1	-1E+10	1
4902549	95	C	03/31/2023	03:05	-133.546	47.629	0	1165.70	0	2.9500	0	34.4210	0	27.435	0	1152.726	0	8.6	4	2.7	4	-1E+10	1	-1E+10	1	-1E+10	1	-1E+10	1	-1E+10	1	-1E+10	1
4902549	95	C	03/31/2023	03:05	-133.546	47.629	0	1175.60	0	2.9650	0	34.4280	0	27.439	0	1162.488	0	8.9	4	2.8	4	-1E+10	1	-1E+10	1	-1E+10	1	-1E+10	1	-1E+10	1	-1E+10	1
4902549	95	C	03/31/2023	03:05	-133.546	47.629	0	1185.50	0	2.9560	0	34.4330	0	27.444	0	1172.250	0	9.2	4	2.8	4	-1E+10	1	-1E+10	1	-1E+10	1	-1E+10	1	-1E+10	1	-1E+10	1
4902549	95	C	03/31/2023	03:05	-133.546	47.629	0	1195.30	0	2.9380	0	34.4360	0	27.448	0	1181.913	0	9.5	4	2.9	4	-1E+10	1	-1E+10	1	-1E+10	1	-1E+10	1	-1E+10	1	-1E+10	1
4902549	95	C	03/31/2023	03:05	-133.546	47.629	0	1205.20	0	2.9000	0	34.4370	0	27.452	0	1191.674	0	9.7	4	3.0	4	-1E+10	1	-1E+10	1	-1E+10	1	-1E+10	1	-1E+10	1	-1E+10	1
4902549	95	C	03/31/2023	03:05	-133.546	47.629	0	1215.50	0	2.8900	0	34.4420	0	27.457	0	1201.829	0	10.1	4	3.1	4	-1E+10	1	-1E+10	1	-1E+10	1	-1E+10	1	-1E+10	1	-1E+10	1
4902549	95	C	03/31/2023	03:05	-133.546	47.629	0	1225.70	0	2.8650	0	34.4460	0	27.463	0	1211.885	0	10.5	4	3.2	4	-1E+10	1	-1E+10	1	-1E+10	1	-1E+10	1	-1E+10	1	-1E+10	1
4902549	95	C	03/31/2023	03:05	-133.546	47.629	0	1235.30	0	2.8470	0	34.4490	0	27.467	0	1221.349	0	10.7	4	3.3	4	-1E+10	1	-1E+10	1	-1E+10	1	-1E+10	1	-1E+10	1	-1E+10	1
4902549	95	C	03/31/2023	03:05	-133.546	47.629	0	1245.20	0	2.8280	0	34.4500	0	27.469	0	1231.108	0	11.0	4	3.4	4	-1E+10	1	-1E+10	1	-1E+10	1	-1E+10	1	-1E+10	1	-1E+10	1
4902549	95	C	03/31/2023	03:05	-133.546	47.629	0	1255.30	0	2.8170	0	34.4520	0	27.472	0	1241.064	0	11.3	4	3.5	4	-1E+10	1	-1E+10	1	-1E+10	1	-1E+10	1	-1E+10	1	-1E+10	1
4902549	95	C	03/31/2023	03:05	-133.546	47.629	0	1265.20	0	2.7970	0	34.4550	0	27.476	0	1250.822	0	11.6	4	3.6	4	-1E+10	1	-1E+10	1	-1E+10	1	-1E+10	1	-1E+10	1	-1E+10	1
4902549	95	C	03/31/2023	03:05	-133.546	47.629	0	1275.30	0	2.7740	0	34.4570	0	27.480	0	1260.777	0	12.0	4	3.7	4	-1E+10	1	-1E+10	1	-1E+10	1	-1E+10	1	-1E+10	1	-1E+10	1
4902549	95	C	03/31/2023	03:05	-133.546	47.629	0	1285.40	0	2.7420	0	34.4590	0	27.484	0	1270.732	0	12.3	4	3.8	4	-1E+10	1	-1E+10	1	-1E+10	1	-1E+10	1	-1E+10	1	-1E+10	1
4902549	95	C	03/31/2023	03:05	-133.546	47.629	0	1295.40	0	2.7140	0	34.4620	0	27.489	0	1280.587	0	12.9	4	3.9	4	-1E+10	1	-1E+10	1	-1E+10	1	-1E+10	1	-1E+10	1	-1E+10	1
4902549	95	C	03/31/2023	03:05	-133.546	47.629	0	1305.60	0	2.6920	0	34.4660	0	27.494	0	1290.639	0	13.4	4	4.1	4	-1E+10	1	-1E+10	1	-1E+10	1	-1E+10	1	-1E+10	1	-1E+10	1
4902549	95	C	03/31/2023	03:05	-133.546	47.629	0	1315.60	0	2.6850	0	34.4700	0	27.498	0	1300.494	0	13.9	4	4.3	4	-1E+10	1	-1E+10	1	-1E+10	1	-1E+10	1	-1E+10	1	-1E+10	1
4902549	95	C	03/31/2023	03:05	-133.546	47.629	0	1325.30	0	2.6690	0	34.4730	0	27.502	0	1310.053	0	14.3	4	4.4	4	-1E+10	1	-1E+10	1	-1E+10	1	-1E+10	1	-1E+10	1	-1E+10	1
4902549	95	C	03/31/2023	03:05	-133.546	47.629	0	1335.30	0	2.6490	0	34.4750	0	27.505	0	1319.906	0	14.7	4	4.5	4	-1E+10	1	-1E+10	1	-1E+10	1	-1E+10	1	-1E+10	1	-1E+10	1
4902549	95	C	03/31/2023	03:05	-133.546	47.629	0	1345.80	0	2.6260	0	34.4780	0	27.510	0	1330.252	0	15.3	4	4.7	4	-1E+10	1	-1E+10	1	-1E+10	1	-1E+10	1	-1E+10	1	-1E+10	1
4902549	95	C	03/31/2023	03:05	-133.546	47.629	0	1355.50	0	2.6020	0	34.4800	0	27.513	0	1339.809	0	15.7	4	4.8	4	-1E+10	1	-1E+10	1	-1E+10	1	-1E+10	1	-1E+10	1	-1E+10	1
4902549	95	C	03/31/2023	03:05	-133.546	47.629	0	1365.10	0	2.5790	0	34.4830	0	27.518	0	1349.267	0	16.2	4	5.0	4	-1E+10	1	-1E+10	1	-1E+10	1	-1E+10	1	-1E+10	1	-1E+10	1
4902549	95	C	03/31/2023	03:05	-133.546	47.629	0	1375.20	0	2.5630	0	34.4860	0	27.521	0	1359.218	0	16.8	4	5.1	4	-1E+10	1	-1E+10	1	-1E+10	1	-1E+10	1	-1E+10	1	-1E+10	1
4902549	95	C	03/31/2023	03:05	-133.546	47.629	0	1385.60	0	2.5520	0	34.4890	0	27.525	0	1369.463	0	17.0	4	5.2	4	-1E+10	1	-1E+10	1	-1E+10	1	-1E+10	1	-1E+10	1	-1E+10	1
4902549	95	C	03/31/2023	03:05	-133.546	47.629	0	1395.70	0	2.5270	0	34.4880	0	27.526	0	1379.412	0	17.0	4	5.2	4	-1E+10	1	-1E+10	1	-1E+10	1	-1E+10	1	-1E+10	1	-1E+10	1
4902549	95	C	03/31/2023	03:05	-133.546	47.629	0	1405.30	0	2.5030	0	34.4890	0	27.529	0	1388.869	0	17.4	4	5.3	4	-1E+10	1	-1E+10	1	-1E+10	1	-1E+10	1	-1E+10	1	-1E+10	1
4902549	95	C	03/31/2023	03:05	-133.546	47.629	0	1415.30	0	2.4880	0	34.4910	0	27.532	0	1398.719	0	17.6	4	5.4	4	-1E+10	1	-1E+10	1	-1E+10	1	-1E+10	1	-1E+10	1	-1E+10	1
4902549	95	C	03/31/2023	03:05	-133.546	47.629	0	1425.80	0	2.4630	0	34.4910	0	27.534	0	1409.061	0	17.9	4	5.5	4	-1E+10	1	-1E+10	1	-1E+10	1	-1E+10	1	-1E+10	1	-1E+10	1
4902549	95	C	03/31/2023	03:05	-133.546	47.629	0	1435.90	0	2.4470	0	34.4940	0	27.538	0	1419.008	0	18.5	4	5.6	4	-1E+10	1	-1E+10	1	-1E+10	1	-1E+10	1	-1E+10	1	-1E+10	1
4902549	95	C	03/31/2023	03:05	-133.546	47.629	0	1445.30	0	2.4370	0	34.4960	0	27.540	0	1428.266	0	18.9	4	5.8	4	-1E+10	1	-1E+10	1	-1E+10	1	-1E+10	1	-1E+10	1	-1E+10	1
4902549	95	C	03/31/2023	03:05	-133.546	47.629	0	1455.20	0	2.4210	0	34.4980	0	27.543	0	1438.015	0	19.4	4	5.9	4	-1E+10	1	-1E+10	1	-1E+10	1	-1E+10	1	-1E+10	1	-1E+10	1
4902549	95	C	03/31/2023	03:05	-133.546	47.629	0	1465.50	0	2.4000	0	34.5010	0	27.548	0	1448.159	0	19.9	4	6.1	4	-1E+10	1	-1E+10	1	-1E+10	1	-1E+10	1	-1E+10	1	-1E+10	1
4902549	95	C	03/31/2023	03:05	-133.546	47.629	0	1475.50	0	2.3850	0	34.5020	0	27.550	0	1458.006	0	20.4	4	6.2	4	-1E+10	1	-1E+10	1	-1E+10	1	-1E+10	1	-1E+10	1	-1E+10	1
4902549	95	C	03/31/2023	03:05	-133.546	47.629	0	1485.30	0	2.3740	0	34.5040	0	27.552	0	1467.656	0	20.9	4	6.4	4	-1E+10	1	-1E+10	1	-1E+10	1	-1E+10	1	-1E+10	1	-1E+10	1
4902549	95	C	03/31/2023	03:05	-133.546	47.629	0	1495.30	0	2.3720	0	34.5050	0	27.553	0	1477.502	0	21.3	4	6.5	4	-1E+10	1	-1E+10	1	-1E+10	1	-1E+10	1	-1E+10	1	-1E+10	1
4902549	95	C	03/31/2023	03:05	-133.546	47.629	0	1505.30	0	2.3590	0	34.5080	0	27.557	0	1487.348	0	21.9	4	6.7	4	-1E+10	1	-1E+10	1	-1E+10	1	-1E+10	1	-1E+10	1	-1E+10	1
4902549	95	C	03/31/2023	03:05	-133.546	47.629	0	1515.40	0	2.3540	0	34.5090	0	27.558	0	1497.291	0	22.4	4	6.8	4	-1E+10	1	-1E+10	1	-1E+10	1	-1E+10	1	-1E+10	1	-1E+10	1
4902549	95	C	03/31/2023	03:05	-133.546	47.629	0	1525.40	0	2.3430	0	34.5110	0	27.561	0	1507.136	0	23.0	4	7.0	4	-1E+10	1	-1E+10	1	-1E+10	1	-1E+10	1	-1E+10	1	-1E+10	1
4902549	95	C	03/31/2023	03:05	-133.546	47.629	0	1535.30	0	2.3290	0	34.5130	0	27.563	0	1516.882	0	23.5	4	7.2	4	-1E+10	1	-1E+10	1	-1E+10	1	-1E+10	1	-1E+10	1	-1E+10	1
4902549	95	C	03/31/2023	03:05	-133.546	47.629	0	1545.40	0	2.3170	0	34.5150	0	27.566	0	1526.825	0	24.2	4	7.3	4	-1E+10	1	-1E+10	1	-1E+10	1	-1E+10	1	-1E+10	1	-1E+10	1
4902549	95	C	03/31/2023	03:05	-133.546	47.629	0	1555.50	0	2.3010	0	34.5170	0	27.569	0	1536.767	0	25.0	4	7.6	4	-1E+10	1	-1E+10	1	-1E+10	1	-1E+10	1	-1E+10	1	-1E+10	1
4902549	95	C	03/31/2023	03:05	-133.546	47.629	0	1565.40	0	2.2910	0	34.5200	0	27.572	0	1546.511	0	25.7	4	7.8	4	-1E+10	1	-1E+10	1	-1E+10	1	-1E+10	1	-1E+10	1	-1E+10	1
4902549	95	C	03/31/2023	03:05	-133.546	47.629	0	1575.30	0	2.2770	0	34.5220	0	27.575	0	1556.255	0	26.3	4	8.0	4	-1E+10	1	-1E+10	1	-1E+10	1	-1E+10	1	-1E+10	1	-1E+10	1
4902549	95	C	03/31/2023	03:05	-133.546	47.629	0	1585.10	0	2.2640	0	34.5240	0	27.578	0	1565.901	0	27.0	4	8.2	4	-1E+10	1	-1E+10	1	-1E+10	1	-1E+10	1	-1E+10	1	-1E+10	1
4902549	95	C	03/31/2023	03:05	-133.546	47.629	0	1595.30	0	2.2510	0	34.5260	0	27.580	0	1575.939	0	27.8	4	8.4	4	-1E+10	1	-1E+10	1	-1E+10	1	-1E+10	1	-1E+10	1	-1E+10	1
4902549	95	C	03/31/2023	03:05	-133.546	47.629	0	1605.60	0	2.2400	0	34.5290	0	27.584	0	1586.076	0	28.4	4	8.6	4	-1E+10	1	-1E+10	1	-1E+10	1	-1E+10	1	-1E+10	1	-1E+10	1
4902549	95	C	03/31/2023	03:05	-133.546	47.629	0	1615.40	0	2.2250	0	34.5300	0	27.586	0	1595.720	0	28.9	4	8.7	4	-1E+10	1	-1E+10	1	-1E+10	1	-1E+10	1	-1E+10	1	-1E+10	1
4902549	95	C	03/31/2023	03:05	-133.546	47.629	0	1625.20	0	2.2100	0	34.5320	0	27.589	0	1605.363	0	29.4	4	8.9	4	-1E+10	1	-1E+10	1	-1E+10	1	-1E+10	1	-1E+10	1	-1E+10	1
4902549	95	C	03/31/2023	03:05	-133.546	47.629	0	1635.10	0	2.2010	0	34.5330	0	27.590	0	1615.104	0	30.0	4	9.1	4	-1E+10	1	-1E+10	1	-1E+10	1	-1E+10	1	-1E+10	1	-1E+10	1
4902549	95	C	03/31/2023	03:05	-133.546	47.629	0	1645.00	0	2.1910	0	34.5350	0	27.593	0	1624.845	0	30.7	4	9.3	4	-1E+10	1	-1E+10	1	-1E+10	1	-1E+10	1	-1E+10	1	-1E+10	1
4902549	95	C	03/31/2023	03:05	-133.546	47.629	0	1655.20	0	2.1690	0	34.5370	0	27.596	0	1634.881	0	31.6	4	9.6	4	-1E+10	1	-1E+10	1	-1E+10	1	-1E+10	1	-1E+10	1	-1E+10	1
4902549	95	C	03/31/2023	03:05	-133.546	47.629	0	1665.40	0	2.1590	0	34.5400	0	27.599	0	1644.916	0	32.3	4	9.8	4	-1E+10	1	-1E+10	1	-1E+10	1	-1E+10	1	-1E+10	1	-1E+10	1
4902549	95	C	03/31/2023	03:05	-133.546	47.629	0	1675.50	0	2.1530	0	34.5410	0	27.601	0	1654.853	0	32.8	4	9.9	4	-1E+10	1	-1E+10	1	-1E+10	1	-1E+10	1	-1E+10	1	-1E+10	1
4902549	95	C	03/31/2023	03:05	-133.546	47.629	0	1685.20	0	2.1480	0	34.5430	0	27.603	0	1664.395	0	33.1	4	10.0	4	-1E+10	1	-1E+10	1	-1E+10	1	-1E+10	1	-1E+10	1	-1E+10	1
4902549	95	C	03/31/2023	03:05	-133.546	47.629	0	1695.10	0	2.1390	0	34.5430	0	27.604	0	1674.134	0	33.8	4	10.2	4	-1E+10	1	-1E+10	1	-1E+10	1	-1E+10	1	-1E+10	1	-1E+10	1
4902549	95	C	03/31/2023	03:05	-133.546	47.629	0	1705.10	0	2.1290	0	34.5460	0	27.607	0	1683.970	0	34.6	4	10.5	4	-1E+10	1	-1E+10	1	-1E+10	1	-1E+10	1	-1E+10	1	-1E+10	1
4902549	95	C	03/31/2023	03:05	-133.546	47.629	0	1715.60	0	2.1170	0	34.5480	0	27.609	0	1694.298	0	35.5	4	10.7	4	-1E+10	1	-1E+10	1	-1E+10	1	-1E+10	1	-1E+10	1	-1E+10	1
4902549	95	C	03/31/2023	03:05	-133.546	47.629	0	1725.30	0	2.1090	0	34.5500	0	27.612	0	1703.839	0	36.2	4	11.0	4	-1E+10	1	-1E+10	1	-1E+10	1	-1E+10	1	-1E+10	1	-1E+10	1
4902549	95	C	03/31/2023	03:05	-133.546	47.629	0	1735.30	0	2.0950	0	34.5520	0	27.614	0	1713.674	0	36.9	4	11.2	4	-1E+10	1	-1E+10	1	-1E+10	1	-1E+10	1	-1E+10	1	-1E+10	1
4902549	95	C	03/31/2023	03:05	-133.546	47.629	0	1745.20	0	2.0860	0	34.5530	0	27.616	0	1723.411	0	37.5	4	11.3	4	-1E+10	1	-1E+10	1	-1E+10	1	-1E+10	1	-1E+10	1	-1E+10	1
4902549	95	C	03/31/2023	03:05	-133.546	47.629	0	1755.30	0	2.0790	0	34.5550	0	27.618	0	1733.343	0	37.9	4	11.5	4	-1E+10	1	-1E+10	1	-1E+10	1	-1E+10	1	-1E+10	1	-1E+10	1
4902549	95	C	03/31/2023	03:05	-133.546	47.629	0	1765.50	0	2.0740	0	34.5560	0	27.619	0	1743.374	0	38.4	4	11.6	4	-1E+10	1	-1E+10	1	-1E+10	1	-1E+10	1	-1E+10	1	-1E+10	1
4902549	95	C	03/31/2023	03:05	-133.546	47.629	0	1775.30	0	2.0690	0	34.5570	0	27.621	0	1753.011	0	38.8	4	11.7	4	-1E+10	1	-1E+10	1	-1E+10	1	-1E+10	1	-1E+10	1	-1E+10	1
4902549	95	C	03/31/2023	03:05	-133.546	47.629	0	1785.20	0	2.0630	0	34.5580	0	27.622	0	1762.745	0	39.6	4	11.9	4	-1E+10	1	-1E+10	1	-1E+10	1	-1E+10	1	-1E+10	1	-1E+10	1
4902549	95	C	03/31/2023	03:05	-133.546	47.629	0	1795.30	0	2.0530	0	34.5600	0	27.624	0	1772.676	0	40.4	4	12.2	4	-1E+10	1	-1E+10	1	-1E+10	1	-1E+10	1	-1E+10	1	-1E+10	1
4902549	95	C	03/31/2023	03:05	-133.546	47.629	0	1805.20	0	2.0440	0	34.5620	0	27.627	0	1782.410	0	41.0	4	12.4	4	-1E+10	1	-1E+10	1	-1E+10	1	-1E+10	1	-1E+10	1	-1E+10	1
4902549	95	C	03/31/2023	03:05	-133.546	47.629	0	1815.10	0	2.0370	0	34.5630	0	27.628	0	1792.143	0	41.5	4	12.5	4	-1E+10	1	-1E+10	1	-1E+10	1	-1E+10	1	-1E+10	1	-1E+10	1
4902549	95	C	03/31/2023	03:05	-133.546	47.629	0	1825.10	0	2.0300	0	34.5640	0	27.630	0	1801.974	0	42.0	4	12.7	4	-1E+10	1	-1E+10	1	-1E+10	1	-1E+10	1	-1E+10	1	-1E+10	1
4902549	95	C	03/31/2023	03:05	-133.546	47.629	0	1835.20	0	2.0270	0	34.5650	0	27.631	0	1811.903	0	42.4	4	12.8	4	-1E+10	1	-1E+10	1	-1E+10	1	-1E+10	1	-1E+10	1	-1E+10	1
4902549	95	C	03/31/2023	03:05	-133.546	47.629	0	1845.40	0	2.0200	0	34.5660	0	27.632	0	1821.930	0	43.1	4	13.0	4	-1E+10	1	-1E+10	1	-1E+10	1	-1E+10	1	-1E+10	1	-1E+10	1
4902549	95	C	03/31/2023	03:05	-133.546	47.629	0	1855.30	0	2.0130	0	34.5680	0	27.634	0	1831.662	0	43.8	4	13.2	4	-1E+10	1	-1E+10	1	-1E+10	1	-1E+10	1	-1E+10	1	-1E+10	1
4902549	95	C	03/31/2023	03:05	-133.546	47.629	0	1865.30	0	2.0030	0	34.5700	0	27.637	0	1841.491	0	44.7	4	13.5	4	-1E+10	1	-1E+10	1	-1E+10	1	-1E+10	1	-1E+10	1	-1E+10	1
4902549	95	C	03/31/2023	03:05	-133.546	47.629	0	1875.70	0	1.9930	0	34.5720	0	27.639	0	1851.713	0	45.3	4	13.7	4	-1E+10	1	-1E+10	1	-1E+10	1	-1E+10	1	-1E+10	1	-1E+10	1
4902549	95	C	03/31/2023	03:05	-133.546	47.629	0	1885.70	0	1.9890	0	34.5730	0	27.640	0	1861.541	0	45.7	4	13.8	4	-1E+10	1	-1E+10	1	-1E+10	1	-1E+10	1	-1E+10	1	-1E+10	1
4902549	95	C	03/31/2023	03:05	-133.546	47.629	0	1895.50	0	1.9840	0	34.5730	0	27.641	0	1871.173	0	46.2	4	13.9	4	-1E+10	1	-1E+10	1	-1E+10	1	-1E+10	1	-1E+10	1	-1E+10	1
4902549	95	C	03/31/2023	03:05	-133.546	47.629	0	1905.30	0	1.9770	0	34.5750	0	27.643	0	1880.804	0	46.8	4	14.1	4	-1E+10	1	-1E+10	1	-1E+10	1	-1E+10	1	-1E+10	1	-1E+10	1
4902549	95	C	03/31/2023	03:05	-133.546	47.629	0	1915.20	0	1.9710	0	34.5760	0	27.644	0	1890.532	0	47.2	4	14.2	4	-1E+10	1	-1E+10	1	-1E+10	1	-1E+10	1	-1E+10	1	-1E+10	1
4902549	95	C	03/31/2023	03:05	-133.546	47.629	0	1925.20	0	1.9680	0	34.5770	0	27.645	0	1900.359	0	47.6	4	14.3	4	-1E+10	1	-1E+10	1	-1E+10	1	-1E+10	1	-1E+10	1	-1E+10	1
4902549	95	C	03/31/2023	03:05	-133.546	47.629	0	1935.30	0	1.9600	0	34.5780	0	27.647	0	1910.283	0	48.2	4	14.5	4	-1E+10	1	-1E+10	1	-1E+10	1	-1E+10	1	-1E+10	1	-1E+10	1
4902549	95	C	03/31/2023	03:05	-133.546	47.629	0	1945.40	0	1.9550	0	34.5790	0	27.648	0	1920.207	0	48.6	4	14.6	4	-1E+10	1	-1E+10	1	-1E+10	1	-1E+10	1	-1E+10	1	-1E+10	1
4902549	95	C	03/31/2023	03:05	-133.546	47.629	0	1955.60	0	1.9510	0	34.5800	0	27.649	0	1930.229	0	48.9	4	14.7	4	-1E+10	1	-1E+10	1	-1E+10	1	-1E+10	1	-1E+10	1	-1E+10	1
4902549	95	C	03/31/2023	03:05	-133.546	47.629	0	1965.40	0	1.9450	0	34.5810	0	27.651	0	1939.857	0	49.2	4	14.8	4	-1E+10	1	-1E+10	1	-1E+10	1	-1E+10	1	-1E+10	1	-1E+10	1
4902549	95	C	03/31/2023	03:05	-133.546	47.629	0	1975.00	0	1.9380	0	34.5820	0	27.652	0	1949.289	0	48.9	4	14.7	4	-1E+10	1	-1E+10	1	-1E+10	1	-1E+10	1	-1E+10	1	-1E+10	1
4902549	95	C	03/31/2023	03:05	-133.546	47.629	0																										
4902549	96	C	04/10/2023	08:01	-133.368	47.599	0	0.40	0	7.6360	0	32.3790	0	25.268	0	0.397	0	286.6	4	97.2	4	-1E+10	1	-1E+10	1	-1E+10	1	-1E+10	1	-1E+10	1	-1E+10	1
4902549	96	C	04/10/2023	08:01	-133.368	47.599	0	0.50	0	7.6320	0	32.3790	0	25.269	0	0.496	0	286.6	4	97.2	4	-1E+10	1	-1E+10	1	-1E+10	1	-1E+10	1	-1E+10	1	-1E+10	1
4902549	96	C	04/10/2023	08:01	-133.368	47.599	0	0.60	0	7.6320	0	32.3770	0	25.267	0	0.595	0	286.7	4	97.2	4	-1E+10	1	-1E+10	1	-1E+10	1	-1E+10	1	-1E+10	1	-1E+10	1
4902549	96	C	04/10/2023	08:01	-133.368	47.599	0	1.00	0	7.6360	0	32.3730	0	25.263	0	0.992	0	-1e10	1	-1e10	1	-1E+10	1	-1E+10	1	-1E+10	1	-1E+10	1	-1E+10	1	-1E+10	1
4902549	96	C	04/10/2023	08:01	-133.368	47.599	0	1.10	0	7.6420	0	32.3770	0	25.266	0	1.091	0	279.5	4	94.8	4	-1E+10	1	-1E+10	1	-1E+10	1	-1E+10	1	-1E+10	1	-1E+10	1
4902549	96	C	04/10/2023	08:01	-133.368	47.599	0	2.10	0	7.6460	0	32.3750	0	25.263	0	2.082	0	279.6	4	94.8	4	-1E+10	1	-1E+10	1	-1E+10	1	-1E+10	1	-1E+10	1	-1E+10	1
4902549	96	C	04/10/2023	08:01	-133.368	47.599	0	3.00	0	7.6480	0	32.3730	0	25.262	0	2.975	0	279.5	4	94.8	4	-1E+10	1	-1E+10	1	-1E+10	1	-1E+10	1	-1E+10	1	-1E+10	1
4902549	96	C	04/10/2023	08:01	-133.368	47.599	0	4.10	0	7.6470	0	32.3750	0	25.263	0	4.066	0	279.5	4	94.8	4	-1E+10	1	-1E+10	1	-1E+10	1	-1E+10	1	-1E+10	1	-1E+10	1
4902549	96	C	04/10/2023	08:01	-133.368	47.599	0	4.90	0	7.6480	0	32.3750	0	25.263	0	4.859	0	279.5	4	94.8	4	-1E+10	1	-1E+10	1	-1E+10	1	-1E+10	1	-1E+10	1	-1E+10	1
4902549	96	C	04/10/2023	08:01	-133.368	47.599	0	6.00	0	7.6470	0	32.3750	0	25.263	0	5.950	0	279.3	4	94.7	4	-1E+10	1	-1E+10	1	-1E+10	1	-1E+10	1	-1E+10	1	-1E+10	1
4902549	96	C	04/10/2023	08:01	-133.368	47.599	0	7.10	0	7.6460	0	32.3730	0	25.262	0	7.041	0	279.3	4	94.7	4	-1E+10	1	-1E+10	1	-1E+10	1	-1E+10	1	-1E+10	1	-1E+10	1
4902549	96	C	04/10/2023	08:01	-133.368	47.599	0	8.00	0	7.6470	0	32.3740	0	25.263	0	7.933	0	279.3	4	94.7	4	-1E+10	1	-1E+10	1	-1E+10	1	-1E+10	1	-1E+10	1	-1E+10	1
4902549	96	C	04/10/2023	08:01	-133.368	47.599	0	8.80	0	7.6460	0	32.3740	0	25.263	0	8.726	0	279.2	4	94.7	4	-1E+10	1	-1E+10	1	-1E+10	1	-1E+10	1	-1E+10	1	-1E+10	1
4902549	96	C	04/10/2023	08:01	-133.368	47.599	0	10.00	0	7.6460	0	32.3730	0	25.262	0	9.916	0	279.2	4	94.7	4	-1E+10	1	-1E+10	1	-1E+10	1	-1E+10	1	-1E+10	1	-1E+10	1
4902549	96	C	04/10/2023	08:01	-133.368	47.599	0	11.10	0	7.6460	0	32.3730	0	25.262	0	11.007	0	279.2	4	94.7	4	-1E+10	1	-1E+10	1	-1E+10	1	-1E+10	1	-1E+10	1	-1E+10	1
4902549	96	C	04/10/2023	08:01	-133.368	47.599	0	12.00	0	7.6490	0	32.3750	0	25.263	0	11.899	0	279.1	4	94.7	4	-1E+10	1	-1E+10	1	-1E+10	1	-1E+10	1	-1E+10	1	-1E+10	1
4902549	96	C	04/10/2023	08:01	-133.368	47.599	0	13.00	0	7.6500	0	32.3760	0	25.264	0	12.891	0	279.1	4	94.7	4	-1E+10	1	-1E+10	1	-1E+10	1	-1E+10	1	-1E+10	1	-1E+10	1
4902549	96	C	04/10/2023	08:01	-133.368	47.599	0	13.90	0	7.6510	0	32.3760	0	25.264	0	13.783	0	279.0	4	94.7	4	-1E+10	1	-1E+10	1	-1E+10	1	-1E+10	1	-1E+10	1	-1E+10	1
4902549	96	C	04/10/2023	08:01	-133.368	47.599	0	14.90	0	7.6510	0	32.3760	0	25.264	0	14.775	0	279.1	4	94.7	4	-1E+10	1	-1E+10	1	-1E+10	1	-1E+10	1	-1E+10	1	-1E+10	1
4902549	96	C	04/10/2023	08:01	-133.368	47.599	0	15.90	0	7.6510	0	32.3770	0	25.264	0	15.767	0	279.0	4	94.6	4	-1E+10	1	-1E+10	1	-1E+10	1	-1E+10	1	-1E+10	1	-1E+10	1
4902549	96	C	04/10/2023	08:01	-133.368	47.599	0	17.00	0	7.6510	0	32.3760	0	25.264	0	16.857	0	279.0	4	94.7	4	-1E+10	1	-1E+10	1	-1E+10	1	-1E+10	1	-1E+10	1	-1E+10	1
4902549	96	C	04/10/2023	08:01	-133.368	47.599	0	18.30	0	7.6520	0	32.3770	0	25.264	0	18.146	0	278.9	4	94.6	4	-1E+10	1	-1E+10	1	-1E+10	1	-1E+10	1	-1E+10	1	-1E+10	1
4902549	96	C	04/10/2023	08:01	-133.368	47.599	0	19.10	0	7.6520	0	32.3770	0	25.264	0	18.940	0	278.9	4	94.6	4	-1E+10	1	-1E+10	1	-1E+10	1	-1E+10	1	-1E+10	1	-1E+10	1
4902549	96	C	04/10/2023	08:01	-133.368	47.599	0	19.90	0	7.6520	0	32.3760	0	25.264	0	19.733	0	278.9	4	94.6	4	-1E+10	1	-1E+10	1	-1E+10	1	-1E+10	1	-1E+10	1	-1E+10	1
4902549	96	C	04/10/2023	08:01	-133.368	47.599	0	20.70	0	7.6510	0	32.3770	0	25.265	0	20.526	0	279.0	4	94.6	4	-1E+10	1	-1E+10	1	-1E+10	1	-1E+10	1	-1E+10	1	-1E+10	1
4902549	96	C	04/10/2023	08:01	-133.368	47.599	0	21.70	0	7.6510	0	32.3770	0	25.265	0	21.518	0	278.9	4	94.6	4	-1E+10	1	-1E+10	1	-1E+10	1	-1E+10	1	-1E+10	1	-1E+10	1
4902549	96	C	04/10/2023	08:01	-133.368	47.599	0	22.70	0	7.6500	0	32.3760	0	25.264	0	22.509	0	278.9	4	94.6	4	-1E+10	1	-1E+10	1	-1E+10	1	-1E+10	1	-1E+10	1	-1E+10	1
4902549	96	C	04/10/2023	08:01	-133.368	47.599	0	23.70	0	7.6510	0	32.3760	0	25.264	0	23.501	0	278.9	4	94.6	4	-1E+10	1	-1E+10	1	-1E+10	1	-1E+10	1	-1E+10	1	-1E+10	1
4902549	96	C	04/10/2023	08:01	-133.368	47.599	0	24.80	0	7.6510	0	32.3760	0	25.264	0	24.591	0	278.9	4	94.6	4	-1E+10	1	-1E+10	1	-1E+10	1	-1E+10	1	-1E+10	1	-1E+10	1
4902549	96	C	04/10/2023	08:01	-133.368	47.599	0	25.80	0	7.6510	0	32.3770	0	25.265	0	25.583	0	278.9	4	94.6	4	-1E+10	1	-1E+10	1	-1E+10	1	-1E+10	1	-1E+10	1	-1E+10	1
4902549	96	C	04/10/2023	08:01	-133.368	47.599	0	26.90	0	7.6500	0	32.3770	0	25.265	0	26.674	0	278.8	4	94.6	4	-1E+10	1	-1E+10	1	-1E+10	1	-1E+10	1	-1E+10	1	-1E+10	1
4902549	96	C	04/10/2023	08:01	-133.368	47.599	0	27.90	0	7.6510	0	32.3760	0	25.264	0	27.665	0	278.8	4	94.6	4	-1E+10	1	-1E+10	1	-1E+10	1	-1E+10	1	-1E+10	1	-1E+10	1
4902549	96	C	04/10/2023	08:01	-133.368	47.599	0	29.00	0	7.6510	0	32.3760	0	25.264	0	28.756	0	278.8	4	94.6	4	-1E+10	1	-1E+10	1	-1E+10	1	-1E+10	1	-1E+10	1	-1E+10	1
4902549	96	C	04/10/2023	08:01	-133.368	47.599	0	30.10	0	7.6520	0	32.3760	0	25.264	0	29.846	0	278.8	4	94.6	4	-1E+10	1	-1E+10	1	-1E+10	1	-1E+10	1	-1E+10	1	-1E+10	1
4902549	96	C	04/10/2023	08:01	-133.368	47.599	0	31.00	0	7.6530	0	32.3770	0	25.264	0	30.739	0	278.8	4	94.6	4	-1E+10	1	-1E+10	1	-1E+10	1	-1E+10	1	-1E+10	1	-1E+10	1
4902549	96	C	04/10/2023	08:01	-133.368	47.599	0	31.80	0	7.6520	0	32.3770	0	25.265	0	31.532	0	278.7	4	94.6	4	-1E+10	1	-1E+10	1	-1E+10	1	-1E+10	1	-1E+10	1	-1E+10	1
4902549	96	C	04/10/2023	08:01	-133.368	47.599	0	32.90	0	7.6520	0	32.3760	0	25.264	0	32.623	0	278.7	4	94.6	4	-1E+10	1	-1E+10	1	-1E+10	1	-1E+10	1	-1E+10	1	-1E+10	1
4902549	96	C	04/10/2023	08:01	-133.368	47.599	0	33.90	0	7.6500	0	32.3770	0	25.265	0	33.614	0	278.8	4	94.6	4	-1E+10	1	-1E+10	1	-1E+10	1	-1E+10	1	-1E+10	1	-1E+10	1
4902549	96	C	04/10/2023	08:01	-133.368	47.599	0	35.00	0	7.6500	0	32.3770	0	25.265	0	34.705	0	278.7	4	94.5	4	-1E+10	1	-1E+10	1	-1E+10	1	-1E+10	1	-1E+10	1	-1E+10	1
4902549	96	C	04/10/2023	08:01	-133.368	47.599	0	36.00	0	7.6500	0	32.3760	0	25.264	0	35.696	0	278.7	4	94.5	4	-1E+10	1	-1E+10	1	-1E+10	1	-1E+10	1	-1E+10	1	-1E+10	1
4902549	96	C	04/10/2023	08:01	-133.368	47.599	0	36.90	0	7.6520	0	32.3760	0	25.264	0	36.588	0	278.6	4	94.5	4	-1E+10	1	-1E+10	1	-1E+10	1	-1E+10	1	-1E+10	1	-1E+10	1
4902549	96	C	04/10/2023	08:01	-133.368	47.599	0	38.00	0	7.6530	0	32.3760	0	25.264	0	37.679	0	278.7	4	94.6	4	-1E+10	1	-1E+10	1	-1E+10	1	-1E+10	1	-1E+10	1	-1E+10	1
4902549	96	C	04/10/2023	08:01	-133.368	47.599	0	38.90	0	7.6530	0	32.3770	0	25.265	0	38.571	0	278.6	4	94.5	4	-1E+10	1	-1E+10	1	-1E+10	1	-1E+10	1	-1E+10	1	-1E+10	1
4902549	96	C	04/10/2023	08:01	-133.368	47.599	0	39.80	0	7.6530	0	32.3760	0	25.264	0	39.464	0	278.6	4	94.5	4	-1E+10	1	-1E+10	1	-1E+10	1	-1E+10	1	-1E+10	1	-1E+10	1
4902549	96	C	04/10/2023	08:01	-133.368	47.599	0	41.00	0	7.6530	0	32.3760	0	25.264	0	40.653	0	278.5	4	94.5	4	-1E+10	1	-1E+10	1	-1E+10	1	-1E+10	1	-1E+10	1	-1E+10	1
4902549	96	C	04/10/2023	08:01	-133.368	47.599	0	41.90	0	7.6530	0	32.3760	0	25.264	0	41.546	0	278.5	4	94.5	4	-1E+10	1	-1E+10	1	-1E+10	1	-1E+10	1	-1E+10	1	-1E+10	1
4902549	96	C	04/10/2023	08:01	-133.368	47.599	0	43.10	0	7.6520	0	32.3770	0	25.265	0	42.735	0	278.5	4	94.5	4	-1E+10	1	-1E+10	1	-1E+10	1	-1E+10	1	-1E+10	1	-1E+10	1
4902549	96	C	04/10/2023	08:01	-133.368	47.599	0	43.90	0	7.6530	0	32.3760	0	25.264	0	43.529	0	278.5	4	94.5	4	-1E+10	1	-1E+10	1	-1E+10	1	-1E+10	1	-1E+10	1	-1E+10	1
4902549	96	C	04/10/2023	08:01	-133.368	47.599	0	45.10	0	7.6520	0	32.3770	0	25.265	0	44.718	0	278.4	4	94.5	4	-1E+10	1	-1E+10	1	-1E+10	1	-1E+10	1	-1E+10	1	-1E+10	1
4902549	96	C	04/10/2023	08:01	-133.368	47.599	0	46.00	0	7.6530	0	32.3760	0	25.264	0	45.611	0	278.5	4	94.5	4	-1E+10	1	-1E+10	1	-1E+10	1	-1E+10	1	-1E+10	1	-1E+10	1
4902549	96	C	04/10/2023	08:01	-133.368	47.599	0	47.20	0	7.6520	0	32.3770	0	25.265	0	46.800	0	278.2	4	94.4	4	-1E+10	1	-1E+10	1	-1E+10	1	-1E+10	1	-1E+10	1	-1E+10	1
4902549	96	C	04/10/2023	08:01	-133.368	47.599	0	47.80	0	7.6520	0	32.3760	0	25.264	0	47.395	0	278.2	4	94.4	4	-1E+10	1	-1E+10	1	-1E+10	1	-1E+10	1	-1E+10	1	-1E+10	1
4902549	96	C	04/10/2023	08:01	-133.368	47.599	0	48.70	0	7.6490	0	32.3760	0	25.264	0	48.287	0	278.2	4	94.4	4	-1E+10	1	-1E+10	1	-1E+10	1	-1E+10	1	-1E+10	1	-1E+10	1
4902549	96	C	04/10/2023	08:01	-133.368	47.599	0	50.10	0	7.6490	0	32.3770	0	25.265	0	49.675	0	278.2	4	94.4	4	-1E+10	1	-1E+10	1	-1E+10	1	-1E+10	1	-1E+10	1	-1E+10	1
4902549	96	C	04/10/2023	08:01	-133.368	47.599	0	51.00	0	7.6480	0	32.3760	0	25.265	0	50.568	0	278.1	4	94.3	4	-1E+10	1	-1E+10	1	-1E+10	1	-1E+10	1	-1E+10	1	-1E+10	1
4902549	96	C	04/10/2023	08:01	-133.368	47.599	0	51.90	0	7.6470	0	32.3770	0	25.266	0	51.460	0	278.1	4	94.3	4	-1E+10	1	-1E+10	1	-1E+10	1	-1E+10	1	-1E+10	1	-1E+10	1
4902549	96	C	04/10/2023	08:01	-133.368	47.599	0	53.00	0	7.6470	0	32.3770	0	25.266	0	52.550	0	278.0	4	94.3	4	-1E+10	1	-1E+10	1	-1E+10	1	-1E+10	1	-1E+10	1	-1E+10	1
4902549	96	C	04/10/2023	08:01	-133.368	47.599	0	53.90	0	7.6460	0	32.3760	0	25.265	0	53.443	0	277.8	4	94.2	4	-1E+10	1	-1E+10	1	-1E+10	1	-1E+10	1	-1E+10	1	-1E+10	1
4902549	96	C	04/10/2023	08:01	-133.368	47.599	0	55.30	0	7.6460	0	32.3770	0	25.266	0	54.831	0	277.8	4	94.2	4	-1E+10	1	-1E+10	1	-1E+10	1	-1E+10	1	-1E+10	1	-1E+10	1
4902549	96	C	04/10/2023	08:01	-133.368	47.599	0	56.00	0	7.6450	0	32.3760	0	25.265	0	55.525	0	277.8	4	94.2	4	-1E+10	1	-1E+10	1	-1E+10	1	-1E+10	1	-1E+10	1	-1E+10	1
4902549	96	C	04/10/2023	08:01	-133.368	47.599	0	57.10	0	7.6440	0	32.3760	0	25.265	0	56.615	0	277.5	4	94.1	4	-1E+10	1	-1E+10	1	-1E+10	1	-1E+10	1	-1E+10	1	-1E+10	1
4902549	96	C	04/10/2023	08:01	-133.368	47.599	0	58.00	0	7.6370	0	32.3760	0	25.266	0	57.507	0	277.5	4	94.1	4	-1E+10	1	-1E+10	1	-1E+10	1	-1E+10	1	-1E+10	1	-1E+10	1
4902549	96	C	04/10/2023	08:01	-133.368	47.599	0	59.00	0	7.6330	0	32.3770	0	25.268	0	58.499	0	277.5	4	94.1	4	-1E+10	1	-1E+10	1	-1E+10	1	-1E+10	1	-1E+10	1	-1E+10	1
4902549	96	C	04/10/2023	08:01	-133.368	47.599	0	59.70	0	7.6300	0	32.3770	0	25.268	0	59.193	0	277.4	4	94.1	4	-1E+10	1	-1E+10	1	-1E+10	1	-1E+10	1	-1E+10	1	-1E+10	1
4902549	96	C	04/10/2023	08:01	-133.368	47.599	0	60.90	0	7.6230	0	32.3750	0	25.267	0	60.382	0	277.3	4	94.0	4	-1E+10	1	-1E+10	1	-1E+10	1	-1E+10	1	-1E+10	1	-1E+10	1
4902549	96	C	04/10/2023	08:01	-133.368	47.599	0	62.10	0	7.6190	0	32.3770	0	25.270	0	61.572	0	277.1	4	94.0	4	-1E+10	1	-1E+10	1	-1E+10	1	-1E+10	1	-1E+10	1	-1E+10	1
4902549	96	C	04/10/2023	08:01	-133.368	47.599	0	63.10	0	7.6180	0	32.3770	0	25.270	0	62.563	0	277.0	4	93.9	4	-1E+10	1	-1E+10	1	-1E+10	1	-1E+10	1	-1E+10	1	-1E+10	1
4902549	96	C	04/10/2023	08:01	-133.368	47.599	0	64.10	0	7.6170	0	32.3770	0	25.270	0	63.555	0	276.9	4	93.9	4	-1E+10	1	-1E+10	1	-1E+10	1	-1E+10	1	-1E+10	1	-1E+10	1
4902549	96	C	04/10/2023	08:01	-133.368	47.599	0	65.10	0	7.6170	0	32.3770	0	25.270	0	64.546	0	276.6	4	93.8	4	-1E+10	1	-1E+10	1	-1E+10	1	-1E+10	1	-1E+10	1	-1E+10	1
4902549	96	C	04/10/2023	08:01	-133.368	47.599	0	65.90	0	7.6180	0	32.3760	0	25.269	0	65.339	0	276.6	4	93.8	4	-1E+10	1	-1E+10	1	-1E+10	1	-1E+10	1	-1E+10	1	-1E+10	1
4902549	96	C	04/10/2023	08:01	-133.368	47.599	0	66.70	0	7.6160	0	32.3760	0	25.269	0	66.132	0	276.5	4	93.7	4	-1E+10	1	-1E+10	1	-1E+10	1	-1E+10	1	-1E+10	1	-1E+10	1
4902549	96	C	04/10/2023	08:01	-133.368	47.599	0	67.80	0	7.6120	0	32.3760	0	25.270	0	67.222	0	276.3	4	93.7	4	-1E+10	1	-1E+10	1	-1E+10	1	-1E+10	1	-1E+10	1	-1E+10	1
4902549	96	C	04/10/2023	08:01	-133.368	47.599	0	68.90	0	7.5990	0	32.3770	0	25.272	0	68.313	0	276.1	4	93.6	4	-1E+10	1	-1E+10	1	-1E+10	1	-1E+10	1	-1E+10	1	-1E+10	1
4902549	96	C	04/10/2023	08:01	-133.368	47.599	0	70.00	0	7.5750	0	32.3780	0	25.277	0	69.403	0	276.0	4	93.5	4	-1E+10	1	-1E+10	1	-1E+10	1	-1E+10	1	-1E+10	1	-1E+10	1
4902549	96	C	04/10/2023	08:01	-133.368	47.599	0	71.10	0	7.5590	0	32.3780	0	25.279	0	70.494	0	275.9	4	93.4	4	-1E+10	1	-1E+10	1	-1E+10	1	-1E+10	1	-1E+10	1	-1E+10	1
4902549	96	C	04/10/2023	08:01	-133.368	47.599	0	71.90	0	7.5520	0	32.3790	0	25.281	0	71.287	0	275.7	4	93.3	4	-1E+10	1	-1E+10	1	-1E+10	1	-1E+10	1	-1E+10	1	-1E+10	1
4902549	96	C	04/10/2023	08:01	-133.368	47.599	0	72.70	0	7.5470	0	32.3780	0	25.281	0	72.080	0	275.6	4	93.3	4	-1E+10	1	-1E+10	1	-1E+10	1	-1E+10	1	-1E+10	1	-1E+10	1
4902549	96	C	04/10/2023	08:01	-133.368	47.599	0	73.80	0	7.5390	0	32.3780	0	25.282	0	73.170	0	275.3	4	93.2	4	-1E+10	1	-1E+10	1	-1E+10	1	-1E+10	1	-1E+10	1	-1E+10	1
4902549	96	C	04/10/2023	08:01	-133.368	47.599	0	74.90	0	7.5330	0	32.3780	0	25.283	0	74.261	0	275.0	4	93.0	4	-1E+10	1	-1E+10	1	-1E+10	1	-1E+10	1	-1E+10	1	-1E+10	1
4902549	96	C	04/10/2023	08:01	-133.368	47.599	0	76.00	0	7.5280	0	32.3770	0	25.282	0	75.351	0	274.6	4	92.9	4	-1E+10	1	-1E+10	1	-1E+10	1	-1E+10	1	-1E+10	1	-1E+10	1
4902549	96	C	04/10/2023	08:01	-133.368	47.599	0	77.00	0	7.5100	0	32.3770	0	25.285	0	76.342	0	274.2	4	92.7	4	-1E+10	1	-1E+10	1	-1E+10	1	-1E+10	1	-1E+10	1	-1E+10	1
4902549	96	C	04/10/2023	08:01	-133.368	47.599	0	77.90	0	7.4710	0	32.3780	0	25.291	0	77.235	0	274.1	4	92.6	4	-1E+10	1	-1E+10	1	-1E+10	1	-1E+10	1	-1E+10	1	-1E+10	1
4902549	96	C	04/10/2023	08:01	-133.368	47.599	0	78.70	0	7.4560	0	32.3830	0	25.297	0	78.028	0	273.8	4	92.5	4	-1E+10	1	-1E+10	1	-1E+10	1	-1E+10	1	-1E+10	1	-1E+10	1
4902549	96	C	04/10/2023	08:01	-133.368	47.599	0	79.80	0	7.4360	0	32.3830	0	25.300	0	79.118	0	273.4	4	92.3	4	-1E+10	1	-1E+10	1	-1E+10	1	-1E+10	1	-1E+10	1	-1E+10	1
4902549	96	C	04/10/2023	08:01	-133.368	47.599	0	80.90	0	7.4180	0	32.3840	0	25.303	0	80.208	0	272.8	4	92.1	4	-1E+10	1	-1E+10	1	-1E+10	1	-1E+10	1	-1E+10	1	-1E+10	1
4902549	96	C	04/10/2023	08:01	-133.368	47.599	0	82.00	0	7.4140	0	32.3860	0	25.305	0	81.299	0	272.2	4	91.9	4	-1E+10	1	-1E+10	1	-1E+10	1	-1E+10	1	-1E+10	1	-1E+10	1
4902549	96	C	04/10/2023	08:01	-133.368	47.599	0	82.90	0	7.4090	0	32.3880	0	25.308	0	82.191	0	271.7	4	91.7	4	-1E+10	1	-1E+10	1	-1E+10	1	-1E+10	1	-1E+10	1	-1E+10	1
4902549	96	C	04/10/2023	08:01	-133.368	47.599	0	83.70	0	7.4020	0	32.3890	0	25.309	0	82.984	0	277.8	4	93.7	4	-1E+10	1	-1E+10	1	-1E+10	1	-1E+10	1	-1E+10	1	-1E+10	1
4902549	96	C	04/10/2023	08:01	-133.368	47.599	0	84.80	0	7.4060	0	32.3910	0	25.310	0	84.074	0	276.8	4	93.4	4	-1E+10	1	-1E+10	1	-1E+10	1	-1E+10	1	-1E+10	1	-1E+10	1
4902549	96	C	04/10/2023	08:01	-133.368	47.599	0	85.90	0	7.4090	0	32.3950	0	25.313	0	85.165	0	275.4	4	92.9	4	-1E+10	1	-1E+10	1	-1E+10	1	-1E+10	1	-1E+10	1	-1E+10	1
4902549	96	C	04/10/2023	08:01	-133.368	47.599	0	87.00	0	7.4030	0	32.3980	0	25.316	0	86.255	0	274.1	4	92.5	4	-1E+10	1	-1E+10	1	-1E+10	1	-1E+10	1	-1E+10	1	-1E+10	1
4902549	96	C	04/10/2023	08:01	-133.368	47.599	0	88.00	0	7.3980	0	32.3990	0	25.318	0	87.246	0	272.4	4	91.9	4	-1E+10	1	-1E+10	1	-1E+10	1	-1E+10	1	-1E+10	1	-1E+10	1
4902549	96	C	04/10/2023	08:01	-133.368	47.599	0	89.00	0	7.3900	0	32.4070	0	25.325	0	88.237	0	270.9	4	91.4	4	-1E+10	1	-1E+10	1	-1E+10	1	-1E+10	1	-1E+10	1	-1E+10	1
4902549	96	C	04/10/2023	08:01	-133.368	47.599	0	90.10	0	7.3950	0	32.4150	0	25.331	0	89.328	0	268.8	4	90.7	4	-1E+10	1	-1E+10	1	-1E+10	1	-1E+10	1	-1E+10	1	-1E+10	1
4902549	96	C	04/10/2023	08:01	-133.368	47.599	0	91.10	0	7.3970	0	32.4290	0	25.342	0	90.319	0	266.4	4	89.9	4	-1E+10	1	-1E+10	1	-1E+10	1	-1E+10	1	-1E+10	1	-1E+10	1
4902549	96	C	04/10/2023	08:01	-133.368	47.599	0	92.10	0	7.3870	0	32.4430	0	25.354	0	91.310	0	263.9	4	89.0	4	-1E+10	1	-1E+10	1	-1E+10	1	-1E+10	1	-1E+10	1	-1E+10	1
4902549	96	C	04/10/2023	08:01	-133.368	47.599	0	93.10	0	7.3810	0	32.4560	0	25.365	0	92.301	0	261.0	4	88.1	4	-1E+10	1	-1E+10	1	-1E+10	1	-1E+10	1	-1E+10	1	-1E+10	1
4902549	96	C	04/10/2023	08:01	-133.368	47.599	0	94.20	0	7.3870	0	32.4790	0	25.382	0	93.392	0	257.4	4	86.9	4	-1E+10	1	-1E+10	1	-1E+10	1	-1E+10	1	-1E+10	1	-1E+10	1
4902549	96	C	04/10/2023	08:01	-133.368	47.599	0	95.00	0	7.3870	0	32.4980	0	25.397	0	94.185	0	253.6	4	85.6	4	-1E+10	1	-1E+10	1	-1E+10	1	-1E+10	1	-1E+10	1	-1E+10	1
4902549	96	C	04/10/2023	08:01	-133.368	47.599	0	95.90	0	7.3910	0	32.5200	0	25.414	0	95.077	0	249.3	4	84.2	4	-1E+10	1	-1E+10	1	-1E+10	1	-1E+10	1	-1E+10	1	-1E+10	1
4902549	96	C	04/10/2023	08:01	-133.368	47.599	0	96.90	0	7.3960	0	32.6190	0	25.491	0	96.068	0	245.7	4	83.0	4	-1E+10	1	-1E+10	1	-1E+10	1	-1E+10	1	-1E+10	1	-1E+10	1
4902549	96	C	04/10/2023	08:01	-133.368	47.599	0	98.00	0	7.4070	0	32.6580	0	25.520	0	97.158	0	243.2	4	82.2	4	-1E+10	1	-1E+10	1	-1E+10	1	-1E+10	1	-1E+10	1	-1E+10	1
4902549	96	C	04/10/2023	08:01	-133.368	47.599	0	99.00	0	7.4070	0	32.6820	0	25.539	0	98.149	0	240.6	4	81.3	4	-1E+10	1	-1E+10	1	-1E+10	1	-1E+10	1	-1E+10	1	-1E+10	1
4902549	96	C	04/10/2023	08:01	-133.368	47.599	0	99.90	0	7.3710	0	32.7140	0	25.569	0	99.041	0	238.6	4	80.6	4	-1E+10	1	-1E+10	1	-1E+10	1	-1E+10	1	-1E+10	1	-1E+10	1
4902549	96	C	04/10/2023	08:01	-133.368	47.599	0	100.90	0	7.1700	0	32.7630	0	25.635	0	100.033	0	237.5	4	79.9	4	-1E+10	1	-1E+10	1	-1E+10	1	-1E+10	1	-1E+10	1	-1E+10	1
4902549	96	C	04/10/2023	08:01	-133.368	47.599	0	102.00	0	7.0470	0	32.8140	0	25.692	0	101.123	0	235.3	4	79.0	4	-1E+10	1	-1E+10	1	-1E+10	1	-1E+10	1	-1E+10	1	-1E+10	1
4902549	96	C	04/10/2023	08:01	-133.368	47.599	0	103.10	0	6.9560	0	32.8540	0	25.736	0	102.213	0	229.8	4	77.0	4	-1E+10	1	-1E+10	1	-1E+10	1	-1E+10	1	-1E+10	1	-1E+10	1
4902549	96	C	04/10/2023	08:01	-133.368	47.599	0	104.00	0	6.9020	0	32.8930	0	25.774	0	103.105	0	225.0	4	75.3	4	-1E+10	1	-1E+10	1	-1E+10	1	-1E+10	1	-1E+10	1	-1E+10	1
4902549	96	C	04/10/2023	08:01	-133.368	47.599	0	104.90	0	6.8760	0	32.9240	0	25.802	0	103.997	0	222.1	4	74.3	4	-1E+10	1	-1E+10	1	-1E+10	1	-1E+10	1	-1E+10	1	-1E+10	1
4902549	96	C	04/10/2023	08:01	-133.368	47.599	0	106.00	0	6.8190	0	32.9640	0	25.841	0	105.087	0	218.9	4	73.2	4	-1E+10	1	-1E+10	1	-1E+10	1	-1E+10	1	-1E+10	1	-1E+10	1
4902549	96	C	04/10/2023	08:01	-133.368	47.599	0	107.10	0	6.7070	0	33.0120	0	25.893	0	106.178	0	215.2	4	71.8	4	-1E+10	1	-1E+10	1	-1E+10	1	-1E+10	1	-1E+10	1	-1E+10	1
4902549	96	C	04/10/2023	08:01	-133.368	47.599	0	108.10	0	6.8680	0	33.1070	0	25.947	0	107.169	0	212.1	4	71.1	4	-1E+10	1	-1E+10	1	-1E+10	1	-1E+10	1	-1E+10	1	-1E+10	1
4902549	96	C	04/10/2023	08:01	-133.368	47.599	0	109.30	0	7.0170	0	33.1250	0	25.941	0	108.358	0	210.3	4	70.7	4	-1E+10	1	-1E+10	1	-1E+10	1	-1E+10	1	-1E+10	1	-1E+10	1
4902549	96	C	04/10/2023	08:01	-133.368	47.599	0	110.00	0	7.0330	0	33.1280	0	25.941	0	109.052	0	209.7	4	70.5	4	-1E+10	1	-1E+10	1	-1E+10	1	-1E+10	1	-1E+10	1	-1E+10	1
4902549	96	C	04/10/2023	08:01	-133.368	47.599	0	111.00	0	7.0320	0	33.1350	0	25.947	0	110.043	0	209.0	4	70.3	4	-1E+10	1	-1E+10	1	-1E+10	1	-1E+10	1	-1E+10	1	-1E+10	1
4902549	96	C	04/10/2023	08:01	-133.368	47.599	0	112.00	0	7.0200	0	33.1400	0	25.953	0	111.034	0	208.1	4	70.0	4	-1E+10	1	-1E+10	1	-1E+10	1	-1E+10	1	-1E+10	1	-1E+10	1
4902549	96	C	04/10/2023	08:01	-133.368	47.599	0	113.10	0	6.9840	0	33.1630	0	25.976	0	112.124	0	207.1	4	69.6	4	-1E+10	1	-1E+10	1	-1E+10	1	-1E+10	1	-1E+10	1	-1E+10	1
4902549	96	C	04/10/2023	08:01	-133.368	47.599	0	114.00	0	6.9320	0	33.1940	0	26.007	0	113.016	0	206.2	4	69.2	4	-1E+10	1	-1E+10	1	-1E+10	1	-1E+10	1	-1E+10	1	-1E+10	1
4902549	96	C	04/10/2023	08:01	-133.368	47.599	0	114.70	0	6.9690	0	33.2120	0	26.016	0	113.710	0	205.2	4	69.0	4	-1E+10	1	-1E+10	1	-1E+10	1	-1E+10	1	-1E+10	1	-1E+10	1
4902549	96	C	04/10/2023	08:01	-133.368	47.599	0	115.80	0	6.9900	0	33.2450	0	26.039	0	114.800	0	204.3	4	68.7	4	-1E+10	1	-1E+10	1	-1E+10	1	-1E+10	1	-1E+10	1	-1E+10	1
4902549	96	C	04/10/2023	08:01	-133.368	47.599	0	116.90	0	6.9930	0	33.2770	0	26.064	0	115.890	0	204.0	4	68.6	4	-1E+10	1	-1E+10	1	-1E+10	1	-1E+10	1	-1E+10	1	-1E+10	1
4902549	96	C	04/10/2023	08:01	-133.368	47.599	0	118.10	0	6.9800	0	33.2930	0	26.079	0	117.080	0	204.0	4	68.6	4	-1E+10	1	-1E+10	1	-1E+10	1	-1E+10	1	-1E+10	1	-1E+10	1
4902549	96	C	04/10/2023	08:01	-133.368	47.599	0	118.90	0	6.9740	0	33.3070	0	26.090	0	117.873	0	204.2	4	68.7	4	-1E+10	1	-1E+10	1	-1E+10	1	-1E+10	1	-1E+10	1	-1E+10	1
4902549	96	C	04/10/2023	08:01	-133.368	47.599	0	119.90	0	6.9380	0	33.3330	0	26.116	0	118.864	0	204.9	4	68.9	4	-1E+10	1	-1E+10	1	-1E+10	1	-1E+10	1	-1E+10	1	-1E+10	1
4902549	96	C	04/10/2023	08:01	-133.368	47.599	0	121.10	0	6.8740	0	33.3670	0	26.151	0	120.053	0	205.8	4	69.1	4	-1E+10	1	-1E+10	1	-1E+10	1	-1E+10	1	-1E+10	1	-1E+10	1
4902549	96	C	04/10/2023	08:01	-133.368	47.599	0	122.10	0	6.8630	0	33.3750	0	26.159	0	121.044	0	206.5	4	69.3	4	-1E+10	1	-1E+10	1	-1E+10	1	-1E+10	1	-1E+10	1	-1E+10	1
4902549	96	C	04/10/2023	08:01	-133.368	47.599	0	123.00	0	6.8400	0	33.3780	0	26.164	0	121.936	0	207.3	4	69.6	4	-1E+10	1	-1E+10	1	-1E+10	1	-1E+10	1	-1E+10	1	-1E+10	1
4902549	96	C	04/10/2023	08:01	-133.368	47.599	0	124.10	0	6.8170	0	33.3850	0	26.173	0	123.026	0	208.0	4	69.8	4	-1E+10	1	-1E+10	1	-1E+10	1	-1E+10	1	-1E+10	1	-1E+10	1
4902549	96	C	04/10/2023	08:01	-133.368	47.599	0	125.10	0	6.7860	0	33.3900	0	26.181	0	124.017	0	208.8	4	70.0	4	-1E+10	1	-1E+10	1	-1E+10	1	-1E+10	1	-1E+10	1	-1E+10	1
4902549	96	C	04/10/2023	08:01	-133.368	47.599	0	126.20	0	6.7320	0	33.3980	0	26.195	0	125.107	0	209.5	4	70.1	4	-1E+10	1	-1E+10	1	-1E+10	1	-1E+10	1	-1E+10	1	-1E+10	1
4902549	96	C	04/10/2023	08:01	-133.368	47.599	0	126.90	0	6.7120	0	33.3980	0	26.197	0	125.801	0	209.7	4	70.2	4	-1E+10	1	-1E+10	1	-1E+10	1	-1E+10	1	-1E+10	1	-1E+10	1
4902549	96	C	04/10/2023	08:01	-133.368	47.599	0	127.90	0	6.7070	0	33.4050	0	26.203	0	126.792	0	210.2	4	70.3	4	-1E+10	1	-1E+10	1	-1E+10	1	-1E+10	1	-1E+10	1	-1E+10	1
4902549	96	C	04/10/2023	08:01	-133.368	47.599	0	129.00	0	6.7100	0	33.4140	0	26.210	0	127.882	0	210.7	4	70.5	4	-1E+10	1	-1E+10	1	-1E+10	1	-1E+10	1	-1E+10	1	-1E+10	1
4902549	96	C	04/10/2023	08:01	-133.368	47.599	0	129.80	0	6.7010	0	33.4270	0	26.222	0	128.675	0	211.1	4	70.6	4	-1E+10	1	-1E+10	1	-1E+10	1	-1E+10	1	-1E+10	1	-1E+10	1
4902549	96	C	04/10/2023	08:01	-133.368	47.599	0	130.90	0	6.5990	0	33.4380	0	26.244	0	129.765	0	212.2	4	70.8	4	-1E+10	1	-1E+10	1	-1E+10	1	-1E+10	1	-1E+10	1	-1E+10	1
4902549	96	C	04/10/2023	08:01	-133.368	47.599	0	132.10	0	6.5200	0	33.4520	0	26.265	0	130.954	0	212.4	4	70.8	4	-1E+10	1	-1E+10	1	-1E+10	1	-1E+10	1	-1E+10	1	-1E+10	1
4902549	96	C	04/10/2023	08:01	-133.368	47.599	0	132.90	0	6.4230	0	33.4600	0	26.284	0	131.747	0	212.0	4	70.5	4	-1E+10	1	-1E+10	1	-1E+10	1	-1E+10	1	-1E+10	1	-1E+10	1
4902549	96	C	04/10/2023	08:01	-133.368	47.599	0	133.80	0	6.3970	0	33.4740	0	26.298	0	132.639	0	211.4	4	70.3	4	-1E+10	1	-1E+10	1	-1E+10	1	-1E+10	1	-1E+10	1	-1E+10	1
4902549	96	C	04/10/2023	08:01	-133.368	47.599	0	134.60	0	6.4090	0	33.4860	0	26.306	0	133.432	0	210.6	4	70.0	4	-1E+10	1	-1E+10	1	-1E+10	1	-1E+10	1	-1E+10	1	-1E+10	1
4902549	96	C	04/10/2023	08:01	-133.368	47.599	0	135.90	0	6.4180	0	33.4870	0	26.306	0	134.720	0	209.6	4	69.7	4	-1E+10	1	-1E+10	1	-1E+10	1	-1E+10	1	-1E+10	1	-1E+10	1
4902549	96	C	04/10/2023	08:01	-133.368	47.599	0	137.20	0	6.4010	0	33.5020	0	26.320	0	136.008	0	208.7	4	69.4	4	-1E+10	1	-1E+10	1	-1E+10	1	-1E+10	1	-1E+10	1	-1E+10	1
4902549	96	C	04/10/2023	08:01	-133.368	47.599	0	138.00	0	6.3740	0	33.5110	0	26.330	0	136.801	0	208.0	4	69.1	4	-1E+10	1	-1E+10	1	-1E+10	1	-1E+10	1	-1E+10	1	-1E+10	1
4902549	96	C	04/10/2023	08:01	-133.368	47.599	0	138.90	0	6.3620	0	33.5180	0	26.338	0	137.693	0	207.2	4	68.8	4	-1E+10	1	-1E+10	1	-1E+10	1	-1E+10	1	-1E+10	1	-1E+10	1
4902549	96	C	04/10/2023	08:01	-133.368	47.599	0	139.80	0	6.3580	0	33.5320	0	26.349	0	138.585	0	206.6	4	68.6	4	-1E+10	1	-1E+10	1	-1E+10	1	-1E+10	1	-1E+10	1	-1E+10	1
4902549	96	C	04/10/2023	08:01	-133.368	47.599	0	140.80	0	6.3550	0	33.5420	0	26.357	0	139.576	0	206.0	4	68.4	4	-1E+10	1	-1E+10	1	-1E+10	1	-1E+10	1	-1E+10	1	-1E+10	1
4902549	96	C	04/10/2023	08:01	-133.368	47.599	0	141.70	0	6.3490	0	33.5450	0	26.361	0	140.468	0	205.4	4	68.2	4	-1E+10	1	-1E+10	1	-1E+10	1	-1E+10	1	-1E+10	1	-1E+10	1
4902549	96	C	04/10/2023	08:01	-133.368	47.599	0	142.70	0	6.3380	0	33.5510	0	26.367	0	141.459	0	204.8	4	68.0	4	-1E+10	1	-1E+10	1	-1E+10	1	-1E+10	1	-1E+10	1	-1E+10	1
4902549	96	C	04/10/2023	08:01	-133.368	47.599	0	143.60	0	6.3230	0	33.5620	0	26.377	0	142.351	0	204.2	4	67.8	4	-1E+10	1	-1E+10	1	-1E+10	1	-1E+10	1	-1E+10	1	-1E+10	1
4902549	96	C	04/10/2023	08:01	-133.368	47.599	0	144.60	0	6.3200	0	33.5640	0	26.379	0	143.342	0	203.6	4	67.6	4	-1E+10	1	-1E+10	1	-1E+10	1	-1E+10	1	-1E+10	1	-1E+10	1
4902549	96	C	04/10/2023	08:01	-133.368	47.599	0	145.60	0	6.3100	0	33.5740	0	26.388	0	144.333	0	203.0	4	67.4	4	-1E+10	1	-1E+10	1	-1E+10	1	-1E+10	1	-1E+10	1	-1E+10	1
4902549	96	C	04/10/2023	08:01	-133.368	47.599	0	146.60	0	6.3000	0	33.5850	0	26.398	0	145.324	0	202.4	4	67.2	4	-1E+10	1	-1E+10	1	-1E+10	1	-1E+10	1	-1E+10	1	-1E+10	1
4902549	96	C	04/10/2023	08:01	-133.368	47.599	0	147.50	0	6.2870	0	33.5940	0	26.407	0	146.215	0	201.8	4	67.0	4	-1E+10	1	-1E+10	1	-1E+10	1	-1E+10	1	-1E+10	1	-1E+10	1
4902549	96	C	04/10/2023	08:01	-133.368	47.599	0	148.50	0	6.2880	0	33.5970	0	26.409	0	147.206	0	201.2	4	66.8	4	-1E+10	1	-1E+10	1	-1E+10	1	-1E+10	1	-1E+10	1	-1E+10	1
4902549	96	C	04/10/2023	08:01	-133.368	47.599	0	149.50	0	6.2810	0	33.6050	0	26.417	0	148.197	0	200.7	4	66.6	4	-1E+10	1	-1E+10	1	-1E+10	1	-1E+10	1	-1E+10	1	-1E+10	1
4902549	96	C	04/10/2023	08:01	-133.368	47.599	0	150.50	0	6.2760	0	33.6080	0	26.420	0	149.188	0	200.1	4	66.4	4	-1E+10	1	-1E+10	1	-1E+10	1	-1E+10	1	-1E+10	1	-1E+10	1
4902549	96	C	04/10/2023	08:01	-133.368	47.599	0	151.90	0	6.2720	0	33.6110	0	26.423	0	150.575	0	199.1	4	66.1	4	-1E+10	1	-1E+10	1	-1E+10	1	-1E+10	1	-1E+10	1	-1E+10	1
4902549	96	C	04/10/2023	08:01	-133.368	47.599	0	153.40	0	6.2650	0	33.6160	0	26.427	0	152.062	0	198.1	4	65.7	4	-1E+10	1	-1E+10	1	-1E+10	1	-1E+10	1	-1E+10	1	-1E+10	1
4902549	96	C	04/10/2023	08:01	-133.368	47.599	0	154.40	0	6.2570	0	33.6220	0	26.433	0	153.053	0	197.5	4	65.5	4	-1E+10	1	-1E+10	1	-1E+10	1	-1E+10	1	-1E+10	1	-1E+10	1
4902549	96	C	04/10/2023	08:01	-133.368	47.599	0	155.30	0	6.2520	0	33.6240	0	26.435	0	153.945	0	196.8	4	65.3	4	-1E+10	1	-1E+10	1	-1E+10	1	-1E+10	1	-1E+10	1	-1E+10	1
4902549	96	C	04/10/2023	08:01	-133.368	47.599	0	156.30	0	6.2480	0	33.6260	0	26.438	0	154.935	0	196.1	4	65.0	4	-1E+10	1	-1E+10	1	-1E+10	1	-1E+10	1	-1E+10	1	-1E+10	1
4902549	96	C	04/10/2023	08:01	-133.368	47.599	0	157.20	0	6.2370	0	33.6330	0	26.444	0	155.827	0	195.4	4	64.8	4	-1E+10	1	-1E+10	1	-1E+10	1	-1E+10	1	-1E+10	1	-1E+10	1
4902549	96	C	04/10/2023	08:01	-133.368	47.599	0	158.20	0	6.2260	0	33.6430	0	26.454	0	156.818	0	194.9	4	64.6	4	-1E+10	1	-1E+10	1	-1E+10	1	-1E+10	1	-1E+10	1	-1E+10	1
4902549	96	C	04/10/2023	08:01	-133.368	47.599	0	159.10	0	6.2200	0	33.6480	0	26.458	0	157.710	0	194.5	4	64.5	4	-1E+10	1	-1E+10	1	-1E+10	1	-1E+10	1	-1E+10	1	-1E+10	1
4902549	96	C	04/10/2023	08:01	-133.368	47.599	0	160.10	0	6.2190	0	33.6490	0	26.459	0	158.701	0	194.0	4	64.3	4	-1E+10	1	-1E+10	1	-1E+10	1	-1E+10	1	-1E+10	1	-1E+10	1
4902549	96	C	04/10/2023	08:01	-133.368	47.599	0	161.00	0	6.2180	0	33.6500	0	26.460	0	159.593	0	193.4	4	64.1	4	-1E+10	1	-1E+10	1	-1E+10	1	-1E+10	1	-1E+10	1	-1E+10	1
4902549	96	C	04/10/2023	08:01	-133.368	47.599	0	161.90	0	6.2160	0	33.6510	0	26.461	0	160.484	0	192.8	4	63.9	4	-1E+10	1	-1E+10	1	-1E+10	1	-1E+10	1	-1E+10	1	-1E+10	1
4902549	96	C	04/10/2023	08:01	-133.368	47.599	0	162.90	0	6.2140	0	33.6510	0	26.462	0	161.475	0	192.1	4	63.7	4	-1E+10	1	-1E+10	1	-1E+10	1	-1E+10	1	-1E+10	1	-1E+10	1
4902549	96	C	04/10/2023	08:01	-133.368	47.599	0	163.80	0	6.2100	0	33.6540	0	26.465	0	162.367	0	191.5	4	63.4	4	-1E+10	1	-1E+10	1	-1E+10	1	-1E+10	1	-1E+10	1	-1E+10	1
4902549	96	C	04/10/2023	08:01	-133.368	47.599	0	164.70	0	6.2050	0	33.6560	0	26.467	0	163.259	0	190.8	4	63.2	4	-1E+10	1	-1E+10	1	-1E+10	1	-1E+10	1	-1E+10	1	-1E+10	1
4902549	96	C	04/10/2023	08:01	-133.368	47.599	0	165.60	0	6.2020	0	33.6580	0	26.469	0	164.151	0	189.9	4	62.9	4	-1E+10	1	-1E+10	1	-1E+10	1	-1E+10	1	-1E+10	1	-1E+10	1
4902549	96	C	04/10/2023	08:01	-133.368	47.599	0	166.90	0	6.1960	0	33.6620	0	26.473	0	165.439	0	188.7	4	62.5	4	-1E+10	1	-1E+10	1	-1E+10	1	-1E+10	1	-1E+10	1	-1E+10	1
4902549	96	C	04/10/2023	08:01	-133.368	47.599	0	168.30	0	6.1920	0	33.6650	0	26.476	0	166.826	0	187.4	4	62.1	4	-1E+10	1	-1E+10	1	-1E+10	1	-1E+10	1	-1E+10	1	-1E+10	1
4902549	96	C	04/10/2023	08:01	-133.368	47.599	0	169.10	0	6.1920	0	33.6650	0	26.476	0	167.619	0	186.4	4	61.7	4	-1E+10	1	-1E+10	1	-1E+10	1	-1E+10	1	-1E+10	1	-1E+10	1
4902549	96	C	04/10/2023	08:01	-133.368	47.599	0	170.00	0	6.1910	0	33.6660	0	26.477	0	168.510	0	185.1	4	61.3	4	-1E+10	1	-1E+10	1	-1E+10	1	-1E+10	1	-1E+10	1	-1E+10	1
4902549	96	C	04/10/2023	08:01	-133.368	47.599	0	170.90	0	6.1890	0	33.6670	0	26.478	0	169.402	0	183.9	4	60.9	4	-1E+10	1	-1E+10	1	-1E+10	1	-1E+10	1	-1E+10	1	-1E+10	1
4902549	96	C	04/10/2023	08:01	-133.368	47.599	0	171.70	0	6.1850	0	33.6690	0	26.480	0	170.195	0	182.5	4	60.4	4	-1E+10	1	-1E+10	1	-1E+10	1	-1E+10	1	-1E+10	1	-1E+10	1
4902549	96	C	04/10/2023	08:01	-133.368	47.599	0	173.00	0	6.1700	0	33.6750	0	26.486	0	171.483	0	180.4	4	59.7	4	-1E+10	1	-1E+10	1	-1E+10	1	-1E+10	1	-1E+10	1	-1E+10	1
4902549	96	C	04/10/2023	08:01	-133.368	47.599	0	174.30	0	6.1420	0	33.6870	0	26.499	0	172.771	0	178.4	4	59.0	4	-1E+10	1	-1E+10	1	-1E+10	1	-1E+10	1	-1E+10	1	-1E+10	1
4902549	96	C	04/10/2023	08:01	-133.368	47.599	0	175.20	0	6.1140	0	33.6980	0	26.512	0	173.663	0	177.4	4	58.7	4	-1E+10	1	-1E+10	1	-1E+10	1	-1E+10	1	-1E+10	1	-1E+10	1
4902549	96	C	04/10/2023	08:01	-133.368	47.599	0	176.00	0	6.1090	0	33.6980	0	26.512	0	174.455	0	176.4	4	58.3	4	-1E+10	1	-1E+10	1	-1E+10	1	-1E+10	1	-1E+10	1	-1E+10	1
4902549	96	C	04/10/2023	08:01	-133.368	47.599	0	176.80	0	6.1050	0	33.6990	0	26.514	0	175.248	0	175.2	4	57.9	4	-1E+10	1	-1E+10	1	-1E+10	1	-1E+10	1	-1E+10	1	-1E+10	1
4902549	96	C	04/10/2023	08:01	-133.368	47.599	0	177.70	0	6.0920	0	33.7040	0	26.519	0	176.139	0	174.2	4	57.6	4	-1E+10	1	-1E+10	1	-1E+10	1	-1E+10	1	-1E+10	1	-1E+10	1
4902549	96	C	04/10/2023	08:01	-133.368	47.599	0	178.90	0	6.0670	0	33.7090	0	26.526	0	177.328	0	172.4	4	57.0	4	-1E+10	1	-1E+10	1	-1E+10	1	-1E+10	1	-1E+10	1	-1E+10	1
4902549	96	C	04/10/2023	08:01	-133.368	47.599	0	180.10	0	6.0310	0	33.7200	0	26.539	0	178.517	0	171.1	4	56.5	4	-1E+10	1	-1E+10	1	-1E+10	1	-1E+10	1	-1E+10	1	-1E+10	1
4902549	96	C	04/10/2023	08:01	-133.368	47.599	0	181.00	0	6.0160	0	33.7240	0	26.544	0	179.409	0	170.3	4	56.2	4	-1E+10	1	-1E+10	1	-1E+10	1	-1E+10	1	-1E+10	1	-1E+10	1
4902549	96	C	04/10/2023	08:01	-133.368	47.599	0	181.80	0	6.0130	0	33.7240	0	26.545	0	180.202	0	169.3	4	55.9	4	-1E+10	1	-1E+10	1	-1E+10	1	-1E+10	1	-1E+10	1	-1E+10	1
4902549	96	C	04/10/2023	08:01	-133.368	47.599	0	182.70	0	5.9990	0	33.7240	0	26.547	0	181.093	0	168.4	4	55.6	4	-1E+10	1	-1E+10	1	-1E+10	1	-1E+10	1	-1E+10	1	-1E+10	1
4902549	96	C	04/10/2023	08:01	-133.368	47.599	0	183.90	0	5.9800	0	33.7280	0	26.552	0	182.282	0	167.2	4	55.1	4	-1E+10	1	-1E+10	1	-1E+10	1	-1E+10	1	-1E+10	1	-1E+10	1
4902549	96	C	04/10/2023	08:01	-133.368	47.599	0	185.20	0	5.9690	0	33.7290	0	26.554	0	183.570	0	166.0	4	54.7	4	-1E+10	1	-1E+10	1	-1E+10	1	-1E+10	1	-1E+10	1	-1E+10	1
4902549	96	C	04/10/2023	08:01	-133.368	47.599	0	186.00	0	5.9630	0	33.7340	0	26.559	0	184.363	0	165.0	4	54.4	4	-1E+10	1	-1E+10	1	-1E+10	1	-1E+10	1	-1E+10	1	-1E+10	1
4902549	96	C	04/10/2023	08:01	-133.368	47.599	0	186.90	0	5.9450	0	33.7350	0	26.562	0	185.255	0	164.3	4	54.1	4	-1E+10	1	-1E+10	1	-1E+10	1	-1E+10	1	-1E+10	1	-1E+10	1
4902549	96	C	04/10/2023	08:01	-133.368	47.599	0	187.70	0	5.9430	0	33.7360	0	26.563	0	186.047	0	163.5	4	53.9	4	-1E+10	1	-1E+10	1	-1E+10	1	-1E+10	1	-1E+10	1	-1E+10	1
4902549	96	C	04/10/2023	08:01	-133.368	47.599	0	189.00	0	5.9380	0	33.7360	0	26.564	0	187.335	0	162.1	4	53.4	4	-1E+10	1	-1E+10	1	-1E+10	1	-1E+10	1	-1E+10	1	-1E+10	1
4902549	96	C	04/10/2023	08:01	-133.368	47.599	0	190.30	0	5.9340	0	33.7370	0	26.565	0	188.623	0	160.6	4	52.9	4	-1E+10	1	-1E+10	1	-1E+10	1	-1E+10	1	-1E+10	1	-1E+10	1
4902549	96	C	04/10/2023	08:01	-133.368	47.599	0	191.20	0	5.9310	0	33.7370	0	26.565	0	189.515	0	159.3	4	52.5	4	-1E+10	1	-1E+10	1	-1E+10	1	-1E+10	1	-1E+10	1	-1E+10	1
4902549	96	C	04/10/2023	08:01	-133.368	47.599	0	192.00	0	5.9250	0	33.7380	0	26.567	0	190.307	0	158.0	4	52.1	4	-1E+10	1	-1E+10	1	-1E+10	1	-1E+10	1	-1E+10	1	-1E+10	1
4902549	96	C	04/10/2023	08:01	-133.368	47.599	0	192.90	0	5.9050	0	33.7410	0	26.572	0	191.199	0	156.8	4	51.6	4	-1E+10	1	-1E+10	1	-1E+10	1	-1E+10	1	-1E+10	1	-1E+10	1
4902549	96	C	04/10/2023	08:01	-133.368	47.599	0	193.90	0	5.8890	0	33.7430	0	26.575	0	192.190	0	155.5	4	51.2	4	-1E+10	1	-1E+10	1	-1E+10	1	-1E+10	1	-1E+10	1	-1E+10	1
4902549	96	C	04/10/2023	08:01	-133.368	47.599	0	194.80	0	5.8570	0	33.7480	0	26.583	0	193.081	0	154.6	4	50.9	4	-1E+10	1	-1E+10	1	-1E+10	1	-1E+10	1	-1E+10	1	-1E+10	1
4902549	96	C	04/10/2023	08:01	-133.368	47.599	0	195.70	0	5.8130	0	33.7540	0	26.593	0	193.973	0	154.0	4	50.6	4	-1E+10	1	-1E+10	1	-1E+10	1	-1E+10	1	-1E+10	1	-1E+10	1
4902549	96	C	04/10/2023	08:01	-133.368	47.599	0	196.60	0	5.7950	0	33.7540	0	26.596	0	194.865	0	153.5	4	50.4	4	-1E+10	1	-1E+10	1	-1E+10	1	-1E+10	1	-1E+10	1	-1E+10	1
4902549	96	C	04/10/2023	08:01	-133.368	47.599	0	197.90	0	5.7910	0	33.7530	0	26.595	0	196.153	0	152.7	4	50.2	4	-1E+10	1	-1E+10	1	-1E+10	1	-1E+10	1	-1E+10	1	-1E+10	1
4902549	96	C	04/10/2023	08:01	-133.368	47.599	0	199.40	0	5.7880	0	33.7530	0	26.596	0	197.639	0	151.8	4	49.8	4	-1E+10	1	-1E+10	1	-1E+10	1	-1E+10	1	-1E+10	1	-1E+10	1
4902549	96	C	04/10/2023	08:01	-133.368	47.599	0	200.30	0	5.7750	0	33.7560	0	26.600	0	198.530	0	151.2	4	49.6	4	-1E+10	1	-1E+10	1	-1E+10	1	-1E+10	1	-1E+10	1	-1E+10	1
4902549	96	C	04/10/2023	08:01	-133.368	47.599	0	201.30	0	5.7680	0	33.7570	0	26.601	0	199.521	0	150.6	4	49.4	4	-1E+10	1	-1E+10	1	-1E+10	1	-1E+10	1	-1E+10	1	-1E+10	1
4902549	96	C	04/10/2023	08:01	-133.368	47.599	0	202.20	0	5.7610	0	33.7580	0	26.603	0	200.412	0	150.0	4	49.2	4	-1E+10	1	-1E+10	1	-1E+10	1	-1E+10	1	-1E+10	1	-1E+10	1
4902549	96	C	04/10/2023	08:01	-133.368	47.599	0	203.10	0	5.7500	0	33.7580	0	26.604	0	201.304	0	149.5	4	49.1	4	-1E+10	1	-1E+10	1	-1E+10	1	-1E+10	1	-1E+10	1	-1E+10	1
4902549	96	C	04/10/2023	08:01	-133.368	47.599	0	204.10	0	5.7470	0	33.7580	0	26.605	0	202.295	0	148.9	4	48.8	4	-1E+10	1	-1E+10	1	-1E+10	1	-1E+10	1	-1E+10	1	-1E+10	1
4902549	96	C	04/10/2023	08:01	-133.368	47.599	0	205.00	0	5.7430	0	33.7600	0	26.607	0	203.186	0	148.3	4	48.6	4	-1E+10	1	-1E+10	1	-1E+10	1	-1E+10	1	-1E+10	1	-1E+10	1
4902549	96	C	04/10/2023	08:01	-133.368	47.599	0	205.90	0	5.7330	0	33.7610	0	26.609	0	204.078	0	147.7	4	48.4	4	-1E+10	1	-1E+10	1	-1E+10	1	-1E+10	1	-1E+10	1	-1E+10	1
4902549	96	C	04/10/2023	08:01	-133.368	47.599	0	206.80	0	5.7250	0	33.7630	0	26.611	0	204.970	0	147.1	4	48.2	4	-1E+10	1	-1E+10	1	-1E+10	1	-1E+10	1	-1E+10	1	-1E+10	1
4902549	96	C	04/10/2023	08:01	-133.368	47.599	0	207.80	0	5.7200	0	33.7640	0	26.613	0	205.960	0	146.7	4	48.1	4	-1E+10	1	-1E+10	1	-1E+10	1	-1E+10	1	-1E+10	1	-1E+10	1
4902549	96	C	04/10/2023	08:01	-133.368	47.599	0	208.70	0	5.7180	0	33.7640	0	26.613	0	206.852	0	146.1	4	47.9	4	-1E+10	1	-1E+10	1	-1E+10	1	-1E+10	1	-1E+10	1	-1E+10	1
4902549	96	C	04/10/2023	08:01	-133.368	47.599	0	209.60	0	5.7150	0	33.7640	0	26.613	0	207.743	0	145.5	4	47.7	4	-1E+10	1	-1E+10	1	-1E+10	1	-1E+10	1	-1E+10	1	-1E+10	1
4902549	96	C	04/10/2023	08:01	-133.368	47.599	0	210.50	0	5.7090	0	33.7640	0	26.614	0	208.635	0	145.0	4	47.5	4	-1E+10	1	-1E+10	1	-1E+10	1	-1E+10	1	-1E+10	1	-1E+10	1
4902549	96	C	04/10/2023	08:01	-133.368	47.599	0	211.90	0	5.7070	0	33.7650	0	26.615	0	210.022	0	144.1	4	47.2	4	-1E+10	1	-1E+10	1	-1E+10	1	-1E+10	1	-1E+10	1	-1E+10	1
4902549	96	C	04/10/2023	08:01	-133.368	47.599	0	213.40	0	5.6990	0	33.7670	0	26.618	0	211.508	0	143.2	4	46.9	4	-1E+10	1	-1E+10	1	-1E+10	1	-1E+10	1	-1E+10	1	-1E+10	1
4902549	96	C	04/10/2023	08:01	-133.368	47.599	0	214.30	0	5.6950	0	33.7670	0	26.618	0	212.399	0	142.5	4	46.7	4	-1E+10	1	-1E+10	1	-1E+10	1	-1E+10	1	-1E+10	1	-1E+10	1
4902549	96	C	04/10/2023	08:01	-133.368	47.599	0	215.30	0	5.6880	0	33.7690	0	26.621	0	213.390	0	141.9	4	46.5	4	-1E+10	1	-1E+10	1	-1E+10	1	-1E+10	1	-1E+10	1	-1E+10	1
4902549	96	C	04/10/2023	08:01	-133.368	47.599	0	216.30	0	5.6850	0	33.7690	0	26.621	0	214.381	0	141.3	4	46.3	4	-1E+10	1	-1E+10	1	-1E+10	1	-1E+10	1	-1E+10	1	-1E+10	1
4902549	96	C	04/10/2023	08:01	-133.368	47.599	0	217.20	0	5.6820	0	33.7690	0	26.621	0	215.272	0	140.6	4	46.1	4	-1E+10	1	-1E+10	1	-1E+10	1	-1E+10	1	-1E+10	1	-1E+10	1
4902549	96	C	04/10/2023	08:01	-133.368	47.599	0	218.20	0	5.6750	0	33.7710	0	26.624	0	216.263	0	139.9	4	45.8	4	-1E+10	1	-1E+10	1	-1E+10	1	-1E+10	1	-1E+10	1	-1E+10	1
4902549	96	C	04/10/2023	08:01	-133.368	47.599	0	219.20	0	5.6690	0	33.7720	0	26.625	0	217.253	0	139.2	4	45.6	4	-1E+10	1	-1E+10	1	-1E+10	1	-1E+10	1	-1E+10	1	-1E+10	1
4902549	96	C	04/10/2023	08:01	-133.368	47.599	0	220.20	0	5.6610	0	33.7720	0	26.626	0	218.244	0	138.5	4	45.4	4	-1E+10	1	-1E+10	1	-1E+10	1	-1E+10	1	-1E+10	1	-1E+10	1
4902549	96	C	04/10/2023	08:01	-133.368	47.599	0	221.10	0	5.6530	0	33.7730	0	26.628	0	219.135	0	137.8	4	45.1	4	-1E+10	1	-1E+10	1	-1E+10	1	-1E+10	1	-1E+10	1	-1E+10	1
4902549	96	C	04/10/2023	08:01	-133.368	47.599	0	222.10	0	5.6450	0	33.7730	0	26.629	0	220.126	0	137.1	4	44.9	4	-1E+10	1	-1E+10	1	-1E+10	1	-1E+10	1	-1E+10	1	-1E+10	1
4902549	96	C	04/10/2023	08:01	-133.368	47.599	0	223.10	0	5.6380	0	33.7730	0	26.630	0	221.117	0	136.4	4	44.7	4	-1E+10	1	-1E+10	1	-1E+10	1	-1E+10	1	-1E+10	1	-1E+10	1
4902549	96	C	04/10/2023	08:01	-133.368	47.599	0	224.10	0	5.6110	0	33.7720	0	26.632	0	222.107	0	135.9	4	44.4	4	-1E+10	1	-1E+10	1	-1E+10	1	-1E+10	1	-1E+10	1	-1E+10	1
4902549	96	C	04/10/2023	08:01	-133.368	47.599	0	225.10	0	5.5990	0	33.7730	0	26.635	0	223.098	0	135.3	4	44.2	4	-1E+10	1	-1E+10	1	-1E+10	1	-1E+10	1	-1E+10	1	-1E+10	1
4902549	96	C	04/10/2023	08:01	-133.368	47.599	0	226.20	0	5.5970	0	33.7730	0	26.635	0	224.187	0	134.7	4	44.0	4	-1E+10	1	-1E+10	1	-1E+10	1	-1E+10	1	-1E+10	1	-1E+10	1
4902549	96	C	04/10/2023	08:01	-133.368	47.599	0	227.10	0	5.5970	0	33.7740	0	26.636	0	225.079	0	134.0	4	43.8	4	-1E+10	1	-1E+10	1	-1E+10	1	-1E+10	1	-1E+10	1	-1E+10	1
4902549	96	C	04/10/2023	08:01	-133.368	47.599	0	228.10	0	5.5850	0	33.7770	0	26.640	0	226.069	0	133.3	4	43.6	4	-1E+10	1	-1E+10	1	-1E+10	1	-1E+10	1	-1E+10	1	-1E+10	1
4902549	96	C	04/10/2023	08:01	-133.368	47.599	0	229.20	0	5.5780	0	33.7750	0	26.639	0	227.159	0	132.6	4	43.3	4	-1E+10	1	-1E+10	1	-1E+10	1	-1E+10	1	-1E+10	1	-1E+10	1
4902549	96	C	04/10/2023	08:01	-133.368	47.599	0	230.20	0	5.5720	0	33.7750	0	26.640	0	228.150	0	131.8	4	43.1	4	-1E+10	1	-1E+10	1	-1E+10	1	-1E+10	1	-1E+10	1	-1E+10	1
4902549	96	C	04/10/2023	08:01	-133.368	47.599	0	231.20	0	5.5690	0	33.7760	0	26.641	0	229.140	0	130.9	4	42.8	4	-1E+10	1	-1E+10	1	-1E+10	1	-1E+10	1	-1E+10	1	-1E+10	1
4902549	96	C	04/10/2023	08:01	-133.368	47.599	0	232.20	0	5.5660	0	33.7750	0	26.640	0	230.131	0	130.0	4	42.5	4	-1E+10	1	-1E+10	1	-1E+10	1	-1E+10	1	-1E+10	1	-1E+10	1
4902549	96	C	04/10/2023	08:01	-133.368	47.599	0	233.20	0	5.5610	0	33.7750	0	26.641	0	231.121	0	129.0	4	42.2	4	-1E+10	1	-1E+10	1	-1E+10	1	-1E+10	1	-1E+10	1	-1E+10	1
4902549	96	C	04/10/2023	08:01	-133.368	47.599	0	234.20	0	5.5230	0	33.7770	0	26.647	0	232.112	0	128.3	4	41.9	4	-1E+10	1	-1E+10	1	-1E+10	1	-1E+10	1	-1E+10	1	-1E+10	1
4902549	96	C	04/10/2023	08:01	-133.368	47.599	0	235.20	0	5.5050	0	33.7770	0	26.649	0	233.102	0	127.7	4	41.7	4	-1E+10	1	-1E+10	1	-1E+10	1	-1E+10	1	-1E+10	1	-1E+10	1
4902549	96	C	04/10/2023	08:01	-133.368	47.599	0	236.30	0	5.4990	0	33.7780	0	26.651	0	234.192	0	127.0	4	41.4	4	-1E+10	1	-1E+10	1	-1E+10	1	-1E+10	1	-1E+10	1	-1E+10	1
4902549	96	C	04/10/2023	08:01	-133.368	47.599	0	237.30	0	5.4980	0	33.7780	0	26.651	0	235.182	0	126.1	4	41.1	4	-1E+10	1	-1E+10	1	-1E+10	1	-1E+10	1	-1E+10	1	-1E+10	1
4902549	96	C	04/10/2023	08:01	-133.368	47.599	0	238.30	0	5.4840	0	33.7780	0	26.653	0	236.173	0	125.4	4	40.9	4	-1E+10	1	-1E+10	1	-1E+10	1	-1E+10	1	-1E+10	1	-1E+10	1
4902549	96	C	04/10/2023	08:01	-133.368	47.599	0	239.30	0	5.4770	0	33.7790	0	26.654	0	237.163	0	124.4	4	40.6	4	-1E+10	1	-1E+10	1	-1E+10	1	-1E+10	1	-1E+10	1	-1E+10	1
4902549	96	C	04/10/2023	08:01	-133.368	47.599	0	240.40	0	5.4600	0	33.7780	0	26.655	0	238.253	0	123.7	4	40.3	4	-1E+10	1	-1E+10	1	-1E+10	1	-1E+10	1	-1E+10	1	-1E+10	1
4902549	96	C	04/10/2023	08:01	-133.368	47.599	0	241.40	0	5.4310	0	33.7790	0	26.660	0	239.243	0	123.0	4	40.1	4	-1E+10	1	-1E+10	1	-1E+10	1	-1E+10	1	-1E+10	1	-1E+10	1
4902549	96	C	04/10/2023	08:01	-133.368	47.599	0	242.40	0	5.4070	0	33.7820	0	26.665	0	240.234	0	122.4	4	39.8	4	-1E+10	1	-1E+10	1	-1E+10	1	-1E+10	1	-1E+10	1	-1E+10	1
4902549	96	C	04/10/2023	08:01	-133.368	47.599	0	243.50	0	5.3910	0	33.7780	0	26.664	0	241.323	0	121.5	4	39.5	4	-1E+10	1	-1E+10	1	-1E+10	1	-1E+10	1	-1E+10	1	-1E+10	1
4902549	96	C	04/10/2023	08:01	-133.368	47.599	0	244.50	0	5.3540	0	33.7800	0	26.670	0	242.314	0	120.7	4	39.2	4	-1E+10	1	-1E+10	1	-1E+10	1	-1E+10	1	-1E+10	1	-1E+10	1
4902549	96	C	04/10/2023	08:01	-133.368	47.599	0	245.60	0	5.3420	0	33.7800	0	26.671	0	243.403	0	119.7	4	38.9	4	-1E+10	1	-1E+10	1	-1E+10	1	-1E+10	1	-1E+10	1	-1E+10	1
4902549	96	C	04/10/2023	08:01	-133.368	47.599	0	246.60	0	5.3100	0	33.7790	0	26.674	0	244.394	0	118.9	4	38.6	4	-1E+10	1	-1E+10	1	-1E+10	1	-1E+10	1	-1E+10	1	-1E+10	1
4902549	96	C	04/10/2023	08:01	-133.368	47.599	0	247.70	0	5.2940	0	33.7780	0	26.675	0	245.483	0	118.0	4	38.3	4	-1E+10	1	-1E+10	1	-1E+10	1	-1E+10	1	-1E+10	1	-1E+10	1
4902549	96	C	04/10/2023	08:01	-133.368	47.599	0	248.70	0	5.2730	0	33.7780	0	26.677	0	246.474	0	117.1	4	38.0	4	-1E+10	1	-1E+10	1	-1E+10	1	-1E+10	1	-1E+10	1	-1E+10	1
4902549	96	C	04/10/2023	08:01	-133.368	47.599	0	249.70	0	5.2510	0	33.7770	0	26.679	0	247.464	0	116.1	4	37.6	4	-1E+10	1	-1E+10	1	-1E+10	1	-1E+10	1	-1E+10	1	-1E+10	1
4902549	96	C	04/10/2023	08:01	-133.368	47.599	0	250.80	0	5.2330	0	33.7820	0	26.685	0	248.554	0	115.2	4	37.3	4	-1E+10	1	-1E+10	1	-1E+10	1	-1E+10	1	-1E+10	1	-1E+10	1
4902549	96	C	04/10/2023	08:01	-133.368	47.599	0	251.80	0	5.2210	0	33.7810	0	26.686	0	249.544	0	114.3	4	37.0	4	-1E+10	1	-1E+10	1	-1E+10	1	-1E+10	1	-1E+10	1	-1E+10	1
4902549	96	C	04/10/2023	08:01	-133.368	47.599	0	252.90	0	5.2150	0	33.7810	0	26.687	0	250.634	0	113.4	4	36.7	4	-1E+10	1	-1E+10	1	-1E+10	1	-1E+10	1	-1E+10	1	-1E+10	1
4902549	96	C	04/10/2023	08:01	-133.368	47.599	0	253.90	0	5.1970	0	33.7800	0	26.688	0	251.624	0	112.3	4	36.4	4	-1E+10	1	-1E+10	1	-1E+10	1	-1E+10	1	-1E+10	1	-1E+10	1
4902549	96	C	04/10/2023	08:01	-133.368	47.599	0	254.90	0	5.1720	0	33.7810	0	26.692	0	252.614	0	111.3	4	36.0	4	-1E+10	1	-1E+10	1	-1E+10	1	-1E+10	1	-1E+10	1	-1E+10	1
4902549	96	C	04/10/2023	08:01	-133.368	47.599	0	256.00	0	5.1350	0	33.7810	0	26.696	0	253.704	0	110.3	4	35.7	4	-1E+10	1	-1E+10	1	-1E+10	1	-1E+10	1	-1E+10	1	-1E+10	1
4902549	96	C	04/10/2023	08:01	-133.368	47.599	0	257.10	0	5.0950	0	33.7820	0	26.701	0	254.793	0	109.5	4	35.4	4	-1E+10	1	-1E+10	1	-1E+10	1	-1E+10	1	-1E+10	1	-1E+10	1
4902549	96	C	04/10/2023	08:01	-133.368	47.599	0	258.10	0	5.0620	0	33.7830	0	26.706	0	255.784	0	108.9	4	35.1	4	-1E+10	1	-1E+10	1	-1E+10	1	-1E+10	1	-1E+10	1	-1E+10	1
4902549	96	C	04/10/2023	08:01	-133.368	47.599	0	259.20	0	5.0450	0	33.7850	0	26.709	0	256.873	0	108.4	4	35.0	4	-1E+10	1	-1E+10	1	-1E+10	1	-1E+10	1	-1E+10	1	-1E+10	1
4902549	96	C	04/10/2023	08:01	-133.368	47.599	0	260.20	0	5.0380	0	33.7870	0	26.712	0	257.864	0	107.8	4	34.8	4	-1E+10	1	-1E+10	1	-1E+10	1	-1E+10	1	-1E+10	1	-1E+10	1
4902549	96	C	04/10/2023	08:01	-133.368	47.599	0	261.20	0	5.0330	0	33.7860	0	26.711	0	258.854	0	107.3	4	34.6	4	-1E+10	1	-1E+10	1	-1E+10	1	-1E+10	1	-1E+10	1	-1E+10	1
4902549	96	C	04/10/2023	08:01	-133.368	47.599	0	262.30	0	5.0250	0	33.7870	0	26.713	0	259.943	0	106.7	4	34.4	4	-1E+10	1	-1E+10	1	-1E+10	1	-1E+10	1	-1E+10	1	-1E+10	1
4902549	96	C	04/10/2023	08:01	-133.368	47.599	0	263.30	0	5.0220	0	33.7860	0	26.713	0	260.934	0	106.2	4	34.2	4	-1E+10	1	-1E+10	1	-1E+10	1	-1E+10	1	-1E+10	1	-1E+10	1
4902549	96	C	04/10/2023	08:01	-133.368	47.599	0	264.30	0	5.0090	0	33.7860	0	26.714	0	261.924	0	105.5	4	34.0	4	-1E+10	1	-1E+10	1	-1E+10	1	-1E+10	1	-1E+10	1	-1E+10	1
4902549	96	C	04/10/2023	08:01	-133.368	47.599	0	265.40	0	5.0080	0	33.7860	0	26.714	0	263.014	0	104.7	4	33.8	4	-1E+10	1	-1E+10	1	-1E+10	1	-1E+10	1	-1E+10	1	-1E+10	1
4902549	96	C	04/10/2023	08:01	-133.368	47.599	0	266.40	0	5.0070	0	33.7870	0	26.715	0	264.004	0	103.8	4	33.5	4	-1E+10	1	-1E+10	1	-1E+10	1	-1E+10	1	-1E+10	1	-1E+10	1
4902549	96	C	04/10/2023	08:01	-133.368	47.599	0	267.50	0	5.0060	0	33.7890	0	26.717	0	265.093	0	102.9	4	33.2	4	-1E+10	1	-1E+10	1	-1E+10	1	-1E+10	1	-1E+10	1	-1E+10	1
4902549	96	C	04/10/2023	08:01	-133.368	47.599	0	268.50	0	4.9970	0	33.7900	0	26.719	0	266.084	0	102.1	4	32.9	4	-1E+10	1	-1E+10	1	-1E+10	1	-1E+10	1	-1E+10	1	-1E+10	1
4902549	96	C	04/10/2023	08:01	-133.368	47.599	0	269.60	0	5.0060	0	33.7920	0	26.719	0	267.173	0	101.1	4	32.6	4	-1E+10	1	-1E+10	1	-1E+10	1	-1E+10	1	-1E+10	1	-1E+10	1
4902549	96	C	04/10/2023	08:01	-133.368	47.599	0	270.60	0	4.9790	0	33.7910	0	26.722	0	268.163	0	100.2	4	32.3	4	-1E+10	1	-1E+10	1	-1E+10	1	-1E+10	1	-1E+10	1	-1E+10	1
4902549	96	C	04/10/2023	08:01	-133.368	47.599	0	271.60	0	4.9920	0	33.7970	0	26.725	0	269.154	0	99.3	4	32.0	4	-1E+10	1	-1E+10	1	-1E+10	1	-1E+10	1	-1E+10	1	-1E+10	1
4902549	96	C	04/10/2023	08:01	-133.368	47.599	0	272.70	0	4.9900	0	33.7960	0	26.724	0	270.243	0	98.3	4	31.7	4	-1E+10	1	-1E+10	1	-1E+10	1	-1E+10	1	-1E+10	1	-1E+10	1
4902549	96	C	04/10/2023	08:01	-133.368	47.599	0	273.70	0	4.9800	0	33.7980	0	26.727	0	271.234	0	97.4	4	31.4	4	-1E+10	1	-1E+10	1	-1E+10	1	-1E+10	1	-1E+10	1	-1E+10	1
4902549	96	C	04/10/2023	08:01	-133.368	47.599	0	274.70	0	4.9480	0	33.7990	0	26.731	0	272.224	0	96.6	4	31.1	4	-1E+10	1	-1E+10	1	-1E+10	1	-1E+10	1	-1E+10	1	-1E+10	1
4902549	96	C	04/10/2023	08:01	-133.368	47.599	0	275.80	0	4.9140	0	33.7950	0	26.732	0	273.313	0	95.8	4	30.8	4	-1E+10	1	-1E+10	1	-1E+10	1	-1E+10	1	-1E+10	1	-1E+10	1
4902549	96	C	04/10/2023	08:01	-133.368	47.599	0	276.80	0	4.8910	0	33.7980	0	26.737	0	274.304	0	94.9	4	30.5	4	-1E+10	1	-1E+10	1	-1E+10	1	-1E+10	1	-1E+10	1	-1E+10	1
4902549	96	C	04/10/2023	08:01	-133.368	47.599	0	277.80	0	4.8740	0	33.7960	0	26.737	0	275.294	0	94.2	4	30.3	4	-1E+10	1	-1E+10	1	-1E+10	1	-1E+10	1	-1E+10	1	-1E+10	1
4902549	96	C	04/10/2023	08:01	-133.368	47.599	0	278.90	0	4.8440	0	33.8000	0	26.744	0	276.383	0	93.6	4	30.1	4	-1E+10	1	-1E+10	1	-1E+10	1	-1E+10	1	-1E+10	1	-1E+10	1
4902549	96	C	04/10/2023	08:01	-133.368	47.599	0	279.90	0	4.8260	0	33.8030	0	26.748	0	277.374	0	93.1	4	29.9	4	-1E+10	1	-1E+10	1	-1E+10	1	-1E+10	1	-1E+10	1	-1E+10	1
4902549	96	C	04/10/2023	08:01	-133.368	47.599	0	281.00	0	4.8230	0	33.8030	0	26.749	0	278.463	0	92.5	4	29.7	4	-1E+10	1	-1E+10	1	-1E+10	1	-1E+10	1	-1E+10	1	-1E+10	1
4902549	96	C	04/10/2023	08:01	-133.368	47.599	0	282.00	0	4.8190	0	33.8030	0	26.749	0	279.453	0	91.9	4	29.5	4	-1E+10	1	-1E+10	1	-1E+10	1	-1E+10	1	-1E+10	1	-1E+10	1
4902549	96	C	04/10/2023	08:01	-133.368	47.599	0	283.10	0	4.8090	0	33.8060	0	26.753	0	280.542	0	91.4	4	29.3	4	-1E+10	1	-1E+10	1	-1E+10	1	-1E+10	1	-1E+10	1	-1E+10	1
4902549	96	C	04/10/2023	08:01	-133.368	47.599	0	284.10	0	4.7940	0	33.8070	0	26.755	0	281.533	0	90.9	4	29.2	4	-1E+10	1	-1E+10	1	-1E+10	1	-1E+10	1	-1E+10	1	-1E+10	1
4902549	96	C	04/10/2023	08:01	-133.368	47.599	0	285.20	0	4.7920	0	33.8070	0	26.755	0	282.622	0	90.5	4	29.0	4	-1E+10	1	-1E+10	1	-1E+10	1	-1E+10	1	-1E+10	1	-1E+10	1
4902549	96	C	04/10/2023	08:01	-133.368	47.599	0	286.20	0	4.7780	0	33.8120	0	26.761	0	283.612	0	90.0	4	28.9	4	-1E+10	1	-1E+10	1	-1E+10	1	-1E+10	1	-1E+10	1	-1E+10	1
4902549	96	C	04/10/2023	08:01	-133.368	47.599	0	287.30	0	4.7770	0	33.8130	0	26.762	0	284.702	0	89.7	4	28.8	4	-1E+10	1	-1E+10	1	-1E+10	1	-1E+10	1	-1E+10	1	-1E+10	1
4902549	96	C	04/10/2023	08:01	-133.368	47.599	0	288.30	0	4.7750	0	33.8120	0	26.761	0	285.692	0	89.2	4	28.6	4	-1E+10	1	-1E+10	1	-1E+10	1	-1E+10	1	-1E+10	1	-1E+10	1
4902549	96	C	04/10/2023	08:01	-133.368	47.599	0	289.40	0	4.7720	0	33.8140	0	26.763	0	286.781	0	88.8	4	28.5	4	-1E+10	1	-1E+10	1	-1E+10	1	-1E+10	1	-1E+10	1	-1E+10	1
4902549	96	C	04/10/2023	08:01	-133.368	47.599	0	290.40	0	4.7660	0	33.8140	0	26.764	0	287.771	0	88.3	4	28.3	4	-1E+10	1	-1E+10	1	-1E+10	1	-1E+10	1	-1E+10	1	-1E+10	1
4902549	96	C	04/10/2023	08:01	-133.368	47.599	0	291.40	0	4.7620	0	33.8150	0	26.765	0	288.762	0	87.8	4	28.2	4	-1E+10	1	-1E+10	1	-1E+10	1	-1E+10	1	-1E+10	1	-1E+10	1
4902549	96	C	04/10/2023	08:01	-133.368	47.599	0	293.00	0	4.7540	0	33.8150	0	26.766	0	290.346	0	87.0	4	27.9	4	-1E+10	1	-1E+10	1	-1E+10	1	-1E+10	1	-1E+10	1	-1E+10	1
4902549	96	C	04/10/2023	08:01	-133.368	47.599	0	294.20	0	4.7480	0	33.8170	0	26.768	0	291.534	0	86.3	4	27.7	4	-1E+10	1	-1E+10	1	-1E+10	1	-1E+10	1	-1E+10	1	-1E+10	1
4902549	96	C	04/10/2023	08:01	-133.368	47.599	0	295.00	0	4.7400	0	33.8180	0	26.770	0	292.327	0	85.9	4	27.5	4	-1E+10	1	-1E+10	1	-1E+10	1	-1E+10	1	-1E+10	1	-1E+10	1
4902549	96	C	04/10/2023	08:01	-133.368	47.599	0	295.80	0	4.7360	0	33.8190	0	26.771	0	293.119	0	85.4	4	27.4	4	-1E+10	1	-1E+10	1	-1E+10	1	-1E+10	1	-1E+10	1	-1E+10	1
4902549	96	C	04/10/2023	08:01	-133.368	47.599	0	297.00	0	4.7310	0	33.8190	0	26.772	0	294.307	0	84.7	4	27.1	4	-1E+10	1	-1E+10	1	-1E+10	1	-1E+10	1	-1E+10	1	-1E+10	1
4902549	96	C	04/10/2023	08:01	-133.368	47.599	0	298.20	0	4.7180	0	33.8230	0	26.776	0	295.495	0	84.1	4	26.9	4	-1E+10	1	-1E+10	1	-1E+10	1	-1E+10	1	-1E+10	1	-1E+10	1
4902549	96	C	04/10/2023	08:01	-133.368	47.599	0	299.00	0	4.7060	0	33.8240	0	26.778	0	296.287	0	83.7	4	26.8	4	-1E+10	1	-1E+10	1	-1E+10	1	-1E+10	1	-1E+10	1	-1E+10	1
4902549	96	C	04/10/2023	08:01	-133.368	47.599	0	299.80	0	4.7010	0	33.8240	0	26.779	0	297.080	0	83.4	4	26.7	4	-1E+10	1	-1E+10	1	-1E+10	1	-1E+10	1	-1E+10	1	-1E+10	1
4902549	96	C	04/10/2023	08:01	-133.368	47.599	0	301.00	0	4.6800	0	33.8290	0	26.785	0	298.268	0	83.0	4	26.6	4	-1E+10	1	-1E+10	1	-1E+10	1	-1E+10	1	-1E+10	1	-1E+10	1
4902549	96	C	04/10/2023	08:01	-133.368	47.599	0	302.20	0	4.6720	0	33.8300	0	26.787	0	299.456	0	82.6	4	26.4	4	-1E+10	1	-1E+10	1	-1E+10	1	-1E+10	1	-1E+10	1	-1E+10	1
4902549	96	C	04/10/2023	08:01	-133.368	47.599	0	303.00	0	4.6700	0	33.8300	0	26.787	0	300.248	0	82.4	4	26.4	4	-1E+10	1	-1E+10	1	-1E+10	1	-1E+10	1	-1E+10	1	-1E+10	1
4902549	96	C	04/10/2023	08:01	-133.368	47.599	0	303.80	0	4.6650	0	33.8300	0	26.788	0	301.040	0	82.2	4	26.3	4	-1E+10	1	-1E+10	1	-1E+10	1	-1E+10	1	-1E+10	1	-1E+10	1
4902549	96	C	04/10/2023	08:01	-133.368	47.599	0	304.60	0	4.6610	0	33.8310	0	26.789	0	301.833	0	81.9	4	26.2	4	-1E+10	1	-1E+10	1	-1E+10	1	-1E+10	1	-1E+10	1	-1E+10	1
4902549	96	C	04/10/2023	08:01	-133.368	47.599	0	305.90	0	4.6590	0	33.8320	0	26.790	0	303.120	0	81.6	4	26.1	4	-1E+10	1	-1E+10	1	-1E+10	1	-1E+10	1	-1E+10	1	-1E+10	1
4902549	96	C	04/10/2023	08:01	-133.368	47.599	0	307.10	0	4.6590	0	33.8320	0	26.790	0	304.308	0	81.1	4	25.9	4	-1E+10	1	-1E+10	1	-1E+10	1	-1E+10	1	-1E+10	1	-1E+10	1
4902549	96	C	04/10/2023	08:01	-133.368	47.599	0	308.00	0	4.6570	0	33.8330	0	26.791	0	305.199	0	80.8	4	25.8	4	-1E+10	1	-1E+10	1	-1E+10	1	-1E+10	1	-1E+10	1	-1E+10	1
4902549	96	C	04/10/2023	08:01	-133.368	47.599	0	308.80	0	4.6570	0	33.8330	0	26.791	0	305.991	0	80.4	4	25.7	4	-1E+10	1	-1E+10	1	-1E+10	1	-1E+10	1	-1E+10	1	-1E+10	1
4902549	96	C	04/10/2023	08:01	-133.368	47.599	0	309.60	0	4.6560	0	33.8340	0	26.792	0	306.783	0	80.0	4	25.6	4	-1E+10	1	-1E+10	1	-1E+10	1	-1E+10	1	-1E+10	1	-1E+10	1
4902549	96	C	04/10/2023	08:01	-133.368	47.599	0	310.90	0	4.6470	0	33.8350	0	26.794	0	308.071	0	79.3	4	25.4	4	-1E+10	1	-1E+10	1	-1E+10	1	-1E+10	1	-1E+10	1	-1E+10	1
4902549	96	C	04/10/2023	08:01	-133.368	47.599	0	312.20	0	4.6400	0	33.8380	0	26.797	0	309.358	0	78.7	4	25.2	4	-1E+10	1	-1E+10	1	-1E+10	1	-1E+10	1	-1E+10	1	-1E+10	1
4902549	96	C	04/10/2023	08:01	-133.368	47.599	0	313.00	0	4.6340	0	33.8390	0	26.798	0	310.150	0	78.3	4	25.0	4	-1E+10	1	-1E+10	1	-1E+10	1	-1E+10	1	-1E+10	1	-1E+10	1
4902549	96	C	04/10/2023	08:01	-133.368	47.599	0	313.90	0	4.6280	0	33.8400	0	26.800	0	311.041	0	77.9	4	24.9	4	-1E+10	1	-1E+10	1	-1E+10	1	-1E+10	1	-1E+10	1	-1E+10	1
4902549	96	C	04/10/2023	08:01	-133.368	47.599	0	314.70	0	4.6230	0	33.8420	0	26.802	0	311.833	0	77.7	4	24.8	4	-1E+10	1	-1E+10	1	-1E+10	1	-1E+10	1	-1E+10	1	-1E+10	1
4902549	96	C	04/10/2023	08:01	-133.368	47.599	0	316.00	0	4.6220	0	33.8420	0	26.802	0	313.120	0	77.1	4	24.6	4	-1E+10	1	-1E+10	1	-1E+10	1	-1E+10	1	-1E+10	1	-1E+10	1
4902549	96	C	04/10/2023	08:01	-133.368	47.599	0	317.30	0	4.6100	0	33.8460	0	26.807	0	314.408	0	76.6	4	24.5	4	-1E+10	1	-1E+10	1	-1E+10	1	-1E+10	1	-1E+10	1	-1E+10	1
4902549	96	C	04/10/2023	08:01	-133.368	47.599	0	318.10	0	4.5920	0	33.8480	0	26.810	0	315.200	0	76.4	4	24.4	4	-1E+10	1	-1E+10	1	-1E+10	1	-1E+10	1	-1E+10	1	-1E+10	1
4902549	96	C	04/10/2023	08:01	-133.368	47.599	0	319.00	0	4.5860	0	33.8490	0	26.812	0	316.091	0	76.3	4	24.4	4	-1E+10	1	-1E+10	1	-1E+10	1	-1E+10	1	-1E+10	1	-1E+10	1
4902549	96	C	04/10/2023	08:01	-133.368	47.599	0	319.90	0	4.5840	0	33.8500	0	26.813	0	316.982	0	76.2	4	24.3	4	-1E+10	1	-1E+10	1	-1E+10	1	-1E+10	1	-1E+10	1	-1E+10	1
4902549	96	C	04/10/2023	08:01	-133.368	47.599	0	320.70	0	4.5810	0	33.8510	0	26.814	0	317.774	0	76.1	4	24.3	4	-1E+10	1	-1E+10	1	-1E+10	1	-1E+10	1	-1E+10	1	-1E+10	1
4902549	96	C	04/10/2023	08:01	-133.368	47.599	0	321.60	0	4.5800	0	33.8510	0	26.814	0	318.665	0	76.0	4	24.3	4	-1E+10	1	-1E+10	1	-1E+10	1	-1E+10	1	-1E+10	1	-1E+10	1
4902549	96	C	04/10/2023	08:01	-133.368	47.599	0	322.90	0	4.5770	0	33.8520	0	26.815	0	319.952	0	75.8	4	24.2	4	-1E+10	1	-1E+10	1	-1E+10	1	-1E+10	1	-1E+10	1	-1E+10	1
4902549	96	C	04/10/2023	08:01	-133.368	47.599	0	324.20	0	4.5770	0	33.8520	0	26.815	0	321.239	0	75.6	4	24.1	4	-1E+10	1	-1E+10	1	-1E+10	1	-1E+10	1	-1E+10	1	-1E+10	1
4902549	96	C	04/10/2023	08:01	-133.368	47.599	0	325.10	0	4.5760	0	33.8520	0	26.815	0	322.130	0	75.5	4	24.1	4	-1E+10	1	-1E+10	1	-1E+10	1	-1E+10	1	-1E+10	1	-1E+10	1
4902549	96	C	04/10/2023	08:01	-133.368	47.599	0	326.00	0	4.5750	0	33.8520	0	26.815	0	323.021	0	75.3	4	24.1	4	-1E+10	1	-1E+10	1	-1E+10	1	-1E+10	1	-1E+10	1	-1E+10	1
4902549	96	C	04/10/2023	08:01	-133.368	47.599	0	326.90	0	4.5740	0	33.8520	0	26.815	0	323.913	0	75.1	4	24.0	4	-1E+10	1	-1E+10	1	-1E+10	1	-1E+10	1	-1E+10	1	-1E+10	1
4902549	96	C	04/10/2023	08:01	-133.368	47.599	0	327.80	0	4.5760	0	33.8520	0	26.815	0	324.804	0	74.9	4	23.9	4	-1E+10	1	-1E+10	1	-1E+10	1	-1E+10	1	-1E+10	1	-1E+10	1
4902549	96	C	04/10/2023	08:01	-133.368	47.599	0	328.60	0	4.5760	0	33.8520	0	26.815	0	325.596	0	74.7	4	23.9	4	-1E+10	1	-1E+10	1	-1E+10	1	-1E+10	1	-1E+10	1	-1E+10	1
4902549	96	C	04/10/2023	08:01	-133.368	47.599	0	329.90	0	4.5740	0	33.8540	0	26.817	0	326.883	0	74.3	4	23.7	4	-1E+10	1	-1E+10	1	-1E+10	1	-1E+10	1	-1E+10	1	-1E+10	1
4902549	96	C	04/10/2023	08:01	-133.368	47.599	0	331.30	0	4.5700	0	33.8570	0	26.820	0	328.269	0	73.9	4	23.6	4	-1E+10	1	-1E+10	1	-1E+10	1	-1E+10	1	-1E+10	1	-1E+10	1
4902549	96	C	04/10/2023	08:01	-133.368	47.599	0	332.20	0	4.5610	0	33.8590	0	26.822	0	329.160	0	73.8	4	23.5	4	-1E+10	1	-1E+10	1	-1E+10	1	-1E+10	1	-1E+10	1	-1E+10	1
4902549	96	C	04/10/2023	08:01	-133.368	47.599	0	333.10	0	4.5600	0	33.8590	0	26.822	0	330.051	0	73.6	4	23.5	4	-1E+10	1	-1E+10	1	-1E+10	1	-1E+10	1	-1E+10	1	-1E+10	1
4902549	96	C	04/10/2023	08:01	-133.368	47.599	0	334.00	0	4.5600	0	33.8590	0	26.822	0	330.942	0	73.4	4	23.4	4	-1E+10	1	-1E+10	1	-1E+10	1	-1E+10	1	-1E+10	1	-1E+10	1
4902549	96	C	04/10/2023	08:01	-133.368	47.599	0	334.90	0	4.5590	0	33.8590	0	26.822	0	331.833	0	73.1	4	23.3	4	-1E+10	1	-1E+10	1	-1E+10	1	-1E+10	1	-1E+10	1	-1E+10	1
4902549	96	C	04/10/2023	08:01	-133.368	47.599	0	335.80	0	4.5590	0	33.8590	0	26.823	0	332.724	0	72.8	4	23.2	4	-1E+10	1	-1E+10	1	-1E+10	1	-1E+10	1	-1E+10	1	-1E+10	1
4902549	96	C	04/10/2023	08:01	-133.368	47.599	0	336.60	0	4.5570	0	33.8590	0	26.823	0	333.516	0	72.5	4	23.2	4	-1E+10	1	-1E+10	1	-1E+10	1	-1E+10	1	-1E+10	1	-1E+10	1
4902549	96	C	04/10/2023	08:01	-133.368	47.599	0	337.90	0	4.5550	0	33.8590	0	26.823	0	334.803	0	72.0	4	23.0	4	-1E+10	1	-1E+10	1	-1E+10	1	-1E+10	1	-1E+10	1	-1E+10	1
4902549	96	C	04/10/2023	08:01	-133.368	47.599	0	339.20	0	4.5430	0	33.8630	0	26.827	0	336.090	0	71.6	4	22.9	4	-1E+10	1	-1E+10	1	-1E+10	1	-1E+10	1	-1E+10	1	-1E+10	1
4902549	96	C	04/10/2023	08:01	-133.368	47.599	0	340.10	0	4.5370	0	33.8640	0	26.829	0	336.981	0	71.4	4	22.8	4	-1E+10	1	-1E+10	1	-1E+10	1	-1E+10	1	-1E+10	1	-1E+10	1
4902549	96	C	04/10/2023	08:01	-133.368	47.599	0	340.90	0	4.5350	0	33.8640	0	26.829	0	337.773	0	71.2	4	22.7	4	-1E+10	1	-1E+10	1	-1E+10	1	-1E+10	1	-1E+10	1	-1E+10	1
4902549	96	C	04/10/2023	08:01	-133.368	47.599	0	341.80	0	4.5330	0	33.8640	0	26.829	0	338.664	0	71.0	4	22.6	4	-1E+10	1	-1E+10	1	-1E+10	1	-1E+10	1	-1E+10	1	-1E+10	1
4902549	96	C	04/10/2023	08:01	-133.368	47.599	0	342.70	0	4.5300	0	33.8650	0	26.830	0	339.555	0	70.7	4	22.6	4	-1E+10	1	-1E+10	1	-1E+10	1	-1E+10	1	-1E+10	1	-1E+10	1
4902549	96	C	04/10/2023	08:01	-133.368	47.599	0	343.60	0	4.5290	0	33.8650	0	26.831	0	340.446	0	70.4	4	22.5	4	-1E+10	1	-1E+10	1	-1E+10	1	-1E+10	1	-1E+10	1	-1E+10	1
4902549	96	C	04/10/2023	08:01	-133.368	47.599	0	344.90	0	4.5280	0	33.8650	0	26.831	0	341.733	0	69.9	4	22.3	4	-1E+10	1	-1E+10	1	-1E+10	1	-1E+10	1	-1E+10	1	-1E+10	1
4902549	96	C	04/10/2023	08:01	-133.368	47.599	0	346.30	0	4.5260	0	33.8650	0	26.831	0	343.119	0	69.4	4	22.1	4	-1E+10	1	-1E+10	1	-1E+10	1	-1E+10	1	-1E+10	1	-1E+10	1
4902549	96	C	04/10/2023	08:01	-133.368	47.599	0	347.20	0	4.5200	0	33.8660	0	26.832	0	344.010	0	69.0	4	22.0	4	-1E+10	1	-1E+10	1	-1E+10	1	-1E+10	1	-1E+10	1	-1E+10	1
4902549	96	C	04/10/2023	08:01	-133.368	47.599	0	348.10	0	4.5160	0	33.8670	0	26.834	0	344.901	0	68.7	4	21.9	4	-1E+10	1	-1E+10	1	-1E+10	1	-1E+10	1	-1E+10	1	-1E+10	1
4902549	96	C	04/10/2023	08:01	-133.368	47.599	0	349.00	0	4.5140	0	33.8680	0	26.835	0	345.792	0	68.3	4	21.8	4	-1E+10	1	-1E+10	1	-1E+10	1	-1E+10	1	-1E+10	1	-1E+10	1
4902549	96	C	04/10/2023	08:01	-133.368	47.599	0	349.90	0	4.5080	0	33.8690	0	26.836	0	346.683	0	67.9	4	21.6	4	-1E+10	1	-1E+10	1	-1E+10	1	-1E+10	1	-1E+10	1	-1E+10	1
4902549	96	C	04/10/2023	08:01	-133.368	47.599	0	352.60	0	4.4940	0	33.8720	0	26.840	0	349.356	0	66.7	4	21.3	4	-1E+10	1	-1E+10	1	-1E+10	1	-1E+10	1	-1E+10	1	-1E+10	1
4902549	96	C	04/10/2023	08:01	-133.368	47.599	0	357.80	0	4.4720	0	33.8780	0	26.847	0	354.504	0	64.5	4	20.6	4	-1E+10	1	-1E+10	1	-1E+10	1	-1E+10	1	-1E+10	1	-1E+10	1
4902549	96	C	04/10/2023	08:01	-133.368	47.599	0	363.10	0	4.4480	0	33.8900	0	26.859	0	359.750	0	62.1	4	19.8	4	-1E+10	1	-1E+10	1	-1E+10	1	-1E+10	1	-1E+10	1	-1E+10	1
4902549	96	C	04/10/2023	08:01	-133.368	47.599	0	368.10	0	4.4200	0	33.9010	0	26.871	0	364.700	0	60.9	4	19.4	4	-1E+10	1	-1E+10	1	-1E+10	1	-1E+10	1	-1E+10	1	-1E+10	1
4902549	96	C	04/10/2023	08:01	-133.368	47.599	0	373.30	0	4.4060	0	33.9050	0	26.876	0	369.847	0	60.0	4	19.1	4	-1E+10	1	-1E+10	1	-1E+10	1	-1E+10	1	-1E+10	1	-1E+10	1
4902549	96	C	04/10/2023	08:01	-133.368	47.599	0	377.90	0	4.3960	0	33.9070	0	26.878	0	374.400	0	59.2	4	18.8	4	-1E+10	1	-1E+10	1	-1E+10	1	-1E+10	1	-1E+10	1	-1E+10	1
4902549	96	C	04/10/2023	08:01	-133.368	47.599	0	382.60	0	4.3870	0	33.9110	0	26.883	0	379.053	0	58.3	4	18.5	4	-1E+10	1	-1E+10	1	-1E+10	1	-1E+10	1	-1E+10	1	-1E+10	1
4902549	96	C	04/10/2023	08:01	-133.368	47.599	0	387.90	0	4.3780	0	33.9160	0	26.888	0	384.299	0	57.3	4	18.2	4	-1E+10	1	-1E+10	1	-1E+10	1	-1E+10	1	-1E+10	1	-1E+10	1
4902549	96	C	04/10/2023	08:01	-133.368	47.599	0	393.20	0	4.3730	0	33.9190	0	26.891	0	389.544	0	56.1	4	17.8	4	-1E+10	1	-1E+10	1	-1E+10	1	-1E+10	1	-1E+10	1	-1E+10	1
4902549	96	C	04/10/2023	08:01	-133.368	47.599	0	398.00	0	4.3820	0	33.9250	0	26.894	0	394.295	0	55.1	4	17.5	4	-1E+10	1	-1E+10	1	-1E+10	1	-1E+10	1	-1E+10	1	-1E+10	1
4902549	96	C	04/10/2023	08:01	-133.368	47.599	0	403.00	0	4.3750	0	33.9310	0	26.900	0	399.244	0	54.4	4	17.3	4	-1E+10	1	-1E+10	1	-1E+10	1	-1E+10	1	-1E+10	1	-1E+10	1
4902549	96	C	04/10/2023	08:01	-133.368	47.599	0	408.10	0	4.3700	0	33.9340	0	26.903	0	404.291	0	53.4	4	17.0	4	-1E+10	1	-1E+10	1	-1E+10	1	-1E+10	1	-1E+10	1	-1E+10	1
4902549	96	C	04/10/2023	08:01	-133.368	47.599	0	412.90	0	4.3700	0	33.9410	0	26.908	0	409.042	0	52.5	4	16.7	4	-1E+10	1	-1E+10	1	-1E+10	1	-1E+10	1	-1E+10	1	-1E+10	1
4902549	96	C	04/10/2023	08:01	-133.368	47.599	0	417.70	0	4.3440	0	33.9430	0	26.913	0	413.792	0	51.7	4	16.4	4	-1E+10	1	-1E+10	1	-1E+10	1	-1E+10	1	-1E+10	1	-1E+10	1
4902549	96	C	04/10/2023	08:01	-133.368	47.599	0	422.60	0	4.3200	0	33.9450	0	26.917	0	418.641	0	50.7	4	16.1	4	-1E+10	1	-1E+10	1	-1E+10	1	-1E+10	1	-1E+10	1	-1E+10	1
4902549	96	C	04/10/2023	08:01	-133.368	47.599	0	427.90	0	4.3100	0	33.9510	0	26.923	0	423.886	0	49.6	4	15.7	4	-1E+10	1	-1E+10	1	-1E+10	1	-1E+10	1	-1E+10	1	-1E+10	1
4902549	96	C	04/10/2023	08:01	-133.368	47.599	0	433.20	0	4.2880	0	33.9560	0	26.929	0	429.131	0	48.5	4	15.4	4	-1E+10	1	-1E+10	1	-1E+10	1	-1E+10	1	-1E+10	1	-1E+10	1
4902549	96	C	04/10/2023	08:01	-133.368	47.599	0	438.10	0	4.2780	0	33.9620	0	26.935	0	433.980	0	47.4	4	15.0	4	-1E+10	1	-1E+10	1	-1E+10	1	-1E+10	1	-1E+10	1	-1E+10	1
4902549	96	C	04/10/2023	08:01	-133.368	47.599	0	443.00	0	4.2720	0	33.9700	0	26.942	0	438.829	0	46.2	4	14.6	4	-1E+10	1	-1E+10	1	-1E+10	1	-1E+10	1	-1E+10	1	-1E+10	1
4902549	96	C	04/10/2023	08:01	-133.368	47.599	0	448.00	0	4.2610	0	33.9760	0	26.948	0	443.776	0	44.9	4	14.3	4	-1E+10	1	-1E+10	1	-1E+10	1	-1E+10	1	-1E+10	1	-1E+10	1
4902549	96	C	04/10/2023	08:01	-133.368	47.599	0	453.00	0	4.2450	0	33.9850	0	26.957	0	448.724	0	43.5	4	13.8	4	-1E+10	1	-1E+10	1	-1E+10	1	-1E+10	1	-1E+10	1	-1E+10	1
4902549	96	C	04/10/2023	08:01	-133.368	47.599	0	458.00	0	4.2360	0	33.9940	0	26.965	0	453.671	0	42.7	4	13.5	4	-1E+10	1	-1E+10	1	-1E+10	1	-1E+10	1	-1E+10	1	-1E+10	1
4902549	96	C	04/10/2023	08:01	-133.368	47.599	0	463.20	0	4.2270	0	33.9980	0	26.969	0	458.816	0	41.8	4	13.2	4	-1E+10	1	-1E+10	1	-1E+10	1	-1E+10	1	-1E+10	1	-1E+10	1
4902549	96	C	04/10/2023	08:01	-133.368	47.599	0	467.90	0	4.2170	0	34.0020	0	26.973	0	463.466	0	40.6	4	12.9	4	-1E+10	1	-1E+10	1	-1E+10	1	-1E+10	1	-1E+10	1	-1E+10	1
4902549	96	C	04/10/2023	08:01	-133.368	47.599	0	472.70	0	4.2040	0	34.0110	0	26.982	0	468.216	0	39.6	4	12.5	4	-1E+10	1	-1E+10	1	-1E+10	1	-1E+10	1	-1E+10	1	-1E+10	1
4902549	96	C	04/10/2023	08:01	-133.368	47.599	0	478.10	0	4.1960	0	34.0170	0	26.988	0	473.558	0	38.4	4	12.2	4	-1E+10	1	-1E+10	1	-1E+10	1	-1E+10	1	-1E+10	1	-1E+10	1
4902549	96	C	04/10/2023	08:01	-133.368	47.599	0	483.10	0	4.1830	0	34.0260	0	26.996	0	478.505	0	37.4	4	11.9	4	-1E+10	1	-1E+10	1	-1E+10	1	-1E+10	1	-1E+10	1	-1E+10	1
4902549	96	C	04/10/2023	08:01	-133.368	47.599	0	487.70	0	4.1770	0	34.0300	0	27.000	0	483.056	0	36.8	4	11.6	4	-1E+10	1	-1E+10	1	-1E+10	1	-1E+10	1	-1E+10	1	-1E+10	1
4902549	96	C	04/10/2023	08:01	-133.368	47.599	0	492.80	0	4.1710	0	34.0340	0	27.004	0	488.101	0	35.9	4	11.4	4	-1E+10	1	-1E+10	1	-1E+10	1	-1E+10	1	-1E+10	1	-1E+10	1
4902549	96	C	04/10/2023	08:01	-133.368	47.599	0	497.90	0	4.1620	0	34.0390	0	27.009	0	493.147	0	34.9	4	11.1	4	-1E+10	1	-1E+10	1	-1E+10	1	-1E+10	1	-1E+10	1	-1E+10	1
4902549	96	C	04/10/2023	08:01	-133.368	47.599	0	503.00	0	4.1530	0	34.0450	0	27.015	0	498.192	0	34.2	4	10.8	4	-1E+10	1	-1E+10	1	-1E+10	1	-1E+10	1	-1E+10	1	-1E+10	1
4902549	96	C	04/10/2023	08:01	-133.368	47.599	0	508.20	0	4.1440	0	34.0480	0	27.018	0	503.336	0	33.4	4	10.6	4	-1E+10	1	-1E+10	1	-1E+10	1	-1E+10	1	-1E+10	1	-1E+10	1
4902549	96	C	04/10/2023	08:01	-133.368	47.599	0	513.10	0	4.1350	0	34.0520	0	27.022	0	508.183	0	32.7	4	10.3	4	-1E+10	1	-1E+10	1	-1E+10	1	-1E+10	1	-1E+10	1	-1E+10	1
4902549	96	C	04/10/2023	08:01	-133.368	47.599	0	517.90	0	4.1260	0	34.0570	0	27.027	0	512.931	0	32.0	4	10.1	4	-1E+10	1	-1E+10	1	-1E+10	1	-1E+10	1	-1E+10	1	-1E+10	1
4902549	96	C	04/10/2023	08:01	-133.368	47.599	0	522.80	0	4.1200	0	34.0620	0	27.032	0	517.778	0	31.2	4	9.9	4	-1E+10	1	-1E+10	1	-1E+10	1	-1E+10	1	-1E+10	1	-1E+10	1
4902549	96	C	04/10/2023	08:01	-133.368	47.599	0	527.70	0	4.1100	0	34.0680	0	27.037	0	522.625	0	30.7	4	9.7	4	-1E+10	1	-1E+10	1	-1E+10	1	-1E+10	1	-1E+10	1	-1E+10	1
4902549	96	C	04/10/2023	08:01	-133.368	47.599	0	532.70	0	4.1050	0	34.0690	0	27.039	0	527.570	0	30.1	4	9.5	4	-1E+10	1	-1E+10	1	-1E+10	1	-1E+10	1	-1E+10	1	-1E+10	1
4902549	96	C	04/10/2023	08:01	-133.368	47.599	0	537.60	0	4.0980	0	34.0720	0	27.042	0	532.417	0	29.2	4	9.2	4	-1E+10	1	-1E+10	1	-1E+10	1	-1E+10	1	-1E+10	1	-1E+10	1
4902549	96	C	04/10/2023	08:01	-133.368	47.599	0	542.60	0	4.0740	0	34.0830	0	27.053	0	537.362	0	28.3	4	8.9	4	-1E+10	1	-1E+10	1	-1E+10	1	-1E+10	1	-1E+10	1	-1E+10	1
4902549	96	C	04/10/2023	08:01	-133.368	47.599	0	547.50	0	4.0670	0	34.0860	0	27.056	0	542.208	0	27.4	4	8.7	4	-1E+10	1	-1E+10	1	-1E+10	1	-1E+10	1	-1E+10	1	-1E+10	1
4902549	96	C	04/10/2023	08:01	-133.368	47.599	0	552.50	0	4.0550	0	34.0930	0	27.063	0	547.154	0	26.4	4	8.3	4	-1E+10	1	-1E+10	1	-1E+10	1	-1E+10	1	-1E+10	1	-1E+10	1
4902549	96	C	04/10/2023	08:01	-133.368	47.599	0	557.50	0	4.0510	0	34.0990	0	27.068	0	552.099	0	25.1	4	7.9	4	-1E+10	1	-1E+10	1	-1E+10	1	-1E+10	1	-1E+10	1	-1E+10	1
4902549	96	C	04/10/2023	08:01	-133.368	47.599	0	562.50	0	4.0560	0	34.1060	0	27.073	0	557.043	0	23.8	4	7.5	4	-1E+10	1	-1E+10	1	-1E+10	1	-1E+10	1	-1E+10	1	-1E+10	1
4902549	96	C	04/10/2023	08:01	-133.368	47.599	0	567.60	0	4.0660	0	34.1130	0	27.078	0	562.087	0	22.8	4	7.2	4	-1E+10	1	-1E+10	1	-1E+10	1	-1E+10	1	-1E+10	1	-1E+10	1
4902549	96	C	04/10/2023	08:01	-133.368	47.599	0	572.50	0	4.0520	0	34.1170	0	27.083	0	566.933	0	22.2	4	7.0	4	-1E+10	1	-1E+10	1	-1E+10	1	-1E+10	1	-1E+10	1	-1E+10	1
4902549	96	C	04/10/2023	08:01	-133.368	47.599	0	577.50	0	4.0360	0	34.1200	0	27.087	0	571.877	0	21.2	4	6.7	4	-1E+10	1	-1E+10	1	-1E+10	1	-1E+10	1	-1E+10	1	-1E+10	1
4902549	96	C	04/10/2023	08:01	-133.368	47.599	0	582.50	0	4.0340	0	34.1230	0	27.089	0	576.822	0	19.3	4	6.1	4	-1E+10	1	-1E+10	1	-1E+10	1	-1E+10	1	-1E+10	1	-1E+10	1
4902549	96	C	04/10/2023	08:01	-133.368	47.599	0	587.50	0	4.0820	0	34.1380	0	27.096	0	581.766	0	18.2	4	5.7	4	-1E+10	1	-1E+10	1	-1E+10	1	-1E+10	1	-1E+10	1	-1E+10	1
4902549	96	C	04/10/2023	08:01	-133.368	47.599	0	592.50	0	4.0750	0	34.1420	0	27.100	0	586.710	0	17.8	4	5.6	4	-1E+10	1	-1E+10	1	-1E+10	1	-1E+10	1	-1E+10	1	-1E+10	1
4902549	96	C	04/10/2023	08:01	-133.368	47.599	0	597.60	0	4.0700	0	34.1460	0	27.104	0	591.753	0	17.5	4	5.5	4	-1E+10	1	-1E+10	1	-1E+10	1	-1E+10	1	-1E+10	1	-1E+10	1
4902549	96	C	04/10/2023	08:01	-133.368	47.599	0	602.70	0	4.0500	0	34.1500	0	27.109	0	596.796	0	17.3	4	5.5	4	-1E+10	1	-1E+10	1	-1E+10	1	-1E+10	1	-1E+10	1	-1E+10	1
4902549	96	C	04/10/2023	08:01	-133.368	47.599	0	607.80	0	4.0510	0	34.1530	0	27.112	0	601.838	0	17.5	4	5.5	4	-1E+10	1	-1E+10	1	-1E+10	1	-1E+10	1	-1E+10	1	-1E+10	1
4902549	96	C	04/10/2023	08:01	-133.368	47.599	0	613.00	0	4.0090	0	34.1530	0	27.116	0	606.980	0	18.4	4	5.8	4	-1E+10	1	-1E+10	1	-1E+10	1	-1E+10	1	-1E+10	1	-1E+10	1
4902549	96	C	04/10/2023	08:01	-133.368	47.599	0	618.20	0	3.9580	0	34.1520	0	27.120	0	612.121	0	18.4	4	5.8	4	-1E+10	1	-1E+10	1	-1E+10	1	-1E+10	1	-1E+10	1	-1E+10	1
4902549	96	C	04/10/2023	08:01	-133.368	47.599	0	623.40	0	3.9470	0	34.1540	0	27.123	0	617.262	0	17.8	4	5.6	4	-1E+10	1	-1E+10	1	-1E+10	1	-1E+10	1	-1E+10	1	-1E+10	1
4902549	96	C	04/10/2023	08:01	-133.368	47.599	0	628.10	0	3.9440	0	34.1590	0	27.128	0	621.909	0	17.1	4	5.4	4	-1E+10	1	-1E+10	1	-1E+10	1	-1E+10	1	-1E+10	1	-1E+10	1
4902549	96	C	04/10/2023	08:01	-133.368	47.599	0	632.80	0	3.9430	0	34.1630	0	27.131	0	626.556	0	16.4	4	5.2	4	-1E+10	1	-1E+10	1	-1E+10	1	-1E+10	1	-1E+10	1	-1E+10	1
4902549	96	C	04/10/2023	08:01	-133.368	47.599	0	638.00	0	3.9420	0	34.1670	0	27.134	0	631.696	0	15.7	4	5.0	4	-1E+10	1	-1E+10	1	-1E+10	1	-1E+10	1	-1E+10	1	-1E+10	1
4902549	96	C	04/10/2023	08:01	-133.368	47.599	0	643.00	0	3.9470	0	34.1690	0	27.135	0	636.639	0	14.7	4	4.6	4	-1E+10	1	-1E+10	1	-1E+10	1	-1E+10	1	-1E+10	1	-1E+10	1
4902549	96	C	04/10/2023	08:01	-133.368	47.599	0	648.00	0	3.9660	0	34.1750	0	27.138	0	641.582	0	13.2	4	4.2	4	-1E+10	1	-1E+10	1	-1E+10	1	-1E+10	1	-1E+10	1	-1E+10	1
4902549	96	C	04/10/2023	08:01	-133.368	47.599	0	653.10	0	3.9880	0	34.1830	0	27.142	0	646.624	0	12.2	4	3.9	4	-1E+10	1	-1E+10	1	-1E+10	1	-1E+10	1	-1E+10	1	-1E+10	1
4902549	96	C	04/10/2023	08:01	-133.368	47.599	0	658.20	0	3.9940	0	34.1890	0	27.147	0	651.665	0	11.6	4	3.7	4	-1E+10	1	-1E+10	1	-1E+10	1	-1E+10	1	-1E+10	1	-1E+10	1
4902549	96	C	04/10/2023	08:01	-133.368	47.599	0	662.90	0	3.9810	0	34.1940	0	27.152	0	656.311	0	11.3	4	3.6	4	-1E+10	1	-1E+10	1	-1E+10	1	-1E+10	1	-1E+10	1	-1E+10	1
4902549	96	C	04/10/2023	08:01	-133.368	47.599	0	667.70	0	3.9610	0	34.1950	0	27.155	0	661.056	0	11.2	4	3.5	4	-1E+10	1	-1E+10	1	-1E+10	1	-1E+10	1	-1E+10	1	-1E+10	1
4902549	96	C	04/10/2023	08:01	-133.368	47.599	0	672.90	0	3.9460	0	34.1980	0	27.159	0	666.196	0	11.0	4	3.5	4	-1E+10	1	-1E+10	1	-1E+10	1	-1E+10	1	-1E+10	1	-1E+10	1
4902549	96	C	04/10/2023	08:01	-133.368	47.599	0	677.80	0	3.9270	0	34.1990	0	27.161	0	671.039	0	10.8	4	3.4	4	-1E+10	1	-1E+10	1	-1E+10	1	-1E+10	1	-1E+10	1	-1E+10	1
4902549	96	C	04/10/2023	08:01	-133.368	47.599	0	682.70	0	3.9090	0	34.2050	0	27.168	0	675.882	0	10.5	4	3.3	4	-1E+10	1	-1E+10	1	-1E+10	1	-1E+10	1	-1E+10	1	-1E+10	1
4902549	96	C	04/10/2023	08:01	-133.368	47.599	0	688.20	0	3.8990	0	34.2090	0	27.172	0	681.318	0	10.3	4	3.3	4	-1E+10	1	-1E+10	1	-1E+10	1	-1E+10	1	-1E+10	1	-1E+10	1
4902549	96	C	04/10/2023	08:01	-133.368	47.599	0	693.10	0	3.8880	0	34.2110	0	27.175	0	686.161	0	10.2	4	3.2	4	-1E+10	1	-1E+10	1	-1E+10	1	-1E+10	1	-1E+10	1	-1E+10	1
4902549	96	C	04/10/2023	08:01	-133.368	47.599	0	698.00	0	3.8820	0	34.2140	0	27.178	0	691.004	0	9.9	4	3.1	4	-1E+10	1	-1E+10	1	-1E+10	1	-1E+10	1	-1E+10	1	-1E+10	1
4902549	96	C	04/10/2023	08:01	-133.368	47.599	0	702.90	0	3.8720	0	34.2180	0	27.182	0	695.847	0	9.7	4	3.0	4	-1E+10	1	-1E+10	1	-1E+10	1	-1E+10	1	-1E+10	1	-1E+10	1
4902549	96	C	04/10/2023	08:01	-133.368	47.599	0	707.90	0	3.8580	0	34.2220	0	27.187	0	700.788	0	9.4	4	3.0	4	-1E+10	1	-1E+10	1	-1E+10	1	-1E+10	1	-1E+10	1	-1E+10	1
4902549	96	C	04/10/2023	08:01	-133.368	47.599	0	712.90	0	3.8450	0	34.2270	0	27.192	0	705.730	0	9.3	4	2.9	4	-1E+10	1	-1E+10	1	-1E+10	1	-1E+10	1	-1E+10	1	-1E+10	1
4902549	96	C	04/10/2023	08:01	-133.368	47.599	0	718.00	0	3.8170	0	34.2290	0	27.197	0	710.770	0	9.2	4	2.9	4	-1E+10	1	-1E+10	1	-1E+10	1	-1E+10	1	-1E+10	1	-1E+10	1
4902549	96	C	04/10/2023	08:01	-133.368	47.599	0	723.30	0	3.7850	0	34.2330	0	27.203	0	716.007	0	9.1	4	2.8	4	-1E+10	1	-1E+10	1	-1E+10	1	-1E+10	1	-1E+10	1	-1E+10	1
4902549	96	C	04/10/2023	08:01	-133.368	47.599	0	728.10	0	3.7700	0	34.2350	0	27.206	0	720.751	0	8.9	4	2.8	4	-1E+10	1	-1E+10	1	-1E+10	1	-1E+10	1	-1E+10	1	-1E+10	1
4902549	96	C	04/10/2023	08:01	-133.368	47.599	0	733.10	0	3.7580	0	34.2380	0	27.210	0	725.691	0	8.7	4	2.7	4	-1E+10	1	-1E+10	1	-1E+10	1	-1E+10	1	-1E+10	1	-1E+10	1
4902549	96	C	04/10/2023	08:01	-133.368	47.599	0	738.10	0	3.7420	0	34.2400	0	27.213	0	730.632	0	8.5	4	2.7	4	-1E+10	1	-1E+10	1	-1E+10	1	-1E+10	1	-1E+10	1	-1E+10	1
4902549	96	C	04/10/2023	08:01	-133.368	47.599	0	743.10	0	3.7260	0	34.2450	0	27.219	0	735.573	0	8.2	4	2.6	4	-1E+10	1	-1E+10	1	-1E+10	1	-1E+10	1	-1E+10	1	-1E+10	1
4902549	96	C	04/10/2023	08:01	-133.368	47.599	0	748.30	0	3.7140	0	34.2500	0	27.224	0	740.711	0	8.1	4	2.5	4	-1E+10	1	-1E+10	1	-1E+10	1	-1E+10	1	-1E+10	1	-1E+10	1
4902549	96	C	04/10/2023	08:01	-133.368	47.599	0	752.90	0	3.7030	0	34.2510	0	27.226	0	745.256	0	8.0	4	2.5	4	-1E+10	1	-1E+10	1	-1E+10	1	-1E+10	1	-1E+10	1	-1E+10	1
4902549	96	C	04/10/2023	08:01	-133.368	47.599	0	757.60	0	3.6990	0	34.2520	0	27.227	0	749.900	0	7.9	4	2.5	4	-1E+10	1	-1E+10	1	-1E+10	1	-1E+10	1	-1E+10	1	-1E+10	1
4902549	96	C	04/10/2023	08:01	-133.368	47.599	0	762.90	0	3.6850	0	34.2560	0	27.232	0	755.136	0	7.7	4	2.4	4	-1E+10	1	-1E+10	1	-1E+10	1	-1E+10	1	-1E+10	1	-1E+10	1
4902549	96	C	04/10/2023	08:01	-133.368	47.599	0	768.20	0	3.6730	0	34.2590	0	27.235	0	760.373	0	7.6	4	2.4	4	-1E+10	1	-1E+10	1	-1E+10	1	-1E+10	1	-1E+10	1	-1E+10	1
4902549	96	C	04/10/2023	08:01	-133.368	47.599	0	773.10	0	3.6640	0	34.2610	0	27.238	0	765.214	0	7.4	4	2.3	4	-1E+10	1	-1E+10	1	-1E+10	1	-1E+10	1	-1E+10	1	-1E+10	1
4902549	96	C	04/10/2023	08:01	-133.368	47.599	0	778.00	0	3.6470	0	34.2670	0	27.244	0	770.055	0	7.2	4	2.3	4	-1E+10	1	-1E+10	1	-1E+10	1	-1E+10	1	-1E+10	1	-1E+10	1
4902549	96	C	04/10/2023	08:01	-133.368	47.599	0	782.90	0	3.6390	0	34.2700	0	27.247	0	774.896	0	7.1	4	2.2	4	-1E+10	1	-1E+10	1	-1E+10	1	-1E+10	1	-1E+10	1	-1E+10	1
4902549	96	C	04/10/2023	08:01	-133.368	47.599	0	787.80	0	3.6340	0	34.2730	0	27.250	0	779.736	0	7.1	4	2.2	4	-1E+10	1	-1E+10	1	-1E+10	1	-1E+10	1	-1E+10	1	-1E+10	1
4902549	96	C	04/10/2023	08:01	-133.368	47.599	0	792.70	0	3.6260	0	34.2750	0	27.253	0	784.577	0	7.1	4	2.2	4	-1E+10	1	-1E+10	1	-1E+10	1	-1E+10	1	-1E+10	1	-1E+10	1
4902549	96	C	04/10/2023	08:01	-133.368	47.599	0	797.70	0	3.6130	0	34.2770	0	27.256	0	789.516	0	6.9	4	2.2	4	-1E+10	1	-1E+10	1	-1E+10	1	-1E+10	1	-1E+10	1	-1E+10	1
4902549	96	C	04/10/2023	08:01	-133.368	47.599	0	803.10	0	3.6110	0	34.2820	0	27.260	0	794.851	0	6.7	4	2.1	4	-1E+10	1	-1E+10	1	-1E+10	1	-1E+10	1	-1E+10	1	-1E+10	1
4902549	96	C	04/10/2023	08:01	-133.368	47.599	0	808.00	0	3.6040	0	34.2850	0	27.263	0	799.691	0	6.7	4	2.1	4	-1E+10	1	-1E+10	1	-1E+10	1	-1E+10	1	-1E+10	1	-1E+10	1
4902549	96	C	04/10/2023	08:01	-133.368	47.599	0	812.80	0	3.5910	0	34.2880	0	27.267	0	804.432	0	6.7	4	2.1	4	-1E+10	1	-1E+10	1	-1E+10	1	-1E+10	1	-1E+10	1	-1E+10	1
4902549	96	C	04/10/2023	08:01	-133.368	47.599	0	818.10	0	3.5700	0	34.2920	0	27.272	0	809.668	0	6.7	4	2.1	4	-1E+10	1	-1E+10	1	-1E+10	1	-1E+10	1	-1E+10	1	-1E+10	1
4902549	96	C	04/10/2023	08:01	-133.368	47.599	0	822.90	0	3.5610	0	34.2940	0	27.274	0	814.409	0	6.8	4	2.1	4	-1E+10	1	-1E+10	1	-1E+10	1	-1E+10	1	-1E+10	1	-1E+10	1
4902549	96	C	04/10/2023	08:01	-133.368	47.599	0	827.70	0	3.5450	0	34.2980	0	27.279	0	819.150	0	6.9	4	2.1	4	-1E+10	1	-1E+10	1	-1E+10	1	-1E+10	1	-1E+10	1	-1E+10	1
4902549	96	C	04/10/2023	08:01	-133.368	47.599	0	833.00	0	3.5270	0	34.3020	0	27.284	0	824.385	0	6.8	4	2.1	4	-1E+10	1	-1E+10	1	-1E+10	1	-1E+10	1	-1E+10	1	-1E+10	1
4902549	96	C	04/10/2023	08:01	-133.368	47.599	0	837.80	0	3.5130	0	34.3050	0	27.288	0	829.125	0	6.7	4	2.1	4	-1E+10	1	-1E+10	1	-1E+10	1	-1E+10	1	-1E+10	1	-1E+10	1
4902549	96	C	04/10/2023	08:01	-133.368	47.599	0	842.60	0	3.5090	0	34.3070	0	27.290	0	833.866	0	6.5	4	2.0	4	-1E+10	1	-1E+10	1	-1E+10	1	-1E+10	1	-1E+10	1	-1E+10	1
4902549	96	C	04/10/2023	08:01	-133.368	47.599	0	847.90	0	3.5470	0	34.3180	0	27.295	0	839.101	0	6.3	4	2.0	4	-1E+10	1	-1E+10	1	-1E+10	1	-1E+10	1	-1E+10	1	-1E+10	1
4902549	96	C	04/10/2023	08:01	-133.368	47.599	0	853.20	0	3.5420	0	34.3200	0	27.297	0	844.335	0	6.3	4	2.0	4	-1E+10	1	-1E+10	1	-1E+10	1	-1E+10	1	-1E+10	1	-1E+10	1
4902549	96	C	04/10/2023	08:01	-133.368	47.599	0	857.90	0	3.5250	0	34.3230	0	27.301	0	848.977	0	6.3	4	2.0	4	-1E+10	1	-1E+10	1	-1E+10	1	-1E+10	1	-1E+10	1	-1E+10	1
4902549	96	C	04/10/2023	08:01	-133.368	47.599	0	862.60	0	3.5090	0	34.3240	0	27.304	0	853.618	0	6.4	4	2.0	4	-1E+10	1	-1E+10	1	-1E+10	1	-1E+10	1	-1E+10	1	-1E+10	1
4902549	96	C	04/10/2023	08:01	-133.368	47.599	0	867.80	0	3.4820	0	34.3260	0	27.308	0	858.753	0	6.4	4	2.0	4	-1E+10	1	-1E+10	1	-1E+10	1	-1E+10	1	-1E+10	1	-1E+10	1
4902549	96	C	04/10/2023	08:01	-133.368	47.599	0	873.00	0	3.4640	0	34.3290	0	27.312	0	863.888	0	6.5	4	2.0	4	-1E+10	1	-1E+10	1	-1E+10	1	-1E+10	1	-1E+10	1	-1E+10	1
4902549	96	C	04/10/2023	08:01	-133.368	47.599	0	878.30	0	3.4530	0	34.3300	0	27.314	0	869.122	0	6.6	4	2.1	4	-1E+10	1	-1E+10	1	-1E+10	1	-1E+10	1	-1E+10	1	-1E+10	1
4902549	96	C	04/10/2023	08:01	-133.368	47.599	0	883.40	0	3.4170	0	34.3290	0	27.316	0	874.158	0	6.7	4	2.1	4	-1E+10	1	-1E+10	1	-1E+10	1	-1E+10	1	-1E+10	1	-1E+10	1
4902549	96	C	04/10/2023	08:01	-133.368	47.599	0	888.10	0	3.3860	0	34.3300	0	27.320	0	878.799	0	6.7	4	2.1	4	-1E+10	1	-1E+10	1	-1E+10	1	-1E+10	1	-1E+10	1	-1E+10	1
4902549	96	C	04/10/2023	08:01	-133.368	47.599	0	892.90	0	3.3810	0	34.3330	0	27.323	0	883.539	0	6.6	4	2.1	4	-1E+10	1	-1E+10	1	-1E+10	1	-1E+10	1	-1E+10	1	-1E+10	1
4902549	96	C	04/10/2023	08:01	-133.368	47.599	0	897.70	0	3.3740	0	34.3360	0	27.326	0	888.278	0	6.6	4	2.0	4	-1E+10	1	-1E+10	1	-1E+10	1	-1E+10	1	-1E+10	1	-1E+10	1
4902549	96	C	04/10/2023	08:01	-133.368	47.599	0	902.50	0	3.3590	0	34.3380	0	27.329	0	893.018	0	6.5	4	2.0	4	-1E+10	1	-1E+10	1	-1E+10	1	-1E+10	1	-1E+10	1	-1E+10	1
4902549	96	C	04/10/2023	08:01	-133.368	47.599	0	907.90	0	3.3540	0	34.3430	0	27.334	0	898.349	0	6.4	4	2.0	4	-1E+10	1	-1E+10	1	-1E+10	1	-1E+10	1	-1E+10	1	-1E+10	1
4902549	96	C	04/10/2023	08:01	-133.368	47.599	0	912.90	0	3.3540	0	34.3490	0	27.339	0	903.286	0	6.3	4	2.0	4	-1E+10	1	-1E+10	1	-1E+10	1	-1E+10	1	-1E+10	1	-1E+10	1
4902549	96	C	04/10/2023	08:01	-133.368	47.599	0	917.60	0	3.3550	0	34.3550	0	27.343	0	907.926	0	6.3	4	2.0	4	-1E+10	1	-1E+10	1	-1E+10	1	-1E+10	1	-1E+10	1	-1E+10	1
4902549	96	C	04/10/2023	08:01	-133.368	47.599	0	922.90	0	3.3410	0	34.3570	0	27.346	0	913.159	0	6.3	4	2.0	4	-1E+10	1	-1E+10	1	-1E+10	1	-1E+10	1	-1E+10	1	-1E+10	1
4902549	96	C	04/10/2023	08:01	-133.368	47.599	0	927.80	0	3.3420	0	34.3600	0	27.349	0	917.996	0	6.3	4	2.0	4	-1E+10	1	-1E+10	1	-1E+10	1	-1E+10	1	-1E+10	1	-1E+10	1
4902549	96	C	04/10/2023	08:01	-133.368	47.599	0	932.80	0	3.3340	0	34.3630	0	27.352	0	922.932	0	6.3	4	2.0	4	-1E+10	1	-1E+10	1	-1E+10	1	-1E+10	1	-1E+10	1	-1E+10	1
4902549	96	C	04/10/2023	08:01	-133.368	47.599	0	938.00	0	3.3250	0	34.3660	0	27.355	0	928.066	0	6.3	4	2.0	4	-1E+10	1	-1E+10	1	-1E+10	1	-1E+10	1	-1E+10	1	-1E+10	1
4902549	96	C	04/10/2023	08:01	-133.368	47.599	0	942.80	0	3.3180	0	34.3680	0	27.357	0	932.804	0	6.4	4	2.0	4	-1E+10	1	-1E+10	1	-1E+10	1	-1E+10	1	-1E+10	1	-1E+10	1
4902549	96	C	04/10/2023	08:01	-133.368	47.599	0	947.80	0	3.3120	0	34.3700	0	27.359	0	937.740	0	6.4	4	2.0	4	-1E+10	1	-1E+10	1	-1E+10	1	-1E+10	1	-1E+10	1	-1E+10	1
4902549	96	C	04/10/2023	08:01	-133.368	47.599	0	952.80	0	3.2950	0	34.3750	0	27.365	0	942.676	0	6.4	4	2.0	4	-1E+10	1	-1E+10	1	-1E+10	1	-1E+10	1	-1E+10	1	-1E+10	1
4902549	96	C	04/10/2023	08:01	-133.368	47.599	0	957.80	0	3.2870	0	34.3760	0	27.367	0	947.611	0	6.5	4	2.0	4	-1E+10	1	-1E+10	1	-1E+10	1	-1E+10	1	-1E+10	1	-1E+10	1
4902549	96	C	04/10/2023	08:01	-133.368	47.599	0	962.80	0	3.2800	0	34.3760	0	27.367	0	952.547	0	6.5	4	2.0	4	-1E+10	1	-1E+10	1	-1E+10	1	-1E+10	1	-1E+10	1	-1E+10	1
4902549	96	C	04/10/2023	08:01	-133.368	47.599	0	967.90	0	3.2720	0	34.3770	0	27.369	0	957.581	0	6.6	4	2.0	4	-1E+10	1	-1E+10	1	-1E+10	1	-1E+10	1	-1E+10	1	-1E+10	1
4902549	96	C	04/10/2023	08:01	-133.368	47.599	0	972.70	0	3.2580	0	34.3800	0	27.373	0	962.319	0	6.6	4	2.1	4	-1E+10	1	-1E+10	1	-1E+10	1	-1E+10	1	-1E+10	1	-1E+10	1
4902549	96	C	04/10/2023	08:01	-133.368	47.599	0	977.60	0	3.2460	0	34.3830	0	27.376	0	967.155	0	6.7	4	2.1	4	-1E+10	1	-1E+10	1	-1E+10	1	-1E+10	1	-1E+10	1	-1E+10	1
4902549	96	C	04/10/2023	08:01	-133.368	47.599	0	982.60	0	3.2420	0	34.3840	0	27.377	0	972.090	0	6.7	4	2.1	4	-1E+10	1	-1E+10	1	-1E+10	1	-1E+10	1	-1E+10	1	-1E+10	1
4902549	96	C	04/10/2023	08:01	-133.368	47.599	0	987.60	0	3.2350	0	34.3860	0	27.380	0	977.025	0	6.7	4	2.1	4	-1E+10	1	-1E+10	1	-1E+10	1	-1E+10	1	-1E+10	1	-1E+10	1
4902549	96	C	04/10/2023	08:01	-133.368	47.599	0	992.70	0	3.2230	0	34.3880	0	27.382	0	982.058	0	6.8	4	2.1	4	-1E+10	1	-1E+10	1	-1E+10	1	-1E+10	1	-1E+10	1	-1E+10	1
4902549	96	C	04/10/2023	08:01	-133.368	47.599	0	997.90	0	3.2060	0	34.3900	0	27.386	0	987.190	0	6.8	4	2.1	4	-1E+10	1	-1E+10	1	-1E+10	1	-1E+10	1	-1E+10	1	-1E+10	1
4902549	96	C	04/10/2023	08:01	-133.368	47.599	0	1005.40	0	3.1990	0	34.3910	0	27.387	0	994.592	0	6.9	4	2.1	4	-1E+10	1	-1E+10	1	-1E+10	1	-1E+10	1	-1E+10	1	-1E+10	1
4902549	96	C	04/10/2023	08:01	-133.368	47.599	0	1015.30	0	3.1840	0	34.3930	0	27.390	0	1004.362	0	6.9	4	2.1	4	-1E+10	1	-1E+10	1	-1E+10	1	-1E+10	1	-1E+10	1	-1E+10	1
4902549	96	C	04/10/2023	08:01	-133.368	47.599	0	1025.30	0	3.1720	0	34.3950	0	27.393	0	1014.230	0	7.0	4	2.2	4	-1E+10	1	-1E+10	1	-1E+10	1	-1E+10	1	-1E+10	1	-1E+10	1
4902549	96	C	04/10/2023	08:01	-133.368	47.599	0	1035.20	0	3.1560	0	34.3990	0	27.398	0	1023.999	0	7.2	4	2.2	4	-1E+10	1	-1E+10	1	-1E+10	1	-1E+10	1	-1E+10	1	-1E+10	1
4902549	96	C	04/10/2023	08:01	-133.368	47.599	0	1045.10	0	3.1280	0	34.4010	0	27.402	0	1033.767	0	7.3	4	2.3	4	-1E+10	1	-1E+10	1	-1E+10	1	-1E+10	1	-1E+10	1	-1E+10	1
4902549	96	C	04/10/2023	08:01	-133.368	47.599	0	1055.40	0	3.1150	0	34.4040	0	27.406	0	1043.930	0	7.4	4	2.3	4	-1E+10	1	-1E+10	1	-1E+10	1	-1E+10	1	-1E+10	1	-1E+10	1
4902549	96	C	04/10/2023	08:01	-133.368	47.599	0	1065.50	0	3.0920	0	34.4080	0	27.411	0	1053.895	0	7.6	4	2.4	4	-1E+10	1	-1E+10	1	-1E+10	1	-1E+10	1	-1E+10	1	-1E+10	1
4902549	96	C	04/10/2023	08:01	-133.368	47.599	0	1075.20	0	3.0680	0	34.4120	0	27.416	0	1063.465	0	7.9	4	2.4	4	-1E+10	1	-1E+10	1	-1E+10	1	-1E+10	1	-1E+10	1	-1E+10	1
4902549	96	C	04/10/2023	08:01	-133.368	47.599	0	1085.10	0	3.0350	0	34.4170	0	27.423	0	1073.231	0	8.1	4	2.5	4	-1E+10	1	-1E+10	1	-1E+10	1	-1E+10	1	-1E+10	1	-1E+10	1
4902549	96	C	04/10/2023	08:01	-133.368	47.599	0	1095.10	0	3.0150	0	34.4220	0	27.429	0	1083.096	0	8.3	4	2.6	4	-1E+10	1	-1E+10	1	-1E+10	1	-1E+10	1	-1E+10	1	-1E+10	1
4902549	96	C	04/10/2023	08:01	-133.368	47.599	0	1105.40	0	3.0070	0	34.4240	0	27.432	0	1093.257	0	8.4	4	2.6	4	-1E+10	1	-1E+10	1	-1E+10	1	-1E+10	1	-1E+10	1	-1E+10	1
4902549	96	C	04/10/2023	08:01	-133.368	47.599	0	1115.50	0	2.9920	0	34.4280	0	27.436	0	1103.219	0	8.6	4	2.7	4	-1E+10	1	-1E+10	1	-1E+10	1	-1E+10	1	-1E+10	1	-1E+10	1
4902549	96	C	04/10/2023	08:01	-133.368	47.599	0	1125.60	0	2.9820	0	34.4300	0	27.439	0	1113.181	0	8.8	4	2.7	4	-1E+10	1	-1E+10	1	-1E+10	1	-1E+10	1	-1E+10	1	-1E+10	1
4902549	96	C	04/10/2023	08:01	-133.368	47.599	0	1135.70	0	2.9680	0	34.4310	0	27.441	0	1123.143	0	8.9	4	2.7	4	-1E+10	1	-1E+10	1	-1E+10	1	-1E+10	1	-1E+10	1	-1E+10	1
4902549	96	C	04/10/2023	08:01	-133.368	47.599	0	1145.60	0	2.9320	0	34.4320	0	27.445	0	1132.907	0	9.1	4	2.8	4	-1E+10	1	-1E+10	1	-1E+10	1	-1E+10	1	-1E+10	1	-1E+10	1
4902549	96	C	04/10/2023	08:01	-133.368	47.599	0	1155.60	0	2.9120	0	34.4340	0	27.448	0	1142.769	0	9.3	4	2.9	4	-1E+10	1	-1E+10	1	-1E+10	1	-1E+10	1	-1E+10	1	-1E+10	1
4902549	96	C	04/10/2023	08:01	-133.368	47.599	0	1165.70	0	2.8940	0	34.4350	0	27.451	0	1152.729	0	9.5	4	2.9	4	-1E+10	1	-1E+10	1	-1E+10	1	-1E+10	1	-1E+10	1	-1E+10	1
4902549	96	C	04/10/2023	08:01	-133.368	47.599	0	1175.10	0	2.8750	0	34.4370	0	27.454	0	1161.998	0	9.8	4	3.0	4	-1E+10	1	-1E+10	1	-1E+10	1	-1E+10	1	-1E+10	1	-1E+10	1
4902549	96	C	04/10/2023	08:01	-133.368	47.599	0	1185.40	0	2.8640	0	34.4420	0	27.459	0	1172.155	0	10.2	4	3.1	4	-1E+10	1	-1E+10	1	-1E+10	1	-1E+10	1	-1E+10	1	-1E+10	1
4902549	96	C	04/10/2023	08:01	-133.368	47.599	0	1195.70	0	2.8480	0	34.4460	0	27.464	0	1182.311	0	10.4	4	3.2	4	-1E+10	1	-1E+10	1	-1E+10	1	-1E+10	1	-1E+10	1	-1E+10	1
4902549	96	C	04/10/2023	08:01	-133.368	47.599	0	1205.50	0	2.8240	0	34.4460	0	27.466	0	1191.973	0	10.5	4	3.2	4	-1E+10	1	-1E+10	1	-1E+10	1	-1E+10	1	-1E+10	1	-1E+10	1
4902549	96	C	04/10/2023	08:01	-133.368	47.599	0	1215.10	0	2.8070	0	34.4460	0	27.468	0	1201.438	0	10.7	4	3.3	4	-1E+10	1	-1E+10	1	-1E+10	1	-1E+10	1	-1E+10	1	-1E+10	1
4902549	96	C	04/10/2023	08:01	-133.368	47.599	0	1225.40	0	2.7840	0	34.4490	0	27.472	0	1211.593	0	11.0	4	3.4	4	-1E+10	1	-1E+10	1	-1E+10	1	-1E+10	1	-1E+10	1	-1E+10	1
4902549	96	C	04/10/2023	08:01	-133.368	47.599	0	1235.40	0	2.7640	0	34.4510	0	27.475	0	1221.451	0	11.2	4	3.5	4	-1E+10	1	-1E+10	1	-1E+10	1	-1E+10	1	-1E+10	1	-1E+10	1
4902549	96	C	04/10/2023	08:01	-133.368	47.599	0	1245.20	0	2.7560	0	34.4530	0	27.478	0	1231.111	0	11.5	4	3.5	4	-1E+10	1	-1E+10	1	-1E+10	1	-1E+10	1	-1E+10	1	-1E+10	1
4902549	96	C	04/10/2023	08:01	-133.368	47.599	0	1255.30	0	2.7360	0	34.4540	0	27.480	0	1241.068	0	11.7	4	3.6	4	-1E+10	1	-1E+10	1	-1E+10	1	-1E+10	1	-1E+10	1	-1E+10	1
4902549	96	C	04/10/2023	08:01	-133.368	47.599	0	1265.40	0	2.6970	0	34.4560	0	27.485	0	1251.023	0	11.9	4	3.6	4	-1E+10	1	-1E+10	1	-1E+10	1	-1E+10	1	-1E+10	1	-1E+10	1
4902549	96	C	04/10/2023	08:01	-133.368	47.599	0	1275.50	0	2.6650	0	34.4570	0	27.489	0	1260.978	0	12.1	4	3.7	4	-1E+10	1	-1E+10	1	-1E+10	1	-1E+10	1	-1E+10	1	-1E+10	1
4902549	96	C	04/10/2023	08:01	-133.368	47.599	0	1285.40	0	2.6470	0	34.4580	0	27.491	0	1270.735	0	12.3	4	3.8	4	-1E+10	1	-1E+10	1	-1E+10	1	-1E+10	1	-1E+10	1	-1E+10	1
4902549	96	C	04/10/2023	08:01	-133.368	47.599	0	1295.30	0	2.6370	0	34.4600	0	27.494	0	1280.492	0	12.6	4	3.9	4	-1E+10	1	-1E+10	1	-1E+10	1	-1E+10	1	-1E+10	1	-1E+10	1
4902549	96	C	04/10/2023	08:01	-133.368	47.599	0	1305.30	0	2.6210	0	34.4620	0	27.497	0	1290.348	0	13.0	4	4.0	4	-1E+10	1	-1E+10	1	-1E+10	1	-1E+10	1	-1E+10	1	-1E+10	1
4902549	96	C	04/10/2023	08:01	-133.368	47.599	0	1315.30	0	2.5960	0	34.4660	0	27.502	0	1300.202	0	13.5	4	4.1	4	-1E+10	1	-1E+10	1	-1E+10	1	-1E+10	1	-1E+10	1	-1E+10	1
4902549	96	C	04/10/2023	08:01	-133.368	47.599	0	1325.30	0	2.5710	0	34.4690	0	27.507	0	1310.056	0	13.9	4	4.3	4	-1E+10	1	-1E+10	1	-1E+10	1	-1E+10	1	-1E+10	1	-1E+10	1
4902549	96	C	04/10/2023	08:01	-133.368	47.599	0	1335.30	0	2.5550	0	34.4720	0	27.511	0	1319.910	0	14.4	4	4.4	4	-1E+10	1	-1E+10	1	-1E+10	1	-1E+10	1	-1E+10	1	-1E+10	1
4902549	96	C	04/10/2023	08:01	-133.368	47.599	0	1345.30	0	2.5420	0	34.4740	0	27.513	0	1329.763	0	14.8	4	4.5	4	-1E+10	1	-1E+10	1	-1E+10	1	-1E+10	1	-1E+10	1	-1E+10	1
4902549	96	C	04/10/2023	08:01	-133.368	47.599	0	1355.30	0	2.5280	0	34.4770	0	27.517	0	1339.616	0	15.4	4	4.7	4	-1E+10	1	-1E+10	1	-1E+10	1	-1E+10	1	-1E+10	1	-1E+10	1
4902549	96	C	04/10/2023	08:01	-133.368	47.599	0	1365.40	0	2.5150	0	34.4800	0	27.521	0	1349.567	0	16.0	4	4.9	4	-1E+10	1	-1E+10	1	-1E+10	1	-1E+10	1	-1E+10	1	-1E+10	1
4902549	96	C	04/10/2023	08:01	-133.368	47.599	0	1375.40	0	2.5040	0	34.4840	0	27.525	0	1359.419	0	16.6	4	5.1	4	-1E+10	1	-1E+10	1	-1E+10	1	-1E+10	1	-1E+10	1	-1E+10	1
4902549	96	C	04/10/2023	08:01	-133.368	47.599	0	1385.60	0	2.4950	0	34.4860	0	27.527	0	1369.467	0	17.1	4	5.2	4	-1E+10	1	-1E+10	1	-1E+10	1	-1E+10	1	-1E+10	1	-1E+10	1
4902549	96	C	04/10/2023	08:01	-133.368	47.599	0	1395.50	0	2.4780	0	34.4890	0	27.531	0	1379.219	0	17.5	4	5.3	4	-1E+10	1	-1E+10	1	-1E+10	1	-1E+10	1	-1E+10	1	-1E+10	1
4902549	96	C	04/10/2023	08:01	-133.368	47.599	0	1405.50	0	2.4590	0	34.4900	0	27.534	0	1389.070	0	18.0	4	5.5	4	-1E+10	1	-1E+10	1	-1E+10	1	-1E+10	1	-1E+10	1	-1E+10	1
4902549	96	C	04/10/2023	08:01	-133.368	47.599	0	1416.10	0	2.4410	0	34.4930	0	27.537	0	1399.511	0	18.5	4	5.6	4	-1E+10	1	-1E+10	1	-1E+10	1	-1E+10	1	-1E+10	1	-1E+10	1
4902549	96	C	04/10/2023	08:01	-133.368	47.599	0	1425.70	0	2.4320	0	34.4950	0	27.540	0	1408.966	0	18.8	4	5.7	4	-1E+10	1	-1E+10	1	-1E+10	1	-1E+10	1	-1E+10	1	-1E+10	1
4902549	96	C	04/10/2023	08:01	-133.368	47.599	0	1435.60	0	2.4190	0	34.4960	0	27.542	0	1418.717	0	19.3	4	5.9	4	-1E+10	1	-1E+10	1	-1E+10	1	-1E+10	1	-1E+10	1	-1E+10	1
4902549	96	C	04/10/2023	08:01	-133.368	47.599	0	1445.60	0	2.4080	0	34.4980	0	27.544	0	1428.565	0	19.6	4	6.0	4	-1E+10	1	-1E+10	1	-1E+10	1	-1E+10	1	-1E+10	1	-1E+10	1
4902549	96	C	04/10/2023	08:01	-133.368	47.599	0	1455.60	0	2.3980	0	34.5000	0	27.547	0	1438.413	0	20.1	4	6.1	4	-1E+10	1	-1E+10	1	-1E+10	1	-1E+10	1	-1E+10	1	-1E+10	1
4902549	96	C	04/10/2023	08:01	-133.368	47.599	0	1465.80	0	2.3830	0	34.5010	0	27.549	0	1448.458	0	20.6	4	6.3	4	-1E+10	1	-1E+10	1	-1E+10	1	-1E+10	1	-1E+10	1	-1E+10	1
4902549	96	C	04/10/2023	08:01	-133.368	47.599	0	1475.50	0	2.3660	0	34.5040	0	27.553	0	1458.010	0	21.2	4	6.5	4	-1E+10	1	-1E+10	1	-1E+10	1	-1E+10	1	-1E+10	1	-1E+10	1
4902549	96	C	04/10/2023	08:01	-133.368	47.599	0	1485.40	0	2.3520	0	34.5060	0	27.556	0	1467.758	0	21.9	4	6.7	4	-1E+10	1	-1E+10	1	-1E+10	1	-1E+10	1	-1E+10	1	-1E+10	1
4902549	96	C	04/10/2023	08:01	-133.368	47.599	0	1495.40	0	2.3320	0	34.5090	0	27.560	0	1477.604	0	22.5	4	6.8	4	-1E+10	1	-1E+10	1	-1E+10	1	-1E+10	1	-1E+10	1	-1E+10	1
4902549	96	C	04/10/2023	08:01	-133.368	47.599	0	1505.20	0	2.3200	0	34.5110	0	27.562	0	1487.253	0	22.9	4	7.0	4	-1E+10	1	-1E+10	1	-1E+10	1	-1E+10	1	-1E+10	1	-1E+10	1
4902549	96	C	04/10/2023	08:01	-133.368	47.599	0	1515.30	0	2.3090	0	34.5120	0	27.564	0	1497.197	0	23.5	4	7.1	4	-1E+10	1	-1E+10	1	-1E+10	1	-1E+10	1	-1E+10	1	-1E+10	1
4902549	96	C	04/10/2023	08:01	-133.368	47.599	0	1525.50	0	2.2930	0	34.5140	0	27.567	0	1507.239	0	24.1	4	7.3	4	-1E+10	1	-1E+10	1	-1E+10	1	-1E+10	1	-1E+10	1	-1E+10	1
4902549	96	C	04/10/2023	08:01	-133.368	47.599	0	1535.50	0	2.2770	0	34.5160	0	27.570	0	1517.083	0	24.7	4	7.5	4	-1E+10	1	-1E+10	1	-1E+10	1	-1E+10	1	-1E+10	1	-1E+10	1
4902549	96	C	04/10/2023	08:01	-133.368	47.599	0	1545.30	0	2.2690	0	34.5180	0	27.572	0	1526.731	0	25.2	4	7.6	4	-1E+10	1	-1E+10	1	-1E+10	1	-1E+10	1	-1E+10	1	-1E+10	1
4902549	96	C	04/10/2023	08:01	-133.368	47.599	0	1555.20	0	2.2590	0	34.5200	0	27.575	0	1536.476	0	25.7	4	7.8	4	-1E+10	1	-1E+10	1	-1E+10	1	-1E+10	1	-1E+10	1	-1E+10	1
4902549	96	C	04/10/2023	08:01	-133.368	47.599	0	1565.30	0	2.2510	0	34.5210	0	27.576	0	1546.417	0	26.3	4	8.0	4	-1E+10	1	-1E+10	1	-1E+10	1	-1E+10	1	-1E+10	1	-1E+10	1
4902549	96	C	04/10/2023	08:01	-133.368	47.599	0	1575.60	0	2.2410	0	34.5230	0	27.579	0	1556.555	0	26.9	4	8.2	4	-1E+10	1	-1E+10	1	-1E+10	1	-1E+10	1	-1E+10	1	-1E+10	1
4902549	96	C	04/10/2023	08:01	-133.368	47.599	0	1585.40	0	2.2280	0	34.5250	0	27.581	0	1566.200	0	27.6	4	8.4	4	-1E+10	1	-1E+10	1	-1E+10	1	-1E+10	1	-1E+10	1	-1E+10	1
4902549	96	C	04/10/2023	08:01	-133.368	47.599	0	1595.30	0	2.2170	0	34.5270	0	27.584	0	1575.944	0	28.2	4	8.6	4	-1E+10	1	-1E+10	1	-1E+10	1	-1E+10	1	-1E+10	1	-1E+10	1
4902549	96	C	04/10/2023	08:01	-133.368	47.599	0	1605.20	0	2.2060	0	34.5290	0	27.586	0	1585.686	0	28.7	4	8.7	4	-1E+10	1	-1E+10	1	-1E+10	1	-1E+10	1	-1E+10	1	-1E+10	1
4902549	96	C	04/10/2023	08:01	-133.368	47.599	0	1615.30	0	2.2010	0	34.5300	0	27.588	0	1595.626	0	29.2	4	8.8	4	-1E+10	1	-1E+10	1	-1E+10	1	-1E+10	1	-1E+10	1	-1E+10	1
4902549	96	C	04/10/2023	08:01	-133.368	47.599	0	1625.60	0	2.1930	0	34.5320	0	27.590	0	1605.761	0	29.6	4	9.0	4	-1E+10	1	-1E+10	1	-1E+10	1	-1E+10	1	-1E+10	1	-1E+10	1
4902549	96	C	04/10/2023	08:01	-133.368	47.599	0	1635.70	0	2.1860	0	34.5330	0	27.591	0	1615.699	0	30.1	4	9.1	4	-1E+10	1	-1E+10	1	-1E+10	1	-1E+10	1	-1E+10	1	-1E+10	1
4902549	96	C	04/10/2023	08:01	-133.368	47.599	0	1645.40	0	2.1800	0	34.5350	0	27.594	0	1625.244	0	30.5	4	9.2	4	-1E+10	1	-1E+10	1	-1E+10	1	-1E+10	1	-1E+10	1	-1E+10	1
4902549	96	C	04/10/2023	08:01	-133.368	47.599	0	1655.20	0	2.1750	0	34.5350	0	27.594	0	1634.886	0	30.9	4	9.4	4	-1E+10	1	-1E+10	1	-1E+10	1	-1E+10	1	-1E+10	1	-1E+10	1
4902549	96	C	04/10/2023	08:01	-133.368	47.599	0	1665.50	0	2.1660	0	34.5370	0	27.596	0	1645.019	0	31.4	4	9.5	4	-1E+10	1	-1E+10	1	-1E+10	1	-1E+10	1	-1E+10	1	-1E+10	1
4902549	96	C	04/10/2023	08:01	-133.368	47.599	0	1675.50	0	2.1610	0	34.5380	0	27.598	0	1654.857	0	31.7	4	9.6	4	-1E+10	1	-1E+10	1	-1E+10	1	-1E+10	1	-1E+10	1	-1E+10	1
4902549	96	C	04/10/2023	08:01	-133.368	47.599	0	1685.20	0	2.1580	0	34.5380	0	27.598	0	1664.400	0	32.0	4	9.7	4	-1E+10	1	-1E+10	1	-1E+10	1	-1E+10	1	-1E+10	1	-1E+10	1
4902549	96	C	04/10/2023	08:01	-133.368	47.599	0	1695.40	0	2.1520	0	34.5400	0	27.600	0	1674.434	0	32.5	4	9.8	4	-1E+10	1	-1E+10	1	-1E+10	1	-1E+10	1	-1E+10	1	-1E+10	1
4902549	96	C	04/10/2023	08:01	-133.368	47.599	0	1705.80	0	2.1460	0	34.5410	0	27.601	0	1684.664	0	32.9	4	10.0	4	-1E+10	1	-1E+10	1	-1E+10	1	-1E+10	1	-1E+10	1	-1E+10	1
4902549	96	C	04/10/2023	08:01	-133.368	47.599	0	1715.40	0	2.1410	0	34.5420	0	27.603	0	1694.106	0	33.4	4	10.1	4	-1E+10	1	-1E+10	1	-1E+10	1	-1E+10	1	-1E+10	1	-1E+10	1
4902549	96	C	04/10/2023	08:01	-133.368	47.599	0	1725.20	0	2.1330	0	34.5440	0	27.605	0	1703.745	0	34.1	4	10.3	4	-1E+10	1	-1E+10	1	-1E+10	1	-1E+10	1	-1E+10	1	-1E+10	1
4902549	96	C	04/10/2023	08:01	-133.368	47.599	0	1735.50	0	2.1230	0	34.5450	0	27.607	0	1713.876	0	34.8	4	10.5	4	-1E+10	1	-1E+10	1	-1E+10	1	-1E+10	1	-1E+10	1	-1E+10	1
4902549	96	C	04/10/2023	08:01	-133.368	47.599	0	1745.70	0	2.1130	0	34.5470	0	27.609	0	1723.907	0	35.5	4	10.7	4	-1E+10	1	-1E+10	1	-1E+10	1	-1E+10	1	-1E+10	1	-1E+10	1
4902549	96	C	04/10/2023	08:01	-133.368	47.599	0	1755.40	0	2.1040	0	34.5490	0	27.611	0	1733.447	0	36.1	4	10.9	4	-1E+10	1	-1E+10	1	-1E+10	1	-1E+10	1	-1E+10	1	-1E+10	1
4902549	96	C	04/10/2023	08:01	-133.368	47.599	0	1765.20	0	2.0960	0	34.5510	0	27.614	0	1743.084	0	36.8	4	11.1	4	-1E+10	1	-1E+10	1	-1E+10	1	-1E+10	1	-1E+10	1	-1E+10	1
4902549	96	C	04/10/2023	08:01	-133.368	47.599	0	1775.40	0	2.0870	0	34.5520	0	27.615	0	1753.114	0	37.5	4	11.3	4	-1E+10	1	-1E+10	1	-1E+10	1	-1E+10	1	-1E+10	1	-1E+10	1
4902549	96	C	04/10/2023	08:01	-133.368	47.599	0	1785.70	0	2.0770	0	34.5540	0	27.618	0	1763.242	0	38.1	4	11.5	4	-1E+10	1	-1E+10	1	-1E+10	1	-1E+10	1	-1E+10	1	-1E+10	1
4902549	96	C	04/10/2023	08:01	-133.368	47.599	0	1795.80	0	2.0720	0	34.5550	0	27.619	0	1773.173	0	38.6	4	11.7	4	-1E+10	1	-1E+10	1	-1E+10	1	-1E+10	1	-1E+10	1	-1E+10	1
4902549	96	C	04/10/2023	08:01	-133.368	47.599	0	1805.50	0	2.0650	0	34.5570	0	27.621	0	1782.710	0	39.5	4	11.9	4	-1E+10	1	-1E+10	1	-1E+10	1	-1E+10	1	-1E+10	1	-1E+10	1
4902549	96	C	04/10/2023	08:01	-133.368	47.599	0	1815.20	0	2.0530	0	34.5590	0	27.624	0	1792.246	0	40.4	4	12.2	4	-1E+10	1	-1E+10	1	-1E+10	1	-1E+10	1	-1E+10	1	-1E+10	1
4902549	96	C	04/10/2023	08:01	-133.368	47.599	0	1825.30	0	2.0410	0	34.5610	0	27.626	0	1802.176	0	41.4	4	12.5	4	-1E+10	1	-1E+10	1	-1E+10	1	-1E+10	1	-1E+10	1	-1E+10	1
4902549	96	C	04/10/2023	08:01	-133.368	47.599	0	1835.50	0	2.0300	0	34.5630	0	27.629	0	1812.203	0	42.4	4	12.8	4	-1E+10	1	-1E+10	1	-1E+10	1	-1E+10	1	-1E+10	1	-1E+10	1
4902549	96	C	04/10/2023	08:01	-133.368	47.599	0	1845.30	0	2.0170	0	34.5660	0	27.632	0	1821.837	0	43.1	4	13.0	4	-1E+10	1	-1E+10	1	-1E+10	1	-1E+10	1	-1E+10	1	-1E+10	1
4902549	96	C	04/10/2023	08:01	-133.368	47.599	0	1855.30	0	2.0090	0	34.5670	0	27.634	0	1831.667	0	44.0	4	13.3	4	-1E+10	1	-1E+10	1	-1E+10	1	-1E+10	1	-1E+10	1	-1E+10	1
4902549	96	C	04/10/2023	08:01	-133.368	47.599	0	1865.60	0	1.9990	0	34.5690	0	27.636	0	1841.791	0	44.7	4	13.5	4	-1E+10	1	-1E+10	1	-1E+10	1	-1E+10	1	-1E+10	1	-1E+10	1
4902549	96	C	04/10/2023	08:01	-133.368	47.599	0	1875.60	0	1.9910	0	34.5710	0	27.639	0	1851.620	0	45.3	4	13.6	4	-1E+10	1	-1E+10	1	-1E+10	1	-1E+10	1	-1E+10	1	-1E+10	1
4902549	96	C	04/10/2023	08:01	-133.368	47.599	0	1885.60	0	1.9860	0	34.5720	0	27.640	0	1861.448	0	45.9	4	13.8	4	-1E+10	1	-1E+10	1	-1E+10	1	-1E+10	1	-1E+10	1	-1E+10	1
4902549	96	C	04/10/2023	08:01	-133.368	47.599	0	1895.50	0	1.9760	0	34.5740	0	27.642	0	1871.178	0	46.6	4	14.0	4	-1E+10	1	-1E+10	1	-1E+10	1	-1E+10	1	-1E+10	1	-1E+10	1
4902549	96	C	04/10/2023	08:01	-133.368	47.599	0	1905.20	0	1.9710	0	34.5750	0	27.643	0	1880.711	0	47.3	4	14.2	4	-1E+10	1	-1E+10	1	-1E+10	1	-1E+10	1	-1E+10	1	-1E+10	1
4902549	96	C	04/10/2023	08:01	-133.368	47.599	0	1915.40	0	1.9610	0	34.5770	0	27.646	0	1890.734	0	47.9	4	14.4	4	-1E+10	1	-1E+10	1	-1E+10	1	-1E+10	1	-1E+10	1	-1E+10	1
4902549	96	C	04/10/2023	08:01	-133.368	47.599	0	1925.70	0	1.9550	0	34.5780	0	27.647	0	1900.856	0	48.4	4	14.6	4	-1E+10	1	-1E+10	1	-1E+10	1	-1E+10	1	-1E+10	1	-1E+10	1
4902549	96	C	04/10/2023	08:01	-133.368	47.599	0	1935.70	0	1.9490	0	34.5790	0	27.649	0	1910.682	0	48.9	4	14.7	4	-1E+10	1	-1E+10	1	-1E+10	1	-1E+10	1	-1E+10	1	-1E+10	1
4902549	96	C	04/10/2023	08:01	-133.368	47.599	0	1945.40	0	1.9440	0	34.5800	0	27.650	0	1920.213	0	49.1	4	14.8	4	-1E+10	1	-1E+10	1	-1E+10	1	-1E+10	1	-1E+10	1	-1E+10	1
4902549	96	C	04/10/2023	08:01	-133.368	47.599	0	1955.20	0	1.9410	0	34.5810	0	27.651	0	1929.841	0	49.3	4	14.8	4	-1E+10	1	-1E+10	1	-1E+10	1	-1E+10	1	-1E+10	1	-1E+10	1
4902549	96	C	04/10/2023	08:01	-133.368	47.599	0	1965.70	0	1.9370	0	34.5820	0	27.652	0	1940.157	0	49.1	4	14.8	4	-1E+10	1	-1E+10	1	-1E+10	1	-1E+10	1	-1E+10	1	-1E+10	1
4902549	96	C	04/10/2023	08:01	-133.368	47.599	0	1971.70	0	1.9340	0	34.5820	0	27.652	0	1946.052	0	48.1	4	14.5	4	-1E+10	1	-1E+10	1	-1E+10	1	-1E+10	1	-1E+10	1	-1E+10	1
4902549	96	C	04/10/2023	08:01	-133.368	47.599	0																										
4902549	97	C	04/20/2023	12:57	-133.278	47.508	0	2.80	0	7.7790	0	32.3920	0	25.258	0	2.777	0	277.7	4	94.5	4	-1E+10	1	-1E+10	1	-1E+10	1	-1E+10	1	-1E+10	1	-1E+10	1
4902549	97	C	04/20/2023	12:57	-133.278	47.508	0	3.10	0	7.7790	0	32.3920	0	25.258	0	3.074	0	-1e10	1	-1e10	1	-1E+10	1	-1E+10	1	-1E+10	1	-1E+10	1	-1E+10	1	-1E+10	1
4902549	97	C	04/20/2023	12:57	-133.278	47.508	0	3.20	0	7.7791	0	32.3919	0	25.258	0	3.173	0	277.7	4	94.5	4	-1E+10	1	-1E+10	1	-1E+10	1	-1E+10	1	-1E+10	1	-1E+10	1
4902549	97	C	04/20/2023	12:57	-133.278	47.508	0	4.00	0	7.7800	0	32.3910	0	25.257	0	3.967	0	277.6	4	94.5	4	-1E+10	1	-1E+10	1	-1E+10	1	-1E+10	1	-1E+10	1	-1E+10	1
4902549	97	C	04/20/2023	12:57	-133.278	47.508	0	4.20	0	7.7800	0	32.3912	0	25.257	0	4.165	0	277.6	4	94.5	4	-1E+10	1	-1E+10	1	-1E+10	1	-1E+10	1	-1E+10	1	-1E+10	1
4902549	97	C	04/20/2023	12:57	-133.278	47.508	0	4.90	0	7.7800	0	32.3920	0	25.258	0	4.859	0	277.6	4	94.5	4	-1E+10	1	-1E+10	1	-1E+10	1	-1E+10	1	-1E+10	1	-1E+10	1
4902549	97	C	04/20/2023	12:57	-133.278	47.508	0	5.90	0	7.7800	0	32.3920	0	25.258	0	5.851	0	277.5	4	94.4	4	-1E+10	1	-1E+10	1	-1E+10	1	-1E+10	1	-1E+10	1	-1E+10	1
4902549	97	C	04/20/2023	12:57	-133.278	47.508	0	7.20	0	7.7810	0	32.3920	0	25.258	0	7.140	0	277.5	4	94.4	4	-1E+10	1	-1E+10	1	-1E+10	1	-1E+10	1	-1E+10	1	-1E+10	1
4902549	97	C	04/20/2023	12:57	-133.278	47.508	0	7.90	0	7.7800	0	32.3920	0	25.258	0	7.834	0	277.5	4	94.4	4	-1E+10	1	-1E+10	1	-1E+10	1	-1E+10	1	-1E+10	1	-1E+10	1
4902549	97	C	04/20/2023	12:57	-133.278	47.508	0	9.00	0	7.7810	0	32.3920	0	25.258	0	8.925	0	277.5	4	94.4	4	-1E+10	1	-1E+10	1	-1E+10	1	-1E+10	1	-1E+10	1	-1E+10	1
4902549	97	C	04/20/2023	12:57	-133.278	47.508	0	9.90	0	7.7780	0	32.3920	0	25.258	0	9.817	0	277.4	4	94.4	4	-1E+10	1	-1E+10	1	-1E+10	1	-1E+10	1	-1E+10	1	-1E+10	1
4902549	97	C	04/20/2023	12:57	-133.278	47.508	0	10.80	0	7.7810	0	32.3920	0	25.258	0	10.710	0	277.3	4	94.4	4	-1E+10	1	-1E+10	1	-1E+10	1	-1E+10	1	-1E+10	1	-1E+10	1
4902549	97	C	04/20/2023	12:57	-133.278	47.508	0	11.90	0	7.7800	0	32.3920	0	25.258	0	11.800	0	277.2	4	94.3	4	-1E+10	1	-1E+10	1	-1E+10	1	-1E+10	1	-1E+10	1	-1E+10	1
4902549	97	C	04/20/2023	12:57	-133.278	47.508	0	13.00	0	7.7830	0	32.3920	0	25.258	0	12.891	0	277.2	4	94.3	4	-1E+10	1	-1E+10	1	-1E+10	1	-1E+10	1	-1E+10	1	-1E+10	1
4902549	97	C	04/20/2023	12:57	-133.278	47.508	0	13.80	0	7.7830	0	32.3920	0	25.258	0	13.684	0	277.2	4	94.3	4	-1E+10	1	-1E+10	1	-1E+10	1	-1E+10	1	-1E+10	1	-1E+10	1
4902549	97	C	04/20/2023	12:57	-133.278	47.508	0	14.80	0	7.7830	0	32.3920	0	25.258	0	14.676	0	277.1	4	94.3	4	-1E+10	1	-1E+10	1	-1E+10	1	-1E+10	1	-1E+10	1	-1E+10	1
4902549	97	C	04/20/2023	12:57	-133.278	47.508	0	16.00	0	7.7840	0	32.3920	0	25.258	0	15.866	0	277.2	4	94.3	4	-1E+10	1	-1E+10	1	-1E+10	1	-1E+10	1	-1E+10	1	-1E+10	1
4902549	97	C	04/20/2023	12:57	-133.278	47.508	0	17.00	0	7.7840	0	32.3920	0	25.258	0	16.857	0	277.2	4	94.3	4	-1E+10	1	-1E+10	1	-1E+10	1	-1E+10	1	-1E+10	1	-1E+10	1
4902549	97	C	04/20/2023	12:57	-133.278	47.508	0	17.90	0	7.7850	0	32.3910	0	25.257	0	17.750	0	277.1	4	94.3	4	-1E+10	1	-1E+10	1	-1E+10	1	-1E+10	1	-1E+10	1	-1E+10	1
4902549	97	C	04/20/2023	12:57	-133.278	47.508	0	19.10	0	7.7840	0	32.3920	0	25.258	0	18.940	0	277.0	4	94.3	4	-1E+10	1	-1E+10	1	-1E+10	1	-1E+10	1	-1E+10	1	-1E+10	1
4902549	97	C	04/20/2023	12:57	-133.278	47.508	0	19.90	0	7.7840	0	32.3920	0	25.258	0	19.733	0	277.1	4	94.3	4	-1E+10	1	-1E+10	1	-1E+10	1	-1E+10	1	-1E+10	1	-1E+10	1
4902549	97	C	04/20/2023	12:57	-133.278	47.508	0	21.00	0	7.7840	0	32.3920	0	25.258	0	20.824	0	277.1	4	94.3	4	-1E+10	1	-1E+10	1	-1E+10	1	-1E+10	1	-1E+10	1	-1E+10	1
4902549	97	C	04/20/2023	12:57	-133.278	47.508	0	22.10	0	7.7850	0	32.3920	0	25.257	0	21.914	0	277.0	4	94.3	4	-1E+10	1	-1E+10	1	-1E+10	1	-1E+10	1	-1E+10	1	-1E+10	1
4902549	97	C	04/20/2023	12:57	-133.278	47.508	0	22.90	0	7.7820	0	32.3920	0	25.258	0	22.708	0	276.9	4	94.2	4	-1E+10	1	-1E+10	1	-1E+10	1	-1E+10	1	-1E+10	1	-1E+10	1
4902549	97	C	04/20/2023	12:57	-133.278	47.508	0	23.80	0	7.7820	0	32.3920	0	25.258	0	23.600	0	277.0	4	94.3	4	-1E+10	1	-1E+10	1	-1E+10	1	-1E+10	1	-1E+10	1	-1E+10	1
4902549	97	C	04/20/2023	12:57	-133.278	47.508	0	25.00	0	7.7770	0	32.3930	0	25.259	0	24.790	0	277.0	4	94.3	4	-1E+10	1	-1E+10	1	-1E+10	1	-1E+10	1	-1E+10	1	-1E+10	1
4902549	97	C	04/20/2023	12:57	-133.278	47.508	0	26.10	0	7.7760	0	32.3920	0	25.259	0	25.881	0	277.1	4	94.3	4	-1E+10	1	-1E+10	1	-1E+10	1	-1E+10	1	-1E+10	1	-1E+10	1
4902549	97	C	04/20/2023	12:57	-133.278	47.508	0	27.00	0	7.7850	0	32.3920	0	25.258	0	26.773	0	277.0	4	94.3	4	-1E+10	1	-1E+10	1	-1E+10	1	-1E+10	1	-1E+10	1	-1E+10	1
4902549	97	C	04/20/2023	12:57	-133.278	47.508	0	28.10	0	7.7860	0	32.3920	0	25.257	0	27.864	0	276.9	4	94.2	4	-1E+10	1	-1E+10	1	-1E+10	1	-1E+10	1	-1E+10	1	-1E+10	1
4902549	97	C	04/20/2023	12:57	-133.278	47.508	0	28.90	0	7.7860	0	32.3920	0	25.257	0	28.657	0	276.8	4	94.2	4	-1E+10	1	-1E+10	1	-1E+10	1	-1E+10	1	-1E+10	1	-1E+10	1
4902549	97	C	04/20/2023	12:57	-133.278	47.508	0	29.90	0	7.7850	0	32.3920	0	25.258	0	29.648	0	276.9	4	94.2	4	-1E+10	1	-1E+10	1	-1E+10	1	-1E+10	1	-1E+10	1	-1E+10	1
4902549	97	C	04/20/2023	12:57	-133.278	47.508	0	31.20	0	7.7850	0	32.3920	0	25.258	0	30.937	0	276.9	4	94.2	4	-1E+10	1	-1E+10	1	-1E+10	1	-1E+10	1	-1E+10	1	-1E+10	1
4902549	97	C	04/20/2023	12:57	-133.278	47.508	0	32.10	0	7.7860	0	32.3920	0	25.257	0	31.830	0	276.8	4	94.2	4	-1E+10	1	-1E+10	1	-1E+10	1	-1E+10	1	-1E+10	1	-1E+10	1
4902549	97	C	04/20/2023	12:57	-133.278	47.508	0	32.80	0	7.7860	0	32.3920	0	25.257	0	32.524	0	276.8	4	94.2	4	-1E+10	1	-1E+10	1	-1E+10	1	-1E+10	1	-1E+10	1	-1E+10	1
4902549	97	C	04/20/2023	12:57	-133.278	47.508	0	34.10	0	7.7860	0	32.3920	0	25.257	0	33.813	0	276.8	4	94.2	4	-1E+10	1	-1E+10	1	-1E+10	1	-1E+10	1	-1E+10	1	-1E+10	1
4902549	97	C	04/20/2023	12:57	-133.278	47.508	0	35.00	0	7.7850	0	32.3920	0	25.258	0	34.705	0	276.8	4	94.2	4	-1E+10	1	-1E+10	1	-1E+10	1	-1E+10	1	-1E+10	1	-1E+10	1
4902549	97	C	04/20/2023	12:57	-133.278	47.508	0	35.90	0	7.7860	0	32.3920	0	25.258	0	35.597	0	276.7	4	94.2	4	-1E+10	1	-1E+10	1	-1E+10	1	-1E+10	1	-1E+10	1	-1E+10	1
4902549	97	C	04/20/2023	12:57	-133.278	47.508	0	37.10	0	7.7840	0	32.3920	0	25.258	0	36.787	0	276.7	4	94.2	4	-1E+10	1	-1E+10	1	-1E+10	1	-1E+10	1	-1E+10	1	-1E+10	1
4902549	97	C	04/20/2023	12:57	-133.278	47.508	0	38.20	0	7.7830	0	32.3930	0	25.259	0	37.878	0	276.6	4	94.1	4	-1E+10	1	-1E+10	1	-1E+10	1	-1E+10	1	-1E+10	1	-1E+10	1
4902549	97	C	04/20/2023	12:57	-133.278	47.508	0	38.80	0	7.7830	0	32.3930	0	25.259	0	38.473	0	276.7	4	94.2	4	-1E+10	1	-1E+10	1	-1E+10	1	-1E+10	1	-1E+10	1	-1E+10	1
4902549	97	C	04/20/2023	12:57	-133.278	47.508	0	40.00	0	7.7840	0	32.3920	0	25.258	0	39.662	0	276.5	4	94.1	4	-1E+10	1	-1E+10	1	-1E+10	1	-1E+10	1	-1E+10	1	-1E+10	1
4902549	97	C	04/20/2023	12:57	-133.278	47.508	0	40.70	0	7.7820	0	32.3930	0	25.259	0	40.356	0	276.6	4	94.1	4	-1E+10	1	-1E+10	1	-1E+10	1	-1E+10	1	-1E+10	1	-1E+10	1
4902549	97	C	04/20/2023	12:57	-133.278	47.508	0	41.80	0	7.7820	0	32.3920	0	25.258	0	41.447	0	276.5	4	94.1	4	-1E+10	1	-1E+10	1	-1E+10	1	-1E+10	1	-1E+10	1	-1E+10	1
4902549	97	C	04/20/2023	12:57	-133.278	47.508	0	42.90	0	7.7840	0	32.3920	0	25.258	0	42.538	0	276.4	4	94.1	4	-1E+10	1	-1E+10	1	-1E+10	1	-1E+10	1	-1E+10	1	-1E+10	1
4902549	97	C	04/20/2023	12:57	-133.278	47.508	0	43.90	0	7.7850	0	32.3920	0	25.258	0	43.529	0	276.4	4	94.1	4	-1E+10	1	-1E+10	1	-1E+10	1	-1E+10	1	-1E+10	1	-1E+10	1
4902549	97	C	04/20/2023	12:57	-133.278	47.508	0	44.80	0	7.7830	0	32.3920	0	25.258	0	44.421	0	276.4	4	94.1	4	-1E+10	1	-1E+10	1	-1E+10	1	-1E+10	1	-1E+10	1	-1E+10	1
4902549	97	C	04/20/2023	12:57	-133.278	47.508	0	45.80	0	7.7830	0	32.3920	0	25.258	0	45.413	0	276.3	4	94.0	4	-1E+10	1	-1E+10	1	-1E+10	1	-1E+10	1	-1E+10	1	-1E+10	1
4902549	97	C	04/20/2023	12:57	-133.278	47.508	0	46.80	0	7.7860	0	32.3920	0	25.258	0	46.404	0	276.2	4	94.0	4	-1E+10	1	-1E+10	1	-1E+10	1	-1E+10	1	-1E+10	1	-1E+10	1
4902549	97	C	04/20/2023	12:57	-133.278	47.508	0	48.10	0	7.7800	0	32.3940	0	25.260	0	47.693	0	276.2	4	94.0	4	-1E+10	1	-1E+10	1	-1E+10	1	-1E+10	1	-1E+10	1	-1E+10	1
4902549	97	C	04/20/2023	12:57	-133.278	47.508	0	49.30	0	7.7710	0	32.3930	0	25.261	0	48.883	0	276.1	4	93.9	4	-1E+10	1	-1E+10	1	-1E+10	1	-1E+10	1	-1E+10	1	-1E+10	1
4902549	97	C	04/20/2023	12:57	-133.278	47.508	0	50.00	0	7.7660	0	32.3930	0	25.261	0	49.577	0	276.1	4	93.9	4	-1E+10	1	-1E+10	1	-1E+10	1	-1E+10	1	-1E+10	1	-1E+10	1
4902549	97	C	04/20/2023	12:57	-133.278	47.508	0	50.90	0	7.7650	0	32.3970	0	25.265	0	50.469	0	276.1	4	93.9	4	-1E+10	1	-1E+10	1	-1E+10	1	-1E+10	1	-1E+10	1	-1E+10	1
4902549	97	C	04/20/2023	12:57	-133.278	47.508	0	51.80	0	7.7620	0	32.3940	0	25.263	0	51.361	0	276.0	4	93.9	4	-1E+10	1	-1E+10	1	-1E+10	1	-1E+10	1	-1E+10	1	-1E+10	1
4902549	97	C	04/20/2023	12:57	-133.278	47.508	0	52.90	0	7.7560	0	32.3960	0	25.265	0	52.452	0	276.0	4	93.9	4	-1E+10	1	-1E+10	1	-1E+10	1	-1E+10	1	-1E+10	1	-1E+10	1
4902549	97	C	04/20/2023	12:57	-133.278	47.508	0	54.00	0	7.7630	0	32.3930	0	25.262	0	53.542	0	275.9	4	93.8	4	-1E+10	1	-1E+10	1	-1E+10	1	-1E+10	1	-1E+10	1	-1E+10	1
4902549	97	C	04/20/2023	12:57	-133.278	47.508	0	55.10	0	7.7610	0	32.3930	0	25.262	0	54.633	0	275.8	4	93.8	4	-1E+10	1	-1E+10	1	-1E+10	1	-1E+10	1	-1E+10	1	-1E+10	1
4902549	97	C	04/20/2023	12:57	-133.278	47.508	0	56.10	0	7.7540	0	32.3940	0	25.264	0	55.624	0	275.7	4	93.8	4	-1E+10	1	-1E+10	1	-1E+10	1	-1E+10	1	-1E+10	1	-1E+10	1
4902549	97	C	04/20/2023	12:57	-133.278	47.508	0	57.10	0	7.7540	0	32.3930	0	25.263	0	56.616	0	275.7	4	93.8	4	-1E+10	1	-1E+10	1	-1E+10	1	-1E+10	1	-1E+10	1	-1E+10	1
4902549	97	C	04/20/2023	12:57	-133.278	47.508	0	58.00	0	7.7560	0	32.3920	0	25.262	0	57.508	0	275.6	4	93.7	4	-1E+10	1	-1E+10	1	-1E+10	1	-1E+10	1	-1E+10	1	-1E+10	1
4902549	97	C	04/20/2023	12:57	-133.278	47.508	0	59.00	0	7.7310	0	32.4010	0	25.273	0	58.499	0	275.6	4	93.7	4	-1E+10	1	-1E+10	1	-1E+10	1	-1E+10	1	-1E+10	1	-1E+10	1
4902549	97	C	04/20/2023	12:57	-133.278	47.508	0	60.10	0	7.7170	0	32.3980	0	25.272	0	59.590	0	275.8	4	93.7	4	-1E+10	1	-1E+10	1	-1E+10	1	-1E+10	1	-1E+10	1	-1E+10	1
4902549	97	C	04/20/2023	12:57	-133.278	47.508	0	60.90	0	7.7010	0	32.3980	0	25.275	0	60.383	0	275.6	4	93.6	4	-1E+10	1	-1E+10	1	-1E+10	1	-1E+10	1	-1E+10	1	-1E+10	1
4902549	97	C	04/20/2023	12:57	-133.278	47.508	0	61.70	0	7.6730	0	32.3980	0	25.279	0	61.176	0	275.7	4	93.6	4	-1E+10	1	-1E+10	1	-1E+10	1	-1E+10	1	-1E+10	1	-1E+10	1
4902549	97	C	04/20/2023	12:57	-133.278	47.508	0	62.90	0	7.6870	0	32.3960	0	25.275	0	62.365	0	275.6	4	93.6	4	-1E+10	1	-1E+10	1	-1E+10	1	-1E+10	1	-1E+10	1	-1E+10	1
4902549	97	C	04/20/2023	12:57	-133.278	47.508	0	64.00	0	7.6630	0	32.3960	0	25.278	0	63.456	0	275.7	4	93.6	4	-1E+10	1	-1E+10	1	-1E+10	1	-1E+10	1	-1E+10	1	-1E+10	1
4902549	97	C	04/20/2023	12:57	-133.278	47.508	0	65.10	0	7.6570	0	32.3960	0	25.279	0	64.546	0	275.7	4	93.5	4	-1E+10	1	-1E+10	1	-1E+10	1	-1E+10	1	-1E+10	1	-1E+10	1
4902549	97	C	04/20/2023	12:57	-133.278	47.508	0	66.00	0	7.6490	0	32.3970	0	25.281	0	65.439	0	275.7	4	93.5	4	-1E+10	1	-1E+10	1	-1E+10	1	-1E+10	1	-1E+10	1	-1E+10	1
4902549	97	C	04/20/2023	12:57	-133.278	47.508	0	66.90	0	7.6480	0	32.3970	0	25.281	0	66.331	0	275.5	4	93.5	4	-1E+10	1	-1E+10	1	-1E+10	1	-1E+10	1	-1E+10	1	-1E+10	1
4902549	97	C	04/20/2023	12:57	-133.278	47.508	0	68.10	0	7.6470	0	32.3970	0	25.281	0	67.520	0	275.4	4	93.4	4	-1E+10	1	-1E+10	1	-1E+10	1	-1E+10	1	-1E+10	1	-1E+10	1
4902549	97	C	04/20/2023	12:57	-133.278	47.508	0	69.00	0	7.6470	0	32.3970	0	25.281	0	68.413	0	275.3	4	93.4	4	-1E+10	1	-1E+10	1	-1E+10	1	-1E+10	1	-1E+10	1	-1E+10	1
4902549	97	C	04/20/2023	12:57	-133.278	47.508	0	69.90	0	7.6460	0	32.3980	0	25.282	0	69.305	0	275.2	4	93.4	4	-1E+10	1	-1E+10	1	-1E+10	1	-1E+10	1	-1E+10	1	-1E+10	1
4902549	97	C	04/20/2023	12:57	-133.278	47.508	0	71.10	0	7.6440	0	32.3980	0	25.283	0	70.494	0	275.1	4	93.3	4	-1E+10	1	-1E+10	1	-1E+10	1	-1E+10	1	-1E+10	1	-1E+10	1
4902549	97	C	04/20/2023	12:57	-133.278	47.508	0	72.00	0	7.6450	0	32.3980	0	25.283	0	71.387	0	275.0	4	93.3	4	-1E+10	1	-1E+10	1	-1E+10	1	-1E+10	1	-1E+10	1	-1E+10	1
4902549	97	C	04/20/2023	12:57	-133.278	47.508	0	72.80	0	7.6410	0	32.3980	0	25.283	0	72.180	0	274.9	4	93.3	4	-1E+10	1	-1E+10	1	-1E+10	1	-1E+10	1	-1E+10	1	-1E+10	1
4902549	97	C	04/20/2023	12:57	-133.278	47.508	0	73.90	0	7.6360	0	32.3980	0	25.284	0	73.270	0	274.8	4	93.2	4	-1E+10	1	-1E+10	1	-1E+10	1	-1E+10	1	-1E+10	1	-1E+10	1
4902549	97	C	04/20/2023	12:57	-133.278	47.508	0	75.10	0	7.6370	0	32.3980	0	25.284	0	74.460	0	274.6	4	93.2	4	-1E+10	1	-1E+10	1	-1E+10	1	-1E+10	1	-1E+10	1	-1E+10	1
4902549	97	C	04/20/2023	12:57	-133.278	47.508	0	75.90	0	7.6380	0	32.3970	0	25.283	0	75.253	0	274.5	4	93.1	4	-1E+10	1	-1E+10	1	-1E+10	1	-1E+10	1	-1E+10	1	-1E+10	1
4902549	97	C	04/20/2023	12:57	-133.278	47.508	0	76.80	0	7.6370	0	32.3980	0	25.284	0	76.145	0	274.3	4	93.0	4	-1E+10	1	-1E+10	1	-1E+10	1	-1E+10	1	-1E+10	1	-1E+10	1
4902549	97	C	04/20/2023	12:57	-133.278	47.508	0	77.90	0	7.6310	0	32.3970	0	25.284	0	77.235	0	274.2	4	93.0	4	-1E+10	1	-1E+10	1	-1E+10	1	-1E+10	1	-1E+10	1	-1E+10	1
4902549	97	C	04/20/2023	12:57	-133.278	47.508	0	79.10	0	7.6250	0	32.3960	0	25.284	0	78.425	0	273.9	4	92.9	4	-1E+10	1	-1E+10	1	-1E+10	1	-1E+10	1	-1E+10	1	-1E+10	1
4902549	97	C	04/20/2023	12:57	-133.278	47.508	0	80.00	0	7.6250	0	32.3970	0	25.285	0	79.317	0	273.7	4	92.8	4	-1E+10	1	-1E+10	1	-1E+10	1	-1E+10	1	-1E+10	1	-1E+10	1
4902549	97	C	04/20/2023	12:57	-133.278	47.508	0	80.90	0	7.6250	0	32.3970	0	25.285	0	80.209	0	273.5	4	92.8	4	-1E+10	1	-1E+10	1	-1E+10	1	-1E+10	1	-1E+10	1	-1E+10	1
4902549	97	C	04/20/2023	12:57	-133.278	47.508	0	82.10	0	7.6210	0	32.3970	0	25.285	0	81.399	0	273.1	4	92.6	4	-1E+10	1	-1E+10	1	-1E+10	1	-1E+10	1	-1E+10	1	-1E+10	1
4902549	97	C	04/20/2023	12:57	-133.278	47.508	0	83.00	0	7.6200	0	32.3970	0	25.285	0	82.291	0	273.0	4	92.6	4	-1E+10	1	-1E+10	1	-1E+10	1	-1E+10	1	-1E+10	1	-1E+10	1
4902549	97	C	04/20/2023	12:57	-133.278	47.508	0	83.90	0	7.6160	0	32.3960	0	25.285	0	83.183	0	272.6	4	92.4	4	-1E+10	1	-1E+10	1	-1E+10	1	-1E+10	1	-1E+10	1	-1E+10	1
4902549	97	C	04/20/2023	12:57	-133.278	47.508	0	85.10	0	7.6040	0	32.3960	0	25.287	0	84.372	0	279.2	4	94.6	4	-1E+10	1	-1E+10	1	-1E+10	1	-1E+10	1	-1E+10	1	-1E+10	1
4902549	97	C	04/20/2023	12:57	-133.278	47.508	0	85.90	0	7.6010	0	32.3940	0	25.286	0	85.165	0	278.8	4	94.5	4	-1E+10	1	-1E+10	1	-1E+10	1	-1E+10	1	-1E+10	1	-1E+10	1
4902549	97	C	04/20/2023	12:57	-133.278	47.508	0	86.80	0	7.5800	0	32.3970	0	25.291	0	86.057	0	278.3	4	94.3	4	-1E+10	1	-1E+10	1	-1E+10	1	-1E+10	1	-1E+10	1	-1E+10	1
4902549	97	C	04/20/2023	12:57	-133.278	47.508	0	87.90	0	7.5540	0	32.3900	0	25.289	0	87.148	0	277.8	4	94.0	4	-1E+10	1	-1E+10	1	-1E+10	1	-1E+10	1	-1E+10	1	-1E+10	1
4902549	97	C	04/20/2023	12:57	-133.278	47.508	0	89.00	0	7.5540	0	32.3920	0	25.291	0	88.238	0	276.9	4	93.7	4	-1E+10	1	-1E+10	1	-1E+10	1	-1E+10	1	-1E+10	1	-1E+10	1
4902549	97	C	04/20/2023	12:57	-133.278	47.508	0	90.10	0	7.5490	0	32.3900	0	25.290	0	89.328	0	275.8	4	93.4	4	-1E+10	1	-1E+10	1	-1E+10	1	-1E+10	1	-1E+10	1	-1E+10	1
4902549	97	C	04/20/2023	12:57	-133.278	47.508	0	90.90	0	7.5420	0	32.3880	0	25.289	0	90.121	0	275.0	4	93.1	4	-1E+10	1	-1E+10	1	-1E+10	1	-1E+10	1	-1E+10	1	-1E+10	1
4902549	97	C	04/20/2023	12:57	-133.278	47.508	0	91.90	0	7.5380	0	32.3880	0	25.290	0	91.113	0	273.6	4	92.6	4	-1E+10	1	-1E+10	1	-1E+10	1	-1E+10	1	-1E+10	1	-1E+10	1
4902549	97	C	04/20/2023	12:57	-133.278	47.508	0	93.20	0	7.5090	0	32.3870	0	25.293	0	92.401	0	271.4	4	91.8	4	-1E+10	1	-1E+10	1	-1E+10	1	-1E+10	1	-1E+10	1	-1E+10	1
4902549	97	C	04/20/2023	12:57	-133.278	47.508	0	94.00	0	7.5220	0	32.3940	0	25.297	0	93.194	0	268.5	4	90.8	4	-1E+10	1	-1E+10	1	-1E+10	1	-1E+10	1	-1E+10	1	-1E+10	1
4902549	97	C	04/20/2023	12:57	-133.278	47.508	0	95.10	0	7.5340	0	32.4050	0	25.304	0	94.284	0	264.1	4	89.4	4	-1E+10	1	-1E+10	1	-1E+10	1	-1E+10	1	-1E+10	1	-1E+10	1
4902549	97	C	04/20/2023	12:57	-133.278	47.508	0	96.00	0	7.5470	0	32.4100	0	25.306	0	95.177	0	260.6	4	88.2	4	-1E+10	1	-1E+10	1	-1E+10	1	-1E+10	1	-1E+10	1	-1E+10	1
4902549	97	C	04/20/2023	12:57	-133.278	47.508	0	97.00	0	7.5550	0	32.4290	0	25.320	0	96.168	0	257.4	4	87.2	4	-1E+10	1	-1E+10	1	-1E+10	1	-1E+10	1	-1E+10	1	-1E+10	1
4902549	97	C	04/20/2023	12:57	-133.278	47.508	0	98.20	0	7.5490	0	32.4650	0	25.349	0	97.357	0	254.2	4	86.1	4	-1E+10	1	-1E+10	1	-1E+10	1	-1E+10	1	-1E+10	1	-1E+10	1
4902549	97	C	04/20/2023	12:57	-133.278	47.508	0	99.00	0	7.5460	0	32.4670	0	25.351	0	98.150	0	251.5	4	85.2	4	-1E+10	1	-1E+10	1	-1E+10	1	-1E+10	1	-1E+10	1	-1E+10	1
4902549	97	C	04/20/2023	12:57	-133.278	47.508	0	100.20	0	7.5380	0	32.4670	0	25.352	0	99.340	0	246.3	4	83.4	4	-1E+10	1	-1E+10	1	-1E+10	1	-1E+10	1	-1E+10	1	-1E+10	1
4902549	97	C	04/20/2023	12:57	-133.278	47.508	0	101.10	0	7.4890	0	32.4830	0	25.371	0	100.232	0	242.8	4	82.1	4	-1E+10	1	-1E+10	1	-1E+10	1	-1E+10	1	-1E+10	1	-1E+10	1
4902549	97	C	04/20/2023	12:57	-133.278	47.508	0	101.80	0	7.4450	0	32.5120	0	25.400	0	100.925	0	239.9	4	81.1	4	-1E+10	1	-1E+10	1	-1E+10	1	-1E+10	1	-1E+10	1	-1E+10	1
4902549	97	C	04/20/2023	12:57	-133.278	47.508	0	102.70	0	7.3760	0	32.5610	0	25.448	0	101.817	0	235.6	4	79.5	4	-1E+10	1	-1E+10	1	-1E+10	1	-1E+10	1	-1E+10	1	-1E+10	1
4902549	97	C	04/20/2023	12:57	-133.278	47.508	0	103.80	0	7.3770	0	32.6330	0	25.505	0	102.908	0	231.0	4	78.0	4	-1E+10	1	-1E+10	1	-1E+10	1	-1E+10	1	-1E+10	1	-1E+10	1
4902549	97	C	04/20/2023	12:57	-133.278	47.508	0	104.90	0	7.2820	0	32.7850	0	25.638	0	103.998	0	228.4	4	77.1	4	-1E+10	1	-1E+10	1	-1E+10	1	-1E+10	1	-1E+10	1	-1E+10	1
4902549	97	C	04/20/2023	12:57	-133.278	47.508	0	106.00	0	7.2110	0	32.8570	0	25.704	0	105.088	0	226.5	4	76.3	4	-1E+10	1	-1E+10	1	-1E+10	1	-1E+10	1	-1E+10	1	-1E+10	1
4902549	97	C	04/20/2023	12:57	-133.278	47.508	0	107.00	0	7.1530	0	32.9150	0	25.757	0	106.079	0	224.9	4	75.7	4	-1E+10	1	-1E+10	1	-1E+10	1	-1E+10	1	-1E+10	1	-1E+10	1
4902549	97	C	04/20/2023	12:57	-133.278	47.508	0	107.90	0	7.1360	0	32.9330	0	25.774	0	106.971	0	222.4	4	74.9	4	-1E+10	1	-1E+10	1	-1E+10	1	-1E+10	1	-1E+10	1	-1E+10	1
4902549	97	C	04/20/2023	12:57	-133.278	47.508	0	109.00	0	7.1030	0	32.9770	0	25.813	0	108.062	0	220.3	4	74.1	4	-1E+10	1	-1E+10	1	-1E+10	1	-1E+10	1	-1E+10	1	-1E+10	1
4902549	97	C	04/20/2023	12:57	-133.278	47.508	0	110.10	0	7.0940	0	32.9900	0	25.825	0	109.152	0	218.3	4	73.5	4	-1E+10	1	-1E+10	1	-1E+10	1	-1E+10	1	-1E+10	1	-1E+10	1
4902549	97	C	04/20/2023	12:57	-133.278	47.508	0	110.90	0	7.0880	0	32.9960	0	25.830	0	109.945	0	216.4	4	72.8	4	-1E+10	1	-1E+10	1	-1E+10	1	-1E+10	1	-1E+10	1	-1E+10	1
4902549	97	C	04/20/2023	12:57	-133.278	47.508	0	111.90	0	7.0520	0	33.0250	0	25.858	0	110.936	0	214.4	4	72.1	4	-1E+10	1	-1E+10	1	-1E+10	1	-1E+10	1	-1E+10	1	-1E+10	1
4902549	97	C	04/20/2023	12:57	-133.278	47.508	0	113.10	0	6.9910	0	33.0730	0	25.904	0	112.125	0	212.6	4	71.4	4	-1E+10	1	-1E+10	1	-1E+10	1	-1E+10	1	-1E+10	1	-1E+10	1
4902549	97	C	04/20/2023	12:57	-133.278	47.508	0	114.00	0	6.9810	0	33.0820	0	25.912	0	113.017	0	211.1	4	70.9	4	-1E+10	1	-1E+10	1	-1E+10	1	-1E+10	1	-1E+10	1	-1E+10	1
4902549	97	C	04/20/2023	12:57	-133.278	47.508	0	115.00	0	6.9620	0	33.1020	0	25.931	0	114.008	0	209.1	4	70.2	4	-1E+10	1	-1E+10	1	-1E+10	1	-1E+10	1	-1E+10	1	-1E+10	1
4902549	97	C	04/20/2023	12:57	-133.278	47.508	0	116.00	0	6.9440	0	33.1280	0	25.953	0	114.999	0	207.1	4	69.5	4	-1E+10	1	-1E+10	1	-1E+10	1	-1E+10	1	-1E+10	1	-1E+10	1
4902549	97	C	04/20/2023	12:57	-133.278	47.508	0	117.10	0	6.9250	0	33.1680	0	25.988	0	116.090	0	205.0	4	68.8	4	-1E+10	1	-1E+10	1	-1E+10	1	-1E+10	1	-1E+10	1	-1E+10	1
4902549	97	C	04/20/2023	12:57	-133.278	47.508	0	117.90	0	6.9690	0	33.2040	0	26.010	0	116.883	0	203.7	4	68.4	4	-1E+10	1	-1E+10	1	-1E+10	1	-1E+10	1	-1E+10	1	-1E+10	1
4902549	97	C	04/20/2023	12:57	-133.278	47.508	0	118.90	0	7.0650	0	33.2460	0	26.030	0	117.874	0	202.9	4	68.4	4	-1E+10	1	-1E+10	1	-1E+10	1	-1E+10	1	-1E+10	1	-1E+10	1
4902549	97	C	04/20/2023	12:57	-133.278	47.508	0	119.80	0	7.0590	0	33.2760	0	26.055	0	118.766	0	202.9	4	68.4	4	-1E+10	1	-1E+10	1	-1E+10	1	-1E+10	1	-1E+10	1	-1E+10	1
4902549	97	C	04/20/2023	12:57	-133.278	47.508	0	120.80	0	6.9200	0	33.2920	0	26.086	0	119.757	0	202.8	4	68.1	4	-1E+10	1	-1E+10	1	-1E+10	1	-1E+10	1	-1E+10	1	-1E+10	1
4902549	97	C	04/20/2023	12:57	-133.278	47.508	0	121.90	0	6.8550	0	33.2960	0	26.098	0	120.847	0	202.0	4	67.8	4	-1E+10	1	-1E+10	1	-1E+10	1	-1E+10	1	-1E+10	1	-1E+10	1
4902549	97	C	04/20/2023	12:57	-133.278	47.508	0	122.90	0	6.8240	0	33.3100	0	26.113	0	121.838	0	200.8	4	67.3	4	-1E+10	1	-1E+10	1	-1E+10	1	-1E+10	1	-1E+10	1	-1E+10	1
4902549	97	C	04/20/2023	12:57	-133.278	47.508	0	124.00	0	6.8050	0	33.3390	0	26.138	0	122.928	0	199.6	4	66.9	4	-1E+10	1	-1E+10	1	-1E+10	1	-1E+10	1	-1E+10	1	-1E+10	1
4902549	97	C	04/20/2023	12:57	-133.278	47.508	0	124.80	0	6.8190	0	33.3570	0	26.151	0	123.721	0	198.9	4	66.7	4	-1E+10	1	-1E+10	1	-1E+10	1	-1E+10	1	-1E+10	1	-1E+10	1
4902549	97	C	04/20/2023	12:57	-133.278	47.508	0	125.90	0	6.8440	0	33.3890	0	26.173	0	124.811	0	197.9	4	66.4	4	-1E+10	1	-1E+10	1	-1E+10	1	-1E+10	1	-1E+10	1	-1E+10	1
4902549	97	C	04/20/2023	12:57	-133.278	47.508	0	127.10	0	6.8510	0	33.3990	0	26.180	0	126.000	0	197.2	4	66.2	4	-1E+10	1	-1E+10	1	-1E+10	1	-1E+10	1	-1E+10	1	-1E+10	1
4902549	97	C	04/20/2023	12:57	-133.278	47.508	0	127.80	0	6.8530	0	33.4030	0	26.182	0	126.694	0	196.8	4	66.1	4	-1E+10	1	-1E+10	1	-1E+10	1	-1E+10	1	-1E+10	1	-1E+10	1
4902549	97	C	04/20/2023	12:57	-133.278	47.508	0	129.00	0	6.8610	0	33.4110	0	26.188	0	127.883	0	196.1	4	65.8	4	-1E+10	1	-1E+10	1	-1E+10	1	-1E+10	1	-1E+10	1	-1E+10	1
4902549	97	C	04/20/2023	12:57	-133.278	47.508	0	130.10	0	6.8660	0	33.4150	0	26.190	0	128.973	0	195.5	4	65.6	4	-1E+10	1	-1E+10	1	-1E+10	1	-1E+10	1	-1E+10	1	-1E+10	1
4902549	97	C	04/20/2023	12:57	-133.278	47.508	0	130.90	0	6.8690	0	33.4230	0	26.196	0	129.766	0	195.0	4	65.5	4	-1E+10	1	-1E+10	1	-1E+10	1	-1E+10	1	-1E+10	1	-1E+10	1
4902549	97	C	04/20/2023	12:57	-133.278	47.508	0	131.70	0	6.8710	0	33.4300	0	26.201	0	130.559	0	194.5	4	65.3	4	-1E+10	1	-1E+10	1	-1E+10	1	-1E+10	1	-1E+10	1	-1E+10	1
4902549	97	C	04/20/2023	12:57	-133.278	47.508	0	132.90	0	6.8730	0	33.4320	0	26.203	0	131.748	0	193.8	4	65.1	4	-1E+10	1	-1E+10	1	-1E+10	1	-1E+10	1	-1E+10	1	-1E+10	1
4902549	97	C	04/20/2023	12:57	-133.278	47.508	0	134.00	0	6.8730	0	33.4340	0	26.204	0	132.838	0	193.0	4	64.8	4	-1E+10	1	-1E+10	1	-1E+10	1	-1E+10	1	-1E+10	1	-1E+10	1
4902549	97	C	04/20/2023	12:57	-133.278	47.508	0	134.80	0	6.8680	0	33.4360	0	26.206	0	133.631	0	192.4	4	64.6	4	-1E+10	1	-1E+10	1	-1E+10	1	-1E+10	1	-1E+10	1	-1E+10	1
4902549	97	C	04/20/2023	12:57	-133.278	47.508	0	135.90	0	6.8660	0	33.4380	0	26.208	0	134.721	0	191.6	4	64.3	4	-1E+10	1	-1E+10	1	-1E+10	1	-1E+10	1	-1E+10	1	-1E+10	1
4902549	97	C	04/20/2023	12:57	-133.278	47.508	0	137.10	0	6.8640	0	33.4540	0	26.221	0	135.911	0	190.6	4	64.0	4	-1E+10	1	-1E+10	1	-1E+10	1	-1E+10	1	-1E+10	1	-1E+10	1
4902549	97	C	04/20/2023	12:57	-133.278	47.508	0	137.90	0	6.8550	0	33.4590	0	26.226	0	136.703	0	189.9	4	63.8	4	-1E+10	1	-1E+10	1	-1E+10	1	-1E+10	1	-1E+10	1	-1E+10	1
4902549	97	C	04/20/2023	12:57	-133.278	47.508	0	139.00	0	6.8540	0	33.4760	0	26.240	0	137.793	0	188.8	4	63.4	4	-1E+10	1	-1E+10	1	-1E+10	1	-1E+10	1	-1E+10	1	-1E+10	1
4902549	97	C	04/20/2023	12:57	-133.278	47.508	0	140.20	0	6.8400	0	33.5090	0	26.268	0	138.983	0	187.8	4	63.1	4	-1E+10	1	-1E+10	1	-1E+10	1	-1E+10	1	-1E+10	1	-1E+10	1
4902549	97	C	04/20/2023	12:57	-133.278	47.508	0	141.00	0	6.8290	0	33.5110	0	26.271	0	139.775	0	187.2	4	62.8	4	-1E+10	1	-1E+10	1	-1E+10	1	-1E+10	1	-1E+10	1	-1E+10	1
4902549	97	C	04/20/2023	12:57	-133.278	47.508	0	141.80	0	6.8340	0	33.5230	0	26.280	0	140.568	0	186.5	4	62.6	4	-1E+10	1	-1E+10	1	-1E+10	1	-1E+10	1	-1E+10	1	-1E+10	1
4902549	97	C	04/20/2023	12:57	-133.278	47.508	0	143.00	0	6.8130	0	33.5410	0	26.297	0	141.757	0	185.5	4	62.3	4	-1E+10	1	-1E+10	1	-1E+10	1	-1E+10	1	-1E+10	1	-1E+10	1
4902549	97	C	04/20/2023	12:57	-133.278	47.508	0	144.20	0	6.7950	0	33.5530	0	26.309	0	142.946	0	184.5	4	61.9	4	-1E+10	1	-1E+10	1	-1E+10	1	-1E+10	1	-1E+10	1	-1E+10	1
4902549	97	C	04/20/2023	12:57	-133.278	47.508	0	145.10	0	6.7920	0	33.5670	0	26.320	0	143.838	0	183.6	4	61.6	4	-1E+10	1	-1E+10	1	-1E+10	1	-1E+10	1	-1E+10	1	-1E+10	1
4902549	97	C	04/20/2023	12:57	-133.278	47.508	0	145.90	0	6.7600	0	33.5720	0	26.328	0	144.631	0	182.6	4	61.2	4	-1E+10	1	-1E+10	1	-1E+10	1	-1E+10	1	-1E+10	1	-1E+10	1
4902549	97	C	04/20/2023	12:57	-133.278	47.508	0	146.70	0	6.7140	0	33.5800	0	26.341	0	145.424	0	181.5	4	60.8	4	-1E+10	1	-1E+10	1	-1E+10	1	-1E+10	1	-1E+10	1	-1E+10	1
4902549	97	C	04/20/2023	12:57	-133.278	47.508	0	147.90	0	6.7470	0	33.5850	0	26.340	0	146.613	0	179.6	4	60.2	4	-1E+10	1	-1E+10	1	-1E+10	1	-1E+10	1	-1E+10	1	-1E+10	1
4902549	97	C	04/20/2023	12:57	-133.278	47.508	0	149.20	0	6.8040	0	33.6150	0	26.356	0	147.901	0	177.8	4	59.7	4	-1E+10	1	-1E+10	1	-1E+10	1	-1E+10	1	-1E+10	1	-1E+10	1
4902549	97	C	04/20/2023	12:57	-133.278	47.508	0	150.00	0	6.8190	0	33.6140	0	26.353	0	148.694	0	176.8	4	59.4	4	-1E+10	1	-1E+10	1	-1E+10	1	-1E+10	1	-1E+10	1	-1E+10	1
4902549	97	C	04/20/2023	12:57	-133.278	47.508	0	150.90	0	6.8610	0	33.6420	0	26.370	0	149.586	0	176.0	4	59.2	4	-1E+10	1	-1E+10	1	-1E+10	1	-1E+10	1	-1E+10	1	-1E+10	1
4902549	97	C	04/20/2023	12:57	-133.278	47.508	0	151.80	0	6.8740	0	33.6510	0	26.375	0	150.478	0	175.5	4	59.0	4	-1E+10	1	-1E+10	1	-1E+10	1	-1E+10	1	-1E+10	1	-1E+10	1
4902549	97	C	04/20/2023	12:57	-133.278	47.508	0	152.60	0	6.8750	0	33.6520	0	26.376	0	151.270	0	175.0	4	58.9	4	-1E+10	1	-1E+10	1	-1E+10	1	-1E+10	1	-1E+10	1	-1E+10	1
4902549	97	C	04/20/2023	12:57	-133.278	47.508	0	153.90	0	6.8730	0	33.6630	0	26.385	0	152.559	0	174.3	4	58.6	4	-1E+10	1	-1E+10	1	-1E+10	1	-1E+10	1	-1E+10	1	-1E+10	1
4902549	97	C	04/20/2023	12:57	-133.278	47.508	0	155.20	0	6.8660	0	33.6690	0	26.391	0	153.847	0	173.6	4	58.4	4	-1E+10	1	-1E+10	1	-1E+10	1	-1E+10	1	-1E+10	1	-1E+10	1
4902549	97	C	04/20/2023	12:57	-133.278	47.508	0	156.10	0	6.8640	0	33.6690	0	26.391	0	154.739	0	173.0	4	58.2	4	-1E+10	1	-1E+10	1	-1E+10	1	-1E+10	1	-1E+10	1	-1E+10	1
4902549	97	C	04/20/2023	12:57	-133.278	47.508	0	157.00	0	6.8530	0	33.6760	0	26.398	0	155.630	0	172.5	4	58.0	4	-1E+10	1	-1E+10	1	-1E+10	1	-1E+10	1	-1E+10	1	-1E+10	1
4902549	97	C	04/20/2023	12:57	-133.278	47.508	0	157.90	0	6.8360	0	33.6880	0	26.410	0	156.522	0	172.2	4	57.9	4	-1E+10	1	-1E+10	1	-1E+10	1	-1E+10	1	-1E+10	1	-1E+10	1
4902549	97	C	04/20/2023	12:57	-133.278	47.508	0	158.80	0	6.8220	0	33.6980	0	26.419	0	157.414	0	171.9	4	57.8	4	-1E+10	1	-1E+10	1	-1E+10	1	-1E+10	1	-1E+10	1	-1E+10	1
4902549	97	C	04/20/2023	12:57	-133.278	47.508	0	159.70	0	6.8100	0	33.7040	0	26.426	0	158.306	0	171.6	4	57.7	4	-1E+10	1	-1E+10	1	-1E+10	1	-1E+10	1	-1E+10	1	-1E+10	1
4902549	97	C	04/20/2023	12:57	-133.278	47.508	0	160.70	0	6.7860	0	33.7080	0	26.432	0	159.297	0	171.3	4	57.6	4	-1E+10	1	-1E+10	1	-1E+10	1	-1E+10	1	-1E+10	1	-1E+10	1
4902549	97	C	04/20/2023	12:57	-133.278	47.508	0	161.60	0	6.7770	0	33.7050	0	26.431	0	160.188	0	171.1	4	57.5	4	-1E+10	1	-1E+10	1	-1E+10	1	-1E+10	1	-1E+10	1	-1E+10	1
4902549	97	C	04/20/2023	12:57	-133.278	47.508	0	162.50	0	6.7740	0	33.7050	0	26.431	0	161.080	0	170.7	4	57.3	4	-1E+10	1	-1E+10	1	-1E+10	1	-1E+10	1	-1E+10	1	-1E+10	1
4902549	97	C	04/20/2023	12:57	-133.278	47.508	0	163.90	0	6.7660	0	33.7070	0	26.434	0	162.467	0	170.1	4	57.1	4	-1E+10	1	-1E+10	1	-1E+10	1	-1E+10	1	-1E+10	1	-1E+10	1
4902549	97	C	04/20/2023	12:57	-133.278	47.508	0	165.30	0	6.7540	0	33.7110	0	26.439	0	163.855	0	169.4	4	56.9	4	-1E+10	1	-1E+10	1	-1E+10	1	-1E+10	1	-1E+10	1	-1E+10	1
4902549	97	C	04/20/2023	12:57	-133.278	47.508	0	166.30	0	6.7490	0	33.7110	0	26.439	0	164.846	0	169.0	4	56.7	4	-1E+10	1	-1E+10	1	-1E+10	1	-1E+10	1	-1E+10	1	-1E+10	1
4902549	97	C	04/20/2023	12:57	-133.278	47.508	0	167.20	0	6.7450	0	33.7130	0	26.442	0	165.737	0	168.5	4	56.5	4	-1E+10	1	-1E+10	1	-1E+10	1	-1E+10	1	-1E+10	1	-1E+10	1
4902549	97	C	04/20/2023	12:57	-133.278	47.508	0	168.10	0	6.7390	0	33.7130	0	26.442	0	166.629	0	167.8	4	56.3	4	-1E+10	1	-1E+10	1	-1E+10	1	-1E+10	1	-1E+10	1	-1E+10	1
4902549	97	C	04/20/2023	12:57	-133.278	47.508	0	169.10	0	6.7330	0	33.7140	0	26.444	0	167.620	0	167.2	4	56.1	4	-1E+10	1	-1E+10	1	-1E+10	1	-1E+10	1	-1E+10	1	-1E+10	1
4902549	97	C	04/20/2023	12:57	-133.278	47.508	0	170.10	0	6.7250	0	33.7190	0	26.449	0	168.611	0	166.7	4	55.9	4	-1E+10	1	-1E+10	1	-1E+10	1	-1E+10	1	-1E+10	1	-1E+10	1
4902549	97	C	04/20/2023	12:57	-133.278	47.508	0	171.10	0	6.7180	0	33.7210	0	26.452	0	169.602	0	166.1	4	55.7	4	-1E+10	1	-1E+10	1	-1E+10	1	-1E+10	1	-1E+10	1	-1E+10	1
4902549	97	C	04/20/2023	12:57	-133.278	47.508	0	172.00	0	6.7010	0	33.7310	0	26.462	0	170.493	0	165.5	4	55.5	4	-1E+10	1	-1E+10	1	-1E+10	1	-1E+10	1	-1E+10	1	-1E+10	1
4902549	97	C	04/20/2023	12:57	-133.278	47.508	0	173.00	0	6.6900	0	33.7330	0	26.465	0	171.484	0	165.2	4	55.4	4	-1E+10	1	-1E+10	1	-1E+10	1	-1E+10	1	-1E+10	1	-1E+10	1
4902549	97	C	04/20/2023	12:57	-133.278	47.508	0	174.00	0	6.6910	0	33.7370	0	26.468	0	172.475	0	164.8	4	55.2	4	-1E+10	1	-1E+10	1	-1E+10	1	-1E+10	1	-1E+10	1	-1E+10	1
4902549	97	C	04/20/2023	12:57	-133.278	47.508	0	174.90	0	6.6860	0	33.7400	0	26.471	0	173.367	0	164.4	4	55.1	4	-1E+10	1	-1E+10	1	-1E+10	1	-1E+10	1	-1E+10	1	-1E+10	1
4902549	97	C	04/20/2023	12:57	-133.278	47.508	0	175.90	0	6.6820	0	33.7420	0	26.473	0	174.358	0	164.0	4	55.0	4	-1E+10	1	-1E+10	1	-1E+10	1	-1E+10	1	-1E+10	1	-1E+10	1
4902549	97	C	04/20/2023	12:57	-133.278	47.508	0	176.80	0	6.6800	0	33.7420	0	26.473	0	175.249	0	163.7	4	54.9	4	-1E+10	1	-1E+10	1	-1E+10	1	-1E+10	1	-1E+10	1	-1E+10	1
4902549	97	C	04/20/2023	12:57	-133.278	47.508	0	177.80	0	6.6790	0	33.7430	0	26.474	0	176.240	0	163.2	4	54.7	4	-1E+10	1	-1E+10	1	-1E+10	1	-1E+10	1	-1E+10	1	-1E+10	1
4902549	97	C	04/20/2023	12:57	-133.278	47.508	0	178.80	0	6.6800	0	33.7410	0	26.472	0	177.231	0	162.7	4	54.5	4	-1E+10	1	-1E+10	1	-1E+10	1	-1E+10	1	-1E+10	1	-1E+10	1
4902549	97	C	04/20/2023	12:57	-133.278	47.508	0	179.70	0	6.6800	0	33.7410	0	26.472	0	178.123	0	162.1	4	54.3	4	-1E+10	1	-1E+10	1	-1E+10	1	-1E+10	1	-1E+10	1	-1E+10	1
4902549	97	C	04/20/2023	12:57	-133.278	47.508	0	180.60	0	6.6770	0	33.7440	0	26.475	0	179.014	0	161.5	4	54.1	4	-1E+10	1	-1E+10	1	-1E+10	1	-1E+10	1	-1E+10	1	-1E+10	1
4902549	97	C	04/20/2023	12:57	-133.278	47.508	0	181.60	0	6.6570	0	33.7470	0	26.480	0	180.005	0	161.1	4	54.0	4	-1E+10	1	-1E+10	1	-1E+10	1	-1E+10	1	-1E+10	1	-1E+10	1
4902549	97	C	04/20/2023	12:57	-133.278	47.508	0	182.50	0	6.6150	0	33.7540	0	26.491	0	180.897	0	160.7	4	53.8	4	-1E+10	1	-1E+10	1	-1E+10	1	-1E+10	1	-1E+10	1	-1E+10	1
4902549	97	C	04/20/2023	12:57	-133.278	47.508	0	183.90	0	6.5920	0	33.7560	0	26.496	0	182.284	0	160.1	4	53.6	4	-1E+10	1	-1E+10	1	-1E+10	1	-1E+10	1	-1E+10	1	-1E+10	1
4902549	97	C	04/20/2023	12:57	-133.278	47.508	0	185.40	0	6.5810	0	33.7560	0	26.497	0	183.770	0	159.4	4	53.3	4	-1E+10	1	-1E+10	1	-1E+10	1	-1E+10	1	-1E+10	1	-1E+10	1
4902549	97	C	04/20/2023	12:57	-133.278	47.508	0	186.30	0	6.5650	0	33.7610	0	26.503	0	184.662	0	158.8	4	53.1	4	-1E+10	1	-1E+10	1	-1E+10	1	-1E+10	1	-1E+10	1	-1E+10	1
4902549	97	C	04/20/2023	12:57	-133.278	47.508	0	187.30	0	6.5460	0	33.7580	0	26.504	0	185.652	0	158.4	4	52.9	4	-1E+10	1	-1E+10	1	-1E+10	1	-1E+10	1	-1E+10	1	-1E+10	1
4902549	97	C	04/20/2023	12:57	-133.278	47.508	0	188.30	0	6.5520	0	33.7610	0	26.505	0	186.643	0	157.9	4	52.8	4	-1E+10	1	-1E+10	1	-1E+10	1	-1E+10	1	-1E+10	1	-1E+10	1
4902549	97	C	04/20/2023	12:57	-133.278	47.508	0	189.30	0	6.5450	0	33.7640	0	26.508	0	187.634	0	157.2	4	52.6	4	-1E+10	1	-1E+10	1	-1E+10	1	-1E+10	1	-1E+10	1	-1E+10	1
4902549	97	C	04/20/2023	12:57	-133.278	47.508	0	190.20	0	6.5420	0	33.7620	0	26.507	0	188.526	0	156.7	4	52.3	4	-1E+10	1	-1E+10	1	-1E+10	1	-1E+10	1	-1E+10	1	-1E+10	1
4902549	97	C	04/20/2023	12:57	-133.278	47.508	0	191.20	0	6.5420	0	33.7640	0	26.509	0	189.516	0	155.9	4	52.1	4	-1E+10	1	-1E+10	1	-1E+10	1	-1E+10	1	-1E+10	1	-1E+10	1
4902549	97	C	04/20/2023	12:57	-133.278	47.508	0	192.20	0	6.5290	0	33.7670	0	26.513	0	190.507	0	155.2	4	51.8	4	-1E+10	1	-1E+10	1	-1E+10	1	-1E+10	1	-1E+10	1	-1E+10	1
4902549	97	C	04/20/2023	12:57	-133.278	47.508	0	193.10	0	6.5150	0	33.7640	0	26.512	0	191.399	0	154.4	4	51.6	4	-1E+10	1	-1E+10	1	-1E+10	1	-1E+10	1	-1E+10	1	-1E+10	1
4902549	97	C	04/20/2023	12:57	-133.278	47.508	0	194.10	0	6.4970	0	33.7670	0	26.517	0	192.389	0	153.7	4	51.3	4	-1E+10	1	-1E+10	1	-1E+10	1	-1E+10	1	-1E+10	1	-1E+10	1
4902549	97	C	04/20/2023	12:57	-133.278	47.508	0	195.10	0	6.4810	0	33.7630	0	26.516	0	193.380	0	152.8	4	51.0	4	-1E+10	1	-1E+10	1	-1E+10	1	-1E+10	1	-1E+10	1	-1E+10	1
4902549	97	C	04/20/2023	12:57	-133.278	47.508	0	196.00	0	6.4500	0	33.7730	0	26.528	0	194.272	0	151.9	4	50.7	4	-1E+10	1	-1E+10	1	-1E+10	1	-1E+10	1	-1E+10	1	-1E+10	1
4902549	97	C	04/20/2023	12:57	-133.278	47.508	0	197.00	0	6.4090	0	33.7700	0	26.531	0	195.263	0	151.1	4	50.3	4	-1E+10	1	-1E+10	1	-1E+10	1	-1E+10	1	-1E+10	1	-1E+10	1
4902549	97	C	04/20/2023	12:57	-133.278	47.508	0	198.00	0	6.3580	0	33.7710	0	26.538	0	196.253	0	150.6	4	50.1	4	-1E+10	1	-1E+10	1	-1E+10	1	-1E+10	1	-1E+10	1	-1E+10	1
4902549	97	C	04/20/2023	12:57	-133.278	47.508	0	199.00	0	6.3350	0	33.7720	0	26.542	0	197.244	0	150.1	4	49.9	4	-1E+10	1	-1E+10	1	-1E+10	1	-1E+10	1	-1E+10	1	-1E+10	1
4902549	97	C	04/20/2023	12:57	-133.278	47.508	0	200.00	0	6.3250	0	33.7690	0	26.541	0	198.235	0	149.6	4	49.7	4	-1E+10	1	-1E+10	1	-1E+10	1	-1E+10	1	-1E+10	1	-1E+10	1
4902549	97	C	04/20/2023	12:57	-133.278	47.508	0	201.00	0	6.3250	0	33.7690	0	26.541	0	199.225	0	148.8	4	49.5	4	-1E+10	1	-1E+10	1	-1E+10	1	-1E+10	1	-1E+10	1	-1E+10	1
4902549	97	C	04/20/2023	12:57	-133.278	47.508	0	201.90	0	6.3250	0	33.7690	0	26.541	0	200.117	0	148.1	4	49.2	4	-1E+10	1	-1E+10	1	-1E+10	1	-1E+10	1	-1E+10	1	-1E+10	1
4902549	97	C	04/20/2023	12:57	-133.278	47.508	0	202.90	0	6.3020	0	33.7740	0	26.548	0	201.108	0	147.3	4	49.0	4	-1E+10	1	-1E+10	1	-1E+10	1	-1E+10	1	-1E+10	1	-1E+10	1
4902549	97	C	04/20/2023	12:57	-133.278	47.508	0	203.90	0	6.2820	0	33.7740	0	26.551	0	202.098	0	146.6	4	48.7	4	-1E+10	1	-1E+10	1	-1E+10	1	-1E+10	1	-1E+10	1	-1E+10	1
4902549	97	C	04/20/2023	12:57	-133.278	47.508	0	204.90	0	6.2700	0	33.7740	0	26.552	0	203.089	0	146.0	4	48.5	4	-1E+10	1	-1E+10	1	-1E+10	1	-1E+10	1	-1E+10	1	-1E+10	1
4902549	97	C	04/20/2023	12:57	-133.278	47.508	0	205.90	0	6.2680	0	33.7730	0	26.552	0	204.080	0	145.2	4	48.2	4	-1E+10	1	-1E+10	1	-1E+10	1	-1E+10	1	-1E+10	1	-1E+10	1
4902549	97	C	04/20/2023	12:57	-133.278	47.508	0	206.80	0	6.2620	0	33.7740	0	26.553	0	204.971	0	144.4	4	47.9	4	-1E+10	1	-1E+10	1	-1E+10	1	-1E+10	1	-1E+10	1	-1E+10	1
4902549	97	C	04/20/2023	12:57	-133.278	47.508	0	207.80	0	6.2560	0	33.7730	0	26.553	0	205.962	0	143.5	4	47.6	4	-1E+10	1	-1E+10	1	-1E+10	1	-1E+10	1	-1E+10	1	-1E+10	1
4902549	97	C	04/20/2023	12:57	-133.278	47.508	0	208.80	0	6.2410	0	33.7760	0	26.557	0	206.953	0	142.7	4	47.3	4	-1E+10	1	-1E+10	1	-1E+10	1	-1E+10	1	-1E+10	1	-1E+10	1
4902549	97	C	04/20/2023	12:57	-133.278	47.508	0	209.80	0	6.2250	0	33.7780	0	26.561	0	207.943	0	141.8	4	47.0	4	-1E+10	1	-1E+10	1	-1E+10	1	-1E+10	1	-1E+10	1	-1E+10	1
4902549	97	C	04/20/2023	12:57	-133.278	47.508	0	210.70	0	6.2170	0	33.7750	0	26.560	0	208.835	0	140.8	4	46.7	4	-1E+10	1	-1E+10	1	-1E+10	1	-1E+10	1	-1E+10	1	-1E+10	1
4902549	97	C	04/20/2023	12:57	-133.278	47.508	0	211.70	0	6.2130	0	33.7750	0	26.560	0	209.825	0	139.8	4	46.4	4	-1E+10	1	-1E+10	1	-1E+10	1	-1E+10	1	-1E+10	1	-1E+10	1
4902549	97	C	04/20/2023	12:57	-133.278	47.508	0	212.70	0	6.1930	0	33.7850	0	26.571	0	210.816	0	138.7	4	46.0	4	-1E+10	1	-1E+10	1	-1E+10	1	-1E+10	1	-1E+10	1	-1E+10	1
4902549	97	C	04/20/2023	12:57	-133.278	47.508	0	213.70	0	6.1710	0	33.7790	0	26.569	0	211.807	0	137.8	4	45.7	4	-1E+10	1	-1E+10	1	-1E+10	1	-1E+10	1	-1E+10	1	-1E+10	1
4902549	97	C	04/20/2023	12:57	-133.278	47.508	0	214.70	0	6.1600	0	33.7810	0	26.572	0	212.797	0	136.9	4	45.3	4	-1E+10	1	-1E+10	1	-1E+10	1	-1E+10	1	-1E+10	1	-1E+10	1
4902549	97	C	04/20/2023	12:57	-133.278	47.508	0	215.70	0	6.1500	0	33.7800	0	26.572	0	213.788	0	135.9	4	45.0	4	-1E+10	1	-1E+10	1	-1E+10	1	-1E+10	1	-1E+10	1	-1E+10	1
4902549	97	C	04/20/2023	12:57	-133.278	47.508	0	216.70	0	6.1430	0	33.7810	0	26.574	0	214.779	0	134.9	4	44.7	4	-1E+10	1	-1E+10	1	-1E+10	1	-1E+10	1	-1E+10	1	-1E+10	1
4902549	97	C	04/20/2023	12:57	-133.278	47.508	0	217.70	0	6.1070	0	33.7910	0	26.586	0	215.769	0	133.9	4	44.3	4	-1E+10	1	-1E+10	1	-1E+10	1	-1E+10	1	-1E+10	1	-1E+10	1
4902549	97	C	04/20/2023	12:57	-133.278	47.508	0	218.80	0	6.0620	0	33.7900	0	26.591	0	216.859	0	133.3	4	44.1	4	-1E+10	1	-1E+10	1	-1E+10	1	-1E+10	1	-1E+10	1	-1E+10	1
4902549	97	C	04/20/2023	12:57	-133.278	47.508	0	219.80	0	6.0260	0	33.7880	0	26.594	0	217.849	0	132.7	4	43.8	4	-1E+10	1	-1E+10	1	-1E+10	1	-1E+10	1	-1E+10	1	-1E+10	1
4902549	97	C	04/20/2023	12:57	-133.278	47.508	0	220.80	0	6.0110	0	33.7910	0	26.598	0	218.840	0	132.1	4	43.6	4	-1E+10	1	-1E+10	1	-1E+10	1	-1E+10	1	-1E+10	1	-1E+10	1
4902549	97	C	04/20/2023	12:57	-133.278	47.508	0	221.80	0	5.9830	0	33.7950	0	26.605	0	219.831	0	131.6	4	43.4	4	-1E+10	1	-1E+10	1	-1E+10	1	-1E+10	1	-1E+10	1	-1E+10	1
4902549	97	C	04/20/2023	12:57	-133.278	47.508	0	222.90	0	5.9790	0	33.7920	0	26.603	0	220.920	0	131.1	4	43.3	4	-1E+10	1	-1E+10	1	-1E+10	1	-1E+10	1	-1E+10	1	-1E+10	1
4902549	97	C	04/20/2023	12:57	-133.278	47.508	0	223.90	0	5.9680	0	33.7900	0	26.603	0	221.911	0	130.6	4	43.1	4	-1E+10	1	-1E+10	1	-1E+10	1	-1E+10	1	-1E+10	1	-1E+10	1
4902549	97	C	04/20/2023	12:57	-133.278	47.508	0	224.90	0	5.9680	0	33.7890	0	26.602	0	222.901	0	129.9	4	42.8	4	-1E+10	1	-1E+10	1	-1E+10	1	-1E+10	1	-1E+10	1	-1E+10	1
4902549	97	C	04/20/2023	12:57	-133.278	47.508	0	225.90	0	5.9670	0	33.7890	0	26.602	0	223.892	0	129.2	4	42.6	4	-1E+10	1	-1E+10	1	-1E+10	1	-1E+10	1	-1E+10	1	-1E+10	1
4902549	97	C	04/20/2023	12:57	-133.278	47.508	0	226.90	0	5.9450	0	33.7970	0	26.611	0	224.883	0	128.5	4	42.4	4	-1E+10	1	-1E+10	1	-1E+10	1	-1E+10	1	-1E+10	1	-1E+10	1
4902549	97	C	04/20/2023	12:57	-133.278	47.508	0	228.00	0	5.9110	0	33.7990	0	26.617	0	225.972	0	127.9	4	42.1	4	-1E+10	1	-1E+10	1	-1E+10	1	-1E+10	1	-1E+10	1	-1E+10	1
4902549	97	C	04/20/2023	12:57	-133.278	47.508	0	229.00	0	5.8800	0	33.7890	0	26.613	0	226.963	0	127.4	4	41.9	4	-1E+10	1	-1E+10	1	-1E+10	1	-1E+10	1	-1E+10	1	-1E+10	1
4902549	97	C	04/20/2023	12:57	-133.278	47.508	0	230.10	0	5.8660	0	33.7970	0	26.621	0	228.052	0	126.9	4	41.7	4	-1E+10	1	-1E+10	1	-1E+10	1	-1E+10	1	-1E+10	1	-1E+10	1
4902549	97	C	04/20/2023	12:57	-133.278	47.508	0	231.10	0	5.8510	0	33.7940	0	26.621	0	229.043	0	126.4	4	41.6	4	-1E+10	1	-1E+10	1	-1E+10	1	-1E+10	1	-1E+10	1	-1E+10	1
4902549	97	C	04/20/2023	12:57	-133.278	47.508	0	232.20	0	5.8400	0	33.7920	0	26.621	0	230.132	0	125.8	4	41.4	4	-1E+10	1	-1E+10	1	-1E+10	1	-1E+10	1	-1E+10	1	-1E+10	1
4902549	97	C	04/20/2023	12:57	-133.278	47.508	0	233.20	0	5.8230	0	33.7970	0	26.627	0	231.123	0	125.3	4	41.2	4	-1E+10	1	-1E+10	1	-1E+10	1	-1E+10	1	-1E+10	1	-1E+10	1
4902549	97	C	04/20/2023	12:57	-133.278	47.508	0	234.30	0	5.8030	0	33.7980	0	26.630	0	232.213	0	124.8	4	41.0	4	-1E+10	1	-1E+10	1	-1E+10	1	-1E+10	1	-1E+10	1	-1E+10	1
4902549	97	C	04/20/2023	12:57	-133.278	47.508	0	235.40	0	5.7930	0	33.7940	0	26.628	0	233.302	0	124.4	4	40.9	4	-1E+10	1	-1E+10	1	-1E+10	1	-1E+10	1	-1E+10	1	-1E+10	1
4902549	97	C	04/20/2023	12:57	-133.278	47.508	0	236.40	0	5.7900	0	33.7950	0	26.629	0	234.293	0	123.8	4	40.7	4	-1E+10	1	-1E+10	1	-1E+10	1	-1E+10	1	-1E+10	1	-1E+10	1
4902549	97	C	04/20/2023	12:57	-133.278	47.508	0	237.50	0	5.7800	0	33.8020	0	26.636	0	235.382	0	123.2	4	40.5	4	-1E+10	1	-1E+10	1	-1E+10	1	-1E+10	1	-1E+10	1	-1E+10	1
4902549	97	C	04/20/2023	12:57	-133.278	47.508	0	238.60	0	5.7720	0	33.7960	0	26.632	0	236.472	0	122.7	4	40.3	4	-1E+10	1	-1E+10	1	-1E+10	1	-1E+10	1	-1E+10	1	-1E+10	1
4902549	97	C	04/20/2023	12:57	-133.278	47.508	0	239.70	0	5.7590	0	33.8000	0	26.637	0	237.561	0	122.1	4	40.1	4	-1E+10	1	-1E+10	1	-1E+10	1	-1E+10	1	-1E+10	1	-1E+10	1
4902549	97	C	04/20/2023	12:57	-133.278	47.508	0	240.70	0	5.7440	0	33.8000	0	26.639	0	238.552	0	121.6	4	39.9	4	-1E+10	1	-1E+10	1	-1E+10	1	-1E+10	1	-1E+10	1	-1E+10	1
4902549	97	C	04/20/2023	12:57	-133.278	47.508	0	241.80	0	5.7410	0	33.7980	0	26.637	0	239.641	0	121.1	4	39.7	4	-1E+10	1	-1E+10	1	-1E+10	1	-1E+10	1	-1E+10	1	-1E+10	1
4902549	97	C	04/20/2023	12:57	-133.278	47.508	0	242.90	0	5.7300	0	33.7950	0	26.636	0	240.731	0	120.6	4	39.6	4	-1E+10	1	-1E+10	1	-1E+10	1	-1E+10	1	-1E+10	1	-1E+10	1
4902549	97	C	04/20/2023	12:57	-133.278	47.508	0	244.00	0	5.7090	0	33.8070	0	26.649	0	241.821	0	120.3	4	39.4	4	-1E+10	1	-1E+10	1	-1E+10	1	-1E+10	1	-1E+10	1	-1E+10	1
4902549	97	C	04/20/2023	12:57	-133.278	47.508	0	245.10	0	5.6950	0	33.8030	0	26.647	0	242.910	0	120.0	4	39.3	4	-1E+10	1	-1E+10	1	-1E+10	1	-1E+10	1	-1E+10	1	-1E+10	1
4902549	97	C	04/20/2023	12:57	-133.278	47.508	0	246.20	0	5.6890	0	33.8050	0	26.649	0	244.000	0	119.7	4	39.2	4	-1E+10	1	-1E+10	1	-1E+10	1	-1E+10	1	-1E+10	1	-1E+10	1
4902549	97	C	04/20/2023	12:57	-133.278	47.508	0	247.30	0	5.6640	0	33.8020	0	26.650	0	245.089	0	119.3	4	39.1	4	-1E+10	1	-1E+10	1	-1E+10	1	-1E+10	1	-1E+10	1	-1E+10	1
4902549	97	C	04/20/2023	12:57	-133.278	47.508	0	248.40	0	5.6450	0	33.8030	0	26.653	0	246.179	0	119.0	4	39.0	4	-1E+10	1	-1E+10	1	-1E+10	1	-1E+10	1	-1E+10	1	-1E+10	1
4902549	97	C	04/20/2023	12:57	-133.278	47.508	0	249.50	0	5.6160	0	33.8020	0	26.656	0	247.268	0	118.7	4	38.8	4	-1E+10	1	-1E+10	1	-1E+10	1	-1E+10	1	-1E+10	1	-1E+10	1
4902549	97	C	04/20/2023	12:57	-133.278	47.508	0	250.60	0	5.6050	0	33.7990	0	26.655	0	248.358	0	118.2	4	38.7	4	-1E+10	1	-1E+10	1	-1E+10	1	-1E+10	1	-1E+10	1	-1E+10	1
4902549	97	C	04/20/2023	12:57	-133.278	47.508	0	251.60	0	5.5930	0	33.7970	0	26.655	0	249.348	0	117.7	4	38.5	4	-1E+10	1	-1E+10	1	-1E+10	1	-1E+10	1	-1E+10	1	-1E+10	1
4902549	97	C	04/20/2023	12:57	-133.278	47.508	0	252.70	0	5.5680	0	33.8080	0	26.666	0	250.438	0	117.2	4	38.3	4	-1E+10	1	-1E+10	1	-1E+10	1	-1E+10	1	-1E+10	1	-1E+10	1
4902549	97	C	04/20/2023	12:57	-133.278	47.508	0	253.70	0	5.5350	0	33.7970	0	26.662	0	251.428	0	116.7	4	38.1	4	-1E+10	1	-1E+10	1	-1E+10	1	-1E+10	1	-1E+10	1	-1E+10	1
4902549	97	C	04/20/2023	12:57	-133.278	47.508	0	254.80	0	5.5210	0	33.7930	0	26.660	0	252.517	0	116.0	4	37.9	4	-1E+10	1	-1E+10	1	-1E+10	1	-1E+10	1	-1E+10	1	-1E+10	1
4902549	97	C	04/20/2023	12:57	-133.278	47.508	0	255.90	0	5.5030	0	33.7940	0	26.663	0	253.607	0	115.2	4	37.6	4	-1E+10	1	-1E+10	1	-1E+10	1	-1E+10	1	-1E+10	1	-1E+10	1
4902549	97	C	04/20/2023	12:57	-133.278	47.508	0	257.00	0	5.4620	0	33.8040	0	26.676	0	254.696	0	114.3	4	37.3	4	-1E+10	1	-1E+10	1	-1E+10	1	-1E+10	1	-1E+10	1	-1E+10	1
4902549	97	C	04/20/2023	12:57	-133.278	47.508	0	258.00	0	5.4150	0	33.7970	0	26.676	0	255.687	0	113.6	4	37.0	4	-1E+10	1	-1E+10	1	-1E+10	1	-1E+10	1	-1E+10	1	-1E+10	1
4902549	97	C	04/20/2023	12:57	-133.278	47.508	0	259.10	0	5.3860	0	33.7970	0	26.679	0	256.776	0	112.8	4	36.7	4	-1E+10	1	-1E+10	1	-1E+10	1	-1E+10	1	-1E+10	1	-1E+10	1
4902549	97	C	04/20/2023	12:57	-133.278	47.508	0	260.20	0	5.3750	0	33.7980	0	26.681	0	257.866	0	112.1	4	36.5	4	-1E+10	1	-1E+10	1	-1E+10	1	-1E+10	1	-1E+10	1	-1E+10	1
4902549	97	C	04/20/2023	12:57	-133.278	47.508	0	261.20	0	5.3450	0	33.7950	0	26.683	0	258.856	0	111.4	4	36.2	4	-1E+10	1	-1E+10	1	-1E+10	1	-1E+10	1	-1E+10	1	-1E+10	1
4902549	97	C	04/20/2023	12:57	-133.278	47.508	0	262.30	0	5.3330	0	33.7950	0	26.684	0	259.946	0	110.6	4	35.9	4	-1E+10	1	-1E+10	1	-1E+10	1	-1E+10	1	-1E+10	1	-1E+10	1
4902549	97	C	04/20/2023	12:57	-133.278	47.508	0	263.40	0	5.3170	0	33.8000	0	26.690	0	261.035	0	109.7	4	35.6	4	-1E+10	1	-1E+10	1	-1E+10	1	-1E+10	1	-1E+10	1	-1E+10	1
4902549	97	C	04/20/2023	12:57	-133.278	47.508	0	264.50	0	5.2760	0	33.7980	0	26.693	0	262.124	0	109.0	4	35.4	4	-1E+10	1	-1E+10	1	-1E+10	1	-1E+10	1	-1E+10	1	-1E+10	1
4902549	97	C	04/20/2023	12:57	-133.278	47.508	0	265.60	0	5.2680	0	33.7940	0	26.691	0	263.214	0	108.1	4	35.1	4	-1E+10	1	-1E+10	1	-1E+10	1	-1E+10	1	-1E+10	1	-1E+10	1
4902549	97	C	04/20/2023	12:57	-133.278	47.508	0	266.70	0	5.2510	0	33.8020	0	26.699	0	264.303	0	107.2	4	34.8	4	-1E+10	1	-1E+10	1	-1E+10	1	-1E+10	1	-1E+10	1	-1E+10	1
4902549	97	C	04/20/2023	12:57	-133.278	47.508	0	267.80	0	5.2210	0	33.7990	0	26.700	0	265.393	0	106.5	4	34.5	4	-1E+10	1	-1E+10	1	-1E+10	1	-1E+10	1	-1E+10	1	-1E+10	1
4902549	97	C	04/20/2023	12:57	-133.278	47.508	0	268.90	0	5.2100	0	33.7980	0	26.701	0	266.482	0	105.7	4	34.3	4	-1E+10	1	-1E+10	1	-1E+10	1	-1E+10	1	-1E+10	1	-1E+10	1
4902549	97	C	04/20/2023	12:57	-133.278	47.508	0	269.90	0	5.1930	0	33.7980	0	26.703	0	267.472	0	104.9	4	34.0	4	-1E+10	1	-1E+10	1	-1E+10	1	-1E+10	1	-1E+10	1	-1E+10	1
4902549	97	C	04/20/2023	12:57	-133.278	47.508	0	271.00	0	5.1800	0	33.8010	0	26.707	0	268.562	0	104.1	4	33.7	4	-1E+10	1	-1E+10	1	-1E+10	1	-1E+10	1	-1E+10	1	-1E+10	1
4902549	97	C	04/20/2023	12:57	-133.278	47.508	0	272.10	0	5.1590	0	33.8020	0	26.710	0	269.651	0	103.5	4	33.5	4	-1E+10	1	-1E+10	1	-1E+10	1	-1E+10	1	-1E+10	1	-1E+10	1
4902549	97	C	04/20/2023	12:57	-133.278	47.508	0	273.20	0	5.1460	0	33.8000	0	26.710	0	270.741	0	102.8	4	33.3	4	-1E+10	1	-1E+10	1	-1E+10	1	-1E+10	1	-1E+10	1	-1E+10	1
4902549	97	C	04/20/2023	12:57	-133.278	47.508	0	274.20	0	5.1460	0	33.8010	0	26.711	0	271.731	0	102.2	4	33.1	4	-1E+10	1	-1E+10	1	-1E+10	1	-1E+10	1	-1E+10	1	-1E+10	1
4902549	97	C	04/20/2023	12:57	-133.278	47.508	0	275.30	0	5.1040	0	33.8020	0	26.716	0	272.820	0	101.7	4	32.9	4	-1E+10	1	-1E+10	1	-1E+10	1	-1E+10	1	-1E+10	1	-1E+10	1
4902549	97	C	04/20/2023	12:57	-133.278	47.508	0	276.40	0	5.0940	0	33.8030	0	26.718	0	273.910	0	101.1	4	32.7	4	-1E+10	1	-1E+10	1	-1E+10	1	-1E+10	1	-1E+10	1	-1E+10	1
4902549	97	C	04/20/2023	12:57	-133.278	47.508	0	277.40	0	5.0750	0	33.8020	0	26.720	0	274.900	0	100.5	4	32.5	4	-1E+10	1	-1E+10	1	-1E+10	1	-1E+10	1	-1E+10	1	-1E+10	1
4902549	97	C	04/20/2023	12:57	-133.278	47.508	0	278.50	0	5.0540	0	33.8030	0	26.723	0	275.989	0	99.9	4	32.3	4	-1E+10	1	-1E+10	1	-1E+10	1	-1E+10	1	-1E+10	1	-1E+10	1
4902549	97	C	04/20/2023	12:57	-133.278	47.508	0	279.60	0	5.0390	0	33.8030	0	26.724	0	277.079	0	99.4	4	32.1	4	-1E+10	1	-1E+10	1	-1E+10	1	-1E+10	1	-1E+10	1	-1E+10	1
4902549	97	C	04/20/2023	12:57	-133.278	47.508	0	280.70	0	5.0280	0	33.8040	0	26.726	0	278.168	0	98.9	4	31.9	4	-1E+10	1	-1E+10	1	-1E+10	1	-1E+10	1	-1E+10	1	-1E+10	1
4902549	97	C	04/20/2023	12:57	-133.278	47.508	0	281.70	0	5.0150	0	33.8040	0	26.728	0	279.158	0	98.4	4	31.7	4	-1E+10	1	-1E+10	1	-1E+10	1	-1E+10	1	-1E+10	1	-1E+10	1
4902549	97	C	04/20/2023	12:57	-133.278	47.508	0	282.80	0	5.0100	0	33.8040	0	26.729	0	280.248	0	97.8	4	31.6	4	-1E+10	1	-1E+10	1	-1E+10	1	-1E+10	1	-1E+10	1	-1E+10	1
4902549	97	C	04/20/2023	12:57	-133.278	47.508	0	283.80	0	5.0070	0	33.8040	0	26.729	0	281.238	0	97.2	4	31.3	4	-1E+10	1	-1E+10	1	-1E+10	1	-1E+10	1	-1E+10	1	-1E+10	1
4902549	97	C	04/20/2023	12:57	-133.278	47.508	0	284.90	0	5.0030	0	33.8040	0	26.729	0	282.327	0	96.5	4	31.1	4	-1E+10	1	-1E+10	1	-1E+10	1	-1E+10	1	-1E+10	1	-1E+10	1
4902549	97	C	04/20/2023	12:57	-133.278	47.508	0	285.90	0	4.9960	0	33.8040	0	26.730	0	283.318	0	95.7	4	30.9	4	-1E+10	1	-1E+10	1	-1E+10	1	-1E+10	1	-1E+10	1	-1E+10	1
4902549	97	C	04/20/2023	12:57	-133.278	47.508	0	287.00	0	4.9930	0	33.8030	0	26.730	0	284.407	0	94.9	4	30.6	4	-1E+10	1	-1E+10	1	-1E+10	1	-1E+10	1	-1E+10	1	-1E+10	1
4902549	97	C	04/20/2023	12:57	-133.278	47.508	0	288.00	0	4.9580	0	33.8040	0	26.734	0	285.397	0	94.2	4	30.3	4	-1E+10	1	-1E+10	1	-1E+10	1	-1E+10	1	-1E+10	1	-1E+10	1
4902549	97	C	04/20/2023	12:57	-133.278	47.508	0	289.10	0	4.9240	0	33.8070	0	26.741	0	286.486	0	93.6	4	30.1	4	-1E+10	1	-1E+10	1	-1E+10	1	-1E+10	1	-1E+10	1	-1E+10	1
4902549	97	C	04/20/2023	12:57	-133.278	47.508	0	290.10	0	4.9110	0	33.8090	0	26.744	0	287.477	0	93.1	4	30.0	4	-1E+10	1	-1E+10	1	-1E+10	1	-1E+10	1	-1E+10	1	-1E+10	1
4902549	97	C	04/20/2023	12:57	-133.278	47.508	0	291.20	0	4.8720	0	33.8100	0	26.749	0	288.566	0	92.7	4	29.8	4	-1E+10	1	-1E+10	1	-1E+10	1	-1E+10	1	-1E+10	1	-1E+10	1
4902549	97	C	04/20/2023	12:57	-133.278	47.508	0	292.30	0	4.8580	0	33.8090	0	26.750	0	289.655	0	92.4	4	29.7	4	-1E+10	1	-1E+10	1	-1E+10	1	-1E+10	1	-1E+10	1	-1E+10	1
4902549	97	C	04/20/2023	12:57	-133.278	47.508	0	293.30	0	4.8450	0	33.8120	0	26.753	0	290.646	0	92.0	4	29.6	4	-1E+10	1	-1E+10	1	-1E+10	1	-1E+10	1	-1E+10	1	-1E+10	1
4902549	97	C	04/20/2023	12:57	-133.278	47.508	0	294.40	0	4.8390	0	33.8120	0	26.754	0	291.735	0	91.7	4	29.5	4	-1E+10	1	-1E+10	1	-1E+10	1	-1E+10	1	-1E+10	1	-1E+10	1
4902549	97	C	04/20/2023	12:57	-133.278	47.508	0	295.40	0	4.8370	0	33.8120	0	26.754	0	292.725	0	91.3	4	29.3	4	-1E+10	1	-1E+10	1	-1E+10	1	-1E+10	1	-1E+10	1	-1E+10	1
4902549	97	C	04/20/2023	12:57	-133.278	47.508	0	296.50	0	4.8230	0	33.8120	0	26.756	0	293.814	0	91.0	4	29.2	4	-1E+10	1	-1E+10	1	-1E+10	1	-1E+10	1	-1E+10	1	-1E+10	1
4902549	97	C	04/20/2023	12:57	-133.278	47.508	0	297.50	0	4.8200	0	33.8130	0	26.757	0	294.805	0	90.6	4	29.1	4	-1E+10	1	-1E+10	1	-1E+10	1	-1E+10	1	-1E+10	1	-1E+10	1
4902549	97	C	04/20/2023	12:57	-133.278	47.508	0	298.60	0	4.8180	0	33.8130	0	26.757	0	295.894	0	90.2	4	29.0	4	-1E+10	1	-1E+10	1	-1E+10	1	-1E+10	1	-1E+10	1	-1E+10	1
4902549	97	C	04/20/2023	12:57	-133.278	47.508	0	299.60	0	4.8120	0	33.8140	0	26.759	0	296.884	0	89.8	4	28.8	4	-1E+10	1	-1E+10	1	-1E+10	1	-1E+10	1	-1E+10	1	-1E+10	1
4902549	97	C	04/20/2023	12:57	-133.278	47.508	0	300.60	0	4.8070	0	33.8130	0	26.759	0	297.874	0	89.4	4	28.7	4	-1E+10	1	-1E+10	1	-1E+10	1	-1E+10	1	-1E+10	1	-1E+10	1
4902549	97	C	04/20/2023	12:57	-133.278	47.508	0	301.60	0	4.8030	0	33.8130	0	26.759	0	298.864	0	88.9	4	28.5	4	-1E+10	1	-1E+10	1	-1E+10	1	-1E+10	1	-1E+10	1	-1E+10	1
4902549	97	C	04/20/2023	12:57	-133.278	47.508	0	302.60	0	4.7970	0	33.8160	0	26.762	0	299.855	0	88.4	4	28.4	4	-1E+10	1	-1E+10	1	-1E+10	1	-1E+10	1	-1E+10	1	-1E+10	1
4902549	97	C	04/20/2023	12:57	-133.278	47.508	0	303.70	0	4.7810	0	33.8170	0	26.765	0	300.944	0	87.9	4	28.2	4	-1E+10	1	-1E+10	1	-1E+10	1	-1E+10	1	-1E+10	1	-1E+10	1
4902549	97	C	04/20/2023	12:57	-133.278	47.508	0	304.90	0	4.7780	0	33.8150	0	26.763	0	302.132	0	87.3	4	28.0	4	-1E+10	1	-1E+10	1	-1E+10	1	-1E+10	1	-1E+10	1	-1E+10	1
4902549	97	C	04/20/2023	12:57	-133.278	47.508	0	306.10	0	4.7720	0	33.8160	0	26.765	0	303.320	0	86.6	4	27.8	4	-1E+10	1	-1E+10	1	-1E+10	1	-1E+10	1	-1E+10	1	-1E+10	1
4902549	97	C	04/20/2023	12:57	-133.278	47.508	0	306.90	0	4.7430	0	33.8200	0	26.771	0	304.113	0	86.4	4	27.7	4	-1E+10	1	-1E+10	1	-1E+10	1	-1E+10	1	-1E+10	1	-1E+10	1
4902549	97	C	04/20/2023	12:57	-133.278	47.508	0	308.00	0	4.7400	0	33.8240	0	26.775	0	305.202	0	86.0	4	27.6	4	-1E+10	1	-1E+10	1	-1E+10	1	-1E+10	1	-1E+10	1	-1E+10	1
4902549	97	C	04/20/2023	12:57	-133.278	47.508	0	309.20	0	4.7380	0	33.8240	0	26.775	0	306.390	0	85.6	4	27.4	4	-1E+10	1	-1E+10	1	-1E+10	1	-1E+10	1	-1E+10	1	-1E+10	1
4902549	97	C	04/20/2023	12:57	-133.278	47.508	0	310.00	0	4.7360	0	33.8250	0	26.776	0	307.182	0	85.3	4	27.4	4	-1E+10	1	-1E+10	1	-1E+10	1	-1E+10	1	-1E+10	1	-1E+10	1
4902549	97	C	04/20/2023	12:57	-133.278	47.508	0	310.80	0	4.7400	0	33.8270	0	26.777	0	307.974	0	85.1	4	27.3	4	-1E+10	1	-1E+10	1	-1E+10	1	-1E+10	1	-1E+10	1	-1E+10	1
4902549	97	C	04/20/2023	12:57	-133.278	47.508	0	312.00	0	4.7410	0	33.8270	0	26.777	0	309.162	0	84.6	4	27.1	4	-1E+10	1	-1E+10	1	-1E+10	1	-1E+10	1	-1E+10	1	-1E+10	1
4902549	97	C	04/20/2023	12:57	-133.278	47.508	0	313.20	0	4.7370	0	33.8270	0	26.778	0	310.351	0	84.0	4	26.9	4	-1E+10	1	-1E+10	1	-1E+10	1	-1E+10	1	-1E+10	1	-1E+10	1
4902549	97	C	04/20/2023	12:57	-133.278	47.508	0	314.00	0	4.7290	0	33.8270	0	26.778	0	311.143	0	83.7	4	26.8	4	-1E+10	1	-1E+10	1	-1E+10	1	-1E+10	1	-1E+10	1	-1E+10	1
4902549	97	C	04/20/2023	12:57	-133.278	47.508	0	314.80	0	4.7210	0	33.8280	0	26.780	0	311.935	0	83.3	4	26.7	4	-1E+10	1	-1E+10	1	-1E+10	1	-1E+10	1	-1E+10	1	-1E+10	1
4902549	97	C	04/20/2023	12:57	-133.278	47.508	0	316.00	0	4.7190	0	33.8310	0	26.783	0	313.123	0	82.7	4	26.5	4	-1E+10	1	-1E+10	1	-1E+10	1	-1E+10	1	-1E+10	1	-1E+10	1
4902549	97	C	04/20/2023	12:57	-133.278	47.508	0	317.20	0	4.7120	0	33.8340	0	26.786	0	314.311	0	82.2	4	26.3	4	-1E+10	1	-1E+10	1	-1E+10	1	-1E+10	1	-1E+10	1	-1E+10	1
4902549	97	C	04/20/2023	12:57	-133.278	47.508	0	318.00	0	4.7070	0	33.8350	0	26.787	0	315.103	0	81.8	4	26.2	4	-1E+10	1	-1E+10	1	-1E+10	1	-1E+10	1	-1E+10	1	-1E+10	1
4902549	97	C	04/20/2023	12:57	-133.278	47.508	0	318.80	0	4.7050	0	33.8350	0	26.787	0	315.895	0	81.5	4	26.1	4	-1E+10	1	-1E+10	1	-1E+10	1	-1E+10	1	-1E+10	1	-1E+10	1
4902549	97	C	04/20/2023	12:57	-133.278	47.508	0	319.60	0	4.7040	0	33.8360	0	26.788	0	316.687	0	81.0	4	26.0	4	-1E+10	1	-1E+10	1	-1E+10	1	-1E+10	1	-1E+10	1	-1E+10	1
4902549	97	C	04/20/2023	12:57	-133.278	47.508	0	320.90	0	4.7020	0	33.8350	0	26.788	0	317.975	0	80.4	4	25.8	4	-1E+10	1	-1E+10	1	-1E+10	1	-1E+10	1	-1E+10	1	-1E+10	1
4902549	97	C	04/20/2023	12:57	-133.278	47.508	0	322.00	0	4.6880	0	33.8400	0	26.793	0	319.064	0	79.8	4	25.6	4	-1E+10	1	-1E+10	1	-1E+10	1	-1E+10	1	-1E+10	1	-1E+10	1
4902549	97	C	04/20/2023	12:57	-133.278	47.508	0	322.90	0	4.6780	0	33.8420	0	26.796	0	319.955	0	79.5	4	25.5	4	-1E+10	1	-1E+10	1	-1E+10	1	-1E+10	1	-1E+10	1	-1E+10	1
4902549	97	C	04/20/2023	12:57	-133.278	47.508	0	323.70	0	4.6770	0	33.8420	0	26.796	0	320.747	0	79.2	4	25.3	4	-1E+10	1	-1E+10	1	-1E+10	1	-1E+10	1	-1E+10	1	-1E+10	1
4902549	97	C	04/20/2023	12:57	-133.278	47.508	0	324.90	0	4.6710	0	33.8420	0	26.797	0	321.935	0	78.6	4	25.2	4	-1E+10	1	-1E+10	1	-1E+10	1	-1E+10	1	-1E+10	1	-1E+10	1
4902549	97	C	04/20/2023	12:57	-133.278	47.508	0	326.10	0	4.6580	0	33.8440	0	26.800	0	323.123	0	78.1	4	25.0	4	-1E+10	1	-1E+10	1	-1E+10	1	-1E+10	1	-1E+10	1	-1E+10	1
4902549	97	C	04/20/2023	12:57	-133.278	47.508	0	327.00	0	4.6480	0	33.8470	0	26.803	0	324.014	0	77.9	4	24.9	4	-1E+10	1	-1E+10	1	-1E+10	1	-1E+10	1	-1E+10	1	-1E+10	1
4902549	97	C	04/20/2023	12:57	-133.278	47.508	0	327.80	0	4.6340	0	33.8480	0	26.806	0	324.806	0	77.7	4	24.8	4	-1E+10	1	-1E+10	1	-1E+10	1	-1E+10	1	-1E+10	1	-1E+10	1
4902549	97	C	04/20/2023	12:57	-133.278	47.508	0	328.60	0	4.6330	0	33.8480	0	26.806	0	325.598	0	77.4	4	24.8	4	-1E+10	1	-1E+10	1	-1E+10	1	-1E+10	1	-1E+10	1	-1E+10	1
4902549	97	C	04/20/2023	12:57	-133.278	47.508	0	329.90	0	4.6300	0	33.8480	0	26.806	0	326.885	0	77.1	4	24.6	4	-1E+10	1	-1E+10	1	-1E+10	1	-1E+10	1	-1E+10	1	-1E+10	1
4902549	97	C	04/20/2023	12:57	-133.278	47.508	0	331.10	0	4.6260	0	33.8500	0	26.808	0	328.074	0	76.7	4	24.5	4	-1E+10	1	-1E+10	1	-1E+10	1	-1E+10	1	-1E+10	1	-1E+10	1
4902549	97	C	04/20/2023	12:57	-133.278	47.508	0	332.00	0	4.6260	0	33.8500	0	26.808	0	328.965	0	76.4	4	24.4	4	-1E+10	1	-1E+10	1	-1E+10	1	-1E+10	1	-1E+10	1	-1E+10	1
4902549	97	C	04/20/2023	12:57	-133.278	47.508	0	332.80	0	4.6260	0	33.8490	0	26.807	0	329.757	0	76.1	4	24.3	4	-1E+10	1	-1E+10	1	-1E+10	1	-1E+10	1	-1E+10	1	-1E+10	1
4902549	97	C	04/20/2023	12:57	-133.278	47.508	0	333.70	0	4.6250	0	33.8500	0	26.808	0	330.648	0	75.8	4	24.2	4	-1E+10	1	-1E+10	1	-1E+10	1	-1E+10	1	-1E+10	1	-1E+10	1
4902549	97	C	04/20/2023	12:57	-133.278	47.508	0	334.90	0	4.6160	0	33.8510	0	26.810	0	331.836	0	75.3	4	24.1	4	-1E+10	1	-1E+10	1	-1E+10	1	-1E+10	1	-1E+10	1	-1E+10	1
4902549	97	C	04/20/2023	12:57	-133.278	47.508	0	336.20	0	4.6140	0	33.8520	0	26.811	0	333.123	0	74.7	4	23.9	4	-1E+10	1	-1E+10	1	-1E+10	1	-1E+10	1	-1E+10	1	-1E+10	1
4902549	97	C	04/20/2023	12:57	-133.278	47.508	0	337.10	0	4.6120	0	33.8530	0	26.812	0	334.014	0	74.3	4	23.8	4	-1E+10	1	-1E+10	1	-1E+10	1	-1E+10	1	-1E+10	1	-1E+10	1
4902549	97	C	04/20/2023	12:57	-133.278	47.508	0	337.90	0	4.6090	0	33.8540	0	26.813	0	334.806	0	74.0	4	23.6	4	-1E+10	1	-1E+10	1	-1E+10	1	-1E+10	1	-1E+10	1	-1E+10	1
4902549	97	C	04/20/2023	12:57	-133.278	47.508	0	338.80	0	4.5950	0	33.8570	0	26.817	0	335.697	0	73.6	4	23.5	4	-1E+10	1	-1E+10	1	-1E+10	1	-1E+10	1	-1E+10	1	-1E+10	1
4902549	97	C	04/20/2023	12:57	-133.278	47.508	0	339.70	0	4.5920	0	33.8570	0	26.817	0	336.588	0	73.3	4	23.4	4	-1E+10	1	-1E+10	1	-1E+10	1	-1E+10	1	-1E+10	1	-1E+10	1
4902549	97	C	04/20/2023	12:57	-133.278	47.508	0	341.00	0	4.5830	0	33.8570	0	26.818	0	337.875	0	72.8	4	23.2	4	-1E+10	1	-1E+10	1	-1E+10	1	-1E+10	1	-1E+10	1	-1E+10	1
4902549	97	C	04/20/2023	12:57	-133.278	47.508	0	342.30	0	4.5780	0	33.8570	0	26.819	0	339.162	0	72.2	4	23.1	4	-1E+10	1	-1E+10	1	-1E+10	1	-1E+10	1	-1E+10	1	-1E+10	1
4902549	97	C	04/20/2023	12:57	-133.278	47.508	0	343.20	0	4.5670	0	33.8590	0	26.822	0	340.053	0	71.9	4	23.0	4	-1E+10	1	-1E+10	1	-1E+10	1	-1E+10	1	-1E+10	1	-1E+10	1
4902549	97	C	04/20/2023	12:57	-133.278	47.508	0	344.00	0	4.5640	0	33.8590	0	26.822	0	340.845	0	71.6	4	22.9	4	-1E+10	1	-1E+10	1	-1E+10	1	-1E+10	1	-1E+10	1	-1E+10	1
4902549	97	C	04/20/2023	12:57	-133.278	47.508	0	344.90	0	4.5530	0	33.8620	0	26.826	0	341.736	0	71.3	4	22.8	4	-1E+10	1	-1E+10	1	-1E+10	1	-1E+10	1	-1E+10	1	-1E+10	1
4902549	97	C	04/20/2023	12:57	-133.278	47.508	0	345.80	0	4.5450	0	33.8630	0	26.827	0	342.627	0	71.1	4	22.7	4	-1E+10	1	-1E+10	1	-1E+10	1	-1E+10	1	-1E+10	1	-1E+10	1
4902549	97	C	04/20/2023	12:57	-133.278	47.508	0	346.70	0	4.5420	0	33.8640	0	26.828	0	343.518	0	70.8	4	22.6	4	-1E+10	1	-1E+10	1	-1E+10	1	-1E+10	1	-1E+10	1	-1E+10	1
4902549	97	C	04/20/2023	12:57	-133.278	47.508	0	347.60	0	4.5380	0	33.8630	0	26.828	0	344.409	0	70.6	4	22.5	4	-1E+10	1	-1E+10	1	-1E+10	1	-1E+10	1	-1E+10	1	-1E+10	1
4902549	97	C	04/20/2023	12:57	-133.278	47.508	0	348.90	0	4.5330	0	33.8640	0	26.829	0	345.696	0	70.2	4	22.4	4	-1E+10	1	-1E+10	1	-1E+10	1	-1E+10	1	-1E+10	1	-1E+10	1
4902549	97	C	04/20/2023	12:57	-133.278	47.508	0	350.30	0	4.5300	0	33.8640	0	26.830	0	347.082	0	69.8	4	22.3	4	-1E+10	1	-1E+10	1	-1E+10	1	-1E+10	1	-1E+10	1	-1E+10	1
4902549	97	C	04/20/2023	12:57	-133.278	47.508	0	353.00	0	4.5190	0	33.8660	0	26.833	0	349.755	0	69.0	4	22.0	4	-1E+10	1	-1E+10	1	-1E+10	1	-1E+10	1	-1E+10	1	-1E+10	1
4902549	97	C	04/20/2023	12:57	-133.278	47.508	0	357.60	0	4.5000	0	33.8740	0	26.841	0	354.309	0	67.9	4	21.6	4	-1E+10	1	-1E+10	1	-1E+10	1	-1E+10	1	-1E+10	1	-1E+10	1
4902549	97	C	04/20/2023	12:57	-133.278	47.508	0	362.90	0	4.4850	0	33.8770	0	26.845	0	359.555	0	66.8	4	21.3	4	-1E+10	1	-1E+10	1	-1E+10	1	-1E+10	1	-1E+10	1	-1E+10	1
4902549	97	C	04/20/2023	12:57	-133.278	47.508	0	368.30	0	4.4730	0	33.8820	0	26.850	0	364.901	0	65.5	4	20.9	4	-1E+10	1	-1E+10	1	-1E+10	1	-1E+10	1	-1E+10	1	-1E+10	1
4902549	97	C	04/20/2023	12:57	-133.278	47.508	0	373.40	0	4.4630	0	33.8850	0	26.854	0	369.949	0	64.2	4	20.5	4	-1E+10	1	-1E+10	1	-1E+10	1	-1E+10	1	-1E+10	1	-1E+10	1
4902549	97	C	04/20/2023	12:57	-133.278	47.508	0	378.00	0	4.4510	0	33.8910	0	26.860	0	374.503	0	63.0	4	20.1	4	-1E+10	1	-1E+10	1	-1E+10	1	-1E+10	1	-1E+10	1	-1E+10	1
4902549	97	C	04/20/2023	12:57	-133.278	47.508	0	382.70	0	4.4430	0	33.8950	0	26.864	0	379.155	0	61.8	4	19.7	4	-1E+10	1	-1E+10	1	-1E+10	1	-1E+10	1	-1E+10	1	-1E+10	1
4902549	97	C	04/20/2023	12:57	-133.278	47.508	0	387.90	0	4.4370	0	33.8970	0	26.866	0	384.302	0	59.9	4	19.1	4	-1E+10	1	-1E+10	1	-1E+10	1	-1E+10	1	-1E+10	1	-1E+10	1
4902549	97	C	04/20/2023	12:57	-133.278	47.508	0	393.10	0	4.4120	0	33.9080	0	26.878	0	389.449	0	58.3	4	18.6	4	-1E+10	1	-1E+10	1	-1E+10	1	-1E+10	1	-1E+10	1	-1E+10	1
4902549	97	C	04/20/2023	12:57	-133.278	47.508	0	398.30	0	4.3880	0	33.9150	0	26.886	0	394.595	0	57.1	4	18.2	4	-1E+10	1	-1E+10	1	-1E+10	1	-1E+10	1	-1E+10	1	-1E+10	1
4902549	97	C	04/20/2023	12:57	-133.278	47.508	0	403.00	0	4.3790	0	33.9170	0	26.888	0	399.247	0	56.2	4	17.9	4	-1E+10	1	-1E+10	1	-1E+10	1	-1E+10	1	-1E+10	1	-1E+10	1
4902549	97	C	04/20/2023	12:57	-133.278	47.508	0	407.70	0	4.3690	0	33.9210	0	26.893	0	403.899	0	55.0	4	17.5	4	-1E+10	1	-1E+10	1	-1E+10	1	-1E+10	1	-1E+10	1	-1E+10	1
4902549	97	C	04/20/2023	12:57	-133.278	47.508	0	413.10	0	4.3500	0	33.9270	0	26.899	0	409.243	0	53.9	4	17.1	4	-1E+10	1	-1E+10	1	-1E+10	1	-1E+10	1	-1E+10	1	-1E+10	1
4902549	97	C	04/20/2023	12:57	-133.278	47.508	0	417.90	0	4.3420	0	33.9310	0	26.904	0	413.994	0	52.8	4	16.8	4	-1E+10	1	-1E+10	1	-1E+10	1	-1E+10	1	-1E+10	1	-1E+10	1
4902549	97	C	04/20/2023	12:57	-133.278	47.508	0	422.70	0	4.3270	0	33.9380	0	26.911	0	418.744	0	51.7	4	16.4	4	-1E+10	1	-1E+10	1	-1E+10	1	-1E+10	1	-1E+10	1	-1E+10	1
4902549	97	C	04/20/2023	12:57	-133.278	47.508	0	427.90	0	4.3130	0	33.9450	0	26.918	0	423.890	0	50.6	4	16.1	4	-1E+10	1	-1E+10	1	-1E+10	1	-1E+10	1	-1E+10	1	-1E+10	1
4902549	97	C	04/20/2023	12:57	-133.278	47.508	0	433.20	0	4.3040	0	33.9500	0	26.923	0	429.135	0	49.5	4	15.7	4	-1E+10	1	-1E+10	1	-1E+10	1	-1E+10	1	-1E+10	1	-1E+10	1
4902549	97	C	04/20/2023	12:57	-133.278	47.508	0	437.90	0	4.2990	0	33.9550	0	26.927	0	433.786	0	48.4	4	15.4	4	-1E+10	1	-1E+10	1	-1E+10	1	-1E+10	1	-1E+10	1	-1E+10	1
4902549	97	C	04/20/2023	12:57	-133.278	47.508	0	442.90	0	4.2910	0	33.9610	0	26.933	0	438.733	0	46.9	4	14.9	4	-1E+10	1	-1E+10	1	-1E+10	1	-1E+10	1	-1E+10	1	-1E+10	1
4902549	97	C	04/20/2023	12:57	-133.278	47.508	0	448.10	0	4.2830	0	33.9710	0	26.942	0	443.879	0	45.4	4	14.4	4	-1E+10	1	-1E+10	1	-1E+10	1	-1E+10	1	-1E+10	1	-1E+10	1
4902549	97	C	04/20/2023	12:57	-133.278	47.508	0	452.90	0	4.2750	0	33.9780	0	26.948	0	448.629	0	43.9	4	13.9	4	-1E+10	1	-1E+10	1	-1E+10	1	-1E+10	1	-1E+10	1	-1E+10	1
4902549	97	C	04/20/2023	12:57	-133.278	47.508	0	457.80	0	4.2540	0	33.9910	0	26.961	0	453.477	0	42.8	4	13.6	4	-1E+10	1	-1E+10	1	-1E+10	1	-1E+10	1	-1E+10	1	-1E+10	1
4902549	97	C	04/20/2023	12:57	-133.278	47.508	0	462.80	0	4.2450	0	33.9960	0	26.966	0	458.424	0	42.0	4	13.3	4	-1E+10	1	-1E+10	1	-1E+10	1	-1E+10	1	-1E+10	1	-1E+10	1
4902549	97	C	04/20/2023	12:57	-133.278	47.508	0	467.90	0	4.2390	0	33.9990	0	26.969	0	463.470	0	41.4	4	13.1	4	-1E+10	1	-1E+10	1	-1E+10	1	-1E+10	1	-1E+10	1	-1E+10	1
4902549	97	C	04/20/2023	12:57	-133.278	47.508	0	473.10	0	4.2320	0	34.0020	0	26.972	0	468.615	0	40.5	4	12.8	4	-1E+10	1	-1E+10	1	-1E+10	1	-1E+10	1	-1E+10	1	-1E+10	1
4902549	97	C	04/20/2023	12:57	-133.278	47.508	0	478.10	0	4.2290	0	34.0080	0	26.977	0	473.562	0	39.6	4	12.6	4	-1E+10	1	-1E+10	1	-1E+10	1	-1E+10	1	-1E+10	1	-1E+10	1
4902549	97	C	04/20/2023	12:57	-133.278	47.508	0	483.10	0	4.2180	0	34.0130	0	26.982	0	478.509	0	38.9	4	12.3	4	-1E+10	1	-1E+10	1	-1E+10	1	-1E+10	1	-1E+10	1	-1E+10	1
4902549	97	C	04/20/2023	12:57	-133.278	47.508	0	488.10	0	4.2020	0	34.0160	0	26.986	0	483.456	0	38.2	4	12.1	4	-1E+10	1	-1E+10	1	-1E+10	1	-1E+10	1	-1E+10	1	-1E+10	1
4902549	97	C	04/20/2023	12:57	-133.278	47.508	0	492.80	0	4.1930	0	34.0200	0	26.990	0	488.105	0	37.1	4	11.8	4	-1E+10	1	-1E+10	1	-1E+10	1	-1E+10	1	-1E+10	1	-1E+10	1
4902549	97	C	04/20/2023	12:57	-133.278	47.508	0	498.00	0	4.1840	0	34.0270	0	26.997	0	493.250	0	35.8	4	11.4	4	-1E+10	1	-1E+10	1	-1E+10	1	-1E+10	1	-1E+10	1	-1E+10	1
4902549	97	C	04/20/2023	12:57	-133.278	47.508	0	503.30	0	4.1850	0	34.0360	0	27.004	0	498.493	0	34.5	4	10.9	4	-1E+10	1	-1E+10	1	-1E+10	1	-1E+10	1	-1E+10	1	-1E+10	1
4902549	97	C	04/20/2023	12:57	-133.278	47.508	0	508.10	0	4.1840	0	34.0410	0	27.008	0	503.241	0	33.7	4	10.7	4	-1E+10	1	-1E+10	1	-1E+10	1	-1E+10	1	-1E+10	1	-1E+10	1
4902549	97	C	04/20/2023	12:57	-133.278	47.508	0	513.00	0	4.1830	0	34.0460	0	27.012	0	508.088	0	32.9	4	10.4	4	-1E+10	1	-1E+10	1	-1E+10	1	-1E+10	1	-1E+10	1	-1E+10	1
4902549	97	C	04/20/2023	12:57	-133.278	47.508	0	517.80	0	4.1630	0	34.0540	0	27.021	0	512.836	0	32.2	4	10.2	4	-1E+10	1	-1E+10	1	-1E+10	1	-1E+10	1	-1E+10	1	-1E+10	1
4902549	97	C	04/20/2023	12:57	-133.278	47.508	0	522.70	0	4.1590	0	34.0550	0	27.022	0	517.683	0	31.5	4	10.0	4	-1E+10	1	-1E+10	1	-1E+10	1	-1E+10	1	-1E+10	1	-1E+10	1
4902549	97	C	04/20/2023	12:57	-133.278	47.508	0	527.60	0	4.1470	0	34.0590	0	27.026	0	522.530	0	30.6	4	9.7	4	-1E+10	1	-1E+10	1	-1E+10	1	-1E+10	1	-1E+10	1	-1E+10	1
4902549	97	C	04/20/2023	12:57	-133.278	47.508	0	532.60	0	4.1550	0	34.0660	0	27.031	0	527.476	0	29.9	4	9.5	4	-1E+10	1	-1E+10	1	-1E+10	1	-1E+10	1	-1E+10	1	-1E+10	1
4902549	97	C	04/20/2023	12:57	-133.278	47.508	0	537.50	0	4.1370	0	34.0700	0	27.036	0	532.322	0	29.2	4	9.2	4	-1E+10	1	-1E+10	1	-1E+10	1	-1E+10	1	-1E+10	1	-1E+10	1
4902549	97	C	04/20/2023	12:57	-133.278	47.508	0	542.50	0	4.1240	0	34.0750	0	27.042	0	537.268	0	28.5	4	9.0	4	-1E+10	1	-1E+10	1	-1E+10	1	-1E+10	1	-1E+10	1	-1E+10	1
4902549	97	C	04/20/2023	12:57	-133.278	47.508	0	547.60	0	4.1120	0	34.0800	0	27.047	0	542.312	0	27.9	4	8.8	4	-1E+10	1	-1E+10	1	-1E+10	1	-1E+10	1	-1E+10	1	-1E+10	1
4902549	97	C	04/20/2023	12:57	-133.278	47.508	0	552.70	0	4.1040	0	34.0820	0	27.049	0	547.356	0	27.2	4	8.6	4	-1E+10	1	-1E+10	1	-1E+10	1	-1E+10	1	-1E+10	1	-1E+10	1
4902549	97	C	04/20/2023	12:57	-133.278	47.508	0	557.90	0	4.0880	0	34.0890	0	27.057	0	552.499	0	26.3	4	8.3	4	-1E+10	1	-1E+10	1	-1E+10	1	-1E+10	1	-1E+10	1	-1E+10	1
4902549	97	C	04/20/2023	12:57	-133.278	47.508	0	563.10	0	4.0800	0	34.0930	0	27.061	0	557.641	0	25.5	4	8.1	4	-1E+10	1	-1E+10	1	-1E+10	1	-1E+10	1	-1E+10	1	-1E+10	1
4902549	97	C	04/20/2023	12:57	-133.278	47.508	0	567.80	0	4.0660	0	34.0990	0	27.067	0	562.289	0	24.6	4	7.8	4	-1E+10	1	-1E+10	1	-1E+10	1	-1E+10	1	-1E+10	1	-1E+10	1
4902549	97	C	04/20/2023	12:57	-133.278	47.508	0	572.60	0	4.0650	0	34.1060	0	27.073	0	567.036	0	23.9	4	7.6	4	-1E+10	1	-1E+10	1	-1E+10	1	-1E+10	1	-1E+10	1	-1E+10	1
4902549	97	C	04/20/2023	12:57	-133.278	47.508	0	577.90	0	4.0620	0	34.1080	0	27.075	0	572.278	0	23.2	4	7.3	4	-1E+10	1	-1E+10	1	-1E+10	1	-1E+10	1	-1E+10	1	-1E+10	1
4902549	97	C	04/20/2023	12:57	-133.278	47.508	0	583.20	0	4.0430	0	34.1110	0	27.079	0	577.519	0	21.7	4	6.9	4	-1E+10	1	-1E+10	1	-1E+10	1	-1E+10	1	-1E+10	1	-1E+10	1
4902549	97	C	04/20/2023	12:57	-133.278	47.508	0	588.40	0	4.0570	0	34.1220	0	27.086	0	582.661	0	19.8	4	6.3	4	-1E+10	1	-1E+10	1	-1E+10	1	-1E+10	1	-1E+10	1	-1E+10	1
4902549	97	C	04/20/2023	12:57	-133.278	47.508	0	593.00	0	4.0940	0	34.1300	0	27.089	0	587.209	0	18.9	4	6.0	4	-1E+10	1	-1E+10	1	-1E+10	1	-1E+10	1	-1E+10	1	-1E+10	1
4902549	97	C	04/20/2023	12:57	-133.278	47.508	0	597.80	0	4.0970	0	34.1340	0	27.092	0	591.956	0	18.5	4	5.9	4	-1E+10	1	-1E+10	1	-1E+10	1	-1E+10	1	-1E+10	1	-1E+10	1
4902549	97	C	04/20/2023	12:57	-133.278	47.508	0	602.70	0	4.0810	0	34.1340	0	27.094	0	596.801	0	17.7	4	5.6	4	-1E+10	1	-1E+10	1	-1E+10	1	-1E+10	1	-1E+10	1	-1E+10	1
4902549	97	C	04/20/2023	12:57	-133.278	47.508	0	607.60	0	4.0870	0	34.1400	0	27.098	0	601.646	0	16.7	4	5.3	4	-1E+10	1	-1E+10	1	-1E+10	1	-1E+10	1	-1E+10	1	-1E+10	1
4902549	97	C	04/20/2023	12:57	-133.278	47.508	0	612.60	0	4.0800	0	34.1460	0	27.103	0	606.589	0	15.6	4	4.9	4	-1E+10	1	-1E+10	1	-1E+10	1	-1E+10	1	-1E+10	1	-1E+10	1
4902549	97	C	04/20/2023	12:57	-133.278	47.508	0	617.60	0	4.0860	0	34.1550	0	27.110	0	611.533	0	14.9	4	4.7	4	-1E+10	1	-1E+10	1	-1E+10	1	-1E+10	1	-1E+10	1	-1E+10	1
4902549	97	C	04/20/2023	12:57	-133.278	47.508	0	622.80	0	4.0840	0	34.1570	0	27.112	0	616.674	0	14.5	4	4.6	4	-1E+10	1	-1E+10	1	-1E+10	1	-1E+10	1	-1E+10	1	-1E+10	1
4902549	97	C	04/20/2023	12:57	-133.278	47.508	0	627.90	0	4.0710	0	34.1590	0	27.115	0	621.717	0	14.1	4	4.4	4	-1E+10	1	-1E+10	1	-1E+10	1	-1E+10	1	-1E+10	1	-1E+10	1
4902549	97	C	04/20/2023	12:57	-133.278	47.508	0	633.00	0	4.0630	0	34.1640	0	27.119	0	626.759	0	13.6	4	4.3	4	-1E+10	1	-1E+10	1	-1E+10	1	-1E+10	1	-1E+10	1	-1E+10	1
4902549	97	C	04/20/2023	12:57	-133.278	47.508	0	638.00	0	4.0460	0	34.1690	0	27.125	0	631.702	0	13.2	4	4.2	4	-1E+10	1	-1E+10	1	-1E+10	1	-1E+10	1	-1E+10	1	-1E+10	1
4902549	97	C	04/20/2023	12:57	-133.278	47.508	0	643.00	0	4.0350	0	34.1750	0	27.131	0	636.645	0	12.9	4	4.1	4	-1E+10	1	-1E+10	1	-1E+10	1	-1E+10	1	-1E+10	1	-1E+10	1
4902549	97	C	04/20/2023	12:57	-133.278	47.508	0	648.10	0	4.0220	0	34.1770	0	27.134	0	641.686	0	12.9	4	4.1	4	-1E+10	1	-1E+10	1	-1E+10	1	-1E+10	1	-1E+10	1	-1E+10	1
4902549	97	C	04/20/2023	12:57	-133.278	47.508	0	653.20	0	4.0090	0	34.1770	0	27.135	0	646.728	0	12.8	4	4.0	4	-1E+10	1	-1E+10	1	-1E+10	1	-1E+10	1	-1E+10	1	-1E+10	1
4902549	97	C	04/20/2023	12:57	-133.278	47.508	0	657.90	0	4.0020	0	34.1790	0	27.138	0	651.374	0	12.6	4	4.0	4	-1E+10	1	-1E+10	1	-1E+10	1	-1E+10	1	-1E+10	1	-1E+10	1
4902549	97	C	04/20/2023	12:57	-133.278	47.508	0	662.70	0	3.9990	0	34.1810	0	27.140	0	656.119	0	12.5	4	3.9	4	-1E+10	1	-1E+10	1	-1E+10	1	-1E+10	1	-1E+10	1	-1E+10	1
4902549	97	C	04/20/2023	12:57	-133.278	47.508	0	668.00	0	3.9820	0	34.1810	0	27.142	0	661.358	0	12.4	4	3.9	4	-1E+10	1	-1E+10	1	-1E+10	1	-1E+10	1	-1E+10	1	-1E+10	1
4902549	97	C	04/20/2023	12:57	-133.278	47.508	0	672.90	0	3.9630	0	34.1830	0	27.145	0	666.201	0	12.1	4	3.8	4	-1E+10	1	-1E+10	1	-1E+10	1	-1E+10	1	-1E+10	1	-1E+10	1
4902549	97	C	04/20/2023	12:57	-133.278	47.508	0	677.70	0	3.9530	0	34.1860	0	27.149	0	670.946	0	11.7	4	3.7	4	-1E+10	1	-1E+10	1	-1E+10	1	-1E+10	1	-1E+10	1	-1E+10	1
4902549	97	C	04/20/2023	12:57	-133.278	47.508	0	683.00	0	3.9350	0	34.1920	0	27.155	0	676.185	0	11.2	4	3.5	4	-1E+10	1	-1E+10	1	-1E+10	1	-1E+10	1	-1E+10	1	-1E+10	1
4902549	97	C	04/20/2023	12:57	-133.278	47.508	0	687.80	0	3.9190	0	34.1980	0	27.162	0	680.929	0	10.9	4	3.4	4	-1E+10	1	-1E+10	1	-1E+10	1	-1E+10	1	-1E+10	1	-1E+10	1
4902549	97	C	04/20/2023	12:57	-133.278	47.508	0	692.60	0	3.8960	0	34.2050	0	27.170	0	685.673	0	10.6	4	3.3	4	-1E+10	1	-1E+10	1	-1E+10	1	-1E+10	1	-1E+10	1	-1E+10	1
4902549	97	C	04/20/2023	12:57	-133.278	47.508	0	697.90	0	3.8720	0	34.2090	0	27.175	0	690.911	0	10.3	4	3.2	4	-1E+10	1	-1E+10	1	-1E+10	1	-1E+10	1	-1E+10	1	-1E+10	1
4902549	97	C	04/20/2023	12:57	-133.278	47.508	0	702.80	0	3.8590	0	34.2140	0	27.180	0	695.754	0	10.1	4	3.2	4	-1E+10	1	-1E+10	1	-1E+10	1	-1E+10	1	-1E+10	1	-1E+10	1
4902549	97	C	04/20/2023	12:57	-133.278	47.508	0	707.80	0	3.8680	0	34.2200	0	27.184	0	700.695	0	9.9	4	3.1	4	-1E+10	1	-1E+10	1	-1E+10	1	-1E+10	1	-1E+10	1	-1E+10	1
4902549	97	C	04/20/2023	12:57	-133.278	47.508	0	712.80	0	3.8520	0	34.2230	0	27.188	0	705.637	0	9.9	4	3.1	4	-1E+10	1	-1E+10	1	-1E+10	1	-1E+10	1	-1E+10	1	-1E+10	1
4902549	97	C	04/20/2023	12:57	-133.278	47.508	0	717.90	0	3.8140	0	34.2260	0	27.195	0	710.677	0	9.7	4	3.1	4	-1E+10	1	-1E+10	1	-1E+10	1	-1E+10	1	-1E+10	1	-1E+10	1
4902549	97	C	04/20/2023	12:57	-133.278	47.508	0	723.10	0	3.8090	0	34.2300	0	27.198	0	715.816	0	9.5	4	3.0	4	-1E+10	1	-1E+10	1	-1E+10	1	-1E+10	1	-1E+10	1	-1E+10	1
4902549	97	C	04/20/2023	12:57	-133.278	47.508	0	728.00	0	3.8110	0	34.2330	0	27.201	0	720.658	0	9.3	4	2.9	4	-1E+10	1	-1E+10	1	-1E+10	1	-1E+10	1	-1E+10	1	-1E+10	1
4902549	97	C	04/20/2023	12:57	-133.278	47.508	0	732.90	0	3.8120	0	34.2350	0	27.202	0	725.500	0	9.1	4	2.9	4	-1E+10	1	-1E+10	1	-1E+10	1	-1E+10	1	-1E+10	1	-1E+10	1
4902549	97	C	04/20/2023	12:57	-133.278	47.508	0	737.80	0	3.7970	0	34.2400	0	27.208	0	730.342	0	9.0	4	2.8	4	-1E+10	1	-1E+10	1	-1E+10	1	-1E+10	1	-1E+10	1	-1E+10	1
4902549	97	C	04/20/2023	12:57	-133.278	47.508	0	742.80	0	3.7870	0	34.2410	0	27.209	0	735.282	0	8.9	4	2.8	4	-1E+10	1	-1E+10	1	-1E+10	1	-1E+10	1	-1E+10	1	-1E+10	1
4902549	97	C	04/20/2023	12:57	-133.278	47.508	0	747.80	0	3.7690	0	34.2440	0	27.214	0	740.223	0	8.8	4	2.8	4	-1E+10	1	-1E+10	1	-1E+10	1	-1E+10	1	-1E+10	1	-1E+10	1
4902549	97	C	04/20/2023	12:57	-133.278	47.508	0	752.90	0	3.7450	0	34.2480	0	27.219	0	745.262	0	8.6	4	2.7	4	-1E+10	1	-1E+10	1	-1E+10	1	-1E+10	1	-1E+10	1	-1E+10	1
4902549	97	C	04/20/2023	12:57	-133.278	47.508	0	758.00	0	3.7240	0	34.2520	0	27.225	0	750.301	0	8.4	4	2.6	4	-1E+10	1	-1E+10	1	-1E+10	1	-1E+10	1	-1E+10	1	-1E+10	1
4902549	97	C	04/20/2023	12:57	-133.278	47.508	0	763.20	0	3.7100	0	34.2560	0	27.229	0	755.439	0	8.2	4	2.6	4	-1E+10	1	-1E+10	1	-1E+10	1	-1E+10	1	-1E+10	1	-1E+10	1
4902549	97	C	04/20/2023	12:57	-133.278	47.508	0	767.90	0	3.7020	0	34.2620	0	27.235	0	760.083	0	8.0	4	2.5	4	-1E+10	1	-1E+10	1	-1E+10	1	-1E+10	1	-1E+10	1	-1E+10	1
4902549	97	C	04/20/2023	12:57	-133.278	47.508	0	772.70	0	3.6930	0	34.2640	0	27.237	0	764.825	0	8.0	4	2.5	4	-1E+10	1	-1E+10	1	-1E+10	1	-1E+10	1	-1E+10	1	-1E+10	1
4902549	97	C	04/20/2023	12:57	-133.278	47.508	0	778.10	0	3.6730	0	34.2670	0	27.242	0	770.160	0	7.9	4	2.5	4	-1E+10	1	-1E+10	1	-1E+10	1	-1E+10	1	-1E+10	1	-1E+10	1
4902549	97	C	04/20/2023	12:57	-133.278	47.508	0	783.30	0	3.6630	0	34.2720	0	27.247	0	775.297	0	7.8	4	2.4	4	-1E+10	1	-1E+10	1	-1E+10	1	-1E+10	1	-1E+10	1	-1E+10	1
4902549	97	C	04/20/2023	12:57	-133.278	47.508	0	788.10	0	3.6490	0	34.2740	0	27.250	0	780.039	0	7.7	4	2.4	4	-1E+10	1	-1E+10	1	-1E+10	1	-1E+10	1	-1E+10	1	-1E+10	1
4902549	97	C	04/20/2023	12:57	-133.278	47.508	0	793.00	0	3.6320	0	34.2770	0	27.254	0	784.880	0	7.6	4	2.4	4	-1E+10	1	-1E+10	1	-1E+10	1	-1E+10	1	-1E+10	1	-1E+10	1
4902549	97	C	04/20/2023	12:57	-133.278	47.508	0	798.00	0	3.6190	0	34.2770	0	27.255	0	789.819	0	7.4	4	2.3	4	-1E+10	1	-1E+10	1	-1E+10	1	-1E+10	1	-1E+10	1	-1E+10	1
4902549	97	C	04/20/2023	12:57	-133.278	47.508	0	803.00	0	3.6000	0	34.2790	0	27.258	0	794.759	0	7.3	4	2.3	4	-1E+10	1	-1E+10	1	-1E+10	1	-1E+10	1	-1E+10	1	-1E+10	1
4902549	97	C	04/20/2023	12:57	-133.278	47.508	0	808.10	0	3.5960	0	34.2820	0	27.261	0	799.796	0	7.1	4	2.2	4	-1E+10	1	-1E+10	1	-1E+10	1	-1E+10	1	-1E+10	1	-1E+10	1
4902549	97	C	04/20/2023	12:57	-133.278	47.508	0	813.20	0	3.5920	0	34.2840	0	27.263	0	804.834	0	7.0	4	2.2	4	-1E+10	1	-1E+10	1	-1E+10	1	-1E+10	1	-1E+10	1	-1E+10	1
4902549	97	C	04/20/2023	12:57	-133.278	47.508	0	818.20	0	3.5850	0	34.2880	0	27.267	0	809.773	0	6.9	4	2.2	4	-1E+10	1	-1E+10	1	-1E+10	1	-1E+10	1	-1E+10	1	-1E+10	1
4902549	97	C	04/20/2023	12:57	-133.278	47.508	0	823.30	0	3.5790	0	34.2910	0	27.270	0	814.811	0	6.9	4	2.2	4	-1E+10	1	-1E+10	1	-1E+10	1	-1E+10	1	-1E+10	1	-1E+10	1
4902549	97	C	04/20/2023	12:57	-133.278	47.508	0	828.30	0	3.5710	0	34.2910	0	27.271	0	819.749	0	6.9	4	2.1	4	-1E+10	1	-1E+10	1	-1E+10	1	-1E+10	1	-1E+10	1	-1E+10	1
4902549	97	C	04/20/2023	12:57	-133.278	47.508	0	832.90	0	3.5560	0	34.2950	0	27.276	0	824.293	0	6.8	4	2.1	4	-1E+10	1	-1E+10	1	-1E+10	1	-1E+10	1	-1E+10	1	-1E+10	1
4902549	97	C	04/20/2023	12:57	-133.278	47.508	0	837.60	0	3.5420	0	34.3000	0	27.281	0	828.935	0	6.8	4	2.1	4	-1E+10	1	-1E+10	1	-1E+10	1	-1E+10	1	-1E+10	1	-1E+10	1
4902549	97	C	04/20/2023	12:57	-133.278	47.508	0	842.80	0	3.5370	0	34.3010	0	27.282	0	834.071	0	6.7	4	2.1	4	-1E+10	1	-1E+10	1	-1E+10	1	-1E+10	1	-1E+10	1	-1E+10	1
4902549	97	C	04/20/2023	12:57	-133.278	47.508	0	848.00	0	3.5350	0	34.3070	0	27.287	0	839.206	0	6.6	4	2.1	4	-1E+10	1	-1E+10	1	-1E+10	1	-1E+10	1	-1E+10	1	-1E+10	1
4902549	97	C	04/20/2023	12:57	-133.278	47.508	0	852.90	0	3.5250	0	34.3100	0	27.291	0	844.046	0	6.6	4	2.1	4	-1E+10	1	-1E+10	1	-1E+10	1	-1E+10	1	-1E+10	1	-1E+10	1
4902549	97	C	04/20/2023	12:57	-133.278	47.508	0	857.80	0	3.5230	0	34.3130	0	27.293	0	848.885	0	6.5	4	2.0	4	-1E+10	1	-1E+10	1	-1E+10	1	-1E+10	1	-1E+10	1	-1E+10	1
4902549	97	C	04/20/2023	12:57	-133.278	47.508	0	863.20	0	3.5260	0	34.3160	0	27.296	0	854.218	0	6.5	4	2.0	4	-1E+10	1	-1E+10	1	-1E+10	1	-1E+10	1	-1E+10	1	-1E+10	1
4902549	97	C	04/20/2023	12:57	-133.278	47.508	0	868.10	0	3.5260	0	34.3180	0	27.297	0	859.057	0	6.5	4	2.0	4	-1E+10	1	-1E+10	1	-1E+10	1	-1E+10	1	-1E+10	1	-1E+10	1
4902549	97	C	04/20/2023	12:57	-133.278	47.508	0	872.70	0	3.5230	0	34.3190	0	27.298	0	863.599	0	6.5	4	2.0	4	-1E+10	1	-1E+10	1	-1E+10	1	-1E+10	1	-1E+10	1	-1E+10	1
4902549	97	C	04/20/2023	12:57	-133.278	47.508	0	877.80	0	3.5050	0	34.3190	0	27.300	0	868.636	0	6.5	4	2.0	4	-1E+10	1	-1E+10	1	-1E+10	1	-1E+10	1	-1E+10	1	-1E+10	1
4902549	97	C	04/20/2023	12:57	-133.278	47.508	0	883.00	0	3.4860	0	34.3220	0	27.304	0	873.770	0	6.6	4	2.1	4	-1E+10	1	-1E+10	1	-1E+10	1	-1E+10	1	-1E+10	1	-1E+10	1
4902549	97	C	04/20/2023	12:57	-133.278	47.508	0	887.70	0	3.4680	0	34.3220	0	27.306	0	878.411	0	6.7	4	2.1	4	-1E+10	1	-1E+10	1	-1E+10	1	-1E+10	1	-1E+10	1	-1E+10	1
4902549	97	C	04/20/2023	12:57	-133.278	47.508	0	892.90	0	3.4430	0	34.3230	0	27.309	0	883.546	0	6.7	4	2.1	4	-1E+10	1	-1E+10	1	-1E+10	1	-1E+10	1	-1E+10	1	-1E+10	1
4902549	97	C	04/20/2023	12:57	-133.278	47.508	0	898.10	0	3.4260	0	34.3250	0	27.313	0	888.680	0	6.7	4	2.1	4	-1E+10	1	-1E+10	1	-1E+10	1	-1E+10	1	-1E+10	1	-1E+10	1
4902549	97	C	04/20/2023	12:57	-133.278	47.508	0	902.90	0	3.4190	0	34.3260	0	27.314	0	893.420	0	6.6	4	2.1	4	-1E+10	1	-1E+10	1	-1E+10	1	-1E+10	1	-1E+10	1	-1E+10	1
4902549	97	C	04/20/2023	12:57	-133.278	47.508	0	907.70	0	3.4130	0	34.3280	0	27.316	0	898.159	0	6.6	4	2.1	4	-1E+10	1	-1E+10	1	-1E+10	1	-1E+10	1	-1E+10	1	-1E+10	1
4902549	97	C	04/20/2023	12:57	-133.278	47.508	0	912.80	0	3.4090	0	34.3320	0	27.320	0	903.195	0	6.6	4	2.0	4	-1E+10	1	-1E+10	1	-1E+10	1	-1E+10	1	-1E+10	1	-1E+10	1
4902549	97	C	04/20/2023	12:57	-133.278	47.508	0	918.10	0	3.3920	0	34.3340	0	27.323	0	908.427	0	6.5	4	2.0	4	-1E+10	1	-1E+10	1	-1E+10	1	-1E+10	1	-1E+10	1	-1E+10	1
4902549	97	C	04/20/2023	12:57	-133.278	47.508	0	923.00	0	3.3790	0	34.3370	0	27.327	0	913.265	0	6.5	4	2.0	4	-1E+10	1	-1E+10	1	-1E+10	1	-1E+10	1	-1E+10	1	-1E+10	1
4902549	97	C	04/20/2023	12:57	-133.278	47.508	0	927.80	0	3.3680	0	34.3400	0	27.330	0	918.004	0	6.5	4	2.0	4	-1E+10	1	-1E+10	1	-1E+10	1	-1E+10	1	-1E+10	1	-1E+10	1
4902549	97	C	04/20/2023	12:57	-133.278	47.508	0	932.60	0	3.3620	0	34.3410	0	27.332	0	922.743	0	6.4	4	2.0	4	-1E+10	1	-1E+10	1	-1E+10	1	-1E+10	1	-1E+10	1	-1E+10	1
4902549	97	C	04/20/2023	12:57	-133.278	47.508	0	937.50	0	3.3570	0	34.3430	0	27.334	0	927.580	0	6.4	4	2.0	4	-1E+10	1	-1E+10	1	-1E+10	1	-1E+10	1	-1E+10	1	-1E+10	1
4902549	97	C	04/20/2023	12:57	-133.278	47.508	0	943.00	0	3.3550	0	34.3500	0	27.339	0	933.010	0	6.3	4	2.0	4	-1E+10	1	-1E+10	1	-1E+10	1	-1E+10	1	-1E+10	1	-1E+10	1
4902549	97	C	04/20/2023	12:57	-133.278	47.508	0	947.90	0	3.3640	0	34.3560	0	27.343	0	937.847	0	6.3	4	2.0	4	-1E+10	1	-1E+10	1	-1E+10	1	-1E+10	1	-1E+10	1	-1E+10	1
4902549	97	C	04/20/2023	12:57	-133.278	47.508	0	952.90	0	3.3440	0	34.3580	0	27.347	0	942.782	0	6.3	4	2.0	4	-1E+10	1	-1E+10	1	-1E+10	1	-1E+10	1	-1E+10	1	-1E+10	1
4902549	97	C	04/20/2023	12:57	-133.278	47.508	0	958.40	0	3.3370	0	34.3610	0	27.350	0	948.212	0	6.3	4	2.0	4	-1E+10	1	-1E+10	1	-1E+10	1	-1E+10	1	-1E+10	1	-1E+10	1
4902549	97	C	04/20/2023	12:57	-133.278	47.508	0	962.90	0	3.3400	0	34.3640	0	27.352	0	952.653	0	6.3	4	2.0	4	-1E+10	1	-1E+10	1	-1E+10	1	-1E+10	1	-1E+10	1	-1E+10	1
4902549	97	C	04/20/2023	12:57	-133.278	47.508	0	967.50	0	3.3330	0	34.3680	0	27.356	0	957.194	0	6.4	4	2.0	4	-1E+10	1	-1E+10	1	-1E+10	1	-1E+10	1	-1E+10	1	-1E+10	1
4902549	97	C	04/20/2023	12:57	-133.278	47.508	0	972.50	0	3.3160	0	34.3690	0	27.358	0	962.129	0	6.4	4	2.0	4	-1E+10	1	-1E+10	1	-1E+10	1	-1E+10	1	-1E+10	1	-1E+10	1
4902549	97	C	04/20/2023	12:57	-133.278	47.508	0	977.60	0	3.2970	0	34.3710	0	27.362	0	967.163	0	6.4	4	2.0	4	-1E+10	1	-1E+10	1	-1E+10	1	-1E+10	1	-1E+10	1	-1E+10	1
4902549	97	C	04/20/2023	12:57	-133.278	47.508	0	982.90	0	3.2820	0	34.3750	0	27.367	0	972.394	0	6.5	4	2.0	4	-1E+10	1	-1E+10	1	-1E+10	1	-1E+10	1	-1E+10	1	-1E+10	1
4902549	97	C	04/20/2023	12:57	-133.278	47.508	0	988.20	0	3.2800	0	34.3760	0	27.368	0	977.625	0	6.5	4	2.0	4	-1E+10	1	-1E+10	1	-1E+10	1	-1E+10	1	-1E+10	1	-1E+10	1
4902549	97	C	04/20/2023	12:57	-133.278	47.508	0	992.90	0	3.2740	0	34.3780	0	27.370	0	982.264	0	6.5	4	2.0	4	-1E+10	1	-1E+10	1	-1E+10	1	-1E+10	1	-1E+10	1	-1E+10	1
4902549	97	C	04/20/2023	12:57	-133.278	47.508	0	997.80	0	3.2630	0	34.3800	0	27.372	0	987.100	0	6.6	4	2.0	4	-1E+10	1	-1E+10	1	-1E+10	1	-1E+10	1	-1E+10	1	-1E+10	1
4902549	97	C	04/20/2023	12:57	-133.278	47.508	0	1005.30	0	3.2420	0	34.3830	0	27.377	0	994.502	0	6.7	4	2.1	4	-1E+10	1	-1E+10	1	-1E+10	1	-1E+10	1	-1E+10	1	-1E+10	1
4902549	97	C	04/20/2023	12:57	-133.278	47.508	0	1015.60	0	3.2230	0	34.3860	0	27.381	0	1004.666	0	6.8	4	2.1	4	-1E+10	1	-1E+10	1	-1E+10	1	-1E+10	1	-1E+10	1	-1E+10	1
4902549	97	C	04/20/2023	12:57	-133.278	47.508	0	1025.60	0	3.2080	0	34.3890	0	27.385	0	1014.534	0	6.9	4	2.2	4	-1E+10	1	-1E+10	1	-1E+10	1	-1E+10	1	-1E+10	1	-1E+10	1
4902549	97	C	04/20/2023	12:57	-133.278	47.508	0	1035.40	0	3.1830	0	34.3940	0	27.391	0	1024.205	0	7.1	4	2.2	4	-1E+10	1	-1E+10	1	-1E+10	1	-1E+10	1	-1E+10	1	-1E+10	1
4902549	97	C	04/20/2023	12:57	-133.278	47.508	0	1045.70	0	3.1410	0	34.4010	0	27.401	0	1034.368	0	7.3	4	2.3	4	-1E+10	1	-1E+10	1	-1E+10	1	-1E+10	1	-1E+10	1	-1E+10	1
4902549	97	C	04/20/2023	12:57	-133.278	47.508	0	1055.60	0	3.1120	0	34.4050	0	27.407	0	1044.136	0	7.4	4	2.3	4	-1E+10	1	-1E+10	1	-1E+10	1	-1E+10	1	-1E+10	1	-1E+10	1
4902549	97	C	04/20/2023	12:57	-133.278	47.508	0	1065.40	0	3.0930	0	34.4070	0	27.410	0	1053.805	0	7.6	4	2.3	4	-1E+10	1	-1E+10	1	-1E+10	1	-1E+10	1	-1E+10	1	-1E+10	1
4902549	97	C	04/20/2023	12:57	-133.278	47.508	0	1075.20	0	3.0770	0	34.4100	0	27.414	0	1063.474	0	7.7	4	2.4	4	-1E+10	1	-1E+10	1	-1E+10	1	-1E+10	1	-1E+10	1	-1E+10	1
4902549	97	C	04/20/2023	12:57	-133.278	47.508	0	1085.60	0	3.0710	0	34.4110	0	27.415	0	1073.734	0	7.8	4	2.4	4	-1E+10	1	-1E+10	1	-1E+10	1	-1E+10	1	-1E+10	1	-1E+10	1
4902549	97	C	04/20/2023	12:57	-133.278	47.508	0	1095.50	0	3.0660	0	34.4120	0	27.417	0	1083.500	0	7.8	4	2.4	4	-1E+10	1	-1E+10	1	-1E+10	1	-1E+10	1	-1E+10	1	-1E+10	1
4902549	97	C	04/20/2023	12:57	-133.278	47.508	0	1105.30	0	3.0510	0	34.4150	0	27.420	0	1093.167	0	8.0	4	2.5	4	-1E+10	1	-1E+10	1	-1E+10	1	-1E+10	1	-1E+10	1	-1E+10	1
4902549	97	C	04/20/2023	12:57	-133.278	47.508	0	1115.30	0	3.0310	0	34.4170	0	27.424	0	1103.031	0	8.3	4	2.6	4	-1E+10	1	-1E+10	1	-1E+10	1	-1E+10	1	-1E+10	1	-1E+10	1
4902549	97	C	04/20/2023	12:57	-133.278	47.508	0	1125.40	0	3.0010	0	34.4220	0	27.431	0	1112.993	0	8.5	4	2.6	4	-1E+10	1	-1E+10	1	-1E+10	1	-1E+10	1	-1E+10	1	-1E+10	1
4902549	97	C	04/20/2023	12:57	-133.278	47.508	0	1135.40	0	2.9850	0	34.4270	0	27.436	0	1122.856	0	8.8	4	2.7	4	-1E+10	1	-1E+10	1	-1E+10	1	-1E+10	1	-1E+10	1	-1E+10	1
4902549	97	C	04/20/2023	12:57	-133.278	47.508	0	1145.20	0	2.9570	0	34.4300	0	27.441	0	1132.521	0	9.0	4	2.8	4	-1E+10	1	-1E+10	1	-1E+10	1	-1E+10	1	-1E+10	1	-1E+10	1
4902549	97	C	04/20/2023	12:57	-133.278	47.508	0	1155.40	0	2.9390	0	34.4320	0	27.444	0	1142.581	0	9.3	4	2.9	4	-1E+10	1	-1E+10	1	-1E+10	1	-1E+10	1	-1E+10	1	-1E+10	1
4902549	97	C	04/20/2023	12:57	-133.278	47.508	0	1165.80	0	2.9260	0	34.4350	0	27.448	0	1152.837	0	9.5	4	2.9	4	-1E+10	1	-1E+10	1	-1E+10	1	-1E+10	1	-1E+10	1	-1E+10	1
4902549	97	C	04/20/2023	12:57	-133.278	47.508	0	1175.40	0	2.9150	0	34.4390	0	27.452	0	1162.304	0	9.8	4	3.0	4	-1E+10	1	-1E+10	1	-1E+10	1	-1E+10	1	-1E+10	1	-1E+10	1
4902549	97	C	04/20/2023	12:57	-133.278	47.508	0	1185.00	0	2.8990	0	34.4410	0	27.455	0	1171.770	0	9.9	4	3.1	4	-1E+10	1	-1E+10	1	-1E+10	1	-1E+10	1	-1E+10	1	-1E+10	1
4902549	97	C	04/20/2023	12:57	-133.278	47.508	0	1195.20	0	2.8780	0	34.4420	0	27.458	0	1181.827	0	10.2	4	3.1	4	-1E+10	1	-1E+10	1	-1E+10	1	-1E+10	1	-1E+10	1	-1E+10	1
4902549	97	C	04/20/2023	12:57	-133.278	47.508	0	1205.30	0	2.8520	0	34.4450	0	27.463	0	1191.786	0	10.5	4	3.2	4	-1E+10	1	-1E+10	1	-1E+10	1	-1E+10	1	-1E+10	1	-1E+10	1
4902549	97	C	04/20/2023	12:57	-133.278	47.508	0	1215.40	0	2.8460	0	34.4470	0	27.465	0	1201.744	0	10.7	4	3.3	4	-1E+10	1	-1E+10	1	-1E+10	1	-1E+10	1	-1E+10	1	-1E+10	1
4902549	97	C	04/20/2023	12:57	-133.278	47.508	0	1225.70	0	2.8350	0	34.4500	0	27.468	0	1211.898	0	11.1	4	3.4	4	-1E+10	1	-1E+10	1	-1E+10	1	-1E+10	1	-1E+10	1	-1E+10	1
4902549	97	C	04/20/2023	12:57	-133.278	47.508	0	1235.70	0	2.8090	0	34.4530	0	27.473	0	1221.757	0	11.5	4	3.5	4	-1E+10	1	-1E+10	1	-1E+10	1	-1E+10	1	-1E+10	1	-1E+10	1
4902549	97	C	04/20/2023	12:57	-133.278	47.508	0	1245.30	0	2.7920	0	34.4560	0	27.477	0	1231.220	0	11.8	4	3.6	4	-1E+10	1	-1E+10	1	-1E+10	1	-1E+10	1	-1E+10	1	-1E+10	1
4902549	97	C	04/20/2023	12:57	-133.278	47.508	0	1255.00	0	2.7690	0	34.4580	0	27.481	0	1240.782	0	12.0	4	3.7	4	-1E+10	1	-1E+10	1	-1E+10	1	-1E+10	1	-1E+10	1	-1E+10	1
4902549	97	C	04/20/2023	12:57	-133.278	47.508	0	1265.10	0	2.7390	0	34.4590	0	27.484	0	1250.738	0	12.3	4	3.8	4	-1E+10	1	-1E+10	1	-1E+10	1	-1E+10	1	-1E+10	1	-1E+10	1
4902549	97	C	04/20/2023	12:57	-133.278	47.508	0	1275.20	0	2.7310	0	34.4620	0	27.487	0	1260.693	0	12.4	4	3.8	4	-1E+10	1	-1E+10	1	-1E+10	1	-1E+10	1	-1E+10	1	-1E+10	1
4902549	97	C	04/20/2023	12:57	-133.278	47.508	0	1285.50	0	2.6750	0	34.4590	0	27.490	0	1270.845	0	12.6	4	3.9	4	-1E+10	1	-1E+10	1	-1E+10	1	-1E+10	1	-1E+10	1	-1E+10	1
4902549	97	C	04/20/2023	12:57	-133.278	47.508	0	1295.70	0	2.6630	0	34.4650	0	27.496	0	1280.897	0	13.4	4	4.1	4	-1E+10	1	-1E+10	1	-1E+10	1	-1E+10	1	-1E+10	1	-1E+10	1
4902549	97	C	04/20/2023	12:57	-133.278	47.508	0	1305.50	0	2.6540	0	34.4680	0	27.499	0	1290.555	0	13.7	4	4.2	4	-1E+10	1	-1E+10	1	-1E+10	1	-1E+10	1	-1E+10	1	-1E+10	1
4902549	97	C	04/20/2023	12:57	-133.278	47.508	0	1315.20	0	2.6240	0	34.4690	0	27.502	0	1300.114	0	14.0	4	4.3	4	-1E+10	1	-1E+10	1	-1E+10	1	-1E+10	1	-1E+10	1	-1E+10	1
4902549	97	C	04/20/2023	12:57	-133.278	47.508	0	1325.40	0	2.6150	0	34.4730	0	27.506	0	1310.166	0	14.5	4	4.4	4	-1E+10	1	-1E+10	1	-1E+10	1	-1E+10	1	-1E+10	1	-1E+10	1
4902549	97	C	04/20/2023	12:57	-133.278	47.508	0	1335.70	0	2.5850	0	34.4740	0	27.510	0	1320.315	0	14.7	4	4.5	4	-1E+10	1	-1E+10	1	-1E+10	1	-1E+10	1	-1E+10	1	-1E+10	1
4902549	97	C	04/20/2023	12:57	-133.278	47.508	0	1345.60	0	2.5530	0	34.4760	0	27.514	0	1330.070	0	15.1	4	4.6	4	-1E+10	1	-1E+10	1	-1E+10	1	-1E+10	1	-1E+10	1	-1E+10	1
4902549	97	C	04/20/2023	12:57	-133.278	47.508	0	1355.20	0	2.5410	0	34.4780	0	27.517	0	1339.528	0	15.7	4	4.8	4	-1E+10	1	-1E+10	1	-1E+10	1	-1E+10	1	-1E+10	1	-1E+10	1
4902549	97	C	04/20/2023	12:57	-133.278	47.508	0	1365.20	0	2.5350	0	34.4820	0	27.521	0	1349.381	0	16.5	4	5.0	4	-1E+10	1	-1E+10	1	-1E+10	1	-1E+10	1	-1E+10	1	-1E+10	1
4902549	97	C	04/20/2023	12:57	-133.278	47.508	0	1375.70	0	2.5130	0	34.4860	0	27.526	0	1359.725	0	17.0	4	5.2	4	-1E+10	1	-1E+10	1	-1E+10	1	-1E+10	1	-1E+10	1	-1E+10	1
4902549	97	C	04/20/2023	12:57	-133.278	47.508	0	1385.20	0	2.4990	0	34.4880	0	27.528	0	1369.084	0	17.2	4	5.3	4	-1E+10	1	-1E+10	1	-1E+10	1	-1E+10	1	-1E+10	1	-1E+10	1
4902549	97	C	04/20/2023	12:57	-133.278	47.508	0	1395.40	0	2.4830	0	34.4880	0	27.530	0	1379.132	0	17.3	4	5.3	4	-1E+10	1	-1E+10	1	-1E+10	1	-1E+10	1	-1E+10	1	-1E+10	1
4902549	97	C	04/20/2023	12:57	-133.278	47.508	0	1405.40	0	2.4630	0	34.4890	0	27.532	0	1388.983	0	17.9	4	5.4	4	-1E+10	1	-1E+10	1	-1E+10	1	-1E+10	1	-1E+10	1	-1E+10	1
4902549	97	C	04/20/2023	12:57	-133.278	47.508	0	1415.40	0	2.4660	0	34.4920	0	27.535	0	1398.833	0	18.7	4	5.7	4	-1E+10	1	-1E+10	1	-1E+10	1	-1E+10	1	-1E+10	1	-1E+10	1
4902549	97	C	04/20/2023	12:57	-133.278	47.508	0	1425.70	0	2.4690	0	34.4970	0	27.538	0	1408.978	0	19.4	4	5.9	4	-1E+10	1	-1E+10	1	-1E+10	1	-1E+10	1	-1E+10	1	-1E+10	1
4902549	97	C	04/20/2023	12:57	-133.278	47.508	0	1435.70	0	2.4690	0	34.4990	0	27.540	0	1418.827	0	20.0	4	6.1	4	-1E+10	1	-1E+10	1	-1E+10	1	-1E+10	1	-1E+10	1	-1E+10	1
4902549	97	C	04/20/2023	12:57	-133.278	47.508	0	1445.80	0	2.4550	0	34.5010	0	27.543	0	1428.774	0	20.2	4	6.2	4	-1E+10	1	-1E+10	1	-1E+10	1	-1E+10	1	-1E+10	1	-1E+10	1
4902549	97	C	04/20/2023	12:57	-133.278	47.508	0	1455.50	0	2.4370	0	34.5020	0	27.545	0	1438.327	0	20.5	4	6.3	4	-1E+10	1	-1E+10	1	-1E+10	1	-1E+10	1	-1E+10	1	-1E+10	1
4902549	97	C	04/20/2023	12:57	-133.278	47.508	0	1465.40	0	2.4210	0	34.5030	0	27.547	0	1448.076	0	20.8	4	6.3	4	-1E+10	1	-1E+10	1	-1E+10	1	-1E+10	1	-1E+10	1	-1E+10	1
4902549	97	C	04/20/2023	12:57	-133.278	47.508	0	1475.60	0	2.4010	0	34.5040	0	27.550	0	1458.120	0	20.9	4	6.4	4	-1E+10	1	-1E+10	1	-1E+10	1	-1E+10	1	-1E+10	1	-1E+10	1
4902549	97	C	04/20/2023	12:57	-133.278	47.508	0	1485.40	0	2.3850	0	34.5050	0	27.552	0	1467.770	0	21.1	4	6.4	4	-1E+10	1	-1E+10	1	-1E+10	1	-1E+10	1	-1E+10	1	-1E+10	1
4902549	97	C	04/20/2023	12:57	-133.278	47.508	0	1495.30	0	2.3720	0	34.5060	0	27.554	0	1477.518	0	21.6	4	6.6	4	-1E+10	1	-1E+10	1	-1E+10	1	-1E+10	1	-1E+10	1	-1E+10	1
4902549	97	C	04/20/2023	12:57	-133.278	47.508	0	1505.30	0	2.3680	0	34.5080	0	27.556	0	1487.364	0	22.2	4	6.7	4	-1E+10	1	-1E+10	1	-1E+10	1	-1E+10	1	-1E+10	1	-1E+10	1
4902549	97	C	04/20/2023	12:57	-133.278	47.508	0	1515.50	0	2.3530	0	34.5090	0	27.558	0	1497.406	0	22.5	4	6.9	4	-1E+10	1	-1E+10	1	-1E+10	1	-1E+10	1	-1E+10	1	-1E+10	1
4902549	97	C	04/20/2023	12:57	-133.278	47.508	0	1525.20	0	2.3300	0	34.5120	0	27.562	0	1506.956	0	23.2	4	7.0	4	-1E+10	1	-1E+10	1	-1E+10	1	-1E+10	1	-1E+10	1	-1E+10	1
4902549	97	C	04/20/2023	12:57	-133.278	47.508	0	1535.20	0	2.3170	0	34.5140	0	27.565	0	1516.801	0	23.7	4	7.2	4	-1E+10	1	-1E+10	1	-1E+10	1	-1E+10	1	-1E+10	1	-1E+10	1
4902549	97	C	04/20/2023	12:57	-133.278	47.508	0	1546.00	0	2.3010	0	34.5160	0	27.568	0	1527.432	0	24.3	4	7.4	4	-1E+10	1	-1E+10	1	-1E+10	1	-1E+10	1	-1E+10	1	-1E+10	1
4902549	97	C	04/20/2023	12:57	-133.278	47.508	0	1555.60	0	2.2920	0	34.5170	0	27.570	0	1536.882	0	24.8	4	7.5	4	-1E+10	1	-1E+10	1	-1E+10	1	-1E+10	1	-1E+10	1	-1E+10	1
4902549	97	C	04/20/2023	12:57	-133.278	47.508	0	1565.50	0	2.2790	0	34.5190	0	27.572	0	1546.627	0	25.6	4	7.8	4	-1E+10	1	-1E+10	1	-1E+10	1	-1E+10	1	-1E+10	1	-1E+10	1
4902549	97	C	04/20/2023	12:57	-133.278	47.508	0	1575.60	0	2.2690	0	34.5210	0	27.575	0	1556.568	0	26.2	4	7.9	4	-1E+10	1	-1E+10	1	-1E+10	1	-1E+10	1	-1E+10	1	-1E+10	1
4902549	97	C	04/20/2023	12:57	-133.278	47.508	0	1585.40	0	2.2590	0	34.5240	0	27.578	0	1566.213	0	26.9	4	8.2	4	-1E+10	1	-1E+10	1	-1E+10	1	-1E+10	1	-1E+10	1	-1E+10	1
4902549	97	C	04/20/2023	12:57	-133.278	47.508	0	1595.30	0	2.2470	0	34.5260	0	27.581	0	1575.957	0	27.8	4	8.4	4	-1E+10	1	-1E+10	1	-1E+10	1	-1E+10	1	-1E+10	1	-1E+10	1
4902549	97	C	04/20/2023	12:57	-133.278	47.508	0	1605.50	0	2.2310	0	34.5280	0	27.584	0	1585.995	0	28.5	4	8.6	4	-1E+10	1	-1E+10	1	-1E+10	1	-1E+10	1	-1E+10	1	-1E+10	1
4902549	97	C	04/20/2023	12:57	-133.278	47.508	0	1615.30	0	2.2170	0	34.5290	0	27.586	0	1595.639	0	29.1	4	8.8	4	-1E+10	1	-1E+10	1	-1E+10	1	-1E+10	1	-1E+10	1	-1E+10	1
4902549	97	C	04/20/2023	12:57	-133.278	47.508	0	1625.30	0	2.2090	0	34.5310	0	27.588	0	1605.479	0	29.8	4	9.0	4	-1E+10	1	-1E+10	1	-1E+10	1	-1E+10	1	-1E+10	1	-1E+10	1
4902549	97	C	04/20/2023	12:57	-133.278	47.508	0	1635.40	0	2.1930	0	34.5340	0	27.592	0	1615.418	0	30.6	4	9.3	4	-1E+10	1	-1E+10	1	-1E+10	1	-1E+10	1	-1E+10	1	-1E+10	1
4902549	97	C	04/20/2023	12:57	-133.278	47.508	0	1645.40	0	2.1820	0	34.5350	0	27.593	0	1625.257	0	31.3	4	9.5	4	-1E+10	1	-1E+10	1	-1E+10	1	-1E+10	1	-1E+10	1	-1E+10	1
4902549	97	C	04/20/2023	12:57	-133.278	47.508	0	1655.50	0	2.1710	0	34.5370	0	27.596	0	1635.194	0	32.1	4	9.7	4	-1E+10	1	-1E+10	1	-1E+10	1	-1E+10	1	-1E+10	1	-1E+10	1
4902549	97	C	04/20/2023	12:57	-133.278	47.508	0	1665.70	0	2.1580	0	34.5390	0	27.599	0	1645.230	0	32.9	4	9.9	4	-1E+10	1	-1E+10	1	-1E+10	1	-1E+10	1	-1E+10	1	-1E+10	1
4902549	97	C	04/20/2023	12:57	-133.278	47.508	0	1675.60	0	2.1460	0	34.5410	0	27.601	0	1654.969	0	33.8	4	10.2	4	-1E+10	1	-1E+10	1	-1E+10	1	-1E+10	1	-1E+10	1	-1E+10	1
4902549	97	C	04/20/2023	12:57	-133.278	47.508	0	1685.20	0	2.1360	0	34.5430	0	27.604	0	1664.414	0	34.7	4	10.5	4	-1E+10	1	-1E+10	1	-1E+10	1	-1E+10	1	-1E+10	1	-1E+10	1
4902549	97	C	04/20/2023	12:57	-133.278	47.508	0	1695.30	0	2.1290	0	34.5440	0	27.605	0	1674.349	0	35.2	4	10.6	4	-1E+10	1	-1E+10	1	-1E+10	1	-1E+10	1	-1E+10	1	-1E+10	1
4902549	97	C	04/20/2023	12:57	-133.278	47.508	0	1705.60	0	2.1210	0	34.5460	0	27.607	0	1684.481	0	35.6	4	10.8	4	-1E+10	1	-1E+10	1	-1E+10	1	-1E+10	1	-1E+10	1	-1E+10	1
4902549	97	C	04/20/2023	12:57	-133.278	47.508	0	1715.60	0	2.1140	0	34.5480	0	27.610	0	1694.317	0	36.0	4	10.9	4	-1E+10	1	-1E+10	1	-1E+10	1	-1E+10	1	-1E+10	1	-1E+10	1
4902549	97	C	04/20/2023	12:57	-133.278	47.508	0	1725.60	0	2.1040	0	34.5500	0	27.612	0	1704.153	0	36.4	4	11.0	4	-1E+10	1	-1E+10	1	-1E+10	1	-1E+10	1	-1E+10	1	-1E+10	1
4902549	97	C	04/20/2023	12:57	-133.278	47.508	0	1735.20	0	2.0940	0	34.5520	0	27.614	0	1713.595	0	37.0	4	11.2	4	-1E+10	1	-1E+10	1	-1E+10	1	-1E+10	1	-1E+10	1	-1E+10	1
4902549	97	C	04/20/2023	12:57	-133.278	47.508	0	1745.20	0	2.0850	0	34.5540	0	27.617	0	1723.430	0	37.4	4	11.3	4	-1E+10	1	-1E+10	1	-1E+10	1	-1E+10	1	-1E+10	1	-1E+10	1
4902549	97	C	04/20/2023	12:57	-133.278	47.508	0	1755.40	0	2.0810	0	34.5540	0	27.617	0	1733.461	0	37.9	4	11.4	4	-1E+10	1	-1E+10	1	-1E+10	1	-1E+10	1	-1E+10	1	-1E+10	1
4902549	97	C	04/20/2023	12:57	-133.278	47.508	0	1765.60	0	2.0740	0	34.5560	0	27.619	0	1743.492	0	38.6	4	11.6	4	-1E+10	1	-1E+10	1	-1E+10	1	-1E+10	1	-1E+10	1	-1E+10	1
4902549	97	C	04/20/2023	12:57	-133.278	47.508	0	1775.30	0	2.0660	0	34.5570	0	27.621	0	1753.030	0	39.2	4	11.8	4	-1E+10	1	-1E+10	1	-1E+10	1	-1E+10	1	-1E+10	1	-1E+10	1
4902549	97	C	04/20/2023	12:57	-133.278	47.508	0	1785.10	0	2.0560	0	34.5590	0	27.623	0	1762.667	0	39.8	4	12.0	4	-1E+10	1	-1E+10	1	-1E+10	1	-1E+10	1	-1E+10	1	-1E+10	1
4902549	97	C	04/20/2023	12:57	-133.278	47.508	0	1795.10	0	2.0510	0	34.5600	0	27.625	0	1772.499	0	40.3	4	12.2	4	-1E+10	1	-1E+10	1	-1E+10	1	-1E+10	1	-1E+10	1	-1E+10	1
4902549	97	C	04/20/2023	12:57	-133.278	47.508	0	1805.10	0	2.0430	0	34.5620	0	27.627	0	1782.331	0	40.8	4	12.3	4	-1E+10	1	-1E+10	1	-1E+10	1	-1E+10	1	-1E+10	1	-1E+10	1
4902549	97	C	04/20/2023	12:57	-133.278	47.508	0	1815.20	0	2.0400	0	34.5620	0	27.627	0	1792.261	0	41.2	4	12.4	4	-1E+10	1	-1E+10	1	-1E+10	1	-1E+10	1	-1E+10	1	-1E+10	1
4902549	97	C	04/20/2023	12:57	-133.278	47.508	0	1825.40	0	2.0340	0	34.5630	0	27.629	0	1802.289	0	41.8	4	12.6	4	-1E+10	1	-1E+10	1	-1E+10	1	-1E+10	1	-1E+10	1	-1E+10	1
4902549	97	C	04/20/2023	12:57	-133.278	47.508	0	1835.50	0	2.0280	0	34.5650	0	27.631	0	1812.218	0	42.5	4	12.8	4	-1E+10	1	-1E+10	1	-1E+10	1	-1E+10	1	-1E+10	1	-1E+10	1
4902549	97	C	04/20/2023	12:57	-133.278	47.508	0	1845.50	0	2.0180	0	34.5670	0	27.633	0	1822.049	0	43.1	4	13.0	4	-1E+10	1	-1E+10	1	-1E+10	1	-1E+10	1	-1E+10	1	-1E+10	1
4902549	97	C	04/20/2023	12:57	-133.278	47.508	0	1855.50	0	2.0100	0	34.5680	0	27.635	0	1831.879	0	43.8	4	13.2	4	-1E+10	1	-1E+10	1	-1E+10	1	-1E+10	1	-1E+10	1	-1E+10	1
4902549	97	C	04/20/2023	12:57	-133.278	47.508	0	1865.70	0	2.0040	0	34.5690	0	27.636	0	1841.905	0	44.3	4	13.4	4	-1E+10	1	-1E+10	1	-1E+10	1	-1E+10	1	-1E+10	1	-1E+10	1
4902549	97	C	04/20/2023	12:57	-133.278	47.508	0	1875.30	0	1.9970	0	34.5710	0	27.638	0	1851.340	0	44.7	4	13.5	4	-1E+10	1	-1E+10	1	-1E+10	1	-1E+10	1	-1E+10	1	-1E+10	1
4902549	97	C	04/20/2023	12:57	-133.278	47.508	0	1885.00	0	1.9950	0	34.5710	0	27.638	0	1860.874	0	45.0	4	13.6	4	-1E+10	1	-1E+10	1	-1E+10	1	-1E+10	1	-1E+10	1	-1E+10	1
4902549	97	C	04/20/2023	12:57	-133.278	47.508	0	1895.20	0	1.9930	0	34.5720	0	27.639	0	1870.899	0	45.4	4	13.7	4	-1E+10	1	-1E+10	1	-1E+10	1	-1E+10	1	-1E+10	1	-1E+10	1
4902549	97	C	04/20/2023	12:57	-133.278	47.508	0	1905.30	0	1.9870	0	34.5730	0	27.641	0	1880.825	0	46.0	4	13.9	4	-1E+10	1	-1E+10	1	-1E+10	1	-1E+10	1	-1E+10	1	-1E+10	1
4902549	97	C	04/20/2023	12:57	-133.278	47.508	0	1915.60	0	1.9780	0	34.5740	0	27.642	0	1890.947	0	46.8	4	14.1	4	-1E+10	1	-1E+10	1	-1E+10	1	-1E+10	1	-1E+10	1	-1E+10	1
4902549	97	C	04/20/2023	12:57	-133.278	47.508	0	1925.40	0	1.9700	0	34.5760	0	27.644	0	1900.577	0	47.3	4	14.2	4	-1E+10	1	-1E+10	1	-1E+10	1	-1E+10	1	-1E+10	1	-1E+10	1
4902549	97	C	04/20/2023	12:57	-133.278	47.508	0	1935.20	0	1.9650	0	34.5770	0	27.646	0	1910.206	0	47.9	4	14.4	4	-1E+10	1	-1E+10	1	-1E+10	1	-1E+10	1	-1E+10	1	-1E+10	1
4902549	97	C	04/20/2023	12:57	-133.278	47.508	0	1945.50	0	1.9560	0	34.5790	0	27.648	0	1920.327	0	48.5	4	14.6	4	-1E+10	1	-1E+10	1	-1E+10	1	-1E+10	1	-1E+10	1	-1E+10	1
4902549	97	C	04/20/2023	12:57	-133.278	47.508	0	1955.30	0	1.9500	0	34.5800	0	27.649	0	1929.956	0	48.8	4	14.7	4	-1E+10	1	-1E+10	1	-1E+10	1	-1E+10	1	-1E+10	1	-1E+10	1
4902549	97	C	04/20/2023	12:57	-133.278	47.508	0	1965.60	0	1.9460	0	34.5810	0	27.651	0	1940.075	0	49.1	4	14.8	4	-1E+10	1	-1E+10	1	-1E+10	1	-1E+10	1	-1E+10	1	-1E+10	1
4902549	97	C	04/20/2023	12:57	-133.278	47.508	0	1972.30	0	1.9430	0	34.5810	0	27.651	0	1946.658	0	49.0	4	14.8	4	-1E+10	1	-1E+10	1	-1E+10	1	-1E+10	1	-1E+10	1	-1E+10	1
4902549	97	C	04/20/2023	12:57	-133.278	47.508	0																										
4902549	98	C	04/30/2023	18:08	-133.207	47.409	0	0.40	0	8.5950	0	32.3570	0	25.111	0	0.397	0	280.7	4	97.2	4	-1E+10	1	-1E+10	1	-1E+10	1	-1E+10	1	-1E+10	1	-1E+10	1
4902549	98	C	04/30/2023	18:08	-133.207	47.409	0	1.10	0	8.5920	0	32.3590	0	25.113	0	1.091	0	280.7	4	97.2	4	-1E+10	1	-1E+10	1	-1E+10	1	-1E+10	1	-1E+10	1	-1E+10	1
4902549	98	C	04/30/2023	18:08	-133.207	47.409	0	1.90	0	8.5950	0	32.3540	0	25.109	0	1.884	0	280.6	4	97.2	4	-1E+10	1	-1E+10	1	-1E+10	1	-1E+10	1	-1E+10	1	-1E+10	1
4902549	98	C	04/30/2023	18:08	-133.207	47.409	0	3.00	0	8.5940	0	32.3530	0	25.108	0	2.975	0	280.5	4	97.2	4	-1E+10	1	-1E+10	1	-1E+10	1	-1E+10	1	-1E+10	1	-1E+10	1
4902549	98	C	04/30/2023	18:08	-133.207	47.409	0	4.10	0	8.5920	0	32.3550	0	25.110	0	4.066	0	280.5	4	97.2	4	-1E+10	1	-1E+10	1	-1E+10	1	-1E+10	1	-1E+10	1	-1E+10	1
4902549	98	C	04/30/2023	18:08	-133.207	47.409	0	4.90	0	8.5880	0	32.3580	0	25.113	0	4.859	0	280.4	4	97.1	4	-1E+10	1	-1E+10	1	-1E+10	1	-1E+10	1	-1E+10	1	-1E+10	1
4902549	98	C	04/30/2023	18:08	-133.207	47.409	0	5.90	0	8.5880	0	32.3590	0	25.114	0	5.851	0	280.4	4	97.2	4	-1E+10	1	-1E+10	1	-1E+10	1	-1E+10	1	-1E+10	1	-1E+10	1
4902549	98	C	04/30/2023	18:08	-133.207	47.409	0	7.10	0	8.5880	0	32.3590	0	25.114	0	7.041	0	280.5	4	97.2	4	-1E+10	1	-1E+10	1	-1E+10	1	-1E+10	1	-1E+10	1	-1E+10	1
4902549	98	C	04/30/2023	18:08	-133.207	47.409	0	8.00	0	8.5880	0	32.3580	0	25.113	0	7.933	0	280.5	4	97.2	4	-1E+10	1	-1E+10	1	-1E+10	1	-1E+10	1	-1E+10	1	-1E+10	1
4902549	98	C	04/30/2023	18:08	-133.207	47.409	0	8.90	0	8.5850	0	32.3590	0	25.114	0	8.826	0	280.5	4	97.2	4	-1E+10	1	-1E+10	1	-1E+10	1	-1E+10	1	-1E+10	1	-1E+10	1
4902549	98	C	04/30/2023	18:08	-133.207	47.409	0	9.90	0	8.5800	0	32.3580	0	25.114	0	9.817	0	280.6	4	97.2	4	-1E+10	1	-1E+10	1	-1E+10	1	-1E+10	1	-1E+10	1	-1E+10	1
4902549	98	C	04/30/2023	18:08	-133.207	47.409	0	10.90	0	8.5780	0	32.3580	0	25.115	0	10.809	0	280.7	4	97.2	4	-1E+10	1	-1E+10	1	-1E+10	1	-1E+10	1	-1E+10	1	-1E+10	1
4902549	98	C	04/30/2023	18:08	-133.207	47.409	0	12.00	0	8.5760	0	32.3570	0	25.114	0	11.900	0	280.7	4	97.2	4	-1E+10	1	-1E+10	1	-1E+10	1	-1E+10	1	-1E+10	1	-1E+10	1
4902549	98	C	04/30/2023	18:08	-133.207	47.409	0	13.00	0	8.5750	0	32.3580	0	25.115	0	12.891	0	280.7	4	97.2	4	-1E+10	1	-1E+10	1	-1E+10	1	-1E+10	1	-1E+10	1	-1E+10	1
4902549	98	C	04/30/2023	18:08	-133.207	47.409	0	13.90	0	8.5740	0	32.3580	0	25.115	0	13.784	0	280.8	4	97.3	4	-1E+10	1	-1E+10	1	-1E+10	1	-1E+10	1	-1E+10	1	-1E+10	1
4902549	98	C	04/30/2023	18:08	-133.207	47.409	0	15.00	0	8.5690	0	32.3590	0	25.117	0	14.874	0	280.9	4	97.3	4	-1E+10	1	-1E+10	1	-1E+10	1	-1E+10	1	-1E+10	1	-1E+10	1
4902549	98	C	04/30/2023	18:08	-133.207	47.409	0	16.00	0	8.5580	0	32.3610	0	25.120	0	15.866	0	281.0	4	97.3	4	-1E+10	1	-1E+10	1	-1E+10	1	-1E+10	1	-1E+10	1	-1E+10	1
4902549	98	C	04/30/2023	18:08	-133.207	47.409	0	17.00	0	8.5400	0	32.3630	0	25.125	0	16.858	0	281.2	4	97.3	4	-1E+10	1	-1E+10	1	-1E+10	1	-1E+10	1	-1E+10	1	-1E+10	1
4902549	98	C	04/30/2023	18:08	-133.207	47.409	0	18.00	0	8.5290	0	32.3620	0	25.125	0	17.849	0	281.3	4	97.3	4	-1E+10	1	-1E+10	1	-1E+10	1	-1E+10	1	-1E+10	1	-1E+10	1
4902549	98	C	04/30/2023	18:08	-133.207	47.409	0	19.10	0	8.5140	0	32.3620	0	25.128	0	18.940	0	281.4	4	97.3	4	-1E+10	1	-1E+10	1	-1E+10	1	-1E+10	1	-1E+10	1	-1E+10	1
4902549	98	C	04/30/2023	18:08	-133.207	47.409	0	19.80	0	8.4760	0	32.3670	0	25.137	0	19.634	0	281.5	4	97.3	4	-1E+10	1	-1E+10	1	-1E+10	1	-1E+10	1	-1E+10	1	-1E+10	1
4902549	98	C	04/30/2023	18:08	-133.207	47.409	0	21.00	0	8.4290	0	32.3690	0	25.146	0	20.824	0	281.7	4	97.2	4	-1E+10	1	-1E+10	1	-1E+10	1	-1E+10	1	-1E+10	1	-1E+10	1
4902549	98	C	04/30/2023	18:08	-133.207	47.409	0	22.20	0	8.3930	0	32.3700	0	25.152	0	22.014	0	281.8	4	97.2	4	-1E+10	1	-1E+10	1	-1E+10	1	-1E+10	1	-1E+10	1	-1E+10	1
4902549	98	C	04/30/2023	18:08	-133.207	47.409	0	22.80	0	8.3840	0	32.3730	0	25.156	0	22.609	0	281.7	4	97.1	4	-1E+10	1	-1E+10	1	-1E+10	1	-1E+10	1	-1E+10	1	-1E+10	1
4902549	98	C	04/30/2023	18:08	-133.207	47.409	0	23.90	0	8.3560	0	32.3740	0	25.161	0	23.699	0	281.7	4	97.1	4	-1E+10	1	-1E+10	1	-1E+10	1	-1E+10	1	-1E+10	1	-1E+10	1
4902549	98	C	04/30/2023	18:08	-133.207	47.409	0	25.20	0	8.3050	0	32.3780	0	25.171	0	24.988	0	281.9	4	97.1	4	-1E+10	1	-1E+10	1	-1E+10	1	-1E+10	1	-1E+10	1	-1E+10	1
4902549	98	C	04/30/2023	18:08	-133.207	47.409	0	25.80	0	8.2650	0	32.3810	0	25.180	0	25.583	0	282.0	4	97.0	4	-1E+10	1	-1E+10	1	-1E+10	1	-1E+10	1	-1E+10	1	-1E+10	1
4902549	98	C	04/30/2023	18:08	-133.207	47.409	0	26.90	0	8.2430	0	32.3810	0	25.183	0	26.674	0	281.9	4	96.9	4	-1E+10	1	-1E+10	1	-1E+10	1	-1E+10	1	-1E+10	1	-1E+10	1
4902549	98	C	04/30/2023	18:08	-133.207	47.409	0	28.30	0	8.2260	0	32.3820	0	25.186	0	28.062	0	282.0	4	96.9	4	-1E+10	1	-1E+10	1	-1E+10	1	-1E+10	1	-1E+10	1	-1E+10	1
4902549	98	C	04/30/2023	18:08	-133.207	47.409	0	29.20	0	8.2230	0	32.3820	0	25.187	0	28.954	0	281.9	4	96.9	4	-1E+10	1	-1E+10	1	-1E+10	1	-1E+10	1	-1E+10	1	-1E+10	1
4902549	98	C	04/30/2023	18:08	-133.207	47.409	0	30.10	0	8.2210	0	32.3820	0	25.187	0	29.847	0	281.9	4	96.9	4	-1E+10	1	-1E+10	1	-1E+10	1	-1E+10	1	-1E+10	1	-1E+10	1
4902549	98	C	04/30/2023	18:08	-133.207	47.409	0	31.00	0	8.2180	0	32.3820	0	25.187	0	30.739	0	281.7	4	96.8	4	-1E+10	1	-1E+10	1	-1E+10	1	-1E+10	1	-1E+10	1	-1E+10	1
4902549	98	C	04/30/2023	18:08	-133.207	47.409	0	32.20	0	8.2150	0	32.3820	0	25.188	0	31.929	0	281.5	4	96.7	4	-1E+10	1	-1E+10	1	-1E+10	1	-1E+10	1	-1E+10	1	-1E+10	1
4902549	98	C	04/30/2023	18:08	-133.207	47.409	0	33.10	0	8.2120	0	32.3820	0	25.188	0	32.821	0	281.2	4	96.6	4	-1E+10	1	-1E+10	1	-1E+10	1	-1E+10	1	-1E+10	1	-1E+10	1
4902549	98	C	04/30/2023	18:08	-133.207	47.409	0	34.10	0	8.2040	0	32.3810	0	25.189	0	33.813	0	280.9	4	96.5	4	-1E+10	1	-1E+10	1	-1E+10	1	-1E+10	1	-1E+10	1	-1E+10	1
4902549	98	C	04/30/2023	18:08	-133.207	47.409	0	35.20	0	8.1400	0	32.3850	0	25.201	0	34.904	0	280.9	4	96.3	4	-1E+10	1	-1E+10	1	-1E+10	1	-1E+10	1	-1E+10	1	-1E+10	1
4902549	98	C	04/30/2023	18:08	-133.207	47.409	0	36.10	0	8.0890	0	32.3820	0	25.206	0	35.796	0	280.8	4	96.2	4	-1E+10	1	-1E+10	1	-1E+10	1	-1E+10	1	-1E+10	1	-1E+10	1
4902549	98	C	04/30/2023	18:08	-133.207	47.409	0	36.80	0	8.0530	0	32.3840	0	25.213	0	36.490	0	280.8	4	96.1	4	-1E+10	1	-1E+10	1	-1E+10	1	-1E+10	1	-1E+10	1	-1E+10	1
4902549	98	C	04/30/2023	18:08	-133.207	47.409	0	37.70	0	8.0160	0	32.3840	0	25.218	0	37.382	0	280.6	4	96.0	4	-1E+10	1	-1E+10	1	-1E+10	1	-1E+10	1	-1E+10	1	-1E+10	1
4902549	98	C	04/30/2023	18:08	-133.207	47.409	0	39.10	0	7.9810	0	32.3850	0	25.224	0	38.770	0	280.3	4	95.8	4	-1E+10	1	-1E+10	1	-1E+10	1	-1E+10	1	-1E+10	1	-1E+10	1
4902549	98	C	04/30/2023	18:08	-133.207	47.409	0	40.00	0	7.9460	0	32.3850	0	25.229	0	39.663	0	280.3	4	95.7	4	-1E+10	1	-1E+10	1	-1E+10	1	-1E+10	1	-1E+10	1	-1E+10	1
4902549	98	C	04/30/2023	18:08	-133.207	47.409	0	41.20	0	7.9330	0	32.3850	0	25.231	0	40.852	0	280.1	4	95.6	4	-1E+10	1	-1E+10	1	-1E+10	1	-1E+10	1	-1E+10	1	-1E+10	1
4902549	98	C	04/30/2023	18:08	-133.207	47.409	0	41.90	0	7.9290	0	32.3850	0	25.232	0	41.546	0	279.8	4	95.5	4	-1E+10	1	-1E+10	1	-1E+10	1	-1E+10	1	-1E+10	1	-1E+10	1
4902549	98	C	04/30/2023	18:08	-133.207	47.409	0	42.80	0	7.9240	0	32.3850	0	25.232	0	42.439	0	279.6	4	95.5	4	-1E+10	1	-1E+10	1	-1E+10	1	-1E+10	1	-1E+10	1	-1E+10	1
4902549	98	C	04/30/2023	18:08	-133.207	47.409	0	44.00	0	7.9130	0	32.3850	0	25.234	0	43.628	0	279.3	4	95.3	4	-1E+10	1	-1E+10	1	-1E+10	1	-1E+10	1	-1E+10	1	-1E+10	1
4902549	98	C	04/30/2023	18:08	-133.207	47.409	0	45.10	0	7.9030	0	32.3850	0	25.235	0	44.719	0	279.0	4	95.2	4	-1E+10	1	-1E+10	1	-1E+10	1	-1E+10	1	-1E+10	1	-1E+10	1
4902549	98	C	04/30/2023	18:08	-133.207	47.409	0	46.00	0	7.8930	0	32.3860	0	25.238	0	45.611	0	278.8	4	95.1	4	-1E+10	1	-1E+10	1	-1E+10	1	-1E+10	1	-1E+10	1	-1E+10	1
4902549	98	C	04/30/2023	18:08	-133.207	47.409	0	47.20	0	7.8820	0	32.3870	0	25.240	0	46.801	0	278.6	4	95.0	4	-1E+10	1	-1E+10	1	-1E+10	1	-1E+10	1	-1E+10	1	-1E+10	1
4902549	98	C	04/30/2023	18:08	-133.207	47.409	0	48.10	0	7.8770	0	32.3870	0	25.241	0	47.693	0	278.5	4	95.0	4	-1E+10	1	-1E+10	1	-1E+10	1	-1E+10	1	-1E+10	1	-1E+10	1
4902549	98	C	04/30/2023	18:08	-133.207	47.409	0	49.00	0	7.8720	0	32.3870	0	25.242	0	48.586	0	278.3	4	94.9	4	-1E+10	1	-1E+10	1	-1E+10	1	-1E+10	1	-1E+10	1	-1E+10	1
4902549	98	C	04/30/2023	18:08	-133.207	47.409	0	49.90	0	7.8610	0	32.3870	0	25.243	0	49.478	0	278.2	4	94.8	4	-1E+10	1	-1E+10	1	-1E+10	1	-1E+10	1	-1E+10	1	-1E+10	1
4902549	98	C	04/30/2023	18:08	-133.207	47.409	0	51.00	0	7.8570	0	32.3880	0	25.244	0	50.569	0	278.0	4	94.8	4	-1E+10	1	-1E+10	1	-1E+10	1	-1E+10	1	-1E+10	1	-1E+10	1
4902549	98	C	04/30/2023	18:08	-133.207	47.409	0	51.90	0	7.8540	0	32.3880	0	25.245	0	51.461	0	277.8	4	94.7	4	-1E+10	1	-1E+10	1	-1E+10	1	-1E+10	1	-1E+10	1	-1E+10	1
4902549	98	C	04/30/2023	18:08	-133.207	47.409	0	52.80	0	7.8540	0	32.3890	0	25.246	0	52.353	0	277.8	4	94.7	4	-1E+10	1	-1E+10	1	-1E+10	1	-1E+10	1	-1E+10	1	-1E+10	1
4902549	98	C	04/30/2023	18:08	-133.207	47.409	0	53.90	0	7.8540	0	32.3890	0	25.246	0	53.444	0	277.6	4	94.6	4	-1E+10	1	-1E+10	1	-1E+10	1	-1E+10	1	-1E+10	1	-1E+10	1
4902549	98	C	04/30/2023	18:08	-133.207	47.409	0	55.00	0	7.8530	0	32.3890	0	25.246	0	54.534	0	277.4	4	94.6	4	-1E+10	1	-1E+10	1	-1E+10	1	-1E+10	1	-1E+10	1	-1E+10	1
4902549	98	C	04/30/2023	18:08	-133.207	47.409	0	56.10	0	7.8520	0	32.3890	0	25.246	0	55.625	0	277.2	4	94.5	4	-1E+10	1	-1E+10	1	-1E+10	1	-1E+10	1	-1E+10	1	-1E+10	1
4902549	98	C	04/30/2023	18:08	-133.207	47.409	0	56.90	0	7.8500	0	32.3890	0	25.246	0	56.418	0	277.1	4	94.4	4	-1E+10	1	-1E+10	1	-1E+10	1	-1E+10	1	-1E+10	1	-1E+10	1
4902549	98	C	04/30/2023	18:08	-133.207	47.409	0	58.30	0	7.8480	0	32.3890	0	25.247	0	57.806	0	276.9	4	94.4	4	-1E+10	1	-1E+10	1	-1E+10	1	-1E+10	1	-1E+10	1	-1E+10	1
4902549	98	C	04/30/2023	18:08	-133.207	47.409	0	58.90	0	7.8460	0	32.3890	0	25.247	0	58.401	0	276.7	4	94.3	4	-1E+10	1	-1E+10	1	-1E+10	1	-1E+10	1	-1E+10	1	-1E+10	1
4902549	98	C	04/30/2023	18:08	-133.207	47.409	0	59.80	0	7.8440	0	32.3890	0	25.247	0	59.293	0	276.6	4	94.3	4	-1E+10	1	-1E+10	1	-1E+10	1	-1E+10	1	-1E+10	1	-1E+10	1
4902549	98	C	04/30/2023	18:08	-133.207	47.409	0	60.90	0	7.8390	0	32.3900	0	25.249	0	60.383	0	276.5	4	94.2	4	-1E+10	1	-1E+10	1	-1E+10	1	-1E+10	1	-1E+10	1	-1E+10	1
4902549	98	C	04/30/2023	18:08	-133.207	47.409	0	62.30	0	7.8360	0	32.3900	0	25.249	0	61.771	0	276.3	4	94.1	4	-1E+10	1	-1E+10	1	-1E+10	1	-1E+10	1	-1E+10	1	-1E+10	1
4902549	98	C	04/30/2023	18:08	-133.207	47.409	0	63.20	0	7.8320	0	32.3900	0	25.250	0	62.663	0	276.2	4	94.1	4	-1E+10	1	-1E+10	1	-1E+10	1	-1E+10	1	-1E+10	1	-1E+10	1
4902549	98	C	04/30/2023	18:08	-133.207	47.409	0	63.90	0	7.8320	0	32.3900	0	25.250	0	63.357	0	276.1	4	94.1	4	-1E+10	1	-1E+10	1	-1E+10	1	-1E+10	1	-1E+10	1	-1E+10	1
4902549	98	C	04/30/2023	18:08	-133.207	47.409	0	65.00	0	7.8300	0	32.3900	0	25.250	0	64.448	0	275.9	4	94.0	4	-1E+10	1	-1E+10	1	-1E+10	1	-1E+10	1	-1E+10	1	-1E+10	1
4902549	98	C	04/30/2023	18:08	-133.207	47.409	0	65.90	0	7.8290	0	32.3910	0	25.251	0	65.340	0	275.8	4	93.9	4	-1E+10	1	-1E+10	1	-1E+10	1	-1E+10	1	-1E+10	1	-1E+10	1
4902549	98	C	04/30/2023	18:08	-133.207	47.409	0	67.00	0	7.8290	0	32.3910	0	25.251	0	66.431	0	275.7	4	93.9	4	-1E+10	1	-1E+10	1	-1E+10	1	-1E+10	1	-1E+10	1	-1E+10	1
4902549	98	C	04/30/2023	18:08	-133.207	47.409	0	68.00	0	7.8280	0	32.3910	0	25.251	0	67.422	0	275.4	4	93.8	4	-1E+10	1	-1E+10	1	-1E+10	1	-1E+10	1	-1E+10	1	-1E+10	1
4902549	98	C	04/30/2023	18:08	-133.207	47.409	0	69.10	0	7.8270	0	32.3910	0	25.251	0	68.512	0	275.4	4	93.8	4	-1E+10	1	-1E+10	1	-1E+10	1	-1E+10	1	-1E+10	1	-1E+10	1
4902549	98	C	04/30/2023	18:08	-133.207	47.409	0	69.90	0	7.8250	0	32.3910	0	25.252	0	69.305	0	275.3	4	93.8	4	-1E+10	1	-1E+10	1	-1E+10	1	-1E+10	1	-1E+10	1	-1E+10	1
4902549	98	C	04/30/2023	18:08	-133.207	47.409	0	70.80	0	7.8230	0	32.3910	0	25.252	0	70.198	0	275.2	4	93.7	4	-1E+10	1	-1E+10	1	-1E+10	1	-1E+10	1	-1E+10	1	-1E+10	1
4902549	98	C	04/30/2023	18:08	-133.207	47.409	0	71.90	0	7.8230	0	32.3910	0	25.252	0	71.288	0	275.1	4	93.7	4	-1E+10	1	-1E+10	1	-1E+10	1	-1E+10	1	-1E+10	1	-1E+10	1
4902549	98	C	04/30/2023	18:08	-133.207	47.409	0	73.10	0	7.8230	0	32.3910	0	25.252	0	72.478	0	274.9	4	93.7	4	-1E+10	1	-1E+10	1	-1E+10	1	-1E+10	1	-1E+10	1	-1E+10	1
4902549	98	C	04/30/2023	18:08	-133.207	47.409	0	74.00	0	7.8230	0	32.3910	0	25.252	0	73.370	0	274.9	4	93.6	4	-1E+10	1	-1E+10	1	-1E+10	1	-1E+10	1	-1E+10	1	-1E+10	1
4902549	98	C	04/30/2023	18:08	-133.207	47.409	0	74.90	0	7.8220	0	32.3910	0	25.252	0	74.262	0	274.7	4	93.6	4	-1E+10	1	-1E+10	1	-1E+10	1	-1E+10	1	-1E+10	1	-1E+10	1
4902549	98	C	04/30/2023	18:08	-133.207	47.409	0	76.10	0	7.8220	0	32.3910	0	25.252	0	75.452	0	274.6	4	93.5	4	-1E+10	1	-1E+10	1	-1E+10	1	-1E+10	1	-1E+10	1	-1E+10	1
4902549	98	C	04/30/2023	18:08	-133.207	47.409	0	77.00	0	7.8220	0	32.3920	0	25.253	0	76.344	0	274.3	4	93.4	4	-1E+10	1	-1E+10	1	-1E+10	1	-1E+10	1	-1E+10	1	-1E+10	1
4902549	98	C	04/30/2023	18:08	-133.207	47.409	0	77.90	0	7.8220	0	32.3920	0	25.253	0	77.236	0	274.3	4	93.4	4	-1E+10	1	-1E+10	1	-1E+10	1	-1E+10	1	-1E+10	1	-1E+10	1
4902549	98	C	04/30/2023	18:08	-133.207	47.409	0	79.10	0	7.8220	0	32.3930	0	25.254	0	78.425	0	274.2	4	93.4	4	-1E+10	1	-1E+10	1	-1E+10	1	-1E+10	1	-1E+10	1	-1E+10	1
4902549	98	C	04/30/2023	18:08	-133.207	47.409	0	80.00	0	7.8220	0	32.3930	0	25.254	0	79.318	0	274.1	4	93.4	4	-1E+10	1	-1E+10	1	-1E+10	1	-1E+10	1	-1E+10	1	-1E+10	1
4902549	98	C	04/30/2023	18:08	-133.207	47.409	0	80.90	0	7.8220	0	32.3930	0	25.254	0	80.210	0	274.0	4	93.3	4	-1E+10	1	-1E+10	1	-1E+10	1	-1E+10	1	-1E+10	1	-1E+10	1
4902549	98	C	04/30/2023	18:08	-133.207	47.409	0	82.10	0	7.8220	0	32.3930	0	25.254	0	81.399	0	273.8	4	93.3	4	-1E+10	1	-1E+10	1	-1E+10	1	-1E+10	1	-1E+10	1	-1E+10	1
4902549	98	C	04/30/2023	18:08	-133.207	47.409	0	83.00	0	7.8210	0	32.3930	0	25.254	0	82.291	0	280.5	4	95.6	4	-1E+10	1	-1E+10	1	-1E+10	1	-1E+10	1	-1E+10	1	-1E+10	1
4902549	98	C	04/30/2023	18:08	-133.207	47.409	0	83.80	0	7.8200	0	32.3930	0	25.254	0	83.084	0	280.4	4	95.5	4	-1E+10	1	-1E+10	1	-1E+10	1	-1E+10	1	-1E+10	1	-1E+10	1
4902549	98	C	04/30/2023	18:08	-133.207	47.409	0	85.00	0	7.8190	0	32.3930	0	25.254	0	84.274	0	280.2	4	95.4	4	-1E+10	1	-1E+10	1	-1E+10	1	-1E+10	1	-1E+10	1	-1E+10	1
4902549	98	C	04/30/2023	18:08	-133.207	47.409	0	86.10	0	7.8170	0	32.3940	0	25.255	0	85.364	0	279.9	4	95.3	4	-1E+10	1	-1E+10	1	-1E+10	1	-1E+10	1	-1E+10	1	-1E+10	1
4902549	98	C	04/30/2023	18:08	-133.207	47.409	0	87.10	0	7.8140	0	32.3950	0	25.257	0	86.356	0	279.6	4	95.2	4	-1E+10	1	-1E+10	1	-1E+10	1	-1E+10	1	-1E+10	1	-1E+10	1
4902549	98	C	04/30/2023	18:08	-133.207	47.409	0	88.00	0	7.8130	0	32.3950	0	25.257	0	87.248	0	279.6	4	95.2	4	-1E+10	1	-1E+10	1	-1E+10	1	-1E+10	1	-1E+10	1	-1E+10	1
4902549	98	C	04/30/2023	18:08	-133.207	47.409	0	88.70	0	7.8120	0	32.3950	0	25.257	0	87.942	0	279.3	4	95.1	4	-1E+10	1	-1E+10	1	-1E+10	1	-1E+10	1	-1E+10	1	-1E+10	1
4902549	98	C	04/30/2023	18:08	-133.207	47.409	0	89.90	0	7.8110	0	32.3960	0	25.258	0	89.131	0	278.8	4	94.9	4	-1E+10	1	-1E+10	1	-1E+10	1	-1E+10	1	-1E+10	1	-1E+10	1
4902549	98	C	04/30/2023	18:08	-133.207	47.409	0	90.80	0	7.8100	0	32.3960	0	25.258	0	90.023	0	278.4	4	94.8	4	-1E+10	1	-1E+10	1	-1E+10	1	-1E+10	1	-1E+10	1	-1E+10	1
4902549	98	C	04/30/2023	18:08	-133.207	47.409	0	91.80	0	7.8080	0	32.3960	0	25.258	0	91.014	0	277.9	4	94.6	4	-1E+10	1	-1E+10	1	-1E+10	1	-1E+10	1	-1E+10	1	-1E+10	1
4902549	98	C	04/30/2023	18:08	-133.207	47.409	0	92.80	0	7.8060	0	32.3970	0	25.259	0	92.006	0	277.2	4	94.4	4	-1E+10	1	-1E+10	1	-1E+10	1	-1E+10	1	-1E+10	1	-1E+10	1
4902549	98	C	04/30/2023	18:08	-133.207	47.409	0	93.80	0	7.8030	0	32.3980	0	25.261	0	92.997	0	276.4	4	94.1	4	-1E+10	1	-1E+10	1	-1E+10	1	-1E+10	1	-1E+10	1	-1E+10	1
4902549	98	C	04/30/2023	18:08	-133.207	47.409	0	94.80	0	7.7990	0	32.4000	0	25.263	0	93.988	0	275.6	4	93.8	4	-1E+10	1	-1E+10	1	-1E+10	1	-1E+10	1	-1E+10	1	-1E+10	1
4902549	98	C	04/30/2023	18:08	-133.207	47.409	0	95.90	0	7.7930	0	32.4010	0	25.264	0	95.078	0	274.7	4	93.5	4	-1E+10	1	-1E+10	1	-1E+10	1	-1E+10	1	-1E+10	1	-1E+10	1
4902549	98	C	04/30/2023	18:08	-133.207	47.409	0	96.90	0	7.7790	0	32.4070	0	25.271	0	96.070	0	273.6	4	93.1	4	-1E+10	1	-1E+10	1	-1E+10	1	-1E+10	1	-1E+10	1	-1E+10	1
4902549	98	C	04/30/2023	18:08	-133.207	47.409	0	97.90	0	7.7680	0	32.4130	0	25.277	0	97.061	0	272.4	4	92.7	4	-1E+10	1	-1E+10	1	-1E+10	1	-1E+10	1	-1E+10	1	-1E+10	1
4902549	98	C	04/30/2023	18:08	-133.207	47.409	0	99.20	0	7.7480	0	32.4170	0	25.283	0	98.349	0	270.6	4	92.0	4	-1E+10	1	-1E+10	1	-1E+10	1	-1E+10	1	-1E+10	1	-1E+10	1
4902549	98	C	04/30/2023	18:08	-133.207	47.409	0	100.10	0	7.7230	0	32.4230	0	25.292	0	99.241	0	269.4	4	91.6	4	-1E+10	1	-1E+10	1	-1E+10	1	-1E+10	1	-1E+10	1	-1E+10	1
4902549	98	C	04/30/2023	18:08	-133.207	47.409	0	101.10	0	7.6900	0	32.4330	0	25.304	0	100.233	0	267.9	4	91.0	4	-1E+10	1	-1E+10	1	-1E+10	1	-1E+10	1	-1E+10	1	-1E+10	1
4902549	98	C	04/30/2023	18:08	-133.207	47.409	0	102.00	0	7.6780	0	32.4340	0	25.307	0	101.125	0	265.8	4	90.3	4	-1E+10	1	-1E+10	1	-1E+10	1	-1E+10	1	-1E+10	1	-1E+10	1
4902549	98	C	04/30/2023	18:08	-133.207	47.409	0	103.00	0	7.6260	0	32.4370	0	25.316	0	102.116	0	264.1	4	89.6	4	-1E+10	1	-1E+10	1	-1E+10	1	-1E+10	1	-1E+10	1	-1E+10	1
4902549	98	C	04/30/2023	18:08	-133.207	47.409	0	104.00	0	7.5920	0	32.4540	0	25.334	0	103.107	0	262.3	4	88.9	4	-1E+10	1	-1E+10	1	-1E+10	1	-1E+10	1	-1E+10	1	-1E+10	1
4902549	98	C	04/30/2023	18:08	-133.207	47.409	0	105.00	0	7.5760	0	32.4690	0	25.348	0	104.098	0	260.4	4	88.2	4	-1E+10	1	-1E+10	1	-1E+10	1	-1E+10	1	-1E+10	1	-1E+10	1
4902549	98	C	04/30/2023	18:08	-133.207	47.409	0	106.20	0	7.5640	0	32.4790	0	25.358	0	105.287	0	257.9	4	87.4	4	-1E+10	1	-1E+10	1	-1E+10	1	-1E+10	1	-1E+10	1	-1E+10	1
4902549	98	C	04/30/2023	18:08	-133.207	47.409	0	107.00	0	7.5320	0	32.5080	0	25.385	0	106.080	0	256.1	4	86.7	4	-1E+10	1	-1E+10	1	-1E+10	1	-1E+10	1	-1E+10	1	-1E+10	1
4902549	98	C	04/30/2023	18:08	-133.207	47.409	0	108.20	0	7.5230	0	32.5270	0	25.401	0	107.270	0	253.1	4	85.7	4	-1E+10	1	-1E+10	1	-1E+10	1	-1E+10	1	-1E+10	1	-1E+10	1
4902549	98	C	04/30/2023	18:08	-133.207	47.409	0	109.10	0	7.5240	0	32.5350	0	25.408	0	108.162	0	251.0	4	85.0	4	-1E+10	1	-1E+10	1	-1E+10	1	-1E+10	1	-1E+10	1	-1E+10	1
4902549	98	C	04/30/2023	18:08	-133.207	47.409	0	109.90	0	7.5210	0	32.5480	0	25.418	0	108.955	0	248.9	4	84.3	4	-1E+10	1	-1E+10	1	-1E+10	1	-1E+10	1	-1E+10	1	-1E+10	1
4902549	98	C	04/30/2023	18:08	-133.207	47.409	0	111.20	0	7.5190	0	32.5680	0	25.434	0	110.243	0	245.3	4	83.1	4	-1E+10	1	-1E+10	1	-1E+10	1	-1E+10	1	-1E+10	1	-1E+10	1
4902549	98	C	04/30/2023	18:08	-133.207	47.409	0	112.00	0	7.5010	0	32.5830	0	25.449	0	111.036	0	242.3	4	82.1	4	-1E+10	1	-1E+10	1	-1E+10	1	-1E+10	1	-1E+10	1	-1E+10	1
4902549	98	C	04/30/2023	18:08	-133.207	47.409	0	113.20	0	7.4860	0	32.5970	0	25.462	0	112.225	0	237.8	4	80.5	4	-1E+10	1	-1E+10	1	-1E+10	1	-1E+10	1	-1E+10	1	-1E+10	1
4902549	98	C	04/30/2023	18:08	-133.207	47.409	0	114.00	0	7.4710	0	32.6080	0	25.472	0	113.018	0	236.7	4	80.1	4	-1E+10	1	-1E+10	1	-1E+10	1	-1E+10	1	-1E+10	1	-1E+10	1
4902549	98	C	04/30/2023	18:08	-133.207	47.409	0	114.80	0	7.4420	0	32.7210	0	25.565	0	113.811	0	234.6	4	79.4	4	-1E+10	1	-1E+10	1	-1E+10	1	-1E+10	1	-1E+10	1	-1E+10	1
4902549	98	C	04/30/2023	18:08	-133.207	47.409	0	115.90	0	7.3650	0	32.8720	0	25.695	0	114.901	0	233.3	4	78.9	4	-1E+10	1	-1E+10	1	-1E+10	1	-1E+10	1	-1E+10	1	-1E+10	1
4902549	98	C	04/30/2023	18:08	-133.207	47.409	0	117.00	0	7.3560	0	32.8790	0	25.701	0	115.992	0	232.1	4	78.5	4	-1E+10	1	-1E+10	1	-1E+10	1	-1E+10	1	-1E+10	1	-1E+10	1
4902549	98	C	04/30/2023	18:08	-133.207	47.409	0	118.00	0	7.3520	0	32.8820	0	25.704	0	116.983	0	230.3	4	77.9	4	-1E+10	1	-1E+10	1	-1E+10	1	-1E+10	1	-1E+10	1	-1E+10	1
4902549	98	C	04/30/2023	18:08	-133.207	47.409	0	118.90	0	7.3410	0	32.8950	0	25.716	0	117.875	0	228.1	4	77.1	4	-1E+10	1	-1E+10	1	-1E+10	1	-1E+10	1	-1E+10	1	-1E+10	1
4902549	98	C	04/30/2023	18:08	-133.207	47.409	0	120.10	0	7.3030	0	32.9360	0	25.754	0	119.064	0	225.2	4	76.1	4	-1E+10	1	-1E+10	1	-1E+10	1	-1E+10	1	-1E+10	1	-1E+10	1
4902549	98	C	04/30/2023	18:08	-133.207	47.409	0	121.00	0	7.2880	0	32.9510	0	25.768	0	119.956	0	223.0	4	75.3	4	-1E+10	1	-1E+10	1	-1E+10	1	-1E+10	1	-1E+10	1	-1E+10	1
4902549	98	C	04/30/2023	18:08	-133.207	47.409	0	121.90	0	7.2380	0	33.0080	0	25.819	0	120.848	0	220.6	4	74.5	4	-1E+10	1	-1E+10	1	-1E+10	1	-1E+10	1	-1E+10	1	-1E+10	1
4902549	98	C	04/30/2023	18:08	-133.207	47.409	0	123.10	0	7.1620	0	33.1010	0	25.903	0	122.037	0	219.5	4	74.0	4	-1E+10	1	-1E+10	1	-1E+10	1	-1E+10	1	-1E+10	1	-1E+10	1
4902549	98	C	04/30/2023	18:08	-133.207	47.409	0	124.00	0	7.1610	0	33.1360	0	25.931	0	122.929	0	219.0	4	73.9	4	-1E+10	1	-1E+10	1	-1E+10	1	-1E+10	1	-1E+10	1	-1E+10	1
4902549	98	C	04/30/2023	18:08	-133.207	47.409	0	125.00	0	7.1490	0	33.1790	0	25.966	0	123.920	0	218.4	4	73.7	4	-1E+10	1	-1E+10	1	-1E+10	1	-1E+10	1	-1E+10	1	-1E+10	1
4902549	98	C	04/30/2023	18:08	-133.207	47.409	0	126.20	0	7.1400	0	33.1990	0	25.983	0	125.110	0	217.9	4	73.5	4	-1E+10	1	-1E+10	1	-1E+10	1	-1E+10	1	-1E+10	1	-1E+10	1
4902549	98	C	04/30/2023	18:08	-133.207	47.409	0	126.90	0	7.1250	0	33.2170	0	25.999	0	125.803	0	217.5	4	73.4	4	-1E+10	1	-1E+10	1	-1E+10	1	-1E+10	1	-1E+10	1	-1E+10	1
4902549	98	C	04/30/2023	18:08	-133.207	47.409	0	127.90	0	7.1160	0	33.2290	0	26.010	0	126.794	0	217.1	4	73.2	4	-1E+10	1	-1E+10	1	-1E+10	1	-1E+10	1	-1E+10	1	-1E+10	1
4902549	98	C	04/30/2023	18:08	-133.207	47.409	0	128.90	0	7.1110	0	33.2330	0	26.014	0	127.785	0	216.4	4	73.0	4	-1E+10	1	-1E+10	1	-1E+10	1	-1E+10	1	-1E+10	1	-1E+10	1
4902549	98	C	04/30/2023	18:08	-133.207	47.409	0	129.90	0	7.1010	0	33.2400	0	26.021	0	128.776	0	215.5	4	72.7	4	-1E+10	1	-1E+10	1	-1E+10	1	-1E+10	1	-1E+10	1	-1E+10	1
4902549	98	C	04/30/2023	18:08	-133.207	47.409	0	130.90	0	7.0900	0	33.2480	0	26.028	0	129.767	0	214.4	4	72.3	4	-1E+10	1	-1E+10	1	-1E+10	1	-1E+10	1	-1E+10	1	-1E+10	1
4902549	98	C	04/30/2023	18:08	-133.207	47.409	0	132.10	0	7.0540	0	33.2790	0	26.058	0	130.957	0	213.4	4	71.9	4	-1E+10	1	-1E+10	1	-1E+10	1	-1E+10	1	-1E+10	1	-1E+10	1
4902549	98	C	04/30/2023	18:08	-133.207	47.409	0	133.00	0	7.0350	0	33.2920	0	26.071	0	131.849	0	212.7	4	71.7	4	-1E+10	1	-1E+10	1	-1E+10	1	-1E+10	1	-1E+10	1	-1E+10	1
4902549	98	C	04/30/2023	18:08	-133.207	47.409	0	133.90	0	7.0100	0	33.3110	0	26.089	0	132.741	0	212.1	4	71.4	4	-1E+10	1	-1E+10	1	-1E+10	1	-1E+10	1	-1E+10	1	-1E+10	1
4902549	98	C	04/30/2023	18:08	-133.207	47.409	0	134.90	0	6.9640	0	33.3470	0	26.123	0	133.732	0	211.6	4	71.2	4	-1E+10	1	-1E+10	1	-1E+10	1	-1E+10	1	-1E+10	1	-1E+10	1
4902549	98	C	04/30/2023	18:08	-133.207	47.409	0	135.80	0	6.9480	0	33.3520	0	26.130	0	134.623	0	211.2	4	71.0	4	-1E+10	1	-1E+10	1	-1E+10	1	-1E+10	1	-1E+10	1	-1E+10	1
4902549	98	C	04/30/2023	18:08	-133.207	47.409	0	136.80	0	6.9410	0	33.3540	0	26.132	0	135.614	0	210.6	4	70.8	4	-1E+10	1	-1E+10	1	-1E+10	1	-1E+10	1	-1E+10	1	-1E+10	1
4902549	98	C	04/30/2023	18:08	-133.207	47.409	0	137.80	0	6.9250	0	33.3590	0	26.138	0	136.605	0	210.0	4	70.6	4	-1E+10	1	-1E+10	1	-1E+10	1	-1E+10	1	-1E+10	1	-1E+10	1
4902549	98	C	04/30/2023	18:08	-133.207	47.409	0	138.80	0	6.9170	0	33.3610	0	26.141	0	137.596	0	209.3	4	70.3	4	-1E+10	1	-1E+10	1	-1E+10	1	-1E+10	1	-1E+10	1	-1E+10	1
4902549	98	C	04/30/2023	18:08	-133.207	47.409	0	139.80	0	6.9020	0	33.3660	0	26.147	0	138.587	0	208.4	4	70.0	4	-1E+10	1	-1E+10	1	-1E+10	1	-1E+10	1	-1E+10	1	-1E+10	1
4902549	98	C	04/30/2023	18:08	-133.207	47.409	0	140.90	0	6.8930	0	33.3730	0	26.154	0	139.678	0	207.5	4	69.7	4	-1E+10	1	-1E+10	1	-1E+10	1	-1E+10	1	-1E+10	1	-1E+10	1
4902549	98	C	04/30/2023	18:08	-133.207	47.409	0	141.80	0	6.8880	0	33.3780	0	26.158	0	140.569	0	206.5	4	69.4	4	-1E+10	1	-1E+10	1	-1E+10	1	-1E+10	1	-1E+10	1	-1E+10	1
4902549	98	C	04/30/2023	18:08	-133.207	47.409	0	142.90	0	6.8850	0	33.3860	0	26.165	0	141.659	0	205.3	4	68.9	4	-1E+10	1	-1E+10	1	-1E+10	1	-1E+10	1	-1E+10	1	-1E+10	1
4902549	98	C	04/30/2023	18:08	-133.207	47.409	0	143.80	0	6.8840	0	33.3910	0	26.169	0	142.551	0	204.0	4	68.5	4	-1E+10	1	-1E+10	1	-1E+10	1	-1E+10	1	-1E+10	1	-1E+10	1
4902549	98	C	04/30/2023	18:08	-133.207	47.409	0	144.90	0	6.8830	0	33.4010	0	26.177	0	143.641	0	202.7	4	68.1	4	-1E+10	1	-1E+10	1	-1E+10	1	-1E+10	1	-1E+10	1	-1E+10	1
4902549	98	C	04/30/2023	18:08	-133.207	47.409	0	146.00	0	6.8670	0	33.4410	0	26.211	0	144.732	0	201.3	4	67.6	4	-1E+10	1	-1E+10	1	-1E+10	1	-1E+10	1	-1E+10	1	-1E+10	1
4902549	98	C	04/30/2023	18:08	-133.207	47.409	0	147.20	0	6.8410	0	33.4680	0	26.235	0	145.921	0	200.2	4	67.2	4	-1E+10	1	-1E+10	1	-1E+10	1	-1E+10	1	-1E+10	1	-1E+10	1
4902549	98	C	04/30/2023	18:08	-133.207	47.409	0	147.90	0	6.8060	0	33.4890	0	26.257	0	146.614	0	199.7	4	67.0	4	-1E+10	1	-1E+10	1	-1E+10	1	-1E+10	1	-1E+10	1	-1E+10	1
4902549	98	C	04/30/2023	18:08	-133.207	47.409	0	148.70	0	6.7760	0	33.4980	0	26.268	0	147.407	0	199.3	4	66.8	4	-1E+10	1	-1E+10	1	-1E+10	1	-1E+10	1	-1E+10	1	-1E+10	1
4902549	98	C	04/30/2023	18:08	-133.207	47.409	0	149.90	0	6.7570	0	33.5130	0	26.282	0	148.596	0	198.6	4	66.6	4	-1E+10	1	-1E+10	1	-1E+10	1	-1E+10	1	-1E+10	1	-1E+10	1
4902549	98	C	04/30/2023	18:08	-133.207	47.409	0	151.10	0	6.7200	0	33.5230	0	26.295	0	149.785	0	197.8	4	66.3	4	-1E+10	1	-1E+10	1	-1E+10	1	-1E+10	1	-1E+10	1	-1E+10	1
4902549	98	C	04/30/2023	18:08	-133.207	47.409	0	152.00	0	6.6970	0	33.5420	0	26.313	0	150.677	0	197.3	4	66.1	4	-1E+10	1	-1E+10	1	-1E+10	1	-1E+10	1	-1E+10	1	-1E+10	1
4902549	98	C	04/30/2023	18:08	-133.207	47.409	0	152.80	0	6.7050	0	33.5490	0	26.317	0	151.470	0	196.9	4	65.9	4	-1E+10	1	-1E+10	1	-1E+10	1	-1E+10	1	-1E+10	1	-1E+10	1
4902549	98	C	04/30/2023	18:08	-133.207	47.409	0	153.60	0	6.7080	0	33.5530	0	26.320	0	152.263	0	196.5	4	65.8	4	-1E+10	1	-1E+10	1	-1E+10	1	-1E+10	1	-1E+10	1	-1E+10	1
4902549	98	C	04/30/2023	18:08	-133.207	47.409	0	154.90	0	6.6990	0	33.5590	0	26.326	0	153.551	0	195.9	4	65.6	4	-1E+10	1	-1E+10	1	-1E+10	1	-1E+10	1	-1E+10	1	-1E+10	1
4902549	98	C	04/30/2023	18:08	-133.207	47.409	0	156.10	0	6.6940	0	33.5640	0	26.331	0	154.740	0	195.3	4	65.4	4	-1E+10	1	-1E+10	1	-1E+10	1	-1E+10	1	-1E+10	1	-1E+10	1
4902549	98	C	04/30/2023	18:08	-133.207	47.409	0	157.00	0	6.6930	0	33.5620	0	26.329	0	155.632	0	194.7	4	65.2	4	-1E+10	1	-1E+10	1	-1E+10	1	-1E+10	1	-1E+10	1	-1E+10	1
4902549	98	C	04/30/2023	18:08	-133.207	47.409	0	157.80	0	6.6870	0	33.5650	0	26.332	0	156.425	0	194.2	4	65.0	4	-1E+10	1	-1E+10	1	-1E+10	1	-1E+10	1	-1E+10	1	-1E+10	1
4902549	98	C	04/30/2023	18:08	-133.207	47.409	0	158.60	0	6.6860	0	33.5660	0	26.333	0	157.217	0	193.6	4	64.8	4	-1E+10	1	-1E+10	1	-1E+10	1	-1E+10	1	-1E+10	1	-1E+10	1
4902549	98	C	04/30/2023	18:08	-133.207	47.409	0	159.90	0	6.6870	0	33.5690	0	26.336	0	158.505	0	192.5	4	64.4	4	-1E+10	1	-1E+10	1	-1E+10	1	-1E+10	1	-1E+10	1	-1E+10	1
4902549	98	C	04/30/2023	18:08	-133.207	47.409	0	161.10	0	6.6890	0	33.5740	0	26.339	0	159.694	0	191.2	4	64.0	4	-1E+10	1	-1E+10	1	-1E+10	1	-1E+10	1	-1E+10	1	-1E+10	1
4902549	98	C	04/30/2023	18:08	-133.207	47.409	0	161.90	0	6.6710	0	33.5970	0	26.360	0	160.487	0	190.5	4	63.8	4	-1E+10	1	-1E+10	1	-1E+10	1	-1E+10	1	-1E+10	1	-1E+10	1
4902549	98	C	04/30/2023	18:08	-133.207	47.409	0	162.80	0	6.6650	0	33.6000	0	26.363	0	161.379	0	189.7	4	63.5	4	-1E+10	1	-1E+10	1	-1E+10	1	-1E+10	1	-1E+10	1	-1E+10	1
4902549	98	C	04/30/2023	18:08	-133.207	47.409	0	163.70	0	6.6570	0	33.6060	0	26.369	0	162.271	0	188.8	4	63.2	4	-1E+10	1	-1E+10	1	-1E+10	1	-1E+10	1	-1E+10	1	-1E+10	1
4902549	98	C	04/30/2023	18:08	-133.207	47.409	0	164.60	0	6.6450	0	33.6160	0	26.378	0	163.163	0	188.0	4	62.9	4	-1E+10	1	-1E+10	1	-1E+10	1	-1E+10	1	-1E+10	1	-1E+10	1
4902549	98	C	04/30/2023	18:08	-133.207	47.409	0	165.90	0	6.6400	0	33.6370	0	26.396	0	164.451	0	187.2	4	62.6	4	-1E+10	1	-1E+10	1	-1E+10	1	-1E+10	1	-1E+10	1	-1E+10	1
4902549	98	C	04/30/2023	18:08	-133.207	47.409	0	167.30	0	6.6370	0	33.6400	0	26.398	0	165.838	0	186.4	4	62.4	4	-1E+10	1	-1E+10	1	-1E+10	1	-1E+10	1	-1E+10	1	-1E+10	1
4902549	98	C	04/30/2023	18:08	-133.207	47.409	0	168.20	0	6.6360	0	33.6400	0	26.398	0	166.730	0	185.7	4	62.1	4	-1E+10	1	-1E+10	1	-1E+10	1	-1E+10	1	-1E+10	1	-1E+10	1
4902549	98	C	04/30/2023	18:08	-133.207	47.409	0	169.20	0	6.6330	0	33.6410	0	26.400	0	167.721	0	185.0	4	61.9	4	-1E+10	1	-1E+10	1	-1E+10	1	-1E+10	1	-1E+10	1	-1E+10	1
4902549	98	C	04/30/2023	18:08	-133.207	47.409	0	170.10	0	6.6250	0	33.6450	0	26.404	0	168.612	0	184.1	4	61.6	4	-1E+10	1	-1E+10	1	-1E+10	1	-1E+10	1	-1E+10	1	-1E+10	1
4902549	98	C	04/30/2023	18:08	-133.207	47.409	0	171.10	0	6.6180	0	33.6480	0	26.407	0	169.603	0	183.2	4	61.3	4	-1E+10	1	-1E+10	1	-1E+10	1	-1E+10	1	-1E+10	1	-1E+10	1
4902549	98	C	04/30/2023	18:08	-133.207	47.409	0	172.10	0	6.5950	0	33.6600	0	26.420	0	170.594	0	182.4	4	61.0	4	-1E+10	1	-1E+10	1	-1E+10	1	-1E+10	1	-1E+10	1	-1E+10	1
4902549	98	C	04/30/2023	18:08	-133.207	47.409	0	173.10	0	6.5670	0	33.6680	0	26.430	0	171.585	0	181.8	4	60.8	4	-1E+10	1	-1E+10	1	-1E+10	1	-1E+10	1	-1E+10	1	-1E+10	1
4902549	98	C	04/30/2023	18:08	-133.207	47.409	0	174.00	0	6.5540	0	33.6720	0	26.435	0	172.477	0	181.1	4	60.5	4	-1E+10	1	-1E+10	1	-1E+10	1	-1E+10	1	-1E+10	1	-1E+10	1
4902549	98	C	04/30/2023	18:08	-133.207	47.409	0	175.00	0	6.5450	0	33.6740	0	26.437	0	173.467	0	180.4	4	60.3	4	-1E+10	1	-1E+10	1	-1E+10	1	-1E+10	1	-1E+10	1	-1E+10	1
4902549	98	C	04/30/2023	18:08	-133.207	47.409	0	176.00	0	6.5230	0	33.6860	0	26.450	0	174.458	0	179.9	4	60.1	4	-1E+10	1	-1E+10	1	-1E+10	1	-1E+10	1	-1E+10	1	-1E+10	1
4902549	98	C	04/30/2023	18:08	-133.207	47.409	0	177.00	0	6.5170	0	33.6900	0	26.454	0	175.449	0	179.3	4	59.8	4	-1E+10	1	-1E+10	1	-1E+10	1	-1E+10	1	-1E+10	1	-1E+10	1
4902549	98	C	04/30/2023	18:08	-133.207	47.409	0	178.00	0	6.5150	0	33.6910	0	26.455	0	176.440	0	178.6	4	59.6	4	-1E+10	1	-1E+10	1	-1E+10	1	-1E+10	1	-1E+10	1	-1E+10	1
4902549	98	C	04/30/2023	18:08	-133.207	47.409	0	179.00	0	6.5120	0	33.6930	0	26.457	0	177.431	0	177.9	4	59.4	4	-1E+10	1	-1E+10	1	-1E+10	1	-1E+10	1	-1E+10	1	-1E+10	1
4902549	98	C	04/30/2023	18:08	-133.207	47.409	0	180.00	0	6.5040	0	33.6970	0	26.461	0	178.421	0	177.3	4	59.2	4	-1E+10	1	-1E+10	1	-1E+10	1	-1E+10	1	-1E+10	1	-1E+10	1
4902549	98	C	04/30/2023	18:08	-133.207	47.409	0	181.00	0	6.4960	0	33.7020	0	26.466	0	179.412	0	176.7	4	58.9	4	-1E+10	1	-1E+10	1	-1E+10	1	-1E+10	1	-1E+10	1	-1E+10	1
4902549	98	C	04/30/2023	18:08	-133.207	47.409	0	182.00	0	6.4940	0	33.7030	0	26.467	0	180.403	0	175.9	4	58.7	4	-1E+10	1	-1E+10	1	-1E+10	1	-1E+10	1	-1E+10	1	-1E+10	1
4902549	98	C	04/30/2023	18:08	-133.207	47.409	0	183.00	0	6.4870	0	33.7070	0	26.471	0	181.394	0	175.1	4	58.4	4	-1E+10	1	-1E+10	1	-1E+10	1	-1E+10	1	-1E+10	1	-1E+10	1
4902549	98	C	04/30/2023	18:08	-133.207	47.409	0	184.10	0	6.4820	0	33.7090	0	26.473	0	182.484	0	174.3	4	58.2	4	-1E+10	1	-1E+10	1	-1E+10	1	-1E+10	1	-1E+10	1	-1E+10	1
4902549	98	C	04/30/2023	18:08	-133.207	47.409	0	185.10	0	6.4720	0	33.7140	0	26.478	0	183.474	0	173.7	4	57.9	4	-1E+10	1	-1E+10	1	-1E+10	1	-1E+10	1	-1E+10	1	-1E+10	1
4902549	98	C	04/30/2023	18:08	-133.207	47.409	0	186.20	0	6.4590	0	33.7190	0	26.484	0	184.564	0	173.2	4	57.7	4	-1E+10	1	-1E+10	1	-1E+10	1	-1E+10	1	-1E+10	1	-1E+10	1
4902549	98	C	04/30/2023	18:08	-133.207	47.409	0	187.20	0	6.4520	0	33.7220	0	26.487	0	185.555	0	172.7	4	57.6	4	-1E+10	1	-1E+10	1	-1E+10	1	-1E+10	1	-1E+10	1	-1E+10	1
4902549	98	C	04/30/2023	18:08	-133.207	47.409	0	188.30	0	6.4520	0	33.7240	0	26.489	0	186.645	0	172.2	4	57.4	4	-1E+10	1	-1E+10	1	-1E+10	1	-1E+10	1	-1E+10	1	-1E+10	1
4902549	98	C	04/30/2023	18:08	-133.207	47.409	0	189.30	0	6.4530	0	33.7240	0	26.489	0	187.636	0	171.5	4	57.2	4	-1E+10	1	-1E+10	1	-1E+10	1	-1E+10	1	-1E+10	1	-1E+10	1
4902549	98	C	04/30/2023	18:08	-133.207	47.409	0	190.40	0	6.4510	0	33.7250	0	26.490	0	188.725	0	170.8	4	56.9	4	-1E+10	1	-1E+10	1	-1E+10	1	-1E+10	1	-1E+10	1	-1E+10	1
4902549	98	C	04/30/2023	18:08	-133.207	47.409	0	191.40	0	6.4400	0	33.7310	0	26.496	0	189.716	0	170.3	4	56.8	4	-1E+10	1	-1E+10	1	-1E+10	1	-1E+10	1	-1E+10	1	-1E+10	1
4902549	98	C	04/30/2023	18:08	-133.207	47.409	0	192.50	0	6.4430	0	33.7300	0	26.495	0	190.806	0	169.6	4	56.5	4	-1E+10	1	-1E+10	1	-1E+10	1	-1E+10	1	-1E+10	1	-1E+10	1
4902549	98	C	04/30/2023	18:08	-133.207	47.409	0	193.60	0	6.4490	0	33.7340	0	26.497	0	191.896	0	169.0	4	56.3	4	-1E+10	1	-1E+10	1	-1E+10	1	-1E+10	1	-1E+10	1	-1E+10	1
4902549	98	C	04/30/2023	18:08	-133.207	47.409	0	194.60	0	6.4560	0	33.7390	0	26.500	0	192.887	0	168.3	4	56.1	4	-1E+10	1	-1E+10	1	-1E+10	1	-1E+10	1	-1E+10	1	-1E+10	1
4902549	98	C	04/30/2023	18:08	-133.207	47.409	0	195.70	0	6.4300	0	33.7390	0	26.504	0	193.976	0	167.8	4	55.9	4	-1E+10	1	-1E+10	1	-1E+10	1	-1E+10	1	-1E+10	1	-1E+10	1
4902549	98	C	04/30/2023	18:08	-133.207	47.409	0	196.70	0	6.4190	0	33.7400	0	26.506	0	194.967	0	167.0	4	55.7	4	-1E+10	1	-1E+10	1	-1E+10	1	-1E+10	1	-1E+10	1	-1E+10	1
4902549	98	C	04/30/2023	18:08	-133.207	47.409	0	197.80	0	6.4070	0	33.7390	0	26.507	0	196.057	0	166.3	4	55.4	4	-1E+10	1	-1E+10	1	-1E+10	1	-1E+10	1	-1E+10	1	-1E+10	1
4902549	98	C	04/30/2023	18:08	-133.207	47.409	0	198.90	0	6.3990	0	33.7390	0	26.508	0	197.147	0	165.6	4	55.1	4	-1E+10	1	-1E+10	1	-1E+10	1	-1E+10	1	-1E+10	1	-1E+10	1
4902549	98	C	04/30/2023	18:08	-133.207	47.409	0	200.00	0	6.3770	0	33.7450	0	26.515	0	198.236	0	165.0	4	54.9	4	-1E+10	1	-1E+10	1	-1E+10	1	-1E+10	1	-1E+10	1	-1E+10	1
4902549	98	C	04/30/2023	18:08	-133.207	47.409	0	201.00	0	6.3730	0	33.7450	0	26.516	0	199.227	0	164.3	4	54.7	4	-1E+10	1	-1E+10	1	-1E+10	1	-1E+10	1	-1E+10	1	-1E+10	1
4902549	98	C	04/30/2023	18:08	-133.207	47.409	0	202.10	0	6.3700	0	33.7460	0	26.517	0	200.317	0	163.6	4	54.5	4	-1E+10	1	-1E+10	1	-1E+10	1	-1E+10	1	-1E+10	1	-1E+10	1
4902549	98	C	04/30/2023	18:08	-133.207	47.409	0	203.20	0	6.3710	0	33.7490	0	26.519	0	201.407	0	162.8	4	54.2	4	-1E+10	1	-1E+10	1	-1E+10	1	-1E+10	1	-1E+10	1	-1E+10	1
4902549	98	C	04/30/2023	18:08	-133.207	47.409	0	204.20	0	6.3700	0	33.7490	0	26.520	0	202.397	0	162.0	4	53.9	4	-1E+10	1	-1E+10	1	-1E+10	1	-1E+10	1	-1E+10	1	-1E+10	1
4902549	98	C	04/30/2023	18:08	-133.207	47.409	0	205.30	0	6.3840	0	33.7480	0	26.517	0	203.487	0	161.1	4	53.6	4	-1E+10	1	-1E+10	1	-1E+10	1	-1E+10	1	-1E+10	1	-1E+10	1
4902549	98	C	04/30/2023	18:08	-133.207	47.409	0	206.40	0	6.3560	0	33.7580	0	26.528	0	204.577	0	160.4	4	53.4	4	-1E+10	1	-1E+10	1	-1E+10	1	-1E+10	1	-1E+10	1	-1E+10	1
4902549	98	C	04/30/2023	18:08	-133.207	47.409	0	207.40	0	6.3360	0	33.7560	0	26.529	0	205.568	0	159.6	4	53.1	4	-1E+10	1	-1E+10	1	-1E+10	1	-1E+10	1	-1E+10	1	-1E+10	1
4902549	98	C	04/30/2023	18:08	-133.207	47.409	0	208.50	0	6.3080	0	33.7580	0	26.535	0	206.657	0	159.0	4	52.8	4	-1E+10	1	-1E+10	1	-1E+10	1	-1E+10	1	-1E+10	1	-1E+10	1
4902549	98	C	04/30/2023	18:08	-133.207	47.409	0	209.60	0	6.2730	0	33.7590	0	26.540	0	207.747	0	158.4	4	52.6	4	-1E+10	1	-1E+10	1	-1E+10	1	-1E+10	1	-1E+10	1	-1E+10	1
4902549	98	C	04/30/2023	18:08	-133.207	47.409	0	210.60	0	6.2590	0	33.7590	0	26.542	0	208.738	0	157.8	4	52.4	4	-1E+10	1	-1E+10	1	-1E+10	1	-1E+10	1	-1E+10	1	-1E+10	1
4902549	98	C	04/30/2023	18:08	-133.207	47.409	0	211.60	0	6.2520	0	33.7590	0	26.543	0	209.728	0	157.1	4	52.1	4	-1E+10	1	-1E+10	1	-1E+10	1	-1E+10	1	-1E+10	1	-1E+10	1
4902549	98	C	04/30/2023	18:08	-133.207	47.409	0	212.70	0	6.2410	0	33.7580	0	26.543	0	210.818	0	156.4	4	51.9	4	-1E+10	1	-1E+10	1	-1E+10	1	-1E+10	1	-1E+10	1	-1E+10	1
4902549	98	C	04/30/2023	18:08	-133.207	47.409	0	213.70	0	6.2310	0	33.7590	0	26.545	0	211.809	0	155.8	4	51.7	4	-1E+10	1	-1E+10	1	-1E+10	1	-1E+10	1	-1E+10	1	-1E+10	1
4902549	98	C	04/30/2023	18:08	-133.207	47.409	0	214.70	0	6.2240	0	33.7620	0	26.549	0	212.799	0	155.0	4	51.4	4	-1E+10	1	-1E+10	1	-1E+10	1	-1E+10	1	-1E+10	1	-1E+10	1
4902549	98	C	04/30/2023	18:08	-133.207	47.409	0	215.80	0	6.2040	0	33.7660	0	26.554	0	213.889	0	154.4	4	51.2	4	-1E+10	1	-1E+10	1	-1E+10	1	-1E+10	1	-1E+10	1	-1E+10	1
4902549	98	C	04/30/2023	18:08	-133.207	47.409	0	216.80	0	6.1940	0	33.7640	0	26.554	0	214.880	0	153.7	4	50.9	4	-1E+10	1	-1E+10	1	-1E+10	1	-1E+10	1	-1E+10	1	-1E+10	1
4902549	98	C	04/30/2023	18:08	-133.207	47.409	0	217.80	0	6.1870	0	33.7650	0	26.556	0	215.870	0	153.0	4	50.7	4	-1E+10	1	-1E+10	1	-1E+10	1	-1E+10	1	-1E+10	1	-1E+10	1
4902549	98	C	04/30/2023	18:08	-133.207	47.409	0	218.80	0	6.1840	0	33.7650	0	26.556	0	216.861	0	152.2	4	50.4	4	-1E+10	1	-1E+10	1	-1E+10	1	-1E+10	1	-1E+10	1	-1E+10	1
4902549	98	C	04/30/2023	18:08	-133.207	47.409	0	219.80	0	6.1640	0	33.7690	0	26.562	0	217.851	0	151.5	4	50.2	4	-1E+10	1	-1E+10	1	-1E+10	1	-1E+10	1	-1E+10	1	-1E+10	1
4902549	98	C	04/30/2023	18:08	-133.207	47.409	0	220.80	0	6.1630	0	33.7710	0	26.564	0	218.842	0	151.0	4	50.0	4	-1E+10	1	-1E+10	1	-1E+10	1	-1E+10	1	-1E+10	1	-1E+10	1
4902549	98	C	04/30/2023	18:08	-133.207	47.409	0	221.80	0	6.1630	0	33.7710	0	26.564	0	219.833	0	150.4	4	49.8	4	-1E+10	1	-1E+10	1	-1E+10	1	-1E+10	1	-1E+10	1	-1E+10	1
4902549	98	C	04/30/2023	18:08	-133.207	47.409	0	222.80	0	6.1630	0	33.7720	0	26.564	0	220.823	0	149.6	4	49.6	4	-1E+10	1	-1E+10	1	-1E+10	1	-1E+10	1	-1E+10	1	-1E+10	1
4902549	98	C	04/30/2023	18:08	-133.207	47.409	0	223.80	0	6.1610	0	33.7730	0	26.565	0	221.814	0	149.0	4	49.4	4	-1E+10	1	-1E+10	1	-1E+10	1	-1E+10	1	-1E+10	1	-1E+10	1
4902549	98	C	04/30/2023	18:08	-133.207	47.409	0	224.80	0	6.1580	0	33.7720	0	26.565	0	222.804	0	148.2	4	49.1	4	-1E+10	1	-1E+10	1	-1E+10	1	-1E+10	1	-1E+10	1	-1E+10	1
4902549	98	C	04/30/2023	18:08	-133.207	47.409	0	225.80	0	6.1440	0	33.7750	0	26.569	0	223.795	0	147.4	4	48.8	4	-1E+10	1	-1E+10	1	-1E+10	1	-1E+10	1	-1E+10	1	-1E+10	1
4902549	98	C	04/30/2023	18:08	-133.207	47.409	0	226.80	0	6.1390	0	33.7760	0	26.571	0	224.786	0	146.6	4	48.6	4	-1E+10	1	-1E+10	1	-1E+10	1	-1E+10	1	-1E+10	1	-1E+10	1
4902549	98	C	04/30/2023	18:08	-133.207	47.409	0	227.80	0	6.1330	0	33.7740	0	26.570	0	225.776	0	145.7	4	48.2	4	-1E+10	1	-1E+10	1	-1E+10	1	-1E+10	1	-1E+10	1	-1E+10	1
4902549	98	C	04/30/2023	18:08	-133.207	47.409	0	228.70	0	6.1310	0	33.7760	0	26.572	0	226.668	0	144.7	4	47.9	4	-1E+10	1	-1E+10	1	-1E+10	1	-1E+10	1	-1E+10	1	-1E+10	1
4902549	98	C	04/30/2023	18:08	-133.207	47.409	0	229.70	0	6.1170	0	33.7810	0	26.577	0	227.658	0	143.8	4	47.6	4	-1E+10	1	-1E+10	1	-1E+10	1	-1E+10	1	-1E+10	1	-1E+10	1
4902549	98	C	04/30/2023	18:08	-133.207	47.409	0	230.70	0	6.1030	0	33.7800	0	26.578	0	228.649	0	142.9	4	47.3	4	-1E+10	1	-1E+10	1	-1E+10	1	-1E+10	1	-1E+10	1	-1E+10	1
4902549	98	C	04/30/2023	18:08	-133.207	47.409	0	231.70	0	6.0620	0	33.7780	0	26.582	0	229.639	0	142.0	4	46.9	4	-1E+10	1	-1E+10	1	-1E+10	1	-1E+10	1	-1E+10	1	-1E+10	1
4902549	98	C	04/30/2023	18:08	-133.207	47.409	0	232.70	0	6.0780	0	33.7800	0	26.581	0	230.630	0	141.1	4	46.7	4	-1E+10	1	-1E+10	1	-1E+10	1	-1E+10	1	-1E+10	1	-1E+10	1
4902549	98	C	04/30/2023	18:08	-133.207	47.409	0	233.60	0	6.0800	0	33.7890	0	26.588	0	231.521	0	140.5	4	46.5	4	-1E+10	1	-1E+10	1	-1E+10	1	-1E+10	1	-1E+10	1	-1E+10	1
4902549	98	C	04/30/2023	18:08	-133.207	47.409	0	234.60	0	6.0460	0	33.7840	0	26.589	0	232.512	0	140.2	4	46.3	4	-1E+10	1	-1E+10	1	-1E+10	1	-1E+10	1	-1E+10	1	-1E+10	1
4902549	98	C	04/30/2023	18:08	-133.207	47.409	0	235.50	0	5.9510	0	33.8010	0	26.614	0	233.403	0	139.8	4	46.1	4	-1E+10	1	-1E+10	1	-1E+10	1	-1E+10	1	-1E+10	1	-1E+10	1
4902549	98	C	04/30/2023	18:08	-133.207	47.409	0	236.90	0	5.9310	0	33.7800	0	26.600	0	234.790	0	139.4	4	45.9	4	-1E+10	1	-1E+10	1	-1E+10	1	-1E+10	1	-1E+10	1	-1E+10	1
4902549	98	C	04/30/2023	18:08	-133.207	47.409	0	238.40	0	5.9230	0	33.7790	0	26.600	0	236.276	0	138.7	4	45.7	4	-1E+10	1	-1E+10	1	-1E+10	1	-1E+10	1	-1E+10	1	-1E+10	1
4902549	98	C	04/30/2023	18:08	-133.207	47.409	0	239.40	0	5.8690	0	33.7820	0	26.609	0	237.266	0	138.4	4	45.6	4	-1E+10	1	-1E+10	1	-1E+10	1	-1E+10	1	-1E+10	1	-1E+10	1
4902549	98	C	04/30/2023	18:08	-133.207	47.409	0	240.30	0	5.8610	0	33.7780	0	26.607	0	238.158	0	138.0	4	45.4	4	-1E+10	1	-1E+10	1	-1E+10	1	-1E+10	1	-1E+10	1	-1E+10	1
4902549	98	C	04/30/2023	18:08	-133.207	47.409	0	241.30	0	5.8550	0	33.7770	0	26.607	0	239.148	0	137.6	4	45.3	4	-1E+10	1	-1E+10	1	-1E+10	1	-1E+10	1	-1E+10	1	-1E+10	1
4902549	98	C	04/30/2023	18:08	-133.207	47.409	0	242.30	0	5.8240	0	33.7820	0	26.615	0	240.139	0	137.1	4	45.1	4	-1E+10	1	-1E+10	1	-1E+10	1	-1E+10	1	-1E+10	1	-1E+10	1
4902549	98	C	04/30/2023	18:08	-133.207	47.409	0	243.30	0	5.8150	0	33.7790	0	26.613	0	241.129	0	136.7	4	44.9	4	-1E+10	1	-1E+10	1	-1E+10	1	-1E+10	1	-1E+10	1	-1E+10	1
4902549	98	C	04/30/2023	18:08	-133.207	47.409	0	244.30	0	5.8120	0	33.7780	0	26.613	0	242.120	0	136.3	4	44.8	4	-1E+10	1	-1E+10	1	-1E+10	1	-1E+10	1	-1E+10	1	-1E+10	1
4902549	98	C	04/30/2023	18:08	-133.207	47.409	0	245.20	0	5.8100	0	33.7780	0	26.613	0	243.011	0	135.8	4	44.6	4	-1E+10	1	-1E+10	1	-1E+10	1	-1E+10	1	-1E+10	1	-1E+10	1
4902549	98	C	04/30/2023	18:08	-133.207	47.409	0	246.20	0	5.8100	0	33.7770	0	26.613	0	244.002	0	135.2	4	44.4	4	-1E+10	1	-1E+10	1	-1E+10	1	-1E+10	1	-1E+10	1	-1E+10	1
4902549	98	C	04/30/2023	18:08	-133.207	47.409	0	247.20	0	5.8080	0	33.7780	0	26.614	0	244.992	0	134.6	4	44.2	4	-1E+10	1	-1E+10	1	-1E+10	1	-1E+10	1	-1E+10	1	-1E+10	1
4902549	98	C	04/30/2023	18:08	-133.207	47.409	0	248.20	0	5.8020	0	33.7790	0	26.615	0	245.983	0	133.9	4	44.0	4	-1E+10	1	-1E+10	1	-1E+10	1	-1E+10	1	-1E+10	1	-1E+10	1
4902549	98	C	04/30/2023	18:08	-133.207	47.409	0	249.10	0	5.7850	0	33.7790	0	26.617	0	246.874	0	133.2	4	43.8	4	-1E+10	1	-1E+10	1	-1E+10	1	-1E+10	1	-1E+10	1	-1E+10	1
4902549	98	C	04/30/2023	18:08	-133.207	47.409	0	250.10	0	5.7650	0	33.7790	0	26.620	0	247.865	0	132.7	4	43.6	4	-1E+10	1	-1E+10	1	-1E+10	1	-1E+10	1	-1E+10	1	-1E+10	1
4902549	98	C	04/30/2023	18:08	-133.207	47.409	0	251.10	0	5.7460	0	33.7820	0	26.624	0	248.855	0	132.2	4	43.4	4	-1E+10	1	-1E+10	1	-1E+10	1	-1E+10	1	-1E+10	1	-1E+10	1
4902549	98	C	04/30/2023	18:08	-133.207	47.409	0	252.20	0	5.7270	0	33.7830	0	26.627	0	249.945	0	131.7	4	43.2	4	-1E+10	1	-1E+10	1	-1E+10	1	-1E+10	1	-1E+10	1	-1E+10	1
4902549	98	C	04/30/2023	18:08	-133.207	47.409	0	253.20	0	5.7270	0	33.7830	0	26.627	0	250.935	0	131.3	4	43.1	4	-1E+10	1	-1E+10	1	-1E+10	1	-1E+10	1	-1E+10	1	-1E+10	1
4902549	98	C	04/30/2023	18:08	-133.207	47.409	0	254.20	0	5.7280	0	33.7820	0	26.627	0	251.926	0	130.6	4	42.8	4	-1E+10	1	-1E+10	1	-1E+10	1	-1E+10	1	-1E+10	1	-1E+10	1
4902549	98	C	04/30/2023	18:08	-133.207	47.409	0	255.40	0	5.7270	0	33.7830	0	26.627	0	253.114	0	129.9	4	42.6	4	-1E+10	1	-1E+10	1	-1E+10	1	-1E+10	1	-1E+10	1	-1E+10	1
4902549	98	C	04/30/2023	18:08	-133.207	47.409	0	256.40	0	5.7280	0	33.7820	0	26.627	0	254.104	0	129.0	4	42.3	4	-1E+10	1	-1E+10	1	-1E+10	1	-1E+10	1	-1E+10	1	-1E+10	1
4902549	98	C	04/30/2023	18:08	-133.207	47.409	0	257.30	0	5.7270	0	33.7810	0	26.626	0	254.996	0	128.1	4	42.0	4	-1E+10	1	-1E+10	1	-1E+10	1	-1E+10	1	-1E+10	1	-1E+10	1
4902549	98	C	04/30/2023	18:08	-133.207	47.409	0	258.30	0	5.7190	0	33.7830	0	26.628	0	255.986	0	127.1	4	41.7	4	-1E+10	1	-1E+10	1	-1E+10	1	-1E+10	1	-1E+10	1	-1E+10	1
4902549	98	C	04/30/2023	18:08	-133.207	47.409	0	259.30	0	5.7080	0	33.7850	0	26.631	0	256.977	0	126.1	4	41.3	4	-1E+10	1	-1E+10	1	-1E+10	1	-1E+10	1	-1E+10	1	-1E+10	1
4902549	98	C	04/30/2023	18:08	-133.207	47.409	0	260.30	0	5.6890	0	33.7850	0	26.634	0	257.967	0	125.2	4	41.0	4	-1E+10	1	-1E+10	1	-1E+10	1	-1E+10	1	-1E+10	1	-1E+10	1
4902549	98	C	04/30/2023	18:08	-133.207	47.409	0	261.30	0	5.6490	0	33.7910	0	26.643	0	258.958	0	124.4	4	40.7	4	-1E+10	1	-1E+10	1	-1E+10	1	-1E+10	1	-1E+10	1	-1E+10	1
4902549	98	C	04/30/2023	18:08	-133.207	47.409	0	262.30	0	5.6370	0	33.7880	0	26.642	0	259.948	0	123.7	4	40.5	4	-1E+10	1	-1E+10	1	-1E+10	1	-1E+10	1	-1E+10	1	-1E+10	1
4902549	98	C	04/30/2023	18:08	-133.207	47.409	0	263.40	0	5.6230	0	33.7880	0	26.644	0	261.037	0	122.9	4	40.2	4	-1E+10	1	-1E+10	1	-1E+10	1	-1E+10	1	-1E+10	1	-1E+10	1
4902549	98	C	04/30/2023	18:08	-133.207	47.409	0	264.40	0	5.6120	0	33.7890	0	26.646	0	262.028	0	122.0	4	39.9	4	-1E+10	1	-1E+10	1	-1E+10	1	-1E+10	1	-1E+10	1	-1E+10	1
4902549	98	C	04/30/2023	18:08	-133.207	47.409	0	265.40	0	5.5860	0	33.7910	0	26.651	0	263.018	0	121.3	4	39.6	4	-1E+10	1	-1E+10	1	-1E+10	1	-1E+10	1	-1E+10	1	-1E+10	1
4902549	98	C	04/30/2023	18:08	-133.207	47.409	0	266.50	0	5.5740	0	33.7930	0	26.654	0	264.108	0	120.5	4	39.4	4	-1E+10	1	-1E+10	1	-1E+10	1	-1E+10	1	-1E+10	1	-1E+10	1
4902549	98	C	04/30/2023	18:08	-133.207	47.409	0	267.50	0	5.5620	0	33.7940	0	26.656	0	265.098	0	119.8	4	39.1	4	-1E+10	1	-1E+10	1	-1E+10	1	-1E+10	1	-1E+10	1	-1E+10	1
4902549	98	C	04/30/2023	18:08	-133.207	47.409	0	268.50	0	5.5590	0	33.7960	0	26.658	0	266.088	0	119.1	4	38.9	4	-1E+10	1	-1E+10	1	-1E+10	1	-1E+10	1	-1E+10	1	-1E+10	1
4902549	98	C	04/30/2023	18:08	-133.207	47.409	0	269.60	0	5.5510	0	33.7950	0	26.658	0	267.178	0	118.2	4	38.6	4	-1E+10	1	-1E+10	1	-1E+10	1	-1E+10	1	-1E+10	1	-1E+10	1
4902549	98	C	04/30/2023	18:08	-133.207	47.409	0	270.60	0	5.5400	0	33.7980	0	26.662	0	268.168	0	117.4	4	38.3	4	-1E+10	1	-1E+10	1	-1E+10	1	-1E+10	1	-1E+10	1	-1E+10	1
4902549	98	C	04/30/2023	18:08	-133.207	47.409	0	271.60	0	5.5190	0	33.7990	0	26.665	0	269.159	0	116.6	4	38.0	4	-1E+10	1	-1E+10	1	-1E+10	1	-1E+10	1	-1E+10	1	-1E+10	1
4902549	98	C	04/30/2023	18:08	-133.207	47.409	0	272.60	0	5.5200	0	33.8010	0	26.667	0	270.149	0	115.9	4	37.8	4	-1E+10	1	-1E+10	1	-1E+10	1	-1E+10	1	-1E+10	1	-1E+10	1
4902549	98	C	04/30/2023	18:08	-133.207	47.409	0	273.70	0	5.5140	0	33.8030	0	26.669	0	271.238	0	115.2	4	37.6	4	-1E+10	1	-1E+10	1	-1E+10	1	-1E+10	1	-1E+10	1	-1E+10	1
4902549	98	C	04/30/2023	18:08	-133.207	47.409	0	274.70	0	5.5000	0	33.8040	0	26.672	0	272.229	0	114.4	4	37.3	4	-1E+10	1	-1E+10	1	-1E+10	1	-1E+10	1	-1E+10	1	-1E+10	1
4902549	98	C	04/30/2023	18:08	-133.207	47.409	0	275.70	0	5.5100	0	33.8040	0	26.670	0	273.219	0	113.6	4	37.1	4	-1E+10	1	-1E+10	1	-1E+10	1	-1E+10	1	-1E+10	1	-1E+10	1
4902549	98	C	04/30/2023	18:08	-133.207	47.409	0	276.80	0	5.5170	0	33.8120	0	26.676	0	274.308	0	112.8	4	36.8	4	-1E+10	1	-1E+10	1	-1E+10	1	-1E+10	1	-1E+10	1	-1E+10	1
4902549	98	C	04/30/2023	18:08	-133.207	47.409	0	277.80	0	5.5010	0	33.8140	0	26.679	0	275.299	0	112.1	4	36.6	4	-1E+10	1	-1E+10	1	-1E+10	1	-1E+10	1	-1E+10	1	-1E+10	1
4902549	98	C	04/30/2023	18:08	-133.207	47.409	0	278.80	0	5.4910	0	33.8180	0	26.684	0	276.289	0	111.6	4	36.4	4	-1E+10	1	-1E+10	1	-1E+10	1	-1E+10	1	-1E+10	1	-1E+10	1
4902549	98	C	04/30/2023	18:08	-133.207	47.409	0	279.90	0	5.4830	0	33.8180	0	26.685	0	277.378	0	111.0	4	36.2	4	-1E+10	1	-1E+10	1	-1E+10	1	-1E+10	1	-1E+10	1	-1E+10	1
4902549	98	C	04/30/2023	18:08	-133.207	47.409	0	281.00	0	5.4810	0	33.8200	0	26.687	0	278.468	0	110.5	4	36.0	4	-1E+10	1	-1E+10	1	-1E+10	1	-1E+10	1	-1E+10	1	-1E+10	1
4902549	98	C	04/30/2023	18:08	-133.207	47.409	0	282.00	0	5.4790	0	33.8240	0	26.690	0	279.458	0	110.0	4	35.9	4	-1E+10	1	-1E+10	1	-1E+10	1	-1E+10	1	-1E+10	1	-1E+10	1
4902549	98	C	04/30/2023	18:08	-133.207	47.409	0	283.00	0	5.4790	0	33.8250	0	26.691	0	280.448	0	109.6	4	35.7	4	-1E+10	1	-1E+10	1	-1E+10	1	-1E+10	1	-1E+10	1	-1E+10	1
4902549	98	C	04/30/2023	18:08	-133.207	47.409	0	284.10	0	5.4770	0	33.8250	0	26.691	0	281.538	0	109.1	4	35.6	4	-1E+10	1	-1E+10	1	-1E+10	1	-1E+10	1	-1E+10	1	-1E+10	1
4902549	98	C	04/30/2023	18:08	-133.207	47.409	0	285.10	0	5.4740	0	33.8270	0	26.693	0	282.528	0	108.7	4	35.4	4	-1E+10	1	-1E+10	1	-1E+10	1	-1E+10	1	-1E+10	1	-1E+10	1
4902549	98	C	04/30/2023	18:08	-133.207	47.409	0	286.20	0	5.4730	0	33.8280	0	26.694	0	283.617	0	108.2	4	35.3	4	-1E+10	1	-1E+10	1	-1E+10	1	-1E+10	1	-1E+10	1	-1E+10	1
4902549	98	C	04/30/2023	18:08	-133.207	47.409	0	287.20	0	5.4670	0	33.8310	0	26.697	0	284.608	0	107.8	4	35.1	4	-1E+10	1	-1E+10	1	-1E+10	1	-1E+10	1	-1E+10	1	-1E+10	1
4902549	98	C	04/30/2023	18:08	-133.207	47.409	0	288.30	0	5.4670	0	33.8320	0	26.698	0	285.697	0	107.3	4	35.0	4	-1E+10	1	-1E+10	1	-1E+10	1	-1E+10	1	-1E+10	1	-1E+10	1
4902549	98	C	04/30/2023	18:08	-133.207	47.409	0	289.30	0	5.4670	0	33.8320	0	26.698	0	286.687	0	106.9	4	34.8	4	-1E+10	1	-1E+10	1	-1E+10	1	-1E+10	1	-1E+10	1	-1E+10	1
4902549	98	C	04/30/2023	18:08	-133.207	47.409	0	290.30	0	5.4660	0	33.8320	0	26.698	0	287.677	0	106.3	4	34.7	4	-1E+10	1	-1E+10	1	-1E+10	1	-1E+10	1	-1E+10	1	-1E+10	1
4902549	98	C	04/30/2023	18:08	-133.207	47.409	0	291.40	0	5.4610	0	33.8340	0	26.700	0	288.767	0	105.7	4	34.5	4	-1E+10	1	-1E+10	1	-1E+10	1	-1E+10	1	-1E+10	1	-1E+10	1
4902549	98	C	04/30/2023	18:08	-133.207	47.409	0	292.40	0	5.4580	0	33.8350	0	26.701	0	289.757	0	105.0	4	34.2	4	-1E+10	1	-1E+10	1	-1E+10	1	-1E+10	1	-1E+10	1	-1E+10	1
4902549	98	C	04/30/2023	18:08	-133.207	47.409	0	293.40	0	5.4420	0	33.8370	0	26.705	0	290.747	0	104.5	4	34.1	4	-1E+10	1	-1E+10	1	-1E+10	1	-1E+10	1	-1E+10	1	-1E+10	1
4902549	98	C	04/30/2023	18:08	-133.207	47.409	0	294.50	0	5.4000	0	33.8430	0	26.714	0	291.837	0	104.1	4	33.9	4	-1E+10	1	-1E+10	1	-1E+10	1	-1E+10	1	-1E+10	1	-1E+10	1
4902549	98	C	04/30/2023	18:08	-133.207	47.409	0	295.50	0	5.3990	0	33.8410	0	26.713	0	292.827	0	103.7	4	33.8	4	-1E+10	1	-1E+10	1	-1E+10	1	-1E+10	1	-1E+10	1	-1E+10	1
4902549	98	C	04/30/2023	18:08	-133.207	47.409	0	296.60	0	5.4000	0	33.8430	0	26.715	0	293.916	0	103.2	4	33.6	4	-1E+10	1	-1E+10	1	-1E+10	1	-1E+10	1	-1E+10	1	-1E+10	1
4902549	98	C	04/30/2023	18:08	-133.207	47.409	0	297.60	0	5.4010	0	33.8420	0	26.714	0	294.906	0	102.7	4	33.5	4	-1E+10	1	-1E+10	1	-1E+10	1	-1E+10	1	-1E+10	1	-1E+10	1
4902549	98	C	04/30/2023	18:08	-133.207	47.409	0	298.60	0	5.4130	0	33.8480	0	26.717	0	295.897	0	102.2	4	33.3	4	-1E+10	1	-1E+10	1	-1E+10	1	-1E+10	1	-1E+10	1	-1E+10	1
4902549	98	C	04/30/2023	18:08	-133.207	47.409	0	299.70	0	5.4180	0	33.8510	0	26.719	0	296.986	0	101.8	4	33.2	4	-1E+10	1	-1E+10	1	-1E+10	1	-1E+10	1	-1E+10	1	-1E+10	1
4902549	98	C	04/30/2023	18:08	-133.207	47.409	0	300.70	0	5.4190	0	33.8510	0	26.719	0	297.976	0	101.3	4	33.0	4	-1E+10	1	-1E+10	1	-1E+10	1	-1E+10	1	-1E+10	1	-1E+10	1
4902549	98	C	04/30/2023	18:08	-133.207	47.409	0	302.00	0	5.4180	0	33.8530	0	26.720	0	299.263	0	100.6	4	32.8	4	-1E+10	1	-1E+10	1	-1E+10	1	-1E+10	1	-1E+10	1	-1E+10	1
4902549	98	C	04/30/2023	18:08	-133.207	47.409	0	303.90	0	5.4070	0	33.8550	0	26.723	0	301.145	0	99.5	4	32.4	4	-1E+10	1	-1E+10	1	-1E+10	1	-1E+10	1	-1E+10	1	-1E+10	1
4902549	98	C	04/30/2023	18:08	-133.207	47.409	0	305.10	0	5.3800	0	33.8560	0	26.727	0	302.333	0	98.9	4	32.2	4	-1E+10	1	-1E+10	1	-1E+10	1	-1E+10	1	-1E+10	1	-1E+10	1
4902549	98	C	04/30/2023	18:08	-133.207	47.409	0	305.90	0	5.3530	0	33.8580	0	26.732	0	303.125	0	98.6	4	32.1	4	-1E+10	1	-1E+10	1	-1E+10	1	-1E+10	1	-1E+10	1	-1E+10	1
4902549	98	C	04/30/2023	18:08	-133.207	47.409	0	307.00	0	5.3370	0	33.8570	0	26.733	0	304.214	0	98.0	4	31.9	4	-1E+10	1	-1E+10	1	-1E+10	1	-1E+10	1	-1E+10	1	-1E+10	1
4902549	98	C	04/30/2023	18:08	-133.207	47.409	0	308.20	0	5.3230	0	33.8580	0	26.736	0	305.403	0	97.5	4	31.7	4	-1E+10	1	-1E+10	1	-1E+10	1	-1E+10	1	-1E+10	1	-1E+10	1
4902549	98	C	04/30/2023	18:08	-133.207	47.409	0	309.00	0	5.3200	0	33.8580	0	26.736	0	306.195	0	97.1	4	31.6	4	-1E+10	1	-1E+10	1	-1E+10	1	-1E+10	1	-1E+10	1	-1E+10	1
4902549	98	C	04/30/2023	18:08	-133.207	47.409	0	309.70	0	5.3160	0	33.8580	0	26.736	0	306.888	0	96.7	4	31.4	4	-1E+10	1	-1E+10	1	-1E+10	1	-1E+10	1	-1E+10	1	-1E+10	1
4902549	98	C	04/30/2023	18:08	-133.207	47.409	0	310.90	0	5.2860	0	33.8630	0	26.744	0	308.076	0	96.1	4	31.2	4	-1E+10	1	-1E+10	1	-1E+10	1	-1E+10	1	-1E+10	1	-1E+10	1
4902549	98	C	04/30/2023	18:08	-133.207	47.409	0	312.10	0	5.2680	0	33.8630	0	26.746	0	309.264	0	95.7	4	31.1	4	-1E+10	1	-1E+10	1	-1E+10	1	-1E+10	1	-1E+10	1	-1E+10	1
4902549	98	C	04/30/2023	18:08	-133.207	47.409	0	312.90	0	5.2650	0	33.8630	0	26.746	0	310.056	0	95.4	4	31.0	4	-1E+10	1	-1E+10	1	-1E+10	1	-1E+10	1	-1E+10	1	-1E+10	1
4902549	98	C	04/30/2023	18:08	-133.207	47.409	0	313.70	0	5.2610	0	33.8630	0	26.747	0	310.849	0	95.0	4	30.8	4	-1E+10	1	-1E+10	1	-1E+10	1	-1E+10	1	-1E+10	1	-1E+10	1
4902549	98	C	04/30/2023	18:08	-133.207	47.409	0	314.90	0	5.2430	0	33.8630	0	26.749	0	312.037	0	94.5	4	30.7	4	-1E+10	1	-1E+10	1	-1E+10	1	-1E+10	1	-1E+10	1	-1E+10	1
4902549	98	C	04/30/2023	18:08	-133.207	47.409	0	316.10	0	5.2360	0	33.8630	0	26.750	0	313.225	0	94.0	4	30.5	4	-1E+10	1	-1E+10	1	-1E+10	1	-1E+10	1	-1E+10	1	-1E+10	1
4902549	98	C	04/30/2023	18:08	-133.207	47.409	0	316.90	0	5.2320	0	33.8630	0	26.750	0	314.017	0	93.7	4	30.4	4	-1E+10	1	-1E+10	1	-1E+10	1	-1E+10	1	-1E+10	1	-1E+10	1
4902549	98	C	04/30/2023	18:08	-133.207	47.409	0	317.70	0	5.2240	0	33.8640	0	26.752	0	314.809	0	93.3	4	30.3	4	-1E+10	1	-1E+10	1	-1E+10	1	-1E+10	1	-1E+10	1	-1E+10	1
4902549	98	C	04/30/2023	18:08	-133.207	47.409	0	319.00	0	5.2150	0	33.8650	0	26.754	0	316.096	0	92.7	4	30.1	4	-1E+10	1	-1E+10	1	-1E+10	1	-1E+10	1	-1E+10	1	-1E+10	1
4902549	98	C	04/30/2023	18:08	-133.207	47.409	0	320.20	0	5.2030	0	33.8670	0	26.757	0	317.284	0	92.1	4	29.9	4	-1E+10	1	-1E+10	1	-1E+10	1	-1E+10	1	-1E+10	1	-1E+10	1
4902549	98	C	04/30/2023	18:08	-133.207	47.409	0	321.00	0	5.2000	0	33.8680	0	26.758	0	318.077	0	91.7	4	29.7	4	-1E+10	1	-1E+10	1	-1E+10	1	-1E+10	1	-1E+10	1	-1E+10	1
4902549	98	C	04/30/2023	18:08	-133.207	47.409	0	321.80	0	5.1860	0	33.8700	0	26.761	0	318.869	0	91.3	4	29.6	4	-1E+10	1	-1E+10	1	-1E+10	1	-1E+10	1	-1E+10	1	-1E+10	1
4902549	98	C	04/30/2023	18:08	-133.207	47.409	0	322.70	0	5.1780	0	33.8700	0	26.762	0	319.760	0	90.9	4	29.4	4	-1E+10	1	-1E+10	1	-1E+10	1	-1E+10	1	-1E+10	1	-1E+10	1
4902549	98	C	04/30/2023	18:08	-133.207	47.409	0	323.90	0	5.1590	0	33.8710	0	26.765	0	320.948	0	90.4	4	29.3	4	-1E+10	1	-1E+10	1	-1E+10	1	-1E+10	1	-1E+10	1	-1E+10	1
4902549	98	C	04/30/2023	18:08	-133.207	47.409	0	325.20	0	5.1410	0	33.8740	0	26.769	0	322.235	0	90.0	4	29.1	4	-1E+10	1	-1E+10	1	-1E+10	1	-1E+10	1	-1E+10	1	-1E+10	1
4902549	98	C	04/30/2023	18:08	-133.207	47.409	0	326.00	0	5.1390	0	33.8730	0	26.769	0	323.027	0	89.6	4	29.0	4	-1E+10	1	-1E+10	1	-1E+10	1	-1E+10	1	-1E+10	1	-1E+10	1
4902549	98	C	04/30/2023	18:08	-133.207	47.409	0	326.90	0	5.1350	0	33.8740	0	26.770	0	323.918	0	89.3	4	28.9	4	-1E+10	1	-1E+10	1	-1E+10	1	-1E+10	1	-1E+10	1	-1E+10	1
4902549	98	C	04/30/2023	18:08	-133.207	47.409	0	327.80	0	5.1180	0	33.8780	0	26.775	0	324.809	0	89.0	4	28.8	4	-1E+10	1	-1E+10	1	-1E+10	1	-1E+10	1	-1E+10	1	-1E+10	1
4902549	98	C	04/30/2023	18:08	-133.207	47.409	0	328.60	0	5.1090	0	33.8770	0	26.776	0	325.601	0	88.7	4	28.7	4	-1E+10	1	-1E+10	1	-1E+10	1	-1E+10	1	-1E+10	1	-1E+10	1
4902549	98	C	04/30/2023	18:08	-133.207	47.409	0	329.90	0	5.1060	0	33.8770	0	26.776	0	326.888	0	88.3	4	28.5	4	-1E+10	1	-1E+10	1	-1E+10	1	-1E+10	1	-1E+10	1	-1E+10	1
4902549	98	C	04/30/2023	18:08	-133.207	47.409	0	331.30	0	5.1050	0	33.8760	0	26.775	0	328.275	0	87.7	4	28.4	4	-1E+10	1	-1E+10	1	-1E+10	1	-1E+10	1	-1E+10	1	-1E+10	1
4902549	98	C	04/30/2023	18:08	-133.207	47.409	0	332.20	0	5.0970	0	33.8780	0	26.778	0	329.166	0	87.3	4	28.2	4	-1E+10	1	-1E+10	1	-1E+10	1	-1E+10	1	-1E+10	1	-1E+10	1
4902549	98	C	04/30/2023	18:08	-133.207	47.409	0	333.10	0	5.0850	0	33.8790	0	26.780	0	330.057	0	87.0	4	28.1	4	-1E+10	1	-1E+10	1	-1E+10	1	-1E+10	1	-1E+10	1	-1E+10	1
4902549	98	C	04/30/2023	18:08	-133.207	47.409	0	333.90	0	5.0720	0	33.8800	0	26.782	0	330.849	0	86.6	4	28.0	4	-1E+10	1	-1E+10	1	-1E+10	1	-1E+10	1	-1E+10	1	-1E+10	1
4902549	98	C	04/30/2023	18:08	-133.207	47.409	0	334.80	0	5.0650	0	33.8810	0	26.784	0	331.740	0	86.4	4	27.9	4	-1E+10	1	-1E+10	1	-1E+10	1	-1E+10	1	-1E+10	1	-1E+10	1
4902549	98	C	04/30/2023	18:08	-133.207	47.409	0	335.70	0	5.0600	0	33.8810	0	26.784	0	332.631	0	86.1	4	27.8	4	-1E+10	1	-1E+10	1	-1E+10	1	-1E+10	1	-1E+10	1	-1E+10	1
4902549	98	C	04/30/2023	18:08	-133.207	47.409	0	336.60	0	5.0550	0	33.8810	0	26.785	0	333.522	0	85.7	4	27.7	4	-1E+10	1	-1E+10	1	-1E+10	1	-1E+10	1	-1E+10	1	-1E+10	1
4902549	98	C	04/30/2023	18:08	-133.207	47.409	0	337.90	0	5.0470	0	33.8820	0	26.787	0	334.809	0	85.2	4	27.5	4	-1E+10	1	-1E+10	1	-1E+10	1	-1E+10	1	-1E+10	1	-1E+10	1
4902549	98	C	04/30/2023	18:08	-133.207	47.409	0	339.30	0	5.0340	0	33.8840	0	26.790	0	336.195	0	84.8	4	27.4	4	-1E+10	1	-1E+10	1	-1E+10	1	-1E+10	1	-1E+10	1	-1E+10	1
4902549	98	C	04/30/2023	18:08	-133.207	47.409	0	340.20	0	5.0260	0	33.8840	0	26.791	0	337.086	0	84.5	4	27.3	4	-1E+10	1	-1E+10	1	-1E+10	1	-1E+10	1	-1E+10	1	-1E+10	1
4902549	98	C	04/30/2023	18:08	-133.207	47.409	0	341.10	0	5.0210	0	33.8850	0	26.792	0	337.977	0	84.2	4	27.2	4	-1E+10	1	-1E+10	1	-1E+10	1	-1E+10	1	-1E+10	1	-1E+10	1
4902549	98	C	04/30/2023	18:08	-133.207	47.409	0	342.00	0	5.0200	0	33.8850	0	26.792	0	338.868	0	83.8	4	27.1	4	-1E+10	1	-1E+10	1	-1E+10	1	-1E+10	1	-1E+10	1	-1E+10	1
4902549	98	C	04/30/2023	18:08	-133.207	47.409	0	342.90	0	5.0190	0	33.8850	0	26.792	0	339.759	0	83.4	4	26.9	4	-1E+10	1	-1E+10	1	-1E+10	1	-1E+10	1	-1E+10	1	-1E+10	1
4902549	98	C	04/30/2023	18:08	-133.207	47.409	0	343.80	0	5.0120	0	33.8860	0	26.794	0	340.650	0	83.0	4	26.8	4	-1E+10	1	-1E+10	1	-1E+10	1	-1E+10	1	-1E+10	1	-1E+10	1
4902549	98	C	04/30/2023	18:08	-133.207	47.409	0	344.70	0	5.0020	0	33.8860	0	26.795	0	341.541	0	82.6	4	26.7	4	-1E+10	1	-1E+10	1	-1E+10	1	-1E+10	1	-1E+10	1	-1E+10	1
4902549	98	C	04/30/2023	18:08	-133.207	47.409	0	345.60	0	4.9890	0	33.8890	0	26.799	0	342.432	0	82.2	4	26.5	4	-1E+10	1	-1E+10	1	-1E+10	1	-1E+10	1	-1E+10	1	-1E+10	1
4902549	98	C	04/30/2023	18:08	-133.207	47.409	0	346.60	0	4.9850	0	33.8880	0	26.799	0	343.422	0	81.8	4	26.4	4	-1E+10	1	-1E+10	1	-1E+10	1	-1E+10	1	-1E+10	1	-1E+10	1
4902549	98	C	04/30/2023	18:08	-133.207	47.409	0	347.90	0	4.9780	0	33.8880	0	26.799	0	344.709	0	81.1	4	26.2	4	-1E+10	1	-1E+10	1	-1E+10	1	-1E+10	1	-1E+10	1	-1E+10	1
4902549	98	C	04/30/2023	18:08	-133.207	47.409	0	349.40	0	4.9650	0	33.8910	0	26.803	0	346.194	0	80.4	4	25.9	4	-1E+10	1	-1E+10	1	-1E+10	1	-1E+10	1	-1E+10	1	-1E+10	1
4902549	98	C	04/30/2023	18:08	-133.207	47.409	0	350.30	0	4.9620	0	33.8900	0	26.803	0	347.085	0	80.0	4	25.8	4	-1E+10	1	-1E+10	1	-1E+10	1	-1E+10	1	-1E+10	1	-1E+10	1
4902549	98	C	04/30/2023	18:08	-133.207	47.409	0	353.10	0	4.9490	0	33.8920	0	26.806	0	349.857	0	78.5	4	25.3	4	-1E+10	1	-1E+10	1	-1E+10	1	-1E+10	1	-1E+10	1	-1E+10	1
4902549	98	C	04/30/2023	18:08	-133.207	47.409	0	357.70	0	4.9220	0	33.8940	0	26.810	0	354.411	0	76.0	4	24.5	4	-1E+10	1	-1E+10	1	-1E+10	1	-1E+10	1	-1E+10	1	-1E+10	1
4902549	98	C	04/30/2023	18:08	-133.207	47.409	0	362.90	0	4.8750	0	33.8990	0	26.820	0	359.559	0	73.9	4	23.8	4	-1E+10	1	-1E+10	1	-1E+10	1	-1E+10	1	-1E+10	1	-1E+10	1
4902549	98	C	04/30/2023	18:08	-133.207	47.409	0	368.20	0	4.8400	0	33.9060	0	26.829	0	364.805	0	71.7	4	23.1	4	-1E+10	1	-1E+10	1	-1E+10	1	-1E+10	1	-1E+10	1	-1E+10	1
4902549	98	C	04/30/2023	18:08	-133.207	47.409	0	373.10	0	4.8040	0	33.9110	0	26.837	0	369.656	0	69.5	4	22.3	4	-1E+10	1	-1E+10	1	-1E+10	1	-1E+10	1	-1E+10	1	-1E+10	1
4902549	98	C	04/30/2023	18:08	-133.207	47.409	0	378.00	0	4.7620	0	33.9160	0	26.846	0	374.506	0	67.3	4	21.6	4	-1E+10	1	-1E+10	1	-1E+10	1	-1E+10	1	-1E+10	1	-1E+10	1
4902549	98	C	04/30/2023	18:08	-133.207	47.409	0	382.90	0	4.7400	0	33.9220	0	26.853	0	379.356	0	65.4	4	21.0	4	-1E+10	1	-1E+10	1	-1E+10	1	-1E+10	1	-1E+10	1	-1E+10	1
4902549	98	C	04/30/2023	18:08	-133.207	47.409	0	387.80	0	4.7060	0	33.9230	0	26.858	0	384.206	0	63.4	4	20.3	4	-1E+10	1	-1E+10	1	-1E+10	1	-1E+10	1	-1E+10	1	-1E+10	1
4902549	98	C	04/30/2023	18:08	-133.207	47.409	0	392.80	0	4.6700	0	33.9230	0	26.862	0	389.155	0	62.0	4	19.9	4	-1E+10	1	-1E+10	1	-1E+10	1	-1E+10	1	-1E+10	1	-1E+10	1
4902549	98	C	04/30/2023	18:08	-133.207	47.409	0	397.70	0	4.6370	0	33.9270	0	26.869	0	394.005	0	60.8	4	19.4	4	-1E+10	1	-1E+10	1	-1E+10	1	-1E+10	1	-1E+10	1	-1E+10	1
4902549	98	C	04/30/2023	18:08	-133.207	47.409	0	402.70	0	4.6280	0	33.9310	0	26.873	0	398.954	0	59.8	4	19.1	4	-1E+10	1	-1E+10	1	-1E+10	1	-1E+10	1	-1E+10	1	-1E+10	1
4902549	98	C	04/30/2023	18:08	-133.207	47.409	0	407.70	0	4.6160	0	33.9330	0	26.876	0	403.903	0	58.5	4	18.7	4	-1E+10	1	-1E+10	1	-1E+10	1	-1E+10	1	-1E+10	1	-1E+10	1
4902549	98	C	04/30/2023	18:08	-133.207	47.409	0	412.70	0	4.5880	0	33.9380	0	26.883	0	408.851	0	56.8	4	18.2	4	-1E+10	1	-1E+10	1	-1E+10	1	-1E+10	1	-1E+10	1	-1E+10	1
4902549	98	C	04/30/2023	18:08	-133.207	47.409	0	417.70	0	4.5590	0	33.9460	0	26.892	0	413.799	0	55.1	4	17.6	4	-1E+10	1	-1E+10	1	-1E+10	1	-1E+10	1	-1E+10	1	-1E+10	1
4902549	98	C	04/30/2023	18:08	-133.207	47.409	0	422.70	0	4.5480	0	33.9540	0	26.900	0	418.748	0	53.8	4	17.2	4	-1E+10	1	-1E+10	1	-1E+10	1	-1E+10	1	-1E+10	1	-1E+10	1
4902549	98	C	04/30/2023	18:08	-133.207	47.409	0	427.70	0	4.5430	0	33.9590	0	26.904	0	423.696	0	52.6	4	16.8	4	-1E+10	1	-1E+10	1	-1E+10	1	-1E+10	1	-1E+10	1	-1E+10	1
4902549	98	C	04/30/2023	18:08	-133.207	47.409	0	432.70	0	4.5200	0	33.9650	0	26.912	0	428.644	0	51.4	4	16.4	4	-1E+10	1	-1E+10	1	-1E+10	1	-1E+10	1	-1E+10	1	-1E+10	1
4902549	98	C	04/30/2023	18:08	-133.207	47.409	0	437.80	0	4.4990	0	33.9690	0	26.917	0	433.691	0	50.5	4	16.1	4	-1E+10	1	-1E+10	1	-1E+10	1	-1E+10	1	-1E+10	1	-1E+10	1
4902549	98	C	04/30/2023	18:08	-133.207	47.409	0	442.90	0	4.4840	0	33.9730	0	26.922	0	438.737	0	49.4	4	15.8	4	-1E+10	1	-1E+10	1	-1E+10	1	-1E+10	1	-1E+10	1	-1E+10	1
4902549	98	C	04/30/2023	18:08	-133.207	47.409	0	447.90	0	4.4790	0	33.9810	0	26.929	0	443.685	0	48.5	4	15.5	4	-1E+10	1	-1E+10	1	-1E+10	1	-1E+10	1	-1E+10	1	-1E+10	1
4902549	98	C	04/30/2023	18:08	-133.207	47.409	0	453.00	0	4.4590	0	33.9830	0	26.933	0	448.732	0	47.9	4	15.3	4	-1E+10	1	-1E+10	1	-1E+10	1	-1E+10	1	-1E+10	1	-1E+10	1
4902549	98	C	04/30/2023	18:08	-133.207	47.409	0	458.10	0	4.4250	0	33.9850	0	26.938	0	453.778	0	47.0	4	15.0	4	-1E+10	1	-1E+10	1	-1E+10	1	-1E+10	1	-1E+10	1	-1E+10	1
4902549	98	C	04/30/2023	18:08	-133.207	47.409	0	463.10	0	4.4080	0	33.9880	0	26.942	0	458.725	0	45.7	4	14.5	4	-1E+10	1	-1E+10	1	-1E+10	1	-1E+10	1	-1E+10	1	-1E+10	1
4902549	98	C	04/30/2023	18:08	-133.207	47.409	0	468.20	0	4.3910	0	33.9940	0	26.949	0	463.771	0	44.5	4	14.2	4	-1E+10	1	-1E+10	1	-1E+10	1	-1E+10	1	-1E+10	1	-1E+10	1
4902549	98	C	04/30/2023	18:08	-133.207	47.409	0	473.30	0	4.3780	0	34.0000	0	26.955	0	468.817	0	43.1	4	13.7	4	-1E+10	1	-1E+10	1	-1E+10	1	-1E+10	1	-1E+10	1	-1E+10	1
4902549	98	C	04/30/2023	18:08	-133.207	47.409	0	477.90	0	4.3630	0	34.0070	0	26.962	0	473.369	0	42.1	4	13.4	4	-1E+10	1	-1E+10	1	-1E+10	1	-1E+10	1	-1E+10	1	-1E+10	1
4902549	98	C	04/30/2023	18:08	-133.207	47.409	0	482.60	0	4.3700	0	34.0100	0	26.964	0	478.019	0	41.0	4	13.1	4	-1E+10	1	-1E+10	1	-1E+10	1	-1E+10	1	-1E+10	1	-1E+10	1
4902549	98	C	04/30/2023	18:08	-133.207	47.409	0	487.80	0	4.3420	0	34.0130	0	26.969	0	483.163	0	38.9	4	12.4	4	-1E+10	1	-1E+10	1	-1E+10	1	-1E+10	1	-1E+10	1	-1E+10	1
4902549	98	C	04/30/2023	18:08	-133.207	47.409	0	492.90	0	4.3900	0	34.0290	0	26.977	0	488.209	0	35.9	4	11.4	4	-1E+10	1	-1E+10	1	-1E+10	1	-1E+10	1	-1E+10	1	-1E+10	1
4902549	98	C	04/30/2023	18:08	-133.207	47.409	0	498.10	0	4.4240	0	34.0390	0	26.981	0	493.353	0	35.2	4	11.2	4	-1E+10	1	-1E+10	1	-1E+10	1	-1E+10	1	-1E+10	1	-1E+10	1
4902549	98	C	04/30/2023	18:08	-133.207	47.409	0	502.90	0	4.3940	0	34.0390	0	26.985	0	498.102	0	34.7	4	11.1	4	-1E+10	1	-1E+10	1	-1E+10	1	-1E+10	1	-1E+10	1	-1E+10	1
4902549	98	C	04/30/2023	18:08	-133.207	47.409	0	507.70	0	4.3820	0	34.0420	0	26.988	0	502.850	0	33.9	4	10.8	4	-1E+10	1	-1E+10	1	-1E+10	1	-1E+10	1	-1E+10	1	-1E+10	1
4902549	98	C	04/30/2023	18:08	-133.207	47.409	0	512.60	0	4.3550	0	34.0450	0	26.994	0	507.697	0	32.8	4	10.4	4	-1E+10	1	-1E+10	1	-1E+10	1	-1E+10	1	-1E+10	1	-1E+10	1
4902549	98	C	04/30/2023	18:08	-133.207	47.409	0	517.60	0	4.3340	0	34.0530	0	27.002	0	512.643	0	31.3	4	9.9	4	-1E+10	1	-1E+10	1	-1E+10	1	-1E+10	1	-1E+10	1	-1E+10	1
4902549	98	C	04/30/2023	18:08	-133.207	47.409	0	522.60	0	4.3290	0	34.0580	0	27.007	0	517.589	0	29.3	4	9.3	4	-1E+10	1	-1E+10	1	-1E+10	1	-1E+10	1	-1E+10	1	-1E+10	1
4902549	98	C	04/30/2023	18:08	-133.207	47.409	0	527.80	0	4.3490	0	34.0680	0	27.013	0	522.733	0	27.3	4	8.7	4	-1E+10	1	-1E+10	1	-1E+10	1	-1E+10	1	-1E+10	1	-1E+10	1
4902549	98	C	04/30/2023	18:08	-133.207	47.409	0	532.70	0	4.3430	0	34.0760	0	27.020	0	527.579	0	26.7	4	8.5	4	-1E+10	1	-1E+10	1	-1E+10	1	-1E+10	1	-1E+10	1	-1E+10	1
4902549	98	C	04/30/2023	18:08	-133.207	47.409	0	537.70	0	4.3330	0	34.0780	0	27.022	0	532.525	0	26.5	4	8.4	4	-1E+10	1	-1E+10	1	-1E+10	1	-1E+10	1	-1E+10	1	-1E+10	1
4902549	98	C	04/30/2023	18:08	-133.207	47.409	0	542.70	0	4.2800	0	34.0800	0	27.029	0	537.470	0	25.8	4	8.2	4	-1E+10	1	-1E+10	1	-1E+10	1	-1E+10	1	-1E+10	1	-1E+10	1
4902549	98	C	04/30/2023	18:08	-133.207	47.409	0	547.90	0	4.2910	0	34.0860	0	27.033	0	542.614	0	24.6	4	7.8	4	-1E+10	1	-1E+10	1	-1E+10	1	-1E+10	1	-1E+10	1	-1E+10	1
4902549	98	C	04/30/2023	18:08	-133.207	47.409	0	553.10	0	4.2970	0	34.0890	0	27.035	0	547.756	0	24.0	4	7.6	4	-1E+10	1	-1E+10	1	-1E+10	1	-1E+10	1	-1E+10	1	-1E+10	1
4902549	98	C	04/30/2023	18:08	-133.207	47.409	0	557.90	0	4.2910	0	34.0940	0	27.040	0	552.504	0	23.4	4	7.4	4	-1E+10	1	-1E+10	1	-1E+10	1	-1E+10	1	-1E+10	1	-1E+10	1
4902549	98	C	04/30/2023	18:08	-133.207	47.409	0	562.70	0	4.2760	0	34.0970	0	27.044	0	557.251	0	23.0	4	7.3	4	-1E+10	1	-1E+10	1	-1E+10	1	-1E+10	1	-1E+10	1	-1E+10	1
4902549	98	C	04/30/2023	18:08	-133.207	47.409	0	567.50	0	4.2660	0	34.1000	0	27.047	0	561.998	0	22.7	4	7.2	4	-1E+10	1	-1E+10	1	-1E+10	1	-1E+10	1	-1E+10	1	-1E+10	1
4902549	98	C	04/30/2023	18:08	-133.207	47.409	0	572.50	0	4.2320	0	34.1040	0	27.054	0	566.943	0	22.3	4	7.1	4	-1E+10	1	-1E+10	1	-1E+10	1	-1E+10	1	-1E+10	1	-1E+10	1
4902549	98	C	04/30/2023	18:08	-133.207	47.409	0	577.50	0	4.2120	0	34.1080	0	27.059	0	571.887	0	21.8	4	6.9	4	-1E+10	1	-1E+10	1	-1E+10	1	-1E+10	1	-1E+10	1	-1E+10	1
4902549	98	C	04/30/2023	18:08	-133.207	47.409	0	582.40	0	4.2010	0	34.1120	0	27.063	0	576.733	0	21.2	4	6.7	4	-1E+10	1	-1E+10	1	-1E+10	1	-1E+10	1	-1E+10	1	-1E+10	1
4902549	98	C	04/30/2023	18:08	-133.207	47.409	0	587.50	0	4.1820	0	34.1160	0	27.069	0	581.776	0	20.4	4	6.5	4	-1E+10	1	-1E+10	1	-1E+10	1	-1E+10	1	-1E+10	1	-1E+10	1
4902549	98	C	04/30/2023	18:08	-133.207	47.409	0	592.50	0	4.1580	0	34.1220	0	27.076	0	586.720	0	19.4	4	6.2	4	-1E+10	1	-1E+10	1	-1E+10	1	-1E+10	1	-1E+10	1	-1E+10	1
4902549	98	C	04/30/2023	18:08	-133.207	47.409	0	597.60	0	4.1510	0	34.1270	0	27.081	0	591.763	0	18.5	4	5.9	4	-1E+10	1	-1E+10	1	-1E+10	1	-1E+10	1	-1E+10	1	-1E+10	1
4902549	98	C	04/30/2023	18:08	-133.207	47.409	0	602.60	0	4.1540	0	34.1330	0	27.085	0	596.707	0	17.5	4	5.6	4	-1E+10	1	-1E+10	1	-1E+10	1	-1E+10	1	-1E+10	1	-1E+10	1
4902549	98	C	04/30/2023	18:08	-133.207	47.409	0	607.70	0	4.1440	0	34.1380	0	27.090	0	601.750	0	16.8	4	5.3	4	-1E+10	1	-1E+10	1	-1E+10	1	-1E+10	1	-1E+10	1	-1E+10	1
4902549	98	C	04/30/2023	18:08	-133.207	47.409	0	612.90	0	4.1260	0	34.1430	0	27.096	0	606.892	0	16.2	4	5.1	4	-1E+10	1	-1E+10	1	-1E+10	1	-1E+10	1	-1E+10	1	-1E+10	1
4902549	98	C	04/30/2023	18:08	-133.207	47.409	0	617.90	0	4.1390	0	34.1510	0	27.101	0	611.835	0	15.9	4	5.0	4	-1E+10	1	-1E+10	1	-1E+10	1	-1E+10	1	-1E+10	1	-1E+10	1
4902549	98	C	04/30/2023	18:08	-133.207	47.409	0	622.90	0	4.1000	0	34.1510	0	27.105	0	616.779	0	15.8	4	5.0	4	-1E+10	1	-1E+10	1	-1E+10	1	-1E+10	1	-1E+10	1	-1E+10	1
4902549	98	C	04/30/2023	18:08	-133.207	47.409	0	628.00	0	4.0880	0	34.1540	0	27.109	0	621.821	0	15.3	4	4.8	4	-1E+10	1	-1E+10	1	-1E+10	1	-1E+10	1	-1E+10	1	-1E+10	1
4902549	98	C	04/30/2023	18:08	-133.207	47.409	0	632.80	0	4.0810	0	34.1580	0	27.113	0	626.567	0	14.9	4	4.7	4	-1E+10	1	-1E+10	1	-1E+10	1	-1E+10	1	-1E+10	1	-1E+10	1
4902549	98	C	04/30/2023	18:08	-133.207	47.409	0	637.70	0	4.0790	0	34.1630	0	27.117	0	631.411	0	14.5	4	4.6	4	-1E+10	1	-1E+10	1	-1E+10	1	-1E+10	1	-1E+10	1	-1E+10	1
4902549	98	C	04/30/2023	18:08	-133.207	47.409	0	642.60	0	4.0670	0	34.1660	0	27.121	0	636.255	0	14.3	4	4.5	4	-1E+10	1	-1E+10	1	-1E+10	1	-1E+10	1	-1E+10	1	-1E+10	1
4902549	98	C	04/30/2023	18:08	-133.207	47.409	0	647.70	0	4.0490	0	34.1680	0	27.124	0	641.297	0	14.1	4	4.5	4	-1E+10	1	-1E+10	1	-1E+10	1	-1E+10	1	-1E+10	1	-1E+10	1
4902549	98	C	04/30/2023	18:08	-133.207	47.409	0	652.90	0	4.0280	0	34.1710	0	27.129	0	646.437	0	13.9	4	4.4	4	-1E+10	1	-1E+10	1	-1E+10	1	-1E+10	1	-1E+10	1	-1E+10	1
4902549	98	C	04/30/2023	18:08	-133.207	47.409	0	657.80	0	4.0080	0	34.1730	0	27.132	0	651.281	0	13.6	4	4.3	4	-1E+10	1	-1E+10	1	-1E+10	1	-1E+10	1	-1E+10	1	-1E+10	1
4902549	98	C	04/30/2023	18:08	-133.207	47.409	0	662.70	0	3.9970	0	34.1770	0	27.137	0	656.125	0	13.3	4	4.2	4	-1E+10	1	-1E+10	1	-1E+10	1	-1E+10	1	-1E+10	1	-1E+10	1
4902549	98	C	04/30/2023	18:08	-133.207	47.409	0	668.00	0	3.9730	0	34.1800	0	27.142	0	661.364	0	13.0	4	4.1	4	-1E+10	1	-1E+10	1	-1E+10	1	-1E+10	1	-1E+10	1	-1E+10	1
4902549	98	C	04/30/2023	18:08	-133.207	47.409	0	673.10	0	3.9620	0	34.1830	0	27.145	0	666.405	0	12.7	4	4.0	4	-1E+10	1	-1E+10	1	-1E+10	1	-1E+10	1	-1E+10	1	-1E+10	1
4902549	98	C	04/30/2023	18:08	-133.207	47.409	0	677.70	0	3.9470	0	34.1870	0	27.150	0	670.952	0	12.2	4	3.9	4	-1E+10	1	-1E+10	1	-1E+10	1	-1E+10	1	-1E+10	1	-1E+10	1
4902549	98	C	04/30/2023	18:08	-133.207	47.409	0	682.80	0	3.9390	0	34.1930	0	27.156	0	675.993	0	11.8	4	3.7	4	-1E+10	1	-1E+10	1	-1E+10	1	-1E+10	1	-1E+10	1	-1E+10	1
4902549	98	C	04/30/2023	18:08	-133.207	47.409	0	687.90	0	3.9440	0	34.1980	0	27.159	0	681.034	0	11.5	4	3.6	4	-1E+10	1	-1E+10	1	-1E+10	1	-1E+10	1	-1E+10	1	-1E+10	1
4902549	98	C	04/30/2023	18:08	-133.207	47.409	0	693.00	0	3.9370	0	34.1990	0	27.161	0	686.075	0	11.2	4	3.5	4	-1E+10	1	-1E+10	1	-1E+10	1	-1E+10	1	-1E+10	1	-1E+10	1
4902549	98	C	04/30/2023	18:08	-133.207	47.409	0	698.10	0	3.9500	0	34.2040	0	27.163	0	691.115	0	11.0	4	3.5	4	-1E+10	1	-1E+10	1	-1E+10	1	-1E+10	1	-1E+10	1	-1E+10	1
4902549	98	C	04/30/2023	18:08	-133.207	47.409	0	702.70	0	3.9330	0	34.2050	0	27.166	0	695.661	0	11.0	4	3.5	4	-1E+10	1	-1E+10	1	-1E+10	1	-1E+10	1	-1E+10	1	-1E+10	1
4902549	98	C	04/30/2023	18:08	-133.207	47.409	0	707.70	0	3.9010	0	34.2070	0	27.171	0	700.603	0	10.8	4	3.4	4	-1E+10	1	-1E+10	1	-1E+10	1	-1E+10	1	-1E+10	1	-1E+10	1
4902549	98	C	04/30/2023	18:08	-133.207	47.409	0	712.80	0	3.8900	0	34.2110	0	27.175	0	705.643	0	10.5	4	3.3	4	-1E+10	1	-1E+10	1	-1E+10	1	-1E+10	1	-1E+10	1	-1E+10	1
4902549	98	C	04/30/2023	18:08	-133.207	47.409	0	717.80	0	3.8870	0	34.2130	0	27.177	0	710.584	0	10.2	4	3.2	4	-1E+10	1	-1E+10	1	-1E+10	1	-1E+10	1	-1E+10	1	-1E+10	1
4902549	98	C	04/30/2023	18:08	-133.207	47.409	0	722.80	0	3.8900	0	34.2180	0	27.181	0	715.526	0	10.0	4	3.1	4	-1E+10	1	-1E+10	1	-1E+10	1	-1E+10	1	-1E+10	1	-1E+10	1
4902549	98	C	04/30/2023	18:08	-133.207	47.409	0	727.80	0	3.8730	0	34.2210	0	27.185	0	720.467	0	9.7	4	3.1	4	-1E+10	1	-1E+10	1	-1E+10	1	-1E+10	1	-1E+10	1	-1E+10	1
4902549	98	C	04/30/2023	18:08	-133.207	47.409	0	732.90	0	3.8740	0	34.2260	0	27.189	0	725.506	0	9.5	4	3.0	4	-1E+10	1	-1E+10	1	-1E+10	1	-1E+10	1	-1E+10	1	-1E+10	1
4902549	98	C	04/30/2023	18:08	-133.207	47.409	0	737.90	0	3.8720	0	34.2300	0	27.192	0	730.447	0	9.3	4	2.9	4	-1E+10	1	-1E+10	1	-1E+10	1	-1E+10	1	-1E+10	1	-1E+10	1
4902549	98	C	04/30/2023	18:08	-133.207	47.409	0	743.00	0	3.8630	0	34.2310	0	27.194	0	735.487	0	9.3	4	2.9	4	-1E+10	1	-1E+10	1	-1E+10	1	-1E+10	1	-1E+10	1	-1E+10	1
4902549	98	C	04/30/2023	18:08	-133.207	47.409	0	747.70	0	3.8270	0	34.2340	0	27.200	0	740.131	0	9.2	4	2.9	4	-1E+10	1	-1E+10	1	-1E+10	1	-1E+10	1	-1E+10	1	-1E+10	1
4902549	98	C	04/30/2023	18:08	-133.207	47.409	0	752.90	0	3.8140	0	34.2370	0	27.204	0	745.269	0	9.0	4	2.8	4	-1E+10	1	-1E+10	1	-1E+10	1	-1E+10	1	-1E+10	1	-1E+10	1
4902549	98	C	04/30/2023	18:08	-133.207	47.409	0	758.10	0	3.8010	0	34.2410	0	27.208	0	750.407	0	8.9	4	2.8	4	-1E+10	1	-1E+10	1	-1E+10	1	-1E+10	1	-1E+10	1	-1E+10	1
4902549	98	C	04/30/2023	18:08	-133.207	47.409	0	763.00	0	3.7730	0	34.2420	0	27.212	0	755.248	0	8.7	4	2.7	4	-1E+10	1	-1E+10	1	-1E+10	1	-1E+10	1	-1E+10	1	-1E+10	1
4902549	98	C	04/30/2023	18:08	-133.207	47.409	0	767.80	0	3.7650	0	34.2460	0	27.216	0	759.991	0	8.6	4	2.7	4	-1E+10	1	-1E+10	1	-1E+10	1	-1E+10	1	-1E+10	1	-1E+10	1
4902549	98	C	04/30/2023	18:08	-133.207	47.409	0	772.60	0	3.7500	0	34.2480	0	27.219	0	764.733	0	8.3	4	2.6	4	-1E+10	1	-1E+10	1	-1E+10	1	-1E+10	1	-1E+10	1	-1E+10	1
4902549	98	C	04/30/2023	18:08	-133.207	47.409	0	778.00	0	3.7360	0	34.2530	0	27.224	0	770.068	0	8.1	4	2.6	4	-1E+10	1	-1E+10	1	-1E+10	1	-1E+10	1	-1E+10	1	-1E+10	1
4902549	98	C	04/30/2023	18:08	-133.207	47.409	0	783.40	0	3.7310	0	34.2560	0	27.227	0	775.403	0	7.9	4	2.5	4	-1E+10	1	-1E+10	1	-1E+10	1	-1E+10	1	-1E+10	1	-1E+10	1
4902549	98	C	04/30/2023	18:08	-133.207	47.409	0	788.30	0	3.7210	0	34.2620	0	27.233	0	780.244	0	7.6	4	2.4	4	-1E+10	1	-1E+10	1	-1E+10	1	-1E+10	1	-1E+10	1	-1E+10	1
4902549	98	C	04/30/2023	18:08	-133.207	47.409	0	792.90	0	3.7140	0	34.2660	0	27.237	0	784.788	0	7.5	4	2.3	4	-1E+10	1	-1E+10	1	-1E+10	1	-1E+10	1	-1E+10	1	-1E+10	1
4902549	98	C	04/30/2023	18:08	-133.207	47.409	0	797.50	0	3.6980	0	34.2700	0	27.242	0	789.333	0	7.3	4	2.3	4	-1E+10	1	-1E+10	1	-1E+10	1	-1E+10	1	-1E+10	1	-1E+10	1
4902549	98	C	04/30/2023	18:08	-133.207	47.409	0	802.60	0	3.7000	0	34.2740	0	27.245	0	794.371	0	7.2	4	2.2	4	-1E+10	1	-1E+10	1	-1E+10	1	-1E+10	1	-1E+10	1	-1E+10	1
4902549	98	C	04/30/2023	18:08	-133.207	47.409	0	808.00	0	3.6910	0	34.2800	0	27.250	0	799.705	0	7.1	4	2.2	4	-1E+10	1	-1E+10	1	-1E+10	1	-1E+10	1	-1E+10	1	-1E+10	1
4902549	98	C	04/30/2023	18:08	-133.207	47.409	0	813.10	0	3.6860	0	34.2830	0	27.253	0	804.743	0	7.0	4	2.2	4	-1E+10	1	-1E+10	1	-1E+10	1	-1E+10	1	-1E+10	1	-1E+10	1
4902549	98	C	04/30/2023	18:08	-133.207	47.409	0	817.90	0	3.6670	0	34.2840	0	27.256	0	809.484	0	7.1	4	2.2	4	-1E+10	1	-1E+10	1	-1E+10	1	-1E+10	1	-1E+10	1	-1E+10	1
4902549	98	C	04/30/2023	18:08	-133.207	47.409	0	822.90	0	3.6480	0	34.2860	0	27.260	0	814.423	0	7.0	4	2.2	4	-1E+10	1	-1E+10	1	-1E+10	1	-1E+10	1	-1E+10	1	-1E+10	1
4902549	98	C	04/30/2023	18:08	-133.207	47.409	0	827.90	0	3.6440	0	34.2880	0	27.262	0	819.362	0	7.0	4	2.2	4	-1E+10	1	-1E+10	1	-1E+10	1	-1E+10	1	-1E+10	1	-1E+10	1
4902549	98	C	04/30/2023	18:08	-133.207	47.409	0	833.00	0	3.6410	0	34.2890	0	27.263	0	824.399	0	6.9	4	2.2	4	-1E+10	1	-1E+10	1	-1E+10	1	-1E+10	1	-1E+10	1	-1E+10	1
4902549	98	C	04/30/2023	18:08	-133.207	47.409	0	837.80	0	3.6320	0	34.2910	0	27.265	0	829.140	0	6.9	4	2.2	4	-1E+10	1	-1E+10	1	-1E+10	1	-1E+10	1	-1E+10	1	-1E+10	1
4902549	98	C	04/30/2023	18:08	-133.207	47.409	0	842.80	0	3.6190	0	34.2920	0	27.267	0	834.078	0	6.8	4	2.1	4	-1E+10	1	-1E+10	1	-1E+10	1	-1E+10	1	-1E+10	1	-1E+10	1
4902549	98	C	04/30/2023	18:08	-133.207	47.409	0	847.70	0	3.6170	0	34.2950	0	27.270	0	838.918	0	6.7	4	2.1	4	-1E+10	1	-1E+10	1	-1E+10	1	-1E+10	1	-1E+10	1	-1E+10	1
4902549	98	C	04/30/2023	18:08	-133.207	47.409	0	852.80	0	3.6070	0	34.2980	0	27.273	0	843.955	0	6.6	4	2.1	4	-1E+10	1	-1E+10	1	-1E+10	1	-1E+10	1	-1E+10	1	-1E+10	1
4902549	98	C	04/30/2023	18:08	-133.207	47.409	0	858.00	0	3.5990	0	34.3020	0	27.277	0	849.090	0	6.5	4	2.0	4	-1E+10	1	-1E+10	1	-1E+10	1	-1E+10	1	-1E+10	1	-1E+10	1
4902549	98	C	04/30/2023	18:08	-133.207	47.409	0	862.80	0	3.5940	0	34.3050	0	27.280	0	853.831	0	6.5	4	2.0	4	-1E+10	1	-1E+10	1	-1E+10	1	-1E+10	1	-1E+10	1	-1E+10	1
4902549	98	C	04/30/2023	18:08	-133.207	47.409	0	867.60	0	3.5830	0	34.3060	0	27.282	0	858.571	0	6.5	4	2.0	4	-1E+10	1	-1E+10	1	-1E+10	1	-1E+10	1	-1E+10	1	-1E+10	1
4902549	98	C	04/30/2023	18:08	-133.207	47.409	0	872.90	0	3.5760	0	34.3080	0	27.284	0	863.805	0	6.4	4	2.0	4	-1E+10	1	-1E+10	1	-1E+10	1	-1E+10	1	-1E+10	1	-1E+10	1
4902549	98	C	04/30/2023	18:08	-133.207	47.409	0	878.30	0	3.5670	0	34.3120	0	27.289	0	869.137	0	6.4	4	2.0	4	-1E+10	1	-1E+10	1	-1E+10	1	-1E+10	1	-1E+10	1	-1E+10	1
4902549	98	C	04/30/2023	18:08	-133.207	47.409	0	883.10	0	3.5530	0	34.3120	0	27.290	0	873.877	0	6.4	4	2.0	4	-1E+10	1	-1E+10	1	-1E+10	1	-1E+10	1	-1E+10	1	-1E+10	1
4902549	98	C	04/30/2023	18:08	-133.207	47.409	0	887.90	0	3.5320	0	34.3140	0	27.294	0	878.617	0	6.3	4	2.0	4	-1E+10	1	-1E+10	1	-1E+10	1	-1E+10	1	-1E+10	1	-1E+10	1
4902549	98	C	04/30/2023	18:08	-133.207	47.409	0	892.80	0	3.5280	0	34.3190	0	27.298	0	883.455	0	6.3	4	2.0	4	-1E+10	1	-1E+10	1	-1E+10	1	-1E+10	1	-1E+10	1	-1E+10	1
4902549	98	C	04/30/2023	18:08	-133.207	47.409	0	897.60	0	3.5250	0	34.3210	0	27.300	0	888.195	0	6.2	4	2.0	4	-1E+10	1	-1E+10	1	-1E+10	1	-1E+10	1	-1E+10	1	-1E+10	1
4902549	98	C	04/30/2023	18:08	-133.207	47.409	0	902.90	0	3.5190	0	34.3230	0	27.302	0	893.428	0	6.2	4	1.9	4	-1E+10	1	-1E+10	1	-1E+10	1	-1E+10	1	-1E+10	1	-1E+10	1
4902549	98	C	04/30/2023	18:08	-133.207	47.409	0	908.20	0	3.5170	0	34.3260	0	27.305	0	898.661	0	6.2	4	1.9	4	-1E+10	1	-1E+10	1	-1E+10	1	-1E+10	1	-1E+10	1	-1E+10	1
4902549	98	C	04/30/2023	18:08	-133.207	47.409	0	913.10	0	3.5150	0	34.3280	0	27.307	0	903.499	0	6.2	4	1.9	4	-1E+10	1	-1E+10	1	-1E+10	1	-1E+10	1	-1E+10	1	-1E+10	1
4902549	98	C	04/30/2023	18:08	-133.207	47.409	0	918.00	0	3.5040	0	34.3290	0	27.308	0	908.337	0	6.3	4	2.0	4	-1E+10	1	-1E+10	1	-1E+10	1	-1E+10	1	-1E+10	1	-1E+10	1
4902549	98	C	04/30/2023	18:08	-133.207	47.409	0	922.80	0	3.4680	0	34.3290	0	27.312	0	913.076	0	6.5	4	2.0	4	-1E+10	1	-1E+10	1	-1E+10	1	-1E+10	1	-1E+10	1	-1E+10	1
4902549	98	C	04/30/2023	18:08	-133.207	47.409	0	927.60	0	3.4410	0	34.3300	0	27.315	0	917.815	0	6.5	4	2.0	4	-1E+10	1	-1E+10	1	-1E+10	1	-1E+10	1	-1E+10	1	-1E+10	1
4902549	98	C	04/30/2023	18:08	-133.207	47.409	0	933.00	0	3.4320	0	34.3310	0	27.317	0	923.146	0	6.4	4	2.0	4	-1E+10	1	-1E+10	1	-1E+10	1	-1E+10	1	-1E+10	1	-1E+10	1
4902549	98	C	04/30/2023	18:08	-133.207	47.409	0	938.20	0	3.4190	0	34.3330	0	27.320	0	928.279	0	6.4	4	2.0	4	-1E+10	1	-1E+10	1	-1E+10	1	-1E+10	1	-1E+10	1	-1E+10	1
4902549	98	C	04/30/2023	18:08	-133.207	47.409	0	943.00	0	3.4130	0	34.3360	0	27.323	0	933.018	0	6.4	4	2.0	4	-1E+10	1	-1E+10	1	-1E+10	1	-1E+10	1	-1E+10	1	-1E+10	1
4902549	98	C	04/30/2023	18:08	-133.207	47.409	0	947.80	0	3.4060	0	34.3400	0	27.327	0	937.756	0	6.3	4	2.0	4	-1E+10	1	-1E+10	1	-1E+10	1	-1E+10	1	-1E+10	1	-1E+10	1
4902549	98	C	04/30/2023	18:08	-133.207	47.409	0	953.00	0	3.4000	0	34.3410	0	27.328	0	942.890	0	6.3	4	2.0	4	-1E+10	1	-1E+10	1	-1E+10	1	-1E+10	1	-1E+10	1	-1E+10	1
4902549	98	C	04/30/2023	18:08	-133.207	47.409	0	958.20	0	3.3890	0	34.3430	0	27.331	0	948.023	0	6.3	4	2.0	4	-1E+10	1	-1E+10	1	-1E+10	1	-1E+10	1	-1E+10	1	-1E+10	1
4902549	98	C	04/30/2023	18:08	-133.207	47.409	0	963.00	0	3.3900	0	34.3480	0	27.335	0	952.761	0	6.2	4	1.9	4	-1E+10	1	-1E+10	1	-1E+10	1	-1E+10	1	-1E+10	1	-1E+10	1
4902549	98	C	04/30/2023	18:08	-133.207	47.409	0	967.80	0	3.3940	0	34.3510	0	27.337	0	957.499	0	6.2	4	1.9	4	-1E+10	1	-1E+10	1	-1E+10	1	-1E+10	1	-1E+10	1	-1E+10	1
4902549	98	C	04/30/2023	18:08	-133.207	47.409	0	973.00	0	3.3910	0	34.3530	0	27.339	0	962.632	0	6.2	4	1.9	4	-1E+10	1	-1E+10	1	-1E+10	1	-1E+10	1	-1E+10	1	-1E+10	1
4902549	98	C	04/30/2023	18:08	-133.207	47.409	0	978.20	0	3.3750	0	34.3560	0	27.343	0	967.764	0	6.2	4	1.9	4	-1E+10	1	-1E+10	1	-1E+10	1	-1E+10	1	-1E+10	1	-1E+10	1
4902549	98	C	04/30/2023	18:08	-133.207	47.409	0	983.00	0	3.3630	0	34.3570	0	27.345	0	972.502	0	6.2	4	1.9	4	-1E+10	1	-1E+10	1	-1E+10	1	-1E+10	1	-1E+10	1	-1E+10	1
4902549	98	C	04/30/2023	18:08	-133.207	47.409	0	987.80	0	3.3570	0	34.3580	0	27.346	0	977.239	0	6.2	4	1.9	4	-1E+10	1	-1E+10	1	-1E+10	1	-1E+10	1	-1E+10	1	-1E+10	1
4902549	98	C	04/30/2023	18:08	-133.207	47.409	0	992.60	0	3.3420	0	34.3620	0	27.351	0	981.977	0	6.3	4	1.9	4	-1E+10	1	-1E+10	1	-1E+10	1	-1E+10	1	-1E+10	1	-1E+10	1
4902549	98	C	04/30/2023	18:08	-133.207	47.409	0	998.00	0	3.3260	0	34.3640	0	27.354	0	987.306	0	6.3	4	2.0	4	-1E+10	1	-1E+10	1	-1E+10	1	-1E+10	1	-1E+10	1	-1E+10	1
4902549	98	C	04/30/2023	18:08	-133.207	47.409	0	1005.80	0	3.3190	0	34.3700	0	27.359	0	995.004	0	6.3	4	1.9	4	-1E+10	1	-1E+10	1	-1E+10	1	-1E+10	1	-1E+10	1	-1E+10	1
4902549	98	C	04/30/2023	18:08	-133.207	47.409	0	1015.40	0	3.3070	0	34.3740	0	27.364	0	1004.478	0	6.3	4	2.0	4	-1E+10	1	-1E+10	1	-1E+10	1	-1E+10	1	-1E+10	1	-1E+10	1
4902549	98	C	04/30/2023	18:08	-133.207	47.409	0	1025.50	0	3.2870	0	34.3780	0	27.369	0	1014.445	0	6.5	4	2.0	4	-1E+10	1	-1E+10	1	-1E+10	1	-1E+10	1	-1E+10	1	-1E+10	1
4902549	98	C	04/30/2023	18:08	-133.207	47.409	0	1035.70	0	3.2530	0	34.3830	0	27.376	0	1024.510	0	6.6	4	2.1	4	-1E+10	1	-1E+10	1	-1E+10	1	-1E+10	1	-1E+10	1	-1E+10	1
4902549	98	C	04/30/2023	18:08	-133.207	47.409	0	1045.60	0	3.2210	0	34.3880	0	27.383	0	1034.279	0	6.7	4	2.1	4	-1E+10	1	-1E+10	1	-1E+10	1	-1E+10	1	-1E+10	1	-1E+10	1
4902549	98	C	04/30/2023	18:08	-133.207	47.409	0	1055.40	0	3.2090	0	34.3900	0	27.386	0	1043.948	0	6.8	4	2.1	4	-1E+10	1	-1E+10	1	-1E+10	1	-1E+10	1	-1E+10	1	-1E+10	1
4902549	98	C	04/30/2023	18:08	-133.207	47.409	0	1065.40	0	3.1940	0	34.3930	0	27.390	0	1053.815	0	6.9	4	2.2	4	-1E+10	1	-1E+10	1	-1E+10	1	-1E+10	1	-1E+10	1	-1E+10	1
4902549	98	C	04/30/2023	18:08	-133.207	47.409	0	1075.90	0	3.1700	0	34.3970	0	27.395	0	1064.174	0	7.1	4	2.2	4	-1E+10	1	-1E+10	1	-1E+10	1	-1E+10	1	-1E+10	1	-1E+10	1
4902549	98	C	04/30/2023	18:08	-133.207	47.409	0	1085.60	0	3.1460	0	34.4010	0	27.401	0	1073.743	0	7.3	4	2.2	4	-1E+10	1	-1E+10	1	-1E+10	1	-1E+10	1	-1E+10	1	-1E+10	1
4902549	98	C	04/30/2023	18:08	-133.207	47.409	0	1095.20	0	3.1220	0	34.4040	0	27.405	0	1083.214	0	7.4	4	2.3	4	-1E+10	1	-1E+10	1	-1E+10	1	-1E+10	1	-1E+10	1	-1E+10	1
4902549	98	C	04/30/2023	18:08	-133.207	47.409	0	1105.40	0	3.1020	0	34.4070	0	27.409	0	1093.276	0	7.6	4	2.4	4	-1E+10	1	-1E+10	1	-1E+10	1	-1E+10	1	-1E+10	1	-1E+10	1
4902549	98	C	04/30/2023	18:08	-133.207	47.409	0	1115.70	0	3.0770	0	34.4110	0	27.415	0	1103.436	0	7.8	4	2.4	4	-1E+10	1	-1E+10	1	-1E+10	1	-1E+10	1	-1E+10	1	-1E+10	1
4902549	98	C	04/30/2023	18:08	-133.207	47.409	0	1125.80	0	3.0530	0	34.4150	0	27.420	0	1113.398	0	8.0	4	2.5	4	-1E+10	1	-1E+10	1	-1E+10	1	-1E+10	1	-1E+10	1	-1E+10	1
4902549	98	C	04/30/2023	18:08	-133.207	47.409	0	1135.80	0	3.0310	0	34.4180	0	27.425	0	1123.261	0	8.2	4	2.5	4	-1E+10	1	-1E+10	1	-1E+10	1	-1E+10	1	-1E+10	1	-1E+10	1
4902549	98	C	04/30/2023	18:08	-133.207	47.409	0	1145.80	0	3.0060	0	34.4200	0	27.429	0	1133.124	0	8.3	4	2.6	4	-1E+10	1	-1E+10	1	-1E+10	1	-1E+10	1	-1E+10	1	-1E+10	1
4902549	98	C	04/30/2023	18:08	-133.207	47.409	0	1155.80	0	2.9830	0	34.4220	0	27.432	0	1142.986	0	8.5	4	2.6	4	-1E+10	1	-1E+10	1	-1E+10	1	-1E+10	1	-1E+10	1	-1E+10	1
4902549	98	C	04/30/2023	18:08	-133.207	47.409	0	1165.50	0	2.9550	0	34.4260	0	27.438	0	1152.552	0	8.7	4	2.7	4	-1E+10	1	-1E+10	1	-1E+10	1	-1E+10	1	-1E+10	1	-1E+10	1
4902549	98	C	04/30/2023	18:08	-133.207	47.409	0	1175.10	0	2.9260	0	34.4280	0	27.442	0	1162.018	0	9.0	4	2.8	4	-1E+10	1	-1E+10	1	-1E+10	1	-1E+10	1	-1E+10	1	-1E+10	1
4902549	98	C	04/30/2023	18:08	-133.207	47.409	0	1185.30	0	2.9060	0	34.4290	0	27.445	0	1172.077	0	9.1	4	2.8	4	-1E+10	1	-1E+10	1	-1E+10	1	-1E+10	1	-1E+10	1	-1E+10	1
4902549	98	C	04/30/2023	18:08	-133.207	47.409	0	1195.70	0	2.8840	0	34.4310	0	27.449	0	1182.331	0	9.3	4	2.9	4	-1E+10	1	-1E+10	1	-1E+10	1	-1E+10	1	-1E+10	1	-1E+10	1
4902549	98	C	04/30/2023	18:08	-133.207	47.409	0	1205.40	0	2.8710	0	34.4330	0	27.452	0	1191.895	0	9.6	4	2.9	4	-1E+10	1	-1E+10	1	-1E+10	1	-1E+10	1	-1E+10	1	-1E+10	1
4902549	98	C	04/30/2023	18:08	-133.207	47.409	0	1215.20	0	2.8610	0	34.4370	0	27.456	0	1201.558	0	9.8	4	3.0	4	-1E+10	1	-1E+10	1	-1E+10	1	-1E+10	1	-1E+10	1	-1E+10	1
4902549	98	C	04/30/2023	18:08	-133.207	47.409	0	1225.50	0	2.8150	0	34.4390	0	27.461	0	1211.712	0	10.0	4	3.1	4	-1E+10	1	-1E+10	1	-1E+10	1	-1E+10	1	-1E+10	1	-1E+10	1
4902549	98	C	04/30/2023	18:08	-133.207	47.409	0	1235.80	0	2.7770	0	34.4410	0	27.466	0	1221.867	0	10.2	4	3.1	4	-1E+10	1	-1E+10	1	-1E+10	1	-1E+10	1	-1E+10	1	-1E+10	1
4902549	98	C	04/30/2023	18:08	-133.207	47.409	0	1245.80	0	2.7600	0	34.4430	0	27.469	0	1231.725	0	10.4	4	3.2	4	-1E+10	1	-1E+10	1	-1E+10	1	-1E+10	1	-1E+10	1	-1E+10	1
4902549	98	C	04/30/2023	18:08	-133.207	47.409	0	1255.50	0	2.7490	0	34.4440	0	27.471	0	1241.286	0	10.6	4	3.3	4	-1E+10	1	-1E+10	1	-1E+10	1	-1E+10	1	-1E+10	1	-1E+10	1
4902549	98	C	04/30/2023	18:08	-133.207	47.409	0	1265.30	0	2.7570	0	34.4490	0	27.475	0	1250.946	0	11.0	4	3.4	4	-1E+10	1	-1E+10	1	-1E+10	1	-1E+10	1	-1E+10	1	-1E+10	1
4902549	98	C	04/30/2023	18:08	-133.207	47.409	0	1275.40	0	2.7390	0	34.4510	0	27.478	0	1260.901	0	11.2	4	3.4	4	-1E+10	1	-1E+10	1	-1E+10	1	-1E+10	1	-1E+10	1	-1E+10	1
4902549	98	C	04/30/2023	18:08	-133.207	47.409	0	1285.40	0	2.7210	0	34.4540	0	27.482	0	1270.758	0	11.5	4	3.5	4	-1E+10	1	-1E+10	1	-1E+10	1	-1E+10	1	-1E+10	1	-1E+10	1
4902549	98	C	04/30/2023	18:08	-133.207	47.409	0	1295.50	0	2.7100	0	34.4560	0	27.484	0	1280.712	0	11.8	4	3.6	4	-1E+10	1	-1E+10	1	-1E+10	1	-1E+10	1	-1E+10	1	-1E+10	1
4902549	98	C	04/30/2023	18:08	-133.207	47.409	0	1305.40	0	2.6890	0	34.4580	0	27.488	0	1290.469	0	12.0	4	3.7	4	-1E+10	1	-1E+10	1	-1E+10	1	-1E+10	1	-1E+10	1	-1E+10	1
4902549	98	C	04/30/2023	18:08	-133.207	47.409	0	1315.30	0	2.6720	0	34.4600	0	27.491	0	1300.225	0	12.2	4	3.7	4	-1E+10	1	-1E+10	1	-1E+10	1	-1E+10	1	-1E+10	1	-1E+10	1
4902549	98	C	04/30/2023	18:08	-133.207	47.409	0	1325.40	0	2.6590	0	34.4610	0	27.493	0	1310.178	0	12.3	4	3.8	4	-1E+10	1	-1E+10	1	-1E+10	1	-1E+10	1	-1E+10	1	-1E+10	1
4902549	98	C	04/30/2023	18:08	-133.207	47.409	0	1335.60	0	2.6440	0	34.4620	0	27.495	0	1320.229	0	12.6	4	3.8	4	-1E+10	1	-1E+10	1	-1E+10	1	-1E+10	1	-1E+10	1	-1E+10	1
4902549	98	C	04/30/2023	18:08	-133.207	47.409	0	1345.60	0	2.6300	0	34.4650	0	27.499	0	1330.082	0	12.9	4	3.9	4	-1E+10	1	-1E+10	1	-1E+10	1	-1E+10	1	-1E+10	1	-1E+10	1
4902549	98	C	04/30/2023	18:08	-133.207	47.409	0	1355.20	0	2.6210	0	34.4660	0	27.500	0	1339.541	0	13.1	4	4.0	4	-1E+10	1	-1E+10	1	-1E+10	1	-1E+10	1	-1E+10	1	-1E+10	1
4902549	98	C	04/30/2023	18:08	-133.207	47.409	0	1365.00	0	2.6010	0	34.4680	0	27.504	0	1349.196	0	13.4	4	4.1	4	-1E+10	1	-1E+10	1	-1E+10	1	-1E+10	1	-1E+10	1	-1E+10	1
4902549	98	C	04/30/2023	18:08	-133.207	47.409	0	1375.00	0	2.5770	0	34.4700	0	27.507	0	1359.048	0	13.6	4	4.2	4	-1E+10	1	-1E+10	1	-1E+10	1	-1E+10	1	-1E+10	1	-1E+10	1
4902549	98	C	04/30/2023	18:08	-133.207	47.409	0	1385.20	0	2.5640	0	34.4720	0	27.510	0	1369.097	0	14.0	4	4.3	4	-1E+10	1	-1E+10	1	-1E+10	1	-1E+10	1	-1E+10	1	-1E+10	1
4902549	98	C	04/30/2023	18:08	-133.207	47.409	0	1395.50	0	2.5560	0	34.4730	0	27.512	0	1379.243	0	14.2	4	4.3	4	-1E+10	1	-1E+10	1	-1E+10	1	-1E+10	1	-1E+10	1	-1E+10	1
4902549	98	C	04/30/2023	18:08	-133.207	47.409	0	1405.90	0	2.5380	0	34.4750	0	27.515	0	1389.488	0	14.5	4	4.4	4	-1E+10	1	-1E+10	1	-1E+10	1	-1E+10	1	-1E+10	1	-1E+10	1
4902549	98	C	04/30/2023	18:08	-133.207	47.409	0	1415.30	0	2.5180	0	34.4780	0	27.519	0	1398.747	0	14.9	4	4.6	4	-1E+10	1	-1E+10	1	-1E+10	1	-1E+10	1	-1E+10	1	-1E+10	1
4902549	98	C	04/30/2023	18:08	-133.207	47.409	0	1425.30	0	2.5020	0	34.4790	0	27.521	0	1408.597	0	15.2	4	4.6	4	-1E+10	1	-1E+10	1	-1E+10	1	-1E+10	1	-1E+10	1	-1E+10	1
4902549	98	C	04/30/2023	18:08	-133.207	47.409	0	1435.60	0	2.4930	0	34.4810	0	27.524	0	1418.741	0	15.7	4	4.8	4	-1E+10	1	-1E+10	1	-1E+10	1	-1E+10	1	-1E+10	1	-1E+10	1
4902549	98	C	04/30/2023	18:08	-133.207	47.409	0	1445.30	0	2.4830	0	34.4840	0	27.527	0	1428.295	0	16.3	4	5.0	4	-1E+10	1	-1E+10	1	-1E+10	1	-1E+10	1	-1E+10	1	-1E+10	1
4902549	98	C	04/30/2023	18:08	-133.207	47.409	0	1455.20	0	2.4640	0	34.4870	0	27.531	0	1438.045	0	16.8	4	5.1	4	-1E+10	1	-1E+10	1	-1E+10	1	-1E+10	1	-1E+10	1	-1E+10	1
4902549	98	C	04/30/2023	18:08	-133.207	47.409	0	1465.20	0	2.4530	0	34.4890	0	27.534	0	1447.892	0	17.1	4	5.2	4	-1E+10	1	-1E+10	1	-1E+10	1	-1E+10	1	-1E+10	1	-1E+10	1
4902549	98	C	04/30/2023	18:08	-133.207	47.409	0	1475.40	0	2.4400	0	34.4910	0	27.536	0	1457.937	0	17.5	4	5.3	4	-1E+10	1	-1E+10	1	-1E+10	1	-1E+10	1	-1E+10	1	-1E+10	1
4902549	98	C	04/30/2023	18:08	-133.207	47.409	0	1485.60	0	2.4290	0	34.4920	0	27.538	0	1467.981	0	17.9	4	5.4	4	-1E+10	1	-1E+10	1	-1E+10	1	-1E+10	1	-1E+10	1	-1E+10	1
4902549	98	C	04/30/2023	18:08	-133.207	47.409	0	1495.30	0	2.4170	0	34.4940	0	27.541	0	1477.532	0	18.3	4	5.6	4	-1E+10	1	-1E+10	1	-1E+10	1	-1E+10	1	-1E+10	1	-1E+10	1
4902549	98	C	04/30/2023	18:08	-133.207	47.409	0	1505.50	0	2.4040	0	34.4960	0	27.543	0	1487.575	0	18.9	4	5.7	4	-1E+10	1	-1E+10	1	-1E+10	1	-1E+10	1	-1E+10	1	-1E+10	1
4902549	98	C	04/30/2023	18:08	-133.207	47.409	0	1515.60	0	2.3910	0	34.4990	0	27.547	0	1497.519	0	19.6	4	6.0	4	-1E+10	1	-1E+10	1	-1E+10	1	-1E+10	1	-1E+10	1	-1E+10	1
4902549	98	C	04/30/2023	18:08	-133.207	47.409	0	1525.50	0	2.3730	0	34.5020	0	27.551	0	1507.265	0	20.2	4	6.1	4	-1E+10	1	-1E+10	1	-1E+10	1	-1E+10	1	-1E+10	1	-1E+10	1
4902549	98	C	04/30/2023	18:08	-133.207	47.409	0	1535.40	0	2.3630	0	34.5030	0	27.553	0	1517.011	0	20.7	4	6.3	4	-1E+10	1	-1E+10	1	-1E+10	1	-1E+10	1	-1E+10	1	-1E+10	1
4902549	98	C	04/30/2023	18:08	-133.207	47.409	0	1545.50	0	2.3490	0	34.5060	0	27.556	0	1526.954	0	21.4	4	6.5	4	-1E+10	1	-1E+10	1	-1E+10	1	-1E+10	1	-1E+10	1	-1E+10	1
4902549	98	C	04/30/2023	18:08	-133.207	47.409	0	1555.70	0	2.3330	0	34.5090	0	27.560	0	1536.995	0	22.1	4	6.7	4	-1E+10	1	-1E+10	1	-1E+10	1	-1E+10	1	-1E+10	1	-1E+10	1
4902549	98	C	04/30/2023	18:08	-133.207	47.409	0	1565.50	0	2.3220	0	34.5120	0	27.563	0	1546.641	0	22.8	4	6.9	4	-1E+10	1	-1E+10	1	-1E+10	1	-1E+10	1	-1E+10	1	-1E+10	1
4902549	98	C	04/30/2023	18:08	-133.207	47.409	0	1575.40	0	2.3180	0	34.5130	0	27.565	0	1556.385	0	23.2	4	7.1	4	-1E+10	1	-1E+10	1	-1E+10	1	-1E+10	1	-1E+10	1	-1E+10	1
4902549	98	C	04/30/2023	18:08	-133.207	47.409	0	1585.30	0	2.3110	0	34.5140	0	27.566	0	1566.129	0	23.8	4	7.2	4	-1E+10	1	-1E+10	1	-1E+10	1	-1E+10	1	-1E+10	1	-1E+10	1
4902549	98	C	04/30/2023	18:08	-133.207	47.409	0	1595.40	0	2.2990	0	34.5170	0	27.569	0	1576.069	0	24.7	4	7.5	4	-1E+10	1	-1E+10	1	-1E+10	1	-1E+10	1	-1E+10	1	-1E+10	1
4902549	98	C	04/30/2023	18:08	-133.207	47.409	0	1605.40	0	2.2940	0	34.5200	0	27.572	0	1585.911	0	25.5	4	7.7	4	-1E+10	1	-1E+10	1	-1E+10	1	-1E+10	1	-1E+10	1	-1E+10	1
4902549	98	C	04/30/2023	18:08	-133.207	47.409	0	1615.20	0	2.2740	0	34.5220	0	27.576	0	1595.555	0	25.9	4	7.9	4	-1E+10	1	-1E+10	1	-1E+10	1	-1E+10	1	-1E+10	1	-1E+10	1
4902549	98	C	04/30/2023	18:08	-133.207	47.409	0	1625.50	0	2.2550	0	34.5240	0	27.579	0	1605.691	0	26.5	4	8.0	4	-1E+10	1	-1E+10	1	-1E+10	1	-1E+10	1	-1E+10	1	-1E+10	1
4902549	98	C	04/30/2023	18:08	-133.207	47.409	0	1635.80	0	2.2440	0	34.5260	0	27.581	0	1615.826	0	27.1	4	8.2	4	-1E+10	1	-1E+10	1	-1E+10	1	-1E+10	1	-1E+10	1	-1E+10	1
4902549	98	C	04/30/2023	18:08	-133.207	47.409	0	1645.80	0	2.2320	0	34.5290	0	27.585	0	1625.666	0	28.0	4	8.5	4	-1E+10	1	-1E+10	1	-1E+10	1	-1E+10	1	-1E+10	1	-1E+10	1
4902549	98	C	04/30/2023	18:08	-133.207	47.409	0	1655.40	0	2.2200	0	34.5300	0	27.586	0	1635.111	0	28.5	4	8.6	4	-1E+10	1	-1E+10	1	-1E+10	1	-1E+10	1	-1E+10	1	-1E+10	1
4902549	98	C	04/30/2023	18:08	-133.207	47.409	0	1665.00	0	2.2120	0	34.5320	0	27.589	0	1644.556	0	29.1	4	8.8	4	-1E+10	1	-1E+10	1	-1E+10	1	-1E+10	1	-1E+10	1	-1E+10	1
4902549	98	C	04/30/2023	18:08	-133.207	47.409	0	1675.70	0	2.2050	0	34.5330	0	27.590	0	1655.083	0	29.8	4	9.0	4	-1E+10	1	-1E+10	1	-1E+10	1	-1E+10	1	-1E+10	1	-1E+10	1
4902549	98	C	04/30/2023	18:08	-133.207	47.409	0	1685.40	0	2.1880	0	34.5360	0	27.594	0	1664.626	0	30.8	4	9.3	4	-1E+10	1	-1E+10	1	-1E+10	1	-1E+10	1	-1E+10	1	-1E+10	1
4902549	98	C	04/30/2023	18:08	-133.207	47.409	0	1695.50	0	2.1810	0	34.5370	0	27.595	0	1674.561	0	31.2	4	9.5	4	-1E+10	1	-1E+10	1	-1E+10	1	-1E+10	1	-1E+10	1	-1E+10	1
4902549	98	C	04/30/2023	18:08	-133.207	47.409	0	1705.60	0	2.1730	0	34.5390	0	27.598	0	1684.496	0	31.9	4	9.7	4	-1E+10	1	-1E+10	1	-1E+10	1	-1E+10	1	-1E+10	1	-1E+10	1
4902549	98	C	04/30/2023	18:08	-133.207	47.409	0	1715.50	0	2.1620	0	34.5410	0	27.600	0	1694.234	0	32.6	4	9.9	4	-1E+10	1	-1E+10	1	-1E+10	1	-1E+10	1	-1E+10	1	-1E+10	1
4902549	98	C	04/30/2023	18:08	-133.207	47.409	0	1725.50	0	2.1540	0	34.5420	0	27.602	0	1704.070	0	33.2	4	10.0	4	-1E+10	1	-1E+10	1	-1E+10	1	-1E+10	1	-1E+10	1	-1E+10	1
4902549	98	C	04/30/2023	18:08	-133.207	47.409	0	1735.60	0	2.1440	0	34.5440	0	27.604	0	1714.004	0	33.9	4	10.3	4	-1E+10	1	-1E+10	1	-1E+10	1	-1E+10	1	-1E+10	1	-1E+10	1
4902549	98	C	04/30/2023	18:08	-133.207	47.409	0	1745.30	0	2.1320	0	34.5460	0	27.607	0	1723.544	0	34.7	4	10.5	4	-1E+10	1	-1E+10	1	-1E+10	1	-1E+10	1	-1E+10	1	-1E+10	1
4902549	98	C	04/30/2023	18:08	-133.207	47.409	0	1755.20	0	2.1210	0	34.5480	0	27.609	0	1733.280	0	35.6	4	10.8	4	-1E+10	1	-1E+10	1	-1E+10	1	-1E+10	1	-1E+10	1	-1E+10	1
4902549	98	C	04/30/2023	18:08	-133.207	47.409	0	1765.20	0	2.1060	0	34.5510	0	27.613	0	1743.114	0	36.4	4	11.0	4	-1E+10	1	-1E+10	1	-1E+10	1	-1E+10	1	-1E+10	1	-1E+10	1
4902549	98	C	04/30/2023	18:08	-133.207	47.409	0	1775.10	0	2.0990	0	34.5520	0	27.614	0	1752.850	0	37.0	4	11.2	4	-1E+10	1	-1E+10	1	-1E+10	1	-1E+10	1	-1E+10	1	-1E+10	1
4902549	98	C	04/30/2023	18:08	-133.207	47.409	0	1785.00	0	2.0940	0	34.5530	0	27.616	0	1762.584	0	37.5	4	11.3	4	-1E+10	1	-1E+10	1	-1E+10	1	-1E+10	1	-1E+10	1	-1E+10	1
4902549	98	C	04/30/2023	18:08	-133.207	47.409	0	1795.20	0	2.0850	0	34.5550	0	27.618	0	1772.614	0	38.2	4	11.5	4	-1E+10	1	-1E+10	1	-1E+10	1	-1E+10	1	-1E+10	1	-1E+10	1
4902549	98	C	04/30/2023	18:08	-133.207	47.409	0	1805.50	0	2.0790	0	34.5560	0	27.619	0	1782.741	0	38.7	4	11.7	4	-1E+10	1	-1E+10	1	-1E+10	1	-1E+10	1	-1E+10	1	-1E+10	1
4902549	98	C	04/30/2023	18:08	-133.207	47.409	0	1815.20	0	2.0690	0	34.5580	0	27.622	0	1792.278	0	39.3	4	11.9	4	-1E+10	1	-1E+10	1	-1E+10	1	-1E+10	1	-1E+10	1	-1E+10	1
4902549	98	C	04/30/2023	18:08	-133.207	47.409	0	1825.20	0	2.0590	0	34.5590	0	27.623	0	1802.109	0	40.2	4	12.1	4	-1E+10	1	-1E+10	1	-1E+10	1	-1E+10	1	-1E+10	1	-1E+10	1
4902549	98	C	04/30/2023	18:08	-133.207	47.409	0	1835.40	0	2.0470	0	34.5620	0	27.627	0	1812.137	0	41.0	4	12.4	4	-1E+10	1	-1E+10	1	-1E+10	1	-1E+10	1	-1E+10	1	-1E+10	1
4902549	98	C	04/30/2023	18:08	-133.207	47.409	0	1845.20	0	2.0380	0	34.5630	0	27.628	0	1821.770	0	41.6	4	12.6	4	-1E+10	1	-1E+10	1	-1E+10	1	-1E+10	1	-1E+10	1	-1E+10	1
4902549	98	C	04/30/2023	18:08	-133.207	47.409	0	1855.20	0	2.0310	0	34.5650	0	27.631	0	1831.600	0	42.1	4	12.7	4	-1E+10	1	-1E+10	1	-1E+10	1	-1E+10	1	-1E+10	1	-1E+10	1
4902549	98	C	04/30/2023	18:08	-133.207	47.409	0	1865.20	0	2.0240	0	34.5660	0	27.632	0	1841.430	0	42.9	4	12.9	4	-1E+10	1	-1E+10	1	-1E+10	1	-1E+10	1	-1E+10	1	-1E+10	1
4902549	98	C	04/30/2023	18:08	-133.207	47.409	0	1875.30	0	2.0140	0	34.5680	0	27.634	0	1851.357	0	43.6	4	13.2	4	-1E+10	1	-1E+10	1	-1E+10	1	-1E+10	1	-1E+10	1	-1E+10	1
4902549	98	C	04/30/2023	18:08	-133.207	47.409	0	1885.70	0	2.0060	0	34.5690	0	27.636	0	1861.579	0	44.2	4	13.3	4	-1E+10	1	-1E+10	1	-1E+10	1	-1E+10	1	-1E+10	1	-1E+10	1
4902549	98	C	04/30/2023	18:08	-133.207	47.409	0	1896.10	0	2.0010	0	34.5700	0	27.637	0	1871.800	0	44.8	4	13.5	4	-1E+10	1	-1E+10	1	-1E+10	1	-1E+10	1	-1E+10	1	-1E+10	1
4902549	98	C	04/30/2023	18:08	-133.207	47.409	0	1905.60	0	1.9940	0	34.5720	0	27.639	0	1881.137	0	45.5	4	13.7	4	-1E+10	1	-1E+10	1	-1E+10	1	-1E+10	1	-1E+10	1	-1E+10	1
4902549	98	C	04/30/2023	18:08	-133.207	47.409	0	1915.30	0	1.9870	0	34.5740	0	27.642	0	1890.669	0	46.1	4	13.9	4	-1E+10	1	-1E+10	1	-1E+10	1	-1E+10	1	-1E+10	1	-1E+10	1
4902549	98	C	04/30/2023	18:08	-133.207	47.409	0	1925.10	0	1.9820	0	34.5750	0	27.643	0	1900.299	0	46.4	4	14.0	4	-1E+10	1	-1E+10	1	-1E+10	1	-1E+10	1	-1E+10	1	-1E+10	1
4902549	98	C	04/30/2023	18:08	-133.207	47.409	0	1935.00	0	1.9780	0	34.5750	0	27.643	0	1910.027	0	46.9	4	14.1	4	-1E+10	1	-1E+10	1	-1E+10	1	-1E+10	1	-1E+10	1	-1E+10	1
4902549	98	C	04/30/2023	18:08	-133.207	47.409	0	1945.00	0	1.9720	0	34.5770	0	27.645	0	1919.853	0	47.4	4	14.3	4	-1E+10	1	-1E+10	1	-1E+10	1	-1E+10	1	-1E+10	1	-1E+10	1
4902549	98	C	04/30/2023	18:08	-133.207	47.409	0	1955.10	0	1.9650	0	34.5780	0	27.647	0	1929.777	0	47.9	4	14.4	4	-1E+10	1	-1E+10	1	-1E+10	1	-1E+10	1	-1E+10	1	-1E+10	1
4902549	98	C	04/30/2023	18:08	-133.207	47.409	0	1965.40	0	1.9580	0	34.5790	0	27.648	0	1939.897	0	48.5	4	14.6	4	-1E+10	1	-1E+10	1	-1E+10	1	-1E+10	1	-1E+10	1	-1E+10	1
4902549	98	C	04/30/2023	18:08	-133.207	47.409	0	1975.50	0	1.9530	0	34.5800	0	27.649	0	1949.819	0	48.8	4	14.7	4	-1E+10	1	-1E+10	1	-1E+10	1	-1E+10	1	-1E+10	1	-1E+10	1
4902549	98	C	04/30/2023	18:08	-133.207	47.409	0	1985.90	0	1.9450	0	34.5810	0	27.651	0	1960.036	0	49.1	4	14.8	4	-1E+10	1	-1E+10	1	-1E+10	1	-1E+10	1	-1E+10	1	-1E+10	1
4902549	98	C	04/30/2023	18:08	-133.207	47.409	0	1991.30	0	1.9410	0	34.5830	0	27.653	0	1965.341	0	48.7	4	14.7	4	-1E+10	1	-1E+10	1	-1E+10	1	-1E+10	1	-1E+10	1	-1E+10	1
4902549	98	C	04/30/2023	18:08	-133.207	47.409	0																										
4902549	99	C	05/10/2023	22:58	-133.164	47.362	0	0.30	0	9.1840	0	32.3750	0	25.035	0	0.297	0	281.1	4	98.7	4	-1E+10	1	-1E+10	1	-1E+10	1	-1E+10	1	-1E+10	1	-1E+10	1
4902549	99	C	05/10/2023	22:58	-133.164	47.362	0	0.50	0	9.1843	0	32.3724	0	25.033	0	0.496	0	-1e10	1	-1e10	1	-1E+10	1	-1E+10	1	-1E+10	1	-1E+10	1	-1E+10	1	-1E+10	1
4902549	99	C	05/10/2023	22:58	-133.164	47.362	0	0.60	0	9.1844	0	32.3711	0	25.032	0	0.595	0	-1e10	1	-1e10	1	-1E+10	1	-1E+10	1	-1E+10	1	-1E+10	1	-1E+10	1	-1E+10	1
4902549	99	C	05/10/2023	22:58	-133.164	47.362	0	1.00	0	9.1850	0	32.3660	0	25.028	0	0.992	0	-1e10	1	-1e10	1	-1E+10	1	-1E+10	1	-1E+10	1	-1E+10	1	-1E+10	1	-1E+10	1
4902549	99	C	05/10/2023	22:58	-133.164	47.362	0	1.30	0	9.1856	0	32.3621	0	25.024	0	1.289	0	281.0	4	98.6	4	-1E+10	1	-1E+10	1	-1E+10	1	-1E+10	1	-1E+10	1	-1E+10	1
4902549	99	C	05/10/2023	22:58	-133.164	47.362	0	2.00	0	9.1870	0	32.3530	0	25.017	0	1.983	0	281.0	4	98.6	4	-1E+10	1	-1E+10	1	-1E+10	1	-1E+10	1	-1E+10	1	-1E+10	1
4902549	99	C	05/10/2023	22:58	-133.164	47.362	0	3.00	0	9.1880	0	32.3450	0	25.011	0	2.975	0	281.1	4	98.7	4	-1E+10	1	-1E+10	1	-1E+10	1	-1E+10	1	-1E+10	1	-1E+10	1
4902549	99	C	05/10/2023	22:58	-133.164	47.362	0	3.90	0	9.1590	0	32.3640	0	25.030	0	3.867	0	281.2	4	98.6	4	-1E+10	1	-1E+10	1	-1E+10	1	-1E+10	1	-1E+10	1	-1E+10	1
4902549	99	C	05/10/2023	22:58	-133.164	47.362	0	5.10	0	9.1370	0	32.3810	0	25.047	0	5.057	0	281.4	4	98.7	4	-1E+10	1	-1E+10	1	-1E+10	1	-1E+10	1	-1E+10	1	-1E+10	1
4902549	99	C	05/10/2023	22:58	-133.164	47.362	0	6.00	0	9.1360	0	32.3830	0	25.049	0	5.950	0	281.4	4	98.7	4	-1E+10	1	-1E+10	1	-1E+10	1	-1E+10	1	-1E+10	1	-1E+10	1
4902549	99	C	05/10/2023	22:58	-133.164	47.362	0	7.10	0	9.1350	0	32.3840	0	25.050	0	7.041	0	281.5	4	98.7	4	-1E+10	1	-1E+10	1	-1E+10	1	-1E+10	1	-1E+10	1	-1E+10	1
4902549	99	C	05/10/2023	22:58	-133.164	47.362	0	8.30	0	9.1180	0	32.3890	0	25.056	0	8.231	0	281.5	4	98.7	4	-1E+10	1	-1E+10	1	-1E+10	1	-1E+10	1	-1E+10	1	-1E+10	1
4902549	99	C	05/10/2023	22:58	-133.164	47.362	0	9.20	0	9.1590	0	32.3810	0	25.044	0	9.123	0	281.5	4	98.8	4	-1E+10	1	-1E+10	1	-1E+10	1	-1E+10	1	-1E+10	1	-1E+10	1
4902549	99	C	05/10/2023	22:58	-133.164	47.362	0	10.00	0	9.1050	0	32.3780	0	25.050	0	9.916	0	281.9	4	98.8	4	-1E+10	1	-1E+10	1	-1E+10	1	-1E+10	1	-1E+10	1	-1E+10	1
4902549	99	C	05/10/2023	22:58	-133.164	47.362	0	10.70	0	9.1050	0	32.3790	0	25.050	0	10.611	0	281.8	4	98.8	4	-1E+10	1	-1E+10	1	-1E+10	1	-1E+10	1	-1E+10	1	-1E+10	1
4902549	99	C	05/10/2023	22:58	-133.164	47.362	0	11.70	0	9.0820	0	32.3890	0	25.062	0	11.602	0	281.9	4	98.8	4	-1E+10	1	-1E+10	1	-1E+10	1	-1E+10	1	-1E+10	1	-1E+10	1
4902549	99	C	05/10/2023	22:58	-133.164	47.362	0	12.90	0	9.0640	0	32.3850	0	25.062	0	12.792	0	282.1	4	98.8	4	-1E+10	1	-1E+10	1	-1E+10	1	-1E+10	1	-1E+10	1	-1E+10	1
4902549	99	C	05/10/2023	22:58	-133.164	47.362	0	14.30	0	9.0330	0	32.3810	0	25.063	0	14.180	0	282.4	4	98.8	4	-1E+10	1	-1E+10	1	-1E+10	1	-1E+10	1	-1E+10	1	-1E+10	1
4902549	99	C	05/10/2023	22:58	-133.164	47.362	0	15.00	0	9.0010	0	32.3830	0	25.070	0	14.874	0	282.5	4	98.8	4	-1E+10	1	-1E+10	1	-1E+10	1	-1E+10	1	-1E+10	1	-1E+10	1
4902549	99	C	05/10/2023	22:58	-133.164	47.362	0	16.10	0	8.9530	0	32.3910	0	25.084	0	15.965	0	282.8	4	98.8	4	-1E+10	1	-1E+10	1	-1E+10	1	-1E+10	1	-1E+10	1	-1E+10	1
4902549	99	C	05/10/2023	22:58	-133.164	47.362	0	17.10	0	8.8800	0	32.3840	0	25.089	0	16.957	0	283.2	4	98.8	4	-1E+10	1	-1E+10	1	-1E+10	1	-1E+10	1	-1E+10	1	-1E+10	1
4902549	99	C	05/10/2023	22:58	-133.164	47.362	0	17.80	0	8.8860	0	32.3830	0	25.088	0	17.651	0	283.1	4	98.7	4	-1E+10	1	-1E+10	1	-1E+10	1	-1E+10	1	-1E+10	1	-1E+10	1
4902549	99	C	05/10/2023	22:58	-133.164	47.362	0	18.90	0	8.8690	0	32.3840	0	25.091	0	18.742	0	283.2	4	98.7	4	-1E+10	1	-1E+10	1	-1E+10	1	-1E+10	1	-1E+10	1	-1E+10	1
4902549	99	C	05/10/2023	22:58	-133.164	47.362	0	19.90	0	8.8300	0	32.3820	0	25.095	0	19.733	0	283.4	4	98.7	4	-1E+10	1	-1E+10	1	-1E+10	1	-1E+10	1	-1E+10	1	-1E+10	1
4902549	99	C	05/10/2023	22:58	-133.164	47.362	0	21.10	0	8.8050	0	32.3830	0	25.100	0	20.923	0	283.5	4	98.7	4	-1E+10	1	-1E+10	1	-1E+10	1	-1E+10	1	-1E+10	1	-1E+10	1
4902549	99	C	05/10/2023	22:58	-133.164	47.362	0	21.90	0	8.7850	0	32.3840	0	25.104	0	21.716	0	283.7	4	98.7	4	-1E+10	1	-1E+10	1	-1E+10	1	-1E+10	1	-1E+10	1	-1E+10	1
4902549	99	C	05/10/2023	22:58	-133.164	47.362	0	23.10	0	8.7690	0	32.3820	0	25.105	0	22.906	0	283.7	4	98.7	4	-1E+10	1	-1E+10	1	-1E+10	1	-1E+10	1	-1E+10	1	-1E+10	1
4902549	99	C	05/10/2023	22:58	-133.164	47.362	0	23.90	0	8.7050	0	32.3890	0	25.120	0	23.699	0	284.0	4	98.6	4	-1E+10	1	-1E+10	1	-1E+10	1	-1E+10	1	-1E+10	1	-1E+10	1
4902549	99	C	05/10/2023	22:58	-133.164	47.362	0	25.20	0	8.6620	0	32.3850	0	25.123	0	24.988	0	284.0	4	98.6	4	-1E+10	1	-1E+10	1	-1E+10	1	-1E+10	1	-1E+10	1	-1E+10	1
4902549	99	C	05/10/2023	22:58	-133.164	47.362	0	25.90	0	8.6390	0	32.3860	0	25.128	0	25.683	0	283.9	4	98.5	4	-1E+10	1	-1E+10	1	-1E+10	1	-1E+10	1	-1E+10	1	-1E+10	1
4902549	99	C	05/10/2023	22:58	-133.164	47.362	0	26.80	0	8.6220	0	32.3870	0	25.131	0	26.575	0	283.8	4	98.4	4	-1E+10	1	-1E+10	1	-1E+10	1	-1E+10	1	-1E+10	1	-1E+10	1
4902549	99	C	05/10/2023	22:58	-133.164	47.362	0	27.90	0	8.5990	0	32.3880	0	25.135	0	27.666	0	283.5	4	98.2	4	-1E+10	1	-1E+10	1	-1E+10	1	-1E+10	1	-1E+10	1	-1E+10	1
4902549	99	C	05/10/2023	22:58	-133.164	47.362	0	29.30	0	8.5760	0	32.3880	0	25.139	0	29.054	0	283.0	4	98.0	4	-1E+10	1	-1E+10	1	-1E+10	1	-1E+10	1	-1E+10	1	-1E+10	1
4902549	99	C	05/10/2023	22:58	-133.164	47.362	0	30.10	0	8.5710	0	32.3880	0	25.140	0	29.847	0	282.6	4	97.9	4	-1E+10	1	-1E+10	1	-1E+10	1	-1E+10	1	-1E+10	1	-1E+10	1
4902549	99	C	05/10/2023	22:58	-133.164	47.362	0	31.10	0	8.5650	0	32.3870	0	25.140	0	30.839	0	281.9	4	97.6	4	-1E+10	1	-1E+10	1	-1E+10	1	-1E+10	1	-1E+10	1	-1E+10	1
4902549	99	C	05/10/2023	22:58	-133.164	47.362	0	32.20	0	8.5470	0	32.3860	0	25.142	0	31.929	0	281.3	4	97.4	4	-1E+10	1	-1E+10	1	-1E+10	1	-1E+10	1	-1E+10	1	-1E+10	1
4902549	99	C	05/10/2023	22:58	-133.164	47.362	0	33.00	0	8.5370	0	32.3870	0	25.144	0	32.722	0	280.9	4	97.2	4	-1E+10	1	-1E+10	1	-1E+10	1	-1E+10	1	-1E+10	1	-1E+10	1
4902549	99	C	05/10/2023	22:58	-133.164	47.362	0	34.10	0	8.5270	0	32.3850	0	25.144	0	33.813	0	280.3	4	97.0	4	-1E+10	1	-1E+10	1	-1E+10	1	-1E+10	1	-1E+10	1	-1E+10	1
4902549	99	C	05/10/2023	22:58	-133.164	47.362	0	34.90	0	8.5110	0	32.3860	0	25.147	0	34.606	0	280.0	4	96.8	4	-1E+10	1	-1E+10	1	-1E+10	1	-1E+10	1	-1E+10	1	-1E+10	1
4902549	99	C	05/10/2023	22:58	-133.164	47.362	0	36.00	0	8.4930	0	32.3860	0	25.150	0	35.697	0	279.4	4	96.6	4	-1E+10	1	-1E+10	1	-1E+10	1	-1E+10	1	-1E+10	1	-1E+10	1
4902549	99	C	05/10/2023	22:58	-133.164	47.362	0	37.10	0	8.4880	0	32.3850	0	25.150	0	36.788	0	278.4	4	96.3	4	-1E+10	1	-1E+10	1	-1E+10	1	-1E+10	1	-1E+10	1	-1E+10	1
4902549	99	C	05/10/2023	22:58	-133.164	47.362	0	37.80	0	8.4480	0	32.3840	0	25.155	0	37.482	0	278.1	4	96.1	4	-1E+10	1	-1E+10	1	-1E+10	1	-1E+10	1	-1E+10	1	-1E+10	1
4902549	99	C	05/10/2023	22:58	-133.164	47.362	0	39.00	0	8.3390	0	32.3870	0	25.174	0	38.671	0	277.7	4	95.7	4	-1E+10	1	-1E+10	1	-1E+10	1	-1E+10	1	-1E+10	1	-1E+10	1
4902549	99	C	05/10/2023	22:58	-133.164	47.362	0	40.20	0	8.2540	0	32.3920	0	25.190	0	39.861	0	277.3	4	95.4	4	-1E+10	1	-1E+10	1	-1E+10	1	-1E+10	1	-1E+10	1	-1E+10	1
4902549	99	C	05/10/2023	22:58	-133.164	47.362	0	40.80	0	8.2200	0	32.3860	0	25.190	0	40.456	0	277.1	4	95.2	4	-1E+10	1	-1E+10	1	-1E+10	1	-1E+10	1	-1E+10	1	-1E+10	1
4902549	99	C	05/10/2023	22:58	-133.164	47.362	0	41.90	0	8.1880	0	32.3870	0	25.196	0	41.547	0	276.6	4	95.0	4	-1E+10	1	-1E+10	1	-1E+10	1	-1E+10	1	-1E+10	1	-1E+10	1
4902549	99	C	05/10/2023	22:58	-133.164	47.362	0	43.10	0	8.1430	0	32.3920	0	25.206	0	42.736	0	276.0	4	94.7	4	-1E+10	1	-1E+10	1	-1E+10	1	-1E+10	1	-1E+10	1	-1E+10	1
4902549	99	C	05/10/2023	22:58	-133.164	47.362	0	44.10	0	8.1060	0	32.3890	0	25.209	0	43.728	0	275.8	4	94.5	4	-1E+10	1	-1E+10	1	-1E+10	1	-1E+10	1	-1E+10	1	-1E+10	1
4902549	99	C	05/10/2023	22:58	-133.164	47.362	0	44.90	0	8.0250	0	32.3910	0	25.223	0	44.521	0	276.0	4	94.4	4	-1E+10	1	-1E+10	1	-1E+10	1	-1E+10	1	-1E+10	1	-1E+10	1
4902549	99	C	05/10/2023	22:58	-133.164	47.362	0	45.70	0	8.0000	0	32.3880	0	25.224	0	45.314	0	276.1	4	94.4	4	-1E+10	1	-1E+10	1	-1E+10	1	-1E+10	1	-1E+10	1	-1E+10	1
4902549	99	C	05/10/2023	22:58	-133.164	47.362	0	46.80	0	7.9850	0	32.3890	0	25.227	0	46.405	0	276.0	4	94.4	4	-1E+10	1	-1E+10	1	-1E+10	1	-1E+10	1	-1E+10	1	-1E+10	1
4902549	99	C	05/10/2023	22:58	-133.164	47.362	0	47.90	0	7.9820	0	32.3890	0	25.227	0	47.495	0	275.8	4	94.3	4	-1E+10	1	-1E+10	1	-1E+10	1	-1E+10	1	-1E+10	1	-1E+10	1
4902549	99	C	05/10/2023	22:58	-133.164	47.362	0	49.00	0	7.9800	0	32.3900	0	25.228	0	48.586	0	275.7	4	94.2	4	-1E+10	1	-1E+10	1	-1E+10	1	-1E+10	1	-1E+10	1	-1E+10	1
4902549	99	C	05/10/2023	22:58	-133.164	47.362	0	50.10	0	7.9770	0	32.3890	0	25.228	0	49.676	0	275.6	4	94.2	4	-1E+10	1	-1E+10	1	-1E+10	1	-1E+10	1	-1E+10	1	-1E+10	1
4902549	99	C	05/10/2023	22:58	-133.164	47.362	0	50.90	0	7.9790	0	32.3890	0	25.228	0	50.470	0	275.5	4	94.2	4	-1E+10	1	-1E+10	1	-1E+10	1	-1E+10	1	-1E+10	1	-1E+10	1
4902549	99	C	05/10/2023	22:58	-133.164	47.362	0	51.70	0	7.9680	0	32.3900	0	25.230	0	51.263	0	275.4	4	94.1	4	-1E+10	1	-1E+10	1	-1E+10	1	-1E+10	1	-1E+10	1	-1E+10	1
4902549	99	C	05/10/2023	22:58	-133.164	47.362	0	52.80	0	7.9650	0	32.3900	0	25.231	0	52.353	0	275.3	4	94.1	4	-1E+10	1	-1E+10	1	-1E+10	1	-1E+10	1	-1E+10	1	-1E+10	1
4902549	99	C	05/10/2023	22:58	-133.164	47.362	0	53.90	0	7.9640	0	32.3890	0	25.230	0	53.444	0	275.3	4	94.1	4	-1E+10	1	-1E+10	1	-1E+10	1	-1E+10	1	-1E+10	1	-1E+10	1
4902549	99	C	05/10/2023	22:58	-133.164	47.362	0	55.00	0	7.9640	0	32.3900	0	25.231	0	54.534	0	275.1	4	94.0	4	-1E+10	1	-1E+10	1	-1E+10	1	-1E+10	1	-1E+10	1	-1E+10	1
4902549	99	C	05/10/2023	22:58	-133.164	47.362	0	56.10	0	7.9640	0	32.3900	0	25.231	0	55.625	0	274.9	4	93.9	4	-1E+10	1	-1E+10	1	-1E+10	1	-1E+10	1	-1E+10	1	-1E+10	1
4902549	99	C	05/10/2023	22:58	-133.164	47.362	0	57.00	0	7.9620	0	32.3910	0	25.232	0	56.517	0	274.6	4	93.8	4	-1E+10	1	-1E+10	1	-1E+10	1	-1E+10	1	-1E+10	1	-1E+10	1
4902549	99	C	05/10/2023	22:58	-133.164	47.362	0	57.70	0	7.9580	0	32.3900	0	25.232	0	57.211	0	274.7	4	93.9	4	-1E+10	1	-1E+10	1	-1E+10	1	-1E+10	1	-1E+10	1	-1E+10	1
4902549	99	C	05/10/2023	22:58	-133.164	47.362	0	58.80	0	7.9570	0	32.3890	0	25.231	0	58.302	0	274.6	4	93.8	4	-1E+10	1	-1E+10	1	-1E+10	1	-1E+10	1	-1E+10	1	-1E+10	1
4902549	99	C	05/10/2023	22:58	-133.164	47.362	0	59.80	0	7.9570	0	32.3910	0	25.233	0	59.293	0	274.4	4	93.7	4	-1E+10	1	-1E+10	1	-1E+10	1	-1E+10	1	-1E+10	1	-1E+10	1
4902549	99	C	05/10/2023	22:58	-133.164	47.362	0	60.90	0	7.9550	0	32.3900	0	25.232	0	60.384	0	274.2	4	93.7	4	-1E+10	1	-1E+10	1	-1E+10	1	-1E+10	1	-1E+10	1	-1E+10	1
4902549	99	C	05/10/2023	22:58	-133.164	47.362	0	61.90	0	7.9540	0	32.3900	0	25.232	0	61.375	0	274.1	4	93.6	4	-1E+10	1	-1E+10	1	-1E+10	1	-1E+10	1	-1E+10	1	-1E+10	1
4902549	99	C	05/10/2023	22:58	-133.164	47.362	0	62.90	0	7.9510	0	32.3900	0	25.233	0	62.366	0	273.9	4	93.6	4	-1E+10	1	-1E+10	1	-1E+10	1	-1E+10	1	-1E+10	1	-1E+10	1
4902549	99	C	05/10/2023	22:58	-133.164	47.362	0	64.10	0	7.9440	0	32.3910	0	25.235	0	63.556	0	273.8	4	93.5	4	-1E+10	1	-1E+10	1	-1E+10	1	-1E+10	1	-1E+10	1	-1E+10	1
4902549	99	C	05/10/2023	22:58	-133.164	47.362	0	64.80	0	7.9380	0	32.3910	0	25.235	0	64.250	0	273.8	4	93.5	4	-1E+10	1	-1E+10	1	-1E+10	1	-1E+10	1	-1E+10	1	-1E+10	1
4902549	99	C	05/10/2023	22:58	-133.164	47.362	0	65.80	0	7.9330	0	32.3920	0	25.237	0	65.241	0	273.7	4	93.5	4	-1E+10	1	-1E+10	1	-1E+10	1	-1E+10	1	-1E+10	1	-1E+10	1
4902549	99	C	05/10/2023	22:58	-133.164	47.362	0	66.90	0	7.9290	0	32.3920	0	25.238	0	66.332	0	273.5	4	93.4	4	-1E+10	1	-1E+10	1	-1E+10	1	-1E+10	1	-1E+10	1	-1E+10	1
4902549	99	C	05/10/2023	22:58	-133.164	47.362	0	68.00	0	7.9160	0	32.3940	0	25.241	0	67.422	0	273.6	4	93.4	4	-1E+10	1	-1E+10	1	-1E+10	1	-1E+10	1	-1E+10	1	-1E+10	1
4902549	99	C	05/10/2023	22:58	-133.164	47.362	0	68.90	0	7.9020	0	32.3960	0	25.245	0	68.314	0	273.7	4	93.4	4	-1E+10	1	-1E+10	1	-1E+10	1	-1E+10	1	-1E+10	1	-1E+10	1
4902549	99	C	05/10/2023	22:58	-133.164	47.362	0	70.10	0	7.8960	0	32.4000	0	25.249	0	69.504	0	274.0	4	93.5	4	-1E+10	1	-1E+10	1	-1E+10	1	-1E+10	1	-1E+10	1	-1E+10	1
4902549	99	C	05/10/2023	22:58	-133.164	47.362	0	70.80	0	7.8970	0	32.4020	0	25.250	0	70.198	0	274.1	4	93.5	4	-1E+10	1	-1E+10	1	-1E+10	1	-1E+10	1	-1E+10	1	-1E+10	1
4902549	99	C	05/10/2023	22:58	-133.164	47.362	0	71.70	0	7.8980	0	32.4070	0	25.254	0	71.090	0	274.1	4	93.5	4	-1E+10	1	-1E+10	1	-1E+10	1	-1E+10	1	-1E+10	1	-1E+10	1
4902549	99	C	05/10/2023	22:58	-133.164	47.362	0	73.10	0	7.8930	0	32.4100	0	25.257	0	72.478	0	274.2	4	93.6	4	-1E+10	1	-1E+10	1	-1E+10	1	-1E+10	1	-1E+10	1	-1E+10	1
4902549	99	C	05/10/2023	22:58	-133.164	47.362	0	74.30	0	7.8910	0	32.4130	0	25.260	0	73.668	0	274.1	4	93.5	4	-1E+10	1	-1E+10	1	-1E+10	1	-1E+10	1	-1E+10	1	-1E+10	1
4902549	99	C	05/10/2023	22:58	-133.164	47.362	0	75.00	0	7.8910	0	32.4130	0	25.260	0	74.361	0	274.1	4	93.5	4	-1E+10	1	-1E+10	1	-1E+10	1	-1E+10	1	-1E+10	1	-1E+10	1
4902549	99	C	05/10/2023	22:58	-133.164	47.362	0	75.90	0	7.8770	0	32.4160	0	25.264	0	75.254	0	274.2	4	93.5	4	-1E+10	1	-1E+10	1	-1E+10	1	-1E+10	1	-1E+10	1	-1E+10	1
4902549	99	C	05/10/2023	22:58	-133.164	47.362	0	76.90	0	7.8340	0	32.4160	0	25.270	0	76.245	0	274.8	4	93.7	4	-1E+10	1	-1E+10	1	-1E+10	1	-1E+10	1	-1E+10	1	-1E+10	1
4902549	99	C	05/10/2023	22:58	-133.164	47.362	0	77.90	0	7.8350	0	32.4180	0	25.272	0	77.236	0	274.9	4	93.7	4	-1E+10	1	-1E+10	1	-1E+10	1	-1E+10	1	-1E+10	1	-1E+10	1
4902549	99	C	05/10/2023	22:58	-133.164	47.362	0	78.90	0	7.8280	0	32.4190	0	25.273	0	78.228	0	275.0	4	93.7	4	-1E+10	1	-1E+10	1	-1E+10	1	-1E+10	1	-1E+10	1	-1E+10	1
4902549	99	C	05/10/2023	22:58	-133.164	47.362	0	80.00	0	7.8120	0	32.4200	0	25.276	0	79.318	0	275.1	4	93.7	4	-1E+10	1	-1E+10	1	-1E+10	1	-1E+10	1	-1E+10	1	-1E+10	1
4902549	99	C	05/10/2023	22:58	-133.164	47.362	0	81.00	0	7.8040	0	32.4200	0	25.278	0	80.309	0	275.2	4	93.7	4	-1E+10	1	-1E+10	1	-1E+10	1	-1E+10	1	-1E+10	1	-1E+10	1
4902549	99	C	05/10/2023	22:58	-133.164	47.362	0	82.10	0	7.8000	0	32.4200	0	25.278	0	81.400	0	275.3	4	93.7	4	-1E+10	1	-1E+10	1	-1E+10	1	-1E+10	1	-1E+10	1	-1E+10	1
4902549	99	C	05/10/2023	22:58	-133.164	47.362	0	83.10	0	7.7570	0	32.4220	0	25.286	0	82.391	0	275.5	4	93.7	4	-1E+10	1	-1E+10	1	-1E+10	1	-1E+10	1	-1E+10	1	-1E+10	1
4902549	99	C	05/10/2023	22:58	-133.164	47.362	0	84.00	0	7.7320	0	32.4230	0	25.290	0	83.283	0	282.4	4	96.0	4	-1E+10	1	-1E+10	1	-1E+10	1	-1E+10	1	-1E+10	1	-1E+10	1
4902549	99	C	05/10/2023	22:58	-133.164	47.362	0	84.80	0	7.7050	0	32.4210	0	25.292	0	84.076	0	282.6	4	96.0	4	-1E+10	1	-1E+10	1	-1E+10	1	-1E+10	1	-1E+10	1	-1E+10	1
4902549	99	C	05/10/2023	22:58	-133.164	47.362	0	86.00	0	7.6890	0	32.4210	0	25.295	0	85.266	0	282.3	4	95.9	4	-1E+10	1	-1E+10	1	-1E+10	1	-1E+10	1	-1E+10	1	-1E+10	1
4902549	99	C	05/10/2023	22:58	-133.164	47.362	0	87.10	0	7.6350	0	32.4200	0	25.301	0	86.356	0	282.4	4	95.8	4	-1E+10	1	-1E+10	1	-1E+10	1	-1E+10	1	-1E+10	1	-1E+10	1
4902549	99	C	05/10/2023	22:58	-133.164	47.362	0	88.00	0	7.6680	0	32.4240	0	25.300	0	87.248	0	282.0	4	95.8	4	-1E+10	1	-1E+10	1	-1E+10	1	-1E+10	1	-1E+10	1	-1E+10	1
4902549	99	C	05/10/2023	22:58	-133.164	47.362	0	88.90	0	7.6640	0	32.4260	0	25.302	0	88.140	0	282.0	4	95.7	4	-1E+10	1	-1E+10	1	-1E+10	1	-1E+10	1	-1E+10	1	-1E+10	1
4902549	99	C	05/10/2023	22:58	-133.164	47.362	0	90.10	0	7.6620	0	32.4260	0	25.302	0	89.330	0	281.9	4	95.7	4	-1E+10	1	-1E+10	1	-1E+10	1	-1E+10	1	-1E+10	1	-1E+10	1
4902549	99	C	05/10/2023	22:58	-133.164	47.362	0	91.10	0	7.6620	0	32.4260	0	25.302	0	90.321	0	281.8	4	95.7	4	-1E+10	1	-1E+10	1	-1E+10	1	-1E+10	1	-1E+10	1	-1E+10	1
4902549	99	C	05/10/2023	22:58	-133.164	47.362	0	92.00	0	7.6610	0	32.4260	0	25.303	0	91.213	0	281.7	4	95.6	4	-1E+10	1	-1E+10	1	-1E+10	1	-1E+10	1	-1E+10	1	-1E+10	1
4902549	99	C	05/10/2023	22:58	-133.164	47.362	0	92.90	0	7.6580	0	32.4250	0	25.302	0	92.105	0	281.4	4	95.5	4	-1E+10	1	-1E+10	1	-1E+10	1	-1E+10	1	-1E+10	1	-1E+10	1
4902549	99	C	05/10/2023	22:58	-133.164	47.362	0	93.80	0	7.6240	0	32.4260	0	25.308	0	92.997	0	281.4	4	95.4	4	-1E+10	1	-1E+10	1	-1E+10	1	-1E+10	1	-1E+10	1	-1E+10	1
4902549	99	C	05/10/2023	22:58	-133.164	47.362	0	95.10	0	7.6180	0	32.4260	0	25.309	0	94.286	0	281.1	4	95.3	4	-1E+10	1	-1E+10	1	-1E+10	1	-1E+10	1	-1E+10	1	-1E+10	1
4902549	99	C	05/10/2023	22:58	-133.164	47.362	0	96.00	0	7.6060	0	32.4260	0	25.310	0	95.178	0	280.6	4	95.2	4	-1E+10	1	-1E+10	1	-1E+10	1	-1E+10	1	-1E+10	1	-1E+10	1
4902549	99	C	05/10/2023	22:58	-133.164	47.362	0	96.90	0	7.5880	0	32.4280	0	25.314	0	96.070	0	280.5	4	95.1	4	-1E+10	1	-1E+10	1	-1E+10	1	-1E+10	1	-1E+10	1	-1E+10	1
4902549	99	C	05/10/2023	22:58	-133.164	47.362	0	97.90	0	7.5800	0	32.4280	0	25.316	0	97.061	0	280.2	4	94.9	4	-1E+10	1	-1E+10	1	-1E+10	1	-1E+10	1	-1E+10	1	-1E+10	1
4902549	99	C	05/10/2023	22:58	-133.164	47.362	0	98.80	0	7.5740	0	32.4270	0	25.316	0	97.953	0	279.8	4	94.8	4	-1E+10	1	-1E+10	1	-1E+10	1	-1E+10	1	-1E+10	1	-1E+10	1
4902549	99	C	05/10/2023	22:58	-133.164	47.362	0	100.00	0	7.5640	0	32.4260	0	25.316	0	99.143	0	279.3	4	94.6	4	-1E+10	1	-1E+10	1	-1E+10	1	-1E+10	1	-1E+10	1	-1E+10	1
4902549	99	C	05/10/2023	22:58	-133.164	47.362	0	100.90	0	7.5580	0	32.4260	0	25.317	0	100.035	0	279.0	4	94.5	4	-1E+10	1	-1E+10	1	-1E+10	1	-1E+10	1	-1E+10	1	-1E+10	1
4902549	99	C	05/10/2023	22:58	-133.164	47.362	0	101.90	0	7.5550	0	32.4250	0	25.317	0	101.026	0	278.5	4	94.3	4	-1E+10	1	-1E+10	1	-1E+10	1	-1E+10	1	-1E+10	1	-1E+10	1
4902549	99	C	05/10/2023	22:58	-133.164	47.362	0	103.10	0	7.5540	0	32.4260	0	25.318	0	102.215	0	277.8	4	94.1	4	-1E+10	1	-1E+10	1	-1E+10	1	-1E+10	1	-1E+10	1	-1E+10	1
4902549	99	C	05/10/2023	22:58	-133.164	47.362	0	104.00	0	7.5540	0	32.4270	0	25.318	0	103.107	0	277.4	4	93.9	4	-1E+10	1	-1E+10	1	-1E+10	1	-1E+10	1	-1E+10	1	-1E+10	1
4902549	99	C	05/10/2023	22:58	-133.164	47.362	0	104.90	0	7.5500	0	32.4260	0	25.318	0	103.999	0	276.6	4	93.7	4	-1E+10	1	-1E+10	1	-1E+10	1	-1E+10	1	-1E+10	1	-1E+10	1
4902549	99	C	05/10/2023	22:58	-133.164	47.362	0	106.00	0	7.5470	0	32.4270	0	25.319	0	105.090	0	275.7	4	93.4	4	-1E+10	1	-1E+10	1	-1E+10	1	-1E+10	1	-1E+10	1	-1E+10	1
4902549	99	C	05/10/2023	22:58	-133.164	47.362	0	106.90	0	7.5440	0	32.4270	0	25.320	0	105.982	0	274.7	4	93.0	4	-1E+10	1	-1E+10	1	-1E+10	1	-1E+10	1	-1E+10	1	-1E+10	1
4902549	99	C	05/10/2023	22:58	-133.164	47.362	0	107.80	0	7.5410	0	32.4270	0	25.320	0	106.874	0	273.8	4	92.7	4	-1E+10	1	-1E+10	1	-1E+10	1	-1E+10	1	-1E+10	1	-1E+10	1
4902549	99	C	05/10/2023	22:58	-133.164	47.362	0	108.90	0	7.5380	0	32.4270	0	25.321	0	107.964	0	272.1	4	92.1	4	-1E+10	1	-1E+10	1	-1E+10	1	-1E+10	1	-1E+10	1	-1E+10	1
4902549	99	C	05/10/2023	22:58	-133.164	47.362	0	109.90	0	7.5430	0	32.4280	0	25.321	0	108.955	0	270.1	4	91.5	4	-1E+10	1	-1E+10	1	-1E+10	1	-1E+10	1	-1E+10	1	-1E+10	1
4902549	99	C	05/10/2023	22:58	-133.164	47.362	0	111.10	0	7.5370	0	32.4320	0	25.325	0	110.145	0	267.5	4	90.5	4	-1E+10	1	-1E+10	1	-1E+10	1	-1E+10	1	-1E+10	1	-1E+10	1
4902549	99	C	05/10/2023	22:58	-133.164	47.362	0	112.00	0	7.5300	0	32.4380	0	25.331	0	111.037	0	263.9	4	89.3	4	-1E+10	1	-1E+10	1	-1E+10	1	-1E+10	1	-1E+10	1	-1E+10	1
4902549	99	C	05/10/2023	22:58	-133.164	47.362	0	113.00	0	7.5070	0	32.4540	0	25.346	0	112.028	0	258.4	4	87.4	4	-1E+10	1	-1E+10	1	-1E+10	1	-1E+10	1	-1E+10	1	-1E+10	1
4902549	99	C	05/10/2023	22:58	-133.164	47.362	0	114.00	0	7.4690	0	32.4800	0	25.372	0	113.019	0	252.6	4	85.4	4	-1E+10	1	-1E+10	1	-1E+10	1	-1E+10	1	-1E+10	1	-1E+10	1
4902549	99	C	05/10/2023	22:58	-133.164	47.362	0	115.10	0	7.4430	0	32.5140	0	25.402	0	114.109	0	246.7	4	83.4	4	-1E+10	1	-1E+10	1	-1E+10	1	-1E+10	1	-1E+10	1	-1E+10	1
4902549	99	C	05/10/2023	22:58	-133.164	47.362	0	116.00	0	7.4270	0	32.5650	0	25.445	0	115.001	0	241.1	4	81.5	4	-1E+10	1	-1E+10	1	-1E+10	1	-1E+10	1	-1E+10	1	-1E+10	1
4902549	99	C	05/10/2023	22:58	-133.164	47.362	0	117.20	0	7.3310	0	32.6840	0	25.552	0	116.190	0	236.1	4	79.7	4	-1E+10	1	-1E+10	1	-1E+10	1	-1E+10	1	-1E+10	1	-1E+10	1
4902549	99	C	05/10/2023	22:58	-133.164	47.362	0	117.80	0	7.3290	0	32.6840	0	25.552	0	116.785	0	233.3	4	78.7	4	-1E+10	1	-1E+10	1	-1E+10	1	-1E+10	1	-1E+10	1	-1E+10	1
4902549	99	C	05/10/2023	22:58	-133.164	47.362	0	118.90	0	7.2530	0	32.7570	0	25.620	0	117.875	0	229.9	4	77.5	4	-1E+10	1	-1E+10	1	-1E+10	1	-1E+10	1	-1E+10	1	-1E+10	1
4902549	99	C	05/10/2023	22:58	-133.164	47.362	0	120.00	0	7.1650	0	32.8280	0	25.688	0	118.965	0	227.4	4	76.6	4	-1E+10	1	-1E+10	1	-1E+10	1	-1E+10	1	-1E+10	1	-1E+10	1
4902549	99	C	05/10/2023	22:58	-133.164	47.362	0	121.10	0	6.8730	0	32.9680	0	25.837	0	120.056	0	226.0	4	75.7	4	-1E+10	1	-1E+10	1	-1E+10	1	-1E+10	1	-1E+10	1	-1E+10	1
4902549	99	C	05/10/2023	22:58	-133.164	47.362	0	121.80	0	6.7170	0	33.0100	0	25.891	0	120.749	0	225.6	4	75.3	4	-1E+10	1	-1E+10	1	-1E+10	1	-1E+10	1	-1E+10	1	-1E+10	1
4902549	99	C	05/10/2023	22:58	-133.164	47.362	0	122.80	0	6.6840	0	33.0340	0	25.914	0	121.740	0	223.3	4	74.5	4	-1E+10	1	-1E+10	1	-1E+10	1	-1E+10	1	-1E+10	1	-1E+10	1
4902549	99	C	05/10/2023	22:58	-133.164	47.362	0	124.00	0	6.6280	0	33.0940	0	25.969	0	122.930	0	221.4	4	73.8	4	-1E+10	1	-1E+10	1	-1E+10	1	-1E+10	1	-1E+10	1	-1E+10	1
4902549	99	C	05/10/2023	22:58	-133.164	47.362	0	124.90	0	6.6080	0	33.1520	0	26.017	0	123.822	0	220.2	4	73.4	4	-1E+10	1	-1E+10	1	-1E+10	1	-1E+10	1	-1E+10	1	-1E+10	1
4902549	99	C	05/10/2023	22:58	-133.164	47.362	0	125.70	0	6.5950	0	33.1730	0	26.035	0	124.615	0	219.1	4	73.0	4	-1E+10	1	-1E+10	1	-1E+10	1	-1E+10	1	-1E+10	1	-1E+10	1
4902549	99	C	05/10/2023	22:58	-133.164	47.362	0	126.60	0	6.5980	0	33.2140	0	26.067	0	125.506	0	218.1	4	72.7	4	-1E+10	1	-1E+10	1	-1E+10	1	-1E+10	1	-1E+10	1	-1E+10	1
4902549	99	C	05/10/2023	22:58	-133.164	47.362	0	127.90	0	6.6350	0	33.2340	0	26.078	0	126.795	0	216.6	4	72.2	4	-1E+10	1	-1E+10	1	-1E+10	1	-1E+10	1	-1E+10	1	-1E+10	1
4902549	99	C	05/10/2023	22:58	-133.164	47.362	0	129.30	0	6.6510	0	33.2370	0	26.078	0	128.182	0	215.1	4	71.8	4	-1E+10	1	-1E+10	1	-1E+10	1	-1E+10	1	-1E+10	1	-1E+10	1
4902549	99	C	05/10/2023	22:58	-133.164	47.362	0	130.10	0	6.6550	0	33.2380	0	26.079	0	128.975	0	214.0	4	71.4	4	-1E+10	1	-1E+10	1	-1E+10	1	-1E+10	1	-1E+10	1	-1E+10	1
4902549	99	C	05/10/2023	22:58	-133.164	47.362	0	131.00	0	6.6570	0	33.2410	0	26.081	0	129.867	0	212.7	4	71.0	4	-1E+10	1	-1E+10	1	-1E+10	1	-1E+10	1	-1E+10	1	-1E+10	1
4902549	99	C	05/10/2023	22:58	-133.164	47.362	0	131.80	0	6.6370	0	33.2560	0	26.095	0	130.660	0	211.2	4	70.5	4	-1E+10	1	-1E+10	1	-1E+10	1	-1E+10	1	-1E+10	1	-1E+10	1
4902549	99	C	05/10/2023	22:58	-133.164	47.362	0	132.70	0	6.5460	0	33.2630	0	26.113	0	131.552	0	209.8	4	69.8	4	-1E+10	1	-1E+10	1	-1E+10	1	-1E+10	1	-1E+10	1	-1E+10	1
4902549	99	C	05/10/2023	22:58	-133.164	47.362	0	133.60	0	6.5960	0	33.2940	0	26.130	0	132.444	0	208.2	4	69.4	4	-1E+10	1	-1E+10	1	-1E+10	1	-1E+10	1	-1E+10	1	-1E+10	1
4902549	99	C	05/10/2023	22:58	-133.164	47.362	0	134.60	0	6.6500	0	33.3320	0	26.153	0	133.435	0	206.7	4	69.0	4	-1E+10	1	-1E+10	1	-1E+10	1	-1E+10	1	-1E+10	1	-1E+10	1
4902549	99	C	05/10/2023	22:58	-133.164	47.362	0	135.90	0	6.6580	0	33.3580	0	26.173	0	134.723	0	204.6	4	68.4	4	-1E+10	1	-1E+10	1	-1E+10	1	-1E+10	1	-1E+10	1	-1E+10	1
4902549	99	C	05/10/2023	22:58	-133.164	47.362	0	137.40	0	6.6490	0	33.4000	0	26.207	0	136.210	0	202.9	4	67.8	4	-1E+10	1	-1E+10	1	-1E+10	1	-1E+10	1	-1E+10	1	-1E+10	1
4902549	99	C	05/10/2023	22:58	-133.164	47.362	0	138.40	0	6.6950	0	33.4330	0	26.227	0	137.201	0	201.8	4	67.5	4	-1E+10	1	-1E+10	1	-1E+10	1	-1E+10	1	-1E+10	1	-1E+10	1
4902549	99	C	05/10/2023	22:58	-133.164	47.362	0	139.40	0	6.6880	0	33.4280	0	26.224	0	138.192	0	200.9	4	67.2	4	-1E+10	1	-1E+10	1	-1E+10	1	-1E+10	1	-1E+10	1	-1E+10	1
4902549	99	C	05/10/2023	22:58	-133.164	47.362	0	140.30	0	6.6590	0	33.4280	0	26.228	0	139.084	0	199.8	4	66.8	4	-1E+10	1	-1E+10	1	-1E+10	1	-1E+10	1	-1E+10	1	-1E+10	1
4902549	99	C	05/10/2023	22:58	-133.164	47.362	0	141.30	0	6.6660	0	33.4410	0	26.237	0	140.075	0	198.5	4	66.4	4	-1E+10	1	-1E+10	1	-1E+10	1	-1E+10	1	-1E+10	1	-1E+10	1
4902549	99	C	05/10/2023	22:58	-133.164	47.362	0	142.30	0	6.7070	0	33.4810	0	26.263	0	141.066	0	197.4	4	66.1	4	-1E+10	1	-1E+10	1	-1E+10	1	-1E+10	1	-1E+10	1	-1E+10	1
4902549	99	C	05/10/2023	22:58	-133.164	47.362	0	143.30	0	6.7090	0	33.4860	0	26.267	0	142.057	0	196.7	4	65.8	4	-1E+10	1	-1E+10	1	-1E+10	1	-1E+10	1	-1E+10	1	-1E+10	1
4902549	99	C	05/10/2023	22:58	-133.164	47.362	0	144.40	0	6.7670	0	33.5180	0	26.285	0	143.147	0	196.0	4	65.7	4	-1E+10	1	-1E+10	1	-1E+10	1	-1E+10	1	-1E+10	1	-1E+10	1
4902549	99	C	05/10/2023	22:58	-133.164	47.362	0	145.40	0	6.7790	0	33.5230	0	26.287	0	144.138	0	195.7	4	65.6	4	-1E+10	1	-1E+10	1	-1E+10	1	-1E+10	1	-1E+10	1	-1E+10	1
4902549	99	C	05/10/2023	22:58	-133.164	47.362	0	146.40	0	6.7830	0	33.5250	0	26.288	0	145.129	0	195.2	4	65.5	4	-1E+10	1	-1E+10	1	-1E+10	1	-1E+10	1	-1E+10	1	-1E+10	1
4902549	99	C	05/10/2023	22:58	-133.164	47.362	0	147.50	0	6.7810	0	33.5280	0	26.291	0	146.219	0	194.8	4	65.3	4	-1E+10	1	-1E+10	1	-1E+10	1	-1E+10	1	-1E+10	1	-1E+10	1
4902549	99	C	05/10/2023	22:58	-133.164	47.362	0	148.50	0	6.7820	0	33.5320	0	26.294	0	147.210	0	194.3	4	65.2	4	-1E+10	1	-1E+10	1	-1E+10	1	-1E+10	1	-1E+10	1	-1E+10	1
4902549	99	C	05/10/2023	22:58	-133.164	47.362	0	149.60	0	6.7760	0	33.5590	0	26.316	0	148.300	0	193.8	4	65.0	4	-1E+10	1	-1E+10	1	-1E+10	1	-1E+10	1	-1E+10	1	-1E+10	1
4902549	99	C	05/10/2023	22:58	-133.164	47.362	0	150.60	0	6.7590	0	33.5770	0	26.332	0	149.291	0	193.6	4	64.9	4	-1E+10	1	-1E+10	1	-1E+10	1	-1E+10	1	-1E+10	1	-1E+10	1
4902549	99	C	05/10/2023	22:58	-133.164	47.362	0	151.70	0	6.7550	0	33.5800	0	26.335	0	150.381	0	193.3	4	64.8	4	-1E+10	1	-1E+10	1	-1E+10	1	-1E+10	1	-1E+10	1	-1E+10	1
4902549	99	C	05/10/2023	22:58	-133.164	47.362	0	152.80	0	6.7430	0	33.5850	0	26.341	0	151.471	0	193.1	4	64.7	4	-1E+10	1	-1E+10	1	-1E+10	1	-1E+10	1	-1E+10	1	-1E+10	1
4902549	99	C	05/10/2023	22:58	-133.164	47.362	0	153.90	0	6.7380	0	33.5870	0	26.343	0	152.561	0	192.7	4	64.6	4	-1E+10	1	-1E+10	1	-1E+10	1	-1E+10	1	-1E+10	1	-1E+10	1
4902549	99	C	05/10/2023	22:58	-133.164	47.362	0	154.90	0	6.7360	0	33.5880	0	26.344	0	153.552	0	192.5	4	64.5	4	-1E+10	1	-1E+10	1	-1E+10	1	-1E+10	1	-1E+10	1	-1E+10	1
4902549	99	C	05/10/2023	22:58	-133.164	47.362	0	156.10	0	6.7340	0	33.5890	0	26.345	0	154.741	0	192.0	4	64.4	4	-1E+10	1	-1E+10	1	-1E+10	1	-1E+10	1	-1E+10	1	-1E+10	1
4902549	99	C	05/10/2023	22:58	-133.164	47.362	0	157.10	0	6.7350	0	33.5890	0	26.345	0	155.732	0	191.6	4	64.2	4	-1E+10	1	-1E+10	1	-1E+10	1	-1E+10	1	-1E+10	1	-1E+10	1
4902549	99	C	05/10/2023	22:58	-133.164	47.362	0	158.20	0	6.7290	0	33.5910	0	26.347	0	156.822	0	191.2	4	64.1	4	-1E+10	1	-1E+10	1	-1E+10	1	-1E+10	1	-1E+10	1	-1E+10	1
4902549	99	C	05/10/2023	22:58	-133.164	47.362	0	159.30	0	6.7160	0	33.5970	0	26.354	0	157.912	0	190.6	4	63.9	4	-1E+10	1	-1E+10	1	-1E+10	1	-1E+10	1	-1E+10	1	-1E+10	1
4902549	99	C	05/10/2023	22:58	-133.164	47.362	0	160.40	0	6.7100	0	33.6000	0	26.357	0	159.002	0	190.0	4	63.7	4	-1E+10	1	-1E+10	1	-1E+10	1	-1E+10	1	-1E+10	1	-1E+10	1
4902549	99	C	05/10/2023	22:58	-133.164	47.362	0	161.40	0	6.6940	0	33.6090	0	26.366	0	159.992	0	189.4	4	63.4	4	-1E+10	1	-1E+10	1	-1E+10	1	-1E+10	1	-1E+10	1	-1E+10	1
4902549	99	C	05/10/2023	22:58	-133.164	47.362	0	162.50	0	6.6870	0	33.6120	0	26.370	0	161.082	0	188.6	4	63.2	4	-1E+10	1	-1E+10	1	-1E+10	1	-1E+10	1	-1E+10	1	-1E+10	1
4902549	99	C	05/10/2023	22:58	-133.164	47.362	0	163.60	0	6.6810	0	33.6180	0	26.375	0	162.172	0	187.7	4	62.9	4	-1E+10	1	-1E+10	1	-1E+10	1	-1E+10	1	-1E+10	1	-1E+10	1
4902549	99	C	05/10/2023	22:58	-133.164	47.362	0	164.70	0	6.6800	0	33.6190	0	26.376	0	163.262	0	186.8	4	62.6	4	-1E+10	1	-1E+10	1	-1E+10	1	-1E+10	1	-1E+10	1	-1E+10	1
4902549	99	C	05/10/2023	22:58	-133.164	47.362	0	165.80	0	6.7040	0	33.6400	0	26.389	0	164.352	0	186.0	4	62.3	4	-1E+10	1	-1E+10	1	-1E+10	1	-1E+10	1	-1E+10	1	-1E+10	1
4902549	99	C	05/10/2023	22:58	-133.164	47.362	0	166.80	0	6.6960	0	33.6370	0	26.388	0	165.343	0	185.4	4	62.1	4	-1E+10	1	-1E+10	1	-1E+10	1	-1E+10	1	-1E+10	1	-1E+10	1
4902549	99	C	05/10/2023	22:58	-133.164	47.362	0	167.90	0	6.6890	0	33.6440	0	26.395	0	166.433	0	184.5	4	61.8	4	-1E+10	1	-1E+10	1	-1E+10	1	-1E+10	1	-1E+10	1	-1E+10	1
4902549	99	C	05/10/2023	22:58	-133.164	47.362	0	169.00	0	6.6540	0	33.6500	0	26.404	0	167.523	0	183.7	4	61.5	4	-1E+10	1	-1E+10	1	-1E+10	1	-1E+10	1	-1E+10	1	-1E+10	1
4902549	99	C	05/10/2023	22:58	-133.164	47.362	0	170.00	0	6.6400	0	33.6600	0	26.414	0	168.514	0	183.0	4	61.2	4	-1E+10	1	-1E+10	1	-1E+10	1	-1E+10	1	-1E+10	1	-1E+10	1
4902549	99	C	05/10/2023	22:58	-133.164	47.362	0	171.10	0	6.6300	0	33.6690	0	26.422	0	169.604	0	182.2	4	61.0	4	-1E+10	1	-1E+10	1	-1E+10	1	-1E+10	1	-1E+10	1	-1E+10	1
4902549	99	C	05/10/2023	22:58	-133.164	47.362	0	172.20	0	6.6320	0	33.6700	0	26.423	0	170.694	0	181.3	4	60.7	4	-1E+10	1	-1E+10	1	-1E+10	1	-1E+10	1	-1E+10	1	-1E+10	1
4902549	99	C	05/10/2023	22:58	-133.164	47.362	0	173.20	0	6.6340	0	33.6700	0	26.422	0	171.685	0	180.4	4	60.4	4	-1E+10	1	-1E+10	1	-1E+10	1	-1E+10	1	-1E+10	1	-1E+10	1
4902549	99	C	05/10/2023	22:58	-133.164	47.362	0	174.30	0	6.6280	0	33.6790	0	26.430	0	172.775	0	179.4	4	60.0	4	-1E+10	1	-1E+10	1	-1E+10	1	-1E+10	1	-1E+10	1	-1E+10	1
4902549	99	C	05/10/2023	22:58	-133.164	47.362	0	175.30	0	6.6210	0	33.6820	0	26.434	0	173.765	0	178.4	4	59.7	4	-1E+10	1	-1E+10	1	-1E+10	1	-1E+10	1	-1E+10	1	-1E+10	1
4902549	99	C	05/10/2023	22:58	-133.164	47.362	0	176.30	0	6.6180	0	33.6840	0	26.436	0	174.756	0	177.3	4	59.3	4	-1E+10	1	-1E+10	1	-1E+10	1	-1E+10	1	-1E+10	1	-1E+10	1
4902549	99	C	05/10/2023	22:58	-133.164	47.362	0	177.40	0	6.6100	0	33.6890	0	26.441	0	175.846	0	176.3	4	59.0	4	-1E+10	1	-1E+10	1	-1E+10	1	-1E+10	1	-1E+10	1	-1E+10	1
4902549	99	C	05/10/2023	22:58	-133.164	47.362	0	178.40	0	6.6150	0	33.6940	0	26.444	0	176.837	0	175.1	4	58.6	4	-1E+10	1	-1E+10	1	-1E+10	1	-1E+10	1	-1E+10	1	-1E+10	1
4902549	99	C	05/10/2023	22:58	-133.164	47.362	0	179.50	0	6.5960	0	33.6990	0	26.450	0	177.927	0	173.9	4	58.2	4	-1E+10	1	-1E+10	1	-1E+10	1	-1E+10	1	-1E+10	1	-1E+10	1
4902549	99	C	05/10/2023	22:58	-133.164	47.362	0	180.50	0	6.5680	0	33.6970	0	26.453	0	178.918	0	172.8	4	57.7	4	-1E+10	1	-1E+10	1	-1E+10	1	-1E+10	1	-1E+10	1	-1E+10	1
4902549	99	C	05/10/2023	22:58	-133.164	47.362	0	181.50	0	6.5090	0	33.7060	0	26.467	0	179.908	0	171.9	4	57.4	4	-1E+10	1	-1E+10	1	-1E+10	1	-1E+10	1	-1E+10	1	-1E+10	1
4902549	99	C	05/10/2023	22:58	-133.164	47.362	0	182.60	0	6.4780	0	33.7090	0	26.474	0	180.998	0	171.1	4	57.1	4	-1E+10	1	-1E+10	1	-1E+10	1	-1E+10	1	-1E+10	1	-1E+10	1
4902549	99	C	05/10/2023	22:58	-133.164	47.362	0	183.60	0	6.4770	0	33.7130	0	26.477	0	181.989	0	170.2	4	56.8	4	-1E+10	1	-1E+10	1	-1E+10	1	-1E+10	1	-1E+10	1	-1E+10	1
4902549	99	C	05/10/2023	22:58	-133.164	47.362	0	184.60	0	6.4920	0	33.7200	0	26.481	0	182.980	0	169.2	4	56.4	4	-1E+10	1	-1E+10	1	-1E+10	1	-1E+10	1	-1E+10	1	-1E+10	1
4902549	99	C	05/10/2023	22:58	-133.164	47.362	0	185.60	0	6.4690	0	33.7280	0	26.490	0	183.971	0	168.3	4	56.1	4	-1E+10	1	-1E+10	1	-1E+10	1	-1E+10	1	-1E+10	1	-1E+10	1
4902549	99	C	05/10/2023	22:58	-133.164	47.362	0	186.50	0	6.4560	0	33.7340	0	26.496	0	184.862	0	167.5	4	55.9	4	-1E+10	1	-1E+10	1	-1E+10	1	-1E+10	1	-1E+10	1	-1E+10	1
4902549	99	C	05/10/2023	22:58	-133.164	47.362	0	187.50	0	6.4520	0	33.7340	0	26.497	0	185.853	0	166.7	4	55.6	4	-1E+10	1	-1E+10	1	-1E+10	1	-1E+10	1	-1E+10	1	-1E+10	1
4902549	99	C	05/10/2023	22:58	-133.164	47.362	0	189.00	0	6.4300	0	33.7410	0	26.505	0	187.339	0	165.4	4	55.1	4	-1E+10	1	-1E+10	1	-1E+10	1	-1E+10	1	-1E+10	1	-1E+10	1
4902549	99	C	05/10/2023	22:58	-133.164	47.362	0	190.20	0	6.3980	0	33.7470	0	26.514	0	188.528	0	164.8	4	54.9	4	-1E+10	1	-1E+10	1	-1E+10	1	-1E+10	1	-1E+10	1	-1E+10	1
4902549	99	C	05/10/2023	22:58	-133.164	47.362	0	191.00	0	6.3920	0	33.7490	0	26.517	0	189.321	0	164.4	4	54.8	4	-1E+10	1	-1E+10	1	-1E+10	1	-1E+10	1	-1E+10	1	-1E+10	1
4902549	99	C	05/10/2023	22:58	-133.164	47.362	0	191.80	0	6.3860	0	33.7490	0	26.517	0	190.113	0	164.0	4	54.6	4	-1E+10	1	-1E+10	1	-1E+10	1	-1E+10	1	-1E+10	1	-1E+10	1
4902549	99	C	05/10/2023	22:58	-133.164	47.362	0	193.00	0	6.3800	0	33.7500	0	26.519	0	191.302	0	163.4	4	54.4	4	-1E+10	1	-1E+10	1	-1E+10	1	-1E+10	1	-1E+10	1	-1E+10	1
4902549	99	C	05/10/2023	22:58	-133.164	47.362	0	194.20	0	6.3670	0	33.7520	0	26.522	0	192.491	0	162.8	4	54.2	4	-1E+10	1	-1E+10	1	-1E+10	1	-1E+10	1	-1E+10	1	-1E+10	1
4902549	99	C	05/10/2023	22:58	-133.164	47.362	0	195.00	0	6.3640	0	33.7510	0	26.522	0	193.284	0	162.3	4	54.0	4	-1E+10	1	-1E+10	1	-1E+10	1	-1E+10	1	-1E+10	1	-1E+10	1
4902549	99	C	05/10/2023	22:58	-133.164	47.362	0	195.80	0	6.3620	0	33.7520	0	26.523	0	194.076	0	161.8	4	53.8	4	-1E+10	1	-1E+10	1	-1E+10	1	-1E+10	1	-1E+10	1	-1E+10	1
4902549	99	C	05/10/2023	22:58	-133.164	47.362	0	197.00	0	6.3560	0	33.7510	0	26.523	0	195.265	0	160.9	4	53.6	4	-1E+10	1	-1E+10	1	-1E+10	1	-1E+10	1	-1E+10	1	-1E+10	1
4902549	99	C	05/10/2023	22:58	-133.164	47.362	0	198.20	0	6.3430	0	33.7530	0	26.526	0	196.454	0	160.1	4	53.3	4	-1E+10	1	-1E+10	1	-1E+10	1	-1E+10	1	-1E+10	1	-1E+10	1
4902549	99	C	05/10/2023	22:58	-133.164	47.362	0	199.00	0	6.3370	0	33.7530	0	26.527	0	197.247	0	159.4	4	53.0	4	-1E+10	1	-1E+10	1	-1E+10	1	-1E+10	1	-1E+10	1	-1E+10	1
4902549	99	C	05/10/2023	22:58	-133.164	47.362	0	199.80	0	6.3270	0	33.7540	0	26.529	0	198.039	0	158.8	4	52.8	4	-1E+10	1	-1E+10	1	-1E+10	1	-1E+10	1	-1E+10	1	-1E+10	1
4902549	99	C	05/10/2023	22:58	-133.164	47.362	0	200.70	0	6.3120	0	33.7560	0	26.532	0	198.931	0	158.1	4	52.6	4	-1E+10	1	-1E+10	1	-1E+10	1	-1E+10	1	-1E+10	1	-1E+10	1
4902549	99	C	05/10/2023	22:58	-133.164	47.362	0	201.90	0	6.2910	0	33.7570	0	26.536	0	200.120	0	157.3	4	52.3	4	-1E+10	1	-1E+10	1	-1E+10	1	-1E+10	1	-1E+10	1	-1E+10	1
4902549	99	C	05/10/2023	22:58	-133.164	47.362	0	203.10	0	6.2870	0	33.7560	0	26.536	0	201.308	0	156.3	4	51.9	4	-1E+10	1	-1E+10	1	-1E+10	1	-1E+10	1	-1E+10	1	-1E+10	1
4902549	99	C	05/10/2023	22:58	-133.164	47.362	0	203.90	0	6.2850	0	33.7560	0	26.536	0	202.101	0	155.4	4	51.6	4	-1E+10	1	-1E+10	1	-1E+10	1	-1E+10	1	-1E+10	1	-1E+10	1
4902549	99	C	05/10/2023	22:58	-133.164	47.362	0	204.80	0	6.2550	0	33.7580	0	26.541	0	202.993	0	154.7	4	51.4	4	-1E+10	1	-1E+10	1	-1E+10	1	-1E+10	1	-1E+10	1	-1E+10	1
4902549	99	C	05/10/2023	22:58	-133.164	47.362	0	205.60	0	6.2450	0	33.7570	0	26.542	0	203.785	0	154.1	4	51.1	4	-1E+10	1	-1E+10	1	-1E+10	1	-1E+10	1	-1E+10	1	-1E+10	1
4902549	99	C	05/10/2023	22:58	-133.164	47.362	0	206.90	0	6.2410	0	33.7630	0	26.547	0	205.073	0	153.1	4	50.8	4	-1E+10	1	-1E+10	1	-1E+10	1	-1E+10	1	-1E+10	1	-1E+10	1
4902549	99	C	05/10/2023	22:58	-133.164	47.362	0	208.10	0	6.2230	0	33.7640	0	26.550	0	206.262	0	152.0	4	50.4	4	-1E+10	1	-1E+10	1	-1E+10	1	-1E+10	1	-1E+10	1	-1E+10	1
4902549	99	C	05/10/2023	22:58	-133.164	47.362	0	209.00	0	6.2180	0	33.7640	0	26.551	0	207.153	0	151.3	4	50.2	4	-1E+10	1	-1E+10	1	-1E+10	1	-1E+10	1	-1E+10	1	-1E+10	1
4902549	99	C	05/10/2023	22:58	-133.164	47.362	0	209.80	0	6.2050	0	33.7670	0	26.555	0	207.946	0	150.6	4	49.9	4	-1E+10	1	-1E+10	1	-1E+10	1	-1E+10	1	-1E+10	1	-1E+10	1
4902549	99	C	05/10/2023	22:58	-133.164	47.362	0	210.70	0	6.1980	0	33.7650	0	26.554	0	208.838	0	149.8	4	49.7	4	-1E+10	1	-1E+10	1	-1E+10	1	-1E+10	1	-1E+10	1	-1E+10	1
4902549	99	C	05/10/2023	22:58	-133.164	47.362	0	211.90	0	6.1880	0	33.7670	0	26.557	0	210.026	0	148.6	4	49.3	4	-1E+10	1	-1E+10	1	-1E+10	1	-1E+10	1	-1E+10	1	-1E+10	1
4902549	99	C	05/10/2023	22:58	-133.164	47.362	0	213.30	0	6.1540	0	33.7720	0	26.565	0	211.413	0	147.6	4	48.9	4	-1E+10	1	-1E+10	1	-1E+10	1	-1E+10	1	-1E+10	1	-1E+10	1
4902549	99	C	05/10/2023	22:58	-133.164	47.362	0	214.10	0	6.1510	0	33.7720	0	26.566	0	212.206	0	146.7	4	48.6	4	-1E+10	1	-1E+10	1	-1E+10	1	-1E+10	1	-1E+10	1	-1E+10	1
4902549	99	C	05/10/2023	22:58	-133.164	47.362	0	215.00	0	6.1370	0	33.7750	0	26.570	0	213.097	0	145.9	4	48.3	4	-1E+10	1	-1E+10	1	-1E+10	1	-1E+10	1	-1E+10	1	-1E+10	1
4902549	99	C	05/10/2023	22:58	-133.164	47.362	0	215.90	0	6.1200	0	33.7730	0	26.570	0	213.989	0	145.1	4	48.0	4	-1E+10	1	-1E+10	1	-1E+10	1	-1E+10	1	-1E+10	1	-1E+10	1
4902549	99	C	05/10/2023	22:58	-133.164	47.362	0	216.70	0	6.1080	0	33.7730	0	26.572	0	214.781	0	144.3	4	47.7	4	-1E+10	1	-1E+10	1	-1E+10	1	-1E+10	1	-1E+10	1	-1E+10	1
4902549	99	C	05/10/2023	22:58	-133.164	47.362	0	217.70	0	6.0970	0	33.7750	0	26.575	0	215.772	0	143.4	4	47.4	4	-1E+10	1	-1E+10	1	-1E+10	1	-1E+10	1	-1E+10	1	-1E+10	1
4902549	99	C	05/10/2023	22:58	-133.164	47.362	0	218.90	0	6.1000	0	33.7760	0	26.575	0	216.961	0	142.0	4	47.0	4	-1E+10	1	-1E+10	1	-1E+10	1	-1E+10	1	-1E+10	1	-1E+10	1
4902549	99	C	05/10/2023	22:58	-133.164	47.362	0	220.30	0	6.0580	0	33.7800	0	26.584	0	218.348	0	140.8	4	46.5	4	-1E+10	1	-1E+10	1	-1E+10	1	-1E+10	1	-1E+10	1	-1E+10	1
4902549	99	C	05/10/2023	22:58	-133.164	47.362	0	221.20	0	6.0410	0	33.7820	0	26.588	0	219.239	0	140.0	4	46.3	4	-1E+10	1	-1E+10	1	-1E+10	1	-1E+10	1	-1E+10	1	-1E+10	1
4902549	99	C	05/10/2023	22:58	-133.164	47.362	0	222.10	0	6.0240	0	33.7820	0	26.590	0	220.131	0	139.2	4	46.0	4	-1E+10	1	-1E+10	1	-1E+10	1	-1E+10	1	-1E+10	1	-1E+10	1
4902549	99	C	05/10/2023	22:58	-133.164	47.362	0	223.10	0	6.0170	0	33.7810	0	26.590	0	221.121	0	138.2	4	45.6	4	-1E+10	1	-1E+10	1	-1E+10	1	-1E+10	1	-1E+10	1	-1E+10	1
4902549	99	C	05/10/2023	22:58	-133.164	47.362	0	224.00	0	6.0170	0	33.7820	0	26.591	0	222.013	0	137.3	4	45.3	4	-1E+10	1	-1E+10	1	-1E+10	1	-1E+10	1	-1E+10	1	-1E+10	1
4902549	99	C	05/10/2023	22:58	-133.164	47.362	0	224.90	0	6.0010	0	33.7880	0	26.597	0	222.904	0	136.3	4	45.0	4	-1E+10	1	-1E+10	1	-1E+10	1	-1E+10	1	-1E+10	1	-1E+10	1
4902549	99	C	05/10/2023	22:58	-133.164	47.362	0	225.80	0	5.9930	0	33.7840	0	26.595	0	223.796	0	135.4	4	44.7	4	-1E+10	1	-1E+10	1	-1E+10	1	-1E+10	1	-1E+10	1	-1E+10	1
4902549	99	C	05/10/2023	22:58	-133.164	47.362	0	226.80	0	5.9760	0	33.7890	0	26.601	0	224.787	0	134.5	4	44.4	4	-1E+10	1	-1E+10	1	-1E+10	1	-1E+10	1	-1E+10	1	-1E+10	1
4902549	99	C	05/10/2023	22:58	-133.164	47.362	0	227.70	0	5.9640	0	33.7930	0	26.606	0	225.678	0	133.9	4	44.2	4	-1E+10	1	-1E+10	1	-1E+10	1	-1E+10	1	-1E+10	1	-1E+10	1
4902549	99	C	05/10/2023	22:58	-133.164	47.362	0	228.70	0	5.9590	0	33.7920	0	26.606	0	226.669	0	133.3	4	43.9	4	-1E+10	1	-1E+10	1	-1E+10	1	-1E+10	1	-1E+10	1	-1E+10	1
4902549	99	C	05/10/2023	22:58	-133.164	47.362	0	229.60	0	5.9490	0	33.7930	0	26.608	0	227.560	0	132.6	4	43.7	4	-1E+10	1	-1E+10	1	-1E+10	1	-1E+10	1	-1E+10	1	-1E+10	1
4902549	99	C	05/10/2023	22:58	-133.164	47.362	0	230.50	0	5.9260	0	33.7930	0	26.611	0	228.452	0	132.1	4	43.5	4	-1E+10	1	-1E+10	1	-1E+10	1	-1E+10	1	-1E+10	1	-1E+10	1
4902549	99	C	05/10/2023	22:58	-133.164	47.362	0	231.90	0	5.8970	0	33.7940	0	26.615	0	229.838	0	131.3	4	43.2	4	-1E+10	1	-1E+10	1	-1E+10	1	-1E+10	1	-1E+10	1	-1E+10	1
4902549	99	C	05/10/2023	22:58	-133.164	47.362	0	233.40	0	5.8820	0	33.7930	0	26.616	0	231.324	0	130.4	4	42.9	4	-1E+10	1	-1E+10	1	-1E+10	1	-1E+10	1	-1E+10	1	-1E+10	1
4902549	99	C	05/10/2023	22:58	-133.164	47.362	0	234.30	0	5.8750	0	33.7940	0	26.618	0	232.216	0	129.7	4	42.7	4	-1E+10	1	-1E+10	1	-1E+10	1	-1E+10	1	-1E+10	1	-1E+10	1
4902549	99	C	05/10/2023	22:58	-133.164	47.362	0	235.20	0	5.8460	0	33.8000	0	26.626	0	233.107	0	129.1	4	42.5	4	-1E+10	1	-1E+10	1	-1E+10	1	-1E+10	1	-1E+10	1	-1E+10	1
4902549	99	C	05/10/2023	22:58	-133.164	47.362	0	236.20	0	5.8340	0	33.7950	0	26.624	0	234.098	0	128.5	4	42.3	4	-1E+10	1	-1E+10	1	-1E+10	1	-1E+10	1	-1E+10	1	-1E+10	1
4902549	99	C	05/10/2023	22:58	-133.164	47.362	0	237.10	0	5.8220	0	33.7960	0	26.626	0	234.989	0	127.9	4	42.0	4	-1E+10	1	-1E+10	1	-1E+10	1	-1E+10	1	-1E+10	1	-1E+10	1
4902549	99	C	05/10/2023	22:58	-133.164	47.362	0	238.10	0	5.8110	0	33.8010	0	26.631	0	235.980	0	127.4	4	41.9	4	-1E+10	1	-1E+10	1	-1E+10	1	-1E+10	1	-1E+10	1	-1E+10	1
4902549	99	C	05/10/2023	22:58	-133.164	47.362	0	239.00	0	5.8090	0	33.7990	0	26.630	0	236.871	0	126.9	4	41.7	4	-1E+10	1	-1E+10	1	-1E+10	1	-1E+10	1	-1E+10	1	-1E+10	1
4902549	99	C	05/10/2023	22:58	-133.164	47.362	0	240.00	0	5.8090	0	33.7990	0	26.630	0	237.862	0	126.2	4	41.5	4	-1E+10	1	-1E+10	1	-1E+10	1	-1E+10	1	-1E+10	1	-1E+10	1
4902549	99	C	05/10/2023	22:58	-133.164	47.362	0	240.90	0	5.7920	0	33.8030	0	26.635	0	238.753	0	125.6	4	41.3	4	-1E+10	1	-1E+10	1	-1E+10	1	-1E+10	1	-1E+10	1	-1E+10	1
4902549	99	C	05/10/2023	22:58	-133.164	47.362	0	241.90	0	5.7540	0	33.8010	0	26.638	0	239.744	0	125.3	4	41.1	4	-1E+10	1	-1E+10	1	-1E+10	1	-1E+10	1	-1E+10	1	-1E+10	1
4902549	99	C	05/10/2023	22:58	-133.164	47.362	0	242.90	0	5.7420	0	33.8000	0	26.639	0	240.734	0	124.8	4	40.9	4	-1E+10	1	-1E+10	1	-1E+10	1	-1E+10	1	-1E+10	1	-1E+10	1
4902549	99	C	05/10/2023	22:58	-133.164	47.362	0	243.80	0	5.7190	0	33.7990	0	26.641	0	241.626	0	124.3	4	40.8	4	-1E+10	1	-1E+10	1	-1E+10	1	-1E+10	1	-1E+10	1	-1E+10	1
4902549	99	C	05/10/2023	22:58	-133.164	47.362	0	244.80	0	5.6960	0	33.7990	0	26.644	0	242.616	0	123.9	4	40.6	4	-1E+10	1	-1E+10	1	-1E+10	1	-1E+10	1	-1E+10	1	-1E+10	1
4902549	99	C	05/10/2023	22:58	-133.164	47.362	0	245.80	0	5.6830	0	33.7990	0	26.645	0	243.607	0	123.5	4	40.5	4	-1E+10	1	-1E+10	1	-1E+10	1	-1E+10	1	-1E+10	1	-1E+10	1
4902549	99	C	05/10/2023	22:58	-133.164	47.362	0	246.80	0	5.6760	0	33.7980	0	26.645	0	244.597	0	122.9	4	40.3	4	-1E+10	1	-1E+10	1	-1E+10	1	-1E+10	1	-1E+10	1	-1E+10	1
4902549	99	C	05/10/2023	22:58	-133.164	47.362	0	247.80	0	5.6690	0	33.7990	0	26.647	0	245.588	0	122.4	4	40.1	4	-1E+10	1	-1E+10	1	-1E+10	1	-1E+10	1	-1E+10	1	-1E+10	1
4902549	99	C	05/10/2023	22:58	-133.164	47.362	0	248.80	0	5.6650	0	33.7990	0	26.648	0	246.578	0	121.8	4	39.9	4	-1E+10	1	-1E+10	1	-1E+10	1	-1E+10	1	-1E+10	1	-1E+10	1
4902549	99	C	05/10/2023	22:58	-133.164	47.362	0	249.80	0	5.6600	0	33.8000	0	26.649	0	247.569	0	121.1	4	39.7	4	-1E+10	1	-1E+10	1	-1E+10	1	-1E+10	1	-1E+10	1	-1E+10	1
4902549	99	C	05/10/2023	22:58	-133.164	47.362	0	250.80	0	5.6560	0	33.8000	0	26.649	0	248.559	0	120.5	4	39.4	4	-1E+10	1	-1E+10	1	-1E+10	1	-1E+10	1	-1E+10	1	-1E+10	1
4902549	99	C	05/10/2023	22:58	-133.164	47.362	0	251.80	0	5.6470	0	33.8000	0	26.651	0	249.550	0	119.8	4	39.2	4	-1E+10	1	-1E+10	1	-1E+10	1	-1E+10	1	-1E+10	1	-1E+10	1
4902549	99	C	05/10/2023	22:58	-133.164	47.362	0	252.80	0	5.6330	0	33.7980	0	26.651	0	250.540	0	119.0	4	39.0	4	-1E+10	1	-1E+10	1	-1E+10	1	-1E+10	1	-1E+10	1	-1E+10	1
4902549	99	C	05/10/2023	22:58	-133.164	47.362	0	253.80	0	5.5640	0	33.7990	0	26.660	0	251.530	0	118.7	4	38.8	4	-1E+10	1	-1E+10	1	-1E+10	1	-1E+10	1	-1E+10	1	-1E+10	1
4902549	99	C	05/10/2023	22:58	-133.164	47.362	0	254.80	0	5.5500	0	33.8000	0	26.662	0	252.521	0	118.2	4	38.6	4	-1E+10	1	-1E+10	1	-1E+10	1	-1E+10	1	-1E+10	1	-1E+10	1
4902549	99	C	05/10/2023	22:58	-133.164	47.362	0	255.80	0	5.5300	0	33.8020	0	26.666	0	253.511	0	117.7	4	38.4	4	-1E+10	1	-1E+10	1	-1E+10	1	-1E+10	1	-1E+10	1	-1E+10	1
4902549	99	C	05/10/2023	22:58	-133.164	47.362	0	256.80	0	5.5170	0	33.7990	0	26.665	0	254.502	0	117.2	4	38.3	4	-1E+10	1	-1E+10	1	-1E+10	1	-1E+10	1	-1E+10	1	-1E+10	1
4902549	99	C	05/10/2023	22:58	-133.164	47.362	0	257.80	0	5.5090	0	33.8040	0	26.670	0	255.492	0	116.8	4	38.1	4	-1E+10	1	-1E+10	1	-1E+10	1	-1E+10	1	-1E+10	1	-1E+10	1
4902549	99	C	05/10/2023	22:58	-133.164	47.362	0	258.80	0	5.5050	0	33.8030	0	26.670	0	256.483	0	116.3	4	38.0	4	-1E+10	1	-1E+10	1	-1E+10	1	-1E+10	1	-1E+10	1	-1E+10	1
4902549	99	C	05/10/2023	22:58	-133.164	47.362	0	259.80	0	5.5030	0	33.8030	0	26.670	0	257.473	0	115.9	4	37.8	4	-1E+10	1	-1E+10	1	-1E+10	1	-1E+10	1	-1E+10	1	-1E+10	1
4902549	99	C	05/10/2023	22:58	-133.164	47.362	0	260.80	0	5.4980	0	33.8040	0	26.672	0	258.463	0	115.3	4	37.6	4	-1E+10	1	-1E+10	1	-1E+10	1	-1E+10	1	-1E+10	1	-1E+10	1
4902549	99	C	05/10/2023	22:58	-133.164	47.362	0	261.70	0	5.4980	0	33.8030	0	26.671	0	259.355	0	114.7	4	37.4	4	-1E+10	1	-1E+10	1	-1E+10	1	-1E+10	1	-1E+10	1	-1E+10	1
4902549	99	C	05/10/2023	22:58	-133.164	47.362	0	262.70	0	5.4960	0	33.8050	0	26.673	0	260.345	0	114.0	4	37.2	4	-1E+10	1	-1E+10	1	-1E+10	1	-1E+10	1	-1E+10	1	-1E+10	1
4902549	99	C	05/10/2023	22:58	-133.164	47.362	0	263.70	0	5.4840	0	33.8070	0	26.676	0	261.336	0	113.4	4	37.0	4	-1E+10	1	-1E+10	1	-1E+10	1	-1E+10	1	-1E+10	1	-1E+10	1
4902549	99	C	05/10/2023	22:58	-133.164	47.362	0	264.70	0	5.4670	0	33.8070	0	26.678	0	262.326	0	112.8	4	36.8	4	-1E+10	1	-1E+10	1	-1E+10	1	-1E+10	1	-1E+10	1	-1E+10	1
4902549	99	C	05/10/2023	22:58	-133.164	47.362	0	265.70	0	5.4620	0	33.8060	0	26.678	0	263.316	0	112.1	4	36.5	4	-1E+10	1	-1E+10	1	-1E+10	1	-1E+10	1	-1E+10	1	-1E+10	1
4902549	99	C	05/10/2023	22:58	-133.164	47.362	0	266.60	0	5.4540	0	33.8090	0	26.681	0	264.208	0	111.5	4	36.3	4	-1E+10	1	-1E+10	1	-1E+10	1	-1E+10	1	-1E+10	1	-1E+10	1
4902549	99	C	05/10/2023	22:58	-133.164	47.362	0	267.60	0	5.4440	0	33.8110	0	26.684	0	265.198	0	110.9	4	36.2	4	-1E+10	1	-1E+10	1	-1E+10	1	-1E+10	1	-1E+10	1	-1E+10	1
4902549	99	C	05/10/2023	22:58	-133.164	47.362	0	268.60	0	5.4460	0	33.8130	0	26.685	0	266.189	0	110.3	4	36.0	4	-1E+10	1	-1E+10	1	-1E+10	1	-1E+10	1	-1E+10	1	-1E+10	1
4902549	99	C	05/10/2023	22:58	-133.164	47.362	0	269.60	0	5.4340	0	33.8150	0	26.688	0	267.179	0	109.7	4	35.8	4	-1E+10	1	-1E+10	1	-1E+10	1	-1E+10	1	-1E+10	1	-1E+10	1
4902549	99	C	05/10/2023	22:58	-133.164	47.362	0	270.60	0	5.4440	0	33.8210	0	26.692	0	268.169	0	109.3	4	35.6	4	-1E+10	1	-1E+10	1	-1E+10	1	-1E+10	1	-1E+10	1	-1E+10	1
4902549	99	C	05/10/2023	22:58	-133.164	47.362	0	271.50	0	5.4450	0	33.8230	0	26.693	0	269.061	0	108.8	4	35.5	4	-1E+10	1	-1E+10	1	-1E+10	1	-1E+10	1	-1E+10	1	-1E+10	1
4902549	99	C	05/10/2023	22:58	-133.164	47.362	0	272.50	0	5.4550	0	33.8240	0	26.693	0	270.051	0	108.3	4	35.3	4	-1E+10	1	-1E+10	1	-1E+10	1	-1E+10	1	-1E+10	1	-1E+10	1
4902549	99	C	05/10/2023	22:58	-133.164	47.362	0	273.50	0	5.4670	0	33.8290	0	26.695	0	271.041	0	107.8	4	35.2	4	-1E+10	1	-1E+10	1	-1E+10	1	-1E+10	1	-1E+10	1	-1E+10	1
4902549	99	C	05/10/2023	22:58	-133.164	47.362	0	274.50	0	5.4400	0	33.8280	0	26.698	0	272.032	0	107.4	4	35.0	4	-1E+10	1	-1E+10	1	-1E+10	1	-1E+10	1	-1E+10	1	-1E+10	1
4902549	99	C	05/10/2023	22:58	-133.164	47.362	0	275.50	0	5.4320	0	33.8290	0	26.699	0	273.022	0	107.0	4	34.9	4	-1E+10	1	-1E+10	1	-1E+10	1	-1E+10	1	-1E+10	1	-1E+10	1
4902549	99	C	05/10/2023	22:58	-133.164	47.362	0	276.90	0	5.4130	0	33.8290	0	26.702	0	274.409	0	106.4	4	34.6	4	-1E+10	1	-1E+10	1	-1E+10	1	-1E+10	1	-1E+10	1	-1E+10	1
4902549	99	C	05/10/2023	22:58	-133.164	47.362	0	278.40	0	5.3880	0	33.8280	0	26.704	0	275.894	0	105.8	4	34.4	4	-1E+10	1	-1E+10	1	-1E+10	1	-1E+10	1	-1E+10	1	-1E+10	1
4902549	99	C	05/10/2023	22:58	-133.164	47.362	0	279.40	0	5.3970	0	33.8270	0	26.702	0	276.884	0	105.4	4	34.3	4	-1E+10	1	-1E+10	1	-1E+10	1	-1E+10	1	-1E+10	1	-1E+10	1
4902549	99	C	05/10/2023	22:58	-133.164	47.362	0	280.40	0	5.4120	0	33.8330	0	26.705	0	277.875	0	104.9	4	34.2	4	-1E+10	1	-1E+10	1	-1E+10	1	-1E+10	1	-1E+10	1	-1E+10	1
4902549	99	C	05/10/2023	22:58	-133.164	47.362	0	281.40	0	5.3950	0	33.8340	0	26.708	0	278.865	0	104.5	4	34.0	4	-1E+10	1	-1E+10	1	-1E+10	1	-1E+10	1	-1E+10	1	-1E+10	1
4902549	99	C	05/10/2023	22:58	-133.164	47.362	0	282.40	0	5.3440	0	33.8330	0	26.713	0	279.855	0	104.3	4	33.9	4	-1E+10	1	-1E+10	1	-1E+10	1	-1E+10	1	-1E+10	1	-1E+10	1
4902549	99	C	05/10/2023	22:58	-133.164	47.362	0	283.40	0	5.3410	0	33.8340	0	26.714	0	280.846	0	103.9	4	33.8	4	-1E+10	1	-1E+10	1	-1E+10	1	-1E+10	1	-1E+10	1	-1E+10	1
4902549	99	C	05/10/2023	22:58	-133.164	47.362	0	284.40	0	5.3370	0	33.8330	0	26.714	0	281.836	0	103.6	4	33.7	4	-1E+10	1	-1E+10	1	-1E+10	1	-1E+10	1	-1E+10	1	-1E+10	1
4902549	99	C	05/10/2023	22:58	-133.164	47.362	0	285.40	0	5.3300	0	33.8340	0	26.715	0	282.826	0	103.2	4	33.5	4	-1E+10	1	-1E+10	1	-1E+10	1	-1E+10	1	-1E+10	1	-1E+10	1
4902549	99	C	05/10/2023	22:58	-133.164	47.362	0	286.40	0	5.3000	0	33.8330	0	26.718	0	283.817	0	102.9	4	33.4	4	-1E+10	1	-1E+10	1	-1E+10	1	-1E+10	1	-1E+10	1	-1E+10	1
4902549	99	C	05/10/2023	22:58	-133.164	47.362	0	287.40	0	5.2980	0	33.8340	0	26.719	0	284.807	0	102.5	4	33.3	4	-1E+10	1	-1E+10	1	-1E+10	1	-1E+10	1	-1E+10	1	-1E+10	1
4902549	99	C	05/10/2023	22:58	-133.164	47.362	0	288.50	0	5.2910	0	33.8370	0	26.722	0	285.896	0	102.2	4	33.2	4	-1E+10	1	-1E+10	1	-1E+10	1	-1E+10	1	-1E+10	1	-1E+10	1
4902549	99	C	05/10/2023	22:58	-133.164	47.362	0	289.50	0	5.3000	0	33.8390	0	26.723	0	286.886	0	101.8	4	33.1	4	-1E+10	1	-1E+10	1	-1E+10	1	-1E+10	1	-1E+10	1	-1E+10	1
4902549	99	C	05/10/2023	22:58	-133.164	47.362	0	290.50	0	5.2990	0	33.8390	0	26.723	0	287.877	0	101.6	4	33.0	4	-1E+10	1	-1E+10	1	-1E+10	1	-1E+10	1	-1E+10	1	-1E+10	1
4902549	99	C	05/10/2023	22:58	-133.164	47.362	0	291.60	0	5.2880	0	33.8380	0	26.724	0	288.966	0	101.3	4	32.9	4	-1E+10	1	-1E+10	1	-1E+10	1	-1E+10	1	-1E+10	1	-1E+10	1
4902549	99	C	05/10/2023	22:58	-133.164	47.362	0	292.60	0	5.2590	0	33.8350	0	26.725	0	289.956	0	101.0	4	32.8	4	-1E+10	1	-1E+10	1	-1E+10	1	-1E+10	1	-1E+10	1	-1E+10	1
4902549	99	C	05/10/2023	22:58	-133.164	47.362	0	293.60	0	5.2520	0	33.8390	0	26.729	0	290.947	0	100.7	4	32.7	4	-1E+10	1	-1E+10	1	-1E+10	1	-1E+10	1	-1E+10	1	-1E+10	1
4902549	99	C	05/10/2023	22:58	-133.164	47.362	0	294.70	0	5.2490	0	33.8390	0	26.729	0	292.036	0	100.4	4	32.6	4	-1E+10	1	-1E+10	1	-1E+10	1	-1E+10	1	-1E+10	1	-1E+10	1
4902549	99	C	05/10/2023	22:58	-133.164	47.362	0	295.70	0	5.2510	0	33.8400	0	26.730	0	293.026	0	100.1	4	32.5	4	-1E+10	1	-1E+10	1	-1E+10	1	-1E+10	1	-1E+10	1	-1E+10	1
4902549	99	C	05/10/2023	22:58	-133.164	47.362	0	296.80	0	5.2860	0	33.8450	0	26.729	0	294.115	0	99.7	4	32.4	4	-1E+10	1	-1E+10	1	-1E+10	1	-1E+10	1	-1E+10	1	-1E+10	1
4902549	99	C	05/10/2023	22:58	-133.164	47.362	0	297.80	0	5.2840	0	33.8470	0	26.731	0	295.106	0	99.4	4	32.3	4	-1E+10	1	-1E+10	1	-1E+10	1	-1E+10	1	-1E+10	1	-1E+10	1
4902549	99	C	05/10/2023	22:58	-133.164	47.362	0	298.80	0	5.2780	0	33.8490	0	26.734	0	296.096	0	99.1	4	32.2	4	-1E+10	1	-1E+10	1	-1E+10	1	-1E+10	1	-1E+10	1	-1E+10	1
4902549	99	C	05/10/2023	22:58	-133.164	47.362	0	299.70	0	5.2750	0	33.8470	0	26.732	0	296.987	0	98.7	4	32.1	4	-1E+10	1	-1E+10	1	-1E+10	1	-1E+10	1	-1E+10	1	-1E+10	1
4902549	99	C	05/10/2023	22:58	-133.164	47.362	0	300.90	0	5.2910	0	33.8550	0	26.737	0	298.175	0	98.3	4	31.9	4	-1E+10	1	-1E+10	1	-1E+10	1	-1E+10	1	-1E+10	1	-1E+10	1
4902549	99	C	05/10/2023	22:58	-133.164	47.362	0	302.00	0	5.2880	0	33.8540	0	26.736	0	299.265	0	97.9	4	31.8	4	-1E+10	1	-1E+10	1	-1E+10	1	-1E+10	1	-1E+10	1	-1E+10	1
4902549	99	C	05/10/2023	22:58	-133.164	47.362	0	303.20	0	5.2820	0	33.8570	0	26.739	0	300.453	0	97.5	4	31.7	4	-1E+10	1	-1E+10	1	-1E+10	1	-1E+10	1	-1E+10	1	-1E+10	1
4902549	99	C	05/10/2023	22:58	-133.164	47.362	0	304.00	0	5.2700	0	33.8590	0	26.742	0	301.245	0	97.3	4	31.6	4	-1E+10	1	-1E+10	1	-1E+10	1	-1E+10	1	-1E+10	1	-1E+10	1
4902549	99	C	05/10/2023	22:58	-133.164	47.362	0	304.80	0	5.2640	0	33.8590	0	26.743	0	302.037	0	97.2	4	31.5	4	-1E+10	1	-1E+10	1	-1E+10	1	-1E+10	1	-1E+10	1	-1E+10	1
4902549	99	C	05/10/2023	22:58	-133.164	47.362	0	306.00	0	5.2610	0	33.8580	0	26.743	0	303.225	0	96.8	4	31.4	4	-1E+10	1	-1E+10	1	-1E+10	1	-1E+10	1	-1E+10	1	-1E+10	1
4902549	99	C	05/10/2023	22:58	-133.164	47.362	0	307.20	0	5.2600	0	33.8580	0	26.743	0	304.414	0	96.4	4	31.3	4	-1E+10	1	-1E+10	1	-1E+10	1	-1E+10	1	-1E+10	1	-1E+10	1
4902549	99	C	05/10/2023	22:58	-133.164	47.362	0	308.00	0	5.2560	0	33.8590	0	26.744	0	305.206	0	96.2	4	31.2	4	-1E+10	1	-1E+10	1	-1E+10	1	-1E+10	1	-1E+10	1	-1E+10	1
4902549	99	C	05/10/2023	22:58	-133.164	47.362	0	308.80	0	5.2560	0	33.8590	0	26.744	0	305.998	0	95.9	4	31.1	4	-1E+10	1	-1E+10	1	-1E+10	1	-1E+10	1	-1E+10	1	-1E+10	1
4902549	99	C	05/10/2023	22:58	-133.164	47.362	0	310.00	0	5.2520	0	33.8600	0	26.745	0	307.186	0	95.4	4	31.0	4	-1E+10	1	-1E+10	1	-1E+10	1	-1E+10	1	-1E+10	1	-1E+10	1
4902549	99	C	05/10/2023	22:58	-133.164	47.362	0	311.20	0	5.2440	0	33.8610	0	26.747	0	308.374	0	94.9	4	30.8	4	-1E+10	1	-1E+10	1	-1E+10	1	-1E+10	1	-1E+10	1	-1E+10	1
4902549	99	C	05/10/2023	22:58	-133.164	47.362	0	312.00	0	5.2420	0	33.8610	0	26.747	0	309.167	0	94.5	4	30.7	4	-1E+10	1	-1E+10	1	-1E+10	1	-1E+10	1	-1E+10	1	-1E+10	1
4902549	99	C	05/10/2023	22:58	-133.164	47.362	0	312.90	0	5.2400	0	33.8600	0	26.747	0	310.058	0	94.1	4	30.5	4	-1E+10	1	-1E+10	1	-1E+10	1	-1E+10	1	-1E+10	1	-1E+10	1
4902549	99	C	05/10/2023	22:58	-133.164	47.362	0	313.70	0	5.2370	0	33.8600	0	26.747	0	310.850	0	93.7	4	30.4	4	-1E+10	1	-1E+10	1	-1E+10	1	-1E+10	1	-1E+10	1	-1E+10	1
4902549	99	C	05/10/2023	22:58	-133.164	47.362	0	314.90	0	5.2170	0	33.8600	0	26.750	0	312.038	0	93.1	4	30.2	4	-1E+10	1	-1E+10	1	-1E+10	1	-1E+10	1	-1E+10	1	-1E+10	1
4902549	99	C	05/10/2023	22:58	-133.164	47.362	0	316.20	0	5.2120	0	33.8610	0	26.751	0	313.325	0	92.4	4	30.0	4	-1E+10	1	-1E+10	1	-1E+10	1	-1E+10	1	-1E+10	1	-1E+10	1
4902549	99	C	05/10/2023	22:58	-133.164	47.362	0	317.00	0	5.1670	0	33.8590	0	26.755	0	314.117	0	92.1	4	29.8	4	-1E+10	1	-1E+10	1	-1E+10	1	-1E+10	1	-1E+10	1	-1E+10	1
4902549	99	C	05/10/2023	22:58	-133.164	47.362	0	317.80	0	5.1430	0	33.8560	0	26.755	0	314.909	0	91.8	4	29.7	4	-1E+10	1	-1E+10	1	-1E+10	1	-1E+10	1	-1E+10	1	-1E+10	1
4902549	99	C	05/10/2023	22:58	-133.164	47.362	0	318.60	0	5.1260	0	33.8570	0	26.758	0	315.702	0	91.5	4	29.6	4	-1E+10	1	-1E+10	1	-1E+10	1	-1E+10	1	-1E+10	1	-1E+10	1
4902549	99	C	05/10/2023	22:58	-133.164	47.362	0	319.90	0	5.1190	0	33.8580	0	26.759	0	316.989	0	91.0	4	29.4	4	-1E+10	1	-1E+10	1	-1E+10	1	-1E+10	1	-1E+10	1	-1E+10	1
4902549	99	C	05/10/2023	22:58	-133.164	47.362	0	321.20	0	5.1130	0	33.8600	0	26.762	0	318.276	0	90.5	4	29.3	4	-1E+10	1	-1E+10	1	-1E+10	1	-1E+10	1	-1E+10	1	-1E+10	1
4902549	99	C	05/10/2023	22:58	-133.164	47.362	0	322.00	0	5.1130	0	33.8610	0	26.762	0	319.068	0	90.1	4	29.1	4	-1E+10	1	-1E+10	1	-1E+10	1	-1E+10	1	-1E+10	1	-1E+10	1
4902549	99	C	05/10/2023	22:58	-133.164	47.362	0	322.90	0	5.1050	0	33.8620	0	26.764	0	319.959	0	89.7	4	29.0	4	-1E+10	1	-1E+10	1	-1E+10	1	-1E+10	1	-1E+10	1	-1E+10	1
4902549	99	C	05/10/2023	22:58	-133.164	47.362	0	323.70	0	5.0930	0	33.8620	0	26.765	0	320.751	0	89.4	4	28.9	4	-1E+10	1	-1E+10	1	-1E+10	1	-1E+10	1	-1E+10	1	-1E+10	1
4902549	99	C	05/10/2023	22:58	-133.164	47.362	0	324.60	0	5.0920	0	33.8630	0	26.766	0	321.642	0	89.0	4	28.8	4	-1E+10	1	-1E+10	1	-1E+10	1	-1E+10	1	-1E+10	1	-1E+10	1
4902549	99	C	05/10/2023	22:58	-133.164	47.362	0	325.90	0	5.0750	0	33.8650	0	26.770	0	322.929	0	88.7	4	28.7	4	-1E+10	1	-1E+10	1	-1E+10	1	-1E+10	1	-1E+10	1	-1E+10	1
4902549	99	C	05/10/2023	22:58	-133.164	47.362	0	327.20	0	5.0720	0	33.8670	0	26.772	0	324.217	0	88.3	4	28.5	4	-1E+10	1	-1E+10	1	-1E+10	1	-1E+10	1	-1E+10	1	-1E+10	1
4902549	99	C	05/10/2023	22:58	-133.164	47.362	0	328.00	0	5.0680	0	33.8680	0	26.773	0	325.009	0	88.0	4	28.4	4	-1E+10	1	-1E+10	1	-1E+10	1	-1E+10	1	-1E+10	1	-1E+10	1
4902549	99	C	05/10/2023	22:58	-133.164	47.362	0	328.90	0	5.0660	0	33.8680	0	26.773	0	325.900	0	87.7	4	28.4	4	-1E+10	1	-1E+10	1	-1E+10	1	-1E+10	1	-1E+10	1	-1E+10	1
4902549	99	C	05/10/2023	22:58	-133.164	47.362	0	329.70	0	5.0650	0	33.8680	0	26.773	0	326.692	0	87.4	4	28.2	4	-1E+10	1	-1E+10	1	-1E+10	1	-1E+10	1	-1E+10	1	-1E+10	1
4902549	99	C	05/10/2023	22:58	-133.164	47.362	0	330.90	0	5.0630	0	33.8680	0	26.774	0	327.880	0	86.9	4	28.1	4	-1E+10	1	-1E+10	1	-1E+10	1	-1E+10	1	-1E+10	1	-1E+10	1
4902549	99	C	05/10/2023	22:58	-133.164	47.362	0	332.20	0	5.0620	0	33.8680	0	26.774	0	329.167	0	86.3	4	27.9	4	-1E+10	1	-1E+10	1	-1E+10	1	-1E+10	1	-1E+10	1	-1E+10	1
4902549	99	C	05/10/2023	22:58	-133.164	47.362	0	333.00	0	5.0550	0	33.8690	0	26.775	0	329.959	0	85.9	4	27.7	4	-1E+10	1	-1E+10	1	-1E+10	1	-1E+10	1	-1E+10	1	-1E+10	1
4902549	99	C	05/10/2023	22:58	-133.164	47.362	0	333.90	0	5.0360	0	33.8710	0	26.779	0	330.850	0	85.6	4	27.6	4	-1E+10	1	-1E+10	1	-1E+10	1	-1E+10	1	-1E+10	1	-1E+10	1
4902549	99	C	05/10/2023	22:58	-133.164	47.362	0	334.70	0	5.0350	0	33.8690	0	26.778	0	331.642	0	85.2	4	27.5	4	-1E+10	1	-1E+10	1	-1E+10	1	-1E+10	1	-1E+10	1	-1E+10	1
4902549	99	C	05/10/2023	22:58	-133.164	47.362	0	335.90	0	5.0200	0	33.8720	0	26.782	0	332.830	0	84.7	4	27.3	4	-1E+10	1	-1E+10	1	-1E+10	1	-1E+10	1	-1E+10	1	-1E+10	1
4902549	99	C	05/10/2023	22:58	-133.164	47.362	0	337.20	0	4.9990	0	33.8750	0	26.787	0	334.117	0	84.3	4	27.2	4	-1E+10	1	-1E+10	1	-1E+10	1	-1E+10	1	-1E+10	1	-1E+10	1
4902549	99	C	05/10/2023	22:58	-133.164	47.362	0	338.10	0	4.9900	0	33.8750	0	26.788	0	335.008	0	84.0	4	27.1	4	-1E+10	1	-1E+10	1	-1E+10	1	-1E+10	1	-1E+10	1	-1E+10	1
4902549	99	C	05/10/2023	22:58	-133.164	47.362	0	338.90	0	4.9850	0	33.8750	0	26.788	0	335.800	0	83.8	4	27.0	4	-1E+10	1	-1E+10	1	-1E+10	1	-1E+10	1	-1E+10	1	-1E+10	1
4902549	99	C	05/10/2023	22:58	-133.164	47.362	0	339.80	0	4.9810	0	33.8750	0	26.789	0	336.691	0	83.6	4	27.0	4	-1E+10	1	-1E+10	1	-1E+10	1	-1E+10	1	-1E+10	1	-1E+10	1
4902549	99	C	05/10/2023	22:58	-133.164	47.362	0	340.60	0	4.9740	0	33.8760	0	26.790	0	337.484	0	83.3	4	26.9	4	-1E+10	1	-1E+10	1	-1E+10	1	-1E+10	1	-1E+10	1	-1E+10	1
4902549	99	C	05/10/2023	22:58	-133.164	47.362	0	341.90	0	4.9690	0	33.8750	0	26.790	0	338.771	0	82.9	4	26.7	4	-1E+10	1	-1E+10	1	-1E+10	1	-1E+10	1	-1E+10	1	-1E+10	1
4902549	99	C	05/10/2023	22:58	-133.164	47.362	0	343.10	0	4.9550	0	33.8760	0	26.792	0	339.959	0	82.5	4	26.6	4	-1E+10	1	-1E+10	1	-1E+10	1	-1E+10	1	-1E+10	1	-1E+10	1
4902549	99	C	05/10/2023	22:58	-133.164	47.362	0	344.00	0	4.9410	0	33.8760	0	26.794	0	340.850	0	82.4	4	26.5	4	-1E+10	1	-1E+10	1	-1E+10	1	-1E+10	1	-1E+10	1	-1E+10	1
4902549	99	C	05/10/2023	22:58	-133.164	47.362	0	344.80	0	4.9390	0	33.8770	0	26.795	0	341.642	0	82.2	4	26.5	4	-1E+10	1	-1E+10	1	-1E+10	1	-1E+10	1	-1E+10	1	-1E+10	1
4902549	99	C	05/10/2023	22:58	-133.164	47.362	0	346.00	0	4.9380	0	33.8780	0	26.796	0	342.830	0	81.8	4	26.4	4	-1E+10	1	-1E+10	1	-1E+10	1	-1E+10	1	-1E+10	1	-1E+10	1
4902549	99	C	05/10/2023	22:58	-133.164	47.362	0	347.30	0	4.9370	0	33.8780	0	26.796	0	344.117	0	81.5	4	26.2	4	-1E+10	1	-1E+10	1	-1E+10	1	-1E+10	1	-1E+10	1	-1E+10	1
4902549	99	C	05/10/2023	22:58	-133.164	47.362	0	348.10	0	4.9390	0	33.8790	0	26.797	0	344.909	0	81.3	4	26.2	4	-1E+10	1	-1E+10	1	-1E+10	1	-1E+10	1	-1E+10	1	-1E+10	1
4902549	99	C	05/10/2023	22:58	-133.164	47.362	0	348.90	0	4.9330	0	33.8820	0	26.800	0	345.701	0	81.0	4	26.1	4	-1E+10	1	-1E+10	1	-1E+10	1	-1E+10	1	-1E+10	1	-1E+10	1
4902549	99	C	05/10/2023	22:58	-133.164	47.362	0	349.80	0	4.9230	0	33.8820	0	26.801	0	346.592	0	80.9	4	26.1	4	-1E+10	1	-1E+10	1	-1E+10	1	-1E+10	1	-1E+10	1	-1E+10	1
4902549	99	C	05/10/2023	22:58	-133.164	47.362	0	352.70	0	4.9080	0	33.8820	0	26.802	0	349.463	0	80.2	4	25.8	4	-1E+10	1	-1E+10	1	-1E+10	1	-1E+10	1	-1E+10	1	-1E+10	1
4902549	99	C	05/10/2023	22:58	-133.164	47.362	0	357.80	0	4.8890	0	33.8830	0	26.805	0	354.511	0	79.0	4	25.4	4	-1E+10	1	-1E+10	1	-1E+10	1	-1E+10	1	-1E+10	1	-1E+10	1
4902549	99	C	05/10/2023	22:58	-133.164	47.362	0	362.90	0	4.8630	0	33.8850	0	26.810	0	359.560	0	77.4	4	24.9	4	-1E+10	1	-1E+10	1	-1E+10	1	-1E+10	1	-1E+10	1	-1E+10	1
4902549	99	C	05/10/2023	22:58	-133.164	47.362	0	368.10	0	4.8430	0	33.8910	0	26.817	0	364.708	0	75.9	4	24.4	4	-1E+10	1	-1E+10	1	-1E+10	1	-1E+10	1	-1E+10	1	-1E+10	1
4902549	99	C	05/10/2023	22:58	-133.164	47.362	0	372.90	0	4.8190	0	33.8980	0	26.825	0	369.459	0	74.0	4	23.8	4	-1E+10	1	-1E+10	1	-1E+10	1	-1E+10	1	-1E+10	1	-1E+10	1
4902549	99	C	05/10/2023	22:58	-133.164	47.362	0	377.90	0	4.7890	0	33.9040	0	26.833	0	374.409	0	72.3	4	23.2	4	-1E+10	1	-1E+10	1	-1E+10	1	-1E+10	1	-1E+10	1	-1E+10	1
4902549	99	C	05/10/2023	22:58	-133.164	47.362	0	382.90	0	4.7650	0	33.9080	0	26.839	0	379.358	0	70.7	4	22.7	4	-1E+10	1	-1E+10	1	-1E+10	1	-1E+10	1	-1E+10	1	-1E+10	1
4902549	99	C	05/10/2023	22:58	-133.164	47.362	0	388.00	0	4.7410	0	33.9130	0	26.846	0	384.406	0	68.7	4	22.0	4	-1E+10	1	-1E+10	1	-1E+10	1	-1E+10	1	-1E+10	1	-1E+10	1
4902549	99	C	05/10/2023	22:58	-133.164	47.362	0	393.20	0	4.7050	0	33.9210	0	26.856	0	389.553	0	67.1	4	21.5	4	-1E+10	1	-1E+10	1	-1E+10	1	-1E+10	1	-1E+10	1	-1E+10	1
4902549	99	C	05/10/2023	22:58	-133.164	47.362	0	397.90	0	4.6870	0	33.9260	0	26.862	0	394.205	0	65.9	4	21.1	4	-1E+10	1	-1E+10	1	-1E+10	1	-1E+10	1	-1E+10	1	-1E+10	1
4902549	99	C	05/10/2023	22:58	-133.164	47.362	0	402.60	0	4.6770	0	33.9300	0	26.867	0	398.857	0	65.0	4	20.8	4	-1E+10	1	-1E+10	1	-1E+10	1	-1E+10	1	-1E+10	1	-1E+10	1
4902549	99	C	05/10/2023	22:58	-133.164	47.362	0	407.80	0	4.6670	0	33.9330	0	26.870	0	404.003	0	63.9	4	20.5	4	-1E+10	1	-1E+10	1	-1E+10	1	-1E+10	1	-1E+10	1	-1E+10	1
4902549	99	C	05/10/2023	22:58	-133.164	47.362	0	413.00	0	4.6540	0	33.9380	0	26.876	0	409.150	0	62.9	4	20.1	4	-1E+10	1	-1E+10	1	-1E+10	1	-1E+10	1	-1E+10	1	-1E+10	1
4902549	99	C	05/10/2023	22:58	-133.164	47.362	0	417.70	0	4.6490	0	33.9390	0	26.877	0	413.801	0	61.7	4	19.8	4	-1E+10	1	-1E+10	1	-1E+10	1	-1E+10	1	-1E+10	1	-1E+10	1
4902549	99	C	05/10/2023	22:58	-133.164	47.362	0	422.90	0	4.6310	0	33.9450	0	26.884	0	418.947	0	59.7	4	19.1	4	-1E+10	1	-1E+10	1	-1E+10	1	-1E+10	1	-1E+10	1	-1E+10	1
4902549	99	C	05/10/2023	22:58	-133.164	47.362	0	428.20	0	4.6030	0	33.9540	0	26.894	0	424.192	0	58.1	4	18.6	4	-1E+10	1	-1E+10	1	-1E+10	1	-1E+10	1	-1E+10	1	-1E+10	1
4902549	99	C	05/10/2023	22:58	-133.164	47.362	0	433.00	0	4.5760	0	33.9600	0	26.902	0	428.943	0	57.1	4	18.2	4	-1E+10	1	-1E+10	1	-1E+10	1	-1E+10	1	-1E+10	1	-1E+10	1
4902549	99	C	05/10/2023	22:58	-133.164	47.362	0	437.80	0	4.5620	0	33.9640	0	26.906	0	433.693	0	56.0	4	17.9	4	-1E+10	1	-1E+10	1	-1E+10	1	-1E+10	1	-1E+10	1	-1E+10	1
4902549	99	C	05/10/2023	22:58	-133.164	47.362	0	442.70	0	4.5530	0	33.9670	0	26.910	0	438.541	0	54.7	4	17.5	4	-1E+10	1	-1E+10	1	-1E+10	1	-1E+10	1	-1E+10	1	-1E+10	1
4902549	99	C	05/10/2023	22:58	-133.164	47.362	0	447.60	0	4.5440	0	33.9710	0	26.914	0	443.390	0	53.2	4	17.0	4	-1E+10	1	-1E+10	1	-1E+10	1	-1E+10	1	-1E+10	1	-1E+10	1
4902549	99	C	05/10/2023	22:58	-133.164	47.362	0	452.50	0	4.5320	0	33.9760	0	26.919	0	448.239	0	51.5	4	16.4	4	-1E+10	1	-1E+10	1	-1E+10	1	-1E+10	1	-1E+10	1	-1E+10	1
4902549	99	C	05/10/2023	22:58	-133.164	47.362	0	457.90	0	4.5140	0	33.9830	0	26.927	0	453.582	0	49.8	4	15.9	4	-1E+10	1	-1E+10	1	-1E+10	1	-1E+10	1	-1E+10	1	-1E+10	1
4902549	99	C	05/10/2023	22:58	-133.164	47.362	0	463.30	0	4.5010	0	33.9880	0	26.932	0	458.925	0	48.5	4	15.5	4	-1E+10	1	-1E+10	1	-1E+10	1	-1E+10	1	-1E+10	1	-1E+10	1
4902549	99	C	05/10/2023	22:58	-133.164	47.362	0	468.30	0	4.4890	0	33.9920	0	26.937	0	463.872	0	47.2	4	15.1	4	-1E+10	1	-1E+10	1	-1E+10	1	-1E+10	1	-1E+10	1	-1E+10	1
4902549	99	C	05/10/2023	22:58	-133.164	47.362	0	473.40	0	4.4730	0	33.9960	0	26.942	0	468.918	0	45.6	4	14.5	4	-1E+10	1	-1E+10	1	-1E+10	1	-1E+10	1	-1E+10	1	-1E+10	1
4902549	99	C	05/10/2023	22:58	-133.164	47.362	0	477.90	0	4.4530	0	34.0030	0	26.949	0	473.371	0	44.4	4	14.1	4	-1E+10	1	-1E+10	1	-1E+10	1	-1E+10	1	-1E+10	1	-1E+10	1
4902549	99	C	05/10/2023	22:58	-133.164	47.362	0	482.50	0	4.4370	0	34.0070	0	26.954	0	477.922	0	43.3	4	13.8	4	-1E+10	1	-1E+10	1	-1E+10	1	-1E+10	1	-1E+10	1	-1E+10	1
4902549	99	C	05/10/2023	22:58	-133.164	47.362	0	487.70	0	4.4250	0	34.0100	0	26.958	0	483.066	0	42.1	4	13.4	4	-1E+10	1	-1E+10	1	-1E+10	1	-1E+10	1	-1E+10	1	-1E+10	1
4902549	99	C	05/10/2023	22:58	-133.164	47.362	0	492.80	0	4.4080	0	34.0150	0	26.964	0	488.112	0	40.9	4	13.0	4	-1E+10	1	-1E+10	1	-1E+10	1	-1E+10	1	-1E+10	1	-1E+10	1
4902549	99	C	05/10/2023	22:58	-133.164	47.362	0	497.80	0	4.3910	0	34.0190	0	26.969	0	493.058	0	39.6	4	12.6	4	-1E+10	1	-1E+10	1	-1E+10	1	-1E+10	1	-1E+10	1	-1E+10	1
4902549	99	C	05/10/2023	22:58	-133.164	47.362	0	502.80	0	4.3640	0	34.0260	0	26.977	0	498.005	0	38.4	4	12.2	4	-1E+10	1	-1E+10	1	-1E+10	1	-1E+10	1	-1E+10	1	-1E+10	1
4902549	99	C	05/10/2023	22:58	-133.164	47.362	0	508.00	0	4.3490	0	34.0310	0	26.983	0	503.149	0	37.3	4	11.9	4	-1E+10	1	-1E+10	1	-1E+10	1	-1E+10	1	-1E+10	1	-1E+10	1
4902549	99	C	05/10/2023	22:58	-133.164	47.362	0	512.80	0	4.3360	0	34.0350	0	26.988	0	507.897	0	36.1	4	11.5	4	-1E+10	1	-1E+10	1	-1E+10	1	-1E+10	1	-1E+10	1	-1E+10	1
4902549	99	C	05/10/2023	22:58	-133.164	47.362	0	517.80	0	4.3210	0	34.0400	0	26.993	0	512.843	0	34.6	4	11.0	4	-1E+10	1	-1E+10	1	-1E+10	1	-1E+10	1	-1E+10	1	-1E+10	1
4902549	99	C	05/10/2023	22:58	-133.164	47.362	0	523.00	0	4.3020	0	34.0490	0	27.002	0	517.987	0	33.3	4	10.6	4	-1E+10	1	-1E+10	1	-1E+10	1	-1E+10	1	-1E+10	1	-1E+10	1
4902549	99	C	05/10/2023	22:58	-133.164	47.362	0	527.80	0	4.2830	0	34.0540	0	27.008	0	522.735	0	32.4	4	10.3	4	-1E+10	1	-1E+10	1	-1E+10	1	-1E+10	1	-1E+10	1	-1E+10	1
4902549	99	C	05/10/2023	22:58	-133.164	47.362	0	532.70	0	4.2680	0	34.0590	0	27.014	0	527.582	0	31.8	4	10.1	4	-1E+10	1	-1E+10	1	-1E+10	1	-1E+10	1	-1E+10	1	-1E+10	1
4902549	99	C	05/10/2023	22:58	-133.164	47.362	0	538.00	0	4.2570	0	34.0620	0	27.018	0	532.824	0	31.0	4	9.8	4	-1E+10	1	-1E+10	1	-1E+10	1	-1E+10	1	-1E+10	1	-1E+10	1
4902549	99	C	05/10/2023	22:58	-133.164	47.362	0	542.90	0	4.2350	0	34.0650	0	27.022	0	537.671	0	30.3	4	9.6	4	-1E+10	1	-1E+10	1	-1E+10	1	-1E+10	1	-1E+10	1	-1E+10	1
4902549	99	C	05/10/2023	22:58	-133.164	47.362	0	547.80	0	4.2100	0	34.0700	0	27.029	0	542.517	0	29.3	4	9.3	4	-1E+10	1	-1E+10	1	-1E+10	1	-1E+10	1	-1E+10	1	-1E+10	1
4902549	99	C	05/10/2023	22:58	-133.164	47.362	0	553.10	0	4.1890	0	34.0760	0	27.036	0	547.759	0	28.3	4	9.0	4	-1E+10	1	-1E+10	1	-1E+10	1	-1E+10	1	-1E+10	1	-1E+10	1
4902549	99	C	05/10/2023	22:58	-133.164	47.362	0	557.90	0	4.1820	0	34.0820	0	27.041	0	552.506	0	27.3	4	8.6	4	-1E+10	1	-1E+10	1	-1E+10	1	-1E+10	1	-1E+10	1	-1E+10	1
4902549	99	C	05/10/2023	22:58	-133.164	47.362	0	562.80	0	4.1680	0	34.0880	0	27.048	0	557.352	0	26.8	4	8.5	4	-1E+10	1	-1E+10	1	-1E+10	1	-1E+10	1	-1E+10	1	-1E+10	1
4902549	99	C	05/10/2023	22:58	-133.164	47.362	0	568.10	0	4.1320	0	34.0930	0	27.055	0	562.594	0	26.5	4	8.4	4	-1E+10	1	-1E+10	1	-1E+10	1	-1E+10	1	-1E+10	1	-1E+10	1
4902549	99	C	05/10/2023	22:58	-133.164	47.362	0	573.20	0	4.1090	0	34.0970	0	27.061	0	567.637	0	25.9	4	8.2	4	-1E+10	1	-1E+10	1	-1E+10	1	-1E+10	1	-1E+10	1	-1E+10	1
4902549	99	C	05/10/2023	22:58	-133.164	47.362	0	578.00	0	4.1030	0	34.1010	0	27.065	0	572.384	0	25.3	4	8.0	4	-1E+10	1	-1E+10	1	-1E+10	1	-1E+10	1	-1E+10	1	-1E+10	1
4902549	99	C	05/10/2023	22:58	-133.164	47.362	0	582.70	0	4.0840	0	34.1050	0	27.070	0	577.032	0	24.7	4	7.8	4	-1E+10	1	-1E+10	1	-1E+10	1	-1E+10	1	-1E+10	1	-1E+10	1
4902549	99	C	05/10/2023	22:58	-133.164	47.362	0	587.90	0	4.0590	0	34.1090	0	27.076	0	582.174	0	24.2	4	7.6	4	-1E+10	1	-1E+10	1	-1E+10	1	-1E+10	1	-1E+10	1	-1E+10	1
4902549	99	C	05/10/2023	22:58	-133.164	47.362	0	593.00	0	4.0430	0	34.1140	0	27.081	0	587.217	0	23.6	4	7.5	4	-1E+10	1	-1E+10	1	-1E+10	1	-1E+10	1	-1E+10	1	-1E+10	1
4902549	99	C	05/10/2023	22:58	-133.164	47.362	0	597.80	0	4.0200	0	34.1190	0	27.088	0	591.964	0	23.1	4	7.3	4	-1E+10	1	-1E+10	1	-1E+10	1	-1E+10	1	-1E+10	1	-1E+10	1
4902549	99	C	05/10/2023	22:58	-133.164	47.362	0	602.60	0	4.0090	0	34.1230	0	27.092	0	596.710	0	22.7	4	7.2	4	-1E+10	1	-1E+10	1	-1E+10	1	-1E+10	1	-1E+10	1	-1E+10	1
4902549	99	C	05/10/2023	22:58	-133.164	47.362	0	607.70	0	3.9970	0	34.1260	0	27.096	0	601.753	0	22.2	4	7.0	4	-1E+10	1	-1E+10	1	-1E+10	1	-1E+10	1	-1E+10	1	-1E+10	1
4902549	99	C	05/10/2023	22:58	-133.164	47.362	0	613.00	0	3.9850	0	34.1300	0	27.100	0	606.993	0	21.8	4	6.9	4	-1E+10	1	-1E+10	1	-1E+10	1	-1E+10	1	-1E+10	1	-1E+10	1
4902549	99	C	05/10/2023	22:58	-133.164	47.362	0	618.00	0	3.9750	0	34.1330	0	27.104	0	611.937	0	21.3	4	6.7	4	-1E+10	1	-1E+10	1	-1E+10	1	-1E+10	1	-1E+10	1	-1E+10	1
4902549	99	C	05/10/2023	22:58	-133.164	47.362	0	622.90	0	3.9670	0	34.1350	0	27.106	0	616.781	0	20.6	4	6.5	4	-1E+10	1	-1E+10	1	-1E+10	1	-1E+10	1	-1E+10	1	-1E+10	1
4902549	99	C	05/10/2023	22:58	-133.164	47.362	0	628.00	0	3.9460	0	34.1420	0	27.114	0	621.824	0	19.6	4	6.2	4	-1E+10	1	-1E+10	1	-1E+10	1	-1E+10	1	-1E+10	1	-1E+10	1
4902549	99	C	05/10/2023	22:58	-133.164	47.362	0	632.70	0	3.9220	0	34.1490	0	27.122	0	626.470	0	19.0	4	6.0	4	-1E+10	1	-1E+10	1	-1E+10	1	-1E+10	1	-1E+10	1	-1E+10	1
4902549	99	C	05/10/2023	22:58	-133.164	47.362	0	638.00	0	3.9070	0	34.1550	0	27.128	0	631.710	0	18.5	4	5.8	4	-1E+10	1	-1E+10	1	-1E+10	1	-1E+10	1	-1E+10	1	-1E+10	1
4902549	99	C	05/10/2023	22:58	-133.164	47.362	0	643.20	0	3.8990	0	34.1570	0	27.131	0	636.851	0	18.1	4	5.7	4	-1E+10	1	-1E+10	1	-1E+10	1	-1E+10	1	-1E+10	1	-1E+10	1
4902549	99	C	05/10/2023	22:58	-133.164	47.362	0	648.20	0	3.8790	0	34.1620	0	27.137	0	641.794	0	17.8	4	5.6	4	-1E+10	1	-1E+10	1	-1E+10	1	-1E+10	1	-1E+10	1	-1E+10	1
4902549	99	C	05/10/2023	22:58	-133.164	47.362	0	653.10	0	3.8710	0	34.1650	0	27.140	0	646.638	0	17.5	4	5.5	4	-1E+10	1	-1E+10	1	-1E+10	1	-1E+10	1	-1E+10	1	-1E+10	1
4902549	99	C	05/10/2023	22:58	-133.164	47.362	0	658.20	0	3.8620	0	34.1670	0	27.142	0	651.680	0	17.2	4	5.4	4	-1E+10	1	-1E+10	1	-1E+10	1	-1E+10	1	-1E+10	1	-1E+10	1
4902549	99	C	05/10/2023	22:58	-133.164	47.362	0	663.30	0	3.8570	0	34.1680	0	27.144	0	656.721	0	16.8	4	5.3	4	-1E+10	1	-1E+10	1	-1E+10	1	-1E+10	1	-1E+10	1	-1E+10	1
4902549	99	C	05/10/2023	22:58	-133.164	47.362	0	667.90	0	3.8480	0	34.1710	0	27.147	0	661.268	0	16.3	4	5.1	4	-1E+10	1	-1E+10	1	-1E+10	1	-1E+10	1	-1E+10	1	-1E+10	1
4902549	99	C	05/10/2023	22:58	-133.164	47.362	0	672.90	0	3.8380	0	34.1760	0	27.152	0	666.210	0	15.6	4	4.9	4	-1E+10	1	-1E+10	1	-1E+10	1	-1E+10	1	-1E+10	1	-1E+10	1
4902549	99	C	05/10/2023	22:58	-133.164	47.362	0	678.00	0	3.8280	0	34.1790	0	27.155	0	671.252	0	14.8	4	4.7	4	-1E+10	1	-1E+10	1	-1E+10	1	-1E+10	1	-1E+10	1	-1E+10	1
4902549	99	C	05/10/2023	22:58	-133.164	47.362	0	682.80	0	3.8220	0	34.1870	0	27.162	0	675.996	0	13.9	4	4.4	4	-1E+10	1	-1E+10	1	-1E+10	1	-1E+10	1	-1E+10	1	-1E+10	1
4902549	99	C	05/10/2023	22:58	-133.164	47.362	0	687.80	0	3.8230	0	34.1940	0	27.168	0	680.938	0	13.4	4	4.2	4	-1E+10	1	-1E+10	1	-1E+10	1	-1E+10	1	-1E+10	1	-1E+10	1
4902549	99	C	05/10/2023	22:58	-133.164	47.362	0	692.90	0	3.8170	0	34.1980	0	27.172	0	685.979	0	13.1	4	4.1	4	-1E+10	1	-1E+10	1	-1E+10	1	-1E+10	1	-1E+10	1	-1E+10	1
4902549	99	C	05/10/2023	22:58	-133.164	47.362	0	698.10	0	3.7990	0	34.2000	0	27.175	0	691.118	0	12.6	4	4.0	4	-1E+10	1	-1E+10	1	-1E+10	1	-1E+10	1	-1E+10	1	-1E+10	1
4902549	99	C	05/10/2023	22:58	-133.164	47.362	0	703.20	0	3.7940	0	34.2060	0	27.181	0	696.159	0	12.1	4	3.8	4	-1E+10	1	-1E+10	1	-1E+10	1	-1E+10	1	-1E+10	1	-1E+10	1
4902549	99	C	05/10/2023	22:58	-133.164	47.362	0	708.10	0	3.7830	0	34.2110	0	27.186	0	701.001	0	11.5	4	3.6	4	-1E+10	1	-1E+10	1	-1E+10	1	-1E+10	1	-1E+10	1	-1E+10	1
4902549	99	C	05/10/2023	22:58	-133.164	47.362	0	712.90	0	3.7840	0	34.2170	0	27.190	0	705.745	0	11.2	4	3.5	4	-1E+10	1	-1E+10	1	-1E+10	1	-1E+10	1	-1E+10	1	-1E+10	1
4902549	99	C	05/10/2023	22:58	-133.164	47.362	0	717.90	0	3.7770	0	34.2190	0	27.193	0	710.686	0	11.0	4	3.4	4	-1E+10	1	-1E+10	1	-1E+10	1	-1E+10	1	-1E+10	1	-1E+10	1
4902549	99	C	05/10/2023	22:58	-133.164	47.362	0	722.80	0	3.7590	0	34.2230	0	27.198	0	715.529	0	10.7	4	3.4	4	-1E+10	1	-1E+10	1	-1E+10	1	-1E+10	1	-1E+10	1	-1E+10	1
4902549	99	C	05/10/2023	22:58	-133.164	47.362	0	727.80	0	3.7360	0	34.2280	0	27.204	0	720.470	0	10.5	4	3.3	4	-1E+10	1	-1E+10	1	-1E+10	1	-1E+10	1	-1E+10	1	-1E+10	1
4902549	99	C	05/10/2023	22:58	-133.164	47.362	0	732.80	0	3.7340	0	34.2300	0	27.206	0	725.411	0	10.1	4	3.2	4	-1E+10	1	-1E+10	1	-1E+10	1	-1E+10	1	-1E+10	1	-1E+10	1
4902549	99	C	05/10/2023	22:58	-133.164	47.362	0	737.70	0	3.7290	0	34.2330	0	27.209	0	730.253	0	9.8	4	3.1	4	-1E+10	1	-1E+10	1	-1E+10	1	-1E+10	1	-1E+10	1	-1E+10	1
4902549	99	C	05/10/2023	22:58	-133.164	47.362	0	742.70	0	3.7170	0	34.2380	0	27.214	0	735.194	0	9.4	4	2.9	4	-1E+10	1	-1E+10	1	-1E+10	1	-1E+10	1	-1E+10	1	-1E+10	1
4902549	99	C	05/10/2023	22:58	-133.164	47.362	0	747.70	0	3.7040	0	34.2410	0	27.218	0	740.134	0	8.9	4	2.8	4	-1E+10	1	-1E+10	1	-1E+10	1	-1E+10	1	-1E+10	1	-1E+10	1
4902549	99	C	05/10/2023	22:58	-133.164	47.362	0	752.70	0	3.7220	0	34.2490	0	27.222	0	745.075	0	8.0	4	2.5	4	-1E+10	1	-1E+10	1	-1E+10	1	-1E+10	1	-1E+10	1	-1E+10	1
4902549	99	C	05/10/2023	22:58	-133.164	47.362	0	758.00	0	3.7620	0	34.2580	0	27.226	0	750.311	0	7.4	4	2.3	4	-1E+10	1	-1E+10	1	-1E+10	1	-1E+10	1	-1E+10	1	-1E+10	1
4902549	99	C	05/10/2023	22:58	-133.164	47.362	0	763.00	0	3.7490	0	34.2630	0	27.231	0	755.252	0	7.2	4	2.3	4	-1E+10	1	-1E+10	1	-1E+10	1	-1E+10	1	-1E+10	1	-1E+10	1
4902549	99	C	05/10/2023	22:58	-133.164	47.362	0	767.90	0	3.7460	0	34.2680	0	27.235	0	760.093	0	7.1	4	2.2	4	-1E+10	1	-1E+10	1	-1E+10	1	-1E+10	1	-1E+10	1	-1E+10	1
4902549	99	C	05/10/2023	22:58	-133.164	47.362	0	772.90	0	3.7270	0	34.2730	0	27.241	0	765.033	0	6.9	4	2.2	4	-1E+10	1	-1E+10	1	-1E+10	1	-1E+10	1	-1E+10	1	-1E+10	1
4902549	99	C	05/10/2023	22:58	-133.164	47.362	0	778.00	0	3.7220	0	34.2760	0	27.244	0	770.072	0	6.8	4	2.1	4	-1E+10	1	-1E+10	1	-1E+10	1	-1E+10	1	-1E+10	1	-1E+10	1
4902549	99	C	05/10/2023	22:58	-133.164	47.362	0	783.10	0	3.7100	0	34.2790	0	27.248	0	775.110	0	6.8	4	2.1	4	-1E+10	1	-1E+10	1	-1E+10	1	-1E+10	1	-1E+10	1	-1E+10	1
4902549	99	C	05/10/2023	22:58	-133.164	47.362	0	787.80	0	3.6880	0	34.2830	0	27.253	0	779.753	0	6.8	4	2.1	4	-1E+10	1	-1E+10	1	-1E+10	1	-1E+10	1	-1E+10	1	-1E+10	1
4902549	99	C	05/10/2023	22:58	-133.164	47.362	0	793.00	0	3.6540	0	34.2840	0	27.257	0	784.891	0	6.7	4	2.1	4	-1E+10	1	-1E+10	1	-1E+10	1	-1E+10	1	-1E+10	1	-1E+10	1
4902549	99	C	05/10/2023	22:58	-133.164	47.362	0	798.10	0	3.6490	0	34.2870	0	27.260	0	789.929	0	6.6	4	2.1	4	-1E+10	1	-1E+10	1	-1E+10	1	-1E+10	1	-1E+10	1	-1E+10	1
4902549	99	C	05/10/2023	22:58	-133.164	47.362	0	802.80	0	3.6420	0	34.2900	0	27.263	0	794.572	0	6.5	4	2.0	4	-1E+10	1	-1E+10	1	-1E+10	1	-1E+10	1	-1E+10	1	-1E+10	1
4902549	99	C	05/10/2023	22:58	-133.164	47.362	0	808.00	0	3.6350	0	34.2930	0	27.266	0	799.709	0	6.4	4	2.0	4	-1E+10	1	-1E+10	1	-1E+10	1	-1E+10	1	-1E+10	1	-1E+10	1
4902549	99	C	05/10/2023	22:58	-133.164	47.362	0	813.30	0	3.6250	0	34.2980	0	27.271	0	804.944	0	6.3	4	2.0	4	-1E+10	1	-1E+10	1	-1E+10	1	-1E+10	1	-1E+10	1	-1E+10	1
4902549	99	C	05/10/2023	22:58	-133.164	47.362	0	818.00	0	3.6090	0	34.3010	0	27.275	0	809.587	0	6.3	4	2.0	4	-1E+10	1	-1E+10	1	-1E+10	1	-1E+10	1	-1E+10	1	-1E+10	1
4902549	99	C	05/10/2023	22:58	-133.164	47.362	0	822.90	0	3.6020	0	34.3050	0	27.279	0	814.427	0	6.3	4	2.0	4	-1E+10	1	-1E+10	1	-1E+10	1	-1E+10	1	-1E+10	1	-1E+10	1
4902549	99	C	05/10/2023	22:58	-133.164	47.362	0	827.80	0	3.5950	0	34.3060	0	27.281	0	819.267	0	6.3	4	2.0	4	-1E+10	1	-1E+10	1	-1E+10	1	-1E+10	1	-1E+10	1	-1E+10	1
4902549	99	C	05/10/2023	22:58	-133.164	47.362	0	832.70	0	3.5830	0	34.3090	0	27.284	0	824.106	0	6.3	4	2.0	4	-1E+10	1	-1E+10	1	-1E+10	1	-1E+10	1	-1E+10	1	-1E+10	1
4902549	99	C	05/10/2023	22:58	-133.164	47.362	0	837.70	0	3.5840	0	34.3130	0	27.287	0	829.045	0	6.2	4	1.9	4	-1E+10	1	-1E+10	1	-1E+10	1	-1E+10	1	-1E+10	1	-1E+10	1
4902549	99	C	05/10/2023	22:58	-133.164	47.362	0	842.70	0	3.5610	0	34.3150	0	27.291	0	833.983	0	6.2	4	1.9	4	-1E+10	1	-1E+10	1	-1E+10	1	-1E+10	1	-1E+10	1	-1E+10	1
4902549	99	C	05/10/2023	22:58	-133.164	47.362	0	847.70	0	3.5420	0	34.3180	0	27.295	0	838.921	0	6.2	4	1.9	4	-1E+10	1	-1E+10	1	-1E+10	1	-1E+10	1	-1E+10	1	-1E+10	1
4902549	99	C	05/10/2023	22:58	-133.164	47.362	0	852.80	0	3.5410	0	34.3200	0	27.297	0	843.958	0	6.2	4	1.9	4	-1E+10	1	-1E+10	1	-1E+10	1	-1E+10	1	-1E+10	1	-1E+10	1
4902549	99	C	05/10/2023	22:58	-133.164	47.362	0	858.10	0	3.5380	0	34.3210	0	27.298	0	849.193	0	6.2	4	1.9	4	-1E+10	1	-1E+10	1	-1E+10	1	-1E+10	1	-1E+10	1	-1E+10	1
4902549	99	C	05/10/2023	22:58	-133.164	47.362	0	862.90	0	3.5290	0	34.3240	0	27.302	0	853.933	0	6.1	4	1.9	4	-1E+10	1	-1E+10	1	-1E+10	1	-1E+10	1	-1E+10	1	-1E+10	1
4902549	99	C	05/10/2023	22:58	-133.164	47.362	0	867.50	0	3.5180	0	34.3270	0	27.305	0	858.476	0	6.1	4	1.9	4	-1E+10	1	-1E+10	1	-1E+10	1	-1E+10	1	-1E+10	1	-1E+10	1
4902549	99	C	05/10/2023	22:58	-133.164	47.362	0	872.90	0	3.4960	0	34.3290	0	27.309	0	863.808	0	6.1	4	1.9	4	-1E+10	1	-1E+10	1	-1E+10	1	-1E+10	1	-1E+10	1	-1E+10	1
4902549	99	C	05/10/2023	22:58	-133.164	47.362	0	878.20	0	3.4810	0	34.3310	0	27.312	0	869.042	0	6.1	4	1.9	4	-1E+10	1	-1E+10	1	-1E+10	1	-1E+10	1	-1E+10	1	-1E+10	1
4902549	99	C	05/10/2023	22:58	-133.164	47.362	0	883.10	0	3.4710	0	34.3320	0	27.314	0	873.881	0	6.1	4	1.9	4	-1E+10	1	-1E+10	1	-1E+10	1	-1E+10	1	-1E+10	1	-1E+10	1
4902549	99	C	05/10/2023	22:58	-133.164	47.362	0	887.90	0	3.4680	0	34.3380	0	27.319	0	878.621	0	6.0	4	1.9	4	-1E+10	1	-1E+10	1	-1E+10	1	-1E+10	1	-1E+10	1	-1E+10	1
4902549	99	C	05/10/2023	22:58	-133.164	47.362	0	893.00	0	3.4700	0	34.3420	0	27.322	0	883.657	0	5.9	4	1.9	4	-1E+10	1	-1E+10	1	-1E+10	1	-1E+10	1	-1E+10	1	-1E+10	1
4902549	99	C	05/10/2023	22:58	-133.164	47.362	0	898.00	0	3.4530	0	34.3440	0	27.325	0	888.594	0	6.0	4	1.9	4	-1E+10	1	-1E+10	1	-1E+10	1	-1E+10	1	-1E+10	1	-1E+10	1
4902549	99	C	05/10/2023	22:58	-133.164	47.362	0	903.10	0	3.4350	0	34.3460	0	27.328	0	893.629	0	6.0	4	1.9	4	-1E+10	1	-1E+10	1	-1E+10	1	-1E+10	1	-1E+10	1	-1E+10	1
4902549	99	C	05/10/2023	22:58	-133.164	47.362	0	907.80	0	3.4180	0	34.3480	0	27.332	0	898.270	0	6.0	4	1.9	4	-1E+10	1	-1E+10	1	-1E+10	1	-1E+10	1	-1E+10	1	-1E+10	1
4902549	99	C	05/10/2023	22:58	-133.164	47.362	0	912.70	0	3.4010	0	34.3500	0	27.335	0	903.108	0	6.0	4	1.9	4	-1E+10	1	-1E+10	1	-1E+10	1	-1E+10	1	-1E+10	1	-1E+10	1
4902549	99	C	05/10/2023	22:58	-133.164	47.362	0	918.00	0	3.3830	0	34.3530	0	27.339	0	908.341	0	6.0	4	1.9	4	-1E+10	1	-1E+10	1	-1E+10	1	-1E+10	1	-1E+10	1	-1E+10	1
4902549	99	C	05/10/2023	22:58	-133.164	47.362	0	922.90	0	3.3700	0	34.3550	0	27.342	0	913.179	0	6.0	4	1.9	4	-1E+10	1	-1E+10	1	-1E+10	1	-1E+10	1	-1E+10	1	-1E+10	1
4902549	99	C	05/10/2023	22:58	-133.164	47.362	0	927.60	0	3.3580	0	34.3570	0	27.345	0	917.819	0	6.1	4	1.9	4	-1E+10	1	-1E+10	1	-1E+10	1	-1E+10	1	-1E+10	1	-1E+10	1
4902549	99	C	05/10/2023	22:58	-133.164	47.362	0	932.80	0	3.3450	0	34.3580	0	27.347	0	922.952	0	6.1	4	1.9	4	-1E+10	1	-1E+10	1	-1E+10	1	-1E+10	1	-1E+10	1	-1E+10	1
4902549	99	C	05/10/2023	22:58	-133.164	47.362	0	938.00	0	3.3280	0	34.3590	0	27.349	0	928.086	0	6.1	4	1.9	4	-1E+10	1	-1E+10	1	-1E+10	1	-1E+10	1	-1E+10	1	-1E+10	1
4902549	99	C	05/10/2023	22:58	-133.164	47.362	0	942.90	0	3.3220	0	34.3600	0	27.351	0	932.923	0	6.1	4	1.9	4	-1E+10	1	-1E+10	1	-1E+10	1	-1E+10	1	-1E+10	1	-1E+10	1
4902549	99	C	05/10/2023	22:58	-133.164	47.362	0	947.70	0	3.3160	0	34.3620	0	27.353	0	937.662	0	6.1	4	1.9	4	-1E+10	1	-1E+10	1	-1E+10	1	-1E+10	1	-1E+10	1	-1E+10	1
4902549	99	C	05/10/2023	22:58	-133.164	47.362	0	952.50	0	3.3050	0	34.3640	0	27.355	0	942.400	0	6.2	4	1.9	4	-1E+10	1	-1E+10	1	-1E+10	1	-1E+10	1	-1E+10	1	-1E+10	1
4902549	99	C	05/10/2023	22:58	-133.164	47.362	0	957.50	0	3.2970	0	34.3660	0	27.358	0	947.336	0	6.2	4	1.9	4	-1E+10	1	-1E+10	1	-1E+10	1	-1E+10	1	-1E+10	1	-1E+10	1
4902549	99	C	05/10/2023	22:58	-133.164	47.362	0	962.40	0	3.2900	0	34.3680	0	27.360	0	952.173	0	6.2	4	1.9	4	-1E+10	1	-1E+10	1	-1E+10	1	-1E+10	1	-1E+10	1	-1E+10	1
4902549	99	C	05/10/2023	22:58	-133.164	47.362	0	967.50	0	3.2970	0	34.3720	0	27.363	0	957.207	0	6.3	4	2.0	4	-1E+10	1	-1E+10	1	-1E+10	1	-1E+10	1	-1E+10	1	-1E+10	1
4902549	99	C	05/10/2023	22:58	-133.164	47.362	0	972.60	0	3.2800	0	34.3760	0	27.367	0	962.241	0	6.3	4	2.0	4	-1E+10	1	-1E+10	1	-1E+10	1	-1E+10	1	-1E+10	1	-1E+10	1
4902549	99	C	05/10/2023	22:58	-133.164	47.362	0	977.70	0	3.2750	0	34.3770	0	27.369	0	967.275	0	6.4	4	2.0	4	-1E+10	1	-1E+10	1	-1E+10	1	-1E+10	1	-1E+10	1	-1E+10	1
4902549	99	C	05/10/2023	22:58	-133.164	47.362	0	982.90	0	3.2750	0	34.3770	0	27.369	0	972.407	0	6.4	4	2.0	4	-1E+10	1	-1E+10	1	-1E+10	1	-1E+10	1	-1E+10	1	-1E+10	1
4902549	99	C	05/10/2023	22:58	-133.164	47.362	0	988.00	0	3.2600	0	34.3810	0	27.373	0	977.441	0	6.5	4	2.0	4	-1E+10	1	-1E+10	1	-1E+10	1	-1E+10	1	-1E+10	1	-1E+10	1
4902549	99	C	05/10/2023	22:58	-133.164	47.362	0	992.90	0	3.2550	0	34.3820	0	27.375	0	982.277	0	6.5	4	2.0	4	-1E+10	1	-1E+10	1	-1E+10	1	-1E+10	1	-1E+10	1	-1E+10	1
4902549	99	C	05/10/2023	22:58	-133.164	47.362	0	997.70	0	3.2470	0	34.3840	0	27.377	0	987.015	0	6.6	4	2.0	4	-1E+10	1	-1E+10	1	-1E+10	1	-1E+10	1	-1E+10	1	-1E+10	1
4902549	99	C	05/10/2023	22:58	-133.164	47.362	0	1005.20	0	3.2440	0	34.3850	0	27.378	0	994.416	0	6.6	4	2.1	4	-1E+10	1	-1E+10	1	-1E+10	1	-1E+10	1	-1E+10	1	-1E+10	1
4902549	99	C	05/10/2023	22:58	-133.164	47.362	0	1015.00	0	3.2240	0	34.3880	0	27.382	0	1004.088	0	6.7	4	2.1	4	-1E+10	1	-1E+10	1	-1E+10	1	-1E+10	1	-1E+10	1	-1E+10	1
4902549	99	C	05/10/2023	22:58	-133.164	47.362	0	1025.40	0	3.2090	0	34.3900	0	27.386	0	1014.351	0	6.8	4	2.1	4	-1E+10	1	-1E+10	1	-1E+10	1	-1E+10	1	-1E+10	1	-1E+10	1
4902549	99	C	05/10/2023	22:58	-133.164	47.362	0	1035.70	0	3.1980	0	34.3920	0	27.388	0	1024.515	0	6.9	4	2.1	4	-1E+10	1	-1E+10	1	-1E+10	1	-1E+10	1	-1E+10	1	-1E+10	1
4902549	99	C	05/10/2023	22:58	-133.164	47.362	0	1045.60	0	3.1840	0	34.3950	0	27.392	0	1034.283	0	6.9	4	2.1	4	-1E+10	1	-1E+10	1	-1E+10	1	-1E+10	1	-1E+10	1	-1E+10	1
4902549	99	C	05/10/2023	22:58	-133.164	47.362	0	1055.30	0	3.1770	0	34.3960	0	27.393	0	1043.854	0	7.0	4	2.2	4	-1E+10	1	-1E+10	1	-1E+10	1	-1E+10	1	-1E+10	1	-1E+10	1
4902549	99	C	05/10/2023	22:58	-133.164	47.362	0	1065.30	0	3.1720	0	34.3960	0	27.394	0	1053.721	0	7.0	4	2.2	4	-1E+10	1	-1E+10	1	-1E+10	1	-1E+10	1	-1E+10	1	-1E+10	1
4902549	99	C	05/10/2023	22:58	-133.164	47.362	0	1075.50	0	3.1510	0	34.3990	0	27.398	0	1063.784	0	7.2	4	2.2	4	-1E+10	1	-1E+10	1	-1E+10	1	-1E+10	1	-1E+10	1	-1E+10	1
4902549	99	C	05/10/2023	22:58	-133.164	47.362	0	1085.30	0	3.1280	0	34.4020	0	27.403	0	1073.452	0	7.4	4	2.3	4	-1E+10	1	-1E+10	1	-1E+10	1	-1E+10	1	-1E+10	1	-1E+10	1
4902549	99	C	05/10/2023	22:58	-133.164	47.362	0	1095.50	0	3.1050	0	34.4060	0	27.408	0	1083.515	0	7.6	4	2.3	4	-1E+10	1	-1E+10	1	-1E+10	1	-1E+10	1	-1E+10	1	-1E+10	1
4902549	99	C	05/10/2023	22:58	-133.164	47.362	0	1105.70	0	3.0790	0	34.4100	0	27.414	0	1093.576	0	7.8	4	2.4	4	-1E+10	1	-1E+10	1	-1E+10	1	-1E+10	1	-1E+10	1	-1E+10	1
4902549	99	C	05/10/2023	22:58	-133.164	47.362	0	1115.40	0	3.0460	0	34.4140	0	27.420	0	1103.145	0	8.0	4	2.5	4	-1E+10	1	-1E+10	1	-1E+10	1	-1E+10	1	-1E+10	1	-1E+10	1
4902549	99	C	05/10/2023	22:58	-133.164	47.362	0	1124.90	0	3.0110	0	34.4180	0	27.427	0	1112.515	0	8.3	4	2.5	4	-1E+10	1	-1E+10	1	-1E+10	1	-1E+10	1	-1E+10	1	-1E+10	1
4902549	99	C	05/10/2023	22:58	-133.164	47.362	0	1135.20	0	2.9840	0	34.4210	0	27.431	0	1122.674	0	8.4	4	2.6	4	-1E+10	1	-1E+10	1	-1E+10	1	-1E+10	1	-1E+10	1	-1E+10	1
4902549	99	C	05/10/2023	22:58	-133.164	47.362	0	1145.30	0	2.9520	0	34.4230	0	27.436	0	1132.635	0	8.5	4	2.6	4	-1E+10	1	-1E+10	1	-1E+10	1	-1E+10	1	-1E+10	1	-1E+10	1
4902549	99	C	05/10/2023	22:58	-133.164	47.362	0	1155.30	0	2.9270	0	34.4240	0	27.439	0	1142.498	0	8.7	4	2.7	4	-1E+10	1	-1E+10	1	-1E+10	1	-1E+10	1	-1E+10	1	-1E+10	1
4902549	99	C	05/10/2023	22:58	-133.164	47.362	0	1165.40	0	2.9090	0	34.4270	0	27.443	0	1152.458	0	8.9	4	2.7	4	-1E+10	1	-1E+10	1	-1E+10	1	-1E+10	1	-1E+10	1	-1E+10	1
4902549	99	C	05/10/2023	22:58	-133.164	47.362	0	1175.60	0	2.8910	0	34.4310	0	27.448	0	1162.517	0	9.1	4	2.8	4	-1E+10	1	-1E+10	1	-1E+10	1	-1E+10	1	-1E+10	1	-1E+10	1
4902549	99	C	05/10/2023	22:58	-133.164	47.362	0	1185.30	0	2.8650	0	34.4340	0	27.453	0	1172.082	0	9.3	4	2.9	4	-1E+10	1	-1E+10	1	-1E+10	1	-1E+10	1	-1E+10	1	-1E+10	1
4902549	99	C	05/10/2023	22:58	-133.164	47.362	0	1195.20	0	2.8480	0	34.4350	0	27.455	0	1181.843	0	9.6	4	2.9	4	-1E+10	1	-1E+10	1	-1E+10	1	-1E+10	1	-1E+10	1	-1E+10	1
4902549	99	C	05/10/2023	22:58	-133.164	47.362	0	1205.30	0	2.8360	0	34.4380	0	27.459	0	1191.802	0	9.8	4	3.0	4	-1E+10	1	-1E+10	1	-1E+10	1	-1E+10	1	-1E+10	1	-1E+10	1
4902549	99	C	05/10/2023	22:58	-133.164	47.362	0	1215.20	0	2.8080	0	34.4410	0	27.463	0	1201.563	0	10.0	4	3.1	4	-1E+10	1	-1E+10	1	-1E+10	1	-1E+10	1	-1E+10	1	-1E+10	1
4902549	99	C	05/10/2023	22:58	-133.164	47.362	0	1225.20	0	2.7900	0	34.4440	0	27.468	0	1211.422	0	10.3	4	3.2	4	-1E+10	1	-1E+10	1	-1E+10	1	-1E+10	1	-1E+10	1	-1E+10	1
4902549	99	C	05/10/2023	22:58	-133.164	47.362	0	1235.40	0	2.7590	0	34.4470	0	27.473	0	1221.478	0	10.5	4	3.2	4	-1E+10	1	-1E+10	1	-1E+10	1	-1E+10	1	-1E+10	1	-1E+10	1
4902549	99	C	05/10/2023	22:58	-133.164	47.362	0	1245.50	0	2.7440	0	34.4490	0	27.476	0	1231.434	0	10.8	4	3.3	4	-1E+10	1	-1E+10	1	-1E+10	1	-1E+10	1	-1E+10	1	-1E+10	1
4902549	99	C	05/10/2023	22:58	-133.164	47.362	0	1255.40	0	2.7280	0	34.4510	0	27.479	0	1241.193	0	10.8	4	3.3	4	-1E+10	1	-1E+10	1	-1E+10	1	-1E+10	1	-1E+10	1	-1E+10	1
4902549	99	C	05/10/2023	22:58	-133.164	47.362	0	1265.20	0	2.6990	0	34.4510	0	27.481	0	1250.853	0	11.0	4	3.4	4	-1E+10	1	-1E+10	1	-1E+10	1	-1E+10	1	-1E+10	1	-1E+10	1
4902549	99	C	05/10/2023	22:58	-133.164	47.362	0	1275.40	0	2.6820	0	34.4550	0	27.486	0	1260.907	0	11.5	4	3.5	4	-1E+10	1	-1E+10	1	-1E+10	1	-1E+10	1	-1E+10	1	-1E+10	1
4902549	99	C	05/10/2023	22:58	-133.164	47.362	0	1285.30	0	2.6640	0	34.4580	0	27.490	0	1270.665	0	11.8	4	3.6	4	-1E+10	1	-1E+10	1	-1E+10	1	-1E+10	1	-1E+10	1	-1E+10	1
4902549	99	C	05/10/2023	22:58	-133.164	47.362	0	1295.50	0	2.6480	0	34.4590	0	27.492	0	1280.717	0	11.8	4	3.6	4	-1E+10	1	-1E+10	1	-1E+10	1	-1E+10	1	-1E+10	1	-1E+10	1
4902549	99	C	05/10/2023	22:58	-133.164	47.362	0	1305.70	0	2.6320	0	34.4590	0	27.494	0	1290.770	0	11.9	4	3.7	4	-1E+10	1	-1E+10	1	-1E+10	1	-1E+10	1	-1E+10	1	-1E+10	1
4902549	99	C	05/10/2023	22:58	-133.164	47.362	0	1315.70	0	2.6190	0	34.4610	0	27.496	0	1300.625	0	12.1	4	3.7	4	-1E+10	1	-1E+10	1	-1E+10	1	-1E+10	1	-1E+10	1	-1E+10	1
4902549	99	C	05/10/2023	22:58	-133.164	47.362	0	1325.40	0	2.6080	0	34.4620	0	27.498	0	1310.183	0	12.3	4	3.8	4	-1E+10	1	-1E+10	1	-1E+10	1	-1E+10	1	-1E+10	1	-1E+10	1
4902549	99	C	05/10/2023	22:58	-133.164	47.362	0	1335.20	0	2.5920	0	34.4650	0	27.502	0	1319.840	0	12.6	4	3.9	4	-1E+10	1	-1E+10	1	-1E+10	1	-1E+10	1	-1E+10	1	-1E+10	1
4902549	99	C	05/10/2023	22:58	-133.164	47.362	0	1345.10	0	2.5800	0	34.4670	0	27.505	0	1329.595	0	13.0	4	4.0	4	-1E+10	1	-1E+10	1	-1E+10	1	-1E+10	1	-1E+10	1	-1E+10	1
4902549	99	C	05/10/2023	22:58	-133.164	47.362	0	1355.30	0	2.5610	0	34.4690	0	27.508	0	1339.645	0	13.2	4	4.0	4	-1E+10	1	-1E+10	1	-1E+10	1	-1E+10	1	-1E+10	1	-1E+10	1
4902549	99	C	05/10/2023	22:58	-133.164	47.362	0	1365.40	0	2.5560	0	34.4700	0	27.509	0	1349.596	0	13.4	4	4.1	4	-1E+10	1	-1E+10	1	-1E+10	1	-1E+10	1	-1E+10	1	-1E+10	1
4902549	99	C	05/10/2023	22:58	-133.164	47.362	0	1375.10	0	2.5490	0	34.4710	0	27.511	0	1359.153	0	13.6	4	4.1	4	-1E+10	1	-1E+10	1	-1E+10	1	-1E+10	1	-1E+10	1	-1E+10	1
4902549	99	C	05/10/2023	22:58	-133.164	47.362	0	1385.20	0	2.5340	0	34.4740	0	27.514	0	1369.103	0	14.0	4	4.3	4	-1E+10	1	-1E+10	1	-1E+10	1	-1E+10	1	-1E+10	1	-1E+10	1
4902549	99	C	05/10/2023	22:58	-133.164	47.362	0	1395.30	0	2.5250	0	34.4760	0	27.517	0	1379.052	0	14.6	4	4.4	4	-1E+10	1	-1E+10	1	-1E+10	1	-1E+10	1	-1E+10	1	-1E+10	1
4902549	99	C	05/10/2023	22:58	-133.164	47.362	0	1405.00	0	2.5160	0	34.4790	0	27.520	0	1388.607	0	15.2	4	4.6	4	-1E+10	1	-1E+10	1	-1E+10	1	-1E+10	1	-1E+10	1	-1E+10	1
4902549	99	C	05/10/2023	22:58	-133.164	47.362	0	1415.40	0	2.5040	0	34.4820	0	27.523	0	1398.852	0	15.7	4	4.8	4	-1E+10	1	-1E+10	1	-1E+10	1	-1E+10	1	-1E+10	1	-1E+10	1
4902549	99	C	05/10/2023	22:58	-133.164	47.362	0	1425.60	0	2.4880	0	34.4840	0	27.526	0	1408.898	0	16.2	4	4.9	4	-1E+10	1	-1E+10	1	-1E+10	1	-1E+10	1	-1E+10	1	-1E+10	1
4902549	99	C	05/10/2023	22:58	-133.164	47.362	0	1435.40	0	2.4710	0	34.4870	0	27.530	0	1418.551	0	16.9	4	5.2	4	-1E+10	1	-1E+10	1	-1E+10	1	-1E+10	1	-1E+10	1	-1E+10	1
4902549	99	C	05/10/2023	22:58	-133.164	47.362	0	1445.20	0	2.4520	0	34.4900	0	27.534	0	1428.202	0	17.6	4	5.3	4	-1E+10	1	-1E+10	1	-1E+10	1	-1E+10	1	-1E+10	1	-1E+10	1
4902549	99	C	05/10/2023	22:58	-133.164	47.362	0	1455.40	0	2.4390	0	34.4940	0	27.539	0	1438.248	0	18.2	4	5.5	4	-1E+10	1	-1E+10	1	-1E+10	1	-1E+10	1	-1E+10	1	-1E+10	1
4902549	99	C	05/10/2023	22:58	-133.164	47.362	0	1465.70	0	2.4190	0	34.4970	0	27.543	0	1448.391	0	18.4	4	5.6	4	-1E+10	1	-1E+10	1	-1E+10	1	-1E+10	1	-1E+10	1	-1E+10	1
4902549	99	C	05/10/2023	22:58	-133.164	47.362	0	1475.70	0	2.4010	0	34.4980	0	27.545	0	1458.239	0	18.5	4	5.6	4	-1E+10	1	-1E+10	1	-1E+10	1	-1E+10	1	-1E+10	1	-1E+10	1
4902549	99	C	05/10/2023	22:58	-133.164	47.362	0	1485.80	0	2.3910	0	34.4980	0	27.546	0	1468.184	0	19.0	4	5.8	4	-1E+10	1	-1E+10	1	-1E+10	1	-1E+10	1	-1E+10	1	-1E+10	1
4902549	99	C	05/10/2023	22:58	-133.164	47.362	0	1495.80	0	2.3840	0	34.5010	0	27.549	0	1478.031	0	20.0	4	6.1	4	-1E+10	1	-1E+10	1	-1E+10	1	-1E+10	1	-1E+10	1	-1E+10	1
4902549	99	C	05/10/2023	22:58	-133.164	47.362	0	1505.40	0	2.3780	0	34.5050	0	27.553	0	1487.483	0	20.9	4	6.3	4	-1E+10	1	-1E+10	1	-1E+10	1	-1E+10	1	-1E+10	1	-1E+10	1
4902549	99	C	05/10/2023	22:58	-133.164	47.362	0	1515.30	0	2.3680	0	34.5070	0	27.555	0	1497.230	0	21.3	4	6.5	4	-1E+10	1	-1E+10	1	-1E+10	1	-1E+10	1	-1E+10	1	-1E+10	1
4902549	99	C	05/10/2023	22:58	-133.164	47.362	0	1525.20	0	2.3540	0	34.5090	0	27.558	0	1506.976	0	22.0	4	6.7	4	-1E+10	1	-1E+10	1	-1E+10	1	-1E+10	1	-1E+10	1	-1E+10	1
4902549	99	C	05/10/2023	22:58	-133.164	47.362	0	1535.30	0	2.3340	0	34.5120	0	27.562	0	1516.920	0	22.8	4	6.9	4	-1E+10	1	-1E+10	1	-1E+10	1	-1E+10	1	-1E+10	1	-1E+10	1
4902549	99	C	05/10/2023	22:58	-133.164	47.362	0	1545.30	0	2.3200	0	34.5150	0	27.566	0	1526.764	0	23.4	4	7.1	4	-1E+10	1	-1E+10	1	-1E+10	1	-1E+10	1	-1E+10	1	-1E+10	1
4902549	99	C	05/10/2023	22:58	-133.164	47.362	0	1555.10	0	2.3050	0	34.5160	0	27.568	0	1536.411	0	23.7	4	7.2	4	-1E+10	1	-1E+10	1	-1E+10	1	-1E+10	1	-1E+10	1	-1E+10	1
4902549	99	C	05/10/2023	22:58	-133.164	47.362	0	1565.40	0	2.2870	0	34.5180	0	27.571	0	1546.549	0	24.2	4	7.3	4	-1E+10	1	-1E+10	1	-1E+10	1	-1E+10	1	-1E+10	1	-1E+10	1
4902549	99	C	05/10/2023	22:58	-133.164	47.362	0	1575.80	0	2.2770	0	34.5190	0	27.573	0	1556.786	0	24.8	4	7.5	4	-1E+10	1	-1E+10	1	-1E+10	1	-1E+10	1	-1E+10	1	-1E+10	1
4902549	99	C	05/10/2023	22:58	-133.164	47.362	0	1585.80	0	2.2680	0	34.5210	0	27.575	0	1566.628	0	25.6	4	7.8	4	-1E+10	1	-1E+10	1	-1E+10	1	-1E+10	1	-1E+10	1	-1E+10	1
4902549	99	C	05/10/2023	22:58	-133.164	47.362	0	1595.70	0	2.2590	0	34.5240	0	27.578	0	1576.372	0	26.3	4	8.0	4	-1E+10	1	-1E+10	1	-1E+10	1	-1E+10	1	-1E+10	1	-1E+10	1
4902549	99	C	05/10/2023	22:58	-133.164	47.362	0	1605.70	0	2.2400	0	34.5260	0	27.581	0	1586.213	0	26.8	4	8.1	4	-1E+10	1	-1E+10	1	-1E+10	1	-1E+10	1	-1E+10	1	-1E+10	1
4902549	99	C	05/10/2023	22:58	-133.164	47.362	0	1615.40	0	2.2280	0	34.5280	0	27.584	0	1595.759	0	27.5	4	8.3	4	-1E+10	1	-1E+10	1	-1E+10	1	-1E+10	1	-1E+10	1	-1E+10	1
4902549	99	C	05/10/2023	22:58	-133.164	47.362	0	1625.20	0	2.2190	0	34.5290	0	27.586	0	1605.402	0	28.2	4	8.5	4	-1E+10	1	-1E+10	1	-1E+10	1	-1E+10	1	-1E+10	1	-1E+10	1
4902549	99	C	05/10/2023	22:58	-133.164	47.362	0	1635.60	0	2.2070	0	34.5310	0	27.588	0	1615.636	0	28.8	4	8.7	4	-1E+10	1	-1E+10	1	-1E+10	1	-1E+10	1	-1E+10	1	-1E+10	1
4902549	99	C	05/10/2023	22:58	-133.164	47.362	0	1645.70	0	2.1970	0	34.5330	0	27.591	0	1625.574	0	29.5	4	8.9	4	-1E+10	1	-1E+10	1	-1E+10	1	-1E+10	1	-1E+10	1	-1E+10	1
4902549	99	C	05/10/2023	22:58	-133.164	47.362	0	1655.40	0	2.1880	0	34.5350	0	27.593	0	1635.118	0	30.0	4	9.1	4	-1E+10	1	-1E+10	1	-1E+10	1	-1E+10	1	-1E+10	1	-1E+10	1
4902549	99	C	05/10/2023	22:58	-133.164	47.362	0	1665.20	0	2.1820	0	34.5360	0	27.594	0	1644.760	0	30.8	4	9.3	4	-1E+10	1	-1E+10	1	-1E+10	1	-1E+10	1	-1E+10	1	-1E+10	1
4902549	99	C	05/10/2023	22:58	-133.164	47.362	0	1675.20	0	2.1700	0	34.5390	0	27.598	0	1654.598	0	31.6	4	9.6	4	-1E+10	1	-1E+10	1	-1E+10	1	-1E+10	1	-1E+10	1	-1E+10	1
4902549	99	C	05/10/2023	22:58	-133.164	47.362	0	1685.40	0	2.1630	0	34.5400	0	27.599	0	1664.633	0	32.3	4	9.8	4	-1E+10	1	-1E+10	1	-1E+10	1	-1E+10	1	-1E+10	1	-1E+10	1
4902549	99	C	05/10/2023	22:58	-133.164	47.362	0	1695.20	0	2.1550	0	34.5420	0	27.601	0	1674.273	0	32.8	4	9.9	4	-1E+10	1	-1E+10	1	-1E+10	1	-1E+10	1	-1E+10	1	-1E+10	1
4902549	99	C	05/10/2023	22:58	-133.164	47.362	0	1705.40	0	2.1450	0	34.5440	0	27.604	0	1684.307	0	33.6	4	10.2	4	-1E+10	1	-1E+10	1	-1E+10	1	-1E+10	1	-1E+10	1	-1E+10	1
4902549	99	C	05/10/2023	22:58	-133.164	47.362	0	1715.50	0	2.1320	0	34.5460	0	27.607	0	1694.242	0	34.4	4	10.4	4	-1E+10	1	-1E+10	1	-1E+10	1	-1E+10	1	-1E+10	1	-1E+10	1
4902549	99	C	05/10/2023	22:58	-133.164	47.362	0	1725.60	0	2.1160	0	34.5480	0	27.610	0	1704.176	0	35.3	4	10.7	4	-1E+10	1	-1E+10	1	-1E+10	1	-1E+10	1	-1E+10	1	-1E+10	1
4902549	99	C	05/10/2023	22:58	-133.164	47.362	0	1735.70	0	2.1050	0	34.5510	0	27.613	0	1714.110	0	36.1	4	10.9	4	-1E+10	1	-1E+10	1	-1E+10	1	-1E+10	1	-1E+10	1	-1E+10	1
4902549	99	C	05/10/2023	22:58	-133.164	47.362	0	1745.40	0	2.0960	0	34.5520	0	27.614	0	1723.650	0	36.6	4	11.1	4	-1E+10	1	-1E+10	1	-1E+10	1	-1E+10	1	-1E+10	1	-1E+10	1
4902549	99	C	05/10/2023	22:58	-133.164	47.362	0	1755.20	0	2.0910	0	34.5530	0	27.616	0	1733.288	0	37.2	4	11.2	4	-1E+10	1	-1E+10	1	-1E+10	1	-1E+10	1	-1E+10	1	-1E+10	1
4902549	99	C	05/10/2023	22:58	-133.164	47.362	0	1765.20	0	2.0820	0	34.5550	0	27.618	0	1743.122	0	37.9	4	11.4	4	-1E+10	1	-1E+10	1	-1E+10	1	-1E+10	1	-1E+10	1	-1E+10	1
4902549	99	C	05/10/2023	22:58	-133.164	47.362	0	1775.40	0	2.0740	0	34.5560	0	27.620	0	1753.152	0	38.5	4	11.6	4	-1E+10	1	-1E+10	1	-1E+10	1	-1E+10	1	-1E+10	1	-1E+10	1
4902549	99	C	05/10/2023	22:58	-133.164	47.362	0	1785.50	0	2.0670	0	34.5580	0	27.622	0	1763.084	0	39.1	4	11.8	4	-1E+10	1	-1E+10	1	-1E+10	1	-1E+10	1	-1E+10	1	-1E+10	1
4902549	99	C	05/10/2023	22:58	-133.164	47.362	0	1795.40	0	2.0600	0	34.5590	0	27.623	0	1772.818	0	39.8	4	12.0	4	-1E+10	1	-1E+10	1	-1E+10	1	-1E+10	1	-1E+10	1	-1E+10	1
4902549	99	C	05/10/2023	22:58	-133.164	47.362	0	1805.50	0	2.0500	0	34.5610	0	27.626	0	1782.749	0	40.5	4	12.2	4	-1E+10	1	-1E+10	1	-1E+10	1	-1E+10	1	-1E+10	1	-1E+10	1
4902549	99	C	05/10/2023	22:58	-133.164	47.362	0	1815.50	0	2.0410	0	34.5630	0	27.628	0	1792.581	0	41.2	4	12.4	4	-1E+10	1	-1E+10	1	-1E+10	1	-1E+10	1	-1E+10	1	-1E+10	1
4902549	99	C	05/10/2023	22:58	-133.164	47.362	0	1825.60	0	2.0330	0	34.5640	0	27.629	0	1802.510	0	41.8	4	12.6	4	-1E+10	1	-1E+10	1	-1E+10	1	-1E+10	1	-1E+10	1	-1E+10	1
4902549	99	C	05/10/2023	22:58	-133.164	47.362	0	1835.50	0	2.0260	0	34.5650	0	27.631	0	1812.243	0	42.3	4	12.8	4	-1E+10	1	-1E+10	1	-1E+10	1	-1E+10	1	-1E+10	1	-1E+10	1
4902549	99	C	05/10/2023	22:58	-133.164	47.362	0	1845.20	0	2.0210	0	34.5670	0	27.633	0	1821.778	0	42.9	4	12.9	4	-1E+10	1	-1E+10	1	-1E+10	1	-1E+10	1	-1E+10	1	-1E+10	1
4902549	99	C	05/10/2023	22:58	-133.164	47.362	0	1855.20	0	2.0140	0	34.5680	0	27.634	0	1831.608	0	43.5	4	13.1	4	-1E+10	1	-1E+10	1	-1E+10	1	-1E+10	1	-1E+10	1	-1E+10	1
4902549	99	C	05/10/2023	22:58	-133.164	47.362	0	1865.40	0	2.0060	0	34.5690	0	27.636	0	1841.635	0	44.0	4	13.3	4	-1E+10	1	-1E+10	1	-1E+10	1	-1E+10	1	-1E+10	1	-1E+10	1
4902549	99	C	05/10/2023	22:58	-133.164	47.362	0	1876.00	0	2.0020	0	34.5700	0	27.637	0	1852.053	0	44.5	4	13.4	4	-1E+10	1	-1E+10	1	-1E+10	1	-1E+10	1	-1E+10	1	-1E+10	1
4902549	99	C	05/10/2023	22:58	-133.164	47.362	0	1885.60	0	1.9940	0	34.5720	0	27.639	0	1861.489	0	45.2	4	13.6	4	-1E+10	1	-1E+10	1	-1E+10	1	-1E+10	1	-1E+10	1	-1E+10	1
4902549	99	C	05/10/2023	22:58	-133.164	47.362	0	1895.60	0	1.9880	0	34.5730	0	27.640	0	1871.317	0	45.9	4	13.8	4	-1E+10	1	-1E+10	1	-1E+10	1	-1E+10	1	-1E+10	1	-1E+10	1
4902549	99	C	05/10/2023	22:58	-133.164	47.362	0	1905.30	0	1.9810	0	34.5750	0	27.643	0	1880.850	0	46.6	4	14.0	4	-1E+10	1	-1E+10	1	-1E+10	1	-1E+10	1	-1E+10	1	-1E+10	1
4902549	99	C	05/10/2023	22:58	-133.164	47.362	0	1915.30	0	1.9720	0	34.5760	0	27.644	0	1890.677	0	47.3	4	14.2	4	-1E+10	1	-1E+10	1	-1E+10	1	-1E+10	1	-1E+10	1	-1E+10	1
4902549	99	C	05/10/2023	22:58	-133.164	47.362	0	1925.50	0	1.9650	0	34.5770	0	27.646	0	1900.701	0	47.8	4	14.4	4	-1E+10	1	-1E+10	1	-1E+10	1	-1E+10	1	-1E+10	1	-1E+10	1
4902549	99	C	05/10/2023	22:58	-133.164	47.362	0	1935.40	0	1.9610	0	34.5780	0	27.647	0	1910.429	0	48.1	4	14.5	4	-1E+10	1	-1E+10	1	-1E+10	1	-1E+10	1	-1E+10	1	-1E+10	1
4902549	99	C	05/10/2023	22:58	-133.164	47.362	0	1945.40	0	1.9580	0	34.5790	0	27.648	0	1920.255	0	48.4	4	14.6	4	-1E+10	1	-1E+10	1	-1E+10	1	-1E+10	1	-1E+10	1	-1E+10	1
4902549	99	C	05/10/2023	22:58	-133.164	47.362	0	1955.40	0	1.9540	0	34.5800	0	27.649	0	1930.080	0	49.0	4	14.7	4	-1E+10	1	-1E+10	1	-1E+10	1	-1E+10	1	-1E+10	1	-1E+10	1
4902549	99	C	05/10/2023	22:58	-133.164	47.362	0	1965.60	0	1.9470	0	34.5810	0	27.650	0	1940.102	0	49.5	4	14.9	4	-1E+10	1	-1E+10	1	-1E+10	1	-1E+10	1	-1E+10	1	-1E+10	1
4902549	99	C	05/10/2023	22:58	-133.164	47.362	0	1975.70	0	1.9410	0	34.5820	0	27.652	0	1950.024	0	50.1	4	15.1	4	-1E+10	1	-1E+10	1	-1E+10	1	-1E+10	1	-1E+10	1	-1E+10	1
4902549	99	C	05/10/2023	22:58	-133.164	47.362	0	1985.40	0	1.9360	0	34.5830	0	27.653	0	1959.554	0	50.4	4	15.2	4	-1E+10	1	-1E+10	1	-1E+10	1	-1E+10	1	-1E+10	1	-1E+10	1
4902549	99	C	05/10/2023	22:58	-133.164	47.362	0	1995.20	0	1.9340	0	34.5840	0	27.654	0	1969.181	0	50.7	4	15.2	4	-1E+10	1	-1E+10	1	-1E+10	1	-1E+10	1	-1E+10	1	-1E+10	1
4902549	99	C	05/10/2023	22:58	-133.164	47.362	0	2005.50	0	1.9300	0	34.5850	0	27.655	0	1979.299	0	51.1	4	15.4	4	-1E+10	1	-1E+10	1	-1E+10	1	-1E+10	1	-1E+10	1	-1E+10	1
4902549	99	C	05/10/2023	22:58	-133.164	47.362	0	2015.70	0	1.9250	0	34.5860	0	27.656	0	1989.318	0	51.6	4	15.5	4	-1E+10	1	-1E+10	1	-1E+10	1	-1E+10	1	-1E+10	1	-1E+10	1
4902549	99	C	05/10/2023	22:58	-133.164	47.362	0	2025.70	0	1.9180	0	34.5870	0	27.658	0	1999.140	0	52.1	4	15.7	4	-1E+10	1	-1E+10	1	-1E+10	1	-1E+10	1	-1E+10	1	-1E+10	1
4902549	99	C	05/10/2023	22:58	-133.164	47.362	0	2036.00	0	1.9140	0	34.5880	0	27.659	0	2009.257	0	52.3	4	15.7	4	-1E+10	1	-1E+10	1	-1E+10	1	-1E+10	1	-1E+10	1	-1E+10	1
4902549	99	C	05/10/2023	22:58	-133.164	47.362	0	2041.40	0	1.9110	0	34.5890	0	27.660	0	2014.560	0	52.3	4	15.7	4	-1E+10	1	-1E+10	1	-1E+10	1	-1E+10	1	-1E+10	1	-1E+10	1
4902549	99	C	05/10/2023	22:58	-133.164	47.362	0																										
4902549	100	C	05/21/2023	04:11	-133.046	47.349	0	0.30	0	11.2960	0	32.3620	0	24.670	0	0.298	0	276.7	4	101.6	4	-1E+10	1	-1E+10	1	-1E+10	1	-1E+10	1	-1E+10	1	-1E+10	1
4902549	100	C	05/21/2023	04:11	-133.046	47.349	0	1.10	0	11.2970	0	32.3570	0	24.666	0	1.091	0	276.7	4	101.6	4	-1E+10	1	-1E+10	1	-1E+10	1	-1E+10	1	-1E+10	1	-1E+10	1
4902549	100	C	05/21/2023	04:11	-133.046	47.349	0	1.90	0	11.2970	0	32.3550	0	24.664	0	1.884	0	276.7	4	101.7	4	-1E+10	1	-1E+10	1	-1E+10	1	-1E+10	1	-1E+10	1	-1E+10	1
4902549	100	C	05/21/2023	04:11	-133.046	47.349	0	3.20	0	11.2900	0	32.3600	0	24.669	0	3.173	0	276.8	4	101.7	4	-1E+10	1	-1E+10	1	-1E+10	1	-1E+10	1	-1E+10	1	-1E+10	1
4902549	100	C	05/21/2023	04:11	-133.046	47.349	0	4.00	0	11.2880	0	32.3640	0	24.673	0	3.967	0	276.9	4	101.7	4	-1E+10	1	-1E+10	1	-1E+10	1	-1E+10	1	-1E+10	1	-1E+10	1
4902549	100	C	05/21/2023	04:11	-133.046	47.349	0	5.30	0	11.2850	0	32.3680	0	24.677	0	5.256	0	277.2	4	101.8	4	-1E+10	1	-1E+10	1	-1E+10	1	-1E+10	1	-1E+10	1	-1E+10	1
4902549	100	C	05/21/2023	04:11	-133.046	47.349	0	5.90	0	11.2730	0	32.3680	0	24.679	0	5.851	0	277.3	4	101.8	4	-1E+10	1	-1E+10	1	-1E+10	1	-1E+10	1	-1E+10	1	-1E+10	1
4902549	100	C	05/21/2023	04:11	-133.046	47.349	0	6.80	0	11.2660	0	32.3670	0	24.679	0	6.743	0	277.4	4	101.9	4	-1E+10	1	-1E+10	1	-1E+10	1	-1E+10	1	-1E+10	1	-1E+10	1
4902549	100	C	05/21/2023	04:11	-133.046	47.349	0	8.00	0	11.2330	0	32.3670	0	24.685	0	7.933	0	277.9	4	102.0	4	-1E+10	1	-1E+10	1	-1E+10	1	-1E+10	1	-1E+10	1	-1E+10	1
4902549	100	C	05/21/2023	04:11	-133.046	47.349	0	8.90	0	11.1700	0	32.3660	0	24.696	0	8.826	0	278.5	4	102.0	4	-1E+10	1	-1E+10	1	-1E+10	1	-1E+10	1	-1E+10	1	-1E+10	1
4902549	100	C	05/21/2023	04:11	-133.046	47.349	0	10.10	0	11.1090	0	32.3640	0	24.705	0	10.016	0	279.2	4	102.2	4	-1E+10	1	-1E+10	1	-1E+10	1	-1E+10	1	-1E+10	1	-1E+10	1
4902549	100	C	05/21/2023	04:11	-133.046	47.349	0	11.00	0	11.0340	0	32.3640	0	24.718	0	10.908	0	279.7	4	102.2	4	-1E+10	1	-1E+10	1	-1E+10	1	-1E+10	1	-1E+10	1	-1E+10	1
4902549	100	C	05/21/2023	04:11	-133.046	47.349	0	11.70	0	10.9690	0	32.3660	0	24.731	0	11.602	0	280.3	4	102.3	4	-1E+10	1	-1E+10	1	-1E+10	1	-1E+10	1	-1E+10	1	-1E+10	1
4902549	100	C	05/21/2023	04:11	-133.046	47.349	0	12.80	0	10.9230	0	32.3660	0	24.739	0	12.693	0	280.8	4	102.4	4	-1E+10	1	-1E+10	1	-1E+10	1	-1E+10	1	-1E+10	1	-1E+10	1
4902549	100	C	05/21/2023	04:11	-133.046	47.349	0	13.90	0	10.8930	0	32.3670	0	24.745	0	13.784	0	281.3	4	102.5	4	-1E+10	1	-1E+10	1	-1E+10	1	-1E+10	1	-1E+10	1	-1E+10	1
4902549	100	C	05/21/2023	04:11	-133.046	47.349	0	14.90	0	10.8640	0	32.3600	0	24.745	0	14.775	0	281.8	4	102.6	4	-1E+10	1	-1E+10	1	-1E+10	1	-1E+10	1	-1E+10	1	-1E+10	1
4902549	100	C	05/21/2023	04:11	-133.046	47.349	0	16.00	0	10.7610	0	32.3630	0	24.765	0	15.866	0	282.7	4	102.7	4	-1E+10	1	-1E+10	1	-1E+10	1	-1E+10	1	-1E+10	1	-1E+10	1
4902549	100	C	05/21/2023	04:11	-133.046	47.349	0	17.00	0	10.6120	0	32.3700	0	24.796	0	16.858	0	283.5	4	102.7	4	-1E+10	1	-1E+10	1	-1E+10	1	-1E+10	1	-1E+10	1	-1E+10	1
4902549	100	C	05/21/2023	04:11	-133.046	47.349	0	17.90	0	10.2000	0	32.3650	0	24.862	0	17.750	0	285.8	4	102.6	4	-1E+10	1	-1E+10	1	-1E+10	1	-1E+10	1	-1E+10	1	-1E+10	1
4902549	100	C	05/21/2023	04:11	-133.046	47.349	0	19.10	0	10.1530	0	32.3690	0	24.873	0	18.940	0	286.2	4	102.6	4	-1E+10	1	-1E+10	1	-1E+10	1	-1E+10	1	-1E+10	1	-1E+10	1
4902549	100	C	05/21/2023	04:11	-133.046	47.349	0	20.00	0	10.1240	0	32.3670	0	24.877	0	19.832	0	286.2	4	102.6	4	-1E+10	1	-1E+10	1	-1E+10	1	-1E+10	1	-1E+10	1	-1E+10	1
4902549	100	C	05/21/2023	04:11	-133.046	47.349	0	20.90	0	10.0790	0	32.3660	0	24.883	0	20.725	0	286.4	4	102.5	4	-1E+10	1	-1E+10	1	-1E+10	1	-1E+10	1	-1E+10	1	-1E+10	1
4902549	100	C	05/21/2023	04:11	-133.046	47.349	0	21.90	0	9.8180	0	32.3710	0	24.930	0	21.716	0	287.4	4	102.3	4	-1E+10	1	-1E+10	1	-1E+10	1	-1E+10	1	-1E+10	1	-1E+10	1
4902549	100	C	05/21/2023	04:11	-133.046	47.349	0	22.90	0	9.7250	0	32.3710	0	24.946	0	22.708	0	287.7	4	102.2	4	-1E+10	1	-1E+10	1	-1E+10	1	-1E+10	1	-1E+10	1	-1E+10	1
4902549	100	C	05/21/2023	04:11	-133.046	47.349	0	24.10	0	9.5920	0	32.3760	0	24.971	0	23.898	0	288.2	4	102.1	4	-1E+10	1	-1E+10	1	-1E+10	1	-1E+10	1	-1E+10	1	-1E+10	1
4902549	100	C	05/21/2023	04:11	-133.046	47.349	0	25.10	0	9.5320	0	32.3730	0	24.978	0	24.889	0	288.3	4	102.0	4	-1E+10	1	-1E+10	1	-1E+10	1	-1E+10	1	-1E+10	1	-1E+10	1
4902549	100	C	05/21/2023	04:11	-133.046	47.349	0	25.90	0	9.5030	0	32.3750	0	24.985	0	25.683	0	288.3	4	101.9	4	-1E+10	1	-1E+10	1	-1E+10	1	-1E+10	1	-1E+10	1	-1E+10	1
4902549	100	C	05/21/2023	04:11	-133.046	47.349	0	26.90	0	9.4480	0	32.3760	0	24.994	0	26.674	0	288.3	4	101.8	4	-1E+10	1	-1E+10	1	-1E+10	1	-1E+10	1	-1E+10	1	-1E+10	1
4902549	100	C	05/21/2023	04:11	-133.046	47.349	0	28.10	0	9.4130	0	32.3760	0	25.000	0	27.864	0	288.0	4	101.6	4	-1E+10	1	-1E+10	1	-1E+10	1	-1E+10	1	-1E+10	1	-1E+10	1
4902549	100	C	05/21/2023	04:11	-133.046	47.349	0	29.10	0	9.4020	0	32.3760	0	25.002	0	28.855	0	287.5	4	101.4	4	-1E+10	1	-1E+10	1	-1E+10	1	-1E+10	1	-1E+10	1	-1E+10	1
4902549	100	C	05/21/2023	04:11	-133.046	47.349	0	30.00	0	9.3980	0	32.3760	0	25.002	0	29.748	0	287.0	4	101.2	4	-1E+10	1	-1E+10	1	-1E+10	1	-1E+10	1	-1E+10	1	-1E+10	1
4902549	100	C	05/21/2023	04:11	-133.046	47.349	0	31.00	0	9.3660	0	32.3760	0	25.007	0	30.739	0	286.6	4	101.0	4	-1E+10	1	-1E+10	1	-1E+10	1	-1E+10	1	-1E+10	1	-1E+10	1
4902549	100	C	05/21/2023	04:11	-133.046	47.349	0	32.00	0	9.3400	0	32.3770	0	25.012	0	31.731	0	286.5	4	100.9	4	-1E+10	1	-1E+10	1	-1E+10	1	-1E+10	1	-1E+10	1	-1E+10	1
4902549	100	C	05/21/2023	04:11	-133.046	47.349	0	33.00	0	9.3360	0	32.3760	0	25.012	0	32.722	0	285.8	4	100.7	4	-1E+10	1	-1E+10	1	-1E+10	1	-1E+10	1	-1E+10	1	-1E+10	1
4902549	100	C	05/21/2023	04:11	-133.046	47.349	0	34.10	0	9.3290	0	32.3760	0	25.013	0	33.813	0	285.1	4	100.4	4	-1E+10	1	-1E+10	1	-1E+10	1	-1E+10	1	-1E+10	1	-1E+10	1
4902549	100	C	05/21/2023	04:11	-133.046	47.349	0	34.80	0	9.3060	0	32.3770	0	25.018	0	34.507	0	285.0	4	100.3	4	-1E+10	1	-1E+10	1	-1E+10	1	-1E+10	1	-1E+10	1	-1E+10	1
4902549	100	C	05/21/2023	04:11	-133.046	47.349	0	35.90	0	9.2630	0	32.3780	0	25.025	0	35.598	0	284.6	4	100.1	4	-1E+10	1	-1E+10	1	-1E+10	1	-1E+10	1	-1E+10	1	-1E+10	1
4902549	100	C	05/21/2023	04:11	-133.046	47.349	0	37.00	0	9.2370	0	32.3780	0	25.029	0	36.688	0	284.3	4	99.9	4	-1E+10	1	-1E+10	1	-1E+10	1	-1E+10	1	-1E+10	1	-1E+10	1
4902549	100	C	05/21/2023	04:11	-133.046	47.349	0	38.20	0	9.2210	0	32.3790	0	25.033	0	37.878	0	283.9	4	99.7	4	-1E+10	1	-1E+10	1	-1E+10	1	-1E+10	1	-1E+10	1	-1E+10	1
4902549	100	C	05/21/2023	04:11	-133.046	47.349	0	38.90	0	9.2010	0	32.3790	0	25.036	0	38.572	0	283.7	4	99.6	4	-1E+10	1	-1E+10	1	-1E+10	1	-1E+10	1	-1E+10	1	-1E+10	1
4902549	100	C	05/21/2023	04:11	-133.046	47.349	0	39.90	0	9.1860	0	32.3790	0	25.038	0	39.564	0	283.3	4	99.5	4	-1E+10	1	-1E+10	1	-1E+10	1	-1E+10	1	-1E+10	1	-1E+10	1
4902549	100	C	05/21/2023	04:11	-133.046	47.349	0	41.00	0	9.1760	0	32.3790	0	25.040	0	40.654	0	282.5	4	99.2	4	-1E+10	1	-1E+10	1	-1E+10	1	-1E+10	1	-1E+10	1	-1E+10	1
4902549	100	C	05/21/2023	04:11	-133.046	47.349	0	42.00	0	9.1650	0	32.3780	0	25.041	0	41.646	0	281.8	4	98.9	4	-1E+10	1	-1E+10	1	-1E+10	1	-1E+10	1	-1E+10	1	-1E+10	1
4902549	100	C	05/21/2023	04:11	-133.046	47.349	0	43.10	0	9.1120	0	32.3790	0	25.050	0	42.736	0	281.3	4	98.6	4	-1E+10	1	-1E+10	1	-1E+10	1	-1E+10	1	-1E+10	1	-1E+10	1
4902549	100	C	05/21/2023	04:11	-133.046	47.349	0	43.80	0	9.0760	0	32.3790	0	25.056	0	43.430	0	281.0	4	98.4	4	-1E+10	1	-1E+10	1	-1E+10	1	-1E+10	1	-1E+10	1	-1E+10	1
4902549	100	C	05/21/2023	04:11	-133.046	47.349	0	44.80	0	9.0290	0	32.3800	0	25.064	0	44.422	0	280.4	4	98.1	4	-1E+10	1	-1E+10	1	-1E+10	1	-1E+10	1	-1E+10	1	-1E+10	1
4902549	100	C	05/21/2023	04:11	-133.046	47.349	0	45.90	0	8.9580	0	32.3810	0	25.075	0	45.512	0	280.1	4	97.8	4	-1E+10	1	-1E+10	1	-1E+10	1	-1E+10	1	-1E+10	1	-1E+10	1
4902549	100	C	05/21/2023	04:11	-133.046	47.349	0	46.90	0	8.8990	0	32.3820	0	25.085	0	46.504	0	279.5	4	97.5	4	-1E+10	1	-1E+10	1	-1E+10	1	-1E+10	1	-1E+10	1	-1E+10	1
4902549	100	C	05/21/2023	04:11	-133.046	47.349	0	47.90	0	8.8870	0	32.3810	0	25.086	0	47.495	0	278.7	4	97.2	4	-1E+10	1	-1E+10	1	-1E+10	1	-1E+10	1	-1E+10	1	-1E+10	1
4902549	100	C	05/21/2023	04:11	-133.046	47.349	0	48.90	0	8.8560	0	32.3810	0	25.091	0	48.487	0	277.6	4	96.8	4	-1E+10	1	-1E+10	1	-1E+10	1	-1E+10	1	-1E+10	1	-1E+10	1
4902549	100	C	05/21/2023	04:11	-133.046	47.349	0	49.90	0	8.6920	0	32.3770	0	25.113	0	49.478	0	277.6	4	96.4	4	-1E+10	1	-1E+10	1	-1E+10	1	-1E+10	1	-1E+10	1	-1E+10	1
4902549	100	C	05/21/2023	04:11	-133.046	47.349	0	51.00	0	8.6170	0	32.3850	0	25.131	0	50.569	0	276.9	4	96.0	4	-1E+10	1	-1E+10	1	-1E+10	1	-1E+10	1	-1E+10	1	-1E+10	1
4902549	100	C	05/21/2023	04:11	-133.046	47.349	0	52.10	0	8.5480	0	32.3900	0	25.145	0	51.659	0	275.9	4	95.5	4	-1E+10	1	-1E+10	1	-1E+10	1	-1E+10	1	-1E+10	1	-1E+10	1
4902549	100	C	05/21/2023	04:11	-133.046	47.349	0	53.00	0	8.4900	0	32.3890	0	25.153	0	52.552	0	275.7	4	95.3	4	-1E+10	1	-1E+10	1	-1E+10	1	-1E+10	1	-1E+10	1	-1E+10	1
4902549	100	C	05/21/2023	04:11	-133.046	47.349	0	54.00	0	8.4600	0	32.3900	0	25.158	0	53.543	0	274.8	4	95.0	4	-1E+10	1	-1E+10	1	-1E+10	1	-1E+10	1	-1E+10	1	-1E+10	1
4902549	100	C	05/21/2023	04:11	-133.046	47.349	0	54.90	0	8.3970	0	32.3910	0	25.168	0	54.435	0	274.7	4	94.8	4	-1E+10	1	-1E+10	1	-1E+10	1	-1E+10	1	-1E+10	1	-1E+10	1
4902549	100	C	05/21/2023	04:11	-133.046	47.349	0	56.10	0	8.3080	0	32.3920	0	25.182	0	55.625	0	274.5	4	94.5	4	-1E+10	1	-1E+10	1	-1E+10	1	-1E+10	1	-1E+10	1	-1E+10	1
4902549	100	C	05/21/2023	04:11	-133.046	47.349	0	56.80	0	8.2520	0	32.3930	0	25.191	0	56.319	0	274.5	4	94.4	4	-1E+10	1	-1E+10	1	-1E+10	1	-1E+10	1	-1E+10	1	-1E+10	1
4902549	100	C	05/21/2023	04:11	-133.046	47.349	0	57.90	0	8.2110	0	32.3920	0	25.197	0	57.410	0	274.5	4	94.3	4	-1E+10	1	-1E+10	1	-1E+10	1	-1E+10	1	-1E+10	1	-1E+10	1
4902549	100	C	05/21/2023	04:11	-133.046	47.349	0	58.90	0	8.2060	0	32.3930	0	25.198	0	58.401	0	274.2	4	94.2	4	-1E+10	1	-1E+10	1	-1E+10	1	-1E+10	1	-1E+10	1	-1E+10	1
4902549	100	C	05/21/2023	04:11	-133.046	47.349	0	60.00	0	8.2020	0	32.3920	0	25.198	0	59.491	0	273.7	4	94.0	4	-1E+10	1	-1E+10	1	-1E+10	1	-1E+10	1	-1E+10	1	-1E+10	1
4902549	100	C	05/21/2023	04:11	-133.046	47.349	0	61.00	0	8.1760	0	32.3940	0	25.203	0	60.483	0	273.4	4	93.9	4	-1E+10	1	-1E+10	1	-1E+10	1	-1E+10	1	-1E+10	1	-1E+10	1
4902549	100	C	05/21/2023	04:11	-133.046	47.349	0	62.10	0	8.1630	0	32.3940	0	25.205	0	61.573	0	273.0	4	93.7	4	-1E+10	1	-1E+10	1	-1E+10	1	-1E+10	1	-1E+10	1	-1E+10	1
4902549	100	C	05/21/2023	04:11	-133.046	47.349	0	62.90	0	8.1490	0	32.3950	0	25.208	0	62.366	0	272.8	4	93.6	4	-1E+10	1	-1E+10	1	-1E+10	1	-1E+10	1	-1E+10	1	-1E+10	1
4902549	100	C	05/21/2023	04:11	-133.046	47.349	0	63.70	0	8.1280	0	32.3960	0	25.212	0	63.159	0	272.8	4	93.6	4	-1E+10	1	-1E+10	1	-1E+10	1	-1E+10	1	-1E+10	1	-1E+10	1
4902549	100	C	05/21/2023	04:11	-133.046	47.349	0	64.80	0	8.1190	0	32.3950	0	25.212	0	64.250	0	272.4	4	93.4	4	-1E+10	1	-1E+10	1	-1E+10	1	-1E+10	1	-1E+10	1	-1E+10	1
4902549	100	C	05/21/2023	04:11	-133.046	47.349	0	65.80	0	8.1020	0	32.3950	0	25.215	0	65.241	0	272.3	4	93.3	4	-1E+10	1	-1E+10	1	-1E+10	1	-1E+10	1	-1E+10	1	-1E+10	1
4902549	100	C	05/21/2023	04:11	-133.046	47.349	0	66.90	0	8.0870	0	32.3950	0	25.217	0	66.332	0	272.1	4	93.2	4	-1E+10	1	-1E+10	1	-1E+10	1	-1E+10	1	-1E+10	1	-1E+10	1
4902549	100	C	05/21/2023	04:11	-133.046	47.349	0	68.00	0	8.0740	0	32.3940	0	25.218	0	67.422	0	271.9	4	93.2	4	-1E+10	1	-1E+10	1	-1E+10	1	-1E+10	1	-1E+10	1	-1E+10	1
4902549	100	C	05/21/2023	04:11	-133.046	47.349	0	69.00	0	8.0620	0	32.3940	0	25.220	0	68.414	0	271.7	4	93.1	4	-1E+10	1	-1E+10	1	-1E+10	1	-1E+10	1	-1E+10	1	-1E+10	1
4902549	100	C	05/21/2023	04:11	-133.046	47.349	0	70.10	0	8.0620	0	32.3940	0	25.220	0	69.504	0	271.5	4	93.0	4	-1E+10	1	-1E+10	1	-1E+10	1	-1E+10	1	-1E+10	1	-1E+10	1
4902549	100	C	05/21/2023	04:11	-133.046	47.349	0	71.10	0	8.0590	0	32.3940	0	25.220	0	70.495	0	271.3	4	92.9	4	-1E+10	1	-1E+10	1	-1E+10	1	-1E+10	1	-1E+10	1	-1E+10	1
4902549	100	C	05/21/2023	04:11	-133.046	47.349	0	72.10	0	8.0430	0	32.3950	0	25.224	0	71.487	0	271.2	4	92.8	4	-1E+10	1	-1E+10	1	-1E+10	1	-1E+10	1	-1E+10	1	-1E+10	1
4902549	100	C	05/21/2023	04:11	-133.046	47.349	0	72.90	0	8.0300	0	32.3950	0	25.225	0	72.280	0	271.2	4	92.8	4	-1E+10	1	-1E+10	1	-1E+10	1	-1E+10	1	-1E+10	1	-1E+10	1
4902549	100	C	05/21/2023	04:11	-133.046	47.349	0	73.70	0	8.0280	0	32.3950	0	25.226	0	73.073	0	271.1	4	92.8	4	-1E+10	1	-1E+10	1	-1E+10	1	-1E+10	1	-1E+10	1	-1E+10	1
4902549	100	C	05/21/2023	04:11	-133.046	47.349	0	74.70	0	8.0260	0	32.3950	0	25.226	0	74.064	0	271.0	4	92.7	4	-1E+10	1	-1E+10	1	-1E+10	1	-1E+10	1	-1E+10	1	-1E+10	1
4902549	100	C	05/21/2023	04:11	-133.046	47.349	0	75.80	0	8.0230	0	32.3960	0	25.227	0	75.155	0	270.8	4	92.7	4	-1E+10	1	-1E+10	1	-1E+10	1	-1E+10	1	-1E+10	1	-1E+10	1
4902549	100	C	05/21/2023	04:11	-133.046	47.349	0	76.80	0	8.0180	0	32.3960	0	25.228	0	76.146	0	270.8	4	92.6	4	-1E+10	1	-1E+10	1	-1E+10	1	-1E+10	1	-1E+10	1	-1E+10	1
4902549	100	C	05/21/2023	04:11	-133.046	47.349	0	77.80	0	8.0130	0	32.3960	0	25.229	0	77.137	0	270.6	4	92.6	4	-1E+10	1	-1E+10	1	-1E+10	1	-1E+10	1	-1E+10	1	-1E+10	1
4902549	100	C	05/21/2023	04:11	-133.046	47.349	0	78.90	0	8.0070	0	32.3970	0	25.230	0	78.228	0	270.4	4	92.5	4	-1E+10	1	-1E+10	1	-1E+10	1	-1E+10	1	-1E+10	1	-1E+10	1
4902549	100	C	05/21/2023	04:11	-133.046	47.349	0	79.90	0	8.0010	0	32.3970	0	25.231	0	79.219	0	270.2	4	92.4	4	-1E+10	1	-1E+10	1	-1E+10	1	-1E+10	1	-1E+10	1	-1E+10	1
4902549	100	C	05/21/2023	04:11	-133.046	47.349	0	81.00	0	7.9900	0	32.3990	0	25.234	0	80.309	0	270.1	4	92.4	4	-1E+10	1	-1E+10	1	-1E+10	1	-1E+10	1	-1E+10	1	-1E+10	1
4902549	100	C	05/21/2023	04:11	-133.046	47.349	0	81.90	0	7.9880	0	32.4000	0	25.236	0	81.201	0	269.9	4	92.3	4	-1E+10	1	-1E+10	1	-1E+10	1	-1E+10	1	-1E+10	1	-1E+10	1
4902549	100	C	05/21/2023	04:11	-133.046	47.349	0	82.70	0	7.9840	0	32.4000	0	25.236	0	81.994	0	276.5	4	94.5	4	-1E+10	1	-1E+10	1	-1E+10	1	-1E+10	1	-1E+10	1	-1E+10	1
4902549	100	C	05/21/2023	04:11	-133.046	47.349	0	83.90	0	7.9760	0	32.4000	0	25.237	0	83.184	0	276.2	4	94.4	4	-1E+10	1	-1E+10	1	-1E+10	1	-1E+10	1	-1E+10	1	-1E+10	1
4902549	100	C	05/21/2023	04:11	-133.046	47.349	0	85.00	0	7.9690	0	32.4010	0	25.239	0	84.274	0	275.8	4	94.3	4	-1E+10	1	-1E+10	1	-1E+10	1	-1E+10	1	-1E+10	1	-1E+10	1
4902549	100	C	05/21/2023	04:11	-133.046	47.349	0	85.90	0	7.9610	0	32.4030	0	25.242	0	85.167	0	275.6	4	94.2	4	-1E+10	1	-1E+10	1	-1E+10	1	-1E+10	1	-1E+10	1	-1E+10	1
4902549	100	C	05/21/2023	04:11	-133.046	47.349	0	86.80	0	7.9520	0	32.4050	0	25.245	0	86.059	0	275.2	4	94.0	4	-1E+10	1	-1E+10	1	-1E+10	1	-1E+10	1	-1E+10	1	-1E+10	1
4902549	100	C	05/21/2023	04:11	-133.046	47.349	0	88.00	0	7.9290	0	32.4090	0	25.251	0	87.248	0	274.8	4	93.8	4	-1E+10	1	-1E+10	1	-1E+10	1	-1E+10	1	-1E+10	1	-1E+10	1
4902549	100	C	05/21/2023	04:11	-133.046	47.349	0	89.10	0	7.9110	0	32.4100	0	25.255	0	88.339	0	274.1	4	93.6	4	-1E+10	1	-1E+10	1	-1E+10	1	-1E+10	1	-1E+10	1	-1E+10	1
4902549	100	C	05/21/2023	04:11	-133.046	47.349	0	90.00	0	7.9040	0	32.4110	0	25.256	0	89.231	0	273.4	4	93.3	4	-1E+10	1	-1E+10	1	-1E+10	1	-1E+10	1	-1E+10	1	-1E+10	1
4902549	100	C	05/21/2023	04:11	-133.046	47.349	0	90.80	0	7.8970	0	32.4160	0	25.261	0	90.024	0	273.0	4	93.2	4	-1E+10	1	-1E+10	1	-1E+10	1	-1E+10	1	-1E+10	1	-1E+10	1
4902549	100	C	05/21/2023	04:11	-133.046	47.349	0	92.00	0	7.8780	0	32.4300	0	25.275	0	91.213	0	272.3	4	92.9	4	-1E+10	1	-1E+10	1	-1E+10	1	-1E+10	1	-1E+10	1	-1E+10	1
4902549	100	C	05/21/2023	04:11	-133.046	47.349	0	93.10	0	7.8540	0	32.4280	0	25.277	0	92.303	0	271.4	4	92.5	4	-1E+10	1	-1E+10	1	-1E+10	1	-1E+10	1	-1E+10	1	-1E+10	1
4902549	100	C	05/21/2023	04:11	-133.046	47.349	0	94.10	0	7.8400	0	32.4290	0	25.280	0	93.295	0	270.2	4	92.1	4	-1E+10	1	-1E+10	1	-1E+10	1	-1E+10	1	-1E+10	1	-1E+10	1
4902549	100	C	05/21/2023	04:11	-133.046	47.349	0	94.90	0	7.8370	0	32.4310	0	25.282	0	94.088	0	268.9	4	91.6	4	-1E+10	1	-1E+10	1	-1E+10	1	-1E+10	1	-1E+10	1	-1E+10	1
4902549	100	C	05/21/2023	04:11	-133.046	47.349	0	96.00	0	7.8240	0	32.4370	0	25.288	0	95.178	0	267.2	4	91.0	4	-1E+10	1	-1E+10	1	-1E+10	1	-1E+10	1	-1E+10	1	-1E+10	1
4902549	100	C	05/21/2023	04:11	-133.046	47.349	0	97.10	0	7.7900	0	32.4520	0	25.305	0	96.268	0	265.3	4	90.4	4	-1E+10	1	-1E+10	1	-1E+10	1	-1E+10	1	-1E+10	1	-1E+10	1
4902549	100	C	05/21/2023	04:11	-133.046	47.349	0	98.00	0	7.7800	0	32.4510	0	25.306	0	97.160	0	263.9	4	89.8	4	-1E+10	1	-1E+10	1	-1E+10	1	-1E+10	1	-1E+10	1	-1E+10	1
4902549	100	C	05/21/2023	04:11	-133.046	47.349	0	99.00	0	7.7840	0	32.4560	0	25.309	0	98.152	0	262.1	4	89.2	4	-1E+10	1	-1E+10	1	-1E+10	1	-1E+10	1	-1E+10	1	-1E+10	1
4902549	100	C	05/21/2023	04:11	-133.046	47.349	0	100.20	0	7.7900	0	32.4630	0	25.314	0	99.341	0	260.0	4	88.5	4	-1E+10	1	-1E+10	1	-1E+10	1	-1E+10	1	-1E+10	1	-1E+10	1
4902549	100	C	05/21/2023	04:11	-133.046	47.349	0	100.80	0	7.7940	0	32.4680	0	25.317	0	99.936	0	258.9	4	88.2	4	-1E+10	1	-1E+10	1	-1E+10	1	-1E+10	1	-1E+10	1	-1E+10	1
4902549	100	C	05/21/2023	04:11	-133.046	47.349	0	101.80	0	7.8160	0	32.5040	0	25.342	0	100.927	0	257.2	4	87.7	4	-1E+10	1	-1E+10	1	-1E+10	1	-1E+10	1	-1E+10	1	-1E+10	1
4902549	100	C	05/21/2023	04:11	-133.046	47.349	0	102.90	0	7.7880	0	32.5190	0	25.358	0	102.017	0	255.9	4	87.2	4	-1E+10	1	-1E+10	1	-1E+10	1	-1E+10	1	-1E+10	1	-1E+10	1
4902549	100	C	05/21/2023	04:11	-133.046	47.349	0	104.00	0	7.7170	0	32.5500	0	25.392	0	103.107	0	254.9	4	86.7	4	-1E+10	1	-1E+10	1	-1E+10	1	-1E+10	1	-1E+10	1	-1E+10	1
4902549	100	C	05/21/2023	04:11	-133.046	47.349	0	105.10	0	7.7310	0	32.5540	0	25.393	0	104.198	0	253.5	4	86.3	4	-1E+10	1	-1E+10	1	-1E+10	1	-1E+10	1	-1E+10	1	-1E+10	1
4902549	100	C	05/21/2023	04:11	-133.046	47.349	0	105.90	0	7.7270	0	32.5570	0	25.396	0	104.991	0	252.3	4	85.9	4	-1E+10	1	-1E+10	1	-1E+10	1	-1E+10	1	-1E+10	1	-1E+10	1
4902549	100	C	05/21/2023	04:11	-133.046	47.349	0	106.70	0	7.7230	0	32.5580	0	25.398	0	105.784	0	251.0	4	85.4	4	-1E+10	1	-1E+10	1	-1E+10	1	-1E+10	1	-1E+10	1	-1E+10	1
4902549	100	C	05/21/2023	04:11	-133.046	47.349	0	107.70	0	7.7220	0	32.5610	0	25.400	0	106.775	0	249.1	4	84.8	4	-1E+10	1	-1E+10	1	-1E+10	1	-1E+10	1	-1E+10	1	-1E+10	1
4902549	100	C	05/21/2023	04:11	-133.046	47.349	0	108.70	0	7.7170	0	32.5680	0	25.406	0	107.766	0	247.1	4	84.1	4	-1E+10	1	-1E+10	1	-1E+10	1	-1E+10	1	-1E+10	1	-1E+10	1
4902549	100	C	05/21/2023	04:11	-133.046	47.349	0	110.10	0	7.7100	0	32.5850	0	25.421	0	109.153	0	244.2	4	83.1	4	-1E+10	1	-1E+10	1	-1E+10	1	-1E+10	1	-1E+10	1	-1E+10	1
4902549	100	C	05/21/2023	04:11	-133.046	47.349	0	111.00	0	7.7070	0	32.6140	0	25.444	0	110.046	0	241.9	4	82.3	4	-1E+10	1	-1E+10	1	-1E+10	1	-1E+10	1	-1E+10	1	-1E+10	1
4902549	100	C	05/21/2023	04:11	-133.046	47.349	0	111.90	0	7.6600	0	32.6480	0	25.477	0	110.938	0	239.9	4	81.6	4	-1E+10	1	-1E+10	1	-1E+10	1	-1E+10	1	-1E+10	1	-1E+10	1
4902549	100	C	05/21/2023	04:11	-133.046	47.349	0	112.80	0	7.6290	0	32.6880	0	25.513	0	111.830	0	237.7	4	80.8	4	-1E+10	1	-1E+10	1	-1E+10	1	-1E+10	1	-1E+10	1	-1E+10	1
4902549	100	C	05/21/2023	04:11	-133.046	47.349	0	114.10	0	7.4640	0	32.7870	0	25.614	0	113.118	0	231.6	4	78.5	4	-1E+10	1	-1E+10	1	-1E+10	1	-1E+10	1	-1E+10	1	-1E+10	1
4902549	100	C	05/21/2023	04:11	-133.046	47.349	0	114.90	0	7.3340	0	32.8640	0	25.693	0	113.911	0	225.4	4	76.2	4	-1E+10	1	-1E+10	1	-1E+10	1	-1E+10	1	-1E+10	1	-1E+10	1
4902549	100	C	05/21/2023	04:11	-133.046	47.349	0	116.10	0	7.2430	0	32.9330	0	25.759	0	115.100	0	223.0	4	75.3	4	-1E+10	1	-1E+10	1	-1E+10	1	-1E+10	1	-1E+10	1	-1E+10	1
4902549	100	C	05/21/2023	04:11	-133.046	47.349	0	117.10	0	7.2250	0	32.9410	0	25.768	0	116.091	0	220.8	4	74.5	4	-1E+10	1	-1E+10	1	-1E+10	1	-1E+10	1	-1E+10	1	-1E+10	1
4902549	100	C	05/21/2023	04:11	-133.046	47.349	0	118.10	0	7.1480	0	33.0100	0	25.833	0	117.082	0	219.3	4	73.9	4	-1E+10	1	-1E+10	1	-1E+10	1	-1E+10	1	-1E+10	1	-1E+10	1
4902549	100	C	05/21/2023	04:11	-133.046	47.349	0	119.10	0	7.1020	0	33.0470	0	25.868	0	118.074	0	218.3	4	73.5	4	-1E+10	1	-1E+10	1	-1E+10	1	-1E+10	1	-1E+10	1	-1E+10	1
4902549	100	C	05/21/2023	04:11	-133.046	47.349	0	120.10	0	7.0780	0	33.0670	0	25.887	0	119.065	0	217.1	4	73.1	4	-1E+10	1	-1E+10	1	-1E+10	1	-1E+10	1	-1E+10	1	-1E+10	1
4902549	100	C	05/21/2023	04:11	-133.046	47.349	0	120.90	0	7.0610	0	33.0820	0	25.902	0	119.858	0	216.2	4	72.8	4	-1E+10	1	-1E+10	1	-1E+10	1	-1E+10	1	-1E+10	1	-1E+10	1
4902549	100	C	05/21/2023	04:11	-133.046	47.349	0	121.70	0	7.0440	0	33.0970	0	25.916	0	120.650	0	215.2	4	72.4	4	-1E+10	1	-1E+10	1	-1E+10	1	-1E+10	1	-1E+10	1	-1E+10	1
4902549	100	C	05/21/2023	04:11	-133.046	47.349	0	122.90	0	6.9890	0	33.1570	0	25.970	0	121.840	0	214.1	4	72.0	4	-1E+10	1	-1E+10	1	-1E+10	1	-1E+10	1	-1E+10	1	-1E+10	1
4902549	100	C	05/21/2023	04:11	-133.046	47.349	0	123.90	0	6.9720	0	33.1730	0	25.985	0	122.831	0	213.3	4	71.7	4	-1E+10	1	-1E+10	1	-1E+10	1	-1E+10	1	-1E+10	1	-1E+10	1
4902549	100	C	05/21/2023	04:11	-133.046	47.349	0	124.90	0	6.9650	0	33.1800	0	25.992	0	123.822	0	212.4	4	71.3	4	-1E+10	1	-1E+10	1	-1E+10	1	-1E+10	1	-1E+10	1	-1E+10	1
4902549	100	C	05/21/2023	04:11	-133.046	47.349	0	125.90	0	6.9600	0	33.1880	0	25.999	0	124.813	0	211.1	4	70.9	4	-1E+10	1	-1E+10	1	-1E+10	1	-1E+10	1	-1E+10	1	-1E+10	1
4902549	100	C	05/21/2023	04:11	-133.046	47.349	0	126.90	0	6.9440	0	33.2110	0	26.019	0	125.804	0	209.8	4	70.5	4	-1E+10	1	-1E+10	1	-1E+10	1	-1E+10	1	-1E+10	1	-1E+10	1
4902549	100	C	05/21/2023	04:11	-133.046	47.349	0	128.00	0	6.9140	0	33.2500	0	26.054	0	126.894	0	208.7	4	70.1	4	-1E+10	1	-1E+10	1	-1E+10	1	-1E+10	1	-1E+10	1	-1E+10	1
4902549	100	C	05/21/2023	04:11	-133.046	47.349	0	129.00	0	6.8960	0	33.2670	0	26.070	0	127.885	0	207.3	4	69.6	4	-1E+10	1	-1E+10	1	-1E+10	1	-1E+10	1	-1E+10	1	-1E+10	1
4902549	100	C	05/21/2023	04:11	-133.046	47.349	0	130.10	0	6.8850	0	33.2870	0	26.087	0	128.975	0	206.0	4	69.1	4	-1E+10	1	-1E+10	1	-1E+10	1	-1E+10	1	-1E+10	1	-1E+10	1
4902549	100	C	05/21/2023	04:11	-133.046	47.349	0	130.90	0	6.8750	0	33.2940	0	26.094	0	129.768	0	205.1	4	68.8	4	-1E+10	1	-1E+10	1	-1E+10	1	-1E+10	1	-1E+10	1	-1E+10	1
4902549	100	C	05/21/2023	04:11	-133.046	47.349	0	131.90	0	6.8930	0	33.3250	0	26.116	0	130.759	0	204.0	4	68.5	4	-1E+10	1	-1E+10	1	-1E+10	1	-1E+10	1	-1E+10	1	-1E+10	1
4902549	100	C	05/21/2023	04:11	-133.046	47.349	0	133.10	0	6.8780	0	33.3530	0	26.140	0	131.948	0	202.9	4	68.1	4	-1E+10	1	-1E+10	1	-1E+10	1	-1E+10	1	-1E+10	1	-1E+10	1
4902549	100	C	05/21/2023	04:11	-133.046	47.349	0	133.90	0	6.8540	0	33.3770	0	26.162	0	132.741	0	202.5	4	67.9	4	-1E+10	1	-1E+10	1	-1E+10	1	-1E+10	1	-1E+10	1	-1E+10	1
4902549	100	C	05/21/2023	04:11	-133.046	47.349	0	134.90	0	6.8500	0	33.3820	0	26.166	0	133.732	0	201.5	4	67.6	4	-1E+10	1	-1E+10	1	-1E+10	1	-1E+10	1	-1E+10	1	-1E+10	1
4902549	100	C	05/21/2023	04:11	-133.046	47.349	0	136.10	0	6.8440	0	33.3890	0	26.173	0	134.921	0	200.3	4	67.2	4	-1E+10	1	-1E+10	1	-1E+10	1	-1E+10	1	-1E+10	1	-1E+10	1
4902549	100	C	05/21/2023	04:11	-133.046	47.349	0	136.80	0	6.8360	0	33.4060	0	26.187	0	135.615	0	199.6	4	67.0	4	-1E+10	1	-1E+10	1	-1E+10	1	-1E+10	1	-1E+10	1	-1E+10	1
4902549	100	C	05/21/2023	04:11	-133.046	47.349	0	138.00	0	6.8050	0	33.4280	0	26.209	0	136.804	0	198.2	4	66.5	4	-1E+10	1	-1E+10	1	-1E+10	1	-1E+10	1	-1E+10	1	-1E+10	1
4902549	100	C	05/21/2023	04:11	-133.046	47.349	0	139.20	0	6.7900	0	33.4480	0	26.226	0	137.994	0	196.8	4	66.0	4	-1E+10	1	-1E+10	1	-1E+10	1	-1E+10	1	-1E+10	1	-1E+10	1
4902549	100	C	05/21/2023	04:11	-133.046	47.349	0	139.90	0	6.7770	0	33.4630	0	26.240	0	138.687	0	196.1	4	65.7	4	-1E+10	1	-1E+10	1	-1E+10	1	-1E+10	1	-1E+10	1	-1E+10	1
4902549	100	C	05/21/2023	04:11	-133.046	47.349	0	140.70	0	6.7700	0	33.4700	0	26.246	0	139.480	0	195.3	4	65.5	4	-1E+10	1	-1E+10	1	-1E+10	1	-1E+10	1	-1E+10	1	-1E+10	1
4902549	100	C	05/21/2023	04:11	-133.046	47.349	0	141.90	0	6.7480	0	33.4870	0	26.263	0	140.669	0	193.8	4	64.9	4	-1E+10	1	-1E+10	1	-1E+10	1	-1E+10	1	-1E+10	1	-1E+10	1
4902549	100	C	05/21/2023	04:11	-133.046	47.349	0	143.10	0	6.7330	0	33.5040	0	26.278	0	141.858	0	192.3	4	64.4	4	-1E+10	1	-1E+10	1	-1E+10	1	-1E+10	1	-1E+10	1	-1E+10	1
4902549	100	C	05/21/2023	04:11	-133.046	47.349	0	143.90	0	6.7240	0	33.5130	0	26.286	0	142.651	0	191.4	4	64.1	4	-1E+10	1	-1E+10	1	-1E+10	1	-1E+10	1	-1E+10	1	-1E+10	1
4902549	100	C	05/21/2023	04:11	-133.046	47.349	0	144.80	0	6.7030	0	33.5370	0	26.308	0	143.543	0	190.6	4	63.8	4	-1E+10	1	-1E+10	1	-1E+10	1	-1E+10	1	-1E+10	1	-1E+10	1
4902549	100	C	05/21/2023	04:11	-133.046	47.349	0	146.00	0	6.6890	0	33.5510	0	26.321	0	144.732	0	189.8	4	63.6	4	-1E+10	1	-1E+10	1	-1E+10	1	-1E+10	1	-1E+10	1	-1E+10	1
4902549	100	C	05/21/2023	04:11	-133.046	47.349	0	147.20	0	6.6850	0	33.5580	0	26.327	0	145.921	0	189.0	4	63.3	4	-1E+10	1	-1E+10	1	-1E+10	1	-1E+10	1	-1E+10	1	-1E+10	1
4902549	100	C	05/21/2023	04:11	-133.046	47.349	0	148.10	0	6.6840	0	33.5600	0	26.329	0	146.813	0	188.4	4	63.1	4	-1E+10	1	-1E+10	1	-1E+10	1	-1E+10	1	-1E+10	1	-1E+10	1
4902549	100	C	05/21/2023	04:11	-133.046	47.349	0	148.90	0	6.6820	0	33.5620	0	26.331	0	147.606	0	187.6	4	62.8	4	-1E+10	1	-1E+10	1	-1E+10	1	-1E+10	1	-1E+10	1	-1E+10	1
4902549	100	C	05/21/2023	04:11	-133.046	47.349	0	149.70	0	6.6750	0	33.5700	0	26.338	0	148.399	0	186.8	4	62.5	4	-1E+10	1	-1E+10	1	-1E+10	1	-1E+10	1	-1E+10	1	-1E+10	1
4902549	100	C	05/21/2023	04:11	-133.046	47.349	0	150.60	0	6.6660	0	33.5790	0	26.346	0	149.291	0	186.2	4	62.3	4	-1E+10	1	-1E+10	1	-1E+10	1	-1E+10	1	-1E+10	1	-1E+10	1
4902549	100	C	05/21/2023	04:11	-133.046	47.349	0	151.90	0	6.6450	0	33.5980	0	26.364	0	150.579	0	185.2	4	62.0	4	-1E+10	1	-1E+10	1	-1E+10	1	-1E+10	1	-1E+10	1	-1E+10	1
4902549	100	C	05/21/2023	04:11	-133.046	47.349	0	153.20	0	6.6390	0	33.6020	0	26.368	0	151.867	0	184.2	4	61.6	4	-1E+10	1	-1E+10	1	-1E+10	1	-1E+10	1	-1E+10	1	-1E+10	1
4902549	100	C	05/21/2023	04:11	-133.046	47.349	0	154.00	0	6.6370	0	33.6030	0	26.369	0	152.660	0	183.5	4	61.4	4	-1E+10	1	-1E+10	1	-1E+10	1	-1E+10	1	-1E+10	1	-1E+10	1
4902549	100	C	05/21/2023	04:11	-133.046	47.349	0	154.90	0	6.6370	0	33.6030	0	26.369	0	153.552	0	182.7	4	61.1	4	-1E+10	1	-1E+10	1	-1E+10	1	-1E+10	1	-1E+10	1	-1E+10	1
4902549	100	C	05/21/2023	04:11	-133.046	47.349	0	155.70	0	6.6340	0	33.6050	0	26.371	0	154.344	0	181.8	4	60.8	4	-1E+10	1	-1E+10	1	-1E+10	1	-1E+10	1	-1E+10	1	-1E+10	1
4902549	100	C	05/21/2023	04:11	-133.046	47.349	0	157.00	0	6.6320	0	33.6060	0	26.372	0	155.633	0	180.4	4	60.3	4	-1E+10	1	-1E+10	1	-1E+10	1	-1E+10	1	-1E+10	1	-1E+10	1
4902549	100	C	05/21/2023	04:11	-133.046	47.349	0	158.30	0	6.6200	0	33.6150	0	26.381	0	156.921	0	178.8	4	59.8	4	-1E+10	1	-1E+10	1	-1E+10	1	-1E+10	1	-1E+10	1	-1E+10	1
4902549	100	C	05/21/2023	04:11	-133.046	47.349	0	159.20	0	6.5980	0	33.6320	0	26.397	0	157.813	0	178.2	4	59.6	4	-1E+10	1	-1E+10	1	-1E+10	1	-1E+10	1	-1E+10	1	-1E+10	1
4902549	100	C	05/21/2023	04:11	-133.046	47.349	0	160.00	0	6.5850	0	33.6410	0	26.406	0	158.605	0	177.4	4	59.3	4	-1E+10	1	-1E+10	1	-1E+10	1	-1E+10	1	-1E+10	1	-1E+10	1
4902549	100	C	05/21/2023	04:11	-133.046	47.349	0	160.90	0	6.5800	0	33.6440	0	26.409	0	159.497	0	176.7	4	59.1	4	-1E+10	1	-1E+10	1	-1E+10	1	-1E+10	1	-1E+10	1	-1E+10	1
4902549	100	C	05/21/2023	04:11	-133.046	47.349	0	161.80	0	6.5750	0	33.6470	0	26.412	0	160.389	0	176.0	4	58.8	4	-1E+10	1	-1E+10	1	-1E+10	1	-1E+10	1	-1E+10	1	-1E+10	1
4902549	100	C	05/21/2023	04:11	-133.046	47.349	0	162.70	0	6.5540	0	33.6620	0	26.427	0	161.281	0	175.3	4	58.6	4	-1E+10	1	-1E+10	1	-1E+10	1	-1E+10	1	-1E+10	1	-1E+10	1
4902549	100	C	05/21/2023	04:11	-133.046	47.349	0	163.70	0	6.5530	0	33.6620	0	26.427	0	162.272	0	174.4	4	58.3	4	-1E+10	1	-1E+10	1	-1E+10	1	-1E+10	1	-1E+10	1	-1E+10	1
4902549	100	C	05/21/2023	04:11	-133.046	47.349	0	164.60	0	6.5300	0	33.6810	0	26.445	0	163.163	0	173.6	4	57.9	4	-1E+10	1	-1E+10	1	-1E+10	1	-1E+10	1	-1E+10	1	-1E+10	1
4902549	100	C	05/21/2023	04:11	-133.046	47.349	0	165.50	0	6.5190	0	33.6880	0	26.452	0	164.055	0	172.8	4	57.7	4	-1E+10	1	-1E+10	1	-1E+10	1	-1E+10	1	-1E+10	1	-1E+10	1
4902549	100	C	05/21/2023	04:11	-133.046	47.349	0	166.50	0	6.5040	0	33.6950	0	26.459	0	165.046	0	172.1	4	57.4	4	-1E+10	1	-1E+10	1	-1E+10	1	-1E+10	1	-1E+10	1	-1E+10	1
4902549	100	C	05/21/2023	04:11	-133.046	47.349	0	167.50	0	6.4960	0	33.6970	0	26.462	0	166.037	0	171.3	4	57.1	4	-1E+10	1	-1E+10	1	-1E+10	1	-1E+10	1	-1E+10	1	-1E+10	1
4902549	100	C	05/21/2023	04:11	-133.046	47.349	0	168.90	0	6.4830	0	33.7030	0	26.468	0	167.424	0	170.1	4	56.7	4	-1E+10	1	-1E+10	1	-1E+10	1	-1E+10	1	-1E+10	1	-1E+10	1
4902549	100	C	05/21/2023	04:11	-133.046	47.349	0	170.40	0	6.4610	0	33.7130	0	26.479	0	168.910	0	169.0	4	56.4	4	-1E+10	1	-1E+10	1	-1E+10	1	-1E+10	1	-1E+10	1	-1E+10	1
4902549	100	C	05/21/2023	04:11	-133.046	47.349	0	171.40	0	6.4620	0	33.7140	0	26.480	0	169.901	0	168.2	4	56.1	4	-1E+10	1	-1E+10	1	-1E+10	1	-1E+10	1	-1E+10	1	-1E+10	1
4902549	100	C	05/21/2023	04:11	-133.046	47.349	0	172.40	0	6.4420	0	33.7280	0	26.493	0	170.892	0	167.8	4	55.9	4	-1E+10	1	-1E+10	1	-1E+10	1	-1E+10	1	-1E+10	1	-1E+10	1
4902549	100	C	05/21/2023	04:11	-133.046	47.349	0	173.40	0	6.4410	0	33.7340	0	26.498	0	171.883	0	167.3	4	55.8	4	-1E+10	1	-1E+10	1	-1E+10	1	-1E+10	1	-1E+10	1	-1E+10	1
4902549	100	C	05/21/2023	04:11	-133.046	47.349	0	174.40	0	6.4340	0	33.7400	0	26.504	0	172.874	0	166.8	4	55.6	4	-1E+10	1	-1E+10	1	-1E+10	1	-1E+10	1	-1E+10	1	-1E+10	1
4902549	100	C	05/21/2023	04:11	-133.046	47.349	0	175.50	0	6.4230	0	33.7440	0	26.508	0	173.964	0	166.3	4	55.4	4	-1E+10	1	-1E+10	1	-1E+10	1	-1E+10	1	-1E+10	1	-1E+10	1
4902549	100	C	05/21/2023	04:11	-133.046	47.349	0	176.50	0	6.4190	0	33.7450	0	26.510	0	174.955	0	165.9	4	55.3	4	-1E+10	1	-1E+10	1	-1E+10	1	-1E+10	1	-1E+10	1	-1E+10	1
4902549	100	C	05/21/2023	04:11	-133.046	47.349	0	177.50	0	6.4070	0	33.7470	0	26.513	0	175.945	0	165.6	4	55.2	4	-1E+10	1	-1E+10	1	-1E+10	1	-1E+10	1	-1E+10	1	-1E+10	1
4902549	100	C	05/21/2023	04:11	-133.046	47.349	0	178.50	0	6.3970	0	33.7470	0	26.514	0	176.936	0	165.2	4	55.0	4	-1E+10	1	-1E+10	1	-1E+10	1	-1E+10	1	-1E+10	1	-1E+10	1
4902549	100	C	05/21/2023	04:11	-133.046	47.349	0	179.60	0	6.3880	0	33.7500	0	26.518	0	178.026	0	164.9	4	54.9	4	-1E+10	1	-1E+10	1	-1E+10	1	-1E+10	1	-1E+10	1	-1E+10	1
4902549	100	C	05/21/2023	04:11	-133.046	47.349	0	180.60	0	6.3870	0	33.7490	0	26.517	0	179.017	0	164.5	4	54.8	4	-1E+10	1	-1E+10	1	-1E+10	1	-1E+10	1	-1E+10	1	-1E+10	1
4902549	100	C	05/21/2023	04:11	-133.046	47.349	0	181.60	0	6.3860	0	33.7490	0	26.517	0	180.008	0	164.0	4	54.6	4	-1E+10	1	-1E+10	1	-1E+10	1	-1E+10	1	-1E+10	1	-1E+10	1
4902549	100	C	05/21/2023	04:11	-133.046	47.349	0	182.70	0	6.3880	0	33.7500	0	26.518	0	181.098	0	163.5	4	54.4	4	-1E+10	1	-1E+10	1	-1E+10	1	-1E+10	1	-1E+10	1	-1E+10	1
4902549	100	C	05/21/2023	04:11	-133.046	47.349	0	183.70	0	6.3870	0	33.7500	0	26.518	0	182.088	0	162.8	4	54.2	4	-1E+10	1	-1E+10	1	-1E+10	1	-1E+10	1	-1E+10	1	-1E+10	1
4902549	100	C	05/21/2023	04:11	-133.046	47.349	0	184.70	0	6.3830	0	33.7510	0	26.519	0	183.079	0	162.2	4	54.0	4	-1E+10	1	-1E+10	1	-1E+10	1	-1E+10	1	-1E+10	1	-1E+10	1
4902549	100	C	05/21/2023	04:11	-133.046	47.349	0	185.70	0	6.3830	0	33.7510	0	26.519	0	184.070	0	161.5	4	53.8	4	-1E+10	1	-1E+10	1	-1E+10	1	-1E+10	1	-1E+10	1	-1E+10	1
4902549	100	C	05/21/2023	04:11	-133.046	47.349	0	186.70	0	6.3820	0	33.7540	0	26.522	0	185.061	0	160.8	4	53.5	4	-1E+10	1	-1E+10	1	-1E+10	1	-1E+10	1	-1E+10	1	-1E+10	1
4902549	100	C	05/21/2023	04:11	-133.046	47.349	0	187.70	0	6.3810	0	33.7570	0	26.524	0	186.051	0	160.0	4	53.3	4	-1E+10	1	-1E+10	1	-1E+10	1	-1E+10	1	-1E+10	1	-1E+10	1
4902549	100	C	05/21/2023	04:11	-133.046	47.349	0	188.70	0	6.3850	0	33.7580	0	26.525	0	187.042	0	159.1	4	53.0	4	-1E+10	1	-1E+10	1	-1E+10	1	-1E+10	1	-1E+10	1	-1E+10	1
4902549	100	C	05/21/2023	04:11	-133.046	47.349	0	189.70	0	6.3800	0	33.7590	0	26.526	0	188.033	0	158.2	4	52.7	4	-1E+10	1	-1E+10	1	-1E+10	1	-1E+10	1	-1E+10	1	-1E+10	1
4902549	100	C	05/21/2023	04:11	-133.046	47.349	0	190.80	0	6.3890	0	33.7600	0	26.526	0	189.123	0	157.2	4	52.3	4	-1E+10	1	-1E+10	1	-1E+10	1	-1E+10	1	-1E+10	1	-1E+10	1
4902549	100	C	05/21/2023	04:11	-133.046	47.349	0	191.80	0	6.3970	0	33.7700	0	26.532	0	190.114	0	156.2	4	52.0	4	-1E+10	1	-1E+10	1	-1E+10	1	-1E+10	1	-1E+10	1	-1E+10	1
4902549	100	C	05/21/2023	04:11	-133.046	47.349	0	192.80	0	6.3780	0	33.7710	0	26.536	0	191.104	0	155.4	4	51.7	4	-1E+10	1	-1E+10	1	-1E+10	1	-1E+10	1	-1E+10	1	-1E+10	1
4902549	100	C	05/21/2023	04:11	-133.046	47.349	0	193.70	0	6.3460	0	33.7750	0	26.543	0	191.996	0	154.7	4	51.5	4	-1E+10	1	-1E+10	1	-1E+10	1	-1E+10	1	-1E+10	1	-1E+10	1
4902549	100	C	05/21/2023	04:11	-133.046	47.349	0	194.70	0	6.3390	0	33.7740	0	26.543	0	192.987	0	154.0	4	51.2	4	-1E+10	1	-1E+10	1	-1E+10	1	-1E+10	1	-1E+10	1	-1E+10	1
4902549	100	C	05/21/2023	04:11	-133.046	47.349	0	195.70	0	6.3370	0	33.7750	0	26.544	0	193.977	0	153.2	4	51.0	4	-1E+10	1	-1E+10	1	-1E+10	1	-1E+10	1	-1E+10	1	-1E+10	1
4902549	100	C	05/21/2023	04:11	-133.046	47.349	0	196.70	0	6.3280	0	33.7750	0	26.545	0	194.968	0	152.3	4	50.6	4	-1E+10	1	-1E+10	1	-1E+10	1	-1E+10	1	-1E+10	1	-1E+10	1
4902549	100	C	05/21/2023	04:11	-133.046	47.349	0	197.70	0	6.3100	0	33.7720	0	26.545	0	195.959	0	151.4	4	50.3	4	-1E+10	1	-1E+10	1	-1E+10	1	-1E+10	1	-1E+10	1	-1E+10	1
4902549	100	C	05/21/2023	04:11	-133.046	47.349	0	198.60	0	6.2910	0	33.7750	0	26.550	0	196.851	0	150.5	4	50.0	4	-1E+10	1	-1E+10	1	-1E+10	1	-1E+10	1	-1E+10	1	-1E+10	1
4902549	100	C	05/21/2023	04:11	-133.046	47.349	0	199.60	0	6.2840	0	33.7740	0	26.550	0	197.841	0	149.3	4	49.6	4	-1E+10	1	-1E+10	1	-1E+10	1	-1E+10	1	-1E+10	1	-1E+10	1
4902549	100	C	05/21/2023	04:11	-133.046	47.349	0	200.60	0	6.2510	0	33.7720	0	26.553	0	198.832	0	148.0	4	49.1	4	-1E+10	1	-1E+10	1	-1E+10	1	-1E+10	1	-1E+10	1	-1E+10	1
4902549	100	C	05/21/2023	04:11	-133.046	47.349	0	201.50	0	6.2350	0	33.7740	0	26.557	0	199.724	0	146.7	4	48.7	4	-1E+10	1	-1E+10	1	-1E+10	1	-1E+10	1	-1E+10	1	-1E+10	1
4902549	100	C	05/21/2023	04:11	-133.046	47.349	0	202.90	0	6.1900	0	33.7840	0	26.570	0	201.111	0	144.9	4	48.0	4	-1E+10	1	-1E+10	1	-1E+10	1	-1E+10	1	-1E+10	1	-1E+10	1
4902549	100	C	05/21/2023	04:11	-133.046	47.349	0	204.40	0	6.1220	0	33.7780	0	26.574	0	202.597	0	143.4	4	47.5	4	-1E+10	1	-1E+10	1	-1E+10	1	-1E+10	1	-1E+10	1	-1E+10	1
4902549	100	C	05/21/2023	04:11	-133.046	47.349	0	205.30	0	6.1100	0	33.7780	0	26.576	0	203.488	0	142.5	4	47.1	4	-1E+10	1	-1E+10	1	-1E+10	1	-1E+10	1	-1E+10	1	-1E+10	1
4902549	100	C	05/21/2023	04:11	-133.046	47.349	0	206.30	0	6.0730	0	33.7800	0	26.582	0	204.479	0	141.5	4	46.8	4	-1E+10	1	-1E+10	1	-1E+10	1	-1E+10	1	-1E+10	1	-1E+10	1
4902549	100	C	05/21/2023	04:11	-133.046	47.349	0	207.20	0	6.0380	0	33.7820	0	26.588	0	205.371	0	140.7	4	46.5	4	-1E+10	1	-1E+10	1	-1E+10	1	-1E+10	1	-1E+10	1	-1E+10	1
4902549	100	C	05/21/2023	04:11	-133.046	47.349	0	208.20	0	6.0150	0	33.7810	0	26.590	0	206.361	0	140.0	4	46.2	4	-1E+10	1	-1E+10	1	-1E+10	1	-1E+10	1	-1E+10	1	-1E+10	1
4902549	100	C	05/21/2023	04:11	-133.046	47.349	0	209.10	0	6.0080	0	33.7800	0	26.590	0	207.253	0	139.0	4	45.9	4	-1E+10	1	-1E+10	1	-1E+10	1	-1E+10	1	-1E+10	1	-1E+10	1
4902549	100	C	05/21/2023	04:11	-133.046	47.349	0	210.00	0	6.0040	0	33.7800	0	26.591	0	208.144	0	138.0	4	45.5	4	-1E+10	1	-1E+10	1	-1E+10	1	-1E+10	1	-1E+10	1	-1E+10	1
4902549	100	C	05/21/2023	04:11	-133.046	47.349	0	211.00	0	5.9370	0	33.7850	0	26.603	0	209.135	0	137.4	4	45.3	4	-1E+10	1	-1E+10	1	-1E+10	1	-1E+10	1	-1E+10	1	-1E+10	1
4902549	100	C	05/21/2023	04:11	-133.046	47.349	0	211.90	0	5.9230	0	33.7830	0	26.603	0	210.027	0	136.9	4	45.1	4	-1E+10	1	-1E+10	1	-1E+10	1	-1E+10	1	-1E+10	1	-1E+10	1
4902549	100	C	05/21/2023	04:11	-133.046	47.349	0	212.90	0	5.9190	0	33.7830	0	26.603	0	211.017	0	136.2	4	44.9	4	-1E+10	1	-1E+10	1	-1E+10	1	-1E+10	1	-1E+10	1	-1E+10	1
4902549	100	C	05/21/2023	04:11	-133.046	47.349	0	213.80	0	5.9070	0	33.7850	0	26.607	0	211.909	0	135.5	4	44.6	4	-1E+10	1	-1E+10	1	-1E+10	1	-1E+10	1	-1E+10	1	-1E+10	1
4902549	100	C	05/21/2023	04:11	-133.046	47.349	0	214.80	0	5.8910	0	33.7860	0	26.609	0	212.899	0	135.0	4	44.4	4	-1E+10	1	-1E+10	1	-1E+10	1	-1E+10	1	-1E+10	1	-1E+10	1
4902549	100	C	05/21/2023	04:11	-133.046	47.349	0	215.70	0	5.8790	0	33.7870	0	26.612	0	213.791	0	134.3	4	44.2	4	-1E+10	1	-1E+10	1	-1E+10	1	-1E+10	1	-1E+10	1	-1E+10	1
4902549	100	C	05/21/2023	04:11	-133.046	47.349	0	216.70	0	5.8740	0	33.7860	0	26.611	0	214.782	0	133.7	4	44.0	4	-1E+10	1	-1E+10	1	-1E+10	1	-1E+10	1	-1E+10	1	-1E+10	1
4902549	100	C	05/21/2023	04:11	-133.046	47.349	0	217.70	0	5.8600	0	33.7860	0	26.613	0	215.772	0	133.1	4	43.8	4	-1E+10	1	-1E+10	1	-1E+10	1	-1E+10	1	-1E+10	1	-1E+10	1
4902549	100	C	05/21/2023	04:11	-133.046	47.349	0	218.60	0	5.8550	0	33.7870	0	26.615	0	216.664	0	132.4	4	43.6	4	-1E+10	1	-1E+10	1	-1E+10	1	-1E+10	1	-1E+10	1	-1E+10	1
4902549	100	C	05/21/2023	04:11	-133.046	47.349	0	219.60	0	5.8470	0	33.7880	0	26.616	0	217.655	0	131.8	4	43.4	4	-1E+10	1	-1E+10	1	-1E+10	1	-1E+10	1	-1E+10	1	-1E+10	1
4902549	100	C	05/21/2023	04:11	-133.046	47.349	0	220.50	0	5.8430	0	33.7880	0	26.617	0	218.546	0	131.2	4	43.1	4	-1E+10	1	-1E+10	1	-1E+10	1	-1E+10	1	-1E+10	1	-1E+10	1
4902549	100	C	05/21/2023	04:11	-133.046	47.349	0	221.90	0	5.8300	0	33.7890	0	26.619	0	219.933	0	130.2	4	42.8	4	-1E+10	1	-1E+10	1	-1E+10	1	-1E+10	1	-1E+10	1	-1E+10	1
4902549	100	C	05/21/2023	04:11	-133.046	47.349	0	223.40	0	5.8170	0	33.7910	0	26.622	0	221.419	0	129.2	4	42.5	4	-1E+10	1	-1E+10	1	-1E+10	1	-1E+10	1	-1E+10	1	-1E+10	1
4902549	100	C	05/21/2023	04:11	-133.046	47.349	0	224.40	0	5.8010	0	33.7910	0	26.624	0	222.409	0	128.5	4	42.2	4	-1E+10	1	-1E+10	1	-1E+10	1	-1E+10	1	-1E+10	1	-1E+10	1
4902549	100	C	05/21/2023	04:11	-133.046	47.349	0	225.40	0	5.7770	0	33.7930	0	26.629	0	223.400	0	127.9	4	42.0	4	-1E+10	1	-1E+10	1	-1E+10	1	-1E+10	1	-1E+10	1	-1E+10	1
4902549	100	C	05/21/2023	04:11	-133.046	47.349	0	226.40	0	5.7450	0	33.7930	0	26.633	0	224.391	0	127.2	4	41.7	4	-1E+10	1	-1E+10	1	-1E+10	1	-1E+10	1	-1E+10	1	-1E+10	1
4902549	100	C	05/21/2023	04:11	-133.046	47.349	0	227.40	0	5.7190	0	33.7920	0	26.635	0	225.381	0	126.7	4	41.5	4	-1E+10	1	-1E+10	1	-1E+10	1	-1E+10	1	-1E+10	1	-1E+10	1
4902549	100	C	05/21/2023	04:11	-133.046	47.349	0	228.30	0	5.7060	0	33.7930	0	26.638	0	226.273	0	126.1	4	41.3	4	-1E+10	1	-1E+10	1	-1E+10	1	-1E+10	1	-1E+10	1	-1E+10	1
4902549	100	C	05/21/2023	04:11	-133.046	47.349	0	229.30	0	5.7020	0	33.7920	0	26.637	0	227.263	0	125.4	4	41.1	4	-1E+10	1	-1E+10	1	-1E+10	1	-1E+10	1	-1E+10	1	-1E+10	1
4902549	100	C	05/21/2023	04:11	-133.046	47.349	0	230.30	0	5.6980	0	33.7920	0	26.638	0	228.254	0	124.7	4	40.9	4	-1E+10	1	-1E+10	1	-1E+10	1	-1E+10	1	-1E+10	1	-1E+10	1
4902549	100	C	05/21/2023	04:11	-133.046	47.349	0	231.20	0	5.6960	0	33.7920	0	26.638	0	229.145	0	123.9	4	40.6	4	-1E+10	1	-1E+10	1	-1E+10	1	-1E+10	1	-1E+10	1	-1E+10	1
4902549	100	C	05/21/2023	04:11	-133.046	47.349	0	232.20	0	5.6940	0	33.7920	0	26.638	0	230.136	0	122.7	4	40.2	4	-1E+10	1	-1E+10	1	-1E+10	1	-1E+10	1	-1E+10	1	-1E+10	1
4902549	100	C	05/21/2023	04:11	-133.046	47.349	0	233.00	0	5.6900	0	33.7940	0	26.640	0	230.928	0	121.9	4	40.0	4	-1E+10	1	-1E+10	1	-1E+10	1	-1E+10	1	-1E+10	1	-1E+10	1
4902549	100	C	05/21/2023	04:11	-133.046	47.349	0	234.00	0	5.6540	0	33.7970	0	26.647	0	231.919	0	121.0	4	39.6	4	-1E+10	1	-1E+10	1	-1E+10	1	-1E+10	1	-1E+10	1	-1E+10	1
4902549	100	C	05/21/2023	04:11	-133.046	47.349	0	235.20	0	5.6480	0	33.8020	0	26.652	0	233.108	0	120.2	4	39.4	4	-1E+10	1	-1E+10	1	-1E+10	1	-1E+10	1	-1E+10	1	-1E+10	1
4902549	100	C	05/21/2023	04:11	-133.046	47.349	0	235.90	0	5.6300	0	33.8040	0	26.656	0	233.801	0	119.8	4	39.2	4	-1E+10	1	-1E+10	1	-1E+10	1	-1E+10	1	-1E+10	1	-1E+10	1
4902549	100	C	05/21/2023	04:11	-133.046	47.349	0	236.70	0	5.6100	0	33.8050	0	26.659	0	234.593	0	119.4	4	39.1	4	-1E+10	1	-1E+10	1	-1E+10	1	-1E+10	1	-1E+10	1	-1E+10	1
4902549	100	C	05/21/2023	04:11	-133.046	47.349	0	237.80	0	5.5940	0	33.8050	0	26.661	0	235.683	0	118.9	4	38.9	4	-1E+10	1	-1E+10	1	-1E+10	1	-1E+10	1	-1E+10	1	-1E+10	1
4902549	100	C	05/21/2023	04:11	-133.046	47.349	0	239.00	0	5.5900	0	33.8060	0	26.662	0	236.872	0	118.4	4	38.7	4	-1E+10	1	-1E+10	1	-1E+10	1	-1E+10	1	-1E+10	1	-1E+10	1
4902549	100	C	05/21/2023	04:11	-133.046	47.349	0	239.80	0	5.5830	0	33.8060	0	26.663	0	237.664	0	118.1	4	38.6	4	-1E+10	1	-1E+10	1	-1E+10	1	-1E+10	1	-1E+10	1	-1E+10	1
4902549	100	C	05/21/2023	04:11	-133.046	47.349	0	240.90	0	5.5780	0	33.8060	0	26.664	0	238.754	0	117.6	4	38.4	4	-1E+10	1	-1E+10	1	-1E+10	1	-1E+10	1	-1E+10	1	-1E+10	1
4902549	100	C	05/21/2023	04:11	-133.046	47.349	0	242.10	0	5.5620	0	33.8080	0	26.667	0	239.942	0	117.0	4	38.2	4	-1E+10	1	-1E+10	1	-1E+10	1	-1E+10	1	-1E+10	1	-1E+10	1
4902549	100	C	05/21/2023	04:11	-133.046	47.349	0	242.90	0	5.5570	0	33.8060	0	26.666	0	240.735	0	116.7	4	38.1	4	-1E+10	1	-1E+10	1	-1E+10	1	-1E+10	1	-1E+10	1	-1E+10	1
4902549	100	C	05/21/2023	04:11	-133.046	47.349	0	243.70	0	5.5510	0	33.8070	0	26.668	0	241.527	0	116.3	4	38.0	4	-1E+10	1	-1E+10	1	-1E+10	1	-1E+10	1	-1E+10	1	-1E+10	1
4902549	100	C	05/21/2023	04:11	-133.046	47.349	0	244.90	0	5.5310	0	33.8060	0	26.669	0	242.716	0	115.8	4	37.8	4	-1E+10	1	-1E+10	1	-1E+10	1	-1E+10	1	-1E+10	1	-1E+10	1
4902549	100	C	05/21/2023	04:11	-133.046	47.349	0	246.10	0	5.5190	0	33.8070	0	26.671	0	243.904	0	115.3	4	37.6	4	-1E+10	1	-1E+10	1	-1E+10	1	-1E+10	1	-1E+10	1	-1E+10	1
4902549	100	C	05/21/2023	04:11	-133.046	47.349	0	246.90	0	5.5170	0	33.8080	0	26.672	0	244.696	0	114.8	4	37.5	4	-1E+10	1	-1E+10	1	-1E+10	1	-1E+10	1	-1E+10	1	-1E+10	1
4902549	100	C	05/21/2023	04:11	-133.046	47.349	0	247.80	0	5.5150	0	33.8080	0	26.673	0	245.588	0	114.3	4	37.3	4	-1E+10	1	-1E+10	1	-1E+10	1	-1E+10	1	-1E+10	1	-1E+10	1
4902549	100	C	05/21/2023	04:11	-133.046	47.349	0	249.00	0	5.5010	0	33.8090	0	26.675	0	246.777	0	113.6	4	37.1	4	-1E+10	1	-1E+10	1	-1E+10	1	-1E+10	1	-1E+10	1	-1E+10	1
4902549	100	C	05/21/2023	04:11	-133.046	47.349	0	250.20	0	5.4860	0	33.8090	0	26.677	0	247.965	0	113.0	4	36.9	4	-1E+10	1	-1E+10	1	-1E+10	1	-1E+10	1	-1E+10	1	-1E+10	1
4902549	100	C	05/21/2023	04:11	-133.046	47.349	0	251.00	0	5.4840	0	33.8090	0	26.677	0	248.757	0	112.5	4	36.7	4	-1E+10	1	-1E+10	1	-1E+10	1	-1E+10	1	-1E+10	1	-1E+10	1
4902549	100	C	05/21/2023	04:11	-133.046	47.349	0	251.90	0	5.4840	0	33.8090	0	26.677	0	249.649	0	111.9	4	36.5	4	-1E+10	1	-1E+10	1	-1E+10	1	-1E+10	1	-1E+10	1	-1E+10	1
4902549	100	C	05/21/2023	04:11	-133.046	47.349	0	252.70	0	5.4800	0	33.8090	0	26.678	0	250.441	0	111.4	4	36.3	4	-1E+10	1	-1E+10	1	-1E+10	1	-1E+10	1	-1E+10	1	-1E+10	1
4902549	100	C	05/21/2023	04:11	-133.046	47.349	0	253.90	0	5.4480	0	33.8110	0	26.683	0	251.630	0	110.7	4	36.1	4	-1E+10	1	-1E+10	1	-1E+10	1	-1E+10	1	-1E+10	1	-1E+10	1
4902549	100	C	05/21/2023	04:11	-133.046	47.349	0	255.20	0	5.4120	0	33.8140	0	26.690	0	252.917	0	110.3	4	35.9	4	-1E+10	1	-1E+10	1	-1E+10	1	-1E+10	1	-1E+10	1	-1E+10	1
4902549	100	C	05/21/2023	04:11	-133.046	47.349	0	256.10	0	5.3910	0	33.8150	0	26.693	0	253.809	0	110.0	4	35.8	4	-1E+10	1	-1E+10	1	-1E+10	1	-1E+10	1	-1E+10	1	-1E+10	1
4902549	100	C	05/21/2023	04:11	-133.046	47.349	0	256.90	0	5.3700	0	33.8140	0	26.695	0	254.601	0	109.9	4	35.7	4	-1E+10	1	-1E+10	1	-1E+10	1	-1E+10	1	-1E+10	1	-1E+10	1
4902549	100	C	05/21/2023	04:11	-133.046	47.349	0	257.80	0	5.3680	0	33.8140	0	26.695	0	255.492	0	109.7	4	35.7	4	-1E+10	1	-1E+10	1	-1E+10	1	-1E+10	1	-1E+10	1	-1E+10	1
4902549	100	C	05/21/2023	04:11	-133.046	47.349	0	258.60	0	5.3680	0	33.8140	0	26.695	0	256.285	0	109.4	4	35.6	4	-1E+10	1	-1E+10	1	-1E+10	1	-1E+10	1	-1E+10	1	-1E+10	1
4902549	100	C	05/21/2023	04:11	-133.046	47.349	0	259.90	0	5.3500	0	33.8150	0	26.698	0	257.572	0	109.1	4	35.5	4	-1E+10	1	-1E+10	1	-1E+10	1	-1E+10	1	-1E+10	1	-1E+10	1
4902549	100	C	05/21/2023	04:11	-133.046	47.349	0	261.30	0	5.3370	0	33.8150	0	26.699	0	258.959	0	108.8	4	35.4	4	-1E+10	1	-1E+10	1	-1E+10	1	-1E+10	1	-1E+10	1	-1E+10	1
4902549	100	C	05/21/2023	04:11	-133.046	47.349	0	262.20	0	5.3350	0	33.8150	0	26.700	0	259.850	0	108.5	4	35.3	4	-1E+10	1	-1E+10	1	-1E+10	1	-1E+10	1	-1E+10	1	-1E+10	1
4902549	100	C	05/21/2023	04:11	-133.046	47.349	0	263.00	0	5.3310	0	33.8150	0	26.700	0	260.643	0	108.3	4	35.2	4	-1E+10	1	-1E+10	1	-1E+10	1	-1E+10	1	-1E+10	1	-1E+10	1
4902549	100	C	05/21/2023	04:11	-133.046	47.349	0	263.90	0	5.3210	0	33.8150	0	26.701	0	261.534	0	108.1	4	35.1	4	-1E+10	1	-1E+10	1	-1E+10	1	-1E+10	1	-1E+10	1	-1E+10	1
4902549	100	C	05/21/2023	04:11	-133.046	47.349	0	264.80	0	5.3150	0	33.8150	0	26.702	0	262.425	0	107.9	4	35.1	4	-1E+10	1	-1E+10	1	-1E+10	1	-1E+10	1	-1E+10	1	-1E+10	1
4902549	100	C	05/21/2023	04:11	-133.046	47.349	0	265.70	0	5.3130	0	33.8150	0	26.702	0	263.317	0	107.6	4	35.0	4	-1E+10	1	-1E+10	1	-1E+10	1	-1E+10	1	-1E+10	1	-1E+10	1
4902549	100	C	05/21/2023	04:11	-133.046	47.349	0	266.90	0	5.3110	0	33.8150	0	26.702	0	264.505	0	107.2	4	34.8	4	-1E+10	1	-1E+10	1	-1E+10	1	-1E+10	1	-1E+10	1	-1E+10	1
4902549	100	C	05/21/2023	04:11	-133.046	47.349	0	268.30	0	5.3080	0	33.8150	0	26.703	0	265.892	0	106.6	4	34.6	4	-1E+10	1	-1E+10	1	-1E+10	1	-1E+10	1	-1E+10	1	-1E+10	1
4902549	100	C	05/21/2023	04:11	-133.046	47.349	0	269.20	0	5.3100	0	33.8160	0	26.703	0	266.783	0	106.3	4	34.5	4	-1E+10	1	-1E+10	1	-1E+10	1	-1E+10	1	-1E+10	1	-1E+10	1
4902549	100	C	05/21/2023	04:11	-133.046	47.349	0	270.10	0	5.3100	0	33.8150	0	26.703	0	267.674	0	105.8	4	34.4	4	-1E+10	1	-1E+10	1	-1E+10	1	-1E+10	1	-1E+10	1	-1E+10	1
4902549	100	C	05/21/2023	04:11	-133.046	47.349	0	271.00	0	5.3070	0	33.8160	0	26.704	0	268.566	0	105.4	4	34.2	4	-1E+10	1	-1E+10	1	-1E+10	1	-1E+10	1	-1E+10	1	-1E+10	1
4902549	100	C	05/21/2023	04:11	-133.046	47.349	0	271.90	0	5.2900	0	33.8180	0	26.707	0	269.457	0	105.1	4	34.1	4	-1E+10	1	-1E+10	1	-1E+10	1	-1E+10	1	-1E+10	1	-1E+10	1
4902549	100	C	05/21/2023	04:11	-133.046	47.349	0	272.80	0	5.2810	0	33.8190	0	26.709	0	270.348	0	104.7	4	34.0	4	-1E+10	1	-1E+10	1	-1E+10	1	-1E+10	1	-1E+10	1	-1E+10	1
4902549	100	C	05/21/2023	04:11	-133.046	47.349	0	273.60	0	5.2790	0	33.8200	0	26.710	0	271.141	0	104.3	4	33.9	4	-1E+10	1	-1E+10	1	-1E+10	1	-1E+10	1	-1E+10	1	-1E+10	1
4902549	100	C	05/21/2023	04:11	-133.046	47.349	0	275.00	0	5.2800	0	33.8190	0	26.709	0	272.527	0	103.7	4	33.7	4	-1E+10	1	-1E+10	1	-1E+10	1	-1E+10	1	-1E+10	1	-1E+10	1
4902549	100	C	05/21/2023	04:11	-133.046	47.349	0	276.30	0	5.2720	0	33.8210	0	26.712	0	273.815	0	103.0	4	33.4	4	-1E+10	1	-1E+10	1	-1E+10	1	-1E+10	1	-1E+10	1	-1E+10	1
4902549	100	C	05/21/2023	04:11	-133.046	47.349	0	277.20	0	5.2630	0	33.8230	0	26.715	0	274.706	0	102.6	4	33.3	4	-1E+10	1	-1E+10	1	-1E+10	1	-1E+10	1	-1E+10	1	-1E+10	1
4902549	100	C	05/21/2023	04:11	-133.046	47.349	0	278.10	0	5.2560	0	33.8230	0	26.715	0	275.597	0	102.2	4	33.2	4	-1E+10	1	-1E+10	1	-1E+10	1	-1E+10	1	-1E+10	1	-1E+10	1
4902549	100	C	05/21/2023	04:11	-133.046	47.349	0	279.00	0	5.2500	0	33.8230	0	26.716	0	276.489	0	101.8	4	33.0	4	-1E+10	1	-1E+10	1	-1E+10	1	-1E+10	1	-1E+10	1	-1E+10	1
4902549	100	C	05/21/2023	04:11	-133.046	47.349	0	279.90	0	5.2400	0	33.8240	0	26.718	0	277.380	0	101.3	4	32.9	4	-1E+10	1	-1E+10	1	-1E+10	1	-1E+10	1	-1E+10	1	-1E+10	1
4902549	100	C	05/21/2023	04:11	-133.046	47.349	0	280.80	0	5.2340	0	33.8240	0	26.719	0	278.271	0	100.9	4	32.7	4	-1E+10	1	-1E+10	1	-1E+10	1	-1E+10	1	-1E+10	1	-1E+10	1
4902549	100	C	05/21/2023	04:11	-133.046	47.349	0	281.70	0	5.2290	0	33.8250	0	26.720	0	279.162	0	100.5	4	32.6	4	-1E+10	1	-1E+10	1	-1E+10	1	-1E+10	1	-1E+10	1	-1E+10	1
4902549	100	C	05/21/2023	04:11	-133.046	47.349	0	282.60	0	5.2230	0	33.8260	0	26.722	0	280.054	0	100.0	4	32.4	4	-1E+10	1	-1E+10	1	-1E+10	1	-1E+10	1	-1E+10	1	-1E+10	1
4902549	100	C	05/21/2023	04:11	-133.046	47.349	0	284.00	0	5.2060	0	33.8260	0	26.724	0	281.440	0	99.3	4	32.2	4	-1E+10	1	-1E+10	1	-1E+10	1	-1E+10	1	-1E+10	1	-1E+10	1
4902549	100	C	05/21/2023	04:11	-133.046	47.349	0	285.30	0	5.1890	0	33.8270	0	26.726	0	282.728	0	98.7	4	32.0	4	-1E+10	1	-1E+10	1	-1E+10	1	-1E+10	1	-1E+10	1	-1E+10	1
4902549	100	C	05/21/2023	04:11	-133.046	47.349	0	286.30	0	5.1800	0	33.8290	0	26.729	0	283.718	0	98.3	4	31.8	4	-1E+10	1	-1E+10	1	-1E+10	1	-1E+10	1	-1E+10	1	-1E+10	1
4902549	100	C	05/21/2023	04:11	-133.046	47.349	0	287.20	0	5.1740	0	33.8290	0	26.730	0	284.609	0	97.9	4	31.7	4	-1E+10	1	-1E+10	1	-1E+10	1	-1E+10	1	-1E+10	1	-1E+10	1
4902549	100	C	05/21/2023	04:11	-133.046	47.349	0	288.10	0	5.1680	0	33.8300	0	26.731	0	285.500	0	97.5	4	31.6	4	-1E+10	1	-1E+10	1	-1E+10	1	-1E+10	1	-1E+10	1	-1E+10	1
4902549	100	C	05/21/2023	04:11	-133.046	47.349	0	289.00	0	5.1660	0	33.8290	0	26.731	0	286.392	0	97.0	4	31.4	4	-1E+10	1	-1E+10	1	-1E+10	1	-1E+10	1	-1E+10	1	-1E+10	1
4902549	100	C	05/21/2023	04:11	-133.046	47.349	0	289.90	0	5.1650	0	33.8290	0	26.731	0	287.283	0	96.5	4	31.2	4	-1E+10	1	-1E+10	1	-1E+10	1	-1E+10	1	-1E+10	1	-1E+10	1
4902549	100	C	05/21/2023	04:11	-133.046	47.349	0	290.80	0	5.1590	0	33.8290	0	26.731	0	288.174	0	95.9	4	31.1	4	-1E+10	1	-1E+10	1	-1E+10	1	-1E+10	1	-1E+10	1	-1E+10	1
4902549	100	C	05/21/2023	04:11	-133.046	47.349	0	291.70	0	5.1450	0	33.8310	0	26.735	0	289.065	0	95.4	4	30.9	4	-1E+10	1	-1E+10	1	-1E+10	1	-1E+10	1	-1E+10	1	-1E+10	1
4902549	100	C	05/21/2023	04:11	-133.046	47.349	0	292.60	0	5.1330	0	33.8300	0	26.735	0	289.957	0	94.8	4	30.7	4	-1E+10	1	-1E+10	1	-1E+10	1	-1E+10	1	-1E+10	1	-1E+10	1
4902549	100	C	05/21/2023	04:11	-133.046	47.349	0	293.90	0	5.1180	0	33.8320	0	26.739	0	291.244	0	94.0	4	30.4	4	-1E+10	1	-1E+10	1	-1E+10	1	-1E+10	1	-1E+10	1	-1E+10	1
4902549	100	C	05/21/2023	04:11	-133.046	47.349	0	295.40	0	5.1040	0	33.8350	0	26.743	0	292.729	0	93.2	4	30.2	4	-1E+10	1	-1E+10	1	-1E+10	1	-1E+10	1	-1E+10	1	-1E+10	1
4902549	100	C	05/21/2023	04:11	-133.046	47.349	0	296.30	0	5.0920	0	33.8370	0	26.745	0	293.621	0	92.8	4	30.0	4	-1E+10	1	-1E+10	1	-1E+10	1	-1E+10	1	-1E+10	1	-1E+10	1
4902549	100	C	05/21/2023	04:11	-133.046	47.349	0	297.20	0	5.0720	0	33.8390	0	26.749	0	294.512	0	92.5	4	29.9	4	-1E+10	1	-1E+10	1	-1E+10	1	-1E+10	1	-1E+10	1	-1E+10	1
4902549	100	C	05/21/2023	04:11	-133.046	47.349	0	298.10	0	5.0670	0	33.8390	0	26.750	0	295.403	0	92.0	4	29.7	4	-1E+10	1	-1E+10	1	-1E+10	1	-1E+10	1	-1E+10	1	-1E+10	1
4902549	100	C	05/21/2023	04:11	-133.046	47.349	0	299.00	0	5.0600	0	33.8390	0	26.751	0	296.294	0	91.6	4	29.6	4	-1E+10	1	-1E+10	1	-1E+10	1	-1E+10	1	-1E+10	1	-1E+10	1
4902549	100	C	05/21/2023	04:11	-133.046	47.349	0	300.00	0	5.0590	0	33.8390	0	26.751	0	297.284	0	91.2	4	29.4	4	-1E+10	1	-1E+10	1	-1E+10	1	-1E+10	1	-1E+10	1	-1E+10	1
4902549	100	C	05/21/2023	04:11	-133.046	47.349	0	300.90	0	5.0550	0	33.8400	0	26.752	0	298.176	0	90.7	4	29.3	4	-1E+10	1	-1E+10	1	-1E+10	1	-1E+10	1	-1E+10	1	-1E+10	1
4902549	100	C	05/21/2023	04:11	-133.046	47.349	0	301.80	0	5.0500	0	33.8400	0	26.753	0	299.067	0	90.2	4	29.1	4	-1E+10	1	-1E+10	1	-1E+10	1	-1E+10	1	-1E+10	1	-1E+10	1
4902549	100	C	05/21/2023	04:11	-133.046	47.349	0	302.80	0	5.0500	0	33.8390	0	26.752	0	300.057	0	89.6	4	28.9	4	-1E+10	1	-1E+10	1	-1E+10	1	-1E+10	1	-1E+10	1	-1E+10	1
4902549	100	C	05/21/2023	04:11	-133.046	47.349	0	303.70	0	5.0390	0	33.8410	0	26.755	0	300.948	0	89.0	4	28.7	4	-1E+10	1	-1E+10	1	-1E+10	1	-1E+10	1	-1E+10	1	-1E+10	1
4902549	100	C	05/21/2023	04:11	-133.046	47.349	0	304.60	0	5.0160	0	33.8440	0	26.760	0	301.839	0	88.6	4	28.6	4	-1E+10	1	-1E+10	1	-1E+10	1	-1E+10	1	-1E+10	1	-1E+10	1
4902549	100	C	05/21/2023	04:11	-133.046	47.349	0	305.50	0	5.0090	0	33.8470	0	26.763	0	302.731	0	88.1	4	28.4	4	-1E+10	1	-1E+10	1	-1E+10	1	-1E+10	1	-1E+10	1	-1E+10	1
4902549	100	C	05/21/2023	04:11	-133.046	47.349	0	306.90	0	4.9960	0	33.8460	0	26.764	0	304.117	0	87.5	4	28.2	4	-1E+10	1	-1E+10	1	-1E+10	1	-1E+10	1	-1E+10	1	-1E+10	1
4902549	100	C	05/21/2023	04:11	-133.046	47.349	0	308.30	0	4.9890	0	33.8480	0	26.766	0	305.503	0	86.8	4	28.0	4	-1E+10	1	-1E+10	1	-1E+10	1	-1E+10	1	-1E+10	1	-1E+10	1
4902549	100	C	05/21/2023	04:11	-133.046	47.349	0	309.20	0	4.9890	0	33.8490	0	26.767	0	306.394	0	86.3	4	27.8	4	-1E+10	1	-1E+10	1	-1E+10	1	-1E+10	1	-1E+10	1	-1E+10	1
4902549	100	C	05/21/2023	04:11	-133.046	47.349	0	310.20	0	4.9720	0	33.8500	0	26.770	0	307.385	0	85.9	4	27.7	4	-1E+10	1	-1E+10	1	-1E+10	1	-1E+10	1	-1E+10	1	-1E+10	1
4902549	100	C	05/21/2023	04:11	-133.046	47.349	0	311.10	0	4.9620	0	33.8510	0	26.771	0	308.276	0	85.5	4	27.5	4	-1E+10	1	-1E+10	1	-1E+10	1	-1E+10	1	-1E+10	1	-1E+10	1
4902549	100	C	05/21/2023	04:11	-133.046	47.349	0	312.00	0	4.9550	0	33.8520	0	26.773	0	309.167	0	85.1	4	27.4	4	-1E+10	1	-1E+10	1	-1E+10	1	-1E+10	1	-1E+10	1	-1E+10	1
4902549	100	C	05/21/2023	04:11	-133.046	47.349	0	312.90	0	4.9520	0	33.8530	0	26.774	0	310.058	0	84.6	4	27.3	4	-1E+10	1	-1E+10	1	-1E+10	1	-1E+10	1	-1E+10	1	-1E+10	1
4902549	100	C	05/21/2023	04:11	-133.046	47.349	0	313.90	0	4.9420	0	33.8540	0	26.776	0	311.048	0	84.2	4	27.1	4	-1E+10	1	-1E+10	1	-1E+10	1	-1E+10	1	-1E+10	1	-1E+10	1
4902549	100	C	05/21/2023	04:11	-133.046	47.349	0	314.80	0	4.9370	0	33.8550	0	26.777	0	311.939	0	83.8	4	27.0	4	-1E+10	1	-1E+10	1	-1E+10	1	-1E+10	1	-1E+10	1	-1E+10	1
4902549	100	C	05/21/2023	04:11	-133.046	47.349	0	315.70	0	4.9340	0	33.8550	0	26.778	0	312.831	0	83.4	4	26.9	4	-1E+10	1	-1E+10	1	-1E+10	1	-1E+10	1	-1E+10	1	-1E+10	1
4902549	100	C	05/21/2023	04:11	-133.046	47.349	0	316.70	0	4.9280	0	33.8570	0	26.780	0	313.821	0	82.9	4	26.7	4	-1E+10	1	-1E+10	1	-1E+10	1	-1E+10	1	-1E+10	1	-1E+10	1
4902549	100	C	05/21/2023	04:11	-133.046	47.349	0	317.60	0	4.9190	0	33.8570	0	26.781	0	314.712	0	82.5	4	26.6	4	-1E+10	1	-1E+10	1	-1E+10	1	-1E+10	1	-1E+10	1	-1E+10	1
4902549	100	C	05/21/2023	04:11	-133.046	47.349	0	318.60	0	4.9100	0	33.8570	0	26.782	0	315.702	0	82.0	4	26.4	4	-1E+10	1	-1E+10	1	-1E+10	1	-1E+10	1	-1E+10	1	-1E+10	1
4902549	100	C	05/21/2023	04:11	-133.046	47.349	0	319.50	0	4.9130	0	33.8620	0	26.786	0	316.593	0	81.5	4	26.2	4	-1E+10	1	-1E+10	1	-1E+10	1	-1E+10	1	-1E+10	1	-1E+10	1
4902549	100	C	05/21/2023	04:11	-133.046	47.349	0	320.90	0	4.8950	0	33.8610	0	26.787	0	317.979	0	80.8	4	26.0	4	-1E+10	1	-1E+10	1	-1E+10	1	-1E+10	1	-1E+10	1	-1E+10	1
4902549	100	C	05/21/2023	04:11	-133.046	47.349	0	322.40	0	4.8670	0	33.8620	0	26.791	0	319.464	0	80.2	4	25.8	4	-1E+10	1	-1E+10	1	-1E+10	1	-1E+10	1	-1E+10	1	-1E+10	1
4902549	100	C	05/21/2023	04:11	-133.046	47.349	0	323.40	0	4.8610	0	33.8610	0	26.791	0	320.455	0	79.8	4	25.7	4	-1E+10	1	-1E+10	1	-1E+10	1	-1E+10	1	-1E+10	1	-1E+10	1
4902549	100	C	05/21/2023	04:11	-133.046	47.349	0	324.30	0	4.8500	0	33.8610	0	26.792	0	321.346	0	79.4	4	25.5	4	-1E+10	1	-1E+10	1	-1E+10	1	-1E+10	1	-1E+10	1	-1E+10	1
4902549	100	C	05/21/2023	04:11	-133.046	47.349	0	325.30	0	4.8510	0	33.8610	0	26.792	0	322.336	0	78.9	4	25.4	4	-1E+10	1	-1E+10	1	-1E+10	1	-1E+10	1	-1E+10	1	-1E+10	1
4902549	100	C	05/21/2023	04:11	-133.046	47.349	0	326.30	0	4.8570	0	33.8580	0	26.789	0	323.326	0	78.4	4	25.2	4	-1E+10	1	-1E+10	1	-1E+10	1	-1E+10	1	-1E+10	1	-1E+10	1
4902549	100	C	05/21/2023	04:11	-133.046	47.349	0	327.20	0	4.8230	0	33.8650	0	26.798	0	324.217	0	78.1	4	25.1	4	-1E+10	1	-1E+10	1	-1E+10	1	-1E+10	1	-1E+10	1	-1E+10	1
4902549	100	C	05/21/2023	04:11	-133.046	47.349	0	328.20	0	4.8240	0	33.8640	0	26.797	0	325.207	0	77.6	4	24.9	4	-1E+10	1	-1E+10	1	-1E+10	1	-1E+10	1	-1E+10	1	-1E+10	1
4902549	100	C	05/21/2023	04:11	-133.046	47.349	0	329.10	0	4.8170	0	33.8680	0	26.801	0	326.098	0	77.2	4	24.8	4	-1E+10	1	-1E+10	1	-1E+10	1	-1E+10	1	-1E+10	1	-1E+10	1
4902549	100	C	05/21/2023	04:11	-133.046	47.349	0	330.10	0	4.8050	0	33.8670	0	26.802	0	327.088	0	76.9	4	24.7	4	-1E+10	1	-1E+10	1	-1E+10	1	-1E+10	1	-1E+10	1	-1E+10	1
4902549	100	C	05/21/2023	04:11	-133.046	47.349	0	331.00	0	4.8010	0	33.8690	0	26.804	0	327.979	0	76.5	4	24.6	4	-1E+10	1	-1E+10	1	-1E+10	1	-1E+10	1	-1E+10	1	-1E+10	1
4902549	100	C	05/21/2023	04:11	-133.046	47.349	0	332.00	0	4.8030	0	33.8730	0	26.807	0	328.969	0	76.1	4	24.4	4	-1E+10	1	-1E+10	1	-1E+10	1	-1E+10	1	-1E+10	1	-1E+10	1
4902549	100	C	05/21/2023	04:11	-133.046	47.349	0	333.00	0	4.7970	0	33.8750	0	26.809	0	329.960	0	75.9	4	24.4	4	-1E+10	1	-1E+10	1	-1E+10	1	-1E+10	1	-1E+10	1	-1E+10	1
4902549	100	C	05/21/2023	04:11	-133.046	47.349	0	333.90	0	4.7720	0	33.8780	0	26.814	0	330.851	0	75.6	4	24.3	4	-1E+10	1	-1E+10	1	-1E+10	1	-1E+10	1	-1E+10	1	-1E+10	1
4902549	100	C	05/21/2023	04:11	-133.046	47.349	0	334.90	0	4.7700	0	33.8770	0	26.814	0	331.841	0	75.5	4	24.2	4	-1E+10	1	-1E+10	1	-1E+10	1	-1E+10	1	-1E+10	1	-1E+10	1
4902549	100	C	05/21/2023	04:11	-133.046	47.349	0	335.90	0	4.7690	0	33.8770	0	26.814	0	332.831	0	75.2	4	24.1	4	-1E+10	1	-1E+10	1	-1E+10	1	-1E+10	1	-1E+10	1	-1E+10	1
4902549	100	C	05/21/2023	04:11	-133.046	47.349	0	336.80	0	4.7620	0	33.8790	0	26.816	0	333.722	0	75.0	4	24.1	4	-1E+10	1	-1E+10	1	-1E+10	1	-1E+10	1	-1E+10	1	-1E+10	1
4902549	100	C	05/21/2023	04:11	-133.046	47.349	0	337.80	0	4.7570	0	33.8800	0	26.818	0	334.712	0	74.9	4	24.0	4	-1E+10	1	-1E+10	1	-1E+10	1	-1E+10	1	-1E+10	1	-1E+10	1
4902549	100	C	05/21/2023	04:11	-133.046	47.349	0	338.80	0	4.7550	0	33.8800	0	26.818	0	335.702	0	74.8	4	24.0	4	-1E+10	1	-1E+10	1	-1E+10	1	-1E+10	1	-1E+10	1	-1E+10	1
4902549	100	C	05/21/2023	04:11	-133.046	47.349	0	339.80	0	4.7540	0	33.8800	0	26.818	0	336.692	0	74.6	4	23.9	4	-1E+10	1	-1E+10	1	-1E+10	1	-1E+10	1	-1E+10	1	-1E+10	1
4902549	100	C	05/21/2023	04:11	-133.046	47.349	0	340.80	0	4.7530	0	33.8810	0	26.819	0	337.682	0	74.4	4	23.9	4	-1E+10	1	-1E+10	1	-1E+10	1	-1E+10	1	-1E+10	1	-1E+10	1
4902549	100	C	05/21/2023	04:11	-133.046	47.349	0	341.80	0	4.7520	0	33.8810	0	26.819	0	338.672	0	74.2	4	23.8	4	-1E+10	1	-1E+10	1	-1E+10	1	-1E+10	1	-1E+10	1	-1E+10	1
4902549	100	C	05/21/2023	04:11	-133.046	47.349	0	342.70	0	4.7510	0	33.8810	0	26.819	0	339.563	0	74.0	4	23.7	4	-1E+10	1	-1E+10	1	-1E+10	1	-1E+10	1	-1E+10	1	-1E+10	1
4902549	100	C	05/21/2023	04:11	-133.046	47.349	0	343.70	0	4.7500	0	33.8820	0	26.820	0	340.553	0	73.8	4	23.7	4	-1E+10	1	-1E+10	1	-1E+10	1	-1E+10	1	-1E+10	1	-1E+10	1
4902549	100	C	05/21/2023	04:11	-133.046	47.349	0	344.70	0	4.7500	0	33.8820	0	26.820	0	341.543	0	73.5	4	23.6	4	-1E+10	1	-1E+10	1	-1E+10	1	-1E+10	1	-1E+10	1	-1E+10	1
4902549	100	C	05/21/2023	04:11	-133.046	47.349	0	345.60	0	4.7520	0	33.8830	0	26.821	0	342.434	0	73.3	4	23.5	4	-1E+10	1	-1E+10	1	-1E+10	1	-1E+10	1	-1E+10	1	-1E+10	1
4902549	100	C	05/21/2023	04:11	-133.046	47.349	0	346.60	0	4.7540	0	33.8840	0	26.821	0	343.424	0	73.0	4	23.4	4	-1E+10	1	-1E+10	1	-1E+10	1	-1E+10	1	-1E+10	1	-1E+10	1
4902549	100	C	05/21/2023	04:11	-133.046	47.349	0	347.60	0	4.7540	0	33.8850	0	26.822	0	344.414	0	72.7	4	23.3	4	-1E+10	1	-1E+10	1	-1E+10	1	-1E+10	1	-1E+10	1	-1E+10	1
4902549	100	C	05/21/2023	04:11	-133.046	47.349	0	348.60	0	4.7540	0	33.8860	0	26.823	0	345.404	0	72.3	4	23.2	4	-1E+10	1	-1E+10	1	-1E+10	1	-1E+10	1	-1E+10	1	-1E+10	1
4902549	100	C	05/21/2023	04:11	-133.046	47.349	0	349.50	0	4.7530	0	33.8870	0	26.824	0	346.295	0	71.9	4	23.1	4	-1E+10	1	-1E+10	1	-1E+10	1	-1E+10	1	-1E+10	1	-1E+10	1
4902549	100	C	05/21/2023	04:11	-133.046	47.349	0	352.90	0	4.7230	0	33.8870	0	26.827	0	349.661	0	70.7	4	22.7	4	-1E+10	1	-1E+10	1	-1E+10	1	-1E+10	1	-1E+10	1	-1E+10	1
4902549	100	C	05/21/2023	04:11	-133.046	47.349	0	358.10	0	4.7040	0	33.8940	0	26.835	0	354.809	0	68.7	4	22.0	4	-1E+10	1	-1E+10	1	-1E+10	1	-1E+10	1	-1E+10	1	-1E+10	1
4902549	100	C	05/21/2023	04:11	-133.046	47.349	0	362.90	0	4.6830	0	33.9010	0	26.843	0	359.561	0	67.0	4	21.5	4	-1E+10	1	-1E+10	1	-1E+10	1	-1E+10	1	-1E+10	1	-1E+10	1
4902549	100	C	05/21/2023	04:11	-133.046	47.349	0	367.70	0	4.6640	0	33.9040	0	26.847	0	364.312	0	65.3	4	20.9	4	-1E+10	1	-1E+10	1	-1E+10	1	-1E+10	1	-1E+10	1	-1E+10	1
4902549	100	C	05/21/2023	04:11	-133.046	47.349	0	373.00	0	4.6350	0	33.9140	0	26.858	0	369.559	0	63.5	4	20.3	4	-1E+10	1	-1E+10	1	-1E+10	1	-1E+10	1	-1E+10	1	-1E+10	1
4902549	100	C	05/21/2023	04:11	-133.046	47.349	0	378.30	0	4.6260	0	33.9190	0	26.863	0	374.805	0	62.4	4	19.9	4	-1E+10	1	-1E+10	1	-1E+10	1	-1E+10	1	-1E+10	1	-1E+10	1
4902549	100	C	05/21/2023	04:11	-133.046	47.349	0	383.20	0	4.6190	0	33.9270	0	26.870	0	379.655	0	61.4	4	19.6	4	-1E+10	1	-1E+10	1	-1E+10	1	-1E+10	1	-1E+10	1	-1E+10	1
4902549	100	C	05/21/2023	04:11	-133.046	47.349	0	388.00	0	4.6150	0	33.9340	0	26.876	0	384.406	0	60.8	4	19.5	4	-1E+10	1	-1E+10	1	-1E+10	1	-1E+10	1	-1E+10	1	-1E+10	1
4902549	100	C	05/21/2023	04:11	-133.046	47.349	0	393.00	0	4.6170	0	33.9380	0	26.879	0	389.355	0	60.0	4	19.2	4	-1E+10	1	-1E+10	1	-1E+10	1	-1E+10	1	-1E+10	1	-1E+10	1
4902549	100	C	05/21/2023	04:11	-133.046	47.349	0	397.80	0	4.6130	0	33.9420	0	26.883	0	394.106	0	58.2	4	18.6	4	-1E+10	1	-1E+10	1	-1E+10	1	-1E+10	1	-1E+10	1	-1E+10	1
4902549	100	C	05/21/2023	04:11	-133.046	47.349	0	402.70	0	4.5950	0	33.9480	0	26.890	0	398.956	0	57.1	4	18.3	4	-1E+10	1	-1E+10	1	-1E+10	1	-1E+10	1	-1E+10	1	-1E+10	1
4902549	100	C	05/21/2023	04:11	-133.046	47.349	0	407.90	0	4.5840	0	33.9510	0	26.893	0	404.103	0	56.3	4	18.0	4	-1E+10	1	-1E+10	1	-1E+10	1	-1E+10	1	-1E+10	1	-1E+10	1
4902549	100	C	05/21/2023	04:11	-133.046	47.349	0	413.20	0	4.5660	0	33.9550	0	26.899	0	409.348	0	55.4	4	17.7	4	-1E+10	1	-1E+10	1	-1E+10	1	-1E+10	1	-1E+10	1	-1E+10	1
4902549	100	C	05/21/2023	04:11	-133.046	47.349	0	418.00	0	4.5590	0	33.9590	0	26.903	0	414.099	0	54.6	4	17.4	4	-1E+10	1	-1E+10	1	-1E+10	1	-1E+10	1	-1E+10	1	-1E+10	1
4902549	100	C	05/21/2023	04:11	-133.046	47.349	0	422.80	0	4.5580	0	33.9640	0	26.907	0	418.849	0	53.4	4	17.1	4	-1E+10	1	-1E+10	1	-1E+10	1	-1E+10	1	-1E+10	1	-1E+10	1
4902549	100	C	05/21/2023	04:11	-133.046	47.349	0	427.90	0	4.5450	0	33.9700	0	26.913	0	423.896	0	52.0	4	16.6	4	-1E+10	1	-1E+10	1	-1E+10	1	-1E+10	1	-1E+10	1	-1E+10	1
4902549	100	C	05/21/2023	04:11	-133.046	47.349	0	433.10	0	4.5210	0	33.9760	0	26.920	0	429.042	0	50.1	4	16.0	4	-1E+10	1	-1E+10	1	-1E+10	1	-1E+10	1	-1E+10	1	-1E+10	1
4902549	100	C	05/21/2023	04:11	-133.046	47.349	0	437.80	0	4.4940	0	33.9830	0	26.929	0	433.693	0	48.8	4	15.6	4	-1E+10	1	-1E+10	1	-1E+10	1	-1E+10	1	-1E+10	1	-1E+10	1
4902549	100	C	05/21/2023	04:11	-133.046	47.349	0	443.00	0	4.4840	0	33.9880	0	26.934	0	438.839	0	47.2	4	15.1	4	-1E+10	1	-1E+10	1	-1E+10	1	-1E+10	1	-1E+10	1	-1E+10	1
4902549	100	C	05/21/2023	04:11	-133.046	47.349	0	448.20	0	4.4700	0	33.9960	0	26.942	0	443.984	0	45.5	4	14.5	4	-1E+10	1	-1E+10	1	-1E+10	1	-1E+10	1	-1E+10	1	-1E+10	1
4902549	100	C	05/21/2023	04:11	-133.046	47.349	0	453.00	0	4.4460	0	34.0040	0	26.951	0	448.734	0	44.0	4	14.0	4	-1E+10	1	-1E+10	1	-1E+10	1	-1E+10	1	-1E+10	1	-1E+10	1
4902549	100	C	05/21/2023	04:11	-133.046	47.349	0	457.80	0	4.4260	0	34.0100	0	26.958	0	453.484	0	42.9	4	13.7	4	-1E+10	1	-1E+10	1	-1E+10	1	-1E+10	1	-1E+10	1	-1E+10	1
4902549	100	C	05/21/2023	04:11	-133.046	47.349	0	462.70	0	4.4130	0	34.0140	0	26.962	0	458.332	0	41.6	4	13.2	4	-1E+10	1	-1E+10	1	-1E+10	1	-1E+10	1	-1E+10	1	-1E+10	1
4902549	100	C	05/21/2023	04:11	-133.046	47.349	0	467.60	0	4.4010	0	34.0180	0	26.967	0	463.180	0	40.3	4	12.8	4	-1E+10	1	-1E+10	1	-1E+10	1	-1E+10	1	-1E+10	1	-1E+10	1
4902549	100	C	05/21/2023	04:11	-133.046	47.349	0	472.60	0	4.3910	0	34.0230	0	26.972	0	468.127	0	38.9	4	12.4	4	-1E+10	1	-1E+10	1	-1E+10	1	-1E+10	1	-1E+10	1	-1E+10	1
4902549	100	C	05/21/2023	04:11	-133.046	47.349	0	477.60	0	4.3740	0	34.0290	0	26.978	0	473.074	0	37.5	4	11.9	4	-1E+10	1	-1E+10	1	-1E+10	1	-1E+10	1	-1E+10	1	-1E+10	1
4902549	100	C	05/21/2023	04:11	-133.046	47.349	0	482.60	0	4.3390	0	34.0340	0	26.986	0	478.021	0	36.4	4	11.6	4	-1E+10	1	-1E+10	1	-1E+10	1	-1E+10	1	-1E+10	1	-1E+10	1
4902549	100	C	05/21/2023	04:11	-133.046	47.349	0	487.60	0	4.3170	0	34.0410	0	26.994	0	482.968	0	35.3	4	11.2	4	-1E+10	1	-1E+10	1	-1E+10	1	-1E+10	1	-1E+10	1	-1E+10	1
4902549	100	C	05/21/2023	04:11	-133.046	47.349	0	492.80	0	4.3150	0	34.0450	0	26.998	0	488.112	0	34.4	4	10.9	4	-1E+10	1	-1E+10	1	-1E+10	1	-1E+10	1	-1E+10	1	-1E+10	1
4902549	100	C	05/21/2023	04:11	-133.046	47.349	0	498.00	0	4.2990	0	34.0480	0	27.002	0	493.257	0	33.5	4	10.6	4	-1E+10	1	-1E+10	1	-1E+10	1	-1E+10	1	-1E+10	1	-1E+10	1
4902549	100	C	05/21/2023	04:11	-133.046	47.349	0	502.90	0	4.2710	0	34.0530	0	27.009	0	498.104	0	32.4	4	10.3	4	-1E+10	1	-1E+10	1	-1E+10	1	-1E+10	1	-1E+10	1	-1E+10	1
4902549	100	C	05/21/2023	04:11	-133.046	47.349	0	507.90	0	4.2450	0	34.0600	0	27.017	0	503.051	0	31.3	4	9.9	4	-1E+10	1	-1E+10	1	-1E+10	1	-1E+10	1	-1E+10	1	-1E+10	1
4902549	100	C	05/21/2023	04:11	-133.046	47.349	0	513.10	0	4.2190	0	34.0670	0	27.025	0	508.195	0	30.5	4	9.7	4	-1E+10	1	-1E+10	1	-1E+10	1	-1E+10	1	-1E+10	1	-1E+10	1
4902549	100	C	05/21/2023	04:11	-133.046	47.349	0	518.00	0	4.2040	0	34.0700	0	27.029	0	513.042	0	29.8	4	9.5	4	-1E+10	1	-1E+10	1	-1E+10	1	-1E+10	1	-1E+10	1	-1E+10	1
4902549	100	C	05/21/2023	04:11	-133.046	47.349	0	523.00	0	4.1890	0	34.0750	0	27.035	0	517.988	0	29.2	4	9.3	4	-1E+10	1	-1E+10	1	-1E+10	1	-1E+10	1	-1E+10	1	-1E+10	1
4902549	100	C	05/21/2023	04:11	-133.046	47.349	0	528.20	0	4.1740	0	34.0790	0	27.040	0	523.131	0	28.5	4	9.0	4	-1E+10	1	-1E+10	1	-1E+10	1	-1E+10	1	-1E+10	1	-1E+10	1
4902549	100	C	05/21/2023	04:11	-133.046	47.349	0	533.00	0	4.1590	0	34.0820	0	27.044	0	527.879	0	27.8	4	8.8	4	-1E+10	1	-1E+10	1	-1E+10	1	-1E+10	1	-1E+10	1	-1E+10	1
4902549	100	C	05/21/2023	04:11	-133.046	47.349	0	537.90	0	4.1390	0	34.0870	0	27.050	0	532.726	0	27.1	4	8.6	4	-1E+10	1	-1E+10	1	-1E+10	1	-1E+10	1	-1E+10	1	-1E+10	1
4902549	100	C	05/21/2023	04:11	-133.046	47.349	0	542.90	0	4.1160	0	34.0930	0	27.057	0	537.671	0	26.3	4	8.3	4	-1E+10	1	-1E+10	1	-1E+10	1	-1E+10	1	-1E+10	1	-1E+10	1
4902549	100	C	05/21/2023	04:11	-133.046	47.349	0	548.00	0	4.1020	0	34.0980	0	27.062	0	542.715	0	25.8	4	8.2	4	-1E+10	1	-1E+10	1	-1E+10	1	-1E+10	1	-1E+10	1	-1E+10	1
4902549	100	C	05/21/2023	04:11	-133.046	47.349	0	553.00	0	4.0960	0	34.1000	0	27.065	0	547.661	0	25.1	4	7.9	4	-1E+10	1	-1E+10	1	-1E+10	1	-1E+10	1	-1E+10	1	-1E+10	1
4902549	100	C	05/21/2023	04:11	-133.046	47.349	0	557.80	0	4.0810	0	34.1050	0	27.070	0	552.408	0	24.4	4	7.7	4	-1E+10	1	-1E+10	1	-1E+10	1	-1E+10	1	-1E+10	1	-1E+10	1
4902549	100	C	05/21/2023	04:11	-133.046	47.349	0	562.50	0	4.0710	0	34.1090	0	27.074	0	557.056	0	23.8	4	7.5	4	-1E+10	1	-1E+10	1	-1E+10	1	-1E+10	1	-1E+10	1	-1E+10	1
4902549	100	C	05/21/2023	04:11	-133.046	47.349	0	568.00	0	4.0580	0	34.1150	0	27.080	0	562.496	0	23.3	4	7.4	4	-1E+10	1	-1E+10	1	-1E+10	1	-1E+10	1	-1E+10	1	-1E+10	1
4902549	100	C	05/21/2023	04:11	-133.046	47.349	0	573.00	0	4.0490	0	34.1170	0	27.083	0	567.440	0	22.9	4	7.2	4	-1E+10	1	-1E+10	1	-1E+10	1	-1E+10	1	-1E+10	1	-1E+10	1
4902549	100	C	05/21/2023	04:11	-133.046	47.349	0	577.80	0	4.0430	0	34.1190	0	27.085	0	572.187	0	22.5	4	7.1	4	-1E+10	1	-1E+10	1	-1E+10	1	-1E+10	1	-1E+10	1	-1E+10	1
4902549	100	C	05/21/2023	04:11	-133.046	47.349	0	582.70	0	4.0350	0	34.1220	0	27.089	0	577.033	0	22.0	4	6.9	4	-1E+10	1	-1E+10	1	-1E+10	1	-1E+10	1	-1E+10	1	-1E+10	1
4902549	100	C	05/21/2023	04:11	-133.046	47.349	0	587.70	0	4.0270	0	34.1250	0	27.092	0	581.977	0	21.4	4	6.7	4	-1E+10	1	-1E+10	1	-1E+10	1	-1E+10	1	-1E+10	1	-1E+10	1
4902549	100	C	05/21/2023	04:11	-133.046	47.349	0	592.70	0	4.0090	0	34.1280	0	27.096	0	586.921	0	20.5	4	6.5	4	-1E+10	1	-1E+10	1	-1E+10	1	-1E+10	1	-1E+10	1	-1E+10	1
4902549	100	C	05/21/2023	04:11	-133.046	47.349	0	597.80	0	4.0050	0	34.1340	0	27.101	0	591.964	0	19.3	4	6.1	4	-1E+10	1	-1E+10	1	-1E+10	1	-1E+10	1	-1E+10	1	-1E+10	1
4902549	100	C	05/21/2023	04:11	-133.046	47.349	0	602.90	0	4.0000	0	34.1430	0	27.109	0	597.007	0	18.5	4	5.9	4	-1E+10	1	-1E+10	1	-1E+10	1	-1E+10	1	-1E+10	1	-1E+10	1
4902549	100	C	05/21/2023	04:11	-133.046	47.349	0	608.00	0	3.9890	0	34.1470	0	27.113	0	602.050	0	18.2	4	5.7	4	-1E+10	1	-1E+10	1	-1E+10	1	-1E+10	1	-1E+10	1	-1E+10	1
4902549	100	C	05/21/2023	04:11	-133.046	47.349	0	613.10	0	3.9810	0	34.1500	0	27.117	0	607.093	0	17.8	4	5.6	4	-1E+10	1	-1E+10	1	-1E+10	1	-1E+10	1	-1E+10	1	-1E+10	1
4902549	100	C	05/21/2023	04:11	-133.046	47.349	0	618.10	0	3.9650	0	34.1520	0	27.120	0	612.036	0	17.3	4	5.5	4	-1E+10	1	-1E+10	1	-1E+10	1	-1E+10	1	-1E+10	1	-1E+10	1
4902549	100	C	05/21/2023	04:11	-133.046	47.349	0	623.20	0	3.9490	0	34.1590	0	27.127	0	617.079	0	16.7	4	5.3	4	-1E+10	1	-1E+10	1	-1E+10	1	-1E+10	1	-1E+10	1	-1E+10	1
4902549	100	C	05/21/2023	04:11	-133.046	47.349	0	628.20	0	3.9410	0	34.1620	0	27.130	0	622.022	0	16.2	4	5.1	4	-1E+10	1	-1E+10	1	-1E+10	1	-1E+10	1	-1E+10	1	-1E+10	1
4902549	100	C	05/21/2023	04:11	-133.046	47.349	0	633.20	0	3.9300	0	34.1670	0	27.135	0	626.966	0	15.9	4	5.0	4	-1E+10	1	-1E+10	1	-1E+10	1	-1E+10	1	-1E+10	1	-1E+10	1
4902549	100	C	05/21/2023	04:11	-133.046	47.349	0	638.20	0	3.9100	0	34.1710	0	27.141	0	631.909	0	15.8	4	5.0	4	-1E+10	1	-1E+10	1	-1E+10	1	-1E+10	1	-1E+10	1	-1E+10	1
4902549	100	C	05/21/2023	04:11	-133.046	47.349	0	643.20	0	3.8930	0	34.1720	0	27.143	0	636.852	0	15.5	4	4.9	4	-1E+10	1	-1E+10	1	-1E+10	1	-1E+10	1	-1E+10	1	-1E+10	1
4902549	100	C	05/21/2023	04:11	-133.046	47.349	0	648.20	0	3.8840	0	34.1750	0	27.146	0	641.795	0	15.2	4	4.8	4	-1E+10	1	-1E+10	1	-1E+10	1	-1E+10	1	-1E+10	1	-1E+10	1
4902549	100	C	05/21/2023	04:11	-133.046	47.349	0	653.10	0	3.8710	0	34.1800	0	27.152	0	646.639	0	14.9	4	4.7	4	-1E+10	1	-1E+10	1	-1E+10	1	-1E+10	1	-1E+10	1	-1E+10	1
4902549	100	C	05/21/2023	04:11	-133.046	47.349	0	658.10	0	3.8600	0	34.1830	0	27.155	0	651.581	0	14.8	4	4.6	4	-1E+10	1	-1E+10	1	-1E+10	1	-1E+10	1	-1E+10	1	-1E+10	1
4902549	100	C	05/21/2023	04:11	-133.046	47.349	0	663.20	0	3.8350	0	34.1860	0	27.160	0	656.623	0	14.7	4	4.6	4	-1E+10	1	-1E+10	1	-1E+10	1	-1E+10	1	-1E+10	1	-1E+10	1
4902549	100	C	05/21/2023	04:11	-133.046	47.349	0	668.30	0	3.8080	0	34.1890	0	27.165	0	661.664	0	14.4	4	4.5	4	-1E+10	1	-1E+10	1	-1E+10	1	-1E+10	1	-1E+10	1	-1E+10	1
4902549	100	C	05/21/2023	04:11	-133.046	47.349	0	673.00	0	3.7890	0	34.1930	0	27.170	0	666.310	0	13.9	4	4.4	4	-1E+10	1	-1E+10	1	-1E+10	1	-1E+10	1	-1E+10	1	-1E+10	1
4902549	100	C	05/21/2023	04:11	-133.046	47.349	0	677.80	0	3.7890	0	34.1960	0	27.173	0	671.055	0	13.3	4	4.2	4	-1E+10	1	-1E+10	1	-1E+10	1	-1E+10	1	-1E+10	1	-1E+10	1
4902549	100	C	05/21/2023	04:11	-133.046	47.349	0	683.00	0	3.7910	0	34.2030	0	27.178	0	676.194	0	12.7	4	4.0	4	-1E+10	1	-1E+10	1	-1E+10	1	-1E+10	1	-1E+10	1	-1E+10	1
4902549	100	C	05/21/2023	04:11	-133.046	47.349	0	687.90	0	3.7850	0	34.2070	0	27.182	0	681.038	0	12.3	4	3.9	4	-1E+10	1	-1E+10	1	-1E+10	1	-1E+10	1	-1E+10	1	-1E+10	1
4902549	100	C	05/21/2023	04:11	-133.046	47.349	0	692.70	0	3.7760	0	34.2120	0	27.187	0	685.782	0	12.2	4	3.8	4	-1E+10	1	-1E+10	1	-1E+10	1	-1E+10	1	-1E+10	1	-1E+10	1
4902549	100	C	05/21/2023	04:11	-133.046	47.349	0	698.00	0	3.7610	0	34.2130	0	27.189	0	691.020	0	11.8	4	3.7	4	-1E+10	1	-1E+10	1	-1E+10	1	-1E+10	1	-1E+10	1	-1E+10	1
4902549	100	C	05/21/2023	04:11	-133.046	47.349	0	702.90	0	3.7360	0	34.2170	0	27.195	0	695.863	0	11.4	4	3.6	4	-1E+10	1	-1E+10	1	-1E+10	1	-1E+10	1	-1E+10	1	-1E+10	1
4902549	100	C	05/21/2023	04:11	-133.046	47.349	0	708.00	0	3.7470	0	34.2210	0	27.197	0	700.903	0	10.5	4	3.3	4	-1E+10	1	-1E+10	1	-1E+10	1	-1E+10	1	-1E+10	1	-1E+10	1
4902549	100	C	05/21/2023	04:11	-133.046	47.349	0	713.20	0	3.7540	0	34.2310	0	27.204	0	706.042	0	10.1	4	3.2	4	-1E+10	1	-1E+10	1	-1E+10	1	-1E+10	1	-1E+10	1	-1E+10	1
4902549	100	C	05/21/2023	04:11	-133.046	47.349	0	718.00	0	3.7330	0	34.2350	0	27.210	0	710.786	0	9.9	4	3.1	4	-1E+10	1	-1E+10	1	-1E+10	1	-1E+10	1	-1E+10	1	-1E+10	1
4902549	100	C	05/21/2023	04:11	-133.046	47.349	0	722.80	0	3.7120	0	34.2360	0	27.213	0	715.530	0	9.8	4	3.1	4	-1E+10	1	-1E+10	1	-1E+10	1	-1E+10	1	-1E+10	1	-1E+10	1
4902549	100	C	05/21/2023	04:11	-133.046	47.349	0	727.80	0	3.6890	0	34.2390	0	27.217	0	720.471	0	9.4	4	2.9	4	-1E+10	1	-1E+10	1	-1E+10	1	-1E+10	1	-1E+10	1	-1E+10	1
4902549	100	C	05/21/2023	04:11	-133.046	47.349	0	732.80	0	3.6830	0	34.2460	0	27.224	0	725.412	0	8.8	4	2.8	4	-1E+10	1	-1E+10	1	-1E+10	1	-1E+10	1	-1E+10	1	-1E+10	1
4902549	100	C	05/21/2023	04:11	-133.046	47.349	0	737.90	0	3.6840	0	34.2520	0	27.228	0	730.451	0	8.5	4	2.7	4	-1E+10	1	-1E+10	1	-1E+10	1	-1E+10	1	-1E+10	1	-1E+10	1
4902549	100	C	05/21/2023	04:11	-133.046	47.349	0	743.00	0	3.6840	0	34.2570	0	27.232	0	735.491	0	8.4	4	2.6	4	-1E+10	1	-1E+10	1	-1E+10	1	-1E+10	1	-1E+10	1	-1E+10	1
4902549	100	C	05/21/2023	04:11	-133.046	47.349	0	748.20	0	3.6710	0	34.2580	0	27.234	0	740.629	0	8.4	4	2.6	4	-1E+10	1	-1E+10	1	-1E+10	1	-1E+10	1	-1E+10	1	-1E+10	1
4902549	100	C	05/21/2023	04:11	-133.046	47.349	0	753.00	0	3.6400	0	34.2600	0	27.239	0	745.372	0	8.2	4	2.6	4	-1E+10	1	-1E+10	1	-1E+10	1	-1E+10	1	-1E+10	1	-1E+10	1
4902549	100	C	05/21/2023	04:11	-133.046	47.349	0	758.10	0	3.6560	0	34.2670	0	27.243	0	750.411	0	7.9	4	2.5	4	-1E+10	1	-1E+10	1	-1E+10	1	-1E+10	1	-1E+10	1	-1E+10	1
4902549	100	C	05/21/2023	04:11	-133.046	47.349	0	763.10	0	3.6470	0	34.2700	0	27.246	0	755.351	0	8.1	4	2.5	4	-1E+10	1	-1E+10	1	-1E+10	1	-1E+10	1	-1E+10	1	-1E+10	1
4902549	100	C	05/21/2023	04:11	-133.046	47.349	0	767.80	0	3.6170	0	34.2680	0	27.248	0	759.995	0	8.0	4	2.5	4	-1E+10	1	-1E+10	1	-1E+10	1	-1E+10	1	-1E+10	1	-1E+10	1
4902549	100	C	05/21/2023	04:11	-133.046	47.349	0	772.60	0	3.6060	0	34.2700	0	27.250	0	764.737	0	7.7	4	2.4	4	-1E+10	1	-1E+10	1	-1E+10	1	-1E+10	1	-1E+10	1	-1E+10	1
4902549	100	C	05/21/2023	04:11	-133.046	47.349	0	777.50	0	3.6270	0	34.2760	0	27.253	0	769.579	0	7.6	4	2.4	4	-1E+10	1	-1E+10	1	-1E+10	1	-1E+10	1	-1E+10	1	-1E+10	1
4902549	100	C	05/21/2023	04:11	-133.046	47.349	0	782.90	0	3.6030	0	34.2770	0	27.256	0	774.914	0	7.6	4	2.4	4	-1E+10	1	-1E+10	1	-1E+10	1	-1E+10	1	-1E+10	1	-1E+10	1
4902549	100	C	05/21/2023	04:11	-133.046	47.349	0	788.30	0	3.5960	0	34.2790	0	27.259	0	780.248	0	7.7	4	2.4	4	-1E+10	1	-1E+10	1	-1E+10	1	-1E+10	1	-1E+10	1	-1E+10	1
4902549	100	C	05/21/2023	04:11	-133.046	47.349	0	792.90	0	3.5830	0	34.2790	0	27.260	0	784.793	0	7.8	4	2.4	4	-1E+10	1	-1E+10	1	-1E+10	1	-1E+10	1	-1E+10	1	-1E+10	1
4902549	100	C	05/21/2023	04:11	-133.046	47.349	0	797.50	0	3.5740	0	34.2790	0	27.261	0	789.337	0	7.9	4	2.5	4	-1E+10	1	-1E+10	1	-1E+10	1	-1E+10	1	-1E+10	1	-1E+10	1
4902549	100	C	05/21/2023	04:11	-133.046	47.349	0	802.60	0	3.5570	0	34.2790	0	27.263	0	794.375	0	7.8	4	2.4	4	-1E+10	1	-1E+10	1	-1E+10	1	-1E+10	1	-1E+10	1	-1E+10	1
4902549	100	C	05/21/2023	04:11	-133.046	47.349	0	807.70	0	3.5390	0	34.2810	0	27.266	0	799.413	0	7.7	4	2.4	4	-1E+10	1	-1E+10	1	-1E+10	1	-1E+10	1	-1E+10	1	-1E+10	1
4902549	100	C	05/21/2023	04:11	-133.046	47.349	0	812.90	0	3.5330	0	34.2830	0	27.268	0	804.550	0	7.3	4	2.3	4	-1E+10	1	-1E+10	1	-1E+10	1	-1E+10	1	-1E+10	1	-1E+10	1
4902549	100	C	05/21/2023	04:11	-133.046	47.349	0	818.10	0	3.5500	0	34.2890	0	27.271	0	809.686	0	6.8	4	2.1	4	-1E+10	1	-1E+10	1	-1E+10	1	-1E+10	1	-1E+10	1	-1E+10	1
4902549	100	C	05/21/2023	04:11	-133.046	47.349	0	822.90	0	3.5690	0	34.2980	0	27.277	0	814.428	0	6.5	4	2.0	4	-1E+10	1	-1E+10	1	-1E+10	1	-1E+10	1	-1E+10	1	-1E+10	1
4902549	100	C	05/21/2023	04:11	-133.046	47.349	0	827.70	0	3.5900	0	34.3030	0	27.279	0	819.169	0	6.4	4	2.0	4	-1E+10	1	-1E+10	1	-1E+10	1	-1E+10	1	-1E+10	1	-1E+10	1
4902549	100	C	05/21/2023	04:11	-133.046	47.349	0	832.80	0	3.5920	0	34.3050	0	27.280	0	824.206	0	6.3	4	2.0	4	-1E+10	1	-1E+10	1	-1E+10	1	-1E+10	1	-1E+10	1	-1E+10	1
4902549	100	C	05/21/2023	04:11	-133.046	47.349	0	837.90	0	3.5780	0	34.3080	0	27.284	0	829.243	0	6.3	4	2.0	4	-1E+10	1	-1E+10	1	-1E+10	1	-1E+10	1	-1E+10	1	-1E+10	1
4902549	100	C	05/21/2023	04:11	-133.046	47.349	0	843.10	0	3.5660	0	34.3100	0	27.287	0	834.379	0	6.3	4	2.0	4	-1E+10	1	-1E+10	1	-1E+10	1	-1E+10	1	-1E+10	1	-1E+10	1
4902549	100	C	05/21/2023	04:11	-133.046	47.349	0	848.20	0	3.5590	0	34.3130	0	27.290	0	839.416	0	6.3	4	2.0	4	-1E+10	1	-1E+10	1	-1E+10	1	-1E+10	1	-1E+10	1	-1E+10	1
4902549	100	C	05/21/2023	04:11	-133.046	47.349	0	853.00	0	3.5510	0	34.3150	0	27.292	0	844.157	0	6.3	4	2.0	4	-1E+10	1	-1E+10	1	-1E+10	1	-1E+10	1	-1E+10	1	-1E+10	1
4902549	100	C	05/21/2023	04:11	-133.046	47.349	0	857.80	0	3.5440	0	34.3160	0	27.294	0	848.897	0	6.3	4	2.0	4	-1E+10	1	-1E+10	1	-1E+10	1	-1E+10	1	-1E+10	1	-1E+10	1
4902549	100	C	05/21/2023	04:11	-133.046	47.349	0	863.00	0	3.5420	0	34.3190	0	27.296	0	854.033	0	6.2	4	1.9	4	-1E+10	1	-1E+10	1	-1E+10	1	-1E+10	1	-1E+10	1	-1E+10	1
4902549	100	C	05/21/2023	04:11	-133.046	47.349	0	867.80	0	3.5440	0	34.3210	0	27.298	0	858.773	0	6.2	4	1.9	4	-1E+10	1	-1E+10	1	-1E+10	1	-1E+10	1	-1E+10	1	-1E+10	1
4902549	100	C	05/21/2023	04:11	-133.046	47.349	0	872.60	0	3.5310	0	34.3220	0	27.300	0	863.513	0	6.2	4	1.9	4	-1E+10	1	-1E+10	1	-1E+10	1	-1E+10	1	-1E+10	1	-1E+10	1
4902549	100	C	05/21/2023	04:11	-133.046	47.349	0	878.00	0	3.5100	0	34.3240	0	27.304	0	868.846	0	6.2	4	1.9	4	-1E+10	1	-1E+10	1	-1E+10	1	-1E+10	1	-1E+10	1	-1E+10	1
4902549	100	C	05/21/2023	04:11	-133.046	47.349	0	882.90	0	3.4930	0	34.3260	0	27.307	0	873.684	0	6.2	4	1.9	4	-1E+10	1	-1E+10	1	-1E+10	1	-1E+10	1	-1E+10	1	-1E+10	1
4902549	100	C	05/21/2023	04:11	-133.046	47.349	0	887.80	0	3.4850	0	34.3270	0	27.308	0	878.523	0	6.2	4	1.9	4	-1E+10	1	-1E+10	1	-1E+10	1	-1E+10	1	-1E+10	1	-1E+10	1
4902549	100	C	05/21/2023	04:11	-133.046	47.349	0	892.90	0	3.4740	0	34.3300	0	27.312	0	883.559	0	6.2	4	1.9	4	-1E+10	1	-1E+10	1	-1E+10	1	-1E+10	1	-1E+10	1	-1E+10	1
4902549	100	C	05/21/2023	04:11	-133.046	47.349	0	898.00	0	3.4540	0	34.3340	0	27.317	0	888.595	0	6.1	4	1.9	4	-1E+10	1	-1E+10	1	-1E+10	1	-1E+10	1	-1E+10	1	-1E+10	1
4902549	100	C	05/21/2023	04:11	-133.046	47.349	0	903.10	0	3.4510	0	34.3390	0	27.321	0	893.630	0	6.1	4	1.9	4	-1E+10	1	-1E+10	1	-1E+10	1	-1E+10	1	-1E+10	1	-1E+10	1
4902549	100	C	05/21/2023	04:11	-133.046	47.349	0	907.80	0	3.4410	0	34.3390	0	27.322	0	898.271	0	6.0	4	1.9	4	-1E+10	1	-1E+10	1	-1E+10	1	-1E+10	1	-1E+10	1	-1E+10	1
4902549	100	C	05/21/2023	04:11	-133.046	47.349	0	912.50	0	3.4400	0	34.3440	0	27.326	0	902.912	0	6.0	4	1.9	4	-1E+10	1	-1E+10	1	-1E+10	1	-1E+10	1	-1E+10	1	-1E+10	1
4902549	100	C	05/21/2023	04:11	-133.046	47.349	0	917.50	0	3.4270	0	34.3440	0	27.328	0	907.848	0	6.1	4	1.9	4	-1E+10	1	-1E+10	1	-1E+10	1	-1E+10	1	-1E+10	1	-1E+10	1
4902549	100	C	05/21/2023	04:11	-133.046	47.349	0	922.50	0	3.4040	0	34.3460	0	27.332	0	912.785	0	6.1	4	1.9	4	-1E+10	1	-1E+10	1	-1E+10	1	-1E+10	1	-1E+10	1	-1E+10	1
4902549	100	C	05/21/2023	04:11	-133.046	47.349	0	927.50	0	3.3950	0	34.3490	0	27.335	0	917.721	0	6.0	4	1.9	4	-1E+10	1	-1E+10	1	-1E+10	1	-1E+10	1	-1E+10	1	-1E+10	1
4902549	100	C	05/21/2023	04:11	-133.046	47.349	0	932.60	0	3.3880	0	34.3510	0	27.337	0	922.756	0	6.1	4	1.9	4	-1E+10	1	-1E+10	1	-1E+10	1	-1E+10	1	-1E+10	1	-1E+10	1
4902549	100	C	05/21/2023	04:11	-133.046	47.349	0	937.60	0	3.3800	0	34.3540	0	27.340	0	927.692	0	6.1	4	1.9	4	-1E+10	1	-1E+10	1	-1E+10	1	-1E+10	1	-1E+10	1	-1E+10	1
4902549	100	C	05/21/2023	04:11	-133.046	47.349	0	942.80	0	3.3640	0	34.3560	0	27.343	0	932.826	0	6.1	4	1.9	4	-1E+10	1	-1E+10	1	-1E+10	1	-1E+10	1	-1E+10	1	-1E+10	1
4902549	100	C	05/21/2023	04:11	-133.046	47.349	0	948.00	0	3.3510	0	34.3590	0	27.347	0	937.959	0	6.2	4	1.9	4	-1E+10	1	-1E+10	1	-1E+10	1	-1E+10	1	-1E+10	1	-1E+10	1
4902549	100	C	05/21/2023	04:11	-133.046	47.349	0	953.20	0	3.3490	0	34.3590	0	27.347	0	943.092	0	6.2	4	1.9	4	-1E+10	1	-1E+10	1	-1E+10	1	-1E+10	1	-1E+10	1	-1E+10	1
4902549	100	C	05/21/2023	04:11	-133.046	47.349	0	958.30	0	3.3410	0	34.3620	0	27.350	0	948.127	0	6.2	4	1.9	4	-1E+10	1	-1E+10	1	-1E+10	1	-1E+10	1	-1E+10	1	-1E+10	1
4902549	100	C	05/21/2023	04:11	-133.046	47.349	0	963.00	0	3.3210	0	34.3650	0	27.355	0	952.766	0	6.3	4	2.0	4	-1E+10	1	-1E+10	1	-1E+10	1	-1E+10	1	-1E+10	1	-1E+10	1
4902549	100	C	05/21/2023	04:11	-133.046	47.349	0	967.60	0	3.3100	0	34.3660	0	27.357	0	957.307	0	6.3	4	2.0	4	-1E+10	1	-1E+10	1	-1E+10	1	-1E+10	1	-1E+10	1	-1E+10	1
4902549	100	C	05/21/2023	04:11	-133.046	47.349	0	972.90	0	3.2990	0	34.3690	0	27.360	0	962.538	0	6.4	4	2.0	4	-1E+10	1	-1E+10	1	-1E+10	1	-1E+10	1	-1E+10	1	-1E+10	1
4902549	100	C	05/21/2023	04:11	-133.046	47.349	0	978.10	0	3.2880	0	34.3720	0	27.364	0	967.671	0	6.4	4	2.0	4	-1E+10	1	-1E+10	1	-1E+10	1	-1E+10	1	-1E+10	1	-1E+10	1
4902549	100	C	05/21/2023	04:11	-133.046	47.349	0	982.90	0	3.2740	0	34.3740	0	27.366	0	972.408	0	6.4	4	2.0	4	-1E+10	1	-1E+10	1	-1E+10	1	-1E+10	1	-1E+10	1	-1E+10	1
4902549	100	C	05/21/2023	04:11	-133.046	47.349	0	987.70	0	3.2690	0	34.3750	0	27.368	0	977.146	0	6.5	4	2.0	4	-1E+10	1	-1E+10	1	-1E+10	1	-1E+10	1	-1E+10	1	-1E+10	1
4902549	100	C	05/21/2023	04:11	-133.046	47.349	0	993.00	0	3.2620	0	34.3780	0	27.371	0	982.377	0	6.6	4	2.0	4	-1E+10	1	-1E+10	1	-1E+10	1	-1E+10	1	-1E+10	1	-1E+10	1
4902549	100	C	05/21/2023	04:11	-133.046	47.349	0	997.80	0	3.2490	0	34.3790	0	27.373	0	987.114	0	6.6	4	2.1	4	-1E+10	1	-1E+10	1	-1E+10	1	-1E+10	1	-1E+10	1	-1E+10	1
4902549	100	C	05/21/2023	04:11	-133.046	47.349	0	1005.30	0	3.2310	0	34.3830	0	27.378	0	994.516	0	6.7	4	2.1	4	-1E+10	1	-1E+10	1	-1E+10	1	-1E+10	1	-1E+10	1	-1E+10	1
4902549	100	C	05/21/2023	04:11	-133.046	47.349	0	1015.90	0	3.2030	0	34.3890	0	27.385	0	1004.977	0	6.8	4	2.1	4	-1E+10	1	-1E+10	1	-1E+10	1	-1E+10	1	-1E+10	1	-1E+10	1
4902549	100	C	05/21/2023	04:11	-133.046	47.349	0	1025.70	0	3.1870	0	34.3920	0	27.389	0	1014.648	0	6.9	4	2.2	4	-1E+10	1	-1E+10	1	-1E+10	1	-1E+10	1	-1E+10	1	-1E+10	1
4902549	100	C	05/21/2023	04:11	-133.046	47.349	0	1035.50	0	3.1710	0	34.3960	0	27.394	0	1024.319	0	7.1	4	2.2	4	-1E+10	1	-1E+10	1	-1E+10	1	-1E+10	1	-1E+10	1	-1E+10	1
4902549	100	C	05/21/2023	04:11	-133.046	47.349	0	1045.40	0	3.1530	0	34.4000	0	27.399	0	1034.087	0	7.2	4	2.2	4	-1E+10	1	-1E+10	1	-1E+10	1	-1E+10	1	-1E+10	1	-1E+10	1
4902549	100	C	05/21/2023	04:11	-133.046	47.349	0	1055.40	0	3.1370	0	34.4010	0	27.401	0	1043.954	0	7.2	4	2.2	4	-1E+10	1	-1E+10	1	-1E+10	1	-1E+10	1	-1E+10	1	-1E+10	1
4902549	100	C	05/21/2023	04:11	-133.046	47.349	0	1065.20	0	3.1210	0	34.4030	0	27.404	0	1053.623	0	7.3	4	2.3	4	-1E+10	1	-1E+10	1	-1E+10	1	-1E+10	1	-1E+10	1	-1E+10	1
4902549	100	C	05/21/2023	04:11	-133.046	47.349	0	1075.40	0	3.0840	0	34.4040	0	27.408	0	1063.687	0	7.5	4	2.3	4	-1E+10	1	-1E+10	1	-1E+10	1	-1E+10	1	-1E+10	1	-1E+10	1
4902549	100	C	05/21/2023	04:11	-133.046	47.349	0	1085.40	0	3.0460	0	34.4050	0	27.413	0	1073.552	0	7.5	4	2.3	4	-1E+10	1	-1E+10	1	-1E+10	1	-1E+10	1	-1E+10	1	-1E+10	1
4902549	100	C	05/21/2023	04:11	-133.046	47.349	0	1095.10	0	3.0030	0	34.4040	0	27.416	0	1083.121	0	7.6	4	2.4	4	-1E+10	1	-1E+10	1	-1E+10	1	-1E+10	1	-1E+10	1	-1E+10	1
4902549	100	C	05/21/2023	04:11	-133.046	47.349	0	1105.30	0	2.9940	0	34.4100	0	27.422	0	1093.183	0	7.8	4	2.4	4	-1E+10	1	-1E+10	1	-1E+10	1	-1E+10	1	-1E+10	1	-1E+10	1
4902549	100	C	05/21/2023	04:11	-133.046	47.349	0	1115.20	0	2.9580	0	34.4110	0	27.426	0	1102.948	0	8.0	4	2.5	4	-1E+10	1	-1E+10	1	-1E+10	1	-1E+10	1	-1E+10	1	-1E+10	1
4902549	100	C	05/21/2023	04:11	-133.046	47.349	0	1125.00	0	2.9380	0	34.4150	0	27.431	0	1112.615	0	8.2	4	2.5	4	-1E+10	1	-1E+10	1	-1E+10	1	-1E+10	1	-1E+10	1	-1E+10	1
4902549	100	C	05/21/2023	04:11	-133.046	47.349	0	1135.00	0	2.9420	0	34.4210	0	27.435	0	1122.478	0	8.3	4	2.6	4	-1E+10	1	-1E+10	1	-1E+10	1	-1E+10	1	-1E+10	1	-1E+10	1
4902549	100	C	05/21/2023	04:11	-133.046	47.349	0	1145.30	0	2.9240	0	34.4210	0	27.437	0	1132.637	0	8.3	4	2.6	4	-1E+10	1	-1E+10	1	-1E+10	1	-1E+10	1	-1E+10	1	-1E+10	1
4902549	100	C	05/21/2023	04:11	-133.046	47.349	0	1155.20	0	2.8940	0	34.4200	0	27.439	0	1142.400	0	8.2	4	2.5	4	-1E+10	1	-1E+10	1	-1E+10	1	-1E+10	1	-1E+10	1	-1E+10	1
4902549	100	C	05/21/2023	04:11	-133.046	47.349	0	1165.30	0	2.8490	0	34.4160	0	27.440	0	1152.361	0	8.1	4	2.5	4	-1E+10	1	-1E+10	1	-1E+10	1	-1E+10	1	-1E+10	1	-1E+10	1
4902549	100	C	05/21/2023	04:11	-133.046	47.349	0	1175.30	0	2.8280	0	34.4180	0	27.443	0	1162.222	0	8.2	4	2.5	4	-1E+10	1	-1E+10	1	-1E+10	1	-1E+10	1	-1E+10	1	-1E+10	1
4902549	100	C	05/21/2023	04:11	-133.046	47.349	0	1185.20	0	2.8180	0	34.4200	0	27.446	0	1171.984	0	8.4	4	2.6	4	-1E+10	1	-1E+10	1	-1E+10	1	-1E+10	1	-1E+10	1	-1E+10	1
4902549	100	C	05/21/2023	04:11	-133.046	47.349	0	1195.20	0	2.8090	0	34.4230	0	27.449	0	1181.845	0	8.6	4	2.6	4	-1E+10	1	-1E+10	1	-1E+10	1	-1E+10	1	-1E+10	1	-1E+10	1
4902549	100	C	05/21/2023	04:11	-133.046	47.349	0	1205.30	0	2.8060	0	34.4270	0	27.452	0	1191.803	0	8.8	4	2.7	4	-1E+10	1	-1E+10	1	-1E+10	1	-1E+10	1	-1E+10	1	-1E+10	1
4902549	100	C	05/21/2023	04:11	-133.046	47.349	0	1215.40	0	2.7930	0	34.4290	0	27.455	0	1201.761	0	9.0	4	2.8	4	-1E+10	1	-1E+10	1	-1E+10	1	-1E+10	1	-1E+10	1	-1E+10	1
4902549	100	C	05/21/2023	04:11	-133.046	47.349	0	1225.10	0	2.7750	0	34.4330	0	27.460	0	1211.325	0	9.2	4	2.8	4	-1E+10	1	-1E+10	1	-1E+10	1	-1E+10	1	-1E+10	1	-1E+10	1
4902549	100	C	05/21/2023	04:11	-133.046	47.349	0	1235.30	0	2.7480	0	34.4360	0	27.465	0	1221.380	0	9.3	4	2.8	4	-1E+10	1	-1E+10	1	-1E+10	1	-1E+10	1	-1E+10	1	-1E+10	1
4902549	100	C	05/21/2023	04:11	-133.046	47.349	0	1245.70	0	2.7320	0	34.4370	0	27.467	0	1231.633	0	9.5	4	2.9	4	-1E+10	1	-1E+10	1	-1E+10	1	-1E+10	1	-1E+10	1	-1E+10	1
4902549	100	C	05/21/2023	04:11	-133.046	47.349	0	1255.30	0	2.7150	0	34.4410	0	27.472	0	1241.096	0	9.7	4	3.0	4	-1E+10	1	-1E+10	1	-1E+10	1	-1E+10	1	-1E+10	1	-1E+10	1
4902549	100	C	05/21/2023	04:11	-133.046	47.349	0	1265.50	0	2.7020	0	34.4450	0	27.476	0	1251.150	0	10.0	4	3.1	4	-1E+10	1	-1E+10	1	-1E+10	1	-1E+10	1	-1E+10	1	-1E+10	1
4902549	100	C	05/21/2023	04:11	-133.046	47.349	0	1275.60	0	2.6870	0	34.4470	0	27.479	0	1261.105	0	10.3	4	3.2	4	-1E+10	1	-1E+10	1	-1E+10	1	-1E+10	1	-1E+10	1	-1E+10	1
4902549	100	C	05/21/2023	04:11	-133.046	47.349	0	1285.30	0	2.6760	0	34.4500	0	27.483	0	1270.666	0	10.8	4	3.3	4	-1E+10	1	-1E+10	1	-1E+10	1	-1E+10	1	-1E+10	1	-1E+10	1
4902549	100	C	05/21/2023	04:11	-133.046	47.349	0	1295.20	0	2.6680	0	34.4550	0	27.487	0	1280.423	0	11.4	4	3.5	4	-1E+10	1	-1E+10	1	-1E+10	1	-1E+10	1	-1E+10	1	-1E+10	1
4902549	100	C	05/21/2023	04:11	-133.046	47.349	0	1305.10	0	2.6420	0	34.4580	0	27.492	0	1290.180	0	11.6	4	3.6	4	-1E+10	1	-1E+10	1	-1E+10	1	-1E+10	1	-1E+10	1	-1E+10	1
4902549	100	C	05/21/2023	04:11	-133.046	47.349	0	1315.10	0	2.6280	0	34.4600	0	27.495	0	1300.035	0	12.1	4	3.7	4	-1E+10	1	-1E+10	1	-1E+10	1	-1E+10	1	-1E+10	1	-1E+10	1
4902549	100	C	05/21/2023	04:11	-133.046	47.349	0	1325.30	0	2.6120	0	34.4640	0	27.499	0	1310.086	0	12.6	4	3.9	4	-1E+10	1	-1E+10	1	-1E+10	1	-1E+10	1	-1E+10	1	-1E+10	1
4902549	100	C	05/21/2023	04:11	-133.046	47.349	0	1335.30	0	2.5990	0	34.4660	0	27.502	0	1319.940	0	13.0	4	4.0	4	-1E+10	1	-1E+10	1	-1E+10	1	-1E+10	1	-1E+10	1	-1E+10	1
4902549	100	C	05/21/2023	04:11	-133.046	47.349	0	1345.20	0	2.5870	0	34.4680	0	27.505	0	1329.695	0	13.3	4	4.1	4	-1E+10	1	-1E+10	1	-1E+10	1	-1E+10	1	-1E+10	1	-1E+10	1
4902549	100	C	05/21/2023	04:11	-133.046	47.349	0	1355.40	0	2.5710	0	34.4710	0	27.509	0	1339.745	0	13.8	4	4.2	4	-1E+10	1	-1E+10	1	-1E+10	1	-1E+10	1	-1E+10	1	-1E+10	1
4902549	100	C	05/21/2023	04:11	-133.046	47.349	0	1365.50	0	2.5600	0	34.4740	0	27.512	0	1349.696	0	14.1	4	4.3	4	-1E+10	1	-1E+10	1	-1E+10	1	-1E+10	1	-1E+10	1	-1E+10	1
4902549	100	C	05/21/2023	04:11	-133.046	47.349	0	1375.20	0	2.5520	0	34.4750	0	27.514	0	1359.253	0	14.3	4	4.4	4	-1E+10	1	-1E+10	1	-1E+10	1	-1E+10	1	-1E+10	1	-1E+10	1
4902549	100	C	05/21/2023	04:11	-133.046	47.349	0	1385.10	0	2.5470	0	34.4770	0	27.516	0	1369.006	0	14.8	4	4.5	4	-1E+10	1	-1E+10	1	-1E+10	1	-1E+10	1	-1E+10	1	-1E+10	1
4902549	100	C	05/21/2023	04:11	-133.046	47.349	0	1395.40	0	2.5290	0	34.4800	0	27.520	0	1379.152	0	15.1	4	4.6	4	-1E+10	1	-1E+10	1	-1E+10	1	-1E+10	1	-1E+10	1	-1E+10	1
4902549	100	C	05/21/2023	04:11	-133.046	47.349	0	1405.10	0	2.5140	0	34.4820	0	27.523	0	1388.708	0	15.4	4	4.7	4	-1E+10	1	-1E+10	1	-1E+10	1	-1E+10	1	-1E+10	1	-1E+10	1
4902549	100	C	05/21/2023	04:11	-133.046	47.349	0	1415.20	0	2.5050	0	34.4840	0	27.525	0	1398.656	0	15.9	4	4.8	4	-1E+10	1	-1E+10	1	-1E+10	1	-1E+10	1	-1E+10	1	-1E+10	1
4902549	100	C	05/21/2023	04:11	-133.046	47.349	0	1425.00	0	2.4970	0	34.4850	0	27.526	0	1408.309	0	16.3	4	5.0	4	-1E+10	1	-1E+10	1	-1E+10	1	-1E+10	1	-1E+10	1	-1E+10	1
4902549	100	C	05/21/2023	04:11	-133.046	47.349	0	1435.20	0	2.4860	0	34.4870	0	27.529	0	1418.355	0	16.7	4	5.1	4	-1E+10	1	-1E+10	1	-1E+10	1	-1E+10	1	-1E+10	1	-1E+10	1
4902549	100	C	05/21/2023	04:11	-133.046	47.349	0	1445.30	0	2.4690	0	34.4900	0	27.533	0	1428.303	0	17.3	4	5.3	4	-1E+10	1	-1E+10	1	-1E+10	1	-1E+10	1	-1E+10	1	-1E+10	1
4902549	100	C	05/21/2023	04:11	-133.046	47.349	0	1455.10	0	2.4560	0	34.4920	0	27.536	0	1437.954	0	17.8	4	5.4	4	-1E+10	1	-1E+10	1	-1E+10	1	-1E+10	1	-1E+10	1	-1E+10	1
4902549	100	C	05/21/2023	04:11	-133.046	47.349	0	1465.00	0	2.4450	0	34.4940	0	27.538	0	1447.703	0	18.3	4	5.6	4	-1E+10	1	-1E+10	1	-1E+10	1	-1E+10	1	-1E+10	1	-1E+10	1
4902549	100	C	05/21/2023	04:11	-133.046	47.349	0	1475.10	0	2.4340	0	34.4960	0	27.541	0	1457.649	0	18.8	4	5.7	4	-1E+10	1	-1E+10	1	-1E+10	1	-1E+10	1	-1E+10	1	-1E+10	1
4902549	100	C	05/21/2023	04:11	-133.046	47.349	0	1485.20	0	2.4230	0	34.4980	0	27.543	0	1467.595	0	19.3	4	5.9	4	-1E+10	1	-1E+10	1	-1E+10	1	-1E+10	1	-1E+10	1	-1E+10	1
4902549	100	C	05/21/2023	04:11	-133.046	47.349	0	1495.50	0	2.4140	0	34.5000	0	27.546	0	1477.737	0	19.8	4	6.0	4	-1E+10	1	-1E+10	1	-1E+10	1	-1E+10	1	-1E+10	1	-1E+10	1
4902549	100	C	05/21/2023	04:11	-133.046	47.349	0	1505.70	0	2.4030	0	34.5020	0	27.548	0	1487.780	0	20.4	4	6.2	4	-1E+10	1	-1E+10	1	-1E+10	1	-1E+10	1	-1E+10	1	-1E+10	1
4902549	100	C	05/21/2023	04:11	-133.046	47.349	0	1515.50	0	2.3940	0	34.5050	0	27.552	0	1497.428	0	21.1	4	6.4	4	-1E+10	1	-1E+10	1	-1E+10	1	-1E+10	1	-1E+10	1	-1E+10	1
4902549	100	C	05/21/2023	04:11	-133.046	47.349	0	1525.20	0	2.3850	0	34.5070	0	27.554	0	1506.978	0	21.6	4	6.6	4	-1E+10	1	-1E+10	1	-1E+10	1	-1E+10	1	-1E+10	1	-1E+10	1
4902549	100	C	05/21/2023	04:11	-133.046	47.349	0	1535.20	0	2.3710	0	34.5090	0	27.557	0	1516.823	0	22.2	4	6.8	4	-1E+10	1	-1E+10	1	-1E+10	1	-1E+10	1	-1E+10	1	-1E+10	1
4902549	100	C	05/21/2023	04:11	-133.046	47.349	0	1545.30	0	2.3560	0	34.5110	0	27.560	0	1526.766	0	22.9	4	7.0	4	-1E+10	1	-1E+10	1	-1E+10	1	-1E+10	1	-1E+10	1	-1E+10	1
4902549	100	C	05/21/2023	04:11	-133.046	47.349	0	1555.30	0	2.3470	0	34.5130	0	27.562	0	1536.609	0	23.7	4	7.2	4	-1E+10	1	-1E+10	1	-1E+10	1	-1E+10	1	-1E+10	1	-1E+10	1
4902549	100	C	05/21/2023	04:11	-133.046	47.349	0	1565.50	0	2.3350	0	34.5160	0	27.565	0	1546.649	0	24.2	4	7.4	4	-1E+10	1	-1E+10	1	-1E+10	1	-1E+10	1	-1E+10	1	-1E+10	1
4902549	100	C	05/21/2023	04:11	-133.046	47.349	0	1575.50	0	2.3230	0	34.5180	0	27.568	0	1556.492	0	24.8	4	7.5	4	-1E+10	1	-1E+10	1	-1E+10	1	-1E+10	1	-1E+10	1	-1E+10	1
4902549	100	C	05/21/2023	04:11	-133.046	47.349	0	1585.60	0	2.3090	0	34.5200	0	27.571	0	1566.433	0	25.5	4	7.8	4	-1E+10	1	-1E+10	1	-1E+10	1	-1E+10	1	-1E+10	1	-1E+10	1
4902549	100	C	05/21/2023	04:11	-133.046	47.349	0	1595.60	0	2.3010	0	34.5220	0	27.573	0	1576.275	0	26.3	4	8.0	4	-1E+10	1	-1E+10	1	-1E+10	1	-1E+10	1	-1E+10	1	-1E+10	1
4902549	100	C	05/21/2023	04:11	-133.046	47.349	0	1605.80	0	2.2910	0	34.5240	0	27.576	0	1586.313	0	26.9	4	8.2	4	-1E+10	1	-1E+10	1	-1E+10	1	-1E+10	1	-1E+10	1	-1E+10	1
4902549	100	C	05/21/2023	04:11	-133.046	47.349	0	1615.50	0	2.2780	0	34.5260	0	27.578	0	1595.859	0	27.3	4	8.3	4	-1E+10	1	-1E+10	1	-1E+10	1	-1E+10	1	-1E+10	1	-1E+10	1
4902549	100	C	05/21/2023	04:11	-133.046	47.349	0	1625.50	0	2.2640	0	34.5280	0	27.581	0	1605.700	0	27.9	4	8.5	4	-1E+10	1	-1E+10	1	-1E+10	1	-1E+10	1	-1E+10	1	-1E+10	1
4902549	100	C	05/21/2023	04:11	-133.046	47.349	0	1635.70	0	2.2500	0	34.5300	0	27.584	0	1615.736	0	28.6	4	8.7	4	-1E+10	1	-1E+10	1	-1E+10	1	-1E+10	1	-1E+10	1	-1E+10	1
4902549	100	C	05/21/2023	04:11	-133.046	47.349	0	1645.50	0	2.2310	0	34.5320	0	27.587	0	1625.379	0	29.2	4	8.8	4	-1E+10	1	-1E+10	1	-1E+10	1	-1E+10	1	-1E+10	1	-1E+10	1
4902549	100	C	05/21/2023	04:11	-133.046	47.349	0	1655.80	0	2.2160	0	34.5330	0	27.589	0	1635.514	0	29.7	4	9.0	4	-1E+10	1	-1E+10	1	-1E+10	1	-1E+10	1	-1E+10	1	-1E+10	1
4902549	100	C	05/21/2023	04:11	-133.046	47.349	0	1665.50	0	2.2020	0	34.5350	0	27.592	0	1645.057	0	30.4	4	9.2	4	-1E+10	1	-1E+10	1	-1E+10	1	-1E+10	1	-1E+10	1	-1E+10	1
4902549	100	C	05/21/2023	04:11	-133.046	47.349	0	1675.60	0	2.1880	0	34.5370	0	27.595	0	1654.994	0	31.1	4	9.4	4	-1E+10	1	-1E+10	1	-1E+10	1	-1E+10	1	-1E+10	1	-1E+10	1
4902549	100	C	05/21/2023	04:11	-133.046	47.349	0	1685.30	0	2.1780	0	34.5390	0	27.597	0	1664.536	0	31.6	4	9.6	4	-1E+10	1	-1E+10	1	-1E+10	1	-1E+10	1	-1E+10	1	-1E+10	1
4902549	100	C	05/21/2023	04:11	-133.046	47.349	0	1695.20	0	2.1690	0	34.5400	0	27.599	0	1674.275	0	32.1	4	9.7	4	-1E+10	1	-1E+10	1	-1E+10	1	-1E+10	1	-1E+10	1	-1E+10	1
4902549	100	C	05/21/2023	04:11	-133.046	47.349	0	1705.50	0	2.1600	0	34.5420	0	27.601	0	1684.407	0	32.9	4	9.9	4	-1E+10	1	-1E+10	1	-1E+10	1	-1E+10	1	-1E+10	1	-1E+10	1
4902549	100	C	05/21/2023	04:11	-133.046	47.349	0	1715.70	0	2.1460	0	34.5440	0	27.604	0	1694.440	0	33.6	4	10.2	4	-1E+10	1	-1E+10	1	-1E+10	1	-1E+10	1	-1E+10	1	-1E+10	1
4902549	100	C	05/21/2023	04:11	-133.046	47.349	0	1725.70	0	2.1360	0	34.5460	0	27.606	0	1704.276	0	34.3	4	10.4	4	-1E+10	1	-1E+10	1	-1E+10	1	-1E+10	1	-1E+10	1	-1E+10	1
4902549	100	C	05/21/2023	04:11	-133.046	47.349	0	1735.30	0	2.1270	0	34.5470	0	27.608	0	1713.718	0	34.9	4	10.6	4	-1E+10	1	-1E+10	1	-1E+10	1	-1E+10	1	-1E+10	1	-1E+10	1
4902549	100	C	05/21/2023	04:11	-133.046	47.349	0	1745.30	0	2.1170	0	34.5490	0	27.610	0	1723.554	0	35.7	4	10.8	4	-1E+10	1	-1E+10	1	-1E+10	1	-1E+10	1	-1E+10	1	-1E+10	1
4902549	100	C	05/21/2023	04:11	-133.046	47.349	0	1755.40	0	2.1060	0	34.5510	0	27.613	0	1733.486	0	36.3	4	11.0	4	-1E+10	1	-1E+10	1	-1E+10	1	-1E+10	1	-1E+10	1	-1E+10	1
4902549	100	C	05/21/2023	04:11	-133.046	47.349	0	1765.10	0	2.0980	0	34.5520	0	27.614	0	1743.025	0	37.1	4	11.2	4	-1E+10	1	-1E+10	1	-1E+10	1	-1E+10	1	-1E+10	1	-1E+10	1
4902549	100	C	05/21/2023	04:11	-133.046	47.349	0	1775.00	0	2.0850	0	34.5550	0	27.618	0	1752.761	0	37.9	4	11.4	4	-1E+10	1	-1E+10	1	-1E+10	1	-1E+10	1	-1E+10	1	-1E+10	1
4902549	100	C	05/21/2023	04:11	-133.046	47.349	0	1785.40	0	2.0740	0	34.5560	0	27.620	0	1762.987	0	38.6	4	11.7	4	-1E+10	1	-1E+10	1	-1E+10	1	-1E+10	1	-1E+10	1	-1E+10	1
4902549	100	C	05/21/2023	04:11	-133.046	47.349	0	1795.40	0	2.0660	0	34.5580	0	27.622	0	1772.820	0	39.4	4	11.9	4	-1E+10	1	-1E+10	1	-1E+10	1	-1E+10	1	-1E+10	1	-1E+10	1
4902549	100	C	05/21/2023	04:11	-133.046	47.349	0	1805.00	0	2.0540	0	34.5600	0	27.624	0	1782.259	0	40.2	4	12.1	4	-1E+10	1	-1E+10	1	-1E+10	1	-1E+10	1	-1E+10	1	-1E+10	1
4902549	100	C	05/21/2023	04:11	-133.046	47.349	0	1815.30	0	2.0450	0	34.5620	0	27.627	0	1792.386	0	40.8	4	12.3	4	-1E+10	1	-1E+10	1	-1E+10	1	-1E+10	1	-1E+10	1	-1E+10	1
4902549	100	C	05/21/2023	04:11	-133.046	47.349	0	1825.20	0	2.0370	0	34.5630	0	27.628	0	1802.119	0	41.4	4	12.5	4	-1E+10	1	-1E+10	1	-1E+10	1	-1E+10	1	-1E+10	1	-1E+10	1
4902549	100	C	05/21/2023	04:11	-133.046	47.349	0	1835.40	0	2.0290	0	34.5650	0	27.631	0	1812.147	0	42.1	4	12.7	4	-1E+10	1	-1E+10	1	-1E+10	1	-1E+10	1	-1E+10	1	-1E+10	1
4902549	100	C	05/21/2023	04:11	-133.046	47.349	0	1845.80	0	2.0200	0	34.5660	0	27.632	0	1822.370	0	42.7	4	12.9	4	-1E+10	1	-1E+10	1	-1E+10	1	-1E+10	1	-1E+10	1	-1E+10	1
4902549	100	C	05/21/2023	04:11	-133.046	47.349	0	1855.40	0	2.0150	0	34.5680	0	27.634	0	1831.807	0	43.2	4	13.0	4	-1E+10	1	-1E+10	1	-1E+10	1	-1E+10	1	-1E+10	1	-1E+10	1
4902549	100	C	05/21/2023	04:11	-133.046	47.349	0	1865.20	0	2.0100	0	34.5680	0	27.635	0	1841.440	0	43.6	4	13.1	4	-1E+10	1	-1E+10	1	-1E+10	1	-1E+10	1	-1E+10	1	-1E+10	1
4902549	100	C	05/21/2023	04:11	-133.046	47.349	0	1875.50	0	2.0030	0	34.5700	0	27.637	0	1851.564	0	44.1	4	13.3	4	-1E+10	1	-1E+10	1	-1E+10	1	-1E+10	1	-1E+10	1	-1E+10	1
4902549	100	C	05/21/2023	04:11	-133.046	47.349	0	1885.50	0	1.9970	0	34.5710	0	27.638	0	1861.393	0	44.7	4	13.5	4	-1E+10	1	-1E+10	1	-1E+10	1	-1E+10	1	-1E+10	1	-1E+10	1
4902549	100	C	05/21/2023	04:11	-133.046	47.349	0	1895.30	0	1.9910	0	34.5730	0	27.640	0	1871.024	0	45.3	4	13.7	4	-1E+10	1	-1E+10	1	-1E+10	1	-1E+10	1	-1E+10	1	-1E+10	1
4902549	100	C	05/21/2023	04:11	-133.046	47.349	0	1905.20	0	1.9850	0	34.5740	0	27.642	0	1880.754	0	45.9	4	13.8	4	-1E+10	1	-1E+10	1	-1E+10	1	-1E+10	1	-1E+10	1	-1E+10	1
4902549	100	C	05/21/2023	04:11	-133.046	47.349	0	1915.10	0	1.9790	0	34.5750	0	27.643	0	1890.483	0	46.5	4	14.0	4	-1E+10	1	-1E+10	1	-1E+10	1	-1E+10	1	-1E+10	1	-1E+10	1
4902549	100	C	05/21/2023	04:11	-133.046	47.349	0	1925.10	0	1.9710	0	34.5760	0	27.644	0	1900.310	0	47.1	4	14.2	4	-1E+10	1	-1E+10	1	-1E+10	1	-1E+10	1	-1E+10	1	-1E+10	1
4902549	100	C	05/21/2023	04:11	-133.046	47.349	0	1935.30	0	1.9650	0	34.5780	0	27.647	0	1910.333	0	47.6	4	14.3	4	-1E+10	1	-1E+10	1	-1E+10	1	-1E+10	1	-1E+10	1	-1E+10	1
4902549	100	C	05/21/2023	04:11	-133.046	47.349	0	1945.50	0	1.9600	0	34.5790	0	27.648	0	1920.355	0	48.1	4	14.5	4	-1E+10	1	-1E+10	1	-1E+10	1	-1E+10	1	-1E+10	1	-1E+10	1
4902549	100	C	05/21/2023	04:11	-133.046	47.349	0	1955.40	0	1.9530	0	34.5800	0	27.649	0	1930.082	0	48.6	4	14.6	4	-1E+10	1	-1E+10	1	-1E+10	1	-1E+10	1	-1E+10	1	-1E+10	1
4902549	100	C	05/21/2023	04:11	-133.046	47.349	0	1965.70	0	1.9470	0	34.5810	0	27.650	0	1940.202	0	48.9	4	14.7	4	-1E+10	1	-1E+10	1	-1E+10	1	-1E+10	1	-1E+10	1	-1E+10	1
4902549	100	C	05/21/2023	04:11	-133.046	47.349	0	1972.60	0	1.9440	0	34.5820	0	27.652	0	1946.981	0	48.9	4	14.7	4	-1E+10	1	-1E+10	1	-1E+10	1	-1E+10	1	-1E+10	1	-1E+10	1
4902549	100	C	05/21/2023	04:11	-133.046	47.349	0																										
4902549	101	C	05/31/2023	08:55	-132.947	47.324	0	0.10	0	11.8250	0	32.3750	0	24.584	0	0.099	0	266.5	4	99.0	4	-1E+10	1	-1E+10	1	-1E+10	1	-1E+10	1	-1E+10	1	-1E+10	1
4902549	101	C	05/31/2023	08:55	-132.947	47.324	0	0.20	0	11.8257	0	32.3742	0	24.583	0	0.198	0	-1e10	1	-1e10	1	-1E+10	1	-1E+10	1	-1E+10	1	-1E+10	1	-1E+10	1	-1E+10	1
4902549	101	C	05/31/2023	08:55	-132.947	47.324	0	0.30	0	11.8264	0	32.3734	0	24.582	0	0.298	0	-1e10	1	-1e10	1	-1E+10	1	-1E+10	1	-1E+10	1	-1E+10	1	-1E+10	1	-1E+10	1
4902549	101	C	05/31/2023	08:55	-132.947	47.324	0	1.10	0	11.8320	0	32.3670	0	24.576	0	1.091	0	266.6	4	99.0	4	-1E+10	1	-1E+10	1	-1E+10	1	-1E+10	1	-1E+10	1	-1E+10	1
4902549	101	C	05/31/2023	08:55	-132.947	47.324	0	2.00	0	11.8310	0	32.3690	0	24.578	0	1.983	0	266.6	4	99.0	4	-1E+10	1	-1E+10	1	-1E+10	1	-1E+10	1	-1E+10	1	-1E+10	1
4902549	101	C	05/31/2023	08:55	-132.947	47.324	0	3.10	0	11.8300	0	32.3720	0	24.581	0	3.074	0	266.6	4	99.0	4	-1E+10	1	-1E+10	1	-1E+10	1	-1E+10	1	-1E+10	1	-1E+10	1
4902549	101	C	05/31/2023	08:55	-132.947	47.324	0	3.90	0	11.8330	0	32.3680	0	24.577	0	3.867	0	266.6	4	99.0	4	-1E+10	1	-1E+10	1	-1E+10	1	-1E+10	1	-1E+10	1	-1E+10	1
4902549	101	C	05/31/2023	08:55	-132.947	47.324	0	5.10	0	11.8340	0	32.3710	0	24.579	0	5.057	0	266.8	4	99.1	4	-1E+10	1	-1E+10	1	-1E+10	1	-1E+10	1	-1E+10	1	-1E+10	1
4902549	101	C	05/31/2023	08:55	-132.947	47.324	0	6.00	0	11.8330	0	32.3710	0	24.579	0	5.950	0	266.8	4	99.1	4	-1E+10	1	-1E+10	1	-1E+10	1	-1E+10	1	-1E+10	1	-1E+10	1
4902549	101	C	05/31/2023	08:55	-132.947	47.324	0	7.00	0	11.8340	0	32.3710	0	24.579	0	6.942	0	266.9	4	99.2	4	-1E+10	1	-1E+10	1	-1E+10	1	-1E+10	1	-1E+10	1	-1E+10	1
4902549	101	C	05/31/2023	08:55	-132.947	47.324	0	7.90	0	11.8340	0	32.3710	0	24.579	0	7.834	0	267.0	4	99.2	4	-1E+10	1	-1E+10	1	-1E+10	1	-1E+10	1	-1E+10	1	-1E+10	1
4902549	101	C	05/31/2023	08:55	-132.947	47.324	0	8.90	0	11.8330	0	32.3710	0	24.580	0	8.826	0	267.2	4	99.3	4	-1E+10	1	-1E+10	1	-1E+10	1	-1E+10	1	-1E+10	1	-1E+10	1
4902549	101	C	05/31/2023	08:55	-132.947	47.324	0	10.10	0	11.8340	0	32.3710	0	24.579	0	10.016	0	267.5	4	99.4	4	-1E+10	1	-1E+10	1	-1E+10	1	-1E+10	1	-1E+10	1	-1E+10	1
4902549	101	C	05/31/2023	08:55	-132.947	47.324	0	10.90	0	11.8350	0	32.3700	0	24.578	0	10.809	0	267.9	4	99.6	4	-1E+10	1	-1E+10	1	-1E+10	1	-1E+10	1	-1E+10	1	-1E+10	1
4902549	101	C	05/31/2023	08:55	-132.947	47.324	0	12.10	0	11.8350	0	32.3700	0	24.578	0	11.999	0	270.0	4	100.3	4	-1E+10	1	-1E+10	1	-1E+10	1	-1E+10	1	-1E+10	1	-1E+10	1
4902549	101	C	05/31/2023	08:55	-132.947	47.324	0	13.00	0	11.8350	0	32.3670	0	24.576	0	12.891	0	273.4	4	101.6	4	-1E+10	1	-1E+10	1	-1E+10	1	-1E+10	1	-1E+10	1	-1E+10	1
4902549	101	C	05/31/2023	08:55	-132.947	47.324	0	14.00	0	11.7810	0	32.3850	0	24.600	0	13.883	0	279.7	4	103.8	4	-1E+10	1	-1E+10	1	-1E+10	1	-1E+10	1	-1E+10	1	-1E+10	1
4902549	101	C	05/31/2023	08:55	-132.947	47.324	0	15.00	0	11.0380	0	32.3900	0	24.738	0	14.875	0	285.7	4	104.4	4	-1E+10	1	-1E+10	1	-1E+10	1	-1E+10	1	-1E+10	1	-1E+10	1
4902549	101	C	05/31/2023	08:55	-132.947	47.324	0	16.00	0	10.3730	0	32.3860	0	24.850	0	15.866	0	289.7	4	104.4	4	-1E+10	1	-1E+10	1	-1E+10	1	-1E+10	1	-1E+10	1	-1E+10	1
4902549	101	C	05/31/2023	08:55	-132.947	47.324	0	17.00	0	10.1480	0	32.3640	0	24.870	0	16.858	0	291.1	4	104.3	4	-1E+10	1	-1E+10	1	-1E+10	1	-1E+10	1	-1E+10	1	-1E+10	1
4902549	101	C	05/31/2023	08:55	-132.947	47.324	0	18.00	0	9.8280	0	32.3760	0	24.933	0	17.849	0	291.9	4	103.9	4	-1E+10	1	-1E+10	1	-1E+10	1	-1E+10	1	-1E+10	1	-1E+10	1
4902549	101	C	05/31/2023	08:55	-132.947	47.324	0	19.10	0	9.7330	0	32.3720	0	24.945	0	18.940	0	291.6	4	103.6	4	-1E+10	1	-1E+10	1	-1E+10	1	-1E+10	1	-1E+10	1	-1E+10	1
4902549	101	C	05/31/2023	08:55	-132.947	47.324	0	20.10	0	9.5390	0	32.3760	0	24.980	0	19.932	0	291.4	4	103.1	4	-1E+10	1	-1E+10	1	-1E+10	1	-1E+10	1	-1E+10	1	-1E+10	1
4902549	101	C	05/31/2023	08:55	-132.947	47.324	0	21.00	0	9.4760	0	32.3760	0	24.990	0	20.824	0	291.0	4	102.8	4	-1E+10	1	-1E+10	1	-1E+10	1	-1E+10	1	-1E+10	1	-1E+10	1
4902549	101	C	05/31/2023	08:55	-132.947	47.324	0	21.80	0	9.3510	0	32.3780	0	25.011	0	21.617	0	290.9	4	102.5	4	-1E+10	1	-1E+10	1	-1E+10	1	-1E+10	1	-1E+10	1	-1E+10	1
4902549	101	C	05/31/2023	08:55	-132.947	47.324	0	22.90	0	9.3010	0	32.3780	0	25.019	0	22.708	0	290.3	4	102.2	4	-1E+10	1	-1E+10	1	-1E+10	1	-1E+10	1	-1E+10	1	-1E+10	1
4902549	101	C	05/31/2023	08:55	-132.947	47.324	0	24.00	0	9.2650	0	32.3860	0	25.031	0	23.799	0	289.8	4	101.9	4	-1E+10	1	-1E+10	1	-1E+10	1	-1E+10	1	-1E+10	1	-1E+10	1
4902549	101	C	05/31/2023	08:55	-132.947	47.324	0	24.90	0	9.2360	0	32.3830	0	25.033	0	24.691	0	289.6	4	101.8	4	-1E+10	1	-1E+10	1	-1E+10	1	-1E+10	1	-1E+10	1	-1E+10	1
4902549	101	C	05/31/2023	08:55	-132.947	47.324	0	25.80	0	9.1600	0	32.3850	0	25.047	0	25.583	0	289.6	4	101.6	4	-1E+10	1	-1E+10	1	-1E+10	1	-1E+10	1	-1E+10	1	-1E+10	1
4902549	101	C	05/31/2023	08:55	-132.947	47.324	0	27.00	0	9.1440	0	32.3840	0	25.049	0	26.773	0	289.2	4	101.4	4	-1E+10	1	-1E+10	1	-1E+10	1	-1E+10	1	-1E+10	1	-1E+10	1
4902549	101	C	05/31/2023	08:55	-132.947	47.324	0	28.10	0	9.1350	0	32.3820	0	25.048	0	27.864	0	288.5	4	101.2	4	-1E+10	1	-1E+10	1	-1E+10	1	-1E+10	1	-1E+10	1	-1E+10	1
4902549	101	C	05/31/2023	08:55	-132.947	47.324	0	28.90	0	9.1100	0	32.3870	0	25.056	0	28.657	0	287.8	4	100.9	4	-1E+10	1	-1E+10	1	-1E+10	1	-1E+10	1	-1E+10	1	-1E+10	1
4902549	101	C	05/31/2023	08:55	-132.947	47.324	0	29.80	0	9.0900	0	32.3820	0	25.055	0	29.550	0	287.4	4	100.7	4	-1E+10	1	-1E+10	1	-1E+10	1	-1E+10	1	-1E+10	1	-1E+10	1
4902549	101	C	05/31/2023	08:55	-132.947	47.324	0	30.90	0	9.0450	0	32.3860	0	25.066	0	30.640	0	286.7	4	100.4	4	-1E+10	1	-1E+10	1	-1E+10	1	-1E+10	1	-1E+10	1	-1E+10	1
4902549	101	C	05/31/2023	08:55	-132.947	47.324	0	32.10	0	9.0010	0	32.3900	0	25.076	0	31.830	0	286.3	4	100.1	4	-1E+10	1	-1E+10	1	-1E+10	1	-1E+10	1	-1E+10	1	-1E+10	1
4902549	101	C	05/31/2023	08:55	-132.947	47.324	0	32.90	0	8.9920	0	32.3900	0	25.077	0	32.623	0	286.0	4	100.0	4	-1E+10	1	-1E+10	1	-1E+10	1	-1E+10	1	-1E+10	1	-1E+10	1
4902549	101	C	05/31/2023	08:55	-132.947	47.324	0	33.80	0	8.9870	0	32.3880	0	25.076	0	33.516	0	285.4	4	99.8	4	-1E+10	1	-1E+10	1	-1E+10	1	-1E+10	1	-1E+10	1	-1E+10	1
4902549	101	C	05/31/2023	08:55	-132.947	47.324	0	35.00	0	8.9430	0	32.3900	0	25.085	0	34.706	0	285.0	4	99.5	4	-1E+10	1	-1E+10	1	-1E+10	1	-1E+10	1	-1E+10	1	-1E+10	1
4902549	101	C	05/31/2023	08:55	-132.947	47.324	0	36.10	0	8.8500	0	32.3920	0	25.101	0	35.796	0	285.2	4	99.4	4	-1E+10	1	-1E+10	1	-1E+10	1	-1E+10	1	-1E+10	1	-1E+10	1
4902549	101	C	05/31/2023	08:55	-132.947	47.324	0	37.10	0	8.8040	0	32.3970	0	25.111	0	36.788	0	285.2	4	99.3	4	-1E+10	1	-1E+10	1	-1E+10	1	-1E+10	1	-1E+10	1	-1E+10	1
4902549	101	C	05/31/2023	08:55	-132.947	47.324	0	38.00	0	8.5500	0	32.3970	0	25.150	0	37.680	0	286.2	4	99.1	4	-1E+10	1	-1E+10	1	-1E+10	1	-1E+10	1	-1E+10	1	-1E+10	1
4902549	101	C	05/31/2023	08:55	-132.947	47.324	0	38.90	0	8.4890	0	32.3970	0	25.159	0	38.572	0	286.6	4	99.1	4	-1E+10	1	-1E+10	1	-1E+10	1	-1E+10	1	-1E+10	1	-1E+10	1
4902549	101	C	05/31/2023	08:55	-132.947	47.324	0	39.90	0	8.4470	0	32.3970	0	25.165	0	39.564	0	286.4	4	98.9	4	-1E+10	1	-1E+10	1	-1E+10	1	-1E+10	1	-1E+10	1	-1E+10	1
4902549	101	C	05/31/2023	08:55	-132.947	47.324	0	40.90	0	8.4140	0	32.3980	0	25.171	0	40.555	0	286.5	4	98.9	4	-1E+10	1	-1E+10	1	-1E+10	1	-1E+10	1	-1E+10	1	-1E+10	1
4902549	101	C	05/31/2023	08:55	-132.947	47.324	0	41.90	0	8.4090	0	32.4000	0	25.173	0	41.547	0	286.3	4	98.8	4	-1E+10	1	-1E+10	1	-1E+10	1	-1E+10	1	-1E+10	1	-1E+10	1
4902549	101	C	05/31/2023	08:55	-132.947	47.324	0	43.00	0	8.4040	0	32.4020	0	25.176	0	42.637	0	286.0	4	98.7	4	-1E+10	1	-1E+10	1	-1E+10	1	-1E+10	1	-1E+10	1	-1E+10	1
4902549	101	C	05/31/2023	08:55	-132.947	47.324	0	44.00	0	8.3940	0	32.3980	0	25.174	0	43.629	0	285.9	4	98.6	4	-1E+10	1	-1E+10	1	-1E+10	1	-1E+10	1	-1E+10	1	-1E+10	1
4902549	101	C	05/31/2023	08:55	-132.947	47.324	0	45.10	0	8.3600	0	32.4000	0	25.181	0	44.719	0	285.8	4	98.5	4	-1E+10	1	-1E+10	1	-1E+10	1	-1E+10	1	-1E+10	1	-1E+10	1
4902549	101	C	05/31/2023	08:55	-132.947	47.324	0	46.00	0	8.3490	0	32.4020	0	25.184	0	45.612	0	285.5	4	98.4	4	-1E+10	1	-1E+10	1	-1E+10	1	-1E+10	1	-1E+10	1	-1E+10	1
4902549	101	C	05/31/2023	08:55	-132.947	47.324	0	47.10	0	8.3500	0	32.4020	0	25.184	0	46.702	0	285.0	4	98.2	4	-1E+10	1	-1E+10	1	-1E+10	1	-1E+10	1	-1E+10	1	-1E+10	1
4902549	101	C	05/31/2023	08:55	-132.947	47.324	0	48.00	0	8.3490	0	32.4000	0	25.182	0	47.595	0	284.3	4	98.0	4	-1E+10	1	-1E+10	1	-1E+10	1	-1E+10	1	-1E+10	1	-1E+10	1
4902549	101	C	05/31/2023	08:55	-132.947	47.324	0	49.00	0	8.3400	0	32.3970	0	25.181	0	48.586	0	283.4	4	97.7	4	-1E+10	1	-1E+10	1	-1E+10	1	-1E+10	1	-1E+10	1	-1E+10	1
4902549	101	C	05/31/2023	08:55	-132.947	47.324	0	49.90	0	8.2690	0	32.3980	0	25.193	0	49.478	0	283.0	4	97.4	4	-1E+10	1	-1E+10	1	-1E+10	1	-1E+10	1	-1E+10	1	-1E+10	1
4902549	101	C	05/31/2023	08:55	-132.947	47.324	0	50.80	0	8.1310	0	32.3980	0	25.213	0	50.371	0	282.9	4	97.0	4	-1E+10	1	-1E+10	1	-1E+10	1	-1E+10	1	-1E+10	1	-1E+10	1
4902549	101	C	05/31/2023	08:55	-132.947	47.324	0	52.00	0	8.0090	0	32.3890	0	25.223	0	51.560	0	282.9	4	96.8	4	-1E+10	1	-1E+10	1	-1E+10	1	-1E+10	1	-1E+10	1	-1E+10	1
4902549	101	C	05/31/2023	08:55	-132.947	47.324	0	53.20	0	7.9430	0	32.3870	0	25.231	0	52.750	0	282.4	4	96.4	4	-1E+10	1	-1E+10	1	-1E+10	1	-1E+10	1	-1E+10	1	-1E+10	1
4902549	101	C	05/31/2023	08:55	-132.947	47.324	0	53.80	0	7.9340	0	32.3870	0	25.233	0	53.345	0	282.0	4	96.3	4	-1E+10	1	-1E+10	1	-1E+10	1	-1E+10	1	-1E+10	1	-1E+10	1
4902549	101	C	05/31/2023	08:55	-132.947	47.324	0	55.10	0	7.8990	0	32.3890	0	25.239	0	54.634	0	281.1	4	95.9	4	-1E+10	1	-1E+10	1	-1E+10	1	-1E+10	1	-1E+10	1	-1E+10	1
4902549	101	C	05/31/2023	08:55	-132.947	47.324	0	56.00	0	7.8800	0	32.3900	0	25.243	0	55.526	0	280.2	4	95.6	4	-1E+10	1	-1E+10	1	-1E+10	1	-1E+10	1	-1E+10	1	-1E+10	1
4902549	101	C	05/31/2023	08:55	-132.947	47.324	0	56.90	0	7.8570	0	32.3890	0	25.245	0	56.418	0	279.3	4	95.2	4	-1E+10	1	-1E+10	1	-1E+10	1	-1E+10	1	-1E+10	1	-1E+10	1
4902549	101	C	05/31/2023	08:55	-132.947	47.324	0	57.80	0	7.8540	0	32.3950	0	25.251	0	57.311	0	278.3	4	94.9	4	-1E+10	1	-1E+10	1	-1E+10	1	-1E+10	1	-1E+10	1	-1E+10	1
4902549	101	C	05/31/2023	08:55	-132.947	47.324	0	58.80	0	7.9080	0	32.4160	0	25.259	0	58.302	0	277.4	4	94.7	4	-1E+10	1	-1E+10	1	-1E+10	1	-1E+10	1	-1E+10	1	-1E+10	1
4902549	101	C	05/31/2023	08:55	-132.947	47.324	0	59.80	0	7.8870	0	32.4210	0	25.266	0	59.293	0	277.3	4	94.6	4	-1E+10	1	-1E+10	1	-1E+10	1	-1E+10	1	-1E+10	1	-1E+10	1
4902549	101	C	05/31/2023	08:55	-132.947	47.324	0	60.90	0	7.8620	0	32.4200	0	25.269	0	60.384	0	277.2	4	94.5	4	-1E+10	1	-1E+10	1	-1E+10	1	-1E+10	1	-1E+10	1	-1E+10	1
4902549	101	C	05/31/2023	08:55	-132.947	47.324	0	62.00	0	7.8460	0	32.4210	0	25.272	0	61.474	0	277.2	4	94.5	4	-1E+10	1	-1E+10	1	-1E+10	1	-1E+10	1	-1E+10	1	-1E+10	1
4902549	101	C	05/31/2023	08:55	-132.947	47.324	0	63.10	0	7.8420	0	32.4200	0	25.272	0	62.565	0	277.1	4	94.5	4	-1E+10	1	-1E+10	1	-1E+10	1	-1E+10	1	-1E+10	1	-1E+10	1
4902549	101	C	05/31/2023	08:55	-132.947	47.324	0	64.00	0	7.8360	0	32.4200	0	25.273	0	63.457	0	277.0	4	94.4	4	-1E+10	1	-1E+10	1	-1E+10	1	-1E+10	1	-1E+10	1	-1E+10	1
4902549	101	C	05/31/2023	08:55	-132.947	47.324	0	64.80	0	7.8300	0	32.4180	0	25.272	0	64.250	0	276.9	4	94.3	4	-1E+10	1	-1E+10	1	-1E+10	1	-1E+10	1	-1E+10	1	-1E+10	1
4902549	101	C	05/31/2023	08:55	-132.947	47.324	0	66.00	0	7.7920	0	32.4140	0	25.274	0	65.440	0	276.9	4	94.3	4	-1E+10	1	-1E+10	1	-1E+10	1	-1E+10	1	-1E+10	1	-1E+10	1
4902549	101	C	05/31/2023	08:55	-132.947	47.324	0	66.90	0	7.7480	0	32.4150	0	25.281	0	66.332	0	276.8	4	94.1	4	-1E+10	1	-1E+10	1	-1E+10	1	-1E+10	1	-1E+10	1	-1E+10	1
4902549	101	C	05/31/2023	08:55	-132.947	47.324	0	67.90	0	7.7100	0	32.4100	0	25.283	0	67.323	0	276.9	4	94.1	4	-1E+10	1	-1E+10	1	-1E+10	1	-1E+10	1	-1E+10	1	-1E+10	1
4902549	101	C	05/31/2023	08:55	-132.947	47.324	0	68.90	0	7.6880	0	32.4150	0	25.290	0	68.315	0	276.7	4	94.0	4	-1E+10	1	-1E+10	1	-1E+10	1	-1E+10	1	-1E+10	1	-1E+10	1
4902549	101	C	05/31/2023	08:55	-132.947	47.324	0	69.80	0	7.6750	0	32.4100	0	25.288	0	69.207	0	276.8	4	94.0	4	-1E+10	1	-1E+10	1	-1E+10	1	-1E+10	1	-1E+10	1	-1E+10	1
4902549	101	C	05/31/2023	08:55	-132.947	47.324	0	70.80	0	7.6580	0	32.4070	0	25.288	0	70.198	0	276.7	4	93.9	4	-1E+10	1	-1E+10	1	-1E+10	1	-1E+10	1	-1E+10	1	-1E+10	1
4902549	101	C	05/31/2023	08:55	-132.947	47.324	0	71.80	0	7.6440	0	32.4070	0	25.290	0	71.190	0	276.5	4	93.8	4	-1E+10	1	-1E+10	1	-1E+10	1	-1E+10	1	-1E+10	1	-1E+10	1
4902549	101	C	05/31/2023	08:55	-132.947	47.324	0	72.80	0	7.6160	0	32.4070	0	25.294	0	72.181	0	276.4	4	93.7	4	-1E+10	1	-1E+10	1	-1E+10	1	-1E+10	1	-1E+10	1	-1E+10	1
4902549	101	C	05/31/2023	08:55	-132.947	47.324	0	73.80	0	7.5920	0	32.4040	0	25.295	0	73.172	0	276.3	4	93.6	4	-1E+10	1	-1E+10	1	-1E+10	1	-1E+10	1	-1E+10	1	-1E+10	1
4902549	101	C	05/31/2023	08:55	-132.947	47.324	0	74.80	0	7.5910	0	32.4030	0	25.294	0	74.163	0	276.1	4	93.6	4	-1E+10	1	-1E+10	1	-1E+10	1	-1E+10	1	-1E+10	1	-1E+10	1
4902549	101	C	05/31/2023	08:55	-132.947	47.324	0	75.80	0	7.5840	0	32.4030	0	25.295	0	75.155	0	275.8	4	93.5	4	-1E+10	1	-1E+10	1	-1E+10	1	-1E+10	1	-1E+10	1	-1E+10	1
4902549	101	C	05/31/2023	08:55	-132.947	47.324	0	76.90	0	7.5580	0	32.4000	0	25.296	0	76.245	0	275.8	4	93.4	4	-1E+10	1	-1E+10	1	-1E+10	1	-1E+10	1	-1E+10	1	-1E+10	1
4902549	101	C	05/31/2023	08:55	-132.947	47.324	0	77.90	0	7.5380	0	32.4000	0	25.299	0	77.237	0	275.5	4	93.3	4	-1E+10	1	-1E+10	1	-1E+10	1	-1E+10	1	-1E+10	1	-1E+10	1
4902549	101	C	05/31/2023	08:55	-132.947	47.324	0	78.90	0	7.4910	0	32.3920	0	25.299	0	78.228	0	275.5	4	93.1	4	-1E+10	1	-1E+10	1	-1E+10	1	-1E+10	1	-1E+10	1	-1E+10	1
4902549	101	C	05/31/2023	08:55	-132.947	47.324	0	79.90	0	7.4880	0	32.3920	0	25.300	0	79.219	0	275.0	4	93.0	4	-1E+10	1	-1E+10	1	-1E+10	1	-1E+10	1	-1E+10	1	-1E+10	1
4902549	101	C	05/31/2023	08:55	-132.947	47.324	0	80.80	0	7.4400	0	32.3910	0	25.306	0	80.111	0	274.7	4	92.8	4	-1E+10	1	-1E+10	1	-1E+10	1	-1E+10	1	-1E+10	1	-1E+10	1
4902549	101	C	05/31/2023	08:55	-132.947	47.324	0	81.80	0	7.4200	0	32.3870	0	25.305	0	81.103	0	274.3	4	92.6	4	-1E+10	1	-1E+10	1	-1E+10	1	-1E+10	1	-1E+10	1	-1E+10	1
4902549	101	C	05/31/2023	08:55	-132.947	47.324	0	83.10	0	7.4230	0	32.3890	0	25.306	0	82.391	0	280.5	4	94.7	4	-1E+10	1	-1E+10	1	-1E+10	1	-1E+10	1	-1E+10	1	-1E+10	1
4902549	101	C	05/31/2023	08:55	-132.947	47.324	0	84.00	0	7.4080	0	32.3900	0	25.309	0	83.283	0	279.9	4	94.4	4	-1E+10	1	-1E+10	1	-1E+10	1	-1E+10	1	-1E+10	1	-1E+10	1
4902549	101	C	05/31/2023	08:55	-132.947	47.324	0	84.90	0	7.4070	0	32.3880	0	25.308	0	84.175	0	279.1	4	94.2	4	-1E+10	1	-1E+10	1	-1E+10	1	-1E+10	1	-1E+10	1	-1E+10	1
4902549	101	C	05/31/2023	08:55	-132.947	47.324	0	86.10	0	7.4020	0	32.3880	0	25.309	0	85.365	0	277.9	4	93.8	4	-1E+10	1	-1E+10	1	-1E+10	1	-1E+10	1	-1E+10	1	-1E+10	1
4902549	101	C	05/31/2023	08:55	-132.947	47.324	0	86.90	0	7.3940	0	32.3890	0	25.311	0	86.158	0	276.9	4	93.4	4	-1E+10	1	-1E+10	1	-1E+10	1	-1E+10	1	-1E+10	1	-1E+10	1
4902549	101	C	05/31/2023	08:55	-132.947	47.324	0	87.80	0	7.4230	0	32.3970	0	25.313	0	87.050	0	275.6	4	93.0	4	-1E+10	1	-1E+10	1	-1E+10	1	-1E+10	1	-1E+10	1	-1E+10	1
4902549	101	C	05/31/2023	08:55	-132.947	47.324	0	88.90	0	7.5170	0	32.4180	0	25.316	0	88.140	0	273.7	4	92.6	4	-1E+10	1	-1E+10	1	-1E+10	1	-1E+10	1	-1E+10	1	-1E+10	1
4902549	101	C	05/31/2023	08:55	-132.947	47.324	0	90.00	0	7.5770	0	32.4290	0	25.317	0	89.231	0	272.1	4	92.2	4	-1E+10	1	-1E+10	1	-1E+10	1	-1E+10	1	-1E+10	1	-1E+10	1
4902549	101	C	05/31/2023	08:55	-132.947	47.324	0	91.10	0	7.5240	0	32.4290	0	25.324	0	90.321	0	271.1	4	91.7	4	-1E+10	1	-1E+10	1	-1E+10	1	-1E+10	1	-1E+10	1	-1E+10	1
4902549	101	C	05/31/2023	08:55	-132.947	47.324	0	91.90	0	7.4580	0	32.4310	0	25.335	0	91.114	0	270.3	4	91.4	4	-1E+10	1	-1E+10	1	-1E+10	1	-1E+10	1	-1E+10	1	-1E+10	1
4902549	101	C	05/31/2023	08:55	-132.947	47.324	0	92.70	0	7.5400	0	32.4450	0	25.334	0	91.907	0	268.6	4	90.9	4	-1E+10	1	-1E+10	1	-1E+10	1	-1E+10	1	-1E+10	1	-1E+10	1
4902549	101	C	05/31/2023	08:55	-132.947	47.324	0	93.80	0	7.5340	0	32.4430	0	25.334	0	92.998	0	267.2	4	90.5	4	-1E+10	1	-1E+10	1	-1E+10	1	-1E+10	1	-1E+10	1	-1E+10	1
4902549	101	C	05/31/2023	08:55	-132.947	47.324	0	94.80	0	7.5200	0	32.4570	0	25.347	0	93.989	0	265.2	4	89.8	4	-1E+10	1	-1E+10	1	-1E+10	1	-1E+10	1	-1E+10	1	-1E+10	1
4902549	101	C	05/31/2023	08:55	-132.947	47.324	0	95.80	0	7.4370	0	32.4570	0	25.358	0	94.980	0	263.4	4	89.0	4	-1E+10	1	-1E+10	1	-1E+10	1	-1E+10	1	-1E+10	1	-1E+10	1
4902549	101	C	05/31/2023	08:55	-132.947	47.324	0	96.80	0	7.4010	0	32.4670	0	25.371	0	95.971	0	260.6	4	88.0	4	-1E+10	1	-1E+10	1	-1E+10	1	-1E+10	1	-1E+10	1	-1E+10	1
4902549	101	C	05/31/2023	08:55	-132.947	47.324	0	97.90	0	7.3640	0	32.4830	0	25.389	0	97.061	0	257.0	4	86.7	4	-1E+10	1	-1E+10	1	-1E+10	1	-1E+10	1	-1E+10	1	-1E+10	1
4902549	101	C	05/31/2023	08:55	-132.947	47.324	0	99.00	0	7.2030	0	32.5010	0	25.425	0	98.152	0	253.9	4	85.4	4	-1E+10	1	-1E+10	1	-1E+10	1	-1E+10	1	-1E+10	1	-1E+10	1
4902549	101	C	05/31/2023	08:55	-132.947	47.324	0	100.00	0	7.1500	0	32.5460	0	25.467	0	99.143	0	250.6	4	84.2	4	-1E+10	1	-1E+10	1	-1E+10	1	-1E+10	1	-1E+10	1	-1E+10	1
4902549	101	C	05/31/2023	08:55	-132.947	47.324	0	101.20	0	7.1880	0	32.6420	0	25.538	0	100.332	0	246.8	4	83.0	4	-1E+10	1	-1E+10	1	-1E+10	1	-1E+10	1	-1E+10	1	-1E+10	1
4902549	101	C	05/31/2023	08:55	-132.947	47.324	0	101.80	0	7.1920	0	32.6590	0	25.551	0	100.927	0	245.0	4	82.4	4	-1E+10	1	-1E+10	1	-1E+10	1	-1E+10	1	-1E+10	1	-1E+10	1
4902549	101	C	05/31/2023	08:55	-132.947	47.324	0	102.90	0	7.1990	0	32.6830	0	25.569	0	102.017	0	242.5	4	81.6	4	-1E+10	1	-1E+10	1	-1E+10	1	-1E+10	1	-1E+10	1	-1E+10	1
4902549	101	C	05/31/2023	08:55	-132.947	47.324	0	104.20	0	7.1980	0	32.7040	0	25.585	0	103.306	0	239.0	4	80.4	4	-1E+10	1	-1E+10	1	-1E+10	1	-1E+10	1	-1E+10	1	-1E+10	1
4902549	101	C	05/31/2023	08:55	-132.947	47.324	0	104.80	0	7.1720	0	32.7350	0	25.613	0	103.901	0	237.2	4	79.8	4	-1E+10	1	-1E+10	1	-1E+10	1	-1E+10	1	-1E+10	1	-1E+10	1
4902549	101	C	05/31/2023	08:55	-132.947	47.324	0	106.10	0	7.2100	0	32.8120	0	25.669	0	105.189	0	233.7	4	78.8	4	-1E+10	1	-1E+10	1	-1E+10	1	-1E+10	1	-1E+10	1	-1E+10	1
4902549	101	C	05/31/2023	08:55	-132.947	47.324	0	107.00	0	7.1380	0	32.8690	0	25.723	0	106.081	0	232.0	4	78.1	4	-1E+10	1	-1E+10	1	-1E+10	1	-1E+10	1	-1E+10	1	-1E+10	1
4902549	101	C	05/31/2023	08:55	-132.947	47.324	0	108.10	0	7.0760	0	32.9120	0	25.766	0	107.171	0	230.1	4	77.3	4	-1E+10	1	-1E+10	1	-1E+10	1	-1E+10	1	-1E+10	1	-1E+10	1
4902549	101	C	05/31/2023	08:55	-132.947	47.324	0	109.00	0	7.0300	0	32.9470	0	25.799	0	108.064	0	228.8	4	76.8	4	-1E+10	1	-1E+10	1	-1E+10	1	-1E+10	1	-1E+10	1	-1E+10	1
4902549	101	C	05/31/2023	08:55	-132.947	47.324	0	109.90	0	7.0060	0	32.9630	0	25.815	0	108.956	0	227.0	4	76.2	4	-1E+10	1	-1E+10	1	-1E+10	1	-1E+10	1	-1E+10	1	-1E+10	1
4902549	101	C	05/31/2023	08:55	-132.947	47.324	0	110.90	0	6.9860	0	32.9760	0	25.828	0	109.947	0	224.7	4	75.4	4	-1E+10	1	-1E+10	1	-1E+10	1	-1E+10	1	-1E+10	1	-1E+10	1
4902549	101	C	05/31/2023	08:55	-132.947	47.324	0	111.90	0	6.9950	0	32.9830	0	25.832	0	110.938	0	222.2	4	74.6	4	-1E+10	1	-1E+10	1	-1E+10	1	-1E+10	1	-1E+10	1	-1E+10	1
4902549	101	C	05/31/2023	08:55	-132.947	47.324	0	112.80	0	6.9970	0	32.9930	0	25.840	0	111.830	0	219.1	4	73.6	4	-1E+10	1	-1E+10	1	-1E+10	1	-1E+10	1	-1E+10	1	-1E+10	1
4902549	101	C	05/31/2023	08:55	-132.947	47.324	0	113.80	0	7.0070	0	33.0180	0	25.858	0	112.821	0	216.0	4	72.6	4	-1E+10	1	-1E+10	1	-1E+10	1	-1E+10	1	-1E+10	1	-1E+10	1
4902549	101	C	05/31/2023	08:55	-132.947	47.324	0	115.00	0	7.0180	0	33.0800	0	25.906	0	114.010	0	212.4	4	71.4	4	-1E+10	1	-1E+10	1	-1E+10	1	-1E+10	1	-1E+10	1	-1E+10	1
4902549	101	C	05/31/2023	08:55	-132.947	47.324	0	116.10	0	7.0120	0	33.1340	0	25.949	0	115.101	0	210.4	4	70.7	4	-1E+10	1	-1E+10	1	-1E+10	1	-1E+10	1	-1E+10	1	-1E+10	1
4902549	101	C	05/31/2023	08:55	-132.947	47.324	0	117.00	0	7.0030	0	33.1470	0	25.960	0	115.993	0	208.6	4	70.1	4	-1E+10	1	-1E+10	1	-1E+10	1	-1E+10	1	-1E+10	1	-1E+10	1
4902549	101	C	05/31/2023	08:55	-132.947	47.324	0	118.00	0	6.9690	0	33.1900	0	25.999	0	116.984	0	207.0	4	69.6	4	-1E+10	1	-1E+10	1	-1E+10	1	-1E+10	1	-1E+10	1	-1E+10	1
4902549	101	C	05/31/2023	08:55	-132.947	47.324	0	119.00	0	6.9490	0	33.2210	0	26.026	0	117.975	0	205.5	4	69.0	4	-1E+10	1	-1E+10	1	-1E+10	1	-1E+10	1	-1E+10	1	-1E+10	1
4902549	101	C	05/31/2023	08:55	-132.947	47.324	0	119.90	0	6.9190	0	33.2530	0	26.055	0	118.867	0	204.4	4	68.6	4	-1E+10	1	-1E+10	1	-1E+10	1	-1E+10	1	-1E+10	1	-1E+10	1
4902549	101	C	05/31/2023	08:55	-132.947	47.324	0	120.70	0	6.8890	0	33.2880	0	26.087	0	119.660	0	203.1	4	68.2	4	-1E+10	1	-1E+10	1	-1E+10	1	-1E+10	1	-1E+10	1	-1E+10	1
4902549	101	C	05/31/2023	08:55	-132.947	47.324	0	121.90	0	6.8520	0	33.3150	0	26.113	0	120.849	0	201.3	4	67.5	4	-1E+10	1	-1E+10	1	-1E+10	1	-1E+10	1	-1E+10	1	-1E+10	1
4902549	101	C	05/31/2023	08:55	-132.947	47.324	0	122.90	0	6.8340	0	33.3810	0	26.168	0	121.840	0	200.1	4	67.1	4	-1E+10	1	-1E+10	1	-1E+10	1	-1E+10	1	-1E+10	1	-1E+10	1
4902549	101	C	05/31/2023	08:55	-132.947	47.324	0	123.90	0	6.8150	0	33.4080	0	26.191	0	122.831	0	199.3	4	66.8	4	-1E+10	1	-1E+10	1	-1E+10	1	-1E+10	1	-1E+10	1	-1E+10	1
4902549	101	C	05/31/2023	08:55	-132.947	47.324	0	125.00	0	6.7930	0	33.4330	0	26.214	0	123.921	0	198.6	4	66.6	4	-1E+10	1	-1E+10	1	-1E+10	1	-1E+10	1	-1E+10	1	-1E+10	1
4902549	101	C	05/31/2023	08:55	-132.947	47.324	0	126.00	0	6.7800	0	33.4450	0	26.225	0	124.912	0	198.0	4	66.4	4	-1E+10	1	-1E+10	1	-1E+10	1	-1E+10	1	-1E+10	1	-1E+10	1
4902549	101	C	05/31/2023	08:55	-132.947	47.324	0	127.10	0	6.7790	0	33.4470	0	26.227	0	126.002	0	197.4	4	66.2	4	-1E+10	1	-1E+10	1	-1E+10	1	-1E+10	1	-1E+10	1	-1E+10	1
4902549	101	C	05/31/2023	08:55	-132.947	47.324	0	127.80	0	6.7710	0	33.4540	0	26.234	0	126.696	0	196.8	4	66.0	4	-1E+10	1	-1E+10	1	-1E+10	1	-1E+10	1	-1E+10	1	-1E+10	1
4902549	101	C	05/31/2023	08:55	-132.947	47.324	0	129.00	0	6.7550	0	33.4710	0	26.249	0	127.885	0	196.1	4	65.7	4	-1E+10	1	-1E+10	1	-1E+10	1	-1E+10	1	-1E+10	1	-1E+10	1
4902549	101	C	05/31/2023	08:55	-132.947	47.324	0	130.20	0	6.7450	0	33.4840	0	26.261	0	129.075	0	195.6	4	65.5	4	-1E+10	1	-1E+10	1	-1E+10	1	-1E+10	1	-1E+10	1	-1E+10	1
4902549	101	C	05/31/2023	08:55	-132.947	47.324	0	131.00	0	6.7430	0	33.4860	0	26.262	0	129.868	0	195.4	4	65.5	4	-1E+10	1	-1E+10	1	-1E+10	1	-1E+10	1	-1E+10	1	-1E+10	1
4902549	101	C	05/31/2023	08:55	-132.947	47.324	0	131.80	0	6.7390	0	33.4910	0	26.267	0	130.660	0	194.9	4	65.3	4	-1E+10	1	-1E+10	1	-1E+10	1	-1E+10	1	-1E+10	1	-1E+10	1
4902549	101	C	05/31/2023	08:55	-132.947	47.324	0	133.00	0	6.7360	0	33.4930	0	26.269	0	131.850	0	194.3	4	65.1	4	-1E+10	1	-1E+10	1	-1E+10	1	-1E+10	1	-1E+10	1	-1E+10	1
4902549	101	C	05/31/2023	08:55	-132.947	47.324	0	134.20	0	6.7320	0	33.4980	0	26.273	0	133.039	0	193.7	4	64.9	4	-1E+10	1	-1E+10	1	-1E+10	1	-1E+10	1	-1E+10	1	-1E+10	1
4902549	101	C	05/31/2023	08:55	-132.947	47.324	0	135.00	0	6.7300	0	33.5010	0	26.276	0	133.832	0	193.2	4	64.7	4	-1E+10	1	-1E+10	1	-1E+10	1	-1E+10	1	-1E+10	1	-1E+10	1
4902549	101	C	05/31/2023	08:55	-132.947	47.324	0	135.80	0	6.7270	0	33.5040	0	26.279	0	134.625	0	192.6	4	64.5	4	-1E+10	1	-1E+10	1	-1E+10	1	-1E+10	1	-1E+10	1	-1E+10	1
4902549	101	C	05/31/2023	08:55	-132.947	47.324	0	137.00	0	6.7240	0	33.5090	0	26.283	0	135.814	0	191.6	4	64.2	4	-1E+10	1	-1E+10	1	-1E+10	1	-1E+10	1	-1E+10	1	-1E+10	1
4902549	101	C	05/31/2023	08:55	-132.947	47.324	0	138.20	0	6.7240	0	33.5110	0	26.285	0	137.003	0	190.4	4	63.8	4	-1E+10	1	-1E+10	1	-1E+10	1	-1E+10	1	-1E+10	1	-1E+10	1
4902549	101	C	05/31/2023	08:55	-132.947	47.324	0	139.00	0	6.7210	0	33.5230	0	26.295	0	137.796	0	189.6	4	63.5	4	-1E+10	1	-1E+10	1	-1E+10	1	-1E+10	1	-1E+10	1	-1E+10	1
4902549	101	C	05/31/2023	08:55	-132.947	47.324	0	139.90	0	6.7130	0	33.5290	0	26.300	0	138.688	0	188.8	4	63.2	4	-1E+10	1	-1E+10	1	-1E+10	1	-1E+10	1	-1E+10	1	-1E+10	1
4902549	101	C	05/31/2023	08:55	-132.947	47.324	0	140.70	0	6.7020	0	33.5440	0	26.314	0	139.480	0	188.0	4	63.0	4	-1E+10	1	-1E+10	1	-1E+10	1	-1E+10	1	-1E+10	1	-1E+10	1
4902549	101	C	05/31/2023	08:55	-132.947	47.324	0	141.90	0	6.6970	0	33.5540	0	26.322	0	140.670	0	186.9	4	62.6	4	-1E+10	1	-1E+10	1	-1E+10	1	-1E+10	1	-1E+10	1	-1E+10	1
4902549	101	C	05/31/2023	08:55	-132.947	47.324	0	143.20	0	6.6950	0	33.5690	0	26.334	0	141.958	0	185.5	4	62.1	4	-1E+10	1	-1E+10	1	-1E+10	1	-1E+10	1	-1E+10	1	-1E+10	1
4902549	101	C	05/31/2023	08:55	-132.947	47.324	0	144.00	0	6.6700	0	33.5860	0	26.351	0	142.751	0	184.7	4	61.8	4	-1E+10	1	-1E+10	1	-1E+10	1	-1E+10	1	-1E+10	1	-1E+10	1
4902549	101	C	05/31/2023	08:55	-132.947	47.324	0	144.90	0	6.6610	0	33.5900	0	26.355	0	143.643	0	184.1	4	61.6	4	-1E+10	1	-1E+10	1	-1E+10	1	-1E+10	1	-1E+10	1	-1E+10	1
4902549	101	C	05/31/2023	08:55	-132.947	47.324	0	145.70	0	6.6610	0	33.5920	0	26.357	0	144.435	0	183.3	4	61.3	4	-1E+10	1	-1E+10	1	-1E+10	1	-1E+10	1	-1E+10	1	-1E+10	1
4902549	101	C	05/31/2023	08:55	-132.947	47.324	0	146.90	0	6.6470	0	33.6210	0	26.382	0	145.625	0	182.3	4	61.0	4	-1E+10	1	-1E+10	1	-1E+10	1	-1E+10	1	-1E+10	1	-1E+10	1
4902549	101	C	05/31/2023	08:55	-132.947	47.324	0	148.30	0	6.6300	0	33.6310	0	26.392	0	147.012	0	181.4	4	60.7	4	-1E+10	1	-1E+10	1	-1E+10	1	-1E+10	1	-1E+10	1	-1E+10	1
4902549	101	C	05/31/2023	08:55	-132.947	47.324	0	149.20	0	6.6350	0	33.6380	0	26.397	0	147.904	0	180.7	4	60.5	4	-1E+10	1	-1E+10	1	-1E+10	1	-1E+10	1	-1E+10	1	-1E+10	1
4902549	101	C	05/31/2023	08:55	-132.947	47.324	0	150.10	0	6.6310	0	33.6490	0	26.406	0	148.796	0	179.8	4	60.2	4	-1E+10	1	-1E+10	1	-1E+10	1	-1E+10	1	-1E+10	1	-1E+10	1
4902549	101	C	05/31/2023	08:55	-132.947	47.324	0	151.00	0	6.6250	0	33.6530	0	26.410	0	149.687	0	179.0	4	59.9	4	-1E+10	1	-1E+10	1	-1E+10	1	-1E+10	1	-1E+10	1	-1E+10	1
4902549	101	C	05/31/2023	08:55	-132.947	47.324	0	151.90	0	6.6160	0	33.6590	0	26.416	0	150.579	0	178.2	4	59.6	4	-1E+10	1	-1E+10	1	-1E+10	1	-1E+10	1	-1E+10	1	-1E+10	1
4902549	101	C	05/31/2023	08:55	-132.947	47.324	0	152.80	0	6.6130	0	33.6660	0	26.422	0	151.471	0	177.3	4	59.3	4	-1E+10	1	-1E+10	1	-1E+10	1	-1E+10	1	-1E+10	1	-1E+10	1
4902549	101	C	05/31/2023	08:55	-132.947	47.324	0	153.70	0	6.6110	0	33.6700	0	26.425	0	152.363	0	176.3	4	59.0	4	-1E+10	1	-1E+10	1	-1E+10	1	-1E+10	1	-1E+10	1	-1E+10	1
4902549	101	C	05/31/2023	08:55	-132.947	47.324	0	154.60	0	6.6050	0	33.6670	0	26.424	0	153.255	0	175.3	4	58.6	4	-1E+10	1	-1E+10	1	-1E+10	1	-1E+10	1	-1E+10	1	-1E+10	1
4902549	101	C	05/31/2023	08:55	-132.947	47.324	0	155.90	0	6.5980	0	33.6720	0	26.429	0	154.543	0	173.5	4	58.0	4	-1E+10	1	-1E+10	1	-1E+10	1	-1E+10	1	-1E+10	1	-1E+10	1
4902549	101	C	05/31/2023	08:55	-132.947	47.324	0	157.30	0	6.6060	0	33.6830	0	26.436	0	155.930	0	171.5	4	57.4	4	-1E+10	1	-1E+10	1	-1E+10	1	-1E+10	1	-1E+10	1	-1E+10	1
4902549	101	C	05/31/2023	08:55	-132.947	47.324	0	158.30	0	6.5580	0	33.6940	0	26.451	0	156.921	0	170.5	4	57.0	4	-1E+10	1	-1E+10	1	-1E+10	1	-1E+10	1	-1E+10	1	-1E+10	1
4902549	101	C	05/31/2023	08:55	-132.947	47.324	0	159.20	0	6.5310	0	33.6980	0	26.458	0	157.813	0	169.6	4	56.6	4	-1E+10	1	-1E+10	1	-1E+10	1	-1E+10	1	-1E+10	1	-1E+10	1
4902549	101	C	05/31/2023	08:55	-132.947	47.324	0	160.10	0	6.5140	0	33.7010	0	26.462	0	158.705	0	168.5	4	56.3	4	-1E+10	1	-1E+10	1	-1E+10	1	-1E+10	1	-1E+10	1	-1E+10	1
4902549	101	C	05/31/2023	08:55	-132.947	47.324	0	161.00	0	6.5000	0	33.7060	0	26.468	0	159.597	0	167.4	4	55.9	4	-1E+10	1	-1E+10	1	-1E+10	1	-1E+10	1	-1E+10	1	-1E+10	1
4902549	101	C	05/31/2023	08:55	-132.947	47.324	0	162.00	0	6.4810	0	33.7140	0	26.477	0	160.588	0	166.4	4	55.5	4	-1E+10	1	-1E+10	1	-1E+10	1	-1E+10	1	-1E+10	1	-1E+10	1
4902549	101	C	05/31/2023	08:55	-132.947	47.324	0	162.90	0	6.4560	0	33.7200	0	26.485	0	161.479	0	165.7	4	55.2	4	-1E+10	1	-1E+10	1	-1E+10	1	-1E+10	1	-1E+10	1	-1E+10	1
4902549	101	C	05/31/2023	08:55	-132.947	47.324	0	163.80	0	6.4320	0	33.7280	0	26.494	0	162.371	0	165.0	4	55.0	4	-1E+10	1	-1E+10	1	-1E+10	1	-1E+10	1	-1E+10	1	-1E+10	1
4902549	101	C	05/31/2023	08:55	-132.947	47.324	0	164.80	0	6.4110	0	33.7280	0	26.497	0	163.362	0	164.6	4	54.8	4	-1E+10	1	-1E+10	1	-1E+10	1	-1E+10	1	-1E+10	1	-1E+10	1
4902549	101	C	05/31/2023	08:55	-132.947	47.324	0	165.70	0	6.4050	0	33.7300	0	26.500	0	164.254	0	164.1	4	54.7	4	-1E+10	1	-1E+10	1	-1E+10	1	-1E+10	1	-1E+10	1	-1E+10	1
4902549	101	C	05/31/2023	08:55	-132.947	47.324	0	166.60	0	6.3900	0	33.7330	0	26.504	0	165.146	0	163.7	4	54.5	4	-1E+10	1	-1E+10	1	-1E+10	1	-1E+10	1	-1E+10	1	-1E+10	1
4902549	101	C	05/31/2023	08:55	-132.947	47.324	0	167.60	0	6.3860	0	33.7330	0	26.504	0	166.136	0	163.3	4	54.4	4	-1E+10	1	-1E+10	1	-1E+10	1	-1E+10	1	-1E+10	1	-1E+10	1
4902549	101	C	05/31/2023	08:55	-132.947	47.324	0	168.90	0	6.3820	0	33.7340	0	26.506	0	167.425	0	162.5	4	54.1	4	-1E+10	1	-1E+10	1	-1E+10	1	-1E+10	1	-1E+10	1	-1E+10	1
4902549	101	C	05/31/2023	08:55	-132.947	47.324	0	170.30	0	6.3690	0	33.7370	0	26.510	0	168.812	0	161.8	4	53.8	4	-1E+10	1	-1E+10	1	-1E+10	1	-1E+10	1	-1E+10	1	-1E+10	1
4902549	101	C	05/31/2023	08:55	-132.947	47.324	0	171.30	0	6.3610	0	33.7370	0	26.511	0	169.803	0	161.2	4	53.6	4	-1E+10	1	-1E+10	1	-1E+10	1	-1E+10	1	-1E+10	1	-1E+10	1
4902549	101	C	05/31/2023	08:55	-132.947	47.324	0	172.20	0	6.3390	0	33.7420	0	26.518	0	170.694	0	160.7	4	53.4	4	-1E+10	1	-1E+10	1	-1E+10	1	-1E+10	1	-1E+10	1	-1E+10	1
4902549	101	C	05/31/2023	08:55	-132.947	47.324	0	173.10	0	6.3300	0	33.7420	0	26.519	0	171.586	0	160.2	4	53.3	4	-1E+10	1	-1E+10	1	-1E+10	1	-1E+10	1	-1E+10	1	-1E+10	1
4902549	101	C	05/31/2023	08:55	-132.947	47.324	0	174.00	0	6.3120	0	33.7460	0	26.524	0	172.478	0	159.8	4	53.1	4	-1E+10	1	-1E+10	1	-1E+10	1	-1E+10	1	-1E+10	1	-1E+10	1
4902549	101	C	05/31/2023	08:55	-132.947	47.324	0	175.00	0	6.3020	0	33.7470	0	26.526	0	173.469	0	159.4	4	53.0	4	-1E+10	1	-1E+10	1	-1E+10	1	-1E+10	1	-1E+10	1	-1E+10	1
4902549	101	C	05/31/2023	08:55	-132.947	47.324	0	175.90	0	6.2980	0	33.7480	0	26.528	0	174.360	0	158.9	4	52.8	4	-1E+10	1	-1E+10	1	-1E+10	1	-1E+10	1	-1E+10	1	-1E+10	1
4902549	101	C	05/31/2023	08:55	-132.947	47.324	0	176.90	0	6.2930	0	33.7490	0	26.529	0	175.351	0	158.4	4	52.6	4	-1E+10	1	-1E+10	1	-1E+10	1	-1E+10	1	-1E+10	1	-1E+10	1
4902549	101	C	05/31/2023	08:55	-132.947	47.324	0	177.80	0	6.2860	0	33.7490	0	26.530	0	176.243	0	157.9	4	52.5	4	-1E+10	1	-1E+10	1	-1E+10	1	-1E+10	1	-1E+10	1	-1E+10	1
4902549	101	C	05/31/2023	08:55	-132.947	47.324	0	178.70	0	6.2740	0	33.7500	0	26.532	0	177.135	0	157.5	4	52.3	4	-1E+10	1	-1E+10	1	-1E+10	1	-1E+10	1	-1E+10	1	-1E+10	1
4902549	101	C	05/31/2023	08:55	-132.947	47.324	0	179.70	0	6.2630	0	33.7510	0	26.535	0	178.126	0	157.2	4	52.2	4	-1E+10	1	-1E+10	1	-1E+10	1	-1E+10	1	-1E+10	1	-1E+10	1
4902549	101	C	05/31/2023	08:55	-132.947	47.324	0	180.60	0	6.2500	0	33.7530	0	26.538	0	179.017	0	156.7	4	52.0	4	-1E+10	1	-1E+10	1	-1E+10	1	-1E+10	1	-1E+10	1	-1E+10	1
4902549	101	C	05/31/2023	08:55	-132.947	47.324	0	181.50	0	6.2430	0	33.7550	0	26.540	0	179.909	0	156.3	4	51.9	4	-1E+10	1	-1E+10	1	-1E+10	1	-1E+10	1	-1E+10	1	-1E+10	1
4902549	101	C	05/31/2023	08:55	-132.947	47.324	0	182.90	0	6.2370	0	33.7540	0	26.540	0	181.296	0	155.5	4	51.6	4	-1E+10	1	-1E+10	1	-1E+10	1	-1E+10	1	-1E+10	1	-1E+10	1
4902549	101	C	05/31/2023	08:55	-132.947	47.324	0	184.30	0	6.2170	0	33.7580	0	26.546	0	182.683	0	154.8	4	51.3	4	-1E+10	1	-1E+10	1	-1E+10	1	-1E+10	1	-1E+10	1	-1E+10	1
4902549	101	C	05/31/2023	08:55	-132.947	47.324	0	185.30	0	6.2110	0	33.7570	0	26.546	0	183.674	0	154.3	4	51.2	4	-1E+10	1	-1E+10	1	-1E+10	1	-1E+10	1	-1E+10	1	-1E+10	1
4902549	101	C	05/31/2023	08:55	-132.947	47.324	0	186.20	0	6.1900	0	33.7580	0	26.549	0	184.566	0	153.8	4	51.0	4	-1E+10	1	-1E+10	1	-1E+10	1	-1E+10	1	-1E+10	1	-1E+10	1
4902549	101	C	05/31/2023	08:55	-132.947	47.324	0	187.20	0	6.1840	0	33.7580	0	26.550	0	185.557	0	153.5	4	50.9	4	-1E+10	1	-1E+10	1	-1E+10	1	-1E+10	1	-1E+10	1	-1E+10	1
4902549	101	C	05/31/2023	08:55	-132.947	47.324	0	188.20	0	6.1830	0	33.7580	0	26.550	0	186.547	0	153.0	4	50.7	4	-1E+10	1	-1E+10	1	-1E+10	1	-1E+10	1	-1E+10	1	-1E+10	1
4902549	101	C	05/31/2023	08:55	-132.947	47.324	0	189.20	0	6.1790	0	33.7580	0	26.551	0	187.538	0	152.5	4	50.5	4	-1E+10	1	-1E+10	1	-1E+10	1	-1E+10	1	-1E+10	1	-1E+10	1
4902549	101	C	05/31/2023	08:55	-132.947	47.324	0	190.20	0	6.1720	0	33.7590	0	26.553	0	188.529	0	152.0	4	50.4	4	-1E+10	1	-1E+10	1	-1E+10	1	-1E+10	1	-1E+10	1	-1E+10	1
4902549	101	C	05/31/2023	08:55	-132.947	47.324	0	191.10	0	6.1640	0	33.7590	0	26.554	0	189.420	0	151.4	4	50.1	4	-1E+10	1	-1E+10	1	-1E+10	1	-1E+10	1	-1E+10	1	-1E+10	1
4902549	101	C	05/31/2023	08:55	-132.947	47.324	0	192.10	0	6.1600	0	33.7590	0	26.554	0	190.411	0	150.8	4	50.0	4	-1E+10	1	-1E+10	1	-1E+10	1	-1E+10	1	-1E+10	1	-1E+10	1
4902549	101	C	05/31/2023	08:55	-132.947	47.324	0	193.10	0	6.1600	0	33.7580	0	26.553	0	191.402	0	150.2	4	49.7	4	-1E+10	1	-1E+10	1	-1E+10	1	-1E+10	1	-1E+10	1	-1E+10	1
4902549	101	C	05/31/2023	08:55	-132.947	47.324	0	194.00	0	6.1370	0	33.7620	0	26.559	0	192.294	0	149.6	4	49.5	4	-1E+10	1	-1E+10	1	-1E+10	1	-1E+10	1	-1E+10	1	-1E+10	1
4902549	101	C	05/31/2023	08:55	-132.947	47.324	0	195.00	0	6.1250	0	33.7610	0	26.560	0	193.284	0	149.2	4	49.4	4	-1E+10	1	-1E+10	1	-1E+10	1	-1E+10	1	-1E+10	1	-1E+10	1
4902549	101	C	05/31/2023	08:55	-132.947	47.324	0	195.90	0	6.1180	0	33.7610	0	26.561	0	194.176	0	148.6	4	49.2	4	-1E+10	1	-1E+10	1	-1E+10	1	-1E+10	1	-1E+10	1	-1E+10	1
4902549	101	C	05/31/2023	08:55	-132.947	47.324	0	196.90	0	6.0910	0	33.7640	0	26.567	0	195.167	0	148.2	4	49.0	4	-1E+10	1	-1E+10	1	-1E+10	1	-1E+10	1	-1E+10	1	-1E+10	1
4902549	101	C	05/31/2023	08:55	-132.947	47.324	0	197.90	0	6.0820	0	33.7640	0	26.568	0	196.157	0	147.8	4	48.9	4	-1E+10	1	-1E+10	1	-1E+10	1	-1E+10	1	-1E+10	1	-1E+10	1
4902549	101	C	05/31/2023	08:55	-132.947	47.324	0	198.80	0	6.0750	0	33.7640	0	26.569	0	197.049	0	147.3	4	48.7	4	-1E+10	1	-1E+10	1	-1E+10	1	-1E+10	1	-1E+10	1	-1E+10	1
4902549	101	C	05/31/2023	08:55	-132.947	47.324	0	199.80	0	6.0650	0	33.7650	0	26.571	0	198.040	0	146.8	4	48.5	4	-1E+10	1	-1E+10	1	-1E+10	1	-1E+10	1	-1E+10	1	-1E+10	1
4902549	101	C	05/31/2023	08:55	-132.947	47.324	0	200.80	0	6.0540	0	33.7650	0	26.572	0	199.031	0	146.4	4	48.4	4	-1E+10	1	-1E+10	1	-1E+10	1	-1E+10	1	-1E+10	1	-1E+10	1
4902549	101	C	05/31/2023	08:55	-132.947	47.324	0	201.70	0	6.0530	0	33.7640	0	26.572	0	199.922	0	145.8	4	48.2	4	-1E+10	1	-1E+10	1	-1E+10	1	-1E+10	1	-1E+10	1	-1E+10	1
4902549	101	C	05/31/2023	08:55	-132.947	47.324	0	202.70	0	6.0510	0	33.7630	0	26.571	0	200.913	0	145.2	4	48.0	4	-1E+10	1	-1E+10	1	-1E+10	1	-1E+10	1	-1E+10	1	-1E+10	1
4902549	101	C	05/31/2023	08:55	-132.947	47.324	0	203.70	0	6.0470	0	33.7630	0	26.572	0	201.904	0	144.4	4	47.7	4	-1E+10	1	-1E+10	1	-1E+10	1	-1E+10	1	-1E+10	1	-1E+10	1
4902549	101	C	05/31/2023	08:55	-132.947	47.324	0	204.70	0	6.0250	0	33.7660	0	26.577	0	202.894	0	143.7	4	47.5	4	-1E+10	1	-1E+10	1	-1E+10	1	-1E+10	1	-1E+10	1	-1E+10	1
4902549	101	C	05/31/2023	08:55	-132.947	47.324	0	205.60	0	5.9860	0	33.7680	0	26.583	0	203.786	0	143.2	4	47.2	4	-1E+10	1	-1E+10	1	-1E+10	1	-1E+10	1	-1E+10	1	-1E+10	1
4902549	101	C	05/31/2023	08:55	-132.947	47.324	0	206.60	0	5.9650	0	33.7670	0	26.585	0	204.777	0	142.8	4	47.1	4	-1E+10	1	-1E+10	1	-1E+10	1	-1E+10	1	-1E+10	1	-1E+10	1
4902549	101	C	05/31/2023	08:55	-132.947	47.324	0	207.60	0	5.9500	0	33.7680	0	26.588	0	205.767	0	142.3	4	46.9	4	-1E+10	1	-1E+10	1	-1E+10	1	-1E+10	1	-1E+10	1	-1E+10	1
4902549	101	C	05/31/2023	08:55	-132.947	47.324	0	208.60	0	5.9420	0	33.7670	0	26.588	0	206.758	0	141.9	4	46.8	4	-1E+10	1	-1E+10	1	-1E+10	1	-1E+10	1	-1E+10	1	-1E+10	1
4902549	101	C	05/31/2023	08:55	-132.947	47.324	0	209.60	0	5.9350	0	33.7670	0	26.589	0	207.749	0	141.4	4	46.6	4	-1E+10	1	-1E+10	1	-1E+10	1	-1E+10	1	-1E+10	1	-1E+10	1
4902549	101	C	05/31/2023	08:55	-132.947	47.324	0	210.60	0	5.9220	0	33.7690	0	26.592	0	208.739	0	140.9	4	46.4	4	-1E+10	1	-1E+10	1	-1E+10	1	-1E+10	1	-1E+10	1	-1E+10	1
4902549	101	C	05/31/2023	08:55	-132.947	47.324	0	211.60	0	5.9030	0	33.7700	0	26.595	0	209.730	0	140.6	4	46.3	4	-1E+10	1	-1E+10	1	-1E+10	1	-1E+10	1	-1E+10	1	-1E+10	1
4902549	101	C	05/31/2023	08:55	-132.947	47.324	0	212.60	0	5.8980	0	33.7700	0	26.596	0	210.721	0	140.1	4	46.1	4	-1E+10	1	-1E+10	1	-1E+10	1	-1E+10	1	-1E+10	1	-1E+10	1
4902549	101	C	05/31/2023	08:55	-132.947	47.324	0	213.70	0	5.8960	0	33.7700	0	26.596	0	211.810	0	139.7	4	46.0	4	-1E+10	1	-1E+10	1	-1E+10	1	-1E+10	1	-1E+10	1	-1E+10	1
4902549	101	C	05/31/2023	08:55	-132.947	47.324	0	214.70	0	5.8800	0	33.7730	0	26.600	0	212.801	0	139.3	4	45.8	4	-1E+10	1	-1E+10	1	-1E+10	1	-1E+10	1	-1E+10	1	-1E+10	1
4902549	101	C	05/31/2023	08:55	-132.947	47.324	0	215.70	0	5.8790	0	33.7710	0	26.599	0	213.792	0	138.9	4	45.7	4	-1E+10	1	-1E+10	1	-1E+10	1	-1E+10	1	-1E+10	1	-1E+10	1
4902549	101	C	05/31/2023	08:55	-132.947	47.324	0	216.70	0	5.8810	0	33.7730	0	26.600	0	214.782	0	138.4	4	45.6	4	-1E+10	1	-1E+10	1	-1E+10	1	-1E+10	1	-1E+10	1	-1E+10	1
4902549	101	C	05/31/2023	08:55	-132.947	47.324	0	217.70	0	5.8770	0	33.7730	0	26.601	0	215.773	0	137.9	4	45.4	4	-1E+10	1	-1E+10	1	-1E+10	1	-1E+10	1	-1E+10	1	-1E+10	1
4902549	101	C	05/31/2023	08:55	-132.947	47.324	0	218.80	0	5.8700	0	33.7720	0	26.601	0	216.863	0	137.3	4	45.2	4	-1E+10	1	-1E+10	1	-1E+10	1	-1E+10	1	-1E+10	1	-1E+10	1
4902549	101	C	05/31/2023	08:55	-132.947	47.324	0	219.80	0	5.8690	0	33.7720	0	26.601	0	217.853	0	136.7	4	45.0	4	-1E+10	1	-1E+10	1	-1E+10	1	-1E+10	1	-1E+10	1	-1E+10	1
4902549	101	C	05/31/2023	08:55	-132.947	47.324	0	220.80	0	5.8680	0	33.7730	0	26.602	0	218.844	0	135.8	4	44.7	4	-1E+10	1	-1E+10	1	-1E+10	1	-1E+10	1	-1E+10	1	-1E+10	1
4902549	101	C	05/31/2023	08:55	-132.947	47.324	0	221.90	0	5.8490	0	33.7730	0	26.604	0	219.933	0	135.1	4	44.4	4	-1E+10	1	-1E+10	1	-1E+10	1	-1E+10	1	-1E+10	1	-1E+10	1
4902549	101	C	05/31/2023	08:55	-132.947	47.324	0	222.90	0	5.8340	0	33.7740	0	26.607	0	220.924	0	134.4	4	44.2	4	-1E+10	1	-1E+10	1	-1E+10	1	-1E+10	1	-1E+10	1	-1E+10	1
4902549	101	C	05/31/2023	08:55	-132.947	47.324	0	224.00	0	5.8210	0	33.7740	0	26.609	0	222.014	0	133.5	4	43.9	4	-1E+10	1	-1E+10	1	-1E+10	1	-1E+10	1	-1E+10	1	-1E+10	1
4902549	101	C	05/31/2023	08:55	-132.947	47.324	0	225.00	0	5.8040	0	33.7750	0	26.611	0	223.004	0	132.8	4	43.6	4	-1E+10	1	-1E+10	1	-1E+10	1	-1E+10	1	-1E+10	1	-1E+10	1
4902549	101	C	05/31/2023	08:55	-132.947	47.324	0	226.00	0	5.7890	0	33.7770	0	26.615	0	223.995	0	132.1	4	43.4	4	-1E+10	1	-1E+10	1	-1E+10	1	-1E+10	1	-1E+10	1	-1E+10	1
4902549	101	C	05/31/2023	08:55	-132.947	47.324	0	227.10	0	5.7740	0	33.7770	0	26.617	0	225.085	0	131.4	4	43.1	4	-1E+10	1	-1E+10	1	-1E+10	1	-1E+10	1	-1E+10	1	-1E+10	1
4902549	101	C	05/31/2023	08:55	-132.947	47.324	0	228.10	0	5.7650	0	33.7780	0	26.619	0	226.075	0	130.7	4	42.9	4	-1E+10	1	-1E+10	1	-1E+10	1	-1E+10	1	-1E+10	1	-1E+10	1
4902549	101	C	05/31/2023	08:55	-132.947	47.324	0	229.10	0	5.7590	0	33.7770	0	26.619	0	227.066	0	130.0	4	42.7	4	-1E+10	1	-1E+10	1	-1E+10	1	-1E+10	1	-1E+10	1	-1E+10	1
4902549	101	C	05/31/2023	08:55	-132.947	47.324	0	230.20	0	5.7370	0	33.7790	0	26.623	0	228.155	0	129.3	4	42.4	4	-1E+10	1	-1E+10	1	-1E+10	1	-1E+10	1	-1E+10	1	-1E+10	1
4902549	101	C	05/31/2023	08:55	-132.947	47.324	0	231.20	0	5.7220	0	33.7800	0	26.625	0	229.146	0	128.6	4	42.2	4	-1E+10	1	-1E+10	1	-1E+10	1	-1E+10	1	-1E+10	1	-1E+10	1
4902549	101	C	05/31/2023	08:55	-132.947	47.324	0	232.20	0	5.7030	0	33.7810	0	26.629	0	230.136	0	127.9	4	41.9	4	-1E+10	1	-1E+10	1	-1E+10	1	-1E+10	1	-1E+10	1	-1E+10	1
4902549	101	C	05/31/2023	08:55	-132.947	47.324	0	233.30	0	5.6860	0	33.7830	0	26.632	0	231.226	0	127.2	4	41.7	4	-1E+10	1	-1E+10	1	-1E+10	1	-1E+10	1	-1E+10	1	-1E+10	1
4902549	101	C	05/31/2023	08:55	-132.947	47.324	0	234.30	0	5.6690	0	33.7820	0	26.633	0	232.217	0	126.7	4	41.5	4	-1E+10	1	-1E+10	1	-1E+10	1	-1E+10	1	-1E+10	1	-1E+10	1
4902549	101	C	05/31/2023	08:55	-132.947	47.324	0	235.40	0	5.6650	0	33.7810	0	26.633	0	233.306	0	126.0	4	41.3	4	-1E+10	1	-1E+10	1	-1E+10	1	-1E+10	1	-1E+10	1	-1E+10	1
4902549	101	C	05/31/2023	08:55	-132.947	47.324	0	236.40	0	5.6580	0	33.7810	0	26.634	0	234.297	0	125.3	4	41.0	4	-1E+10	1	-1E+10	1	-1E+10	1	-1E+10	1	-1E+10	1	-1E+10	1
4902549	101	C	05/31/2023	08:55	-132.947	47.324	0	237.50	0	5.6530	0	33.7810	0	26.635	0	235.386	0	124.5	4	40.8	4	-1E+10	1	-1E+10	1	-1E+10	1	-1E+10	1	-1E+10	1	-1E+10	1
4902549	101	C	05/31/2023	08:55	-132.947	47.324	0	238.50	0	5.6440	0	33.7800	0	26.635	0	236.377	0	123.7	4	40.5	4	-1E+10	1	-1E+10	1	-1E+10	1	-1E+10	1	-1E+10	1	-1E+10	1
4902549	101	C	05/31/2023	08:55	-132.947	47.324	0	239.50	0	5.6120	0	33.7830	0	26.641	0	237.367	0	123.0	4	40.2	4	-1E+10	1	-1E+10	1	-1E+10	1	-1E+10	1	-1E+10	1	-1E+10	1
4902549	101	C	05/31/2023	08:55	-132.947	47.324	0	240.50	0	5.6100	0	33.7830	0	26.641	0	238.358	0	122.2	4	40.0	4	-1E+10	1	-1E+10	1	-1E+10	1	-1E+10	1	-1E+10	1	-1E+10	1
4902549	101	C	05/31/2023	08:55	-132.947	47.324	0	241.60	0	5.5990	0	33.7830	0	26.643	0	239.447	0	121.3	4	39.7	4	-1E+10	1	-1E+10	1	-1E+10	1	-1E+10	1	-1E+10	1	-1E+10	1
4902549	101	C	05/31/2023	08:55	-132.947	47.324	0	242.60	0	5.5820	0	33.7820	0	26.644	0	240.438	0	120.4	4	39.4	4	-1E+10	1	-1E+10	1	-1E+10	1	-1E+10	1	-1E+10	1	-1E+10	1
4902549	101	C	05/31/2023	08:55	-132.947	47.324	0	243.70	0	5.5670	0	33.7860	0	26.649	0	241.527	0	119.4	4	39.0	4	-1E+10	1	-1E+10	1	-1E+10	1	-1E+10	1	-1E+10	1	-1E+10	1
4902549	101	C	05/31/2023	08:55	-132.947	47.324	0	244.70	0	5.5430	0	33.7860	0	26.652	0	242.518	0	118.5	4	38.7	4	-1E+10	1	-1E+10	1	-1E+10	1	-1E+10	1	-1E+10	1	-1E+10	1
4902549	101	C	05/31/2023	08:55	-132.947	47.324	0	245.70	0	5.5170	0	33.7890	0	26.657	0	243.508	0	117.8	4	38.4	4	-1E+10	1	-1E+10	1	-1E+10	1	-1E+10	1	-1E+10	1	-1E+10	1
4902549	101	C	05/31/2023	08:55	-132.947	47.324	0	246.80	0	5.4940	0	33.7870	0	26.659	0	244.598	0	117.1	4	38.2	4	-1E+10	1	-1E+10	1	-1E+10	1	-1E+10	1	-1E+10	1	-1E+10	1
4902549	101	C	05/31/2023	08:55	-132.947	47.324	0	247.80	0	5.4650	0	33.7890	0	26.664	0	245.589	0	116.4	4	37.9	4	-1E+10	1	-1E+10	1	-1E+10	1	-1E+10	1	-1E+10	1	-1E+10	1
4902549	101	C	05/31/2023	08:55	-132.947	47.324	0	248.90	0	5.4350	0	33.7900	0	26.668	0	246.678	0	115.8	4	37.7	4	-1E+10	1	-1E+10	1	-1E+10	1	-1E+10	1	-1E+10	1	-1E+10	1
4902549	101	C	05/31/2023	08:55	-132.947	47.324	0	249.90	0	5.4130	0	33.7930	0	26.673	0	247.669	0	115.3	4	37.6	4	-1E+10	1	-1E+10	1	-1E+10	1	-1E+10	1	-1E+10	1	-1E+10	1
4902549	101	C	05/31/2023	08:55	-132.947	47.324	0	251.00	0	5.4020	0	33.7920	0	26.673	0	248.758	0	114.9	4	37.4	4	-1E+10	1	-1E+10	1	-1E+10	1	-1E+10	1	-1E+10	1	-1E+10	1
4902549	101	C	05/31/2023	08:55	-132.947	47.324	0	252.00	0	5.3860	0	33.7920	0	26.675	0	249.749	0	114.6	4	37.3	4	-1E+10	1	-1E+10	1	-1E+10	1	-1E+10	1	-1E+10	1	-1E+10	1
4902549	101	C	05/31/2023	08:55	-132.947	47.324	0	253.10	0	5.3800	0	33.7950	0	26.678	0	250.838	0	114.1	4	37.1	4	-1E+10	1	-1E+10	1	-1E+10	1	-1E+10	1	-1E+10	1	-1E+10	1
4902549	101	C	05/31/2023	08:55	-132.947	47.324	0	254.10	0	5.3790	0	33.7940	0	26.678	0	251.828	0	113.7	4	37.0	4	-1E+10	1	-1E+10	1	-1E+10	1	-1E+10	1	-1E+10	1	-1E+10	1
4902549	101	C	05/31/2023	08:55	-132.947	47.324	0	255.20	0	5.3710	0	33.7950	0	26.680	0	252.918	0	113.3	4	36.8	4	-1E+10	1	-1E+10	1	-1E+10	1	-1E+10	1	-1E+10	1	-1E+10	1
4902549	101	C	05/31/2023	08:55	-132.947	47.324	0	256.20	0	5.3670	0	33.7950	0	26.680	0	253.908	0	112.8	4	36.7	4	-1E+10	1	-1E+10	1	-1E+10	1	-1E+10	1	-1E+10	1	-1E+10	1
4902549	101	C	05/31/2023	08:55	-132.947	47.324	0	257.20	0	5.3650	0	33.7950	0	26.680	0	254.899	0	112.3	4	36.5	4	-1E+10	1	-1E+10	1	-1E+10	1	-1E+10	1	-1E+10	1	-1E+10	1
4902549	101	C	05/31/2023	08:55	-132.947	47.324	0	258.20	0	5.3610	0	33.7950	0	26.681	0	255.889	0	111.8	4	36.3	4	-1E+10	1	-1E+10	1	-1E+10	1	-1E+10	1	-1E+10	1	-1E+10	1
4902549	101	C	05/31/2023	08:55	-132.947	47.324	0	259.30	0	5.3600	0	33.7950	0	26.681	0	256.979	0	111.2	4	36.1	4	-1E+10	1	-1E+10	1	-1E+10	1	-1E+10	1	-1E+10	1	-1E+10	1
4902549	101	C	05/31/2023	08:55	-132.947	47.324	0	260.30	0	5.3540	0	33.7960	0	26.682	0	257.969	0	110.5	4	35.9	4	-1E+10	1	-1E+10	1	-1E+10	1	-1E+10	1	-1E+10	1	-1E+10	1
4902549	101	C	05/31/2023	08:55	-132.947	47.324	0	261.30	0	5.3420	0	33.7980	0	26.685	0	258.960	0	109.9	4	35.7	4	-1E+10	1	-1E+10	1	-1E+10	1	-1E+10	1	-1E+10	1	-1E+10	1
4902549	101	C	05/31/2023	08:55	-132.947	47.324	0	262.40	0	5.3220	0	33.8000	0	26.689	0	260.049	0	109.5	4	35.6	4	-1E+10	1	-1E+10	1	-1E+10	1	-1E+10	1	-1E+10	1	-1E+10	1
4902549	101	C	05/31/2023	08:55	-132.947	47.324	0	263.40	0	5.3130	0	33.8010	0	26.691	0	261.039	0	109.1	4	35.4	4	-1E+10	1	-1E+10	1	-1E+10	1	-1E+10	1	-1E+10	1	-1E+10	1
4902549	101	C	05/31/2023	08:55	-132.947	47.324	0	264.50	0	5.3080	0	33.8020	0	26.693	0	262.129	0	108.7	4	35.3	4	-1E+10	1	-1E+10	1	-1E+10	1	-1E+10	1	-1E+10	1	-1E+10	1
4902549	101	C	05/31/2023	08:55	-132.947	47.324	0	265.50	0	5.3040	0	33.8020	0	26.693	0	263.119	0	108.2	4	35.2	4	-1E+10	1	-1E+10	1	-1E+10	1	-1E+10	1	-1E+10	1	-1E+10	1
4902549	101	C	05/31/2023	08:55	-132.947	47.324	0	266.50	0	5.2940	0	33.8030	0	26.695	0	264.110	0	107.8	4	35.0	4	-1E+10	1	-1E+10	1	-1E+10	1	-1E+10	1	-1E+10	1	-1E+10	1
4902549	101	C	05/31/2023	08:55	-132.947	47.324	0	267.60	0	5.2860	0	33.8030	0	26.696	0	265.199	0	107.3	4	34.8	4	-1E+10	1	-1E+10	1	-1E+10	1	-1E+10	1	-1E+10	1	-1E+10	1
4902549	101	C	05/31/2023	08:55	-132.947	47.324	0	268.60	0	5.2770	0	33.8030	0	26.697	0	266.190	0	106.9	4	34.7	4	-1E+10	1	-1E+10	1	-1E+10	1	-1E+10	1	-1E+10	1	-1E+10	1
4902549	101	C	05/31/2023	08:55	-132.947	47.324	0	269.60	0	5.2750	0	33.8030	0	26.697	0	267.180	0	106.3	4	34.5	4	-1E+10	1	-1E+10	1	-1E+10	1	-1E+10	1	-1E+10	1	-1E+10	1
4902549	101	C	05/31/2023	08:55	-132.947	47.324	0	270.70	0	5.2610	0	33.8050	0	26.700	0	268.269	0	105.8	4	34.3	4	-1E+10	1	-1E+10	1	-1E+10	1	-1E+10	1	-1E+10	1	-1E+10	1
4902549	101	C	05/31/2023	08:55	-132.947	47.324	0	271.70	0	5.2480	0	33.8050	0	26.702	0	269.260	0	105.3	4	34.2	4	-1E+10	1	-1E+10	1	-1E+10	1	-1E+10	1	-1E+10	1	-1E+10	1
4902549	101	C	05/31/2023	08:55	-132.947	47.324	0	272.80	0	5.2470	0	33.8060	0	26.703	0	270.349	0	104.8	4	34.0	4	-1E+10	1	-1E+10	1	-1E+10	1	-1E+10	1	-1E+10	1	-1E+10	1
4902549	101	C	05/31/2023	08:55	-132.947	47.324	0	273.80	0	5.2360	0	33.8070	0	26.705	0	271.339	0	104.3	4	33.8	4	-1E+10	1	-1E+10	1	-1E+10	1	-1E+10	1	-1E+10	1	-1E+10	1
4902549	101	C	05/31/2023	08:55	-132.947	47.324	0	274.80	0	5.2310	0	33.8070	0	26.706	0	272.330	0	103.8	4	33.6	4	-1E+10	1	-1E+10	1	-1E+10	1	-1E+10	1	-1E+10	1	-1E+10	1
4902549	101	C	05/31/2023	08:55	-132.947	47.324	0	275.90	0	5.2200	0	33.8070	0	26.707	0	273.419	0	103.2	4	33.5	4	-1E+10	1	-1E+10	1	-1E+10	1	-1E+10	1	-1E+10	1	-1E+10	1
4902549	101	C	05/31/2023	08:55	-132.947	47.324	0	276.90	0	5.2130	0	33.8070	0	26.708	0	274.410	0	102.6	4	33.3	4	-1E+10	1	-1E+10	1	-1E+10	1	-1E+10	1	-1E+10	1	-1E+10	1
4902549	101	C	05/31/2023	08:55	-132.947	47.324	0	278.00	0	5.2070	0	33.8080	0	26.709	0	275.499	0	101.9	4	33.0	4	-1E+10	1	-1E+10	1	-1E+10	1	-1E+10	1	-1E+10	1	-1E+10	1
4902549	101	C	05/31/2023	08:55	-132.947	47.324	0	279.00	0	5.2000	0	33.8090	0	26.711	0	276.489	0	101.3	4	32.8	4	-1E+10	1	-1E+10	1	-1E+10	1	-1E+10	1	-1E+10	1	-1E+10	1
4902549	101	C	05/31/2023	08:55	-132.947	47.324	0	280.10	0	5.1900	0	33.8100	0	26.713	0	277.579	0	100.7	4	32.6	4	-1E+10	1	-1E+10	1	-1E+10	1	-1E+10	1	-1E+10	1	-1E+10	1
4902549	101	C	05/31/2023	08:55	-132.947	47.324	0	281.10	0	5.1850	0	33.8100	0	26.713	0	278.569	0	100.0	4	32.4	4	-1E+10	1	-1E+10	1	-1E+10	1	-1E+10	1	-1E+10	1	-1E+10	1
4902549	101	C	05/31/2023	08:55	-132.947	47.324	0	282.10	0	5.1570	0	33.8130	0	26.719	0	279.559	0	99.4	4	32.2	4	-1E+10	1	-1E+10	1	-1E+10	1	-1E+10	1	-1E+10	1	-1E+10	1
4902549	101	C	05/31/2023	08:55	-132.947	47.324	0	283.20	0	5.1440	0	33.8130	0	26.720	0	280.649	0	98.9	4	32.0	4	-1E+10	1	-1E+10	1	-1E+10	1	-1E+10	1	-1E+10	1	-1E+10	1
4902549	101	C	05/31/2023	08:55	-132.947	47.324	0	284.30	0	5.1260	0	33.8150	0	26.724	0	281.738	0	98.2	4	31.8	4	-1E+10	1	-1E+10	1	-1E+10	1	-1E+10	1	-1E+10	1	-1E+10	1
4902549	101	C	05/31/2023	08:55	-132.947	47.324	0	285.30	0	5.1200	0	33.8130	0	26.723	0	282.728	0	97.5	4	31.5	4	-1E+10	1	-1E+10	1	-1E+10	1	-1E+10	1	-1E+10	1	-1E+10	1
4902549	101	C	05/31/2023	08:55	-132.947	47.324	0	286.40	0	5.1080	0	33.8150	0	26.726	0	283.818	0	96.8	4	31.3	4	-1E+10	1	-1E+10	1	-1E+10	1	-1E+10	1	-1E+10	1	-1E+10	1
4902549	101	C	05/31/2023	08:55	-132.947	47.324	0	287.40	0	5.1020	0	33.8180	0	26.729	0	284.808	0	96.2	4	31.1	4	-1E+10	1	-1E+10	1	-1E+10	1	-1E+10	1	-1E+10	1	-1E+10	1
4902549	101	C	05/31/2023	08:55	-132.947	47.324	0	288.50	0	5.0930	0	33.8200	0	26.732	0	285.897	0	95.5	4	30.9	4	-1E+10	1	-1E+10	1	-1E+10	1	-1E+10	1	-1E+10	1	-1E+10	1
4902549	101	C	05/31/2023	08:55	-132.947	47.324	0	289.50	0	5.0890	0	33.8200	0	26.732	0	286.887	0	94.9	4	30.7	4	-1E+10	1	-1E+10	1	-1E+10	1	-1E+10	1	-1E+10	1	-1E+10	1
4902549	101	C	05/31/2023	08:55	-132.947	47.324	0	290.60	0	5.0830	0	33.8200	0	26.733	0	287.977	0	94.2	4	30.4	4	-1E+10	1	-1E+10	1	-1E+10	1	-1E+10	1	-1E+10	1	-1E+10	1
4902549	101	C	05/31/2023	08:55	-132.947	47.324	0	291.60	0	5.0760	0	33.8220	0	26.735	0	288.967	0	93.4	4	30.2	4	-1E+10	1	-1E+10	1	-1E+10	1	-1E+10	1	-1E+10	1	-1E+10	1
4902549	101	C	05/31/2023	08:55	-132.947	47.324	0	292.70	0	5.0530	0	33.8260	0	26.741	0	290.056	0	92.9	4	30.0	4	-1E+10	1	-1E+10	1	-1E+10	1	-1E+10	1	-1E+10	1	-1E+10	1
4902549	101	C	05/31/2023	08:55	-132.947	47.324	0	293.70	0	5.0420	0	33.8250	0	26.742	0	291.047	0	92.3	4	29.8	4	-1E+10	1	-1E+10	1	-1E+10	1	-1E+10	1	-1E+10	1	-1E+10	1
4902549	101	C	05/31/2023	08:55	-132.947	47.324	0	294.70	0	5.0240	0	33.8290	0	26.747	0	292.037	0	91.8	4	29.6	4	-1E+10	1	-1E+10	1	-1E+10	1	-1E+10	1	-1E+10	1	-1E+10	1
4902549	101	C	05/31/2023	08:55	-132.947	47.324	0	295.80	0	5.0160	0	33.8310	0	26.749	0	293.126	0	91.4	4	29.5	4	-1E+10	1	-1E+10	1	-1E+10	1	-1E+10	1	-1E+10	1	-1E+10	1
4902549	101	C	05/31/2023	08:55	-132.947	47.324	0	296.80	0	5.0090	0	33.8310	0	26.750	0	294.116	0	90.9	4	29.3	4	-1E+10	1	-1E+10	1	-1E+10	1	-1E+10	1	-1E+10	1	-1E+10	1
4902549	101	C	05/31/2023	08:55	-132.947	47.324	0	297.90	0	4.9920	0	33.8340	0	26.754	0	295.206	0	90.5	4	29.2	4	-1E+10	1	-1E+10	1	-1E+10	1	-1E+10	1	-1E+10	1	-1E+10	1
4902549	101	C	05/31/2023	08:55	-132.947	47.324	0	298.90	0	4.9880	0	33.8350	0	26.756	0	296.196	0	90.2	4	29.1	4	-1E+10	1	-1E+10	1	-1E+10	1	-1E+10	1	-1E+10	1	-1E+10	1
4902549	101	C	05/31/2023	08:55	-132.947	47.324	0	300.00	0	4.9820	0	33.8360	0	26.757	0	297.285	0	89.8	4	28.9	4	-1E+10	1	-1E+10	1	-1E+10	1	-1E+10	1	-1E+10	1	-1E+10	1
4902549	101	C	05/31/2023	08:55	-132.947	47.324	0	301.00	0	4.9760	0	33.8370	0	26.759	0	298.275	0	89.4	4	28.8	4	-1E+10	1	-1E+10	1	-1E+10	1	-1E+10	1	-1E+10	1	-1E+10	1
4902549	101	C	05/31/2023	08:55	-132.947	47.324	0	302.10	0	4.9700	0	33.8380	0	26.760	0	299.365	0	89.0	4	28.7	4	-1E+10	1	-1E+10	1	-1E+10	1	-1E+10	1	-1E+10	1	-1E+10	1
4902549	101	C	05/31/2023	08:55	-132.947	47.324	0	303.20	0	4.9710	0	33.8400	0	26.762	0	300.454	0	88.6	4	28.6	4	-1E+10	1	-1E+10	1	-1E+10	1	-1E+10	1	-1E+10	1	-1E+10	1
4902549	101	C	05/31/2023	08:55	-132.947	47.324	0	304.20	0	4.9680	0	33.8400	0	26.762	0	301.444	0	88.3	4	28.5	4	-1E+10	1	-1E+10	1	-1E+10	1	-1E+10	1	-1E+10	1	-1E+10	1
4902549	101	C	05/31/2023	08:55	-132.947	47.324	0	305.30	0	4.9620	0	33.8410	0	26.763	0	302.533	0	87.8	4	28.3	4	-1E+10	1	-1E+10	1	-1E+10	1	-1E+10	1	-1E+10	1	-1E+10	1
4902549	101	C	05/31/2023	08:55	-132.947	47.324	0	306.30	0	4.9570	0	33.8400	0	26.763	0	303.524	0	87.4	4	28.2	4	-1E+10	1	-1E+10	1	-1E+10	1	-1E+10	1	-1E+10	1	-1E+10	1
4902549	101	C	05/31/2023	08:55	-132.947	47.324	0	307.40	0	4.9540	0	33.8400	0	26.764	0	304.613	0	87.0	4	28.0	4	-1E+10	1	-1E+10	1	-1E+10	1	-1E+10	1	-1E+10	1	-1E+10	1
4902549	101	C	05/31/2023	08:55	-132.947	47.324	0	308.40	0	4.9390	0	33.8420	0	26.767	0	305.603	0	86.5	4	27.9	4	-1E+10	1	-1E+10	1	-1E+10	1	-1E+10	1	-1E+10	1	-1E+10	1
4902549	101	C	05/31/2023	08:55	-132.947	47.324	0	309.40	0	4.9310	0	33.8440	0	26.769	0	306.593	0	86.1	4	27.7	4	-1E+10	1	-1E+10	1	-1E+10	1	-1E+10	1	-1E+10	1	-1E+10	1
4902549	101	C	05/31/2023	08:55	-132.947	47.324	0	310.40	0	4.9130	0	33.8440	0	26.771	0	307.583	0	85.9	4	27.6	4	-1E+10	1	-1E+10	1	-1E+10	1	-1E+10	1	-1E+10	1	-1E+10	1
4902549	101	C	05/31/2023	08:55	-132.947	47.324	0	312.00	0	4.9070	0	33.8460	0	26.774	0	309.168	0	85.4	4	27.5	4	-1E+10	1	-1E+10	1	-1E+10	1	-1E+10	1	-1E+10	1	-1E+10	1
4902549	101	C	05/31/2023	08:55	-132.947	47.324	0	313.20	0	4.9070	0	33.8450	0	26.773	0	310.356	0	85.0	4	27.3	4	-1E+10	1	-1E+10	1	-1E+10	1	-1E+10	1	-1E+10	1	-1E+10	1
4902549	101	C	05/31/2023	08:55	-132.947	47.324	0	314.00	0	4.9070	0	33.8450	0	26.773	0	311.148	0	84.6	4	27.2	4	-1E+10	1	-1E+10	1	-1E+10	1	-1E+10	1	-1E+10	1	-1E+10	1
4902549	101	C	05/31/2023	08:55	-132.947	47.324	0	314.90	0	4.9060	0	33.8460	0	26.774	0	312.039	0	84.2	4	27.1	4	-1E+10	1	-1E+10	1	-1E+10	1	-1E+10	1	-1E+10	1	-1E+10	1
4902549	101	C	05/31/2023	08:55	-132.947	47.324	0	315.70	0	4.9000	0	33.8470	0	26.775	0	312.831	0	83.9	4	27.0	4	-1E+10	1	-1E+10	1	-1E+10	1	-1E+10	1	-1E+10	1	-1E+10	1
4902549	101	C	05/31/2023	08:55	-132.947	47.324	0	316.90	0	4.8950	0	33.8470	0	26.776	0	314.019	0	83.3	4	26.8	4	-1E+10	1	-1E+10	1	-1E+10	1	-1E+10	1	-1E+10	1	-1E+10	1
4902549	101	C	05/31/2023	08:55	-132.947	47.324	0	318.10	0	4.8900	0	33.8480	0	26.777	0	315.208	0	82.6	4	26.6	4	-1E+10	1	-1E+10	1	-1E+10	1	-1E+10	1	-1E+10	1	-1E+10	1
4902549	101	C	05/31/2023	08:55	-132.947	47.324	0	318.90	0	4.8830	0	33.8480	0	26.778	0	316.000	0	82.1	4	26.4	4	-1E+10	1	-1E+10	1	-1E+10	1	-1E+10	1	-1E+10	1	-1E+10	1
4902549	101	C	05/31/2023	08:55	-132.947	47.324	0	319.80	0	4.8790	0	33.8490	0	26.779	0	316.891	0	81.6	4	26.3	4	-1E+10	1	-1E+10	1	-1E+10	1	-1E+10	1	-1E+10	1	-1E+10	1
4902549	101	C	05/31/2023	08:55	-132.947	47.324	0	321.00	0	4.8630	0	33.8520	0	26.783	0	318.079	0	81.0	4	26.0	4	-1E+10	1	-1E+10	1	-1E+10	1	-1E+10	1	-1E+10	1	-1E+10	1
4902549	101	C	05/31/2023	08:55	-132.947	47.324	0	322.30	0	4.8530	0	33.8530	0	26.785	0	319.366	0	80.4	4	25.8	4	-1E+10	1	-1E+10	1	-1E+10	1	-1E+10	1	-1E+10	1	-1E+10	1
4902549	101	C	05/31/2023	08:55	-132.947	47.324	0	323.10	0	4.8340	0	33.8570	0	26.791	0	320.158	0	80.1	4	25.7	4	-1E+10	1	-1E+10	1	-1E+10	1	-1E+10	1	-1E+10	1	-1E+10	1
4902549	101	C	05/31/2023	08:55	-132.947	47.324	0	323.90	0	4.8260	0	33.8580	0	26.792	0	320.950	0	79.8	4	25.6	4	-1E+10	1	-1E+10	1	-1E+10	1	-1E+10	1	-1E+10	1	-1E+10	1
4902549	101	C	05/31/2023	08:55	-132.947	47.324	0	324.80	0	4.8220	0	33.8590	0	26.794	0	321.841	0	79.4	4	25.5	4	-1E+10	1	-1E+10	1	-1E+10	1	-1E+10	1	-1E+10	1	-1E+10	1
4902549	101	C	05/31/2023	08:55	-132.947	47.324	0	326.00	0	4.8190	0	33.8590	0	26.794	0	323.030	0	78.9	4	25.3	4	-1E+10	1	-1E+10	1	-1E+10	1	-1E+10	1	-1E+10	1	-1E+10	1
4902549	101	C	05/31/2023	08:55	-132.947	47.324	0	327.30	0	4.8090	0	33.8620	0	26.797	0	324.317	0	78.4	4	25.2	4	-1E+10	1	-1E+10	1	-1E+10	1	-1E+10	1	-1E+10	1	-1E+10	1
4902549	101	C	05/31/2023	08:55	-132.947	47.324	0	328.20	0	4.7980	0	33.8640	0	26.800	0	325.208	0	78.1	4	25.1	4	-1E+10	1	-1E+10	1	-1E+10	1	-1E+10	1	-1E+10	1	-1E+10	1
4902549	101	C	05/31/2023	08:55	-132.947	47.324	0	329.00	0	4.7960	0	33.8640	0	26.800	0	326.000	0	77.9	4	25.0	4	-1E+10	1	-1E+10	1	-1E+10	1	-1E+10	1	-1E+10	1	-1E+10	1
4902549	101	C	05/31/2023	08:55	-132.947	47.324	0	329.90	0	4.7900	0	33.8660	0	26.803	0	326.891	0	77.6	4	24.9	4	-1E+10	1	-1E+10	1	-1E+10	1	-1E+10	1	-1E+10	1	-1E+10	1
4902549	101	C	05/31/2023	08:55	-132.947	47.324	0	330.70	0	4.7870	0	33.8670	0	26.804	0	327.683	0	77.4	4	24.8	4	-1E+10	1	-1E+10	1	-1E+10	1	-1E+10	1	-1E+10	1	-1E+10	1
4902549	101	C	05/31/2023	08:55	-132.947	47.324	0	331.60	0	4.7840	0	33.8680	0	26.805	0	328.574	0	77.2	4	24.8	4	-1E+10	1	-1E+10	1	-1E+10	1	-1E+10	1	-1E+10	1	-1E+10	1
4902549	101	C	05/31/2023	08:55	-132.947	47.324	0	332.90	0	4.7830	0	33.8680	0	26.805	0	329.861	0	76.7	4	24.6	4	-1E+10	1	-1E+10	1	-1E+10	1	-1E+10	1	-1E+10	1	-1E+10	1
4902549	101	C	05/31/2023	08:55	-132.947	47.324	0	334.30	0	4.7760	0	33.8720	0	26.809	0	331.247	0	76.3	4	24.5	4	-1E+10	1	-1E+10	1	-1E+10	1	-1E+10	1	-1E+10	1	-1E+10	1
4902549	101	C	05/31/2023	08:55	-132.947	47.324	0	335.20	0	4.7700	0	33.8710	0	26.809	0	332.138	0	76.1	4	24.4	4	-1E+10	1	-1E+10	1	-1E+10	1	-1E+10	1	-1E+10	1	-1E+10	1
4902549	101	C	05/31/2023	08:55	-132.947	47.324	0	336.10	0	4.7680	0	33.8710	0	26.809	0	333.030	0	75.8	4	24.3	4	-1E+10	1	-1E+10	1	-1E+10	1	-1E+10	1	-1E+10	1	-1E+10	1
4902549	101	C	05/31/2023	08:55	-132.947	47.324	0	337.00	0	4.7670	0	33.8720	0	26.810	0	333.921	0	75.4	4	24.2	4	-1E+10	1	-1E+10	1	-1E+10	1	-1E+10	1	-1E+10	1	-1E+10	1
4902549	101	C	05/31/2023	08:55	-132.947	47.324	0	337.90	0	4.7620	0	33.8730	0	26.811	0	334.812	0	75.1	4	24.1	4	-1E+10	1	-1E+10	1	-1E+10	1	-1E+10	1	-1E+10	1	-1E+10	1
4902549	101	C	05/31/2023	08:55	-132.947	47.324	0	338.80	0	4.7600	0	33.8730	0	26.812	0	335.703	0	74.8	4	24.0	4	-1E+10	1	-1E+10	1	-1E+10	1	-1E+10	1	-1E+10	1	-1E+10	1
4902549	101	C	05/31/2023	08:55	-132.947	47.324	0	339.70	0	4.7570	0	33.8740	0	26.813	0	336.594	0	74.5	4	23.9	4	-1E+10	1	-1E+10	1	-1E+10	1	-1E+10	1	-1E+10	1	-1E+10	1
4902549	101	C	05/31/2023	08:55	-132.947	47.324	0	340.60	0	4.7540	0	33.8750	0	26.814	0	337.485	0	74.1	4	23.8	4	-1E+10	1	-1E+10	1	-1E+10	1	-1E+10	1	-1E+10	1	-1E+10	1
4902549	101	C	05/31/2023	08:55	-132.947	47.324	0	341.50	0	4.7540	0	33.8750	0	26.814	0	338.376	0	73.7	4	23.6	4	-1E+10	1	-1E+10	1	-1E+10	1	-1E+10	1	-1E+10	1	-1E+10	1
4902549	101	C	05/31/2023	08:55	-132.947	47.324	0	342.90	0	4.7520	0	33.8780	0	26.817	0	339.762	0	73.2	4	23.5	4	-1E+10	1	-1E+10	1	-1E+10	1	-1E+10	1	-1E+10	1	-1E+10	1
4902549	101	C	05/31/2023	08:55	-132.947	47.324	0	344.40	0	4.7490	0	33.8820	0	26.820	0	341.247	0	72.8	4	23.3	4	-1E+10	1	-1E+10	1	-1E+10	1	-1E+10	1	-1E+10	1	-1E+10	1
4902549	101	C	05/31/2023	08:55	-132.947	47.324	0	345.30	0	4.7460	0	33.8840	0	26.822	0	342.138	0	72.5	4	23.3	4	-1E+10	1	-1E+10	1	-1E+10	1	-1E+10	1	-1E+10	1	-1E+10	1
4902549	101	C	05/31/2023	08:55	-132.947	47.324	0	346.30	0	4.7430	0	33.8850	0	26.823	0	343.128	0	72.3	4	23.2	4	-1E+10	1	-1E+10	1	-1E+10	1	-1E+10	1	-1E+10	1	-1E+10	1
4902549	101	C	05/31/2023	08:55	-132.947	47.324	0	347.20	0	4.7470	0	33.8870	0	26.824	0	344.019	0	72.1	4	23.1	4	-1E+10	1	-1E+10	1	-1E+10	1	-1E+10	1	-1E+10	1	-1E+10	1
4902549	101	C	05/31/2023	08:55	-132.947	47.324	0	348.20	0	4.7410	0	33.8870	0	26.825	0	345.009	0	71.8	4	23.0	4	-1E+10	1	-1E+10	1	-1E+10	1	-1E+10	1	-1E+10	1	-1E+10	1
4902549	101	C	05/31/2023	08:55	-132.947	47.324	0	349.20	0	4.7340	0	33.8870	0	26.826	0	345.999	0	71.7	4	23.0	4	-1E+10	1	-1E+10	1	-1E+10	1	-1E+10	1	-1E+10	1	-1E+10	1
4902549	101	C	05/31/2023	08:55	-132.947	47.324	0	350.10	0	4.7290	0	33.8880	0	26.827	0	346.890	0	71.5	4	22.9	4	-1E+10	1	-1E+10	1	-1E+10	1	-1E+10	1	-1E+10	1	-1E+10	1
4902549	101	C	05/31/2023	08:55	-132.947	47.324	0	352.90	0	4.7240	0	33.8890	0	26.828	0	349.662	0	71.0	4	22.8	4	-1E+10	1	-1E+10	1	-1E+10	1	-1E+10	1	-1E+10	1	-1E+10	1
4902549	101	C	05/31/2023	08:55	-132.947	47.324	0	357.70	0	4.7290	0	33.8970	0	26.834	0	354.414	0	70.2	4	22.5	4	-1E+10	1	-1E+10	1	-1E+10	1	-1E+10	1	-1E+10	1	-1E+10	1
4902549	101	C	05/31/2023	08:55	-132.947	47.324	0	362.70	0	4.7250	0	33.8980	0	26.836	0	359.363	0	68.8	4	22.0	4	-1E+10	1	-1E+10	1	-1E+10	1	-1E+10	1	-1E+10	1	-1E+10	1
4902549	101	C	05/31/2023	08:55	-132.947	47.324	0	367.60	0	4.7150	0	33.9060	0	26.843	0	364.214	0	66.9	4	21.5	4	-1E+10	1	-1E+10	1	-1E+10	1	-1E+10	1	-1E+10	1	-1E+10	1
4902549	101	C	05/31/2023	08:55	-132.947	47.324	0	372.60	0	4.6640	0	33.9100	0	26.852	0	369.164	0	65.4	4	21.0	4	-1E+10	1	-1E+10	1	-1E+10	1	-1E+10	1	-1E+10	1	-1E+10	1
4902549	101	C	05/31/2023	08:55	-132.947	47.324	0	377.70	0	4.6450	0	33.9120	0	26.856	0	374.212	0	64.3	4	20.6	4	-1E+10	1	-1E+10	1	-1E+10	1	-1E+10	1	-1E+10	1	-1E+10	1
4902549	101	C	05/31/2023	08:55	-132.947	47.324	0	382.90	0	4.6380	0	33.9180	0	26.861	0	379.359	0	63.5	4	20.3	4	-1E+10	1	-1E+10	1	-1E+10	1	-1E+10	1	-1E+10	1	-1E+10	1
4902549	101	C	05/31/2023	08:55	-132.947	47.324	0	388.00	0	4.6320	0	33.9200	0	26.863	0	384.407	0	62.5	4	20.0	4	-1E+10	1	-1E+10	1	-1E+10	1	-1E+10	1	-1E+10	1	-1E+10	1
4902549	101	C	05/31/2023	08:55	-132.947	47.324	0	393.10	0	4.6150	0	33.9250	0	26.869	0	389.455	0	61.1	4	19.6	4	-1E+10	1	-1E+10	1	-1E+10	1	-1E+10	1	-1E+10	1	-1E+10	1
4902549	101	C	05/31/2023	08:55	-132.947	47.324	0	398.30	0	4.5900	0	33.9320	0	26.878	0	394.602	0	60.0	4	19.2	4	-1E+10	1	-1E+10	1	-1E+10	1	-1E+10	1	-1E+10	1	-1E+10	1
4902549	101	C	05/31/2023	08:55	-132.947	47.324	0	402.90	0	4.5800	0	33.9360	0	26.882	0	399.155	0	59.1	4	18.9	4	-1E+10	1	-1E+10	1	-1E+10	1	-1E+10	1	-1E+10	1	-1E+10	1
4902549	101	C	05/31/2023	08:55	-132.947	47.324	0	407.50	0	4.5640	0	33.9420	0	26.888	0	403.708	0	57.9	4	18.5	4	-1E+10	1	-1E+10	1	-1E+10	1	-1E+10	1	-1E+10	1	-1E+10	1
4902549	101	C	05/31/2023	08:55	-132.947	47.324	0	412.70	0	4.5460	0	33.9510	0	26.898	0	408.854	0	56.7	4	18.1	4	-1E+10	1	-1E+10	1	-1E+10	1	-1E+10	1	-1E+10	1	-1E+10	1
4902549	101	C	05/31/2023	08:55	-132.947	47.324	0	417.90	0	4.5330	0	33.9580	0	26.905	0	414.001	0	55.0	4	17.6	4	-1E+10	1	-1E+10	1	-1E+10	1	-1E+10	1	-1E+10	1	-1E+10	1
4902549	101	C	05/31/2023	08:55	-132.947	47.324	0	423.00	0	4.5180	0	33.9660	0	26.913	0	419.048	0	53.0	4	16.9	4	-1E+10	1	-1E+10	1	-1E+10	1	-1E+10	1	-1E+10	1	-1E+10	1
4902549	101	C	05/31/2023	08:55	-132.947	47.324	0	428.20	0	4.5110	0	33.9740	0	26.920	0	424.194	0	50.8	4	16.2	4	-1E+10	1	-1E+10	1	-1E+10	1	-1E+10	1	-1E+10	1	-1E+10	1
4902549	101	C	05/31/2023	08:55	-132.947	47.324	0	432.80	0	4.5010	0	33.9810	0	26.926	0	428.746	0	49.2	4	15.7	4	-1E+10	1	-1E+10	1	-1E+10	1	-1E+10	1	-1E+10	1	-1E+10	1
4902549	101	C	05/31/2023	08:55	-132.947	47.324	0	437.50	0	4.4850	0	33.9870	0	26.933	0	433.397	0	48.0	4	15.3	4	-1E+10	1	-1E+10	1	-1E+10	1	-1E+10	1	-1E+10	1	-1E+10	1
4902549	101	C	05/31/2023	08:55	-132.947	47.324	0	442.60	0	4.4700	0	33.9900	0	26.937	0	438.444	0	46.9	4	15.0	4	-1E+10	1	-1E+10	1	-1E+10	1	-1E+10	1	-1E+10	1	-1E+10	1
4902549	101	C	05/31/2023	08:55	-132.947	47.324	0	447.80	0	4.4490	0	33.9950	0	26.943	0	443.590	0	45.9	4	14.6	4	-1E+10	1	-1E+10	1	-1E+10	1	-1E+10	1	-1E+10	1	-1E+10	1
4902549	101	C	05/31/2023	08:55	-132.947	47.324	0	453.10	0	4.4400	0	34.0000	0	26.948	0	448.834	0	45.1	4	14.4	4	-1E+10	1	-1E+10	1	-1E+10	1	-1E+10	1	-1E+10	1	-1E+10	1
4902549	101	C	05/31/2023	08:55	-132.947	47.324	0	457.90	0	4.4310	0	34.0030	0	26.952	0	453.584	0	44.3	4	14.1	4	-1E+10	1	-1E+10	1	-1E+10	1	-1E+10	1	-1E+10	1	-1E+10	1
4902549	101	C	05/31/2023	08:55	-132.947	47.324	0	462.70	0	4.4250	0	34.0080	0	26.956	0	458.333	0	43.2	4	13.8	4	-1E+10	1	-1E+10	1	-1E+10	1	-1E+10	1	-1E+10	1	-1E+10	1
4902549	101	C	05/31/2023	08:55	-132.947	47.324	0	468.00	0	4.4070	0	34.0130	0	26.962	0	463.577	0	41.5	4	13.2	4	-1E+10	1	-1E+10	1	-1E+10	1	-1E+10	1	-1E+10	1	-1E+10	1
4902549	101	C	05/31/2023	08:55	-132.947	47.324	0	473.20	0	4.3860	0	34.0200	0	26.970	0	468.722	0	39.6	4	12.6	4	-1E+10	1	-1E+10	1	-1E+10	1	-1E+10	1	-1E+10	1	-1E+10	1
4902549	101	C	05/31/2023	08:55	-132.947	47.324	0	478.20	0	4.3620	0	34.0280	0	26.979	0	473.669	0	38.0	4	12.1	4	-1E+10	1	-1E+10	1	-1E+10	1	-1E+10	1	-1E+10	1	-1E+10	1
4902549	101	C	05/31/2023	08:55	-132.947	47.324	0	482.70	0	4.3510	0	34.0330	0	26.984	0	478.121	0	37.2	4	11.8	4	-1E+10	1	-1E+10	1	-1E+10	1	-1E+10	1	-1E+10	1	-1E+10	1
4902549	101	C	05/31/2023	08:55	-132.947	47.324	0	487.70	0	4.3200	0	34.0350	0	26.989	0	483.068	0	36.7	4	11.7	4	-1E+10	1	-1E+10	1	-1E+10	1	-1E+10	1	-1E+10	1	-1E+10	1
4902549	101	C	05/31/2023	08:55	-132.947	47.324	0	492.70	0	4.2890	0	34.0380	0	26.995	0	488.015	0	35.9	4	11.4	4	-1E+10	1	-1E+10	1	-1E+10	1	-1E+10	1	-1E+10	1	-1E+10	1
4902549	101	C	05/31/2023	08:55	-132.947	47.324	0	497.80	0	4.2800	0	34.0420	0	26.999	0	493.060	0	35.2	4	11.2	4	-1E+10	1	-1E+10	1	-1E+10	1	-1E+10	1	-1E+10	1	-1E+10	1
4902549	101	C	05/31/2023	08:55	-132.947	47.324	0	503.00	0	4.2600	0	34.0470	0	27.005	0	498.204	0	34.5	4	11.0	4	-1E+10	1	-1E+10	1	-1E+10	1	-1E+10	1	-1E+10	1	-1E+10	1
4902549	101	C	05/31/2023	08:55	-132.947	47.324	0	507.90	0	4.2490	0	34.0500	0	27.009	0	503.052	0	34.0	4	10.8	4	-1E+10	1	-1E+10	1	-1E+10	1	-1E+10	1	-1E+10	1	-1E+10	1
4902549	101	C	05/31/2023	08:55	-132.947	47.324	0	512.80	0	4.2410	0	34.0520	0	27.011	0	507.899	0	33.3	4	10.6	4	-1E+10	1	-1E+10	1	-1E+10	1	-1E+10	1	-1E+10	1	-1E+10	1
4902549	101	C	05/31/2023	08:55	-132.947	47.324	0	517.90	0	4.2370	0	34.0560	0	27.015	0	512.944	0	32.7	4	10.4	4	-1E+10	1	-1E+10	1	-1E+10	1	-1E+10	1	-1E+10	1	-1E+10	1
4902549	101	C	05/31/2023	08:55	-132.947	47.324	0	523.00	0	4.2250	0	34.0590	0	27.018	0	517.989	0	32.0	4	10.1	4	-1E+10	1	-1E+10	1	-1E+10	1	-1E+10	1	-1E+10	1	-1E+10	1
4902549	101	C	05/31/2023	08:55	-132.947	47.324	0	528.10	0	4.2080	0	34.0630	0	27.023	0	523.034	0	31.2	4	9.9	4	-1E+10	1	-1E+10	1	-1E+10	1	-1E+10	1	-1E+10	1	-1E+10	1
4902549	101	C	05/31/2023	08:55	-132.947	47.324	0	532.80	0	4.1960	0	34.0680	0	27.029	0	527.683	0	30.5	4	9.7	4	-1E+10	1	-1E+10	1	-1E+10	1	-1E+10	1	-1E+10	1	-1E+10	1
4902549	101	C	05/31/2023	08:55	-132.947	47.324	0	537.60	0	4.1870	0	34.0720	0	27.033	0	532.430	0	29.8	4	9.5	4	-1E+10	1	-1E+10	1	-1E+10	1	-1E+10	1	-1E+10	1	-1E+10	1
4902549	101	C	05/31/2023	08:55	-132.947	47.324	0	542.80	0	4.1730	0	34.0760	0	27.037	0	537.574	0	29.3	4	9.3	4	-1E+10	1	-1E+10	1	-1E+10	1	-1E+10	1	-1E+10	1	-1E+10	1
4902549	101	C	05/31/2023	08:55	-132.947	47.324	0	548.10	0	4.1460	0	34.0780	0	27.042	0	542.816	0	28.4	4	9.0	4	-1E+10	1	-1E+10	1	-1E+10	1	-1E+10	1	-1E+10	1	-1E+10	1
4902549	101	C	05/31/2023	08:55	-132.947	47.324	0	552.90	0	4.1370	0	34.0850	0	27.048	0	547.563	0	27.3	4	8.6	4	-1E+10	1	-1E+10	1	-1E+10	1	-1E+10	1	-1E+10	1	-1E+10	1
4902549	101	C	05/31/2023	08:55	-132.947	47.324	0	557.80	0	4.1160	0	34.0920	0	27.056	0	552.409	0	26.6	4	8.4	4	-1E+10	1	-1E+10	1	-1E+10	1	-1E+10	1	-1E+10	1	-1E+10	1
4902549	101	C	05/31/2023	08:55	-132.947	47.324	0	562.70	0	4.1030	0	34.0960	0	27.061	0	557.255	0	26.1	4	8.2	4	-1E+10	1	-1E+10	1	-1E+10	1	-1E+10	1	-1E+10	1	-1E+10	1
4902549	101	C	05/31/2023	08:55	-132.947	47.324	0	567.60	0	4.0890	0	34.1000	0	27.065	0	562.101	0	25.6	4	8.1	4	-1E+10	1	-1E+10	1	-1E+10	1	-1E+10	1	-1E+10	1	-1E+10	1
4902549	101	C	05/31/2023	08:55	-132.947	47.324	0	572.60	0	4.0760	0	34.1040	0	27.070	0	567.046	0	25.0	4	7.9	4	-1E+10	1	-1E+10	1	-1E+10	1	-1E+10	1	-1E+10	1	-1E+10	1
4902549	101	C	05/31/2023	08:55	-132.947	47.324	0	577.60	0	4.0610	0	34.1090	0	27.075	0	571.991	0	24.3	4	7.7	4	-1E+10	1	-1E+10	1	-1E+10	1	-1E+10	1	-1E+10	1	-1E+10	1
4902549	101	C	05/31/2023	08:55	-132.947	47.324	0	582.50	0	4.0470	0	34.1120	0	27.079	0	576.836	0	23.8	4	7.5	4	-1E+10	1	-1E+10	1	-1E+10	1	-1E+10	1	-1E+10	1	-1E+10	1
4902549	101	C	05/31/2023	08:55	-132.947	47.324	0	587.60	0	4.0350	0	34.1160	0	27.084	0	581.880	0	23.1	4	7.3	4	-1E+10	1	-1E+10	1	-1E+10	1	-1E+10	1	-1E+10	1	-1E+10	1
4902549	101	C	05/31/2023	08:55	-132.947	47.324	0	592.60	0	4.0260	0	34.1200	0	27.088	0	586.824	0	22.5	4	7.1	4	-1E+10	1	-1E+10	1	-1E+10	1	-1E+10	1	-1E+10	1	-1E+10	1
4902549	101	C	05/31/2023	08:55	-132.947	47.324	0	597.70	0	4.0100	0	34.1250	0	27.094	0	591.867	0	21.9	4	6.9	4	-1E+10	1	-1E+10	1	-1E+10	1	-1E+10	1	-1E+10	1	-1E+10	1
4902549	101	C	05/31/2023	08:55	-132.947	47.324	0	602.60	0	4.0010	0	34.1280	0	27.097	0	596.712	0	21.3	4	6.7	4	-1E+10	1	-1E+10	1	-1E+10	1	-1E+10	1	-1E+10	1	-1E+10	1
4902549	101	C	05/31/2023	08:55	-132.947	47.324	0	607.60	0	3.9870	0	34.1330	0	27.102	0	601.656	0	20.7	4	6.5	4	-1E+10	1	-1E+10	1	-1E+10	1	-1E+10	1	-1E+10	1	-1E+10	1
4902549	101	C	05/31/2023	08:55	-132.947	47.324	0	612.70	0	3.9660	0	34.1390	0	27.109	0	606.699	0	20.1	4	6.4	4	-1E+10	1	-1E+10	1	-1E+10	1	-1E+10	1	-1E+10	1	-1E+10	1
4902549	101	C	05/31/2023	08:55	-132.947	47.324	0	617.90	0	3.9530	0	34.1420	0	27.113	0	611.840	0	19.7	4	6.2	4	-1E+10	1	-1E+10	1	-1E+10	1	-1E+10	1	-1E+10	1	-1E+10	1
4902549	101	C	05/31/2023	08:55	-132.947	47.324	0	622.90	0	3.9410	0	34.1460	0	27.117	0	616.784	0	19.2	4	6.1	4	-1E+10	1	-1E+10	1	-1E+10	1	-1E+10	1	-1E+10	1	-1E+10	1
4902549	101	C	05/31/2023	08:55	-132.947	47.324	0	628.00	0	3.9370	0	34.1500	0	27.121	0	621.826	0	18.6	4	5.9	4	-1E+10	1	-1E+10	1	-1E+10	1	-1E+10	1	-1E+10	1	-1E+10	1
4902549	101	C	05/31/2023	08:55	-132.947	47.324	0	633.20	0	3.9220	0	34.1540	0	27.126	0	626.967	0	18.1	4	5.7	4	-1E+10	1	-1E+10	1	-1E+10	1	-1E+10	1	-1E+10	1	-1E+10	1
4902549	101	C	05/31/2023	08:55	-132.947	47.324	0	637.90	0	3.9160	0	34.1560	0	27.128	0	631.614	0	17.7	4	5.6	4	-1E+10	1	-1E+10	1	-1E+10	1	-1E+10	1	-1E+10	1	-1E+10	1
4902549	101	C	05/31/2023	08:55	-132.947	47.324	0	642.60	0	3.9090	0	34.1610	0	27.133	0	636.260	0	17.4	4	5.5	4	-1E+10	1	-1E+10	1	-1E+10	1	-1E+10	1	-1E+10	1	-1E+10	1
4902549	101	C	05/31/2023	08:55	-132.947	47.324	0	647.70	0	3.9010	0	34.1640	0	27.136	0	641.302	0	17.3	4	5.4	4	-1E+10	1	-1E+10	1	-1E+10	1	-1E+10	1	-1E+10	1	-1E+10	1
4902549	101	C	05/31/2023	08:55	-132.947	47.324	0	652.70	0	3.8810	0	34.1650	0	27.139	0	646.245	0	17.1	4	5.4	4	-1E+10	1	-1E+10	1	-1E+10	1	-1E+10	1	-1E+10	1	-1E+10	1
4902549	101	C	05/31/2023	08:55	-132.947	47.324	0	657.80	0	3.8690	0	34.1690	0	27.143	0	651.286	0	16.6	4	5.2	4	-1E+10	1	-1E+10	1	-1E+10	1	-1E+10	1	-1E+10	1	-1E+10	1
4902549	101	C	05/31/2023	08:55	-132.947	47.324	0	663.20	0	3.8570	0	34.1720	0	27.147	0	656.624	0	16.1	4	5.1	4	-1E+10	1	-1E+10	1	-1E+10	1	-1E+10	1	-1E+10	1	-1E+10	1
4902549	101	C	05/31/2023	08:55	-132.947	47.324	0	668.20	0	3.8390	0	34.1780	0	27.154	0	661.567	0	15.8	4	5.0	4	-1E+10	1	-1E+10	1	-1E+10	1	-1E+10	1	-1E+10	1	-1E+10	1
4902549	101	C	05/31/2023	08:55	-132.947	47.324	0	673.20	0	3.8290	0	34.1810	0	27.157	0	666.509	0	15.3	4	4.8	4	-1E+10	1	-1E+10	1	-1E+10	1	-1E+10	1	-1E+10	1	-1E+10	1
4902549	101	C	05/31/2023	08:55	-132.947	47.324	0	678.20	0	3.8180	0	34.1850	0	27.161	0	671.452	0	15.0	4	4.7	4	-1E+10	1	-1E+10	1	-1E+10	1	-1E+10	1	-1E+10	1	-1E+10	1
4902549	101	C	05/31/2023	08:55	-132.947	47.324	0	683.00	0	3.8090	0	34.1870	0	27.164	0	676.196	0	14.8	4	4.6	4	-1E+10	1	-1E+10	1	-1E+10	1	-1E+10	1	-1E+10	1	-1E+10	1
4902549	101	C	05/31/2023	08:55	-132.947	47.324	0	687.70	0	3.7970	0	34.1910	0	27.168	0	680.842	0	14.5	4	4.6	4	-1E+10	1	-1E+10	1	-1E+10	1	-1E+10	1	-1E+10	1	-1E+10	1
4902549	101	C	05/31/2023	08:55	-132.947	47.324	0	692.80	0	3.7840	0	34.1940	0	27.172	0	685.882	0	14.2	4	4.5	4	-1E+10	1	-1E+10	1	-1E+10	1	-1E+10	1	-1E+10	1	-1E+10	1
4902549	101	C	05/31/2023	08:55	-132.947	47.324	0	697.90	0	3.7660	0	34.1980	0	27.177	0	690.923	0	14.0	4	4.4	4	-1E+10	1	-1E+10	1	-1E+10	1	-1E+10	1	-1E+10	1	-1E+10	1
4902549	101	C	05/31/2023	08:55	-132.947	47.324	0	703.10	0	3.7610	0	34.2000	0	27.179	0	696.062	0	13.8	4	4.3	4	-1E+10	1	-1E+10	1	-1E+10	1	-1E+10	1	-1E+10	1	-1E+10	1
4902549	101	C	05/31/2023	08:55	-132.947	47.324	0	707.80	0	3.7550	0	34.2020	0	27.181	0	700.707	0	13.4	4	4.2	4	-1E+10	1	-1E+10	1	-1E+10	1	-1E+10	1	-1E+10	1	-1E+10	1
4902549	101	C	05/31/2023	08:55	-132.947	47.324	0	712.60	0	3.7400	0	34.2060	0	27.186	0	705.451	0	13.1	4	4.1	4	-1E+10	1	-1E+10	1	-1E+10	1	-1E+10	1	-1E+10	1	-1E+10	1
4902549	101	C	05/31/2023	08:55	-132.947	47.324	0	718.00	0	3.7330	0	34.2080	0	27.188	0	710.788	0	12.7	4	4.0	4	-1E+10	1	-1E+10	1	-1E+10	1	-1E+10	1	-1E+10	1	-1E+10	1
4902549	101	C	05/31/2023	08:55	-132.947	47.324	0	723.00	0	3.7350	0	34.2130	0	27.192	0	715.729	0	12.1	4	3.8	4	-1E+10	1	-1E+10	1	-1E+10	1	-1E+10	1	-1E+10	1	-1E+10	1
4902549	101	C	05/31/2023	08:55	-132.947	47.324	0	728.00	0	3.7370	0	34.2170	0	27.195	0	720.670	0	12.0	4	3.8	4	-1E+10	1	-1E+10	1	-1E+10	1	-1E+10	1	-1E+10	1	-1E+10	1
4902549	101	C	05/31/2023	08:55	-132.947	47.324	0	733.00	0	3.7210	0	34.2190	0	27.198	0	725.611	0	11.9	4	3.7	4	-1E+10	1	-1E+10	1	-1E+10	1	-1E+10	1	-1E+10	1	-1E+10	1
4902549	101	C	05/31/2023	08:55	-132.947	47.324	0	737.70	0	3.7100	0	34.2210	0	27.201	0	730.255	0	11.7	4	3.7	4	-1E+10	1	-1E+10	1	-1E+10	1	-1E+10	1	-1E+10	1	-1E+10	1
4902549	101	C	05/31/2023	08:55	-132.947	47.324	0	742.90	0	3.6890	0	34.2260	0	27.207	0	735.394	0	11.5	4	3.6	4	-1E+10	1	-1E+10	1	-1E+10	1	-1E+10	1	-1E+10	1	-1E+10	1
4902549	101	C	05/31/2023	08:55	-132.947	47.324	0	748.20	0	3.6790	0	34.2290	0	27.211	0	740.631	0	11.3	4	3.5	4	-1E+10	1	-1E+10	1	-1E+10	1	-1E+10	1	-1E+10	1	-1E+10	1
4902549	101	C	05/31/2023	08:55	-132.947	47.324	0	753.00	0	3.6700	0	34.2310	0	27.213	0	745.374	0	10.9	4	3.4	4	-1E+10	1	-1E+10	1	-1E+10	1	-1E+10	1	-1E+10	1	-1E+10	1
4902549	101	C	05/31/2023	08:55	-132.947	47.324	0	757.90	0	3.6590	0	34.2360	0	27.218	0	750.215	0	10.6	4	3.3	4	-1E+10	1	-1E+10	1	-1E+10	1	-1E+10	1	-1E+10	1	-1E+10	1
4902549	101	C	05/31/2023	08:55	-132.947	47.324	0	762.90	0	3.6530	0	34.2390	0	27.221	0	755.155	0	10.3	4	3.2	4	-1E+10	1	-1E+10	1	-1E+10	1	-1E+10	1	-1E+10	1	-1E+10	1
4902549	101	C	05/31/2023	08:55	-132.947	47.324	0	767.90	0	3.6490	0	34.2430	0	27.225	0	760.096	0	9.9	4	3.1	4	-1E+10	1	-1E+10	1	-1E+10	1	-1E+10	1	-1E+10	1	-1E+10	1
4902549	101	C	05/31/2023	08:55	-132.947	47.324	0	773.00	0	3.6440	0	34.2460	0	27.228	0	765.134	0	9.6	4	3.0	4	-1E+10	1	-1E+10	1	-1E+10	1	-1E+10	1	-1E+10	1	-1E+10	1
4902549	101	C	05/31/2023	08:55	-132.947	47.324	0	778.00	0	3.6430	0	34.2490	0	27.230	0	770.074	0	9.2	4	2.9	4	-1E+10	1	-1E+10	1	-1E+10	1	-1E+10	1	-1E+10	1	-1E+10	1
4902549	101	C	05/31/2023	08:55	-132.947	47.324	0	782.90	0	3.6300	0	34.2550	0	27.236	0	774.915	0	8.8	4	2.8	4	-1E+10	1	-1E+10	1	-1E+10	1	-1E+10	1	-1E+10	1	-1E+10	1
4902549	101	C	05/31/2023	08:55	-132.947	47.324	0	788.00	0	3.6370	0	34.2600	0	27.240	0	779.954	0	8.4	4	2.6	4	-1E+10	1	-1E+10	1	-1E+10	1	-1E+10	1	-1E+10	1	-1E+10	1
4902549	101	C	05/31/2023	08:55	-132.947	47.324	0	792.70	0	3.6460	0	34.2670	0	27.244	0	784.597	0	8.3	4	2.6	4	-1E+10	1	-1E+10	1	-1E+10	1	-1E+10	1	-1E+10	1	-1E+10	1
4902549	101	C	05/31/2023	08:55	-132.947	47.324	0	797.90	0	3.6020	0	34.2670	0	27.249	0	789.734	0	8.4	4	2.6	4	-1E+10	1	-1E+10	1	-1E+10	1	-1E+10	1	-1E+10	1	-1E+10	1
4902549	101	C	05/31/2023	08:55	-132.947	47.324	0	803.20	0	3.5810	0	34.2690	0	27.252	0	794.970	0	8.3	4	2.6	4	-1E+10	1	-1E+10	1	-1E+10	1	-1E+10	1	-1E+10	1	-1E+10	1
4902549	101	C	05/31/2023	08:55	-132.947	47.324	0	808.10	0	3.5660	0	34.2720	0	27.256	0	799.810	0	8.2	4	2.6	4	-1E+10	1	-1E+10	1	-1E+10	1	-1E+10	1	-1E+10	1	-1E+10	1
4902549	101	C	05/31/2023	08:55	-132.947	47.324	0	813.20	0	3.5620	0	34.2740	0	27.258	0	804.848	0	8.1	4	2.5	4	-1E+10	1	-1E+10	1	-1E+10	1	-1E+10	1	-1E+10	1	-1E+10	1
4902549	101	C	05/31/2023	08:55	-132.947	47.324	0	818.00	0	3.5580	0	34.2760	0	27.260	0	809.589	0	8.0	4	2.5	4	-1E+10	1	-1E+10	1	-1E+10	1	-1E+10	1	-1E+10	1	-1E+10	1
4902549	101	C	05/31/2023	08:55	-132.947	47.324	0	822.80	0	3.5530	0	34.2770	0	27.262	0	814.331	0	7.9	4	2.5	4	-1E+10	1	-1E+10	1	-1E+10	1	-1E+10	1	-1E+10	1	-1E+10	1
4902549	101	C	05/31/2023	08:55	-132.947	47.324	0	828.00	0	3.5410	0	34.2800	0	27.265	0	819.467	0	7.8	4	2.4	4	-1E+10	1	-1E+10	1	-1E+10	1	-1E+10	1	-1E+10	1	-1E+10	1
4902549	101	C	05/31/2023	08:55	-132.947	47.324	0	832.90	0	3.5270	0	34.2830	0	27.269	0	824.307	0	7.6	4	2.4	4	-1E+10	1	-1E+10	1	-1E+10	1	-1E+10	1	-1E+10	1	-1E+10	1
4902549	101	C	05/31/2023	08:55	-132.947	47.324	0	837.90	0	3.5250	0	34.2860	0	27.272	0	829.245	0	7.4	4	2.3	4	-1E+10	1	-1E+10	1	-1E+10	1	-1E+10	1	-1E+10	1	-1E+10	1
4902549	101	C	05/31/2023	08:55	-132.947	47.324	0	843.00	0	3.5340	0	34.2900	0	27.274	0	834.282	0	7.2	4	2.3	4	-1E+10	1	-1E+10	1	-1E+10	1	-1E+10	1	-1E+10	1	-1E+10	1
4902549	101	C	05/31/2023	08:55	-132.947	47.324	0	847.70	0	3.5390	0	34.2920	0	27.275	0	838.924	0	7.1	4	2.2	4	-1E+10	1	-1E+10	1	-1E+10	1	-1E+10	1	-1E+10	1	-1E+10	1
4902549	101	C	05/31/2023	08:55	-132.947	47.324	0	852.90	0	3.5370	0	34.2940	0	27.277	0	844.060	0	6.9	4	2.2	4	-1E+10	1	-1E+10	1	-1E+10	1	-1E+10	1	-1E+10	1	-1E+10	1
4902549	101	C	05/31/2023	08:55	-132.947	47.324	0	858.20	0	3.5390	0	34.2970	0	27.279	0	849.294	0	6.7	4	2.1	4	-1E+10	1	-1E+10	1	-1E+10	1	-1E+10	1	-1E+10	1	-1E+10	1
4902549	101	C	05/31/2023	08:55	-132.947	47.324	0	863.00	0	3.5590	0	34.3040	0	27.283	0	854.035	0	6.5	4	2.0	4	-1E+10	1	-1E+10	1	-1E+10	1	-1E+10	1	-1E+10	1	-1E+10	1
4902549	101	C	05/31/2023	08:55	-132.947	47.324	0	867.80	0	3.5540	0	34.3060	0	27.285	0	858.775	0	6.5	4	2.0	4	-1E+10	1	-1E+10	1	-1E+10	1	-1E+10	1	-1E+10	1	-1E+10	1
4902549	101	C	05/31/2023	08:55	-132.947	47.324	0	872.60	0	3.5510	0	34.3080	0	27.287	0	863.515	0	6.4	4	2.0	4	-1E+10	1	-1E+10	1	-1E+10	1	-1E+10	1	-1E+10	1	-1E+10	1
4902549	101	C	05/31/2023	08:55	-132.947	47.324	0	877.50	0	3.5490	0	34.3100	0	27.289	0	868.354	0	6.3	4	2.0	4	-1E+10	1	-1E+10	1	-1E+10	1	-1E+10	1	-1E+10	1	-1E+10	1
4902549	101	C	05/31/2023	08:55	-132.947	47.324	0	882.90	0	3.5380	0	34.3140	0	27.293	0	873.687	0	6.3	4	2.0	4	-1E+10	1	-1E+10	1	-1E+10	1	-1E+10	1	-1E+10	1	-1E+10	1
4902549	101	C	05/31/2023	08:55	-132.947	47.324	0	888.30	0	3.5320	0	34.3170	0	27.296	0	879.019	0	6.3	4	2.0	4	-1E+10	1	-1E+10	1	-1E+10	1	-1E+10	1	-1E+10	1	-1E+10	1
4902549	101	C	05/31/2023	08:55	-132.947	47.324	0	892.90	0	3.5200	0	34.3190	0	27.299	0	883.561	0	6.3	4	2.0	4	-1E+10	1	-1E+10	1	-1E+10	1	-1E+10	1	-1E+10	1	-1E+10	1
4902549	101	C	05/31/2023	08:55	-132.947	47.324	0	897.50	0	3.5120	0	34.3220	0	27.302	0	888.103	0	6.2	4	1.9	4	-1E+10	1	-1E+10	1	-1E+10	1	-1E+10	1	-1E+10	1	-1E+10	1
4902549	101	C	05/31/2023	08:55	-132.947	47.324	0	902.60	0	3.5040	0	34.3240	0	27.304	0	893.139	0	6.2	4	1.9	4	-1E+10	1	-1E+10	1	-1E+10	1	-1E+10	1	-1E+10	1	-1E+10	1
4902549	101	C	05/31/2023	08:55	-132.947	47.324	0	907.60	0	3.4920	0	34.3280	0	27.309	0	898.076	0	6.2	4	1.9	4	-1E+10	1	-1E+10	1	-1E+10	1	-1E+10	1	-1E+10	1	-1E+10	1
4902549	101	C	05/31/2023	08:55	-132.947	47.324	0	912.70	0	3.4770	0	34.3290	0	27.311	0	903.111	0	6.3	4	2.0	4	-1E+10	1	-1E+10	1	-1E+10	1	-1E+10	1	-1E+10	1	-1E+10	1
4902549	101	C	05/31/2023	08:55	-132.947	47.324	0	917.80	0	3.4690	0	34.3300	0	27.313	0	908.147	0	6.3	4	2.0	4	-1E+10	1	-1E+10	1	-1E+10	1	-1E+10	1	-1E+10	1	-1E+10	1
4902549	101	C	05/31/2023	08:55	-132.947	47.324	0	922.90	0	3.4490	0	34.3330	0	27.317	0	913.182	0	6.3	4	2.0	4	-1E+10	1	-1E+10	1	-1E+10	1	-1E+10	1	-1E+10	1	-1E+10	1
4902549	101	C	05/31/2023	08:55	-132.947	47.324	0	928.10	0	3.4330	0	34.3340	0	27.319	0	918.316	0	6.2	4	1.9	4	-1E+10	1	-1E+10	1	-1E+10	1	-1E+10	1	-1E+10	1	-1E+10	1
4902549	101	C	05/31/2023	08:55	-132.947	47.324	0	933.30	0	3.4270	0	34.3370	0	27.322	0	923.449	0	6.2	4	1.9	4	-1E+10	1	-1E+10	1	-1E+10	1	-1E+10	1	-1E+10	1	-1E+10	1
4902549	101	C	05/31/2023	08:55	-132.947	47.324	0	937.90	0	3.4250	0	34.3400	0	27.325	0	927.991	0	6.1	4	1.9	4	-1E+10	1	-1E+10	1	-1E+10	1	-1E+10	1	-1E+10	1	-1E+10	1
4902549	101	C	05/31/2023	08:55	-132.947	47.324	0	942.50	0	3.4150	0	34.3420	0	27.327	0	932.532	0	6.1	4	1.9	4	-1E+10	1	-1E+10	1	-1E+10	1	-1E+10	1	-1E+10	1	-1E+10	1
4902549	101	C	05/31/2023	08:55	-132.947	47.324	0	947.70	0	3.4070	0	34.3460	0	27.331	0	937.665	0	6.1	4	1.9	4	-1E+10	1	-1E+10	1	-1E+10	1	-1E+10	1	-1E+10	1	-1E+10	1
4902549	101	C	05/31/2023	08:55	-132.947	47.324	0	952.80	0	3.4030	0	34.3480	0	27.333	0	942.700	0	6.1	4	1.9	4	-1E+10	1	-1E+10	1	-1E+10	1	-1E+10	1	-1E+10	1	-1E+10	1
4902549	101	C	05/31/2023	08:55	-132.947	47.324	0	957.90	0	3.3950	0	34.3530	0	27.338	0	947.734	0	6.1	4	1.9	4	-1E+10	1	-1E+10	1	-1E+10	1	-1E+10	1	-1E+10	1	-1E+10	1
4902549	101	C	05/31/2023	08:55	-132.947	47.324	0	963.00	0	3.3700	0	34.3560	0	27.343	0	952.768	0	6.1	4	1.9	4	-1E+10	1	-1E+10	1	-1E+10	1	-1E+10	1	-1E+10	1	-1E+10	1
4902549	101	C	05/31/2023	08:55	-132.947	47.324	0	968.20	0	3.3620	0	34.3570	0	27.345	0	957.901	0	6.1	4	1.9	4	-1E+10	1	-1E+10	1	-1E+10	1	-1E+10	1	-1E+10	1	-1E+10	1
4902549	101	C	05/31/2023	08:55	-132.947	47.324	0	973.30	0	3.3530	0	34.3590	0	27.347	0	962.935	0	6.1	4	1.9	4	-1E+10	1	-1E+10	1	-1E+10	1	-1E+10	1	-1E+10	1	-1E+10	1
4902549	101	C	05/31/2023	08:55	-132.947	47.324	0	977.90	0	3.3460	0	34.3600	0	27.349	0	967.476	0	6.2	4	1.9	4	-1E+10	1	-1E+10	1	-1E+10	1	-1E+10	1	-1E+10	1	-1E+10	1
4902549	101	C	05/31/2023	08:55	-132.947	47.324	0	982.50	0	3.3320	0	34.3630	0	27.352	0	972.016	0	6.2	4	1.9	4	-1E+10	1	-1E+10	1	-1E+10	1	-1E+10	1	-1E+10	1	-1E+10	1
4902549	101	C	05/31/2023	08:55	-132.947	47.324	0	987.50	0	3.3170	0	34.3650	0	27.355	0	976.951	0	6.2	4	1.9	4	-1E+10	1	-1E+10	1	-1E+10	1	-1E+10	1	-1E+10	1	-1E+10	1
4902549	101	C	05/31/2023	08:55	-132.947	47.324	0	992.60	0	3.3100	0	34.3670	0	27.358	0	981.984	0	6.3	4	1.9	4	-1E+10	1	-1E+10	1	-1E+10	1	-1E+10	1	-1E+10	1	-1E+10	1
4902549	101	C	05/31/2023	08:55	-132.947	47.324	0	997.70	0	3.3060	0	34.3670	0	27.358	0	987.018	0	6.3	4	2.0	4	-1E+10	1	-1E+10	1	-1E+10	1	-1E+10	1	-1E+10	1	-1E+10	1
4902549	101	C	05/31/2023	08:55	-132.947	47.324	0	1005.20	0	3.2910	0	34.3710	0	27.363	0	994.420	0	6.3	4	2.0	4	-1E+10	1	-1E+10	1	-1E+10	1	-1E+10	1	-1E+10	1	-1E+10	1
4902549	101	C	05/31/2023	08:55	-132.947	47.324	0	1015.30	0	3.2750	0	34.3750	0	27.367	0	1004.387	0	6.4	4	2.0	4	-1E+10	1	-1E+10	1	-1E+10	1	-1E+10	1	-1E+10	1	-1E+10	1
4902549	101	C	05/31/2023	08:55	-132.947	47.324	0	1025.50	0	3.2560	0	34.3780	0	27.372	0	1014.453	0	6.5	4	2.0	4	-1E+10	1	-1E+10	1	-1E+10	1	-1E+10	1	-1E+10	1	-1E+10	1
4902549	101	C	05/31/2023	08:55	-132.947	47.324	0	1035.60	0	3.2370	0	34.3820	0	27.377	0	1024.420	0	6.6	4	2.1	4	-1E+10	1	-1E+10	1	-1E+10	1	-1E+10	1	-1E+10	1	-1E+10	1
4902549	101	C	05/31/2023	08:55	-132.947	47.324	0	1045.70	0	3.1960	0	34.3820	0	27.380	0	1034.386	0	6.8	4	2.1	4	-1E+10	1	-1E+10	1	-1E+10	1	-1E+10	1	-1E+10	1	-1E+10	1
4902549	101	C	05/31/2023	08:55	-132.947	47.324	0	1055.30	0	3.1430	0	34.3800	0	27.384	0	1043.858	0	6.9	4	2.1	4	-1E+10	1	-1E+10	1	-1E+10	1	-1E+10	1	-1E+10	1	-1E+10	1
4902549	101	C	05/31/2023	08:55	-132.947	47.324	0	1065.10	0	3.1080	0	34.3800	0	27.387	0	1053.527	0	7.1	4	2.2	4	-1E+10	1	-1E+10	1	-1E+10	1	-1E+10	1	-1E+10	1	-1E+10	1
4902549	101	C	05/31/2023	08:55	-132.947	47.324	0	1075.50	0	3.0700	0	34.3800	0	27.391	0	1063.788	0	7.2	4	2.2	4	-1E+10	1	-1E+10	1	-1E+10	1	-1E+10	1	-1E+10	1	-1E+10	1
4902549	101	C	05/31/2023	08:55	-132.947	47.324	0	1085.40	0	3.0470	0	34.3820	0	27.394	0	1073.555	0	7.3	4	2.2	4	-1E+10	1	-1E+10	1	-1E+10	1	-1E+10	1	-1E+10	1	-1E+10	1
4902549	101	C	05/31/2023	08:55	-132.947	47.324	0	1095.60	0	3.0010	0	34.3810	0	27.398	0	1083.617	0	7.4	4	2.3	4	-1E+10	1	-1E+10	1	-1E+10	1	-1E+10	1	-1E+10	1	-1E+10	1
4902549	101	C	05/31/2023	08:55	-132.947	47.324	0	1105.40	0	2.9720	0	34.3840	0	27.403	0	1093.284	0	7.5	4	2.3	4	-1E+10	1	-1E+10	1	-1E+10	1	-1E+10	1	-1E+10	1	-1E+10	1
4902549	101	C	05/31/2023	08:55	-132.947	47.324	0	1115.10	0	2.9530	0	34.3880	0	27.408	0	1102.852	0	7.5	4	2.3	4	-1E+10	1	-1E+10	1	-1E+10	1	-1E+10	1	-1E+10	1	-1E+10	1
4902549	101	C	05/31/2023	08:55	-132.947	47.324	0	1125.00	0	2.9340	0	34.3940	0	27.414	0	1112.618	0	7.5	4	2.3	4	-1E+10	1	-1E+10	1	-1E+10	1	-1E+10	1	-1E+10	1	-1E+10	1
4902549	101	C	05/31/2023	08:55	-132.947	47.324	0	1135.10	0	2.9180	0	34.4000	0	27.421	0	1122.579	0	7.6	4	2.3	4	-1E+10	1	-1E+10	1	-1E+10	1	-1E+10	1	-1E+10	1	-1E+10	1
4902549	101	C	05/31/2023	08:55	-132.947	47.324	0	1145.40	0	2.8990	0	34.4030	0	27.425	0	1132.738	0	7.7	4	2.4	4	-1E+10	1	-1E+10	1	-1E+10	1	-1E+10	1	-1E+10	1	-1E+10	1
4902549	101	C	05/31/2023	08:55	-132.947	47.324	0	1155.60	0	2.8790	0	34.4050	0	27.428	0	1142.798	0	7.8	4	2.4	4	-1E+10	1	-1E+10	1	-1E+10	1	-1E+10	1	-1E+10	1	-1E+10	1
4902549	101	C	05/31/2023	08:55	-132.947	47.324	0	1165.60	0	2.8510	0	34.4100	0	27.435	0	1152.659	0	8.0	4	2.5	4	-1E+10	1	-1E+10	1	-1E+10	1	-1E+10	1	-1E+10	1	-1E+10	1
4902549	101	C	05/31/2023	08:55	-132.947	47.324	0	1175.50	0	2.8340	0	34.4150	0	27.440	0	1162.422	0	8.1	4	2.5	4	-1E+10	1	-1E+10	1	-1E+10	1	-1E+10	1	-1E+10	1	-1E+10	1
4902549	101	C	05/31/2023	08:55	-132.947	47.324	0	1185.20	0	2.8210	0	34.4170	0	27.443	0	1171.987	0	8.3	4	2.5	4	-1E+10	1	-1E+10	1	-1E+10	1	-1E+10	1	-1E+10	1	-1E+10	1
4902549	101	C	05/31/2023	08:55	-132.947	47.324	0	1195.00	0	2.8090	0	34.4210	0	27.447	0	1181.650	0	8.4	4	2.6	4	-1E+10	1	-1E+10	1	-1E+10	1	-1E+10	1	-1E+10	1	-1E+10	1
4902549	101	C	05/31/2023	08:55	-132.947	47.324	0	1205.00	0	2.7950	0	34.4240	0	27.451	0	1191.510	0	8.5	4	2.6	4	-1E+10	1	-1E+10	1	-1E+10	1	-1E+10	1	-1E+10	1	-1E+10	1
4902549	101	C	05/31/2023	08:55	-132.947	47.324	0	1215.30	0	2.7850	0	34.4260	0	27.453	0	1201.666	0	8.7	4	2.7	4	-1E+10	1	-1E+10	1	-1E+10	1	-1E+10	1	-1E+10	1	-1E+10	1
4902549	101	C	05/31/2023	08:55	-132.947	47.324	0	1225.20	0	2.7720	0	34.4290	0	27.457	0	1211.426	0	8.8	4	2.7	4	-1E+10	1	-1E+10	1	-1E+10	1	-1E+10	1	-1E+10	1	-1E+10	1
4902549	101	C	05/31/2023	08:55	-132.947	47.324	0	1235.40	0	2.7560	0	34.4310	0	27.460	0	1221.482	0	8.9	4	2.7	4	-1E+10	1	-1E+10	1	-1E+10	1	-1E+10	1	-1E+10	1	-1E+10	1
4902549	101	C	05/31/2023	08:55	-132.947	47.324	0	1245.50	0	2.7380	0	34.4330	0	27.463	0	1231.438	0	9.1	4	2.8	4	-1E+10	1	-1E+10	1	-1E+10	1	-1E+10	1	-1E+10	1	-1E+10	1
4902549	101	C	05/31/2023	08:55	-132.947	47.324	0	1255.40	0	2.7210	0	34.4360	0	27.467	0	1241.198	0	9.3	4	2.9	4	-1E+10	1	-1E+10	1	-1E+10	1	-1E+10	1	-1E+10	1	-1E+10	1
4902549	101	C	05/31/2023	08:55	-132.947	47.324	0	1265.20	0	2.7120	0	34.4400	0	27.471	0	1250.857	0	9.5	4	2.9	4	-1E+10	1	-1E+10	1	-1E+10	1	-1E+10	1	-1E+10	1	-1E+10	1
4902549	101	C	05/31/2023	08:55	-132.947	47.324	0	1275.60	0	2.6990	0	34.4410	0	27.473	0	1261.108	0	9.8	4	3.0	4	-1E+10	1	-1E+10	1	-1E+10	1	-1E+10	1	-1E+10	1	-1E+10	1
4902549	101	C	05/31/2023	08:55	-132.947	47.324	0	1285.40	0	2.6900	0	34.4430	0	27.476	0	1270.768	0	10.3	4	3.1	4	-1E+10	1	-1E+10	1	-1E+10	1	-1E+10	1	-1E+10	1	-1E+10	1
4902549	101	C	05/31/2023	08:55	-132.947	47.324	0	1295.40	0	2.6760	0	34.4460	0	27.479	0	1280.623	0	10.5	4	3.2	4	-1E+10	1	-1E+10	1	-1E+10	1	-1E+10	1	-1E+10	1	-1E+10	1
4902549	101	C	05/31/2023	08:55	-132.947	47.324	0	1305.40	0	2.6530	0	34.4500	0	27.485	0	1290.479	0	10.8	4	3.3	4	-1E+10	1	-1E+10	1	-1E+10	1	-1E+10	1	-1E+10	1	-1E+10	1
4902549	101	C	05/31/2023	08:55	-132.947	47.324	0	1315.10	0	2.6310	0	34.4540	0	27.490	0	1300.038	0	11.3	4	3.4	4	-1E+10	1	-1E+10	1	-1E+10	1	-1E+10	1	-1E+10	1	-1E+10	1
4902549	101	C	05/31/2023	08:55	-132.947	47.324	0	1325.20	0	2.6150	0	34.4580	0	27.494	0	1309.991	0	11.8	4	3.6	4	-1E+10	1	-1E+10	1	-1E+10	1	-1E+10	1	-1E+10	1	-1E+10	1
4902549	101	C	05/31/2023	08:55	-132.947	47.324	0	1335.30	0	2.5980	0	34.4610	0	27.498	0	1319.943	0	12.2	4	3.7	4	-1E+10	1	-1E+10	1	-1E+10	1	-1E+10	1	-1E+10	1	-1E+10	1
4902549	101	C	05/31/2023	08:55	-132.947	47.324	0	1345.70	0	2.5860	0	34.4640	0	27.502	0	1330.191	0	12.4	4	3.8	4	-1E+10	1	-1E+10	1	-1E+10	1	-1E+10	1	-1E+10	1	-1E+10	1
4902549	101	C	05/31/2023	08:55	-132.947	47.324	0	1355.70	0	2.5800	0	34.4650	0	27.503	0	1340.044	0	12.9	4	3.9	4	-1E+10	1	-1E+10	1	-1E+10	1	-1E+10	1	-1E+10	1	-1E+10	1
4902549	101	C	05/31/2023	08:55	-132.947	47.324	0	1365.50	0	2.5730	0	34.4670	0	27.505	0	1349.699	0	13.2	4	4.0	4	-1E+10	1	-1E+10	1	-1E+10	1	-1E+10	1	-1E+10	1	-1E+10	1
4902549	101	C	05/31/2023	08:55	-132.947	47.324	0	1375.40	0	2.5550	0	34.4700	0	27.509	0	1359.453	0	13.4	4	4.1	4	-1E+10	1	-1E+10	1	-1E+10	1	-1E+10	1	-1E+10	1	-1E+10	1
4902549	101	C	05/31/2023	08:55	-132.947	47.324	0	1385.50	0	2.5380	0	34.4730	0	27.513	0	1369.403	0	14.0	4	4.3	4	-1E+10	1	-1E+10	1	-1E+10	1	-1E+10	1	-1E+10	1	-1E+10	1
4902549	101	C	05/31/2023	08:55	-132.947	47.324	0	1395.20	0	2.5240	0	34.4770	0	27.518	0	1378.959	0	14.4	4	4.4	4	-1E+10	1	-1E+10	1	-1E+10	1	-1E+10	1	-1E+10	1	-1E+10	1
4902549	101	C	05/31/2023	08:55	-132.947	47.324	0	1405.20	0	2.5080	0	34.4790	0	27.521	0	1388.809	0	15.1	4	4.6	4	-1E+10	1	-1E+10	1	-1E+10	1	-1E+10	1	-1E+10	1	-1E+10	1
4902549	101	C	05/31/2023	08:55	-132.947	47.324	0	1415.30	0	2.4950	0	34.4830	0	27.525	0	1398.758	0	15.8	4	4.8	4	-1E+10	1	-1E+10	1	-1E+10	1	-1E+10	1	-1E+10	1	-1E+10	1
4902549	101	C	05/31/2023	08:55	-132.947	47.324	0	1425.30	0	2.4860	0	34.4850	0	27.527	0	1408.608	0	16.4	4	5.0	4	-1E+10	1	-1E+10	1	-1E+10	1	-1E+10	1	-1E+10	1	-1E+10	1
4902549	101	C	05/31/2023	08:55	-132.947	47.324	0	1435.60	0	2.4670	0	34.4880	0	27.531	0	1418.753	0	17.0	4	5.2	4	-1E+10	1	-1E+10	1	-1E+10	1	-1E+10	1	-1E+10	1	-1E+10	1
4902549	101	C	05/31/2023	08:55	-132.947	47.324	0	1445.50	0	2.4540	0	34.4910	0	27.535	0	1428.503	0	17.7	4	5.4	4	-1E+10	1	-1E+10	1	-1E+10	1	-1E+10	1	-1E+10	1	-1E+10	1
4902549	101	C	05/31/2023	08:55	-132.947	47.324	0	1455.40	0	2.4440	0	34.4940	0	27.538	0	1438.253	0	18.2	4	5.6	4	-1E+10	1	-1E+10	1	-1E+10	1	-1E+10	1	-1E+10	1	-1E+10	1
4902549	101	C	05/31/2023	08:55	-132.947	47.324	0	1465.60	0	2.4280	0	34.4960	0	27.541	0	1448.298	0	18.9	4	5.8	4	-1E+10	1	-1E+10	1	-1E+10	1	-1E+10	1	-1E+10	1	-1E+10	1
4902549	101	C	05/31/2023	08:55	-132.947	47.324	0	1475.30	0	2.4130	0	34.4980	0	27.544	0	1457.850	0	19.5	4	5.9	4	-1E+10	1	-1E+10	1	-1E+10	1	-1E+10	1	-1E+10	1	-1E+10	1
4902549	101	C	05/31/2023	08:55	-132.947	47.324	0	1485.30	0	2.4090	0	34.5000	0	27.546	0	1467.697	0	20.0	4	6.1	4	-1E+10	1	-1E+10	1	-1E+10	1	-1E+10	1	-1E+10	1	-1E+10	1
4902549	101	C	05/31/2023	08:55	-132.947	47.324	0	1495.20	0	2.4010	0	34.5030	0	27.549	0	1477.445	0	20.9	4	6.3	4	-1E+10	1	-1E+10	1	-1E+10	1	-1E+10	1	-1E+10	1	-1E+10	1
4902549	101	C	05/31/2023	08:55	-132.947	47.324	0	1505.40	0	2.3970	0	34.5060	0	27.552	0	1487.488	0	21.6	4	6.6	4	-1E+10	1	-1E+10	1	-1E+10	1	-1E+10	1	-1E+10	1	-1E+10	1
4902549	101	C	05/31/2023	08:55	-132.947	47.324	0	1515.70	0	2.3830	0	34.5090	0	27.556	0	1497.629	0	22.4	4	6.8	4	-1E+10	1	-1E+10	1	-1E+10	1	-1E+10	1	-1E+10	1	-1E+10	1
4902549	101	C	05/31/2023	08:55	-132.947	47.324	0	1525.50	0	2.3690	0	34.5110	0	27.558	0	1507.277	0	23.1	4	7.0	4	-1E+10	1	-1E+10	1	-1E+10	1	-1E+10	1	-1E+10	1	-1E+10	1
4902549	101	C	05/31/2023	08:55	-132.947	47.324	0	1535.30	0	2.3570	0	34.5140	0	27.562	0	1516.925	0	23.7	4	7.2	4	-1E+10	1	-1E+10	1	-1E+10	1	-1E+10	1	-1E+10	1	-1E+10	1
4902549	101	C	05/31/2023	08:55	-132.947	47.324	0	1545.20	0	2.3470	0	34.5160	0	27.564	0	1526.671	0	24.2	4	7.4	4	-1E+10	1	-1E+10	1	-1E+10	1	-1E+10	1	-1E+10	1	-1E+10	1
4902549	101	C	05/31/2023	08:55	-132.947	47.324	0	1555.00	0	2.3400	0	34.5170	0	27.566	0	1536.318	0	24.8	4	7.5	4	-1E+10	1	-1E+10	1	-1E+10	1	-1E+10	1	-1E+10	1	-1E+10	1
4902549	101	C	05/31/2023	08:55	-132.947	47.324	0	1565.30	0	2.3230	0	34.5200	0	27.570	0	1546.456	0	25.4	4	7.7	4	-1E+10	1	-1E+10	1	-1E+10	1	-1E+10	1	-1E+10	1	-1E+10	1
4902549	101	C	05/31/2023	08:55	-132.947	47.324	0	1575.20	0	2.3100	0	34.5210	0	27.572	0	1556.201	0	25.7	4	7.8	4	-1E+10	1	-1E+10	1	-1E+10	1	-1E+10	1	-1E+10	1	-1E+10	1
4902549	101	C	05/31/2023	08:55	-132.947	47.324	0	1585.30	0	2.3010	0	34.5220	0	27.573	0	1566.142	0	26.1	4	7.9	4	-1E+10	1	-1E+10	1	-1E+10	1	-1E+10	1	-1E+10	1	-1E+10	1
4902549	101	C	05/31/2023	08:55	-132.947	47.324	0	1595.20	0	2.2910	0	34.5230	0	27.575	0	1575.885	0	26.6	4	8.1	4	-1E+10	1	-1E+10	1	-1E+10	1	-1E+10	1	-1E+10	1	-1E+10	1
4902549	101	C	05/31/2023	08:55	-132.947	47.324	0	1605.20	0	2.2790	0	34.5250	0	27.577	0	1585.726	0	27.2	4	8.3	4	-1E+10	1	-1E+10	1	-1E+10	1	-1E+10	1	-1E+10	1	-1E+10	1
4902549	101	C	05/31/2023	08:55	-132.947	47.324	0	1615.30	0	2.2640	0	34.5280	0	27.581	0	1595.666	0	28.0	4	8.5	4	-1E+10	1	-1E+10	1	-1E+10	1	-1E+10	1	-1E+10	1	-1E+10	1
4902549	101	C	05/31/2023	08:55	-132.947	47.324	0	1625.40	0	2.2490	0	34.5300	0	27.584	0	1605.605	0	28.7	4	8.7	4	-1E+10	1	-1E+10	1	-1E+10	1	-1E+10	1	-1E+10	1	-1E+10	1
4902549	101	C	05/31/2023	08:55	-132.947	47.324	0	1635.40	0	2.2350	0	34.5320	0	27.587	0	1615.445	0	29.2	4	8.8	4	-1E+10	1	-1E+10	1	-1E+10	1	-1E+10	1	-1E+10	1	-1E+10	1
4902549	101	C	05/31/2023	08:55	-132.947	47.324	0	1645.60	0	2.2160	0	34.5330	0	27.589	0	1625.481	0	29.8	4	9.0	4	-1E+10	1	-1E+10	1	-1E+10	1	-1E+10	1	-1E+10	1	-1E+10	1
4902549	101	C	05/31/2023	08:55	-132.947	47.324	0	1655.70	0	2.2050	0	34.5350	0	27.592	0	1635.419	0	30.5	4	9.2	4	-1E+10	1	-1E+10	1	-1E+10	1	-1E+10	1	-1E+10	1	-1E+10	1
4902549	101	C	05/31/2023	08:55	-132.947	47.324	0	1665.30	0	2.1920	0	34.5370	0	27.594	0	1644.864	0	31.0	4	9.4	4	-1E+10	1	-1E+10	1	-1E+10	1	-1E+10	1	-1E+10	1	-1E+10	1
4902549	101	C	05/31/2023	08:55	-132.947	47.324	0	1675.40	0	2.1850	0	34.5380	0	27.596	0	1654.801	0	31.4	4	9.5	4	-1E+10	1	-1E+10	1	-1E+10	1	-1E+10	1	-1E+10	1	-1E+10	1
4902549	101	C	05/31/2023	08:55	-132.947	47.324	0	1685.60	0	2.1740	0	34.5390	0	27.598	0	1664.835	0	31.9	4	9.6	4	-1E+10	1	-1E+10	1	-1E+10	1	-1E+10	1	-1E+10	1	-1E+10	1
4902549	101	C	05/31/2023	08:55	-132.947	47.324	0	1695.50	0	2.1630	0	34.5410	0	27.600	0	1674.574	0	32.5	4	9.8	4	-1E+10	1	-1E+10	1	-1E+10	1	-1E+10	1	-1E+10	1	-1E+10	1
4902549	101	C	05/31/2023	08:55	-132.947	47.324	0	1705.30	0	2.1520	0	34.5430	0	27.603	0	1684.215	0	33.2	4	10.0	4	-1E+10	1	-1E+10	1	-1E+10	1	-1E+10	1	-1E+10	1	-1E+10	1
4902549	101	C	05/31/2023	08:55	-132.947	47.324	0	1715.10	0	2.1390	0	34.5450	0	27.605	0	1693.854	0	33.9	4	10.3	4	-1E+10	1	-1E+10	1	-1E+10	1	-1E+10	1	-1E+10	1	-1E+10	1
4902549	101	C	05/31/2023	08:55	-132.947	47.324	0	1725.00	0	2.1280	0	34.5470	0	27.608	0	1703.592	0	34.7	4	10.5	4	-1E+10	1	-1E+10	1	-1E+10	1	-1E+10	1	-1E+10	1	-1E+10	1
4902549	101	C	05/31/2023	08:55	-132.947	47.324	0	1735.00	0	2.1140	0	34.5490	0	27.611	0	1713.427	0	35.3	4	10.7	4	-1E+10	1	-1E+10	1	-1E+10	1	-1E+10	1	-1E+10	1	-1E+10	1
4902549	101	C	05/31/2023	08:55	-132.947	47.324	0	1745.40	0	2.1020	0	34.5510	0	27.613	0	1723.656	0	36.0	4	10.9	4	-1E+10	1	-1E+10	1	-1E+10	1	-1E+10	1	-1E+10	1	-1E+10	1
4902549	101	C	05/31/2023	08:55	-132.947	47.324	0	1755.70	0	2.0930	0	34.5530	0	27.616	0	1733.786	0	36.7	4	11.1	4	-1E+10	1	-1E+10	1	-1E+10	1	-1E+10	1	-1E+10	1	-1E+10	1
4902549	101	C	05/31/2023	08:55	-132.947	47.324	0	1765.50	0	2.0850	0	34.5540	0	27.617	0	1743.423	0	37.4	4	11.3	4	-1E+10	1	-1E+10	1	-1E+10	1	-1E+10	1	-1E+10	1	-1E+10	1
4902549	101	C	05/31/2023	08:55	-132.947	47.324	0	1775.20	0	2.0750	0	34.5560	0	27.619	0	1752.962	0	38.2	4	11.5	4	-1E+10	1	-1E+10	1	-1E+10	1	-1E+10	1	-1E+10	1	-1E+10	1
4902549	101	C	05/31/2023	08:55	-132.947	47.324	0	1785.10	0	2.0680	0	34.5580	0	27.622	0	1762.697	0	38.8	4	11.7	4	-1E+10	1	-1E+10	1	-1E+10	1	-1E+10	1	-1E+10	1	-1E+10	1
4902549	101	C	05/31/2023	08:55	-132.947	47.324	0	1795.10	0	2.0570	0	34.5600	0	27.624	0	1772.529	0	39.6	4	11.9	4	-1E+10	1	-1E+10	1	-1E+10	1	-1E+10	1	-1E+10	1	-1E+10	1
4902549	101	C	05/31/2023	08:55	-132.947	47.324	0	1805.30	0	2.0510	0	34.5610	0	27.625	0	1782.558	0	40.2	4	12.1	4	-1E+10	1	-1E+10	1	-1E+10	1	-1E+10	1	-1E+10	1	-1E+10	1
4902549	101	C	05/31/2023	08:55	-132.947	47.324	0	1815.20	0	2.0430	0	34.5620	0	27.627	0	1792.292	0	41.0	4	12.4	4	-1E+10	1	-1E+10	1	-1E+10	1	-1E+10	1	-1E+10	1	-1E+10	1
4902549	101	C	05/31/2023	08:55	-132.947	47.324	0	1825.40	0	2.0320	0	34.5640	0	27.629	0	1802.320	0	41.8	4	12.6	4	-1E+10	1	-1E+10	1	-1E+10	1	-1E+10	1	-1E+10	1	-1E+10	1
4902549	101	C	05/31/2023	08:55	-132.947	47.324	0	1835.40	0	2.0210	0	34.5660	0	27.632	0	1812.151	0	42.6	4	12.9	4	-1E+10	1	-1E+10	1	-1E+10	1	-1E+10	1	-1E+10	1	-1E+10	1
4902549	101	C	05/31/2023	08:55	-132.947	47.324	0	1845.00	0	2.0130	0	34.5680	0	27.634	0	1821.588	0	43.2	4	13.0	4	-1E+10	1	-1E+10	1	-1E+10	1	-1E+10	1	-1E+10	1	-1E+10	1
4902549	101	C	05/31/2023	08:55	-132.947	47.324	0	1855.30	0	2.0050	0	34.5700	0	27.637	0	1831.713	0	43.8	4	13.2	4	-1E+10	1	-1E+10	1	-1E+10	1	-1E+10	1	-1E+10	1	-1E+10	1
4902549	101	C	05/31/2023	08:55	-132.947	47.324	0	1865.30	0	2.0000	0	34.5700	0	27.637	0	1841.543	0	44.2	4	13.3	4	-1E+10	1	-1E+10	1	-1E+10	1	-1E+10	1	-1E+10	1	-1E+10	1
4902549	101	C	05/31/2023	08:55	-132.947	47.324	0	1875.20	0	1.9950	0	34.5710	0	27.638	0	1851.274	0	44.8	4	13.5	4	-1E+10	1	-1E+10	1	-1E+10	1	-1E+10	1	-1E+10	1	-1E+10	1
4902549	101	C	05/31/2023	08:55	-132.947	47.324	0	1885.30	0	1.9880	0	34.5730	0	27.640	0	1861.201	0	45.4	4	13.7	4	-1E+10	1	-1E+10	1	-1E+10	1	-1E+10	1	-1E+10	1	-1E+10	1
4902549	101	C	05/31/2023	08:55	-132.947	47.324	0	1895.30	0	1.9800	0	34.5740	0	27.642	0	1871.029	0	46.1	4	13.9	4	-1E+10	1	-1E+10	1	-1E+10	1	-1E+10	1	-1E+10	1	-1E+10	1
4902549	101	C	05/31/2023	08:55	-132.947	47.324	0	1905.40	0	1.9750	0	34.5750	0	27.643	0	1880.955	0	46.6	4	14.0	4	-1E+10	1	-1E+10	1	-1E+10	1	-1E+10	1	-1E+10	1	-1E+10	1
4902549	101	C	05/31/2023	08:55	-132.947	47.324	0	1915.70	0	1.9670	0	34.5770	0	27.645	0	1891.077	0	47.2	4	14.2	4	-1E+10	1	-1E+10	1	-1E+10	1	-1E+10	1	-1E+10	1	-1E+10	1
4902549	101	C	05/31/2023	08:55	-132.947	47.324	0	1925.40	0	1.9620	0	34.5780	0	27.647	0	1900.609	0	47.6	4	14.3	4	-1E+10	1	-1E+10	1	-1E+10	1	-1E+10	1	-1E+10	1	-1E+10	1
4902549	101	C	05/31/2023	08:55	-132.947	47.324	0	1935.20	0	1.9570	0	34.5790	0	27.648	0	1910.239	0	48.0	4	14.5	4	-1E+10	1	-1E+10	1	-1E+10	1	-1E+10	1	-1E+10	1	-1E+10	1
4902549	101	C	05/31/2023	08:55	-132.947	47.324	0	1945.50	0	1.9500	0	34.5800	0	27.649	0	1920.360	0	48.3	4	14.6	4	-1E+10	1	-1E+10	1	-1E+10	1	-1E+10	1	-1E+10	1	-1E+10	1
4902549	101	C	05/31/2023	08:55	-132.947	47.324	0	1955.40	0	1.9490	0	34.5810	0	27.650	0	1930.087	0	48.4	4	14.6	4	-1E+10	1	-1E+10	1	-1E+10	1	-1E+10	1	-1E+10	1	-1E+10	1
4902549	101	C	05/31/2023	08:55	-132.947	47.324	0	1965.60	0	1.9440	0	34.5820	0	27.651	0	1940.108	0	48.1	4	14.5	4	-1E+10	1	-1E+10	1	-1E+10	1	-1E+10	1	-1E+10	1	-1E+10	1
4902549	101	C	05/31/2023	08:55	-132.947	47.324	0	1973.40	0	1.9420	0	34.5830	0	27.652	0	1947.772	0	46.3	4	13.9	4	-1E+10	1	-1E+10	1	-1E+10	1	-1E+10	1	-1E+10	1	-1E+10	1
4902549	101	C	05/31/2023	08:55	-132.947	47.324	0																										
4902549	104	C	07/01/2023	00:14	-132.602	47.234	0	0.20	0	14.6680	0	32.3710	0	24.018	0	0.198	0	260.5	4	102.5	4	-1E+10	1	-1E+10	1	-1E+10	1	-1E+10	1	-1E+10	1	-1E+10	1
4902549	104	C	07/01/2023	00:14	-132.602	47.234	0	0.30	0	14.6650	0	32.3410	0	23.995	0	0.298	0	254.4	4	100.1	4	-1E+10	1	-1E+10	1	-1E+10	1	-1E+10	1	-1E+10	1	-1E+10	1
4902549	104	C	07/01/2023	00:14	-132.602	47.234	0	1.10	0	14.6640	0	32.3260	0	23.984	0	1.091	0	254.7	4	100.2	4	-1E+10	1	-1E+10	1	-1E+10	1	-1E+10	1	-1E+10	1	-1E+10	1
4902549	104	C	07/01/2023	00:14	-132.602	47.234	0	2.00	0	14.6650	0	32.2970	0	23.961	0	1.983	0	254.6	4	100.2	4	-1E+10	1	-1E+10	1	-1E+10	1	-1E+10	1	-1E+10	1	-1E+10	1
4902549	104	C	07/01/2023	00:14	-132.602	47.234	0	3.00	0	14.6450	0	32.2970	0	23.965	0	2.975	0	254.8	4	100.2	4	-1E+10	1	-1E+10	1	-1E+10	1	-1E+10	1	-1E+10	1	-1E+10	1
4902549	104	C	07/01/2023	00:14	-132.602	47.234	0	4.00	0	14.6020	0	32.3310	0	24.001	0	3.967	0	254.9	4	100.2	4	-1E+10	1	-1E+10	1	-1E+10	1	-1E+10	1	-1E+10	1	-1E+10	1
4902549	104	C	07/01/2023	00:14	-132.602	47.234	0	5.00	0	14.5700	0	32.3670	0	24.035	0	4.958	0	255.3	4	100.3	4	-1E+10	1	-1E+10	1	-1E+10	1	-1E+10	1	-1E+10	1	-1E+10	1
4902549	104	C	07/01/2023	00:14	-132.602	47.234	0	6.00	0	14.5190	0	32.3720	0	24.050	0	5.950	0	255.8	4	100.4	4	-1E+10	1	-1E+10	1	-1E+10	1	-1E+10	1	-1E+10	1	-1E+10	1
4902549	104	C	07/01/2023	00:14	-132.602	47.234	0	7.00	0	14.4610	0	32.3680	0	24.059	0	6.942	0	256.4	4	100.5	4	-1E+10	1	-1E+10	1	-1E+10	1	-1E+10	1	-1E+10	1	-1E+10	1
4902549	104	C	07/01/2023	00:14	-132.602	47.234	0	7.90	0	14.4240	0	32.3700	0	24.068	0	7.834	0	256.9	4	100.6	4	-1E+10	1	-1E+10	1	-1E+10	1	-1E+10	1	-1E+10	1	-1E+10	1
4902549	104	C	07/01/2023	00:14	-132.602	47.234	0	8.80	0	14.3720	0	32.3610	0	24.072	0	8.727	0	257.7	4	100.9	4	-1E+10	1	-1E+10	1	-1E+10	1	-1E+10	1	-1E+10	1	-1E+10	1
4902549	104	C	07/01/2023	00:14	-132.602	47.234	0	9.90	0	14.2810	0	32.3670	0	24.096	0	9.817	0	258.7	4	101.1	4	-1E+10	1	-1E+10	1	-1E+10	1	-1E+10	1	-1E+10	1	-1E+10	1
4902549	104	C	07/01/2023	00:14	-132.602	47.234	0	11.30	0	14.1730	0	32.3640	0	24.116	0	11.206	0	259.9	4	101.3	4	-1E+10	1	-1E+10	1	-1E+10	1	-1E+10	1	-1E+10	1	-1E+10	1
4902549	104	C	07/01/2023	00:14	-132.602	47.234	0	12.10	0	14.0870	0	32.3590	0	24.130	0	11.999	0	261.1	4	101.6	4	-1E+10	1	-1E+10	1	-1E+10	1	-1E+10	1	-1E+10	1	-1E+10	1
4902549	104	C	07/01/2023	00:14	-132.602	47.234	0	12.80	0	13.9520	0	32.3600	0	24.159	0	12.693	0	261.9	4	101.6	4	-1E+10	1	-1E+10	1	-1E+10	1	-1E+10	1	-1E+10	1	-1E+10	1
4902549	104	C	07/01/2023	00:14	-132.602	47.234	0	13.80	0	13.5780	0	32.3690	0	24.242	0	13.685	0	263.9	4	101.6	4	-1E+10	1	-1E+10	1	-1E+10	1	-1E+10	1	-1E+10	1	-1E+10	1
4902549	104	C	07/01/2023	00:14	-132.602	47.234	0	14.90	0	13.3490	0	32.3670	0	24.286	0	14.775	0	265.0	4	101.6	4	-1E+10	1	-1E+10	1	-1E+10	1	-1E+10	1	-1E+10	1	-1E+10	1
4902549	104	C	07/01/2023	00:14	-132.602	47.234	0	16.00	0	13.1480	0	32.3720	0	24.330	0	15.866	0	265.7	4	101.4	4	-1E+10	1	-1E+10	1	-1E+10	1	-1E+10	1	-1E+10	1	-1E+10	1
4902549	104	C	07/01/2023	00:14	-132.602	47.234	0	17.10	0	12.9460	0	32.3720	0	24.369	0	16.957	0	266.3	4	101.3	4	-1E+10	1	-1E+10	1	-1E+10	1	-1E+10	1	-1E+10	1	-1E+10	1
4902549	104	C	07/01/2023	00:14	-132.602	47.234	0	17.90	0	12.9190	0	32.3700	0	24.373	0	17.750	0	266.2	4	101.2	4	-1E+10	1	-1E+10	1	-1E+10	1	-1E+10	1	-1E+10	1	-1E+10	1
4902549	104	C	07/01/2023	00:14	-132.602	47.234	0	18.70	0	12.8880	0	32.3700	0	24.379	0	18.544	0	265.9	4	101.0	4	-1E+10	1	-1E+10	1	-1E+10	1	-1E+10	1	-1E+10	1	-1E+10	1
4902549	104	C	07/01/2023	00:14	-132.602	47.234	0	19.80	0	12.7780	0	32.3730	0	24.403	0	19.634	0	265.7	4	100.7	4	-1E+10	1	-1E+10	1	-1E+10	1	-1E+10	1	-1E+10	1	-1E+10	1
4902549	104	C	07/01/2023	00:14	-132.602	47.234	0	20.80	0	12.6750	0	32.3710	0	24.421	0	20.626	0	265.8	4	100.5	4	-1E+10	1	-1E+10	1	-1E+10	1	-1E+10	1	-1E+10	1	-1E+10	1
4902549	104	C	07/01/2023	00:14	-132.602	47.234	0	21.80	0	12.5740	0	32.3720	0	24.441	0	21.617	0	266.2	4	100.5	4	-1E+10	1	-1E+10	1	-1E+10	1	-1E+10	1	-1E+10	1	-1E+10	1
4902549	104	C	07/01/2023	00:14	-132.602	47.234	0	22.90	0	12.5080	0	32.3730	0	24.455	0	22.708	0	266.6	4	100.5	4	-1E+10	1	-1E+10	1	-1E+10	1	-1E+10	1	-1E+10	1	-1E+10	1
4902549	104	C	07/01/2023	00:14	-132.602	47.234	0	24.00	0	12.4510	0	32.3720	0	24.465	0	23.799	0	267.7	4	100.8	4	-1E+10	1	-1E+10	1	-1E+10	1	-1E+10	1	-1E+10	1	-1E+10	1
4902549	104	C	07/01/2023	00:14	-132.602	47.234	0	25.10	0	12.3770	0	32.3660	0	24.474	0	24.890	0	269.1	4	101.1	4	-1E+10	1	-1E+10	1	-1E+10	1	-1E+10	1	-1E+10	1	-1E+10	1
4902549	104	C	07/01/2023	00:14	-132.602	47.234	0	25.90	0	12.3460	0	32.3640	0	24.479	0	25.683	0	269.8	4	101.3	4	-1E+10	1	-1E+10	1	-1E+10	1	-1E+10	1	-1E+10	1	-1E+10	1
4902549	104	C	07/01/2023	00:14	-132.602	47.234	0	27.00	0	12.2620	0	32.3650	0	24.495	0	26.774	0	271.2	4	101.7	4	-1E+10	1	-1E+10	1	-1E+10	1	-1E+10	1	-1E+10	1	-1E+10	1
4902549	104	C	07/01/2023	00:14	-132.602	47.234	0	28.00	0	12.2020	0	32.3660	0	24.507	0	27.765	0	272.5	4	102.0	4	-1E+10	1	-1E+10	1	-1E+10	1	-1E+10	1	-1E+10	1	-1E+10	1
4902549	104	C	07/01/2023	00:14	-132.602	47.234	0	29.00	0	12.1420	0	32.3630	0	24.516	0	28.757	0	274.7	4	102.7	4	-1E+10	1	-1E+10	1	-1E+10	1	-1E+10	1	-1E+10	1	-1E+10	1
4902549	104	C	07/01/2023	00:14	-132.602	47.234	0	30.00	0	12.0020	0	32.3530	0	24.535	0	29.748	0	277.4	4	103.4	4	-1E+10	1	-1E+10	1	-1E+10	1	-1E+10	1	-1E+10	1	-1E+10	1
4902549	104	C	07/01/2023	00:14	-132.602	47.234	0	31.20	0	11.5380	0	32.3640	0	24.629	0	30.938	0	280.2	4	103.5	4	-1E+10	1	-1E+10	1	-1E+10	1	-1E+10	1	-1E+10	1	-1E+10	1
4902549	104	C	07/01/2023	00:14	-132.602	47.234	0	32.00	0	10.9690	0	32.3760	0	24.739	0	31.731	0	283.8	4	103.5	4	-1E+10	1	-1E+10	1	-1E+10	1	-1E+10	1	-1E+10	1	-1E+10	1
4902549	104	C	07/01/2023	00:14	-132.602	47.234	0	33.20	0	10.4570	0	32.3690	0	24.822	0	32.921	0	287.2	4	103.6	4	-1E+10	1	-1E+10	1	-1E+10	1	-1E+10	1	-1E+10	1	-1E+10	1
4902549	104	C	07/01/2023	00:14	-132.602	47.234	0	33.80	0	10.1730	0	32.3780	0	24.877	0	33.516	0	288.2	4	103.4	4	-1E+10	1	-1E+10	1	-1E+10	1	-1E+10	1	-1E+10	1	-1E+10	1
4902549	104	C	07/01/2023	00:14	-132.602	47.234	0	34.80	0	9.7340	0	32.3870	0	24.957	0	34.507	0	289.1	4	102.7	4	-1E+10	1	-1E+10	1	-1E+10	1	-1E+10	1	-1E+10	1	-1E+10	1
4902549	104	C	07/01/2023	00:14	-132.602	47.234	0	35.80	0	9.2440	0	32.3860	0	25.035	0	35.499	0	291.1	4	102.3	4	-1E+10	1	-1E+10	1	-1E+10	1	-1E+10	1	-1E+10	1	-1E+10	1
4902549	104	C	07/01/2023	00:14	-132.602	47.234	0	36.90	0	9.1140	0	32.3850	0	25.054	0	36.590	0	290.4	4	101.8	4	-1E+10	1	-1E+10	1	-1E+10	1	-1E+10	1	-1E+10	1	-1E+10	1
4902549	104	C	07/01/2023	00:14	-132.602	47.234	0	37.90	0	9.0100	0	32.3910	0	25.075	0	37.581	0	289.7	4	101.3	4	-1E+10	1	-1E+10	1	-1E+10	1	-1E+10	1	-1E+10	1	-1E+10	1
4902549	104	C	07/01/2023	00:14	-132.602	47.234	0	38.90	0	8.9000	0	32.3960	0	25.096	0	38.573	0	289.6	4	101.1	4	-1E+10	1	-1E+10	1	-1E+10	1	-1E+10	1	-1E+10	1	-1E+10	1
4902549	104	C	07/01/2023	00:14	-132.602	47.234	0	39.90	0	8.8290	0	32.3950	0	25.106	0	39.564	0	289.4	4	100.8	4	-1E+10	1	-1E+10	1	-1E+10	1	-1E+10	1	-1E+10	1	-1E+10	1
4902549	104	C	07/01/2023	00:14	-132.602	47.234	0	41.00	0	8.7540	0	32.3960	0	25.118	0	40.655	0	289.1	4	100.5	4	-1E+10	1	-1E+10	1	-1E+10	1	-1E+10	1	-1E+10	1	-1E+10	1
4902549	104	C	07/01/2023	00:14	-132.602	47.234	0	42.00	0	8.7160	0	32.3970	0	25.125	0	41.646	0	288.8	4	100.4	4	-1E+10	1	-1E+10	1	-1E+10	1	-1E+10	1	-1E+10	1	-1E+10	1
4902549	104	C	07/01/2023	00:14	-132.602	47.234	0	42.90	0	8.6880	0	32.3970	0	25.129	0	42.539	0	288.3	4	100.1	4	-1E+10	1	-1E+10	1	-1E+10	1	-1E+10	1	-1E+10	1	-1E+10	1
4902549	104	C	07/01/2023	00:14	-132.602	47.234	0	43.90	0	8.6490	0	32.3980	0	25.136	0	43.530	0	287.7	4	99.8	4	-1E+10	1	-1E+10	1	-1E+10	1	-1E+10	1	-1E+10	1	-1E+10	1
4902549	104	C	07/01/2023	00:14	-132.602	47.234	0	45.00	0	8.6000	0	32.4000	0	25.145	0	44.621	0	287.0	4	99.5	4	-1E+10	1	-1E+10	1	-1E+10	1	-1E+10	1	-1E+10	1	-1E+10	1
4902549	104	C	07/01/2023	00:14	-132.602	47.234	0	46.10	0	8.5520	0	32.4030	0	25.154	0	45.711	0	286.1	4	99.1	4	-1E+10	1	-1E+10	1	-1E+10	1	-1E+10	1	-1E+10	1	-1E+10	1
4902549	104	C	07/01/2023	00:14	-132.602	47.234	0	46.90	0	8.5190	0	32.4020	0	25.159	0	46.504	0	285.4	4	98.8	4	-1E+10	1	-1E+10	1	-1E+10	1	-1E+10	1	-1E+10	1	-1E+10	1
4902549	104	C	07/01/2023	00:14	-132.602	47.234	0	48.00	0	8.4930	0	32.4020	0	25.163	0	47.595	0	284.4	4	98.4	4	-1E+10	1	-1E+10	1	-1E+10	1	-1E+10	1	-1E+10	1	-1E+10	1
4902549	104	C	07/01/2023	00:14	-132.602	47.234	0	48.90	0	8.4720	0	32.4020	0	25.166	0	48.487	0	283.5	4	98.0	4	-1E+10	1	-1E+10	1	-1E+10	1	-1E+10	1	-1E+10	1	-1E+10	1
4902549	104	C	07/01/2023	00:14	-132.602	47.234	0	50.10	0	8.4560	0	32.4030	0	25.169	0	49.677	0	282.3	4	97.5	4	-1E+10	1	-1E+10	1	-1E+10	1	-1E+10	1	-1E+10	1	-1E+10	1
4902549	104	C	07/01/2023	00:14	-132.602	47.234	0	50.80	0	8.4240	0	32.4030	0	25.174	0	50.371	0	281.5	4	97.2	4	-1E+10	1	-1E+10	1	-1E+10	1	-1E+10	1	-1E+10	1	-1E+10	1
4902549	104	C	07/01/2023	00:14	-132.602	47.234	0	51.80	0	8.3620	0	32.4040	0	25.184	0	51.362	0	280.9	4	96.9	4	-1E+10	1	-1E+10	1	-1E+10	1	-1E+10	1	-1E+10	1	-1E+10	1
4902549	104	C	07/01/2023	00:14	-132.602	47.234	0	52.90	0	8.3160	0	32.4040	0	25.191	0	52.453	0	280.6	4	96.7	4	-1E+10	1	-1E+10	1	-1E+10	1	-1E+10	1	-1E+10	1	-1E+10	1
4902549	104	C	07/01/2023	00:14	-132.602	47.234	0	54.00	0	8.2900	0	32.4070	0	25.197	0	53.544	0	280.0	4	96.4	4	-1E+10	1	-1E+10	1	-1E+10	1	-1E+10	1	-1E+10	1	-1E+10	1
4902549	104	C	07/01/2023	00:14	-132.602	47.234	0	55.10	0	8.2230	0	32.4080	0	25.207	0	54.634	0	279.7	4	96.2	4	-1E+10	1	-1E+10	1	-1E+10	1	-1E+10	1	-1E+10	1	-1E+10	1
4902549	104	C	07/01/2023	00:14	-132.602	47.234	0	56.00	0	8.2030	0	32.4070	0	25.210	0	55.526	0	279.4	4	96.0	4	-1E+10	1	-1E+10	1	-1E+10	1	-1E+10	1	-1E+10	1	-1E+10	1
4902549	104	C	07/01/2023	00:14	-132.602	47.234	0	56.80	0	8.1640	0	32.4030	0	25.212	0	56.320	0	279.0	4	95.8	4	-1E+10	1	-1E+10	1	-1E+10	1	-1E+10	1	-1E+10	1	-1E+10	1
4902549	104	C	07/01/2023	00:14	-132.602	47.234	0	57.80	0	8.1130	0	32.4060	0	25.222	0	57.311	0	278.6	4	95.5	4	-1E+10	1	-1E+10	1	-1E+10	1	-1E+10	1	-1E+10	1	-1E+10	1
4902549	104	C	07/01/2023	00:14	-132.602	47.234	0	58.90	0	8.0720	0	32.4040	0	25.226	0	58.402	0	278.4	4	95.4	4	-1E+10	1	-1E+10	1	-1E+10	1	-1E+10	1	-1E+10	1	-1E+10	1
4902549	104	C	07/01/2023	00:14	-132.602	47.234	0	59.90	0	8.0380	0	32.4000	0	25.228	0	59.393	0	278.1	4	95.2	4	-1E+10	1	-1E+10	1	-1E+10	1	-1E+10	1	-1E+10	1	-1E+10	1
4902549	104	C	07/01/2023	00:14	-132.602	47.234	0	60.80	0	8.0120	0	32.4000	0	25.232	0	60.285	0	278.0	4	95.1	4	-1E+10	1	-1E+10	1	-1E+10	1	-1E+10	1	-1E+10	1	-1E+10	1
4902549	104	C	07/01/2023	00:14	-132.602	47.234	0	62.00	0	7.9660	0	32.4050	0	25.242	0	61.475	0	277.7	4	94.9	4	-1E+10	1	-1E+10	1	-1E+10	1	-1E+10	1	-1E+10	1	-1E+10	1
4902549	104	C	07/01/2023	00:14	-132.602	47.234	0	62.90	0	7.9450	0	32.4030	0	25.244	0	62.367	0	277.3	4	94.7	4	-1E+10	1	-1E+10	1	-1E+10	1	-1E+10	1	-1E+10	1	-1E+10	1
4902549	104	C	07/01/2023	00:14	-132.602	47.234	0	64.10	0	7.9030	0	32.4070	0	25.253	0	63.557	0	277.0	4	94.5	4	-1E+10	1	-1E+10	1	-1E+10	1	-1E+10	1	-1E+10	1	-1E+10	1
4902549	104	C	07/01/2023	00:14	-132.602	47.234	0	64.90	0	7.8830	0	32.4070	0	25.256	0	64.350	0	276.8	4	94.4	4	-1E+10	1	-1E+10	1	-1E+10	1	-1E+10	1	-1E+10	1	-1E+10	1
4902549	104	C	07/01/2023	00:14	-132.602	47.234	0	66.00	0	7.8300	0	32.4090	0	25.265	0	65.440	0	276.6	4	94.2	4	-1E+10	1	-1E+10	1	-1E+10	1	-1E+10	1	-1E+10	1	-1E+10	1
4902549	104	C	07/01/2023	00:14	-132.602	47.234	0	67.20	0	7.7230	0	32.4030	0	25.275	0	66.630	0	276.7	4	94.1	4	-1E+10	1	-1E+10	1	-1E+10	1	-1E+10	1	-1E+10	1	-1E+10	1
4902549	104	C	07/01/2023	00:14	-132.602	47.234	0	68.00	0	7.7120	0	32.4040	0	25.278	0	67.423	0	276.6	4	94.0	4	-1E+10	1	-1E+10	1	-1E+10	1	-1E+10	1	-1E+10	1	-1E+10	1
4902549	104	C	07/01/2023	00:14	-132.602	47.234	0	69.20	0	7.6750	0	32.4030	0	25.282	0	68.613	0	276.2	4	93.8	4	-1E+10	1	-1E+10	1	-1E+10	1	-1E+10	1	-1E+10	1	-1E+10	1
4902549	104	C	07/01/2023	00:14	-132.602	47.234	0	70.10	0	7.6670	0	32.4030	0	25.283	0	69.505	0	276.0	4	93.7	4	-1E+10	1	-1E+10	1	-1E+10	1	-1E+10	1	-1E+10	1	-1E+10	1
4902549	104	C	07/01/2023	00:14	-132.602	47.234	0	71.00	0	7.6620	0	32.4040	0	25.285	0	70.397	0	275.5	4	93.5	4	-1E+10	1	-1E+10	1	-1E+10	1	-1E+10	1	-1E+10	1	-1E+10	1
4902549	104	C	07/01/2023	00:14	-132.602	47.234	0	72.10	0	7.6500	0	32.4060	0	25.288	0	71.488	0	275.2	4	93.4	4	-1E+10	1	-1E+10	1	-1E+10	1	-1E+10	1	-1E+10	1	-1E+10	1
4902549	104	C	07/01/2023	00:14	-132.602	47.234	0	73.10	0	7.6490	0	32.4060	0	25.288	0	72.479	0	274.7	4	93.2	4	-1E+10	1	-1E+10	1	-1E+10	1	-1E+10	1	-1E+10	1	-1E+10	1
4902549	104	C	07/01/2023	00:14	-132.602	47.234	0	74.10	0	7.6460	0	32.4060	0	25.289	0	73.470	0	274.3	4	93.1	4	-1E+10	1	-1E+10	1	-1E+10	1	-1E+10	1	-1E+10	1	-1E+10	1
4902549	104	C	07/01/2023	00:14	-132.602	47.234	0	75.00	0	7.6450	0	32.4070	0	25.290	0	74.362	0	274.0	4	93.0	4	-1E+10	1	-1E+10	1	-1E+10	1	-1E+10	1	-1E+10	1	-1E+10	1
4902549	104	C	07/01/2023	00:14	-132.602	47.234	0	75.80	0	7.6310	0	32.4090	0	25.293	0	75.155	0	273.6	4	92.8	4	-1E+10	1	-1E+10	1	-1E+10	1	-1E+10	1	-1E+10	1	-1E+10	1
4902549	104	C	07/01/2023	00:14	-132.602	47.234	0	76.90	0	7.6190	0	32.4080	0	25.294	0	76.246	0	273.3	4	92.7	4	-1E+10	1	-1E+10	1	-1E+10	1	-1E+10	1	-1E+10	1	-1E+10	1
4902549	104	C	07/01/2023	00:14	-132.602	47.234	0	78.10	0	7.6030	0	32.4080	0	25.296	0	77.435	0	272.7	4	92.4	4	-1E+10	1	-1E+10	1	-1E+10	1	-1E+10	1	-1E+10	1	-1E+10	1
4902549	104	C	07/01/2023	00:14	-132.602	47.234	0	79.00	0	7.5840	0	32.4080	0	25.299	0	78.328	0	272.6	4	92.4	4	-1E+10	1	-1E+10	1	-1E+10	1	-1E+10	1	-1E+10	1	-1E+10	1
4902549	104	C	07/01/2023	00:14	-132.602	47.234	0	79.80	0	7.5880	0	32.4080	0	25.299	0	79.121	0	272.4	4	92.3	4	-1E+10	1	-1E+10	1	-1E+10	1	-1E+10	1	-1E+10	1	-1E+10	1
4902549	104	C	07/01/2023	00:14	-132.602	47.234	0	81.00	0	7.5730	0	32.4090	0	25.301	0	80.310	0	272.2	4	92.2	4	-1E+10	1	-1E+10	1	-1E+10	1	-1E+10	1	-1E+10	1	-1E+10	1
4902549	104	C	07/01/2023	00:14	-132.602	47.234	0	81.90	0	7.5660	0	32.4080	0	25.302	0	81.202	0	272.0	4	92.1	4	-1E+10	1	-1E+10	1	-1E+10	1	-1E+10	1	-1E+10	1	-1E+10	1
4902549	104	C	07/01/2023	00:14	-132.602	47.234	0	82.80	0	7.5730	0	32.4100	0	25.302	0	82.094	0	278.7	4	94.4	4	-1E+10	1	-1E+10	1	-1E+10	1	-1E+10	1	-1E+10	1	-1E+10	1
4902549	104	C	07/01/2023	00:14	-132.602	47.234	0	84.00	0	7.5640	0	32.4090	0	25.303	0	83.284	0	278.4	4	94.3	4	-1E+10	1	-1E+10	1	-1E+10	1	-1E+10	1	-1E+10	1	-1E+10	1
4902549	104	C	07/01/2023	00:14	-132.602	47.234	0	85.10	0	7.5570	0	32.4080	0	25.303	0	84.374	0	278.2	4	94.2	4	-1E+10	1	-1E+10	1	-1E+10	1	-1E+10	1	-1E+10	1	-1E+10	1
4902549	104	C	07/01/2023	00:14	-132.602	47.234	0	86.00	0	7.5650	0	32.4090	0	25.303	0	85.267	0	278.1	4	94.2	4	-1E+10	1	-1E+10	1	-1E+10	1	-1E+10	1	-1E+10	1	-1E+10	1
4902549	104	C	07/01/2023	00:14	-132.602	47.234	0	86.80	0	7.6000	0	32.4200	0	25.306	0	86.060	0	277.7	4	94.1	4	-1E+10	1	-1E+10	1	-1E+10	1	-1E+10	1	-1E+10	1	-1E+10	1
4902549	104	C	07/01/2023	00:14	-132.602	47.234	0	88.00	0	7.5880	0	32.4210	0	25.309	0	87.249	0	277.6	4	94.1	4	-1E+10	1	-1E+10	1	-1E+10	1	-1E+10	1	-1E+10	1	-1E+10	1
4902549	104	C	07/01/2023	00:14	-132.602	47.234	0	89.10	0	7.5640	0	32.4180	0	25.310	0	88.339	0	277.5	4	94.0	4	-1E+10	1	-1E+10	1	-1E+10	1	-1E+10	1	-1E+10	1	-1E+10	1
4902549	104	C	07/01/2023	00:14	-132.602	47.234	0	89.90	0	7.5750	0	32.4210	0	25.311	0	89.132	0	277.5	4	94.0	4	-1E+10	1	-1E+10	1	-1E+10	1	-1E+10	1	-1E+10	1	-1E+10	1
4902549	104	C	07/01/2023	00:14	-132.602	47.234	0	90.70	0	7.5720	0	32.4210	0	25.311	0	89.925	0	277.2	4	93.9	4	-1E+10	1	-1E+10	1	-1E+10	1	-1E+10	1	-1E+10	1	-1E+10	1
4902549	104	C	07/01/2023	00:14	-132.602	47.234	0	91.70	0	7.5560	0	32.4200	0	25.313	0	90.917	0	276.9	4	93.8	4	-1E+10	1	-1E+10	1	-1E+10	1	-1E+10	1	-1E+10	1	-1E+10	1
4902549	104	C	07/01/2023	00:14	-132.602	47.234	0	92.70	0	7.5270	0	32.4190	0	25.316	0	91.908	0	276.7	4	93.7	4	-1E+10	1	-1E+10	1	-1E+10	1	-1E+10	1	-1E+10	1	-1E+10	1
4902549	104	C	07/01/2023	00:14	-132.602	47.234	0	94.00	0	7.5170	0	32.4200	0	25.318	0	93.197	0	275.9	4	93.4	4	-1E+10	1	-1E+10	1	-1E+10	1	-1E+10	1	-1E+10	1	-1E+10	1
4902549	104	C	07/01/2023	00:14	-132.602	47.234	0	95.00	0	7.5140	0	32.4220	0	25.320	0	94.188	0	275.3	4	93.1	4	-1E+10	1	-1E+10	1	-1E+10	1	-1E+10	1	-1E+10	1	-1E+10	1
4902549	104	C	07/01/2023	00:14	-132.602	47.234	0	95.90	0	7.5140	0	32.4240	0	25.322	0	95.080	0	274.4	4	92.8	4	-1E+10	1	-1E+10	1	-1E+10	1	-1E+10	1	-1E+10	1	-1E+10	1
4902549	104	C	07/01/2023	00:14	-132.602	47.234	0	97.30	0	7.5170	0	32.4280	0	25.324	0	96.468	0	272.9	4	92.3	4	-1E+10	1	-1E+10	1	-1E+10	1	-1E+10	1	-1E+10	1	-1E+10	1
4902549	104	C	07/01/2023	00:14	-132.602	47.234	0	98.20	0	7.5100	0	32.4280	0	25.325	0	97.360	0	271.6	4	91.9	4	-1E+10	1	-1E+10	1	-1E+10	1	-1E+10	1	-1E+10	1	-1E+10	1
4902549	104	C	07/01/2023	00:14	-132.602	47.234	0	99.00	0	7.5050	0	32.4280	0	25.326	0	98.153	0	270.1	4	91.4	4	-1E+10	1	-1E+10	1	-1E+10	1	-1E+10	1	-1E+10	1	-1E+10	1
4902549	104	C	07/01/2023	00:14	-132.602	47.234	0	100.20	0	7.4670	0	32.4380	0	25.339	0	99.342	0	268.1	4	90.6	4	-1E+10	1	-1E+10	1	-1E+10	1	-1E+10	1	-1E+10	1	-1E+10	1
4902549	104	C	07/01/2023	00:14	-132.602	47.234	0	100.90	0	7.4610	0	32.4620	0	25.359	0	100.036	0	266.8	4	90.2	4	-1E+10	1	-1E+10	1	-1E+10	1	-1E+10	1	-1E+10	1	-1E+10	1
4902549	104	C	07/01/2023	00:14	-132.602	47.234	0	102.00	0	7.4330	0	32.4980	0	25.391	0	101.126	0	263.8	4	89.1	4	-1E+10	1	-1E+10	1	-1E+10	1	-1E+10	1	-1E+10	1	-1E+10	1
4902549	104	C	07/01/2023	00:14	-132.602	47.234	0	103.10	0	7.3840	0	32.5390	0	25.430	0	102.216	0	262.1	4	88.5	4	-1E+10	1	-1E+10	1	-1E+10	1	-1E+10	1	-1E+10	1	-1E+10	1
4902549	104	C	07/01/2023	00:14	-132.602	47.234	0	104.10	0	7.3730	0	32.5430	0	25.435	0	103.208	0	261.0	4	88.1	4	-1E+10	1	-1E+10	1	-1E+10	1	-1E+10	1	-1E+10	1	-1E+10	1
4902549	104	C	07/01/2023	00:14	-132.602	47.234	0	105.10	0	7.3700	0	32.5440	0	25.436	0	104.199	0	259.3	4	87.5	4	-1E+10	1	-1E+10	1	-1E+10	1	-1E+10	1	-1E+10	1	-1E+10	1
4902549	104	C	07/01/2023	00:14	-132.602	47.234	0	105.90	0	7.3650	0	32.5450	0	25.437	0	104.992	0	257.7	4	87.0	4	-1E+10	1	-1E+10	1	-1E+10	1	-1E+10	1	-1E+10	1	-1E+10	1
4902549	104	C	07/01/2023	00:14	-132.602	47.234	0	106.80	0	7.3570	0	32.5500	0	25.442	0	105.884	0	256.1	4	86.4	4	-1E+10	1	-1E+10	1	-1E+10	1	-1E+10	1	-1E+10	1	-1E+10	1
4902549	104	C	07/01/2023	00:14	-132.602	47.234	0	107.90	0	7.3340	0	32.5760	0	25.466	0	106.974	0	254.0	4	85.7	4	-1E+10	1	-1E+10	1	-1E+10	1	-1E+10	1	-1E+10	1	-1E+10	1
4902549	104	C	07/01/2023	00:14	-132.602	47.234	0	109.10	0	7.2870	0	32.6210	0	25.508	0	108.164	0	251.7	4	84.8	4	-1E+10	1	-1E+10	1	-1E+10	1	-1E+10	1	-1E+10	1	-1E+10	1
4902549	104	C	07/01/2023	00:14	-132.602	47.234	0	110.10	0	7.2310	0	32.6500	0	25.538	0	109.155	0	250.2	4	84.3	4	-1E+10	1	-1E+10	1	-1E+10	1	-1E+10	1	-1E+10	1	-1E+10	1
4902549	104	C	07/01/2023	00:14	-132.602	47.234	0	111.00	0	7.1910	0	32.6780	0	25.566	0	110.047	0	249.1	4	83.8	4	-1E+10	1	-1E+10	1	-1E+10	1	-1E+10	1	-1E+10	1	-1E+10	1
4902549	104	C	07/01/2023	00:14	-132.602	47.234	0	111.90	0	7.1670	0	32.6940	0	25.582	0	110.939	0	247.9	4	83.4	4	-1E+10	1	-1E+10	1	-1E+10	1	-1E+10	1	-1E+10	1	-1E+10	1
4902549	104	C	07/01/2023	00:14	-132.602	47.234	0	113.10	0	7.1330	0	32.7280	0	25.613	0	112.128	0	246.6	4	82.9	4	-1E+10	1	-1E+10	1	-1E+10	1	-1E+10	1	-1E+10	1	-1E+10	1
4902549	104	C	07/01/2023	00:14	-132.602	47.234	0	114.00	0	7.0890	0	32.7490	0	25.636	0	113.020	0	245.5	4	82.4	4	-1E+10	1	-1E+10	1	-1E+10	1	-1E+10	1	-1E+10	1	-1E+10	1
4902549	104	C	07/01/2023	00:14	-132.602	47.234	0	114.90	0	7.0530	0	32.7770	0	25.662	0	113.912	0	244.3	4	82.0	4	-1E+10	1	-1E+10	1	-1E+10	1	-1E+10	1	-1E+10	1	-1E+10	1
4902549	104	C	07/01/2023	00:14	-132.602	47.234	0	116.10	0	7.0350	0	32.7950	0	25.679	0	115.101	0	242.1	4	81.2	4	-1E+10	1	-1E+10	1	-1E+10	1	-1E+10	1	-1E+10	1	-1E+10	1
4902549	104	C	07/01/2023	00:14	-132.602	47.234	0	117.10	0	7.0230	0	32.8080	0	25.691	0	116.093	0	239.5	4	80.4	4	-1E+10	1	-1E+10	1	-1E+10	1	-1E+10	1	-1E+10	1	-1E+10	1
4902549	104	C	07/01/2023	00:14	-132.602	47.234	0	118.00	0	6.9960	0	32.8350	0	25.716	0	116.985	0	238.2	4	79.9	4	-1E+10	1	-1E+10	1	-1E+10	1	-1E+10	1	-1E+10	1	-1E+10	1
4902549	104	C	07/01/2023	00:14	-132.602	47.234	0	118.90	0	6.9450	0	32.8770	0	25.756	0	117.877	0	236.7	4	79.3	4	-1E+10	1	-1E+10	1	-1E+10	1	-1E+10	1	-1E+10	1	-1E+10	1
4902549	104	C	07/01/2023	00:14	-132.602	47.234	0	119.80	0	6.8860	0	32.9230	0	25.800	0	118.769	0	235.4	4	78.8	4	-1E+10	1	-1E+10	1	-1E+10	1	-1E+10	1	-1E+10	1	-1E+10	1
4902549	104	C	07/01/2023	00:14	-132.602	47.234	0	120.80	0	6.8360	0	32.9660	0	25.840	0	119.760	0	234.1	4	78.3	4	-1E+10	1	-1E+10	1	-1E+10	1	-1E+10	1	-1E+10	1	-1E+10	1
4902549	104	C	07/01/2023	00:14	-132.602	47.234	0	122.10	0	6.8240	0	32.9860	0	25.858	0	121.048	0	231.7	4	77.5	4	-1E+10	1	-1E+10	1	-1E+10	1	-1E+10	1	-1E+10	1	-1E+10	1
4902549	104	C	07/01/2023	00:14	-132.602	47.234	0	123.00	0	6.8180	0	33.0050	0	25.873	0	121.940	0	229.9	4	76.9	4	-1E+10	1	-1E+10	1	-1E+10	1	-1E+10	1	-1E+10	1	-1E+10	1
4902549	104	C	07/01/2023	00:14	-132.602	47.234	0	124.00	0	6.8110	0	33.0130	0	25.881	0	122.931	0	227.6	4	76.1	4	-1E+10	1	-1E+10	1	-1E+10	1	-1E+10	1	-1E+10	1	-1E+10	1
4902549	104	C	07/01/2023	00:14	-132.602	47.234	0	125.10	0	6.7490	0	33.0480	0	25.916	0	124.021	0	224.8	4	75.1	4	-1E+10	1	-1E+10	1	-1E+10	1	-1E+10	1	-1E+10	1	-1E+10	1
4902549	104	C	07/01/2023	00:14	-132.602	47.234	0	125.90	0	6.7040	0	33.0750	0	25.944	0	124.814	0	222.8	4	74.4	4	-1E+10	1	-1E+10	1	-1E+10	1	-1E+10	1	-1E+10	1	-1E+10	1
4902549	104	C	07/01/2023	00:14	-132.602	47.234	0	127.10	0	6.6410	0	33.1260	0	25.992	0	126.004	0	219.7	4	73.3	4	-1E+10	1	-1E+10	1	-1E+10	1	-1E+10	1	-1E+10	1	-1E+10	1
4902549	104	C	07/01/2023	00:14	-132.602	47.234	0	127.90	0	6.6810	0	33.1500	0	26.006	0	126.796	0	217.5	4	72.6	4	-1E+10	1	-1E+10	1	-1E+10	1	-1E+10	1	-1E+10	1	-1E+10	1
4902549	104	C	07/01/2023	00:14	-132.602	47.234	0	129.00	0	6.7550	0	33.1850	0	26.024	0	127.887	0	214.9	4	71.8	4	-1E+10	1	-1E+10	1	-1E+10	1	-1E+10	1	-1E+10	1	-1E+10	1
4902549	104	C	07/01/2023	00:14	-132.602	47.234	0	129.90	0	6.7920	0	33.2020	0	26.032	0	128.778	0	213.2	4	71.3	4	-1E+10	1	-1E+10	1	-1E+10	1	-1E+10	1	-1E+10	1	-1E+10	1
4902549	104	C	07/01/2023	00:14	-132.602	47.234	0	131.10	0	6.8520	0	33.2290	0	26.045	0	129.968	0	211.5	4	70.9	4	-1E+10	1	-1E+10	1	-1E+10	1	-1E+10	1	-1E+10	1	-1E+10	1
4902549	104	C	07/01/2023	00:14	-132.602	47.234	0	132.00	0	6.8500	0	33.2410	0	26.055	0	130.860	0	210.6	4	70.6	4	-1E+10	1	-1E+10	1	-1E+10	1	-1E+10	1	-1E+10	1	-1E+10	1
4902549	104	C	07/01/2023	00:14	-132.602	47.234	0	132.90	0	6.8400	0	33.2510	0	26.064	0	131.752	0	209.5	4	70.2	4	-1E+10	1	-1E+10	1	-1E+10	1	-1E+10	1	-1E+10	1	-1E+10	1
4902549	104	C	07/01/2023	00:14	-132.602	47.234	0	134.20	0	6.8160	0	33.2710	0	26.083	0	133.040	0	207.8	4	69.6	4	-1E+10	1	-1E+10	1	-1E+10	1	-1E+10	1	-1E+10	1	-1E+10	1
4902549	104	C	07/01/2023	00:14	-132.602	47.234	0	135.10	0	6.7980	0	33.3010	0	26.109	0	133.932	0	206.6	4	69.2	4	-1E+10	1	-1E+10	1	-1E+10	1	-1E+10	1	-1E+10	1	-1E+10	1
4902549	104	C	07/01/2023	00:14	-132.602	47.234	0	135.80	0	6.7470	0	33.3160	0	26.128	0	134.626	0	205.5	4	68.8	4	-1E+10	1	-1E+10	1	-1E+10	1	-1E+10	1	-1E+10	1	-1E+10	1
4902549	104	C	07/01/2023	00:14	-132.602	47.234	0	136.70	0	6.7220	0	33.3230	0	26.137	0	135.518	0	203.3	4	68.0	4	-1E+10	1	-1E+10	1	-1E+10	1	-1E+10	1	-1E+10	1	-1E+10	1
4902549	104	C	07/01/2023	00:14	-132.602	47.234	0	137.70	0	6.7560	0	33.3630	0	26.164	0	136.509	0	201.0	4	67.3	4	-1E+10	1	-1E+10	1	-1E+10	1	-1E+10	1	-1E+10	1	-1E+10	1
4902549	104	C	07/01/2023	00:14	-132.602	47.234	0	138.70	0	6.7530	0	33.3750	0	26.174	0	137.500	0	198.7	4	66.5	4	-1E+10	1	-1E+10	1	-1E+10	1	-1E+10	1	-1E+10	1	-1E+10	1
4902549	104	C	07/01/2023	00:14	-132.602	47.234	0	139.70	0	6.7530	0	33.3870	0	26.183	0	138.491	0	196.3	4	65.7	4	-1E+10	1	-1E+10	1	-1E+10	1	-1E+10	1	-1E+10	1	-1E+10	1
4902549	104	C	07/01/2023	00:14	-132.602	47.234	0	140.80	0	6.7470	0	33.4220	0	26.212	0	139.581	0	193.5	4	64.8	4	-1E+10	1	-1E+10	1	-1E+10	1	-1E+10	1	-1E+10	1	-1E+10	1
4902549	104	C	07/01/2023	00:14	-132.602	47.234	0	141.90	0	6.7250	0	33.4690	0	26.252	0	140.671	0	191.2	4	64.0	4	-1E+10	1	-1E+10	1	-1E+10	1	-1E+10	1	-1E+10	1	-1E+10	1
4902549	104	C	07/01/2023	00:14	-132.602	47.234	0	143.10	0	6.7100	0	33.4970	0	26.276	0	141.860	0	189.0	4	63.3	4	-1E+10	1	-1E+10	1	-1E+10	1	-1E+10	1	-1E+10	1	-1E+10	1
4902549	104	C	07/01/2023	00:14	-132.602	47.234	0	144.10	0	6.6990	0	33.5170	0	26.293	0	142.851	0	187.4	4	62.7	4	-1E+10	1	-1E+10	1	-1E+10	1	-1E+10	1	-1E+10	1	-1E+10	1
4902549	104	C	07/01/2023	00:14	-132.602	47.234	0	144.70	0	6.6740	0	33.5530	0	26.325	0	143.446	0	186.7	4	62.5	4	-1E+10	1	-1E+10	1	-1E+10	1	-1E+10	1	-1E+10	1	-1E+10	1
4902549	104	C	07/01/2023	00:14	-132.602	47.234	0	145.80	0	6.6570	0	33.5760	0	26.345	0	144.536	0	185.7	4	62.1	4	-1E+10	1	-1E+10	1	-1E+10	1	-1E+10	1	-1E+10	1	-1E+10	1
4902549	104	C	07/01/2023	00:14	-132.602	47.234	0	146.90	0	6.6510	0	33.5850	0	26.353	0	145.626	0	184.9	4	61.9	4	-1E+10	1	-1E+10	1	-1E+10	1	-1E+10	1	-1E+10	1	-1E+10	1
4902549	104	C	07/01/2023	00:14	-132.602	47.234	0	147.90	0	6.6510	0	33.5850	0	26.353	0	146.617	0	183.8	4	61.5	4	-1E+10	1	-1E+10	1	-1E+10	1	-1E+10	1	-1E+10	1	-1E+10	1
4902549	104	C	07/01/2023	00:14	-132.602	47.234	0	149.00	0	6.6430	0	33.5950	0	26.362	0	147.707	0	182.8	4	61.1	4	-1E+10	1	-1E+10	1	-1E+10	1	-1E+10	1	-1E+10	1	-1E+10	1
4902549	104	C	07/01/2023	00:14	-132.602	47.234	0	149.80	0	6.6360	0	33.6010	0	26.368	0	148.500	0	182.0	4	60.9	4	-1E+10	1	-1E+10	1	-1E+10	1	-1E+10	1	-1E+10	1	-1E+10	1
4902549	104	C	07/01/2023	00:14	-132.602	47.234	0	150.90	0	6.6310	0	33.6070	0	26.373	0	149.590	0	180.9	4	60.5	4	-1E+10	1	-1E+10	1	-1E+10	1	-1E+10	1	-1E+10	1	-1E+10	1
4902549	104	C	07/01/2023	00:14	-132.602	47.234	0	152.10	0	6.6270	0	33.6120	0	26.377	0	150.779	0	179.7	4	60.1	4	-1E+10	1	-1E+10	1	-1E+10	1	-1E+10	1	-1E+10	1	-1E+10	1
4902549	104	C	07/01/2023	00:14	-132.602	47.234	0	152.90	0	6.6160	0	33.6240	0	26.388	0	151.571	0	178.9	4	59.8	4	-1E+10	1	-1E+10	1	-1E+10	1	-1E+10	1	-1E+10	1	-1E+10	1
4902549	104	C	07/01/2023	00:14	-132.602	47.234	0	153.70	0	6.5990	0	33.6400	0	26.403	0	152.364	0	178.4	4	59.6	4	-1E+10	1	-1E+10	1	-1E+10	1	-1E+10	1	-1E+10	1	-1E+10	1
4902549	104	C	07/01/2023	00:14	-132.602	47.234	0	155.00	0	6.5860	0	33.6470	0	26.410	0	153.652	0	177.7	4	59.4	4	-1E+10	1	-1E+10	1	-1E+10	1	-1E+10	1	-1E+10	1	-1E+10	1
4902549	104	C	07/01/2023	00:14	-132.602	47.234	0	156.30	0	6.5600	0	33.6600	0	26.424	0	154.941	0	177.0	4	59.1	4	-1E+10	1	-1E+10	1	-1E+10	1	-1E+10	1	-1E+10	1	-1E+10	1
4902549	104	C	07/01/2023	00:14	-132.602	47.234	0	157.20	0	6.5590	0	33.6600	0	26.424	0	155.832	0	176.3	4	58.9	4	-1E+10	1	-1E+10	1	-1E+10	1	-1E+10	1	-1E+10	1	-1E+10	1
4902549	104	C	07/01/2023	00:14	-132.602	47.234	0	158.00	0	6.5570	0	33.6620	0	26.426	0	156.625	0	175.7	4	58.7	4	-1E+10	1	-1E+10	1	-1E+10	1	-1E+10	1	-1E+10	1	-1E+10	1
4902549	104	C	07/01/2023	00:14	-132.602	47.234	0	158.90	0	6.5530	0	33.6640	0	26.428	0	157.517	0	174.9	4	58.4	4	-1E+10	1	-1E+10	1	-1E+10	1	-1E+10	1	-1E+10	1	-1E+10	1
4902549	104	C	07/01/2023	00:14	-132.602	47.234	0	159.80	0	6.5430	0	33.6710	0	26.435	0	158.409	0	174.4	4	58.2	4	-1E+10	1	-1E+10	1	-1E+10	1	-1E+10	1	-1E+10	1	-1E+10	1
4902549	104	C	07/01/2023	00:14	-132.602	47.234	0	160.70	0	6.5300	0	33.6820	0	26.445	0	159.301	0	173.9	4	58.1	4	-1E+10	1	-1E+10	1	-1E+10	1	-1E+10	1	-1E+10	1	-1E+10	1
4902549	104	C	07/01/2023	00:14	-132.602	47.234	0	162.00	0	6.5170	0	33.6860	0	26.450	0	160.589	0	173.4	4	57.9	4	-1E+10	1	-1E+10	1	-1E+10	1	-1E+10	1	-1E+10	1	-1E+10	1
4902549	104	C	07/01/2023	00:14	-132.602	47.234	0	163.30	0	6.4950	0	33.6900	0	26.456	0	161.877	0	172.8	4	57.7	4	-1E+10	1	-1E+10	1	-1E+10	1	-1E+10	1	-1E+10	1	-1E+10	1
4902549	104	C	07/01/2023	00:14	-132.602	47.234	0	164.20	0	6.4850	0	33.6910	0	26.458	0	162.769	0	172.3	4	57.5	4	-1E+10	1	-1E+10	1	-1E+10	1	-1E+10	1	-1E+10	1	-1E+10	1
4902549	104	C	07/01/2023	00:14	-132.602	47.234	0	165.10	0	6.4450	0	33.7050	0	26.475	0	163.661	0	171.9	4	57.3	4	-1E+10	1	-1E+10	1	-1E+10	1	-1E+10	1	-1E+10	1	-1E+10	1
4902549	104	C	07/01/2023	00:14	-132.602	47.234	0	166.10	0	6.4160	0	33.7060	0	26.479	0	164.652	0	171.3	4	57.1	4	-1E+10	1	-1E+10	1	-1E+10	1	-1E+10	1	-1E+10	1	-1E+10	1
4902549	104	C	07/01/2023	00:14	-132.602	47.234	0	167.00	0	6.4070	0	33.7060	0	26.480	0	165.543	0	170.7	4	56.8	4	-1E+10	1	-1E+10	1	-1E+10	1	-1E+10	1	-1E+10	1	-1E+10	1
4902549	104	C	07/01/2023	00:14	-132.602	47.234	0	167.90	0	6.4050	0	33.7120	0	26.485	0	166.435	0	170.1	4	56.6	4	-1E+10	1	-1E+10	1	-1E+10	1	-1E+10	1	-1E+10	1	-1E+10	1
4902549	104	C	07/01/2023	00:14	-132.602	47.234	0	168.90	0	6.4020	0	33.7130	0	26.487	0	167.426	0	169.4	4	56.4	4	-1E+10	1	-1E+10	1	-1E+10	1	-1E+10	1	-1E+10	1	-1E+10	1
4902549	104	C	07/01/2023	00:14	-132.602	47.234	0	169.80	0	6.3980	0	33.7150	0	26.489	0	168.318	0	168.6	4	56.1	4	-1E+10	1	-1E+10	1	-1E+10	1	-1E+10	1	-1E+10	1	-1E+10	1
4902549	104	C	07/01/2023	00:14	-132.602	47.234	0	170.70	0	6.3880	0	33.7170	0	26.492	0	169.210	0	167.9	4	55.9	4	-1E+10	1	-1E+10	1	-1E+10	1	-1E+10	1	-1E+10	1	-1E+10	1
4902549	104	C	07/01/2023	00:14	-132.602	47.234	0	171.70	0	6.3780	0	33.7200	0	26.495	0	170.200	0	167.3	4	55.7	4	-1E+10	1	-1E+10	1	-1E+10	1	-1E+10	1	-1E+10	1	-1E+10	1
4902549	104	C	07/01/2023	00:14	-132.602	47.234	0	172.60	0	6.3630	0	33.7250	0	26.501	0	171.092	0	166.6	4	55.4	4	-1E+10	1	-1E+10	1	-1E+10	1	-1E+10	1	-1E+10	1	-1E+10	1
4902549	104	C	07/01/2023	00:14	-132.602	47.234	0	173.60	0	6.3530	0	33.7260	0	26.503	0	172.083	0	166.0	4	55.2	4	-1E+10	1	-1E+10	1	-1E+10	1	-1E+10	1	-1E+10	1	-1E+10	1
4902549	104	C	07/01/2023	00:14	-132.602	47.234	0	174.50	0	6.3460	0	33.7270	0	26.505	0	172.975	0	165.4	4	55.0	4	-1E+10	1	-1E+10	1	-1E+10	1	-1E+10	1	-1E+10	1	-1E+10	1
4902549	104	C	07/01/2023	00:14	-132.602	47.234	0	175.90	0	6.3330	0	33.7280	0	26.507	0	174.362	0	164.2	4	54.6	4	-1E+10	1	-1E+10	1	-1E+10	1	-1E+10	1	-1E+10	1	-1E+10	1
4902549	104	C	07/01/2023	00:14	-132.602	47.234	0	177.30	0	6.2960	0	33.7340	0	26.517	0	175.749	0	163.0	4	54.1	4	-1E+10	1	-1E+10	1	-1E+10	1	-1E+10	1	-1E+10	1	-1E+10	1
4902549	104	C	07/01/2023	00:14	-132.602	47.234	0	178.30	0	6.2890	0	33.7340	0	26.518	0	176.740	0	162.2	4	53.9	4	-1E+10	1	-1E+10	1	-1E+10	1	-1E+10	1	-1E+10	1	-1E+10	1
4902549	104	C	07/01/2023	00:14	-132.602	47.234	0	179.20	0	6.2610	0	33.7350	0	26.522	0	177.632	0	161.4	4	53.6	4	-1E+10	1	-1E+10	1	-1E+10	1	-1E+10	1	-1E+10	1	-1E+10	1
4902549	104	C	07/01/2023	00:14	-132.602	47.234	0	180.10	0	6.2620	0	33.7380	0	26.524	0	178.523	0	160.5	4	53.3	4	-1E+10	1	-1E+10	1	-1E+10	1	-1E+10	1	-1E+10	1	-1E+10	1
4902549	104	C	07/01/2023	00:14	-132.602	47.234	0	181.10	0	6.2690	0	33.7410	0	26.526	0	179.514	0	159.8	4	53.1	4	-1E+10	1	-1E+10	1	-1E+10	1	-1E+10	1	-1E+10	1	-1E+10	1
4902549	104	C	07/01/2023	00:14	-132.602	47.234	0	182.00	0	6.2270	0	33.7530	0	26.541	0	180.406	0	159.3	4	52.9	4	-1E+10	1	-1E+10	1	-1E+10	1	-1E+10	1	-1E+10	1	-1E+10	1
4902549	104	C	07/01/2023	00:14	-132.602	47.234	0	182.90	0	6.2100	0	33.7470	0	26.538	0	181.298	0	159.0	4	52.7	4	-1E+10	1	-1E+10	1	-1E+10	1	-1E+10	1	-1E+10	1	-1E+10	1
4902549	104	C	07/01/2023	00:14	-132.602	47.234	0	183.90	0	6.2120	0	33.7480	0	26.539	0	182.288	0	158.6	4	52.6	4	-1E+10	1	-1E+10	1	-1E+10	1	-1E+10	1	-1E+10	1	-1E+10	1
4902549	104	C	07/01/2023	00:14	-132.602	47.234	0	184.80	0	6.2140	0	33.7520	0	26.542	0	183.180	0	158.3	4	52.5	4	-1E+10	1	-1E+10	1	-1E+10	1	-1E+10	1	-1E+10	1	-1E+10	1
4902549	104	C	07/01/2023	00:14	-132.602	47.234	0	185.70	0	6.2120	0	33.7530	0	26.543	0	184.072	0	157.9	4	52.4	4	-1E+10	1	-1E+10	1	-1E+10	1	-1E+10	1	-1E+10	1	-1E+10	1
4902549	104	C	07/01/2023	00:14	-132.602	47.234	0	186.60	0	6.2110	0	33.7530	0	26.543	0	184.964	0	157.5	4	52.2	4	-1E+10	1	-1E+10	1	-1E+10	1	-1E+10	1	-1E+10	1	-1E+10	1
4902549	104	C	07/01/2023	00:14	-132.602	47.234	0	187.60	0	6.2110	0	33.7530	0	26.543	0	185.954	0	157.1	4	52.1	4	-1E+10	1	-1E+10	1	-1E+10	1	-1E+10	1	-1E+10	1	-1E+10	1
4902549	104	C	07/01/2023	00:14	-132.602	47.234	0	188.90	0	6.2120	0	33.7520	0	26.542	0	187.242	0	156.4	4	51.9	4	-1E+10	1	-1E+10	1	-1E+10	1	-1E+10	1	-1E+10	1	-1E+10	1
4902549	104	C	07/01/2023	00:14	-132.602	47.234	0	190.30	0	6.2140	0	33.7540	0	26.543	0	188.629	0	155.7	4	51.6	4	-1E+10	1	-1E+10	1	-1E+10	1	-1E+10	1	-1E+10	1	-1E+10	1
4902549	104	C	07/01/2023	00:14	-132.602	47.234	0	191.20	0	6.2090	0	33.7550	0	26.545	0	189.521	0	155.1	4	51.4	4	-1E+10	1	-1E+10	1	-1E+10	1	-1E+10	1	-1E+10	1	-1E+10	1
4902549	104	C	07/01/2023	00:14	-132.602	47.234	0	192.10	0	6.2020	0	33.7560	0	26.546	0	190.413	0	154.7	4	51.3	4	-1E+10	1	-1E+10	1	-1E+10	1	-1E+10	1	-1E+10	1	-1E+10	1
4902549	104	C	07/01/2023	00:14	-132.602	47.234	0	193.00	0	6.1990	0	33.7570	0	26.548	0	191.304	0	154.1	4	51.1	4	-1E+10	1	-1E+10	1	-1E+10	1	-1E+10	1	-1E+10	1	-1E+10	1
4902549	104	C	07/01/2023	00:14	-132.602	47.234	0	193.90	0	6.1970	0	33.7580	0	26.549	0	192.196	0	153.5	4	50.9	4	-1E+10	1	-1E+10	1	-1E+10	1	-1E+10	1	-1E+10	1	-1E+10	1
4902549	104	C	07/01/2023	00:14	-132.602	47.234	0	194.80	0	6.1960	0	33.7590	0	26.550	0	193.088	0	153.0	4	50.7	4	-1E+10	1	-1E+10	1	-1E+10	1	-1E+10	1	-1E+10	1	-1E+10	1
4902549	104	C	07/01/2023	00:14	-132.602	47.234	0	195.70	0	6.1960	0	33.7600	0	26.550	0	193.980	0	152.3	4	50.5	4	-1E+10	1	-1E+10	1	-1E+10	1	-1E+10	1	-1E+10	1	-1E+10	1
4902549	104	C	07/01/2023	00:14	-132.602	47.234	0	196.60	0	6.1890	0	33.7620	0	26.553	0	194.871	0	151.7	4	50.3	4	-1E+10	1	-1E+10	1	-1E+10	1	-1E+10	1	-1E+10	1	-1E+10	1
4902549	104	C	07/01/2023	00:14	-132.602	47.234	0	197.90	0	6.1760	0	33.7620	0	26.555	0	196.159	0	150.9	4	50.0	4	-1E+10	1	-1E+10	1	-1E+10	1	-1E+10	1	-1E+10	1	-1E+10	1
4902549	104	C	07/01/2023	00:14	-132.602	47.234	0	199.20	0	6.1640	0	33.7640	0	26.558	0	197.447	0	150.0	4	49.7	4	-1E+10	1	-1E+10	1	-1E+10	1	-1E+10	1	-1E+10	1	-1E+10	1
4902549	104	C	07/01/2023	00:14	-132.602	47.234	0	200.10	0	6.1580	0	33.7640	0	26.558	0	198.339	0	149.3	4	49.5	4	-1E+10	1	-1E+10	1	-1E+10	1	-1E+10	1	-1E+10	1	-1E+10	1
4902549	104	C	07/01/2023	00:14	-132.602	47.234	0	200.90	0	6.1490	0	33.7660	0	26.561	0	199.131	0	148.8	4	49.3	4	-1E+10	1	-1E+10	1	-1E+10	1	-1E+10	1	-1E+10	1	-1E+10	1
4902549	104	C	07/01/2023	00:14	-132.602	47.234	0	201.80	0	6.1460	0	33.7670	0	26.562	0	200.023	0	148.2	4	49.1	4	-1E+10	1	-1E+10	1	-1E+10	1	-1E+10	1	-1E+10	1	-1E+10	1
4902549	104	C	07/01/2023	00:14	-132.602	47.234	0	202.70	0	6.1420	0	33.7660	0	26.562	0	200.915	0	147.5	4	48.8	4	-1E+10	1	-1E+10	1	-1E+10	1	-1E+10	1	-1E+10	1	-1E+10	1
4902549	104	C	07/01/2023	00:14	-132.602	47.234	0	203.90	0	6.1280	0	33.7660	0	26.564	0	202.103	0	146.2	4	48.4	4	-1E+10	1	-1E+10	1	-1E+10	1	-1E+10	1	-1E+10	1	-1E+10	1
4902549	104	C	07/01/2023	00:14	-132.602	47.234	0	205.20	0	6.1250	0	33.7660	0	26.564	0	203.391	0	144.9	4	48.0	4	-1E+10	1	-1E+10	1	-1E+10	1	-1E+10	1	-1E+10	1	-1E+10	1
4902549	104	C	07/01/2023	00:14	-132.602	47.234	0	206.00	0	6.1060	0	33.7660	0	26.567	0	204.184	0	144.1	4	47.7	4	-1E+10	1	-1E+10	1	-1E+10	1	-1E+10	1	-1E+10	1	-1E+10	1
4902549	104	C	07/01/2023	00:14	-132.602	47.234	0	206.90	0	6.0690	0	33.7700	0	26.574	0	205.075	0	143.7	4	47.5	4	-1E+10	1	-1E+10	1	-1E+10	1	-1E+10	1	-1E+10	1	-1E+10	1
4902549	104	C	07/01/2023	00:14	-132.602	47.234	0	207.80	0	6.0710	0	33.7700	0	26.574	0	205.967	0	143.1	4	47.3	4	-1E+10	1	-1E+10	1	-1E+10	1	-1E+10	1	-1E+10	1	-1E+10	1
4902549	104	C	07/01/2023	00:14	-132.602	47.234	0	208.60	0	6.0560	0	33.7730	0	26.578	0	206.760	0	142.6	4	47.1	4	-1E+10	1	-1E+10	1	-1E+10	1	-1E+10	1	-1E+10	1	-1E+10	1
4902549	104	C	07/01/2023	00:14	-132.602	47.234	0	209.90	0	6.0230	0	33.7730	0	26.583	0	208.048	0	142.1	4	46.9	4	-1E+10	1	-1E+10	1	-1E+10	1	-1E+10	1	-1E+10	1	-1E+10	1
4902549	104	C	07/01/2023	00:14	-132.602	47.234	0	211.20	0	6.0050	0	33.7710	0	26.583	0	209.335	0	141.2	4	46.6	4	-1E+10	1	-1E+10	1	-1E+10	1	-1E+10	1	-1E+10	1	-1E+10	1
4902549	104	C	07/01/2023	00:14	-132.602	47.234	0	212.10	0	5.9930	0	33.7730	0	26.586	0	210.227	0	140.6	4	46.4	4	-1E+10	1	-1E+10	1	-1E+10	1	-1E+10	1	-1E+10	1	-1E+10	1
4902549	104	C	07/01/2023	00:14	-132.602	47.234	0	213.00	0	5.9900	0	33.7710	0	26.585	0	211.119	0	140.0	4	46.2	4	-1E+10	1	-1E+10	1	-1E+10	1	-1E+10	1	-1E+10	1	-1E+10	1
4902549	104	C	07/01/2023	00:14	-132.602	47.234	0	213.90	0	5.9750	0	33.7720	0	26.588	0	212.010	0	139.4	4	46.0	4	-1E+10	1	-1E+10	1	-1E+10	1	-1E+10	1	-1E+10	1	-1E+10	1
4902549	104	C	07/01/2023	00:14	-132.602	47.234	0	214.80	0	5.9650	0	33.7720	0	26.589	0	212.902	0	138.8	4	45.8	4	-1E+10	1	-1E+10	1	-1E+10	1	-1E+10	1	-1E+10	1	-1E+10	1
4902549	104	C	07/01/2023	00:14	-132.602	47.234	0	215.70	0	5.9570	0	33.7740	0	26.592	0	213.793	0	138.2	4	45.6	4	-1E+10	1	-1E+10	1	-1E+10	1	-1E+10	1	-1E+10	1	-1E+10	1
4902549	104	C	07/01/2023	00:14	-132.602	47.234	0	216.60	0	5.9260	0	33.7750	0	26.596	0	214.685	0	137.7	4	45.4	4	-1E+10	1	-1E+10	1	-1E+10	1	-1E+10	1	-1E+10	1	-1E+10	1
4902549	104	C	07/01/2023	00:14	-132.602	47.234	0	217.60	0	5.9000	0	33.7780	0	26.602	0	215.676	0	137.3	4	45.2	4	-1E+10	1	-1E+10	1	-1E+10	1	-1E+10	1	-1E+10	1	-1E+10	1
4902549	104	C	07/01/2023	00:14	-132.602	47.234	0	218.50	0	5.8930	0	33.7790	0	26.604	0	216.567	0	137.0	4	45.1	4	-1E+10	1	-1E+10	1	-1E+10	1	-1E+10	1	-1E+10	1	-1E+10	1
4902549	104	C	07/01/2023	00:14	-132.602	47.234	0	219.90	0	5.8920	0	33.7780	0	26.603	0	217.954	0	136.2	4	44.8	4	-1E+10	1	-1E+10	1	-1E+10	1	-1E+10	1	-1E+10	1	-1E+10	1
4902549	104	C	07/01/2023	00:14	-132.602	47.234	0	221.40	0	5.8910	0	33.7770	0	26.602	0	219.440	0	135.1	4	44.5	4	-1E+10	1	-1E+10	1	-1E+10	1	-1E+10	1	-1E+10	1	-1E+10	1
4902549	104	C	07/01/2023	00:14	-132.602	47.234	0	222.30	0	5.8820	0	33.7790	0	26.605	0	220.331	0	134.5	4	44.3	4	-1E+10	1	-1E+10	1	-1E+10	1	-1E+10	1	-1E+10	1	-1E+10	1
4902549	104	C	07/01/2023	00:14	-132.602	47.234	0	223.30	0	5.8680	0	33.7790	0	26.607	0	221.322	0	133.7	4	44.0	4	-1E+10	1	-1E+10	1	-1E+10	1	-1E+10	1	-1E+10	1	-1E+10	1
4902549	104	C	07/01/2023	00:14	-132.602	47.234	0	224.20	0	5.8260	0	33.7810	0	26.613	0	222.214	0	133.1	4	43.7	4	-1E+10	1	-1E+10	1	-1E+10	1	-1E+10	1	-1E+10	1	-1E+10	1
4902549	104	C	07/01/2023	00:14	-132.602	47.234	0	225.20	0	5.8020	0	33.7770	0	26.613	0	223.204	0	132.1	4	43.4	4	-1E+10	1	-1E+10	1	-1E+10	1	-1E+10	1	-1E+10	1	-1E+10	1
4902549	104	C	07/01/2023	00:14	-132.602	47.234	0	226.20	0	5.7940	0	33.7790	0	26.616	0	224.195	0	131.1	4	43.1	4	-1E+10	1	-1E+10	1	-1E+10	1	-1E+10	1	-1E+10	1	-1E+10	1
4902549	104	C	07/01/2023	00:14	-132.602	47.234	0	227.20	0	5.7780	0	33.7810	0	26.619	0	225.185	0	130.2	4	42.7	4	-1E+10	1	-1E+10	1	-1E+10	1	-1E+10	1	-1E+10	1	-1E+10	1
4902549	104	C	07/01/2023	00:14	-132.602	47.234	0	228.20	0	5.7750	0	33.7820	0	26.621	0	226.176	0	129.2	4	42.4	4	-1E+10	1	-1E+10	1	-1E+10	1	-1E+10	1	-1E+10	1	-1E+10	1
4902549	104	C	07/01/2023	00:14	-132.602	47.234	0	229.20	0	5.7730	0	33.7820	0	26.621	0	227.167	0	128.3	4	42.1	4	-1E+10	1	-1E+10	1	-1E+10	1	-1E+10	1	-1E+10	1	-1E+10	1
4902549	104	C	07/01/2023	00:14	-132.602	47.234	0	230.20	0	5.7730	0	33.7820	0	26.621	0	228.157	0	127.2	4	41.8	4	-1E+10	1	-1E+10	1	-1E+10	1	-1E+10	1	-1E+10	1	-1E+10	1
4902549	104	C	07/01/2023	00:14	-132.602	47.234	0	231.20	0	5.7630	0	33.7830	0	26.623	0	229.148	0	126.3	4	41.4	4	-1E+10	1	-1E+10	1	-1E+10	1	-1E+10	1	-1E+10	1	-1E+10	1
4902549	104	C	07/01/2023	00:14	-132.602	47.234	0	232.20	0	5.7350	0	33.7850	0	26.628	0	230.138	0	125.4	4	41.1	4	-1E+10	1	-1E+10	1	-1E+10	1	-1E+10	1	-1E+10	1	-1E+10	1
4902549	104	C	07/01/2023	00:14	-132.602	47.234	0	233.30	0	5.7190	0	33.7870	0	26.631	0	231.228	0	124.5	4	40.8	4	-1E+10	1	-1E+10	1	-1E+10	1	-1E+10	1	-1E+10	1	-1E+10	1
4902549	104	C	07/01/2023	00:14	-132.602	47.234	0	234.30	0	5.7110	0	33.7880	0	26.633	0	232.218	0	123.5	4	40.5	4	-1E+10	1	-1E+10	1	-1E+10	1	-1E+10	1	-1E+10	1	-1E+10	1
4902549	104	C	07/01/2023	00:14	-132.602	47.234	0	235.30	0	5.7090	0	33.7870	0	26.633	0	233.209	0	122.4	4	40.1	4	-1E+10	1	-1E+10	1	-1E+10	1	-1E+10	1	-1E+10	1	-1E+10	1
4902549	104	C	07/01/2023	00:14	-132.602	47.234	0	236.40	0	5.7020	0	33.7890	0	26.635	0	234.299	0	121.3	4	39.8	4	-1E+10	1	-1E+10	1	-1E+10	1	-1E+10	1	-1E+10	1	-1E+10	1
4902549	104	C	07/01/2023	00:14	-132.602	47.234	0	237.40	0	5.7020	0	33.7950	0	26.640	0	235.289	0	120.4	4	39.5	4	-1E+10	1	-1E+10	1	-1E+10	1	-1E+10	1	-1E+10	1	-1E+10	1
4902549	104	C	07/01/2023	00:14	-132.602	47.234	0	238.40	0	5.6760	0	33.7920	0	26.641	0	236.280	0	119.5	4	39.1	4	-1E+10	1	-1E+10	1	-1E+10	1	-1E+10	1	-1E+10	1	-1E+10	1
4902549	104	C	07/01/2023	00:14	-132.602	47.234	0	239.50	0	5.6570	0	33.7960	0	26.646	0	237.369	0	118.5	4	38.8	4	-1E+10	1	-1E+10	1	-1E+10	1	-1E+10	1	-1E+10	1	-1E+10	1
4902549	104	C	07/01/2023	00:14	-132.602	47.234	0	240.50	0	5.6320	0	33.7960	0	26.649	0	238.360	0	117.7	4	38.5	4	-1E+10	1	-1E+10	1	-1E+10	1	-1E+10	1	-1E+10	1	-1E+10	1
4902549	104	C	07/01/2023	00:14	-132.602	47.234	0	241.60	0	5.6290	0	33.7980	0	26.651	0	239.449	0	116.9	4	38.3	4	-1E+10	1	-1E+10	1	-1E+10	1	-1E+10	1	-1E+10	1	-1E+10	1
4902549	104	C	07/01/2023	00:14	-132.602	47.234	0	242.60	0	5.6220	0	33.7990	0	26.653	0	240.440	0	116.0	4	37.9	4	-1E+10	1	-1E+10	1	-1E+10	1	-1E+10	1	-1E+10	1	-1E+10	1
4902549	104	C	07/01/2023	00:14	-132.602	47.234	0	243.60	0	5.5990	0	33.7990	0	26.655	0	241.430	0	115.1	4	37.6	4	-1E+10	1	-1E+10	1	-1E+10	1	-1E+10	1	-1E+10	1	-1E+10	1
4902549	104	C	07/01/2023	00:14	-132.602	47.234	0	244.60	0	5.5980	0	33.7990	0	26.656	0	242.421	0	114.1	4	37.3	4	-1E+10	1	-1E+10	1	-1E+10	1	-1E+10	1	-1E+10	1	-1E+10	1
4902549	104	C	07/01/2023	00:14	-132.602	47.234	0	245.70	0	5.5720	0	33.8050	0	26.663	0	243.511	0	113.4	4	37.1	4	-1E+10	1	-1E+10	1	-1E+10	1	-1E+10	1	-1E+10	1	-1E+10	1
4902549	104	C	07/01/2023	00:14	-132.602	47.234	0	246.70	0	5.5530	0	33.8040	0	26.665	0	244.501	0	112.8	4	36.9	4	-1E+10	1	-1E+10	1	-1E+10	1	-1E+10	1	-1E+10	1	-1E+10	1
4902549	104	C	07/01/2023	00:14	-132.602	47.234	0	247.80	0	5.5270	0	33.8050	0	26.669	0	245.591	0	112.1	4	36.6	4	-1E+10	1	-1E+10	1	-1E+10	1	-1E+10	1	-1E+10	1	-1E+10	1
4902549	104	C	07/01/2023	00:14	-132.602	47.234	0	248.80	0	5.5280	0	33.8060	0	26.670	0	246.581	0	111.3	4	36.3	4	-1E+10	1	-1E+10	1	-1E+10	1	-1E+10	1	-1E+10	1	-1E+10	1
4902549	104	C	07/01/2023	00:14	-132.602	47.234	0	249.90	0	5.5210	0	33.8140	0	26.677	0	247.671	0	110.6	4	36.1	4	-1E+10	1	-1E+10	1	-1E+10	1	-1E+10	1	-1E+10	1	-1E+10	1
4902549	104	C	07/01/2023	00:14	-132.602	47.234	0	250.90	0	5.5010	0	33.8120	0	26.678	0	248.661	0	110.1	4	35.9	4	-1E+10	1	-1E+10	1	-1E+10	1	-1E+10	1	-1E+10	1	-1E+10	1
4902549	104	C	07/01/2023	00:14	-132.602	47.234	0	252.00	0	5.4930	0	33.8140	0	26.680	0	249.751	0	109.6	4	35.8	4	-1E+10	1	-1E+10	1	-1E+10	1	-1E+10	1	-1E+10	1	-1E+10	1
4902549	104	C	07/01/2023	00:14	-132.602	47.234	0	253.00	0	5.4900	0	33.8140	0	26.680	0	250.741	0	109.2	4	35.6	4	-1E+10	1	-1E+10	1	-1E+10	1	-1E+10	1	-1E+10	1	-1E+10	1
4902549	104	C	07/01/2023	00:14	-132.602	47.234	0	254.10	0	5.4890	0	33.8140	0	26.681	0	251.831	0	108.7	4	35.5	4	-1E+10	1	-1E+10	1	-1E+10	1	-1E+10	1	-1E+10	1	-1E+10	1
4902549	104	C	07/01/2023	00:14	-132.602	47.234	0	255.10	0	5.4880	0	33.8140	0	26.681	0	252.821	0	108.1	4	35.3	4	-1E+10	1	-1E+10	1	-1E+10	1	-1E+10	1	-1E+10	1	-1E+10	1
4902549	104	C	07/01/2023	00:14	-132.602	47.234	0	256.20	0	5.4800	0	33.8140	0	26.682	0	253.911	0	107.5	4	35.1	4	-1E+10	1	-1E+10	1	-1E+10	1	-1E+10	1	-1E+10	1	-1E+10	1
4902549	104	C	07/01/2023	00:14	-132.602	47.234	0	257.30	0	5.4730	0	33.8130	0	26.682	0	255.000	0	106.8	4	34.8	4	-1E+10	1	-1E+10	1	-1E+10	1	-1E+10	1	-1E+10	1	-1E+10	1
4902549	104	C	07/01/2023	00:14	-132.602	47.234	0	258.30	0	5.4430	0	33.8150	0	26.687	0	255.990	0	106.2	4	34.6	4	-1E+10	1	-1E+10	1	-1E+10	1	-1E+10	1	-1E+10	1	-1E+10	1
4902549	104	C	07/01/2023	00:14	-132.602	47.234	0	259.40	0	5.4070	0	33.8210	0	26.696	0	257.080	0	105.8	4	34.4	4	-1E+10	1	-1E+10	1	-1E+10	1	-1E+10	1	-1E+10	1	-1E+10	1
4902549	104	C	07/01/2023	00:14	-132.602	47.234	0	260.50	0	5.3940	0	33.8200	0	26.697	0	258.169	0	105.4	4	34.3	4	-1E+10	1	-1E+10	1	-1E+10	1	-1E+10	1	-1E+10	1	-1E+10	1
4902549	104	C	07/01/2023	00:14	-132.602	47.234	0	261.50	0	5.3890	0	33.8200	0	26.697	0	259.160	0	105.0	4	34.2	4	-1E+10	1	-1E+10	1	-1E+10	1	-1E+10	1	-1E+10	1	-1E+10	1
4902549	104	C	07/01/2023	00:14	-132.602	47.234	0	262.50	0	5.3810	0	33.8210	0	26.699	0	260.150	0	104.6	4	34.0	4	-1E+10	1	-1E+10	1	-1E+10	1	-1E+10	1	-1E+10	1	-1E+10	1
4902549	104	C	07/01/2023	00:14	-132.602	47.234	0	263.60	0	5.3780	0	33.8220	0	26.700	0	261.240	0	104.1	4	33.9	4	-1E+10	1	-1E+10	1	-1E+10	1	-1E+10	1	-1E+10	1	-1E+10	1
4902549	104	C	07/01/2023	00:14	-132.602	47.234	0	264.60	0	5.3800	0	33.8220	0	26.700	0	262.230	0	103.6	4	33.7	4	-1E+10	1	-1E+10	1	-1E+10	1	-1E+10	1	-1E+10	1	-1E+10	1
4902549	104	C	07/01/2023	00:14	-132.602	47.234	0	265.70	0	5.3760	0	33.8230	0	26.701	0	263.320	0	103.1	4	33.6	4	-1E+10	1	-1E+10	1	-1E+10	1	-1E+10	1	-1E+10	1	-1E+10	1
4902549	104	C	07/01/2023	00:14	-132.602	47.234	0	266.70	0	5.3530	0	33.8240	0	26.705	0	264.310	0	102.8	4	33.4	4	-1E+10	1	-1E+10	1	-1E+10	1	-1E+10	1	-1E+10	1	-1E+10	1
4902549	104	C	07/01/2023	00:14	-132.602	47.234	0	267.80	0	5.3450	0	33.8240	0	26.706	0	265.399	0	102.4	4	33.3	4	-1E+10	1	-1E+10	1	-1E+10	1	-1E+10	1	-1E+10	1	-1E+10	1
4902549	104	C	07/01/2023	00:14	-132.602	47.234	0	268.80	0	5.3470	0	33.8250	0	26.706	0	266.390	0	101.8	4	33.1	4	-1E+10	1	-1E+10	1	-1E+10	1	-1E+10	1	-1E+10	1	-1E+10	1
4902549	104	C	07/01/2023	00:14	-132.602	47.234	0	269.80	0	5.3410	0	33.8260	0	26.708	0	267.380	0	101.3	4	32.9	4	-1E+10	1	-1E+10	1	-1E+10	1	-1E+10	1	-1E+10	1	-1E+10	1
4902549	104	C	07/01/2023	00:14	-132.602	47.234	0	270.90	0	5.3330	0	33.8270	0	26.709	0	268.470	0	100.8	4	32.8	4	-1E+10	1	-1E+10	1	-1E+10	1	-1E+10	1	-1E+10	1	-1E+10	1
4902549	104	C	07/01/2023	00:14	-132.602	47.234	0	271.90	0	5.3170	0	33.8290	0	26.713	0	269.460	0	100.4	4	32.6	4	-1E+10	1	-1E+10	1	-1E+10	1	-1E+10	1	-1E+10	1	-1E+10	1
4902549	104	C	07/01/2023	00:14	-132.602	47.234	0	272.90	0	5.2950	0	33.8290	0	26.715	0	270.450	0	100.0	4	32.5	4	-1E+10	1	-1E+10	1	-1E+10	1	-1E+10	1	-1E+10	1	-1E+10	1
4902549	104	C	07/01/2023	00:14	-132.602	47.234	0	273.90	0	5.2840	0	33.8320	0	26.719	0	271.441	0	99.7	4	32.4	4	-1E+10	1	-1E+10	1	-1E+10	1	-1E+10	1	-1E+10	1	-1E+10	1
4902549	104	C	07/01/2023	00:14	-132.602	47.234	0	274.90	0	5.2720	0	33.8330	0	26.721	0	272.431	0	99.4	4	32.3	4	-1E+10	1	-1E+10	1	-1E+10	1	-1E+10	1	-1E+10	1	-1E+10	1
4902549	104	C	07/01/2023	00:14	-132.602	47.234	0	276.00	0	5.2600	0	33.8320	0	26.722	0	273.520	0	99.1	4	32.2	4	-1E+10	1	-1E+10	1	-1E+10	1	-1E+10	1	-1E+10	1	-1E+10	1
4902549	104	C	07/01/2023	00:14	-132.602	47.234	0	277.00	0	5.2610	0	33.8320	0	26.722	0	274.511	0	98.7	4	32.0	4	-1E+10	1	-1E+10	1	-1E+10	1	-1E+10	1	-1E+10	1	-1E+10	1
4902549	104	C	07/01/2023	00:14	-132.602	47.234	0	278.00	0	5.2580	0	33.8330	0	26.723	0	275.501	0	98.4	4	31.9	4	-1E+10	1	-1E+10	1	-1E+10	1	-1E+10	1	-1E+10	1	-1E+10	1
4902549	104	C	07/01/2023	00:14	-132.602	47.234	0	279.00	0	5.2540	0	33.8340	0	26.724	0	276.492	0	98.0	4	31.8	4	-1E+10	1	-1E+10	1	-1E+10	1	-1E+10	1	-1E+10	1	-1E+10	1
4902549	104	C	07/01/2023	00:14	-132.602	47.234	0	280.00	0	5.2530	0	33.8330	0	26.724	0	277.482	0	97.5	4	31.6	4	-1E+10	1	-1E+10	1	-1E+10	1	-1E+10	1	-1E+10	1	-1E+10	1
4902549	104	C	07/01/2023	00:14	-132.602	47.234	0	281.00	0	5.2480	0	33.8330	0	26.724	0	278.472	0	97.0	4	31.5	4	-1E+10	1	-1E+10	1	-1E+10	1	-1E+10	1	-1E+10	1	-1E+10	1
4902549	104	C	07/01/2023	00:14	-132.602	47.234	0	282.00	0	5.2450	0	33.8340	0	26.725	0	279.463	0	96.4	4	31.3	4	-1E+10	1	-1E+10	1	-1E+10	1	-1E+10	1	-1E+10	1	-1E+10	1
4902549	104	C	07/01/2023	00:14	-132.602	47.234	0	283.00	0	5.2420	0	33.8310	0	26.723	0	280.453	0	95.7	4	31.1	4	-1E+10	1	-1E+10	1	-1E+10	1	-1E+10	1	-1E+10	1	-1E+10	1
4902549	104	C	07/01/2023	00:14	-132.602	47.234	0	284.00	0	5.2320	0	33.8340	0	26.727	0	281.443	0	95.1	4	30.8	4	-1E+10	1	-1E+10	1	-1E+10	1	-1E+10	1	-1E+10	1	-1E+10	1
4902549	104	C	07/01/2023	00:14	-132.602	47.234	0	285.00	0	5.1820	0	33.8400	0	26.737	0	282.433	0	94.6	4	30.7	4	-1E+10	1	-1E+10	1	-1E+10	1	-1E+10	1	-1E+10	1	-1E+10	1
4902549	104	C	07/01/2023	00:14	-132.602	47.234	0	286.00	0	5.1790	0	33.8380	0	26.736	0	283.424	0	94.3	4	30.5	4	-1E+10	1	-1E+10	1	-1E+10	1	-1E+10	1	-1E+10	1	-1E+10	1
4902549	104	C	07/01/2023	00:14	-132.602	47.234	0	287.00	0	5.1790	0	33.8380	0	26.736	0	284.414	0	93.8	4	30.4	4	-1E+10	1	-1E+10	1	-1E+10	1	-1E+10	1	-1E+10	1	-1E+10	1
4902549	104	C	07/01/2023	00:14	-132.602	47.234	0	287.90	0	5.1800	0	33.8380	0	26.736	0	285.305	0	93.3	4	30.2	4	-1E+10	1	-1E+10	1	-1E+10	1	-1E+10	1	-1E+10	1	-1E+10	1
4902549	104	C	07/01/2023	00:14	-132.602	47.234	0	288.90	0	5.1600	0	33.8400	0	26.740	0	286.296	0	92.7	4	30.0	4	-1E+10	1	-1E+10	1	-1E+10	1	-1E+10	1	-1E+10	1	-1E+10	1
4902549	104	C	07/01/2023	00:14	-132.602	47.234	0	289.90	0	5.1540	0	33.8390	0	26.740	0	287.286	0	92.1	4	29.8	4	-1E+10	1	-1E+10	1	-1E+10	1	-1E+10	1	-1E+10	1	-1E+10	1
4902549	104	C	07/01/2023	00:14	-132.602	47.234	0	290.90	0	5.1390	0	33.8380	0	26.741	0	288.276	0	91.6	4	29.6	4	-1E+10	1	-1E+10	1	-1E+10	1	-1E+10	1	-1E+10	1	-1E+10	1
4902549	104	C	07/01/2023	00:14	-132.602	47.234	0	291.90	0	5.1260	0	33.8410	0	26.745	0	289.267	0	90.9	4	29.4	4	-1E+10	1	-1E+10	1	-1E+10	1	-1E+10	1	-1E+10	1	-1E+10	1
4902549	104	C	07/01/2023	00:14	-132.602	47.234	0	292.90	0	5.1010	0	33.8410	0	26.748	0	290.257	0	90.3	4	29.2	4	-1E+10	1	-1E+10	1	-1E+10	1	-1E+10	1	-1E+10	1	-1E+10	1
4902549	104	C	07/01/2023	00:14	-132.602	47.234	0	293.90	0	5.0820	0	33.8420	0	26.751	0	291.247	0	89.8	4	29.0	4	-1E+10	1	-1E+10	1	-1E+10	1	-1E+10	1	-1E+10	1	-1E+10	1
4902549	104	C	07/01/2023	00:14	-132.602	47.234	0	295.00	0	5.0770	0	33.8430	0	26.752	0	292.336	0	89.3	4	28.8	4	-1E+10	1	-1E+10	1	-1E+10	1	-1E+10	1	-1E+10	1	-1E+10	1
4902549	104	C	07/01/2023	00:14	-132.602	47.234	0	296.00	0	5.0750	0	33.8440	0	26.753	0	293.327	0	88.8	4	28.7	4	-1E+10	1	-1E+10	1	-1E+10	1	-1E+10	1	-1E+10	1	-1E+10	1
4902549	104	C	07/01/2023	00:14	-132.602	47.234	0	297.00	0	5.0630	0	33.8460	0	26.756	0	294.317	0	88.2	4	28.5	4	-1E+10	1	-1E+10	1	-1E+10	1	-1E+10	1	-1E+10	1	-1E+10	1
4902549	104	C	07/01/2023	00:14	-132.602	47.234	0	298.00	0	5.0450	0	33.8450	0	26.757	0	295.307	0	87.7	4	28.3	4	-1E+10	1	-1E+10	1	-1E+10	1	-1E+10	1	-1E+10	1	-1E+10	1
4902549	104	C	07/01/2023	00:14	-132.602	47.234	0	299.00	0	5.0330	0	33.8450	0	26.759	0	296.297	0	87.2	4	28.2	4	-1E+10	1	-1E+10	1	-1E+10	1	-1E+10	1	-1E+10	1	-1E+10	1
4902549	104	C	07/01/2023	00:14	-132.602	47.234	0	300.00	0	5.0330	0	33.8480	0	26.761	0	297.288	0	86.8	4	28.0	4	-1E+10	1	-1E+10	1	-1E+10	1	-1E+10	1	-1E+10	1	-1E+10	1
4902549	104	C	07/01/2023	00:14	-132.602	47.234	0	300.90	0	5.0290	0	33.8500	0	26.763	0	298.179	0	86.4	4	27.9	4	-1E+10	1	-1E+10	1	-1E+10	1	-1E+10	1	-1E+10	1	-1E+10	1
4902549	104	C	07/01/2023	00:14	-132.602	47.234	0	302.00	0	5.0200	0	33.8510	0	26.765	0	299.268	0	86.0	4	27.7	4	-1E+10	1	-1E+10	1	-1E+10	1	-1E+10	1	-1E+10	1	-1E+10	1
4902549	104	C	07/01/2023	00:14	-132.602	47.234	0	302.80	0	5.0150	0	33.8520	0	26.766	0	300.060	0	85.7	4	27.7	4	-1E+10	1	-1E+10	1	-1E+10	1	-1E+10	1	-1E+10	1	-1E+10	1
4902549	104	C	07/01/2023	00:14	-132.602	47.234	0	303.80	0	5.0090	0	33.8520	0	26.767	0	301.051	0	85.2	4	27.5	4	-1E+10	1	-1E+10	1	-1E+10	1	-1E+10	1	-1E+10	1	-1E+10	1
4902549	104	C	07/01/2023	00:14	-132.602	47.234	0	305.00	0	5.0000	0	33.8500	0	26.766	0	302.239	0	84.6	4	27.3	4	-1E+10	1	-1E+10	1	-1E+10	1	-1E+10	1	-1E+10	1	-1E+10	1
4902549	104	C	07/01/2023	00:14	-132.602	47.234	0	305.70	0	4.9960	0	33.8520	0	26.768	0	302.932	0	84.3	4	27.2	4	-1E+10	1	-1E+10	1	-1E+10	1	-1E+10	1	-1E+10	1	-1E+10	1
4902549	104	C	07/01/2023	00:14	-132.602	47.234	0	306.90	0	4.9790	0	33.8530	0	26.771	0	304.120	0	83.6	4	26.9	4	-1E+10	1	-1E+10	1	-1E+10	1	-1E+10	1	-1E+10	1	-1E+10	1
4902549	104	C	07/01/2023	00:14	-132.602	47.234	0	308.10	0	4.9660	0	33.8510	0	26.771	0	305.308	0	82.8	4	26.7	4	-1E+10	1	-1E+10	1	-1E+10	1	-1E+10	1	-1E+10	1	-1E+10	1
4902549	104	C	07/01/2023	00:14	-132.602	47.234	0	308.90	0	4.9500	0	33.8510	0	26.773	0	306.101	0	82.1	4	26.5	4	-1E+10	1	-1E+10	1	-1E+10	1	-1E+10	1	-1E+10	1	-1E+10	1
4902549	104	C	07/01/2023	00:14	-132.602	47.234	0	310.00	0	4.9410	0	33.8540	0	26.776	0	307.190	0	81.2	4	26.2	4	-1E+10	1	-1E+10	1	-1E+10	1	-1E+10	1	-1E+10	1	-1E+10	1
4902549	104	C	07/01/2023	00:14	-132.602	47.234	0	311.20	0	4.9640	0	33.8590	0	26.778	0	308.378	0	80.3	4	25.9	4	-1E+10	1	-1E+10	1	-1E+10	1	-1E+10	1	-1E+10	1	-1E+10	1
4902549	104	C	07/01/2023	00:14	-132.602	47.234	0	312.00	0	4.9740	0	33.8650	0	26.781	0	309.170	0	79.8	4	25.7	4	-1E+10	1	-1E+10	1	-1E+10	1	-1E+10	1	-1E+10	1	-1E+10	1
4902549	104	C	07/01/2023	00:14	-132.602	47.234	0	312.80	0	4.9890	0	33.8670	0	26.781	0	309.962	0	79.4	4	25.6	4	-1E+10	1	-1E+10	1	-1E+10	1	-1E+10	1	-1E+10	1	-1E+10	1
4902549	104	C	07/01/2023	00:14	-132.602	47.234	0	314.00	0	4.9910	0	33.8710	0	26.784	0	311.151	0	78.9	4	25.5	4	-1E+10	1	-1E+10	1	-1E+10	1	-1E+10	1	-1E+10	1	-1E+10	1
4902549	104	C	07/01/2023	00:14	-132.602	47.234	0	315.20	0	4.9950	0	33.8730	0	26.785	0	312.339	0	78.3	4	25.3	4	-1E+10	1	-1E+10	1	-1E+10	1	-1E+10	1	-1E+10	1	-1E+10	1
4902549	104	C	07/01/2023	00:14	-132.602	47.234	0	316.00	0	4.9970	0	33.8720	0	26.784	0	313.131	0	77.9	4	25.1	4	-1E+10	1	-1E+10	1	-1E+10	1	-1E+10	1	-1E+10	1	-1E+10	1
4902549	104	C	07/01/2023	00:14	-132.602	47.234	0	316.80	0	4.9950	0	33.8760	0	26.788	0	313.923	0	77.5	4	25.0	4	-1E+10	1	-1E+10	1	-1E+10	1	-1E+10	1	-1E+10	1	-1E+10	1
4902549	104	C	07/01/2023	00:14	-132.602	47.234	0	317.70	0	4.9840	0	33.8770	0	26.790	0	314.814	0	77.2	4	24.9	4	-1E+10	1	-1E+10	1	-1E+10	1	-1E+10	1	-1E+10	1	-1E+10	1
4902549	104	C	07/01/2023	00:14	-132.602	47.234	0	318.90	0	4.9790	0	33.8760	0	26.789	0	316.002	0	76.7	4	24.7	4	-1E+10	1	-1E+10	1	-1E+10	1	-1E+10	1	-1E+10	1	-1E+10	1
4902549	104	C	07/01/2023	00:14	-132.602	47.234	0	320.10	0	4.9660	0	33.8780	0	26.793	0	317.191	0	76.1	4	24.5	4	-1E+10	1	-1E+10	1	-1E+10	1	-1E+10	1	-1E+10	1	-1E+10	1
4902549	104	C	07/01/2023	00:14	-132.602	47.234	0	320.90	0	4.9700	0	33.8790	0	26.793	0	317.983	0	75.8	4	24.4	4	-1E+10	1	-1E+10	1	-1E+10	1	-1E+10	1	-1E+10	1	-1E+10	1
4902549	104	C	07/01/2023	00:14	-132.602	47.234	0	321.80	0	4.9680	0	33.8810	0	26.795	0	318.874	0	75.5	4	24.3	4	-1E+10	1	-1E+10	1	-1E+10	1	-1E+10	1	-1E+10	1	-1E+10	1
4902549	104	C	07/01/2023	00:14	-132.602	47.234	0	323.00	0	4.9630	0	33.8810	0	26.795	0	320.062	0	75.0	4	24.2	4	-1E+10	1	-1E+10	1	-1E+10	1	-1E+10	1	-1E+10	1	-1E+10	1
4902549	104	C	07/01/2023	00:14	-132.602	47.234	0	324.20	0	4.9480	0	33.8840	0	26.799	0	321.250	0	74.5	4	24.0	4	-1E+10	1	-1E+10	1	-1E+10	1	-1E+10	1	-1E+10	1	-1E+10	1
4902549	104	C	07/01/2023	00:14	-132.602	47.234	0	325.00	0	4.9340	0	33.8840	0	26.801	0	322.042	0	74.3	4	23.9	4	-1E+10	1	-1E+10	1	-1E+10	1	-1E+10	1	-1E+10	1	-1E+10	1
4902549	104	C	07/01/2023	00:14	-132.602	47.234	0	325.80	0	4.9300	0	33.8840	0	26.801	0	322.834	0	74.0	4	23.8	4	-1E+10	1	-1E+10	1	-1E+10	1	-1E+10	1	-1E+10	1	-1E+10	1
4902549	104	C	07/01/2023	00:14	-132.602	47.234	0	326.70	0	4.9200	0	33.8840	0	26.803	0	323.725	0	73.6	4	23.7	4	-1E+10	1	-1E+10	1	-1E+10	1	-1E+10	1	-1E+10	1	-1E+10	1
4902549	104	C	07/01/2023	00:14	-132.602	47.234	0	327.90	0	4.9190	0	33.8840	0	26.803	0	324.914	0	73.1	4	23.6	4	-1E+10	1	-1E+10	1	-1E+10	1	-1E+10	1	-1E+10	1	-1E+10	1
4902549	104	C	07/01/2023	00:14	-132.602	47.234	0	329.20	0	4.9140	0	33.8880	0	26.806	0	326.201	0	72.7	4	23.4	4	-1E+10	1	-1E+10	1	-1E+10	1	-1E+10	1	-1E+10	1	-1E+10	1
4902549	104	C	07/01/2023	00:14	-132.602	47.234	0	330.10	0	4.8900	0	33.8890	0	26.810	0	327.092	0	72.5	4	23.3	4	-1E+10	1	-1E+10	1	-1E+10	1	-1E+10	1	-1E+10	1	-1E+10	1
4902549	104	C	07/01/2023	00:14	-132.602	47.234	0	330.90	0	4.8720	0	33.8890	0	26.812	0	327.884	0	72.3	4	23.2	4	-1E+10	1	-1E+10	1	-1E+10	1	-1E+10	1	-1E+10	1	-1E+10	1
4902549	104	C	07/01/2023	00:14	-132.602	47.234	0	331.80	0	4.8690	0	33.8860	0	26.810	0	328.775	0	72.1	4	23.2	4	-1E+10	1	-1E+10	1	-1E+10	1	-1E+10	1	-1E+10	1	-1E+10	1
4902549	104	C	07/01/2023	00:14	-132.602	47.234	0	332.70	0	4.8580	0	33.8900	0	26.814	0	329.666	0	71.8	4	23.1	4	-1E+10	1	-1E+10	1	-1E+10	1	-1E+10	1	-1E+10	1	-1E+10	1
4902549	104	C	07/01/2023	00:14	-132.602	47.234	0	333.90	0	4.8330	0	33.8890	0	26.816	0	330.854	0	71.4	4	23.0	4	-1E+10	1	-1E+10	1	-1E+10	1	-1E+10	1	-1E+10	1	-1E+10	1
4902549	104	C	07/01/2023	00:14	-132.602	47.234	0	335.30	0	4.8130	0	33.8880	0	26.818	0	332.240	0	71.0	4	22.8	4	-1E+10	1	-1E+10	1	-1E+10	1	-1E+10	1	-1E+10	1	-1E+10	1
4902549	104	C	07/01/2023	00:14	-132.602	47.234	0	336.20	0	4.8120	0	33.8910	0	26.820	0	333.131	0	70.7	4	22.7	4	-1E+10	1	-1E+10	1	-1E+10	1	-1E+10	1	-1E+10	1	-1E+10	1
4902549	104	C	07/01/2023	00:14	-132.602	47.234	0	337.00	0	4.8130	0	33.8910	0	26.820	0	333.923	0	70.3	4	22.6	4	-1E+10	1	-1E+10	1	-1E+10	1	-1E+10	1	-1E+10	1	-1E+10	1
4902549	104	C	07/01/2023	00:14	-132.602	47.234	0	337.90	0	4.8130	0	33.8920	0	26.821	0	334.814	0	70.0	4	22.5	4	-1E+10	1	-1E+10	1	-1E+10	1	-1E+10	1	-1E+10	1	-1E+10	1
4902549	104	C	07/01/2023	00:14	-132.602	47.234	0	338.80	0	4.8030	0	33.8940	0	26.824	0	335.705	0	69.8	4	22.4	4	-1E+10	1	-1E+10	1	-1E+10	1	-1E+10	1	-1E+10	1	-1E+10	1
4902549	104	C	07/01/2023	00:14	-132.602	47.234	0	339.70	0	4.7980	0	33.8950	0	26.825	0	336.596	0	69.5	4	22.3	4	-1E+10	1	-1E+10	1	-1E+10	1	-1E+10	1	-1E+10	1	-1E+10	1
4902549	104	C	07/01/2023	00:14	-132.602	47.234	0	340.60	0	4.7720	0	33.8970	0	26.829	0	337.488	0	69.3	4	22.2	4	-1E+10	1	-1E+10	1	-1E+10	1	-1E+10	1	-1E+10	1	-1E+10	1
4902549	104	C	07/01/2023	00:14	-132.602	47.234	0	341.90	0	4.7680	0	33.8970	0	26.830	0	338.775	0	68.7	4	22.1	4	-1E+10	1	-1E+10	1	-1E+10	1	-1E+10	1	-1E+10	1	-1E+10	1
4902549	104	C	07/01/2023	00:14	-132.602	47.234	0	343.30	0	4.7780	0	33.9000	0	26.831	0	340.161	0	68.2	4	21.9	4	-1E+10	1	-1E+10	1	-1E+10	1	-1E+10	1	-1E+10	1	-1E+10	1
4902549	104	C	07/01/2023	00:14	-132.602	47.234	0	344.30	0	4.7850	0	33.9030	0	26.833	0	341.151	0	68.0	4	21.8	4	-1E+10	1	-1E+10	1	-1E+10	1	-1E+10	1	-1E+10	1	-1E+10	1
4902549	104	C	07/01/2023	00:14	-132.602	47.234	0	345.20	0	4.7850	0	33.9030	0	26.833	0	342.042	0	67.8	4	21.8	4	-1E+10	1	-1E+10	1	-1E+10	1	-1E+10	1	-1E+10	1	-1E+10	1
4902549	104	C	07/01/2023	00:14	-132.602	47.234	0	346.10	0	4.7860	0	33.9030	0	26.833	0	342.933	0	67.5	4	21.7	4	-1E+10	1	-1E+10	1	-1E+10	1	-1E+10	1	-1E+10	1	-1E+10	1
4902549	104	C	07/01/2023	00:14	-132.602	47.234	0	347.00	0	4.7860	0	33.9030	0	26.833	0	343.824	0	67.3	4	21.6	4	-1E+10	1	-1E+10	1	-1E+10	1	-1E+10	1	-1E+10	1	-1E+10	1
4902549	104	C	07/01/2023	00:14	-132.602	47.234	0	347.90	0	4.7830	0	33.9040	0	26.834	0	344.715	0	67.1	4	21.5	4	-1E+10	1	-1E+10	1	-1E+10	1	-1E+10	1	-1E+10	1	-1E+10	1
4902549	104	C	07/01/2023	00:14	-132.602	47.234	0	348.80	0	4.7760	0	33.9060	0	26.836	0	345.606	0	66.9	4	21.5	4	-1E+10	1	-1E+10	1	-1E+10	1	-1E+10	1	-1E+10	1	-1E+10	1
4902549	104	C	07/01/2023	00:14	-132.602	47.234	0	349.70	0	4.7720	0	33.9070	0	26.837	0	346.497	0	66.7	4	21.4	4	-1E+10	1	-1E+10	1	-1E+10	1	-1E+10	1	-1E+10	1	-1E+10	1
4902549	104	C	07/01/2023	00:14	-132.602	47.234	0	352.90	0	4.7580	0	33.9070	0	26.839	0	349.665	0	65.8	4	21.1	4	-1E+10	1	-1E+10	1	-1E+10	1	-1E+10	1	-1E+10	1	-1E+10	1
4902549	104	C	07/01/2023	00:14	-132.602	47.234	0	358.10	0	4.7250	0	33.9120	0	26.847	0	354.813	0	64.3	4	20.6	4	-1E+10	1	-1E+10	1	-1E+10	1	-1E+10	1	-1E+10	1	-1E+10	1
4902549	104	C	07/01/2023	00:14	-132.602	47.234	0	363.00	0	4.7270	0	33.9170	0	26.850	0	359.663	0	63.0	4	20.2	4	-1E+10	1	-1E+10	1	-1E+10	1	-1E+10	1	-1E+10	1	-1E+10	1
4902549	104	C	07/01/2023	00:14	-132.602	47.234	0	367.90	0	4.7170	0	33.9210	0	26.855	0	364.514	0	62.1	4	19.9	4	-1E+10	1	-1E+10	1	-1E+10	1	-1E+10	1	-1E+10	1	-1E+10	1
4902549	104	C	07/01/2023	00:14	-132.602	47.234	0	372.90	0	4.6970	0	33.9250	0	26.860	0	369.464	0	61.1	4	19.6	4	-1E+10	1	-1E+10	1	-1E+10	1	-1E+10	1	-1E+10	1	-1E+10	1
4902549	104	C	07/01/2023	00:14	-132.602	47.234	0	378.00	0	4.6630	0	33.9290	0	26.867	0	374.512	0	60.4	4	19.3	4	-1E+10	1	-1E+10	1	-1E+10	1	-1E+10	1	-1E+10	1	-1E+10	1
4902549	104	C	07/01/2023	00:14	-132.602	47.234	0	382.90	0	4.6450	0	33.9290	0	26.869	0	379.362	0	59.2	4	19.0	4	-1E+10	1	-1E+10	1	-1E+10	1	-1E+10	1	-1E+10	1	-1E+10	1
4902549	104	C	07/01/2023	00:14	-132.602	47.234	0	387.90	0	4.6140	0	33.9330	0	26.876	0	384.311	0	57.9	4	18.5	4	-1E+10	1	-1E+10	1	-1E+10	1	-1E+10	1	-1E+10	1	-1E+10	1
4902549	104	C	07/01/2023	00:14	-132.602	47.234	0	393.00	0	4.5950	0	33.9390	0	26.883	0	389.359	0	56.5	4	18.1	4	-1E+10	1	-1E+10	1	-1E+10	1	-1E+10	1	-1E+10	1	-1E+10	1
4902549	104	C	07/01/2023	00:14	-132.602	47.234	0	398.10	0	4.5690	0	33.9460	0	26.891	0	394.407	0	55.4	4	17.7	4	-1E+10	1	-1E+10	1	-1E+10	1	-1E+10	1	-1E+10	1	-1E+10	1
4902549	104	C	07/01/2023	00:14	-132.602	47.234	0	403.10	0	4.5410	0	33.9510	0	26.898	0	399.356	0	54.8	4	17.5	4	-1E+10	1	-1E+10	1	-1E+10	1	-1E+10	1	-1E+10	1	-1E+10	1
4902549	104	C	07/01/2023	00:14	-132.602	47.234	0	408.20	0	4.5330	0	33.9530	0	26.901	0	404.404	0	54.0	4	17.2	4	-1E+10	1	-1E+10	1	-1E+10	1	-1E+10	1	-1E+10	1	-1E+10	1
4902549	104	C	07/01/2023	00:14	-132.602	47.234	0	413.20	0	4.5290	0	33.9540	0	26.902	0	409.352	0	53.0	4	16.9	4	-1E+10	1	-1E+10	1	-1E+10	1	-1E+10	1	-1E+10	1	-1E+10	1
4902549	104	C	07/01/2023	00:14	-132.602	47.234	0	418.20	0	4.5160	0	33.9600	0	26.908	0	414.301	0	51.7	4	16.5	4	-1E+10	1	-1E+10	1	-1E+10	1	-1E+10	1	-1E+10	1	-1E+10	1
4902549	104	C	07/01/2023	00:14	-132.602	47.234	0	423.20	0	4.4950	0	33.9650	0	26.914	0	419.249	0	50.5	4	16.1	4	-1E+10	1	-1E+10	1	-1E+10	1	-1E+10	1	-1E+10	1	-1E+10	1
4902549	104	C	07/01/2023	00:14	-132.602	47.234	0	428.20	0	4.4810	0	33.9710	0	26.921	0	424.197	0	49.3	4	15.7	4	-1E+10	1	-1E+10	1	-1E+10	1	-1E+10	1	-1E+10	1	-1E+10	1
4902549	104	C	07/01/2023	00:14	-132.602	47.234	0	433.20	0	4.4690	0	33.9760	0	26.926	0	429.146	0	48.4	4	15.4	4	-1E+10	1	-1E+10	1	-1E+10	1	-1E+10	1	-1E+10	1	-1E+10	1
4902549	104	C	07/01/2023	00:14	-132.602	47.234	0	438.20	0	4.4550	0	33.9810	0	26.931	0	434.094	0	47.6	4	15.2	4	-1E+10	1	-1E+10	1	-1E+10	1	-1E+10	1	-1E+10	1	-1E+10	1
4902549	104	C	07/01/2023	00:14	-132.602	47.234	0	443.30	0	4.4480	0	33.9830	0	26.934	0	439.140	0	46.8	4	14.9	4	-1E+10	1	-1E+10	1	-1E+10	1	-1E+10	1	-1E+10	1	-1E+10	1
4902549	104	C	07/01/2023	00:14	-132.602	47.234	0	448.30	0	4.4390	0	33.9870	0	26.938	0	444.088	0	45.9	4	14.6	4	-1E+10	1	-1E+10	1	-1E+10	1	-1E+10	1	-1E+10	1	-1E+10	1
4902549	104	C	07/01/2023	00:14	-132.602	47.234	0	453.30	0	4.4220	0	33.9930	0	26.945	0	449.036	0	45.2	4	14.4	4	-1E+10	1	-1E+10	1	-1E+10	1	-1E+10	1	-1E+10	1	-1E+10	1
4902549	104	C	07/01/2023	00:14	-132.602	47.234	0	458.20	0	4.4210	0	33.9960	0	26.947	0	453.884	0	44.5	4	14.2	4	-1E+10	1	-1E+10	1	-1E+10	1	-1E+10	1	-1E+10	1	-1E+10	1
4902549	104	C	07/01/2023	00:14	-132.602	47.234	0	463.30	0	4.4210	0	34.0010	0	26.951	0	458.931	0	43.4	4	13.8	4	-1E+10	1	-1E+10	1	-1E+10	1	-1E+10	1	-1E+10	1	-1E+10	1
4902549	104	C	07/01/2023	00:14	-132.602	47.234	0	468.30	0	4.4060	0	34.0070	0	26.958	0	463.878	0	41.9	4	13.3	4	-1E+10	1	-1E+10	1	-1E+10	1	-1E+10	1	-1E+10	1	-1E+10	1
4902549	104	C	07/01/2023	00:14	-132.602	47.234	0	472.90	0	4.3850	0	34.0130	0	26.965	0	468.429	0	40.6	4	12.9	4	-1E+10	1	-1E+10	1	-1E+10	1	-1E+10	1	-1E+10	1	-1E+10	1
4902549	104	C	07/01/2023	00:14	-132.602	47.234	0	477.50	0	4.3700	0	34.0170	0	26.969	0	472.980	0	39.5	4	12.6	4	-1E+10	1	-1E+10	1	-1E+10	1	-1E+10	1	-1E+10	1	-1E+10	1
4902549	104	C	07/01/2023	00:14	-132.602	47.234	0	482.60	0	4.3550	0	34.0230	0	26.976	0	478.026	0	38.0	4	12.1	4	-1E+10	1	-1E+10	1	-1E+10	1	-1E+10	1	-1E+10	1	-1E+10	1
4902549	104	C	07/01/2023	00:14	-132.602	47.234	0	487.90	0	4.3360	0	34.0290	0	26.983	0	483.270	0	36.9	4	11.7	4	-1E+10	1	-1E+10	1	-1E+10	1	-1E+10	1	-1E+10	1	-1E+10	1
4902549	104	C	07/01/2023	00:14	-132.602	47.234	0	493.10	0	4.3120	0	34.0350	0	26.990	0	488.415	0	35.8	4	11.4	4	-1E+10	1	-1E+10	1	-1E+10	1	-1E+10	1	-1E+10	1	-1E+10	1
4902549	104	C	07/01/2023	00:14	-132.602	47.234	0	498.10	0	4.2750	0	34.0420	0	26.999	0	493.361	0	34.8	4	11.0	4	-1E+10	1	-1E+10	1	-1E+10	1	-1E+10	1	-1E+10	1	-1E+10	1
4902549	104	C	07/01/2023	00:14	-132.602	47.234	0	503.10	0	4.2530	0	34.0470	0	27.006	0	498.308	0	33.7	4	10.7	4	-1E+10	1	-1E+10	1	-1E+10	1	-1E+10	1	-1E+10	1	-1E+10	1
4902549	104	C	07/01/2023	00:14	-132.602	47.234	0	508.00	0	4.2430	0	34.0530	0	27.012	0	503.155	0	32.6	4	10.4	4	-1E+10	1	-1E+10	1	-1E+10	1	-1E+10	1	-1E+10	1	-1E+10	1
4902549	104	C	07/01/2023	00:14	-132.602	47.234	0	512.80	0	4.2300	0	34.0580	0	27.017	0	507.903	0	31.7	4	10.1	4	-1E+10	1	-1E+10	1	-1E+10	1	-1E+10	1	-1E+10	1	-1E+10	1
4902549	104	C	07/01/2023	00:14	-132.602	47.234	0	517.80	0	4.2140	0	34.0630	0	27.023	0	512.849	0	30.9	4	9.8	4	-1E+10	1	-1E+10	1	-1E+10	1	-1E+10	1	-1E+10	1	-1E+10	1
4902549	104	C	07/01/2023	00:14	-132.602	47.234	0	522.80	0	4.1970	0	34.0690	0	27.029	0	517.795	0	30.2	4	9.6	4	-1E+10	1	-1E+10	1	-1E+10	1	-1E+10	1	-1E+10	1	-1E+10	1
4902549	104	C	07/01/2023	00:14	-132.602	47.234	0	528.00	0	4.1780	0	34.0730	0	27.034	0	522.939	0	29.5	4	9.3	4	-1E+10	1	-1E+10	1	-1E+10	1	-1E+10	1	-1E+10	1	-1E+10	1
4902549	104	C	07/01/2023	00:14	-132.602	47.234	0	532.70	0	4.1750	0	34.0760	0	27.037	0	527.588	0	28.7	4	9.1	4	-1E+10	1	-1E+10	1	-1E+10	1	-1E+10	1	-1E+10	1	-1E+10	1
4902549	104	C	07/01/2023	00:14	-132.602	47.234	0	537.90	0	4.1620	0	34.0820	0	27.043	0	532.731	0	28.1	4	8.9	4	-1E+10	1	-1E+10	1	-1E+10	1	-1E+10	1	-1E+10	1	-1E+10	1
4902549	104	C	07/01/2023	00:14	-132.602	47.234	0	543.20	0	4.1500	0	34.0840	0	27.046	0	537.974	0	27.5	4	8.7	4	-1E+10	1	-1E+10	1	-1E+10	1	-1E+10	1	-1E+10	1	-1E+10	1
4902549	104	C	07/01/2023	00:14	-132.602	47.234	0	548.10	0	4.1370	0	34.0890	0	27.052	0	542.820	0	26.8	4	8.5	4	-1E+10	1	-1E+10	1	-1E+10	1	-1E+10	1	-1E+10	1	-1E+10	1
4902549	104	C	07/01/2023	00:14	-132.602	47.234	0	553.00	0	4.1280	0	34.0920	0	27.055	0	547.666	0	26.2	4	8.3	4	-1E+10	1	-1E+10	1	-1E+10	1	-1E+10	1	-1E+10	1	-1E+10	1
4902549	104	C	07/01/2023	00:14	-132.602	47.234	0	557.90	0	4.1130	0	34.0960	0	27.060	0	552.513	0	25.7	4	8.1	4	-1E+10	1	-1E+10	1	-1E+10	1	-1E+10	1	-1E+10	1	-1E+10	1
4902549	104	C	07/01/2023	00:14	-132.602	47.234	0	562.80	0	4.1000	0	34.1000	0	27.064	0	557.359	0	25.2	4	8.0	4	-1E+10	1	-1E+10	1	-1E+10	1	-1E+10	1	-1E+10	1	-1E+10	1
4902549	104	C	07/01/2023	00:14	-132.602	47.234	0	567.70	0	4.0890	0	34.1040	0	27.069	0	562.205	0	24.7	4	7.8	4	-1E+10	1	-1E+10	1	-1E+10	1	-1E+10	1	-1E+10	1	-1E+10	1
4902549	104	C	07/01/2023	00:14	-132.602	47.234	0	572.90	0	4.0710	0	34.1070	0	27.073	0	567.347	0	24.2	4	7.6	4	-1E+10	1	-1E+10	1	-1E+10	1	-1E+10	1	-1E+10	1	-1E+10	1
4902549	104	C	07/01/2023	00:14	-132.602	47.234	0	578.20	0	4.0520	0	34.1120	0	27.079	0	572.589	0	23.5	4	7.4	4	-1E+10	1	-1E+10	1	-1E+10	1	-1E+10	1	-1E+10	1	-1E+10	1
4902549	104	C	07/01/2023	00:14	-132.602	47.234	0	583.00	0	4.0390	0	34.1170	0	27.084	0	577.335	0	23.0	4	7.3	4	-1E+10	1	-1E+10	1	-1E+10	1	-1E+10	1	-1E+10	1	-1E+10	1
4902549	104	C	07/01/2023	00:14	-132.602	47.234	0	587.80	0	4.0270	0	34.1200	0	27.088	0	582.082	0	22.4	4	7.1	4	-1E+10	1	-1E+10	1	-1E+10	1	-1E+10	1	-1E+10	1	-1E+10	1
4902549	104	C	07/01/2023	00:14	-132.602	47.234	0	592.60	0	4.0070	0	34.1250	0	27.094	0	586.829	0	21.8	4	6.9	4	-1E+10	1	-1E+10	1	-1E+10	1	-1E+10	1	-1E+10	1	-1E+10	1
4902549	104	C	07/01/2023	00:14	-132.602	47.234	0	597.80	0	3.9880	0	34.1310	0	27.101	0	591.971	0	21.4	4	6.7	4	-1E+10	1	-1E+10	1	-1E+10	1	-1E+10	1	-1E+10	1	-1E+10	1
4902549	104	C	07/01/2023	00:14	-132.602	47.234	0	602.90	0	3.9800	0	34.1330	0	27.103	0	597.014	0	21.0	4	6.6	4	-1E+10	1	-1E+10	1	-1E+10	1	-1E+10	1	-1E+10	1	-1E+10	1
4902549	104	C	07/01/2023	00:14	-132.602	47.234	0	608.10	0	3.9700	0	34.1370	0	27.107	0	602.155	0	20.5	4	6.5	4	-1E+10	1	-1E+10	1	-1E+10	1	-1E+10	1	-1E+10	1	-1E+10	1
4902549	104	C	07/01/2023	00:14	-132.602	47.234	0	613.20	0	3.9650	0	34.1380	0	27.109	0	607.198	0	20.0	4	6.3	4	-1E+10	1	-1E+10	1	-1E+10	1	-1E+10	1	-1E+10	1	-1E+10	1
4902549	104	C	07/01/2023	00:14	-132.602	47.234	0	617.90	0	3.9540	0	34.1430	0	27.114	0	611.845	0	19.5	4	6.1	4	-1E+10	1	-1E+10	1	-1E+10	1	-1E+10	1	-1E+10	1	-1E+10	1
4902549	104	C	07/01/2023	00:14	-132.602	47.234	0	622.70	0	3.9460	0	34.1460	0	27.117	0	616.591	0	19.1	4	6.0	4	-1E+10	1	-1E+10	1	-1E+10	1	-1E+10	1	-1E+10	1	-1E+10	1
4902549	104	C	07/01/2023	00:14	-132.602	47.234	0	627.90	0	3.9340	0	34.1500	0	27.121	0	621.732	0	18.6	4	5.9	4	-1E+10	1	-1E+10	1	-1E+10	1	-1E+10	1	-1E+10	1	-1E+10	1
4902549	104	C	07/01/2023	00:14	-132.602	47.234	0	633.10	0	3.9200	0	34.1530	0	27.125	0	626.873	0	18.3	4	5.8	4	-1E+10	1	-1E+10	1	-1E+10	1	-1E+10	1	-1E+10	1	-1E+10	1
4902549	104	C	07/01/2023	00:14	-132.602	47.234	0	637.70	0	3.9020	0	34.1570	0	27.130	0	631.421	0	17.9	4	5.6	4	-1E+10	1	-1E+10	1	-1E+10	1	-1E+10	1	-1E+10	1	-1E+10	1
4902549	104	C	07/01/2023	00:14	-132.602	47.234	0	642.90	0	3.8930	0	34.1610	0	27.134	0	636.562	0	17.4	4	5.5	4	-1E+10	1	-1E+10	1	-1E+10	1	-1E+10	1	-1E+10	1	-1E+10	1
4902549	104	C	07/01/2023	00:14	-132.602	47.234	0	648.10	0	3.8790	0	34.1650	0	27.139	0	641.703	0	16.9	4	5.3	4	-1E+10	1	-1E+10	1	-1E+10	1	-1E+10	1	-1E+10	1	-1E+10	1
4902549	104	C	07/01/2023	00:14	-132.602	47.234	0	652.90	0	3.8630	0	34.1700	0	27.145	0	646.448	0	16.5	4	5.2	4	-1E+10	1	-1E+10	1	-1E+10	1	-1E+10	1	-1E+10	1	-1E+10	1
4902549	104	C	07/01/2023	00:14	-132.602	47.234	0	657.70	0	3.8560	0	34.1720	0	27.147	0	651.193	0	16.2	4	5.1	4	-1E+10	1	-1E+10	1	-1E+10	1	-1E+10	1	-1E+10	1	-1E+10	1
4902549	104	C	07/01/2023	00:14	-132.602	47.234	0	662.50	0	3.8450	0	34.1750	0	27.150	0	655.938	0	15.9	4	5.0	4	-1E+10	1	-1E+10	1	-1E+10	1	-1E+10	1	-1E+10	1	-1E+10	1
4902549	104	C	07/01/2023	00:14	-132.602	47.234	0	667.80	0	3.8360	0	34.1780	0	27.154	0	661.177	0	15.5	4	4.9	4	-1E+10	1	-1E+10	1	-1E+10	1	-1E+10	1	-1E+10	1	-1E+10	1
4902549	104	C	07/01/2023	00:14	-132.602	47.234	0	673.20	0	3.8210	0	34.1830	0	27.159	0	666.515	0	15.1	4	4.7	4	-1E+10	1	-1E+10	1	-1E+10	1	-1E+10	1	-1E+10	1	-1E+10	1
4902549	104	C	07/01/2023	00:14	-132.602	47.234	0	678.10	0	3.8120	0	34.1860	0	27.163	0	671.358	0	14.8	4	4.6	4	-1E+10	1	-1E+10	1	-1E+10	1	-1E+10	1	-1E+10	1	-1E+10	1
4902549	104	C	07/01/2023	00:14	-132.602	47.234	0	683.10	0	3.8050	0	34.1890	0	27.166	0	676.300	0	14.5	4	4.5	4	-1E+10	1	-1E+10	1	-1E+10	1	-1E+10	1	-1E+10	1	-1E+10	1
4902549	104	C	07/01/2023	00:14	-132.602	47.234	0	688.20	0	3.8010	0	34.1920	0	27.169	0	681.341	0	14.2	4	4.4	4	-1E+10	1	-1E+10	1	-1E+10	1	-1E+10	1	-1E+10	1	-1E+10	1
4902549	104	C	07/01/2023	00:14	-132.602	47.234	0	692.90	0	3.7940	0	34.1950	0	27.172	0	685.987	0	13.9	4	4.4	4	-1E+10	1	-1E+10	1	-1E+10	1	-1E+10	1	-1E+10	1	-1E+10	1
4902549	104	C	07/01/2023	00:14	-132.602	47.234	0	698.00	0	3.7770	0	34.1980	0	27.176	0	691.027	0	13.7	4	4.3	4	-1E+10	1	-1E+10	1	-1E+10	1	-1E+10	1	-1E+10	1	-1E+10	1
4902549	104	C	07/01/2023	00:14	-132.602	47.234	0	703.10	0	3.7590	0	34.2020	0	27.181	0	696.068	0	13.4	4	4.2	4	-1E+10	1	-1E+10	1	-1E+10	1	-1E+10	1	-1E+10	1	-1E+10	1
4902549	104	C	07/01/2023	00:14	-132.602	47.234	0	707.90	0	3.7390	0	34.2060	0	27.186	0	700.812	0	13.1	4	4.1	4	-1E+10	1	-1E+10	1	-1E+10	1	-1E+10	1	-1E+10	1	-1E+10	1
4902549	104	C	07/01/2023	00:14	-132.602	47.234	0	712.70	0	3.7290	0	34.2100	0	27.190	0	705.556	0	12.8	4	4.0	4	-1E+10	1	-1E+10	1	-1E+10	1	-1E+10	1	-1E+10	1	-1E+10	1
4902549	104	C	07/01/2023	00:14	-132.602	47.234	0	717.70	0	3.7190	0	34.2130	0	27.194	0	710.497	0	12.5	4	3.9	4	-1E+10	1	-1E+10	1	-1E+10	1	-1E+10	1	-1E+10	1	-1E+10	1
4902549	104	C	07/01/2023	00:14	-132.602	47.234	0	722.80	0	3.7100	0	34.2170	0	27.198	0	715.537	0	12.2	4	3.8	4	-1E+10	1	-1E+10	1	-1E+10	1	-1E+10	1	-1E+10	1	-1E+10	1
4902549	104	C	07/01/2023	00:14	-132.602	47.234	0	727.90	0	3.7000	0	34.2190	0	27.200	0	720.577	0	11.8	4	3.7	4	-1E+10	1	-1E+10	1	-1E+10	1	-1E+10	1	-1E+10	1	-1E+10	1
4902549	104	C	07/01/2023	00:14	-132.602	47.234	0	732.80	0	3.6890	0	34.2250	0	27.206	0	725.419	0	11.5	4	3.6	4	-1E+10	1	-1E+10	1	-1E+10	1	-1E+10	1	-1E+10	1	-1E+10	1
4902549	104	C	07/01/2023	00:14	-132.602	47.234	0	737.80	0	3.6770	0	34.2280	0	27.210	0	730.360	0	11.2	4	3.5	4	-1E+10	1	-1E+10	1	-1E+10	1	-1E+10	1	-1E+10	1	-1E+10	1
4902549	104	C	07/01/2023	00:14	-132.602	47.234	0	742.80	0	3.6700	0	34.2310	0	27.213	0	735.301	0	10.9	4	3.4	4	-1E+10	1	-1E+10	1	-1E+10	1	-1E+10	1	-1E+10	1	-1E+10	1
4902549	104	C	07/01/2023	00:14	-132.602	47.234	0	748.00	0	3.6600	0	34.2360	0	27.218	0	740.439	0	10.6	4	3.3	4	-1E+10	1	-1E+10	1	-1E+10	1	-1E+10	1	-1E+10	1	-1E+10	1
4902549	104	C	07/01/2023	00:14	-132.602	47.234	0	753.10	0	3.6500	0	34.2390	0	27.221	0	745.479	0	10.4	4	3.2	4	-1E+10	1	-1E+10	1	-1E+10	1	-1E+10	1	-1E+10	1	-1E+10	1
4902549	104	C	07/01/2023	00:14	-132.602	47.234	0	757.80	0	3.6440	0	34.2420	0	27.224	0	750.123	0	10.1	4	3.2	4	-1E+10	1	-1E+10	1	-1E+10	1	-1E+10	1	-1E+10	1	-1E+10	1
4902549	104	C	07/01/2023	00:14	-132.602	47.234	0	762.70	0	3.6410	0	34.2440	0	27.226	0	754.964	0	9.7	4	3.1	4	-1E+10	1	-1E+10	1	-1E+10	1	-1E+10	1	-1E+10	1	-1E+10	1
4902549	104	C	07/01/2023	00:14	-132.602	47.234	0	767.60	0	3.6430	0	34.2480	0	27.229	0	759.805	0	9.5	4	3.0	4	-1E+10	1	-1E+10	1	-1E+10	1	-1E+10	1	-1E+10	1	-1E+10	1
4902549	104	C	07/01/2023	00:14	-132.602	47.234	0	772.60	0	3.6380	0	34.2520	0	27.233	0	764.746	0	9.3	4	2.9	4	-1E+10	1	-1E+10	1	-1E+10	1	-1E+10	1	-1E+10	1	-1E+10	1
4902549	104	C	07/01/2023	00:14	-132.602	47.234	0	777.70	0	3.6350	0	34.2540	0	27.235	0	769.784	0	9.0	4	2.8	4	-1E+10	1	-1E+10	1	-1E+10	1	-1E+10	1	-1E+10	1	-1E+10	1
4902549	104	C	07/01/2023	00:14	-132.602	47.234	0	782.70	0	3.6290	0	34.2580	0	27.239	0	774.724	0	8.8	4	2.8	4	-1E+10	1	-1E+10	1	-1E+10	1	-1E+10	1	-1E+10	1	-1E+10	1
4902549	104	C	07/01/2023	00:14	-132.602	47.234	0	787.80	0	3.6200	0	34.2600	0	27.241	0	779.763	0	8.7	4	2.7	4	-1E+10	1	-1E+10	1	-1E+10	1	-1E+10	1	-1E+10	1	-1E+10	1
4902549	104	C	07/01/2023	00:14	-132.602	47.234	0	793.00	0	3.6110	0	34.2620	0	27.244	0	784.900	0	8.4	4	2.6	4	-1E+10	1	-1E+10	1	-1E+10	1	-1E+10	1	-1E+10	1	-1E+10	1
4902549	104	C	07/01/2023	00:14	-132.602	47.234	0	798.20	0	3.6010	0	34.2680	0	27.250	0	790.037	0	8.3	4	2.6	4	-1E+10	1	-1E+10	1	-1E+10	1	-1E+10	1	-1E+10	1	-1E+10	1
4902549	104	C	07/01/2023	00:14	-132.602	47.234	0	802.90	0	3.5950	0	34.2700	0	27.252	0	794.680	0	8.2	4	2.6	4	-1E+10	1	-1E+10	1	-1E+10	1	-1E+10	1	-1E+10	1	-1E+10	1
4902549	104	C	07/01/2023	00:14	-132.602	47.234	0	807.70	0	3.5850	0	34.2710	0	27.254	0	799.422	0	8.1	4	2.5	4	-1E+10	1	-1E+10	1	-1E+10	1	-1E+10	1	-1E+10	1	-1E+10	1
4902549	104	C	07/01/2023	00:14	-132.602	47.234	0	813.10	0	3.5760	0	34.2730	0	27.256	0	804.756	0	7.9	4	2.5	4	-1E+10	1	-1E+10	1	-1E+10	1	-1E+10	1	-1E+10	1	-1E+10	1
4902549	104	C	07/01/2023	00:14	-132.602	47.234	0	818.00	0	3.5730	0	34.2770	0	27.260	0	809.596	0	7.8	4	2.4	4	-1E+10	1	-1E+10	1	-1E+10	1	-1E+10	1	-1E+10	1	-1E+10	1
4902549	104	C	07/01/2023	00:14	-132.602	47.234	0	822.80	0	3.5630	0	34.2790	0	27.262	0	814.337	0	7.7	4	2.4	4	-1E+10	1	-1E+10	1	-1E+10	1	-1E+10	1	-1E+10	1	-1E+10	1
4902549	104	C	07/01/2023	00:14	-132.602	47.234	0	828.10	0	3.5550	0	34.2820	0	27.265	0	819.572	0	7.5	4	2.4	4	-1E+10	1	-1E+10	1	-1E+10	1	-1E+10	1	-1E+10	1	-1E+10	1
4902549	104	C	07/01/2023	00:14	-132.602	47.234	0	833.30	0	3.5520	0	34.2840	0	27.267	0	824.709	0	7.4	4	2.3	4	-1E+10	1	-1E+10	1	-1E+10	1	-1E+10	1	-1E+10	1	-1E+10	1
4902549	104	C	07/01/2023	00:14	-132.602	47.234	0	838.00	0	3.5380	0	34.2890	0	27.273	0	829.351	0	7.2	4	2.3	4	-1E+10	1	-1E+10	1	-1E+10	1	-1E+10	1	-1E+10	1	-1E+10	1
4902549	104	C	07/01/2023	00:14	-132.602	47.234	0	842.70	0	3.5230	0	34.2910	0	27.276	0	833.993	0	7.0	4	2.2	4	-1E+10	1	-1E+10	1	-1E+10	1	-1E+10	1	-1E+10	1	-1E+10	1
4902549	104	C	07/01/2023	00:14	-132.602	47.234	0	847.80	0	3.5370	0	34.2980	0	27.280	0	839.030	0	6.9	4	2.1	4	-1E+10	1	-1E+10	1	-1E+10	1	-1E+10	1	-1E+10	1	-1E+10	1
4902549	104	C	07/01/2023	00:14	-132.602	47.234	0	852.90	0	3.5190	0	34.3010	0	27.284	0	844.067	0	6.8	4	2.1	4	-1E+10	1	-1E+10	1	-1E+10	1	-1E+10	1	-1E+10	1	-1E+10	1
4902549	104	C	07/01/2023	00:14	-132.602	47.234	0	858.00	0	3.5120	0	34.3030	0	27.286	0	849.104	0	6.8	4	2.1	4	-1E+10	1	-1E+10	1	-1E+10	1	-1E+10	1	-1E+10	1	-1E+10	1
4902549	104	C	07/01/2023	00:14	-132.602	47.234	0	863.10	0	3.4960	0	34.3050	0	27.290	0	854.141	0	6.7	4	2.1	4	-1E+10	1	-1E+10	1	-1E+10	1	-1E+10	1	-1E+10	1	-1E+10	1
4902549	104	C	07/01/2023	00:14	-132.602	47.234	0	868.10	0	3.5000	0	34.3100	0	27.293	0	859.078	0	6.5	4	2.0	4	-1E+10	1	-1E+10	1	-1E+10	1	-1E+10	1	-1E+10	1	-1E+10	1
4902549	104	C	07/01/2023	00:14	-132.602	47.234	0	873.00	0	3.4990	0	34.3130	0	27.296	0	863.917	0	6.5	4	2.0	4	-1E+10	1	-1E+10	1	-1E+10	1	-1E+10	1	-1E+10	1	-1E+10	1
4902549	104	C	07/01/2023	00:14	-132.602	47.234	0	878.00	0	3.4920	0	34.3150	0	27.298	0	868.855	0	6.4	4	2.0	4	-1E+10	1	-1E+10	1	-1E+10	1	-1E+10	1	-1E+10	1	-1E+10	1
4902549	104	C	07/01/2023	00:14	-132.602	47.234	0	883.00	0	3.4830	0	34.3180	0	27.301	0	873.792	0	6.4	4	2.0	4	-1E+10	1	-1E+10	1	-1E+10	1	-1E+10	1	-1E+10	1	-1E+10	1
4902549	104	C	07/01/2023	00:14	-132.602	47.234	0	888.10	0	3.4730	0	34.3210	0	27.305	0	878.829	0	6.3	4	2.0	4	-1E+10	1	-1E+10	1	-1E+10	1	-1E+10	1	-1E+10	1	-1E+10	1
4902549	104	C	07/01/2023	00:14	-132.602	47.234	0	893.00	0	3.4610	0	34.3240	0	27.308	0	883.667	0	6.3	4	2.0	4	-1E+10	1	-1E+10	1	-1E+10	1	-1E+10	1	-1E+10	1	-1E+10	1
4902549	104	C	07/01/2023	00:14	-132.602	47.234	0	898.00	0	3.4520	0	34.3270	0	27.312	0	888.604	0	6.3	4	2.0	4	-1E+10	1	-1E+10	1	-1E+10	1	-1E+10	1	-1E+10	1	-1E+10	1
4902549	104	C	07/01/2023	00:14	-132.602	47.234	0	903.00	0	3.4480	0	34.3300	0	27.314	0	893.541	0	6.2	4	1.9	4	-1E+10	1	-1E+10	1	-1E+10	1	-1E+10	1	-1E+10	1	-1E+10	1
4902549	104	C	07/01/2023	00:14	-132.602	47.234	0	908.00	0	3.4370	0	34.3330	0	27.318	0	898.478	0	6.2	4	1.9	4	-1E+10	1	-1E+10	1	-1E+10	1	-1E+10	1	-1E+10	1	-1E+10	1
4902549	104	C	07/01/2023	00:14	-132.602	47.234	0	913.00	0	3.4230	0	34.3360	0	27.322	0	903.415	0	6.2	4	1.9	4	-1E+10	1	-1E+10	1	-1E+10	1	-1E+10	1	-1E+10	1	-1E+10	1
4902549	104	C	07/01/2023	00:14	-132.602	47.234	0	918.10	0	3.4060	0	34.3380	0	27.325	0	908.450	0	6.2	4	1.9	4	-1E+10	1	-1E+10	1	-1E+10	1	-1E+10	1	-1E+10	1	-1E+10	1
4902549	104	C	07/01/2023	00:14	-132.602	47.234	0	922.90	0	3.3980	0	34.3420	0	27.329	0	913.189	0	6.1	4	1.9	4	-1E+10	1	-1E+10	1	-1E+10	1	-1E+10	1	-1E+10	1	-1E+10	1
4902549	104	C	07/01/2023	00:14	-132.602	47.234	0	927.80	0	3.3950	0	34.3440	0	27.331	0	918.027	0	6.2	4	1.9	4	-1E+10	1	-1E+10	1	-1E+10	1	-1E+10	1	-1E+10	1	-1E+10	1
4902549	104	C	07/01/2023	00:14	-132.602	47.234	0	932.80	0	3.3790	0	34.3460	0	27.334	0	922.963	0	6.2	4	1.9	4	-1E+10	1	-1E+10	1	-1E+10	1	-1E+10	1	-1E+10	1	-1E+10	1
4902549	104	C	07/01/2023	00:14	-132.602	47.234	0	937.90	0	3.3560	0	34.3490	0	27.339	0	927.998	0	6.3	4	2.0	4	-1E+10	1	-1E+10	1	-1E+10	1	-1E+10	1	-1E+10	1	-1E+10	1
4902549	104	C	07/01/2023	00:14	-132.602	47.234	0	943.00	0	3.3340	0	34.3520	0	27.343	0	933.033	0	6.3	4	1.9	4	-1E+10	1	-1E+10	1	-1E+10	1	-1E+10	1	-1E+10	1	-1E+10	1
4902549	104	C	07/01/2023	00:14	-132.602	47.234	0	947.90	0	3.3240	0	34.3550	0	27.346	0	937.870	0	6.3	4	1.9	4	-1E+10	1	-1E+10	1	-1E+10	1	-1E+10	1	-1E+10	1	-1E+10	1
4902549	104	C	07/01/2023	00:14	-132.602	47.234	0	952.80	0	3.3210	0	34.3560	0	27.348	0	942.707	0	6.3	4	2.0	4	-1E+10	1	-1E+10	1	-1E+10	1	-1E+10	1	-1E+10	1	-1E+10	1
4902549	104	C	07/01/2023	00:14	-132.602	47.234	0	958.10	0	3.3090	0	34.3570	0	27.349	0	947.939	0	6.3	4	2.0	4	-1E+10	1	-1E+10	1	-1E+10	1	-1E+10	1	-1E+10	1	-1E+10	1
4902549	104	C	07/01/2023	00:14	-132.602	47.234	0	963.10	0	3.2950	0	34.3590	0	27.352	0	952.875	0	6.3	4	2.0	4	-1E+10	1	-1E+10	1	-1E+10	1	-1E+10	1	-1E+10	1	-1E+10	1
4902549	104	C	07/01/2023	00:14	-132.602	47.234	0	967.80	0	3.2790	0	34.3620	0	27.356	0	957.514	0	6.4	4	2.0	4	-1E+10	1	-1E+10	1	-1E+10	1	-1E+10	1	-1E+10	1	-1E+10	1
4902549	104	C	07/01/2023	00:14	-132.602	47.234	0	973.00	0	3.2680	0	34.3640	0	27.359	0	962.647	0	6.4	4	2.0	4	-1E+10	1	-1E+10	1	-1E+10	1	-1E+10	1	-1E+10	1	-1E+10	1
4902549	104	C	07/01/2023	00:14	-132.602	47.234	0	978.20	0	3.2580	0	34.3660	0	27.362	0	967.780	0	6.4	4	2.0	4	-1E+10	1	-1E+10	1	-1E+10	1	-1E+10	1	-1E+10	1	-1E+10	1
4902549	104	C	07/01/2023	00:14	-132.602	47.234	0	983.10	0	3.2480	0	34.3680	0	27.364	0	972.616	0	6.5	4	2.0	4	-1E+10	1	-1E+10	1	-1E+10	1	-1E+10	1	-1E+10	1	-1E+10	1
4902549	104	C	07/01/2023	00:14	-132.602	47.234	0	987.90	0	3.2410	0	34.3680	0	27.365	0	977.354	0	6.5	4	2.0	4	-1E+10	1	-1E+10	1	-1E+10	1	-1E+10	1	-1E+10	1	-1E+10	1
4902549	104	C	07/01/2023	00:14	-132.602	47.234	0	992.80	0	3.2320	0	34.3700	0	27.367	0	982.190	0	6.5	4	2.0	4	-1E+10	1	-1E+10	1	-1E+10	1	-1E+10	1	-1E+10	1	-1E+10	1
4902549	104	C	07/01/2023	00:14	-132.602	47.234	0	997.80	0	3.2300	0	34.3700	0	27.367	0	987.125	0	6.5	4	2.0	4	-1E+10	1	-1E+10	1	-1E+10	1	-1E+10	1	-1E+10	1	-1E+10	1
4902549	104	C	07/01/2023	00:14	-132.602	47.234	0	1005.40	0	3.2190	0	34.3720	0	27.370	0	994.626	0	6.6	4	2.0	4	-1E+10	1	-1E+10	1	-1E+10	1	-1E+10	1	-1E+10	1	-1E+10	1
4902549	104	C	07/01/2023	00:14	-132.602	47.234	0	1015.30	0	3.2170	0	34.3780	0	27.375	0	1004.396	0	6.6	4	2.1	4	-1E+10	1	-1E+10	1	-1E+10	1	-1E+10	1	-1E+10	1	-1E+10	1
4902549	104	C	07/01/2023	00:14	-132.602	47.234	0	1025.60	0	3.1750	0	34.3800	0	27.381	0	1014.560	0	6.7	4	2.1	4	-1E+10	1	-1E+10	1	-1E+10	1	-1E+10	1	-1E+10	1	-1E+10	1
4902549	104	C	07/01/2023	00:14	-132.602	47.234	0	1035.20	0	3.1640	0	34.3840	0	27.385	0	1024.033	0	6.7	4	2.1	4	-1E+10	1	-1E+10	1	-1E+10	1	-1E+10	1	-1E+10	1	-1E+10	1
4902549	104	C	07/01/2023	00:14	-132.602	47.234	0	1045.30	0	3.1600	0	34.3880	0	27.389	0	1034.000	0	6.8	4	2.1	4	-1E+10	1	-1E+10	1	-1E+10	1	-1E+10	1	-1E+10	1	-1E+10	1
4902549	104	C	07/01/2023	00:14	-132.602	47.234	0	1055.70	0	3.1470	0	34.3920	0	27.393	0	1044.261	0	6.9	4	2.1	4	-1E+10	1	-1E+10	1	-1E+10	1	-1E+10	1	-1E+10	1	-1E+10	1
4902549	104	C	07/01/2023	00:14	-132.602	47.234	0	1065.50	0	3.1210	0	34.3950	0	27.398	0	1053.930	0	7.1	4	2.2	4	-1E+10	1	-1E+10	1	-1E+10	1	-1E+10	1	-1E+10	1	-1E+10	1
4902549	104	C	07/01/2023	00:14	-132.602	47.234	0	1075.30	0	3.0520	0	34.3920	0	27.402	0	1063.599	0	7.2	4	2.2	4	-1E+10	1	-1E+10	1	-1E+10	1	-1E+10	1	-1E+10	1	-1E+10	1
4902549	104	C	07/01/2023	00:14	-132.602	47.234	0	1085.20	0	3.0310	0	34.3950	0	27.406	0	1073.366	0	7.3	4	2.3	4	-1E+10	1	-1E+10	1	-1E+10	1	-1E+10	1	-1E+10	1	-1E+10	1
4902549	104	C	07/01/2023	00:14	-132.602	47.234	0	1095.20	0	3.0360	0	34.4010	0	27.411	0	1083.231	0	7.4	4	2.3	4	-1E+10	1	-1E+10	1	-1E+10	1	-1E+10	1	-1E+10	1	-1E+10	1
4902549	104	C	07/01/2023	00:14	-132.602	47.234	0	1105.20	0	3.0070	0	34.4020	0	27.414	0	1093.096	0	7.6	4	2.3	4	-1E+10	1	-1E+10	1	-1E+10	1	-1E+10	1	-1E+10	1	-1E+10	1
4902549	104	C	07/01/2023	00:14	-132.602	47.234	0	1115.20	0	3.0090	0	34.4080	0	27.419	0	1102.960	0	7.7	4	2.4	4	-1E+10	1	-1E+10	1	-1E+10	1	-1E+10	1	-1E+10	1	-1E+10	1
4902549	104	C	07/01/2023	00:14	-132.602	47.234	0	1125.20	0	2.9990	0	34.4120	0	27.423	0	1112.824	0	7.9	4	2.4	4	-1E+10	1	-1E+10	1	-1E+10	1	-1E+10	1	-1E+10	1	-1E+10	1
4902549	104	C	07/01/2023	00:14	-132.602	47.234	0	1135.30	0	2.9820	0	34.4150	0	27.427	0	1122.786	0	8.1	4	2.5	4	-1E+10	1	-1E+10	1	-1E+10	1	-1E+10	1	-1E+10	1	-1E+10	1
4902549	104	C	07/01/2023	00:14	-132.602	47.234	0	1145.30	0	2.9670	0	34.4180	0	27.431	0	1132.649	0	8.3	4	2.6	4	-1E+10	1	-1E+10	1	-1E+10	1	-1E+10	1	-1E+10	1	-1E+10	1
4902549	104	C	07/01/2023	00:14	-132.602	47.234	0	1155.10	0	2.9600	0	34.4240	0	27.436	0	1142.314	0	8.6	4	2.6	4	-1E+10	1	-1E+10	1	-1E+10	1	-1E+10	1	-1E+10	1	-1E+10	1
4902549	104	C	07/01/2023	00:14	-132.602	47.234	0	1165.00	0	2.9420	0	34.4270	0	27.440	0	1152.077	0	8.7	4	2.7	4	-1E+10	1	-1E+10	1	-1E+10	1	-1E+10	1	-1E+10	1	-1E+10	1
4902549	104	C	07/01/2023	00:14	-132.602	47.234	0	1175.00	0	2.9270	0	34.4280	0	27.442	0	1161.939	0	8.8	4	2.7	4	-1E+10	1	-1E+10	1	-1E+10	1	-1E+10	1	-1E+10	1	-1E+10	1
4902549	104	C	07/01/2023	00:14	-132.602	47.234	0	1185.00	0	2.8950	0	34.4290	0	27.446	0	1171.800	0	9.1	4	2.8	4	-1E+10	1	-1E+10	1	-1E+10	1	-1E+10	1	-1E+10	1	-1E+10	1
4902549	104	C	07/01/2023	00:14	-132.602	47.234	0	1195.10	0	2.8720	0	34.4330	0	27.451	0	1181.759	0	9.3	4	2.9	4	-1E+10	1	-1E+10	1	-1E+10	1	-1E+10	1	-1E+10	1	-1E+10	1
4902549	104	C	07/01/2023	00:14	-132.602	47.234	0	1205.40	0	2.8590	0	34.4370	0	27.456	0	1191.915	0	9.6	4	3.0	4	-1E+10	1	-1E+10	1	-1E+10	1	-1E+10	1	-1E+10	1	-1E+10	1
4902549	104	C	07/01/2023	00:14	-132.602	47.234	0	1215.20	0	2.8400	0	34.4390	0	27.459	0	1201.577	0	9.9	4	3.0	4	-1E+10	1	-1E+10	1	-1E+10	1	-1E+10	1	-1E+10	1	-1E+10	1
4902549	104	C	07/01/2023	00:14	-132.602	47.234	0	1225.10	0	2.8270	0	34.4420	0	27.463	0	1211.337	0	10.1	4	3.1	4	-1E+10	1	-1E+10	1	-1E+10	1	-1E+10	1	-1E+10	1	-1E+10	1
4902549	104	C	07/01/2023	00:14	-132.602	47.234	0	1235.50	0	2.8110	0	34.4460	0	27.467	0	1221.590	0	10.4	4	3.2	4	-1E+10	1	-1E+10	1	-1E+10	1	-1E+10	1	-1E+10	1	-1E+10	1
4902549	104	C	07/01/2023	00:14	-132.602	47.234	0	1245.50	0	2.7930	0	34.4480	0	27.471	0	1231.449	0	10.6	4	3.3	4	-1E+10	1	-1E+10	1	-1E+10	1	-1E+10	1	-1E+10	1	-1E+10	1
4902549	104	C	07/01/2023	00:14	-132.602	47.234	0	1255.60	0	2.7810	0	34.4500	0	27.473	0	1241.405	0	10.9	4	3.3	4	-1E+10	1	-1E+10	1	-1E+10	1	-1E+10	1	-1E+10	1	-1E+10	1
4902549	104	C	07/01/2023	00:14	-132.602	47.234	0	1265.70	0	2.7590	0	34.4510	0	27.476	0	1251.361	0	11.1	4	3.4	4	-1E+10	1	-1E+10	1	-1E+10	1	-1E+10	1	-1E+10	1	-1E+10	1
4902549	104	C	07/01/2023	00:14	-132.602	47.234	0	1275.40	0	2.7420	0	34.4530	0	27.479	0	1260.922	0	11.3	4	3.5	4	-1E+10	1	-1E+10	1	-1E+10	1	-1E+10	1	-1E+10	1	-1E+10	1
4902549	104	C	07/01/2023	00:14	-132.602	47.234	0	1285.30	0	2.7280	0	34.4550	0	27.482	0	1270.680	0	11.6	4	3.5	4	-1E+10	1	-1E+10	1	-1E+10	1	-1E+10	1	-1E+10	1	-1E+10	1
4902549	104	C	07/01/2023	00:14	-132.602	47.234	0	1295.60	0	2.7170	0	34.4580	0	27.485	0	1280.831	0	12.0	4	3.7	4	-1E+10	1	-1E+10	1	-1E+10	1	-1E+10	1	-1E+10	1	-1E+10	1
4902549	104	C	07/01/2023	00:14	-132.602	47.234	0	1305.30	0	2.7010	0	34.4610	0	27.489	0	1290.391	0	12.5	4	3.8	4	-1E+10	1	-1E+10	1	-1E+10	1	-1E+10	1	-1E+10	1	-1E+10	1
4902549	104	C	07/01/2023	00:14	-132.602	47.234	0	1315.30	0	2.6830	0	34.4640	0	27.493	0	1300.246	0	12.8	4	3.9	4	-1E+10	1	-1E+10	1	-1E+10	1	-1E+10	1	-1E+10	1	-1E+10	1
4902549	104	C	07/01/2023	00:14	-132.602	47.234	0	1325.30	0	2.6700	0	34.4660	0	27.496	0	1310.100	0	13.0	4	4.0	4	-1E+10	1	-1E+10	1	-1E+10	1	-1E+10	1	-1E+10	1	-1E+10	1
4902549	104	C	07/01/2023	00:14	-132.602	47.234	0	1335.30	0	2.6540	0	34.4670	0	27.498	0	1319.954	0	13.2	4	4.1	4	-1E+10	1	-1E+10	1	-1E+10	1	-1E+10	1	-1E+10	1	-1E+10	1
4902549	104	C	07/01/2023	00:14	-132.602	47.234	0	1345.10	0	2.6310	0	34.4690	0	27.502	0	1329.611	0	13.6	4	4.2	4	-1E+10	1	-1E+10	1	-1E+10	1	-1E+10	1	-1E+10	1	-1E+10	1
4902549	104	C	07/01/2023	00:14	-132.602	47.234	0	1355.00	0	2.6060	0	34.4710	0	27.506	0	1339.365	0	14.0	4	4.3	4	-1E+10	1	-1E+10	1	-1E+10	1	-1E+10	1	-1E+10	1	-1E+10	1
4902549	104	C	07/01/2023	00:14	-132.602	47.234	0	1365.40	0	2.5860	0	34.4750	0	27.511	0	1349.612	0	14.4	4	4.4	4	-1E+10	1	-1E+10	1	-1E+10	1	-1E+10	1	-1E+10	1	-1E+10	1
4902549	104	C	07/01/2023	00:14	-132.602	47.234	0	1375.50	0	2.5660	0	34.4760	0	27.513	0	1359.563	0	14.8	4	4.5	4	-1E+10	1	-1E+10	1	-1E+10	1	-1E+10	1	-1E+10	1	-1E+10	1
4902549	104	C	07/01/2023	00:14	-132.602	47.234	0	1385.40	0	2.5430	0	34.4790	0	27.518	0	1369.316	0	15.3	4	4.7	4	-1E+10	1	-1E+10	1	-1E+10	1	-1E+10	1	-1E+10	1	-1E+10	1
4902549	104	C	07/01/2023	00:14	-132.602	47.234	0	1395.50	0	2.5240	0	34.4810	0	27.521	0	1379.266	0	15.6	4	4.7	4	-1E+10	1	-1E+10	1	-1E+10	1	-1E+10	1	-1E+10	1	-1E+10	1
4902549	104	C	07/01/2023	00:14	-132.602	47.234	0	1405.30	0	2.4970	0	34.4820	0	27.524	0	1388.919	0	15.9	4	4.8	4	-1E+10	1	-1E+10	1	-1E+10	1	-1E+10	1	-1E+10	1	-1E+10	1
4902549	104	C	07/01/2023	00:14	-132.602	47.234	0	1415.30	0	2.4890	0	34.4840	0	27.526	0	1398.770	0	16.6	4	5.1	4	-1E+10	1	-1E+10	1	-1E+10	1	-1E+10	1	-1E+10	1	-1E+10	1
4902549	104	C	07/01/2023	00:14	-132.602	47.234	0	1425.30	0	2.4850	0	34.4890	0	27.531	0	1408.620	0	17.3	4	5.3	4	-1E+10	1	-1E+10	1	-1E+10	1	-1E+10	1	-1E+10	1	-1E+10	1
4902549	104	C	07/01/2023	00:14	-132.602	47.234	0	1435.40	0	2.4860	0	34.4910	0	27.532	0	1418.567	0	17.8	4	5.4	4	-1E+10	1	-1E+10	1	-1E+10	1	-1E+10	1	-1E+10	1	-1E+10	1
4902549	104	C	07/01/2023	00:14	-132.602	47.234	0	1445.80	0	2.4530	0	34.4930	0	27.537	0	1428.810	0	18.3	4	5.6	4	-1E+10	1	-1E+10	1	-1E+10	1	-1E+10	1	-1E+10	1	-1E+10	1
4902549	104	C	07/01/2023	00:14	-132.602	47.234	0	1455.30	0	2.4550	0	34.4960	0	27.539	0	1438.166	0	18.8	4	5.7	4	-1E+10	1	-1E+10	1	-1E+10	1	-1E+10	1	-1E+10	1	-1E+10	1
4902549	104	C	07/01/2023	00:14	-132.602	47.234	0	1465.30	0	2.4460	0	34.4970	0	27.541	0	1448.014	0	19.1	4	5.8	4	-1E+10	1	-1E+10	1	-1E+10	1	-1E+10	1	-1E+10	1	-1E+10	1
4902549	104	C	07/01/2023	00:14	-132.602	47.234	0	1475.30	0	2.4330	0	34.4980	0	27.543	0	1457.862	0	19.6	4	6.0	4	-1E+10	1	-1E+10	1	-1E+10	1	-1E+10	1	-1E+10	1	-1E+10	1
4902549	104	C	07/01/2023	00:14	-132.602	47.234	0	1485.30	0	2.4110	0	34.5010	0	27.547	0	1467.709	0	20.3	4	6.2	4	-1E+10	1	-1E+10	1	-1E+10	1	-1E+10	1	-1E+10	1	-1E+10	1
4902549	104	C	07/01/2023	00:14	-132.602	47.234	0	1495.50	0	2.4020	0	34.5040	0	27.550	0	1477.752	0	20.9	4	6.4	4	-1E+10	1	-1E+10	1	-1E+10	1	-1E+10	1	-1E+10	1	-1E+10	1
4902549	104	C	07/01/2023	00:14	-132.602	47.234	0	1505.30	0	2.3920	0	34.5060	0	27.552	0	1487.402	0	21.4	4	6.5	4	-1E+10	1	-1E+10	1	-1E+10	1	-1E+10	1	-1E+10	1	-1E+10	1
4902549	104	C	07/01/2023	00:14	-132.602	47.234	0	1515.30	0	2.3720	0	34.5080	0	27.556	0	1497.247	0	21.9	4	6.7	4	-1E+10	1	-1E+10	1	-1E+10	1	-1E+10	1	-1E+10	1	-1E+10	1
4902549	104	C	07/01/2023	00:14	-132.602	47.234	0	1525.30	0	2.3620	0	34.5100	0	27.558	0	1507.093	0	22.4	4	6.8	4	-1E+10	1	-1E+10	1	-1E+10	1	-1E+10	1	-1E+10	1	-1E+10	1
4902549	104	C	07/01/2023	00:14	-132.602	47.234	0	1535.40	0	2.3470	0	34.5110	0	27.560	0	1517.036	0	22.7	4	6.9	4	-1E+10	1	-1E+10	1	-1E+10	1	-1E+10	1	-1E+10	1	-1E+10	1
4902549	104	C	07/01/2023	00:14	-132.602	47.234	0	1545.80	0	2.3430	0	34.5120	0	27.562	0	1527.274	0	23.0	4	7.0	4	-1E+10	1	-1E+10	1	-1E+10	1	-1E+10	1	-1E+10	1	-1E+10	1
4902549	104	C	07/01/2023	00:14	-132.602	47.234	0	1555.60	0	2.3300	0	34.5130	0	27.563	0	1536.921	0	23.4	4	7.1	4	-1E+10	1	-1E+10	1	-1E+10	1	-1E+10	1	-1E+10	1	-1E+10	1
4902549	104	C	07/01/2023	00:14	-132.602	47.234	0	1565.50	0	2.3170	0	34.5150	0	27.566	0	1546.666	0	23.8	4	7.2	4	-1E+10	1	-1E+10	1	-1E+10	1	-1E+10	1	-1E+10	1	-1E+10	1
4902549	104	C	07/01/2023	00:14	-132.602	47.234	0	1575.60	0	2.3040	0	34.5170	0	27.569	0	1556.607	0	24.2	4	7.4	4	-1E+10	1	-1E+10	1	-1E+10	1	-1E+10	1	-1E+10	1	-1E+10	1
4902549	104	C	07/01/2023	00:14	-132.602	47.234	0	1585.60	0	2.2880	0	34.5180	0	27.571	0	1566.450	0	24.6	4	7.5	4	-1E+10	1	-1E+10	1	-1E+10	1	-1E+10	1	-1E+10	1	-1E+10	1
4902549	104	C	07/01/2023	00:14	-132.602	47.234	0	1595.20	0	2.2790	0	34.5190	0	27.573	0	1575.898	0	25.3	4	7.7	4	-1E+10	1	-1E+10	1	-1E+10	1	-1E+10	1	-1E+10	1	-1E+10	1
4902549	104	C	07/01/2023	00:14	-132.602	47.234	0	1605.00	0	2.2630	0	34.5220	0	27.576	0	1585.543	0	26.2	4	7.9	4	-1E+10	1	-1E+10	1	-1E+10	1	-1E+10	1	-1E+10	1	-1E+10	1
4902549	104	C	07/01/2023	00:14	-132.602	47.234	0	1615.00	0	2.2530	0	34.5250	0	27.580	0	1595.384	0	26.9	4	8.2	4	-1E+10	1	-1E+10	1	-1E+10	1	-1E+10	1	-1E+10	1	-1E+10	1
4902549	104	C	07/01/2023	00:14	-132.602	47.234	0	1625.70	0	2.2390	0	34.5270	0	27.582	0	1605.913	0	27.7	4	8.4	4	-1E+10	1	-1E+10	1	-1E+10	1	-1E+10	1	-1E+10	1	-1E+10	1
4902549	104	C	07/01/2023	00:14	-132.602	47.234	0	1635.50	0	2.2270	0	34.5290	0	27.585	0	1615.557	0	28.4	4	8.6	4	-1E+10	1	-1E+10	1	-1E+10	1	-1E+10	1	-1E+10	1	-1E+10	1
4902549	104	C	07/01/2023	00:14	-132.602	47.234	0	1645.60	0	2.2140	0	34.5310	0	27.588	0	1625.495	0	29.0	4	8.8	4	-1E+10	1	-1E+10	1	-1E+10	1	-1E+10	1	-1E+10	1	-1E+10	1
4902549	104	C	07/01/2023	00:14	-132.602	47.234	0	1655.70	0	2.2010	0	34.5330	0	27.590	0	1635.432	0	29.6	4	9.0	4	-1E+10	1	-1E+10	1	-1E+10	1	-1E+10	1	-1E+10	1	-1E+10	1
4902549	104	C	07/01/2023	00:14	-132.602	47.234	0	1665.70	0	2.1930	0	34.5350	0	27.593	0	1645.271	0	30.3	4	9.2	4	-1E+10	1	-1E+10	1	-1E+10	1	-1E+10	1	-1E+10	1	-1E+10	1
4902549	104	C	07/01/2023	00:14	-132.602	47.234	0	1675.50	0	2.1820	0	34.5370	0	27.595	0	1654.913	0	30.9	4	9.4	4	-1E+10	1	-1E+10	1	-1E+10	1	-1E+10	1	-1E+10	1	-1E+10	1
4902549	104	C	07/01/2023	00:14	-132.602	47.234	0	1685.30	0	2.1720	0	34.5390	0	27.598	0	1664.554	0	31.8	4	9.6	4	-1E+10	1	-1E+10	1	-1E+10	1	-1E+10	1	-1E+10	1	-1E+10	1
4902549	104	C	07/01/2023	00:14	-132.602	47.234	0	1695.30	0	2.1540	0	34.5420	0	27.602	0	1674.392	0	32.6	4	9.9	4	-1E+10	1	-1E+10	1	-1E+10	1	-1E+10	1	-1E+10	1	-1E+10	1
4902549	104	C	07/01/2023	00:14	-132.602	47.234	0	1705.00	0	2.1460	0	34.5430	0	27.603	0	1683.933	0	33.1	4	10.0	4	-1E+10	1	-1E+10	1	-1E+10	1	-1E+10	1	-1E+10	1	-1E+10	1
4902549	104	C	07/01/2023	00:14	-132.602	47.234	0	1715.00	0	2.1390	0	34.5440	0	27.604	0	1693.770	0	33.8	4	10.2	4	-1E+10	1	-1E+10	1	-1E+10	1	-1E+10	1	-1E+10	1	-1E+10	1
4902549	104	C	07/01/2023	00:14	-132.602	47.234	0	1725.10	0	2.1280	0	34.5460	0	27.607	0	1703.704	0	34.4	4	10.4	4	-1E+10	1	-1E+10	1	-1E+10	1	-1E+10	1	-1E+10	1	-1E+10	1
4902549	104	C	07/01/2023	00:14	-132.602	47.234	0	1735.10	0	2.1180	0	34.5480	0	27.609	0	1713.540	0	35.0	4	10.6	4	-1E+10	1	-1E+10	1	-1E+10	1	-1E+10	1	-1E+10	1	-1E+10	1
4902549	104	C	07/01/2023	00:14	-132.602	47.234	0	1745.20	0	2.1110	0	34.5500	0	27.612	0	1723.473	0	35.5	4	10.7	4	-1E+10	1	-1E+10	1	-1E+10	1	-1E+10	1	-1E+10	1	-1E+10	1
4902549	104	C	07/01/2023	00:14	-132.602	47.234	0	1755.40	0	2.1060	0	34.5510	0	27.613	0	1733.505	0	36.2	4	10.9	4	-1E+10	1	-1E+10	1	-1E+10	1	-1E+10	1	-1E+10	1	-1E+10	1
4902549	104	C	07/01/2023	00:14	-132.602	47.234	0	1765.50	0	2.0930	0	34.5530	0	27.616	0	1743.437	0	37.2	4	11.2	4	-1E+10	1	-1E+10	1	-1E+10	1	-1E+10	1	-1E+10	1	-1E+10	1
4902549	104	C	07/01/2023	00:14	-132.602	47.234	0	1775.60	0	2.0790	0	34.5550	0	27.618	0	1753.369	0	38.0	4	11.5	4	-1E+10	1	-1E+10	1	-1E+10	1	-1E+10	1	-1E+10	1	-1E+10	1
4902549	104	C	07/01/2023	00:14	-132.602	47.234	0	1785.50	0	2.0710	0	34.5570	0	27.621	0	1763.104	0	38.8	4	11.7	4	-1E+10	1	-1E+10	1	-1E+10	1	-1E+10	1	-1E+10	1	-1E+10	1
4902549	104	C	07/01/2023	00:14	-132.602	47.234	0	1795.40	0	2.0590	0	34.5590	0	27.623	0	1772.839	0	39.7	4	12.0	4	-1E+10	1	-1E+10	1	-1E+10	1	-1E+10	1	-1E+10	1	-1E+10	1
4902549	104	C	07/01/2023	00:14	-132.602	47.234	0	1805.30	0	2.0480	0	34.5610	0	27.626	0	1782.573	0	40.5	4	12.2	4	-1E+10	1	-1E+10	1	-1E+10	1	-1E+10	1	-1E+10	1	-1E+10	1
4902549	104	C	07/01/2023	00:14	-132.602	47.234	0	1815.30	0	2.0400	0	34.5630	0	27.628	0	1792.405	0	41.2	4	12.4	4	-1E+10	1	-1E+10	1	-1E+10	1	-1E+10	1	-1E+10	1	-1E+10	1
4902549	104	C	07/01/2023	00:14	-132.602	47.234	0	1825.50	0	2.0300	0	34.5650	0	27.630	0	1802.433	0	42.2	4	12.7	4	-1E+10	1	-1E+10	1	-1E+10	1	-1E+10	1	-1E+10	1	-1E+10	1
4902549	104	C	07/01/2023	00:14	-132.602	47.234	0	1835.60	0	2.0160	0	34.5670	0	27.633	0	1812.362	0	43.2	4	13.0	4	-1E+10	1	-1E+10	1	-1E+10	1	-1E+10	1	-1E+10	1	-1E+10	1
4902549	104	C	07/01/2023	00:14	-132.602	47.234	0	1845.40	0	2.0060	0	34.5690	0	27.636	0	1821.997	0	43.7	4	13.2	4	-1E+10	1	-1E+10	1	-1E+10	1	-1E+10	1	-1E+10	1	-1E+10	1
4902549	104	C	07/01/2023	00:14	-132.602	47.234	0	1855.30	0	2.0040	0	34.5690	0	27.636	0	1831.728	0	44.1	4	13.3	4	-1E+10	1	-1E+10	1	-1E+10	1	-1E+10	1	-1E+10	1	-1E+10	1
4902549	104	C	07/01/2023	00:14	-132.602	47.234	0	1865.20	0	1.9980	0	34.5700	0	27.637	0	1841.460	0	44.7	4	13.5	4	-1E+10	1	-1E+10	1	-1E+10	1	-1E+10	1	-1E+10	1	-1E+10	1
4902549	104	C	07/01/2023	00:14	-132.602	47.234	0	1875.30	0	1.9890	0	34.5720	0	27.639	0	1851.387	0	45.6	4	13.7	4	-1E+10	1	-1E+10	1	-1E+10	1	-1E+10	1	-1E+10	1	-1E+10	1
4902549	104	C	07/01/2023	00:14	-132.602	47.234	0	1885.50	0	1.9790	0	34.5740	0	27.642	0	1861.413	0	46.4	4	14.0	4	-1E+10	1	-1E+10	1	-1E+10	1	-1E+10	1	-1E+10	1	-1E+10	1
4902549	104	C	07/01/2023	00:14	-132.602	47.234	0	1895.30	0	1.9730	0	34.5750	0	27.643	0	1871.044	0	46.9	4	14.1	4	-1E+10	1	-1E+10	1	-1E+10	1	-1E+10	1	-1E+10	1	-1E+10	1
4902549	104	C	07/01/2023	00:14	-132.602	47.234	0	1905.20	0	1.9680	0	34.5760	0	27.644	0	1880.774	0	47.5	4	14.3	4	-1E+10	1	-1E+10	1	-1E+10	1	-1E+10	1	-1E+10	1	-1E+10	1
4902549	104	C	07/01/2023	00:14	-132.602	47.234	0	1915.60	0	1.9590	0	34.5780	0	27.647	0	1890.994	0	48.3	4	14.6	4	-1E+10	1	-1E+10	1	-1E+10	1	-1E+10	1	-1E+10	1	-1E+10	1
4902549	104	C	07/01/2023	00:14	-132.602	47.234	0	1925.60	0	1.9500	0	34.5800	0	27.649	0	1900.821	0	49.1	4	14.8	4	-1E+10	1	-1E+10	1	-1E+10	1	-1E+10	1	-1E+10	1	-1E+10	1
4902549	104	C	07/01/2023	00:14	-132.602	47.234	0	1935.60	0	1.9420	0	34.5810	0	27.651	0	1910.648	0	49.9	4	15.0	4	-1E+10	1	-1E+10	1	-1E+10	1	-1E+10	1	-1E+10	1	-1E+10	1
4902549	104	C	07/01/2023	00:14	-132.602	47.234	0	1945.40	0	1.9330	0	34.5830	0	27.653	0	1920.277	0	50.6	4	15.2	4	-1E+10	1	-1E+10	1	-1E+10	1	-1E+10	1	-1E+10	1	-1E+10	1
4902549	104	C	07/01/2023	00:14	-132.602	47.234	0	1955.40	0	1.9280	0	34.5840	0	27.654	0	1930.103	0	51.3	4	15.4	4	-1E+10	1	-1E+10	1	-1E+10	1	-1E+10	1	-1E+10	1	-1E+10	1
4902549	104	C	07/01/2023	00:14	-132.602	47.234	0	1965.60	0	1.9190	0	34.5860	0	27.657	0	1940.124	0	51.9	4	15.6	4	-1E+10	1	-1E+10	1	-1E+10	1	-1E+10	1	-1E+10	1	-1E+10	1
4902549	104	C	07/01/2023	00:14	-132.602	47.234	0	1975.80	0	1.9150	0	34.5870	0	27.658	0	1950.146	0	52.2	4	15.7	4	-1E+10	1	-1E+10	1	-1E+10	1	-1E+10	1	-1E+10	1	-1E+10	1
4902549	104	C	07/01/2023	00:14	-132.602	47.234	0	1986.00	0	1.9100	0	34.5880	0	27.659	0	1960.166	0	52.2	4	15.7	4	-1E+10	1	-1E+10	1	-1E+10	1	-1E+10	1	-1E+10	1	-1E+10	1
4902549	104	C	07/01/2023	00:14	-132.602	47.234	0	1991.60	0	1.9090	0	34.5890	0	27.660	0	1965.668	0	51.7	4	15.5	4	-1E+10	1	-1E+10	1	-1E+10	1	-1E+10	1	-1E+10	1	-1E+10	1
4902549	104	C	07/01/2023	00:14	-132.602	47.234	0																										
4902549	105	C	07/11/2023	05:07	-132.531	47.279	0	0.20	0	14.8670	8	32.3160	8	23.933	0	0.198	0	254.5	4	100.6	4	-1E+10	1	-1E+10	1	-1E+10	1	-1E+10	1	-1E+10	1	-1E+10	1
4902549	105	C	07/11/2023	05:07	-132.531	47.279	0	0.30	0	14.9310	0	32.2510	0	23.869	0	0.298	0	249.2	4	98.5	4	-1E+10	1	-1E+10	1	-1E+10	1	-1E+10	1	-1E+10	1	-1E+10	1
4902549	105	C	07/11/2023	05:07	-132.531	47.279	0	0.90	0	14.9250	0	32.2250	0	23.850	0	0.893	0	249.3	4	98.5	4	-1E+10	1	-1E+10	1	-1E+10	1	-1E+10	1	-1E+10	1	-1E+10	1
4902549	105	C	07/11/2023	05:07	-132.531	47.279	0	1.90	0	14.8270	0	32.2590	0	23.897	0	1.884	0	249.6	4	98.5	4	-1E+10	1	-1E+10	1	-1E+10	1	-1E+10	1	-1E+10	1	-1E+10	1
4902549	105	C	07/11/2023	05:07	-132.531	47.279	0	2.80	0	14.7020	0	32.3540	0	23.997	0	2.777	0	250.0	4	98.5	4	-1E+10	1	-1E+10	1	-1E+10	1	-1E+10	1	-1E+10	1	-1E+10	1
4902549	105	C	07/11/2023	05:07	-132.531	47.279	0	4.00	0	14.6770	0	32.3780	0	24.021	0	3.967	0	250.3	4	98.6	4	-1E+10	1	-1E+10	1	-1E+10	1	-1E+10	1	-1E+10	1	-1E+10	1
4902549	105	C	07/11/2023	05:07	-132.531	47.279	0	4.90	0	14.6660	0	32.3880	0	24.031	0	4.859	0	250.6	4	98.6	4	-1E+10	1	-1E+10	1	-1E+10	1	-1E+10	1	-1E+10	1	-1E+10	1
4902549	105	C	07/11/2023	05:07	-132.531	47.279	0	5.80	0	14.6570	0	32.3880	0	24.033	0	5.752	0	250.9	4	98.8	4	-1E+10	1	-1E+10	1	-1E+10	1	-1E+10	1	-1E+10	1	-1E+10	1
4902549	105	C	07/11/2023	05:07	-132.531	47.279	0	6.90	0	14.6460	0	32.3870	0	24.035	0	6.842	0	251.3	4	98.9	4	-1E+10	1	-1E+10	1	-1E+10	1	-1E+10	1	-1E+10	1	-1E+10	1
4902549	105	C	07/11/2023	05:07	-132.531	47.279	0	8.00	0	14.6330	0	32.3880	0	24.038	0	7.933	0	252.2	4	99.2	4	-1E+10	1	-1E+10	1	-1E+10	1	-1E+10	1	-1E+10	1	-1E+10	1
4902549	105	C	07/11/2023	05:07	-132.531	47.279	0	9.10	0	14.6240	0	32.3880	0	24.040	0	9.024	0	253.0	4	99.5	4	-1E+10	1	-1E+10	1	-1E+10	1	-1E+10	1	-1E+10	1	-1E+10	1
4902549	105	C	07/11/2023	05:07	-132.531	47.279	0	9.80	0	14.6180	0	32.3870	0	24.041	0	9.718	0	254.3	4	100.0	4	-1E+10	1	-1E+10	1	-1E+10	1	-1E+10	1	-1E+10	1	-1E+10	1
4902549	105	C	07/11/2023	05:07	-132.531	47.279	0	10.80	0	14.6090	0	32.3850	0	24.041	0	10.710	0	256.5	4	100.9	4	-1E+10	1	-1E+10	1	-1E+10	1	-1E+10	1	-1E+10	1	-1E+10	1
4902549	105	C	07/11/2023	05:07	-132.531	47.279	0	11.90	0	14.4430	0	32.3860	0	24.077	0	11.801	0	259.6	4	101.8	4	-1E+10	1	-1E+10	1	-1E+10	1	-1E+10	1	-1E+10	1	-1E+10	1
4902549	105	C	07/11/2023	05:07	-132.531	47.279	0	12.90	0	14.1720	0	32.3820	0	24.130	0	12.792	0	263.4	4	102.7	4	-1E+10	1	-1E+10	1	-1E+10	1	-1E+10	1	-1E+10	1	-1E+10	1
4902549	105	C	07/11/2023	05:07	-132.531	47.279	0	14.00	0	14.0430	0	32.3760	0	24.152	0	13.883	0	265.9	4	103.4	4	-1E+10	1	-1E+10	1	-1E+10	1	-1E+10	1	-1E+10	1	-1E+10	1
4902549	105	C	07/11/2023	05:07	-132.531	47.279	0	15.00	0	13.7420	0	32.3780	0	24.215	0	14.875	0	269.7	4	104.2	4	-1E+10	1	-1E+10	1	-1E+10	1	-1E+10	1	-1E+10	1	-1E+10	1
4902549	105	C	07/11/2023	05:07	-132.531	47.279	0	16.30	0	12.9240	0	32.3740	0	24.375	0	16.164	0	274.3	4	104.3	4	-1E+10	1	-1E+10	1	-1E+10	1	-1E+10	1	-1E+10	1	-1E+10	1
4902549	105	C	07/11/2023	05:07	-132.531	47.279	0	17.00	0	12.8410	0	32.3650	0	24.384	0	16.858	0	275.1	4	104.4	4	-1E+10	1	-1E+10	1	-1E+10	1	-1E+10	1	-1E+10	1	-1E+10	1
4902549	105	C	07/11/2023	05:07	-132.531	47.279	0	18.00	0	12.6310	0	32.3760	0	24.433	0	17.849	0	276.6	4	104.5	4	-1E+10	1	-1E+10	1	-1E+10	1	-1E+10	1	-1E+10	1	-1E+10	1
4902549	105	C	07/11/2023	05:07	-132.531	47.279	0	19.00	0	12.5800	0	32.3690	0	24.438	0	18.841	0	277.9	4	104.9	4	-1E+10	1	-1E+10	1	-1E+10	1	-1E+10	1	-1E+10	1	-1E+10	1
4902549	105	C	07/11/2023	05:07	-132.531	47.279	0	20.10	0	12.4960	0	32.3680	0	24.453	0	19.932	0	280.6	4	105.7	4	-1E+10	1	-1E+10	1	-1E+10	1	-1E+10	1	-1E+10	1	-1E+10	1
4902549	105	C	07/11/2023	05:07	-132.531	47.279	0	21.10	0	12.3010	0	32.3640	0	24.487	0	20.923	0	283.5	4	106.4	4	-1E+10	1	-1E+10	1	-1E+10	1	-1E+10	1	-1E+10	1	-1E+10	1
4902549	105	C	07/11/2023	05:07	-132.531	47.279	0	21.90	0	12.0430	0	32.3640	0	24.536	0	21.717	0	286.0	4	106.7	4	-1E+10	1	-1E+10	1	-1E+10	1	-1E+10	1	-1E+10	1	-1E+10	1
4902549	105	C	07/11/2023	05:07	-132.531	47.279	0	23.10	0	11.4020	0	32.3770	0	24.663	0	22.906	0	288.8	4	106.3	4	-1E+10	1	-1E+10	1	-1E+10	1	-1E+10	1	-1E+10	1	-1E+10	1
4902549	105	C	07/11/2023	05:07	-132.531	47.279	0	24.00	0	11.1550	0	32.3640	0	24.697	0	23.799	0	289.4	4	106.0	4	-1E+10	1	-1E+10	1	-1E+10	1	-1E+10	1	-1E+10	1	-1E+10	1
4902549	105	C	07/11/2023	05:07	-132.531	47.279	0	25.00	0	10.8500	0	32.3600	0	24.748	0	24.790	0	290.0	4	105.5	4	-1E+10	1	-1E+10	1	-1E+10	1	-1E+10	1	-1E+10	1	-1E+10	1
4902549	105	C	07/11/2023	05:07	-132.531	47.279	0	26.20	0	10.4610	0	32.3590	0	24.814	0	25.980	0	290.0	4	104.7	4	-1E+10	1	-1E+10	1	-1E+10	1	-1E+10	1	-1E+10	1	-1E+10	1
4902549	105	C	07/11/2023	05:07	-132.531	47.279	0	26.90	0	10.1160	0	32.3750	0	24.884	0	26.674	0	290.6	4	104.1	4	-1E+10	1	-1E+10	1	-1E+10	1	-1E+10	1	-1E+10	1	-1E+10	1
4902549	105	C	07/11/2023	05:07	-132.531	47.279	0	28.10	0	9.6270	0	32.3680	0	24.959	0	27.864	0	293.0	4	103.9	4	-1E+10	1	-1E+10	1	-1E+10	1	-1E+10	1	-1E+10	1	-1E+10	1
4902549	105	C	07/11/2023	05:07	-132.531	47.279	0	28.90	0	9.5430	0	32.3690	0	24.974	0	28.657	0	292.4	4	103.5	4	-1E+10	1	-1E+10	1	-1E+10	1	-1E+10	1	-1E+10	1	-1E+10	1
4902549	105	C	07/11/2023	05:07	-132.531	47.279	0	29.70	0	9.4390	0	32.3680	0	24.989	0	29.451	0	292.0	4	103.1	4	-1E+10	1	-1E+10	1	-1E+10	1	-1E+10	1	-1E+10	1	-1E+10	1
4902549	105	C	07/11/2023	05:07	-132.531	47.279	0	30.90	0	9.2860	0	32.3660	0	25.012	0	30.640	0	291.5	4	102.6	4	-1E+10	1	-1E+10	1	-1E+10	1	-1E+10	1	-1E+10	1	-1E+10	1
4902549	105	C	07/11/2023	05:07	-132.531	47.279	0	32.10	0	9.1800	0	32.3670	0	25.030	0	31.830	0	290.6	4	102.0	4	-1E+10	1	-1E+10	1	-1E+10	1	-1E+10	1	-1E+10	1	-1E+10	1
4902549	105	C	07/11/2023	05:07	-132.531	47.279	0	33.10	0	9.0770	0	32.3700	0	25.048	0	32.822	0	289.4	4	101.4	4	-1E+10	1	-1E+10	1	-1E+10	1	-1E+10	1	-1E+10	1	-1E+10	1
4902549	105	C	07/11/2023	05:07	-132.531	47.279	0	34.00	0	8.9970	0	32.3750	0	25.065	0	33.714	0	288.5	4	100.9	4	-1E+10	1	-1E+10	1	-1E+10	1	-1E+10	1	-1E+10	1	-1E+10	1
4902549	105	C	07/11/2023	05:07	-132.531	47.279	0	35.00	0	8.8250	0	32.3800	0	25.095	0	34.706	0	288.6	4	100.5	4	-1E+10	1	-1E+10	1	-1E+10	1	-1E+10	1	-1E+10	1	-1E+10	1
4902549	105	C	07/11/2023	05:07	-132.531	47.279	0	36.10	0	8.7440	0	32.3830	0	25.110	0	35.796	0	288.1	4	100.2	4	-1E+10	1	-1E+10	1	-1E+10	1	-1E+10	1	-1E+10	1	-1E+10	1
4902549	105	C	07/11/2023	05:07	-132.531	47.279	0	36.80	0	8.7260	0	32.3820	0	25.112	0	36.490	0	287.7	4	100.0	4	-1E+10	1	-1E+10	1	-1E+10	1	-1E+10	1	-1E+10	1	-1E+10	1
4902549	105	C	07/11/2023	05:07	-132.531	47.279	0	38.00	0	8.6800	0	32.3830	0	25.119	0	37.680	0	287.0	4	99.6	4	-1E+10	1	-1E+10	1	-1E+10	1	-1E+10	1	-1E+10	1	-1E+10	1
4902549	105	C	07/11/2023	05:07	-132.531	47.279	0	39.20	0	8.6140	0	32.3850	0	25.131	0	38.870	0	286.5	4	99.3	4	-1E+10	1	-1E+10	1	-1E+10	1	-1E+10	1	-1E+10	1	-1E+10	1
4902549	105	C	07/11/2023	05:07	-132.531	47.279	0	40.00	0	8.5500	0	32.3880	0	25.143	0	39.663	0	286.4	4	99.1	4	-1E+10	1	-1E+10	1	-1E+10	1	-1E+10	1	-1E+10	1	-1E+10	1
4902549	105	C	07/11/2023	05:07	-132.531	47.279	0	41.00	0	8.5080	0	32.3890	0	25.150	0	40.655	0	286.0	4	98.9	4	-1E+10	1	-1E+10	1	-1E+10	1	-1E+10	1	-1E+10	1	-1E+10	1
4902549	105	C	07/11/2023	05:07	-132.531	47.279	0	42.10	0	8.4560	0	32.3920	0	25.160	0	41.745	0	285.7	4	98.7	4	-1E+10	1	-1E+10	1	-1E+10	1	-1E+10	1	-1E+10	1	-1E+10	1
4902549	105	C	07/11/2023	05:07	-132.531	47.279	0	42.80	0	8.4350	0	32.3920	0	25.163	0	42.439	0	285.4	4	98.6	4	-1E+10	1	-1E+10	1	-1E+10	1	-1E+10	1	-1E+10	1	-1E+10	1
4902549	105	C	07/11/2023	05:07	-132.531	47.279	0	43.70	0	8.4120	0	32.3920	0	25.167	0	43.332	0	285.1	4	98.4	4	-1E+10	1	-1E+10	1	-1E+10	1	-1E+10	1	-1E+10	1	-1E+10	1
4902549	105	C	07/11/2023	05:07	-132.531	47.279	0	45.10	0	8.3810	0	32.3930	0	25.172	0	44.720	0	284.5	4	98.1	4	-1E+10	1	-1E+10	1	-1E+10	1	-1E+10	1	-1E+10	1	-1E+10	1
4902549	105	C	07/11/2023	05:07	-132.531	47.279	0	46.00	0	8.3700	0	32.3930	0	25.174	0	45.612	0	284.0	4	97.9	4	-1E+10	1	-1E+10	1	-1E+10	1	-1E+10	1	-1E+10	1	-1E+10	1
4902549	105	C	07/11/2023	05:07	-132.531	47.279	0	47.20	0	8.3460	0	32.3940	0	25.178	0	46.802	0	283.3	4	97.6	4	-1E+10	1	-1E+10	1	-1E+10	1	-1E+10	1	-1E+10	1	-1E+10	1
4902549	105	C	07/11/2023	05:07	-132.531	47.279	0	47.90	0	8.3240	0	32.3950	0	25.182	0	47.496	0	283.1	4	97.5	4	-1E+10	1	-1E+10	1	-1E+10	1	-1E+10	1	-1E+10	1	-1E+10	1
4902549	105	C	07/11/2023	05:07	-132.531	47.279	0	48.80	0	8.2680	0	32.3990	0	25.194	0	48.388	0	282.8	4	97.3	4	-1E+10	1	-1E+10	1	-1E+10	1	-1E+10	1	-1E+10	1	-1E+10	1
4902549	105	C	07/11/2023	05:07	-132.531	47.279	0	49.90	0	8.2450	0	32.3950	0	25.194	0	49.479	0	282.3	4	97.1	4	-1E+10	1	-1E+10	1	-1E+10	1	-1E+10	1	-1E+10	1	-1E+10	1
4902549	105	C	07/11/2023	05:07	-132.531	47.279	0	51.00	0	8.2370	0	32.3940	0	25.194	0	50.569	0	281.6	4	96.8	4	-1E+10	1	-1E+10	1	-1E+10	1	-1E+10	1	-1E+10	1	-1E+10	1
4902549	105	C	07/11/2023	05:07	-132.531	47.279	0	52.10	0	8.1970	0	32.3910	0	25.198	0	51.660	0	280.8	4	96.4	4	-1E+10	1	-1E+10	1	-1E+10	1	-1E+10	1	-1E+10	1	-1E+10	1
4902549	105	C	07/11/2023	05:07	-132.531	47.279	0	53.00	0	8.1680	0	32.3900	0	25.201	0	52.552	0	280.2	4	96.2	4	-1E+10	1	-1E+10	1	-1E+10	1	-1E+10	1	-1E+10	1	-1E+10	1
4902549	105	C	07/11/2023	05:07	-132.531	47.279	0	54.00	0	8.0850	0	32.3910	0	25.214	0	53.543	0	279.7	4	95.8	4	-1E+10	1	-1E+10	1	-1E+10	1	-1E+10	1	-1E+10	1	-1E+10	1
4902549	105	C	07/11/2023	05:07	-132.531	47.279	0	55.10	0	8.0380	0	32.3930	0	25.222	0	54.634	0	279.1	4	95.5	4	-1E+10	1	-1E+10	1	-1E+10	1	-1E+10	1	-1E+10	1	-1E+10	1
4902549	105	C	07/11/2023	05:07	-132.531	47.279	0	55.90	0	8.0040	0	32.3950	0	25.229	0	55.427	0	278.7	4	95.3	4	-1E+10	1	-1E+10	1	-1E+10	1	-1E+10	1	-1E+10	1	-1E+10	1
4902549	105	C	07/11/2023	05:07	-132.531	47.279	0	57.20	0	7.9610	0	32.3940	0	25.234	0	56.716	0	277.8	4	94.9	4	-1E+10	1	-1E+10	1	-1E+10	1	-1E+10	1	-1E+10	1	-1E+10	1
4902549	105	C	07/11/2023	05:07	-132.531	47.279	0	58.00	0	7.8960	0	32.3950	0	25.245	0	57.509	0	277.7	4	94.8	4	-1E+10	1	-1E+10	1	-1E+10	1	-1E+10	1	-1E+10	1	-1E+10	1
4902549	105	C	07/11/2023	05:07	-132.531	47.279	0	59.10	0	7.8430	0	32.3950	0	25.252	0	58.600	0	277.2	4	94.5	4	-1E+10	1	-1E+10	1	-1E+10	1	-1E+10	1	-1E+10	1	-1E+10	1
4902549	105	C	07/11/2023	05:07	-132.531	47.279	0	60.00	0	7.7530	0	32.3850	0	25.257	0	59.492	0	277.2	4	94.3	4	-1E+10	1	-1E+10	1	-1E+10	1	-1E+10	1	-1E+10	1	-1E+10	1
4902549	105	C	07/11/2023	05:07	-132.531	47.279	0	61.20	0	7.6960	0	32.3810	0	25.262	0	60.681	0	276.5	4	93.9	4	-1E+10	1	-1E+10	1	-1E+10	1	-1E+10	1	-1E+10	1	-1E+10	1
4902549	105	C	07/11/2023	05:07	-132.531	47.279	0	61.90	0	7.6590	0	32.3820	0	25.268	0	61.375	0	276.4	4	93.8	4	-1E+10	1	-1E+10	1	-1E+10	1	-1E+10	1	-1E+10	1	-1E+10	1
4902549	105	C	07/11/2023	05:07	-132.531	47.279	0	62.90	0	7.6250	0	32.3810	0	25.272	0	62.367	0	275.8	4	93.5	4	-1E+10	1	-1E+10	1	-1E+10	1	-1E+10	1	-1E+10	1	-1E+10	1
4902549	105	C	07/11/2023	05:07	-132.531	47.279	0	63.90	0	7.5990	0	32.3850	0	25.279	0	63.358	0	275.3	4	93.3	4	-1E+10	1	-1E+10	1	-1E+10	1	-1E+10	1	-1E+10	1	-1E+10	1
4902549	105	C	07/11/2023	05:07	-132.531	47.279	0	64.90	0	7.5800	0	32.3880	0	25.284	0	64.350	0	275.0	4	93.1	4	-1E+10	1	-1E+10	1	-1E+10	1	-1E+10	1	-1E+10	1	-1E+10	1
4902549	105	C	07/11/2023	05:07	-132.531	47.279	0	66.00	0	7.5580	0	32.3880	0	25.287	0	65.440	0	274.6	4	93.0	4	-1E+10	1	-1E+10	1	-1E+10	1	-1E+10	1	-1E+10	1	-1E+10	1
4902549	105	C	07/11/2023	05:07	-132.531	47.279	0	67.00	0	7.5410	0	32.3890	0	25.290	0	66.431	0	274.3	4	92.8	4	-1E+10	1	-1E+10	1	-1E+10	1	-1E+10	1	-1E+10	1	-1E+10	1
4902549	105	C	07/11/2023	05:07	-132.531	47.279	0	68.10	0	7.5440	0	32.3920	0	25.292	0	67.522	0	273.9	4	92.7	4	-1E+10	1	-1E+10	1	-1E+10	1	-1E+10	1	-1E+10	1	-1E+10	1
4902549	105	C	07/11/2023	05:07	-132.531	47.279	0	69.10	0	7.5420	0	32.3940	0	25.294	0	68.513	0	273.6	4	92.6	4	-1E+10	1	-1E+10	1	-1E+10	1	-1E+10	1	-1E+10	1	-1E+10	1
4902549	105	C	07/11/2023	05:07	-132.531	47.279	0	70.00	0	7.5420	0	32.3950	0	25.295	0	69.405	0	273.3	4	92.5	4	-1E+10	1	-1E+10	1	-1E+10	1	-1E+10	1	-1E+10	1	-1E+10	1
4902549	105	C	07/11/2023	05:07	-132.531	47.279	0	70.70	0	7.5320	0	32.3950	0	25.296	0	70.099	0	273.1	4	92.4	4	-1E+10	1	-1E+10	1	-1E+10	1	-1E+10	1	-1E+10	1	-1E+10	1
4902549	105	C	07/11/2023	05:07	-132.531	47.279	0	71.80	0	7.5340	0	32.3960	0	25.296	0	71.190	0	272.8	4	92.3	4	-1E+10	1	-1E+10	1	-1E+10	1	-1E+10	1	-1E+10	1	-1E+10	1
4902549	105	C	07/11/2023	05:07	-132.531	47.279	0	72.90	0	7.5300	0	32.3970	0	25.298	0	72.280	0	272.5	4	92.2	4	-1E+10	1	-1E+10	1	-1E+10	1	-1E+10	1	-1E+10	1	-1E+10	1
4902549	105	C	07/11/2023	05:07	-132.531	47.279	0	73.90	0	7.5030	0	32.3960	0	25.301	0	73.272	0	272.5	4	92.1	4	-1E+10	1	-1E+10	1	-1E+10	1	-1E+10	1	-1E+10	1	-1E+10	1
4902549	105	C	07/11/2023	05:07	-132.531	47.279	0	75.00	0	7.5020	0	32.3960	0	25.301	0	74.362	0	272.2	4	92.0	4	-1E+10	1	-1E+10	1	-1E+10	1	-1E+10	1	-1E+10	1	-1E+10	1
4902549	105	C	07/11/2023	05:07	-132.531	47.279	0	76.10	0	7.5040	0	32.3980	0	25.302	0	75.452	0	271.9	4	92.0	4	-1E+10	1	-1E+10	1	-1E+10	1	-1E+10	1	-1E+10	1	-1E+10	1
4902549	105	C	07/11/2023	05:07	-132.531	47.279	0	77.10	0	7.4740	0	32.3980	0	25.306	0	76.444	0	271.8	4	91.9	4	-1E+10	1	-1E+10	1	-1E+10	1	-1E+10	1	-1E+10	1	-1E+10	1
4902549	105	C	07/11/2023	05:07	-132.531	47.279	0	78.00	0	7.4640	0	32.3970	0	25.307	0	77.336	0	271.8	4	91.8	4	-1E+10	1	-1E+10	1	-1E+10	1	-1E+10	1	-1E+10	1	-1E+10	1
4902549	105	C	07/11/2023	05:07	-132.531	47.279	0	78.70	0	7.4560	0	32.3960	0	25.307	0	78.030	0	271.7	4	91.8	4	-1E+10	1	-1E+10	1	-1E+10	1	-1E+10	1	-1E+10	1	-1E+10	1
4902549	105	C	07/11/2023	05:07	-132.531	47.279	0	79.80	0	7.4380	0	32.3960	0	25.310	0	79.120	0	271.7	4	91.7	4	-1E+10	1	-1E+10	1	-1E+10	1	-1E+10	1	-1E+10	1	-1E+10	1
4902549	105	C	07/11/2023	05:07	-132.531	47.279	0	81.00	0	7.4380	0	32.3960	0	25.310	0	80.310	0	271.4	4	91.6	4	-1E+10	1	-1E+10	1	-1E+10	1	-1E+10	1	-1E+10	1	-1E+10	1
4902549	105	C	07/11/2023	05:07	-132.531	47.279	0	82.10	0	7.4300	0	32.3960	0	25.311	0	81.400	0	271.1	4	91.5	4	-1E+10	1	-1E+10	1	-1E+10	1	-1E+10	1	-1E+10	1	-1E+10	1
4902549	105	C	07/11/2023	05:07	-132.531	47.279	0	82.90	0	7.4180	0	32.3970	0	25.313	0	82.193	0	277.9	4	93.8	4	-1E+10	1	-1E+10	1	-1E+10	1	-1E+10	1	-1E+10	1	-1E+10	1
4902549	105	C	07/11/2023	05:07	-132.531	47.279	0	83.70	0	7.4170	0	32.3960	0	25.313	0	82.986	0	277.6	4	93.7	4	-1E+10	1	-1E+10	1	-1E+10	1	-1E+10	1	-1E+10	1	-1E+10	1
4902549	105	C	07/11/2023	05:07	-132.531	47.279	0	84.80	0	7.4250	0	32.3990	0	25.314	0	84.077	0	277.0	4	93.5	4	-1E+10	1	-1E+10	1	-1E+10	1	-1E+10	1	-1E+10	1	-1E+10	1
4902549	105	C	07/11/2023	05:07	-132.531	47.279	0	86.00	0	7.4190	0	32.4010	0	25.316	0	85.266	0	276.7	4	93.4	4	-1E+10	1	-1E+10	1	-1E+10	1	-1E+10	1	-1E+10	1	-1E+10	1
4902549	105	C	07/11/2023	05:07	-132.531	47.279	0	87.10	0	7.4210	0	32.4050	0	25.319	0	86.357	0	276.4	4	93.3	4	-1E+10	1	-1E+10	1	-1E+10	1	-1E+10	1	-1E+10	1	-1E+10	1
4902549	105	C	07/11/2023	05:07	-132.531	47.279	0	88.00	0	7.4170	0	32.4050	0	25.320	0	87.249	0	275.9	4	93.1	4	-1E+10	1	-1E+10	1	-1E+10	1	-1E+10	1	-1E+10	1	-1E+10	1
4902549	105	C	07/11/2023	05:07	-132.531	47.279	0	88.90	0	7.4230	0	32.4070	0	25.321	0	88.141	0	275.5	4	93.0	4	-1E+10	1	-1E+10	1	-1E+10	1	-1E+10	1	-1E+10	1	-1E+10	1
4902549	105	C	07/11/2023	05:07	-132.531	47.279	0	90.00	0	7.4190	0	32.4120	0	25.325	0	89.231	0	274.9	4	92.8	4	-1E+10	1	-1E+10	1	-1E+10	1	-1E+10	1	-1E+10	1	-1E+10	1
4902549	105	C	07/11/2023	05:07	-132.531	47.279	0	91.10	0	7.4070	0	32.4140	0	25.328	0	90.322	0	274.3	4	92.6	4	-1E+10	1	-1E+10	1	-1E+10	1	-1E+10	1	-1E+10	1	-1E+10	1
4902549	105	C	07/11/2023	05:07	-132.531	47.279	0	92.00	0	7.3790	0	32.4110	0	25.330	0	91.214	0	273.9	4	92.4	4	-1E+10	1	-1E+10	1	-1E+10	1	-1E+10	1	-1E+10	1	-1E+10	1
4902549	105	C	07/11/2023	05:07	-132.531	47.279	0	92.90	0	7.3900	0	32.4190	0	25.335	0	92.106	0	273.3	4	92.2	4	-1E+10	1	-1E+10	1	-1E+10	1	-1E+10	1	-1E+10	1	-1E+10	1
4902549	105	C	07/11/2023	05:07	-132.531	47.279	0	94.00	0	7.3610	0	32.4190	0	25.339	0	93.196	0	272.6	4	91.9	4	-1E+10	1	-1E+10	1	-1E+10	1	-1E+10	1	-1E+10	1	-1E+10	1
4902549	105	C	07/11/2023	05:07	-132.531	47.279	0	95.10	0	7.3110	0	32.4180	0	25.345	0	94.286	0	271.6	4	91.5	4	-1E+10	1	-1E+10	1	-1E+10	1	-1E+10	1	-1E+10	1	-1E+10	1
4902549	105	C	07/11/2023	05:07	-132.531	47.279	0	96.00	0	7.3000	0	32.4200	0	25.348	0	95.179	0	270.8	4	91.2	4	-1E+10	1	-1E+10	1	-1E+10	1	-1E+10	1	-1E+10	1	-1E+10	1
4902549	105	C	07/11/2023	05:07	-132.531	47.279	0	96.80	0	7.3150	0	32.4260	0	25.351	0	95.972	0	269.5	4	90.8	4	-1E+10	1	-1E+10	1	-1E+10	1	-1E+10	1	-1E+10	1	-1E+10	1
4902549	105	C	07/11/2023	05:07	-132.531	47.279	0	97.90	0	7.2740	0	32.4280	0	25.358	0	97.062	0	268.3	4	90.3	4	-1E+10	1	-1E+10	1	-1E+10	1	-1E+10	1	-1E+10	1	-1E+10	1
4902549	105	C	07/11/2023	05:07	-132.531	47.279	0	98.90	0	7.3150	0	32.4490	0	25.369	0	98.053	0	266.7	4	89.8	4	-1E+10	1	-1E+10	1	-1E+10	1	-1E+10	1	-1E+10	1	-1E+10	1
4902549	105	C	07/11/2023	05:07	-132.531	47.279	0	99.90	0	7.3270	0	32.4620	0	25.377	0	99.044	0	265.1	4	89.3	4	-1E+10	1	-1E+10	1	-1E+10	1	-1E+10	1	-1E+10	1	-1E+10	1
4902549	105	C	07/11/2023	05:07	-132.531	47.279	0	100.90	0	7.3630	0	32.4840	0	25.390	0	100.035	0	263.2	4	88.8	4	-1E+10	1	-1E+10	1	-1E+10	1	-1E+10	1	-1E+10	1	-1E+10	1
4902549	105	C	07/11/2023	05:07	-132.531	47.279	0	102.10	0	7.3750	0	32.5000	0	25.401	0	101.225	0	261.1	4	88.1	4	-1E+10	1	-1E+10	1	-1E+10	1	-1E+10	1	-1E+10	1	-1E+10	1
4902549	105	C	07/11/2023	05:07	-132.531	47.279	0	103.00	0	7.3750	0	32.5050	0	25.405	0	102.117	0	259.2	4	87.5	4	-1E+10	1	-1E+10	1	-1E+10	1	-1E+10	1	-1E+10	1	-1E+10	1
4902549	105	C	07/11/2023	05:07	-132.531	47.279	0	103.80	0	7.2910	0	32.5450	0	25.448	0	102.910	0	258.1	4	87.0	4	-1E+10	1	-1E+10	1	-1E+10	1	-1E+10	1	-1E+10	1	-1E+10	1
4902549	105	C	07/11/2023	05:07	-132.531	47.279	0	105.00	0	7.2290	0	32.5710	0	25.476	0	104.099	0	256.0	4	86.2	4	-1E+10	1	-1E+10	1	-1E+10	1	-1E+10	1	-1E+10	1	-1E+10	1
4902549	105	C	07/11/2023	05:07	-132.531	47.279	0	106.10	0	7.1480	0	32.5960	0	25.507	0	105.190	0	252.9	4	85.0	4	-1E+10	1	-1E+10	1	-1E+10	1	-1E+10	1	-1E+10	1	-1E+10	1
4902549	105	C	07/11/2023	05:07	-132.531	47.279	0	107.00	0	7.0950	0	32.6100	0	25.525	0	106.082	0	251.3	4	84.3	4	-1E+10	1	-1E+10	1	-1E+10	1	-1E+10	1	-1E+10	1	-1E+10	1
4902549	105	C	07/11/2023	05:07	-132.531	47.279	0	108.00	0	7.0360	0	32.6480	0	25.563	0	107.073	0	249.6	4	83.7	4	-1E+10	1	-1E+10	1	-1E+10	1	-1E+10	1	-1E+10	1	-1E+10	1
4902549	105	C	07/11/2023	05:07	-132.531	47.279	0	109.10	0	7.0340	0	32.6560	0	25.570	0	108.163	0	247.2	4	82.9	4	-1E+10	1	-1E+10	1	-1E+10	1	-1E+10	1	-1E+10	1	-1E+10	1
4902549	105	C	07/11/2023	05:07	-132.531	47.279	0	109.90	0	7.0210	0	32.6720	0	25.584	0	108.956	0	245.7	4	82.3	4	-1E+10	1	-1E+10	1	-1E+10	1	-1E+10	1	-1E+10	1	-1E+10	1
4902549	105	C	07/11/2023	05:07	-132.531	47.279	0	111.10	0	6.9920	0	32.7100	0	25.618	0	110.145	0	243.4	4	81.6	4	-1E+10	1	-1E+10	1	-1E+10	1	-1E+10	1	-1E+10	1	-1E+10	1
4902549	105	C	07/11/2023	05:07	-132.531	47.279	0	112.00	0	6.9280	0	32.7610	0	25.667	0	111.037	0	242.5	4	81.1	4	-1E+10	1	-1E+10	1	-1E+10	1	-1E+10	1	-1E+10	1	-1E+10	1
4902549	105	C	07/11/2023	05:07	-132.531	47.279	0	113.00	0	6.9080	0	32.7790	0	25.683	0	112.029	0	241.0	4	80.6	4	-1E+10	1	-1E+10	1	-1E+10	1	-1E+10	1	-1E+10	1	-1E+10	1
4902549	105	C	07/11/2023	05:07	-132.531	47.279	0	113.90	0	6.8890	0	32.7930	0	25.697	0	112.921	0	238.6	4	79.8	4	-1E+10	1	-1E+10	1	-1E+10	1	-1E+10	1	-1E+10	1	-1E+10	1
4902549	105	C	07/11/2023	05:07	-132.531	47.279	0	114.80	0	6.8840	0	32.7970	0	25.701	0	113.813	0	235.9	4	78.9	4	-1E+10	1	-1E+10	1	-1E+10	1	-1E+10	1	-1E+10	1	-1E+10	1
4902549	105	C	07/11/2023	05:07	-132.531	47.279	0	116.00	0	6.8410	0	32.8450	0	25.744	0	115.002	0	232.8	4	77.8	4	-1E+10	1	-1E+10	1	-1E+10	1	-1E+10	1	-1E+10	1	-1E+10	1
4902549	105	C	07/11/2023	05:07	-132.531	47.279	0	117.10	0	6.7960	0	32.8960	0	25.790	0	116.092	0	230.3	4	76.9	4	-1E+10	1	-1E+10	1	-1E+10	1	-1E+10	1	-1E+10	1	-1E+10	1
4902549	105	C	07/11/2023	05:07	-132.531	47.279	0	118.10	0	6.7480	0	32.9370	0	25.829	0	117.083	0	228.8	4	76.3	4	-1E+10	1	-1E+10	1	-1E+10	1	-1E+10	1	-1E+10	1	-1E+10	1
4902549	105	C	07/11/2023	05:07	-132.531	47.279	0	119.10	0	6.6950	0	32.9830	0	25.872	0	118.074	0	227.0	4	75.7	4	-1E+10	1	-1E+10	1	-1E+10	1	-1E+10	1	-1E+10	1	-1E+10	1
4902549	105	C	07/11/2023	05:07	-132.531	47.279	0	119.90	0	6.6750	0	33.0030	0	25.891	0	118.867	0	225.8	4	75.3	4	-1E+10	1	-1E+10	1	-1E+10	1	-1E+10	1	-1E+10	1	-1E+10	1
4902549	105	C	07/11/2023	05:07	-132.531	47.279	0	120.70	0	6.6750	0	33.0250	0	25.908	0	119.660	0	224.4	4	74.8	4	-1E+10	1	-1E+10	1	-1E+10	1	-1E+10	1	-1E+10	1	-1E+10	1
4902549	105	C	07/11/2023	05:07	-132.531	47.279	0	121.70	0	6.6530	0	33.0690	0	25.946	0	120.651	0	222.8	4	74.3	4	-1E+10	1	-1E+10	1	-1E+10	1	-1E+10	1	-1E+10	1	-1E+10	1
4902549	105	C	07/11/2023	05:07	-132.531	47.279	0	122.80	0	6.6800	0	33.1140	0	25.977	0	121.741	0	221.3	4	73.8	4	-1E+10	1	-1E+10	1	-1E+10	1	-1E+10	1	-1E+10	1	-1E+10	1
4902549	105	C	07/11/2023	05:07	-132.531	47.279	0	123.90	0	6.6780	0	33.1550	0	26.010	0	122.832	0	220.3	4	73.5	4	-1E+10	1	-1E+10	1	-1E+10	1	-1E+10	1	-1E+10	1	-1E+10	1
4902549	105	C	07/11/2023	05:07	-132.531	47.279	0	125.10	0	6.6820	0	33.1840	0	26.032	0	124.021	0	219.8	4	73.4	4	-1E+10	1	-1E+10	1	-1E+10	1	-1E+10	1	-1E+10	1	-1E+10	1
4902549	105	C	07/11/2023	05:07	-132.531	47.279	0	125.90	0	6.6430	0	33.2100	0	26.058	0	124.814	0	219.5	4	73.2	4	-1E+10	1	-1E+10	1	-1E+10	1	-1E+10	1	-1E+10	1	-1E+10	1
4902549	105	C	07/11/2023	05:07	-132.531	47.279	0	126.70	0	6.5790	0	33.2280	0	26.081	0	125.607	0	219.2	4	73.0	4	-1E+10	1	-1E+10	1	-1E+10	1	-1E+10	1	-1E+10	1	-1E+10	1
4902549	105	C	07/11/2023	05:07	-132.531	47.279	0	127.80	0	6.5290	0	33.2470	0	26.102	0	126.697	0	218.5	4	72.7	4	-1E+10	1	-1E+10	1	-1E+10	1	-1E+10	1	-1E+10	1	-1E+10	1
4902549	105	C	07/11/2023	05:07	-132.531	47.279	0	128.90	0	6.4650	0	33.2680	0	26.127	0	127.787	0	217.7	4	72.4	4	-1E+10	1	-1E+10	1	-1E+10	1	-1E+10	1	-1E+10	1	-1E+10	1
4902549	105	C	07/11/2023	05:07	-132.531	47.279	0	130.00	0	6.4320	0	33.2920	0	26.150	0	128.877	0	216.5	4	71.9	4	-1E+10	1	-1E+10	1	-1E+10	1	-1E+10	1	-1E+10	1	-1E+10	1
4902549	105	C	07/11/2023	05:07	-132.531	47.279	0	131.00	0	6.4210	0	33.3120	0	26.167	0	129.868	0	215.0	4	71.4	4	-1E+10	1	-1E+10	1	-1E+10	1	-1E+10	1	-1E+10	1	-1E+10	1
4902549	105	C	07/11/2023	05:07	-132.531	47.279	0	132.10	0	6.3600	0	33.3330	0	26.192	0	130.958	0	213.5	4	70.8	4	-1E+10	1	-1E+10	1	-1E+10	1	-1E+10	1	-1E+10	1	-1E+10	1
4902549	105	C	07/11/2023	05:07	-132.531	47.279	0	133.00	0	6.3450	0	33.3530	0	26.209	0	131.850	0	212.6	4	70.5	4	-1E+10	1	-1E+10	1	-1E+10	1	-1E+10	1	-1E+10	1	-1E+10	1
4902549	105	C	07/11/2023	05:07	-132.531	47.279	0	133.90	0	6.3830	0	33.3980	0	26.240	0	132.742	0	211.5	4	70.2	4	-1E+10	1	-1E+10	1	-1E+10	1	-1E+10	1	-1E+10	1	-1E+10	1
4902549	105	C	07/11/2023	05:07	-132.531	47.279	0	135.10	0	6.3810	0	33.4230	0	26.260	0	133.931	0	210.7	4	70.0	4	-1E+10	1	-1E+10	1	-1E+10	1	-1E+10	1	-1E+10	1	-1E+10	1
4902549	105	C	07/11/2023	05:07	-132.531	47.279	0	135.90	0	6.3550	0	33.4520	0	26.286	0	134.724	0	210.2	4	69.8	4	-1E+10	1	-1E+10	1	-1E+10	1	-1E+10	1	-1E+10	1	-1E+10	1
4902549	105	C	07/11/2023	05:07	-132.531	47.279	0	136.80	0	6.3200	0	33.4580	0	26.296	0	135.616	0	209.7	4	69.6	4	-1E+10	1	-1E+10	1	-1E+10	1	-1E+10	1	-1E+10	1	-1E+10	1
4902549	105	C	07/11/2023	05:07	-132.531	47.279	0	138.10	0	6.3070	0	33.4660	0	26.304	0	136.904	0	208.7	4	69.2	4	-1E+10	1	-1E+10	1	-1E+10	1	-1E+10	1	-1E+10	1	-1E+10	1
4902549	105	C	07/11/2023	05:07	-132.531	47.279	0	139.00	0	6.2960	0	33.4700	0	26.308	0	137.796	0	207.9	4	68.9	4	-1E+10	1	-1E+10	1	-1E+10	1	-1E+10	1	-1E+10	1	-1E+10	1
4902549	105	C	07/11/2023	05:07	-132.531	47.279	0	140.00	0	6.2770	0	33.4810	0	26.319	0	138.787	0	206.8	4	68.5	4	-1E+10	1	-1E+10	1	-1E+10	1	-1E+10	1	-1E+10	1	-1E+10	1
4902549	105	C	07/11/2023	05:07	-132.531	47.279	0	141.00	0	6.2810	0	33.4970	0	26.331	0	139.778	0	205.7	4	68.2	4	-1E+10	1	-1E+10	1	-1E+10	1	-1E+10	1	-1E+10	1	-1E+10	1
4902549	105	C	07/11/2023	05:07	-132.531	47.279	0	141.90	0	6.2770	0	33.5010	0	26.335	0	140.670	0	204.5	4	67.8	4	-1E+10	1	-1E+10	1	-1E+10	1	-1E+10	1	-1E+10	1	-1E+10	1
4902549	105	C	07/11/2023	05:07	-132.531	47.279	0	143.00	0	6.2750	0	33.5060	0	26.339	0	141.760	0	203.2	4	67.4	4	-1E+10	1	-1E+10	1	-1E+10	1	-1E+10	1	-1E+10	1	-1E+10	1
4902549	105	C	07/11/2023	05:07	-132.531	47.279	0	144.00	0	6.2740	0	33.5070	0	26.340	0	142.751	0	201.5	4	66.8	4	-1E+10	1	-1E+10	1	-1E+10	1	-1E+10	1	-1E+10	1	-1E+10	1
4902549	105	C	07/11/2023	05:07	-132.531	47.279	0	145.00	0	6.2550	0	33.5130	0	26.347	0	143.742	0	199.6	4	66.2	4	-1E+10	1	-1E+10	1	-1E+10	1	-1E+10	1	-1E+10	1	-1E+10	1
4902549	105	C	07/11/2023	05:07	-132.531	47.279	0	146.00	0	6.2450	0	33.5200	0	26.354	0	144.733	0	197.4	4	65.4	4	-1E+10	1	-1E+10	1	-1E+10	1	-1E+10	1	-1E+10	1	-1E+10	1
4902549	105	C	07/11/2023	05:07	-132.531	47.279	0	147.10	0	6.2320	0	33.5440	0	26.375	0	145.823	0	195.2	4	64.7	4	-1E+10	1	-1E+10	1	-1E+10	1	-1E+10	1	-1E+10	1	-1E+10	1
4902549	105	C	07/11/2023	05:07	-132.531	47.279	0	147.90	0	6.2260	0	33.5550	0	26.384	0	146.616	0	193.7	4	64.2	4	-1E+10	1	-1E+10	1	-1E+10	1	-1E+10	1	-1E+10	1	-1E+10	1
4902549	105	C	07/11/2023	05:07	-132.531	47.279	0	148.90	0	6.2190	0	33.5780	0	26.403	0	147.607	0	191.6	4	63.5	4	-1E+10	1	-1E+10	1	-1E+10	1	-1E+10	1	-1E+10	1	-1E+10	1
4902549	105	C	07/11/2023	05:07	-132.531	47.279	0	150.10	0	6.2170	0	33.5850	0	26.409	0	148.796	0	189.2	4	62.7	4	-1E+10	1	-1E+10	1	-1E+10	1	-1E+10	1	-1E+10	1	-1E+10	1
4902549	105	C	07/11/2023	05:07	-132.531	47.279	0	150.90	0	6.2420	0	33.6030	0	26.420	0	149.589	0	187.4	4	62.1	4	-1E+10	1	-1E+10	1	-1E+10	1	-1E+10	1	-1E+10	1	-1E+10	1
4902549	105	C	07/11/2023	05:07	-132.531	47.279	0	152.00	0	6.2460	0	33.6170	0	26.431	0	150.679	0	185.0	4	61.3	4	-1E+10	1	-1E+10	1	-1E+10	1	-1E+10	1	-1E+10	1	-1E+10	1
4902549	105	C	07/11/2023	05:07	-132.531	47.279	0	153.30	0	6.2320	0	33.6360	0	26.447	0	151.967	0	183.0	4	60.6	4	-1E+10	1	-1E+10	1	-1E+10	1	-1E+10	1	-1E+10	1	-1E+10	1
4902549	105	C	07/11/2023	05:07	-132.531	47.279	0	154.10	0	6.2370	0	33.6470	0	26.455	0	152.760	0	181.7	4	60.2	4	-1E+10	1	-1E+10	1	-1E+10	1	-1E+10	1	-1E+10	1	-1E+10	1
4902549	105	C	07/11/2023	05:07	-132.531	47.279	0	154.90	0	6.2420	0	33.6520	0	26.459	0	153.553	0	180.4	4	59.8	4	-1E+10	1	-1E+10	1	-1E+10	1	-1E+10	1	-1E+10	1	-1E+10	1
4902549	105	C	07/11/2023	05:07	-132.531	47.279	0	155.70	0	6.2470	0	33.6570	0	26.462	0	154.345	0	179.2	4	59.4	4	-1E+10	1	-1E+10	1	-1E+10	1	-1E+10	1	-1E+10	1	-1E+10	1
4902549	105	C	07/11/2023	05:07	-132.531	47.279	0	157.00	0	6.2430	0	33.6640	0	26.468	0	155.634	0	177.3	4	58.8	4	-1E+10	1	-1E+10	1	-1E+10	1	-1E+10	1	-1E+10	1	-1E+10	1
4902549	105	C	07/11/2023	05:07	-132.531	47.279	0	158.30	0	6.2270	0	33.6750	0	26.479	0	156.922	0	175.4	4	58.1	4	-1E+10	1	-1E+10	1	-1E+10	1	-1E+10	1	-1E+10	1	-1E+10	1
4902549	105	C	07/11/2023	05:07	-132.531	47.279	0	159.20	0	6.2400	0	33.6870	0	26.487	0	157.814	0	174.4	4	57.9	4	-1E+10	1	-1E+10	1	-1E+10	1	-1E+10	1	-1E+10	1	-1E+10	1
4902549	105	C	07/11/2023	05:07	-132.531	47.279	0	160.10	0	6.1770	0	33.6850	0	26.493	0	158.705	0	173.5	4	57.5	4	-1E+10	1	-1E+10	1	-1E+10	1	-1E+10	1	-1E+10	1	-1E+10	1
4902549	105	C	07/11/2023	05:07	-132.531	47.279	0	161.00	0	6.1790	0	33.6890	0	26.496	0	159.597	0	172.3	4	57.1	4	-1E+10	1	-1E+10	1	-1E+10	1	-1E+10	1	-1E+10	1	-1E+10	1
4902549	105	C	07/11/2023	05:07	-132.531	47.279	0	161.90	0	6.1650	0	33.6970	0	26.504	0	160.489	0	171.0	4	56.6	4	-1E+10	1	-1E+10	1	-1E+10	1	-1E+10	1	-1E+10	1	-1E+10	1
4902549	105	C	07/11/2023	05:07	-132.531	47.279	0	162.80	0	6.1510	0	33.6990	0	26.508	0	161.381	0	169.6	4	56.1	4	-1E+10	1	-1E+10	1	-1E+10	1	-1E+10	1	-1E+10	1	-1E+10	1
4902549	105	C	07/11/2023	05:07	-132.531	47.279	0	163.80	0	6.1280	0	33.6990	0	26.510	0	162.372	0	167.9	4	55.5	4	-1E+10	1	-1E+10	1	-1E+10	1	-1E+10	1	-1E+10	1	-1E+10	1
4902549	105	C	07/11/2023	05:07	-132.531	47.279	0	164.70	0	6.1160	0	33.7020	0	26.514	0	163.264	0	166.2	4	55.0	4	-1E+10	1	-1E+10	1	-1E+10	1	-1E+10	1	-1E+10	1	-1E+10	1
4902549	105	C	07/11/2023	05:07	-132.531	47.279	0	165.70	0	6.1130	0	33.7120	0	26.523	0	164.254	0	164.4	4	54.4	4	-1E+10	1	-1E+10	1	-1E+10	1	-1E+10	1	-1E+10	1	-1E+10	1
4902549	105	C	07/11/2023	05:07	-132.531	47.279	0	166.70	0	6.1400	0	33.7160	0	26.522	0	165.245	0	163.0	4	53.9	4	-1E+10	1	-1E+10	1	-1E+10	1	-1E+10	1	-1E+10	1	-1E+10	1
4902549	105	C	07/11/2023	05:07	-132.531	47.279	0	167.70	0	6.1850	0	33.7300	0	26.528	0	166.236	0	162.0	4	53.7	4	-1E+10	1	-1E+10	1	-1E+10	1	-1E+10	1	-1E+10	1	-1E+10	1
4902549	105	C	07/11/2023	05:07	-132.531	47.279	0	168.70	0	6.1440	0	33.7320	0	26.535	0	167.227	0	161.2	4	53.4	4	-1E+10	1	-1E+10	1	-1E+10	1	-1E+10	1	-1E+10	1	-1E+10	1
4902549	105	C	07/11/2023	05:07	-132.531	47.279	0	169.70	0	6.1660	0	33.7370	0	26.536	0	168.218	0	160.7	4	53.2	4	-1E+10	1	-1E+10	1	-1E+10	1	-1E+10	1	-1E+10	1	-1E+10	1
4902549	105	C	07/11/2023	05:07	-132.531	47.279	0	170.70	0	6.1700	0	33.7420	0	26.539	0	169.209	0	160.2	4	53.1	4	-1E+10	1	-1E+10	1	-1E+10	1	-1E+10	1	-1E+10	1	-1E+10	1
4902549	105	C	07/11/2023	05:07	-132.531	47.279	0	171.70	0	6.1720	0	33.7420	0	26.539	0	170.200	0	160.0	4	53.0	4	-1E+10	1	-1E+10	1	-1E+10	1	-1E+10	1	-1E+10	1	-1E+10	1
4902549	105	C	07/11/2023	05:07	-132.531	47.279	0	172.70	0	6.1350	0	33.7460	0	26.547	0	171.191	0	159.5	4	52.8	4	-1E+10	1	-1E+10	1	-1E+10	1	-1E+10	1	-1E+10	1	-1E+10	1
4902549	105	C	07/11/2023	05:07	-132.531	47.279	0	173.80	0	6.0710	0	33.7330	0	26.545	0	172.280	0	159.2	4	52.6	4	-1E+10	1	-1E+10	1	-1E+10	1	-1E+10	1	-1E+10	1	-1E+10	1
4902549	105	C	07/11/2023	05:07	-132.531	47.279	0	174.80	0	6.0870	0	33.7460	0	26.553	0	173.271	0	158.6	4	52.4	4	-1E+10	1	-1E+10	1	-1E+10	1	-1E+10	1	-1E+10	1	-1E+10	1
4902549	105	C	07/11/2023	05:07	-132.531	47.279	0	175.90	0	6.0630	0	33.7490	0	26.558	0	174.361	0	157.9	4	52.2	4	-1E+10	1	-1E+10	1	-1E+10	1	-1E+10	1	-1E+10	1	-1E+10	1
4902549	105	C	07/11/2023	05:07	-132.531	47.279	0	177.00	0	6.0410	0	33.7390	0	26.553	0	175.451	0	157.1	4	51.9	4	-1E+10	1	-1E+10	1	-1E+10	1	-1E+10	1	-1E+10	1	-1E+10	1
4902549	105	C	07/11/2023	05:07	-132.531	47.279	0	178.10	0	6.0280	0	33.7420	0	26.557	0	176.541	0	156.5	4	51.7	4	-1E+10	1	-1E+10	1	-1E+10	1	-1E+10	1	-1E+10	1	-1E+10	1
4902549	105	C	07/11/2023	05:07	-132.531	47.279	0	179.20	0	6.0600	0	33.7410	0	26.552	0	177.631	0	156.0	4	51.5	4	-1E+10	1	-1E+10	1	-1E+10	1	-1E+10	1	-1E+10	1	-1E+10	1
4902549	105	C	07/11/2023	05:07	-132.531	47.279	0	180.30	0	6.0560	0	33.7490	0	26.559	0	178.721	0	155.5	4	51.4	4	-1E+10	1	-1E+10	1	-1E+10	1	-1E+10	1	-1E+10	1	-1E+10	1
4902549	105	C	07/11/2023	05:07	-132.531	47.279	0	181.40	0	6.0280	0	33.7500	0	26.563	0	179.811	0	154.9	4	51.1	4	-1E+10	1	-1E+10	1	-1E+10	1	-1E+10	1	-1E+10	1	-1E+10	1
4902549	105	C	07/11/2023	05:07	-132.531	47.279	0	182.50	0	5.9990	0	33.7460	0	26.564	0	180.901	0	154.2	4	50.9	4	-1E+10	1	-1E+10	1	-1E+10	1	-1E+10	1	-1E+10	1	-1E+10	1
4902549	105	C	07/11/2023	05:07	-132.531	47.279	0	183.60	0	5.9890	0	33.7450	0	26.564	0	181.990	0	153.3	4	50.6	4	-1E+10	1	-1E+10	1	-1E+10	1	-1E+10	1	-1E+10	1	-1E+10	1
4902549	105	C	07/11/2023	05:07	-132.531	47.279	0	184.70	0	5.9810	0	33.7460	0	26.566	0	183.080	0	152.3	4	50.2	4	-1E+10	1	-1E+10	1	-1E+10	1	-1E+10	1	-1E+10	1	-1E+10	1
4902549	105	C	07/11/2023	05:07	-132.531	47.279	0	185.80	0	5.9720	0	33.7480	0	26.569	0	184.170	0	151.4	4	49.9	4	-1E+10	1	-1E+10	1	-1E+10	1	-1E+10	1	-1E+10	1	-1E+10	1
4902549	105	C	07/11/2023	05:07	-132.531	47.279	0	186.90	0	5.9570	0	33.7530	0	26.575	0	185.260	0	150.4	4	49.6	4	-1E+10	1	-1E+10	1	-1E+10	1	-1E+10	1	-1E+10	1	-1E+10	1
4902549	105	C	07/11/2023	05:07	-132.531	47.279	0	188.00	0	5.9380	0	33.7530	0	26.577	0	186.350	0	149.6	4	49.3	4	-1E+10	1	-1E+10	1	-1E+10	1	-1E+10	1	-1E+10	1	-1E+10	1
4902549	105	C	07/11/2023	05:07	-132.531	47.279	0	189.10	0	5.9360	0	33.7530	0	26.577	0	187.440	0	148.6	4	49.0	4	-1E+10	1	-1E+10	1	-1E+10	1	-1E+10	1	-1E+10	1	-1E+10	1
4902549	105	C	07/11/2023	05:07	-132.531	47.279	0	190.30	0	5.9330	0	33.7530	0	26.578	0	188.629	0	147.5	4	48.6	4	-1E+10	1	-1E+10	1	-1E+10	1	-1E+10	1	-1E+10	1	-1E+10	1
4902549	105	C	07/11/2023	05:07	-132.531	47.279	0	191.40	0	5.9240	0	33.7550	0	26.580	0	189.718	0	146.5	4	48.3	4	-1E+10	1	-1E+10	1	-1E+10	1	-1E+10	1	-1E+10	1	-1E+10	1
4902549	105	C	07/11/2023	05:07	-132.531	47.279	0	192.50	0	5.9160	0	33.7590	0	26.585	0	190.808	0	145.5	4	47.9	4	-1E+10	1	-1E+10	1	-1E+10	1	-1E+10	1	-1E+10	1	-1E+10	1
4902549	105	C	07/11/2023	05:07	-132.531	47.279	0	193.60	0	5.9260	0	33.7570	0	26.582	0	191.898	0	144.7	4	47.7	4	-1E+10	1	-1E+10	1	-1E+10	1	-1E+10	1	-1E+10	1	-1E+10	1
4902549	105	C	07/11/2023	05:07	-132.531	47.279	0	194.70	0	5.9260	0	33.7610	0	26.585	0	192.988	0	143.9	4	47.4	4	-1E+10	1	-1E+10	1	-1E+10	1	-1E+10	1	-1E+10	1	-1E+10	1
4902549	105	C	07/11/2023	05:07	-132.531	47.279	0	195.80	0	5.9240	0	33.7620	0	26.586	0	194.078	0	142.9	4	47.1	4	-1E+10	1	-1E+10	1	-1E+10	1	-1E+10	1	-1E+10	1	-1E+10	1
4902549	105	C	07/11/2023	05:07	-132.531	47.279	0	196.90	0	5.8830	0	33.7590	0	26.589	0	195.168	0	141.8	4	46.7	4	-1E+10	1	-1E+10	1	-1E+10	1	-1E+10	1	-1E+10	1	-1E+10	1
4902549	105	C	07/11/2023	05:07	-132.531	47.279	0	198.00	0	5.8740	0	33.7610	0	26.591	0	196.257	0	140.4	4	46.2	4	-1E+10	1	-1E+10	1	-1E+10	1	-1E+10	1	-1E+10	1	-1E+10	1
4902549	105	C	07/11/2023	05:07	-132.531	47.279	0	199.10	0	5.8670	0	33.7610	0	26.592	0	197.347	0	138.9	4	45.7	4	-1E+10	1	-1E+10	1	-1E+10	1	-1E+10	1	-1E+10	1	-1E+10	1
4902549	105	C	07/11/2023	05:07	-132.531	47.279	0	200.20	0	5.8660	0	33.7650	0	26.596	0	198.437	0	137.6	4	45.3	4	-1E+10	1	-1E+10	1	-1E+10	1	-1E+10	1	-1E+10	1	-1E+10	1
4902549	105	C	07/11/2023	05:07	-132.531	47.279	0	201.30	0	5.8650	0	33.7670	0	26.597	0	199.527	0	136.5	4	44.9	4	-1E+10	1	-1E+10	1	-1E+10	1	-1E+10	1	-1E+10	1	-1E+10	1
4902549	105	C	07/11/2023	05:07	-132.531	47.279	0	202.30	0	5.8650	0	33.7740	0	26.603	0	200.517	0	135.6	4	44.6	4	-1E+10	1	-1E+10	1	-1E+10	1	-1E+10	1	-1E+10	1	-1E+10	1
4902549	105	C	07/11/2023	05:07	-132.531	47.279	0	203.40	0	5.8550	0	33.7740	0	26.604	0	201.607	0	134.8	4	44.3	4	-1E+10	1	-1E+10	1	-1E+10	1	-1E+10	1	-1E+10	1	-1E+10	1
4902549	105	C	07/11/2023	05:07	-132.531	47.279	0	204.40	0	5.8260	0	33.7780	0	26.611	0	202.598	0	133.9	4	44.0	4	-1E+10	1	-1E+10	1	-1E+10	1	-1E+10	1	-1E+10	1	-1E+10	1
4902549	105	C	07/11/2023	05:07	-132.531	47.279	0	205.50	0	5.8290	0	33.7770	0	26.610	0	203.688	0	133.1	4	43.8	4	-1E+10	1	-1E+10	1	-1E+10	1	-1E+10	1	-1E+10	1	-1E+10	1
4902549	105	C	07/11/2023	05:07	-132.531	47.279	0	206.50	0	5.8240	0	33.7790	0	26.612	0	204.678	0	132.4	4	43.5	4	-1E+10	1	-1E+10	1	-1E+10	1	-1E+10	1	-1E+10	1	-1E+10	1
4902549	105	C	07/11/2023	05:07	-132.531	47.279	0	207.60	0	5.8070	0	33.7810	0	26.616	0	205.768	0	131.8	4	43.3	4	-1E+10	1	-1E+10	1	-1E+10	1	-1E+10	1	-1E+10	1	-1E+10	1
4902549	105	C	07/11/2023	05:07	-132.531	47.279	0	208.60	0	5.8050	0	33.7810	0	26.616	0	206.759	0	131.2	4	43.1	4	-1E+10	1	-1E+10	1	-1E+10	1	-1E+10	1	-1E+10	1	-1E+10	1
4902549	105	C	07/11/2023	05:07	-132.531	47.279	0	209.60	0	5.8020	0	33.7820	0	26.617	0	207.749	0	130.5	4	42.9	4	-1E+10	1	-1E+10	1	-1E+10	1	-1E+10	1	-1E+10	1	-1E+10	1
4902549	105	C	07/11/2023	05:07	-132.531	47.279	0	210.60	0	5.7920	0	33.7830	0	26.619	0	208.740	0	129.8	4	42.6	4	-1E+10	1	-1E+10	1	-1E+10	1	-1E+10	1	-1E+10	1	-1E+10	1
4902549	105	C	07/11/2023	05:07	-132.531	47.279	0	211.60	0	5.7860	0	33.7830	0	26.620	0	209.731	0	129.1	4	42.4	4	-1E+10	1	-1E+10	1	-1E+10	1	-1E+10	1	-1E+10	1	-1E+10	1
4902549	105	C	07/11/2023	05:07	-132.531	47.279	0	212.60	0	5.7820	0	33.7850	0	26.622	0	210.721	0	128.4	4	42.2	4	-1E+10	1	-1E+10	1	-1E+10	1	-1E+10	1	-1E+10	1	-1E+10	1
4902549	105	C	07/11/2023	05:07	-132.531	47.279	0	213.60	0	5.7710	0	33.7840	0	26.622	0	211.712	0	127.7	4	41.9	4	-1E+10	1	-1E+10	1	-1E+10	1	-1E+10	1	-1E+10	1	-1E+10	1
4902549	105	C	07/11/2023	05:07	-132.531	47.279	0	214.60	0	5.7640	0	33.7860	0	26.625	0	212.703	0	126.9	4	41.7	4	-1E+10	1	-1E+10	1	-1E+10	1	-1E+10	1	-1E+10	1	-1E+10	1
4902549	105	C	07/11/2023	05:07	-132.531	47.279	0	215.50	0	5.7550	0	33.7860	0	26.626	0	213.594	0	126.2	4	41.4	4	-1E+10	1	-1E+10	1	-1E+10	1	-1E+10	1	-1E+10	1	-1E+10	1
4902549	105	C	07/11/2023	05:07	-132.531	47.279	0	216.50	0	5.7360	0	33.7870	0	26.629	0	214.585	0	125.6	4	41.2	4	-1E+10	1	-1E+10	1	-1E+10	1	-1E+10	1	-1E+10	1	-1E+10	1
4902549	105	C	07/11/2023	05:07	-132.531	47.279	0	217.60	0	5.7120	0	33.7890	0	26.634	0	215.675	0	125.0	4	41.0	4	-1E+10	1	-1E+10	1	-1E+10	1	-1E+10	1	-1E+10	1	-1E+10	1
4902549	105	C	07/11/2023	05:07	-132.531	47.279	0	218.60	0	5.6760	0	33.7920	0	26.640	0	216.665	0	124.6	4	40.8	4	-1E+10	1	-1E+10	1	-1E+10	1	-1E+10	1	-1E+10	1	-1E+10	1
4902549	105	C	07/11/2023	05:07	-132.531	47.279	0	219.50	0	5.6620	0	33.7920	0	26.642	0	217.557	0	124.1	4	40.7	4	-1E+10	1	-1E+10	1	-1E+10	1	-1E+10	1	-1E+10	1	-1E+10	1
4902549	105	C	07/11/2023	05:07	-132.531	47.279	0	220.60	0	5.6580	0	33.7900	0	26.641	0	218.647	0	123.5	4	40.4	4	-1E+10	1	-1E+10	1	-1E+10	1	-1E+10	1	-1E+10	1	-1E+10	1
4902549	105	C	07/11/2023	05:07	-132.531	47.279	0	221.60	0	5.6550	0	33.7920	0	26.643	0	219.637	0	122.9	4	40.2	4	-1E+10	1	-1E+10	1	-1E+10	1	-1E+10	1	-1E+10	1	-1E+10	1
4902549	105	C	07/11/2023	05:07	-132.531	47.279	0	222.60	0	5.6490	0	33.7950	0	26.646	0	220.628	0	122.3	4	40.0	4	-1E+10	1	-1E+10	1	-1E+10	1	-1E+10	1	-1E+10	1	-1E+10	1
4902549	105	C	07/11/2023	05:07	-132.531	47.279	0	223.60	0	5.6330	0	33.7920	0	26.646	0	221.618	0	121.6	4	39.8	4	-1E+10	1	-1E+10	1	-1E+10	1	-1E+10	1	-1E+10	1	-1E+10	1
4902549	105	C	07/11/2023	05:07	-132.531	47.279	0	224.60	0	5.6340	0	33.7920	0	26.646	0	222.609	0	120.9	4	39.6	4	-1E+10	1	-1E+10	1	-1E+10	1	-1E+10	1	-1E+10	1	-1E+10	1
4902549	105	C	07/11/2023	05:07	-132.531	47.279	0	225.60	0	5.6160	0	33.7940	0	26.649	0	223.600	0	120.2	4	39.3	4	-1E+10	1	-1E+10	1	-1E+10	1	-1E+10	1	-1E+10	1	-1E+10	1
4902549	105	C	07/11/2023	05:07	-132.531	47.279	0	226.60	0	5.6190	0	33.7970	0	26.651	0	224.590	0	119.6	4	39.1	4	-1E+10	1	-1E+10	1	-1E+10	1	-1E+10	1	-1E+10	1	-1E+10	1
4902549	105	C	07/11/2023	05:07	-132.531	47.279	0	227.60	0	5.6180	0	33.7980	0	26.652	0	225.581	0	118.9	4	38.9	4	-1E+10	1	-1E+10	1	-1E+10	1	-1E+10	1	-1E+10	1	-1E+10	1
4902549	105	C	07/11/2023	05:07	-132.531	47.279	0	228.60	0	5.6130	0	33.7990	0	26.654	0	226.571	0	118.3	4	38.7	4	-1E+10	1	-1E+10	1	-1E+10	1	-1E+10	1	-1E+10	1	-1E+10	1
4902549	105	C	07/11/2023	05:07	-132.531	47.279	0	229.50	0	5.6070	0	33.8000	0	26.655	0	227.463	0	117.7	4	38.5	4	-1E+10	1	-1E+10	1	-1E+10	1	-1E+10	1	-1E+10	1	-1E+10	1
4902549	105	C	07/11/2023	05:07	-132.531	47.279	0	230.90	0	5.5840	0	33.8010	0	26.659	0	228.850	0	116.9	4	38.2	4	-1E+10	1	-1E+10	1	-1E+10	1	-1E+10	1	-1E+10	1	-1E+10	1
4902549	105	C	07/11/2023	05:07	-132.531	47.279	0	232.80	0	5.5690	0	33.8030	0	26.662	0	230.732	0	115.7	4	37.8	4	-1E+10	1	-1E+10	1	-1E+10	1	-1E+10	1	-1E+10	1	-1E+10	1
4902549	105	C	07/11/2023	05:07	-132.531	47.279	0	233.90	0	5.5590	0	33.8040	0	26.664	0	231.821	0	115.0	4	37.6	4	-1E+10	1	-1E+10	1	-1E+10	1	-1E+10	1	-1E+10	1	-1E+10	1
4902549	105	C	07/11/2023	05:07	-132.531	47.279	0	235.00	0	5.5430	0	33.8070	0	26.668	0	232.911	0	114.4	4	37.4	4	-1E+10	1	-1E+10	1	-1E+10	1	-1E+10	1	-1E+10	1	-1E+10	1
4902549	105	C	07/11/2023	05:07	-132.531	47.279	0	236.10	0	5.5360	0	33.8070	0	26.669	0	234.001	0	113.9	4	37.2	4	-1E+10	1	-1E+10	1	-1E+10	1	-1E+10	1	-1E+10	1	-1E+10	1
4902549	105	C	07/11/2023	05:07	-132.531	47.279	0	236.80	0	5.5260	0	33.8070	0	26.670	0	234.694	0	113.4	4	37.0	4	-1E+10	1	-1E+10	1	-1E+10	1	-1E+10	1	-1E+10	1	-1E+10	1
4902549	105	C	07/11/2023	05:07	-132.531	47.279	0	237.90	0	5.5100	0	33.8070	0	26.672	0	235.783	0	112.9	4	36.8	4	-1E+10	1	-1E+10	1	-1E+10	1	-1E+10	1	-1E+10	1	-1E+10	1
4902549	105	C	07/11/2023	05:07	-132.531	47.279	0	239.10	0	5.4990	0	33.8070	0	26.674	0	236.972	0	112.2	4	36.6	4	-1E+10	1	-1E+10	1	-1E+10	1	-1E+10	1	-1E+10	1	-1E+10	1
4902549	105	C	07/11/2023	05:07	-132.531	47.279	0	239.80	0	5.4680	0	33.8060	0	26.677	0	237.665	0	111.7	4	36.4	4	-1E+10	1	-1E+10	1	-1E+10	1	-1E+10	1	-1E+10	1	-1E+10	1
4902549	105	C	07/11/2023	05:07	-132.531	47.279	0	241.00	0	5.4660	0	33.8070	0	26.678	0	238.854	0	111.0	4	36.2	4	-1E+10	1	-1E+10	1	-1E+10	1	-1E+10	1	-1E+10	1	-1E+10	1
4902549	105	C	07/11/2023	05:07	-132.531	47.279	0	242.10	0	5.4540	0	33.8120	0	26.683	0	239.944	0	110.4	4	36.0	4	-1E+10	1	-1E+10	1	-1E+10	1	-1E+10	1	-1E+10	1	-1E+10	1
4902549	105	C	07/11/2023	05:07	-132.531	47.279	0	242.90	0	5.4520	0	33.8120	0	26.683	0	240.736	0	110.2	4	35.9	4	-1E+10	1	-1E+10	1	-1E+10	1	-1E+10	1	-1E+10	1	-1E+10	1
4902549	105	C	07/11/2023	05:07	-132.531	47.279	0	243.70	0	5.4520	0	33.8150	0	26.686	0	241.528	0	109.9	4	35.8	4	-1E+10	1	-1E+10	1	-1E+10	1	-1E+10	1	-1E+10	1	-1E+10	1
4902549	105	C	07/11/2023	05:07	-132.531	47.279	0	244.80	0	5.4530	0	33.8150	0	26.686	0	242.618	0	109.5	4	35.7	4	-1E+10	1	-1E+10	1	-1E+10	1	-1E+10	1	-1E+10	1	-1E+10	1
4902549	105	C	07/11/2023	05:07	-132.531	47.279	0	246.00	0	5.4540	0	33.8140	0	26.685	0	243.807	0	109.0	4	35.5	4	-1E+10	1	-1E+10	1	-1E+10	1	-1E+10	1	-1E+10	1	-1E+10	1
4902549	105	C	07/11/2023	05:07	-132.531	47.279	0	246.80	0	5.4570	0	33.8170	0	26.687	0	244.599	0	108.7	4	35.4	4	-1E+10	1	-1E+10	1	-1E+10	1	-1E+10	1	-1E+10	1	-1E+10	1
4902549	105	C	07/11/2023	05:07	-132.531	47.279	0	248.00	0	5.4580	0	33.8150	0	26.685	0	245.788	0	108.2	4	35.3	4	-1E+10	1	-1E+10	1	-1E+10	1	-1E+10	1	-1E+10	1	-1E+10	1
4902549	105	C	07/11/2023	05:07	-132.531	47.279	0	249.20	0	5.4480	0	33.8180	0	26.689	0	246.976	0	107.6	4	35.1	4	-1E+10	1	-1E+10	1	-1E+10	1	-1E+10	1	-1E+10	1	-1E+10	1
4902549	105	C	07/11/2023	05:07	-132.531	47.279	0	250.00	0	5.4460	0	33.8200	0	26.690	0	247.769	0	107.3	4	35.0	4	-1E+10	1	-1E+10	1	-1E+10	1	-1E+10	1	-1E+10	1	-1E+10	1
4902549	105	C	07/11/2023	05:07	-132.531	47.279	0	250.80	0	5.4400	0	33.8220	0	26.693	0	248.561	0	107.0	4	34.9	4	-1E+10	1	-1E+10	1	-1E+10	1	-1E+10	1	-1E+10	1	-1E+10	1
4902549	105	C	07/11/2023	05:07	-132.531	47.279	0	251.70	0	5.4360	0	33.8210	0	26.692	0	249.452	0	106.6	4	34.7	4	-1E+10	1	-1E+10	1	-1E+10	1	-1E+10	1	-1E+10	1	-1E+10	1
4902549	105	C	07/11/2023	05:07	-132.531	47.279	0	252.90	0	5.4280	0	33.8200	0	26.693	0	250.641	0	106.1	4	34.6	4	-1E+10	1	-1E+10	1	-1E+10	1	-1E+10	1	-1E+10	1	-1E+10	1
4902549	105	C	07/11/2023	05:07	-132.531	47.279	0	254.20	0	5.4160	0	33.8210	0	26.695	0	251.929	0	105.5	4	34.4	4	-1E+10	1	-1E+10	1	-1E+10	1	-1E+10	1	-1E+10	1	-1E+10	1
4902549	105	C	07/11/2023	05:07	-132.531	47.279	0	255.00	0	5.4070	0	33.8240	0	26.698	0	252.721	0	105.2	4	34.2	4	-1E+10	1	-1E+10	1	-1E+10	1	-1E+10	1	-1E+10	1	-1E+10	1
4902549	105	C	07/11/2023	05:07	-132.531	47.279	0	255.90	0	5.3970	0	33.8240	0	26.699	0	253.612	0	104.9	4	34.2	4	-1E+10	1	-1E+10	1	-1E+10	1	-1E+10	1	-1E+10	1	-1E+10	1
4902549	105	C	07/11/2023	05:07	-132.531	47.279	0	256.70	0	5.3970	0	33.8240	0	26.699	0	254.405	0	104.6	4	34.0	4	-1E+10	1	-1E+10	1	-1E+10	1	-1E+10	1	-1E+10	1	-1E+10	1
4902549	105	C	07/11/2023	05:07	-132.531	47.279	0	257.90	0	5.3950	0	33.8240	0	26.700	0	255.593	0	104.0	4	33.9	4	-1E+10	1	-1E+10	1	-1E+10	1	-1E+10	1	-1E+10	1	-1E+10	1
4902549	105	C	07/11/2023	05:07	-132.531	47.279	0	259.20	0	5.3820	0	33.8250	0	26.702	0	256.881	0	103.4	4	33.7	4	-1E+10	1	-1E+10	1	-1E+10	1	-1E+10	1	-1E+10	1	-1E+10	1
4902549	105	C	07/11/2023	05:07	-132.531	47.279	0	260.10	0	5.3780	0	33.8250	0	26.702	0	257.772	0	103.1	4	33.6	4	-1E+10	1	-1E+10	1	-1E+10	1	-1E+10	1	-1E+10	1	-1E+10	1
4902549	105	C	07/11/2023	05:07	-132.531	47.279	0	261.00	0	5.3720	0	33.8260	0	26.704	0	258.664	0	102.8	4	33.4	4	-1E+10	1	-1E+10	1	-1E+10	1	-1E+10	1	-1E+10	1	-1E+10	1
4902549	105	C	07/11/2023	05:07	-132.531	47.279	0	261.80	0	5.3720	0	33.8270	0	26.705	0	259.456	0	102.5	4	33.3	4	-1E+10	1	-1E+10	1	-1E+10	1	-1E+10	1	-1E+10	1	-1E+10	1
4902549	105	C	07/11/2023	05:07	-132.531	47.279	0	262.70	0	5.3700	0	33.8270	0	26.705	0	260.347	0	102.2	4	33.3	4	-1E+10	1	-1E+10	1	-1E+10	1	-1E+10	1	-1E+10	1	-1E+10	1
4902549	105	C	07/11/2023	05:07	-132.531	47.279	0	263.60	0	5.3680	0	33.8280	0	26.706	0	261.239	0	101.9	4	33.1	4	-1E+10	1	-1E+10	1	-1E+10	1	-1E+10	1	-1E+10	1	-1E+10	1
4902549	105	C	07/11/2023	05:07	-132.531	47.279	0	264.90	0	5.3620	0	33.8290	0	26.708	0	262.526	0	101.4	4	33.0	4	-1E+10	1	-1E+10	1	-1E+10	1	-1E+10	1	-1E+10	1	-1E+10	1
4902549	105	C	07/11/2023	05:07	-132.531	47.279	0	266.20	0	5.3600	0	33.8280	0	26.707	0	263.814	0	100.9	4	32.8	4	-1E+10	1	-1E+10	1	-1E+10	1	-1E+10	1	-1E+10	1	-1E+10	1
4902549	105	C	07/11/2023	05:07	-132.531	47.279	0	267.10	0	5.3600	0	33.8280	0	26.707	0	264.705	0	100.6	4	32.7	4	-1E+10	1	-1E+10	1	-1E+10	1	-1E+10	1	-1E+10	1	-1E+10	1
4902549	105	C	07/11/2023	05:07	-132.531	47.279	0	268.00	0	5.3530	0	33.8280	0	26.708	0	265.596	0	100.3	4	32.6	4	-1E+10	1	-1E+10	1	-1E+10	1	-1E+10	1	-1E+10	1	-1E+10	1
4902549	105	C	07/11/2023	05:07	-132.531	47.279	0	268.90	0	5.3330	0	33.8290	0	26.711	0	266.488	0	100.1	4	32.5	4	-1E+10	1	-1E+10	1	-1E+10	1	-1E+10	1	-1E+10	1	-1E+10	1
4902549	105	C	07/11/2023	05:07	-132.531	47.279	0	269.80	0	5.3090	0	33.8290	0	26.714	0	267.379	0	99.8	4	32.4	4	-1E+10	1	-1E+10	1	-1E+10	1	-1E+10	1	-1E+10	1	-1E+10	1
4902549	105	C	07/11/2023	05:07	-132.531	47.279	0	270.70	0	5.3020	0	33.8280	0	26.714	0	268.270	0	99.5	4	32.3	4	-1E+10	1	-1E+10	1	-1E+10	1	-1E+10	1	-1E+10	1	-1E+10	1
4902549	105	C	07/11/2023	05:07	-132.531	47.279	0	271.60	0	5.2830	0	33.8260	0	26.715	0	269.162	0	99.2	4	32.2	4	-1E+10	1	-1E+10	1	-1E+10	1	-1E+10	1	-1E+10	1	-1E+10	1
4902549	105	C	07/11/2023	05:07	-132.531	47.279	0	272.90	0	5.2650	0	33.8270	0	26.717	0	270.449	0	98.7	4	32.0	4	-1E+10	1	-1E+10	1	-1E+10	1	-1E+10	1	-1E+10	1	-1E+10	1
4902549	105	C	07/11/2023	05:07	-132.531	47.279	0	274.40	0	5.2530	0	33.8310	0	26.722	0	271.935	0	98.3	4	31.9	4	-1E+10	1	-1E+10	1	-1E+10	1	-1E+10	1	-1E+10	1	-1E+10	1
4902549	105	C	07/11/2023	05:07	-132.531	47.279	0	275.30	0	5.2630	0	33.8330	0	26.722	0	272.826	0	98.1	4	31.8	4	-1E+10	1	-1E+10	1	-1E+10	1	-1E+10	1	-1E+10	1	-1E+10	1
4902549	105	C	07/11/2023	05:07	-132.531	47.279	0	276.20	0	5.2740	0	33.8320	0	26.720	0	273.717	0	97.9	4	31.8	4	-1E+10	1	-1E+10	1	-1E+10	1	-1E+10	1	-1E+10	1	-1E+10	1
4902549	105	C	07/11/2023	05:07	-132.531	47.279	0	277.10	0	5.2770	0	33.8340	0	26.722	0	274.609	0	97.7	4	31.7	4	-1E+10	1	-1E+10	1	-1E+10	1	-1E+10	1	-1E+10	1	-1E+10	1
4902549	105	C	07/11/2023	05:07	-132.531	47.279	0	278.00	0	5.2750	0	33.8350	0	26.723	0	275.500	0	97.5	4	31.7	4	-1E+10	1	-1E+10	1	-1E+10	1	-1E+10	1	-1E+10	1	-1E+10	1
4902549	105	C	07/11/2023	05:07	-132.531	47.279	0	278.90	0	5.2760	0	33.8350	0	26.723	0	276.391	0	97.4	4	31.6	4	-1E+10	1	-1E+10	1	-1E+10	1	-1E+10	1	-1E+10	1	-1E+10	1
4902549	105	C	07/11/2023	05:07	-132.531	47.279	0	279.80	0	5.2710	0	33.8350	0	26.723	0	277.283	0	97.3	4	31.6	4	-1E+10	1	-1E+10	1	-1E+10	1	-1E+10	1	-1E+10	1	-1E+10	1
4902549	105	C	07/11/2023	05:07	-132.531	47.279	0	280.70	0	5.2510	0	33.8330	0	26.724	0	278.174	0	97.2	4	31.5	4	-1E+10	1	-1E+10	1	-1E+10	1	-1E+10	1	-1E+10	1	-1E+10	1
4902549	105	C	07/11/2023	05:07	-132.531	47.279	0	281.60	0	5.1860	0	33.8280	0	26.727	0	279.065	0	97.1	4	31.5	4	-1E+10	1	-1E+10	1	-1E+10	1	-1E+10	1	-1E+10	1	-1E+10	1
4902549	105	C	07/11/2023	05:07	-132.531	47.279	0	282.90	0	5.1670	0	33.8280	0	26.730	0	280.353	0	96.7	4	31.3	4	-1E+10	1	-1E+10	1	-1E+10	1	-1E+10	1	-1E+10	1	-1E+10	1
4902549	105	C	07/11/2023	05:07	-132.531	47.279	0	284.30	0	5.1640	0	33.8270	0	26.729	0	281.739	0	96.1	4	31.1	4	-1E+10	1	-1E+10	1	-1E+10	1	-1E+10	1	-1E+10	1	-1E+10	1
4902549	105	C	07/11/2023	05:07	-132.531	47.279	0	285.20	0	5.1560	0	33.8290	0	26.732	0	282.630	0	95.8	4	31.0	4	-1E+10	1	-1E+10	1	-1E+10	1	-1E+10	1	-1E+10	1	-1E+10	1
4902549	105	C	07/11/2023	05:07	-132.531	47.279	0	286.20	0	5.1510	0	33.8290	0	26.732	0	283.621	0	95.5	4	30.9	4	-1E+10	1	-1E+10	1	-1E+10	1	-1E+10	1	-1E+10	1	-1E+10	1
4902549	105	C	07/11/2023	05:07	-132.531	47.279	0	287.10	0	5.1480	0	33.8290	0	26.733	0	284.512	0	95.1	4	30.8	4	-1E+10	1	-1E+10	1	-1E+10	1	-1E+10	1	-1E+10	1	-1E+10	1
4902549	105	C	07/11/2023	05:07	-132.531	47.279	0	288.00	0	5.1450	0	33.8290	0	26.733	0	285.403	0	94.6	4	30.6	4	-1E+10	1	-1E+10	1	-1E+10	1	-1E+10	1	-1E+10	1	-1E+10	1
4902549	105	C	07/11/2023	05:07	-132.531	47.279	0	289.00	0	5.1370	0	33.8300	0	26.735	0	286.394	0	94.2	4	30.5	4	-1E+10	1	-1E+10	1	-1E+10	1	-1E+10	1	-1E+10	1	-1E+10	1
4902549	105	C	07/11/2023	05:07	-132.531	47.279	0	289.90	0	5.1360	0	33.8320	0	26.736	0	287.285	0	93.8	4	30.4	4	-1E+10	1	-1E+10	1	-1E+10	1	-1E+10	1	-1E+10	1	-1E+10	1
4902549	105	C	07/11/2023	05:07	-132.531	47.279	0	290.80	0	5.1390	0	33.8330	0	26.737	0	288.176	0	93.4	4	30.2	4	-1E+10	1	-1E+10	1	-1E+10	1	-1E+10	1	-1E+10	1	-1E+10	1
4902549	105	C	07/11/2023	05:07	-132.531	47.279	0	291.80	0	5.1380	0	33.8330	0	26.737	0	289.166	0	92.9	4	30.1	4	-1E+10	1	-1E+10	1	-1E+10	1	-1E+10	1	-1E+10	1	-1E+10	1
4902549	105	C	07/11/2023	05:07	-132.531	47.279	0	292.70	0	5.1360	0	33.8330	0	26.737	0	290.058	0	92.5	4	29.9	4	-1E+10	1	-1E+10	1	-1E+10	1	-1E+10	1	-1E+10	1	-1E+10	1
4902549	105	C	07/11/2023	05:07	-132.531	47.279	0	293.60	0	5.1380	0	33.8340	0	26.738	0	290.949	0	92.0	4	29.8	4	-1E+10	1	-1E+10	1	-1E+10	1	-1E+10	1	-1E+10	1	-1E+10	1
4902549	105	C	07/11/2023	05:07	-132.531	47.279	0	294.60	0	5.1360	0	33.8360	0	26.740	0	291.939	0	91.6	4	29.6	4	-1E+10	1	-1E+10	1	-1E+10	1	-1E+10	1	-1E+10	1	-1E+10	1
4902549	105	C	07/11/2023	05:07	-132.531	47.279	0	295.50	0	5.1140	0	33.8360	0	26.742	0	292.830	0	91.3	4	29.5	4	-1E+10	1	-1E+10	1	-1E+10	1	-1E+10	1	-1E+10	1	-1E+10	1
4902549	105	C	07/11/2023	05:07	-132.531	47.279	0	296.90	0	5.0800	0	33.8360	0	26.746	0	294.217	0	90.7	4	29.3	4	-1E+10	1	-1E+10	1	-1E+10	1	-1E+10	1	-1E+10	1	-1E+10	1
4902549	105	C	07/11/2023	05:07	-132.531	47.279	0	298.40	0	5.0600	0	33.8400	0	26.752	0	295.702	0	90.3	4	29.2	4	-1E+10	1	-1E+10	1	-1E+10	1	-1E+10	1	-1E+10	1	-1E+10	1
4902549	105	C	07/11/2023	05:07	-132.531	47.279	0	299.30	0	5.0540	0	33.8400	0	26.752	0	296.593	0	89.9	4	29.0	4	-1E+10	1	-1E+10	1	-1E+10	1	-1E+10	1	-1E+10	1	-1E+10	1
4902549	105	C	07/11/2023	05:07	-132.531	47.279	0	300.20	0	5.0560	0	33.8410	0	26.753	0	297.484	0	89.6	4	28.9	4	-1E+10	1	-1E+10	1	-1E+10	1	-1E+10	1	-1E+10	1	-1E+10	1
4902549	105	C	07/11/2023	05:07	-132.531	47.279	0	301.20	0	5.0560	0	33.8430	0	26.754	0	298.475	0	89.3	4	28.8	4	-1E+10	1	-1E+10	1	-1E+10	1	-1E+10	1	-1E+10	1	-1E+10	1
4902549	105	C	07/11/2023	05:07	-132.531	47.279	0	302.10	0	5.0500	0	33.8430	0	26.755	0	299.366	0	89.0	4	28.7	4	-1E+10	1	-1E+10	1	-1E+10	1	-1E+10	1	-1E+10	1	-1E+10	1
4902549	105	C	07/11/2023	05:07	-132.531	47.279	0	303.10	0	5.0490	0	33.8450	0	26.757	0	300.356	0	88.7	4	28.6	4	-1E+10	1	-1E+10	1	-1E+10	1	-1E+10	1	-1E+10	1	-1E+10	1
4902549	105	C	07/11/2023	05:07	-132.531	47.279	0	304.00	0	5.0540	0	33.8480	0	26.759	0	301.247	0	88.4	4	28.6	4	-1E+10	1	-1E+10	1	-1E+10	1	-1E+10	1	-1E+10	1	-1E+10	1
4902549	105	C	07/11/2023	05:07	-132.531	47.279	0	305.00	0	5.0560	0	33.8490	0	26.759	0	302.238	0	88.2	4	28.5	4	-1E+10	1	-1E+10	1	-1E+10	1	-1E+10	1	-1E+10	1	-1E+10	1
4902549	105	C	07/11/2023	05:07	-132.531	47.279	0	305.90	0	5.0580	0	33.8500	0	26.760	0	303.129	0	88.0	4	28.4	4	-1E+10	1	-1E+10	1	-1E+10	1	-1E+10	1	-1E+10	1	-1E+10	1
4902549	105	C	07/11/2023	05:07	-132.531	47.279	0	306.90	0	5.0590	0	33.8490	0	26.759	0	304.119	0	87.7	4	28.3	4	-1E+10	1	-1E+10	1	-1E+10	1	-1E+10	1	-1E+10	1	-1E+10	1
4902549	105	C	07/11/2023	05:07	-132.531	47.279	0	307.80	0	5.0530	0	33.8490	0	26.760	0	305.010	0	87.4	4	28.2	4	-1E+10	1	-1E+10	1	-1E+10	1	-1E+10	1	-1E+10	1	-1E+10	1
4902549	105	C	07/11/2023	05:07	-132.531	47.279	0	308.70	0	5.0440	0	33.8530	0	26.764	0	305.901	0	87.1	4	28.1	4	-1E+10	1	-1E+10	1	-1E+10	1	-1E+10	1	-1E+10	1	-1E+10	1
4902549	105	C	07/11/2023	05:07	-132.531	47.279	0	309.70	0	5.0450	0	33.8520	0	26.763	0	306.891	0	86.9	4	28.1	4	-1E+10	1	-1E+10	1	-1E+10	1	-1E+10	1	-1E+10	1	-1E+10	1
4902549	105	C	07/11/2023	05:07	-132.531	47.279	0	310.60	0	5.0420	0	33.8530	0	26.764	0	307.783	0	86.7	4	28.0	4	-1E+10	1	-1E+10	1	-1E+10	1	-1E+10	1	-1E+10	1	-1E+10	1
4902549	105	C	07/11/2023	05:07	-132.531	47.279	0	311.50	0	5.0390	0	33.8530	0	26.764	0	308.674	0	86.4	4	27.9	4	-1E+10	1	-1E+10	1	-1E+10	1	-1E+10	1	-1E+10	1	-1E+10	1
4902549	105	C	07/11/2023	05:07	-132.531	47.279	0	312.90	0	5.0270	0	33.8530	0	26.766	0	310.060	0	86.1	4	27.8	4	-1E+10	1	-1E+10	1	-1E+10	1	-1E+10	1	-1E+10	1	-1E+10	1
4902549	105	C	07/11/2023	05:07	-132.531	47.279	0	314.30	0	5.0140	0	33.8520	0	26.766	0	311.446	0	85.7	4	27.7	4	-1E+10	1	-1E+10	1	-1E+10	1	-1E+10	1	-1E+10	1	-1E+10	1
4902549	105	C	07/11/2023	05:07	-132.531	47.279	0	315.30	0	5.0110	0	33.8530	0	26.768	0	312.436	0	85.4	4	27.6	4	-1E+10	1	-1E+10	1	-1E+10	1	-1E+10	1	-1E+10	1	-1E+10	1
4902549	105	C	07/11/2023	05:07	-132.531	47.279	0	316.20	0	5.0070	0	33.8520	0	26.767	0	313.328	0	85.0	4	27.4	4	-1E+10	1	-1E+10	1	-1E+10	1	-1E+10	1	-1E+10	1	-1E+10	1
4902549	105	C	07/11/2023	05:07	-132.531	47.279	0	317.10	0	4.9940	0	33.8520	0	26.769	0	314.219	0	84.6	4	27.3	4	-1E+10	1	-1E+10	1	-1E+10	1	-1E+10	1	-1E+10	1	-1E+10	1
4902549	105	C	07/11/2023	05:07	-132.531	47.279	0	318.10	0	4.9830	0	33.8530	0	26.771	0	315.209	0	84.3	4	27.2	4	-1E+10	1	-1E+10	1	-1E+10	1	-1E+10	1	-1E+10	1	-1E+10	1
4902549	105	C	07/11/2023	05:07	-132.531	47.279	0	319.00	0	4.9800	0	33.8530	0	26.771	0	316.100	0	83.9	4	27.1	4	-1E+10	1	-1E+10	1	-1E+10	1	-1E+10	1	-1E+10	1	-1E+10	1
4902549	105	C	07/11/2023	05:07	-132.531	47.279	0	319.90	0	4.9770	0	33.8530	0	26.771	0	316.991	0	83.5	4	26.9	4	-1E+10	1	-1E+10	1	-1E+10	1	-1E+10	1	-1E+10	1	-1E+10	1
4902549	105	C	07/11/2023	05:07	-132.531	47.279	0	320.90	0	4.9640	0	33.8560	0	26.775	0	317.981	0	83.1	4	26.8	4	-1E+10	1	-1E+10	1	-1E+10	1	-1E+10	1	-1E+10	1	-1E+10	1
4902549	105	C	07/11/2023	05:07	-132.531	47.279	0	321.80	0	4.9570	0	33.8550	0	26.775	0	318.872	0	82.7	4	26.6	4	-1E+10	1	-1E+10	1	-1E+10	1	-1E+10	1	-1E+10	1	-1E+10	1
4902549	105	C	07/11/2023	05:07	-132.531	47.279	0	322.70	0	4.9530	0	33.8550	0	26.776	0	319.764	0	82.2	4	26.5	4	-1E+10	1	-1E+10	1	-1E+10	1	-1E+10	1	-1E+10	1	-1E+10	1
4902549	105	C	07/11/2023	05:07	-132.531	47.279	0	323.60	0	4.9510	0	33.8540	0	26.775	0	320.655	0	81.7	4	26.3	4	-1E+10	1	-1E+10	1	-1E+10	1	-1E+10	1	-1E+10	1	-1E+10	1
4902549	105	C	07/11/2023	05:07	-132.531	47.279	0	324.60	0	4.9510	0	33.8570	0	26.778	0	321.645	0	81.2	4	26.2	4	-1E+10	1	-1E+10	1	-1E+10	1	-1E+10	1	-1E+10	1	-1E+10	1
4902549	105	C	07/11/2023	05:07	-132.531	47.279	0	325.90	0	4.9380	0	33.8590	0	26.781	0	322.932	0	80.4	4	25.9	4	-1E+10	1	-1E+10	1	-1E+10	1	-1E+10	1	-1E+10	1	-1E+10	1
4902549	105	C	07/11/2023	05:07	-132.531	47.279	0	327.30	0	4.9010	0	33.8580	0	26.784	0	324.318	0	79.8	4	25.7	4	-1E+10	1	-1E+10	1	-1E+10	1	-1E+10	1	-1E+10	1	-1E+10	1
4902549	105	C	07/11/2023	05:07	-132.531	47.279	0	328.30	0	4.8860	0	33.8580	0	26.786	0	325.308	0	79.4	4	25.5	4	-1E+10	1	-1E+10	1	-1E+10	1	-1E+10	1	-1E+10	1	-1E+10	1
4902549	105	C	07/11/2023	05:07	-132.531	47.279	0	329.20	0	4.8770	0	33.8590	0	26.788	0	326.199	0	78.9	4	25.4	4	-1E+10	1	-1E+10	1	-1E+10	1	-1E+10	1	-1E+10	1	-1E+10	1
4902549	105	C	07/11/2023	05:07	-132.531	47.279	0	330.10	0	4.8730	0	33.8590	0	26.788	0	327.090	0	78.4	4	25.2	4	-1E+10	1	-1E+10	1	-1E+10	1	-1E+10	1	-1E+10	1	-1E+10	1
4902549	105	C	07/11/2023	05:07	-132.531	47.279	0	331.00	0	4.8680	0	33.8580	0	26.788	0	327.981	0	77.9	4	25.1	4	-1E+10	1	-1E+10	1	-1E+10	1	-1E+10	1	-1E+10	1	-1E+10	1
4902549	105	C	07/11/2023	05:07	-132.531	47.279	0	331.90	0	4.8590	0	33.8590	0	26.790	0	328.873	0	77.3	4	24.9	4	-1E+10	1	-1E+10	1	-1E+10	1	-1E+10	1	-1E+10	1	-1E+10	1
4902549	105	C	07/11/2023	05:07	-132.531	47.279	0	332.80	0	4.8560	0	33.8610	0	26.791	0	329.764	0	76.8	4	24.7	4	-1E+10	1	-1E+10	1	-1E+10	1	-1E+10	1	-1E+10	1	-1E+10	1
4902549	105	C	07/11/2023	05:07	-132.531	47.279	0	333.80	0	4.8500	0	33.8610	0	26.792	0	330.754	0	76.2	4	24.5	4	-1E+10	1	-1E+10	1	-1E+10	1	-1E+10	1	-1E+10	1	-1E+10	1
4902549	105	C	07/11/2023	05:07	-132.531	47.279	0	334.70	0	4.8460	0	33.8620	0	26.793	0	331.645	0	75.5	4	24.3	4	-1E+10	1	-1E+10	1	-1E+10	1	-1E+10	1	-1E+10	1	-1E+10	1
4902549	105	C	07/11/2023	05:07	-132.531	47.279	0	335.60	0	4.8420	0	33.8650	0	26.796	0	332.536	0	74.9	4	24.1	4	-1E+10	1	-1E+10	1	-1E+10	1	-1E+10	1	-1E+10	1	-1E+10	1
4902549	105	C	07/11/2023	05:07	-132.531	47.279	0	336.50	0	4.8270	0	33.8660	0	26.799	0	333.427	0	74.4	4	23.9	4	-1E+10	1	-1E+10	1	-1E+10	1	-1E+10	1	-1E+10	1	-1E+10	1
4902549	105	C	07/11/2023	05:07	-132.531	47.279	0	337.90	0	4.8100	0	33.8720	0	26.805	0	334.813	0	73.7	4	23.7	4	-1E+10	1	-1E+10	1	-1E+10	1	-1E+10	1	-1E+10	1	-1E+10	1
4902549	105	C	07/11/2023	05:07	-132.531	47.279	0	339.40	0	4.8010	0	33.8740	0	26.808	0	336.298	0	73.0	4	23.4	4	-1E+10	1	-1E+10	1	-1E+10	1	-1E+10	1	-1E+10	1	-1E+10	1
4902549	105	C	07/11/2023	05:07	-132.531	47.279	0	340.30	0	4.7990	0	33.8760	0	26.810	0	337.189	0	72.5	4	23.3	4	-1E+10	1	-1E+10	1	-1E+10	1	-1E+10	1	-1E+10	1	-1E+10	1
4902549	105	C	07/11/2023	05:07	-132.531	47.279	0	341.30	0	4.7940	0	33.8760	0	26.810	0	338.179	0	72.0	4	23.1	4	-1E+10	1	-1E+10	1	-1E+10	1	-1E+10	1	-1E+10	1	-1E+10	1
4902549	105	C	07/11/2023	05:07	-132.531	47.279	0	342.20	0	4.7890	0	33.8770	0	26.812	0	339.070	0	71.5	4	22.9	4	-1E+10	1	-1E+10	1	-1E+10	1	-1E+10	1	-1E+10	1	-1E+10	1
4902549	105	C	07/11/2023	05:07	-132.531	47.279	0	343.20	0	4.7780	0	33.8800	0	26.815	0	340.060	0	71.0	4	22.8	4	-1E+10	1	-1E+10	1	-1E+10	1	-1E+10	1	-1E+10	1	-1E+10	1
4902549	105	C	07/11/2023	05:07	-132.531	47.279	0	344.10	0	4.7710	0	33.8800	0	26.816	0	340.951	0	70.5	4	22.6	4	-1E+10	1	-1E+10	1	-1E+10	1	-1E+10	1	-1E+10	1	-1E+10	1
4902549	105	C	07/11/2023	05:07	-132.531	47.279	0	345.10	0	4.7650	0	33.8820	0	26.818	0	341.941	0	70.1	4	22.5	4	-1E+10	1	-1E+10	1	-1E+10	1	-1E+10	1	-1E+10	1	-1E+10	1
4902549	105	C	07/11/2023	05:07	-132.531	47.279	0	346.00	0	4.7560	0	33.8850	0	26.822	0	342.832	0	69.6	4	22.3	4	-1E+10	1	-1E+10	1	-1E+10	1	-1E+10	1	-1E+10	1	-1E+10	1
4902549	105	C	07/11/2023	05:07	-132.531	47.279	0	347.00	0	4.7650	0	33.8860	0	26.822	0	343.822	0	69.2	4	22.2	4	-1E+10	1	-1E+10	1	-1E+10	1	-1E+10	1	-1E+10	1	-1E+10	1
4902549	105	C	07/11/2023	05:07	-132.531	47.279	0	348.00	0	4.7600	0	33.8870	0	26.823	0	344.812	0	68.8	4	22.1	4	-1E+10	1	-1E+10	1	-1E+10	1	-1E+10	1	-1E+10	1	-1E+10	1
4902549	105	C	07/11/2023	05:07	-132.531	47.279	0	348.90	0	4.7760	0	33.8900	0	26.824	0	345.703	0	68.4	4	21.9	4	-1E+10	1	-1E+10	1	-1E+10	1	-1E+10	1	-1E+10	1	-1E+10	1
4902549	105	C	07/11/2023	05:07	-132.531	47.279	0	349.90	0	4.7750	0	33.8910	0	26.824	0	346.693	0	68.0	4	21.8	4	-1E+10	1	-1E+10	1	-1E+10	1	-1E+10	1	-1E+10	1	-1E+10	1
4902549	105	C	07/11/2023	05:07	-132.531	47.279	0	352.70	0	4.7390	0	33.8960	0	26.832	0	349.465	0	67.0	4	21.5	4	-1E+10	1	-1E+10	1	-1E+10	1	-1E+10	1	-1E+10	1	-1E+10	1
4902549	105	C	07/11/2023	05:07	-132.531	47.279	0	357.60	0	4.6980	0	33.8990	0	26.839	0	354.316	0	65.4	4	21.0	4	-1E+10	1	-1E+10	1	-1E+10	1	-1E+10	1	-1E+10	1	-1E+10	1
4902549	105	C	07/11/2023	05:07	-132.531	47.279	0	362.90	0	4.6720	0	33.9050	0	26.847	0	359.563	0	63.6	4	20.4	4	-1E+10	1	-1E+10	1	-1E+10	1	-1E+10	1	-1E+10	1	-1E+10	1
4902549	105	C	07/11/2023	05:07	-132.531	47.279	0	368.20	0	4.6570	0	33.9170	0	26.858	0	364.810	0	61.8	4	19.8	4	-1E+10	1	-1E+10	1	-1E+10	1	-1E+10	1	-1E+10	1	-1E+10	1
4902549	105	C	07/11/2023	05:07	-132.531	47.279	0	373.20	0	4.6350	0	33.9210	0	26.864	0	369.759	0	60.9	4	19.5	4	-1E+10	1	-1E+10	1	-1E+10	1	-1E+10	1	-1E+10	1	-1E+10	1
4902549	105	C	07/11/2023	05:07	-132.531	47.279	0	378.10	0	4.6160	0	33.9230	0	26.867	0	374.609	0	60.0	4	19.2	4	-1E+10	1	-1E+10	1	-1E+10	1	-1E+10	1	-1E+10	1	-1E+10	1
4902549	105	C	07/11/2023	05:07	-132.531	47.279	0	383.20	0	4.6030	0	33.9270	0	26.872	0	379.658	0	58.9	4	18.8	4	-1E+10	1	-1E+10	1	-1E+10	1	-1E+10	1	-1E+10	1	-1E+10	1
4902549	105	C	07/11/2023	05:07	-132.531	47.279	0	388.30	0	4.5880	0	33.9320	0	26.878	0	384.706	0	57.9	4	18.5	4	-1E+10	1	-1E+10	1	-1E+10	1	-1E+10	1	-1E+10	1	-1E+10	1
4902549	105	C	07/11/2023	05:07	-132.531	47.279	0	393.30	0	4.5760	0	33.9370	0	26.883	0	389.655	0	57.1	4	18.2	4	-1E+10	1	-1E+10	1	-1E+10	1	-1E+10	1	-1E+10	1	-1E+10	1
4902549	105	C	07/11/2023	05:07	-132.531	47.279	0	398.30	0	4.5700	0	33.9390	0	26.885	0	394.604	0	56.1	4	17.9	4	-1E+10	1	-1E+10	1	-1E+10	1	-1E+10	1	-1E+10	1	-1E+10	1
4902549	105	C	07/11/2023	05:07	-132.531	47.279	0	403.30	0	4.5560	0	33.9440	0	26.891	0	399.552	0	54.9	4	17.5	4	-1E+10	1	-1E+10	1	-1E+10	1	-1E+10	1	-1E+10	1	-1E+10	1
4902549	105	C	07/11/2023	05:07	-132.531	47.279	0	408.40	0	4.5500	0	33.9480	0	26.895	0	404.600	0	53.4	4	17.1	4	-1E+10	1	-1E+10	1	-1E+10	1	-1E+10	1	-1E+10	1	-1E+10	1
4902549	105	C	07/11/2023	05:07	-132.531	47.279	0	412.90	0	4.5470	0	33.9550	0	26.901	0	409.054	0	52.1	4	16.6	4	-1E+10	1	-1E+10	1	-1E+10	1	-1E+10	1	-1E+10	1	-1E+10	1
4902549	105	C	07/11/2023	05:07	-132.531	47.279	0	417.50	0	4.5280	0	33.9610	0	26.908	0	413.606	0	50.7	4	16.2	4	-1E+10	1	-1E+10	1	-1E+10	1	-1E+10	1	-1E+10	1	-1E+10	1
4902549	105	C	07/11/2023	05:07	-132.531	47.279	0	422.60	0	4.5040	0	33.9690	0	26.917	0	418.654	0	49.1	4	15.7	4	-1E+10	1	-1E+10	1	-1E+10	1	-1E+10	1	-1E+10	1	-1E+10	1
4902549	105	C	07/11/2023	05:07	-132.531	47.279	0	427.70	0	4.4840	0	33.9760	0	26.924	0	423.701	0	47.9	4	15.3	4	-1E+10	1	-1E+10	1	-1E+10	1	-1E+10	1	-1E+10	1	-1E+10	1
4902549	105	C	07/11/2023	05:07	-132.531	47.279	0	432.70	0	4.4700	0	33.9820	0	26.931	0	428.649	0	46.8	4	14.9	4	-1E+10	1	-1E+10	1	-1E+10	1	-1E+10	1	-1E+10	1	-1E+10	1
4902549	105	C	07/11/2023	05:07	-132.531	47.279	0	437.90	0	4.4580	0	33.9870	0	26.936	0	433.795	0	45.5	4	14.5	4	-1E+10	1	-1E+10	1	-1E+10	1	-1E+10	1	-1E+10	1	-1E+10	1
4902549	105	C	07/11/2023	05:07	-132.531	47.279	0	443.00	0	4.4400	0	33.9940	0	26.943	0	438.842	0	44.2	4	14.1	4	-1E+10	1	-1E+10	1	-1E+10	1	-1E+10	1	-1E+10	1	-1E+10	1
4902549	105	C	07/11/2023	05:07	-132.531	47.279	0	448.20	0	4.4230	0	34.0010	0	26.951	0	443.987	0	43.1	4	13.7	4	-1E+10	1	-1E+10	1	-1E+10	1	-1E+10	1	-1E+10	1	-1E+10	1
4902549	105	C	07/11/2023	05:07	-132.531	47.279	0	452.90	0	4.4130	0	34.0040	0	26.954	0	448.638	0	42.2	4	13.4	4	-1E+10	1	-1E+10	1	-1E+10	1	-1E+10	1	-1E+10	1	-1E+10	1
4902549	105	C	07/11/2023	05:07	-132.531	47.279	0	457.60	0	4.3950	0	34.0110	0	26.962	0	453.289	0	41.3	4	13.1	4	-1E+10	1	-1E+10	1	-1E+10	1	-1E+10	1	-1E+10	1	-1E+10	1
4902549	105	C	07/11/2023	05:07	-132.531	47.279	0	462.90	0	4.3760	0	34.0160	0	26.968	0	458.533	0	40.3	4	12.8	4	-1E+10	1	-1E+10	1	-1E+10	1	-1E+10	1	-1E+10	1	-1E+10	1
4902549	105	C	07/11/2023	05:07	-132.531	47.279	0	468.20	0	4.3590	0	34.0200	0	26.973	0	463.777	0	39.4	4	12.5	4	-1E+10	1	-1E+10	1	-1E+10	1	-1E+10	1	-1E+10	1	-1E+10	1
4902549	105	C	07/11/2023	05:07	-132.531	47.279	0	473.00	0	4.3500	0	34.0230	0	26.976	0	468.526	0	38.8	4	12.4	4	-1E+10	1	-1E+10	1	-1E+10	1	-1E+10	1	-1E+10	1	-1E+10	1
4902549	105	C	07/11/2023	05:07	-132.531	47.279	0	477.70	0	4.3440	0	34.0240	0	26.978	0	473.176	0	38.2	4	12.1	4	-1E+10	1	-1E+10	1	-1E+10	1	-1E+10	1	-1E+10	1	-1E+10	1
4902549	105	C	07/11/2023	05:07	-132.531	47.279	0	483.00	0	4.3270	0	34.0290	0	26.984	0	478.420	0	37.4	4	11.9	4	-1E+10	1	-1E+10	1	-1E+10	1	-1E+10	1	-1E+10	1	-1E+10	1
4902549	105	C	07/11/2023	05:07	-132.531	47.279	0	487.80	0	4.3150	0	34.0320	0	26.987	0	483.169	0	36.8	4	11.7	4	-1E+10	1	-1E+10	1	-1E+10	1	-1E+10	1	-1E+10	1	-1E+10	1
4902549	105	C	07/11/2023	05:07	-132.531	47.279	0	492.50	0	4.3070	0	34.0330	0	26.989	0	487.819	0	35.8	4	11.4	4	-1E+10	1	-1E+10	1	-1E+10	1	-1E+10	1	-1E+10	1	-1E+10	1
4902549	105	C	07/11/2023	05:07	-132.531	47.279	0	497.80	0	4.2870	0	34.0380	0	26.995	0	493.062	0	34.7	4	11.0	4	-1E+10	1	-1E+10	1	-1E+10	1	-1E+10	1	-1E+10	1	-1E+10	1
4902549	105	C	07/11/2023	05:07	-132.531	47.279	0	502.90	0	4.2600	0	34.0470	0	27.005	0	498.108	0	33.7	4	10.7	4	-1E+10	1	-1E+10	1	-1E+10	1	-1E+10	1	-1E+10	1	-1E+10	1
4902549	105	C	07/11/2023	05:07	-132.531	47.279	0	508.10	0	4.2420	0	34.0520	0	27.011	0	503.252	0	33.0	4	10.5	4	-1E+10	1	-1E+10	1	-1E+10	1	-1E+10	1	-1E+10	1	-1E+10	1
4902549	105	C	07/11/2023	05:07	-132.531	47.279	0	513.20	0	4.2280	0	34.0550	0	27.015	0	508.297	0	32.4	4	10.3	4	-1E+10	1	-1E+10	1	-1E+10	1	-1E+10	1	-1E+10	1	-1E+10	1
4902549	105	C	07/11/2023	05:07	-132.531	47.279	0	518.40	0	4.2080	0	34.0600	0	27.021	0	513.441	0	31.7	4	10.0	4	-1E+10	1	-1E+10	1	-1E+10	1	-1E+10	1	-1E+10	1	-1E+10	1
4902549	105	C	07/11/2023	05:07	-132.531	47.279	0	523.20	0	4.1940	0	34.0650	0	27.026	0	518.189	0	31.2	4	9.9	4	-1E+10	1	-1E+10	1	-1E+10	1	-1E+10	1	-1E+10	1	-1E+10	1
4902549	105	C	07/11/2023	05:07	-132.531	47.279	0	528.00	0	4.1880	0	34.0670	0	27.029	0	522.937	0	30.5	4	9.7	4	-1E+10	1	-1E+10	1	-1E+10	1	-1E+10	1	-1E+10	1	-1E+10	1
4902549	105	C	07/11/2023	05:07	-132.531	47.279	0	533.20	0	4.1760	0	34.0720	0	27.034	0	528.080	0	29.5	4	9.4	4	-1E+10	1	-1E+10	1	-1E+10	1	-1E+10	1	-1E+10	1	-1E+10	1
4902549	105	C	07/11/2023	05:07	-132.531	47.279	0	538.30	0	4.1680	0	34.0770	0	27.039	0	533.125	0	28.7	4	9.1	4	-1E+10	1	-1E+10	1	-1E+10	1	-1E+10	1	-1E+10	1	-1E+10	1
4902549	105	C	07/11/2023	05:07	-132.531	47.279	0	542.90	0	4.1580	0	34.0810	0	27.043	0	537.675	0	28.0	4	8.9	4	-1E+10	1	-1E+10	1	-1E+10	1	-1E+10	1	-1E+10	1	-1E+10	1
4902549	105	C	07/11/2023	05:07	-132.531	47.279	0	547.70	0	4.1440	0	34.0850	0	27.048	0	542.422	0	27.4	4	8.7	4	-1E+10	1	-1E+10	1	-1E+10	1	-1E+10	1	-1E+10	1	-1E+10	1
4902549	105	C	07/11/2023	05:07	-132.531	47.279	0	553.10	0	4.1280	0	34.0890	0	27.053	0	547.763	0	26.6	4	8.4	4	-1E+10	1	-1E+10	1	-1E+10	1	-1E+10	1	-1E+10	1	-1E+10	1
4902549	105	C	07/11/2023	05:07	-132.531	47.279	0	558.10	0	4.1090	0	34.0950	0	27.059	0	552.708	0	25.7	4	8.1	4	-1E+10	1	-1E+10	1	-1E+10	1	-1E+10	1	-1E+10	1	-1E+10	1
4902549	105	C	07/11/2023	05:07	-132.531	47.279	0	562.80	0	4.0910	0	34.1010	0	27.066	0	557.356	0	25.0	4	7.9	4	-1E+10	1	-1E+10	1	-1E+10	1	-1E+10	1	-1E+10	1	-1E+10	1
4902549	105	C	07/11/2023	05:07	-132.531	47.279	0	567.60	0	4.0780	0	34.1050	0	27.070	0	562.104	0	24.5	4	7.7	4	-1E+10	1	-1E+10	1	-1E+10	1	-1E+10	1	-1E+10	1	-1E+10	1
4902549	105	C	07/11/2023	05:07	-132.531	47.279	0	572.50	0	4.0630	0	34.1090	0	27.075	0	566.949	0	24.0	4	7.6	4	-1E+10	1	-1E+10	1	-1E+10	1	-1E+10	1	-1E+10	1	-1E+10	1
4902549	105	C	07/11/2023	05:07	-132.531	47.279	0	577.50	0	4.0490	0	34.1130	0	27.080	0	571.894	0	23.5	4	7.4	4	-1E+10	1	-1E+10	1	-1E+10	1	-1E+10	1	-1E+10	1	-1E+10	1
4902549	105	C	07/11/2023	05:07	-132.531	47.279	0	582.60	0	4.0420	0	34.1150	0	27.082	0	576.938	0	22.9	4	7.2	4	-1E+10	1	-1E+10	1	-1E+10	1	-1E+10	1	-1E+10	1	-1E+10	1
4902549	105	C	07/11/2023	05:07	-132.531	47.279	0	587.70	0	4.0270	0	34.1190	0	27.087	0	581.981	0	22.2	4	7.0	4	-1E+10	1	-1E+10	1	-1E+10	1	-1E+10	1	-1E+10	1	-1E+10	1
4902549	105	C	07/11/2023	05:07	-132.531	47.279	0	592.80	0	4.0100	0	34.1260	0	27.094	0	587.024	0	21.5	4	6.8	4	-1E+10	1	-1E+10	1	-1E+10	1	-1E+10	1	-1E+10	1	-1E+10	1
4902549	105	C	07/11/2023	05:07	-132.531	47.279	0	598.00	0	3.9970	0	34.1290	0	27.098	0	592.166	0	20.8	4	6.6	4	-1E+10	1	-1E+10	1	-1E+10	1	-1E+10	1	-1E+10	1	-1E+10	1
4902549	105	C	07/11/2023	05:07	-132.531	47.279	0	603.10	0	3.9760	0	34.1350	0	27.105	0	597.209	0	20.2	4	6.4	4	-1E+10	1	-1E+10	1	-1E+10	1	-1E+10	1	-1E+10	1	-1E+10	1
4902549	105	C	07/11/2023	05:07	-132.531	47.279	0	608.40	0	3.9580	0	34.1410	0	27.112	0	602.449	0	19.6	4	6.2	4	-1E+10	1	-1E+10	1	-1E+10	1	-1E+10	1	-1E+10	1	-1E+10	1
4902549	105	C	07/11/2023	05:07	-132.531	47.279	0	613.10	0	3.9410	0	34.1460	0	27.117	0	607.097	0	19.2	4	6.1	4	-1E+10	1	-1E+10	1	-1E+10	1	-1E+10	1	-1E+10	1	-1E+10	1
4902549	105	C	07/11/2023	05:07	-132.531	47.279	0	617.90	0	3.9300	0	34.1490	0	27.121	0	611.843	0	18.9	4	6.0	4	-1E+10	1	-1E+10	1	-1E+10	1	-1E+10	1	-1E+10	1	-1E+10	1
4902549	105	C	07/11/2023	05:07	-132.531	47.279	0	623.20	0	3.9240	0	34.1510	0	27.123	0	617.083	0	18.6	4	5.8	4	-1E+10	1	-1E+10	1	-1E+10	1	-1E+10	1	-1E+10	1	-1E+10	1
4902549	105	C	07/11/2023	05:07	-132.531	47.279	0	628.10	0	3.9110	0	34.1550	0	27.128	0	621.927	0	18.2	4	5.7	4	-1E+10	1	-1E+10	1	-1E+10	1	-1E+10	1	-1E+10	1	-1E+10	1
4902549	105	C	07/11/2023	05:07	-132.531	47.279	0	633.10	0	3.9010	0	34.1570	0	27.130	0	626.871	0	17.9	4	5.6	4	-1E+10	1	-1E+10	1	-1E+10	1	-1E+10	1	-1E+10	1	-1E+10	1
4902549	105	C	07/11/2023	05:07	-132.531	47.279	0	638.10	0	3.8950	0	34.1600	0	27.133	0	631.814	0	17.5	4	5.5	4	-1E+10	1	-1E+10	1	-1E+10	1	-1E+10	1	-1E+10	1	-1E+10	1
4902549	105	C	07/11/2023	05:07	-132.531	47.279	0	643.10	0	3.8850	0	34.1630	0	27.137	0	636.757	0	17.1	4	5.4	4	-1E+10	1	-1E+10	1	-1E+10	1	-1E+10	1	-1E+10	1	-1E+10	1
4902549	105	C	07/11/2023	05:07	-132.531	47.279	0	648.20	0	3.8730	0	34.1670	0	27.141	0	641.799	0	16.7	4	5.3	4	-1E+10	1	-1E+10	1	-1E+10	1	-1E+10	1	-1E+10	1	-1E+10	1
4902549	105	C	07/11/2023	05:07	-132.531	47.279	0	653.00	0	3.8650	0	34.1690	0	27.144	0	646.544	0	16.4	4	5.2	4	-1E+10	1	-1E+10	1	-1E+10	1	-1E+10	1	-1E+10	1	-1E+10	1
4902549	105	C	07/11/2023	05:07	-132.531	47.279	0	657.80	0	3.8550	0	34.1730	0	27.148	0	651.289	0	16.1	4	5.1	4	-1E+10	1	-1E+10	1	-1E+10	1	-1E+10	1	-1E+10	1	-1E+10	1
4902549	105	C	07/11/2023	05:07	-132.531	47.279	0	663.00	0	3.8430	0	34.1770	0	27.152	0	656.429	0	15.8	4	5.0	4	-1E+10	1	-1E+10	1	-1E+10	1	-1E+10	1	-1E+10	1	-1E+10	1
4902549	105	C	07/11/2023	05:07	-132.531	47.279	0	667.90	0	3.8390	0	34.1780	0	27.154	0	661.273	0	15.6	4	4.9	4	-1E+10	1	-1E+10	1	-1E+10	1	-1E+10	1	-1E+10	1	-1E+10	1
4902549	105	C	07/11/2023	05:07	-132.531	47.279	0	672.80	0	3.8310	0	34.1800	0	27.156	0	666.117	0	15.3	4	4.8	4	-1E+10	1	-1E+10	1	-1E+10	1	-1E+10	1	-1E+10	1	-1E+10	1
4902549	105	C	07/11/2023	05:07	-132.531	47.279	0	678.10	0	3.8230	0	34.1830	0	27.159	0	671.355	0	15.0	4	4.7	4	-1E+10	1	-1E+10	1	-1E+10	1	-1E+10	1	-1E+10	1	-1E+10	1
4902549	105	C	07/11/2023	05:07	-132.531	47.279	0	683.00	0	3.8170	0	34.1860	0	27.162	0	676.199	0	14.7	4	4.6	4	-1E+10	1	-1E+10	1	-1E+10	1	-1E+10	1	-1E+10	1	-1E+10	1
4902549	105	C	07/11/2023	05:07	-132.531	47.279	0	687.70	0	3.8070	0	34.1880	0	27.165	0	680.844	0	14.4	4	4.5	4	-1E+10	1	-1E+10	1	-1E+10	1	-1E+10	1	-1E+10	1	-1E+10	1
4902549	105	C	07/11/2023	05:07	-132.531	47.279	0	693.00	0	3.7950	0	34.1920	0	27.169	0	686.083	0	14.0	4	4.4	4	-1E+10	1	-1E+10	1	-1E+10	1	-1E+10	1	-1E+10	1	-1E+10	1
4902549	105	C	07/11/2023	05:07	-132.531	47.279	0	698.10	0	3.7800	0	34.1960	0	27.174	0	691.123	0	13.5	4	4.2	4	-1E+10	1	-1E+10	1	-1E+10	1	-1E+10	1	-1E+10	1	-1E+10	1
4902549	105	C	07/11/2023	05:07	-132.531	47.279	0	702.90	0	3.7590	0	34.2020	0	27.181	0	695.867	0	13.2	4	4.1	4	-1E+10	1	-1E+10	1	-1E+10	1	-1E+10	1	-1E+10	1	-1E+10	1
4902549	105	C	07/11/2023	05:07	-132.531	47.279	0	707.70	0	3.7450	0	34.2060	0	27.185	0	700.611	0	12.9	4	4.0	4	-1E+10	1	-1E+10	1	-1E+10	1	-1E+10	1	-1E+10	1	-1E+10	1
4902549	105	C	07/11/2023	05:07	-132.531	47.279	0	712.90	0	3.7340	0	34.2100	0	27.190	0	705.750	0	12.5	4	3.9	4	-1E+10	1	-1E+10	1	-1E+10	1	-1E+10	1	-1E+10	1	-1E+10	1
4902549	105	C	07/11/2023	05:07	-132.531	47.279	0	717.80	0	3.7210	0	34.2140	0	27.194	0	710.593	0	12.1	4	3.8	4	-1E+10	1	-1E+10	1	-1E+10	1	-1E+10	1	-1E+10	1	-1E+10	1
4902549	105	C	07/11/2023	05:07	-132.531	47.279	0	722.70	0	3.7190	0	34.2170	0	27.197	0	715.435	0	11.7	4	3.7	4	-1E+10	1	-1E+10	1	-1E+10	1	-1E+10	1	-1E+10	1	-1E+10	1
4902549	105	C	07/11/2023	05:07	-132.531	47.279	0	728.10	0	3.7040	0	34.2220	0	27.202	0	720.772	0	11.4	4	3.6	4	-1E+10	1	-1E+10	1	-1E+10	1	-1E+10	1	-1E+10	1	-1E+10	1
4902549	105	C	07/11/2023	05:07	-132.531	47.279	0	733.00	0	3.6880	0	34.2260	0	27.207	0	725.614	0	11.1	4	3.5	4	-1E+10	1	-1E+10	1	-1E+10	1	-1E+10	1	-1E+10	1	-1E+10	1
4902549	105	C	07/11/2023	05:07	-132.531	47.279	0	737.80	0	3.6720	0	34.2300	0	27.212	0	730.357	0	10.8	4	3.4	4	-1E+10	1	-1E+10	1	-1E+10	1	-1E+10	1	-1E+10	1	-1E+10	1
4902549	105	C	07/11/2023	05:07	-132.531	47.279	0	742.80	0	3.6610	0	34.2360	0	27.218	0	735.298	0	10.4	4	3.3	4	-1E+10	1	-1E+10	1	-1E+10	1	-1E+10	1	-1E+10	1	-1E+10	1
4902549	105	C	07/11/2023	05:07	-132.531	47.279	0	747.90	0	3.6480	0	34.2400	0	27.222	0	740.337	0	10.2	4	3.2	4	-1E+10	1	-1E+10	1	-1E+10	1	-1E+10	1	-1E+10	1	-1E+10	1
4902549	105	C	07/11/2023	05:07	-132.531	47.279	0	752.90	0	3.6440	0	34.2420	0	27.224	0	745.278	0	9.9	4	3.1	4	-1E+10	1	-1E+10	1	-1E+10	1	-1E+10	1	-1E+10	1	-1E+10	1
4902549	105	C	07/11/2023	05:07	-132.531	47.279	0	758.00	0	3.6350	0	34.2460	0	27.228	0	750.317	0	9.5	4	3.0	4	-1E+10	1	-1E+10	1	-1E+10	1	-1E+10	1	-1E+10	1	-1E+10	1
4902549	105	C	07/11/2023	05:07	-132.531	47.279	0	763.30	0	3.6240	0	34.2520	0	27.234	0	755.554	0	9.1	4	2.8	4	-1E+10	1	-1E+10	1	-1E+10	1	-1E+10	1	-1E+10	1	-1E+10	1
4902549	105	C	07/11/2023	05:07	-132.531	47.279	0	768.10	0	3.6280	0	34.2560	0	27.237	0	760.296	0	8.7	4	2.7	4	-1E+10	1	-1E+10	1	-1E+10	1	-1E+10	1	-1E+10	1	-1E+10	1
4902549	105	C	07/11/2023	05:07	-132.531	47.279	0	773.00	0	3.6120	0	34.2600	0	27.242	0	765.138	0	8.4	4	2.6	4	-1E+10	1	-1E+10	1	-1E+10	1	-1E+10	1	-1E+10	1	-1E+10	1
4902549	105	C	07/11/2023	05:07	-132.531	47.279	0	778.00	0	3.6040	0	34.2640	0	27.246	0	770.077	0	7.8	4	2.4	4	-1E+10	1	-1E+10	1	-1E+10	1	-1E+10	1	-1E+10	1	-1E+10	1
4902549	105	C	07/11/2023	05:07	-132.531	47.279	0	783.00	0	3.6320	0	34.2730	0	27.250	0	775.017	0	7.4	4	2.3	4	-1E+10	1	-1E+10	1	-1E+10	1	-1E+10	1	-1E+10	1	-1E+10	1
4902549	105	C	07/11/2023	05:07	-132.531	47.279	0	788.00	0	3.6290	0	34.2780	0	27.255	0	779.957	0	7.2	4	2.3	4	-1E+10	1	-1E+10	1	-1E+10	1	-1E+10	1	-1E+10	1	-1E+10	1
4902549	105	C	07/11/2023	05:07	-132.531	47.279	0	793.10	0	3.6220	0	34.2810	0	27.258	0	784.995	0	7.1	4	2.2	4	-1E+10	1	-1E+10	1	-1E+10	1	-1E+10	1	-1E+10	1	-1E+10	1
4902549	105	C	07/11/2023	05:07	-132.531	47.279	0	798.20	0	3.6130	0	34.2850	0	27.262	0	790.034	0	7.0	4	2.2	4	-1E+10	1	-1E+10	1	-1E+10	1	-1E+10	1	-1E+10	1	-1E+10	1
4902549	105	C	07/11/2023	05:07	-132.531	47.279	0	802.90	0	3.6090	0	34.2870	0	27.264	0	794.677	0	7.0	4	2.2	4	-1E+10	1	-1E+10	1	-1E+10	1	-1E+10	1	-1E+10	1	-1E+10	1
4902549	105	C	07/11/2023	05:07	-132.531	47.279	0	807.90	0	3.5970	0	34.2900	0	27.268	0	799.616	0	6.9	4	2.2	4	-1E+10	1	-1E+10	1	-1E+10	1	-1E+10	1	-1E+10	1	-1E+10	1
4902549	105	C	07/11/2023	05:07	-132.531	47.279	0	813.10	0	3.5830	0	34.2920	0	27.271	0	804.752	0	6.9	4	2.2	4	-1E+10	1	-1E+10	1	-1E+10	1	-1E+10	1	-1E+10	1	-1E+10	1
4902549	105	C	07/11/2023	05:07	-132.531	47.279	0	818.00	0	3.5750	0	34.2950	0	27.274	0	809.593	0	6.8	4	2.1	4	-1E+10	1	-1E+10	1	-1E+10	1	-1E+10	1	-1E+10	1	-1E+10	1
4902549	105	C	07/11/2023	05:07	-132.531	47.279	0	822.80	0	3.5650	0	34.2970	0	27.276	0	814.334	0	6.8	4	2.1	4	-1E+10	1	-1E+10	1	-1E+10	1	-1E+10	1	-1E+10	1	-1E+10	1
4902549	105	C	07/11/2023	05:07	-132.531	47.279	0	827.80	0	3.5560	0	34.3000	0	27.280	0	819.273	0	6.7	4	2.1	4	-1E+10	1	-1E+10	1	-1E+10	1	-1E+10	1	-1E+10	1	-1E+10	1
4902549	105	C	07/11/2023	05:07	-132.531	47.279	0	832.90	0	3.5450	0	34.3020	0	27.282	0	824.310	0	6.7	4	2.1	4	-1E+10	1	-1E+10	1	-1E+10	1	-1E+10	1	-1E+10	1	-1E+10	1
4902549	105	C	07/11/2023	05:07	-132.531	47.279	0	838.00	0	3.5360	0	34.3050	0	27.286	0	829.347	0	6.6	4	2.1	4	-1E+10	1	-1E+10	1	-1E+10	1	-1E+10	1	-1E+10	1	-1E+10	1
4902549	105	C	07/11/2023	05:07	-132.531	47.279	0	842.80	0	3.5260	0	34.3070	0	27.288	0	834.088	0	6.5	4	2.0	4	-1E+10	1	-1E+10	1	-1E+10	1	-1E+10	1	-1E+10	1	-1E+10	1
4902549	105	C	07/11/2023	05:07	-132.531	47.279	0	847.60	0	3.5240	0	34.3100	0	27.291	0	838.829	0	6.4	4	2.0	4	-1E+10	1	-1E+10	1	-1E+10	1	-1E+10	1	-1E+10	1	-1E+10	1
4902549	105	C	07/11/2023	05:07	-132.531	47.279	0	852.90	0	3.5250	0	34.3120	0	27.292	0	844.064	0	6.4	4	2.0	4	-1E+10	1	-1E+10	1	-1E+10	1	-1E+10	1	-1E+10	1	-1E+10	1
4902549	105	C	07/11/2023	05:07	-132.531	47.279	0	857.90	0	3.5190	0	34.3150	0	27.295	0	849.002	0	6.3	4	2.0	4	-1E+10	1	-1E+10	1	-1E+10	1	-1E+10	1	-1E+10	1	-1E+10	1
4902549	105	C	07/11/2023	05:07	-132.531	47.279	0	862.80	0	3.5040	0	34.3170	0	27.298	0	853.841	0	6.3	4	2.0	4	-1E+10	1	-1E+10	1	-1E+10	1	-1E+10	1	-1E+10	1	-1E+10	1
4902549	105	C	07/11/2023	05:07	-132.531	47.279	0	867.70	0	3.4970	0	34.3190	0	27.301	0	858.680	0	6.3	4	2.0	4	-1E+10	1	-1E+10	1	-1E+10	1	-1E+10	1	-1E+10	1	-1E+10	1
4902549	105	C	07/11/2023	05:07	-132.531	47.279	0	872.70	0	3.4830	0	34.3220	0	27.305	0	863.618	0	6.3	4	2.0	4	-1E+10	1	-1E+10	1	-1E+10	1	-1E+10	1	-1E+10	1	-1E+10	1
4902549	105	C	07/11/2023	05:07	-132.531	47.279	0	877.80	0	3.4750	0	34.3240	0	27.307	0	868.654	0	6.3	4	2.0	4	-1E+10	1	-1E+10	1	-1E+10	1	-1E+10	1	-1E+10	1	-1E+10	1
4902549	105	C	07/11/2023	05:07	-132.531	47.279	0	883.00	0	3.4660	0	34.3260	0	27.309	0	873.789	0	6.3	4	2.0	4	-1E+10	1	-1E+10	1	-1E+10	1	-1E+10	1	-1E+10	1	-1E+10	1
4902549	105	C	07/11/2023	05:07	-132.531	47.279	0	888.20	0	3.4560	0	34.3280	0	27.312	0	878.924	0	6.2	4	1.9	4	-1E+10	1	-1E+10	1	-1E+10	1	-1E+10	1	-1E+10	1	-1E+10	1
4902549	105	C	07/11/2023	05:07	-132.531	47.279	0	893.00	0	3.4450	0	34.3300	0	27.315	0	883.663	0	6.2	4	1.9	4	-1E+10	1	-1E+10	1	-1E+10	1	-1E+10	1	-1E+10	1	-1E+10	1
4902549	105	C	07/11/2023	05:07	-132.531	47.279	0	897.80	0	3.4360	0	34.3310	0	27.316	0	888.403	0	6.2	4	1.9	4	-1E+10	1	-1E+10	1	-1E+10	1	-1E+10	1	-1E+10	1	-1E+10	1
4902549	105	C	07/11/2023	05:07	-132.531	47.279	0	902.70	0	3.4340	0	34.3330	0	27.318	0	893.241	0	6.2	4	1.9	4	-1E+10	1	-1E+10	1	-1E+10	1	-1E+10	1	-1E+10	1	-1E+10	1
4902549	105	C	07/11/2023	05:07	-132.531	47.279	0	907.70	0	3.4170	0	34.3360	0	27.322	0	898.178	0	6.3	4	2.0	4	-1E+10	1	-1E+10	1	-1E+10	1	-1E+10	1	-1E+10	1	-1E+10	1
4902549	105	C	07/11/2023	05:07	-132.531	47.279	0	912.70	0	3.4110	0	34.3370	0	27.324	0	903.115	0	6.3	4	2.0	4	-1E+10	1	-1E+10	1	-1E+10	1	-1E+10	1	-1E+10	1	-1E+10	1
4902549	105	C	07/11/2023	05:07	-132.531	47.279	0	917.70	0	3.4020	0	34.3380	0	27.325	0	908.052	0	6.4	4	2.0	4	-1E+10	1	-1E+10	1	-1E+10	1	-1E+10	1	-1E+10	1	-1E+10	1
4902549	105	C	07/11/2023	05:07	-132.531	47.279	0	922.70	0	3.3870	0	34.3380	0	27.327	0	912.988	0	6.5	4	2.0	4	-1E+10	1	-1E+10	1	-1E+10	1	-1E+10	1	-1E+10	1	-1E+10	1
4902549	105	C	07/11/2023	05:07	-132.531	47.279	0	927.80	0	3.3650	0	34.3380	0	27.329	0	918.023	0	6.6	4	2.1	4	-1E+10	1	-1E+10	1	-1E+10	1	-1E+10	1	-1E+10	1	-1E+10	1
4902549	105	C	07/11/2023	05:07	-132.531	47.279	0	932.80	0	3.3340	0	34.3400	0	27.333	0	922.960	0	6.7	4	2.1	4	-1E+10	1	-1E+10	1	-1E+10	1	-1E+10	1	-1E+10	1	-1E+10	1
4902549	105	C	07/11/2023	05:07	-132.531	47.279	0	937.90	0	3.3140	0	34.3410	0	27.336	0	927.994	0	6.7	4	2.1	4	-1E+10	1	-1E+10	1	-1E+10	1	-1E+10	1	-1E+10	1	-1E+10	1
4902549	105	C	07/11/2023	05:07	-132.531	47.279	0	943.10	0	3.2880	0	34.3430	0	27.340	0	933.128	0	6.7	4	2.1	4	-1E+10	1	-1E+10	1	-1E+10	1	-1E+10	1	-1E+10	1	-1E+10	1
4902549	105	C	07/11/2023	05:07	-132.531	47.279	0	948.30	0	3.2760	0	34.3440	0	27.342	0	938.261	0	6.6	4	2.1	4	-1E+10	1	-1E+10	1	-1E+10	1	-1E+10	1	-1E+10	1	-1E+10	1
4902549	105	C	07/11/2023	05:07	-132.531	47.279	0	953.00	0	3.2710	0	34.3480	0	27.346	0	942.901	0	6.5	4	2.0	4	-1E+10	1	-1E+10	1	-1E+10	1	-1E+10	1	-1E+10	1	-1E+10	1
4902549	105	C	07/11/2023	05:07	-132.531	47.279	0	957.70	0	3.2830	0	34.3530	0	27.349	0	947.541	0	6.3	4	2.0	4	-1E+10	1	-1E+10	1	-1E+10	1	-1E+10	1	-1E+10	1	-1E+10	1
4902549	105	C	07/11/2023	05:07	-132.531	47.279	0	962.80	0	3.3040	0	34.3590	0	27.352	0	952.575	0	6.3	4	2.0	4	-1E+10	1	-1E+10	1	-1E+10	1	-1E+10	1	-1E+10	1	-1E+10	1
4902549	105	C	07/11/2023	05:07	-132.531	47.279	0	968.00	0	3.2860	0	34.3610	0	27.355	0	957.708	0	6.3	4	2.0	4	-1E+10	1	-1E+10	1	-1E+10	1	-1E+10	1	-1E+10	1	-1E+10	1
4902549	105	C	07/11/2023	05:07	-132.531	47.279	0	973.20	0	3.2860	0	34.3640	0	27.357	0	962.840	0	6.4	4	2.0	4	-1E+10	1	-1E+10	1	-1E+10	1	-1E+10	1	-1E+10	1	-1E+10	1
4902549	105	C	07/11/2023	05:07	-132.531	47.279	0	977.80	0	3.2780	0	34.3650	0	27.359	0	967.381	0	6.5	4	2.0	4	-1E+10	1	-1E+10	1	-1E+10	1	-1E+10	1	-1E+10	1	-1E+10	1
4902549	105	C	07/11/2023	05:07	-132.531	47.279	0	982.50	0	3.2640	0	34.3650	0	27.360	0	972.020	0	6.6	4	2.0	4	-1E+10	1	-1E+10	1	-1E+10	1	-1E+10	1	-1E+10	1	-1E+10	1
4902549	105	C	07/11/2023	05:07	-132.531	47.279	0	987.60	0	3.2230	0	34.3630	0	27.362	0	977.054	0	6.7	4	2.1	4	-1E+10	1	-1E+10	1	-1E+10	1	-1E+10	1	-1E+10	1	-1E+10	1
4902549	105	C	07/11/2023	05:07	-132.531	47.279	0	992.80	0	3.2010	0	34.3610	0	27.363	0	982.186	0	6.7	4	2.1	4	-1E+10	1	-1E+10	1	-1E+10	1	-1E+10	1	-1E+10	1	-1E+10	1
4902549	105	C	07/11/2023	05:07	-132.531	47.279	0	998.10	0	3.1960	0	34.3630	0	27.365	0	987.417	0	6.7	4	2.1	4	-1E+10	1	-1E+10	1	-1E+10	1	-1E+10	1	-1E+10	1	-1E+10	1
4902549	105	C	07/11/2023	05:07	-132.531	47.279	0	1005.40	0	3.1770	0	34.3640	0	27.368	0	994.621	0	6.7	4	2.1	4	-1E+10	1	-1E+10	1	-1E+10	1	-1E+10	1	-1E+10	1	-1E+10	1
4902549	105	C	07/11/2023	05:07	-132.531	47.279	0	1015.30	0	3.1760	0	34.3690	0	27.372	0	1004.391	0	6.7	4	2.1	4	-1E+10	1	-1E+10	1	-1E+10	1	-1E+10	1	-1E+10	1	-1E+10	1
4902549	105	C	07/11/2023	05:07	-132.531	47.279	0	1025.70	0	3.1560	0	34.3730	0	27.377	0	1014.655	0	6.8	4	2.1	4	-1E+10	1	-1E+10	1	-1E+10	1	-1E+10	1	-1E+10	1	-1E+10	1
4902549	105	C	07/11/2023	05:07	-132.531	47.279	0	1035.60	0	3.1470	0	34.3770	0	27.381	0	1024.424	0	6.8	4	2.1	4	-1E+10	1	-1E+10	1	-1E+10	1	-1E+10	1	-1E+10	1	-1E+10	1
4902549	105	C	07/11/2023	05:07	-132.531	47.279	0	1045.20	0	3.1490	0	34.3820	0	27.385	0	1033.896	0	6.8	4	2.1	4	-1E+10	1	-1E+10	1	-1E+10	1	-1E+10	1	-1E+10	1	-1E+10	1
4902549	105	C	07/11/2023	05:07	-132.531	47.279	0	1055.40	0	3.1340	0	34.3900	0	27.393	0	1043.961	0	6.9	4	2.1	4	-1E+10	1	-1E+10	1	-1E+10	1	-1E+10	1	-1E+10	1	-1E+10	1
4902549	105	C	07/11/2023	05:07	-132.531	47.279	0	1065.40	0	3.1220	0	34.3940	0	27.397	0	1053.827	0	7.0	4	2.2	4	-1E+10	1	-1E+10	1	-1E+10	1	-1E+10	1	-1E+10	1	-1E+10	1
4902549	105	C	07/11/2023	05:07	-132.531	47.279	0	1075.50	0	3.0530	0	34.3930	0	27.402	0	1063.792	0	7.2	4	2.2	4	-1E+10	1	-1E+10	1	-1E+10	1	-1E+10	1	-1E+10	1	-1E+10	1
4902549	105	C	07/11/2023	05:07	-132.531	47.279	0	1085.50	0	3.0240	0	34.3980	0	27.409	0	1073.658	0	7.4	4	2.3	4	-1E+10	1	-1E+10	1	-1E+10	1	-1E+10	1	-1E+10	1	-1E+10	1
4902549	105	C	07/11/2023	05:07	-132.531	47.279	0	1095.50	0	3.0110	0	34.4040	0	27.415	0	1083.523	0	7.5	4	2.3	4	-1E+10	1	-1E+10	1	-1E+10	1	-1E+10	1	-1E+10	1	-1E+10	1
4902549	105	C	07/11/2023	05:07	-132.531	47.279	0	1105.30	0	2.9910	0	34.4080	0	27.420	0	1093.190	0	7.7	4	2.4	4	-1E+10	1	-1E+10	1	-1E+10	1	-1E+10	1	-1E+10	1	-1E+10	1
4902549	105	C	07/11/2023	05:07	-132.531	47.279	0	1115.30	0	2.9700	0	34.4110	0	27.425	0	1103.054	0	7.9	4	2.4	4	-1E+10	1	-1E+10	1	-1E+10	1	-1E+10	1	-1E+10	1	-1E+10	1
4902549	105	C	07/11/2023	05:07	-132.531	47.279	0	1125.60	0	2.9350	0	34.4120	0	27.429	0	1113.214	0	8.0	4	2.5	4	-1E+10	1	-1E+10	1	-1E+10	1	-1E+10	1	-1E+10	1	-1E+10	1
4902549	105	C	07/11/2023	05:07	-132.531	47.279	0	1135.50	0	2.9080	0	34.4130	0	27.432	0	1122.979	0	8.2	4	2.5	4	-1E+10	1	-1E+10	1	-1E+10	1	-1E+10	1	-1E+10	1	-1E+10	1
4902549	105	C	07/11/2023	05:07	-132.531	47.279	0	1145.50	0	2.9170	0	34.4210	0	27.437	0	1132.841	0	8.5	4	2.6	4	-1E+10	1	-1E+10	1	-1E+10	1	-1E+10	1	-1E+10	1	-1E+10	1
4902549	105	C	07/11/2023	05:07	-132.531	47.279	0	1155.60	0	2.9130	0	34.4250	0	27.441	0	1142.802	0	8.7	4	2.7	4	-1E+10	1	-1E+10	1	-1E+10	1	-1E+10	1	-1E+10	1	-1E+10	1
4902549	105	C	07/11/2023	05:07	-132.531	47.279	0	1165.30	0	2.8920	0	34.4270	0	27.445	0	1152.368	0	8.9	4	2.7	4	-1E+10	1	-1E+10	1	-1E+10	1	-1E+10	1	-1E+10	1	-1E+10	1
4902549	105	C	07/11/2023	05:07	-132.531	47.279	0	1175.30	0	2.8760	0	34.4320	0	27.450	0	1162.230	0	9.3	4	2.9	4	-1E+10	1	-1E+10	1	-1E+10	1	-1E+10	1	-1E+10	1	-1E+10	1
4902549	105	C	07/11/2023	05:07	-132.531	47.279	0	1185.60	0	2.8560	0	34.4360	0	27.455	0	1172.386	0	9.7	4	3.0	4	-1E+10	1	-1E+10	1	-1E+10	1	-1E+10	1	-1E+10	1	-1E+10	1
4902549	105	C	07/11/2023	05:07	-132.531	47.279	0	1195.70	0	2.8410	0	34.4400	0	27.460	0	1182.345	0	10.0	4	3.1	4	-1E+10	1	-1E+10	1	-1E+10	1	-1E+10	1	-1E+10	1	-1E+10	1
4902549	105	C	07/11/2023	05:07	-132.531	47.279	0	1205.30	0	2.8260	0	34.4450	0	27.465	0	1191.811	0	10.4	4	3.2	4	-1E+10	1	-1E+10	1	-1E+10	1	-1E+10	1	-1E+10	1	-1E+10	1
4902549	105	C	07/11/2023	05:07	-132.531	47.279	0	1215.10	0	2.8110	0	34.4470	0	27.468	0	1201.473	0	10.7	4	3.3	4	-1E+10	1	-1E+10	1	-1E+10	1	-1E+10	1	-1E+10	1	-1E+10	1
4902549	105	C	07/11/2023	05:07	-132.531	47.279	0	1225.10	0	2.7850	0	34.4510	0	27.474	0	1211.332	0	11.2	4	3.5	4	-1E+10	1	-1E+10	1	-1E+10	1	-1E+10	1	-1E+10	1	-1E+10	1
4902549	105	C	07/11/2023	05:07	-132.531	47.279	0	1235.50	0	2.7670	0	34.4570	0	27.480	0	1221.585	0	11.6	4	3.6	4	-1E+10	1	-1E+10	1	-1E+10	1	-1E+10	1	-1E+10	1	-1E+10	1
4902549	105	C	07/11/2023	05:07	-132.531	47.279	0	1245.30	0	2.7570	0	34.4580	0	27.482	0	1231.246	0	11.8	4	3.6	4	-1E+10	1	-1E+10	1	-1E+10	1	-1E+10	1	-1E+10	1	-1E+10	1
4902549	105	C	07/11/2023	05:07	-132.531	47.279	0	1255.60	0	2.7450	0	34.4600	0	27.484	0	1241.400	0	12.1	4	3.7	4	-1E+10	1	-1E+10	1	-1E+10	1	-1E+10	1	-1E+10	1	-1E+10	1
4902549	105	C	07/11/2023	05:07	-132.531	47.279	0	1265.30	0	2.7220	0	34.4630	0	27.489	0	1250.961	0	12.5	4	3.8	4	-1E+10	1	-1E+10	1	-1E+10	1	-1E+10	1	-1E+10	1	-1E+10	1
4902549	105	C	07/11/2023	05:07	-132.531	47.279	0	1275.40	0	2.6960	0	34.4640	0	27.492	0	1260.917	0	12.7	4	3.9	4	-1E+10	1	-1E+10	1	-1E+10	1	-1E+10	1	-1E+10	1	-1E+10	1
4902549	105	C	07/11/2023	05:07	-132.531	47.279	0	1285.50	0	2.6820	0	34.4650	0	27.494	0	1270.871	0	12.9	4	3.9	4	-1E+10	1	-1E+10	1	-1E+10	1	-1E+10	1	-1E+10	1	-1E+10	1
4902549	105	C	07/11/2023	05:07	-132.531	47.279	0	1295.50	0	2.6710	0	34.4670	0	27.497	0	1280.727	0	13.1	4	4.0	4	-1E+10	1	-1E+10	1	-1E+10	1	-1E+10	1	-1E+10	1	-1E+10	1
4902549	105	C	07/11/2023	05:07	-132.531	47.279	0	1305.60	0	2.6590	0	34.4680	0	27.498	0	1290.681	0	13.4	4	4.1	4	-1E+10	1	-1E+10	1	-1E+10	1	-1E+10	1	-1E+10	1	-1E+10	1
4902549	105	C	07/11/2023	05:07	-132.531	47.279	0	1315.40	0	2.6370	0	34.4710	0	27.503	0	1300.339	0	13.7	4	4.2	4	-1E+10	1	-1E+10	1	-1E+10	1	-1E+10	1	-1E+10	1	-1E+10	1
4902549	105	C	07/11/2023	05:07	-132.531	47.279	0	1325.50	0	2.6160	0	34.4720	0	27.505	0	1310.292	0	13.9	4	4.3	4	-1E+10	1	-1E+10	1	-1E+10	1	-1E+10	1	-1E+10	1	-1E+10	1
4902549	105	C	07/11/2023	05:07	-132.531	47.279	0	1335.80	0	2.6000	0	34.4740	0	27.508	0	1320.441	0	14.1	4	4.3	4	-1E+10	1	-1E+10	1	-1E+10	1	-1E+10	1	-1E+10	1	-1E+10	1
4902549	105	C	07/11/2023	05:07	-132.531	47.279	0	1345.30	0	2.5910	0	34.4740	0	27.509	0	1329.802	0	14.3	4	4.4	4	-1E+10	1	-1E+10	1	-1E+10	1	-1E+10	1	-1E+10	1	-1E+10	1
4902549	105	C	07/11/2023	05:07	-132.531	47.279	0	1355.20	0	2.5760	0	34.4760	0	27.512	0	1339.557	0	14.5	4	4.4	4	-1E+10	1	-1E+10	1	-1E+10	1	-1E+10	1	-1E+10	1	-1E+10	1
4902549	105	C	07/11/2023	05:07	-132.531	47.279	0	1365.30	0	2.5570	0	34.4760	0	27.514	0	1349.508	0	14.8	4	4.5	4	-1E+10	1	-1E+10	1	-1E+10	1	-1E+10	1	-1E+10	1	-1E+10	1
4902549	105	C	07/11/2023	05:07	-132.531	47.279	0	1375.40	0	2.5320	0	34.4790	0	27.518	0	1359.459	0	15.0	4	4.6	4	-1E+10	1	-1E+10	1	-1E+10	1	-1E+10	1	-1E+10	1	-1E+10	1
4902549	105	C	07/11/2023	05:07	-132.531	47.279	0	1385.80	0	2.5080	0	34.4800	0	27.521	0	1369.704	0	15.4	4	4.7	4	-1E+10	1	-1E+10	1	-1E+10	1	-1E+10	1	-1E+10	1	-1E+10	1
4902549	105	C	07/11/2023	05:07	-132.531	47.279	0	1395.40	0	2.4970	0	34.4830	0	27.525	0	1379.161	0	15.9	4	4.8	4	-1E+10	1	-1E+10	1	-1E+10	1	-1E+10	1	-1E+10	1	-1E+10	1
4902549	105	C	07/11/2023	05:07	-132.531	47.279	0	1405.60	0	2.4910	0	34.4840	0	27.526	0	1389.209	0	16.3	4	5.0	4	-1E+10	1	-1E+10	1	-1E+10	1	-1E+10	1	-1E+10	1	-1E+10	1
4902549	105	C	07/11/2023	05:07	-132.531	47.279	0	1415.30	0	2.4800	0	34.4870	0	27.529	0	1398.764	0	16.6	4	5.0	4	-1E+10	1	-1E+10	1	-1E+10	1	-1E+10	1	-1E+10	1	-1E+10	1
4902549	105	C	07/11/2023	05:07	-132.531	47.279	0	1425.30	0	2.4600	0	34.4870	0	27.531	0	1408.614	0	16.9	4	5.2	4	-1E+10	1	-1E+10	1	-1E+10	1	-1E+10	1	-1E+10	1	-1E+10	1
4902549	105	C	07/11/2023	05:07	-132.531	47.279	0	1435.70	0	2.4460	0	34.4900	0	27.535	0	1418.857	0	17.6	4	5.4	4	-1E+10	1	-1E+10	1	-1E+10	1	-1E+10	1	-1E+10	1	-1E+10	1
4902549	105	C	07/11/2023	05:07	-132.531	47.279	0	1445.50	0	2.4400	0	34.4930	0	27.538	0	1428.509	0	18.2	4	5.5	4	-1E+10	1	-1E+10	1	-1E+10	1	-1E+10	1	-1E+10	1	-1E+10	1
4902549	105	C	07/11/2023	05:07	-132.531	47.279	0	1455.50	0	2.4310	0	34.4960	0	27.541	0	1438.357	0	18.7	4	5.7	4	-1E+10	1	-1E+10	1	-1E+10	1	-1E+10	1	-1E+10	1	-1E+10	1
4902549	105	C	07/11/2023	05:07	-132.531	47.279	0	1465.80	0	2.4260	0	34.4970	0	27.542	0	1448.501	0	18.9	4	5.8	4	-1E+10	1	-1E+10	1	-1E+10	1	-1E+10	1	-1E+10	1	-1E+10	1
4902549	105	C	07/11/2023	05:07	-132.531	47.279	0	1475.70	0	2.4230	0	34.4980	0	27.543	0	1458.250	0	19.2	4	5.8	4	-1E+10	1	-1E+10	1	-1E+10	1	-1E+10	1	-1E+10	1	-1E+10	1
4902549	105	C	07/11/2023	05:07	-132.531	47.279	0	1485.80	0	2.4180	0	34.4990	0	27.545	0	1468.195	0	19.7	4	6.0	4	-1E+10	1	-1E+10	1	-1E+10	1	-1E+10	1	-1E+10	1	-1E+10	1
4902549	105	C	07/11/2023	05:07	-132.531	47.279	0	1495.50	0	2.4110	0	34.5010	0	27.547	0	1477.746	0	20.2	4	6.1	4	-1E+10	1	-1E+10	1	-1E+10	1	-1E+10	1	-1E+10	1	-1E+10	1
4902549	105	C	07/11/2023	05:07	-132.531	47.279	0	1505.10	0	2.3980	0	34.5040	0	27.550	0	1487.199	0	20.7	4	6.3	4	-1E+10	1	-1E+10	1	-1E+10	1	-1E+10	1	-1E+10	1	-1E+10	1
4902549	105	C	07/11/2023	05:07	-132.531	47.279	0	1515.30	0	2.3800	0	34.5050	0	27.553	0	1497.241	0	20.9	4	6.4	4	-1E+10	1	-1E+10	1	-1E+10	1	-1E+10	1	-1E+10	1	-1E+10	1
4902549	105	C	07/11/2023	05:07	-132.531	47.279	0	1525.50	0	2.3640	0	34.5060	0	27.555	0	1507.283	0	21.2	4	6.4	4	-1E+10	1	-1E+10	1	-1E+10	1	-1E+10	1	-1E+10	1	-1E+10	1
4902549	105	C	07/11/2023	05:07	-132.531	47.279	0	1535.50	0	2.3520	0	34.5070	0	27.557	0	1517.128	0	21.6	4	6.6	4	-1E+10	1	-1E+10	1	-1E+10	1	-1E+10	1	-1E+10	1	-1E+10	1
4902549	105	C	07/11/2023	05:07	-132.531	47.279	0	1545.10	0	2.3380	0	34.5090	0	27.560	0	1526.578	0	22.0	4	6.7	4	-1E+10	1	-1E+10	1	-1E+10	1	-1E+10	1	-1E+10	1	-1E+10	1
4902549	105	C	07/11/2023	05:07	-132.531	47.279	0	1555.40	0	2.3260	0	34.5100	0	27.561	0	1536.718	0	22.6	4	6.9	4	-1E+10	1	-1E+10	1	-1E+10	1	-1E+10	1	-1E+10	1	-1E+10	1
4902549	105	C	07/11/2023	05:07	-132.531	47.279	0	1565.40	0	2.3140	0	34.5120	0	27.564	0	1546.561	0	23.3	4	7.1	4	-1E+10	1	-1E+10	1	-1E+10	1	-1E+10	1	-1E+10	1	-1E+10	1
4902549	105	C	07/11/2023	05:07	-132.531	47.279	0	1575.00	0	2.3020	0	34.5150	0	27.567	0	1556.010	0	24.0	4	7.3	4	-1E+10	1	-1E+10	1	-1E+10	1	-1E+10	1	-1E+10	1	-1E+10	1
4902549	105	C	07/11/2023	05:07	-132.531	47.279	0	1585.20	0	2.2900	0	34.5170	0	27.570	0	1566.049	0	24.7	4	7.5	4	-1E+10	1	-1E+10	1	-1E+10	1	-1E+10	1	-1E+10	1	-1E+10	1
4902549	105	C	07/11/2023	05:07	-132.531	47.279	0	1595.50	0	2.2830	0	34.5190	0	27.572	0	1576.187	0	25.4	4	7.7	4	-1E+10	1	-1E+10	1	-1E+10	1	-1E+10	1	-1E+10	1	-1E+10	1
4902549	105	C	07/11/2023	05:07	-132.531	47.279	0	1605.80	0	2.2760	0	34.5210	0	27.574	0	1586.324	0	25.9	4	7.9	4	-1E+10	1	-1E+10	1	-1E+10	1	-1E+10	1	-1E+10	1	-1E+10	1
4902549	105	C	07/11/2023	05:07	-132.531	47.279	0	1616.10	0	2.2670	0	34.5230	0	27.577	0	1596.460	0	26.5	4	8.1	4	-1E+10	1	-1E+10	1	-1E+10	1	-1E+10	1	-1E+10	1	-1E+10	1
4902549	105	C	07/11/2023	05:07	-132.531	47.279	0	1625.40	0	2.2600	0	34.5250	0	27.579	0	1605.612	0	27.1	4	8.2	4	-1E+10	1	-1E+10	1	-1E+10	1	-1E+10	1	-1E+10	1	-1E+10	1
4902549	105	C	07/11/2023	05:07	-132.531	47.279	0	1635.50	0	2.2540	0	34.5270	0	27.581	0	1615.550	0	27.8	4	8.4	4	-1E+10	1	-1E+10	1	-1E+10	1	-1E+10	1	-1E+10	1	-1E+10	1
4902549	105	C	07/11/2023	05:07	-132.531	47.279	0	1645.70	0	2.2400	0	34.5290	0	27.584	0	1625.586	0	28.3	4	8.6	4	-1E+10	1	-1E+10	1	-1E+10	1	-1E+10	1	-1E+10	1	-1E+10	1
4902549	105	C	07/11/2023	05:07	-132.531	47.279	0	1655.40	0	2.2340	0	34.5300	0	27.585	0	1635.131	0	28.7	4	8.7	4	-1E+10	1	-1E+10	1	-1E+10	1	-1E+10	1	-1E+10	1	-1E+10	1
4902549	105	C	07/11/2023	05:07	-132.531	47.279	0	1665.20	0	2.2280	0	34.5310	0	27.587	0	1644.772	0	29.1	4	8.8	4	-1E+10	1	-1E+10	1	-1E+10	1	-1E+10	1	-1E+10	1	-1E+10	1
4902549	105	C	07/11/2023	05:07	-132.531	47.279	0	1675.50	0	2.2140	0	34.5330	0	27.589	0	1654.906	0	29.7	4	9.0	4	-1E+10	1	-1E+10	1	-1E+10	1	-1E+10	1	-1E+10	1	-1E+10	1
4902549	105	C	07/11/2023	05:07	-132.531	47.279	0	1685.60	0	2.2080	0	34.5340	0	27.591	0	1664.842	0	30.3	4	9.2	4	-1E+10	1	-1E+10	1	-1E+10	1	-1E+10	1	-1E+10	1	-1E+10	1
4902549	105	C	07/11/2023	05:07	-132.531	47.279	0	1695.30	0	2.1980	0	34.5360	0	27.593	0	1674.385	0	31.0	4	9.4	4	-1E+10	1	-1E+10	1	-1E+10	1	-1E+10	1	-1E+10	1	-1E+10	1
4902549	105	C	07/11/2023	05:07	-132.531	47.279	0	1705.50	0	2.1910	0	34.5380	0	27.596	0	1684.418	0	31.8	4	9.6	4	-1E+10	1	-1E+10	1	-1E+10	1	-1E+10	1	-1E+10	1	-1E+10	1
4902549	105	C	07/11/2023	05:07	-132.531	47.279	0	1715.70	0	2.1760	0	34.5400	0	27.598	0	1694.451	0	32.7	4	9.9	4	-1E+10	1	-1E+10	1	-1E+10	1	-1E+10	1	-1E+10	1	-1E+10	1
4902549	105	C	07/11/2023	05:07	-132.531	47.279	0	1725.50	0	2.1630	0	34.5430	0	27.602	0	1704.091	0	33.7	4	10.2	4	-1E+10	1	-1E+10	1	-1E+10	1	-1E+10	1	-1E+10	1	-1E+10	1
4902549	105	C	07/11/2023	05:07	-132.531	47.279	0	1735.40	0	2.1480	0	34.5450	0	27.605	0	1713.828	0	34.6	4	10.5	4	-1E+10	1	-1E+10	1	-1E+10	1	-1E+10	1	-1E+10	1	-1E+10	1
4902549	105	C	07/11/2023	05:07	-132.531	47.279	0	1745.40	0	2.1270	0	34.5480	0	27.609	0	1723.663	0	35.4	4	10.7	4	-1E+10	1	-1E+10	1	-1E+10	1	-1E+10	1	-1E+10	1	-1E+10	1
4902549	105	C	07/11/2023	05:07	-132.531	47.279	0	1755.70	0	2.1140	0	34.5500	0	27.611	0	1733.793	0	35.9	4	10.8	4	-1E+10	1	-1E+10	1	-1E+10	1	-1E+10	1	-1E+10	1	-1E+10	1
4902549	105	C	07/11/2023	05:07	-132.531	47.279	0	1765.40	0	2.1060	0	34.5510	0	27.613	0	1743.332	0	36.3	4	11.0	4	-1E+10	1	-1E+10	1	-1E+10	1	-1E+10	1	-1E+10	1	-1E+10	1
4902549	105	C	07/11/2023	05:07	-132.531	47.279	0	1775.20	0	2.0960	0	34.5520	0	27.615	0	1752.969	0	36.9	4	11.2	4	-1E+10	1	-1E+10	1	-1E+10	1	-1E+10	1	-1E+10	1	-1E+10	1
4902549	105	C	07/11/2023	05:07	-132.531	47.279	0	1785.60	0	2.0880	0	34.5540	0	27.617	0	1763.195	0	37.4	4	11.3	4	-1E+10	1	-1E+10	1	-1E+10	1	-1E+10	1	-1E+10	1	-1E+10	1
4902549	105	C	07/11/2023	05:07	-132.531	47.279	0	1795.50	0	2.0830	0	34.5550	0	27.618	0	1772.930	0	37.9	4	11.5	4	-1E+10	1	-1E+10	1	-1E+10	1	-1E+10	1	-1E+10	1	-1E+10	1
4902549	105	C	07/11/2023	05:07	-132.531	47.279	0	1805.40	0	2.0770	0	34.5560	0	27.619	0	1782.664	0	38.5	4	11.6	4	-1E+10	1	-1E+10	1	-1E+10	1	-1E+10	1	-1E+10	1	-1E+10	1
4902549	105	C	07/11/2023	05:07	-132.531	47.279	0	1815.30	0	2.0670	0	34.5580	0	27.622	0	1792.398	0	39.4	4	11.9	4	-1E+10	1	-1E+10	1	-1E+10	1	-1E+10	1	-1E+10	1	-1E+10	1
4902549	105	C	07/11/2023	05:07	-132.531	47.279	0	1825.40	0	2.0560	0	34.5600	0	27.624	0	1802.327	0	40.1	4	12.1	4	-1E+10	1	-1E+10	1	-1E+10	1	-1E+10	1	-1E+10	1	-1E+10	1
4902549	105	C	07/11/2023	05:07	-132.531	47.279	0	1835.70	0	2.0520	0	34.5610	0	27.626	0	1812.453	0	40.7	4	12.3	4	-1E+10	1	-1E+10	1	-1E+10	1	-1E+10	1	-1E+10	1	-1E+10	1
4902549	105	C	07/11/2023	05:07	-132.531	47.279	0	1845.50	0	2.0480	0	34.5620	0	27.627	0	1822.087	0	41.4	4	12.5	4	-1E+10	1	-1E+10	1	-1E+10	1	-1E+10	1	-1E+10	1	-1E+10	1
4902549	105	C	07/11/2023	05:07	-132.531	47.279	0	1855.50	0	2.0390	0	34.5640	0	27.629	0	1831.917	0	42.1	4	12.7	4	-1E+10	1	-1E+10	1	-1E+10	1	-1E+10	1	-1E+10	1	-1E+10	1
4902549	105	C	07/11/2023	05:07	-132.531	47.279	0	1865.70	0	2.0320	0	34.5660	0	27.631	0	1841.943	0	42.8	4	12.9	4	-1E+10	1	-1E+10	1	-1E+10	1	-1E+10	1	-1E+10	1	-1E+10	1
4902549	105	C	07/11/2023	05:07	-132.531	47.279	0	1875.90	0	2.0240	0	34.5680	0	27.634	0	1851.969	0	43.4	4	13.1	4	-1E+10	1	-1E+10	1	-1E+10	1	-1E+10	1	-1E+10	1	-1E+10	1
4902549	105	C	07/11/2023	05:07	-132.531	47.279	0	1885.60	0	2.0180	0	34.5690	0	27.635	0	1861.503	0	44.0	4	13.3	4	-1E+10	1	-1E+10	1	-1E+10	1	-1E+10	1	-1E+10	1	-1E+10	1
4902549	105	C	07/11/2023	05:07	-132.531	47.279	0	1895.60	0	2.0110	0	34.5700	0	27.636	0	1871.331	0	44.5	4	13.4	4	-1E+10	1	-1E+10	1	-1E+10	1	-1E+10	1	-1E+10	1	-1E+10	1
4902549	105	C	07/11/2023	05:07	-132.531	47.279	0	1905.50	0	2.0060	0	34.5710	0	27.638	0	1881.061	0	45.2	4	13.6	4	-1E+10	1	-1E+10	1	-1E+10	1	-1E+10	1	-1E+10	1	-1E+10	1
4902549	105	C	07/11/2023	05:07	-132.531	47.279	0	1915.50	0	1.9970	0	34.5730	0	27.640	0	1890.888	0	46.0	4	13.9	4	-1E+10	1	-1E+10	1	-1E+10	1	-1E+10	1	-1E+10	1	-1E+10	1
4902549	105	C	07/11/2023	05:07	-132.531	47.279	0	1925.50	0	1.9890	0	34.5750	0	27.642	0	1900.715	0	46.6	4	14.1	4	-1E+10	1	-1E+10	1	-1E+10	1	-1E+10	1	-1E+10	1	-1E+10	1
4902549	105	C	07/11/2023	05:07	-132.531	47.279	0	1935.60	0	1.9800	0	34.5760	0	27.644	0	1910.640	0	47.3	4	14.2	4	-1E+10	1	-1E+10	1	-1E+10	1	-1E+10	1	-1E+10	1	-1E+10	1
4902549	105	C	07/11/2023	05:07	-132.531	47.279	0	1945.70	0	1.9730	0	34.5770	0	27.645	0	1920.564	0	47.7	4	14.4	4	-1E+10	1	-1E+10	1	-1E+10	1	-1E+10	1	-1E+10	1	-1E+10	1
4902549	105	C	07/11/2023	05:07	-132.531	47.279	0	1955.40	0	1.9680	0	34.5780	0	27.646	0	1930.095	0	48.0	4	14.5	4	-1E+10	1	-1E+10	1	-1E+10	1	-1E+10	1	-1E+10	1	-1E+10	1
4902549	105	C	07/11/2023	05:07	-132.531	47.279	0	1965.60	0	1.9620	0	34.5800	0	27.649	0	1940.116	0	48.5	4	14.6	4	-1E+10	1	-1E+10	1	-1E+10	1	-1E+10	1	-1E+10	1	-1E+10	1
4902549	105	C	07/11/2023	05:07	-132.531	47.279	0	1973.00	0	1.9570	0	34.5810	0	27.650	0	1947.387	0	48.5	4	14.6	4	-1E+10	1	-1E+10	1	-1E+10	1	-1E+10	1	-1E+10	1	-1E+10	1
4902549	105	C	07/11/2023	05:07	-132.531	47.279	0																										
4902549	106	C	07/21/2023	09:59	-132.484	47.400	0	0.20	0	16.1310	0	32.3290	0	23.665	0	0.198	0	245.7	4	99.5	4	-1E+10	1	-1E+10	1	-1E+10	1	-1E+10	1	-1E+10	1	-1E+10	1
4902549	106	C	07/21/2023	09:59	-132.484	47.400	0	0.90	0	16.1310	0	32.3290	0	23.665	0	0.892	0	245.7	4	99.5	4	-1E+10	1	-1E+10	1	-1E+10	1	-1E+10	1	-1E+10	1	-1E+10	1
4902549	106	C	07/21/2023	09:59	-132.484	47.400	0	2.10	0	16.1340	0	32.3300	0	23.666	0	2.082	0	245.9	4	99.6	4	-1E+10	1	-1E+10	1	-1E+10	1	-1E+10	1	-1E+10	1	-1E+10	1
4902549	106	C	07/21/2023	09:59	-132.484	47.400	0	2.90	0	16.1370	0	32.3270	0	23.663	0	2.876	0	246.0	4	99.6	4	-1E+10	1	-1E+10	1	-1E+10	1	-1E+10	1	-1E+10	1	-1E+10	1
4902549	106	C	07/21/2023	09:59	-132.484	47.400	0	4.10	0	16.1380	0	32.3280	0	23.663	0	4.066	0	246.1	4	99.7	4	-1E+10	1	-1E+10	1	-1E+10	1	-1E+10	1	-1E+10	1	-1E+10	1
4902549	106	C	07/21/2023	09:59	-132.484	47.400	0	5.10	0	16.1370	0	32.3300	0	23.665	0	5.057	0	246.3	4	99.8	4	-1E+10	1	-1E+10	1	-1E+10	1	-1E+10	1	-1E+10	1	-1E+10	1
4902549	106	C	07/21/2023	09:59	-132.484	47.400	0	5.90	0	16.1360	0	32.3310	0	23.666	0	5.851	0	246.5	4	99.8	4	-1E+10	1	-1E+10	1	-1E+10	1	-1E+10	1	-1E+10	1	-1E+10	1
4902549	106	C	07/21/2023	09:59	-132.484	47.400	0	6.80	0	16.1360	0	32.3290	0	23.665	0	6.743	0	246.8	4	100.0	4	-1E+10	1	-1E+10	1	-1E+10	1	-1E+10	1	-1E+10	1	-1E+10	1
4902549	106	C	07/21/2023	09:59	-132.484	47.400	0	7.90	0	16.1340	0	32.3300	0	23.666	0	7.834	0	247.1	4	100.1	4	-1E+10	1	-1E+10	1	-1E+10	1	-1E+10	1	-1E+10	1	-1E+10	1
4902549	106	C	07/21/2023	09:59	-132.484	47.400	0	9.00	0	16.1340	0	32.3300	0	23.666	0	8.925	0	247.7	4	100.3	4	-1E+10	1	-1E+10	1	-1E+10	1	-1E+10	1	-1E+10	1	-1E+10	1
4902549	106	C	07/21/2023	09:59	-132.484	47.400	0	10.00	0	16.1240	0	32.3280	0	23.667	0	9.916	0	248.4	4	100.6	4	-1E+10	1	-1E+10	1	-1E+10	1	-1E+10	1	-1E+10	1	-1E+10	1
4902549	106	C	07/21/2023	09:59	-132.484	47.400	0	11.20	0	16.0860	0	32.3270	0	23.674	0	11.106	0	249.4	4	100.9	4	-1E+10	1	-1E+10	1	-1E+10	1	-1E+10	1	-1E+10	1	-1E+10	1
4902549	106	C	07/21/2023	09:59	-132.484	47.400	0	12.10	0	15.8540	0	32.3330	0	23.731	0	11.999	0	252.5	4	101.7	4	-1E+10	1	-1E+10	1	-1E+10	1	-1E+10	1	-1E+10	1	-1E+10	1
4902549	106	C	07/21/2023	09:59	-132.484	47.400	0	12.90	0	15.4300	0	32.3450	0	23.834	0	12.792	0	257.8	4	103.0	4	-1E+10	1	-1E+10	1	-1E+10	1	-1E+10	1	-1E+10	1	-1E+10	1
4902549	106	C	07/21/2023	09:59	-132.484	47.400	0	14.00	0	14.9520	0	32.3560	0	23.946	0	13.883	0	262.0	4	103.7	4	-1E+10	1	-1E+10	1	-1E+10	1	-1E+10	1	-1E+10	1	-1E+10	1
4902549	106	C	07/21/2023	09:59	-132.484	47.400	0	15.00	0	14.7790	0	32.3550	0	23.982	0	14.874	0	264.1	4	104.2	4	-1E+10	1	-1E+10	1	-1E+10	1	-1E+10	1	-1E+10	1	-1E+10	1
4902549	106	C	07/21/2023	09:59	-132.484	47.400	0	16.00	0	14.1530	0	32.3850	0	24.137	0	15.866	0	267.7	4	104.3	4	-1E+10	1	-1E+10	1	-1E+10	1	-1E+10	1	-1E+10	1	-1E+10	1
4902549	106	C	07/21/2023	09:59	-132.484	47.400	0	16.90	0	14.0750	0	32.3800	0	24.149	0	16.758	0	268.8	4	104.6	4	-1E+10	1	-1E+10	1	-1E+10	1	-1E+10	1	-1E+10	1	-1E+10	1
4902549	106	C	07/21/2023	09:59	-132.484	47.400	0	17.80	0	13.9960	0	32.3770	0	24.163	0	17.651	0	269.9	4	104.8	4	-1E+10	1	-1E+10	1	-1E+10	1	-1E+10	1	-1E+10	1	-1E+10	1
4902549	106	C	07/21/2023	09:59	-132.484	47.400	0	19.00	0	13.9290	0	32.3780	0	24.177	0	18.841	0	270.8	4	105.1	4	-1E+10	1	-1E+10	1	-1E+10	1	-1E+10	1	-1E+10	1	-1E+10	1
4902549	106	C	07/21/2023	09:59	-132.484	47.400	0	20.10	0	13.8670	0	32.3740	0	24.187	0	19.931	0	271.7	4	105.3	4	-1E+10	1	-1E+10	1	-1E+10	1	-1E+10	1	-1E+10	1	-1E+10	1
4902549	106	C	07/21/2023	09:59	-132.484	47.400	0	21.10	0	13.7050	0	32.3730	0	24.219	0	20.923	0	273.6	4	105.7	4	-1E+10	1	-1E+10	1	-1E+10	1	-1E+10	1	-1E+10	1	-1E+10	1
4902549	106	C	07/21/2023	09:59	-132.484	47.400	0	22.10	0	13.1440	0	32.4040	0	24.355	0	21.915	0	278.1	4	106.2	4	-1E+10	1	-1E+10	1	-1E+10	1	-1E+10	1	-1E+10	1	-1E+10	1
4902549	106	C	07/21/2023	09:59	-132.484	47.400	0	23.00	0	12.7690	0	32.3920	0	24.419	0	22.807	0	280.5	4	106.3	4	-1E+10	1	-1E+10	1	-1E+10	1	-1E+10	1	-1E+10	1	-1E+10	1
4902549	106	C	07/21/2023	09:59	-132.484	47.400	0	23.90	0	12.5510	0	32.3800	0	24.452	0	23.699	0	282.6	4	106.6	4	-1E+10	1	-1E+10	1	-1E+10	1	-1E+10	1	-1E+10	1	-1E+10	1
4902549	106	C	07/21/2023	09:59	-132.484	47.400	0	25.10	0	12.3130	0	32.3820	0	24.499	0	24.889	0	285.9	4	107.3	4	-1E+10	1	-1E+10	1	-1E+10	1	-1E+10	1	-1E+10	1	-1E+10	1
4902549	106	C	07/21/2023	09:59	-132.484	47.400	0	26.00	0	11.9140	0	32.3840	0	24.575	0	25.782	0	287.8	4	107.1	4	-1E+10	1	-1E+10	1	-1E+10	1	-1E+10	1	-1E+10	1	-1E+10	1
4902549	106	C	07/21/2023	09:59	-132.484	47.400	0	26.80	0	11.8140	0	32.3810	0	24.591	0	26.575	0	287.6	4	106.8	4	-1E+10	1	-1E+10	1	-1E+10	1	-1E+10	1	-1E+10	1	-1E+10	1
4902549	106	C	07/21/2023	09:59	-132.484	47.400	0	27.90	0	11.6240	0	32.3740	0	24.621	0	27.666	0	287.0	4	106.2	4	-1E+10	1	-1E+10	1	-1E+10	1	-1E+10	1	-1E+10	1	-1E+10	1
4902549	106	C	07/21/2023	09:59	-132.484	47.400	0	29.20	0	11.1540	0	32.3810	0	24.711	0	28.955	0	287.3	4	105.2	4	-1E+10	1	-1E+10	1	-1E+10	1	-1E+10	1	-1E+10	1	-1E+10	1
4902549	106	C	07/21/2023	09:59	-132.484	47.400	0	30.00	0	11.1130	0	32.3770	0	24.715	0	29.748	0	286.0	4	104.7	4	-1E+10	1	-1E+10	1	-1E+10	1	-1E+10	1	-1E+10	1	-1E+10	1
4902549	106	C	07/21/2023	09:59	-132.484	47.400	0	31.10	0	10.9760	0	32.3730	0	24.736	0	30.838	0	283.9	4	103.6	4	-1E+10	1	-1E+10	1	-1E+10	1	-1E+10	1	-1E+10	1	-1E+10	1
4902549	106	C	07/21/2023	09:59	-132.484	47.400	0	32.10	0	10.3630	0	32.4040	0	24.866	0	31.830	0	285.1	4	102.7	4	-1E+10	1	-1E+10	1	-1E+10	1	-1E+10	1	-1E+10	1	-1E+10	1
4902549	106	C	07/21/2023	09:59	-132.484	47.400	0	32.80	0	10.2550	0	32.3830	0	24.868	0	32.524	0	284.6	4	102.3	4	-1E+10	1	-1E+10	1	-1E+10	1	-1E+10	1	-1E+10	1	-1E+10	1
4902549	106	C	07/21/2023	09:59	-132.484	47.400	0	33.80	0	9.9260	0	32.3920	0	24.929	0	33.515	0	283.8	4	101.3	4	-1E+10	1	-1E+10	1	-1E+10	1	-1E+10	1	-1E+10	1	-1E+10	1
4902549	106	C	07/21/2023	09:59	-132.484	47.400	0	34.90	0	9.6260	0	32.4040	0	24.988	0	34.606	0	283.1	4	100.4	4	-1E+10	1	-1E+10	1	-1E+10	1	-1E+10	1	-1E+10	1	-1E+10	1
4902549	106	C	07/21/2023	09:59	-132.484	47.400	0	36.00	0	9.5200	0	32.3920	0	24.995	0	35.697	0	282.4	4	99.9	4	-1E+10	1	-1E+10	1	-1E+10	1	-1E+10	1	-1E+10	1	-1E+10	1
4902549	106	C	07/21/2023	09:59	-132.484	47.400	0	37.10	0	9.4400	0	32.3930	0	25.009	0	36.787	0	280.9	4	99.2	4	-1E+10	1	-1E+10	1	-1E+10	1	-1E+10	1	-1E+10	1	-1E+10	1
4902549	106	C	07/21/2023	09:59	-132.484	47.400	0	38.10	0	9.2090	0	32.3960	0	25.048	0	37.779	0	280.5	4	98.5	4	-1E+10	1	-1E+10	1	-1E+10	1	-1E+10	1	-1E+10	1	-1E+10	1
4902549	106	C	07/21/2023	09:59	-132.484	47.400	0	39.10	0	9.0360	0	32.3970	0	25.076	0	38.770	0	279.6	4	97.9	4	-1E+10	1	-1E+10	1	-1E+10	1	-1E+10	1	-1E+10	1	-1E+10	1
4902549	106	C	07/21/2023	09:59	-132.484	47.400	0	40.00	0	8.9040	0	32.3940	0	25.094	0	39.663	0	278.6	4	97.2	4	-1E+10	1	-1E+10	1	-1E+10	1	-1E+10	1	-1E+10	1	-1E+10	1
4902549	106	C	07/21/2023	09:59	-132.484	47.400	0	40.80	0	8.8570	0	32.4020	0	25.107	0	40.456	0	277.3	4	96.7	4	-1E+10	1	-1E+10	1	-1E+10	1	-1E+10	1	-1E+10	1	-1E+10	1
4902549	106	C	07/21/2023	09:59	-132.484	47.400	0	41.80	0	8.7090	0	32.4080	0	25.135	0	41.447	0	276.4	4	96.0	4	-1E+10	1	-1E+10	1	-1E+10	1	-1E+10	1	-1E+10	1	-1E+10	1
4902549	106	C	07/21/2023	09:59	-132.484	47.400	0	43.10	0	8.5910	0	32.4090	0	25.153	0	42.736	0	275.4	4	95.5	4	-1E+10	1	-1E+10	1	-1E+10	1	-1E+10	1	-1E+10	1	-1E+10	1
4902549	106	C	07/21/2023	09:59	-132.484	47.400	0	44.00	0	8.5320	0	32.4080	0	25.161	0	43.629	0	274.4	4	95.0	4	-1E+10	1	-1E+10	1	-1E+10	1	-1E+10	1	-1E+10	1	-1E+10	1
4902549	106	C	07/21/2023	09:59	-132.484	47.400	0	44.90	0	8.4070	0	32.4060	0	25.178	0	44.521	0	273.8	4	94.5	4	-1E+10	1	-1E+10	1	-1E+10	1	-1E+10	1	-1E+10	1	-1E+10	1
4902549	106	C	07/21/2023	09:59	-132.484	47.400	0	45.80	0	8.3510	0	32.4030	0	25.184	0	45.413	0	272.4	4	93.9	4	-1E+10	1	-1E+10	1	-1E+10	1	-1E+10	1	-1E+10	1	-1E+10	1
4902549	106	C	07/21/2023	09:59	-132.484	47.400	0	47.00	0	8.2680	0	32.4090	0	25.201	0	46.603	0	272.0	4	93.6	4	-1E+10	1	-1E+10	1	-1E+10	1	-1E+10	1	-1E+10	1	-1E+10	1
4902549	106	C	07/21/2023	09:59	-132.484	47.400	0	48.20	0	8.2590	0	32.4090	0	25.203	0	47.793	0	271.2	4	93.3	4	-1E+10	1	-1E+10	1	-1E+10	1	-1E+10	1	-1E+10	1	-1E+10	1
4902549	106	C	07/21/2023	09:59	-132.484	47.400	0	49.00	0	8.2450	0	32.4090	0	25.205	0	48.586	0	270.9	4	93.2	4	-1E+10	1	-1E+10	1	-1E+10	1	-1E+10	1	-1E+10	1	-1E+10	1
4902549	106	C	07/21/2023	09:59	-132.484	47.400	0	50.10	0	8.2180	0	32.4090	0	25.209	0	49.676	0	270.5	4	93.0	4	-1E+10	1	-1E+10	1	-1E+10	1	-1E+10	1	-1E+10	1	-1E+10	1
4902549	106	C	07/21/2023	09:59	-132.484	47.400	0	51.00	0	8.1820	0	32.4080	0	25.213	0	50.569	0	270.4	4	92.9	4	-1E+10	1	-1E+10	1	-1E+10	1	-1E+10	1	-1E+10	1	-1E+10	1
4902549	106	C	07/21/2023	09:59	-132.484	47.400	0	52.00	0	8.1570	0	32.4070	0	25.216	0	51.560	0	270.3	4	92.8	4	-1E+10	1	-1E+10	1	-1E+10	1	-1E+10	1	-1E+10	1	-1E+10	1
4902549	106	C	07/21/2023	09:59	-132.484	47.400	0	53.00	0	8.1420	0	32.4070	0	25.218	0	52.551	0	270.1	4	92.7	4	-1E+10	1	-1E+10	1	-1E+10	1	-1E+10	1	-1E+10	1	-1E+10	1
4902549	106	C	07/21/2023	09:59	-132.484	47.400	0	54.00	0	8.1040	0	32.4080	0	25.225	0	53.543	0	270.3	4	92.6	4	-1E+10	1	-1E+10	1	-1E+10	1	-1E+10	1	-1E+10	1	-1E+10	1
4902549	106	C	07/21/2023	09:59	-132.484	47.400	0	55.00	0	8.0630	0	32.4090	0	25.231	0	54.534	0	270.5	4	92.7	4	-1E+10	1	-1E+10	1	-1E+10	1	-1E+10	1	-1E+10	1	-1E+10	1
4902549	106	C	07/21/2023	09:59	-132.484	47.400	0	56.00	0	8.0410	0	32.4110	0	25.236	0	55.526	0	270.8	4	92.7	4	-1E+10	1	-1E+10	1	-1E+10	1	-1E+10	1	-1E+10	1	-1E+10	1
4902549	106	C	07/21/2023	09:59	-132.484	47.400	0	56.90	0	8.0270	0	32.4090	0	25.237	0	56.418	0	271.1	4	92.8	4	-1E+10	1	-1E+10	1	-1E+10	1	-1E+10	1	-1E+10	1	-1E+10	1
4902549	106	C	07/21/2023	09:59	-132.484	47.400	0	57.90	0	8.0160	0	32.4110	0	25.240	0	57.409	0	271.6	4	92.9	4	-1E+10	1	-1E+10	1	-1E+10	1	-1E+10	1	-1E+10	1	-1E+10	1
4902549	106	C	07/21/2023	09:59	-132.484	47.400	0	58.80	0	8.0000	0	32.4130	0	25.244	0	58.301	0	272.1	4	93.1	4	-1E+10	1	-1E+10	1	-1E+10	1	-1E+10	1	-1E+10	1	-1E+10	1
4902549	106	C	07/21/2023	09:59	-132.484	47.400	0	60.10	0	7.9820	0	32.4160	0	25.249	0	59.590	0	272.9	4	93.3	4	-1E+10	1	-1E+10	1	-1E+10	1	-1E+10	1	-1E+10	1	-1E+10	1
4902549	106	C	07/21/2023	09:59	-132.484	47.400	0	61.20	0	7.9650	0	32.4160	0	25.251	0	60.681	0	273.6	4	93.5	4	-1E+10	1	-1E+10	1	-1E+10	1	-1E+10	1	-1E+10	1	-1E+10	1
4902549	106	C	07/21/2023	09:59	-132.484	47.400	0	61.90	0	7.9110	0	32.4100	0	25.254	0	61.375	0	274.1	4	93.6	4	-1E+10	1	-1E+10	1	-1E+10	1	-1E+10	1	-1E+10	1	-1E+10	1
4902549	106	C	07/21/2023	09:59	-132.484	47.400	0	63.00	0	7.7880	0	32.3990	0	25.263	0	62.465	0	274.6	4	93.5	4	-1E+10	1	-1E+10	1	-1E+10	1	-1E+10	1	-1E+10	1	-1E+10	1
4902549	106	C	07/21/2023	09:59	-132.484	47.400	0	64.20	0	7.6960	0	32.4020	0	25.278	0	63.655	0	274.9	4	93.4	4	-1E+10	1	-1E+10	1	-1E+10	1	-1E+10	1	-1E+10	1	-1E+10	1
4902549	106	C	07/21/2023	09:59	-132.484	47.400	0	64.80	0	7.6400	0	32.3960	0	25.282	0	64.250	0	274.9	4	93.2	4	-1E+10	1	-1E+10	1	-1E+10	1	-1E+10	1	-1E+10	1	-1E+10	1
4902549	106	C	07/21/2023	09:59	-132.484	47.400	0	65.90	0	7.5850	0	32.3910	0	25.285	0	65.340	0	274.5	4	93.0	4	-1E+10	1	-1E+10	1	-1E+10	1	-1E+10	1	-1E+10	1	-1E+10	1
4902549	106	C	07/21/2023	09:59	-132.484	47.400	0	67.00	0	7.5410	0	32.3880	0	25.289	0	66.431	0	273.9	4	92.7	4	-1E+10	1	-1E+10	1	-1E+10	1	-1E+10	1	-1E+10	1	-1E+10	1
4902549	106	C	07/21/2023	09:59	-132.484	47.400	0	68.10	0	7.4860	0	32.3870	0	25.296	0	67.521	0	273.3	4	92.4	4	-1E+10	1	-1E+10	1	-1E+10	1	-1E+10	1	-1E+10	1	-1E+10	1
4902549	106	C	07/21/2023	09:59	-132.484	47.400	0	68.90	0	7.4490	0	32.3850	0	25.300	0	68.314	0	273.1	4	92.3	4	-1E+10	1	-1E+10	1	-1E+10	1	-1E+10	1	-1E+10	1	-1E+10	1
4902549	106	C	07/21/2023	09:59	-132.484	47.400	0	70.20	0	7.4140	0	32.3840	0	25.304	0	69.603	0	272.9	4	92.1	4	-1E+10	1	-1E+10	1	-1E+10	1	-1E+10	1	-1E+10	1	-1E+10	1
4902549	106	C	07/21/2023	09:59	-132.484	47.400	0	70.80	0	7.4010	0	32.3840	0	25.305	0	70.198	0	272.8	4	92.0	4	-1E+10	1	-1E+10	1	-1E+10	1	-1E+10	1	-1E+10	1	-1E+10	1
4902549	106	C	07/21/2023	09:59	-132.484	47.400	0	72.00	0	7.3910	0	32.3840	0	25.307	0	71.387	0	272.5	4	91.9	4	-1E+10	1	-1E+10	1	-1E+10	1	-1E+10	1	-1E+10	1	-1E+10	1
4902549	106	C	07/21/2023	09:59	-132.484	47.400	0	72.70	0	7.3710	0	32.3830	0	25.309	0	72.081	0	272.5	4	91.9	4	-1E+10	1	-1E+10	1	-1E+10	1	-1E+10	1	-1E+10	1	-1E+10	1
4902549	106	C	07/21/2023	09:59	-132.484	47.400	0	73.70	0	7.3550	0	32.3820	0	25.310	0	73.073	0	272.3	4	91.8	4	-1E+10	1	-1E+10	1	-1E+10	1	-1E+10	1	-1E+10	1	-1E+10	1
4902549	106	C	07/21/2023	09:59	-132.484	47.400	0	74.80	0	7.3410	0	32.3810	0	25.311	0	74.163	0	272.0	4	91.7	4	-1E+10	1	-1E+10	1	-1E+10	1	-1E+10	1	-1E+10	1	-1E+10	1
4902549	106	C	07/21/2023	09:59	-132.484	47.400	0	75.90	0	7.3090	0	32.3800	0	25.315	0	75.253	0	272.0	4	91.6	4	-1E+10	1	-1E+10	1	-1E+10	1	-1E+10	1	-1E+10	1	-1E+10	1
4902549	106	C	07/21/2023	09:59	-132.484	47.400	0	77.00	0	7.2820	0	32.3820	0	25.320	0	76.344	0	271.9	4	91.5	4	-1E+10	1	-1E+10	1	-1E+10	1	-1E+10	1	-1E+10	1	-1E+10	1
4902549	106	C	07/21/2023	09:59	-132.484	47.400	0	77.90	0	7.2820	0	32.3860	0	25.323	0	77.236	0	271.7	4	91.4	4	-1E+10	1	-1E+10	1	-1E+10	1	-1E+10	1	-1E+10	1	-1E+10	1
4902549	106	C	07/21/2023	09:59	-132.484	47.400	0	78.80	0	7.2890	0	32.3900	0	25.326	0	78.128	0	271.4	4	91.3	4	-1E+10	1	-1E+10	1	-1E+10	1	-1E+10	1	-1E+10	1	-1E+10	1
4902549	106	C	07/21/2023	09:59	-132.484	47.400	0	80.00	0	7.3220	0	32.4020	0	25.331	0	79.318	0	270.7	4	91.2	4	-1E+10	1	-1E+10	1	-1E+10	1	-1E+10	1	-1E+10	1	-1E+10	1
4902549	106	C	07/21/2023	09:59	-132.484	47.400	0	80.90	0	7.3540	0	32.4120	0	25.334	0	80.210	0	269.9	4	91.0	4	-1E+10	1	-1E+10	1	-1E+10	1	-1E+10	1	-1E+10	1	-1E+10	1
4902549	106	C	07/21/2023	09:59	-132.484	47.400	0	81.80	0	7.3530	0	32.4120	0	25.334	0	81.102	0	269.3	4	90.8	4	-1E+10	1	-1E+10	1	-1E+10	1	-1E+10	1	-1E+10	1	-1E+10	1
4902549	106	C	07/21/2023	09:59	-132.484	47.400	0	83.10	0	7.3540	0	32.4130	0	25.335	0	82.391	0	275.1	4	92.7	4	-1E+10	1	-1E+10	1	-1E+10	1	-1E+10	1	-1E+10	1	-1E+10	1
4902549	106	C	07/21/2023	09:59	-132.484	47.400	0	84.00	0	7.3550	0	32.4160	0	25.337	0	83.283	0	274.6	4	92.6	4	-1E+10	1	-1E+10	1	-1E+10	1	-1E+10	1	-1E+10	1	-1E+10	1
4902549	106	C	07/21/2023	09:59	-132.484	47.400	0	84.90	0	7.3540	0	32.4180	0	25.339	0	84.175	0	273.9	4	92.3	4	-1E+10	1	-1E+10	1	-1E+10	1	-1E+10	1	-1E+10	1	-1E+10	1
4902549	106	C	07/21/2023	09:59	-132.484	47.400	0	85.90	0	7.3510	0	32.4190	0	25.340	0	85.166	0	273.1	4	92.0	4	-1E+10	1	-1E+10	1	-1E+10	1	-1E+10	1	-1E+10	1	-1E+10	1
4902549	106	C	07/21/2023	09:59	-132.484	47.400	0	86.90	0	7.3450	0	32.4220	0	25.343	0	86.157	0	272.4	4	91.8	4	-1E+10	1	-1E+10	1	-1E+10	1	-1E+10	1	-1E+10	1	-1E+10	1
4902549	106	C	07/21/2023	09:59	-132.484	47.400	0	88.10	0	7.3260	0	32.4280	0	25.351	0	87.347	0	271.3	4	91.4	4	-1E+10	1	-1E+10	1	-1E+10	1	-1E+10	1	-1E+10	1	-1E+10	1
4902549	106	C	07/21/2023	09:59	-132.484	47.400	0	89.10	0	7.3170	0	32.4320	0	25.355	0	88.338	0	270.5	4	91.1	4	-1E+10	1	-1E+10	1	-1E+10	1	-1E+10	1	-1E+10	1	-1E+10	1
4902549	106	C	07/21/2023	09:59	-132.484	47.400	0	90.00	0	7.3030	0	32.4310	0	25.356	0	89.230	0	269.7	4	90.8	4	-1E+10	1	-1E+10	1	-1E+10	1	-1E+10	1	-1E+10	1	-1E+10	1
4902549	106	C	07/21/2023	09:59	-132.484	47.400	0	90.90	0	7.2930	0	32.4320	0	25.358	0	90.122	0	268.7	4	90.5	4	-1E+10	1	-1E+10	1	-1E+10	1	-1E+10	1	-1E+10	1	-1E+10	1
4902549	106	C	07/21/2023	09:59	-132.484	47.400	0	91.80	0	7.2760	0	32.4360	0	25.364	0	91.014	0	267.8	4	90.1	4	-1E+10	1	-1E+10	1	-1E+10	1	-1E+10	1	-1E+10	1	-1E+10	1
4902549	106	C	07/21/2023	09:59	-132.484	47.400	0	93.10	0	7.2350	0	32.4440	0	25.376	0	92.303	0	266.5	4	89.6	4	-1E+10	1	-1E+10	1	-1E+10	1	-1E+10	1	-1E+10	1	-1E+10	1
4902549	106	C	07/21/2023	09:59	-132.484	47.400	0	94.00	0	7.2100	0	32.4610	0	25.392	0	93.195	0	265.7	4	89.3	4	-1E+10	1	-1E+10	1	-1E+10	1	-1E+10	1	-1E+10	1	-1E+10	1
4902549	106	C	07/21/2023	09:59	-132.484	47.400	0	94.90	0	7.2140	0	32.4640	0	25.394	0	94.087	0	264.2	4	88.8	4	-1E+10	1	-1E+10	1	-1E+10	1	-1E+10	1	-1E+10	1	-1E+10	1
4902549	106	C	07/21/2023	09:59	-132.484	47.400	0	96.00	0	7.2130	0	32.4800	0	25.407	0	95.178	0	262.6	4	88.3	4	-1E+10	1	-1E+10	1	-1E+10	1	-1E+10	1	-1E+10	1	-1E+10	1
4902549	106	C	07/21/2023	09:59	-132.484	47.400	0	96.90	0	7.1730	0	32.5040	0	25.431	0	96.070	0	261.4	4	87.8	4	-1E+10	1	-1E+10	1	-1E+10	1	-1E+10	1	-1E+10	1	-1E+10	1
4902549	106	C	07/21/2023	09:59	-132.484	47.400	0	98.00	0	7.1640	0	32.5190	0	25.444	0	97.160	0	259.7	4	87.2	4	-1E+10	1	-1E+10	1	-1E+10	1	-1E+10	1	-1E+10	1	-1E+10	1
4902549	106	C	07/21/2023	09:59	-132.484	47.400	0	99.00	0	7.1640	0	32.5210	0	25.446	0	98.151	0	257.4	4	86.5	4	-1E+10	1	-1E+10	1	-1E+10	1	-1E+10	1	-1E+10	1	-1E+10	1
4902549	106	C	07/21/2023	09:59	-132.484	47.400	0	100.10	0	7.1580	0	32.5250	0	25.450	0	99.241	0	254.4	4	85.4	4	-1E+10	1	-1E+10	1	-1E+10	1	-1E+10	1	-1E+10	1	-1E+10	1
4902549	106	C	07/21/2023	09:59	-132.484	47.400	0	101.00	0	7.1180	0	32.5370	0	25.465	0	100.133	0	251.9	4	84.5	4	-1E+10	1	-1E+10	1	-1E+10	1	-1E+10	1	-1E+10	1	-1E+10	1
4902549	106	C	07/21/2023	09:59	-132.484	47.400	0	102.00	0	7.0460	0	32.5630	0	25.495	0	101.125	0	249.5	4	83.6	4	-1E+10	1	-1E+10	1	-1E+10	1	-1E+10	1	-1E+10	1	-1E+10	1
4902549	106	C	07/21/2023	09:59	-132.484	47.400	0	103.00	0	6.9870	0	32.5910	0	25.525	0	102.116	0	247.2	4	82.7	4	-1E+10	1	-1E+10	1	-1E+10	1	-1E+10	1	-1E+10	1	-1E+10	1
4902549	106	C	07/21/2023	09:59	-132.484	47.400	0	103.90	0	6.9200	0	32.6550	0	25.584	0	103.008	0	245.6	4	82.1	4	-1E+10	1	-1E+10	1	-1E+10	1	-1E+10	1	-1E+10	1	-1E+10	1
4902549	106	C	07/21/2023	09:59	-132.484	47.400	0	104.90	0	6.8760	0	32.6970	0	25.623	0	103.999	0	243.9	4	81.5	4	-1E+10	1	-1E+10	1	-1E+10	1	-1E+10	1	-1E+10	1	-1E+10	1
4902549	106	C	07/21/2023	09:59	-132.484	47.400	0	106.00	0	6.8500	0	32.7220	0	25.646	0	105.089	0	242.2	4	80.9	4	-1E+10	1	-1E+10	1	-1E+10	1	-1E+10	1	-1E+10	1	-1E+10	1
4902549	106	C	07/21/2023	09:59	-132.484	47.400	0	107.00	0	6.8440	0	32.7770	0	25.690	0	106.080	0	240.3	4	80.3	4	-1E+10	1	-1E+10	1	-1E+10	1	-1E+10	1	-1E+10	1	-1E+10	1
4902549	106	C	07/21/2023	09:59	-132.484	47.400	0	108.10	0	6.7990	0	32.8200	0	25.730	0	107.171	0	238.9	4	79.8	4	-1E+10	1	-1E+10	1	-1E+10	1	-1E+10	1	-1E+10	1	-1E+10	1
4902549	106	C	07/21/2023	09:59	-132.484	47.400	0	109.10	0	6.7310	0	32.8380	0	25.753	0	108.162	0	237.7	4	79.2	4	-1E+10	1	-1E+10	1	-1E+10	1	-1E+10	1	-1E+10	1	-1E+10	1
4902549	106	C	07/21/2023	09:59	-132.484	47.400	0	110.00	0	6.6890	0	32.8620	0	25.778	0	109.054	0	236.6	4	78.8	4	-1E+10	1	-1E+10	1	-1E+10	1	-1E+10	1	-1E+10	1	-1E+10	1
4902549	106	C	07/21/2023	09:59	-132.484	47.400	0	110.80	0	6.6530	0	32.8980	0	25.811	0	109.847	0	235.4	4	78.4	4	-1E+10	1	-1E+10	1	-1E+10	1	-1E+10	1	-1E+10	1	-1E+10	1
4902549	106	C	07/21/2023	09:59	-132.484	47.400	0	111.90	0	6.6310	0	32.9210	0	25.832	0	110.937	0	233.8	4	77.8	4	-1E+10	1	-1E+10	1	-1E+10	1	-1E+10	1	-1E+10	1	-1E+10	1
4902549	106	C	07/21/2023	09:59	-132.484	47.400	0	112.90	0	6.6130	0	32.9500	0	25.857	0	111.928	0	232.5	4	77.4	4	-1E+10	1	-1E+10	1	-1E+10	1	-1E+10	1	-1E+10	1	-1E+10	1
4902549	106	C	07/21/2023	09:59	-132.484	47.400	0	113.80	0	6.5660	0	33.0130	0	25.913	0	112.820	0	231.6	4	77.0	4	-1E+10	1	-1E+10	1	-1E+10	1	-1E+10	1	-1E+10	1	-1E+10	1
4902549	106	C	07/21/2023	09:59	-132.484	47.400	0	115.10	0	6.4890	0	33.0600	0	25.960	0	114.109	0	230.7	4	76.6	4	-1E+10	1	-1E+10	1	-1E+10	1	-1E+10	1	-1E+10	1	-1E+10	1
4902549	106	C	07/21/2023	09:59	-132.484	47.400	0	116.10	0	6.4700	0	33.0800	0	25.978	0	115.100	0	229.8	4	76.3	4	-1E+10	1	-1E+10	1	-1E+10	1	-1E+10	1	-1E+10	1	-1E+10	1
4902549	106	C	07/21/2023	09:59	-132.484	47.400	0	117.10	0	6.4390	0	33.1100	0	26.005	0	116.091	0	229.2	4	76.0	4	-1E+10	1	-1E+10	1	-1E+10	1	-1E+10	1	-1E+10	1	-1E+10	1
4902549	106	C	07/21/2023	09:59	-132.484	47.400	0	118.10	0	6.3970	0	33.1390	0	26.034	0	117.082	0	228.5	4	75.8	4	-1E+10	1	-1E+10	1	-1E+10	1	-1E+10	1	-1E+10	1	-1E+10	1
4902549	106	C	07/21/2023	09:59	-132.484	47.400	0	118.80	0	6.3800	0	33.1480	0	26.043	0	117.776	0	228.1	4	75.6	4	-1E+10	1	-1E+10	1	-1E+10	1	-1E+10	1	-1E+10	1	-1E+10	1
4902549	106	C	07/21/2023	09:59	-132.484	47.400	0	119.90	0	6.3700	0	33.1520	0	26.047	0	118.866	0	227.2	4	75.3	4	-1E+10	1	-1E+10	1	-1E+10	1	-1E+10	1	-1E+10	1	-1E+10	1
4902549	106	C	07/21/2023	09:59	-132.484	47.400	0	121.10	0	6.3420	0	33.1720	0	26.067	0	120.055	0	226.5	4	75.0	4	-1E+10	1	-1E+10	1	-1E+10	1	-1E+10	1	-1E+10	1	-1E+10	1
4902549	106	C	07/21/2023	09:59	-132.484	47.400	0	121.80	0	6.3200	0	33.2010	0	26.093	0	120.749	0	226.1	4	74.9	4	-1E+10	1	-1E+10	1	-1E+10	1	-1E+10	1	-1E+10	1	-1E+10	1
4902549	106	C	07/21/2023	09:59	-132.484	47.400	0	122.90	0	6.3340	0	33.2120	0	26.099	0	121.839	0	225.1	4	74.6	4	-1E+10	1	-1E+10	1	-1E+10	1	-1E+10	1	-1E+10	1	-1E+10	1
4902549	106	C	07/21/2023	09:59	-132.484	47.400	0	124.00	0	6.3220	0	33.2300	0	26.115	0	122.929	0	224.2	4	74.3	4	-1E+10	1	-1E+10	1	-1E+10	1	-1E+10	1	-1E+10	1	-1E+10	1
4902549	106	C	07/21/2023	09:59	-132.484	47.400	0	124.80	0	6.3090	0	33.2420	0	26.126	0	123.722	0	223.9	4	74.1	4	-1E+10	1	-1E+10	1	-1E+10	1	-1E+10	1	-1E+10	1	-1E+10	1
4902549	106	C	07/21/2023	09:59	-132.484	47.400	0	126.00	0	6.3050	0	33.2580	0	26.139	0	124.911	0	223.0	4	73.9	4	-1E+10	1	-1E+10	1	-1E+10	1	-1E+10	1	-1E+10	1	-1E+10	1
4902549	106	C	07/21/2023	09:59	-132.484	47.400	0	127.20	0	6.2790	0	33.2850	0	26.164	0	126.101	0	222.4	4	73.6	4	-1E+10	1	-1E+10	1	-1E+10	1	-1E+10	1	-1E+10	1	-1E+10	1
4902549	106	C	07/21/2023	09:59	-132.484	47.400	0	128.00	0	6.2710	0	33.2990	0	26.176	0	126.894	0	221.9	4	73.4	4	-1E+10	1	-1E+10	1	-1E+10	1	-1E+10	1	-1E+10	1	-1E+10	1
4902549	106	C	07/21/2023	09:59	-132.484	47.400	0	128.80	0	6.2680	0	33.3050	0	26.181	0	127.686	0	221.5	4	73.3	4	-1E+10	1	-1E+10	1	-1E+10	1	-1E+10	1	-1E+10	1	-1E+10	1
4902549	106	C	07/21/2023	09:59	-132.484	47.400	0	130.00	0	6.2580	0	33.3170	0	26.192	0	128.876	0	220.8	4	73.1	4	-1E+10	1	-1E+10	1	-1E+10	1	-1E+10	1	-1E+10	1	-1E+10	1
4902549	106	C	07/21/2023	09:59	-132.484	47.400	0	131.20	0	6.2530	0	33.3240	0	26.198	0	130.065	0	219.9	4	72.8	4	-1E+10	1	-1E+10	1	-1E+10	1	-1E+10	1	-1E+10	1	-1E+10	1
4902549	106	C	07/21/2023	09:59	-132.484	47.400	0	132.00	0	6.2490	0	33.3290	0	26.203	0	130.858	0	219.3	4	72.6	4	-1E+10	1	-1E+10	1	-1E+10	1	-1E+10	1	-1E+10	1	-1E+10	1
4902549	106	C	07/21/2023	09:59	-132.484	47.400	0	132.80	0	6.2460	0	33.3330	0	26.206	0	131.651	0	218.6	4	72.3	4	-1E+10	1	-1E+10	1	-1E+10	1	-1E+10	1	-1E+10	1	-1E+10	1
4902549	106	C	07/21/2023	09:59	-132.484	47.400	0	134.00	0	6.2290	0	33.3460	0	26.219	0	132.840	0	217.6	4	72.0	4	-1E+10	1	-1E+10	1	-1E+10	1	-1E+10	1	-1E+10	1	-1E+10	1
4902549	106	C	07/21/2023	09:59	-132.484	47.400	0	135.20	0	6.2100	0	33.3560	0	26.229	0	134.029	0	216.7	4	71.6	4	-1E+10	1	-1E+10	1	-1E+10	1	-1E+10	1	-1E+10	1	-1E+10	1
4902549	106	C	07/21/2023	09:59	-132.484	47.400	0	136.00	0	6.2100	0	33.3590	0	26.231	0	134.822	0	215.8	4	71.4	4	-1E+10	1	-1E+10	1	-1E+10	1	-1E+10	1	-1E+10	1	-1E+10	1
4902549	106	C	07/21/2023	09:59	-132.484	47.400	0	136.80	0	6.2020	0	33.3820	0	26.251	0	135.615	0	215.0	4	71.1	4	-1E+10	1	-1E+10	1	-1E+10	1	-1E+10	1	-1E+10	1	-1E+10	1
4902549	106	C	07/21/2023	09:59	-132.484	47.400	0	137.70	0	6.1850	0	33.3910	0	26.260	0	136.506	0	214.4	4	70.9	4	-1E+10	1	-1E+10	1	-1E+10	1	-1E+10	1	-1E+10	1	-1E+10	1
4902549	106	C	07/21/2023	09:59	-132.484	47.400	0	138.90	0	6.1820	0	33.4110	0	26.276	0	137.696	0	213.3	4	70.5	4	-1E+10	1	-1E+10	1	-1E+10	1	-1E+10	1	-1E+10	1	-1E+10	1
4902549	106	C	07/21/2023	09:59	-132.484	47.400	0	140.30	0	6.1650	0	33.4200	0	26.285	0	139.083	0	212.3	4	70.1	4	-1E+10	1	-1E+10	1	-1E+10	1	-1E+10	1	-1E+10	1	-1E+10	1
4902549	106	C	07/21/2023	09:59	-132.484	47.400	0	141.20	0	6.1570	0	33.4310	0	26.295	0	139.975	0	211.5	4	69.9	4	-1E+10	1	-1E+10	1	-1E+10	1	-1E+10	1	-1E+10	1	-1E+10	1
4902549	106	C	07/21/2023	09:59	-132.484	47.400	0	142.10	0	6.1560	0	33.4460	0	26.307	0	140.867	0	210.8	4	69.6	4	-1E+10	1	-1E+10	1	-1E+10	1	-1E+10	1	-1E+10	1	-1E+10	1
4902549	106	C	07/21/2023	09:59	-132.484	47.400	0	143.00	0	6.1530	0	33.4600	0	26.318	0	141.759	0	209.9	4	69.4	4	-1E+10	1	-1E+10	1	-1E+10	1	-1E+10	1	-1E+10	1	-1E+10	1
4902549	106	C	07/21/2023	09:59	-132.484	47.400	0	144.00	0	6.1550	0	33.4690	0	26.325	0	142.750	0	209.3	4	69.2	4	-1E+10	1	-1E+10	1	-1E+10	1	-1E+10	1	-1E+10	1	-1E+10	1
4902549	106	C	07/21/2023	09:59	-132.484	47.400	0	145.00	0	6.1570	0	33.4760	0	26.330	0	143.741	0	208.4	4	68.9	4	-1E+10	1	-1E+10	1	-1E+10	1	-1E+10	1	-1E+10	1	-1E+10	1
4902549	106	C	07/21/2023	09:59	-132.484	47.400	0	145.90	0	6.1540	0	33.4810	0	26.335	0	144.633	0	207.7	4	68.7	4	-1E+10	1	-1E+10	1	-1E+10	1	-1E+10	1	-1E+10	1	-1E+10	1
4902549	106	C	07/21/2023	09:59	-132.484	47.400	0	146.90	0	6.1540	0	33.4890	0	26.341	0	145.623	0	206.9	4	68.4	4	-1E+10	1	-1E+10	1	-1E+10	1	-1E+10	1	-1E+10	1	-1E+10	1
4902549	106	C	07/21/2023	09:59	-132.484	47.400	0	148.00	0	6.1670	0	33.4990	0	26.347	0	146.714	0	205.9	4	68.1	4	-1E+10	1	-1E+10	1	-1E+10	1	-1E+10	1	-1E+10	1	-1E+10	1
4902549	106	C	07/21/2023	09:59	-132.484	47.400	0	149.00	0	6.1540	0	33.5100	0	26.358	0	147.704	0	205.1	4	67.8	4	-1E+10	1	-1E+10	1	-1E+10	1	-1E+10	1	-1E+10	1	-1E+10	1
4902549	106	C	07/21/2023	09:59	-132.484	47.400	0	150.00	0	6.1610	0	33.5280	0	26.371	0	148.695	0	204.1	4	67.5	4	-1E+10	1	-1E+10	1	-1E+10	1	-1E+10	1	-1E+10	1	-1E+10	1
4902549	106	C	07/21/2023	09:59	-132.484	47.400	0	151.10	0	6.1570	0	33.5350	0	26.377	0	149.785	0	203.3	4	67.2	4	-1E+10	1	-1E+10	1	-1E+10	1	-1E+10	1	-1E+10	1	-1E+10	1
4902549	106	C	07/21/2023	09:59	-132.484	47.400	0	152.10	0	6.1560	0	33.5500	0	26.389	0	150.776	0	202.5	4	67.0	4	-1E+10	1	-1E+10	1	-1E+10	1	-1E+10	1	-1E+10	1	-1E+10	1
4902549	106	C	07/21/2023	09:59	-132.484	47.400	0	153.20	0	6.1560	0	33.5510	0	26.390	0	151.866	0	201.8	4	66.7	4	-1E+10	1	-1E+10	1	-1E+10	1	-1E+10	1	-1E+10	1	-1E+10	1
4902549	106	C	07/21/2023	09:59	-132.484	47.400	0	154.30	0	6.1540	0	33.5540	0	26.393	0	152.956	0	200.9	4	66.4	4	-1E+10	1	-1E+10	1	-1E+10	1	-1E+10	1	-1E+10	1	-1E+10	1
4902549	106	C	07/21/2023	09:59	-132.484	47.400	0	155.40	0	6.1530	0	33.5570	0	26.395	0	154.046	0	200.0	4	66.1	4	-1E+10	1	-1E+10	1	-1E+10	1	-1E+10	1	-1E+10	1	-1E+10	1
4902549	106	C	07/21/2023	09:59	-132.484	47.400	0	156.40	0	6.1540	0	33.5580	0	26.396	0	155.037	0	198.8	4	65.7	4	-1E+10	1	-1E+10	1	-1E+10	1	-1E+10	1	-1E+10	1	-1E+10	1
4902549	106	C	07/21/2023	09:59	-132.484	47.400	0	157.50	0	6.1560	0	33.5640	0	26.400	0	156.127	0	197.7	4	65.4	4	-1E+10	1	-1E+10	1	-1E+10	1	-1E+10	1	-1E+10	1	-1E+10	1
4902549	106	C	07/21/2023	09:59	-132.484	47.400	0	158.70	0	6.1660	0	33.5730	0	26.406	0	157.316	0	196.5	4	65.0	4	-1E+10	1	-1E+10	1	-1E+10	1	-1E+10	1	-1E+10	1	-1E+10	1
4902549	106	C	07/21/2023	09:59	-132.484	47.400	0	159.80	0	6.1710	0	33.5790	0	26.410	0	158.406	0	195.4	4	64.6	4	-1E+10	1	-1E+10	1	-1E+10	1	-1E+10	1	-1E+10	1	-1E+10	1
4902549	106	C	07/21/2023	09:59	-132.484	47.400	0	160.90	0	6.1770	0	33.5870	0	26.416	0	159.496	0	194.3	4	64.3	4	-1E+10	1	-1E+10	1	-1E+10	1	-1E+10	1	-1E+10	1	-1E+10	1
4902549	106	C	07/21/2023	09:59	-132.484	47.400	0	162.00	0	6.1820	0	33.5930	0	26.420	0	160.586	0	193.4	4	64.0	4	-1E+10	1	-1E+10	1	-1E+10	1	-1E+10	1	-1E+10	1	-1E+10	1
4902549	106	C	07/21/2023	09:59	-132.484	47.400	0	163.20	0	6.1750	0	33.6070	0	26.432	0	161.775	0	192.5	4	63.7	4	-1E+10	1	-1E+10	1	-1E+10	1	-1E+10	1	-1E+10	1	-1E+10	1
4902549	106	C	07/21/2023	09:59	-132.484	47.400	0	164.40	0	6.1490	0	33.6110	0	26.438	0	162.965	0	191.6	4	63.4	4	-1E+10	1	-1E+10	1	-1E+10	1	-1E+10	1	-1E+10	1	-1E+10	1
4902549	106	C	07/21/2023	09:59	-132.484	47.400	0	165.50	0	6.1460	0	33.6200	0	26.446	0	164.054	0	190.7	4	63.1	4	-1E+10	1	-1E+10	1	-1E+10	1	-1E+10	1	-1E+10	1	-1E+10	1
4902549	106	C	07/21/2023	09:59	-132.484	47.400	0	166.70	0	6.1420	0	33.6260	0	26.451	0	165.244	0	189.8	4	62.8	4	-1E+10	1	-1E+10	1	-1E+10	1	-1E+10	1	-1E+10	1	-1E+10	1
4902549	106	C	07/21/2023	09:59	-132.484	47.400	0	167.90	0	6.1220	0	33.6310	0	26.458	0	166.433	0	189.0	4	62.5	4	-1E+10	1	-1E+10	1	-1E+10	1	-1E+10	1	-1E+10	1	-1E+10	1
4902549	106	C	07/21/2023	09:59	-132.484	47.400	0	169.00	0	6.1180	0	33.6310	0	26.458	0	167.522	0	188.1	4	62.2	4	-1E+10	1	-1E+10	1	-1E+10	1	-1E+10	1	-1E+10	1	-1E+10	1
4902549	106	C	07/21/2023	09:59	-132.484	47.400	0	170.10	0	6.1160	0	33.6330	0	26.460	0	168.612	0	187.1	4	61.8	4	-1E+10	1	-1E+10	1	-1E+10	1	-1E+10	1	-1E+10	1	-1E+10	1
4902549	106	C	07/21/2023	09:59	-132.484	47.400	0	171.30	0	6.1080	0	33.6410	0	26.467	0	169.801	0	186.0	4	61.5	4	-1E+10	1	-1E+10	1	-1E+10	1	-1E+10	1	-1E+10	1	-1E+10	1
4902549	106	C	07/21/2023	09:59	-132.484	47.400	0	172.40	0	6.1010	0	33.6460	0	26.472	0	170.891	0	185.0	4	61.1	4	-1E+10	1	-1E+10	1	-1E+10	1	-1E+10	1	-1E+10	1	-1E+10	1
4902549	106	C	07/21/2023	09:59	-132.484	47.400	0	173.60	0	6.1010	0	33.6500	0	26.475	0	172.080	0	183.9	4	60.8	4	-1E+10	1	-1E+10	1	-1E+10	1	-1E+10	1	-1E+10	1	-1E+10	1
4902549	106	C	07/21/2023	09:59	-132.484	47.400	0	174.70	0	6.0900	0	33.6610	0	26.485	0	173.170	0	182.8	4	60.4	4	-1E+10	1	-1E+10	1	-1E+10	1	-1E+10	1	-1E+10	1	-1E+10	1
4902549	106	C	07/21/2023	09:59	-132.484	47.400	0	175.80	0	6.0660	0	33.6640	0	26.491	0	174.260	0	181.9	4	60.1	4	-1E+10	1	-1E+10	1	-1E+10	1	-1E+10	1	-1E+10	1	-1E+10	1
4902549	106	C	07/21/2023	09:59	-132.484	47.400	0	176.90	0	6.0480	0	33.6670	0	26.495	0	175.350	0	181.1	4	59.8	4	-1E+10	1	-1E+10	1	-1E+10	1	-1E+10	1	-1E+10	1	-1E+10	1
4902549	106	C	07/21/2023	09:59	-132.484	47.400	0	178.00	0	6.0260	0	33.6660	0	26.497	0	176.440	0	180.2	4	59.5	4	-1E+10	1	-1E+10	1	-1E+10	1	-1E+10	1	-1E+10	1	-1E+10	1
4902549	106	C	07/21/2023	09:59	-132.484	47.400	0	179.10	0	6.0070	0	33.6690	0	26.502	0	177.530	0	179.1	4	59.1	4	-1E+10	1	-1E+10	1	-1E+10	1	-1E+10	1	-1E+10	1	-1E+10	1
4902549	106	C	07/21/2023	09:59	-132.484	47.400	0	180.20	0	5.9540	0	33.6710	0	26.510	0	178.620	0	178.0	4	58.6	4	-1E+10	1	-1E+10	1	-1E+10	1	-1E+10	1	-1E+10	1	-1E+10	1
4902549	106	C	07/21/2023	09:59	-132.484	47.400	0	181.30	0	5.9530	0	33.6760	0	26.514	0	179.710	0	176.5	4	58.2	4	-1E+10	1	-1E+10	1	-1E+10	1	-1E+10	1	-1E+10	1	-1E+10	1
4902549	106	C	07/21/2023	09:59	-132.484	47.400	0	182.30	0	5.9390	0	33.6830	0	26.522	0	180.700	0	175.5	4	57.8	4	-1E+10	1	-1E+10	1	-1E+10	1	-1E+10	1	-1E+10	1	-1E+10	1
4902549	106	C	07/21/2023	09:59	-132.484	47.400	0	183.30	0	5.9280	0	33.6860	0	26.525	0	181.691	0	174.4	4	57.4	4	-1E+10	1	-1E+10	1	-1E+10	1	-1E+10	1	-1E+10	1	-1E+10	1
4902549	106	C	07/21/2023	09:59	-132.484	47.400	0	184.90	0	5.9290	0	33.6890	0	26.528	0	183.276	0	172.6	4	56.8	4	-1E+10	1	-1E+10	1	-1E+10	1	-1E+10	1	-1E+10	1	-1E+10	1
4902549	106	C	07/21/2023	09:59	-132.484	47.400	0	186.20	0	5.9310	0	33.6930	0	26.531	0	184.564	0	171.2	4	56.4	4	-1E+10	1	-1E+10	1	-1E+10	1	-1E+10	1	-1E+10	1	-1E+10	1
4902549	106	C	07/21/2023	09:59	-132.484	47.400	0	187.00	0	5.9360	0	33.6940	0	26.531	0	185.357	0	170.0	4	56.0	4	-1E+10	1	-1E+10	1	-1E+10	1	-1E+10	1	-1E+10	1	-1E+10	1
4902549	106	C	07/21/2023	09:59	-132.484	47.400	0	187.80	0	5.9310	0	33.6950	0	26.532	0	186.150	0	168.9	4	55.6	4	-1E+10	1	-1E+10	1	-1E+10	1	-1E+10	1	-1E+10	1	-1E+10	1
4902549	106	C	07/21/2023	09:59	-132.484	47.400	0	188.60	0	5.9140	0	33.7040	0	26.541	0	186.942	0	168.0	4	55.3	4	-1E+10	1	-1E+10	1	-1E+10	1	-1E+10	1	-1E+10	1	-1E+10	1
4902549	106	C	07/21/2023	09:59	-132.484	47.400	0	189.80	0	5.9070	0	33.7050	0	26.543	0	188.131	0	166.6	4	54.8	4	-1E+10	1	-1E+10	1	-1E+10	1	-1E+10	1	-1E+10	1	-1E+10	1
4902549	106	C	07/21/2023	09:59	-132.484	47.400	0	191.10	0	5.9030	0	33.7040	0	26.543	0	189.419	0	165.0	4	54.3	4	-1E+10	1	-1E+10	1	-1E+10	1	-1E+10	1	-1E+10	1	-1E+10	1
4902549	106	C	07/21/2023	09:59	-132.484	47.400	0	191.90	0	5.8970	0	33.7060	0	26.545	0	190.212	0	163.8	4	53.9	4	-1E+10	1	-1E+10	1	-1E+10	1	-1E+10	1	-1E+10	1	-1E+10	1
4902549	106	C	07/21/2023	09:59	-132.484	47.400	0	192.70	0	5.8790	0	33.7070	0	26.548	0	191.004	0	162.5	4	53.5	4	-1E+10	1	-1E+10	1	-1E+10	1	-1E+10	1	-1E+10	1	-1E+10	1
4902549	106	C	07/21/2023	09:59	-132.484	47.400	0	193.90	0	5.8550	0	33.7140	0	26.557	0	192.193	0	160.8	4	52.9	4	-1E+10	1	-1E+10	1	-1E+10	1	-1E+10	1	-1E+10	1	-1E+10	1
4902549	106	C	07/21/2023	09:59	-132.484	47.400	0	195.10	0	5.8350	0	33.7160	0	26.561	0	193.382	0	159.1	4	52.3	4	-1E+10	1	-1E+10	1	-1E+10	1	-1E+10	1	-1E+10	1	-1E+10	1
4902549	106	C	07/21/2023	09:59	-132.484	47.400	0	195.90	0	5.8260	0	33.7190	0	26.564	0	194.175	0	157.8	4	51.9	4	-1E+10	1	-1E+10	1	-1E+10	1	-1E+10	1	-1E+10	1	-1E+10	1
4902549	106	C	07/21/2023	09:59	-132.484	47.400	0	196.70	0	5.8090	0	33.7210	0	26.568	0	194.967	0	156.8	4	51.5	4	-1E+10	1	-1E+10	1	-1E+10	1	-1E+10	1	-1E+10	1	-1E+10	1
4902549	106	C	07/21/2023	09:59	-132.484	47.400	0	197.90	0	5.8120	0	33.7280	0	26.573	0	196.156	0	155.3	4	51.0	4	-1E+10	1	-1E+10	1	-1E+10	1	-1E+10	1	-1E+10	1	-1E+10	1
4902549	106	C	07/21/2023	09:59	-132.484	47.400	0	199.20	0	5.7980	0	33.7310	0	26.577	0	197.444	0	153.9	4	50.5	4	-1E+10	1	-1E+10	1	-1E+10	1	-1E+10	1	-1E+10	1	-1E+10	1
4902549	106	C	07/21/2023	09:59	-132.484	47.400	0	200.00	0	5.7930	0	33.7330	0	26.579	0	198.237	0	153.0	4	50.2	4	-1E+10	1	-1E+10	1	-1E+10	1	-1E+10	1	-1E+10	1	-1E+10	1
4902549	106	C	07/21/2023	09:59	-132.484	47.400	0	200.80	0	5.7810	0	33.7340	0	26.582	0	199.029	0	152.1	4	49.9	4	-1E+10	1	-1E+10	1	-1E+10	1	-1E+10	1	-1E+10	1	-1E+10	1
4902549	106	C	07/21/2023	09:59	-132.484	47.400	0	201.60	0	5.7700	0	33.7330	0	26.582	0	199.822	0	151.1	4	49.6	4	-1E+10	1	-1E+10	1	-1E+10	1	-1E+10	1	-1E+10	1	-1E+10	1
4902549	106	C	07/21/2023	09:59	-132.484	47.400	0	202.90	0	5.7450	0	33.7350	0	26.587	0	201.110	0	149.3	4	49.0	4	-1E+10	1	-1E+10	1	-1E+10	1	-1E+10	1	-1E+10	1	-1E+10	1
4902549	106	C	07/21/2023	09:59	-132.484	47.400	0	204.10	0	5.7150	0	33.7340	0	26.590	0	202.298	0	147.4	4	48.3	4	-1E+10	1	-1E+10	1	-1E+10	1	-1E+10	1	-1E+10	1	-1E+10	1
4902549	106	C	07/21/2023	09:59	-132.484	47.400	0	205.00	0	5.6980	0	33.7330	0	26.591	0	203.190	0	146.0	4	47.8	4	-1E+10	1	-1E+10	1	-1E+10	1	-1E+10	1	-1E+10	1	-1E+10	1
4902549	106	C	07/21/2023	09:59	-132.484	47.400	0	205.80	0	5.6880	0	33.7390	0	26.597	0	203.983	0	144.7	4	47.4	4	-1E+10	1	-1E+10	1	-1E+10	1	-1E+10	1	-1E+10	1	-1E+10	1
4902549	106	C	07/21/2023	09:59	-132.484	47.400	0	207.00	0	5.7000	0	33.7460	0	26.601	0	205.171	0	142.9	4	46.8	4	-1E+10	1	-1E+10	1	-1E+10	1	-1E+10	1	-1E+10	1	-1E+10	1
4902549	106	C	07/21/2023	09:59	-132.484	47.400	0	208.30	0	5.7050	0	33.7500	0	26.604	0	206.459	0	141.1	4	46.2	4	-1E+10	1	-1E+10	1	-1E+10	1	-1E+10	1	-1E+10	1	-1E+10	1
4902549	106	C	07/21/2023	09:59	-132.484	47.400	0	209.10	0	5.6870	0	33.7500	0	26.606	0	207.252	0	139.9	4	45.8	4	-1E+10	1	-1E+10	1	-1E+10	1	-1E+10	1	-1E+10	1	-1E+10	1
4902549	106	C	07/21/2023	09:59	-132.484	47.400	0	210.00	0	5.7080	0	33.7420	0	26.597	0	208.143	0	138.7	4	45.5	4	-1E+10	1	-1E+10	1	-1E+10	1	-1E+10	1	-1E+10	1	-1E+10	1
4902549	106	C	07/21/2023	09:59	-132.484	47.400	0	210.90	0	5.6960	0	33.7650	0	26.617	0	209.035	0	137.6	4	45.1	4	-1E+10	1	-1E+10	1	-1E+10	1	-1E+10	1	-1E+10	1	-1E+10	1
4902549	106	C	07/21/2023	09:59	-132.484	47.400	0	211.80	0	5.6860	0	33.7600	0	26.614	0	209.927	0	136.7	4	44.8	4	-1E+10	1	-1E+10	1	-1E+10	1	-1E+10	1	-1E+10	1	-1E+10	1
4902549	106	C	07/21/2023	09:59	-132.484	47.400	0	212.60	0	5.6780	0	33.7600	0	26.615	0	210.719	0	135.6	4	44.4	4	-1E+10	1	-1E+10	1	-1E+10	1	-1E+10	1	-1E+10	1	-1E+10	1
4902549	106	C	07/21/2023	09:59	-132.484	47.400	0	213.90	0	5.6410	0	33.7610	0	26.620	0	212.007	0	134.1	4	43.9	4	-1E+10	1	-1E+10	1	-1E+10	1	-1E+10	1	-1E+10	1	-1E+10	1
4902549	106	C	07/21/2023	09:59	-132.484	47.400	0	215.30	0	5.5580	0	33.7630	0	26.632	0	213.394	0	132.8	4	43.4	4	-1E+10	1	-1E+10	1	-1E+10	1	-1E+10	1	-1E+10	1	-1E+10	1
4902549	106	C	07/21/2023	09:59	-132.484	47.400	0	216.30	0	5.5370	0	33.7610	0	26.633	0	214.384	0	131.8	4	43.0	4	-1E+10	1	-1E+10	1	-1E+10	1	-1E+10	1	-1E+10	1	-1E+10	1
4902549	106	C	07/21/2023	09:59	-132.484	47.400	0	217.20	0	5.5180	0	33.7620	0	26.636	0	215.276	0	130.7	4	42.7	4	-1E+10	1	-1E+10	1	-1E+10	1	-1E+10	1	-1E+10	1	-1E+10	1
4902549	106	C	07/21/2023	09:59	-132.484	47.400	0	218.10	0	5.4840	0	33.7610	0	26.639	0	216.168	0	129.6	4	42.3	4	-1E+10	1	-1E+10	1	-1E+10	1	-1E+10	1	-1E+10	1	-1E+10	1
4902549	106	C	07/21/2023	09:59	-132.484	47.400	0	219.00	0	5.4870	0	33.7590	0	26.637	0	217.059	0	128.3	4	41.8	4	-1E+10	1	-1E+10	1	-1E+10	1	-1E+10	1	-1E+10	1	-1E+10	1
4902549	106	C	07/21/2023	09:59	-132.484	47.400	0	219.90	0	5.4980	0	33.7670	0	26.642	0	217.951	0	127.0	4	41.4	4	-1E+10	1	-1E+10	1	-1E+10	1	-1E+10	1	-1E+10	1	-1E+10	1
4902549	106	C	07/21/2023	09:59	-132.484	47.400	0	220.90	0	5.5040	0	33.7690	0	26.643	0	218.941	0	125.8	4	41.0	4	-1E+10	1	-1E+10	1	-1E+10	1	-1E+10	1	-1E+10	1	-1E+10	1
4902549	106	C	07/21/2023	09:59	-132.484	47.400	0	221.80	0	5.5220	0	33.7740	0	26.645	0	219.833	0	124.6	4	40.7	4	-1E+10	1	-1E+10	1	-1E+10	1	-1E+10	1	-1E+10	1	-1E+10	1
4902549	106	C	07/21/2023	09:59	-132.484	47.400	0	222.80	0	5.5390	0	33.7790	0	26.647	0	220.823	0	123.4	4	40.3	4	-1E+10	1	-1E+10	1	-1E+10	1	-1E+10	1	-1E+10	1	-1E+10	1
4902549	106	C	07/21/2023	09:59	-132.484	47.400	0	223.70	0	5.5310	0	33.7840	0	26.652	0	221.715	0	122.5	4	40.0	4	-1E+10	1	-1E+10	1	-1E+10	1	-1E+10	1	-1E+10	1	-1E+10	1
4902549	106	C	07/21/2023	09:59	-132.484	47.400	0	224.70	0	5.5420	0	33.7880	0	26.653	0	222.706	0	121.8	4	39.8	4	-1E+10	1	-1E+10	1	-1E+10	1	-1E+10	1	-1E+10	1	-1E+10	1
4902549	106	C	07/21/2023	09:59	-132.484	47.400	0	225.60	0	5.5150	0	33.7860	0	26.655	0	223.597	0	121.2	4	39.6	4	-1E+10	1	-1E+10	1	-1E+10	1	-1E+10	1	-1E+10	1	-1E+10	1
4902549	106	C	07/21/2023	09:59	-132.484	47.400	0	226.60	0	5.5220	0	33.7850	0	26.653	0	224.588	0	120.4	4	39.3	4	-1E+10	1	-1E+10	1	-1E+10	1	-1E+10	1	-1E+10	1	-1E+10	1
4902549	106	C	07/21/2023	09:59	-132.484	47.400	0	227.50	0	5.4870	0	33.7900	0	26.662	0	225.479	0	119.5	4	39.0	4	-1E+10	1	-1E+10	1	-1E+10	1	-1E+10	1	-1E+10	1	-1E+10	1
4902549	106	C	07/21/2023	09:59	-132.484	47.400	0	228.50	0	5.4980	0	33.7790	0	26.652	0	226.470	0	118.5	4	38.7	4	-1E+10	1	-1E+10	1	-1E+10	1	-1E+10	1	-1E+10	1	-1E+10	1
4902549	106	C	07/21/2023	09:59	-132.484	47.400	0	229.90	0	5.4920	0	33.7910	0	26.662	0	227.857	0	117.0	4	38.2	4	-1E+10	1	-1E+10	1	-1E+10	1	-1E+10	1	-1E+10	1	-1E+10	1
4902549	106	C	07/21/2023	09:59	-132.484	47.400	0	231.40	0	5.4800	0	33.7940	0	26.666	0	229.342	0	115.8	4	37.8	4	-1E+10	1	-1E+10	1	-1E+10	1	-1E+10	1	-1E+10	1	-1E+10	1
4902549	106	C	07/21/2023	09:59	-132.484	47.400	0	232.40	0	5.4480	0	33.7970	0	26.672	0	230.333	0	115.3	4	37.6	4	-1E+10	1	-1E+10	1	-1E+10	1	-1E+10	1	-1E+10	1	-1E+10	1
4902549	106	C	07/21/2023	09:59	-132.484	47.400	0	233.40	0	5.4410	0	33.7980	0	26.673	0	231.323	0	114.7	4	37.4	4	-1E+10	1	-1E+10	1	-1E+10	1	-1E+10	1	-1E+10	1	-1E+10	1
4902549	106	C	07/21/2023	09:59	-132.484	47.400	0	234.30	0	5.4340	0	33.7980	0	26.674	0	232.215	0	114.0	4	37.1	4	-1E+10	1	-1E+10	1	-1E+10	1	-1E+10	1	-1E+10	1	-1E+10	1
4902549	106	C	07/21/2023	09:59	-132.484	47.400	0	235.30	0	5.4260	0	33.7980	0	26.675	0	233.205	0	113.2	4	36.9	4	-1E+10	1	-1E+10	1	-1E+10	1	-1E+10	1	-1E+10	1	-1E+10	1
4902549	106	C	07/21/2023	09:59	-132.484	47.400	0	236.30	0	5.4150	0	33.7980	0	26.677	0	234.196	0	112.5	4	36.6	4	-1E+10	1	-1E+10	1	-1E+10	1	-1E+10	1	-1E+10	1	-1E+10	1
4902549	106	C	07/21/2023	09:59	-132.484	47.400	0	237.30	0	5.3740	0	33.7990	0	26.682	0	235.187	0	111.7	4	36.3	4	-1E+10	1	-1E+10	1	-1E+10	1	-1E+10	1	-1E+10	1	-1E+10	1
4902549	106	C	07/21/2023	09:59	-132.484	47.400	0	238.30	0	5.3740	0	33.8000	0	26.683	0	236.177	0	110.9	4	36.1	4	-1E+10	1	-1E+10	1	-1E+10	1	-1E+10	1	-1E+10	1	-1E+10	1
4902549	106	C	07/21/2023	09:59	-132.484	47.400	0	239.30	0	5.3750	0	33.8040	0	26.686	0	237.168	0	110.2	4	35.9	4	-1E+10	1	-1E+10	1	-1E+10	1	-1E+10	1	-1E+10	1	-1E+10	1
4902549	106	C	07/21/2023	09:59	-132.484	47.400	0	240.30	0	5.3480	0	33.8030	0	26.688	0	238.158	0	109.6	4	35.6	4	-1E+10	1	-1E+10	1	-1E+10	1	-1E+10	1	-1E+10	1	-1E+10	1
4902549	106	C	07/21/2023	09:59	-132.484	47.400	0	241.30	0	5.3230	0	33.7990	0	26.688	0	239.149	0	108.9	4	35.4	4	-1E+10	1	-1E+10	1	-1E+10	1	-1E+10	1	-1E+10	1	-1E+10	1
4902549	106	C	07/21/2023	09:59	-132.484	47.400	0	242.30	0	5.3420	0	33.8050	0	26.691	0	240.139	0	108.1	4	35.1	4	-1E+10	1	-1E+10	1	-1E+10	1	-1E+10	1	-1E+10	1	-1E+10	1
4902549	106	C	07/21/2023	09:59	-132.484	47.400	0	243.30	0	5.3380	0	33.8040	0	26.690	0	241.130	0	107.4	4	34.9	4	-1E+10	1	-1E+10	1	-1E+10	1	-1E+10	1	-1E+10	1	-1E+10	1
4902549	106	C	07/21/2023	09:59	-132.484	47.400	0	244.30	0	5.3190	0	33.8090	0	26.697	0	242.120	0	106.6	4	34.6	4	-1E+10	1	-1E+10	1	-1E+10	1	-1E+10	1	-1E+10	1	-1E+10	1
4902549	106	C	07/21/2023	09:59	-132.484	47.400	0	245.30	0	5.3030	0	33.8080	0	26.698	0	243.111	0	106.0	4	34.4	4	-1E+10	1	-1E+10	1	-1E+10	1	-1E+10	1	-1E+10	1	-1E+10	1
4902549	106	C	07/21/2023	09:59	-132.484	47.400	0	246.40	0	5.2990	0	33.8080	0	26.698	0	244.200	0	105.5	4	34.2	4	-1E+10	1	-1E+10	1	-1E+10	1	-1E+10	1	-1E+10	1	-1E+10	1
4902549	106	C	07/21/2023	09:59	-132.484	47.400	0	247.40	0	5.2930	0	33.8110	0	26.701	0	245.191	0	104.9	4	34.1	4	-1E+10	1	-1E+10	1	-1E+10	1	-1E+10	1	-1E+10	1	-1E+10	1
4902549	106	C	07/21/2023	09:59	-132.484	47.400	0	248.40	0	5.2630	0	33.8110	0	26.705	0	246.181	0	104.4	4	33.9	4	-1E+10	1	-1E+10	1	-1E+10	1	-1E+10	1	-1E+10	1	-1E+10	1
4902549	106	C	07/21/2023	09:59	-132.484	47.400	0	249.40	0	5.2460	0	33.8160	0	26.711	0	247.172	0	104.1	4	33.8	4	-1E+10	1	-1E+10	1	-1E+10	1	-1E+10	1	-1E+10	1	-1E+10	1
4902549	106	C	07/21/2023	09:59	-132.484	47.400	0	250.50	0	5.2340	0	33.8130	0	26.710	0	248.261	0	103.8	4	33.7	4	-1E+10	1	-1E+10	1	-1E+10	1	-1E+10	1	-1E+10	1	-1E+10	1
4902549	106	C	07/21/2023	09:59	-132.484	47.400	0	251.50	0	5.2320	0	33.8130	0	26.710	0	249.252	0	103.4	4	33.5	4	-1E+10	1	-1E+10	1	-1E+10	1	-1E+10	1	-1E+10	1	-1E+10	1
4902549	106	C	07/21/2023	09:59	-132.484	47.400	0	252.50	0	5.2280	0	33.8130	0	26.710	0	250.242	0	102.9	4	33.4	4	-1E+10	1	-1E+10	1	-1E+10	1	-1E+10	1	-1E+10	1	-1E+10	1
4902549	106	C	07/21/2023	09:59	-132.484	47.400	0	253.60	0	5.2290	0	33.8120	0	26.710	0	251.331	0	102.4	4	33.2	4	-1E+10	1	-1E+10	1	-1E+10	1	-1E+10	1	-1E+10	1	-1E+10	1
4902549	106	C	07/21/2023	09:59	-132.484	47.400	0	254.60	0	5.2220	0	33.8150	0	26.713	0	252.322	0	101.9	4	33.0	4	-1E+10	1	-1E+10	1	-1E+10	1	-1E+10	1	-1E+10	1	-1E+10	1
4902549	106	C	07/21/2023	09:59	-132.484	47.400	0	255.70	0	5.2150	0	33.8150	0	26.714	0	253.411	0	101.3	4	32.8	4	-1E+10	1	-1E+10	1	-1E+10	1	-1E+10	1	-1E+10	1	-1E+10	1
4902549	106	C	07/21/2023	09:59	-132.484	47.400	0	256.70	0	5.2140	0	33.8150	0	26.714	0	254.402	0	100.7	4	32.6	4	-1E+10	1	-1E+10	1	-1E+10	1	-1E+10	1	-1E+10	1	-1E+10	1
4902549	106	C	07/21/2023	09:59	-132.484	47.400	0	257.70	0	5.2160	0	33.8160	0	26.714	0	255.392	0	100.1	4	32.4	4	-1E+10	1	-1E+10	1	-1E+10	1	-1E+10	1	-1E+10	1	-1E+10	1
4902549	106	C	07/21/2023	09:59	-132.484	47.400	0	258.70	0	5.2200	0	33.8170	0	26.715	0	256.383	0	99.5	4	32.2	4	-1E+10	1	-1E+10	1	-1E+10	1	-1E+10	1	-1E+10	1	-1E+10	1
4902549	106	C	07/21/2023	09:59	-132.484	47.400	0	259.80	0	5.2110	0	33.8190	0	26.717	0	257.472	0	98.9	4	32.0	4	-1E+10	1	-1E+10	1	-1E+10	1	-1E+10	1	-1E+10	1	-1E+10	1
4902549	106	C	07/21/2023	09:59	-132.484	47.400	0	260.80	0	5.1910	0	33.8200	0	26.720	0	258.463	0	98.4	4	31.9	4	-1E+10	1	-1E+10	1	-1E+10	1	-1E+10	1	-1E+10	1	-1E+10	1
4902549	106	C	07/21/2023	09:59	-132.484	47.400	0	261.90	0	5.1880	0	33.8200	0	26.721	0	259.552	0	97.9	4	31.7	4	-1E+10	1	-1E+10	1	-1E+10	1	-1E+10	1	-1E+10	1	-1E+10	1
4902549	106	C	07/21/2023	09:59	-132.484	47.400	0	262.90	0	5.1770	0	33.8230	0	26.724	0	260.542	0	97.5	4	31.6	4	-1E+10	1	-1E+10	1	-1E+10	1	-1E+10	1	-1E+10	1	-1E+10	1
4902549	106	C	07/21/2023	09:59	-132.484	47.400	0	264.00	0	5.1680	0	33.8230	0	26.725	0	261.632	0	97.1	4	31.4	4	-1E+10	1	-1E+10	1	-1E+10	1	-1E+10	1	-1E+10	1	-1E+10	1
4902549	106	C	07/21/2023	09:59	-132.484	47.400	0	265.00	0	5.1600	0	33.8240	0	26.727	0	262.622	0	96.7	4	31.3	4	-1E+10	1	-1E+10	1	-1E+10	1	-1E+10	1	-1E+10	1	-1E+10	1
4902549	106	C	07/21/2023	09:59	-132.484	47.400	0	266.00	0	5.1580	0	33.8240	0	26.727	0	263.613	0	96.2	4	31.1	4	-1E+10	1	-1E+10	1	-1E+10	1	-1E+10	1	-1E+10	1	-1E+10	1
4902549	106	C	07/21/2023	09:59	-132.484	47.400	0	267.10	0	5.1530	0	33.8250	0	26.729	0	264.702	0	95.7	4	31.0	4	-1E+10	1	-1E+10	1	-1E+10	1	-1E+10	1	-1E+10	1	-1E+10	1
4902549	106	C	07/21/2023	09:59	-132.484	47.400	0	268.10	0	5.1450	0	33.8260	0	26.730	0	265.692	0	95.2	4	30.8	4	-1E+10	1	-1E+10	1	-1E+10	1	-1E+10	1	-1E+10	1	-1E+10	1
4902549	106	C	07/21/2023	09:59	-132.484	47.400	0	269.10	0	5.1320	0	33.8270	0	26.733	0	266.683	0	94.9	4	30.7	4	-1E+10	1	-1E+10	1	-1E+10	1	-1E+10	1	-1E+10	1	-1E+10	1
4902549	106	C	07/21/2023	09:59	-132.484	47.400	0	270.10	0	5.1130	0	33.8270	0	26.735	0	267.673	0	94.5	4	30.5	4	-1E+10	1	-1E+10	1	-1E+10	1	-1E+10	1	-1E+10	1	-1E+10	1
4902549	106	C	07/21/2023	09:59	-132.484	47.400	0	271.10	0	5.1050	0	33.8290	0	26.737	0	268.664	0	94.0	4	30.4	4	-1E+10	1	-1E+10	1	-1E+10	1	-1E+10	1	-1E+10	1	-1E+10	1
4902549	106	C	07/21/2023	09:59	-132.484	47.400	0	272.20	0	5.0960	0	33.8280	0	26.738	0	269.753	0	93.7	4	30.3	4	-1E+10	1	-1E+10	1	-1E+10	1	-1E+10	1	-1E+10	1	-1E+10	1
4902549	106	C	07/21/2023	09:59	-132.484	47.400	0	273.20	0	5.0860	0	33.8280	0	26.739	0	270.743	0	93.3	4	30.1	4	-1E+10	1	-1E+10	1	-1E+10	1	-1E+10	1	-1E+10	1	-1E+10	1
4902549	106	C	07/21/2023	09:59	-132.484	47.400	0	274.20	0	5.0720	0	33.8310	0	26.743	0	271.734	0	92.9	4	30.0	4	-1E+10	1	-1E+10	1	-1E+10	1	-1E+10	1	-1E+10	1	-1E+10	1
4902549	106	C	07/21/2023	09:59	-132.484	47.400	0	275.20	0	5.0630	0	33.8300	0	26.743	0	272.724	0	92.6	4	29.9	4	-1E+10	1	-1E+10	1	-1E+10	1	-1E+10	1	-1E+10	1	-1E+10	1
4902549	106	C	07/21/2023	09:59	-132.484	47.400	0	276.30	0	5.0690	0	33.8310	0	26.743	0	273.813	0	92.2	4	29.8	4	-1E+10	1	-1E+10	1	-1E+10	1	-1E+10	1	-1E+10	1	-1E+10	1
4902549	106	C	07/21/2023	09:59	-132.484	47.400	0	277.30	0	5.0480	0	33.8310	0	26.746	0	274.804	0	92.0	4	29.7	4	-1E+10	1	-1E+10	1	-1E+10	1	-1E+10	1	-1E+10	1	-1E+10	1
4902549	106	C	07/21/2023	09:59	-132.484	47.400	0	278.40	0	5.0410	0	33.8320	0	26.747	0	275.893	0	91.6	4	29.6	4	-1E+10	1	-1E+10	1	-1E+10	1	-1E+10	1	-1E+10	1	-1E+10	1
4902549	106	C	07/21/2023	09:59	-132.484	47.400	0	279.40	0	5.0390	0	33.8340	0	26.749	0	276.883	0	91.4	4	29.5	4	-1E+10	1	-1E+10	1	-1E+10	1	-1E+10	1	-1E+10	1	-1E+10	1
4902549	106	C	07/21/2023	09:59	-132.484	47.400	0	280.40	0	5.0320	0	33.8340	0	26.750	0	277.874	0	91.2	4	29.4	4	-1E+10	1	-1E+10	1	-1E+10	1	-1E+10	1	-1E+10	1	-1E+10	1
4902549	106	C	07/21/2023	09:59	-132.484	47.400	0	281.50	0	5.0270	0	33.8350	0	26.751	0	278.963	0	90.9	4	29.3	4	-1E+10	1	-1E+10	1	-1E+10	1	-1E+10	1	-1E+10	1	-1E+10	1
4902549	106	C	07/21/2023	09:59	-132.484	47.400	0	282.50	0	5.0270	0	33.8350	0	26.751	0	279.953	0	90.7	4	29.3	4	-1E+10	1	-1E+10	1	-1E+10	1	-1E+10	1	-1E+10	1	-1E+10	1
4902549	106	C	07/21/2023	09:59	-132.484	47.400	0	283.50	0	5.0260	0	33.8350	0	26.751	0	280.944	0	90.5	4	29.2	4	-1E+10	1	-1E+10	1	-1E+10	1	-1E+10	1	-1E+10	1	-1E+10	1
4902549	106	C	07/21/2023	09:59	-132.484	47.400	0	284.60	0	5.0260	0	33.8340	0	26.751	0	282.033	0	90.2	4	29.1	4	-1E+10	1	-1E+10	1	-1E+10	1	-1E+10	1	-1E+10	1	-1E+10	1
4902549	106	C	07/21/2023	09:59	-132.484	47.400	0	285.60	0	5.0210	0	33.8360	0	26.753	0	283.023	0	90.0	4	29.0	4	-1E+10	1	-1E+10	1	-1E+10	1	-1E+10	1	-1E+10	1	-1E+10	1
4902549	106	C	07/21/2023	09:59	-132.484	47.400	0	286.70	0	5.0090	0	33.8320	0	26.751	0	284.113	0	89.8	4	29.0	4	-1E+10	1	-1E+10	1	-1E+10	1	-1E+10	1	-1E+10	1	-1E+10	1
4902549	106	C	07/21/2023	09:59	-132.484	47.400	0	287.70	0	4.9680	0	33.8510	0	26.771	0	285.103	0	89.5	4	28.9	4	-1E+10	1	-1E+10	1	-1E+10	1	-1E+10	1	-1E+10	1	-1E+10	1
4902549	106	C	07/21/2023	09:59	-132.484	47.400	0	288.70	0	4.9460	0	33.8320	0	26.758	0	286.093	0	89.3	4	28.8	4	-1E+10	1	-1E+10	1	-1E+10	1	-1E+10	1	-1E+10	1	-1E+10	1
4902549	106	C	07/21/2023	09:59	-132.484	47.400	0	289.70	0	4.9210	0	33.8280	0	26.758	0	287.084	0	88.9	4	28.6	4	-1E+10	1	-1E+10	1	-1E+10	1	-1E+10	1	-1E+10	1	-1E+10	1
4902549	106	C	07/21/2023	09:59	-132.484	47.400	0	290.80	0	4.9010	0	33.8280	0	26.760	0	288.173	0	88.4	4	28.5	4	-1E+10	1	-1E+10	1	-1E+10	1	-1E+10	1	-1E+10	1	-1E+10	1
4902549	106	C	07/21/2023	09:59	-132.484	47.400	0	291.80	0	4.9020	0	33.8310	0	26.762	0	289.163	0	88.0	4	28.3	4	-1E+10	1	-1E+10	1	-1E+10	1	-1E+10	1	-1E+10	1	-1E+10	1
4902549	106	C	07/21/2023	09:59	-132.484	47.400	0	292.90	0	4.8980	0	33.8310	0	26.763	0	290.252	0	87.7	4	28.2	4	-1E+10	1	-1E+10	1	-1E+10	1	-1E+10	1	-1E+10	1	-1E+10	1
4902549	106	C	07/21/2023	09:59	-132.484	47.400	0	293.90	0	4.8980	0	33.8320	0	26.763	0	291.243	0	87.3	4	28.1	4	-1E+10	1	-1E+10	1	-1E+10	1	-1E+10	1	-1E+10	1	-1E+10	1
4902549	106	C	07/21/2023	09:59	-132.484	47.400	0	294.90	0	4.8870	0	33.8340	0	26.766	0	292.233	0	87.0	4	28.0	4	-1E+10	1	-1E+10	1	-1E+10	1	-1E+10	1	-1E+10	1	-1E+10	1
4902549	106	C	07/21/2023	09:59	-132.484	47.400	0	296.00	0	4.8670	0	33.8320	0	26.767	0	293.322	0	86.8	4	27.9	4	-1E+10	1	-1E+10	1	-1E+10	1	-1E+10	1	-1E+10	1	-1E+10	1
4902549	106	C	07/21/2023	09:59	-132.484	47.400	0	297.00	0	4.8410	0	33.8320	0	26.770	0	294.312	0	86.5	4	27.8	4	-1E+10	1	-1E+10	1	-1E+10	1	-1E+10	1	-1E+10	1	-1E+10	1
4902549	106	C	07/21/2023	09:59	-132.484	47.400	0	298.00	0	4.8170	0	33.8340	0	26.774	0	295.303	0	86.1	4	27.6	4	-1E+10	1	-1E+10	1	-1E+10	1	-1E+10	1	-1E+10	1	-1E+10	1
4902549	106	C	07/21/2023	09:59	-132.484	47.400	0	299.00	0	4.8020	0	33.8280	0	26.771	0	296.293	0	85.6	4	27.5	4	-1E+10	1	-1E+10	1	-1E+10	1	-1E+10	1	-1E+10	1	-1E+10	1
4902549	106	C	07/21/2023	09:59	-132.484	47.400	0	300.00	0	4.8060	0	33.8290	0	26.771	0	297.283	0	85.1	4	27.3	4	-1E+10	1	-1E+10	1	-1E+10	1	-1E+10	1	-1E+10	1	-1E+10	1
4902549	106	C	07/21/2023	09:59	-132.484	47.400	0	301.00	0	4.8230	0	33.8350	0	26.774	0	298.273	0	84.6	4	27.2	4	-1E+10	1	-1E+10	1	-1E+10	1	-1E+10	1	-1E+10	1	-1E+10	1
4902549	106	C	07/21/2023	09:59	-132.484	47.400	0	302.00	0	4.8250	0	33.8350	0	26.774	0	299.264	0	84.1	4	27.0	4	-1E+10	1	-1E+10	1	-1E+10	1	-1E+10	1	-1E+10	1	-1E+10	1
4902549	106	C	07/21/2023	09:59	-132.484	47.400	0	303.00	0	4.8270	0	33.8340	0	26.773	0	300.254	0	83.6	4	26.8	4	-1E+10	1	-1E+10	1	-1E+10	1	-1E+10	1	-1E+10	1	-1E+10	1
4902549	106	C	07/21/2023	09:59	-132.484	47.400	0	304.00	0	4.8290	0	33.8370	0	26.775	0	301.244	0	83.0	4	26.6	4	-1E+10	1	-1E+10	1	-1E+10	1	-1E+10	1	-1E+10	1	-1E+10	1
4902549	106	C	07/21/2023	09:59	-132.484	47.400	0	305.00	0	4.8520	0	33.8360	0	26.772	0	302.234	0	82.4	4	26.5	4	-1E+10	1	-1E+10	1	-1E+10	1	-1E+10	1	-1E+10	1	-1E+10	1
4902549	106	C	07/21/2023	09:59	-132.484	47.400	0	306.00	0	4.9090	0	33.8520	0	26.778	0	303.224	0	81.9	4	26.3	4	-1E+10	1	-1E+10	1	-1E+10	1	-1E+10	1	-1E+10	1	-1E+10	1
4902549	106	C	07/21/2023	09:59	-132.484	47.400	0	307.00	0	4.9120	0	33.8530	0	26.779	0	304.215	0	81.4	4	26.2	4	-1E+10	1	-1E+10	1	-1E+10	1	-1E+10	1	-1E+10	1	-1E+10	1
4902549	106	C	07/21/2023	09:59	-132.484	47.400	0	308.00	0	4.9080	0	33.8530	0	26.779	0	305.205	0	81.1	4	26.1	4	-1E+10	1	-1E+10	1	-1E+10	1	-1E+10	1	-1E+10	1	-1E+10	1
4902549	106	C	07/21/2023	09:59	-132.484	47.400	0	309.00	0	4.9050	0	33.8550	0	26.781	0	306.195	0	80.7	4	26.0	4	-1E+10	1	-1E+10	1	-1E+10	1	-1E+10	1	-1E+10	1	-1E+10	1
4902549	106	C	07/21/2023	09:59	-132.484	47.400	0	310.00	0	4.9020	0	33.8550	0	26.781	0	307.185	0	80.3	4	25.8	4	-1E+10	1	-1E+10	1	-1E+10	1	-1E+10	1	-1E+10	1	-1E+10	1
4902549	106	C	07/21/2023	09:59	-132.484	47.400	0	311.00	0	4.8890	0	33.8570	0	26.784	0	308.175	0	79.9	4	25.7	4	-1E+10	1	-1E+10	1	-1E+10	1	-1E+10	1	-1E+10	1	-1E+10	1
4902549	106	C	07/21/2023	09:59	-132.484	47.400	0	312.00	0	4.8930	0	33.8590	0	26.786	0	309.165	0	79.6	4	25.6	4	-1E+10	1	-1E+10	1	-1E+10	1	-1E+10	1	-1E+10	1	-1E+10	1
4902549	106	C	07/21/2023	09:59	-132.484	47.400	0	313.00	0	4.8920	0	33.8590	0	26.786	0	310.156	0	79.3	4	25.5	4	-1E+10	1	-1E+10	1	-1E+10	1	-1E+10	1	-1E+10	1	-1E+10	1
4902549	106	C	07/21/2023	09:59	-132.484	47.400	0	314.00	0	4.8890	0	33.8590	0	26.786	0	311.146	0	78.9	4	25.4	4	-1E+10	1	-1E+10	1	-1E+10	1	-1E+10	1	-1E+10	1	-1E+10	1
4902549	106	C	07/21/2023	09:59	-132.484	47.400	0	315.10	0	4.8800	0	33.8630	0	26.790	0	312.235	0	78.5	4	25.3	4	-1E+10	1	-1E+10	1	-1E+10	1	-1E+10	1	-1E+10	1	-1E+10	1
4902549	106	C	07/21/2023	09:59	-132.484	47.400	0	316.10	0	4.8730	0	33.8620	0	26.790	0	313.225	0	78.3	4	25.2	4	-1E+10	1	-1E+10	1	-1E+10	1	-1E+10	1	-1E+10	1	-1E+10	1
4902549	106	C	07/21/2023	09:59	-132.484	47.400	0	317.10	0	4.8700	0	33.8630	0	26.791	0	314.215	0	78.0	4	25.1	4	-1E+10	1	-1E+10	1	-1E+10	1	-1E+10	1	-1E+10	1	-1E+10	1
4902549	106	C	07/21/2023	09:59	-132.484	47.400	0	318.10	0	4.8670	0	33.8650	0	26.793	0	315.205	0	77.8	4	25.0	4	-1E+10	1	-1E+10	1	-1E+10	1	-1E+10	1	-1E+10	1	-1E+10	1
4902549	106	C	07/21/2023	09:59	-132.484	47.400	0	319.10	0	4.8650	0	33.8650	0	26.794	0	316.196	0	77.5	4	24.9	4	-1E+10	1	-1E+10	1	-1E+10	1	-1E+10	1	-1E+10	1	-1E+10	1
4902549	106	C	07/21/2023	09:59	-132.484	47.400	0	320.10	0	4.8640	0	33.8660	0	26.794	0	317.186	0	77.2	4	24.8	4	-1E+10	1	-1E+10	1	-1E+10	1	-1E+10	1	-1E+10	1	-1E+10	1
4902549	106	C	07/21/2023	09:59	-132.484	47.400	0	321.10	0	4.8630	0	33.8660	0	26.795	0	318.176	0	77.0	4	24.7	4	-1E+10	1	-1E+10	1	-1E+10	1	-1E+10	1	-1E+10	1	-1E+10	1
4902549	106	C	07/21/2023	09:59	-132.484	47.400	0	322.20	0	4.8620	0	33.8660	0	26.795	0	319.265	0	76.6	4	24.6	4	-1E+10	1	-1E+10	1	-1E+10	1	-1E+10	1	-1E+10	1	-1E+10	1
4902549	106	C	07/21/2023	09:59	-132.484	47.400	0	323.10	0	4.8620	0	33.8670	0	26.795	0	320.156	0	76.2	4	24.5	4	-1E+10	1	-1E+10	1	-1E+10	1	-1E+10	1	-1E+10	1	-1E+10	1
4902549	106	C	07/21/2023	09:59	-132.484	47.400	0	324.20	0	4.8600	0	33.8670	0	26.796	0	321.245	0	75.8	4	24.4	4	-1E+10	1	-1E+10	1	-1E+10	1	-1E+10	1	-1E+10	1	-1E+10	1
4902549	106	C	07/21/2023	09:59	-132.484	47.400	0	325.10	0	4.8560	0	33.8680	0	26.797	0	322.136	0	75.4	4	24.2	4	-1E+10	1	-1E+10	1	-1E+10	1	-1E+10	1	-1E+10	1	-1E+10	1
4902549	106	C	07/21/2023	09:59	-132.484	47.400	0	326.10	0	4.8490	0	33.8700	0	26.799	0	323.126	0	75.1	4	24.1	4	-1E+10	1	-1E+10	1	-1E+10	1	-1E+10	1	-1E+10	1	-1E+10	1
4902549	106	C	07/21/2023	09:59	-132.484	47.400	0	327.10	0	4.8460	0	33.8700	0	26.800	0	324.116	0	74.7	4	24.0	4	-1E+10	1	-1E+10	1	-1E+10	1	-1E+10	1	-1E+10	1	-1E+10	1
4902549	106	C	07/21/2023	09:59	-132.484	47.400	0	328.10	0	4.8390	0	33.8720	0	26.802	0	325.107	0	74.4	4	23.9	4	-1E+10	1	-1E+10	1	-1E+10	1	-1E+10	1	-1E+10	1	-1E+10	1
4902549	106	C	07/21/2023	09:59	-132.484	47.400	0	329.10	0	4.8310	0	33.8740	0	26.805	0	326.097	0	74.0	4	23.8	4	-1E+10	1	-1E+10	1	-1E+10	1	-1E+10	1	-1E+10	1	-1E+10	1
4902549	106	C	07/21/2023	09:59	-132.484	47.400	0	330.10	0	4.8280	0	33.8750	0	26.806	0	327.087	0	73.7	4	23.7	4	-1E+10	1	-1E+10	1	-1E+10	1	-1E+10	1	-1E+10	1	-1E+10	1
4902549	106	C	07/21/2023	09:59	-132.484	47.400	0	331.10	0	4.8230	0	33.8760	0	26.807	0	328.077	0	73.4	4	23.6	4	-1E+10	1	-1E+10	1	-1E+10	1	-1E+10	1	-1E+10	1	-1E+10	1
4902549	106	C	07/21/2023	09:59	-132.484	47.400	0	332.10	0	4.8180	0	33.8770	0	26.808	0	329.067	0	73.1	4	23.5	4	-1E+10	1	-1E+10	1	-1E+10	1	-1E+10	1	-1E+10	1	-1E+10	1
4902549	106	C	07/21/2023	09:59	-132.484	47.400	0	333.10	0	4.8130	0	33.8780	0	26.810	0	330.057	0	72.8	4	23.4	4	-1E+10	1	-1E+10	1	-1E+10	1	-1E+10	1	-1E+10	1	-1E+10	1
4902549	106	C	07/21/2023	09:59	-132.484	47.400	0	334.00	0	4.8100	0	33.8790	0	26.811	0	330.948	0	72.5	4	23.3	4	-1E+10	1	-1E+10	1	-1E+10	1	-1E+10	1	-1E+10	1	-1E+10	1
4902549	106	C	07/21/2023	09:59	-132.484	47.400	0	335.10	0	4.8080	0	33.8790	0	26.811	0	332.037	0	72.1	4	23.2	4	-1E+10	1	-1E+10	1	-1E+10	1	-1E+10	1	-1E+10	1	-1E+10	1
4902549	106	C	07/21/2023	09:59	-132.484	47.400	0	335.90	0	4.8060	0	33.8800	0	26.812	0	332.829	0	71.8	4	23.1	4	-1E+10	1	-1E+10	1	-1E+10	1	-1E+10	1	-1E+10	1	-1E+10	1
4902549	106	C	07/21/2023	09:59	-132.484	47.400	0	337.00	0	4.7920	0	33.8830	0	26.816	0	333.918	0	71.4	4	22.9	4	-1E+10	1	-1E+10	1	-1E+10	1	-1E+10	1	-1E+10	1	-1E+10	1
4902549	106	C	07/21/2023	09:59	-132.484	47.400	0	338.20	0	4.7830	0	33.8840	0	26.818	0	335.106	0	71.1	4	22.8	4	-1E+10	1	-1E+10	1	-1E+10	1	-1E+10	1	-1E+10	1	-1E+10	1
4902549	106	C	07/21/2023	09:59	-132.484	47.400	0	338.90	0	4.7770	0	33.8850	0	26.819	0	335.799	0	70.9	4	22.8	4	-1E+10	1	-1E+10	1	-1E+10	1	-1E+10	1	-1E+10	1	-1E+10	1
4902549	106	C	07/21/2023	09:59	-132.484	47.400	0	340.00	0	4.7730	0	33.8850	0	26.820	0	336.888	0	70.6	4	22.7	4	-1E+10	1	-1E+10	1	-1E+10	1	-1E+10	1	-1E+10	1	-1E+10	1
4902549	106	C	07/21/2023	09:59	-132.484	47.400	0	341.20	0	4.7690	0	33.8860	0	26.821	0	338.076	0	70.3	4	22.5	4	-1E+10	1	-1E+10	1	-1E+10	1	-1E+10	1	-1E+10	1	-1E+10	1
4902549	106	C	07/21/2023	09:59	-132.484	47.400	0	342.00	0	4.7670	0	33.8870	0	26.822	0	338.868	0	70.1	4	22.5	4	-1E+10	1	-1E+10	1	-1E+10	1	-1E+10	1	-1E+10	1	-1E+10	1
4902549	106	C	07/21/2023	09:59	-132.484	47.400	0	342.80	0	4.7600	0	33.8880	0	26.824	0	339.660	0	69.9	4	22.4	4	-1E+10	1	-1E+10	1	-1E+10	1	-1E+10	1	-1E+10	1	-1E+10	1
4902549	106	C	07/21/2023	09:59	-132.484	47.400	0	343.90	0	4.7550	0	33.8890	0	26.825	0	340.749	0	69.6	4	22.3	4	-1E+10	1	-1E+10	1	-1E+10	1	-1E+10	1	-1E+10	1	-1E+10	1
4902549	106	C	07/21/2023	09:59	-132.484	47.400	0	345.10	0	4.7530	0	33.8890	0	26.825	0	341.937	0	69.3	4	22.2	4	-1E+10	1	-1E+10	1	-1E+10	1	-1E+10	1	-1E+10	1	-1E+10	1
4902549	106	C	07/21/2023	09:59	-132.484	47.400	0	345.90	0	4.7500	0	33.8900	0	26.826	0	342.729	0	69.1	4	22.2	4	-1E+10	1	-1E+10	1	-1E+10	1	-1E+10	1	-1E+10	1	-1E+10	1
4902549	106	C	07/21/2023	09:59	-132.484	47.400	0	346.70	0	4.7470	0	33.8900	0	26.827	0	343.521	0	68.8	4	22.1	4	-1E+10	1	-1E+10	1	-1E+10	1	-1E+10	1	-1E+10	1	-1E+10	1
4902549	106	C	07/21/2023	09:59	-132.484	47.400	0	347.90	0	4.7470	0	33.8900	0	26.827	0	344.709	0	68.5	4	22.0	4	-1E+10	1	-1E+10	1	-1E+10	1	-1E+10	1	-1E+10	1	-1E+10	1
4902549	106	C	07/21/2023	09:59	-132.484	47.400	0	349.00	0	4.7450	0	33.8910	0	26.828	0	345.798	0	68.0	4	21.8	4	-1E+10	1	-1E+10	1	-1E+10	1	-1E+10	1	-1E+10	1	-1E+10	1
4902549	106	C	07/21/2023	09:59	-132.484	47.400	0	349.80	0	4.7410	0	33.8920	0	26.829	0	346.590	0	67.8	4	21.7	4	-1E+10	1	-1E+10	1	-1E+10	1	-1E+10	1	-1E+10	1	-1E+10	1
4902549	106	C	07/21/2023	09:59	-132.484	47.400	0	353.00	0	4.7180	0	33.8950	0	26.834	0	349.758	0	66.6	4	21.3	4	-1E+10	1	-1E+10	1	-1E+10	1	-1E+10	1	-1E+10	1	-1E+10	1
4902549	106	C	07/21/2023	09:59	-132.484	47.400	0	358.20	0	4.6860	0	33.9010	0	26.842	0	354.906	0	65.1	4	20.8	4	-1E+10	1	-1E+10	1	-1E+10	1	-1E+10	1	-1E+10	1	-1E+10	1
4902549	106	C	07/21/2023	09:59	-132.484	47.400	0	363.20	0	4.6680	0	33.9080	0	26.850	0	359.856	0	64.0	4	20.5	4	-1E+10	1	-1E+10	1	-1E+10	1	-1E+10	1	-1E+10	1	-1E+10	1
4902549	106	C	07/21/2023	09:59	-132.484	47.400	0	368.20	0	4.6680	0	33.9110	0	26.852	0	364.805	0	63.2	4	20.2	4	-1E+10	1	-1E+10	1	-1E+10	1	-1E+10	1	-1E+10	1	-1E+10	1
4902549	106	C	07/21/2023	09:59	-132.484	47.400	0	373.20	0	4.6650	0	33.9130	0	26.854	0	369.755	0	62.1	4	19.9	4	-1E+10	1	-1E+10	1	-1E+10	1	-1E+10	1	-1E+10	1	-1E+10	1
4902549	106	C	07/21/2023	09:59	-132.484	47.400	0	378.30	0	4.6570	0	33.9180	0	26.859	0	374.803	0	60.8	4	19.5	4	-1E+10	1	-1E+10	1	-1E+10	1	-1E+10	1	-1E+10	1	-1E+10	1
4902549	106	C	07/21/2023	09:59	-132.484	47.400	0	382.90	0	4.6390	0	33.9230	0	26.865	0	379.356	0	59.6	4	19.1	4	-1E+10	1	-1E+10	1	-1E+10	1	-1E+10	1	-1E+10	1	-1E+10	1
4902549	106	C	07/21/2023	09:59	-132.484	47.400	0	387.70	0	4.6280	0	33.9260	0	26.869	0	384.108	0	57.9	4	18.5	4	-1E+10	1	-1E+10	1	-1E+10	1	-1E+10	1	-1E+10	1	-1E+10	1
4902549	106	C	07/21/2023	09:59	-132.484	47.400	0	392.90	0	4.5980	0	33.9340	0	26.878	0	389.255	0	56.0	4	17.9	4	-1E+10	1	-1E+10	1	-1E+10	1	-1E+10	1	-1E+10	1	-1E+10	1
4902549	106	C	07/21/2023	09:59	-132.484	47.400	0	398.10	0	4.5660	0	33.9430	0	26.889	0	394.401	0	54.5	4	17.4	4	-1E+10	1	-1E+10	1	-1E+10	1	-1E+10	1	-1E+10	1	-1E+10	1
4902549	106	C	07/21/2023	09:59	-132.484	47.400	0	403.00	0	4.5250	0	33.9490	0	26.898	0	399.251	0	53.4	4	17.0	4	-1E+10	1	-1E+10	1	-1E+10	1	-1E+10	1	-1E+10	1	-1E+10	1
4902549	106	C	07/21/2023	09:59	-132.484	47.400	0	407.60	0	4.5120	0	33.9530	0	26.903	0	403.804	0	52.2	4	16.6	4	-1E+10	1	-1E+10	1	-1E+10	1	-1E+10	1	-1E+10	1	-1E+10	1
4902549	106	C	07/21/2023	09:59	-132.484	47.400	0	412.80	0	4.5050	0	33.9600	0	26.909	0	408.950	0	50.6	4	16.1	4	-1E+10	1	-1E+10	1	-1E+10	1	-1E+10	1	-1E+10	1	-1E+10	1
4902549	106	C	07/21/2023	09:59	-132.484	47.400	0	418.10	0	4.4980	0	33.9700	0	26.918	0	414.196	0	49.2	4	15.7	4	-1E+10	1	-1E+10	1	-1E+10	1	-1E+10	1	-1E+10	1	-1E+10	1
4902549	106	C	07/21/2023	09:59	-132.484	47.400	0	423.10	0	4.4970	0	33.9760	0	26.923	0	419.144	0	48.1	4	15.3	4	-1E+10	1	-1E+10	1	-1E+10	1	-1E+10	1	-1E+10	1	-1E+10	1
4902549	106	C	07/21/2023	09:59	-132.484	47.400	0	428.10	0	4.4940	0	33.9800	0	26.926	0	424.092	0	47.0	4	15.0	4	-1E+10	1	-1E+10	1	-1E+10	1	-1E+10	1	-1E+10	1	-1E+10	1
4902549	106	C	07/21/2023	09:59	-132.484	47.400	0	433.20	0	4.4760	0	33.9870	0	26.934	0	429.139	0	45.7	4	14.6	4	-1E+10	1	-1E+10	1	-1E+10	1	-1E+10	1	-1E+10	1	-1E+10	1
4902549	106	C	07/21/2023	09:59	-132.484	47.400	0	438.20	0	4.4610	0	33.9920	0	26.940	0	434.087	0	44.6	4	14.2	4	-1E+10	1	-1E+10	1	-1E+10	1	-1E+10	1	-1E+10	1	-1E+10	1
4902549	106	C	07/21/2023	09:59	-132.484	47.400	0	442.90	0	4.4510	0	33.9960	0	26.944	0	438.738	0	43.6	4	13.9	4	-1E+10	1	-1E+10	1	-1E+10	1	-1E+10	1	-1E+10	1	-1E+10	1
4902549	106	C	07/21/2023	09:59	-132.484	47.400	0	447.50	0	4.4280	0	34.0020	0	26.951	0	443.290	0	42.7	4	13.6	4	-1E+10	1	-1E+10	1	-1E+10	1	-1E+10	1	-1E+10	1	-1E+10	1
4902549	106	C	07/21/2023	09:59	-132.484	47.400	0	452.70	0	4.4170	0	34.0050	0	26.955	0	448.435	0	41.6	4	13.3	4	-1E+10	1	-1E+10	1	-1E+10	1	-1E+10	1	-1E+10	1	-1E+10	1
4902549	106	C	07/21/2023	09:59	-132.484	47.400	0	457.90	0	4.3960	0	34.0120	0	26.962	0	453.580	0	40.5	4	12.9	4	-1E+10	1	-1E+10	1	-1E+10	1	-1E+10	1	-1E+10	1	-1E+10	1
4902549	106	C	07/21/2023	09:59	-132.484	47.400	0	463.00	0	4.3820	0	34.0160	0	26.967	0	458.627	0	39.6	4	12.6	4	-1E+10	1	-1E+10	1	-1E+10	1	-1E+10	1	-1E+10	1	-1E+10	1
4902549	106	C	07/21/2023	09:59	-132.484	47.400	0	467.70	0	4.3700	0	34.0210	0	26.972	0	463.277	0	38.4	4	12.2	4	-1E+10	1	-1E+10	1	-1E+10	1	-1E+10	1	-1E+10	1	-1E+10	1
4902549	106	C	07/21/2023	09:59	-132.484	47.400	0	472.80	0	4.3550	0	34.0280	0	26.980	0	468.323	0	37.2	4	11.8	4	-1E+10	1	-1E+10	1	-1E+10	1	-1E+10	1	-1E+10	1	-1E+10	1
4902549	106	C	07/21/2023	09:59	-132.484	47.400	0	478.10	0	4.3430	0	34.0320	0	26.984	0	473.567	0	36.4	4	11.6	4	-1E+10	1	-1E+10	1	-1E+10	1	-1E+10	1	-1E+10	1	-1E+10	1
4902549	106	C	07/21/2023	09:59	-132.484	47.400	0	482.90	0	4.3320	0	34.0350	0	26.988	0	478.316	0	35.5	4	11.3	4	-1E+10	1	-1E+10	1	-1E+10	1	-1E+10	1	-1E+10	1	-1E+10	1
4902549	106	C	07/21/2023	09:59	-132.484	47.400	0	487.90	0	4.3180	0	34.0390	0	26.992	0	483.263	0	34.7	4	11.0	4	-1E+10	1	-1E+10	1	-1E+10	1	-1E+10	1	-1E+10	1	-1E+10	1
4902549	106	C	07/21/2023	09:59	-132.484	47.400	0	493.00	0	4.3030	0	34.0430	0	26.997	0	488.308	0	33.8	4	10.7	4	-1E+10	1	-1E+10	1	-1E+10	1	-1E+10	1	-1E+10	1	-1E+10	1
4902549	106	C	07/21/2023	09:59	-132.484	47.400	0	497.80	0	4.2900	0	34.0480	0	27.003	0	493.057	0	32.8	4	10.4	4	-1E+10	1	-1E+10	1	-1E+10	1	-1E+10	1	-1E+10	1	-1E+10	1
4902549	106	C	07/21/2023	09:59	-132.484	47.400	0	502.60	0	4.2730	0	34.0540	0	27.009	0	497.805	0	31.9	4	10.1	4	-1E+10	1	-1E+10	1	-1E+10	1	-1E+10	1	-1E+10	1	-1E+10	1
4902549	106	C	07/21/2023	09:59	-132.484	47.400	0	508.00	0	4.2540	0	34.0580	0	27.014	0	503.147	0	30.8	4	9.8	4	-1E+10	1	-1E+10	1	-1E+10	1	-1E+10	1	-1E+10	1	-1E+10	1
4902549	106	C	07/21/2023	09:59	-132.484	47.400	0	512.90	0	4.2420	0	34.0620	0	27.019	0	507.994	0	29.6	4	9.4	4	-1E+10	1	-1E+10	1	-1E+10	1	-1E+10	1	-1E+10	1	-1E+10	1
4902549	106	C	07/21/2023	09:59	-132.484	47.400	0	517.80	0	4.2210	0	34.0710	0	27.028	0	512.841	0	28.2	4	9.0	4	-1E+10	1	-1E+10	1	-1E+10	1	-1E+10	1	-1E+10	1	-1E+10	1
4902549	106	C	07/21/2023	09:59	-132.484	47.400	0	523.10	0	4.2110	0	34.0790	0	27.036	0	518.084	0	27.7	4	8.8	4	-1E+10	1	-1E+10	1	-1E+10	1	-1E+10	1	-1E+10	1	-1E+10	1
4902549	106	C	07/21/2023	09:59	-132.484	47.400	0	528.10	0	4.1930	0	34.0830	0	27.041	0	523.030	0	27.8	4	8.8	4	-1E+10	1	-1E+10	1	-1E+10	1	-1E+10	1	-1E+10	1	-1E+10	1
4902549	106	C	07/21/2023	09:59	-132.484	47.400	0	533.00	0	4.1530	0	34.0830	0	27.045	0	527.877	0	27.7	4	8.8	4	-1E+10	1	-1E+10	1	-1E+10	1	-1E+10	1	-1E+10	1	-1E+10	1
4902549	106	C	07/21/2023	09:59	-132.484	47.400	0	538.10	0	4.1380	0	34.0850	0	27.048	0	532.921	0	26.8	4	8.5	4	-1E+10	1	-1E+10	1	-1E+10	1	-1E+10	1	-1E+10	1	-1E+10	1
4902549	106	C	07/21/2023	09:59	-132.484	47.400	0	543.00	0	4.1540	0	34.0910	0	27.051	0	537.768	0	25.7	4	8.1	4	-1E+10	1	-1E+10	1	-1E+10	1	-1E+10	1	-1E+10	1	-1E+10	1
4902549	106	C	07/21/2023	09:59	-132.484	47.400	0	548.10	0	4.1520	0	34.0950	0	27.055	0	542.812	0	25.4	4	8.0	4	-1E+10	1	-1E+10	1	-1E+10	1	-1E+10	1	-1E+10	1	-1E+10	1
4902549	106	C	07/21/2023	09:59	-132.484	47.400	0	553.10	0	4.1210	0	34.0970	0	27.060	0	547.757	0	25.1	4	7.9	4	-1E+10	1	-1E+10	1	-1E+10	1	-1E+10	1	-1E+10	1	-1E+10	1
4902549	106	C	07/21/2023	09:59	-132.484	47.400	0	558.10	0	4.0860	0	34.1030	0	27.068	0	552.702	0	24.6	4	7.8	4	-1E+10	1	-1E+10	1	-1E+10	1	-1E+10	1	-1E+10	1	-1E+10	1
4902549	106	C	07/21/2023	09:59	-132.484	47.400	0	562.80	0	4.0650	0	34.1080	0	27.074	0	557.350	0	24.1	4	7.6	4	-1E+10	1	-1E+10	1	-1E+10	1	-1E+10	1	-1E+10	1	-1E+10	1
4902549	106	C	07/21/2023	09:59	-132.484	47.400	0	567.90	0	4.0580	0	34.1100	0	27.077	0	562.394	0	23.5	4	7.4	4	-1E+10	1	-1E+10	1	-1E+10	1	-1E+10	1	-1E+10	1	-1E+10	1
4902549	106	C	07/21/2023	09:59	-132.484	47.400	0	573.00	0	4.0430	0	34.1150	0	27.082	0	567.438	0	22.7	4	7.2	4	-1E+10	1	-1E+10	1	-1E+10	1	-1E+10	1	-1E+10	1	-1E+10	1
4902549	106	C	07/21/2023	09:59	-132.484	47.400	0	577.70	0	4.0300	0	34.1200	0	27.087	0	572.086	0	22.1	4	7.0	4	-1E+10	1	-1E+10	1	-1E+10	1	-1E+10	1	-1E+10	1	-1E+10	1
4902549	106	C	07/21/2023	09:59	-132.484	47.400	0	582.90	0	4.0140	0	34.1240	0	27.092	0	577.228	0	21.5	4	6.8	4	-1E+10	1	-1E+10	1	-1E+10	1	-1E+10	1	-1E+10	1	-1E+10	1
4902549	106	C	07/21/2023	09:59	-132.484	47.400	0	588.20	0	3.9980	0	34.1290	0	27.098	0	582.469	0	20.7	4	6.5	4	-1E+10	1	-1E+10	1	-1E+10	1	-1E+10	1	-1E+10	1	-1E+10	1
4902549	106	C	07/21/2023	09:59	-132.484	47.400	0	593.00	0	3.9830	0	34.1340	0	27.103	0	587.215	0	20.1	4	6.3	4	-1E+10	1	-1E+10	1	-1E+10	1	-1E+10	1	-1E+10	1	-1E+10	1
4902549	106	C	07/21/2023	09:59	-132.484	47.400	0	597.80	0	3.9750	0	34.1380	0	27.107	0	591.962	0	19.5	4	6.2	4	-1E+10	1	-1E+10	1	-1E+10	1	-1E+10	1	-1E+10	1	-1E+10	1
4902549	106	C	07/21/2023	09:59	-132.484	47.400	0	602.70	0	3.9570	0	34.1420	0	27.113	0	596.807	0	19.0	4	6.0	4	-1E+10	1	-1E+10	1	-1E+10	1	-1E+10	1	-1E+10	1	-1E+10	1
4902549	106	C	07/21/2023	09:59	-132.484	47.400	0	607.70	0	3.9450	0	34.1470	0	27.118	0	601.751	0	18.5	4	5.8	4	-1E+10	1	-1E+10	1	-1E+10	1	-1E+10	1	-1E+10	1	-1E+10	1
4902549	106	C	07/21/2023	09:59	-132.484	47.400	0	612.70	0	3.9270	0	34.1520	0	27.124	0	606.694	0	18.1	4	5.7	4	-1E+10	1	-1E+10	1	-1E+10	1	-1E+10	1	-1E+10	1	-1E+10	1
4902549	106	C	07/21/2023	09:59	-132.484	47.400	0	617.70	0	3.9130	0	34.1560	0	27.128	0	611.638	0	17.7	4	5.6	4	-1E+10	1	-1E+10	1	-1E+10	1	-1E+10	1	-1E+10	1	-1E+10	1
4902549	106	C	07/21/2023	09:59	-132.484	47.400	0	622.80	0	3.9070	0	34.1590	0	27.131	0	616.680	0	17.4	4	5.5	4	-1E+10	1	-1E+10	1	-1E+10	1	-1E+10	1	-1E+10	1	-1E+10	1
4902549	106	C	07/21/2023	09:59	-132.484	47.400	0	628.10	0	3.8950	0	34.1620	0	27.135	0	621.920	0	17.0	4	5.4	4	-1E+10	1	-1E+10	1	-1E+10	1	-1E+10	1	-1E+10	1	-1E+10	1
4902549	106	C	07/21/2023	09:59	-132.484	47.400	0	633.30	0	3.8880	0	34.1650	0	27.138	0	627.061	0	16.7	4	5.3	4	-1E+10	1	-1E+10	1	-1E+10	1	-1E+10	1	-1E+10	1	-1E+10	1
4902549	106	C	07/21/2023	09:59	-132.484	47.400	0	638.00	0	3.8760	0	34.1680	0	27.142	0	631.708	0	16.4	4	5.2	4	-1E+10	1	-1E+10	1	-1E+10	1	-1E+10	1	-1E+10	1	-1E+10	1
4902549	106	C	07/21/2023	09:59	-132.484	47.400	0	642.80	0	3.8660	0	34.1710	0	27.145	0	636.453	0	16.2	4	5.1	4	-1E+10	1	-1E+10	1	-1E+10	1	-1E+10	1	-1E+10	1	-1E+10	1
4902549	106	C	07/21/2023	09:59	-132.484	47.400	0	647.70	0	3.8550	0	34.1730	0	27.148	0	641.297	0	15.9	4	5.0	4	-1E+10	1	-1E+10	1	-1E+10	1	-1E+10	1	-1E+10	1	-1E+10	1
4902549	106	C	07/21/2023	09:59	-132.484	47.400	0	652.50	0	3.8450	0	34.1760	0	27.151	0	646.043	0	15.6	4	4.9	4	-1E+10	1	-1E+10	1	-1E+10	1	-1E+10	1	-1E+10	1	-1E+10	1
4902549	106	C	07/21/2023	09:59	-132.484	47.400	0	657.50	0	3.8370	0	34.1780	0	27.154	0	650.985	0	15.3	4	4.8	4	-1E+10	1	-1E+10	1	-1E+10	1	-1E+10	1	-1E+10	1	-1E+10	1
4902549	106	C	07/21/2023	09:59	-132.484	47.400	0	662.70	0	3.8270	0	34.1820	0	27.158	0	656.126	0	15.1	4	4.7	4	-1E+10	1	-1E+10	1	-1E+10	1	-1E+10	1	-1E+10	1	-1E+10	1
4902549	106	C	07/21/2023	09:59	-132.484	47.400	0	668.00	0	3.8220	0	34.1840	0	27.160	0	661.365	0	14.8	4	4.6	4	-1E+10	1	-1E+10	1	-1E+10	1	-1E+10	1	-1E+10	1	-1E+10	1
4902549	106	C	07/21/2023	09:59	-132.484	47.400	0	672.80	0	3.8140	0	34.1860	0	27.162	0	666.109	0	14.5	4	4.5	4	-1E+10	1	-1E+10	1	-1E+10	1	-1E+10	1	-1E+10	1	-1E+10	1
4902549	106	C	07/21/2023	09:59	-132.484	47.400	0	677.80	0	3.8070	0	34.1870	0	27.164	0	671.051	0	14.1	4	4.4	4	-1E+10	1	-1E+10	1	-1E+10	1	-1E+10	1	-1E+10	1	-1E+10	1
4902549	106	C	07/21/2023	09:59	-132.484	47.400	0	682.80	0	3.7930	0	34.1930	0	27.170	0	675.994	0	13.7	4	4.3	4	-1E+10	1	-1E+10	1	-1E+10	1	-1E+10	1	-1E+10	1	-1E+10	1
4902549	106	C	07/21/2023	09:59	-132.484	47.400	0	687.90	0	3.7780	0	34.1970	0	27.175	0	681.034	0	13.3	4	4.2	4	-1E+10	1	-1E+10	1	-1E+10	1	-1E+10	1	-1E+10	1	-1E+10	1
4902549	106	C	07/21/2023	09:59	-132.484	47.400	0	693.00	0	3.7610	0	34.2020	0	27.181	0	686.075	0	12.8	4	4.0	4	-1E+10	1	-1E+10	1	-1E+10	1	-1E+10	1	-1E+10	1	-1E+10	1
4902549	106	C	07/21/2023	09:59	-132.484	47.400	0	697.80	0	3.7500	0	34.2070	0	27.186	0	690.819	0	12.4	4	3.9	4	-1E+10	1	-1E+10	1	-1E+10	1	-1E+10	1	-1E+10	1	-1E+10	1
4902549	106	C	07/21/2023	09:59	-132.484	47.400	0	702.70	0	3.7380	0	34.2110	0	27.190	0	695.662	0	12.0	4	3.8	4	-1E+10	1	-1E+10	1	-1E+10	1	-1E+10	1	-1E+10	1	-1E+10	1
4902549	106	C	07/21/2023	09:59	-132.484	47.400	0	707.60	0	3.7310	0	34.2130	0	27.192	0	700.505	0	11.6	4	3.6	4	-1E+10	1	-1E+10	1	-1E+10	1	-1E+10	1	-1E+10	1	-1E+10	1
4902549	106	C	07/21/2023	09:59	-132.484	47.400	0	712.60	0	3.7240	0	34.2200	0	27.199	0	705.446	0	10.9	4	3.4	4	-1E+10	1	-1E+10	1	-1E+10	1	-1E+10	1	-1E+10	1	-1E+10	1
4902549	106	C	07/21/2023	09:59	-132.484	47.400	0	717.60	0	3.7330	0	34.2250	0	27.202	0	710.387	0	10.5	4	3.3	4	-1E+10	1	-1E+10	1	-1E+10	1	-1E+10	1	-1E+10	1	-1E+10	1
4902549	106	C	07/21/2023	09:59	-132.484	47.400	0	722.70	0	3.7330	0	34.2280	0	27.204	0	715.427	0	10.2	4	3.2	4	-1E+10	1	-1E+10	1	-1E+10	1	-1E+10	1	-1E+10	1	-1E+10	1
4902549	106	C	07/21/2023	09:59	-132.484	47.400	0	727.80	0	3.7380	0	34.2320	0	27.207	0	720.467	0	9.8	4	3.1	4	-1E+10	1	-1E+10	1	-1E+10	1	-1E+10	1	-1E+10	1	-1E+10	1
4902549	106	C	07/21/2023	09:59	-132.484	47.400	0	733.00	0	3.7370	0	34.2360	0	27.210	0	725.606	0	9.7	4	3.0	4	-1E+10	1	-1E+10	1	-1E+10	1	-1E+10	1	-1E+10	1	-1E+10	1
4902549	106	C	07/21/2023	09:59	-132.484	47.400	0	738.20	0	3.7300	0	34.2390	0	27.213	0	730.744	0	9.7	4	3.0	4	-1E+10	1	-1E+10	1	-1E+10	1	-1E+10	1	-1E+10	1	-1E+10	1
4902549	106	C	07/21/2023	09:59	-132.484	47.400	0	742.90	0	3.7110	0	34.2390	0	27.215	0	735.389	0	9.7	4	3.0	4	-1E+10	1	-1E+10	1	-1E+10	1	-1E+10	1	-1E+10	1	-1E+10	1
4902549	106	C	07/21/2023	09:59	-132.484	47.400	0	747.60	0	3.7010	0	34.2400	0	27.217	0	740.033	0	9.5	4	3.0	4	-1E+10	1	-1E+10	1	-1E+10	1	-1E+10	1	-1E+10	1	-1E+10	1
4902549	106	C	07/21/2023	09:59	-132.484	47.400	0	752.80	0	3.6710	0	34.2440	0	27.223	0	745.171	0	9.3	4	2.9	4	-1E+10	1	-1E+10	1	-1E+10	1	-1E+10	1	-1E+10	1	-1E+10	1
4902549	106	C	07/21/2023	09:59	-132.484	47.400	0	758.10	0	3.6670	0	34.2470	0	27.226	0	750.408	0	8.8	4	2.8	4	-1E+10	1	-1E+10	1	-1E+10	1	-1E+10	1	-1E+10	1	-1E+10	1
4902549	106	C	07/21/2023	09:59	-132.484	47.400	0	763.30	0	3.6820	0	34.2520	0	27.229	0	755.545	0	8.3	4	2.6	4	-1E+10	1	-1E+10	1	-1E+10	1	-1E+10	1	-1E+10	1	-1E+10	1
4902549	106	C	07/21/2023	09:59	-132.484	47.400	0	767.90	0	3.6930	0	34.2580	0	27.232	0	760.090	0	8.1	4	2.5	4	-1E+10	1	-1E+10	1	-1E+10	1	-1E+10	1	-1E+10	1	-1E+10	1
4902549	106	C	07/21/2023	09:59	-132.484	47.400	0	772.50	0	3.6840	0	34.2600	0	27.235	0	764.635	0	8.0	4	2.5	4	-1E+10	1	-1E+10	1	-1E+10	1	-1E+10	1	-1E+10	1	-1E+10	1
4902549	106	C	07/21/2023	09:59	-132.484	47.400	0	777.60	0	3.6770	0	34.2620	0	27.237	0	769.674	0	7.8	4	2.4	4	-1E+10	1	-1E+10	1	-1E+10	1	-1E+10	1	-1E+10	1	-1E+10	1
4902549	106	C	07/21/2023	09:59	-132.484	47.400	0	782.70	0	3.6750	0	34.2660	0	27.241	0	774.712	0	7.6	4	2.4	4	-1E+10	1	-1E+10	1	-1E+10	1	-1E+10	1	-1E+10	1	-1E+10	1
4902549	106	C	07/21/2023	09:59	-132.484	47.400	0	787.70	0	3.6720	0	34.2690	0	27.243	0	779.652	0	7.5	4	2.3	4	-1E+10	1	-1E+10	1	-1E+10	1	-1E+10	1	-1E+10	1	-1E+10	1
4902549	106	C	07/21/2023	09:59	-132.484	47.400	0	792.60	0	3.6650	0	34.2730	0	27.247	0	784.493	0	7.4	4	2.3	4	-1E+10	1	-1E+10	1	-1E+10	1	-1E+10	1	-1E+10	1	-1E+10	1
4902549	106	C	07/21/2023	09:59	-132.484	47.400	0	797.60	0	3.6560	0	34.2750	0	27.250	0	789.432	0	7.4	4	2.3	4	-1E+10	1	-1E+10	1	-1E+10	1	-1E+10	1	-1E+10	1	-1E+10	1
4902549	106	C	07/21/2023	09:59	-132.484	47.400	0	802.90	0	3.6270	0	34.2790	0	27.256	0	794.668	0	7.2	4	2.3	4	-1E+10	1	-1E+10	1	-1E+10	1	-1E+10	1	-1E+10	1	-1E+10	1
4902549	106	C	07/21/2023	09:59	-132.484	47.400	0	808.30	0	3.6260	0	34.2820	0	27.258	0	800.002	0	7.1	4	2.2	4	-1E+10	1	-1E+10	1	-1E+10	1	-1E+10	1	-1E+10	1	-1E+10	1
4902549	106	C	07/21/2023	09:59	-132.484	47.400	0	813.10	0	3.6160	0	34.2830	0	27.260	0	804.743	0	7.1	4	2.2	4	-1E+10	1	-1E+10	1	-1E+10	1	-1E+10	1	-1E+10	1	-1E+10	1
4902549	106	C	07/21/2023	09:59	-132.484	47.400	0	817.80	0	3.6100	0	34.2870	0	27.264	0	809.386	0	7.0	4	2.2	4	-1E+10	1	-1E+10	1	-1E+10	1	-1E+10	1	-1E+10	1	-1E+10	1
4902549	106	C	07/21/2023	09:59	-132.484	47.400	0	823.00	0	3.5880	0	34.2870	0	27.266	0	814.522	0	7.0	4	2.2	4	-1E+10	1	-1E+10	1	-1E+10	1	-1E+10	1	-1E+10	1	-1E+10	1
4902549	106	C	07/21/2023	09:59	-132.484	47.400	0	828.10	0	3.5820	0	34.2910	0	27.270	0	819.560	0	6.8	4	2.1	4	-1E+10	1	-1E+10	1	-1E+10	1	-1E+10	1	-1E+10	1	-1E+10	1
4902549	106	C	07/21/2023	09:59	-132.484	47.400	0	832.80	0	3.5820	0	34.2930	0	27.272	0	824.202	0	6.7	4	2.1	4	-1E+10	1	-1E+10	1	-1E+10	1	-1E+10	1	-1E+10	1	-1E+10	1
4902549	106	C	07/21/2023	09:59	-132.484	47.400	0	838.00	0	3.5690	0	34.3000	0	27.278	0	829.338	0	6.5	4	2.0	4	-1E+10	1	-1E+10	1	-1E+10	1	-1E+10	1	-1E+10	1	-1E+10	1
4902549	106	C	07/21/2023	09:59	-132.484	47.400	0	843.00	0	3.5550	0	34.3040	0	27.283	0	834.277	0	6.5	4	2.0	4	-1E+10	1	-1E+10	1	-1E+10	1	-1E+10	1	-1E+10	1	-1E+10	1
4902549	106	C	07/21/2023	09:59	-132.484	47.400	0	847.70	0	3.5450	0	34.3070	0	27.286	0	838.918	0	6.5	4	2.0	4	-1E+10	1	-1E+10	1	-1E+10	1	-1E+10	1	-1E+10	1	-1E+10	1
4902549	106	C	07/21/2023	09:59	-132.484	47.400	0	852.90	0	3.5400	0	34.3080	0	27.288	0	844.054	0	6.4	4	2.0	4	-1E+10	1	-1E+10	1	-1E+10	1	-1E+10	1	-1E+10	1	-1E+10	1
4902549	106	C	07/21/2023	09:59	-132.484	47.400	0	858.10	0	3.5220	0	34.3120	0	27.293	0	849.190	0	6.4	4	2.0	4	-1E+10	1	-1E+10	1	-1E+10	1	-1E+10	1	-1E+10	1	-1E+10	1
4902549	106	C	07/21/2023	09:59	-132.484	47.400	0	862.90	0	3.5050	0	34.3150	0	27.297	0	853.930	0	6.4	4	2.0	4	-1E+10	1	-1E+10	1	-1E+10	1	-1E+10	1	-1E+10	1	-1E+10	1
4902549	106	C	07/21/2023	09:59	-132.484	47.400	0	867.70	0	3.4810	0	34.3180	0	27.301	0	858.670	0	6.4	4	2.0	4	-1E+10	1	-1E+10	1	-1E+10	1	-1E+10	1	-1E+10	1	-1E+10	1
4902549	106	C	07/21/2023	09:59	-132.484	47.400	0	872.60	0	3.4700	0	34.3210	0	27.305	0	863.509	0	6.3	4	2.0	4	-1E+10	1	-1E+10	1	-1E+10	1	-1E+10	1	-1E+10	1	-1E+10	1
4902549	106	C	07/21/2023	09:59	-132.484	47.400	0	877.50	0	3.4630	0	34.3260	0	27.310	0	868.348	0	6.3	4	2.0	4	-1E+10	1	-1E+10	1	-1E+10	1	-1E+10	1	-1E+10	1	-1E+10	1
4902549	106	C	07/21/2023	09:59	-132.484	47.400	0	882.50	0	3.4580	0	34.3280	0	27.312	0	873.285	0	6.3	4	2.0	4	-1E+10	1	-1E+10	1	-1E+10	1	-1E+10	1	-1E+10	1	-1E+10	1
4902549	106	C	07/21/2023	09:59	-132.484	47.400	0	887.60	0	3.4470	0	34.3300	0	27.314	0	878.321	0	6.4	4	2.0	4	-1E+10	1	-1E+10	1	-1E+10	1	-1E+10	1	-1E+10	1	-1E+10	1
4902549	106	C	07/21/2023	09:59	-132.484	47.400	0	892.70	0	3.4260	0	34.3310	0	27.317	0	883.357	0	6.5	4	2.0	4	-1E+10	1	-1E+10	1	-1E+10	1	-1E+10	1	-1E+10	1	-1E+10	1
4902549	106	C	07/21/2023	09:59	-132.484	47.400	0	897.70	0	3.4100	0	34.3330	0	27.320	0	888.294	0	6.6	4	2.0	4	-1E+10	1	-1E+10	1	-1E+10	1	-1E+10	1	-1E+10	1	-1E+10	1
4902549	106	C	07/21/2023	09:59	-132.484	47.400	0	902.90	0	3.3880	0	34.3330	0	27.323	0	893.429	0	6.7	4	2.1	4	-1E+10	1	-1E+10	1	-1E+10	1	-1E+10	1	-1E+10	1	-1E+10	1
4902549	106	C	07/21/2023	09:59	-132.484	47.400	0	908.10	0	3.3570	0	34.3350	0	27.327	0	898.563	0	6.6	4	2.0	4	-1E+10	1	-1E+10	1	-1E+10	1	-1E+10	1	-1E+10	1	-1E+10	1
4902549	106	C	07/21/2023	09:59	-132.484	47.400	0	913.20	0	3.3660	0	34.3400	0	27.330	0	903.599	0	6.5	4	2.0	4	-1E+10	1	-1E+10	1	-1E+10	1	-1E+10	1	-1E+10	1	-1E+10	1
4902549	106	C	07/21/2023	09:59	-132.484	47.400	0	917.90	0	3.3590	0	34.3400	0	27.331	0	908.239	0	6.5	4	2.0	4	-1E+10	1	-1E+10	1	-1E+10	1	-1E+10	1	-1E+10	1	-1E+10	1
4902549	106	C	07/21/2023	09:59	-132.484	47.400	0	922.90	0	3.3540	0	34.3420	0	27.333	0	913.175	0	6.6	4	2.0	4	-1E+10	1	-1E+10	1	-1E+10	1	-1E+10	1	-1E+10	1	-1E+10	1
4902549	106	C	07/21/2023	09:59	-132.484	47.400	0	928.00	0	3.3340	0	34.3430	0	27.336	0	918.210	0	6.6	4	2.1	4	-1E+10	1	-1E+10	1	-1E+10	1	-1E+10	1	-1E+10	1	-1E+10	1
4902549	106	C	07/21/2023	09:59	-132.484	47.400	0	932.70	0	3.3090	0	34.3440	0	27.339	0	922.851	0	6.7	4	2.1	4	-1E+10	1	-1E+10	1	-1E+10	1	-1E+10	1	-1E+10	1	-1E+10	1
4902549	106	C	07/21/2023	09:59	-132.484	47.400	0	937.60	0	3.2880	0	34.3440	0	27.341	0	927.688	0	6.7	4	2.1	4	-1E+10	1	-1E+10	1	-1E+10	1	-1E+10	1	-1E+10	1	-1E+10	1
4902549	106	C	07/21/2023	09:59	-132.484	47.400	0	942.60	0	3.2780	0	34.3450	0	27.343	0	932.624	0	6.7	4	2.1	4	-1E+10	1	-1E+10	1	-1E+10	1	-1E+10	1	-1E+10	1	-1E+10	1
4902549	106	C	07/21/2023	09:59	-132.484	47.400	0	947.70	0	3.2720	0	34.3480	0	27.346	0	937.659	0	6.7	4	2.1	4	-1E+10	1	-1E+10	1	-1E+10	1	-1E+10	1	-1E+10	1	-1E+10	1
4902549	106	C	07/21/2023	09:59	-132.484	47.400	0	952.90	0	3.2670	0	34.3490	0	27.347	0	942.792	0	6.7	4	2.1	4	-1E+10	1	-1E+10	1	-1E+10	1	-1E+10	1	-1E+10	1	-1E+10	1
4902549	106	C	07/21/2023	09:59	-132.484	47.400	0	957.70	0	3.2630	0	34.3500	0	27.348	0	947.530	0	6.6	4	2.1	4	-1E+10	1	-1E+10	1	-1E+10	1	-1E+10	1	-1E+10	1	-1E+10	1
4902549	106	C	07/21/2023	09:59	-132.484	47.400	0	962.60	0	3.2590	0	34.3510	0	27.349	0	952.367	0	6.6	4	2.1	4	-1E+10	1	-1E+10	1	-1E+10	1	-1E+10	1	-1E+10	1	-1E+10	1
4902549	106	C	07/21/2023	09:59	-132.484	47.400	0	968.00	0	3.2600	0	34.3530	0	27.351	0	957.697	0	6.6	4	2.0	4	-1E+10	1	-1E+10	1	-1E+10	1	-1E+10	1	-1E+10	1	-1E+10	1
4902549	106	C	07/21/2023	09:59	-132.484	47.400	0	972.90	0	3.2560	0	34.3560	0	27.354	0	962.534	0	6.5	4	2.0	4	-1E+10	1	-1E+10	1	-1E+10	1	-1E+10	1	-1E+10	1	-1E+10	1
4902549	106	C	07/21/2023	09:59	-132.484	47.400	0	978.00	0	3.2600	0	34.3590	0	27.356	0	967.568	0	6.5	4	2.0	4	-1E+10	1	-1E+10	1	-1E+10	1	-1E+10	1	-1E+10	1	-1E+10	1
4902549	106	C	07/21/2023	09:59	-132.484	47.400	0	983.00	0	3.2490	0	34.3620	0	27.359	0	972.503	0	6.6	4	2.0	4	-1E+10	1	-1E+10	1	-1E+10	1	-1E+10	1	-1E+10	1	-1E+10	1
4902549	106	C	07/21/2023	09:59	-132.484	47.400	0	988.00	0	3.2420	0	34.3640	0	27.361	0	977.438	0	6.6	4	2.1	4	-1E+10	1	-1E+10	1	-1E+10	1	-1E+10	1	-1E+10	1	-1E+10	1
4902549	106	C	07/21/2023	09:59	-132.484	47.400	0	993.00	0	3.2350	0	34.3630	0	27.361	0	982.372	0	6.8	4	2.1	4	-1E+10	1	-1E+10	1	-1E+10	1	-1E+10	1	-1E+10	1	-1E+10	1
4902549	106	C	07/21/2023	09:59	-132.484	47.400	0	997.80	0	3.2210	0	34.3620	0	27.362	0	987.110	0	6.9	4	2.1	4	-1E+10	1	-1E+10	1	-1E+10	1	-1E+10	1	-1E+10	1	-1E+10	1
4902549	106	C	07/21/2023	09:59	-132.484	47.400	0	1005.40	0	3.1650	0	34.3590	0	27.365	0	994.610	0	7.1	4	2.2	4	-1E+10	1	-1E+10	1	-1E+10	1	-1E+10	1	-1E+10	1	-1E+10	1
4902549	106	C	07/21/2023	09:59	-132.484	47.400	0	1015.00	0	3.1400	0	34.3630	0	27.370	0	1004.084	0	6.9	4	2.1	4	-1E+10	1	-1E+10	1	-1E+10	1	-1E+10	1	-1E+10	1	-1E+10	1
4902549	106	C	07/21/2023	09:59	-132.484	47.400	0	1025.20	0	3.1540	0	34.3710	0	27.375	0	1014.150	0	6.9	4	2.1	4	-1E+10	1	-1E+10	1	-1E+10	1	-1E+10	1	-1E+10	1	-1E+10	1
4902549	106	C	07/21/2023	09:59	-132.484	47.400	0	1035.30	0	3.1310	0	34.3720	0	27.378	0	1024.116	0	6.9	4	2.1	4	-1E+10	1	-1E+10	1	-1E+10	1	-1E+10	1	-1E+10	1	-1E+10	1
4902549	106	C	07/21/2023	09:59	-132.484	47.400	0	1045.30	0	3.1250	0	34.3750	0	27.381	0	1033.984	0	6.9	4	2.2	4	-1E+10	1	-1E+10	1	-1E+10	1	-1E+10	1	-1E+10	1	-1E+10	1
4902549	106	C	07/21/2023	09:59	-132.484	47.400	0	1055.20	0	3.0940	0	34.3770	0	27.386	0	1043.752	0	7.0	4	2.2	4	-1E+10	1	-1E+10	1	-1E+10	1	-1E+10	1	-1E+10	1	-1E+10	1
4902549	106	C	07/21/2023	09:59	-132.484	47.400	0	1065.20	0	3.0890	0	34.3830	0	27.391	0	1053.618	0	7.0	4	2.2	4	-1E+10	1	-1E+10	1	-1E+10	1	-1E+10	1	-1E+10	1	-1E+10	1
4902549	106	C	07/21/2023	09:59	-132.484	47.400	0	1075.10	0	3.0610	0	34.3870	0	27.397	0	1063.386	0	7.2	4	2.2	4	-1E+10	1	-1E+10	1	-1E+10	1	-1E+10	1	-1E+10	1	-1E+10	1
4902549	106	C	07/21/2023	09:59	-132.484	47.400	0	1085.20	0	3.0150	0	34.3860	0	27.400	0	1073.350	0	7.3	4	2.2	4	-1E+10	1	-1E+10	1	-1E+10	1	-1E+10	1	-1E+10	1	-1E+10	1
4902549	106	C	07/21/2023	09:59	-132.484	47.400	0	1095.20	0	3.0040	0	34.3900	0	27.405	0	1083.215	0	7.3	4	2.2	4	-1E+10	1	-1E+10	1	-1E+10	1	-1E+10	1	-1E+10	1	-1E+10	1
4902549	106	C	07/21/2023	09:59	-132.484	47.400	0	1105.40	0	2.9990	0	34.3940	0	27.408	0	1093.277	0	7.3	4	2.3	4	-1E+10	1	-1E+10	1	-1E+10	1	-1E+10	1	-1E+10	1	-1E+10	1
4902549	106	C	07/21/2023	09:59	-132.484	47.400	0	1115.50	0	3.0020	0	34.3980	0	27.411	0	1103.239	0	7.4	4	2.3	4	-1E+10	1	-1E+10	1	-1E+10	1	-1E+10	1	-1E+10	1	-1E+10	1
4902549	106	C	07/21/2023	09:59	-132.484	47.400	0	1125.80	0	2.9950	0	34.4020	0	27.415	0	1113.399	0	7.5	4	2.3	4	-1E+10	1	-1E+10	1	-1E+10	1	-1E+10	1	-1E+10	1	-1E+10	1
4902549	106	C	07/21/2023	09:59	-132.484	47.400	0	1135.60	0	2.9830	0	34.4050	0	27.419	0	1123.065	0	7.6	4	2.4	4	-1E+10	1	-1E+10	1	-1E+10	1	-1E+10	1	-1E+10	1	-1E+10	1
4902549	106	C	07/21/2023	09:59	-132.484	47.400	0	1145.40	0	2.9650	0	34.4070	0	27.422	0	1132.730	0	7.8	4	2.4	4	-1E+10	1	-1E+10	1	-1E+10	1	-1E+10	1	-1E+10	1	-1E+10	1
4902549	106	C	07/21/2023	09:59	-132.484	47.400	0	1155.60	0	2.9420	0	34.4100	0	27.427	0	1142.789	0	7.9	4	2.4	4	-1E+10	1	-1E+10	1	-1E+10	1	-1E+10	1	-1E+10	1	-1E+10	1
4902549	106	C	07/21/2023	09:59	-132.484	47.400	0	1165.50	0	2.9230	0	34.4120	0	27.430	0	1152.553	0	8.0	4	2.5	4	-1E+10	1	-1E+10	1	-1E+10	1	-1E+10	1	-1E+10	1	-1E+10	1
4902549	106	C	07/21/2023	09:59	-132.484	47.400	0	1175.20	0	2.8820	0	34.4120	0	27.434	0	1162.118	0	8.2	4	2.5	4	-1E+10	1	-1E+10	1	-1E+10	1	-1E+10	1	-1E+10	1	-1E+10	1
4902549	106	C	07/21/2023	09:59	-132.484	47.400	0	1185.20	0	2.8730	0	34.4150	0	27.437	0	1171.979	0	8.4	4	2.6	4	-1E+10	1	-1E+10	1	-1E+10	1	-1E+10	1	-1E+10	1	-1E+10	1
4902549	106	C	07/21/2023	09:59	-132.484	47.400	0	1195.40	0	2.8720	0	34.4220	0	27.443	0	1182.036	0	8.6	4	2.6	4	-1E+10	1	-1E+10	1	-1E+10	1	-1E+10	1	-1E+10	1	-1E+10	1
4902549	106	C	07/21/2023	09:59	-132.484	47.400	0	1205.40	0	2.8420	0	34.4230	0	27.446	0	1191.896	0	8.6	4	2.7	4	-1E+10	1	-1E+10	1	-1E+10	1	-1E+10	1	-1E+10	1	-1E+10	1
4902549	106	C	07/21/2023	09:59	-132.484	47.400	0	1215.20	0	2.8150	0	34.4250	0	27.450	0	1201.558	0	8.8	4	2.7	4	-1E+10	1	-1E+10	1	-1E+10	1	-1E+10	1	-1E+10	1	-1E+10	1
4902549	106	C	07/21/2023	09:59	-132.484	47.400	0	1225.50	0	2.8010	0	34.4270	0	27.453	0	1211.713	0	8.9	4	2.7	4	-1E+10	1	-1E+10	1	-1E+10	1	-1E+10	1	-1E+10	1	-1E+10	1
4902549	106	C	07/21/2023	09:59	-132.484	47.400	0	1235.70	0	2.7930	0	34.4310	0	27.457	0	1221.769	0	9.2	4	2.8	4	-1E+10	1	-1E+10	1	-1E+10	1	-1E+10	1	-1E+10	1	-1E+10	1
4902549	106	C	07/21/2023	09:59	-132.484	47.400	0	1245.80	0	2.7870	0	34.4360	0	27.462	0	1231.726	0	9.4	4	2.9	4	-1E+10	1	-1E+10	1	-1E+10	1	-1E+10	1	-1E+10	1	-1E+10	1
4902549	106	C	07/21/2023	09:59	-132.484	47.400	0	1255.40	0	2.7710	0	34.4370	0	27.464	0	1241.189	0	9.6	4	2.9	4	-1E+10	1	-1E+10	1	-1E+10	1	-1E+10	1	-1E+10	1	-1E+10	1
4902549	106	C	07/21/2023	09:59	-132.484	47.400	0	1265.40	0	2.7510	0	34.4380	0	27.466	0	1251.046	0	9.7	4	3.0	4	-1E+10	1	-1E+10	1	-1E+10	1	-1E+10	1	-1E+10	1	-1E+10	1
4902549	106	C	07/21/2023	09:59	-132.484	47.400	0	1275.80	0	2.7200	0	34.4410	0	27.471	0	1261.297	0	10.1	4	3.1	4	-1E+10	1	-1E+10	1	-1E+10	1	-1E+10	1	-1E+10	1	-1E+10	1
4902549	106	C	07/21/2023	09:59	-132.484	47.400	0	1285.60	0	2.7170	0	34.4450	0	27.475	0	1270.956	0	10.5	4	3.2	4	-1E+10	1	-1E+10	1	-1E+10	1	-1E+10	1	-1E+10	1	-1E+10	1
4902549	106	C	07/21/2023	09:59	-132.484	47.400	0	1295.40	0	2.7050	0	34.4490	0	27.479	0	1280.614	0	10.7	4	3.3	4	-1E+10	1	-1E+10	1	-1E+10	1	-1E+10	1	-1E+10	1	-1E+10	1
4902549	106	C	07/21/2023	09:59	-132.484	47.400	0	1305.10	0	2.6850	0	34.4500	0	27.482	0	1290.174	0	10.9	4	3.3	4	-1E+10	1	-1E+10	1	-1E+10	1	-1E+10	1	-1E+10	1	-1E+10	1
4902549	106	C	07/21/2023	09:59	-132.484	47.400	0	1315.20	0	2.6670	0	34.4510	0	27.484	0	1300.127	0	11.2	4	3.4	4	-1E+10	1	-1E+10	1	-1E+10	1	-1E+10	1	-1E+10	1	-1E+10	1
4902549	106	C	07/21/2023	09:59	-132.484	47.400	0	1325.30	0	2.6440	0	34.4540	0	27.489	0	1310.080	0	11.5	4	3.5	4	-1E+10	1	-1E+10	1	-1E+10	1	-1E+10	1	-1E+10	1	-1E+10	1
4902549	106	C	07/21/2023	09:59	-132.484	47.400	0	1335.10	0	2.6270	0	34.4570	0	27.493	0	1319.737	0	11.9	4	3.6	4	-1E+10	1	-1E+10	1	-1E+10	1	-1E+10	1	-1E+10	1	-1E+10	1
4902549	106	C	07/21/2023	09:59	-132.484	47.400	0	1345.40	0	2.6160	0	34.4600	0	27.496	0	1329.886	0	12.4	4	3.8	4	-1E+10	1	-1E+10	1	-1E+10	1	-1E+10	1	-1E+10	1	-1E+10	1
4902549	106	C	07/21/2023	09:59	-132.484	47.400	0	1355.80	0	2.6110	0	34.4650	0	27.500	0	1340.133	0	12.9	4	4.0	4	-1E+10	1	-1E+10	1	-1E+10	1	-1E+10	1	-1E+10	1	-1E+10	1
4902549	106	C	07/21/2023	09:59	-132.484	47.400	0	1365.90	0	2.5800	0	34.4670	0	27.505	0	1350.084	0	13.4	4	4.1	4	-1E+10	1	-1E+10	1	-1E+10	1	-1E+10	1	-1E+10	1	-1E+10	1
4902549	106	C	07/21/2023	09:59	-132.484	47.400	0	1375.60	0	2.5600	0	34.4710	0	27.510	0	1359.640	0	13.9	4	4.2	4	-1E+10	1	-1E+10	1	-1E+10	1	-1E+10	1	-1E+10	1	-1E+10	1
4902549	106	C	07/21/2023	09:59	-132.484	47.400	0	1385.60	0	2.5440	0	34.4740	0	27.514	0	1369.492	0	14.3	4	4.4	4	-1E+10	1	-1E+10	1	-1E+10	1	-1E+10	1	-1E+10	1	-1E+10	1
4902549	106	C	07/21/2023	09:59	-132.484	47.400	0	1395.70	0	2.5270	0	34.4760	0	27.517	0	1379.441	0	14.8	4	4.5	4	-1E+10	1	-1E+10	1	-1E+10	1	-1E+10	1	-1E+10	1	-1E+10	1
4902549	106	C	07/21/2023	09:59	-132.484	47.400	0	1405.30	0	2.5110	0	34.4790	0	27.520	0	1388.898	0	15.3	4	4.7	4	-1E+10	1	-1E+10	1	-1E+10	1	-1E+10	1	-1E+10	1	-1E+10	1
4902549	106	C	07/21/2023	09:59	-132.484	47.400	0	1415.30	0	2.5000	0	34.4810	0	27.523	0	1398.748	0	15.7	4	4.8	4	-1E+10	1	-1E+10	1	-1E+10	1	-1E+10	1	-1E+10	1	-1E+10	1
4902549	106	C	07/21/2023	09:59	-132.484	47.400	0	1425.50	0	2.4920	0	34.4830	0	27.525	0	1408.795	0	16.2	4	4.9	4	-1E+10	1	-1E+10	1	-1E+10	1	-1E+10	1	-1E+10	1	-1E+10	1
4902549	106	C	07/21/2023	09:59	-132.484	47.400	0	1435.50	0	2.4820	0	34.4850	0	27.528	0	1418.644	0	16.7	4	5.1	4	-1E+10	1	-1E+10	1	-1E+10	1	-1E+10	1	-1E+10	1	-1E+10	1
4902549	106	C	07/21/2023	09:59	-132.484	47.400	0	1445.60	0	2.4640	0	34.4880	0	27.532	0	1428.591	0	17.3	4	5.3	4	-1E+10	1	-1E+10	1	-1E+10	1	-1E+10	1	-1E+10	1	-1E+10	1
4902549	106	C	07/21/2023	09:59	-132.484	47.400	0	1455.30	0	2.4410	0	34.4910	0	27.536	0	1438.144	0	17.9	4	5.5	4	-1E+10	1	-1E+10	1	-1E+10	1	-1E+10	1	-1E+10	1	-1E+10	1
4902549	106	C	07/21/2023	09:59	-132.484	47.400	0	1465.10	0	2.4260	0	34.4940	0	27.540	0	1447.795	0	18.6	4	5.7	4	-1E+10	1	-1E+10	1	-1E+10	1	-1E+10	1	-1E+10	1	-1E+10	1
4902549	106	C	07/21/2023	09:59	-132.484	47.400	0	1475.30	0	2.4070	0	34.4970	0	27.544	0	1457.840	0	19.2	4	5.9	4	-1E+10	1	-1E+10	1	-1E+10	1	-1E+10	1	-1E+10	1	-1E+10	1
4902549	106	C	07/21/2023	09:59	-132.484	47.400	0	1485.20	0	2.3930	0	34.5000	0	27.547	0	1467.588	0	19.8	4	6.0	4	-1E+10	1	-1E+10	1	-1E+10	1	-1E+10	1	-1E+10	1	-1E+10	1
4902549	106	C	07/21/2023	09:59	-132.484	47.400	0	1495.30	0	2.3850	0	34.5010	0	27.549	0	1477.533	0	20.2	4	6.1	4	-1E+10	1	-1E+10	1	-1E+10	1	-1E+10	1	-1E+10	1	-1E+10	1
4902549	106	C	07/21/2023	09:59	-132.484	47.400	0	1505.50	0	2.3720	0	34.5040	0	27.552	0	1487.576	0	20.9	4	6.3	4	-1E+10	1	-1E+10	1	-1E+10	1	-1E+10	1	-1E+10	1	-1E+10	1
4902549	106	C	07/21/2023	09:59	-132.484	47.400	0	1515.50	0	2.3590	0	34.5060	0	27.555	0	1497.421	0	21.4	4	6.5	4	-1E+10	1	-1E+10	1	-1E+10	1	-1E+10	1	-1E+10	1	-1E+10	1
4902549	106	C	07/21/2023	09:59	-132.484	47.400	0	1525.50	0	2.3500	0	34.5080	0	27.558	0	1507.266	0	21.9	4	6.7	4	-1E+10	1	-1E+10	1	-1E+10	1	-1E+10	1	-1E+10	1	-1E+10	1
4902549	106	C	07/21/2023	09:59	-132.484	47.400	0	1535.60	0	2.3420	0	34.5090	0	27.559	0	1517.210	0	22.5	4	6.8	4	-1E+10	1	-1E+10	1	-1E+10	1	-1E+10	1	-1E+10	1	-1E+10	1
4902549	106	C	07/21/2023	09:59	-132.484	47.400	0	1545.30	0	2.3300	0	34.5110	0	27.562	0	1526.758	0	23.0	4	7.0	4	-1E+10	1	-1E+10	1	-1E+10	1	-1E+10	1	-1E+10	1	-1E+10	1
4902549	106	C	07/21/2023	09:59	-132.484	47.400	0	1555.20	0	2.3100	0	34.5140	0	27.566	0	1536.504	0	23.9	4	7.3	4	-1E+10	1	-1E+10	1	-1E+10	1	-1E+10	1	-1E+10	1	-1E+10	1
4902549	106	C	07/21/2023	09:59	-132.484	47.400	0	1565.10	0	2.2930	0	34.5170	0	27.570	0	1546.248	0	24.6	4	7.5	4	-1E+10	1	-1E+10	1	-1E+10	1	-1E+10	1	-1E+10	1	-1E+10	1
4902549	106	C	07/21/2023	09:59	-132.484	47.400	0	1575.20	0	2.2810	0	34.5190	0	27.572	0	1556.190	0	25.5	4	7.7	4	-1E+10	1	-1E+10	1	-1E+10	1	-1E+10	1	-1E+10	1	-1E+10	1
4902549	106	C	07/21/2023	09:59	-132.484	47.400	0	1585.40	0	2.2710	0	34.5220	0	27.576	0	1566.229	0	26.6	4	8.1	4	-1E+10	1	-1E+10	1	-1E+10	1	-1E+10	1	-1E+10	1	-1E+10	1
4902549	106	C	07/21/2023	09:59	-132.484	47.400	0	1595.40	0	2.2720	0	34.5260	0	27.579	0	1576.071	0	27.9	4	8.5	4	-1E+10	1	-1E+10	1	-1E+10	1	-1E+10	1	-1E+10	1	-1E+10	1
4902549	106	C	07/21/2023	09:59	-132.484	47.400	0	1605.60	0	2.2650	0	34.5290	0	27.582	0	1586.109	0	28.5	4	8.6	4	-1E+10	1	-1E+10	1	-1E+10	1	-1E+10	1	-1E+10	1	-1E+10	1
4902549	106	C	07/21/2023	09:59	-132.484	47.400	0	1615.50	0	2.2540	0	34.5300	0	27.584	0	1595.852	0	29.1	4	8.8	4	-1E+10	1	-1E+10	1	-1E+10	1	-1E+10	1	-1E+10	1	-1E+10	1
4902549	106	C	07/21/2023	09:59	-132.484	47.400	0	1625.50	0	2.2440	0	34.5320	0	27.586	0	1605.692	0	29.7	4	9.0	4	-1E+10	1	-1E+10	1	-1E+10	1	-1E+10	1	-1E+10	1	-1E+10	1
4902549	106	C	07/21/2023	09:59	-132.484	47.400	0	1635.70	0	2.2260	0	34.5340	0	27.589	0	1615.729	0	30.4	4	9.2	4	-1E+10	1	-1E+10	1	-1E+10	1	-1E+10	1	-1E+10	1	-1E+10	1
4902549	106	C	07/21/2023	09:59	-132.484	47.400	0	1645.70	0	2.2170	0	34.5350	0	27.591	0	1625.568	0	30.9	4	9.4	4	-1E+10	1	-1E+10	1	-1E+10	1	-1E+10	1	-1E+10	1	-1E+10	1
4902549	106	C	07/21/2023	09:59	-132.484	47.400	0	1655.20	0	2.2080	0	34.5370	0	27.593	0	1634.916	0	31.8	4	9.6	4	-1E+10	1	-1E+10	1	-1E+10	1	-1E+10	1	-1E+10	1	-1E+10	1
4902549	106	C	07/21/2023	09:59	-132.484	47.400	0	1665.40	0	2.1930	0	34.5400	0	27.597	0	1644.951	0	32.6	4	9.9	4	-1E+10	1	-1E+10	1	-1E+10	1	-1E+10	1	-1E+10	1	-1E+10	1
4902549	106	C	07/21/2023	09:59	-132.484	47.400	0	1675.80	0	2.1820	0	34.5420	0	27.599	0	1655.183	0	33.5	4	10.2	4	-1E+10	1	-1E+10	1	-1E+10	1	-1E+10	1	-1E+10	1	-1E+10	1
4902549	106	C	07/21/2023	09:59	-132.484	47.400	0	1685.40	0	2.1660	0	34.5450	0	27.603	0	1664.627	0	34.3	4	10.4	4	-1E+10	1	-1E+10	1	-1E+10	1	-1E+10	1	-1E+10	1	-1E+10	1
4902549	106	C	07/21/2023	09:59	-132.484	47.400	0	1695.40	0	2.1570	0	34.5460	0	27.605	0	1674.464	0	34.8	4	10.5	4	-1E+10	1	-1E+10	1	-1E+10	1	-1E+10	1	-1E+10	1	-1E+10	1
4902549	106	C	07/21/2023	09:59	-132.484	47.400	0	1705.40	0	2.1470	0	34.5480	0	27.607	0	1684.301	0	35.5	4	10.8	4	-1E+10	1	-1E+10	1	-1E+10	1	-1E+10	1	-1E+10	1	-1E+10	1
4902549	106	C	07/21/2023	09:59	-132.484	47.400	0	1715.10	0	2.1350	0	34.5500	0	27.610	0	1693.842	0	36.2	4	11.0	4	-1E+10	1	-1E+10	1	-1E+10	1	-1E+10	1	-1E+10	1	-1E+10	1
4902549	106	C	07/21/2023	09:59	-132.484	47.400	0	1725.10	0	2.1280	0	34.5520	0	27.612	0	1703.678	0	36.7	4	11.1	4	-1E+10	1	-1E+10	1	-1E+10	1	-1E+10	1	-1E+10	1	-1E+10	1
4902549	106	C	07/21/2023	09:59	-132.484	47.400	0	1735.30	0	2.1220	0	34.5520	0	27.612	0	1713.710	0	37.2	4	11.2	4	-1E+10	1	-1E+10	1	-1E+10	1	-1E+10	1	-1E+10	1	-1E+10	1
4902549	106	C	07/21/2023	09:59	-132.484	47.400	0	1745.20	0	2.1140	0	34.5540	0	27.615	0	1723.447	0	37.9	4	11.4	4	-1E+10	1	-1E+10	1	-1E+10	1	-1E+10	1	-1E+10	1	-1E+10	1
4902549	106	C	07/21/2023	09:59	-132.484	47.400	0	1755.20	0	2.1000	0	34.5560	0	27.617	0	1733.282	0	38.6	4	11.7	4	-1E+10	1	-1E+10	1	-1E+10	1	-1E+10	1	-1E+10	1	-1E+10	1
4902549	106	C	07/21/2023	09:59	-132.484	47.400	0	1765.30	0	2.0880	0	34.5570	0	27.619	0	1743.214	0	39.4	4	11.9	4	-1E+10	1	-1E+10	1	-1E+10	1	-1E+10	1	-1E+10	1	-1E+10	1
4902549	106	C	07/21/2023	09:59	-132.484	47.400	0	1775.20	0	2.0800	0	34.5590	0	27.621	0	1752.949	0	40.2	4	12.1	4	-1E+10	1	-1E+10	1	-1E+10	1	-1E+10	1	-1E+10	1	-1E+10	1
4902549	106	C	07/21/2023	09:59	-132.484	47.400	0	1785.10	0	2.0730	0	34.5610	0	27.624	0	1762.684	0	40.9	4	12.3	4	-1E+10	1	-1E+10	1	-1E+10	1	-1E+10	1	-1E+10	1	-1E+10	1
4902549	106	C	07/21/2023	09:59	-132.484	47.400	0	1795.10	0	2.0650	0	34.5630	0	27.626	0	1772.517	0	41.5	4	12.5	4	-1E+10	1	-1E+10	1	-1E+10	1	-1E+10	1	-1E+10	1	-1E+10	1
4902549	106	C	07/21/2023	09:59	-132.484	47.400	0	1805.20	0	2.0570	0	34.5640	0	27.627	0	1782.447	0	42.0	4	12.7	4	-1E+10	1	-1E+10	1	-1E+10	1	-1E+10	1	-1E+10	1	-1E+10	1
4902549	106	C	07/21/2023	09:59	-132.484	47.400	0	1815.50	0	2.0500	0	34.5650	0	27.629	0	1792.574	0	42.5	4	12.8	4	-1E+10	1	-1E+10	1	-1E+10	1	-1E+10	1	-1E+10	1	-1E+10	1
4902549	106	C	07/21/2023	09:59	-132.484	47.400	0	1825.40	0	2.0410	0	34.5660	0	27.630	0	1802.307	0	43.1	4	13.0	4	-1E+10	1	-1E+10	1	-1E+10	1	-1E+10	1	-1E+10	1	-1E+10	1
4902549	106	C	07/21/2023	09:59	-132.484	47.400	0	1835.10	0	2.0300	0	34.5680	0	27.633	0	1811.843	0	43.8	4	13.2	4	-1E+10	1	-1E+10	1	-1E+10	1	-1E+10	1	-1E+10	1	-1E+10	1
4902549	106	C	07/21/2023	09:59	-132.484	47.400	0	1845.40	0	2.0220	0	34.5690	0	27.634	0	1821.969	0	44.5	4	13.4	4	-1E+10	1	-1E+10	1	-1E+10	1	-1E+10	1	-1E+10	1	-1E+10	1
4902549	106	C	07/21/2023	09:59	-132.484	47.400	0	1855.80	0	2.0150	0	34.5700	0	27.636	0	1832.192	0	45.3	4	13.7	4	-1E+10	1	-1E+10	1	-1E+10	1	-1E+10	1	-1E+10	1	-1E+10	1
4902549	106	C	07/21/2023	09:59	-132.484	47.400	0	1865.30	0	2.0010	0	34.5730	0	27.639	0	1841.530	0	46.4	4	14.0	4	-1E+10	1	-1E+10	1	-1E+10	1	-1E+10	1	-1E+10	1	-1E+10	1
4902549	106	C	07/21/2023	09:59	-132.484	47.400	0	1875.10	0	1.9910	0	34.5750	0	27.642	0	1851.162	0	47.1	4	14.2	4	-1E+10	1	-1E+10	1	-1E+10	1	-1E+10	1	-1E+10	1	-1E+10	1
4902549	106	C	07/21/2023	09:59	-132.484	47.400	0	1885.40	0	1.9790	0	34.5770	0	27.644	0	1861.286	0	47.9	4	14.4	4	-1E+10	1	-1E+10	1	-1E+10	1	-1E+10	1	-1E+10	1	-1E+10	1
4902549	106	C	07/21/2023	09:59	-132.484	47.400	0	1895.80	0	1.9740	0	34.5780	0	27.646	0	1871.507	0	48.3	4	14.6	4	-1E+10	1	-1E+10	1	-1E+10	1	-1E+10	1	-1E+10	1	-1E+10	1
4902549	106	C	07/21/2023	09:59	-132.484	47.400	0	1905.40	0	1.9670	0	34.5790	0	27.647	0	1880.942	0	48.8	4	14.7	4	-1E+10	1	-1E+10	1	-1E+10	1	-1E+10	1	-1E+10	1	-1E+10	1
4902549	106	C	07/21/2023	09:59	-132.484	47.400	0	1915.40	0	1.9630	0	34.5800	0	27.648	0	1890.769	0	49.5	4	14.9	4	-1E+10	1	-1E+10	1	-1E+10	1	-1E+10	1	-1E+10	1	-1E+10	1
4902549	106	C	07/21/2023	09:59	-132.484	47.400	0	1925.60	0	1.9550	0	34.5820	0	27.650	0	1900.792	0	50.1	4	15.1	4	-1E+10	1	-1E+10	1	-1E+10	1	-1E+10	1	-1E+10	1	-1E+10	1
4902549	106	C	07/21/2023	09:59	-132.484	47.400	0	1935.60	0	1.9510	0	34.5830	0	27.652	0	1910.618	0	50.6	4	15.2	4	-1E+10	1	-1E+10	1	-1E+10	1	-1E+10	1	-1E+10	1	-1E+10	1
4902549	106	C	07/21/2023	09:59	-132.484	47.400	0	1945.60	0	1.9440	0	34.5840	0	27.653	0	1920.444	0	51.2	4	15.4	4	-1E+10	1	-1E+10	1	-1E+10	1	-1E+10	1	-1E+10	1	-1E+10	1
4902549	106	C	07/21/2023	09:59	-132.484	47.400	0	1955.50	0	1.9360	0	34.5850	0	27.654	0	1930.171	0	51.8	4	15.6	4	-1E+10	1	-1E+10	1	-1E+10	1	-1E+10	1	-1E+10	1	-1E+10	1
4902549	106	C	07/21/2023	09:59	-132.484	47.400	0	1965.50	0	1.9310	0	34.5860	0	27.656	0	1939.996	0	52.2	4	15.7	4	-1E+10	1	-1E+10	1	-1E+10	1	-1E+10	1	-1E+10	1	-1E+10	1
4902549	106	C	07/21/2023	09:59	-132.484	47.400	0	1975.60	0	1.9260	0	34.5870	0	27.657	0	1949.919	0	52.6	4	15.8	4	-1E+10	1	-1E+10	1	-1E+10	1	-1E+10	1	-1E+10	1	-1E+10	1
4902549	106	C	07/21/2023	09:59	-132.484	47.400	0	1985.30	0	1.9230	0	34.5880	0	27.658	0	1959.449	0	52.9	4	15.9	4	-1E+10	1	-1E+10	1	-1E+10	1	-1E+10	1	-1E+10	1	-1E+10	1
4902549	106	C	07/21/2023	09:59	-132.484	47.400	0	1995.10	0	1.9190	0	34.5890	0	27.659	0	1969.076	0	53.3	4	16.0	4	-1E+10	1	-1E+10	1	-1E+10	1	-1E+10	1	-1E+10	1	-1E+10	1
4902549	106	C	07/21/2023	09:59	-132.484	47.400	0	2005.30	0	1.9130	0	34.5900	0	27.660	0	1979.095	0	53.8	4	16.2	4	-1E+10	1	-1E+10	1	-1E+10	1	-1E+10	1	-1E+10	1	-1E+10	1
4902549	106	C	07/21/2023	09:59	-132.484	47.400	0	2015.40	0	1.9060	0	34.5910	0	27.662	0	1989.016	0	54.2	4	16.3	4	-1E+10	1	-1E+10	1	-1E+10	1	-1E+10	1	-1E+10	1	-1E+10	1
4902549	106	C	07/21/2023	09:59	-132.484	47.400	0	2025.80	0	1.9010	0	34.5920	0	27.663	0	1999.231	0	54.4	4	16.3	4	-1E+10	1	-1E+10	1	-1E+10	1	-1E+10	1	-1E+10	1	-1E+10	1
4902549	106	C	07/21/2023	09:59	-132.484	47.400	0	2032.10	0	1.8990	0	34.5930	0	27.664	0	2005.419	0	54.0	4	16.2	4	-1E+10	1	-1E+10	1	-1E+10	1	-1E+10	1	-1E+10	1	-1E+10	1
4902549	106	C	07/21/2023	09:59	-132.484	47.400	0																										
4902549	107	C	07/31/2023	15:06	-132.453	47.517	0	0.20	0	16.4620	0	32.3250	0	23.587	0	0.198	0	251.4	4	102.5	4	-1E+10	1	-1E+10	1	-1E+10	1	-1E+10	1	-1E+10	1	-1E+10	1
4902549	107	C	07/31/2023	15:06	-132.453	47.517	0	0.30	0	16.4600	0	32.3430	0	23.602	0	0.297	0	246.0	4	100.3	4	-1E+10	1	-1E+10	1	-1E+10	1	-1E+10	1	-1E+10	1	-1E+10	1
4902549	107	C	07/31/2023	15:06	-132.453	47.517	0	1.10	0	16.4630	0	32.3470	0	23.604	0	1.091	0	246.1	4	100.4	4	-1E+10	1	-1E+10	1	-1E+10	1	-1E+10	1	-1E+10	1	-1E+10	1
4902549	107	C	07/31/2023	15:06	-132.453	47.517	0	2.00	0	16.4640	0	32.3480	0	23.605	0	1.983	0	246.2	4	100.4	4	-1E+10	1	-1E+10	1	-1E+10	1	-1E+10	1	-1E+10	1	-1E+10	1
4902549	107	C	07/31/2023	15:06	-132.453	47.517	0	2.90	0	16.4640	0	32.3480	0	23.605	0	2.876	0	246.3	4	100.4	4	-1E+10	1	-1E+10	1	-1E+10	1	-1E+10	1	-1E+10	1	-1E+10	1
4902549	107	C	07/31/2023	15:06	-132.453	47.517	0	3.90	0	16.4640	0	32.3500	0	23.606	0	3.867	0	246.3	4	100.4	4	-1E+10	1	-1E+10	1	-1E+10	1	-1E+10	1	-1E+10	1	-1E+10	1
4902549	107	C	07/31/2023	15:06	-132.453	47.517	0	4.80	0	16.4630	0	32.3510	0	23.607	0	4.760	0	246.5	4	100.5	4	-1E+10	1	-1E+10	1	-1E+10	1	-1E+10	1	-1E+10	1	-1E+10	1
4902549	107	C	07/31/2023	15:06	-132.453	47.517	0	5.90	0	16.4630	0	32.3510	0	23.607	0	5.851	0	246.6	4	100.5	4	-1E+10	1	-1E+10	1	-1E+10	1	-1E+10	1	-1E+10	1	-1E+10	1
4902549	107	C	07/31/2023	15:06	-132.453	47.517	0	6.80	0	16.4630	0	32.3510	0	23.607	0	6.743	0	246.7	4	100.6	4	-1E+10	1	-1E+10	1	-1E+10	1	-1E+10	1	-1E+10	1	-1E+10	1
4902549	107	C	07/31/2023	15:06	-132.453	47.517	0	7.90	0	16.4620	0	32.3520	0	23.608	0	7.834	0	247.0	4	100.7	4	-1E+10	1	-1E+10	1	-1E+10	1	-1E+10	1	-1E+10	1	-1E+10	1
4902549	107	C	07/31/2023	15:06	-132.453	47.517	0	9.00	0	16.4620	0	32.3510	0	23.608	0	8.925	0	247.2	4	100.8	4	-1E+10	1	-1E+10	1	-1E+10	1	-1E+10	1	-1E+10	1	-1E+10	1
4902549	107	C	07/31/2023	15:06	-132.453	47.517	0	10.10	0	16.4620	0	32.3520	0	23.608	0	10.015	0	247.5	4	100.9	4	-1E+10	1	-1E+10	1	-1E+10	1	-1E+10	1	-1E+10	1	-1E+10	1
4902549	107	C	07/31/2023	15:06	-132.453	47.517	0	10.80	0	16.4620	0	32.3510	0	23.608	0	10.710	0	247.6	4	101.0	4	-1E+10	1	-1E+10	1	-1E+10	1	-1E+10	1	-1E+10	1	-1E+10	1
4902549	107	C	07/31/2023	15:06	-132.453	47.517	0	11.80	0	16.4600	0	32.3510	0	23.608	0	11.701	0	247.9	4	101.1	4	-1E+10	1	-1E+10	1	-1E+10	1	-1E+10	1	-1E+10	1	-1E+10	1
4902549	107	C	07/31/2023	15:06	-132.453	47.517	0	13.00	0	16.4600	0	32.3510	0	23.608	0	12.891	0	248.4	4	101.3	4	-1E+10	1	-1E+10	1	-1E+10	1	-1E+10	1	-1E+10	1	-1E+10	1
4902549	107	C	07/31/2023	15:06	-132.453	47.517	0	13.70	0	16.4560	0	32.3510	0	23.609	0	13.585	0	248.8	4	101.4	4	-1E+10	1	-1E+10	1	-1E+10	1	-1E+10	1	-1E+10	1	-1E+10	1
4902549	107	C	07/31/2023	15:06	-132.453	47.517	0	14.80	0	16.4390	0	32.3500	0	23.612	0	14.676	0	249.4	4	101.6	4	-1E+10	1	-1E+10	1	-1E+10	1	-1E+10	1	-1E+10	1	-1E+10	1
4902549	107	C	07/31/2023	15:06	-132.453	47.517	0	16.10	0	16.4200	0	32.3500	0	23.617	0	15.965	0	250.2	4	101.9	4	-1E+10	1	-1E+10	1	-1E+10	1	-1E+10	1	-1E+10	1	-1E+10	1
4902549	107	C	07/31/2023	15:06	-132.453	47.517	0	17.30	0	16.4030	0	32.3510	0	23.621	0	17.155	0	251.4	4	102.4	4	-1E+10	1	-1E+10	1	-1E+10	1	-1E+10	1	-1E+10	1	-1E+10	1
4902549	107	C	07/31/2023	15:06	-132.453	47.517	0	18.10	0	16.3780	0	32.3490	0	23.626	0	17.948	0	252.9	4	102.9	4	-1E+10	1	-1E+10	1	-1E+10	1	-1E+10	1	-1E+10	1	-1E+10	1
4902549	107	C	07/31/2023	15:06	-132.453	47.517	0	19.00	0	16.3340	0	32.3480	0	23.635	0	18.841	0	254.7	4	103.6	4	-1E+10	1	-1E+10	1	-1E+10	1	-1E+10	1	-1E+10	1	-1E+10	1
4902549	107	C	07/31/2023	15:06	-132.453	47.517	0	20.10	0	16.1650	0	32.3410	0	23.668	0	19.931	0	259.5	4	105.2	4	-1E+10	1	-1E+10	1	-1E+10	1	-1E+10	1	-1E+10	1	-1E+10	1
4902549	107	C	07/31/2023	15:06	-132.453	47.517	0	21.00	0	15.5150	0	32.3470	0	23.817	0	20.824	0	265.2	4	106.2	4	-1E+10	1	-1E+10	1	-1E+10	1	-1E+10	1	-1E+10	1	-1E+10	1
4902549	107	C	07/31/2023	15:06	-132.453	47.517	0	22.00	0	14.9760	0	32.3560	0	23.941	0	21.815	0	269.8	4	106.9	4	-1E+10	1	-1E+10	1	-1E+10	1	-1E+10	1	-1E+10	1	-1E+10	1
4902549	107	C	07/31/2023	15:06	-132.453	47.517	0	23.20	0	13.9540	0	32.3580	0	24.157	0	23.005	0	276.3	4	107.2	4	-1E+10	1	-1E+10	1	-1E+10	1	-1E+10	1	-1E+10	1	-1E+10	1
4902549	107	C	07/31/2023	15:06	-132.453	47.517	0	24.10	0	13.2360	0	32.3760	0	24.316	0	23.897	0	280.5	4	107.3	4	-1E+10	1	-1E+10	1	-1E+10	1	-1E+10	1	-1E+10	1	-1E+10	1
4902549	107	C	07/31/2023	15:06	-132.453	47.517	0	25.10	0	12.7450	0	32.3740	0	24.410	0	24.889	0	283.1	4	107.2	4	-1E+10	1	-1E+10	1	-1E+10	1	-1E+10	1	-1E+10	1	-1E+10	1
4902549	107	C	07/31/2023	15:06	-132.453	47.517	0	26.00	0	12.4790	0	32.3750	0	24.462	0	25.781	0	284.6	4	107.2	4	-1E+10	1	-1E+10	1	-1E+10	1	-1E+10	1	-1E+10	1	-1E+10	1
4902549	107	C	07/31/2023	15:06	-132.453	47.517	0	26.90	0	12.1680	0	32.3780	0	24.523	0	26.674	0	285.7	4	106.9	4	-1E+10	1	-1E+10	1	-1E+10	1	-1E+10	1	-1E+10	1	-1E+10	1
4902549	107	C	07/31/2023	15:06	-132.453	47.517	0	28.00	0	11.8020	0	32.3810	0	24.593	0	27.764	0	287.5	4	106.8	4	-1E+10	1	-1E+10	1	-1E+10	1	-1E+10	1	-1E+10	1	-1E+10	1
4902549	107	C	07/31/2023	15:06	-132.453	47.517	0	29.00	0	11.2730	0	32.4150	0	24.716	0	28.756	0	290.0	4	106.5	4	-1E+10	1	-1E+10	1	-1E+10	1	-1E+10	1	-1E+10	1	-1E+10	1
4902549	107	C	07/31/2023	15:06	-132.453	47.517	0	29.90	0	11.1010	0	32.3920	0	24.729	0	29.648	0	291.1	4	106.5	4	-1E+10	1	-1E+10	1	-1E+10	1	-1E+10	1	-1E+10	1	-1E+10	1
4902549	107	C	07/31/2023	15:06	-132.453	47.517	0	31.10	0	10.9760	0	32.3910	0	24.750	0	30.838	0	291.0	4	106.2	4	-1E+10	1	-1E+10	1	-1E+10	1	-1E+10	1	-1E+10	1	-1E+10	1
4902549	107	C	07/31/2023	15:06	-132.453	47.517	0	32.10	0	10.8960	0	32.3870	0	24.761	0	31.830	0	290.5	4	105.8	4	-1E+10	1	-1E+10	1	-1E+10	1	-1E+10	1	-1E+10	1	-1E+10	1
4902549	107	C	07/31/2023	15:06	-132.453	47.517	0	33.00	0	10.7790	0	32.3880	0	24.782	0	32.722	0	290.0	4	105.4	4	-1E+10	1	-1E+10	1	-1E+10	1	-1E+10	1	-1E+10	1	-1E+10	1
4902549	107	C	07/31/2023	15:06	-132.453	47.517	0	34.00	0	10.4040	0	32.3890	0	24.847	0	33.713	0	291.4	4	105.1	4	-1E+10	1	-1E+10	1	-1E+10	1	-1E+10	1	-1E+10	1	-1E+10	1
4902549	107	C	07/31/2023	15:06	-132.453	47.517	0	35.00	0	10.3350	0	32.3840	0	24.855	0	34.705	0	290.6	4	104.6	4	-1E+10	1	-1E+10	1	-1E+10	1	-1E+10	1	-1E+10	1	-1E+10	1
4902549	107	C	07/31/2023	15:06	-132.453	47.517	0	36.10	0	10.3110	0	32.3820	0	24.857	0	35.796	0	289.0	4	104.0	4	-1E+10	1	-1E+10	1	-1E+10	1	-1E+10	1	-1E+10	1	-1E+10	1
4902549	107	C	07/31/2023	15:06	-132.453	47.517	0	36.90	0	10.2570	0	32.3780	0	24.863	0	36.589	0	288.3	4	103.6	4	-1E+10	1	-1E+10	1	-1E+10	1	-1E+10	1	-1E+10	1	-1E+10	1
4902549	107	C	07/31/2023	15:06	-132.453	47.517	0	38.10	0	9.9690	0	32.3800	0	24.913	0	37.778	0	287.8	4	102.8	4	-1E+10	1	-1E+10	1	-1E+10	1	-1E+10	1	-1E+10	1	-1E+10	1
4902549	107	C	07/31/2023	15:06	-132.453	47.517	0	38.80	0	9.8290	0	32.3810	0	24.937	0	38.472	0	287.8	4	102.5	4	-1E+10	1	-1E+10	1	-1E+10	1	-1E+10	1	-1E+10	1	-1E+10	1
4902549	107	C	07/31/2023	15:06	-132.453	47.517	0	39.80	0	9.7180	0	32.3840	0	24.957	0	39.464	0	287.1	4	102.0	4	-1E+10	1	-1E+10	1	-1E+10	1	-1E+10	1	-1E+10	1	-1E+10	1
4902549	107	C	07/31/2023	15:06	-132.453	47.517	0	41.10	0	9.6600	0	32.3840	0	24.967	0	40.753	0	285.3	4	101.2	4	-1E+10	1	-1E+10	1	-1E+10	1	-1E+10	1	-1E+10	1	-1E+10	1
4902549	107	C	07/31/2023	15:06	-132.453	47.517	0	42.00	0	9.5990	0	32.3830	0	24.976	0	41.645	0	283.6	4	100.5	4	-1E+10	1	-1E+10	1	-1E+10	1	-1E+10	1	-1E+10	1	-1E+10	1
4902549	107	C	07/31/2023	15:06	-132.453	47.517	0	43.00	0	9.5080	0	32.3860	0	24.993	0	42.637	0	282.1	4	99.7	4	-1E+10	1	-1E+10	1	-1E+10	1	-1E+10	1	-1E+10	1	-1E+10	1
4902549	107	C	07/31/2023	15:06	-132.453	47.517	0	44.20	0	9.3950	0	32.3890	0	25.013	0	43.826	0	280.6	4	99.0	4	-1E+10	1	-1E+10	1	-1E+10	1	-1E+10	1	-1E+10	1	-1E+10	1
4902549	107	C	07/31/2023	15:06	-132.453	47.517	0	45.10	0	9.2140	0	32.3920	0	25.044	0	44.719	0	280.4	4	98.5	4	-1E+10	1	-1E+10	1	-1E+10	1	-1E+10	1	-1E+10	1	-1E+10	1
4902549	107	C	07/31/2023	15:06	-132.453	47.517	0	46.00	0	9.1640	0	32.3890	0	25.050	0	45.611	0	279.5	4	98.1	4	-1E+10	1	-1E+10	1	-1E+10	1	-1E+10	1	-1E+10	1	-1E+10	1
4902549	107	C	07/31/2023	15:06	-132.453	47.517	0	46.70	0	9.1510	0	32.3910	0	25.053	0	46.305	0	278.7	4	97.8	4	-1E+10	1	-1E+10	1	-1E+10	1	-1E+10	1	-1E+10	1	-1E+10	1
4902549	107	C	07/31/2023	15:06	-132.453	47.517	0	47.70	0	9.0930	0	32.3890	0	25.061	0	47.296	0	278.0	4	97.4	4	-1E+10	1	-1E+10	1	-1E+10	1	-1E+10	1	-1E+10	1	-1E+10	1
4902549	107	C	07/31/2023	15:06	-132.453	47.517	0	48.70	0	9.0570	0	32.3900	0	25.067	0	48.288	0	276.9	4	97.0	4	-1E+10	1	-1E+10	1	-1E+10	1	-1E+10	1	-1E+10	1	-1E+10	1
4902549	107	C	07/31/2023	15:06	-132.453	47.517	0	49.70	0	9.0010	0	32.3930	0	25.078	0	49.279	0	276.1	4	96.5	4	-1E+10	1	-1E+10	1	-1E+10	1	-1E+10	1	-1E+10	1	-1E+10	1
4902549	107	C	07/31/2023	15:06	-132.453	47.517	0	50.80	0	8.9300	0	32.3960	0	25.092	0	50.370	0	275.4	4	96.2	4	-1E+10	1	-1E+10	1	-1E+10	1	-1E+10	1	-1E+10	1	-1E+10	1
4902549	107	C	07/31/2023	15:06	-132.453	47.517	0	51.90	0	8.9090	0	32.3980	0	25.096	0	51.460	0	274.3	4	95.7	4	-1E+10	1	-1E+10	1	-1E+10	1	-1E+10	1	-1E+10	1	-1E+10	1
4902549	107	C	07/31/2023	15:06	-132.453	47.517	0	53.00	0	8.8900	0	32.3980	0	25.099	0	52.551	0	273.0	4	95.2	4	-1E+10	1	-1E+10	1	-1E+10	1	-1E+10	1	-1E+10	1	-1E+10	1
4902549	107	C	07/31/2023	15:06	-132.453	47.517	0	54.10	0	8.8580	0	32.3980	0	25.104	0	53.641	0	271.5	4	94.7	4	-1E+10	1	-1E+10	1	-1E+10	1	-1E+10	1	-1E+10	1	-1E+10	1
4902549	107	C	07/31/2023	15:06	-132.453	47.517	0	55.10	0	8.7210	0	32.4050	0	25.131	0	54.633	0	271.2	4	94.3	4	-1E+10	1	-1E+10	1	-1E+10	1	-1E+10	1	-1E+10	1	-1E+10	1
4902549	107	C	07/31/2023	15:06	-132.453	47.517	0	56.00	0	8.6300	0	32.4040	0	25.144	0	55.525	0	271.2	4	94.1	4	-1E+10	1	-1E+10	1	-1E+10	1	-1E+10	1	-1E+10	1	-1E+10	1
4902549	107	C	07/31/2023	15:06	-132.453	47.517	0	56.90	0	8.5420	0	32.4140	0	25.165	0	56.417	0	271.1	4	93.8	4	-1E+10	1	-1E+10	1	-1E+10	1	-1E+10	1	-1E+10	1	-1E+10	1
4902549	107	C	07/31/2023	15:06	-132.453	47.517	0	57.80	0	8.4670	0	32.4050	0	25.169	0	57.309	0	271.1	4	93.7	4	-1E+10	1	-1E+10	1	-1E+10	1	-1E+10	1	-1E+10	1	-1E+10	1
4902549	107	C	07/31/2023	15:06	-132.453	47.517	0	59.10	0	8.4570	0	32.4030	0	25.169	0	58.598	0	270.6	4	93.5	4	-1E+10	1	-1E+10	1	-1E+10	1	-1E+10	1	-1E+10	1	-1E+10	1
4902549	107	C	07/31/2023	15:06	-132.453	47.517	0	60.00	0	8.4380	0	32.4040	0	25.173	0	59.490	0	270.2	4	93.3	4	-1E+10	1	-1E+10	1	-1E+10	1	-1E+10	1	-1E+10	1	-1E+10	1
4902549	107	C	07/31/2023	15:06	-132.453	47.517	0	60.90	0	8.3780	0	32.4070	0	25.184	0	60.383	0	270.0	4	93.1	4	-1E+10	1	-1E+10	1	-1E+10	1	-1E+10	1	-1E+10	1	-1E+10	1
4902549	107	C	07/31/2023	15:06	-132.453	47.517	0	62.10	0	8.2950	0	32.4070	0	25.196	0	61.572	0	270.1	4	93.0	4	-1E+10	1	-1E+10	1	-1E+10	1	-1E+10	1	-1E+10	1	-1E+10	1
4902549	107	C	07/31/2023	15:06	-132.453	47.517	0	63.00	0	8.2460	0	32.4120	0	25.207	0	62.465	0	270.1	4	92.9	4	-1E+10	1	-1E+10	1	-1E+10	1	-1E+10	1	-1E+10	1	-1E+10	1
4902549	107	C	07/31/2023	15:06	-132.453	47.517	0	63.90	0	8.1820	0	32.4050	0	25.211	0	63.357	0	270.2	4	92.8	4	-1E+10	1	-1E+10	1	-1E+10	1	-1E+10	1	-1E+10	1	-1E+10	1
4902549	107	C	07/31/2023	15:06	-132.453	47.517	0	65.00	0	8.1590	0	32.4050	0	25.214	0	64.447	0	270.1	4	92.7	4	-1E+10	1	-1E+10	1	-1E+10	1	-1E+10	1	-1E+10	1	-1E+10	1
4902549	107	C	07/31/2023	15:06	-132.453	47.517	0	66.00	0	8.1370	0	32.4060	0	25.218	0	65.439	0	269.8	4	92.6	4	-1E+10	1	-1E+10	1	-1E+10	1	-1E+10	1	-1E+10	1	-1E+10	1
4902549	107	C	07/31/2023	15:06	-132.453	47.517	0	67.00	0	8.0910	0	32.4060	0	25.225	0	66.430	0	269.7	4	92.4	4	-1E+10	1	-1E+10	1	-1E+10	1	-1E+10	1	-1E+10	1	-1E+10	1
4902549	107	C	07/31/2023	15:06	-132.453	47.517	0	68.10	0	8.0210	0	32.4040	0	25.234	0	67.520	0	269.8	4	92.3	4	-1E+10	1	-1E+10	1	-1E+10	1	-1E+10	1	-1E+10	1	-1E+10	1
4902549	107	C	07/31/2023	15:06	-132.453	47.517	0	69.10	0	7.9900	0	32.4040	0	25.238	0	68.512	0	269.9	4	92.3	4	-1E+10	1	-1E+10	1	-1E+10	1	-1E+10	1	-1E+10	1	-1E+10	1
4902549	107	C	07/31/2023	15:06	-132.453	47.517	0	70.10	0	7.9470	0	32.4040	0	25.244	0	69.503	0	270.1	4	92.3	4	-1E+10	1	-1E+10	1	-1E+10	1	-1E+10	1	-1E+10	1	-1E+10	1
4902549	107	C	07/31/2023	15:06	-132.453	47.517	0	70.90	0	7.9100	0	32.3950	0	25.243	0	70.296	0	270.3	4	92.2	4	-1E+10	1	-1E+10	1	-1E+10	1	-1E+10	1	-1E+10	1	-1E+10	1
4902549	107	C	07/31/2023	15:06	-132.453	47.517	0	71.70	0	7.8910	0	32.3960	0	25.246	0	71.089	0	270.6	4	92.3	4	-1E+10	1	-1E+10	1	-1E+10	1	-1E+10	1	-1E+10	1	-1E+10	1
4902549	107	C	07/31/2023	15:06	-132.453	47.517	0	72.80	0	7.8340	0	32.3950	0	25.254	0	72.180	0	271.2	4	92.4	4	-1E+10	1	-1E+10	1	-1E+10	1	-1E+10	1	-1E+10	1	-1E+10	1
4902549	107	C	07/31/2023	15:06	-132.453	47.517	0	73.80	0	7.8610	0	32.4040	0	25.257	0	73.171	0	271.4	4	92.5	4	-1E+10	1	-1E+10	1	-1E+10	1	-1E+10	1	-1E+10	1	-1E+10	1
4902549	107	C	07/31/2023	15:06	-132.453	47.517	0	74.90	0	7.8870	0	32.4130	0	25.260	0	74.261	0	271.5	4	92.6	4	-1E+10	1	-1E+10	1	-1E+10	1	-1E+10	1	-1E+10	1	-1E+10	1
4902549	107	C	07/31/2023	15:06	-132.453	47.517	0	76.10	0	7.9010	0	32.4250	0	25.268	0	75.451	0	271.2	4	92.6	4	-1E+10	1	-1E+10	1	-1E+10	1	-1E+10	1	-1E+10	1	-1E+10	1
4902549	107	C	07/31/2023	15:06	-132.453	47.517	0	77.00	0	7.8950	0	32.4270	0	25.270	0	76.343	0	270.6	4	92.3	4	-1E+10	1	-1E+10	1	-1E+10	1	-1E+10	1	-1E+10	1	-1E+10	1
4902549	107	C	07/31/2023	15:06	-132.453	47.517	0	77.90	0	7.8680	0	32.4280	0	25.275	0	77.235	0	270.2	4	92.2	4	-1E+10	1	-1E+10	1	-1E+10	1	-1E+10	1	-1E+10	1	-1E+10	1
4902549	107	C	07/31/2023	15:06	-132.453	47.517	0	79.00	0	7.7960	0	32.4240	0	25.282	0	78.326	0	269.7	4	91.8	4	-1E+10	1	-1E+10	1	-1E+10	1	-1E+10	1	-1E+10	1	-1E+10	1
4902549	107	C	07/31/2023	15:06	-132.453	47.517	0	79.90	0	7.7430	0	32.4190	0	25.285	0	79.218	0	269.5	4	91.7	4	-1E+10	1	-1E+10	1	-1E+10	1	-1E+10	1	-1E+10	1	-1E+10	1
4902549	107	C	07/31/2023	15:06	-132.453	47.517	0	80.80	0	7.7590	0	32.4260	0	25.289	0	80.110	0	269.3	4	91.6	4	-1E+10	1	-1E+10	1	-1E+10	1	-1E+10	1	-1E+10	1	-1E+10	1
4902549	107	C	07/31/2023	15:06	-132.453	47.517	0	82.10	0	7.7170	0	32.4290	0	25.297	0	81.398	0	269.6	4	91.6	4	-1E+10	1	-1E+10	1	-1E+10	1	-1E+10	1	-1E+10	1	-1E+10	1
4902549	107	C	07/31/2023	15:06	-132.453	47.517	0	83.00	0	7.6810	0	32.4320	0	25.304	0	82.291	0	270.3	4	91.8	4	-1E+10	1	-1E+10	1	-1E+10	1	-1E+10	1	-1E+10	1	-1E+10	1
4902549	107	C	07/31/2023	15:06	-132.453	47.517	0	84.00	0	7.6070	0	32.4350	0	25.317	0	83.282	0	278.0	4	94.3	4	-1E+10	1	-1E+10	1	-1E+10	1	-1E+10	1	-1E+10	1	-1E+10	1
4902549	107	C	07/31/2023	15:06	-132.453	47.517	0	85.00	0	7.5720	0	32.4330	0	25.320	0	84.273	0	278.0	4	94.2	4	-1E+10	1	-1E+10	1	-1E+10	1	-1E+10	1	-1E+10	1	-1E+10	1
4902549	107	C	07/31/2023	15:06	-132.453	47.517	0	85.90	0	7.5540	0	32.4310	0	25.321	0	85.165	0	277.9	4	94.1	4	-1E+10	1	-1E+10	1	-1E+10	1	-1E+10	1	-1E+10	1	-1E+10	1
4902549	107	C	07/31/2023	15:06	-132.453	47.517	0	87.10	0	7.5180	0	32.4290	0	25.325	0	86.355	0	277.5	4	93.9	4	-1E+10	1	-1E+10	1	-1E+10	1	-1E+10	1	-1E+10	1	-1E+10	1
4902549	107	C	07/31/2023	15:06	-132.453	47.517	0	88.10	0	7.4930	0	32.4290	0	25.328	0	87.346	0	277.1	4	93.7	4	-1E+10	1	-1E+10	1	-1E+10	1	-1E+10	1	-1E+10	1	-1E+10	1
4902549	107	C	07/31/2023	15:06	-132.453	47.517	0	89.10	0	7.4890	0	32.4290	0	25.329	0	88.337	0	276.8	4	93.6	4	-1E+10	1	-1E+10	1	-1E+10	1	-1E+10	1	-1E+10	1	-1E+10	1
4902549	107	C	07/31/2023	15:06	-132.453	47.517	0	89.90	0	7.4700	0	32.4280	0	25.331	0	89.130	0	276.5	4	93.5	4	-1E+10	1	-1E+10	1	-1E+10	1	-1E+10	1	-1E+10	1	-1E+10	1
4902549	107	C	07/31/2023	15:06	-132.453	47.517	0	91.10	0	7.4100	0	32.4260	0	25.337	0	90.320	0	276.3	4	93.3	4	-1E+10	1	-1E+10	1	-1E+10	1	-1E+10	1	-1E+10	1	-1E+10	1
4902549	107	C	07/31/2023	15:06	-132.453	47.517	0	92.00	0	7.4030	0	32.4290	0	25.341	0	91.212	0	276.0	4	93.2	4	-1E+10	1	-1E+10	1	-1E+10	1	-1E+10	1	-1E+10	1	-1E+10	1
4902549	107	C	07/31/2023	15:06	-132.453	47.517	0	93.10	0	7.3710	0	32.4300	0	25.346	0	92.302	0	275.7	4	93.0	4	-1E+10	1	-1E+10	1	-1E+10	1	-1E+10	1	-1E+10	1	-1E+10	1
4902549	107	C	07/31/2023	15:06	-132.453	47.517	0	94.00	0	7.3400	0	32.4300	0	25.350	0	93.194	0	275.3	4	92.8	4	-1E+10	1	-1E+10	1	-1E+10	1	-1E+10	1	-1E+10	1	-1E+10	1
4902549	107	C	07/31/2023	15:06	-132.453	47.517	0	94.90	0	7.3310	0	32.4320	0	25.353	0	94.086	0	274.9	4	92.6	4	-1E+10	1	-1E+10	1	-1E+10	1	-1E+10	1	-1E+10	1	-1E+10	1
4902549	107	C	07/31/2023	15:06	-132.453	47.517	0	96.00	0	7.3240	0	32.4330	0	25.355	0	95.176	0	274.3	4	92.4	4	-1E+10	1	-1E+10	1	-1E+10	1	-1E+10	1	-1E+10	1	-1E+10	1
4902549	107	C	07/31/2023	15:06	-132.453	47.517	0	97.00	0	7.3150	0	32.4340	0	25.357	0	96.168	0	273.7	4	92.2	4	-1E+10	1	-1E+10	1	-1E+10	1	-1E+10	1	-1E+10	1	-1E+10	1
4902549	107	C	07/31/2023	15:06	-132.453	47.517	0	97.90	0	7.3010	0	32.4350	0	25.360	0	97.060	0	273.0	4	91.9	4	-1E+10	1	-1E+10	1	-1E+10	1	-1E+10	1	-1E+10	1	-1E+10	1
4902549	107	C	07/31/2023	15:06	-132.453	47.517	0	98.90	0	7.2840	0	32.4360	0	25.363	0	98.051	0	272.3	4	91.7	4	-1E+10	1	-1E+10	1	-1E+10	1	-1E+10	1	-1E+10	1	-1E+10	1
4902549	107	C	07/31/2023	15:06	-132.453	47.517	0	100.00	0	7.2670	0	32.4450	0	25.372	0	99.141	0	271.7	4	91.4	4	-1E+10	1	-1E+10	1	-1E+10	1	-1E+10	1	-1E+10	1	-1E+10	1
4902549	107	C	07/31/2023	15:06	-132.453	47.517	0	101.00	0	7.2530	0	32.4490	0	25.377	0	100.132	0	270.8	4	91.1	4	-1E+10	1	-1E+10	1	-1E+10	1	-1E+10	1	-1E+10	1	-1E+10	1
4902549	107	C	07/31/2023	15:06	-132.453	47.517	0	102.10	0	7.2690	0	32.4530	0	25.378	0	101.223	0	269.8	4	90.8	4	-1E+10	1	-1E+10	1	-1E+10	1	-1E+10	1	-1E+10	1	-1E+10	1
4902549	107	C	07/31/2023	15:06	-132.453	47.517	0	102.80	0	7.2850	0	32.4640	0	25.385	0	101.916	0	268.8	4	90.5	4	-1E+10	1	-1E+10	1	-1E+10	1	-1E+10	1	-1E+10	1	-1E+10	1
4902549	107	C	07/31/2023	15:06	-132.453	47.517	0	103.90	0	7.2970	0	32.4720	0	25.389	0	103.007	0	267.5	4	90.1	4	-1E+10	1	-1E+10	1	-1E+10	1	-1E+10	1	-1E+10	1	-1E+10	1
4902549	107	C	07/31/2023	15:06	-132.453	47.517	0	105.00	0	7.2910	0	32.4750	0	25.392	0	104.097	0	266.1	4	89.6	4	-1E+10	1	-1E+10	1	-1E+10	1	-1E+10	1	-1E+10	1	-1E+10	1
4902549	107	C	07/31/2023	15:06	-132.453	47.517	0	106.10	0	7.2980	0	32.4800	0	25.395	0	105.187	0	264.0	4	88.9	4	-1E+10	1	-1E+10	1	-1E+10	1	-1E+10	1	-1E+10	1	-1E+10	1
4902549	107	C	07/31/2023	15:06	-132.453	47.517	0	106.80	0	7.3000	0	32.4860	0	25.400	0	105.881	0	262.6	4	88.5	4	-1E+10	1	-1E+10	1	-1E+10	1	-1E+10	1	-1E+10	1	-1E+10	1
4902549	107	C	07/31/2023	15:06	-132.453	47.517	0	107.90	0	7.2310	0	32.5030	0	25.423	0	106.971	0	260.5	4	87.6	4	-1E+10	1	-1E+10	1	-1E+10	1	-1E+10	1	-1E+10	1	-1E+10	1
4902549	107	C	07/31/2023	15:06	-132.453	47.517	0	109.00	0	7.2040	0	32.5220	0	25.441	0	108.062	0	258.1	4	86.8	4	-1E+10	1	-1E+10	1	-1E+10	1	-1E+10	1	-1E+10	1	-1E+10	1
4902549	107	C	07/31/2023	15:06	-132.453	47.517	0	110.10	0	7.1910	0	32.5390	0	25.456	0	109.152	0	255.2	4	85.8	4	-1E+10	1	-1E+10	1	-1E+10	1	-1E+10	1	-1E+10	1	-1E+10	1
4902549	107	C	07/31/2023	15:06	-132.453	47.517	0	110.80	0	7.1690	0	32.5510	0	25.469	0	109.846	0	253.0	4	85.0	4	-1E+10	1	-1E+10	1	-1E+10	1	-1E+10	1	-1E+10	1	-1E+10	1
4902549	107	C	07/31/2023	15:06	-132.453	47.517	0	112.00	0	7.1550	0	32.5800	0	25.494	0	111.035	0	249.4	4	83.8	4	-1E+10	1	-1E+10	1	-1E+10	1	-1E+10	1	-1E+10	1	-1E+10	1
4902549	107	C	07/31/2023	15:06	-132.453	47.517	0	112.90	0	7.0900	0	32.6160	0	25.531	0	111.927	0	247.0	4	82.9	4	-1E+10	1	-1E+10	1	-1E+10	1	-1E+10	1	-1E+10	1	-1E+10	1
4902549	107	C	07/31/2023	15:06	-132.453	47.517	0	114.20	0	7.0300	0	32.6660	0	25.578	0	113.215	0	243.2	4	81.5	4	-1E+10	1	-1E+10	1	-1E+10	1	-1E+10	1	-1E+10	1	-1E+10	1
4902549	107	C	07/31/2023	15:06	-132.453	47.517	0	114.80	0	7.1470	0	32.7030	0	25.592	0	113.810	0	240.8	4	81.0	4	-1E+10	1	-1E+10	1	-1E+10	1	-1E+10	1	-1E+10	1	-1E+10	1
4902549	107	C	07/31/2023	15:06	-132.453	47.517	0	115.90	0	7.3030	0	32.7690	0	25.622	0	114.900	0	238.5	4	80.5	4	-1E+10	1	-1E+10	1	-1E+10	1	-1E+10	1	-1E+10	1	-1E+10	1
4902549	107	C	07/31/2023	15:06	-132.453	47.517	0	117.10	0	7.2580	0	32.7920	0	25.646	0	116.090	0	237.4	4	80.1	4	-1E+10	1	-1E+10	1	-1E+10	1	-1E+10	1	-1E+10	1	-1E+10	1
4902549	107	C	07/31/2023	15:06	-132.453	47.517	0	118.30	0	7.2170	0	32.7990	0	25.658	0	117.279	0	236.3	4	79.6	4	-1E+10	1	-1E+10	1	-1E+10	1	-1E+10	1	-1E+10	1	-1E+10	1
4902549	107	C	07/31/2023	15:06	-132.453	47.517	0	119.00	0	7.1040	0	32.8390	0	25.704	0	117.973	0	236.1	4	79.4	4	-1E+10	1	-1E+10	1	-1E+10	1	-1E+10	1	-1E+10	1	-1E+10	1
4902549	107	C	07/31/2023	15:06	-132.453	47.517	0	119.90	0	6.9900	0	32.8540	0	25.732	0	118.865	0	236.1	4	79.2	4	-1E+10	1	-1E+10	1	-1E+10	1	-1E+10	1	-1E+10	1	-1E+10	1
4902549	107	C	07/31/2023	15:06	-132.453	47.517	0	120.70	0	6.8900	0	32.8650	0	25.754	0	119.657	0	235.3	4	78.7	4	-1E+10	1	-1E+10	1	-1E+10	1	-1E+10	1	-1E+10	1	-1E+10	1
4902549	107	C	07/31/2023	15:06	-132.453	47.517	0	121.90	0	6.8430	0	32.8720	0	25.765	0	120.847	0	233.9	4	78.2	4	-1E+10	1	-1E+10	1	-1E+10	1	-1E+10	1	-1E+10	1	-1E+10	1
4902549	107	C	07/31/2023	15:06	-132.453	47.517	0	123.10	0	6.8010	0	32.8910	0	25.786	0	122.036	0	232.3	4	77.6	4	-1E+10	1	-1E+10	1	-1E+10	1	-1E+10	1	-1E+10	1	-1E+10	1
4902549	107	C	07/31/2023	15:06	-132.453	47.517	0	124.10	0	6.7320	0	32.9240	0	25.821	0	123.027	0	231.4	4	77.2	4	-1E+10	1	-1E+10	1	-1E+10	1	-1E+10	1	-1E+10	1	-1E+10	1
4902549	107	C	07/31/2023	15:06	-132.453	47.517	0	125.00	0	6.7030	0	32.9310	0	25.830	0	123.919	0	230.3	4	76.8	4	-1E+10	1	-1E+10	1	-1E+10	1	-1E+10	1	-1E+10	1	-1E+10	1
4902549	107	C	07/31/2023	15:06	-132.453	47.517	0	126.00	0	6.6510	0	32.9400	0	25.844	0	124.910	0	229.2	4	76.3	4	-1E+10	1	-1E+10	1	-1E+10	1	-1E+10	1	-1E+10	1	-1E+10	1
4902549	107	C	07/31/2023	15:06	-132.453	47.517	0	127.00	0	6.4930	0	32.9950	0	25.908	0	125.901	0	228.5	4	75.8	4	-1E+10	1	-1E+10	1	-1E+10	1	-1E+10	1	-1E+10	1	-1E+10	1
4902549	107	C	07/31/2023	15:06	-132.453	47.517	0	128.20	0	6.4230	0	33.0220	0	25.938	0	127.090	0	227.7	4	75.5	4	-1E+10	1	-1E+10	1	-1E+10	1	-1E+10	1	-1E+10	1	-1E+10	1
4902549	107	C	07/31/2023	15:06	-132.453	47.517	0	128.90	0	6.4100	0	33.0300	0	25.946	0	127.784	0	226.9	4	75.2	4	-1E+10	1	-1E+10	1	-1E+10	1	-1E+10	1	-1E+10	1	-1E+10	1
4902549	107	C	07/31/2023	15:06	-132.453	47.517	0	130.00	0	6.3950	0	33.0420	0	25.958	0	128.874	0	225.4	4	74.7	4	-1E+10	1	-1E+10	1	-1E+10	1	-1E+10	1	-1E+10	1	-1E+10	1
4902549	107	C	07/31/2023	15:06	-132.453	47.517	0	131.10	0	6.3630	0	33.0880	0	25.998	0	129.964	0	224.0	4	74.2	4	-1E+10	1	-1E+10	1	-1E+10	1	-1E+10	1	-1E+10	1	-1E+10	1
4902549	107	C	07/31/2023	15:06	-132.453	47.517	0	131.80	0	6.3910	0	33.1200	0	26.020	0	130.658	0	223.1	4	74.0	4	-1E+10	1	-1E+10	1	-1E+10	1	-1E+10	1	-1E+10	1	-1E+10	1
4902549	107	C	07/31/2023	15:06	-132.453	47.517	0	133.00	0	6.3450	0	33.1260	0	26.030	0	131.847	0	221.9	4	73.5	4	-1E+10	1	-1E+10	1	-1E+10	1	-1E+10	1	-1E+10	1	-1E+10	1
4902549	107	C	07/31/2023	15:06	-132.453	47.517	0	134.10	0	6.2410	0	33.1530	0	26.065	0	132.937	0	221.5	4	73.2	4	-1E+10	1	-1E+10	1	-1E+10	1	-1E+10	1	-1E+10	1	-1E+10	1
4902549	107	C	07/31/2023	15:06	-132.453	47.517	0	135.00	0	6.1930	0	33.1850	0	26.096	0	133.829	0	221.1	4	73.0	4	-1E+10	1	-1E+10	1	-1E+10	1	-1E+10	1	-1E+10	1	-1E+10	1
4902549	107	C	07/31/2023	15:06	-132.453	47.517	0	135.80	0	6.2040	0	33.1920	0	26.100	0	134.622	0	220.3	4	72.7	4	-1E+10	1	-1E+10	1	-1E+10	1	-1E+10	1	-1E+10	1	-1E+10	1
4902549	107	C	07/31/2023	15:06	-132.453	47.517	0	136.70	0	6.1940	0	33.2250	0	26.128	0	135.514	0	219.4	4	72.5	4	-1E+10	1	-1E+10	1	-1E+10	1	-1E+10	1	-1E+10	1	-1E+10	1
4902549	107	C	07/31/2023	15:06	-132.453	47.517	0	137.90	0	6.1730	0	33.2370	0	26.140	0	136.703	0	218.2	4	72.0	4	-1E+10	1	-1E+10	1	-1E+10	1	-1E+10	1	-1E+10	1	-1E+10	1
4902549	107	C	07/31/2023	15:06	-132.453	47.517	0	139.20	0	6.1520	0	33.2490	0	26.152	0	137.991	0	217.0	4	71.6	4	-1E+10	1	-1E+10	1	-1E+10	1	-1E+10	1	-1E+10	1	-1E+10	1
4902549	107	C	07/31/2023	15:06	-132.453	47.517	0	140.10	0	6.1100	0	33.2660	0	26.170	0	138.883	0	216.4	4	71.3	4	-1E+10	1	-1E+10	1	-1E+10	1	-1E+10	1	-1E+10	1	-1E+10	1
4902549	107	C	07/31/2023	15:06	-132.453	47.517	0	140.90	0	6.0900	0	33.2820	0	26.186	0	139.676	0	215.8	4	71.1	4	-1E+10	1	-1E+10	1	-1E+10	1	-1E+10	1	-1E+10	1	-1E+10	1
4902549	107	C	07/31/2023	15:06	-132.453	47.517	0	141.70	0	6.0930	0	33.2870	0	26.189	0	140.469	0	215.0	4	70.9	4	-1E+10	1	-1E+10	1	-1E+10	1	-1E+10	1	-1E+10	1	-1E+10	1
4902549	107	C	07/31/2023	15:06	-132.453	47.517	0	143.00	0	6.0890	0	33.3100	0	26.208	0	141.757	0	213.6	4	70.4	4	-1E+10	1	-1E+10	1	-1E+10	1	-1E+10	1	-1E+10	1	-1E+10	1
4902549	107	C	07/31/2023	15:06	-132.453	47.517	0	144.30	0	6.0530	0	33.3690	0	26.259	0	143.045	0	212.7	4	70.1	4	-1E+10	1	-1E+10	1	-1E+10	1	-1E+10	1	-1E+10	1	-1E+10	1
4902549	107	C	07/31/2023	15:06	-132.453	47.517	0	145.10	0	6.0520	0	33.3900	0	26.276	0	143.838	0	212.1	4	69.9	4	-1E+10	1	-1E+10	1	-1E+10	1	-1E+10	1	-1E+10	1	-1E+10	1
4902549	107	C	07/31/2023	15:06	-132.453	47.517	0	146.00	0	6.0470	0	33.3950	0	26.280	0	144.730	0	211.5	4	69.7	4	-1E+10	1	-1E+10	1	-1E+10	1	-1E+10	1	-1E+10	1	-1E+10	1
4902549	107	C	07/31/2023	15:06	-132.453	47.517	0	146.90	0	6.0460	0	33.3980	0	26.283	0	145.622	0	210.9	4	69.5	4	-1E+10	1	-1E+10	1	-1E+10	1	-1E+10	1	-1E+10	1	-1E+10	1
4902549	107	C	07/31/2023	15:06	-132.453	47.517	0	147.70	0	6.0380	0	33.4050	0	26.289	0	146.415	0	210.2	4	69.2	4	-1E+10	1	-1E+10	1	-1E+10	1	-1E+10	1	-1E+10	1	-1E+10	1
4902549	107	C	07/31/2023	15:06	-132.453	47.517	0	148.60	0	6.0310	0	33.4120	0	26.296	0	147.307	0	209.6	4	69.0	4	-1E+10	1	-1E+10	1	-1E+10	1	-1E+10	1	-1E+10	1	-1E+10	1
4902549	107	C	07/31/2023	15:06	-132.453	47.517	0	149.90	0	6.0590	0	33.4450	0	26.318	0	148.595	0	208.4	4	68.7	4	-1E+10	1	-1E+10	1	-1E+10	1	-1E+10	1	-1E+10	1	-1E+10	1
4902549	107	C	07/31/2023	15:06	-132.453	47.517	0	151.30	0	6.0730	0	33.4740	0	26.340	0	149.982	0	207.2	4	68.3	4	-1E+10	1	-1E+10	1	-1E+10	1	-1E+10	1	-1E+10	1	-1E+10	1
4902549	107	C	07/31/2023	15:06	-132.453	47.517	0	152.30	0	6.0780	0	33.4790	0	26.343	0	150.973	0	206.4	4	68.1	4	-1E+10	1	-1E+10	1	-1E+10	1	-1E+10	1	-1E+10	1	-1E+10	1
4902549	107	C	07/31/2023	15:06	-132.453	47.517	0	153.20	0	6.0790	0	33.4800	0	26.344	0	151.865	0	205.3	4	67.7	4	-1E+10	1	-1E+10	1	-1E+10	1	-1E+10	1	-1E+10	1	-1E+10	1
4902549	107	C	07/31/2023	15:06	-132.453	47.517	0	154.10	0	6.0790	0	33.4820	0	26.345	0	152.757	0	204.2	4	67.4	4	-1E+10	1	-1E+10	1	-1E+10	1	-1E+10	1	-1E+10	1	-1E+10	1
4902549	107	C	07/31/2023	15:06	-132.453	47.517	0	155.00	0	6.0790	0	33.4830	0	26.346	0	153.648	0	202.8	4	66.9	4	-1E+10	1	-1E+10	1	-1E+10	1	-1E+10	1	-1E+10	1	-1E+10	1
4902549	107	C	07/31/2023	15:06	-132.453	47.517	0	155.90	0	6.0850	0	33.4990	0	26.358	0	154.540	0	201.4	4	66.5	4	-1E+10	1	-1E+10	1	-1E+10	1	-1E+10	1	-1E+10	1	-1E+10	1
4902549	107	C	07/31/2023	15:06	-132.453	47.517	0	156.90	0	6.0970	0	33.5130	0	26.367	0	155.531	0	200.0	4	66.0	4	-1E+10	1	-1E+10	1	-1E+10	1	-1E+10	1	-1E+10	1	-1E+10	1
4902549	107	C	07/31/2023	15:06	-132.453	47.517	0	157.90	0	6.1080	0	33.5210	0	26.372	0	156.522	0	198.5	4	65.6	4	-1E+10	1	-1E+10	1	-1E+10	1	-1E+10	1	-1E+10	1	-1E+10	1
4902549	107	C	07/31/2023	15:06	-132.453	47.517	0	158.80	0	6.1240	0	33.5540	0	26.396	0	157.414	0	197.0	4	65.1	4	-1E+10	1	-1E+10	1	-1E+10	1	-1E+10	1	-1E+10	1	-1E+10	1
4902549	107	C	07/31/2023	15:06	-132.453	47.517	0	159.80	0	6.1540	0	33.5720	0	26.407	0	158.405	0	195.6	4	64.7	4	-1E+10	1	-1E+10	1	-1E+10	1	-1E+10	1	-1E+10	1	-1E+10	1
4902549	107	C	07/31/2023	15:06	-132.453	47.517	0	160.80	0	6.1610	0	33.5800	0	26.412	0	159.396	0	194.3	4	64.3	4	-1E+10	1	-1E+10	1	-1E+10	1	-1E+10	1	-1E+10	1	-1E+10	1
4902549	107	C	07/31/2023	15:06	-132.453	47.517	0	161.80	0	6.1580	0	33.5830	0	26.415	0	160.387	0	192.9	4	63.8	4	-1E+10	1	-1E+10	1	-1E+10	1	-1E+10	1	-1E+10	1	-1E+10	1
4902549	107	C	07/31/2023	15:06	-132.453	47.517	0	162.80	0	6.1550	0	33.5910	0	26.422	0	161.377	0	191.6	4	63.4	4	-1E+10	1	-1E+10	1	-1E+10	1	-1E+10	1	-1E+10	1	-1E+10	1
4902549	107	C	07/31/2023	15:06	-132.453	47.517	0	163.70	0	6.1520	0	33.6080	0	26.436	0	162.269	0	190.2	4	62.9	4	-1E+10	1	-1E+10	1	-1E+10	1	-1E+10	1	-1E+10	1	-1E+10	1
4902549	107	C	07/31/2023	15:06	-132.453	47.517	0	164.70	0	6.1500	0	33.6210	0	26.446	0	163.260	0	189.1	4	62.6	4	-1E+10	1	-1E+10	1	-1E+10	1	-1E+10	1	-1E+10	1	-1E+10	1
4902549	107	C	07/31/2023	15:06	-132.453	47.517	0	165.60	0	6.1520	0	33.6300	0	26.453	0	164.152	0	188.0	4	62.2	4	-1E+10	1	-1E+10	1	-1E+10	1	-1E+10	1	-1E+10	1	-1E+10	1
4902549	107	C	07/31/2023	15:06	-132.453	47.517	0	166.70	0	6.1490	0	33.6350	0	26.457	0	165.242	0	186.5	4	61.7	4	-1E+10	1	-1E+10	1	-1E+10	1	-1E+10	1	-1E+10	1	-1E+10	1
4902549	107	C	07/31/2023	15:06	-132.453	47.517	0	167.90	0	6.1470	0	33.6460	0	26.466	0	166.431	0	185.0	4	61.2	4	-1E+10	1	-1E+10	1	-1E+10	1	-1E+10	1	-1E+10	1	-1E+10	1
4902549	107	C	07/31/2023	15:06	-132.453	47.517	0	169.10	0	6.1440	0	33.6530	0	26.472	0	167.620	0	183.6	4	60.7	4	-1E+10	1	-1E+10	1	-1E+10	1	-1E+10	1	-1E+10	1	-1E+10	1
4902549	107	C	07/31/2023	15:06	-132.453	47.517	0	169.80	0	6.1430	0	33.6600	0	26.478	0	168.313	0	182.6	4	60.4	4	-1E+10	1	-1E+10	1	-1E+10	1	-1E+10	1	-1E+10	1	-1E+10	1
4902549	107	C	07/31/2023	15:06	-132.453	47.517	0	171.00	0	6.1410	0	33.6670	0	26.484	0	169.502	0	181.3	4	60.0	4	-1E+10	1	-1E+10	1	-1E+10	1	-1E+10	1	-1E+10	1	-1E+10	1
4902549	107	C	07/31/2023	15:06	-132.453	47.517	0	172.20	0	6.1410	0	33.6710	0	26.487	0	170.691	0	179.9	4	59.5	4	-1E+10	1	-1E+10	1	-1E+10	1	-1E+10	1	-1E+10	1	-1E+10	1
4902549	107	C	07/31/2023	15:06	-132.453	47.517	0	173.00	0	6.1390	0	33.6760	0	26.491	0	171.484	0	179.0	4	59.2	4	-1E+10	1	-1E+10	1	-1E+10	1	-1E+10	1	-1E+10	1	-1E+10	1
4902549	107	C	07/31/2023	15:06	-132.453	47.517	0	173.90	0	6.1370	0	33.6770	0	26.492	0	172.376	0	178.0	4	58.9	4	-1E+10	1	-1E+10	1	-1E+10	1	-1E+10	1	-1E+10	1	-1E+10	1
4902549	107	C	07/31/2023	15:06	-132.453	47.517	0	174.70	0	6.1350	0	33.6800	0	26.495	0	173.168	0	177.0	4	58.6	4	-1E+10	1	-1E+10	1	-1E+10	1	-1E+10	1	-1E+10	1	-1E+10	1
4902549	107	C	07/31/2023	15:06	-132.453	47.517	0	176.00	0	6.1220	0	33.6850	0	26.500	0	174.456	0	175.5	4	58.0	4	-1E+10	1	-1E+10	1	-1E+10	1	-1E+10	1	-1E+10	1	-1E+10	1
4902549	107	C	07/31/2023	15:06	-132.453	47.517	0	177.30	0	6.1130	0	33.6880	0	26.504	0	175.745	0	173.7	4	57.5	4	-1E+10	1	-1E+10	1	-1E+10	1	-1E+10	1	-1E+10	1	-1E+10	1
4902549	107	C	07/31/2023	15:06	-132.453	47.517	0	178.20	0	6.1100	0	33.6900	0	26.506	0	176.636	0	172.5	4	57.0	4	-1E+10	1	-1E+10	1	-1E+10	1	-1E+10	1	-1E+10	1	-1E+10	1
4902549	107	C	07/31/2023	15:06	-132.453	47.517	0	179.10	0	6.1080	0	33.6910	0	26.507	0	177.528	0	171.2	4	56.6	4	-1E+10	1	-1E+10	1	-1E+10	1	-1E+10	1	-1E+10	1	-1E+10	1
4902549	107	C	07/31/2023	15:06	-132.453	47.517	0	180.00	0	6.1000	0	33.6970	0	26.513	0	178.420	0	169.8	4	56.1	4	-1E+10	1	-1E+10	1	-1E+10	1	-1E+10	1	-1E+10	1	-1E+10	1
4902549	107	C	07/31/2023	15:06	-132.453	47.517	0	180.80	0	6.1020	0	33.7000	0	26.515	0	179.212	0	168.4	4	55.7	4	-1E+10	1	-1E+10	1	-1E+10	1	-1E+10	1	-1E+10	1	-1E+10	1
4902549	107	C	07/31/2023	15:06	-132.453	47.517	0	181.70	0	6.0960	0	33.7040	0	26.519	0	180.104	0	167.0	4	55.2	4	-1E+10	1	-1E+10	1	-1E+10	1	-1E+10	1	-1E+10	1	-1E+10	1
4902549	107	C	07/31/2023	15:06	-132.453	47.517	0	182.60	0	6.0960	0	33.7060	0	26.520	0	180.996	0	165.4	4	54.7	4	-1E+10	1	-1E+10	1	-1E+10	1	-1E+10	1	-1E+10	1	-1E+10	1
4902549	107	C	07/31/2023	15:06	-132.453	47.517	0	183.90	0	6.0920	0	33.7180	0	26.530	0	182.284	0	163.7	4	54.1	4	-1E+10	1	-1E+10	1	-1E+10	1	-1E+10	1	-1E+10	1	-1E+10	1
4902549	107	C	07/31/2023	15:06	-132.453	47.517	0	185.30	0	6.0900	0	33.7230	0	26.534	0	183.671	0	162.0	4	53.6	4	-1E+10	1	-1E+10	1	-1E+10	1	-1E+10	1	-1E+10	1	-1E+10	1
4902549	107	C	07/31/2023	15:06	-132.453	47.517	0	186.20	0	6.0890	0	33.7240	0	26.535	0	184.562	0	160.7	4	53.1	4	-1E+10	1	-1E+10	1	-1E+10	1	-1E+10	1	-1E+10	1	-1E+10	1
4902549	107	C	07/31/2023	15:06	-132.453	47.517	0	187.20	0	6.0860	0	33.7260	0	26.537	0	185.553	0	159.5	4	52.7	4	-1E+10	1	-1E+10	1	-1E+10	1	-1E+10	1	-1E+10	1	-1E+10	1
4902549	107	C	07/31/2023	15:06	-132.453	47.517	0	188.10	0	6.0820	0	33.7290	0	26.540	0	186.445	0	158.3	4	52.3	4	-1E+10	1	-1E+10	1	-1E+10	1	-1E+10	1	-1E+10	1	-1E+10	1
4902549	107	C	07/31/2023	15:06	-132.453	47.517	0	189.00	0	6.0820	0	33.7310	0	26.542	0	187.337	0	156.9	4	51.9	4	-1E+10	1	-1E+10	1	-1E+10	1	-1E+10	1	-1E+10	1	-1E+10	1
4902549	107	C	07/31/2023	15:06	-132.453	47.517	0	189.90	0	6.0810	0	33.7360	0	26.546	0	188.228	0	155.8	4	51.5	4	-1E+10	1	-1E+10	1	-1E+10	1	-1E+10	1	-1E+10	1	-1E+10	1
4902549	107	C	07/31/2023	15:06	-132.453	47.517	0	190.80	0	6.0690	0	33.7390	0	26.550	0	189.120	0	154.9	4	51.2	4	-1E+10	1	-1E+10	1	-1E+10	1	-1E+10	1	-1E+10	1	-1E+10	1
4902549	107	C	07/31/2023	15:06	-132.453	47.517	0	191.80	0	6.0650	0	33.7430	0	26.553	0	190.111	0	154.0	4	50.9	4	-1E+10	1	-1E+10	1	-1E+10	1	-1E+10	1	-1E+10	1	-1E+10	1
4902549	107	C	07/31/2023	15:06	-132.453	47.517	0	192.70	0	6.0640	0	33.7450	0	26.555	0	191.002	0	153.3	4	50.7	4	-1E+10	1	-1E+10	1	-1E+10	1	-1E+10	1	-1E+10	1	-1E+10	1
4902549	107	C	07/31/2023	15:06	-132.453	47.517	0	193.60	0	6.0570	0	33.7490	0	26.559	0	191.894	0	152.7	4	50.5	4	-1E+10	1	-1E+10	1	-1E+10	1	-1E+10	1	-1E+10	1	-1E+10	1
4902549	107	C	07/31/2023	15:06	-132.453	47.517	0	194.50	0	6.0570	0	33.7490	0	26.559	0	192.786	0	152.0	4	50.2	4	-1E+10	1	-1E+10	1	-1E+10	1	-1E+10	1	-1E+10	1	-1E+10	1
4902549	107	C	07/31/2023	15:06	-132.453	47.517	0	195.90	0	6.0380	0	33.7530	0	26.565	0	194.173	0	151.3	4	50.0	4	-1E+10	1	-1E+10	1	-1E+10	1	-1E+10	1	-1E+10	1	-1E+10	1
4902549	107	C	07/31/2023	15:06	-132.453	47.517	0	197.30	0	6.0060	0	33.7550	0	26.570	0	195.560	0	150.7	4	49.7	4	-1E+10	1	-1E+10	1	-1E+10	1	-1E+10	1	-1E+10	1	-1E+10	1
4902549	107	C	07/31/2023	15:06	-132.453	47.517	0	198.20	0	5.9990	0	33.7540	0	26.570	0	196.451	0	150.3	4	49.6	4	-1E+10	1	-1E+10	1	-1E+10	1	-1E+10	1	-1E+10	1	-1E+10	1
4902549	107	C	07/31/2023	15:06	-132.453	47.517	0	199.20	0	5.9910	0	33.7570	0	26.574	0	197.442	0	149.9	4	49.5	4	-1E+10	1	-1E+10	1	-1E+10	1	-1E+10	1	-1E+10	1	-1E+10	1
4902549	107	C	07/31/2023	15:06	-132.453	47.517	0	200.10	0	5.9820	0	33.7570	0	26.575	0	198.334	0	149.5	4	49.3	4	-1E+10	1	-1E+10	1	-1E+10	1	-1E+10	1	-1E+10	1	-1E+10	1
4902549	107	C	07/31/2023	15:06	-132.453	47.517	0	201.00	0	5.9800	0	33.7570	0	26.575	0	199.225	0	149.1	4	49.2	4	-1E+10	1	-1E+10	1	-1E+10	1	-1E+10	1	-1E+10	1	-1E+10	1
4902549	107	C	07/31/2023	15:06	-132.453	47.517	0	201.90	0	5.9730	0	33.7580	0	26.577	0	200.117	0	148.8	4	49.1	4	-1E+10	1	-1E+10	1	-1E+10	1	-1E+10	1	-1E+10	1	-1E+10	1
4902549	107	C	07/31/2023	15:06	-132.453	47.517	0	202.80	0	5.9660	0	33.7590	0	26.579	0	201.008	0	148.4	4	48.9	4	-1E+10	1	-1E+10	1	-1E+10	1	-1E+10	1	-1E+10	1	-1E+10	1
4902549	107	C	07/31/2023	15:06	-132.453	47.517	0	203.80	0	5.9630	0	33.7590	0	26.579	0	201.999	0	148.0	4	48.8	4	-1E+10	1	-1E+10	1	-1E+10	1	-1E+10	1	-1E+10	1	-1E+10	1
4902549	107	C	07/31/2023	15:06	-132.453	47.517	0	204.70	0	5.9490	0	33.7590	0	26.581	0	202.891	0	147.6	4	48.6	4	-1E+10	1	-1E+10	1	-1E+10	1	-1E+10	1	-1E+10	1	-1E+10	1
4902549	107	C	07/31/2023	15:06	-132.453	47.517	0	205.70	0	5.9280	0	33.7580	0	26.583	0	203.881	0	147.1	4	48.4	4	-1E+10	1	-1E+10	1	-1E+10	1	-1E+10	1	-1E+10	1	-1E+10	1
4902549	107	C	07/31/2023	15:06	-132.453	47.517	0	206.60	0	5.9160	0	33.7570	0	26.583	0	204.773	0	146.5	4	48.2	4	-1E+10	1	-1E+10	1	-1E+10	1	-1E+10	1	-1E+10	1	-1E+10	1
4902549	107	C	07/31/2023	15:06	-132.453	47.517	0	207.60	0	5.8950	0	33.7580	0	26.587	0	205.764	0	145.9	4	48.0	4	-1E+10	1	-1E+10	1	-1E+10	1	-1E+10	1	-1E+10	1	-1E+10	1
4902549	107	C	07/31/2023	15:06	-132.453	47.517	0	208.50	0	5.8820	0	33.7570	0	26.587	0	206.655	0	145.2	4	47.8	4	-1E+10	1	-1E+10	1	-1E+10	1	-1E+10	1	-1E+10	1	-1E+10	1
4902549	107	C	07/31/2023	15:06	-132.453	47.517	0	209.90	0	5.8510	0	33.7580	0	26.592	0	208.042	0	144.1	4	47.4	4	-1E+10	1	-1E+10	1	-1E+10	1	-1E+10	1	-1E+10	1	-1E+10	1
4902549	107	C	07/31/2023	15:06	-132.453	47.517	0	211.40	0	5.8550	0	33.7590	0	26.592	0	209.528	0	143.1	4	47.1	4	-1E+10	1	-1E+10	1	-1E+10	1	-1E+10	1	-1E+10	1	-1E+10	1
4902549	107	C	07/31/2023	15:06	-132.453	47.517	0	212.30	0	5.8400	0	33.7630	0	26.597	0	210.420	0	142.6	4	46.9	4	-1E+10	1	-1E+10	1	-1E+10	1	-1E+10	1	-1E+10	1	-1E+10	1
4902549	107	C	07/31/2023	15:06	-132.453	47.517	0	213.30	0	5.8340	0	33.7640	0	26.599	0	211.410	0	142.0	4	46.7	4	-1E+10	1	-1E+10	1	-1E+10	1	-1E+10	1	-1E+10	1	-1E+10	1
4902549	107	C	07/31/2023	15:06	-132.453	47.517	0	214.20	0	5.8240	0	33.7640	0	26.600	0	212.302	0	141.5	4	46.5	4	-1E+10	1	-1E+10	1	-1E+10	1	-1E+10	1	-1E+10	1	-1E+10	1
4902549	107	C	07/31/2023	15:06	-132.453	47.517	0	215.10	0	5.8150	0	33.7650	0	26.602	0	213.193	0	141.0	4	46.3	4	-1E+10	1	-1E+10	1	-1E+10	1	-1E+10	1	-1E+10	1	-1E+10	1
4902549	107	C	07/31/2023	15:06	-132.453	47.517	0	216.00	0	5.8050	0	33.7670	0	26.605	0	214.085	0	140.5	4	46.2	4	-1E+10	1	-1E+10	1	-1E+10	1	-1E+10	1	-1E+10	1	-1E+10	1
4902549	107	C	07/31/2023	15:06	-132.453	47.517	0	217.00	0	5.7890	0	33.7660	0	26.606	0	215.076	0	140.0	4	46.0	4	-1E+10	1	-1E+10	1	-1E+10	1	-1E+10	1	-1E+10	1	-1E+10	1
4902549	107	C	07/31/2023	15:06	-132.453	47.517	0	217.90	0	5.7720	0	33.7680	0	26.610	0	215.967	0	139.5	4	45.8	4	-1E+10	1	-1E+10	1	-1E+10	1	-1E+10	1	-1E+10	1	-1E+10	1
4902549	107	C	07/31/2023	15:06	-132.453	47.517	0	218.90	0	5.7700	0	33.7660	0	26.608	0	216.958	0	139.0	4	45.6	4	-1E+10	1	-1E+10	1	-1E+10	1	-1E+10	1	-1E+10	1	-1E+10	1
4902549	107	C	07/31/2023	15:06	-132.453	47.517	0	219.80	0	5.7410	0	33.7640	0	26.610	0	217.849	0	138.3	4	45.4	4	-1E+10	1	-1E+10	1	-1E+10	1	-1E+10	1	-1E+10	1	-1E+10	1
4902549	107	C	07/31/2023	15:06	-132.453	47.517	0	220.70	0	5.7370	0	33.7660	0	26.612	0	218.741	0	137.7	4	45.2	4	-1E+10	1	-1E+10	1	-1E+10	1	-1E+10	1	-1E+10	1	-1E+10	1
4902549	107	C	07/31/2023	15:06	-132.453	47.517	0	221.70	0	5.7270	0	33.7690	0	26.616	0	219.731	0	137.1	4	45.0	4	-1E+10	1	-1E+10	1	-1E+10	1	-1E+10	1	-1E+10	1	-1E+10	1
4902549	107	C	07/31/2023	15:06	-132.453	47.517	0	222.60	0	5.7130	0	33.7680	0	26.617	0	220.623	0	136.6	4	44.8	4	-1E+10	1	-1E+10	1	-1E+10	1	-1E+10	1	-1E+10	1	-1E+10	1
4902549	107	C	07/31/2023	15:06	-132.453	47.517	0	223.60	0	5.7110	0	33.7680	0	26.617	0	221.614	0	135.9	4	44.6	4	-1E+10	1	-1E+10	1	-1E+10	1	-1E+10	1	-1E+10	1	-1E+10	1
4902549	107	C	07/31/2023	15:06	-132.453	47.517	0	224.60	0	5.7060	0	33.7700	0	26.619	0	222.604	0	135.4	4	44.4	4	-1E+10	1	-1E+10	1	-1E+10	1	-1E+10	1	-1E+10	1	-1E+10	1
4902549	107	C	07/31/2023	15:06	-132.453	47.517	0	225.50	0	5.6890	0	33.7720	0	26.623	0	223.496	0	134.9	4	44.2	4	-1E+10	1	-1E+10	1	-1E+10	1	-1E+10	1	-1E+10	1	-1E+10	1
4902549	107	C	07/31/2023	15:06	-132.453	47.517	0	226.90	0	5.6660	0	33.7720	0	26.626	0	224.882	0	134.3	4	44.0	4	-1E+10	1	-1E+10	1	-1E+10	1	-1E+10	1	-1E+10	1	-1E+10	1
4902549	107	C	07/31/2023	15:06	-132.453	47.517	0	228.40	0	5.6530	0	33.7720	0	26.627	0	226.368	0	133.6	4	43.7	4	-1E+10	1	-1E+10	1	-1E+10	1	-1E+10	1	-1E+10	1	-1E+10	1
4902549	107	C	07/31/2023	15:06	-132.453	47.517	0	229.40	0	5.6280	0	33.7720	0	26.630	0	227.359	0	133.2	4	43.6	4	-1E+10	1	-1E+10	1	-1E+10	1	-1E+10	1	-1E+10	1	-1E+10	1
4902549	107	C	07/31/2023	15:06	-132.453	47.517	0	230.30	0	5.6020	0	33.7730	0	26.634	0	228.250	0	132.9	4	43.4	4	-1E+10	1	-1E+10	1	-1E+10	1	-1E+10	1	-1E+10	1	-1E+10	1
4902549	107	C	07/31/2023	15:06	-132.453	47.517	0	231.30	0	5.5940	0	33.7730	0	26.635	0	229.241	0	132.5	4	43.3	4	-1E+10	1	-1E+10	1	-1E+10	1	-1E+10	1	-1E+10	1	-1E+10	1
4902549	107	C	07/31/2023	15:06	-132.453	47.517	0	232.30	0	5.5930	0	33.7740	0	26.636	0	230.231	0	132.1	4	43.2	4	-1E+10	1	-1E+10	1	-1E+10	1	-1E+10	1	-1E+10	1	-1E+10	1
4902549	107	C	07/31/2023	15:06	-132.453	47.517	0	233.30	0	5.5920	0	33.7740	0	26.636	0	231.222	0	131.7	4	43.0	4	-1E+10	1	-1E+10	1	-1E+10	1	-1E+10	1	-1E+10	1	-1E+10	1
4902549	107	C	07/31/2023	15:06	-132.453	47.517	0	234.30	0	5.5900	0	33.7740	0	26.637	0	232.212	0	131.2	4	42.9	4	-1E+10	1	-1E+10	1	-1E+10	1	-1E+10	1	-1E+10	1	-1E+10	1
4902549	107	C	07/31/2023	15:06	-132.453	47.517	0	235.30	0	5.5740	0	33.7760	0	26.640	0	233.203	0	130.8	4	42.8	4	-1E+10	1	-1E+10	1	-1E+10	1	-1E+10	1	-1E+10	1	-1E+10	1
4902549	107	C	07/31/2023	15:06	-132.453	47.517	0	236.30	0	5.5650	0	33.7750	0	26.640	0	234.193	0	130.5	4	42.6	4	-1E+10	1	-1E+10	1	-1E+10	1	-1E+10	1	-1E+10	1	-1E+10	1
4902549	107	C	07/31/2023	15:06	-132.453	47.517	0	237.30	0	5.5590	0	33.7750	0	26.641	0	235.184	0	130.3	4	42.6	4	-1E+10	1	-1E+10	1	-1E+10	1	-1E+10	1	-1E+10	1	-1E+10	1
4902549	107	C	07/31/2023	15:06	-132.453	47.517	0	238.20	0	5.5470	0	33.7750	0	26.643	0	236.075	0	130.0	4	42.5	4	-1E+10	1	-1E+10	1	-1E+10	1	-1E+10	1	-1E+10	1	-1E+10	1
4902549	107	C	07/31/2023	15:06	-132.453	47.517	0	239.20	0	5.5330	0	33.7750	0	26.644	0	237.066	0	129.8	4	42.4	4	-1E+10	1	-1E+10	1	-1E+10	1	-1E+10	1	-1E+10	1	-1E+10	1
4902549	107	C	07/31/2023	15:06	-132.453	47.517	0	240.20	0	5.4870	0	33.7820	0	26.655	0	238.056	0	129.4	4	42.2	4	-1E+10	1	-1E+10	1	-1E+10	1	-1E+10	1	-1E+10	1	-1E+10	1
4902549	107	C	07/31/2023	15:06	-132.453	47.517	0	241.10	0	5.4360	0	33.7740	0	26.655	0	238.948	0	129.0	4	42.0	4	-1E+10	1	-1E+10	1	-1E+10	1	-1E+10	1	-1E+10	1	-1E+10	1
4902549	107	C	07/31/2023	15:06	-132.453	47.517	0	242.10	0	5.4060	0	33.7660	0	26.652	0	239.938	0	128.5	4	41.8	4	-1E+10	1	-1E+10	1	-1E+10	1	-1E+10	1	-1E+10	1	-1E+10	1
4902549	107	C	07/31/2023	15:06	-132.453	47.517	0	243.10	0	5.3980	0	33.7660	0	26.653	0	240.929	0	127.9	4	41.6	4	-1E+10	1	-1E+10	1	-1E+10	1	-1E+10	1	-1E+10	1	-1E+10	1
4902549	107	C	07/31/2023	15:06	-132.453	47.517	0	244.10	0	5.3970	0	33.7670	0	26.654	0	241.919	0	127.1	4	41.4	4	-1E+10	1	-1E+10	1	-1E+10	1	-1E+10	1	-1E+10	1	-1E+10	1
4902549	107	C	07/31/2023	15:06	-132.453	47.517	0	245.00	0	5.3940	0	33.7680	0	26.655	0	242.811	0	126.5	4	41.1	4	-1E+10	1	-1E+10	1	-1E+10	1	-1E+10	1	-1E+10	1	-1E+10	1
4902549	107	C	07/31/2023	15:06	-132.453	47.517	0	246.00	0	5.3930	0	33.7690	0	26.656	0	243.801	0	125.8	4	40.9	4	-1E+10	1	-1E+10	1	-1E+10	1	-1E+10	1	-1E+10	1	-1E+10	1
4902549	107	C	07/31/2023	15:06	-132.453	47.517	0	246.90	0	5.3960	0	33.7700	0	26.657	0	244.693	0	125.0	4	40.7	4	-1E+10	1	-1E+10	1	-1E+10	1	-1E+10	1	-1E+10	1	-1E+10	1
4902549	107	C	07/31/2023	15:06	-132.453	47.517	0	247.90	0	5.3980	0	33.7700	0	26.656	0	245.683	0	124.3	4	40.5	4	-1E+10	1	-1E+10	1	-1E+10	1	-1E+10	1	-1E+10	1	-1E+10	1
4902549	107	C	07/31/2023	15:06	-132.453	47.517	0	248.80	0	5.3990	0	33.7730	0	26.659	0	246.575	0	123.5	4	40.2	4	-1E+10	1	-1E+10	1	-1E+10	1	-1E+10	1	-1E+10	1	-1E+10	1
4902549	107	C	07/31/2023	15:06	-132.453	47.517	0	249.80	0	5.3850	0	33.7730	0	26.660	0	247.565	0	122.8	4	39.9	4	-1E+10	1	-1E+10	1	-1E+10	1	-1E+10	1	-1E+10	1	-1E+10	1
4902549	107	C	07/31/2023	15:06	-132.453	47.517	0	250.80	0	5.3790	0	33.7750	0	26.663	0	248.556	0	122.0	4	39.7	4	-1E+10	1	-1E+10	1	-1E+10	1	-1E+10	1	-1E+10	1	-1E+10	1
4902549	107	C	07/31/2023	15:06	-132.453	47.517	0	251.70	0	5.3600	0	33.7780	0	26.667	0	249.447	0	121.2	4	39.4	4	-1E+10	1	-1E+10	1	-1E+10	1	-1E+10	1	-1E+10	1	-1E+10	1
4902549	107	C	07/31/2023	15:06	-132.453	47.517	0	252.60	0	5.3450	0	33.7750	0	26.667	0	250.338	0	120.4	4	39.1	4	-1E+10	1	-1E+10	1	-1E+10	1	-1E+10	1	-1E+10	1	-1E+10	1
4902549	107	C	07/31/2023	15:06	-132.453	47.517	0	253.50	0	5.3460	0	33.7750	0	26.667	0	251.230	0	119.8	4	38.9	4	-1E+10	1	-1E+10	1	-1E+10	1	-1E+10	1	-1E+10	1	-1E+10	1
4902549	107	C	07/31/2023	15:06	-132.453	47.517	0	254.90	0	5.3370	0	33.7820	0	26.673	0	252.616	0	119.0	4	38.7	4	-1E+10	1	-1E+10	1	-1E+10	1	-1E+10	1	-1E+10	1	-1E+10	1
4902549	107	C	07/31/2023	15:06	-132.453	47.517	0	256.30	0	5.2990	0	33.7790	0	26.675	0	254.003	0	118.0	4	38.3	4	-1E+10	1	-1E+10	1	-1E+10	1	-1E+10	1	-1E+10	1	-1E+10	1
4902549	107	C	07/31/2023	15:06	-132.453	47.517	0	257.30	0	5.2820	0	33.7810	0	26.679	0	254.993	0	117.3	4	38.1	4	-1E+10	1	-1E+10	1	-1E+10	1	-1E+10	1	-1E+10	1	-1E+10	1
4902549	107	C	07/31/2023	15:06	-132.453	47.517	0	258.20	0	5.2740	0	33.7800	0	26.679	0	255.885	0	116.7	4	37.9	4	-1E+10	1	-1E+10	1	-1E+10	1	-1E+10	1	-1E+10	1	-1E+10	1
4902549	107	C	07/31/2023	15:06	-132.453	47.517	0	259.10	0	5.2740	0	33.7850	0	26.683	0	256.776	0	116.1	4	37.7	4	-1E+10	1	-1E+10	1	-1E+10	1	-1E+10	1	-1E+10	1	-1E+10	1
4902549	107	C	07/31/2023	15:06	-132.453	47.517	0	260.10	0	5.2540	0	33.7820	0	26.683	0	257.767	0	115.5	4	37.5	4	-1E+10	1	-1E+10	1	-1E+10	1	-1E+10	1	-1E+10	1	-1E+10	1
4902549	107	C	07/31/2023	15:06	-132.453	47.517	0	261.00	0	5.2370	0	33.7830	0	26.686	0	258.658	0	114.9	4	37.2	4	-1E+10	1	-1E+10	1	-1E+10	1	-1E+10	1	-1E+10	1	-1E+10	1
4902549	107	C	07/31/2023	15:06	-132.453	47.517	0	261.90	0	5.2070	0	33.7840	0	26.690	0	259.549	0	114.5	4	37.1	4	-1E+10	1	-1E+10	1	-1E+10	1	-1E+10	1	-1E+10	1	-1E+10	1
4902549	107	C	07/31/2023	15:06	-132.453	47.517	0	262.90	0	5.2030	0	33.7850	0	26.691	0	260.540	0	114.0	4	36.9	4	-1E+10	1	-1E+10	1	-1E+10	1	-1E+10	1	-1E+10	1	-1E+10	1
4902549	107	C	07/31/2023	15:06	-132.453	47.517	0	263.80	0	5.2050	0	33.7850	0	26.691	0	261.431	0	113.5	4	36.8	4	-1E+10	1	-1E+10	1	-1E+10	1	-1E+10	1	-1E+10	1	-1E+10	1
4902549	107	C	07/31/2023	15:06	-132.453	47.517	0	264.70	0	5.2040	0	33.7860	0	26.692	0	262.322	0	113.0	4	36.6	4	-1E+10	1	-1E+10	1	-1E+10	1	-1E+10	1	-1E+10	1	-1E+10	1
4902549	107	C	07/31/2023	15:06	-132.453	47.517	0	265.70	0	5.1940	0	33.7860	0	26.693	0	263.313	0	112.5	4	36.4	4	-1E+10	1	-1E+10	1	-1E+10	1	-1E+10	1	-1E+10	1	-1E+10	1
4902549	107	C	07/31/2023	15:06	-132.453	47.517	0	266.60	0	5.1910	0	33.7860	0	26.693	0	264.204	0	111.9	4	36.2	4	-1E+10	1	-1E+10	1	-1E+10	1	-1E+10	1	-1E+10	1	-1E+10	1
4902549	107	C	07/31/2023	15:06	-132.453	47.517	0	267.60	0	5.1870	0	33.7860	0	26.694	0	265.194	0	111.3	4	36.0	4	-1E+10	1	-1E+10	1	-1E+10	1	-1E+10	1	-1E+10	1	-1E+10	1
4902549	107	C	07/31/2023	15:06	-132.453	47.517	0	268.50	0	5.1760	0	33.7870	0	26.696	0	266.086	0	110.6	4	35.8	4	-1E+10	1	-1E+10	1	-1E+10	1	-1E+10	1	-1E+10	1	-1E+10	1
4902549	107	C	07/31/2023	15:06	-132.453	47.517	0	269.90	0	5.1270	0	33.7880	0	26.702	0	267.472	0	109.8	4	35.5	4	-1E+10	1	-1E+10	1	-1E+10	1	-1E+10	1	-1E+10	1	-1E+10	1
4902549	107	C	07/31/2023	15:06	-132.453	47.517	0	271.30	0	5.1020	0	33.7860	0	26.704	0	268.859	0	109.0	4	35.2	4	-1E+10	1	-1E+10	1	-1E+10	1	-1E+10	1	-1E+10	1	-1E+10	1
4902549	107	C	07/31/2023	15:06	-132.453	47.517	0	272.30	0	5.1030	0	33.7890	0	26.706	0	269.849	0	108.5	4	35.1	4	-1E+10	1	-1E+10	1	-1E+10	1	-1E+10	1	-1E+10	1	-1E+10	1
4902549	107	C	07/31/2023	15:06	-132.453	47.517	0	273.20	0	5.1020	0	33.7880	0	26.705	0	270.740	0	107.8	4	34.8	4	-1E+10	1	-1E+10	1	-1E+10	1	-1E+10	1	-1E+10	1	-1E+10	1
4902549	107	C	07/31/2023	15:06	-132.453	47.517	0	274.20	0	5.0990	0	33.7890	0	26.706	0	271.731	0	107.1	4	34.6	4	-1E+10	1	-1E+10	1	-1E+10	1	-1E+10	1	-1E+10	1	-1E+10	1
4902549	107	C	07/31/2023	15:06	-132.453	47.517	0	275.10	0	5.0840	0	33.7920	0	26.711	0	272.622	0	106.4	4	34.4	4	-1E+10	1	-1E+10	1	-1E+10	1	-1E+10	1	-1E+10	1	-1E+10	1
4902549	107	C	07/31/2023	15:06	-132.453	47.517	0	276.10	0	5.0740	0	33.7900	0	26.710	0	273.612	0	105.8	4	34.2	4	-1E+10	1	-1E+10	1	-1E+10	1	-1E+10	1	-1E+10	1	-1E+10	1
4902549	107	C	07/31/2023	15:06	-132.453	47.517	0	277.00	0	5.0720	0	33.7900	0	26.710	0	274.504	0	105.0	4	33.9	4	-1E+10	1	-1E+10	1	-1E+10	1	-1E+10	1	-1E+10	1	-1E+10	1
4902549	107	C	07/31/2023	15:06	-132.453	47.517	0	278.00	0	5.0640	0	33.7920	0	26.713	0	275.494	0	104.2	4	33.6	4	-1E+10	1	-1E+10	1	-1E+10	1	-1E+10	1	-1E+10	1	-1E+10	1
4902549	107	C	07/31/2023	15:06	-132.453	47.517	0	278.90	0	5.0560	0	33.7910	0	26.713	0	276.385	0	103.4	4	33.4	4	-1E+10	1	-1E+10	1	-1E+10	1	-1E+10	1	-1E+10	1	-1E+10	1
4902549	107	C	07/31/2023	15:06	-132.453	47.517	0	279.90	0	5.0340	0	33.7940	0	26.718	0	277.376	0	102.5	4	33.1	4	-1E+10	1	-1E+10	1	-1E+10	1	-1E+10	1	-1E+10	1	-1E+10	1
4902549	107	C	07/31/2023	15:06	-132.453	47.517	0	280.90	0	5.0240	0	33.7960	0	26.721	0	278.366	0	101.8	4	32.9	4	-1E+10	1	-1E+10	1	-1E+10	1	-1E+10	1	-1E+10	1	-1E+10	1
4902549	107	C	07/31/2023	15:06	-132.453	47.517	0	281.80	0	5.0250	0	33.7960	0	26.720	0	279.257	0	101.1	4	32.6	4	-1E+10	1	-1E+10	1	-1E+10	1	-1E+10	1	-1E+10	1	-1E+10	1
4902549	107	C	07/31/2023	15:06	-132.453	47.517	0	282.80	0	5.0250	0	33.7960	0	26.720	0	280.247	0	100.3	4	32.3	4	-1E+10	1	-1E+10	1	-1E+10	1	-1E+10	1	-1E+10	1	-1E+10	1
4902549	107	C	07/31/2023	15:06	-132.453	47.517	0	283.80	0	5.0150	0	33.8000	0	26.725	0	281.238	0	99.4	4	32.1	4	-1E+10	1	-1E+10	1	-1E+10	1	-1E+10	1	-1E+10	1	-1E+10	1
4902549	107	C	07/31/2023	15:06	-132.453	47.517	0	284.80	0	4.9920	0	33.7990	0	26.727	0	282.228	0	98.8	4	31.8	4	-1E+10	1	-1E+10	1	-1E+10	1	-1E+10	1	-1E+10	1	-1E+10	1
4902549	107	C	07/31/2023	15:06	-132.453	47.517	0	285.80	0	4.9930	0	33.8010	0	26.728	0	283.218	0	98.1	4	31.6	4	-1E+10	1	-1E+10	1	-1E+10	1	-1E+10	1	-1E+10	1	-1E+10	1
4902549	107	C	07/31/2023	15:06	-132.453	47.517	0	286.80	0	4.9850	0	33.8070	0	26.734	0	284.209	0	97.6	4	31.5	4	-1E+10	1	-1E+10	1	-1E+10	1	-1E+10	1	-1E+10	1	-1E+10	1
4902549	107	C	07/31/2023	15:06	-132.453	47.517	0	287.70	0	4.9790	0	33.8110	0	26.738	0	285.100	0	97.3	4	31.4	4	-1E+10	1	-1E+10	1	-1E+10	1	-1E+10	1	-1E+10	1	-1E+10	1
4902549	107	C	07/31/2023	15:06	-132.453	47.517	0	288.70	0	4.9300	0	33.8080	0	26.741	0	286.090	0	97.0	4	31.2	4	-1E+10	1	-1E+10	1	-1E+10	1	-1E+10	1	-1E+10	1	-1E+10	1
4902549	107	C	07/31/2023	15:06	-132.453	47.517	0	289.80	0	4.9210	0	33.8070	0	26.741	0	287.179	0	96.6	4	31.1	4	-1E+10	1	-1E+10	1	-1E+10	1	-1E+10	1	-1E+10	1	-1E+10	1
4902549	107	C	07/31/2023	15:06	-132.453	47.517	0	290.90	0	4.9160	0	33.8070	0	26.742	0	288.269	0	96.1	4	30.9	4	-1E+10	1	-1E+10	1	-1E+10	1	-1E+10	1	-1E+10	1	-1E+10	1
4902549	107	C	07/31/2023	15:06	-132.453	47.517	0	292.00	0	4.9080	0	33.8070	0	26.742	0	289.358	0	95.5	4	30.7	4	-1E+10	1	-1E+10	1	-1E+10	1	-1E+10	1	-1E+10	1	-1E+10	1
4902549	107	C	07/31/2023	15:06	-132.453	47.517	0	292.80	0	4.9090	0	33.8050	0	26.741	0	290.150	0	95.2	4	30.6	4	-1E+10	1	-1E+10	1	-1E+10	1	-1E+10	1	-1E+10	1	-1E+10	1
4902549	107	C	07/31/2023	15:06	-132.453	47.517	0	293.90	0	4.8990	0	33.8100	0	26.746	0	291.239	0	94.7	4	30.5	4	-1E+10	1	-1E+10	1	-1E+10	1	-1E+10	1	-1E+10	1	-1E+10	1
4902549	107	C	07/31/2023	15:06	-132.453	47.517	0	295.00	0	4.8700	0	33.8100	0	26.749	0	292.329	0	94.3	4	30.3	4	-1E+10	1	-1E+10	1	-1E+10	1	-1E+10	1	-1E+10	1	-1E+10	1
4902549	107	C	07/31/2023	15:06	-132.453	47.517	0	295.80	0	4.8670	0	33.8090	0	26.749	0	293.121	0	93.9	4	30.2	4	-1E+10	1	-1E+10	1	-1E+10	1	-1E+10	1	-1E+10	1	-1E+10	1
4902549	107	C	07/31/2023	15:06	-132.453	47.517	0	296.90	0	4.8750	0	33.8110	0	26.749	0	294.210	0	93.4	4	30.0	4	-1E+10	1	-1E+10	1	-1E+10	1	-1E+10	1	-1E+10	1	-1E+10	1
4902549	107	C	07/31/2023	15:06	-132.453	47.517	0	298.10	0	4.8830	0	33.8140	0	26.751	0	295.398	0	92.8	4	29.8	4	-1E+10	1	-1E+10	1	-1E+10	1	-1E+10	1	-1E+10	1	-1E+10	1
4902549	107	C	07/31/2023	15:06	-132.453	47.517	0	298.90	0	4.8690	0	33.8150	0	26.753	0	296.191	0	92.4	4	29.7	4	-1E+10	1	-1E+10	1	-1E+10	1	-1E+10	1	-1E+10	1	-1E+10	1
4902549	107	C	07/31/2023	15:06	-132.453	47.517	0	299.70	0	4.8540	0	33.8120	0	26.753	0	296.983	0	92.0	4	29.6	4	-1E+10	1	-1E+10	1	-1E+10	1	-1E+10	1	-1E+10	1	-1E+10	1
4902549	107	C	07/31/2023	15:06	-132.453	47.517	0	300.90	0	4.8450	0	33.8140	0	26.755	0	298.171	0	91.5	4	29.4	4	-1E+10	1	-1E+10	1	-1E+10	1	-1E+10	1	-1E+10	1	-1E+10	1
4902549	107	C	07/31/2023	15:06	-132.453	47.517	0	302.10	0	4.8400	0	33.8150	0	26.757	0	299.359	0	90.9	4	29.2	4	-1E+10	1	-1E+10	1	-1E+10	1	-1E+10	1	-1E+10	1	-1E+10	1
4902549	107	C	07/31/2023	15:06	-132.453	47.517	0	302.90	0	4.8360	0	33.8150	0	26.757	0	300.151	0	90.5	4	29.1	4	-1E+10	1	-1E+10	1	-1E+10	1	-1E+10	1	-1E+10	1	-1E+10	1
4902549	107	C	07/31/2023	15:06	-132.453	47.517	0	303.80	0	4.8340	0	33.8150	0	26.757	0	301.043	0	90.1	4	28.9	4	-1E+10	1	-1E+10	1	-1E+10	1	-1E+10	1	-1E+10	1	-1E+10	1
4902549	107	C	07/31/2023	15:06	-132.453	47.517	0	305.00	0	4.8240	0	33.8170	0	26.760	0	302.231	0	89.4	4	28.7	4	-1E+10	1	-1E+10	1	-1E+10	1	-1E+10	1	-1E+10	1	-1E+10	1
4902549	107	C	07/31/2023	15:06	-132.453	47.517	0	306.30	0	4.8120	0	33.8220	0	26.765	0	303.518	0	88.9	4	28.5	4	-1E+10	1	-1E+10	1	-1E+10	1	-1E+10	1	-1E+10	1	-1E+10	1
4902549	107	C	07/31/2023	15:06	-132.453	47.517	0	307.20	0	4.8050	0	33.8210	0	26.765	0	304.409	0	88.6	4	28.4	4	-1E+10	1	-1E+10	1	-1E+10	1	-1E+10	1	-1E+10	1	-1E+10	1
4902549	107	C	07/31/2023	15:06	-132.453	47.517	0	308.00	0	4.8040	0	33.8200	0	26.765	0	305.201	0	88.2	4	28.3	4	-1E+10	1	-1E+10	1	-1E+10	1	-1E+10	1	-1E+10	1	-1E+10	1
4902549	107	C	07/31/2023	15:06	-132.453	47.517	0	308.90	0	4.8010	0	33.8210	0	26.766	0	306.093	0	87.8	4	28.2	4	-1E+10	1	-1E+10	1	-1E+10	1	-1E+10	1	-1E+10	1	-1E+10	1
4902549	107	C	07/31/2023	15:06	-132.453	47.517	0	309.70	0	4.8000	0	33.8210	0	26.766	0	306.885	0	87.4	4	28.0	4	-1E+10	1	-1E+10	1	-1E+10	1	-1E+10	1	-1E+10	1	-1E+10	1
4902549	107	C	07/31/2023	15:06	-132.453	47.517	0	311.00	0	4.7970	0	33.8220	0	26.767	0	308.172	0	86.7	4	27.8	4	-1E+10	1	-1E+10	1	-1E+10	1	-1E+10	1	-1E+10	1	-1E+10	1
4902549	107	C	07/31/2023	15:06	-132.453	47.517	0	312.30	0	4.7900	0	33.8240	0	26.769	0	309.459	0	86.0	4	27.6	4	-1E+10	1	-1E+10	1	-1E+10	1	-1E+10	1	-1E+10	1	-1E+10	1
4902549	107	C	07/31/2023	15:06	-132.453	47.517	0	313.20	0	4.7870	0	33.8250	0	26.770	0	310.350	0	85.6	4	27.5	4	-1E+10	1	-1E+10	1	-1E+10	1	-1E+10	1	-1E+10	1	-1E+10	1
4902549	107	C	07/31/2023	15:06	-132.453	47.517	0	314.10	0	4.7810	0	33.8250	0	26.771	0	311.241	0	85.2	4	27.3	4	-1E+10	1	-1E+10	1	-1E+10	1	-1E+10	1	-1E+10	1	-1E+10	1
4902549	107	C	07/31/2023	15:06	-132.453	47.517	0	315.00	0	4.7760	0	33.8240	0	26.771	0	312.133	0	84.7	4	27.2	4	-1E+10	1	-1E+10	1	-1E+10	1	-1E+10	1	-1E+10	1	-1E+10	1
4902549	107	C	07/31/2023	15:06	-132.453	47.517	0	315.80	0	4.7680	0	33.8270	0	26.774	0	312.925	0	84.2	4	27.0	4	-1E+10	1	-1E+10	1	-1E+10	1	-1E+10	1	-1E+10	1	-1E+10	1
4902549	107	C	07/31/2023	15:06	-132.453	47.517	0	316.70	0	4.7630	0	33.8270	0	26.775	0	313.816	0	83.7	4	26.9	4	-1E+10	1	-1E+10	1	-1E+10	1	-1E+10	1	-1E+10	1	-1E+10	1
4902549	107	C	07/31/2023	15:06	-132.453	47.517	0	317.60	0	4.7630	0	33.8270	0	26.775	0	314.707	0	83.2	4	26.7	4	-1E+10	1	-1E+10	1	-1E+10	1	-1E+10	1	-1E+10	1	-1E+10	1
4902549	107	C	07/31/2023	15:06	-132.453	47.517	0	318.90	0	4.7600	0	33.8290	0	26.777	0	315.994	0	82.3	4	26.4	4	-1E+10	1	-1E+10	1	-1E+10	1	-1E+10	1	-1E+10	1	-1E+10	1
4902549	107	C	07/31/2023	15:06	-132.453	47.517	0	320.30	0	4.7530	0	33.8330	0	26.781	0	317.380	0	81.6	4	26.2	4	-1E+10	1	-1E+10	1	-1E+10	1	-1E+10	1	-1E+10	1	-1E+10	1
4902549	107	C	07/31/2023	15:06	-132.453	47.517	0	321.20	0	4.7530	0	33.8340	0	26.781	0	318.271	0	81.1	4	26.0	4	-1E+10	1	-1E+10	1	-1E+10	1	-1E+10	1	-1E+10	1	-1E+10	1
4902549	107	C	07/31/2023	15:06	-132.453	47.517	0	322.10	0	4.7610	0	33.8390	0	26.784	0	319.163	0	80.7	4	25.9	4	-1E+10	1	-1E+10	1	-1E+10	1	-1E+10	1	-1E+10	1	-1E+10	1
4902549	107	C	07/31/2023	15:06	-132.453	47.517	0	323.00	0	4.7410	0	33.8410	0	26.788	0	320.054	0	80.3	4	25.8	4	-1E+10	1	-1E+10	1	-1E+10	1	-1E+10	1	-1E+10	1	-1E+10	1
4902549	107	C	07/31/2023	15:06	-132.453	47.517	0	323.90	0	4.7240	0	33.8430	0	26.792	0	320.945	0	80.1	4	25.7	4	-1E+10	1	-1E+10	1	-1E+10	1	-1E+10	1	-1E+10	1	-1E+10	1
4902549	107	C	07/31/2023	15:06	-132.453	47.517	0	324.80	0	4.7190	0	33.8420	0	26.791	0	321.836	0	79.8	4	25.6	4	-1E+10	1	-1E+10	1	-1E+10	1	-1E+10	1	-1E+10	1	-1E+10	1
4902549	107	C	07/31/2023	15:06	-132.453	47.517	0	325.70	0	4.7210	0	33.8430	0	26.792	0	322.727	0	79.4	4	25.4	4	-1E+10	1	-1E+10	1	-1E+10	1	-1E+10	1	-1E+10	1	-1E+10	1
4902549	107	C	07/31/2023	15:06	-132.453	47.517	0	326.60	0	4.7210	0	33.8450	0	26.794	0	323.618	0	79.1	4	25.3	4	-1E+10	1	-1E+10	1	-1E+10	1	-1E+10	1	-1E+10	1	-1E+10	1
4902549	107	C	07/31/2023	15:06	-132.453	47.517	0	327.90	0	4.7130	0	33.8470	0	26.796	0	324.905	0	78.6	4	25.2	4	-1E+10	1	-1E+10	1	-1E+10	1	-1E+10	1	-1E+10	1	-1E+10	1
4902549	107	C	07/31/2023	15:06	-132.453	47.517	0	329.40	0	4.6900	0	33.8460	0	26.798	0	326.390	0	78.1	4	25.0	4	-1E+10	1	-1E+10	1	-1E+10	1	-1E+10	1	-1E+10	1	-1E+10	1
4902549	107	C	07/31/2023	15:06	-132.453	47.517	0	330.30	0	4.6910	0	33.8460	0	26.798	0	327.281	0	77.7	4	24.9	4	-1E+10	1	-1E+10	1	-1E+10	1	-1E+10	1	-1E+10	1	-1E+10	1
4902549	107	C	07/31/2023	15:06	-132.453	47.517	0	331.20	0	4.6890	0	33.8480	0	26.800	0	328.172	0	77.4	4	24.8	4	-1E+10	1	-1E+10	1	-1E+10	1	-1E+10	1	-1E+10	1	-1E+10	1
4902549	107	C	07/31/2023	15:06	-132.453	47.517	0	332.10	0	4.6900	0	33.8540	0	26.804	0	329.063	0	77.1	4	24.7	4	-1E+10	1	-1E+10	1	-1E+10	1	-1E+10	1	-1E+10	1	-1E+10	1
4902549	107	C	07/31/2023	15:06	-132.453	47.517	0	333.00	0	4.6810	0	33.8510	0	26.803	0	329.954	0	76.8	4	24.6	4	-1E+10	1	-1E+10	1	-1E+10	1	-1E+10	1	-1E+10	1	-1E+10	1
4902549	107	C	07/31/2023	15:06	-132.453	47.517	0	333.90	0	4.6780	0	33.8540	0	26.806	0	330.845	0	76.5	4	24.5	4	-1E+10	1	-1E+10	1	-1E+10	1	-1E+10	1	-1E+10	1	-1E+10	1
4902549	107	C	07/31/2023	15:06	-132.453	47.517	0	334.80	0	4.6750	0	33.8540	0	26.806	0	331.736	0	76.2	4	24.4	4	-1E+10	1	-1E+10	1	-1E+10	1	-1E+10	1	-1E+10	1	-1E+10	1
4902549	107	C	07/31/2023	15:06	-132.453	47.517	0	335.70	0	4.6740	0	33.8540	0	26.806	0	332.628	0	76.0	4	24.3	4	-1E+10	1	-1E+10	1	-1E+10	1	-1E+10	1	-1E+10	1	-1E+10	1
4902549	107	C	07/31/2023	15:06	-132.453	47.517	0	336.60	0	4.6740	0	33.8540	0	26.806	0	333.519	0	75.6	4	24.2	4	-1E+10	1	-1E+10	1	-1E+10	1	-1E+10	1	-1E+10	1	-1E+10	1
4902549	107	C	07/31/2023	15:06	-132.453	47.517	0	337.90	0	4.6730	0	33.8550	0	26.807	0	334.806	0	75.1	4	24.0	4	-1E+10	1	-1E+10	1	-1E+10	1	-1E+10	1	-1E+10	1	-1E+10	1
4902549	107	C	07/31/2023	15:06	-132.453	47.517	0	339.30	0	4.6690	0	33.8560	0	26.808	0	336.192	0	74.5	4	23.8	4	-1E+10	1	-1E+10	1	-1E+10	1	-1E+10	1	-1E+10	1	-1E+10	1
4902549	107	C	07/31/2023	15:06	-132.453	47.517	0	340.30	0	4.6660	0	33.8560	0	26.809	0	337.182	0	74.0	4	23.7	4	-1E+10	1	-1E+10	1	-1E+10	1	-1E+10	1	-1E+10	1	-1E+10	1
4902549	107	C	07/31/2023	15:06	-132.453	47.517	0	341.20	0	4.6600	0	33.8570	0	26.810	0	338.073	0	73.6	4	23.5	4	-1E+10	1	-1E+10	1	-1E+10	1	-1E+10	1	-1E+10	1	-1E+10	1
4902549	107	C	07/31/2023	15:06	-132.453	47.517	0	342.10	0	4.6540	0	33.8590	0	26.812	0	338.964	0	73.1	4	23.4	4	-1E+10	1	-1E+10	1	-1E+10	1	-1E+10	1	-1E+10	1	-1E+10	1
4902549	107	C	07/31/2023	15:06	-132.453	47.517	0	343.00	0	4.6450	0	33.8600	0	26.814	0	339.855	0	72.6	4	23.2	4	-1E+10	1	-1E+10	1	-1E+10	1	-1E+10	1	-1E+10	1	-1E+10	1
4902549	107	C	07/31/2023	15:06	-132.453	47.517	0	343.90	0	4.6420	0	33.8600	0	26.814	0	340.746	0	72.0	4	23.0	4	-1E+10	1	-1E+10	1	-1E+10	1	-1E+10	1	-1E+10	1	-1E+10	1
4902549	107	C	07/31/2023	15:06	-132.453	47.517	0	344.80	0	4.6440	0	33.8600	0	26.814	0	341.637	0	71.5	4	22.9	4	-1E+10	1	-1E+10	1	-1E+10	1	-1E+10	1	-1E+10	1	-1E+10	1
4902549	107	C	07/31/2023	15:06	-132.453	47.517	0	345.70	0	4.6520	0	33.8640	0	26.816	0	342.528	0	70.9	4	22.7	4	-1E+10	1	-1E+10	1	-1E+10	1	-1E+10	1	-1E+10	1	-1E+10	1
4902549	107	C	07/31/2023	15:06	-132.453	47.517	0	346.60	0	4.6550	0	33.8660	0	26.818	0	343.419	0	70.4	4	22.5	4	-1E+10	1	-1E+10	1	-1E+10	1	-1E+10	1	-1E+10	1	-1E+10	1
4902549	107	C	07/31/2023	15:06	-132.453	47.517	0	347.50	0	4.6590	0	33.8660	0	26.817	0	344.310	0	69.8	4	22.3	4	-1E+10	1	-1E+10	1	-1E+10	1	-1E+10	1	-1E+10	1	-1E+10	1
4902549	107	C	07/31/2023	15:06	-132.453	47.517	0	348.90	0	4.6870	0	33.8750	0	26.821	0	345.696	0	68.9	4	22.1	4	-1E+10	1	-1E+10	1	-1E+10	1	-1E+10	1	-1E+10	1	-1E+10	1
4902549	107	C	07/31/2023	15:06	-132.453	47.517	0	350.20	0	4.7260	0	33.8830	0	26.823	0	346.983	0	68.1	4	21.8	4	-1E+10	1	-1E+10	1	-1E+10	1	-1E+10	1	-1E+10	1	-1E+10	1
4902549	107	C	07/31/2023	15:06	-132.453	47.517	0	352.90	0	4.7250	0	33.8910	0	26.830	0	349.656	0	67.0	4	21.5	4	-1E+10	1	-1E+10	1	-1E+10	1	-1E+10	1	-1E+10	1	-1E+10	1
4902549	107	C	07/31/2023	15:06	-132.453	47.517	0	357.80	0	4.7060	0	33.9000	0	26.839	0	354.506	0	65.3	4	20.9	4	-1E+10	1	-1E+10	1	-1E+10	1	-1E+10	1	-1E+10	1	-1E+10	1
4902549	107	C	07/31/2023	15:06	-132.453	47.517	0	363.20	0	4.6830	0	33.9060	0	26.847	0	359.852	0	63.8	4	20.4	4	-1E+10	1	-1E+10	1	-1E+10	1	-1E+10	1	-1E+10	1	-1E+10	1
4902549	107	C	07/31/2023	15:06	-132.453	47.517	0	368.10	0	4.6670	0	33.9100	0	26.852	0	364.703	0	62.2	4	19.9	4	-1E+10	1	-1E+10	1	-1E+10	1	-1E+10	1	-1E+10	1	-1E+10	1
4902549	107	C	07/31/2023	15:06	-132.453	47.517	0	373.00	0	4.6380	0	33.9170	0	26.860	0	369.553	0	60.7	4	19.4	4	-1E+10	1	-1E+10	1	-1E+10	1	-1E+10	1	-1E+10	1	-1E+10	1
4902549	107	C	07/31/2023	15:06	-132.453	47.517	0	378.00	0	4.6290	0	33.9240	0	26.867	0	374.502	0	59.4	4	19.0	4	-1E+10	1	-1E+10	1	-1E+10	1	-1E+10	1	-1E+10	1	-1E+10	1
4902549	107	C	07/31/2023	15:06	-132.453	47.517	0	383.00	0	4.6200	0	33.9280	0	26.871	0	379.451	0	58.3	4	18.6	4	-1E+10	1	-1E+10	1	-1E+10	1	-1E+10	1	-1E+10	1	-1E+10	1
4902549	107	C	07/31/2023	15:06	-132.453	47.517	0	388.10	0	4.6040	0	33.9340	0	26.878	0	384.499	0	57.2	4	18.3	4	-1E+10	1	-1E+10	1	-1E+10	1	-1E+10	1	-1E+10	1	-1E+10	1
4902549	107	C	07/31/2023	15:06	-132.453	47.517	0	393.10	0	4.5920	0	33.9360	0	26.881	0	389.448	0	56.0	4	17.9	4	-1E+10	1	-1E+10	1	-1E+10	1	-1E+10	1	-1E+10	1	-1E+10	1
4902549	107	C	07/31/2023	15:06	-132.453	47.517	0	398.20	0	4.5730	0	33.9430	0	26.888	0	394.496	0	54.8	4	17.5	4	-1E+10	1	-1E+10	1	-1E+10	1	-1E+10	1	-1E+10	1	-1E+10	1
4902549	107	C	07/31/2023	15:06	-132.453	47.517	0	402.90	0	4.5640	0	33.9460	0	26.892	0	399.148	0	53.6	4	17.1	4	-1E+10	1	-1E+10	1	-1E+10	1	-1E+10	1	-1E+10	1	-1E+10	1
4902549	107	C	07/31/2023	15:06	-132.453	47.517	0	407.70	0	4.5480	0	33.9540	0	26.900	0	403.898	0	52.3	4	16.7	4	-1E+10	1	-1E+10	1	-1E+10	1	-1E+10	1	-1E+10	1	-1E+10	1
4902549	107	C	07/31/2023	15:06	-132.453	47.517	0	412.70	0	4.5350	0	33.9590	0	26.905	0	408.847	0	51.3	4	16.4	4	-1E+10	1	-1E+10	1	-1E+10	1	-1E+10	1	-1E+10	1	-1E+10	1
4902549	107	C	07/31/2023	15:06	-132.453	47.517	0	417.60	0	4.5210	0	33.9640	0	26.911	0	413.696	0	50.3	4	16.1	4	-1E+10	1	-1E+10	1	-1E+10	1	-1E+10	1	-1E+10	1	-1E+10	1
4902549	107	C	07/31/2023	15:06	-132.453	47.517	0	422.60	0	4.5090	0	33.9680	0	26.915	0	418.645	0	49.2	4	15.7	4	-1E+10	1	-1E+10	1	-1E+10	1	-1E+10	1	-1E+10	1	-1E+10	1
4902549	107	C	07/31/2023	15:06	-132.453	47.517	0	427.70	0	4.4900	0	33.9740	0	26.922	0	423.692	0	48.1	4	15.3	4	-1E+10	1	-1E+10	1	-1E+10	1	-1E+10	1	-1E+10	1	-1E+10	1
4902549	107	C	07/31/2023	15:06	-132.453	47.517	0	432.90	0	4.4770	0	33.9790	0	26.927	0	428.837	0	47.0	4	15.0	4	-1E+10	1	-1E+10	1	-1E+10	1	-1E+10	1	-1E+10	1	-1E+10	1
4902549	107	C	07/31/2023	15:06	-132.453	47.517	0	437.80	0	4.4810	0	33.9840	0	26.931	0	433.686	0	46.2	4	14.7	4	-1E+10	1	-1E+10	1	-1E+10	1	-1E+10	1	-1E+10	1	-1E+10	1
4902549	107	C	07/31/2023	15:06	-132.453	47.517	0	442.90	0	4.4670	0	33.9880	0	26.936	0	438.733	0	45.7	4	14.6	4	-1E+10	1	-1E+10	1	-1E+10	1	-1E+10	1	-1E+10	1	-1E+10	1
4902549	107	C	07/31/2023	15:06	-132.453	47.517	0	448.10	0	4.4440	0	33.9920	0	26.941	0	443.879	0	44.8	4	14.3	4	-1E+10	1	-1E+10	1	-1E+10	1	-1E+10	1	-1E+10	1	-1E+10	1
4902549	107	C	07/31/2023	15:06	-132.453	47.517	0	452.90	0	4.4350	0	33.9960	0	26.946	0	448.628	0	43.6	4	13.9	4	-1E+10	1	-1E+10	1	-1E+10	1	-1E+10	1	-1E+10	1	-1E+10	1
4902549	107	C	07/31/2023	15:06	-132.453	47.517	0	458.00	0	4.4280	0	34.0020	0	26.951	0	453.675	0	42.6	4	13.6	4	-1E+10	1	-1E+10	1	-1E+10	1	-1E+10	1	-1E+10	1	-1E+10	1
4902549	107	C	07/31/2023	15:06	-132.453	47.517	0	463.10	0	4.4130	0	34.0060	0	26.956	0	458.721	0	41.6	4	13.2	4	-1E+10	1	-1E+10	1	-1E+10	1	-1E+10	1	-1E+10	1	-1E+10	1
4902549	107	C	07/31/2023	15:06	-132.453	47.517	0	467.90	0	4.4010	0	34.0100	0	26.960	0	463.470	0	40.6	4	12.9	4	-1E+10	1	-1E+10	1	-1E+10	1	-1E+10	1	-1E+10	1	-1E+10	1
4902549	107	C	07/31/2023	15:06	-132.453	47.517	0	472.80	0	4.3860	0	34.0150	0	26.966	0	468.318	0	39.4	4	12.6	4	-1E+10	1	-1E+10	1	-1E+10	1	-1E+10	1	-1E+10	1	-1E+10	1
4902549	107	C	07/31/2023	15:06	-132.453	47.517	0	477.70	0	4.3680	0	34.0220	0	26.974	0	473.166	0	38.2	4	12.1	4	-1E+10	1	-1E+10	1	-1E+10	1	-1E+10	1	-1E+10	1	-1E+10	1
4902549	107	C	07/31/2023	15:06	-132.453	47.517	0	482.80	0	4.3550	0	34.0270	0	26.979	0	478.212	0	37.1	4	11.8	4	-1E+10	1	-1E+10	1	-1E+10	1	-1E+10	1	-1E+10	1	-1E+10	1
4902549	107	C	07/31/2023	15:06	-132.453	47.517	0	487.90	0	4.3370	0	34.0320	0	26.985	0	483.257	0	36.0	4	11.4	4	-1E+10	1	-1E+10	1	-1E+10	1	-1E+10	1	-1E+10	1	-1E+10	1
4902549	107	C	07/31/2023	15:06	-132.453	47.517	0	492.60	0	4.3290	0	34.0370	0	26.990	0	487.907	0	34.9	4	11.1	4	-1E+10	1	-1E+10	1	-1E+10	1	-1E+10	1	-1E+10	1	-1E+10	1
4902549	107	C	07/31/2023	15:06	-132.453	47.517	0	497.80	0	4.3110	0	34.0410	0	26.995	0	493.051	0	33.8	4	10.7	4	-1E+10	1	-1E+10	1	-1E+10	1	-1E+10	1	-1E+10	1	-1E+10	1
4902549	107	C	07/31/2023	15:06	-132.453	47.517	0	503.00	0	4.3030	0	34.0480	0	27.001	0	498.196	0	32.5	4	10.3	4	-1E+10	1	-1E+10	1	-1E+10	1	-1E+10	1	-1E+10	1	-1E+10	1
4902549	107	C	07/31/2023	15:06	-132.453	47.517	0	507.90	0	4.2980	0	34.0530	0	27.006	0	503.043	0	31.9	4	10.1	4	-1E+10	1	-1E+10	1	-1E+10	1	-1E+10	1	-1E+10	1	-1E+10	1
4902549	107	C	07/31/2023	15:06	-132.453	47.517	0	512.70	0	4.2810	0	34.0560	0	27.010	0	507.791	0	31.4	4	10.0	4	-1E+10	1	-1E+10	1	-1E+10	1	-1E+10	1	-1E+10	1	-1E+10	1
4902549	107	C	07/31/2023	15:06	-132.453	47.517	0	518.00	0	4.2720	0	34.0600	0	27.014	0	513.034	0	30.9	4	9.8	4	-1E+10	1	-1E+10	1	-1E+10	1	-1E+10	1	-1E+10	1	-1E+10	1
4902549	107	C	07/31/2023	15:06	-132.453	47.517	0	523.20	0	4.2390	0	34.0630	0	27.020	0	518.177	0	30.3	4	9.6	4	-1E+10	1	-1E+10	1	-1E+10	1	-1E+10	1	-1E+10	1	-1E+10	1
4902549	107	C	07/31/2023	15:06	-132.453	47.517	0	527.90	0	4.2320	0	34.0670	0	27.024	0	522.826	0	29.9	4	9.5	4	-1E+10	1	-1E+10	1	-1E+10	1	-1E+10	1	-1E+10	1	-1E+10	1
4902549	107	C	07/31/2023	15:06	-132.453	47.517	0	533.00	0	4.2160	0	34.0690	0	27.027	0	527.871	0	29.5	4	9.4	4	-1E+10	1	-1E+10	1	-1E+10	1	-1E+10	1	-1E+10	1	-1E+10	1
4902549	107	C	07/31/2023	15:06	-132.453	47.517	0	538.10	0	4.1900	0	34.0730	0	27.033	0	532.915	0	28.9	4	9.2	4	-1E+10	1	-1E+10	1	-1E+10	1	-1E+10	1	-1E+10	1	-1E+10	1
4902549	107	C	07/31/2023	15:06	-132.453	47.517	0	542.80	0	4.1790	0	34.0750	0	27.036	0	537.564	0	28.1	4	8.9	4	-1E+10	1	-1E+10	1	-1E+10	1	-1E+10	1	-1E+10	1	-1E+10	1
4902549	107	C	07/31/2023	15:06	-132.453	47.517	0	547.90	0	4.1650	0	34.0820	0	27.043	0	542.608	0	27.5	4	8.7	4	-1E+10	1	-1E+10	1	-1E+10	1	-1E+10	1	-1E+10	1	-1E+10	1
4902549	107	C	07/31/2023	15:06	-132.453	47.517	0	553.00	0	4.1420	0	34.0850	0	27.048	0	547.652	0	26.6	4	8.4	4	-1E+10	1	-1E+10	1	-1E+10	1	-1E+10	1	-1E+10	1	-1E+10	1
4902549	107	C	07/31/2023	15:06	-132.453	47.517	0	557.70	0	4.1260	0	34.0910	0	27.054	0	552.300	0	25.6	4	8.1	4	-1E+10	1	-1E+10	1	-1E+10	1	-1E+10	1	-1E+10	1	-1E+10	1
4902549	107	C	07/31/2023	15:06	-132.453	47.517	0	562.90	0	4.1110	0	34.0990	0	27.062	0	557.443	0	24.9	4	7.9	4	-1E+10	1	-1E+10	1	-1E+10	1	-1E+10	1	-1E+10	1	-1E+10	1
4902549	107	C	07/31/2023	15:06	-132.453	47.517	0	568.10	0	4.0850	0	34.1030	0	27.068	0	562.586	0	24.1	4	7.6	4	-1E+10	1	-1E+10	1	-1E+10	1	-1E+10	1	-1E+10	1	-1E+10	1
4902549	107	C	07/31/2023	15:06	-132.453	47.517	0	572.80	0	4.0640	0	34.1090	0	27.075	0	567.234	0	23.3	4	7.3	4	-1E+10	1	-1E+10	1	-1E+10	1	-1E+10	1	-1E+10	1	-1E+10	1
4902549	107	C	07/31/2023	15:06	-132.453	47.517	0	578.00	0	4.0470	0	34.1160	0	27.082	0	572.376	0	22.3	4	7.1	4	-1E+10	1	-1E+10	1	-1E+10	1	-1E+10	1	-1E+10	1	-1E+10	1
4902549	107	C	07/31/2023	15:06	-132.453	47.517	0	583.10	0	4.0270	0	34.1220	0	27.089	0	577.419	0	21.5	4	6.8	4	-1E+10	1	-1E+10	1	-1E+10	1	-1E+10	1	-1E+10	1	-1E+10	1
4902549	107	C	07/31/2023	15:06	-132.453	47.517	0	587.80	0	4.0070	0	34.1290	0	27.097	0	582.067	0	20.9	4	6.6	4	-1E+10	1	-1E+10	1	-1E+10	1	-1E+10	1	-1E+10	1	-1E+10	1
4902549	107	C	07/31/2023	15:06	-132.453	47.517	0	592.90	0	3.9980	0	34.1330	0	27.101	0	587.110	0	20.6	4	6.5	4	-1E+10	1	-1E+10	1	-1E+10	1	-1E+10	1	-1E+10	1	-1E+10	1
4902549	107	C	07/31/2023	15:06	-132.453	47.517	0	598.20	0	3.9850	0	34.1360	0	27.105	0	592.351	0	20.3	4	6.4	4	-1E+10	1	-1E+10	1	-1E+10	1	-1E+10	1	-1E+10	1	-1E+10	1
4902549	107	C	07/31/2023	15:06	-132.453	47.517	0	602.90	0	3.9760	0	34.1380	0	27.107	0	596.998	0	19.8	4	6.3	4	-1E+10	1	-1E+10	1	-1E+10	1	-1E+10	1	-1E+10	1	-1E+10	1
4902549	107	C	07/31/2023	15:06	-132.453	47.517	0	607.70	0	3.9580	0	34.1420	0	27.112	0	601.744	0	19.4	4	6.1	4	-1E+10	1	-1E+10	1	-1E+10	1	-1E+10	1	-1E+10	1	-1E+10	1
4902549	107	C	07/31/2023	15:06	-132.453	47.517	0	612.50	0	3.9440	0	34.1470	0	27.118	0	606.490	0	19.0	4	6.0	4	-1E+10	1	-1E+10	1	-1E+10	1	-1E+10	1	-1E+10	1	-1E+10	1
4902549	107	C	07/31/2023	15:06	-132.453	47.517	0	617.50	0	3.9350	0	34.1490	0	27.120	0	611.434	0	18.7	4	5.9	4	-1E+10	1	-1E+10	1	-1E+10	1	-1E+10	1	-1E+10	1	-1E+10	1
4902549	107	C	07/31/2023	15:06	-132.453	47.517	0	622.50	0	3.9290	0	34.1510	0	27.123	0	616.377	0	18.4	4	5.8	4	-1E+10	1	-1E+10	1	-1E+10	1	-1E+10	1	-1E+10	1	-1E+10	1
4902549	107	C	07/31/2023	15:06	-132.453	47.517	0	627.40	0	3.9210	0	34.1530	0	27.125	0	621.222	0	18.0	4	5.7	4	-1E+10	1	-1E+10	1	-1E+10	1	-1E+10	1	-1E+10	1	-1E+10	1
4902549	107	C	07/31/2023	15:06	-132.453	47.517	0	632.50	0	3.9060	0	34.1570	0	27.130	0	626.264	0	17.6	4	5.6	4	-1E+10	1	-1E+10	1	-1E+10	1	-1E+10	1	-1E+10	1	-1E+10	1
4902549	107	C	07/31/2023	15:06	-132.453	47.517	0	637.50	0	3.8980	0	34.1610	0	27.134	0	631.207	0	17.3	4	5.4	4	-1E+10	1	-1E+10	1	-1E+10	1	-1E+10	1	-1E+10	1	-1E+10	1
4902549	107	C	07/31/2023	15:06	-132.453	47.517	0	642.60	0	3.8900	0	34.1630	0	27.136	0	636.249	0	16.9	4	5.3	4	-1E+10	1	-1E+10	1	-1E+10	1	-1E+10	1	-1E+10	1	-1E+10	1
4902549	107	C	07/31/2023	15:06	-132.453	47.517	0	647.70	0	3.8750	0	34.1680	0	27.142	0	641.291	0	16.5	4	5.2	4	-1E+10	1	-1E+10	1	-1E+10	1	-1E+10	1	-1E+10	1	-1E+10	1
4902549	107	C	07/31/2023	15:06	-132.453	47.517	0	652.90	0	3.8620	0	34.1710	0	27.146	0	646.431	0	16.2	4	5.1	4	-1E+10	1	-1E+10	1	-1E+10	1	-1E+10	1	-1E+10	1	-1E+10	1
4902549	107	C	07/31/2023	15:06	-132.453	47.517	0	658.10	0	3.8550	0	34.1730	0	27.148	0	651.571	0	15.9	4	5.0	4	-1E+10	1	-1E+10	1	-1E+10	1	-1E+10	1	-1E+10	1	-1E+10	1
4902549	107	C	07/31/2023	15:06	-132.453	47.517	0	662.90	0	3.8500	0	34.1760	0	27.151	0	656.316	0	15.7	4	4.9	4	-1E+10	1	-1E+10	1	-1E+10	1	-1E+10	1	-1E+10	1	-1E+10	1
4902549	107	C	07/31/2023	15:06	-132.453	47.517	0	667.80	0	3.8420	0	34.1780	0	27.153	0	661.160	0	15.4	4	4.8	4	-1E+10	1	-1E+10	1	-1E+10	1	-1E+10	1	-1E+10	1	-1E+10	1
4902549	107	C	07/31/2023	15:06	-132.453	47.517	0	672.80	0	3.8340	0	34.1800	0	27.156	0	666.102	0	15.0	4	4.7	4	-1E+10	1	-1E+10	1	-1E+10	1	-1E+10	1	-1E+10	1	-1E+10	1
4902549	107	C	07/31/2023	15:06	-132.453	47.517	0	677.90	0	3.8240	0	34.1840	0	27.160	0	671.143	0	14.4	4	4.5	4	-1E+10	1	-1E+10	1	-1E+10	1	-1E+10	1	-1E+10	1	-1E+10	1
4902549	107	C	07/31/2023	15:06	-132.453	47.517	0	682.80	0	3.8090	0	34.1890	0	27.165	0	675.986	0	14.0	4	4.4	4	-1E+10	1	-1E+10	1	-1E+10	1	-1E+10	1	-1E+10	1	-1E+10	1
4902549	107	C	07/31/2023	15:06	-132.453	47.517	0	687.70	0	3.7930	0	34.1950	0	27.172	0	680.829	0	13.7	4	4.3	4	-1E+10	1	-1E+10	1	-1E+10	1	-1E+10	1	-1E+10	1	-1E+10	1
4902549	107	C	07/31/2023	15:06	-132.453	47.517	0	692.90	0	3.7820	0	34.1980	0	27.175	0	685.969	0	13.4	4	4.2	4	-1E+10	1	-1E+10	1	-1E+10	1	-1E+10	1	-1E+10	1	-1E+10	1
4902549	107	C	07/31/2023	15:06	-132.453	47.517	0	697.80	0	3.7740	0	34.2010	0	27.179	0	690.812	0	13.3	4	4.2	4	-1E+10	1	-1E+10	1	-1E+10	1	-1E+10	1	-1E+10	1	-1E+10	1
4902549	107	C	07/31/2023	15:06	-132.453	47.517	0	702.70	0	3.7730	0	34.2030	0	27.180	0	695.655	0	13.1	4	4.1	4	-1E+10	1	-1E+10	1	-1E+10	1	-1E+10	1	-1E+10	1	-1E+10	1
4902549	107	C	07/31/2023	15:06	-132.453	47.517	0	708.10	0	3.7680	0	34.2040	0	27.182	0	700.991	0	12.9	4	4.0	4	-1E+10	1	-1E+10	1	-1E+10	1	-1E+10	1	-1E+10	1	-1E+10	1
4902549	107	C	07/31/2023	15:06	-132.453	47.517	0	712.90	0	3.7530	0	34.2070	0	27.185	0	705.735	0	12.6	4	4.0	4	-1E+10	1	-1E+10	1	-1E+10	1	-1E+10	1	-1E+10	1	-1E+10	1
4902549	107	C	07/31/2023	15:06	-132.453	47.517	0	717.70	0	3.7390	0	34.2110	0	27.190	0	710.479	0	12.3	4	3.9	4	-1E+10	1	-1E+10	1	-1E+10	1	-1E+10	1	-1E+10	1	-1E+10	1
4902549	107	C	07/31/2023	15:06	-132.453	47.517	0	723.00	0	3.7280	0	34.2140	0	27.194	0	715.716	0	12.1	4	3.8	4	-1E+10	1	-1E+10	1	-1E+10	1	-1E+10	1	-1E+10	1	-1E+10	1
4902549	107	C	07/31/2023	15:06	-132.453	47.517	0	727.90	0	3.7190	0	34.2180	0	27.198	0	720.558	0	11.8	4	3.7	4	-1E+10	1	-1E+10	1	-1E+10	1	-1E+10	1	-1E+10	1	-1E+10	1
4902549	107	C	07/31/2023	15:06	-132.453	47.517	0	732.80	0	3.7110	0	34.2200	0	27.200	0	725.400	0	11.6	4	3.6	4	-1E+10	1	-1E+10	1	-1E+10	1	-1E+10	1	-1E+10	1	-1E+10	1
4902549	107	C	07/31/2023	15:06	-132.453	47.517	0	738.10	0	3.6990	0	34.2240	0	27.205	0	730.638	0	11.2	4	3.5	4	-1E+10	1	-1E+10	1	-1E+10	1	-1E+10	1	-1E+10	1	-1E+10	1
4902549	107	C	07/31/2023	15:06	-132.453	47.517	0	743.10	0	3.6830	0	34.2280	0	27.209	0	735.578	0	10.8	4	3.4	4	-1E+10	1	-1E+10	1	-1E+10	1	-1E+10	1	-1E+10	1	-1E+10	1
4902549	107	C	07/31/2023	15:06	-132.453	47.517	0	748.00	0	3.6700	0	34.2340	0	27.215	0	740.420	0	10.3	4	3.2	4	-1E+10	1	-1E+10	1	-1E+10	1	-1E+10	1	-1E+10	1	-1E+10	1
4902549	107	C	07/31/2023	15:06	-132.453	47.517	0	752.90	0	3.6710	0	34.2390	0	27.219	0	745.262	0	9.9	4	3.1	4	-1E+10	1	-1E+10	1	-1E+10	1	-1E+10	1	-1E+10	1	-1E+10	1
4902549	107	C	07/31/2023	15:06	-132.453	47.517	0	757.80	0	3.6640	0	34.2440	0	27.224	0	750.103	0	9.6	4	3.0	4	-1E+10	1	-1E+10	1	-1E+10	1	-1E+10	1	-1E+10	1	-1E+10	1
4902549	107	C	07/31/2023	15:06	-132.453	47.517	0	762.90	0	3.6680	0	34.2480	0	27.227	0	755.142	0	9.4	4	3.0	4	-1E+10	1	-1E+10	1	-1E+10	1	-1E+10	1	-1E+10	1	-1E+10	1
4902549	107	C	07/31/2023	15:06	-132.453	47.517	0	768.00	0	3.6640	0	34.2500	0	27.229	0	760.181	0	9.4	4	2.9	4	-1E+10	1	-1E+10	1	-1E+10	1	-1E+10	1	-1E+10	1	-1E+10	1
4902549	107	C	07/31/2023	15:06	-132.453	47.517	0	773.10	0	3.6450	0	34.2530	0	27.233	0	765.220	0	9.4	4	2.9	4	-1E+10	1	-1E+10	1	-1E+10	1	-1E+10	1	-1E+10	1	-1E+10	1
4902549	107	C	07/31/2023	15:06	-132.453	47.517	0	777.80	0	3.6340	0	34.2570	0	27.237	0	769.863	0	9.5	4	3.0	4	-1E+10	1	-1E+10	1	-1E+10	1	-1E+10	1	-1E+10	1	-1E+10	1
4902549	107	C	07/31/2023	15:06	-132.453	47.517	0	782.60	0	3.6160	0	34.2580	0	27.240	0	774.605	0	9.7	4	3.0	4	-1E+10	1	-1E+10	1	-1E+10	1	-1E+10	1	-1E+10	1	-1E+10	1
4902549	107	C	07/31/2023	15:06	-132.453	47.517	0	787.50	0	3.5920	0	34.2590	0	27.243	0	779.446	0	9.7	4	3.0	4	-1E+10	1	-1E+10	1	-1E+10	1	-1E+10	1	-1E+10	1	-1E+10	1
4902549	107	C	07/31/2023	15:06	-132.453	47.517	0	792.40	0	3.5720	0	34.2630	0	27.248	0	784.287	0	9.5	4	3.0	4	-1E+10	1	-1E+10	1	-1E+10	1	-1E+10	1	-1E+10	1	-1E+10	1
4902549	107	C	07/31/2023	15:06	-132.453	47.517	0	797.50	0	3.5670	0	34.2670	0	27.252	0	789.325	0	9.4	4	2.9	4	-1E+10	1	-1E+10	1	-1E+10	1	-1E+10	1	-1E+10	1	-1E+10	1
4902549	107	C	07/31/2023	15:06	-132.453	47.517	0	802.60	0	3.5430	0	34.2680	0	27.255	0	794.363	0	9.3	4	2.9	4	-1E+10	1	-1E+10	1	-1E+10	1	-1E+10	1	-1E+10	1	-1E+10	1
4902549	107	C	07/31/2023	15:06	-132.453	47.517	0	807.80	0	3.5390	0	34.2740	0	27.260	0	799.499	0	8.9	4	2.8	4	-1E+10	1	-1E+10	1	-1E+10	1	-1E+10	1	-1E+10	1	-1E+10	1
4902549	107	C	07/31/2023	15:06	-132.453	47.517	0	812.90	0	3.5370	0	34.2790	0	27.265	0	804.537	0	9.1	4	2.8	4	-1E+10	1	-1E+10	1	-1E+10	1	-1E+10	1	-1E+10	1	-1E+10	1
4902549	107	C	07/31/2023	15:06	-132.453	47.517	0	818.10	0	3.5200	0	34.2780	0	27.265	0	809.674	0	9.3	4	2.9	4	-1E+10	1	-1E+10	1	-1E+10	1	-1E+10	1	-1E+10	1	-1E+10	1
4902549	107	C	07/31/2023	15:06	-132.453	47.517	0	823.00	0	3.4880	0	34.2780	0	27.269	0	814.514	0	9.3	4	2.9	4	-1E+10	1	-1E+10	1	-1E+10	1	-1E+10	1	-1E+10	1	-1E+10	1
4902549	107	C	07/31/2023	15:06	-132.453	47.517	0	827.90	0	3.4730	0	34.2810	0	27.272	0	819.354	0	9.0	4	2.8	4	-1E+10	1	-1E+10	1	-1E+10	1	-1E+10	1	-1E+10	1	-1E+10	1
4902549	107	C	07/31/2023	15:06	-132.453	47.517	0	832.90	0	3.4600	0	34.2840	0	27.276	0	824.292	0	8.6	4	2.7	4	-1E+10	1	-1E+10	1	-1E+10	1	-1E+10	1	-1E+10	1	-1E+10	1
4902549	107	C	07/31/2023	15:06	-132.453	47.517	0	837.90	0	3.4730	0	34.2890	0	27.279	0	829.231	0	8.1	4	2.5	4	-1E+10	1	-1E+10	1	-1E+10	1	-1E+10	1	-1E+10	1	-1E+10	1
4902549	107	C	07/31/2023	15:06	-132.453	47.517	0	843.00	0	3.4730	0	34.2950	0	27.284	0	834.268	0	7.4	4	2.3	4	-1E+10	1	-1E+10	1	-1E+10	1	-1E+10	1	-1E+10	1	-1E+10	1
4902549	107	C	07/31/2023	15:06	-132.453	47.517	0	848.10	0	3.4920	0	34.3030	0	27.288	0	839.304	0	7.1	4	2.2	4	-1E+10	1	-1E+10	1	-1E+10	1	-1E+10	1	-1E+10	1	-1E+10	1
4902549	107	C	07/31/2023	15:06	-132.453	47.517	0	852.90	0	3.4990	0	34.3060	0	27.290	0	844.045	0	7.2	4	2.2	4	-1E+10	1	-1E+10	1	-1E+10	1	-1E+10	1	-1E+10	1	-1E+10	1
4902549	107	C	07/31/2023	15:06	-132.453	47.517	0	857.70	0	3.4930	0	34.3100	0	27.294	0	848.785	0	7.5	4	2.3	4	-1E+10	1	-1E+10	1	-1E+10	1	-1E+10	1	-1E+10	1	-1E+10	1
4902549	107	C	07/31/2023	15:06	-132.453	47.517	0	863.00	0	3.4440	0	34.3090	0	27.298	0	854.020	0	7.9	4	2.5	4	-1E+10	1	-1E+10	1	-1E+10	1	-1E+10	1	-1E+10	1	-1E+10	1
4902549	107	C	07/31/2023	15:06	-132.453	47.517	0	867.90	0	3.3960	0	34.3070	0	27.301	0	858.859	0	7.9	4	2.5	4	-1E+10	1	-1E+10	1	-1E+10	1	-1E+10	1	-1E+10	1	-1E+10	1
4902549	107	C	07/31/2023	15:06	-132.453	47.517	0	872.80	0	3.4200	0	34.3130	0	27.303	0	863.697	0	8.0	4	2.5	4	-1E+10	1	-1E+10	1	-1E+10	1	-1E+10	1	-1E+10	1	-1E+10	1
4902549	107	C	07/31/2023	15:06	-132.453	47.517	0	877.80	0	3.3600	0	34.3120	0	27.308	0	868.635	0	8.4	4	2.6	4	-1E+10	1	-1E+10	1	-1E+10	1	-1E+10	1	-1E+10	1	-1E+10	1
4902549	107	C	07/31/2023	15:06	-132.453	47.517	0	882.90	0	3.3260	0	34.3120	0	27.311	0	873.671	0	8.7	4	2.7	4	-1E+10	1	-1E+10	1	-1E+10	1	-1E+10	1	-1E+10	1	-1E+10	1
4902549	107	C	07/31/2023	15:06	-132.453	47.517	0	888.00	0	3.2880	0	34.3090	0	27.313	0	878.707	0	8.7	4	2.7	4	-1E+10	1	-1E+10	1	-1E+10	1	-1E+10	1	-1E+10	1	-1E+10	1
4902549	107	C	07/31/2023	15:06	-132.453	47.517	0	892.70	0	3.2750	0	34.3120	0	27.316	0	883.348	0	8.6	4	2.7	4	-1E+10	1	-1E+10	1	-1E+10	1	-1E+10	1	-1E+10	1	-1E+10	1
4902549	107	C	07/31/2023	15:06	-132.453	47.517	0	897.80	0	3.2650	0	34.3150	0	27.320	0	888.384	0	8.4	4	2.6	4	-1E+10	1	-1E+10	1	-1E+10	1	-1E+10	1	-1E+10	1	-1E+10	1
4902549	107	C	07/31/2023	15:06	-132.453	47.517	0	902.90	0	3.2600	0	34.3170	0	27.322	0	893.419	0	8.4	4	2.6	4	-1E+10	1	-1E+10	1	-1E+10	1	-1E+10	1	-1E+10	1	-1E+10	1
4902549	107	C	07/31/2023	15:06	-132.453	47.517	0	908.00	0	3.2540	0	34.3180	0	27.323	0	898.455	0	8.3	4	2.6	4	-1E+10	1	-1E+10	1	-1E+10	1	-1E+10	1	-1E+10	1	-1E+10	1
4902549	107	C	07/31/2023	15:06	-132.453	47.517	0	913.20	0	3.2530	0	34.3190	0	27.324	0	903.589	0	8.1	4	2.5	4	-1E+10	1	-1E+10	1	-1E+10	1	-1E+10	1	-1E+10	1	-1E+10	1
4902549	107	C	07/31/2023	15:06	-132.453	47.517	0	917.90	0	3.2520	0	34.3190	0	27.324	0	908.229	0	7.9	4	2.4	4	-1E+10	1	-1E+10	1	-1E+10	1	-1E+10	1	-1E+10	1	-1E+10	1
4902549	107	C	07/31/2023	15:06	-132.453	47.517	0	923.10	0	3.2540	0	34.3230	0	27.327	0	913.363	0	7.4	4	2.3	4	-1E+10	1	-1E+10	1	-1E+10	1	-1E+10	1	-1E+10	1	-1E+10	1
4902549	107	C	07/31/2023	15:06	-132.453	47.517	0	928.10	0	3.2880	0	34.3320	0	27.331	0	918.299	0	7.1	4	2.2	4	-1E+10	1	-1E+10	1	-1E+10	1	-1E+10	1	-1E+10	1	-1E+10	1
4902549	107	C	07/31/2023	15:06	-132.453	47.517	0	932.80	0	3.2910	0	34.3340	0	27.333	0	922.939	0	6.8	4	2.1	4	-1E+10	1	-1E+10	1	-1E+10	1	-1E+10	1	-1E+10	1	-1E+10	1
4902549	107	C	07/31/2023	15:06	-132.453	47.517	0	938.00	0	3.3060	0	34.3420	0	27.338	0	928.073	0	6.7	4	2.1	4	-1E+10	1	-1E+10	1	-1E+10	1	-1E+10	1	-1E+10	1	-1E+10	1
4902549	107	C	07/31/2023	15:06	-132.453	47.517	0	943.20	0	3.2900	0	34.3430	0	27.340	0	933.206	0	6.7	4	2.1	4	-1E+10	1	-1E+10	1	-1E+10	1	-1E+10	1	-1E+10	1	-1E+10	1
4902549	107	C	07/31/2023	15:06	-132.453	47.517	0	947.90	0	3.2870	0	34.3470	0	27.343	0	937.846	0	6.5	4	2.0	4	-1E+10	1	-1E+10	1	-1E+10	1	-1E+10	1	-1E+10	1	-1E+10	1
4902549	107	C	07/31/2023	15:06	-132.453	47.517	0	953.00	0	3.2890	0	34.3500	0	27.346	0	942.880	0	6.4	4	2.0	4	-1E+10	1	-1E+10	1	-1E+10	1	-1E+10	1	-1E+10	1	-1E+10	1
4902549	107	C	07/31/2023	15:06	-132.453	47.517	0	958.00	0	3.2930	0	34.3540	0	27.349	0	947.816	0	6.4	4	2.0	4	-1E+10	1	-1E+10	1	-1E+10	1	-1E+10	1	-1E+10	1	-1E+10	1
4902549	107	C	07/31/2023	15:06	-132.453	47.517	0	962.70	0	3.2860	0	34.3570	0	27.352	0	952.455	0	6.5	4	2.0	4	-1E+10	1	-1E+10	1	-1E+10	1	-1E+10	1	-1E+10	1	-1E+10	1
4902549	107	C	07/31/2023	15:06	-132.453	47.517	0	968.00	0	3.2760	0	34.3590	0	27.354	0	957.687	0	6.5	4	2.0	4	-1E+10	1	-1E+10	1	-1E+10	1	-1E+10	1	-1E+10	1	-1E+10	1
4902549	107	C	07/31/2023	15:06	-132.453	47.517	0	973.30	0	3.2580	0	34.3610	0	27.358	0	962.918	0	6.6	4	2.0	4	-1E+10	1	-1E+10	1	-1E+10	1	-1E+10	1	-1E+10	1	-1E+10	1
4902549	107	C	07/31/2023	15:06	-132.453	47.517	0	978.10	0	3.2400	0	34.3630	0	27.361	0	967.656	0	6.6	4	2.1	4	-1E+10	1	-1E+10	1	-1E+10	1	-1E+10	1	-1E+10	1	-1E+10	1
4902549	107	C	07/31/2023	15:06	-132.453	47.517	0	983.00	0	3.2230	0	34.3630	0	27.362	0	972.492	0	6.7	4	2.1	4	-1E+10	1	-1E+10	1	-1E+10	1	-1E+10	1	-1E+10	1	-1E+10	1
4902549	107	C	07/31/2023	15:06	-132.453	47.517	0	987.80	0	3.1960	0	34.3640	0	27.366	0	977.230	0	6.7	4	2.1	4	-1E+10	1	-1E+10	1	-1E+10	1	-1E+10	1	-1E+10	1	-1E+10	1
4902549	107	C	07/31/2023	15:06	-132.453	47.517	0	992.70	0	3.1990	0	34.3670	0	27.368	0	982.066	0	6.7	4	2.1	4	-1E+10	1	-1E+10	1	-1E+10	1	-1E+10	1	-1E+10	1	-1E+10	1
4902549	107	C	07/31/2023	15:06	-132.453	47.517	0	998.00	0	3.1960	0	34.3700	0	27.371	0	987.296	0	6.7	4	2.1	4	-1E+10	1	-1E+10	1	-1E+10	1	-1E+10	1	-1E+10	1	-1E+10	1
4902549	107	C	07/31/2023	15:06	-132.453	47.517	0	1005.80	0	3.1740	0	34.3720	0	27.374	0	994.994	0	6.8	4	2.1	4	-1E+10	1	-1E+10	1	-1E+10	1	-1E+10	1	-1E+10	1	-1E+10	1
4902549	107	C	07/31/2023	15:06	-132.453	47.517	0	1016.00	0	3.1340	0	34.3750	0	27.380	0	1005.060	0	6.9	4	2.1	4	-1E+10	1	-1E+10	1	-1E+10	1	-1E+10	1	-1E+10	1	-1E+10	1
4902549	107	C	07/31/2023	15:06	-132.453	47.517	0	1025.40	0	3.1220	0	34.3770	0	27.383	0	1014.336	0	6.9	4	2.1	4	-1E+10	1	-1E+10	1	-1E+10	1	-1E+10	1	-1E+10	1	-1E+10	1
4902549	107	C	07/31/2023	15:06	-132.453	47.517	0	1035.40	0	3.1150	0	34.3810	0	27.387	0	1024.204	0	7.0	4	2.2	4	-1E+10	1	-1E+10	1	-1E+10	1	-1E+10	1	-1E+10	1	-1E+10	1
4902549	107	C	07/31/2023	15:06	-132.453	47.517	0	1045.30	0	3.0820	0	34.3810	0	27.390	0	1033.973	0	7.1	4	2.2	4	-1E+10	1	-1E+10	1	-1E+10	1	-1E+10	1	-1E+10	1	-1E+10	1
4902549	107	C	07/31/2023	15:06	-132.453	47.517	0	1055.20	0	3.0600	0	34.3860	0	27.396	0	1043.741	0	7.1	4	2.2	4	-1E+10	1	-1E+10	1	-1E+10	1	-1E+10	1	-1E+10	1	-1E+10	1
4902549	107	C	07/31/2023	15:06	-132.453	47.517	0	1065.30	0	3.0370	0	34.3900	0	27.401	0	1053.706	0	7.2	4	2.2	4	-1E+10	1	-1E+10	1	-1E+10	1	-1E+10	1	-1E+10	1	-1E+10	1
4902549	107	C	07/31/2023	15:06	-132.453	47.517	0	1075.20	0	3.0180	0	34.3940	0	27.406	0	1063.473	0	7.3	4	2.3	4	-1E+10	1	-1E+10	1	-1E+10	1	-1E+10	1	-1E+10	1	-1E+10	1
4902549	107	C	07/31/2023	15:06	-132.453	47.517	0	1085.40	0	2.9890	0	34.3960	0	27.411	0	1073.536	0	7.4	4	2.3	4	-1E+10	1	-1E+10	1	-1E+10	1	-1E+10	1	-1E+10	1	-1E+10	1
4902549	107	C	07/31/2023	15:06	-132.453	47.517	0	1095.20	0	2.9730	0	34.3980	0	27.414	0	1083.203	0	7.5	4	2.3	4	-1E+10	1	-1E+10	1	-1E+10	1	-1E+10	1	-1E+10	1	-1E+10	1
4902549	107	C	07/31/2023	15:06	-132.453	47.517	0	1105.20	0	2.9580	0	34.4010	0	27.418	0	1093.067	0	7.6	4	2.3	4	-1E+10	1	-1E+10	1	-1E+10	1	-1E+10	1	-1E+10	1	-1E+10	1
4902549	107	C	07/31/2023	15:06	-132.453	47.517	0	1115.30	0	2.9460	0	34.4040	0	27.421	0	1103.030	0	7.7	4	2.4	4	-1E+10	1	-1E+10	1	-1E+10	1	-1E+10	1	-1E+10	1	-1E+10	1
4902549	107	C	07/31/2023	15:06	-132.453	47.517	0	1125.30	0	2.9380	0	34.4060	0	27.423	0	1112.894	0	7.7	4	2.4	4	-1E+10	1	-1E+10	1	-1E+10	1	-1E+10	1	-1E+10	1	-1E+10	1
4902549	107	C	07/31/2023	15:06	-132.453	47.517	0	1135.40	0	2.9170	0	34.4070	0	27.426	0	1122.855	0	7.9	4	2.4	4	-1E+10	1	-1E+10	1	-1E+10	1	-1E+10	1	-1E+10	1	-1E+10	1
4902549	107	C	07/31/2023	15:06	-132.453	47.517	0	1145.50	0	2.8900	0	34.4100	0	27.431	0	1132.816	0	8.0	4	2.5	4	-1E+10	1	-1E+10	1	-1E+10	1	-1E+10	1	-1E+10	1	-1E+10	1
4902549	107	C	07/31/2023	15:06	-132.453	47.517	0	1155.60	0	2.8740	0	34.4110	0	27.433	0	1142.777	0	8.1	4	2.5	4	-1E+10	1	-1E+10	1	-1E+10	1	-1E+10	1	-1E+10	1	-1E+10	1
4902549	107	C	07/31/2023	15:06	-132.453	47.517	0	1165.20	0	2.8600	0	34.4140	0	27.437	0	1152.244	0	8.2	4	2.5	4	-1E+10	1	-1E+10	1	-1E+10	1	-1E+10	1	-1E+10	1	-1E+10	1
4902549	107	C	07/31/2023	15:06	-132.453	47.517	0	1175.30	0	2.8370	0	34.4160	0	27.441	0	1162.204	0	8.4	4	2.6	4	-1E+10	1	-1E+10	1	-1E+10	1	-1E+10	1	-1E+10	1	-1E+10	1
4902549	107	C	07/31/2023	15:06	-132.453	47.517	0	1185.40	0	2.8150	0	34.4200	0	27.446	0	1172.164	0	8.6	4	2.6	4	-1E+10	1	-1E+10	1	-1E+10	1	-1E+10	1	-1E+10	1	-1E+10	1
4902549	107	C	07/31/2023	15:06	-132.453	47.517	0	1195.00	0	2.8060	0	34.4230	0	27.449	0	1181.629	0	8.8	4	2.7	4	-1E+10	1	-1E+10	1	-1E+10	1	-1E+10	1	-1E+10	1	-1E+10	1
4902549	107	C	07/31/2023	15:06	-132.453	47.517	0	1205.00	0	2.7870	0	34.4270	0	27.454	0	1191.489	0	9.0	4	2.8	4	-1E+10	1	-1E+10	1	-1E+10	1	-1E+10	1	-1E+10	1	-1E+10	1
4902549	107	C	07/31/2023	15:06	-132.453	47.517	0	1215.10	0	2.7750	0	34.4300	0	27.458	0	1201.447	0	9.2	4	2.8	4	-1E+10	1	-1E+10	1	-1E+10	1	-1E+10	1	-1E+10	1	-1E+10	1
4902549	107	C	07/31/2023	15:06	-132.453	47.517	0	1225.40	0	2.7560	0	34.4350	0	27.463	0	1211.602	0	9.5	4	2.9	4	-1E+10	1	-1E+10	1	-1E+10	1	-1E+10	1	-1E+10	1	-1E+10	1
4902549	107	C	07/31/2023	15:06	-132.453	47.517	0	1235.30	0	2.7450	0	34.4360	0	27.465	0	1221.362	0	9.8	4	3.0	4	-1E+10	1	-1E+10	1	-1E+10	1	-1E+10	1	-1E+10	1	-1E+10	1
4902549	107	C	07/31/2023	15:06	-132.453	47.517	0	1245.20	0	2.7270	0	34.4400	0	27.470	0	1231.121	0	10.0	4	3.1	4	-1E+10	1	-1E+10	1	-1E+10	1	-1E+10	1	-1E+10	1	-1E+10	1
4902549	107	C	07/31/2023	15:06	-132.453	47.517	0	1255.40	0	2.7120	0	34.4440	0	27.474	0	1241.175	0	10.4	4	3.2	4	-1E+10	1	-1E+10	1	-1E+10	1	-1E+10	1	-1E+10	1	-1E+10	1
4902549	107	C	07/31/2023	15:06	-132.453	47.517	0	1265.60	0	2.6930	0	34.4480	0	27.479	0	1251.230	0	10.7	4	3.3	4	-1E+10	1	-1E+10	1	-1E+10	1	-1E+10	1	-1E+10	1	-1E+10	1
4902549	107	C	07/31/2023	15:06	-132.453	47.517	0	1275.60	0	2.6770	0	34.4500	0	27.482	0	1261.086	0	11.0	4	3.4	4	-1E+10	1	-1E+10	1	-1E+10	1	-1E+10	1	-1E+10	1	-1E+10	1
4902549	107	C	07/31/2023	15:06	-132.453	47.517	0	1285.60	0	2.6620	0	34.4530	0	27.486	0	1270.942	0	11.2	4	3.4	4	-1E+10	1	-1E+10	1	-1E+10	1	-1E+10	1	-1E+10	1	-1E+10	1
4902549	107	C	07/31/2023	15:06	-132.453	47.517	0	1295.70	0	2.6530	0	34.4540	0	27.488	0	1280.896	0	11.5	4	3.5	4	-1E+10	1	-1E+10	1	-1E+10	1	-1E+10	1	-1E+10	1	-1E+10	1
4902549	107	C	07/31/2023	15:06	-132.453	47.517	0	1305.60	0	2.6390	0	34.4560	0	27.491	0	1290.653	0	11.8	4	3.6	4	-1E+10	1	-1E+10	1	-1E+10	1	-1E+10	1	-1E+10	1	-1E+10	1
4902549	107	C	07/31/2023	15:06	-132.453	47.517	0	1315.20	0	2.6260	0	34.4590	0	27.494	0	1300.113	0	12.1	4	3.7	4	-1E+10	1	-1E+10	1	-1E+10	1	-1E+10	1	-1E+10	1	-1E+10	1
4902549	107	C	07/31/2023	15:06	-132.453	47.517	0	1325.10	0	2.6110	0	34.4620	0	27.498	0	1309.869	0	12.5	4	3.8	4	-1E+10	1	-1E+10	1	-1E+10	1	-1E+10	1	-1E+10	1	-1E+10	1
4902549	107	C	07/31/2023	15:06	-132.453	47.517	0	1335.10	0	2.6000	0	34.4640	0	27.500	0	1319.723	0	12.9	4	3.9	4	-1E+10	1	-1E+10	1	-1E+10	1	-1E+10	1	-1E+10	1	-1E+10	1
4902549	107	C	07/31/2023	15:06	-132.453	47.517	0	1345.10	0	2.5860	0	34.4670	0	27.504	0	1329.576	0	13.2	4	4.0	4	-1E+10	1	-1E+10	1	-1E+10	1	-1E+10	1	-1E+10	1	-1E+10	1
4902549	107	C	07/31/2023	15:06	-132.453	47.517	0	1355.30	0	2.5760	0	34.4690	0	27.507	0	1339.626	0	13.5	4	4.1	4	-1E+10	1	-1E+10	1	-1E+10	1	-1E+10	1	-1E+10	1	-1E+10	1
4902549	107	C	07/31/2023	15:06	-132.453	47.517	0	1365.40	0	2.5610	0	34.4710	0	27.510	0	1349.577	0	14.0	4	4.3	4	-1E+10	1	-1E+10	1	-1E+10	1	-1E+10	1	-1E+10	1	-1E+10	1
4902549	107	C	07/31/2023	15:06	-132.453	47.517	0	1375.40	0	2.5480	0	34.4730	0	27.512	0	1359.429	0	14.4	4	4.4	4	-1E+10	1	-1E+10	1	-1E+10	1	-1E+10	1	-1E+10	1	-1E+10	1
4902549	107	C	07/31/2023	15:06	-132.453	47.517	0	1385.40	0	2.5290	0	34.4770	0	27.517	0	1369.280	0	15.1	4	4.6	4	-1E+10	1	-1E+10	1	-1E+10	1	-1E+10	1	-1E+10	1	-1E+10	1
4902549	107	C	07/31/2023	15:06	-132.453	47.517	0	1395.50	0	2.5080	0	34.4810	0	27.522	0	1379.230	0	15.8	4	4.8	4	-1E+10	1	-1E+10	1	-1E+10	1	-1E+10	1	-1E+10	1	-1E+10	1
4902549	107	C	07/31/2023	15:06	-132.453	47.517	0	1405.70	0	2.4920	0	34.4840	0	27.526	0	1389.277	0	16.3	4	5.0	4	-1E+10	1	-1E+10	1	-1E+10	1	-1E+10	1	-1E+10	1	-1E+10	1
4902549	107	C	07/31/2023	15:06	-132.453	47.517	0	1415.40	0	2.4820	0	34.4860	0	27.528	0	1398.832	0	16.7	4	5.1	4	-1E+10	1	-1E+10	1	-1E+10	1	-1E+10	1	-1E+10	1	-1E+10	1
4902549	107	C	07/31/2023	15:06	-132.453	47.517	0	1425.20	0	2.4690	0	34.4880	0	27.531	0	1408.484	0	17.2	4	5.3	4	-1E+10	1	-1E+10	1	-1E+10	1	-1E+10	1	-1E+10	1	-1E+10	1
4902549	107	C	07/31/2023	15:06	-132.453	47.517	0	1435.50	0	2.4600	0	34.4900	0	27.534	0	1418.629	0	17.8	4	5.4	4	-1E+10	1	-1E+10	1	-1E+10	1	-1E+10	1	-1E+10	1	-1E+10	1
4902549	107	C	07/31/2023	15:06	-132.453	47.517	0	1445.50	0	2.4470	0	34.4930	0	27.537	0	1428.478	0	18.5	4	5.6	4	-1E+10	1	-1E+10	1	-1E+10	1	-1E+10	1	-1E+10	1	-1E+10	1
4902549	107	C	07/31/2023	15:06	-132.453	47.517	0	1455.10	0	2.4360	0	34.4960	0	27.541	0	1437.932	0	19.3	4	5.9	4	-1E+10	1	-1E+10	1	-1E+10	1	-1E+10	1	-1E+10	1	-1E+10	1
4902549	107	C	07/31/2023	15:06	-132.453	47.517	0	1465.00	0	2.4230	0	34.5000	0	27.545	0	1447.681	0	20.1	4	6.1	4	-1E+10	1	-1E+10	1	-1E+10	1	-1E+10	1	-1E+10	1	-1E+10	1
4902549	107	C	07/31/2023	15:06	-132.453	47.517	0	1475.10	0	2.4140	0	34.5020	0	27.547	0	1457.627	0	20.5	4	6.2	4	-1E+10	1	-1E+10	1	-1E+10	1	-1E+10	1	-1E+10	1	-1E+10	1
4902549	107	C	07/31/2023	15:06	-132.453	47.517	0	1485.60	0	2.4070	0	34.5040	0	27.550	0	1467.966	0	20.9	4	6.3	4	-1E+10	1	-1E+10	1	-1E+10	1	-1E+10	1	-1E+10	1	-1E+10	1
4902549	107	C	07/31/2023	15:06	-132.453	47.517	0	1495.40	0	2.3850	0	34.5050	0	27.552	0	1477.616	0	21.1	4	6.4	4	-1E+10	1	-1E+10	1	-1E+10	1	-1E+10	1	-1E+10	1	-1E+10	1
4902549	107	C	07/31/2023	15:06	-132.453	47.517	0	1505.10	0	2.3690	0	34.5060	0	27.554	0	1487.166	0	21.4	4	6.5	4	-1E+10	1	-1E+10	1	-1E+10	1	-1E+10	1	-1E+10	1	-1E+10	1
4902549	107	C	07/31/2023	15:06	-132.453	47.517	0	1515.10	0	2.3630	0	34.5070	0	27.556	0	1497.011	0	22.1	4	6.7	4	-1E+10	1	-1E+10	1	-1E+10	1	-1E+10	1	-1E+10	1	-1E+10	1
4902549	107	C	07/31/2023	15:06	-132.453	47.517	0	1525.50	0	2.3630	0	34.5110	0	27.559	0	1507.250	0	23.1	4	7.0	4	-1E+10	1	-1E+10	1	-1E+10	1	-1E+10	1	-1E+10	1	-1E+10	1
4902549	107	C	07/31/2023	15:06	-132.453	47.517	0	1535.70	0	2.3550	0	34.5130	0	27.561	0	1517.292	0	23.6	4	7.2	4	-1E+10	1	-1E+10	1	-1E+10	1	-1E+10	1	-1E+10	1	-1E+10	1
4902549	107	C	07/31/2023	15:06	-132.453	47.517	0	1545.70	0	2.3300	0	34.5150	0	27.565	0	1527.136	0	24.1	4	7.3	4	-1E+10	1	-1E+10	1	-1E+10	1	-1E+10	1	-1E+10	1	-1E+10	1
4902549	107	C	07/31/2023	15:06	-132.453	47.517	0	1555.50	0	2.3170	0	34.5170	0	27.568	0	1536.782	0	24.8	4	7.5	4	-1E+10	1	-1E+10	1	-1E+10	1	-1E+10	1	-1E+10	1	-1E+10	1
4902549	107	C	07/31/2023	15:06	-132.453	47.517	0	1565.50	0	2.3130	0	34.5190	0	27.570	0	1546.626	0	25.4	4	7.7	4	-1E+10	1	-1E+10	1	-1E+10	1	-1E+10	1	-1E+10	1	-1E+10	1
4902549	107	C	07/31/2023	15:06	-132.453	47.517	0	1575.50	0	2.3030	0	34.5210	0	27.572	0	1556.468	0	26.1	4	7.9	4	-1E+10	1	-1E+10	1	-1E+10	1	-1E+10	1	-1E+10	1	-1E+10	1
4902549	107	C	07/31/2023	15:06	-132.453	47.517	0	1585.20	0	2.2950	0	34.5230	0	27.574	0	1566.015	0	26.6	4	8.1	4	-1E+10	1	-1E+10	1	-1E+10	1	-1E+10	1	-1E+10	1	-1E+10	1
4902549	107	C	07/31/2023	15:06	-132.453	47.517	0	1595.00	0	2.2860	0	34.5240	0	27.576	0	1575.660	0	27.0	4	8.2	4	-1E+10	1	-1E+10	1	-1E+10	1	-1E+10	1	-1E+10	1	-1E+10	1
4902549	107	C	07/31/2023	15:06	-132.453	47.517	0	1605.10	0	2.2740	0	34.5260	0	27.579	0	1585.600	0	27.7	4	8.4	4	-1E+10	1	-1E+10	1	-1E+10	1	-1E+10	1	-1E+10	1	-1E+10	1
4902549	107	C	07/31/2023	15:06	-132.453	47.517	0	1615.10	0	2.2620	0	34.5280	0	27.581	0	1595.441	0	28.3	4	8.6	4	-1E+10	1	-1E+10	1	-1E+10	1	-1E+10	1	-1E+10	1	-1E+10	1
4902549	107	C	07/31/2023	15:06	-132.453	47.517	0	1625.20	0	2.2500	0	34.5300	0	27.584	0	1605.379	0	29.1	4	8.8	4	-1E+10	1	-1E+10	1	-1E+10	1	-1E+10	1	-1E+10	1	-1E+10	1
4902549	107	C	07/31/2023	15:06	-132.453	47.517	0	1635.30	0	2.2380	0	34.5320	0	27.587	0	1615.318	0	29.7	4	9.0	4	-1E+10	1	-1E+10	1	-1E+10	1	-1E+10	1	-1E+10	1	-1E+10	1
4902549	107	C	07/31/2023	15:06	-132.453	47.517	0	1645.40	0	2.2270	0	34.5340	0	27.589	0	1625.256	0	30.3	4	9.2	4	-1E+10	1	-1E+10	1	-1E+10	1	-1E+10	1	-1E+10	1	-1E+10	1
4902549	107	C	07/31/2023	15:06	-132.453	47.517	0	1655.50	0	2.2170	0	34.5360	0	27.592	0	1635.193	0	31.0	4	9.4	4	-1E+10	1	-1E+10	1	-1E+10	1	-1E+10	1	-1E+10	1	-1E+10	1
4902549	107	C	07/31/2023	15:06	-132.453	47.517	0	1665.20	0	2.2050	0	34.5380	0	27.594	0	1644.736	0	31.7	4	9.6	4	-1E+10	1	-1E+10	1	-1E+10	1	-1E+10	1	-1E+10	1	-1E+10	1
4902549	107	C	07/31/2023	15:06	-132.453	47.517	0	1675.10	0	2.1940	0	34.5400	0	27.597	0	1654.476	0	32.3	4	9.8	4	-1E+10	1	-1E+10	1	-1E+10	1	-1E+10	1	-1E+10	1	-1E+10	1
4902549	107	C	07/31/2023	15:06	-132.453	47.517	0	1685.60	0	2.1860	0	34.5410	0	27.598	0	1664.806	0	32.9	4	10.0	4	-1E+10	1	-1E+10	1	-1E+10	1	-1E+10	1	-1E+10	1	-1E+10	1
4902549	107	C	07/31/2023	15:06	-132.453	47.517	0	1695.80	0	2.1770	0	34.5430	0	27.601	0	1674.840	0	33.5	4	10.1	4	-1E+10	1	-1E+10	1	-1E+10	1	-1E+10	1	-1E+10	1	-1E+10	1
4902549	107	C	07/31/2023	15:06	-132.453	47.517	0	1705.50	0	2.1700	0	34.5440	0	27.602	0	1684.381	0	34.0	4	10.3	4	-1E+10	1	-1E+10	1	-1E+10	1	-1E+10	1	-1E+10	1	-1E+10	1
4902549	107	C	07/31/2023	15:06	-132.453	47.517	0	1715.10	0	2.1580	0	34.5460	0	27.605	0	1693.824	0	34.5	4	10.5	4	-1E+10	1	-1E+10	1	-1E+10	1	-1E+10	1	-1E+10	1	-1E+10	1
4902549	107	C	07/31/2023	15:06	-132.453	47.517	0	1725.40	0	2.1520	0	34.5470	0	27.606	0	1703.955	0	35.1	4	10.6	4	-1E+10	1	-1E+10	1	-1E+10	1	-1E+10	1	-1E+10	1	-1E+10	1
4902549	107	C	07/31/2023	15:06	-132.453	47.517	0	1735.80	0	2.1380	0	34.5490	0	27.609	0	1714.184	0	35.8	4	10.8	4	-1E+10	1	-1E+10	1	-1E+10	1	-1E+10	1	-1E+10	1	-1E+10	1
4902549	107	C	07/31/2023	15:06	-132.453	47.517	0	1745.40	0	2.1250	0	34.5510	0	27.611	0	1723.625	0	36.4	4	11.0	4	-1E+10	1	-1E+10	1	-1E+10	1	-1E+10	1	-1E+10	1	-1E+10	1
4902549	107	C	07/31/2023	15:06	-132.453	47.517	0	1755.30	0	2.1140	0	34.5520	0	27.613	0	1733.361	0	37.1	4	11.2	4	-1E+10	1	-1E+10	1	-1E+10	1	-1E+10	1	-1E+10	1	-1E+10	1
4902549	107	C	07/31/2023	15:06	-132.453	47.517	0	1765.30	0	2.1050	0	34.5540	0	27.615	0	1743.195	0	37.8	4	11.4	4	-1E+10	1	-1E+10	1	-1E+10	1	-1E+10	1	-1E+10	1	-1E+10	1
4902549	107	C	07/31/2023	15:06	-132.453	47.517	0	1775.10	0	2.0960	0	34.5560	0	27.618	0	1752.832	0	38.6	4	11.7	4	-1E+10	1	-1E+10	1	-1E+10	1	-1E+10	1	-1E+10	1	-1E+10	1
4902549	107	C	07/31/2023	15:06	-132.453	47.517	0	1785.00	0	2.0900	0	34.5580	0	27.620	0	1762.567	0	39.4	4	11.9	4	-1E+10	1	-1E+10	1	-1E+10	1	-1E+10	1	-1E+10	1	-1E+10	1
4902549	107	C	07/31/2023	15:06	-132.453	47.517	0	1795.10	0	2.0800	0	34.5600	0	27.622	0	1772.498	0	39.9	4	12.1	4	-1E+10	1	-1E+10	1	-1E+10	1	-1E+10	1	-1E+10	1	-1E+10	1
4902549	107	C	07/31/2023	15:06	-132.453	47.517	0	1805.20	0	2.0690	0	34.5600	0	27.623	0	1782.428	0	40.4	4	12.2	4	-1E+10	1	-1E+10	1	-1E+10	1	-1E+10	1	-1E+10	1	-1E+10	1
4902549	107	C	07/31/2023	15:06	-132.453	47.517	0	1815.50	0	2.0590	0	34.5620	0	27.626	0	1792.555	0	41.2	4	12.4	4	-1E+10	1	-1E+10	1	-1E+10	1	-1E+10	1	-1E+10	1	-1E+10	1
4902549	107	C	07/31/2023	15:06	-132.453	47.517	0	1825.50	0	2.0490	0	34.5640	0	27.628	0	1802.386	0	41.8	4	12.6	4	-1E+10	1	-1E+10	1	-1E+10	1	-1E+10	1	-1E+10	1	-1E+10	1
4902549	107	C	07/31/2023	15:06	-132.453	47.517	0	1835.50	0	2.0420	0	34.5650	0	27.630	0	1812.217	0	42.3	4	12.8	4	-1E+10	1	-1E+10	1	-1E+10	1	-1E+10	1	-1E+10	1	-1E+10	1
4902549	107	C	07/31/2023	15:06	-132.453	47.517	0	1845.60	0	2.0350	0	34.5660	0	27.631	0	1822.146	0	42.9	4	12.9	4	-1E+10	1	-1E+10	1	-1E+10	1	-1E+10	1	-1E+10	1	-1E+10	1
4902549	107	C	07/31/2023	15:06	-132.453	47.517	0	1855.30	0	2.0270	0	34.5680	0	27.633	0	1831.681	0	43.6	4	13.2	4	-1E+10	1	-1E+10	1	-1E+10	1	-1E+10	1	-1E+10	1	-1E+10	1
4902549	107	C	07/31/2023	15:06	-132.453	47.517	0	1865.20	0	2.0200	0	34.5690	0	27.635	0	1841.412	0	44.2	4	13.3	4	-1E+10	1	-1E+10	1	-1E+10	1	-1E+10	1	-1E+10	1	-1E+10	1
4902549	107	C	07/31/2023	15:06	-132.453	47.517	0	1875.20	0	2.0120	0	34.5700	0	27.636	0	1851.241	0	44.8	4	13.5	4	-1E+10	1	-1E+10	1	-1E+10	1	-1E+10	1	-1E+10	1	-1E+10	1
4902549	107	C	07/31/2023	15:06	-132.453	47.517	0	1885.20	0	2.0050	0	34.5720	0	27.638	0	1861.069	0	45.3	4	13.7	4	-1E+10	1	-1E+10	1	-1E+10	1	-1E+10	1	-1E+10	1	-1E+10	1
4902549	107	C	07/31/2023	15:06	-132.453	47.517	0	1895.20	0	2.0000	0	34.5730	0	27.640	0	1870.897	0	45.8	4	13.8	4	-1E+10	1	-1E+10	1	-1E+10	1	-1E+10	1	-1E+10	1	-1E+10	1
4902549	107	C	07/31/2023	15:06	-132.453	47.517	0	1905.10	0	1.9950	0	34.5740	0	27.641	0	1880.627	0	46.4	4	14.0	4	-1E+10	1	-1E+10	1	-1E+10	1	-1E+10	1	-1E+10	1	-1E+10	1
4902549	107	C	07/31/2023	15:06	-132.453	47.517	0	1915.40	0	1.9890	0	34.5750	0	27.642	0	1890.749	0	47.1	4	14.2	4	-1E+10	1	-1E+10	1	-1E+10	1	-1E+10	1	-1E+10	1	-1E+10	1
4902549	107	C	07/31/2023	15:06	-132.453	47.517	0	1925.70	0	1.9810	0	34.5770	0	27.644	0	1900.870	0	47.8	4	14.4	4	-1E+10	1	-1E+10	1	-1E+10	1	-1E+10	1	-1E+10	1	-1E+10	1
4902549	107	C	07/31/2023	15:06	-132.453	47.517	0	1935.50	0	1.9760	0	34.5780	0	27.646	0	1910.500	0	48.4	4	14.6	4	-1E+10	1	-1E+10	1	-1E+10	1	-1E+10	1	-1E+10	1	-1E+10	1
4902549	107	C	07/31/2023	15:06	-132.453	47.517	0	1945.50	0	1.9680	0	34.5800	0	27.648	0	1920.325	0	49.1	4	14.8	4	-1E+10	1	-1E+10	1	-1E+10	1	-1E+10	1	-1E+10	1	-1E+10	1
4902549	107	C	07/31/2023	15:06	-132.453	47.517	0	1955.60	0	1.9590	0	34.5810	0	27.649	0	1930.249	0	49.7	4	15.0	4	-1E+10	1	-1E+10	1	-1E+10	1	-1E+10	1	-1E+10	1	-1E+10	1
4902549	107	C	07/31/2023	15:06	-132.453	47.517	0	1965.20	0	1.9500	0	34.5830	0	27.652	0	1939.681	0	50.5	4	15.2	4	-1E+10	1	-1E+10	1	-1E+10	1	-1E+10	1	-1E+10	1	-1E+10	1
4902549	107	C	07/31/2023	15:06	-132.453	47.517	0	1975.10	0	1.9430	0	34.5840	0	27.653	0	1949.407	0	50.9	4	15.3	4	-1E+10	1	-1E+10	1	-1E+10	1	-1E+10	1	-1E+10	1	-1E+10	1
4902549	107	C	07/31/2023	15:06	-132.453	47.517	0	1985.30	0	1.9360	0	34.5850	0	27.655	0	1959.428	0	51.5	4	15.5	4	-1E+10	1	-1E+10	1	-1E+10	1	-1E+10	1	-1E+10	1	-1E+10	1
4902549	107	C	07/31/2023	15:06	-132.453	47.517	0	1995.70	0	1.9300	0	34.5860	0	27.656	0	1969.644	0	51.8	4	15.6	4	-1E+10	1	-1E+10	1	-1E+10	1	-1E+10	1	-1E+10	1	-1E+10	1
4902549	107	C	07/31/2023	15:06	-132.453	47.517	0	2002.50	0	1.9250	0	34.5870	0	27.657	0	1976.324	0	52.0	4	15.6	4	-1E+10	1	-1E+10	1	-1E+10	1	-1E+10	1	-1E+10	1	-1E+10	1
4902549	107	C	07/31/2023	15:06	-132.453	47.517	0																										
4902549	108	C	08/10/2023	20:02	-132.493	47.616	0	0.10	0	17.8100	0	32.3320	0	23.277	0	0.099	0	247.0	4	103.3	4	-1E+10	1	-1E+10	1	-1E+10	1	-1E+10	1	-1E+10	1	-1E+10	1
4902549	108	C	08/10/2023	20:02	-132.493	47.616	0	0.20	0	17.8130	0	32.3250	0	23.271	0	0.198	0	246.9	4	103.3	4	-1E+10	1	-1E+10	1	-1E+10	1	-1E+10	1	-1E+10	1	-1E+10	1
4902549	108	C	08/10/2023	20:02	-132.493	47.616	0	0.30	0	17.7950	0	32.3220	0	23.273	0	0.297	0	-1e10	1	-1e10	1	-1E+10	1	-1E+10	1	-1E+10	1	-1E+10	1	-1E+10	1	-1E+10	1
4902549	108	C	08/10/2023	20:02	-132.493	47.616	0	0.40	0	17.7660	0	32.3240	0	23.281	0	0.397	0	241.5	4	100.9	4	-1E+10	1	-1E+10	1	-1E+10	1	-1E+10	1	-1E+10	1	-1E+10	1
4902549	108	C	08/10/2023	20:02	-132.493	47.616	0	0.90	0	17.7640	0	32.3230	0	23.281	0	0.892	0	241.7	4	101.0	4	-1E+10	1	-1E+10	1	-1E+10	1	-1E+10	1	-1E+10	1	-1E+10	1
4902549	108	C	08/10/2023	20:02	-132.493	47.616	0	2.00	0	17.7560	0	32.3250	0	23.284	0	1.983	0	241.5	4	100.9	4	-1E+10	1	-1E+10	1	-1E+10	1	-1E+10	1	-1E+10	1	-1E+10	1
4902549	108	C	08/10/2023	20:02	-132.493	47.616	0	3.10	0	17.7350	0	32.3370	0	23.299	0	3.074	0	241.7	4	101.0	4	-1E+10	1	-1E+10	1	-1E+10	1	-1E+10	1	-1E+10	1	-1E+10	1
4902549	108	C	08/10/2023	20:02	-132.493	47.616	0	4.00	0	17.7410	0	32.3340	0	23.295	0	3.967	0	241.9	4	101.1	4	-1E+10	1	-1E+10	1	-1E+10	1	-1E+10	1	-1E+10	1	-1E+10	1
4902549	108	C	08/10/2023	20:02	-132.493	47.616	0	4.80	0	17.7400	0	32.3370	0	23.298	0	4.760	0	241.8	4	101.0	4	-1E+10	1	-1E+10	1	-1E+10	1	-1E+10	1	-1E+10	1	-1E+10	1
4902549	108	C	08/10/2023	20:02	-132.493	47.616	0	5.80	0	17.7300	0	32.3380	0	23.301	0	5.751	0	241.9	4	101.0	4	-1E+10	1	-1E+10	1	-1E+10	1	-1E+10	1	-1E+10	1	-1E+10	1
4902549	108	C	08/10/2023	20:02	-132.493	47.616	0	6.80	0	17.7090	0	32.3370	0	23.305	0	6.743	0	242.1	4	101.1	4	-1E+10	1	-1E+10	1	-1E+10	1	-1E+10	1	-1E+10	1	-1E+10	1
4902549	108	C	08/10/2023	20:02	-132.493	47.616	0	7.90	0	17.7040	0	32.3380	0	23.307	0	7.834	0	242.3	4	101.2	4	-1E+10	1	-1E+10	1	-1E+10	1	-1E+10	1	-1E+10	1	-1E+10	1
4902549	108	C	08/10/2023	20:02	-132.493	47.616	0	8.90	0	17.7050	0	32.3370	0	23.306	0	8.825	0	242.5	4	101.3	4	-1E+10	1	-1E+10	1	-1E+10	1	-1E+10	1	-1E+10	1	-1E+10	1
4902549	108	C	08/10/2023	20:02	-132.493	47.616	0	10.20	0	17.6980	0	32.3380	0	23.309	0	10.115	0	242.8	4	101.3	4	-1E+10	1	-1E+10	1	-1E+10	1	-1E+10	1	-1E+10	1	-1E+10	1
4902549	108	C	08/10/2023	20:02	-132.493	47.616	0	11.00	0	17.6960	0	32.3380	0	23.309	0	10.908	0	243.2	4	101.5	4	-1E+10	1	-1E+10	1	-1E+10	1	-1E+10	1	-1E+10	1	-1E+10	1
4902549	108	C	08/10/2023	20:02	-132.493	47.616	0	12.00	0	17.6930	0	32.3370	0	23.309	0	11.899	0	243.5	4	101.6	4	-1E+10	1	-1E+10	1	-1E+10	1	-1E+10	1	-1E+10	1	-1E+10	1
4902549	108	C	08/10/2023	20:02	-132.493	47.616	0	13.00	0	17.6890	0	32.3380	0	23.311	0	12.891	0	244.1	4	101.9	4	-1E+10	1	-1E+10	1	-1E+10	1	-1E+10	1	-1E+10	1	-1E+10	1
4902549	108	C	08/10/2023	20:02	-132.493	47.616	0	14.00	0	17.6870	0	32.3370	0	23.311	0	13.883	0	244.7	4	102.1	4	-1E+10	1	-1E+10	1	-1E+10	1	-1E+10	1	-1E+10	1	-1E+10	1
4902549	108	C	08/10/2023	20:02	-132.493	47.616	0	14.90	0	17.6860	0	32.3370	0	23.311	0	14.775	0	245.4	4	102.4	4	-1E+10	1	-1E+10	1	-1E+10	1	-1E+10	1	-1E+10	1	-1E+10	1
4902549	108	C	08/10/2023	20:02	-132.493	47.616	0	16.00	0	17.6780	0	32.3370	0	23.313	0	15.866	0	246.7	4	102.9	4	-1E+10	1	-1E+10	1	-1E+10	1	-1E+10	1	-1E+10	1	-1E+10	1
4902549	108	C	08/10/2023	20:02	-132.493	47.616	0	17.00	0	17.6700	0	32.3350	0	23.313	0	16.857	0	248.6	4	103.7	4	-1E+10	1	-1E+10	1	-1E+10	1	-1E+10	1	-1E+10	1	-1E+10	1
4902549	108	C	08/10/2023	20:02	-132.493	47.616	0	18.10	0	17.6430	0	32.3310	0	23.317	0	17.948	0	251.2	4	104.8	4	-1E+10	1	-1E+10	1	-1E+10	1	-1E+10	1	-1E+10	1	-1E+10	1
4902549	108	C	08/10/2023	20:02	-132.493	47.616	0	18.80	0	17.4150	0	32.3370	0	23.376	0	18.642	0	254.3	4	105.6	4	-1E+10	1	-1E+10	1	-1E+10	1	-1E+10	1	-1E+10	1	-1E+10	1
4902549	108	C	08/10/2023	20:02	-132.493	47.616	0	20.00	0	16.2300	0	32.3400	0	23.652	0	19.832	0	266.7	4	108.2	4	-1E+10	1	-1E+10	1	-1E+10	1	-1E+10	1	-1E+10	1	-1E+10	1
4902549	108	C	08/10/2023	20:02	-132.493	47.616	0	21.00	0	15.1290	0	32.3690	0	23.918	0	20.823	0	272.4	4	108.2	4	-1E+10	1	-1E+10	1	-1E+10	1	-1E+10	1	-1E+10	1	-1E+10	1
4902549	108	C	08/10/2023	20:02	-132.493	47.616	0	22.10	0	14.2090	0	32.3840	0	24.124	0	21.914	0	276.2	4	107.8	4	-1E+10	1	-1E+10	1	-1E+10	1	-1E+10	1	-1E+10	1	-1E+10	1
4902549	108	C	08/10/2023	20:02	-132.493	47.616	0	23.10	0	13.6840	0	32.3890	0	24.236	0	22.906	0	279.2	4	107.8	4	-1E+10	1	-1E+10	1	-1E+10	1	-1E+10	1	-1E+10	1	-1E+10	1
4902549	108	C	08/10/2023	20:02	-132.493	47.616	0	24.10	0	13.4160	0	32.3850	0	24.287	0	23.897	0	280.1	4	107.5	4	-1E+10	1	-1E+10	1	-1E+10	1	-1E+10	1	-1E+10	1	-1E+10	1
4902549	108	C	08/10/2023	20:02	-132.493	47.616	0	25.10	0	12.5920	0	32.3950	0	24.456	0	24.889	0	283.8	4	107.1	4	-1E+10	1	-1E+10	1	-1E+10	1	-1E+10	1	-1E+10	1	-1E+10	1
4902549	108	C	08/10/2023	20:02	-132.493	47.616	0	26.00	0	12.3630	0	32.3960	0	24.500	0	25.781	0	284.7	4	107.0	4	-1E+10	1	-1E+10	1	-1E+10	1	-1E+10	1	-1E+10	1	-1E+10	1
4902549	108	C	08/10/2023	20:02	-132.493	47.616	0	26.90	0	12.1540	0	32.3990	0	24.542	0	26.673	0	285.8	4	106.9	4	-1E+10	1	-1E+10	1	-1E+10	1	-1E+10	1	-1E+10	1	-1E+10	1
4902549	108	C	08/10/2023	20:02	-132.493	47.616	0	28.00	0	12.0380	0	32.3960	0	24.561	0	27.764	0	286.6	4	107.0	4	-1E+10	1	-1E+10	1	-1E+10	1	-1E+10	1	-1E+10	1	-1E+10	1
4902549	108	C	08/10/2023	20:02	-132.493	47.616	0	29.20	0	11.7830	0	32.3980	0	24.610	0	28.954	0	288.1	4	107.0	4	-1E+10	1	-1E+10	1	-1E+10	1	-1E+10	1	-1E+10	1	-1E+10	1
4902549	108	C	08/10/2023	20:02	-132.493	47.616	0	30.00	0	11.4400	0	32.4030	0	24.677	0	29.747	0	289.7	4	106.8	4	-1E+10	1	-1E+10	1	-1E+10	1	-1E+10	1	-1E+10	1	-1E+10	1
4902549	108	C	08/10/2023	20:02	-132.493	47.616	0	31.20	0	11.1310	0	32.4000	0	24.729	0	30.937	0	291.4	4	106.7	4	-1E+10	1	-1E+10	1	-1E+10	1	-1E+10	1	-1E+10	1	-1E+10	1
4902549	108	C	08/10/2023	20:02	-132.493	47.616	0	32.00	0	11.0280	0	32.4020	0	24.749	0	31.730	0	291.5	4	106.5	4	-1E+10	1	-1E+10	1	-1E+10	1	-1E+10	1	-1E+10	1	-1E+10	1
4902549	108	C	08/10/2023	20:02	-132.493	47.616	0	33.20	0	10.8490	0	32.3960	0	24.776	0	32.920	0	291.7	4	106.2	4	-1E+10	1	-1E+10	1	-1E+10	1	-1E+10	1	-1E+10	1	-1E+10	1
4902549	108	C	08/10/2023	20:02	-132.493	47.616	0	34.10	0	10.7270	0	32.4000	0	24.800	0	33.812	0	292.2	4	106.1	4	-1E+10	1	-1E+10	1	-1E+10	1	-1E+10	1	-1E+10	1	-1E+10	1
4902549	108	C	08/10/2023	20:02	-132.493	47.616	0	34.90	0	10.6920	0	32.3970	0	24.804	0	34.605	0	292.0	4	105.9	4	-1E+10	1	-1E+10	1	-1E+10	1	-1E+10	1	-1E+10	1	-1E+10	1
4902549	108	C	08/10/2023	20:02	-132.493	47.616	0	36.00	0	10.5060	0	32.4030	0	24.841	0	35.696	0	291.7	4	105.4	4	-1E+10	1	-1E+10	1	-1E+10	1	-1E+10	1	-1E+10	1	-1E+10	1
4902549	108	C	08/10/2023	20:02	-132.493	47.616	0	37.00	0	10.0190	0	32.4020	0	24.922	0	36.688	0	292.3	4	104.5	4	-1E+10	1	-1E+10	1	-1E+10	1	-1E+10	1	-1E+10	1	-1E+10	1
4902549	108	C	08/10/2023	20:02	-132.493	47.616	0	37.90	0	9.7930	0	32.3970	0	24.955	0	37.580	0	290.8	4	103.5	4	-1E+10	1	-1E+10	1	-1E+10	1	-1E+10	1	-1E+10	1	-1E+10	1
4902549	108	C	08/10/2023	20:02	-132.493	47.616	0	39.10	0	9.4120	0	32.4110	0	25.028	0	38.770	0	290.0	4	102.3	4	-1E+10	1	-1E+10	1	-1E+10	1	-1E+10	1	-1E+10	1	-1E+10	1
4902549	108	C	08/10/2023	20:02	-132.493	47.616	0	40.00	0	9.1300	0	32.4120	0	25.073	0	39.662	0	291.0	4	102.0	4	-1E+10	1	-1E+10	1	-1E+10	1	-1E+10	1	-1E+10	1	-1E+10	1
4902549	108	C	08/10/2023	20:02	-132.493	47.616	0	41.10	0	9.0560	0	32.4140	0	25.086	0	40.752	0	290.7	4	101.8	4	-1E+10	1	-1E+10	1	-1E+10	1	-1E+10	1	-1E+10	1	-1E+10	1
4902549	108	C	08/10/2023	20:02	-132.493	47.616	0	41.80	0	9.0420	0	32.4130	0	25.087	0	41.446	0	290.2	4	101.6	4	-1E+10	1	-1E+10	1	-1E+10	1	-1E+10	1	-1E+10	1	-1E+10	1
4902549	108	C	08/10/2023	20:02	-132.493	47.616	0	42.90	0	9.0300	0	32.4130	0	25.089	0	42.537	0	289.3	4	101.2	4	-1E+10	1	-1E+10	1	-1E+10	1	-1E+10	1	-1E+10	1	-1E+10	1
4902549	108	C	08/10/2023	20:02	-132.493	47.616	0	44.00	0	9.0180	0	32.4140	0	25.092	0	43.628	0	288.2	4	100.8	4	-1E+10	1	-1E+10	1	-1E+10	1	-1E+10	1	-1E+10	1	-1E+10	1
4902549	108	C	08/10/2023	20:02	-132.493	47.616	0	45.20	0	8.9990	0	32.4170	0	25.097	0	44.817	0	287.1	4	100.4	4	-1E+10	1	-1E+10	1	-1E+10	1	-1E+10	1	-1E+10	1	-1E+10	1
4902549	108	C	08/10/2023	20:02	-132.493	47.616	0	46.00	0	8.9640	0	32.4140	0	25.100	0	45.611	0	286.4	4	100.1	4	-1E+10	1	-1E+10	1	-1E+10	1	-1E+10	1	-1E+10	1	-1E+10	1
4902549	108	C	08/10/2023	20:02	-132.493	47.616	0	47.00	0	8.9020	0	32.4170	0	25.112	0	46.602	0	285.5	4	99.6	4	-1E+10	1	-1E+10	1	-1E+10	1	-1E+10	1	-1E+10	1	-1E+10	1
4902549	108	C	08/10/2023	20:02	-132.493	47.616	0	48.10	0	8.7900	0	32.4180	0	25.130	0	47.692	0	285.4	4	99.3	4	-1E+10	1	-1E+10	1	-1E+10	1	-1E+10	1	-1E+10	1	-1E+10	1
4902549	108	C	08/10/2023	20:02	-132.493	47.616	0	48.90	0	8.7550	0	32.4160	0	25.134	0	48.486	0	284.8	4	99.1	4	-1E+10	1	-1E+10	1	-1E+10	1	-1E+10	1	-1E+10	1	-1E+10	1
4902549	108	C	08/10/2023	20:02	-132.493	47.616	0	50.10	0	8.6620	0	32.4170	0	25.149	0	49.675	0	284.3	4	98.7	4	-1E+10	1	-1E+10	1	-1E+10	1	-1E+10	1	-1E+10	1	-1E+10	1
4902549	108	C	08/10/2023	20:02	-132.493	47.616	0	51.30	0	8.4890	0	32.4170	0	25.175	0	50.865	0	284.9	4	98.5	4	-1E+10	1	-1E+10	1	-1E+10	1	-1E+10	1	-1E+10	1	-1E+10	1
4902549	108	C	08/10/2023	20:02	-132.493	47.616	0	52.00	0	8.4580	0	32.4130	0	25.176	0	51.559	0	284.7	4	98.4	4	-1E+10	1	-1E+10	1	-1E+10	1	-1E+10	1	-1E+10	1	-1E+10	1
4902549	108	C	08/10/2023	20:02	-132.493	47.616	0	52.90	0	8.4400	0	32.4110	0	25.178	0	52.451	0	284.4	4	98.2	4	-1E+10	1	-1E+10	1	-1E+10	1	-1E+10	1	-1E+10	1	-1E+10	1
4902549	108	C	08/10/2023	20:02	-132.493	47.616	0	53.80	0	8.4150	0	32.4090	0	25.180	0	53.343	0	283.8	4	98.0	4	-1E+10	1	-1E+10	1	-1E+10	1	-1E+10	1	-1E+10	1	-1E+10	1
4902549	108	C	08/10/2023	20:02	-132.493	47.616	0	54.90	0	8.3730	0	32.4100	0	25.187	0	54.434	0	283.0	4	97.6	4	-1E+10	1	-1E+10	1	-1E+10	1	-1E+10	1	-1E+10	1	-1E+10	1
4902549	108	C	08/10/2023	20:02	-132.493	47.616	0	56.30	0	8.3060	0	32.4130	0	25.199	0	55.822	0	282.1	4	97.2	4	-1E+10	1	-1E+10	1	-1E+10	1	-1E+10	1	-1E+10	1	-1E+10	1
4902549	108	C	08/10/2023	20:02	-132.493	47.616	0	56.90	0	8.2610	0	32.4130	0	25.206	0	56.417	0	282.1	4	97.1	4	-1E+10	1	-1E+10	1	-1E+10	1	-1E+10	1	-1E+10	1	-1E+10	1
4902549	108	C	08/10/2023	20:02	-132.493	47.616	0	58.00	0	8.2260	0	32.4130	0	25.211	0	57.507	0	281.7	4	96.8	4	-1E+10	1	-1E+10	1	-1E+10	1	-1E+10	1	-1E+10	1	-1E+10	1
4902549	108	C	08/10/2023	20:02	-132.493	47.616	0	58.90	0	8.1850	0	32.4120	0	25.216	0	58.399	0	281.6	4	96.7	4	-1E+10	1	-1E+10	1	-1E+10	1	-1E+10	1	-1E+10	1	-1E+10	1
4902549	108	C	08/10/2023	20:02	-132.493	47.616	0	59.90	0	8.1410	0	32.4150	0	25.225	0	59.391	0	281.3	4	96.5	4	-1E+10	1	-1E+10	1	-1E+10	1	-1E+10	1	-1E+10	1	-1E+10	1
4902549	108	C	08/10/2023	20:02	-132.493	47.616	0	61.00	0	8.1310	0	32.4160	0	25.227	0	60.481	0	281.1	4	96.4	4	-1E+10	1	-1E+10	1	-1E+10	1	-1E+10	1	-1E+10	1	-1E+10	1
4902549	108	C	08/10/2023	20:02	-132.493	47.616	0	61.90	0	8.1010	0	32.4190	0	25.234	0	61.374	0	281.0	4	96.3	4	-1E+10	1	-1E+10	1	-1E+10	1	-1E+10	1	-1E+10	1	-1E+10	1
4902549	108	C	08/10/2023	20:02	-132.493	47.616	0	62.90	0	8.0820	0	32.4160	0	25.234	0	62.365	0	280.5	4	96.1	4	-1E+10	1	-1E+10	1	-1E+10	1	-1E+10	1	-1E+10	1	-1E+10	1
4902549	108	C	08/10/2023	20:02	-132.493	47.616	0	64.00	0	8.0570	0	32.4150	0	25.237	0	63.455	0	279.8	4	95.8	4	-1E+10	1	-1E+10	1	-1E+10	1	-1E+10	1	-1E+10	1	-1E+10	1
4902549	108	C	08/10/2023	20:02	-132.493	47.616	0	65.10	0	7.9430	0	32.4140	0	25.253	0	64.546	0	279.5	4	95.5	4	-1E+10	1	-1E+10	1	-1E+10	1	-1E+10	1	-1E+10	1	-1E+10	1
4902549	108	C	08/10/2023	20:02	-132.493	47.616	0	66.20	0	7.8860	0	32.4100	0	25.258	0	65.636	0	278.7	4	95.1	4	-1E+10	1	-1E+10	1	-1E+10	1	-1E+10	1	-1E+10	1	-1E+10	1
4902549	108	C	08/10/2023	20:02	-132.493	47.616	0	67.10	0	7.8700	0	32.4080	0	25.259	0	66.528	0	277.8	4	94.7	4	-1E+10	1	-1E+10	1	-1E+10	1	-1E+10	1	-1E+10	1	-1E+10	1
4902549	108	C	08/10/2023	20:02	-132.493	47.616	0	68.00	0	7.8380	0	32.4120	0	25.266	0	67.421	0	276.9	4	94.4	4	-1E+10	1	-1E+10	1	-1E+10	1	-1E+10	1	-1E+10	1	-1E+10	1
4902549	108	C	08/10/2023	20:02	-132.493	47.616	0	68.90	0	7.8080	0	32.4080	0	25.267	0	68.313	0	276.0	4	94.0	4	-1E+10	1	-1E+10	1	-1E+10	1	-1E+10	1	-1E+10	1	-1E+10	1
4902549	108	C	08/10/2023	20:02	-132.493	47.616	0	70.10	0	7.7690	0	32.4090	0	25.274	0	69.502	0	274.9	4	93.5	4	-1E+10	1	-1E+10	1	-1E+10	1	-1E+10	1	-1E+10	1	-1E+10	1
4902549	108	C	08/10/2023	20:02	-132.493	47.616	0	71.30	0	7.7090	0	32.4110	0	25.284	0	70.692	0	274.4	4	93.2	4	-1E+10	1	-1E+10	1	-1E+10	1	-1E+10	1	-1E+10	1	-1E+10	1
4902549	108	C	08/10/2023	20:02	-132.493	47.616	0	72.00	0	7.7000	0	32.4110	0	25.285	0	71.386	0	274.0	4	93.1	4	-1E+10	1	-1E+10	1	-1E+10	1	-1E+10	1	-1E+10	1	-1E+10	1
4902549	108	C	08/10/2023	20:02	-132.493	47.616	0	73.20	0	7.6790	0	32.4110	0	25.288	0	72.575	0	273.2	4	92.8	4	-1E+10	1	-1E+10	1	-1E+10	1	-1E+10	1	-1E+10	1	-1E+10	1
4902549	108	C	08/10/2023	20:02	-132.493	47.616	0	73.90	0	7.6610	0	32.4120	0	25.291	0	73.269	0	272.9	4	92.6	4	-1E+10	1	-1E+10	1	-1E+10	1	-1E+10	1	-1E+10	1	-1E+10	1
4902549	108	C	08/10/2023	20:02	-132.493	47.616	0	74.80	0	7.6250	0	32.4150	0	25.299	0	74.161	0	272.7	4	92.5	4	-1E+10	1	-1E+10	1	-1E+10	1	-1E+10	1	-1E+10	1	-1E+10	1
4902549	108	C	08/10/2023	20:02	-132.493	47.616	0	75.90	0	7.6230	0	32.4150	0	25.299	0	75.252	0	272.1	4	92.3	4	-1E+10	1	-1E+10	1	-1E+10	1	-1E+10	1	-1E+10	1	-1E+10	1
4902549	108	C	08/10/2023	20:02	-132.493	47.616	0	77.30	0	7.6210	0	32.4140	0	25.299	0	76.640	0	271.4	4	92.0	4	-1E+10	1	-1E+10	1	-1E+10	1	-1E+10	1	-1E+10	1	-1E+10	1
4902549	108	C	08/10/2023	20:02	-132.493	47.616	0	77.90	0	7.6010	0	32.4170	0	25.304	0	77.234	0	270.9	4	91.8	4	-1E+10	1	-1E+10	1	-1E+10	1	-1E+10	1	-1E+10	1	-1E+10	1
4902549	108	C	08/10/2023	20:02	-132.493	47.616	0	79.00	0	7.5850	0	32.4170	0	25.306	0	78.325	0	270.3	4	91.6	4	-1E+10	1	-1E+10	1	-1E+10	1	-1E+10	1	-1E+10	1	-1E+10	1
4902549	108	C	08/10/2023	20:02	-132.493	47.616	0	79.90	0	7.5750	0	32.4180	0	25.308	0	79.217	0	269.8	4	91.4	4	-1E+10	1	-1E+10	1	-1E+10	1	-1E+10	1	-1E+10	1	-1E+10	1
4902549	108	C	08/10/2023	20:02	-132.493	47.616	0	81.20	0	7.5500	0	32.4220	0	25.315	0	80.506	0	269.0	4	91.1	4	-1E+10	1	-1E+10	1	-1E+10	1	-1E+10	1	-1E+10	1	-1E+10	1
4902549	108	C	08/10/2023	20:02	-132.493	47.616	0	82.10	0	7.5480	0	32.4260	0	25.318	0	81.398	0	268.3	4	90.9	4	-1E+10	1	-1E+10	1	-1E+10	1	-1E+10	1	-1E+10	1	-1E+10	1
4902549	108	C	08/10/2023	20:02	-132.493	47.616	0	82.80	0	7.5400	0	32.4290	0	25.322	0	82.092	0	274.8	4	93.0	4	-1E+10	1	-1E+10	1	-1E+10	1	-1E+10	1	-1E+10	1	-1E+10	1
4902549	108	C	08/10/2023	20:02	-132.493	47.616	0	84.00	0	7.5340	0	32.4330	0	25.326	0	83.281	0	274.1	4	92.8	4	-1E+10	1	-1E+10	1	-1E+10	1	-1E+10	1	-1E+10	1	-1E+10	1
4902549	108	C	08/10/2023	20:02	-132.493	47.616	0	84.70	0	7.5360	0	32.4350	0	25.327	0	83.975	0	273.7	4	92.6	4	-1E+10	1	-1E+10	1	-1E+10	1	-1E+10	1	-1E+10	1	-1E+10	1
4902549	108	C	08/10/2023	20:02	-132.493	47.616	0	85.80	0	7.5440	0	32.4390	0	25.329	0	85.065	0	273.2	4	92.5	4	-1E+10	1	-1E+10	1	-1E+10	1	-1E+10	1	-1E+10	1	-1E+10	1
4902549	108	C	08/10/2023	20:02	-132.493	47.616	0	86.80	0	7.5880	0	32.4520	0	25.333	0	86.057	0	272.4	4	92.3	4	-1E+10	1	-1E+10	1	-1E+10	1	-1E+10	1	-1E+10	1	-1E+10	1
4902549	108	C	08/10/2023	20:02	-132.493	47.616	0	87.90	0	7.6020	0	32.4600	0	25.338	0	87.147	0	272.0	4	92.2	4	-1E+10	1	-1E+10	1	-1E+10	1	-1E+10	1	-1E+10	1	-1E+10	1
4902549	108	C	08/10/2023	20:02	-132.493	47.616	0	89.00	0	7.6090	0	32.4680	0	25.343	0	88.237	0	271.6	4	92.1	4	-1E+10	1	-1E+10	1	-1E+10	1	-1E+10	1	-1E+10	1	-1E+10	1
4902549	108	C	08/10/2023	20:02	-132.493	47.616	0	89.90	0	7.6020	0	32.4710	0	25.346	0	89.129	0	271.6	4	92.1	4	-1E+10	1	-1E+10	1	-1E+10	1	-1E+10	1	-1E+10	1	-1E+10	1
4902549	108	C	08/10/2023	20:02	-132.493	47.616	0	90.70	0	7.5990	0	32.4710	0	25.347	0	89.922	0	271.2	4	92.0	4	-1E+10	1	-1E+10	1	-1E+10	1	-1E+10	1	-1E+10	1	-1E+10	1
4902549	108	C	08/10/2023	20:02	-132.493	47.616	0	91.90	0	7.6000	0	32.4730	0	25.348	0	91.112	0	270.9	4	91.9	4	-1E+10	1	-1E+10	1	-1E+10	1	-1E+10	1	-1E+10	1	-1E+10	1
4902549	108	C	08/10/2023	20:02	-132.493	47.616	0	93.10	0	7.5960	0	32.4800	0	25.354	0	92.301	0	270.4	4	91.7	4	-1E+10	1	-1E+10	1	-1E+10	1	-1E+10	1	-1E+10	1	-1E+10	1
4902549	108	C	08/10/2023	20:02	-132.493	47.616	0	94.00	0	7.5700	0	32.4740	0	25.353	0	93.193	0	270.3	4	91.6	4	-1E+10	1	-1E+10	1	-1E+10	1	-1E+10	1	-1E+10	1	-1E+10	1
4902549	108	C	08/10/2023	20:02	-132.493	47.616	0	94.90	0	7.6060	0	32.4820	0	25.354	0	94.085	0	269.7	4	91.5	4	-1E+10	1	-1E+10	1	-1E+10	1	-1E+10	1	-1E+10	1	-1E+10	1
4902549	108	C	08/10/2023	20:02	-132.493	47.616	0	96.10	0	7.6250	0	32.4920	0	25.360	0	95.275	0	269.2	4	91.4	4	-1E+10	1	-1E+10	1	-1E+10	1	-1E+10	1	-1E+10	1	-1E+10	1
4902549	108	C	08/10/2023	20:02	-132.493	47.616	0	97.00	0	7.6260	0	32.4950	0	25.362	0	96.167	0	269.0	4	91.3	4	-1E+10	1	-1E+10	1	-1E+10	1	-1E+10	1	-1E+10	1	-1E+10	1
4902549	108	C	08/10/2023	20:02	-132.493	47.616	0	97.90	0	7.6290	0	32.4970	0	25.363	0	97.059	0	268.7	4	91.2	4	-1E+10	1	-1E+10	1	-1E+10	1	-1E+10	1	-1E+10	1	-1E+10	1
4902549	108	C	08/10/2023	20:02	-132.493	47.616	0	98.90	0	7.6150	0	32.5020	0	25.369	0	98.050	0	268.4	4	91.1	4	-1E+10	1	-1E+10	1	-1E+10	1	-1E+10	1	-1E+10	1	-1E+10	1
4902549	108	C	08/10/2023	20:02	-132.493	47.616	0	99.80	0	7.6000	0	32.5010	0	25.370	0	98.942	0	268.0	4	90.9	4	-1E+10	1	-1E+10	1	-1E+10	1	-1E+10	1	-1E+10	1	-1E+10	1
4902549	108	C	08/10/2023	20:02	-132.493	47.616	0	101.00	0	7.5750	0	32.4970	0	25.371	0	100.131	0	267.5	4	90.7	4	-1E+10	1	-1E+10	1	-1E+10	1	-1E+10	1	-1E+10	1	-1E+10	1
4902549	108	C	08/10/2023	20:02	-132.493	47.616	0	102.00	0	7.5400	0	32.5010	0	25.379	0	101.123	0	267.0	4	90.4	4	-1E+10	1	-1E+10	1	-1E+10	1	-1E+10	1	-1E+10	1	-1E+10	1
4902549	108	C	08/10/2023	20:02	-132.493	47.616	0	102.90	0	7.4710	0	32.4970	0	25.385	0	102.015	0	267.0	4	90.3	4	-1E+10	1	-1E+10	1	-1E+10	1	-1E+10	1	-1E+10	1	-1E+10	1
4902549	108	C	08/10/2023	20:02	-132.493	47.616	0	103.90	0	7.4830	0	32.5070	0	25.391	0	103.006	0	266.4	4	90.1	4	-1E+10	1	-1E+10	1	-1E+10	1	-1E+10	1	-1E+10	1	-1E+10	1
4902549	108	C	08/10/2023	20:02	-132.493	47.616	0	104.80	0	7.4660	0	32.5060	0	25.393	0	103.898	0	265.7	4	89.8	4	-1E+10	1	-1E+10	1	-1E+10	1	-1E+10	1	-1E+10	1	-1E+10	1
4902549	108	C	08/10/2023	20:02	-132.493	47.616	0	106.00	0	7.4430	0	32.5080	0	25.398	0	105.087	0	264.8	4	89.5	4	-1E+10	1	-1E+10	1	-1E+10	1	-1E+10	1	-1E+10	1	-1E+10	1
4902549	108	C	08/10/2023	20:02	-132.493	47.616	0	107.00	0	7.4410	0	32.5120	0	25.401	0	106.078	0	264.0	4	89.2	4	-1E+10	1	-1E+10	1	-1E+10	1	-1E+10	1	-1E+10	1	-1E+10	1
4902549	108	C	08/10/2023	20:02	-132.493	47.616	0	107.90	0	7.4700	0	32.5260	0	25.408	0	106.970	0	262.9	4	88.9	4	-1E+10	1	-1E+10	1	-1E+10	1	-1E+10	1	-1E+10	1	-1E+10	1
4902549	108	C	08/10/2023	20:02	-132.493	47.616	0	109.10	0	7.5100	0	32.5470	0	25.419	0	108.160	0	261.7	4	88.6	4	-1E+10	1	-1E+10	1	-1E+10	1	-1E+10	1	-1E+10	1	-1E+10	1
4902549	108	C	08/10/2023	20:02	-132.493	47.616	0	110.00	0	7.5120	0	32.5510	0	25.422	0	109.052	0	261.0	4	88.4	4	-1E+10	1	-1E+10	1	-1E+10	1	-1E+10	1	-1E+10	1	-1E+10	1
4902549	108	C	08/10/2023	20:02	-132.493	47.616	0	110.90	0	7.5100	0	32.5510	0	25.422	0	109.944	0	260.1	4	88.1	4	-1E+10	1	-1E+10	1	-1E+10	1	-1E+10	1	-1E+10	1	-1E+10	1
4902549	108	C	08/10/2023	20:02	-132.493	47.616	0	112.10	0	7.5080	0	32.5520	0	25.423	0	111.133	0	258.7	4	87.6	4	-1E+10	1	-1E+10	1	-1E+10	1	-1E+10	1	-1E+10	1	-1E+10	1
4902549	108	C	08/10/2023	20:02	-132.493	47.616	0	113.00	0	7.4900	0	32.5520	0	25.426	0	112.025	0	257.5	4	87.2	4	-1E+10	1	-1E+10	1	-1E+10	1	-1E+10	1	-1E+10	1	-1E+10	1
4902549	108	C	08/10/2023	20:02	-132.493	47.616	0	113.80	0	7.4590	0	32.5600	0	25.436	0	112.818	0	256.4	4	86.7	4	-1E+10	1	-1E+10	1	-1E+10	1	-1E+10	1	-1E+10	1	-1E+10	1
4902549	108	C	08/10/2023	20:02	-132.493	47.616	0	114.90	0	7.4300	0	32.5710	0	25.449	0	113.908	0	254.8	4	86.1	4	-1E+10	1	-1E+10	1	-1E+10	1	-1E+10	1	-1E+10	1	-1E+10	1
4902549	108	C	08/10/2023	20:02	-132.493	47.616	0	116.00	0	7.4160	0	32.5770	0	25.456	0	114.998	0	253.1	4	85.5	4	-1E+10	1	-1E+10	1	-1E+10	1	-1E+10	1	-1E+10	1	-1E+10	1
4902549	108	C	08/10/2023	20:02	-132.493	47.616	0	117.00	0	7.3890	0	32.5900	0	25.470	0	115.989	0	251.2	4	84.9	4	-1E+10	1	-1E+10	1	-1E+10	1	-1E+10	1	-1E+10	1	-1E+10	1
4902549	108	C	08/10/2023	20:02	-132.493	47.616	0	118.00	0	7.3780	0	32.6040	0	25.482	0	116.980	0	249.0	4	84.1	4	-1E+10	1	-1E+10	1	-1E+10	1	-1E+10	1	-1E+10	1	-1E+10	1
4902549	108	C	08/10/2023	20:02	-132.493	47.616	0	119.30	0	7.3420	0	32.6380	0	25.514	0	118.269	0	245.9	4	83.0	4	-1E+10	1	-1E+10	1	-1E+10	1	-1E+10	1	-1E+10	1	-1E+10	1
4902549	108	C	08/10/2023	20:02	-132.493	47.616	0	120.10	0	7.2490	0	32.6820	0	25.561	0	119.062	0	244.0	4	82.2	4	-1E+10	1	-1E+10	1	-1E+10	1	-1E+10	1	-1E+10	1	-1E+10	1
4902549	108	C	08/10/2023	20:02	-132.493	47.616	0	121.00	0	6.9570	0	32.7030	0	25.617	0	119.954	0	242.3	4	81.1	4	-1E+10	1	-1E+10	1	-1E+10	1	-1E+10	1	-1E+10	1	-1E+10	1
4902549	108	C	08/10/2023	20:02	-132.493	47.616	0	121.90	0	6.7920	0	32.7470	0	25.674	0	120.846	0	240.1	4	80.1	4	-1E+10	1	-1E+10	1	-1E+10	1	-1E+10	1	-1E+10	1	-1E+10	1
4902549	108	C	08/10/2023	20:02	-132.493	47.616	0	122.90	0	6.7810	0	32.7720	0	25.695	0	121.837	0	236.7	4	79.0	4	-1E+10	1	-1E+10	1	-1E+10	1	-1E+10	1	-1E+10	1	-1E+10	1
4902549	108	C	08/10/2023	20:02	-132.493	47.616	0	123.80	0	6.7720	0	32.7910	0	25.711	0	122.729	0	233.0	4	77.7	4	-1E+10	1	-1E+10	1	-1E+10	1	-1E+10	1	-1E+10	1	-1E+10	1
4902549	108	C	08/10/2023	20:02	-132.493	47.616	0	125.00	0	6.7240	0	32.8930	0	25.798	0	123.918	0	228.9	4	76.3	4	-1E+10	1	-1E+10	1	-1E+10	1	-1E+10	1	-1E+10	1	-1E+10	1
4902549	108	C	08/10/2023	20:02	-132.493	47.616	0	125.70	0	6.6840	0	32.9680	0	25.862	0	124.612	0	227.5	4	75.8	4	-1E+10	1	-1E+10	1	-1E+10	1	-1E+10	1	-1E+10	1	-1E+10	1
4902549	108	C	08/10/2023	20:02	-132.493	47.616	0	126.90	0	6.6260	0	33.0180	0	25.909	0	125.801	0	225.9	4	75.2	4	-1E+10	1	-1E+10	1	-1E+10	1	-1E+10	1	-1E+10	1	-1E+10	1
4902549	108	C	08/10/2023	20:02	-132.493	47.616	0	128.10	0	6.4730	0	33.0650	0	25.966	0	126.990	0	224.6	4	74.6	4	-1E+10	1	-1E+10	1	-1E+10	1	-1E+10	1	-1E+10	1	-1E+10	1
4902549	108	C	08/10/2023	20:02	-132.493	47.616	0	129.10	0	6.3680	0	33.1200	0	26.023	0	127.981	0	223.8	4	74.1	4	-1E+10	1	-1E+10	1	-1E+10	1	-1E+10	1	-1E+10	1	-1E+10	1
4902549	108	C	08/10/2023	20:02	-132.493	47.616	0	130.00	0	6.2980	0	33.1510	0	26.056	0	128.873	0	223.0	4	73.8	4	-1E+10	1	-1E+10	1	-1E+10	1	-1E+10	1	-1E+10	1	-1E+10	1
4902549	108	C	08/10/2023	20:02	-132.493	47.616	0	131.20	0	6.2650	0	33.1660	0	26.072	0	130.062	0	222.1	4	73.4	4	-1E+10	1	-1E+10	1	-1E+10	1	-1E+10	1	-1E+10	1	-1E+10	1
4902549	108	C	08/10/2023	20:02	-132.493	47.616	0	131.90	0	6.2550	0	33.1720	0	26.078	0	130.756	0	221.2	4	73.1	4	-1E+10	1	-1E+10	1	-1E+10	1	-1E+10	1	-1E+10	1	-1E+10	1
4902549	108	C	08/10/2023	20:02	-132.493	47.616	0	133.00	0	6.2240	0	33.1900	0	26.096	0	131.846	0	220.0	4	72.7	4	-1E+10	1	-1E+10	1	-1E+10	1	-1E+10	1	-1E+10	1	-1E+10	1
4902549	108	C	08/10/2023	20:02	-132.493	47.616	0	134.20	0	6.1980	0	33.2050	0	26.111	0	133.035	0	219.0	4	72.3	4	-1E+10	1	-1E+10	1	-1E+10	1	-1E+10	1	-1E+10	1	-1E+10	1
4902549	108	C	08/10/2023	20:02	-132.493	47.616	0	135.00	0	6.1830	0	33.2140	0	26.120	0	133.828	0	218.2	4	72.0	4	-1E+10	1	-1E+10	1	-1E+10	1	-1E+10	1	-1E+10	1	-1E+10	1
4902549	108	C	08/10/2023	20:02	-132.493	47.616	0	135.80	0	6.1630	0	33.2240	0	26.131	0	134.621	0	217.6	4	71.8	4	-1E+10	1	-1E+10	1	-1E+10	1	-1E+10	1	-1E+10	1	-1E+10	1
4902549	108	C	08/10/2023	20:02	-132.493	47.616	0	136.60	0	6.1470	0	33.2310	0	26.138	0	135.414	0	216.8	4	71.5	4	-1E+10	1	-1E+10	1	-1E+10	1	-1E+10	1	-1E+10	1	-1E+10	1
4902549	108	C	08/10/2023	20:02	-132.493	47.616	0	137.90	0	6.0860	0	33.2680	0	26.175	0	136.702	0	216.2	4	71.2	4	-1E+10	1	-1E+10	1	-1E+10	1	-1E+10	1	-1E+10	1	-1E+10	1
4902549	108	C	08/10/2023	20:02	-132.493	47.616	0	139.30	0	6.0770	0	33.2810	0	26.186	0	138.089	0	215.3	4	70.9	4	-1E+10	1	-1E+10	1	-1E+10	1	-1E+10	1	-1E+10	1	-1E+10	1
4902549	108	C	08/10/2023	20:02	-132.493	47.616	0	140.10	0	6.0750	0	33.2870	0	26.191	0	138.882	0	214.6	4	70.7	4	-1E+10	1	-1E+10	1	-1E+10	1	-1E+10	1	-1E+10	1	-1E+10	1
4902549	108	C	08/10/2023	20:02	-132.493	47.616	0	141.10	0	6.0690	0	33.3020	0	26.204	0	139.873	0	213.8	4	70.4	4	-1E+10	1	-1E+10	1	-1E+10	1	-1E+10	1	-1E+10	1	-1E+10	1
4902549	108	C	08/10/2023	20:02	-132.493	47.616	0	142.00	0	6.0600	0	33.3140	0	26.215	0	140.765	0	213.0	4	70.1	4	-1E+10	1	-1E+10	1	-1E+10	1	-1E+10	1	-1E+10	1	-1E+10	1
4902549	108	C	08/10/2023	20:02	-132.493	47.616	0	142.90	0	6.0520	0	33.3220	0	26.222	0	141.657	0	212.2	4	69.9	4	-1E+10	1	-1E+10	1	-1E+10	1	-1E+10	1	-1E+10	1	-1E+10	1
4902549	108	C	08/10/2023	20:02	-132.493	47.616	0	143.90	0	6.0410	0	33.3300	0	26.230	0	142.648	0	211.5	4	69.6	4	-1E+10	1	-1E+10	1	-1E+10	1	-1E+10	1	-1E+10	1	-1E+10	1
4902549	108	C	08/10/2023	20:02	-132.493	47.616	0	144.80	0	6.0300	0	33.3460	0	26.244	0	143.540	0	210.7	4	69.4	4	-1E+10	1	-1E+10	1	-1E+10	1	-1E+10	1	-1E+10	1	-1E+10	1
4902549	108	C	08/10/2023	20:02	-132.493	47.616	0	145.80	0	6.0200	0	33.3550	0	26.252	0	144.531	0	209.9	4	69.1	4	-1E+10	1	-1E+10	1	-1E+10	1	-1E+10	1	-1E+10	1	-1E+10	1
4902549	108	C	08/10/2023	20:02	-132.493	47.616	0	146.80	0	6.0120	0	33.3640	0	26.260	0	145.522	0	209.1	4	68.8	4	-1E+10	1	-1E+10	1	-1E+10	1	-1E+10	1	-1E+10	1	-1E+10	1
4902549	108	C	08/10/2023	20:02	-132.493	47.616	0	147.80	0	6.0070	0	33.3750	0	26.269	0	146.512	0	208.3	4	68.6	4	-1E+10	1	-1E+10	1	-1E+10	1	-1E+10	1	-1E+10	1	-1E+10	1
4902549	108	C	08/10/2023	20:02	-132.493	47.616	0	148.80	0	6.0040	0	33.3810	0	26.275	0	147.503	0	207.4	4	68.2	4	-1E+10	1	-1E+10	1	-1E+10	1	-1E+10	1	-1E+10	1	-1E+10	1
4902549	108	C	08/10/2023	20:02	-132.493	47.616	0	149.80	0	5.9970	0	33.3950	0	26.287	0	148.494	0	206.5	4	68.0	4	-1E+10	1	-1E+10	1	-1E+10	1	-1E+10	1	-1E+10	1	-1E+10	1
4902549	108	C	08/10/2023	20:02	-132.493	47.616	0	150.80	0	5.9900	0	33.4090	0	26.298	0	149.485	0	205.6	4	67.6	4	-1E+10	1	-1E+10	1	-1E+10	1	-1E+10	1	-1E+10	1	-1E+10	1
4902549	108	C	08/10/2023	20:02	-132.493	47.616	0	151.90	0	5.9840	0	33.4290	0	26.315	0	150.575	0	204.7	4	67.4	4	-1E+10	1	-1E+10	1	-1E+10	1	-1E+10	1	-1E+10	1	-1E+10	1
4902549	108	C	08/10/2023	20:02	-132.493	47.616	0	152.90	0	5.9800	0	33.4450	0	26.328	0	151.566	0	203.8	4	67.1	4	-1E+10	1	-1E+10	1	-1E+10	1	-1E+10	1	-1E+10	1	-1E+10	1
4902549	108	C	08/10/2023	20:02	-132.493	47.616	0	154.00	0	5.9750	0	33.4600	0	26.341	0	152.656	0	202.9	4	66.8	4	-1E+10	1	-1E+10	1	-1E+10	1	-1E+10	1	-1E+10	1	-1E+10	1
4902549	108	C	08/10/2023	20:02	-132.493	47.616	0	155.10	0	5.9730	0	33.4670	0	26.346	0	153.746	0	201.9	4	66.5	4	-1E+10	1	-1E+10	1	-1E+10	1	-1E+10	1	-1E+10	1	-1E+10	1
4902549	108	C	08/10/2023	20:02	-132.493	47.616	0	156.10	0	5.9710	0	33.4730	0	26.351	0	154.737	0	200.9	4	66.1	4	-1E+10	1	-1E+10	1	-1E+10	1	-1E+10	1	-1E+10	1	-1E+10	1
4902549	108	C	08/10/2023	20:02	-132.493	47.616	0	157.20	0	5.9650	0	33.4810	0	26.359	0	155.827	0	199.9	4	65.8	4	-1E+10	1	-1E+10	1	-1E+10	1	-1E+10	1	-1E+10	1	-1E+10	1
4902549	108	C	08/10/2023	20:02	-132.493	47.616	0	158.30	0	5.9630	0	33.4870	0	26.364	0	156.917	0	198.9	4	65.5	4	-1E+10	1	-1E+10	1	-1E+10	1	-1E+10	1	-1E+10	1	-1E+10	1
4902549	108	C	08/10/2023	20:02	-132.493	47.616	0	159.40	0	5.9610	0	33.4940	0	26.369	0	158.007	0	197.7	4	65.1	4	-1E+10	1	-1E+10	1	-1E+10	1	-1E+10	1	-1E+10	1	-1E+10	1
4902549	108	C	08/10/2023	20:02	-132.493	47.616	0	160.40	0	5.9550	0	33.5060	0	26.380	0	158.998	0	196.7	4	64.7	4	-1E+10	1	-1E+10	1	-1E+10	1	-1E+10	1	-1E+10	1	-1E+10	1
4902549	108	C	08/10/2023	20:02	-132.493	47.616	0	161.50	0	5.9490	0	33.5170	0	26.389	0	160.088	0	195.5	4	64.3	4	-1E+10	1	-1E+10	1	-1E+10	1	-1E+10	1	-1E+10	1	-1E+10	1
4902549	108	C	08/10/2023	20:02	-132.493	47.616	0	162.60	0	5.9450	0	33.5250	0	26.396	0	161.178	0	194.4	4	63.9	4	-1E+10	1	-1E+10	1	-1E+10	1	-1E+10	1	-1E+10	1	-1E+10	1
4902549	108	C	08/10/2023	20:02	-132.493	47.616	0	163.70	0	5.9420	0	33.5320	0	26.402	0	162.268	0	193.2	4	63.6	4	-1E+10	1	-1E+10	1	-1E+10	1	-1E+10	1	-1E+10	1	-1E+10	1
4902549	108	C	08/10/2023	20:02	-132.493	47.616	0	164.90	0	5.9390	0	33.5370	0	26.406	0	163.457	0	191.9	4	63.1	4	-1E+10	1	-1E+10	1	-1E+10	1	-1E+10	1	-1E+10	1	-1E+10	1
4902549	108	C	08/10/2023	20:02	-132.493	47.616	0	166.00	0	5.9280	0	33.5570	0	26.423	0	164.547	0	190.8	4	62.8	4	-1E+10	1	-1E+10	1	-1E+10	1	-1E+10	1	-1E+10	1	-1E+10	1
4902549	108	C	08/10/2023	20:02	-132.493	47.616	0	167.10	0	5.9170	0	33.5790	0	26.442	0	165.637	0	189.7	4	62.4	4	-1E+10	1	-1E+10	1	-1E+10	1	-1E+10	1	-1E+10	1	-1E+10	1
4902549	108	C	08/10/2023	20:02	-132.493	47.616	0	168.30	0	5.9110	0	33.5880	0	26.450	0	166.826	0	188.7	4	62.1	4	-1E+10	1	-1E+10	1	-1E+10	1	-1E+10	1	-1E+10	1	-1E+10	1
4902549	108	C	08/10/2023	20:02	-132.493	47.616	0	169.40	0	5.9080	0	33.5920	0	26.453	0	167.915	0	187.6	4	61.7	4	-1E+10	1	-1E+10	1	-1E+10	1	-1E+10	1	-1E+10	1	-1E+10	1
4902549	108	C	08/10/2023	20:02	-132.493	47.616	0	170.50	0	5.9060	0	33.5940	0	26.455	0	169.005	0	186.5	4	61.3	4	-1E+10	1	-1E+10	1	-1E+10	1	-1E+10	1	-1E+10	1	-1E+10	1
4902549	108	C	08/10/2023	20:02	-132.493	47.616	0	171.70	0	5.9030	0	33.5970	0	26.458	0	170.194	0	185.1	4	60.9	4	-1E+10	1	-1E+10	1	-1E+10	1	-1E+10	1	-1E+10	1	-1E+10	1
4902549	108	C	08/10/2023	20:02	-132.493	47.616	0	172.80	0	5.8920	0	33.6120	0	26.471	0	171.284	0	183.9	4	60.5	4	-1E+10	1	-1E+10	1	-1E+10	1	-1E+10	1	-1E+10	1	-1E+10	1
4902549	108	C	08/10/2023	20:02	-132.493	47.616	0	174.00	0	5.8890	0	33.6150	0	26.474	0	172.473	0	182.8	4	60.1	4	-1E+10	1	-1E+10	1	-1E+10	1	-1E+10	1	-1E+10	1	-1E+10	1
4902549	108	C	08/10/2023	20:02	-132.493	47.616	0	175.10	0	5.8870	0	33.6170	0	26.476	0	173.563	0	181.6	4	59.7	4	-1E+10	1	-1E+10	1	-1E+10	1	-1E+10	1	-1E+10	1	-1E+10	1
4902549	108	C	08/10/2023	20:02	-132.493	47.616	0	176.20	0	5.8790	0	33.6240	0	26.482	0	174.653	0	180.3	4	59.3	4	-1E+10	1	-1E+10	1	-1E+10	1	-1E+10	1	-1E+10	1	-1E+10	1
4902549	108	C	08/10/2023	20:02	-132.493	47.616	0	177.30	0	5.8700	0	33.6330	0	26.491	0	175.743	0	179.3	4	58.9	4	-1E+10	1	-1E+10	1	-1E+10	1	-1E+10	1	-1E+10	1	-1E+10	1
4902549	108	C	08/10/2023	20:02	-132.493	47.616	0	178.50	0	5.8590	0	33.6430	0	26.500	0	176.932	0	178.4	4	58.6	4	-1E+10	1	-1E+10	1	-1E+10	1	-1E+10	1	-1E+10	1	-1E+10	1
4902549	108	C	08/10/2023	20:02	-132.493	47.616	0	179.60	0	5.8570	0	33.6450	0	26.502	0	178.022	0	177.5	4	58.3	4	-1E+10	1	-1E+10	1	-1E+10	1	-1E+10	1	-1E+10	1	-1E+10	1
4902549	108	C	08/10/2023	20:02	-132.493	47.616	0	180.80	0	5.8540	0	33.6480	0	26.504	0	179.211	0	176.5	4	58.0	4	-1E+10	1	-1E+10	1	-1E+10	1	-1E+10	1	-1E+10	1	-1E+10	1
4902549	108	C	08/10/2023	20:02	-132.493	47.616	0	181.90	0	5.8500	0	33.6500	0	26.507	0	180.300	0	175.5	4	57.7	4	-1E+10	1	-1E+10	1	-1E+10	1	-1E+10	1	-1E+10	1	-1E+10	1
4902549	108	C	08/10/2023	20:02	-132.493	47.616	0	183.00	0	5.8440	0	33.6540	0	26.510	0	181.390	0	174.4	4	57.3	4	-1E+10	1	-1E+10	1	-1E+10	1	-1E+10	1	-1E+10	1	-1E+10	1
4902549	108	C	08/10/2023	20:02	-132.493	47.616	0	184.10	0	5.8380	0	33.6580	0	26.514	0	182.480	0	173.4	4	57.0	4	-1E+10	1	-1E+10	1	-1E+10	1	-1E+10	1	-1E+10	1	-1E+10	1
4902549	108	C	08/10/2023	20:02	-132.493	47.616	0	185.20	0	5.8280	0	33.6640	0	26.520	0	183.570	0	172.3	4	56.6	4	-1E+10	1	-1E+10	1	-1E+10	1	-1E+10	1	-1E+10	1	-1E+10	1
4902549	108	C	08/10/2023	20:02	-132.493	47.616	0	186.40	0	5.8160	0	33.6720	0	26.528	0	184.759	0	171.3	4	56.3	4	-1E+10	1	-1E+10	1	-1E+10	1	-1E+10	1	-1E+10	1	-1E+10	1
4902549	108	C	08/10/2023	20:02	-132.493	47.616	0	187.50	0	5.8050	0	33.6760	0	26.533	0	185.849	0	170.6	4	56.0	4	-1E+10	1	-1E+10	1	-1E+10	1	-1E+10	1	-1E+10	1	-1E+10	1
4902549	108	C	08/10/2023	20:02	-132.493	47.616	0	188.60	0	5.8020	0	33.6770	0	26.534	0	186.939	0	169.9	4	55.8	4	-1E+10	1	-1E+10	1	-1E+10	1	-1E+10	1	-1E+10	1	-1E+10	1
4902549	108	C	08/10/2023	20:02	-132.493	47.616	0	189.80	0	5.7940	0	33.6830	0	26.540	0	188.127	0	169.1	4	55.5	4	-1E+10	1	-1E+10	1	-1E+10	1	-1E+10	1	-1E+10	1	-1E+10	1
4902549	108	C	08/10/2023	20:02	-132.493	47.616	0	190.90	0	5.7930	0	33.6870	0	26.543	0	189.217	0	168.3	4	55.2	4	-1E+10	1	-1E+10	1	-1E+10	1	-1E+10	1	-1E+10	1	-1E+10	1
4902549	108	C	08/10/2023	20:02	-132.493	47.616	0	192.00	0	5.8060	0	33.6920	0	26.545	0	190.307	0	167.2	4	54.9	4	-1E+10	1	-1E+10	1	-1E+10	1	-1E+10	1	-1E+10	1	-1E+10	1
4902549	108	C	08/10/2023	20:02	-132.493	47.616	0	193.10	0	5.8100	0	33.6980	0	26.549	0	191.397	0	166.0	4	54.5	4	-1E+10	1	-1E+10	1	-1E+10	1	-1E+10	1	-1E+10	1	-1E+10	1
4902549	108	C	08/10/2023	20:02	-132.493	47.616	0	194.20	0	5.7760	0	33.7020	0	26.557	0	192.487	0	165.2	4	54.2	4	-1E+10	1	-1E+10	1	-1E+10	1	-1E+10	1	-1E+10	1	-1E+10	1
4902549	108	C	08/10/2023	20:02	-132.493	47.616	0	195.20	0	5.7730	0	33.7040	0	26.559	0	193.477	0	164.3	4	53.9	4	-1E+10	1	-1E+10	1	-1E+10	1	-1E+10	1	-1E+10	1	-1E+10	1
4902549	108	C	08/10/2023	20:02	-132.493	47.616	0	196.30	0	5.7720	0	33.7050	0	26.560	0	194.567	0	163.4	4	53.6	4	-1E+10	1	-1E+10	1	-1E+10	1	-1E+10	1	-1E+10	1	-1E+10	1
4902549	108	C	08/10/2023	20:02	-132.493	47.616	0	197.40	0	5.7660	0	33.7080	0	26.563	0	195.657	0	162.3	4	53.3	4	-1E+10	1	-1E+10	1	-1E+10	1	-1E+10	1	-1E+10	1	-1E+10	1
4902549	108	C	08/10/2023	20:02	-132.493	47.616	0	198.50	0	5.7600	0	33.7090	0	26.564	0	196.747	0	161.3	4	52.9	4	-1E+10	1	-1E+10	1	-1E+10	1	-1E+10	1	-1E+10	1	-1E+10	1
4902549	108	C	08/10/2023	20:02	-132.493	47.616	0	199.50	0	5.7560	0	33.7140	0	26.569	0	197.737	0	160.3	4	52.6	4	-1E+10	1	-1E+10	1	-1E+10	1	-1E+10	1	-1E+10	1	-1E+10	1
4902549	108	C	08/10/2023	20:02	-132.493	47.616	0	200.60	0	5.7370	0	33.7230	0	26.578	0	198.827	0	159.4	4	52.3	4	-1E+10	1	-1E+10	1	-1E+10	1	-1E+10	1	-1E+10	1	-1E+10	1
4902549	108	C	08/10/2023	20:02	-132.493	47.616	0	201.60	0	5.7330	0	33.7230	0	26.579	0	199.818	0	158.4	4	51.9	4	-1E+10	1	-1E+10	1	-1E+10	1	-1E+10	1	-1E+10	1	-1E+10	1
4902549	108	C	08/10/2023	20:02	-132.493	47.616	0	202.70	0	5.7290	0	33.7250	0	26.581	0	200.907	0	157.2	4	51.5	4	-1E+10	1	-1E+10	1	-1E+10	1	-1E+10	1	-1E+10	1	-1E+10	1
4902549	108	C	08/10/2023	20:02	-132.493	47.616	0	203.70	0	5.7160	0	33.7260	0	26.583	0	201.898	0	156.3	4	51.2	4	-1E+10	1	-1E+10	1	-1E+10	1	-1E+10	1	-1E+10	1	-1E+10	1
4902549	108	C	08/10/2023	20:02	-132.493	47.616	0	204.70	0	5.7110	0	33.7270	0	26.585	0	202.889	0	155.2	4	50.9	4	-1E+10	1	-1E+10	1	-1E+10	1	-1E+10	1	-1E+10	1	-1E+10	1
4902549	108	C	08/10/2023	20:02	-132.493	47.616	0	205.80	0	5.6940	0	33.7290	0	26.588	0	203.979	0	154.1	4	50.5	4	-1E+10	1	-1E+10	1	-1E+10	1	-1E+10	1	-1E+10	1	-1E+10	1
4902549	108	C	08/10/2023	20:02	-132.493	47.616	0	206.80	0	5.6850	0	33.7300	0	26.590	0	204.969	0	153.0	4	50.1	4	-1E+10	1	-1E+10	1	-1E+10	1	-1E+10	1	-1E+10	1	-1E+10	1
4902549	108	C	08/10/2023	20:02	-132.493	47.616	0	207.80	0	5.6720	0	33.7320	0	26.593	0	205.960	0	152.0	4	49.8	4	-1E+10	1	-1E+10	1	-1E+10	1	-1E+10	1	-1E+10	1	-1E+10	1
4902549	108	C	08/10/2023	20:02	-132.493	47.616	0	208.90	0	5.6620	0	33.7340	0	26.596	0	207.050	0	150.8	4	49.4	4	-1E+10	1	-1E+10	1	-1E+10	1	-1E+10	1	-1E+10	1	-1E+10	1
4902549	108	C	08/10/2023	20:02	-132.493	47.616	0	209.90	0	5.6540	0	33.7340	0	26.597	0	208.040	0	149.7	4	49.0	4	-1E+10	1	-1E+10	1	-1E+10	1	-1E+10	1	-1E+10	1	-1E+10	1
4902549	108	C	08/10/2023	20:02	-132.493	47.616	0	210.90	0	5.6390	0	33.7350	0	26.600	0	209.031	0	148.6	4	48.6	4	-1E+10	1	-1E+10	1	-1E+10	1	-1E+10	1	-1E+10	1	-1E+10	1
4902549	108	C	08/10/2023	20:02	-132.493	47.616	0	211.90	0	5.6330	0	33.7370	0	26.602	0	210.021	0	147.2	4	48.2	4	-1E+10	1	-1E+10	1	-1E+10	1	-1E+10	1	-1E+10	1	-1E+10	1
4902549	108	C	08/10/2023	20:02	-132.493	47.616	0	212.90	0	5.6170	0	33.7380	0	26.605	0	211.012	0	146.0	4	47.7	4	-1E+10	1	-1E+10	1	-1E+10	1	-1E+10	1	-1E+10	1	-1E+10	1
4902549	108	C	08/10/2023	20:02	-132.493	47.616	0	213.90	0	5.5740	0	33.7420	0	26.613	0	212.003	0	145.1	4	47.4	4	-1E+10	1	-1E+10	1	-1E+10	1	-1E+10	1	-1E+10	1	-1E+10	1
4902549	108	C	08/10/2023	20:02	-132.493	47.616	0	214.90	0	5.5640	0	33.7430	0	26.615	0	212.993	0	144.0	4	47.0	4	-1E+10	1	-1E+10	1	-1E+10	1	-1E+10	1	-1E+10	1	-1E+10	1
4902549	108	C	08/10/2023	20:02	-132.493	47.616	0	215.90	0	5.5560	0	33.7440	0	26.617	0	213.984	0	143.0	4	46.7	4	-1E+10	1	-1E+10	1	-1E+10	1	-1E+10	1	-1E+10	1	-1E+10	1
4902549	108	C	08/10/2023	20:02	-132.493	47.616	0	216.80	0	5.5440	0	33.7450	0	26.619	0	214.875	0	142.0	4	46.4	4	-1E+10	1	-1E+10	1	-1E+10	1	-1E+10	1	-1E+10	1	-1E+10	1
4902549	108	C	08/10/2023	20:02	-132.493	47.616	0	217.80	0	5.5280	0	33.7450	0	26.621	0	215.866	0	141.1	4	46.0	4	-1E+10	1	-1E+10	1	-1E+10	1	-1E+10	1	-1E+10	1	-1E+10	1
4902549	108	C	08/10/2023	20:02	-132.493	47.616	0	218.90	0	5.5080	0	33.7510	0	26.628	0	216.956	0	140.2	4	45.7	4	-1E+10	1	-1E+10	1	-1E+10	1	-1E+10	1	-1E+10	1	-1E+10	1
4902549	108	C	08/10/2023	20:02	-132.493	47.616	0	219.90	0	5.5020	0	33.7480	0	26.626	0	217.946	0	139.2	4	45.4	4	-1E+10	1	-1E+10	1	-1E+10	1	-1E+10	1	-1E+10	1	-1E+10	1
4902549	108	C	08/10/2023	20:02	-132.493	47.616	0	220.80	0	5.4940	0	33.7500	0	26.629	0	218.838	0	138.2	4	45.1	4	-1E+10	1	-1E+10	1	-1E+10	1	-1E+10	1	-1E+10	1	-1E+10	1
4902549	108	C	08/10/2023	20:02	-132.493	47.616	0	221.80	0	5.4840	0	33.7510	0	26.631	0	219.828	0	137.2	4	44.7	4	-1E+10	1	-1E+10	1	-1E+10	1	-1E+10	1	-1E+10	1	-1E+10	1
4902549	108	C	08/10/2023	20:02	-132.493	47.616	0	222.80	0	5.4830	0	33.7520	0	26.632	0	220.819	0	136.2	4	44.4	4	-1E+10	1	-1E+10	1	-1E+10	1	-1E+10	1	-1E+10	1	-1E+10	1
4902549	108	C	08/10/2023	20:02	-132.493	47.616	0	223.70	0	5.4790	0	33.7530	0	26.633	0	221.711	0	135.0	4	44.0	4	-1E+10	1	-1E+10	1	-1E+10	1	-1E+10	1	-1E+10	1	-1E+10	1
4902549	108	C	08/10/2023	20:02	-132.493	47.616	0	224.70	0	5.4580	0	33.7560	0	26.638	0	222.701	0	134.1	4	43.7	4	-1E+10	1	-1E+10	1	-1E+10	1	-1E+10	1	-1E+10	1	-1E+10	1
4902549	108	C	08/10/2023	20:02	-132.493	47.616	0	225.70	0	5.4810	0	33.7640	0	26.642	0	223.692	0	133.4	4	43.5	4	-1E+10	1	-1E+10	1	-1E+10	1	-1E+10	1	-1E+10	1	-1E+10	1
4902549	108	C	08/10/2023	20:02	-132.493	47.616	0	226.70	0	5.4840	0	33.7640	0	26.641	0	224.682	0	132.7	4	43.3	4	-1E+10	1	-1E+10	1	-1E+10	1	-1E+10	1	-1E+10	1	-1E+10	1
4902549	108	C	08/10/2023	20:02	-132.493	47.616	0	227.60	0	5.4880	0	33.7650	0	26.642	0	225.574	0	132.0	4	43.0	4	-1E+10	1	-1E+10	1	-1E+10	1	-1E+10	1	-1E+10	1	-1E+10	1
4902549	108	C	08/10/2023	20:02	-132.493	47.616	0	228.60	0	5.4900	0	33.7650	0	26.641	0	226.564	0	131.2	4	42.8	4	-1E+10	1	-1E+10	1	-1E+10	1	-1E+10	1	-1E+10	1	-1E+10	1
4902549	108	C	08/10/2023	20:02	-132.493	47.616	0	229.70	0	5.4830	0	33.7660	0	26.643	0	227.654	0	130.2	4	42.5	4	-1E+10	1	-1E+10	1	-1E+10	1	-1E+10	1	-1E+10	1	-1E+10	1
4902549	108	C	08/10/2023	20:02	-132.493	47.616	0	230.90	0	5.4790	0	33.7660	0	26.644	0	228.843	0	129.1	4	42.1	4	-1E+10	1	-1E+10	1	-1E+10	1	-1E+10	1	-1E+10	1	-1E+10	1
4902549	108	C	08/10/2023	20:02	-132.493	47.616	0	232.10	0	5.4310	0	33.7700	0	26.652	0	230.031	0	127.9	4	41.6	4	-1E+10	1	-1E+10	1	-1E+10	1	-1E+10	1	-1E+10	1	-1E+10	1
4902549	108	C	08/10/2023	20:02	-132.493	47.616	0	232.80	0	5.4350	0	33.7640	0	26.647	0	230.725	0	126.7	4	41.3	4	-1E+10	1	-1E+10	1	-1E+10	1	-1E+10	1	-1E+10	1	-1E+10	1
4902549	108	C	08/10/2023	20:02	-132.493	47.616	0	234.00	0	5.4060	0	33.7680	0	26.654	0	231.913	0	125.1	4	40.7	4	-1E+10	1	-1E+10	1	-1E+10	1	-1E+10	1	-1E+10	1	-1E+10	1
4902549	108	C	08/10/2023	20:02	-132.493	47.616	0	235.30	0	5.3910	0	33.7680	0	26.656	0	233.201	0	123.3	4	40.1	4	-1E+10	1	-1E+10	1	-1E+10	1	-1E+10	1	-1E+10	1	-1E+10	1
4902549	108	C	08/10/2023	20:02	-132.493	47.616	0	236.10	0	5.4030	0	33.7700	0	26.656	0	233.993	0	122.2	4	39.8	4	-1E+10	1	-1E+10	1	-1E+10	1	-1E+10	1	-1E+10	1	-1E+10	1
4902549	108	C	08/10/2023	20:02	-132.493	47.616	0	236.90	0	5.4460	0	33.7840	0	26.662	0	234.786	0	121.3	4	39.5	4	-1E+10	1	-1E+10	1	-1E+10	1	-1E+10	1	-1E+10	1	-1E+10	1
4902549	108	C	08/10/2023	20:02	-132.493	47.616	0	237.70	0	5.4470	0	33.7850	0	26.662	0	235.578	0	120.6	4	39.3	4	-1E+10	1	-1E+10	1	-1E+10	1	-1E+10	1	-1E+10	1	-1E+10	1
4902549	108	C	08/10/2023	20:02	-132.493	47.616	0	238.90	0	5.4460	0	33.7850	0	26.663	0	236.767	0	119.5	4	38.9	4	-1E+10	1	-1E+10	1	-1E+10	1	-1E+10	1	-1E+10	1	-1E+10	1
4902549	108	C	08/10/2023	20:02	-132.493	47.616	0	240.20	0	5.4500	0	33.7850	0	26.662	0	238.054	0	118.3	4	38.6	4	-1E+10	1	-1E+10	1	-1E+10	1	-1E+10	1	-1E+10	1	-1E+10	1
4902549	108	C	08/10/2023	20:02	-132.493	47.616	0	241.00	0	5.4480	0	33.7880	0	26.665	0	238.847	0	117.5	4	38.3	4	-1E+10	1	-1E+10	1	-1E+10	1	-1E+10	1	-1E+10	1	-1E+10	1
4902549	108	C	08/10/2023	20:02	-132.493	47.616	0	241.90	0	5.4210	0	33.7940	0	26.673	0	239.738	0	116.8	4	38.0	4	-1E+10	1	-1E+10	1	-1E+10	1	-1E+10	1	-1E+10	1	-1E+10	1
4902549	108	C	08/10/2023	20:02	-132.493	47.616	0	242.70	0	5.3990	0	33.7930	0	26.675	0	240.531	0	116.4	4	37.9	4	-1E+10	1	-1E+10	1	-1E+10	1	-1E+10	1	-1E+10	1	-1E+10	1
4902549	108	C	08/10/2023	20:02	-132.493	47.616	0	243.60	0	5.3920	0	33.7950	0	26.677	0	241.422	0	115.9	4	37.7	4	-1E+10	1	-1E+10	1	-1E+10	1	-1E+10	1	-1E+10	1	-1E+10	1
4902549	108	C	08/10/2023	20:02	-132.493	47.616	0	244.90	0	5.3880	0	33.7950	0	26.677	0	242.710	0	115.2	4	37.5	4	-1E+10	1	-1E+10	1	-1E+10	1	-1E+10	1	-1E+10	1	-1E+10	1
4902549	108	C	08/10/2023	20:02	-132.493	47.616	0	246.30	0	5.3850	0	33.7970	0	26.679	0	244.096	0	114.6	4	37.3	4	-1E+10	1	-1E+10	1	-1E+10	1	-1E+10	1	-1E+10	1	-1E+10	1
4902549	108	C	08/10/2023	20:02	-132.493	47.616	0	247.20	0	5.3810	0	33.7970	0	26.680	0	244.988	0	114.2	4	37.1	4	-1E+10	1	-1E+10	1	-1E+10	1	-1E+10	1	-1E+10	1	-1E+10	1
4902549	108	C	08/10/2023	20:02	-132.493	47.616	0	248.10	0	5.3800	0	33.7960	0	26.679	0	245.879	0	113.7	4	37.0	4	-1E+10	1	-1E+10	1	-1E+10	1	-1E+10	1	-1E+10	1	-1E+10	1
4902549	108	C	08/10/2023	20:02	-132.493	47.616	0	249.00	0	5.3710	0	33.7980	0	26.682	0	246.770	0	113.2	4	36.8	4	-1E+10	1	-1E+10	1	-1E+10	1	-1E+10	1	-1E+10	1	-1E+10	1
4902549	108	C	08/10/2023	20:02	-132.493	47.616	0	249.90	0	5.3340	0	33.8010	0	26.689	0	247.662	0	112.8	4	36.7	4	-1E+10	1	-1E+10	1	-1E+10	1	-1E+10	1	-1E+10	1	-1E+10	1
4902549	108	C	08/10/2023	20:02	-132.493	47.616	0	250.90	0	5.3070	0	33.8000	0	26.691	0	248.652	0	112.4	4	36.5	4	-1E+10	1	-1E+10	1	-1E+10	1	-1E+10	1	-1E+10	1	-1E+10	1
4902549	108	C	08/10/2023	20:02	-132.493	47.616	0	251.80	0	5.2980	0	33.7990	0	26.691	0	249.544	0	112.1	4	36.4	4	-1E+10	1	-1E+10	1	-1E+10	1	-1E+10	1	-1E+10	1	-1E+10	1
4902549	108	C	08/10/2023	20:02	-132.493	47.616	0	252.70	0	5.2850	0	33.8000	0	26.694	0	250.435	0	111.7	4	36.3	4	-1E+10	1	-1E+10	1	-1E+10	1	-1E+10	1	-1E+10	1	-1E+10	1
4902549	108	C	08/10/2023	20:02	-132.493	47.616	0	253.70	0	5.2780	0	33.8010	0	26.695	0	251.426	0	111.3	4	36.1	4	-1E+10	1	-1E+10	1	-1E+10	1	-1E+10	1	-1E+10	1	-1E+10	1
4902549	108	C	08/10/2023	20:02	-132.493	47.616	0	254.60	0	5.2730	0	33.8010	0	26.696	0	252.317	0	111.0	4	36.0	4	-1E+10	1	-1E+10	1	-1E+10	1	-1E+10	1	-1E+10	1	-1E+10	1
4902549	108	C	08/10/2023	20:02	-132.493	47.616	0	255.60	0	5.2720	0	33.8010	0	26.696	0	253.307	0	110.6	4	35.9	4	-1E+10	1	-1E+10	1	-1E+10	1	-1E+10	1	-1E+10	1	-1E+10	1
4902549	108	C	08/10/2023	20:02	-132.493	47.616	0	256.50	0	5.2640	0	33.8020	0	26.698	0	254.199	0	110.2	4	35.7	4	-1E+10	1	-1E+10	1	-1E+10	1	-1E+10	1	-1E+10	1	-1E+10	1
4902549	108	C	08/10/2023	20:02	-132.493	47.616	0	257.90	0	5.2550	0	33.8010	0	26.698	0	255.585	0	109.6	4	35.6	4	-1E+10	1	-1E+10	1	-1E+10	1	-1E+10	1	-1E+10	1	-1E+10	1
4902549	108	C	08/10/2023	20:02	-132.493	47.616	0	259.40	0	5.2430	0	33.8020	0	26.700	0	257.071	0	108.9	4	35.3	4	-1E+10	1	-1E+10	1	-1E+10	1	-1E+10	1	-1E+10	1	-1E+10	1
4902549	108	C	08/10/2023	20:02	-132.493	47.616	0	260.40	0	5.2410	0	33.8010	0	26.699	0	258.061	0	108.4	4	35.1	4	-1E+10	1	-1E+10	1	-1E+10	1	-1E+10	1	-1E+10	1	-1E+10	1
4902549	108	C	08/10/2023	20:02	-132.493	47.616	0	261.40	0	5.2430	0	33.8010	0	26.699	0	259.052	0	107.8	4	35.0	4	-1E+10	1	-1E+10	1	-1E+10	1	-1E+10	1	-1E+10	1	-1E+10	1
4902549	108	C	08/10/2023	20:02	-132.493	47.616	0	262.40	0	5.2320	0	33.8020	0	26.701	0	260.042	0	107.1	4	34.7	4	-1E+10	1	-1E+10	1	-1E+10	1	-1E+10	1	-1E+10	1	-1E+10	1
4902549	108	C	08/10/2023	20:02	-132.493	47.616	0	263.40	0	5.2300	0	33.8020	0	26.702	0	261.032	0	106.5	4	34.5	4	-1E+10	1	-1E+10	1	-1E+10	1	-1E+10	1	-1E+10	1	-1E+10	1
4902549	108	C	08/10/2023	20:02	-132.493	47.616	0	264.40	0	5.2130	0	33.8040	0	26.705	0	262.023	0	105.8	4	34.3	4	-1E+10	1	-1E+10	1	-1E+10	1	-1E+10	1	-1E+10	1	-1E+10	1
4902549	108	C	08/10/2023	20:02	-132.493	47.616	0	265.40	0	5.1910	0	33.8030	0	26.707	0	263.013	0	105.2	4	34.1	4	-1E+10	1	-1E+10	1	-1E+10	1	-1E+10	1	-1E+10	1	-1E+10	1
4902549	108	C	08/10/2023	20:02	-132.493	47.616	0	266.40	0	5.1790	0	33.8030	0	26.708	0	264.004	0	104.7	4	33.9	4	-1E+10	1	-1E+10	1	-1E+10	1	-1E+10	1	-1E+10	1	-1E+10	1
4902549	108	C	08/10/2023	20:02	-132.493	47.616	0	267.40	0	5.1650	0	33.8010	0	26.708	0	264.994	0	104.1	4	33.7	4	-1E+10	1	-1E+10	1	-1E+10	1	-1E+10	1	-1E+10	1	-1E+10	1
4902549	108	C	08/10/2023	20:02	-132.493	47.616	0	268.40	0	5.1240	0	33.8070	0	26.718	0	265.984	0	103.6	4	33.5	4	-1E+10	1	-1E+10	1	-1E+10	1	-1E+10	1	-1E+10	1	-1E+10	1
4902549	108	C	08/10/2023	20:02	-132.493	47.616	0	269.40	0	5.1030	0	33.8010	0	26.715	0	266.975	0	103.2	4	33.4	4	-1E+10	1	-1E+10	1	-1E+10	1	-1E+10	1	-1E+10	1	-1E+10	1
4902549	108	C	08/10/2023	20:02	-132.493	47.616	0	270.40	0	5.0990	0	33.8010	0	26.716	0	267.965	0	102.7	4	33.2	4	-1E+10	1	-1E+10	1	-1E+10	1	-1E+10	1	-1E+10	1	-1E+10	1
4902549	108	C	08/10/2023	20:02	-132.493	47.616	0	271.40	0	5.0980	0	33.8000	0	26.715	0	268.955	0	102.1	4	33.0	4	-1E+10	1	-1E+10	1	-1E+10	1	-1E+10	1	-1E+10	1	-1E+10	1
4902549	108	C	08/10/2023	20:02	-132.493	47.616	0	272.40	0	5.0740	0	33.8030	0	26.720	0	269.946	0	101.6	4	32.8	4	-1E+10	1	-1E+10	1	-1E+10	1	-1E+10	1	-1E+10	1	-1E+10	1
4902549	108	C	08/10/2023	20:02	-132.493	47.616	0	273.40	0	5.0460	0	33.8020	0	26.723	0	270.936	0	101.1	4	32.6	4	-1E+10	1	-1E+10	1	-1E+10	1	-1E+10	1	-1E+10	1	-1E+10	1
4902549	108	C	08/10/2023	20:02	-132.493	47.616	0	274.40	0	5.0250	0	33.8020	0	26.725	0	271.926	0	100.7	4	32.5	4	-1E+10	1	-1E+10	1	-1E+10	1	-1E+10	1	-1E+10	1	-1E+10	1
4902549	108	C	08/10/2023	20:02	-132.493	47.616	0	275.40	0	5.0030	0	33.8020	0	26.728	0	272.917	0	100.3	4	32.3	4	-1E+10	1	-1E+10	1	-1E+10	1	-1E+10	1	-1E+10	1	-1E+10	1
4902549	108	C	08/10/2023	20:02	-132.493	47.616	0	276.50	0	4.9950	0	33.8020	0	26.729	0	274.006	0	99.9	4	32.2	4	-1E+10	1	-1E+10	1	-1E+10	1	-1E+10	1	-1E+10	1	-1E+10	1
4902549	108	C	08/10/2023	20:02	-132.493	47.616	0	277.50	0	4.9620	0	33.8040	0	26.734	0	274.996	0	99.6	4	32.1	4	-1E+10	1	-1E+10	1	-1E+10	1	-1E+10	1	-1E+10	1	-1E+10	1
4902549	108	C	08/10/2023	20:02	-132.493	47.616	0	278.50	0	4.9600	0	33.8030	0	26.733	0	275.987	0	99.2	4	31.9	4	-1E+10	1	-1E+10	1	-1E+10	1	-1E+10	1	-1E+10	1	-1E+10	1
4902549	108	C	08/10/2023	20:02	-132.493	47.616	0	279.50	0	4.9580	0	33.8030	0	26.734	0	276.977	0	98.7	4	31.8	4	-1E+10	1	-1E+10	1	-1E+10	1	-1E+10	1	-1E+10	1	-1E+10	1
4902549	108	C	08/10/2023	20:02	-132.493	47.616	0	280.60	0	4.9550	0	33.8030	0	26.734	0	278.066	0	98.2	4	31.6	4	-1E+10	1	-1E+10	1	-1E+10	1	-1E+10	1	-1E+10	1	-1E+10	1
4902549	108	C	08/10/2023	20:02	-132.493	47.616	0	281.50	0	4.9500	0	33.8030	0	26.735	0	278.958	0	97.6	4	31.4	4	-1E+10	1	-1E+10	1	-1E+10	1	-1E+10	1	-1E+10	1	-1E+10	1
4902549	108	C	08/10/2023	20:02	-132.493	47.616	0	282.50	0	4.9430	0	33.8020	0	26.735	0	279.948	0	97.0	4	31.2	4	-1E+10	1	-1E+10	1	-1E+10	1	-1E+10	1	-1E+10	1	-1E+10	1
4902549	108	C	08/10/2023	20:02	-132.493	47.616	0	283.50	0	4.9160	0	33.8040	0	26.739	0	280.938	0	96.5	4	31.0	4	-1E+10	1	-1E+10	1	-1E+10	1	-1E+10	1	-1E+10	1	-1E+10	1
4902549	108	C	08/10/2023	20:02	-132.493	47.616	0	284.50	0	4.9080	0	33.8040	0	26.740	0	281.928	0	96.0	4	30.9	4	-1E+10	1	-1E+10	1	-1E+10	1	-1E+10	1	-1E+10	1	-1E+10	1
4902549	108	C	08/10/2023	20:02	-132.493	47.616	0	285.60	0	4.8800	0	33.8110	0	26.749	0	283.018	0	95.7	4	30.8	4	-1E+10	1	-1E+10	1	-1E+10	1	-1E+10	1	-1E+10	1	-1E+10	1
4902549	108	C	08/10/2023	20:02	-132.493	47.616	0	286.60	0	4.8680	0	33.8080	0	26.748	0	284.008	0	95.4	4	30.7	4	-1E+10	1	-1E+10	1	-1E+10	1	-1E+10	1	-1E+10	1	-1E+10	1
4902549	108	C	08/10/2023	20:02	-132.493	47.616	0	287.60	0	4.8700	0	33.8080	0	26.747	0	284.998	0	95.1	4	30.6	4	-1E+10	1	-1E+10	1	-1E+10	1	-1E+10	1	-1E+10	1	-1E+10	1
4902549	108	C	08/10/2023	20:02	-132.493	47.616	0	288.60	0	4.8640	0	33.8090	0	26.749	0	285.989	0	94.8	4	30.5	4	-1E+10	1	-1E+10	1	-1E+10	1	-1E+10	1	-1E+10	1	-1E+10	1
4902549	108	C	08/10/2023	20:02	-132.493	47.616	0	289.60	0	4.8610	0	33.8090	0	26.749	0	286.979	0	94.4	4	30.4	4	-1E+10	1	-1E+10	1	-1E+10	1	-1E+10	1	-1E+10	1	-1E+10	1
4902549	108	C	08/10/2023	20:02	-132.493	47.616	0	290.70	0	4.8460	0	33.8120	0	26.753	0	288.068	0	94.1	4	30.2	4	-1E+10	1	-1E+10	1	-1E+10	1	-1E+10	1	-1E+10	1	-1E+10	1
4902549	108	C	08/10/2023	20:02	-132.493	47.616	0	291.70	0	4.8400	0	33.8110	0	26.753	0	289.058	0	93.8	4	30.1	4	-1E+10	1	-1E+10	1	-1E+10	1	-1E+10	1	-1E+10	1	-1E+10	1
4902549	108	C	08/10/2023	20:02	-132.493	47.616	0	292.80	0	4.8380	0	33.8110	0	26.753	0	290.148	0	93.5	4	30.0	4	-1E+10	1	-1E+10	1	-1E+10	1	-1E+10	1	-1E+10	1	-1E+10	1
4902549	108	C	08/10/2023	20:02	-132.493	47.616	0	293.80	0	4.8360	0	33.8120	0	26.754	0	291.138	0	93.2	4	29.9	4	-1E+10	1	-1E+10	1	-1E+10	1	-1E+10	1	-1E+10	1	-1E+10	1
4902549	108	C	08/10/2023	20:02	-132.493	47.616	0	294.80	0	4.8350	0	33.8120	0	26.755	0	292.128	0	92.8	4	29.8	4	-1E+10	1	-1E+10	1	-1E+10	1	-1E+10	1	-1E+10	1	-1E+10	1
4902549	108	C	08/10/2023	20:02	-132.493	47.616	0	295.90	0	4.8350	0	33.8120	0	26.755	0	293.217	0	92.5	4	29.7	4	-1E+10	1	-1E+10	1	-1E+10	1	-1E+10	1	-1E+10	1	-1E+10	1
4902549	108	C	08/10/2023	20:02	-132.493	47.616	0	296.90	0	4.8280	0	33.8130	0	26.756	0	294.208	0	92.1	4	29.6	4	-1E+10	1	-1E+10	1	-1E+10	1	-1E+10	1	-1E+10	1	-1E+10	1
4902549	108	C	08/10/2023	20:02	-132.493	47.616	0	297.90	0	4.8200	0	33.8150	0	26.759	0	295.198	0	91.8	4	29.5	4	-1E+10	1	-1E+10	1	-1E+10	1	-1E+10	1	-1E+10	1	-1E+10	1
4902549	108	C	08/10/2023	20:02	-132.493	47.616	0	299.00	0	4.8150	0	33.8160	0	26.760	0	296.287	0	91.5	4	29.4	4	-1E+10	1	-1E+10	1	-1E+10	1	-1E+10	1	-1E+10	1	-1E+10	1
4902549	108	C	08/10/2023	20:02	-132.493	47.616	0	300.00	0	4.8120	0	33.8150	0	26.760	0	297.277	0	91.2	4	29.3	4	-1E+10	1	-1E+10	1	-1E+10	1	-1E+10	1	-1E+10	1	-1E+10	1
4902549	108	C	08/10/2023	20:02	-132.493	47.616	0	301.00	0	4.8100	0	33.8160	0	26.761	0	298.267	0	90.9	4	29.2	4	-1E+10	1	-1E+10	1	-1E+10	1	-1E+10	1	-1E+10	1	-1E+10	1
4902549	108	C	08/10/2023	20:02	-132.493	47.616	0	302.00	0	4.8100	0	33.8150	0	26.760	0	299.258	0	90.4	4	29.0	4	-1E+10	1	-1E+10	1	-1E+10	1	-1E+10	1	-1E+10	1	-1E+10	1
4902549	108	C	08/10/2023	20:02	-132.493	47.616	0	303.00	0	4.8090	0	33.8160	0	26.761	0	300.248	0	90.0	4	28.9	4	-1E+10	1	-1E+10	1	-1E+10	1	-1E+10	1	-1E+10	1	-1E+10	1
4902549	108	C	08/10/2023	20:02	-132.493	47.616	0	304.00	0	4.8080	0	33.8180	0	26.762	0	301.238	0	89.6	4	28.8	4	-1E+10	1	-1E+10	1	-1E+10	1	-1E+10	1	-1E+10	1	-1E+10	1
4902549	108	C	08/10/2023	20:02	-132.493	47.616	0	305.00	0	4.8070	0	33.8210	0	26.765	0	302.228	0	89.3	4	28.7	4	-1E+10	1	-1E+10	1	-1E+10	1	-1E+10	1	-1E+10	1	-1E+10	1
4902549	108	C	08/10/2023	20:02	-132.493	47.616	0	306.00	0	4.8000	0	33.8220	0	26.767	0	303.218	0	88.9	4	28.5	4	-1E+10	1	-1E+10	1	-1E+10	1	-1E+10	1	-1E+10	1	-1E+10	1
4902549	108	C	08/10/2023	20:02	-132.493	47.616	0	307.10	0	4.7960	0	33.8220	0	26.767	0	304.308	0	88.7	4	28.5	4	-1E+10	1	-1E+10	1	-1E+10	1	-1E+10	1	-1E+10	1	-1E+10	1
4902549	108	C	08/10/2023	20:02	-132.493	47.616	0	308.10	0	4.7920	0	33.8230	0	26.768	0	305.298	0	88.4	4	28.4	4	-1E+10	1	-1E+10	1	-1E+10	1	-1E+10	1	-1E+10	1	-1E+10	1
4902549	108	C	08/10/2023	20:02	-132.493	47.616	0	309.10	0	4.7900	0	33.8230	0	26.768	0	306.288	0	88.0	4	28.2	4	-1E+10	1	-1E+10	1	-1E+10	1	-1E+10	1	-1E+10	1	-1E+10	1
4902549	108	C	08/10/2023	20:02	-132.493	47.616	0	310.20	0	4.7850	0	33.8230	0	26.769	0	307.377	0	87.7	4	28.1	4	-1E+10	1	-1E+10	1	-1E+10	1	-1E+10	1	-1E+10	1	-1E+10	1
4902549	108	C	08/10/2023	20:02	-132.493	47.616	0	311.20	0	4.7790	0	33.8240	0	26.770	0	308.367	0	87.3	4	28.0	4	-1E+10	1	-1E+10	1	-1E+10	1	-1E+10	1	-1E+10	1	-1E+10	1
4902549	108	C	08/10/2023	20:02	-132.493	47.616	0	312.20	0	4.7740	0	33.8240	0	26.771	0	309.357	0	86.9	4	27.9	4	-1E+10	1	-1E+10	1	-1E+10	1	-1E+10	1	-1E+10	1	-1E+10	1
4902549	108	C	08/10/2023	20:02	-132.493	47.616	0	313.30	0	4.7700	0	33.8240	0	26.771	0	310.446	0	86.5	4	27.7	4	-1E+10	1	-1E+10	1	-1E+10	1	-1E+10	1	-1E+10	1	-1E+10	1
4902549	108	C	08/10/2023	20:02	-132.493	47.616	0	314.30	0	4.7610	0	33.8250	0	26.773	0	311.437	0	86.0	4	27.6	4	-1E+10	1	-1E+10	1	-1E+10	1	-1E+10	1	-1E+10	1	-1E+10	1
4902549	108	C	08/10/2023	20:02	-132.493	47.616	0	315.30	0	4.7510	0	33.8270	0	26.776	0	312.427	0	85.7	4	27.5	4	-1E+10	1	-1E+10	1	-1E+10	1	-1E+10	1	-1E+10	1	-1E+10	1
4902549	108	C	08/10/2023	20:02	-132.493	47.616	0	316.40	0	4.7480	0	33.8270	0	26.776	0	313.516	0	85.3	4	27.4	4	-1E+10	1	-1E+10	1	-1E+10	1	-1E+10	1	-1E+10	1	-1E+10	1
4902549	108	C	08/10/2023	20:02	-132.493	47.616	0	317.40	0	4.7350	0	33.8290	0	26.779	0	314.506	0	85.0	4	27.2	4	-1E+10	1	-1E+10	1	-1E+10	1	-1E+10	1	-1E+10	1	-1E+10	1
4902549	108	C	08/10/2023	20:02	-132.493	47.616	0	318.40	0	4.7270	0	33.8300	0	26.781	0	315.496	0	84.7	4	27.1	4	-1E+10	1	-1E+10	1	-1E+10	1	-1E+10	1	-1E+10	1	-1E+10	1
4902549	108	C	08/10/2023	20:02	-132.493	47.616	0	319.50	0	4.7250	0	33.8300	0	26.781	0	316.585	0	84.4	4	27.0	4	-1E+10	1	-1E+10	1	-1E+10	1	-1E+10	1	-1E+10	1	-1E+10	1
4902549	108	C	08/10/2023	20:02	-132.493	47.616	0	320.90	0	4.7180	0	33.8310	0	26.783	0	317.971	0	83.9	4	26.9	4	-1E+10	1	-1E+10	1	-1E+10	1	-1E+10	1	-1E+10	1	-1E+10	1
4902549	108	C	08/10/2023	20:02	-132.493	47.616	0	323.00	0	4.7140	0	33.8320	0	26.784	0	320.051	0	83.2	4	26.7	4	-1E+10	1	-1E+10	1	-1E+10	1	-1E+10	1	-1E+10	1	-1E+10	1
4902549	108	C	08/10/2023	20:02	-132.493	47.616	0	324.20	0	4.7080	0	33.8330	0	26.786	0	321.239	0	82.8	4	26.5	4	-1E+10	1	-1E+10	1	-1E+10	1	-1E+10	1	-1E+10	1	-1E+10	1
4902549	108	C	08/10/2023	20:02	-132.493	47.616	0	325.00	0	4.7050	0	33.8340	0	26.787	0	322.031	0	82.4	4	26.4	4	-1E+10	1	-1E+10	1	-1E+10	1	-1E+10	1	-1E+10	1	-1E+10	1
4902549	108	C	08/10/2023	20:02	-132.493	47.616	0	325.70	0	4.7030	0	33.8340	0	26.787	0	322.724	0	82.1	4	26.3	4	-1E+10	1	-1E+10	1	-1E+10	1	-1E+10	1	-1E+10	1	-1E+10	1
4902549	108	C	08/10/2023	20:02	-132.493	47.616	0	326.90	0	4.6980	0	33.8350	0	26.788	0	323.912	0	81.6	4	26.1	4	-1E+10	1	-1E+10	1	-1E+10	1	-1E+10	1	-1E+10	1	-1E+10	1
4902549	108	C	08/10/2023	20:02	-132.493	47.616	0	328.10	0	4.6860	0	33.8390	0	26.793	0	325.100	0	81.1	4	26.0	4	-1E+10	1	-1E+10	1	-1E+10	1	-1E+10	1	-1E+10	1	-1E+10	1
4902549	108	C	08/10/2023	20:02	-132.493	47.616	0	328.90	0	4.6830	0	33.8380	0	26.792	0	325.892	0	80.9	4	25.9	4	-1E+10	1	-1E+10	1	-1E+10	1	-1E+10	1	-1E+10	1	-1E+10	1
4902549	108	C	08/10/2023	20:02	-132.493	47.616	0	329.70	0	4.6800	0	33.8390	0	26.793	0	326.684	0	80.6	4	25.8	4	-1E+10	1	-1E+10	1	-1E+10	1	-1E+10	1	-1E+10	1	-1E+10	1
4902549	108	C	08/10/2023	20:02	-132.493	47.616	0	330.90	0	4.6770	0	33.8380	0	26.793	0	327.872	0	80.1	4	25.6	4	-1E+10	1	-1E+10	1	-1E+10	1	-1E+10	1	-1E+10	1	-1E+10	1
4902549	108	C	08/10/2023	20:02	-132.493	47.616	0	332.10	0	4.6730	0	33.8390	0	26.794	0	329.060	0	79.5	4	25.4	4	-1E+10	1	-1E+10	1	-1E+10	1	-1E+10	1	-1E+10	1	-1E+10	1
4902549	108	C	08/10/2023	20:02	-132.493	47.616	0	333.00	0	4.6680	0	33.8400	0	26.796	0	329.951	0	79.1	4	25.3	4	-1E+10	1	-1E+10	1	-1E+10	1	-1E+10	1	-1E+10	1	-1E+10	1
4902549	108	C	08/10/2023	20:02	-132.493	47.616	0	333.80	0	4.6670	0	33.8400	0	26.796	0	330.743	0	78.7	4	25.2	4	-1E+10	1	-1E+10	1	-1E+10	1	-1E+10	1	-1E+10	1	-1E+10	1
4902549	108	C	08/10/2023	20:02	-132.493	47.616	0	335.00	0	4.6600	0	33.8410	0	26.797	0	331.931	0	78.0	4	25.0	4	-1E+10	1	-1E+10	1	-1E+10	1	-1E+10	1	-1E+10	1	-1E+10	1
4902549	108	C	08/10/2023	20:02	-132.493	47.616	0	336.30	0	4.6500	0	33.8430	0	26.800	0	333.219	0	77.4	4	24.8	4	-1E+10	1	-1E+10	1	-1E+10	1	-1E+10	1	-1E+10	1	-1E+10	1
4902549	108	C	08/10/2023	20:02	-132.493	47.616	0	337.10	0	4.6340	0	33.8460	0	26.804	0	334.011	0	77.1	4	24.6	4	-1E+10	1	-1E+10	1	-1E+10	1	-1E+10	1	-1E+10	1	-1E+10	1
4902549	108	C	08/10/2023	20:02	-132.493	47.616	0	338.00	0	4.6310	0	33.8470	0	26.805	0	334.902	0	76.7	4	24.5	4	-1E+10	1	-1E+10	1	-1E+10	1	-1E+10	1	-1E+10	1	-1E+10	1
4902549	108	C	08/10/2023	20:02	-132.493	47.616	0	338.80	0	4.6290	0	33.8480	0	26.806	0	335.694	0	76.4	4	24.4	4	-1E+10	1	-1E+10	1	-1E+10	1	-1E+10	1	-1E+10	1	-1E+10	1
4902549	108	C	08/10/2023	20:02	-132.493	47.616	0	339.70	0	4.6260	0	33.8480	0	26.807	0	336.585	0	76.0	4	24.3	4	-1E+10	1	-1E+10	1	-1E+10	1	-1E+10	1	-1E+10	1	-1E+10	1
4902549	108	C	08/10/2023	20:02	-132.493	47.616	0	341.00	0	4.6220	0	33.8480	0	26.807	0	337.872	0	75.4	4	24.1	4	-1E+10	1	-1E+10	1	-1E+10	1	-1E+10	1	-1E+10	1	-1E+10	1
4902549	108	C	08/10/2023	20:02	-132.493	47.616	0	342.30	0	4.6190	0	33.8490	0	26.808	0	339.159	0	74.8	4	23.9	4	-1E+10	1	-1E+10	1	-1E+10	1	-1E+10	1	-1E+10	1	-1E+10	1
4902549	108	C	08/10/2023	20:02	-132.493	47.616	0	343.10	0	4.6150	0	33.8500	0	26.809	0	339.951	0	74.3	4	23.7	4	-1E+10	1	-1E+10	1	-1E+10	1	-1E+10	1	-1E+10	1	-1E+10	1
4902549	108	C	08/10/2023	20:02	-132.493	47.616	0	344.00	0	4.6030	0	33.8530	0	26.813	0	340.842	0	73.9	4	23.6	4	-1E+10	1	-1E+10	1	-1E+10	1	-1E+10	1	-1E+10	1	-1E+10	1
4902549	108	C	08/10/2023	20:02	-132.493	47.616	0	344.90	0	4.5980	0	33.8530	0	26.814	0	341.733	0	73.5	4	23.5	4	-1E+10	1	-1E+10	1	-1E+10	1	-1E+10	1	-1E+10	1	-1E+10	1
4902549	108	C	08/10/2023	20:02	-132.493	47.616	0	345.80	0	4.5930	0	33.8530	0	26.814	0	342.624	0	73.1	4	23.4	4	-1E+10	1	-1E+10	1	-1E+10	1	-1E+10	1	-1E+10	1	-1E+10	1
4902549	108	C	08/10/2023	20:02	-132.493	47.616	0	346.70	0	4.5890	0	33.8550	0	26.816	0	343.515	0	72.7	4	23.2	4	-1E+10	1	-1E+10	1	-1E+10	1	-1E+10	1	-1E+10	1	-1E+10	1
4902549	108	C	08/10/2023	20:02	-132.493	47.616	0	347.60	0	4.5840	0	33.8560	0	26.818	0	344.406	0	72.3	4	23.1	4	-1E+10	1	-1E+10	1	-1E+10	1	-1E+10	1	-1E+10	1	-1E+10	1
4902549	108	C	08/10/2023	20:02	-132.493	47.616	0	348.90	0	4.5670	0	33.8600	0	26.823	0	345.693	0	71.8	4	22.9	4	-1E+10	1	-1E+10	1	-1E+10	1	-1E+10	1	-1E+10	1	-1E+10	1
4902549	108	C	08/10/2023	20:02	-132.493	47.616	0	350.30	0	4.5610	0	33.8610	0	26.824	0	347.079	0	71.4	4	22.8	4	-1E+10	1	-1E+10	1	-1E+10	1	-1E+10	1	-1E+10	1	-1E+10	1
4902549	108	C	08/10/2023	20:02	-132.493	47.616	0	353.00	0	4.5480	0	33.8630	0	26.827	0	349.751	0	70.4	4	22.5	4	-1E+10	1	-1E+10	1	-1E+10	1	-1E+10	1	-1E+10	1	-1E+10	1
4902549	108	C	08/10/2023	20:02	-132.493	47.616	0	357.70	0	4.5330	0	33.8680	0	26.833	0	354.404	0	68.8	4	22.0	4	-1E+10	1	-1E+10	1	-1E+10	1	-1E+10	1	-1E+10	1	-1E+10	1
4902549	108	C	08/10/2023	20:02	-132.493	47.616	0	362.80	0	4.5170	0	33.8730	0	26.838	0	359.453	0	66.7	4	21.3	4	-1E+10	1	-1E+10	1	-1E+10	1	-1E+10	1	-1E+10	1	-1E+10	1
4902549	108	C	08/10/2023	20:02	-132.493	47.616	0	368.10	0	4.4900	0	33.8790	0	26.846	0	364.699	0	64.7	4	20.6	4	-1E+10	1	-1E+10	1	-1E+10	1	-1E+10	1	-1E+10	1	-1E+10	1
4902549	108	C	08/10/2023	20:02	-132.493	47.616	0	373.00	0	4.4600	0	33.8830	0	26.852	0	369.550	0	63.2	4	20.1	4	-1E+10	1	-1E+10	1	-1E+10	1	-1E+10	1	-1E+10	1	-1E+10	1
4902549	108	C	08/10/2023	20:02	-132.493	47.616	0	377.90	0	4.4450	0	33.8870	0	26.857	0	374.400	0	61.9	4	19.7	4	-1E+10	1	-1E+10	1	-1E+10	1	-1E+10	1	-1E+10	1	-1E+10	1
4902549	108	C	08/10/2023	20:02	-132.493	47.616	0	382.80	0	4.4320	0	33.8930	0	26.864	0	379.250	0	60.5	4	19.3	4	-1E+10	1	-1E+10	1	-1E+10	1	-1E+10	1	-1E+10	1	-1E+10	1
4902549	108	C	08/10/2023	20:02	-132.493	47.616	0	387.70	0	4.4200	0	33.8970	0	26.868	0	384.100	0	58.7	4	18.7	4	-1E+10	1	-1E+10	1	-1E+10	1	-1E+10	1	-1E+10	1	-1E+10	1
4902549	108	C	08/10/2023	20:02	-132.493	47.616	0	392.60	0	4.4020	0	33.9030	0	26.875	0	388.950	0	56.9	4	18.1	4	-1E+10	1	-1E+10	1	-1E+10	1	-1E+10	1	-1E+10	1	-1E+10	1
4902549	108	C	08/10/2023	20:02	-132.493	47.616	0	397.50	0	4.3830	0	33.9110	0	26.883	0	393.800	0	55.5	4	17.7	4	-1E+10	1	-1E+10	1	-1E+10	1	-1E+10	1	-1E+10	1	-1E+10	1
4902549	108	C	08/10/2023	20:02	-132.493	47.616	0	402.90	0	4.3700	0	33.9180	0	26.890	0	399.144	0	54.4	4	17.3	4	-1E+10	1	-1E+10	1	-1E+10	1	-1E+10	1	-1E+10	1	-1E+10	1
4902549	108	C	08/10/2023	20:02	-132.493	47.616	0	408.20	0	4.3640	0	33.9220	0	26.894	0	404.390	0	53.4	4	17.0	4	-1E+10	1	-1E+10	1	-1E+10	1	-1E+10	1	-1E+10	1	-1E+10	1
4902549	108	C	08/10/2023	20:02	-132.493	47.616	0	413.10	0	4.3580	0	33.9250	0	26.897	0	409.239	0	52.2	4	16.6	4	-1E+10	1	-1E+10	1	-1E+10	1	-1E+10	1	-1E+10	1	-1E+10	1
4902549	108	C	08/10/2023	20:02	-132.493	47.616	0	417.90	0	4.3480	0	33.9330	0	26.904	0	413.989	0	51.0	4	16.2	4	-1E+10	1	-1E+10	1	-1E+10	1	-1E+10	1	-1E+10	1	-1E+10	1
4902549	108	C	08/10/2023	20:02	-132.493	47.616	0	422.60	0	4.3380	0	33.9380	0	26.910	0	418.641	0	49.9	4	15.8	4	-1E+10	1	-1E+10	1	-1E+10	1	-1E+10	1	-1E+10	1	-1E+10	1
4902549	108	C	08/10/2023	20:02	-132.493	47.616	0	427.90	0	4.3260	0	33.9440	0	26.916	0	423.886	0	48.6	4	15.4	4	-1E+10	1	-1E+10	1	-1E+10	1	-1E+10	1	-1E+10	1	-1E+10	1
4902549	108	C	08/10/2023	20:02	-132.493	47.616	0	433.10	0	4.3150	0	33.9510	0	26.922	0	429.031	0	47.3	4	15.0	4	-1E+10	1	-1E+10	1	-1E+10	1	-1E+10	1	-1E+10	1	-1E+10	1
4902549	108	C	08/10/2023	20:02	-132.493	47.616	0	437.80	0	4.3060	0	33.9560	0	26.927	0	433.682	0	45.7	4	14.5	4	-1E+10	1	-1E+10	1	-1E+10	1	-1E+10	1	-1E+10	1	-1E+10	1
4902549	108	C	08/10/2023	20:02	-132.493	47.616	0	442.60	0	4.2920	0	33.9700	0	26.940	0	438.432	0	44.1	4	14.0	4	-1E+10	1	-1E+10	1	-1E+10	1	-1E+10	1	-1E+10	1	-1E+10	1
4902549	108	C	08/10/2023	20:02	-132.493	47.616	0	447.90	0	4.2900	0	33.9810	0	26.949	0	443.677	0	42.7	4	13.6	4	-1E+10	1	-1E+10	1	-1E+10	1	-1E+10	1	-1E+10	1	-1E+10	1
4902549	108	C	08/10/2023	20:02	-132.493	47.616	0	453.30	0	4.3250	0	33.9930	0	26.955	0	449.020	0	41.4	4	13.2	4	-1E+10	1	-1E+10	1	-1E+10	1	-1E+10	1	-1E+10	1	-1E+10	1
4902549	108	C	08/10/2023	20:02	-132.493	47.616	0	458.10	0	4.3290	0	34.0000	0	26.960	0	453.769	0	39.9	4	12.7	4	-1E+10	1	-1E+10	1	-1E+10	1	-1E+10	1	-1E+10	1	-1E+10	1
4902549	108	C	08/10/2023	20:02	-132.493	47.616	0	462.90	0	4.3550	0	34.0100	0	26.965	0	458.519	0	38.5	4	12.3	4	-1E+10	1	-1E+10	1	-1E+10	1	-1E+10	1	-1E+10	1	-1E+10	1
4902549	108	C	08/10/2023	20:02	-132.493	47.616	0	467.80	0	4.3780	0	34.0190	0	26.970	0	463.367	0	37.2	4	11.8	4	-1E+10	1	-1E+10	1	-1E+10	1	-1E+10	1	-1E+10	1	-1E+10	1
4902549	108	C	08/10/2023	20:02	-132.493	47.616	0	472.60	0	4.3790	0	34.0240	0	26.974	0	468.116	0	35.7	4	11.4	4	-1E+10	1	-1E+10	1	-1E+10	1	-1E+10	1	-1E+10	1	-1E+10	1
4902549	108	C	08/10/2023	20:02	-132.493	47.616	0	477.50	0	4.3660	0	34.0340	0	26.983	0	472.964	0	34.4	4	10.9	4	-1E+10	1	-1E+10	1	-1E+10	1	-1E+10	1	-1E+10	1	-1E+10	1
4902549	108	C	08/10/2023	20:02	-132.493	47.616	0	482.50	0	4.3290	0	34.0370	0	26.990	0	477.911	0	33.3	4	10.6	4	-1E+10	1	-1E+10	1	-1E+10	1	-1E+10	1	-1E+10	1	-1E+10	1
4902549	108	C	08/10/2023	20:02	-132.493	47.616	0	487.50	0	4.3230	0	34.0480	0	26.999	0	482.857	0	32.2	4	10.2	4	-1E+10	1	-1E+10	1	-1E+10	1	-1E+10	1	-1E+10	1	-1E+10	1
4902549	108	C	08/10/2023	20:02	-132.493	47.616	0	492.70	0	4.3050	0	34.0530	0	27.005	0	488.002	0	31.4	4	10.0	4	-1E+10	1	-1E+10	1	-1E+10	1	-1E+10	1	-1E+10	1	-1E+10	1
4902549	108	C	08/10/2023	20:02	-132.493	47.616	0	497.80	0	4.2910	0	34.0570	0	27.010	0	493.047	0	30.7	4	9.8	4	-1E+10	1	-1E+10	1	-1E+10	1	-1E+10	1	-1E+10	1	-1E+10	1
4902549	108	C	08/10/2023	20:02	-132.493	47.616	0	503.10	0	4.2770	0	34.0610	0	27.014	0	498.290	0	30.0	4	9.5	4	-1E+10	1	-1E+10	1	-1E+10	1	-1E+10	1	-1E+10	1	-1E+10	1
4902549	108	C	08/10/2023	20:02	-132.493	47.616	0	507.90	0	4.2590	0	34.0650	0	27.019	0	503.038	0	29.4	4	9.3	4	-1E+10	1	-1E+10	1	-1E+10	1	-1E+10	1	-1E+10	1	-1E+10	1
4902549	108	C	08/10/2023	20:02	-132.493	47.616	0	512.50	0	4.2370	0	34.0700	0	27.026	0	507.589	0	28.9	4	9.2	4	-1E+10	1	-1E+10	1	-1E+10	1	-1E+10	1	-1E+10	1	-1E+10	1
4902549	108	C	08/10/2023	20:02	-132.493	47.616	0	518.00	0	4.2070	0	34.0750	0	27.033	0	513.029	0	28.4	4	9.0	4	-1E+10	1	-1E+10	1	-1E+10	1	-1E+10	1	-1E+10	1	-1E+10	1
4902549	108	C	08/10/2023	20:02	-132.493	47.616	0	522.90	0	4.1950	0	34.0780	0	27.037	0	517.876	0	27.8	4	8.8	4	-1E+10	1	-1E+10	1	-1E+10	1	-1E+10	1	-1E+10	1	-1E+10	1
4902549	108	C	08/10/2023	20:02	-132.493	47.616	0	528.00	0	4.1810	0	34.0810	0	27.040	0	522.921	0	27.1	4	8.6	4	-1E+10	1	-1E+10	1	-1E+10	1	-1E+10	1	-1E+10	1	-1E+10	1
4902549	108	C	08/10/2023	20:02	-132.493	47.616	0	533.20	0	4.1610	0	34.0870	0	27.047	0	528.064	0	26.1	4	8.3	4	-1E+10	1	-1E+10	1	-1E+10	1	-1E+10	1	-1E+10	1	-1E+10	1
4902549	108	C	08/10/2023	20:02	-132.493	47.616	0	538.00	0	4.1500	0	34.0910	0	27.052	0	532.812	0	25.1	4	8.0	4	-1E+10	1	-1E+10	1	-1E+10	1	-1E+10	1	-1E+10	1	-1E+10	1
4902549	108	C	08/10/2023	20:02	-132.493	47.616	0	542.80	0	4.1300	0	34.0970	0	27.059	0	537.559	0	24.2	4	7.6	4	-1E+10	1	-1E+10	1	-1E+10	1	-1E+10	1	-1E+10	1	-1E+10	1
4902549	108	C	08/10/2023	20:02	-132.493	47.616	0	547.70	0	4.1160	0	34.1030	0	27.065	0	542.405	0	23.3	4	7.4	4	-1E+10	1	-1E+10	1	-1E+10	1	-1E+10	1	-1E+10	1	-1E+10	1
4902549	108	C	08/10/2023	20:02	-132.493	47.616	0	552.70	0	4.0960	0	34.1080	0	27.071	0	547.350	0	22.3	4	7.1	4	-1E+10	1	-1E+10	1	-1E+10	1	-1E+10	1	-1E+10	1	-1E+10	1
4902549	108	C	08/10/2023	20:02	-132.493	47.616	0	557.80	0	4.0840	0	34.1140	0	27.077	0	552.394	0	21.5	4	6.8	4	-1E+10	1	-1E+10	1	-1E+10	1	-1E+10	1	-1E+10	1	-1E+10	1
4902549	108	C	08/10/2023	20:02	-132.493	47.616	0	563.00	0	4.0790	0	34.1210	0	27.083	0	557.537	0	20.8	4	6.6	4	-1E+10	1	-1E+10	1	-1E+10	1	-1E+10	1	-1E+10	1	-1E+10	1
4902549	108	C	08/10/2023	20:02	-132.493	47.616	0	568.20	0	4.0740	0	34.1250	0	27.087	0	562.680	0	20.4	4	6.4	4	-1E+10	1	-1E+10	1	-1E+10	1	-1E+10	1	-1E+10	1	-1E+10	1
4902549	108	C	08/10/2023	20:02	-132.493	47.616	0	573.10	0	4.0710	0	34.1260	0	27.088	0	567.525	0	19.9	4	6.3	4	-1E+10	1	-1E+10	1	-1E+10	1	-1E+10	1	-1E+10	1	-1E+10	1
4902549	108	C	08/10/2023	20:02	-132.493	47.616	0	577.90	0	4.0460	0	34.1320	0	27.095	0	572.272	0	19.6	4	6.2	4	-1E+10	1	-1E+10	1	-1E+10	1	-1E+10	1	-1E+10	1	-1E+10	1
4902549	108	C	08/10/2023	20:02	-132.493	47.616	0	582.90	0	4.0170	0	34.1360	0	27.102	0	577.216	0	19.1	4	6.0	4	-1E+10	1	-1E+10	1	-1E+10	1	-1E+10	1	-1E+10	1	-1E+10	1
4902549	108	C	08/10/2023	20:02	-132.493	47.616	0	588.00	0	3.9920	0	34.1420	0	27.109	0	582.259	0	18.7	4	5.9	4	-1E+10	1	-1E+10	1	-1E+10	1	-1E+10	1	-1E+10	1	-1E+10	1
4902549	108	C	08/10/2023	20:02	-132.493	47.616	0	593.10	0	3.9890	0	34.1450	0	27.112	0	587.302	0	18.3	4	5.8	4	-1E+10	1	-1E+10	1	-1E+10	1	-1E+10	1	-1E+10	1	-1E+10	1
4902549	108	C	08/10/2023	20:02	-132.493	47.616	0	597.70	0	3.9780	0	34.1480	0	27.115	0	591.851	0	18.1	4	5.7	4	-1E+10	1	-1E+10	1	-1E+10	1	-1E+10	1	-1E+10	1	-1E+10	1
4902549	108	C	08/10/2023	20:02	-132.493	47.616	0	603.00	0	3.9690	0	34.1490	0	27.117	0	597.091	0	17.7	4	5.6	4	-1E+10	1	-1E+10	1	-1E+10	1	-1E+10	1	-1E+10	1	-1E+10	1
4902549	108	C	08/10/2023	20:02	-132.493	47.616	0	608.30	0	3.9530	0	34.1540	0	27.123	0	602.332	0	17.3	4	5.4	4	-1E+10	1	-1E+10	1	-1E+10	1	-1E+10	1	-1E+10	1	-1E+10	1
4902549	108	C	08/10/2023	20:02	-132.493	47.616	0	613.10	0	3.9450	0	34.1570	0	27.126	0	607.078	0	16.9	4	5.3	4	-1E+10	1	-1E+10	1	-1E+10	1	-1E+10	1	-1E+10	1	-1E+10	1
4902549	108	C	08/10/2023	20:02	-132.493	47.616	0	618.10	0	3.9270	0	34.1600	0	27.130	0	612.021	0	16.4	4	5.2	4	-1E+10	1	-1E+10	1	-1E+10	1	-1E+10	1	-1E+10	1	-1E+10	1
4902549	108	C	08/10/2023	20:02	-132.493	47.616	0	623.20	0	3.9160	0	34.1650	0	27.135	0	617.064	0	15.9	4	5.0	4	-1E+10	1	-1E+10	1	-1E+10	1	-1E+10	1	-1E+10	1	-1E+10	1
4902549	108	C	08/10/2023	20:02	-132.493	47.616	0	627.90	0	3.9170	0	34.1690	0	27.138	0	621.710	0	15.6	4	4.9	4	-1E+10	1	-1E+10	1	-1E+10	1	-1E+10	1	-1E+10	1	-1E+10	1
4902549	108	C	08/10/2023	20:02	-132.493	47.616	0	632.50	0	3.9030	0	34.1720	0	27.142	0	626.258	0	15.4	4	4.8	4	-1E+10	1	-1E+10	1	-1E+10	1	-1E+10	1	-1E+10	1	-1E+10	1
4902549	108	C	08/10/2023	20:02	-132.493	47.616	0	637.90	0	3.8860	0	34.1740	0	27.145	0	631.597	0	15.1	4	4.7	4	-1E+10	1	-1E+10	1	-1E+10	1	-1E+10	1	-1E+10	1	-1E+10	1
4902549	108	C	08/10/2023	20:02	-132.493	47.616	0	643.10	0	3.8780	0	34.1780	0	27.149	0	636.737	0	14.6	4	4.6	4	-1E+10	1	-1E+10	1	-1E+10	1	-1E+10	1	-1E+10	1	-1E+10	1
4902549	108	C	08/10/2023	20:02	-132.493	47.616	0	647.90	0	3.8650	0	34.1820	0	27.154	0	641.482	0	14.4	4	4.5	4	-1E+10	1	-1E+10	1	-1E+10	1	-1E+10	1	-1E+10	1	-1E+10	1
4902549	108	C	08/10/2023	20:02	-132.493	47.616	0	652.80	0	3.8450	0	34.1850	0	27.158	0	646.326	0	14.1	4	4.4	4	-1E+10	1	-1E+10	1	-1E+10	1	-1E+10	1	-1E+10	1	-1E+10	1
4902549	108	C	08/10/2023	20:02	-132.493	47.616	0	657.90	0	3.8310	0	34.1890	0	27.163	0	651.368	0	13.8	4	4.3	4	-1E+10	1	-1E+10	1	-1E+10	1	-1E+10	1	-1E+10	1	-1E+10	1
4902549	108	C	08/10/2023	20:02	-132.493	47.616	0	663.00	0	3.8160	0	34.1930	0	27.168	0	656.409	0	13.5	4	4.2	4	-1E+10	1	-1E+10	1	-1E+10	1	-1E+10	1	-1E+10	1	-1E+10	1
4902549	108	C	08/10/2023	20:02	-132.493	47.616	0	667.80	0	3.8060	0	34.1960	0	27.171	0	661.154	0	13.3	4	4.2	4	-1E+10	1	-1E+10	1	-1E+10	1	-1E+10	1	-1E+10	1	-1E+10	1
4902549	108	C	08/10/2023	20:02	-132.493	47.616	0	672.70	0	3.7980	0	34.1980	0	27.174	0	665.997	0	13.1	4	4.1	4	-1E+10	1	-1E+10	1	-1E+10	1	-1E+10	1	-1E+10	1	-1E+10	1
4902549	108	C	08/10/2023	20:02	-132.493	47.616	0	678.00	0	3.7870	0	34.2010	0	27.177	0	671.236	0	12.9	4	4.0	4	-1E+10	1	-1E+10	1	-1E+10	1	-1E+10	1	-1E+10	1	-1E+10	1
4902549	108	C	08/10/2023	20:02	-132.493	47.616	0	683.00	0	3.7740	0	34.2050	0	27.182	0	676.178	0	12.6	4	4.0	4	-1E+10	1	-1E+10	1	-1E+10	1	-1E+10	1	-1E+10	1	-1E+10	1
4902549	108	C	08/10/2023	20:02	-132.493	47.616	0	687.90	0	3.7690	0	34.2070	0	27.184	0	681.021	0	12.3	4	3.9	4	-1E+10	1	-1E+10	1	-1E+10	1	-1E+10	1	-1E+10	1	-1E+10	1
4902549	108	C	08/10/2023	20:02	-132.493	47.616	0	692.90	0	3.7580	0	34.2110	0	27.188	0	685.963	0	12.1	4	3.8	4	-1E+10	1	-1E+10	1	-1E+10	1	-1E+10	1	-1E+10	1	-1E+10	1
4902549	108	C	08/10/2023	20:02	-132.493	47.616	0	697.80	0	3.7490	0	34.2140	0	27.191	0	690.805	0	12.0	4	3.8	4	-1E+10	1	-1E+10	1	-1E+10	1	-1E+10	1	-1E+10	1	-1E+10	1
4902549	108	C	08/10/2023	20:02	-132.493	47.616	0	703.10	0	3.7350	0	34.2160	0	27.194	0	696.043	0	11.8	4	3.7	4	-1E+10	1	-1E+10	1	-1E+10	1	-1E+10	1	-1E+10	1	-1E+10	1
4902549	108	C	08/10/2023	20:02	-132.493	47.616	0	708.10	0	3.7140	0	34.2190	0	27.199	0	700.985	0	11.5	4	3.6	4	-1E+10	1	-1E+10	1	-1E+10	1	-1E+10	1	-1E+10	1	-1E+10	1
4902549	108	C	08/10/2023	20:02	-132.493	47.616	0	712.80	0	3.7080	0	34.2230	0	27.203	0	705.630	0	11.2	4	3.5	4	-1E+10	1	-1E+10	1	-1E+10	1	-1E+10	1	-1E+10	1	-1E+10	1
4902549	108	C	08/10/2023	20:02	-132.493	47.616	0	717.80	0	3.7020	0	34.2260	0	27.206	0	710.571	0	11.0	4	3.4	4	-1E+10	1	-1E+10	1	-1E+10	1	-1E+10	1	-1E+10	1	-1E+10	1
4902549	108	C	08/10/2023	20:02	-132.493	47.616	0	722.90	0	3.6920	0	34.2290	0	27.209	0	715.611	0	10.8	4	3.4	4	-1E+10	1	-1E+10	1	-1E+10	1	-1E+10	1	-1E+10	1	-1E+10	1
4902549	108	C	08/10/2023	20:02	-132.493	47.616	0	727.90	0	3.6820	0	34.2320	0	27.212	0	720.552	0	10.6	4	3.3	4	-1E+10	1	-1E+10	1	-1E+10	1	-1E+10	1	-1E+10	1	-1E+10	1
4902549	108	C	08/10/2023	20:02	-132.493	47.616	0	733.00	0	3.6710	0	34.2360	0	27.217	0	725.591	0	10.4	4	3.3	4	-1E+10	1	-1E+10	1	-1E+10	1	-1E+10	1	-1E+10	1	-1E+10	1
4902549	108	C	08/10/2023	20:02	-132.493	47.616	0	738.10	0	3.6590	0	34.2390	0	27.220	0	730.631	0	10.2	4	3.2	4	-1E+10	1	-1E+10	1	-1E+10	1	-1E+10	1	-1E+10	1	-1E+10	1
4902549	108	C	08/10/2023	20:02	-132.493	47.616	0	743.10	0	3.6470	0	34.2420	0	27.224	0	735.572	0	10.0	4	3.1	4	-1E+10	1	-1E+10	1	-1E+10	1	-1E+10	1	-1E+10	1	-1E+10	1
4902549	108	C	08/10/2023	20:02	-132.493	47.616	0	748.10	0	3.6410	0	34.2430	0	27.225	0	740.512	0	9.7	4	3.0	4	-1E+10	1	-1E+10	1	-1E+10	1	-1E+10	1	-1E+10	1	-1E+10	1
4902549	108	C	08/10/2023	20:02	-132.493	47.616	0	753.20	0	3.6310	0	34.2480	0	27.230	0	745.551	0	9.5	4	3.0	4	-1E+10	1	-1E+10	1	-1E+10	1	-1E+10	1	-1E+10	1	-1E+10	1
4902549	108	C	08/10/2023	20:02	-132.493	47.616	0	757.80	0	3.6250	0	34.2530	0	27.235	0	750.096	0	9.3	4	2.9	4	-1E+10	1	-1E+10	1	-1E+10	1	-1E+10	1	-1E+10	1	-1E+10	1
4902549	108	C	08/10/2023	20:02	-132.493	47.616	0	762.80	0	3.6170	0	34.2550	0	27.237	0	755.036	0	9.2	4	2.9	4	-1E+10	1	-1E+10	1	-1E+10	1	-1E+10	1	-1E+10	1	-1E+10	1
4902549	108	C	08/10/2023	20:02	-132.493	47.616	0	767.90	0	3.6030	0	34.2560	0	27.240	0	760.075	0	9.1	4	2.8	4	-1E+10	1	-1E+10	1	-1E+10	1	-1E+10	1	-1E+10	1	-1E+10	1
4902549	108	C	08/10/2023	20:02	-132.493	47.616	0	772.90	0	3.5940	0	34.2590	0	27.243	0	765.015	0	8.8	4	2.8	4	-1E+10	1	-1E+10	1	-1E+10	1	-1E+10	1	-1E+10	1	-1E+10	1
4902549	108	C	08/10/2023	20:02	-132.493	47.616	0	777.90	0	3.5920	0	34.2620	0	27.246	0	769.955	0	8.5	4	2.7	4	-1E+10	1	-1E+10	1	-1E+10	1	-1E+10	1	-1E+10	1	-1E+10	1
4902549	108	C	08/10/2023	20:02	-132.493	47.616	0	783.00	0	3.5870	0	34.2670	0	27.250	0	774.993	0	8.2	4	2.6	4	-1E+10	1	-1E+10	1	-1E+10	1	-1E+10	1	-1E+10	1	-1E+10	1
4902549	108	C	08/10/2023	20:02	-132.493	47.616	0	788.10	0	3.5990	0	34.2720	0	27.253	0	780.032	0	7.9	4	2.5	4	-1E+10	1	-1E+10	1	-1E+10	1	-1E+10	1	-1E+10	1	-1E+10	1
4902549	108	C	08/10/2023	20:02	-132.493	47.616	0	792.80	0	3.5930	0	34.2750	0	27.256	0	784.675	0	7.6	4	2.4	4	-1E+10	1	-1E+10	1	-1E+10	1	-1E+10	1	-1E+10	1	-1E+10	1
4902549	108	C	08/10/2023	20:02	-132.493	47.616	0	797.60	0	3.5930	0	34.2800	0	27.260	0	789.416	0	7.4	4	2.3	4	-1E+10	1	-1E+10	1	-1E+10	1	-1E+10	1	-1E+10	1	-1E+10	1
4902549	108	C	08/10/2023	20:02	-132.493	47.616	0	802.90	0	3.5900	0	34.2830	0	27.263	0	794.652	0	7.3	4	2.3	4	-1E+10	1	-1E+10	1	-1E+10	1	-1E+10	1	-1E+10	1	-1E+10	1
4902549	108	C	08/10/2023	20:02	-132.493	47.616	0	808.20	0	3.5860	0	34.2850	0	27.265	0	799.887	0	7.3	4	2.3	4	-1E+10	1	-1E+10	1	-1E+10	1	-1E+10	1	-1E+10	1	-1E+10	1
4902549	108	C	08/10/2023	20:02	-132.493	47.616	0	813.10	0	3.5830	0	34.2880	0	27.267	0	804.727	0	7.2	4	2.3	4	-1E+10	1	-1E+10	1	-1E+10	1	-1E+10	1	-1E+10	1	-1E+10	1
4902549	108	C	08/10/2023	20:02	-132.493	47.616	0	818.00	0	3.5770	0	34.2900	0	27.270	0	809.568	0	7.3	4	2.3	4	-1E+10	1	-1E+10	1	-1E+10	1	-1E+10	1	-1E+10	1	-1E+10	1
4902549	108	C	08/10/2023	20:02	-132.493	47.616	0	823.00	0	3.5580	0	34.2910	0	27.272	0	814.506	0	7.4	4	2.3	4	-1E+10	1	-1E+10	1	-1E+10	1	-1E+10	1	-1E+10	1	-1E+10	1
4902549	108	C	08/10/2023	20:02	-132.493	47.616	0	828.00	0	3.5410	0	34.2920	0	27.275	0	819.445	0	7.3	4	2.3	4	-1E+10	1	-1E+10	1	-1E+10	1	-1E+10	1	-1E+10	1	-1E+10	1
4902549	108	C	08/10/2023	20:02	-132.493	47.616	0	833.00	0	3.5440	0	34.2970	0	27.278	0	824.383	0	7.3	4	2.3	4	-1E+10	1	-1E+10	1	-1E+10	1	-1E+10	1	-1E+10	1	-1E+10	1
4902549	108	C	08/10/2023	20:02	-132.493	47.616	0	838.00	0	3.5220	0	34.3010	0	27.284	0	829.322	0	7.6	4	2.4	4	-1E+10	1	-1E+10	1	-1E+10	1	-1E+10	1	-1E+10	1	-1E+10	1
4902549	108	C	08/10/2023	20:02	-132.493	47.616	0	843.00	0	3.5090	0	34.3030	0	27.287	0	834.260	0	8.3	4	2.6	4	-1E+10	1	-1E+10	1	-1E+10	1	-1E+10	1	-1E+10	1	-1E+10	1
4902549	108	C	08/10/2023	20:02	-132.493	47.616	0	848.00	0	3.4210	0	34.2960	0	27.289	0	839.198	0	8.8	4	2.7	4	-1E+10	1	-1E+10	1	-1E+10	1	-1E+10	1	-1E+10	1	-1E+10	1
4902549	108	C	08/10/2023	20:02	-132.493	47.616	0	853.00	0	3.3920	0	34.2950	0	27.291	0	844.136	0	8.5	4	2.7	4	-1E+10	1	-1E+10	1	-1E+10	1	-1E+10	1	-1E+10	1	-1E+10	1
4902549	108	C	08/10/2023	20:02	-132.493	47.616	0	858.00	0	3.4130	0	34.3010	0	27.294	0	849.074	0	8.2	4	2.5	4	-1E+10	1	-1E+10	1	-1E+10	1	-1E+10	1	-1E+10	1	-1E+10	1
4902549	108	C	08/10/2023	20:02	-132.493	47.616	0	863.10	0	3.4000	0	34.3040	0	27.298	0	854.110	0	8.1	4	2.5	4	-1E+10	1	-1E+10	1	-1E+10	1	-1E+10	1	-1E+10	1	-1E+10	1
4902549	108	C	08/10/2023	20:02	-132.493	47.616	0	868.10	0	3.3820	0	34.3040	0	27.300	0	859.048	0	7.7	4	2.4	4	-1E+10	1	-1E+10	1	-1E+10	1	-1E+10	1	-1E+10	1	-1E+10	1
4902549	108	C	08/10/2023	20:02	-132.493	47.616	0	873.30	0	3.4290	0	34.3160	0	27.305	0	864.183	0	7.5	4	2.3	4	-1E+10	1	-1E+10	1	-1E+10	1	-1E+10	1	-1E+10	1	-1E+10	1
4902549	108	C	08/10/2023	20:02	-132.493	47.616	0	877.90	0	3.4080	0	34.3170	0	27.308	0	868.726	0	7.7	4	2.4	4	-1E+10	1	-1E+10	1	-1E+10	1	-1E+10	1	-1E+10	1	-1E+10	1
4902549	108	C	08/10/2023	20:02	-132.493	47.616	0	882.90	0	3.3730	0	34.3150	0	27.309	0	873.663	0	8.0	4	2.5	4	-1E+10	1	-1E+10	1	-1E+10	1	-1E+10	1	-1E+10	1	-1E+10	1
4902549	108	C	08/10/2023	20:02	-132.493	47.616	0	888.00	0	3.3400	0	34.3140	0	27.312	0	878.699	0	8.1	4	2.5	4	-1E+10	1	-1E+10	1	-1E+10	1	-1E+10	1	-1E+10	1	-1E+10	1
4902549	108	C	08/10/2023	20:02	-132.493	47.616	0	892.70	0	3.3190	0	34.3160	0	27.315	0	883.340	0	8.1	4	2.5	4	-1E+10	1	-1E+10	1	-1E+10	1	-1E+10	1	-1E+10	1	-1E+10	1
4902549	108	C	08/10/2023	20:02	-132.493	47.616	0	897.90	0	3.2930	0	34.3180	0	27.319	0	888.474	0	8.0	4	2.5	4	-1E+10	1	-1E+10	1	-1E+10	1	-1E+10	1	-1E+10	1	-1E+10	1
4902549	108	C	08/10/2023	20:02	-132.493	47.616	0	903.20	0	3.2890	0	34.3210	0	27.322	0	893.707	0	7.8	4	2.4	4	-1E+10	1	-1E+10	1	-1E+10	1	-1E+10	1	-1E+10	1	-1E+10	1
4902549	108	C	08/10/2023	20:02	-132.493	47.616	0	908.20	0	3.2890	0	34.3240	0	27.325	0	898.644	0	7.8	4	2.4	4	-1E+10	1	-1E+10	1	-1E+10	1	-1E+10	1	-1E+10	1	-1E+10	1
4902549	108	C	08/10/2023	20:02	-132.493	47.616	0	913.30	0	3.2710	0	34.3260	0	27.328	0	903.679	0	7.8	4	2.4	4	-1E+10	1	-1E+10	1	-1E+10	1	-1E+10	1	-1E+10	1	-1E+10	1
4902549	108	C	08/10/2023	20:02	-132.493	47.616	0	917.90	0	3.2530	0	34.3270	0	27.330	0	908.221	0	7.7	4	2.4	4	-1E+10	1	-1E+10	1	-1E+10	1	-1E+10	1	-1E+10	1	-1E+10	1
4902549	108	C	08/10/2023	20:02	-132.493	47.616	0	922.80	0	3.2450	0	34.3290	0	27.333	0	913.058	0	7.7	4	2.4	4	-1E+10	1	-1E+10	1	-1E+10	1	-1E+10	1	-1E+10	1	-1E+10	1
4902549	108	C	08/10/2023	20:02	-132.493	47.616	0	927.80	0	3.2380	0	34.3300	0	27.334	0	917.995	0	7.6	4	2.4	4	-1E+10	1	-1E+10	1	-1E+10	1	-1E+10	1	-1E+10	1	-1E+10	1
4902549	108	C	08/10/2023	20:02	-132.493	47.616	0	932.70	0	3.2180	0	34.3300	0	27.336	0	922.832	0	7.3	4	2.3	4	-1E+10	1	-1E+10	1	-1E+10	1	-1E+10	1	-1E+10	1	-1E+10	1
4902549	108	C	08/10/2023	20:02	-132.493	47.616	0	937.80	0	3.2500	0	34.3400	0	27.341	0	927.867	0	6.7	4	2.1	4	-1E+10	1	-1E+10	1	-1E+10	1	-1E+10	1	-1E+10	1	-1E+10	1
4902549	108	C	08/10/2023	20:02	-132.493	47.616	0	942.90	0	3.2770	0	34.3490	0	27.346	0	932.902	0	6.6	4	2.0	4	-1E+10	1	-1E+10	1	-1E+10	1	-1E+10	1	-1E+10	1	-1E+10	1
4902549	108	C	08/10/2023	20:02	-132.493	47.616	0	948.00	0	3.2780	0	34.3500	0	27.347	0	937.936	0	6.5	4	2.0	4	-1E+10	1	-1E+10	1	-1E+10	1	-1E+10	1	-1E+10	1	-1E+10	1
4902549	108	C	08/10/2023	20:02	-132.493	47.616	0	953.10	0	3.2840	0	34.3560	0	27.351	0	942.970	0	6.4	4	2.0	4	-1E+10	1	-1E+10	1	-1E+10	1	-1E+10	1	-1E+10	1	-1E+10	1
4902549	108	C	08/10/2023	20:02	-132.493	47.616	0	958.30	0	3.2790	0	34.3590	0	27.354	0	948.103	0	6.4	4	2.0	4	-1E+10	1	-1E+10	1	-1E+10	1	-1E+10	1	-1E+10	1	-1E+10	1
4902549	108	C	08/10/2023	20:02	-132.493	47.616	0	963.00	0	3.2740	0	34.3610	0	27.356	0	952.743	0	6.4	4	2.0	4	-1E+10	1	-1E+10	1	-1E+10	1	-1E+10	1	-1E+10	1	-1E+10	1
4902549	108	C	08/10/2023	20:02	-132.493	47.616	0	967.80	0	3.2600	0	34.3630	0	27.359	0	957.481	0	6.5	4	2.0	4	-1E+10	1	-1E+10	1	-1E+10	1	-1E+10	1	-1E+10	1	-1E+10	1
4902549	108	C	08/10/2023	20:02	-132.493	47.616	0	972.60	0	3.2490	0	34.3650	0	27.362	0	962.218	0	6.5	4	2.0	4	-1E+10	1	-1E+10	1	-1E+10	1	-1E+10	1	-1E+10	1	-1E+10	1
4902549	108	C	08/10/2023	20:02	-132.493	47.616	0	977.90	0	3.2380	0	34.3650	0	27.363	0	967.450	0	6.6	4	2.0	4	-1E+10	1	-1E+10	1	-1E+10	1	-1E+10	1	-1E+10	1	-1E+10	1
4902549	108	C	08/10/2023	20:02	-132.493	47.616	0	983.20	0	3.2180	0	34.3670	0	27.366	0	972.681	0	6.6	4	2.1	4	-1E+10	1	-1E+10	1	-1E+10	1	-1E+10	1	-1E+10	1	-1E+10	1
4902549	108	C	08/10/2023	20:02	-132.493	47.616	0	988.00	0	3.2060	0	34.3680	0	27.368	0	977.418	0	6.7	4	2.1	4	-1E+10	1	-1E+10	1	-1E+10	1	-1E+10	1	-1E+10	1	-1E+10	1
4902549	108	C	08/10/2023	20:02	-132.493	47.616	0	992.90	0	3.1960	0	34.3680	0	27.369	0	982.254	0	6.7	4	2.1	4	-1E+10	1	-1E+10	1	-1E+10	1	-1E+10	1	-1E+10	1	-1E+10	1
4902549	108	C	08/10/2023	20:02	-132.493	47.616	0	997.80	0	3.1830	0	34.3700	0	27.372	0	987.090	0	6.7	4	2.1	4	-1E+10	1	-1E+10	1	-1E+10	1	-1E+10	1	-1E+10	1	-1E+10	1
4902549	108	C	08/10/2023	20:02	-132.493	47.616	0	1005.20	0	3.1680	0	34.3720	0	27.375	0	994.393	0	6.8	4	2.1	4	-1E+10	1	-1E+10	1	-1E+10	1	-1E+10	1	-1E+10	1	-1E+10	1
4902549	108	C	08/10/2023	20:02	-132.493	47.616	0	1015.20	0	3.1340	0	34.3740	0	27.380	0	1004.262	0	6.9	4	2.1	4	-1E+10	1	-1E+10	1	-1E+10	1	-1E+10	1	-1E+10	1	-1E+10	1
4902549	108	C	08/10/2023	20:02	-132.493	47.616	0	1025.10	0	3.1080	0	34.3750	0	27.383	0	1014.031	0	7.0	4	2.2	4	-1E+10	1	-1E+10	1	-1E+10	1	-1E+10	1	-1E+10	1	-1E+10	1
4902549	108	C	08/10/2023	20:02	-132.493	47.616	0	1035.10	0	3.0880	0	34.3800	0	27.389	0	1023.899	0	7.0	4	2.2	4	-1E+10	1	-1E+10	1	-1E+10	1	-1E+10	1	-1E+10	1	-1E+10	1
4902549	108	C	08/10/2023	20:02	-132.493	47.616	0	1045.10	0	3.0760	0	34.3810	0	27.391	0	1033.766	0	7.1	4	2.2	4	-1E+10	1	-1E+10	1	-1E+10	1	-1E+10	1	-1E+10	1	-1E+10	1
4902549	108	C	08/10/2023	20:02	-132.493	47.616	0	1055.10	0	3.0560	0	34.3830	0	27.394	0	1043.632	0	7.2	4	2.2	4	-1E+10	1	-1E+10	1	-1E+10	1	-1E+10	1	-1E+10	1	-1E+10	1
4902549	108	C	08/10/2023	20:02	-132.493	47.616	0	1065.30	0	3.0250	0	34.3850	0	27.399	0	1053.696	0	7.2	4	2.2	4	-1E+10	1	-1E+10	1	-1E+10	1	-1E+10	1	-1E+10	1	-1E+10	1
4902549	108	C	08/10/2023	20:02	-132.493	47.616	0	1075.40	0	3.0120	0	34.3870	0	27.401	0	1063.660	0	7.3	4	2.3	4	-1E+10	1	-1E+10	1	-1E+10	1	-1E+10	1	-1E+10	1	-1E+10	1
4902549	108	C	08/10/2023	20:02	-132.493	47.616	0	1085.50	0	2.9840	0	34.3890	0	27.406	0	1073.624	0	7.4	4	2.3	4	-1E+10	1	-1E+10	1	-1E+10	1	-1E+10	1	-1E+10	1	-1E+10	1
4902549	108	C	08/10/2023	20:02	-132.493	47.616	0	1095.30	0	2.9530	0	34.3890	0	27.408	0	1083.292	0	7.5	4	2.3	4	-1E+10	1	-1E+10	1	-1E+10	1	-1E+10	1	-1E+10	1	-1E+10	1
4902549	108	C	08/10/2023	20:02	-132.493	47.616	0	1105.20	0	2.9330	0	34.3920	0	27.413	0	1093.058	0	7.6	4	2.3	4	-1E+10	1	-1E+10	1	-1E+10	1	-1E+10	1	-1E+10	1	-1E+10	1
4902549	108	C	08/10/2023	20:02	-132.493	47.616	0	1115.60	0	2.9090	0	34.3970	0	27.419	0	1103.316	0	7.7	4	2.4	4	-1E+10	1	-1E+10	1	-1E+10	1	-1E+10	1	-1E+10	1	-1E+10	1
4902549	108	C	08/10/2023	20:02	-132.493	47.616	0	1125.60	0	2.8820	0	34.4010	0	27.424	0	1113.179	0	7.9	4	2.4	4	-1E+10	1	-1E+10	1	-1E+10	1	-1E+10	1	-1E+10	1	-1E+10	1
4902549	108	C	08/10/2023	20:02	-132.493	47.616	0	1135.60	0	2.8650	0	34.4040	0	27.428	0	1123.042	0	8.0	4	2.5	4	-1E+10	1	-1E+10	1	-1E+10	1	-1E+10	1	-1E+10	1	-1E+10	1
4902549	108	C	08/10/2023	20:02	-132.493	47.616	0	1145.70	0	2.8520	0	34.4070	0	27.432	0	1133.003	0	8.1	4	2.5	4	-1E+10	1	-1E+10	1	-1E+10	1	-1E+10	1	-1E+10	1	-1E+10	1
4902549	108	C	08/10/2023	20:02	-132.493	47.616	0	1155.70	0	2.8410	0	34.4110	0	27.436	0	1142.865	0	8.2	4	2.5	4	-1E+10	1	-1E+10	1	-1E+10	1	-1E+10	1	-1E+10	1	-1E+10	1
4902549	108	C	08/10/2023	20:02	-132.493	47.616	0	1165.50	0	2.8310	0	34.4140	0	27.440	0	1152.530	0	8.3	4	2.5	4	-1E+10	1	-1E+10	1	-1E+10	1	-1E+10	1	-1E+10	1	-1E+10	1
4902549	108	C	08/10/2023	20:02	-132.493	47.616	0	1175.50	0	2.8200	0	34.4170	0	27.443	0	1162.391	0	8.4	4	2.6	4	-1E+10	1	-1E+10	1	-1E+10	1	-1E+10	1	-1E+10	1	-1E+10	1
4902549	108	C	08/10/2023	20:02	-132.493	47.616	0	1185.30	0	2.8050	0	34.4200	0	27.447	0	1172.054	0	8.6	4	2.6	4	-1E+10	1	-1E+10	1	-1E+10	1	-1E+10	1	-1E+10	1	-1E+10	1
4902549	108	C	08/10/2023	20:02	-132.493	47.616	0	1195.00	0	2.7880	0	34.4240	0	27.451	0	1181.619	0	8.8	4	2.7	4	-1E+10	1	-1E+10	1	-1E+10	1	-1E+10	1	-1E+10	1	-1E+10	1
4902549	108	C	08/10/2023	20:02	-132.493	47.616	0	1205.10	0	2.7770	0	34.4270	0	27.455	0	1191.577	0	8.9	4	2.7	4	-1E+10	1	-1E+10	1	-1E+10	1	-1E+10	1	-1E+10	1	-1E+10	1
4902549	108	C	08/10/2023	20:02	-132.493	47.616	0	1215.40	0	2.7670	0	34.4290	0	27.457	0	1201.732	0	9.1	4	2.8	4	-1E+10	1	-1E+10	1	-1E+10	1	-1E+10	1	-1E+10	1	-1E+10	1
4902549	108	C	08/10/2023	20:02	-132.493	47.616	0	1225.70	0	2.7510	0	34.4320	0	27.461	0	1211.886	0	9.3	4	2.9	4	-1E+10	1	-1E+10	1	-1E+10	1	-1E+10	1	-1E+10	1	-1E+10	1
4902549	108	C	08/10/2023	20:02	-132.493	47.616	0	1235.30	0	2.7390	0	34.4350	0	27.465	0	1221.350	0	9.4	4	2.9	4	-1E+10	1	-1E+10	1	-1E+10	1	-1E+10	1	-1E+10	1	-1E+10	1
4902549	108	C	08/10/2023	20:02	-132.493	47.616	0	1245.10	0	2.7290	0	34.4370	0	27.467	0	1231.011	0	9.6	4	3.0	4	-1E+10	1	-1E+10	1	-1E+10	1	-1E+10	1	-1E+10	1	-1E+10	1
4902549	108	C	08/10/2023	20:02	-132.493	47.616	0	1255.40	0	2.7190	0	34.4400	0	27.471	0	1241.164	0	9.9	4	3.0	4	-1E+10	1	-1E+10	1	-1E+10	1	-1E+10	1	-1E+10	1	-1E+10	1
4902549	108	C	08/10/2023	20:02	-132.493	47.616	0	1265.40	0	2.7090	0	34.4420	0	27.473	0	1251.021	0	10.1	4	3.1	4	-1E+10	1	-1E+10	1	-1E+10	1	-1E+10	1	-1E+10	1	-1E+10	1
4902549	108	C	08/10/2023	20:02	-132.493	47.616	0	1275.30	0	2.6970	0	34.4450	0	27.477	0	1260.779	0	10.4	4	3.2	4	-1E+10	1	-1E+10	1	-1E+10	1	-1E+10	1	-1E+10	1	-1E+10	1
4902549	108	C	08/10/2023	20:02	-132.493	47.616	0	1285.10	0	2.6840	0	34.4470	0	27.479	0	1270.438	0	10.6	4	3.3	4	-1E+10	1	-1E+10	1	-1E+10	1	-1E+10	1	-1E+10	1	-1E+10	1
4902549	108	C	08/10/2023	20:02	-132.493	47.616	0	1295.20	0	2.6730	0	34.4490	0	27.482	0	1280.392	0	10.9	4	3.3	4	-1E+10	1	-1E+10	1	-1E+10	1	-1E+10	1	-1E+10	1	-1E+10	1
4902549	108	C	08/10/2023	20:02	-132.493	47.616	0	1305.30	0	2.6620	0	34.4520	0	27.485	0	1290.345	0	11.2	4	3.4	4	-1E+10	1	-1E+10	1	-1E+10	1	-1E+10	1	-1E+10	1	-1E+10	1
4902549	108	C	08/10/2023	20:02	-132.493	47.616	0	1315.40	0	2.6460	0	34.4550	0	27.489	0	1300.299	0	11.6	4	3.5	4	-1E+10	1	-1E+10	1	-1E+10	1	-1E+10	1	-1E+10	1	-1E+10	1
4902549	108	C	08/10/2023	20:02	-132.493	47.616	0	1325.40	0	2.6320	0	34.4580	0	27.493	0	1310.153	0	11.8	4	3.6	4	-1E+10	1	-1E+10	1	-1E+10	1	-1E+10	1	-1E+10	1	-1E+10	1
4902549	108	C	08/10/2023	20:02	-132.493	47.616	0	1335.40	0	2.6190	0	34.4600	0	27.496	0	1320.006	0	12.1	4	3.7	4	-1E+10	1	-1E+10	1	-1E+10	1	-1E+10	1	-1E+10	1	-1E+10	1
4902549	108	C	08/10/2023	20:02	-132.493	47.616	0	1345.40	0	2.6050	0	34.4620	0	27.499	0	1329.860	0	12.4	4	3.8	4	-1E+10	1	-1E+10	1	-1E+10	1	-1E+10	1	-1E+10	1	-1E+10	1
4902549	108	C	08/10/2023	20:02	-132.493	47.616	0	1355.50	0	2.5860	0	34.4640	0	27.502	0	1339.811	0	12.7	4	3.9	4	-1E+10	1	-1E+10	1	-1E+10	1	-1E+10	1	-1E+10	1	-1E+10	1
4902549	108	C	08/10/2023	20:02	-132.493	47.616	0	1365.50	0	2.5720	0	34.4660	0	27.505	0	1349.663	0	13.0	4	4.0	4	-1E+10	1	-1E+10	1	-1E+10	1	-1E+10	1	-1E+10	1	-1E+10	1
4902549	108	C	08/10/2023	20:02	-132.493	47.616	0	1375.20	0	2.5590	0	34.4670	0	27.507	0	1359.219	0	13.3	4	4.1	4	-1E+10	1	-1E+10	1	-1E+10	1	-1E+10	1	-1E+10	1	-1E+10	1
4902549	108	C	08/10/2023	20:02	-132.493	47.616	0	1385.40	0	2.5480	0	34.4700	0	27.510	0	1369.268	0	13.9	4	4.2	4	-1E+10	1	-1E+10	1	-1E+10	1	-1E+10	1	-1E+10	1	-1E+10	1
4902549	108	C	08/10/2023	20:02	-132.493	47.616	0	1395.40	0	2.5390	0	34.4740	0	27.514	0	1379.119	0	14.5	4	4.4	4	-1E+10	1	-1E+10	1	-1E+10	1	-1E+10	1	-1E+10	1	-1E+10	1
4902549	108	C	08/10/2023	20:02	-132.493	47.616	0	1405.00	0	2.5310	0	34.4770	0	27.517	0	1388.575	0	14.9	4	4.5	4	-1E+10	1	-1E+10	1	-1E+10	1	-1E+10	1	-1E+10	1	-1E+10	1
4902549	108	C	08/10/2023	20:02	-132.493	47.616	0	1415.40	0	2.5140	0	34.4790	0	27.520	0	1398.819	0	15.2	4	4.6	4	-1E+10	1	-1E+10	1	-1E+10	1	-1E+10	1	-1E+10	1	-1E+10	1
4902549	108	C	08/10/2023	20:02	-132.493	47.616	0	1425.70	0	2.5010	0	34.4810	0	27.523	0	1408.964	0	15.5	4	4.7	4	-1E+10	1	-1E+10	1	-1E+10	1	-1E+10	1	-1E+10	1	-1E+10	1
4902549	108	C	08/10/2023	20:02	-132.493	47.616	0	1435.80	0	2.4950	0	34.4820	0	27.524	0	1418.911	0	15.8	4	4.8	4	-1E+10	1	-1E+10	1	-1E+10	1	-1E+10	1	-1E+10	1	-1E+10	1
4902549	108	C	08/10/2023	20:02	-132.493	47.616	0	1445.40	0	2.4860	0	34.4840	0	27.527	0	1428.366	0	16.3	4	5.0	4	-1E+10	1	-1E+10	1	-1E+10	1	-1E+10	1	-1E+10	1	-1E+10	1
4902549	108	C	08/10/2023	20:02	-132.493	47.616	0	1455.10	0	2.4680	0	34.4870	0	27.531	0	1437.919	0	16.9	4	5.2	4	-1E+10	1	-1E+10	1	-1E+10	1	-1E+10	1	-1E+10	1	-1E+10	1
4902549	108	C	08/10/2023	20:02	-132.493	47.616	0	1465.40	0	2.4510	0	34.4900	0	27.535	0	1448.062	0	17.5	4	5.3	4	-1E+10	1	-1E+10	1	-1E+10	1	-1E+10	1	-1E+10	1	-1E+10	1
4902549	108	C	08/10/2023	20:02	-132.493	47.616	0	1475.20	0	2.4400	0	34.4920	0	27.537	0	1457.712	0	17.9	4	5.4	4	-1E+10	1	-1E+10	1	-1E+10	1	-1E+10	1	-1E+10	1	-1E+10	1
4902549	108	C	08/10/2023	20:02	-132.493	47.616	0	1485.20	0	2.4290	0	34.4940	0	27.540	0	1467.559	0	18.3	4	5.6	4	-1E+10	1	-1E+10	1	-1E+10	1	-1E+10	1	-1E+10	1	-1E+10	1
4902549	108	C	08/10/2023	20:02	-132.493	47.616	0	1495.40	0	2.4170	0	34.4960	0	27.542	0	1477.602	0	18.7	4	5.7	4	-1E+10	1	-1E+10	1	-1E+10	1	-1E+10	1	-1E+10	1	-1E+10	1
4902549	108	C	08/10/2023	20:02	-132.493	47.616	0	1505.20	0	2.4110	0	34.4970	0	27.544	0	1487.251	0	19.0	4	5.8	4	-1E+10	1	-1E+10	1	-1E+10	1	-1E+10	1	-1E+10	1	-1E+10	1
4902549	108	C	08/10/2023	20:02	-132.493	47.616	0	1515.50	0	2.4020	0	34.4980	0	27.545	0	1497.392	0	19.5	4	5.9	4	-1E+10	1	-1E+10	1	-1E+10	1	-1E+10	1	-1E+10	1	-1E+10	1
4902549	108	C	08/10/2023	20:02	-132.493	47.616	0	1525.80	0	2.3890	0	34.5000	0	27.548	0	1507.532	0	20.2	4	6.2	4	-1E+10	1	-1E+10	1	-1E+10	1	-1E+10	1	-1E+10	1	-1E+10	1
4902549	108	C	08/10/2023	20:02	-132.493	47.616	0	1535.30	0	2.3700	0	34.5040	0	27.553	0	1516.884	0	21.0	4	6.4	4	-1E+10	1	-1E+10	1	-1E+10	1	-1E+10	1	-1E+10	1	-1E+10	1
4902549	108	C	08/10/2023	20:02	-132.493	47.616	0	1545.40	0	2.3560	0	34.5070	0	27.556	0	1526.826	0	21.5	4	6.6	4	-1E+10	1	-1E+10	1	-1E+10	1	-1E+10	1	-1E+10	1	-1E+10	1
4902549	108	C	08/10/2023	20:02	-132.493	47.616	0	1555.30	0	2.3480	0	34.5080	0	27.558	0	1536.572	0	22.1	4	6.7	4	-1E+10	1	-1E+10	1	-1E+10	1	-1E+10	1	-1E+10	1	-1E+10	1
4902549	108	C	08/10/2023	20:02	-132.493	47.616	0	1565.40	0	2.3390	0	34.5100	0	27.560	0	1546.513	0	22.6	4	6.9	4	-1E+10	1	-1E+10	1	-1E+10	1	-1E+10	1	-1E+10	1	-1E+10	1
4902549	108	C	08/10/2023	20:02	-132.493	47.616	0	1575.60	0	2.3240	0	34.5130	0	27.564	0	1556.552	0	23.3	4	7.1	4	-1E+10	1	-1E+10	1	-1E+10	1	-1E+10	1	-1E+10	1	-1E+10	1
4902549	108	C	08/10/2023	20:02	-132.493	47.616	0	1585.70	0	2.3130	0	34.5150	0	27.567	0	1566.493	0	24.1	4	7.3	4	-1E+10	1	-1E+10	1	-1E+10	1	-1E+10	1	-1E+10	1	-1E+10	1
4902549	108	C	08/10/2023	20:02	-132.493	47.616	0	1595.50	0	2.3000	0	34.5170	0	27.569	0	1576.138	0	24.7	4	7.5	4	-1E+10	1	-1E+10	1	-1E+10	1	-1E+10	1	-1E+10	1	-1E+10	1
4902549	108	C	08/10/2023	20:02	-132.493	47.616	0	1605.50	0	2.2870	0	34.5200	0	27.573	0	1585.979	0	25.5	4	7.7	4	-1E+10	1	-1E+10	1	-1E+10	1	-1E+10	1	-1E+10	1	-1E+10	1
4902549	108	C	08/10/2023	20:02	-132.493	47.616	0	1615.20	0	2.2750	0	34.5220	0	27.575	0	1595.525	0	26.2	4	7.9	4	-1E+10	1	-1E+10	1	-1E+10	1	-1E+10	1	-1E+10	1	-1E+10	1
4902549	108	C	08/10/2023	20:02	-132.493	47.616	0	1625.10	0	2.2640	0	34.5240	0	27.578	0	1605.266	0	26.9	4	8.2	4	-1E+10	1	-1E+10	1	-1E+10	1	-1E+10	1	-1E+10	1	-1E+10	1
4902549	108	C	08/10/2023	20:02	-132.493	47.616	0	1635.50	0	2.2500	0	34.5270	0	27.582	0	1615.500	0	27.7	4	8.4	4	-1E+10	1	-1E+10	1	-1E+10	1	-1E+10	1	-1E+10	1	-1E+10	1
4902549	108	C	08/10/2023	20:02	-132.493	47.616	0	1645.60	0	2.2300	0	34.5290	0	27.585	0	1625.438	0	28.5	4	8.6	4	-1E+10	1	-1E+10	1	-1E+10	1	-1E+10	1	-1E+10	1	-1E+10	1
4902549	108	C	08/10/2023	20:02	-132.493	47.616	0	1655.30	0	2.2200	0	34.5310	0	27.587	0	1634.981	0	29.0	4	8.8	4	-1E+10	1	-1E+10	1	-1E+10	1	-1E+10	1	-1E+10	1	-1E+10	1
4902549	108	C	08/10/2023	20:02	-132.493	47.616	0	1665.10	0	2.2120	0	34.5320	0	27.589	0	1644.623	0	29.4	4	8.9	4	-1E+10	1	-1E+10	1	-1E+10	1	-1E+10	1	-1E+10	1	-1E+10	1
4902549	108	C	08/10/2023	20:02	-132.493	47.616	0	1675.10	0	2.2000	0	34.5340	0	27.591	0	1654.461	0	30.1	4	9.1	4	-1E+10	1	-1E+10	1	-1E+10	1	-1E+10	1	-1E+10	1	-1E+10	1
4902549	108	C	08/10/2023	20:02	-132.493	47.616	0	1685.30	0	2.1890	0	34.5360	0	27.594	0	1664.496	0	31.0	4	9.4	4	-1E+10	1	-1E+10	1	-1E+10	1	-1E+10	1	-1E+10	1	-1E+10	1
4902549	108	C	08/10/2023	20:02	-132.493	47.616	0	1695.50	0	2.1770	0	34.5380	0	27.597	0	1674.529	0	31.6	4	9.6	4	-1E+10	1	-1E+10	1	-1E+10	1	-1E+10	1	-1E+10	1	-1E+10	1
4902549	108	C	08/10/2023	20:02	-132.493	47.616	0	1705.40	0	2.1690	0	34.5400	0	27.599	0	1684.268	0	32.1	4	9.7	4	-1E+10	1	-1E+10	1	-1E+10	1	-1E+10	1	-1E+10	1	-1E+10	1
4902549	108	C	08/10/2023	20:02	-132.493	47.616	0	1715.20	0	2.1640	0	34.5410	0	27.600	0	1693.907	0	32.8	4	9.9	4	-1E+10	1	-1E+10	1	-1E+10	1	-1E+10	1	-1E+10	1	-1E+10	1
4902549	108	C	08/10/2023	20:02	-132.493	47.616	0	1725.40	0	2.1500	0	34.5440	0	27.604	0	1703.939	0	33.8	4	10.2	4	-1E+10	1	-1E+10	1	-1E+10	1	-1E+10	1	-1E+10	1	-1E+10	1
4902549	108	C	08/10/2023	20:02	-132.493	47.616	0	1735.60	0	2.1360	0	34.5450	0	27.606	0	1713.971	0	34.7	4	10.5	4	-1E+10	1	-1E+10	1	-1E+10	1	-1E+10	1	-1E+10	1	-1E+10	1
4902549	108	C	08/10/2023	20:02	-132.493	47.616	0	1745.40	0	2.1180	0	34.5490	0	27.610	0	1723.610	0	35.8	4	10.8	4	-1E+10	1	-1E+10	1	-1E+10	1	-1E+10	1	-1E+10	1	-1E+10	1
4902549	108	C	08/10/2023	20:02	-132.493	47.616	0	1755.30	0	2.1070	0	34.5510	0	27.613	0	1733.346	0	36.9	4	11.1	4	-1E+10	1	-1E+10	1	-1E+10	1	-1E+10	1	-1E+10	1	-1E+10	1
4902549	108	C	08/10/2023	20:02	-132.493	47.616	0	1765.70	0	2.0920	0	34.5540	0	27.616	0	1743.573	0	38.0	4	11.5	4	-1E+10	1	-1E+10	1	-1E+10	1	-1E+10	1	-1E+10	1	-1E+10	1
4902549	108	C	08/10/2023	20:02	-132.493	47.616	0	1775.80	0	2.0790	0	34.5570	0	27.620	0	1753.505	0	38.9	4	11.7	4	-1E+10	1	-1E+10	1	-1E+10	1	-1E+10	1	-1E+10	1	-1E+10	1
4902549	108	C	08/10/2023	20:02	-132.493	47.616	0	1785.30	0	2.0690	0	34.5580	0	27.622	0	1762.846	0	39.6	4	12.0	4	-1E+10	1	-1E+10	1	-1E+10	1	-1E+10	1	-1E+10	1	-1E+10	1
4902549	108	C	08/10/2023	20:02	-132.493	47.616	0	1795.20	0	2.0630	0	34.5600	0	27.624	0	1772.580	0	40.5	4	12.2	4	-1E+10	1	-1E+10	1	-1E+10	1	-1E+10	1	-1E+10	1	-1E+10	1
4902549	108	C	08/10/2023	20:02	-132.493	47.616	0	1805.40	0	2.0550	0	34.5620	0	27.626	0	1782.609	0	41.5	4	12.5	4	-1E+10	1	-1E+10	1	-1E+10	1	-1E+10	1	-1E+10	1	-1E+10	1
4902549	108	C	08/10/2023	20:02	-132.493	47.616	0	1815.20	0	2.0460	0	34.5640	0	27.628	0	1792.244	0	42.4	4	12.8	4	-1E+10	1	-1E+10	1	-1E+10	1	-1E+10	1	-1E+10	1	-1E+10	1
4902549	108	C	08/10/2023	20:02	-132.493	47.616	0	1825.30	0	2.0340	0	34.5660	0	27.631	0	1802.173	0	43.2	4	13.0	4	-1E+10	1	-1E+10	1	-1E+10	1	-1E+10	1	-1E+10	1	-1E+10	1
4902549	108	C	08/10/2023	20:02	-132.493	47.616	0	1835.30	0	2.0240	0	34.5680	0	27.633	0	1812.004	0	44.0	4	13.3	4	-1E+10	1	-1E+10	1	-1E+10	1	-1E+10	1	-1E+10	1	-1E+10	1
4902549	108	C	08/10/2023	20:02	-132.493	47.616	0	1845.40	0	2.0160	0	34.5700	0	27.636	0	1821.932	0	44.6	4	13.5	4	-1E+10	1	-1E+10	1	-1E+10	1	-1E+10	1	-1E+10	1	-1E+10	1
4902549	108	C	08/10/2023	20:02	-132.493	47.616	0	1855.50	0	2.0080	0	34.5710	0	27.637	0	1831.860	0	45.2	4	13.6	4	-1E+10	1	-1E+10	1	-1E+10	1	-1E+10	1	-1E+10	1	-1E+10	1
4902549	108	C	08/10/2023	20:02	-132.493	47.616	0	1865.20	0	1.9970	0	34.5730	0	27.640	0	1841.395	0	45.7	4	13.8	4	-1E+10	1	-1E+10	1	-1E+10	1	-1E+10	1	-1E+10	1	-1E+10	1
4902549	108	C	08/10/2023	20:02	-132.493	47.616	0	1875.40	0	1.9900	0	34.5740	0	27.641	0	1851.420	0	46.5	4	14.0	4	-1E+10	1	-1E+10	1	-1E+10	1	-1E+10	1	-1E+10	1	-1E+10	1
4902549	108	C	08/10/2023	20:02	-132.493	47.616	0	1885.80	0	1.9820	0	34.5750	0	27.642	0	1861.642	0	47.2	4	14.2	4	-1E+10	1	-1E+10	1	-1E+10	1	-1E+10	1	-1E+10	1	-1E+10	1
4902549	108	C	08/10/2023	20:02	-132.493	47.616	0	1895.70	0	1.9740	0	34.5770	0	27.645	0	1871.371	0	47.9	4	14.4	4	-1E+10	1	-1E+10	1	-1E+10	1	-1E+10	1	-1E+10	1	-1E+10	1
4902549	108	C	08/10/2023	20:02	-132.493	47.616	0	1905.40	0	1.9660	0	34.5780	0	27.646	0	1880.904	0	48.4	4	14.6	4	-1E+10	1	-1E+10	1	-1E+10	1	-1E+10	1	-1E+10	1	-1E+10	1
4902549	108	C	08/10/2023	20:02	-132.493	47.616	0	1915.30	0	1.9580	0	34.5790	0	27.648	0	1890.633	0	49.1	4	14.8	4	-1E+10	1	-1E+10	1	-1E+10	1	-1E+10	1	-1E+10	1	-1E+10	1
4902549	108	C	08/10/2023	20:02	-132.493	47.616	0	1925.30	0	1.9500	0	34.5810	0	27.650	0	1900.460	0	49.7	4	15.0	4	-1E+10	1	-1E+10	1	-1E+10	1	-1E+10	1	-1E+10	1	-1E+10	1
4902549	108	C	08/10/2023	20:02	-132.493	47.616	0	1935.10	0	1.9450	0	34.5820	0	27.651	0	1910.089	0	50.2	4	15.1	4	-1E+10	1	-1E+10	1	-1E+10	1	-1E+10	1	-1E+10	1	-1E+10	1
4902549	108	C	08/10/2023	20:02	-132.493	47.616	0	1945.00	0	1.9420	0	34.5830	0	27.652	0	1919.817	0	50.7	4	15.3	4	-1E+10	1	-1E+10	1	-1E+10	1	-1E+10	1	-1E+10	1	-1E+10	1
4902549	108	C	08/10/2023	20:02	-132.493	47.616	0	1955.30	0	1.9340	0	34.5840	0	27.654	0	1929.937	0	51.4	4	15.5	4	-1E+10	1	-1E+10	1	-1E+10	1	-1E+10	1	-1E+10	1	-1E+10	1
4902549	108	C	08/10/2023	20:02	-132.493	47.616	0	1965.30	0	1.9280	0	34.5850	0	27.655	0	1939.761	0	51.9	4	15.6	4	-1E+10	1	-1E+10	1	-1E+10	1	-1E+10	1	-1E+10	1	-1E+10	1
4902549	108	C	08/10/2023	20:02	-132.493	47.616	0	1975.50	0	1.9200	0	34.5870	0	27.657	0	1949.782	0	52.7	4	15.9	4	-1E+10	1	-1E+10	1	-1E+10	1	-1E+10	1	-1E+10	1	-1E+10	1
4902549	108	C	08/10/2023	20:02	-132.493	47.616	0	1985.50	0	1.9140	0	34.5890	0	27.659	0	1959.606	0	53.4	4	16.1	4	-1E+10	1	-1E+10	1	-1E+10	1	-1E+10	1	-1E+10	1	-1E+10	1
4902549	108	C	08/10/2023	20:02	-132.493	47.616	0	1995.40	0	1.9060	0	34.5900	0	27.661	0	1969.331	0	53.8	4	16.2	4	-1E+10	1	-1E+10	1	-1E+10	1	-1E+10	1	-1E+10	1	-1E+10	1
4902549	108	C	08/10/2023	20:02	-132.493	47.616	0	2005.20	0	1.9020	0	34.5900	0	27.661	0	1978.958	0	54.1	4	16.3	4	-1E+10	1	-1E+10	1	-1E+10	1	-1E+10	1	-1E+10	1	-1E+10	1
4902549	108	C	08/10/2023	20:02	-132.493	47.616	0	2015.10	0	1.8970	0	34.5910	0	27.663	0	1988.682	0	54.4	4	16.4	4	-1E+10	1	-1E+10	1	-1E+10	1	-1E+10	1	-1E+10	1	-1E+10	1
4902549	108	C	08/10/2023	20:02	-132.493	47.616	0	2025.70	0	1.8940	0	34.5920	0	27.664	0	1999.093	0	54.4	4	16.4	4	-1E+10	1	-1E+10	1	-1E+10	1	-1E+10	1	-1E+10	1	-1E+10	1
4902549	108	C	08/10/2023	20:02	-132.493	47.616	0	2032.80	0	1.8900	0	34.5930	0	27.665	0	2006.067	0	53.9	4	16.2	4	-1E+10	1	-1E+10	1	-1E+10	1	-1E+10	1	-1E+10	1	-1E+10	1
4902549	108	C	08/10/2023	20:02	-132.493	47.616	0																										
4902549	109	C	08/21/2023	01:00	-132.570	47.700	0	0.20	0	17.9230	0	32.3900	0	23.294	0	0.198	0	234.7	4	98.4	4	-1E+10	1	-1E+10	1	-1E+10	1	-1E+10	1	-1E+10	1	-1E+10	1
4902549	109	C	08/21/2023	01:00	-132.570	47.700	0	0.30	0	17.9220	0	32.3730	0	23.281	0	0.297	0	235.1	4	98.6	4	-1E+10	1	-1E+10	1	-1E+10	1	-1E+10	1	-1E+10	1	-1E+10	1
4902549	109	C	08/21/2023	01:00	-132.570	47.700	0	1.00	0	17.9160	0	32.3710	0	23.281	0	0.992	0	235.2	4	98.6	4	-1E+10	1	-1E+10	1	-1E+10	1	-1E+10	1	-1E+10	1	-1E+10	1
4902549	109	C	08/21/2023	01:00	-132.570	47.700	0	1.20	0	17.9149	0	32.3721	0	23.282	0	1.190	0	235.2	4	98.6	4	-1E+10	1	-1E+10	1	-1E+10	1	-1E+10	1	-1E+10	1	-1E+10	1
4902549	109	C	08/21/2023	01:00	-132.570	47.700	0	2.10	0	17.9100	0	32.3770	0	23.287	0	2.082	0	235.2	4	98.6	4	-1E+10	1	-1E+10	1	-1E+10	1	-1E+10	1	-1E+10	1	-1E+10	1
4902549	109	C	08/21/2023	01:00	-132.570	47.700	0	3.00	0	17.9080	0	32.3720	0	23.284	0	2.975	0	235.1	4	98.6	4	-1E+10	1	-1E+10	1	-1E+10	1	-1E+10	1	-1E+10	1	-1E+10	1
4902549	109	C	08/21/2023	01:00	-132.570	47.700	0	3.70	0	17.9050	0	32.3770	0	23.288	0	3.669	0	235.3	4	98.6	4	-1E+10	1	-1E+10	1	-1E+10	1	-1E+10	1	-1E+10	1	-1E+10	1
4902549	109	C	08/21/2023	01:00	-132.570	47.700	0	4.70	0	17.9030	0	32.3900	0	23.299	0	4.661	0	235.4	4	98.7	4	-1E+10	1	-1E+10	1	-1E+10	1	-1E+10	1	-1E+10	1	-1E+10	1
4902549	109	C	08/21/2023	01:00	-132.570	47.700	0	5.80	0	17.9000	0	32.3900	0	23.300	0	5.751	0	235.3	4	98.6	4	-1E+10	1	-1E+10	1	-1E+10	1	-1E+10	1	-1E+10	1	-1E+10	1
4902549	109	C	08/21/2023	01:00	-132.570	47.700	0	6.80	0	17.9030	0	32.3910	0	23.300	0	6.743	0	235.4	4	98.7	4	-1E+10	1	-1E+10	1	-1E+10	1	-1E+10	1	-1E+10	1	-1E+10	1
4902549	109	C	08/21/2023	01:00	-132.570	47.700	0	7.80	0	17.9040	0	32.3910	0	23.300	0	7.735	0	235.5	4	98.7	4	-1E+10	1	-1E+10	1	-1E+10	1	-1E+10	1	-1E+10	1	-1E+10	1
4902549	109	C	08/21/2023	01:00	-132.570	47.700	0	8.80	0	17.9110	0	32.3910	0	23.298	0	8.726	0	235.6	4	98.8	4	-1E+10	1	-1E+10	1	-1E+10	1	-1E+10	1	-1E+10	1	-1E+10	1
4902549	109	C	08/21/2023	01:00	-132.570	47.700	0	10.00	0	17.9080	0	32.3890	0	23.297	0	9.916	0	235.8	4	98.8	4	-1E+10	1	-1E+10	1	-1E+10	1	-1E+10	1	-1E+10	1	-1E+10	1
4902549	109	C	08/21/2023	01:00	-132.570	47.700	0	11.10	0	17.8820	0	32.3900	0	23.304	0	11.007	0	236.2	4	99.0	4	-1E+10	1	-1E+10	1	-1E+10	1	-1E+10	1	-1E+10	1	-1E+10	1
4902549	109	C	08/21/2023	01:00	-132.570	47.700	0	12.00	0	17.8800	0	32.3890	0	23.304	0	11.899	0	236.4	4	99.0	4	-1E+10	1	-1E+10	1	-1E+10	1	-1E+10	1	-1E+10	1	-1E+10	1
4902549	109	C	08/21/2023	01:00	-132.570	47.700	0	12.80	0	17.8750	0	32.3900	0	23.306	0	12.693	0	236.8	4	99.2	4	-1E+10	1	-1E+10	1	-1E+10	1	-1E+10	1	-1E+10	1	-1E+10	1
4902549	109	C	08/21/2023	01:00	-132.570	47.700	0	13.80	0	17.8730	0	32.3900	0	23.306	0	13.684	0	237.1	4	99.3	4	-1E+10	1	-1E+10	1	-1E+10	1	-1E+10	1	-1E+10	1	-1E+10	1
4902549	109	C	08/21/2023	01:00	-132.570	47.700	0	15.10	0	17.8690	0	32.3890	0	23.307	0	14.973	0	237.8	4	99.6	4	-1E+10	1	-1E+10	1	-1E+10	1	-1E+10	1	-1E+10	1	-1E+10	1
4902549	109	C	08/21/2023	01:00	-132.570	47.700	0	15.80	0	17.8650	0	32.3900	0	23.308	0	15.667	0	238.3	4	99.8	4	-1E+10	1	-1E+10	1	-1E+10	1	-1E+10	1	-1E+10	1	-1E+10	1
4902549	109	C	08/21/2023	01:00	-132.570	47.700	0	16.80	0	17.8570	0	32.3870	0	23.308	0	16.659	0	239.2	4	100.2	4	-1E+10	1	-1E+10	1	-1E+10	1	-1E+10	1	-1E+10	1	-1E+10	1
4902549	109	C	08/21/2023	01:00	-132.570	47.700	0	18.00	0	17.8460	0	32.3860	0	23.310	0	17.849	0	240.3	4	100.6	4	-1E+10	1	-1E+10	1	-1E+10	1	-1E+10	1	-1E+10	1	-1E+10	1
4902549	109	C	08/21/2023	01:00	-132.570	47.700	0	19.10	0	17.7920	0	32.3830	0	23.321	0	18.939	0	242.3	4	101.4	4	-1E+10	1	-1E+10	1	-1E+10	1	-1E+10	1	-1E+10	1	-1E+10	1
4902549	109	C	08/21/2023	01:00	-132.570	47.700	0	20.10	0	17.4530	0	32.3830	0	23.402	0	19.931	0	245.1	4	101.8	4	-1E+10	1	-1E+10	1	-1E+10	1	-1E+10	1	-1E+10	1	-1E+10	1
4902549	109	C	08/21/2023	01:00	-132.570	47.700	0	21.10	0	17.0850	0	32.3850	0	23.490	0	20.922	0	249.2	4	102.9	4	-1E+10	1	-1E+10	1	-1E+10	1	-1E+10	1	-1E+10	1	-1E+10	1
4902549	109	C	08/21/2023	01:00	-132.570	47.700	0	22.00	0	16.7810	0	32.3700	0	23.549	0	21.815	0	258.0	4	105.9	4	-1E+10	1	-1E+10	1	-1E+10	1	-1E+10	1	-1E+10	1	-1E+10	1
4902549	109	C	08/21/2023	01:00	-132.570	47.700	0	22.90	0	16.3520	0	32.3820	0	23.657	0	22.707	0	265.1	4	107.9	4	-1E+10	1	-1E+10	1	-1E+10	1	-1E+10	1	-1E+10	1	-1E+10	1
4902549	109	C	08/21/2023	01:00	-132.570	47.700	0	23.90	0	15.1280	0	32.4050	0	23.946	0	23.699	0	274.8	4	109.2	4	-1E+10	1	-1E+10	1	-1E+10	1	-1E+10	1	-1E+10	1	-1E+10	1
4902549	109	C	08/21/2023	01:00	-132.570	47.700	0	25.10	0	13.7960	0	32.3990	0	24.221	0	24.889	0	282.2	4	109.2	4	-1E+10	1	-1E+10	1	-1E+10	1	-1E+10	1	-1E+10	1	-1E+10	1
4902549	109	C	08/21/2023	01:00	-132.570	47.700	0	26.00	0	13.7220	0	32.4000	0	24.237	0	25.781	0	282.7	4	109.2	4	-1E+10	1	-1E+10	1	-1E+10	1	-1E+10	1	-1E+10	1	-1E+10	1
4902549	109	C	08/21/2023	01:00	-132.570	47.700	0	27.00	0	13.6710	0	32.3960	0	24.244	0	26.772	0	282.6	4	109.1	4	-1E+10	1	-1E+10	1	-1E+10	1	-1E+10	1	-1E+10	1	-1E+10	1
4902549	109	C	08/21/2023	01:00	-132.570	47.700	0	27.90	0	13.4940	0	32.3970	0	24.280	0	27.665	0	282.1	4	108.5	4	-1E+10	1	-1E+10	1	-1E+10	1	-1E+10	1	-1E+10	1	-1E+10	1
4902549	109	C	08/21/2023	01:00	-132.570	47.700	0	29.10	0	12.4620	0	32.3880	0	24.475	0	28.855	0	285.3	4	107.4	4	-1E+10	1	-1E+10	1	-1E+10	1	-1E+10	1	-1E+10	1	-1E+10	1
4902549	109	C	08/21/2023	01:00	-132.570	47.700	0	30.00	0	11.3530	0	32.4050	0	24.694	0	29.747	0	287.0	4	105.6	4	-1E+10	1	-1E+10	1	-1E+10	1	-1E+10	1	-1E+10	1	-1E+10	1
4902549	109	C	08/21/2023	01:00	-132.570	47.700	0	31.10	0	10.7270	0	32.4180	0	24.814	0	30.838	0	287.8	4	104.5	4	-1E+10	1	-1E+10	1	-1E+10	1	-1E+10	1	-1E+10	1	-1E+10	1
4902549	109	C	08/21/2023	01:00	-132.570	47.700	0	31.90	0	10.3680	0	32.4210	0	24.878	0	31.631	0	287.6	4	103.6	4	-1E+10	1	-1E+10	1	-1E+10	1	-1E+10	1	-1E+10	1	-1E+10	1
4902549	109	C	08/21/2023	01:00	-132.570	47.700	0	33.10	0	10.0000	0	32.4200	0	24.939	0	32.821	0	288.2	4	103.0	4	-1E+10	1	-1E+10	1	-1E+10	1	-1E+10	1	-1E+10	1	-1E+10	1
4902549	109	C	08/21/2023	01:00	-132.570	47.700	0	34.00	0	9.8490	0	32.4140	0	24.959	0	33.713	0	287.2	4	102.3	4	-1E+10	1	-1E+10	1	-1E+10	1	-1E+10	1	-1E+10	1	-1E+10	1
4902549	109	C	08/21/2023	01:00	-132.570	47.700	0	35.10	0	9.6590	0	32.4180	0	24.993	0	34.803	0	285.3	4	101.2	4	-1E+10	1	-1E+10	1	-1E+10	1	-1E+10	1	-1E+10	1	-1E+10	1
4902549	109	C	08/21/2023	01:00	-132.570	47.700	0	36.10	0	9.4600	0	32.4200	0	25.027	0	35.795	0	284.3	4	100.4	4	-1E+10	1	-1E+10	1	-1E+10	1	-1E+10	1	-1E+10	1	-1E+10	1
4902549	109	C	08/21/2023	01:00	-132.570	47.700	0	36.90	0	9.3680	0	32.4210	0	25.042	0	36.588	0	283.6	4	100.0	4	-1E+10	1	-1E+10	1	-1E+10	1	-1E+10	1	-1E+10	1	-1E+10	1
4902549	109	C	08/21/2023	01:00	-132.570	47.700	0	38.00	0	9.2910	0	32.4210	0	25.055	0	37.679	0	282.3	4	99.4	4	-1E+10	1	-1E+10	1	-1E+10	1	-1E+10	1	-1E+10	1	-1E+10	1
4902549	109	C	08/21/2023	01:00	-132.570	47.700	0	39.10	0	9.1490	0	32.4250	0	25.080	0	38.769	0	281.8	4	98.9	4	-1E+10	1	-1E+10	1	-1E+10	1	-1E+10	1	-1E+10	1	-1E+10	1
4902549	109	C	08/21/2023	01:00	-132.570	47.700	0	40.00	0	9.0750	0	32.4240	0	25.091	0	39.662	0	281.4	4	98.6	4	-1E+10	1	-1E+10	1	-1E+10	1	-1E+10	1	-1E+10	1	-1E+10	1
4902549	109	C	08/21/2023	01:00	-132.570	47.700	0	40.90	0	9.0180	0	32.4240	0	25.100	0	40.554	0	280.9	4	98.3	4	-1E+10	1	-1E+10	1	-1E+10	1	-1E+10	1	-1E+10	1	-1E+10	1
4902549	109	C	08/21/2023	01:00	-132.570	47.700	0	42.10	0	8.9320	0	32.4260	0	25.115	0	41.744	0	280.4	4	97.9	4	-1E+10	1	-1E+10	1	-1E+10	1	-1E+10	1	-1E+10	1	-1E+10	1
4902549	109	C	08/21/2023	01:00	-132.570	47.700	0	43.00	0	8.8970	0	32.4250	0	25.119	0	42.636	0	279.7	4	97.6	4	-1E+10	1	-1E+10	1	-1E+10	1	-1E+10	1	-1E+10	1	-1E+10	1
4902549	109	C	08/21/2023	01:00	-132.570	47.700	0	43.90	0	8.8500	0	32.4260	0	25.127	0	43.528	0	279.1	4	97.3	4	-1E+10	1	-1E+10	1	-1E+10	1	-1E+10	1	-1E+10	1	-1E+10	1
4902549	109	C	08/21/2023	01:00	-132.570	47.700	0	45.10	0	8.7870	0	32.4230	0	25.135	0	44.718	0	278.3	4	96.9	4	-1E+10	1	-1E+10	1	-1E+10	1	-1E+10	1	-1E+10	1	-1E+10	1
4902549	109	C	08/21/2023	01:00	-132.570	47.700	0	46.00	0	8.6440	0	32.4250	0	25.158	0	45.610	0	278.1	4	96.5	4	-1E+10	1	-1E+10	1	-1E+10	1	-1E+10	1	-1E+10	1	-1E+10	1
4902549	109	C	08/21/2023	01:00	-132.570	47.700	0	46.90	0	8.5730	0	32.4240	0	25.168	0	46.502	0	277.5	4	96.2	4	-1E+10	1	-1E+10	1	-1E+10	1	-1E+10	1	-1E+10	1	-1E+10	1
4902549	109	C	08/21/2023	01:00	-132.570	47.700	0	48.00	0	8.4550	0	32.4280	0	25.189	0	47.593	0	277.2	4	95.8	4	-1E+10	1	-1E+10	1	-1E+10	1	-1E+10	1	-1E+10	1	-1E+10	1
4902549	109	C	08/21/2023	01:00	-132.570	47.700	0	48.90	0	8.3530	0	32.4280	0	25.204	0	48.485	0	277.1	4	95.5	4	-1E+10	1	-1E+10	1	-1E+10	1	-1E+10	1	-1E+10	1	-1E+10	1
4902549	109	C	08/21/2023	01:00	-132.570	47.700	0	49.80	0	8.3160	0	32.4270	0	25.208	0	49.378	0	276.5	4	95.3	4	-1E+10	1	-1E+10	1	-1E+10	1	-1E+10	1	-1E+10	1	-1E+10	1
4902549	109	C	08/21/2023	01:00	-132.570	47.700	0	50.90	0	8.2290	0	32.4300	0	25.224	0	50.468	0	275.8	4	94.8	4	-1E+10	1	-1E+10	1	-1E+10	1	-1E+10	1	-1E+10	1	-1E+10	1
4902549	109	C	08/21/2023	01:00	-132.570	47.700	0	52.00	0	8.1810	0	32.4280	0	25.229	0	51.559	0	274.9	4	94.4	4	-1E+10	1	-1E+10	1	-1E+10	1	-1E+10	1	-1E+10	1	-1E+10	1
4902549	109	C	08/21/2023	01:00	-132.570	47.700	0	53.10	0	8.0940	0	32.4310	0	25.244	0	52.649	0	274.1	4	93.9	4	-1E+10	1	-1E+10	1	-1E+10	1	-1E+10	1	-1E+10	1	-1E+10	1
4902549	109	C	08/21/2023	01:00	-132.570	47.700	0	54.00	0	8.0480	0	32.4300	0	25.250	0	53.541	0	273.5	4	93.7	4	-1E+10	1	-1E+10	1	-1E+10	1	-1E+10	1	-1E+10	1	-1E+10	1
4902549	109	C	08/21/2023	01:00	-132.570	47.700	0	54.80	0	8.0420	0	32.4300	0	25.251	0	54.334	0	272.8	4	93.4	4	-1E+10	1	-1E+10	1	-1E+10	1	-1E+10	1	-1E+10	1	-1E+10	1
4902549	109	C	08/21/2023	01:00	-132.570	47.700	0	56.00	0	8.0570	0	32.4370	0	25.254	0	55.524	0	272.6	4	93.4	4	-1E+10	1	-1E+10	1	-1E+10	1	-1E+10	1	-1E+10	1	-1E+10	1
4902549	109	C	08/21/2023	01:00	-132.570	47.700	0	56.90	0	8.0150	0	32.4450	0	25.267	0	56.416	0	272.9	4	93.4	4	-1E+10	1	-1E+10	1	-1E+10	1	-1E+10	1	-1E+10	1	-1E+10	1
4902549	109	C	08/21/2023	01:00	-132.570	47.700	0	57.80	0	7.8730	0	32.4270	0	25.273	0	57.309	0	273.6	4	93.3	4	-1E+10	1	-1E+10	1	-1E+10	1	-1E+10	1	-1E+10	1	-1E+10	1
4902549	109	C	08/21/2023	01:00	-132.570	47.700	0	59.00	0	7.8410	0	32.4280	0	25.278	0	58.498	0	273.2	4	93.1	4	-1E+10	1	-1E+10	1	-1E+10	1	-1E+10	1	-1E+10	1	-1E+10	1
4902549	109	C	08/21/2023	01:00	-132.570	47.700	0	59.90	0	7.8320	0	32.4280	0	25.280	0	59.390	0	272.7	4	92.9	4	-1E+10	1	-1E+10	1	-1E+10	1	-1E+10	1	-1E+10	1	-1E+10	1
4902549	109	C	08/21/2023	01:00	-132.570	47.700	0	60.90	0	7.8260	0	32.4280	0	25.280	0	60.382	0	272.2	4	92.8	4	-1E+10	1	-1E+10	1	-1E+10	1	-1E+10	1	-1E+10	1	-1E+10	1
4902549	109	C	08/21/2023	01:00	-132.570	47.700	0	61.80	0	7.8160	0	32.4290	0	25.283	0	61.274	0	271.7	4	92.5	4	-1E+10	1	-1E+10	1	-1E+10	1	-1E+10	1	-1E+10	1	-1E+10	1
4902549	109	C	08/21/2023	01:00	-132.570	47.700	0	62.80	0	7.7750	0	32.4310	0	25.290	0	62.265	0	271.7	4	92.5	4	-1E+10	1	-1E+10	1	-1E+10	1	-1E+10	1	-1E+10	1	-1E+10	1
4902549	109	C	08/21/2023	01:00	-132.570	47.700	0	64.00	0	7.7520	0	32.4300	0	25.293	0	63.455	0	271.4	4	92.3	4	-1E+10	1	-1E+10	1	-1E+10	1	-1E+10	1	-1E+10	1	-1E+10	1
4902549	109	C	08/21/2023	01:00	-132.570	47.700	0	65.00	0	7.7390	0	32.4310	0	25.295	0	64.446	0	271.1	4	92.2	4	-1E+10	1	-1E+10	1	-1E+10	1	-1E+10	1	-1E+10	1	-1E+10	1
4902549	109	C	08/21/2023	01:00	-132.570	47.700	0	65.90	0	7.7210	0	32.4310	0	25.298	0	65.338	0	270.7	4	92.0	4	-1E+10	1	-1E+10	1	-1E+10	1	-1E+10	1	-1E+10	1	-1E+10	1
4902549	109	C	08/21/2023	01:00	-132.570	47.700	0	66.90	0	7.7130	0	32.4310	0	25.299	0	66.330	0	270.2	4	91.8	4	-1E+10	1	-1E+10	1	-1E+10	1	-1E+10	1	-1E+10	1	-1E+10	1
4902549	109	C	08/21/2023	01:00	-132.570	47.700	0	67.90	0	7.7020	0	32.4330	0	25.302	0	67.321	0	270.0	4	91.7	4	-1E+10	1	-1E+10	1	-1E+10	1	-1E+10	1	-1E+10	1	-1E+10	1
4902549	109	C	08/21/2023	01:00	-132.570	47.700	0	68.90	0	7.7040	0	32.4340	0	25.303	0	68.312	0	269.7	4	91.7	4	-1E+10	1	-1E+10	1	-1E+10	1	-1E+10	1	-1E+10	1	-1E+10	1
4902549	109	C	08/21/2023	01:00	-132.570	47.700	0	69.80	0	7.6960	0	32.4350	0	25.304	0	69.204	0	269.8	4	91.7	4	-1E+10	1	-1E+10	1	-1E+10	1	-1E+10	1	-1E+10	1	-1E+10	1
4902549	109	C	08/21/2023	01:00	-132.570	47.700	0	70.80	0	7.6910	0	32.4330	0	25.304	0	70.196	0	269.7	4	91.6	4	-1E+10	1	-1E+10	1	-1E+10	1	-1E+10	1	-1E+10	1	-1E+10	1
4902549	109	C	08/21/2023	01:00	-132.570	47.700	0	71.80	0	7.6880	0	32.4330	0	25.304	0	71.187	0	269.5	4	91.6	4	-1E+10	1	-1E+10	1	-1E+10	1	-1E+10	1	-1E+10	1	-1E+10	1
4902549	109	C	08/21/2023	01:00	-132.570	47.700	0	73.10	0	7.6590	0	32.4340	0	25.309	0	72.476	0	269.7	4	91.6	4	-1E+10	1	-1E+10	1	-1E+10	1	-1E+10	1	-1E+10	1	-1E+10	1
4902549	109	C	08/21/2023	01:00	-132.570	47.700	0	74.10	0	7.6050	0	32.4300	0	25.313	0	73.467	0	270.0	4	91.6	4	-1E+10	1	-1E+10	1	-1E+10	1	-1E+10	1	-1E+10	1	-1E+10	1
4902549	109	C	08/21/2023	01:00	-132.570	47.700	0	75.00	0	7.5210	0	32.4300	0	25.325	0	74.359	0	270.3	4	91.5	4	-1E+10	1	-1E+10	1	-1E+10	1	-1E+10	1	-1E+10	1	-1E+10	1
4902549	109	C	08/21/2023	01:00	-132.570	47.700	0	76.10	0	7.4890	0	32.4210	0	25.322	0	75.450	0	270.5	4	91.5	4	-1E+10	1	-1E+10	1	-1E+10	1	-1E+10	1	-1E+10	1	-1E+10	1
4902549	109	C	08/21/2023	01:00	-132.570	47.700	0	77.00	0	7.4910	0	32.4220	0	25.323	0	76.342	0	270.5	4	91.5	4	-1E+10	1	-1E+10	1	-1E+10	1	-1E+10	1	-1E+10	1	-1E+10	1
4902549	109	C	08/21/2023	01:00	-132.570	47.700	0	78.00	0	7.4910	0	32.4230	0	25.324	0	77.333	0	270.5	4	91.5	4	-1E+10	1	-1E+10	1	-1E+10	1	-1E+10	1	-1E+10	1	-1E+10	1
4902549	109	C	08/21/2023	01:00	-132.570	47.700	0	79.00	0	7.4790	0	32.4220	0	25.325	0	78.324	0	270.6	4	91.5	4	-1E+10	1	-1E+10	1	-1E+10	1	-1E+10	1	-1E+10	1	-1E+10	1
4902549	109	C	08/21/2023	01:00	-132.570	47.700	0	79.90	0	7.4760	0	32.4230	0	25.326	0	79.216	0	270.7	4	91.5	4	-1E+10	1	-1E+10	1	-1E+10	1	-1E+10	1	-1E+10	1	-1E+10	1
4902549	109	C	08/21/2023	01:00	-132.570	47.700	0	80.80	0	7.4740	0	32.4240	0	25.327	0	80.108	0	270.8	4	91.5	4	-1E+10	1	-1E+10	1	-1E+10	1	-1E+10	1	-1E+10	1	-1E+10	1
4902549	109	C	08/21/2023	01:00	-132.570	47.700	0	82.10	0	7.4740	0	32.4250	0	25.328	0	81.397	0	270.8	4	91.5	4	-1E+10	1	-1E+10	1	-1E+10	1	-1E+10	1	-1E+10	1	-1E+10	1
4902549	109	C	08/21/2023	01:00	-132.570	47.700	0	83.00	0	7.4700	0	32.4270	0	25.330	0	82.289	0	277.5	4	93.8	4	-1E+10	1	-1E+10	1	-1E+10	1	-1E+10	1	-1E+10	1	-1E+10	1
4902549	109	C	08/21/2023	01:00	-132.570	47.700	0	83.90	0	7.4420	0	32.4290	0	25.335	0	83.181	0	277.4	4	93.7	4	-1E+10	1	-1E+10	1	-1E+10	1	-1E+10	1	-1E+10	1	-1E+10	1
4902549	109	C	08/21/2023	01:00	-132.570	47.700	0	84.80	0	7.4250	0	32.4300	0	25.338	0	84.073	0	277.0	4	93.5	4	-1E+10	1	-1E+10	1	-1E+10	1	-1E+10	1	-1E+10	1	-1E+10	1
4902549	109	C	08/21/2023	01:00	-132.570	47.700	0	85.80	0	7.4230	0	32.4320	0	25.340	0	85.065	0	276.7	4	93.4	4	-1E+10	1	-1E+10	1	-1E+10	1	-1E+10	1	-1E+10	1	-1E+10	1
4902549	109	C	08/21/2023	01:00	-132.570	47.700	0	87.00	0	7.4130	0	32.4350	0	25.344	0	86.254	0	276.4	4	93.3	4	-1E+10	1	-1E+10	1	-1E+10	1	-1E+10	1	-1E+10	1	-1E+10	1
4902549	109	C	08/21/2023	01:00	-132.570	47.700	0	87.90	0	7.4120	0	32.4380	0	25.347	0	87.146	0	276.3	4	93.3	4	-1E+10	1	-1E+10	1	-1E+10	1	-1E+10	1	-1E+10	1	-1E+10	1
4902549	109	C	08/21/2023	01:00	-132.570	47.700	0	88.80	0	7.4120	0	32.4390	0	25.347	0	88.038	0	275.9	4	93.2	4	-1E+10	1	-1E+10	1	-1E+10	1	-1E+10	1	-1E+10	1	-1E+10	1
4902549	109	C	08/21/2023	01:00	-132.570	47.700	0	90.00	0	7.4090	0	32.4390	0	25.348	0	89.228	0	275.7	4	93.1	4	-1E+10	1	-1E+10	1	-1E+10	1	-1E+10	1	-1E+10	1	-1E+10	1
4902549	109	C	08/21/2023	01:00	-132.570	47.700	0	91.00	0	7.4000	0	32.4400	0	25.350	0	90.219	0	275.5	4	93.0	4	-1E+10	1	-1E+10	1	-1E+10	1	-1E+10	1	-1E+10	1	-1E+10	1
4902549	109	C	08/21/2023	01:00	-132.570	47.700	0	91.90	0	7.3960	0	32.4400	0	25.350	0	91.111	0	275.2	4	92.9	4	-1E+10	1	-1E+10	1	-1E+10	1	-1E+10	1	-1E+10	1	-1E+10	1
4902549	109	C	08/21/2023	01:00	-132.570	47.700	0	93.10	0	7.3810	0	32.4400	0	25.352	0	92.300	0	275.0	4	92.8	4	-1E+10	1	-1E+10	1	-1E+10	1	-1E+10	1	-1E+10	1	-1E+10	1
4902549	109	C	08/21/2023	01:00	-132.570	47.700	0	94.00	0	7.3600	0	32.4410	0	25.356	0	93.193	0	274.8	4	92.7	4	-1E+10	1	-1E+10	1	-1E+10	1	-1E+10	1	-1E+10	1	-1E+10	1
4902549	109	C	08/21/2023	01:00	-132.570	47.700	0	95.00	0	7.3530	0	32.4410	0	25.357	0	94.184	0	274.6	4	92.6	4	-1E+10	1	-1E+10	1	-1E+10	1	-1E+10	1	-1E+10	1	-1E+10	1
4902549	109	C	08/21/2023	01:00	-132.570	47.700	0	95.90	0	7.3560	0	32.4420	0	25.358	0	95.076	0	274.4	4	92.5	4	-1E+10	1	-1E+10	1	-1E+10	1	-1E+10	1	-1E+10	1	-1E+10	1
4902549	109	C	08/21/2023	01:00	-132.570	47.700	0	96.90	0	7.3570	0	32.4460	0	25.361	0	96.067	0	274.1	4	92.4	4	-1E+10	1	-1E+10	1	-1E+10	1	-1E+10	1	-1E+10	1	-1E+10	1
4902549	109	C	08/21/2023	01:00	-132.570	47.700	0	97.80	0	7.3500	0	32.4470	0	25.362	0	96.959	0	273.9	4	92.3	4	-1E+10	1	-1E+10	1	-1E+10	1	-1E+10	1	-1E+10	1	-1E+10	1
4902549	109	C	08/21/2023	01:00	-132.570	47.700	0	98.80	0	7.3520	0	32.4490	0	25.364	0	97.950	0	273.6	4	92.2	4	-1E+10	1	-1E+10	1	-1E+10	1	-1E+10	1	-1E+10	1	-1E+10	1
4902549	109	C	08/21/2023	01:00	-132.570	47.700	0	100.10	0	7.3310	0	32.4490	0	25.366	0	99.239	0	273.3	4	92.1	4	-1E+10	1	-1E+10	1	-1E+10	1	-1E+10	1	-1E+10	1	-1E+10	1
4902549	109	C	08/21/2023	01:00	-132.570	47.700	0	101.00	0	7.3240	0	32.4500	0	25.368	0	100.131	0	273.1	4	92.0	4	-1E+10	1	-1E+10	1	-1E+10	1	-1E+10	1	-1E+10	1	-1E+10	1
4902549	109	C	08/21/2023	01:00	-132.570	47.700	0	102.00	0	7.3210	0	32.4520	0	25.370	0	101.122	0	272.7	4	91.9	4	-1E+10	1	-1E+10	1	-1E+10	1	-1E+10	1	-1E+10	1	-1E+10	1
4902549	109	C	08/21/2023	01:00	-132.570	47.700	0	102.90	0	7.3110	0	32.4520	0	25.372	0	102.014	0	272.4	4	91.7	4	-1E+10	1	-1E+10	1	-1E+10	1	-1E+10	1	-1E+10	1	-1E+10	1
4902549	109	C	08/21/2023	01:00	-132.570	47.700	0	103.90	0	7.2590	0	32.4550	0	25.381	0	103.005	0	272.2	4	91.6	4	-1E+10	1	-1E+10	1	-1E+10	1	-1E+10	1	-1E+10	1	-1E+10	1
4902549	109	C	08/21/2023	01:00	-132.570	47.700	0	104.80	0	7.2080	0	32.4540	0	25.387	0	103.897	0	272.3	4	91.5	4	-1E+10	1	-1E+10	1	-1E+10	1	-1E+10	1	-1E+10	1	-1E+10	1
4902549	109	C	08/21/2023	01:00	-132.570	47.700	0	105.80	0	7.2130	0	32.4570	0	25.389	0	104.888	0	271.6	4	91.3	4	-1E+10	1	-1E+10	1	-1E+10	1	-1E+10	1	-1E+10	1	-1E+10	1
4902549	109	C	08/21/2023	01:00	-132.570	47.700	0	107.00	0	7.2290	0	32.4630	0	25.391	0	106.078	0	270.7	4	91.0	4	-1E+10	1	-1E+10	1	-1E+10	1	-1E+10	1	-1E+10	1	-1E+10	1
4902549	109	C	08/21/2023	01:00	-132.570	47.700	0	108.00	0	7.2400	0	32.4700	0	25.396	0	107.069	0	270.1	4	90.8	4	-1E+10	1	-1E+10	1	-1E+10	1	-1E+10	1	-1E+10	1	-1E+10	1
4902549	109	C	08/21/2023	01:00	-132.570	47.700	0	108.70	0	7.2380	0	32.4740	0	25.399	0	107.762	0	269.2	4	90.6	4	-1E+10	1	-1E+10	1	-1E+10	1	-1E+10	1	-1E+10	1	-1E+10	1
4902549	109	C	08/21/2023	01:00	-132.570	47.700	0	110.10	0	7.2330	0	32.4780	0	25.403	0	109.150	0	267.4	4	89.9	4	-1E+10	1	-1E+10	1	-1E+10	1	-1E+10	1	-1E+10	1	-1E+10	1
4902549	109	C	08/21/2023	01:00	-132.570	47.700	0	111.00	0	7.2330	0	32.4860	0	25.409	0	110.042	0	265.7	4	89.4	4	-1E+10	1	-1E+10	1	-1E+10	1	-1E+10	1	-1E+10	1	-1E+10	1
4902549	109	C	08/21/2023	01:00	-132.570	47.700	0	112.10	0	7.2280	0	32.4920	0	25.414	0	111.132	0	262.9	4	88.4	4	-1E+10	1	-1E+10	1	-1E+10	1	-1E+10	1	-1E+10	1	-1E+10	1
4902549	109	C	08/21/2023	01:00	-132.570	47.700	0	112.90	0	7.2520	0	32.5090	0	25.425	0	111.925	0	260.6	4	87.7	4	-1E+10	1	-1E+10	1	-1E+10	1	-1E+10	1	-1E+10	1	-1E+10	1
4902549	109	C	08/21/2023	01:00	-132.570	47.700	0	114.00	0	7.2250	0	32.5260	0	25.442	0	113.015	0	258.1	4	86.8	4	-1E+10	1	-1E+10	1	-1E+10	1	-1E+10	1	-1E+10	1	-1E+10	1
4902549	109	C	08/21/2023	01:00	-132.570	47.700	0	114.90	0	7.1940	0	32.5310	0	25.450	0	113.907	0	255.9	4	86.0	4	-1E+10	1	-1E+10	1	-1E+10	1	-1E+10	1	-1E+10	1	-1E+10	1
4902549	109	C	08/21/2023	01:00	-132.570	47.700	0	116.00	0	7.1470	0	32.5600	0	25.479	0	114.997	0	253.5	4	85.2	4	-1E+10	1	-1E+10	1	-1E+10	1	-1E+10	1	-1E+10	1	-1E+10	1
4902549	109	C	08/21/2023	01:00	-132.570	47.700	0	117.10	0	7.2090	0	32.6020	0	25.504	0	116.088	0	251.1	4	84.5	4	-1E+10	1	-1E+10	1	-1E+10	1	-1E+10	1	-1E+10	1	-1E+10	1
4902549	109	C	08/21/2023	01:00	-132.570	47.700	0	118.00	0	7.2130	0	32.6240	0	25.520	0	116.980	0	249.4	4	83.9	4	-1E+10	1	-1E+10	1	-1E+10	1	-1E+10	1	-1E+10	1	-1E+10	1
4902549	109	C	08/21/2023	01:00	-132.570	47.700	0	119.10	0	7.1510	0	32.6570	0	25.555	0	118.070	0	248.1	4	83.4	4	-1E+10	1	-1E+10	1	-1E+10	1	-1E+10	1	-1E+10	1	-1E+10	1
4902549	109	C	08/21/2023	01:00	-132.570	47.700	0	119.90	0	7.1090	0	32.6600	0	25.563	0	118.863	0	247.0	4	82.9	4	-1E+10	1	-1E+10	1	-1E+10	1	-1E+10	1	-1E+10	1	-1E+10	1
4902549	109	C	08/21/2023	01:00	-132.570	47.700	0	120.80	0	7.0750	0	32.6660	0	25.572	0	119.755	0	245.7	4	82.5	4	-1E+10	1	-1E+10	1	-1E+10	1	-1E+10	1	-1E+10	1	-1E+10	1
4902549	109	C	08/21/2023	01:00	-132.570	47.700	0	122.00	0	7.0300	0	32.6740	0	25.585	0	120.944	0	243.5	4	81.6	4	-1E+10	1	-1E+10	1	-1E+10	1	-1E+10	1	-1E+10	1	-1E+10	1
4902549	109	C	08/21/2023	01:00	-132.570	47.700	0	123.10	0	6.9890	0	32.6980	0	25.609	0	122.034	0	242.1	4	81.1	4	-1E+10	1	-1E+10	1	-1E+10	1	-1E+10	1	-1E+10	1	-1E+10	1
4902549	109	C	08/21/2023	01:00	-132.570	47.700	0	123.90	0	6.9110	0	32.7450	0	25.656	0	122.827	0	241.4	4	80.7	4	-1E+10	1	-1E+10	1	-1E+10	1	-1E+10	1	-1E+10	1	-1E+10	1
4902549	109	C	08/21/2023	01:00	-132.570	47.700	0	124.90	0	6.8840	0	32.7580	0	25.670	0	123.818	0	240.4	4	80.4	4	-1E+10	1	-1E+10	1	-1E+10	1	-1E+10	1	-1E+10	1	-1E+10	1
4902549	109	C	08/21/2023	01:00	-132.570	47.700	0	126.10	0	6.8770	0	32.7600	0	25.673	0	125.007	0	238.8	4	79.8	4	-1E+10	1	-1E+10	1	-1E+10	1	-1E+10	1	-1E+10	1	-1E+10	1
4902549	109	C	08/21/2023	01:00	-132.570	47.700	0	126.80	0	6.8690	0	32.7630	0	25.676	0	125.701	0	237.5	4	79.4	4	-1E+10	1	-1E+10	1	-1E+10	1	-1E+10	1	-1E+10	1	-1E+10	1
4902549	109	C	08/21/2023	01:00	-132.570	47.700	0	128.00	0	6.8270	0	32.7850	0	25.699	0	126.890	0	235.8	4	78.8	4	-1E+10	1	-1E+10	1	-1E+10	1	-1E+10	1	-1E+10	1	-1E+10	1
4902549	109	C	08/21/2023	01:00	-132.570	47.700	0	129.20	0	6.7550	0	32.8260	0	25.741	0	128.079	0	234.3	4	78.1	4	-1E+10	1	-1E+10	1	-1E+10	1	-1E+10	1	-1E+10	1	-1E+10	1
4902549	109	C	08/21/2023	01:00	-132.570	47.700	0	130.00	0	6.7240	0	32.8440	0	25.759	0	128.872	0	233.2	4	77.7	4	-1E+10	1	-1E+10	1	-1E+10	1	-1E+10	1	-1E+10	1	-1E+10	1
4902549	109	C	08/21/2023	01:00	-132.570	47.700	0	130.90	0	6.6790	0	32.8690	0	25.785	0	129.764	0	232.2	4	77.3	4	-1E+10	1	-1E+10	1	-1E+10	1	-1E+10	1	-1E+10	1	-1E+10	1
4902549	109	C	08/21/2023	01:00	-132.570	47.700	0	131.70	0	6.6540	0	32.8810	0	25.797	0	130.557	0	231.2	4	77.0	4	-1E+10	1	-1E+10	1	-1E+10	1	-1E+10	1	-1E+10	1	-1E+10	1
4902549	109	C	08/21/2023	01:00	-132.570	47.700	0	132.60	0	6.6160	0	32.9050	0	25.821	0	131.449	0	230.3	4	76.6	4	-1E+10	1	-1E+10	1	-1E+10	1	-1E+10	1	-1E+10	1	-1E+10	1
4902549	109	C	08/21/2023	01:00	-132.570	47.700	0	133.90	0	6.5510	0	32.9420	0	25.859	0	132.737	0	229.1	4	76.1	4	-1E+10	1	-1E+10	1	-1E+10	1	-1E+10	1	-1E+10	1	-1E+10	1
4902549	109	C	08/21/2023	01:00	-132.570	47.700	0	135.30	0	6.4900	0	32.9740	0	25.892	0	134.124	0	227.9	4	75.6	4	-1E+10	1	-1E+10	1	-1E+10	1	-1E+10	1	-1E+10	1	-1E+10	1
4902549	109	C	08/21/2023	01:00	-132.570	47.700	0	136.10	0	6.4650	0	32.9870	0	25.905	0	134.917	0	226.9	4	75.3	4	-1E+10	1	-1E+10	1	-1E+10	1	-1E+10	1	-1E+10	1	-1E+10	1
4902549	109	C	08/21/2023	01:00	-132.570	47.700	0	137.00	0	6.4450	0	32.9990	0	25.917	0	135.809	0	225.9	4	74.9	4	-1E+10	1	-1E+10	1	-1E+10	1	-1E+10	1	-1E+10	1	-1E+10	1
4902549	109	C	08/21/2023	01:00	-132.570	47.700	0	137.80	0	6.4250	0	33.0110	0	25.929	0	136.602	0	224.7	4	74.5	4	-1E+10	1	-1E+10	1	-1E+10	1	-1E+10	1	-1E+10	1	-1E+10	1
4902549	109	C	08/21/2023	01:00	-132.570	47.700	0	138.70	0	6.4160	0	33.0160	0	25.935	0	137.494	0	223.4	4	74.0	4	-1E+10	1	-1E+10	1	-1E+10	1	-1E+10	1	-1E+10	1	-1E+10	1
4902549	109	C	08/21/2023	01:00	-132.570	47.700	0	139.90	0	6.3930	0	33.0260	0	25.945	0	138.683	0	221.3	4	73.3	4	-1E+10	1	-1E+10	1	-1E+10	1	-1E+10	1	-1E+10	1	-1E+10	1
4902549	109	C	08/21/2023	01:00	-132.570	47.700	0	141.20	0	6.2950	0	33.0830	0	26.003	0	139.971	0	219.4	4	72.5	4	-1E+10	1	-1E+10	1	-1E+10	1	-1E+10	1	-1E+10	1	-1E+10	1
4902549	109	C	08/21/2023	01:00	-132.570	47.700	0	142.10	0	6.2030	0	33.1450	0	26.063	0	140.863	0	218.8	4	72.2	4	-1E+10	1	-1E+10	1	-1E+10	1	-1E+10	1	-1E+10	1	-1E+10	1
4902549	109	C	08/21/2023	01:00	-132.570	47.700	0	143.10	0	6.1330	0	33.2030	0	26.118	0	141.854	0	218.0	4	71.9	4	-1E+10	1	-1E+10	1	-1E+10	1	-1E+10	1	-1E+10	1	-1E+10	1
4902549	109	C	08/21/2023	01:00	-132.570	47.700	0	144.00	0	6.1020	0	33.2320	0	26.145	0	142.746	0	217.5	4	71.7	4	-1E+10	1	-1E+10	1	-1E+10	1	-1E+10	1	-1E+10	1	-1E+10	1
4902549	109	C	08/21/2023	01:00	-132.570	47.700	0	145.00	0	6.0860	0	33.2490	0	26.160	0	143.737	0	217.0	4	71.5	4	-1E+10	1	-1E+10	1	-1E+10	1	-1E+10	1	-1E+10	1	-1E+10	1
4902549	109	C	08/21/2023	01:00	-132.570	47.700	0	145.90	0	6.0720	0	33.2650	0	26.175	0	144.629	0	216.3	4	71.2	4	-1E+10	1	-1E+10	1	-1E+10	1	-1E+10	1	-1E+10	1	-1E+10	1
4902549	109	C	08/21/2023	01:00	-132.570	47.700	0	146.90	0	6.0650	0	33.2710	0	26.180	0	145.619	0	215.7	4	71.0	4	-1E+10	1	-1E+10	1	-1E+10	1	-1E+10	1	-1E+10	1	-1E+10	1
4902549	109	C	08/21/2023	01:00	-132.570	47.700	0	147.80	0	6.0540	0	33.2820	0	26.190	0	146.511	0	214.9	4	70.8	4	-1E+10	1	-1E+10	1	-1E+10	1	-1E+10	1	-1E+10	1	-1E+10	1
4902549	109	C	08/21/2023	01:00	-132.570	47.700	0	148.80	0	6.0350	0	33.3050	0	26.211	0	147.502	0	214.4	4	70.6	4	-1E+10	1	-1E+10	1	-1E+10	1	-1E+10	1	-1E+10	1	-1E+10	1
4902549	109	C	08/21/2023	01:00	-132.570	47.700	0	149.70	0	6.0330	0	33.3070	0	26.213	0	148.394	0	213.8	4	70.4	4	-1E+10	1	-1E+10	1	-1E+10	1	-1E+10	1	-1E+10	1	-1E+10	1
4902549	109	C	08/21/2023	01:00	-132.570	47.700	0	150.60	0	6.0320	0	33.3080	0	26.213	0	149.286	0	212.9	4	70.1	4	-1E+10	1	-1E+10	1	-1E+10	1	-1E+10	1	-1E+10	1	-1E+10	1
4902549	109	C	08/21/2023	01:00	-132.570	47.700	0	151.90	0	6.0290	0	33.3110	0	26.216	0	150.574	0	211.6	4	69.6	4	-1E+10	1	-1E+10	1	-1E+10	1	-1E+10	1	-1E+10	1	-1E+10	1
4902549	109	C	08/21/2023	01:00	-132.570	47.700	0	153.10	0	6.0240	0	33.3190	0	26.223	0	151.763	0	210.0	4	69.1	4	-1E+10	1	-1E+10	1	-1E+10	1	-1E+10	1	-1E+10	1	-1E+10	1
4902549	109	C	08/21/2023	01:00	-132.570	47.700	0	154.00	0	6.0150	0	33.3280	0	26.231	0	152.655	0	208.8	4	68.7	4	-1E+10	1	-1E+10	1	-1E+10	1	-1E+10	1	-1E+10	1	-1E+10	1
4902549	109	C	08/21/2023	01:00	-132.570	47.700	0	154.90	0	5.9700	0	33.3760	0	26.275	0	153.547	0	208.0	4	68.4	4	-1E+10	1	-1E+10	1	-1E+10	1	-1E+10	1	-1E+10	1	-1E+10	1
4902549	109	C	08/21/2023	01:00	-132.570	47.700	0	155.80	0	5.9730	0	33.3810	0	26.279	0	154.439	0	207.0	4	68.1	4	-1E+10	1	-1E+10	1	-1E+10	1	-1E+10	1	-1E+10	1	-1E+10	1
4902549	109	C	08/21/2023	01:00	-132.570	47.700	0	156.60	0	5.9550	0	33.4010	0	26.297	0	155.231	0	206.1	4	67.8	4	-1E+10	1	-1E+10	1	-1E+10	1	-1E+10	1	-1E+10	1	-1E+10	1
4902549	109	C	08/21/2023	01:00	-132.570	47.700	0	157.90	0	5.9430	0	33.4130	0	26.308	0	156.519	0	204.7	4	67.3	4	-1E+10	1	-1E+10	1	-1E+10	1	-1E+10	1	-1E+10	1	-1E+10	1
4902549	109	C	08/21/2023	01:00	-132.570	47.700	0	159.20	0	5.9380	0	33.4250	0	26.318	0	157.808	0	203.2	4	66.8	4	-1E+10	1	-1E+10	1	-1E+10	1	-1E+10	1	-1E+10	1	-1E+10	1
4902549	109	C	08/21/2023	01:00	-132.570	47.700	0	160.10	0	5.9260	0	33.4410	0	26.332	0	158.699	0	202.3	4	66.5	4	-1E+10	1	-1E+10	1	-1E+10	1	-1E+10	1	-1E+10	1	-1E+10	1
4902549	109	C	08/21/2023	01:00	-132.570	47.700	0	160.90	0	5.9160	0	33.4560	0	26.345	0	159.492	0	201.6	4	66.2	4	-1E+10	1	-1E+10	1	-1E+10	1	-1E+10	1	-1E+10	1	-1E+10	1
4902549	109	C	08/21/2023	01:00	-132.570	47.700	0	161.80	0	5.9080	0	33.4690	0	26.356	0	160.384	0	200.8	4	66.0	4	-1E+10	1	-1E+10	1	-1E+10	1	-1E+10	1	-1E+10	1	-1E+10	1
4902549	109	C	08/21/2023	01:00	-132.570	47.700	0	162.70	0	5.9070	0	33.4750	0	26.361	0	161.276	0	200.0	4	65.7	4	-1E+10	1	-1E+10	1	-1E+10	1	-1E+10	1	-1E+10	1	-1E+10	1
4902549	109	C	08/21/2023	01:00	-132.570	47.700	0	163.90	0	5.9090	0	33.4830	0	26.367	0	162.465	0	198.6	4	65.3	4	-1E+10	1	-1E+10	1	-1E+10	1	-1E+10	1	-1E+10	1	-1E+10	1
4902549	109	C	08/21/2023	01:00	-132.570	47.700	0	165.10	0	5.9100	0	33.4880	0	26.371	0	163.654	0	197.1	4	64.8	4	-1E+10	1	-1E+10	1	-1E+10	1	-1E+10	1	-1E+10	1	-1E+10	1
4902549	109	C	08/21/2023	01:00	-132.570	47.700	0	166.00	0	5.9110	0	33.5010	0	26.381	0	164.545	0	195.7	4	64.3	4	-1E+10	1	-1E+10	1	-1E+10	1	-1E+10	1	-1E+10	1	-1E+10	1
4902549	109	C	08/21/2023	01:00	-132.570	47.700	0	167.00	0	5.9110	0	33.5110	0	26.389	0	165.536	0	194.2	4	63.9	4	-1E+10	1	-1E+10	1	-1E+10	1	-1E+10	1	-1E+10	1	-1E+10	1
4902549	109	C	08/21/2023	01:00	-132.570	47.700	0	168.00	0	5.9110	0	33.5160	0	26.393	0	166.527	0	192.6	4	63.3	4	-1E+10	1	-1E+10	1	-1E+10	1	-1E+10	1	-1E+10	1	-1E+10	1
4902549	109	C	08/21/2023	01:00	-132.570	47.700	0	169.00	0	5.8830	0	33.5300	0	26.407	0	167.518	0	191.3	4	62.8	4	-1E+10	1	-1E+10	1	-1E+10	1	-1E+10	1	-1E+10	1	-1E+10	1
4902549	109	C	08/21/2023	01:00	-132.570	47.700	0	170.10	0	5.8800	0	33.5390	0	26.415	0	168.608	0	189.6	4	62.3	4	-1E+10	1	-1E+10	1	-1E+10	1	-1E+10	1	-1E+10	1	-1E+10	1
4902549	109	C	08/21/2023	01:00	-132.570	47.700	0	170.90	0	5.8860	0	33.5620	0	26.432	0	169.400	0	188.5	4	62.0	4	-1E+10	1	-1E+10	1	-1E+10	1	-1E+10	1	-1E+10	1	-1E+10	1
4902549	109	C	08/21/2023	01:00	-132.570	47.700	0	172.00	0	5.8790	0	33.5860	0	26.452	0	170.490	0	187.1	4	61.5	4	-1E+10	1	-1E+10	1	-1E+10	1	-1E+10	1	-1E+10	1	-1E+10	1
4902549	109	C	08/21/2023	01:00	-132.570	47.700	0	173.20	0	5.8700	0	33.5990	0	26.464	0	171.679	0	185.7	4	61.0	4	-1E+10	1	-1E+10	1	-1E+10	1	-1E+10	1	-1E+10	1	-1E+10	1
4902549	109	C	08/21/2023	01:00	-132.570	47.700	0	174.00	0	5.8670	0	33.6060	0	26.470	0	172.472	0	184.8	4	60.7	4	-1E+10	1	-1E+10	1	-1E+10	1	-1E+10	1	-1E+10	1	-1E+10	1
4902549	109	C	08/21/2023	01:00	-132.570	47.700	0	174.80	0	5.8660	0	33.6120	0	26.474	0	173.265	0	183.9	4	60.4	4	-1E+10	1	-1E+10	1	-1E+10	1	-1E+10	1	-1E+10	1	-1E+10	1
4902549	109	C	08/21/2023	01:00	-132.570	47.700	0	175.70	0	5.8650	0	33.6140	0	26.476	0	174.156	0	182.9	4	60.1	4	-1E+10	1	-1E+10	1	-1E+10	1	-1E+10	1	-1E+10	1	-1E+10	1
4902549	109	C	08/21/2023	01:00	-132.570	47.700	0	176.90	0	5.8620	0	33.6230	0	26.484	0	175.345	0	181.4	4	59.6	4	-1E+10	1	-1E+10	1	-1E+10	1	-1E+10	1	-1E+10	1	-1E+10	1
4902549	109	C	08/21/2023	01:00	-132.570	47.700	0	178.20	0	5.8540	0	33.6290	0	26.489	0	176.633	0	179.9	4	59.1	4	-1E+10	1	-1E+10	1	-1E+10	1	-1E+10	1	-1E+10	1	-1E+10	1
4902549	109	C	08/21/2023	01:00	-132.570	47.700	0	179.10	0	5.8510	0	33.6290	0	26.490	0	177.525	0	178.7	4	58.7	4	-1E+10	1	-1E+10	1	-1E+10	1	-1E+10	1	-1E+10	1	-1E+10	1
4902549	109	C	08/21/2023	01:00	-132.570	47.700	0	180.00	0	5.8360	0	33.6370	0	26.498	0	178.417	0	177.7	4	58.4	4	-1E+10	1	-1E+10	1	-1E+10	1	-1E+10	1	-1E+10	1	-1E+10	1
4902549	109	C	08/21/2023	01:00	-132.570	47.700	0	180.90	0	5.8350	0	33.6430	0	26.503	0	179.308	0	176.7	4	58.1	4	-1E+10	1	-1E+10	1	-1E+10	1	-1E+10	1	-1E+10	1	-1E+10	1
4902549	109	C	08/21/2023	01:00	-132.570	47.700	0	181.80	0	5.8310	0	33.6460	0	26.506	0	180.200	0	175.7	4	57.7	4	-1E+10	1	-1E+10	1	-1E+10	1	-1E+10	1	-1E+10	1	-1E+10	1
4902549	109	C	08/21/2023	01:00	-132.570	47.700	0	182.70	0	5.8280	0	33.6480	0	26.508	0	181.092	0	174.6	4	57.3	4	-1E+10	1	-1E+10	1	-1E+10	1	-1E+10	1	-1E+10	1	-1E+10	1
4902549	109	C	08/21/2023	01:00	-132.570	47.700	0	183.60	0	5.8260	0	33.6520	0	26.511	0	181.983	0	173.3	4	56.9	4	-1E+10	1	-1E+10	1	-1E+10	1	-1E+10	1	-1E+10	1	-1E+10	1
4902549	109	C	08/21/2023	01:00	-132.570	47.700	0	184.90	0	5.8210	0	33.6550	0	26.514	0	183.271	0	171.2	4	56.2	4	-1E+10	1	-1E+10	1	-1E+10	1	-1E+10	1	-1E+10	1	-1E+10	1
4902549	109	C	08/21/2023	01:00	-132.570	47.700	0	186.30	0	5.8050	0	33.6670	0	26.526	0	184.658	0	169.1	4	55.5	4	-1E+10	1	-1E+10	1	-1E+10	1	-1E+10	1	-1E+10	1	-1E+10	1
4902549	109	C	08/21/2023	01:00	-132.570	47.700	0	187.20	0	5.8010	0	33.6680	0	26.527	0	185.550	0	167.8	4	55.1	4	-1E+10	1	-1E+10	1	-1E+10	1	-1E+10	1	-1E+10	1	-1E+10	1
4902549	109	C	08/21/2023	01:00	-132.570	47.700	0	188.10	0	5.7790	0	33.6790	0	26.538	0	186.442	0	166.7	4	54.7	4	-1E+10	1	-1E+10	1	-1E+10	1	-1E+10	1	-1E+10	1	-1E+10	1
4902549	109	C	08/21/2023	01:00	-132.570	47.700	0	189.10	0	5.7710	0	33.6830	0	26.542	0	187.432	0	165.7	4	54.4	4	-1E+10	1	-1E+10	1	-1E+10	1	-1E+10	1	-1E+10	1	-1E+10	1
4902549	109	C	08/21/2023	01:00	-132.570	47.700	0	190.00	0	5.7650	0	33.6870	0	26.546	0	188.324	0	164.7	4	54.0	4	-1E+10	1	-1E+10	1	-1E+10	1	-1E+10	1	-1E+10	1	-1E+10	1
4902549	109	C	08/21/2023	01:00	-132.570	47.700	0	191.00	0	5.7560	0	33.6900	0	26.550	0	189.315	0	163.6	4	53.7	4	-1E+10	1	-1E+10	1	-1E+10	1	-1E+10	1	-1E+10	1	-1E+10	1
4902549	109	C	08/21/2023	01:00	-132.570	47.700	0	191.90	0	5.7490	0	33.6930	0	26.553	0	190.206	0	162.7	4	53.3	4	-1E+10	1	-1E+10	1	-1E+10	1	-1E+10	1	-1E+10	1	-1E+10	1
4902549	109	C	08/21/2023	01:00	-132.570	47.700	0	192.90	0	5.7480	0	33.6930	0	26.553	0	191.197	0	161.5	4	53.0	4	-1E+10	1	-1E+10	1	-1E+10	1	-1E+10	1	-1E+10	1	-1E+10	1
4902549	109	C	08/21/2023	01:00	-132.570	47.700	0	193.80	0	5.7450	0	33.6940	0	26.554	0	192.089	0	160.3	4	52.5	4	-1E+10	1	-1E+10	1	-1E+10	1	-1E+10	1	-1E+10	1	-1E+10	1
4902549	109	C	08/21/2023	01:00	-132.570	47.700	0	194.70	0	5.7360	0	33.6970	0	26.558	0	192.980	0	159.1	4	52.2	4	-1E+10	1	-1E+10	1	-1E+10	1	-1E+10	1	-1E+10	1	-1E+10	1
4902549	109	C	08/21/2023	01:00	-132.570	47.700	0	195.70	0	5.7230	0	33.7020	0	26.563	0	193.971	0	158.1	4	51.8	4	-1E+10	1	-1E+10	1	-1E+10	1	-1E+10	1	-1E+10	1	-1E+10	1
4902549	109	C	08/21/2023	01:00	-132.570	47.700	0	196.60	0	5.7060	0	33.7070	0	26.569	0	194.863	0	157.0	4	51.4	4	-1E+10	1	-1E+10	1	-1E+10	1	-1E+10	1	-1E+10	1	-1E+10	1
4902549	109	C	08/21/2023	01:00	-132.570	47.700	0	197.50	0	5.6970	0	33.7090	0	26.572	0	195.754	0	155.8	4	51.0	4	-1E+10	1	-1E+10	1	-1E+10	1	-1E+10	1	-1E+10	1	-1E+10	1
4902549	109	C	08/21/2023	01:00	-132.570	47.700	0	198.90	0	5.6890	0	33.7110	0	26.575	0	197.141	0	154.0	4	50.4	4	-1E+10	1	-1E+10	1	-1E+10	1	-1E+10	1	-1E+10	1	-1E+10	1
4902549	109	C	08/21/2023	01:00	-132.570	47.700	0	200.40	0	5.6720	0	33.7140	0	26.579	0	198.627	0	152.1	4	49.8	4	-1E+10	1	-1E+10	1	-1E+10	1	-1E+10	1	-1E+10	1	-1E+10	1
4902549	109	C	08/21/2023	01:00	-132.570	47.700	0	201.30	0	5.6670	0	33.7150	0	26.580	0	199.519	0	150.6	4	49.3	4	-1E+10	1	-1E+10	1	-1E+10	1	-1E+10	1	-1E+10	1	-1E+10	1
4902549	109	C	08/21/2023	01:00	-132.570	47.700	0	202.20	0	5.6520	0	33.7190	0	26.585	0	200.411	0	149.3	4	48.8	4	-1E+10	1	-1E+10	1	-1E+10	1	-1E+10	1	-1E+10	1	-1E+10	1
4902549	109	C	08/21/2023	01:00	-132.570	47.700	0	203.10	0	5.6360	0	33.7220	0	26.590	0	201.302	0	148.1	4	48.5	4	-1E+10	1	-1E+10	1	-1E+10	1	-1E+10	1	-1E+10	1	-1E+10	1
4902549	109	C	08/21/2023	01:00	-132.570	47.700	0	204.00	0	5.6250	0	33.7240	0	26.593	0	202.194	0	147.0	4	48.1	4	-1E+10	1	-1E+10	1	-1E+10	1	-1E+10	1	-1E+10	1	-1E+10	1
4902549	109	C	08/21/2023	01:00	-132.570	47.700	0	204.90	0	5.6140	0	33.7240	0	26.594	0	203.085	0	145.9	4	47.7	4	-1E+10	1	-1E+10	1	-1E+10	1	-1E+10	1	-1E+10	1	-1E+10	1
4902549	109	C	08/21/2023	01:00	-132.570	47.700	0	205.90	0	5.6060	0	33.7250	0	26.596	0	204.076	0	144.8	4	47.3	4	-1E+10	1	-1E+10	1	-1E+10	1	-1E+10	1	-1E+10	1	-1E+10	1
4902549	109	C	08/21/2023	01:00	-132.570	47.700	0	206.80	0	5.5730	0	33.7300	0	26.604	0	204.968	0	144.0	4	47.0	4	-1E+10	1	-1E+10	1	-1E+10	1	-1E+10	1	-1E+10	1	-1E+10	1
4902549	109	C	08/21/2023	01:00	-132.570	47.700	0	207.70	0	5.5710	0	33.7290	0	26.603	0	205.859	0	143.1	4	46.7	4	-1E+10	1	-1E+10	1	-1E+10	1	-1E+10	1	-1E+10	1	-1E+10	1
4902549	109	C	08/21/2023	01:00	-132.570	47.700	0	208.60	0	5.5650	0	33.7310	0	26.605	0	206.751	0	142.1	4	46.4	4	-1E+10	1	-1E+10	1	-1E+10	1	-1E+10	1	-1E+10	1	-1E+10	1
4902549	109	C	08/21/2023	01:00	-132.570	47.700	0	209.50	0	5.5640	0	33.7310	0	26.606	0	207.642	0	141.0	4	46.1	4	-1E+10	1	-1E+10	1	-1E+10	1	-1E+10	1	-1E+10	1	-1E+10	1
4902549	109	C	08/21/2023	01:00	-132.570	47.700	0	210.90	0	5.5350	0	33.7330	0	26.611	0	209.029	0	139.5	4	45.5	4	-1E+10	1	-1E+10	1	-1E+10	1	-1E+10	1	-1E+10	1	-1E+10	1
4902549	109	C	08/21/2023	01:00	-132.570	47.700	0	212.40	0	5.5040	0	33.7390	0	26.619	0	210.515	0	138.3	4	45.1	4	-1E+10	1	-1E+10	1	-1E+10	1	-1E+10	1	-1E+10	1	-1E+10	1
4902549	109	C	08/21/2023	01:00	-132.570	47.700	0	213.30	0	5.4900	0	33.7380	0	26.620	0	211.407	0	137.6	4	44.9	4	-1E+10	1	-1E+10	1	-1E+10	1	-1E+10	1	-1E+10	1	-1E+10	1
4902549	109	C	08/21/2023	01:00	-132.570	47.700	0	214.20	0	5.4760	0	33.7400	0	26.623	0	212.298	0	136.9	4	44.6	4	-1E+10	1	-1E+10	1	-1E+10	1	-1E+10	1	-1E+10	1	-1E+10	1
4902549	109	C	08/21/2023	01:00	-132.570	47.700	0	215.20	0	5.4700	0	33.7400	0	26.624	0	213.289	0	136.2	4	44.4	4	-1E+10	1	-1E+10	1	-1E+10	1	-1E+10	1	-1E+10	1	-1E+10	1
4902549	109	C	08/21/2023	01:00	-132.570	47.700	0	216.10	0	5.4480	0	33.7450	0	26.630	0	214.180	0	135.5	4	44.1	4	-1E+10	1	-1E+10	1	-1E+10	1	-1E+10	1	-1E+10	1	-1E+10	1
4902549	109	C	08/21/2023	01:00	-132.570	47.700	0	217.10	0	5.4380	0	33.7460	0	26.632	0	215.171	0	134.7	4	43.9	4	-1E+10	1	-1E+10	1	-1E+10	1	-1E+10	1	-1E+10	1	-1E+10	1
4902549	109	C	08/21/2023	01:00	-132.570	47.700	0	218.00	0	5.4230	0	33.7470	0	26.635	0	216.063	0	133.9	4	43.6	4	-1E+10	1	-1E+10	1	-1E+10	1	-1E+10	1	-1E+10	1	-1E+10	1
4902549	109	C	08/21/2023	01:00	-132.570	47.700	0	219.00	0	5.4180	0	33.7470	0	26.636	0	217.053	0	133.1	4	43.3	4	-1E+10	1	-1E+10	1	-1E+10	1	-1E+10	1	-1E+10	1	-1E+10	1
4902549	109	C	08/21/2023	01:00	-132.570	47.700	0	219.90	0	5.4120	0	33.7480	0	26.637	0	217.945	0	132.3	4	43.1	4	-1E+10	1	-1E+10	1	-1E+10	1	-1E+10	1	-1E+10	1	-1E+10	1
4902549	109	C	08/21/2023	01:00	-132.570	47.700	0	220.90	0	5.3820	0	33.7490	0	26.641	0	218.935	0	131.6	4	42.8	4	-1E+10	1	-1E+10	1	-1E+10	1	-1E+10	1	-1E+10	1	-1E+10	1
4902549	109	C	08/21/2023	01:00	-132.570	47.700	0	221.90	0	5.3810	0	33.7500	0	26.642	0	219.926	0	130.8	4	42.5	4	-1E+10	1	-1E+10	1	-1E+10	1	-1E+10	1	-1E+10	1	-1E+10	1
4902549	109	C	08/21/2023	01:00	-132.570	47.700	0	222.90	0	5.3790	0	33.7490	0	26.642	0	220.916	0	129.8	4	42.2	4	-1E+10	1	-1E+10	1	-1E+10	1	-1E+10	1	-1E+10	1	-1E+10	1
4902549	109	C	08/21/2023	01:00	-132.570	47.700	0	223.80	0	5.3720	0	33.7500	0	26.643	0	221.808	0	128.8	4	41.9	4	-1E+10	1	-1E+10	1	-1E+10	1	-1E+10	1	-1E+10	1	-1E+10	1
4902549	109	C	08/21/2023	01:00	-132.570	47.700	0	224.80	0	5.3420	0	33.7540	0	26.650	0	222.798	0	127.8	4	41.5	4	-1E+10	1	-1E+10	1	-1E+10	1	-1E+10	1	-1E+10	1	-1E+10	1
4902549	109	C	08/21/2023	01:00	-132.570	47.700	0	225.80	0	5.3270	0	33.7520	0	26.650	0	223.789	0	127.0	4	41.2	4	-1E+10	1	-1E+10	1	-1E+10	1	-1E+10	1	-1E+10	1	-1E+10	1
4902549	109	C	08/21/2023	01:00	-132.570	47.700	0	226.80	0	5.3190	0	33.7520	0	26.651	0	224.780	0	126.1	4	40.9	4	-1E+10	1	-1E+10	1	-1E+10	1	-1E+10	1	-1E+10	1	-1E+10	1
4902549	109	C	08/21/2023	01:00	-132.570	47.700	0	227.80	0	5.3190	0	33.7510	0	26.650	0	225.770	0	125.0	4	40.6	4	-1E+10	1	-1E+10	1	-1E+10	1	-1E+10	1	-1E+10	1	-1E+10	1
4902549	109	C	08/21/2023	01:00	-132.570	47.700	0	228.80	0	5.3050	0	33.7540	0	26.655	0	226.761	0	124.0	4	40.3	4	-1E+10	1	-1E+10	1	-1E+10	1	-1E+10	1	-1E+10	1	-1E+10	1
4902549	109	C	08/21/2023	01:00	-132.570	47.700	0	229.80	0	5.2860	0	33.7540	0	26.657	0	227.751	0	123.1	4	39.9	4	-1E+10	1	-1E+10	1	-1E+10	1	-1E+10	1	-1E+10	1	-1E+10	1
4902549	109	C	08/21/2023	01:00	-132.570	47.700	0	230.80	0	5.2550	0	33.7560	0	26.662	0	228.742	0	122.3	4	39.7	4	-1E+10	1	-1E+10	1	-1E+10	1	-1E+10	1	-1E+10	1	-1E+10	1
4902549	109	C	08/21/2023	01:00	-132.570	47.700	0	231.80	0	5.2270	0	33.7580	0	26.667	0	229.732	0	121.7	4	39.4	4	-1E+10	1	-1E+10	1	-1E+10	1	-1E+10	1	-1E+10	1	-1E+10	1
4902549	109	C	08/21/2023	01:00	-132.570	47.700	0	232.80	0	5.1990	0	33.7590	0	26.671	0	230.723	0	121.2	4	39.2	4	-1E+10	1	-1E+10	1	-1E+10	1	-1E+10	1	-1E+10	1	-1E+10	1
4902549	109	C	08/21/2023	01:00	-132.570	47.700	0	233.80	0	5.1890	0	33.7600	0	26.673	0	231.713	0	120.6	4	39.1	4	-1E+10	1	-1E+10	1	-1E+10	1	-1E+10	1	-1E+10	1	-1E+10	1
4902549	109	C	08/21/2023	01:00	-132.570	47.700	0	234.90	0	5.1790	0	33.7600	0	26.674	0	232.803	0	120.0	4	38.9	4	-1E+10	1	-1E+10	1	-1E+10	1	-1E+10	1	-1E+10	1	-1E+10	1
4902549	109	C	08/21/2023	01:00	-132.570	47.700	0	235.90	0	5.1650	0	33.7620	0	26.677	0	233.793	0	119.5	4	38.7	4	-1E+10	1	-1E+10	1	-1E+10	1	-1E+10	1	-1E+10	1	-1E+10	1
4902549	109	C	08/21/2023	01:00	-132.570	47.700	0	236.90	0	5.1500	0	33.7630	0	26.680	0	234.784	0	119.0	4	38.5	4	-1E+10	1	-1E+10	1	-1E+10	1	-1E+10	1	-1E+10	1	-1E+10	1
4902549	109	C	08/21/2023	01:00	-132.570	47.700	0	238.00	0	5.1410	0	33.7630	0	26.681	0	235.873	0	118.5	4	38.3	4	-1E+10	1	-1E+10	1	-1E+10	1	-1E+10	1	-1E+10	1	-1E+10	1
4902549	109	C	08/21/2023	01:00	-132.570	47.700	0	239.00	0	5.1290	0	33.7640	0	26.683	0	236.864	0	118.1	4	38.2	4	-1E+10	1	-1E+10	1	-1E+10	1	-1E+10	1	-1E+10	1	-1E+10	1
4902549	109	C	08/21/2023	01:00	-132.570	47.700	0	240.00	0	5.1260	0	33.7640	0	26.683	0	237.854	0	117.7	4	38.1	4	-1E+10	1	-1E+10	1	-1E+10	1	-1E+10	1	-1E+10	1	-1E+10	1
4902549	109	C	08/21/2023	01:00	-132.570	47.700	0	241.10	0	5.1180	0	33.7650	0	26.685	0	238.944	0	117.2	4	37.9	4	-1E+10	1	-1E+10	1	-1E+10	1	-1E+10	1	-1E+10	1	-1E+10	1
4902549	109	C	08/21/2023	01:00	-132.570	47.700	0	242.10	0	5.1110	0	33.7650	0	26.686	0	239.934	0	116.8	4	37.7	4	-1E+10	1	-1E+10	1	-1E+10	1	-1E+10	1	-1E+10	1	-1E+10	1
4902549	109	C	08/21/2023	01:00	-132.570	47.700	0	243.20	0	5.1110	0	33.7650	0	26.686	0	241.024	0	116.2	4	37.6	4	-1E+10	1	-1E+10	1	-1E+10	1	-1E+10	1	-1E+10	1	-1E+10	1
4902549	109	C	08/21/2023	01:00	-132.570	47.700	0	244.20	0	5.1100	0	33.7650	0	26.686	0	242.014	0	115.6	4	37.4	4	-1E+10	1	-1E+10	1	-1E+10	1	-1E+10	1	-1E+10	1	-1E+10	1
4902549	109	C	08/21/2023	01:00	-132.570	47.700	0	245.20	0	5.1050	0	33.7650	0	26.686	0	243.005	0	115.0	4	37.2	4	-1E+10	1	-1E+10	1	-1E+10	1	-1E+10	1	-1E+10	1	-1E+10	1
4902549	109	C	08/21/2023	01:00	-132.570	47.700	0	246.30	0	5.0940	0	33.7660	0	26.689	0	244.094	0	114.3	4	36.9	4	-1E+10	1	-1E+10	1	-1E+10	1	-1E+10	1	-1E+10	1	-1E+10	1
4902549	109	C	08/21/2023	01:00	-132.570	47.700	0	247.30	0	5.0850	0	33.7670	0	26.690	0	245.085	0	113.7	4	36.7	4	-1E+10	1	-1E+10	1	-1E+10	1	-1E+10	1	-1E+10	1	-1E+10	1
4902549	109	C	08/21/2023	01:00	-132.570	47.700	0	248.40	0	5.0780	0	33.7680	0	26.692	0	246.174	0	113.0	4	36.5	4	-1E+10	1	-1E+10	1	-1E+10	1	-1E+10	1	-1E+10	1	-1E+10	1
4902549	109	C	08/21/2023	01:00	-132.570	47.700	0	249.40	0	5.0750	0	33.7680	0	26.692	0	247.165	0	112.3	4	36.3	4	-1E+10	1	-1E+10	1	-1E+10	1	-1E+10	1	-1E+10	1	-1E+10	1
4902549	109	C	08/21/2023	01:00	-132.570	47.700	0	250.40	0	5.0710	0	33.7670	0	26.692	0	248.155	0	111.5	4	36.0	4	-1E+10	1	-1E+10	1	-1E+10	1	-1E+10	1	-1E+10	1	-1E+10	1
4902549	109	C	08/21/2023	01:00	-132.570	47.700	0	251.50	0	5.0510	0	33.7710	0	26.697	0	249.245	0	110.8	4	35.8	4	-1E+10	1	-1E+10	1	-1E+10	1	-1E+10	1	-1E+10	1	-1E+10	1
4902549	109	C	08/21/2023	01:00	-132.570	47.700	0	252.50	0	5.0450	0	33.7710	0	26.698	0	250.235	0	110.2	4	35.6	4	-1E+10	1	-1E+10	1	-1E+10	1	-1E+10	1	-1E+10	1	-1E+10	1
4902549	109	C	08/21/2023	01:00	-132.570	47.700	0	253.50	0	5.0270	0	33.7730	0	26.702	0	251.225	0	109.6	4	35.3	4	-1E+10	1	-1E+10	1	-1E+10	1	-1E+10	1	-1E+10	1	-1E+10	1
4902549	109	C	08/21/2023	01:00	-132.570	47.700	0	254.60	0	5.0080	0	33.7740	0	26.705	0	252.315	0	109.1	4	35.2	4	-1E+10	1	-1E+10	1	-1E+10	1	-1E+10	1	-1E+10	1	-1E+10	1
4902549	109	C	08/21/2023	01:00	-132.570	47.700	0	255.60	0	5.0080	0	33.7770	0	26.707	0	253.305	0	108.6	4	35.0	4	-1E+10	1	-1E+10	1	-1E+10	1	-1E+10	1	-1E+10	1	-1E+10	1
4902549	109	C	08/21/2023	01:00	-132.570	47.700	0	256.60	0	4.9980	0	33.7760	0	26.707	0	254.296	0	108.0	4	34.8	4	-1E+10	1	-1E+10	1	-1E+10	1	-1E+10	1	-1E+10	1	-1E+10	1
4902549	109	C	08/21/2023	01:00	-132.570	47.700	0	257.70	0	4.9930	0	33.7760	0	26.708	0	255.385	0	107.5	4	34.7	4	-1E+10	1	-1E+10	1	-1E+10	1	-1E+10	1	-1E+10	1	-1E+10	1
4902549	109	C	08/21/2023	01:00	-132.570	47.700	0	258.70	0	4.9900	0	33.7760	0	26.708	0	256.376	0	107.0	4	34.5	4	-1E+10	1	-1E+10	1	-1E+10	1	-1E+10	1	-1E+10	1	-1E+10	1
4902549	109	C	08/21/2023	01:00	-132.570	47.700	0	259.70	0	4.9870	0	33.7770	0	26.710	0	257.366	0	106.4	4	34.3	4	-1E+10	1	-1E+10	1	-1E+10	1	-1E+10	1	-1E+10	1	-1E+10	1
4902549	109	C	08/21/2023	01:00	-132.570	47.700	0	260.80	0	4.9840	0	33.7760	0	26.709	0	258.455	0	105.7	4	34.1	4	-1E+10	1	-1E+10	1	-1E+10	1	-1E+10	1	-1E+10	1	-1E+10	1
4902549	109	C	08/21/2023	01:00	-132.570	47.700	0	261.80	0	4.9810	0	33.7770	0	26.710	0	259.446	0	105.0	4	33.8	4	-1E+10	1	-1E+10	1	-1E+10	1	-1E+10	1	-1E+10	1	-1E+10	1
4902549	109	C	08/21/2023	01:00	-132.570	47.700	0	262.80	0	4.9760	0	33.7770	0	26.711	0	260.436	0	104.1	4	33.5	4	-1E+10	1	-1E+10	1	-1E+10	1	-1E+10	1	-1E+10	1	-1E+10	1
4902549	109	C	08/21/2023	01:00	-132.570	47.700	0	263.90	0	4.9610	0	33.7790	0	26.714	0	261.526	0	103.3	4	33.3	4	-1E+10	1	-1E+10	1	-1E+10	1	-1E+10	1	-1E+10	1	-1E+10	1
4902549	109	C	08/21/2023	01:00	-132.570	47.700	0	264.90	0	4.9450	0	33.7810	0	26.717	0	262.516	0	102.5	4	33.0	4	-1E+10	1	-1E+10	1	-1E+10	1	-1E+10	1	-1E+10	1	-1E+10	1
4902549	109	C	08/21/2023	01:00	-132.570	47.700	0	265.90	0	4.9450	0	33.7800	0	26.717	0	263.506	0	101.6	4	32.7	4	-1E+10	1	-1E+10	1	-1E+10	1	-1E+10	1	-1E+10	1	-1E+10	1
4902549	109	C	08/21/2023	01:00	-132.570	47.700	0	266.80	0	4.9430	0	33.7810	0	26.718	0	264.398	0	100.6	4	32.4	4	-1E+10	1	-1E+10	1	-1E+10	1	-1E+10	1	-1E+10	1	-1E+10	1
4902549	109	C	08/21/2023	01:00	-132.570	47.700	0	267.90	0	4.9330	0	33.7820	0	26.720	0	265.487	0	99.2	4	31.9	4	-1E+10	1	-1E+10	1	-1E+10	1	-1E+10	1	-1E+10	1	-1E+10	1
4902549	109	C	08/21/2023	01:00	-132.570	47.700	0	268.70	0	4.9190	0	33.7830	0	26.722	0	266.279	0	98.4	4	31.7	4	-1E+10	1	-1E+10	1	-1E+10	1	-1E+10	1	-1E+10	1	-1E+10	1
4902549	109	C	08/21/2023	01:00	-132.570	47.700	0	269.80	0	4.8950	0	33.7860	0	26.727	0	267.369	0	97.1	4	31.2	4	-1E+10	1	-1E+10	1	-1E+10	1	-1E+10	1	-1E+10	1	-1E+10	1
4902549	109	C	08/21/2023	01:00	-132.570	47.700	0	271.00	0	4.8790	0	33.7890	0	26.731	0	268.557	0	95.9	4	30.8	4	-1E+10	1	-1E+10	1	-1E+10	1	-1E+10	1	-1E+10	1	-1E+10	1
4902549	109	C	08/21/2023	01:00	-132.570	47.700	0	271.80	0	4.8590	0	33.7920	0	26.736	0	269.349	0	95.2	4	30.6	4	-1E+10	1	-1E+10	1	-1E+10	1	-1E+10	1	-1E+10	1	-1E+10	1
4902549	109	C	08/21/2023	01:00	-132.570	47.700	0	273.00	0	4.8370	0	33.7960	0	26.742	0	270.538	0	94.3	4	30.3	4	-1E+10	1	-1E+10	1	-1E+10	1	-1E+10	1	-1E+10	1	-1E+10	1
4902549	109	C	08/21/2023	01:00	-132.570	47.700	0	274.20	0	4.8270	0	33.7970	0	26.743	0	271.726	0	93.4	4	30.0	4	-1E+10	1	-1E+10	1	-1E+10	1	-1E+10	1	-1E+10	1	-1E+10	1
4902549	109	C	08/21/2023	01:00	-132.570	47.700	0	275.00	0	4.8100	0	33.8000	0	26.748	0	272.518	0	92.9	4	29.8	4	-1E+10	1	-1E+10	1	-1E+10	1	-1E+10	1	-1E+10	1	-1E+10	1
4902549	109	C	08/21/2023	01:00	-132.570	47.700	0	275.80	0	4.8010	0	33.8000	0	26.749	0	273.311	0	92.5	4	29.7	4	-1E+10	1	-1E+10	1	-1E+10	1	-1E+10	1	-1E+10	1	-1E+10	1
4902549	109	C	08/21/2023	01:00	-132.570	47.700	0	277.00	0	4.7930	0	33.8000	0	26.750	0	274.499	0	91.8	4	29.4	4	-1E+10	1	-1E+10	1	-1E+10	1	-1E+10	1	-1E+10	1	-1E+10	1
4902549	109	C	08/21/2023	01:00	-132.570	47.700	0	278.20	0	4.7830	0	33.8020	0	26.752	0	275.687	0	91.1	4	29.2	4	-1E+10	1	-1E+10	1	-1E+10	1	-1E+10	1	-1E+10	1	-1E+10	1
4902549	109	C	08/21/2023	01:00	-132.570	47.700	0	279.00	0	4.7800	0	33.8020	0	26.753	0	276.480	0	90.6	4	29.1	4	-1E+10	1	-1E+10	1	-1E+10	1	-1E+10	1	-1E+10	1	-1E+10	1
4902549	109	C	08/21/2023	01:00	-132.570	47.700	0	279.80	0	4.7780	0	33.8020	0	26.753	0	277.272	0	90.1	4	28.9	4	-1E+10	1	-1E+10	1	-1E+10	1	-1E+10	1	-1E+10	1	-1E+10	1
4902549	109	C	08/21/2023	01:00	-132.570	47.700	0	281.00	0	4.7640	0	33.8040	0	26.756	0	278.460	0	89.4	4	28.7	4	-1E+10	1	-1E+10	1	-1E+10	1	-1E+10	1	-1E+10	1	-1E+10	1
4902549	109	C	08/21/2023	01:00	-132.570	47.700	0	282.30	0	4.7530	0	33.8080	0	26.760	0	279.748	0	88.7	4	28.5	4	-1E+10	1	-1E+10	1	-1E+10	1	-1E+10	1	-1E+10	1	-1E+10	1
4902549	109	C	08/21/2023	01:00	-132.570	47.700	0	283.10	0	4.7470	0	33.8070	0	26.760	0	280.540	0	88.4	4	28.3	4	-1E+10	1	-1E+10	1	-1E+10	1	-1E+10	1	-1E+10	1	-1E+10	1
4902549	109	C	08/21/2023	01:00	-132.570	47.700	0	284.00	0	4.7430	0	33.8080	0	26.762	0	281.431	0	88.0	4	28.2	4	-1E+10	1	-1E+10	1	-1E+10	1	-1E+10	1	-1E+10	1	-1E+10	1
4902549	109	C	08/21/2023	01:00	-132.570	47.700	0	284.80	0	4.7400	0	33.8080	0	26.762	0	282.223	0	87.6	4	28.1	4	-1E+10	1	-1E+10	1	-1E+10	1	-1E+10	1	-1E+10	1	-1E+10	1
4902549	109	C	08/21/2023	01:00	-132.570	47.700	0	285.70	0	4.7350	0	33.8090	0	26.763	0	283.115	0	87.1	4	27.9	4	-1E+10	1	-1E+10	1	-1E+10	1	-1E+10	1	-1E+10	1	-1E+10	1
4902549	109	C	08/21/2023	01:00	-132.570	47.700	0	286.90	0	4.7240	0	33.8110	0	26.766	0	284.303	0	86.5	4	27.7	4	-1E+10	1	-1E+10	1	-1E+10	1	-1E+10	1	-1E+10	1	-1E+10	1
4902549	109	C	08/21/2023	01:00	-132.570	47.700	0	288.30	0	4.7140	0	33.8130	0	26.769	0	285.689	0	86.0	4	27.5	4	-1E+10	1	-1E+10	1	-1E+10	1	-1E+10	1	-1E+10	1	-1E+10	1
4902549	109	C	08/21/2023	01:00	-132.570	47.700	0	289.20	0	4.7070	0	33.8150	0	26.771	0	286.580	0	85.6	4	27.4	4	-1E+10	1	-1E+10	1	-1E+10	1	-1E+10	1	-1E+10	1	-1E+10	1
4902549	109	C	08/21/2023	01:00	-132.570	47.700	0	290.10	0	4.7060	0	33.8150	0	26.771	0	287.472	0	85.2	4	27.3	4	-1E+10	1	-1E+10	1	-1E+10	1	-1E+10	1	-1E+10	1	-1E+10	1
4902549	109	C	08/21/2023	01:00	-132.570	47.700	0	291.00	0	4.7020	0	33.8160	0	26.772	0	288.363	0	84.9	4	27.2	4	-1E+10	1	-1E+10	1	-1E+10	1	-1E+10	1	-1E+10	1	-1E+10	1
4902549	109	C	08/21/2023	01:00	-132.570	47.700	0	291.90	0	4.6940	0	33.8180	0	26.775	0	289.254	0	84.5	4	27.1	4	-1E+10	1	-1E+10	1	-1E+10	1	-1E+10	1	-1E+10	1	-1E+10	1
4902549	109	C	08/21/2023	01:00	-132.570	47.700	0	292.80	0	4.6860	0	33.8200	0	26.777	0	290.145	0	84.2	4	27.0	4	-1E+10	1	-1E+10	1	-1E+10	1	-1E+10	1	-1E+10	1	-1E+10	1
4902549	109	C	08/21/2023	01:00	-132.570	47.700	0	293.70	0	4.6860	0	33.8200	0	26.777	0	291.037	0	83.9	4	26.9	4	-1E+10	1	-1E+10	1	-1E+10	1	-1E+10	1	-1E+10	1	-1E+10	1
4902549	109	C	08/21/2023	01:00	-132.570	47.700	0	294.60	0	4.6850	0	33.8200	0	26.778	0	291.928	0	83.5	4	26.7	4	-1E+10	1	-1E+10	1	-1E+10	1	-1E+10	1	-1E+10	1	-1E+10	1
4902549	109	C	08/21/2023	01:00	-132.570	47.700	0	295.90	0	4.6830	0	33.8200	0	26.778	0	293.215	0	82.9	4	26.5	4	-1E+10	1	-1E+10	1	-1E+10	1	-1E+10	1	-1E+10	1	-1E+10	1
4902549	109	C	08/21/2023	01:00	-132.570	47.700	0	297.30	0	4.6790	0	33.8210	0	26.779	0	294.601	0	82.3	4	26.3	4	-1E+10	1	-1E+10	1	-1E+10	1	-1E+10	1	-1E+10	1	-1E+10	1
4902549	109	C	08/21/2023	01:00	-132.570	47.700	0	298.30	0	4.6740	0	33.8220	0	26.780	0	295.592	0	81.9	4	26.2	4	-1E+10	1	-1E+10	1	-1E+10	1	-1E+10	1	-1E+10	1	-1E+10	1
4902549	109	C	08/21/2023	01:00	-132.570	47.700	0	299.10	0	4.6700	0	33.8230	0	26.782	0	296.384	0	81.4	4	26.1	4	-1E+10	1	-1E+10	1	-1E+10	1	-1E+10	1	-1E+10	1	-1E+10	1
4902549	109	C	08/21/2023	01:00	-132.570	47.700	0	300.10	0	4.6620	0	33.8250	0	26.784	0	297.374	0	81.1	4	25.9	4	-1E+10	1	-1E+10	1	-1E+10	1	-1E+10	1	-1E+10	1	-1E+10	1
4902549	109	C	08/21/2023	01:00	-132.570	47.700	0	301.00	0	4.6540	0	33.8270	0	26.787	0	298.265	0	80.8	4	25.8	4	-1E+10	1	-1E+10	1	-1E+10	1	-1E+10	1	-1E+10	1	-1E+10	1
4902549	109	C	08/21/2023	01:00	-132.570	47.700	0	301.90	0	4.6510	0	33.8280	0	26.788	0	299.156	0	80.4	4	25.7	4	-1E+10	1	-1E+10	1	-1E+10	1	-1E+10	1	-1E+10	1	-1E+10	1
4902549	109	C	08/21/2023	01:00	-132.570	47.700	0	302.80	0	4.6480	0	33.8280	0	26.788	0	300.047	0	80.1	4	25.6	4	-1E+10	1	-1E+10	1	-1E+10	1	-1E+10	1	-1E+10	1	-1E+10	1
4902549	109	C	08/21/2023	01:00	-132.570	47.700	0	303.70	0	4.6470	0	33.8280	0	26.788	0	300.939	0	79.8	4	25.5	4	-1E+10	1	-1E+10	1	-1E+10	1	-1E+10	1	-1E+10	1	-1E+10	1
4902549	109	C	08/21/2023	01:00	-132.570	47.700	0	304.60	0	4.6430	0	33.8300	0	26.790	0	301.830	0	79.4	4	25.4	4	-1E+10	1	-1E+10	1	-1E+10	1	-1E+10	1	-1E+10	1	-1E+10	1
4902549	109	C	08/21/2023	01:00	-132.570	47.700	0	305.90	0	4.6290	0	33.8320	0	26.793	0	303.117	0	79.0	4	25.3	4	-1E+10	1	-1E+10	1	-1E+10	1	-1E+10	1	-1E+10	1	-1E+10	1
4902549	109	C	08/21/2023	01:00	-132.570	47.700	0	307.30	0	4.6240	0	33.8340	0	26.795	0	304.503	0	78.6	4	25.1	4	-1E+10	1	-1E+10	1	-1E+10	1	-1E+10	1	-1E+10	1	-1E+10	1
4902549	109	C	08/21/2023	01:00	-132.570	47.700	0	308.20	0	4.6230	0	33.8340	0	26.795	0	305.394	0	78.3	4	25.0	4	-1E+10	1	-1E+10	1	-1E+10	1	-1E+10	1	-1E+10	1	-1E+10	1
4902549	109	C	08/21/2023	01:00	-132.570	47.700	0	309.20	0	4.6190	0	33.8350	0	26.797	0	306.385	0	78.0	4	24.9	4	-1E+10	1	-1E+10	1	-1E+10	1	-1E+10	1	-1E+10	1	-1E+10	1
4902549	109	C	08/21/2023	01:00	-132.570	47.700	0	310.10	0	4.6150	0	33.8360	0	26.798	0	307.276	0	77.7	4	24.8	4	-1E+10	1	-1E+10	1	-1E+10	1	-1E+10	1	-1E+10	1	-1E+10	1
4902549	109	C	08/21/2023	01:00	-132.570	47.700	0	311.00	0	4.6140	0	33.8360	0	26.798	0	308.167	0	77.3	4	24.7	4	-1E+10	1	-1E+10	1	-1E+10	1	-1E+10	1	-1E+10	1	-1E+10	1
4902549	109	C	08/21/2023	01:00	-132.570	47.700	0	311.90	0	4.6120	0	33.8360	0	26.798	0	309.058	0	76.9	4	24.6	4	-1E+10	1	-1E+10	1	-1E+10	1	-1E+10	1	-1E+10	1	-1E+10	1
4902549	109	C	08/21/2023	01:00	-132.570	47.700	0	312.80	0	4.6100	0	33.8370	0	26.799	0	309.949	0	76.5	4	24.5	4	-1E+10	1	-1E+10	1	-1E+10	1	-1E+10	1	-1E+10	1	-1E+10	1
4902549	109	C	08/21/2023	01:00	-132.570	47.700	0	313.80	0	4.6080	0	33.8370	0	26.800	0	310.939	0	76.1	4	24.3	4	-1E+10	1	-1E+10	1	-1E+10	1	-1E+10	1	-1E+10	1	-1E+10	1
4902549	109	C	08/21/2023	01:00	-132.570	47.700	0	314.70	0	4.6000	0	33.8390	0	26.802	0	311.830	0	75.7	4	24.2	4	-1E+10	1	-1E+10	1	-1E+10	1	-1E+10	1	-1E+10	1	-1E+10	1
4902549	109	C	08/21/2023	01:00	-132.570	47.700	0	315.60	0	4.5950	0	33.8400	0	26.803	0	312.721	0	75.3	4	24.0	4	-1E+10	1	-1E+10	1	-1E+10	1	-1E+10	1	-1E+10	1	-1E+10	1
4902549	109	C	08/21/2023	01:00	-132.570	47.700	0	316.60	0	4.5860	0	33.8420	0	26.806	0	313.712	0	74.9	4	23.9	4	-1E+10	1	-1E+10	1	-1E+10	1	-1E+10	1	-1E+10	1	-1E+10	1
4902549	109	C	08/21/2023	01:00	-132.570	47.700	0	317.90	0	4.5790	0	33.8440	0	26.808	0	314.999	0	74.3	4	23.7	4	-1E+10	1	-1E+10	1	-1E+10	1	-1E+10	1	-1E+10	1	-1E+10	1
4902549	109	C	08/21/2023	01:00	-132.570	47.700	0	319.30	0	4.5670	0	33.8460	0	26.811	0	316.385	0	73.9	4	23.6	4	-1E+10	1	-1E+10	1	-1E+10	1	-1E+10	1	-1E+10	1	-1E+10	1
4902549	109	C	08/21/2023	01:00	-132.570	47.700	0	320.30	0	4.5610	0	33.8470	0	26.813	0	317.375	0	73.6	4	23.5	4	-1E+10	1	-1E+10	1	-1E+10	1	-1E+10	1	-1E+10	1	-1E+10	1
4902549	109	C	08/21/2023	01:00	-132.570	47.700	0	321.20	0	4.5570	0	33.8480	0	26.814	0	318.266	0	73.4	4	23.4	4	-1E+10	1	-1E+10	1	-1E+10	1	-1E+10	1	-1E+10	1	-1E+10	1
4902549	109	C	08/21/2023	01:00	-132.570	47.700	0	322.10	0	4.5520	0	33.8500	0	26.816	0	319.157	0	73.2	4	23.4	4	-1E+10	1	-1E+10	1	-1E+10	1	-1E+10	1	-1E+10	1	-1E+10	1
4902549	109	C	08/21/2023	01:00	-132.570	47.700	0	323.10	0	4.5510	0	33.8500	0	26.816	0	320.147	0	72.9	4	23.3	4	-1E+10	1	-1E+10	1	-1E+10	1	-1E+10	1	-1E+10	1	-1E+10	1
4902549	109	C	08/21/2023	01:00	-132.570	47.700	0	324.00	0	4.5510	0	33.8500	0	26.816	0	321.038	0	72.6	4	23.2	4	-1E+10	1	-1E+10	1	-1E+10	1	-1E+10	1	-1E+10	1	-1E+10	1
4902549	109	C	08/21/2023	01:00	-132.570	47.700	0	324.90	0	4.5490	0	33.8500	0	26.816	0	321.929	0	72.4	4	23.1	4	-1E+10	1	-1E+10	1	-1E+10	1	-1E+10	1	-1E+10	1	-1E+10	1
4902549	109	C	08/21/2023	01:00	-132.570	47.700	0	325.90	0	4.5470	0	33.8500	0	26.817	0	322.919	0	72.0	4	23.0	4	-1E+10	1	-1E+10	1	-1E+10	1	-1E+10	1	-1E+10	1	-1E+10	1
4902549	109	C	08/21/2023	01:00	-132.570	47.700	0	326.80	0	4.5450	0	33.8510	0	26.818	0	323.810	0	71.7	4	22.9	4	-1E+10	1	-1E+10	1	-1E+10	1	-1E+10	1	-1E+10	1	-1E+10	1
4902549	109	C	08/21/2023	01:00	-132.570	47.700	0	327.70	0	4.5390	0	33.8520	0	26.819	0	324.702	0	71.4	4	22.8	4	-1E+10	1	-1E+10	1	-1E+10	1	-1E+10	1	-1E+10	1	-1E+10	1
4902549	109	C	08/21/2023	01:00	-132.570	47.700	0	328.70	0	4.5350	0	33.8530	0	26.820	0	325.692	0	71.1	4	22.7	4	-1E+10	1	-1E+10	1	-1E+10	1	-1E+10	1	-1E+10	1	-1E+10	1
4902549	109	C	08/21/2023	01:00	-132.570	47.700	0	329.60	0	4.5340	0	33.8530	0	26.820	0	326.583	0	70.7	4	22.6	4	-1E+10	1	-1E+10	1	-1E+10	1	-1E+10	1	-1E+10	1	-1E+10	1
4902549	109	C	08/21/2023	01:00	-132.570	47.700	0	330.50	0	4.5310	0	33.8540	0	26.822	0	327.474	0	70.4	4	22.5	4	-1E+10	1	-1E+10	1	-1E+10	1	-1E+10	1	-1E+10	1	-1E+10	1
4902549	109	C	08/21/2023	01:00	-132.570	47.700	0	331.90	0	4.5250	0	33.8550	0	26.823	0	328.860	0	69.9	4	22.3	4	-1E+10	1	-1E+10	1	-1E+10	1	-1E+10	1	-1E+10	1	-1E+10	1
4902549	109	C	08/21/2023	01:00	-132.570	47.700	0	333.40	0	4.5220	0	33.8560	0	26.824	0	330.345	0	69.4	4	22.1	4	-1E+10	1	-1E+10	1	-1E+10	1	-1E+10	1	-1E+10	1	-1E+10	1
4902549	109	C	08/21/2023	01:00	-132.570	47.700	0	334.30	0	4.5200	0	33.8580	0	26.826	0	331.236	0	69.1	4	22.0	4	-1E+10	1	-1E+10	1	-1E+10	1	-1E+10	1	-1E+10	1	-1E+10	1
4902549	109	C	08/21/2023	01:00	-132.570	47.700	0	335.30	0	4.5170	0	33.8590	0	26.827	0	332.226	0	68.8	4	21.9	4	-1E+10	1	-1E+10	1	-1E+10	1	-1E+10	1	-1E+10	1	-1E+10	1
4902549	109	C	08/21/2023	01:00	-132.570	47.700	0	336.20	0	4.5180	0	33.8590	0	26.827	0	333.117	0	68.5	4	21.8	4	-1E+10	1	-1E+10	1	-1E+10	1	-1E+10	1	-1E+10	1	-1E+10	1
4902549	109	C	08/21/2023	01:00	-132.570	47.700	0	337.20	0	4.5190	0	33.8600	0	26.828	0	334.107	0	68.2	4	21.7	4	-1E+10	1	-1E+10	1	-1E+10	1	-1E+10	1	-1E+10	1	-1E+10	1
4902549	109	C	08/21/2023	01:00	-132.570	47.700	0	338.10	0	4.5050	0	33.8620	0	26.831	0	334.998	0	67.9	4	21.7	4	-1E+10	1	-1E+10	1	-1E+10	1	-1E+10	1	-1E+10	1	-1E+10	1
4902549	109	C	08/21/2023	01:00	-132.570	47.700	0	339.10	0	4.4960	0	33.8630	0	26.832	0	335.988	0	67.8	4	21.6	4	-1E+10	1	-1E+10	1	-1E+10	1	-1E+10	1	-1E+10	1	-1E+10	1
4902549	109	C	08/21/2023	01:00	-132.570	47.700	0	340.00	0	4.4910	0	33.8640	0	26.834	0	336.879	0	67.4	4	21.5	4	-1E+10	1	-1E+10	1	-1E+10	1	-1E+10	1	-1E+10	1	-1E+10	1
4902549	109	C	08/21/2023	01:00	-132.570	47.700	0	341.00	0	4.4900	0	33.8640	0	26.834	0	337.869	0	67.2	4	21.4	4	-1E+10	1	-1E+10	1	-1E+10	1	-1E+10	1	-1E+10	1	-1E+10	1
4902549	109	C	08/21/2023	01:00	-132.570	47.700	0	341.90	0	4.4850	0	33.8660	0	26.836	0	338.760	0	67.0	4	21.3	4	-1E+10	1	-1E+10	1	-1E+10	1	-1E+10	1	-1E+10	1	-1E+10	1
4902549	109	C	08/21/2023	01:00	-132.570	47.700	0	342.90	0	4.4790	0	33.8670	0	26.838	0	339.750	0	66.7	4	21.3	4	-1E+10	1	-1E+10	1	-1E+10	1	-1E+10	1	-1E+10	1	-1E+10	1
4902549	109	C	08/21/2023	01:00	-132.570	47.700	0	343.90	0	4.4730	0	33.8690	0	26.840	0	340.740	0	66.5	4	21.2	4	-1E+10	1	-1E+10	1	-1E+10	1	-1E+10	1	-1E+10	1	-1E+10	1
4902549	109	C	08/21/2023	01:00	-132.570	47.700	0	344.80	0	4.4710	0	33.8700	0	26.841	0	341.631	0	66.3	4	21.1	4	-1E+10	1	-1E+10	1	-1E+10	1	-1E+10	1	-1E+10	1	-1E+10	1
4902549	109	C	08/21/2023	01:00	-132.570	47.700	0	345.80	0	4.4690	0	33.8710	0	26.842	0	342.621	0	66.1	4	21.1	4	-1E+10	1	-1E+10	1	-1E+10	1	-1E+10	1	-1E+10	1	-1E+10	1
4902549	109	C	08/21/2023	01:00	-132.570	47.700	0	346.80	0	4.4670	0	33.8710	0	26.842	0	343.611	0	65.9	4	21.0	4	-1E+10	1	-1E+10	1	-1E+10	1	-1E+10	1	-1E+10	1	-1E+10	1
4902549	109	C	08/21/2023	01:00	-132.570	47.700	0	347.70	0	4.4650	0	33.8720	0	26.843	0	344.502	0	65.7	4	20.9	4	-1E+10	1	-1E+10	1	-1E+10	1	-1E+10	1	-1E+10	1	-1E+10	1
4902549	109	C	08/21/2023	01:00	-132.570	47.700	0	348.70	0	4.4610	0	33.8740	0	26.845	0	345.492	0	65.5	4	20.9	4	-1E+10	1	-1E+10	1	-1E+10	1	-1E+10	1	-1E+10	1	-1E+10	1
4902549	109	C	08/21/2023	01:00	-132.570	47.700	0	349.70	0	4.4640	0	33.8780	0	26.848	0	346.482	0	65.3	4	20.8	4	-1E+10	1	-1E+10	1	-1E+10	1	-1E+10	1	-1E+10	1	-1E+10	1
4902549	109	C	08/21/2023	01:00	-132.570	47.700	0	352.70	0	4.4570	0	33.8800	0	26.850	0	349.452	0	64.5	4	20.5	4	-1E+10	1	-1E+10	1	-1E+10	1	-1E+10	1	-1E+10	1	-1E+10	1
4902549	109	C	08/21/2023	01:00	-132.570	47.700	0	357.70	0	4.4450	0	33.8850	0	26.856	0	354.401	0	63.1	4	20.1	4	-1E+10	1	-1E+10	1	-1E+10	1	-1E+10	1	-1E+10	1	-1E+10	1
4902549	109	C	08/21/2023	01:00	-132.570	47.700	0	362.80	0	4.4300	0	33.8890	0	26.860	0	359.450	0	61.5	4	19.6	4	-1E+10	1	-1E+10	1	-1E+10	1	-1E+10	1	-1E+10	1	-1E+10	1
4902549	109	C	08/21/2023	01:00	-132.570	47.700	0	367.90	0	4.4140	0	33.8950	0	26.867	0	364.498	0	60.0	4	19.1	4	-1E+10	1	-1E+10	1	-1E+10	1	-1E+10	1	-1E+10	1	-1E+10	1
4902549	109	C	08/21/2023	01:00	-132.570	47.700	0	373.00	0	4.3940	0	33.9020	0	26.875	0	369.547	0	58.9	4	18.7	4	-1E+10	1	-1E+10	1	-1E+10	1	-1E+10	1	-1E+10	1	-1E+10	1
4902549	109	C	08/21/2023	01:00	-132.570	47.700	0	378.10	0	4.3900	0	33.9050	0	26.877	0	374.595	0	57.9	4	18.4	4	-1E+10	1	-1E+10	1	-1E+10	1	-1E+10	1	-1E+10	1	-1E+10	1
4902549	109	C	08/21/2023	01:00	-132.570	47.700	0	383.10	0	4.3820	0	33.9110	0	26.883	0	379.544	0	56.5	4	18.0	4	-1E+10	1	-1E+10	1	-1E+10	1	-1E+10	1	-1E+10	1	-1E+10	1
4902549	109	C	08/21/2023	01:00	-132.570	47.700	0	388.10	0	4.3720	0	33.9160	0	26.888	0	384.493	0	54.8	4	17.4	4	-1E+10	1	-1E+10	1	-1E+10	1	-1E+10	1	-1E+10	1	-1E+10	1
4902549	109	C	08/21/2023	01:00	-132.570	47.700	0	393.00	0	4.3570	0	33.9230	0	26.895	0	389.343	0	53.1	4	16.9	4	-1E+10	1	-1E+10	1	-1E+10	1	-1E+10	1	-1E+10	1	-1E+10	1
4902549	109	C	08/21/2023	01:00	-132.570	47.700	0	397.90	0	4.3390	0	33.9330	0	26.905	0	394.193	0	51.8	4	16.5	4	-1E+10	1	-1E+10	1	-1E+10	1	-1E+10	1	-1E+10	1	-1E+10	1
4902549	109	C	08/21/2023	01:00	-132.570	47.700	0	402.80	0	4.3310	0	33.9380	0	26.910	0	399.042	0	50.9	4	16.2	4	-1E+10	1	-1E+10	1	-1E+10	1	-1E+10	1	-1E+10	1	-1E+10	1
4902549	109	C	08/21/2023	01:00	-132.570	47.700	0	407.70	0	4.3210	0	33.9420	0	26.914	0	403.892	0	49.8	4	15.8	4	-1E+10	1	-1E+10	1	-1E+10	1	-1E+10	1	-1E+10	1	-1E+10	1
4902549	109	C	08/21/2023	01:00	-132.570	47.700	0	412.60	0	4.3130	0	33.9480	0	26.920	0	408.741	0	48.6	4	15.4	4	-1E+10	1	-1E+10	1	-1E+10	1	-1E+10	1	-1E+10	1	-1E+10	1
4902549	109	C	08/21/2023	01:00	-132.570	47.700	0	417.50	0	4.3030	0	33.9550	0	26.927	0	413.590	0	47.3	4	15.0	4	-1E+10	1	-1E+10	1	-1E+10	1	-1E+10	1	-1E+10	1	-1E+10	1
4902549	109	C	08/21/2023	01:00	-132.570	47.700	0	422.90	0	4.2960	0	33.9620	0	26.933	0	418.934	0	46.2	4	14.7	4	-1E+10	1	-1E+10	1	-1E+10	1	-1E+10	1	-1E+10	1	-1E+10	1
4902549	109	C	08/21/2023	01:00	-132.570	47.700	0	427.90	0	4.2890	0	33.9680	0	26.939	0	423.882	0	45.2	4	14.3	4	-1E+10	1	-1E+10	1	-1E+10	1	-1E+10	1	-1E+10	1	-1E+10	1
4902549	109	C	08/21/2023	01:00	-132.570	47.700	0	432.50	0	4.2850	0	33.9720	0	26.942	0	428.434	0	44.3	4	14.1	4	-1E+10	1	-1E+10	1	-1E+10	1	-1E+10	1	-1E+10	1	-1E+10	1
4902549	109	C	08/21/2023	01:00	-132.570	47.700	0	437.90	0	4.2750	0	33.9800	0	26.950	0	433.778	0	43.1	4	13.7	4	-1E+10	1	-1E+10	1	-1E+10	1	-1E+10	1	-1E+10	1	-1E+10	1
4902549	109	C	08/21/2023	01:00	-132.570	47.700	0	442.80	0	4.2710	0	33.9870	0	26.956	0	438.627	0	42.0	4	13.3	4	-1E+10	1	-1E+10	1	-1E+10	1	-1E+10	1	-1E+10	1	-1E+10	1
4902549	109	C	08/21/2023	01:00	-132.570	47.700	0	447.60	0	4.2680	0	33.9930	0	26.961	0	443.376	0	41.2	4	13.1	4	-1E+10	1	-1E+10	1	-1E+10	1	-1E+10	1	-1E+10	1	-1E+10	1
4902549	109	C	08/21/2023	01:00	-132.570	47.700	0	452.90	0	4.2630	0	33.9980	0	26.965	0	448.621	0	40.1	4	12.7	4	-1E+10	1	-1E+10	1	-1E+10	1	-1E+10	1	-1E+10	1	-1E+10	1
4902549	109	C	08/21/2023	01:00	-132.570	47.700	0	458.30	0	4.2560	0	34.0030	0	26.970	0	453.964	0	38.8	4	12.3	4	-1E+10	1	-1E+10	1	-1E+10	1	-1E+10	1	-1E+10	1	-1E+10	1
4902549	109	C	08/21/2023	01:00	-132.570	47.700	0	463.00	0	4.2430	0	34.0090	0	26.976	0	458.614	0	37.5	4	11.9	4	-1E+10	1	-1E+10	1	-1E+10	1	-1E+10	1	-1E+10	1	-1E+10	1
4902549	109	C	08/21/2023	01:00	-132.570	47.700	0	467.70	0	4.2400	0	34.0170	0	26.983	0	463.264	0	36.3	4	11.5	4	-1E+10	1	-1E+10	1	-1E+10	1	-1E+10	1	-1E+10	1	-1E+10	1
4902549	109	C	08/21/2023	01:00	-132.570	47.700	0	473.00	0	4.2420	0	34.0250	0	26.989	0	468.508	0	35.3	4	11.2	4	-1E+10	1	-1E+10	1	-1E+10	1	-1E+10	1	-1E+10	1	-1E+10	1
4902549	109	C	08/21/2023	01:00	-132.570	47.700	0	477.90	0	4.2370	0	34.0300	0	26.994	0	473.356	0	34.5	4	10.9	4	-1E+10	1	-1E+10	1	-1E+10	1	-1E+10	1	-1E+10	1	-1E+10	1
4902549	109	C	08/21/2023	01:00	-132.570	47.700	0	482.80	0	4.2140	0	34.0320	0	26.998	0	478.204	0	33.5	4	10.6	4	-1E+10	1	-1E+10	1	-1E+10	1	-1E+10	1	-1E+10	1	-1E+10	1
4902549	109	C	08/21/2023	01:00	-132.570	47.700	0	487.70	0	4.2390	0	34.0410	0	27.002	0	483.051	0	32.3	4	10.3	4	-1E+10	1	-1E+10	1	-1E+10	1	-1E+10	1	-1E+10	1	-1E+10	1
4902549	109	C	08/21/2023	01:00	-132.570	47.700	0	492.70	0	4.2440	0	34.0470	0	27.007	0	487.998	0	31.6	4	10.0	4	-1E+10	1	-1E+10	1	-1E+10	1	-1E+10	1	-1E+10	1	-1E+10	1
4902549	109	C	08/21/2023	01:00	-132.570	47.700	0	498.00	0	4.2290	0	34.0520	0	27.012	0	493.241	0	30.6	4	9.7	4	-1E+10	1	-1E+10	1	-1E+10	1	-1E+10	1	-1E+10	1	-1E+10	1
4902549	109	C	08/21/2023	01:00	-132.570	47.700	0	502.90	0	4.2400	0	34.0590	0	27.017	0	498.088	0	29.9	4	9.5	4	-1E+10	1	-1E+10	1	-1E+10	1	-1E+10	1	-1E+10	1	-1E+10	1
4902549	109	C	08/21/2023	01:00	-132.570	47.700	0	507.80	0	4.2320	0	34.0630	0	27.021	0	502.935	0	29.1	4	9.2	4	-1E+10	1	-1E+10	1	-1E+10	1	-1E+10	1	-1E+10	1	-1E+10	1
4902549	109	C	08/21/2023	01:00	-132.570	47.700	0	513.00	0	4.2260	0	34.0700	0	27.027	0	508.079	0	28.4	4	9.0	4	-1E+10	1	-1E+10	1	-1E+10	1	-1E+10	1	-1E+10	1	-1E+10	1
4902549	109	C	08/21/2023	01:00	-132.570	47.700	0	517.90	0	4.2210	0	34.0740	0	27.031	0	512.926	0	27.7	4	8.8	4	-1E+10	1	-1E+10	1	-1E+10	1	-1E+10	1	-1E+10	1	-1E+10	1
4902549	109	C	08/21/2023	01:00	-132.570	47.700	0	522.80	0	4.2220	0	34.0780	0	27.034	0	517.773	0	27.1	4	8.6	4	-1E+10	1	-1E+10	1	-1E+10	1	-1E+10	1	-1E+10	1	-1E+10	1
4902549	109	C	08/21/2023	01:00	-132.570	47.700	0	528.10	0	4.1960	0	34.0830	0	27.041	0	523.015	0	26.4	4	8.4	4	-1E+10	1	-1E+10	1	-1E+10	1	-1E+10	1	-1E+10	1	-1E+10	1
4902549	109	C	08/21/2023	01:00	-132.570	47.700	0	533.00	0	4.1830	0	34.0880	0	27.046	0	527.862	0	25.8	4	8.2	4	-1E+10	1	-1E+10	1	-1E+10	1	-1E+10	1	-1E+10	1	-1E+10	1
4902549	109	C	08/21/2023	01:00	-132.570	47.700	0	537.90	0	4.1730	0	34.0920	0	27.050	0	532.709	0	25.6	4	8.1	4	-1E+10	1	-1E+10	1	-1E+10	1	-1E+10	1	-1E+10	1	-1E+10	1
4902549	109	C	08/21/2023	01:00	-132.570	47.700	0	542.80	0	4.1490	0	34.0930	0	27.053	0	537.555	0	25.2	4	8.0	4	-1E+10	1	-1E+10	1	-1E+10	1	-1E+10	1	-1E+10	1	-1E+10	1
4902549	109	C	08/21/2023	01:00	-132.570	47.700	0	547.60	0	4.1310	0	34.0970	0	27.059	0	542.302	0	24.6	4	7.8	4	-1E+10	1	-1E+10	1	-1E+10	1	-1E+10	1	-1E+10	1	-1E+10	1
4902549	109	C	08/21/2023	01:00	-132.570	47.700	0	553.00	0	4.1200	0	34.1010	0	27.063	0	547.643	0	23.8	4	7.5	4	-1E+10	1	-1E+10	1	-1E+10	1	-1E+10	1	-1E+10	1	-1E+10	1
4902549	109	C	08/21/2023	01:00	-132.570	47.700	0	557.90	0	4.1040	0	34.1060	0	27.069	0	552.489	0	23.0	4	7.3	4	-1E+10	1	-1E+10	1	-1E+10	1	-1E+10	1	-1E+10	1	-1E+10	1
4902549	109	C	08/21/2023	01:00	-132.570	47.700	0	563.00	0	4.0770	0	34.1130	0	27.077	0	557.533	0	22.5	4	7.1	4	-1E+10	1	-1E+10	1	-1E+10	1	-1E+10	1	-1E+10	1	-1E+10	1
4902549	109	C	08/21/2023	01:00	-132.570	47.700	0	568.10	0	4.0650	0	34.1170	0	27.081	0	562.576	0	22.1	4	7.0	4	-1E+10	1	-1E+10	1	-1E+10	1	-1E+10	1	-1E+10	1	-1E+10	1
4902549	109	C	08/21/2023	01:00	-132.570	47.700	0	572.80	0	4.0590	0	34.1190	0	27.084	0	567.224	0	21.8	4	6.9	4	-1E+10	1	-1E+10	1	-1E+10	1	-1E+10	1	-1E+10	1	-1E+10	1
4902549	109	C	08/21/2023	01:00	-132.570	47.700	0	578.00	0	4.0500	0	34.1210	0	27.086	0	572.366	0	21.3	4	6.7	4	-1E+10	1	-1E+10	1	-1E+10	1	-1E+10	1	-1E+10	1	-1E+10	1
4902549	109	C	08/21/2023	01:00	-132.570	47.700	0	583.20	0	4.0310	0	34.1250	0	27.091	0	577.509	0	20.6	4	6.5	4	-1E+10	1	-1E+10	1	-1E+10	1	-1E+10	1	-1E+10	1	-1E+10	1
4902549	109	C	08/21/2023	01:00	-132.570	47.700	0	588.00	0	4.0100	0	34.1300	0	27.097	0	582.255	0	19.8	4	6.2	4	-1E+10	1	-1E+10	1	-1E+10	1	-1E+10	1	-1E+10	1	-1E+10	1
4902549	109	C	08/21/2023	01:00	-132.570	47.700	0	592.80	0	4.0060	0	34.1340	0	27.101	0	587.001	0	18.7	4	5.9	4	-1E+10	1	-1E+10	1	-1E+10	1	-1E+10	1	-1E+10	1	-1E+10	1
4902549	109	C	08/21/2023	01:00	-132.570	47.700	0	597.70	0	4.0100	0	34.1420	0	27.107	0	591.846	0	17.8	4	5.6	4	-1E+10	1	-1E+10	1	-1E+10	1	-1E+10	1	-1E+10	1	-1E+10	1
4902549	109	C	08/21/2023	01:00	-132.570	47.700	0	602.70	0	3.9890	0	34.1490	0	27.115	0	596.790	0	17.4	4	5.5	4	-1E+10	1	-1E+10	1	-1E+10	1	-1E+10	1	-1E+10	1	-1E+10	1
4902549	109	C	08/21/2023	01:00	-132.570	47.700	0	607.80	0	3.9730	0	34.1530	0	27.120	0	601.833	0	17.1	4	5.4	4	-1E+10	1	-1E+10	1	-1E+10	1	-1E+10	1	-1E+10	1	-1E+10	1
4902549	109	C	08/21/2023	01:00	-132.570	47.700	0	612.90	0	3.9480	0	34.1580	0	27.126	0	606.875	0	16.6	4	5.2	4	-1E+10	1	-1E+10	1	-1E+10	1	-1E+10	1	-1E+10	1	-1E+10	1
4902549	109	C	08/21/2023	01:00	-132.570	47.700	0	618.00	0	3.9400	0	34.1620	0	27.130	0	611.918	0	16.2	4	5.1	4	-1E+10	1	-1E+10	1	-1E+10	1	-1E+10	1	-1E+10	1	-1E+10	1
4902549	109	C	08/21/2023	01:00	-132.570	47.700	0	623.20	0	3.9360	0	34.1650	0	27.133	0	617.059	0	15.9	4	5.0	4	-1E+10	1	-1E+10	1	-1E+10	1	-1E+10	1	-1E+10	1	-1E+10	1
4902549	109	C	08/21/2023	01:00	-132.570	47.700	0	628.00	0	3.9170	0	34.1690	0	27.138	0	621.804	0	15.7	4	4.9	4	-1E+10	1	-1E+10	1	-1E+10	1	-1E+10	1	-1E+10	1	-1E+10	1
4902549	109	C	08/21/2023	01:00	-132.570	47.700	0	632.90	0	3.9010	0	34.1700	0	27.141	0	626.649	0	15.3	4	4.8	4	-1E+10	1	-1E+10	1	-1E+10	1	-1E+10	1	-1E+10	1	-1E+10	1
4902549	109	C	08/21/2023	01:00	-132.570	47.700	0	637.80	0	3.8900	0	34.1730	0	27.144	0	631.493	0	14.8	4	4.7	4	-1E+10	1	-1E+10	1	-1E+10	1	-1E+10	1	-1E+10	1	-1E+10	1
4902549	109	C	08/21/2023	01:00	-132.570	47.700	0	642.80	0	3.8880	0	34.1770	0	27.148	0	636.436	0	14.2	4	4.5	4	-1E+10	1	-1E+10	1	-1E+10	1	-1E+10	1	-1E+10	1	-1E+10	1
4902549	109	C	08/21/2023	01:00	-132.570	47.700	0	647.90	0	3.8990	0	34.1830	0	27.151	0	641.477	0	13.5	4	4.2	4	-1E+10	1	-1E+10	1	-1E+10	1	-1E+10	1	-1E+10	1	-1E+10	1
4902549	109	C	08/21/2023	01:00	-132.570	47.700	0	653.10	0	3.8940	0	34.1870	0	27.155	0	646.618	0	13.0	4	4.1	4	-1E+10	1	-1E+10	1	-1E+10	1	-1E+10	1	-1E+10	1	-1E+10	1
4902549	109	C	08/21/2023	01:00	-132.570	47.700	0	658.20	0	3.8910	0	34.1920	0	27.159	0	651.659	0	12.8	4	4.0	4	-1E+10	1	-1E+10	1	-1E+10	1	-1E+10	1	-1E+10	1	-1E+10	1
4902549	109	C	08/21/2023	01:00	-132.570	47.700	0	663.00	0	3.8780	0	34.1940	0	27.162	0	656.404	0	12.6	4	4.0	4	-1E+10	1	-1E+10	1	-1E+10	1	-1E+10	1	-1E+10	1	-1E+10	1
4902549	109	C	08/21/2023	01:00	-132.570	47.700	0	667.80	0	3.8600	0	34.1970	0	27.167	0	661.149	0	12.5	4	3.9	4	-1E+10	1	-1E+10	1	-1E+10	1	-1E+10	1	-1E+10	1	-1E+10	1
4902549	109	C	08/21/2023	01:00	-132.570	47.700	0	673.10	0	3.8520	0	34.2000	0	27.170	0	666.387	0	12.4	4	3.9	4	-1E+10	1	-1E+10	1	-1E+10	1	-1E+10	1	-1E+10	1	-1E+10	1
4902549	109	C	08/21/2023	01:00	-132.570	47.700	0	678.00	0	3.8370	0	34.2010	0	27.172	0	671.231	0	12.3	4	3.9	4	-1E+10	1	-1E+10	1	-1E+10	1	-1E+10	1	-1E+10	1	-1E+10	1
4902549	109	C	08/21/2023	01:00	-132.570	47.700	0	682.80	0	3.8230	0	34.2040	0	27.176	0	675.975	0	12.2	4	3.8	4	-1E+10	1	-1E+10	1	-1E+10	1	-1E+10	1	-1E+10	1	-1E+10	1
4902549	109	C	08/21/2023	01:00	-132.570	47.700	0	688.10	0	3.8020	0	34.2060	0	27.180	0	681.213	0	12.0	4	3.8	4	-1E+10	1	-1E+10	1	-1E+10	1	-1E+10	1	-1E+10	1	-1E+10	1
4902549	109	C	08/21/2023	01:00	-132.570	47.700	0	693.20	0	3.7780	0	34.2100	0	27.185	0	686.254	0	11.8	4	3.7	4	-1E+10	1	-1E+10	1	-1E+10	1	-1E+10	1	-1E+10	1	-1E+10	1
4902549	109	C	08/21/2023	01:00	-132.570	47.700	0	698.10	0	3.7660	0	34.2140	0	27.190	0	691.097	0	11.7	4	3.7	4	-1E+10	1	-1E+10	1	-1E+10	1	-1E+10	1	-1E+10	1	-1E+10	1
4902549	109	C	08/21/2023	01:00	-132.570	47.700	0	703.10	0	3.7510	0	34.2170	0	27.194	0	696.038	0	11.7	4	3.7	4	-1E+10	1	-1E+10	1	-1E+10	1	-1E+10	1	-1E+10	1	-1E+10	1
4902549	109	C	08/21/2023	01:00	-132.570	47.700	0	708.10	0	3.7300	0	34.2180	0	27.196	0	700.979	0	11.7	4	3.7	4	-1E+10	1	-1E+10	1	-1E+10	1	-1E+10	1	-1E+10	1	-1E+10	1
4902549	109	C	08/21/2023	01:00	-132.570	47.700	0	713.10	0	3.7260	0	34.2200	0	27.198	0	705.921	0	11.5	4	3.6	4	-1E+10	1	-1E+10	1	-1E+10	1	-1E+10	1	-1E+10	1	-1E+10	1
4902549	109	C	08/21/2023	01:00	-132.570	47.700	0	718.00	0	3.6970	0	34.2230	0	27.204	0	710.763	0	11.4	4	3.6	4	-1E+10	1	-1E+10	1	-1E+10	1	-1E+10	1	-1E+10	1	-1E+10	1
4902549	109	C	08/21/2023	01:00	-132.570	47.700	0	723.10	0	3.6850	0	34.2270	0	27.208	0	715.803	0	11.1	4	3.5	4	-1E+10	1	-1E+10	1	-1E+10	1	-1E+10	1	-1E+10	1	-1E+10	1
4902549	109	C	08/21/2023	01:00	-132.570	47.700	0	727.80	0	3.6760	0	34.2300	0	27.211	0	720.447	0	10.8	4	3.4	4	-1E+10	1	-1E+10	1	-1E+10	1	-1E+10	1	-1E+10	1	-1E+10	1
4902549	109	C	08/21/2023	01:00	-132.570	47.700	0	732.60	0	3.6660	0	34.2330	0	27.215	0	725.191	0	10.6	4	3.3	4	-1E+10	1	-1E+10	1	-1E+10	1	-1E+10	1	-1E+10	1	-1E+10	1
4902549	109	C	08/21/2023	01:00	-132.570	47.700	0	737.80	0	3.6630	0	34.2370	0	27.218	0	730.329	0	10.3	4	3.2	4	-1E+10	1	-1E+10	1	-1E+10	1	-1E+10	1	-1E+10	1	-1E+10	1
4902549	109	C	08/21/2023	01:00	-132.570	47.700	0	743.10	0	3.6510	0	34.2390	0	27.221	0	735.566	0	10.1	4	3.2	4	-1E+10	1	-1E+10	1	-1E+10	1	-1E+10	1	-1E+10	1	-1E+10	1
4902549	109	C	08/21/2023	01:00	-132.570	47.700	0	748.00	0	3.6330	0	34.2440	0	27.227	0	740.407	0	9.8	4	3.1	4	-1E+10	1	-1E+10	1	-1E+10	1	-1E+10	1	-1E+10	1	-1E+10	1
4902549	109	C	08/21/2023	01:00	-132.570	47.700	0	752.90	0	3.6240	0	34.2480	0	27.231	0	745.249	0	9.6	4	3.0	4	-1E+10	1	-1E+10	1	-1E+10	1	-1E+10	1	-1E+10	1	-1E+10	1
4902549	109	C	08/21/2023	01:00	-132.570	47.700	0	757.80	0	3.6170	0	34.2510	0	27.234	0	750.090	0	9.5	4	3.0	4	-1E+10	1	-1E+10	1	-1E+10	1	-1E+10	1	-1E+10	1	-1E+10	1
4902549	109	C	08/21/2023	01:00	-132.570	47.700	0	762.60	0	3.6140	0	34.2520	0	27.235	0	754.833	0	9.2	4	2.9	4	-1E+10	1	-1E+10	1	-1E+10	1	-1E+10	1	-1E+10	1	-1E+10	1
4902549	109	C	08/21/2023	01:00	-132.570	47.700	0	767.90	0	3.6100	0	34.2570	0	27.240	0	760.069	0	8.9	4	2.8	4	-1E+10	1	-1E+10	1	-1E+10	1	-1E+10	1	-1E+10	1	-1E+10	1
4902549	109	C	08/21/2023	01:00	-132.570	47.700	0	773.10	0	3.6030	0	34.2600	0	27.243	0	765.207	0	8.6	4	2.7	4	-1E+10	1	-1E+10	1	-1E+10	1	-1E+10	1	-1E+10	1	-1E+10	1
4902549	109	C	08/21/2023	01:00	-132.570	47.700	0	777.90	0	3.5950	0	34.2650	0	27.248	0	769.949	0	8.5	4	2.6	4	-1E+10	1	-1E+10	1	-1E+10	1	-1E+10	1	-1E+10	1	-1E+10	1
4902549	109	C	08/21/2023	01:00	-132.570	47.700	0	782.70	0	3.5900	0	34.2660	0	27.249	0	774.691	0	8.3	4	2.6	4	-1E+10	1	-1E+10	1	-1E+10	1	-1E+10	1	-1E+10	1	-1E+10	1
4902549	109	C	08/21/2023	01:00	-132.570	47.700	0	787.90	0	3.5820	0	34.2700	0	27.253	0	779.828	0	8.1	4	2.5	4	-1E+10	1	-1E+10	1	-1E+10	1	-1E+10	1	-1E+10	1	-1E+10	1
4902549	109	C	08/21/2023	01:00	-132.570	47.700	0	793.30	0	3.5760	0	34.2730	0	27.256	0	785.163	0	8.0	4	2.5	4	-1E+10	1	-1E+10	1	-1E+10	1	-1E+10	1	-1E+10	1	-1E+10	1
4902549	109	C	08/21/2023	01:00	-132.570	47.700	0	798.00	0	3.5710	0	34.2740	0	27.257	0	789.805	0	7.9	4	2.5	4	-1E+10	1	-1E+10	1	-1E+10	1	-1E+10	1	-1E+10	1	-1E+10	1
4902549	109	C	08/21/2023	01:00	-132.570	47.700	0	802.80	0	3.5620	0	34.2780	0	27.261	0	794.547	0	7.8	4	2.4	4	-1E+10	1	-1E+10	1	-1E+10	1	-1E+10	1	-1E+10	1	-1E+10	1
4902549	109	C	08/21/2023	01:00	-132.570	47.700	0	807.60	0	3.5570	0	34.2800	0	27.263	0	799.288	0	7.7	4	2.4	4	-1E+10	1	-1E+10	1	-1E+10	1	-1E+10	1	-1E+10	1	-1E+10	1
4902549	109	C	08/21/2023	01:00	-132.570	47.700	0	812.90	0	3.5540	0	34.2810	0	27.265	0	804.524	0	7.6	4	2.4	4	-1E+10	1	-1E+10	1	-1E+10	1	-1E+10	1	-1E+10	1	-1E+10	1
4902549	109	C	08/21/2023	01:00	-132.570	47.700	0	818.10	0	3.5510	0	34.2830	0	27.267	0	809.660	0	7.5	4	2.3	4	-1E+10	1	-1E+10	1	-1E+10	1	-1E+10	1	-1E+10	1	-1E+10	1
4902549	109	C	08/21/2023	01:00	-132.570	47.700	0	822.80	0	3.5420	0	34.2860	0	27.270	0	814.302	0	7.4	4	2.3	4	-1E+10	1	-1E+10	1	-1E+10	1	-1E+10	1	-1E+10	1	-1E+10	1
4902549	109	C	08/21/2023	01:00	-132.570	47.700	0	827.60	0	3.5390	0	34.2870	0	27.271	0	819.043	0	7.3	4	2.3	4	-1E+10	1	-1E+10	1	-1E+10	1	-1E+10	1	-1E+10	1	-1E+10	1
4902549	109	C	08/21/2023	01:00	-132.570	47.700	0	832.80	0	3.5330	0	34.2900	0	27.274	0	824.179	0	7.2	4	2.2	4	-1E+10	1	-1E+10	1	-1E+10	1	-1E+10	1	-1E+10	1	-1E+10	1
4902549	109	C	08/21/2023	01:00	-132.570	47.700	0	838.10	0	3.5250	0	34.2930	0	27.277	0	829.414	0	7.0	4	2.2	4	-1E+10	1	-1E+10	1	-1E+10	1	-1E+10	1	-1E+10	1	-1E+10	1
4902549	109	C	08/21/2023	01:00	-132.570	47.700	0	842.80	0	3.5200	0	34.2970	0	27.281	0	834.056	0	6.8	4	2.1	4	-1E+10	1	-1E+10	1	-1E+10	1	-1E+10	1	-1E+10	1	-1E+10	1
4902549	109	C	08/21/2023	01:00	-132.570	47.700	0	847.70	0	3.5150	0	34.3030	0	27.286	0	838.895	0	6.7	4	2.1	4	-1E+10	1	-1E+10	1	-1E+10	1	-1E+10	1	-1E+10	1	-1E+10	1
4902549	109	C	08/21/2023	01:00	-132.570	47.700	0	852.70	0	3.5140	0	34.3050	0	27.288	0	843.833	0	6.6	4	2.1	4	-1E+10	1	-1E+10	1	-1E+10	1	-1E+10	1	-1E+10	1	-1E+10	1
4902549	109	C	08/21/2023	01:00	-132.570	47.700	0	857.60	0	3.5070	0	34.3080	0	27.291	0	848.672	0	6.5	4	2.0	4	-1E+10	1	-1E+10	1	-1E+10	1	-1E+10	1	-1E+10	1	-1E+10	1
4902549	109	C	08/21/2023	01:00	-132.570	47.700	0	862.50	0	3.5010	0	34.3110	0	27.294	0	853.511	0	6.5	4	2.0	4	-1E+10	1	-1E+10	1	-1E+10	1	-1E+10	1	-1E+10	1	-1E+10	1
4902549	109	C	08/21/2023	01:00	-132.570	47.700	0	867.50	0	3.4960	0	34.3140	0	27.297	0	858.449	0	6.5	4	2.0	4	-1E+10	1	-1E+10	1	-1E+10	1	-1E+10	1	-1E+10	1	-1E+10	1
4902549	109	C	08/21/2023	01:00	-132.570	47.700	0	872.40	0	3.4790	0	34.3190	0	27.302	0	863.288	0	6.5	4	2.0	4	-1E+10	1	-1E+10	1	-1E+10	1	-1E+10	1	-1E+10	1	-1E+10	1
4902549	109	C	08/21/2023	01:00	-132.570	47.700	0	877.80	0	3.4540	0	34.3210	0	27.307	0	868.620	0	6.5	4	2.0	4	-1E+10	1	-1E+10	1	-1E+10	1	-1E+10	1	-1E+10	1	-1E+10	1
4902549	109	C	08/21/2023	01:00	-132.570	47.700	0	882.90	0	3.4430	0	34.3270	0	27.312	0	873.656	0	6.6	4	2.1	4	-1E+10	1	-1E+10	1	-1E+10	1	-1E+10	1	-1E+10	1	-1E+10	1
4902549	109	C	08/21/2023	01:00	-132.570	47.700	0	887.80	0	3.4260	0	34.3290	0	27.316	0	878.495	0	6.9	4	2.2	4	-1E+10	1	-1E+10	1	-1E+10	1	-1E+10	1	-1E+10	1	-1E+10	1
4902549	109	C	08/21/2023	01:00	-132.570	47.700	0	892.70	0	3.3980	0	34.3280	0	27.318	0	883.333	0	7.5	4	2.3	4	-1E+10	1	-1E+10	1	-1E+10	1	-1E+10	1	-1E+10	1	-1E+10	1
4902549	109	C	08/21/2023	01:00	-132.570	47.700	0	897.70	0	3.2980	0	34.3210	0	27.321	0	888.270	0	7.6	4	2.4	4	-1E+10	1	-1E+10	1	-1E+10	1	-1E+10	1	-1E+10	1	-1E+10	1
4902549	109	C	08/21/2023	01:00	-132.570	47.700	0	902.90	0	3.2940	0	34.3270	0	27.327	0	893.404	0	7.4	4	2.3	4	-1E+10	1	-1E+10	1	-1E+10	1	-1E+10	1	-1E+10	1	-1E+10	1
4902549	109	C	08/21/2023	01:00	-132.570	47.700	0	908.10	0	3.2960	0	34.3310	0	27.330	0	898.538	0	7.3	4	2.3	4	-1E+10	1	-1E+10	1	-1E+10	1	-1E+10	1	-1E+10	1	-1E+10	1
4902549	109	C	08/21/2023	01:00	-132.570	47.700	0	913.00	0	3.2870	0	34.3330	0	27.332	0	903.376	0	7.3	4	2.3	4	-1E+10	1	-1E+10	1	-1E+10	1	-1E+10	1	-1E+10	1	-1E+10	1
4902549	109	C	08/21/2023	01:00	-132.570	47.700	0	918.00	0	3.2770	0	34.3340	0	27.334	0	908.313	0	7.3	4	2.3	4	-1E+10	1	-1E+10	1	-1E+10	1	-1E+10	1	-1E+10	1	-1E+10	1
4902549	109	C	08/21/2023	01:00	-132.570	47.700	0	923.00	0	3.2610	0	34.3360	0	27.337	0	913.249	0	7.3	4	2.3	4	-1E+10	1	-1E+10	1	-1E+10	1	-1E+10	1	-1E+10	1	-1E+10	1
4902549	109	C	08/21/2023	01:00	-132.570	47.700	0	928.00	0	3.2520	0	34.3380	0	27.339	0	918.185	0	7.2	4	2.2	4	-1E+10	1	-1E+10	1	-1E+10	1	-1E+10	1	-1E+10	1	-1E+10	1
4902549	109	C	08/21/2023	01:00	-132.570	47.700	0	933.20	0	3.2480	0	34.3410	0	27.342	0	923.319	0	7.2	4	2.2	4	-1E+10	1	-1E+10	1	-1E+10	1	-1E+10	1	-1E+10	1	-1E+10	1
4902549	109	C	08/21/2023	01:00	-132.570	47.700	0	937.90	0	3.2360	0	34.3430	0	27.345	0	927.959	0	7.3	4	2.3	4	-1E+10	1	-1E+10	1	-1E+10	1	-1E+10	1	-1E+10	1	-1E+10	1
4902549	109	C	08/21/2023	01:00	-132.570	47.700	0	942.70	0	3.2180	0	34.3420	0	27.346	0	932.697	0	7.5	4	2.3	4	-1E+10	1	-1E+10	1	-1E+10	1	-1E+10	1	-1E+10	1	-1E+10	1
4902549	109	C	08/21/2023	01:00	-132.570	47.700	0	947.50	0	3.1890	0	34.3430	0	27.349	0	937.435	0	7.5	4	2.3	4	-1E+10	1	-1E+10	1	-1E+10	1	-1E+10	1	-1E+10	1	-1E+10	1
4902549	109	C	08/21/2023	01:00	-132.570	47.700	0	952.90	0	3.1770	0	34.3430	0	27.350	0	942.766	0	7.5	4	2.3	4	-1E+10	1	-1E+10	1	-1E+10	1	-1E+10	1	-1E+10	1	-1E+10	1
4902549	109	C	08/21/2023	01:00	-132.570	47.700	0	958.20	0	3.1670	0	34.3450	0	27.353	0	947.997	0	7.6	4	2.3	4	-1E+10	1	-1E+10	1	-1E+10	1	-1E+10	1	-1E+10	1	-1E+10	1
4902549	109	C	08/21/2023	01:00	-132.570	47.700	0	963.00	0	3.1500	0	34.3470	0	27.356	0	952.735	0	7.6	4	2.3	4	-1E+10	1	-1E+10	1	-1E+10	1	-1E+10	1	-1E+10	1	-1E+10	1
4902549	109	C	08/21/2023	01:00	-132.570	47.700	0	967.90	0	3.1360	0	34.3480	0	27.358	0	957.572	0	7.5	4	2.3	4	-1E+10	1	-1E+10	1	-1E+10	1	-1E+10	1	-1E+10	1	-1E+10	1
4902549	109	C	08/21/2023	01:00	-132.570	47.700	0	972.80	0	3.1280	0	34.3500	0	27.361	0	962.408	0	7.4	4	2.3	4	-1E+10	1	-1E+10	1	-1E+10	1	-1E+10	1	-1E+10	1	-1E+10	1
4902549	109	C	08/21/2023	01:00	-132.570	47.700	0	977.70	0	3.1290	0	34.3540	0	27.364	0	967.245	0	7.1	4	2.2	4	-1E+10	1	-1E+10	1	-1E+10	1	-1E+10	1	-1E+10	1	-1E+10	1
4902549	109	C	08/21/2023	01:00	-132.570	47.700	0	982.60	0	3.1510	0	34.3620	0	27.368	0	972.081	0	6.9	4	2.1	4	-1E+10	1	-1E+10	1	-1E+10	1	-1E+10	1	-1E+10	1	-1E+10	1
4902549	109	C	08/21/2023	01:00	-132.570	47.700	0	988.00	0	3.1750	0	34.3680	0	27.371	0	977.411	0	6.8	4	2.1	4	-1E+10	1	-1E+10	1	-1E+10	1	-1E+10	1	-1E+10	1	-1E+10	1
4902549	109	C	08/21/2023	01:00	-132.570	47.700	0	993.30	0	3.1590	0	34.3730	0	27.376	0	982.641	0	6.9	4	2.2	4	-1E+10	1	-1E+10	1	-1E+10	1	-1E+10	1	-1E+10	1	-1E+10	1
4902549	109	C	08/21/2023	01:00	-132.570	47.700	0	998.20	0	3.1290	0	34.3710	0	27.378	0	987.477	0	7.0	4	2.2	4	-1E+10	1	-1E+10	1	-1E+10	1	-1E+10	1	-1E+10	1	-1E+10	1
4902549	109	C	08/21/2023	01:00	-132.570	47.700	0	1005.40	0	3.0980	0	34.3720	0	27.381	0	994.583	0	7.2	4	2.2	4	-1E+10	1	-1E+10	1	-1E+10	1	-1E+10	1	-1E+10	1	-1E+10	1
4902549	109	C	08/21/2023	01:00	-132.570	47.700	0	1015.20	0	3.0670	0	34.3730	0	27.385	0	1004.254	0	7.2	4	2.2	4	-1E+10	1	-1E+10	1	-1E+10	1	-1E+10	1	-1E+10	1	-1E+10	1
4902549	109	C	08/21/2023	01:00	-132.570	47.700	0	1025.50	0	3.0350	0	34.3780	0	27.392	0	1014.418	0	7.3	4	2.3	4	-1E+10	1	-1E+10	1	-1E+10	1	-1E+10	1	-1E+10	1	-1E+10	1
4902549	109	C	08/21/2023	01:00	-132.570	47.700	0	1035.90	0	3.0030	0	34.3810	0	27.397	0	1024.680	0	7.4	4	2.3	4	-1E+10	1	-1E+10	1	-1E+10	1	-1E+10	1	-1E+10	1	-1E+10	1
4902549	109	C	08/21/2023	01:00	-132.570	47.700	0	1045.90	0	2.9880	0	34.3830	0	27.400	0	1034.547	0	7.4	4	2.3	4	-1E+10	1	-1E+10	1	-1E+10	1	-1E+10	1	-1E+10	1	-1E+10	1
4902549	109	C	08/21/2023	01:00	-132.570	47.700	0	1056.00	0	2.9660	0	34.3860	0	27.405	0	1044.512	0	7.5	4	2.3	4	-1E+10	1	-1E+10	1	-1E+10	1	-1E+10	1	-1E+10	1	-1E+10	1
4902549	109	C	08/21/2023	01:00	-132.570	47.700	0	1065.60	0	2.9470	0	34.3880	0	27.408	0	1053.984	0	7.6	4	2.3	4	-1E+10	1	-1E+10	1	-1E+10	1	-1E+10	1	-1E+10	1	-1E+10	1
4902549	109	C	08/21/2023	01:00	-132.570	47.700	0	1075.70	0	2.9300	0	34.3920	0	27.413	0	1063.948	0	7.7	4	2.4	4	-1E+10	1	-1E+10	1	-1E+10	1	-1E+10	1	-1E+10	1	-1E+10	1
4902549	109	C	08/21/2023	01:00	-132.570	47.700	0	1085.70	0	2.9160	0	34.3960	0	27.417	0	1073.813	0	7.7	4	2.4	4	-1E+10	1	-1E+10	1	-1E+10	1	-1E+10	1	-1E+10	1	-1E+10	1
4902549	109	C	08/21/2023	01:00	-132.570	47.700	0	1095.60	0	2.8990	0	34.3990	0	27.421	0	1083.579	0	7.8	4	2.4	4	-1E+10	1	-1E+10	1	-1E+10	1	-1E+10	1	-1E+10	1	-1E+10	1
4902549	109	C	08/21/2023	01:00	-132.570	47.700	0	1105.60	0	2.8870	0	34.4010	0	27.424	0	1093.444	0	7.9	4	2.4	4	-1E+10	1	-1E+10	1	-1E+10	1	-1E+10	1	-1E+10	1	-1E+10	1
4902549	109	C	08/21/2023	01:00	-132.570	47.700	0	1115.70	0	2.8700	0	34.4040	0	27.428	0	1103.406	0	8.0	4	2.5	4	-1E+10	1	-1E+10	1	-1E+10	1	-1E+10	1	-1E+10	1	-1E+10	1
4902549	109	C	08/21/2023	01:00	-132.570	47.700	0	1125.50	0	2.8600	0	34.4070	0	27.431	0	1113.072	0	8.1	4	2.5	4	-1E+10	1	-1E+10	1	-1E+10	1	-1E+10	1	-1E+10	1	-1E+10	1
4902549	109	C	08/21/2023	01:00	-132.570	47.700	0	1135.50	0	2.8470	0	34.4090	0	27.434	0	1122.935	0	8.2	4	2.5	4	-1E+10	1	-1E+10	1	-1E+10	1	-1E+10	1	-1E+10	1	-1E+10	1
4902549	109	C	08/21/2023	01:00	-132.570	47.700	0	1145.50	0	2.8340	0	34.4130	0	27.438	0	1132.797	0	8.3	4	2.6	4	-1E+10	1	-1E+10	1	-1E+10	1	-1E+10	1	-1E+10	1	-1E+10	1
4902549	109	C	08/21/2023	01:00	-132.570	47.700	0	1155.20	0	2.8200	0	34.4160	0	27.442	0	1142.363	0	8.5	4	2.6	4	-1E+10	1	-1E+10	1	-1E+10	1	-1E+10	1	-1E+10	1	-1E+10	1
4902549	109	C	08/21/2023	01:00	-132.570	47.700	0	1165.10	0	2.8110	0	34.4190	0	27.445	0	1152.126	0	8.6	4	2.6	4	-1E+10	1	-1E+10	1	-1E+10	1	-1E+10	1	-1E+10	1	-1E+10	1
4902549	109	C	08/21/2023	01:00	-132.570	47.700	0	1175.50	0	2.8010	0	34.4220	0	27.449	0	1162.382	0	8.8	4	2.7	4	-1E+10	1	-1E+10	1	-1E+10	1	-1E+10	1	-1E+10	1	-1E+10	1
4902549	109	C	08/21/2023	01:00	-132.570	47.700	0	1185.70	0	2.7920	0	34.4240	0	27.451	0	1172.440	0	8.9	4	2.7	4	-1E+10	1	-1E+10	1	-1E+10	1	-1E+10	1	-1E+10	1	-1E+10	1
4902549	109	C	08/21/2023	01:00	-132.570	47.700	0	1195.40	0	2.7800	0	34.4260	0	27.454	0	1182.004	0	9.0	4	2.8	4	-1E+10	1	-1E+10	1	-1E+10	1	-1E+10	1	-1E+10	1	-1E+10	1
4902549	109	C	08/21/2023	01:00	-132.570	47.700	0	1205.60	0	2.7680	0	34.4290	0	27.457	0	1192.061	0	9.2	4	2.8	4	-1E+10	1	-1E+10	1	-1E+10	1	-1E+10	1	-1E+10	1	-1E+10	1
4902549	109	C	08/21/2023	01:00	-132.570	47.700	0	1215.70	0	2.7530	0	34.4310	0	27.460	0	1202.018	0	9.3	4	2.9	4	-1E+10	1	-1E+10	1	-1E+10	1	-1E+10	1	-1E+10	1	-1E+10	1
4902549	109	C	08/21/2023	01:00	-132.570	47.700	0	1225.30	0	2.7390	0	34.4330	0	27.463	0	1211.483	0	9.5	4	2.9	4	-1E+10	1	-1E+10	1	-1E+10	1	-1E+10	1	-1E+10	1	-1E+10	1
4902549	109	C	08/21/2023	01:00	-132.570	47.700	0	1235.40	0	2.7230	0	34.4370	0	27.468	0	1221.439	0	9.8	4	3.0	4	-1E+10	1	-1E+10	1	-1E+10	1	-1E+10	1	-1E+10	1	-1E+10	1
4902549	109	C	08/21/2023	01:00	-132.570	47.700	0	1245.30	0	2.7060	0	34.4400	0	27.472	0	1231.199	0	10.0	4	3.1	4	-1E+10	1	-1E+10	1	-1E+10	1	-1E+10	1	-1E+10	1	-1E+10	1
4902549	109	C	08/21/2023	01:00	-132.570	47.700	0	1255.40	0	2.6970	0	34.4420	0	27.474	0	1241.155	0	10.1	4	3.1	4	-1E+10	1	-1E+10	1	-1E+10	1	-1E+10	1	-1E+10	1	-1E+10	1
4902549	109	C	08/21/2023	01:00	-132.570	47.700	0	1265.20	0	2.6860	0	34.4440	0	27.477	0	1250.814	0	10.4	4	3.2	4	-1E+10	1	-1E+10	1	-1E+10	1	-1E+10	1	-1E+10	1	-1E+10	1
4902549	109	C	08/21/2023	01:00	-132.570	47.700	0	1275.30	0	2.6720	0	34.4470	0	27.480	0	1260.769	0	10.7	4	3.3	4	-1E+10	1	-1E+10	1	-1E+10	1	-1E+10	1	-1E+10	1	-1E+10	1
4902549	109	C	08/21/2023	01:00	-132.570	47.700	0	1285.20	0	2.6610	0	34.4500	0	27.484	0	1270.526	0	11.0	4	3.4	4	-1E+10	1	-1E+10	1	-1E+10	1	-1E+10	1	-1E+10	1	-1E+10	1
4902549	109	C	08/21/2023	01:00	-132.570	47.700	0	1295.20	0	2.6460	0	34.4530	0	27.488	0	1280.382	0	11.2	4	3.4	4	-1E+10	1	-1E+10	1	-1E+10	1	-1E+10	1	-1E+10	1	-1E+10	1
4902549	109	C	08/21/2023	01:00	-132.570	47.700	0	1305.30	0	2.6380	0	34.4540	0	27.489	0	1290.336	0	11.4	4	3.5	4	-1E+10	1	-1E+10	1	-1E+10	1	-1E+10	1	-1E+10	1	-1E+10	1
4902549	109	C	08/21/2023	01:00	-132.570	47.700	0	1315.20	0	2.6310	0	34.4550	0	27.491	0	1300.091	0	11.7	4	3.6	4	-1E+10	1	-1E+10	1	-1E+10	1	-1E+10	1	-1E+10	1	-1E+10	1
4902549	109	C	08/21/2023	01:00	-132.570	47.700	0	1325.00	0	2.6150	0	34.4580	0	27.494	0	1309.748	0	12.1	4	3.7	4	-1E+10	1	-1E+10	1	-1E+10	1	-1E+10	1	-1E+10	1	-1E+10	1
4902549	109	C	08/21/2023	01:00	-132.570	47.700	0	1335.10	0	2.6060	0	34.4610	0	27.498	0	1319.701	0	12.5	4	3.8	4	-1E+10	1	-1E+10	1	-1E+10	1	-1E+10	1	-1E+10	1	-1E+10	1
4902549	109	C	08/21/2023	01:00	-132.570	47.700	0	1345.20	0	2.5930	0	34.4640	0	27.501	0	1329.652	0	12.9	4	3.9	4	-1E+10	1	-1E+10	1	-1E+10	1	-1E+10	1	-1E+10	1	-1E+10	1
4902549	109	C	08/21/2023	01:00	-132.570	47.700	0	1355.40	0	2.5770	0	34.4670	0	27.505	0	1339.702	0	13.2	4	4.0	4	-1E+10	1	-1E+10	1	-1E+10	1	-1E+10	1	-1E+10	1	-1E+10	1
4902549	109	C	08/21/2023	01:00	-132.570	47.700	0	1365.70	0	2.5660	0	34.4690	0	27.508	0	1349.850	0	13.6	4	4.1	4	-1E+10	1	-1E+10	1	-1E+10	1	-1E+10	1	-1E+10	1	-1E+10	1
4902549	109	C	08/21/2023	01:00	-132.570	47.700	0	1375.80	0	2.5570	0	34.4710	0	27.510	0	1359.800	0	13.9	4	4.2	4	-1E+10	1	-1E+10	1	-1E+10	1	-1E+10	1	-1E+10	1	-1E+10	1
4902549	109	C	08/21/2023	01:00	-132.570	47.700	0	1385.50	0	2.5430	0	34.4730	0	27.513	0	1369.356	0	14.3	4	4.4	4	-1E+10	1	-1E+10	1	-1E+10	1	-1E+10	1	-1E+10	1	-1E+10	1
4902549	109	C	08/21/2023	01:00	-132.570	47.700	0	1395.60	0	2.5340	0	34.4750	0	27.515	0	1379.305	0	14.6	4	4.5	4	-1E+10	1	-1E+10	1	-1E+10	1	-1E+10	1	-1E+10	1	-1E+10	1
4902549	109	C	08/21/2023	01:00	-132.570	47.700	0	1405.20	0	2.5240	0	34.4770	0	27.518	0	1388.761	0	14.9	4	4.5	4	-1E+10	1	-1E+10	1	-1E+10	1	-1E+10	1	-1E+10	1	-1E+10	1
4902549	109	C	08/21/2023	01:00	-132.570	47.700	0	1415.30	0	2.5140	0	34.4790	0	27.520	0	1398.710	0	15.2	4	4.7	4	-1E+10	1	-1E+10	1	-1E+10	1	-1E+10	1	-1E+10	1	-1E+10	1
4902549	109	C	08/21/2023	01:00	-132.570	47.700	0	1425.60	0	2.5040	0	34.4810	0	27.523	0	1408.855	0	15.5	4	4.7	4	-1E+10	1	-1E+10	1	-1E+10	1	-1E+10	1	-1E+10	1	-1E+10	1
4902549	109	C	08/21/2023	01:00	-132.570	47.700	0	1435.70	0	2.4970	0	34.4820	0	27.524	0	1418.802	0	15.9	4	4.9	4	-1E+10	1	-1E+10	1	-1E+10	1	-1E+10	1	-1E+10	1	-1E+10	1
4902549	109	C	08/21/2023	01:00	-132.570	47.700	0	1445.50	0	2.4840	0	34.4840	0	27.527	0	1428.454	0	16.4	4	5.0	4	-1E+10	1	-1E+10	1	-1E+10	1	-1E+10	1	-1E+10	1	-1E+10	1
4902549	109	C	08/21/2023	01:00	-132.570	47.700	0	1455.30	0	2.4670	0	34.4870	0	27.531	0	1438.105	0	17.1	4	5.2	4	-1E+10	1	-1E+10	1	-1E+10	1	-1E+10	1	-1E+10	1	-1E+10	1
4902549	109	C	08/21/2023	01:00	-132.570	47.700	0	1465.60	0	2.4470	0	34.4900	0	27.535	0	1448.248	0	17.7	4	5.4	4	-1E+10	1	-1E+10	1	-1E+10	1	-1E+10	1	-1E+10	1	-1E+10	1
4902549	109	C	08/21/2023	01:00	-132.570	47.700	0	1475.70	0	2.4330	0	34.4930	0	27.539	0	1458.193	0	18.3	4	5.6	4	-1E+10	1	-1E+10	1	-1E+10	1	-1E+10	1	-1E+10	1	-1E+10	1
4902549	109	C	08/21/2023	01:00	-132.570	47.700	0	1485.30	0	2.4230	0	34.4950	0	27.541	0	1467.646	0	18.9	4	5.8	4	-1E+10	1	-1E+10	1	-1E+10	1	-1E+10	1	-1E+10	1	-1E+10	1
4902549	109	C	08/21/2023	01:00	-132.570	47.700	0	1495.10	0	2.4210	0	34.4980	0	27.544	0	1477.295	0	19.7	4	6.0	4	-1E+10	1	-1E+10	1	-1E+10	1	-1E+10	1	-1E+10	1	-1E+10	1
4902549	109	C	08/21/2023	01:00	-132.570	47.700	0	1505.30	0	2.3890	0	34.5010	0	27.549	0	1487.338	0	20.6	4	6.3	4	-1E+10	1	-1E+10	1	-1E+10	1	-1E+10	1	-1E+10	1	-1E+10	1
4902549	109	C	08/21/2023	01:00	-132.570	47.700	0	1515.30	0	2.3890	0	34.5060	0	27.553	0	1497.183	0	22.1	4	6.7	4	-1E+10	1	-1E+10	1	-1E+10	1	-1E+10	1	-1E+10	1	-1E+10	1
4902549	109	C	08/21/2023	01:00	-132.570	47.700	0	1525.50	0	2.3850	0	34.5110	0	27.557	0	1507.225	0	23.0	4	7.0	4	-1E+10	1	-1E+10	1	-1E+10	1	-1E+10	1	-1E+10	1	-1E+10	1
4902549	109	C	08/21/2023	01:00	-132.570	47.700	0	1535.60	0	2.3720	0	34.5130	0	27.560	0	1517.168	0	23.7	4	7.2	4	-1E+10	1	-1E+10	1	-1E+10	1	-1E+10	1	-1E+10	1	-1E+10	1
4902549	109	C	08/21/2023	01:00	-132.570	47.700	0	1545.40	0	2.3580	0	34.5160	0	27.563	0	1526.815	0	24.7	4	7.5	4	-1E+10	1	-1E+10	1	-1E+10	1	-1E+10	1	-1E+10	1	-1E+10	1
4902549	109	C	08/21/2023	01:00	-132.570	47.700	0	1555.50	0	2.3500	0	34.5190	0	27.567	0	1536.757	0	25.2	4	7.7	4	-1E+10	1	-1E+10	1	-1E+10	1	-1E+10	1	-1E+10	1	-1E+10	1
4902549	109	C	08/21/2023	01:00	-132.570	47.700	0	1565.60	0	2.3430	0	34.5210	0	27.569	0	1546.698	0	25.8	4	7.8	4	-1E+10	1	-1E+10	1	-1E+10	1	-1E+10	1	-1E+10	1	-1E+10	1
4902549	109	C	08/21/2023	01:00	-132.570	47.700	0	1575.40	0	2.3170	0	34.5220	0	27.572	0	1556.344	0	26.1	4	7.9	4	-1E+10	1	-1E+10	1	-1E+10	1	-1E+10	1	-1E+10	1	-1E+10	1
4902549	109	C	08/21/2023	01:00	-132.570	47.700	0	1585.10	0	2.3110	0	34.5240	0	27.574	0	1565.890	0	26.4	4	8.0	4	-1E+10	1	-1E+10	1	-1E+10	1	-1E+10	1	-1E+10	1	-1E+10	1
4902549	109	C	08/21/2023	01:00	-132.570	47.700	0	1595.20	0	2.2750	0	34.5230	0	27.576	0	1575.830	0	26.5	4	8.0	4	-1E+10	1	-1E+10	1	-1E+10	1	-1E+10	1	-1E+10	1	-1E+10	1
4902549	109	C	08/21/2023	01:00	-132.570	47.700	0	1605.50	0	2.2620	0	34.5250	0	27.579	0	1585.967	0	26.9	4	8.2	4	-1E+10	1	-1E+10	1	-1E+10	1	-1E+10	1	-1E+10	1	-1E+10	1
4902549	109	C	08/21/2023	01:00	-132.570	47.700	0	1615.50	0	2.2440	0	34.5260	0	27.581	0	1595.808	0	27.7	4	8.4	4	-1E+10	1	-1E+10	1	-1E+10	1	-1E+10	1	-1E+10	1	-1E+10	1
4902549	109	C	08/21/2023	01:00	-132.570	47.700	0	1625.10	0	2.2260	0	34.5290	0	27.585	0	1605.254	0	28.8	4	8.7	4	-1E+10	1	-1E+10	1	-1E+10	1	-1E+10	1	-1E+10	1	-1E+10	1
4902549	109	C	08/21/2023	01:00	-132.570	47.700	0	1635.30	0	2.2090	0	34.5330	0	27.590	0	1615.291	0	29.7	4	9.0	4	-1E+10	1	-1E+10	1	-1E+10	1	-1E+10	1	-1E+10	1	-1E+10	1
4902549	109	C	08/21/2023	01:00	-132.570	47.700	0	1645.70	0	2.1960	0	34.5350	0	27.592	0	1625.524	0	30.6	4	9.3	4	-1E+10	1	-1E+10	1	-1E+10	1	-1E+10	1	-1E+10	1	-1E+10	1
4902549	109	C	08/21/2023	01:00	-132.570	47.700	0	1655.50	0	2.1850	0	34.5370	0	27.595	0	1635.166	0	31.3	4	9.5	4	-1E+10	1	-1E+10	1	-1E+10	1	-1E+10	1	-1E+10	1	-1E+10	1
4902549	109	C	08/21/2023	01:00	-132.570	47.700	0	1665.40	0	2.1780	0	34.5390	0	27.597	0	1644.906	0	32.2	4	9.8	4	-1E+10	1	-1E+10	1	-1E+10	1	-1E+10	1	-1E+10	1	-1E+10	1
4902549	109	C	08/21/2023	01:00	-132.570	47.700	0	1675.30	0	2.1620	0	34.5420	0	27.601	0	1654.645	0	33.2	4	10.1	4	-1E+10	1	-1E+10	1	-1E+10	1	-1E+10	1	-1E+10	1	-1E+10	1
4902549	109	C	08/21/2023	01:00	-132.570	47.700	0	1685.10	0	2.1490	0	34.5450	0	27.604	0	1664.286	0	34.0	4	10.3	4	-1E+10	1	-1E+10	1	-1E+10	1	-1E+10	1	-1E+10	1	-1E+10	1
4902549	109	C	08/21/2023	01:00	-132.570	47.700	0	1695.30	0	2.1440	0	34.5460	0	27.606	0	1674.320	0	34.5	4	10.4	4	-1E+10	1	-1E+10	1	-1E+10	1	-1E+10	1	-1E+10	1	-1E+10	1
4902549	109	C	08/21/2023	01:00	-132.570	47.700	0	1705.40	0	2.1390	0	34.5470	0	27.607	0	1684.255	0	34.8	4	10.5	4	-1E+10	1	-1E+10	1	-1E+10	1	-1E+10	1	-1E+10	1	-1E+10	1
4902549	109	C	08/21/2023	01:00	-132.570	47.700	0	1715.40	0	2.1330	0	34.5480	0	27.608	0	1694.091	0	35.3	4	10.7	4	-1E+10	1	-1E+10	1	-1E+10	1	-1E+10	1	-1E+10	1	-1E+10	1
4902549	109	C	08/21/2023	01:00	-132.570	47.700	0	1725.00	0	2.1240	0	34.5490	0	27.610	0	1703.533	0	35.9	4	10.9	4	-1E+10	1	-1E+10	1	-1E+10	1	-1E+10	1	-1E+10	1	-1E+10	1
4902549	109	C	08/21/2023	01:00	-132.570	47.700	0	1735.00	0	2.1180	0	34.5510	0	27.612	0	1713.368	0	36.5	4	11.0	4	-1E+10	1	-1E+10	1	-1E+10	1	-1E+10	1	-1E+10	1	-1E+10	1
4902549	109	C	08/21/2023	01:00	-132.570	47.700	0	1745.30	0	2.1140	0	34.5520	0	27.613	0	1723.498	0	37.1	4	11.2	4	-1E+10	1	-1E+10	1	-1E+10	1	-1E+10	1	-1E+10	1	-1E+10	1
4902549	109	C	08/21/2023	01:00	-132.570	47.700	0	1755.40	0	2.1090	0	34.5540	0	27.615	0	1733.431	0	37.5	4	11.3	4	-1E+10	1	-1E+10	1	-1E+10	1	-1E+10	1	-1E+10	1	-1E+10	1
4902549	109	C	08/21/2023	01:00	-132.570	47.700	0	1765.20	0	2.1040	0	34.5550	0	27.616	0	1743.068	0	37.9	4	11.5	4	-1E+10	1	-1E+10	1	-1E+10	1	-1E+10	1	-1E+10	1	-1E+10	1
4902549	109	C	08/21/2023	01:00	-132.570	47.700	0	1775.00	0	2.0980	0	34.5560	0	27.618	0	1752.704	0	38.3	4	11.6	4	-1E+10	1	-1E+10	1	-1E+10	1	-1E+10	1	-1E+10	1	-1E+10	1
4902549	109	C	08/21/2023	01:00	-132.570	47.700	0	1785.00	0	2.0910	0	34.5560	0	27.618	0	1762.537	0	38.8	4	11.7	4	-1E+10	1	-1E+10	1	-1E+10	1	-1E+10	1	-1E+10	1	-1E+10	1
4902549	109	C	08/21/2023	01:00	-132.570	47.700	0	1795.20	0	2.0800	0	34.5580	0	27.621	0	1772.566	0	39.3	4	11.9	4	-1E+10	1	-1E+10	1	-1E+10	1	-1E+10	1	-1E+10	1	-1E+10	1
4902549	109	C	08/21/2023	01:00	-132.570	47.700	0	1805.50	0	2.0720	0	34.5590	0	27.622	0	1782.693	0	39.8	4	12.0	4	-1E+10	1	-1E+10	1	-1E+10	1	-1E+10	1	-1E+10	1	-1E+10	1
4902549	109	C	08/21/2023	01:00	-132.570	47.700	0	1815.40	0	2.0580	0	34.5600	0	27.624	0	1792.427	0	40.4	4	12.2	4	-1E+10	1	-1E+10	1	-1E+10	1	-1E+10	1	-1E+10	1	-1E+10	1
4902549	109	C	08/21/2023	01:00	-132.570	47.700	0	1825.50	0	2.0460	0	34.5620	0	27.627	0	1802.356	0	41.5	4	12.5	4	-1E+10	1	-1E+10	1	-1E+10	1	-1E+10	1	-1E+10	1	-1E+10	1
4902549	109	C	08/21/2023	01:00	-132.570	47.700	0	1835.40	0	2.0450	0	34.5650	0	27.629	0	1812.088	0	42.2	4	12.7	4	-1E+10	1	-1E+10	1	-1E+10	1	-1E+10	1	-1E+10	1	-1E+10	1
4902549	109	C	08/21/2023	01:00	-132.570	47.700	0	1845.20	0	2.0370	0	34.5660	0	27.631	0	1821.722	0	42.7	4	12.9	4	-1E+10	1	-1E+10	1	-1E+10	1	-1E+10	1	-1E+10	1	-1E+10	1
4902549	109	C	08/21/2023	01:00	-132.570	47.700	0	1855.30	0	2.0260	0	34.5670	0	27.633	0	1831.650	0	43.2	4	13.0	4	-1E+10	1	-1E+10	1	-1E+10	1	-1E+10	1	-1E+10	1	-1E+10	1
4902549	109	C	08/21/2023	01:00	-132.570	47.700	0	1865.40	0	2.0150	0	34.5680	0	27.634	0	1841.577	0	43.9	4	13.2	4	-1E+10	1	-1E+10	1	-1E+10	1	-1E+10	1	-1E+10	1	-1E+10	1
4902549	109	C	08/21/2023	01:00	-132.570	47.700	0	1875.30	0	2.0120	0	34.5700	0	27.636	0	1851.308	0	44.3	4	13.4	4	-1E+10	1	-1E+10	1	-1E+10	1	-1E+10	1	-1E+10	1	-1E+10	1
4902549	109	C	08/21/2023	01:00	-132.570	47.700	0	1885.30	0	2.0060	0	34.5710	0	27.637	0	1861.136	0	44.9	4	13.5	4	-1E+10	1	-1E+10	1	-1E+10	1	-1E+10	1	-1E+10	1	-1E+10	1
4902549	109	C	08/21/2023	01:00	-132.570	47.700	0	1895.50	0	2.0010	0	34.5720	0	27.639	0	1871.161	0	45.2	4	13.6	4	-1E+10	1	-1E+10	1	-1E+10	1	-1E+10	1	-1E+10	1	-1E+10	1
4902549	109	C	08/21/2023	01:00	-132.570	47.700	0	1905.30	0	1.9980	0	34.5720	0	27.639	0	1880.791	0	45.7	4	13.8	4	-1E+10	1	-1E+10	1	-1E+10	1	-1E+10	1	-1E+10	1	-1E+10	1
4902549	109	C	08/21/2023	01:00	-132.570	47.700	0	1915.20	0	1.9900	0	34.5740	0	27.641	0	1890.520	0	46.1	4	13.9	4	-1E+10	1	-1E+10	1	-1E+10	1	-1E+10	1	-1E+10	1	-1E+10	1
4902549	109	C	08/21/2023	01:00	-132.570	47.700	0	1925.60	0	1.9860	0	34.5740	0	27.642	0	1900.740	0	46.6	4	14.0	4	-1E+10	1	-1E+10	1	-1E+10	1	-1E+10	1	-1E+10	1	-1E+10	1
4902549	109	C	08/21/2023	01:00	-132.570	47.700	0	1935.60	0	1.9800	0	34.5750	0	27.643	0	1910.566	0	47.2	4	14.2	4	-1E+10	1	-1E+10	1	-1E+10	1	-1E+10	1	-1E+10	1	-1E+10	1
4902549	109	C	08/21/2023	01:00	-132.570	47.700	0	1945.50	0	1.9730	0	34.5770	0	27.645	0	1920.293	0	47.6	4	14.3	4	-1E+10	1	-1E+10	1	-1E+10	1	-1E+10	1	-1E+10	1	-1E+10	1
4902549	109	C	08/21/2023	01:00	-132.570	47.700	0	1955.30	0	1.9700	0	34.5780	0	27.646	0	1929.922	0	48.1	4	14.5	4	-1E+10	1	-1E+10	1	-1E+10	1	-1E+10	1	-1E+10	1	-1E+10	1
4902549	109	C	08/21/2023	01:00	-132.570	47.700	0	1965.20	0	1.9650	0	34.5790	0	27.647	0	1939.648	0	48.6	4	14.6	4	-1E+10	1	-1E+10	1	-1E+10	1	-1E+10	1	-1E+10	1	-1E+10	1
4902549	109	C	08/21/2023	01:00	-132.570	47.700	0	1975.10	0	1.9590	0	34.5800	0	27.649	0	1949.374	0	49.0	4	14.8	4	-1E+10	1	-1E+10	1	-1E+10	1	-1E+10	1	-1E+10	1	-1E+10	1
4902549	109	C	08/21/2023	01:00	-132.570	47.700	0	1985.10	0	1.9550	0	34.5810	0	27.650	0	1959.198	0	49.2	4	14.8	4	-1E+10	1	-1E+10	1	-1E+10	1	-1E+10	1	-1E+10	1	-1E+10	1
4902549	109	C	08/21/2023	01:00	-132.570	47.700	0	1994.10	0	1.9520	0	34.5820	0	27.651	0	1968.039	0	49.3	4	14.8	4	-1E+10	1	-1E+10	1	-1E+10	1	-1E+10	1	-1E+10	1	-1E+10	1
4902549	109	C	08/21/2023	01:00	-132.570	47.700	0																										
4902549	110	C	08/31/2023	06:08	-132.711	47.741	0	0.10	0	17.9010	0	32.3940	0	23.302	0	0.099	0	236.1	4	99.0	4	-1E+10	1	-1E+10	1	-1E+10	1	-1E+10	1	-1E+10	1	-1E+10	1
4902549	110	C	08/31/2023	06:08	-132.711	47.741	0	0.20	0	17.9040	0	32.3930	0	23.301	0	0.198	0	-1e10	1	-1e10	1	-1E+10	1	-1E+10	1	-1E+10	1	-1E+10	1	-1E+10	1	-1E+10	1
4902549	110	C	08/31/2023	06:08	-132.711	47.741	0	0.40	0	17.9170	0	32.3770	0	23.285	0	0.397	0	231.2	4	96.9	4	-1E+10	1	-1E+10	1	-1E+10	1	-1E+10	1	-1E+10	1	-1E+10	1
4902549	110	C	08/31/2023	06:08	-132.711	47.741	0	1.20	0	17.9180	0	32.3890	0	23.294	0	1.190	0	231.2	4	96.9	4	-1E+10	1	-1E+10	1	-1E+10	1	-1E+10	1	-1E+10	1	-1E+10	1
4902549	110	C	08/31/2023	06:08	-132.711	47.741	0	2.00	0	17.9190	0	32.3840	0	23.290	0	1.983	0	231.3	4	97.0	4	-1E+10	1	-1E+10	1	-1E+10	1	-1E+10	1	-1E+10	1	-1E+10	1
4902549	110	C	08/31/2023	06:08	-132.711	47.741	0	3.20	0	17.9200	0	32.3850	0	23.291	0	3.173	0	231.3	4	97.0	4	-1E+10	1	-1E+10	1	-1E+10	1	-1E+10	1	-1E+10	1	-1E+10	1
4902549	110	C	08/31/2023	06:08	-132.711	47.741	0	3.80	0	17.9190	0	32.3870	0	23.293	0	3.768	0	231.5	4	97.1	4	-1E+10	1	-1E+10	1	-1E+10	1	-1E+10	1	-1E+10	1	-1E+10	1
4902549	110	C	08/31/2023	06:08	-132.711	47.741	0	5.10	0	17.9130	0	32.3940	0	23.300	0	5.057	0	231.8	4	97.2	4	-1E+10	1	-1E+10	1	-1E+10	1	-1E+10	1	-1E+10	1	-1E+10	1
4902549	110	C	08/31/2023	06:08	-132.711	47.741	0	6.00	0	17.9030	0	32.3950	0	23.303	0	5.950	0	232.0	4	97.3	4	-1E+10	1	-1E+10	1	-1E+10	1	-1E+10	1	-1E+10	1	-1E+10	1
4902549	110	C	08/31/2023	06:08	-132.711	47.741	0	6.90	0	17.8940	0	32.3950	0	23.305	0	6.842	0	232.1	4	97.3	4	-1E+10	1	-1E+10	1	-1E+10	1	-1E+10	1	-1E+10	1	-1E+10	1
4902549	110	C	08/31/2023	06:08	-132.711	47.741	0	7.80	0	17.9030	0	32.3930	0	23.301	0	7.735	0	232.2	4	97.3	4	-1E+10	1	-1E+10	1	-1E+10	1	-1E+10	1	-1E+10	1	-1E+10	1
4902549	110	C	08/31/2023	06:08	-132.711	47.741	0	9.10	0	17.9020	0	32.3940	0	23.302	0	9.024	0	232.4	4	97.4	4	-1E+10	1	-1E+10	1	-1E+10	1	-1E+10	1	-1E+10	1	-1E+10	1
4902549	110	C	08/31/2023	06:08	-132.711	47.741	0	10.10	0	17.9040	0	32.3950	0	23.303	0	10.015	0	232.5	4	97.5	4	-1E+10	1	-1E+10	1	-1E+10	1	-1E+10	1	-1E+10	1	-1E+10	1
4902549	110	C	08/31/2023	06:08	-132.711	47.741	0	11.00	0	17.8980	0	32.3950	0	23.304	0	10.908	0	232.7	4	97.6	4	-1E+10	1	-1E+10	1	-1E+10	1	-1E+10	1	-1E+10	1	-1E+10	1
4902549	110	C	08/31/2023	06:08	-132.711	47.741	0	12.00	0	17.8780	0	32.3990	0	23.312	0	11.899	0	233.3	4	97.8	4	-1E+10	1	-1E+10	1	-1E+10	1	-1E+10	1	-1E+10	1	-1E+10	1
4902549	110	C	08/31/2023	06:08	-132.711	47.741	0	13.00	0	17.8780	0	32.3960	0	23.310	0	12.891	0	233.5	4	97.9	4	-1E+10	1	-1E+10	1	-1E+10	1	-1E+10	1	-1E+10	1	-1E+10	1
4902549	110	C	08/31/2023	06:08	-132.711	47.741	0	13.90	0	17.8570	0	32.4000	0	23.318	0	13.783	0	233.9	4	98.0	4	-1E+10	1	-1E+10	1	-1E+10	1	-1E+10	1	-1E+10	1	-1E+10	1
4902549	110	C	08/31/2023	06:08	-132.711	47.741	0	14.80	0	17.8230	0	32.3990	0	23.325	0	14.676	0	234.4	4	98.1	4	-1E+10	1	-1E+10	1	-1E+10	1	-1E+10	1	-1E+10	1	-1E+10	1
4902549	110	C	08/31/2023	06:08	-132.711	47.741	0	16.00	0	17.7530	0	32.4010	0	23.344	0	15.865	0	235.3	4	98.4	4	-1E+10	1	-1E+10	1	-1E+10	1	-1E+10	1	-1E+10	1	-1E+10	1
4902549	110	C	08/31/2023	06:08	-132.711	47.741	0	16.90	0	17.6670	0	32.3960	0	23.361	0	16.758	0	236.1	4	98.5	4	-1E+10	1	-1E+10	1	-1E+10	1	-1E+10	1	-1E+10	1	-1E+10	1
4902549	110	C	08/31/2023	06:08	-132.711	47.741	0	17.80	0	17.5700	0	32.4100	0	23.395	0	17.650	0	237.0	4	98.8	4	-1E+10	1	-1E+10	1	-1E+10	1	-1E+10	1	-1E+10	1	-1E+10	1
4902549	110	C	08/31/2023	06:08	-132.711	47.741	0	19.00	0	17.5090	0	32.4010	0	23.402	0	18.840	0	238.3	4	99.2	4	-1E+10	1	-1E+10	1	-1E+10	1	-1E+10	1	-1E+10	1	-1E+10	1
4902549	110	C	08/31/2023	06:08	-132.711	47.741	0	20.00	0	17.4820	0	32.3980	0	23.406	0	19.832	0	239.9	4	99.8	4	-1E+10	1	-1E+10	1	-1E+10	1	-1E+10	1	-1E+10	1	-1E+10	1
4902549	110	C	08/31/2023	06:08	-132.711	47.741	0	21.10	0	17.4630	0	32.3950	0	23.409	0	20.922	0	245.8	4	102.2	4	-1E+10	1	-1E+10	1	-1E+10	1	-1E+10	1	-1E+10	1	-1E+10	1
4902549	110	C	08/31/2023	06:08	-132.711	47.741	0	21.90	0	17.4530	0	32.3920	0	23.409	0	21.716	0	251.5	4	104.5	4	-1E+10	1	-1E+10	1	-1E+10	1	-1E+10	1	-1E+10	1	-1E+10	1
4902549	110	C	08/31/2023	06:08	-132.711	47.741	0	22.80	0	17.1920	0	32.3960	0	23.473	0	22.608	0	258.6	4	107.0	4	-1E+10	1	-1E+10	1	-1E+10	1	-1E+10	1	-1E+10	1	-1E+10	1
4902549	110	C	08/31/2023	06:08	-132.711	47.741	0	24.10	0	16.4560	0	32.3980	0	23.646	0	23.897	0	263.1	4	107.3	4	-1E+10	1	-1E+10	1	-1E+10	1	-1E+10	1	-1E+10	1	-1E+10	1
4902549	110	C	08/31/2023	06:08	-132.711	47.741	0	25.10	0	15.1990	0	32.4240	0	23.945	0	24.888	0	270.2	4	107.5	4	-1E+10	1	-1E+10	1	-1E+10	1	-1E+10	1	-1E+10	1	-1E+10	1
4902549	110	C	08/31/2023	06:08	-132.711	47.741	0	25.90	0	15.0850	0	32.4200	0	23.967	0	25.682	0	272.7	4	108.3	4	-1E+10	1	-1E+10	1	-1E+10	1	-1E+10	1	-1E+10	1	-1E+10	1
4902549	110	C	08/31/2023	06:08	-132.711	47.741	0	27.10	0	14.6310	0	32.4150	0	24.060	0	26.871	0	275.6	4	108.4	4	-1E+10	1	-1E+10	1	-1E+10	1	-1E+10	1	-1E+10	1	-1E+10	1
4902549	110	C	08/31/2023	06:08	-132.711	47.741	0	28.00	0	14.4700	0	32.4130	0	24.093	0	27.764	0	277.0	4	108.7	4	-1E+10	1	-1E+10	1	-1E+10	1	-1E+10	1	-1E+10	1	-1E+10	1
4902549	110	C	08/31/2023	06:08	-132.711	47.741	0	29.00	0	14.3040	0	32.4110	0	24.126	0	28.755	0	278.5	4	108.9	4	-1E+10	1	-1E+10	1	-1E+10	1	-1E+10	1	-1E+10	1	-1E+10	1
4902549	110	C	08/31/2023	06:08	-132.711	47.741	0	30.00	0	13.9450	0	32.4410	0	24.223	0	29.747	0	281.4	4	109.2	4	-1E+10	1	-1E+10	1	-1E+10	1	-1E+10	1	-1E+10	1	-1E+10	1
4902549	110	C	08/31/2023	06:08	-132.711	47.741	0	31.00	0	13.7170	0	32.4120	0	24.247	0	30.738	0	283.9	4	109.7	4	-1E+10	1	-1E+10	1	-1E+10	1	-1E+10	1	-1E+10	1	-1E+10	1
4902549	110	C	08/31/2023	06:08	-132.711	47.741	0	31.90	0	13.4360	0	32.4320	0	24.319	0	31.631	0	285.8	4	109.8	4	-1E+10	1	-1E+10	1	-1E+10	1	-1E+10	1	-1E+10	1	-1E+10	1
4902549	110	C	08/31/2023	06:08	-132.711	47.741	0	33.00	0	12.4850	0	32.4380	0	24.510	0	32.721	0	289.6	4	109.1	4	-1E+10	1	-1E+10	1	-1E+10	1	-1E+10	1	-1E+10	1	-1E+10	1
4902549	110	C	08/31/2023	06:08	-132.711	47.741	0	33.90	0	12.0400	0	32.4410	0	24.596	0	33.614	0	291.1	4	108.7	4	-1E+10	1	-1E+10	1	-1E+10	1	-1E+10	1	-1E+10	1	-1E+10	1
4902549	110	C	08/31/2023	06:08	-132.711	47.741	0	35.00	0	11.9050	0	32.4270	0	24.610	0	34.704	0	291.5	4	108.5	4	-1E+10	1	-1E+10	1	-1E+10	1	-1E+10	1	-1E+10	1	-1E+10	1
4902549	110	C	08/31/2023	06:08	-132.711	47.741	0	36.20	0	11.7870	0	32.4240	0	24.630	0	35.894	0	291.3	4	108.2	4	-1E+10	1	-1E+10	1	-1E+10	1	-1E+10	1	-1E+10	1	-1E+10	1
4902549	110	C	08/31/2023	06:08	-132.711	47.741	0	37.10	0	11.7570	0	32.4260	0	24.637	0	36.786	0	290.8	4	107.9	4	-1E+10	1	-1E+10	1	-1E+10	1	-1E+10	1	-1E+10	1	-1E+10	1
4902549	110	C	08/31/2023	06:08	-132.711	47.741	0	37.90	0	11.7470	0	32.4240	0	24.637	0	37.579	0	290.1	4	107.6	4	-1E+10	1	-1E+10	1	-1E+10	1	-1E+10	1	-1E+10	1	-1E+10	1
4902549	110	C	08/31/2023	06:08	-132.711	47.741	0	38.90	0	11.6060	0	32.4310	0	24.668	0	38.571	0	289.3	4	107.0	4	-1E+10	1	-1E+10	1	-1E+10	1	-1E+10	1	-1E+10	1	-1E+10	1
4902549	110	C	08/31/2023	06:08	-132.711	47.741	0	40.00	0	11.1700	0	32.4310	0	24.747	0	39.661	0	289.2	4	106.0	4	-1E+10	1	-1E+10	1	-1E+10	1	-1E+10	1	-1E+10	1	-1E+10	1
4902549	110	C	08/31/2023	06:08	-132.711	47.741	0	40.80	0	10.9700	0	32.4310	0	24.782	0	40.455	0	288.2	4	105.2	4	-1E+10	1	-1E+10	1	-1E+10	1	-1E+10	1	-1E+10	1	-1E+10	1
4902549	110	C	08/31/2023	06:08	-132.711	47.741	0	41.90	0	10.6560	0	32.4380	0	24.842	0	41.545	0	288.4	4	104.6	4	-1E+10	1	-1E+10	1	-1E+10	1	-1E+10	1	-1E+10	1	-1E+10	1
4902549	110	C	08/31/2023	06:08	-132.711	47.741	0	43.10	0	10.3820	0	32.4390	0	24.890	0	42.735	0	288.9	4	104.1	4	-1E+10	1	-1E+10	1	-1E+10	1	-1E+10	1	-1E+10	1	-1E+10	1
4902549	110	C	08/31/2023	06:08	-132.711	47.741	0	43.90	0	10.2180	0	32.4470	0	24.924	0	43.528	0	289.1	4	103.8	4	-1E+10	1	-1E+10	1	-1E+10	1	-1E+10	1	-1E+10	1	-1E+10	1
4902549	110	C	08/31/2023	06:08	-132.711	47.741	0	44.70	0	10.1560	0	32.4410	0	24.930	0	44.321	0	288.8	4	103.6	4	-1E+10	1	-1E+10	1	-1E+10	1	-1E+10	1	-1E+10	1	-1E+10	1
4902549	110	C	08/31/2023	06:08	-132.711	47.741	0	46.10	0	10.1040	0	32.4380	0	24.936	0	45.709	0	287.4	4	103.0	4	-1E+10	1	-1E+10	1	-1E+10	1	-1E+10	1	-1E+10	1	-1E+10	1
4902549	110	C	08/31/2023	06:08	-132.711	47.741	0	47.00	0	10.0760	0	32.4370	0	24.940	0	46.601	0	286.3	4	102.5	4	-1E+10	1	-1E+10	1	-1E+10	1	-1E+10	1	-1E+10	1	-1E+10	1
4902549	110	C	08/31/2023	06:08	-132.711	47.741	0	48.00	0	10.0290	0	32.4350	0	24.946	0	47.593	0	284.4	4	101.8	4	-1E+10	1	-1E+10	1	-1E+10	1	-1E+10	1	-1E+10	1	-1E+10	1
4902549	110	C	08/31/2023	06:08	-132.711	47.741	0	49.20	0	9.8860	0	32.4320	0	24.967	0	48.782	0	282.0	4	100.6	4	-1E+10	1	-1E+10	1	-1E+10	1	-1E+10	1	-1E+10	1	-1E+10	1
4902549	110	C	08/31/2023	06:08	-132.711	47.741	0	50.00	0	9.6450	0	32.4320	0	25.007	0	49.576	0	281.1	4	99.7	4	-1E+10	1	-1E+10	1	-1E+10	1	-1E+10	1	-1E+10	1	-1E+10	1
4902549	110	C	08/31/2023	06:08	-132.711	47.741	0	51.20	0	9.3450	0	32.4460	0	25.066	0	50.765	0	279.9	4	98.6	4	-1E+10	1	-1E+10	1	-1E+10	1	-1E+10	1	-1E+10	1	-1E+10	1
4902549	110	C	08/31/2023	06:08	-132.711	47.741	0	52.10	0	9.1430	0	32.4470	0	25.098	0	51.658	0	279.4	4	98.1	4	-1E+10	1	-1E+10	1	-1E+10	1	-1E+10	1	-1E+10	1	-1E+10	1
4902549	110	C	08/31/2023	06:08	-132.711	47.741	0	53.00	0	9.0150	0	32.4460	0	25.118	0	52.550	0	278.8	4	97.6	4	-1E+10	1	-1E+10	1	-1E+10	1	-1E+10	1	-1E+10	1	-1E+10	1
4902549	110	C	08/31/2023	06:08	-132.711	47.741	0	53.90	0	8.9270	0	32.4410	0	25.127	0	53.442	0	277.8	4	97.0	4	-1E+10	1	-1E+10	1	-1E+10	1	-1E+10	1	-1E+10	1	-1E+10	1
4902549	110	C	08/31/2023	06:08	-132.711	47.741	0	55.10	0	8.8270	0	32.4420	0	25.143	0	54.632	0	276.2	4	96.2	4	-1E+10	1	-1E+10	1	-1E+10	1	-1E+10	1	-1E+10	1	-1E+10	1
4902549	110	C	08/31/2023	06:08	-132.711	47.741	0	56.10	0	8.7490	0	32.4440	0	25.157	0	55.623	0	274.9	4	95.6	4	-1E+10	1	-1E+10	1	-1E+10	1	-1E+10	1	-1E+10	1	-1E+10	1
4902549	110	C	08/31/2023	06:08	-132.711	47.741	0	56.90	0	8.7070	0	32.4470	0	25.166	0	56.416	0	273.7	4	95.1	4	-1E+10	1	-1E+10	1	-1E+10	1	-1E+10	1	-1E+10	1	-1E+10	1
4902549	110	C	08/31/2023	06:08	-132.711	47.741	0	57.70	0	8.6180	0	32.4490	0	25.181	0	57.209	0	273.2	4	94.8	4	-1E+10	1	-1E+10	1	-1E+10	1	-1E+10	1	-1E+10	1	-1E+10	1
4902549	110	C	08/31/2023	06:08	-132.711	47.741	0	58.80	0	8.5300	0	32.4520	0	25.196	0	58.300	0	272.3	4	94.3	4	-1E+10	1	-1E+10	1	-1E+10	1	-1E+10	1	-1E+10	1	-1E+10	1
4902549	110	C	08/31/2023	06:08	-132.711	47.741	0	59.90	0	8.4670	0	32.4520	0	25.206	0	59.390	0	271.5	4	93.9	4	-1E+10	1	-1E+10	1	-1E+10	1	-1E+10	1	-1E+10	1	-1E+10	1
4902549	110	C	08/31/2023	06:08	-132.711	47.741	0	61.00	0	8.3800	0	32.4540	0	25.220	0	60.481	0	270.9	4	93.5	4	-1E+10	1	-1E+10	1	-1E+10	1	-1E+10	1	-1E+10	1	-1E+10	1
4902549	110	C	08/31/2023	06:08	-132.711	47.741	0	62.10	0	8.3180	0	32.4520	0	25.228	0	61.571	0	270.5	4	93.2	4	-1E+10	1	-1E+10	1	-1E+10	1	-1E+10	1	-1E+10	1	-1E+10	1
4902549	110	C	08/31/2023	06:08	-132.711	47.741	0	62.90	0	8.2790	0	32.4510	0	25.233	0	62.364	0	270.0	4	93.0	4	-1E+10	1	-1E+10	1	-1E+10	1	-1E+10	1	-1E+10	1	-1E+10	1
4902549	110	C	08/31/2023	06:08	-132.711	47.741	0	63.70	0	8.2590	0	32.4480	0	25.234	0	63.157	0	269.5	4	92.8	4	-1E+10	1	-1E+10	1	-1E+10	1	-1E+10	1	-1E+10	1	-1E+10	1
4902549	110	C	08/31/2023	06:08	-132.711	47.741	0	64.80	0	8.1810	0	32.4530	0	25.249	0	64.248	0	269.0	4	92.4	4	-1E+10	1	-1E+10	1	-1E+10	1	-1E+10	1	-1E+10	1	-1E+10	1
4902549	110	C	08/31/2023	06:08	-132.711	47.741	0	65.90	0	8.1130	0	32.4580	0	25.263	0	65.338	0	268.7	4	92.2	4	-1E+10	1	-1E+10	1	-1E+10	1	-1E+10	1	-1E+10	1	-1E+10	1
4902549	110	C	08/31/2023	06:08	-132.711	47.741	0	67.00	0	8.0540	0	32.4510	0	25.266	0	66.429	0	268.6	4	92.0	4	-1E+10	1	-1E+10	1	-1E+10	1	-1E+10	1	-1E+10	1	-1E+10	1
4902549	110	C	08/31/2023	06:08	-132.711	47.741	0	68.10	0	8.0400	0	32.4530	0	25.269	0	67.519	0	268.1	4	91.8	4	-1E+10	1	-1E+10	1	-1E+10	1	-1E+10	1	-1E+10	1	-1E+10	1
4902549	110	C	08/31/2023	06:08	-132.711	47.741	0	69.10	0	7.9880	0	32.4580	0	25.281	0	68.510	0	268.0	4	91.7	4	-1E+10	1	-1E+10	1	-1E+10	1	-1E+10	1	-1E+10	1	-1E+10	1
4902549	110	C	08/31/2023	06:08	-132.711	47.741	0	70.00	0	7.9580	0	32.4550	0	25.283	0	69.402	0	267.8	4	91.6	4	-1E+10	1	-1E+10	1	-1E+10	1	-1E+10	1	-1E+10	1	-1E+10	1
4902549	110	C	08/31/2023	06:08	-132.711	47.741	0	70.90	0	7.9220	0	32.4530	0	25.286	0	70.295	0	267.6	4	91.4	4	-1E+10	1	-1E+10	1	-1E+10	1	-1E+10	1	-1E+10	1	-1E+10	1
4902549	110	C	08/31/2023	06:08	-132.711	47.741	0	72.10	0	7.8840	0	32.4540	0	25.293	0	71.484	0	267.2	4	91.2	4	-1E+10	1	-1E+10	1	-1E+10	1	-1E+10	1	-1E+10	1	-1E+10	1
4902549	110	C	08/31/2023	06:08	-132.711	47.741	0	73.10	0	7.8440	0	32.4540	0	25.298	0	72.475	0	267.1	4	91.1	4	-1E+10	1	-1E+10	1	-1E+10	1	-1E+10	1	-1E+10	1	-1E+10	1
4902549	110	C	08/31/2023	06:08	-132.711	47.741	0	74.30	0	7.8010	0	32.4570	0	25.307	0	73.665	0	266.9	4	90.9	4	-1E+10	1	-1E+10	1	-1E+10	1	-1E+10	1	-1E+10	1	-1E+10	1
4902549	110	C	08/31/2023	06:08	-132.711	47.741	0	75.00	0	7.7590	0	32.4580	0	25.314	0	74.359	0	266.8	4	90.8	4	-1E+10	1	-1E+10	1	-1E+10	1	-1E+10	1	-1E+10	1	-1E+10	1
4902549	110	C	08/31/2023	06:08	-132.711	47.741	0	76.20	0	7.7150	0	32.4540	0	25.317	0	75.548	0	266.6	4	90.6	4	-1E+10	1	-1E+10	1	-1E+10	1	-1E+10	1	-1E+10	1	-1E+10	1
4902549	110	C	08/31/2023	06:08	-132.711	47.741	0	77.00	0	7.7120	0	32.4550	0	25.318	0	76.341	0	266.4	4	90.6	4	-1E+10	1	-1E+10	1	-1E+10	1	-1E+10	1	-1E+10	1	-1E+10	1
4902549	110	C	08/31/2023	06:08	-132.711	47.741	0	78.10	0	7.7070	0	32.4560	0	25.320	0	77.432	0	265.9	4	90.4	4	-1E+10	1	-1E+10	1	-1E+10	1	-1E+10	1	-1E+10	1	-1E+10	1
4902549	110	C	08/31/2023	06:08	-132.711	47.741	0	78.90	0	7.6970	0	32.4560	0	25.321	0	78.225	0	265.6	4	90.3	4	-1E+10	1	-1E+10	1	-1E+10	1	-1E+10	1	-1E+10	1	-1E+10	1
4902549	110	C	08/31/2023	06:08	-132.711	47.741	0	79.80	0	7.6820	0	32.4560	0	25.323	0	79.117	0	265.2	4	90.1	4	-1E+10	1	-1E+10	1	-1E+10	1	-1E+10	1	-1E+10	1	-1E+10	1
4902549	110	C	08/31/2023	06:08	-132.711	47.741	0	80.80	0	7.6650	0	32.4590	0	25.328	0	80.108	0	264.9	4	90.0	4	-1E+10	1	-1E+10	1	-1E+10	1	-1E+10	1	-1E+10	1	-1E+10	1
4902549	110	C	08/31/2023	06:08	-132.711	47.741	0	82.00	0	7.6490	0	32.4640	0	25.334	0	81.298	0	271.3	4	92.1	4	-1E+10	1	-1E+10	1	-1E+10	1	-1E+10	1	-1E+10	1	-1E+10	1
4902549	110	C	08/31/2023	06:08	-132.711	47.741	0	83.30	0	7.6350	0	32.4690	0	25.340	0	82.586	0	271.1	4	92.0	4	-1E+10	1	-1E+10	1	-1E+10	1	-1E+10	1	-1E+10	1	-1E+10	1
4902549	110	C	08/31/2023	06:08	-132.711	47.741	0	83.90	0	7.6290	0	32.4700	0	25.342	0	83.181	0	270.9	4	91.9	4	-1E+10	1	-1E+10	1	-1E+10	1	-1E+10	1	-1E+10	1	-1E+10	1
4902549	110	C	08/31/2023	06:08	-132.711	47.741	0	84.80	0	7.6270	0	32.4710	0	25.343	0	84.073	0	270.8	4	91.9	4	-1E+10	1	-1E+10	1	-1E+10	1	-1E+10	1	-1E+10	1	-1E+10	1
4902549	110	C	08/31/2023	06:08	-132.711	47.741	0	85.90	0	7.6170	0	32.4730	0	25.346	0	85.163	0	270.5	4	91.8	4	-1E+10	1	-1E+10	1	-1E+10	1	-1E+10	1	-1E+10	1	-1E+10	1
4902549	110	C	08/31/2023	06:08	-132.711	47.741	0	87.10	0	7.6070	0	32.4750	0	25.349	0	86.353	0	270.2	4	91.6	4	-1E+10	1	-1E+10	1	-1E+10	1	-1E+10	1	-1E+10	1	-1E+10	1
4902549	110	C	08/31/2023	06:08	-132.711	47.741	0	88.20	0	7.6020	0	32.4770	0	25.351	0	87.443	0	269.8	4	91.5	4	-1E+10	1	-1E+10	1	-1E+10	1	-1E+10	1	-1E+10	1	-1E+10	1
4902549	110	C	08/31/2023	06:08	-132.711	47.741	0	89.10	0	7.5990	0	32.4750	0	25.350	0	88.335	0	269.5	4	91.4	4	-1E+10	1	-1E+10	1	-1E+10	1	-1E+10	1	-1E+10	1	-1E+10	1
4902549	110	C	08/31/2023	06:08	-132.711	47.741	0	89.90	0	7.5900	0	32.4790	0	25.354	0	89.128	0	269.3	4	91.3	4	-1E+10	1	-1E+10	1	-1E+10	1	-1E+10	1	-1E+10	1	-1E+10	1
4902549	110	C	08/31/2023	06:08	-132.711	47.741	0	91.00	0	7.5720	0	32.4870	0	25.363	0	90.219	0	269.0	4	91.2	4	-1E+10	1	-1E+10	1	-1E+10	1	-1E+10	1	-1E+10	1	-1E+10	1
4902549	110	C	08/31/2023	06:08	-132.711	47.741	0	92.10	0	7.5540	0	32.4890	0	25.367	0	91.309	0	268.7	4	91.0	4	-1E+10	1	-1E+10	1	-1E+10	1	-1E+10	1	-1E+10	1	-1E+10	1
4902549	110	C	08/31/2023	06:08	-132.711	47.741	0	93.00	0	7.5500	0	32.4900	0	25.368	0	92.201	0	268.5	4	91.0	4	-1E+10	1	-1E+10	1	-1E+10	1	-1E+10	1	-1E+10	1	-1E+10	1
4902549	110	C	08/31/2023	06:08	-132.711	47.741	0	94.00	0	7.5330	0	32.4950	0	25.375	0	93.192	0	268.1	4	90.8	4	-1E+10	1	-1E+10	1	-1E+10	1	-1E+10	1	-1E+10	1	-1E+10	1
4902549	110	C	08/31/2023	06:08	-132.711	47.741	0	95.10	0	7.5460	0	32.4940	0	25.372	0	94.282	0	267.6	4	90.6	4	-1E+10	1	-1E+10	1	-1E+10	1	-1E+10	1	-1E+10	1	-1E+10	1
4902549	110	C	08/31/2023	06:08	-132.711	47.741	0	95.80	0	7.5610	0	32.5100	0	25.383	0	94.976	0	267.0	4	90.5	4	-1E+10	1	-1E+10	1	-1E+10	1	-1E+10	1	-1E+10	1	-1E+10	1
4902549	110	C	08/31/2023	06:08	-132.711	47.741	0	97.00	0	7.5420	0	32.5130	0	25.388	0	96.166	0	266.4	4	90.3	4	-1E+10	1	-1E+10	1	-1E+10	1	-1E+10	1	-1E+10	1	-1E+10	1
4902549	110	C	08/31/2023	06:08	-132.711	47.741	0	98.00	0	7.5330	0	32.5140	0	25.390	0	97.157	0	265.7	4	90.0	4	-1E+10	1	-1E+10	1	-1E+10	1	-1E+10	1	-1E+10	1	-1E+10	1
4902549	110	C	08/31/2023	06:08	-132.711	47.741	0	99.10	0	7.5130	0	32.5170	0	25.395	0	98.247	0	264.7	4	89.6	4	-1E+10	1	-1E+10	1	-1E+10	1	-1E+10	1	-1E+10	1	-1E+10	1
4902549	110	C	08/31/2023	06:08	-132.711	47.741	0	99.80	0	7.5030	0	32.5200	0	25.399	0	98.941	0	264.0	4	89.4	4	-1E+10	1	-1E+10	1	-1E+10	1	-1E+10	1	-1E+10	1	-1E+10	1
4902549	110	C	08/31/2023	06:08	-132.711	47.741	0	100.90	0	7.4870	0	32.5280	0	25.407	0	100.031	0	262.5	4	88.8	4	-1E+10	1	-1E+10	1	-1E+10	1	-1E+10	1	-1E+10	1	-1E+10	1
4902549	110	C	08/31/2023	06:08	-132.711	47.741	0	102.00	0	7.4760	0	32.5330	0	25.413	0	101.121	0	260.5	4	88.1	4	-1E+10	1	-1E+10	1	-1E+10	1	-1E+10	1	-1E+10	1	-1E+10	1
4902549	110	C	08/31/2023	06:08	-132.711	47.741	0	103.10	0	7.4670	0	32.5480	0	25.426	0	102.212	0	258.1	4	87.3	4	-1E+10	1	-1E+10	1	-1E+10	1	-1E+10	1	-1E+10	1	-1E+10	1
4902549	110	C	08/31/2023	06:08	-132.711	47.741	0	103.90	0	7.4670	0	32.5620	0	25.437	0	103.005	0	256.4	4	86.7	4	-1E+10	1	-1E+10	1	-1E+10	1	-1E+10	1	-1E+10	1	-1E+10	1
4902549	110	C	08/31/2023	06:08	-132.711	47.741	0	105.00	0	7.4590	0	32.5810	0	25.453	0	104.095	0	254.0	4	85.9	4	-1E+10	1	-1E+10	1	-1E+10	1	-1E+10	1	-1E+10	1	-1E+10	1
4902549	110	C	08/31/2023	06:08	-132.711	47.741	0	106.20	0	7.4520	0	32.6070	0	25.474	0	105.284	0	251.5	4	85.1	4	-1E+10	1	-1E+10	1	-1E+10	1	-1E+10	1	-1E+10	1	-1E+10	1
4902549	110	C	08/31/2023	06:08	-132.711	47.741	0	107.00	0	7.4460	0	32.6280	0	25.492	0	106.077	0	250.1	4	84.6	4	-1E+10	1	-1E+10	1	-1E+10	1	-1E+10	1	-1E+10	1	-1E+10	1
4902549	110	C	08/31/2023	06:08	-132.711	47.741	0	108.30	0	7.4330	0	32.6510	0	25.511	0	107.366	0	248.3	4	84.0	4	-1E+10	1	-1E+10	1	-1E+10	1	-1E+10	1	-1E+10	1	-1E+10	1
4902549	110	C	08/31/2023	06:08	-132.711	47.741	0	109.20	0	7.4090	0	32.6660	0	25.527	0	108.258	0	246.9	4	83.5	4	-1E+10	1	-1E+10	1	-1E+10	1	-1E+10	1	-1E+10	1	-1E+10	1
4902549	110	C	08/31/2023	06:08	-132.711	47.741	0	109.90	0	7.3510	0	32.7070	0	25.567	0	108.951	0	246.3	4	83.2	4	-1E+10	1	-1E+10	1	-1E+10	1	-1E+10	1	-1E+10	1	-1E+10	1
4902549	110	C	08/31/2023	06:08	-132.711	47.741	0	110.90	0	7.2860	0	32.7350	0	25.598	0	109.942	0	245.6	4	82.9	4	-1E+10	1	-1E+10	1	-1E+10	1	-1E+10	1	-1E+10	1	-1E+10	1
4902549	110	C	08/31/2023	06:08	-132.711	47.741	0	112.00	0	7.2410	0	32.7540	0	25.619	0	111.033	0	244.9	4	82.5	4	-1E+10	1	-1E+10	1	-1E+10	1	-1E+10	1	-1E+10	1	-1E+10	1
4902549	110	C	08/31/2023	06:08	-132.711	47.741	0	113.00	0	7.1980	0	32.7670	0	25.635	0	112.024	0	244.0	4	82.2	4	-1E+10	1	-1E+10	1	-1E+10	1	-1E+10	1	-1E+10	1	-1E+10	1
4902549	110	C	08/31/2023	06:08	-132.711	47.741	0	114.10	0	7.1650	0	32.7740	0	25.645	0	113.114	0	243.0	4	81.8	4	-1E+10	1	-1E+10	1	-1E+10	1	-1E+10	1	-1E+10	1	-1E+10	1
4902549	110	C	08/31/2023	06:08	-132.711	47.741	0	114.90	0	7.1490	0	32.7820	0	25.653	0	113.907	0	242.1	4	81.5	4	-1E+10	1	-1E+10	1	-1E+10	1	-1E+10	1	-1E+10	1	-1E+10	1
4902549	110	C	08/31/2023	06:08	-132.711	47.741	0	115.70	0	7.1070	0	32.8000	0	25.673	0	114.700	0	241.2	4	81.1	4	-1E+10	1	-1E+10	1	-1E+10	1	-1E+10	1	-1E+10	1	-1E+10	1
4902549	110	C	08/31/2023	06:08	-132.711	47.741	0	116.80	0	7.0830	0	32.8120	0	25.686	0	115.790	0	239.7	4	80.5	4	-1E+10	1	-1E+10	1	-1E+10	1	-1E+10	1	-1E+10	1	-1E+10	1
4902549	110	C	08/31/2023	06:08	-132.711	47.741	0	117.80	0	7.0440	0	32.8300	0	25.705	0	116.781	0	238.1	4	79.9	4	-1E+10	1	-1E+10	1	-1E+10	1	-1E+10	1	-1E+10	1	-1E+10	1
4902549	110	C	08/31/2023	06:08	-132.711	47.741	0	118.90	0	7.0010	0	32.8500	0	25.727	0	117.871	0	236.1	4	79.2	4	-1E+10	1	-1E+10	1	-1E+10	1	-1E+10	1	-1E+10	1	-1E+10	1
4902549	110	C	08/31/2023	06:08	-132.711	47.741	0	120.00	0	6.9840	0	32.8600	0	25.737	0	118.961	0	233.6	4	78.3	4	-1E+10	1	-1E+10	1	-1E+10	1	-1E+10	1	-1E+10	1	-1E+10	1
4902549	110	C	08/31/2023	06:08	-132.711	47.741	0	121.10	0	6.9150	0	32.8970	0	25.775	0	120.051	0	231.1	4	77.4	4	-1E+10	1	-1E+10	1	-1E+10	1	-1E+10	1	-1E+10	1	-1E+10	1
4902549	110	C	08/31/2023	06:08	-132.711	47.741	0	122.10	0	6.8140	0	32.9610	0	25.839	0	121.042	0	230.0	4	76.9	4	-1E+10	1	-1E+10	1	-1E+10	1	-1E+10	1	-1E+10	1	-1E+10	1
4902549	110	C	08/31/2023	06:08	-132.711	47.741	0	123.00	0	6.7790	0	32.9770	0	25.856	0	121.934	0	228.7	4	76.4	4	-1E+10	1	-1E+10	1	-1E+10	1	-1E+10	1	-1E+10	1	-1E+10	1
4902549	110	C	08/31/2023	06:08	-132.711	47.741	0	124.10	0	6.7020	0	33.0380	0	25.915	0	123.025	0	227.5	4	75.9	4	-1E+10	1	-1E+10	1	-1E+10	1	-1E+10	1	-1E+10	1	-1E+10	1
4902549	110	C	08/31/2023	06:08	-132.711	47.741	0	124.80	0	6.6780	0	33.0490	0	25.927	0	123.718	0	226.9	4	75.7	4	-1E+10	1	-1E+10	1	-1E+10	1	-1E+10	1	-1E+10	1	-1E+10	1
4902549	110	C	08/31/2023	06:08	-132.711	47.741	0	126.00	0	6.6500	0	33.0750	0	25.951	0	124.908	0	225.8	4	75.3	4	-1E+10	1	-1E+10	1	-1E+10	1	-1E+10	1	-1E+10	1	-1E+10	1
4902549	110	C	08/31/2023	06:08	-132.711	47.741	0	127.30	0	6.5870	0	33.1430	0	26.013	0	126.196	0	225.1	4	74.9	4	-1E+10	1	-1E+10	1	-1E+10	1	-1E+10	1	-1E+10	1	-1E+10	1
4902549	110	C	08/31/2023	06:08	-132.711	47.741	0	128.20	0	6.5640	0	33.1590	0	26.028	0	127.088	0	224.5	4	74.7	4	-1E+10	1	-1E+10	1	-1E+10	1	-1E+10	1	-1E+10	1	-1E+10	1
4902549	110	C	08/31/2023	06:08	-132.711	47.741	0	129.20	0	6.5470	0	33.1680	0	26.037	0	128.079	0	224.2	4	74.6	4	-1E+10	1	-1E+10	1	-1E+10	1	-1E+10	1	-1E+10	1	-1E+10	1
4902549	110	C	08/31/2023	06:08	-132.711	47.741	0	130.20	0	6.5220	0	33.1780	0	26.049	0	129.070	0	223.7	4	74.4	4	-1E+10	1	-1E+10	1	-1E+10	1	-1E+10	1	-1E+10	1	-1E+10	1
4902549	110	C	08/31/2023	06:08	-132.711	47.741	0	131.20	0	6.4820	0	33.1940	0	26.066	0	130.061	0	223.4	4	74.2	4	-1E+10	1	-1E+10	1	-1E+10	1	-1E+10	1	-1E+10	1	-1E+10	1
4902549	110	C	08/31/2023	06:08	-132.711	47.741	0	132.20	0	6.4810	0	33.2010	0	26.072	0	131.052	0	223.0	4	74.1	4	-1E+10	1	-1E+10	1	-1E+10	1	-1E+10	1	-1E+10	1	-1E+10	1
4902549	110	C	08/31/2023	06:08	-132.711	47.741	0	133.30	0	6.4810	0	33.2010	0	26.072	0	132.142	0	222.4	4	73.9	4	-1E+10	1	-1E+10	1	-1E+10	1	-1E+10	1	-1E+10	1	-1E+10	1
4902549	110	C	08/31/2023	06:08	-132.711	47.741	0	134.30	0	6.4800	0	33.2010	0	26.072	0	133.133	0	221.8	4	73.7	4	-1E+10	1	-1E+10	1	-1E+10	1	-1E+10	1	-1E+10	1	-1E+10	1
4902549	110	C	08/31/2023	06:08	-132.711	47.741	0	135.40	0	6.4800	0	33.2020	0	26.073	0	134.223	0	221.2	4	73.5	4	-1E+10	1	-1E+10	1	-1E+10	1	-1E+10	1	-1E+10	1	-1E+10	1
4902549	110	C	08/31/2023	06:08	-132.711	47.741	0	136.50	0	6.4650	0	33.2120	0	26.083	0	135.313	0	220.5	4	73.3	4	-1E+10	1	-1E+10	1	-1E+10	1	-1E+10	1	-1E+10	1	-1E+10	1
4902549	110	C	08/31/2023	06:08	-132.711	47.741	0	137.60	0	6.4070	0	33.2340	0	26.108	0	136.403	0	219.8	4	72.9	4	-1E+10	1	-1E+10	1	-1E+10	1	-1E+10	1	-1E+10	1	-1E+10	1
4902549	110	C	08/31/2023	06:08	-132.711	47.741	0	138.70	0	6.3880	0	33.2180	0	26.097	0	137.493	0	219.1	4	72.7	4	-1E+10	1	-1E+10	1	-1E+10	1	-1E+10	1	-1E+10	1	-1E+10	1
4902549	110	C	08/31/2023	06:08	-132.711	47.741	0	139.80	0	6.3750	0	33.2220	0	26.102	0	138.583	0	218.1	4	72.3	4	-1E+10	1	-1E+10	1	-1E+10	1	-1E+10	1	-1E+10	1	-1E+10	1
4902549	110	C	08/31/2023	06:08	-132.711	47.741	0	141.00	0	6.3280	0	33.2540	0	26.134	0	139.772	0	217.4	4	72.0	4	-1E+10	1	-1E+10	1	-1E+10	1	-1E+10	1	-1E+10	1	-1E+10	1
4902549	110	C	08/31/2023	06:08	-132.711	47.741	0	142.10	0	6.2970	0	33.2900	0	26.166	0	140.862	0	216.7	4	71.7	4	-1E+10	1	-1E+10	1	-1E+10	1	-1E+10	1	-1E+10	1	-1E+10	1
4902549	110	C	08/31/2023	06:08	-132.711	47.741	0	143.30	0	6.2570	0	33.2980	0	26.177	0	142.052	0	216.2	4	71.5	4	-1E+10	1	-1E+10	1	-1E+10	1	-1E+10	1	-1E+10	1	-1E+10	1
4902549	110	C	08/31/2023	06:08	-132.711	47.741	0	144.50	0	6.2660	0	33.3230	0	26.196	0	143.241	0	215.6	4	71.4	4	-1E+10	1	-1E+10	1	-1E+10	1	-1E+10	1	-1E+10	1	-1E+10	1
4902549	110	C	08/31/2023	06:08	-132.711	47.741	0	145.70	0	6.2470	0	33.3290	0	26.203	0	144.430	0	215.0	4	71.1	4	-1E+10	1	-1E+10	1	-1E+10	1	-1E+10	1	-1E+10	1	-1E+10	1
4902549	110	C	08/31/2023	06:08	-132.711	47.741	0	146.80	0	6.1950	0	33.3610	0	26.235	0	145.520	0	214.3	4	70.8	4	-1E+10	1	-1E+10	1	-1E+10	1	-1E+10	1	-1E+10	1	-1E+10	1
4902549	110	C	08/31/2023	06:08	-132.711	47.741	0	148.00	0	6.1850	0	33.3570	0	26.233	0	146.709	0	213.8	4	70.6	4	-1E+10	1	-1E+10	1	-1E+10	1	-1E+10	1	-1E+10	1	-1E+10	1
4902549	110	C	08/31/2023	06:08	-132.711	47.741	0	149.20	0	6.1720	0	33.3690	0	26.244	0	147.898	0	213.1	4	70.4	4	-1E+10	1	-1E+10	1	-1E+10	1	-1E+10	1	-1E+10	1	-1E+10	1
4902549	110	C	08/31/2023	06:08	-132.711	47.741	0	150.40	0	6.1420	0	33.3750	0	26.253	0	149.087	0	212.7	4	70.2	4	-1E+10	1	-1E+10	1	-1E+10	1	-1E+10	1	-1E+10	1	-1E+10	1
4902549	110	C	08/31/2023	06:08	-132.711	47.741	0	151.60	0	6.1370	0	33.3780	0	26.256	0	150.276	0	212.0	4	70.0	4	-1E+10	1	-1E+10	1	-1E+10	1	-1E+10	1	-1E+10	1	-1E+10	1
4902549	110	C	08/31/2023	06:08	-132.711	47.741	0	152.70	0	6.1230	0	33.3860	0	26.264	0	151.366	0	211.0	4	69.7	4	-1E+10	1	-1E+10	1	-1E+10	1	-1E+10	1	-1E+10	1	-1E+10	1
4902549	110	C	08/31/2023	06:08	-132.711	47.741	0	153.90	0	6.1210	0	33.3820	0	26.261	0	152.555	0	210.1	4	69.3	4	-1E+10	1	-1E+10	1	-1E+10	1	-1E+10	1	-1E+10	1	-1E+10	1
4902549	110	C	08/31/2023	06:08	-132.711	47.741	0	155.00	0	6.1040	0	33.3970	0	26.275	0	153.645	0	209.3	4	69.0	4	-1E+10	1	-1E+10	1	-1E+10	1	-1E+10	1	-1E+10	1	-1E+10	1
4902549	110	C	08/31/2023	06:08	-132.711	47.741	0	156.10	0	6.1090	0	33.4070	0	26.282	0	154.735	0	208.3	4	68.7	4	-1E+10	1	-1E+10	1	-1E+10	1	-1E+10	1	-1E+10	1	-1E+10	1
4902549	110	C	08/31/2023	06:08	-132.711	47.741	0	157.30	0	6.1030	0	33.4120	0	26.287	0	155.924	0	207.3	4	68.4	4	-1E+10	1	-1E+10	1	-1E+10	1	-1E+10	1	-1E+10	1	-1E+10	1
4902549	110	C	08/31/2023	06:08	-132.711	47.741	0	158.40	0	6.1120	0	33.4270	0	26.298	0	157.014	0	206.3	4	68.1	4	-1E+10	1	-1E+10	1	-1E+10	1	-1E+10	1	-1E+10	1	-1E+10	1
4902549	110	C	08/31/2023	06:08	-132.711	47.741	0	159.60	0	6.0750	0	33.4440	0	26.316	0	158.203	0	205.6	4	67.8	4	-1E+10	1	-1E+10	1	-1E+10	1	-1E+10	1	-1E+10	1	-1E+10	1
4902549	110	C	08/31/2023	06:08	-132.711	47.741	0	160.80	0	6.0640	0	33.4460	0	26.319	0	159.392	0	205.0	4	67.6	4	-1E+10	1	-1E+10	1	-1E+10	1	-1E+10	1	-1E+10	1	-1E+10	1
4902549	110	C	08/31/2023	06:08	-132.711	47.741	0	161.90	0	6.0800	0	33.4760	0	26.340	0	160.482	0	204.0	4	67.3	4	-1E+10	1	-1E+10	1	-1E+10	1	-1E+10	1	-1E+10	1	-1E+10	1
4902549	110	C	08/31/2023	06:08	-132.711	47.741	0	163.10	0	6.0470	0	33.4810	0	26.348	0	161.671	0	203.2	4	67.0	4	-1E+10	1	-1E+10	1	-1E+10	1	-1E+10	1	-1E+10	1	-1E+10	1
4902549	110	C	08/31/2023	06:08	-132.711	47.741	0	164.20	0	6.0140	0	33.4910	0	26.360	0	162.761	0	202.3	4	66.7	4	-1E+10	1	-1E+10	1	-1E+10	1	-1E+10	1	-1E+10	1	-1E+10	1
4902549	110	C	08/31/2023	06:08	-132.711	47.741	0	165.30	0	5.9660	0	33.4810	0	26.358	0	163.851	0	201.8	4	66.4	4	-1E+10	1	-1E+10	1	-1E+10	1	-1E+10	1	-1E+10	1	-1E+10	1
4902549	110	C	08/31/2023	06:08	-132.711	47.741	0	166.40	0	5.9610	0	33.4810	0	26.359	0	164.941	0	200.8	4	66.1	4	-1E+10	1	-1E+10	1	-1E+10	1	-1E+10	1	-1E+10	1	-1E+10	1
4902549	110	C	08/31/2023	06:08	-132.711	47.741	0	167.50	0	5.9500	0	33.4850	0	26.364	0	166.031	0	199.8	4	65.7	4	-1E+10	1	-1E+10	1	-1E+10	1	-1E+10	1	-1E+10	1	-1E+10	1
4902549	110	C	08/31/2023	06:08	-132.711	47.741	0	168.60	0	5.9350	0	33.4890	0	26.369	0	167.121	0	198.9	4	65.4	4	-1E+10	1	-1E+10	1	-1E+10	1	-1E+10	1	-1E+10	1	-1E+10	1
4902549	110	C	08/31/2023	06:08	-132.711	47.741	0	169.60	0	5.9330	0	33.4950	0	26.374	0	168.112	0	197.6	4	65.0	4	-1E+10	1	-1E+10	1	-1E+10	1	-1E+10	1	-1E+10	1	-1E+10	1
4902549	110	C	08/31/2023	06:08	-132.711	47.741	0	170.70	0	5.9320	0	33.4980	0	26.376	0	169.202	0	196.2	4	64.5	4	-1E+10	1	-1E+10	1	-1E+10	1	-1E+10	1	-1E+10	1	-1E+10	1
4902549	110	C	08/31/2023	06:08	-132.711	47.741	0	171.70	0	5.9200	0	33.5070	0	26.385	0	170.192	0	194.7	4	64.0	4	-1E+10	1	-1E+10	1	-1E+10	1	-1E+10	1	-1E+10	1	-1E+10	1
4902549	110	C	08/31/2023	06:08	-132.711	47.741	0	172.70	0	5.9010	0	33.5390	0	26.412	0	171.183	0	193.7	4	63.7	4	-1E+10	1	-1E+10	1	-1E+10	1	-1E+10	1	-1E+10	1	-1E+10	1
4902549	110	C	08/31/2023	06:08	-132.711	47.741	0	173.70	0	5.9160	0	33.5400	0	26.411	0	172.174	0	192.5	4	63.3	4	-1E+10	1	-1E+10	1	-1E+10	1	-1E+10	1	-1E+10	1	-1E+10	1
4902549	110	C	08/31/2023	06:08	-132.711	47.741	0	174.70	0	5.9140	0	33.5650	0	26.431	0	173.165	0	191.2	4	62.9	4	-1E+10	1	-1E+10	1	-1E+10	1	-1E+10	1	-1E+10	1	-1E+10	1
4902549	110	C	08/31/2023	06:08	-132.711	47.741	0	175.70	0	5.8880	0	33.5780	0	26.445	0	174.156	0	189.9	4	62.4	4	-1E+10	1	-1E+10	1	-1E+10	1	-1E+10	1	-1E+10	1	-1E+10	1
4902549	110	C	08/31/2023	06:08	-132.711	47.741	0	176.70	0	5.8800	0	33.5720	0	26.441	0	175.146	0	188.6	4	62.0	4	-1E+10	1	-1E+10	1	-1E+10	1	-1E+10	1	-1E+10	1	-1E+10	1
4902549	110	C	08/31/2023	06:08	-132.711	47.741	0	177.70	0	5.8610	0	33.5700	0	26.442	0	176.137	0	187.3	4	61.5	4	-1E+10	1	-1E+10	1	-1E+10	1	-1E+10	1	-1E+10	1	-1E+10	1
4902549	110	C	08/31/2023	06:08	-132.711	47.741	0	178.70	0	5.8420	0	33.5890	0	26.459	0	177.128	0	186.0	4	61.1	4	-1E+10	1	-1E+10	1	-1E+10	1	-1E+10	1	-1E+10	1	-1E+10	1
4902549	110	C	08/31/2023	06:08	-132.711	47.741	0	179.60	0	5.8660	0	33.5970	0	26.463	0	178.020	0	184.7	4	60.7	4	-1E+10	1	-1E+10	1	-1E+10	1	-1E+10	1	-1E+10	1	-1E+10	1
4902549	110	C	08/31/2023	06:08	-132.711	47.741	0	180.60	0	5.8950	0	33.6220	0	26.479	0	179.010	0	183.3	4	60.3	4	-1E+10	1	-1E+10	1	-1E+10	1	-1E+10	1	-1E+10	1	-1E+10	1
4902549	110	C	08/31/2023	06:08	-132.711	47.741	0	181.50	0	5.9010	0	33.6260	0	26.481	0	179.902	0	181.8	4	59.8	4	-1E+10	1	-1E+10	1	-1E+10	1	-1E+10	1	-1E+10	1	-1E+10	1
4902549	110	C	08/31/2023	06:08	-132.711	47.741	0	182.90	0	5.9010	0	33.6440	0	26.496	0	181.289	0	179.7	4	59.1	4	-1E+10	1	-1E+10	1	-1E+10	1	-1E+10	1	-1E+10	1	-1E+10	1
4902549	110	C	08/31/2023	06:08	-132.711	47.741	0	184.30	0	5.8950	0	33.6510	0	26.502	0	182.676	0	177.6	4	58.4	4	-1E+10	1	-1E+10	1	-1E+10	1	-1E+10	1	-1E+10	1	-1E+10	1
4902549	110	C	08/31/2023	06:08	-132.711	47.741	0	185.20	0	5.8760	0	33.6620	0	26.513	0	183.568	0	176.3	4	58.0	4	-1E+10	1	-1E+10	1	-1E+10	1	-1E+10	1	-1E+10	1	-1E+10	1
4902549	110	C	08/31/2023	06:08	-132.711	47.741	0	186.10	0	5.8530	0	33.6680	0	26.520	0	184.460	0	175.2	4	57.6	4	-1E+10	1	-1E+10	1	-1E+10	1	-1E+10	1	-1E+10	1	-1E+10	1
4902549	110	C	08/31/2023	06:08	-132.711	47.741	0	187.20	0	5.8390	0	33.6740	0	26.527	0	185.549	0	173.8	4	57.1	4	-1E+10	1	-1E+10	1	-1E+10	1	-1E+10	1	-1E+10	1	-1E+10	1
4902549	110	C	08/31/2023	06:08	-132.711	47.741	0	187.90	0	5.8280	0	33.6770	0	26.531	0	186.243	0	172.7	4	56.7	4	-1E+10	1	-1E+10	1	-1E+10	1	-1E+10	1	-1E+10	1	-1E+10	1
4902549	110	C	08/31/2023	06:08	-132.711	47.741	0	189.00	0	5.8230	0	33.6790	0	26.533	0	187.333	0	170.9	4	56.1	4	-1E+10	1	-1E+10	1	-1E+10	1	-1E+10	1	-1E+10	1	-1E+10	1
4902549	110	C	08/31/2023	06:08	-132.711	47.741	0	190.10	0	5.8070	0	33.6840	0	26.539	0	188.422	0	169.2	4	55.5	4	-1E+10	1	-1E+10	1	-1E+10	1	-1E+10	1	-1E+10	1	-1E+10	1
4902549	110	C	08/31/2023	06:08	-132.711	47.741	0	190.90	0	5.8020	0	33.6900	0	26.544	0	189.215	0	168.0	4	55.2	4	-1E+10	1	-1E+10	1	-1E+10	1	-1E+10	1	-1E+10	1	-1E+10	1
4902549	110	C	08/31/2023	06:08	-132.711	47.741	0	192.00	0	5.7900	0	33.6910	0	26.546	0	190.305	0	166.3	4	54.6	4	-1E+10	1	-1E+10	1	-1E+10	1	-1E+10	1	-1E+10	1	-1E+10	1
4902549	110	C	08/31/2023	06:08	-132.711	47.741	0	193.20	0	5.7640	0	33.6940	0	26.552	0	191.494	0	164.5	4	54.0	4	-1E+10	1	-1E+10	1	-1E+10	1	-1E+10	1	-1E+10	1	-1E+10	1
4902549	110	C	08/31/2023	06:08	-132.711	47.741	0	194.00	0	5.7520	0	33.6940	0	26.553	0	192.286	0	163.3	4	53.5	4	-1E+10	1	-1E+10	1	-1E+10	1	-1E+10	1	-1E+10	1	-1E+10	1
4902549	110	C	08/31/2023	06:08	-132.711	47.741	0	194.70	0	5.7530	0	33.6990	0	26.557	0	192.980	0	162.0	4	53.1	4	-1E+10	1	-1E+10	1	-1E+10	1	-1E+10	1	-1E+10	1	-1E+10	1
4902549	110	C	08/31/2023	06:08	-132.711	47.741	0	195.90	0	5.7310	0	33.7060	0	26.565	0	194.169	0	160.2	4	52.5	4	-1E+10	1	-1E+10	1	-1E+10	1	-1E+10	1	-1E+10	1	-1E+10	1
4902549	110	C	08/31/2023	06:08	-132.711	47.741	0	197.10	0	5.7140	0	33.7100	0	26.571	0	195.357	0	158.4	4	51.9	4	-1E+10	1	-1E+10	1	-1E+10	1	-1E+10	1	-1E+10	1	-1E+10	1
4902549	110	C	08/31/2023	06:08	-132.711	47.741	0	198.00	0	5.7010	0	33.7120	0	26.574	0	196.249	0	157.2	4	51.5	4	-1E+10	1	-1E+10	1	-1E+10	1	-1E+10	1	-1E+10	1	-1E+10	1
4902549	110	C	08/31/2023	06:08	-132.711	47.741	0	198.80	0	5.7040	0	33.7160	0	26.577	0	197.042	0	156.0	4	51.1	4	-1E+10	1	-1E+10	1	-1E+10	1	-1E+10	1	-1E+10	1	-1E+10	1
4902549	110	C	08/31/2023	06:08	-132.711	47.741	0	199.70	0	5.6870	0	33.7210	0	26.583	0	197.933	0	154.9	4	50.7	4	-1E+10	1	-1E+10	1	-1E+10	1	-1E+10	1	-1E+10	1	-1E+10	1
4902549	110	C	08/31/2023	06:08	-132.711	47.741	0	200.90	0	5.6650	0	33.7260	0	26.589	0	199.122	0	153.6	4	50.3	4	-1E+10	1	-1E+10	1	-1E+10	1	-1E+10	1	-1E+10	1	-1E+10	1
4902549	110	C	08/31/2023	06:08	-132.711	47.741	0	202.30	0	5.6430	0	33.7260	0	26.592	0	200.509	0	152.1	4	49.8	4	-1E+10	1	-1E+10	1	-1E+10	1	-1E+10	1	-1E+10	1	-1E+10	1
4902549	110	C	08/31/2023	06:08	-132.711	47.741	0	203.20	0	5.6360	0	33.7260	0	26.593	0	201.401	0	151.1	4	49.4	4	-1E+10	1	-1E+10	1	-1E+10	1	-1E+10	1	-1E+10	1	-1E+10	1
4902549	110	C	08/31/2023	06:08	-132.711	47.741	0	204.00	0	5.6140	0	33.7290	0	26.598	0	202.193	0	150.0	4	49.0	4	-1E+10	1	-1E+10	1	-1E+10	1	-1E+10	1	-1E+10	1	-1E+10	1
4902549	110	C	08/31/2023	06:08	-132.711	47.741	0	204.90	0	5.5900	0	33.7320	0	26.603	0	203.085	0	149.4	4	48.8	4	-1E+10	1	-1E+10	1	-1E+10	1	-1E+10	1	-1E+10	1	-1E+10	1
4902549	110	C	08/31/2023	06:08	-132.711	47.741	0	205.90	0	5.5790	0	33.7360	0	26.608	0	204.075	0	148.7	4	48.6	4	-1E+10	1	-1E+10	1	-1E+10	1	-1E+10	1	-1E+10	1	-1E+10	1
4902549	110	C	08/31/2023	06:08	-132.711	47.741	0	206.80	0	5.5750	0	33.7360	0	26.608	0	204.967	0	147.9	4	48.3	4	-1E+10	1	-1E+10	1	-1E+10	1	-1E+10	1	-1E+10	1	-1E+10	1
4902549	110	C	08/31/2023	06:08	-132.711	47.741	0	207.70	0	5.5670	0	33.7370	0	26.610	0	205.858	0	147.2	4	48.1	4	-1E+10	1	-1E+10	1	-1E+10	1	-1E+10	1	-1E+10	1	-1E+10	1
4902549	110	C	08/31/2023	06:08	-132.711	47.741	0	208.70	0	5.5620	0	33.7390	0	26.612	0	206.849	0	146.4	4	47.8	4	-1E+10	1	-1E+10	1	-1E+10	1	-1E+10	1	-1E+10	1	-1E+10	1
4902549	110	C	08/31/2023	06:08	-132.711	47.741	0	209.60	0	5.5510	0	33.7400	0	26.614	0	207.741	0	145.7	4	47.6	4	-1E+10	1	-1E+10	1	-1E+10	1	-1E+10	1	-1E+10	1	-1E+10	1
4902549	110	C	08/31/2023	06:08	-132.711	47.741	0	210.60	0	5.5370	0	33.7410	0	26.617	0	208.731	0	145.0	4	47.3	4	-1E+10	1	-1E+10	1	-1E+10	1	-1E+10	1	-1E+10	1	-1E+10	1
4902549	110	C	08/31/2023	06:08	-132.711	47.741	0	211.60	0	5.5310	0	33.7420	0	26.618	0	209.722	0	144.2	4	47.1	4	-1E+10	1	-1E+10	1	-1E+10	1	-1E+10	1	-1E+10	1	-1E+10	1
4902549	110	C	08/31/2023	06:08	-132.711	47.741	0	212.60	0	5.5300	0	33.7420	0	26.618	0	210.712	0	143.4	4	46.8	4	-1E+10	1	-1E+10	1	-1E+10	1	-1E+10	1	-1E+10	1	-1E+10	1
4902549	110	C	08/31/2023	06:08	-132.711	47.741	0	213.60	0	5.5270	0	33.7430	0	26.619	0	211.703	0	142.3	4	46.5	4	-1E+10	1	-1E+10	1	-1E+10	1	-1E+10	1	-1E+10	1	-1E+10	1
4902549	110	C	08/31/2023	06:08	-132.711	47.741	0	214.50	0	5.5240	0	33.7420	0	26.619	0	212.595	0	141.3	4	46.1	4	-1E+10	1	-1E+10	1	-1E+10	1	-1E+10	1	-1E+10	1	-1E+10	1
4902549	110	C	08/31/2023	06:08	-132.711	47.741	0	215.50	0	5.5160	0	33.7430	0	26.621	0	213.585	0	140.2	4	45.7	4	-1E+10	1	-1E+10	1	-1E+10	1	-1E+10	1	-1E+10	1	-1E+10	1
4902549	110	C	08/31/2023	06:08	-132.711	47.741	0	216.90	0	5.4980	0	33.7470	0	26.626	0	214.972	0	138.7	4	45.2	4	-1E+10	1	-1E+10	1	-1E+10	1	-1E+10	1	-1E+10	1	-1E+10	1
4902549	110	C	08/31/2023	06:08	-132.711	47.741	0	218.80	0	5.4750	0	33.7510	0	26.632	0	216.854	0	136.7	4	44.6	4	-1E+10	1	-1E+10	1	-1E+10	1	-1E+10	1	-1E+10	1	-1E+10	1
4902549	110	C	08/31/2023	06:08	-132.711	47.741	0	220.00	0	5.4690	0	33.7520	0	26.634	0	218.043	0	135.5	4	44.2	4	-1E+10	1	-1E+10	1	-1E+10	1	-1E+10	1	-1E+10	1	-1E+10	1
4902549	110	C	08/31/2023	06:08	-132.711	47.741	0	220.70	0	5.4660	0	33.7520	0	26.634	0	218.736	0	134.6	4	43.9	4	-1E+10	1	-1E+10	1	-1E+10	1	-1E+10	1	-1E+10	1	-1E+10	1
4902549	110	C	08/31/2023	06:08	-132.711	47.741	0	221.90	0	5.4440	0	33.7560	0	26.640	0	219.925	0	133.5	4	43.5	4	-1E+10	1	-1E+10	1	-1E+10	1	-1E+10	1	-1E+10	1	-1E+10	1
4902549	110	C	08/31/2023	06:08	-132.711	47.741	0	223.00	0	5.4330	0	33.7580	0	26.643	0	221.015	0	132.3	4	43.1	4	-1E+10	1	-1E+10	1	-1E+10	1	-1E+10	1	-1E+10	1	-1E+10	1
4902549	110	C	08/31/2023	06:08	-132.711	47.741	0	223.80	0	5.4200	0	33.7600	0	26.646	0	221.807	0	131.6	4	42.9	4	-1E+10	1	-1E+10	1	-1E+10	1	-1E+10	1	-1E+10	1	-1E+10	1
4902549	110	C	08/31/2023	06:08	-132.711	47.741	0	225.00	0	5.4110	0	33.7610	0	26.648	0	222.996	0	130.5	4	42.5	4	-1E+10	1	-1E+10	1	-1E+10	1	-1E+10	1	-1E+10	1	-1E+10	1
4902549	110	C	08/31/2023	06:08	-132.711	47.741	0	226.20	0	5.4060	0	33.7620	0	26.649	0	224.184	0	129.3	4	42.1	4	-1E+10	1	-1E+10	1	-1E+10	1	-1E+10	1	-1E+10	1	-1E+10	1
4902549	110	C	08/31/2023	06:08	-132.711	47.741	0	227.00	0	5.3840	0	33.7680	0	26.656	0	224.977	0	128.7	4	41.9	4	-1E+10	1	-1E+10	1	-1E+10	1	-1E+10	1	-1E+10	1	-1E+10	1
4902549	110	C	08/31/2023	06:08	-132.711	47.741	0	227.80	0	5.3780	0	33.7630	0	26.653	0	225.769	0	128.1	4	41.7	4	-1E+10	1	-1E+10	1	-1E+10	1	-1E+10	1	-1E+10	1	-1E+10	1
4902549	110	C	08/31/2023	06:08	-132.711	47.741	0	228.70	0	5.3670	0	33.7660	0	26.657	0	226.661	0	127.4	4	41.4	4	-1E+10	1	-1E+10	1	-1E+10	1	-1E+10	1	-1E+10	1	-1E+10	1
4902549	110	C	08/31/2023	06:08	-132.711	47.741	0	229.90	0	5.3570	0	33.7670	0	26.659	0	227.849	0	126.5	4	41.1	4	-1E+10	1	-1E+10	1	-1E+10	1	-1E+10	1	-1E+10	1	-1E+10	1
4902549	110	C	08/31/2023	06:08	-132.711	47.741	0	231.20	0	5.3460	0	33.7680	0	26.661	0	229.137	0	125.5	4	40.8	4	-1E+10	1	-1E+10	1	-1E+10	1	-1E+10	1	-1E+10	1	-1E+10	1
4902549	110	C	08/31/2023	06:08	-132.711	47.741	0	232.10	0	5.3420	0	33.7690	0	26.662	0	230.029	0	124.9	4	40.6	4	-1E+10	1	-1E+10	1	-1E+10	1	-1E+10	1	-1E+10	1	-1E+10	1
4902549	110	C	08/31/2023	06:08	-132.711	47.741	0	232.90	0	5.3350	0	33.7700	0	26.664	0	230.821	0	124.3	4	40.4	4	-1E+10	1	-1E+10	1	-1E+10	1	-1E+10	1	-1E+10	1	-1E+10	1
4902549	110	C	08/31/2023	06:08	-132.711	47.741	0	233.80	0	5.3300	0	33.7700	0	26.664	0	231.712	0	123.7	4	40.2	4	-1E+10	1	-1E+10	1	-1E+10	1	-1E+10	1	-1E+10	1	-1E+10	1
4902549	110	C	08/31/2023	06:08	-132.711	47.741	0	234.70	0	5.3270	0	33.7710	0	26.665	0	232.604	0	123.0	4	40.0	4	-1E+10	1	-1E+10	1	-1E+10	1	-1E+10	1	-1E+10	1	-1E+10	1
4902549	110	C	08/31/2023	06:08	-132.711	47.741	0	236.00	0	5.3110	0	33.7720	0	26.668	0	233.892	0	122.1	4	39.6	4	-1E+10	1	-1E+10	1	-1E+10	1	-1E+10	1	-1E+10	1	-1E+10	1
4902549	110	C	08/31/2023	06:08	-132.711	47.741	0	237.30	0	5.3000	0	33.7720	0	26.669	0	235.179	0	121.1	4	39.3	4	-1E+10	1	-1E+10	1	-1E+10	1	-1E+10	1	-1E+10	1	-1E+10	1
4902549	110	C	08/31/2023	06:08	-132.711	47.741	0	238.20	0	5.2680	0	33.7810	0	26.680	0	236.071	0	120.5	4	39.1	4	-1E+10	1	-1E+10	1	-1E+10	1	-1E+10	1	-1E+10	1	-1E+10	1
4902549	110	C	08/31/2023	06:08	-132.711	47.741	0	239.10	0	5.2660	0	33.7750	0	26.676	0	236.962	0	119.9	4	38.9	4	-1E+10	1	-1E+10	1	-1E+10	1	-1E+10	1	-1E+10	1	-1E+10	1
4902549	110	C	08/31/2023	06:08	-132.711	47.741	0	240.00	0	5.2550	0	33.7770	0	26.679	0	237.853	0	119.2	4	38.7	4	-1E+10	1	-1E+10	1	-1E+10	1	-1E+10	1	-1E+10	1	-1E+10	1
4902549	110	C	08/31/2023	06:08	-132.711	47.741	0	240.90	0	5.2420	0	33.7760	0	26.679	0	238.745	0	118.6	4	38.5	4	-1E+10	1	-1E+10	1	-1E+10	1	-1E+10	1	-1E+10	1	-1E+10	1
4902549	110	C	08/31/2023	06:08	-132.711	47.741	0	241.80	0	5.2190	0	33.7760	0	26.682	0	239.636	0	118.1	4	38.3	4	-1E+10	1	-1E+10	1	-1E+10	1	-1E+10	1	-1E+10	1	-1E+10	1
4902549	110	C	08/31/2023	06:08	-132.711	47.741	0	242.70	0	5.2120	0	33.7760	0	26.683	0	240.528	0	117.6	4	38.1	4	-1E+10	1	-1E+10	1	-1E+10	1	-1E+10	1	-1E+10	1	-1E+10	1
4902549	110	C	08/31/2023	06:08	-132.711	47.741	0	243.60	0	5.2010	0	33.7770	0	26.685	0	241.419	0	117.1	4	37.9	4	-1E+10	1	-1E+10	1	-1E+10	1	-1E+10	1	-1E+10	1	-1E+10	1
4902549	110	C	08/31/2023	06:08	-132.711	47.741	0	244.50	0	5.1960	0	33.7760	0	26.685	0	242.311	0	116.5	4	37.7	4	-1E+10	1	-1E+10	1	-1E+10	1	-1E+10	1	-1E+10	1	-1E+10	1
4902549	110	C	08/31/2023	06:08	-132.711	47.741	0	245.90	0	5.1850	0	33.7770	0	26.687	0	243.697	0	115.7	4	37.5	4	-1E+10	1	-1E+10	1	-1E+10	1	-1E+10	1	-1E+10	1	-1E+10	1
4902549	110	C	08/31/2023	06:08	-132.711	47.741	0	247.30	0	5.1750	0	33.7770	0	26.688	0	245.084	0	114.9	4	37.2	4	-1E+10	1	-1E+10	1	-1E+10	1	-1E+10	1	-1E+10	1	-1E+10	1
4902549	110	C	08/31/2023	06:08	-132.711	47.741	0	248.20	0	5.1670	0	33.7780	0	26.690	0	245.975	0	114.4	4	37.0	4	-1E+10	1	-1E+10	1	-1E+10	1	-1E+10	1	-1E+10	1	-1E+10	1
4902549	110	C	08/31/2023	06:08	-132.711	47.741	0	249.10	0	5.1480	0	33.7780	0	26.692	0	246.867	0	113.8	4	36.8	4	-1E+10	1	-1E+10	1	-1E+10	1	-1E+10	1	-1E+10	1	-1E+10	1
4902549	110	C	08/31/2023	06:08	-132.711	47.741	0	250.10	0	5.1340	0	33.7780	0	26.694	0	247.857	0	113.3	4	36.7	4	-1E+10	1	-1E+10	1	-1E+10	1	-1E+10	1	-1E+10	1	-1E+10	1
4902549	110	C	08/31/2023	06:08	-132.711	47.741	0	251.00	0	5.1060	0	33.7780	0	26.697	0	248.748	0	113.0	4	36.5	4	-1E+10	1	-1E+10	1	-1E+10	1	-1E+10	1	-1E+10	1	-1E+10	1
4902549	110	C	08/31/2023	06:08	-132.711	47.741	0	252.00	0	5.1010	0	33.7780	0	26.697	0	249.739	0	112.6	4	36.4	4	-1E+10	1	-1E+10	1	-1E+10	1	-1E+10	1	-1E+10	1	-1E+10	1
4902549	110	C	08/31/2023	06:08	-132.711	47.741	0	252.90	0	5.0960	0	33.7790	0	26.699	0	250.630	0	112.1	4	36.2	4	-1E+10	1	-1E+10	1	-1E+10	1	-1E+10	1	-1E+10	1	-1E+10	1
4902549	110	C	08/31/2023	06:08	-132.711	47.741	0	253.80	0	5.0940	0	33.7780	0	26.698	0	251.522	0	111.7	4	36.1	4	-1E+10	1	-1E+10	1	-1E+10	1	-1E+10	1	-1E+10	1	-1E+10	1
4902549	110	C	08/31/2023	06:08	-132.711	47.741	0	254.80	0	5.0880	0	33.7790	0	26.700	0	252.512	0	111.2	4	35.9	4	-1E+10	1	-1E+10	1	-1E+10	1	-1E+10	1	-1E+10	1	-1E+10	1
4902549	110	C	08/31/2023	06:08	-132.711	47.741	0	255.70	0	5.0790	0	33.7800	0	26.701	0	253.403	0	110.8	4	35.8	4	-1E+10	1	-1E+10	1	-1E+10	1	-1E+10	1	-1E+10	1	-1E+10	1
4902549	110	C	08/31/2023	06:08	-132.711	47.741	0	256.60	0	5.0730	0	33.7790	0	26.701	0	254.295	0	110.4	4	35.6	4	-1E+10	1	-1E+10	1	-1E+10	1	-1E+10	1	-1E+10	1	-1E+10	1
4902549	110	C	08/31/2023	06:08	-132.711	47.741	0	257.90	0	5.0570	0	33.7830	0	26.706	0	255.582	0	109.7	4	35.4	4	-1E+10	1	-1E+10	1	-1E+10	1	-1E+10	1	-1E+10	1	-1E+10	1
4902549	110	C	08/31/2023	06:08	-132.711	47.741	0	259.40	0	5.0370	0	33.7800	0	26.706	0	257.068	0	109.2	4	35.2	4	-1E+10	1	-1E+10	1	-1E+10	1	-1E+10	1	-1E+10	1	-1E+10	1
4902549	110	C	08/31/2023	06:08	-132.711	47.741	0	260.30	0	5.0340	0	33.7810	0	26.707	0	257.959	0	108.7	4	35.1	4	-1E+10	1	-1E+10	1	-1E+10	1	-1E+10	1	-1E+10	1	-1E+10	1
4902549	110	C	08/31/2023	06:08	-132.711	47.741	0	261.20	0	5.0260	0	33.7810	0	26.708	0	258.851	0	108.3	4	34.9	4	-1E+10	1	-1E+10	1	-1E+10	1	-1E+10	1	-1E+10	1	-1E+10	1
4902549	110	C	08/31/2023	06:08	-132.711	47.741	0	262.10	0	5.0120	0	33.7840	0	26.712	0	259.742	0	108.0	4	34.8	4	-1E+10	1	-1E+10	1	-1E+10	1	-1E+10	1	-1E+10	1	-1E+10	1
4902549	110	C	08/31/2023	06:08	-132.711	47.741	0	263.00	0	4.9950	0	33.7840	0	26.714	0	260.633	0	107.7	4	34.7	4	-1E+10	1	-1E+10	1	-1E+10	1	-1E+10	1	-1E+10	1	-1E+10	1
4902549	110	C	08/31/2023	06:08	-132.711	47.741	0	263.90	0	4.9910	0	33.7830	0	26.714	0	261.525	0	107.4	4	34.6	4	-1E+10	1	-1E+10	1	-1E+10	1	-1E+10	1	-1E+10	1	-1E+10	1
4902549	110	C	08/31/2023	06:08	-132.711	47.741	0	264.80	0	4.9880	0	33.7830	0	26.714	0	262.416	0	107.2	4	34.5	4	-1E+10	1	-1E+10	1	-1E+10	1	-1E+10	1	-1E+10	1	-1E+10	1
4902549	110	C	08/31/2023	06:08	-132.711	47.741	0	265.70	0	4.9870	0	33.7830	0	26.714	0	263.307	0	106.8	4	34.4	4	-1E+10	1	-1E+10	1	-1E+10	1	-1E+10	1	-1E+10	1	-1E+10	1
4902549	110	C	08/31/2023	06:08	-132.711	47.741	0	266.60	0	4.9840	0	33.7830	0	26.715	0	264.199	0	106.5	4	34.3	4	-1E+10	1	-1E+10	1	-1E+10	1	-1E+10	1	-1E+10	1	-1E+10	1
4902549	110	C	08/31/2023	06:08	-132.711	47.741	0	267.90	0	4.9810	0	33.7830	0	26.715	0	265.486	0	106.0	4	34.2	4	-1E+10	1	-1E+10	1	-1E+10	1	-1E+10	1	-1E+10	1	-1E+10	1
4902549	110	C	08/31/2023	06:08	-132.711	47.741	0	269.20	0	4.9800	0	33.7830	0	26.715	0	266.774	0	105.4	4	34.0	4	-1E+10	1	-1E+10	1	-1E+10	1	-1E+10	1	-1E+10	1	-1E+10	1
4902549	110	C	08/31/2023	06:08	-132.711	47.741	0	270.10	0	4.9740	0	33.7840	0	26.717	0	267.665	0	104.9	4	33.8	4	-1E+10	1	-1E+10	1	-1E+10	1	-1E+10	1	-1E+10	1	-1E+10	1
4902549	110	C	08/31/2023	06:08	-132.711	47.741	0	271.00	0	4.9710	0	33.7840	0	26.717	0	268.556	0	104.4	4	33.6	4	-1E+10	1	-1E+10	1	-1E+10	1	-1E+10	1	-1E+10	1	-1E+10	1
4902549	110	C	08/31/2023	06:08	-132.711	47.741	0	271.90	0	4.9690	0	33.7850	0	26.718	0	269.447	0	103.9	4	33.5	4	-1E+10	1	-1E+10	1	-1E+10	1	-1E+10	1	-1E+10	1	-1E+10	1
4902549	110	C	08/31/2023	06:08	-132.711	47.741	0	272.80	0	4.9680	0	33.7850	0	26.718	0	270.339	0	103.3	4	33.3	4	-1E+10	1	-1E+10	1	-1E+10	1	-1E+10	1	-1E+10	1	-1E+10	1
4902549	110	C	08/31/2023	06:08	-132.711	47.741	0	273.70	0	4.9660	0	33.7860	0	26.719	0	271.230	0	102.7	4	33.1	4	-1E+10	1	-1E+10	1	-1E+10	1	-1E+10	1	-1E+10	1	-1E+10	1
4902549	110	C	08/31/2023	06:08	-132.711	47.741	0	274.90	0	4.9510	0	33.7850	0	26.720	0	272.418	0	101.7	4	32.8	4	-1E+10	1	-1E+10	1	-1E+10	1	-1E+10	1	-1E+10	1	-1E+10	1
4902549	110	C	08/31/2023	06:08	-132.711	47.741	0	276.30	0	4.9350	0	33.7870	0	26.723	0	273.805	0	100.8	4	32.4	4	-1E+10	1	-1E+10	1	-1E+10	1	-1E+10	1	-1E+10	1	-1E+10	1
4902549	110	C	08/31/2023	06:08	-132.711	47.741	0	277.10	0	4.9230	0	33.7880	0	26.726	0	274.597	0	100.2	4	32.2	4	-1E+10	1	-1E+10	1	-1E+10	1	-1E+10	1	-1E+10	1	-1E+10	1
4902549	110	C	08/31/2023	06:08	-132.711	47.741	0	278.00	0	4.9100	0	33.7900	0	26.729	0	275.488	0	99.6	4	32.0	4	-1E+10	1	-1E+10	1	-1E+10	1	-1E+10	1	-1E+10	1	-1E+10	1
4902549	110	C	08/31/2023	06:08	-132.711	47.741	0	278.80	0	4.9010	0	33.7900	0	26.730	0	276.281	0	99.1	4	31.9	4	-1E+10	1	-1E+10	1	-1E+10	1	-1E+10	1	-1E+10	1	-1E+10	1
4902549	110	C	08/31/2023	06:08	-132.711	47.741	0	279.70	0	4.8980	0	33.7900	0	26.730	0	277.172	0	98.6	4	31.7	4	-1E+10	1	-1E+10	1	-1E+10	1	-1E+10	1	-1E+10	1	-1E+10	1
4902549	110	C	08/31/2023	06:08	-132.711	47.741	0	280.90	0	4.8940	0	33.7900	0	26.730	0	278.360	0	97.6	4	31.4	4	-1E+10	1	-1E+10	1	-1E+10	1	-1E+10	1	-1E+10	1	-1E+10	1
4902549	110	C	08/31/2023	06:08	-132.711	47.741	0	282.20	0	4.8840	0	33.7920	0	26.733	0	279.648	0	96.6	4	31.1	4	-1E+10	1	-1E+10	1	-1E+10	1	-1E+10	1	-1E+10	1	-1E+10	1
4902549	110	C	08/31/2023	06:08	-132.711	47.741	0	283.10	0	4.8750	0	33.7930	0	26.735	0	280.539	0	96.0	4	30.9	4	-1E+10	1	-1E+10	1	-1E+10	1	-1E+10	1	-1E+10	1	-1E+10	1
4902549	110	C	08/31/2023	06:08	-132.711	47.741	0	284.00	0	4.8690	0	33.7940	0	26.736	0	281.430	0	95.4	4	30.7	4	-1E+10	1	-1E+10	1	-1E+10	1	-1E+10	1	-1E+10	1	-1E+10	1
4902549	110	C	08/31/2023	06:08	-132.711	47.741	0	284.80	0	4.8670	0	33.7940	0	26.737	0	282.222	0	94.7	4	30.4	4	-1E+10	1	-1E+10	1	-1E+10	1	-1E+10	1	-1E+10	1	-1E+10	1
4902549	110	C	08/31/2023	06:08	-132.711	47.741	0	285.70	0	4.8660	0	33.7940	0	26.737	0	283.114	0	93.9	4	30.2	4	-1E+10	1	-1E+10	1	-1E+10	1	-1E+10	1	-1E+10	1	-1E+10	1
4902549	110	C	08/31/2023	06:08	-132.711	47.741	0	287.00	0	4.8700	0	33.7970	0	26.739	0	284.401	0	92.7	4	29.8	4	-1E+10	1	-1E+10	1	-1E+10	1	-1E+10	1	-1E+10	1	-1E+10	1
4902549	110	C	08/31/2023	06:08	-132.711	47.741	0	288.30	0	4.8640	0	33.8040	0	26.745	0	285.688	0	91.5	4	29.4	4	-1E+10	1	-1E+10	1	-1E+10	1	-1E+10	1	-1E+10	1	-1E+10	1
4902549	110	C	08/31/2023	06:08	-132.711	47.741	0	289.20	0	4.8430	0	33.8050	0	26.748	0	286.579	0	90.8	4	29.2	4	-1E+10	1	-1E+10	1	-1E+10	1	-1E+10	1	-1E+10	1	-1E+10	1
4902549	110	C	08/31/2023	06:08	-132.711	47.741	0	290.10	0	4.8380	0	33.8050	0	26.749	0	287.471	0	90.0	4	28.9	4	-1E+10	1	-1E+10	1	-1E+10	1	-1E+10	1	-1E+10	1	-1E+10	1
4902549	110	C	08/31/2023	06:08	-132.711	47.741	0	291.00	0	4.8020	0	33.8100	0	26.757	0	288.362	0	89.3	4	28.7	4	-1E+10	1	-1E+10	1	-1E+10	1	-1E+10	1	-1E+10	1	-1E+10	1
4902549	110	C	08/31/2023	06:08	-132.711	47.741	0	291.80	0	4.7820	0	33.8060	0	26.756	0	289.154	0	88.8	4	28.5	4	-1E+10	1	-1E+10	1	-1E+10	1	-1E+10	1	-1E+10	1	-1E+10	1
4902549	110	C	08/31/2023	06:08	-132.711	47.741	0	292.70	0	4.7680	0	33.8070	0	26.758	0	290.045	0	88.3	4	28.3	4	-1E+10	1	-1E+10	1	-1E+10	1	-1E+10	1	-1E+10	1	-1E+10	1
4902549	110	C	08/31/2023	06:08	-132.711	47.741	0	293.60	0	4.7630	0	33.8080	0	26.759	0	290.936	0	87.7	4	28.1	4	-1E+10	1	-1E+10	1	-1E+10	1	-1E+10	1	-1E+10	1	-1E+10	1
4902549	110	C	08/31/2023	06:08	-132.711	47.741	0	294.90	0	4.7530	0	33.8100	0	26.762	0	292.224	0	86.9	4	27.9	4	-1E+10	1	-1E+10	1	-1E+10	1	-1E+10	1	-1E+10	1	-1E+10	1
4902549	110	C	08/31/2023	06:08	-132.711	47.741	0	296.30	0	4.7380	0	33.8130	0	26.766	0	293.610	0	86.1	4	27.6	4	-1E+10	1	-1E+10	1	-1E+10	1	-1E+10	1	-1E+10	1	-1E+10	1
4902549	110	C	08/31/2023	06:08	-132.711	47.741	0	297.20	0	4.7280	0	33.8130	0	26.767	0	294.501	0	85.6	4	27.4	4	-1E+10	1	-1E+10	1	-1E+10	1	-1E+10	1	-1E+10	1	-1E+10	1
4902549	110	C	08/31/2023	06:08	-132.711	47.741	0	298.10	0	4.7250	0	33.8130	0	26.768	0	295.392	0	85.1	4	27.3	4	-1E+10	1	-1E+10	1	-1E+10	1	-1E+10	1	-1E+10	1	-1E+10	1
4902549	110	C	08/31/2023	06:08	-132.711	47.741	0	299.00	0	4.7180	0	33.8150	0	26.770	0	296.284	0	84.6	4	27.1	4	-1E+10	1	-1E+10	1	-1E+10	1	-1E+10	1	-1E+10	1	-1E+10	1
4902549	110	C	08/31/2023	06:08	-132.711	47.741	0	299.90	0	4.7140	0	33.8160	0	26.771	0	297.175	0	84.0	4	26.9	4	-1E+10	1	-1E+10	1	-1E+10	1	-1E+10	1	-1E+10	1	-1E+10	1
4902549	110	C	08/31/2023	06:08	-132.711	47.741	0	300.90	0	4.7130	0	33.8150	0	26.771	0	298.165	0	83.5	4	26.7	4	-1E+10	1	-1E+10	1	-1E+10	1	-1E+10	1	-1E+10	1	-1E+10	1
4902549	110	C	08/31/2023	06:08	-132.711	47.741	0	301.80	0	4.6960	0	33.8200	0	26.776	0	299.056	0	83.1	4	26.6	4	-1E+10	1	-1E+10	1	-1E+10	1	-1E+10	1	-1E+10	1	-1E+10	1
4902549	110	C	08/31/2023	06:08	-132.711	47.741	0	302.70	0	4.6890	0	33.8210	0	26.778	0	299.947	0	82.6	4	26.4	4	-1E+10	1	-1E+10	1	-1E+10	1	-1E+10	1	-1E+10	1	-1E+10	1
4902549	110	C	08/31/2023	06:08	-132.711	47.741	0	303.60	0	4.6850	0	33.8210	0	26.778	0	300.838	0	82.1	4	26.3	4	-1E+10	1	-1E+10	1	-1E+10	1	-1E+10	1	-1E+10	1	-1E+10	1
4902549	110	C	08/31/2023	06:08	-132.711	47.741	0	304.60	0	4.6800	0	33.8220	0	26.780	0	301.829	0	81.7	4	26.1	4	-1E+10	1	-1E+10	1	-1E+10	1	-1E+10	1	-1E+10	1	-1E+10	1
4902549	110	C	08/31/2023	06:08	-132.711	47.741	0	305.50	0	4.6700	0	33.8250	0	26.783	0	302.720	0	81.3	4	26.0	4	-1E+10	1	-1E+10	1	-1E+10	1	-1E+10	1	-1E+10	1	-1E+10	1
4902549	110	C	08/31/2023	06:08	-132.711	47.741	0	306.50	0	4.6650	0	33.8260	0	26.785	0	303.710	0	80.9	4	25.9	4	-1E+10	1	-1E+10	1	-1E+10	1	-1E+10	1	-1E+10	1	-1E+10	1
4902549	110	C	08/31/2023	06:08	-132.711	47.741	0	307.90	0	4.6580	0	33.8280	0	26.787	0	305.096	0	80.3	4	25.7	4	-1E+10	1	-1E+10	1	-1E+10	1	-1E+10	1	-1E+10	1	-1E+10	1
4902549	110	C	08/31/2023	06:08	-132.711	47.741	0	309.40	0	4.6520	0	33.8310	0	26.790	0	306.581	0	79.8	4	25.5	4	-1E+10	1	-1E+10	1	-1E+10	1	-1E+10	1	-1E+10	1	-1E+10	1
4902549	110	C	08/31/2023	06:08	-132.711	47.741	0	310.40	0	4.6480	0	33.8320	0	26.791	0	307.572	0	79.5	4	25.4	4	-1E+10	1	-1E+10	1	-1E+10	1	-1E+10	1	-1E+10	1	-1E+10	1
4902549	110	C	08/31/2023	06:08	-132.711	47.741	0	311.40	0	4.6440	0	33.8320	0	26.792	0	308.562	0	79.1	4	25.3	4	-1E+10	1	-1E+10	1	-1E+10	1	-1E+10	1	-1E+10	1	-1E+10	1
4902549	110	C	08/31/2023	06:08	-132.711	47.741	0	312.40	0	4.6420	0	33.8320	0	26.792	0	309.552	0	78.8	4	25.2	4	-1E+10	1	-1E+10	1	-1E+10	1	-1E+10	1	-1E+10	1	-1E+10	1
4902549	110	C	08/31/2023	06:08	-132.711	47.741	0	313.40	0	4.6350	0	33.8360	0	26.796	0	310.542	0	78.5	4	25.1	4	-1E+10	1	-1E+10	1	-1E+10	1	-1E+10	1	-1E+10	1	-1E+10	1
4902549	110	C	08/31/2023	06:08	-132.711	47.741	0	314.40	0	4.6300	0	33.8340	0	26.795	0	311.532	0	78.1	4	25.0	4	-1E+10	1	-1E+10	1	-1E+10	1	-1E+10	1	-1E+10	1	-1E+10	1
4902549	110	C	08/31/2023	06:08	-132.711	47.741	0	315.40	0	4.6240	0	33.8350	0	26.796	0	312.522	0	77.8	4	24.9	4	-1E+10	1	-1E+10	1	-1E+10	1	-1E+10	1	-1E+10	1	-1E+10	1
4902549	110	C	08/31/2023	06:08	-132.711	47.741	0	316.40	0	4.6200	0	33.8360	0	26.797	0	313.512	0	77.6	4	24.8	4	-1E+10	1	-1E+10	1	-1E+10	1	-1E+10	1	-1E+10	1	-1E+10	1
4902549	110	C	08/31/2023	06:08	-132.711	47.741	0	317.40	0	4.6180	0	33.8360	0	26.798	0	314.502	0	77.2	4	24.7	4	-1E+10	1	-1E+10	1	-1E+10	1	-1E+10	1	-1E+10	1	-1E+10	1
4902549	110	C	08/31/2023	06:08	-132.711	47.741	0	318.40	0	4.6170	0	33.8370	0	26.799	0	315.493	0	76.9	4	24.6	4	-1E+10	1	-1E+10	1	-1E+10	1	-1E+10	1	-1E+10	1	-1E+10	1
4902549	110	C	08/31/2023	06:08	-132.711	47.741	0	319.40	0	4.6160	0	33.8370	0	26.799	0	316.483	0	76.4	4	24.4	4	-1E+10	1	-1E+10	1	-1E+10	1	-1E+10	1	-1E+10	1	-1E+10	1
4902549	110	C	08/31/2023	06:08	-132.711	47.741	0	320.40	0	4.6150	0	33.8370	0	26.799	0	317.473	0	76.0	4	24.3	4	-1E+10	1	-1E+10	1	-1E+10	1	-1E+10	1	-1E+10	1	-1E+10	1
4902549	110	C	08/31/2023	06:08	-132.711	47.741	0	321.40	0	4.6150	0	33.8360	0	26.798	0	318.463	0	75.5	4	24.1	4	-1E+10	1	-1E+10	1	-1E+10	1	-1E+10	1	-1E+10	1	-1E+10	1
4902549	110	C	08/31/2023	06:08	-132.711	47.741	0	322.40	0	4.6140	0	33.8360	0	26.798	0	319.453	0	74.9	4	23.9	4	-1E+10	1	-1E+10	1	-1E+10	1	-1E+10	1	-1E+10	1	-1E+10	1
4902549	110	C	08/31/2023	06:08	-132.711	47.741	0	323.40	0	4.6070	0	33.8380	0	26.801	0	320.443	0	74.3	4	23.8	4	-1E+10	1	-1E+10	1	-1E+10	1	-1E+10	1	-1E+10	1	-1E+10	1
4902549	110	C	08/31/2023	06:08	-132.711	47.741	0	324.40	0	4.5960	0	33.8410	0	26.804	0	321.433	0	73.8	4	23.6	4	-1E+10	1	-1E+10	1	-1E+10	1	-1E+10	1	-1E+10	1	-1E+10	1
4902549	110	C	08/31/2023	06:08	-132.711	47.741	0	325.40	0	4.5860	0	33.8430	0	26.807	0	322.423	0	73.4	4	23.5	4	-1E+10	1	-1E+10	1	-1E+10	1	-1E+10	1	-1E+10	1	-1E+10	1
4902549	110	C	08/31/2023	06:08	-132.711	47.741	0	326.40	0	4.5810	0	33.8450	0	26.809	0	323.413	0	73.0	4	23.3	4	-1E+10	1	-1E+10	1	-1E+10	1	-1E+10	1	-1E+10	1	-1E+10	1
4902549	110	C	08/31/2023	06:08	-132.711	47.741	0	327.50	0	4.5750	0	33.8470	0	26.811	0	324.502	0	72.6	4	23.2	4	-1E+10	1	-1E+10	1	-1E+10	1	-1E+10	1	-1E+10	1	-1E+10	1
4902549	110	C	08/31/2023	06:08	-132.711	47.741	0	328.50	0	4.5720	0	33.8470	0	26.812	0	325.492	0	72.3	4	23.1	4	-1E+10	1	-1E+10	1	-1E+10	1	-1E+10	1	-1E+10	1	-1E+10	1
4902549	110	C	08/31/2023	06:08	-132.711	47.741	0	329.50	0	4.5660	0	33.8490	0	26.814	0	326.482	0	71.9	4	23.0	4	-1E+10	1	-1E+10	1	-1E+10	1	-1E+10	1	-1E+10	1	-1E+10	1
4902549	110	C	08/31/2023	06:08	-132.711	47.741	0	330.50	0	4.5630	0	33.8500	0	26.815	0	327.473	0	71.6	4	22.8	4	-1E+10	1	-1E+10	1	-1E+10	1	-1E+10	1	-1E+10	1	-1E+10	1
4902549	110	C	08/31/2023	06:08	-132.711	47.741	0	331.50	0	4.5600	0	33.8510	0	26.816	0	328.463	0	71.2	4	22.7	4	-1E+10	1	-1E+10	1	-1E+10	1	-1E+10	1	-1E+10	1	-1E+10	1
4902549	110	C	08/31/2023	06:08	-132.711	47.741	0	332.50	0	4.5550	0	33.8530	0	26.818	0	329.453	0	70.9	4	22.6	4	-1E+10	1	-1E+10	1	-1E+10	1	-1E+10	1	-1E+10	1	-1E+10	1
4902549	110	C	08/31/2023	06:08	-132.711	47.741	0	333.50	0	4.5500	0	33.8540	0	26.819	0	330.443	0	70.6	4	22.5	4	-1E+10	1	-1E+10	1	-1E+10	1	-1E+10	1	-1E+10	1	-1E+10	1
4902549	110	C	08/31/2023	06:08	-132.711	47.741	0	334.50	0	4.5470	0	33.8550	0	26.821	0	331.433	0	70.3	4	22.4	4	-1E+10	1	-1E+10	1	-1E+10	1	-1E+10	1	-1E+10	1	-1E+10	1
4902549	110	C	08/31/2023	06:08	-132.711	47.741	0	335.50	0	4.5450	0	33.8550	0	26.821	0	332.423	0	70.0	4	22.4	4	-1E+10	1	-1E+10	1	-1E+10	1	-1E+10	1	-1E+10	1	-1E+10	1
4902549	110	C	08/31/2023	06:08	-132.711	47.741	0	336.60	0	4.5430	0	33.8560	0	26.822	0	333.512	0	69.7	4	22.2	4	-1E+10	1	-1E+10	1	-1E+10	1	-1E+10	1	-1E+10	1	-1E+10	1
4902549	110	C	08/31/2023	06:08	-132.711	47.741	0	337.60	0	4.5410	0	33.8560	0	26.822	0	334.502	0	69.4	4	22.1	4	-1E+10	1	-1E+10	1	-1E+10	1	-1E+10	1	-1E+10	1	-1E+10	1
4902549	110	C	08/31/2023	06:08	-132.711	47.741	0	338.60	0	4.5360	0	33.8590	0	26.825	0	335.492	0	69.1	4	22.0	4	-1E+10	1	-1E+10	1	-1E+10	1	-1E+10	1	-1E+10	1	-1E+10	1
4902549	110	C	08/31/2023	06:08	-132.711	47.741	0	339.60	0	4.5310	0	33.8610	0	26.827	0	336.482	0	68.8	4	22.0	4	-1E+10	1	-1E+10	1	-1E+10	1	-1E+10	1	-1E+10	1	-1E+10	1
4902549	110	C	08/31/2023	06:08	-132.711	47.741	0	340.60	0	4.5290	0	33.8610	0	26.827	0	337.472	0	68.5	4	21.9	4	-1E+10	1	-1E+10	1	-1E+10	1	-1E+10	1	-1E+10	1	-1E+10	1
4902549	110	C	08/31/2023	06:08	-132.711	47.741	0	341.60	0	4.5260	0	33.8620	0	26.828	0	338.462	0	68.3	4	21.8	4	-1E+10	1	-1E+10	1	-1E+10	1	-1E+10	1	-1E+10	1	-1E+10	1
4902549	110	C	08/31/2023	06:08	-132.711	47.741	0	342.60	0	4.5250	0	33.8620	0	26.829	0	339.452	0	68.0	4	21.7	4	-1E+10	1	-1E+10	1	-1E+10	1	-1E+10	1	-1E+10	1	-1E+10	1
4902549	110	C	08/31/2023	06:08	-132.711	47.741	0	343.50	0	4.5230	0	33.8630	0	26.830	0	340.343	0	67.7	4	21.6	4	-1E+10	1	-1E+10	1	-1E+10	1	-1E+10	1	-1E+10	1	-1E+10	1
4902549	110	C	08/31/2023	06:08	-132.711	47.741	0	344.50	0	4.5210	0	33.8640	0	26.831	0	341.333	0	67.4	4	21.5	4	-1E+10	1	-1E+10	1	-1E+10	1	-1E+10	1	-1E+10	1	-1E+10	1
4902549	110	C	08/31/2023	06:08	-132.711	47.741	0	345.90	0	4.5190	0	33.8640	0	26.831	0	342.719	0	66.9	4	21.3	4	-1E+10	1	-1E+10	1	-1E+10	1	-1E+10	1	-1E+10	1	-1E+10	1
4902549	110	C	08/31/2023	06:08	-132.711	47.741	0	347.40	0	4.5170	0	33.8650	0	26.832	0	344.204	0	66.3	4	21.1	4	-1E+10	1	-1E+10	1	-1E+10	1	-1E+10	1	-1E+10	1	-1E+10	1
4902549	110	C	08/31/2023	06:08	-132.711	47.741	0	348.30	0	4.5170	0	33.8650	0	26.832	0	345.095	0	65.9	4	21.0	4	-1E+10	1	-1E+10	1	-1E+10	1	-1E+10	1	-1E+10	1	-1E+10	1
4902549	110	C	08/31/2023	06:08	-132.711	47.741	0	349.20	0	4.5150	0	33.8660	0	26.833	0	345.986	0	65.4	4	20.9	4	-1E+10	1	-1E+10	1	-1E+10	1	-1E+10	1	-1E+10	1	-1E+10	1
4902549	110	C	08/31/2023	06:08	-132.711	47.741	0	350.20	0	4.5100	0	33.8670	0	26.834	0	346.976	0	65.0	4	20.7	4	-1E+10	1	-1E+10	1	-1E+10	1	-1E+10	1	-1E+10	1	-1E+10	1
4902549	110	C	08/31/2023	06:08	-132.711	47.741	0	352.90	0	4.4980	0	33.8710	0	26.839	0	349.648	0	63.7	4	20.3	4	-1E+10	1	-1E+10	1	-1E+10	1	-1E+10	1	-1E+10	1	-1E+10	1
4902549	110	C	08/31/2023	06:08	-132.711	47.741	0	357.90	0	4.4720	0	33.8800	0	26.849	0	354.598	0	61.8	4	19.7	4	-1E+10	1	-1E+10	1	-1E+10	1	-1E+10	1	-1E+10	1	-1E+10	1
4902549	110	C	08/31/2023	06:08	-132.711	47.741	0	363.10	0	4.4570	0	33.8840	0	26.854	0	359.746	0	59.9	4	19.1	4	-1E+10	1	-1E+10	1	-1E+10	1	-1E+10	1	-1E+10	1	-1E+10	1
4902549	110	C	08/31/2023	06:08	-132.711	47.741	0	368.20	0	4.4440	0	33.8900	0	26.860	0	364.794	0	57.2	4	18.2	4	-1E+10	1	-1E+10	1	-1E+10	1	-1E+10	1	-1E+10	1	-1E+10	1
4902549	110	C	08/31/2023	06:08	-132.711	47.741	0	373.10	0	4.4180	0	33.9000	0	26.870	0	369.644	0	55.2	4	17.6	4	-1E+10	1	-1E+10	1	-1E+10	1	-1E+10	1	-1E+10	1	-1E+10	1
4902549	110	C	08/31/2023	06:08	-132.711	47.741	0	378.00	0	4.3850	0	33.9080	0	26.880	0	374.494	0	53.7	4	17.1	4	-1E+10	1	-1E+10	1	-1E+10	1	-1E+10	1	-1E+10	1	-1E+10	1
4902549	110	C	08/31/2023	06:08	-132.711	47.741	0	382.90	0	4.3590	0	33.9130	0	26.887	0	379.345	0	52.7	4	16.7	4	-1E+10	1	-1E+10	1	-1E+10	1	-1E+10	1	-1E+10	1	-1E+10	1
4902549	110	C	08/31/2023	06:08	-132.711	47.741	0	387.90	0	4.3350	0	33.9210	0	26.896	0	384.294	0	51.7	4	16.4	4	-1E+10	1	-1E+10	1	-1E+10	1	-1E+10	1	-1E+10	1	-1E+10	1
4902549	110	C	08/31/2023	06:08	-132.711	47.741	0	392.80	0	4.3170	0	33.9290	0	26.904	0	389.143	0	50.6	4	16.1	4	-1E+10	1	-1E+10	1	-1E+10	1	-1E+10	1	-1E+10	1	-1E+10	1
4902549	110	C	08/31/2023	06:08	-132.711	47.741	0	397.90	0	4.3050	0	33.9380	0	26.913	0	394.191	0	49.4	4	15.7	4	-1E+10	1	-1E+10	1	-1E+10	1	-1E+10	1	-1E+10	1	-1E+10	1
4902549	110	C	08/31/2023	06:08	-132.711	47.741	0	402.90	0	4.2990	0	33.9440	0	26.918	0	399.140	0	48.0	4	15.2	4	-1E+10	1	-1E+10	1	-1E+10	1	-1E+10	1	-1E+10	1	-1E+10	1
4902549	110	C	08/31/2023	06:08	-132.711	47.741	0	407.80	0	4.2910	0	33.9530	0	26.926	0	403.989	0	46.8	4	14.8	4	-1E+10	1	-1E+10	1	-1E+10	1	-1E+10	1	-1E+10	1	-1E+10	1
4902549	110	C	08/31/2023	06:08	-132.711	47.741	0	412.80	0	4.2820	0	33.9610	0	26.934	0	408.937	0	45.5	4	14.4	4	-1E+10	1	-1E+10	1	-1E+10	1	-1E+10	1	-1E+10	1	-1E+10	1
4902549	110	C	08/31/2023	06:08	-132.711	47.741	0	418.00	0	4.2730	0	33.9700	0	26.942	0	414.084	0	44.3	4	14.1	4	-1E+10	1	-1E+10	1	-1E+10	1	-1E+10	1	-1E+10	1	-1E+10	1
4902549	110	C	08/31/2023	06:08	-132.711	47.741	0	423.10	0	4.2640	0	33.9760	0	26.948	0	419.131	0	43.2	4	13.7	4	-1E+10	1	-1E+10	1	-1E+10	1	-1E+10	1	-1E+10	1	-1E+10	1
4902549	110	C	08/31/2023	06:08	-132.711	47.741	0	428.00	0	4.2520	0	33.9850	0	26.956	0	423.980	0	42.1	4	13.3	4	-1E+10	1	-1E+10	1	-1E+10	1	-1E+10	1	-1E+10	1	-1E+10	1
4902549	110	C	08/31/2023	06:08	-132.711	47.741	0	433.20	0	4.2410	0	33.9920	0	26.963	0	429.126	0	41.0	4	13.0	4	-1E+10	1	-1E+10	1	-1E+10	1	-1E+10	1	-1E+10	1	-1E+10	1
4902549	110	C	08/31/2023	06:08	-132.711	47.741	0	438.10	0	4.2330	0	33.9980	0	26.968	0	433.974	0	40.3	4	12.8	4	-1E+10	1	-1E+10	1	-1E+10	1	-1E+10	1	-1E+10	1	-1E+10	1
4902549	110	C	08/31/2023	06:08	-132.711	47.741	0	442.90	0	4.2270	0	34.0020	0	26.972	0	438.724	0	39.5	4	12.5	4	-1E+10	1	-1E+10	1	-1E+10	1	-1E+10	1	-1E+10	1	-1E+10	1
4902549	110	C	08/31/2023	06:08	-132.711	47.741	0	447.80	0	4.2200	0	34.0070	0	26.977	0	443.573	0	38.7	4	12.3	4	-1E+10	1	-1E+10	1	-1E+10	1	-1E+10	1	-1E+10	1	-1E+10	1
4902549	110	C	08/31/2023	06:08	-132.711	47.741	0	452.70	0	4.2140	0	34.0110	0	26.981	0	448.421	0	37.9	4	12.0	4	-1E+10	1	-1E+10	1	-1E+10	1	-1E+10	1	-1E+10	1	-1E+10	1
4902549	110	C	08/31/2023	06:08	-132.711	47.741	0	457.70	0	4.2060	0	34.0160	0	26.986	0	453.368	0	37.2	4	11.8	4	-1E+10	1	-1E+10	1	-1E+10	1	-1E+10	1	-1E+10	1	-1E+10	1
4902549	110	C	08/31/2023	06:08	-132.711	47.741	0	462.90	0	4.1980	0	34.0220	0	26.991	0	458.513	0	36.5	4	11.6	4	-1E+10	1	-1E+10	1	-1E+10	1	-1E+10	1	-1E+10	1	-1E+10	1
4902549	110	C	08/31/2023	06:08	-132.711	47.741	0	467.80	0	4.1900	0	34.0260	0	26.995	0	463.361	0	35.9	4	11.4	4	-1E+10	1	-1E+10	1	-1E+10	1	-1E+10	1	-1E+10	1	-1E+10	1
4902549	110	C	08/31/2023	06:08	-132.711	47.741	0	472.60	0	4.1840	0	34.0290	0	26.998	0	468.111	0	35.3	4	11.2	4	-1E+10	1	-1E+10	1	-1E+10	1	-1E+10	1	-1E+10	1	-1E+10	1
4902549	110	C	08/31/2023	06:08	-132.711	47.741	0	477.60	0	4.1800	0	34.0310	0	27.000	0	473.057	0	34.7	4	11.0	4	-1E+10	1	-1E+10	1	-1E+10	1	-1E+10	1	-1E+10	1	-1E+10	1
4902549	110	C	08/31/2023	06:08	-132.711	47.741	0	482.60	0	4.1730	0	34.0350	0	27.004	0	478.004	0	33.7	4	10.7	4	-1E+10	1	-1E+10	1	-1E+10	1	-1E+10	1	-1E+10	1	-1E+10	1
4902549	110	C	08/31/2023	06:08	-132.711	47.741	0	487.60	0	4.1560	0	34.0420	0	27.012	0	482.951	0	32.7	4	10.4	4	-1E+10	1	-1E+10	1	-1E+10	1	-1E+10	1	-1E+10	1	-1E+10	1
4902549	110	C	08/31/2023	06:08	-132.711	47.741	0	492.80	0	4.1420	0	34.0480	0	27.018	0	488.095	0	32.0	4	10.1	4	-1E+10	1	-1E+10	1	-1E+10	1	-1E+10	1	-1E+10	1	-1E+10	1
4902549	110	C	08/31/2023	06:08	-132.711	47.741	0	497.90	0	4.1340	0	34.0510	0	27.021	0	493.140	0	31.3	4	9.9	4	-1E+10	1	-1E+10	1	-1E+10	1	-1E+10	1	-1E+10	1	-1E+10	1
4902549	110	C	08/31/2023	06:08	-132.711	47.741	0	503.00	0	4.1300	0	34.0530	0	27.023	0	498.185	0	30.6	4	9.7	4	-1E+10	1	-1E+10	1	-1E+10	1	-1E+10	1	-1E+10	1	-1E+10	1
4902549	110	C	08/31/2023	06:08	-132.711	47.741	0	508.10	0	4.1260	0	34.0570	0	27.027	0	503.230	0	29.8	4	9.4	4	-1E+10	1	-1E+10	1	-1E+10	1	-1E+10	1	-1E+10	1	-1E+10	1
4902549	110	C	08/31/2023	06:08	-132.711	47.741	0	513.30	0	4.1200	0	34.0620	0	27.032	0	508.374	0	28.9	4	9.1	4	-1E+10	1	-1E+10	1	-1E+10	1	-1E+10	1	-1E+10	1	-1E+10	1
4902549	110	C	08/31/2023	06:08	-132.711	47.741	0	518.30	0	4.1080	0	34.0680	0	27.038	0	513.320	0	28.2	4	8.9	4	-1E+10	1	-1E+10	1	-1E+10	1	-1E+10	1	-1E+10	1	-1E+10	1
4902549	110	C	08/31/2023	06:08	-132.711	47.741	0	523.40	0	4.0980	0	34.0700	0	27.040	0	518.365	0	27.4	4	8.7	4	-1E+10	1	-1E+10	1	-1E+10	1	-1E+10	1	-1E+10	1	-1E+10	1
4902549	110	C	08/31/2023	06:08	-132.711	47.741	0	527.90	0	4.0980	0	34.0770	0	27.046	0	522.816	0	26.5	4	8.4	4	-1E+10	1	-1E+10	1	-1E+10	1	-1E+10	1	-1E+10	1	-1E+10	1
4902549	110	C	08/31/2023	06:08	-132.711	47.741	0	532.90	0	4.0950	0	34.0840	0	27.052	0	527.761	0	26.1	4	8.3	4	-1E+10	1	-1E+10	1	-1E+10	1	-1E+10	1	-1E+10	1	-1E+10	1
4902549	110	C	08/31/2023	06:08	-132.711	47.741	0	538.30	0	4.0810	0	34.0860	0	27.055	0	533.102	0	25.7	4	8.1	4	-1E+10	1	-1E+10	1	-1E+10	1	-1E+10	1	-1E+10	1	-1E+10	1
4902549	110	C	08/31/2023	06:08	-132.711	47.741	0	543.10	0	4.0570	0	34.0910	0	27.061	0	537.850	0	25.2	4	8.0	4	-1E+10	1	-1E+10	1	-1E+10	1	-1E+10	1	-1E+10	1	-1E+10	1
4902549	110	C	08/31/2023	06:08	-132.711	47.741	0	547.80	0	4.0490	0	34.0950	0	27.065	0	542.498	0	24.6	4	7.8	4	-1E+10	1	-1E+10	1	-1E+10	1	-1E+10	1	-1E+10	1	-1E+10	1
4902549	110	C	08/31/2023	06:08	-132.711	47.741	0	552.90	0	4.0360	0	34.1000	0	27.071	0	547.542	0	23.9	4	7.6	4	-1E+10	1	-1E+10	1	-1E+10	1	-1E+10	1	-1E+10	1	-1E+10	1
4902549	110	C	08/31/2023	06:08	-132.711	47.741	0	558.00	0	4.0390	0	34.1040	0	27.074	0	552.586	0	23.2	4	7.3	4	-1E+10	1	-1E+10	1	-1E+10	1	-1E+10	1	-1E+10	1	-1E+10	1
4902549	110	C	08/31/2023	06:08	-132.711	47.741	0	563.00	0	4.0350	0	34.1100	0	27.079	0	557.531	0	22.7	4	7.2	4	-1E+10	1	-1E+10	1	-1E+10	1	-1E+10	1	-1E+10	1	-1E+10	1
4902549	110	C	08/31/2023	06:08	-132.711	47.741	0	568.00	0	4.0220	0	34.1140	0	27.083	0	562.475	0	22.4	4	7.1	4	-1E+10	1	-1E+10	1	-1E+10	1	-1E+10	1	-1E+10	1	-1E+10	1
4902549	110	C	08/31/2023	06:08	-132.711	47.741	0	573.00	0	4.0130	0	34.1150	0	27.085	0	567.420	0	22.2	4	7.0	4	-1E+10	1	-1E+10	1	-1E+10	1	-1E+10	1	-1E+10	1	-1E+10	1
4902549	110	C	08/31/2023	06:08	-132.711	47.741	0	578.20	0	3.9970	0	34.1180	0	27.089	0	572.562	0	21.7	4	6.8	4	-1E+10	1	-1E+10	1	-1E+10	1	-1E+10	1	-1E+10	1	-1E+10	1
4902549	110	C	08/31/2023	06:08	-132.711	47.741	0	582.90	0	3.9920	0	34.1210	0	27.092	0	577.210	0	21.3	4	6.7	4	-1E+10	1	-1E+10	1	-1E+10	1	-1E+10	1	-1E+10	1	-1E+10	1
4902549	110	C	08/31/2023	06:08	-132.711	47.741	0	587.60	0	3.9880	0	34.1240	0	27.095	0	581.857	0	21.0	4	6.6	4	-1E+10	1	-1E+10	1	-1E+10	1	-1E+10	1	-1E+10	1	-1E+10	1
4902549	110	C	08/31/2023	06:08	-132.711	47.741	0	592.40	0	3.9810	0	34.1260	0	27.097	0	586.604	0	20.5	4	6.5	4	-1E+10	1	-1E+10	1	-1E+10	1	-1E+10	1	-1E+10	1	-1E+10	1
4902549	110	C	08/31/2023	06:08	-132.711	47.741	0	597.80	0	3.9660	0	34.1310	0	27.103	0	591.943	0	19.9	4	6.3	4	-1E+10	1	-1E+10	1	-1E+10	1	-1E+10	1	-1E+10	1	-1E+10	1
4902549	110	C	08/31/2023	06:08	-132.711	47.741	0	603.00	0	3.9590	0	34.1350	0	27.107	0	597.085	0	19.2	4	6.1	4	-1E+10	1	-1E+10	1	-1E+10	1	-1E+10	1	-1E+10	1	-1E+10	1
4902549	110	C	08/31/2023	06:08	-132.711	47.741	0	607.70	0	3.9540	0	34.1400	0	27.111	0	601.732	0	18.4	4	5.8	4	-1E+10	1	-1E+10	1	-1E+10	1	-1E+10	1	-1E+10	1	-1E+10	1
4902549	110	C	08/31/2023	06:08	-132.711	47.741	0	613.00	0	3.9510	0	34.1480	0	27.118	0	606.972	0	17.7	4	5.6	4	-1E+10	1	-1E+10	1	-1E+10	1	-1E+10	1	-1E+10	1	-1E+10	1
4902549	110	C	08/31/2023	06:08	-132.711	47.741	0	618.20	0	3.9480	0	34.1510	0	27.121	0	612.113	0	17.2	4	5.4	4	-1E+10	1	-1E+10	1	-1E+10	1	-1E+10	1	-1E+10	1	-1E+10	1
4902549	110	C	08/31/2023	06:08	-132.711	47.741	0	623.00	0	3.9350	0	34.1570	0	27.127	0	616.859	0	16.7	4	5.3	4	-1E+10	1	-1E+10	1	-1E+10	1	-1E+10	1	-1E+10	1	-1E+10	1
4902549	110	C	08/31/2023	06:08	-132.711	47.741	0	628.00	0	3.9230	0	34.1610	0	27.131	0	621.802	0	16.3	4	5.1	4	-1E+10	1	-1E+10	1	-1E+10	1	-1E+10	1	-1E+10	1	-1E+10	1
4902549	110	C	08/31/2023	06:08	-132.711	47.741	0	633.10	0	3.9120	0	34.1660	0	27.136	0	626.844	0	15.8	4	5.0	4	-1E+10	1	-1E+10	1	-1E+10	1	-1E+10	1	-1E+10	1	-1E+10	1
4902549	110	C	08/31/2023	06:08	-132.711	47.741	0	637.90	0	3.8950	0	34.1710	0	27.142	0	631.589	0	15.4	4	4.9	4	-1E+10	1	-1E+10	1	-1E+10	1	-1E+10	1	-1E+10	1	-1E+10	1
4902549	110	C	08/31/2023	06:08	-132.711	47.741	0	642.70	0	3.8830	0	34.1750	0	27.147	0	636.335	0	15.1	4	4.7	4	-1E+10	1	-1E+10	1	-1E+10	1	-1E+10	1	-1E+10	1	-1E+10	1
4902549	110	C	08/31/2023	06:08	-132.711	47.741	0	647.70	0	3.8770	0	34.1770	0	27.149	0	641.277	0	14.6	4	4.6	4	-1E+10	1	-1E+10	1	-1E+10	1	-1E+10	1	-1E+10	1	-1E+10	1
4902549	110	C	08/31/2023	06:08	-132.711	47.741	0	652.70	0	3.8700	0	34.1830	0	27.154	0	646.220	0	13.9	4	4.4	4	-1E+10	1	-1E+10	1	-1E+10	1	-1E+10	1	-1E+10	1	-1E+10	1
4902549	110	C	08/31/2023	06:08	-132.711	47.741	0	658.10	0	3.8730	0	34.1870	0	27.157	0	651.558	0	13.4	4	4.2	4	-1E+10	1	-1E+10	1	-1E+10	1	-1E+10	1	-1E+10	1	-1E+10	1
4902549	110	C	08/31/2023	06:08	-132.711	47.741	0	663.10	0	3.8710	0	34.1910	0	27.161	0	656.500	0	13.2	4	4.2	4	-1E+10	1	-1E+10	1	-1E+10	1	-1E+10	1	-1E+10	1	-1E+10	1
4902549	110	C	08/31/2023	06:08	-132.711	47.741	0	667.90	0	3.8460	0	34.1950	0	27.166	0	661.245	0	12.9	4	4.1	4	-1E+10	1	-1E+10	1	-1E+10	1	-1E+10	1	-1E+10	1	-1E+10	1
4902549	110	C	08/31/2023	06:08	-132.711	47.741	0	673.00	0	3.8260	0	34.2000	0	27.172	0	666.286	0	12.6	4	4.0	4	-1E+10	1	-1E+10	1	-1E+10	1	-1E+10	1	-1E+10	1	-1E+10	1
4902549	110	C	08/31/2023	06:08	-132.711	47.741	0	677.60	0	3.8210	0	34.2020	0	27.174	0	670.833	0	12.4	4	3.9	4	-1E+10	1	-1E+10	1	-1E+10	1	-1E+10	1	-1E+10	1	-1E+10	1
4902549	110	C	08/31/2023	06:08	-132.711	47.741	0	682.80	0	3.8170	0	34.2050	0	27.177	0	675.972	0	12.3	4	3.9	4	-1E+10	1	-1E+10	1	-1E+10	1	-1E+10	1	-1E+10	1	-1E+10	1
4902549	110	C	08/31/2023	06:08	-132.711	47.741	0	688.00	0	3.8120	0	34.2050	0	27.178	0	681.112	0	12.2	4	3.8	4	-1E+10	1	-1E+10	1	-1E+10	1	-1E+10	1	-1E+10	1	-1E+10	1
4902549	110	C	08/31/2023	06:08	-132.711	47.741	0	692.80	0	3.7910	0	34.2070	0	27.182	0	685.856	0	12.1	4	3.8	4	-1E+10	1	-1E+10	1	-1E+10	1	-1E+10	1	-1E+10	1	-1E+10	1
4902549	110	C	08/31/2023	06:08	-132.711	47.741	0	697.90	0	3.7800	0	34.2090	0	27.184	0	690.896	0	11.7	4	3.7	4	-1E+10	1	-1E+10	1	-1E+10	1	-1E+10	1	-1E+10	1	-1E+10	1
4902549	110	C	08/31/2023	06:08	-132.711	47.741	0	703.10	0	3.7780	0	34.2130	0	27.188	0	696.035	0	11.3	4	3.6	4	-1E+10	1	-1E+10	1	-1E+10	1	-1E+10	1	-1E+10	1	-1E+10	1
4902549	110	C	08/31/2023	06:08	-132.711	47.741	0	707.70	0	3.7780	0	34.2160	0	27.190	0	700.582	0	11.2	4	3.5	4	-1E+10	1	-1E+10	1	-1E+10	1	-1E+10	1	-1E+10	1	-1E+10	1
4902549	110	C	08/31/2023	06:08	-132.711	47.741	0	712.70	0	3.7720	0	34.2180	0	27.192	0	705.523	0	11.1	4	3.5	4	-1E+10	1	-1E+10	1	-1E+10	1	-1E+10	1	-1E+10	1	-1E+10	1
4902549	110	C	08/31/2023	06:08	-132.711	47.741	0	718.10	0	3.7610	0	34.2210	0	27.196	0	710.859	0	11.1	4	3.5	4	-1E+10	1	-1E+10	1	-1E+10	1	-1E+10	1	-1E+10	1	-1E+10	1
4902549	110	C	08/31/2023	06:08	-132.711	47.741	0	723.00	0	3.7500	0	34.2220	0	27.198	0	715.701	0	11.0	4	3.5	4	-1E+10	1	-1E+10	1	-1E+10	1	-1E+10	1	-1E+10	1	-1E+10	1
4902549	110	C	08/31/2023	06:08	-132.711	47.741	0	727.80	0	3.7380	0	34.2240	0	27.201	0	720.445	0	11.1	4	3.5	4	-1E+10	1	-1E+10	1	-1E+10	1	-1E+10	1	-1E+10	1	-1E+10	1
4902549	110	C	08/31/2023	06:08	-132.711	47.741	0	733.00	0	3.7190	0	34.2250	0	27.203	0	725.583	0	11.1	4	3.5	4	-1E+10	1	-1E+10	1	-1E+10	1	-1E+10	1	-1E+10	1	-1E+10	1
4902549	110	C	08/31/2023	06:08	-132.711	47.741	0	738.20	0	3.7110	0	34.2260	0	27.205	0	730.721	0	10.8	4	3.4	4	-1E+10	1	-1E+10	1	-1E+10	1	-1E+10	1	-1E+10	1	-1E+10	1
4902549	110	C	08/31/2023	06:08	-132.711	47.741	0	743.30	0	3.7010	0	34.2290	0	27.208	0	735.761	0	10.5	4	3.3	4	-1E+10	1	-1E+10	1	-1E+10	1	-1E+10	1	-1E+10	1	-1E+10	1
4902549	110	C	08/31/2023	06:08	-132.711	47.741	0	747.90	0	3.6920	0	34.2320	0	27.212	0	740.306	0	10.2	4	3.2	4	-1E+10	1	-1E+10	1	-1E+10	1	-1E+10	1	-1E+10	1	-1E+10	1
4902549	110	C	08/31/2023	06:08	-132.711	47.741	0	752.60	0	3.6750	0	34.2380	0	27.218	0	744.950	0	10.0	4	3.1	4	-1E+10	1	-1E+10	1	-1E+10	1	-1E+10	1	-1E+10	1	-1E+10	1
4902549	110	C	08/31/2023	06:08	-132.711	47.741	0	757.80	0	3.6650	0	34.2400	0	27.221	0	750.088	0	9.8	4	3.1	4	-1E+10	1	-1E+10	1	-1E+10	1	-1E+10	1	-1E+10	1	-1E+10	1
4902549	110	C	08/31/2023	06:08	-132.711	47.741	0	763.00	0	3.6520	0	34.2450	0	27.226	0	755.225	0	9.5	4	3.0	4	-1E+10	1	-1E+10	1	-1E+10	1	-1E+10	1	-1E+10	1	-1E+10	1
4902549	110	C	08/31/2023	06:08	-132.711	47.741	0	767.80	0	3.6350	0	34.2500	0	27.232	0	759.968	0	9.3	4	2.9	4	-1E+10	1	-1E+10	1	-1E+10	1	-1E+10	1	-1E+10	1	-1E+10	1
4902549	110	C	08/31/2023	06:08	-132.711	47.741	0	772.70	0	3.6170	0	34.2540	0	27.237	0	764.809	0	9.1	4	2.8	4	-1E+10	1	-1E+10	1	-1E+10	1	-1E+10	1	-1E+10	1	-1E+10	1
4902549	110	C	08/31/2023	06:08	-132.711	47.741	0	777.80	0	3.6060	0	34.2570	0	27.240	0	769.847	0	8.9	4	2.8	4	-1E+10	1	-1E+10	1	-1E+10	1	-1E+10	1	-1E+10	1	-1E+10	1
4902549	110	C	08/31/2023	06:08	-132.711	47.741	0	782.60	0	3.5970	0	34.2600	0	27.243	0	774.589	0	8.8	4	2.7	4	-1E+10	1	-1E+10	1	-1E+10	1	-1E+10	1	-1E+10	1	-1E+10	1
4902549	110	C	08/31/2023	06:08	-132.711	47.741	0	787.50	0	3.5830	0	34.2640	0	27.248	0	779.430	0	8.6	4	2.7	4	-1E+10	1	-1E+10	1	-1E+10	1	-1E+10	1	-1E+10	1	-1E+10	1
4902549	110	C	08/31/2023	06:08	-132.711	47.741	0	792.50	0	3.5760	0	34.2660	0	27.250	0	784.369	0	8.5	4	2.7	4	-1E+10	1	-1E+10	1	-1E+10	1	-1E+10	1	-1E+10	1	-1E+10	1
4902549	110	C	08/31/2023	06:08	-132.711	47.741	0	797.60	0	3.5730	0	34.2680	0	27.252	0	789.407	0	8.3	4	2.6	4	-1E+10	1	-1E+10	1	-1E+10	1	-1E+10	1	-1E+10	1	-1E+10	1
4902549	110	C	08/31/2023	06:08	-132.711	47.741	0	802.70	0	3.5700	0	34.2700	0	27.254	0	794.445	0	8.2	4	2.5	4	-1E+10	1	-1E+10	1	-1E+10	1	-1E+10	1	-1E+10	1	-1E+10	1
4902549	110	C	08/31/2023	06:08	-132.711	47.741	0	808.00	0	3.5670	0	34.2730	0	27.257	0	799.681	0	8.0	4	2.5	4	-1E+10	1	-1E+10	1	-1E+10	1	-1E+10	1	-1E+10	1	-1E+10	1
4902549	110	C	08/31/2023	06:08	-132.711	47.741	0	812.90	0	3.5590	0	34.2750	0	27.259	0	804.521	0	7.9	4	2.5	4	-1E+10	1	-1E+10	1	-1E+10	1	-1E+10	1	-1E+10	1	-1E+10	1
4902549	110	C	08/31/2023	06:08	-132.711	47.741	0	817.70	0	3.5500	0	34.2790	0	27.263	0	809.262	0	7.7	4	2.4	4	-1E+10	1	-1E+10	1	-1E+10	1	-1E+10	1	-1E+10	1	-1E+10	1
4902549	110	C	08/31/2023	06:08	-132.711	47.741	0	822.70	0	3.5460	0	34.2810	0	27.265	0	814.201	0	7.6	4	2.4	4	-1E+10	1	-1E+10	1	-1E+10	1	-1E+10	1	-1E+10	1	-1E+10	1
4902549	110	C	08/31/2023	06:08	-132.711	47.741	0	827.80	0	3.5380	0	34.2830	0	27.268	0	819.238	0	7.4	4	2.3	4	-1E+10	1	-1E+10	1	-1E+10	1	-1E+10	1	-1E+10	1	-1E+10	1
4902549	110	C	08/31/2023	06:08	-132.711	47.741	0	833.10	0	3.5240	0	34.2870	0	27.272	0	824.473	0	7.2	4	2.3	4	-1E+10	1	-1E+10	1	-1E+10	1	-1E+10	1	-1E+10	1	-1E+10	1
4902549	110	C	08/31/2023	06:08	-132.711	47.741	0	838.00	0	3.5180	0	34.2910	0	27.276	0	829.312	0	7.0	4	2.2	4	-1E+10	1	-1E+10	1	-1E+10	1	-1E+10	1	-1E+10	1	-1E+10	1
4902549	110	C	08/31/2023	06:08	-132.711	47.741	0	843.00	0	3.5110	0	34.2960	0	27.281	0	834.250	0	6.8	4	2.1	4	-1E+10	1	-1E+10	1	-1E+10	1	-1E+10	1	-1E+10	1	-1E+10	1
4902549	110	C	08/31/2023	06:08	-132.711	47.741	0	848.10	0	3.5070	0	34.3000	0	27.284	0	839.287	0	6.7	4	2.1	4	-1E+10	1	-1E+10	1	-1E+10	1	-1E+10	1	-1E+10	1	-1E+10	1
4902549	110	C	08/31/2023	06:08	-132.711	47.741	0	852.70	0	3.5030	0	34.3030	0	27.287	0	843.830	0	6.6	4	2.1	4	-1E+10	1	-1E+10	1	-1E+10	1	-1E+10	1	-1E+10	1	-1E+10	1
4902549	110	C	08/31/2023	06:08	-132.711	47.741	0	857.90	0	3.4990	0	34.3070	0	27.291	0	848.966	0	6.5	4	2.0	4	-1E+10	1	-1E+10	1	-1E+10	1	-1E+10	1	-1E+10	1	-1E+10	1
4902549	110	C	08/31/2023	06:08	-132.711	47.741	0	863.00	0	3.4970	0	34.3100	0	27.294	0	854.002	0	6.4	4	2.0	4	-1E+10	1	-1E+10	1	-1E+10	1	-1E+10	1	-1E+10	1	-1E+10	1
4902549	110	C	08/31/2023	06:08	-132.711	47.741	0	867.80	0	3.4950	0	34.3130	0	27.296	0	858.742	0	6.3	4	2.0	4	-1E+10	1	-1E+10	1	-1E+10	1	-1E+10	1	-1E+10	1	-1E+10	1
4902549	110	C	08/31/2023	06:08	-132.711	47.741	0	872.50	0	3.4910	0	34.3170	0	27.300	0	863.383	0	6.2	4	1.9	4	-1E+10	1	-1E+10	1	-1E+10	1	-1E+10	1	-1E+10	1	-1E+10	1
4902549	110	C	08/31/2023	06:08	-132.711	47.741	0	877.80	0	3.4870	0	34.3190	0	27.302	0	868.617	0	6.2	4	1.9	4	-1E+10	1	-1E+10	1	-1E+10	1	-1E+10	1	-1E+10	1	-1E+10	1
4902549	110	C	08/31/2023	06:08	-132.711	47.741	0	883.00	0	3.4800	0	34.3220	0	27.305	0	873.752	0	6.2	4	1.9	4	-1E+10	1	-1E+10	1	-1E+10	1	-1E+10	1	-1E+10	1	-1E+10	1
4902549	110	C	08/31/2023	06:08	-132.711	47.741	0	887.80	0	3.4730	0	34.3240	0	27.307	0	878.491	0	6.2	4	1.9	4	-1E+10	1	-1E+10	1	-1E+10	1	-1E+10	1	-1E+10	1	-1E+10	1
4902549	110	C	08/31/2023	06:08	-132.711	47.741	0	892.90	0	3.4570	0	34.3260	0	27.310	0	883.527	0	6.3	4	2.0	4	-1E+10	1	-1E+10	1	-1E+10	1	-1E+10	1	-1E+10	1	-1E+10	1
4902549	110	C	08/31/2023	06:08	-132.711	47.741	0	898.10	0	3.4370	0	34.3290	0	27.315	0	888.661	0	6.3	4	2.0	4	-1E+10	1	-1E+10	1	-1E+10	1	-1E+10	1	-1E+10	1	-1E+10	1
4902549	110	C	08/31/2023	06:08	-132.711	47.741	0	902.70	0	3.4300	0	34.3310	0	27.317	0	893.203	0	6.2	4	1.9	4	-1E+10	1	-1E+10	1	-1E+10	1	-1E+10	1	-1E+10	1	-1E+10	1
4902549	110	C	08/31/2023	06:08	-132.711	47.741	0	907.80	0	3.4290	0	34.3340	0	27.319	0	898.239	0	6.2	4	1.9	4	-1E+10	1	-1E+10	1	-1E+10	1	-1E+10	1	-1E+10	1	-1E+10	1
4902549	110	C	08/31/2023	06:08	-132.711	47.741	0	913.00	0	3.4220	0	34.3360	0	27.322	0	903.373	0	6.2	4	1.9	4	-1E+10	1	-1E+10	1	-1E+10	1	-1E+10	1	-1E+10	1	-1E+10	1
4902549	110	C	08/31/2023	06:08	-132.711	47.741	0	917.70	0	3.4070	0	34.3370	0	27.324	0	908.013	0	6.3	4	2.0	4	-1E+10	1	-1E+10	1	-1E+10	1	-1E+10	1	-1E+10	1	-1E+10	1
4902549	110	C	08/31/2023	06:08	-132.711	47.741	0	922.70	0	3.4000	0	34.3380	0	27.326	0	912.949	0	6.3	4	2.0	4	-1E+10	1	-1E+10	1	-1E+10	1	-1E+10	1	-1E+10	1	-1E+10	1
4902549	110	C	08/31/2023	06:08	-132.711	47.741	0	927.80	0	3.3860	0	34.3410	0	27.329	0	917.984	0	6.3	4	2.0	4	-1E+10	1	-1E+10	1	-1E+10	1	-1E+10	1	-1E+10	1	-1E+10	1
4902549	110	C	08/31/2023	06:08	-132.711	47.741	0	932.70	0	3.3760	0	34.3410	0	27.330	0	922.822	0	6.4	4	2.0	4	-1E+10	1	-1E+10	1	-1E+10	1	-1E+10	1	-1E+10	1	-1E+10	1
4902549	110	C	08/31/2023	06:08	-132.711	47.741	0	938.10	0	3.3620	0	34.3440	0	27.334	0	928.152	0	6.5	4	2.0	4	-1E+10	1	-1E+10	1	-1E+10	1	-1E+10	1	-1E+10	1	-1E+10	1
4902549	110	C	08/31/2023	06:08	-132.711	47.741	0	943.00	0	3.3290	0	34.3440	0	27.337	0	932.990	0	6.6	4	2.1	4	-1E+10	1	-1E+10	1	-1E+10	1	-1E+10	1	-1E+10	1	-1E+10	1
4902549	110	C	08/31/2023	06:08	-132.711	47.741	0	947.80	0	3.3080	0	34.3440	0	27.339	0	937.728	0	6.7	4	2.1	4	-1E+10	1	-1E+10	1	-1E+10	1	-1E+10	1	-1E+10	1	-1E+10	1
4902549	110	C	08/31/2023	06:08	-132.711	47.741	0	952.70	0	3.2810	0	34.3470	0	27.344	0	942.565	0	6.7	4	2.1	4	-1E+10	1	-1E+10	1	-1E+10	1	-1E+10	1	-1E+10	1	-1E+10	1
4902549	110	C	08/31/2023	06:08	-132.711	47.741	0	957.70	0	3.2790	0	34.3500	0	27.347	0	947.500	0	6.5	4	2.0	4	-1E+10	1	-1E+10	1	-1E+10	1	-1E+10	1	-1E+10	1	-1E+10	1
4902549	110	C	08/31/2023	06:08	-132.711	47.741	0	962.80	0	3.2800	0	34.3550	0	27.351	0	952.534	0	6.5	4	2.0	4	-1E+10	1	-1E+10	1	-1E+10	1	-1E+10	1	-1E+10	1	-1E+10	1
4902549	110	C	08/31/2023	06:08	-132.711	47.741	0	967.80	0	3.2700	0	34.3570	0	27.353	0	957.470	0	6.6	4	2.0	4	-1E+10	1	-1E+10	1	-1E+10	1	-1E+10	1	-1E+10	1	-1E+10	1
4902549	110	C	08/31/2023	06:08	-132.711	47.741	0	972.90	0	3.2540	0	34.3580	0	27.355	0	962.503	0	6.6	4	2.1	4	-1E+10	1	-1E+10	1	-1E+10	1	-1E+10	1	-1E+10	1	-1E+10	1
4902549	110	C	08/31/2023	06:08	-132.711	47.741	0	977.90	0	3.2390	0	34.3600	0	27.358	0	967.439	0	6.6	4	2.1	4	-1E+10	1	-1E+10	1	-1E+10	1	-1E+10	1	-1E+10	1	-1E+10	1
4902549	110	C	08/31/2023	06:08	-132.711	47.741	0	982.90	0	3.2320	0	34.3610	0	27.360	0	972.373	0	6.6	4	2.0	4	-1E+10	1	-1E+10	1	-1E+10	1	-1E+10	1	-1E+10	1	-1E+10	1
4902549	110	C	08/31/2023	06:08	-132.711	47.741	0	988.10	0	3.2310	0	34.3660	0	27.364	0	977.506	0	6.6	4	2.1	4	-1E+10	1	-1E+10	1	-1E+10	1	-1E+10	1	-1E+10	1	-1E+10	1
4902549	110	C	08/31/2023	06:08	-132.711	47.741	0	993.20	0	3.2140	0	34.3650	0	27.365	0	982.539	0	6.7	4	2.1	4	-1E+10	1	-1E+10	1	-1E+10	1	-1E+10	1	-1E+10	1	-1E+10	1
4902549	110	C	08/31/2023	06:08	-132.711	47.741	0	997.90	0	3.2000	0	34.3660	0	27.367	0	987.177	0	6.7	4	2.1	4	-1E+10	1	-1E+10	1	-1E+10	1	-1E+10	1	-1E+10	1	-1E+10	1
4902549	110	C	08/31/2023	06:08	-132.711	47.741	0	1005.60	0	3.1890	0	34.3700	0	27.371	0	994.776	0	6.7	4	2.1	4	-1E+10	1	-1E+10	1	-1E+10	1	-1E+10	1	-1E+10	1	-1E+10	1
4902549	110	C	08/31/2023	06:08	-132.711	47.741	0	1015.60	0	3.1590	0	34.3720	0	27.376	0	1004.645	0	6.8	4	2.1	4	-1E+10	1	-1E+10	1	-1E+10	1	-1E+10	1	-1E+10	1	-1E+10	1
4902549	110	C	08/31/2023	06:08	-132.711	47.741	0	1025.20	0	3.1190	0	34.3750	0	27.382	0	1014.118	0	7.0	4	2.2	4	-1E+10	1	-1E+10	1	-1E+10	1	-1E+10	1	-1E+10	1	-1E+10	1
4902549	110	C	08/31/2023	06:08	-132.711	47.741	0	1035.50	0	3.0930	0	34.3770	0	27.386	0	1024.282	0	7.1	4	2.2	4	-1E+10	1	-1E+10	1	-1E+10	1	-1E+10	1	-1E+10	1	-1E+10	1
4902549	110	C	08/31/2023	06:08	-132.711	47.741	0	1045.50	0	3.0700	0	34.3780	0	27.389	0	1034.149	0	7.1	4	2.2	4	-1E+10	1	-1E+10	1	-1E+10	1	-1E+10	1	-1E+10	1	-1E+10	1
4902549	110	C	08/31/2023	06:08	-132.711	47.741	0	1055.30	0	3.0480	0	34.3810	0	27.393	0	1043.818	0	7.2	4	2.2	4	-1E+10	1	-1E+10	1	-1E+10	1	-1E+10	1	-1E+10	1	-1E+10	1
4902549	110	C	08/31/2023	06:08	-132.711	47.741	0	1065.30	0	3.0400	0	34.3850	0	27.397	0	1053.684	0	7.2	4	2.2	4	-1E+10	1	-1E+10	1	-1E+10	1	-1E+10	1	-1E+10	1	-1E+10	1
4902549	110	C	08/31/2023	06:08	-132.711	47.741	0	1075.50	0	3.0220	0	34.3870	0	27.400	0	1063.747	0	7.3	4	2.2	4	-1E+10	1	-1E+10	1	-1E+10	1	-1E+10	1	-1E+10	1	-1E+10	1
4902549	110	C	08/31/2023	06:08	-132.711	47.741	0	1085.40	0	3.0040	0	34.3920	0	27.406	0	1073.513	0	7.3	4	2.3	4	-1E+10	1	-1E+10	1	-1E+10	1	-1E+10	1	-1E+10	1	-1E+10	1
4902549	110	C	08/31/2023	06:08	-132.711	47.741	0	1095.50	0	2.9780	0	34.3940	0	27.410	0	1083.477	0	7.5	4	2.3	4	-1E+10	1	-1E+10	1	-1E+10	1	-1E+10	1	-1E+10	1	-1E+10	1
4902549	110	C	08/31/2023	06:08	-132.711	47.741	0	1105.40	0	2.9280	0	34.3950	0	27.415	0	1093.242	0	7.7	4	2.4	4	-1E+10	1	-1E+10	1	-1E+10	1	-1E+10	1	-1E+10	1	-1E+10	1
4902549	110	C	08/31/2023	06:08	-132.711	47.741	0	1115.10	0	2.9130	0	34.3970	0	27.418	0	1102.810	0	7.7	4	2.4	4	-1E+10	1	-1E+10	1	-1E+10	1	-1E+10	1	-1E+10	1	-1E+10	1
4902549	110	C	08/31/2023	06:08	-132.711	47.741	0	1125.30	0	2.9030	0	34.3990	0	27.421	0	1112.871	0	7.8	4	2.4	4	-1E+10	1	-1E+10	1	-1E+10	1	-1E+10	1	-1E+10	1	-1E+10	1
4902549	110	C	08/31/2023	06:08	-132.711	47.741	0	1135.30	0	2.8820	0	34.4040	0	27.427	0	1122.734	0	7.9	4	2.4	4	-1E+10	1	-1E+10	1	-1E+10	1	-1E+10	1	-1E+10	1	-1E+10	1
4902549	110	C	08/31/2023	06:08	-132.711	47.741	0	1145.50	0	2.8740	0	34.4050	0	27.428	0	1132.793	0	7.9	4	2.4	4	-1E+10	1	-1E+10	1	-1E+10	1	-1E+10	1	-1E+10	1	-1E+10	1
4902549	110	C	08/31/2023	06:08	-132.711	47.741	0	1155.80	0	2.8620	0	34.4070	0	27.431	0	1142.951	0	8.1	4	2.5	4	-1E+10	1	-1E+10	1	-1E+10	1	-1E+10	1	-1E+10	1	-1E+10	1
4902549	110	C	08/31/2023	06:08	-132.711	47.741	0	1165.70	0	2.8490	0	34.4100	0	27.435	0	1152.714	0	8.2	4	2.5	4	-1E+10	1	-1E+10	1	-1E+10	1	-1E+10	1	-1E+10	1	-1E+10	1
4902549	110	C	08/31/2023	06:08	-132.711	47.741	0	1175.70	0	2.8330	0	34.4140	0	27.439	0	1162.575	0	8.4	4	2.6	4	-1E+10	1	-1E+10	1	-1E+10	1	-1E+10	1	-1E+10	1	-1E+10	1
4902549	110	C	08/31/2023	06:08	-132.711	47.741	0	1185.70	0	2.8200	0	34.4180	0	27.444	0	1172.435	0	8.5	4	2.6	4	-1E+10	1	-1E+10	1	-1E+10	1	-1E+10	1	-1E+10	1	-1E+10	1
4902549	110	C	08/31/2023	06:08	-132.711	47.741	0	1195.50	0	2.8090	0	34.4200	0	27.446	0	1182.098	0	8.6	4	2.6	4	-1E+10	1	-1E+10	1	-1E+10	1	-1E+10	1	-1E+10	1	-1E+10	1
4902549	110	C	08/31/2023	06:08	-132.711	47.741	0	1205.50	0	2.7950	0	34.4230	0	27.450	0	1191.958	0	8.7	4	2.7	4	-1E+10	1	-1E+10	1	-1E+10	1	-1E+10	1	-1E+10	1	-1E+10	1
4902549	110	C	08/31/2023	06:08	-132.711	47.741	0	1215.60	0	2.7810	0	34.4260	0	27.454	0	1201.915	0	8.9	4	2.7	4	-1E+10	1	-1E+10	1	-1E+10	1	-1E+10	1	-1E+10	1	-1E+10	1
4902549	110	C	08/31/2023	06:08	-132.711	47.741	0	1225.50	0	2.7660	0	34.4290	0	27.458	0	1211.675	0	9.1	4	2.8	4	-1E+10	1	-1E+10	1	-1E+10	1	-1E+10	1	-1E+10	1	-1E+10	1
4902549	110	C	08/31/2023	06:08	-132.711	47.741	0	1235.60	0	2.7490	0	34.4330	0	27.462	0	1221.632	0	9.4	4	2.9	4	-1E+10	1	-1E+10	1	-1E+10	1	-1E+10	1	-1E+10	1	-1E+10	1
4902549	110	C	08/31/2023	06:08	-132.711	47.741	0	1245.60	0	2.7350	0	34.4350	0	27.465	0	1231.490	0	9.6	4	2.9	4	-1E+10	1	-1E+10	1	-1E+10	1	-1E+10	1	-1E+10	1	-1E+10	1
4902549	110	C	08/31/2023	06:08	-132.711	47.741	0	1255.60	0	2.7250	0	34.4380	0	27.469	0	1241.347	0	9.8	4	3.0	4	-1E+10	1	-1E+10	1	-1E+10	1	-1E+10	1	-1E+10	1	-1E+10	1
4902549	110	C	08/31/2023	06:08	-132.711	47.741	0	1265.60	0	2.7050	0	34.4410	0	27.473	0	1251.204	0	10.2	4	3.1	4	-1E+10	1	-1E+10	1	-1E+10	1	-1E+10	1	-1E+10	1	-1E+10	1
4902549	110	C	08/31/2023	06:08	-132.711	47.741	0	1275.50	0	2.6830	0	34.4460	0	27.479	0	1260.961	0	10.6	4	3.2	4	-1E+10	1	-1E+10	1	-1E+10	1	-1E+10	1	-1E+10	1	-1E+10	1
4902549	110	C	08/31/2023	06:08	-132.711	47.741	0	1285.40	0	2.6730	0	34.4480	0	27.481	0	1270.719	0	10.9	4	3.3	4	-1E+10	1	-1E+10	1	-1E+10	1	-1E+10	1	-1E+10	1	-1E+10	1
4902549	110	C	08/31/2023	06:08	-132.711	47.741	0	1295.20	0	2.6540	0	34.4520	0	27.486	0	1280.377	0	11.3	4	3.5	4	-1E+10	1	-1E+10	1	-1E+10	1	-1E+10	1	-1E+10	1	-1E+10	1
4902549	110	C	08/31/2023	06:08	-132.711	47.741	0	1305.20	0	2.6340	0	34.4550	0	27.490	0	1290.232	0	11.7	4	3.6	4	-1E+10	1	-1E+10	1	-1E+10	1	-1E+10	1	-1E+10	1	-1E+10	1
4902549	110	C	08/31/2023	06:08	-132.711	47.741	0	1315.10	0	2.6180	0	34.4590	0	27.495	0	1299.988	0	12.2	4	3.7	4	-1E+10	1	-1E+10	1	-1E+10	1	-1E+10	1	-1E+10	1	-1E+10	1
4902549	110	C	08/31/2023	06:08	-132.711	47.741	0	1325.40	0	2.6110	0	34.4620	0	27.498	0	1310.138	0	12.8	4	3.9	4	-1E+10	1	-1E+10	1	-1E+10	1	-1E+10	1	-1E+10	1	-1E+10	1
4902549	110	C	08/31/2023	06:08	-132.711	47.741	0	1335.60	0	2.6060	0	34.4670	0	27.502	0	1320.188	0	13.3	4	4.1	4	-1E+10	1	-1E+10	1	-1E+10	1	-1E+10	1	-1E+10	1	-1E+10	1
4902549	110	C	08/31/2023	06:08	-132.711	47.741	0	1345.50	0	2.5880	0	34.4690	0	27.506	0	1329.943	0	13.8	4	4.2	4	-1E+10	1	-1E+10	1	-1E+10	1	-1E+10	1	-1E+10	1	-1E+10	1
4902549	110	C	08/31/2023	06:08	-132.711	47.741	0	1355.70	0	2.5650	0	34.4730	0	27.511	0	1339.992	0	14.3	4	4.4	4	-1E+10	1	-1E+10	1	-1E+10	1	-1E+10	1	-1E+10	1	-1E+10	1
4902549	110	C	08/31/2023	06:08	-132.711	47.741	0	1365.80	0	2.5570	0	34.4750	0	27.513	0	1349.943	0	15.1	4	4.6	4	-1E+10	1	-1E+10	1	-1E+10	1	-1E+10	1	-1E+10	1	-1E+10	1
4902549	110	C	08/31/2023	06:08	-132.711	47.741	0	1375.60	0	2.5460	0	34.4800	0	27.518	0	1359.598	0	16.1	4	4.9	4	-1E+10	1	-1E+10	1	-1E+10	1	-1E+10	1	-1E+10	1	-1E+10	1
4902549	110	C	08/31/2023	06:08	-132.711	47.741	0	1385.40	0	2.5400	0	34.4870	0	27.524	0	1369.252	0	17.2	4	5.2	4	-1E+10	1	-1E+10	1	-1E+10	1	-1E+10	1	-1E+10	1	-1E+10	1
4902549	110	C	08/31/2023	06:08	-132.711	47.741	0	1395.00	0	2.5260	0	34.4900	0	27.528	0	1378.709	0	17.9	4	5.5	4	-1E+10	1	-1E+10	1	-1E+10	1	-1E+10	1	-1E+10	1	-1E+10	1
4902549	110	C	08/31/2023	06:08	-132.711	47.741	0	1405.40	0	2.5200	0	34.4930	0	27.531	0	1388.953	0	18.4	4	5.6	4	-1E+10	1	-1E+10	1	-1E+10	1	-1E+10	1	-1E+10	1	-1E+10	1
4902549	110	C	08/31/2023	06:08	-132.711	47.741	0	1415.90	0	2.5170	0	34.4950	0	27.533	0	1399.295	0	19.0	4	5.8	4	-1E+10	1	-1E+10	1	-1E+10	1	-1E+10	1	-1E+10	1	-1E+10	1
4902549	110	C	08/31/2023	06:08	-132.711	47.741	0	1425.40	0	2.5160	0	34.4980	0	27.535	0	1408.652	0	19.6	4	6.0	4	-1E+10	1	-1E+10	1	-1E+10	1	-1E+10	1	-1E+10	1	-1E+10	1
4902549	110	C	08/31/2023	06:08	-132.711	47.741	0	1435.40	0	2.4970	0	34.5010	0	27.539	0	1418.501	0	19.8	4	6.0	4	-1E+10	1	-1E+10	1	-1E+10	1	-1E+10	1	-1E+10	1	-1E+10	1
4902549	110	C	08/31/2023	06:08	-132.711	47.741	0	1445.40	0	2.4880	0	34.5010	0	27.540	0	1428.350	0	19.9	4	6.1	4	-1E+10	1	-1E+10	1	-1E+10	1	-1E+10	1	-1E+10	1	-1E+10	1
4902549	110	C	08/31/2023	06:08	-132.711	47.741	0	1455.10	0	2.4770	0	34.5010	0	27.541	0	1437.902	0	20.2	4	6.2	4	-1E+10	1	-1E+10	1	-1E+10	1	-1E+10	1	-1E+10	1	-1E+10	1
4902549	110	C	08/31/2023	06:08	-132.711	47.741	0	1465.50	0	2.4620	0	34.5030	0	27.544	0	1448.144	0	20.7	4	6.3	4	-1E+10	1	-1E+10	1	-1E+10	1	-1E+10	1	-1E+10	1	-1E+10	1
4902549	110	C	08/31/2023	06:08	-132.711	47.741	0	1475.90	0	2.4580	0	34.5060	0	27.547	0	1458.385	0	21.4	4	6.5	4	-1E+10	1	-1E+10	1	-1E+10	1	-1E+10	1	-1E+10	1	-1E+10	1
4902549	110	C	08/31/2023	06:08	-132.711	47.741	0	1485.70	0	2.4420	0	34.5070	0	27.549	0	1468.034	0	21.7	4	6.6	4	-1E+10	1	-1E+10	1	-1E+10	1	-1E+10	1	-1E+10	1	-1E+10	1
4902549	110	C	08/31/2023	06:08	-132.711	47.741	0	1495.60	0	2.4280	0	34.5080	0	27.551	0	1477.782	0	21.9	4	6.7	4	-1E+10	1	-1E+10	1	-1E+10	1	-1E+10	1	-1E+10	1	-1E+10	1
4902549	110	C	08/31/2023	06:08	-132.711	47.741	0	1505.30	0	2.3990	0	34.5090	0	27.554	0	1487.332	0	22.4	4	6.8	4	-1E+10	1	-1E+10	1	-1E+10	1	-1E+10	1	-1E+10	1	-1E+10	1
4902549	110	C	08/31/2023	06:08	-132.711	47.741	0	1515.20	0	2.3680	0	34.5110	0	27.558	0	1497.079	0	23.1	4	7.0	4	-1E+10	1	-1E+10	1	-1E+10	1	-1E+10	1	-1E+10	1	-1E+10	1
4902549	110	C	08/31/2023	06:08	-132.711	47.741	0	1525.50	0	2.3500	0	34.5140	0	27.562	0	1507.219	0	23.8	4	7.2	4	-1E+10	1	-1E+10	1	-1E+10	1	-1E+10	1	-1E+10	1	-1E+10	1
4902549	110	C	08/31/2023	06:08	-132.711	47.741	0	1535.50	0	2.3360	0	34.5160	0	27.565	0	1517.064	0	24.3	4	7.4	4	-1E+10	1	-1E+10	1	-1E+10	1	-1E+10	1	-1E+10	1	-1E+10	1
4902549	110	C	08/31/2023	06:08	-132.711	47.741	0	1545.40	0	2.3130	0	34.5170	0	27.568	0	1526.809	0	24.7	4	7.5	4	-1E+10	1	-1E+10	1	-1E+10	1	-1E+10	1	-1E+10	1	-1E+10	1
4902549	110	C	08/31/2023	06:08	-132.711	47.741	0	1555.20	0	2.3090	0	34.5190	0	27.570	0	1536.455	0	25.3	4	7.7	4	-1E+10	1	-1E+10	1	-1E+10	1	-1E+10	1	-1E+10	1	-1E+10	1
4902549	110	C	08/31/2023	06:08	-132.711	47.741	0	1565.40	0	2.3050	0	34.5210	0	27.572	0	1546.495	0	26.0	4	7.9	4	-1E+10	1	-1E+10	1	-1E+10	1	-1E+10	1	-1E+10	1	-1E+10	1
4902549	110	C	08/31/2023	06:08	-132.711	47.741	0	1575.80	0	2.2880	0	34.5230	0	27.575	0	1556.731	0	26.3	4	8.0	4	-1E+10	1	-1E+10	1	-1E+10	1	-1E+10	1	-1E+10	1	-1E+10	1
4902549	110	C	08/31/2023	06:08	-132.711	47.741	0	1585.40	0	2.2720	0	34.5240	0	27.577	0	1566.180	0	26.6	4	8.1	4	-1E+10	1	-1E+10	1	-1E+10	1	-1E+10	1	-1E+10	1	-1E+10	1
4902549	110	C	08/31/2023	06:08	-132.711	47.741	0	1595.30	0	2.2650	0	34.5250	0	27.579	0	1575.923	0	27.3	4	8.3	4	-1E+10	1	-1E+10	1	-1E+10	1	-1E+10	1	-1E+10	1	-1E+10	1
4902549	110	C	08/31/2023	06:08	-132.711	47.741	0	1605.20	0	2.2550	0	34.5270	0	27.581	0	1585.666	0	27.9	4	8.5	4	-1E+10	1	-1E+10	1	-1E+10	1	-1E+10	1	-1E+10	1	-1E+10	1
4902549	110	C	08/31/2023	06:08	-132.711	47.741	0	1615.10	0	2.2460	0	34.5290	0	27.583	0	1595.408	0	28.6	4	8.7	4	-1E+10	1	-1E+10	1	-1E+10	1	-1E+10	1	-1E+10	1	-1E+10	1
4902549	110	C	08/31/2023	06:08	-132.711	47.741	0	1625.20	0	2.2400	0	34.5310	0	27.585	0	1605.346	0	29.2	4	8.9	4	-1E+10	1	-1E+10	1	-1E+10	1	-1E+10	1	-1E+10	1	-1E+10	1
4902549	110	C	08/31/2023	06:08	-132.711	47.741	0	1635.60	0	2.2340	0	34.5320	0	27.587	0	1615.580	0	29.8	4	9.0	4	-1E+10	1	-1E+10	1	-1E+10	1	-1E+10	1	-1E+10	1	-1E+10	1
4902549	110	C	08/31/2023	06:08	-132.711	47.741	0	1645.70	0	2.2250	0	34.5350	0	27.590	0	1625.517	0	30.6	4	9.3	4	-1E+10	1	-1E+10	1	-1E+10	1	-1E+10	1	-1E+10	1	-1E+10	1
4902549	110	C	08/31/2023	06:08	-132.711	47.741	0	1655.30	0	2.2170	0	34.5370	0	27.592	0	1634.963	0	31.1	4	9.4	4	-1E+10	1	-1E+10	1	-1E+10	1	-1E+10	1	-1E+10	1	-1E+10	1
4902549	110	C	08/31/2023	06:08	-132.711	47.741	0	1665.30	0	2.2080	0	34.5380	0	27.594	0	1644.801	0	31.6	4	9.6	4	-1E+10	1	-1E+10	1	-1E+10	1	-1E+10	1	-1E+10	1	-1E+10	1
4902549	110	C	08/31/2023	06:08	-132.711	47.741	0	1675.70	0	2.1980	0	34.5390	0	27.596	0	1655.032	0	32.4	4	9.8	4	-1E+10	1	-1E+10	1	-1E+10	1	-1E+10	1	-1E+10	1	-1E+10	1
4902549	110	C	08/31/2023	06:08	-132.711	47.741	0	1685.50	0	2.1830	0	34.5420	0	27.599	0	1664.673	0	33.2	4	10.0	4	-1E+10	1	-1E+10	1	-1E+10	1	-1E+10	1	-1E+10	1	-1E+10	1
4902549	110	C	08/31/2023	06:08	-132.711	47.741	0	1695.20	0	2.1740	0	34.5440	0	27.602	0	1674.215	0	34.0	4	10.3	4	-1E+10	1	-1E+10	1	-1E+10	1	-1E+10	1	-1E+10	1	-1E+10	1
4902549	110	C	08/31/2023	06:08	-132.711	47.741	0	1705.30	0	2.1580	0	34.5460	0	27.605	0	1684.150	0	34.8	4	10.5	4	-1E+10	1	-1E+10	1	-1E+10	1	-1E+10	1	-1E+10	1	-1E+10	1
4902549	110	C	08/31/2023	06:08	-132.711	47.741	0	1715.40	0	2.1450	0	34.5480	0	27.607	0	1694.084	0	35.5	4	10.7	4	-1E+10	1	-1E+10	1	-1E+10	1	-1E+10	1	-1E+10	1	-1E+10	1
4902549	110	C	08/31/2023	06:08	-132.711	47.741	0	1725.50	0	2.1310	0	34.5500	0	27.610	0	1704.018	0	36.1	4	10.9	4	-1E+10	1	-1E+10	1	-1E+10	1	-1E+10	1	-1E+10	1	-1E+10	1
4902549	110	C	08/31/2023	06:08	-132.711	47.741	0	1735.70	0	2.1210	0	34.5510	0	27.612	0	1714.050	0	36.5	4	11.0	4	-1E+10	1	-1E+10	1	-1E+10	1	-1E+10	1	-1E+10	1	-1E+10	1
4902549	110	C	08/31/2023	06:08	-132.711	47.741	0	1745.50	0	2.1120	0	34.5520	0	27.613	0	1723.688	0	37.1	4	11.2	4	-1E+10	1	-1E+10	1	-1E+10	1	-1E+10	1	-1E+10	1	-1E+10	1
4902549	110	C	08/31/2023	06:08	-132.711	47.741	0	1755.40	0	2.0980	0	34.5540	0	27.616	0	1733.424	0	37.8	4	11.4	4	-1E+10	1	-1E+10	1	-1E+10	1	-1E+10	1	-1E+10	1	-1E+10	1
4902549	110	C	08/31/2023	06:08	-132.711	47.741	0	1765.40	0	2.0870	0	34.5560	0	27.618	0	1743.258	0	38.4	4	11.6	4	-1E+10	1	-1E+10	1	-1E+10	1	-1E+10	1	-1E+10	1	-1E+10	1
4902549	110	C	08/31/2023	06:08	-132.711	47.741	0	1775.10	0	2.0830	0	34.5570	0	27.620	0	1752.796	0	38.9	4	11.7	4	-1E+10	1	-1E+10	1	-1E+10	1	-1E+10	1	-1E+10	1	-1E+10	1
4902549	110	C	08/31/2023	06:08	-132.711	47.741	0	1785.00	0	2.0760	0	34.5580	0	27.621	0	1762.531	0	39.2	4	11.8	4	-1E+10	1	-1E+10	1	-1E+10	1	-1E+10	1	-1E+10	1	-1E+10	1
4902549	110	C	08/31/2023	06:08	-132.711	47.741	0	1795.40	0	2.0720	0	34.5590	0	27.622	0	1772.756	0	39.5	4	11.9	4	-1E+10	1	-1E+10	1	-1E+10	1	-1E+10	1	-1E+10	1	-1E+10	1
4902549	110	C	08/31/2023	06:08	-132.711	47.741	0	1805.90	0	2.0700	0	34.5590	0	27.622	0	1783.080	0	39.9	4	12.0	4	-1E+10	1	-1E+10	1	-1E+10	1	-1E+10	1	-1E+10	1	-1E+10	1
4902549	110	C	08/31/2023	06:08	-132.711	47.741	0	1815.40	0	2.0670	0	34.5600	0	27.624	0	1792.420	0	40.3	4	12.2	4	-1E+10	1	-1E+10	1	-1E+10	1	-1E+10	1	-1E+10	1	-1E+10	1
4902549	110	C	08/31/2023	06:08	-132.711	47.741	0	1825.30	0	2.0590	0	34.5610	0	27.625	0	1802.152	0	41.0	4	12.4	4	-1E+10	1	-1E+10	1	-1E+10	1	-1E+10	1	-1E+10	1	-1E+10	1
4902549	110	C	08/31/2023	06:08	-132.711	47.741	0	1835.50	0	2.0490	0	34.5630	0	27.627	0	1812.180	0	41.7	4	12.6	4	-1E+10	1	-1E+10	1	-1E+10	1	-1E+10	1	-1E+10	1	-1E+10	1
4902549	110	C	08/31/2023	06:08	-132.711	47.741	0	1845.60	0	2.0430	0	34.5640	0	27.629	0	1822.108	0	42.2	4	12.7	4	-1E+10	1	-1E+10	1	-1E+10	1	-1E+10	1	-1E+10	1	-1E+10	1
4902549	110	C	08/31/2023	06:08	-132.711	47.741	0	1855.90	0	2.0350	0	34.5660	0	27.631	0	1832.233	0	42.8	4	12.9	4	-1E+10	1	-1E+10	1	-1E+10	1	-1E+10	1	-1E+10	1	-1E+10	1
4902549	110	C	08/31/2023	06:08	-132.711	47.741	0	1865.70	0	2.0280	0	34.5670	0	27.632	0	1841.865	0	43.2	4	13.0	4	-1E+10	1	-1E+10	1	-1E+10	1	-1E+10	1	-1E+10	1	-1E+10	1
4902549	110	C	08/31/2023	06:08	-132.711	47.741	0	1875.60	0	2.0270	0	34.5680	0	27.633	0	1851.596	0	43.6	4	13.1	4	-1E+10	1	-1E+10	1	-1E+10	1	-1E+10	1	-1E+10	1	-1E+10	1
4902549	110	C	08/31/2023	06:08	-132.711	47.741	0	1885.40	0	2.0170	0	34.5690	0	27.635	0	1861.227	0	44.2	4	13.3	4	-1E+10	1	-1E+10	1	-1E+10	1	-1E+10	1	-1E+10	1	-1E+10	1
4902549	110	C	08/31/2023	06:08	-132.711	47.741	0	1895.30	0	2.0120	0	34.5700	0	27.636	0	1870.957	0	44.8	4	13.5	4	-1E+10	1	-1E+10	1	-1E+10	1	-1E+10	1	-1E+10	1	-1E+10	1
4902549	110	C	08/31/2023	06:08	-132.711	47.741	0	1905.40	0	2.0030	0	34.5720	0	27.639	0	1880.883	0	45.4	4	13.7	4	-1E+10	1	-1E+10	1	-1E+10	1	-1E+10	1	-1E+10	1	-1E+10	1
4902549	110	C	08/31/2023	06:08	-132.711	47.741	0	1915.50	0	1.9960	0	34.5730	0	27.640	0	1890.808	0	46.1	4	13.9	4	-1E+10	1	-1E+10	1	-1E+10	1	-1E+10	1	-1E+10	1	-1E+10	1
4902549	110	C	08/31/2023	06:08	-132.711	47.741	0	1925.70	0	1.9880	0	34.5750	0	27.642	0	1900.831	0	47.0	4	14.2	4	-1E+10	1	-1E+10	1	-1E+10	1	-1E+10	1	-1E+10	1	-1E+10	1
4902549	110	C	08/31/2023	06:08	-132.711	47.741	0	1935.40	0	1.9770	0	34.5760	0	27.644	0	1910.362	0	47.8	4	14.4	4	-1E+10	1	-1E+10	1	-1E+10	1	-1E+10	1	-1E+10	1	-1E+10	1
4902549	110	C	08/31/2023	06:08	-132.711	47.741	0	1945.10	0	1.9690	0	34.5780	0	27.646	0	1919.893	0	48.5	4	14.6	4	-1E+10	1	-1E+10	1	-1E+10	1	-1E+10	1	-1E+10	1	-1E+10	1
4902549	110	C	08/31/2023	06:08	-132.711	47.741	0	1955.10	0	1.9590	0	34.5800	0	27.649	0	1929.718	0	49.1	4	14.8	4	-1E+10	1	-1E+10	1	-1E+10	1	-1E+10	1	-1E+10	1	-1E+10	1
4902549	110	C	08/31/2023	06:08	-132.711	47.741	0	1965.30	0	1.9500	0	34.5810	0	27.650	0	1939.739	0	49.8	4	15.0	4	-1E+10	1	-1E+10	1	-1E+10	1	-1E+10	1	-1E+10	1	-1E+10	1
4902549	110	C	08/31/2023	06:08	-132.711	47.741	0	1975.30	0	1.9430	0	34.5830	0	27.652	0	1949.563	0	50.1	4	15.1	4	-1E+10	1	-1E+10	1	-1E+10	1	-1E+10	1	-1E+10	1	-1E+10	1
4902549	110	C	08/31/2023	06:08	-132.711	47.741	0	1982.60	0	1.9400	0	34.5840	0	27.654	0	1956.735	0	50.2	4	15.1	4	-1E+10	1	-1E+10	1	-1E+10	1	-1E+10	1	-1E+10	1	-1E+10	1
4902549	110	C	08/31/2023	06:08	-132.711	47.741	0																										
4902549	111	C	09/10/2023	11:06	-132.874	47.748	0	0.00	0	17.4860	0	32.4020	0	23.408	0	0.000	0	240.7	4	100.1	4	-1E+10	1	-1E+10	1	-1E+10	1	-1E+10	1	-1E+10	1	-1E+10	1
4902549	111	C	09/10/2023	11:06	-132.874	47.748	0	0.10	0	17.4940	0	32.3960	0	23.401	0	0.099	0	235.4	4	97.9	4	-1E+10	1	-1E+10	1	-1E+10	1	-1E+10	1	-1E+10	1	-1E+10	1
4902549	111	C	09/10/2023	11:06	-132.874	47.748	0	0.80	0	17.4940	0	32.4030	0	23.407	0	0.793	0	235.5	4	98.0	4	-1E+10	1	-1E+10	1	-1E+10	1	-1E+10	1	-1E+10	1	-1E+10	1
4902549	111	C	09/10/2023	11:06	-132.874	47.748	0	1.90	0	17.4950	0	32.4080	0	23.410	0	1.884	0	235.5	4	98.0	4	-1E+10	1	-1E+10	1	-1E+10	1	-1E+10	1	-1E+10	1	-1E+10	1
4902549	111	C	09/10/2023	11:06	-132.874	47.748	0	2.80	0	17.4960	0	32.4090	0	23.411	0	2.777	0	235.5	4	98.0	4	-1E+10	1	-1E+10	1	-1E+10	1	-1E+10	1	-1E+10	1	-1E+10	1
4902549	111	C	09/10/2023	11:06	-132.874	47.748	0	3.70	0	17.4960	0	32.4110	0	23.412	0	3.669	0	235.5	4	98.0	4	-1E+10	1	-1E+10	1	-1E+10	1	-1E+10	1	-1E+10	1	-1E+10	1
4902549	111	C	09/10/2023	11:06	-132.874	47.748	0	4.80	0	17.4950	0	32.4120	0	23.413	0	4.760	0	235.5	4	98.0	4	-1E+10	1	-1E+10	1	-1E+10	1	-1E+10	1	-1E+10	1	-1E+10	1
4902549	111	C	09/10/2023	11:06	-132.874	47.748	0	5.90	0	17.4970	0	32.4130	0	23.414	0	5.851	0	235.6	4	98.0	4	-1E+10	1	-1E+10	1	-1E+10	1	-1E+10	1	-1E+10	1	-1E+10	1
4902549	111	C	09/10/2023	11:06	-132.874	47.748	0	6.90	0	17.4980	0	32.4140	0	23.414	0	6.842	0	235.7	4	98.1	4	-1E+10	1	-1E+10	1	-1E+10	1	-1E+10	1	-1E+10	1	-1E+10	1
4902549	111	C	09/10/2023	11:06	-132.874	47.748	0	8.00	0	17.4990	0	32.4130	0	23.413	0	7.933	0	235.6	4	98.0	4	-1E+10	1	-1E+10	1	-1E+10	1	-1E+10	1	-1E+10	1	-1E+10	1
4902549	111	C	09/10/2023	11:06	-132.874	47.748	0	9.10	0	17.4990	0	32.4140	0	23.414	0	9.024	0	235.7	4	98.1	4	-1E+10	1	-1E+10	1	-1E+10	1	-1E+10	1	-1E+10	1	-1E+10	1
4902549	111	C	09/10/2023	11:06	-132.874	47.748	0	10.10	0	17.4980	0	32.4130	0	23.414	0	10.015	0	235.7	4	98.1	4	-1E+10	1	-1E+10	1	-1E+10	1	-1E+10	1	-1E+10	1	-1E+10	1
4902549	111	C	09/10/2023	11:06	-132.874	47.748	0	11.10	0	17.4980	0	32.4130	0	23.414	0	11.007	0	235.7	4	98.1	4	-1E+10	1	-1E+10	1	-1E+10	1	-1E+10	1	-1E+10	1	-1E+10	1
4902549	111	C	09/10/2023	11:06	-132.874	47.748	0	11.80	0	17.4980	0	32.4130	0	23.414	0	11.701	0	235.7	4	98.1	4	-1E+10	1	-1E+10	1	-1E+10	1	-1E+10	1	-1E+10	1	-1E+10	1
4902549	111	C	09/10/2023	11:06	-132.874	47.748	0	12.80	0	17.4980	0	32.4130	0	23.414	0	12.692	0	235.9	4	98.1	4	-1E+10	1	-1E+10	1	-1E+10	1	-1E+10	1	-1E+10	1	-1E+10	1
4902549	111	C	09/10/2023	11:06	-132.874	47.748	0	13.90	0	17.4970	0	32.4110	0	23.413	0	13.783	0	236.0	4	98.2	4	-1E+10	1	-1E+10	1	-1E+10	1	-1E+10	1	-1E+10	1	-1E+10	1
4902549	111	C	09/10/2023	11:06	-132.874	47.748	0	14.90	0	17.5000	0	32.4160	0	23.416	0	14.775	0	236.0	4	98.2	4	-1E+10	1	-1E+10	1	-1E+10	1	-1E+10	1	-1E+10	1	-1E+10	1
4902549	111	C	09/10/2023	11:06	-132.874	47.748	0	15.90	0	17.5030	0	32.4170	0	23.416	0	15.766	0	236.1	4	98.3	4	-1E+10	1	-1E+10	1	-1E+10	1	-1E+10	1	-1E+10	1	-1E+10	1
4902549	111	C	09/10/2023	11:06	-132.874	47.748	0	16.80	0	17.5020	0	32.4180	0	23.417	0	16.659	0	236.2	4	98.3	4	-1E+10	1	-1E+10	1	-1E+10	1	-1E+10	1	-1E+10	1	-1E+10	1
4902549	111	C	09/10/2023	11:06	-132.874	47.748	0	18.00	0	17.5020	0	32.4160	0	23.415	0	17.849	0	236.4	4	98.3	4	-1E+10	1	-1E+10	1	-1E+10	1	-1E+10	1	-1E+10	1	-1E+10	1
4902549	111	C	09/10/2023	11:06	-132.874	47.748	0	18.90	0	17.5060	0	32.4210	0	23.418	0	18.741	0	236.6	4	98.5	4	-1E+10	1	-1E+10	1	-1E+10	1	-1E+10	1	-1E+10	1	-1E+10	1
4902549	111	C	09/10/2023	11:06	-132.874	47.748	0	19.80	0	17.5050	0	32.4210	0	23.419	0	19.633	0	236.6	4	98.5	4	-1E+10	1	-1E+10	1	-1E+10	1	-1E+10	1	-1E+10	1	-1E+10	1
4902549	111	C	09/10/2023	11:06	-132.874	47.748	0	21.00	0	17.5020	0	32.4230	0	23.421	0	20.823	0	236.9	4	98.6	4	-1E+10	1	-1E+10	1	-1E+10	1	-1E+10	1	-1E+10	1	-1E+10	1
4902549	111	C	09/10/2023	11:06	-132.874	47.748	0	22.00	0	17.5050	0	32.4230	0	23.420	0	21.815	0	237.0	4	98.6	4	-1E+10	1	-1E+10	1	-1E+10	1	-1E+10	1	-1E+10	1	-1E+10	1
4902549	111	C	09/10/2023	11:06	-132.874	47.748	0	23.00	0	17.5030	0	32.4230	0	23.421	0	22.806	0	237.4	4	98.8	4	-1E+10	1	-1E+10	1	-1E+10	1	-1E+10	1	-1E+10	1	-1E+10	1
4902549	111	C	09/10/2023	11:06	-132.874	47.748	0	24.10	0	17.4970	0	32.4240	0	23.423	0	23.897	0	237.7	4	98.9	4	-1E+10	1	-1E+10	1	-1E+10	1	-1E+10	1	-1E+10	1	-1E+10	1
4902549	111	C	09/10/2023	11:06	-132.874	47.748	0	25.30	0	17.4760	0	32.4280	0	23.431	0	25.087	0	238.4	4	99.2	4	-1E+10	1	-1E+10	1	-1E+10	1	-1E+10	1	-1E+10	1	-1E+10	1
4902549	111	C	09/10/2023	11:06	-132.874	47.748	0	26.20	0	17.4240	0	32.4260	0	23.442	0	25.979	0	239.1	4	99.3	4	-1E+10	1	-1E+10	1	-1E+10	1	-1E+10	1	-1E+10	1	-1E+10	1
4902549	111	C	09/10/2023	11:06	-132.874	47.748	0	26.80	0	17.3720	0	32.4370	0	23.463	0	26.574	0	239.5	4	99.4	4	-1E+10	1	-1E+10	1	-1E+10	1	-1E+10	1	-1E+10	1	-1E+10	1
4902549	111	C	09/10/2023	11:06	-132.874	47.748	0	28.10	0	17.4040	0	32.4220	0	23.444	0	27.863	0	243.1	4	101.0	4	-1E+10	1	-1E+10	1	-1E+10	1	-1E+10	1	-1E+10	1	-1E+10	1
4902549	111	C	09/10/2023	11:06	-132.874	47.748	0	29.00	0	16.7790	0	32.3860	0	23.562	0	28.755	0	259.2	4	106.4	4	-1E+10	1	-1E+10	1	-1E+10	1	-1E+10	1	-1E+10	1	-1E+10	1
4902549	111	C	09/10/2023	11:06	-132.874	47.748	0	29.90	0	15.0050	0	32.4110	0	23.977	0	29.648	0	271.9	4	107.8	4	-1E+10	1	-1E+10	1	-1E+10	1	-1E+10	1	-1E+10	1	-1E+10	1
4902549	111	C	09/10/2023	11:06	-132.874	47.748	0	31.00	0	14.4140	0	32.4200	0	24.110	0	30.738	0	276.8	4	108.5	4	-1E+10	1	-1E+10	1	-1E+10	1	-1E+10	1	-1E+10	1	-1E+10	1
4902549	111	C	09/10/2023	11:06	-132.874	47.748	0	32.20	0	13.9750	0	32.4080	0	24.192	0	31.928	0	279.8	4	108.7	4	-1E+10	1	-1E+10	1	-1E+10	1	-1E+10	1	-1E+10	1	-1E+10	1
4902549	111	C	09/10/2023	11:06	-132.874	47.748	0	32.80	0	13.7630	0	32.4080	0	24.235	0	32.523	0	280.5	4	108.5	4	-1E+10	1	-1E+10	1	-1E+10	1	-1E+10	1	-1E+10	1	-1E+10	1
4902549	111	C	09/10/2023	11:06	-132.874	47.748	0	34.00	0	13.3100	0	32.3980	0	24.318	0	33.713	0	282.2	4	108.1	4	-1E+10	1	-1E+10	1	-1E+10	1	-1E+10	1	-1E+10	1	-1E+10	1
4902549	111	C	09/10/2023	11:06	-132.874	47.748	0	34.80	0	12.4070	0	32.4170	0	24.508	0	34.506	0	287.4	4	108.1	4	-1E+10	1	-1E+10	1	-1E+10	1	-1E+10	1	-1E+10	1	-1E+10	1
4902549	111	C	09/10/2023	11:06	-132.874	47.748	0	36.00	0	11.4360	0	32.4190	0	24.690	0	35.696	0	289.9	4	106.9	4	-1E+10	1	-1E+10	1	-1E+10	1	-1E+10	1	-1E+10	1	-1E+10	1
4902549	111	C	09/10/2023	11:06	-132.874	47.748	0	37.00	0	10.8100	0	32.4210	0	24.802	0	36.687	0	289.6	4	105.4	4	-1E+10	1	-1E+10	1	-1E+10	1	-1E+10	1	-1E+10	1	-1E+10	1
4902549	111	C	09/10/2023	11:06	-132.874	47.748	0	38.00	0	10.3840	0	32.4220	0	24.876	0	37.679	0	290.6	4	104.7	4	-1E+10	1	-1E+10	1	-1E+10	1	-1E+10	1	-1E+10	1	-1E+10	1
4902549	111	C	09/10/2023	11:06	-132.874	47.748	0	38.90	0	10.1690	0	32.4250	0	24.915	0	38.571	0	290.0	4	104.0	4	-1E+10	1	-1E+10	1	-1E+10	1	-1E+10	1	-1E+10	1	-1E+10	1
4902549	111	C	09/10/2023	11:06	-132.874	47.748	0	40.00	0	10.1140	0	32.4240	0	24.923	0	39.661	0	288.6	4	103.4	4	-1E+10	1	-1E+10	1	-1E+10	1	-1E+10	1	-1E+10	1	-1E+10	1
4902549	111	C	09/10/2023	11:06	-132.874	47.748	0	40.80	0	10.0550	0	32.4240	0	24.933	0	40.455	0	287.5	4	102.9	4	-1E+10	1	-1E+10	1	-1E+10	1	-1E+10	1	-1E+10	1	-1E+10	1
4902549	111	C	09/10/2023	11:06	-132.874	47.748	0	41.90	0	9.9680	0	32.4200	0	24.944	0	41.545	0	286.3	4	102.3	4	-1E+10	1	-1E+10	1	-1E+10	1	-1E+10	1	-1E+10	1	-1E+10	1
4902549	111	C	09/10/2023	11:06	-132.874	47.748	0	43.00	0	9.7360	0	32.4230	0	24.985	0	42.636	0	285.8	4	101.6	4	-1E+10	1	-1E+10	1	-1E+10	1	-1E+10	1	-1E+10	1	-1E+10	1
4902549	111	C	09/10/2023	11:06	-132.874	47.748	0	44.20	0	9.5080	0	32.4280	0	25.026	0	43.825	0	285.6	4	101.0	4	-1E+10	1	-1E+10	1	-1E+10	1	-1E+10	1	-1E+10	1	-1E+10	1
4902549	111	C	09/10/2023	11:06	-132.874	47.748	0	44.80	0	9.4700	0	32.4280	0	25.032	0	44.420	0	284.8	4	100.7	4	-1E+10	1	-1E+10	1	-1E+10	1	-1E+10	1	-1E+10	1	-1E+10	1
4902549	111	C	09/10/2023	11:06	-132.874	47.748	0	45.80	0	9.4170	0	32.4270	0	25.039	0	45.412	0	283.4	4	100.0	4	-1E+10	1	-1E+10	1	-1E+10	1	-1E+10	1	-1E+10	1	-1E+10	1
4902549	111	C	09/10/2023	11:06	-132.874	47.748	0	47.00	0	9.3740	0	32.4280	0	25.047	0	46.601	0	281.7	4	99.4	4	-1E+10	1	-1E+10	1	-1E+10	1	-1E+10	1	-1E+10	1	-1E+10	1
4902549	111	C	09/10/2023	11:06	-132.874	47.748	0	48.20	0	9.2270	0	32.4310	0	25.073	0	47.791	0	280.5	4	98.6	4	-1E+10	1	-1E+10	1	-1E+10	1	-1E+10	1	-1E+10	1	-1E+10	1
4902549	111	C	09/10/2023	11:06	-132.874	47.748	0	48.80	0	9.1680	0	32.4290	0	25.080	0	48.386	0	279.8	4	98.2	4	-1E+10	1	-1E+10	1	-1E+10	1	-1E+10	1	-1E+10	1	-1E+10	1
4902549	111	C	09/10/2023	11:06	-132.874	47.748	0	49.80	0	9.1180	0	32.4260	0	25.086	0	49.377	0	278.4	4	97.6	4	-1E+10	1	-1E+10	1	-1E+10	1	-1E+10	1	-1E+10	1	-1E+10	1
4902549	111	C	09/10/2023	11:06	-132.874	47.748	0	50.80	0	8.8700	0	32.4410	0	25.136	0	50.369	0	278.4	4	97.1	4	-1E+10	1	-1E+10	1	-1E+10	1	-1E+10	1	-1E+10	1	-1E+10	1
4902549	111	C	09/10/2023	11:06	-132.874	47.748	0	51.80	0	8.7710	0	32.4390	0	25.150	0	51.360	0	278.1	4	96.8	4	-1E+10	1	-1E+10	1	-1E+10	1	-1E+10	1	-1E+10	1	-1E+10	1
4902549	111	C	09/10/2023	11:06	-132.874	47.748	0	52.80	0	8.7420	0	32.4390	0	25.154	0	52.351	0	277.3	4	96.5	4	-1E+10	1	-1E+10	1	-1E+10	1	-1E+10	1	-1E+10	1	-1E+10	1
4902549	111	C	09/10/2023	11:06	-132.874	47.748	0	53.80	0	8.7300	0	32.4380	0	25.155	0	53.343	0	276.3	4	96.1	4	-1E+10	1	-1E+10	1	-1E+10	1	-1E+10	1	-1E+10	1	-1E+10	1
4902549	111	C	09/10/2023	11:06	-132.874	47.748	0	54.80	0	8.7290	0	32.4370	0	25.155	0	54.334	0	275.1	4	95.6	4	-1E+10	1	-1E+10	1	-1E+10	1	-1E+10	1	-1E+10	1	-1E+10	1
4902549	111	C	09/10/2023	11:06	-132.874	47.748	0	55.80	0	8.6600	0	32.4400	0	25.167	0	55.326	0	274.2	4	95.2	4	-1E+10	1	-1E+10	1	-1E+10	1	-1E+10	1	-1E+10	1	-1E+10	1
4902549	111	C	09/10/2023	11:06	-132.874	47.748	0	56.90	0	8.5710	0	32.4380	0	25.179	0	56.416	0	273.8	4	94.9	4	-1E+10	1	-1E+10	1	-1E+10	1	-1E+10	1	-1E+10	1	-1E+10	1
4902549	111	C	09/10/2023	11:06	-132.874	47.748	0	57.90	0	8.5080	0	32.4380	0	25.189	0	57.407	0	273.3	4	94.5	4	-1E+10	1	-1E+10	1	-1E+10	1	-1E+10	1	-1E+10	1	-1E+10	1
4902549	111	C	09/10/2023	11:06	-132.874	47.748	0	58.90	0	8.4880	0	32.4380	0	25.192	0	58.399	0	272.5	4	94.2	4	-1E+10	1	-1E+10	1	-1E+10	1	-1E+10	1	-1E+10	1	-1E+10	1
4902549	111	C	09/10/2023	11:06	-132.874	47.748	0	59.90	0	8.4710	0	32.4370	0	25.193	0	59.390	0	271.5	4	93.9	4	-1E+10	1	-1E+10	1	-1E+10	1	-1E+10	1	-1E+10	1	-1E+10	1
4902549	111	C	09/10/2023	11:06	-132.874	47.748	0	61.00	0	8.4190	0	32.4360	0	25.200	0	60.481	0	270.8	4	93.5	4	-1E+10	1	-1E+10	1	-1E+10	1	-1E+10	1	-1E+10	1	-1E+10	1
4902549	111	C	09/10/2023	11:06	-132.874	47.748	0	62.00	0	8.3180	0	32.4390	0	25.218	0	61.472	0	271.0	4	93.4	4	-1E+10	1	-1E+10	1	-1E+10	1	-1E+10	1	-1E+10	1	-1E+10	1
4902549	111	C	09/10/2023	11:06	-132.874	47.748	0	63.00	0	8.2830	0	32.4390	0	25.223	0	62.463	0	270.9	4	93.3	4	-1E+10	1	-1E+10	1	-1E+10	1	-1E+10	1	-1E+10	1	-1E+10	1
4902549	111	C	09/10/2023	11:06	-132.874	47.748	0	64.00	0	8.2750	0	32.4380	0	25.223	0	63.455	0	270.6	4	93.2	4	-1E+10	1	-1E+10	1	-1E+10	1	-1E+10	1	-1E+10	1	-1E+10	1
4902549	111	C	09/10/2023	11:06	-132.874	47.748	0	65.00	0	8.2580	0	32.4400	0	25.227	0	64.446	0	270.3	4	93.0	4	-1E+10	1	-1E+10	1	-1E+10	1	-1E+10	1	-1E+10	1	-1E+10	1
4902549	111	C	09/10/2023	11:06	-132.874	47.748	0	66.00	0	8.2450	0	32.4400	0	25.229	0	65.437	0	270.0	4	92.9	4	-1E+10	1	-1E+10	1	-1E+10	1	-1E+10	1	-1E+10	1	-1E+10	1
4902549	111	C	09/10/2023	11:06	-132.874	47.748	0	67.00	0	8.2450	0	32.4410	0	25.230	0	66.429	0	269.7	4	92.8	4	-1E+10	1	-1E+10	1	-1E+10	1	-1E+10	1	-1E+10	1	-1E+10	1
4902549	111	C	09/10/2023	11:06	-132.874	47.748	0	68.00	0	8.2440	0	32.4400	0	25.230	0	67.420	0	269.2	4	92.6	4	-1E+10	1	-1E+10	1	-1E+10	1	-1E+10	1	-1E+10	1	-1E+10	1
4902549	111	C	09/10/2023	11:06	-132.874	47.748	0	69.00	0	8.2320	0	32.4410	0	25.232	0	68.411	0	268.8	4	92.4	4	-1E+10	1	-1E+10	1	-1E+10	1	-1E+10	1	-1E+10	1	-1E+10	1
4902549	111	C	09/10/2023	11:06	-132.874	47.748	0	70.10	0	8.2180	0	32.4410	0	25.234	0	69.502	0	268.3	4	92.2	4	-1E+10	1	-1E+10	1	-1E+10	1	-1E+10	1	-1E+10	1	-1E+10	1
4902549	111	C	09/10/2023	11:06	-132.874	47.748	0	71.10	0	8.1980	0	32.4420	0	25.238	0	70.493	0	268.0	4	92.1	4	-1E+10	1	-1E+10	1	-1E+10	1	-1E+10	1	-1E+10	1	-1E+10	1
4902549	111	C	09/10/2023	11:06	-132.874	47.748	0	72.10	0	8.1850	0	32.4410	0	25.239	0	71.484	0	267.3	4	91.8	4	-1E+10	1	-1E+10	1	-1E+10	1	-1E+10	1	-1E+10	1	-1E+10	1
4902549	111	C	09/10/2023	11:06	-132.874	47.748	0	73.30	0	8.1520	0	32.4440	0	25.246	0	72.674	0	266.6	4	91.5	4	-1E+10	1	-1E+10	1	-1E+10	1	-1E+10	1	-1E+10	1	-1E+10	1
4902549	111	C	09/10/2023	11:06	-132.874	47.748	0	74.00	0	8.1280	0	32.4440	0	25.250	0	73.368	0	266.4	4	91.4	4	-1E+10	1	-1E+10	1	-1E+10	1	-1E+10	1	-1E+10	1	-1E+10	1
4902549	111	C	09/10/2023	11:06	-132.874	47.748	0	75.00	0	8.1170	0	32.4450	0	25.252	0	74.359	0	266.0	4	91.2	4	-1E+10	1	-1E+10	1	-1E+10	1	-1E+10	1	-1E+10	1	-1E+10	1
4902549	111	C	09/10/2023	11:06	-132.874	47.748	0	76.00	0	8.0960	0	32.4520	0	25.261	0	75.350	0	265.8	4	91.1	4	-1E+10	1	-1E+10	1	-1E+10	1	-1E+10	1	-1E+10	1	-1E+10	1
4902549	111	C	09/10/2023	11:06	-132.874	47.748	0	76.90	0	8.0540	0	32.4540	0	25.268	0	76.242	0	265.8	4	91.1	4	-1E+10	1	-1E+10	1	-1E+10	1	-1E+10	1	-1E+10	1	-1E+10	1
4902549	111	C	09/10/2023	11:06	-132.874	47.748	0	77.90	0	8.0150	0	32.4530	0	25.273	0	77.234	0	265.8	4	91.0	4	-1E+10	1	-1E+10	1	-1E+10	1	-1E+10	1	-1E+10	1	-1E+10	1
4902549	111	C	09/10/2023	11:06	-132.874	47.748	0	78.90	0	8.0070	0	32.4520	0	25.274	0	78.225	0	265.7	4	90.9	4	-1E+10	1	-1E+10	1	-1E+10	1	-1E+10	1	-1E+10	1	-1E+10	1
4902549	111	C	09/10/2023	11:06	-132.874	47.748	0	79.90	0	7.9850	0	32.4520	0	25.277	0	79.216	0	265.5	4	90.8	4	-1E+10	1	-1E+10	1	-1E+10	1	-1E+10	1	-1E+10	1	-1E+10	1
4902549	111	C	09/10/2023	11:06	-132.874	47.748	0	80.90	0	7.9490	0	32.4550	0	25.284	0	80.207	0	265.3	4	90.7	4	-1E+10	1	-1E+10	1	-1E+10	1	-1E+10	1	-1E+10	1	-1E+10	1
4902549	111	C	09/10/2023	11:06	-132.874	47.748	0	81.90	0	7.9340	0	32.4550	0	25.287	0	81.198	0	264.9	4	90.5	4	-1E+10	1	-1E+10	1	-1E+10	1	-1E+10	1	-1E+10	1	-1E+10	1
4902549	111	C	09/10/2023	11:06	-132.874	47.748	0	82.90	0	7.9210	0	32.4540	0	25.288	0	82.190	0	271.2	4	92.6	4	-1E+10	1	-1E+10	1	-1E+10	1	-1E+10	1	-1E+10	1	-1E+10	1
4902549	111	C	09/10/2023	11:06	-132.874	47.748	0	84.00	0	7.9040	0	32.4550	0	25.291	0	83.280	0	270.9	4	92.5	4	-1E+10	1	-1E+10	1	-1E+10	1	-1E+10	1	-1E+10	1	-1E+10	1
4902549	111	C	09/10/2023	11:06	-132.874	47.748	0	85.00	0	7.8900	0	32.4600	0	25.297	0	84.271	0	270.5	4	92.3	4	-1E+10	1	-1E+10	1	-1E+10	1	-1E+10	1	-1E+10	1	-1E+10	1
4902549	111	C	09/10/2023	11:06	-132.874	47.748	0	86.10	0	7.8760	0	32.4600	0	25.299	0	85.362	0	270.3	4	92.2	4	-1E+10	1	-1E+10	1	-1E+10	1	-1E+10	1	-1E+10	1	-1E+10	1
4902549	111	C	09/10/2023	11:06	-132.874	47.748	0	86.90	0	7.8710	0	32.4610	0	25.300	0	86.155	0	270.2	4	92.2	4	-1E+10	1	-1E+10	1	-1E+10	1	-1E+10	1	-1E+10	1	-1E+10	1
4902549	111	C	09/10/2023	11:06	-132.874	47.748	0	87.80	0	7.8500	0	32.4620	0	25.304	0	87.047	0	269.9	4	92.0	4	-1E+10	1	-1E+10	1	-1E+10	1	-1E+10	1	-1E+10	1	-1E+10	1
4902549	111	C	09/10/2023	11:06	-132.874	47.748	0	88.90	0	7.8110	0	32.4620	0	25.310	0	88.137	0	269.9	4	92.0	4	-1E+10	1	-1E+10	1	-1E+10	1	-1E+10	1	-1E+10	1	-1E+10	1
4902549	111	C	09/10/2023	11:06	-132.874	47.748	0	90.10	0	7.7780	0	32.4640	0	25.316	0	89.326	0	269.8	4	91.9	4	-1E+10	1	-1E+10	1	-1E+10	1	-1E+10	1	-1E+10	1	-1E+10	1
4902549	111	C	09/10/2023	11:06	-132.874	47.748	0	91.00	0	7.7600	0	32.4670	0	25.321	0	90.219	0	269.7	4	91.8	4	-1E+10	1	-1E+10	1	-1E+10	1	-1E+10	1	-1E+10	1	-1E+10	1
4902549	111	C	09/10/2023	11:06	-132.874	47.748	0	91.80	0	7.7490	0	32.4680	0	25.323	0	91.012	0	269.5	4	91.7	4	-1E+10	1	-1E+10	1	-1E+10	1	-1E+10	1	-1E+10	1	-1E+10	1
4902549	111	C	09/10/2023	11:06	-132.874	47.748	0	93.00	0	7.7440	0	32.4720	0	25.327	0	92.201	0	269.4	4	91.6	4	-1E+10	1	-1E+10	1	-1E+10	1	-1E+10	1	-1E+10	1	-1E+10	1
4902549	111	C	09/10/2023	11:06	-132.874	47.748	0	93.90	0	7.7400	0	32.4750	0	25.330	0	93.093	0	269.3	4	91.6	4	-1E+10	1	-1E+10	1	-1E+10	1	-1E+10	1	-1E+10	1	-1E+10	1
4902549	111	C	09/10/2023	11:06	-132.874	47.748	0	94.80	0	7.7350	0	32.4770	0	25.332	0	93.985	0	269.2	4	91.6	4	-1E+10	1	-1E+10	1	-1E+10	1	-1E+10	1	-1E+10	1	-1E+10	1
4902549	111	C	09/10/2023	11:06	-132.874	47.748	0	96.10	0	7.7160	0	32.4780	0	25.336	0	95.274	0	269.1	4	91.5	4	-1E+10	1	-1E+10	1	-1E+10	1	-1E+10	1	-1E+10	1	-1E+10	1
4902549	111	C	09/10/2023	11:06	-132.874	47.748	0	97.00	0	7.6940	0	32.4810	0	25.341	0	96.166	0	269.0	4	91.4	4	-1E+10	1	-1E+10	1	-1E+10	1	-1E+10	1	-1E+10	1	-1E+10	1
4902549	111	C	09/10/2023	11:06	-132.874	47.748	0	97.90	0	7.6890	0	32.4820	0	25.343	0	97.058	0	268.8	4	91.3	4	-1E+10	1	-1E+10	1	-1E+10	1	-1E+10	1	-1E+10	1	-1E+10	1
4902549	111	C	09/10/2023	11:06	-132.874	47.748	0	99.10	0	7.6860	0	32.4840	0	25.345	0	98.247	0	268.4	4	91.2	4	-1E+10	1	-1E+10	1	-1E+10	1	-1E+10	1	-1E+10	1	-1E+10	1
4902549	111	C	09/10/2023	11:06	-132.874	47.748	0	100.00	0	7.6740	0	32.4860	0	25.348	0	99.139	0	268.3	4	91.2	4	-1E+10	1	-1E+10	1	-1E+10	1	-1E+10	1	-1E+10	1	-1E+10	1
4902549	111	C	09/10/2023	11:06	-132.874	47.748	0	100.90	0	7.6580	0	32.4830	0	25.348	0	100.031	0	268.1	4	91.1	4	-1E+10	1	-1E+10	1	-1E+10	1	-1E+10	1	-1E+10	1	-1E+10	1
4902549	111	C	09/10/2023	11:06	-132.874	47.748	0	102.10	0	7.6220	0	32.4840	0	25.354	0	101.221	0	267.9	4	90.9	4	-1E+10	1	-1E+10	1	-1E+10	1	-1E+10	1	-1E+10	1	-1E+10	1
4902549	111	C	09/10/2023	11:06	-132.874	47.748	0	103.00	0	7.6080	0	32.4910	0	25.361	0	102.113	0	267.6	4	90.8	4	-1E+10	1	-1E+10	1	-1E+10	1	-1E+10	1	-1E+10	1	-1E+10	1
4902549	111	C	09/10/2023	11:06	-132.874	47.748	0	103.90	0	7.6080	0	32.4900	0	25.360	0	103.005	0	267.2	4	90.6	4	-1E+10	1	-1E+10	1	-1E+10	1	-1E+10	1	-1E+10	1	-1E+10	1
4902549	111	C	09/10/2023	11:06	-132.874	47.748	0	105.10	0	7.5930	0	32.4920	0	25.364	0	104.194	0	266.7	4	90.4	4	-1E+10	1	-1E+10	1	-1E+10	1	-1E+10	1	-1E+10	1	-1E+10	1
4902549	111	C	09/10/2023	11:06	-132.874	47.748	0	106.00	0	7.5700	0	32.4920	0	25.367	0	105.086	0	266.5	4	90.3	4	-1E+10	1	-1E+10	1	-1E+10	1	-1E+10	1	-1E+10	1	-1E+10	1
4902549	111	C	09/10/2023	11:06	-132.874	47.748	0	106.90	0	7.5580	0	32.4940	0	25.371	0	105.978	0	266.0	4	90.1	4	-1E+10	1	-1E+10	1	-1E+10	1	-1E+10	1	-1E+10	1	-1E+10	1
4902549	111	C	09/10/2023	11:06	-132.874	47.748	0	108.00	0	7.5530	0	32.5000	0	25.376	0	107.068	0	265.3	4	89.9	4	-1E+10	1	-1E+10	1	-1E+10	1	-1E+10	1	-1E+10	1	-1E+10	1
4902549	111	C	09/10/2023	11:06	-132.874	47.748	0	109.10	0	7.5490	0	32.5050	0	25.381	0	108.158	0	264.4	4	89.6	4	-1E+10	1	-1E+10	1	-1E+10	1	-1E+10	1	-1E+10	1	-1E+10	1
4902549	111	C	09/10/2023	11:06	-132.874	47.748	0	110.00	0	7.5470	0	32.5060	0	25.382	0	109.050	0	263.7	4	89.3	4	-1E+10	1	-1E+10	1	-1E+10	1	-1E+10	1	-1E+10	1	-1E+10	1
4902549	111	C	09/10/2023	11:06	-132.874	47.748	0	110.90	0	7.5350	0	32.5120	0	25.388	0	109.942	0	262.7	4	89.0	4	-1E+10	1	-1E+10	1	-1E+10	1	-1E+10	1	-1E+10	1	-1E+10	1
4902549	111	C	09/10/2023	11:06	-132.874	47.748	0	112.00	0	7.5170	0	32.5230	0	25.399	0	111.033	0	261.5	4	88.5	4	-1E+10	1	-1E+10	1	-1E+10	1	-1E+10	1	-1E+10	1	-1E+10	1
4902549	111	C	09/10/2023	11:06	-132.874	47.748	0	113.00	0	7.5030	0	32.5290	0	25.406	0	112.024	0	259.9	4	88.0	4	-1E+10	1	-1E+10	1	-1E+10	1	-1E+10	1	-1E+10	1	-1E+10	1
4902549	111	C	09/10/2023	11:06	-132.874	47.748	0	114.10	0	7.4710	0	32.5430	0	25.421	0	113.114	0	258.0	4	87.3	4	-1E+10	1	-1E+10	1	-1E+10	1	-1E+10	1	-1E+10	1	-1E+10	1
4902549	111	C	09/10/2023	11:06	-132.874	47.748	0	115.00	0	7.4200	0	32.5600	0	25.442	0	114.006	0	256.8	4	86.8	4	-1E+10	1	-1E+10	1	-1E+10	1	-1E+10	1	-1E+10	1	-1E+10	1
4902549	111	C	09/10/2023	11:06	-132.874	47.748	0	115.90	0	7.4010	0	32.5710	0	25.453	0	114.898	0	255.2	4	86.2	4	-1E+10	1	-1E+10	1	-1E+10	1	-1E+10	1	-1E+10	1	-1E+10	1
4902549	111	C	09/10/2023	11:06	-132.874	47.748	0	116.90	0	7.3680	0	32.5880	0	25.471	0	115.889	0	253.5	4	85.6	4	-1E+10	1	-1E+10	1	-1E+10	1	-1E+10	1	-1E+10	1	-1E+10	1
4902549	111	C	09/10/2023	11:06	-132.874	47.748	0	118.00	0	7.3290	0	32.6010	0	25.487	0	116.979	0	251.8	4	84.9	4	-1E+10	1	-1E+10	1	-1E+10	1	-1E+10	1	-1E+10	1	-1E+10	1
4902549	111	C	09/10/2023	11:06	-132.874	47.748	0	119.20	0	7.3160	0	32.6170	0	25.501	0	118.168	0	249.7	4	84.2	4	-1E+10	1	-1E+10	1	-1E+10	1	-1E+10	1	-1E+10	1	-1E+10	1
4902549	111	C	09/10/2023	11:06	-132.874	47.748	0	120.10	0	7.3030	0	32.6260	0	25.510	0	119.060	0	247.7	4	83.5	4	-1E+10	1	-1E+10	1	-1E+10	1	-1E+10	1	-1E+10	1	-1E+10	1
4902549	111	C	09/10/2023	11:06	-132.874	47.748	0	121.20	0	7.2640	0	32.6510	0	25.535	0	120.150	0	245.7	4	82.8	4	-1E+10	1	-1E+10	1	-1E+10	1	-1E+10	1	-1E+10	1	-1E+10	1
4902549	111	C	09/10/2023	11:06	-132.874	47.748	0	121.90	0	7.2220	0	32.6700	0	25.555	0	120.844	0	244.6	4	82.4	4	-1E+10	1	-1E+10	1	-1E+10	1	-1E+10	1	-1E+10	1	-1E+10	1
4902549	111	C	09/10/2023	11:06	-132.874	47.748	0	122.90	0	7.1910	0	32.6790	0	25.567	0	121.835	0	243.1	4	81.8	4	-1E+10	1	-1E+10	1	-1E+10	1	-1E+10	1	-1E+10	1	-1E+10	1
4902549	111	C	09/10/2023	11:06	-132.874	47.748	0	124.00	0	7.1060	0	32.7180	0	25.609	0	122.925	0	241.8	4	81.2	4	-1E+10	1	-1E+10	1	-1E+10	1	-1E+10	1	-1E+10	1	-1E+10	1
4902549	111	C	09/10/2023	11:06	-132.874	47.748	0	125.10	0	6.9920	0	32.7450	0	25.646	0	124.015	0	240.9	4	80.7	4	-1E+10	1	-1E+10	1	-1E+10	1	-1E+10	1	-1E+10	1	-1E+10	1
4902549	111	C	09/10/2023	11:06	-132.874	47.748	0	126.00	0	6.9760	0	32.7590	0	25.659	0	124.907	0	239.7	4	80.3	4	-1E+10	1	-1E+10	1	-1E+10	1	-1E+10	1	-1E+10	1	-1E+10	1
4902549	111	C	09/10/2023	11:06	-132.874	47.748	0	126.80	0	6.9490	0	32.7680	0	25.669	0	125.700	0	238.6	4	79.9	4	-1E+10	1	-1E+10	1	-1E+10	1	-1E+10	1	-1E+10	1	-1E+10	1
4902549	111	C	09/10/2023	11:06	-132.874	47.748	0	128.00	0	6.9290	0	32.7860	0	25.686	0	126.889	0	237.0	4	79.3	4	-1E+10	1	-1E+10	1	-1E+10	1	-1E+10	1	-1E+10	1	-1E+10	1
4902549	111	C	09/10/2023	11:06	-132.874	47.748	0	129.10	0	6.9290	0	32.8320	0	25.722	0	127.980	0	235.6	4	78.9	4	-1E+10	1	-1E+10	1	-1E+10	1	-1E+10	1	-1E+10	1	-1E+10	1
4902549	111	C	09/10/2023	11:06	-132.874	47.748	0	130.00	0	6.9450	0	32.8720	0	25.752	0	128.871	0	234.3	4	78.5	4	-1E+10	1	-1E+10	1	-1E+10	1	-1E+10	1	-1E+10	1	-1E+10	1
4902549	111	C	09/10/2023	11:06	-132.874	47.748	0	130.80	0	6.9330	0	32.8850	0	25.764	0	129.664	0	232.9	4	78.0	4	-1E+10	1	-1E+10	1	-1E+10	1	-1E+10	1	-1E+10	1	-1E+10	1
4902549	111	C	09/10/2023	11:06	-132.874	47.748	0	132.00	0	6.8990	0	32.9070	0	25.786	0	130.853	0	230.0	4	77.0	4	-1E+10	1	-1E+10	1	-1E+10	1	-1E+10	1	-1E+10	1	-1E+10	1
4902549	111	C	09/10/2023	11:06	-132.874	47.748	0	133.10	0	6.8310	0	32.9330	0	25.815	0	131.944	0	226.2	4	75.6	4	-1E+10	1	-1E+10	1	-1E+10	1	-1E+10	1	-1E+10	1	-1E+10	1
4902549	111	C	09/10/2023	11:06	-132.874	47.748	0	134.00	0	6.8220	0	33.0030	0	25.871	0	132.835	0	222.9	4	74.5	4	-1E+10	1	-1E+10	1	-1E+10	1	-1E+10	1	-1E+10	1	-1E+10	1
4902549	111	C	09/10/2023	11:06	-132.874	47.748	0	135.10	0	6.6580	0	33.0790	0	25.953	0	133.926	0	221.3	4	73.8	4	-1E+10	1	-1E+10	1	-1E+10	1	-1E+10	1	-1E+10	1	-1E+10	1
4902549	111	C	09/10/2023	11:06	-132.874	47.748	0	136.10	0	6.5210	0	33.1420	0	26.020	0	134.917	0	220.0	4	73.1	4	-1E+10	1	-1E+10	1	-1E+10	1	-1E+10	1	-1E+10	1	-1E+10	1
4902549	111	C	09/10/2023	11:06	-132.874	47.748	0	137.00	0	6.4370	0	33.1850	0	26.065	0	135.808	0	219.0	4	72.7	4	-1E+10	1	-1E+10	1	-1E+10	1	-1E+10	1	-1E+10	1	-1E+10	1
4902549	111	C	09/10/2023	11:06	-132.874	47.748	0	138.00	0	6.2150	0	33.2440	0	26.140	0	136.799	0	218.8	4	72.3	4	-1E+10	1	-1E+10	1	-1E+10	1	-1E+10	1	-1E+10	1	-1E+10	1
4902549	111	C	09/10/2023	11:06	-132.874	47.748	0	139.10	0	6.1800	0	33.2530	0	26.151	0	137.889	0	218.0	4	72.0	4	-1E+10	1	-1E+10	1	-1E+10	1	-1E+10	1	-1E+10	1	-1E+10	1
4902549	111	C	09/10/2023	11:06	-132.874	47.748	0	139.90	0	6.1340	0	33.2800	0	26.179	0	138.682	0	217.2	4	71.6	4	-1E+10	1	-1E+10	1	-1E+10	1	-1E+10	1	-1E+10	1	-1E+10	1
4902549	111	C	09/10/2023	11:06	-132.874	47.748	0	140.80	0	6.1080	0	33.2880	0	26.188	0	139.574	0	216.5	4	71.4	4	-1E+10	1	-1E+10	1	-1E+10	1	-1E+10	1	-1E+10	1	-1E+10	1
4902549	111	C	09/10/2023	11:06	-132.874	47.748	0	142.00	0	6.1120	0	33.3020	0	26.199	0	140.763	0	215.1	4	70.9	4	-1E+10	1	-1E+10	1	-1E+10	1	-1E+10	1	-1E+10	1	-1E+10	1
4902549	111	C	09/10/2023	11:06	-132.874	47.748	0	142.90	0	6.1080	0	33.3100	0	26.206	0	141.655	0	214.1	4	70.6	4	-1E+10	1	-1E+10	1	-1E+10	1	-1E+10	1	-1E+10	1	-1E+10	1
4902549	111	C	09/10/2023	11:06	-132.874	47.748	0	143.80	0	6.1110	0	33.3140	0	26.208	0	142.547	0	212.8	4	70.2	4	-1E+10	1	-1E+10	1	-1E+10	1	-1E+10	1	-1E+10	1	-1E+10	1
4902549	111	C	09/10/2023	11:06	-132.874	47.748	0	144.80	0	6.0930	0	33.3340	0	26.226	0	143.538	0	211.6	4	69.7	4	-1E+10	1	-1E+10	1	-1E+10	1	-1E+10	1	-1E+10	1	-1E+10	1
4902549	111	C	09/10/2023	11:06	-132.874	47.748	0	145.80	0	6.0630	0	33.3570	0	26.248	0	144.529	0	210.3	4	69.3	4	-1E+10	1	-1E+10	1	-1E+10	1	-1E+10	1	-1E+10	1	-1E+10	1
4902549	111	C	09/10/2023	11:06	-132.874	47.748	0	147.00	0	6.0340	0	33.3800	0	26.270	0	145.718	0	209.2	4	68.9	4	-1E+10	1	-1E+10	1	-1E+10	1	-1E+10	1	-1E+10	1	-1E+10	1
4902549	111	C	09/10/2023	11:06	-132.874	47.748	0	147.70	0	6.0280	0	33.3840	0	26.274	0	146.412	0	208.3	4	68.6	4	-1E+10	1	-1E+10	1	-1E+10	1	-1E+10	1	-1E+10	1	-1E+10	1
4902549	111	C	09/10/2023	11:06	-132.874	47.748	0	148.80	0	6.0130	0	33.3980	0	26.287	0	147.502	0	206.9	4	68.1	4	-1E+10	1	-1E+10	1	-1E+10	1	-1E+10	1	-1E+10	1	-1E+10	1
4902549	111	C	09/10/2023	11:06	-132.874	47.748	0	150.00	0	5.9930	0	33.4170	0	26.304	0	148.691	0	205.7	4	67.7	4	-1E+10	1	-1E+10	1	-1E+10	1	-1E+10	1	-1E+10	1	-1E+10	1
4902549	111	C	09/10/2023	11:06	-132.874	47.748	0	150.80	0	5.9890	0	33.4220	0	26.309	0	149.483	0	204.9	4	67.4	4	-1E+10	1	-1E+10	1	-1E+10	1	-1E+10	1	-1E+10	1	-1E+10	1
4902549	111	C	09/10/2023	11:06	-132.874	47.748	0	151.70	0	5.9790	0	33.4320	0	26.318	0	150.375	0	204.1	4	67.1	4	-1E+10	1	-1E+10	1	-1E+10	1	-1E+10	1	-1E+10	1	-1E+10	1
4902549	111	C	09/10/2023	11:06	-132.874	47.748	0	152.90	0	5.9680	0	33.4410	0	26.327	0	151.564	0	202.8	4	66.7	4	-1E+10	1	-1E+10	1	-1E+10	1	-1E+10	1	-1E+10	1	-1E+10	1
4902549	111	C	09/10/2023	11:06	-132.874	47.748	0	154.30	0	5.9530	0	33.4550	0	26.339	0	152.952	0	201.6	4	66.3	4	-1E+10	1	-1E+10	1	-1E+10	1	-1E+10	1	-1E+10	1	-1E+10	1
4902549	111	C	09/10/2023	11:06	-132.874	47.748	0	155.20	0	5.9450	0	33.4620	0	26.346	0	153.843	0	200.8	4	66.0	4	-1E+10	1	-1E+10	1	-1E+10	1	-1E+10	1	-1E+10	1	-1E+10	1
4902549	111	C	09/10/2023	11:06	-132.874	47.748	0	156.20	0	5.9330	0	33.4750	0	26.358	0	154.834	0	200.1	4	65.8	4	-1E+10	1	-1E+10	1	-1E+10	1	-1E+10	1	-1E+10	1	-1E+10	1
4902549	111	C	09/10/2023	11:06	-132.874	47.748	0	157.20	0	5.9090	0	33.4910	0	26.373	0	155.825	0	199.5	4	65.6	4	-1E+10	1	-1E+10	1	-1E+10	1	-1E+10	1	-1E+10	1	-1E+10	1
4902549	111	C	09/10/2023	11:06	-132.874	47.748	0	158.20	0	5.8970	0	33.4990	0	26.381	0	156.816	0	198.8	4	65.3	4	-1E+10	1	-1E+10	1	-1E+10	1	-1E+10	1	-1E+10	1	-1E+10	1
4902549	111	C	09/10/2023	11:06	-132.874	47.748	0	159.20	0	5.8940	0	33.5010	0	26.383	0	157.807	0	198.2	4	65.1	4	-1E+10	1	-1E+10	1	-1E+10	1	-1E+10	1	-1E+10	1	-1E+10	1
4902549	111	C	09/10/2023	11:06	-132.874	47.748	0	160.20	0	5.8920	0	33.5020	0	26.384	0	158.798	0	197.5	4	64.9	4	-1E+10	1	-1E+10	1	-1E+10	1	-1E+10	1	-1E+10	1	-1E+10	1
4902549	111	C	09/10/2023	11:06	-132.874	47.748	0	161.30	0	5.8860	0	33.5080	0	26.390	0	159.888	0	196.7	4	64.6	4	-1E+10	1	-1E+10	1	-1E+10	1	-1E+10	1	-1E+10	1	-1E+10	1
4902549	111	C	09/10/2023	11:06	-132.874	47.748	0	162.40	0	5.8760	0	33.5180	0	26.399	0	160.978	0	196.0	4	64.4	4	-1E+10	1	-1E+10	1	-1E+10	1	-1E+10	1	-1E+10	1	-1E+10	1
4902549	111	C	09/10/2023	11:06	-132.874	47.748	0	163.40	0	5.8730	0	33.5210	0	26.402	0	161.968	0	195.1	4	64.1	4	-1E+10	1	-1E+10	1	-1E+10	1	-1E+10	1	-1E+10	1	-1E+10	1
4902549	111	C	09/10/2023	11:06	-132.874	47.748	0	164.50	0	5.8640	0	33.5280	0	26.408	0	163.058	0	194.3	4	63.8	4	-1E+10	1	-1E+10	1	-1E+10	1	-1E+10	1	-1E+10	1	-1E+10	1
4902549	111	C	09/10/2023	11:06	-132.874	47.748	0	165.60	0	5.8650	0	33.5340	0	26.413	0	164.148	0	193.4	4	63.5	4	-1E+10	1	-1E+10	1	-1E+10	1	-1E+10	1	-1E+10	1	-1E+10	1
4902549	111	C	09/10/2023	11:06	-132.874	47.748	0	166.80	0	5.8600	0	33.5440	0	26.421	0	165.337	0	192.5	4	63.2	4	-1E+10	1	-1E+10	1	-1E+10	1	-1E+10	1	-1E+10	1	-1E+10	1
4902549	111	C	09/10/2023	11:06	-132.874	47.748	0	167.90	0	5.8490	0	33.5520	0	26.429	0	166.427	0	191.7	4	62.9	4	-1E+10	1	-1E+10	1	-1E+10	1	-1E+10	1	-1E+10	1	-1E+10	1
4902549	111	C	09/10/2023	11:06	-132.874	47.748	0	169.00	0	5.8460	0	33.5570	0	26.433	0	167.517	0	190.8	4	62.7	4	-1E+10	1	-1E+10	1	-1E+10	1	-1E+10	1	-1E+10	1	-1E+10	1
4902549	111	C	09/10/2023	11:06	-132.874	47.748	0	170.10	0	5.8320	0	33.5620	0	26.439	0	168.607	0	190.1	4	62.4	4	-1E+10	1	-1E+10	1	-1E+10	1	-1E+10	1	-1E+10	1	-1E+10	1
4902549	111	C	09/10/2023	11:06	-132.874	47.748	0	171.20	0	5.8290	0	33.5640	0	26.441	0	169.697	0	189.1	4	62.1	4	-1E+10	1	-1E+10	1	-1E+10	1	-1E+10	1	-1E+10	1	-1E+10	1
4902549	111	C	09/10/2023	11:06	-132.874	47.748	0	172.30	0	5.8280	0	33.5650	0	26.442	0	170.787	0	188.2	4	61.8	4	-1E+10	1	-1E+10	1	-1E+10	1	-1E+10	1	-1E+10	1	-1E+10	1
4902549	111	C	09/10/2023	11:06	-132.874	47.748	0	173.40	0	5.8270	0	33.5660	0	26.443	0	171.877	0	187.1	4	61.4	4	-1E+10	1	-1E+10	1	-1E+10	1	-1E+10	1	-1E+10	1	-1E+10	1
4902549	111	C	09/10/2023	11:06	-132.874	47.748	0	174.40	0	5.8210	0	33.5700	0	26.447	0	172.867	0	185.8	4	61.0	4	-1E+10	1	-1E+10	1	-1E+10	1	-1E+10	1	-1E+10	1	-1E+10	1
4902549	111	C	09/10/2023	11:06	-132.874	47.748	0	175.50	0	5.8200	0	33.5740	0	26.450	0	173.957	0	184.5	4	60.5	4	-1E+10	1	-1E+10	1	-1E+10	1	-1E+10	1	-1E+10	1	-1E+10	1
4902549	111	C	09/10/2023	11:06	-132.874	47.748	0	176.50	0	5.7950	0	33.5880	0	26.464	0	174.948	0	183.5	4	60.2	4	-1E+10	1	-1E+10	1	-1E+10	1	-1E+10	1	-1E+10	1	-1E+10	1
4902549	111	C	09/10/2023	11:06	-132.874	47.748	0	177.60	0	5.7690	0	33.6040	0	26.480	0	176.038	0	182.9	4	60.0	4	-1E+10	1	-1E+10	1	-1E+10	1	-1E+10	1	-1E+10	1	-1E+10	1
4902549	111	C	09/10/2023	11:06	-132.874	47.748	0	178.70	0	5.7570	0	33.6120	0	26.488	0	177.128	0	182.1	4	59.7	4	-1E+10	1	-1E+10	1	-1E+10	1	-1E+10	1	-1E+10	1	-1E+10	1
4902549	111	C	09/10/2023	11:06	-132.874	47.748	0	179.70	0	5.7430	0	33.6210	0	26.497	0	178.119	0	181.5	4	59.5	4	-1E+10	1	-1E+10	1	-1E+10	1	-1E+10	1	-1E+10	1	-1E+10	1
4902549	111	C	09/10/2023	11:06	-132.874	47.748	0	180.70	0	5.7370	0	33.6240	0	26.500	0	179.109	0	181.0	4	59.3	4	-1E+10	1	-1E+10	1	-1E+10	1	-1E+10	1	-1E+10	1	-1E+10	1
4902549	111	C	09/10/2023	11:06	-132.874	47.748	0	181.80	0	5.7340	0	33.6250	0	26.501	0	180.199	0	180.3	4	59.1	4	-1E+10	1	-1E+10	1	-1E+10	1	-1E+10	1	-1E+10	1	-1E+10	1
4902549	111	C	09/10/2023	11:06	-132.874	47.748	0	182.80	0	5.7260	0	33.6290	0	26.505	0	181.190	0	179.9	4	58.9	4	-1E+10	1	-1E+10	1	-1E+10	1	-1E+10	1	-1E+10	1	-1E+10	1
4902549	111	C	09/10/2023	11:06	-132.874	47.748	0	183.80	0	5.7240	0	33.6300	0	26.506	0	182.181	0	179.2	4	58.7	4	-1E+10	1	-1E+10	1	-1E+10	1	-1E+10	1	-1E+10	1	-1E+10	1
4902549	111	C	09/10/2023	11:06	-132.874	47.748	0	184.80	0	5.7210	0	33.6310	0	26.507	0	183.172	0	178.6	4	58.5	4	-1E+10	1	-1E+10	1	-1E+10	1	-1E+10	1	-1E+10	1	-1E+10	1
4902549	111	C	09/10/2023	11:06	-132.874	47.748	0	185.80	0	5.7190	0	33.6330	0	26.509	0	184.162	0	177.9	4	58.3	4	-1E+10	1	-1E+10	1	-1E+10	1	-1E+10	1	-1E+10	1	-1E+10	1
4902549	111	C	09/10/2023	11:06	-132.874	47.748	0	186.80	0	5.7170	0	33.6340	0	26.510	0	185.153	0	177.1	4	58.0	4	-1E+10	1	-1E+10	1	-1E+10	1	-1E+10	1	-1E+10	1	-1E+10	1
4902549	111	C	09/10/2023	11:06	-132.874	47.748	0	187.80	0	5.7170	0	33.6350	0	26.511	0	186.144	0	176.3	4	57.7	4	-1E+10	1	-1E+10	1	-1E+10	1	-1E+10	1	-1E+10	1	-1E+10	1
4902549	111	C	09/10/2023	11:06	-132.874	47.748	0	188.70	0	5.7170	0	33.6350	0	26.511	0	187.035	0	175.2	4	57.4	4	-1E+10	1	-1E+10	1	-1E+10	1	-1E+10	1	-1E+10	1	-1E+10	1
4902549	111	C	09/10/2023	11:06	-132.874	47.748	0	189.70	0	5.7150	0	33.6360	0	26.512	0	188.026	0	174.2	4	57.1	4	-1E+10	1	-1E+10	1	-1E+10	1	-1E+10	1	-1E+10	1	-1E+10	1
4902549	111	C	09/10/2023	11:06	-132.874	47.748	0	190.60	0	5.7110	0	33.6400	0	26.516	0	188.918	0	173.0	4	56.7	4	-1E+10	1	-1E+10	1	-1E+10	1	-1E+10	1	-1E+10	1	-1E+10	1
4902549	111	C	09/10/2023	11:06	-132.874	47.748	0	191.90	0	5.7030	0	33.6440	0	26.520	0	190.206	0	171.3	4	56.1	4	-1E+10	1	-1E+10	1	-1E+10	1	-1E+10	1	-1E+10	1	-1E+10	1
4902549	111	C	09/10/2023	11:06	-132.874	47.748	0	193.30	0	5.6890	0	33.6540	0	26.529	0	191.593	0	169.6	4	55.5	4	-1E+10	1	-1E+10	1	-1E+10	1	-1E+10	1	-1E+10	1	-1E+10	1
4902549	111	C	09/10/2023	11:06	-132.874	47.748	0	194.20	0	5.6810	0	33.6580	0	26.534	0	192.484	0	168.5	4	55.1	4	-1E+10	1	-1E+10	1	-1E+10	1	-1E+10	1	-1E+10	1	-1E+10	1
4902549	111	C	09/10/2023	11:06	-132.874	47.748	0	195.10	0	5.6700	0	33.6640	0	26.540	0	193.376	0	167.4	4	54.8	4	-1E+10	1	-1E+10	1	-1E+10	1	-1E+10	1	-1E+10	1	-1E+10	1
4902549	111	C	09/10/2023	11:06	-132.874	47.748	0	196.00	0	5.6640	0	33.6660	0	26.542	0	194.268	0	166.3	4	54.4	4	-1E+10	1	-1E+10	1	-1E+10	1	-1E+10	1	-1E+10	1	-1E+10	1
4902549	111	C	09/10/2023	11:06	-132.874	47.748	0	196.90	0	5.6440	0	33.6740	0	26.551	0	195.159	0	165.4	4	54.1	4	-1E+10	1	-1E+10	1	-1E+10	1	-1E+10	1	-1E+10	1	-1E+10	1
4902549	111	C	09/10/2023	11:06	-132.874	47.748	0	197.80	0	5.6290	0	33.6770	0	26.555	0	196.051	0	164.5	4	53.8	4	-1E+10	1	-1E+10	1	-1E+10	1	-1E+10	1	-1E+10	1	-1E+10	1
4902549	111	C	09/10/2023	11:06	-132.874	47.748	0	198.60	0	5.6170	0	33.6820	0	26.560	0	196.843	0	163.8	4	53.5	4	-1E+10	1	-1E+10	1	-1E+10	1	-1E+10	1	-1E+10	1	-1E+10	1
4902549	111	C	09/10/2023	11:06	-132.874	47.748	0	199.90	0	5.6030	0	33.6860	0	26.565	0	198.131	0	162.7	4	53.2	4	-1E+10	1	-1E+10	1	-1E+10	1	-1E+10	1	-1E+10	1	-1E+10	1
4902549	111	C	09/10/2023	11:06	-132.874	47.748	0	201.30	0	5.6000	0	33.6870	0	26.566	0	199.518	0	161.4	4	52.8	4	-1E+10	1	-1E+10	1	-1E+10	1	-1E+10	1	-1E+10	1	-1E+10	1
4902549	111	C	09/10/2023	11:06	-132.874	47.748	0	202.20	0	5.5890	0	33.6910	0	26.571	0	200.410	0	160.7	4	52.5	4	-1E+10	1	-1E+10	1	-1E+10	1	-1E+10	1	-1E+10	1	-1E+10	1
4902549	111	C	09/10/2023	11:06	-132.874	47.748	0	203.10	0	5.5780	0	33.6940	0	26.575	0	201.301	0	160.0	4	52.3	4	-1E+10	1	-1E+10	1	-1E+10	1	-1E+10	1	-1E+10	1	-1E+10	1
4902549	111	C	09/10/2023	11:06	-132.874	47.748	0	203.90	0	5.5780	0	33.6940	0	26.575	0	202.094	0	159.2	4	52.0	4	-1E+10	1	-1E+10	1	-1E+10	1	-1E+10	1	-1E+10	1	-1E+10	1
4902549	111	C	09/10/2023	11:06	-132.874	47.748	0	204.80	0	5.5730	0	33.6950	0	26.576	0	202.985	0	158.3	4	51.7	4	-1E+10	1	-1E+10	1	-1E+10	1	-1E+10	1	-1E+10	1	-1E+10	1
4902549	111	C	09/10/2023	11:06	-132.874	47.748	0	205.70	0	5.5640	0	33.6980	0	26.579	0	203.877	0	157.5	4	51.4	4	-1E+10	1	-1E+10	1	-1E+10	1	-1E+10	1	-1E+10	1	-1E+10	1
4902549	111	C	09/10/2023	11:06	-132.874	47.748	0	206.60	0	5.5590	0	33.7000	0	26.582	0	204.769	0	156.7	4	51.1	4	-1E+10	1	-1E+10	1	-1E+10	1	-1E+10	1	-1E+10	1	-1E+10	1
4902549	111	C	09/10/2023	11:06	-132.874	47.748	0	207.90	0	5.5470	0	33.7030	0	26.585	0	206.056	0	155.4	4	50.7	4	-1E+10	1	-1E+10	1	-1E+10	1	-1E+10	1	-1E+10	1	-1E+10	1
4902549	111	C	09/10/2023	11:06	-132.874	47.748	0	209.20	0	5.5410	0	33.7050	0	26.588	0	207.344	0	154.1	4	50.3	4	-1E+10	1	-1E+10	1	-1E+10	1	-1E+10	1	-1E+10	1	-1E+10	1
4902549	111	C	09/10/2023	11:06	-132.874	47.748	0	210.10	0	5.5390	0	33.7050	0	26.588	0	208.236	0	153.1	4	50.0	4	-1E+10	1	-1E+10	1	-1E+10	1	-1E+10	1	-1E+10	1	-1E+10	1
4902549	111	C	09/10/2023	11:06	-132.874	47.748	0	211.00	0	5.5380	0	33.7050	0	26.588	0	209.127	0	152.1	4	49.6	4	-1E+10	1	-1E+10	1	-1E+10	1	-1E+10	1	-1E+10	1	-1E+10	1
4902549	111	C	09/10/2023	11:06	-132.874	47.748	0	211.90	0	5.5310	0	33.7080	0	26.591	0	210.019	0	150.9	4	49.2	4	-1E+10	1	-1E+10	1	-1E+10	1	-1E+10	1	-1E+10	1	-1E+10	1
4902549	111	C	09/10/2023	11:06	-132.874	47.748	0	212.80	0	5.5250	0	33.7100	0	26.594	0	210.910	0	149.7	4	48.9	4	-1E+10	1	-1E+10	1	-1E+10	1	-1E+10	1	-1E+10	1	-1E+10	1
4902549	111	C	09/10/2023	11:06	-132.874	47.748	0	213.70	0	5.5220	0	33.7110	0	26.595	0	211.802	0	148.4	4	48.4	4	-1E+10	1	-1E+10	1	-1E+10	1	-1E+10	1	-1E+10	1	-1E+10	1
4902549	111	C	09/10/2023	11:06	-132.874	47.748	0	214.60	0	5.5180	0	33.7120	0	26.596	0	212.694	0	146.9	4	47.9	4	-1E+10	1	-1E+10	1	-1E+10	1	-1E+10	1	-1E+10	1	-1E+10	1
4902549	111	C	09/10/2023	11:06	-132.874	47.748	0	215.90	0	5.5120	0	33.7120	0	26.597	0	213.981	0	144.4	4	47.1	4	-1E+10	1	-1E+10	1	-1E+10	1	-1E+10	1	-1E+10	1	-1E+10	1
4902549	111	C	09/10/2023	11:06	-132.874	47.748	0	217.30	0	5.4500	0	33.7240	0	26.614	0	215.368	0	142.3	4	46.4	4	-1E+10	1	-1E+10	1	-1E+10	1	-1E+10	1	-1E+10	1	-1E+10	1
4902549	111	C	09/10/2023	11:06	-132.874	47.748	0	218.20	0	5.4330	0	33.7260	0	26.617	0	216.260	0	141.2	4	46.0	4	-1E+10	1	-1E+10	1	-1E+10	1	-1E+10	1	-1E+10	1	-1E+10	1
4902549	111	C	09/10/2023	11:06	-132.874	47.748	0	219.20	0	5.4250	0	33.7270	0	26.619	0	217.250	0	140.0	4	45.6	4	-1E+10	1	-1E+10	1	-1E+10	1	-1E+10	1	-1E+10	1	-1E+10	1
4902549	111	C	09/10/2023	11:06	-132.874	47.748	0	220.10	0	5.4150	0	33.7290	0	26.622	0	218.142	0	138.7	4	45.1	4	-1E+10	1	-1E+10	1	-1E+10	1	-1E+10	1	-1E+10	1	-1E+10	1
4902549	111	C	09/10/2023	11:06	-132.874	47.748	0	221.10	0	5.4070	0	33.7300	0	26.623	0	219.132	0	137.5	4	44.7	4	-1E+10	1	-1E+10	1	-1E+10	1	-1E+10	1	-1E+10	1	-1E+10	1
4902549	111	C	09/10/2023	11:06	-132.874	47.748	0	222.00	0	5.3920	0	33.7310	0	26.626	0	220.024	0	136.1	4	44.3	4	-1E+10	1	-1E+10	1	-1E+10	1	-1E+10	1	-1E+10	1	-1E+10	1
4902549	111	C	09/10/2023	11:06	-132.874	47.748	0	223.00	0	5.3830	0	33.7320	0	26.628	0	221.014	0	134.8	4	43.8	4	-1E+10	1	-1E+10	1	-1E+10	1	-1E+10	1	-1E+10	1	-1E+10	1
4902549	111	C	09/10/2023	11:06	-132.874	47.748	0	223.90	0	5.3710	0	33.7330	0	26.630	0	221.906	0	133.4	4	43.4	4	-1E+10	1	-1E+10	1	-1E+10	1	-1E+10	1	-1E+10	1	-1E+10	1
4902549	111	C	09/10/2023	11:06	-132.874	47.748	0	224.90	0	5.3550	0	33.7340	0	26.633	0	222.897	0	131.9	4	42.9	4	-1E+10	1	-1E+10	1	-1E+10	1	-1E+10	1	-1E+10	1	-1E+10	1
4902549	111	C	09/10/2023	11:06	-132.874	47.748	0	225.90	0	5.3340	0	33.7360	0	26.637	0	223.887	0	130.6	4	42.4	4	-1E+10	1	-1E+10	1	-1E+10	1	-1E+10	1	-1E+10	1	-1E+10	1
4902549	111	C	09/10/2023	11:06	-132.874	47.748	0	226.90	0	5.3010	0	33.7450	0	26.648	0	224.878	0	129.4	4	42.0	4	-1E+10	1	-1E+10	1	-1E+10	1	-1E+10	1	-1E+10	1	-1E+10	1
4902549	111	C	09/10/2023	11:06	-132.874	47.748	0	227.90	0	5.2800	0	33.7450	0	26.650	0	225.868	0	128.4	4	41.7	4	-1E+10	1	-1E+10	1	-1E+10	1	-1E+10	1	-1E+10	1	-1E+10	1
4902549	111	C	09/10/2023	11:06	-132.874	47.748	0	228.90	0	5.2700	0	33.7460	0	26.652	0	226.859	0	127.4	4	41.3	4	-1E+10	1	-1E+10	1	-1E+10	1	-1E+10	1	-1E+10	1	-1E+10	1
4902549	111	C	09/10/2023	11:06	-132.874	47.748	0	229.90	0	5.2530	0	33.7490	0	26.657	0	227.849	0	126.6	4	41.0	4	-1E+10	1	-1E+10	1	-1E+10	1	-1E+10	1	-1E+10	1	-1E+10	1
4902549	111	C	09/10/2023	11:06	-132.874	47.748	0	230.90	0	5.2420	0	33.7510	0	26.659	0	228.840	0	125.8	4	40.8	4	-1E+10	1	-1E+10	1	-1E+10	1	-1E+10	1	-1E+10	1	-1E+10	1
4902549	111	C	09/10/2023	11:06	-132.874	47.748	0	231.90	0	5.2370	0	33.7510	0	26.660	0	229.830	0	125.0	4	40.5	4	-1E+10	1	-1E+10	1	-1E+10	1	-1E+10	1	-1E+10	1	-1E+10	1
4902549	111	C	09/10/2023	11:06	-132.874	47.748	0	232.90	0	5.2310	0	33.7520	0	26.662	0	230.821	0	124.1	4	40.2	4	-1E+10	1	-1E+10	1	-1E+10	1	-1E+10	1	-1E+10	1	-1E+10	1
4902549	111	C	09/10/2023	11:06	-132.874	47.748	0	233.90	0	5.2250	0	33.7530	0	26.663	0	231.811	0	123.2	4	39.9	4	-1E+10	1	-1E+10	1	-1E+10	1	-1E+10	1	-1E+10	1	-1E+10	1
4902549	111	C	09/10/2023	11:06	-132.874	47.748	0	234.90	0	5.2210	0	33.7530	0	26.664	0	232.802	0	122.2	4	39.6	4	-1E+10	1	-1E+10	1	-1E+10	1	-1E+10	1	-1E+10	1	-1E+10	1
4902549	111	C	09/10/2023	11:06	-132.874	47.748	0	235.80	0	5.2140	0	33.7560	0	26.667	0	233.693	0	121.3	4	39.3	4	-1E+10	1	-1E+10	1	-1E+10	1	-1E+10	1	-1E+10	1	-1E+10	1
4902549	111	C	09/10/2023	11:06	-132.874	47.748	0	236.80	0	5.2070	0	33.7580	0	26.669	0	234.684	0	120.4	4	39.0	4	-1E+10	1	-1E+10	1	-1E+10	1	-1E+10	1	-1E+10	1	-1E+10	1
4902549	111	C	09/10/2023	11:06	-132.874	47.748	0	237.90	0	5.1970	0	33.7590	0	26.671	0	235.773	0	119.6	4	38.7	4	-1E+10	1	-1E+10	1	-1E+10	1	-1E+10	1	-1E+10	1	-1E+10	1
4902549	111	C	09/10/2023	11:06	-132.874	47.748	0	238.90	0	5.1890	0	33.7620	0	26.674	0	236.764	0	118.8	4	38.5	4	-1E+10	1	-1E+10	1	-1E+10	1	-1E+10	1	-1E+10	1	-1E+10	1
4902549	111	C	09/10/2023	11:06	-132.874	47.748	0	239.90	0	5.1880	0	33.7630	0	26.675	0	237.754	0	118.1	4	38.2	4	-1E+10	1	-1E+10	1	-1E+10	1	-1E+10	1	-1E+10	1	-1E+10	1
4902549	111	C	09/10/2023	11:06	-132.874	47.748	0	240.90	0	5.1840	0	33.7650	0	26.677	0	238.745	0	117.4	4	38.0	4	-1E+10	1	-1E+10	1	-1E+10	1	-1E+10	1	-1E+10	1	-1E+10	1
4902549	111	C	09/10/2023	11:06	-132.874	47.748	0	241.90	0	5.1750	0	33.7660	0	26.679	0	239.735	0	116.8	4	37.8	4	-1E+10	1	-1E+10	1	-1E+10	1	-1E+10	1	-1E+10	1	-1E+10	1
4902549	111	C	09/10/2023	11:06	-132.874	47.748	0	242.90	0	5.1660	0	33.7680	0	26.682	0	240.726	0	116.2	4	37.6	4	-1E+10	1	-1E+10	1	-1E+10	1	-1E+10	1	-1E+10	1	-1E+10	1
4902549	111	C	09/10/2023	11:06	-132.874	47.748	0	243.90	0	5.1620	0	33.7680	0	26.682	0	241.716	0	115.7	4	37.4	4	-1E+10	1	-1E+10	1	-1E+10	1	-1E+10	1	-1E+10	1	-1E+10	1
4902549	111	C	09/10/2023	11:06	-132.874	47.748	0	244.90	0	5.1500	0	33.7700	0	26.685	0	242.707	0	115.1	4	37.2	4	-1E+10	1	-1E+10	1	-1E+10	1	-1E+10	1	-1E+10	1	-1E+10	1
4902549	111	C	09/10/2023	11:06	-132.874	47.748	0	245.90	0	5.1430	0	33.7700	0	26.686	0	243.697	0	114.6	4	37.1	4	-1E+10	1	-1E+10	1	-1E+10	1	-1E+10	1	-1E+10	1	-1E+10	1
4902549	111	C	09/10/2023	11:06	-132.874	47.748	0	246.90	0	5.1420	0	33.7700	0	26.686	0	244.688	0	114.0	4	36.9	4	-1E+10	1	-1E+10	1	-1E+10	1	-1E+10	1	-1E+10	1	-1E+10	1
4902549	111	C	09/10/2023	11:06	-132.874	47.748	0	247.90	0	5.1370	0	33.7710	0	26.688	0	245.678	0	113.2	4	36.6	4	-1E+10	1	-1E+10	1	-1E+10	1	-1E+10	1	-1E+10	1	-1E+10	1
4902549	111	C	09/10/2023	11:06	-132.874	47.748	0	248.90	0	5.1250	0	33.7730	0	26.691	0	246.668	0	112.6	4	36.4	4	-1E+10	1	-1E+10	1	-1E+10	1	-1E+10	1	-1E+10	1	-1E+10	1
4902549	111	C	09/10/2023	11:06	-132.874	47.748	0	250.00	0	5.1090	0	33.7760	0	26.695	0	247.758	0	112.2	4	36.3	4	-1E+10	1	-1E+10	1	-1E+10	1	-1E+10	1	-1E+10	1	-1E+10	1
4902549	111	C	09/10/2023	11:06	-132.874	47.748	0	251.00	0	5.1040	0	33.7760	0	26.695	0	248.748	0	111.7	4	36.1	4	-1E+10	1	-1E+10	1	-1E+10	1	-1E+10	1	-1E+10	1	-1E+10	1
4902549	111	C	09/10/2023	11:06	-132.874	47.748	0	252.00	0	5.0930	0	33.7780	0	26.698	0	249.739	0	111.3	4	36.0	4	-1E+10	1	-1E+10	1	-1E+10	1	-1E+10	1	-1E+10	1	-1E+10	1
4902549	111	C	09/10/2023	11:06	-132.874	47.748	0	253.00	0	5.0880	0	33.7790	0	26.700	0	250.729	0	110.9	4	35.8	4	-1E+10	1	-1E+10	1	-1E+10	1	-1E+10	1	-1E+10	1	-1E+10	1
4902549	111	C	09/10/2023	11:06	-132.874	47.748	0	254.00	0	5.0840	0	33.7790	0	26.700	0	251.720	0	110.4	4	35.7	4	-1E+10	1	-1E+10	1	-1E+10	1	-1E+10	1	-1E+10	1	-1E+10	1
4902549	111	C	09/10/2023	11:06	-132.874	47.748	0	255.10	0	5.0770	0	33.7800	0	26.702	0	252.809	0	109.9	4	35.5	4	-1E+10	1	-1E+10	1	-1E+10	1	-1E+10	1	-1E+10	1	-1E+10	1
4902549	111	C	09/10/2023	11:06	-132.874	47.748	0	256.10	0	5.0710	0	33.7800	0	26.702	0	253.799	0	109.4	4	35.3	4	-1E+10	1	-1E+10	1	-1E+10	1	-1E+10	1	-1E+10	1	-1E+10	1
4902549	111	C	09/10/2023	11:06	-132.874	47.748	0	257.10	0	5.0640	0	33.7820	0	26.705	0	254.790	0	108.9	4	35.2	4	-1E+10	1	-1E+10	1	-1E+10	1	-1E+10	1	-1E+10	1	-1E+10	1
4902549	111	C	09/10/2023	11:06	-132.874	47.748	0	258.10	0	5.0580	0	33.7820	0	26.705	0	255.780	0	108.4	4	35.0	4	-1E+10	1	-1E+10	1	-1E+10	1	-1E+10	1	-1E+10	1	-1E+10	1
4902549	111	C	09/10/2023	11:06	-132.874	47.748	0	259.10	0	5.0560	0	33.7820	0	26.706	0	256.771	0	107.8	4	34.8	4	-1E+10	1	-1E+10	1	-1E+10	1	-1E+10	1	-1E+10	1	-1E+10	1
4902549	111	C	09/10/2023	11:06	-132.874	47.748	0	260.20	0	5.0530	0	33.7820	0	26.706	0	257.860	0	107.2	4	34.6	4	-1E+10	1	-1E+10	1	-1E+10	1	-1E+10	1	-1E+10	1	-1E+10	1
4902549	111	C	09/10/2023	11:06	-132.874	47.748	0	261.20	0	5.0490	0	33.7820	0	26.706	0	258.850	0	106.4	4	34.4	4	-1E+10	1	-1E+10	1	-1E+10	1	-1E+10	1	-1E+10	1	-1E+10	1
4902549	111	C	09/10/2023	11:06	-132.874	47.748	0	262.20	0	5.0460	0	33.7820	0	26.707	0	259.841	0	105.7	4	34.1	4	-1E+10	1	-1E+10	1	-1E+10	1	-1E+10	1	-1E+10	1	-1E+10	1
4902549	111	C	09/10/2023	11:06	-132.874	47.748	0	263.20	0	5.0250	0	33.7850	0	26.712	0	260.831	0	105.0	4	33.9	4	-1E+10	1	-1E+10	1	-1E+10	1	-1E+10	1	-1E+10	1	-1E+10	1
4902549	111	C	09/10/2023	11:06	-132.874	47.748	0	264.20	0	5.0110	0	33.7860	0	26.714	0	261.822	0	104.3	4	33.6	4	-1E+10	1	-1E+10	1	-1E+10	1	-1E+10	1	-1E+10	1	-1E+10	1
4902549	111	C	09/10/2023	11:06	-132.874	47.748	0	265.20	0	4.9930	0	33.7880	0	26.718	0	262.812	0	103.8	4	33.5	4	-1E+10	1	-1E+10	1	-1E+10	1	-1E+10	1	-1E+10	1	-1E+10	1
4902549	111	C	09/10/2023	11:06	-132.874	47.748	0	266.30	0	4.9720	0	33.7890	0	26.721	0	263.901	0	103.3	4	33.3	4	-1E+10	1	-1E+10	1	-1E+10	1	-1E+10	1	-1E+10	1	-1E+10	1
4902549	111	C	09/10/2023	11:06	-132.874	47.748	0	267.30	0	4.9600	0	33.7890	0	26.722	0	264.892	0	102.8	4	33.1	4	-1E+10	1	-1E+10	1	-1E+10	1	-1E+10	1	-1E+10	1	-1E+10	1
4902549	111	C	09/10/2023	11:06	-132.874	47.748	0	268.30	0	4.9590	0	33.7890	0	26.722	0	265.882	0	102.2	4	32.9	4	-1E+10	1	-1E+10	1	-1E+10	1	-1E+10	1	-1E+10	1	-1E+10	1
4902549	111	C	09/10/2023	11:06	-132.874	47.748	0	269.30	0	4.9490	0	33.7890	0	26.723	0	266.872	0	101.6	4	32.7	4	-1E+10	1	-1E+10	1	-1E+10	1	-1E+10	1	-1E+10	1	-1E+10	1
4902549	111	C	09/10/2023	11:06	-132.874	47.748	0	270.40	0	4.9360	0	33.7910	0	26.726	0	267.962	0	101.1	4	32.5	4	-1E+10	1	-1E+10	1	-1E+10	1	-1E+10	1	-1E+10	1	-1E+10	1
4902549	111	C	09/10/2023	11:06	-132.874	47.748	0	271.40	0	4.9300	0	33.7920	0	26.728	0	268.952	0	100.5	4	32.3	4	-1E+10	1	-1E+10	1	-1E+10	1	-1E+10	1	-1E+10	1	-1E+10	1
4902549	111	C	09/10/2023	11:06	-132.874	47.748	0	272.40	0	4.9270	0	33.7920	0	26.728	0	269.942	0	99.9	4	32.2	4	-1E+10	1	-1E+10	1	-1E+10	1	-1E+10	1	-1E+10	1	-1E+10	1
4902549	111	C	09/10/2023	11:06	-132.874	47.748	0	273.40	0	4.9240	0	33.7920	0	26.729	0	270.933	0	99.2	4	31.9	4	-1E+10	1	-1E+10	1	-1E+10	1	-1E+10	1	-1E+10	1	-1E+10	1
4902549	111	C	09/10/2023	11:06	-132.874	47.748	0	274.50	0	4.9240	0	33.7920	0	26.729	0	272.022	0	98.5	4	31.7	4	-1E+10	1	-1E+10	1	-1E+10	1	-1E+10	1	-1E+10	1	-1E+10	1
4902549	111	C	09/10/2023	11:06	-132.874	47.748	0	275.50	0	4.9170	0	33.7920	0	26.729	0	273.012	0	97.7	4	31.4	4	-1E+10	1	-1E+10	1	-1E+10	1	-1E+10	1	-1E+10	1	-1E+10	1
4902549	111	C	09/10/2023	11:06	-132.874	47.748	0	276.50	0	4.8970	0	33.7950	0	26.734	0	274.003	0	97.1	4	31.2	4	-1E+10	1	-1E+10	1	-1E+10	1	-1E+10	1	-1E+10	1	-1E+10	1
4902549	111	C	09/10/2023	11:06	-132.874	47.748	0	277.60	0	4.8900	0	33.7950	0	26.735	0	275.092	0	96.3	4	31.0	4	-1E+10	1	-1E+10	1	-1E+10	1	-1E+10	1	-1E+10	1	-1E+10	1
4902549	111	C	09/10/2023	11:06	-132.874	47.748	0	278.60	0	4.8830	0	33.7950	0	26.736	0	276.082	0	95.5	4	30.7	4	-1E+10	1	-1E+10	1	-1E+10	1	-1E+10	1	-1E+10	1	-1E+10	1
4902549	111	C	09/10/2023	11:06	-132.874	47.748	0	279.70	0	4.8680	0	33.7980	0	26.740	0	277.172	0	94.7	4	30.5	4	-1E+10	1	-1E+10	1	-1E+10	1	-1E+10	1	-1E+10	1	-1E+10	1
4902549	111	C	09/10/2023	11:06	-132.874	47.748	0	280.70	0	4.8430	0	33.7980	0	26.742	0	278.162	0	94.1	4	30.2	4	-1E+10	1	-1E+10	1	-1E+10	1	-1E+10	1	-1E+10	1	-1E+10	1
4902549	111	C	09/10/2023	11:06	-132.874	47.748	0	281.70	0	4.8370	0	33.7980	0	26.743	0	279.152	0	93.3	4	30.0	4	-1E+10	1	-1E+10	1	-1E+10	1	-1E+10	1	-1E+10	1	-1E+10	1
4902549	111	C	09/10/2023	11:06	-132.874	47.748	0	282.70	0	4.8350	0	33.7990	0	26.744	0	280.143	0	92.5	4	29.7	4	-1E+10	1	-1E+10	1	-1E+10	1	-1E+10	1	-1E+10	1	-1E+10	1
4902549	111	C	09/10/2023	11:06	-132.874	47.748	0	283.70	0	4.8230	0	33.8010	0	26.747	0	281.133	0	91.9	4	29.5	4	-1E+10	1	-1E+10	1	-1E+10	1	-1E+10	1	-1E+10	1	-1E+10	1
4902549	111	C	09/10/2023	11:06	-132.874	47.748	0	284.70	0	4.8120	0	33.8020	0	26.749	0	282.123	0	91.2	4	29.3	4	-1E+10	1	-1E+10	1	-1E+10	1	-1E+10	1	-1E+10	1	-1E+10	1
4902549	111	C	09/10/2023	11:06	-132.874	47.748	0	285.80	0	4.8030	0	33.8030	0	26.751	0	283.212	0	90.3	4	29.0	4	-1E+10	1	-1E+10	1	-1E+10	1	-1E+10	1	-1E+10	1	-1E+10	1
4902549	111	C	09/10/2023	11:06	-132.874	47.748	0	287.00	0	4.7960	0	33.8040	0	26.753	0	284.401	0	89.4	4	28.7	4	-1E+10	1	-1E+10	1	-1E+10	1	-1E+10	1	-1E+10	1	-1E+10	1
4902549	111	C	09/10/2023	11:06	-132.874	47.748	0	288.10	0	4.7910	0	33.8080	0	26.756	0	285.490	0	88.5	4	28.4	4	-1E+10	1	-1E+10	1	-1E+10	1	-1E+10	1	-1E+10	1	-1E+10	1
4902549	111	C	09/10/2023	11:06	-132.874	47.748	0	289.00	0	4.7810	0	33.8100	0	26.759	0	286.381	0	87.8	4	28.2	4	-1E+10	1	-1E+10	1	-1E+10	1	-1E+10	1	-1E+10	1	-1E+10	1
4902549	111	C	09/10/2023	11:06	-132.874	47.748	0	289.70	0	4.7730	0	33.8100	0	26.760	0	287.074	0	87.2	4	28.0	4	-1E+10	1	-1E+10	1	-1E+10	1	-1E+10	1	-1E+10	1	-1E+10	1
4902549	111	C	09/10/2023	11:06	-132.874	47.748	0	290.90	0	4.7620	0	33.8100	0	26.761	0	288.263	0	86.1	4	27.6	4	-1E+10	1	-1E+10	1	-1E+10	1	-1E+10	1	-1E+10	1	-1E+10	1
4902549	111	C	09/10/2023	11:06	-132.874	47.748	0	292.10	0	4.7400	0	33.8130	0	26.766	0	289.451	0	85.1	4	27.3	4	-1E+10	1	-1E+10	1	-1E+10	1	-1E+10	1	-1E+10	1	-1E+10	1
4902549	111	C	09/10/2023	11:06	-132.874	47.748	0	292.90	0	4.7280	0	33.8160	0	26.770	0	290.243	0	84.5	4	27.1	4	-1E+10	1	-1E+10	1	-1E+10	1	-1E+10	1	-1E+10	1	-1E+10	1
4902549	111	C	09/10/2023	11:06	-132.874	47.748	0	293.70	0	4.7150	0	33.8190	0	26.773	0	291.035	0	84.0	4	26.9	4	-1E+10	1	-1E+10	1	-1E+10	1	-1E+10	1	-1E+10	1	-1E+10	1
4902549	111	C	09/10/2023	11:06	-132.874	47.748	0	294.90	0	4.6980	0	33.8220	0	26.778	0	292.224	0	83.5	4	26.7	4	-1E+10	1	-1E+10	1	-1E+10	1	-1E+10	1	-1E+10	1	-1E+10	1
4902549	111	C	09/10/2023	11:06	-132.874	47.748	0	296.20	0	4.6920	0	33.8230	0	26.779	0	293.511	0	83.0	4	26.6	4	-1E+10	1	-1E+10	1	-1E+10	1	-1E+10	1	-1E+10	1	-1E+10	1
4902549	111	C	09/10/2023	11:06	-132.874	47.748	0	296.90	0	4.6900	0	33.8240	0	26.780	0	294.204	0	82.6	4	26.4	4	-1E+10	1	-1E+10	1	-1E+10	1	-1E+10	1	-1E+10	1	-1E+10	1
4902549	111	C	09/10/2023	11:06	-132.874	47.748	0	297.80	0	4.6900	0	33.8240	0	26.780	0	295.095	0	82.2	4	26.3	4	-1E+10	1	-1E+10	1	-1E+10	1	-1E+10	1	-1E+10	1	-1E+10	1
4902549	111	C	09/10/2023	11:06	-132.874	47.748	0	299.00	0	4.6830	0	33.8260	0	26.783	0	296.283	0	81.5	4	26.1	4	-1E+10	1	-1E+10	1	-1E+10	1	-1E+10	1	-1E+10	1	-1E+10	1
4902549	111	C	09/10/2023	11:06	-132.874	47.748	0	300.20	0	4.6760	0	33.8270	0	26.784	0	297.472	0	80.9	4	25.9	4	-1E+10	1	-1E+10	1	-1E+10	1	-1E+10	1	-1E+10	1	-1E+10	1
4902549	111	C	09/10/2023	11:06	-132.874	47.748	0	301.00	0	4.6740	0	33.8280	0	26.785	0	298.264	0	80.5	4	25.8	4	-1E+10	1	-1E+10	1	-1E+10	1	-1E+10	1	-1E+10	1	-1E+10	1
4902549	111	C	09/10/2023	11:06	-132.874	47.748	0	301.80	0	4.6710	0	33.8280	0	26.785	0	299.056	0	80.1	4	25.6	4	-1E+10	1	-1E+10	1	-1E+10	1	-1E+10	1	-1E+10	1	-1E+10	1
4902549	111	C	09/10/2023	11:06	-132.874	47.748	0	303.00	0	4.6610	0	33.8290	0	26.787	0	300.244	0	79.5	4	25.4	4	-1E+10	1	-1E+10	1	-1E+10	1	-1E+10	1	-1E+10	1	-1E+10	1
4902549	111	C	09/10/2023	11:06	-132.874	47.748	0	304.30	0	4.6470	0	33.8310	0	26.790	0	301.531	0	78.9	4	25.2	4	-1E+10	1	-1E+10	1	-1E+10	1	-1E+10	1	-1E+10	1	-1E+10	1
4902549	111	C	09/10/2023	11:06	-132.874	47.748	0	305.10	0	4.6350	0	33.8340	0	26.794	0	302.324	0	78.5	4	25.1	4	-1E+10	1	-1E+10	1	-1E+10	1	-1E+10	1	-1E+10	1	-1E+10	1
4902549	111	C	09/10/2023	11:06	-132.874	47.748	0	305.90	0	4.6320	0	33.8340	0	26.794	0	303.116	0	78.1	4	25.0	4	-1E+10	1	-1E+10	1	-1E+10	1	-1E+10	1	-1E+10	1	-1E+10	1
4902549	111	C	09/10/2023	11:06	-132.874	47.748	0	306.80	0	4.6310	0	33.8340	0	26.795	0	304.007	0	77.7	4	24.9	4	-1E+10	1	-1E+10	1	-1E+10	1	-1E+10	1	-1E+10	1	-1E+10	1
4902549	111	C	09/10/2023	11:06	-132.874	47.748	0	308.00	0	4.6220	0	33.8360	0	26.797	0	305.195	0	77.2	4	24.7	4	-1E+10	1	-1E+10	1	-1E+10	1	-1E+10	1	-1E+10	1	-1E+10	1
4902549	111	C	09/10/2023	11:06	-132.874	47.748	0	309.20	0	4.6170	0	33.8370	0	26.799	0	306.383	0	76.6	4	24.5	4	-1E+10	1	-1E+10	1	-1E+10	1	-1E+10	1	-1E+10	1	-1E+10	1
4902549	111	C	09/10/2023	11:06	-132.874	47.748	0	310.00	0	4.6150	0	33.8370	0	26.799	0	307.175	0	76.1	4	24.3	4	-1E+10	1	-1E+10	1	-1E+10	1	-1E+10	1	-1E+10	1	-1E+10	1
4902549	111	C	09/10/2023	11:06	-132.874	47.748	0	310.90	0	4.6090	0	33.8380	0	26.800	0	308.066	0	75.6	4	24.2	4	-1E+10	1	-1E+10	1	-1E+10	1	-1E+10	1	-1E+10	1	-1E+10	1
4902549	111	C	09/10/2023	11:06	-132.874	47.748	0	311.70	0	4.6050	0	33.8390	0	26.801	0	308.859	0	75.2	4	24.0	4	-1E+10	1	-1E+10	1	-1E+10	1	-1E+10	1	-1E+10	1	-1E+10	1
4902549	111	C	09/10/2023	11:06	-132.874	47.748	0	312.90	0	4.5960	0	33.8420	0	26.805	0	310.047	0	74.6	4	23.8	4	-1E+10	1	-1E+10	1	-1E+10	1	-1E+10	1	-1E+10	1	-1E+10	1
4902549	111	C	09/10/2023	11:06	-132.874	47.748	0	314.20	0	4.5890	0	33.8430	0	26.806	0	311.334	0	73.9	4	23.6	4	-1E+10	1	-1E+10	1	-1E+10	1	-1E+10	1	-1E+10	1	-1E+10	1
4902549	111	C	09/10/2023	11:06	-132.874	47.748	0	315.00	0	4.5830	0	33.8460	0	26.809	0	312.126	0	73.6	4	23.5	4	-1E+10	1	-1E+10	1	-1E+10	1	-1E+10	1	-1E+10	1	-1E+10	1
4902549	111	C	09/10/2023	11:06	-132.874	47.748	0	315.90	0	4.5790	0	33.8460	0	26.810	0	313.017	0	73.1	4	23.4	4	-1E+10	1	-1E+10	1	-1E+10	1	-1E+10	1	-1E+10	1	-1E+10	1
4902549	111	C	09/10/2023	11:06	-132.874	47.748	0	316.70	0	4.5780	0	33.8460	0	26.810	0	313.809	0	72.7	4	23.2	4	-1E+10	1	-1E+10	1	-1E+10	1	-1E+10	1	-1E+10	1	-1E+10	1
4902549	111	C	09/10/2023	11:06	-132.874	47.748	0	317.90	0	4.5680	0	33.8480	0	26.813	0	314.997	0	72.1	4	23.0	4	-1E+10	1	-1E+10	1	-1E+10	1	-1E+10	1	-1E+10	1	-1E+10	1
4902549	111	C	09/10/2023	11:06	-132.874	47.748	0	319.30	0	4.5570	0	33.8520	0	26.817	0	316.383	0	71.5	4	22.8	4	-1E+10	1	-1E+10	1	-1E+10	1	-1E+10	1	-1E+10	1	-1E+10	1
4902549	111	C	09/10/2023	11:06	-132.874	47.748	0	320.10	0	4.5480	0	33.8530	0	26.819	0	317.176	0	71.2	4	22.7	4	-1E+10	1	-1E+10	1	-1E+10	1	-1E+10	1	-1E+10	1	-1E+10	1
4902549	111	C	09/10/2023	11:06	-132.874	47.748	0	321.00	0	4.5380	0	33.8550	0	26.821	0	318.067	0	70.9	4	22.6	4	-1E+10	1	-1E+10	1	-1E+10	1	-1E+10	1	-1E+10	1	-1E+10	1
4902549	111	C	09/10/2023	11:06	-132.874	47.748	0	321.80	0	4.5350	0	33.8560	0	26.823	0	318.859	0	70.6	4	22.5	4	-1E+10	1	-1E+10	1	-1E+10	1	-1E+10	1	-1E+10	1	-1E+10	1
4902549	111	C	09/10/2023	11:06	-132.874	47.748	0	322.70	0	4.5300	0	33.8560	0	26.823	0	319.750	0	70.2	4	22.4	4	-1E+10	1	-1E+10	1	-1E+10	1	-1E+10	1	-1E+10	1	-1E+10	1
4902549	111	C	09/10/2023	11:06	-132.874	47.748	0	323.60	0	4.5290	0	33.8560	0	26.823	0	320.641	0	69.9	4	22.3	4	-1E+10	1	-1E+10	1	-1E+10	1	-1E+10	1	-1E+10	1	-1E+10	1
4902549	111	C	09/10/2023	11:06	-132.874	47.748	0	324.90	0	4.5240	0	33.8570	0	26.825	0	321.928	0	69.3	4	22.1	4	-1E+10	1	-1E+10	1	-1E+10	1	-1E+10	1	-1E+10	1	-1E+10	1
4902549	111	C	09/10/2023	11:06	-132.874	47.748	0	326.20	0	4.5200	0	33.8590	0	26.827	0	323.215	0	68.8	4	21.9	4	-1E+10	1	-1E+10	1	-1E+10	1	-1E+10	1	-1E+10	1	-1E+10	1
4902549	111	C	09/10/2023	11:06	-132.874	47.748	0	327.10	0	4.5190	0	33.8600	0	26.828	0	324.106	0	68.4	4	21.8	4	-1E+10	1	-1E+10	1	-1E+10	1	-1E+10	1	-1E+10	1	-1E+10	1
4902549	111	C	09/10/2023	11:06	-132.874	47.748	0	328.00	0	4.5180	0	33.8600	0	26.828	0	324.997	0	68.0	4	21.7	4	-1E+10	1	-1E+10	1	-1E+10	1	-1E+10	1	-1E+10	1	-1E+10	1
4902549	111	C	09/10/2023	11:06	-132.874	47.748	0	328.90	0	4.5140	0	33.8600	0	26.828	0	325.888	0	67.6	4	21.6	4	-1E+10	1	-1E+10	1	-1E+10	1	-1E+10	1	-1E+10	1	-1E+10	1
4902549	111	C	09/10/2023	11:06	-132.874	47.748	0	329.80	0	4.5080	0	33.8630	0	26.831	0	326.779	0	67.3	4	21.5	4	-1E+10	1	-1E+10	1	-1E+10	1	-1E+10	1	-1E+10	1	-1E+10	1
4902549	111	C	09/10/2023	11:06	-132.874	47.748	0	330.70	0	4.5020	0	33.8660	0	26.834	0	327.670	0	67.0	4	21.4	4	-1E+10	1	-1E+10	1	-1E+10	1	-1E+10	1	-1E+10	1	-1E+10	1
4902549	111	C	09/10/2023	11:06	-132.874	47.748	0	331.60	0	4.5020	0	33.8660	0	26.834	0	328.561	0	66.7	4	21.3	4	-1E+10	1	-1E+10	1	-1E+10	1	-1E+10	1	-1E+10	1	-1E+10	1
4902549	111	C	09/10/2023	11:06	-132.874	47.748	0	332.90	0	4.4990	0	33.8670	0	26.835	0	329.848	0	66.4	4	21.2	4	-1E+10	1	-1E+10	1	-1E+10	1	-1E+10	1	-1E+10	1	-1E+10	1
4902549	111	C	09/10/2023	11:06	-132.874	47.748	0	334.30	0	4.4990	0	33.8670	0	26.835	0	331.234	0	65.9	4	21.0	4	-1E+10	1	-1E+10	1	-1E+10	1	-1E+10	1	-1E+10	1	-1E+10	1
4902549	111	C	09/10/2023	11:06	-132.874	47.748	0	335.20	0	4.4960	0	33.8680	0	26.836	0	332.125	0	65.5	4	20.9	4	-1E+10	1	-1E+10	1	-1E+10	1	-1E+10	1	-1E+10	1	-1E+10	1
4902549	111	C	09/10/2023	11:06	-132.874	47.748	0	336.20	0	4.4860	0	33.8700	0	26.839	0	333.116	0	65.1	4	20.8	4	-1E+10	1	-1E+10	1	-1E+10	1	-1E+10	1	-1E+10	1	-1E+10	1
4902549	111	C	09/10/2023	11:06	-132.874	47.748	0	337.10	0	4.4780	0	33.8720	0	26.842	0	334.007	0	64.9	4	20.7	4	-1E+10	1	-1E+10	1	-1E+10	1	-1E+10	1	-1E+10	1	-1E+10	1
4902549	111	C	09/10/2023	11:06	-132.874	47.748	0	338.00	0	4.4770	0	33.8720	0	26.842	0	334.898	0	64.6	4	20.6	4	-1E+10	1	-1E+10	1	-1E+10	1	-1E+10	1	-1E+10	1	-1E+10	1
4902549	111	C	09/10/2023	11:06	-132.874	47.748	0	339.00	0	4.4760	0	33.8720	0	26.842	0	335.888	0	64.2	4	20.5	4	-1E+10	1	-1E+10	1	-1E+10	1	-1E+10	1	-1E+10	1	-1E+10	1
4902549	111	C	09/10/2023	11:06	-132.874	47.748	0	339.90	0	4.4680	0	33.8740	0	26.844	0	336.779	0	63.9	4	20.4	4	-1E+10	1	-1E+10	1	-1E+10	1	-1E+10	1	-1E+10	1	-1E+10	1
4902549	111	C	09/10/2023	11:06	-132.874	47.748	0	340.90	0	4.4630	0	33.8750	0	26.846	0	337.769	0	63.6	4	20.3	4	-1E+10	1	-1E+10	1	-1E+10	1	-1E+10	1	-1E+10	1	-1E+10	1
4902549	111	C	09/10/2023	11:06	-132.874	47.748	0	341.90	0	4.4580	0	33.8770	0	26.848	0	338.759	0	63.3	4	20.2	4	-1E+10	1	-1E+10	1	-1E+10	1	-1E+10	1	-1E+10	1	-1E+10	1
4902549	111	C	09/10/2023	11:06	-132.874	47.748	0	342.80	0	4.4560	0	33.8770	0	26.848	0	339.650	0	63.0	4	20.1	4	-1E+10	1	-1E+10	1	-1E+10	1	-1E+10	1	-1E+10	1	-1E+10	1
4902549	111	C	09/10/2023	11:06	-132.874	47.748	0	343.80	0	4.4510	0	33.8790	0	26.850	0	340.640	0	62.7	4	20.0	4	-1E+10	1	-1E+10	1	-1E+10	1	-1E+10	1	-1E+10	1	-1E+10	1
4902549	111	C	09/10/2023	11:06	-132.874	47.748	0	344.70	0	4.4490	0	33.8800	0	26.851	0	341.531	0	62.4	4	19.9	4	-1E+10	1	-1E+10	1	-1E+10	1	-1E+10	1	-1E+10	1	-1E+10	1
4902549	111	C	09/10/2023	11:06	-132.874	47.748	0	345.70	0	4.4480	0	33.8800	0	26.851	0	342.521	0	62.0	4	19.7	4	-1E+10	1	-1E+10	1	-1E+10	1	-1E+10	1	-1E+10	1	-1E+10	1
4902549	111	C	09/10/2023	11:06	-132.874	47.748	0	346.60	0	4.4450	0	33.8810	0	26.852	0	343.411	0	61.6	4	19.6	4	-1E+10	1	-1E+10	1	-1E+10	1	-1E+10	1	-1E+10	1	-1E+10	1
4902549	111	C	09/10/2023	11:06	-132.874	47.748	0	347.60	0	4.4460	0	33.8830	0	26.854	0	344.401	0	61.3	4	19.5	4	-1E+10	1	-1E+10	1	-1E+10	1	-1E+10	1	-1E+10	1	-1E+10	1
4902549	111	C	09/10/2023	11:06	-132.874	47.748	0	348.60	0	4.4490	0	33.8830	0	26.853	0	345.391	0	60.9	4	19.4	4	-1E+10	1	-1E+10	1	-1E+10	1	-1E+10	1	-1E+10	1	-1E+10	1
4902549	111	C	09/10/2023	11:06	-132.874	47.748	0	349.50	0	4.4610	0	33.8850	0	26.854	0	346.282	0	60.6	4	19.3	4	-1E+10	1	-1E+10	1	-1E+10	1	-1E+10	1	-1E+10	1	-1E+10	1
4902549	111	C	09/10/2023	11:06	-132.874	47.748	0	352.50	0	4.4580	0	33.8870	0	26.856	0	349.252	0	59.9	4	19.1	4	-1E+10	1	-1E+10	1	-1E+10	1	-1E+10	1	-1E+10	1	-1E+10	1
4902549	111	C	09/10/2023	11:06	-132.874	47.748	0	357.50	0	4.4380	0	33.8900	0	26.860	0	354.202	0	58.6	4	18.7	4	-1E+10	1	-1E+10	1	-1E+10	1	-1E+10	1	-1E+10	1	-1E+10	1
4902549	111	C	09/10/2023	11:06	-132.874	47.748	0	362.40	0	4.4200	0	33.8950	0	26.866	0	359.052	0	57.1	4	18.2	4	-1E+10	1	-1E+10	1	-1E+10	1	-1E+10	1	-1E+10	1	-1E+10	1
4902549	111	C	09/10/2023	11:06	-132.874	47.748	0	367.50	0	4.4070	0	33.9000	0	26.872	0	364.101	0	55.8	4	17.7	4	-1E+10	1	-1E+10	1	-1E+10	1	-1E+10	1	-1E+10	1	-1E+10	1
4902549	111	C	09/10/2023	11:06	-132.874	47.748	0	372.60	0	4.3970	0	33.9060	0	26.877	0	369.149	0	54.7	4	17.4	4	-1E+10	1	-1E+10	1	-1E+10	1	-1E+10	1	-1E+10	1	-1E+10	1
4902549	111	C	09/10/2023	11:06	-132.874	47.748	0	377.80	0	4.3710	0	33.9090	0	26.883	0	374.296	0	53.8	4	17.1	4	-1E+10	1	-1E+10	1	-1E+10	1	-1E+10	1	-1E+10	1	-1E+10	1
4902549	111	C	09/10/2023	11:06	-132.874	47.748	0	383.00	0	4.3610	0	33.9120	0	26.886	0	379.443	0	52.8	4	16.8	4	-1E+10	1	-1E+10	1	-1E+10	1	-1E+10	1	-1E+10	1	-1E+10	1
4902549	111	C	09/10/2023	11:06	-132.874	47.748	0	388.20	0	4.3450	0	33.9170	0	26.892	0	384.590	0	51.9	4	16.5	4	-1E+10	1	-1E+10	1	-1E+10	1	-1E+10	1	-1E+10	1	-1E+10	1
4902549	111	C	09/10/2023	11:06	-132.874	47.748	0	393.00	0	4.3340	0	33.9210	0	26.896	0	389.341	0	51.0	4	16.2	4	-1E+10	1	-1E+10	1	-1E+10	1	-1E+10	1	-1E+10	1	-1E+10	1
4902549	111	C	09/10/2023	11:06	-132.874	47.748	0	397.80	0	4.3310	0	33.9240	0	26.899	0	394.092	0	50.2	4	15.9	4	-1E+10	1	-1E+10	1	-1E+10	1	-1E+10	1	-1E+10	1	-1E+10	1
4902549	111	C	09/10/2023	11:06	-132.874	47.748	0	403.10	0	4.3280	0	33.9270	0	26.902	0	399.337	0	49.3	4	15.7	4	-1E+10	1	-1E+10	1	-1E+10	1	-1E+10	1	-1E+10	1	-1E+10	1
4902549	111	C	09/10/2023	11:06	-132.874	47.748	0	408.30	0	4.3110	0	33.9350	0	26.910	0	404.484	0	48.6	4	15.4	4	-1E+10	1	-1E+10	1	-1E+10	1	-1E+10	1	-1E+10	1	-1E+10	1
4902549	111	C	09/10/2023	11:06	-132.874	47.748	0	413.10	0	4.2990	0	33.9420	0	26.917	0	409.234	0	48.1	4	15.3	4	-1E+10	1	-1E+10	1	-1E+10	1	-1E+10	1	-1E+10	1	-1E+10	1
4902549	111	C	09/10/2023	11:06	-132.874	47.748	0	417.90	0	4.2920	0	33.9470	0	26.921	0	413.984	0	47.5	4	15.1	4	-1E+10	1	-1E+10	1	-1E+10	1	-1E+10	1	-1E+10	1	-1E+10	1
4902549	111	C	09/10/2023	11:06	-132.874	47.748	0	422.80	0	4.2870	0	33.9510	0	26.925	0	418.834	0	46.8	4	14.9	4	-1E+10	1	-1E+10	1	-1E+10	1	-1E+10	1	-1E+10	1	-1E+10	1
4902549	111	C	09/10/2023	11:06	-132.874	47.748	0	427.80	0	4.2810	0	33.9540	0	26.928	0	423.782	0	46.1	4	14.6	4	-1E+10	1	-1E+10	1	-1E+10	1	-1E+10	1	-1E+10	1	-1E+10	1
4902549	111	C	09/10/2023	11:06	-132.874	47.748	0	432.80	0	4.2700	0	33.9590	0	26.933	0	428.729	0	45.7	4	14.5	4	-1E+10	1	-1E+10	1	-1E+10	1	-1E+10	1	-1E+10	1	-1E+10	1
4902549	111	C	09/10/2023	11:06	-132.874	47.748	0	437.90	0	4.2720	0	33.9620	0	26.936	0	433.776	0	45.3	4	14.4	4	-1E+10	1	-1E+10	1	-1E+10	1	-1E+10	1	-1E+10	1	-1E+10	1
4902549	111	C	09/10/2023	11:06	-132.874	47.748	0	443.10	0	4.2700	0	33.9670	0	26.940	0	438.922	0	44.5	4	14.1	4	-1E+10	1	-1E+10	1	-1E+10	1	-1E+10	1	-1E+10	1	-1E+10	1
4902549	111	C	09/10/2023	11:06	-132.874	47.748	0	447.80	0	4.2640	0	33.9730	0	26.945	0	443.572	0	43.7	4	13.9	4	-1E+10	1	-1E+10	1	-1E+10	1	-1E+10	1	-1E+10	1	-1E+10	1
4902549	111	C	09/10/2023	11:06	-132.874	47.748	0	452.60	0	4.2590	0	33.9770	0	26.949	0	448.322	0	42.9	4	13.6	4	-1E+10	1	-1E+10	1	-1E+10	1	-1E+10	1	-1E+10	1	-1E+10	1
4902549	111	C	09/10/2023	11:06	-132.874	47.748	0	457.90	0	4.2510	0	33.9840	0	26.956	0	453.566	0	42.0	4	13.3	4	-1E+10	1	-1E+10	1	-1E+10	1	-1E+10	1	-1E+10	1	-1E+10	1
4902549	111	C	09/10/2023	11:06	-132.874	47.748	0	463.20	0	4.2450	0	33.9890	0	26.960	0	458.810	0	41.2	4	13.1	4	-1E+10	1	-1E+10	1	-1E+10	1	-1E+10	1	-1E+10	1	-1E+10	1
4902549	111	C	09/10/2023	11:06	-132.874	47.748	0	468.00	0	4.2400	0	33.9930	0	26.964	0	463.559	0	40.1	4	12.7	4	-1E+10	1	-1E+10	1	-1E+10	1	-1E+10	1	-1E+10	1	-1E+10	1
4902549	111	C	09/10/2023	11:06	-132.874	47.748	0	472.90	0	4.2300	0	34.0000	0	26.971	0	468.407	0	38.9	4	12.3	4	-1E+10	1	-1E+10	1	-1E+10	1	-1E+10	1	-1E+10	1	-1E+10	1
4902549	111	C	09/10/2023	11:06	-132.874	47.748	0	478.20	0	4.2180	0	34.0070	0	26.977	0	473.651	0	37.6	4	11.9	4	-1E+10	1	-1E+10	1	-1E+10	1	-1E+10	1	-1E+10	1	-1E+10	1
4902549	111	C	09/10/2023	11:06	-132.874	47.748	0	483.00	0	4.2060	0	34.0150	0	26.985	0	478.399	0	36.5	4	11.6	4	-1E+10	1	-1E+10	1	-1E+10	1	-1E+10	1	-1E+10	1	-1E+10	1
4902549	111	C	09/10/2023	11:06	-132.874	47.748	0	487.80	0	4.2010	0	34.0180	0	26.988	0	483.148	0	35.4	4	11.2	4	-1E+10	1	-1E+10	1	-1E+10	1	-1E+10	1	-1E+10	1	-1E+10	1
4902549	111	C	09/10/2023	11:06	-132.874	47.748	0	493.00	0	4.1960	0	34.0240	0	26.993	0	488.292	0	34.1	4	10.8	4	-1E+10	1	-1E+10	1	-1E+10	1	-1E+10	1	-1E+10	1	-1E+10	1
4902549	111	C	09/10/2023	11:06	-132.874	47.748	0	498.20	0	4.1910	0	34.0300	0	26.999	0	493.437	0	32.7	4	10.4	4	-1E+10	1	-1E+10	1	-1E+10	1	-1E+10	1	-1E+10	1	-1E+10	1
4902549	111	C	09/10/2023	11:06	-132.874	47.748	0	503.00	0	4.1910	0	34.0340	0	27.002	0	498.185	0	31.7	4	10.0	4	-1E+10	1	-1E+10	1	-1E+10	1	-1E+10	1	-1E+10	1	-1E+10	1
4902549	111	C	09/10/2023	11:06	-132.874	47.748	0	507.70	0	4.1880	0	34.0390	0	27.006	0	502.834	0	30.9	4	9.8	4	-1E+10	1	-1E+10	1	-1E+10	1	-1E+10	1	-1E+10	1	-1E+10	1
4902549	111	C	09/10/2023	11:06	-132.874	47.748	0	512.80	0	4.1850	0	34.0420	0	27.009	0	507.879	0	30.2	4	9.6	4	-1E+10	1	-1E+10	1	-1E+10	1	-1E+10	1	-1E+10	1	-1E+10	1
4902549	111	C	09/10/2023	11:06	-132.874	47.748	0	518.10	0	4.1690	0	34.0470	0	27.015	0	513.122	0	29.3	4	9.3	4	-1E+10	1	-1E+10	1	-1E+10	1	-1E+10	1	-1E+10	1	-1E+10	1
4902549	111	C	09/10/2023	11:06	-132.874	47.748	0	522.90	0	4.1570	0	34.0540	0	27.021	0	517.870	0	28.4	4	9.0	4	-1E+10	1	-1E+10	1	-1E+10	1	-1E+10	1	-1E+10	1	-1E+10	1
4902549	111	C	09/10/2023	11:06	-132.874	47.748	0	527.80	0	4.1520	0	34.0580	0	27.025	0	522.716	0	27.7	4	8.8	4	-1E+10	1	-1E+10	1	-1E+10	1	-1E+10	1	-1E+10	1	-1E+10	1
4902549	111	C	09/10/2023	11:06	-132.874	47.748	0	533.10	0	4.1400	0	34.0620	0	27.030	0	527.959	0	27.1	4	8.6	4	-1E+10	1	-1E+10	1	-1E+10	1	-1E+10	1	-1E+10	1	-1E+10	1
4902549	111	C	09/10/2023	11:06	-132.874	47.748	0	538.10	0	4.1330	0	34.0670	0	27.034	0	532.904	0	26.4	4	8.3	4	-1E+10	1	-1E+10	1	-1E+10	1	-1E+10	1	-1E+10	1	-1E+10	1
4902549	111	C	09/10/2023	11:06	-132.874	47.748	0	543.10	0	4.1210	0	34.0710	0	27.039	0	537.849	0	25.9	4	8.2	4	-1E+10	1	-1E+10	1	-1E+10	1	-1E+10	1	-1E+10	1	-1E+10	1
4902549	111	C	09/10/2023	11:06	-132.874	47.748	0	548.10	0	4.1160	0	34.0750	0	27.043	0	542.794	0	25.3	4	8.0	4	-1E+10	1	-1E+10	1	-1E+10	1	-1E+10	1	-1E+10	1	-1E+10	1
4902549	111	C	09/10/2023	11:06	-132.874	47.748	0	553.10	0	4.1020	0	34.0790	0	27.047	0	547.739	0	24.9	4	7.9	4	-1E+10	1	-1E+10	1	-1E+10	1	-1E+10	1	-1E+10	1	-1E+10	1
4902549	111	C	09/10/2023	11:06	-132.874	47.748	0	558.10	0	4.0860	0	34.0840	0	27.053	0	552.684	0	24.4	4	7.7	4	-1E+10	1	-1E+10	1	-1E+10	1	-1E+10	1	-1E+10	1	-1E+10	1
4902549	111	C	09/10/2023	11:06	-132.874	47.748	0	562.90	0	4.0800	0	34.0870	0	27.056	0	557.431	0	24.0	4	7.6	4	-1E+10	1	-1E+10	1	-1E+10	1	-1E+10	1	-1E+10	1	-1E+10	1
4902549	111	C	09/10/2023	11:06	-132.874	47.748	0	567.80	0	4.0760	0	34.0910	0	27.060	0	562.277	0	23.7	4	7.5	4	-1E+10	1	-1E+10	1	-1E+10	1	-1E+10	1	-1E+10	1	-1E+10	1
4902549	111	C	09/10/2023	11:06	-132.874	47.748	0	572.60	0	4.0700	0	34.0930	0	27.062	0	567.024	0	23.3	4	7.4	4	-1E+10	1	-1E+10	1	-1E+10	1	-1E+10	1	-1E+10	1	-1E+10	1
4902549	111	C	09/10/2023	11:06	-132.874	47.748	0	577.50	0	4.0650	0	34.0980	0	27.066	0	571.869	0	22.9	4	7.2	4	-1E+10	1	-1E+10	1	-1E+10	1	-1E+10	1	-1E+10	1	-1E+10	1
4902549	111	C	09/10/2023	11:06	-132.874	47.748	0	582.90	0	4.0570	0	34.1030	0	27.071	0	577.209	0	23.1	4	7.3	4	-1E+10	1	-1E+10	1	-1E+10	1	-1E+10	1	-1E+10	1	-1E+10	1
4902549	111	C	09/10/2023	11:06	-132.874	47.748	0	588.30	0	4.0100	0	34.1050	0	27.078	0	582.549	0	23.1	4	7.3	4	-1E+10	1	-1E+10	1	-1E+10	1	-1E+10	1	-1E+10	1	-1E+10	1
4902549	111	C	09/10/2023	11:06	-132.874	47.748	0	593.30	0	4.0010	0	34.1090	0	27.082	0	587.493	0	22.4	4	7.1	4	-1E+10	1	-1E+10	1	-1E+10	1	-1E+10	1	-1E+10	1	-1E+10	1
4902549	111	C	09/10/2023	11:06	-132.874	47.748	0	598.20	0	3.9960	0	34.1120	0	27.085	0	592.338	0	21.6	4	6.8	4	-1E+10	1	-1E+10	1	-1E+10	1	-1E+10	1	-1E+10	1	-1E+10	1
4902549	111	C	09/10/2023	11:06	-132.874	47.748	0	603.20	0	3.9970	0	34.1180	0	27.089	0	597.282	0	20.4	4	6.4	4	-1E+10	1	-1E+10	1	-1E+10	1	-1E+10	1	-1E+10	1	-1E+10	1
4902549	111	C	09/10/2023	11:06	-132.874	47.748	0	608.20	0	4.0000	0	34.1280	0	27.097	0	602.226	0	19.6	4	6.2	4	-1E+10	1	-1E+10	1	-1E+10	1	-1E+10	1	-1E+10	1	-1E+10	1
4902549	111	C	09/10/2023	11:06	-132.874	47.748	0	612.80	0	3.9980	0	34.1320	0	27.100	0	606.774	0	19.4	4	6.1	4	-1E+10	1	-1E+10	1	-1E+10	1	-1E+10	1	-1E+10	1	-1E+10	1
4902549	111	C	09/10/2023	11:06	-132.874	47.748	0	617.50	0	3.9880	0	34.1350	0	27.104	0	611.421	0	19.2	4	6.1	4	-1E+10	1	-1E+10	1	-1E+10	1	-1E+10	1	-1E+10	1	-1E+10	1
4902549	111	C	09/10/2023	11:06	-132.874	47.748	0	622.70	0	3.9540	0	34.1390	0	27.111	0	616.562	0	19.0	4	6.0	4	-1E+10	1	-1E+10	1	-1E+10	1	-1E+10	1	-1E+10	1	-1E+10	1
4902549	111	C	09/10/2023	11:06	-132.874	47.748	0	627.90	0	3.9340	0	34.1450	0	27.117	0	621.703	0	18.7	4	5.9	4	-1E+10	1	-1E+10	1	-1E+10	1	-1E+10	1	-1E+10	1	-1E+10	1
4902549	111	C	09/10/2023	11:06	-132.874	47.748	0	633.00	0	3.9130	0	34.1480	0	27.122	0	626.745	0	18.4	4	5.8	4	-1E+10	1	-1E+10	1	-1E+10	1	-1E+10	1	-1E+10	1	-1E+10	1
4902549	111	C	09/10/2023	11:06	-132.874	47.748	0	638.20	0	3.9090	0	34.1510	0	27.125	0	631.886	0	17.8	4	5.6	4	-1E+10	1	-1E+10	1	-1E+10	1	-1E+10	1	-1E+10	1	-1E+10	1
4902549	111	C	09/10/2023	11:06	-132.874	47.748	0	643.00	0	3.8990	0	34.1550	0	27.129	0	636.631	0	17.3	4	5.4	4	-1E+10	1	-1E+10	1	-1E+10	1	-1E+10	1	-1E+10	1	-1E+10	1
4902549	111	C	09/10/2023	11:06	-132.874	47.748	0	647.90	0	3.8900	0	34.1600	0	27.134	0	641.475	0	16.8	4	5.3	4	-1E+10	1	-1E+10	1	-1E+10	1	-1E+10	1	-1E+10	1	-1E+10	1
4902549	111	C	09/10/2023	11:06	-132.874	47.748	0	652.90	0	3.8760	0	34.1640	0	27.139	0	646.417	0	16.4	4	5.2	4	-1E+10	1	-1E+10	1	-1E+10	1	-1E+10	1	-1E+10	1	-1E+10	1
4902549	111	C	09/10/2023	11:06	-132.874	47.748	0	657.90	0	3.8580	0	34.1700	0	27.145	0	651.360	0	16.1	4	5.1	4	-1E+10	1	-1E+10	1	-1E+10	1	-1E+10	1	-1E+10	1	-1E+10	1
4902549	111	C	09/10/2023	11:06	-132.874	47.748	0	663.00	0	3.8500	0	34.1730	0	27.148	0	656.401	0	15.8	4	5.0	4	-1E+10	1	-1E+10	1	-1E+10	1	-1E+10	1	-1E+10	1	-1E+10	1
4902549	111	C	09/10/2023	11:06	-132.874	47.748	0	668.20	0	3.8430	0	34.1750	0	27.151	0	661.541	0	15.6	4	4.9	4	-1E+10	1	-1E+10	1	-1E+10	1	-1E+10	1	-1E+10	1	-1E+10	1
4902549	111	C	09/10/2023	11:06	-132.874	47.748	0	673.00	0	3.8360	0	34.1770	0	27.153	0	666.286	0	15.3	4	4.8	4	-1E+10	1	-1E+10	1	-1E+10	1	-1E+10	1	-1E+10	1	-1E+10	1
4902549	111	C	09/10/2023	11:06	-132.874	47.748	0	677.80	0	3.8250	0	34.1820	0	27.158	0	671.030	0	14.9	4	4.7	4	-1E+10	1	-1E+10	1	-1E+10	1	-1E+10	1	-1E+10	1	-1E+10	1
4902549	111	C	09/10/2023	11:06	-132.874	47.748	0	683.10	0	3.8100	0	34.1860	0	27.163	0	676.268	0	14.6	4	4.6	4	-1E+10	1	-1E+10	1	-1E+10	1	-1E+10	1	-1E+10	1	-1E+10	1
4902549	111	C	09/10/2023	11:06	-132.874	47.748	0	687.90	0	3.7970	0	34.1890	0	27.167	0	681.013	0	14.3	4	4.5	4	-1E+10	1	-1E+10	1	-1E+10	1	-1E+10	1	-1E+10	1	-1E+10	1
4902549	111	C	09/10/2023	11:06	-132.874	47.748	0	692.80	0	3.7910	0	34.1920	0	27.170	0	685.855	0	13.9	4	4.4	4	-1E+10	1	-1E+10	1	-1E+10	1	-1E+10	1	-1E+10	1	-1E+10	1
4902549	111	C	09/10/2023	11:06	-132.874	47.748	0	697.80	0	3.7910	0	34.1960	0	27.173	0	690.797	0	13.5	4	4.3	4	-1E+10	1	-1E+10	1	-1E+10	1	-1E+10	1	-1E+10	1	-1E+10	1
4902549	111	C	09/10/2023	11:06	-132.874	47.748	0	702.70	0	3.7820	0	34.1990	0	27.176	0	695.640	0	13.1	4	4.1	4	-1E+10	1	-1E+10	1	-1E+10	1	-1E+10	1	-1E+10	1	-1E+10	1
4902549	111	C	09/10/2023	11:06	-132.874	47.748	0	707.90	0	3.7680	0	34.2030	0	27.181	0	700.779	0	12.5	4	3.9	4	-1E+10	1	-1E+10	1	-1E+10	1	-1E+10	1	-1E+10	1	-1E+10	1
4902549	111	C	09/10/2023	11:06	-132.874	47.748	0	712.90	0	3.7610	0	34.2100	0	27.187	0	705.720	0	11.8	4	3.7	4	-1E+10	1	-1E+10	1	-1E+10	1	-1E+10	1	-1E+10	1	-1E+10	1
4902549	111	C	09/10/2023	11:06	-132.874	47.748	0	717.80	0	3.7580	0	34.2150	0	27.191	0	710.562	0	11.3	4	3.5	4	-1E+10	1	-1E+10	1	-1E+10	1	-1E+10	1	-1E+10	1	-1E+10	1
4902549	111	C	09/10/2023	11:06	-132.874	47.748	0	722.80	0	3.7410	0	34.2200	0	27.197	0	715.503	0	10.9	4	3.4	4	-1E+10	1	-1E+10	1	-1E+10	1	-1E+10	1	-1E+10	1	-1E+10	1
4902549	111	C	09/10/2023	11:06	-132.874	47.748	0	727.80	0	3.7380	0	34.2250	0	27.201	0	720.444	0	10.6	4	3.3	4	-1E+10	1	-1E+10	1	-1E+10	1	-1E+10	1	-1E+10	1	-1E+10	1
4902549	111	C	09/10/2023	11:06	-132.874	47.748	0	732.80	0	3.7200	0	34.2290	0	27.206	0	725.385	0	10.4	4	3.3	4	-1E+10	1	-1E+10	1	-1E+10	1	-1E+10	1	-1E+10	1	-1E+10	1
4902549	111	C	09/10/2023	11:06	-132.874	47.748	0	737.90	0	3.7090	0	34.2310	0	27.209	0	730.425	0	10.2	4	3.2	4	-1E+10	1	-1E+10	1	-1E+10	1	-1E+10	1	-1E+10	1	-1E+10	1
4902549	111	C	09/10/2023	11:06	-132.874	47.748	0	742.80	0	3.7010	0	34.2330	0	27.212	0	735.266	0	9.9	4	3.1	4	-1E+10	1	-1E+10	1	-1E+10	1	-1E+10	1	-1E+10	1	-1E+10	1
4902549	111	C	09/10/2023	11:06	-132.874	47.748	0	747.70	0	3.6870	0	34.2400	0	27.219	0	740.108	0	9.5	4	3.0	4	-1E+10	1	-1E+10	1	-1E+10	1	-1E+10	1	-1E+10	1	-1E+10	1
4902549	111	C	09/10/2023	11:06	-132.874	47.748	0	753.10	0	3.6650	0	34.2450	0	27.225	0	745.443	0	9.5	4	3.0	4	-1E+10	1	-1E+10	1	-1E+10	1	-1E+10	1	-1E+10	1	-1E+10	1
4902549	111	C	09/10/2023	11:06	-132.874	47.748	0	758.10	0	3.6600	0	34.2470	0	27.227	0	750.384	0	9.4	4	2.9	4	-1E+10	1	-1E+10	1	-1E+10	1	-1E+10	1	-1E+10	1	-1E+10	1
4902549	111	C	09/10/2023	11:06	-132.874	47.748	0	763.00	0	3.6570	0	34.2470	0	27.227	0	755.225	0	9.3	4	2.9	4	-1E+10	1	-1E+10	1	-1E+10	1	-1E+10	1	-1E+10	1	-1E+10	1
4902549	111	C	09/10/2023	11:06	-132.874	47.748	0	768.00	0	3.6420	0	34.2500	0	27.231	0	760.165	0	9.1	4	2.9	4	-1E+10	1	-1E+10	1	-1E+10	1	-1E+10	1	-1E+10	1	-1E+10	1
4902549	111	C	09/10/2023	11:06	-132.874	47.748	0	773.00	0	3.6190	0	34.2550	0	27.237	0	765.105	0	9.0	4	2.8	4	-1E+10	1	-1E+10	1	-1E+10	1	-1E+10	1	-1E+10	1	-1E+10	1
4902549	111	C	09/10/2023	11:06	-132.874	47.748	0	778.00	0	3.6150	0	34.2560	0	27.239	0	770.044	0	8.9	4	2.8	4	-1E+10	1	-1E+10	1	-1E+10	1	-1E+10	1	-1E+10	1	-1E+10	1
4902549	111	C	09/10/2023	11:06	-132.874	47.748	0	783.00	0	3.6020	0	34.2600	0	27.243	0	774.984	0	8.7	4	2.7	4	-1E+10	1	-1E+10	1	-1E+10	1	-1E+10	1	-1E+10	1	-1E+10	1
4902549	111	C	09/10/2023	11:06	-132.874	47.748	0	788.10	0	3.5890	0	34.2640	0	27.247	0	780.022	0	8.5	4	2.6	4	-1E+10	1	-1E+10	1	-1E+10	1	-1E+10	1	-1E+10	1	-1E+10	1
4902549	111	C	09/10/2023	11:06	-132.874	47.748	0	792.80	0	3.5700	0	34.2680	0	27.253	0	784.665	0	8.3	4	2.6	4	-1E+10	1	-1E+10	1	-1E+10	1	-1E+10	1	-1E+10	1	-1E+10	1
4902549	111	C	09/10/2023	11:06	-132.874	47.748	0	798.00	0	3.5570	0	34.2720	0	27.257	0	789.802	0	8.1	4	2.5	4	-1E+10	1	-1E+10	1	-1E+10	1	-1E+10	1	-1E+10	1	-1E+10	1
4902549	111	C	09/10/2023	11:06	-132.874	47.748	0	803.20	0	3.5470	0	34.2750	0	27.260	0	794.939	0	7.9	4	2.5	4	-1E+10	1	-1E+10	1	-1E+10	1	-1E+10	1	-1E+10	1	-1E+10	1
4902549	111	C	09/10/2023	11:06	-132.874	47.748	0	808.00	0	3.5320	0	34.2800	0	27.266	0	799.680	0	7.8	4	2.4	4	-1E+10	1	-1E+10	1	-1E+10	1	-1E+10	1	-1E+10	1	-1E+10	1
4902549	111	C	09/10/2023	11:06	-132.874	47.748	0	812.90	0	3.5270	0	34.2820	0	27.268	0	804.520	0	7.7	4	2.4	4	-1E+10	1	-1E+10	1	-1E+10	1	-1E+10	1	-1E+10	1	-1E+10	1
4902549	111	C	09/10/2023	11:06	-132.874	47.748	0	817.70	0	3.5210	0	34.2840	0	27.270	0	809.261	0	7.6	4	2.4	4	-1E+10	1	-1E+10	1	-1E+10	1	-1E+10	1	-1E+10	1	-1E+10	1
4902549	111	C	09/10/2023	11:06	-132.874	47.748	0	822.70	0	3.5140	0	34.2860	0	27.272	0	814.200	0	7.4	4	2.3	4	-1E+10	1	-1E+10	1	-1E+10	1	-1E+10	1	-1E+10	1	-1E+10	1
4902549	111	C	09/10/2023	11:06	-132.874	47.748	0	827.70	0	3.5060	0	34.2890	0	27.276	0	819.139	0	7.3	4	2.3	4	-1E+10	1	-1E+10	1	-1E+10	1	-1E+10	1	-1E+10	1	-1E+10	1
4902549	111	C	09/10/2023	11:06	-132.874	47.748	0	832.70	0	3.4960	0	34.2920	0	27.279	0	824.077	0	7.2	4	2.2	4	-1E+10	1	-1E+10	1	-1E+10	1	-1E+10	1	-1E+10	1	-1E+10	1
4902549	111	C	09/10/2023	11:06	-132.874	47.748	0	837.70	0	3.4860	0	34.2960	0	27.283	0	829.015	0	7.1	4	2.2	4	-1E+10	1	-1E+10	1	-1E+10	1	-1E+10	1	-1E+10	1	-1E+10	1
4902549	111	C	09/10/2023	11:06	-132.874	47.748	0	843.00	0	3.4800	0	34.2990	0	27.286	0	834.250	0	7.0	4	2.2	4	-1E+10	1	-1E+10	1	-1E+10	1	-1E+10	1	-1E+10	1	-1E+10	1
4902549	111	C	09/10/2023	11:06	-132.874	47.748	0	847.70	0	3.4730	0	34.3010	0	27.289	0	838.892	0	6.9	4	2.1	4	-1E+10	1	-1E+10	1	-1E+10	1	-1E+10	1	-1E+10	1	-1E+10	1
4902549	111	C	09/10/2023	11:06	-132.874	47.748	0	852.70	0	3.4650	0	34.3050	0	27.293	0	843.830	0	6.7	4	2.1	4	-1E+10	1	-1E+10	1	-1E+10	1	-1E+10	1	-1E+10	1	-1E+10	1
4902549	111	C	09/10/2023	11:06	-132.874	47.748	0	857.90	0	3.4550	0	34.3090	0	27.297	0	848.965	0	6.6	4	2.1	4	-1E+10	1	-1E+10	1	-1E+10	1	-1E+10	1	-1E+10	1	-1E+10	1
4902549	111	C	09/10/2023	11:06	-132.874	47.748	0	862.80	0	3.4500	0	34.3120	0	27.300	0	853.804	0	6.5	4	2.0	4	-1E+10	1	-1E+10	1	-1E+10	1	-1E+10	1	-1E+10	1	-1E+10	1
4902549	111	C	09/10/2023	11:06	-132.874	47.748	0	867.70	0	3.4460	0	34.3170	0	27.304	0	858.643	0	6.4	4	2.0	4	-1E+10	1	-1E+10	1	-1E+10	1	-1E+10	1	-1E+10	1	-1E+10	1
4902549	111	C	09/10/2023	11:06	-132.874	47.748	0	872.80	0	3.4410	0	34.3210	0	27.308	0	863.679	0	6.3	4	2.0	4	-1E+10	1	-1E+10	1	-1E+10	1	-1E+10	1	-1E+10	1	-1E+10	1
4902549	111	C	09/10/2023	11:06	-132.874	47.748	0	878.00	0	3.4380	0	34.3230	0	27.310	0	868.814	0	6.2	4	1.9	4	-1E+10	1	-1E+10	1	-1E+10	1	-1E+10	1	-1E+10	1	-1E+10	1
4902549	111	C	09/10/2023	11:06	-132.874	47.748	0	882.80	0	3.4360	0	34.3270	0	27.313	0	873.554	0	6.2	4	1.9	4	-1E+10	1	-1E+10	1	-1E+10	1	-1E+10	1	-1E+10	1	-1E+10	1
4902549	111	C	09/10/2023	11:06	-132.874	47.748	0	887.70	0	3.4360	0	34.3300	0	27.315	0	878.392	0	6.2	4	1.9	4	-1E+10	1	-1E+10	1	-1E+10	1	-1E+10	1	-1E+10	1	-1E+10	1
4902549	111	C	09/10/2023	11:06	-132.874	47.748	0	892.70	0	3.4260	0	34.3330	0	27.319	0	883.329	0	6.1	4	1.9	4	-1E+10	1	-1E+10	1	-1E+10	1	-1E+10	1	-1E+10	1	-1E+10	1
4902549	111	C	09/10/2023	11:06	-132.874	47.748	0	897.70	0	3.4230	0	34.3330	0	27.319	0	888.266	0	6.1	4	1.9	4	-1E+10	1	-1E+10	1	-1E+10	1	-1E+10	1	-1E+10	1	-1E+10	1
4902549	111	C	09/10/2023	11:06	-132.874	47.748	0	902.80	0	3.4140	0	34.3360	0	27.322	0	893.301	0	6.1	4	1.9	4	-1E+10	1	-1E+10	1	-1E+10	1	-1E+10	1	-1E+10	1	-1E+10	1
4902549	111	C	09/10/2023	11:06	-132.874	47.748	0	907.90	0	3.4080	0	34.3390	0	27.325	0	898.337	0	6.1	4	1.9	4	-1E+10	1	-1E+10	1	-1E+10	1	-1E+10	1	-1E+10	1	-1E+10	1
4902549	111	C	09/10/2023	11:06	-132.874	47.748	0	913.00	0	3.4000	0	34.3410	0	27.328	0	903.372	0	6.2	4	1.9	4	-1E+10	1	-1E+10	1	-1E+10	1	-1E+10	1	-1E+10	1	-1E+10	1
4902549	111	C	09/10/2023	11:06	-132.874	47.748	0	917.70	0	3.3840	0	34.3430	0	27.331	0	908.012	0	6.2	4	1.9	4	-1E+10	1	-1E+10	1	-1E+10	1	-1E+10	1	-1E+10	1	-1E+10	1
4902549	111	C	09/10/2023	11:06	-132.874	47.748	0	922.90	0	3.3720	0	34.3440	0	27.333	0	913.146	0	6.3	4	2.0	4	-1E+10	1	-1E+10	1	-1E+10	1	-1E+10	1	-1E+10	1	-1E+10	1
4902549	111	C	09/10/2023	11:06	-132.874	47.748	0	928.10	0	3.3660	0	34.3440	0	27.334	0	918.280	0	6.4	4	2.0	4	-1E+10	1	-1E+10	1	-1E+10	1	-1E+10	1	-1E+10	1	-1E+10	1
4902549	111	C	09/10/2023	11:06	-132.874	47.748	0	932.80	0	3.3490	0	34.3450	0	27.336	0	922.920	0	6.5	4	2.0	4	-1E+10	1	-1E+10	1	-1E+10	1	-1E+10	1	-1E+10	1	-1E+10	1
4902549	111	C	09/10/2023	11:06	-132.874	47.748	0	937.60	0	3.3130	0	34.3450	0	27.339	0	927.658	0	6.5	4	2.0	4	-1E+10	1	-1E+10	1	-1E+10	1	-1E+10	1	-1E+10	1	-1E+10	1
4902549	111	C	09/10/2023	11:06	-132.874	47.748	0	942.50	0	3.3150	0	34.3490	0	27.342	0	932.495	0	6.5	4	2.0	4	-1E+10	1	-1E+10	1	-1E+10	1	-1E+10	1	-1E+10	1	-1E+10	1
4902549	111	C	09/10/2023	11:06	-132.874	47.748	0	947.90	0	3.2900	0	34.3500	0	27.346	0	937.826	0	6.6	4	2.1	4	-1E+10	1	-1E+10	1	-1E+10	1	-1E+10	1	-1E+10	1	-1E+10	1
4902549	111	C	09/10/2023	11:06	-132.874	47.748	0	953.20	0	3.2780	0	34.3510	0	27.348	0	943.058	0	6.7	4	2.1	4	-1E+10	1	-1E+10	1	-1E+10	1	-1E+10	1	-1E+10	1	-1E+10	1
4902549	111	C	09/10/2023	11:06	-132.874	47.748	0	958.10	0	3.2760	0	34.3510	0	27.348	0	947.894	0	6.8	4	2.1	4	-1E+10	1	-1E+10	1	-1E+10	1	-1E+10	1	-1E+10	1	-1E+10	1
4902549	111	C	09/10/2023	11:06	-132.874	47.748	0	963.10	0	3.2440	0	34.3540	0	27.353	0	952.830	0	6.9	4	2.1	4	-1E+10	1	-1E+10	1	-1E+10	1	-1E+10	1	-1E+10	1	-1E+10	1
4902549	111	C	09/10/2023	11:06	-132.874	47.748	0	968.20	0	3.2090	0	34.3540	0	27.356	0	957.864	0	7.0	4	2.2	4	-1E+10	1	-1E+10	1	-1E+10	1	-1E+10	1	-1E+10	1	-1E+10	1
4902549	111	C	09/10/2023	11:06	-132.874	47.748	0	973.30	0	3.1850	0	34.3540	0	27.359	0	962.898	0	6.9	4	2.1	4	-1E+10	1	-1E+10	1	-1E+10	1	-1E+10	1	-1E+10	1	-1E+10	1
4902549	111	C	09/10/2023	11:06	-132.874	47.748	0	978.00	0	3.1870	0	34.3600	0	27.363	0	967.537	0	6.8	4	2.1	4	-1E+10	1	-1E+10	1	-1E+10	1	-1E+10	1	-1E+10	1	-1E+10	1
4902549	111	C	09/10/2023	11:06	-132.874	47.748	0	982.70	0	3.1890	0	34.3620	0	27.365	0	972.175	0	6.8	4	2.1	4	-1E+10	1	-1E+10	1	-1E+10	1	-1E+10	1	-1E+10	1	-1E+10	1
4902549	111	C	09/10/2023	11:06	-132.874	47.748	0	988.10	0	3.1850	0	34.3630	0	27.366	0	977.505	0	6.8	4	2.1	4	-1E+10	1	-1E+10	1	-1E+10	1	-1E+10	1	-1E+10	1	-1E+10	1
4902549	111	C	09/10/2023	11:06	-132.874	47.748	0	993.10	0	3.1740	0	34.3650	0	27.369	0	982.440	0	6.9	4	2.1	4	-1E+10	1	-1E+10	1	-1E+10	1	-1E+10	1	-1E+10	1	-1E+10	1
4902549	111	C	09/10/2023	11:06	-132.874	47.748	0	997.90	0	3.1560	0	34.3670	0	27.372	0	987.177	0	6.9	4	2.1	4	-1E+10	1	-1E+10	1	-1E+10	1	-1E+10	1	-1E+10	1	-1E+10	1
4902549	111	C	09/10/2023	11:06	-132.874	47.748	0	1005.10	0	3.1460	0	34.3680	0	27.374	0	994.282	0	6.9	4	2.1	4	-1E+10	1	-1E+10	1	-1E+10	1	-1E+10	1	-1E+10	1	-1E+10	1
4902549	111	C	09/10/2023	11:06	-132.874	47.748	0	1015.30	0	3.1310	0	34.3720	0	27.378	0	1004.348	0	6.9	4	2.1	4	-1E+10	1	-1E+10	1	-1E+10	1	-1E+10	1	-1E+10	1	-1E+10	1
4902549	111	C	09/10/2023	11:06	-132.874	47.748	0	1025.40	0	3.1040	0	34.3760	0	27.384	0	1014.315	0	7.0	4	2.2	4	-1E+10	1	-1E+10	1	-1E+10	1	-1E+10	1	-1E+10	1	-1E+10	1
4902549	111	C	09/10/2023	11:06	-132.874	47.748	0	1035.20	0	3.0780	0	34.3780	0	27.388	0	1023.985	0	7.1	4	2.2	4	-1E+10	1	-1E+10	1	-1E+10	1	-1E+10	1	-1E+10	1	-1E+10	1
4902549	111	C	09/10/2023	11:06	-132.874	47.748	0	1045.50	0	3.0520	0	34.3800	0	27.392	0	1034.148	0	7.2	4	2.2	4	-1E+10	1	-1E+10	1	-1E+10	1	-1E+10	1	-1E+10	1	-1E+10	1
4902549	111	C	09/10/2023	11:06	-132.874	47.748	0	1055.40	0	3.0270	0	34.3850	0	27.398	0	1043.916	0	7.2	4	2.2	4	-1E+10	1	-1E+10	1	-1E+10	1	-1E+10	1	-1E+10	1	-1E+10	1
4902549	111	C	09/10/2023	11:06	-132.874	47.748	0	1065.50	0	3.0290	0	34.3890	0	27.401	0	1053.881	0	7.2	4	2.2	4	-1E+10	1	-1E+10	1	-1E+10	1	-1E+10	1	-1E+10	1	-1E+10	1
4902549	111	C	09/10/2023	11:06	-132.874	47.748	0	1075.70	0	3.0170	0	34.3920	0	27.405	0	1063.943	0	7.3	4	2.2	4	-1E+10	1	-1E+10	1	-1E+10	1	-1E+10	1	-1E+10	1	-1E+10	1
4902549	111	C	09/10/2023	11:06	-132.874	47.748	0	1085.40	0	2.9950	0	34.3960	0	27.410	0	1073.513	0	7.4	4	2.3	4	-1E+10	1	-1E+10	1	-1E+10	1	-1E+10	1	-1E+10	1	-1E+10	1
4902549	111	C	09/10/2023	11:06	-132.874	47.748	0	1095.10	0	2.9780	0	34.3980	0	27.413	0	1083.081	0	7.5	4	2.3	4	-1E+10	1	-1E+10	1	-1E+10	1	-1E+10	1	-1E+10	1	-1E+10	1
4902549	111	C	09/10/2023	11:06	-132.874	47.748	0	1105.00	0	2.9600	0	34.3990	0	27.416	0	1092.847	0	7.6	4	2.3	4	-1E+10	1	-1E+10	1	-1E+10	1	-1E+10	1	-1E+10	1	-1E+10	1
4902549	111	C	09/10/2023	11:06	-132.874	47.748	0	1115.10	0	2.9500	0	34.4030	0	27.420	0	1102.809	0	7.7	4	2.4	4	-1E+10	1	-1E+10	1	-1E+10	1	-1E+10	1	-1E+10	1	-1E+10	1
4902549	111	C	09/10/2023	11:06	-132.874	47.748	0	1125.20	0	2.9290	0	34.4060	0	27.424	0	1112.771	0	7.8	4	2.4	4	-1E+10	1	-1E+10	1	-1E+10	1	-1E+10	1	-1E+10	1	-1E+10	1
4902549	111	C	09/10/2023	11:06	-132.874	47.748	0	1135.30	0	2.9090	0	34.4090	0	27.429	0	1122.733	0	8.0	4	2.4	4	-1E+10	1	-1E+10	1	-1E+10	1	-1E+10	1	-1E+10	1	-1E+10	1
4902549	111	C	09/10/2023	11:06	-132.874	47.748	0	1145.50	0	2.8880	0	34.4110	0	27.432	0	1132.792	0	8.0	4	2.5	4	-1E+10	1	-1E+10	1	-1E+10	1	-1E+10	1	-1E+10	1	-1E+10	1
4902549	111	C	09/10/2023	11:06	-132.874	47.748	0	1155.60	0	2.8720	0	34.4110	0	27.434	0	1142.753	0	8.2	4	2.5	4	-1E+10	1	-1E+10	1	-1E+10	1	-1E+10	1	-1E+10	1	-1E+10	1
4902549	111	C	09/10/2023	11:06	-132.874	47.748	0	1165.40	0	2.8600	0	34.4160	0	27.439	0	1152.417	0	8.3	4	2.6	4	-1E+10	1	-1E+10	1	-1E+10	1	-1E+10	1	-1E+10	1	-1E+10	1
4902549	111	C	09/10/2023	11:06	-132.874	47.748	0	1175.20	0	2.8300	0	34.4190	0	27.444	0	1162.081	0	8.5	4	2.6	4	-1E+10	1	-1E+10	1	-1E+10	1	-1E+10	1	-1E+10	1	-1E+10	1
4902549	111	C	09/10/2023	11:06	-132.874	47.748	0	1185.50	0	2.8130	0	34.4210	0	27.447	0	1172.237	0	8.6	4	2.7	4	-1E+10	1	-1E+10	1	-1E+10	1	-1E+10	1	-1E+10	1	-1E+10	1
4902549	111	C	09/10/2023	11:06	-132.874	47.748	0	1195.50	0	2.7890	0	34.4250	0	27.452	0	1182.097	0	8.8	4	2.7	4	-1E+10	1	-1E+10	1	-1E+10	1	-1E+10	1	-1E+10	1	-1E+10	1
4902549	111	C	09/10/2023	11:06	-132.874	47.748	0	1205.10	0	2.7810	0	34.4260	0	27.454	0	1191.562	0	9.0	4	2.8	4	-1E+10	1	-1E+10	1	-1E+10	1	-1E+10	1	-1E+10	1	-1E+10	1
4902549	111	C	09/10/2023	11:06	-132.874	47.748	0	1215.30	0	2.7610	0	34.4300	0	27.459	0	1201.619	0	9.2	4	2.8	4	-1E+10	1	-1E+10	1	-1E+10	1	-1E+10	1	-1E+10	1	-1E+10	1
4902549	111	C	09/10/2023	11:06	-132.874	47.748	0	1225.70	0	2.7410	0	34.4340	0	27.464	0	1211.872	0	9.6	4	2.9	4	-1E+10	1	-1E+10	1	-1E+10	1	-1E+10	1	-1E+10	1	-1E+10	1
4902549	111	C	09/10/2023	11:06	-132.874	47.748	0	1235.70	0	2.7200	0	34.4380	0	27.469	0	1221.730	0	9.8	4	3.0	4	-1E+10	1	-1E+10	1	-1E+10	1	-1E+10	1	-1E+10	1	-1E+10	1
4902549	111	C	09/10/2023	11:06	-132.874	47.748	0	1245.40	0	2.7120	0	34.4400	0	27.471	0	1231.292	0	10.1	4	3.1	4	-1E+10	1	-1E+10	1	-1E+10	1	-1E+10	1	-1E+10	1	-1E+10	1
4902549	111	C	09/10/2023	11:06	-132.874	47.748	0	1255.50	0	2.6990	0	34.4430	0	27.475	0	1241.248	0	10.3	4	3.2	4	-1E+10	1	-1E+10	1	-1E+10	1	-1E+10	1	-1E+10	1	-1E+10	1
4902549	111	C	09/10/2023	11:06	-132.874	47.748	0	1265.30	0	2.6830	0	34.4460	0	27.479	0	1250.907	0	10.7	4	3.3	4	-1E+10	1	-1E+10	1	-1E+10	1	-1E+10	1	-1E+10	1	-1E+10	1
4902549	111	C	09/10/2023	11:06	-132.874	47.748	0	1275.40	0	2.6660	0	34.4490	0	27.483	0	1260.862	0	11.0	4	3.4	4	-1E+10	1	-1E+10	1	-1E+10	1	-1E+10	1	-1E+10	1	-1E+10	1
4902549	111	C	09/10/2023	11:06	-132.874	47.748	0	1285.50	0	2.6570	0	34.4520	0	27.486	0	1270.817	0	11.5	4	3.5	4	-1E+10	1	-1E+10	1	-1E+10	1	-1E+10	1	-1E+10	1	-1E+10	1
4902549	111	C	09/10/2023	11:06	-132.874	47.748	0	1295.60	0	2.6480	0	34.4560	0	27.490	0	1280.770	0	11.9	4	3.6	4	-1E+10	1	-1E+10	1	-1E+10	1	-1E+10	1	-1E+10	1	-1E+10	1
4902549	111	C	09/10/2023	11:06	-132.874	47.748	0	1305.50	0	2.6400	0	34.4600	0	27.494	0	1290.527	0	12.6	4	3.9	4	-1E+10	1	-1E+10	1	-1E+10	1	-1E+10	1	-1E+10	1	-1E+10	1
4902549	111	C	09/10/2023	11:06	-132.874	47.748	0	1315.10	0	2.6350	0	34.4640	0	27.497	0	1299.987	0	13.0	4	4.0	4	-1E+10	1	-1E+10	1	-1E+10	1	-1E+10	1	-1E+10	1	-1E+10	1
4902549	111	C	09/10/2023	11:06	-132.874	47.748	0	1325.00	0	2.6170	0	34.4670	0	27.501	0	1309.743	0	13.5	4	4.1	4	-1E+10	1	-1E+10	1	-1E+10	1	-1E+10	1	-1E+10	1	-1E+10	1
4902549	111	C	09/10/2023	11:06	-132.874	47.748	0	1335.00	0	2.6030	0	34.4700	0	27.505	0	1319.596	0	13.9	4	4.2	4	-1E+10	1	-1E+10	1	-1E+10	1	-1E+10	1	-1E+10	1	-1E+10	1
4902549	111	C	09/10/2023	11:06	-132.874	47.748	0	1345.10	0	2.5910	0	34.4720	0	27.508	0	1329.548	0	14.4	4	4.4	4	-1E+10	1	-1E+10	1	-1E+10	1	-1E+10	1	-1E+10	1	-1E+10	1
4902549	111	C	09/10/2023	11:06	-132.874	47.748	0	1355.50	0	2.5770	0	34.4760	0	27.512	0	1339.795	0	15.0	4	4.6	4	-1E+10	1	-1E+10	1	-1E+10	1	-1E+10	1	-1E+10	1	-1E+10	1
4902549	111	C	09/10/2023	11:06	-132.874	47.748	0	1365.50	0	2.5640	0	34.4790	0	27.516	0	1349.647	0	15.5	4	4.7	4	-1E+10	1	-1E+10	1	-1E+10	1	-1E+10	1	-1E+10	1	-1E+10	1
4902549	111	C	09/10/2023	11:06	-132.874	47.748	0	1375.60	0	2.5560	0	34.4820	0	27.519	0	1359.597	0	16.1	4	4.9	4	-1E+10	1	-1E+10	1	-1E+10	1	-1E+10	1	-1E+10	1	-1E+10	1
4902549	111	C	09/10/2023	11:06	-132.874	47.748	0	1386.00	0	2.5340	0	34.4850	0	27.523	0	1369.842	0	16.4	4	5.0	4	-1E+10	1	-1E+10	1	-1E+10	1	-1E+10	1	-1E+10	1	-1E+10	1
4902549	111	C	09/10/2023	11:06	-132.874	47.748	0	1395.40	0	2.5230	0	34.4860	0	27.525	0	1379.102	0	16.8	4	5.1	4	-1E+10	1	-1E+10	1	-1E+10	1	-1E+10	1	-1E+10	1	-1E+10	1
4902549	111	C	09/10/2023	11:06	-132.874	47.748	0	1405.40	0	2.5050	0	34.4880	0	27.528	0	1388.952	0	17.3	4	5.3	4	-1E+10	1	-1E+10	1	-1E+10	1	-1E+10	1	-1E+10	1	-1E+10	1
4902549	111	C	09/10/2023	11:06	-132.874	47.748	0	1415.20	0	2.4850	0	34.4900	0	27.531	0	1398.605	0	17.7	4	5.4	4	-1E+10	1	-1E+10	1	-1E+10	1	-1E+10	1	-1E+10	1	-1E+10	1
4902549	111	C	09/10/2023	11:06	-132.874	47.748	0	1425.40	0	2.4720	0	34.4920	0	27.534	0	1408.651	0	18.4	4	5.6	4	-1E+10	1	-1E+10	1	-1E+10	1	-1E+10	1	-1E+10	1	-1E+10	1
4902549	111	C	09/10/2023	11:06	-132.874	47.748	0	1435.40	0	2.4650	0	34.4950	0	27.537	0	1418.500	0	18.8	4	5.7	4	-1E+10	1	-1E+10	1	-1E+10	1	-1E+10	1	-1E+10	1	-1E+10	1
4902549	111	C	09/10/2023	11:06	-132.874	47.748	0	1445.20	0	2.4570	0	34.4960	0	27.539	0	1428.152	0	19.0	4	5.8	4	-1E+10	1	-1E+10	1	-1E+10	1	-1E+10	1	-1E+10	1	-1E+10	1
4902549	111	C	09/10/2023	11:06	-132.874	47.748	0	1455.30	0	2.4480	0	34.4970	0	27.540	0	1438.098	0	19.6	4	6.0	4	-1E+10	1	-1E+10	1	-1E+10	1	-1E+10	1	-1E+10	1	-1E+10	1
4902549	111	C	09/10/2023	11:06	-132.874	47.748	0	1465.20	0	2.4420	0	34.5000	0	27.543	0	1447.847	0	20.3	4	6.2	4	-1E+10	1	-1E+10	1	-1E+10	1	-1E+10	1	-1E+10	1	-1E+10	1
4902549	111	C	09/10/2023	11:06	-132.874	47.748	0	1475.50	0	2.4410	0	34.5030	0	27.546	0	1457.990	0	21.1	4	6.4	4	-1E+10	1	-1E+10	1	-1E+10	1	-1E+10	1	-1E+10	1	-1E+10	1
4902549	111	C	09/10/2023	11:06	-132.874	47.748	0	1485.70	0	2.4330	0	34.5060	0	27.549	0	1468.033	0	21.8	4	6.6	4	-1E+10	1	-1E+10	1	-1E+10	1	-1E+10	1	-1E+10	1	-1E+10	1
4902549	111	C	09/10/2023	11:06	-132.874	47.748	0	1495.60	0	2.4230	0	34.5090	0	27.552	0	1477.781	0	22.2	4	6.8	4	-1E+10	1	-1E+10	1	-1E+10	1	-1E+10	1	-1E+10	1	-1E+10	1
4902549	111	C	09/10/2023	11:06	-132.874	47.748	0	1505.40	0	2.4060	0	34.5090	0	27.554	0	1487.430	0	22.7	4	6.9	4	-1E+10	1	-1E+10	1	-1E+10	1	-1E+10	1	-1E+10	1	-1E+10	1
4902549	111	C	09/10/2023	11:06	-132.874	47.748	0	1515.20	0	2.3970	0	34.5120	0	27.557	0	1497.078	0	23.3	4	7.1	4	-1E+10	1	-1E+10	1	-1E+10	1	-1E+10	1	-1E+10	1	-1E+10	1
4902549	111	C	09/10/2023	11:06	-132.874	47.748	0	1525.10	0	2.3870	0	34.5140	0	27.559	0	1506.824	0	23.3	4	7.1	4	-1E+10	1	-1E+10	1	-1E+10	1	-1E+10	1	-1E+10	1	-1E+10	1
4902549	111	C	09/10/2023	11:06	-132.874	47.748	0	1535.10	0	2.3510	0	34.5120	0	27.561	0	1516.669	0	23.0	4	7.0	4	-1E+10	1	-1E+10	1	-1E+10	1	-1E+10	1	-1E+10	1	-1E+10	1
4902549	111	C	09/10/2023	11:06	-132.874	47.748	0	1545.20	0	2.3370	0	34.5130	0	27.563	0	1526.611	0	23.3	4	7.1	4	-1E+10	1	-1E+10	1	-1E+10	1	-1E+10	1	-1E+10	1	-1E+10	1
4902549	111	C	09/10/2023	11:06	-132.874	47.748	0	1555.30	0	2.3330	0	34.5140	0	27.564	0	1536.553	0	23.7	4	7.2	4	-1E+10	1	-1E+10	1	-1E+10	1	-1E+10	1	-1E+10	1	-1E+10	1
4902549	111	C	09/10/2023	11:06	-132.874	47.748	0	1565.60	0	2.3250	0	34.5150	0	27.565	0	1546.691	0	24.3	4	7.4	4	-1E+10	1	-1E+10	1	-1E+10	1	-1E+10	1	-1E+10	1	-1E+10	1
4902549	111	C	09/10/2023	11:06	-132.874	47.748	0	1575.30	0	2.3150	0	34.5170	0	27.568	0	1556.238	0	24.9	4	7.6	4	-1E+10	1	-1E+10	1	-1E+10	1	-1E+10	1	-1E+10	1	-1E+10	1
4902549	111	C	09/10/2023	11:06	-132.874	47.748	0	1585.00	0	2.3060	0	34.5190	0	27.570	0	1565.785	0	25.4	4	7.7	4	-1E+10	1	-1E+10	1	-1E+10	1	-1E+10	1	-1E+10	1	-1E+10	1
4902549	111	C	09/10/2023	11:06	-132.874	47.748	0	1595.00	0	2.3060	0	34.5210	0	27.572	0	1575.627	0	25.9	4	7.9	4	-1E+10	1	-1E+10	1	-1E+10	1	-1E+10	1	-1E+10	1	-1E+10	1
4902549	111	C	09/10/2023	11:06	-132.874	47.748	0	1605.10	0	2.3020	0	34.5220	0	27.573	0	1585.566	0	26.6	4	8.1	4	-1E+10	1	-1E+10	1	-1E+10	1	-1E+10	1	-1E+10	1	-1E+10	1
4902549	111	C	09/10/2023	11:06	-132.874	47.748	0	1615.40	0	2.2910	0	34.5240	0	27.576	0	1595.702	0	27.2	4	8.3	4	-1E+10	1	-1E+10	1	-1E+10	1	-1E+10	1	-1E+10	1	-1E+10	1
4902549	111	C	09/10/2023	11:06	-132.874	47.748	0	1625.60	0	2.2760	0	34.5260	0	27.579	0	1605.739	0	28.7	4	8.7	4	-1E+10	1	-1E+10	1	-1E+10	1	-1E+10	1	-1E+10	1	-1E+10	1
4902549	111	C	09/10/2023	11:06	-132.874	47.748	0	1635.70	0	2.2840	0	34.5330	0	27.584	0	1615.677	0	30.2	4	9.2	4	-1E+10	1	-1E+10	1	-1E+10	1	-1E+10	1	-1E+10	1	-1E+10	1
4902549	111	C	09/10/2023	11:06	-132.874	47.748	0	1645.40	0	2.2660	0	34.5350	0	27.587	0	1625.221	0	30.6	4	9.3	4	-1E+10	1	-1E+10	1	-1E+10	1	-1E+10	1	-1E+10	1	-1E+10	1
4902549	111	C	09/10/2023	11:06	-132.874	47.748	0	1655.10	0	2.2450	0	34.5350	0	27.588	0	1634.765	0	30.7	4	9.3	4	-1E+10	1	-1E+10	1	-1E+10	1	-1E+10	1	-1E+10	1	-1E+10	1
4902549	111	C	09/10/2023	11:06	-132.874	47.748	0	1665.50	0	2.2270	0	34.5360	0	27.591	0	1644.997	0	31.0	4	9.4	4	-1E+10	1	-1E+10	1	-1E+10	1	-1E+10	1	-1E+10	1	-1E+10	1
4902549	111	C	09/10/2023	11:06	-132.874	47.748	0	1675.70	0	2.2210	0	34.5370	0	27.592	0	1655.031	0	31.8	4	9.6	4	-1E+10	1	-1E+10	1	-1E+10	1	-1E+10	1	-1E+10	1	-1E+10	1
4902549	111	C	09/10/2023	11:06	-132.874	47.748	0	1686.00	0	2.1970	0	34.5400	0	27.597	0	1665.164	0	32.7	4	9.9	4	-1E+10	1	-1E+10	1	-1E+10	1	-1E+10	1	-1E+10	1	-1E+10	1
4902549	111	C	09/10/2023	11:06	-132.874	47.748	0	1695.50	0	2.1790	0	34.5420	0	27.600	0	1674.509	0	33.3	4	10.1	4	-1E+10	1	-1E+10	1	-1E+10	1	-1E+10	1	-1E+10	1	-1E+10	1
4902549	111	C	09/10/2023	11:06	-132.874	47.748	0	1705.50	0	2.1690	0	34.5440	0	27.602	0	1684.346	0	34.1	4	10.3	4	-1E+10	1	-1E+10	1	-1E+10	1	-1E+10	1	-1E+10	1	-1E+10	1
4902549	111	C	09/10/2023	11:06	-132.874	47.748	0	1715.60	0	2.1550	0	34.5460	0	27.605	0	1694.280	0	35.0	4	10.6	4	-1E+10	1	-1E+10	1	-1E+10	1	-1E+10	1	-1E+10	1	-1E+10	1
4902549	111	C	09/10/2023	11:06	-132.874	47.748	0	1725.50	0	2.1460	0	34.5480	0	27.607	0	1704.017	0	35.8	4	10.8	4	-1E+10	1	-1E+10	1	-1E+10	1	-1E+10	1	-1E+10	1	-1E+10	1
4902549	111	C	09/10/2023	11:06	-132.874	47.748	0	1735.40	0	2.1380	0	34.5500	0	27.609	0	1713.754	0	36.5	4	11.0	4	-1E+10	1	-1E+10	1	-1E+10	1	-1E+10	1	-1E+10	1	-1E+10	1
4902549	111	C	09/10/2023	11:06	-132.874	47.748	0	1745.40	0	2.1320	0	34.5520	0	27.612	0	1723.589	0	37.0	4	11.2	4	-1E+10	1	-1E+10	1	-1E+10	1	-1E+10	1	-1E+10	1	-1E+10	1
4902549	111	C	09/10/2023	11:06	-132.874	47.748	0	1755.60	0	2.1250	0	34.5530	0	27.613	0	1733.620	0	37.5	4	11.3	4	-1E+10	1	-1E+10	1	-1E+10	1	-1E+10	1	-1E+10	1	-1E+10	1
4902549	111	C	09/10/2023	11:06	-132.874	47.748	0	1765.40	0	2.1170	0	34.5530	0	27.614	0	1743.257	0	37.7	4	11.4	4	-1E+10	1	-1E+10	1	-1E+10	1	-1E+10	1	-1E+10	1	-1E+10	1
4902549	111	C	09/10/2023	11:06	-132.874	47.748	0	1775.40	0	2.1050	0	34.5540	0	27.616	0	1753.090	0	38.2	4	11.5	4	-1E+10	1	-1E+10	1	-1E+10	1	-1E+10	1	-1E+10	1	-1E+10	1
4902549	111	C	09/10/2023	11:06	-132.874	47.748	0	1785.50	0	2.1010	0	34.5550	0	27.617	0	1763.021	0	38.6	4	11.7	4	-1E+10	1	-1E+10	1	-1E+10	1	-1E+10	1	-1E+10	1	-1E+10	1
4902549	111	C	09/10/2023	11:06	-132.874	47.748	0	1795.30	0	2.0860	0	34.5560	0	27.619	0	1772.657	0	39.0	4	11.8	4	-1E+10	1	-1E+10	1	-1E+10	1	-1E+10	1	-1E+10	1	-1E+10	1
4902549	111	C	09/10/2023	11:06	-132.874	47.748	0	1805.30	0	2.0790	0	34.5570	0	27.620	0	1782.489	0	39.6	4	12.0	4	-1E+10	1	-1E+10	1	-1E+10	1	-1E+10	1	-1E+10	1	-1E+10	1
4902549	111	C	09/10/2023	11:06	-132.874	47.748	0	1815.40	0	2.0700	0	34.5590	0	27.622	0	1792.419	0	40.3	4	12.2	4	-1E+10	1	-1E+10	1	-1E+10	1	-1E+10	1	-1E+10	1	-1E+10	1
4902549	111	C	09/10/2023	11:06	-132.874	47.748	0	1825.60	0	2.0570	0	34.5610	0	27.625	0	1802.446	0	41.1	4	12.4	4	-1E+10	1	-1E+10	1	-1E+10	1	-1E+10	1	-1E+10	1	-1E+10	1
4902549	111	C	09/10/2023	11:06	-132.874	47.748	0	1835.40	0	2.0510	0	34.5620	0	27.626	0	1812.080	0	41.8	4	12.6	4	-1E+10	1	-1E+10	1	-1E+10	1	-1E+10	1	-1E+10	1	-1E+10	1
4902549	111	C	09/10/2023	11:06	-132.874	47.748	0	1845.10	0	2.0430	0	34.5640	0	27.629	0	1821.615	0	42.3	4	12.8	4	-1E+10	1	-1E+10	1	-1E+10	1	-1E+10	1	-1E+10	1	-1E+10	1
4902549	111	C	09/10/2023	11:06	-132.874	47.748	0	1855.00	0	2.0380	0	34.5650	0	27.630	0	1831.347	0	42.8	4	12.9	4	-1E+10	1	-1E+10	1	-1E+10	1	-1E+10	1	-1E+10	1	-1E+10	1
4902549	111	C	09/10/2023	11:06	-132.874	47.748	0	1865.20	0	2.0320	0	34.5660	0	27.631	0	1841.373	0	43.6	4	13.2	4	-1E+10	1	-1E+10	1	-1E+10	1	-1E+10	1	-1E+10	1	-1E+10	1
4902549	111	C	09/10/2023	11:06	-132.874	47.748	0	1875.50	0	2.0190	0	34.5690	0	27.635	0	1851.496	0	44.6	4	13.5	4	-1E+10	1	-1E+10	1	-1E+10	1	-1E+10	1	-1E+10	1	-1E+10	1
4902549	111	C	09/10/2023	11:06	-132.874	47.748	0	1885.70	0	2.0080	0	34.5710	0	27.637	0	1861.521	0	45.2	4	13.6	4	-1E+10	1	-1E+10	1	-1E+10	1	-1E+10	1	-1E+10	1	-1E+10	1
4902549	111	C	09/10/2023	11:06	-132.874	47.748	0	1895.60	0	2.0020	0	34.5720	0	27.639	0	1871.251	0	45.6	4	13.8	4	-1E+10	1	-1E+10	1	-1E+10	1	-1E+10	1	-1E+10	1	-1E+10	1
4902549	111	C	09/10/2023	11:06	-132.874	47.748	0	1905.60	0	1.9970	0	34.5730	0	27.640	0	1881.078	0	46.1	4	13.9	4	-1E+10	1	-1E+10	1	-1E+10	1	-1E+10	1	-1E+10	1	-1E+10	1
4902549	111	C	09/10/2023	11:06	-132.874	47.748	0	1915.50	0	1.9900	0	34.5740	0	27.641	0	1890.807	0	46.8	4	14.1	4	-1E+10	1	-1E+10	1	-1E+10	1	-1E+10	1	-1E+10	1	-1E+10	1
4902549	111	C	09/10/2023	11:06	-132.874	47.748	0	1925.50	0	1.9780	0	34.5760	0	27.644	0	1900.633	0	47.5	4	14.3	4	-1E+10	1	-1E+10	1	-1E+10	1	-1E+10	1	-1E+10	1	-1E+10	1
4902549	111	C	09/10/2023	11:06	-132.874	47.748	0	1935.50	0	1.9720	0	34.5770	0	27.645	0	1910.459	0	48.0	4	14.5	4	-1E+10	1	-1E+10	1	-1E+10	1	-1E+10	1	-1E+10	1	-1E+10	1
4902549	111	C	09/10/2023	11:06	-132.874	47.748	0	1945.70	0	1.9670	0	34.5780	0	27.646	0	1920.481	0	48.5	4	14.6	4	-1E+10	1	-1E+10	1	-1E+10	1	-1E+10	1	-1E+10	1	-1E+10	1
4902549	111	C	09/10/2023	11:06	-132.874	47.748	0	1955.50	0	1.9610	0	34.5790	0	27.648	0	1930.110	0	48.9	4	14.7	4	-1E+10	1	-1E+10	1	-1E+10	1	-1E+10	1	-1E+10	1	-1E+10	1
4902549	111	C	09/10/2023	11:06	-132.874	47.748	0	1965.30	0	1.9540	0	34.5800	0	27.649	0	1939.738	0	49.4	4	14.9	4	-1E+10	1	-1E+10	1	-1E+10	1	-1E+10	1	-1E+10	1	-1E+10	1
4902549	111	C	09/10/2023	11:06	-132.874	47.748	0	1975.80	0	1.9490	0	34.5810	0	27.650	0	1950.053	0	49.7	4	15.0	4	-1E+10	1	-1E+10	1	-1E+10	1	-1E+10	1	-1E+10	1	-1E+10	1
4902549	111	C	09/10/2023	11:06	-132.874	47.748	0	1983.50	0	1.9460	0	34.5830	0	27.652	0	1957.618	0	49.8	4	15.0	4	-1E+10	1	-1E+10	1	-1E+10	1	-1E+10	1	-1E+10	1	-1E+10	1
4902549	111	C	09/10/2023	11:06	-132.874	47.748	0																										
4902549	112	C	09/20/2023	15:58	-133.042	47.754	0	0.20	0	16.4940	0	32.4180	0	23.651	0	0.198	0	-1e10	1	-1e10	1	-1E+10	1	-1E+10	1	-1E+10	1	-1E+10	1	-1E+10	1	-1E+10	1
4902549	112	C	09/20/2023	15:58	-133.042	47.754	0	0.40	0	16.4947	0	32.4180	0	23.651	0	0.397	0	236.9	4	96.7	4	-1E+10	1	-1E+10	1	-1E+10	1	-1E+10	1	-1E+10	1	-1E+10	1
4902549	112	C	09/20/2023	15:58	-133.042	47.754	0	1.00	0	16.4970	0	32.4180	0	23.651	0	0.992	0	237.0	4	96.7	4	-1E+10	1	-1E+10	1	-1E+10	1	-1E+10	1	-1E+10	1	-1E+10	1
4902549	112	C	09/20/2023	15:58	-133.042	47.754	0	1.90	0	16.4950	0	32.4240	0	23.656	0	1.884	0	236.9	4	96.7	4	-1E+10	1	-1E+10	1	-1E+10	1	-1E+10	1	-1E+10	1	-1E+10	1
4902549	112	C	09/20/2023	15:58	-133.042	47.754	0	3.00	0	16.4980	0	32.4240	0	23.655	0	2.975	0	237.0	4	96.7	4	-1E+10	1	-1E+10	1	-1E+10	1	-1E+10	1	-1E+10	1	-1E+10	1
4902549	112	C	09/20/2023	15:58	-133.042	47.754	0	3.80	0	16.5110	0	32.4160	0	23.646	0	3.768	0	236.9	4	96.7	4	-1E+10	1	-1E+10	1	-1E+10	1	-1E+10	1	-1E+10	1	-1E+10	1
4902549	112	C	09/20/2023	15:58	-133.042	47.754	0	4.80	0	16.5110	0	32.4170	0	23.647	0	4.760	0	237.0	4	96.8	4	-1E+10	1	-1E+10	1	-1E+10	1	-1E+10	1	-1E+10	1	-1E+10	1
4902549	112	C	09/20/2023	15:58	-133.042	47.754	0	6.00	0	16.5120	0	32.4170	0	23.647	0	5.950	0	237.1	4	96.8	4	-1E+10	1	-1E+10	1	-1E+10	1	-1E+10	1	-1E+10	1	-1E+10	1
4902549	112	C	09/20/2023	15:58	-133.042	47.754	0	6.90	0	16.5130	0	32.4170	0	23.646	0	6.842	0	237.0	4	96.8	4	-1E+10	1	-1E+10	1	-1E+10	1	-1E+10	1	-1E+10	1	-1E+10	1
4902549	112	C	09/20/2023	15:58	-133.042	47.754	0	7.70	0	16.5120	0	32.4170	0	23.647	0	7.635	0	237.0	4	96.8	4	-1E+10	1	-1E+10	1	-1E+10	1	-1E+10	1	-1E+10	1	-1E+10	1
4902549	112	C	09/20/2023	15:58	-133.042	47.754	0	9.00	0	16.5120	0	32.4170	0	23.647	0	8.924	0	237.0	4	96.8	4	-1E+10	1	-1E+10	1	-1E+10	1	-1E+10	1	-1E+10	1	-1E+10	1
4902549	112	C	09/20/2023	15:58	-133.042	47.754	0	10.40	0	16.5110	0	32.4170	0	23.647	0	10.313	0	237.1	4	96.8	4	-1E+10	1	-1E+10	1	-1E+10	1	-1E+10	1	-1E+10	1	-1E+10	1
4902549	112	C	09/20/2023	15:58	-133.042	47.754	0	11.30	0	16.5120	0	32.4170	0	23.647	0	11.205	0	237.2	4	96.8	4	-1E+10	1	-1E+10	1	-1E+10	1	-1E+10	1	-1E+10	1	-1E+10	1
4902549	112	C	09/20/2023	15:58	-133.042	47.754	0	12.20	0	16.5100	0	32.4170	0	23.647	0	12.098	0	237.2	4	96.8	4	-1E+10	1	-1E+10	1	-1E+10	1	-1E+10	1	-1E+10	1	-1E+10	1
4902549	112	C	09/20/2023	15:58	-133.042	47.754	0	13.10	0	16.5110	0	32.4170	0	23.647	0	12.990	0	237.1	4	96.8	4	-1E+10	1	-1E+10	1	-1E+10	1	-1E+10	1	-1E+10	1	-1E+10	1
4902549	112	C	09/20/2023	15:58	-133.042	47.754	0	14.10	0	16.5100	0	32.4170	0	23.647	0	13.982	0	237.2	4	96.9	4	-1E+10	1	-1E+10	1	-1E+10	1	-1E+10	1	-1E+10	1	-1E+10	1
4902549	112	C	09/20/2023	15:58	-133.042	47.754	0	15.00	0	16.5090	0	32.4170	0	23.648	0	14.874	0	237.2	4	96.9	4	-1E+10	1	-1E+10	1	-1E+10	1	-1E+10	1	-1E+10	1	-1E+10	1
4902549	112	C	09/20/2023	15:58	-133.042	47.754	0	15.90	0	16.5100	0	32.4170	0	23.648	0	15.766	0	237.2	4	96.8	4	-1E+10	1	-1E+10	1	-1E+10	1	-1E+10	1	-1E+10	1	-1E+10	1
4902549	112	C	09/20/2023	15:58	-133.042	47.754	0	16.80	0	16.5110	0	32.4170	0	23.647	0	16.659	0	237.3	4	96.9	4	-1E+10	1	-1E+10	1	-1E+10	1	-1E+10	1	-1E+10	1	-1E+10	1
4902549	112	C	09/20/2023	15:58	-133.042	47.754	0	18.00	0	16.5100	0	32.4170	0	23.648	0	17.849	0	237.5	4	97.0	4	-1E+10	1	-1E+10	1	-1E+10	1	-1E+10	1	-1E+10	1	-1E+10	1
4902549	112	C	09/20/2023	15:58	-133.042	47.754	0	19.20	0	16.5100	0	32.4170	0	23.648	0	19.038	0	237.3	4	96.9	4	-1E+10	1	-1E+10	1	-1E+10	1	-1E+10	1	-1E+10	1	-1E+10	1
4902549	112	C	09/20/2023	15:58	-133.042	47.754	0	19.80	0	16.5100	0	32.4180	0	23.648	0	19.633	0	237.5	4	97.0	4	-1E+10	1	-1E+10	1	-1E+10	1	-1E+10	1	-1E+10	1	-1E+10	1
4902549	112	C	09/20/2023	15:58	-133.042	47.754	0	20.80	0	16.5090	0	32.4170	0	23.648	0	20.625	0	237.6	4	97.0	4	-1E+10	1	-1E+10	1	-1E+10	1	-1E+10	1	-1E+10	1	-1E+10	1
4902549	112	C	09/20/2023	15:58	-133.042	47.754	0	21.90	0	16.5090	0	32.4170	0	23.648	0	21.716	0	237.6	4	97.0	4	-1E+10	1	-1E+10	1	-1E+10	1	-1E+10	1	-1E+10	1	-1E+10	1
4902549	112	C	09/20/2023	15:58	-133.042	47.754	0	23.00	0	16.5090	0	32.4170	0	23.648	0	22.806	0	237.7	4	97.1	4	-1E+10	1	-1E+10	1	-1E+10	1	-1E+10	1	-1E+10	1	-1E+10	1
4902549	112	C	09/20/2023	15:58	-133.042	47.754	0	24.20	0	16.5120	0	32.4170	0	23.647	0	23.996	0	237.8	4	97.1	4	-1E+10	1	-1E+10	1	-1E+10	1	-1E+10	1	-1E+10	1	-1E+10	1
4902549	112	C	09/20/2023	15:58	-133.042	47.754	0	24.90	0	16.5120	0	32.4180	0	23.648	0	24.690	0	237.9	4	97.1	4	-1E+10	1	-1E+10	1	-1E+10	1	-1E+10	1	-1E+10	1	-1E+10	1
4902549	112	C	09/20/2023	15:58	-133.042	47.754	0	25.90	0	16.5130	0	32.4170	0	23.647	0	25.682	0	238.1	4	97.2	4	-1E+10	1	-1E+10	1	-1E+10	1	-1E+10	1	-1E+10	1	-1E+10	1
4902549	112	C	09/20/2023	15:58	-133.042	47.754	0	27.00	0	16.5130	0	32.4160	0	23.646	0	26.772	0	238.4	4	97.3	4	-1E+10	1	-1E+10	1	-1E+10	1	-1E+10	1	-1E+10	1	-1E+10	1
4902549	112	C	09/20/2023	15:58	-133.042	47.754	0	28.00	0	16.5110	0	32.4170	0	23.648	0	27.764	0	238.6	4	97.4	4	-1E+10	1	-1E+10	1	-1E+10	1	-1E+10	1	-1E+10	1	-1E+10	1
4902549	112	C	09/20/2023	15:58	-133.042	47.754	0	29.00	0	16.5120	0	32.4170	0	23.648	0	28.755	0	238.9	4	97.5	4	-1E+10	1	-1E+10	1	-1E+10	1	-1E+10	1	-1E+10	1	-1E+10	1
4902549	112	C	09/20/2023	15:58	-133.042	47.754	0	29.90	0	16.5120	0	32.4170	0	23.648	0	29.648	0	239.4	4	97.7	4	-1E+10	1	-1E+10	1	-1E+10	1	-1E+10	1	-1E+10	1	-1E+10	1
4902549	112	C	09/20/2023	15:58	-133.042	47.754	0	31.10	0	16.5120	0	32.4160	0	23.647	0	30.837	0	240.0	4	98.0	4	-1E+10	1	-1E+10	1	-1E+10	1	-1E+10	1	-1E+10	1	-1E+10	1
4902549	112	C	09/20/2023	15:58	-133.042	47.754	0	32.40	0	16.3580	0	32.4050	0	23.674	0	32.126	0	250.3	4	101.9	4	-1E+10	1	-1E+10	1	-1E+10	1	-1E+10	1	-1E+10	1	-1E+10	1
4902549	112	C	09/20/2023	15:58	-133.042	47.754	0	32.90	0	16.2190	0	32.3980	0	23.700	0	32.622	0	253.7	4	103.0	4	-1E+10	1	-1E+10	1	-1E+10	1	-1E+10	1	-1E+10	1	-1E+10	1
4902549	112	C	09/20/2023	15:58	-133.042	47.754	0	33.80	0	15.5740	0	32.3640	0	23.818	0	33.514	0	260.8	4	104.5	4	-1E+10	1	-1E+10	1	-1E+10	1	-1E+10	1	-1E+10	1	-1E+10	1
4902549	112	C	09/20/2023	15:58	-133.042	47.754	0	34.90	0	14.5740	0	32.3800	0	24.045	0	34.605	0	268.2	4	105.4	4	-1E+10	1	-1E+10	1	-1E+10	1	-1E+10	1	-1E+10	1	-1E+10	1
4902549	112	C	09/20/2023	15:58	-133.042	47.754	0	36.10	0	13.7260	0	32.3830	0	24.223	0	35.795	0	275.3	4	106.4	4	-1E+10	1	-1E+10	1	-1E+10	1	-1E+10	1	-1E+10	1	-1E+10	1
4902549	112	C	09/20/2023	15:58	-133.042	47.754	0	37.10	0	12.7280	0	32.4270	0	24.455	0	36.786	0	282.1	4	106.8	4	-1E+10	1	-1E+10	1	-1E+10	1	-1E+10	1	-1E+10	1	-1E+10	1
4902549	112	C	09/20/2023	15:58	-133.042	47.754	0	37.90	0	12.4630	0	32.3950	0	24.481	0	37.579	0	283.6	4	106.8	4	-1E+10	1	-1E+10	1	-1E+10	1	-1E+10	1	-1E+10	1	-1E+10	1
4902549	112	C	09/20/2023	15:58	-133.042	47.754	0	38.80	0	12.2410	0	32.4100	0	24.535	0	38.472	0	283.8	4	106.4	4	-1E+10	1	-1E+10	1	-1E+10	1	-1E+10	1	-1E+10	1	-1E+10	1
4902549	112	C	09/20/2023	15:58	-133.042	47.754	0	39.80	0	11.9630	0	32.3830	0	24.566	0	39.463	0	283.5	4	105.6	4	-1E+10	1	-1E+10	1	-1E+10	1	-1E+10	1	-1E+10	1	-1E+10	1
4902549	112	C	09/20/2023	15:58	-133.042	47.754	0	40.80	0	11.4520	0	32.4320	0	24.697	0	40.455	0	284.6	4	105.0	4	-1E+10	1	-1E+10	1	-1E+10	1	-1E+10	1	-1E+10	1	-1E+10	1
4902549	112	C	09/20/2023	15:58	-133.042	47.754	0	42.00	0	11.2460	0	32.4080	0	24.715	0	41.644	0	284.7	4	104.5	4	-1E+10	1	-1E+10	1	-1E+10	1	-1E+10	1	-1E+10	1	-1E+10	1
4902549	112	C	09/20/2023	15:58	-133.042	47.754	0	43.00	0	11.1430	0	32.4110	0	24.736	0	42.636	0	284.0	4	104.0	4	-1E+10	1	-1E+10	1	-1E+10	1	-1E+10	1	-1E+10	1	-1E+10	1
4902549	112	C	09/20/2023	15:58	-133.042	47.754	0	44.00	0	10.9730	0	32.4110	0	24.766	0	43.627	0	283.9	4	103.6	4	-1E+10	1	-1E+10	1	-1E+10	1	-1E+10	1	-1E+10	1	-1E+10	1
4902549	112	C	09/20/2023	15:58	-133.042	47.754	0	45.00	0	10.6330	0	32.4220	0	24.834	0	44.619	0	284.3	4	103.0	4	-1E+10	1	-1E+10	1	-1E+10	1	-1E+10	1	-1E+10	1	-1E+10	1
4902549	112	C	09/20/2023	15:58	-133.042	47.754	0	45.90	0	10.5570	0	32.4160	0	24.842	0	45.511	0	284.3	4	102.8	4	-1E+10	1	-1E+10	1	-1E+10	1	-1E+10	1	-1E+10	1	-1E+10	1
4902549	112	C	09/20/2023	15:58	-133.042	47.754	0	47.00	0	10.4210	0	32.4180	0	24.867	0	46.601	0	283.5	4	102.3	4	-1E+10	1	-1E+10	1	-1E+10	1	-1E+10	1	-1E+10	1	-1E+10	1
4902549	112	C	09/20/2023	15:58	-133.042	47.754	0	48.00	0	10.3060	0	32.4260	0	24.893	0	47.593	0	282.0	4	101.5	4	-1E+10	1	-1E+10	1	-1E+10	1	-1E+10	1	-1E+10	1	-1E+10	1
4902549	112	C	09/20/2023	15:58	-133.042	47.754	0	49.20	0	9.9150	0	32.4240	0	24.956	0	48.782	0	281.6	4	100.5	4	-1E+10	1	-1E+10	1	-1E+10	1	-1E+10	1	-1E+10	1	-1E+10	1
4902549	112	C	09/20/2023	15:58	-133.042	47.754	0	50.00	0	9.5750	0	32.4310	0	25.017	0	49.576	0	281.6	4	99.8	4	-1E+10	1	-1E+10	1	-1E+10	1	-1E+10	1	-1E+10	1	-1E+10	1
4902549	112	C	09/20/2023	15:58	-133.042	47.754	0	51.10	0	9.2120	0	32.4390	0	25.081	0	50.666	0	280.0	4	98.4	4	-1E+10	1	-1E+10	1	-1E+10	1	-1E+10	1	-1E+10	1	-1E+10	1
4902549	112	C	09/20/2023	15:58	-133.042	47.754	0	52.10	0	8.9540	0	32.4410	0	25.123	0	51.657	0	279.3	4	97.6	4	-1E+10	1	-1E+10	1	-1E+10	1	-1E+10	1	-1E+10	1	-1E+10	1
4902549	112	C	09/20/2023	15:58	-133.042	47.754	0	53.00	0	8.8920	0	32.4410	0	25.133	0	52.550	0	278.4	4	97.2	4	-1E+10	1	-1E+10	1	-1E+10	1	-1E+10	1	-1E+10	1	-1E+10	1
4902549	112	C	09/20/2023	15:58	-133.042	47.754	0	54.20	0	8.8470	0	32.4400	0	25.139	0	53.739	0	277.3	4	96.7	4	-1E+10	1	-1E+10	1	-1E+10	1	-1E+10	1	-1E+10	1	-1E+10	1
4902549	112	C	09/20/2023	15:58	-133.042	47.754	0	55.00	0	8.7350	0	32.4460	0	25.161	0	54.532	0	277.0	4	96.3	4	-1E+10	1	-1E+10	1	-1E+10	1	-1E+10	1	-1E+10	1	-1E+10	1
4902549	112	C	09/20/2023	15:58	-133.042	47.754	0	55.90	0	8.6680	0	32.4450	0	25.170	0	55.425	0	276.6	4	96.1	4	-1E+10	1	-1E+10	1	-1E+10	1	-1E+10	1	-1E+10	1	-1E+10	1
4902549	112	C	09/20/2023	15:58	-133.042	47.754	0	57.30	0	8.5400	0	32.4440	0	25.189	0	56.813	0	276.4	4	95.7	4	-1E+10	1	-1E+10	1	-1E+10	1	-1E+10	1	-1E+10	1	-1E+10	1
4902549	112	C	09/20/2023	15:58	-133.042	47.754	0	58.00	0	8.4900	0	32.4370	0	25.191	0	57.507	0	276.3	4	95.6	4	-1E+10	1	-1E+10	1	-1E+10	1	-1E+10	1	-1E+10	1	-1E+10	1
4902549	112	C	09/20/2023	15:58	-133.042	47.754	0	59.10	0	8.3630	0	32.4360	0	25.209	0	58.597	0	276.1	4	95.2	4	-1E+10	1	-1E+10	1	-1E+10	1	-1E+10	1	-1E+10	1	-1E+10	1
4902549	112	C	09/20/2023	15:58	-133.042	47.754	0	60.10	0	8.2390	0	32.4270	0	25.220	0	59.588	0	275.5	4	94.7	4	-1E+10	1	-1E+10	1	-1E+10	1	-1E+10	1	-1E+10	1	-1E+10	1
4902549	112	C	09/20/2023	15:58	-133.042	47.754	0	60.90	0	8.1490	0	32.4220	0	25.229	0	60.381	0	275.0	4	94.4	4	-1E+10	1	-1E+10	1	-1E+10	1	-1E+10	1	-1E+10	1	-1E+10	1
4902549	112	C	09/20/2023	15:58	-133.042	47.754	0	61.70	0	8.0750	0	32.4270	0	25.244	0	61.174	0	274.3	4	94.0	4	-1E+10	1	-1E+10	1	-1E+10	1	-1E+10	1	-1E+10	1	-1E+10	1
4902549	112	C	09/20/2023	15:58	-133.042	47.754	0	62.70	0	7.9190	0	32.4210	0	25.262	0	62.166	0	273.7	4	93.4	4	-1E+10	1	-1E+10	1	-1E+10	1	-1E+10	1	-1E+10	1	-1E+10	1
4902549	112	C	09/20/2023	15:58	-133.042	47.754	0	63.70	0	7.8870	0	32.4270	0	25.271	0	63.157	0	272.6	4	93.0	4	-1E+10	1	-1E+10	1	-1E+10	1	-1E+10	1	-1E+10	1	-1E+10	1
4902549	112	C	09/20/2023	15:58	-133.042	47.754	0	65.10	0	7.9170	0	32.4450	0	25.281	0	64.545	0	270.9	4	92.5	4	-1E+10	1	-1E+10	1	-1E+10	1	-1E+10	1	-1E+10	1	-1E+10	1
4902549	112	C	09/20/2023	15:58	-133.042	47.754	0	66.10	0	7.9090	0	32.4480	0	25.284	0	65.536	0	270.0	4	92.2	4	-1E+10	1	-1E+10	1	-1E+10	1	-1E+10	1	-1E+10	1	-1E+10	1
4902549	112	C	09/20/2023	15:58	-133.042	47.754	0	67.30	0	7.8440	0	32.4490	0	25.294	0	66.726	0	269.2	4	91.8	4	-1E+10	1	-1E+10	1	-1E+10	1	-1E+10	1	-1E+10	1	-1E+10	1
4902549	112	C	09/20/2023	15:58	-133.042	47.754	0	68.00	0	7.8400	0	32.4500	0	25.296	0	67.420	0	268.6	4	91.6	4	-1E+10	1	-1E+10	1	-1E+10	1	-1E+10	1	-1E+10	1	-1E+10	1
4902549	112	C	09/20/2023	15:58	-133.042	47.754	0	69.00	0	7.8360	0	32.4550	0	25.300	0	68.411	0	268.1	4	91.4	4	-1E+10	1	-1E+10	1	-1E+10	1	-1E+10	1	-1E+10	1	-1E+10	1
4902549	112	C	09/20/2023	15:58	-133.042	47.754	0	70.20	0	7.7520	0	32.4610	0	25.317	0	69.601	0	267.8	4	91.1	4	-1E+10	1	-1E+10	1	-1E+10	1	-1E+10	1	-1E+10	1	-1E+10	1
4902549	112	C	09/20/2023	15:58	-133.042	47.754	0	70.90	0	7.7460	0	32.4570	0	25.315	0	70.295	0	267.6	4	91.0	4	-1E+10	1	-1E+10	1	-1E+10	1	-1E+10	1	-1E+10	1	-1E+10	1
4902549	112	C	09/20/2023	15:58	-133.042	47.754	0	72.00	0	7.7330	0	32.4570	0	25.317	0	71.385	0	267.1	4	90.8	4	-1E+10	1	-1E+10	1	-1E+10	1	-1E+10	1	-1E+10	1	-1E+10	1
4902549	112	C	09/20/2023	15:58	-133.042	47.754	0	73.00	0	7.6960	0	32.4570	0	25.322	0	72.376	0	266.8	4	90.6	4	-1E+10	1	-1E+10	1	-1E+10	1	-1E+10	1	-1E+10	1	-1E+10	1
4902549	112	C	09/20/2023	15:58	-133.042	47.754	0	74.00	0	7.6490	0	32.4540	0	25.326	0	73.368	0	266.5	4	90.5	4	-1E+10	1	-1E+10	1	-1E+10	1	-1E+10	1	-1E+10	1	-1E+10	1
4902549	112	C	09/20/2023	15:58	-133.042	47.754	0	75.10	0	7.6350	0	32.4530	0	25.327	0	74.458	0	266.0	4	90.3	4	-1E+10	1	-1E+10	1	-1E+10	1	-1E+10	1	-1E+10	1	-1E+10	1
4902549	112	C	09/20/2023	15:58	-133.042	47.754	0	75.90	0	7.6420	0	32.4550	0	25.328	0	75.251	0	265.4	4	90.1	4	-1E+10	1	-1E+10	1	-1E+10	1	-1E+10	1	-1E+10	1	-1E+10	1
4902549	112	C	09/20/2023	15:58	-133.042	47.754	0	76.70	0	7.6170	0	32.4590	0	25.334	0	76.044	0	265.2	4	89.9	4	-1E+10	1	-1E+10	1	-1E+10	1	-1E+10	1	-1E+10	1	-1E+10	1
4902549	112	C	09/20/2023	15:58	-133.042	47.754	0	77.80	0	7.5770	0	32.4610	0	25.342	0	77.134	0	265.0	4	89.8	4	-1E+10	1	-1E+10	1	-1E+10	1	-1E+10	1	-1E+10	1	-1E+10	1
4902549	112	C	09/20/2023	15:58	-133.042	47.754	0	78.90	0	7.5630	0	32.4660	0	25.348	0	78.225	0	264.8	4	89.7	4	-1E+10	1	-1E+10	1	-1E+10	1	-1E+10	1	-1E+10	1	-1E+10	1
4902549	112	C	09/20/2023	15:58	-133.042	47.754	0	80.00	0	7.5480	0	32.4650	0	25.349	0	79.315	0	264.7	4	89.6	4	-1E+10	1	-1E+10	1	-1E+10	1	-1E+10	1	-1E+10	1	-1E+10	1
4902549	112	C	09/20/2023	15:58	-133.042	47.754	0	80.90	0	7.5290	0	32.4660	0	25.352	0	80.207	0	264.6	4	89.6	4	-1E+10	1	-1E+10	1	-1E+10	1	-1E+10	1	-1E+10	1	-1E+10	1
4902549	112	C	09/20/2023	15:58	-133.042	47.754	0	81.70	0	7.5220	0	32.4670	0	25.354	0	81.000	0	264.4	4	89.5	4	-1E+10	1	-1E+10	1	-1E+10	1	-1E+10	1	-1E+10	1	-1E+10	1
4902549	112	C	09/20/2023	15:58	-133.042	47.754	0	82.90	0	7.5160	0	32.4690	0	25.357	0	82.190	0	270.9	4	91.7	4	-1E+10	1	-1E+10	1	-1E+10	1	-1E+10	1	-1E+10	1	-1E+10	1
4902549	112	C	09/20/2023	15:58	-133.042	47.754	0	84.00	0	7.5110	0	32.4700	0	25.358	0	83.280	0	270.7	4	91.6	4	-1E+10	1	-1E+10	1	-1E+10	1	-1E+10	1	-1E+10	1	-1E+10	1
4902549	112	C	09/20/2023	15:58	-133.042	47.754	0	84.90	0	7.5050	0	32.4700	0	25.359	0	84.172	0	270.5	4	91.5	4	-1E+10	1	-1E+10	1	-1E+10	1	-1E+10	1	-1E+10	1	-1E+10	1
4902549	112	C	09/20/2023	15:58	-133.042	47.754	0	85.80	0	7.4960	0	32.4720	0	25.362	0	85.064	0	270.4	4	91.5	4	-1E+10	1	-1E+10	1	-1E+10	1	-1E+10	1	-1E+10	1	-1E+10	1
4902549	112	C	09/20/2023	15:58	-133.042	47.754	0	87.00	0	7.4710	0	32.4740	0	25.367	0	86.254	0	270.3	4	91.4	4	-1E+10	1	-1E+10	1	-1E+10	1	-1E+10	1	-1E+10	1	-1E+10	1
4902549	112	C	09/20/2023	15:58	-133.042	47.754	0	88.00	0	7.4550	0	32.4770	0	25.371	0	87.245	0	270.2	4	91.3	4	-1E+10	1	-1E+10	1	-1E+10	1	-1E+10	1	-1E+10	1	-1E+10	1
4902549	112	C	09/20/2023	15:58	-133.042	47.754	0	88.90	0	7.4460	0	32.4810	0	25.376	0	88.137	0	270.1	4	91.3	4	-1E+10	1	-1E+10	1	-1E+10	1	-1E+10	1	-1E+10	1	-1E+10	1
4902549	112	C	09/20/2023	15:58	-133.042	47.754	0	89.80	0	7.4470	0	32.4830	0	25.377	0	89.029	0	269.9	4	91.2	4	-1E+10	1	-1E+10	1	-1E+10	1	-1E+10	1	-1E+10	1	-1E+10	1
4902549	112	C	09/20/2023	15:58	-133.042	47.754	0	90.80	0	7.4030	0	32.4840	0	25.384	0	90.020	0	269.9	4	91.1	4	-1E+10	1	-1E+10	1	-1E+10	1	-1E+10	1	-1E+10	1	-1E+10	1
4902549	112	C	09/20/2023	15:58	-133.042	47.754	0	92.10	0	7.4030	0	32.4900	0	25.389	0	91.309	0	269.7	4	91.1	4	-1E+10	1	-1E+10	1	-1E+10	1	-1E+10	1	-1E+10	1	-1E+10	1
4902549	112	C	09/20/2023	15:58	-133.042	47.754	0	93.10	0	7.3820	0	32.4910	0	25.392	0	92.300	0	269.6	4	91.0	4	-1E+10	1	-1E+10	1	-1E+10	1	-1E+10	1	-1E+10	1	-1E+10	1
4902549	112	C	09/20/2023	15:58	-133.042	47.754	0	94.00	0	7.3700	0	32.4920	0	25.395	0	93.192	0	269.4	4	90.9	4	-1E+10	1	-1E+10	1	-1E+10	1	-1E+10	1	-1E+10	1	-1E+10	1
4902549	112	C	09/20/2023	15:58	-133.042	47.754	0	94.90	0	7.3620	0	32.4900	0	25.394	0	94.084	0	269.3	4	90.8	4	-1E+10	1	-1E+10	1	-1E+10	1	-1E+10	1	-1E+10	1	-1E+10	1
4902549	112	C	09/20/2023	15:58	-133.042	47.754	0	95.70	0	7.3570	0	32.4920	0	25.397	0	94.877	0	268.8	4	90.7	4	-1E+10	1	-1E+10	1	-1E+10	1	-1E+10	1	-1E+10	1	-1E+10	1
4902549	112	C	09/20/2023	15:58	-133.042	47.754	0	96.80	0	7.3510	0	32.4940	0	25.399	0	95.967	0	268.1	4	90.4	4	-1E+10	1	-1E+10	1	-1E+10	1	-1E+10	1	-1E+10	1	-1E+10	1
4902549	112	C	09/20/2023	15:58	-133.042	47.754	0	98.00	0	7.3400	0	32.4990	0	25.405	0	97.157	0	267.5	4	90.2	4	-1E+10	1	-1E+10	1	-1E+10	1	-1E+10	1	-1E+10	1	-1E+10	1
4902549	112	C	09/20/2023	15:58	-133.042	47.754	0	98.90	0	7.3360	0	32.5010	0	25.407	0	98.049	0	266.8	4	89.9	4	-1E+10	1	-1E+10	1	-1E+10	1	-1E+10	1	-1E+10	1	-1E+10	1
4902549	112	C	09/20/2023	15:58	-133.042	47.754	0	100.00	0	7.3270	0	32.5070	0	25.413	0	99.139	0	265.8	4	89.6	4	-1E+10	1	-1E+10	1	-1E+10	1	-1E+10	1	-1E+10	1	-1E+10	1
4902549	112	C	09/20/2023	15:58	-133.042	47.754	0	101.10	0	7.3070	0	32.5170	0	25.423	0	100.229	0	264.7	4	89.2	4	-1E+10	1	-1E+10	1	-1E+10	1	-1E+10	1	-1E+10	1	-1E+10	1
4902549	112	C	09/20/2023	15:58	-133.042	47.754	0	102.00	0	7.2970	0	32.5220	0	25.429	0	101.121	0	263.9	4	88.9	4	-1E+10	1	-1E+10	1	-1E+10	1	-1E+10	1	-1E+10	1	-1E+10	1
4902549	112	C	09/20/2023	15:58	-133.042	47.754	0	103.10	0	7.2460	0	32.5220	0	25.436	0	102.212	0	262.9	4	88.5	4	-1E+10	1	-1E+10	1	-1E+10	1	-1E+10	1	-1E+10	1	-1E+10	1
4902549	112	C	09/20/2023	15:58	-133.042	47.754	0	104.00	0	7.2220	0	32.5310	0	25.446	0	103.104	0	261.8	4	88.1	4	-1E+10	1	-1E+10	1	-1E+10	1	-1E+10	1	-1E+10	1	-1E+10	1
4902549	112	C	09/20/2023	15:58	-133.042	47.754	0	104.90	0	7.1970	0	32.5380	0	25.455	0	103.996	0	260.5	4	87.6	4	-1E+10	1	-1E+10	1	-1E+10	1	-1E+10	1	-1E+10	1	-1E+10	1
4902549	112	C	09/20/2023	15:58	-133.042	47.754	0	105.80	0	7.1840	0	32.5560	0	25.471	0	104.888	0	259.0	4	87.1	4	-1E+10	1	-1E+10	1	-1E+10	1	-1E+10	1	-1E+10	1	-1E+10	1
4902549	112	C	09/20/2023	15:58	-133.042	47.754	0	106.80	0	7.1750	0	32.5680	0	25.481	0	105.879	0	257.2	4	86.5	4	-1E+10	1	-1E+10	1	-1E+10	1	-1E+10	1	-1E+10	1	-1E+10	1
4902549	112	C	09/20/2023	15:58	-133.042	47.754	0	107.80	0	7.1580	0	32.5870	0	25.499	0	106.870	0	255.6	4	85.9	4	-1E+10	1	-1E+10	1	-1E+10	1	-1E+10	1	-1E+10	1	-1E+10	1
4902549	112	C	09/20/2023	15:58	-133.042	47.754	0	108.80	0	7.1330	0	32.5970	0	25.510	0	107.861	0	253.7	4	85.2	4	-1E+10	1	-1E+10	1	-1E+10	1	-1E+10	1	-1E+10	1	-1E+10	1
4902549	112	C	09/20/2023	15:58	-133.042	47.754	0	109.80	0	7.1110	0	32.6110	0	25.524	0	108.852	0	251.8	4	84.5	4	-1E+10	1	-1E+10	1	-1E+10	1	-1E+10	1	-1E+10	1	-1E+10	1
4902549	112	C	09/20/2023	15:58	-133.042	47.754	0	111.10	0	7.0950	0	32.6330	0	25.543	0	110.141	0	249.3	4	83.7	4	-1E+10	1	-1E+10	1	-1E+10	1	-1E+10	1	-1E+10	1	-1E+10	1
4902549	112	C	09/20/2023	15:58	-133.042	47.754	0	112.20	0	7.0630	0	32.6670	0	25.574	0	111.231	0	246.9	4	82.8	4	-1E+10	1	-1E+10	1	-1E+10	1	-1E+10	1	-1E+10	1	-1E+10	1
4902549	112	C	09/20/2023	15:58	-133.042	47.754	0	112.80	0	7.0360	0	32.6880	0	25.595	0	111.825	0	246.1	4	82.5	4	-1E+10	1	-1E+10	1	-1E+10	1	-1E+10	1	-1E+10	1	-1E+10	1
4902549	112	C	09/20/2023	15:58	-133.042	47.754	0	113.70	0	7.0210	0	32.6940	0	25.601	0	112.717	0	244.1	4	81.8	4	-1E+10	1	-1E+10	1	-1E+10	1	-1E+10	1	-1E+10	1	-1E+10	1
4902549	112	C	09/20/2023	15:58	-133.042	47.754	0	114.80	0	6.9320	0	32.7730	0	25.675	0	113.808	0	242.9	4	81.3	4	-1E+10	1	-1E+10	1	-1E+10	1	-1E+10	1	-1E+10	1	-1E+10	1
4902549	112	C	09/20/2023	15:58	-133.042	47.754	0	115.90	0	6.9220	0	32.7880	0	25.689	0	114.898	0	241.4	4	80.8	4	-1E+10	1	-1E+10	1	-1E+10	1	-1E+10	1	-1E+10	1	-1E+10	1
4902549	112	C	09/20/2023	15:58	-133.042	47.754	0	116.90	0	6.9100	0	32.7960	0	25.697	0	115.889	0	239.8	4	80.2	4	-1E+10	1	-1E+10	1	-1E+10	1	-1E+10	1	-1E+10	1	-1E+10	1
4902549	112	C	09/20/2023	15:58	-133.042	47.754	0	118.00	0	6.8960	0	32.8040	0	25.705	0	116.979	0	238.0	4	79.6	4	-1E+10	1	-1E+10	1	-1E+10	1	-1E+10	1	-1E+10	1	-1E+10	1
4902549	112	C	09/20/2023	15:58	-133.042	47.754	0	118.90	0	6.8290	0	32.8240	0	25.729	0	117.871	0	236.9	4	79.2	4	-1E+10	1	-1E+10	1	-1E+10	1	-1E+10	1	-1E+10	1	-1E+10	1
4902549	112	C	09/20/2023	15:58	-133.042	47.754	0	119.80	0	6.7200	0	32.8730	0	25.782	0	118.763	0	236.5	4	78.8	4	-1E+10	1	-1E+10	1	-1E+10	1	-1E+10	1	-1E+10	1	-1E+10	1
4902549	112	C	09/20/2023	15:58	-133.042	47.754	0	120.80	0	6.7090	0	32.9110	0	25.814	0	119.754	0	235.6	4	78.5	4	-1E+10	1	-1E+10	1	-1E+10	1	-1E+10	1	-1E+10	1	-1E+10	1
4902549	112	C	09/20/2023	15:58	-133.042	47.754	0	121.80	0	6.6580	0	32.9640	0	25.862	0	120.745	0	235.1	4	78.3	4	-1E+10	1	-1E+10	1	-1E+10	1	-1E+10	1	-1E+10	1	-1E+10	1
4902549	112	C	09/20/2023	15:58	-133.042	47.754	0	123.00	0	6.6370	0	32.9700	0	25.870	0	121.934	0	234.6	4	78.1	4	-1E+10	1	-1E+10	1	-1E+10	1	-1E+10	1	-1E+10	1	-1E+10	1
4902549	112	C	09/20/2023	15:58	-133.042	47.754	0	124.00	0	6.6360	0	32.9690	0	25.869	0	122.925	0	233.6	4	77.8	4	-1E+10	1	-1E+10	1	-1E+10	1	-1E+10	1	-1E+10	1	-1E+10	1
4902549	112	C	09/20/2023	15:58	-133.042	47.754	0	125.20	0	6.6330	0	32.9680	0	25.869	0	124.115	0	232.6	4	77.4	4	-1E+10	1	-1E+10	1	-1E+10	1	-1E+10	1	-1E+10	1	-1E+10	1
4902549	112	C	09/20/2023	15:58	-133.042	47.754	0	125.90	0	6.5980	0	32.9870	0	25.888	0	124.808	0	231.8	4	77.1	4	-1E+10	1	-1E+10	1	-1E+10	1	-1E+10	1	-1E+10	1	-1E+10	1
4902549	112	C	09/20/2023	15:58	-133.042	47.754	0	126.70	0	6.5360	0	33.0140	0	25.917	0	125.601	0	231.5	4	76.9	4	-1E+10	1	-1E+10	1	-1E+10	1	-1E+10	1	-1E+10	1	-1E+10	1
4902549	112	C	09/20/2023	15:58	-133.042	47.754	0	127.90	0	6.4740	0	33.0540	0	25.957	0	126.790	0	231.1	4	76.7	4	-1E+10	1	-1E+10	1	-1E+10	1	-1E+10	1	-1E+10	1	-1E+10	1
4902549	112	C	09/20/2023	15:58	-133.042	47.754	0	129.20	0	6.4530	0	33.0690	0	25.971	0	128.079	0	230.6	4	76.5	4	-1E+10	1	-1E+10	1	-1E+10	1	-1E+10	1	-1E+10	1	-1E+10	1
4902549	112	C	09/20/2023	15:58	-133.042	47.754	0	130.00	0	6.4480	0	33.0690	0	25.972	0	128.871	0	230.2	4	76.4	4	-1E+10	1	-1E+10	1	-1E+10	1	-1E+10	1	-1E+10	1	-1E+10	1
4902549	112	C	09/20/2023	15:58	-133.042	47.754	0	130.80	0	6.4370	0	33.0730	0	25.977	0	129.664	0	229.8	4	76.2	4	-1E+10	1	-1E+10	1	-1E+10	1	-1E+10	1	-1E+10	1	-1E+10	1
4902549	112	C	09/20/2023	15:58	-133.042	47.754	0	132.00	0	6.4300	0	33.0830	0	25.986	0	130.853	0	229.2	4	76.0	4	-1E+10	1	-1E+10	1	-1E+10	1	-1E+10	1	-1E+10	1	-1E+10	1
4902549	112	C	09/20/2023	15:58	-133.042	47.754	0	133.20	0	6.4200	0	33.0960	0	25.997	0	132.043	0	228.2	4	75.7	4	-1E+10	1	-1E+10	1	-1E+10	1	-1E+10	1	-1E+10	1	-1E+10	1
4902549	112	C	09/20/2023	15:58	-133.042	47.754	0	134.00	0	6.4210	0	33.1060	0	26.005	0	132.835	0	227.7	4	75.5	4	-1E+10	1	-1E+10	1	-1E+10	1	-1E+10	1	-1E+10	1	-1E+10	1
4902549	112	C	09/20/2023	15:58	-133.042	47.754	0	134.90	0	6.4230	0	33.1160	0	26.012	0	133.727	0	226.9	4	75.3	4	-1E+10	1	-1E+10	1	-1E+10	1	-1E+10	1	-1E+10	1	-1E+10	1
4902549	112	C	09/20/2023	15:58	-133.042	47.754	0	135.70	0	6.4070	0	33.1350	0	26.030	0	134.520	0	226.2	4	75.0	4	-1E+10	1	-1E+10	1	-1E+10	1	-1E+10	1	-1E+10	1	-1E+10	1
4902549	112	C	09/20/2023	15:58	-133.042	47.754	0	136.60	0	6.3770	0	33.1490	0	26.044	0	135.412	0	225.6	4	74.8	4	-1E+10	1	-1E+10	1	-1E+10	1	-1E+10	1	-1E+10	1	-1E+10	1
4902549	112	C	09/20/2023	15:58	-133.042	47.754	0	137.90	0	6.3530	0	33.1590	0	26.055	0	136.700	0	224.5	4	74.3	4	-1E+10	1	-1E+10	1	-1E+10	1	-1E+10	1	-1E+10	1	-1E+10	1
4902549	112	C	09/20/2023	15:58	-133.042	47.754	0	139.20	0	6.3350	0	33.1720	0	26.068	0	137.988	0	223.1	4	73.9	4	-1E+10	1	-1E+10	1	-1E+10	1	-1E+10	1	-1E+10	1	-1E+10	1
4902549	112	C	09/20/2023	15:58	-133.042	47.754	0	140.10	0	6.3040	0	33.1820	0	26.080	0	138.880	0	222.2	4	73.5	4	-1E+10	1	-1E+10	1	-1E+10	1	-1E+10	1	-1E+10	1	-1E+10	1
4902549	112	C	09/20/2023	15:58	-133.042	47.754	0	141.00	0	6.2530	0	33.1990	0	26.100	0	139.772	0	221.6	4	73.2	4	-1E+10	1	-1E+10	1	-1E+10	1	-1E+10	1	-1E+10	1	-1E+10	1
4902549	112	C	09/20/2023	15:58	-133.042	47.754	0	141.80	0	6.2150	0	33.2330	0	26.131	0	140.565	0	220.7	4	72.9	4	-1E+10	1	-1E+10	1	-1E+10	1	-1E+10	1	-1E+10	1	-1E+10	1
4902549	112	C	09/20/2023	15:58	-133.042	47.754	0	142.70	0	6.1970	0	33.2410	0	26.140	0	141.457	0	219.9	4	72.6	4	-1E+10	1	-1E+10	1	-1E+10	1	-1E+10	1	-1E+10	1	-1E+10	1
4902549	112	C	09/20/2023	15:58	-133.042	47.754	0	144.00	0	6.1730	0	33.2510	0	26.151	0	142.745	0	218.5	4	72.1	4	-1E+10	1	-1E+10	1	-1E+10	1	-1E+10	1	-1E+10	1	-1E+10	1
4902549	112	C	09/20/2023	15:58	-133.042	47.754	0	145.30	0	6.1520	0	33.2690	0	26.168	0	144.033	0	217.0	4	71.6	4	-1E+10	1	-1E+10	1	-1E+10	1	-1E+10	1	-1E+10	1	-1E+10	1
4902549	112	C	09/20/2023	15:58	-133.042	47.754	0	146.10	0	6.1200	0	33.2800	0	26.180	0	144.826	0	216.2	4	71.3	4	-1E+10	1	-1E+10	1	-1E+10	1	-1E+10	1	-1E+10	1	-1E+10	1
4902549	112	C	09/20/2023	15:58	-133.042	47.754	0	147.00	0	6.0780	0	33.3000	0	26.201	0	145.718	0	215.6	4	71.0	4	-1E+10	1	-1E+10	1	-1E+10	1	-1E+10	1	-1E+10	1	-1E+10	1
4902549	112	C	09/20/2023	15:58	-133.042	47.754	0	147.80	0	6.0450	0	33.3110	0	26.214	0	146.511	0	215.0	4	70.8	4	-1E+10	1	-1E+10	1	-1E+10	1	-1E+10	1	-1E+10	1	-1E+10	1
4902549	112	C	09/20/2023	15:58	-133.042	47.754	0	148.70	0	6.0220	0	33.3220	0	26.226	0	147.402	0	214.2	4	70.5	4	-1E+10	1	-1E+10	1	-1E+10	1	-1E+10	1	-1E+10	1	-1E+10	1
4902549	112	C	09/20/2023	15:58	-133.042	47.754	0	149.90	0	6.0040	0	33.3310	0	26.235	0	148.591	0	212.9	4	70.0	4	-1E+10	1	-1E+10	1	-1E+10	1	-1E+10	1	-1E+10	1	-1E+10	1
4902549	112	C	09/20/2023	15:58	-133.042	47.754	0	151.20	0	5.9710	0	33.3490	0	26.253	0	149.880	0	211.6	4	69.6	4	-1E+10	1	-1E+10	1	-1E+10	1	-1E+10	1	-1E+10	1	-1E+10	1
4902549	112	C	09/20/2023	15:58	-133.042	47.754	0	152.10	0	5.9560	0	33.3570	0	26.262	0	150.772	0	210.9	4	69.3	4	-1E+10	1	-1E+10	1	-1E+10	1	-1E+10	1	-1E+10	1	-1E+10	1
4902549	112	C	09/20/2023	15:58	-133.042	47.754	0	153.00	0	5.9460	0	33.3660	0	26.270	0	151.663	0	210.1	4	69.0	4	-1E+10	1	-1E+10	1	-1E+10	1	-1E+10	1	-1E+10	1	-1E+10	1
4902549	112	C	09/20/2023	15:58	-133.042	47.754	0	153.80	0	5.9370	0	33.3720	0	26.276	0	152.456	0	209.3	4	68.8	4	-1E+10	1	-1E+10	1	-1E+10	1	-1E+10	1	-1E+10	1	-1E+10	1
4902549	112	C	09/20/2023	15:58	-133.042	47.754	0	154.70	0	5.9260	0	33.3810	0	26.284	0	153.348	0	208.4	4	68.5	4	-1E+10	1	-1E+10	1	-1E+10	1	-1E+10	1	-1E+10	1	-1E+10	1
4902549	112	C	09/20/2023	15:58	-133.042	47.754	0	155.60	0	5.9130	0	33.3960	0	26.298	0	154.240	0	207.5	4	68.2	4	-1E+10	1	-1E+10	1	-1E+10	1	-1E+10	1	-1E+10	1	-1E+10	1
4902549	112	C	09/20/2023	15:58	-133.042	47.754	0	156.90	0	5.8990	0	33.4100	0	26.311	0	155.528	0	206.2	4	67.7	4	-1E+10	1	-1E+10	1	-1E+10	1	-1E+10	1	-1E+10	1	-1E+10	1
4902549	112	C	09/20/2023	15:58	-133.042	47.754	0	158.20	0	5.8870	0	33.4170	0	26.318	0	156.816	0	204.7	4	67.2	4	-1E+10	1	-1E+10	1	-1E+10	1	-1E+10	1	-1E+10	1	-1E+10	1
4902549	112	C	09/20/2023	15:58	-133.042	47.754	0	159.20	0	5.8800	0	33.4200	0	26.321	0	157.807	0	203.6	4	66.8	4	-1E+10	1	-1E+10	1	-1E+10	1	-1E+10	1	-1E+10	1	-1E+10	1
4902549	112	C	09/20/2023	15:58	-133.042	47.754	0	160.10	0	5.8710	0	33.4280	0	26.328	0	158.699	0	202.6	4	66.5	4	-1E+10	1	-1E+10	1	-1E+10	1	-1E+10	1	-1E+10	1	-1E+10	1
4902549	112	C	09/20/2023	15:58	-133.042	47.754	0	161.00	0	5.8580	0	33.4390	0	26.339	0	159.590	0	201.7	4	66.2	4	-1E+10	1	-1E+10	1	-1E+10	1	-1E+10	1	-1E+10	1	-1E+10	1
4902549	112	C	09/20/2023	15:58	-133.042	47.754	0	161.90	0	5.8440	0	33.4580	0	26.355	0	160.482	0	200.8	4	65.9	4	-1E+10	1	-1E+10	1	-1E+10	1	-1E+10	1	-1E+10	1	-1E+10	1
4902549	112	C	09/20/2023	15:58	-133.042	47.754	0	162.90	0	5.8370	0	33.4660	0	26.362	0	161.473	0	199.9	4	65.6	4	-1E+10	1	-1E+10	1	-1E+10	1	-1E+10	1	-1E+10	1	-1E+10	1
4902549	112	C	09/20/2023	15:58	-133.042	47.754	0	163.80	0	5.8210	0	33.4840	0	26.379	0	162.365	0	199.4	4	65.4	4	-1E+10	1	-1E+10	1	-1E+10	1	-1E+10	1	-1E+10	1	-1E+10	1
4902549	112	C	09/20/2023	15:58	-133.042	47.754	0	164.80	0	5.8170	0	33.4870	0	26.382	0	163.356	0	198.7	4	65.2	4	-1E+10	1	-1E+10	1	-1E+10	1	-1E+10	1	-1E+10	1	-1E+10	1
4902549	112	C	09/20/2023	15:58	-133.042	47.754	0	165.70	0	5.8160	0	33.4920	0	26.386	0	164.247	0	198.0	4	64.9	4	-1E+10	1	-1E+10	1	-1E+10	1	-1E+10	1	-1E+10	1	-1E+10	1
4902549	112	C	09/20/2023	15:58	-133.042	47.754	0	166.50	0	5.8170	0	33.4930	0	26.386	0	165.040	0	197.2	4	64.7	4	-1E+10	1	-1E+10	1	-1E+10	1	-1E+10	1	-1E+10	1	-1E+10	1
4902549	112	C	09/20/2023	15:58	-133.042	47.754	0	167.80	0	5.8150	0	33.4970	0	26.390	0	166.328	0	195.8	4	64.2	4	-1E+10	1	-1E+10	1	-1E+10	1	-1E+10	1	-1E+10	1	-1E+10	1
4902549	112	C	09/20/2023	15:58	-133.042	47.754	0	168.90	0	5.8100	0	33.5080	0	26.399	0	167.418	0	194.7	4	63.8	4	-1E+10	1	-1E+10	1	-1E+10	1	-1E+10	1	-1E+10	1	-1E+10	1
4902549	112	C	09/20/2023	15:58	-133.042	47.754	0	170.00	0	5.8030	0	33.5180	0	26.408	0	168.508	0	193.5	4	63.5	4	-1E+10	1	-1E+10	1	-1E+10	1	-1E+10	1	-1E+10	1	-1E+10	1
4902549	112	C	09/20/2023	15:58	-133.042	47.754	0	171.20	0	5.7980	0	33.5270	0	26.416	0	169.697	0	192.4	4	63.1	4	-1E+10	1	-1E+10	1	-1E+10	1	-1E+10	1	-1E+10	1	-1E+10	1
4902549	112	C	09/20/2023	15:58	-133.042	47.754	0	172.00	0	5.7950	0	33.5350	0	26.422	0	170.489	0	191.8	4	62.9	4	-1E+10	1	-1E+10	1	-1E+10	1	-1E+10	1	-1E+10	1	-1E+10	1
4902549	112	C	09/20/2023	15:58	-133.042	47.754	0	172.80	0	5.7940	0	33.5370	0	26.424	0	171.282	0	190.9	4	62.6	4	-1E+10	1	-1E+10	1	-1E+10	1	-1E+10	1	-1E+10	1	-1E+10	1
4902549	112	C	09/20/2023	15:58	-133.042	47.754	0	173.90	0	5.7910	0	33.5400	0	26.427	0	172.372	0	189.7	4	62.2	4	-1E+10	1	-1E+10	1	-1E+10	1	-1E+10	1	-1E+10	1	-1E+10	1
4902549	112	C	09/20/2023	15:58	-133.042	47.754	0	175.10	0	5.7880	0	33.5460	0	26.432	0	173.561	0	188.3	4	61.7	4	-1E+10	1	-1E+10	1	-1E+10	1	-1E+10	1	-1E+10	1	-1E+10	1
4902549	112	C	09/20/2023	15:58	-133.042	47.754	0	175.90	0	5.7840	0	33.5510	0	26.436	0	174.354	0	187.4	4	61.4	4	-1E+10	1	-1E+10	1	-1E+10	1	-1E+10	1	-1E+10	1	-1E+10	1
4902549	112	C	09/20/2023	15:58	-133.042	47.754	0	176.70	0	5.7800	0	33.5580	0	26.442	0	175.146	0	186.4	4	61.1	4	-1E+10	1	-1E+10	1	-1E+10	1	-1E+10	1	-1E+10	1	-1E+10	1
4902549	112	C	09/20/2023	15:58	-133.042	47.754	0	177.90	0	5.7720	0	33.5730	0	26.455	0	176.335	0	185.1	4	60.7	4	-1E+10	1	-1E+10	1	-1E+10	1	-1E+10	1	-1E+10	1	-1E+10	1
4902549	112	C	09/20/2023	15:58	-133.042	47.754	0	179.20	0	5.7710	0	33.5790	0	26.460	0	177.623	0	183.8	4	60.3	4	-1E+10	1	-1E+10	1	-1E+10	1	-1E+10	1	-1E+10	1	-1E+10	1
4902549	112	C	09/20/2023	15:58	-133.042	47.754	0	180.00	0	5.7710	0	33.5800	0	26.461	0	178.416	0	182.9	4	60.0	4	-1E+10	1	-1E+10	1	-1E+10	1	-1E+10	1	-1E+10	1	-1E+10	1
4902549	112	C	09/20/2023	15:58	-133.042	47.754	0	180.80	0	5.7660	0	33.5850	0	26.465	0	179.208	0	181.9	4	59.6	4	-1E+10	1	-1E+10	1	-1E+10	1	-1E+10	1	-1E+10	1	-1E+10	1
4902549	112	C	09/20/2023	15:58	-133.042	47.754	0	181.70	0	5.7560	0	33.5940	0	26.474	0	180.100	0	181.0	4	59.3	4	-1E+10	1	-1E+10	1	-1E+10	1	-1E+10	1	-1E+10	1	-1E+10	1
4902549	112	C	09/20/2023	15:58	-133.042	47.754	0	182.90	0	5.7370	0	33.6050	0	26.485	0	181.289	0	179.6	4	58.8	4	-1E+10	1	-1E+10	1	-1E+10	1	-1E+10	1	-1E+10	1	-1E+10	1
4902549	112	C	09/20/2023	15:58	-133.042	47.754	0	184.20	0	5.7240	0	33.6090	0	26.490	0	182.577	0	178.3	4	58.4	4	-1E+10	1	-1E+10	1	-1E+10	1	-1E+10	1	-1E+10	1	-1E+10	1
4902549	112	C	09/20/2023	15:58	-133.042	47.754	0	185.00	0	5.7210	0	33.6170	0	26.496	0	183.370	0	177.6	4	58.2	4	-1E+10	1	-1E+10	1	-1E+10	1	-1E+10	1	-1E+10	1	-1E+10	1
4902549	112	C	09/20/2023	15:58	-133.042	47.754	0	185.90	0	5.7190	0	33.6210	0	26.500	0	184.261	0	176.8	4	57.9	4	-1E+10	1	-1E+10	1	-1E+10	1	-1E+10	1	-1E+10	1	-1E+10	1
4902549	112	C	09/20/2023	15:58	-133.042	47.754	0	186.70	0	5.7180	0	33.6220	0	26.501	0	185.054	0	175.9	4	57.6	4	-1E+10	1	-1E+10	1	-1E+10	1	-1E+10	1	-1E+10	1	-1E+10	1
4902549	112	C	09/20/2023	15:58	-133.042	47.754	0	187.90	0	5.7180	0	33.6230	0	26.501	0	186.243	0	174.5	4	57.1	4	-1E+10	1	-1E+10	1	-1E+10	1	-1E+10	1	-1E+10	1	-1E+10	1
4902549	112	C	09/20/2023	15:58	-133.042	47.754	0	189.30	0	5.7130	0	33.6270	0	26.505	0	187.630	0	172.8	4	56.6	4	-1E+10	1	-1E+10	1	-1E+10	1	-1E+10	1	-1E+10	1	-1E+10	1
4902549	112	C	09/20/2023	15:58	-133.042	47.754	0	190.10	0	5.7090	0	33.6280	0	26.506	0	188.422	0	171.6	4	56.2	4	-1E+10	1	-1E+10	1	-1E+10	1	-1E+10	1	-1E+10	1	-1E+10	1
4902549	112	C	09/20/2023	15:58	-133.042	47.754	0	191.00	0	5.6620	0	33.6370	0	26.519	0	189.314	0	170.7	4	55.8	4	-1E+10	1	-1E+10	1	-1E+10	1	-1E+10	1	-1E+10	1	-1E+10	1
4902549	112	C	09/20/2023	15:58	-133.042	47.754	0	191.90	0	5.6240	0	33.6420	0	26.528	0	190.206	0	170.1	4	55.6	4	-1E+10	1	-1E+10	1	-1E+10	1	-1E+10	1	-1E+10	1	-1E+10	1
4902549	112	C	09/20/2023	15:58	-133.042	47.754	0	192.70	0	5.6210	0	33.6430	0	26.529	0	190.998	0	169.3	4	55.3	4	-1E+10	1	-1E+10	1	-1E+10	1	-1E+10	1	-1E+10	1	-1E+10	1
4902549	112	C	09/20/2023	15:58	-133.042	47.754	0	193.60	0	5.6180	0	33.6440	0	26.530	0	191.890	0	168.4	4	55.0	4	-1E+10	1	-1E+10	1	-1E+10	1	-1E+10	1	-1E+10	1	-1E+10	1
4902549	112	C	09/20/2023	15:58	-133.042	47.754	0	194.90	0	5.6110	0	33.6490	0	26.535	0	193.178	0	167.0	4	54.6	4	-1E+10	1	-1E+10	1	-1E+10	1	-1E+10	1	-1E+10	1	-1E+10	1
4902549	112	C	09/20/2023	15:58	-133.042	47.754	0	196.20	0	5.6040	0	33.6550	0	26.540	0	194.466	0	165.7	4	54.1	4	-1E+10	1	-1E+10	1	-1E+10	1	-1E+10	1	-1E+10	1	-1E+10	1
4902549	112	C	09/20/2023	15:58	-133.042	47.754	0	197.10	0	5.6100	0	33.6570	0	26.541	0	195.357	0	164.7	4	53.8	4	-1E+10	1	-1E+10	1	-1E+10	1	-1E+10	1	-1E+10	1	-1E+10	1
4902549	112	C	09/20/2023	15:58	-133.042	47.754	0	198.00	0	5.6120	0	33.6630	0	26.546	0	196.249	0	163.6	4	53.5	4	-1E+10	1	-1E+10	1	-1E+10	1	-1E+10	1	-1E+10	1	-1E+10	1
4902549	112	C	09/20/2023	15:58	-133.042	47.754	0	198.90	0	5.6090	0	33.6670	0	26.549	0	197.140	0	162.6	4	53.1	4	-1E+10	1	-1E+10	1	-1E+10	1	-1E+10	1	-1E+10	1	-1E+10	1
4902549	112	C	09/20/2023	15:58	-133.042	47.754	0	199.80	0	5.6060	0	33.6770	0	26.558	0	198.032	0	161.6	4	52.8	4	-1E+10	1	-1E+10	1	-1E+10	1	-1E+10	1	-1E+10	1	-1E+10	1
4902549	112	C	09/20/2023	15:58	-133.042	47.754	0	200.70	0	5.5940	0	33.6850	0	26.565	0	198.924	0	160.7	4	52.5	4	-1E+10	1	-1E+10	1	-1E+10	1	-1E+10	1	-1E+10	1	-1E+10	1
4902549	112	C	09/20/2023	15:58	-133.042	47.754	0	201.60	0	5.5920	0	33.6860	0	26.566	0	199.815	0	159.8	4	52.2	4	-1E+10	1	-1E+10	1	-1E+10	1	-1E+10	1	-1E+10	1	-1E+10	1
4902549	112	C	09/20/2023	15:58	-133.042	47.754	0	202.90	0	5.5810	0	33.6890	0	26.570	0	201.103	0	158.4	4	51.7	4	-1E+10	1	-1E+10	1	-1E+10	1	-1E+10	1	-1E+10	1	-1E+10	1
4902549	112	C	09/20/2023	15:58	-133.042	47.754	0	204.40	0	5.5700	0	33.6930	0	26.575	0	202.589	0	157.0	4	51.3	4	-1E+10	1	-1E+10	1	-1E+10	1	-1E+10	1	-1E+10	1	-1E+10	1
4902549	112	C	09/20/2023	15:58	-133.042	47.754	0	205.30	0	5.5640	0	33.6930	0	26.575	0	203.481	0	155.9	4	50.9	4	-1E+10	1	-1E+10	1	-1E+10	1	-1E+10	1	-1E+10	1	-1E+10	1
4902549	112	C	09/20/2023	15:58	-133.042	47.754	0	206.20	0	5.5430	0	33.6980	0	26.582	0	204.372	0	155.1	4	50.6	4	-1E+10	1	-1E+10	1	-1E+10	1	-1E+10	1	-1E+10	1	-1E+10	1
4902549	112	C	09/20/2023	15:58	-133.042	47.754	0	207.10	0	5.5350	0	33.7000	0	26.584	0	205.264	0	154.2	4	50.3	4	-1E+10	1	-1E+10	1	-1E+10	1	-1E+10	1	-1E+10	1	-1E+10	1
4902549	112	C	09/20/2023	15:58	-133.042	47.754	0	208.10	0	5.5340	0	33.7000	0	26.585	0	206.254	0	153.2	4	50.0	4	-1E+10	1	-1E+10	1	-1E+10	1	-1E+10	1	-1E+10	1	-1E+10	1
4902549	112	C	09/20/2023	15:58	-133.042	47.754	0	209.00	0	5.5340	0	33.6990	0	26.584	0	207.146	0	152.0	4	49.6	4	-1E+10	1	-1E+10	1	-1E+10	1	-1E+10	1	-1E+10	1	-1E+10	1
4902549	112	C	09/20/2023	15:58	-133.042	47.754	0	209.90	0	5.5270	0	33.7010	0	26.586	0	208.038	0	150.7	4	49.2	4	-1E+10	1	-1E+10	1	-1E+10	1	-1E+10	1	-1E+10	1	-1E+10	1
4902549	112	C	09/20/2023	15:58	-133.042	47.754	0	210.80	0	5.5150	0	33.7040	0	26.590	0	208.929	0	149.5	4	48.8	4	-1E+10	1	-1E+10	1	-1E+10	1	-1E+10	1	-1E+10	1	-1E+10	1
4902549	112	C	09/20/2023	15:58	-133.042	47.754	0	211.70	0	5.5040	0	33.7060	0	26.593	0	209.821	0	148.3	4	48.3	4	-1E+10	1	-1E+10	1	-1E+10	1	-1E+10	1	-1E+10	1	-1E+10	1
4902549	112	C	09/20/2023	15:58	-133.042	47.754	0	212.70	0	5.4970	0	33.7070	0	26.595	0	210.811	0	146.9	4	47.9	4	-1E+10	1	-1E+10	1	-1E+10	1	-1E+10	1	-1E+10	1	-1E+10	1
4902549	112	C	09/20/2023	15:58	-133.042	47.754	0	213.60	0	5.4900	0	33.7080	0	26.596	0	211.703	0	145.5	4	47.4	4	-1E+10	1	-1E+10	1	-1E+10	1	-1E+10	1	-1E+10	1	-1E+10	1
4902549	112	C	09/20/2023	15:58	-133.042	47.754	0	214.90	0	5.4730	0	33.7100	0	26.600	0	212.991	0	143.4	4	46.7	4	-1E+10	1	-1E+10	1	-1E+10	1	-1E+10	1	-1E+10	1	-1E+10	1
4902549	112	C	09/20/2023	15:58	-133.042	47.754	0	216.40	0	5.4280	0	33.7250	0	26.617	0	214.477	0	141.9	4	46.2	4	-1E+10	1	-1E+10	1	-1E+10	1	-1E+10	1	-1E+10	1	-1E+10	1
4902549	112	C	09/20/2023	15:58	-133.042	47.754	0	217.40	0	5.3960	0	33.7260	0	26.622	0	215.467	0	141.2	4	45.9	4	-1E+10	1	-1E+10	1	-1E+10	1	-1E+10	1	-1E+10	1	-1E+10	1
4902549	112	C	09/20/2023	15:58	-133.042	47.754	0	218.30	0	5.3940	0	33.7260	0	26.622	0	216.359	0	140.3	4	45.7	4	-1E+10	1	-1E+10	1	-1E+10	1	-1E+10	1	-1E+10	1	-1E+10	1
4902549	112	C	09/20/2023	15:58	-133.042	47.754	0	219.30	0	5.3910	0	33.7260	0	26.622	0	217.349	0	139.4	4	45.3	4	-1E+10	1	-1E+10	1	-1E+10	1	-1E+10	1	-1E+10	1	-1E+10	1
4902549	112	C	09/20/2023	15:58	-133.042	47.754	0	220.30	0	5.3830	0	33.7280	0	26.625	0	218.340	0	138.4	4	45.0	4	-1E+10	1	-1E+10	1	-1E+10	1	-1E+10	1	-1E+10	1	-1E+10	1
4902549	112	C	09/20/2023	15:58	-133.042	47.754	0	221.30	0	5.3710	0	33.7290	0	26.627	0	219.330	0	137.5	4	44.7	4	-1E+10	1	-1E+10	1	-1E+10	1	-1E+10	1	-1E+10	1	-1E+10	1
4902549	112	C	09/20/2023	15:58	-133.042	47.754	0	222.30	0	5.3540	0	33.7320	0	26.631	0	220.321	0	136.7	4	44.4	4	-1E+10	1	-1E+10	1	-1E+10	1	-1E+10	1	-1E+10	1	-1E+10	1
4902549	112	C	09/20/2023	15:58	-133.042	47.754	0	223.30	0	5.3460	0	33.7330	0	26.633	0	221.312	0	135.9	4	44.2	4	-1E+10	1	-1E+10	1	-1E+10	1	-1E+10	1	-1E+10	1	-1E+10	1
4902549	112	C	09/20/2023	15:58	-133.042	47.754	0	224.30	0	5.3400	0	33.7340	0	26.635	0	222.302	0	135.1	4	43.9	4	-1E+10	1	-1E+10	1	-1E+10	1	-1E+10	1	-1E+10	1	-1E+10	1
4902549	112	C	09/20/2023	15:58	-133.042	47.754	0	225.20	0	5.3360	0	33.7340	0	26.635	0	223.194	0	134.3	4	43.6	4	-1E+10	1	-1E+10	1	-1E+10	1	-1E+10	1	-1E+10	1	-1E+10	1
4902549	112	C	09/20/2023	15:58	-133.042	47.754	0	226.20	0	5.3300	0	33.7340	0	26.636	0	224.184	0	133.3	4	43.3	4	-1E+10	1	-1E+10	1	-1E+10	1	-1E+10	1	-1E+10	1	-1E+10	1
4902549	112	C	09/20/2023	15:58	-133.042	47.754	0	227.20	0	5.3230	0	33.7360	0	26.638	0	225.175	0	132.2	4	42.9	4	-1E+10	1	-1E+10	1	-1E+10	1	-1E+10	1	-1E+10	1	-1E+10	1
4902549	112	C	09/20/2023	15:58	-133.042	47.754	0	228.20	0	5.3160	0	33.7360	0	26.639	0	226.165	0	131.2	4	42.6	4	-1E+10	1	-1E+10	1	-1E+10	1	-1E+10	1	-1E+10	1	-1E+10	1
4902549	112	C	09/20/2023	15:58	-133.042	47.754	0	229.20	0	5.3100	0	33.7360	0	26.640	0	227.156	0	130.1	4	42.3	4	-1E+10	1	-1E+10	1	-1E+10	1	-1E+10	1	-1E+10	1	-1E+10	1
4902549	112	C	09/20/2023	15:58	-133.042	47.754	0	230.20	0	5.3080	0	33.7360	0	26.640	0	228.146	0	129.0	4	41.9	4	-1E+10	1	-1E+10	1	-1E+10	1	-1E+10	1	-1E+10	1	-1E+10	1
4902549	112	C	09/20/2023	15:58	-133.042	47.754	0	231.20	0	5.2880	0	33.7430	0	26.648	0	229.137	0	128.1	4	41.6	4	-1E+10	1	-1E+10	1	-1E+10	1	-1E+10	1	-1E+10	1	-1E+10	1
4902549	112	C	09/20/2023	15:58	-133.042	47.754	0	232.20	0	5.2600	0	33.7460	0	26.653	0	230.127	0	127.4	4	41.3	4	-1E+10	1	-1E+10	1	-1E+10	1	-1E+10	1	-1E+10	1	-1E+10	1
4902549	112	C	09/20/2023	15:58	-133.042	47.754	0	233.30	0	5.2570	0	33.7450	0	26.653	0	231.217	0	126.6	4	41.0	4	-1E+10	1	-1E+10	1	-1E+10	1	-1E+10	1	-1E+10	1	-1E+10	1
4902549	112	C	09/20/2023	15:58	-133.042	47.754	0	234.30	0	5.2540	0	33.7460	0	26.654	0	232.207	0	125.8	4	40.8	4	-1E+10	1	-1E+10	1	-1E+10	1	-1E+10	1	-1E+10	1	-1E+10	1
4902549	112	C	09/20/2023	15:58	-133.042	47.754	0	235.30	0	5.2540	0	33.7460	0	26.654	0	233.198	0	124.8	4	40.5	4	-1E+10	1	-1E+10	1	-1E+10	1	-1E+10	1	-1E+10	1	-1E+10	1
4902549	112	C	09/20/2023	15:58	-133.042	47.754	0	236.30	0	5.2510	0	33.7460	0	26.655	0	234.188	0	123.7	4	40.1	4	-1E+10	1	-1E+10	1	-1E+10	1	-1E+10	1	-1E+10	1	-1E+10	1
4902549	112	C	09/20/2023	15:58	-133.042	47.754	0	237.40	0	5.2360	0	33.7500	0	26.659	0	235.278	0	122.8	4	39.8	4	-1E+10	1	-1E+10	1	-1E+10	1	-1E+10	1	-1E+10	1	-1E+10	1
4902549	112	C	09/20/2023	15:58	-133.042	47.754	0	238.40	0	5.2240	0	33.7510	0	26.662	0	236.268	0	122.0	4	39.5	4	-1E+10	1	-1E+10	1	-1E+10	1	-1E+10	1	-1E+10	1	-1E+10	1
4902549	112	C	09/20/2023	15:58	-133.042	47.754	0	239.40	0	5.2180	0	33.7520	0	26.663	0	237.259	0	121.3	4	39.3	4	-1E+10	1	-1E+10	1	-1E+10	1	-1E+10	1	-1E+10	1	-1E+10	1
4902549	112	C	09/20/2023	15:58	-133.042	47.754	0	240.40	0	5.2140	0	33.7520	0	26.664	0	238.249	0	120.4	4	39.0	4	-1E+10	1	-1E+10	1	-1E+10	1	-1E+10	1	-1E+10	1	-1E+10	1
4902549	112	C	09/20/2023	15:58	-133.042	47.754	0	241.50	0	5.2110	0	33.7530	0	26.665	0	239.339	0	119.5	4	38.7	4	-1E+10	1	-1E+10	1	-1E+10	1	-1E+10	1	-1E+10	1	-1E+10	1
4902549	112	C	09/20/2023	15:58	-133.042	47.754	0	242.50	0	5.2090	0	33.7530	0	26.665	0	240.329	0	118.4	4	38.4	4	-1E+10	1	-1E+10	1	-1E+10	1	-1E+10	1	-1E+10	1	-1E+10	1
4902549	112	C	09/20/2023	15:58	-133.042	47.754	0	243.50	0	5.2010	0	33.7540	0	26.667	0	241.320	0	117.5	4	38.1	4	-1E+10	1	-1E+10	1	-1E+10	1	-1E+10	1	-1E+10	1	-1E+10	1
4902549	112	C	09/20/2023	15:58	-133.042	47.754	0	244.50	0	5.1840	0	33.7570	0	26.671	0	242.310	0	116.6	4	37.7	4	-1E+10	1	-1E+10	1	-1E+10	1	-1E+10	1	-1E+10	1	-1E+10	1
4902549	112	C	09/20/2023	15:58	-133.042	47.754	0	245.60	0	5.1750	0	33.7580	0	26.673	0	243.400	0	115.7	4	37.5	4	-1E+10	1	-1E+10	1	-1E+10	1	-1E+10	1	-1E+10	1	-1E+10	1
4902549	112	C	09/20/2023	15:58	-133.042	47.754	0	246.60	0	5.1530	0	33.7640	0	26.680	0	244.390	0	115.0	4	37.2	4	-1E+10	1	-1E+10	1	-1E+10	1	-1E+10	1	-1E+10	1	-1E+10	1
4902549	112	C	09/20/2023	15:58	-133.042	47.754	0	247.60	0	5.1430	0	33.7630	0	26.681	0	245.381	0	114.4	4	37.0	4	-1E+10	1	-1E+10	1	-1E+10	1	-1E+10	1	-1E+10	1	-1E+10	1
4902549	112	C	09/20/2023	15:58	-133.042	47.754	0	248.60	0	5.1380	0	33.7640	0	26.682	0	246.371	0	113.8	4	36.8	4	-1E+10	1	-1E+10	1	-1E+10	1	-1E+10	1	-1E+10	1	-1E+10	1
4902549	112	C	09/20/2023	15:58	-133.042	47.754	0	249.70	0	5.1320	0	33.7650	0	26.683	0	247.461	0	113.2	4	36.6	4	-1E+10	1	-1E+10	1	-1E+10	1	-1E+10	1	-1E+10	1	-1E+10	1
4902549	112	C	09/20/2023	15:58	-133.042	47.754	0	250.70	0	5.1290	0	33.7660	0	26.685	0	248.451	0	112.6	4	36.4	4	-1E+10	1	-1E+10	1	-1E+10	1	-1E+10	1	-1E+10	1	-1E+10	1
4902549	112	C	09/20/2023	15:58	-133.042	47.754	0	251.80	0	5.1260	0	33.7660	0	26.685	0	249.541	0	111.9	4	36.2	4	-1E+10	1	-1E+10	1	-1E+10	1	-1E+10	1	-1E+10	1	-1E+10	1
4902549	112	C	09/20/2023	15:58	-133.042	47.754	0	252.80	0	5.1240	0	33.7660	0	26.685	0	250.531	0	111.1	4	35.9	4	-1E+10	1	-1E+10	1	-1E+10	1	-1E+10	1	-1E+10	1	-1E+10	1
4902549	112	C	09/20/2023	15:58	-133.042	47.754	0	253.90	0	5.1190	0	33.7670	0	26.687	0	251.620	0	110.4	4	35.7	4	-1E+10	1	-1E+10	1	-1E+10	1	-1E+10	1	-1E+10	1	-1E+10	1
4902549	112	C	09/20/2023	15:58	-133.042	47.754	0	254.90	0	5.1110	0	33.7680	0	26.688	0	252.611	0	109.7	4	35.5	4	-1E+10	1	-1E+10	1	-1E+10	1	-1E+10	1	-1E+10	1	-1E+10	1
4902549	112	C	09/20/2023	15:58	-133.042	47.754	0	255.90	0	5.0920	0	33.7720	0	26.694	0	253.601	0	109.2	4	35.3	4	-1E+10	1	-1E+10	1	-1E+10	1	-1E+10	1	-1E+10	1	-1E+10	1
4902549	112	C	09/20/2023	15:58	-133.042	47.754	0	257.00	0	5.0900	0	33.7710	0	26.693	0	254.691	0	108.6	4	35.1	4	-1E+10	1	-1E+10	1	-1E+10	1	-1E+10	1	-1E+10	1	-1E+10	1
4902549	112	C	09/20/2023	15:58	-133.042	47.754	0	258.00	0	5.0850	0	33.7710	0	26.694	0	255.681	0	108.1	4	34.9	4	-1E+10	1	-1E+10	1	-1E+10	1	-1E+10	1	-1E+10	1	-1E+10	1
4902549	112	C	09/20/2023	15:58	-133.042	47.754	0	259.10	0	5.0570	0	33.7730	0	26.698	0	256.771	0	107.6	4	34.7	4	-1E+10	1	-1E+10	1	-1E+10	1	-1E+10	1	-1E+10	1	-1E+10	1
4902549	112	C	09/20/2023	15:58	-133.042	47.754	0	260.10	0	5.0410	0	33.7750	0	26.702	0	257.761	0	107.2	4	34.6	4	-1E+10	1	-1E+10	1	-1E+10	1	-1E+10	1	-1E+10	1	-1E+10	1
4902549	112	C	09/20/2023	15:58	-133.042	47.754	0	261.20	0	5.0410	0	33.7740	0	26.701	0	258.850	0	106.7	4	34.4	4	-1E+10	1	-1E+10	1	-1E+10	1	-1E+10	1	-1E+10	1	-1E+10	1
4902549	112	C	09/20/2023	15:58	-133.042	47.754	0	262.20	0	5.0330	0	33.7710	0	26.700	0	259.841	0	106.2	4	34.3	4	-1E+10	1	-1E+10	1	-1E+10	1	-1E+10	1	-1E+10	1	-1E+10	1
4902549	112	C	09/20/2023	15:58	-133.042	47.754	0	263.30	0	5.0060	0	33.7730	0	26.704	0	260.930	0	105.4	4	34.0	4	-1E+10	1	-1E+10	1	-1E+10	1	-1E+10	1	-1E+10	1	-1E+10	1
4902549	112	C	09/20/2023	15:58	-133.042	47.754	0	264.30	0	4.9940	0	33.7730	0	26.706	0	261.920	0	104.6	4	33.7	4	-1E+10	1	-1E+10	1	-1E+10	1	-1E+10	1	-1E+10	1	-1E+10	1
4902549	112	C	09/20/2023	15:58	-133.042	47.754	0	265.40	0	4.9940	0	33.7730	0	26.706	0	263.010	0	103.7	4	33.4	4	-1E+10	1	-1E+10	1	-1E+10	1	-1E+10	1	-1E+10	1	-1E+10	1
4902549	112	C	09/20/2023	15:58	-133.042	47.754	0	266.40	0	4.9950	0	33.7730	0	26.706	0	264.000	0	102.7	4	33.1	4	-1E+10	1	-1E+10	1	-1E+10	1	-1E+10	1	-1E+10	1	-1E+10	1
4902549	112	C	09/20/2023	15:58	-133.042	47.754	0	267.40	0	4.9930	0	33.7750	0	26.707	0	264.991	0	101.8	4	32.8	4	-1E+10	1	-1E+10	1	-1E+10	1	-1E+10	1	-1E+10	1	-1E+10	1
4902549	112	C	09/20/2023	15:58	-133.042	47.754	0	268.50	0	4.9750	0	33.7770	0	26.711	0	266.080	0	100.9	4	32.5	4	-1E+10	1	-1E+10	1	-1E+10	1	-1E+10	1	-1E+10	1	-1E+10	1
4902549	112	C	09/20/2023	15:58	-133.042	47.754	0	269.50	0	4.9510	0	33.7800	0	26.716	0	267.070	0	100.0	4	32.2	4	-1E+10	1	-1E+10	1	-1E+10	1	-1E+10	1	-1E+10	1	-1E+10	1
4902549	112	C	09/20/2023	15:58	-133.042	47.754	0	270.60	0	4.9410	0	33.7800	0	26.717	0	268.160	0	99.1	4	31.9	4	-1E+10	1	-1E+10	1	-1E+10	1	-1E+10	1	-1E+10	1	-1E+10	1
4902549	112	C	09/20/2023	15:58	-133.042	47.754	0	271.60	0	4.9390	0	33.7810	0	26.718	0	269.150	0	98.2	4	31.6	4	-1E+10	1	-1E+10	1	-1E+10	1	-1E+10	1	-1E+10	1	-1E+10	1
4902549	112	C	09/20/2023	15:58	-133.042	47.754	0	272.70	0	4.9390	0	33.7810	0	26.718	0	270.239	0	97.3	4	31.3	4	-1E+10	1	-1E+10	1	-1E+10	1	-1E+10	1	-1E+10	1	-1E+10	1
4902549	112	C	09/20/2023	15:58	-133.042	47.754	0	273.80	0	4.9190	0	33.7830	0	26.722	0	271.329	0	96.4	4	31.0	4	-1E+10	1	-1E+10	1	-1E+10	1	-1E+10	1	-1E+10	1	-1E+10	1
4902549	112	C	09/20/2023	15:58	-133.042	47.754	0	274.90	0	4.9070	0	33.7860	0	26.726	0	272.418	0	95.5	4	30.7	4	-1E+10	1	-1E+10	1	-1E+10	1	-1E+10	1	-1E+10	1	-1E+10	1
4902549	112	C	09/20/2023	15:58	-133.042	47.754	0	275.90	0	4.9050	0	33.7860	0	26.726	0	273.408	0	94.6	4	30.4	4	-1E+10	1	-1E+10	1	-1E+10	1	-1E+10	1	-1E+10	1	-1E+10	1
4902549	112	C	09/20/2023	15:58	-133.042	47.754	0	277.00	0	4.9020	0	33.7870	0	26.727	0	274.498	0	93.5	4	30.1	4	-1E+10	1	-1E+10	1	-1E+10	1	-1E+10	1	-1E+10	1	-1E+10	1
4902549	112	C	09/20/2023	15:58	-133.042	47.754	0	278.10	0	4.8950	0	33.7910	0	26.731	0	275.587	0	92.5	4	29.8	4	-1E+10	1	-1E+10	1	-1E+10	1	-1E+10	1	-1E+10	1	-1E+10	1
4902549	112	C	09/20/2023	15:58	-133.042	47.754	0	279.20	0	4.8750	0	33.7940	0	26.736	0	276.676	0	91.7	4	29.5	4	-1E+10	1	-1E+10	1	-1E+10	1	-1E+10	1	-1E+10	1	-1E+10	1
4902549	112	C	09/20/2023	15:58	-133.042	47.754	0	280.20	0	4.8750	0	33.7950	0	26.737	0	277.667	0	90.8	4	29.2	4	-1E+10	1	-1E+10	1	-1E+10	1	-1E+10	1	-1E+10	1	-1E+10	1
4902549	112	C	09/20/2023	15:58	-133.042	47.754	0	281.30	0	4.8740	0	33.7950	0	26.737	0	278.756	0	89.9	4	28.9	4	-1E+10	1	-1E+10	1	-1E+10	1	-1E+10	1	-1E+10	1	-1E+10	1
4902549	112	C	09/20/2023	15:58	-133.042	47.754	0	282.40	0	4.8690	0	33.7970	0	26.739	0	279.845	0	88.9	4	28.6	4	-1E+10	1	-1E+10	1	-1E+10	1	-1E+10	1	-1E+10	1	-1E+10	1
4902549	112	C	09/20/2023	15:58	-133.042	47.754	0	283.40	0	4.8770	0	33.8020	0	26.742	0	280.836	0	88.1	4	28.3	4	-1E+10	1	-1E+10	1	-1E+10	1	-1E+10	1	-1E+10	1	-1E+10	1
4902549	112	C	09/20/2023	15:58	-133.042	47.754	0	284.50	0	4.8860	0	33.8060	0	26.744	0	281.925	0	87.6	4	28.2	4	-1E+10	1	-1E+10	1	-1E+10	1	-1E+10	1	-1E+10	1	-1E+10	1
4902549	112	C	09/20/2023	15:58	-133.042	47.754	0	285.60	0	4.8850	0	33.8070	0	26.745	0	283.014	0	87.1	4	28.0	4	-1E+10	1	-1E+10	1	-1E+10	1	-1E+10	1	-1E+10	1	-1E+10	1
4902549	112	C	09/20/2023	15:58	-133.042	47.754	0	286.60	0	4.8790	0	33.8070	0	26.746	0	284.004	0	86.6	4	27.9	4	-1E+10	1	-1E+10	1	-1E+10	1	-1E+10	1	-1E+10	1	-1E+10	1
4902549	112	C	09/20/2023	15:58	-133.042	47.754	0	287.70	0	4.8750	0	33.8070	0	26.746	0	285.094	0	86.1	4	27.7	4	-1E+10	1	-1E+10	1	-1E+10	1	-1E+10	1	-1E+10	1	-1E+10	1
4902549	112	C	09/20/2023	15:58	-133.042	47.754	0	288.70	0	4.8630	0	33.8090	0	26.749	0	286.084	0	85.6	4	27.5	4	-1E+10	1	-1E+10	1	-1E+10	1	-1E+10	1	-1E+10	1	-1E+10	1
4902549	112	C	09/20/2023	15:58	-133.042	47.754	0	289.80	0	4.8550	0	33.8100	0	26.751	0	287.173	0	85.0	4	27.3	4	-1E+10	1	-1E+10	1	-1E+10	1	-1E+10	1	-1E+10	1	-1E+10	1
4902549	112	C	09/20/2023	15:58	-133.042	47.754	0	290.90	0	4.8420	0	33.8110	0	26.753	0	288.262	0	84.5	4	27.1	4	-1E+10	1	-1E+10	1	-1E+10	1	-1E+10	1	-1E+10	1	-1E+10	1
4902549	112	C	09/20/2023	15:58	-133.042	47.754	0	291.90	0	4.8340	0	33.8150	0	26.757	0	289.253	0	84.1	4	27.0	4	-1E+10	1	-1E+10	1	-1E+10	1	-1E+10	1	-1E+10	1	-1E+10	1
4902549	112	C	09/20/2023	15:58	-133.042	47.754	0	293.00	0	4.8280	0	33.8150	0	26.758	0	290.342	0	83.8	4	26.9	4	-1E+10	1	-1E+10	1	-1E+10	1	-1E+10	1	-1E+10	1	-1E+10	1
4902549	112	C	09/20/2023	15:58	-133.042	47.754	0	294.00	0	4.8210	0	33.8170	0	26.760	0	291.332	0	83.4	4	26.8	4	-1E+10	1	-1E+10	1	-1E+10	1	-1E+10	1	-1E+10	1	-1E+10	1
4902549	112	C	09/20/2023	15:58	-133.042	47.754	0	295.00	0	4.8180	0	33.8150	0	26.759	0	292.322	0	82.9	4	26.6	4	-1E+10	1	-1E+10	1	-1E+10	1	-1E+10	1	-1E+10	1	-1E+10	1
4902549	112	C	09/20/2023	15:58	-133.042	47.754	0	296.10	0	4.8130	0	33.8160	0	26.760	0	293.412	0	82.4	4	26.5	4	-1E+10	1	-1E+10	1	-1E+10	1	-1E+10	1	-1E+10	1	-1E+10	1
4902549	112	C	09/20/2023	15:58	-133.042	47.754	0	297.10	0	4.7830	0	33.8200	0	26.767	0	294.402	0	82.1	4	26.3	4	-1E+10	1	-1E+10	1	-1E+10	1	-1E+10	1	-1E+10	1	-1E+10	1
4902549	112	C	09/20/2023	15:58	-133.042	47.754	0	298.20	0	4.7620	0	33.8230	0	26.771	0	295.491	0	81.9	4	26.3	4	-1E+10	1	-1E+10	1	-1E+10	1	-1E+10	1	-1E+10	1	-1E+10	1
4902549	112	C	09/20/2023	15:58	-133.042	47.754	0	299.20	0	4.7590	0	33.8220	0	26.771	0	296.481	0	81.6	4	26.2	4	-1E+10	1	-1E+10	1	-1E+10	1	-1E+10	1	-1E+10	1	-1E+10	1
4902549	112	C	09/20/2023	15:58	-133.042	47.754	0	300.30	0	4.7570	0	33.8230	0	26.772	0	297.570	0	81.3	4	26.1	4	-1E+10	1	-1E+10	1	-1E+10	1	-1E+10	1	-1E+10	1	-1E+10	1
4902549	112	C	09/20/2023	15:58	-133.042	47.754	0	301.30	0	4.7480	0	33.8230	0	26.773	0	298.561	0	81.1	4	26.0	4	-1E+10	1	-1E+10	1	-1E+10	1	-1E+10	1	-1E+10	1	-1E+10	1
4902549	112	C	09/20/2023	15:58	-133.042	47.754	0	302.30	0	4.7300	0	33.8250	0	26.777	0	299.551	0	80.9	4	25.9	4	-1E+10	1	-1E+10	1	-1E+10	1	-1E+10	1	-1E+10	1	-1E+10	1
4902549	112	C	09/20/2023	15:58	-133.042	47.754	0	303.40	0	4.7230	0	33.8240	0	26.777	0	300.640	0	80.7	4	25.8	4	-1E+10	1	-1E+10	1	-1E+10	1	-1E+10	1	-1E+10	1	-1E+10	1
4902549	112	C	09/20/2023	15:58	-133.042	47.754	0	304.40	0	4.7190	0	33.8250	0	26.778	0	301.630	0	80.4	4	25.8	4	-1E+10	1	-1E+10	1	-1E+10	1	-1E+10	1	-1E+10	1	-1E+10	1
4902549	112	C	09/20/2023	15:58	-133.042	47.754	0	305.50	0	4.7140	0	33.8260	0	26.779	0	302.719	0	80.2	4	25.7	4	-1E+10	1	-1E+10	1	-1E+10	1	-1E+10	1	-1E+10	1	-1E+10	1
4902549	112	C	09/20/2023	15:58	-133.042	47.754	0	306.50	0	4.7130	0	33.8260	0	26.779	0	303.710	0	80.0	4	25.6	4	-1E+10	1	-1E+10	1	-1E+10	1	-1E+10	1	-1E+10	1	-1E+10	1
4902549	112	C	09/20/2023	15:58	-133.042	47.754	0	307.50	0	4.7080	0	33.8270	0	26.781	0	304.700	0	79.8	4	25.5	4	-1E+10	1	-1E+10	1	-1E+10	1	-1E+10	1	-1E+10	1	-1E+10	1
4902549	112	C	09/20/2023	15:58	-133.042	47.754	0	308.60	0	4.6950	0	33.8290	0	26.784	0	305.789	0	79.5	4	25.4	4	-1E+10	1	-1E+10	1	-1E+10	1	-1E+10	1	-1E+10	1	-1E+10	1
4902549	112	C	09/20/2023	15:58	-133.042	47.754	0	309.60	0	4.6840	0	33.8290	0	26.785	0	306.779	0	79.1	4	25.3	4	-1E+10	1	-1E+10	1	-1E+10	1	-1E+10	1	-1E+10	1	-1E+10	1
4902549	112	C	09/20/2023	15:58	-133.042	47.754	0	310.70	0	4.6820	0	33.8290	0	26.785	0	307.868	0	78.7	4	25.2	4	-1E+10	1	-1E+10	1	-1E+10	1	-1E+10	1	-1E+10	1	-1E+10	1
4902549	112	C	09/20/2023	15:58	-133.042	47.754	0	311.70	0	4.6810	0	33.8320	0	26.788	0	308.858	0	78.5	4	25.1	4	-1E+10	1	-1E+10	1	-1E+10	1	-1E+10	1	-1E+10	1	-1E+10	1
4902549	112	C	09/20/2023	15:58	-133.042	47.754	0	312.70	0	4.6750	0	33.8330	0	26.789	0	309.849	0	78.4	4	25.1	4	-1E+10	1	-1E+10	1	-1E+10	1	-1E+10	1	-1E+10	1	-1E+10	1
4902549	112	C	09/20/2023	15:58	-133.042	47.754	0	313.80	0	4.6640	0	33.8330	0	26.790	0	310.938	0	78.3	4	25.0	4	-1E+10	1	-1E+10	1	-1E+10	1	-1E+10	1	-1E+10	1	-1E+10	1
4902549	112	C	09/20/2023	15:58	-133.042	47.754	0	314.90	0	4.6590	0	33.8340	0	26.792	0	312.027	0	78.1	4	25.0	4	-1E+10	1	-1E+10	1	-1E+10	1	-1E+10	1	-1E+10	1	-1E+10	1
4902549	112	C	09/20/2023	15:58	-133.042	47.754	0	315.90	0	4.6570	0	33.8340	0	26.792	0	313.017	0	77.8	4	24.9	4	-1E+10	1	-1E+10	1	-1E+10	1	-1E+10	1	-1E+10	1	-1E+10	1
4902549	112	C	09/20/2023	15:58	-133.042	47.754	0	317.00	0	4.6530	0	33.8350	0	26.793	0	314.106	0	77.5	4	24.8	4	-1E+10	1	-1E+10	1	-1E+10	1	-1E+10	1	-1E+10	1	-1E+10	1
4902549	112	C	09/20/2023	15:58	-133.042	47.754	0	318.00	0	4.6530	0	33.8360	0	26.794	0	315.096	0	77.3	4	24.7	4	-1E+10	1	-1E+10	1	-1E+10	1	-1E+10	1	-1E+10	1	-1E+10	1
4902549	112	C	09/20/2023	15:58	-133.042	47.754	0	319.00	0	4.6500	0	33.8360	0	26.794	0	316.086	0	77.0	4	24.6	4	-1E+10	1	-1E+10	1	-1E+10	1	-1E+10	1	-1E+10	1	-1E+10	1
4902549	112	C	09/20/2023	15:58	-133.042	47.754	0	320.10	0	4.6390	0	33.8360	0	26.795	0	317.175	0	76.7	4	24.5	4	-1E+10	1	-1E+10	1	-1E+10	1	-1E+10	1	-1E+10	1	-1E+10	1
4902549	112	C	09/20/2023	15:58	-133.042	47.754	0	321.20	0	4.6380	0	33.8370	0	26.796	0	318.264	0	76.5	4	24.4	4	-1E+10	1	-1E+10	1	-1E+10	1	-1E+10	1	-1E+10	1	-1E+10	1
4902549	112	C	09/20/2023	15:58	-133.042	47.754	0	322.20	0	4.6370	0	33.8370	0	26.796	0	319.255	0	76.0	4	24.3	4	-1E+10	1	-1E+10	1	-1E+10	1	-1E+10	1	-1E+10	1	-1E+10	1
4902549	112	C	09/20/2023	15:58	-133.042	47.754	0	323.30	0	4.6360	0	33.8370	0	26.797	0	320.344	0	75.7	4	24.2	4	-1E+10	1	-1E+10	1	-1E+10	1	-1E+10	1	-1E+10	1	-1E+10	1
4902549	112	C	09/20/2023	15:58	-133.042	47.754	0	324.30	0	4.6310	0	33.8370	0	26.797	0	321.334	0	75.2	4	24.0	4	-1E+10	1	-1E+10	1	-1E+10	1	-1E+10	1	-1E+10	1	-1E+10	1
4902549	112	C	09/20/2023	15:58	-133.042	47.754	0	325.40	0	4.6210	0	33.8390	0	26.800	0	322.423	0	74.9	4	23.9	4	-1E+10	1	-1E+10	1	-1E+10	1	-1E+10	1	-1E+10	1	-1E+10	1
4902549	112	C	09/20/2023	15:58	-133.042	47.754	0	326.40	0	4.6200	0	33.8390	0	26.800	0	323.413	0	74.5	4	23.8	4	-1E+10	1	-1E+10	1	-1E+10	1	-1E+10	1	-1E+10	1	-1E+10	1
4902549	112	C	09/20/2023	15:58	-133.042	47.754	0	327.50	0	4.6150	0	33.8400	0	26.801	0	324.502	0	74.1	4	23.7	4	-1E+10	1	-1E+10	1	-1E+10	1	-1E+10	1	-1E+10	1	-1E+10	1
4902549	112	C	09/20/2023	15:58	-133.042	47.754	0	328.50	0	4.6120	0	33.8410	0	26.802	0	325.492	0	73.7	4	23.5	4	-1E+10	1	-1E+10	1	-1E+10	1	-1E+10	1	-1E+10	1	-1E+10	1
4902549	112	C	09/20/2023	15:58	-133.042	47.754	0	329.50	0	4.6090	0	33.8410	0	26.803	0	326.482	0	73.3	4	23.4	4	-1E+10	1	-1E+10	1	-1E+10	1	-1E+10	1	-1E+10	1	-1E+10	1
4902549	112	C	09/20/2023	15:58	-133.042	47.754	0	330.50	0	4.5940	0	33.8440	0	26.807	0	327.472	0	72.9	4	23.3	4	-1E+10	1	-1E+10	1	-1E+10	1	-1E+10	1	-1E+10	1	-1E+10	1
4902549	112	C	09/20/2023	15:58	-133.042	47.754	0	331.70	0	4.5840	0	33.8470	0	26.810	0	328.660	0	72.6	4	23.2	4	-1E+10	1	-1E+10	1	-1E+10	1	-1E+10	1	-1E+10	1	-1E+10	1
4902549	112	C	09/20/2023	15:58	-133.042	47.754	0	332.90	0	4.5830	0	33.8470	0	26.810	0	329.848	0	72.1	4	23.0	4	-1E+10	1	-1E+10	1	-1E+10	1	-1E+10	1	-1E+10	1	-1E+10	1
4902549	112	C	09/20/2023	15:58	-133.042	47.754	0	334.10	0	4.5730	0	33.8510	0	26.815	0	331.036	0	71.6	4	22.9	4	-1E+10	1	-1E+10	1	-1E+10	1	-1E+10	1	-1E+10	1	-1E+10	1
4902549	112	C	09/20/2023	15:58	-133.042	47.754	0	334.90	0	4.5650	0	33.8510	0	26.815	0	331.828	0	71.3	4	22.8	4	-1E+10	1	-1E+10	1	-1E+10	1	-1E+10	1	-1E+10	1	-1E+10	1
4902549	112	C	09/20/2023	15:58	-133.042	47.754	0	335.70	0	4.5580	0	33.8520	0	26.817	0	332.620	0	71.0	4	22.7	4	-1E+10	1	-1E+10	1	-1E+10	1	-1E+10	1	-1E+10	1	-1E+10	1
4902549	112	C	09/20/2023	15:58	-133.042	47.754	0	336.90	0	4.5500	0	33.8540	0	26.820	0	333.808	0	70.7	4	22.6	4	-1E+10	1	-1E+10	1	-1E+10	1	-1E+10	1	-1E+10	1	-1E+10	1
4902549	112	C	09/20/2023	15:58	-133.042	47.754	0	338.10	0	4.5430	0	33.8560	0	26.822	0	334.996	0	70.4	4	22.5	4	-1E+10	1	-1E+10	1	-1E+10	1	-1E+10	1	-1E+10	1	-1E+10	1
4902549	112	C	09/20/2023	15:58	-133.042	47.754	0	338.90	0	4.5420	0	33.8560	0	26.822	0	335.788	0	70.1	4	22.4	4	-1E+10	1	-1E+10	1	-1E+10	1	-1E+10	1	-1E+10	1	-1E+10	1
4902549	112	C	09/20/2023	15:58	-133.042	47.754	0	339.80	0	4.5360	0	33.8590	0	26.825	0	336.679	0	69.8	4	22.3	4	-1E+10	1	-1E+10	1	-1E+10	1	-1E+10	1	-1E+10	1	-1E+10	1
4902549	112	C	09/20/2023	15:58	-133.042	47.754	0	341.00	0	4.5320	0	33.8600	0	26.826	0	337.867	0	69.3	4	22.1	4	-1E+10	1	-1E+10	1	-1E+10	1	-1E+10	1	-1E+10	1	-1E+10	1
4902549	112	C	09/20/2023	15:58	-133.042	47.754	0	342.30	0	4.5270	0	33.8610	0	26.828	0	339.154	0	68.9	4	22.0	4	-1E+10	1	-1E+10	1	-1E+10	1	-1E+10	1	-1E+10	1	-1E+10	1
4902549	112	C	09/20/2023	15:58	-133.042	47.754	0	343.10	0	4.5240	0	33.8620	0	26.829	0	339.946	0	68.5	4	21.9	4	-1E+10	1	-1E+10	1	-1E+10	1	-1E+10	1	-1E+10	1	-1E+10	1
4902549	112	C	09/20/2023	15:58	-133.042	47.754	0	343.90	0	4.5190	0	33.8620	0	26.829	0	340.738	0	68.2	4	21.8	4	-1E+10	1	-1E+10	1	-1E+10	1	-1E+10	1	-1E+10	1	-1E+10	1
4902549	112	C	09/20/2023	15:58	-133.042	47.754	0	344.80	0	4.5160	0	33.8640	0	26.831	0	341.629	0	67.9	4	21.6	4	-1E+10	1	-1E+10	1	-1E+10	1	-1E+10	1	-1E+10	1	-1E+10	1
4902549	112	C	09/20/2023	15:58	-133.042	47.754	0	345.60	0	4.5140	0	33.8640	0	26.831	0	342.421	0	67.6	4	21.6	4	-1E+10	1	-1E+10	1	-1E+10	1	-1E+10	1	-1E+10	1	-1E+10	1
4902549	112	C	09/20/2023	15:58	-133.042	47.754	0	346.90	0	4.5080	0	33.8660	0	26.834	0	343.708	0	67.2	4	21.4	4	-1E+10	1	-1E+10	1	-1E+10	1	-1E+10	1	-1E+10	1	-1E+10	1
4902549	112	C	09/20/2023	15:58	-133.042	47.754	0	348.30	0	4.5070	0	33.8660	0	26.834	0	345.094	0	66.9	4	21.3	4	-1E+10	1	-1E+10	1	-1E+10	1	-1E+10	1	-1E+10	1	-1E+10	1
4902549	112	C	09/20/2023	15:58	-133.042	47.754	0	349.10	0	4.5040	0	33.8670	0	26.835	0	345.886	0	66.6	4	21.2	4	-1E+10	1	-1E+10	1	-1E+10	1	-1E+10	1	-1E+10	1	-1E+10	1
4902549	112	C	09/20/2023	15:58	-133.042	47.754	0	350.00	0	4.5030	0	33.8680	0	26.836	0	346.777	0	66.4	4	21.2	4	-1E+10	1	-1E+10	1	-1E+10	1	-1E+10	1	-1E+10	1	-1E+10	1
4902549	112	C	09/20/2023	15:58	-133.042	47.754	0	353.10	0	4.4960	0	33.8700	0	26.838	0	349.846	0	65.6	4	20.9	4	-1E+10	1	-1E+10	1	-1E+10	1	-1E+10	1	-1E+10	1	-1E+10	1
4902549	112	C	09/20/2023	15:58	-133.042	47.754	0	358.10	0	4.4750	0	33.8760	0	26.845	0	354.796	0	64.4	4	20.5	4	-1E+10	1	-1E+10	1	-1E+10	1	-1E+10	1	-1E+10	1	-1E+10	1
4902549	112	C	09/20/2023	15:58	-133.042	47.754	0	362.80	0	4.4590	0	33.8820	0	26.852	0	359.448	0	62.5	4	19.9	4	-1E+10	1	-1E+10	1	-1E+10	1	-1E+10	1	-1E+10	1	-1E+10	1
4902549	112	C	09/20/2023	15:58	-133.042	47.754	0	367.60	0	4.4390	0	33.8890	0	26.859	0	364.200	0	60.9	4	19.4	4	-1E+10	1	-1E+10	1	-1E+10	1	-1E+10	1	-1E+10	1	-1E+10	1
4902549	112	C	09/20/2023	15:58	-133.042	47.754	0	372.50	0	4.4210	0	33.8940	0	26.865	0	369.050	0	59.6	4	19.0	4	-1E+10	1	-1E+10	1	-1E+10	1	-1E+10	1	-1E+10	1	-1E+10	1
4902549	112	C	09/20/2023	15:58	-133.042	47.754	0	377.40	0	4.4060	0	33.8980	0	26.870	0	373.900	0	58.2	4	18.5	4	-1E+10	1	-1E+10	1	-1E+10	1	-1E+10	1	-1E+10	1	-1E+10	1
4902549	112	C	09/20/2023	15:58	-133.042	47.754	0	382.50	0	4.3940	0	33.9030	0	26.875	0	378.948	0	56.7	4	18.0	4	-1E+10	1	-1E+10	1	-1E+10	1	-1E+10	1	-1E+10	1	-1E+10	1
4902549	112	C	09/20/2023	15:58	-133.042	47.754	0	387.50	0	4.3800	0	33.9080	0	26.881	0	383.897	0	54.9	4	17.5	4	-1E+10	1	-1E+10	1	-1E+10	1	-1E+10	1	-1E+10	1	-1E+10	1
4902549	112	C	09/20/2023	15:58	-133.042	47.754	0	392.90	0	4.3670	0	33.9160	0	26.889	0	389.242	0	53.1	4	16.9	4	-1E+10	1	-1E+10	1	-1E+10	1	-1E+10	1	-1E+10	1	-1E+10	1
4902549	112	C	09/20/2023	15:58	-133.042	47.754	0	397.90	0	4.3510	0	33.9240	0	26.897	0	394.191	0	51.5	4	16.4	4	-1E+10	1	-1E+10	1	-1E+10	1	-1E+10	1	-1E+10	1	-1E+10	1
4902549	112	C	09/20/2023	15:58	-133.042	47.754	0	402.50	0	4.3450	0	33.9300	0	26.902	0	398.743	0	50.7	4	16.1	4	-1E+10	1	-1E+10	1	-1E+10	1	-1E+10	1	-1E+10	1	-1E+10	1
4902549	112	C	09/20/2023	15:58	-133.042	47.754	0	407.50	0	4.3400	0	33.9340	0	26.906	0	403.692	0	49.8	4	15.8	4	-1E+10	1	-1E+10	1	-1E+10	1	-1E+10	1	-1E+10	1	-1E+10	1
4902549	112	C	09/20/2023	15:58	-133.042	47.754	0	412.50	0	4.3290	0	33.9360	0	26.909	0	408.640	0	48.6	4	15.5	4	-1E+10	1	-1E+10	1	-1E+10	1	-1E+10	1	-1E+10	1	-1E+10	1
4902549	112	C	09/20/2023	15:58	-133.042	47.754	0	417.60	0	4.3150	0	33.9410	0	26.914	0	413.687	0	47.0	4	14.9	4	-1E+10	1	-1E+10	1	-1E+10	1	-1E+10	1	-1E+10	1	-1E+10	1
4902549	112	C	09/20/2023	15:58	-133.042	47.754	0	422.50	0	4.2970	0	33.9470	0	26.921	0	418.536	0	45.6	4	14.5	4	-1E+10	1	-1E+10	1	-1E+10	1	-1E+10	1	-1E+10	1	-1E+10	1
4902549	112	C	09/20/2023	15:58	-133.042	47.754	0	427.90	0	4.2830	0	33.9560	0	26.930	0	423.880	0	44.5	4	14.1	4	-1E+10	1	-1E+10	1	-1E+10	1	-1E+10	1	-1E+10	1	-1E+10	1
4902549	112	C	09/20/2023	15:58	-133.042	47.754	0	433.20	0	4.2750	0	33.9620	0	26.935	0	429.125	0	43.5	4	13.8	4	-1E+10	1	-1E+10	1	-1E+10	1	-1E+10	1	-1E+10	1	-1E+10	1
4902549	112	C	09/20/2023	15:58	-133.042	47.754	0	437.90	0	4.2650	0	33.9680	0	26.941	0	433.776	0	42.6	4	13.5	4	-1E+10	1	-1E+10	1	-1E+10	1	-1E+10	1	-1E+10	1	-1E+10	1
4902549	112	C	09/20/2023	15:58	-133.042	47.754	0	442.70	0	4.2560	0	33.9740	0	26.947	0	438.526	0	41.7	4	13.2	4	-1E+10	1	-1E+10	1	-1E+10	1	-1E+10	1	-1E+10	1	-1E+10	1
4902549	112	C	09/20/2023	15:58	-133.042	47.754	0	447.90	0	4.2470	0	33.9810	0	26.953	0	443.671	0	40.7	4	12.9	4	-1E+10	1	-1E+10	1	-1E+10	1	-1E+10	1	-1E+10	1	-1E+10	1
4902549	112	C	09/20/2023	15:58	-133.042	47.754	0	453.10	0	4.2410	0	33.9870	0	26.959	0	448.816	0	39.8	4	12.6	4	-1E+10	1	-1E+10	1	-1E+10	1	-1E+10	1	-1E+10	1	-1E+10	1
4902549	112	C	09/20/2023	15:58	-133.042	47.754	0	457.90	0	4.2290	0	33.9940	0	26.966	0	453.566	0	38.9	4	12.3	4	-1E+10	1	-1E+10	1	-1E+10	1	-1E+10	1	-1E+10	1	-1E+10	1
4902549	112	C	09/20/2023	15:58	-133.042	47.754	0	462.70	0	4.2180	0	34.0010	0	26.972	0	458.315	0	38.0	4	12.0	4	-1E+10	1	-1E+10	1	-1E+10	1	-1E+10	1	-1E+10	1	-1E+10	1
4902549	112	C	09/20/2023	15:58	-133.042	47.754	0	467.50	0	4.2050	0	34.0100	0	26.981	0	463.064	0	37.1	4	11.8	4	-1E+10	1	-1E+10	1	-1E+10	1	-1E+10	1	-1E+10	1	-1E+10	1
4902549	112	C	09/20/2023	15:58	-133.042	47.754	0	472.80	0	4.1950	0	34.0170	0	26.988	0	468.308	0	36.2	4	11.5	4	-1E+10	1	-1E+10	1	-1E+10	1	-1E+10	1	-1E+10	1	-1E+10	1
4902549	112	C	09/20/2023	15:58	-133.042	47.754	0	478.30	0	4.1870	0	34.0220	0	26.993	0	473.749	0	35.2	4	11.2	4	-1E+10	1	-1E+10	1	-1E+10	1	-1E+10	1	-1E+10	1	-1E+10	1
4902549	112	C	09/20/2023	15:58	-133.042	47.754	0	483.30	0	4.1780	0	34.0280	0	26.998	0	478.696	0	34.1	4	10.8	4	-1E+10	1	-1E+10	1	-1E+10	1	-1E+10	1	-1E+10	1	-1E+10	1
4902549	112	C	09/20/2023	15:58	-133.042	47.754	0	488.30	0	4.1680	0	34.0350	0	27.005	0	483.643	0	32.9	4	10.4	4	-1E+10	1	-1E+10	1	-1E+10	1	-1E+10	1	-1E+10	1	-1E+10	1
4902549	112	C	09/20/2023	15:58	-133.042	47.754	0	493.30	0	4.1570	0	34.0430	0	27.012	0	488.589	0	31.6	4	10.0	4	-1E+10	1	-1E+10	1	-1E+10	1	-1E+10	1	-1E+10	1	-1E+10	1
4902549	112	C	09/20/2023	15:58	-133.042	47.754	0	497.90	0	4.1480	0	34.0500	0	27.019	0	493.140	0	30.5	4	9.6	4	-1E+10	1	-1E+10	1	-1E+10	1	-1E+10	1	-1E+10	1	-1E+10	1
4902549	112	C	09/20/2023	15:58	-133.042	47.754	0	503.00	0	4.1450	0	34.0550	0	27.023	0	498.185	0	29.2	4	9.2	4	-1E+10	1	-1E+10	1	-1E+10	1	-1E+10	1	-1E+10	1	-1E+10	1
4902549	112	C	09/20/2023	15:58	-133.042	47.754	0	508.20	0	4.1460	0	34.0610	0	27.028	0	503.329	0	28.1	4	8.9	4	-1E+10	1	-1E+10	1	-1E+10	1	-1E+10	1	-1E+10	1	-1E+10	1
4902549	112	C	09/20/2023	15:58	-133.042	47.754	0	513.00	0	4.1430	0	34.0650	0	27.032	0	508.077	0	27.1	4	8.6	4	-1E+10	1	-1E+10	1	-1E+10	1	-1E+10	1	-1E+10	1	-1E+10	1
4902549	112	C	09/20/2023	15:58	-133.042	47.754	0	517.80	0	4.1350	0	34.0710	0	27.037	0	512.825	0	26.4	4	8.3	4	-1E+10	1	-1E+10	1	-1E+10	1	-1E+10	1	-1E+10	1	-1E+10	1
4902549	112	C	09/20/2023	15:58	-133.042	47.754	0	522.70	0	4.1350	0	34.0750	0	27.040	0	517.672	0	25.7	4	8.1	4	-1E+10	1	-1E+10	1	-1E+10	1	-1E+10	1	-1E+10	1	-1E+10	1
4902549	112	C	09/20/2023	15:58	-133.042	47.754	0	527.50	0	4.1330	0	34.0780	0	27.043	0	522.419	0	25.0	4	7.9	4	-1E+10	1	-1E+10	1	-1E+10	1	-1E+10	1	-1E+10	1	-1E+10	1
4902549	112	C	09/20/2023	15:58	-133.042	47.754	0	532.60	0	4.1270	0	34.0820	0	27.047	0	527.464	0	24.5	4	7.7	4	-1E+10	1	-1E+10	1	-1E+10	1	-1E+10	1	-1E+10	1	-1E+10	1
4902549	112	C	09/20/2023	15:58	-133.042	47.754	0	537.80	0	4.1170	0	34.0860	0	27.051	0	532.607	0	23.6	4	7.5	4	-1E+10	1	-1E+10	1	-1E+10	1	-1E+10	1	-1E+10	1	-1E+10	1
4902549	112	C	09/20/2023	15:58	-133.042	47.754	0	542.70	0	4.1170	0	34.0910	0	27.055	0	537.453	0	22.9	4	7.3	4	-1E+10	1	-1E+10	1	-1E+10	1	-1E+10	1	-1E+10	1	-1E+10	1
4902549	112	C	09/20/2023	15:58	-133.042	47.754	0	547.70	0	4.1120	0	34.0940	0	27.058	0	542.399	0	22.5	4	7.1	4	-1E+10	1	-1E+10	1	-1E+10	1	-1E+10	1	-1E+10	1	-1E+10	1
4902549	112	C	09/20/2023	15:58	-133.042	47.754	0	552.80	0	4.1030	0	34.0980	0	27.062	0	547.442	0	22.2	4	7.0	4	-1E+10	1	-1E+10	1	-1E+10	1	-1E+10	1	-1E+10	1	-1E+10	1
4902549	112	C	09/20/2023	15:58	-133.042	47.754	0	558.00	0	4.0880	0	34.1010	0	27.066	0	552.585	0	21.8	4	6.9	4	-1E+10	1	-1E+10	1	-1E+10	1	-1E+10	1	-1E+10	1	-1E+10	1
4902549	112	C	09/20/2023	15:58	-133.042	47.754	0	563.10	0	4.0760	0	34.1050	0	27.071	0	557.629	0	21.5	4	6.8	4	-1E+10	1	-1E+10	1	-1E+10	1	-1E+10	1	-1E+10	1	-1E+10	1
4902549	112	C	09/20/2023	15:58	-133.042	47.754	0	567.80	0	4.0700	0	34.1070	0	27.073	0	562.277	0	21.2	4	6.7	4	-1E+10	1	-1E+10	1	-1E+10	1	-1E+10	1	-1E+10	1	-1E+10	1
4902549	112	C	09/20/2023	15:58	-133.042	47.754	0	572.60	0	4.0600	0	34.1080	0	27.075	0	567.024	0	20.8	4	6.6	4	-1E+10	1	-1E+10	1	-1E+10	1	-1E+10	1	-1E+10	1	-1E+10	1
4902549	112	C	09/20/2023	15:58	-133.042	47.754	0	577.90	0	4.0490	0	34.1140	0	27.081	0	572.265	0	20.2	4	6.4	4	-1E+10	1	-1E+10	1	-1E+10	1	-1E+10	1	-1E+10	1	-1E+10	1
4902549	112	C	09/20/2023	15:58	-133.042	47.754	0	583.30	0	4.0450	0	34.1190	0	27.085	0	577.605	0	19.8	4	6.2	4	-1E+10	1	-1E+10	1	-1E+10	1	-1E+10	1	-1E+10	1	-1E+10	1
4902549	112	C	09/20/2023	15:58	-133.042	47.754	0	588.10	0	4.0410	0	34.1220	0	27.088	0	582.351	0	19.4	4	6.1	4	-1E+10	1	-1E+10	1	-1E+10	1	-1E+10	1	-1E+10	1	-1E+10	1
4902549	112	C	09/20/2023	15:58	-133.042	47.754	0	592.90	0	4.0350	0	34.1270	0	27.093	0	587.097	0	19.0	4	6.0	4	-1E+10	1	-1E+10	1	-1E+10	1	-1E+10	1	-1E+10	1	-1E+10	1
4902549	112	C	09/20/2023	15:58	-133.042	47.754	0	597.80	0	4.0180	0	34.1310	0	27.098	0	591.942	0	18.8	4	5.9	4	-1E+10	1	-1E+10	1	-1E+10	1	-1E+10	1	-1E+10	1	-1E+10	1
4902549	112	C	09/20/2023	15:58	-133.042	47.754	0	602.80	0	4.0040	0	34.1340	0	27.101	0	596.886	0	18.5	4	5.8	4	-1E+10	1	-1E+10	1	-1E+10	1	-1E+10	1	-1E+10	1	-1E+10	1
4902549	112	C	09/20/2023	15:58	-133.042	47.754	0	607.80	0	3.9790	0	34.1400	0	27.109	0	601.830	0	18.2	4	5.8	4	-1E+10	1	-1E+10	1	-1E+10	1	-1E+10	1	-1E+10	1	-1E+10	1
4902549	112	C	09/20/2023	15:58	-133.042	47.754	0	612.90	0	3.9500	0	34.1450	0	27.116	0	606.872	0	17.9	4	5.7	4	-1E+10	1	-1E+10	1	-1E+10	1	-1E+10	1	-1E+10	1	-1E+10	1
4902549	112	C	09/20/2023	15:58	-133.042	47.754	0	617.90	0	3.9330	0	34.1510	0	27.122	0	611.816	0	17.6	4	5.5	4	-1E+10	1	-1E+10	1	-1E+10	1	-1E+10	1	-1E+10	1	-1E+10	1
4902549	112	C	09/20/2023	15:58	-133.042	47.754	0	623.00	0	3.9240	0	34.1530	0	27.125	0	616.858	0	17.2	4	5.4	4	-1E+10	1	-1E+10	1	-1E+10	1	-1E+10	1	-1E+10	1	-1E+10	1
4902549	112	C	09/20/2023	15:58	-133.042	47.754	0	628.00	0	3.9080	0	34.1580	0	27.130	0	621.801	0	16.7	4	5.3	4	-1E+10	1	-1E+10	1	-1E+10	1	-1E+10	1	-1E+10	1	-1E+10	1
4902549	112	C	09/20/2023	15:58	-133.042	47.754	0	633.00	0	3.8980	0	34.1610	0	27.134	0	626.744	0	16.3	4	5.1	4	-1E+10	1	-1E+10	1	-1E+10	1	-1E+10	1	-1E+10	1	-1E+10	1
4902549	112	C	09/20/2023	15:58	-133.042	47.754	0	637.90	0	3.8760	0	34.1670	0	27.141	0	631.589	0	16.1	4	5.1	4	-1E+10	1	-1E+10	1	-1E+10	1	-1E+10	1	-1E+10	1	-1E+10	1
4902549	112	C	09/20/2023	15:58	-133.042	47.754	0	642.80	0	3.8580	0	34.1710	0	27.146	0	636.433	0	15.9	4	5.0	4	-1E+10	1	-1E+10	1	-1E+10	1	-1E+10	1	-1E+10	1	-1E+10	1
4902549	112	C	09/20/2023	15:58	-133.042	47.754	0	647.60	0	3.8460	0	34.1730	0	27.149	0	641.178	0	15.7	4	4.9	4	-1E+10	1	-1E+10	1	-1E+10	1	-1E+10	1	-1E+10	1	-1E+10	1
4902549	112	C	09/20/2023	15:58	-133.042	47.754	0	653.00	0	3.8270	0	34.1770	0	27.154	0	646.516	0	15.4	4	4.8	4	-1E+10	1	-1E+10	1	-1E+10	1	-1E+10	1	-1E+10	1	-1E+10	1
4902549	112	C	09/20/2023	15:58	-133.042	47.754	0	658.20	0	3.8090	0	34.1820	0	27.160	0	651.656	0	15.1	4	4.7	4	-1E+10	1	-1E+10	1	-1E+10	1	-1E+10	1	-1E+10	1	-1E+10	1
4902549	112	C	09/20/2023	15:58	-133.042	47.754	0	662.90	0	3.7940	0	34.1870	0	27.165	0	656.302	0	14.8	4	4.7	4	-1E+10	1	-1E+10	1	-1E+10	1	-1E+10	1	-1E+10	1	-1E+10	1
4902549	112	C	09/20/2023	15:58	-133.042	47.754	0	668.00	0	3.7880	0	34.1880	0	27.167	0	661.343	0	14.6	4	4.6	4	-1E+10	1	-1E+10	1	-1E+10	1	-1E+10	1	-1E+10	1	-1E+10	1
4902549	112	C	09/20/2023	15:58	-133.042	47.754	0	673.20	0	3.7770	0	34.1910	0	27.170	0	666.483	0	14.2	4	4.5	4	-1E+10	1	-1E+10	1	-1E+10	1	-1E+10	1	-1E+10	1	-1E+10	1
4902549	112	C	09/20/2023	15:58	-133.042	47.754	0	677.80	0	3.7680	0	34.1960	0	27.175	0	671.030	0	13.9	4	4.4	4	-1E+10	1	-1E+10	1	-1E+10	1	-1E+10	1	-1E+10	1	-1E+10	1
4902549	112	C	09/20/2023	15:58	-133.042	47.754	0	682.90	0	3.7420	0	34.2010	0	27.182	0	676.070	0	13.7	4	4.3	4	-1E+10	1	-1E+10	1	-1E+10	1	-1E+10	1	-1E+10	1	-1E+10	1
4902549	112	C	09/20/2023	15:58	-133.042	47.754	0	688.10	0	3.7350	0	34.2030	0	27.184	0	681.210	0	13.2	4	4.1	4	-1E+10	1	-1E+10	1	-1E+10	1	-1E+10	1	-1E+10	1	-1E+10	1
4902549	112	C	09/20/2023	15:58	-133.042	47.754	0	692.80	0	3.7320	0	34.2070	0	27.187	0	685.855	0	12.5	4	3.9	4	-1E+10	1	-1E+10	1	-1E+10	1	-1E+10	1	-1E+10	1	-1E+10	1
4902549	112	C	09/20/2023	15:58	-133.042	47.754	0	697.80	0	3.7270	0	34.2130	0	27.193	0	690.797	0	11.6	4	3.6	4	-1E+10	1	-1E+10	1	-1E+10	1	-1E+10	1	-1E+10	1	-1E+10	1
4902549	112	C	09/20/2023	15:58	-133.042	47.754	0	703.00	0	3.7180	0	34.2220	0	27.201	0	695.936	0	10.8	4	3.4	4	-1E+10	1	-1E+10	1	-1E+10	1	-1E+10	1	-1E+10	1	-1E+10	1
4902549	112	C	09/20/2023	15:58	-133.042	47.754	0	707.70	0	3.7080	0	34.2290	0	27.207	0	700.581	0	10.4	4	3.3	4	-1E+10	1	-1E+10	1	-1E+10	1	-1E+10	1	-1E+10	1	-1E+10	1
4902549	112	C	09/20/2023	15:58	-133.042	47.754	0	712.50	0	3.6930	0	34.2300	0	27.210	0	705.324	0	10.0	4	3.1	4	-1E+10	1	-1E+10	1	-1E+10	1	-1E+10	1	-1E+10	1	-1E+10	1
4902549	112	C	09/20/2023	15:58	-133.042	47.754	0	717.90	0	3.6740	0	34.2410	0	27.220	0	710.661	0	9.8	4	3.1	4	-1E+10	1	-1E+10	1	-1E+10	1	-1E+10	1	-1E+10	1	-1E+10	1
4902549	112	C	09/20/2023	15:58	-133.042	47.754	0	723.20	0	3.6560	0	34.2440	0	27.225	0	715.898	0	9.6	4	3.0	4	-1E+10	1	-1E+10	1	-1E+10	1	-1E+10	1	-1E+10	1	-1E+10	1
4902549	112	C	09/20/2023	15:58	-133.042	47.754	0	728.30	0	3.6380	0	34.2480	0	27.230	0	720.938	0	9.5	4	3.0	4	-1E+10	1	-1E+10	1	-1E+10	1	-1E+10	1	-1E+10	1	-1E+10	1
4902549	112	C	09/20/2023	15:58	-133.042	47.754	0	733.00	0	3.6250	0	34.2520	0	27.234	0	725.582	0	9.5	4	3.0	4	-1E+10	1	-1E+10	1	-1E+10	1	-1E+10	1	-1E+10	1	-1E+10	1
4902549	112	C	09/20/2023	15:58	-133.042	47.754	0	737.80	0	3.6080	0	34.2540	0	27.237	0	730.325	0	9.6	4	3.0	4	-1E+10	1	-1E+10	1	-1E+10	1	-1E+10	1	-1E+10	1	-1E+10	1
4902549	112	C	09/20/2023	15:58	-133.042	47.754	0	742.80	0	3.5960	0	34.2550	0	27.239	0	735.266	0	9.4	4	2.9	4	-1E+10	1	-1E+10	1	-1E+10	1	-1E+10	1	-1E+10	1	-1E+10	1
4902549	112	C	09/20/2023	15:58	-133.042	47.754	0	747.60	0	3.5900	0	34.2590	0	27.243	0	740.009	0	9.0	4	2.8	4	-1E+10	1	-1E+10	1	-1E+10	1	-1E+10	1	-1E+10	1	-1E+10	1
4902549	112	C	09/20/2023	15:58	-133.042	47.754	0	752.60	0	3.5770	0	34.2640	0	27.248	0	744.949	0	8.6	4	2.7	4	-1E+10	1	-1E+10	1	-1E+10	1	-1E+10	1	-1E+10	1	-1E+10	1
4902549	112	C	09/20/2023	15:58	-133.042	47.754	0	757.70	0	3.5620	0	34.2690	0	27.254	0	749.988	0	8.5	4	2.7	4	-1E+10	1	-1E+10	1	-1E+10	1	-1E+10	1	-1E+10	1	-1E+10	1
4902549	112	C	09/20/2023	15:58	-133.042	47.754	0	763.00	0	3.5520	0	34.2720	0	27.257	0	755.224	0	8.4	4	2.6	4	-1E+10	1	-1E+10	1	-1E+10	1	-1E+10	1	-1E+10	1	-1E+10	1
4902549	112	C	09/20/2023	15:58	-133.042	47.754	0	768.00	0	3.5440	0	34.2740	0	27.260	0	760.164	0	8.3	4	2.6	4	-1E+10	1	-1E+10	1	-1E+10	1	-1E+10	1	-1E+10	1	-1E+10	1
4902549	112	C	09/20/2023	15:58	-133.042	47.754	0	772.60	0	3.5370	0	34.2760	0	27.262	0	764.709	0	8.2	4	2.6	4	-1E+10	1	-1E+10	1	-1E+10	1	-1E+10	1	-1E+10	1	-1E+10	1
4902549	112	C	09/20/2023	15:58	-133.042	47.754	0	777.80	0	3.5300	0	34.2770	0	27.263	0	769.846	0	8.0	4	2.5	4	-1E+10	1	-1E+10	1	-1E+10	1	-1E+10	1	-1E+10	1	-1E+10	1
4902549	112	C	09/20/2023	15:58	-133.042	47.754	0	783.00	0	3.5220	0	34.2810	0	27.267	0	774.983	0	7.8	4	2.4	4	-1E+10	1	-1E+10	1	-1E+10	1	-1E+10	1	-1E+10	1	-1E+10	1
4902549	112	C	09/20/2023	15:58	-133.042	47.754	0	787.80	0	3.5190	0	34.2830	0	27.269	0	779.725	0	7.7	4	2.4	4	-1E+10	1	-1E+10	1	-1E+10	1	-1E+10	1	-1E+10	1	-1E+10	1
4902549	112	C	09/20/2023	15:58	-133.042	47.754	0	792.60	0	3.5140	0	34.2850	0	27.271	0	784.467	0	7.5	4	2.4	4	-1E+10	1	-1E+10	1	-1E+10	1	-1E+10	1	-1E+10	1	-1E+10	1
4902549	112	C	09/20/2023	15:58	-133.042	47.754	0	797.40	0	3.5070	0	34.2880	0	27.275	0	789.209	0	7.4	4	2.3	4	-1E+10	1	-1E+10	1	-1E+10	1	-1E+10	1	-1E+10	1	-1E+10	1
4902549	112	C	09/20/2023	15:58	-133.042	47.754	0	802.50	0	3.5030	0	34.2890	0	27.276	0	794.247	0	7.3	4	2.3	4	-1E+10	1	-1E+10	1	-1E+10	1	-1E+10	1	-1E+10	1	-1E+10	1
4902549	112	C	09/20/2023	15:58	-133.042	47.754	0	807.60	0	3.4950	0	34.2920	0	27.279	0	799.285	0	7.2	4	2.3	4	-1E+10	1	-1E+10	1	-1E+10	1	-1E+10	1	-1E+10	1	-1E+10	1
4902549	112	C	09/20/2023	15:58	-133.042	47.754	0	812.70	0	3.4840	0	34.2950	0	27.282	0	804.322	0	7.2	4	2.2	4	-1E+10	1	-1E+10	1	-1E+10	1	-1E+10	1	-1E+10	1	-1E+10	1
4902549	112	C	09/20/2023	15:58	-133.042	47.754	0	817.80	0	3.4740	0	34.2970	0	27.285	0	809.360	0	7.1	4	2.2	4	-1E+10	1	-1E+10	1	-1E+10	1	-1E+10	1	-1E+10	1	-1E+10	1
4902549	112	C	09/20/2023	15:58	-133.042	47.754	0	822.90	0	3.4630	0	34.3000	0	27.289	0	814.397	0	7.0	4	2.2	4	-1E+10	1	-1E+10	1	-1E+10	1	-1E+10	1	-1E+10	1	-1E+10	1
4902549	112	C	09/20/2023	15:58	-133.042	47.754	0	827.60	0	3.4560	0	34.3030	0	27.292	0	819.039	0	6.9	4	2.2	4	-1E+10	1	-1E+10	1	-1E+10	1	-1E+10	1	-1E+10	1	-1E+10	1
4902549	112	C	09/20/2023	15:58	-133.042	47.754	0	832.50	0	3.4500	0	34.3050	0	27.294	0	823.879	0	6.9	4	2.1	4	-1E+10	1	-1E+10	1	-1E+10	1	-1E+10	1	-1E+10	1	-1E+10	1
4902549	112	C	09/20/2023	15:58	-133.042	47.754	0	837.60	0	3.4470	0	34.3060	0	27.295	0	828.916	0	6.8	4	2.1	4	-1E+10	1	-1E+10	1	-1E+10	1	-1E+10	1	-1E+10	1	-1E+10	1
4902549	112	C	09/20/2023	15:58	-133.042	47.754	0	842.70	0	3.4410	0	34.3080	0	27.297	0	833.953	0	6.8	4	2.1	4	-1E+10	1	-1E+10	1	-1E+10	1	-1E+10	1	-1E+10	1	-1E+10	1
4902549	112	C	09/20/2023	15:58	-133.042	47.754	0	847.90	0	3.4380	0	34.3100	0	27.299	0	839.089	0	6.7	4	2.1	4	-1E+10	1	-1E+10	1	-1E+10	1	-1E+10	1	-1E+10	1	-1E+10	1
4902549	112	C	09/20/2023	15:58	-133.042	47.754	0	852.90	0	3.4340	0	34.3110	0	27.300	0	844.027	0	6.7	4	2.1	4	-1E+10	1	-1E+10	1	-1E+10	1	-1E+10	1	-1E+10	1	-1E+10	1
4902549	112	C	09/20/2023	15:58	-133.042	47.754	0	857.80	0	3.4310	0	34.3130	0	27.302	0	848.866	0	6.6	4	2.0	4	-1E+10	1	-1E+10	1	-1E+10	1	-1E+10	1	-1E+10	1	-1E+10	1
4902549	112	C	09/20/2023	15:58	-133.042	47.754	0	862.80	0	3.4240	0	34.3160	0	27.305	0	853.803	0	6.5	4	2.0	4	-1E+10	1	-1E+10	1	-1E+10	1	-1E+10	1	-1E+10	1	-1E+10	1
4902549	112	C	09/20/2023	15:58	-133.042	47.754	0	867.70	0	3.4150	0	34.3210	0	27.310	0	858.642	0	6.4	4	2.0	4	-1E+10	1	-1E+10	1	-1E+10	1	-1E+10	1	-1E+10	1	-1E+10	1
4902549	112	C	09/20/2023	15:58	-133.042	47.754	0	872.70	0	3.4110	0	34.3240	0	27.313	0	863.580	0	6.3	4	2.0	4	-1E+10	1	-1E+10	1	-1E+10	1	-1E+10	1	-1E+10	1	-1E+10	1
4902549	112	C	09/20/2023	15:58	-133.042	47.754	0	877.80	0	3.4080	0	34.3260	0	27.315	0	868.616	0	6.3	4	2.0	4	-1E+10	1	-1E+10	1	-1E+10	1	-1E+10	1	-1E+10	1	-1E+10	1
4902549	112	C	09/20/2023	15:58	-133.042	47.754	0	882.80	0	3.4030	0	34.3290	0	27.318	0	873.553	0	6.2	4	1.9	4	-1E+10	1	-1E+10	1	-1E+10	1	-1E+10	1	-1E+10	1	-1E+10	1
4902549	112	C	09/20/2023	15:58	-133.042	47.754	0	887.90	0	3.4060	0	34.3330	0	27.321	0	878.589	0	6.1	4	1.9	4	-1E+10	1	-1E+10	1	-1E+10	1	-1E+10	1	-1E+10	1	-1E+10	1
4902549	112	C	09/20/2023	15:58	-133.042	47.754	0	893.00	0	3.4070	0	34.3380	0	27.325	0	883.625	0	6.1	4	1.9	4	-1E+10	1	-1E+10	1	-1E+10	1	-1E+10	1	-1E+10	1	-1E+10	1
4902549	112	C	09/20/2023	15:58	-133.042	47.754	0	898.10	0	3.3970	0	34.3410	0	27.328	0	888.660	0	6.1	4	1.9	4	-1E+10	1	-1E+10	1	-1E+10	1	-1E+10	1	-1E+10	1	-1E+10	1
4902549	112	C	09/20/2023	15:58	-133.042	47.754	0	903.20	0	3.3850	0	34.3440	0	27.332	0	893.696	0	6.2	4	1.9	4	-1E+10	1	-1E+10	1	-1E+10	1	-1E+10	1	-1E+10	1	-1E+10	1
4902549	112	C	09/20/2023	15:58	-133.042	47.754	0	907.80	0	3.3740	0	34.3450	0	27.333	0	898.238	0	6.3	4	2.0	4	-1E+10	1	-1E+10	1	-1E+10	1	-1E+10	1	-1E+10	1	-1E+10	1
4902549	112	C	09/20/2023	15:58	-133.042	47.754	0	912.80	0	3.3520	0	34.3470	0	27.337	0	903.174	0	6.3	4	2.0	4	-1E+10	1	-1E+10	1	-1E+10	1	-1E+10	1	-1E+10	1	-1E+10	1
4902549	112	C	09/20/2023	15:58	-133.042	47.754	0	917.90	0	3.3420	0	34.3480	0	27.339	0	908.209	0	6.4	4	2.0	4	-1E+10	1	-1E+10	1	-1E+10	1	-1E+10	1	-1E+10	1	-1E+10	1
4902549	112	C	09/20/2023	15:58	-133.042	47.754	0	922.80	0	3.3110	0	34.3490	0	27.343	0	913.047	0	6.5	4	2.0	4	-1E+10	1	-1E+10	1	-1E+10	1	-1E+10	1	-1E+10	1	-1E+10	1
4902549	112	C	09/20/2023	15:58	-133.042	47.754	0	927.80	0	3.2860	0	34.3500	0	27.346	0	917.983	0	6.6	4	2.0	4	-1E+10	1	-1E+10	1	-1E+10	1	-1E+10	1	-1E+10	1	-1E+10	1
4902549	112	C	09/20/2023	15:58	-133.042	47.754	0	932.80	0	3.2760	0	34.3510	0	27.348	0	922.919	0	6.6	4	2.1	4	-1E+10	1	-1E+10	1	-1E+10	1	-1E+10	1	-1E+10	1	-1E+10	1
4902549	112	C	09/20/2023	15:58	-133.042	47.754	0	937.80	0	3.2710	0	34.3520	0	27.349	0	927.855	0	6.6	4	2.1	4	-1E+10	1	-1E+10	1	-1E+10	1	-1E+10	1	-1E+10	1	-1E+10	1
4902549	112	C	09/20/2023	15:58	-133.042	47.754	0	942.70	0	3.2590	0	34.3540	0	27.352	0	932.692	0	6.7	4	2.1	4	-1E+10	1	-1E+10	1	-1E+10	1	-1E+10	1	-1E+10	1	-1E+10	1
4902549	112	C	09/20/2023	15:58	-133.042	47.754	0	947.70	0	3.2220	0	34.3550	0	27.356	0	937.628	0	6.7	4	2.1	4	-1E+10	1	-1E+10	1	-1E+10	1	-1E+10	1	-1E+10	1	-1E+10	1
4902549	112	C	09/20/2023	15:58	-133.042	47.754	0	952.70	0	3.2170	0	34.3610	0	27.361	0	942.564	0	6.6	4	2.0	4	-1E+10	1	-1E+10	1	-1E+10	1	-1E+10	1	-1E+10	1	-1E+10	1
4902549	112	C	09/20/2023	15:58	-133.042	47.754	0	957.70	0	3.2340	0	34.3650	0	27.363	0	947.499	0	6.6	4	2.0	4	-1E+10	1	-1E+10	1	-1E+10	1	-1E+10	1	-1E+10	1	-1E+10	1
4902549	112	C	09/20/2023	15:58	-133.042	47.754	0	962.70	0	3.2150	0	34.3660	0	27.365	0	952.435	0	6.7	4	2.1	4	-1E+10	1	-1E+10	1	-1E+10	1	-1E+10	1	-1E+10	1	-1E+10	1
4902549	112	C	09/20/2023	15:58	-133.042	47.754	0	967.80	0	3.1910	0	34.3660	0	27.368	0	957.468	0	6.8	4	2.1	4	-1E+10	1	-1E+10	1	-1E+10	1	-1E+10	1	-1E+10	1	-1E+10	1
4902549	112	C	09/20/2023	15:58	-133.042	47.754	0	972.80	0	3.1760	0	34.3660	0	27.369	0	962.404	0	6.8	4	2.1	4	-1E+10	1	-1E+10	1	-1E+10	1	-1E+10	1	-1E+10	1	-1E+10	1
4902549	112	C	09/20/2023	15:58	-133.042	47.754	0	977.90	0	3.1600	0	34.3680	0	27.372	0	967.437	0	6.9	4	2.1	4	-1E+10	1	-1E+10	1	-1E+10	1	-1E+10	1	-1E+10	1	-1E+10	1
4902549	112	C	09/20/2023	15:58	-133.042	47.754	0	982.80	0	3.1420	0	34.3710	0	27.376	0	972.274	0	6.9	4	2.1	4	-1E+10	1	-1E+10	1	-1E+10	1	-1E+10	1	-1E+10	1	-1E+10	1
4902549	112	C	09/20/2023	15:58	-133.042	47.754	0	987.90	0	3.1320	0	34.3730	0	27.379	0	977.307	0	6.9	4	2.1	4	-1E+10	1	-1E+10	1	-1E+10	1	-1E+10	1	-1E+10	1	-1E+10	1
4902549	112	C	09/20/2023	15:58	-133.042	47.754	0	992.60	0	3.1260	0	34.3740	0	27.380	0	981.946	0	6.9	4	2.1	4	-1E+10	1	-1E+10	1	-1E+10	1	-1E+10	1	-1E+10	1	-1E+10	1
4902549	112	C	09/20/2023	15:58	-133.042	47.754	0	997.90	0	3.1160	0	34.3760	0	27.383	0	987.176	0	6.9	4	2.1	4	-1E+10	1	-1E+10	1	-1E+10	1	-1E+10	1	-1E+10	1	-1E+10	1
4902549	112	C	09/20/2023	15:58	-133.042	47.754	0	1005.60	0	3.1100	0	34.3790	0	27.386	0	994.775	0	6.9	4	2.1	4	-1E+10	1	-1E+10	1	-1E+10	1	-1E+10	1	-1E+10	1	-1E+10	1
4902549	112	C	09/20/2023	15:58	-133.042	47.754	0	1015.50	0	3.0870	0	34.3800	0	27.389	0	1004.545	0	7.0	4	2.2	4	-1E+10	1	-1E+10	1	-1E+10	1	-1E+10	1	-1E+10	1	-1E+10	1
4902549	112	C	09/20/2023	15:58	-133.042	47.754	0	1025.70	0	3.0630	0	34.3810	0	27.392	0	1014.610	0	7.1	4	2.2	4	-1E+10	1	-1E+10	1	-1E+10	1	-1E+10	1	-1E+10	1	-1E+10	1
4902549	112	C	09/20/2023	15:58	-133.042	47.754	0	1035.40	0	3.0350	0	34.3830	0	27.396	0	1024.182	0	7.2	4	2.2	4	-1E+10	1	-1E+10	1	-1E+10	1	-1E+10	1	-1E+10	1	-1E+10	1
4902549	112	C	09/20/2023	15:58	-133.042	47.754	0	1045.40	0	3.0230	0	34.3870	0	27.400	0	1034.049	0	7.2	4	2.2	4	-1E+10	1	-1E+10	1	-1E+10	1	-1E+10	1	-1E+10	1	-1E+10	1
4902549	112	C	09/20/2023	15:58	-133.042	47.754	0	1055.40	0	3.0080	0	34.3890	0	27.403	0	1043.915	0	7.3	4	2.2	4	-1E+10	1	-1E+10	1	-1E+10	1	-1E+10	1	-1E+10	1	-1E+10	1
4902549	112	C	09/20/2023	15:58	-133.042	47.754	0	1065.30	0	2.9970	0	34.3920	0	27.407	0	1053.683	0	7.3	4	2.3	4	-1E+10	1	-1E+10	1	-1E+10	1	-1E+10	1	-1E+10	1	-1E+10	1
4902549	112	C	09/20/2023	15:58	-133.042	47.754	0	1075.20	0	2.9890	0	34.3950	0	27.410	0	1063.450	0	7.4	4	2.3	4	-1E+10	1	-1E+10	1	-1E+10	1	-1E+10	1	-1E+10	1	-1E+10	1
4902549	112	C	09/20/2023	15:58	-133.042	47.754	0	1085.40	0	2.9760	0	34.3980	0	27.413	0	1073.512	0	7.5	4	2.3	4	-1E+10	1	-1E+10	1	-1E+10	1	-1E+10	1	-1E+10	1	-1E+10	1
4902549	112	C	09/20/2023	15:58	-133.042	47.754	0	1095.30	0	2.9630	0	34.4000	0	27.416	0	1083.278	0	7.5	4	2.3	4	-1E+10	1	-1E+10	1	-1E+10	1	-1E+10	1	-1E+10	1	-1E+10	1
4902549	112	C	09/20/2023	15:58	-133.042	47.754	0	1105.40	0	2.9520	0	34.4030	0	27.420	0	1093.241	0	7.6	4	2.4	4	-1E+10	1	-1E+10	1	-1E+10	1	-1E+10	1	-1E+10	1	-1E+10	1
4902549	112	C	09/20/2023	15:58	-133.042	47.754	0	1115.70	0	2.9420	0	34.4050	0	27.422	0	1103.401	0	7.7	4	2.4	4	-1E+10	1	-1E+10	1	-1E+10	1	-1E+10	1	-1E+10	1	-1E+10	1
4902549	112	C	09/20/2023	15:58	-133.042	47.754	0	1125.50	0	2.9090	0	34.4040	0	27.424	0	1113.067	0	7.9	4	2.4	4	-1E+10	1	-1E+10	1	-1E+10	1	-1E+10	1	-1E+10	1	-1E+10	1
4902549	112	C	09/20/2023	15:58	-133.042	47.754	0	1135.40	0	2.8860	0	34.4060	0	27.428	0	1122.831	0	8.0	4	2.4	4	-1E+10	1	-1E+10	1	-1E+10	1	-1E+10	1	-1E+10	1	-1E+10	1
4902549	112	C	09/20/2023	15:58	-133.042	47.754	0	1145.40	0	2.8660	0	34.4080	0	27.432	0	1132.693	0	8.1	4	2.5	4	-1E+10	1	-1E+10	1	-1E+10	1	-1E+10	1	-1E+10	1	-1E+10	1
4902549	112	C	09/20/2023	15:58	-133.042	47.754	0	1155.50	0	2.8540	0	34.4100	0	27.434	0	1142.654	0	8.2	4	2.5	4	-1E+10	1	-1E+10	1	-1E+10	1	-1E+10	1	-1E+10	1	-1E+10	1
4902549	112	C	09/20/2023	15:58	-133.042	47.754	0	1165.70	0	2.8360	0	34.4150	0	27.440	0	1152.712	0	8.4	4	2.6	4	-1E+10	1	-1E+10	1	-1E+10	1	-1E+10	1	-1E+10	1	-1E+10	1
4902549	112	C	09/20/2023	15:58	-133.042	47.754	0	1175.50	0	2.8240	0	34.4170	0	27.443	0	1162.376	0	8.5	4	2.6	4	-1E+10	1	-1E+10	1	-1E+10	1	-1E+10	1	-1E+10	1	-1E+10	1
4902549	112	C	09/20/2023	15:58	-133.042	47.754	0	1185.50	0	2.8140	0	34.4200	0	27.446	0	1172.237	0	8.6	4	2.7	4	-1E+10	1	-1E+10	1	-1E+10	1	-1E+10	1	-1E+10	1	-1E+10	1
4902549	112	C	09/20/2023	15:58	-133.042	47.754	0	1195.50	0	2.8000	0	34.4220	0	27.449	0	1182.097	0	8.8	4	2.7	4	-1E+10	1	-1E+10	1	-1E+10	1	-1E+10	1	-1E+10	1	-1E+10	1
4902549	112	C	09/20/2023	15:58	-133.042	47.754	0	1205.50	0	2.7820	0	34.4260	0	27.454	0	1191.956	0	8.9	4	2.7	4	-1E+10	1	-1E+10	1	-1E+10	1	-1E+10	1	-1E+10	1	-1E+10	1
4902549	112	C	09/20/2023	15:58	-133.042	47.754	0	1215.40	0	2.7690	0	34.4290	0	27.457	0	1201.717	0	9.1	4	2.8	4	-1E+10	1	-1E+10	1	-1E+10	1	-1E+10	1	-1E+10	1	-1E+10	1
4902549	112	C	09/20/2023	15:58	-133.042	47.754	0	1225.50	0	2.7560	0	34.4310	0	27.460	0	1211.674	0	9.3	4	2.8	4	-1E+10	1	-1E+10	1	-1E+10	1	-1E+10	1	-1E+10	1	-1E+10	1
4902549	112	C	09/20/2023	15:58	-133.042	47.754	0	1235.50	0	2.7450	0	34.4330	0	27.463	0	1221.532	0	9.4	4	2.9	4	-1E+10	1	-1E+10	1	-1E+10	1	-1E+10	1	-1E+10	1	-1E+10	1
4902549	112	C	09/20/2023	15:58	-133.042	47.754	0	1245.30	0	2.7320	0	34.4360	0	27.466	0	1231.193	0	9.7	4	3.0	4	-1E+10	1	-1E+10	1	-1E+10	1	-1E+10	1	-1E+10	1	-1E+10	1
4902549	112	C	09/20/2023	15:58	-133.042	47.754	0	1255.10	0	2.7210	0	34.4380	0	27.469	0	1240.853	0	9.9	4	3.0	4	-1E+10	1	-1E+10	1	-1E+10	1	-1E+10	1	-1E+10	1	-1E+10	1
4902549	112	C	09/20/2023	15:58	-133.042	47.754	0	1265.40	0	2.7090	0	34.4420	0	27.473	0	1251.005	0	10.3	4	3.2	4	-1E+10	1	-1E+10	1	-1E+10	1	-1E+10	1	-1E+10	1	-1E+10	1
4902549	112	C	09/20/2023	15:58	-133.042	47.754	0	1275.80	0	2.6920	0	34.4460	0	27.478	0	1261.256	0	10.6	4	3.2	4	-1E+10	1	-1E+10	1	-1E+10	1	-1E+10	1	-1E+10	1	-1E+10	1
4902549	112	C	09/20/2023	15:58	-133.042	47.754	0	1285.80	0	2.6730	0	34.4480	0	27.481	0	1271.112	0	10.9	4	3.3	4	-1E+10	1	-1E+10	1	-1E+10	1	-1E+10	1	-1E+10	1	-1E+10	1
4902549	112	C	09/20/2023	15:58	-133.042	47.754	0	1295.70	0	2.6560	0	34.4520	0	27.486	0	1280.868	0	11.2	4	3.4	4	-1E+10	1	-1E+10	1	-1E+10	1	-1E+10	1	-1E+10	1	-1E+10	1
4902549	112	C	09/20/2023	15:58	-133.042	47.754	0	1305.30	0	2.6410	0	34.4540	0	27.489	0	1290.329	0	11.5	4	3.5	4	-1E+10	1	-1E+10	1	-1E+10	1	-1E+10	1	-1E+10	1	-1E+10	1
4902549	112	C	09/20/2023	15:58	-133.042	47.754	0	1315.50	0	2.6370	0	34.4570	0	27.492	0	1300.381	0	12.1	4	3.7	4	-1E+10	1	-1E+10	1	-1E+10	1	-1E+10	1	-1E+10	1	-1E+10	1
4902549	112	C	09/20/2023	15:58	-133.042	47.754	0	1325.30	0	2.6390	0	34.4620	0	27.496	0	1310.038	0	12.8	4	3.9	4	-1E+10	1	-1E+10	1	-1E+10	1	-1E+10	1	-1E+10	1	-1E+10	1
4902549	112	C	09/20/2023	15:58	-133.042	47.754	0	1335.10	0	2.6300	0	34.4670	0	27.500	0	1319.694	0	13.3	4	4.1	4	-1E+10	1	-1E+10	1	-1E+10	1	-1E+10	1	-1E+10	1	-1E+10	1
4902549	112	C	09/20/2023	15:58	-133.042	47.754	0	1345.10	0	2.6140	0	34.4690	0	27.503	0	1329.547	0	13.7	4	4.2	4	-1E+10	1	-1E+10	1	-1E+10	1	-1E+10	1	-1E+10	1	-1E+10	1
4902549	112	C	09/20/2023	15:58	-133.042	47.754	0	1355.40	0	2.5920	0	34.4720	0	27.508	0	1339.695	0	13.9	4	4.3	4	-1E+10	1	-1E+10	1	-1E+10	1	-1E+10	1	-1E+10	1	-1E+10	1
4902549	112	C	09/20/2023	15:58	-133.042	47.754	0	1365.60	0	2.5760	0	34.4730	0	27.510	0	1349.744	0	14.2	4	4.3	4	-1E+10	1	-1E+10	1	-1E+10	1	-1E+10	1	-1E+10	1	-1E+10	1
4902549	112	C	09/20/2023	15:58	-133.042	47.754	0	1375.50	0	2.5650	0	34.4740	0	27.512	0	1359.498	0	14.4	4	4.4	4	-1E+10	1	-1E+10	1	-1E+10	1	-1E+10	1	-1E+10	1	-1E+10	1
4902549	112	C	09/20/2023	15:58	-133.042	47.754	0	1385.70	0	2.5570	0	34.4750	0	27.513	0	1369.546	0	14.8	4	4.5	4	-1E+10	1	-1E+10	1	-1E+10	1	-1E+10	1	-1E+10	1	-1E+10	1
4902549	112	C	09/20/2023	15:58	-133.042	47.754	0	1395.50	0	2.5500	0	34.4780	0	27.516	0	1379.200	0	15.2	4	4.6	4	-1E+10	1	-1E+10	1	-1E+10	1	-1E+10	1	-1E+10	1	-1E+10	1
4902549	112	C	09/20/2023	15:58	-133.042	47.754	0	1405.50	0	2.5340	0	34.4800	0	27.519	0	1389.050	0	15.8	4	4.8	4	-1E+10	1	-1E+10	1	-1E+10	1	-1E+10	1	-1E+10	1	-1E+10	1
4902549	112	C	09/20/2023	15:58	-133.042	47.754	0	1415.70	0	2.5300	0	34.4840	0	27.523	0	1399.097	0	16.5	4	5.1	4	-1E+10	1	-1E+10	1	-1E+10	1	-1E+10	1	-1E+10	1	-1E+10	1
4902549	112	C	09/20/2023	15:58	-133.042	47.754	0	1425.30	0	2.5140	0	34.4860	0	27.526	0	1408.552	0	17.1	4	5.2	4	-1E+10	1	-1E+10	1	-1E+10	1	-1E+10	1	-1E+10	1	-1E+10	1
4902549	112	C	09/20/2023	15:58	-133.042	47.754	0	1435.30	0	2.5140	0	34.4900	0	27.529	0	1418.401	0	17.8	4	5.4	4	-1E+10	1	-1E+10	1	-1E+10	1	-1E+10	1	-1E+10	1	-1E+10	1
4902549	112	C	09/20/2023	15:58	-133.042	47.754	0	1445.20	0	2.5040	0	34.4930	0	27.532	0	1428.151	0	18.2	4	5.6	4	-1E+10	1	-1E+10	1	-1E+10	1	-1E+10	1	-1E+10	1	-1E+10	1
4902549	112	C	09/20/2023	15:58	-133.042	47.754	0	1455.20	0	2.4920	0	34.4940	0	27.534	0	1437.999	0	18.8	4	5.7	4	-1E+10	1	-1E+10	1	-1E+10	1	-1E+10	1	-1E+10	1	-1E+10	1
4902549	112	C	09/20/2023	15:58	-133.042	47.754	0	1465.70	0	2.4890	0	34.4970	0	27.537	0	1448.339	0	19.8	4	6.0	4	-1E+10	1	-1E+10	1	-1E+10	1	-1E+10	1	-1E+10	1	-1E+10	1
4902549	112	C	09/20/2023	15:58	-133.042	47.754	0	1475.50	0	2.4840	0	34.5020	0	27.542	0	1457.989	0	20.8	4	6.3	4	-1E+10	1	-1E+10	1	-1E+10	1	-1E+10	1	-1E+10	1	-1E+10	1
4902549	112	C	09/20/2023	15:58	-133.042	47.754	0	1485.30	0	2.4660	0	34.5060	0	27.546	0	1467.639	0	21.4	4	6.5	4	-1E+10	1	-1E+10	1	-1E+10	1	-1E+10	1	-1E+10	1	-1E+10	1
4902549	112	C	09/20/2023	15:58	-133.042	47.754	0	1495.60	0	2.4450	0	34.5070	0	27.549	0	1477.780	0	21.8	4	6.6	4	-1E+10	1	-1E+10	1	-1E+10	1	-1E+10	1	-1E+10	1	-1E+10	1
4902549	112	C	09/20/2023	15:58	-133.042	47.754	0	1505.30	0	2.4310	0	34.5090	0	27.552	0	1487.331	0	22.2	4	6.8	4	-1E+10	1	-1E+10	1	-1E+10	1	-1E+10	1	-1E+10	1	-1E+10	1
4902549	112	C	09/20/2023	15:58	-133.042	47.754	0	1515.00	0	2.4040	0	34.5100	0	27.555	0	1496.880	0	22.7	4	6.9	4	-1E+10	1	-1E+10	1	-1E+10	1	-1E+10	1	-1E+10	1	-1E+10	1
4902549	112	C	09/20/2023	15:58	-133.042	47.754	0	1525.10	0	2.3910	0	34.5120	0	27.557	0	1506.824	0	23.4	4	7.1	4	-1E+10	1	-1E+10	1	-1E+10	1	-1E+10	1	-1E+10	1	-1E+10	1
4902549	112	C	09/20/2023	15:58	-133.042	47.754	0	1535.30	0	2.3810	0	34.5150	0	27.561	0	1516.865	0	24.3	4	7.4	4	-1E+10	1	-1E+10	1	-1E+10	1	-1E+10	1	-1E+10	1	-1E+10	1
4902549	112	C	09/20/2023	15:58	-133.042	47.754	0	1545.40	0	2.3690	0	34.5180	0	27.564	0	1526.807	0	24.7	4	7.5	4	-1E+10	1	-1E+10	1	-1E+10	1	-1E+10	1	-1E+10	1	-1E+10	1
4902549	112	C	09/20/2023	15:58	-133.042	47.754	0	1555.70	0	2.3380	0	34.5190	0	27.568	0	1536.946	0	24.8	4	7.5	4	-1E+10	1	-1E+10	1	-1E+10	1	-1E+10	1	-1E+10	1	-1E+10	1
4902549	112	C	09/20/2023	15:58	-133.042	47.754	0	1565.40	0	2.3200	0	34.5190	0	27.569	0	1546.493	0	25.3	4	7.7	4	-1E+10	1	-1E+10	1	-1E+10	1	-1E+10	1	-1E+10	1	-1E+10	1
4902549	112	C	09/20/2023	15:58	-133.042	47.754	0	1575.20	0	2.3060	0	34.5200	0	27.571	0	1556.139	0	25.7	4	7.8	4	-1E+10	1	-1E+10	1	-1E+10	1	-1E+10	1	-1E+10	1	-1E+10	1
4902549	112	C	09/20/2023	15:58	-133.042	47.754	0	1585.50	0	2.2950	0	34.5220	0	27.574	0	1566.276	0	26.3	4	8.0	4	-1E+10	1	-1E+10	1	-1E+10	1	-1E+10	1	-1E+10	1	-1E+10	1
4902549	112	C	09/20/2023	15:58	-133.042	47.754	0	1595.60	0	2.2770	0	34.5240	0	27.577	0	1576.216	0	27.2	4	8.2	4	-1E+10	1	-1E+10	1	-1E+10	1	-1E+10	1	-1E+10	1	-1E+10	1
4902549	112	C	09/20/2023	15:58	-133.042	47.754	0	1605.60	0	2.2580	0	34.5270	0	27.581	0	1586.057	0	28.3	4	8.6	4	-1E+10	1	-1E+10	1	-1E+10	1	-1E+10	1	-1E+10	1	-1E+10	1
4902549	112	C	09/20/2023	15:58	-133.042	47.754	0	1615.40	0	2.2530	0	34.5310	0	27.584	0	1595.701	0	29.4	4	8.9	4	-1E+10	1	-1E+10	1	-1E+10	1	-1E+10	1	-1E+10	1	-1E+10	1
4902549	112	C	09/20/2023	15:58	-133.042	47.754	0	1625.40	0	2.2380	0	34.5340	0	27.588	0	1605.541	0	30.1	4	9.1	4	-1E+10	1	-1E+10	1	-1E+10	1	-1E+10	1	-1E+10	1	-1E+10	1
4902549	112	C	09/20/2023	15:58	-133.042	47.754	0	1635.40	0	2.2300	0	34.5350	0	27.590	0	1615.381	0	30.4	4	9.2	4	-1E+10	1	-1E+10	1	-1E+10	1	-1E+10	1	-1E+10	1	-1E+10	1
4902549	112	C	09/20/2023	15:58	-133.042	47.754	0	1645.30	0	2.2190	0	34.5360	0	27.591	0	1625.122	0	30.7	4	9.3	4	-1E+10	1	-1E+10	1	-1E+10	1	-1E+10	1	-1E+10	1	-1E+10	1
4902549	112	C	09/20/2023	15:58	-133.042	47.754	0	1655.40	0	2.2100	0	34.5360	0	27.592	0	1635.059	0	31.0	4	9.4	4	-1E+10	1	-1E+10	1	-1E+10	1	-1E+10	1	-1E+10	1	-1E+10	1
4902549	112	C	09/20/2023	15:58	-133.042	47.754	0	1665.40	0	2.2000	0	34.5380	0	27.595	0	1644.897	0	31.7	4	9.6	4	-1E+10	1	-1E+10	1	-1E+10	1	-1E+10	1	-1E+10	1	-1E+10	1
4902549	112	C	09/20/2023	15:58	-133.042	47.754	0	1675.70	0	2.1900	0	34.5400	0	27.597	0	1655.030	0	32.2	4	9.8	4	-1E+10	1	-1E+10	1	-1E+10	1	-1E+10	1	-1E+10	1	-1E+10	1
4902549	112	C	09/20/2023	15:58	-133.042	47.754	0	1685.90	0	2.1860	0	34.5410	0	27.598	0	1665.065	0	32.8	4	9.9	4	-1E+10	1	-1E+10	1	-1E+10	1	-1E+10	1	-1E+10	1	-1E+10	1
4902549	112	C	09/20/2023	15:58	-133.042	47.754	0	1695.60	0	2.1780	0	34.5420	0	27.600	0	1674.606	0	33.5	4	10.1	4	-1E+10	1	-1E+10	1	-1E+10	1	-1E+10	1	-1E+10	1	-1E+10	1
4902549	112	C	09/20/2023	15:58	-133.042	47.754	0	1705.30	0	2.1670	0	34.5450	0	27.603	0	1684.148	0	34.4	4	10.4	4	-1E+10	1	-1E+10	1	-1E+10	1	-1E+10	1	-1E+10	1	-1E+10	1
4902549	112	C	09/20/2023	15:58	-133.042	47.754	0	1715.20	0	2.1620	0	34.5470	0	27.605	0	1693.886	0	35.4	4	10.7	4	-1E+10	1	-1E+10	1	-1E+10	1	-1E+10	1	-1E+10	1	-1E+10	1
4902549	112	C	09/20/2023	15:58	-133.042	47.754	0	1725.50	0	2.1540	0	34.5500	0	27.608	0	1704.016	0	36.3	4	11.0	4	-1E+10	1	-1E+10	1	-1E+10	1	-1E+10	1	-1E+10	1	-1E+10	1
4902549	112	C	09/20/2023	15:58	-133.042	47.754	0	1735.50	0	2.1370	0	34.5520	0	27.611	0	1713.851	0	36.5	4	11.0	4	-1E+10	1	-1E+10	1	-1E+10	1	-1E+10	1	-1E+10	1	-1E+10	1
4902549	112	C	09/20/2023	15:58	-133.042	47.754	0	1745.30	0	2.1240	0	34.5510	0	27.611	0	1723.489	0	36.4	4	11.0	4	-1E+10	1	-1E+10	1	-1E+10	1	-1E+10	1	-1E+10	1	-1E+10	1
4902549	112	C	09/20/2023	15:58	-133.042	47.754	0	1755.30	0	2.1120	0	34.5510	0	27.612	0	1733.324	0	36.8	4	11.1	4	-1E+10	1	-1E+10	1	-1E+10	1	-1E+10	1	-1E+10	1	-1E+10	1
4902549	112	C	09/20/2023	15:58	-133.042	47.754	0	1765.40	0	2.1040	0	34.5530	0	27.615	0	1743.256	0	37.4	4	11.3	4	-1E+10	1	-1E+10	1	-1E+10	1	-1E+10	1	-1E+10	1	-1E+10	1
4902549	112	C	09/20/2023	15:58	-133.042	47.754	0	1775.30	0	2.0960	0	34.5540	0	27.616	0	1752.991	0	37.9	4	11.5	4	-1E+10	1	-1E+10	1	-1E+10	1	-1E+10	1	-1E+10	1	-1E+10	1
4902549	112	C	09/20/2023	15:58	-133.042	47.754	0	1785.30	0	2.0880	0	34.5550	0	27.618	0	1762.824	0	38.5	4	11.6	4	-1E+10	1	-1E+10	1	-1E+10	1	-1E+10	1	-1E+10	1	-1E+10	1
4902549	112	C	09/20/2023	15:58	-133.042	47.754	0	1795.40	0	2.0820	0	34.5570	0	27.620	0	1772.754	0	39.1	4	11.8	4	-1E+10	1	-1E+10	1	-1E+10	1	-1E+10	1	-1E+10	1	-1E+10	1
4902549	112	C	09/20/2023	15:58	-133.042	47.754	0	1805.40	0	2.0740	0	34.5580	0	27.621	0	1782.586	0	39.5	4	11.9	4	-1E+10	1	-1E+10	1	-1E+10	1	-1E+10	1	-1E+10	1	-1E+10	1
4902549	112	C	09/20/2023	15:58	-133.042	47.754	0	1815.40	0	2.0680	0	34.5590	0	27.623	0	1792.418	0	40.1	4	12.1	4	-1E+10	1	-1E+10	1	-1E+10	1	-1E+10	1	-1E+10	1	-1E+10	1
4902549	112	C	09/20/2023	15:58	-133.042	47.754	0	1825.40	0	2.0580	0	34.5610	0	27.625	0	1802.249	0	40.9	4	12.4	4	-1E+10	1	-1E+10	1	-1E+10	1	-1E+10	1	-1E+10	1	-1E+10	1
4902549	112	C	09/20/2023	15:58	-133.042	47.754	0	1835.50	0	2.0480	0	34.5620	0	27.627	0	1812.177	0	41.8	4	12.6	4	-1E+10	1	-1E+10	1	-1E+10	1	-1E+10	1	-1E+10	1	-1E+10	1
4902549	112	C	09/20/2023	15:58	-133.042	47.754	0	1845.40	0	2.0400	0	34.5650	0	27.630	0	1821.909	0	42.6	4	12.9	4	-1E+10	1	-1E+10	1	-1E+10	1	-1E+10	1	-1E+10	1	-1E+10	1
4902549	112	C	09/20/2023	15:58	-133.042	47.754	0	1855.40	0	2.0350	0	34.5660	0	27.631	0	1831.739	0	43.2	4	13.0	4	-1E+10	1	-1E+10	1	-1E+10	1	-1E+10	1	-1E+10	1	-1E+10	1
4902549	112	C	09/20/2023	15:58	-133.042	47.754	0	1865.60	0	2.0220	0	34.5680	0	27.634	0	1841.765	0	44.0	4	13.3	4	-1E+10	1	-1E+10	1	-1E+10	1	-1E+10	1	-1E+10	1	-1E+10	1
4902549	112	C	09/20/2023	15:58	-133.042	47.754	0	1875.70	0	2.0160	0	34.5690	0	27.635	0	1851.692	0	44.6	4	13.4	4	-1E+10	1	-1E+10	1	-1E+10	1	-1E+10	1	-1E+10	1	-1E+10	1
4902549	112	C	09/20/2023	15:58	-133.042	47.754	0	1885.50	0	2.0080	0	34.5710	0	27.637	0	1861.323	0	45.4	4	13.7	4	-1E+10	1	-1E+10	1	-1E+10	1	-1E+10	1	-1E+10	1	-1E+10	1
4902549	112	C	09/20/2023	15:58	-133.042	47.754	0	1895.50	0	1.9960	0	34.5730	0	27.640	0	1871.151	0	46.2	4	13.9	4	-1E+10	1	-1E+10	1	-1E+10	1	-1E+10	1	-1E+10	1	-1E+10	1
4902549	112	C	09/20/2023	15:58	-133.042	47.754	0	1905.40	0	1.9880	0	34.5750	0	27.642	0	1880.880	0	46.8	4	14.1	4	-1E+10	1	-1E+10	1	-1E+10	1	-1E+10	1	-1E+10	1	-1E+10	1
4902549	112	C	09/20/2023	15:58	-133.042	47.754	0	1915.50	0	1.9850	0	34.5760	0	27.643	0	1890.806	0	47.2	4	14.2	4	-1E+10	1	-1E+10	1	-1E+10	1	-1E+10	1	-1E+10	1	-1E+10	1
4902549	112	C	09/20/2023	15:58	-133.042	47.754	0	1925.50	0	1.9780	0	34.5760	0	27.644	0	1900.632	0	47.8	4	14.4	4	-1E+10	1	-1E+10	1	-1E+10	1	-1E+10	1	-1E+10	1	-1E+10	1
4902549	112	C	09/20/2023	15:58	-133.042	47.754	0	1935.50	0	1.9720	0	34.5780	0	27.646	0	1910.458	0	48.3	4	14.5	4	-1E+10	1	-1E+10	1	-1E+10	1	-1E+10	1	-1E+10	1	-1E+10	1
4902549	112	C	09/20/2023	15:58	-133.042	47.754	0	1945.30	0	1.9670	0	34.5790	0	27.647	0	1920.087	0	48.7	4	14.7	4	-1E+10	1	-1E+10	1	-1E+10	1	-1E+10	1	-1E+10	1	-1E+10	1
4902549	112	C	09/20/2023	15:58	-133.042	47.754	0	1955.20	0	1.9600	0	34.5800	0	27.649	0	1929.814	0	49.2	4	14.8	4	-1E+10	1	-1E+10	1	-1E+10	1	-1E+10	1	-1E+10	1	-1E+10	1
4902549	112	C	09/20/2023	15:58	-133.042	47.754	0	1965.30	0	1.9520	0	34.5810	0	27.650	0	1939.737	0	49.8	4	15.0	4	-1E+10	1	-1E+10	1	-1E+10	1	-1E+10	1	-1E+10	1	-1E+10	1
4902549	112	C	09/20/2023	15:58	-133.042	47.754	0	1975.10	0	1.9460	0	34.5820	0	27.651	0	1949.365	0	50.1	4	15.1	4	-1E+10	1	-1E+10	1	-1E+10	1	-1E+10	1	-1E+10	1	-1E+10	1
4902549	112	C	09/20/2023	15:58	-133.042	47.754	0	1985.20	0	1.9450	0	34.5830	0	27.652	0	1959.286	0	50.4	4	15.2	4	-1E+10	1	-1E+10	1	-1E+10	1	-1E+10	1	-1E+10	1	-1E+10	1
4902549	112	C	09/20/2023	15:58	-133.042	47.754	0	1995.40	0	1.9390	0	34.5840	0	27.654	0	1969.306	0	50.8	4	15.3	4	-1E+10	1	-1E+10	1	-1E+10	1	-1E+10	1	-1E+10	1	-1E+10	1
4902549	112	C	09/20/2023	15:58	-133.042	47.754	0	2005.50	0	1.9330	0	34.5850	0	27.655	0	1979.227	0	51.3	4	15.4	4	-1E+10	1	-1E+10	1	-1E+10	1	-1E+10	1	-1E+10	1	-1E+10	1
4902549	112	C	09/20/2023	15:58	-133.042	47.754	0	2015.90	0	1.9250	0	34.5860	0	27.656	0	1989.443	0	51.6	4	15.5	4	-1E+10	1	-1E+10	1	-1E+10	1	-1E+10	1	-1E+10	1	-1E+10	1
4902549	112	C	09/20/2023	15:58	-133.042	47.754	0	2022.80	0	1.9210	0	34.5870	0	27.658	0	1996.220	0	51.3	4	15.5	4	-1E+10	1	-1E+10	1	-1E+10	1	-1E+10	1	-1E+10	1	-1E+10	1
4902549	112	C	09/20/2023	15:58	-133.042	47.754	0																										
4902549	113	C	09/30/2023	21:03	-133.150	47.694	0	0.10	0	14.8370	0	32.3720	0	23.982	0	0.099	0	246.9	4	97.5	4	-1E+10	1	-1E+10	1	-1E+10	1	-1E+10	1	-1E+10	1	-1E+10	1
4902549	113	C	09/30/2023	21:03	-133.150	47.694	0	0.20	0	14.8370	0	32.3720	0	23.982	0	0.198	0	-1e10	1	-1e10	1	-1E+10	1	-1E+10	1	-1E+10	1	-1E+10	1	-1E+10	1	-1E+10	1
4902549	113	C	09/30/2023	21:03	-133.150	47.694	0	0.30	0	14.8250	0	32.3600	0	23.976	0	0.297	0	240.7	4	95.0	4	-1E+10	1	-1E+10	1	-1E+10	1	-1E+10	1	-1E+10	1	-1E+10	1
4902549	113	C	09/30/2023	21:03	-133.150	47.694	0	1.00	0	14.8250	0	32.3580	0	23.974	0	0.992	0	240.8	4	95.1	4	-1E+10	1	-1E+10	1	-1E+10	1	-1E+10	1	-1E+10	1	-1E+10	1
4902549	113	C	09/30/2023	21:03	-133.150	47.694	0	2.10	0	14.8210	0	32.3580	0	23.975	0	2.082	0	241.1	4	95.2	4	-1E+10	1	-1E+10	1	-1E+10	1	-1E+10	1	-1E+10	1	-1E+10	1
4902549	113	C	09/30/2023	21:03	-133.150	47.694	0	2.90	0	14.8180	0	32.3580	0	23.976	0	2.876	0	240.9	4	95.1	4	-1E+10	1	-1E+10	1	-1E+10	1	-1E+10	1	-1E+10	1	-1E+10	1
4902549	113	C	09/30/2023	21:03	-133.150	47.694	0	3.80	0	14.8130	0	32.3610	0	23.979	0	3.768	0	240.8	4	95.1	4	-1E+10	1	-1E+10	1	-1E+10	1	-1E+10	1	-1E+10	1	-1E+10	1
4902549	113	C	09/30/2023	21:03	-133.150	47.694	0	4.90	0	14.8060	0	32.3700	0	23.988	0	4.859	0	240.8	4	95.1	4	-1E+10	1	-1E+10	1	-1E+10	1	-1E+10	1	-1E+10	1	-1E+10	1
4902549	113	C	09/30/2023	21:03	-133.150	47.694	0	5.80	0	14.7870	0	32.3720	0	23.993	0	5.751	0	240.9	4	95.1	4	-1E+10	1	-1E+10	1	-1E+10	1	-1E+10	1	-1E+10	1	-1E+10	1
4902549	113	C	09/30/2023	21:03	-133.150	47.694	0	6.90	0	14.7730	0	32.3700	0	23.995	0	6.842	0	240.9	4	95.0	4	-1E+10	1	-1E+10	1	-1E+10	1	-1E+10	1	-1E+10	1	-1E+10	1
4902549	113	C	09/30/2023	21:03	-133.150	47.694	0	7.90	0	14.7600	0	32.3710	0	23.998	0	7.834	0	240.9	4	95.0	4	-1E+10	1	-1E+10	1	-1E+10	1	-1E+10	1	-1E+10	1	-1E+10	1
4902549	113	C	09/30/2023	21:03	-133.150	47.694	0	8.90	0	14.7560	0	32.3720	0	24.000	0	8.825	0	241.0	4	95.1	4	-1E+10	1	-1E+10	1	-1E+10	1	-1E+10	1	-1E+10	1	-1E+10	1
4902549	113	C	09/30/2023	21:03	-133.150	47.694	0	10.00	0	14.7520	0	32.3710	0	24.000	0	9.916	0	241.0	4	95.1	4	-1E+10	1	-1E+10	1	-1E+10	1	-1E+10	1	-1E+10	1	-1E+10	1
4902549	113	C	09/30/2023	21:03	-133.150	47.694	0	11.10	0	14.7480	0	32.3720	0	24.002	0	11.007	0	241.1	4	95.1	4	-1E+10	1	-1E+10	1	-1E+10	1	-1E+10	1	-1E+10	1	-1E+10	1
4902549	113	C	09/30/2023	21:03	-133.150	47.694	0	11.90	0	14.7440	0	32.3720	0	24.003	0	11.800	0	241.0	4	95.0	4	-1E+10	1	-1E+10	1	-1E+10	1	-1E+10	1	-1E+10	1	-1E+10	1
4902549	113	C	09/30/2023	21:03	-133.150	47.694	0	13.00	0	14.7410	0	32.3720	0	24.003	0	12.891	0	241.0	4	95.0	4	-1E+10	1	-1E+10	1	-1E+10	1	-1E+10	1	-1E+10	1	-1E+10	1
4902549	113	C	09/30/2023	21:03	-133.150	47.694	0	14.10	0	14.7380	0	32.3730	0	24.005	0	13.982	0	241.1	4	95.1	4	-1E+10	1	-1E+10	1	-1E+10	1	-1E+10	1	-1E+10	1	-1E+10	1
4902549	113	C	09/30/2023	21:03	-133.150	47.694	0	14.90	0	14.7390	0	32.3730	0	24.004	0	14.775	0	241.0	4	95.0	4	-1E+10	1	-1E+10	1	-1E+10	1	-1E+10	1	-1E+10	1	-1E+10	1
4902549	113	C	09/30/2023	21:03	-133.150	47.694	0	16.00	0	14.7390	0	32.3730	0	24.004	0	15.866	0	241.2	4	95.1	4	-1E+10	1	-1E+10	1	-1E+10	1	-1E+10	1	-1E+10	1	-1E+10	1
4902549	113	C	09/30/2023	21:03	-133.150	47.694	0	17.20	0	14.7380	0	32.3740	0	24.006	0	17.055	0	241.2	4	95.1	4	-1E+10	1	-1E+10	1	-1E+10	1	-1E+10	1	-1E+10	1	-1E+10	1
4902549	113	C	09/30/2023	21:03	-133.150	47.694	0	18.00	0	14.7380	0	32.3730	0	24.005	0	17.849	0	241.1	4	95.0	4	-1E+10	1	-1E+10	1	-1E+10	1	-1E+10	1	-1E+10	1	-1E+10	1
4902549	113	C	09/30/2023	21:03	-133.150	47.694	0	18.70	0	14.7370	0	32.3740	0	24.006	0	18.543	0	241.2	4	95.1	4	-1E+10	1	-1E+10	1	-1E+10	1	-1E+10	1	-1E+10	1	-1E+10	1
4902549	113	C	09/30/2023	21:03	-133.150	47.694	0	19.90	0	14.7360	0	32.3730	0	24.005	0	19.733	0	241.1	4	95.1	4	-1E+10	1	-1E+10	1	-1E+10	1	-1E+10	1	-1E+10	1	-1E+10	1
4902549	113	C	09/30/2023	21:03	-133.150	47.694	0	21.10	0	14.7340	0	32.3750	0	24.007	0	20.922	0	241.2	4	95.1	4	-1E+10	1	-1E+10	1	-1E+10	1	-1E+10	1	-1E+10	1	-1E+10	1
4902549	113	C	09/30/2023	21:03	-133.150	47.694	0	21.90	0	14.7340	0	32.3740	0	24.007	0	21.716	0	241.2	4	95.1	4	-1E+10	1	-1E+10	1	-1E+10	1	-1E+10	1	-1E+10	1	-1E+10	1
4902549	113	C	09/30/2023	21:03	-133.150	47.694	0	23.00	0	14.7330	0	32.3740	0	24.007	0	22.806	0	241.2	4	95.1	4	-1E+10	1	-1E+10	1	-1E+10	1	-1E+10	1	-1E+10	1	-1E+10	1
4902549	113	C	09/30/2023	21:03	-133.150	47.694	0	24.30	0	14.7330	0	32.3750	0	24.008	0	24.095	0	241.2	4	95.1	4	-1E+10	1	-1E+10	1	-1E+10	1	-1E+10	1	-1E+10	1	-1E+10	1
4902549	113	C	09/30/2023	21:03	-133.150	47.694	0	25.10	0	14.7320	0	32.3750	0	24.008	0	24.889	0	241.3	4	95.1	4	-1E+10	1	-1E+10	1	-1E+10	1	-1E+10	1	-1E+10	1	-1E+10	1
4902549	113	C	09/30/2023	21:03	-133.150	47.694	0	25.90	0	14.7320	0	32.3750	0	24.008	0	25.682	0	241.3	4	95.1	4	-1E+10	1	-1E+10	1	-1E+10	1	-1E+10	1	-1E+10	1	-1E+10	1
4902549	113	C	09/30/2023	21:03	-133.150	47.694	0	26.80	0	14.7320	0	32.3750	0	24.008	0	26.574	0	241.3	4	95.1	4	-1E+10	1	-1E+10	1	-1E+10	1	-1E+10	1	-1E+10	1	-1E+10	1
4902549	113	C	09/30/2023	21:03	-133.150	47.694	0	27.60	0	14.7310	0	32.3750	0	24.008	0	27.367	0	241.4	4	95.1	4	-1E+10	1	-1E+10	1	-1E+10	1	-1E+10	1	-1E+10	1	-1E+10	1
4902549	113	C	09/30/2023	21:03	-133.150	47.694	0	28.90	0	14.7310	0	32.3750	0	24.008	0	28.656	0	241.5	4	95.2	4	-1E+10	1	-1E+10	1	-1E+10	1	-1E+10	1	-1E+10	1	-1E+10	1
4902549	113	C	09/30/2023	21:03	-133.150	47.694	0	30.10	0	14.7300	0	32.3760	0	24.009	0	29.846	0	241.7	4	95.3	4	-1E+10	1	-1E+10	1	-1E+10	1	-1E+10	1	-1E+10	1	-1E+10	1
4902549	113	C	09/30/2023	21:03	-133.150	47.694	0	30.90	0	14.7310	0	32.3750	0	24.008	0	30.639	0	241.8	4	95.3	4	-1E+10	1	-1E+10	1	-1E+10	1	-1E+10	1	-1E+10	1	-1E+10	1
4902549	113	C	09/30/2023	21:03	-133.150	47.694	0	31.90	0	14.7300	0	32.3750	0	24.008	0	31.631	0	242.0	4	95.4	4	-1E+10	1	-1E+10	1	-1E+10	1	-1E+10	1	-1E+10	1	-1E+10	1
4902549	113	C	09/30/2023	21:03	-133.150	47.694	0	33.00	0	14.7290	0	32.3760	0	24.009	0	32.721	0	242.3	4	95.5	4	-1E+10	1	-1E+10	1	-1E+10	1	-1E+10	1	-1E+10	1	-1E+10	1
4902549	113	C	09/30/2023	21:03	-133.150	47.694	0	34.00	0	14.7220	0	32.3750	0	24.010	0	33.713	0	242.8	4	95.7	4	-1E+10	1	-1E+10	1	-1E+10	1	-1E+10	1	-1E+10	1	-1E+10	1
4902549	113	C	09/30/2023	21:03	-133.150	47.694	0	34.90	0	14.7140	0	32.3730	0	24.010	0	34.605	0	243.6	4	96.0	4	-1E+10	1	-1E+10	1	-1E+10	1	-1E+10	1	-1E+10	1	-1E+10	1
4902549	113	C	09/30/2023	21:03	-133.150	47.694	0	36.00	0	14.3240	0	32.3680	0	24.089	0	35.696	0	247.0	4	96.6	4	-1E+10	1	-1E+10	1	-1E+10	1	-1E+10	1	-1E+10	1	-1E+10	1
4902549	113	C	09/30/2023	21:03	-133.150	47.694	0	36.90	0	13.2730	0	32.3800	0	24.312	0	36.588	0	257.1	4	98.4	4	-1E+10	1	-1E+10	1	-1E+10	1	-1E+10	1	-1E+10	1	-1E+10	1
4902549	113	C	09/30/2023	21:03	-133.150	47.694	0	38.00	0	10.6190	0	32.4240	0	24.838	0	37.679	0	275.2	4	99.7	4	-1E+10	1	-1E+10	1	-1E+10	1	-1E+10	1	-1E+10	1	-1E+10	1
4902549	113	C	09/30/2023	21:03	-133.150	47.694	0	39.00	0	10.1180	0	32.4240	0	24.923	0	38.670	0	277.2	4	99.3	4	-1E+10	1	-1E+10	1	-1E+10	1	-1E+10	1	-1E+10	1	-1E+10	1
4902549	113	C	09/30/2023	21:03	-133.150	47.694	0	40.10	0	9.5770	0	32.4570	0	25.037	0	39.761	0	277.9	4	98.5	4	-1E+10	1	-1E+10	1	-1E+10	1	-1E+10	1	-1E+10	1	-1E+10	1
4902549	113	C	09/30/2023	21:03	-133.150	47.694	0	40.90	0	9.3930	0	32.4370	0	25.051	0	40.554	0	277.2	4	97.8	4	-1E+10	1	-1E+10	1	-1E+10	1	-1E+10	1	-1E+10	1	-1E+10	1
4902549	113	C	09/30/2023	21:03	-133.150	47.694	0	42.00	0	9.2620	0	32.4370	0	25.072	0	41.644	0	275.4	4	96.9	4	-1E+10	1	-1E+10	1	-1E+10	1	-1E+10	1	-1E+10	1	-1E+10	1
4902549	113	C	09/30/2023	21:03	-133.150	47.694	0	43.00	0	9.0710	0	32.4440	0	25.107	0	42.636	0	274.5	4	96.2	4	-1E+10	1	-1E+10	1	-1E+10	1	-1E+10	1	-1E+10	1	-1E+10	1
4902549	113	C	09/30/2023	21:03	-133.150	47.694	0	44.10	0	8.8830	0	32.4430	0	25.135	0	43.726	0	274.1	4	95.7	4	-1E+10	1	-1E+10	1	-1E+10	1	-1E+10	1	-1E+10	1	-1E+10	1
4902549	113	C	09/30/2023	21:03	-133.150	47.694	0	44.80	0	8.8180	0	32.4460	0	25.148	0	44.420	0	273.4	4	95.3	4	-1E+10	1	-1E+10	1	-1E+10	1	-1E+10	1	-1E+10	1	-1E+10	1
4902549	113	C	09/30/2023	21:03	-133.150	47.694	0	46.00	0	8.7420	0	32.4430	0	25.157	0	45.610	0	272.5	4	94.8	4	-1E+10	1	-1E+10	1	-1E+10	1	-1E+10	1	-1E+10	1	-1E+10	1
4902549	113	C	09/30/2023	21:03	-133.150	47.694	0	47.20	0	8.5870	0	32.4460	0	25.183	0	46.800	0	272.3	4	94.4	4	-1E+10	1	-1E+10	1	-1E+10	1	-1E+10	1	-1E+10	1	-1E+10	1
4902549	113	C	09/30/2023	21:03	-133.150	47.694	0	48.10	0	8.5600	0	32.4460	0	25.187	0	47.692	0	271.8	4	94.2	4	-1E+10	1	-1E+10	1	-1E+10	1	-1E+10	1	-1E+10	1	-1E+10	1
4902549	113	C	09/30/2023	21:03	-133.150	47.694	0	49.20	0	8.4850	0	32.4500	0	25.201	0	48.783	0	271.5	4	93.9	4	-1E+10	1	-1E+10	1	-1E+10	1	-1E+10	1	-1E+10	1	-1E+10	1
4902549	113	C	09/30/2023	21:03	-133.150	47.694	0	49.90	0	8.4540	0	32.4450	0	25.202	0	49.477	0	271.4	4	93.8	4	-1E+10	1	-1E+10	1	-1E+10	1	-1E+10	1	-1E+10	1	-1E+10	1
4902549	113	C	09/30/2023	21:03	-133.150	47.694	0	50.90	0	8.3190	0	32.4510	0	25.227	0	50.468	0	271.3	4	93.5	4	-1E+10	1	-1E+10	1	-1E+10	1	-1E+10	1	-1E+10	1	-1E+10	1
4902549	113	C	09/30/2023	21:03	-133.150	47.694	0	51.90	0	8.2490	0	32.4520	0	25.238	0	51.459	0	270.9	4	93.2	4	-1E+10	1	-1E+10	1	-1E+10	1	-1E+10	1	-1E+10	1	-1E+10	1
4902549	113	C	09/30/2023	21:03	-133.150	47.694	0	53.00	0	8.2380	0	32.4520	0	25.240	0	52.550	0	270.2	4	92.9	4	-1E+10	1	-1E+10	1	-1E+10	1	-1E+10	1	-1E+10	1	-1E+10	1
4902549	113	C	09/30/2023	21:03	-133.150	47.694	0	54.10	0	8.2300	0	32.4510	0	25.240	0	53.640	0	269.3	4	92.6	4	-1E+10	1	-1E+10	1	-1E+10	1	-1E+10	1	-1E+10	1	-1E+10	1
4902549	113	C	09/30/2023	21:03	-133.150	47.694	0	55.00	0	8.2220	0	32.4510	0	25.241	0	54.533	0	268.5	4	92.3	4	-1E+10	1	-1E+10	1	-1E+10	1	-1E+10	1	-1E+10	1	-1E+10	1
4902549	113	C	09/30/2023	21:03	-133.150	47.694	0	55.90	0	8.1620	0	32.4550	0	25.253	0	55.425	0	268.1	4	92.1	4	-1E+10	1	-1E+10	1	-1E+10	1	-1E+10	1	-1E+10	1	-1E+10	1
4902549	113	C	09/30/2023	21:03	-133.150	47.694	0	57.00	0	8.1280	0	32.4540	0	25.257	0	56.515	0	267.5	4	91.8	4	-1E+10	1	-1E+10	1	-1E+10	1	-1E+10	1	-1E+10	1	-1E+10	1
4902549	113	C	09/30/2023	21:03	-133.150	47.694	0	57.90	0	8.1180	0	32.4530	0	25.258	0	57.408	0	266.8	4	91.5	4	-1E+10	1	-1E+10	1	-1E+10	1	-1E+10	1	-1E+10	1	-1E+10	1
4902549	113	C	09/30/2023	21:03	-133.150	47.694	0	58.80	0	8.0650	0	32.4580	0	25.270	0	58.300	0	266.6	4	91.4	4	-1E+10	1	-1E+10	1	-1E+10	1	-1E+10	1	-1E+10	1	-1E+10	1
4902549	113	C	09/30/2023	21:03	-133.150	47.694	0	59.90	0	8.0290	0	32.4580	0	25.275	0	59.390	0	266.4	4	91.2	4	-1E+10	1	-1E+10	1	-1E+10	1	-1E+10	1	-1E+10	1	-1E+10	1
4902549	113	C	09/30/2023	21:03	-133.150	47.694	0	61.10	0	8.0060	0	32.4610	0	25.281	0	60.580	0	266.2	4	91.1	4	-1E+10	1	-1E+10	1	-1E+10	1	-1E+10	1	-1E+10	1	-1E+10	1
4902549	113	C	09/30/2023	21:03	-133.150	47.694	0	62.00	0	7.9410	0	32.4610	0	25.290	0	61.472	0	266.1	4	90.9	4	-1E+10	1	-1E+10	1	-1E+10	1	-1E+10	1	-1E+10	1	-1E+10	1
4902549	113	C	09/30/2023	21:03	-133.150	47.694	0	62.90	0	7.9140	0	32.4620	0	25.295	0	62.364	0	265.8	4	90.8	4	-1E+10	1	-1E+10	1	-1E+10	1	-1E+10	1	-1E+10	1	-1E+10	1
4902549	113	C	09/30/2023	21:03	-133.150	47.694	0	64.00	0	7.8830	0	32.4630	0	25.300	0	63.455	0	265.4	4	90.6	4	-1E+10	1	-1E+10	1	-1E+10	1	-1E+10	1	-1E+10	1	-1E+10	1
4902549	113	C	09/30/2023	21:03	-133.150	47.694	0	64.90	0	7.8810	0	32.4640	0	25.301	0	64.347	0	265.1	4	90.5	4	-1E+10	1	-1E+10	1	-1E+10	1	-1E+10	1	-1E+10	1	-1E+10	1
4902549	113	C	09/30/2023	21:03	-133.150	47.694	0	65.70	0	7.8770	0	32.4640	0	25.302	0	65.140	0	264.6	4	90.3	4	-1E+10	1	-1E+10	1	-1E+10	1	-1E+10	1	-1E+10	1	-1E+10	1
4902549	113	C	09/30/2023	21:03	-133.150	47.694	0	66.90	0	7.8700	0	32.4660	0	25.304	0	66.330	0	263.8	4	90.0	4	-1E+10	1	-1E+10	1	-1E+10	1	-1E+10	1	-1E+10	1	-1E+10	1
4902549	113	C	09/30/2023	21:03	-133.150	47.694	0	68.10	0	7.8560	0	32.4690	0	25.308	0	67.519	0	263.3	4	89.8	4	-1E+10	1	-1E+10	1	-1E+10	1	-1E+10	1	-1E+10	1	-1E+10	1
4902549	113	C	09/30/2023	21:03	-133.150	47.694	0	69.00	0	7.8410	0	32.4760	0	25.316	0	68.411	0	263.0	4	89.7	4	-1E+10	1	-1E+10	1	-1E+10	1	-1E+10	1	-1E+10	1	-1E+10	1
4902549	113	C	09/30/2023	21:03	-133.150	47.694	0	69.90	0	7.8140	0	32.4810	0	25.324	0	69.304	0	263.0	4	89.6	4	-1E+10	1	-1E+10	1	-1E+10	1	-1E+10	1	-1E+10	1	-1E+10	1
4902549	113	C	09/30/2023	21:03	-133.150	47.694	0	70.80	0	7.8310	0	32.4860	0	25.325	0	70.196	0	262.7	4	89.6	4	-1E+10	1	-1E+10	1	-1E+10	1	-1E+10	1	-1E+10	1	-1E+10	1
4902549	113	C	09/30/2023	21:03	-133.150	47.694	0	71.80	0	7.8070	0	32.4860	0	25.329	0	71.187	0	262.6	4	89.5	4	-1E+10	1	-1E+10	1	-1E+10	1	-1E+10	1	-1E+10	1	-1E+10	1
4902549	113	C	09/30/2023	21:03	-133.150	47.694	0	73.00	0	7.7950	0	32.4840	0	25.329	0	72.377	0	262.4	4	89.4	4	-1E+10	1	-1E+10	1	-1E+10	1	-1E+10	1	-1E+10	1	-1E+10	1
4902549	113	C	09/30/2023	21:03	-133.150	47.694	0	73.90	0	7.7990	0	32.4890	0	25.332	0	73.269	0	262.1	4	89.3	4	-1E+10	1	-1E+10	1	-1E+10	1	-1E+10	1	-1E+10	1	-1E+10	1
4902549	113	C	09/30/2023	21:03	-133.150	47.694	0	74.80	0	7.7710	0	32.4900	0	25.337	0	74.161	0	262.1	4	89.2	4	-1E+10	1	-1E+10	1	-1E+10	1	-1E+10	1	-1E+10	1	-1E+10	1
4902549	113	C	09/30/2023	21:03	-133.150	47.694	0	76.00	0	7.7770	0	32.4920	0	25.338	0	75.350	0	261.8	4	89.2	4	-1E+10	1	-1E+10	1	-1E+10	1	-1E+10	1	-1E+10	1	-1E+10	1
4902549	113	C	09/30/2023	21:03	-133.150	47.694	0	76.90	0	7.7490	0	32.4910	0	25.341	0	76.243	0	261.6	4	89.0	4	-1E+10	1	-1E+10	1	-1E+10	1	-1E+10	1	-1E+10	1	-1E+10	1
4902549	113	C	09/30/2023	21:03	-133.150	47.694	0	77.80	0	7.6530	0	32.4840	0	25.349	0	77.135	0	262.0	4	89.0	4	-1E+10	1	-1E+10	1	-1E+10	1	-1E+10	1	-1E+10	1	-1E+10	1
4902549	113	C	09/30/2023	21:03	-133.150	47.694	0	79.00	0	7.6590	0	32.4870	0	25.351	0	78.324	0	261.8	4	88.9	4	-1E+10	1	-1E+10	1	-1E+10	1	-1E+10	1	-1E+10	1	-1E+10	1
4902549	113	C	09/30/2023	21:03	-133.150	47.694	0	79.90	0	7.6370	0	32.4970	0	25.362	0	79.216	0	261.6	4	88.8	4	-1E+10	1	-1E+10	1	-1E+10	1	-1E+10	1	-1E+10	1	-1E+10	1
4902549	113	C	09/30/2023	21:03	-133.150	47.694	0	80.80	0	7.5920	0	32.4960	0	25.367	0	80.109	0	261.7	4	88.7	4	-1E+10	1	-1E+10	1	-1E+10	1	-1E+10	1	-1E+10	1	-1E+10	1
4902549	113	C	09/30/2023	21:03	-133.150	47.694	0	81.90	0	7.5460	0	32.4930	0	25.371	0	81.199	0	261.8	4	88.7	4	-1E+10	1	-1E+10	1	-1E+10	1	-1E+10	1	-1E+10	1	-1E+10	1
4902549	113	C	09/30/2023	21:03	-133.150	47.694	0	82.90	0	7.5260	0	32.4970	0	25.377	0	82.190	0	268.3	4	90.8	4	-1E+10	1	-1E+10	1	-1E+10	1	-1E+10	1	-1E+10	1	-1E+10	1
4902549	113	C	09/30/2023	21:03	-133.150	47.694	0	84.00	0	7.5190	0	32.5040	0	25.384	0	83.281	0	268.2	4	90.8	4	-1E+10	1	-1E+10	1	-1E+10	1	-1E+10	1	-1E+10	1	-1E+10	1
4902549	113	C	09/30/2023	21:03	-133.150	47.694	0	85.00	0	7.5140	0	32.5070	0	25.387	0	84.272	0	267.7	4	90.6	4	-1E+10	1	-1E+10	1	-1E+10	1	-1E+10	1	-1E+10	1	-1E+10	1
4902549	113	C	09/30/2023	21:03	-133.150	47.694	0	86.20	0	7.4680	0	32.5070	0	25.393	0	85.461	0	267.5	4	90.5	4	-1E+10	1	-1E+10	1	-1E+10	1	-1E+10	1	-1E+10	1	-1E+10	1
4902549	113	C	09/30/2023	21:03	-133.150	47.694	0	87.10	0	7.4700	0	32.5130	0	25.398	0	86.353	0	266.9	4	90.3	4	-1E+10	1	-1E+10	1	-1E+10	1	-1E+10	1	-1E+10	1	-1E+10	1
4902549	113	C	09/30/2023	21:03	-133.150	47.694	0	88.00	0	7.4350	0	32.5090	0	25.399	0	87.245	0	266.5	4	90.1	4	-1E+10	1	-1E+10	1	-1E+10	1	-1E+10	1	-1E+10	1	-1E+10	1
4902549	113	C	09/30/2023	21:03	-133.150	47.694	0	89.10	0	7.3960	0	32.5120	0	25.407	0	88.336	0	265.7	4	89.7	4	-1E+10	1	-1E+10	1	-1E+10	1	-1E+10	1	-1E+10	1	-1E+10	1
4902549	113	C	09/30/2023	21:03	-133.150	47.694	0	90.00	0	7.4100	0	32.5210	0	25.412	0	89.228	0	263.6	4	89.0	4	-1E+10	1	-1E+10	1	-1E+10	1	-1E+10	1	-1E+10	1	-1E+10	1
4902549	113	C	09/30/2023	21:03	-133.150	47.694	0	91.00	0	7.4640	0	32.5430	0	25.422	0	90.219	0	261.7	4	88.5	4	-1E+10	1	-1E+10	1	-1E+10	1	-1E+10	1	-1E+10	1	-1E+10	1
4902549	113	C	09/30/2023	21:03	-133.150	47.694	0	92.00	0	7.4480	0	32.5460	0	25.427	0	91.210	0	260.8	4	88.2	4	-1E+10	1	-1E+10	1	-1E+10	1	-1E+10	1	-1E+10	1	-1E+10	1
4902549	113	C	09/30/2023	21:03	-133.150	47.694	0	92.90	0	7.4270	0	32.5490	0	25.432	0	92.102	0	260.0	4	87.9	4	-1E+10	1	-1E+10	1	-1E+10	1	-1E+10	1	-1E+10	1	-1E+10	1
4902549	113	C	09/30/2023	21:03	-133.150	47.694	0	94.00	0	7.4110	0	32.5520	0	25.436	0	93.193	0	259.2	4	87.6	4	-1E+10	1	-1E+10	1	-1E+10	1	-1E+10	1	-1E+10	1	-1E+10	1
4902549	113	C	09/30/2023	21:03	-133.150	47.694	0	95.00	0	7.4020	0	32.5590	0	25.443	0	94.184	0	258.4	4	87.3	4	-1E+10	1	-1E+10	1	-1E+10	1	-1E+10	1	-1E+10	1	-1E+10	1
4902549	113	C	09/30/2023	21:03	-133.150	47.694	0	96.20	0	7.3920	0	32.5650	0	25.449	0	95.373	0	257.5	4	87.0	4	-1E+10	1	-1E+10	1	-1E+10	1	-1E+10	1	-1E+10	1	-1E+10	1
4902549	113	C	09/30/2023	21:03	-133.150	47.694	0	97.00	0	7.3850	0	32.5680	0	25.453	0	96.166	0	257.0	4	86.8	4	-1E+10	1	-1E+10	1	-1E+10	1	-1E+10	1	-1E+10	1	-1E+10	1
4902549	113	C	09/30/2023	21:03	-133.150	47.694	0	98.00	0	7.3510	0	32.5740	0	25.462	0	97.157	0	256.1	4	86.4	4	-1E+10	1	-1E+10	1	-1E+10	1	-1E+10	1	-1E+10	1	-1E+10	1
4902549	113	C	09/30/2023	21:03	-133.150	47.694	0	99.10	0	7.3430	0	32.5760	0	25.465	0	98.248	0	255.1	4	86.1	4	-1E+10	1	-1E+10	1	-1E+10	1	-1E+10	1	-1E+10	1	-1E+10	1
4902549	113	C	09/30/2023	21:03	-133.150	47.694	0	100.00	0	7.3200	0	32.5880	0	25.477	0	99.140	0	254.4	4	85.8	4	-1E+10	1	-1E+10	1	-1E+10	1	-1E+10	1	-1E+10	1	-1E+10	1
4902549	113	C	09/30/2023	21:03	-133.150	47.694	0	100.80	0	7.2880	0	32.6030	0	25.493	0	99.933	0	253.9	4	85.6	4	-1E+10	1	-1E+10	1	-1E+10	1	-1E+10	1	-1E+10	1	-1E+10	1
4902549	113	C	09/30/2023	21:03	-133.150	47.694	0	101.90	0	7.2750	0	32.6090	0	25.500	0	101.023	0	253.0	4	85.2	4	-1E+10	1	-1E+10	1	-1E+10	1	-1E+10	1	-1E+10	1	-1E+10	1
4902549	113	C	09/30/2023	21:03	-133.150	47.694	0	103.10	0	7.2650	0	32.6130	0	25.505	0	102.212	0	252.0	4	84.9	4	-1E+10	1	-1E+10	1	-1E+10	1	-1E+10	1	-1E+10	1	-1E+10	1
4902549	113	C	09/30/2023	21:03	-133.150	47.694	0	104.10	0	7.2590	0	32.6170	0	25.509	0	103.203	0	250.9	4	84.5	4	-1E+10	1	-1E+10	1	-1E+10	1	-1E+10	1	-1E+10	1	-1E+10	1
4902549	113	C	09/30/2023	21:03	-133.150	47.694	0	105.10	0	7.2490	0	32.6220	0	25.514	0	104.194	0	249.7	4	84.1	4	-1E+10	1	-1E+10	1	-1E+10	1	-1E+10	1	-1E+10	1	-1E+10	1
4902549	113	C	09/30/2023	21:03	-133.150	47.694	0	105.90	0	7.2470	0	32.6230	0	25.515	0	104.987	0	248.4	4	83.7	4	-1E+10	1	-1E+10	1	-1E+10	1	-1E+10	1	-1E+10	1	-1E+10	1
4902549	113	C	09/30/2023	21:03	-133.150	47.694	0	106.70	0	7.2080	0	32.6430	0	25.536	0	105.780	0	247.4	4	83.3	4	-1E+10	1	-1E+10	1	-1E+10	1	-1E+10	1	-1E+10	1	-1E+10	1
4902549	113	C	09/30/2023	21:03	-133.150	47.694	0	107.70	0	7.1680	0	32.6670	0	25.560	0	106.771	0	246.1	4	82.8	4	-1E+10	1	-1E+10	1	-1E+10	1	-1E+10	1	-1E+10	1	-1E+10	1
4902549	113	C	09/30/2023	21:03	-133.150	47.694	0	108.70	0	7.1410	0	32.6820	0	25.576	0	107.762	0	244.5	4	82.2	4	-1E+10	1	-1E+10	1	-1E+10	1	-1E+10	1	-1E+10	1	-1E+10	1
4902549	113	C	09/30/2023	21:03	-133.150	47.694	0	109.70	0	7.1120	0	32.7020	0	25.595	0	108.754	0	242.6	4	81.5	4	-1E+10	1	-1E+10	1	-1E+10	1	-1E+10	1	-1E+10	1	-1E+10	1
4902549	113	C	09/30/2023	21:03	-133.150	47.694	0	111.10	0	7.0870	0	32.7240	0	25.616	0	110.141	0	239.4	4	80.4	4	-1E+10	1	-1E+10	1	-1E+10	1	-1E+10	1	-1E+10	1	-1E+10	1
4902549	113	C	09/30/2023	21:03	-133.150	47.694	0	112.30	0	7.0710	0	32.7590	0	25.646	0	111.330	0	236.4	4	79.4	4	-1E+10	1	-1E+10	1	-1E+10	1	-1E+10	1	-1E+10	1	-1E+10	1
4902549	113	C	09/30/2023	21:03	-133.150	47.694	0	113.00	0	7.0100	0	32.8160	0	25.699	0	112.024	0	235.0	4	78.8	4	-1E+10	1	-1E+10	1	-1E+10	1	-1E+10	1	-1E+10	1	-1E+10	1
4902549	113	C	09/30/2023	21:03	-133.150	47.694	0	114.20	0	6.9620	0	32.8690	0	25.747	0	113.214	0	232.8	4	78.0	4	-1E+10	1	-1E+10	1	-1E+10	1	-1E+10	1	-1E+10	1	-1E+10	1
4902549	113	C	09/30/2023	21:03	-133.150	47.694	0	114.90	0	6.9190	0	32.8940	0	25.772	0	113.907	0	231.5	4	77.5	4	-1E+10	1	-1E+10	1	-1E+10	1	-1E+10	1	-1E+10	1	-1E+10	1
4902549	113	C	09/30/2023	21:03	-133.150	47.694	0	116.10	0	6.8480	0	32.9480	0	25.824	0	115.097	0	229.6	4	76.8	4	-1E+10	1	-1E+10	1	-1E+10	1	-1E+10	1	-1E+10	1	-1E+10	1
4902549	113	C	09/30/2023	21:03	-133.150	47.694	0	117.00	0	6.8010	0	32.9940	0	25.867	0	115.989	0	228.2	4	76.3	4	-1E+10	1	-1E+10	1	-1E+10	1	-1E+10	1	-1E+10	1	-1E+10	1
4902549	113	C	09/30/2023	21:03	-133.150	47.694	0	117.80	0	6.7620	0	33.0190	0	25.892	0	116.781	0	226.8	4	75.8	4	-1E+10	1	-1E+10	1	-1E+10	1	-1E+10	1	-1E+10	1	-1E+10	1
4902549	113	C	09/30/2023	21:03	-133.150	47.694	0	118.90	0	6.7130	0	33.0480	0	25.921	0	117.872	0	224.7	4	75.0	4	-1E+10	1	-1E+10	1	-1E+10	1	-1E+10	1	-1E+10	1	-1E+10	1
4902549	113	C	09/30/2023	21:03	-133.150	47.694	0	120.10	0	6.5550	0	33.0700	0	25.959	0	119.061	0	223.0	4	74.1	4	-1E+10	1	-1E+10	1	-1E+10	1	-1E+10	1	-1E+10	1	-1E+10	1
4902549	113	C	09/30/2023	21:03	-133.150	47.694	0	121.10	0	6.4000	0	33.0980	0	26.001	0	120.052	0	222.1	4	73.6	4	-1E+10	1	-1E+10	1	-1E+10	1	-1E+10	1	-1E+10	1	-1E+10	1
4902549	113	C	09/30/2023	21:03	-133.150	47.694	0	122.10	0	6.2620	0	33.1150	0	26.032	0	121.043	0	222.0	4	73.3	4	-1E+10	1	-1E+10	1	-1E+10	1	-1E+10	1	-1E+10	1	-1E+10	1
4902549	113	C	09/30/2023	21:03	-133.150	47.694	0	123.20	0	6.2630	0	33.1250	0	26.040	0	122.133	0	221.0	4	73.0	4	-1E+10	1	-1E+10	1	-1E+10	1	-1E+10	1	-1E+10	1	-1E+10	1
4902549	113	C	09/30/2023	21:03	-133.150	47.694	0	123.90	0	6.2620	0	33.1450	0	26.056	0	122.827	0	220.3	4	72.8	4	-1E+10	1	-1E+10	1	-1E+10	1	-1E+10	1	-1E+10	1	-1E+10	1
4902549	113	C	09/30/2023	21:03	-133.150	47.694	0	124.90	0	6.2650	0	33.1850	0	26.087	0	123.818	0	219.2	4	72.5	4	-1E+10	1	-1E+10	1	-1E+10	1	-1E+10	1	-1E+10	1	-1E+10	1
4902549	113	C	09/30/2023	21:03	-133.150	47.694	0	126.00	0	6.1910	0	33.2280	0	26.130	0	124.908	0	218.7	4	72.2	4	-1E+10	1	-1E+10	1	-1E+10	1	-1E+10	1	-1E+10	1	-1E+10	1
4902549	113	C	09/30/2023	21:03	-133.150	47.694	0	126.90	0	6.1670	0	33.2360	0	26.140	0	125.800	0	218.0	4	71.9	4	-1E+10	1	-1E+10	1	-1E+10	1	-1E+10	1	-1E+10	1	-1E+10	1
4902549	113	C	09/30/2023	21:03	-133.150	47.694	0	127.80	0	6.1490	0	33.2650	0	26.165	0	126.692	0	217.2	4	71.7	4	-1E+10	1	-1E+10	1	-1E+10	1	-1E+10	1	-1E+10	1	-1E+10	1
4902549	113	C	09/30/2023	21:03	-133.150	47.694	0	128.90	0	6.1320	0	33.2780	0	26.177	0	127.782	0	216.2	4	71.3	4	-1E+10	1	-1E+10	1	-1E+10	1	-1E+10	1	-1E+10	1	-1E+10	1
4902549	113	C	09/30/2023	21:03	-133.150	47.694	0	129.80	0	6.1120	0	33.2820	0	26.183	0	128.674	0	215.3	4	71.0	4	-1E+10	1	-1E+10	1	-1E+10	1	-1E+10	1	-1E+10	1	-1E+10	1
4902549	113	C	09/30/2023	21:03	-133.150	47.694	0	130.90	0	6.1030	0	33.2810	0	26.183	0	129.764	0	214.3	4	70.6	4	-1E+10	1	-1E+10	1	-1E+10	1	-1E+10	1	-1E+10	1	-1E+10	1
4902549	113	C	09/30/2023	21:03	-133.150	47.694	0	132.00	0	6.0480	0	33.2900	0	26.197	0	130.854	0	213.4	4	70.3	4	-1E+10	1	-1E+10	1	-1E+10	1	-1E+10	1	-1E+10	1	-1E+10	1
4902549	113	C	09/30/2023	21:03	-133.150	47.694	0	133.10	0	6.0190	0	33.3020	0	26.210	0	131.944	0	212.4	4	69.9	4	-1E+10	1	-1E+10	1	-1E+10	1	-1E+10	1	-1E+10	1	-1E+10	1
4902549	113	C	09/30/2023	21:03	-133.150	47.694	0	133.80	0	6.0060	0	33.3160	0	26.223	0	132.638	0	211.6	4	69.6	4	-1E+10	1	-1E+10	1	-1E+10	1	-1E+10	1	-1E+10	1	-1E+10	1
4902549	113	C	09/30/2023	21:03	-133.150	47.694	0	134.90	0	5.9970	0	33.3210	0	26.228	0	133.728	0	210.4	4	69.2	4	-1E+10	1	-1E+10	1	-1E+10	1	-1E+10	1	-1E+10	1	-1E+10	1
4902549	113	C	09/30/2023	21:03	-133.150	47.694	0	136.00	0	5.9890	0	33.3260	0	26.233	0	134.818	0	208.9	4	68.7	4	-1E+10	1	-1E+10	1	-1E+10	1	-1E+10	1	-1E+10	1	-1E+10	1
4902549	113	C	09/30/2023	21:03	-133.150	47.694	0	137.00	0	5.9780	0	33.3370	0	26.243	0	135.809	0	207.1	4	68.1	4	-1E+10	1	-1E+10	1	-1E+10	1	-1E+10	1	-1E+10	1	-1E+10	1
4902549	113	C	09/30/2023	21:03	-133.150	47.694	0	138.20	0	5.9200	0	33.3670	0	26.274	0	136.998	0	205.6	4	67.5	4	-1E+10	1	-1E+10	1	-1E+10	1	-1E+10	1	-1E+10	1	-1E+10	1
4902549	113	C	09/30/2023	21:03	-133.150	47.694	0	139.00	0	5.9070	0	33.3850	0	26.290	0	137.791	0	204.8	4	67.3	4	-1E+10	1	-1E+10	1	-1E+10	1	-1E+10	1	-1E+10	1	-1E+10	1
4902549	113	C	09/30/2023	21:03	-133.150	47.694	0	139.80	0	5.8630	0	33.3980	0	26.305	0	138.584	0	204.1	4	67.0	4	-1E+10	1	-1E+10	1	-1E+10	1	-1E+10	1	-1E+10	1	-1E+10	1
4902549	113	C	09/30/2023	21:03	-133.150	47.694	0	141.00	0	5.8430	0	33.4000	0	26.309	0	139.773	0	203.1	4	66.6	4	-1E+10	1	-1E+10	1	-1E+10	1	-1E+10	1	-1E+10	1	-1E+10	1
4902549	113	C	09/30/2023	21:03	-133.150	47.694	0	142.20	0	5.8290	0	33.4050	0	26.315	0	140.962	0	201.9	4	66.2	4	-1E+10	1	-1E+10	1	-1E+10	1	-1E+10	1	-1E+10	1	-1E+10	1
4902549	113	C	09/30/2023	21:03	-133.150	47.694	0	143.00	0	5.8200	0	33.4090	0	26.319	0	141.755	0	201.2	4	65.9	4	-1E+10	1	-1E+10	1	-1E+10	1	-1E+10	1	-1E+10	1	-1E+10	1
4902549	113	C	09/30/2023	21:03	-133.150	47.694	0	143.80	0	5.8030	0	33.4230	0	26.332	0	142.548	0	200.5	4	65.7	4	-1E+10	1	-1E+10	1	-1E+10	1	-1E+10	1	-1E+10	1	-1E+10	1
4902549	113	C	09/30/2023	21:03	-133.150	47.694	0	144.60	0	5.7880	0	33.4400	0	26.348	0	143.340	0	200.0	4	65.5	4	-1E+10	1	-1E+10	1	-1E+10	1	-1E+10	1	-1E+10	1	-1E+10	1
4902549	113	C	09/30/2023	21:03	-133.150	47.694	0	145.90	0	5.7780	0	33.4570	0	26.362	0	144.629	0	199.4	4	65.3	4	-1E+10	1	-1E+10	1	-1E+10	1	-1E+10	1	-1E+10	1	-1E+10	1
4902549	113	C	09/30/2023	21:03	-133.150	47.694	0	147.20	0	5.7740	0	33.4740	0	26.376	0	145.917	0	198.7	4	65.1	4	-1E+10	1	-1E+10	1	-1E+10	1	-1E+10	1	-1E+10	1	-1E+10	1
4902549	113	C	09/30/2023	21:03	-133.150	47.694	0	148.00	0	5.7700	0	33.4780	0	26.380	0	146.710	0	198.3	4	64.9	4	-1E+10	1	-1E+10	1	-1E+10	1	-1E+10	1	-1E+10	1	-1E+10	1
4902549	113	C	09/30/2023	21:03	-133.150	47.694	0	148.80	0	5.7700	0	33.4810	0	26.382	0	147.502	0	197.9	4	64.8	4	-1E+10	1	-1E+10	1	-1E+10	1	-1E+10	1	-1E+10	1	-1E+10	1
4902549	113	C	09/30/2023	21:03	-133.150	47.694	0	149.70	0	5.7710	0	33.4840	0	26.385	0	148.394	0	197.3	4	64.6	4	-1E+10	1	-1E+10	1	-1E+10	1	-1E+10	1	-1E+10	1	-1E+10	1
4902549	113	C	09/30/2023	21:03	-133.150	47.694	0	150.90	0	5.7730	0	33.4870	0	26.387	0	149.583	0	196.3	4	64.3	4	-1E+10	1	-1E+10	1	-1E+10	1	-1E+10	1	-1E+10	1	-1E+10	1
4902549	113	C	09/30/2023	21:03	-133.150	47.694	0	152.20	0	5.7680	0	33.4950	0	26.394	0	150.871	0	195.2	4	63.9	4	-1E+10	1	-1E+10	1	-1E+10	1	-1E+10	1	-1E+10	1	-1E+10	1
4902549	113	C	09/30/2023	21:03	-133.150	47.694	0	153.10	0	5.7660	0	33.5020	0	26.399	0	151.763	0	194.5	4	63.7	4	-1E+10	1	-1E+10	1	-1E+10	1	-1E+10	1	-1E+10	1	-1E+10	1
4902549	113	C	09/30/2023	21:03	-133.150	47.694	0	153.90	0	5.7610	0	33.5150	0	26.410	0	152.556	0	193.8	4	63.5	4	-1E+10	1	-1E+10	1	-1E+10	1	-1E+10	1	-1E+10	1	-1E+10	1
4902549	113	C	09/30/2023	21:03	-133.150	47.694	0	154.80	0	5.7540	0	33.5240	0	26.418	0	153.448	0	193.2	4	63.3	4	-1E+10	1	-1E+10	1	-1E+10	1	-1E+10	1	-1E+10	1	-1E+10	1
4902549	113	C	09/30/2023	21:03	-133.150	47.694	0	155.70	0	5.7540	0	33.5240	0	26.418	0	154.340	0	192.5	4	63.1	4	-1E+10	1	-1E+10	1	-1E+10	1	-1E+10	1	-1E+10	1	-1E+10	1
4902549	113	C	09/30/2023	21:03	-133.150	47.694	0	156.90	0	5.7500	0	33.5270	0	26.421	0	155.529	0	191.3	4	62.6	4	-1E+10	1	-1E+10	1	-1E+10	1	-1E+10	1	-1E+10	1	-1E+10	1
4902549	113	C	09/30/2023	21:03	-133.150	47.694	0	158.30	0	5.7400	0	33.5370	0	26.430	0	156.916	0	190.1	4	62.2	4	-1E+10	1	-1E+10	1	-1E+10	1	-1E+10	1	-1E+10	1	-1E+10	1
4902549	113	C	09/30/2023	21:03	-133.150	47.694	0	159.20	0	5.7350	0	33.5660	0	26.454	0	157.808	0	189.5	4	62.1	4	-1E+10	1	-1E+10	1	-1E+10	1	-1E+10	1	-1E+10	1	-1E+10	1
4902549	113	C	09/30/2023	21:03	-133.150	47.694	0	160.10	0	5.7380	0	33.5690	0	26.456	0	158.699	0	189.0	4	61.9	4	-1E+10	1	-1E+10	1	-1E+10	1	-1E+10	1	-1E+10	1	-1E+10	1
4902549	113	C	09/30/2023	21:03	-133.150	47.694	0	161.00	0	5.7360	0	33.5700	0	26.457	0	159.591	0	188.3	4	61.7	4	-1E+10	1	-1E+10	1	-1E+10	1	-1E+10	1	-1E+10	1	-1E+10	1
4902549	113	C	09/30/2023	21:03	-133.150	47.694	0	161.90	0	5.7360	0	33.5710	0	26.458	0	160.483	0	187.6	4	61.4	4	-1E+10	1	-1E+10	1	-1E+10	1	-1E+10	1	-1E+10	1	-1E+10	1
4902549	113	C	09/30/2023	21:03	-133.150	47.694	0	162.70	0	5.7380	0	33.5720	0	26.458	0	161.276	0	186.7	4	61.2	4	-1E+10	1	-1E+10	1	-1E+10	1	-1E+10	1	-1E+10	1	-1E+10	1
4902549	113	C	09/30/2023	21:03	-133.150	47.694	0	163.60	0	5.7430	0	33.5740	0	26.459	0	162.167	0	185.8	4	60.9	4	-1E+10	1	-1E+10	1	-1E+10	1	-1E+10	1	-1E+10	1	-1E+10	1
4902549	113	C	09/30/2023	21:03	-133.150	47.694	0	164.90	0	5.7460	0	33.5820	0	26.465	0	163.456	0	184.2	4	60.4	4	-1E+10	1	-1E+10	1	-1E+10	1	-1E+10	1	-1E+10	1	-1E+10	1
4902549	113	C	09/30/2023	21:03	-133.150	47.694	0	166.20	0	5.7410	0	33.5870	0	26.470	0	164.744	0	182.7	4	59.8	4	-1E+10	1	-1E+10	1	-1E+10	1	-1E+10	1	-1E+10	1	-1E+10	1
4902549	113	C	09/30/2023	21:03	-133.150	47.694	0	167.10	0	5.7370	0	33.5910	0	26.474	0	165.635	0	181.5	4	59.5	4	-1E+10	1	-1E+10	1	-1E+10	1	-1E+10	1	-1E+10	1	-1E+10	1
4902549	113	C	09/30/2023	21:03	-133.150	47.694	0	168.00	0	5.7280	0	33.6030	0	26.484	0	166.527	0	180.4	4	59.1	4	-1E+10	1	-1E+10	1	-1E+10	1	-1E+10	1	-1E+10	1	-1E+10	1
4902549	113	C	09/30/2023	21:03	-133.150	47.694	0	168.90	0	5.7060	0	33.6030	0	26.487	0	167.419	0	179.4	4	58.7	4	-1E+10	1	-1E+10	1	-1E+10	1	-1E+10	1	-1E+10	1	-1E+10	1
4902549	113	C	09/30/2023	21:03	-133.150	47.694	0	169.90	0	5.6820	0	33.6160	0	26.500	0	168.410	0	178.6	4	58.4	4	-1E+10	1	-1E+10	1	-1E+10	1	-1E+10	1	-1E+10	1	-1E+10	1
4902549	113	C	09/30/2023	21:03	-133.150	47.694	0	170.80	0	5.6750	0	33.6210	0	26.505	0	169.301	0	177.8	4	58.2	4	-1E+10	1	-1E+10	1	-1E+10	1	-1E+10	1	-1E+10	1	-1E+10	1
4902549	113	C	09/30/2023	21:03	-133.150	47.694	0	171.70	0	5.6760	0	33.6230	0	26.506	0	170.193	0	177.0	4	57.9	4	-1E+10	1	-1E+10	1	-1E+10	1	-1E+10	1	-1E+10	1	-1E+10	1
4902549	113	C	09/30/2023	21:03	-133.150	47.694	0	172.60	0	5.6780	0	33.6260	0	26.508	0	171.085	0	176.0	4	57.6	4	-1E+10	1	-1E+10	1	-1E+10	1	-1E+10	1	-1E+10	1	-1E+10	1
4902549	113	C	09/30/2023	21:03	-133.150	47.694	0	173.90	0	5.6750	0	33.6330	0	26.514	0	172.373	0	174.6	4	57.1	4	-1E+10	1	-1E+10	1	-1E+10	1	-1E+10	1	-1E+10	1	-1E+10	1
4902549	113	C	09/30/2023	21:03	-133.150	47.694	0	175.30	0	5.6700	0	33.6430	0	26.523	0	173.760	0	173.1	4	56.6	4	-1E+10	1	-1E+10	1	-1E+10	1	-1E+10	1	-1E+10	1	-1E+10	1
4902549	113	C	09/30/2023	21:03	-133.150	47.694	0	176.20	0	5.6650	0	33.6480	0	26.527	0	174.652	0	172.2	4	56.3	4	-1E+10	1	-1E+10	1	-1E+10	1	-1E+10	1	-1E+10	1	-1E+10	1
4902549	113	C	09/30/2023	21:03	-133.150	47.694	0	177.10	0	5.6610	0	33.6520	0	26.531	0	175.543	0	171.3	4	56.0	4	-1E+10	1	-1E+10	1	-1E+10	1	-1E+10	1	-1E+10	1	-1E+10	1
4902549	113	C	09/30/2023	21:03	-133.150	47.694	0	178.00	0	5.6580	0	33.6560	0	26.535	0	176.435	0	170.3	4	55.7	4	-1E+10	1	-1E+10	1	-1E+10	1	-1E+10	1	-1E+10	1	-1E+10	1
4902549	113	C	09/30/2023	21:03	-133.150	47.694	0	178.90	0	5.6550	0	33.6570	0	26.536	0	177.327	0	169.3	4	55.4	4	-1E+10	1	-1E+10	1	-1E+10	1	-1E+10	1	-1E+10	1	-1E+10	1
4902549	113	C	09/30/2023	21:03	-133.150	47.694	0	179.80	0	5.6540	0	33.6570	0	26.536	0	178.219	0	168.1	4	55.0	4	-1E+10	1	-1E+10	1	-1E+10	1	-1E+10	1	-1E+10	1	-1E+10	1
4902549	113	C	09/30/2023	21:03	-133.150	47.694	0	180.70	0	5.6430	0	33.6650	0	26.544	0	179.110	0	167.1	4	54.6	4	-1E+10	1	-1E+10	1	-1E+10	1	-1E+10	1	-1E+10	1	-1E+10	1
4902549	113	C	09/30/2023	21:03	-133.150	47.694	0	181.60	0	5.6310	0	33.6720	0	26.551	0	180.002	0	166.2	4	54.4	4	-1E+10	1	-1E+10	1	-1E+10	1	-1E+10	1	-1E+10	1	-1E+10	1
4902549	113	C	09/30/2023	21:03	-133.150	47.694	0	182.50	0	5.6240	0	33.6750	0	26.554	0	180.894	0	165.3	4	54.0	4	-1E+10	1	-1E+10	1	-1E+10	1	-1E+10	1	-1E+10	1	-1E+10	1
4902549	113	C	09/30/2023	21:03	-133.150	47.694	0	183.90	0	5.6070	0	33.6820	0	26.561	0	182.281	0	164.1	4	53.6	4	-1E+10	1	-1E+10	1	-1E+10	1	-1E+10	1	-1E+10	1	-1E+10	1
4902549	113	C	09/30/2023	21:03	-133.150	47.694	0	185.30	0	5.5990	0	33.6850	0	26.565	0	183.668	0	162.9	4	53.2	4	-1E+10	1	-1E+10	1	-1E+10	1	-1E+10	1	-1E+10	1	-1E+10	1
4902549	113	C	09/30/2023	21:03	-133.150	47.694	0	186.30	0	5.5910	0	33.6860	0	26.566	0	184.659	0	162.0	4	52.9	4	-1E+10	1	-1E+10	1	-1E+10	1	-1E+10	1	-1E+10	1	-1E+10	1
4902549	113	C	09/30/2023	21:03	-133.150	47.694	0	187.20	0	5.5890	0	33.6870	0	26.568	0	185.550	0	161.1	4	52.6	4	-1E+10	1	-1E+10	1	-1E+10	1	-1E+10	1	-1E+10	1	-1E+10	1
4902549	113	C	09/30/2023	21:03	-133.150	47.694	0	188.20	0	5.5810	0	33.6890	0	26.570	0	186.541	0	160.1	4	52.3	4	-1E+10	1	-1E+10	1	-1E+10	1	-1E+10	1	-1E+10	1	-1E+10	1
4902549	113	C	09/30/2023	21:03	-133.150	47.694	0	189.10	0	5.5760	0	33.6900	0	26.571	0	187.433	0	159.1	4	52.0	4	-1E+10	1	-1E+10	1	-1E+10	1	-1E+10	1	-1E+10	1	-1E+10	1
4902549	113	C	09/30/2023	21:03	-133.150	47.694	0	190.10	0	5.5680	0	33.6930	0	26.575	0	188.423	0	158.1	4	51.6	4	-1E+10	1	-1E+10	1	-1E+10	1	-1E+10	1	-1E+10	1	-1E+10	1
4902549	113	C	09/30/2023	21:03	-133.150	47.694	0	191.00	0	5.5550	0	33.6950	0	26.578	0	189.315	0	157.1	4	51.3	4	-1E+10	1	-1E+10	1	-1E+10	1	-1E+10	1	-1E+10	1	-1E+10	1
4902549	113	C	09/30/2023	21:03	-133.150	47.694	0	191.90	0	5.5500	0	33.6960	0	26.579	0	190.207	0	156.0	4	50.9	4	-1E+10	1	-1E+10	1	-1E+10	1	-1E+10	1	-1E+10	1	-1E+10	1
4902549	113	C	09/30/2023	21:03	-133.150	47.694	0	192.80	0	5.5450	0	33.6970	0	26.581	0	191.098	0	154.9	4	50.6	4	-1E+10	1	-1E+10	1	-1E+10	1	-1E+10	1	-1E+10	1	-1E+10	1
4902549	113	C	09/30/2023	21:03	-133.150	47.694	0	193.80	0	5.5330	0	33.6990	0	26.584	0	192.089	0	153.9	4	50.2	4	-1E+10	1	-1E+10	1	-1E+10	1	-1E+10	1	-1E+10	1	-1E+10	1
4902549	113	C	09/30/2023	21:03	-133.150	47.694	0	194.70	0	5.5220	0	33.7030	0	26.588	0	192.981	0	152.8	4	49.8	4	-1E+10	1	-1E+10	1	-1E+10	1	-1E+10	1	-1E+10	1	-1E+10	1
4902549	113	C	09/30/2023	21:03	-133.150	47.694	0	195.70	0	5.5040	0	33.7050	0	26.592	0	193.971	0	151.9	4	49.5	4	-1E+10	1	-1E+10	1	-1E+10	1	-1E+10	1	-1E+10	1	-1E+10	1
4902549	113	C	09/30/2023	21:03	-133.150	47.694	0	196.60	0	5.4980	0	33.7060	0	26.593	0	194.863	0	150.9	4	49.2	4	-1E+10	1	-1E+10	1	-1E+10	1	-1E+10	1	-1E+10	1	-1E+10	1
4902549	113	C	09/30/2023	21:03	-133.150	47.694	0	197.60	0	5.4860	0	33.7090	0	26.597	0	195.854	0	149.9	4	48.9	4	-1E+10	1	-1E+10	1	-1E+10	1	-1E+10	1	-1E+10	1	-1E+10	1
4902549	113	C	09/30/2023	21:03	-133.150	47.694	0	198.50	0	5.4780	0	33.7090	0	26.598	0	196.745	0	148.9	4	48.5	4	-1E+10	1	-1E+10	1	-1E+10	1	-1E+10	1	-1E+10	1	-1E+10	1
4902549	113	C	09/30/2023	21:03	-133.150	47.694	0	199.90	0	5.4580	0	33.7130	0	26.604	0	198.132	0	147.6	4	48.1	4	-1E+10	1	-1E+10	1	-1E+10	1	-1E+10	1	-1E+10	1	-1E+10	1
4902549	113	C	09/30/2023	21:03	-133.150	47.694	0	201.40	0	5.4300	0	33.7180	0	26.611	0	199.618	0	146.4	4	47.6	4	-1E+10	1	-1E+10	1	-1E+10	1	-1E+10	1	-1E+10	1	-1E+10	1
4902549	113	C	09/30/2023	21:03	-133.150	47.694	0	202.40	0	5.4240	0	33.7190	0	26.613	0	200.609	0	145.7	4	47.4	4	-1E+10	1	-1E+10	1	-1E+10	1	-1E+10	1	-1E+10	1	-1E+10	1
4902549	113	C	09/30/2023	21:03	-133.150	47.694	0	203.40	0	5.4230	0	33.7190	0	26.613	0	201.600	0	144.9	4	47.2	4	-1E+10	1	-1E+10	1	-1E+10	1	-1E+10	1	-1E+10	1	-1E+10	1
4902549	113	C	09/30/2023	21:03	-133.150	47.694	0	204.30	0	5.4220	0	33.7190	0	26.613	0	202.491	0	144.0	4	46.9	4	-1E+10	1	-1E+10	1	-1E+10	1	-1E+10	1	-1E+10	1	-1E+10	1
4902549	113	C	09/30/2023	21:03	-133.150	47.694	0	205.30	0	5.4160	0	33.7200	0	26.614	0	203.482	0	143.2	4	46.6	4	-1E+10	1	-1E+10	1	-1E+10	1	-1E+10	1	-1E+10	1	-1E+10	1
4902549	113	C	09/30/2023	21:03	-133.150	47.694	0	206.30	0	5.4150	0	33.7210	0	26.615	0	204.472	0	142.2	4	46.3	4	-1E+10	1	-1E+10	1	-1E+10	1	-1E+10	1	-1E+10	1	-1E+10	1
4902549	113	C	09/30/2023	21:03	-133.150	47.694	0	207.30	0	5.4130	0	33.7210	0	26.616	0	205.463	0	141.1	4	45.9	4	-1E+10	1	-1E+10	1	-1E+10	1	-1E+10	1	-1E+10	1	-1E+10	1
4902549	113	C	09/30/2023	21:03	-133.150	47.694	0	208.20	0	5.4060	0	33.7230	0	26.618	0	206.355	0	139.9	4	45.5	4	-1E+10	1	-1E+10	1	-1E+10	1	-1E+10	1	-1E+10	1	-1E+10	1
4902549	113	C	09/30/2023	21:03	-133.150	47.694	0	209.20	0	5.4000	0	33.7240	0	26.619	0	207.345	0	138.8	4	45.1	4	-1E+10	1	-1E+10	1	-1E+10	1	-1E+10	1	-1E+10	1	-1E+10	1
4902549	113	C	09/30/2023	21:03	-133.150	47.694	0	210.20	0	5.3920	0	33.7260	0	26.622	0	208.336	0	137.6	4	44.7	4	-1E+10	1	-1E+10	1	-1E+10	1	-1E+10	1	-1E+10	1	-1E+10	1
4902549	113	C	09/30/2023	21:03	-133.150	47.694	0	211.10	0	5.3880	0	33.7260	0	26.622	0	209.227	0	136.3	4	44.3	4	-1E+10	1	-1E+10	1	-1E+10	1	-1E+10	1	-1E+10	1	-1E+10	1
4902549	113	C	09/30/2023	21:03	-133.150	47.694	0	212.10	0	5.3710	0	33.7300	0	26.628	0	210.218	0	135.0	4	43.9	4	-1E+10	1	-1E+10	1	-1E+10	1	-1E+10	1	-1E+10	1	-1E+10	1
4902549	113	C	09/30/2023	21:03	-133.150	47.694	0	213.10	0	5.3570	0	33.7300	0	26.629	0	211.209	0	133.8	4	43.5	4	-1E+10	1	-1E+10	1	-1E+10	1	-1E+10	1	-1E+10	1	-1E+10	1
4902549	113	C	09/30/2023	21:03	-133.150	47.694	0	214.10	0	5.3460	0	33.7300	0	26.631	0	212.199	0	132.4	4	43.0	4	-1E+10	1	-1E+10	1	-1E+10	1	-1E+10	1	-1E+10	1	-1E+10	1
4902549	113	C	09/30/2023	21:03	-133.150	47.694	0	215.10	0	5.3270	0	33.7340	0	26.636	0	213.190	0	131.1	4	42.6	4	-1E+10	1	-1E+10	1	-1E+10	1	-1E+10	1	-1E+10	1	-1E+10	1
4902549	113	C	09/30/2023	21:03	-133.150	47.694	0	216.10	0	5.2960	0	33.7350	0	26.640	0	214.181	0	130.0	4	42.2	4	-1E+10	1	-1E+10	1	-1E+10	1	-1E+10	1	-1E+10	1	-1E+10	1
4902549	113	C	09/30/2023	21:03	-133.150	47.694	0	217.20	0	5.2830	0	33.7390	0	26.645	0	215.270	0	129.1	4	41.9	4	-1E+10	1	-1E+10	1	-1E+10	1	-1E+10	1	-1E+10	1	-1E+10	1
4902549	113	C	09/30/2023	21:03	-133.150	47.694	0	218.20	0	5.2800	0	33.7380	0	26.645	0	216.261	0	128.2	4	41.6	4	-1E+10	1	-1E+10	1	-1E+10	1	-1E+10	1	-1E+10	1	-1E+10	1
4902549	113	C	09/30/2023	21:03	-133.150	47.694	0	219.20	0	5.2680	0	33.7410	0	26.648	0	217.251	0	127.3	4	41.3	4	-1E+10	1	-1E+10	1	-1E+10	1	-1E+10	1	-1E+10	1	-1E+10	1
4902549	113	C	09/30/2023	21:03	-133.150	47.694	0	220.20	0	5.2450	0	33.7420	0	26.652	0	218.242	0	126.5	4	41.0	4	-1E+10	1	-1E+10	1	-1E+10	1	-1E+10	1	-1E+10	1	-1E+10	1
4902549	113	C	09/30/2023	21:03	-133.150	47.694	0	221.30	0	5.2280	0	33.7460	0	26.657	0	219.332	0	125.8	4	40.8	4	-1E+10	1	-1E+10	1	-1E+10	1	-1E+10	1	-1E+10	1	-1E+10	1
4902549	113	C	09/30/2023	21:03	-133.150	47.694	0	222.30	0	5.2150	0	33.7480	0	26.660	0	220.322	0	125.2	4	40.6	4	-1E+10	1	-1E+10	1	-1E+10	1	-1E+10	1	-1E+10	1	-1E+10	1
4902549	113	C	09/30/2023	21:03	-133.150	47.694	0	223.30	0	5.2130	0	33.7480	0	26.660	0	221.313	0	124.6	4	40.4	4	-1E+10	1	-1E+10	1	-1E+10	1	-1E+10	1	-1E+10	1	-1E+10	1
4902549	113	C	09/30/2023	21:03	-133.150	47.694	0	224.40	0	5.2120	0	33.7470	0	26.660	0	222.402	0	123.9	4	40.1	4	-1E+10	1	-1E+10	1	-1E+10	1	-1E+10	1	-1E+10	1	-1E+10	1
4902549	113	C	09/30/2023	21:03	-133.150	47.694	0	225.40	0	5.2110	0	33.7470	0	26.660	0	223.393	0	123.1	4	39.9	4	-1E+10	1	-1E+10	1	-1E+10	1	-1E+10	1	-1E+10	1	-1E+10	1
4902549	113	C	09/30/2023	21:03	-133.150	47.694	0	226.50	0	5.2100	0	33.7470	0	26.660	0	224.483	0	122.3	4	39.6	4	-1E+10	1	-1E+10	1	-1E+10	1	-1E+10	1	-1E+10	1	-1E+10	1
4902549	113	C	09/30/2023	21:03	-133.150	47.694	0	227.50	0	5.2040	0	33.7480	0	26.661	0	225.473	0	121.3	4	39.3	4	-1E+10	1	-1E+10	1	-1E+10	1	-1E+10	1	-1E+10	1	-1E+10	1
4902549	113	C	09/30/2023	21:03	-133.150	47.694	0	228.50	0	5.1840	0	33.7530	0	26.668	0	226.464	0	120.4	4	39.0	4	-1E+10	1	-1E+10	1	-1E+10	1	-1E+10	1	-1E+10	1	-1E+10	1
4902549	113	C	09/30/2023	21:03	-133.150	47.694	0	229.50	0	5.1550	0	33.7510	0	26.670	0	227.454	0	119.6	4	38.7	4	-1E+10	1	-1E+10	1	-1E+10	1	-1E+10	1	-1E+10	1	-1E+10	1
4902549	113	C	09/30/2023	21:03	-133.150	47.694	0	230.60	0	5.1560	0	33.7510	0	26.669	0	228.544	0	118.9	4	38.5	4	-1E+10	1	-1E+10	1	-1E+10	1	-1E+10	1	-1E+10	1	-1E+10	1
4902549	113	C	09/30/2023	21:03	-133.150	47.694	0	231.60	0	5.1360	0	33.7530	0	26.673	0	229.534	0	118.1	4	38.2	4	-1E+10	1	-1E+10	1	-1E+10	1	-1E+10	1	-1E+10	1	-1E+10	1
4902549	113	C	09/30/2023	21:03	-133.150	47.694	0	232.60	0	5.1070	0	33.7540	0	26.677	0	230.525	0	117.5	4	38.0	4	-1E+10	1	-1E+10	1	-1E+10	1	-1E+10	1	-1E+10	1	-1E+10	1
4902549	113	C	09/30/2023	21:03	-133.150	47.694	0	233.70	0	5.0950	0	33.7560	0	26.680	0	231.614	0	116.8	4	37.7	4	-1E+10	1	-1E+10	1	-1E+10	1	-1E+10	1	-1E+10	1	-1E+10	1
4902549	113	C	09/30/2023	21:03	-133.150	47.694	0	234.70	0	5.0900	0	33.7570	0	26.682	0	232.605	0	116.1	4	37.5	4	-1E+10	1	-1E+10	1	-1E+10	1	-1E+10	1	-1E+10	1	-1E+10	1
4902549	113	C	09/30/2023	21:03	-133.150	47.694	0	235.80	0	5.0850	0	33.7570	0	26.682	0	233.694	0	115.4	4	37.3	4	-1E+10	1	-1E+10	1	-1E+10	1	-1E+10	1	-1E+10	1	-1E+10	1
4902549	113	C	09/30/2023	21:03	-133.150	47.694	0	236.80	0	5.0670	0	33.7610	0	26.688	0	234.685	0	114.8	4	37.1	4	-1E+10	1	-1E+10	1	-1E+10	1	-1E+10	1	-1E+10	1	-1E+10	1
4902549	113	C	09/30/2023	21:03	-133.150	47.694	0	237.80	0	5.0590	0	33.7620	0	26.689	0	235.675	0	114.4	4	36.9	4	-1E+10	1	-1E+10	1	-1E+10	1	-1E+10	1	-1E+10	1	-1E+10	1
4902549	113	C	09/30/2023	21:03	-133.150	47.694	0	238.80	0	5.0500	0	33.7620	0	26.690	0	236.666	0	113.8	4	36.7	4	-1E+10	1	-1E+10	1	-1E+10	1	-1E+10	1	-1E+10	1	-1E+10	1
4902549	113	C	09/30/2023	21:03	-133.150	47.694	0	239.90	0	5.0490	0	33.7620	0	26.690	0	237.755	0	113.2	4	36.5	4	-1E+10	1	-1E+10	1	-1E+10	1	-1E+10	1	-1E+10	1	-1E+10	1
4902549	113	C	09/30/2023	21:03	-133.150	47.694	0	240.90	0	5.0460	0	33.7620	0	26.691	0	238.746	0	112.6	4	36.3	4	-1E+10	1	-1E+10	1	-1E+10	1	-1E+10	1	-1E+10	1	-1E+10	1
4902549	113	C	09/30/2023	21:03	-133.150	47.694	0	241.90	0	5.0440	0	33.7620	0	26.691	0	239.736	0	111.9	4	36.1	4	-1E+10	1	-1E+10	1	-1E+10	1	-1E+10	1	-1E+10	1	-1E+10	1
4902549	113	C	09/30/2023	21:03	-133.150	47.694	0	242.90	0	5.0390	0	33.7640	0	26.693	0	240.727	0	111.1	4	35.8	4	-1E+10	1	-1E+10	1	-1E+10	1	-1E+10	1	-1E+10	1	-1E+10	1
4902549	113	C	09/30/2023	21:03	-133.150	47.694	0	243.90	0	5.0190	0	33.7650	0	26.696	0	241.717	0	110.5	4	35.6	4	-1E+10	1	-1E+10	1	-1E+10	1	-1E+10	1	-1E+10	1	-1E+10	1
4902549	113	C	09/30/2023	21:03	-133.150	47.694	0	245.00	0	5.0180	0	33.7650	0	26.696	0	242.807	0	109.9	4	35.4	4	-1E+10	1	-1E+10	1	-1E+10	1	-1E+10	1	-1E+10	1	-1E+10	1
4902549	113	C	09/30/2023	21:03	-133.150	47.694	0	246.00	0	5.0280	0	33.7670	0	26.697	0	243.797	0	109.5	4	35.3	4	-1E+10	1	-1E+10	1	-1E+10	1	-1E+10	1	-1E+10	1	-1E+10	1
4902549	113	C	09/30/2023	21:03	-133.150	47.694	0	247.00	0	5.0070	0	33.7700	0	26.702	0	244.788	0	109.1	4	35.2	4	-1E+10	1	-1E+10	1	-1E+10	1	-1E+10	1	-1E+10	1	-1E+10	1
4902549	113	C	09/30/2023	21:03	-133.150	47.694	0	248.10	0	4.9700	0	33.7710	0	26.707	0	245.877	0	108.6	4	35.0	4	-1E+10	1	-1E+10	1	-1E+10	1	-1E+10	1	-1E+10	1	-1E+10	1
4902549	113	C	09/30/2023	21:03	-133.150	47.694	0	249.10	0	4.9580	0	33.7690	0	26.706	0	246.868	0	108.1	4	34.8	4	-1E+10	1	-1E+10	1	-1E+10	1	-1E+10	1	-1E+10	1	-1E+10	1
4902549	113	C	09/30/2023	21:03	-133.150	47.694	0	250.20	0	4.9480	0	33.7720	0	26.710	0	247.957	0	107.6	4	34.7	4	-1E+10	1	-1E+10	1	-1E+10	1	-1E+10	1	-1E+10	1	-1E+10	1
4902549	113	C	09/30/2023	21:03	-133.150	47.694	0	251.20	0	4.9400	0	33.7730	0	26.712	0	248.948	0	107.2	4	34.5	4	-1E+10	1	-1E+10	1	-1E+10	1	-1E+10	1	-1E+10	1	-1E+10	1
4902549	113	C	09/30/2023	21:03	-133.150	47.694	0	252.30	0	4.9370	0	33.7740	0	26.713	0	250.037	0	106.8	4	34.4	4	-1E+10	1	-1E+10	1	-1E+10	1	-1E+10	1	-1E+10	1	-1E+10	1
4902549	113	C	09/30/2023	21:03	-133.150	47.694	0	253.30	0	4.9350	0	33.7740	0	26.713	0	251.028	0	106.3	4	34.2	4	-1E+10	1	-1E+10	1	-1E+10	1	-1E+10	1	-1E+10	1	-1E+10	1
4902549	113	C	09/30/2023	21:03	-133.150	47.694	0	254.40	0	4.9310	0	33.7740	0	26.713	0	252.117	0	105.8	4	34.0	4	-1E+10	1	-1E+10	1	-1E+10	1	-1E+10	1	-1E+10	1	-1E+10	1
4902549	113	C	09/30/2023	21:03	-133.150	47.694	0	255.40	0	4.9250	0	33.7750	0	26.715	0	253.107	0	105.2	4	33.9	4	-1E+10	1	-1E+10	1	-1E+10	1	-1E+10	1	-1E+10	1	-1E+10	1
4902549	113	C	09/30/2023	21:03	-133.150	47.694	0	256.50	0	4.9230	0	33.7750	0	26.715	0	254.197	0	104.6	4	33.7	4	-1E+10	1	-1E+10	1	-1E+10	1	-1E+10	1	-1E+10	1	-1E+10	1
4902549	113	C	09/30/2023	21:03	-133.150	47.694	0	257.50	0	4.9200	0	33.7750	0	26.715	0	255.187	0	103.9	4	33.4	4	-1E+10	1	-1E+10	1	-1E+10	1	-1E+10	1	-1E+10	1	-1E+10	1
4902549	113	C	09/30/2023	21:03	-133.150	47.694	0	258.50	0	4.9120	0	33.7760	0	26.717	0	256.178	0	103.3	4	33.2	4	-1E+10	1	-1E+10	1	-1E+10	1	-1E+10	1	-1E+10	1	-1E+10	1
4902549	113	C	09/30/2023	21:03	-133.150	47.694	0	259.60	0	4.9010	0	33.7780	0	26.720	0	257.267	0	102.7	4	33.0	4	-1E+10	1	-1E+10	1	-1E+10	1	-1E+10	1	-1E+10	1	-1E+10	1
4902549	113	C	09/30/2023	21:03	-133.150	47.694	0	260.60	0	4.8880	0	33.7800	0	26.723	0	258.258	0	102.1	4	32.8	4	-1E+10	1	-1E+10	1	-1E+10	1	-1E+10	1	-1E+10	1	-1E+10	1
4902549	113	C	09/30/2023	21:03	-133.150	47.694	0	261.50	0	4.8780	0	33.7800	0	26.724	0	259.149	0	101.6	4	32.6	4	-1E+10	1	-1E+10	1	-1E+10	1	-1E+10	1	-1E+10	1	-1E+10	1
4902549	113	C	09/30/2023	21:03	-133.150	47.694	0	263.00	0	4.8680	0	33.7810	0	26.726	0	260.634	0	100.7	4	32.4	4	-1E+10	1	-1E+10	1	-1E+10	1	-1E+10	1	-1E+10	1	-1E+10	1
4902549	113	C	09/30/2023	21:03	-133.150	47.694	0	264.20	0	4.8600	0	33.7820	0	26.728	0	261.823	0	100.1	4	32.2	4	-1E+10	1	-1E+10	1	-1E+10	1	-1E+10	1	-1E+10	1	-1E+10	1
4902549	113	C	09/30/2023	21:03	-133.150	47.694	0	265.00	0	4.8520	0	33.7830	0	26.729	0	262.615	0	99.7	4	32.0	4	-1E+10	1	-1E+10	1	-1E+10	1	-1E+10	1	-1E+10	1	-1E+10	1
4902549	113	C	09/30/2023	21:03	-133.150	47.694	0	265.80	0	4.8460	0	33.7840	0	26.731	0	263.407	0	99.3	4	31.9	4	-1E+10	1	-1E+10	1	-1E+10	1	-1E+10	1	-1E+10	1	-1E+10	1
4902549	113	C	09/30/2023	21:03	-133.150	47.694	0	267.00	0	4.8370	0	33.7850	0	26.733	0	264.596	0	98.7	4	31.7	4	-1E+10	1	-1E+10	1	-1E+10	1	-1E+10	1	-1E+10	1	-1E+10	1
4902549	113	C	09/30/2023	21:03	-133.150	47.694	0	268.10	0	4.8310	0	33.7860	0	26.734	0	265.685	0	98.1	4	31.5	4	-1E+10	1	-1E+10	1	-1E+10	1	-1E+10	1	-1E+10	1	-1E+10	1
4902549	113	C	09/30/2023	21:03	-133.150	47.694	0	268.90	0	4.8280	0	33.7860	0	26.735	0	266.478	0	97.7	4	31.4	4	-1E+10	1	-1E+10	1	-1E+10	1	-1E+10	1	-1E+10	1	-1E+10	1
4902549	113	C	09/30/2023	21:03	-133.150	47.694	0	269.70	0	4.8230	0	33.7870	0	26.736	0	267.270	0	97.3	4	31.2	4	-1E+10	1	-1E+10	1	-1E+10	1	-1E+10	1	-1E+10	1	-1E+10	1
4902549	113	C	09/30/2023	21:03	-133.150	47.694	0	270.90	0	4.8180	0	33.7870	0	26.736	0	268.458	0	96.6	4	31.0	4	-1E+10	1	-1E+10	1	-1E+10	1	-1E+10	1	-1E+10	1	-1E+10	1
4902549	113	C	09/30/2023	21:03	-133.150	47.694	0	272.10	0	4.8180	0	33.7870	0	26.736	0	269.647	0	95.8	4	30.8	4	-1E+10	1	-1E+10	1	-1E+10	1	-1E+10	1	-1E+10	1	-1E+10	1
4902549	113	C	09/30/2023	21:03	-133.150	47.694	0	272.90	0	4.8100	0	33.7880	0	26.738	0	270.439	0	95.3	4	30.6	4	-1E+10	1	-1E+10	1	-1E+10	1	-1E+10	1	-1E+10	1	-1E+10	1
4902549	113	C	09/30/2023	21:03	-133.150	47.694	0	273.70	0	4.7980	0	33.7890	0	26.740	0	271.231	0	94.8	4	30.4	4	-1E+10	1	-1E+10	1	-1E+10	1	-1E+10	1	-1E+10	1	-1E+10	1
4902549	113	C	09/30/2023	21:03	-133.150	47.694	0	274.90	0	4.7910	0	33.7900	0	26.742	0	272.420	0	94.1	4	30.2	4	-1E+10	1	-1E+10	1	-1E+10	1	-1E+10	1	-1E+10	1	-1E+10	1
4902549	113	C	09/30/2023	21:03	-133.150	47.694	0	276.10	0	4.7820	0	33.7930	0	26.745	0	273.608	0	93.5	4	30.0	4	-1E+10	1	-1E+10	1	-1E+10	1	-1E+10	1	-1E+10	1	-1E+10	1
4902549	113	C	09/30/2023	21:03	-133.150	47.694	0	276.90	0	4.7790	0	33.7930	0	26.746	0	274.400	0	93.0	4	29.8	4	-1E+10	1	-1E+10	1	-1E+10	1	-1E+10	1	-1E+10	1	-1E+10	1
4902549	113	C	09/30/2023	21:03	-133.150	47.694	0	277.70	0	4.7730	0	33.7950	0	26.748	0	275.192	0	92.6	4	29.7	4	-1E+10	1	-1E+10	1	-1E+10	1	-1E+10	1	-1E+10	1	-1E+10	1
4902549	113	C	09/30/2023	21:03	-133.150	47.694	0	278.90	0	4.7630	0	33.7950	0	26.749	0	276.381	0	92.0	4	29.5	4	-1E+10	1	-1E+10	1	-1E+10	1	-1E+10	1	-1E+10	1	-1E+10	1
4902549	113	C	09/30/2023	21:03	-133.150	47.694	0	280.10	0	4.7590	0	33.7960	0	26.750	0	277.569	0	91.4	4	29.3	4	-1E+10	1	-1E+10	1	-1E+10	1	-1E+10	1	-1E+10	1	-1E+10	1
4902549	113	C	09/30/2023	21:03	-133.150	47.694	0	281.00	0	4.7590	0	33.7970	0	26.751	0	278.460	0	90.9	4	29.2	4	-1E+10	1	-1E+10	1	-1E+10	1	-1E+10	1	-1E+10	1	-1E+10	1
4902549	113	C	09/30/2023	21:03	-133.150	47.694	0	281.80	0	4.7580	0	33.7970	0	26.751	0	279.253	0	90.4	4	29.0	4	-1E+10	1	-1E+10	1	-1E+10	1	-1E+10	1	-1E+10	1	-1E+10	1
4902549	113	C	09/30/2023	21:03	-133.150	47.694	0	283.00	0	4.7540	0	33.7970	0	26.752	0	280.441	0	89.5	4	28.7	4	-1E+10	1	-1E+10	1	-1E+10	1	-1E+10	1	-1E+10	1	-1E+10	1
4902549	113	C	09/30/2023	21:03	-133.150	47.694	0	284.20	0	4.7450	0	33.7990	0	26.754	0	281.629	0	88.7	4	28.4	4	-1E+10	1	-1E+10	1	-1E+10	1	-1E+10	1	-1E+10	1	-1E+10	1
4902549	113	C	09/30/2023	21:03	-133.150	47.694	0	285.10	0	4.7420	0	33.8010	0	26.756	0	282.521	0	88.1	4	28.2	4	-1E+10	1	-1E+10	1	-1E+10	1	-1E+10	1	-1E+10	1	-1E+10	1
4902549	113	C	09/30/2023	21:03	-133.150	47.694	0	285.90	0	4.7380	0	33.8020	0	26.757	0	283.313	0	87.7	4	28.1	4	-1E+10	1	-1E+10	1	-1E+10	1	-1E+10	1	-1E+10	1	-1E+10	1
4902549	113	C	09/30/2023	21:03	-133.150	47.694	0	286.70	0	4.7390	0	33.8040	0	26.759	0	284.105	0	87.2	4	28.0	4	-1E+10	1	-1E+10	1	-1E+10	1	-1E+10	1	-1E+10	1	-1E+10	1
4902549	113	C	09/30/2023	21:03	-133.150	47.694	0	287.90	0	4.7340	0	33.8050	0	26.760	0	285.293	0	86.5	4	27.7	4	-1E+10	1	-1E+10	1	-1E+10	1	-1E+10	1	-1E+10	1	-1E+10	1
4902549	113	C	09/30/2023	21:03	-133.150	47.694	0	289.20	0	4.7240	0	33.8060	0	26.762	0	286.581	0	85.8	4	27.5	4	-1E+10	1	-1E+10	1	-1E+10	1	-1E+10	1	-1E+10	1	-1E+10	1
4902549	113	C	09/30/2023	21:03	-133.150	47.694	0	290.00	0	4.7230	0	33.8070	0	26.763	0	287.373	0	85.4	4	27.3	4	-1E+10	1	-1E+10	1	-1E+10	1	-1E+10	1	-1E+10	1	-1E+10	1
4902549	113	C	09/30/2023	21:03	-133.150	47.694	0	290.80	0	4.7200	0	33.8070	0	26.763	0	288.165	0	84.9	4	27.2	4	-1E+10	1	-1E+10	1	-1E+10	1	-1E+10	1	-1E+10	1	-1E+10	1
4902549	113	C	09/30/2023	21:03	-133.150	47.694	0	291.60	0	4.7180	0	33.8090	0	26.765	0	288.957	0	84.5	4	27.1	4	-1E+10	1	-1E+10	1	-1E+10	1	-1E+10	1	-1E+10	1	-1E+10	1
4902549	113	C	09/30/2023	21:03	-133.150	47.694	0	292.90	0	4.7110	0	33.8100	0	26.767	0	290.245	0	83.9	4	26.9	4	-1E+10	1	-1E+10	1	-1E+10	1	-1E+10	1	-1E+10	1	-1E+10	1
4902549	113	C	09/30/2023	21:03	-133.150	47.694	0	294.10	0	4.7120	0	33.8120	0	26.768	0	291.433	0	83.3	4	26.7	4	-1E+10	1	-1E+10	1	-1E+10	1	-1E+10	1	-1E+10	1	-1E+10	1
4902549	113	C	09/30/2023	21:03	-133.150	47.694	0	295.00	0	4.7100	0	33.8150	0	26.771	0	292.324	0	83.0	4	26.6	4	-1E+10	1	-1E+10	1	-1E+10	1	-1E+10	1	-1E+10	1	-1E+10	1
4902549	113	C	09/30/2023	21:03	-133.150	47.694	0	295.80	0	4.7020	0	33.8150	0	26.772	0	293.116	0	82.8	4	26.5	4	-1E+10	1	-1E+10	1	-1E+10	1	-1E+10	1	-1E+10	1	-1E+10	1
4902549	113	C	09/30/2023	21:03	-133.150	47.694	0	297.00	0	4.7010	0	33.8160	0	26.773	0	294.304	0	82.4	4	26.4	4	-1E+10	1	-1E+10	1	-1E+10	1	-1E+10	1	-1E+10	1	-1E+10	1
4902549	113	C	09/30/2023	21:03	-133.150	47.694	0	298.30	0	4.7020	0	33.8160	0	26.773	0	295.592	0	81.9	4	26.2	4	-1E+10	1	-1E+10	1	-1E+10	1	-1E+10	1	-1E+10	1	-1E+10	1
4902549	113	C	09/30/2023	21:03	-133.150	47.694	0	299.10	0	4.7010	0	33.8170	0	26.773	0	296.384	0	81.6	4	26.1	4	-1E+10	1	-1E+10	1	-1E+10	1	-1E+10	1	-1E+10	1	-1E+10	1
4902549	113	C	09/30/2023	21:03	-133.150	47.694	0	299.90	0	4.6970	0	33.8180	0	26.775	0	297.176	0	81.3	4	26.0	4	-1E+10	1	-1E+10	1	-1E+10	1	-1E+10	1	-1E+10	1	-1E+10	1
4902549	113	C	09/30/2023	21:03	-133.150	47.694	0	300.70	0	4.6950	0	33.8180	0	26.775	0	297.968	0	81.0	4	25.9	4	-1E+10	1	-1E+10	1	-1E+10	1	-1E+10	1	-1E+10	1	-1E+10	1
4902549	113	C	09/30/2023	21:03	-133.150	47.694	0	302.00	0	4.6870	0	33.8180	0	26.776	0	299.255	0	80.5	4	25.8	4	-1E+10	1	-1E+10	1	-1E+10	1	-1E+10	1	-1E+10	1	-1E+10	1
4902549	113	C	09/30/2023	21:03	-133.150	47.694	0	303.20	0	4.6670	0	33.8210	0	26.780	0	300.444	0	80.0	4	25.6	4	-1E+10	1	-1E+10	1	-1E+10	1	-1E+10	1	-1E+10	1	-1E+10	1
4902549	113	C	09/30/2023	21:03	-133.150	47.694	0	304.10	0	4.6610	0	33.8200	0	26.780	0	301.335	0	79.6	4	25.5	4	-1E+10	1	-1E+10	1	-1E+10	1	-1E+10	1	-1E+10	1	-1E+10	1
4902549	113	C	09/30/2023	21:03	-133.150	47.694	0	304.90	0	4.6560	0	33.8210	0	26.782	0	302.127	0	79.3	4	25.4	4	-1E+10	1	-1E+10	1	-1E+10	1	-1E+10	1	-1E+10	1	-1E+10	1
4902549	113	C	09/30/2023	21:03	-133.150	47.694	0	305.70	0	4.6540	0	33.8210	0	26.782	0	302.919	0	78.8	4	25.2	4	-1E+10	1	-1E+10	1	-1E+10	1	-1E+10	1	-1E+10	1	-1E+10	1
4902549	113	C	09/30/2023	21:03	-133.150	47.694	0	306.90	0	4.6510	0	33.8210	0	26.782	0	304.107	0	78.0	4	25.0	4	-1E+10	1	-1E+10	1	-1E+10	1	-1E+10	1	-1E+10	1	-1E+10	1
4902549	113	C	09/30/2023	21:03	-133.150	47.694	0	308.20	0	4.6460	0	33.8220	0	26.783	0	305.395	0	77.2	4	24.7	4	-1E+10	1	-1E+10	1	-1E+10	1	-1E+10	1	-1E+10	1	-1E+10	1
4902549	113	C	09/30/2023	21:03	-133.150	47.694	0	309.00	0	4.6470	0	33.8230	0	26.784	0	306.187	0	76.6	4	24.5	4	-1E+10	1	-1E+10	1	-1E+10	1	-1E+10	1	-1E+10	1	-1E+10	1
4902549	113	C	09/30/2023	21:03	-133.150	47.694	0	309.80	0	4.6460	0	33.8250	0	26.786	0	306.979	0	76.0	4	24.3	4	-1E+10	1	-1E+10	1	-1E+10	1	-1E+10	1	-1E+10	1	-1E+10	1
4902549	113	C	09/30/2023	21:03	-133.150	47.694	0	310.70	0	4.6400	0	33.8260	0	26.787	0	307.870	0	75.5	4	24.1	4	-1E+10	1	-1E+10	1	-1E+10	1	-1E+10	1	-1E+10	1	-1E+10	1
4902549	113	C	09/30/2023	21:03	-133.150	47.694	0	311.90	0	4.6410	0	33.8320	0	26.792	0	309.058	0	74.9	4	24.0	4	-1E+10	1	-1E+10	1	-1E+10	1	-1E+10	1	-1E+10	1	-1E+10	1
4902549	113	C	09/30/2023	21:03	-133.150	47.694	0	313.20	0	4.6360	0	33.8330	0	26.793	0	310.345	0	74.4	4	23.8	4	-1E+10	1	-1E+10	1	-1E+10	1	-1E+10	1	-1E+10	1	-1E+10	1
4902549	113	C	09/30/2023	21:03	-133.150	47.694	0	314.10	0	4.6320	0	33.8340	0	26.795	0	311.236	0	74.1	4	23.7	4	-1E+10	1	-1E+10	1	-1E+10	1	-1E+10	1	-1E+10	1	-1E+10	1
4902549	113	C	09/30/2023	21:03	-133.150	47.694	0	315.00	0	4.6260	0	33.8350	0	26.796	0	312.128	0	73.8	4	23.6	4	-1E+10	1	-1E+10	1	-1E+10	1	-1E+10	1	-1E+10	1	-1E+10	1
4902549	113	C	09/30/2023	21:03	-133.150	47.694	0	315.80	0	4.6160	0	33.8370	0	26.799	0	312.920	0	73.5	4	23.5	4	-1E+10	1	-1E+10	1	-1E+10	1	-1E+10	1	-1E+10	1	-1E+10	1
4902549	113	C	09/30/2023	21:03	-133.150	47.694	0	316.70	0	4.6100	0	33.8380	0	26.800	0	313.811	0	73.3	4	23.4	4	-1E+10	1	-1E+10	1	-1E+10	1	-1E+10	1	-1E+10	1	-1E+10	1
4902549	113	C	09/30/2023	21:03	-133.150	47.694	0	318.00	0	4.6020	0	33.8390	0	26.802	0	315.098	0	73.0	4	23.3	4	-1E+10	1	-1E+10	1	-1E+10	1	-1E+10	1	-1E+10	1	-1E+10	1
4902549	113	C	09/30/2023	21:03	-133.150	47.694	0	319.30	0	4.5940	0	33.8380	0	26.802	0	316.385	0	72.6	4	23.2	4	-1E+10	1	-1E+10	1	-1E+10	1	-1E+10	1	-1E+10	1	-1E+10	1
4902549	113	C	09/30/2023	21:03	-133.150	47.694	0	320.10	0	4.5850	0	33.8410	0	26.805	0	317.177	0	72.3	4	23.1	4	-1E+10	1	-1E+10	1	-1E+10	1	-1E+10	1	-1E+10	1	-1E+10	1
4902549	113	C	09/30/2023	21:03	-133.150	47.694	0	321.00	0	4.5850	0	33.8400	0	26.804	0	318.068	0	72.1	4	23.0	4	-1E+10	1	-1E+10	1	-1E+10	1	-1E+10	1	-1E+10	1	-1E+10	1
4902549	113	C	09/30/2023	21:03	-133.150	47.694	0	321.80	0	4.5810	0	33.8430	0	26.807	0	318.860	0	71.8	4	22.9	4	-1E+10	1	-1E+10	1	-1E+10	1	-1E+10	1	-1E+10	1	-1E+10	1
4902549	113	C	09/30/2023	21:03	-133.150	47.694	0	322.70	0	4.5770	0	33.8420	0	26.807	0	319.751	0	71.5	4	22.8	4	-1E+10	1	-1E+10	1	-1E+10	1	-1E+10	1	-1E+10	1	-1E+10	1
4902549	113	C	09/30/2023	21:03	-133.150	47.694	0	324.00	0	4.5700	0	33.8450	0	26.810	0	321.038	0	71.2	4	22.7	4	-1E+10	1	-1E+10	1	-1E+10	1	-1E+10	1	-1E+10	1	-1E+10	1
4902549	113	C	09/30/2023	21:03	-133.150	47.694	0	325.30	0	4.5710	0	33.8460	0	26.811	0	322.326	0	71.0	4	22.7	4	-1E+10	1	-1E+10	1	-1E+10	1	-1E+10	1	-1E+10	1	-1E+10	1
4902549	113	C	09/30/2023	21:03	-133.150	47.694	0	326.20	0	4.5700	0	33.8460	0	26.811	0	323.217	0	70.8	4	22.6	4	-1E+10	1	-1E+10	1	-1E+10	1	-1E+10	1	-1E+10	1	-1E+10	1
4902549	113	C	09/30/2023	21:03	-133.150	47.694	0	327.00	0	4.5680	0	33.8470	0	26.812	0	324.009	0	70.6	4	22.5	4	-1E+10	1	-1E+10	1	-1E+10	1	-1E+10	1	-1E+10	1	-1E+10	1
4902549	113	C	09/30/2023	21:03	-133.150	47.694	0	327.90	0	4.5670	0	33.8470	0	26.812	0	324.900	0	70.5	4	22.5	4	-1E+10	1	-1E+10	1	-1E+10	1	-1E+10	1	-1E+10	1	-1E+10	1
4902549	113	C	09/30/2023	21:03	-133.150	47.694	0	328.80	0	4.5660	0	33.8470	0	26.812	0	325.791	0	70.3	4	22.4	4	-1E+10	1	-1E+10	1	-1E+10	1	-1E+10	1	-1E+10	1	-1E+10	1
4902549	113	C	09/30/2023	21:03	-133.150	47.694	0	329.60	0	4.5660	0	33.8470	0	26.812	0	326.583	0	70.1	4	22.4	4	-1E+10	1	-1E+10	1	-1E+10	1	-1E+10	1	-1E+10	1	-1E+10	1
4902549	113	C	09/30/2023	21:03	-133.150	47.694	0	330.90	0	4.5650	0	33.8480	0	26.813	0	327.870	0	69.7	4	22.3	4	-1E+10	1	-1E+10	1	-1E+10	1	-1E+10	1	-1E+10	1	-1E+10	1
4902549	113	C	09/30/2023	21:03	-133.150	47.694	0	332.20	0	4.5610	0	33.8480	0	26.814	0	329.157	0	69.3	4	22.1	4	-1E+10	1	-1E+10	1	-1E+10	1	-1E+10	1	-1E+10	1	-1E+10	1
4902549	113	C	09/30/2023	21:03	-133.150	47.694	0	333.00	0	4.5580	0	33.8490	0	26.815	0	329.949	0	69.1	4	22.1	4	-1E+10	1	-1E+10	1	-1E+10	1	-1E+10	1	-1E+10	1	-1E+10	1
4902549	113	C	09/30/2023	21:03	-133.150	47.694	0	333.80	0	4.5620	0	33.8500	0	26.815	0	330.741	0	68.9	4	22.0	4	-1E+10	1	-1E+10	1	-1E+10	1	-1E+10	1	-1E+10	1	-1E+10	1
4902549	113	C	09/30/2023	21:03	-133.150	47.694	0	334.70	0	4.5610	0	33.8500	0	26.815	0	331.632	0	68.6	4	21.9	4	-1E+10	1	-1E+10	1	-1E+10	1	-1E+10	1	-1E+10	1	-1E+10	1
4902549	113	C	09/30/2023	21:03	-133.150	47.694	0	335.90	0	4.5560	0	33.8510	0	26.816	0	332.820	0	68.3	4	21.8	4	-1E+10	1	-1E+10	1	-1E+10	1	-1E+10	1	-1E+10	1	-1E+10	1
4902549	113	C	09/30/2023	21:03	-133.150	47.694	0	337.20	0	4.5520	0	33.8520	0	26.818	0	334.107	0	67.9	4	21.7	4	-1E+10	1	-1E+10	1	-1E+10	1	-1E+10	1	-1E+10	1	-1E+10	1
4902549	113	C	09/30/2023	21:03	-133.150	47.694	0	338.00	0	4.5410	0	33.8530	0	26.820	0	334.899	0	67.7	4	21.6	4	-1E+10	1	-1E+10	1	-1E+10	1	-1E+10	1	-1E+10	1	-1E+10	1
4902549	113	C	09/30/2023	21:03	-133.150	47.694	0	338.80	0	4.5310	0	33.8530	0	26.821	0	335.691	0	67.3	4	21.5	4	-1E+10	1	-1E+10	1	-1E+10	1	-1E+10	1	-1E+10	1	-1E+10	1
4902549	113	C	09/30/2023	21:03	-133.150	47.694	0	339.70	0	4.5300	0	33.8530	0	26.821	0	336.582	0	67.0	4	21.4	4	-1E+10	1	-1E+10	1	-1E+10	1	-1E+10	1	-1E+10	1	-1E+10	1
4902549	113	C	09/30/2023	21:03	-133.150	47.694	0	340.90	0	4.5280	0	33.8550	0	26.823	0	337.770	0	66.5	4	21.2	4	-1E+10	1	-1E+10	1	-1E+10	1	-1E+10	1	-1E+10	1	-1E+10	1
4902549	113	C	09/30/2023	21:03	-133.150	47.694	0	342.20	0	4.5240	0	33.8570	0	26.825	0	339.057	0	66.0	4	21.1	4	-1E+10	1	-1E+10	1	-1E+10	1	-1E+10	1	-1E+10	1	-1E+10	1
4902549	113	C	09/30/2023	21:03	-133.150	47.694	0	343.10	0	4.5240	0	33.8570	0	26.825	0	339.948	0	65.7	4	21.0	4	-1E+10	1	-1E+10	1	-1E+10	1	-1E+10	1	-1E+10	1	-1E+10	1
4902549	113	C	09/30/2023	21:03	-133.150	47.694	0	343.90	0	4.5220	0	33.8590	0	26.827	0	340.740	0	65.4	4	20.9	4	-1E+10	1	-1E+10	1	-1E+10	1	-1E+10	1	-1E+10	1	-1E+10	1
4902549	113	C	09/30/2023	21:03	-133.150	47.694	0	344.80	0	4.5190	0	33.8600	0	26.828	0	341.631	0	65.1	4	20.8	4	-1E+10	1	-1E+10	1	-1E+10	1	-1E+10	1	-1E+10	1	-1E+10	1
4902549	113	C	09/30/2023	21:03	-133.150	47.694	0	345.60	0	4.5070	0	33.8610	0	26.830	0	342.423	0	64.8	4	20.7	4	-1E+10	1	-1E+10	1	-1E+10	1	-1E+10	1	-1E+10	1	-1E+10	1
4902549	113	C	09/30/2023	21:03	-133.150	47.694	0	346.90	0	4.5030	0	33.8600	0	26.829	0	343.710	0	64.2	4	20.5	4	-1E+10	1	-1E+10	1	-1E+10	1	-1E+10	1	-1E+10	1	-1E+10	1
4902549	113	C	09/30/2023	21:03	-133.150	47.694	0	348.20	0	4.5040	0	33.8620	0	26.831	0	344.997	0	63.6	4	20.3	4	-1E+10	1	-1E+10	1	-1E+10	1	-1E+10	1	-1E+10	1	-1E+10	1
4902549	113	C	09/30/2023	21:03	-133.150	47.694	0	349.10	0	4.5040	0	33.8650	0	26.833	0	345.888	0	63.2	4	20.2	4	-1E+10	1	-1E+10	1	-1E+10	1	-1E+10	1	-1E+10	1	-1E+10	1
4902549	113	C	09/30/2023	21:03	-133.150	47.694	0	349.90	0	4.5040	0	33.8660	0	26.834	0	346.680	0	62.9	4	20.1	4	-1E+10	1	-1E+10	1	-1E+10	1	-1E+10	1	-1E+10	1	-1E+10	1
4902549	113	C	09/30/2023	21:03	-133.150	47.694	0	352.90	0	4.4900	0	33.8690	0	26.838	0	349.650	0	61.9	4	19.7	4	-1E+10	1	-1E+10	1	-1E+10	1	-1E+10	1	-1E+10	1	-1E+10	1
4902549	113	C	09/30/2023	21:03	-133.150	47.694	0	358.00	0	4.4740	0	33.8750	0	26.845	0	354.699	0	60.1	4	19.2	4	-1E+10	1	-1E+10	1	-1E+10	1	-1E+10	1	-1E+10	1	-1E+10	1
4902549	113	C	09/30/2023	21:03	-133.150	47.694	0	363.20	0	4.4580	0	33.8810	0	26.851	0	359.846	0	58.5	4	18.6	4	-1E+10	1	-1E+10	1	-1E+10	1	-1E+10	1	-1E+10	1	-1E+10	1
4902549	113	C	09/30/2023	21:03	-133.150	47.694	0	368.00	0	4.4440	0	33.8850	0	26.856	0	364.598	0	56.4	4	17.9	4	-1E+10	1	-1E+10	1	-1E+10	1	-1E+10	1	-1E+10	1	-1E+10	1
4902549	113	C	09/30/2023	21:03	-133.150	47.694	0	372.60	0	4.4370	0	33.8950	0	26.864	0	369.151	0	53.7	4	17.1	4	-1E+10	1	-1E+10	1	-1E+10	1	-1E+10	1	-1E+10	1	-1E+10	1
4902549	113	C	09/30/2023	21:03	-133.150	47.694	0	377.70	0	4.4270	0	33.9020	0	26.871	0	374.199	0	51.7	4	16.5	4	-1E+10	1	-1E+10	1	-1E+10	1	-1E+10	1	-1E+10	1	-1E+10	1
4902549	113	C	09/30/2023	21:03	-133.150	47.694	0	383.00	0	4.4080	0	33.9130	0	26.882	0	379.445	0	49.6	4	15.8	4	-1E+10	1	-1E+10	1	-1E+10	1	-1E+10	1	-1E+10	1	-1E+10	1
4902549	113	C	09/30/2023	21:03	-133.150	47.694	0	388.00	0	4.3980	0	33.9210	0	26.889	0	384.394	0	48.3	4	15.4	4	-1E+10	1	-1E+10	1	-1E+10	1	-1E+10	1	-1E+10	1	-1E+10	1
4902549	113	C	09/30/2023	21:03	-133.150	47.694	0	392.90	0	4.3820	0	33.9280	0	26.897	0	389.244	0	47.2	4	15.0	4	-1E+10	1	-1E+10	1	-1E+10	1	-1E+10	1	-1E+10	1	-1E+10	1
4902549	113	C	09/30/2023	21:03	-133.150	47.694	0	398.00	0	4.3690	0	33.9340	0	26.903	0	394.292	0	46.3	4	14.7	4	-1E+10	1	-1E+10	1	-1E+10	1	-1E+10	1	-1E+10	1	-1E+10	1
4902549	113	C	09/30/2023	21:03	-133.150	47.694	0	402.70	0	4.3620	0	33.9370	0	26.906	0	398.943	0	45.4	4	14.4	4	-1E+10	1	-1E+10	1	-1E+10	1	-1E+10	1	-1E+10	1	-1E+10	1
4902549	113	C	09/30/2023	21:03	-133.150	47.694	0	407.50	0	4.3430	0	33.9460	0	26.915	0	403.694	0	44.1	4	14.0	4	-1E+10	1	-1E+10	1	-1E+10	1	-1E+10	1	-1E+10	1	-1E+10	1
4902549	113	C	09/30/2023	21:03	-133.150	47.694	0	412.90	0	4.3320	0	33.9530	0	26.922	0	409.038	0	43.2	4	13.7	4	-1E+10	1	-1E+10	1	-1E+10	1	-1E+10	1	-1E+10	1	-1E+10	1
4902549	113	C	09/30/2023	21:03	-133.150	47.694	0	418.00	0	4.3210	0	33.9590	0	26.928	0	414.085	0	42.3	4	13.4	4	-1E+10	1	-1E+10	1	-1E+10	1	-1E+10	1	-1E+10	1	-1E+10	1
4902549	113	C	09/30/2023	21:03	-133.150	47.694	0	422.50	0	4.3120	0	33.9640	0	26.933	0	418.539	0	41.6	4	13.2	4	-1E+10	1	-1E+10	1	-1E+10	1	-1E+10	1	-1E+10	1	-1E+10	1
4902549	113	C	09/30/2023	21:03	-133.150	47.694	0	427.60	0	4.3030	0	33.9690	0	26.938	0	423.586	0	40.9	4	13.0	4	-1E+10	1	-1E+10	1	-1E+10	1	-1E+10	1	-1E+10	1	-1E+10	1
4902549	113	C	09/30/2023	21:03	-133.150	47.694	0	432.90	0	4.2910	0	33.9760	0	26.945	0	428.831	0	40.6	4	12.9	4	-1E+10	1	-1E+10	1	-1E+10	1	-1E+10	1	-1E+10	1	-1E+10	1
4902549	113	C	09/30/2023	21:03	-133.150	47.694	0	438.00	0	4.2810	0	33.9790	0	26.948	0	433.877	0	40.3	4	12.8	4	-1E+10	1	-1E+10	1	-1E+10	1	-1E+10	1	-1E+10	1	-1E+10	1
4902549	113	C	09/30/2023	21:03	-133.150	47.694	0	442.90	0	4.2680	0	33.9850	0	26.954	0	438.726	0	39.6	4	12.6	4	-1E+10	1	-1E+10	1	-1E+10	1	-1E+10	1	-1E+10	1	-1E+10	1
4902549	113	C	09/30/2023	21:03	-133.150	47.694	0	447.80	0	4.2590	0	33.9900	0	26.959	0	443.575	0	39.2	4	12.4	4	-1E+10	1	-1E+10	1	-1E+10	1	-1E+10	1	-1E+10	1	-1E+10	1
4902549	113	C	09/30/2023	21:03	-133.150	47.694	0	452.80	0	4.2520	0	33.9950	0	26.964	0	448.522	0	38.8	4	12.3	4	-1E+10	1	-1E+10	1	-1E+10	1	-1E+10	1	-1E+10	1	-1E+10	1
4902549	113	C	09/30/2023	21:03	-133.150	47.694	0	457.80	0	4.2340	0	33.9990	0	26.969	0	453.469	0	38.5	4	12.2	4	-1E+10	1	-1E+10	1	-1E+10	1	-1E+10	1	-1E+10	1	-1E+10	1
4902549	113	C	09/30/2023	21:03	-133.150	47.694	0	462.80	0	4.2220	0	34.0040	0	26.974	0	458.416	0	37.6	4	11.9	4	-1E+10	1	-1E+10	1	-1E+10	1	-1E+10	1	-1E+10	1	-1E+10	1
4902549	113	C	09/30/2023	21:03	-133.150	47.694	0	467.90	0	4.2150	0	34.0090	0	26.979	0	463.462	0	36.3	4	11.5	4	-1E+10	1	-1E+10	1	-1E+10	1	-1E+10	1	-1E+10	1	-1E+10	1
4902549	113	C	09/30/2023	21:03	-133.150	47.694	0	473.00	0	4.2090	0	34.0160	0	26.985	0	468.508	0	34.9	4	11.1	4	-1E+10	1	-1E+10	1	-1E+10	1	-1E+10	1	-1E+10	1	-1E+10	1
4902549	113	C	09/30/2023	21:03	-133.150	47.694	0	478.20	0	4.2020	0	34.0240	0	26.993	0	473.653	0	34.3	4	10.9	4	-1E+10	1	-1E+10	1	-1E+10	1	-1E+10	1	-1E+10	1	-1E+10	1
4902549	113	C	09/30/2023	21:03	-133.150	47.694	0	483.00	0	4.1820	0	34.0320	0	27.001	0	478.402	0	34.0	4	10.8	4	-1E+10	1	-1E+10	1	-1E+10	1	-1E+10	1	-1E+10	1	-1E+10	1
4902549	113	C	09/30/2023	21:03	-133.150	47.694	0	487.80	0	4.1660	0	34.0350	0	27.005	0	483.151	0	33.5	4	10.6	4	-1E+10	1	-1E+10	1	-1E+10	1	-1E+10	1	-1E+10	1	-1E+10	1
4902549	113	C	09/30/2023	21:03	-133.150	47.694	0	492.80	0	4.1580	0	34.0390	0	27.009	0	488.097	0	32.7	4	10.4	4	-1E+10	1	-1E+10	1	-1E+10	1	-1E+10	1	-1E+10	1	-1E+10	1
4902549	113	C	09/30/2023	21:03	-133.150	47.694	0	497.90	0	4.1500	0	34.0440	0	27.014	0	493.142	0	31.9	4	10.1	4	-1E+10	1	-1E+10	1	-1E+10	1	-1E+10	1	-1E+10	1	-1E+10	1
4902549	113	C	09/30/2023	21:03	-133.150	47.694	0	503.10	0	4.1430	0	34.0480	0	27.018	0	498.286	0	31.1	4	9.9	4	-1E+10	1	-1E+10	1	-1E+10	1	-1E+10	1	-1E+10	1	-1E+10	1
4902549	113	C	09/30/2023	21:03	-133.150	47.694	0	507.90	0	4.1390	0	34.0510	0	27.021	0	503.035	0	30.4	4	9.6	4	-1E+10	1	-1E+10	1	-1E+10	1	-1E+10	1	-1E+10	1	-1E+10	1
4902549	113	C	09/30/2023	21:03	-133.150	47.694	0	512.80	0	4.1330	0	34.0550	0	27.025	0	507.882	0	29.5	4	9.3	4	-1E+10	1	-1E+10	1	-1E+10	1	-1E+10	1	-1E+10	1	-1E+10	1
4902549	113	C	09/30/2023	21:03	-133.150	47.694	0	517.70	0	4.1260	0	34.0600	0	27.029	0	512.729	0	28.7	4	9.1	4	-1E+10	1	-1E+10	1	-1E+10	1	-1E+10	1	-1E+10	1	-1E+10	1
4902549	113	C	09/30/2023	21:03	-133.150	47.694	0	522.50	0	4.1230	0	34.0640	0	27.033	0	517.477	0	27.9	4	8.8	4	-1E+10	1	-1E+10	1	-1E+10	1	-1E+10	1	-1E+10	1	-1E+10	1
4902549	113	C	09/30/2023	21:03	-133.150	47.694	0	527.90	0	4.1160	0	34.0690	0	27.038	0	522.818	0	27.1	4	8.6	4	-1E+10	1	-1E+10	1	-1E+10	1	-1E+10	1	-1E+10	1	-1E+10	1
4902549	113	C	09/30/2023	21:03	-133.150	47.694	0	533.30	0	4.1050	0	34.0740	0	27.043	0	528.159	0	26.2	4	8.3	4	-1E+10	1	-1E+10	1	-1E+10	1	-1E+10	1	-1E+10	1	-1E+10	1
4902549	113	C	09/30/2023	21:03	-133.150	47.694	0	538.20	0	4.0920	0	34.0800	0	27.049	0	533.006	0	25.3	4	8.0	4	-1E+10	1	-1E+10	1	-1E+10	1	-1E+10	1	-1E+10	1	-1E+10	1
4902549	113	C	09/30/2023	21:03	-133.150	47.694	0	543.30	0	4.0850	0	34.0870	0	27.055	0	538.050	0	24.1	4	7.6	4	-1E+10	1	-1E+10	1	-1E+10	1	-1E+10	1	-1E+10	1	-1E+10	1
4902549	113	C	09/30/2023	21:03	-133.150	47.694	0	548.40	0	4.0760	0	34.0940	0	27.062	0	543.094	0	23.5	4	7.4	4	-1E+10	1	-1E+10	1	-1E+10	1	-1E+10	1	-1E+10	1	-1E+10	1
4902549	113	C	09/30/2023	21:03	-133.150	47.694	0	552.90	0	4.0600	0	34.0990	0	27.067	0	547.544	0	23.2	4	7.3	4	-1E+10	1	-1E+10	1	-1E+10	1	-1E+10	1	-1E+10	1	-1E+10	1
4902549	113	C	09/30/2023	21:03	-133.150	47.694	0	557.50	0	4.0420	0	34.1040	0	27.073	0	552.094	0	22.7	4	7.2	4	-1E+10	1	-1E+10	1	-1E+10	1	-1E+10	1	-1E+10	1	-1E+10	1
4902549	113	C	09/30/2023	21:03	-133.150	47.694	0	562.50	0	4.0350	0	34.1080	0	27.077	0	557.039	0	22.2	4	7.0	4	-1E+10	1	-1E+10	1	-1E+10	1	-1E+10	1	-1E+10	1	-1E+10	1
4902549	113	C	09/30/2023	21:03	-133.150	47.694	0	567.50	0	4.0240	0	34.1120	0	27.082	0	561.983	0	21.8	4	6.9	4	-1E+10	1	-1E+10	1	-1E+10	1	-1E+10	1	-1E+10	1	-1E+10	1
4902549	113	C	09/30/2023	21:03	-133.150	47.694	0	572.50	0	4.0160	0	34.1150	0	27.085	0	566.928	0	21.3	4	6.7	4	-1E+10	1	-1E+10	1	-1E+10	1	-1E+10	1	-1E+10	1	-1E+10	1
4902549	113	C	09/30/2023	21:03	-133.150	47.694	0	577.60	0	4.0100	0	34.1190	0	27.089	0	571.971	0	20.8	4	6.6	4	-1E+10	1	-1E+10	1	-1E+10	1	-1E+10	1	-1E+10	1	-1E+10	1
4902549	113	C	09/30/2023	21:03	-133.150	47.694	0	582.70	0	4.0040	0	34.1220	0	27.092	0	577.014	0	20.3	4	6.4	4	-1E+10	1	-1E+10	1	-1E+10	1	-1E+10	1	-1E+10	1	-1E+10	1
4902549	113	C	09/30/2023	21:03	-133.150	47.694	0	587.70	0	3.9950	0	34.1260	0	27.096	0	581.959	0	19.8	4	6.2	4	-1E+10	1	-1E+10	1	-1E+10	1	-1E+10	1	-1E+10	1	-1E+10	1
4902549	113	C	09/30/2023	21:03	-133.150	47.694	0	592.70	0	3.9860	0	34.1290	0	27.099	0	586.903	0	19.5	4	6.2	4	-1E+10	1	-1E+10	1	-1E+10	1	-1E+10	1	-1E+10	1	-1E+10	1
4902549	113	C	09/30/2023	21:03	-133.150	47.694	0	597.70	0	3.9780	0	34.1320	0	27.102	0	591.847	0	19.2	4	6.1	4	-1E+10	1	-1E+10	1	-1E+10	1	-1E+10	1	-1E+10	1	-1E+10	1
4902549	113	C	09/30/2023	21:03	-133.150	47.694	0	602.60	0	3.9720	0	34.1340	0	27.105	0	596.692	0	18.9	4	6.0	4	-1E+10	1	-1E+10	1	-1E+10	1	-1E+10	1	-1E+10	1	-1E+10	1
4902549	113	C	09/30/2023	21:03	-133.150	47.694	0	607.60	0	3.9580	0	34.1390	0	27.110	0	601.635	0	18.5	4	5.8	4	-1E+10	1	-1E+10	1	-1E+10	1	-1E+10	1	-1E+10	1	-1E+10	1
4902549	113	C	09/30/2023	21:03	-133.150	47.694	0	612.50	0	3.9470	0	34.1430	0	27.114	0	606.480	0	18.1	4	5.7	4	-1E+10	1	-1E+10	1	-1E+10	1	-1E+10	1	-1E+10	1	-1E+10	1
4902549	113	C	09/30/2023	21:03	-133.150	47.694	0	617.60	0	3.9310	0	34.1480	0	27.120	0	611.523	0	17.7	4	5.6	4	-1E+10	1	-1E+10	1	-1E+10	1	-1E+10	1	-1E+10	1	-1E+10	1
4902549	113	C	09/30/2023	21:03	-133.150	47.694	0	622.60	0	3.9090	0	34.1530	0	27.126	0	616.466	0	17.3	4	5.4	4	-1E+10	1	-1E+10	1	-1E+10	1	-1E+10	1	-1E+10	1	-1E+10	1
4902549	113	C	09/30/2023	21:03	-133.150	47.694	0	627.70	0	3.8890	0	34.1560	0	27.131	0	621.508	0	16.9	4	5.3	4	-1E+10	1	-1E+10	1	-1E+10	1	-1E+10	1	-1E+10	1	-1E+10	1
4902549	113	C	09/30/2023	21:03	-133.150	47.694	0	633.00	0	3.8740	0	34.1620	0	27.137	0	626.748	0	16.7	4	5.2	4	-1E+10	1	-1E+10	1	-1E+10	1	-1E+10	1	-1E+10	1	-1E+10	1
4902549	113	C	09/30/2023	21:03	-133.150	47.694	0	637.80	0	3.8640	0	34.1650	0	27.140	0	631.493	0	16.4	4	5.2	4	-1E+10	1	-1E+10	1	-1E+10	1	-1E+10	1	-1E+10	1	-1E+10	1
4902549	113	C	09/30/2023	21:03	-133.150	47.694	0	642.90	0	3.8510	0	34.1680	0	27.144	0	636.535	0	16.1	4	5.1	4	-1E+10	1	-1E+10	1	-1E+10	1	-1E+10	1	-1E+10	1	-1E+10	1
4902549	113	C	09/30/2023	21:03	-133.150	47.694	0	648.20	0	3.8300	0	34.1730	0	27.150	0	641.774	0	15.8	4	5.0	4	-1E+10	1	-1E+10	1	-1E+10	1	-1E+10	1	-1E+10	1	-1E+10	1
4902549	113	C	09/30/2023	21:03	-133.150	47.694	0	653.20	0	3.8110	0	34.1770	0	27.155	0	646.717	0	15.4	4	4.8	4	-1E+10	1	-1E+10	1	-1E+10	1	-1E+10	1	-1E+10	1	-1E+10	1
4902549	113	C	09/30/2023	21:03	-133.150	47.694	0	657.90	0	3.8020	0	34.1810	0	27.160	0	651.363	0	15.1	4	4.7	4	-1E+10	1	-1E+10	1	-1E+10	1	-1E+10	1	-1E+10	1	-1E+10	1
4902549	113	C	09/30/2023	21:03	-133.150	47.694	0	662.70	0	3.7990	0	34.1840	0	27.162	0	656.108	0	14.8	4	4.6	4	-1E+10	1	-1E+10	1	-1E+10	1	-1E+10	1	-1E+10	1	-1E+10	1
4902549	113	C	09/30/2023	21:03	-133.150	47.694	0	667.70	0	3.7910	0	34.1870	0	27.165	0	661.050	0	14.4	4	4.5	4	-1E+10	1	-1E+10	1	-1E+10	1	-1E+10	1	-1E+10	1	-1E+10	1
4902549	113	C	09/30/2023	21:03	-133.150	47.694	0	672.70	0	3.7860	0	34.1920	0	27.170	0	665.992	0	14.1	4	4.4	4	-1E+10	1	-1E+10	1	-1E+10	1	-1E+10	1	-1E+10	1	-1E+10	1
4902549	113	C	09/30/2023	21:03	-133.150	47.694	0	677.80	0	3.7770	0	34.1940	0	27.172	0	671.033	0	13.8	4	4.3	4	-1E+10	1	-1E+10	1	-1E+10	1	-1E+10	1	-1E+10	1	-1E+10	1
4902549	113	C	09/30/2023	21:03	-133.150	47.694	0	683.00	0	3.7690	0	34.1980	0	27.177	0	676.173	0	13.3	4	4.2	4	-1E+10	1	-1E+10	1	-1E+10	1	-1E+10	1	-1E+10	1	-1E+10	1
4902549	113	C	09/30/2023	21:03	-133.150	47.694	0	688.30	0	3.7660	0	34.2020	0	27.180	0	681.411	0	12.8	4	4.0	4	-1E+10	1	-1E+10	1	-1E+10	1	-1E+10	1	-1E+10	1	-1E+10	1
4902549	113	C	09/30/2023	21:03	-133.150	47.694	0	693.30	0	3.7620	0	34.2070	0	27.184	0	686.353	0	12.4	4	3.9	4	-1E+10	1	-1E+10	1	-1E+10	1	-1E+10	1	-1E+10	1	-1E+10	1
4902549	113	C	09/30/2023	21:03	-133.150	47.694	0	697.90	0	3.7540	0	34.2110	0	27.188	0	690.899	0	12.1	4	3.8	4	-1E+10	1	-1E+10	1	-1E+10	1	-1E+10	1	-1E+10	1	-1E+10	1
4902549	113	C	09/30/2023	21:03	-133.150	47.694	0	702.50	0	3.7470	0	34.2140	0	27.192	0	695.446	0	12.0	4	3.8	4	-1E+10	1	-1E+10	1	-1E+10	1	-1E+10	1	-1E+10	1	-1E+10	1
4902549	113	C	09/30/2023	21:03	-133.150	47.694	0	707.80	0	3.7390	0	34.2160	0	27.194	0	700.683	0	11.9	4	3.7	4	-1E+10	1	-1E+10	1	-1E+10	1	-1E+10	1	-1E+10	1	-1E+10	1
4902549	113	C	09/30/2023	21:03	-133.150	47.694	0	713.10	0	3.7220	0	34.2190	0	27.198	0	705.921	0	11.8	4	3.7	4	-1E+10	1	-1E+10	1	-1E+10	1	-1E+10	1	-1E+10	1	-1E+10	1
4902549	113	C	09/30/2023	21:03	-133.150	47.694	0	718.00	0	3.7090	0	34.2220	0	27.202	0	710.763	0	11.5	4	3.6	4	-1E+10	1	-1E+10	1	-1E+10	1	-1E+10	1	-1E+10	1	-1E+10	1
4902549	113	C	09/30/2023	21:03	-133.150	47.694	0	723.00	0	3.7030	0	34.2250	0	27.205	0	715.705	0	11.3	4	3.5	4	-1E+10	1	-1E+10	1	-1E+10	1	-1E+10	1	-1E+10	1	-1E+10	1
4902549	113	C	09/30/2023	21:03	-133.150	47.694	0	727.90	0	3.6930	0	34.2270	0	27.207	0	720.547	0	11.0	4	3.4	4	-1E+10	1	-1E+10	1	-1E+10	1	-1E+10	1	-1E+10	1	-1E+10	1
4902549	113	C	09/30/2023	21:03	-133.150	47.694	0	732.90	0	3.6880	0	34.2310	0	27.211	0	725.487	0	10.8	4	3.4	4	-1E+10	1	-1E+10	1	-1E+10	1	-1E+10	1	-1E+10	1	-1E+10	1
4902549	113	C	09/30/2023	21:03	-133.150	47.694	0	737.90	0	3.6810	0	34.2340	0	27.214	0	730.428	0	10.6	4	3.3	4	-1E+10	1	-1E+10	1	-1E+10	1	-1E+10	1	-1E+10	1	-1E+10	1
4902549	113	C	09/30/2023	21:03	-133.150	47.694	0	742.90	0	3.6760	0	34.2360	0	27.216	0	735.369	0	10.5	4	3.3	4	-1E+10	1	-1E+10	1	-1E+10	1	-1E+10	1	-1E+10	1	-1E+10	1
4902549	113	C	09/30/2023	21:03	-133.150	47.694	0	747.90	0	3.6570	0	34.2380	0	27.220	0	740.309	0	10.1	4	3.2	4	-1E+10	1	-1E+10	1	-1E+10	1	-1E+10	1	-1E+10	1	-1E+10	1
4902549	113	C	09/30/2023	21:03	-133.150	47.694	0	752.90	0	3.6670	0	34.2410	0	27.221	0	745.249	0	9.7	4	3.0	4	-1E+10	1	-1E+10	1	-1E+10	1	-1E+10	1	-1E+10	1	-1E+10	1
4902549	113	C	09/30/2023	21:03	-133.150	47.694	0	758.00	0	3.6570	0	34.2450	0	27.226	0	750.288	0	9.5	4	3.0	4	-1E+10	1	-1E+10	1	-1E+10	1	-1E+10	1	-1E+10	1	-1E+10	1
4902549	113	C	09/30/2023	21:03	-133.150	47.694	0	763.10	0	3.6480	0	34.2470	0	27.228	0	755.327	0	9.4	4	2.9	4	-1E+10	1	-1E+10	1	-1E+10	1	-1E+10	1	-1E+10	1	-1E+10	1
4902549	113	C	09/30/2023	21:03	-133.150	47.694	0	768.20	0	3.6360	0	34.2500	0	27.232	0	760.366	0	9.2	4	2.9	4	-1E+10	1	-1E+10	1	-1E+10	1	-1E+10	1	-1E+10	1	-1E+10	1
4902549	113	C	09/30/2023	21:03	-133.150	47.694	0	772.70	0	3.6290	0	34.2520	0	27.234	0	764.812	0	9.1	4	2.8	4	-1E+10	1	-1E+10	1	-1E+10	1	-1E+10	1	-1E+10	1	-1E+10	1
4902549	113	C	09/30/2023	21:03	-133.150	47.694	0	777.80	0	3.6220	0	34.2540	0	27.236	0	769.851	0	8.9	4	2.8	4	-1E+10	1	-1E+10	1	-1E+10	1	-1E+10	1	-1E+10	1	-1E+10	1
4902549	113	C	09/30/2023	21:03	-133.150	47.694	0	782.80	0	3.6060	0	34.2580	0	27.241	0	774.790	0	8.7	4	2.7	4	-1E+10	1	-1E+10	1	-1E+10	1	-1E+10	1	-1E+10	1	-1E+10	1
4902549	113	C	09/30/2023	21:03	-133.150	47.694	0	787.80	0	3.5960	0	34.2610	0	27.244	0	779.730	0	8.5	4	2.7	4	-1E+10	1	-1E+10	1	-1E+10	1	-1E+10	1	-1E+10	1	-1E+10	1
4902549	113	C	09/30/2023	21:03	-133.150	47.694	0	792.80	0	3.5820	0	34.2650	0	27.249	0	784.669	0	8.4	4	2.6	4	-1E+10	1	-1E+10	1	-1E+10	1	-1E+10	1	-1E+10	1	-1E+10	1
4902549	113	C	09/30/2023	21:03	-133.150	47.694	0	797.80	0	3.5720	0	34.2680	0	27.252	0	789.608	0	8.2	4	2.6	4	-1E+10	1	-1E+10	1	-1E+10	1	-1E+10	1	-1E+10	1	-1E+10	1
4902549	113	C	09/30/2023	21:03	-133.150	47.694	0	802.70	0	3.5600	0	34.2720	0	27.257	0	794.449	0	8.0	4	2.5	4	-1E+10	1	-1E+10	1	-1E+10	1	-1E+10	1	-1E+10	1	-1E+10	1
4902549	113	C	09/30/2023	21:03	-133.150	47.694	0	807.60	0	3.5480	0	34.2750	0	27.260	0	799.289	0	8.0	4	2.5	4	-1E+10	1	-1E+10	1	-1E+10	1	-1E+10	1	-1E+10	1	-1E+10	1
4902549	113	C	09/30/2023	21:03	-133.150	47.694	0	812.90	0	3.5360	0	34.2780	0	27.264	0	804.524	0	7.8	4	2.4	4	-1E+10	1	-1E+10	1	-1E+10	1	-1E+10	1	-1E+10	1	-1E+10	1
4902549	113	C	09/30/2023	21:03	-133.150	47.694	0	818.20	0	3.5240	0	34.2830	0	27.269	0	809.759	0	7.5	4	2.4	4	-1E+10	1	-1E+10	1	-1E+10	1	-1E+10	1	-1E+10	1	-1E+10	1
4902549	113	C	09/30/2023	21:03	-133.150	47.694	0	823.00	0	3.5130	0	34.2870	0	27.273	0	814.500	0	7.4	4	2.3	4	-1E+10	1	-1E+10	1	-1E+10	1	-1E+10	1	-1E+10	1	-1E+10	1
4902549	113	C	09/30/2023	21:03	-133.150	47.694	0	827.80	0	3.5070	0	34.2900	0	27.276	0	819.241	0	7.2	4	2.3	4	-1E+10	1	-1E+10	1	-1E+10	1	-1E+10	1	-1E+10	1	-1E+10	1
4902549	113	C	09/30/2023	21:03	-133.150	47.694	0	833.10	0	3.4970	0	34.2930	0	27.280	0	824.476	0	7.1	4	2.2	4	-1E+10	1	-1E+10	1	-1E+10	1	-1E+10	1	-1E+10	1	-1E+10	1
4902549	113	C	09/30/2023	21:03	-133.150	47.694	0	837.90	0	3.4920	0	34.2950	0	27.282	0	829.217	0	7.0	4	2.2	4	-1E+10	1	-1E+10	1	-1E+10	1	-1E+10	1	-1E+10	1	-1E+10	1
4902549	113	C	09/30/2023	21:03	-133.150	47.694	0	842.60	0	3.4830	0	34.2990	0	27.286	0	833.859	0	6.9	4	2.2	4	-1E+10	1	-1E+10	1	-1E+10	1	-1E+10	1	-1E+10	1	-1E+10	1
4902549	113	C	09/30/2023	21:03	-133.150	47.694	0	847.80	0	3.4720	0	34.3010	0	27.289	0	838.995	0	6.9	4	2.1	4	-1E+10	1	-1E+10	1	-1E+10	1	-1E+10	1	-1E+10	1	-1E+10	1
4902549	113	C	09/30/2023	21:03	-133.150	47.694	0	852.90	0	3.4600	0	34.3040	0	27.292	0	844.031	0	6.8	4	2.1	4	-1E+10	1	-1E+10	1	-1E+10	1	-1E+10	1	-1E+10	1	-1E+10	1
4902549	113	C	09/30/2023	21:03	-133.150	47.694	0	858.10	0	3.4480	0	34.3080	0	27.297	0	849.167	0	6.7	4	2.1	4	-1E+10	1	-1E+10	1	-1E+10	1	-1E+10	1	-1E+10	1	-1E+10	1
4902549	113	C	09/30/2023	21:03	-133.150	47.694	0	863.20	0	3.4440	0	34.3100	0	27.299	0	854.203	0	6.6	4	2.1	4	-1E+10	1	-1E+10	1	-1E+10	1	-1E+10	1	-1E+10	1	-1E+10	1
4902549	113	C	09/30/2023	21:03	-133.150	47.694	0	868.30	0	3.4340	0	34.3130	0	27.302	0	859.240	0	6.5	4	2.0	4	-1E+10	1	-1E+10	1	-1E+10	1	-1E+10	1	-1E+10	1	-1E+10	1
4902549	113	C	09/30/2023	21:03	-133.150	47.694	0	873.40	0	3.4250	0	34.3170	0	27.306	0	864.276	0	6.4	4	2.0	4	-1E+10	1	-1E+10	1	-1E+10	1	-1E+10	1	-1E+10	1	-1E+10	1
4902549	113	C	09/30/2023	21:03	-133.150	47.694	0	877.90	0	3.4200	0	34.3200	0	27.309	0	868.719	0	6.3	4	2.0	4	-1E+10	1	-1E+10	1	-1E+10	1	-1E+10	1	-1E+10	1	-1E+10	1
4902549	113	C	09/30/2023	21:03	-133.150	47.694	0	882.50	0	3.4120	0	34.3250	0	27.314	0	873.262	0	6.2	4	1.9	4	-1E+10	1	-1E+10	1	-1E+10	1	-1E+10	1	-1E+10	1	-1E+10	1
4902549	113	C	09/30/2023	21:03	-133.150	47.694	0	887.60	0	3.4150	0	34.3290	0	27.317	0	878.298	0	6.2	4	1.9	4	-1E+10	1	-1E+10	1	-1E+10	1	-1E+10	1	-1E+10	1	-1E+10	1
4902549	113	C	09/30/2023	21:03	-133.150	47.694	0	893.00	0	3.4030	0	34.3320	0	27.320	0	883.630	0	6.1	4	1.9	4	-1E+10	1	-1E+10	1	-1E+10	1	-1E+10	1	-1E+10	1	-1E+10	1
4902549	113	C	09/30/2023	21:03	-133.150	47.694	0	898.20	0	3.3990	0	34.3370	0	27.325	0	888.764	0	6.1	4	1.9	4	-1E+10	1	-1E+10	1	-1E+10	1	-1E+10	1	-1E+10	1	-1E+10	1
4902549	113	C	09/30/2023	21:03	-133.150	47.694	0	903.10	0	3.3920	0	34.3410	0	27.329	0	893.602	0	6.1	4	1.9	4	-1E+10	1	-1E+10	1	-1E+10	1	-1E+10	1	-1E+10	1	-1E+10	1
4902549	113	C	09/30/2023	21:03	-133.150	47.694	0	908.00	0	3.3790	0	34.3430	0	27.331	0	898.440	0	6.1	4	1.9	4	-1E+10	1	-1E+10	1	-1E+10	1	-1E+10	1	-1E+10	1	-1E+10	1
4902549	113	C	09/30/2023	21:03	-133.150	47.694	0	913.00	0	3.3710	0	34.3470	0	27.335	0	903.377	0	6.1	4	1.9	4	-1E+10	1	-1E+10	1	-1E+10	1	-1E+10	1	-1E+10	1	-1E+10	1
4902549	113	C	09/30/2023	21:03	-133.150	47.694	0	918.10	0	3.3620	0	34.3490	0	27.338	0	908.412	0	6.1	4	1.9	4	-1E+10	1	-1E+10	1	-1E+10	1	-1E+10	1	-1E+10	1	-1E+10	1
4902549	113	C	09/30/2023	21:03	-133.150	47.694	0	922.90	0	3.3490	0	34.3510	0	27.341	0	913.151	0	6.2	4	1.9	4	-1E+10	1	-1E+10	1	-1E+10	1	-1E+10	1	-1E+10	1	-1E+10	1
4902549	113	C	09/30/2023	21:03	-133.150	47.694	0	927.90	0	3.3250	0	34.3520	0	27.344	0	918.087	0	6.3	4	1.9	4	-1E+10	1	-1E+10	1	-1E+10	1	-1E+10	1	-1E+10	1	-1E+10	1
4902549	113	C	09/30/2023	21:03	-133.150	47.694	0	932.90	0	3.3150	0	34.3540	0	27.346	0	923.023	0	6.3	4	2.0	4	-1E+10	1	-1E+10	1	-1E+10	1	-1E+10	1	-1E+10	1	-1E+10	1
4902549	113	C	09/30/2023	21:03	-133.150	47.694	0	937.60	0	3.3090	0	34.3560	0	27.349	0	927.663	0	6.4	4	2.0	4	-1E+10	1	-1E+10	1	-1E+10	1	-1E+10	1	-1E+10	1	-1E+10	1
4902549	113	C	09/30/2023	21:03	-133.150	47.694	0	942.60	0	3.2920	0	34.3570	0	27.351	0	932.599	0	6.4	4	2.0	4	-1E+10	1	-1E+10	1	-1E+10	1	-1E+10	1	-1E+10	1	-1E+10	1
4902549	113	C	09/30/2023	21:03	-133.150	47.694	0	947.90	0	3.2780	0	34.3570	0	27.352	0	937.831	0	6.5	4	2.0	4	-1E+10	1	-1E+10	1	-1E+10	1	-1E+10	1	-1E+10	1	-1E+10	1
4902549	113	C	09/30/2023	21:03	-133.150	47.694	0	953.10	0	3.2580	0	34.3570	0	27.354	0	942.964	0	6.5	4	2.0	4	-1E+10	1	-1E+10	1	-1E+10	1	-1E+10	1	-1E+10	1	-1E+10	1
4902549	113	C	09/30/2023	21:03	-133.150	47.694	0	957.80	0	3.2490	0	34.3580	0	27.356	0	947.603	0	6.5	4	2.0	4	-1E+10	1	-1E+10	1	-1E+10	1	-1E+10	1	-1E+10	1	-1E+10	1
4902549	113	C	09/30/2023	21:03	-133.150	47.694	0	962.70	0	3.2630	0	34.3640	0	27.359	0	952.440	0	6.5	4	2.0	4	-1E+10	1	-1E+10	1	-1E+10	1	-1E+10	1	-1E+10	1	-1E+10	1
4902549	113	C	09/30/2023	21:03	-133.150	47.694	0	967.90	0	3.2250	0	34.3620	0	27.361	0	957.573	0	6.6	4	2.0	4	-1E+10	1	-1E+10	1	-1E+10	1	-1E+10	1	-1E+10	1	-1E+10	1
4902549	113	C	09/30/2023	21:03	-133.150	47.694	0	973.20	0	3.2110	0	34.3650	0	27.365	0	962.804	0	6.6	4	2.0	4	-1E+10	1	-1E+10	1	-1E+10	1	-1E+10	1	-1E+10	1	-1E+10	1
4902549	113	C	09/30/2023	21:03	-133.150	47.694	0	978.20	0	3.2120	0	34.3670	0	27.367	0	967.739	0	6.6	4	2.0	4	-1E+10	1	-1E+10	1	-1E+10	1	-1E+10	1	-1E+10	1	-1E+10	1
4902549	113	C	09/30/2023	21:03	-133.150	47.694	0	983.20	0	3.2130	0	34.3690	0	27.368	0	972.674	0	6.6	4	2.1	4	-1E+10	1	-1E+10	1	-1E+10	1	-1E+10	1	-1E+10	1	-1E+10	1
4902549	113	C	09/30/2023	21:03	-133.150	47.694	0	988.00	0	3.2050	0	34.3690	0	27.369	0	977.411	0	6.7	4	2.1	4	-1E+10	1	-1E+10	1	-1E+10	1	-1E+10	1	-1E+10	1	-1E+10	1
4902549	113	C	09/30/2023	21:03	-133.150	47.694	0	992.70	0	3.1870	0	34.3700	0	27.371	0	982.050	0	6.7	4	2.1	4	-1E+10	1	-1E+10	1	-1E+10	1	-1E+10	1	-1E+10	1	-1E+10	1
4902549	113	C	09/30/2023	21:03	-133.150	47.694	0	998.00	0	3.1800	0	34.3710	0	27.373	0	987.280	0	6.9	4	2.1	4	-1E+10	1	-1E+10	1	-1E+10	1	-1E+10	1	-1E+10	1	-1E+10	1
4902549	113	C	09/30/2023	21:03	-133.150	47.694	0	1005.60	0	3.1360	0	34.3680	0	27.375	0	994.781	0	6.9	4	2.1	4	-1E+10	1	-1E+10	1	-1E+10	1	-1E+10	1	-1E+10	1	-1E+10	1
4902549	113	C	09/30/2023	21:03	-133.150	47.694	0	1015.60	0	3.1300	0	34.3740	0	27.380	0	1004.649	0	6.9	4	2.1	4	-1E+10	1	-1E+10	1	-1E+10	1	-1E+10	1	-1E+10	1	-1E+10	1
4902549	113	C	09/30/2023	21:03	-133.150	47.694	0	1025.70	0	3.1180	0	34.3780	0	27.384	0	1014.616	0	6.9	4	2.1	4	-1E+10	1	-1E+10	1	-1E+10	1	-1E+10	1	-1E+10	1	-1E+10	1
4902549	113	C	09/30/2023	21:03	-133.150	47.694	0	1035.70	0	3.1080	0	34.3810	0	27.388	0	1024.483	0	6.9	4	2.2	4	-1E+10	1	-1E+10	1	-1E+10	1	-1E+10	1	-1E+10	1	-1E+10	1
4902549	113	C	09/30/2023	21:03	-133.150	47.694	0	1045.70	0	3.0870	0	34.3840	0	27.392	0	1034.350	0	7.0	4	2.2	4	-1E+10	1	-1E+10	1	-1E+10	1	-1E+10	1	-1E+10	1	-1E+10	1
4902549	113	C	09/30/2023	21:03	-133.150	47.694	0	1055.70	0	3.0620	0	34.3870	0	27.397	0	1044.217	0	7.1	4	2.2	4	-1E+10	1	-1E+10	1	-1E+10	1	-1E+10	1	-1E+10	1	-1E+10	1
4902549	113	C	09/30/2023	21:03	-133.150	47.694	0	1065.50	0	3.0400	0	34.3890	0	27.400	0	1053.886	0	7.2	4	2.2	4	-1E+10	1	-1E+10	1	-1E+10	1	-1E+10	1	-1E+10	1	-1E+10	1
4902549	113	C	09/30/2023	21:03	-133.150	47.694	0	1075.20	0	3.0230	0	34.3900	0	27.403	0	1063.455	0	7.3	4	2.2	4	-1E+10	1	-1E+10	1	-1E+10	1	-1E+10	1	-1E+10	1	-1E+10	1
4902549	113	C	09/30/2023	21:03	-133.150	47.694	0	1085.40	0	3.0020	0	34.3930	0	27.407	0	1073.518	0	7.3	4	2.3	4	-1E+10	1	-1E+10	1	-1E+10	1	-1E+10	1	-1E+10	1	-1E+10	1
4902549	113	C	09/30/2023	21:03	-133.150	47.694	0	1095.20	0	2.9870	0	34.3950	0	27.410	0	1083.185	0	7.4	4	2.3	4	-1E+10	1	-1E+10	1	-1E+10	1	-1E+10	1	-1E+10	1	-1E+10	1
4902549	113	C	09/30/2023	21:03	-133.150	47.694	0	1105.20	0	2.9710	0	34.3990	0	27.415	0	1093.050	0	7.5	4	2.3	4	-1E+10	1	-1E+10	1	-1E+10	1	-1E+10	1	-1E+10	1	-1E+10	1
4902549	113	C	09/30/2023	21:03	-133.150	47.694	0	1115.20	0	2.9610	0	34.4010	0	27.417	0	1102.914	0	7.6	4	2.3	4	-1E+10	1	-1E+10	1	-1E+10	1	-1E+10	1	-1E+10	1	-1E+10	1
4902549	113	C	09/30/2023	21:03	-133.150	47.694	0	1125.40	0	2.9480	0	34.4050	0	27.422	0	1112.974	0	7.7	4	2.4	4	-1E+10	1	-1E+10	1	-1E+10	1	-1E+10	1	-1E+10	1	-1E+10	1
4902549	113	C	09/30/2023	21:03	-133.150	47.694	0	1135.60	0	2.9420	0	34.4070	0	27.424	0	1123.034	0	7.8	4	2.4	4	-1E+10	1	-1E+10	1	-1E+10	1	-1E+10	1	-1E+10	1	-1E+10	1
4902549	113	C	09/30/2023	21:03	-133.150	47.694	0	1145.40	0	2.9290	0	34.4110	0	27.428	0	1132.699	0	8.0	4	2.5	4	-1E+10	1	-1E+10	1	-1E+10	1	-1E+10	1	-1E+10	1	-1E+10	1
4902549	113	C	09/30/2023	21:03	-133.150	47.694	0	1155.20	0	2.9140	0	34.4140	0	27.432	0	1142.364	0	8.1	4	2.5	4	-1E+10	1	-1E+10	1	-1E+10	1	-1E+10	1	-1E+10	1	-1E+10	1
4902549	113	C	09/30/2023	21:03	-133.150	47.694	0	1165.30	0	2.8870	0	34.4170	0	27.437	0	1152.324	0	8.3	4	2.5	4	-1E+10	1	-1E+10	1	-1E+10	1	-1E+10	1	-1E+10	1	-1E+10	1
4902549	113	C	09/30/2023	21:03	-133.150	47.694	0	1175.60	0	2.8500	0	34.4160	0	27.440	0	1162.481	0	8.4	4	2.6	4	-1E+10	1	-1E+10	1	-1E+10	1	-1E+10	1	-1E+10	1	-1E+10	1
4902549	113	C	09/30/2023	21:03	-133.150	47.694	0	1185.40	0	2.8380	0	34.4190	0	27.443	0	1172.144	0	8.6	4	2.7	4	-1E+10	1	-1E+10	1	-1E+10	1	-1E+10	1	-1E+10	1	-1E+10	1
4902549	113	C	09/30/2023	21:03	-133.150	47.694	0	1195.40	0	2.8350	0	34.4240	0	27.447	0	1182.005	0	8.9	4	2.7	4	-1E+10	1	-1E+10	1	-1E+10	1	-1E+10	1	-1E+10	1	-1E+10	1
4902549	113	C	09/30/2023	21:03	-133.150	47.694	0	1205.50	0	2.8270	0	34.4270	0	27.451	0	1191.963	0	9.0	4	2.8	4	-1E+10	1	-1E+10	1	-1E+10	1	-1E+10	1	-1E+10	1	-1E+10	1
4902549	113	C	09/30/2023	21:03	-133.150	47.694	0	1215.70	0	2.7940	0	34.4280	0	27.454	0	1202.019	0	9.3	4	2.9	4	-1E+10	1	-1E+10	1	-1E+10	1	-1E+10	1	-1E+10	1	-1E+10	1
4902549	113	C	09/30/2023	21:03	-133.150	47.694	0	1225.40	0	2.7860	0	34.4370	0	27.462	0	1211.582	0	9.7	4	3.0	4	-1E+10	1	-1E+10	1	-1E+10	1	-1E+10	1	-1E+10	1	-1E+10	1
4902549	113	C	09/30/2023	21:03	-133.150	47.694	0	1235.40	0	2.7520	0	34.4370	0	27.465	0	1221.440	0	9.8	4	3.0	4	-1E+10	1	-1E+10	1	-1E+10	1	-1E+10	1	-1E+10	1	-1E+10	1
4902549	113	C	09/30/2023	21:03	-133.150	47.694	0	1246.00	0	2.7550	0	34.4420	0	27.469	0	1231.889	0	10.0	4	3.1	4	-1E+10	1	-1E+10	1	-1E+10	1	-1E+10	1	-1E+10	1	-1E+10	1
4902549	113	C	09/30/2023	21:03	-133.150	47.694	0	1255.40	0	2.7380	0	34.4420	0	27.471	0	1241.155	0	10.1	4	3.1	4	-1E+10	1	-1E+10	1	-1E+10	1	-1E+10	1	-1E+10	1	-1E+10	1
4902549	113	C	09/30/2023	21:03	-133.150	47.694	0	1265.10	0	2.7120	0	34.4430	0	27.474	0	1250.716	0	10.3	4	3.2	4	-1E+10	1	-1E+10	1	-1E+10	1	-1E+10	1	-1E+10	1	-1E+10	1
4902549	113	C	09/30/2023	21:03	-133.150	47.694	0	1275.00	0	2.6960	0	34.4460	0	27.478	0	1260.474	0	10.6	4	3.3	4	-1E+10	1	-1E+10	1	-1E+10	1	-1E+10	1	-1E+10	1	-1E+10	1
4902549	113	C	09/30/2023	21:03	-133.150	47.694	0	1285.10	0	2.6930	0	34.4500	0	27.481	0	1270.429	0	11.1	4	3.4	4	-1E+10	1	-1E+10	1	-1E+10	1	-1E+10	1	-1E+10	1	-1E+10	1
4902549	113	C	09/30/2023	21:03	-133.150	47.694	0	1295.40	0	2.6880	0	34.4530	0	27.484	0	1280.580	0	11.4	4	3.5	4	-1E+10	1	-1E+10	1	-1E+10	1	-1E+10	1	-1E+10	1	-1E+10	1
4902549	113	C	09/30/2023	21:03	-133.150	47.694	0	1305.60	0	2.6900	0	34.4570	0	27.487	0	1290.632	0	11.8	4	3.6	4	-1E+10	1	-1E+10	1	-1E+10	1	-1E+10	1	-1E+10	1	-1E+10	1
4902549	113	C	09/30/2023	21:03	-133.150	47.694	0	1315.60	0	2.6480	0	34.4580	0	27.491	0	1300.486	0	12.0	4	3.7	4	-1E+10	1	-1E+10	1	-1E+10	1	-1E+10	1	-1E+10	1	-1E+10	1
4902549	113	C	09/30/2023	21:03	-133.150	47.694	0	1325.30	0	2.6330	0	34.4600	0	27.494	0	1310.045	0	12.4	4	3.8	4	-1E+10	1	-1E+10	1	-1E+10	1	-1E+10	1	-1E+10	1	-1E+10	1
4902549	113	C	09/30/2023	21:03	-133.150	47.694	0	1335.20	0	2.6210	0	34.4640	0	27.499	0	1319.800	0	12.9	4	4.0	4	-1E+10	1	-1E+10	1	-1E+10	1	-1E+10	1	-1E+10	1	-1E+10	1
4902549	113	C	09/30/2023	21:03	-133.150	47.694	0	1345.40	0	2.6030	0	34.4670	0	27.503	0	1329.850	0	13.2	4	4.0	4	-1E+10	1	-1E+10	1	-1E+10	1	-1E+10	1	-1E+10	1	-1E+10	1
4902549	113	C	09/30/2023	21:03	-133.150	47.694	0	1355.50	0	2.5940	0	34.4680	0	27.504	0	1339.801	0	13.6	4	4.2	4	-1E+10	1	-1E+10	1	-1E+10	1	-1E+10	1	-1E+10	1	-1E+10	1
4902549	113	C	09/30/2023	21:03	-133.150	47.694	0	1365.70	0	2.5820	0	34.4720	0	27.509	0	1349.850	0	14.1	4	4.3	4	-1E+10	1	-1E+10	1	-1E+10	1	-1E+10	1	-1E+10	1	-1E+10	1
4902549	113	C	09/30/2023	21:03	-133.150	47.694	0	1375.50	0	2.5680	0	34.4740	0	27.511	0	1359.505	0	14.5	4	4.4	4	-1E+10	1	-1E+10	1	-1E+10	1	-1E+10	1	-1E+10	1	-1E+10	1
4902549	113	C	09/30/2023	21:03	-133.150	47.694	0	1385.50	0	2.5600	0	34.4760	0	27.514	0	1369.356	0	15.1	4	4.6	4	-1E+10	1	-1E+10	1	-1E+10	1	-1E+10	1	-1E+10	1	-1E+10	1
4902549	113	C	09/30/2023	21:03	-133.150	47.694	0	1395.40	0	2.5480	0	34.4800	0	27.518	0	1379.109	0	15.9	4	4.9	4	-1E+10	1	-1E+10	1	-1E+10	1	-1E+10	1	-1E+10	1	-1E+10	1
4902549	113	C	09/30/2023	21:03	-133.150	47.694	0	1405.50	0	2.5400	0	34.4850	0	27.523	0	1389.058	0	16.7	4	5.1	4	-1E+10	1	-1E+10	1	-1E+10	1	-1E+10	1	-1E+10	1	-1E+10	1
4902549	113	C	09/30/2023	21:03	-133.150	47.694	0	1415.60	0	2.5340	0	34.4890	0	27.527	0	1399.006	0	17.3	4	5.3	4	-1E+10	1	-1E+10	1	-1E+10	1	-1E+10	1	-1E+10	1	-1E+10	1
4902549	113	C	09/30/2023	21:03	-133.150	47.694	0	1425.50	0	2.5260	0	34.4900	0	27.528	0	1408.757	0	17.4	4	5.3	4	-1E+10	1	-1E+10	1	-1E+10	1	-1E+10	1	-1E+10	1	-1E+10	1
4902549	113	C	09/30/2023	21:03	-133.150	47.694	0	1435.60	0	2.5080	0	34.4910	0	27.530	0	1418.704	0	17.8	4	5.4	4	-1E+10	1	-1E+10	1	-1E+10	1	-1E+10	1	-1E+10	1	-1E+10	1
4902549	113	C	09/30/2023	21:03	-133.150	47.694	0	1445.30	0	2.5050	0	34.4930	0	27.532	0	1428.257	0	18.2	4	5.6	4	-1E+10	1	-1E+10	1	-1E+10	1	-1E+10	1	-1E+10	1	-1E+10	1
4902549	113	C	09/30/2023	21:03	-133.150	47.694	0	1455.10	0	2.5000	0	34.4950	0	27.534	0	1437.908	0	18.5	4	5.7	4	-1E+10	1	-1E+10	1	-1E+10	1	-1E+10	1	-1E+10	1	-1E+10	1
4902549	113	C	09/30/2023	21:03	-133.150	47.694	0	1465.20	0	2.4750	0	34.4950	0	27.537	0	1447.855	0	18.6	4	5.7	4	-1E+10	1	-1E+10	1	-1E+10	1	-1E+10	1	-1E+10	1	-1E+10	1
4902549	113	C	09/30/2023	21:03	-133.150	47.694	0	1475.30	0	2.4560	0	34.4960	0	27.539	0	1457.800	0	19.3	4	5.9	4	-1E+10	1	-1E+10	1	-1E+10	1	-1E+10	1	-1E+10	1	-1E+10	1
4902549	113	C	09/30/2023	21:03	-133.150	47.694	0	1485.30	0	2.4600	0	34.5010	0	27.543	0	1467.647	0	19.8	4	6.0	4	-1E+10	1	-1E+10	1	-1E+10	1	-1E+10	1	-1E+10	1	-1E+10	1
4902549	113	C	09/30/2023	21:03	-133.150	47.694	0	1495.40	0	2.4340	0	34.5010	0	27.545	0	1477.592	0	19.9	4	6.1	4	-1E+10	1	-1E+10	1	-1E+10	1	-1E+10	1	-1E+10	1	-1E+10	1
4902549	113	C	09/30/2023	21:03	-133.150	47.694	0	1505.60	0	2.4110	0	34.5010	0	27.547	0	1487.634	0	20.3	4	6.2	4	-1E+10	1	-1E+10	1	-1E+10	1	-1E+10	1	-1E+10	1	-1E+10	1
4902549	113	C	09/30/2023	21:03	-133.150	47.694	0	1515.70	0	2.3950	0	34.5040	0	27.551	0	1497.578	0	21.0	4	6.4	4	-1E+10	1	-1E+10	1	-1E+10	1	-1E+10	1	-1E+10	1	-1E+10	1
4902549	113	C	09/30/2023	21:03	-133.150	47.694	0	1525.40	0	2.3850	0	34.5070	0	27.554	0	1507.127	0	22.0	4	6.7	4	-1E+10	1	-1E+10	1	-1E+10	1	-1E+10	1	-1E+10	1	-1E+10	1
4902549	113	C	09/30/2023	21:03	-133.150	47.694	0	1535.20	0	2.3780	0	34.5100	0	27.557	0	1516.775	0	22.6	4	6.9	4	-1E+10	1	-1E+10	1	-1E+10	1	-1E+10	1	-1E+10	1	-1E+10	1
4902549	113	C	09/30/2023	21:03	-133.150	47.694	0	1545.40	0	2.3680	0	34.5120	0	27.559	0	1526.816	0	23.0	4	7.0	4	-1E+10	1	-1E+10	1	-1E+10	1	-1E+10	1	-1E+10	1	-1E+10	1
4902549	113	C	09/30/2023	21:03	-133.150	47.694	0	1555.60	0	2.3530	0	34.5130	0	27.562	0	1536.856	0	23.4	4	7.1	4	-1E+10	1	-1E+10	1	-1E+10	1	-1E+10	1	-1E+10	1	-1E+10	1
4902549	113	C	09/30/2023	21:03	-133.150	47.694	0	1565.10	0	2.3430	0	34.5140	0	27.563	0	1546.207	0	23.9	4	7.3	4	-1E+10	1	-1E+10	1	-1E+10	1	-1E+10	1	-1E+10	1	-1E+10	1
4902549	113	C	09/30/2023	21:03	-133.150	47.694	0	1575.20	0	2.3300	0	34.5150	0	27.565	0	1556.148	0	24.2	4	7.3	4	-1E+10	1	-1E+10	1	-1E+10	1	-1E+10	1	-1E+10	1	-1E+10	1
4902549	113	C	09/30/2023	21:03	-133.150	47.694	0	1585.30	0	2.3110	0	34.5170	0	27.568	0	1566.088	0	24.9	4	7.6	4	-1E+10	1	-1E+10	1	-1E+10	1	-1E+10	1	-1E+10	1	-1E+10	1
4902549	113	C	09/30/2023	21:03	-133.150	47.694	0	1595.20	0	2.2970	0	34.5190	0	27.571	0	1575.831	0	25.5	4	7.7	4	-1E+10	1	-1E+10	1	-1E+10	1	-1E+10	1	-1E+10	1	-1E+10	1
4902549	113	C	09/30/2023	21:03	-133.150	47.694	0	1605.20	0	2.2780	0	34.5220	0	27.575	0	1585.672	0	26.2	4	7.9	4	-1E+10	1	-1E+10	1	-1E+10	1	-1E+10	1	-1E+10	1	-1E+10	1
4902549	113	C	09/30/2023	21:03	-133.150	47.694	0	1615.40	0	2.2640	0	34.5240	0	27.578	0	1595.710	0	26.9	4	8.2	4	-1E+10	1	-1E+10	1	-1E+10	1	-1E+10	1	-1E+10	1	-1E+10	1
4902549	113	C	09/30/2023	21:03	-133.150	47.694	0	1625.70	0	2.2470	0	34.5260	0	27.581	0	1605.845	0	27.7	4	8.4	4	-1E+10	1	-1E+10	1	-1E+10	1	-1E+10	1	-1E+10	1	-1E+10	1
4902549	113	C	09/30/2023	21:03	-133.150	47.694	0	1635.60	0	2.2370	0	34.5280	0	27.583	0	1615.587	0	28.4	4	8.6	4	-1E+10	1	-1E+10	1	-1E+10	1	-1E+10	1	-1E+10	1	-1E+10	1
4902549	113	C	09/30/2023	21:03	-133.150	47.694	0	1645.70	0	2.2230	0	34.5310	0	27.587	0	1625.524	0	29.4	4	8.9	4	-1E+10	1	-1E+10	1	-1E+10	1	-1E+10	1	-1E+10	1	-1E+10	1
4902549	113	C	09/30/2023	21:03	-133.150	47.694	0	1655.50	0	2.2050	0	34.5340	0	27.591	0	1635.167	0	30.3	4	9.2	4	-1E+10	1	-1E+10	1	-1E+10	1	-1E+10	1	-1E+10	1	-1E+10	1
4902549	113	C	09/30/2023	21:03	-133.150	47.694	0	1665.00	0	2.1830	0	34.5370	0	27.595	0	1644.513	0	31.3	4	9.5	4	-1E+10	1	-1E+10	1	-1E+10	1	-1E+10	1	-1E+10	1	-1E+10	1
4902549	113	C	09/30/2023	21:03	-133.150	47.694	0	1674.90	0	2.1700	0	34.5390	0	27.598	0	1654.253	0	31.9	4	9.7	4	-1E+10	1	-1E+10	1	-1E+10	1	-1E+10	1	-1E+10	1	-1E+10	1
4902549	113	C	09/30/2023	21:03	-133.150	47.694	0	1685.30	0	2.1600	0	34.5410	0	27.600	0	1664.484	0	32.5	4	9.8	4	-1E+10	1	-1E+10	1	-1E+10	1	-1E+10	1	-1E+10	1	-1E+10	1
4902549	113	C	09/30/2023	21:03	-133.150	47.694	0	1695.20	0	2.1480	0	34.5430	0	27.603	0	1674.222	0	33.0	4	10.0	4	-1E+10	1	-1E+10	1	-1E+10	1	-1E+10	1	-1E+10	1	-1E+10	1
4902549	113	C	09/30/2023	21:03	-133.150	47.694	0	1705.10	0	2.1430	0	34.5430	0	27.603	0	1683.960	0	33.4	4	10.1	4	-1E+10	1	-1E+10	1	-1E+10	1	-1E+10	1	-1E+10	1	-1E+10	1
4902549	113	C	09/30/2023	21:03	-133.150	47.694	0	1715.40	0	2.1350	0	34.5450	0	27.606	0	1694.092	0	34.0	4	10.3	4	-1E+10	1	-1E+10	1	-1E+10	1	-1E+10	1	-1E+10	1	-1E+10	1
4902549	113	C	09/30/2023	21:03	-133.150	47.694	0	1725.70	0	2.1290	0	34.5460	0	27.607	0	1704.222	0	34.4	4	10.4	4	-1E+10	1	-1E+10	1	-1E+10	1	-1E+10	1	-1E+10	1	-1E+10	1
4902549	113	C	09/30/2023	21:03	-133.150	47.694	0	1735.50	0	2.1250	0	34.5470	0	27.608	0	1713.861	0	35.0	4	10.6	4	-1E+10	1	-1E+10	1	-1E+10	1	-1E+10	1	-1E+10	1	-1E+10	1
4902549	113	C	09/30/2023	21:03	-133.150	47.694	0	1745.50	0	2.1130	0	34.5490	0	27.611	0	1723.696	0	35.8	4	10.8	4	-1E+10	1	-1E+10	1	-1E+10	1	-1E+10	1	-1E+10	1	-1E+10	1
4902549	113	C	09/30/2023	21:03	-133.150	47.694	0	1755.70	0	2.1050	0	34.5510	0	27.613	0	1733.726	0	36.2	4	11.0	4	-1E+10	1	-1E+10	1	-1E+10	1	-1E+10	1	-1E+10	1	-1E+10	1
4902549	113	C	09/30/2023	21:03	-133.150	47.694	0	1765.80	0	2.1010	0	34.5520	0	27.614	0	1743.659	0	36.6	4	11.1	4	-1E+10	1	-1E+10	1	-1E+10	1	-1E+10	1	-1E+10	1	-1E+10	1
4902549	113	C	09/30/2023	21:03	-133.150	47.694	0	1775.50	0	2.0970	0	34.5520	0	27.615	0	1753.197	0	37.1	4	11.2	4	-1E+10	1	-1E+10	1	-1E+10	1	-1E+10	1	-1E+10	1	-1E+10	1
4902549	113	C	09/30/2023	21:03	-133.150	47.694	0	1785.20	0	2.0880	0	34.5540	0	27.617	0	1762.735	0	37.6	4	11.4	4	-1E+10	1	-1E+10	1	-1E+10	1	-1E+10	1	-1E+10	1	-1E+10	1
4902549	113	C	09/30/2023	21:03	-133.150	47.694	0	1795.40	0	2.0800	0	34.5550	0	27.618	0	1772.764	0	38.0	4	11.5	4	-1E+10	1	-1E+10	1	-1E+10	1	-1E+10	1	-1E+10	1	-1E+10	1
4902549	113	C	09/30/2023	21:03	-133.150	47.694	0	1805.70	0	2.0780	0	34.5560	0	27.619	0	1782.891	0	38.2	4	11.6	4	-1E+10	1	-1E+10	1	-1E+10	1	-1E+10	1	-1E+10	1	-1E+10	1
4902549	113	C	09/30/2023	21:03	-133.150	47.694	0	1815.60	0	2.0750	0	34.5560	0	27.620	0	1792.624	0	38.8	4	11.7	4	-1E+10	1	-1E+10	1	-1E+10	1	-1E+10	1	-1E+10	1	-1E+10	1
4902549	113	C	09/30/2023	21:03	-133.150	47.694	0	1825.20	0	2.0630	0	34.5580	0	27.622	0	1802.062	0	39.5	4	11.9	4	-1E+10	1	-1E+10	1	-1E+10	1	-1E+10	1	-1E+10	1	-1E+10	1
4902549	113	C	09/30/2023	21:03	-133.150	47.694	0	1835.30	0	2.0570	0	34.5600	0	27.624	0	1811.991	0	39.9	4	12.0	4	-1E+10	1	-1E+10	1	-1E+10	1	-1E+10	1	-1E+10	1	-1E+10	1
4902549	113	C	09/30/2023	21:03	-133.150	47.694	0	1845.40	0	2.0520	0	34.5600	0	27.625	0	1821.919	0	40.5	4	12.2	4	-1E+10	1	-1E+10	1	-1E+10	1	-1E+10	1	-1E+10	1	-1E+10	1
4902549	113	C	09/30/2023	21:03	-133.150	47.694	0	1855.50	0	2.0420	0	34.5620	0	27.627	0	1831.847	0	41.2	4	12.4	4	-1E+10	1	-1E+10	1	-1E+10	1	-1E+10	1	-1E+10	1	-1E+10	1
4902549	113	C	09/30/2023	21:03	-133.150	47.694	0	1865.70	0	2.0340	0	34.5630	0	27.629	0	1841.873	0	41.8	4	12.6	4	-1E+10	1	-1E+10	1	-1E+10	1	-1E+10	1	-1E+10	1	-1E+10	1
4902549	113	C	09/30/2023	21:03	-133.150	47.694	0	1875.30	0	2.0240	0	34.5650	0	27.631	0	1851.309	0	42.5	4	12.8	4	-1E+10	1	-1E+10	1	-1E+10	1	-1E+10	1	-1E+10	1	-1E+10	1
4902549	113	C	09/30/2023	21:03	-133.150	47.694	0	1885.30	0	2.0180	0	34.5670	0	27.633	0	1861.137	0	42.9	4	12.9	4	-1E+10	1	-1E+10	1	-1E+10	1	-1E+10	1	-1E+10	1	-1E+10	1
4902549	113	C	09/30/2023	21:03	-133.150	47.694	0	1895.20	0	2.0160	0	34.5670	0	27.634	0	1870.867	0	43.2	4	13.0	4	-1E+10	1	-1E+10	1	-1E+10	1	-1E+10	1	-1E+10	1	-1E+10	1
4902549	113	C	09/30/2023	21:03	-133.150	47.694	0	1905.20	0	2.0120	0	34.5680	0	27.635	0	1880.694	0	43.7	4	13.2	4	-1E+10	1	-1E+10	1	-1E+10	1	-1E+10	1	-1E+10	1	-1E+10	1
4902549	113	C	09/30/2023	21:03	-133.150	47.694	0	1915.50	0	2.0070	0	34.5690	0	27.636	0	1890.816	0	44.4	4	13.4	4	-1E+10	1	-1E+10	1	-1E+10	1	-1E+10	1	-1E+10	1	-1E+10	1
4902549	113	C	09/30/2023	21:03	-133.150	47.694	0	1925.80	0	1.9990	0	34.5710	0	27.638	0	1900.937	0	45.1	4	13.6	4	-1E+10	1	-1E+10	1	-1E+10	1	-1E+10	1	-1E+10	1	-1E+10	1
4902549	113	C	09/30/2023	21:03	-133.150	47.694	0	1935.40	0	1.9900	0	34.5720	0	27.640	0	1910.370	0	45.9	4	13.8	4	-1E+10	1	-1E+10	1	-1E+10	1	-1E+10	1	-1E+10	1	-1E+10	1
4902549	113	C	09/30/2023	21:03	-133.150	47.694	0	1945.10	0	1.9830	0	34.5740	0	27.642	0	1919.901	0	46.5	4	14.0	4	-1E+10	1	-1E+10	1	-1E+10	1	-1E+10	1	-1E+10	1	-1E+10	1
4902549	113	C	09/30/2023	21:03	-133.150	47.694	0	1955.10	0	1.9730	0	34.5760	0	27.644	0	1929.726	0	47.3	4	14.2	4	-1E+10	1	-1E+10	1	-1E+10	1	-1E+10	1	-1E+10	1	-1E+10	1
4902549	113	C	09/30/2023	21:03	-133.150	47.694	0	1965.40	0	1.9640	0	34.5780	0	27.647	0	1939.846	0	47.9	4	14.4	4	-1E+10	1	-1E+10	1	-1E+10	1	-1E+10	1	-1E+10	1	-1E+10	1
4902549	113	C	09/30/2023	21:03	-133.150	47.694	0	1975.90	0	1.9580	0	34.5790	0	27.648	0	1950.161	0	48.4	4	14.6	4	-1E+10	1	-1E+10	1	-1E+10	1	-1E+10	1	-1E+10	1	-1E+10	1
4902549	113	C	09/30/2023	21:03	-133.150	47.694	0	1981.90	0	1.9520	0	34.5800	0	27.649	0	1956.056	0	48.7	4	14.7	4	-1E+10	1	-1E+10	1	-1E+10	1	-1E+10	1	-1E+10	1	-1E+10	1
4902549	113	C	09/30/2023	21:03	-133.150	47.694	0																										
4902549	114	C	10/11/2023	01:55	-133.225	47.555	0	0.00	0	14.6080	0	32.3570	0	24.019	0	0.000	0	-1e10	1	-1e10	1	-1E+10	1	-1E+10	1	-1E+10	1	-1E+10	1	-1E+10	1	-1E+10	1
4902549	114	C	10/11/2023	01:55	-133.225	47.555	0	0.10	0	14.6100	0	32.3470	0	24.011	0	0.099	0	241.6	4	95.0	4	-1E+10	1	-1E+10	1	-1E+10	1	-1E+10	1	-1E+10	1	-1E+10	1
4902549	114	C	10/11/2023	01:55	-133.225	47.555	0	1.00	0	14.6140	0	32.3710	0	24.029	0	0.992	0	241.6	4	95.0	4	-1E+10	1	-1E+10	1	-1E+10	1	-1E+10	1	-1E+10	1	-1E+10	1
4902549	114	C	10/11/2023	01:55	-133.225	47.555	0	2.10	0	14.6120	0	32.3500	0	24.013	0	2.082	0	241.7	4	95.0	4	-1E+10	1	-1E+10	1	-1E+10	1	-1E+10	1	-1E+10	1	-1E+10	1
4902549	114	C	10/11/2023	01:55	-133.225	47.555	0	3.10	0	14.6170	0	32.3680	0	24.026	0	3.074	0	241.6	4	95.0	4	-1E+10	1	-1E+10	1	-1E+10	1	-1E+10	1	-1E+10	1	-1E+10	1
4902549	114	C	10/11/2023	01:55	-133.225	47.555	0	4.10	0	14.6190	0	32.3830	0	24.037	0	4.066	0	241.5	4	95.0	4	-1E+10	1	-1E+10	1	-1E+10	1	-1E+10	1	-1E+10	1	-1E+10	1
4902549	114	C	10/11/2023	01:55	-133.225	47.555	0	4.80	0	14.6190	0	32.3910	0	24.043	0	4.760	0	-1e10	1	-1e10	1	-1E+10	1	-1E+10	1	-1E+10	1	-1E+10	1	-1E+10	1	-1E+10	1
4902549	114	C	10/11/2023	01:55	-133.225	47.555	0	5.50	0	14.6213	0	32.3904	0	24.043	0	5.454	0	241.5	4	95.0	4	-1E+10	1	-1E+10	1	-1E+10	1	-1E+10	1	-1E+10	1	-1E+10	1
4902549	114	C	10/11/2023	01:55	-133.225	47.555	0	6.00	0	14.6230	0	32.3900	0	24.042	0	5.950	0	-1e10	1	-1e10	1	-1E+10	1	-1E+10	1	-1E+10	1	-1E+10	1	-1E+10	1	-1E+10	1
4902549	114	C	10/11/2023	01:55	-133.225	47.555	0	6.30	0	14.6215	0	32.3900	0	24.042	0	6.247	0	241.5	4	95.0	4	-1E+10	1	-1E+10	1	-1E+10	1	-1E+10	1	-1E+10	1	-1E+10	1
4902549	114	C	10/11/2023	01:55	-133.225	47.555	0	7.20	0	14.6170	0	32.3900	0	24.043	0	7.140	0	241.5	4	95.0	4	-1E+10	1	-1E+10	1	-1E+10	1	-1E+10	1	-1E+10	1	-1E+10	1
4902549	114	C	10/11/2023	01:55	-133.225	47.555	0	7.90	0	14.6170	0	32.3910	0	24.044	0	7.834	0	241.5	4	95.0	4	-1E+10	1	-1E+10	1	-1E+10	1	-1E+10	1	-1E+10	1	-1E+10	1
4902549	114	C	10/11/2023	01:55	-133.225	47.555	0	8.90	0	14.6180	0	32.3900	0	24.043	0	8.825	0	241.7	4	95.1	4	-1E+10	1	-1E+10	1	-1E+10	1	-1E+10	1	-1E+10	1	-1E+10	1
4902549	114	C	10/11/2023	01:55	-133.225	47.555	0	9.90	0	14.6160	0	32.3900	0	24.043	0	9.817	0	241.5	4	95.0	4	-1E+10	1	-1E+10	1	-1E+10	1	-1E+10	1	-1E+10	1	-1E+10	1
4902549	114	C	10/11/2023	01:55	-133.225	47.555	0	11.00	0	14.6150	0	32.3900	0	24.044	0	10.908	0	241.5	4	95.0	4	-1E+10	1	-1E+10	1	-1E+10	1	-1E+10	1	-1E+10	1	-1E+10	1
4902549	114	C	10/11/2023	01:55	-133.225	47.555	0	12.10	0	14.6160	0	32.3900	0	24.044	0	11.999	0	241.6	4	95.0	4	-1E+10	1	-1E+10	1	-1E+10	1	-1E+10	1	-1E+10	1	-1E+10	1
4902549	114	C	10/11/2023	01:55	-133.225	47.555	0	13.20	0	14.6150	0	32.3900	0	24.044	0	13.089	0	241.6	4	95.0	4	-1E+10	1	-1E+10	1	-1E+10	1	-1E+10	1	-1E+10	1	-1E+10	1
4902549	114	C	10/11/2023	01:55	-133.225	47.555	0	14.30	0	14.6200	0	32.3900	0	24.043	0	14.180	0	241.4	4	95.0	4	-1E+10	1	-1E+10	1	-1E+10	1	-1E+10	1	-1E+10	1	-1E+10	1
4902549	114	C	10/11/2023	01:55	-133.225	47.555	0	15.30	0	14.6180	0	32.3900	0	24.043	0	15.172	0	241.5	4	95.0	4	-1E+10	1	-1E+10	1	-1E+10	1	-1E+10	1	-1E+10	1	-1E+10	1
4902549	114	C	10/11/2023	01:55	-133.225	47.555	0	16.30	0	14.6250	0	32.3900	0	24.042	0	16.163	0	241.6	4	95.1	4	-1E+10	1	-1E+10	1	-1E+10	1	-1E+10	1	-1E+10	1	-1E+10	1
4902549	114	C	10/11/2023	01:55	-133.225	47.555	0	17.30	0	14.6190	0	32.3870	0	24.041	0	17.155	0	241.5	4	95.0	4	-1E+10	1	-1E+10	1	-1E+10	1	-1E+10	1	-1E+10	1	-1E+10	1
4902549	114	C	10/11/2023	01:55	-133.225	47.555	0	18.00	0	14.6280	0	32.3900	0	24.041	0	17.849	0	241.5	4	95.0	4	-1E+10	1	-1E+10	1	-1E+10	1	-1E+10	1	-1E+10	1	-1E+10	1
4902549	114	C	10/11/2023	01:55	-133.225	47.555	0	18.60	0	14.6270	0	32.3900	0	24.041	0	18.444	0	241.6	4	95.0	4	-1E+10	1	-1E+10	1	-1E+10	1	-1E+10	1	-1E+10	1	-1E+10	1
4902549	114	C	10/11/2023	01:55	-133.225	47.555	0	19.60	0	14.6260	0	32.3900	0	24.042	0	19.435	0	241.6	4	95.0	4	-1E+10	1	-1E+10	1	-1E+10	1	-1E+10	1	-1E+10	1	-1E+10	1
4902549	114	C	10/11/2023	01:55	-133.225	47.555	0	20.90	0	14.6250	0	32.3900	0	24.042	0	20.724	0	241.5	4	95.0	4	-1E+10	1	-1E+10	1	-1E+10	1	-1E+10	1	-1E+10	1	-1E+10	1
4902549	114	C	10/11/2023	01:55	-133.225	47.555	0	22.30	0	14.6260	0	32.3900	0	24.042	0	22.113	0	241.5	4	95.0	4	-1E+10	1	-1E+10	1	-1E+10	1	-1E+10	1	-1E+10	1	-1E+10	1
4902549	114	C	10/11/2023	01:55	-133.225	47.555	0	23.10	0	14.6210	0	32.3900	0	24.043	0	22.906	0	241.6	4	95.1	4	-1E+10	1	-1E+10	1	-1E+10	1	-1E+10	1	-1E+10	1	-1E+10	1
4902549	114	C	10/11/2023	01:55	-133.225	47.555	0	24.00	0	14.6210	0	32.3900	0	24.043	0	23.798	0	241.7	4	95.1	4	-1E+10	1	-1E+10	1	-1E+10	1	-1E+10	1	-1E+10	1	-1E+10	1
4902549	114	C	10/11/2023	01:55	-133.225	47.555	0	25.00	0	14.6230	0	32.3900	0	24.042	0	24.790	0	241.6	4	95.0	4	-1E+10	1	-1E+10	1	-1E+10	1	-1E+10	1	-1E+10	1	-1E+10	1
4902549	114	C	10/11/2023	01:55	-133.225	47.555	0	26.10	0	14.6220	0	32.3900	0	24.043	0	25.880	0	241.7	4	95.1	4	-1E+10	1	-1E+10	1	-1E+10	1	-1E+10	1	-1E+10	1	-1E+10	1
4902549	114	C	10/11/2023	01:55	-133.225	47.555	0	27.00	0	14.6250	0	32.3900	0	24.042	0	26.773	0	241.7	4	95.1	4	-1E+10	1	-1E+10	1	-1E+10	1	-1E+10	1	-1E+10	1	-1E+10	1
4902549	114	C	10/11/2023	01:55	-133.225	47.555	0	28.10	0	14.6250	0	32.3900	0	24.042	0	27.863	0	241.7	4	95.1	4	-1E+10	1	-1E+10	1	-1E+10	1	-1E+10	1	-1E+10	1	-1E+10	1
4902549	114	C	10/11/2023	01:55	-133.225	47.555	0	28.90	0	14.6270	0	32.3900	0	24.042	0	28.657	0	241.7	4	95.1	4	-1E+10	1	-1E+10	1	-1E+10	1	-1E+10	1	-1E+10	1	-1E+10	1
4902549	114	C	10/11/2023	01:55	-133.225	47.555	0	29.80	0	14.6260	0	32.3900	0	24.042	0	29.549	0	241.9	4	95.2	4	-1E+10	1	-1E+10	1	-1E+10	1	-1E+10	1	-1E+10	1	-1E+10	1
4902549	114	C	10/11/2023	01:55	-133.225	47.555	0	30.90	0	14.6250	0	32.3890	0	24.041	0	30.640	0	241.9	4	95.2	4	-1E+10	1	-1E+10	1	-1E+10	1	-1E+10	1	-1E+10	1	-1E+10	1
4902549	114	C	10/11/2023	01:55	-133.225	47.555	0	31.90	0	14.6260	0	32.3890	0	24.041	0	31.631	0	241.9	4	95.2	4	-1E+10	1	-1E+10	1	-1E+10	1	-1E+10	1	-1E+10	1	-1E+10	1
4902549	114	C	10/11/2023	01:55	-133.225	47.555	0	32.70	0	14.6250	0	32.3880	0	24.041	0	32.424	0	242.0	4	95.2	4	-1E+10	1	-1E+10	1	-1E+10	1	-1E+10	1	-1E+10	1	-1E+10	1
4902549	114	C	10/11/2023	01:55	-133.225	47.555	0	33.90	0	14.6130	0	32.3860	0	24.042	0	33.614	0	242.3	4	95.3	4	-1E+10	1	-1E+10	1	-1E+10	1	-1E+10	1	-1E+10	1	-1E+10	1
4902549	114	C	10/11/2023	01:55	-133.225	47.555	0	35.00	0	14.6100	0	32.3800	0	24.038	0	34.705	0	242.3	4	95.3	4	-1E+10	1	-1E+10	1	-1E+10	1	-1E+10	1	-1E+10	1	-1E+10	1
4902549	114	C	10/11/2023	01:55	-133.225	47.555	0	36.00	0	14.5460	0	32.3870	0	24.057	0	35.696	0	242.8	4	95.4	4	-1E+10	1	-1E+10	1	-1E+10	1	-1E+10	1	-1E+10	1	-1E+10	1
4902549	114	C	10/11/2023	01:55	-133.225	47.555	0	37.00	0	14.5280	0	32.3880	0	24.061	0	36.688	0	243.0	4	95.4	4	-1E+10	1	-1E+10	1	-1E+10	1	-1E+10	1	-1E+10	1	-1E+10	1
4902549	114	C	10/11/2023	01:55	-133.225	47.555	0	37.80	0	14.4820	0	32.3900	0	24.073	0	37.481	0	243.2	4	95.4	4	-1E+10	1	-1E+10	1	-1E+10	1	-1E+10	1	-1E+10	1	-1E+10	1
4902549	114	C	10/11/2023	01:55	-133.225	47.555	0	38.90	0	12.9450	0	32.3970	0	24.389	0	38.572	0	254.1	4	96.6	4	-1E+10	1	-1E+10	1	-1E+10	1	-1E+10	1	-1E+10	1	-1E+10	1
4902549	114	C	10/11/2023	01:55	-133.225	47.555	0	40.10	0	12.7330	0	32.3720	0	24.411	0	39.761	0	256.3	4	97.0	4	-1E+10	1	-1E+10	1	-1E+10	1	-1E+10	1	-1E+10	1	-1E+10	1
4902549	114	C	10/11/2023	01:55	-133.225	47.555	0	41.20	0	11.9790	0	32.3870	0	24.566	0	40.852	0	260.7	4	97.2	4	-1E+10	1	-1E+10	1	-1E+10	1	-1E+10	1	-1E+10	1	-1E+10	1
4902549	114	C	10/11/2023	01:55	-133.225	47.555	0	41.80	0	11.6640	0	32.3900	0	24.626	0	41.447	0	263.2	4	97.5	4	-1E+10	1	-1E+10	1	-1E+10	1	-1E+10	1	-1E+10	1	-1E+10	1
4902549	114	C	10/11/2023	01:55	-133.225	47.555	0	42.90	0	11.5060	0	32.4090	0	24.670	0	42.537	0	264.1	4	97.5	4	-1E+10	1	-1E+10	1	-1E+10	1	-1E+10	1	-1E+10	1	-1E+10	1
4902549	114	C	10/11/2023	01:55	-133.225	47.555	0	44.10	0	8.7600	0	32.4290	0	25.143	0	43.727	0	275.4	4	95.8	4	-1E+10	1	-1E+10	1	-1E+10	1	-1E+10	1	-1E+10	1	-1E+10	1
4902549	114	C	10/11/2023	01:55	-133.225	47.555	0	44.80	0	8.6530	0	32.4310	0	25.161	0	44.421	0	274.9	4	95.4	4	-1E+10	1	-1E+10	1	-1E+10	1	-1E+10	1	-1E+10	1	-1E+10	1
4902549	114	C	10/11/2023	01:55	-133.225	47.555	0	45.80	0	8.5290	0	32.4350	0	25.183	0	45.412	0	274.4	4	95.0	4	-1E+10	1	-1E+10	1	-1E+10	1	-1E+10	1	-1E+10	1	-1E+10	1
4902549	114	C	10/11/2023	01:55	-133.225	47.555	0	46.90	0	8.4270	0	32.4350	0	25.198	0	46.503	0	274.4	4	94.8	4	-1E+10	1	-1E+10	1	-1E+10	1	-1E+10	1	-1E+10	1	-1E+10	1
4902549	114	C	10/11/2023	01:55	-133.225	47.555	0	48.10	0	8.3610	0	32.4340	0	25.207	0	47.693	0	274.1	4	94.5	4	-1E+10	1	-1E+10	1	-1E+10	1	-1E+10	1	-1E+10	1	-1E+10	1
4902549	114	C	10/11/2023	01:55	-133.225	47.555	0	49.00	0	8.2870	0	32.4340	0	25.218	0	48.585	0	273.8	4	94.3	4	-1E+10	1	-1E+10	1	-1E+10	1	-1E+10	1	-1E+10	1	-1E+10	1
4902549	114	C	10/11/2023	01:55	-133.225	47.555	0	49.80	0	8.2480	0	32.4350	0	25.225	0	49.378	0	273.6	4	94.1	4	-1E+10	1	-1E+10	1	-1E+10	1	-1E+10	1	-1E+10	1	-1E+10	1
4902549	114	C	10/11/2023	01:55	-133.225	47.555	0	50.60	0	8.1960	0	32.4400	0	25.236	0	50.171	0	273.5	4	94.0	4	-1E+10	1	-1E+10	1	-1E+10	1	-1E+10	1	-1E+10	1	-1E+10	1
4902549	114	C	10/11/2023	01:55	-133.225	47.555	0	51.90	0	8.1660	0	32.4400	0	25.241	0	51.460	0	273.2	4	93.8	4	-1E+10	1	-1E+10	1	-1E+10	1	-1E+10	1	-1E+10	1	-1E+10	1
4902549	114	C	10/11/2023	01:55	-133.225	47.555	0	53.00	0	8.1340	0	32.4410	0	25.246	0	52.551	0	272.8	4	93.6	4	-1E+10	1	-1E+10	1	-1E+10	1	-1E+10	1	-1E+10	1	-1E+10	1
4902549	114	C	10/11/2023	01:55	-133.225	47.555	0	53.90	0	8.1290	0	32.4410	0	25.247	0	53.443	0	272.1	4	93.4	4	-1E+10	1	-1E+10	1	-1E+10	1	-1E+10	1	-1E+10	1	-1E+10	1
4902549	114	C	10/11/2023	01:55	-133.225	47.555	0	55.00	0	8.0960	0	32.4380	0	25.249	0	54.533	0	271.6	4	93.1	4	-1E+10	1	-1E+10	1	-1E+10	1	-1E+10	1	-1E+10	1	-1E+10	1
4902549	114	C	10/11/2023	01:55	-133.225	47.555	0	56.10	0	7.9780	0	32.4360	0	25.265	0	55.624	0	271.2	4	92.7	4	-1E+10	1	-1E+10	1	-1E+10	1	-1E+10	1	-1E+10	1	-1E+10	1
4902549	114	C	10/11/2023	01:55	-133.225	47.555	0	56.70	0	7.9230	0	32.4300	0	25.268	0	56.219	0	270.7	4	92.4	4	-1E+10	1	-1E+10	1	-1E+10	1	-1E+10	1	-1E+10	1	-1E+10	1
4902549	114	C	10/11/2023	01:55	-133.225	47.555	0	57.80	0	7.8170	0	32.4320	0	25.285	0	57.309	0	270.2	4	92.1	4	-1E+10	1	-1E+10	1	-1E+10	1	-1E+10	1	-1E+10	1	-1E+10	1
4902549	114	C	10/11/2023	01:55	-133.225	47.555	0	59.00	0	7.7920	0	32.4340	0	25.290	0	58.499	0	269.5	4	91.7	4	-1E+10	1	-1E+10	1	-1E+10	1	-1E+10	1	-1E+10	1	-1E+10	1
4902549	114	C	10/11/2023	01:55	-133.225	47.555	0	59.90	0	7.7610	0	32.4330	0	25.294	0	59.391	0	268.7	4	91.4	4	-1E+10	1	-1E+10	1	-1E+10	1	-1E+10	1	-1E+10	1	-1E+10	1
4902549	114	C	10/11/2023	01:55	-133.225	47.555	0	61.00	0	7.7460	0	32.4320	0	25.295	0	60.482	0	268.0	4	91.1	4	-1E+10	1	-1E+10	1	-1E+10	1	-1E+10	1	-1E+10	1	-1E+10	1
4902549	114	C	10/11/2023	01:55	-133.225	47.555	0	62.10	0	7.7340	0	32.4310	0	25.296	0	61.572	0	266.9	4	90.7	4	-1E+10	1	-1E+10	1	-1E+10	1	-1E+10	1	-1E+10	1	-1E+10	1
4902549	114	C	10/11/2023	01:55	-133.225	47.555	0	62.80	0	7.7160	0	32.4300	0	25.298	0	62.266	0	266.4	4	90.5	4	-1E+10	1	-1E+10	1	-1E+10	1	-1E+10	1	-1E+10	1	-1E+10	1
4902549	114	C	10/11/2023	01:55	-133.225	47.555	0	63.90	0	7.6770	0	32.4390	0	25.310	0	63.357	0	265.4	4	90.1	4	-1E+10	1	-1E+10	1	-1E+10	1	-1E+10	1	-1E+10	1	-1E+10	1
4902549	114	C	10/11/2023	01:55	-133.225	47.555	0	64.90	0	7.6720	0	32.4500	0	25.320	0	64.348	0	265.1	4	90.0	4	-1E+10	1	-1E+10	1	-1E+10	1	-1E+10	1	-1E+10	1	-1E+10	1
4902549	114	C	10/11/2023	01:55	-133.225	47.555	0	65.80	0	7.6570	0	32.4550	0	25.326	0	65.240	0	264.7	4	89.9	4	-1E+10	1	-1E+10	1	-1E+10	1	-1E+10	1	-1E+10	1	-1E+10	1
4902549	114	C	10/11/2023	01:55	-133.225	47.555	0	66.90	0	7.6350	0	32.4580	0	25.331	0	66.331	0	264.4	4	89.7	4	-1E+10	1	-1E+10	1	-1E+10	1	-1E+10	1	-1E+10	1	-1E+10	1
4902549	114	C	10/11/2023	01:55	-133.225	47.555	0	67.90	0	7.6260	0	32.4570	0	25.332	0	67.322	0	263.9	4	89.6	4	-1E+10	1	-1E+10	1	-1E+10	1	-1E+10	1	-1E+10	1	-1E+10	1
4902549	114	C	10/11/2023	01:55	-133.225	47.555	0	68.90	0	7.6020	0	32.4580	0	25.336	0	68.313	0	263.5	4	89.4	4	-1E+10	1	-1E+10	1	-1E+10	1	-1E+10	1	-1E+10	1	-1E+10	1
4902549	114	C	10/11/2023	01:55	-133.225	47.555	0	70.10	0	7.5930	0	32.4630	0	25.341	0	69.503	0	263.1	4	89.2	4	-1E+10	1	-1E+10	1	-1E+10	1	-1E+10	1	-1E+10	1	-1E+10	1
4902549	114	C	10/11/2023	01:55	-133.225	47.555	0	70.80	0	7.5770	0	32.4640	0	25.344	0	70.197	0	262.9	4	89.1	4	-1E+10	1	-1E+10	1	-1E+10	1	-1E+10	1	-1E+10	1	-1E+10	1
4902549	114	C	10/11/2023	01:55	-133.225	47.555	0	71.90	0	7.5510	0	32.4650	0	25.348	0	71.287	0	262.6	4	89.0	4	-1E+10	1	-1E+10	1	-1E+10	1	-1E+10	1	-1E+10	1	-1E+10	1
4902549	114	C	10/11/2023	01:55	-133.225	47.555	0	73.00	0	7.5330	0	32.4690	0	25.354	0	72.378	0	262.5	4	88.9	4	-1E+10	1	-1E+10	1	-1E+10	1	-1E+10	1	-1E+10	1	-1E+10	1
4902549	114	C	10/11/2023	01:55	-133.225	47.555	0	74.10	0	7.4620	0	32.4680	0	25.363	0	73.468	0	262.5	4	88.7	4	-1E+10	1	-1E+10	1	-1E+10	1	-1E+10	1	-1E+10	1	-1E+10	1
4902549	114	C	10/11/2023	01:55	-133.225	47.555	0	75.10	0	7.4420	0	32.4710	0	25.368	0	74.459	0	262.3	4	88.6	4	-1E+10	1	-1E+10	1	-1E+10	1	-1E+10	1	-1E+10	1	-1E+10	1
4902549	114	C	10/11/2023	01:55	-133.225	47.555	0	76.00	0	7.4420	0	32.4740	0	25.371	0	75.351	0	262.0	4	88.5	4	-1E+10	1	-1E+10	1	-1E+10	1	-1E+10	1	-1E+10	1	-1E+10	1
4902549	114	C	10/11/2023	01:55	-133.225	47.555	0	77.10	0	7.4550	0	32.4820	0	25.375	0	76.442	0	261.8	4	88.5	4	-1E+10	1	-1E+10	1	-1E+10	1	-1E+10	1	-1E+10	1	-1E+10	1
4902549	114	C	10/11/2023	01:55	-133.225	47.555	0	77.80	0	7.4610	0	32.4840	0	25.376	0	77.136	0	261.7	4	88.5	4	-1E+10	1	-1E+10	1	-1E+10	1	-1E+10	1	-1E+10	1	-1E+10	1
4902549	114	C	10/11/2023	01:55	-133.225	47.555	0	78.90	0	7.4410	0	32.4830	0	25.378	0	78.226	0	261.5	4	88.4	4	-1E+10	1	-1E+10	1	-1E+10	1	-1E+10	1	-1E+10	1	-1E+10	1
4902549	114	C	10/11/2023	01:55	-133.225	47.555	0	80.00	0	7.4210	0	32.4800	0	25.378	0	79.317	0	261.4	4	88.3	4	-1E+10	1	-1E+10	1	-1E+10	1	-1E+10	1	-1E+10	1	-1E+10	1
4902549	114	C	10/11/2023	01:55	-133.225	47.555	0	81.00	0	7.4090	0	32.4830	0	25.382	0	80.308	0	261.2	4	88.2	4	-1E+10	1	-1E+10	1	-1E+10	1	-1E+10	1	-1E+10	1	-1E+10	1
4902549	114	C	10/11/2023	01:55	-133.225	47.555	0	82.00	0	7.4000	0	32.4870	0	25.387	0	81.299	0	261.0	4	88.1	4	-1E+10	1	-1E+10	1	-1E+10	1	-1E+10	1	-1E+10	1	-1E+10	1
4902549	114	C	10/11/2023	01:55	-133.225	47.555	0	83.10	0	7.3870	0	32.4920	0	25.392	0	82.389	0	267.5	4	90.3	4	-1E+10	1	-1E+10	1	-1E+10	1	-1E+10	1	-1E+10	1	-1E+10	1
4902549	114	C	10/11/2023	01:55	-133.225	47.555	0	83.90	0	7.3810	0	32.4940	0	25.395	0	83.182	0	267.3	4	90.2	4	-1E+10	1	-1E+10	1	-1E+10	1	-1E+10	1	-1E+10	1	-1E+10	1
4902549	114	C	10/11/2023	01:55	-133.225	47.555	0	85.00	0	7.3520	0	32.4970	0	25.401	0	84.273	0	267.0	4	90.1	4	-1E+10	1	-1E+10	1	-1E+10	1	-1E+10	1	-1E+10	1	-1E+10	1
4902549	114	C	10/11/2023	01:55	-133.225	47.555	0	86.10	0	7.3260	0	32.4990	0	25.406	0	85.363	0	266.7	4	89.9	4	-1E+10	1	-1E+10	1	-1E+10	1	-1E+10	1	-1E+10	1	-1E+10	1
4902549	114	C	10/11/2023	01:55	-133.225	47.555	0	87.20	0	7.3190	0	32.5050	0	25.412	0	86.454	0	266.2	4	89.7	4	-1E+10	1	-1E+10	1	-1E+10	1	-1E+10	1	-1E+10	1	-1E+10	1
4902549	114	C	10/11/2023	01:55	-133.225	47.555	0	87.90	0	7.3170	0	32.5060	0	25.413	0	87.147	0	265.9	4	89.6	4	-1E+10	1	-1E+10	1	-1E+10	1	-1E+10	1	-1E+10	1	-1E+10	1
4902549	114	C	10/11/2023	01:55	-133.225	47.555	0	89.10	0	7.3210	0	32.5080	0	25.414	0	88.337	0	265.3	4	89.4	4	-1E+10	1	-1E+10	1	-1E+10	1	-1E+10	1	-1E+10	1	-1E+10	1
4902549	114	C	10/11/2023	01:55	-133.225	47.555	0	90.00	0	7.3080	0	32.5080	0	25.416	0	89.229	0	264.5	4	89.1	4	-1E+10	1	-1E+10	1	-1E+10	1	-1E+10	1	-1E+10	1	-1E+10	1
4902549	114	C	10/11/2023	01:55	-133.225	47.555	0	91.00	0	7.2960	0	32.5110	0	25.420	0	90.220	0	263.7	4	88.8	4	-1E+10	1	-1E+10	1	-1E+10	1	-1E+10	1	-1E+10	1	-1E+10	1
4902549	114	C	10/11/2023	01:55	-133.225	47.555	0	92.00	0	7.2630	0	32.5190	0	25.431	0	91.211	0	262.8	4	88.5	4	-1E+10	1	-1E+10	1	-1E+10	1	-1E+10	1	-1E+10	1	-1E+10	1
4902549	114	C	10/11/2023	01:55	-133.225	47.555	0	93.20	0	7.2560	0	32.5220	0	25.434	0	92.401	0	261.8	4	88.1	4	-1E+10	1	-1E+10	1	-1E+10	1	-1E+10	1	-1E+10	1	-1E+10	1
4902549	114	C	10/11/2023	01:55	-133.225	47.555	0	93.90	0	7.2460	0	32.5330	0	25.444	0	93.095	0	261.0	4	87.8	4	-1E+10	1	-1E+10	1	-1E+10	1	-1E+10	1	-1E+10	1	-1E+10	1
4902549	114	C	10/11/2023	01:55	-133.225	47.555	0	95.20	0	7.2110	0	32.5480	0	25.461	0	94.383	0	259.8	4	87.4	4	-1E+10	1	-1E+10	1	-1E+10	1	-1E+10	1	-1E+10	1	-1E+10	1
4902549	114	C	10/11/2023	01:55	-133.225	47.555	0	96.00	0	7.1950	0	32.5540	0	25.468	0	95.176	0	259.1	4	87.1	4	-1E+10	1	-1E+10	1	-1E+10	1	-1E+10	1	-1E+10	1	-1E+10	1
4902549	114	C	10/11/2023	01:55	-133.225	47.555	0	97.00	0	7.1970	0	32.5590	0	25.471	0	96.167	0	258.0	4	86.7	4	-1E+10	1	-1E+10	1	-1E+10	1	-1E+10	1	-1E+10	1	-1E+10	1
4902549	114	C	10/11/2023	01:55	-133.225	47.555	0	98.10	0	7.1990	0	32.5620	0	25.473	0	97.258	0	256.4	4	86.2	4	-1E+10	1	-1E+10	1	-1E+10	1	-1E+10	1	-1E+10	1	-1E+10	1
4902549	114	C	10/11/2023	01:55	-133.225	47.555	0	99.00	0	7.1850	0	32.5760	0	25.486	0	98.150	0	255.4	4	85.9	4	-1E+10	1	-1E+10	1	-1E+10	1	-1E+10	1	-1E+10	1	-1E+10	1
4902549	114	C	10/11/2023	01:55	-133.225	47.555	0	100.30	0	7.1680	0	32.5930	0	25.502	0	99.438	0	253.7	4	85.3	4	-1E+10	1	-1E+10	1	-1E+10	1	-1E+10	1	-1E+10	1	-1E+10	1
4902549	114	C	10/11/2023	01:55	-133.225	47.555	0	101.00	0	7.1550	0	32.6010	0	25.510	0	100.132	0	252.9	4	85.0	4	-1E+10	1	-1E+10	1	-1E+10	1	-1E+10	1	-1E+10	1	-1E+10	1
4902549	114	C	10/11/2023	01:55	-133.225	47.555	0	101.90	0	7.1440	0	32.6030	0	25.513	0	101.024	0	251.5	4	84.5	4	-1E+10	1	-1E+10	1	-1E+10	1	-1E+10	1	-1E+10	1	-1E+10	1
4902549	114	C	10/11/2023	01:55	-133.225	47.555	0	102.80	0	7.1330	0	32.6080	0	25.518	0	101.916	0	249.8	4	83.9	4	-1E+10	1	-1E+10	1	-1E+10	1	-1E+10	1	-1E+10	1	-1E+10	1
4902549	114	C	10/11/2023	01:55	-133.225	47.555	0	104.00	0	7.0850	0	32.6340	0	25.545	0	103.106	0	247.8	4	83.1	4	-1E+10	1	-1E+10	1	-1E+10	1	-1E+10	1	-1E+10	1	-1E+10	1
4902549	114	C	10/11/2023	01:55	-133.225	47.555	0	104.70	0	7.0760	0	32.6400	0	25.551	0	103.799	0	246.6	4	82.7	4	-1E+10	1	-1E+10	1	-1E+10	1	-1E+10	1	-1E+10	1	-1E+10	1
4902549	114	C	10/11/2023	01:55	-133.225	47.555	0	105.70	0	7.0590	0	32.6480	0	25.560	0	104.790	0	244.8	4	82.1	4	-1E+10	1	-1E+10	1	-1E+10	1	-1E+10	1	-1E+10	1	-1E+10	1
4902549	114	C	10/11/2023	01:55	-133.225	47.555	0	106.70	0	7.0420	0	32.6590	0	25.571	0	105.782	0	243.0	4	81.5	4	-1E+10	1	-1E+10	1	-1E+10	1	-1E+10	1	-1E+10	1	-1E+10	1
4902549	114	C	10/11/2023	01:55	-133.225	47.555	0	107.80	0	7.0150	0	32.6730	0	25.586	0	106.872	0	241.2	4	80.8	4	-1E+10	1	-1E+10	1	-1E+10	1	-1E+10	1	-1E+10	1	-1E+10	1
4902549	114	C	10/11/2023	01:55	-133.225	47.555	0	109.00	0	6.9730	0	32.6920	0	25.606	0	108.061	0	239.3	4	80.1	4	-1E+10	1	-1E+10	1	-1E+10	1	-1E+10	1	-1E+10	1	-1E+10	1
4902549	114	C	10/11/2023	01:55	-133.225	47.555	0	110.10	0	6.9020	0	32.7220	0	25.639	0	109.151	0	238.1	4	79.6	4	-1E+10	1	-1E+10	1	-1E+10	1	-1E+10	1	-1E+10	1	-1E+10	1
4902549	114	C	10/11/2023	01:55	-133.225	47.555	0	110.80	0	6.8700	0	32.7490	0	25.665	0	109.845	0	237.3	4	79.3	4	-1E+10	1	-1E+10	1	-1E+10	1	-1E+10	1	-1E+10	1	-1E+10	1
4902549	114	C	10/11/2023	01:55	-133.225	47.555	0	111.90	0	6.8710	0	32.7970	0	25.702	0	110.935	0	235.7	4	78.8	4	-1E+10	1	-1E+10	1	-1E+10	1	-1E+10	1	-1E+10	1	-1E+10	1
4902549	114	C	10/11/2023	01:55	-133.225	47.555	0	113.10	0	6.8520	0	32.8320	0	25.733	0	112.125	0	234.4	4	78.3	4	-1E+10	1	-1E+10	1	-1E+10	1	-1E+10	1	-1E+10	1	-1E+10	1
4902549	114	C	10/11/2023	01:55	-133.225	47.555	0	113.80	0	6.8270	0	32.8490	0	25.749	0	112.819	0	233.4	4	78.0	4	-1E+10	1	-1E+10	1	-1E+10	1	-1E+10	1	-1E+10	1	-1E+10	1
4902549	114	C	10/11/2023	01:55	-133.225	47.555	0	114.90	0	6.8210	0	32.8530	0	25.753	0	113.909	0	231.8	4	77.4	4	-1E+10	1	-1E+10	1	-1E+10	1	-1E+10	1	-1E+10	1	-1E+10	1
4902549	114	C	10/11/2023	01:55	-133.225	47.555	0	116.10	0	6.8070	0	32.8580	0	25.759	0	115.098	0	230.1	4	76.8	4	-1E+10	1	-1E+10	1	-1E+10	1	-1E+10	1	-1E+10	1	-1E+10	1
4902549	114	C	10/11/2023	01:55	-133.225	47.555	0	117.00	0	6.7530	0	32.8940	0	25.794	0	115.990	0	229.2	4	76.5	4	-1E+10	1	-1E+10	1	-1E+10	1	-1E+10	1	-1E+10	1	-1E+10	1
4902549	114	C	10/11/2023	01:55	-133.225	47.555	0	117.80	0	6.7120	0	32.9150	0	25.816	0	116.783	0	228.2	4	76.1	4	-1E+10	1	-1E+10	1	-1E+10	1	-1E+10	1	-1E+10	1	-1E+10	1
4902549	114	C	10/11/2023	01:55	-133.225	47.555	0	119.00	0	6.6670	0	32.9410	0	25.843	0	117.972	0	226.7	4	75.5	4	-1E+10	1	-1E+10	1	-1E+10	1	-1E+10	1	-1E+10	1	-1E+10	1
4902549	114	C	10/11/2023	01:55	-133.225	47.555	0	120.30	0	6.6090	0	32.9800	0	25.881	0	119.261	0	225.4	4	75.0	4	-1E+10	1	-1E+10	1	-1E+10	1	-1E+10	1	-1E+10	1	-1E+10	1
4902549	114	C	10/11/2023	01:55	-133.225	47.555	0	121.20	0	6.5720	0	32.9930	0	25.896	0	120.153	0	224.5	4	74.6	4	-1E+10	1	-1E+10	1	-1E+10	1	-1E+10	1	-1E+10	1	-1E+10	1
4902549	114	C	10/11/2023	01:55	-133.225	47.555	0	122.00	0	6.5320	0	33.0250	0	25.927	0	120.945	0	223.7	4	74.3	4	-1E+10	1	-1E+10	1	-1E+10	1	-1E+10	1	-1E+10	1	-1E+10	1
4902549	114	C	10/11/2023	01:55	-133.225	47.555	0	122.90	0	6.5240	0	33.0380	0	25.938	0	121.837	0	222.6	4	74.0	4	-1E+10	1	-1E+10	1	-1E+10	1	-1E+10	1	-1E+10	1	-1E+10	1
4902549	114	C	10/11/2023	01:55	-133.225	47.555	0	123.80	0	6.4990	0	33.0560	0	25.955	0	122.729	0	221.5	4	73.6	4	-1E+10	1	-1E+10	1	-1E+10	1	-1E+10	1	-1E+10	1	-1E+10	1
4902549	114	C	10/11/2023	01:55	-133.225	47.555	0	124.70	0	6.4650	0	33.0830	0	25.981	0	123.621	0	220.8	4	73.3	4	-1E+10	1	-1E+10	1	-1E+10	1	-1E+10	1	-1E+10	1	-1E+10	1
4902549	114	C	10/11/2023	01:55	-133.225	47.555	0	125.90	0	6.4300	0	33.1090	0	26.006	0	124.811	0	219.4	4	72.8	4	-1E+10	1	-1E+10	1	-1E+10	1	-1E+10	1	-1E+10	1	-1E+10	1
4902549	114	C	10/11/2023	01:55	-133.225	47.555	0	127.10	0	6.4150	0	33.1200	0	26.017	0	126.000	0	217.9	4	72.3	4	-1E+10	1	-1E+10	1	-1E+10	1	-1E+10	1	-1E+10	1	-1E+10	1
4902549	114	C	10/11/2023	01:55	-133.225	47.555	0	127.90	0	6.4000	0	33.1340	0	26.030	0	126.793	0	216.7	4	71.8	4	-1E+10	1	-1E+10	1	-1E+10	1	-1E+10	1	-1E+10	1	-1E+10	1
4902549	114	C	10/11/2023	01:55	-133.225	47.555	0	128.70	0	6.3510	0	33.1670	0	26.062	0	127.585	0	215.8	4	71.5	4	-1E+10	1	-1E+10	1	-1E+10	1	-1E+10	1	-1E+10	1	-1E+10	1
4902549	114	C	10/11/2023	01:55	-133.225	47.555	0	129.90	0	6.2670	0	33.2240	0	26.117	0	128.775	0	214.9	4	71.1	4	-1E+10	1	-1E+10	1	-1E+10	1	-1E+10	1	-1E+10	1	-1E+10	1
4902549	114	C	10/11/2023	01:55	-133.225	47.555	0	131.10	0	6.2210	0	33.2530	0	26.146	0	129.964	0	214.0	4	70.7	4	-1E+10	1	-1E+10	1	-1E+10	1	-1E+10	1	-1E+10	1	-1E+10	1
4902549	114	C	10/11/2023	01:55	-133.225	47.555	0	132.00	0	6.2020	0	33.2630	0	26.157	0	130.856	0	213.2	4	70.4	4	-1E+10	1	-1E+10	1	-1E+10	1	-1E+10	1	-1E+10	1	-1E+10	1
4902549	114	C	10/11/2023	01:55	-133.225	47.555	0	132.70	0	6.1870	0	33.2680	0	26.162	0	131.550	0	212.4	4	70.1	4	-1E+10	1	-1E+10	1	-1E+10	1	-1E+10	1	-1E+10	1	-1E+10	1
4902549	114	C	10/11/2023	01:55	-133.225	47.555	0	133.90	0	6.1500	0	33.2830	0	26.179	0	132.739	0	211.1	4	69.7	4	-1E+10	1	-1E+10	1	-1E+10	1	-1E+10	1	-1E+10	1	-1E+10	1
4902549	114	C	10/11/2023	01:55	-133.225	47.555	0	135.20	0	6.0290	0	33.3420	0	26.241	0	134.027	0	210.2	4	69.2	4	-1E+10	1	-1E+10	1	-1E+10	1	-1E+10	1	-1E+10	1	-1E+10	1
4902549	114	C	10/11/2023	01:55	-133.225	47.555	0	136.10	0	6.0240	0	33.3450	0	26.244	0	134.919	0	209.6	4	69.0	4	-1E+10	1	-1E+10	1	-1E+10	1	-1E+10	1	-1E+10	1	-1E+10	1
4902549	114	C	10/11/2023	01:55	-133.225	47.555	0	136.90	0	6.0180	0	33.3510	0	26.249	0	135.712	0	208.7	4	68.7	4	-1E+10	1	-1E+10	1	-1E+10	1	-1E+10	1	-1E+10	1	-1E+10	1
4902549	114	C	10/11/2023	01:55	-133.225	47.555	0	137.70	0	6.0160	0	33.3530	0	26.251	0	136.505	0	207.7	4	68.4	4	-1E+10	1	-1E+10	1	-1E+10	1	-1E+10	1	-1E+10	1	-1E+10	1
4902549	114	C	10/11/2023	01:55	-133.225	47.555	0	138.90	0	6.0090	0	33.3560	0	26.254	0	137.694	0	205.9	4	67.8	4	-1E+10	1	-1E+10	1	-1E+10	1	-1E+10	1	-1E+10	1	-1E+10	1
4902549	114	C	10/11/2023	01:55	-133.225	47.555	0	140.10	0	5.9980	0	33.3600	0	26.259	0	138.883	0	204.0	4	67.1	4	-1E+10	1	-1E+10	1	-1E+10	1	-1E+10	1	-1E+10	1	-1E+10	1
4902549	114	C	10/11/2023	01:55	-133.225	47.555	0	140.90	0	5.9820	0	33.3690	0	26.268	0	139.676	0	202.6	4	66.6	4	-1E+10	1	-1E+10	1	-1E+10	1	-1E+10	1	-1E+10	1	-1E+10	1
4902549	114	C	10/11/2023	01:55	-133.225	47.555	0	141.70	0	5.9620	0	33.3820	0	26.281	0	140.468	0	201.2	4	66.2	4	-1E+10	1	-1E+10	1	-1E+10	1	-1E+10	1	-1E+10	1	-1E+10	1
4902549	114	C	10/11/2023	01:55	-133.225	47.555	0	142.90	0	5.8840	0	33.4420	0	26.338	0	141.658	0	200.0	4	65.7	4	-1E+10	1	-1E+10	1	-1E+10	1	-1E+10	1	-1E+10	1	-1E+10	1
4902549	114	C	10/11/2023	01:55	-133.225	47.555	0	144.30	0	5.8830	0	33.4450	0	26.340	0	143.045	0	198.7	4	65.2	4	-1E+10	1	-1E+10	1	-1E+10	1	-1E+10	1	-1E+10	1	-1E+10	1
4902549	114	C	10/11/2023	01:55	-133.225	47.555	0	145.10	0	5.8860	0	33.4500	0	26.344	0	143.838	0	197.7	4	64.9	4	-1E+10	1	-1E+10	1	-1E+10	1	-1E+10	1	-1E+10	1	-1E+10	1
4902549	114	C	10/11/2023	01:55	-133.225	47.555	0	146.00	0	5.8870	0	33.4500	0	26.344	0	144.730	0	196.4	4	64.5	4	-1E+10	1	-1E+10	1	-1E+10	1	-1E+10	1	-1E+10	1	-1E+10	1
4902549	114	C	10/11/2023	01:55	-133.225	47.555	0	147.00	0	5.8950	0	33.4550	0	26.347	0	145.721	0	195.1	4	64.1	4	-1E+10	1	-1E+10	1	-1E+10	1	-1E+10	1	-1E+10	1	-1E+10	1
4902549	114	C	10/11/2023	01:55	-133.225	47.555	0	147.90	0	5.8780	0	33.4900	0	26.376	0	146.612	0	193.7	4	63.6	4	-1E+10	1	-1E+10	1	-1E+10	1	-1E+10	1	-1E+10	1	-1E+10	1
4902549	114	C	10/11/2023	01:55	-133.225	47.555	0	148.80	0	5.8840	0	33.5050	0	26.387	0	147.504	0	192.4	4	63.2	4	-1E+10	1	-1E+10	1	-1E+10	1	-1E+10	1	-1E+10	1	-1E+10	1
4902549	114	C	10/11/2023	01:55	-133.225	47.555	0	149.80	0	5.8820	0	33.5100	0	26.392	0	148.495	0	191.1	4	62.8	4	-1E+10	1	-1E+10	1	-1E+10	1	-1E+10	1	-1E+10	1	-1E+10	1
4902549	114	C	10/11/2023	01:55	-133.225	47.555	0	150.70	0	5.8420	0	33.5320	0	26.414	0	149.387	0	190.1	4	62.4	4	-1E+10	1	-1E+10	1	-1E+10	1	-1E+10	1	-1E+10	1	-1E+10	1
4902549	114	C	10/11/2023	01:55	-133.225	47.555	0	151.60	0	5.8410	0	33.5320	0	26.414	0	150.279	0	189.0	4	62.0	4	-1E+10	1	-1E+10	1	-1E+10	1	-1E+10	1	-1E+10	1	-1E+10	1
4902549	114	C	10/11/2023	01:55	-133.225	47.555	0	152.50	0	5.8380	0	33.5310	0	26.414	0	151.171	0	187.7	4	61.6	4	-1E+10	1	-1E+10	1	-1E+10	1	-1E+10	1	-1E+10	1	-1E+10	1
4902549	114	C	10/11/2023	01:55	-133.225	47.555	0	153.90	0	5.8290	0	33.5370	0	26.419	0	152.558	0	185.1	4	60.8	4	-1E+10	1	-1E+10	1	-1E+10	1	-1E+10	1	-1E+10	1	-1E+10	1
4902549	114	C	10/11/2023	01:55	-133.225	47.555	0	155.10	0	5.8140	0	33.5510	0	26.432	0	153.747	0	183.1	4	60.1	4	-1E+10	1	-1E+10	1	-1E+10	1	-1E+10	1	-1E+10	1	-1E+10	1
4902549	114	C	10/11/2023	01:55	-133.225	47.555	0	155.80	0	5.7880	0	33.5590	0	26.442	0	154.441	0	182.1	4	59.7	4	-1E+10	1	-1E+10	1	-1E+10	1	-1E+10	1	-1E+10	1	-1E+10	1
4902549	114	C	10/11/2023	01:55	-133.225	47.555	0	156.90	0	5.7970	0	33.5660	0	26.446	0	155.531	0	180.4	4	59.2	4	-1E+10	1	-1E+10	1	-1E+10	1	-1E+10	1	-1E+10	1	-1E+10	1
4902549	114	C	10/11/2023	01:55	-133.225	47.555	0	158.00	0	5.7890	0	33.5720	0	26.452	0	156.621	0	178.5	4	58.5	4	-1E+10	1	-1E+10	1	-1E+10	1	-1E+10	1	-1E+10	1	-1E+10	1
4902549	114	C	10/11/2023	01:55	-133.225	47.555	0	158.80	0	5.7640	0	33.5810	0	26.462	0	157.413	0	177.5	4	58.2	4	-1E+10	1	-1E+10	1	-1E+10	1	-1E+10	1	-1E+10	1	-1E+10	1
4902549	114	C	10/11/2023	01:55	-133.225	47.555	0	159.60	0	5.7560	0	33.5890	0	26.470	0	158.206	0	176.8	4	57.9	4	-1E+10	1	-1E+10	1	-1E+10	1	-1E+10	1	-1E+10	1	-1E+10	1
4902549	114	C	10/11/2023	01:55	-133.225	47.555	0	160.90	0	5.7540	0	33.5930	0	26.473	0	159.494	0	175.6	4	57.6	4	-1E+10	1	-1E+10	1	-1E+10	1	-1E+10	1	-1E+10	1	-1E+10	1
4902549	114	C	10/11/2023	01:55	-133.225	47.555	0	162.20	0	5.7490	0	33.5980	0	26.478	0	160.782	0	174.4	4	57.2	4	-1E+10	1	-1E+10	1	-1E+10	1	-1E+10	1	-1E+10	1	-1E+10	1
4902549	114	C	10/11/2023	01:55	-133.225	47.555	0	163.00	0	5.7480	0	33.5970	0	26.477	0	161.575	0	173.3	4	56.8	4	-1E+10	1	-1E+10	1	-1E+10	1	-1E+10	1	-1E+10	1	-1E+10	1
4902549	114	C	10/11/2023	01:55	-133.225	47.555	0	163.90	0	5.7450	0	33.5990	0	26.479	0	162.467	0	172.2	4	56.4	4	-1E+10	1	-1E+10	1	-1E+10	1	-1E+10	1	-1E+10	1	-1E+10	1
4902549	114	C	10/11/2023	01:55	-133.225	47.555	0	164.80	0	5.7380	0	33.6030	0	26.483	0	163.359	0	171.0	4	56.0	4	-1E+10	1	-1E+10	1	-1E+10	1	-1E+10	1	-1E+10	1	-1E+10	1
4902549	114	C	10/11/2023	01:55	-133.225	47.555	0	165.70	0	5.7330	0	33.6140	0	26.492	0	164.250	0	169.9	4	55.6	4	-1E+10	1	-1E+10	1	-1E+10	1	-1E+10	1	-1E+10	1	-1E+10	1
4902549	114	C	10/11/2023	01:55	-133.225	47.555	0	167.00	0	5.7360	0	33.6220	0	26.498	0	165.538	0	168.2	4	55.1	4	-1E+10	1	-1E+10	1	-1E+10	1	-1E+10	1	-1E+10	1	-1E+10	1
4902549	114	C	10/11/2023	01:55	-133.225	47.555	0	168.30	0	5.7120	0	33.6290	0	26.507	0	166.827	0	166.5	4	54.5	4	-1E+10	1	-1E+10	1	-1E+10	1	-1E+10	1	-1E+10	1	-1E+10	1
4902549	114	C	10/11/2023	01:55	-133.225	47.555	0	169.20	0	5.7020	0	33.6340	0	26.512	0	167.718	0	165.4	4	54.2	4	-1E+10	1	-1E+10	1	-1E+10	1	-1E+10	1	-1E+10	1	-1E+10	1
4902549	114	C	10/11/2023	01:55	-133.225	47.555	0	170.10	0	5.6660	0	33.6490	0	26.528	0	168.610	0	164.5	4	53.8	4	-1E+10	1	-1E+10	1	-1E+10	1	-1E+10	1	-1E+10	1	-1E+10	1
4902549	114	C	10/11/2023	01:55	-133.225	47.555	0	171.10	0	5.6550	0	33.6520	0	26.532	0	169.601	0	163.5	4	53.5	4	-1E+10	1	-1E+10	1	-1E+10	1	-1E+10	1	-1E+10	1	-1E+10	1
4902549	114	C	10/11/2023	01:55	-133.225	47.555	0	172.00	0	5.6450	0	33.6580	0	26.538	0	170.493	0	162.5	4	53.1	4	-1E+10	1	-1E+10	1	-1E+10	1	-1E+10	1	-1E+10	1	-1E+10	1
4902549	114	C	10/11/2023	01:55	-133.225	47.555	0	172.90	0	5.6280	0	33.6640	0	26.544	0	171.384	0	161.6	4	52.8	4	-1E+10	1	-1E+10	1	-1E+10	1	-1E+10	1	-1E+10	1	-1E+10	1
4902549	114	C	10/11/2023	01:55	-133.225	47.555	0	173.80	0	5.6280	0	33.6640	0	26.544	0	172.276	0	160.5	4	52.5	4	-1E+10	1	-1E+10	1	-1E+10	1	-1E+10	1	-1E+10	1	-1E+10	1
4902549	114	C	10/11/2023	01:55	-133.225	47.555	0	174.80	0	5.6280	0	33.6650	0	26.545	0	173.267	0	159.3	4	52.1	4	-1E+10	1	-1E+10	1	-1E+10	1	-1E+10	1	-1E+10	1	-1E+10	1
4902549	114	C	10/11/2023	01:55	-133.225	47.555	0	175.70	0	5.6250	0	33.6670	0	26.547	0	174.159	0	158.0	4	51.7	4	-1E+10	1	-1E+10	1	-1E+10	1	-1E+10	1	-1E+10	1	-1E+10	1
4902549	114	C	10/11/2023	01:55	-133.225	47.555	0	176.60	0	5.6150	0	33.6750	0	26.555	0	175.050	0	156.9	4	51.3	4	-1E+10	1	-1E+10	1	-1E+10	1	-1E+10	1	-1E+10	1	-1E+10	1
4902549	114	C	10/11/2023	01:55	-133.225	47.555	0	177.90	0	5.5890	0	33.6810	0	26.563	0	176.338	0	155.3	4	50.7	4	-1E+10	1	-1E+10	1	-1E+10	1	-1E+10	1	-1E+10	1	-1E+10	1
4902549	114	C	10/11/2023	01:55	-133.225	47.555	0	179.40	0	5.6110	0	33.6910	0	26.568	0	177.825	0	153.8	4	50.3	4	-1E+10	1	-1E+10	1	-1E+10	1	-1E+10	1	-1E+10	1	-1E+10	1
4902549	114	C	10/11/2023	01:55	-133.225	47.555	0	180.30	0	5.6240	0	33.6920	0	26.567	0	178.716	0	153.0	4	50.0	4	-1E+10	1	-1E+10	1	-1E+10	1	-1E+10	1	-1E+10	1	-1E+10	1
4902549	114	C	10/11/2023	01:55	-133.225	47.555	0	181.30	0	5.6240	0	33.6920	0	26.567	0	179.707	0	152.0	4	49.7	4	-1E+10	1	-1E+10	1	-1E+10	1	-1E+10	1	-1E+10	1	-1E+10	1
4902549	114	C	10/11/2023	01:55	-133.225	47.555	0	182.20	0	5.6370	0	33.6920	0	26.566	0	180.599	0	151.4	4	49.5	4	-1E+10	1	-1E+10	1	-1E+10	1	-1E+10	1	-1E+10	1	-1E+10	1
4902549	114	C	10/11/2023	01:55	-133.225	47.555	0	183.20	0	5.6010	0	33.7010	0	26.577	0	181.590	0	150.7	4	49.3	4	-1E+10	1	-1E+10	1	-1E+10	1	-1E+10	1	-1E+10	1	-1E+10	1
4902549	114	C	10/11/2023	01:55	-133.225	47.555	0	184.10	0	5.5850	0	33.7000	0	26.578	0	182.481	0	149.9	4	49.0	4	-1E+10	1	-1E+10	1	-1E+10	1	-1E+10	1	-1E+10	1	-1E+10	1
4902549	114	C	10/11/2023	01:55	-133.225	47.555	0	185.10	0	5.5850	0	33.7000	0	26.578	0	183.472	0	149.0	4	48.7	4	-1E+10	1	-1E+10	1	-1E+10	1	-1E+10	1	-1E+10	1	-1E+10	1
4902549	114	C	10/11/2023	01:55	-133.225	47.555	0	186.00	0	5.5830	0	33.7010	0	26.579	0	184.364	0	148.1	4	48.4	4	-1E+10	1	-1E+10	1	-1E+10	1	-1E+10	1	-1E+10	1	-1E+10	1
4902549	114	C	10/11/2023	01:55	-133.225	47.555	0	187.00	0	5.5640	0	33.7060	0	26.586	0	185.354	0	147.3	4	48.1	4	-1E+10	1	-1E+10	1	-1E+10	1	-1E+10	1	-1E+10	1	-1E+10	1
4902549	114	C	10/11/2023	01:55	-133.225	47.555	0	187.90	0	5.5460	0	33.7080	0	26.589	0	186.246	0	146.6	4	47.9	4	-1E+10	1	-1E+10	1	-1E+10	1	-1E+10	1	-1E+10	1	-1E+10	1
4902549	114	C	10/11/2023	01:55	-133.225	47.555	0	188.90	0	5.5320	0	33.7080	0	26.591	0	187.237	0	145.8	4	47.6	4	-1E+10	1	-1E+10	1	-1E+10	1	-1E+10	1	-1E+10	1	-1E+10	1
4902549	114	C	10/11/2023	01:55	-133.225	47.555	0	189.90	0	5.5190	0	33.7100	0	26.594	0	188.228	0	144.8	4	47.2	4	-1E+10	1	-1E+10	1	-1E+10	1	-1E+10	1	-1E+10	1	-1E+10	1
4902549	114	C	10/11/2023	01:55	-133.225	47.555	0	190.90	0	5.5070	0	33.7100	0	26.596	0	189.218	0	143.7	4	46.9	4	-1E+10	1	-1E+10	1	-1E+10	1	-1E+10	1	-1E+10	1	-1E+10	1
4902549	114	C	10/11/2023	01:55	-133.225	47.555	0	191.80	0	5.4870	0	33.7150	0	26.602	0	190.110	0	142.7	4	46.5	4	-1E+10	1	-1E+10	1	-1E+10	1	-1E+10	1	-1E+10	1	-1E+10	1
4902549	114	C	10/11/2023	01:55	-133.225	47.555	0	192.80	0	5.4790	0	33.7180	0	26.605	0	191.101	0	141.7	4	46.2	4	-1E+10	1	-1E+10	1	-1E+10	1	-1E+10	1	-1E+10	1	-1E+10	1
4902549	114	C	10/11/2023	01:55	-133.225	47.555	0	193.70	0	5.4820	0	33.7220	0	26.608	0	191.992	0	140.9	4	45.9	4	-1E+10	1	-1E+10	1	-1E+10	1	-1E+10	1	-1E+10	1	-1E+10	1
4902549	114	C	10/11/2023	01:55	-133.225	47.555	0	194.70	0	5.4810	0	33.7240	0	26.610	0	192.983	0	140.1	4	45.7	4	-1E+10	1	-1E+10	1	-1E+10	1	-1E+10	1	-1E+10	1	-1E+10	1
4902549	114	C	10/11/2023	01:55	-133.225	47.555	0	195.70	0	5.4810	0	33.7280	0	26.613	0	193.974	0	139.4	4	45.5	4	-1E+10	1	-1E+10	1	-1E+10	1	-1E+10	1	-1E+10	1	-1E+10	1
4902549	114	C	10/11/2023	01:55	-133.225	47.555	0	196.70	0	5.4770	0	33.7290	0	26.614	0	194.964	0	138.8	4	45.3	4	-1E+10	1	-1E+10	1	-1E+10	1	-1E+10	1	-1E+10	1	-1E+10	1
4902549	114	C	10/11/2023	01:55	-133.225	47.555	0	197.60	0	5.4750	0	33.7290	0	26.614	0	195.856	0	138.2	4	45.0	4	-1E+10	1	-1E+10	1	-1E+10	1	-1E+10	1	-1E+10	1	-1E+10	1
4902549	114	C	10/11/2023	01:55	-133.225	47.555	0	198.60	0	5.4750	0	33.7290	0	26.614	0	196.847	0	137.6	4	44.8	4	-1E+10	1	-1E+10	1	-1E+10	1	-1E+10	1	-1E+10	1	-1E+10	1
4902549	114	C	10/11/2023	01:55	-133.225	47.555	0	199.50	0	5.4740	0	33.7300	0	26.615	0	197.738	0	136.8	4	44.6	4	-1E+10	1	-1E+10	1	-1E+10	1	-1E+10	1	-1E+10	1	-1E+10	1
4902549	114	C	10/11/2023	01:55	-133.225	47.555	0	200.90	0	5.4700	0	33.7290	0	26.615	0	199.125	0	135.6	4	44.2	4	-1E+10	1	-1E+10	1	-1E+10	1	-1E+10	1	-1E+10	1	-1E+10	1
4902549	114	C	10/11/2023	01:55	-133.225	47.555	0	202.40	0	5.4650	0	33.7310	0	26.617	0	200.611	0	134.5	4	43.8	4	-1E+10	1	-1E+10	1	-1E+10	1	-1E+10	1	-1E+10	1	-1E+10	1
4902549	114	C	10/11/2023	01:55	-133.225	47.555	0	203.40	0	5.4510	0	33.7300	0	26.618	0	201.602	0	133.8	4	43.6	4	-1E+10	1	-1E+10	1	-1E+10	1	-1E+10	1	-1E+10	1	-1E+10	1
4902549	114	C	10/11/2023	01:55	-133.225	47.555	0	204.40	0	5.4020	0	33.7290	0	26.623	0	202.593	0	133.2	4	43.3	4	-1E+10	1	-1E+10	1	-1E+10	1	-1E+10	1	-1E+10	1	-1E+10	1
4902549	114	C	10/11/2023	01:55	-133.225	47.555	0	205.40	0	5.3720	0	33.7370	0	26.633	0	203.583	0	132.8	4	43.2	4	-1E+10	1	-1E+10	1	-1E+10	1	-1E+10	1	-1E+10	1	-1E+10	1
4902549	114	C	10/11/2023	01:55	-133.225	47.555	0	206.30	0	5.3620	0	33.7370	0	26.634	0	204.475	0	132.3	4	43.0	4	-1E+10	1	-1E+10	1	-1E+10	1	-1E+10	1	-1E+10	1	-1E+10	1
4902549	114	C	10/11/2023	01:55	-133.225	47.555	0	207.20	0	5.3490	0	33.7380	0	26.636	0	205.367	0	131.8	4	42.8	4	-1E+10	1	-1E+10	1	-1E+10	1	-1E+10	1	-1E+10	1	-1E+10	1
4902549	114	C	10/11/2023	01:55	-133.225	47.555	0	208.10	0	5.3360	0	33.7340	0	26.635	0	206.258	0	131.0	4	42.6	4	-1E+10	1	-1E+10	1	-1E+10	1	-1E+10	1	-1E+10	1	-1E+10	1
4902549	114	C	10/11/2023	01:55	-133.225	47.555	0	209.10	0	5.2950	0	33.7340	0	26.640	0	207.249	0	130.1	4	42.2	4	-1E+10	1	-1E+10	1	-1E+10	1	-1E+10	1	-1E+10	1	-1E+10	1
4902549	114	C	10/11/2023	01:55	-133.225	47.555	0	210.00	0	5.2950	0	33.7370	0	26.642	0	208.140	0	129.3	4	42.0	4	-1E+10	1	-1E+10	1	-1E+10	1	-1E+10	1	-1E+10	1	-1E+10	1
4902549	114	C	10/11/2023	01:55	-133.225	47.555	0	211.00	0	5.2830	0	33.7410	0	26.647	0	209.131	0	128.5	4	41.7	4	-1E+10	1	-1E+10	1	-1E+10	1	-1E+10	1	-1E+10	1	-1E+10	1
4902549	114	C	10/11/2023	01:55	-133.225	47.555	0	212.00	0	5.2740	0	33.7400	0	26.647	0	210.122	0	127.8	4	41.4	4	-1E+10	1	-1E+10	1	-1E+10	1	-1E+10	1	-1E+10	1	-1E+10	1
4902549	114	C	10/11/2023	01:55	-133.225	47.555	0	212.90	0	5.2650	0	33.7390	0	26.647	0	211.013	0	126.9	4	41.2	4	-1E+10	1	-1E+10	1	-1E+10	1	-1E+10	1	-1E+10	1	-1E+10	1
4902549	114	C	10/11/2023	01:55	-133.225	47.555	0	213.90	0	5.2340	0	33.7410	0	26.652	0	212.004	0	126.1	4	40.9	4	-1E+10	1	-1E+10	1	-1E+10	1	-1E+10	1	-1E+10	1	-1E+10	1
4902549	114	C	10/11/2023	01:55	-133.225	47.555	0	214.90	0	5.2260	0	33.7420	0	26.654	0	212.995	0	125.3	4	40.6	4	-1E+10	1	-1E+10	1	-1E+10	1	-1E+10	1	-1E+10	1	-1E+10	1
4902549	114	C	10/11/2023	01:55	-133.225	47.555	0	215.90	0	5.2210	0	33.7410	0	26.654	0	213.985	0	124.3	4	40.3	4	-1E+10	1	-1E+10	1	-1E+10	1	-1E+10	1	-1E+10	1	-1E+10	1
4902549	114	C	10/11/2023	01:55	-133.225	47.555	0	216.90	0	5.2050	0	33.7440	0	26.658	0	214.976	0	123.4	4	40.0	4	-1E+10	1	-1E+10	1	-1E+10	1	-1E+10	1	-1E+10	1	-1E+10	1
4902549	114	C	10/11/2023	01:55	-133.225	47.555	0	217.90	0	5.1940	0	33.7450	0	26.660	0	215.966	0	122.4	4	39.6	4	-1E+10	1	-1E+10	1	-1E+10	1	-1E+10	1	-1E+10	1	-1E+10	1
4902549	114	C	10/11/2023	01:55	-133.225	47.555	0	218.90	0	5.1840	0	33.7470	0	26.663	0	216.957	0	121.5	4	39.3	4	-1E+10	1	-1E+10	1	-1E+10	1	-1E+10	1	-1E+10	1	-1E+10	1
4902549	114	C	10/11/2023	01:55	-133.225	47.555	0	220.00	0	5.1740	0	33.7480	0	26.665	0	218.047	0	120.4	4	39.0	4	-1E+10	1	-1E+10	1	-1E+10	1	-1E+10	1	-1E+10	1	-1E+10	1
4902549	114	C	10/11/2023	01:55	-133.225	47.555	0	221.00	0	5.1570	0	33.7500	0	26.668	0	219.037	0	119.5	4	38.7	4	-1E+10	1	-1E+10	1	-1E+10	1	-1E+10	1	-1E+10	1	-1E+10	1
4902549	114	C	10/11/2023	01:55	-133.225	47.555	0	222.00	0	5.1510	0	33.7500	0	26.669	0	220.028	0	118.5	4	38.3	4	-1E+10	1	-1E+10	1	-1E+10	1	-1E+10	1	-1E+10	1	-1E+10	1
4902549	114	C	10/11/2023	01:55	-133.225	47.555	0	223.10	0	5.1450	0	33.7510	0	26.671	0	221.117	0	117.4	4	38.0	4	-1E+10	1	-1E+10	1	-1E+10	1	-1E+10	1	-1E+10	1	-1E+10	1
4902549	114	C	10/11/2023	01:55	-133.225	47.555	0	224.10	0	5.1360	0	33.7510	0	26.672	0	222.108	0	116.3	4	37.6	4	-1E+10	1	-1E+10	1	-1E+10	1	-1E+10	1	-1E+10	1	-1E+10	1
4902549	114	C	10/11/2023	01:55	-133.225	47.555	0	225.20	0	5.1200	0	33.7520	0	26.674	0	223.198	0	115.1	4	37.2	4	-1E+10	1	-1E+10	1	-1E+10	1	-1E+10	1	-1E+10	1	-1E+10	1
4902549	114	C	10/11/2023	01:55	-133.225	47.555	0	226.20	0	5.0860	0	33.7570	0	26.682	0	224.188	0	114.2	4	36.9	4	-1E+10	1	-1E+10	1	-1E+10	1	-1E+10	1	-1E+10	1	-1E+10	1
4902549	114	C	10/11/2023	01:55	-133.225	47.555	0	227.30	0	5.0640	0	33.7590	0	26.686	0	225.278	0	113.5	4	36.7	4	-1E+10	1	-1E+10	1	-1E+10	1	-1E+10	1	-1E+10	1	-1E+10	1
4902549	114	C	10/11/2023	01:55	-133.225	47.555	0	228.30	0	5.0610	0	33.7580	0	26.686	0	226.268	0	112.8	4	36.4	4	-1E+10	1	-1E+10	1	-1E+10	1	-1E+10	1	-1E+10	1	-1E+10	1
4902549	114	C	10/11/2023	01:55	-133.225	47.555	0	229.40	0	5.0420	0	33.7610	0	26.690	0	227.358	0	112.1	4	36.2	4	-1E+10	1	-1E+10	1	-1E+10	1	-1E+10	1	-1E+10	1	-1E+10	1
4902549	114	C	10/11/2023	01:55	-133.225	47.555	0	230.40	0	5.0240	0	33.7640	0	26.695	0	228.349	0	111.6	4	36.0	4	-1E+10	1	-1E+10	1	-1E+10	1	-1E+10	1	-1E+10	1	-1E+10	1
4902549	114	C	10/11/2023	01:55	-133.225	47.555	0	231.50	0	5.0110	0	33.7640	0	26.696	0	229.438	0	111.0	4	35.8	4	-1E+10	1	-1E+10	1	-1E+10	1	-1E+10	1	-1E+10	1	-1E+10	1
4902549	114	C	10/11/2023	01:55	-133.225	47.555	0	232.60	0	5.0090	0	33.7630	0	26.696	0	230.528	0	110.3	4	35.6	4	-1E+10	1	-1E+10	1	-1E+10	1	-1E+10	1	-1E+10	1	-1E+10	1
4902549	114	C	10/11/2023	01:55	-133.225	47.555	0	233.70	0	4.9990	0	33.7650	0	26.698	0	231.617	0	109.6	4	35.3	4	-1E+10	1	-1E+10	1	-1E+10	1	-1E+10	1	-1E+10	1	-1E+10	1
4902549	114	C	10/11/2023	01:55	-133.225	47.555	0	234.70	0	4.9940	0	33.7640	0	26.698	0	232.608	0	108.9	4	35.1	4	-1E+10	1	-1E+10	1	-1E+10	1	-1E+10	1	-1E+10	1	-1E+10	1
4902549	114	C	10/11/2023	01:55	-133.225	47.555	0	235.80	0	4.9760	0	33.7670	0	26.703	0	233.697	0	108.3	4	34.9	4	-1E+10	1	-1E+10	1	-1E+10	1	-1E+10	1	-1E+10	1	-1E+10	1
4902549	114	C	10/11/2023	01:55	-133.225	47.555	0	236.90	0	4.9650	0	33.7670	0	26.704	0	234.787	0	107.8	4	34.7	4	-1E+10	1	-1E+10	1	-1E+10	1	-1E+10	1	-1E+10	1	-1E+10	1
4902549	114	C	10/11/2023	01:55	-133.225	47.555	0	237.90	0	4.9560	0	33.7680	0	26.706	0	235.777	0	107.2	4	34.5	4	-1E+10	1	-1E+10	1	-1E+10	1	-1E+10	1	-1E+10	1	-1E+10	1
4902549	114	C	10/11/2023	01:55	-133.225	47.555	0	239.00	0	4.9520	0	33.7680	0	26.706	0	236.867	0	106.6	4	34.3	4	-1E+10	1	-1E+10	1	-1E+10	1	-1E+10	1	-1E+10	1	-1E+10	1
4902549	114	C	10/11/2023	01:55	-133.225	47.555	0	240.10	0	4.9440	0	33.7690	0	26.708	0	237.957	0	105.9	4	34.1	4	-1E+10	1	-1E+10	1	-1E+10	1	-1E+10	1	-1E+10	1	-1E+10	1
4902549	114	C	10/11/2023	01:55	-133.225	47.555	0	241.10	0	4.9380	0	33.7690	0	26.709	0	238.947	0	105.3	4	33.9	4	-1E+10	1	-1E+10	1	-1E+10	1	-1E+10	1	-1E+10	1	-1E+10	1
4902549	114	C	10/11/2023	01:55	-133.225	47.555	0	242.20	0	4.9250	0	33.7700	0	26.711	0	240.037	0	104.7	4	33.7	4	-1E+10	1	-1E+10	1	-1E+10	1	-1E+10	1	-1E+10	1	-1E+10	1
4902549	114	C	10/11/2023	01:55	-133.225	47.555	0	243.30	0	4.9110	0	33.7720	0	26.714	0	241.126	0	104.2	4	33.5	4	-1E+10	1	-1E+10	1	-1E+10	1	-1E+10	1	-1E+10	1	-1E+10	1
4902549	114	C	10/11/2023	01:55	-133.225	47.555	0	244.50	0	4.9060	0	33.7740	0	26.716	0	242.315	0	103.6	4	33.3	4	-1E+10	1	-1E+10	1	-1E+10	1	-1E+10	1	-1E+10	1	-1E+10	1
4902549	114	C	10/11/2023	01:55	-133.225	47.555	0	245.60	0	4.8930	0	33.7750	0	26.718	0	243.404	0	103.2	4	33.2	4	-1E+10	1	-1E+10	1	-1E+10	1	-1E+10	1	-1E+10	1	-1E+10	1
4902549	114	C	10/11/2023	01:55	-133.225	47.555	0	246.70	0	4.8810	0	33.7760	0	26.721	0	244.494	0	102.8	4	33.1	4	-1E+10	1	-1E+10	1	-1E+10	1	-1E+10	1	-1E+10	1	-1E+10	1
4902549	114	C	10/11/2023	01:55	-133.225	47.555	0	247.80	0	4.8760	0	33.7760	0	26.721	0	245.583	0	102.4	4	32.9	4	-1E+10	1	-1E+10	1	-1E+10	1	-1E+10	1	-1E+10	1	-1E+10	1
4902549	114	C	10/11/2023	01:55	-133.225	47.555	0	249.00	0	4.8720	0	33.7760	0	26.722	0	246.772	0	102.0	4	32.8	4	-1E+10	1	-1E+10	1	-1E+10	1	-1E+10	1	-1E+10	1	-1E+10	1
4902549	114	C	10/11/2023	01:55	-133.225	47.555	0	250.10	0	4.8670	0	33.7760	0	26.722	0	247.861	0	101.5	4	32.6	4	-1E+10	1	-1E+10	1	-1E+10	1	-1E+10	1	-1E+10	1	-1E+10	1
4902549	114	C	10/11/2023	01:55	-133.225	47.555	0	251.20	0	4.8610	0	33.7770	0	26.724	0	248.951	0	101.0	4	32.5	4	-1E+10	1	-1E+10	1	-1E+10	1	-1E+10	1	-1E+10	1	-1E+10	1
4902549	114	C	10/11/2023	01:55	-133.225	47.555	0	252.40	0	4.8530	0	33.7780	0	26.725	0	250.139	0	100.6	4	32.3	4	-1E+10	1	-1E+10	1	-1E+10	1	-1E+10	1	-1E+10	1	-1E+10	1
4902549	114	C	10/11/2023	01:55	-133.225	47.555	0	253.50	0	4.8500	0	33.7780	0	26.726	0	251.229	0	100.0	4	32.1	4	-1E+10	1	-1E+10	1	-1E+10	1	-1E+10	1	-1E+10	1	-1E+10	1
4902549	114	C	10/11/2023	01:55	-133.225	47.555	0	254.60	0	4.8490	0	33.7780	0	26.726	0	252.318	0	99.4	4	31.9	4	-1E+10	1	-1E+10	1	-1E+10	1	-1E+10	1	-1E+10	1	-1E+10	1
4902549	114	C	10/11/2023	01:55	-133.225	47.555	0	255.70	0	4.8460	0	33.7780	0	26.726	0	253.408	0	98.8	4	31.7	4	-1E+10	1	-1E+10	1	-1E+10	1	-1E+10	1	-1E+10	1	-1E+10	1
4902549	114	C	10/11/2023	01:55	-133.225	47.555	0	256.90	0	4.8370	0	33.7790	0	26.728	0	254.596	0	98.1	4	31.5	4	-1E+10	1	-1E+10	1	-1E+10	1	-1E+10	1	-1E+10	1	-1E+10	1
4902549	114	C	10/11/2023	01:55	-133.225	47.555	0	258.00	0	4.8330	0	33.7800	0	26.729	0	255.686	0	97.5	4	31.3	4	-1E+10	1	-1E+10	1	-1E+10	1	-1E+10	1	-1E+10	1	-1E+10	1
4902549	114	C	10/11/2023	01:55	-133.225	47.555	0	259.00	0	4.8180	0	33.7830	0	26.733	0	256.676	0	96.9	4	31.1	4	-1E+10	1	-1E+10	1	-1E+10	1	-1E+10	1	-1E+10	1	-1E+10	1
4902549	114	C	10/11/2023	01:55	-133.225	47.555	0	260.10	0	4.8090	0	33.7850	0	26.736	0	257.766	0	96.4	4	31.0	4	-1E+10	1	-1E+10	1	-1E+10	1	-1E+10	1	-1E+10	1	-1E+10	1
4902549	114	C	10/11/2023	01:55	-133.225	47.555	0	261.20	0	4.8030	0	33.7850	0	26.736	0	258.855	0	96.0	4	30.8	4	-1E+10	1	-1E+10	1	-1E+10	1	-1E+10	1	-1E+10	1	-1E+10	1
4902549	114	C	10/11/2023	01:55	-133.225	47.555	0	262.30	0	4.7930	0	33.7870	0	26.739	0	259.944	0	95.5	4	30.7	4	-1E+10	1	-1E+10	1	-1E+10	1	-1E+10	1	-1E+10	1	-1E+10	1
4902549	114	C	10/11/2023	01:55	-133.225	47.555	0	263.40	0	4.7870	0	33.7870	0	26.740	0	261.034	0	95.2	4	30.5	4	-1E+10	1	-1E+10	1	-1E+10	1	-1E+10	1	-1E+10	1	-1E+10	1
4902549	114	C	10/11/2023	01:55	-133.225	47.555	0	264.50	0	4.7790	0	33.7900	0	26.743	0	262.123	0	94.8	4	30.4	4	-1E+10	1	-1E+10	1	-1E+10	1	-1E+10	1	-1E+10	1	-1E+10	1
4902549	114	C	10/11/2023	01:55	-133.225	47.555	0	265.60	0	4.7650	0	33.7910	0	26.745	0	263.213	0	94.4	4	30.3	4	-1E+10	1	-1E+10	1	-1E+10	1	-1E+10	1	-1E+10	1	-1E+10	1
4902549	114	C	10/11/2023	01:55	-133.225	47.555	0	266.60	0	4.7620	0	33.7900	0	26.745	0	264.203	0	94.0	4	30.1	4	-1E+10	1	-1E+10	1	-1E+10	1	-1E+10	1	-1E+10	1	-1E+10	1
4902549	114	C	10/11/2023	01:55	-133.225	47.555	0	267.70	0	4.7610	0	33.7890	0	26.744	0	265.293	0	93.5	4	30.0	4	-1E+10	1	-1E+10	1	-1E+10	1	-1E+10	1	-1E+10	1	-1E+10	1
4902549	114	C	10/11/2023	01:55	-133.225	47.555	0	268.80	0	4.7530	0	33.7900	0	26.746	0	266.382	0	92.9	4	29.8	4	-1E+10	1	-1E+10	1	-1E+10	1	-1E+10	1	-1E+10	1	-1E+10	1
4902549	114	C	10/11/2023	01:55	-133.225	47.555	0	269.90	0	4.7490	0	33.7900	0	26.746	0	267.471	0	92.3	4	29.6	4	-1E+10	1	-1E+10	1	-1E+10	1	-1E+10	1	-1E+10	1	-1E+10	1
4902549	114	C	10/11/2023	01:55	-133.225	47.555	0	270.90	0	4.7270	0	33.7940	0	26.752	0	268.462	0	91.9	4	29.4	4	-1E+10	1	-1E+10	1	-1E+10	1	-1E+10	1	-1E+10	1	-1E+10	1
4902549	114	C	10/11/2023	01:55	-133.225	47.555	0	272.00	0	4.7240	0	33.7950	0	26.753	0	269.551	0	91.4	4	29.3	4	-1E+10	1	-1E+10	1	-1E+10	1	-1E+10	1	-1E+10	1	-1E+10	1
4902549	114	C	10/11/2023	01:55	-133.225	47.555	0	273.10	0	4.7210	0	33.7950	0	26.754	0	270.640	0	90.9	4	29.1	4	-1E+10	1	-1E+10	1	-1E+10	1	-1E+10	1	-1E+10	1	-1E+10	1
4902549	114	C	10/11/2023	01:55	-133.225	47.555	0	274.10	0	4.7170	0	33.7960	0	26.755	0	271.631	0	90.4	4	28.9	4	-1E+10	1	-1E+10	1	-1E+10	1	-1E+10	1	-1E+10	1	-1E+10	1
4902549	114	C	10/11/2023	01:55	-133.225	47.555	0	275.20	0	4.7140	0	33.7960	0	26.755	0	272.720	0	89.8	4	28.8	4	-1E+10	1	-1E+10	1	-1E+10	1	-1E+10	1	-1E+10	1	-1E+10	1
4902549	114	C	10/11/2023	01:55	-133.225	47.555	0	276.30	0	4.7130	0	33.7960	0	26.755	0	273.809	0	89.2	4	28.6	4	-1E+10	1	-1E+10	1	-1E+10	1	-1E+10	1	-1E+10	1	-1E+10	1
4902549	114	C	10/11/2023	01:55	-133.225	47.555	0	277.30	0	4.7070	0	33.7970	0	26.757	0	274.800	0	88.6	4	28.4	4	-1E+10	1	-1E+10	1	-1E+10	1	-1E+10	1	-1E+10	1	-1E+10	1
4902549	114	C	10/11/2023	01:55	-133.225	47.555	0	278.40	0	4.7030	0	33.7960	0	26.756	0	275.889	0	87.9	4	28.1	4	-1E+10	1	-1E+10	1	-1E+10	1	-1E+10	1	-1E+10	1	-1E+10	1
4902549	114	C	10/11/2023	01:55	-133.225	47.555	0	279.40	0	4.6920	0	33.7990	0	26.760	0	276.879	0	87.2	4	27.9	4	-1E+10	1	-1E+10	1	-1E+10	1	-1E+10	1	-1E+10	1	-1E+10	1
4902549	114	C	10/11/2023	01:55	-133.225	47.555	0	280.50	0	4.6770	0	33.8020	0	26.764	0	277.969	0	86.6	4	27.7	4	-1E+10	1	-1E+10	1	-1E+10	1	-1E+10	1	-1E+10	1	-1E+10	1
4902549	114	C	10/11/2023	01:55	-133.225	47.555	0	281.50	0	4.6740	0	33.8020	0	26.764	0	278.959	0	85.9	4	27.5	4	-1E+10	1	-1E+10	1	-1E+10	1	-1E+10	1	-1E+10	1	-1E+10	1
4902549	114	C	10/11/2023	01:55	-133.225	47.555	0	282.50	0	4.6680	0	33.8030	0	26.766	0	279.949	0	85.3	4	27.3	4	-1E+10	1	-1E+10	1	-1E+10	1	-1E+10	1	-1E+10	1	-1E+10	1
4902549	114	C	10/11/2023	01:55	-133.225	47.555	0	283.50	0	4.6600	0	33.8040	0	26.767	0	280.940	0	84.6	4	27.1	4	-1E+10	1	-1E+10	1	-1E+10	1	-1E+10	1	-1E+10	1	-1E+10	1
4902549	114	C	10/11/2023	01:55	-133.225	47.555	0	285.00	0	4.6440	0	33.8070	0	26.772	0	282.425	0	83.6	4	26.7	4	-1E+10	1	-1E+10	1	-1E+10	1	-1E+10	1	-1E+10	1	-1E+10	1
4902549	114	C	10/11/2023	01:55	-133.225	47.555	0	286.10	0	4.6320	0	33.8100	0	26.775	0	283.514	0	83.0	4	26.5	4	-1E+10	1	-1E+10	1	-1E+10	1	-1E+10	1	-1E+10	1	-1E+10	1
4902549	114	C	10/11/2023	01:55	-133.225	47.555	0	286.90	0	4.6260	0	33.8100	0	26.776	0	284.307	0	82.5	4	26.4	4	-1E+10	1	-1E+10	1	-1E+10	1	-1E+10	1	-1E+10	1	-1E+10	1
4902549	114	C	10/11/2023	01:55	-133.225	47.555	0	287.70	0	4.6240	0	33.8110	0	26.777	0	285.099	0	82.0	4	26.2	4	-1E+10	1	-1E+10	1	-1E+10	1	-1E+10	1	-1E+10	1	-1E+10	1
4902549	114	C	10/11/2023	01:55	-133.225	47.555	0	288.90	0	4.6090	0	33.8130	0	26.780	0	286.287	0	81.5	4	26.0	4	-1E+10	1	-1E+10	1	-1E+10	1	-1E+10	1	-1E+10	1	-1E+10	1
4902549	114	C	10/11/2023	01:55	-133.225	47.555	0	290.10	0	4.6010	0	33.8160	0	26.783	0	287.476	0	80.9	4	25.8	4	-1E+10	1	-1E+10	1	-1E+10	1	-1E+10	1	-1E+10	1	-1E+10	1
4902549	114	C	10/11/2023	01:55	-133.225	47.555	0	290.90	0	4.5990	0	33.8160	0	26.784	0	288.268	0	80.5	4	25.7	4	-1E+10	1	-1E+10	1	-1E+10	1	-1E+10	1	-1E+10	1	-1E+10	1
4902549	114	C	10/11/2023	01:55	-133.225	47.555	0	291.70	0	4.5980	0	33.8160	0	26.784	0	289.060	0	80.0	4	25.6	4	-1E+10	1	-1E+10	1	-1E+10	1	-1E+10	1	-1E+10	1	-1E+10	1
4902549	114	C	10/11/2023	01:55	-133.225	47.555	0	292.90	0	4.5930	0	33.8170	0	26.785	0	290.248	0	79.4	4	25.4	4	-1E+10	1	-1E+10	1	-1E+10	1	-1E+10	1	-1E+10	1	-1E+10	1
4902549	114	C	10/11/2023	01:55	-133.225	47.555	0	294.00	0	4.5880	0	33.8180	0	26.786	0	291.338	0	78.7	4	25.1	4	-1E+10	1	-1E+10	1	-1E+10	1	-1E+10	1	-1E+10	1	-1E+10	1
4902549	114	C	10/11/2023	01:55	-133.225	47.555	0	294.80	0	4.5800	0	33.8200	0	26.789	0	292.130	0	78.2	4	25.0	4	-1E+10	1	-1E+10	1	-1E+10	1	-1E+10	1	-1E+10	1	-1E+10	1
4902549	114	C	10/11/2023	01:55	-133.225	47.555	0	296.00	0	4.5720	0	33.8210	0	26.791	0	293.318	0	77.6	4	24.8	4	-1E+10	1	-1E+10	1	-1E+10	1	-1E+10	1	-1E+10	1	-1E+10	1
4902549	114	C	10/11/2023	01:55	-133.225	47.555	0	297.20	0	4.5610	0	33.8230	0	26.793	0	294.506	0	77.0	4	24.6	4	-1E+10	1	-1E+10	1	-1E+10	1	-1E+10	1	-1E+10	1	-1E+10	1
4902549	114	C	10/11/2023	01:55	-133.225	47.555	0	298.00	0	4.5580	0	33.8230	0	26.794	0	295.298	0	76.7	4	24.5	4	-1E+10	1	-1E+10	1	-1E+10	1	-1E+10	1	-1E+10	1	-1E+10	1
4902549	114	C	10/11/2023	01:55	-133.225	47.555	0	298.80	0	4.5500	0	33.8260	0	26.797	0	296.091	0	76.3	4	24.4	4	-1E+10	1	-1E+10	1	-1E+10	1	-1E+10	1	-1E+10	1	-1E+10	1
4902549	114	C	10/11/2023	01:55	-133.225	47.555	0	300.00	0	4.5450	0	33.8270	0	26.798	0	297.279	0	75.8	4	24.2	4	-1E+10	1	-1E+10	1	-1E+10	1	-1E+10	1	-1E+10	1	-1E+10	1
4902549	114	C	10/11/2023	01:55	-133.225	47.555	0	301.20	0	4.5420	0	33.8270	0	26.799	0	298.467	0	75.2	4	24.0	4	-1E+10	1	-1E+10	1	-1E+10	1	-1E+10	1	-1E+10	1	-1E+10	1
4902549	114	C	10/11/2023	01:55	-133.225	47.555	0	302.00	0	4.5410	0	33.8280	0	26.800	0	299.259	0	74.8	4	23.9	4	-1E+10	1	-1E+10	1	-1E+10	1	-1E+10	1	-1E+10	1	-1E+10	1
4902549	114	C	10/11/2023	01:55	-133.225	47.555	0	302.80	0	4.5400	0	33.8270	0	26.799	0	300.051	0	74.4	4	23.7	4	-1E+10	1	-1E+10	1	-1E+10	1	-1E+10	1	-1E+10	1	-1E+10	1
4902549	114	C	10/11/2023	01:55	-133.225	47.555	0	304.00	0	4.5320	0	33.8290	0	26.801	0	301.240	0	73.8	4	23.5	4	-1E+10	1	-1E+10	1	-1E+10	1	-1E+10	1	-1E+10	1	-1E+10	1
4902549	114	C	10/11/2023	01:55	-133.225	47.555	0	305.20	0	4.5170	0	33.8340	0	26.807	0	302.428	0	73.2	4	23.3	4	-1E+10	1	-1E+10	1	-1E+10	1	-1E+10	1	-1E+10	1	-1E+10	1
4902549	114	C	10/11/2023	01:55	-133.225	47.555	0	306.00	0	4.5140	0	33.8340	0	26.807	0	303.220	0	72.9	4	23.2	4	-1E+10	1	-1E+10	1	-1E+10	1	-1E+10	1	-1E+10	1	-1E+10	1
4902549	114	C	10/11/2023	01:55	-133.225	47.555	0	306.80	0	4.5100	0	33.8350	0	26.808	0	304.012	0	72.5	4	23.1	4	-1E+10	1	-1E+10	1	-1E+10	1	-1E+10	1	-1E+10	1	-1E+10	1
4902549	114	C	10/11/2023	01:55	-133.225	47.555	0	307.60	0	4.5030	0	33.8370	0	26.811	0	304.804	0	72.2	4	23.0	4	-1E+10	1	-1E+10	1	-1E+10	1	-1E+10	1	-1E+10	1	-1E+10	1
4902549	114	C	10/11/2023	01:55	-133.225	47.555	0	308.90	0	4.5000	0	33.8370	0	26.811	0	306.092	0	71.7	4	22.8	4	-1E+10	1	-1E+10	1	-1E+10	1	-1E+10	1	-1E+10	1	-1E+10	1
4902549	114	C	10/11/2023	01:55	-133.225	47.555	0	310.10	0	4.4960	0	33.8390	0	26.813	0	307.280	0	71.2	4	22.7	4	-1E+10	1	-1E+10	1	-1E+10	1	-1E+10	1	-1E+10	1	-1E+10	1
4902549	114	C	10/11/2023	01:55	-133.225	47.555	0	311.00	0	4.4940	0	33.8390	0	26.813	0	308.171	0	70.8	4	22.6	4	-1E+10	1	-1E+10	1	-1E+10	1	-1E+10	1	-1E+10	1	-1E+10	1
4902549	114	C	10/11/2023	01:55	-133.225	47.555	0	311.80	0	4.4910	0	33.8400	0	26.815	0	308.963	0	70.4	4	22.4	4	-1E+10	1	-1E+10	1	-1E+10	1	-1E+10	1	-1E+10	1	-1E+10	1
4902549	114	C	10/11/2023	01:55	-133.225	47.555	0	312.70	0	4.4860	0	33.8410	0	26.816	0	309.854	0	70.0	4	22.3	4	-1E+10	1	-1E+10	1	-1E+10	1	-1E+10	1	-1E+10	1	-1E+10	1
4902549	114	C	10/11/2023	01:55	-133.225	47.555	0	313.90	0	4.4800	0	33.8430	0	26.818	0	311.042	0	69.4	4	22.1	4	-1E+10	1	-1E+10	1	-1E+10	1	-1E+10	1	-1E+10	1	-1E+10	1
4902549	114	C	10/11/2023	01:55	-133.225	47.555	0	315.20	0	4.4700	0	33.8460	0	26.822	0	312.330	0	68.9	4	22.0	4	-1E+10	1	-1E+10	1	-1E+10	1	-1E+10	1	-1E+10	1	-1E+10	1
4902549	114	C	10/11/2023	01:55	-133.225	47.555	0	316.10	0	4.4660	0	33.8480	0	26.824	0	313.221	0	68.7	4	21.9	4	-1E+10	1	-1E+10	1	-1E+10	1	-1E+10	1	-1E+10	1	-1E+10	1
4902549	114	C	10/11/2023	01:55	-133.225	47.555	0	316.90	0	4.4640	0	33.8480	0	26.824	0	314.013	0	68.4	4	21.8	4	-1E+10	1	-1E+10	1	-1E+10	1	-1E+10	1	-1E+10	1	-1E+10	1
4902549	114	C	10/11/2023	01:55	-133.225	47.555	0	317.80	0	4.4580	0	33.8500	0	26.826	0	314.904	0	68.1	4	21.7	4	-1E+10	1	-1E+10	1	-1E+10	1	-1E+10	1	-1E+10	1	-1E+10	1
4902549	114	C	10/11/2023	01:55	-133.225	47.555	0	318.60	0	4.4550	0	33.8510	0	26.827	0	315.696	0	67.8	4	21.6	4	-1E+10	1	-1E+10	1	-1E+10	1	-1E+10	1	-1E+10	1	-1E+10	1
4902549	114	C	10/11/2023	01:55	-133.225	47.555	0	319.90	0	4.4490	0	33.8520	0	26.829	0	316.983	0	67.4	4	21.4	4	-1E+10	1	-1E+10	1	-1E+10	1	-1E+10	1	-1E+10	1	-1E+10	1
4902549	114	C	10/11/2023	01:55	-133.225	47.555	0	321.30	0	4.4470	0	33.8530	0	26.830	0	318.369	0	66.8	4	21.3	4	-1E+10	1	-1E+10	1	-1E+10	1	-1E+10	1	-1E+10	1	-1E+10	1
4902549	114	C	10/11/2023	01:55	-133.225	47.555	0	322.10	0	4.4470	0	33.8530	0	26.830	0	319.161	0	66.5	4	21.2	4	-1E+10	1	-1E+10	1	-1E+10	1	-1E+10	1	-1E+10	1	-1E+10	1
4902549	114	C	10/11/2023	01:55	-133.225	47.555	0	323.00	0	4.4470	0	33.8540	0	26.830	0	320.052	0	66.2	4	21.1	4	-1E+10	1	-1E+10	1	-1E+10	1	-1E+10	1	-1E+10	1	-1E+10	1
4902549	114	C	10/11/2023	01:55	-133.225	47.555	0	323.80	0	4.4360	0	33.8570	0	26.834	0	320.845	0	65.8	4	21.0	4	-1E+10	1	-1E+10	1	-1E+10	1	-1E+10	1	-1E+10	1	-1E+10	1
4902549	114	C	10/11/2023	01:55	-133.225	47.555	0	324.70	0	4.4350	0	33.8580	0	26.835	0	321.736	0	65.5	4	20.9	4	-1E+10	1	-1E+10	1	-1E+10	1	-1E+10	1	-1E+10	1	-1E+10	1
4902549	114	C	10/11/2023	01:55	-133.225	47.555	0	325.60	0	4.4350	0	33.8580	0	26.835	0	322.627	0	65.2	4	20.7	4	-1E+10	1	-1E+10	1	-1E+10	1	-1E+10	1	-1E+10	1	-1E+10	1
4902549	114	C	10/11/2023	01:55	-133.225	47.555	0	326.90	0	4.4250	0	33.8610	0	26.838	0	323.914	0	64.7	4	20.6	4	-1E+10	1	-1E+10	1	-1E+10	1	-1E+10	1	-1E+10	1	-1E+10	1
4902549	114	C	10/11/2023	01:55	-133.225	47.555	0	328.30	0	4.4230	0	33.8620	0	26.839	0	325.300	0	64.2	4	20.4	4	-1E+10	1	-1E+10	1	-1E+10	1	-1E+10	1	-1E+10	1	-1E+10	1
4902549	114	C	10/11/2023	01:55	-133.225	47.555	0	329.20	0	4.4190	0	33.8630	0	26.841	0	326.191	0	63.8	4	20.3	4	-1E+10	1	-1E+10	1	-1E+10	1	-1E+10	1	-1E+10	1	-1E+10	1
4902549	114	C	10/11/2023	01:55	-133.225	47.555	0	330.10	0	4.4140	0	33.8650	0	26.843	0	327.082	0	63.5	4	20.2	4	-1E+10	1	-1E+10	1	-1E+10	1	-1E+10	1	-1E+10	1	-1E+10	1
4902549	114	C	10/11/2023	01:55	-133.225	47.555	0	331.00	0	4.4080	0	33.8670	0	26.845	0	327.973	0	63.2	4	20.1	4	-1E+10	1	-1E+10	1	-1E+10	1	-1E+10	1	-1E+10	1	-1E+10	1
4902549	114	C	10/11/2023	01:55	-133.225	47.555	0	331.90	0	4.4040	0	33.8680	0	26.846	0	328.864	0	62.9	4	20.0	4	-1E+10	1	-1E+10	1	-1E+10	1	-1E+10	1	-1E+10	1	-1E+10	1
4902549	114	C	10/11/2023	01:55	-133.225	47.555	0	332.80	0	4.4030	0	33.8680	0	26.846	0	329.755	0	62.7	4	19.9	4	-1E+10	1	-1E+10	1	-1E+10	1	-1E+10	1	-1E+10	1	-1E+10	1
4902549	114	C	10/11/2023	01:55	-133.225	47.555	0	333.70	0	4.3980	0	33.8700	0	26.848	0	330.646	0	62.4	4	19.8	4	-1E+10	1	-1E+10	1	-1E+10	1	-1E+10	1	-1E+10	1	-1E+10	1
4902549	114	C	10/11/2023	01:55	-133.225	47.555	0	334.60	0	4.3940	0	33.8720	0	26.850	0	331.537	0	62.1	4	19.7	4	-1E+10	1	-1E+10	1	-1E+10	1	-1E+10	1	-1E+10	1	-1E+10	1
4902549	114	C	10/11/2023	01:55	-133.225	47.555	0	335.60	0	4.3900	0	33.8740	0	26.852	0	332.527	0	61.8	4	19.7	4	-1E+10	1	-1E+10	1	-1E+10	1	-1E+10	1	-1E+10	1	-1E+10	1
4902549	114	C	10/11/2023	01:55	-133.225	47.555	0	336.90	0	4.3890	0	33.8740	0	26.853	0	333.814	0	61.4	4	19.5	4	-1E+10	1	-1E+10	1	-1E+10	1	-1E+10	1	-1E+10	1	-1E+10	1
4902549	114	C	10/11/2023	01:55	-133.225	47.555	0	338.30	0	4.3840	0	33.8760	0	26.855	0	335.200	0	61.0	4	19.4	4	-1E+10	1	-1E+10	1	-1E+10	1	-1E+10	1	-1E+10	1	-1E+10	1
4902549	114	C	10/11/2023	01:55	-133.225	47.555	0	339.20	0	4.3820	0	33.8770	0	26.856	0	336.092	0	60.8	4	19.3	4	-1E+10	1	-1E+10	1	-1E+10	1	-1E+10	1	-1E+10	1	-1E+10	1
4902549	114	C	10/11/2023	01:55	-133.225	47.555	0	340.10	0	4.3800	0	33.8780	0	26.857	0	336.983	0	60.6	4	19.3	4	-1E+10	1	-1E+10	1	-1E+10	1	-1E+10	1	-1E+10	1	-1E+10	1
4902549	114	C	10/11/2023	01:55	-133.225	47.555	0	341.00	0	4.3770	0	33.8790	0	26.858	0	337.874	0	60.3	4	19.2	4	-1E+10	1	-1E+10	1	-1E+10	1	-1E+10	1	-1E+10	1	-1E+10	1
4902549	114	C	10/11/2023	01:55	-133.225	47.555	0	341.90	0	4.3750	0	33.8810	0	26.860	0	338.765	0	60.1	4	19.1	4	-1E+10	1	-1E+10	1	-1E+10	1	-1E+10	1	-1E+10	1	-1E+10	1
4902549	114	C	10/11/2023	01:55	-133.225	47.555	0	342.80	0	4.3740	0	33.8820	0	26.861	0	339.656	0	59.8	4	19.0	4	-1E+10	1	-1E+10	1	-1E+10	1	-1E+10	1	-1E+10	1	-1E+10	1
4902549	114	C	10/11/2023	01:55	-133.225	47.555	0	343.70	0	4.3690	0	33.8840	0	26.863	0	340.547	0	59.7	4	19.0	4	-1E+10	1	-1E+10	1	-1E+10	1	-1E+10	1	-1E+10	1	-1E+10	1
4902549	114	C	10/11/2023	01:55	-133.225	47.555	0	344.60	0	4.3670	0	33.8860	0	26.865	0	341.438	0	59.5	4	18.9	4	-1E+10	1	-1E+10	1	-1E+10	1	-1E+10	1	-1E+10	1	-1E+10	1
4902549	114	C	10/11/2023	01:55	-133.225	47.555	0	345.90	0	4.3700	0	33.8890	0	26.867	0	342.725	0	59.2	4	18.8	4	-1E+10	1	-1E+10	1	-1E+10	1	-1E+10	1	-1E+10	1	-1E+10	1
4902549	114	C	10/11/2023	01:55	-133.225	47.555	0	347.40	0	4.3700	0	33.8900	0	26.867	0	344.210	0	58.9	4	18.7	4	-1E+10	1	-1E+10	1	-1E+10	1	-1E+10	1	-1E+10	1	-1E+10	1
4902549	114	C	10/11/2023	01:55	-133.225	47.555	0	348.30	0	4.3700	0	33.8900	0	26.867	0	345.101	0	58.6	4	18.6	4	-1E+10	1	-1E+10	1	-1E+10	1	-1E+10	1	-1E+10	1	-1E+10	1
4902549	114	C	10/11/2023	01:55	-133.225	47.555	0	349.20	0	4.3700	0	33.8900	0	26.867	0	345.992	0	58.4	4	18.6	4	-1E+10	1	-1E+10	1	-1E+10	1	-1E+10	1	-1E+10	1	-1E+10	1
4902549	114	C	10/11/2023	01:55	-133.225	47.555	0	350.10	0	4.3670	0	33.8910	0	26.869	0	346.883	0	58.1	4	18.5	4	-1E+10	1	-1E+10	1	-1E+10	1	-1E+10	1	-1E+10	1	-1E+10	1
4902549	114	C	10/11/2023	01:55	-133.225	47.555	0	352.80	0	4.3620	0	33.8940	0	26.871	0	349.555	0	57.3	4	18.2	4	-1E+10	1	-1E+10	1	-1E+10	1	-1E+10	1	-1E+10	1	-1E+10	1
4902549	114	C	10/11/2023	01:55	-133.225	47.555	0	358.00	0	4.3440	0	33.8990	0	26.877	0	354.703	0	55.8	4	17.7	4	-1E+10	1	-1E+10	1	-1E+10	1	-1E+10	1	-1E+10	1	-1E+10	1
4902549	114	C	10/11/2023	01:55	-133.225	47.555	0	363.20	0	4.3250	0	33.9060	0	26.885	0	359.851	0	54.4	4	17.3	4	-1E+10	1	-1E+10	1	-1E+10	1	-1E+10	1	-1E+10	1	-1E+10	1
4902549	114	C	10/11/2023	01:55	-133.225	47.555	0	367.90	0	4.3120	0	33.9130	0	26.892	0	364.503	0	53.3	4	16.9	4	-1E+10	1	-1E+10	1	-1E+10	1	-1E+10	1	-1E+10	1	-1E+10	1
4902549	114	C	10/11/2023	01:55	-133.225	47.555	0	372.70	0	4.3050	0	33.9170	0	26.896	0	369.255	0	52.3	4	16.6	4	-1E+10	1	-1E+10	1	-1E+10	1	-1E+10	1	-1E+10	1	-1E+10	1
4902549	114	C	10/11/2023	01:55	-133.225	47.555	0	377.60	0	4.2980	0	33.9220	0	26.901	0	374.105	0	51.2	4	16.3	4	-1E+10	1	-1E+10	1	-1E+10	1	-1E+10	1	-1E+10	1	-1E+10	1
4902549	114	C	10/11/2023	01:55	-133.225	47.555	0	382.50	0	4.2910	0	33.9270	0	26.905	0	378.955	0	50.1	4	15.9	4	-1E+10	1	-1E+10	1	-1E+10	1	-1E+10	1	-1E+10	1	-1E+10	1
4902549	114	C	10/11/2023	01:55	-133.225	47.555	0	387.50	0	4.2800	0	33.9340	0	26.912	0	383.904	0	48.9	4	15.5	4	-1E+10	1	-1E+10	1	-1E+10	1	-1E+10	1	-1E+10	1	-1E+10	1
4902549	114	C	10/11/2023	01:55	-133.225	47.555	0	392.50	0	4.2690	0	33.9420	0	26.920	0	388.853	0	47.9	4	15.2	4	-1E+10	1	-1E+10	1	-1E+10	1	-1E+10	1	-1E+10	1	-1E+10	1
4902549	114	C	10/11/2023	01:55	-133.225	47.555	0	397.60	0	4.2600	0	33.9480	0	26.925	0	393.901	0	47.2	4	15.0	4	-1E+10	1	-1E+10	1	-1E+10	1	-1E+10	1	-1E+10	1	-1E+10	1
4902549	114	C	10/11/2023	01:55	-133.225	47.555	0	402.70	0	4.2560	0	33.9520	0	26.929	0	398.949	0	46.5	4	14.8	4	-1E+10	1	-1E+10	1	-1E+10	1	-1E+10	1	-1E+10	1	-1E+10	1
4902549	114	C	10/11/2023	01:55	-133.225	47.555	0	407.70	0	4.2530	0	33.9560	0	26.933	0	403.897	0	45.8	4	14.5	4	-1E+10	1	-1E+10	1	-1E+10	1	-1E+10	1	-1E+10	1	-1E+10	1
4902549	114	C	10/11/2023	01:55	-133.225	47.555	0	412.80	0	4.2490	0	33.9590	0	26.935	0	408.944	0	44.8	4	14.2	4	-1E+10	1	-1E+10	1	-1E+10	1	-1E+10	1	-1E+10	1	-1E+10	1
4902549	114	C	10/11/2023	01:55	-133.225	47.555	0	417.80	0	4.2420	0	33.9650	0	26.941	0	413.893	0	43.7	4	13.9	4	-1E+10	1	-1E+10	1	-1E+10	1	-1E+10	1	-1E+10	1	-1E+10	1
4902549	114	C	10/11/2023	01:55	-133.225	47.555	0	422.70	0	4.2340	0	33.9710	0	26.947	0	418.742	0	42.6	4	13.5	4	-1E+10	1	-1E+10	1	-1E+10	1	-1E+10	1	-1E+10	1	-1E+10	1
4902549	114	C	10/11/2023	01:55	-133.225	47.555	0	427.80	0	4.2240	0	33.9800	0	26.955	0	423.789	0	41.6	4	13.2	4	-1E+10	1	-1E+10	1	-1E+10	1	-1E+10	1	-1E+10	1	-1E+10	1
4902549	114	C	10/11/2023	01:55	-133.225	47.555	0	432.90	0	4.2160	0	33.9850	0	26.960	0	428.836	0	40.7	4	12.9	4	-1E+10	1	-1E+10	1	-1E+10	1	-1E+10	1	-1E+10	1	-1E+10	1
4902549	114	C	10/11/2023	01:55	-133.225	47.555	0	438.00	0	4.2050	0	33.9940	0	26.968	0	433.883	0	40.0	4	12.7	4	-1E+10	1	-1E+10	1	-1E+10	1	-1E+10	1	-1E+10	1	-1E+10	1
4902549	114	C	10/11/2023	01:55	-133.225	47.555	0	443.10	0	4.2010	0	33.9970	0	26.971	0	438.929	0	39.5	4	12.5	4	-1E+10	1	-1E+10	1	-1E+10	1	-1E+10	1	-1E+10	1	-1E+10	1
4902549	114	C	10/11/2023	01:55	-133.225	47.555	0	447.80	0	4.1970	0	34.0000	0	26.974	0	443.580	0	39.0	4	12.3	4	-1E+10	1	-1E+10	1	-1E+10	1	-1E+10	1	-1E+10	1	-1E+10	1
4902549	114	C	10/11/2023	01:55	-133.225	47.555	0	452.80	0	4.1890	0	34.0030	0	26.977	0	448.528	0	38.3	4	12.1	4	-1E+10	1	-1E+10	1	-1E+10	1	-1E+10	1	-1E+10	1	-1E+10	1
4902549	114	C	10/11/2023	01:55	-133.225	47.555	0	458.00	0	4.1860	0	34.0060	0	26.980	0	453.673	0	37.5	4	11.9	4	-1E+10	1	-1E+10	1	-1E+10	1	-1E+10	1	-1E+10	1	-1E+10	1
4902549	114	C	10/11/2023	01:55	-133.225	47.555	0	463.20	0	4.1790	0	34.0130	0	26.986	0	458.818	0	36.4	4	11.5	4	-1E+10	1	-1E+10	1	-1E+10	1	-1E+10	1	-1E+10	1	-1E+10	1
4902549	114	C	10/11/2023	01:55	-133.225	47.555	0	468.10	0	4.1760	0	34.0200	0	26.992	0	463.666	0	35.3	4	11.2	4	-1E+10	1	-1E+10	1	-1E+10	1	-1E+10	1	-1E+10	1	-1E+10	1
4902549	114	C	10/11/2023	01:55	-133.225	47.555	0	473.00	0	4.1760	0	34.0250	0	26.996	0	468.514	0	34.3	4	10.9	4	-1E+10	1	-1E+10	1	-1E+10	1	-1E+10	1	-1E+10	1	-1E+10	1
4902549	114	C	10/11/2023	01:55	-133.225	47.555	0	478.00	0	4.1750	0	34.0300	0	27.000	0	473.461	0	33.0	4	10.5	4	-1E+10	1	-1E+10	1	-1E+10	1	-1E+10	1	-1E+10	1	-1E+10	1
4902549	114	C	10/11/2023	01:55	-133.225	47.555	0	483.00	0	4.1710	0	34.0390	0	27.008	0	478.408	0	31.5	4	10.0	4	-1E+10	1	-1E+10	1	-1E+10	1	-1E+10	1	-1E+10	1	-1E+10	1
4902549	114	C	10/11/2023	01:55	-133.225	47.555	0	488.10	0	4.1700	0	34.0470	0	27.014	0	483.454	0	31.1	4	9.9	4	-1E+10	1	-1E+10	1	-1E+10	1	-1E+10	1	-1E+10	1	-1E+10	1
4902549	114	C	10/11/2023	01:55	-133.225	47.555	0	493.20	0	4.1430	0	34.0530	0	27.022	0	488.499	0	31.0	4	9.8	4	-1E+10	1	-1E+10	1	-1E+10	1	-1E+10	1	-1E+10	1	-1E+10	1
4902549	114	C	10/11/2023	01:55	-133.225	47.555	0	497.90	0	4.1240	0	34.0560	0	27.026	0	493.149	0	30.4	4	9.6	4	-1E+10	1	-1E+10	1	-1E+10	1	-1E+10	1	-1E+10	1	-1E+10	1
4902549	114	C	10/11/2023	01:55	-133.225	47.555	0	502.80	0	4.1120	0	34.0630	0	27.033	0	497.996	0	29.7	4	9.4	4	-1E+10	1	-1E+10	1	-1E+10	1	-1E+10	1	-1E+10	1	-1E+10	1
4902549	114	C	10/11/2023	01:55	-133.225	47.555	0	507.80	0	4.1080	0	34.0660	0	27.036	0	502.942	0	28.8	4	9.1	4	-1E+10	1	-1E+10	1	-1E+10	1	-1E+10	1	-1E+10	1	-1E+10	1
4902549	114	C	10/11/2023	01:55	-133.225	47.555	0	512.70	0	4.1020	0	34.0730	0	27.042	0	507.789	0	27.9	4	8.8	4	-1E+10	1	-1E+10	1	-1E+10	1	-1E+10	1	-1E+10	1	-1E+10	1
4902549	114	C	10/11/2023	01:55	-133.225	47.555	0	517.80	0	4.0960	0	34.0770	0	27.046	0	512.834	0	27.0	4	8.5	4	-1E+10	1	-1E+10	1	-1E+10	1	-1E+10	1	-1E+10	1	-1E+10	1
4902549	114	C	10/11/2023	01:55	-133.225	47.555	0	522.80	0	4.0840	0	34.0820	0	27.051	0	517.780	0	26.0	4	8.2	4	-1E+10	1	-1E+10	1	-1E+10	1	-1E+10	1	-1E+10	1	-1E+10	1
4902549	114	C	10/11/2023	01:55	-133.225	47.555	0	528.00	0	4.0780	0	34.0880	0	27.057	0	522.924	0	24.8	4	7.8	4	-1E+10	1	-1E+10	1	-1E+10	1	-1E+10	1	-1E+10	1	-1E+10	1
4902549	114	C	10/11/2023	01:55	-133.225	47.555	0	532.80	0	4.0730	0	34.0920	0	27.060	0	527.671	0	23.9	4	7.6	4	-1E+10	1	-1E+10	1	-1E+10	1	-1E+10	1	-1E+10	1	-1E+10	1
4902549	114	C	10/11/2023	01:55	-133.225	47.555	0	538.00	0	4.0720	0	34.0960	0	27.064	0	532.815	0	22.7	4	7.2	4	-1E+10	1	-1E+10	1	-1E+10	1	-1E+10	1	-1E+10	1	-1E+10	1
4902549	114	C	10/11/2023	01:55	-133.225	47.555	0	543.20	0	4.0670	0	34.1010	0	27.068	0	537.958	0	22.0	4	6.9	4	-1E+10	1	-1E+10	1	-1E+10	1	-1E+10	1	-1E+10	1	-1E+10	1
4902549	114	C	10/11/2023	01:55	-133.225	47.555	0	547.90	0	4.0630	0	34.1040	0	27.071	0	542.606	0	21.5	4	6.8	4	-1E+10	1	-1E+10	1	-1E+10	1	-1E+10	1	-1E+10	1	-1E+10	1
4902549	114	C	10/11/2023	01:55	-133.225	47.555	0	552.70	0	4.0550	0	34.1060	0	27.074	0	547.354	0	20.8	4	6.6	4	-1E+10	1	-1E+10	1	-1E+10	1	-1E+10	1	-1E+10	1	-1E+10	1
4902549	114	C	10/11/2023	01:55	-133.225	47.555	0	558.00	0	4.0410	0	34.1130	0	27.081	0	552.595	0	20.1	4	6.4	4	-1E+10	1	-1E+10	1	-1E+10	1	-1E+10	1	-1E+10	1	-1E+10	1
4902549	114	C	10/11/2023	01:55	-133.225	47.555	0	563.40	0	4.0230	0	34.1200	0	27.088	0	557.936	0	19.7	4	6.2	4	-1E+10	1	-1E+10	1	-1E+10	1	-1E+10	1	-1E+10	1	-1E+10	1
4902549	114	C	10/11/2023	01:55	-133.225	47.555	0	568.30	0	4.0140	0	34.1240	0	27.092	0	562.782	0	19.3	4	6.1	4	-1E+10	1	-1E+10	1	-1E+10	1	-1E+10	1	-1E+10	1	-1E+10	1
4902549	114	C	10/11/2023	01:55	-133.225	47.555	0	573.20	0	4.0010	0	34.1280	0	27.097	0	567.627	0	19.0	4	6.0	4	-1E+10	1	-1E+10	1	-1E+10	1	-1E+10	1	-1E+10	1	-1E+10	1
4902549	114	C	10/11/2023	01:55	-133.225	47.555	0	578.30	0	3.9830	0	34.1330	0	27.103	0	572.671	0	18.7	4	5.9	4	-1E+10	1	-1E+10	1	-1E+10	1	-1E+10	1	-1E+10	1	-1E+10	1
4902549	114	C	10/11/2023	01:55	-133.225	47.555	0	583.30	0	3.9760	0	34.1340	0	27.104	0	577.615	0	18.4	4	5.8	4	-1E+10	1	-1E+10	1	-1E+10	1	-1E+10	1	-1E+10	1	-1E+10	1
4902549	114	C	10/11/2023	01:55	-133.225	47.555	0	587.90	0	3.9510	0	34.1400	0	27.111	0	582.164	0	18.2	4	5.7	4	-1E+10	1	-1E+10	1	-1E+10	1	-1E+10	1	-1E+10	1	-1E+10	1
4902549	114	C	10/11/2023	01:55	-133.225	47.555	0	592.50	0	3.9340	0	34.1450	0	27.117	0	586.712	0	18.0	4	5.7	4	-1E+10	1	-1E+10	1	-1E+10	1	-1E+10	1	-1E+10	1	-1E+10	1
4902549	114	C	10/11/2023	01:55	-133.225	47.555	0	597.70	0	3.9270	0	34.1460	0	27.119	0	591.854	0	17.8	4	5.6	4	-1E+10	1	-1E+10	1	-1E+10	1	-1E+10	1	-1E+10	1	-1E+10	1
4902549	114	C	10/11/2023	01:55	-133.225	47.555	0	602.80	0	3.9190	0	34.1490	0	27.122	0	596.897	0	17.6	4	5.6	4	-1E+10	1	-1E+10	1	-1E+10	1	-1E+10	1	-1E+10	1	-1E+10	1
4902549	114	C	10/11/2023	01:55	-133.225	47.555	0	608.00	0	3.9040	0	34.1520	0	27.126	0	602.039	0	17.4	4	5.5	4	-1E+10	1	-1E+10	1	-1E+10	1	-1E+10	1	-1E+10	1	-1E+10	1
4902549	114	C	10/11/2023	01:55	-133.225	47.555	0	613.20	0	3.8880	0	34.1570	0	27.131	0	607.180	0	17.2	4	5.4	4	-1E+10	1	-1E+10	1	-1E+10	1	-1E+10	1	-1E+10	1	-1E+10	1
4902549	114	C	10/11/2023	01:55	-133.225	47.555	0	617.90	0	3.8760	0	34.1590	0	27.134	0	611.827	0	17.0	4	5.3	4	-1E+10	1	-1E+10	1	-1E+10	1	-1E+10	1	-1E+10	1	-1E+10	1
4902549	114	C	10/11/2023	01:55	-133.225	47.555	0	622.60	0	3.8570	0	34.1630	0	27.139	0	616.474	0	16.7	4	5.3	4	-1E+10	1	-1E+10	1	-1E+10	1	-1E+10	1	-1E+10	1	-1E+10	1
4902549	114	C	10/11/2023	01:55	-133.225	47.555	0	627.80	0	3.8460	0	34.1670	0	27.144	0	621.615	0	16.4	4	5.2	4	-1E+10	1	-1E+10	1	-1E+10	1	-1E+10	1	-1E+10	1	-1E+10	1
4902549	114	C	10/11/2023	01:55	-133.225	47.555	0	633.00	0	3.8330	0	34.1700	0	27.147	0	626.756	0	16.2	4	5.1	4	-1E+10	1	-1E+10	1	-1E+10	1	-1E+10	1	-1E+10	1	-1E+10	1
4902549	114	C	10/11/2023	01:55	-133.225	47.555	0	638.20	0	3.8240	0	34.1740	0	27.152	0	631.897	0	16.0	4	5.0	4	-1E+10	1	-1E+10	1	-1E+10	1	-1E+10	1	-1E+10	1	-1E+10	1
4902549	114	C	10/11/2023	01:55	-133.225	47.555	0	643.40	0	3.8140	0	34.1770	0	27.155	0	637.037	0	15.7	4	4.9	4	-1E+10	1	-1E+10	1	-1E+10	1	-1E+10	1	-1E+10	1	-1E+10	1
4902549	114	C	10/11/2023	01:55	-133.225	47.555	0	648.20	0	3.8080	0	34.1800	0	27.158	0	641.783	0	15.5	4	4.9	4	-1E+10	1	-1E+10	1	-1E+10	1	-1E+10	1	-1E+10	1	-1E+10	1
4902549	114	C	10/11/2023	01:55	-133.225	47.555	0	653.10	0	3.8010	0	34.1830	0	27.161	0	646.626	0	15.2	4	4.8	4	-1E+10	1	-1E+10	1	-1E+10	1	-1E+10	1	-1E+10	1	-1E+10	1
4902549	114	C	10/11/2023	01:55	-133.225	47.555	0	658.00	0	3.7920	0	34.1860	0	27.164	0	651.470	0	14.9	4	4.7	4	-1E+10	1	-1E+10	1	-1E+10	1	-1E+10	1	-1E+10	1	-1E+10	1
4902549	114	C	10/11/2023	01:55	-133.225	47.555	0	663.10	0	3.7860	0	34.1890	0	27.168	0	656.512	0	14.6	4	4.6	4	-1E+10	1	-1E+10	1	-1E+10	1	-1E+10	1	-1E+10	1	-1E+10	1
4902549	114	C	10/11/2023	01:55	-133.225	47.555	0	667.90	0	3.7800	0	34.1940	0	27.172	0	661.256	0	14.3	4	4.5	4	-1E+10	1	-1E+10	1	-1E+10	1	-1E+10	1	-1E+10	1	-1E+10	1
4902549	114	C	10/11/2023	01:55	-133.225	47.555	0	672.80	0	3.7670	0	34.1970	0	27.176	0	666.100	0	14.2	4	4.4	4	-1E+10	1	-1E+10	1	-1E+10	1	-1E+10	1	-1E+10	1	-1E+10	1
4902549	114	C	10/11/2023	01:55	-133.225	47.555	0	678.10	0	3.7560	0	34.2000	0	27.179	0	671.338	0	13.9	4	4.4	4	-1E+10	1	-1E+10	1	-1E+10	1	-1E+10	1	-1E+10	1	-1E+10	1
4902549	114	C	10/11/2023	01:55	-133.225	47.555	0	683.10	0	3.7430	0	34.2020	0	27.182	0	676.280	0	13.7	4	4.3	4	-1E+10	1	-1E+10	1	-1E+10	1	-1E+10	1	-1E+10	1	-1E+10	1
4902549	114	C	10/11/2023	01:55	-133.225	47.555	0	688.00	0	3.7250	0	34.2060	0	27.187	0	681.124	0	13.3	4	4.2	4	-1E+10	1	-1E+10	1	-1E+10	1	-1E+10	1	-1E+10	1	-1E+10	1
4902549	114	C	10/11/2023	01:55	-133.225	47.555	0	693.00	0	3.7170	0	34.2090	0	27.190	0	686.065	0	12.7	4	4.0	4	-1E+10	1	-1E+10	1	-1E+10	1	-1E+10	1	-1E+10	1	-1E+10	1
4902549	114	C	10/11/2023	01:55	-133.225	47.555	0	698.00	0	3.7240	0	34.2160	0	27.195	0	691.007	0	12.0	4	3.8	4	-1E+10	1	-1E+10	1	-1E+10	1	-1E+10	1	-1E+10	1	-1E+10	1
4902549	114	C	10/11/2023	01:55	-133.225	47.555	0	703.10	0	3.7240	0	34.2200	0	27.199	0	696.047	0	11.6	4	3.6	4	-1E+10	1	-1E+10	1	-1E+10	1	-1E+10	1	-1E+10	1	-1E+10	1
4902549	114	C	10/11/2023	01:55	-133.225	47.555	0	707.80	0	3.7200	0	34.2230	0	27.201	0	700.692	0	11.3	4	3.5	4	-1E+10	1	-1E+10	1	-1E+10	1	-1E+10	1	-1E+10	1	-1E+10	1
4902549	114	C	10/11/2023	01:55	-133.225	47.555	0	712.90	0	3.7020	0	34.2280	0	27.207	0	705.733	0	10.8	4	3.4	4	-1E+10	1	-1E+10	1	-1E+10	1	-1E+10	1	-1E+10	1	-1E+10	1
4902549	114	C	10/11/2023	01:55	-133.225	47.555	0	718.10	0	3.7000	0	34.2330	0	27.211	0	710.871	0	10.5	4	3.3	4	-1E+10	1	-1E+10	1	-1E+10	1	-1E+10	1	-1E+10	1	-1E+10	1
4902549	114	C	10/11/2023	01:55	-133.225	47.555	0	722.80	0	3.6930	0	34.2350	0	27.214	0	715.516	0	10.2	4	3.2	4	-1E+10	1	-1E+10	1	-1E+10	1	-1E+10	1	-1E+10	1	-1E+10	1
4902549	114	C	10/11/2023	01:55	-133.225	47.555	0	727.60	0	3.6810	0	34.2390	0	27.218	0	720.259	0	10.0	4	3.1	4	-1E+10	1	-1E+10	1	-1E+10	1	-1E+10	1	-1E+10	1	-1E+10	1
4902549	114	C	10/11/2023	01:55	-133.225	47.555	0	732.80	0	3.6710	0	34.2420	0	27.222	0	725.398	0	9.7	4	3.0	4	-1E+10	1	-1E+10	1	-1E+10	1	-1E+10	1	-1E+10	1	-1E+10	1
4902549	114	C	10/11/2023	01:55	-133.225	47.555	0	738.00	0	3.6650	0	34.2450	0	27.225	0	730.536	0	9.4	4	2.9	4	-1E+10	1	-1E+10	1	-1E+10	1	-1E+10	1	-1E+10	1	-1E+10	1
4902549	114	C	10/11/2023	01:55	-133.225	47.555	0	742.80	0	3.6490	0	34.2490	0	27.229	0	735.279	0	9.2	4	2.9	4	-1E+10	1	-1E+10	1	-1E+10	1	-1E+10	1	-1E+10	1	-1E+10	1
4902549	114	C	10/11/2023	01:55	-133.225	47.555	0	747.60	0	3.6390	0	34.2520	0	27.233	0	740.022	0	9.0	4	2.8	4	-1E+10	1	-1E+10	1	-1E+10	1	-1E+10	1	-1E+10	1	-1E+10	1
4902549	114	C	10/11/2023	01:55	-133.225	47.555	0	752.90	0	3.6240	0	34.2550	0	27.237	0	745.259	0	8.8	4	2.8	4	-1E+10	1	-1E+10	1	-1E+10	1	-1E+10	1	-1E+10	1	-1E+10	1
4902549	114	C	10/11/2023	01:55	-133.225	47.555	0	758.20	0	3.6100	0	34.2590	0	27.241	0	750.496	0	8.6	4	2.7	4	-1E+10	1	-1E+10	1	-1E+10	1	-1E+10	1	-1E+10	1	-1E+10	1
4902549	114	C	10/11/2023	01:55	-133.225	47.555	0	763.20	0	3.5980	0	34.2630	0	27.246	0	755.436	0	8.4	4	2.6	4	-1E+10	1	-1E+10	1	-1E+10	1	-1E+10	1	-1E+10	1	-1E+10	1
4902549	114	C	10/11/2023	01:55	-133.225	47.555	0	768.20	0	3.5890	0	34.2660	0	27.249	0	760.376	0	8.2	4	2.6	4	-1E+10	1	-1E+10	1	-1E+10	1	-1E+10	1	-1E+10	1	-1E+10	1
4902549	114	C	10/11/2023	01:55	-133.225	47.555	0	773.30	0	3.5810	0	34.2690	0	27.252	0	765.415	0	8.1	4	2.5	4	-1E+10	1	-1E+10	1	-1E+10	1	-1E+10	1	-1E+10	1	-1E+10	1
4902549	114	C	10/11/2023	01:55	-133.225	47.555	0	777.90	0	3.5760	0	34.2720	0	27.255	0	769.959	0	7.9	4	2.5	4	-1E+10	1	-1E+10	1	-1E+10	1	-1E+10	1	-1E+10	1	-1E+10	1
4902549	114	C	10/11/2023	01:55	-133.225	47.555	0	782.50	0	3.5740	0	34.2740	0	27.257	0	774.504	0	7.9	4	2.5	4	-1E+10	1	-1E+10	1	-1E+10	1	-1E+10	1	-1E+10	1	-1E+10	1
4902549	114	C	10/11/2023	01:55	-133.225	47.555	0	787.70	0	3.5660	0	34.2750	0	27.258	0	779.641	0	7.8	4	2.4	4	-1E+10	1	-1E+10	1	-1E+10	1	-1E+10	1	-1E+10	1	-1E+10	1
4902549	114	C	10/11/2023	01:55	-133.225	47.555	0	792.90	0	3.5490	0	34.2790	0	27.263	0	784.778	0	7.6	4	2.4	4	-1E+10	1	-1E+10	1	-1E+10	1	-1E+10	1	-1E+10	1	-1E+10	1
4902549	114	C	10/11/2023	01:55	-133.225	47.555	0	797.90	0	3.5450	0	34.2830	0	27.267	0	789.717	0	7.4	4	2.3	4	-1E+10	1	-1E+10	1	-1E+10	1	-1E+10	1	-1E+10	1	-1E+10	1
4902549	114	C	10/11/2023	01:55	-133.225	47.555	0	803.00	0	3.5470	0	34.2870	0	27.270	0	794.755	0	7.2	4	2.3	4	-1E+10	1	-1E+10	1	-1E+10	1	-1E+10	1	-1E+10	1	-1E+10	1
4902549	114	C	10/11/2023	01:55	-133.225	47.555	0	808.20	0	3.5360	0	34.2890	0	27.273	0	799.892	0	7.2	4	2.2	4	-1E+10	1	-1E+10	1	-1E+10	1	-1E+10	1	-1E+10	1	-1E+10	1
4902549	114	C	10/11/2023	01:55	-133.225	47.555	0	813.00	0	3.5200	0	34.2920	0	27.277	0	804.633	0	7.1	4	2.2	4	-1E+10	1	-1E+10	1	-1E+10	1	-1E+10	1	-1E+10	1	-1E+10	1
4902549	114	C	10/11/2023	01:55	-133.225	47.555	0	818.00	0	3.5120	0	34.2940	0	27.279	0	809.572	0	6.9	4	2.2	4	-1E+10	1	-1E+10	1	-1E+10	1	-1E+10	1	-1E+10	1	-1E+10	1
4902549	114	C	10/11/2023	01:55	-133.225	47.555	0	823.20	0	3.5040	0	34.2970	0	27.282	0	814.708	0	6.8	4	2.1	4	-1E+10	1	-1E+10	1	-1E+10	1	-1E+10	1	-1E+10	1	-1E+10	1
4902549	114	C	10/11/2023	01:55	-133.225	47.555	0	827.90	0	3.5010	0	34.3000	0	27.285	0	819.351	0	6.7	4	2.1	4	-1E+10	1	-1E+10	1	-1E+10	1	-1E+10	1	-1E+10	1	-1E+10	1
4902549	114	C	10/11/2023	01:55	-133.225	47.555	0	832.80	0	3.5020	0	34.3030	0	27.287	0	824.190	0	6.6	4	2.1	4	-1E+10	1	-1E+10	1	-1E+10	1	-1E+10	1	-1E+10	1	-1E+10	1
4902549	114	C	10/11/2023	01:55	-133.225	47.555	0	838.10	0	3.4950	0	34.3070	0	27.291	0	829.425	0	6.5	4	2.0	4	-1E+10	1	-1E+10	1	-1E+10	1	-1E+10	1	-1E+10	1	-1E+10	1
4902549	114	C	10/11/2023	01:55	-133.225	47.555	0	843.00	0	3.4860	0	34.3100	0	27.294	0	834.265	0	6.5	4	2.0	4	-1E+10	1	-1E+10	1	-1E+10	1	-1E+10	1	-1E+10	1	-1E+10	1
4902549	114	C	10/11/2023	01:55	-133.225	47.555	0	847.90	0	3.4810	0	34.3130	0	27.297	0	839.104	0	6.4	4	2.0	4	-1E+10	1	-1E+10	1	-1E+10	1	-1E+10	1	-1E+10	1	-1E+10	1
4902549	114	C	10/11/2023	01:55	-133.225	47.555	0	852.80	0	3.4710	0	34.3170	0	27.302	0	843.943	0	6.4	4	2.0	4	-1E+10	1	-1E+10	1	-1E+10	1	-1E+10	1	-1E+10	1	-1E+10	1
4902549	114	C	10/11/2023	01:55	-133.225	47.555	0	857.80	0	3.4660	0	34.3210	0	27.305	0	848.881	0	6.3	4	2.0	4	-1E+10	1	-1E+10	1	-1E+10	1	-1E+10	1	-1E+10	1	-1E+10	1
4902549	114	C	10/11/2023	01:55	-133.225	47.555	0	862.90	0	3.4590	0	34.3240	0	27.308	0	853.918	0	6.4	4	2.0	4	-1E+10	1	-1E+10	1	-1E+10	1	-1E+10	1	-1E+10	1	-1E+10	1
4902549	114	C	10/11/2023	01:55	-133.225	47.555	0	867.50	0	3.4370	0	34.3260	0	27.312	0	858.461	0	6.4	4	2.0	4	-1E+10	1	-1E+10	1	-1E+10	1	-1E+10	1	-1E+10	1	-1E+10	1
4902549	114	C	10/11/2023	01:55	-133.225	47.555	0	872.70	0	3.4080	0	34.3290	0	27.317	0	863.596	0	6.4	4	2.0	4	-1E+10	1	-1E+10	1	-1E+10	1	-1E+10	1	-1E+10	1	-1E+10	1
4902549	114	C	10/11/2023	01:55	-133.225	47.555	0	877.80	0	3.3970	0	34.3320	0	27.321	0	868.632	0	6.3	4	2.0	4	-1E+10	1	-1E+10	1	-1E+10	1	-1E+10	1	-1E+10	1	-1E+10	1
4902549	114	C	10/11/2023	01:55	-133.225	47.555	0	882.50	0	3.4060	0	34.3370	0	27.324	0	873.273	0	6.3	4	1.9	4	-1E+10	1	-1E+10	1	-1E+10	1	-1E+10	1	-1E+10	1	-1E+10	1
4902549	114	C	10/11/2023	01:55	-133.225	47.555	0	887.90	0	3.3970	0	34.3370	0	27.325	0	878.605	0	6.4	4	2.0	4	-1E+10	1	-1E+10	1	-1E+10	1	-1E+10	1	-1E+10	1	-1E+10	1
4902549	114	C	10/11/2023	01:55	-133.225	47.555	0	893.30	0	3.3890	0	34.3370	0	27.326	0	883.937	0	6.5	4	2.0	4	-1E+10	1	-1E+10	1	-1E+10	1	-1E+10	1	-1E+10	1	-1E+10	1
4902549	114	C	10/11/2023	01:55	-133.225	47.555	0	897.80	0	3.3650	0	34.3360	0	27.327	0	888.380	0	6.5	4	2.0	4	-1E+10	1	-1E+10	1	-1E+10	1	-1E+10	1	-1E+10	1	-1E+10	1
4902549	114	C	10/11/2023	01:55	-133.225	47.555	0	902.80	0	3.3570	0	34.3390	0	27.330	0	893.317	0	6.5	4	2.0	4	-1E+10	1	-1E+10	1	-1E+10	1	-1E+10	1	-1E+10	1	-1E+10	1
4902549	114	C	10/11/2023	01:55	-133.225	47.555	0	907.80	0	3.3520	0	34.3410	0	27.332	0	898.254	0	6.6	4	2.1	4	-1E+10	1	-1E+10	1	-1E+10	1	-1E+10	1	-1E+10	1	-1E+10	1
4902549	114	C	10/11/2023	01:55	-133.225	47.555	0	912.90	0	3.3230	0	34.3400	0	27.334	0	903.289	0	6.7	4	2.1	4	-1E+10	1	-1E+10	1	-1E+10	1	-1E+10	1	-1E+10	1	-1E+10	1
4902549	114	C	10/11/2023	01:55	-133.225	47.555	0	918.10	0	3.3140	0	34.3400	0	27.335	0	908.423	0	6.7	4	2.1	4	-1E+10	1	-1E+10	1	-1E+10	1	-1E+10	1	-1E+10	1	-1E+10	1
4902549	114	C	10/11/2023	01:55	-133.225	47.555	0	922.60	0	3.3040	0	34.3400	0	27.336	0	912.866	0	6.7	4	2.1	4	-1E+10	1	-1E+10	1	-1E+10	1	-1E+10	1	-1E+10	1	-1E+10	1
4902549	114	C	10/11/2023	01:55	-133.225	47.555	0	927.70	0	3.3080	0	34.3450	0	27.340	0	917.901	0	6.7	4	2.1	4	-1E+10	1	-1E+10	1	-1E+10	1	-1E+10	1	-1E+10	1	-1E+10	1
4902549	114	C	10/11/2023	01:55	-133.225	47.555	0	933.00	0	3.2860	0	34.3440	0	27.341	0	923.134	0	6.7	4	2.1	4	-1E+10	1	-1E+10	1	-1E+10	1	-1E+10	1	-1E+10	1	-1E+10	1
4902549	114	C	10/11/2023	01:55	-133.225	47.555	0	938.20	0	3.2780	0	34.3470	0	27.344	0	928.267	0	6.7	4	2.1	4	-1E+10	1	-1E+10	1	-1E+10	1	-1E+10	1	-1E+10	1	-1E+10	1
4902549	114	C	10/11/2023	01:55	-133.225	47.555	0	942.90	0	3.2710	0	34.3490	0	27.347	0	932.907	0	6.7	4	2.1	4	-1E+10	1	-1E+10	1	-1E+10	1	-1E+10	1	-1E+10	1	-1E+10	1
4902549	114	C	10/11/2023	01:55	-133.225	47.555	0	947.90	0	3.2640	0	34.3510	0	27.349	0	937.843	0	6.7	4	2.1	4	-1E+10	1	-1E+10	1	-1E+10	1	-1E+10	1	-1E+10	1	-1E+10	1
4902549	114	C	10/11/2023	01:55	-133.225	47.555	0	953.30	0	3.2560	0	34.3520	0	27.350	0	943.173	0	6.7	4	2.1	4	-1E+10	1	-1E+10	1	-1E+10	1	-1E+10	1	-1E+10	1	-1E+10	1
4902549	114	C	10/11/2023	01:55	-133.225	47.555	0	958.20	0	3.2540	0	34.3540	0	27.352	0	948.010	0	6.7	4	2.1	4	-1E+10	1	-1E+10	1	-1E+10	1	-1E+10	1	-1E+10	1	-1E+10	1
4902549	114	C	10/11/2023	01:55	-133.225	47.555	0	963.10	0	3.2420	0	34.3550	0	27.354	0	952.847	0	6.7	4	2.1	4	-1E+10	1	-1E+10	1	-1E+10	1	-1E+10	1	-1E+10	1	-1E+10	1
4902549	114	C	10/11/2023	01:55	-133.225	47.555	0	968.10	0	3.2330	0	34.3560	0	27.356	0	957.782	0	6.7	4	2.1	4	-1E+10	1	-1E+10	1	-1E+10	1	-1E+10	1	-1E+10	1	-1E+10	1
4902549	114	C	10/11/2023	01:55	-133.225	47.555	0	973.10	0	3.2170	0	34.3560	0	27.357	0	962.717	0	6.7	4	2.1	4	-1E+10	1	-1E+10	1	-1E+10	1	-1E+10	1	-1E+10	1	-1E+10	1
4902549	114	C	10/11/2023	01:55	-133.225	47.555	0	978.00	0	3.2110	0	34.3580	0	27.359	0	967.554	0	6.7	4	2.1	4	-1E+10	1	-1E+10	1	-1E+10	1	-1E+10	1	-1E+10	1	-1E+10	1
4902549	114	C	10/11/2023	01:55	-133.225	47.555	0	982.90	0	3.2070	0	34.3600	0	27.361	0	972.390	0	6.6	4	2.0	4	-1E+10	1	-1E+10	1	-1E+10	1	-1E+10	1	-1E+10	1	-1E+10	1
4902549	114	C	10/11/2023	01:55	-133.225	47.555	0	987.80	0	3.2280	0	34.3650	0	27.364	0	977.226	0	6.5	4	2.0	4	-1E+10	1	-1E+10	1	-1E+10	1	-1E+10	1	-1E+10	1	-1E+10	1
4902549	114	C	10/11/2023	01:55	-133.225	47.555	0	992.60	0	3.2280	0	34.3690	0	27.367	0	981.964	0	6.5	4	2.0	4	-1E+10	1	-1E+10	1	-1E+10	1	-1E+10	1	-1E+10	1	-1E+10	1
4902549	114	C	10/11/2023	01:55	-133.225	47.555	0	998.00	0	3.2180	0	34.3710	0	27.369	0	987.293	0	6.5	4	2.0	4	-1E+10	1	-1E+10	1	-1E+10	1	-1E+10	1	-1E+10	1	-1E+10	1
4902549	114	C	10/11/2023	01:55	-133.225	47.555	0	1005.50	0	3.2040	0	34.3730	0	27.372	0	994.695	0	6.6	4	2.1	4	-1E+10	1	-1E+10	1	-1E+10	1	-1E+10	1	-1E+10	1	-1E+10	1
4902549	114	C	10/11/2023	01:55	-133.225	47.555	0	1015.20	0	3.1770	0	34.3760	0	27.377	0	1004.267	0	6.7	4	2.1	4	-1E+10	1	-1E+10	1	-1E+10	1	-1E+10	1	-1E+10	1	-1E+10	1
4902549	114	C	10/11/2023	01:55	-133.225	47.555	0	1025.00	0	3.1440	0	34.3780	0	27.382	0	1013.938	0	6.8	4	2.1	4	-1E+10	1	-1E+10	1	-1E+10	1	-1E+10	1	-1E+10	1	-1E+10	1
4902549	114	C	10/11/2023	01:55	-133.225	47.555	0	1035.30	0	3.1100	0	34.3810	0	27.387	0	1024.102	0	7.0	4	2.2	4	-1E+10	1	-1E+10	1	-1E+10	1	-1E+10	1	-1E+10	1	-1E+10	1
4902549	114	C	10/11/2023	01:55	-133.225	47.555	0	1045.30	0	3.0750	0	34.3830	0	27.392	0	1033.969	0	7.1	4	2.2	4	-1E+10	1	-1E+10	1	-1E+10	1	-1E+10	1	-1E+10	1	-1E+10	1
4902549	114	C	10/11/2023	01:55	-133.225	47.555	0	1055.50	0	3.0470	0	34.3870	0	27.398	0	1044.033	0	7.2	4	2.2	4	-1E+10	1	-1E+10	1	-1E+10	1	-1E+10	1	-1E+10	1	-1E+10	1
4902549	114	C	10/11/2023	01:55	-133.225	47.555	0	1065.40	0	3.0170	0	34.3900	0	27.403	0	1053.801	0	7.3	4	2.2	4	-1E+10	1	-1E+10	1	-1E+10	1	-1E+10	1	-1E+10	1	-1E+10	1
4902549	114	C	10/11/2023	01:55	-133.225	47.555	0	1075.40	0	2.9980	0	34.3920	0	27.407	0	1063.666	0	7.3	4	2.3	4	-1E+10	1	-1E+10	1	-1E+10	1	-1E+10	1	-1E+10	1	-1E+10	1
4902549	114	C	10/11/2023	01:55	-133.225	47.555	0	1085.30	0	2.9910	0	34.3950	0	27.410	0	1073.433	0	7.4	4	2.3	4	-1E+10	1	-1E+10	1	-1E+10	1	-1E+10	1	-1E+10	1	-1E+10	1
4902549	114	C	10/11/2023	01:55	-133.225	47.555	0	1095.20	0	2.9780	0	34.3990	0	27.414	0	1083.199	0	7.5	4	2.3	4	-1E+10	1	-1E+10	1	-1E+10	1	-1E+10	1	-1E+10	1	-1E+10	1
4902549	114	C	10/11/2023	01:55	-133.225	47.555	0	1105.20	0	2.9600	0	34.4020	0	27.418	0	1093.064	0	7.6	4	2.3	4	-1E+10	1	-1E+10	1	-1E+10	1	-1E+10	1	-1E+10	1	-1E+10	1
4902549	114	C	10/11/2023	01:55	-133.225	47.555	0	1115.20	0	2.9310	0	34.4030	0	27.422	0	1102.928	0	7.8	4	2.4	4	-1E+10	1	-1E+10	1	-1E+10	1	-1E+10	1	-1E+10	1	-1E+10	1
4902549	114	C	10/11/2023	01:55	-133.225	47.555	0	1125.20	0	2.9110	0	34.4080	0	27.427	0	1112.791	0	7.9	4	2.4	4	-1E+10	1	-1E+10	1	-1E+10	1	-1E+10	1	-1E+10	1	-1E+10	1
4902549	114	C	10/11/2023	01:55	-133.225	47.555	0	1135.40	0	2.8870	0	34.4120	0	27.433	0	1122.851	0	8.1	4	2.5	4	-1E+10	1	-1E+10	1	-1E+10	1	-1E+10	1	-1E+10	1	-1E+10	1
4902549	114	C	10/11/2023	01:55	-133.225	47.555	0	1145.70	0	2.8830	0	34.4160	0	27.436	0	1133.010	0	8.3	4	2.6	4	-1E+10	1	-1E+10	1	-1E+10	1	-1E+10	1	-1E+10	1	-1E+10	1
4902549	114	C	10/11/2023	01:55	-133.225	47.555	0	1155.30	0	2.8760	0	34.4220	0	27.442	0	1142.477	0	8.5	4	2.6	4	-1E+10	1	-1E+10	1	-1E+10	1	-1E+10	1	-1E+10	1	-1E+10	1
4902549	114	C	10/11/2023	01:55	-133.225	47.555	0	1165.10	0	2.8530	0	34.4220	0	27.444	0	1152.142	0	8.6	4	2.6	4	-1E+10	1	-1E+10	1	-1E+10	1	-1E+10	1	-1E+10	1	-1E+10	1
4902549	114	C	10/11/2023	01:55	-133.225	47.555	0	1175.20	0	2.8190	0	34.4240	0	27.449	0	1162.101	0	8.8	4	2.7	4	-1E+10	1	-1E+10	1	-1E+10	1	-1E+10	1	-1E+10	1	-1E+10	1
4902549	114	C	10/11/2023	01:55	-133.225	47.555	0	1185.10	0	2.8000	0	34.4280	0	27.454	0	1171.864	0	8.9	4	2.7	4	-1E+10	1	-1E+10	1	-1E+10	1	-1E+10	1	-1E+10	1	-1E+10	1
4902549	114	C	10/11/2023	01:55	-133.225	47.555	0	1195.10	0	2.7790	0	34.4300	0	27.457	0	1181.724	0	9.1	4	2.8	4	-1E+10	1	-1E+10	1	-1E+10	1	-1E+10	1	-1E+10	1	-1E+10	1
4902549	114	C	10/11/2023	01:55	-133.225	47.555	0	1205.10	0	2.7660	0	34.4320	0	27.460	0	1191.584	0	9.4	4	2.9	4	-1E+10	1	-1E+10	1	-1E+10	1	-1E+10	1	-1E+10	1	-1E+10	1
4902549	114	C	10/11/2023	01:55	-133.225	47.555	0	1215.70	0	2.7610	0	34.4360	0	27.464	0	1202.034	0	9.7	4	3.0	4	-1E+10	1	-1E+10	1	-1E+10	1	-1E+10	1	-1E+10	1	-1E+10	1
4902549	114	C	10/11/2023	01:55	-133.225	47.555	0	1225.40	0	2.7490	0	34.4400	0	27.468	0	1211.597	0	9.9	4	3.0	4	-1E+10	1	-1E+10	1	-1E+10	1	-1E+10	1	-1E+10	1	-1E+10	1
4902549	114	C	10/11/2023	01:55	-133.225	47.555	0	1235.30	0	2.7270	0	34.4420	0	27.471	0	1221.357	0	10.1	4	3.1	4	-1E+10	1	-1E+10	1	-1E+10	1	-1E+10	1	-1E+10	1	-1E+10	1
4902549	114	C	10/11/2023	01:55	-133.225	47.555	0	1245.50	0	2.7110	0	34.4440	0	27.474	0	1231.412	0	10.4	4	3.2	4	-1E+10	1	-1E+10	1	-1E+10	1	-1E+10	1	-1E+10	1	-1E+10	1
4902549	114	C	10/11/2023	01:55	-133.225	47.555	0	1255.50	0	2.6900	0	34.4470	0	27.479	0	1241.270	0	10.7	4	3.3	4	-1E+10	1	-1E+10	1	-1E+10	1	-1E+10	1	-1E+10	1	-1E+10	1
4902549	114	C	10/11/2023	01:55	-133.225	47.555	0	1265.30	0	2.6940	0	34.4510	0	27.482	0	1250.930	0	11.1	4	3.4	4	-1E+10	1	-1E+10	1	-1E+10	1	-1E+10	1	-1E+10	1	-1E+10	1
4902549	114	C	10/11/2023	01:55	-133.225	47.555	0	1275.30	0	2.6750	0	34.4530	0	27.485	0	1260.786	0	11.4	4	3.5	4	-1E+10	1	-1E+10	1	-1E+10	1	-1E+10	1	-1E+10	1	-1E+10	1
4902549	114	C	10/11/2023	01:55	-133.225	47.555	0	1285.60	0	2.6550	0	34.4560	0	27.489	0	1270.938	0	11.8	4	3.6	4	-1E+10	1	-1E+10	1	-1E+10	1	-1E+10	1	-1E+10	1	-1E+10	1
4902549	114	C	10/11/2023	01:55	-133.225	47.555	0	1295.40	0	2.6330	0	34.4600	0	27.494	0	1280.596	0	12.2	4	3.7	4	-1E+10	1	-1E+10	1	-1E+10	1	-1E+10	1	-1E+10	1	-1E+10	1
4902549	114	C	10/11/2023	01:55	-133.225	47.555	0	1305.30	0	2.6300	0	34.4620	0	27.496	0	1290.353	0	12.6	4	3.8	4	-1E+10	1	-1E+10	1	-1E+10	1	-1E+10	1	-1E+10	1	-1E+10	1
4902549	114	C	10/11/2023	01:55	-133.225	47.555	0	1315.30	0	2.6160	0	34.4570	0	27.493	0	1300.207	0	12.9	4	4.0	4	-1E+10	1	-1E+10	1	-1E+10	1	-1E+10	1	-1E+10	1	-1E+10	1
4902549	114	C	10/11/2023	01:55	-133.225	47.555	0	1325.60	0	2.6010	0	34.4670	0	27.503	0	1310.357	0	13.3	4	4.1	4	-1E+10	1	-1E+10	1	-1E+10	1	-1E+10	1	-1E+10	1	-1E+10	1
4902549	114	C	10/11/2023	01:55	-133.225	47.555	0	1335.50	0	2.5910	0	34.4700	0	27.506	0	1320.112	0	13.9	4	4.2	4	-1E+10	1	-1E+10	1	-1E+10	1	-1E+10	1	-1E+10	1	-1E+10	1
4902549	114	C	10/11/2023	01:55	-133.225	47.555	0	1345.40	0	2.5810	0	34.4740	0	27.510	0	1329.867	0	14.2	4	4.4	4	-1E+10	1	-1E+10	1	-1E+10	1	-1E+10	1	-1E+10	1	-1E+10	1
4902549	114	C	10/11/2023	01:55	-133.225	47.555	0	1355.30	0	2.5650	0	34.4750	0	27.512	0	1339.621	0	14.6	4	4.5	4	-1E+10	1	-1E+10	1	-1E+10	1	-1E+10	1	-1E+10	1	-1E+10	1
4902549	114	C	10/11/2023	01:55	-133.225	47.555	0	1365.30	0	2.5440	0	34.4780	0	27.517	0	1349.474	0	15.2	4	4.6	4	-1E+10	1	-1E+10	1	-1E+10	1	-1E+10	1	-1E+10	1	-1E+10	1
4902549	114	C	10/11/2023	01:55	-133.225	47.555	0	1375.20	0	2.5270	0	34.4810	0	27.520	0	1359.227	0	15.7	4	4.8	4	-1E+10	1	-1E+10	1	-1E+10	1	-1E+10	1	-1E+10	1	-1E+10	1
4902549	114	C	10/11/2023	01:55	-133.225	47.555	0	1385.20	0	2.5190	0	34.4840	0	27.524	0	1369.078	0	16.1	4	4.9	4	-1E+10	1	-1E+10	1	-1E+10	1	-1E+10	1	-1E+10	1	-1E+10	1
4902549	114	C	10/11/2023	01:55	-133.225	47.555	0	1395.20	0	2.5150	0	34.4850	0	27.525	0	1378.929	0	16.4	4	5.0	4	-1E+10	1	-1E+10	1	-1E+10	1	-1E+10	1	-1E+10	1	-1E+10	1
4902549	114	C	10/11/2023	01:55	-133.225	47.555	0	1405.00	0	2.5000	0	34.4870	0	27.528	0	1388.583	0	16.7	4	5.1	4	-1E+10	1	-1E+10	1	-1E+10	1	-1E+10	1	-1E+10	1	-1E+10	1
4902549	114	C	10/11/2023	01:55	-133.225	47.555	0	1415.40	0	2.4860	0	34.4880	0	27.530	0	1398.827	0	17.1	4	5.2	4	-1E+10	1	-1E+10	1	-1E+10	1	-1E+10	1	-1E+10	1	-1E+10	1
4902549	114	C	10/11/2023	01:55	-133.225	47.555	0	1425.60	0	2.4680	0	34.4900	0	27.533	0	1408.873	0	17.7	4	5.4	4	-1E+10	1	-1E+10	1	-1E+10	1	-1E+10	1	-1E+10	1	-1E+10	1
4902549	114	C	10/11/2023	01:55	-133.225	47.555	0	1435.30	0	2.4530	0	34.4930	0	27.537	0	1418.427	0	18.6	4	5.7	4	-1E+10	1	-1E+10	1	-1E+10	1	-1E+10	1	-1E+10	1	-1E+10	1
4902549	114	C	10/11/2023	01:55	-133.225	47.555	0	1445.40	0	2.4350	0	34.4980	0	27.542	0	1428.374	0	19.4	4	5.9	4	-1E+10	1	-1E+10	1	-1E+10	1	-1E+10	1	-1E+10	1	-1E+10	1
4902549	114	C	10/11/2023	01:55	-133.225	47.555	0	1455.40	0	2.4220	0	34.5000	0	27.545	0	1438.222	0	20.1	4	6.1	4	-1E+10	1	-1E+10	1	-1E+10	1	-1E+10	1	-1E+10	1	-1E+10	1
4902549	114	C	10/11/2023	01:55	-133.225	47.555	0	1465.30	0	2.4000	0	34.5030	0	27.549	0	1447.972	0	20.7	4	6.3	4	-1E+10	1	-1E+10	1	-1E+10	1	-1E+10	1	-1E+10	1	-1E+10	1
4902549	114	C	10/11/2023	01:55	-133.225	47.555	0	1475.40	0	2.3830	0	34.5050	0	27.552	0	1457.917	0	21.3	4	6.5	4	-1E+10	1	-1E+10	1	-1E+10	1	-1E+10	1	-1E+10	1	-1E+10	1
4902549	114	C	10/11/2023	01:55	-133.225	47.555	0	1485.00	0	2.3650	0	34.5070	0	27.555	0	1467.370	0	22.0	4	6.7	4	-1E+10	1	-1E+10	1	-1E+10	1	-1E+10	1	-1E+10	1	-1E+10	1
4902549	114	C	10/11/2023	01:55	-133.225	47.555	0	1494.90	0	2.3460	0	34.5100	0	27.559	0	1477.118	0	22.5	4	6.9	4	-1E+10	1	-1E+10	1	-1E+10	1	-1E+10	1	-1E+10	1	-1E+10	1
4902549	114	C	10/11/2023	01:55	-133.225	47.555	0	1505.10	0	2.3210	0	34.5110	0	27.562	0	1487.161	0	22.9	4	7.0	4	-1E+10	1	-1E+10	1	-1E+10	1	-1E+10	1	-1E+10	1	-1E+10	1
4902549	114	C	10/11/2023	01:55	-133.225	47.555	0	1515.30	0	2.3060	0	34.5130	0	27.565	0	1497.203	0	23.4	4	7.1	4	-1E+10	1	-1E+10	1	-1E+10	1	-1E+10	1	-1E+10	1	-1E+10	1
4902549	114	C	10/11/2023	01:55	-133.225	47.555	0	1525.10	0	2.2930	0	34.5150	0	27.568	0	1506.851	0	23.8	4	7.2	4	-1E+10	1	-1E+10	1	-1E+10	1	-1E+10	1	-1E+10	1	-1E+10	1
4902549	114	C	10/11/2023	01:55	-133.225	47.555	0	1535.30	0	2.2870	0	34.5160	0	27.569	0	1516.893	0	24.3	4	7.4	4	-1E+10	1	-1E+10	1	-1E+10	1	-1E+10	1	-1E+10	1	-1E+10	1
4902549	114	C	10/11/2023	01:55	-133.225	47.555	0	1545.50	0	2.2740	0	34.5180	0	27.572	0	1526.934	0	24.9	4	7.6	4	-1E+10	1	-1E+10	1	-1E+10	1	-1E+10	1	-1E+10	1	-1E+10	1
4902549	114	C	10/11/2023	01:55	-133.225	47.555	0	1555.50	0	2.2650	0	34.5200	0	27.574	0	1536.777	0	25.4	4	7.7	4	-1E+10	1	-1E+10	1	-1E+10	1	-1E+10	1	-1E+10	1	-1E+10	1
4902549	114	C	10/11/2023	01:55	-133.225	47.555	0	1565.40	0	2.2590	0	34.5210	0	27.576	0	1546.522	0	25.8	4	7.8	4	-1E+10	1	-1E+10	1	-1E+10	1	-1E+10	1	-1E+10	1	-1E+10	1
4902549	114	C	10/11/2023	01:55	-133.225	47.555	0	1575.30	0	2.2490	0	34.5230	0	27.578	0	1556.266	0	26.5	4	8.0	4	-1E+10	1	-1E+10	1	-1E+10	1	-1E+10	1	-1E+10	1	-1E+10	1
4902549	114	C	10/11/2023	01:55	-133.225	47.555	0	1585.60	0	2.2390	0	34.5250	0	27.581	0	1566.403	0	27.1	4	8.2	4	-1E+10	1	-1E+10	1	-1E+10	1	-1E+10	1	-1E+10	1	-1E+10	1
4902549	114	C	10/11/2023	01:55	-133.225	47.555	0	1595.50	0	2.2270	0	34.5270	0	27.583	0	1576.147	0	27.7	4	8.4	4	-1E+10	1	-1E+10	1	-1E+10	1	-1E+10	1	-1E+10	1	-1E+10	1
4902549	114	C	10/11/2023	01:55	-133.225	47.555	0	1605.50	0	2.2190	0	34.5290	0	27.585	0	1585.988	0	28.2	4	8.5	4	-1E+10	1	-1E+10	1	-1E+10	1	-1E+10	1	-1E+10	1	-1E+10	1
4902549	114	C	10/11/2023	01:55	-133.225	47.555	0	1615.20	0	2.2090	0	34.5300	0	27.587	0	1595.534	0	28.8	4	8.7	4	-1E+10	1	-1E+10	1	-1E+10	1	-1E+10	1	-1E+10	1	-1E+10	1
4902549	114	C	10/11/2023	01:55	-133.225	47.555	0	1625.30	0	2.2000	0	34.5320	0	27.589	0	1605.472	0	29.3	4	8.9	4	-1E+10	1	-1E+10	1	-1E+10	1	-1E+10	1	-1E+10	1	-1E+10	1
4902549	114	C	10/11/2023	01:55	-133.225	47.555	0	1635.70	0	2.1930	0	34.5340	0	27.592	0	1615.706	0	29.7	4	9.0	4	-1E+10	1	-1E+10	1	-1E+10	1	-1E+10	1	-1E+10	1	-1E+10	1
4902549	114	C	10/11/2023	01:55	-133.225	47.555	0	1645.50	0	2.1880	0	34.5340	0	27.592	0	1625.349	0	30.2	4	9.1	4	-1E+10	1	-1E+10	1	-1E+10	1	-1E+10	1	-1E+10	1	-1E+10	1
4902549	114	C	10/11/2023	01:55	-133.225	47.555	0	1655.60	0	2.1780	0	34.5360	0	27.595	0	1635.286	0	31.0	4	9.4	4	-1E+10	1	-1E+10	1	-1E+10	1	-1E+10	1	-1E+10	1	-1E+10	1
4902549	114	C	10/11/2023	01:55	-133.225	47.555	0	1665.70	0	2.1670	0	34.5380	0	27.597	0	1645.223	0	31.6	4	9.6	4	-1E+10	1	-1E+10	1	-1E+10	1	-1E+10	1	-1E+10	1	-1E+10	1
4902549	114	C	10/11/2023	01:55	-133.225	47.555	0	1675.50	0	2.1580	0	34.5400	0	27.600	0	1654.864	0	32.2	4	9.7	4	-1E+10	1	-1E+10	1	-1E+10	1	-1E+10	1	-1E+10	1	-1E+10	1
4902549	114	C	10/11/2023	01:55	-133.225	47.555	0	1685.50	0	2.1520	0	34.5410	0	27.601	0	1664.702	0	32.7	4	9.9	4	-1E+10	1	-1E+10	1	-1E+10	1	-1E+10	1	-1E+10	1	-1E+10	1
4902549	114	C	10/11/2023	01:55	-133.225	47.555	0	1695.50	0	2.1440	0	34.5430	0	27.603	0	1674.539	0	33.3	4	10.1	4	-1E+10	1	-1E+10	1	-1E+10	1	-1E+10	1	-1E+10	1	-1E+10	1
4902549	114	C	10/11/2023	01:55	-133.225	47.555	0	1705.60	0	2.1370	0	34.5440	0	27.605	0	1684.474	0	33.9	4	10.2	4	-1E+10	1	-1E+10	1	-1E+10	1	-1E+10	1	-1E+10	1	-1E+10	1
4902549	114	C	10/11/2023	01:55	-133.225	47.555	0	1715.70	0	2.1300	0	34.5460	0	27.607	0	1694.408	0	34.5	4	10.4	4	-1E+10	1	-1E+10	1	-1E+10	1	-1E+10	1	-1E+10	1	-1E+10	1
4902549	114	C	10/11/2023	01:55	-133.225	47.555	0	1725.80	0	2.1220	0	34.5470	0	27.608	0	1704.343	0	35.2	4	10.7	4	-1E+10	1	-1E+10	1	-1E+10	1	-1E+10	1	-1E+10	1	-1E+10	1
4902549	114	C	10/11/2023	01:55	-133.225	47.555	0	1735.50	0	2.1140	0	34.5490	0	27.611	0	1713.883	0	35.9	4	10.9	4	-1E+10	1	-1E+10	1	-1E+10	1	-1E+10	1	-1E+10	1	-1E+10	1
4902549	114	C	10/11/2023	01:55	-133.225	47.555	0	1745.20	0	2.1060	0	34.5510	0	27.613	0	1723.423	0	36.5	4	11.0	4	-1E+10	1	-1E+10	1	-1E+10	1	-1E+10	1	-1E+10	1	-1E+10	1
4902549	114	C	10/11/2023	01:55	-133.225	47.555	0	1755.40	0	2.0990	0	34.5520	0	27.614	0	1733.454	0	37.0	4	11.2	4	-1E+10	1	-1E+10	1	-1E+10	1	-1E+10	1	-1E+10	1	-1E+10	1
4902549	114	C	10/11/2023	01:55	-133.225	47.555	0	1765.60	0	2.0890	0	34.5530	0	27.616	0	1743.484	0	37.7	4	11.4	4	-1E+10	1	-1E+10	1	-1E+10	1	-1E+10	1	-1E+10	1	-1E+10	1
4902549	114	C	10/11/2023	01:55	-133.225	47.555	0	1775.30	0	2.0840	0	34.5550	0	27.618	0	1753.023	0	38.4	4	11.6	4	-1E+10	1	-1E+10	1	-1E+10	1	-1E+10	1	-1E+10	1	-1E+10	1
4902549	114	C	10/11/2023	01:55	-133.225	47.555	0	1785.10	0	2.0740	0	34.5570	0	27.620	0	1762.659	0	39.2	4	11.8	4	-1E+10	1	-1E+10	1	-1E+10	1	-1E+10	1	-1E+10	1	-1E+10	1
4902549	114	C	10/11/2023	01:55	-133.225	47.555	0	1795.50	0	2.0650	0	34.5590	0	27.623	0	1772.885	0	39.8	4	12.0	4	-1E+10	1	-1E+10	1	-1E+10	1	-1E+10	1	-1E+10	1	-1E+10	1
4902549	114	C	10/11/2023	01:55	-133.225	47.555	0	1805.30	0	2.0600	0	34.5600	0	27.624	0	1782.521	0	40.2	4	12.1	4	-1E+10	1	-1E+10	1	-1E+10	1	-1E+10	1	-1E+10	1	-1E+10	1
4902549	114	C	10/11/2023	01:55	-133.225	47.555	0	1815.20	0	2.0550	0	34.5610	0	27.625	0	1792.254	0	40.8	4	12.3	4	-1E+10	1	-1E+10	1	-1E+10	1	-1E+10	1	-1E+10	1	-1E+10	1
4902549	114	C	10/11/2023	01:55	-133.225	47.555	0	1825.50	0	2.0410	0	34.5620	0	27.627	0	1802.380	0	41.6	4	12.6	4	-1E+10	1	-1E+10	1	-1E+10	1	-1E+10	1	-1E+10	1	-1E+10	1
4902549	114	C	10/11/2023	01:55	-133.225	47.555	0	1835.30	0	2.0280	0	34.5640	0	27.630	0	1812.014	0	42.2	4	12.7	4	-1E+10	1	-1E+10	1	-1E+10	1	-1E+10	1	-1E+10	1	-1E+10	1
4902549	114	C	10/11/2023	01:55	-133.225	47.555	0	1845.10	0	2.0200	0	34.5650	0	27.631	0	1821.648	0	42.9	4	12.9	4	-1E+10	1	-1E+10	1	-1E+10	1	-1E+10	1	-1E+10	1	-1E+10	1
4902549	114	C	10/11/2023	01:55	-133.225	47.555	0	1855.40	0	2.0140	0	34.5670	0	27.633	0	1831.773	0	43.5	4	13.1	4	-1E+10	1	-1E+10	1	-1E+10	1	-1E+10	1	-1E+10	1	-1E+10	1
4902549	114	C	10/11/2023	01:55	-133.225	47.555	0	1865.30	0	2.0080	0	34.5680	0	27.635	0	1841.504	0	44.1	4	13.3	4	-1E+10	1	-1E+10	1	-1E+10	1	-1E+10	1	-1E+10	1	-1E+10	1
4902549	114	C	10/11/2023	01:55	-133.225	47.555	0	1875.10	0	2.0010	0	34.5700	0	27.637	0	1851.136	0	44.7	4	13.5	4	-1E+10	1	-1E+10	1	-1E+10	1	-1E+10	1	-1E+10	1	-1E+10	1
4902549	114	C	10/11/2023	01:55	-133.225	47.555	0	1885.60	0	1.9940	0	34.5710	0	27.638	0	1861.456	0	45.4	4	13.7	4	-1E+10	1	-1E+10	1	-1E+10	1	-1E+10	1	-1E+10	1	-1E+10	1
4902549	114	C	10/11/2023	01:55	-133.225	47.555	0	1895.70	0	1.9870	0	34.5730	0	27.641	0	1871.382	0	46.0	4	13.9	4	-1E+10	1	-1E+10	1	-1E+10	1	-1E+10	1	-1E+10	1	-1E+10	1
4902549	114	C	10/11/2023	01:55	-133.225	47.555	0	1905.60	0	1.9790	0	34.5740	0	27.642	0	1881.111	0	46.5	4	14.0	4	-1E+10	1	-1E+10	1	-1E+10	1	-1E+10	1	-1E+10	1	-1E+10	1
4902549	114	C	10/11/2023	01:55	-133.225	47.555	0	1915.30	0	1.9730	0	34.5750	0	27.643	0	1890.644	0	47.1	4	14.2	4	-1E+10	1	-1E+10	1	-1E+10	1	-1E+10	1	-1E+10	1	-1E+10	1
4902549	114	C	10/11/2023	01:55	-133.225	47.555	0	1925.30	0	1.9670	0	34.5770	0	27.645	0	1900.470	0	47.6	4	14.3	4	-1E+10	1	-1E+10	1	-1E+10	1	-1E+10	1	-1E+10	1	-1E+10	1
4902549	114	C	10/11/2023	01:55	-133.225	47.555	0	1935.30	0	1.9600	0	34.5780	0	27.647	0	1910.297	0	48.2	4	14.5	4	-1E+10	1	-1E+10	1	-1E+10	1	-1E+10	1	-1E+10	1	-1E+10	1
4902549	114	C	10/11/2023	01:55	-133.225	47.555	0	1945.40	0	1.9540	0	34.5790	0	27.648	0	1920.221	0	48.8	4	14.7	4	-1E+10	1	-1E+10	1	-1E+10	1	-1E+10	1	-1E+10	1	-1E+10	1
4902549	114	C	10/11/2023	01:55	-133.225	47.555	0	1955.50	0	1.9480	0	34.5800	0	27.650	0	1930.144	0	49.3	4	14.8	4	-1E+10	1	-1E+10	1	-1E+10	1	-1E+10	1	-1E+10	1	-1E+10	1
4902549	114	C	10/11/2023	01:55	-133.225	47.555	0	1965.40	0	1.9400	0	34.5820	0	27.652	0	1939.871	0	49.9	4	15.0	4	-1E+10	1	-1E+10	1	-1E+10	1	-1E+10	1	-1E+10	1	-1E+10	1
4902549	114	C	10/11/2023	01:55	-133.225	47.555	0	1975.50	0	1.9340	0	34.5830	0	27.653	0	1949.793	0	50.3	4	15.1	4	-1E+10	1	-1E+10	1	-1E+10	1	-1E+10	1	-1E+10	1	-1E+10	1
4902549	114	C	10/11/2023	01:55	-133.225	47.555	0	1986.00	0	1.9300	0	34.5840	0	27.654	0	1960.108	0	50.4	4	15.2	4	-1E+10	1	-1E+10	1	-1E+10	1	-1E+10	1	-1E+10	1	-1E+10	1
4902549	114	C	10/11/2023	01:55	-133.225	47.555	0	1993.00	0	1.9260	0	34.5840	0	27.655	0	1966.985	0	49.7	4	15.0	4	-1E+10	1	-1E+10	1	-1E+10	1	-1E+10	1	-1E+10	1	-1E+10	1
4902549	114	C	10/11/2023	01:55	-133.225	47.555	0																										
4902549	115	C	10/21/2023	07:06	-133.159	47.430	0	0.40	0	13.4930	0	32.3230	0	24.223	0	0.397	0	245.1	4	94.2	4	-1E+10	1	-1E+10	1	-1E+10	1	-1E+10	1	-1E+10	1	-1E+10	1
4902549	115	C	10/21/2023	07:06	-133.159	47.430	0	0.50	0	13.4932	0	32.3227	0	24.222	0	0.496	0	245.0	4	94.2	4	-1E+10	1	-1E+10	1	-1E+10	1	-1E+10	1	-1E+10	1	-1E+10	1
4902549	115	C	10/21/2023	07:06	-133.159	47.430	0	1.00	0	13.4940	0	32.3210	0	24.221	0	0.992	0	244.9	4	94.1	4	-1E+10	1	-1E+10	1	-1E+10	1	-1E+10	1	-1E+10	1	-1E+10	1
4902549	115	C	10/21/2023	07:06	-133.159	47.430	0	2.10	0	13.4920	0	32.3250	0	24.225	0	2.082	0	245.0	4	94.2	4	-1E+10	1	-1E+10	1	-1E+10	1	-1E+10	1	-1E+10	1	-1E+10	1
4902549	115	C	10/21/2023	07:06	-133.159	47.430	0	2.90	0	13.4950	0	32.3250	0	24.224	0	2.876	0	244.9	4	94.2	4	-1E+10	1	-1E+10	1	-1E+10	1	-1E+10	1	-1E+10	1	-1E+10	1
4902549	115	C	10/21/2023	07:06	-133.159	47.430	0	4.00	0	13.4990	0	32.3240	0	24.222	0	3.967	0	244.9	4	94.1	4	-1E+10	1	-1E+10	1	-1E+10	1	-1E+10	1	-1E+10	1	-1E+10	1
4902549	115	C	10/21/2023	07:06	-133.159	47.430	0	4.90	0	13.5000	0	32.3230	0	24.221	0	4.859	0	244.9	4	94.2	4	-1E+10	1	-1E+10	1	-1E+10	1	-1E+10	1	-1E+10	1	-1E+10	1
4902549	115	C	10/21/2023	07:06	-133.159	47.430	0	6.00	0	13.5010	0	32.3240	0	24.222	0	5.950	0	244.9	4	94.2	4	-1E+10	1	-1E+10	1	-1E+10	1	-1E+10	1	-1E+10	1	-1E+10	1
4902549	115	C	10/21/2023	07:06	-133.159	47.430	0	6.80	0	13.5000	0	32.3230	0	24.222	0	6.743	0	244.8	4	94.1	4	-1E+10	1	-1E+10	1	-1E+10	1	-1E+10	1	-1E+10	1	-1E+10	1
4902549	115	C	10/21/2023	07:06	-133.159	47.430	0	7.80	0	13.5000	0	32.3230	0	24.222	0	7.735	0	244.8	4	94.1	4	-1E+10	1	-1E+10	1	-1E+10	1	-1E+10	1	-1E+10	1	-1E+10	1
4902549	115	C	10/21/2023	07:06	-133.159	47.430	0	8.90	0	13.4990	0	32.3240	0	24.223	0	8.826	0	244.9	4	94.1	4	-1E+10	1	-1E+10	1	-1E+10	1	-1E+10	1	-1E+10	1	-1E+10	1
4902549	115	C	10/21/2023	07:06	-133.159	47.430	0	9.90	0	13.4940	0	32.3230	0	24.223	0	9.817	0	244.9	4	94.2	4	-1E+10	1	-1E+10	1	-1E+10	1	-1E+10	1	-1E+10	1	-1E+10	1
4902549	115	C	10/21/2023	07:06	-133.159	47.430	0	11.00	0	13.4950	0	32.3230	0	24.223	0	10.908	0	244.9	4	94.1	4	-1E+10	1	-1E+10	1	-1E+10	1	-1E+10	1	-1E+10	1	-1E+10	1
4902549	115	C	10/21/2023	07:06	-133.159	47.430	0	11.90	0	13.4940	0	32.3230	0	24.223	0	11.800	0	244.9	4	94.1	4	-1E+10	1	-1E+10	1	-1E+10	1	-1E+10	1	-1E+10	1	-1E+10	1
4902549	115	C	10/21/2023	07:06	-133.159	47.430	0	12.80	0	13.4970	0	32.3240	0	24.223	0	12.693	0	244.9	4	94.1	4	-1E+10	1	-1E+10	1	-1E+10	1	-1E+10	1	-1E+10	1	-1E+10	1
4902549	115	C	10/21/2023	07:06	-133.159	47.430	0	14.00	0	13.5000	0	32.3240	0	24.222	0	13.883	0	244.9	4	94.1	4	-1E+10	1	-1E+10	1	-1E+10	1	-1E+10	1	-1E+10	1	-1E+10	1
4902549	115	C	10/21/2023	07:06	-133.159	47.430	0	15.10	0	13.5060	0	32.3230	0	24.221	0	14.974	0	244.8	4	94.1	4	-1E+10	1	-1E+10	1	-1E+10	1	-1E+10	1	-1E+10	1	-1E+10	1
4902549	115	C	10/21/2023	07:06	-133.159	47.430	0	16.00	0	13.5070	0	32.3240	0	24.221	0	15.866	0	244.8	4	94.1	4	-1E+10	1	-1E+10	1	-1E+10	1	-1E+10	1	-1E+10	1	-1E+10	1
4902549	115	C	10/21/2023	07:06	-133.159	47.430	0	17.10	0	13.5080	0	32.3240	0	24.221	0	16.957	0	244.7	4	94.1	4	-1E+10	1	-1E+10	1	-1E+10	1	-1E+10	1	-1E+10	1	-1E+10	1
4902549	115	C	10/21/2023	07:06	-133.159	47.430	0	18.00	0	13.5070	0	32.3240	0	24.221	0	17.849	0	244.8	4	94.1	4	-1E+10	1	-1E+10	1	-1E+10	1	-1E+10	1	-1E+10	1	-1E+10	1
4902549	115	C	10/21/2023	07:06	-133.159	47.430	0	19.20	0	13.5080	0	32.3240	0	24.221	0	19.039	0	244.7	4	94.1	4	-1E+10	1	-1E+10	1	-1E+10	1	-1E+10	1	-1E+10	1	-1E+10	1
4902549	115	C	10/21/2023	07:06	-133.159	47.430	0	20.00	0	13.5070	0	32.3240	0	24.221	0	19.832	0	244.8	4	94.1	4	-1E+10	1	-1E+10	1	-1E+10	1	-1E+10	1	-1E+10	1	-1E+10	1
4902549	115	C	10/21/2023	07:06	-133.159	47.430	0	21.00	0	13.5080	0	32.3240	0	24.221	0	20.824	0	244.7	4	94.1	4	-1E+10	1	-1E+10	1	-1E+10	1	-1E+10	1	-1E+10	1	-1E+10	1
4902549	115	C	10/21/2023	07:06	-133.159	47.430	0	21.90	0	13.5080	0	32.3240	0	24.221	0	21.716	0	244.8	4	94.1	4	-1E+10	1	-1E+10	1	-1E+10	1	-1E+10	1	-1E+10	1	-1E+10	1
4902549	115	C	10/21/2023	07:06	-133.159	47.430	0	22.80	0	13.5070	0	32.3240	0	24.221	0	22.609	0	244.8	4	94.1	4	-1E+10	1	-1E+10	1	-1E+10	1	-1E+10	1	-1E+10	1	-1E+10	1
4902549	115	C	10/21/2023	07:06	-133.159	47.430	0	23.80	0	13.5070	0	32.3240	0	24.221	0	23.600	0	244.7	4	94.1	4	-1E+10	1	-1E+10	1	-1E+10	1	-1E+10	1	-1E+10	1	-1E+10	1
4902549	115	C	10/21/2023	07:06	-133.159	47.430	0	25.00	0	13.5080	0	32.3240	0	24.221	0	24.790	0	244.8	4	94.1	4	-1E+10	1	-1E+10	1	-1E+10	1	-1E+10	1	-1E+10	1	-1E+10	1
4902549	115	C	10/21/2023	07:06	-133.159	47.430	0	25.70	0	13.5080	0	32.3240	0	24.221	0	25.484	0	244.8	4	94.1	4	-1E+10	1	-1E+10	1	-1E+10	1	-1E+10	1	-1E+10	1	-1E+10	1
4902549	115	C	10/21/2023	07:06	-133.159	47.430	0	26.70	0	13.5080	0	32.3240	0	24.221	0	26.476	0	244.8	4	94.1	4	-1E+10	1	-1E+10	1	-1E+10	1	-1E+10	1	-1E+10	1	-1E+10	1
4902549	115	C	10/21/2023	07:06	-133.159	47.430	0	27.70	0	13.5080	0	32.3240	0	24.221	0	27.467	0	244.7	4	94.1	4	-1E+10	1	-1E+10	1	-1E+10	1	-1E+10	1	-1E+10	1	-1E+10	1
4902549	115	C	10/21/2023	07:06	-133.159	47.430	0	29.10	0	13.5080	0	32.3240	0	24.221	0	28.855	0	244.7	4	94.1	4	-1E+10	1	-1E+10	1	-1E+10	1	-1E+10	1	-1E+10	1	-1E+10	1
4902549	115	C	10/21/2023	07:06	-133.159	47.430	0	30.10	0	13.5080	0	32.3240	0	24.221	0	29.847	0	244.7	4	94.1	4	-1E+10	1	-1E+10	1	-1E+10	1	-1E+10	1	-1E+10	1	-1E+10	1
4902549	115	C	10/21/2023	07:06	-133.159	47.430	0	31.10	0	13.5080	0	32.3240	0	24.221	0	30.838	0	244.7	4	94.1	4	-1E+10	1	-1E+10	1	-1E+10	1	-1E+10	1	-1E+10	1	-1E+10	1
4902549	115	C	10/21/2023	07:06	-133.159	47.430	0	32.10	0	13.5080	0	32.3240	0	24.221	0	31.830	0	244.6	4	94.1	4	-1E+10	1	-1E+10	1	-1E+10	1	-1E+10	1	-1E+10	1	-1E+10	1
4902549	115	C	10/21/2023	07:06	-133.159	47.430	0	33.10	0	13.5090	0	32.3240	0	24.221	0	32.821	0	244.7	4	94.1	4	-1E+10	1	-1E+10	1	-1E+10	1	-1E+10	1	-1E+10	1	-1E+10	1
4902549	115	C	10/21/2023	07:06	-133.159	47.430	0	34.10	0	13.5090	0	32.3240	0	24.221	0	33.813	0	244.6	4	94.1	4	-1E+10	1	-1E+10	1	-1E+10	1	-1E+10	1	-1E+10	1	-1E+10	1
4902549	115	C	10/21/2023	07:06	-133.159	47.430	0	35.10	0	13.5090	0	32.3240	0	24.221	0	34.804	0	244.6	4	94.1	4	-1E+10	1	-1E+10	1	-1E+10	1	-1E+10	1	-1E+10	1	-1E+10	1
4902549	115	C	10/21/2023	07:06	-133.159	47.430	0	35.90	0	13.5090	0	32.3250	0	24.222	0	35.598	0	244.7	4	94.1	4	-1E+10	1	-1E+10	1	-1E+10	1	-1E+10	1	-1E+10	1	-1E+10	1
4902549	115	C	10/21/2023	07:06	-133.159	47.430	0	36.70	0	13.5090	0	32.3240	0	24.221	0	36.391	0	244.7	4	94.1	4	-1E+10	1	-1E+10	1	-1E+10	1	-1E+10	1	-1E+10	1	-1E+10	1
4902549	115	C	10/21/2023	07:06	-133.159	47.430	0	37.80	0	13.5090	0	32.3240	0	24.221	0	37.481	0	244.7	4	94.1	4	-1E+10	1	-1E+10	1	-1E+10	1	-1E+10	1	-1E+10	1	-1E+10	1
4902549	115	C	10/21/2023	07:06	-133.159	47.430	0	38.80	0	13.5090	0	32.3240	0	24.221	0	38.473	0	244.7	4	94.1	4	-1E+10	1	-1E+10	1	-1E+10	1	-1E+10	1	-1E+10	1	-1E+10	1
4902549	115	C	10/21/2023	07:06	-133.159	47.430	0	40.00	0	13.5090	0	32.3240	0	24.221	0	39.663	0	244.8	4	94.1	4	-1E+10	1	-1E+10	1	-1E+10	1	-1E+10	1	-1E+10	1	-1E+10	1
4902549	115	C	10/21/2023	07:06	-133.159	47.430	0	40.90	0	13.5090	0	32.3230	0	24.221	0	40.555	0	244.8	4	94.1	4	-1E+10	1	-1E+10	1	-1E+10	1	-1E+10	1	-1E+10	1	-1E+10	1
4902549	115	C	10/21/2023	07:06	-133.159	47.430	0	42.00	0	13.5080	0	32.3230	0	24.221	0	41.646	0	244.8	4	94.1	4	-1E+10	1	-1E+10	1	-1E+10	1	-1E+10	1	-1E+10	1	-1E+10	1
4902549	115	C	10/21/2023	07:06	-133.159	47.430	0	43.00	0	13.5060	0	32.3170	0	24.217	0	42.637	0	244.9	4	94.2	4	-1E+10	1	-1E+10	1	-1E+10	1	-1E+10	1	-1E+10	1	-1E+10	1
4902549	115	C	10/21/2023	07:06	-133.159	47.430	0	44.10	0	13.0770	0	32.3500	0	24.327	0	43.728	0	247.3	4	94.3	4	-1E+10	1	-1E+10	1	-1E+10	1	-1E+10	1	-1E+10	1	-1E+10	1
4902549	115	C	10/21/2023	07:06	-133.159	47.430	0	45.00	0	11.9480	0	32.4040	0	24.585	0	44.620	0	254.8	4	94.9	4	-1E+10	1	-1E+10	1	-1E+10	1	-1E+10	1	-1E+10	1	-1E+10	1
4902549	115	C	10/21/2023	07:06	-133.159	47.430	0	46.10	0	10.9530	0	32.4340	0	24.788	0	45.710	0	259.9	4	94.8	4	-1E+10	1	-1E+10	1	-1E+10	1	-1E+10	1	-1E+10	1	-1E+10	1
4902549	115	C	10/21/2023	07:06	-133.159	47.430	0	47.00	0	10.0340	0	32.4600	0	24.965	0	46.603	0	263.1	4	94.1	4	-1E+10	1	-1E+10	1	-1E+10	1	-1E+10	1	-1E+10	1	-1E+10	1
4902549	115	C	10/21/2023	07:06	-133.159	47.430	0	48.00	0	9.4240	0	32.4720	0	25.073	0	47.594	0	265.7	4	93.8	4	-1E+10	1	-1E+10	1	-1E+10	1	-1E+10	1	-1E+10	1	-1E+10	1
4902549	115	C	10/21/2023	07:06	-133.159	47.430	0	49.00	0	9.2280	0	32.4670	0	25.101	0	48.586	0	265.8	4	93.5	4	-1E+10	1	-1E+10	1	-1E+10	1	-1E+10	1	-1E+10	1	-1E+10	1
4902549	115	C	10/21/2023	07:06	-133.159	47.430	0	49.90	0	8.9990	0	32.4700	0	25.139	0	49.478	0	265.6	4	92.9	4	-1E+10	1	-1E+10	1	-1E+10	1	-1E+10	1	-1E+10	1	-1E+10	1
4902549	115	C	10/21/2023	07:06	-133.159	47.430	0	50.80	0	8.6620	0	32.5170	0	25.227	0	50.370	0	265.4	4	92.2	4	-1E+10	1	-1E+10	1	-1E+10	1	-1E+10	1	-1E+10	1	-1E+10	1
4902549	115	C	10/21/2023	07:06	-133.159	47.430	0	51.90	0	8.4590	0	32.4950	0	25.241	0	51.461	0	265.6	4	91.8	4	-1E+10	1	-1E+10	1	-1E+10	1	-1E+10	1	-1E+10	1	-1E+10	1
4902549	115	C	10/21/2023	07:06	-133.159	47.430	0	53.10	0	8.3670	0	32.5000	0	25.258	0	52.650	0	265.2	4	91.5	4	-1E+10	1	-1E+10	1	-1E+10	1	-1E+10	1	-1E+10	1	-1E+10	1
4902549	115	C	10/21/2023	07:06	-133.159	47.430	0	53.90	0	8.3030	0	32.4980	0	25.266	0	53.444	0	264.8	4	91.3	4	-1E+10	1	-1E+10	1	-1E+10	1	-1E+10	1	-1E+10	1	-1E+10	1
4902549	115	C	10/21/2023	07:06	-133.159	47.430	0	54.90	0	8.2460	0	32.5000	0	25.276	0	54.435	0	264.3	4	91.0	4	-1E+10	1	-1E+10	1	-1E+10	1	-1E+10	1	-1E+10	1	-1E+10	1
4902549	115	C	10/21/2023	07:06	-133.159	47.430	0	56.00	0	8.2210	0	32.5000	0	25.280	0	55.525	0	263.4	4	90.6	4	-1E+10	1	-1E+10	1	-1E+10	1	-1E+10	1	-1E+10	1	-1E+10	1
4902549	115	C	10/21/2023	07:06	-133.159	47.430	0	56.90	0	8.1480	0	32.5070	0	25.296	0	56.418	0	263.2	4	90.4	4	-1E+10	1	-1E+10	1	-1E+10	1	-1E+10	1	-1E+10	1	-1E+10	1
4902549	115	C	10/21/2023	07:06	-133.159	47.430	0	58.20	0	8.0780	0	32.5150	0	25.312	0	57.707	0	262.7	4	90.1	4	-1E+10	1	-1E+10	1	-1E+10	1	-1E+10	1	-1E+10	1	-1E+10	1
4902549	115	C	10/21/2023	07:06	-133.159	47.430	0	58.90	0	8.0730	0	32.5180	0	25.316	0	58.400	0	262.4	4	90.0	4	-1E+10	1	-1E+10	1	-1E+10	1	-1E+10	1	-1E+10	1	-1E+10	1
4902549	115	C	10/21/2023	07:06	-133.159	47.430	0	59.80	0	8.0340	0	32.5190	0	25.322	0	59.293	0	262.2	4	89.8	4	-1E+10	1	-1E+10	1	-1E+10	1	-1E+10	1	-1E+10	1	-1E+10	1
4902549	115	C	10/21/2023	07:06	-133.159	47.430	0	61.00	0	7.9970	0	32.5270	0	25.334	0	60.482	0	262.0	4	89.7	4	-1E+10	1	-1E+10	1	-1E+10	1	-1E+10	1	-1E+10	1	-1E+10	1
4902549	115	C	10/21/2023	07:06	-133.159	47.430	0	61.90	0	7.9570	0	32.5260	0	25.339	0	61.375	0	262.0	4	89.6	4	-1E+10	1	-1E+10	1	-1E+10	1	-1E+10	1	-1E+10	1	-1E+10	1
4902549	115	C	10/21/2023	07:06	-133.159	47.430	0	63.30	0	7.9250	0	32.5270	0	25.344	0	62.762	0	261.9	4	89.5	4	-1E+10	1	-1E+10	1	-1E+10	1	-1E+10	1	-1E+10	1	-1E+10	1
4902549	115	C	10/21/2023	07:06	-133.159	47.430	0	64.20	0	7.9130	0	32.5240	0	25.343	0	63.655	0	261.8	4	89.4	4	-1E+10	1	-1E+10	1	-1E+10	1	-1E+10	1	-1E+10	1	-1E+10	1
4902549	115	C	10/21/2023	07:06	-133.159	47.430	0	65.10	0	7.8950	0	32.5260	0	25.348	0	64.547	0	261.7	4	89.4	4	-1E+10	1	-1E+10	1	-1E+10	1	-1E+10	1	-1E+10	1	-1E+10	1
4902549	115	C	10/21/2023	07:06	-133.159	47.430	0	65.90	0	7.8740	0	32.5290	0	25.353	0	65.340	0	261.6	4	89.3	4	-1E+10	1	-1E+10	1	-1E+10	1	-1E+10	1	-1E+10	1	-1E+10	1
4902549	115	C	10/21/2023	07:06	-133.159	47.430	0	67.30	0	7.8540	0	32.5280	0	25.355	0	66.728	0	261.6	4	89.2	4	-1E+10	1	-1E+10	1	-1E+10	1	-1E+10	1	-1E+10	1	-1E+10	1
4902549	115	C	10/21/2023	07:06	-133.159	47.430	0	68.00	0	7.8500	0	32.5270	0	25.355	0	67.422	0	261.4	4	89.2	4	-1E+10	1	-1E+10	1	-1E+10	1	-1E+10	1	-1E+10	1	-1E+10	1
4902549	115	C	10/21/2023	07:06	-133.159	47.430	0	68.90	0	7.8450	0	32.5270	0	25.356	0	68.314	0	261.3	4	89.1	4	-1E+10	1	-1E+10	1	-1E+10	1	-1E+10	1	-1E+10	1	-1E+10	1
4902549	115	C	10/21/2023	07:06	-133.159	47.430	0	69.90	0	7.8410	0	32.5270	0	25.356	0	69.305	0	261.1	4	89.1	4	-1E+10	1	-1E+10	1	-1E+10	1	-1E+10	1	-1E+10	1	-1E+10	1
4902549	115	C	10/21/2023	07:06	-133.159	47.430	0	70.80	0	7.8260	0	32.5280	0	25.359	0	70.198	0	261.0	4	89.0	4	-1E+10	1	-1E+10	1	-1E+10	1	-1E+10	1	-1E+10	1	-1E+10	1
4902549	115	C	10/21/2023	07:06	-133.159	47.430	0	71.90	0	7.7920	0	32.5280	0	25.364	0	71.288	0	261.0	4	88.9	4	-1E+10	1	-1E+10	1	-1E+10	1	-1E+10	1	-1E+10	1	-1E+10	1
4902549	115	C	10/21/2023	07:06	-133.159	47.430	0	73.00	0	7.7450	0	32.5280	0	25.371	0	72.378	0	261.0	4	88.8	4	-1E+10	1	-1E+10	1	-1E+10	1	-1E+10	1	-1E+10	1	-1E+10	1
4902549	115	C	10/21/2023	07:06	-133.159	47.430	0	74.10	0	7.7330	0	32.5220	0	25.368	0	73.469	0	261.0	4	88.8	4	-1E+10	1	-1E+10	1	-1E+10	1	-1E+10	1	-1E+10	1	-1E+10	1
4902549	115	C	10/21/2023	07:06	-133.159	47.430	0	74.90	0	7.7510	0	32.5380	0	25.378	0	74.262	0	260.6	4	88.7	4	-1E+10	1	-1E+10	1	-1E+10	1	-1E+10	1	-1E+10	1	-1E+10	1
4902549	115	C	10/21/2023	07:06	-133.159	47.430	0	75.80	0	7.7160	0	32.5380	0	25.383	0	75.154	0	260.8	4	88.7	4	-1E+10	1	-1E+10	1	-1E+10	1	-1E+10	1	-1E+10	1	-1E+10	1
4902549	115	C	10/21/2023	07:06	-133.159	47.430	0	76.90	0	7.6760	0	32.5350	0	25.386	0	76.244	0	260.9	4	88.7	4	-1E+10	1	-1E+10	1	-1E+10	1	-1E+10	1	-1E+10	1	-1E+10	1
4902549	115	C	10/21/2023	07:06	-133.159	47.430	0	78.10	0	7.6540	0	32.5350	0	25.389	0	77.434	0	261.0	4	88.7	4	-1E+10	1	-1E+10	1	-1E+10	1	-1E+10	1	-1E+10	1	-1E+10	1
4902549	115	C	10/21/2023	07:06	-133.159	47.430	0	79.00	0	7.6480	0	32.5350	0	25.390	0	78.326	0	260.9	4	88.6	4	-1E+10	1	-1E+10	1	-1E+10	1	-1E+10	1	-1E+10	1	-1E+10	1
4902549	115	C	10/21/2023	07:06	-133.159	47.430	0	79.90	0	7.6250	0	32.5380	0	25.395	0	79.218	0	261.0	4	88.6	4	-1E+10	1	-1E+10	1	-1E+10	1	-1E+10	1	-1E+10	1	-1E+10	1
4902549	115	C	10/21/2023	07:06	-133.159	47.430	0	81.00	0	7.5890	0	32.5340	0	25.397	0	80.309	0	261.1	4	88.5	4	-1E+10	1	-1E+10	1	-1E+10	1	-1E+10	1	-1E+10	1	-1E+10	1
4902549	115	C	10/21/2023	07:06	-133.159	47.430	0	82.10	0	7.5840	0	32.5320	0	25.397	0	81.399	0	260.9	4	88.5	4	-1E+10	1	-1E+10	1	-1E+10	1	-1E+10	1	-1E+10	1	-1E+10	1
4902549	115	C	10/21/2023	07:06	-133.159	47.430	0	83.00	0	7.5860	0	32.5300	0	25.395	0	82.291	0	260.9	4	88.5	4	-1E+10	1	-1E+10	1	-1E+10	1	-1E+10	1	-1E+10	1	-1E+10	1
4902549	115	C	10/21/2023	07:06	-133.159	47.430	0	83.80	0	7.5870	0	32.5320	0	25.396	0	83.084	0	267.3	4	90.6	4	-1E+10	1	-1E+10	1	-1E+10	1	-1E+10	1	-1E+10	1	-1E+10	1
4902549	115	C	10/21/2023	07:06	-133.159	47.430	0	84.80	0	7.5740	0	32.5400	0	25.404	0	84.076	0	267.1	4	90.6	4	-1E+10	1	-1E+10	1	-1E+10	1	-1E+10	1	-1E+10	1	-1E+10	1
4902549	115	C	10/21/2023	07:06	-133.159	47.430	0	86.00	0	7.4710	0	32.5300	0	25.411	0	85.265	0	267.4	4	90.4	4	-1E+10	1	-1E+10	1	-1E+10	1	-1E+10	1	-1E+10	1	-1E+10	1
4902549	115	C	10/21/2023	07:06	-133.159	47.430	0	86.90	0	7.4540	0	32.5280	0	25.412	0	86.157	0	267.2	4	90.4	4	-1E+10	1	-1E+10	1	-1E+10	1	-1E+10	1	-1E+10	1	-1E+10	1
4902549	115	C	10/21/2023	07:06	-133.159	47.430	0	88.00	0	7.4590	0	32.5290	0	25.412	0	87.248	0	266.9	4	90.2	4	-1E+10	1	-1E+10	1	-1E+10	1	-1E+10	1	-1E+10	1	-1E+10	1
4902549	115	C	10/21/2023	07:06	-133.159	47.430	0	89.10	0	7.4140	0	32.5310	0	25.419	0	88.338	0	266.7	4	90.1	4	-1E+10	1	-1E+10	1	-1E+10	1	-1E+10	1	-1E+10	1	-1E+10	1
4902549	115	C	10/21/2023	07:06	-133.159	47.430	0	89.90	0	7.4240	0	32.5370	0	25.423	0	89.131	0	266.3	4	90.0	4	-1E+10	1	-1E+10	1	-1E+10	1	-1E+10	1	-1E+10	1	-1E+10	1
4902549	115	C	10/21/2023	07:06	-133.159	47.430	0	91.00	0	7.3850	0	32.5390	0	25.430	0	90.221	0	265.7	4	89.7	4	-1E+10	1	-1E+10	1	-1E+10	1	-1E+10	1	-1E+10	1	-1E+10	1
4902549	115	C	10/21/2023	07:06	-133.159	47.430	0	92.30	0	7.3500	0	32.5440	0	25.438	0	91.510	0	265.1	4	89.4	4	-1E+10	1	-1E+10	1	-1E+10	1	-1E+10	1	-1E+10	1	-1E+10	1
4902549	115	C	10/21/2023	07:06	-133.159	47.430	0	93.10	0	7.3500	0	32.5510	0	25.444	0	92.303	0	264.4	4	89.2	4	-1E+10	1	-1E+10	1	-1E+10	1	-1E+10	1	-1E+10	1	-1E+10	1
4902549	115	C	10/21/2023	07:06	-133.159	47.430	0	93.90	0	7.3510	0	32.5560	0	25.448	0	93.096	0	263.7	4	89.0	4	-1E+10	1	-1E+10	1	-1E+10	1	-1E+10	1	-1E+10	1	-1E+10	1
4902549	115	C	10/21/2023	07:06	-133.159	47.430	0	95.20	0	7.3570	0	32.5640	0	25.453	0	94.384	0	262.2	4	88.5	4	-1E+10	1	-1E+10	1	-1E+10	1	-1E+10	1	-1E+10	1	-1E+10	1
4902549	115	C	10/21/2023	07:06	-133.159	47.430	0	95.90	0	7.3270	0	32.5810	0	25.471	0	95.078	0	261.5	4	88.2	4	-1E+10	1	-1E+10	1	-1E+10	1	-1E+10	1	-1E+10	1	-1E+10	1
4902549	115	C	10/21/2023	07:06	-133.159	47.430	0	97.00	0	7.3220	0	32.5830	0	25.473	0	96.168	0	260.2	4	87.7	4	-1E+10	1	-1E+10	1	-1E+10	1	-1E+10	1	-1E+10	1	-1E+10	1
4902549	115	C	10/21/2023	07:06	-133.159	47.430	0	98.00	0	7.3220	0	32.5830	0	25.473	0	97.160	0	258.7	4	87.3	4	-1E+10	1	-1E+10	1	-1E+10	1	-1E+10	1	-1E+10	1	-1E+10	1
4902549	115	C	10/21/2023	07:06	-133.159	47.430	0	99.10	0	7.3200	0	32.5850	0	25.475	0	98.250	0	256.6	4	86.5	4	-1E+10	1	-1E+10	1	-1E+10	1	-1E+10	1	-1E+10	1	-1E+10	1
4902549	115	C	10/21/2023	07:06	-133.159	47.430	0	99.90	0	7.3160	0	32.5900	0	25.479	0	99.043	0	254.9	4	86.0	4	-1E+10	1	-1E+10	1	-1E+10	1	-1E+10	1	-1E+10	1	-1E+10	1
4902549	115	C	10/21/2023	07:06	-133.159	47.430	0	100.90	0	7.3020	0	32.6070	0	25.495	0	100.034	0	253.2	4	85.4	4	-1E+10	1	-1E+10	1	-1E+10	1	-1E+10	1	-1E+10	1	-1E+10	1
4902549	115	C	10/21/2023	07:06	-133.159	47.430	0	101.80	0	7.2780	0	32.6320	0	25.518	0	100.926	0	251.5	4	84.8	4	-1E+10	1	-1E+10	1	-1E+10	1	-1E+10	1	-1E+10	1	-1E+10	1
4902549	115	C	10/21/2023	07:06	-133.159	47.430	0	102.80	0	7.2670	0	32.6570	0	25.539	0	101.917	0	249.3	4	84.0	4	-1E+10	1	-1E+10	1	-1E+10	1	-1E+10	1	-1E+10	1	-1E+10	1
4902549	115	C	10/21/2023	07:06	-133.159	47.430	0	103.80	0	7.2490	0	32.6880	0	25.566	0	102.908	0	247.2	4	83.3	4	-1E+10	1	-1E+10	1	-1E+10	1	-1E+10	1	-1E+10	1	-1E+10	1
4902549	115	C	10/21/2023	07:06	-133.159	47.430	0	105.10	0	7.1980	0	32.7400	0	25.614	0	104.197	0	244.6	4	82.4	4	-1E+10	1	-1E+10	1	-1E+10	1	-1E+10	1	-1E+10	1	-1E+10	1
4902549	115	C	10/21/2023	07:06	-133.159	47.430	0	106.00	0	7.1730	0	32.7620	0	25.634	0	105.089	0	242.5	4	81.6	4	-1E+10	1	-1E+10	1	-1E+10	1	-1E+10	1	-1E+10	1	-1E+10	1
4902549	115	C	10/21/2023	07:06	-133.159	47.430	0	106.90	0	7.1480	0	32.7840	0	25.655	0	105.981	0	240.0	4	80.7	4	-1E+10	1	-1E+10	1	-1E+10	1	-1E+10	1	-1E+10	1	-1E+10	1
4902549	115	C	10/21/2023	07:06	-133.159	47.430	0	107.90	0	7.1010	0	32.8270	0	25.695	0	106.972	0	237.3	4	79.8	4	-1E+10	1	-1E+10	1	-1E+10	1	-1E+10	1	-1E+10	1	-1E+10	1
4902549	115	C	10/21/2023	07:06	-133.159	47.430	0	109.00	0	7.0270	0	32.8890	0	25.754	0	108.062	0	234.8	4	78.8	4	-1E+10	1	-1E+10	1	-1E+10	1	-1E+10	1	-1E+10	1	-1E+10	1
4902549	115	C	10/21/2023	07:06	-133.159	47.430	0	110.10	0	6.9480	0	32.9510	0	25.813	0	109.153	0	232.6	4	78.0	4	-1E+10	1	-1E+10	1	-1E+10	1	-1E+10	1	-1E+10	1	-1E+10	1
4902549	115	C	10/21/2023	07:06	-133.159	47.430	0	111.00	0	6.8800	0	33.0110	0	25.870	0	110.045	0	231.1	4	77.4	4	-1E+10	1	-1E+10	1	-1E+10	1	-1E+10	1	-1E+10	1	-1E+10	1
4902549	115	C	10/21/2023	07:06	-133.159	47.430	0	111.80	0	6.8240	0	33.0520	0	25.910	0	110.838	0	229.8	4	76.9	4	-1E+10	1	-1E+10	1	-1E+10	1	-1E+10	1	-1E+10	1	-1E+10	1
4902549	115	C	10/21/2023	07:06	-133.159	47.430	0	113.10	0	6.7650	0	33.0900	0	25.947	0	112.126	0	228.3	4	76.3	4	-1E+10	1	-1E+10	1	-1E+10	1	-1E+10	1	-1E+10	1	-1E+10	1
4902549	115	C	10/21/2023	07:06	-133.159	47.430	0	113.90	0	6.7130	0	33.1270	0	25.983	0	112.919	0	227.3	4	75.9	4	-1E+10	1	-1E+10	1	-1E+10	1	-1E+10	1	-1E+10	1	-1E+10	1
4902549	115	C	10/21/2023	07:06	-133.159	47.430	0	115.10	0	6.6850	0	33.1470	0	26.003	0	114.108	0	226.1	4	75.5	4	-1E+10	1	-1E+10	1	-1E+10	1	-1E+10	1	-1E+10	1	-1E+10	1
4902549	115	C	10/21/2023	07:06	-133.159	47.430	0	115.90	0	6.6520	0	33.1680	0	26.024	0	114.901	0	225.2	4	75.1	4	-1E+10	1	-1E+10	1	-1E+10	1	-1E+10	1	-1E+10	1	-1E+10	1
4902549	115	C	10/21/2023	07:06	-133.159	47.430	0	117.20	0	6.6060	0	33.2010	0	26.056	0	116.190	0	224.0	4	74.7	4	-1E+10	1	-1E+10	1	-1E+10	1	-1E+10	1	-1E+10	1	-1E+10	1
4902549	115	C	10/21/2023	07:06	-133.159	47.430	0	118.10	0	6.5970	0	33.2070	0	26.062	0	117.082	0	223.0	4	74.3	4	-1E+10	1	-1E+10	1	-1E+10	1	-1E+10	1	-1E+10	1	-1E+10	1
4902549	115	C	10/21/2023	07:06	-133.159	47.430	0	119.00	0	6.5930	0	33.2110	0	26.065	0	117.974	0	221.8	4	73.9	4	-1E+10	1	-1E+10	1	-1E+10	1	-1E+10	1	-1E+10	1	-1E+10	1
4902549	115	C	10/21/2023	07:06	-133.159	47.430	0	119.70	0	6.5820	0	33.2190	0	26.073	0	118.667	0	220.7	4	73.5	4	-1E+10	1	-1E+10	1	-1E+10	1	-1E+10	1	-1E+10	1	-1E+10	1
4902549	115	C	10/21/2023	07:06	-133.159	47.430	0	120.70	0	6.5660	0	33.2330	0	26.086	0	119.658	0	219.2	4	73.0	4	-1E+10	1	-1E+10	1	-1E+10	1	-1E+10	1	-1E+10	1	-1E+10	1
4902549	115	C	10/21/2023	07:06	-133.159	47.430	0	121.80	0	6.5360	0	33.2550	0	26.107	0	120.749	0	217.6	4	72.4	4	-1E+10	1	-1E+10	1	-1E+10	1	-1E+10	1	-1E+10	1	-1E+10	1
4902549	115	C	10/21/2023	07:06	-133.159	47.430	0	123.00	0	6.4940	0	33.2970	0	26.146	0	121.938	0	216.6	4	72.1	4	-1E+10	1	-1E+10	1	-1E+10	1	-1E+10	1	-1E+10	1	-1E+10	1
4902549	115	C	10/21/2023	07:06	-133.159	47.430	0	123.90	0	6.4820	0	33.3230	0	26.168	0	122.830	0	216.0	4	71.8	4	-1E+10	1	-1E+10	1	-1E+10	1	-1E+10	1	-1E+10	1	-1E+10	1
4902549	115	C	10/21/2023	07:06	-133.159	47.430	0	124.80	0	6.4750	0	33.3340	0	26.178	0	123.722	0	215.5	4	71.7	4	-1E+10	1	-1E+10	1	-1E+10	1	-1E+10	1	-1E+10	1	-1E+10	1
4902549	115	C	10/21/2023	07:06	-133.159	47.430	0	126.10	0	6.4480	0	33.3560	0	26.198	0	125.010	0	214.8	4	71.4	4	-1E+10	1	-1E+10	1	-1E+10	1	-1E+10	1	-1E+10	1	-1E+10	1
4902549	115	C	10/21/2023	07:06	-133.159	47.430	0	127.10	0	6.4380	0	33.3620	0	26.205	0	126.001	0	214.2	4	71.2	4	-1E+10	1	-1E+10	1	-1E+10	1	-1E+10	1	-1E+10	1	-1E+10	1
4902549	115	C	10/21/2023	07:06	-133.159	47.430	0	128.00	0	6.3890	0	33.3770	0	26.223	0	126.893	0	213.4	4	70.9	4	-1E+10	1	-1E+10	1	-1E+10	1	-1E+10	1	-1E+10	1	-1E+10	1
4902549	115	C	10/21/2023	07:06	-133.159	47.430	0	129.10	0	6.3520	0	33.3870	0	26.235	0	127.983	0	212.5	4	70.5	4	-1E+10	1	-1E+10	1	-1E+10	1	-1E+10	1	-1E+10	1	-1E+10	1
4902549	115	C	10/21/2023	07:06	-133.159	47.430	0	130.00	0	6.3320	0	33.3920	0	26.242	0	128.875	0	211.6	4	70.2	4	-1E+10	1	-1E+10	1	-1E+10	1	-1E+10	1	-1E+10	1	-1E+10	1
4902549	115	C	10/21/2023	07:06	-133.159	47.430	0	131.30	0	6.2160	0	33.4070	0	26.268	0	130.164	0	210.8	4	69.7	4	-1E+10	1	-1E+10	1	-1E+10	1	-1E+10	1	-1E+10	1	-1E+10	1
4902549	115	C	10/21/2023	07:06	-133.159	47.430	0	131.80	0	6.1760	0	33.3940	0	26.263	0	130.659	0	210.3	4	69.5	4	-1E+10	1	-1E+10	1	-1E+10	1	-1E+10	1	-1E+10	1	-1E+10	1
4902549	115	C	10/21/2023	07:06	-133.159	47.430	0	132.90	0	6.2120	0	33.3980	0	26.262	0	131.749	0	208.9	4	69.1	4	-1E+10	1	-1E+10	1	-1E+10	1	-1E+10	1	-1E+10	1	-1E+10	1
4902549	115	C	10/21/2023	07:06	-133.159	47.430	0	134.00	0	6.2960	0	33.4280	0	26.275	0	132.839	0	207.2	4	68.7	4	-1E+10	1	-1E+10	1	-1E+10	1	-1E+10	1	-1E+10	1	-1E+10	1
4902549	115	C	10/21/2023	07:06	-133.159	47.430	0	134.80	0	6.2300	0	33.4330	0	26.287	0	133.632	0	206.7	4	68.4	4	-1E+10	1	-1E+10	1	-1E+10	1	-1E+10	1	-1E+10	1	-1E+10	1
4902549	115	C	10/21/2023	07:06	-133.159	47.430	0	135.90	0	6.2770	0	33.4600	0	26.303	0	134.722	0	205.2	4	68.0	4	-1E+10	1	-1E+10	1	-1E+10	1	-1E+10	1	-1E+10	1	-1E+10	1
4902549	115	C	10/21/2023	07:06	-133.159	47.430	0	137.10	0	6.2850	0	33.4810	0	26.318	0	135.912	0	204.2	4	67.7	4	-1E+10	1	-1E+10	1	-1E+10	1	-1E+10	1	-1E+10	1	-1E+10	1
4902549	115	C	10/21/2023	07:06	-133.159	47.430	0	137.90	0	6.2930	0	33.4980	0	26.331	0	136.704	0	203.6	4	67.5	4	-1E+10	1	-1E+10	1	-1E+10	1	-1E+10	1	-1E+10	1	-1E+10	1
4902549	115	C	10/21/2023	07:06	-133.159	47.430	0	139.00	0	6.2690	0	33.5070	0	26.341	0	137.794	0	202.8	4	67.2	4	-1E+10	1	-1E+10	1	-1E+10	1	-1E+10	1	-1E+10	1	-1E+10	1
4902549	115	C	10/21/2023	07:06	-133.159	47.430	0	140.20	0	6.2360	0	33.5100	0	26.347	0	138.984	0	201.7	4	66.8	4	-1E+10	1	-1E+10	1	-1E+10	1	-1E+10	1	-1E+10	1	-1E+10	1
4902549	115	C	10/21/2023	07:06	-133.159	47.430	0	141.10	0	6.2680	0	33.5240	0	26.354	0	139.875	0	200.9	4	66.6	4	-1E+10	1	-1E+10	1	-1E+10	1	-1E+10	1	-1E+10	1	-1E+10	1
4902549	115	C	10/21/2023	07:06	-133.159	47.430	0	141.90	0	6.2910	0	33.5410	0	26.365	0	140.668	0	200.3	4	66.4	4	-1E+10	1	-1E+10	1	-1E+10	1	-1E+10	1	-1E+10	1	-1E+10	1
4902549	115	C	10/21/2023	07:06	-133.159	47.430	0	142.70	0	6.2970	0	33.5490	0	26.370	0	141.461	0	199.7	4	66.3	4	-1E+10	1	-1E+10	1	-1E+10	1	-1E+10	1	-1E+10	1	-1E+10	1
4902549	115	C	10/21/2023	07:06	-133.159	47.430	0	144.00	0	6.3080	0	33.5600	0	26.378	0	142.749	0	199.1	4	66.1	4	-1E+10	1	-1E+10	1	-1E+10	1	-1E+10	1	-1E+10	1	-1E+10	1
4902549	115	C	10/21/2023	07:06	-133.159	47.430	0	145.20	0	6.2850	0	33.5710	0	26.389	0	143.938	0	198.6	4	65.9	4	-1E+10	1	-1E+10	1	-1E+10	1	-1E+10	1	-1E+10	1	-1E+10	1
4902549	115	C	10/21/2023	07:06	-133.159	47.430	0	146.10	0	6.2690	0	33.5760	0	26.395	0	144.830	0	198.2	4	65.7	4	-1E+10	1	-1E+10	1	-1E+10	1	-1E+10	1	-1E+10	1	-1E+10	1
4902549	115	C	10/21/2023	07:06	-133.159	47.430	0	146.90	0	6.2550	0	33.5790	0	26.399	0	145.623	0	197.9	4	65.6	4	-1E+10	1	-1E+10	1	-1E+10	1	-1E+10	1	-1E+10	1	-1E+10	1
4902549	115	C	10/21/2023	07:06	-133.159	47.430	0	147.80	0	6.2370	0	33.5810	0	26.403	0	146.515	0	197.4	4	65.4	4	-1E+10	1	-1E+10	1	-1E+10	1	-1E+10	1	-1E+10	1	-1E+10	1
4902549	115	C	10/21/2023	07:06	-133.159	47.430	0	148.60	0	6.1160	0	33.6120	0	26.443	0	147.308	0	197.0	4	65.1	4	-1E+10	1	-1E+10	1	-1E+10	1	-1E+10	1	-1E+10	1	-1E+10	1
4902549	115	C	10/21/2023	07:06	-133.159	47.430	0	149.90	0	6.0560	0	33.5700	0	26.417	0	148.596	0	196.4	4	64.8	4	-1E+10	1	-1E+10	1	-1E+10	1	-1E+10	1	-1E+10	1	-1E+10	1
4902549	115	C	10/21/2023	07:06	-133.159	47.430	0	151.20	0	6.1160	0	33.5780	0	26.416	0	149.884	0	195.2	4	64.5	4	-1E+10	1	-1E+10	1	-1E+10	1	-1E+10	1	-1E+10	1	-1E+10	1
4902549	115	C	10/21/2023	07:06	-133.159	47.430	0	152.10	0	6.1590	0	33.5860	0	26.417	0	150.776	0	194.5	4	64.3	4	-1E+10	1	-1E+10	1	-1E+10	1	-1E+10	1	-1E+10	1	-1E+10	1
4902549	115	C	10/21/2023	07:06	-133.159	47.430	0	152.90	0	6.1760	0	33.6060	0	26.431	0	151.569	0	193.7	4	64.1	4	-1E+10	1	-1E+10	1	-1E+10	1	-1E+10	1	-1E+10	1	-1E+10	1
4902549	115	C	10/21/2023	07:06	-133.159	47.430	0	153.80	0	6.1830	0	33.6030	0	26.428	0	152.461	0	193.1	4	63.9	4	-1E+10	1	-1E+10	1	-1E+10	1	-1E+10	1	-1E+10	1	-1E+10	1
4902549	115	C	10/21/2023	07:06	-133.159	47.430	0	154.70	0	6.2180	0	33.6160	0	26.433	0	153.352	0	192.5	4	63.8	4	-1E+10	1	-1E+10	1	-1E+10	1	-1E+10	1	-1E+10	1	-1E+10	1
4902549	115	C	10/21/2023	07:06	-133.159	47.430	0	155.90	0	6.2350	0	33.6220	0	26.436	0	154.541	0	191.7	4	63.5	4	-1E+10	1	-1E+10	1	-1E+10	1	-1E+10	1	-1E+10	1	-1E+10	1
4902549	115	C	10/21/2023	07:06	-133.159	47.430	0	157.20	0	6.2410	0	33.6330	0	26.444	0	155.830	0	190.9	4	63.3	4	-1E+10	1	-1E+10	1	-1E+10	1	-1E+10	1	-1E+10	1	-1E+10	1
4902549	115	C	10/21/2023	07:06	-133.159	47.430	0	158.10	0	6.2300	0	33.6370	0	26.449	0	156.722	0	190.4	4	63.1	4	-1E+10	1	-1E+10	1	-1E+10	1	-1E+10	1	-1E+10	1	-1E+10	1
4902549	115	C	10/21/2023	07:06	-133.159	47.430	0	159.00	0	6.2290	0	33.6320	0	26.445	0	157.613	0	189.9	4	63.0	4	-1E+10	1	-1E+10	1	-1E+10	1	-1E+10	1	-1E+10	1	-1E+10	1
4902549	115	C	10/21/2023	07:06	-133.159	47.430	0	159.80	0	6.2210	0	33.6390	0	26.451	0	158.406	0	189.3	4	62.7	4	-1E+10	1	-1E+10	1	-1E+10	1	-1E+10	1	-1E+10	1	-1E+10	1
4902549	115	C	10/21/2023	07:06	-133.159	47.430	0	160.70	0	6.2040	0	33.6340	0	26.449	0	159.298	0	188.7	4	62.5	4	-1E+10	1	-1E+10	1	-1E+10	1	-1E+10	1	-1E+10	1	-1E+10	1
4902549	115	C	10/21/2023	07:06	-133.159	47.430	0	161.90	0	6.2290	0	33.6440	0	26.454	0	160.487	0	187.5	4	62.2	4	-1E+10	1	-1E+10	1	-1E+10	1	-1E+10	1	-1E+10	1	-1E+10	1
4902549	115	C	10/21/2023	07:06	-133.159	47.430	0	163.30	0	6.2270	0	33.6590	0	26.466	0	161.874	0	186.6	4	61.9	4	-1E+10	1	-1E+10	1	-1E+10	1	-1E+10	1	-1E+10	1	-1E+10	1
4902549	115	C	10/21/2023	07:06	-133.159	47.430	0	164.10	0	6.1920	0	33.6540	0	26.467	0	162.667	0	186.1	4	61.6	4	-1E+10	1	-1E+10	1	-1E+10	1	-1E+10	1	-1E+10	1	-1E+10	1
4902549	115	C	10/21/2023	07:06	-133.159	47.430	0	165.00	0	6.2280	0	33.6610	0	26.468	0	163.559	0	185.3	4	61.4	4	-1E+10	1	-1E+10	1	-1E+10	1	-1E+10	1	-1E+10	1	-1E+10	1
4902549	115	C	10/21/2023	07:06	-133.159	47.430	0	165.90	0	6.2250	0	33.6630	0	26.470	0	164.450	0	184.6	4	61.2	4	-1E+10	1	-1E+10	1	-1E+10	1	-1E+10	1	-1E+10	1	-1E+10	1
4902549	115	C	10/21/2023	07:06	-133.159	47.430	0	166.70	0	6.2140	0	33.6740	0	26.480	0	165.243	0	184.2	4	61.0	4	-1E+10	1	-1E+10	1	-1E+10	1	-1E+10	1	-1E+10	1	-1E+10	1
4902549	115	C	10/21/2023	07:06	-133.159	47.430	0	167.60	0	6.1940	0	33.6740	0	26.482	0	166.135	0	183.9	4	60.9	4	-1E+10	1	-1E+10	1	-1E+10	1	-1E+10	1	-1E+10	1	-1E+10	1
4902549	115	C	10/21/2023	07:06	-133.159	47.430	0	168.90	0	6.0870	0	33.6810	0	26.501	0	167.423	0	184.0	4	60.8	4	-1E+10	1	-1E+10	1	-1E+10	1	-1E+10	1	-1E+10	1	-1E+10	1
4902549	115	C	10/21/2023	07:06	-133.159	47.430	0	170.10	0	6.0580	0	33.6700	0	26.496	0	168.612	0	183.8	4	60.7	4	-1E+10	1	-1E+10	1	-1E+10	1	-1E+10	1	-1E+10	1	-1E+10	1
4902549	115	C	10/21/2023	07:06	-133.159	47.430	0	171.00	0	6.0550	0	33.6720	0	26.498	0	169.504	0	183.6	4	60.6	4	-1E+10	1	-1E+10	1	-1E+10	1	-1E+10	1	-1E+10	1	-1E+10	1
4902549	115	C	10/21/2023	07:06	-133.159	47.430	0	171.80	0	6.0460	0	33.6690	0	26.497	0	170.296	0	183.2	4	60.5	4	-1E+10	1	-1E+10	1	-1E+10	1	-1E+10	1	-1E+10	1	-1E+10	1
4902549	115	C	10/21/2023	07:06	-133.159	47.430	0	172.70	0	6.0280	0	33.6670	0	26.498	0	171.188	0	182.9	4	60.4	4	-1E+10	1	-1E+10	1	-1E+10	1	-1E+10	1	-1E+10	1	-1E+10	1
4902549	115	C	10/21/2023	07:06	-133.159	47.430	0	173.90	0	5.9610	0	33.6800	0	26.516	0	172.377	0	182.3	4	60.1	4	-1E+10	1	-1E+10	1	-1E+10	1	-1E+10	1	-1E+10	1	-1E+10	1
4902549	115	C	10/21/2023	07:06	-133.159	47.430	0	175.20	0	5.9100	0	33.6770	0	26.520	0	173.665	0	181.7	4	59.8	4	-1E+10	1	-1E+10	1	-1E+10	1	-1E+10	1	-1E+10	1	-1E+10	1
4902549	115	C	10/21/2023	07:06	-133.159	47.430	0	176.10	0	5.8850	0	33.6620	0	26.512	0	174.557	0	181.4	4	59.7	4	-1E+10	1	-1E+10	1	-1E+10	1	-1E+10	1	-1E+10	1	-1E+10	1
4902549	115	C	10/21/2023	07:06	-133.159	47.430	0	176.90	0	5.8810	0	33.6590	0	26.510	0	175.350	0	180.8	4	59.5	4	-1E+10	1	-1E+10	1	-1E+10	1	-1E+10	1	-1E+10	1	-1E+10	1
4902549	115	C	10/21/2023	07:06	-133.159	47.430	0	177.80	0	5.8740	0	33.6570	0	26.509	0	176.241	0	180.2	4	59.3	4	-1E+10	1	-1E+10	1	-1E+10	1	-1E+10	1	-1E+10	1	-1E+10	1
4902549	115	C	10/21/2023	07:06	-133.159	47.430	0	178.70	0	5.8750	0	33.6610	0	26.512	0	177.133	0	179.7	4	59.1	4	-1E+10	1	-1E+10	1	-1E+10	1	-1E+10	1	-1E+10	1	-1E+10	1
4902549	115	C	10/21/2023	07:06	-133.159	47.430	0	179.90	0	5.8730	0	33.6700	0	26.519	0	178.322	0	178.5	4	58.7	4	-1E+10	1	-1E+10	1	-1E+10	1	-1E+10	1	-1E+10	1	-1E+10	1
4902549	115	C	10/21/2023	07:06	-133.159	47.430	0	181.20	0	5.8570	0	33.6640	0	26.517	0	179.610	0	177.5	4	58.3	4	-1E+10	1	-1E+10	1	-1E+10	1	-1E+10	1	-1E+10	1	-1E+10	1
4902549	115	C	10/21/2023	07:06	-133.159	47.430	0	182.10	0	5.8820	0	33.6700	0	26.518	0	180.502	0	176.5	4	58.1	4	-1E+10	1	-1E+10	1	-1E+10	1	-1E+10	1	-1E+10	1	-1E+10	1
4902549	115	C	10/21/2023	07:06	-133.159	47.430	0	183.00	0	5.8580	0	33.6790	0	26.528	0	181.393	0	175.7	4	57.7	4	-1E+10	1	-1E+10	1	-1E+10	1	-1E+10	1	-1E+10	1	-1E+10	1
4902549	115	C	10/21/2023	07:06	-133.159	47.430	0	183.80	0	5.8420	0	33.6710	0	26.524	0	182.186	0	175.0	4	57.5	4	-1E+10	1	-1E+10	1	-1E+10	1	-1E+10	1	-1E+10	1	-1E+10	1
4902549	115	C	10/21/2023	07:06	-133.159	47.430	0	184.70	0	5.8190	0	33.6760	0	26.531	0	183.078	0	174.2	4	57.2	4	-1E+10	1	-1E+10	1	-1E+10	1	-1E+10	1	-1E+10	1	-1E+10	1
4902549	115	C	10/21/2023	07:06	-133.159	47.430	0	185.60	0	5.8030	0	33.6750	0	26.532	0	183.969	0	173.5	4	57.0	4	-1E+10	1	-1E+10	1	-1E+10	1	-1E+10	1	-1E+10	1	-1E+10	1
4902549	115	C	10/21/2023	07:06	-133.159	47.430	0	186.90	0	5.8190	0	33.6810	0	26.535	0	185.257	0	172.3	4	56.6	4	-1E+10	1	-1E+10	1	-1E+10	1	-1E+10	1	-1E+10	1	-1E+10	1
4902549	115	C	10/21/2023	07:06	-133.159	47.430	0	188.20	0	5.8300	0	33.6820	0	26.534	0	186.545	0	171.0	4	56.2	4	-1E+10	1	-1E+10	1	-1E+10	1	-1E+10	1	-1E+10	1	-1E+10	1
4902549	115	C	10/21/2023	07:06	-133.159	47.430	0	189.10	0	5.8430	0	33.6890	0	26.538	0	187.437	0	170.0	4	55.9	4	-1E+10	1	-1E+10	1	-1E+10	1	-1E+10	1	-1E+10	1	-1E+10	1
4902549	115	C	10/21/2023	07:06	-133.159	47.430	0	190.00	0	5.8450	0	33.6940	0	26.542	0	188.329	0	169.1	4	55.6	4	-1E+10	1	-1E+10	1	-1E+10	1	-1E+10	1	-1E+10	1	-1E+10	1
4902549	115	C	10/21/2023	07:06	-133.159	47.430	0	190.90	0	5.8410	0	33.6960	0	26.544	0	189.220	0	168.2	4	55.3	4	-1E+10	1	-1E+10	1	-1E+10	1	-1E+10	1	-1E+10	1	-1E+10	1
4902549	115	C	10/21/2023	07:06	-133.159	47.430	0	191.80	0	5.8400	0	33.6960	0	26.544	0	190.112	0	167.1	4	54.9	4	-1E+10	1	-1E+10	1	-1E+10	1	-1E+10	1	-1E+10	1	-1E+10	1
4902549	115	C	10/21/2023	07:06	-133.159	47.430	0	192.70	0	5.8400	0	33.7010	0	26.548	0	191.004	0	166.0	4	54.6	4	-1E+10	1	-1E+10	1	-1E+10	1	-1E+10	1	-1E+10	1	-1E+10	1
4902549	115	C	10/21/2023	07:06	-133.159	47.430	0	194.00	0	5.8330	0	33.7000	0	26.548	0	192.292	0	164.5	4	54.0	4	-1E+10	1	-1E+10	1	-1E+10	1	-1E+10	1	-1E+10	1	-1E+10	1
4902549	115	C	10/21/2023	07:06	-133.159	47.430	0	195.30	0	5.8490	0	33.7110	0	26.555	0	193.580	0	163.0	4	53.6	4	-1E+10	1	-1E+10	1	-1E+10	1	-1E+10	1	-1E+10	1	-1E+10	1
4902549	115	C	10/21/2023	07:06	-133.159	47.430	0	196.20	0	5.8500	0	33.7180	0	26.560	0	194.471	0	162.0	4	53.3	4	-1E+10	1	-1E+10	1	-1E+10	1	-1E+10	1	-1E+10	1	-1E+10	1
4902549	115	C	10/21/2023	07:06	-133.159	47.430	0	197.10	0	5.8530	0	33.7180	0	26.560	0	195.363	0	161.2	4	53.0	4	-1E+10	1	-1E+10	1	-1E+10	1	-1E+10	1	-1E+10	1	-1E+10	1
4902549	115	C	10/21/2023	07:06	-133.159	47.430	0	198.10	0	5.8520	0	33.7200	0	26.562	0	196.354	0	160.2	4	52.7	4	-1E+10	1	-1E+10	1	-1E+10	1	-1E+10	1	-1E+10	1	-1E+10	1
4902549	115	C	10/21/2023	07:06	-133.159	47.430	0	199.00	0	5.8380	0	33.7260	0	26.568	0	197.245	0	159.1	4	52.3	4	-1E+10	1	-1E+10	1	-1E+10	1	-1E+10	1	-1E+10	1	-1E+10	1
4902549	115	C	10/21/2023	07:06	-133.159	47.430	0	199.90	0	5.8100	0	33.7240	0	26.570	0	198.137	0	158.0	4	51.9	4	-1E+10	1	-1E+10	1	-1E+10	1	-1E+10	1	-1E+10	1	-1E+10	1
4902549	115	C	10/21/2023	07:06	-133.159	47.430	0	200.80	0	5.8020	0	33.7210	0	26.569	0	199.029	0	156.8	4	51.5	4	-1E+10	1	-1E+10	1	-1E+10	1	-1E+10	1	-1E+10	1	-1E+10	1
4902549	115	C	10/21/2023	07:06	-133.159	47.430	0	201.70	0	5.8160	0	33.7210	0	26.567	0	199.920	0	155.3	4	51.0	4	-1E+10	1	-1E+10	1	-1E+10	1	-1E+10	1	-1E+10	1	-1E+10	1
4902549	115	C	10/21/2023	07:06	-133.159	47.430	0	202.60	0	5.8940	0	33.7110	0	26.550	0	200.812	0	154.1	4	50.7	4	-1E+10	1	-1E+10	1	-1E+10	1	-1E+10	1	-1E+10	1	-1E+10	1
4902549	115	C	10/21/2023	07:06	-133.159	47.430	0	203.60	0	5.9080	0	33.7390	0	26.570	0	201.803	0	152.9	4	50.3	4	-1E+10	1	-1E+10	1	-1E+10	1	-1E+10	1	-1E+10	1	-1E+10	1
4902549	115	C	10/21/2023	07:06	-133.159	47.430	0	204.90	0	5.8870	0	33.7550	0	26.585	0	203.090	0	151.6	4	49.9	4	-1E+10	1	-1E+10	1	-1E+10	1	-1E+10	1	-1E+10	1	-1E+10	1
4902549	115	C	10/21/2023	07:06	-133.159	47.430	0	206.30	0	5.8650	0	33.7530	0	26.586	0	204.477	0	150.3	4	49.5	4	-1E+10	1	-1E+10	1	-1E+10	1	-1E+10	1	-1E+10	1	-1E+10	1
4902549	115	C	10/21/2023	07:06	-133.159	47.430	0	207.20	0	5.8550	0	33.7570	0	26.591	0	205.369	0	149.4	4	49.1	4	-1E+10	1	-1E+10	1	-1E+10	1	-1E+10	1	-1E+10	1	-1E+10	1
4902549	115	C	10/21/2023	07:06	-133.159	47.430	0	208.10	0	5.8490	0	33.7510	0	26.587	0	206.261	0	148.5	4	48.8	4	-1E+10	1	-1E+10	1	-1E+10	1	-1E+10	1	-1E+10	1	-1E+10	1
4902549	115	C	10/21/2023	07:06	-133.159	47.430	0	209.10	0	5.8540	0	33.7540	0	26.589	0	207.251	0	147.6	4	48.5	4	-1E+10	1	-1E+10	1	-1E+10	1	-1E+10	1	-1E+10	1	-1E+10	1
4902549	115	C	10/21/2023	07:06	-133.159	47.430	0	210.00	0	5.8400	0	33.7570	0	26.593	0	208.143	0	146.8	4	48.3	4	-1E+10	1	-1E+10	1	-1E+10	1	-1E+10	1	-1E+10	1	-1E+10	1
4902549	115	C	10/21/2023	07:06	-133.159	47.430	0	210.90	0	5.8330	0	33.7580	0	26.594	0	209.034	0	146.0	4	48.0	4	-1E+10	1	-1E+10	1	-1E+10	1	-1E+10	1	-1E+10	1	-1E+10	1
4902549	115	C	10/21/2023	07:06	-133.159	47.430	0	211.90	0	5.7720	0	33.7640	0	26.607	0	210.025	0	145.4	4	47.7	4	-1E+10	1	-1E+10	1	-1E+10	1	-1E+10	1	-1E+10	1	-1E+10	1
4902549	115	C	10/21/2023	07:06	-133.159	47.430	0	212.80	0	5.7390	0	33.7640	0	26.611	0	210.917	0	144.5	4	47.4	4	-1E+10	1	-1E+10	1	-1E+10	1	-1E+10	1	-1E+10	1	-1E+10	1
4902549	115	C	10/21/2023	07:06	-133.159	47.430	0	213.70	0	5.6950	0	33.7570	0	26.610	0	211.808	0	143.6	4	47.0	4	-1E+10	1	-1E+10	1	-1E+10	1	-1E+10	1	-1E+10	1	-1E+10	1
4902549	115	C	10/21/2023	07:06	-133.159	47.430	0	214.70	0	5.6550	0	33.7580	0	26.616	0	212.799	0	142.7	4	46.7	4	-1E+10	1	-1E+10	1	-1E+10	1	-1E+10	1	-1E+10	1	-1E+10	1
4902549	115	C	10/21/2023	07:06	-133.159	47.430	0	215.60	0	5.6360	0	33.7520	0	26.614	0	213.690	0	142.0	4	46.5	4	-1E+10	1	-1E+10	1	-1E+10	1	-1E+10	1	-1E+10	1	-1E+10	1
4902549	115	C	10/21/2023	07:06	-133.159	47.430	0	216.50	0	5.6280	0	33.7530	0	26.615	0	214.582	0	141.1	4	46.2	4	-1E+10	1	-1E+10	1	-1E+10	1	-1E+10	1	-1E+10	1	-1E+10	1
4902549	115	C	10/21/2023	07:06	-133.159	47.430	0	217.90	0	5.5980	0	33.7560	0	26.621	0	215.969	0	139.9	4	45.7	4	-1E+10	1	-1E+10	1	-1E+10	1	-1E+10	1	-1E+10	1	-1E+10	1
4902549	115	C	10/21/2023	07:06	-133.159	47.430	0	219.40	0	5.5730	0	33.7550	0	26.624	0	217.455	0	138.8	4	45.3	4	-1E+10	1	-1E+10	1	-1E+10	1	-1E+10	1	-1E+10	1	-1E+10	1
4902549	115	C	10/21/2023	07:06	-133.159	47.430	0	220.30	0	5.5770	0	33.7540	0	26.622	0	218.346	0	137.9	4	45.1	4	-1E+10	1	-1E+10	1	-1E+10	1	-1E+10	1	-1E+10	1	-1E+10	1
4902549	115	C	10/21/2023	07:06	-133.159	47.430	0	221.20	0	5.5710	0	33.7580	0	26.626	0	219.238	0	137.0	4	44.8	4	-1E+10	1	-1E+10	1	-1E+10	1	-1E+10	1	-1E+10	1	-1E+10	1
4902549	115	C	10/21/2023	07:06	-133.159	47.430	0	222.20	0	5.5570	0	33.7590	0	26.629	0	220.228	0	136.1	4	44.5	4	-1E+10	1	-1E+10	1	-1E+10	1	-1E+10	1	-1E+10	1	-1E+10	1
4902549	115	C	10/21/2023	07:06	-133.159	47.430	0	223.10	0	5.5420	0	33.7580	0	26.630	0	221.120	0	135.3	4	44.2	4	-1E+10	1	-1E+10	1	-1E+10	1	-1E+10	1	-1E+10	1	-1E+10	1
4902549	115	C	10/21/2023	07:06	-133.159	47.430	0	224.10	0	5.5390	0	33.7590	0	26.631	0	222.111	0	134.3	4	43.8	4	-1E+10	1	-1E+10	1	-1E+10	1	-1E+10	1	-1E+10	1	-1E+10	1
4902549	115	C	10/21/2023	07:06	-133.159	47.430	0	225.00	0	5.5290	0	33.7590	0	26.632	0	223.002	0	133.3	4	43.5	4	-1E+10	1	-1E+10	1	-1E+10	1	-1E+10	1	-1E+10	1	-1E+10	1
4902549	115	C	10/21/2023	07:06	-133.159	47.430	0	226.00	0	5.5210	0	33.7560	0	26.631	0	223.993	0	132.1	4	43.1	4	-1E+10	1	-1E+10	1	-1E+10	1	-1E+10	1	-1E+10	1	-1E+10	1
4902549	115	C	10/21/2023	07:06	-133.159	47.430	0	227.00	0	5.4820	0	33.7660	0	26.643	0	224.983	0	131.1	4	42.8	4	-1E+10	1	-1E+10	1	-1E+10	1	-1E+10	1	-1E+10	1	-1E+10	1
4902549	115	C	10/21/2023	07:06	-133.159	47.430	0	227.90	0	5.4610	0	33.7590	0	26.640	0	225.875	0	130.3	4	42.5	4	-1E+10	1	-1E+10	1	-1E+10	1	-1E+10	1	-1E+10	1	-1E+10	1
4902549	115	C	10/21/2023	07:06	-133.159	47.430	0	228.90	0	5.4320	0	33.7620	0	26.646	0	226.865	0	129.4	4	42.1	4	-1E+10	1	-1E+10	1	-1E+10	1	-1E+10	1	-1E+10	1	-1E+10	1
4902549	115	C	10/21/2023	07:06	-133.159	47.430	0	229.80	0	5.4030	0	33.7570	0	26.645	0	227.757	0	128.6	4	41.9	4	-1E+10	1	-1E+10	1	-1E+10	1	-1E+10	1	-1E+10	1	-1E+10	1
4902549	115	C	10/21/2023	07:06	-133.159	47.430	0	230.80	0	5.3540	0	33.7730	0	26.664	0	228.747	0	127.9	4	41.6	4	-1E+10	1	-1E+10	1	-1E+10	1	-1E+10	1	-1E+10	1	-1E+10	1
4902549	115	C	10/21/2023	07:06	-133.159	47.430	0	231.80	0	5.3480	0	33.7550	0	26.650	0	229.738	0	127.2	4	41.3	4	-1E+10	1	-1E+10	1	-1E+10	1	-1E+10	1	-1E+10	1	-1E+10	1
4902549	115	C	10/21/2023	07:06	-133.159	47.430	0	232.80	0	5.3430	0	33.7590	0	26.654	0	230.729	0	126.4	4	41.1	4	-1E+10	1	-1E+10	1	-1E+10	1	-1E+10	1	-1E+10	1	-1E+10	1
4902549	115	C	10/21/2023	07:06	-133.159	47.430	0	233.80	0	5.3120	0	33.7610	0	26.659	0	231.719	0	125.6	4	40.8	4	-1E+10	1	-1E+10	1	-1E+10	1	-1E+10	1	-1E+10	1	-1E+10	1
4902549	115	C	10/21/2023	07:06	-133.159	47.430	0	234.80	0	5.3030	0	33.7580	0	26.658	0	232.710	0	124.8	4	40.5	4	-1E+10	1	-1E+10	1	-1E+10	1	-1E+10	1	-1E+10	1	-1E+10	1
4902549	115	C	10/21/2023	07:06	-133.159	47.430	0	235.80	0	5.2940	0	33.7570	0	26.658	0	233.700	0	123.9	4	40.2	4	-1E+10	1	-1E+10	1	-1E+10	1	-1E+10	1	-1E+10	1	-1E+10	1
4902549	115	C	10/21/2023	07:06	-133.159	47.430	0	236.70	0	5.2750	0	33.7610	0	26.664	0	234.592	0	123.1	4	39.9	4	-1E+10	1	-1E+10	1	-1E+10	1	-1E+10	1	-1E+10	1	-1E+10	1
4902549	115	C	10/21/2023	07:06	-133.159	47.430	0	237.70	0	5.2620	0	33.7580	0	26.663	0	235.582	0	122.2	4	39.7	4	-1E+10	1	-1E+10	1	-1E+10	1	-1E+10	1	-1E+10	1	-1E+10	1
4902549	115	C	10/21/2023	07:06	-133.159	47.430	0	238.70	0	5.2530	0	33.7590	0	26.665	0	236.573	0	121.3	4	39.3	4	-1E+10	1	-1E+10	1	-1E+10	1	-1E+10	1	-1E+10	1	-1E+10	1
4902549	115	C	10/21/2023	07:06	-133.159	47.430	0	239.70	0	5.2530	0	33.7600	0	26.665	0	237.563	0	120.5	4	39.1	4	-1E+10	1	-1E+10	1	-1E+10	1	-1E+10	1	-1E+10	1	-1E+10	1
4902549	115	C	10/21/2023	07:06	-133.159	47.430	0	240.70	0	5.2520	0	33.7600	0	26.666	0	238.554	0	119.7	4	38.8	4	-1E+10	1	-1E+10	1	-1E+10	1	-1E+10	1	-1E+10	1	-1E+10	1
4902549	115	C	10/21/2023	07:06	-133.159	47.430	0	241.70	0	5.2520	0	33.7620	0	26.667	0	239.544	0	118.9	4	38.6	4	-1E+10	1	-1E+10	1	-1E+10	1	-1E+10	1	-1E+10	1	-1E+10	1
4902549	115	C	10/21/2023	07:06	-133.159	47.430	0	242.70	0	5.2490	0	33.7630	0	26.668	0	240.535	0	118.1	4	38.3	4	-1E+10	1	-1E+10	1	-1E+10	1	-1E+10	1	-1E+10	1	-1E+10	1
4902549	115	C	10/21/2023	07:06	-133.159	47.430	0	243.70	0	5.2360	0	33.7690	0	26.675	0	241.525	0	117.3	4	38.0	4	-1E+10	1	-1E+10	1	-1E+10	1	-1E+10	1	-1E+10	1	-1E+10	1
4902549	115	C	10/21/2023	07:06	-133.159	47.430	0	244.70	0	5.2230	0	33.7650	0	26.673	0	242.516	0	116.4	4	37.7	4	-1E+10	1	-1E+10	1	-1E+10	1	-1E+10	1	-1E+10	1	-1E+10	1
4902549	115	C	10/21/2023	07:06	-133.159	47.430	0	245.70	0	5.2170	0	33.7700	0	26.678	0	243.506	0	115.2	4	37.3	4	-1E+10	1	-1E+10	1	-1E+10	1	-1E+10	1	-1E+10	1	-1E+10	1
4902549	115	C	10/21/2023	07:06	-133.159	47.430	0	246.70	0	5.1890	0	33.7760	0	26.686	0	244.497	0	114.2	4	37.0	4	-1E+10	1	-1E+10	1	-1E+10	1	-1E+10	1	-1E+10	1	-1E+10	1
4902549	115	C	10/21/2023	07:06	-133.159	47.430	0	247.70	0	5.1620	0	33.7710	0	26.685	0	245.487	0	113.2	4	36.6	4	-1E+10	1	-1E+10	1	-1E+10	1	-1E+10	1	-1E+10	1	-1E+10	1
4902549	115	C	10/21/2023	07:06	-133.159	47.430	0	248.70	0	5.1620	0	33.7690	0	26.683	0	246.478	0	112.0	4	36.2	4	-1E+10	1	-1E+10	1	-1E+10	1	-1E+10	1	-1E+10	1	-1E+10	1
4902549	115	C	10/21/2023	07:06	-133.159	47.430	0	249.80	0	5.1510	0	33.7740	0	26.688	0	247.567	0	110.7	4	35.8	4	-1E+10	1	-1E+10	1	-1E+10	1	-1E+10	1	-1E+10	1	-1E+10	1
4902549	115	C	10/21/2023	07:06	-133.159	47.430	0	250.80	0	5.1390	0	33.7730	0	26.689	0	248.558	0	109.4	4	35.4	4	-1E+10	1	-1E+10	1	-1E+10	1	-1E+10	1	-1E+10	1	-1E+10	1
4902549	115	C	10/21/2023	07:06	-133.159	47.430	0	251.80	0	5.1450	0	33.7670	0	26.684	0	249.548	0	108.0	4	34.9	4	-1E+10	1	-1E+10	1	-1E+10	1	-1E+10	1	-1E+10	1	-1E+10	1
4902549	115	C	10/21/2023	07:06	-133.159	47.430	0	252.80	0	5.1360	0	33.7840	0	26.698	0	250.538	0	106.6	4	34.5	4	-1E+10	1	-1E+10	1	-1E+10	1	-1E+10	1	-1E+10	1	-1E+10	1
4902549	115	C	10/21/2023	07:06	-133.159	47.430	0	253.80	0	5.1280	0	33.7800	0	26.696	0	251.529	0	105.6	4	34.2	4	-1E+10	1	-1E+10	1	-1E+10	1	-1E+10	1	-1E+10	1	-1E+10	1
4902549	115	C	10/21/2023	07:06	-133.159	47.430	0	254.80	0	5.1420	0	33.7840	0	26.697	0	252.519	0	105.3	4	34.0	4	-1E+10	1	-1E+10	1	-1E+10	1	-1E+10	1	-1E+10	1	-1E+10	1
4902549	115	C	10/21/2023	07:06	-133.159	47.430	0	255.80	0	5.1360	0	33.7880	0	26.701	0	253.510	0	104.9	4	33.9	4	-1E+10	1	-1E+10	1	-1E+10	1	-1E+10	1	-1E+10	1	-1E+10	1
4902549	115	C	10/21/2023	07:06	-133.159	47.430	0	256.90	0	5.1190	0	33.7870	0	26.702	0	254.599	0	104.7	4	33.9	4	-1E+10	1	-1E+10	1	-1E+10	1	-1E+10	1	-1E+10	1	-1E+10	1
4902549	115	C	10/21/2023	07:06	-133.159	47.430	0	257.90	0	5.1140	0	33.7870	0	26.703	0	255.590	0	104.6	4	33.8	4	-1E+10	1	-1E+10	1	-1E+10	1	-1E+10	1	-1E+10	1	-1E+10	1
4902549	115	C	10/21/2023	07:06	-133.159	47.430	0	258.90	0	5.1070	0	33.7900	0	26.706	0	256.580	0	104.5	4	33.8	4	-1E+10	1	-1E+10	1	-1E+10	1	-1E+10	1	-1E+10	1	-1E+10	1
4902549	115	C	10/21/2023	07:06	-133.159	47.430	0	259.90	0	5.0950	0	33.7930	0	26.710	0	257.570	0	104.5	4	33.8	4	-1E+10	1	-1E+10	1	-1E+10	1	-1E+10	1	-1E+10	1	-1E+10	1
4902549	115	C	10/21/2023	07:06	-133.159	47.430	0	260.90	0	5.0900	0	33.7900	0	26.708	0	258.561	0	104.6	4	33.8	4	-1E+10	1	-1E+10	1	-1E+10	1	-1E+10	1	-1E+10	1	-1E+10	1
4902549	115	C	10/21/2023	07:06	-133.159	47.430	0	261.90	0	5.0880	0	33.7900	0	26.708	0	259.551	0	104.7	4	33.8	4	-1E+10	1	-1E+10	1	-1E+10	1	-1E+10	1	-1E+10	1	-1E+10	1
4902549	115	C	10/21/2023	07:06	-133.159	47.430	0	263.00	0	5.0840	0	33.7900	0	26.709	0	260.641	0	104.7	4	33.8	4	-1E+10	1	-1E+10	1	-1E+10	1	-1E+10	1	-1E+10	1	-1E+10	1
4902549	115	C	10/21/2023	07:06	-133.159	47.430	0	264.00	0	5.0670	0	33.7920	0	26.712	0	261.631	0	104.6	4	33.8	4	-1E+10	1	-1E+10	1	-1E+10	1	-1E+10	1	-1E+10	1	-1E+10	1
4902549	115	C	10/21/2023	07:06	-133.159	47.430	0	265.00	0	5.0570	0	33.7910	0	26.713	0	262.622	0	104.5	4	33.7	4	-1E+10	1	-1E+10	1	-1E+10	1	-1E+10	1	-1E+10	1	-1E+10	1
4902549	115	C	10/21/2023	07:06	-133.159	47.430	0	266.00	0	5.0500	0	33.7920	0	26.714	0	263.612	0	104.3	4	33.7	4	-1E+10	1	-1E+10	1	-1E+10	1	-1E+10	1	-1E+10	1	-1E+10	1
4902549	115	C	10/21/2023	07:06	-133.159	47.430	0	267.00	0	5.0300	0	33.7930	0	26.717	0	264.602	0	104.1	4	33.6	4	-1E+10	1	-1E+10	1	-1E+10	1	-1E+10	1	-1E+10	1	-1E+10	1
4902549	115	C	10/21/2023	07:06	-133.159	47.430	0	268.00	0	5.0210	0	33.7920	0	26.718	0	265.593	0	103.8	4	33.5	4	-1E+10	1	-1E+10	1	-1E+10	1	-1E+10	1	-1E+10	1	-1E+10	1
4902549	115	C	10/21/2023	07:06	-133.159	47.430	0	269.00	0	5.0090	0	33.7920	0	26.719	0	266.583	0	103.4	4	33.3	4	-1E+10	1	-1E+10	1	-1E+10	1	-1E+10	1	-1E+10	1	-1E+10	1
4902549	115	C	10/21/2023	07:06	-133.159	47.430	0	270.00	0	4.9970	0	33.7970	0	26.724	0	267.573	0	103.0	4	33.2	4	-1E+10	1	-1E+10	1	-1E+10	1	-1E+10	1	-1E+10	1	-1E+10	1
4902549	115	C	10/21/2023	07:06	-133.159	47.430	0	271.10	0	4.9890	0	33.7950	0	26.724	0	268.663	0	102.6	4	33.1	4	-1E+10	1	-1E+10	1	-1E+10	1	-1E+10	1	-1E+10	1	-1E+10	1
4902549	115	C	10/21/2023	07:06	-133.159	47.430	0	272.10	0	4.9890	0	33.7950	0	26.724	0	269.653	0	102.1	4	32.9	4	-1E+10	1	-1E+10	1	-1E+10	1	-1E+10	1	-1E+10	1	-1E+10	1
4902549	115	C	10/21/2023	07:06	-133.159	47.430	0	273.10	0	4.9880	0	33.7950	0	26.724	0	270.644	0	101.5	4	32.7	4	-1E+10	1	-1E+10	1	-1E+10	1	-1E+10	1	-1E+10	1	-1E+10	1
4902549	115	C	10/21/2023	07:06	-133.159	47.430	0	274.10	0	4.9800	0	33.7970	0	26.726	0	271.634	0	100.9	4	32.5	4	-1E+10	1	-1E+10	1	-1E+10	1	-1E+10	1	-1E+10	1	-1E+10	1
4902549	115	C	10/21/2023	07:06	-133.159	47.430	0	275.10	0	4.9750	0	33.7970	0	26.727	0	272.624	0	100.1	4	32.3	4	-1E+10	1	-1E+10	1	-1E+10	1	-1E+10	1	-1E+10	1	-1E+10	1
4902549	115	C	10/21/2023	07:06	-133.159	47.430	0	276.10	0	4.9690	0	33.7970	0	26.728	0	273.615	0	99.4	4	32.0	4	-1E+10	1	-1E+10	1	-1E+10	1	-1E+10	1	-1E+10	1	-1E+10	1
4902549	115	C	10/21/2023	07:06	-133.159	47.430	0	277.20	0	4.9590	0	33.8000	0	26.731	0	274.704	0	98.6	4	31.8	4	-1E+10	1	-1E+10	1	-1E+10	1	-1E+10	1	-1E+10	1	-1E+10	1
4902549	115	C	10/21/2023	07:06	-133.159	47.430	0	278.20	0	4.9410	0	33.7990	0	26.732	0	275.694	0	97.9	4	31.5	4	-1E+10	1	-1E+10	1	-1E+10	1	-1E+10	1	-1E+10	1	-1E+10	1
4902549	115	C	10/21/2023	07:06	-133.159	47.430	0	279.40	0	4.9320	0	33.7980	0	26.733	0	276.883	0	96.9	4	31.2	4	-1E+10	1	-1E+10	1	-1E+10	1	-1E+10	1	-1E+10	1	-1E+10	1
4902549	115	C	10/21/2023	07:06	-133.159	47.430	0	280.20	0	4.9230	0	33.7990	0	26.734	0	277.675	0	96.3	4	31.0	4	-1E+10	1	-1E+10	1	-1E+10	1	-1E+10	1	-1E+10	1	-1E+10	1
4902549	115	C	10/21/2023	07:06	-133.159	47.430	0	281.30	0	4.8970	0	33.7980	0	26.736	0	278.764	0	95.7	4	30.8	4	-1E+10	1	-1E+10	1	-1E+10	1	-1E+10	1	-1E+10	1	-1E+10	1
4902549	115	C	10/21/2023	07:06	-133.159	47.430	0	282.30	0	4.8920	0	33.7970	0	26.736	0	279.755	0	95.3	4	30.6	4	-1E+10	1	-1E+10	1	-1E+10	1	-1E+10	1	-1E+10	1	-1E+10	1
4902549	115	C	10/21/2023	07:06	-133.159	47.430	0	283.30	0	4.8870	0	33.8000	0	26.739	0	280.745	0	94.8	4	30.5	4	-1E+10	1	-1E+10	1	-1E+10	1	-1E+10	1	-1E+10	1	-1E+10	1
4902549	115	C	10/21/2023	07:06	-133.159	47.430	0	284.40	0	4.8820	0	33.7990	0	26.739	0	281.834	0	94.3	4	30.3	4	-1E+10	1	-1E+10	1	-1E+10	1	-1E+10	1	-1E+10	1	-1E+10	1
4902549	115	C	10/21/2023	07:06	-133.159	47.430	0	285.40	0	4.8800	0	33.7990	0	26.739	0	282.825	0	93.9	4	30.2	4	-1E+10	1	-1E+10	1	-1E+10	1	-1E+10	1	-1E+10	1	-1E+10	1
4902549	115	C	10/21/2023	07:06	-133.159	47.430	0	286.40	0	4.8790	0	33.7990	0	26.739	0	283.815	0	93.4	4	30.0	4	-1E+10	1	-1E+10	1	-1E+10	1	-1E+10	1	-1E+10	1	-1E+10	1
4902549	115	C	10/21/2023	07:06	-133.159	47.430	0	287.40	0	4.8770	0	33.7990	0	26.740	0	284.805	0	92.9	4	29.9	4	-1E+10	1	-1E+10	1	-1E+10	1	-1E+10	1	-1E+10	1	-1E+10	1
4902549	115	C	10/21/2023	07:06	-133.159	47.430	0	288.40	0	4.8740	0	33.8000	0	26.741	0	285.795	0	92.4	4	29.7	4	-1E+10	1	-1E+10	1	-1E+10	1	-1E+10	1	-1E+10	1	-1E+10	1
4902549	115	C	10/21/2023	07:06	-133.159	47.430	0	289.40	0	4.8740	0	33.8000	0	26.741	0	286.786	0	91.8	4	29.5	4	-1E+10	1	-1E+10	1	-1E+10	1	-1E+10	1	-1E+10	1	-1E+10	1
4902549	115	C	10/21/2023	07:06	-133.159	47.430	0	290.40	0	4.8730	0	33.8000	0	26.741	0	287.776	0	91.1	4	29.3	4	-1E+10	1	-1E+10	1	-1E+10	1	-1E+10	1	-1E+10	1	-1E+10	1
4902549	115	C	10/21/2023	07:06	-133.159	47.430	0	291.40	0	4.8700	0	33.8020	0	26.743	0	288.766	0	90.4	4	29.1	4	-1E+10	1	-1E+10	1	-1E+10	1	-1E+10	1	-1E+10	1	-1E+10	1
4902549	115	C	10/21/2023	07:06	-133.159	47.430	0	292.40	0	4.8670	0	33.8020	0	26.743	0	289.756	0	89.7	4	28.8	4	-1E+10	1	-1E+10	1	-1E+10	1	-1E+10	1	-1E+10	1	-1E+10	1
4902549	115	C	10/21/2023	07:06	-133.159	47.430	0	293.30	0	4.8660	0	33.8020	0	26.743	0	290.648	0	89.0	4	28.6	4	-1E+10	1	-1E+10	1	-1E+10	1	-1E+10	1	-1E+10	1	-1E+10	1
4902549	115	C	10/21/2023	07:06	-133.159	47.430	0	294.30	0	4.8570	0	33.8070	0	26.748	0	291.638	0	88.2	4	28.3	4	-1E+10	1	-1E+10	1	-1E+10	1	-1E+10	1	-1E+10	1	-1E+10	1
4902549	115	C	10/21/2023	07:06	-133.159	47.430	0	295.30	0	4.8420	0	33.8110	0	26.753	0	292.628	0	87.8	4	28.2	4	-1E+10	1	-1E+10	1	-1E+10	1	-1E+10	1	-1E+10	1	-1E+10	1
4902549	115	C	10/21/2023	07:06	-133.159	47.430	0	296.20	0	4.8350	0	33.8110	0	26.754	0	293.519	0	87.3	4	28.1	4	-1E+10	1	-1E+10	1	-1E+10	1	-1E+10	1	-1E+10	1	-1E+10	1
4902549	115	C	10/21/2023	07:06	-133.159	47.430	0	297.20	0	4.8310	0	33.8120	0	26.755	0	294.510	0	86.9	4	27.9	4	-1E+10	1	-1E+10	1	-1E+10	1	-1E+10	1	-1E+10	1	-1E+10	1
4902549	115	C	10/21/2023	07:06	-133.159	47.430	0	298.20	0	4.8240	0	33.8130	0	26.757	0	295.500	0	86.4	4	27.7	4	-1E+10	1	-1E+10	1	-1E+10	1	-1E+10	1	-1E+10	1	-1E+10	1
4902549	115	C	10/21/2023	07:06	-133.159	47.430	0	299.10	0	4.8200	0	33.8130	0	26.757	0	296.391	0	85.9	4	27.6	4	-1E+10	1	-1E+10	1	-1E+10	1	-1E+10	1	-1E+10	1	-1E+10	1
4902549	115	C	10/21/2023	07:06	-133.159	47.430	0	300.10	0	4.8130	0	33.8140	0	26.759	0	297.381	0	85.4	4	27.4	4	-1E+10	1	-1E+10	1	-1E+10	1	-1E+10	1	-1E+10	1	-1E+10	1
4902549	115	C	10/21/2023	07:06	-133.159	47.430	0	301.10	0	4.7970	0	33.8200	0	26.765	0	298.372	0	85.0	4	27.3	4	-1E+10	1	-1E+10	1	-1E+10	1	-1E+10	1	-1E+10	1	-1E+10	1
4902549	115	C	10/21/2023	07:06	-133.159	47.430	0	302.00	0	4.7870	0	33.8180	0	26.765	0	299.263	0	84.6	4	27.1	4	-1E+10	1	-1E+10	1	-1E+10	1	-1E+10	1	-1E+10	1	-1E+10	1
4902549	115	C	10/21/2023	07:06	-133.159	47.430	0	303.00	0	4.7820	0	33.8180	0	26.765	0	300.253	0	84.1	4	27.0	4	-1E+10	1	-1E+10	1	-1E+10	1	-1E+10	1	-1E+10	1	-1E+10	1
4902549	115	C	10/21/2023	07:06	-133.159	47.430	0	303.90	0	4.7800	0	33.8180	0	26.766	0	301.144	0	83.6	4	26.8	4	-1E+10	1	-1E+10	1	-1E+10	1	-1E+10	1	-1E+10	1	-1E+10	1
4902549	115	C	10/21/2023	07:06	-133.159	47.430	0	304.90	0	4.7730	0	33.8200	0	26.768	0	302.134	0	83.0	4	26.6	4	-1E+10	1	-1E+10	1	-1E+10	1	-1E+10	1	-1E+10	1	-1E+10	1
4902549	115	C	10/21/2023	07:06	-133.159	47.430	0	305.80	0	4.7630	0	33.8210	0	26.770	0	303.025	0	82.4	4	26.4	4	-1E+10	1	-1E+10	1	-1E+10	1	-1E+10	1	-1E+10	1	-1E+10	1
4902549	115	C	10/21/2023	07:06	-133.159	47.430	0	306.90	0	4.7480	0	33.8220	0	26.772	0	304.115	0	81.6	4	26.2	4	-1E+10	1	-1E+10	1	-1E+10	1	-1E+10	1	-1E+10	1	-1E+10	1
4902549	115	C	10/21/2023	07:06	-133.159	47.430	0	307.90	0	4.7450	0	33.8220	0	26.773	0	305.105	0	80.9	4	25.9	4	-1E+10	1	-1E+10	1	-1E+10	1	-1E+10	1	-1E+10	1	-1E+10	1
4902549	115	C	10/21/2023	07:06	-133.159	47.430	0	308.70	0	4.7370	0	33.8290	0	26.779	0	305.897	0	80.2	4	25.7	4	-1E+10	1	-1E+10	1	-1E+10	1	-1E+10	1	-1E+10	1	-1E+10	1
4902549	115	C	10/21/2023	07:06	-133.159	47.430	0	309.70	0	4.7310	0	33.8230	0	26.775	0	306.887	0	79.5	4	25.5	4	-1E+10	1	-1E+10	1	-1E+10	1	-1E+10	1	-1E+10	1	-1E+10	1
4902549	115	C	10/21/2023	07:06	-133.159	47.430	0	310.60	0	4.7270	0	33.8230	0	26.775	0	307.778	0	78.7	4	25.2	4	-1E+10	1	-1E+10	1	-1E+10	1	-1E+10	1	-1E+10	1	-1E+10	1
4902549	115	C	10/21/2023	07:06	-133.159	47.430	0	311.60	0	4.7160	0	33.8240	0	26.777	0	308.769	0	78.0	4	25.0	4	-1E+10	1	-1E+10	1	-1E+10	1	-1E+10	1	-1E+10	1	-1E+10	1
4902549	115	C	10/21/2023	07:06	-133.159	47.430	0	312.60	0	4.7090	0	33.8270	0	26.781	0	309.759	0	77.3	4	24.8	4	-1E+10	1	-1E+10	1	-1E+10	1	-1E+10	1	-1E+10	1	-1E+10	1
4902549	115	C	10/21/2023	07:06	-133.159	47.430	0	313.60	0	4.6950	0	33.8260	0	26.781	0	310.749	0	76.9	4	24.6	4	-1E+10	1	-1E+10	1	-1E+10	1	-1E+10	1	-1E+10	1	-1E+10	1
4902549	115	C	10/21/2023	07:06	-133.159	47.430	0	314.60	0	4.7010	0	33.8280	0	26.782	0	311.739	0	76.5	4	24.5	4	-1E+10	1	-1E+10	1	-1E+10	1	-1E+10	1	-1E+10	1	-1E+10	1
4902549	115	C	10/21/2023	07:06	-133.159	47.430	0	315.60	0	4.7040	0	33.8290	0	26.783	0	312.729	0	76.1	4	24.4	4	-1E+10	1	-1E+10	1	-1E+10	1	-1E+10	1	-1E+10	1	-1E+10	1
4902549	115	C	10/21/2023	07:06	-133.159	47.430	0	316.60	0	4.7130	0	33.8300	0	26.783	0	313.719	0	75.8	4	24.3	4	-1E+10	1	-1E+10	1	-1E+10	1	-1E+10	1	-1E+10	1	-1E+10	1
4902549	115	C	10/21/2023	07:06	-133.159	47.430	0	317.60	0	4.6920	0	33.8380	0	26.791	0	314.709	0	75.6	4	24.2	4	-1E+10	1	-1E+10	1	-1E+10	1	-1E+10	1	-1E+10	1	-1E+10	1
4902549	115	C	10/21/2023	07:06	-133.159	47.430	0	318.60	0	4.6820	0	33.8330	0	26.788	0	315.700	0	75.4	4	24.1	4	-1E+10	1	-1E+10	1	-1E+10	1	-1E+10	1	-1E+10	1	-1E+10	1
4902549	115	C	10/21/2023	07:06	-133.159	47.430	0	319.60	0	4.6820	0	33.8340	0	26.789	0	316.690	0	75.2	4	24.1	4	-1E+10	1	-1E+10	1	-1E+10	1	-1E+10	1	-1E+10	1	-1E+10	1
4902549	115	C	10/21/2023	07:06	-133.159	47.430	0	320.60	0	4.6770	0	33.8340	0	26.790	0	317.680	0	75.1	4	24.0	4	-1E+10	1	-1E+10	1	-1E+10	1	-1E+10	1	-1E+10	1	-1E+10	1
4902549	115	C	10/21/2023	07:06	-133.159	47.430	0	321.60	0	4.6690	0	33.8350	0	26.791	0	318.670	0	75.0	4	24.0	4	-1E+10	1	-1E+10	1	-1E+10	1	-1E+10	1	-1E+10	1	-1E+10	1
4902549	115	C	10/21/2023	07:06	-133.159	47.430	0	322.80	0	4.6630	0	33.8350	0	26.792	0	319.858	0	74.9	4	24.0	4	-1E+10	1	-1E+10	1	-1E+10	1	-1E+10	1	-1E+10	1	-1E+10	1
4902549	115	C	10/21/2023	07:06	-133.159	47.430	0	323.50	0	4.6610	0	33.8360	0	26.793	0	320.551	0	74.9	4	23.9	4	-1E+10	1	-1E+10	1	-1E+10	1	-1E+10	1	-1E+10	1	-1E+10	1
4902549	115	C	10/21/2023	07:06	-133.159	47.430	0	324.90	0	4.6570	0	33.8340	0	26.792	0	321.937	0	74.7	4	23.9	4	-1E+10	1	-1E+10	1	-1E+10	1	-1E+10	1	-1E+10	1	-1E+10	1
4902549	115	C	10/21/2023	07:06	-133.159	47.430	0	326.10	0	4.6410	0	33.8360	0	26.795	0	323.126	0	74.7	4	23.9	4	-1E+10	1	-1E+10	1	-1E+10	1	-1E+10	1	-1E+10	1	-1E+10	1
4902549	115	C	10/21/2023	07:06	-133.159	47.430	0	326.80	0	4.6280	0	33.8390	0	26.799	0	323.819	0	74.7	4	23.9	4	-1E+10	1	-1E+10	1	-1E+10	1	-1E+10	1	-1E+10	1	-1E+10	1
4902549	115	C	10/21/2023	07:06	-133.159	47.430	0	327.80	0	4.6190	0	33.8360	0	26.798	0	324.809	0	74.7	4	23.9	4	-1E+10	1	-1E+10	1	-1E+10	1	-1E+10	1	-1E+10	1	-1E+10	1
4902549	115	C	10/21/2023	07:06	-133.159	47.430	0	328.80	0	4.6060	0	33.8340	0	26.798	0	325.799	0	74.6	4	23.8	4	-1E+10	1	-1E+10	1	-1E+10	1	-1E+10	1	-1E+10	1	-1E+10	1
4902549	115	C	10/21/2023	07:06	-133.159	47.430	0	329.90	0	4.5740	0	33.8340	0	26.801	0	326.888	0	74.4	4	23.8	4	-1E+10	1	-1E+10	1	-1E+10	1	-1E+10	1	-1E+10	1	-1E+10	1
4902549	115	C	10/21/2023	07:06	-133.159	47.430	0	330.90	0	4.5350	0	33.8310	0	26.803	0	327.878	0	74.1	4	23.6	4	-1E+10	1	-1E+10	1	-1E+10	1	-1E+10	1	-1E+10	1	-1E+10	1
4902549	115	C	10/21/2023	07:06	-133.159	47.430	0	331.90	0	4.5200	0	33.8310	0	26.804	0	328.868	0	73.7	4	23.5	4	-1E+10	1	-1E+10	1	-1E+10	1	-1E+10	1	-1E+10	1	-1E+10	1
4902549	115	C	10/21/2023	07:06	-133.159	47.430	0	333.20	0	4.5150	0	33.8320	0	26.806	0	330.155	0	73.1	4	23.3	4	-1E+10	1	-1E+10	1	-1E+10	1	-1E+10	1	-1E+10	1	-1E+10	1
4902549	115	C	10/21/2023	07:06	-133.159	47.430	0	334.00	0	4.5110	0	33.8330	0	26.807	0	330.947	0	72.7	4	23.2	4	-1E+10	1	-1E+10	1	-1E+10	1	-1E+10	1	-1E+10	1	-1E+10	1
4902549	115	C	10/21/2023	07:06	-133.159	47.430	0	334.80	0	4.5070	0	33.8340	0	26.808	0	331.739	0	72.3	4	23.1	4	-1E+10	1	-1E+10	1	-1E+10	1	-1E+10	1	-1E+10	1	-1E+10	1
4902549	115	C	10/21/2023	07:06	-133.159	47.430	0	336.00	0	4.4980	0	33.8370	0	26.812	0	332.927	0	71.8	4	22.9	4	-1E+10	1	-1E+10	1	-1E+10	1	-1E+10	1	-1E+10	1	-1E+10	1
4902549	115	C	10/21/2023	07:06	-133.159	47.430	0	337.30	0	4.4950	0	33.8380	0	26.813	0	334.214	0	71.2	4	22.7	4	-1E+10	1	-1E+10	1	-1E+10	1	-1E+10	1	-1E+10	1	-1E+10	1
4902549	115	C	10/21/2023	07:06	-133.159	47.430	0	338.10	0	4.4930	0	33.8390	0	26.814	0	335.006	0	70.7	4	22.5	4	-1E+10	1	-1E+10	1	-1E+10	1	-1E+10	1	-1E+10	1	-1E+10	1
4902549	115	C	10/21/2023	07:06	-133.159	47.430	0	339.00	0	4.4900	0	33.8390	0	26.814	0	335.897	0	70.3	4	22.4	4	-1E+10	1	-1E+10	1	-1E+10	1	-1E+10	1	-1E+10	1	-1E+10	1
4902549	115	C	10/21/2023	07:06	-133.159	47.430	0	339.80	0	4.4860	0	33.8410	0	26.816	0	336.689	0	69.8	4	22.3	4	-1E+10	1	-1E+10	1	-1E+10	1	-1E+10	1	-1E+10	1	-1E+10	1
4902549	115	C	10/21/2023	07:06	-133.159	47.430	0	340.90	0	4.4790	0	33.8430	0	26.818	0	337.778	0	69.3	4	22.1	4	-1E+10	1	-1E+10	1	-1E+10	1	-1E+10	1	-1E+10	1	-1E+10	1
4902549	115	C	10/21/2023	07:06	-133.159	47.430	0	341.70	0	4.4750	0	33.8440	0	26.820	0	338.570	0	68.9	4	22.0	4	-1E+10	1	-1E+10	1	-1E+10	1	-1E+10	1	-1E+10	1	-1E+10	1
4902549	115	C	10/21/2023	07:06	-133.159	47.430	0	342.90	0	4.4660	0	33.8460	0	26.822	0	339.758	0	68.3	4	21.8	4	-1E+10	1	-1E+10	1	-1E+10	1	-1E+10	1	-1E+10	1	-1E+10	1
4902549	115	C	10/21/2023	07:06	-133.159	47.430	0	344.20	0	4.4570	0	33.8490	0	26.826	0	341.046	0	67.8	4	21.6	4	-1E+10	1	-1E+10	1	-1E+10	1	-1E+10	1	-1E+10	1	-1E+10	1
4902549	115	C	10/21/2023	07:06	-133.159	47.430	0	345.00	0	4.4530	0	33.8500	0	26.827	0	341.838	0	67.5	4	21.5	4	-1E+10	1	-1E+10	1	-1E+10	1	-1E+10	1	-1E+10	1	-1E+10	1
4902549	115	C	10/21/2023	07:06	-133.159	47.430	0	345.90	0	4.4520	0	33.8500	0	26.827	0	342.729	0	67.1	4	21.4	4	-1E+10	1	-1E+10	1	-1E+10	1	-1E+10	1	-1E+10	1	-1E+10	1
4902549	115	C	10/21/2023	07:06	-133.159	47.430	0	346.80	0	4.4500	0	33.8510	0	26.828	0	343.620	0	66.7	4	21.2	4	-1E+10	1	-1E+10	1	-1E+10	1	-1E+10	1	-1E+10	1	-1E+10	1
4902549	115	C	10/21/2023	07:06	-133.159	47.430	0	347.90	0	4.4420	0	33.8530	0	26.830	0	344.709	0	66.3	4	21.1	4	-1E+10	1	-1E+10	1	-1E+10	1	-1E+10	1	-1E+10	1	-1E+10	1
4902549	115	C	10/21/2023	07:06	-133.159	47.430	0	348.80	0	4.4360	0	33.8550	0	26.833	0	345.600	0	65.9	4	21.0	4	-1E+10	1	-1E+10	1	-1E+10	1	-1E+10	1	-1E+10	1	-1E+10	1
4902549	115	C	10/21/2023	07:06	-133.159	47.430	0	350.00	0	4.4300	0	33.8570	0	26.835	0	346.788	0	65.5	4	20.8	4	-1E+10	1	-1E+10	1	-1E+10	1	-1E+10	1	-1E+10	1	-1E+10	1
4902549	115	C	10/21/2023	07:06	-133.159	47.430	0	353.30	0	4.4210	0	33.8600	0	26.838	0	350.054	0	64.2	4	20.4	4	-1E+10	1	-1E+10	1	-1E+10	1	-1E+10	1	-1E+10	1	-1E+10	1
4902549	115	C	10/21/2023	07:06	-133.159	47.430	0	357.80	0	4.4000	0	33.8670	0	26.846	0	354.509	0	62.4	4	19.8	4	-1E+10	1	-1E+10	1	-1E+10	1	-1E+10	1	-1E+10	1	-1E+10	1
4902549	115	C	10/21/2023	07:06	-133.159	47.430	0	362.90	0	4.3920	0	33.8750	0	26.853	0	359.558	0	60.5	4	19.2	4	-1E+10	1	-1E+10	1	-1E+10	1	-1E+10	1	-1E+10	1	-1E+10	1
4902549	115	C	10/21/2023	07:06	-133.159	47.430	0	368.00	0	4.3820	0	33.8820	0	26.860	0	364.606	0	58.6	4	18.6	4	-1E+10	1	-1E+10	1	-1E+10	1	-1E+10	1	-1E+10	1	-1E+10	1
4902549	115	C	10/21/2023	07:06	-133.159	47.430	0	372.70	0	4.3640	0	33.8900	0	26.868	0	369.259	0	56.9	4	18.1	4	-1E+10	1	-1E+10	1	-1E+10	1	-1E+10	1	-1E+10	1	-1E+10	1
4902549	115	C	10/21/2023	07:06	-133.159	47.430	0	377.80	0	4.3480	0	33.8970	0	26.876	0	374.307	0	55.3	4	17.6	4	-1E+10	1	-1E+10	1	-1E+10	1	-1E+10	1	-1E+10	1	-1E+10	1
4902549	115	C	10/21/2023	07:06	-133.159	47.430	0	383.00	0	4.3320	0	33.9050	0	26.884	0	379.454	0	53.6	4	17.0	4	-1E+10	1	-1E+10	1	-1E+10	1	-1E+10	1	-1E+10	1	-1E+10	1
4902549	115	C	10/21/2023	07:06	-133.159	47.430	0	387.70	0	4.3130	0	33.9150	0	26.894	0	384.107	0	52.2	4	16.6	4	-1E+10	1	-1E+10	1	-1E+10	1	-1E+10	1	-1E+10	1	-1E+10	1
4902549	115	C	10/21/2023	07:06	-133.159	47.430	0	392.50	0	4.3040	0	33.9210	0	26.899	0	388.858	0	50.8	4	16.1	4	-1E+10	1	-1E+10	1	-1E+10	1	-1E+10	1	-1E+10	1	-1E+10	1
4902549	115	C	10/21/2023	07:06	-133.159	47.430	0	397.90	0	4.2920	0	33.9290	0	26.907	0	394.202	0	49.2	4	15.6	4	-1E+10	1	-1E+10	1	-1E+10	1	-1E+10	1	-1E+10	1	-1E+10	1
4902549	115	C	10/21/2023	07:06	-133.159	47.430	0	403.20	0	4.2780	0	33.9360	0	26.914	0	399.448	0	47.4	4	15.1	4	-1E+10	1	-1E+10	1	-1E+10	1	-1E+10	1	-1E+10	1	-1E+10	1
4902549	115	C	10/21/2023	07:06	-133.159	47.430	0	408.20	0	4.2640	0	33.9480	0	26.925	0	404.397	0	46.0	4	14.6	4	-1E+10	1	-1E+10	1	-1E+10	1	-1E+10	1	-1E+10	1	-1E+10	1
4902549	115	C	10/21/2023	07:06	-133.159	47.430	0	413.30	0	4.2530	0	33.9580	0	26.934	0	409.444	0	44.7	4	14.2	4	-1E+10	1	-1E+10	1	-1E+10	1	-1E+10	1	-1E+10	1	-1E+10	1
4902549	115	C	10/21/2023	07:06	-133.159	47.430	0	418.30	0	4.2440	0	33.9660	0	26.942	0	414.392	0	43.6	4	13.8	4	-1E+10	1	-1E+10	1	-1E+10	1	-1E+10	1	-1E+10	1	-1E+10	1
4902549	115	C	10/21/2023	07:06	-133.159	47.430	0	423.00	0	4.2340	0	33.9740	0	26.949	0	419.044	0	42.7	4	13.5	4	-1E+10	1	-1E+10	1	-1E+10	1	-1E+10	1	-1E+10	1	-1E+10	1
4902549	115	C	10/21/2023	07:06	-133.159	47.430	0	427.60	0	4.2290	0	33.9780	0	26.953	0	423.596	0	41.8	4	13.3	4	-1E+10	1	-1E+10	1	-1E+10	1	-1E+10	1	-1E+10	1	-1E+10	1
4902549	115	C	10/21/2023	07:06	-133.159	47.430	0	432.80	0	4.2210	0	33.9840	0	26.958	0	428.742	0	40.6	4	12.9	4	-1E+10	1	-1E+10	1	-1E+10	1	-1E+10	1	-1E+10	1	-1E+10	1
4902549	115	C	10/21/2023	07:06	-133.159	47.430	0	438.10	0	4.2050	0	33.9930	0	26.967	0	433.987	0	39.6	4	12.5	4	-1E+10	1	-1E+10	1	-1E+10	1	-1E+10	1	-1E+10	1	-1E+10	1
4902549	115	C	10/21/2023	07:06	-133.159	47.430	0	442.90	0	4.1980	0	33.9970	0	26.971	0	438.737	0	38.9	4	12.3	4	-1E+10	1	-1E+10	1	-1E+10	1	-1E+10	1	-1E+10	1	-1E+10	1
4902549	115	C	10/21/2023	07:06	-133.159	47.430	0	447.60	0	4.1910	0	34.0020	0	26.976	0	443.387	0	38.1	4	12.1	4	-1E+10	1	-1E+10	1	-1E+10	1	-1E+10	1	-1E+10	1	-1E+10	1
4902549	115	C	10/21/2023	07:06	-133.159	47.430	0	452.90	0	4.1830	0	34.0070	0	26.981	0	448.632	0	37.3	4	11.8	4	-1E+10	1	-1E+10	1	-1E+10	1	-1E+10	1	-1E+10	1	-1E+10	1
4902549	115	C	10/21/2023	07:06	-133.159	47.430	0	458.20	0	4.1740	0	34.0130	0	26.987	0	453.876	0	36.3	4	11.5	4	-1E+10	1	-1E+10	1	-1E+10	1	-1E+10	1	-1E+10	1	-1E+10	1
4902549	115	C	10/21/2023	07:06	-133.159	47.430	0	463.30	0	4.1600	0	34.0200	0	26.994	0	458.922	0	35.3	4	11.2	4	-1E+10	1	-1E+10	1	-1E+10	1	-1E+10	1	-1E+10	1	-1E+10	1
4902549	115	C	10/21/2023	07:06	-133.159	47.430	0	467.90	0	4.1490	0	34.0260	0	27.000	0	463.474	0	34.4	4	10.9	4	-1E+10	1	-1E+10	1	-1E+10	1	-1E+10	1	-1E+10	1	-1E+10	1
4902549	115	C	10/21/2023	07:06	-133.159	47.430	0	472.90	0	4.1350	0	34.0330	0	27.007	0	468.421	0	33.6	4	10.6	4	-1E+10	1	-1E+10	1	-1E+10	1	-1E+10	1	-1E+10	1	-1E+10	1
4902549	115	C	10/21/2023	07:06	-133.159	47.430	0	478.00	0	4.1240	0	34.0370	0	27.011	0	473.467	0	33.1	4	10.5	4	-1E+10	1	-1E+10	1	-1E+10	1	-1E+10	1	-1E+10	1	-1E+10	1
4902549	115	C	10/21/2023	07:06	-133.159	47.430	0	482.70	0	4.1240	0	34.0400	0	27.013	0	478.117	0	32.5	4	10.3	4	-1E+10	1	-1E+10	1	-1E+10	1	-1E+10	1	-1E+10	1	-1E+10	1
4902549	115	C	10/21/2023	07:06	-133.159	47.430	0	487.60	0	4.1240	0	34.0460	0	27.018	0	482.964	0	31.9	4	10.1	4	-1E+10	1	-1E+10	1	-1E+10	1	-1E+10	1	-1E+10	1	-1E+10	1
4902549	115	C	10/21/2023	07:06	-133.159	47.430	0	492.50	0	4.1110	0	34.0510	0	27.024	0	487.812	0	31.1	4	9.8	4	-1E+10	1	-1E+10	1	-1E+10	1	-1E+10	1	-1E+10	1	-1E+10	1
4902549	115	C	10/21/2023	07:06	-133.159	47.430	0	497.60	0	4.0970	0	34.0570	0	27.030	0	492.858	0	30.6	4	9.7	4	-1E+10	1	-1E+10	1	-1E+10	1	-1E+10	1	-1E+10	1	-1E+10	1
4902549	115	C	10/21/2023	07:06	-133.159	47.430	0	502.80	0	4.0850	0	34.0600	0	27.033	0	498.002	0	30.0	4	9.5	4	-1E+10	1	-1E+10	1	-1E+10	1	-1E+10	1	-1E+10	1	-1E+10	1
4902549	115	C	10/21/2023	07:06	-133.159	47.430	0	507.70	0	4.0740	0	34.0640	0	27.038	0	502.849	0	29.4	4	9.3	4	-1E+10	1	-1E+10	1	-1E+10	1	-1E+10	1	-1E+10	1	-1E+10	1
4902549	115	C	10/21/2023	07:06	-133.159	47.430	0	512.80	0	4.0680	0	34.0700	0	27.043	0	507.894	0	28.8	4	9.1	4	-1E+10	1	-1E+10	1	-1E+10	1	-1E+10	1	-1E+10	1	-1E+10	1
4902549	115	C	10/21/2023	07:06	-133.159	47.430	0	517.90	0	4.0630	0	34.0740	0	27.047	0	512.939	0	28.2	4	8.9	4	-1E+10	1	-1E+10	1	-1E+10	1	-1E+10	1	-1E+10	1	-1E+10	1
4902549	115	C	10/21/2023	07:06	-133.159	47.430	0	522.70	0	4.0610	0	34.0770	0	27.050	0	517.687	0	27.6	4	8.7	4	-1E+10	1	-1E+10	1	-1E+10	1	-1E+10	1	-1E+10	1	-1E+10	1
4902549	115	C	10/21/2023	07:06	-133.159	47.430	0	528.00	0	4.0650	0	34.0800	0	27.052	0	522.930	0	26.7	4	8.4	4	-1E+10	1	-1E+10	1	-1E+10	1	-1E+10	1	-1E+10	1	-1E+10	1
4902549	115	C	10/21/2023	07:06	-133.159	47.430	0	533.20	0	4.0670	0	34.0870	0	27.057	0	528.073	0	25.9	4	8.2	4	-1E+10	1	-1E+10	1	-1E+10	1	-1E+10	1	-1E+10	1	-1E+10	1
4902549	115	C	10/21/2023	07:06	-133.159	47.430	0	538.00	0	4.0550	0	34.0910	0	27.061	0	532.821	0	25.3	4	8.0	4	-1E+10	1	-1E+10	1	-1E+10	1	-1E+10	1	-1E+10	1	-1E+10	1
4902549	115	C	10/21/2023	07:06	-133.159	47.430	0	542.90	0	4.0480	0	34.0950	0	27.065	0	537.667	0	24.7	4	7.8	4	-1E+10	1	-1E+10	1	-1E+10	1	-1E+10	1	-1E+10	1	-1E+10	1
4902549	115	C	10/21/2023	07:06	-133.159	47.430	0	547.80	0	4.0430	0	34.1000	0	27.070	0	542.514	0	24.0	4	7.6	4	-1E+10	1	-1E+10	1	-1E+10	1	-1E+10	1	-1E+10	1	-1E+10	1
4902549	115	C	10/21/2023	07:06	-133.159	47.430	0	552.70	0	4.0380	0	34.1040	0	27.074	0	547.360	0	23.5	4	7.4	4	-1E+10	1	-1E+10	1	-1E+10	1	-1E+10	1	-1E+10	1	-1E+10	1
4902549	115	C	10/21/2023	07:06	-133.159	47.430	0	557.70	0	4.0350	0	34.1060	0	27.076	0	552.305	0	23.0	4	7.3	4	-1E+10	1	-1E+10	1	-1E+10	1	-1E+10	1	-1E+10	1	-1E+10	1
4902549	115	C	10/21/2023	07:06	-133.159	47.430	0	562.60	0	4.0190	0	34.1090	0	27.080	0	557.151	0	22.3	4	7.0	4	-1E+10	1	-1E+10	1	-1E+10	1	-1E+10	1	-1E+10	1	-1E+10	1
4902549	115	C	10/21/2023	07:06	-133.159	47.430	0	567.60	0	4.0100	0	34.1140	0	27.085	0	562.096	0	21.1	4	6.7	4	-1E+10	1	-1E+10	1	-1E+10	1	-1E+10	1	-1E+10	1	-1E+10	1
4902549	115	C	10/21/2023	07:06	-133.159	47.430	0	572.50	0	4.0020	0	34.1210	0	27.091	0	566.942	0	20.1	4	6.4	4	-1E+10	1	-1E+10	1	-1E+10	1	-1E+10	1	-1E+10	1	-1E+10	1
4902549	115	C	10/21/2023	07:06	-133.159	47.430	0	577.80	0	3.9870	0	34.1270	0	27.097	0	572.183	0	19.5	4	6.2	4	-1E+10	1	-1E+10	1	-1E+10	1	-1E+10	1	-1E+10	1	-1E+10	1
4902549	115	C	10/21/2023	07:06	-133.159	47.430	0	583.00	0	3.9710	0	34.1320	0	27.103	0	577.325	0	19.1	4	6.0	4	-1E+10	1	-1E+10	1	-1E+10	1	-1E+10	1	-1E+10	1	-1E+10	1
4902549	115	C	10/21/2023	07:06	-133.159	47.430	0	587.80	0	3.9620	0	34.1350	0	27.106	0	582.072	0	18.9	4	6.0	4	-1E+10	1	-1E+10	1	-1E+10	1	-1E+10	1	-1E+10	1	-1E+10	1
4902549	115	C	10/21/2023	07:06	-133.159	47.430	0	593.00	0	3.9530	0	34.1390	0	27.110	0	587.214	0	18.5	4	5.8	4	-1E+10	1	-1E+10	1	-1E+10	1	-1E+10	1	-1E+10	1	-1E+10	1
4902549	115	C	10/21/2023	07:06	-133.159	47.430	0	598.10	0	3.9370	0	34.1430	0	27.115	0	592.257	0	18.0	4	5.7	4	-1E+10	1	-1E+10	1	-1E+10	1	-1E+10	1	-1E+10	1	-1E+10	1
4902549	115	C	10/21/2023	07:06	-133.159	47.430	0	602.90	0	3.9220	0	34.1480	0	27.121	0	597.003	0	17.7	4	5.6	4	-1E+10	1	-1E+10	1	-1E+10	1	-1E+10	1	-1E+10	1	-1E+10	1
4902549	115	C	10/21/2023	07:06	-133.159	47.430	0	607.60	0	3.9140	0	34.1500	0	27.123	0	601.650	0	17.5	4	5.5	4	-1E+10	1	-1E+10	1	-1E+10	1	-1E+10	1	-1E+10	1	-1E+10	1
4902549	115	C	10/21/2023	07:06	-133.159	47.430	0	612.80	0	3.9050	0	34.1520	0	27.126	0	606.792	0	17.3	4	5.4	4	-1E+10	1	-1E+10	1	-1E+10	1	-1E+10	1	-1E+10	1	-1E+10	1
4902549	115	C	10/21/2023	07:06	-133.159	47.430	0	618.10	0	3.8900	0	34.1560	0	27.131	0	612.032	0	17.0	4	5.4	4	-1E+10	1	-1E+10	1	-1E+10	1	-1E+10	1	-1E+10	1	-1E+10	1
4902549	115	C	10/21/2023	07:06	-133.159	47.430	0	622.90	0	3.8760	0	34.1590	0	27.134	0	616.778	0	16.8	4	5.3	4	-1E+10	1	-1E+10	1	-1E+10	1	-1E+10	1	-1E+10	1	-1E+10	1
4902549	115	C	10/21/2023	07:06	-133.159	47.430	0	627.80	0	3.8660	0	34.1620	0	27.138	0	621.622	0	16.7	4	5.2	4	-1E+10	1	-1E+10	1	-1E+10	1	-1E+10	1	-1E+10	1	-1E+10	1
4902549	115	C	10/21/2023	07:06	-133.159	47.430	0	632.90	0	3.8550	0	34.1650	0	27.141	0	626.664	0	16.5	4	5.2	4	-1E+10	1	-1E+10	1	-1E+10	1	-1E+10	1	-1E+10	1	-1E+10	1
4902549	115	C	10/21/2023	07:06	-133.159	47.430	0	638.20	0	3.8410	0	34.1680	0	27.145	0	631.904	0	16.2	4	5.1	4	-1E+10	1	-1E+10	1	-1E+10	1	-1E+10	1	-1E+10	1	-1E+10	1
4902549	115	C	10/21/2023	07:06	-133.159	47.430	0	643.10	0	3.8250	0	34.1730	0	27.151	0	636.748	0	15.9	4	5.0	4	-1E+10	1	-1E+10	1	-1E+10	1	-1E+10	1	-1E+10	1	-1E+10	1
4902549	115	C	10/21/2023	07:06	-133.159	47.430	0	647.80	0	3.8130	0	34.1760	0	27.154	0	641.395	0	15.6	4	4.9	4	-1E+10	1	-1E+10	1	-1E+10	1	-1E+10	1	-1E+10	1	-1E+10	1
4902549	115	C	10/21/2023	07:06	-133.159	47.430	0	652.70	0	3.8010	0	34.1800	0	27.159	0	646.239	0	15.4	4	4.8	4	-1E+10	1	-1E+10	1	-1E+10	1	-1E+10	1	-1E+10	1	-1E+10	1
4902549	115	C	10/21/2023	07:06	-133.159	47.430	0	657.70	0	3.7940	0	34.1830	0	27.162	0	651.181	0	15.1	4	4.7	4	-1E+10	1	-1E+10	1	-1E+10	1	-1E+10	1	-1E+10	1	-1E+10	1
4902549	115	C	10/21/2023	07:06	-133.159	47.430	0	662.80	0	3.7860	0	34.1880	0	27.167	0	656.223	0	14.8	4	4.6	4	-1E+10	1	-1E+10	1	-1E+10	1	-1E+10	1	-1E+10	1	-1E+10	1
4902549	115	C	10/21/2023	07:06	-133.159	47.430	0	668.00	0	3.7790	0	34.1900	0	27.169	0	661.363	0	14.4	4	4.5	4	-1E+10	1	-1E+10	1	-1E+10	1	-1E+10	1	-1E+10	1	-1E+10	1
4902549	115	C	10/21/2023	07:06	-133.159	47.430	0	673.00	0	3.7750	0	34.1940	0	27.173	0	666.305	0	14.0	4	4.4	4	-1E+10	1	-1E+10	1	-1E+10	1	-1E+10	1	-1E+10	1	-1E+10	1
4902549	115	C	10/21/2023	07:06	-133.159	47.430	0	678.00	0	3.7680	0	34.1980	0	27.177	0	671.247	0	13.7	4	4.3	4	-1E+10	1	-1E+10	1	-1E+10	1	-1E+10	1	-1E+10	1	-1E+10	1
4902549	115	C	10/21/2023	07:06	-133.159	47.430	0	683.10	0	3.7620	0	34.2020	0	27.180	0	676.288	0	13.2	4	4.2	4	-1E+10	1	-1E+10	1	-1E+10	1	-1E+10	1	-1E+10	1	-1E+10	1
4902549	115	C	10/21/2023	07:06	-133.159	47.430	0	687.70	0	3.7580	0	34.2060	0	27.184	0	680.835	0	12.9	4	4.1	4	-1E+10	1	-1E+10	1	-1E+10	1	-1E+10	1	-1E+10	1	-1E+10	1
4902549	115	C	10/21/2023	07:06	-133.159	47.430	0	692.90	0	3.7530	0	34.2090	0	27.187	0	685.974	0	12.6	4	4.0	4	-1E+10	1	-1E+10	1	-1E+10	1	-1E+10	1	-1E+10	1	-1E+10	1
4902549	115	C	10/21/2023	07:06	-133.159	47.430	0	698.10	0	3.7490	0	34.2120	0	27.190	0	691.114	0	12.3	4	3.9	4	-1E+10	1	-1E+10	1	-1E+10	1	-1E+10	1	-1E+10	1	-1E+10	1
4902549	115	C	10/21/2023	07:06	-133.159	47.430	0	702.90	0	3.7440	0	34.2140	0	27.192	0	695.858	0	11.9	4	3.7	4	-1E+10	1	-1E+10	1	-1E+10	1	-1E+10	1	-1E+10	1	-1E+10	1
4902549	115	C	10/21/2023	07:06	-133.159	47.430	0	707.70	0	3.7370	0	34.2170	0	27.195	0	700.602	0	11.5	4	3.6	4	-1E+10	1	-1E+10	1	-1E+10	1	-1E+10	1	-1E+10	1	-1E+10	1
4902549	115	C	10/21/2023	07:06	-133.159	47.430	0	712.60	0	3.7330	0	34.2210	0	27.199	0	705.444	0	11.1	4	3.5	4	-1E+10	1	-1E+10	1	-1E+10	1	-1E+10	1	-1E+10	1	-1E+10	1
4902549	115	C	10/21/2023	07:06	-133.159	47.430	0	717.50	0	3.7270	0	34.2250	0	27.202	0	710.287	0	10.7	4	3.4	4	-1E+10	1	-1E+10	1	-1E+10	1	-1E+10	1	-1E+10	1	-1E+10	1
4902549	115	C	10/21/2023	07:06	-133.159	47.430	0	722.50	0	3.7170	0	34.2290	0	27.207	0	715.228	0	10.4	4	3.3	4	-1E+10	1	-1E+10	1	-1E+10	1	-1E+10	1	-1E+10	1	-1E+10	1
4902549	115	C	10/21/2023	07:06	-133.159	47.430	0	727.60	0	3.7080	0	34.2320	0	27.210	0	720.268	0	10.2	4	3.2	4	-1E+10	1	-1E+10	1	-1E+10	1	-1E+10	1	-1E+10	1	-1E+10	1
4902549	115	C	10/21/2023	07:06	-133.159	47.430	0	732.70	0	3.7030	0	34.2340	0	27.212	0	725.307	0	10.0	4	3.1	4	-1E+10	1	-1E+10	1	-1E+10	1	-1E+10	1	-1E+10	1	-1E+10	1
4902549	115	C	10/21/2023	07:06	-133.159	47.430	0	737.90	0	3.6970	0	34.2370	0	27.215	0	730.446	0	9.8	4	3.1	4	-1E+10	1	-1E+10	1	-1E+10	1	-1E+10	1	-1E+10	1	-1E+10	1
4902549	115	C	10/21/2023	07:06	-133.159	47.430	0	743.20	0	3.6900	0	34.2400	0	27.218	0	735.683	0	9.7	4	3.0	4	-1E+10	1	-1E+10	1	-1E+10	1	-1E+10	1	-1E+10	1	-1E+10	1
4902549	115	C	10/21/2023	07:06	-133.159	47.430	0	748.00	0	3.6810	0	34.2410	0	27.220	0	740.426	0	9.6	4	3.0	4	-1E+10	1	-1E+10	1	-1E+10	1	-1E+10	1	-1E+10	1	-1E+10	1
4902549	115	C	10/21/2023	07:06	-133.159	47.430	0	752.70	0	3.6720	0	34.2430	0	27.222	0	745.070	0	9.4	4	2.9	4	-1E+10	1	-1E+10	1	-1E+10	1	-1E+10	1	-1E+10	1	-1E+10	1
4902549	115	C	10/21/2023	07:06	-133.159	47.430	0	758.00	0	3.6610	0	34.2460	0	27.226	0	750.307	0	9.2	4	2.9	4	-1E+10	1	-1E+10	1	-1E+10	1	-1E+10	1	-1E+10	1	-1E+10	1
4902549	115	C	10/21/2023	07:06	-133.159	47.430	0	762.80	0	3.6520	0	34.2500	0	27.230	0	755.049	0	9.1	4	2.8	4	-1E+10	1	-1E+10	1	-1E+10	1	-1E+10	1	-1E+10	1	-1E+10	1
4902549	115	C	10/21/2023	07:06	-133.159	47.430	0	767.60	0	3.6390	0	34.2520	0	27.233	0	759.792	0	9.0	4	2.8	4	-1E+10	1	-1E+10	1	-1E+10	1	-1E+10	1	-1E+10	1	-1E+10	1
4902549	115	C	10/21/2023	07:06	-133.159	47.430	0	772.90	0	3.6250	0	34.2550	0	27.237	0	765.028	0	8.8	4	2.8	4	-1E+10	1	-1E+10	1	-1E+10	1	-1E+10	1	-1E+10	1	-1E+10	1
4902549	115	C	10/21/2023	07:06	-133.159	47.430	0	778.10	0	3.6160	0	34.2580	0	27.240	0	770.166	0	8.6	4	2.7	4	-1E+10	1	-1E+10	1	-1E+10	1	-1E+10	1	-1E+10	1	-1E+10	1
4902549	115	C	10/21/2023	07:06	-133.159	47.430	0	783.30	0	3.6070	0	34.2610	0	27.243	0	775.303	0	8.4	4	2.6	4	-1E+10	1	-1E+10	1	-1E+10	1	-1E+10	1	-1E+10	1	-1E+10	1
4902549	115	C	10/21/2023	07:06	-133.159	47.430	0	788.00	0	3.6010	0	34.2640	0	27.246	0	779.946	0	8.2	4	2.6	4	-1E+10	1	-1E+10	1	-1E+10	1	-1E+10	1	-1E+10	1	-1E+10	1
4902549	115	C	10/21/2023	07:06	-133.159	47.430	0	792.60	0	3.5940	0	34.2670	0	27.249	0	784.491	0	8.0	4	2.5	4	-1E+10	1	-1E+10	1	-1E+10	1	-1E+10	1	-1E+10	1	-1E+10	1
4902549	115	C	10/21/2023	07:06	-133.159	47.430	0	797.90	0	3.5890	0	34.2710	0	27.253	0	789.726	0	7.8	4	2.5	4	-1E+10	1	-1E+10	1	-1E+10	1	-1E+10	1	-1E+10	1	-1E+10	1
4902549	115	C	10/21/2023	07:06	-133.159	47.430	0	803.20	0	3.5840	0	34.2720	0	27.254	0	794.962	0	7.7	4	2.4	4	-1E+10	1	-1E+10	1	-1E+10	1	-1E+10	1	-1E+10	1	-1E+10	1
4902549	115	C	10/21/2023	07:06	-133.159	47.430	0	807.90	0	3.5720	0	34.2750	0	27.258	0	799.605	0	7.5	4	2.4	4	-1E+10	1	-1E+10	1	-1E+10	1	-1E+10	1	-1E+10	1	-1E+10	1
4902549	115	C	10/21/2023	07:06	-133.159	47.430	0	812.70	0	3.5610	0	34.2790	0	27.262	0	804.346	0	7.3	4	2.3	4	-1E+10	1	-1E+10	1	-1E+10	1	-1E+10	1	-1E+10	1	-1E+10	1
4902549	115	C	10/21/2023	07:06	-133.159	47.430	0	818.00	0	3.5530	0	34.2840	0	27.267	0	809.581	0	7.0	4	2.2	4	-1E+10	1	-1E+10	1	-1E+10	1	-1E+10	1	-1E+10	1	-1E+10	1
4902549	115	C	10/21/2023	07:06	-133.159	47.430	0	822.80	0	3.5690	0	34.2910	0	27.271	0	814.323	0	6.7	4	2.1	4	-1E+10	1	-1E+10	1	-1E+10	1	-1E+10	1	-1E+10	1	-1E+10	1
4902549	115	C	10/21/2023	07:06	-133.159	47.430	0	827.60	0	3.5660	0	34.2940	0	27.274	0	819.064	0	6.7	4	2.1	4	-1E+10	1	-1E+10	1	-1E+10	1	-1E+10	1	-1E+10	1	-1E+10	1
4902549	115	C	10/21/2023	07:06	-133.159	47.430	0	833.00	0	3.5570	0	34.2970	0	27.277	0	824.398	0	6.7	4	2.1	4	-1E+10	1	-1E+10	1	-1E+10	1	-1E+10	1	-1E+10	1	-1E+10	1
4902549	115	C	10/21/2023	07:06	-133.159	47.430	0	838.30	0	3.5460	0	34.3010	0	27.281	0	829.632	0	6.6	4	2.1	4	-1E+10	1	-1E+10	1	-1E+10	1	-1E+10	1	-1E+10	1	-1E+10	1
4902549	115	C	10/21/2023	07:06	-133.159	47.430	0	843.10	0	3.5420	0	34.3030	0	27.283	0	834.373	0	6.6	4	2.1	4	-1E+10	1	-1E+10	1	-1E+10	1	-1E+10	1	-1E+10	1	-1E+10	1
4902549	115	C	10/21/2023	07:06	-133.159	47.430	0	848.00	0	3.5340	0	34.3050	0	27.286	0	839.213	0	6.6	4	2.1	4	-1E+10	1	-1E+10	1	-1E+10	1	-1E+10	1	-1E+10	1	-1E+10	1
4902549	115	C	10/21/2023	07:06	-133.159	47.430	0	853.00	0	3.5280	0	34.3060	0	27.287	0	844.151	0	6.6	4	2.1	4	-1E+10	1	-1E+10	1	-1E+10	1	-1E+10	1	-1E+10	1	-1E+10	1
4902549	115	C	10/21/2023	07:06	-133.159	47.430	0	857.90	0	3.5190	0	34.3090	0	27.291	0	848.990	0	6.7	4	2.1	4	-1E+10	1	-1E+10	1	-1E+10	1	-1E+10	1	-1E+10	1	-1E+10	1
4902549	115	C	10/21/2023	07:06	-133.159	47.430	0	863.00	0	3.4940	0	34.3120	0	27.295	0	854.026	0	6.7	4	2.1	4	-1E+10	1	-1E+10	1	-1E+10	1	-1E+10	1	-1E+10	1	-1E+10	1
4902549	115	C	10/21/2023	07:06	-133.159	47.430	0	868.10	0	3.4880	0	34.3130	0	27.297	0	859.063	0	6.7	4	2.1	4	-1E+10	1	-1E+10	1	-1E+10	1	-1E+10	1	-1E+10	1	-1E+10	1
4902549	115	C	10/21/2023	07:06	-133.159	47.430	0	872.80	0	3.4770	0	34.3150	0	27.299	0	863.704	0	6.7	4	2.1	4	-1E+10	1	-1E+10	1	-1E+10	1	-1E+10	1	-1E+10	1	-1E+10	1
4902549	115	C	10/21/2023	07:06	-133.159	47.430	0	877.60	0	3.4630	0	34.3160	0	27.302	0	868.444	0	6.9	4	2.1	4	-1E+10	1	-1E+10	1	-1E+10	1	-1E+10	1	-1E+10	1	-1E+10	1
4902549	115	C	10/21/2023	07:06	-133.159	47.430	0	882.90	0	3.4440	0	34.3180	0	27.305	0	873.678	0	7.0	4	2.2	4	-1E+10	1	-1E+10	1	-1E+10	1	-1E+10	1	-1E+10	1	-1E+10	1
4902549	115	C	10/21/2023	07:06	-133.159	47.430	0	887.90	0	3.4280	0	34.3170	0	27.306	0	878.615	0	7.1	4	2.2	4	-1E+10	1	-1E+10	1	-1E+10	1	-1E+10	1	-1E+10	1	-1E+10	1
4902549	115	C	10/21/2023	07:06	-133.159	47.430	0	892.70	0	3.4030	0	34.3180	0	27.309	0	883.355	0	7.2	4	2.2	4	-1E+10	1	-1E+10	1	-1E+10	1	-1E+10	1	-1E+10	1	-1E+10	1
4902549	115	C	10/21/2023	07:06	-133.159	47.430	0	898.00	0	3.3880	0	34.3200	0	27.312	0	888.588	0	7.2	4	2.3	4	-1E+10	1	-1E+10	1	-1E+10	1	-1E+10	1	-1E+10	1	-1E+10	1
4902549	115	C	10/21/2023	07:06	-133.159	47.430	0	903.00	0	3.3830	0	34.3200	0	27.313	0	893.525	0	7.3	4	2.3	4	-1E+10	1	-1E+10	1	-1E+10	1	-1E+10	1	-1E+10	1	-1E+10	1
4902549	115	C	10/21/2023	07:06	-133.159	47.430	0	907.90	0	3.3560	0	34.3210	0	27.316	0	898.363	0	7.4	4	2.3	4	-1E+10	1	-1E+10	1	-1E+10	1	-1E+10	1	-1E+10	1	-1E+10	1
4902549	115	C	10/21/2023	07:06	-133.159	47.430	0	912.90	0	3.3400	0	34.3220	0	27.318	0	903.300	0	7.4	4	2.3	4	-1E+10	1	-1E+10	1	-1E+10	1	-1E+10	1	-1E+10	1	-1E+10	1
4902549	115	C	10/21/2023	07:06	-133.159	47.430	0	917.90	0	3.3200	0	34.3240	0	27.322	0	908.236	0	7.2	4	2.2	4	-1E+10	1	-1E+10	1	-1E+10	1	-1E+10	1	-1E+10	1	-1E+10	1
4902549	115	C	10/21/2023	07:06	-133.159	47.430	0	923.10	0	3.3340	0	34.3290	0	27.325	0	913.370	0	7.1	4	2.2	4	-1E+10	1	-1E+10	1	-1E+10	1	-1E+10	1	-1E+10	1	-1E+10	1
4902549	115	C	10/21/2023	07:06	-133.159	47.430	0	927.70	0	3.3240	0	34.3310	0	27.327	0	917.912	0	7.0	4	2.2	4	-1E+10	1	-1E+10	1	-1E+10	1	-1E+10	1	-1E+10	1	-1E+10	1
4902549	115	C	10/21/2023	07:06	-133.159	47.430	0	932.80	0	3.3190	0	34.3350	0	27.331	0	922.947	0	7.0	4	2.2	4	-1E+10	1	-1E+10	1	-1E+10	1	-1E+10	1	-1E+10	1	-1E+10	1
4902549	115	C	10/21/2023	07:06	-133.159	47.430	0	937.90	0	3.3020	0	34.3360	0	27.333	0	927.982	0	7.0	4	2.2	4	-1E+10	1	-1E+10	1	-1E+10	1	-1E+10	1	-1E+10	1	-1E+10	1
4902549	115	C	10/21/2023	07:06	-133.159	47.430	0	943.00	0	3.2770	0	34.3380	0	27.337	0	933.016	0	7.0	4	2.2	4	-1E+10	1	-1E+10	1	-1E+10	1	-1E+10	1	-1E+10	1	-1E+10	1
4902549	115	C	10/21/2023	07:06	-133.159	47.430	0	948.20	0	3.2770	0	34.3410	0	27.340	0	938.150	0	7.0	4	2.2	4	-1E+10	1	-1E+10	1	-1E+10	1	-1E+10	1	-1E+10	1	-1E+10	1
4902549	115	C	10/21/2023	07:06	-133.159	47.430	0	953.00	0	3.2680	0	34.3430	0	27.342	0	942.888	0	7.0	4	2.2	4	-1E+10	1	-1E+10	1	-1E+10	1	-1E+10	1	-1E+10	1	-1E+10	1
4902549	115	C	10/21/2023	07:06	-133.159	47.430	0	957.80	0	3.2600	0	34.3440	0	27.344	0	947.626	0	7.0	4	2.2	4	-1E+10	1	-1E+10	1	-1E+10	1	-1E+10	1	-1E+10	1	-1E+10	1
4902549	115	C	10/21/2023	07:06	-133.159	47.430	0	962.60	0	3.2530	0	34.3450	0	27.345	0	952.364	0	7.1	4	2.2	4	-1E+10	1	-1E+10	1	-1E+10	1	-1E+10	1	-1E+10	1	-1E+10	1
4902549	115	C	10/21/2023	07:06	-133.159	47.430	0	967.80	0	3.2250	0	34.3460	0	27.349	0	957.497	0	7.2	4	2.2	4	-1E+10	1	-1E+10	1	-1E+10	1	-1E+10	1	-1E+10	1	-1E+10	1
4902549	115	C	10/21/2023	07:06	-133.159	47.430	0	973.20	0	3.2040	0	34.3460	0	27.351	0	962.827	0	7.3	4	2.3	4	-1E+10	1	-1E+10	1	-1E+10	1	-1E+10	1	-1E+10	1	-1E+10	1
4902549	115	C	10/21/2023	07:06	-133.159	47.430	0	978.00	0	3.1930	0	34.3470	0	27.352	0	967.565	0	7.3	4	2.3	4	-1E+10	1	-1E+10	1	-1E+10	1	-1E+10	1	-1E+10	1	-1E+10	1
4902549	115	C	10/21/2023	07:06	-133.159	47.430	0	982.90	0	3.1730	0	34.3480	0	27.355	0	972.401	0	7.4	4	2.3	4	-1E+10	1	-1E+10	1	-1E+10	1	-1E+10	1	-1E+10	1	-1E+10	1
4902549	115	C	10/21/2023	07:06	-133.159	47.430	0	987.80	0	3.1620	0	34.3500	0	27.358	0	977.237	0	7.4	4	2.3	4	-1E+10	1	-1E+10	1	-1E+10	1	-1E+10	1	-1E+10	1	-1E+10	1
4902549	115	C	10/21/2023	07:06	-133.159	47.430	0	992.70	0	3.1510	0	34.3510	0	27.359	0	982.074	0	7.4	4	2.3	4	-1E+10	1	-1E+10	1	-1E+10	1	-1E+10	1	-1E+10	1	-1E+10	1
4902549	115	C	10/21/2023	07:06	-133.159	47.430	0	997.60	0	3.1420	0	34.3520	0	27.361	0	986.910	0	7.4	4	2.3	4	-1E+10	1	-1E+10	1	-1E+10	1	-1E+10	1	-1E+10	1	-1E+10	1
4902549	115	C	10/21/2023	07:06	-133.159	47.430	0	1005.10	0	3.1250	0	34.3550	0	27.365	0	994.311	0	7.4	4	2.3	4	-1E+10	1	-1E+10	1	-1E+10	1	-1E+10	1	-1E+10	1	-1E+10	1
4902549	115	C	10/21/2023	07:06	-133.159	47.430	0	1015.20	0	3.1040	0	34.3570	0	27.369	0	1004.279	0	7.4	4	2.3	4	-1E+10	1	-1E+10	1	-1E+10	1	-1E+10	1	-1E+10	1	-1E+10	1
4902549	115	C	10/21/2023	07:06	-133.159	47.430	0	1025.50	0	3.0810	0	34.3620	0	27.375	0	1014.443	0	7.4	4	2.3	4	-1E+10	1	-1E+10	1	-1E+10	1	-1E+10	1	-1E+10	1	-1E+10	1
4902549	115	C	10/21/2023	07:06	-133.159	47.430	0	1035.40	0	3.0550	0	34.3690	0	27.383	0	1024.212	0	7.3	4	2.3	4	-1E+10	1	-1E+10	1	-1E+10	1	-1E+10	1	-1E+10	1	-1E+10	1
4902549	115	C	10/21/2023	07:06	-133.159	47.430	0	1045.50	0	3.0390	0	34.3750	0	27.389	0	1034.178	0	7.2	4	2.2	4	-1E+10	1	-1E+10	1	-1E+10	1	-1E+10	1	-1E+10	1	-1E+10	1
4902549	115	C	10/21/2023	07:06	-133.159	47.430	0	1055.80	0	3.0460	0	34.3820	0	27.394	0	1044.341	0	7.1	4	2.2	4	-1E+10	1	-1E+10	1	-1E+10	1	-1E+10	1	-1E+10	1	-1E+10	1
4902549	115	C	10/21/2023	07:06	-133.159	47.430	0	1065.40	0	3.0380	0	34.3870	0	27.399	0	1053.813	0	7.2	4	2.2	4	-1E+10	1	-1E+10	1	-1E+10	1	-1E+10	1	-1E+10	1	-1E+10	1
4902549	115	C	10/21/2023	07:06	-133.159	47.430	0	1075.50	0	3.0180	0	34.3900	0	27.403	0	1063.777	0	7.2	4	2.2	4	-1E+10	1	-1E+10	1	-1E+10	1	-1E+10	1	-1E+10	1	-1E+10	1
4902549	115	C	10/21/2023	07:06	-133.159	47.430	0	1085.30	0	3.0030	0	34.3910	0	27.405	0	1073.446	0	7.3	4	2.3	4	-1E+10	1	-1E+10	1	-1E+10	1	-1E+10	1	-1E+10	1	-1E+10	1
4902549	115	C	10/21/2023	07:06	-133.159	47.430	0	1095.20	0	2.9870	0	34.3940	0	27.409	0	1083.212	0	7.4	4	2.3	4	-1E+10	1	-1E+10	1	-1E+10	1	-1E+10	1	-1E+10	1	-1E+10	1
4902549	115	C	10/21/2023	07:06	-133.159	47.430	0	1105.20	0	2.9800	0	34.3980	0	27.413	0	1093.076	0	7.4	4	2.3	4	-1E+10	1	-1E+10	1	-1E+10	1	-1E+10	1	-1E+10	1	-1E+10	1
4902549	115	C	10/21/2023	07:06	-133.159	47.430	0	1115.10	0	2.9670	0	34.4010	0	27.417	0	1102.842	0	7.5	4	2.3	4	-1E+10	1	-1E+10	1	-1E+10	1	-1E+10	1	-1E+10	1	-1E+10	1
4902549	115	C	10/21/2023	07:06	-133.159	47.430	0	1125.30	0	2.9530	0	34.4040	0	27.421	0	1112.903	0	7.6	4	2.4	4	-1E+10	1	-1E+10	1	-1E+10	1	-1E+10	1	-1E+10	1	-1E+10	1
4902549	115	C	10/21/2023	07:06	-133.159	47.430	0	1135.50	0	2.9420	0	34.4070	0	27.424	0	1122.963	0	7.7	4	2.4	4	-1E+10	1	-1E+10	1	-1E+10	1	-1E+10	1	-1E+10	1	-1E+10	1
4902549	115	C	10/21/2023	07:06	-133.159	47.430	0	1145.70	0	2.9320	0	34.4090	0	27.427	0	1133.023	0	7.9	4	2.4	4	-1E+10	1	-1E+10	1	-1E+10	1	-1E+10	1	-1E+10	1	-1E+10	1
4902549	115	C	10/21/2023	07:06	-133.159	47.430	0	1155.40	0	2.9210	0	34.4120	0	27.430	0	1142.589	0	8.0	4	2.5	4	-1E+10	1	-1E+10	1	-1E+10	1	-1E+10	1	-1E+10	1	-1E+10	1
4902549	115	C	10/21/2023	07:06	-133.159	47.430	0	1165.20	0	2.9040	0	34.4150	0	27.434	0	1152.254	0	8.1	4	2.5	4	-1E+10	1	-1E+10	1	-1E+10	1	-1E+10	1	-1E+10	1	-1E+10	1
4902549	115	C	10/21/2023	07:06	-133.159	47.430	0	1175.40	0	2.8910	0	34.4170	0	27.437	0	1162.312	0	8.3	4	2.6	4	-1E+10	1	-1E+10	1	-1E+10	1	-1E+10	1	-1E+10	1	-1E+10	1
4902549	115	C	10/21/2023	07:06	-133.159	47.430	0	1185.50	0	2.8690	0	34.4210	0	27.442	0	1172.272	0	8.5	4	2.6	4	-1E+10	1	-1E+10	1	-1E+10	1	-1E+10	1	-1E+10	1	-1E+10	1
4902549	115	C	10/21/2023	07:06	-133.159	47.430	0	1195.30	0	2.8540	0	34.4250	0	27.447	0	1181.935	0	8.7	4	2.7	4	-1E+10	1	-1E+10	1	-1E+10	1	-1E+10	1	-1E+10	1	-1E+10	1
4902549	115	C	10/21/2023	07:06	-133.159	47.430	0	1205.30	0	2.8370	0	34.4280	0	27.451	0	1191.795	0	8.9	4	2.7	4	-1E+10	1	-1E+10	1	-1E+10	1	-1E+10	1	-1E+10	1	-1E+10	1
4902549	115	C	10/21/2023	07:06	-133.159	47.430	0	1215.30	0	2.8160	0	34.4290	0	27.453	0	1201.654	0	9.0	4	2.8	4	-1E+10	1	-1E+10	1	-1E+10	1	-1E+10	1	-1E+10	1	-1E+10	1
4902549	115	C	10/21/2023	07:06	-133.159	47.430	0	1225.20	0	2.7870	0	34.4310	0	27.457	0	1211.414	0	9.2	4	2.8	4	-1E+10	1	-1E+10	1	-1E+10	1	-1E+10	1	-1E+10	1	-1E+10	1
4902549	115	C	10/21/2023	07:06	-133.159	47.430	0	1235.10	0	2.7740	0	34.4330	0	27.460	0	1221.174	0	9.4	4	2.9	4	-1E+10	1	-1E+10	1	-1E+10	1	-1E+10	1	-1E+10	1	-1E+10	1
4902549	115	C	10/21/2023	07:06	-133.159	47.430	0	1245.20	0	2.7620	0	34.4360	0	27.464	0	1231.131	0	9.7	4	3.0	4	-1E+10	1	-1E+10	1	-1E+10	1	-1E+10	1	-1E+10	1	-1E+10	1
4902549	115	C	10/21/2023	07:06	-133.159	47.430	0	1255.40	0	2.7400	0	34.4390	0	27.468	0	1241.185	0	9.9	4	3.0	4	-1E+10	1	-1E+10	1	-1E+10	1	-1E+10	1	-1E+10	1	-1E+10	1
4902549	115	C	10/21/2023	07:06	-133.159	47.430	0	1265.20	0	2.7270	0	34.4420	0	27.472	0	1250.845	0	10.1	4	3.1	4	-1E+10	1	-1E+10	1	-1E+10	1	-1E+10	1	-1E+10	1	-1E+10	1
4902549	115	C	10/21/2023	07:06	-133.159	47.430	0	1275.20	0	2.7060	0	34.4440	0	27.475	0	1260.702	0	10.3	4	3.2	4	-1E+10	1	-1E+10	1	-1E+10	1	-1E+10	1	-1E+10	1	-1E+10	1
4902549	115	C	10/21/2023	07:06	-133.159	47.430	0	1285.20	0	2.6920	0	34.4460	0	27.478	0	1270.558	0	10.6	4	3.3	4	-1E+10	1	-1E+10	1	-1E+10	1	-1E+10	1	-1E+10	1	-1E+10	1
4902549	115	C	10/21/2023	07:06	-133.159	47.430	0	1295.30	0	2.6740	0	34.4500	0	27.483	0	1280.512	0	11.0	4	3.4	4	-1E+10	1	-1E+10	1	-1E+10	1	-1E+10	1	-1E+10	1	-1E+10	1
4902549	115	C	10/21/2023	07:06	-133.159	47.430	0	1305.50	0	2.6550	0	34.4530	0	27.487	0	1290.565	0	11.4	4	3.5	4	-1E+10	1	-1E+10	1	-1E+10	1	-1E+10	1	-1E+10	1	-1E+10	1
4902549	115	C	10/21/2023	07:06	-133.159	47.430	0	1315.60	0	2.6400	0	34.4570	0	27.491	0	1300.518	0	11.9	4	3.6	4	-1E+10	1	-1E+10	1	-1E+10	1	-1E+10	1	-1E+10	1	-1E+10	1
4902549	115	C	10/21/2023	07:06	-133.159	47.430	0	1325.40	0	2.6260	0	34.4600	0	27.495	0	1310.175	0	12.2	4	3.7	4	-1E+10	1	-1E+10	1	-1E+10	1	-1E+10	1	-1E+10	1	-1E+10	1
4902549	115	C	10/21/2023	07:06	-133.159	47.430	0	1335.40	0	2.6130	0	34.4620	0	27.498	0	1320.029	0	12.7	4	3.9	4	-1E+10	1	-1E+10	1	-1E+10	1	-1E+10	1	-1E+10	1	-1E+10	1
4902549	115	C	10/21/2023	07:06	-133.159	47.430	0	1345.50	0	2.6020	0	34.4660	0	27.502	0	1329.981	0	13.3	4	4.1	4	-1E+10	1	-1E+10	1	-1E+10	1	-1E+10	1	-1E+10	1	-1E+10	1
4902549	115	C	10/21/2023	07:06	-133.159	47.430	0	1355.20	0	2.5890	0	34.4700	0	27.506	0	1339.538	0	13.7	4	4.2	4	-1E+10	1	-1E+10	1	-1E+10	1	-1E+10	1	-1E+10	1	-1E+10	1
4902549	115	C	10/21/2023	07:06	-133.159	47.430	0	1365.10	0	2.5710	0	34.4720	0	27.510	0	1349.292	0	14.1	4	4.3	4	-1E+10	1	-1E+10	1	-1E+10	1	-1E+10	1	-1E+10	1	-1E+10	1
4902549	115	C	10/21/2023	07:06	-133.159	47.430	0	1375.20	0	2.5540	0	34.4750	0	27.513	0	1359.243	0	14.5	4	4.4	4	-1E+10	1	-1E+10	1	-1E+10	1	-1E+10	1	-1E+10	1	-1E+10	1
4902549	115	C	10/21/2023	07:06	-133.159	47.430	0	1385.60	0	2.5400	0	34.4760	0	27.515	0	1369.488	0	14.9	4	4.6	4	-1E+10	1	-1E+10	1	-1E+10	1	-1E+10	1	-1E+10	1	-1E+10	1
4902549	115	C	10/21/2023	07:06	-133.159	47.430	0	1395.60	0	2.5350	0	34.4800	0	27.519	0	1379.339	0	15.7	4	4.8	4	-1E+10	1	-1E+10	1	-1E+10	1	-1E+10	1	-1E+10	1	-1E+10	1
4902549	115	C	10/21/2023	07:06	-133.159	47.430	0	1405.30	0	2.5210	0	34.4840	0	27.524	0	1388.894	0	16.2	4	5.0	4	-1E+10	1	-1E+10	1	-1E+10	1	-1E+10	1	-1E+10	1	-1E+10	1
4902549	115	C	10/21/2023	07:06	-133.159	47.430	0	1415.40	0	2.5120	0	34.4860	0	27.526	0	1398.843	0	16.6	4	5.1	4	-1E+10	1	-1E+10	1	-1E+10	1	-1E+10	1	-1E+10	1	-1E+10	1
4902549	115	C	10/21/2023	07:06	-133.159	47.430	0	1425.50	0	2.4970	0	34.4870	0	27.528	0	1408.791	0	17.0	4	5.2	4	-1E+10	1	-1E+10	1	-1E+10	1	-1E+10	1	-1E+10	1	-1E+10	1
4902549	115	C	10/21/2023	07:06	-133.159	47.430	0	1435.10	0	2.4850	0	34.4890	0	27.531	0	1418.246	0	17.7	4	5.4	4	-1E+10	1	-1E+10	1	-1E+10	1	-1E+10	1	-1E+10	1	-1E+10	1
4902549	115	C	10/21/2023	07:06	-133.159	47.430	0	1445.40	0	2.4720	0	34.4930	0	27.535	0	1428.391	0	18.4	4	5.6	4	-1E+10	1	-1E+10	1	-1E+10	1	-1E+10	1	-1E+10	1	-1E+10	1
4902549	115	C	10/21/2023	07:06	-133.159	47.430	0	1455.60	0	2.4550	0	34.4960	0	27.539	0	1438.436	0	19.3	4	5.9	4	-1E+10	1	-1E+10	1	-1E+10	1	-1E+10	1	-1E+10	1	-1E+10	1
4902549	115	C	10/21/2023	07:06	-133.159	47.430	0	1465.40	0	2.4390	0	34.5000	0	27.544	0	1448.087	0	20.0	4	6.1	4	-1E+10	1	-1E+10	1	-1E+10	1	-1E+10	1	-1E+10	1	-1E+10	1
4902549	115	C	10/21/2023	07:06	-133.159	47.430	0	1475.20	0	2.4170	0	34.5030	0	27.548	0	1457.737	0	20.6	4	6.3	4	-1E+10	1	-1E+10	1	-1E+10	1	-1E+10	1	-1E+10	1	-1E+10	1
4902549	115	C	10/21/2023	07:06	-133.159	47.430	0	1485.00	0	2.4020	0	34.5040	0	27.550	0	1467.387	0	21.2	4	6.5	4	-1E+10	1	-1E+10	1	-1E+10	1	-1E+10	1	-1E+10	1	-1E+10	1
4902549	115	C	10/21/2023	07:06	-133.159	47.430	0	1495.00	0	2.3870	0	34.5070	0	27.554	0	1477.234	0	21.8	4	6.6	4	-1E+10	1	-1E+10	1	-1E+10	1	-1E+10	1	-1E+10	1	-1E+10	1
4902549	115	C	10/21/2023	07:06	-133.159	47.430	0	1505.10	0	2.3760	0	34.5090	0	27.556	0	1487.178	0	22.5	4	6.9	4	-1E+10	1	-1E+10	1	-1E+10	1	-1E+10	1	-1E+10	1	-1E+10	1
4902549	115	C	10/21/2023	07:06	-133.159	47.430	0	1515.50	0	2.3580	0	34.5120	0	27.560	0	1497.417	0	23.2	4	7.1	4	-1E+10	1	-1E+10	1	-1E+10	1	-1E+10	1	-1E+10	1	-1E+10	1
4902549	115	C	10/21/2023	07:06	-133.159	47.430	0	1525.50	0	2.3460	0	34.5140	0	27.563	0	1507.262	0	23.8	4	7.2	4	-1E+10	1	-1E+10	1	-1E+10	1	-1E+10	1	-1E+10	1	-1E+10	1
4902549	115	C	10/21/2023	07:06	-133.159	47.430	0	1535.70	0	2.3200	0	34.5160	0	27.567	0	1517.304	0	24.6	4	7.5	4	-1E+10	1	-1E+10	1	-1E+10	1	-1E+10	1	-1E+10	1	-1E+10	1
4902549	115	C	10/21/2023	07:06	-133.159	47.430	0	1545.60	0	2.2930	0	34.5190	0	27.571	0	1527.050	0	25.1	4	7.6	4	-1E+10	1	-1E+10	1	-1E+10	1	-1E+10	1	-1E+10	1	-1E+10	1
4902549	115	C	10/21/2023	07:06	-133.159	47.430	0	1555.30	0	2.2820	0	34.5200	0	27.573	0	1536.598	0	25.5	4	7.7	4	-1E+10	1	-1E+10	1	-1E+10	1	-1E+10	1	-1E+10	1	-1E+10	1
4902549	115	C	10/21/2023	07:06	-133.159	47.430	0	1565.30	0	2.2670	0	34.5210	0	27.575	0	1546.441	0	26.0	4	7.9	4	-1E+10	1	-1E+10	1	-1E+10	1	-1E+10	1	-1E+10	1	-1E+10	1
4902549	115	C	10/21/2023	07:06	-133.159	47.430	0	1575.60	0	2.2520	0	34.5230	0	27.578	0	1556.579	0	26.5	4	8.0	4	-1E+10	1	-1E+10	1	-1E+10	1	-1E+10	1	-1E+10	1	-1E+10	1
4902549	115	C	10/21/2023	07:06	-133.159	47.430	0	1585.60	0	2.2390	0	34.5250	0	27.581	0	1566.421	0	27.3	4	8.3	4	-1E+10	1	-1E+10	1	-1E+10	1	-1E+10	1	-1E+10	1	-1E+10	1
4902549	115	C	10/21/2023	07:06	-133.159	47.430	0	1595.40	0	2.2280	0	34.5270	0	27.583	0	1576.067	0	27.8	4	8.4	4	-1E+10	1	-1E+10	1	-1E+10	1	-1E+10	1	-1E+10	1	-1E+10	1
4902549	115	C	10/21/2023	07:06	-133.159	47.430	0	1605.30	0	2.2170	0	34.5290	0	27.586	0	1585.810	0	28.4	4	8.6	4	-1E+10	1	-1E+10	1	-1E+10	1	-1E+10	1	-1E+10	1	-1E+10	1
4902549	115	C	10/21/2023	07:06	-133.159	47.430	0	1615.60	0	2.2100	0	34.5300	0	27.587	0	1595.946	0	28.8	4	8.7	4	-1E+10	1	-1E+10	1	-1E+10	1	-1E+10	1	-1E+10	1	-1E+10	1
4902549	115	C	10/21/2023	07:06	-133.159	47.430	0	1625.60	0	2.2030	0	34.5310	0	27.588	0	1605.786	0	29.4	4	8.9	4	-1E+10	1	-1E+10	1	-1E+10	1	-1E+10	1	-1E+10	1	-1E+10	1
4902549	115	C	10/21/2023	07:06	-133.159	47.430	0	1635.50	0	2.1960	0	34.5330	0	27.591	0	1615.528	0	29.8	4	9.0	4	-1E+10	1	-1E+10	1	-1E+10	1	-1E+10	1	-1E+10	1	-1E+10	1
4902549	115	C	10/21/2023	07:06	-133.159	47.430	0	1645.80	0	2.1870	0	34.5340	0	27.592	0	1625.662	0	30.3	4	9.2	4	-1E+10	1	-1E+10	1	-1E+10	1	-1E+10	1	-1E+10	1	-1E+10	1
4902549	115	C	10/21/2023	07:06	-133.159	47.430	0	1655.50	0	2.1800	0	34.5350	0	27.594	0	1635.206	0	30.8	4	9.3	4	-1E+10	1	-1E+10	1	-1E+10	1	-1E+10	1	-1E+10	1	-1E+10	1
4902549	115	C	10/21/2023	07:06	-133.159	47.430	0	1665.60	0	2.1700	0	34.5370	0	27.596	0	1645.143	0	31.4	4	9.5	4	-1E+10	1	-1E+10	1	-1E+10	1	-1E+10	1	-1E+10	1	-1E+10	1
4902549	115	C	10/21/2023	07:06	-133.159	47.430	0	1675.40	0	2.1620	0	34.5390	0	27.598	0	1654.785	0	31.9	4	9.6	4	-1E+10	1	-1E+10	1	-1E+10	1	-1E+10	1	-1E+10	1	-1E+10	1
4902549	115	C	10/21/2023	07:06	-133.159	47.430	0	1685.50	0	2.1570	0	34.5400	0	27.600	0	1664.721	0	32.4	4	9.8	4	-1E+10	1	-1E+10	1	-1E+10	1	-1E+10	1	-1E+10	1	-1E+10	1
4902549	115	C	10/21/2023	07:06	-133.159	47.430	0	1695.50	0	2.1490	0	34.5420	0	27.602	0	1674.558	0	33.1	4	10.0	4	-1E+10	1	-1E+10	1	-1E+10	1	-1E+10	1	-1E+10	1	-1E+10	1
4902549	115	C	10/21/2023	07:06	-133.159	47.430	0	1705.50	0	2.1370	0	34.5440	0	27.605	0	1684.395	0	33.8	4	10.2	4	-1E+10	1	-1E+10	1	-1E+10	1	-1E+10	1	-1E+10	1	-1E+10	1
4902549	115	C	10/21/2023	07:06	-133.159	47.430	0	1715.60	0	2.1250	0	34.5460	0	27.607	0	1694.330	0	34.5	4	10.4	4	-1E+10	1	-1E+10	1	-1E+10	1	-1E+10	1	-1E+10	1	-1E+10	1
4902549	115	C	10/21/2023	07:06	-133.159	47.430	0	1725.30	0	2.1170	0	34.5470	0	27.609	0	1703.870	0	35.1	4	10.6	4	-1E+10	1	-1E+10	1	-1E+10	1	-1E+10	1	-1E+10	1	-1E+10	1
4902549	115	C	10/21/2023	07:06	-133.159	47.430	0	1735.20	0	2.1070	0	34.5490	0	27.611	0	1713.607	0	35.9	4	10.8	4	-1E+10	1	-1E+10	1	-1E+10	1	-1E+10	1	-1E+10	1	-1E+10	1
4902549	115	C	10/21/2023	07:06	-133.159	47.430	0	1745.50	0	2.0970	0	34.5510	0	27.614	0	1723.737	0	36.6	4	11.1	4	-1E+10	1	-1E+10	1	-1E+10	1	-1E+10	1	-1E+10	1	-1E+10	1
4902549	115	C	10/21/2023	07:06	-133.159	47.430	0	1755.40	0	2.0900	0	34.5520	0	27.615	0	1733.474	0	37.1	4	11.2	4	-1E+10	1	-1E+10	1	-1E+10	1	-1E+10	1	-1E+10	1	-1E+10	1
4902549	115	C	10/21/2023	07:06	-133.159	47.430	0	1765.40	0	2.0810	0	34.5540	0	27.617	0	1743.308	0	37.7	4	11.4	4	-1E+10	1	-1E+10	1	-1E+10	1	-1E+10	1	-1E+10	1	-1E+10	1
4902549	115	C	10/21/2023	07:06	-133.159	47.430	0	1775.60	0	2.0720	0	34.5550	0	27.619	0	1753.338	0	38.3	4	11.6	4	-1E+10	1	-1E+10	1	-1E+10	1	-1E+10	1	-1E+10	1	-1E+10	1
4902549	115	C	10/21/2023	07:06	-133.159	47.430	0	1785.30	0	2.0640	0	34.5570	0	27.621	0	1762.876	0	39.0	4	11.8	4	-1E+10	1	-1E+10	1	-1E+10	1	-1E+10	1	-1E+10	1	-1E+10	1
4902549	115	C	10/21/2023	07:06	-133.159	47.430	0	1795.30	0	2.0540	0	34.5590	0	27.624	0	1772.709	0	39.5	4	11.9	4	-1E+10	1	-1E+10	1	-1E+10	1	-1E+10	1	-1E+10	1	-1E+10	1
4902549	115	C	10/21/2023	07:06	-133.159	47.430	0	1805.30	0	2.0500	0	34.5600	0	27.625	0	1782.541	0	40.0	4	12.1	4	-1E+10	1	-1E+10	1	-1E+10	1	-1E+10	1	-1E+10	1	-1E+10	1
4902549	115	C	10/21/2023	07:06	-133.159	47.430	0	1815.40	0	2.0440	0	34.5610	0	27.626	0	1792.471	0	40.5	4	12.2	4	-1E+10	1	-1E+10	1	-1E+10	1	-1E+10	1	-1E+10	1	-1E+10	1
4902549	115	C	10/21/2023	07:06	-133.159	47.430	0	1825.50	0	2.0360	0	34.5620	0	27.628	0	1802.401	0	41.2	4	12.4	4	-1E+10	1	-1E+10	1	-1E+10	1	-1E+10	1	-1E+10	1	-1E+10	1
4902549	115	C	10/21/2023	07:06	-133.159	47.430	0	1835.40	0	2.0300	0	34.5640	0	27.630	0	1812.133	0	41.7	4	12.6	4	-1E+10	1	-1E+10	1	-1E+10	1	-1E+10	1	-1E+10	1	-1E+10	1
4902549	115	C	10/21/2023	07:06	-133.159	47.430	0	1845.60	0	2.0240	0	34.5650	0	27.631	0	1822.160	0	42.3	4	12.8	4	-1E+10	1	-1E+10	1	-1E+10	1	-1E+10	1	-1E+10	1	-1E+10	1
4902549	115	C	10/21/2023	07:06	-133.159	47.430	0	1855.50	0	2.0180	0	34.5660	0	27.632	0	1831.892	0	43.0	4	13.0	4	-1E+10	1	-1E+10	1	-1E+10	1	-1E+10	1	-1E+10	1	-1E+10	1
4902549	115	C	10/21/2023	07:06	-133.159	47.430	0	1865.60	0	2.0110	0	34.5670	0	27.634	0	1841.820	0	43.4	4	13.1	4	-1E+10	1	-1E+10	1	-1E+10	1	-1E+10	1	-1E+10	1	-1E+10	1
4902549	115	C	10/21/2023	07:06	-133.159	47.430	0	1875.70	0	2.0050	0	34.5680	0	27.635	0	1851.747	0	43.9	4	13.2	4	-1E+10	1	-1E+10	1	-1E+10	1	-1E+10	1	-1E+10	1	-1E+10	1
4902549	115	C	10/21/2023	07:06	-133.159	47.430	0	1885.40	0	2.0000	0	34.5690	0	27.636	0	1861.281	0	44.5	4	13.4	4	-1E+10	1	-1E+10	1	-1E+10	1	-1E+10	1	-1E+10	1	-1E+10	1
4902549	115	C	10/21/2023	07:06	-133.159	47.430	0	1895.20	0	1.9910	0	34.5710	0	27.639	0	1870.912	0	45.3	4	13.6	4	-1E+10	1	-1E+10	1	-1E+10	1	-1E+10	1	-1E+10	1	-1E+10	1
4902549	115	C	10/21/2023	07:06	-133.159	47.430	0	1905.10	0	1.9840	0	34.5720	0	27.640	0	1880.642	0	46.0	4	13.9	4	-1E+10	1	-1E+10	1	-1E+10	1	-1E+10	1	-1E+10	1	-1E+10	1
4902549	115	C	10/21/2023	07:06	-133.159	47.430	0	1915.00	0	1.9770	0	34.5740	0	27.642	0	1890.371	0	46.9	4	14.1	4	-1E+10	1	-1E+10	1	-1E+10	1	-1E+10	1	-1E+10	1	-1E+10	1
4902549	115	C	10/21/2023	07:06	-133.159	47.430	0	1925.10	0	1.9700	0	34.5760	0	27.644	0	1900.296	0	47.4	4	14.3	4	-1E+10	1	-1E+10	1	-1E+10	1	-1E+10	1	-1E+10	1	-1E+10	1
4902549	115	C	10/21/2023	07:06	-133.159	47.430	0	1935.30	0	1.9650	0	34.5760	0	27.645	0	1910.319	0	48.0	4	14.4	4	-1E+10	1	-1E+10	1	-1E+10	1	-1E+10	1	-1E+10	1	-1E+10	1
4902549	115	C	10/21/2023	07:06	-133.159	47.430	0	1945.60	0	1.9580	0	34.5780	0	27.647	0	1920.439	0	48.6	4	14.6	4	-1E+10	1	-1E+10	1	-1E+10	1	-1E+10	1	-1E+10	1	-1E+10	1
4902549	115	C	10/21/2023	07:06	-133.159	47.430	0	1955.80	0	1.9530	0	34.5790	0	27.648	0	1930.461	0	49.1	4	14.8	4	-1E+10	1	-1E+10	1	-1E+10	1	-1E+10	1	-1E+10	1	-1E+10	1
4902549	115	C	10/21/2023	07:06	-133.159	47.430	0	1965.50	0	1.9450	0	34.5800	0	27.650	0	1939.991	0	49.7	4	15.0	4	-1E+10	1	-1E+10	1	-1E+10	1	-1E+10	1	-1E+10	1	-1E+10	1
4902549	115	C	10/21/2023	07:06	-133.159	47.430	0	1975.70	0	1.9400	0	34.5810	0	27.651	0	1950.012	0	50.4	4	15.2	4	-1E+10	1	-1E+10	1	-1E+10	1	-1E+10	1	-1E+10	1	-1E+10	1
4902549	115	C	10/21/2023	07:06	-133.159	47.430	0	1985.60	0	1.9330	0	34.5830	0	27.653	0	1959.738	0	50.8	4	15.3	4	-1E+10	1	-1E+10	1	-1E+10	1	-1E+10	1	-1E+10	1	-1E+10	1
4902549	115	C	10/21/2023	07:06	-133.159	47.430	0	1995.60	0	1.9280	0	34.5840	0	27.654	0	1969.562	0	51.2	4	15.4	4	-1E+10	1	-1E+10	1	-1E+10	1	-1E+10	1	-1E+10	1	-1E+10	1
4902549	115	C	10/21/2023	07:06	-133.159	47.430	0	2005.30	0	1.9240	0	34.5850	0	27.656	0	1979.090	0	51.7	4	15.6	4	-1E+10	1	-1E+10	1	-1E+10	1	-1E+10	1	-1E+10	1	-1E+10	1
4902549	115	C	10/21/2023	07:06	-133.159	47.430	0	2015.60	0	1.9170	0	34.5860	0	27.657	0	1989.207	0	52.1	4	15.7	4	-1E+10	1	-1E+10	1	-1E+10	1	-1E+10	1	-1E+10	1	-1E+10	1
4902549	115	C	10/21/2023	07:06	-133.159	47.430	0	2021.20	0	1.9130	0	34.5870	0	27.658	0	1994.708	0	52.2	4	15.7	4	-1E+10	1	-1E+10	1	-1E+10	1	-1E+10	1	-1E+10	1	-1E+10	1
4902549	115	C	10/21/2023	07:06	-133.159	47.430	0																										
4902549	116	C	10/31/2023	11:50	-133.051	47.365	0	0.20	0	12.9570	0	32.3560	0	24.354	0	0.198	0	249.2	4	94.8	4	-1E+10	1	-1E+10	1	-1E+10	1	-1E+10	1	-1E+10	1	-1E+10	1
4902549	116	C	10/31/2023	11:50	-133.051	47.365	0	0.80	0	12.9610	0	32.3520	0	24.350	0	0.793	0	249.2	4	94.8	4	-1E+10	1	-1E+10	1	-1E+10	1	-1E+10	1	-1E+10	1	-1E+10	1
4902549	116	C	10/31/2023	11:50	-133.051	47.365	0	1.90	0	12.9610	0	32.3520	0	24.351	0	1.884	0	249.2	4	94.8	4	-1E+10	1	-1E+10	1	-1E+10	1	-1E+10	1	-1E+10	1	-1E+10	1
4902549	116	C	10/31/2023	11:50	-133.051	47.365	0	2.90	0	12.9620	0	32.3520	0	24.350	0	2.876	0	249.1	4	94.7	4	-1E+10	1	-1E+10	1	-1E+10	1	-1E+10	1	-1E+10	1	-1E+10	1
4902549	116	C	10/31/2023	11:50	-133.051	47.365	0	3.80	0	12.9610	0	32.3530	0	24.351	0	3.768	0	249.1	4	94.7	4	-1E+10	1	-1E+10	1	-1E+10	1	-1E+10	1	-1E+10	1	-1E+10	1
4902549	116	C	10/31/2023	11:50	-133.051	47.365	0	4.90	0	12.9620	0	32.3540	0	24.352	0	4.859	0	249.1	4	94.7	4	-1E+10	1	-1E+10	1	-1E+10	1	-1E+10	1	-1E+10	1	-1E+10	1
4902549	116	C	10/31/2023	11:50	-133.051	47.365	0	5.90	0	12.9620	0	32.3530	0	24.351	0	5.851	0	249.1	4	94.7	4	-1E+10	1	-1E+10	1	-1E+10	1	-1E+10	1	-1E+10	1	-1E+10	1
4902549	116	C	10/31/2023	11:50	-133.051	47.365	0	7.00	0	12.9620	0	32.3540	0	24.352	0	6.942	0	249.1	4	94.7	4	-1E+10	1	-1E+10	1	-1E+10	1	-1E+10	1	-1E+10	1	-1E+10	1
4902549	116	C	10/31/2023	11:50	-133.051	47.365	0	7.80	0	12.9620	0	32.3540	0	24.352	0	7.735	0	249.1	4	94.7	4	-1E+10	1	-1E+10	1	-1E+10	1	-1E+10	1	-1E+10	1	-1E+10	1
4902549	116	C	10/31/2023	11:50	-133.051	47.365	0	8.90	0	12.9620	0	32.3540	0	24.352	0	8.826	0	249.1	4	94.8	4	-1E+10	1	-1E+10	1	-1E+10	1	-1E+10	1	-1E+10	1	-1E+10	1
4902549	116	C	10/31/2023	11:50	-133.051	47.365	0	10.10	0	12.9630	0	32.3540	0	24.352	0	10.016	0	249.1	4	94.7	4	-1E+10	1	-1E+10	1	-1E+10	1	-1E+10	1	-1E+10	1	-1E+10	1
4902549	116	C	10/31/2023	11:50	-133.051	47.365	0	10.90	0	12.9630	0	32.3540	0	24.352	0	10.809	0	249.0	4	94.7	4	-1E+10	1	-1E+10	1	-1E+10	1	-1E+10	1	-1E+10	1	-1E+10	1
4902549	116	C	10/31/2023	11:50	-133.051	47.365	0	12.00	0	12.9630	0	32.3530	0	24.351	0	11.900	0	249.0	4	94.7	4	-1E+10	1	-1E+10	1	-1E+10	1	-1E+10	1	-1E+10	1	-1E+10	1
4902549	116	C	10/31/2023	11:50	-133.051	47.365	0	13.20	0	12.9620	0	32.3540	0	24.352	0	13.090	0	249.1	4	94.7	4	-1E+10	1	-1E+10	1	-1E+10	1	-1E+10	1	-1E+10	1	-1E+10	1
4902549	116	C	10/31/2023	11:50	-133.051	47.365	0	14.00	0	12.9620	0	32.3540	0	24.352	0	13.883	0	249.1	4	94.7	4	-1E+10	1	-1E+10	1	-1E+10	1	-1E+10	1	-1E+10	1	-1E+10	1
4902549	116	C	10/31/2023	11:50	-133.051	47.365	0	15.00	0	12.9630	0	32.3540	0	24.352	0	14.874	0	249.1	4	94.7	4	-1E+10	1	-1E+10	1	-1E+10	1	-1E+10	1	-1E+10	1	-1E+10	1
4902549	116	C	10/31/2023	11:50	-133.051	47.365	0	16.20	0	12.9630	0	32.3540	0	24.352	0	16.064	0	249.0	4	94.7	4	-1E+10	1	-1E+10	1	-1E+10	1	-1E+10	1	-1E+10	1	-1E+10	1
4902549	116	C	10/31/2023	11:50	-133.051	47.365	0	16.90	0	12.9630	0	32.3540	0	24.352	0	16.758	0	249.0	4	94.7	4	-1E+10	1	-1E+10	1	-1E+10	1	-1E+10	1	-1E+10	1	-1E+10	1
4902549	116	C	10/31/2023	11:50	-133.051	47.365	0	18.00	0	12.9640	0	32.3540	0	24.352	0	17.849	0	249.0	4	94.7	4	-1E+10	1	-1E+10	1	-1E+10	1	-1E+10	1	-1E+10	1	-1E+10	1
4902549	116	C	10/31/2023	11:50	-133.051	47.365	0	19.20	0	12.9640	0	32.3540	0	24.352	0	19.039	0	249.1	4	94.7	4	-1E+10	1	-1E+10	1	-1E+10	1	-1E+10	1	-1E+10	1	-1E+10	1
4902549	116	C	10/31/2023	11:50	-133.051	47.365	0	20.00	0	12.9640	0	32.3540	0	24.352	0	19.832	0	249.0	4	94.7	4	-1E+10	1	-1E+10	1	-1E+10	1	-1E+10	1	-1E+10	1	-1E+10	1
4902549	116	C	10/31/2023	11:50	-133.051	47.365	0	20.70	0	12.9640	0	32.3540	0	24.352	0	20.526	0	248.9	4	94.7	4	-1E+10	1	-1E+10	1	-1E+10	1	-1E+10	1	-1E+10	1	-1E+10	1
4902549	116	C	10/31/2023	11:50	-133.051	47.365	0	21.90	0	12.9640	0	32.3540	0	24.352	0	21.716	0	248.9	4	94.7	4	-1E+10	1	-1E+10	1	-1E+10	1	-1E+10	1	-1E+10	1	-1E+10	1
4902549	116	C	10/31/2023	11:50	-133.051	47.365	0	23.00	0	12.9650	0	32.3540	0	24.352	0	22.807	0	248.9	4	94.7	4	-1E+10	1	-1E+10	1	-1E+10	1	-1E+10	1	-1E+10	1	-1E+10	1
4902549	116	C	10/31/2023	11:50	-133.051	47.365	0	23.80	0	12.9620	0	32.3540	0	24.352	0	23.600	0	248.9	4	94.6	4	-1E+10	1	-1E+10	1	-1E+10	1	-1E+10	1	-1E+10	1	-1E+10	1
4902549	116	C	10/31/2023	11:50	-133.051	47.365	0	24.80	0	12.9640	0	32.3540	0	24.352	0	24.592	0	248.9	4	94.7	4	-1E+10	1	-1E+10	1	-1E+10	1	-1E+10	1	-1E+10	1	-1E+10	1
4902549	116	C	10/31/2023	11:50	-133.051	47.365	0	25.90	0	12.9630	0	32.3550	0	24.353	0	25.683	0	248.9	4	94.7	4	-1E+10	1	-1E+10	1	-1E+10	1	-1E+10	1	-1E+10	1	-1E+10	1
4902549	116	C	10/31/2023	11:50	-133.051	47.365	0	26.90	0	12.9640	0	32.3540	0	24.352	0	26.674	0	248.8	4	94.6	4	-1E+10	1	-1E+10	1	-1E+10	1	-1E+10	1	-1E+10	1	-1E+10	1
4902549	116	C	10/31/2023	11:50	-133.051	47.365	0	28.10	0	12.9610	0	32.3540	0	24.353	0	27.864	0	248.8	4	94.6	4	-1E+10	1	-1E+10	1	-1E+10	1	-1E+10	1	-1E+10	1	-1E+10	1
4902549	116	C	10/31/2023	11:50	-133.051	47.365	0	28.80	0	12.9610	0	32.3550	0	24.354	0	28.558	0	248.7	4	94.6	4	-1E+10	1	-1E+10	1	-1E+10	1	-1E+10	1	-1E+10	1	-1E+10	1
4902549	116	C	10/31/2023	11:50	-133.051	47.365	0	29.90	0	12.9610	0	32.3540	0	24.353	0	29.649	0	248.7	4	94.6	4	-1E+10	1	-1E+10	1	-1E+10	1	-1E+10	1	-1E+10	1	-1E+10	1
4902549	116	C	10/31/2023	11:50	-133.051	47.365	0	31.00	0	12.9590	0	32.3540	0	24.353	0	30.739	0	248.6	4	94.5	4	-1E+10	1	-1E+10	1	-1E+10	1	-1E+10	1	-1E+10	1	-1E+10	1
4902549	116	C	10/31/2023	11:50	-133.051	47.365	0	32.00	0	12.9590	0	32.3540	0	24.353	0	31.731	0	248.6	4	94.5	4	-1E+10	1	-1E+10	1	-1E+10	1	-1E+10	1	-1E+10	1	-1E+10	1
4902549	116	C	10/31/2023	11:50	-133.051	47.365	0	33.10	0	12.9590	0	32.3550	0	24.354	0	32.822	0	248.4	4	94.5	4	-1E+10	1	-1E+10	1	-1E+10	1	-1E+10	1	-1E+10	1	-1E+10	1
4902549	116	C	10/31/2023	11:50	-133.051	47.365	0	33.80	0	12.9600	0	32.3540	0	24.353	0	33.516	0	248.3	4	94.4	4	-1E+10	1	-1E+10	1	-1E+10	1	-1E+10	1	-1E+10	1	-1E+10	1
4902549	116	C	10/31/2023	11:50	-133.051	47.365	0	34.80	0	12.9550	0	32.3540	0	24.354	0	34.507	0	248.3	4	94.4	4	-1E+10	1	-1E+10	1	-1E+10	1	-1E+10	1	-1E+10	1	-1E+10	1
4902549	116	C	10/31/2023	11:50	-133.051	47.365	0	36.00	0	12.9480	0	32.3550	0	24.356	0	35.697	0	248.2	4	94.4	4	-1E+10	1	-1E+10	1	-1E+10	1	-1E+10	1	-1E+10	1	-1E+10	1
4902549	116	C	10/31/2023	11:50	-133.051	47.365	0	36.90	0	12.9390	0	32.3540	0	24.357	0	36.589	0	248.2	4	94.4	4	-1E+10	1	-1E+10	1	-1E+10	1	-1E+10	1	-1E+10	1	-1E+10	1
4902549	116	C	10/31/2023	11:50	-133.051	47.365	0	38.00	0	12.9370	0	32.3540	0	24.358	0	37.680	0	248.1	4	94.3	4	-1E+10	1	-1E+10	1	-1E+10	1	-1E+10	1	-1E+10	1	-1E+10	1
4902549	116	C	10/31/2023	11:50	-133.051	47.365	0	39.00	0	12.9270	0	32.3540	0	24.360	0	38.671	0	248.0	4	94.2	4	-1E+10	1	-1E+10	1	-1E+10	1	-1E+10	1	-1E+10	1	-1E+10	1
4902549	116	C	10/31/2023	11:50	-133.051	47.365	0	40.00	0	12.9120	0	32.3560	0	24.364	0	39.663	0	247.9	4	94.2	4	-1E+10	1	-1E+10	1	-1E+10	1	-1E+10	1	-1E+10	1	-1E+10	1
4902549	116	C	10/31/2023	11:50	-133.051	47.365	0	41.00	0	12.9100	0	32.3540	0	24.363	0	40.654	0	247.7	4	94.1	4	-1E+10	1	-1E+10	1	-1E+10	1	-1E+10	1	-1E+10	1	-1E+10	1
4902549	116	C	10/31/2023	11:50	-133.051	47.365	0	42.10	0	12.8870	0	32.3540	0	24.368	0	41.745	0	247.7	4	94.1	4	-1E+10	1	-1E+10	1	-1E+10	1	-1E+10	1	-1E+10	1	-1E+10	1
4902549	116	C	10/31/2023	11:50	-133.051	47.365	0	43.30	0	12.8570	0	32.3570	0	24.376	0	42.935	0	247.6	4	94.0	4	-1E+10	1	-1E+10	1	-1E+10	1	-1E+10	1	-1E+10	1	-1E+10	1
4902549	116	C	10/31/2023	11:50	-133.051	47.365	0	44.00	0	12.7430	0	32.3530	0	24.395	0	43.629	0	248.0	4	93.9	4	-1E+10	1	-1E+10	1	-1E+10	1	-1E+10	1	-1E+10	1	-1E+10	1
4902549	116	C	10/31/2023	11:50	-133.051	47.365	0	45.10	0	12.1390	0	32.3620	0	24.517	0	44.719	0	250.5	4	93.7	4	-1E+10	1	-1E+10	1	-1E+10	1	-1E+10	1	-1E+10	1	-1E+10	1
4902549	116	C	10/31/2023	11:50	-133.051	47.365	0	45.90	0	11.1710	0	32.4720	0	24.779	0	45.512	0	255.5	4	93.7	4	-1E+10	1	-1E+10	1	-1E+10	1	-1E+10	1	-1E+10	1	-1E+10	1
4902549	116	C	10/31/2023	11:50	-133.051	47.365	0	46.80	0	9.7310	0	32.4430	0	25.001	0	46.405	0	263.8	4	93.8	4	-1E+10	1	-1E+10	1	-1E+10	1	-1E+10	1	-1E+10	1	-1E+10	1
4902549	116	C	10/31/2023	11:50	-133.051	47.365	0	47.80	0	9.0940	0	32.4780	0	25.130	0	47.396	0	266.1	4	93.3	4	-1E+10	1	-1E+10	1	-1E+10	1	-1E+10	1	-1E+10	1	-1E+10	1
4902549	116	C	10/31/2023	11:50	-133.051	47.365	0	49.00	0	8.7890	0	32.4810	0	25.180	0	48.586	0	266.5	4	92.8	4	-1E+10	1	-1E+10	1	-1E+10	1	-1E+10	1	-1E+10	1	-1E+10	1
4902549	116	C	10/31/2023	11:50	-133.051	47.365	0	49.90	0	8.5420	0	32.4940	0	25.227	0	49.478	0	267.1	4	92.5	4	-1E+10	1	-1E+10	1	-1E+10	1	-1E+10	1	-1E+10	1	-1E+10	1
4902549	116	C	10/31/2023	11:50	-133.051	47.365	0	50.90	0	8.4270	0	32.5020	0	25.251	0	50.470	0	267.0	4	92.3	4	-1E+10	1	-1E+10	1	-1E+10	1	-1E+10	1	-1E+10	1	-1E+10	1
4902549	116	C	10/31/2023	11:50	-133.051	47.365	0	51.90	0	8.3330	0	32.4990	0	25.262	0	51.461	0	266.9	4	92.0	4	-1E+10	1	-1E+10	1	-1E+10	1	-1E+10	1	-1E+10	1	-1E+10	1
4902549	116	C	10/31/2023	11:50	-133.051	47.365	0	52.90	0	8.2410	0	32.5030	0	25.279	0	52.452	0	266.7	4	91.8	4	-1E+10	1	-1E+10	1	-1E+10	1	-1E+10	1	-1E+10	1	-1E+10	1
4902549	116	C	10/31/2023	11:50	-133.051	47.365	0	54.00	0	8.2200	0	32.4960	0	25.277	0	53.543	0	266.0	4	91.5	4	-1E+10	1	-1E+10	1	-1E+10	1	-1E+10	1	-1E+10	1	-1E+10	1
4902549	116	C	10/31/2023	11:50	-133.051	47.365	0	55.00	0	8.1610	0	32.5020	0	25.290	0	54.534	0	265.6	4	91.2	4	-1E+10	1	-1E+10	1	-1E+10	1	-1E+10	1	-1E+10	1	-1E+10	1
4902549	116	C	10/31/2023	11:50	-133.051	47.365	0	56.10	0	8.0840	0	32.5030	0	25.302	0	55.625	0	265.5	4	91.0	4	-1E+10	1	-1E+10	1	-1E+10	1	-1E+10	1	-1E+10	1	-1E+10	1
4902549	116	C	10/31/2023	11:50	-133.051	47.365	0	56.90	0	8.0710	0	32.5040	0	25.305	0	56.418	0	265.1	4	90.9	4	-1E+10	1	-1E+10	1	-1E+10	1	-1E+10	1	-1E+10	1	-1E+10	1
4902549	116	C	10/31/2023	11:50	-133.051	47.365	0	57.90	0	8.0470	0	32.5020	0	25.307	0	57.409	0	264.7	4	90.7	4	-1E+10	1	-1E+10	1	-1E+10	1	-1E+10	1	-1E+10	1	-1E+10	1
4902549	116	C	10/31/2023	11:50	-133.051	47.365	0	59.00	0	8.0310	0	32.5020	0	25.309	0	58.500	0	264.3	4	90.5	4	-1E+10	1	-1E+10	1	-1E+10	1	-1E+10	1	-1E+10	1	-1E+10	1
4902549	116	C	10/31/2023	11:50	-133.051	47.365	0	60.00	0	7.9930	0	32.5000	0	25.313	0	59.491	0	263.9	4	90.3	4	-1E+10	1	-1E+10	1	-1E+10	1	-1E+10	1	-1E+10	1	-1E+10	1
4902549	116	C	10/31/2023	11:50	-133.051	47.365	0	61.00	0	7.9520	0	32.5000	0	25.319	0	60.483	0	263.6	4	90.1	4	-1E+10	1	-1E+10	1	-1E+10	1	-1E+10	1	-1E+10	1	-1E+10	1
4902549	116	C	10/31/2023	11:50	-133.051	47.365	0	62.00	0	7.9680	0	32.5090	0	25.324	0	61.474	0	263.1	4	90.0	4	-1E+10	1	-1E+10	1	-1E+10	1	-1E+10	1	-1E+10	1	-1E+10	1
4902549	116	C	10/31/2023	11:50	-133.051	47.365	0	63.00	0	7.8900	0	32.5130	0	25.338	0	62.465	0	263.0	4	89.8	4	-1E+10	1	-1E+10	1	-1E+10	1	-1E+10	1	-1E+10	1	-1E+10	1
4902549	116	C	10/31/2023	11:50	-133.051	47.365	0	64.00	0	7.8210	0	32.5080	0	25.344	0	63.457	0	263.1	4	89.7	4	-1E+10	1	-1E+10	1	-1E+10	1	-1E+10	1	-1E+10	1	-1E+10	1
4902549	116	C	10/31/2023	11:50	-133.051	47.365	0	65.00	0	7.8110	0	32.5040	0	25.342	0	64.448	0	262.9	4	89.6	4	-1E+10	1	-1E+10	1	-1E+10	1	-1E+10	1	-1E+10	1	-1E+10	1
4902549	116	C	10/31/2023	11:50	-133.051	47.365	0	65.80	0	7.7900	0	32.5050	0	25.346	0	65.241	0	262.5	4	89.4	4	-1E+10	1	-1E+10	1	-1E+10	1	-1E+10	1	-1E+10	1	-1E+10	1
4902549	116	C	10/31/2023	11:50	-133.051	47.365	0	67.00	0	7.7880	0	32.5100	0	25.350	0	66.431	0	262.1	4	89.3	4	-1E+10	1	-1E+10	1	-1E+10	1	-1E+10	1	-1E+10	1	-1E+10	1
4902549	116	C	10/31/2023	11:50	-133.051	47.365	0	67.90	0	7.7810	0	32.5140	0	25.354	0	67.323	0	261.9	4	89.2	4	-1E+10	1	-1E+10	1	-1E+10	1	-1E+10	1	-1E+10	1	-1E+10	1
4902549	116	C	10/31/2023	11:50	-133.051	47.365	0	68.70	0	7.7680	0	32.5140	0	25.356	0	68.116	0	261.8	4	89.1	4	-1E+10	1	-1E+10	1	-1E+10	1	-1E+10	1	-1E+10	1	-1E+10	1
4902549	116	C	10/31/2023	11:50	-133.051	47.365	0	69.90	0	7.7330	0	32.5130	0	25.361	0	69.306	0	261.5	4	89.0	4	-1E+10	1	-1E+10	1	-1E+10	1	-1E+10	1	-1E+10	1	-1E+10	1
4902549	116	C	10/31/2023	11:50	-133.051	47.365	0	71.10	0	7.7010	0	32.5120	0	25.364	0	70.495	0	261.4	4	88.9	4	-1E+10	1	-1E+10	1	-1E+10	1	-1E+10	1	-1E+10	1	-1E+10	1
4902549	116	C	10/31/2023	11:50	-133.051	47.365	0	71.90	0	7.6750	0	32.5140	0	25.369	0	71.288	0	261.2	4	88.8	4	-1E+10	1	-1E+10	1	-1E+10	1	-1E+10	1	-1E+10	1	-1E+10	1
4902549	116	C	10/31/2023	11:50	-133.051	47.365	0	72.80	0	7.6140	0	32.5140	0	25.378	0	72.181	0	261.3	4	88.7	4	-1E+10	1	-1E+10	1	-1E+10	1	-1E+10	1	-1E+10	1	-1E+10	1
4902549	116	C	10/31/2023	11:50	-133.051	47.365	0	74.00	0	7.5550	0	32.5150	0	25.387	0	73.370	0	261.3	4	88.6	4	-1E+10	1	-1E+10	1	-1E+10	1	-1E+10	1	-1E+10	1	-1E+10	1
4902549	116	C	10/31/2023	11:50	-133.051	47.365	0	75.00	0	7.5520	0	32.5210	0	25.392	0	74.361	0	261.1	4	88.5	4	-1E+10	1	-1E+10	1	-1E+10	1	-1E+10	1	-1E+10	1	-1E+10	1
4902549	116	C	10/31/2023	11:50	-133.051	47.365	0	76.10	0	7.5380	0	32.5220	0	25.395	0	75.452	0	260.9	4	88.4	4	-1E+10	1	-1E+10	1	-1E+10	1	-1E+10	1	-1E+10	1	-1E+10	1
4902549	116	C	10/31/2023	11:50	-133.051	47.365	0	76.90	0	7.5270	0	32.5220	0	25.397	0	76.245	0	260.9	4	88.4	4	-1E+10	1	-1E+10	1	-1E+10	1	-1E+10	1	-1E+10	1	-1E+10	1
4902549	116	C	10/31/2023	11:50	-133.051	47.365	0	78.10	0	7.4680	0	32.5210	0	25.404	0	77.434	0	261.1	4	88.3	4	-1E+10	1	-1E+10	1	-1E+10	1	-1E+10	1	-1E+10	1	-1E+10	1
4902549	116	C	10/31/2023	11:50	-133.051	47.365	0	78.90	0	7.4350	0	32.5170	0	25.405	0	78.228	0	261.2	4	88.3	4	-1E+10	1	-1E+10	1	-1E+10	1	-1E+10	1	-1E+10	1	-1E+10	1
4902549	116	C	10/31/2023	11:50	-133.051	47.365	0	80.10	0	7.3990	0	32.5150	0	25.409	0	79.417	0	261.2	4	88.2	4	-1E+10	1	-1E+10	1	-1E+10	1	-1E+10	1	-1E+10	1	-1E+10	1
4902549	116	C	10/31/2023	11:50	-133.051	47.365	0	81.00	0	7.3770	0	32.5150	0	25.412	0	80.309	0	260.9	4	88.1	4	-1E+10	1	-1E+10	1	-1E+10	1	-1E+10	1	-1E+10	1	-1E+10	1
4902549	116	C	10/31/2023	11:50	-133.051	47.365	0	82.00	0	7.3540	0	32.5180	0	25.417	0	81.300	0	260.9	4	88.0	4	-1E+10	1	-1E+10	1	-1E+10	1	-1E+10	1	-1E+10	1	-1E+10	1
4902549	116	C	10/31/2023	11:50	-133.051	47.365	0	83.10	0	7.3560	0	32.5280	0	25.425	0	82.391	0	267.3	4	90.2	4	-1E+10	1	-1E+10	1	-1E+10	1	-1E+10	1	-1E+10	1	-1E+10	1
4902549	116	C	10/31/2023	11:50	-133.051	47.365	0	83.90	0	7.3540	0	32.5310	0	25.428	0	83.184	0	267.1	4	90.1	4	-1E+10	1	-1E+10	1	-1E+10	1	-1E+10	1	-1E+10	1	-1E+10	1
4902549	116	C	10/31/2023	11:50	-133.051	47.365	0	85.30	0	7.3400	0	32.5350	0	25.433	0	84.572	0	266.9	4	90.0	4	-1E+10	1	-1E+10	1	-1E+10	1	-1E+10	1	-1E+10	1	-1E+10	1
4902549	116	C	10/31/2023	11:50	-133.051	47.365	0	86.10	0	7.3370	0	32.5350	0	25.433	0	85.365	0	266.5	4	89.9	4	-1E+10	1	-1E+10	1	-1E+10	1	-1E+10	1	-1E+10	1	-1E+10	1
4902549	116	C	10/31/2023	11:50	-133.051	47.365	0	87.00	0	7.3560	0	32.5430	0	25.437	0	86.257	0	266.1	4	89.8	4	-1E+10	1	-1E+10	1	-1E+10	1	-1E+10	1	-1E+10	1	-1E+10	1
4902549	116	C	10/31/2023	11:50	-133.051	47.365	0	88.30	0	7.3760	0	32.5510	0	25.440	0	87.545	0	265.6	4	89.7	4	-1E+10	1	-1E+10	1	-1E+10	1	-1E+10	1	-1E+10	1	-1E+10	1
4902549	116	C	10/31/2023	11:50	-133.051	47.365	0	89.10	0	7.3760	0	32.5530	0	25.442	0	88.338	0	265.4	4	89.6	4	-1E+10	1	-1E+10	1	-1E+10	1	-1E+10	1	-1E+10	1	-1E+10	1
4902549	116	C	10/31/2023	11:50	-133.051	47.365	0	89.90	0	7.3760	0	32.5540	0	25.443	0	89.131	0	265.1	4	89.5	4	-1E+10	1	-1E+10	1	-1E+10	1	-1E+10	1	-1E+10	1	-1E+10	1
4902549	116	C	10/31/2023	11:50	-133.051	47.365	0	91.20	0	7.3680	0	32.5580	0	25.447	0	90.420	0	264.5	4	89.3	4	-1E+10	1	-1E+10	1	-1E+10	1	-1E+10	1	-1E+10	1	-1E+10	1
4902549	116	C	10/31/2023	11:50	-133.051	47.365	0	92.10	0	7.3660	0	32.5580	0	25.447	0	91.312	0	264.0	4	89.1	4	-1E+10	1	-1E+10	1	-1E+10	1	-1E+10	1	-1E+10	1	-1E+10	1
4902549	116	C	10/31/2023	11:50	-133.051	47.365	0	92.90	0	7.3630	0	32.5600	0	25.449	0	92.105	0	263.4	4	88.9	4	-1E+10	1	-1E+10	1	-1E+10	1	-1E+10	1	-1E+10	1	-1E+10	1
4902549	116	C	10/31/2023	11:50	-133.051	47.365	0	94.00	0	7.3570	0	32.5640	0	25.453	0	93.195	0	262.4	4	88.6	4	-1E+10	1	-1E+10	1	-1E+10	1	-1E+10	1	-1E+10	1	-1E+10	1
4902549	116	C	10/31/2023	11:50	-133.051	47.365	0	94.90	0	7.3520	0	32.5660	0	25.456	0	94.088	0	261.6	4	88.3	4	-1E+10	1	-1E+10	1	-1E+10	1	-1E+10	1	-1E+10	1	-1E+10	1
4902549	116	C	10/31/2023	11:50	-133.051	47.365	0	96.00	0	7.3430	0	32.5730	0	25.462	0	95.178	0	260.5	4	87.9	4	-1E+10	1	-1E+10	1	-1E+10	1	-1E+10	1	-1E+10	1	-1E+10	1
4902549	116	C	10/31/2023	11:50	-133.051	47.365	0	97.10	0	7.3420	0	32.5760	0	25.465	0	96.268	0	259.2	4	87.4	4	-1E+10	1	-1E+10	1	-1E+10	1	-1E+10	1	-1E+10	1	-1E+10	1
4902549	116	C	10/31/2023	11:50	-133.051	47.365	0	98.20	0	7.3290	0	32.5860	0	25.474	0	97.358	0	257.6	4	86.9	4	-1E+10	1	-1E+10	1	-1E+10	1	-1E+10	1	-1E+10	1	-1E+10	1
4902549	116	C	10/31/2023	11:50	-133.051	47.365	0	99.10	0	7.3080	0	32.5910	0	25.481	0	98.251	0	256.2	4	86.4	4	-1E+10	1	-1E+10	1	-1E+10	1	-1E+10	1	-1E+10	1	-1E+10	1
4902549	116	C	10/31/2023	11:50	-133.051	47.365	0	100.00	0	7.2820	0	32.6060	0	25.497	0	99.143	0	255.0	4	86.0	4	-1E+10	1	-1E+10	1	-1E+10	1	-1E+10	1	-1E+10	1	-1E+10	1
4902549	116	C	10/31/2023	11:50	-133.051	47.365	0	100.90	0	7.2680	0	32.6290	0	25.517	0	100.035	0	253.9	4	85.6	4	-1E+10	1	-1E+10	1	-1E+10	1	-1E+10	1	-1E+10	1	-1E+10	1
4902549	116	C	10/31/2023	11:50	-133.051	47.365	0	102.40	0	7.2530	0	32.6440	0	25.531	0	101.521	0	251.9	4	84.9	4	-1E+10	1	-1E+10	1	-1E+10	1	-1E+10	1	-1E+10	1	-1E+10	1
4902549	116	C	10/31/2023	11:50	-133.051	47.365	0	103.10	0	7.2440	0	32.6550	0	25.540	0	102.215	0	251.0	4	84.5	4	-1E+10	1	-1E+10	1	-1E+10	1	-1E+10	1	-1E+10	1	-1E+10	1
4902549	116	C	10/31/2023	11:50	-133.051	47.365	0	104.30	0	7.2100	0	32.6890	0	25.572	0	103.405	0	249.4	4	84.0	4	-1E+10	1	-1E+10	1	-1E+10	1	-1E+10	1	-1E+10	1	-1E+10	1
4902549	116	C	10/31/2023	11:50	-133.051	47.365	0	105.00	0	7.2000	0	32.6960	0	25.579	0	104.098	0	248.4	4	83.6	4	-1E+10	1	-1E+10	1	-1E+10	1	-1E+10	1	-1E+10	1	-1E+10	1
4902549	116	C	10/31/2023	11:50	-133.051	47.365	0	106.20	0	7.1530	0	32.7280	0	25.610	0	105.288	0	246.9	4	83.0	4	-1E+10	1	-1E+10	1	-1E+10	1	-1E+10	1	-1E+10	1	-1E+10	1
4902549	116	C	10/31/2023	11:50	-133.051	47.365	0	106.90	0	7.1470	0	32.7310	0	25.613	0	105.982	0	245.7	4	82.6	4	-1E+10	1	-1E+10	1	-1E+10	1	-1E+10	1	-1E+10	1	-1E+10	1
4902549	116	C	10/31/2023	11:50	-133.051	47.365	0	107.80	0	7.1040	0	32.7580	0	25.641	0	106.874	0	244.3	4	82.1	4	-1E+10	1	-1E+10	1	-1E+10	1	-1E+10	1	-1E+10	1	-1E+10	1
4902549	116	C	10/31/2023	11:50	-133.051	47.365	0	108.80	0	7.0560	0	32.7880	0	25.671	0	107.865	0	243.0	4	81.6	4	-1E+10	1	-1E+10	1	-1E+10	1	-1E+10	1	-1E+10	1	-1E+10	1
4902549	116	C	10/31/2023	11:50	-133.051	47.365	0	109.80	0	7.0170	0	32.8060	0	25.690	0	108.856	0	241.8	4	81.1	4	-1E+10	1	-1E+10	1	-1E+10	1	-1E+10	1	-1E+10	1	-1E+10	1
4902549	116	C	10/31/2023	11:50	-133.051	47.365	0	110.80	0	6.9770	0	32.8300	0	25.714	0	109.847	0	240.3	4	80.5	4	-1E+10	1	-1E+10	1	-1E+10	1	-1E+10	1	-1E+10	1	-1E+10	1
4902549	116	C	10/31/2023	11:50	-133.051	47.365	0	112.00	0	6.9090	0	32.8730	0	25.757	0	111.037	0	239.1	4	80.0	4	-1E+10	1	-1E+10	1	-1E+10	1	-1E+10	1	-1E+10	1	-1E+10	1
4902549	116	C	10/31/2023	11:50	-133.051	47.365	0	112.90	0	6.8420	0	32.9150	0	25.799	0	111.929	0	238.2	4	79.7	4	-1E+10	1	-1E+10	1	-1E+10	1	-1E+10	1	-1E+10	1	-1E+10	1
4902549	116	C	10/31/2023	11:50	-133.051	47.365	0	113.80	0	6.8010	0	32.9420	0	25.826	0	112.821	0	237.4	4	79.3	4	-1E+10	1	-1E+10	1	-1E+10	1	-1E+10	1	-1E+10	1	-1E+10	1
4902549	116	C	10/31/2023	11:50	-133.051	47.365	0	115.10	0	6.7600	0	32.9680	0	25.852	0	114.109	0	236.1	4	78.8	4	-1E+10	1	-1E+10	1	-1E+10	1	-1E+10	1	-1E+10	1	-1E+10	1
4902549	116	C	10/31/2023	11:50	-133.051	47.365	0	116.10	0	6.7480	0	32.9770	0	25.860	0	115.100	0	235.0	4	78.5	4	-1E+10	1	-1E+10	1	-1E+10	1	-1E+10	1	-1E+10	1	-1E+10	1
4902549	116	C	10/31/2023	11:50	-133.051	47.365	0	117.10	0	6.7380	0	32.9880	0	25.870	0	116.091	0	233.7	4	78.0	4	-1E+10	1	-1E+10	1	-1E+10	1	-1E+10	1	-1E+10	1	-1E+10	1
4902549	116	C	10/31/2023	11:50	-133.051	47.365	0	118.10	0	6.7270	0	33.0220	0	25.899	0	117.082	0	232.5	4	77.6	4	-1E+10	1	-1E+10	1	-1E+10	1	-1E+10	1	-1E+10	1	-1E+10	1
4902549	116	C	10/31/2023	11:50	-133.051	47.365	0	118.80	0	6.6820	0	33.0540	0	25.930	0	117.776	0	231.9	4	77.3	4	-1E+10	1	-1E+10	1	-1E+10	1	-1E+10	1	-1E+10	1	-1E+10	1
4902549	116	C	10/31/2023	11:50	-133.051	47.365	0	119.90	0	6.6710	0	33.0610	0	25.937	0	118.866	0	230.6	4	76.9	4	-1E+10	1	-1E+10	1	-1E+10	1	-1E+10	1	-1E+10	1	-1E+10	1
4902549	116	C	10/31/2023	11:50	-133.051	47.365	0	121.10	0	6.6480	0	33.0680	0	25.945	0	120.056	0	229.3	4	76.4	4	-1E+10	1	-1E+10	1	-1E+10	1	-1E+10	1	-1E+10	1	-1E+10	1
4902549	116	C	10/31/2023	11:50	-133.051	47.365	0	121.90	0	6.6590	0	33.1290	0	25.992	0	120.848	0	228.4	4	76.2	4	-1E+10	1	-1E+10	1	-1E+10	1	-1E+10	1	-1E+10	1	-1E+10	1
4902549	116	C	10/31/2023	11:50	-133.051	47.365	0	122.80	0	6.6250	0	33.1570	0	26.019	0	121.740	0	227.9	4	76.0	4	-1E+10	1	-1E+10	1	-1E+10	1	-1E+10	1	-1E+10	1	-1E+10	1
4902549	116	C	10/31/2023	11:50	-133.051	47.365	0	123.70	0	6.5670	0	33.1800	0	26.044	0	122.632	0	227.7	4	75.8	4	-1E+10	1	-1E+10	1	-1E+10	1	-1E+10	1	-1E+10	1	-1E+10	1
4902549	116	C	10/31/2023	11:50	-133.051	47.365	0	124.60	0	6.5210	0	33.2000	0	26.066	0	123.524	0	227.5	4	75.7	4	-1E+10	1	-1E+10	1	-1E+10	1	-1E+10	1	-1E+10	1	-1E+10	1
4902549	116	C	10/31/2023	11:50	-133.051	47.365	0	125.90	0	6.5160	0	33.2110	0	26.075	0	124.813	0	226.7	4	75.4	4	-1E+10	1	-1E+10	1	-1E+10	1	-1E+10	1	-1E+10	1	-1E+10	1
4902549	116	C	10/31/2023	11:50	-133.051	47.365	0	127.40	0	6.5110	0	33.2220	0	26.085	0	126.299	0	225.9	4	75.1	4	-1E+10	1	-1E+10	1	-1E+10	1	-1E+10	1	-1E+10	1	-1E+10	1
4902549	116	C	10/31/2023	11:50	-133.051	47.365	0	128.30	0	6.5050	0	33.2380	0	26.098	0	127.191	0	225.4	4	75.0	4	-1E+10	1	-1E+10	1	-1E+10	1	-1E+10	1	-1E+10	1	-1E+10	1
4902549	116	C	10/31/2023	11:50	-133.051	47.365	0	129.30	0	6.5020	0	33.2460	0	26.105	0	128.182	0	224.8	4	74.8	4	-1E+10	1	-1E+10	1	-1E+10	1	-1E+10	1	-1E+10	1	-1E+10	1
4902549	116	C	10/31/2023	11:50	-133.051	47.365	0	130.20	0	6.5010	0	33.2500	0	26.108	0	129.074	0	224.2	4	74.6	4	-1E+10	1	-1E+10	1	-1E+10	1	-1E+10	1	-1E+10	1	-1E+10	1
4902549	116	C	10/31/2023	11:50	-133.051	47.365	0	131.20	0	6.4930	0	33.2600	0	26.117	0	130.065	0	223.7	4	74.4	4	-1E+10	1	-1E+10	1	-1E+10	1	-1E+10	1	-1E+10	1	-1E+10	1
4902549	116	C	10/31/2023	11:50	-133.051	47.365	0	132.10	0	6.4880	0	33.2670	0	26.123	0	130.957	0	223.1	4	74.2	4	-1E+10	1	-1E+10	1	-1E+10	1	-1E+10	1	-1E+10	1	-1E+10	1
4902549	116	C	10/31/2023	11:50	-133.051	47.365	0	133.00	0	6.4810	0	33.2770	0	26.132	0	131.849	0	222.6	4	74.0	4	-1E+10	1	-1E+10	1	-1E+10	1	-1E+10	1	-1E+10	1	-1E+10	1
4902549	116	C	10/31/2023	11:50	-133.051	47.365	0	134.00	0	6.4790	0	33.2880	0	26.141	0	132.840	0	222.1	4	73.8	4	-1E+10	1	-1E+10	1	-1E+10	1	-1E+10	1	-1E+10	1	-1E+10	1
4902549	116	C	10/31/2023	11:50	-133.051	47.365	0	134.90	0	6.4560	0	33.3110	0	26.162	0	133.732	0	221.7	4	73.7	4	-1E+10	1	-1E+10	1	-1E+10	1	-1E+10	1	-1E+10	1	-1E+10	1
4902549	116	C	10/31/2023	11:50	-133.051	47.365	0	135.90	0	6.4540	0	33.3140	0	26.165	0	134.723	0	221.1	4	73.5	4	-1E+10	1	-1E+10	1	-1E+10	1	-1E+10	1	-1E+10	1	-1E+10	1
4902549	116	C	10/31/2023	11:50	-133.051	47.365	0	136.90	0	6.4340	0	33.3300	0	26.180	0	135.714	0	220.7	4	73.3	4	-1E+10	1	-1E+10	1	-1E+10	1	-1E+10	1	-1E+10	1	-1E+10	1
4902549	116	C	10/31/2023	11:50	-133.051	47.365	0	137.80	0	6.4310	0	33.3330	0	26.183	0	136.606	0	220.1	4	73.1	4	-1E+10	1	-1E+10	1	-1E+10	1	-1E+10	1	-1E+10	1	-1E+10	1
4902549	116	C	10/31/2023	11:50	-133.051	47.365	0	138.70	0	6.4190	0	33.3410	0	26.191	0	137.498	0	219.6	4	72.9	4	-1E+10	1	-1E+10	1	-1E+10	1	-1E+10	1	-1E+10	1	-1E+10	1
4902549	116	C	10/31/2023	11:50	-133.051	47.365	0	139.60	0	6.4070	0	33.3470	0	26.197	0	138.390	0	219.0	4	72.7	4	-1E+10	1	-1E+10	1	-1E+10	1	-1E+10	1	-1E+10	1	-1E+10	1
4902549	116	C	10/31/2023	11:50	-133.051	47.365	0	140.90	0	6.3750	0	33.3730	0	26.221	0	139.678	0	218.1	4	72.4	4	-1E+10	1	-1E+10	1	-1E+10	1	-1E+10	1	-1E+10	1	-1E+10	1
4902549	116	C	10/31/2023	11:50	-133.051	47.365	0	142.20	0	6.3630	0	33.3840	0	26.232	0	140.966	0	217.2	4	72.1	4	-1E+10	1	-1E+10	1	-1E+10	1	-1E+10	1	-1E+10	1	-1E+10	1
4902549	116	C	10/31/2023	11:50	-133.051	47.365	0	143.10	0	6.3560	0	33.3870	0	26.235	0	141.858	0	216.5	4	71.8	4	-1E+10	1	-1E+10	1	-1E+10	1	-1E+10	1	-1E+10	1	-1E+10	1
4902549	116	C	10/31/2023	11:50	-133.051	47.365	0	144.00	0	6.3320	0	33.4000	0	26.248	0	142.750	0	215.9	4	71.6	4	-1E+10	1	-1E+10	1	-1E+10	1	-1E+10	1	-1E+10	1	-1E+10	1
4902549	116	C	10/31/2023	11:50	-133.051	47.365	0	144.90	0	6.2310	0	33.4180	0	26.275	0	143.642	0	215.3	4	71.3	4	-1E+10	1	-1E+10	1	-1E+10	1	-1E+10	1	-1E+10	1	-1E+10	1
4902549	116	C	10/31/2023	11:50	-133.051	47.365	0	145.90	0	6.2070	0	33.4260	0	26.285	0	144.633	0	214.7	4	71.0	4	-1E+10	1	-1E+10	1	-1E+10	1	-1E+10	1	-1E+10	1	-1E+10	1
4902549	116	C	10/31/2023	11:50	-133.051	47.365	0	146.80	0	6.2180	0	33.4460	0	26.299	0	145.525	0	213.9	4	70.8	4	-1E+10	1	-1E+10	1	-1E+10	1	-1E+10	1	-1E+10	1	-1E+10	1
4902549	116	C	10/31/2023	11:50	-133.051	47.365	0	147.70	0	6.2240	0	33.4570	0	26.307	0	146.417	0	213.0	4	70.5	4	-1E+10	1	-1E+10	1	-1E+10	1	-1E+10	1	-1E+10	1	-1E+10	1
4902549	116	C	10/31/2023	11:50	-133.051	47.365	0	148.70	0	6.1950	0	33.4590	0	26.312	0	147.408	0	212.3	4	70.2	4	-1E+10	1	-1E+10	1	-1E+10	1	-1E+10	1	-1E+10	1	-1E+10	1
4902549	116	C	10/31/2023	11:50	-133.051	47.365	0	149.60	0	6.1710	0	33.4700	0	26.324	0	148.300	0	211.4	4	69.9	4	-1E+10	1	-1E+10	1	-1E+10	1	-1E+10	1	-1E+10	1	-1E+10	1
4902549	116	C	10/31/2023	11:50	-133.051	47.365	0	150.50	0	6.1640	0	33.4900	0	26.341	0	149.191	0	210.4	4	69.6	4	-1E+10	1	-1E+10	1	-1E+10	1	-1E+10	1	-1E+10	1	-1E+10	1
4902549	116	C	10/31/2023	11:50	-133.051	47.365	0	151.80	0	6.1550	0	33.5000	0	26.350	0	150.480	0	208.8	4	69.0	4	-1E+10	1	-1E+10	1	-1E+10	1	-1E+10	1	-1E+10	1	-1E+10	1
4902549	116	C	10/31/2023	11:50	-133.051	47.365	0	153.00	0	6.1530	0	33.5050	0	26.354	0	151.669	0	207.6	4	68.6	4	-1E+10	1	-1E+10	1	-1E+10	1	-1E+10	1	-1E+10	1	-1E+10	1
4902549	116	C	10/31/2023	11:50	-133.051	47.365	0	153.70	0	6.1510	0	33.5170	0	26.364	0	152.362	0	206.7	4	68.3	4	-1E+10	1	-1E+10	1	-1E+10	1	-1E+10	1	-1E+10	1	-1E+10	1
4902549	116	C	10/31/2023	11:50	-133.051	47.365	0	154.90	0	6.1590	0	33.5320	0	26.375	0	153.551	0	205.4	4	67.9	4	-1E+10	1	-1E+10	1	-1E+10	1	-1E+10	1	-1E+10	1	-1E+10	1
4902549	116	C	10/31/2023	11:50	-133.051	47.365	0	156.00	0	6.1670	0	33.5420	0	26.381	0	154.642	0	204.3	4	67.6	4	-1E+10	1	-1E+10	1	-1E+10	1	-1E+10	1	-1E+10	1	-1E+10	1
4902549	116	C	10/31/2023	11:50	-133.051	47.365	0	156.80	0	6.1710	0	33.5480	0	26.386	0	155.434	0	203.8	4	67.4	4	-1E+10	1	-1E+10	1	-1E+10	1	-1E+10	1	-1E+10	1	-1E+10	1
4902549	116	C	10/31/2023	11:50	-133.051	47.365	0	157.90	0	6.1850	0	33.5560	0	26.390	0	156.524	0	203.2	4	67.3	4	-1E+10	1	-1E+10	1	-1E+10	1	-1E+10	1	-1E+10	1	-1E+10	1
4902549	116	C	10/31/2023	11:50	-133.051	47.365	0	159.10	0	6.1720	0	33.5610	0	26.396	0	157.713	0	202.8	4	67.1	4	-1E+10	1	-1E+10	1	-1E+10	1	-1E+10	1	-1E+10	1	-1E+10	1
4902549	116	C	10/31/2023	11:50	-133.051	47.365	0	159.90	0	6.1710	0	33.5620	0	26.397	0	158.506	0	202.6	4	67.0	4	-1E+10	1	-1E+10	1	-1E+10	1	-1E+10	1	-1E+10	1	-1E+10	1
4902549	116	C	10/31/2023	11:50	-133.051	47.365	0	160.70	0	6.1650	0	33.5630	0	26.398	0	159.299	0	202.3	4	66.9	4	-1E+10	1	-1E+10	1	-1E+10	1	-1E+10	1	-1E+10	1	-1E+10	1
4902549	116	C	10/31/2023	11:50	-133.051	47.365	0	161.90	0	6.1580	0	33.5660	0	26.402	0	160.488	0	201.7	4	66.7	4	-1E+10	1	-1E+10	1	-1E+10	1	-1E+10	1	-1E+10	1	-1E+10	1
4902549	116	C	10/31/2023	11:50	-133.051	47.365	0	163.10	0	6.1440	0	33.5690	0	26.406	0	161.677	0	200.7	4	66.4	4	-1E+10	1	-1E+10	1	-1E+10	1	-1E+10	1	-1E+10	1	-1E+10	1
4902549	116	C	10/31/2023	11:50	-133.051	47.365	0	163.90	0	6.1340	0	33.5700	0	26.408	0	162.470	0	199.8	4	66.0	4	-1E+10	1	-1E+10	1	-1E+10	1	-1E+10	1	-1E+10	1	-1E+10	1
4902549	116	C	10/31/2023	11:50	-133.051	47.365	0	164.70	0	6.1170	0	33.5710	0	26.411	0	163.262	0	198.6	4	65.6	4	-1E+10	1	-1E+10	1	-1E+10	1	-1E+10	1	-1E+10	1	-1E+10	1
4902549	116	C	10/31/2023	11:50	-133.051	47.365	0	165.90	0	6.0880	0	33.5810	0	26.422	0	164.451	0	196.9	4	65.0	4	-1E+10	1	-1E+10	1	-1E+10	1	-1E+10	1	-1E+10	1	-1E+10	1
4902549	116	C	10/31/2023	11:50	-133.051	47.365	0	167.30	0	6.1090	0	33.5960	0	26.432	0	165.839	0	195.4	4	64.6	4	-1E+10	1	-1E+10	1	-1E+10	1	-1E+10	1	-1E+10	1	-1E+10	1
4902549	116	C	10/31/2023	11:50	-133.051	47.365	0	168.10	0	6.1200	0	33.6090	0	26.440	0	166.631	0	194.8	4	64.4	4	-1E+10	1	-1E+10	1	-1E+10	1	-1E+10	1	-1E+10	1	-1E+10	1
4902549	116	C	10/31/2023	11:50	-133.051	47.365	0	169.00	0	6.1140	0	33.6120	0	26.444	0	167.523	0	194.2	4	64.2	4	-1E+10	1	-1E+10	1	-1E+10	1	-1E+10	1	-1E+10	1	-1E+10	1
4902549	116	C	10/31/2023	11:50	-133.051	47.365	0	169.90	0	6.1120	0	33.6110	0	26.443	0	168.415	0	193.5	4	63.9	4	-1E+10	1	-1E+10	1	-1E+10	1	-1E+10	1	-1E+10	1	-1E+10	1
4902549	116	C	10/31/2023	11:50	-133.051	47.365	0	170.80	0	6.1050	0	33.6140	0	26.446	0	169.307	0	192.7	4	63.7	4	-1E+10	1	-1E+10	1	-1E+10	1	-1E+10	1	-1E+10	1	-1E+10	1
4902549	116	C	10/31/2023	11:50	-133.051	47.365	0	171.70	0	6.0990	0	33.6150	0	26.448	0	170.198	0	191.9	4	63.4	4	-1E+10	1	-1E+10	1	-1E+10	1	-1E+10	1	-1E+10	1	-1E+10	1
4902549	116	C	10/31/2023	11:50	-133.051	47.365	0	172.90	0	6.0980	0	33.6150	0	26.448	0	171.387	0	190.4	4	62.9	4	-1E+10	1	-1E+10	1	-1E+10	1	-1E+10	1	-1E+10	1	-1E+10	1
4902549	116	C	10/31/2023	11:50	-133.051	47.365	0	174.30	0	6.0990	0	33.6170	0	26.449	0	172.775	0	188.8	4	62.4	4	-1E+10	1	-1E+10	1	-1E+10	1	-1E+10	1	-1E+10	1	-1E+10	1
4902549	116	C	10/31/2023	11:50	-133.051	47.365	0	175.20	0	6.0920	0	33.6240	0	26.456	0	173.666	0	187.7	4	62.0	4	-1E+10	1	-1E+10	1	-1E+10	1	-1E+10	1	-1E+10	1	-1E+10	1
4902549	116	C	10/31/2023	11:50	-133.051	47.365	0	176.20	0	6.0770	0	33.6330	0	26.465	0	174.657	0	186.6	4	61.6	4	-1E+10	1	-1E+10	1	-1E+10	1	-1E+10	1	-1E+10	1	-1E+10	1
4902549	116	C	10/31/2023	11:50	-133.051	47.365	0	177.10	0	6.0680	0	33.6400	0	26.472	0	175.549	0	185.4	4	61.2	4	-1E+10	1	-1E+10	1	-1E+10	1	-1E+10	1	-1E+10	1	-1E+10	1
4902549	116	C	10/31/2023	11:50	-133.051	47.365	0	178.00	0	6.0780	0	33.6470	0	26.476	0	176.441	0	184.3	4	60.9	4	-1E+10	1	-1E+10	1	-1E+10	1	-1E+10	1	-1E+10	1	-1E+10	1
4902549	116	C	10/31/2023	11:50	-133.051	47.365	0	178.90	0	6.0820	0	33.6520	0	26.479	0	177.332	0	183.2	4	60.5	4	-1E+10	1	-1E+10	1	-1E+10	1	-1E+10	1	-1E+10	1	-1E+10	1
4902549	116	C	10/31/2023	11:50	-133.051	47.365	0	179.90	0	6.0850	0	33.6560	0	26.482	0	178.323	0	182.1	4	60.2	4	-1E+10	1	-1E+10	1	-1E+10	1	-1E+10	1	-1E+10	1	-1E+10	1
4902549	116	C	10/31/2023	11:50	-133.051	47.365	0	180.90	0	6.0850	0	33.6560	0	26.482	0	179.314	0	181.0	4	59.8	4	-1E+10	1	-1E+10	1	-1E+10	1	-1E+10	1	-1E+10	1	-1E+10	1
4902549	116	C	10/31/2023	11:50	-133.051	47.365	0	181.80	0	6.0870	0	33.6580	0	26.483	0	180.206	0	179.9	4	59.4	4	-1E+10	1	-1E+10	1	-1E+10	1	-1E+10	1	-1E+10	1	-1E+10	1
4902549	116	C	10/31/2023	11:50	-133.051	47.365	0	182.80	0	6.0920	0	33.6760	0	26.497	0	181.196	0	178.9	4	59.1	4	-1E+10	1	-1E+10	1	-1E+10	1	-1E+10	1	-1E+10	1	-1E+10	1
4902549	116	C	10/31/2023	11:50	-133.051	47.365	0	183.80	0	6.0930	0	33.6770	0	26.498	0	182.187	0	177.8	4	58.8	4	-1E+10	1	-1E+10	1	-1E+10	1	-1E+10	1	-1E+10	1	-1E+10	1
4902549	116	C	10/31/2023	11:50	-133.051	47.365	0	184.70	0	6.0970	0	33.6800	0	26.500	0	183.079	0	176.7	4	58.4	4	-1E+10	1	-1E+10	1	-1E+10	1	-1E+10	1	-1E+10	1	-1E+10	1
4902549	116	C	10/31/2023	11:50	-133.051	47.365	0	185.80	0	6.0990	0	33.6830	0	26.502	0	184.169	0	175.7	4	58.1	4	-1E+10	1	-1E+10	1	-1E+10	1	-1E+10	1	-1E+10	1	-1E+10	1
4902549	116	C	10/31/2023	11:50	-133.051	47.365	0	186.80	0	6.1020	0	33.6870	0	26.505	0	185.160	0	174.6	4	57.7	4	-1E+10	1	-1E+10	1	-1E+10	1	-1E+10	1	-1E+10	1	-1E+10	1
4902549	116	C	10/31/2023	11:50	-133.051	47.365	0	187.80	0	6.1030	0	33.6890	0	26.506	0	186.150	0	173.4	4	57.3	4	-1E+10	1	-1E+10	1	-1E+10	1	-1E+10	1	-1E+10	1	-1E+10	1
4902549	116	C	10/31/2023	11:50	-133.051	47.365	0	188.80	0	6.1040	0	33.6920	0	26.508	0	187.141	0	172.0	4	56.9	4	-1E+10	1	-1E+10	1	-1E+10	1	-1E+10	1	-1E+10	1	-1E+10	1
4902549	116	C	10/31/2023	11:50	-133.051	47.365	0	189.90	0	6.1190	0	33.7050	0	26.517	0	188.231	0	170.8	4	56.5	4	-1E+10	1	-1E+10	1	-1E+10	1	-1E+10	1	-1E+10	1	-1E+10	1
4902549	116	C	10/31/2023	11:50	-133.051	47.365	0	191.00	0	6.1110	0	33.7060	0	26.518	0	189.321	0	169.8	4	56.1	4	-1E+10	1	-1E+10	1	-1E+10	1	-1E+10	1	-1E+10	1	-1E+10	1
4902549	116	C	10/31/2023	11:50	-133.051	47.365	0	192.00	0	6.1060	0	33.7070	0	26.520	0	190.311	0	168.7	4	55.8	4	-1E+10	1	-1E+10	1	-1E+10	1	-1E+10	1	-1E+10	1	-1E+10	1
4902549	116	C	10/31/2023	11:50	-133.051	47.365	0	193.10	0	6.1010	0	33.7090	0	26.522	0	191.401	0	167.6	4	55.4	4	-1E+10	1	-1E+10	1	-1E+10	1	-1E+10	1	-1E+10	1	-1E+10	1
4902549	116	C	10/31/2023	11:50	-133.051	47.365	0	194.10	0	6.0970	0	33.7090	0	26.523	0	192.392	0	166.4	4	55.0	4	-1E+10	1	-1E+10	1	-1E+10	1	-1E+10	1	-1E+10	1	-1E+10	1
4902549	116	C	10/31/2023	11:50	-133.051	47.365	0	195.20	0	6.0840	0	33.7120	0	26.527	0	193.482	0	165.2	4	54.6	4	-1E+10	1	-1E+10	1	-1E+10	1	-1E+10	1	-1E+10	1	-1E+10	1
4902549	116	C	10/31/2023	11:50	-133.051	47.365	0	196.30	0	6.0780	0	33.7150	0	26.530	0	194.572	0	164.0	4	54.2	4	-1E+10	1	-1E+10	1	-1E+10	1	-1E+10	1	-1E+10	1	-1E+10	1
4902549	116	C	10/31/2023	11:50	-133.051	47.365	0	197.30	0	6.0770	0	33.7160	0	26.531	0	195.562	0	162.5	4	53.7	4	-1E+10	1	-1E+10	1	-1E+10	1	-1E+10	1	-1E+10	1	-1E+10	1
4902549	116	C	10/31/2023	11:50	-133.051	47.365	0	198.40	0	6.0770	0	33.7200	0	26.534	0	196.652	0	161.1	4	53.2	4	-1E+10	1	-1E+10	1	-1E+10	1	-1E+10	1	-1E+10	1	-1E+10	1
4902549	116	C	10/31/2023	11:50	-133.051	47.365	0	199.50	0	6.0590	0	33.7250	0	26.540	0	197.742	0	159.6	4	52.7	4	-1E+10	1	-1E+10	1	-1E+10	1	-1E+10	1	-1E+10	1	-1E+10	1
4902549	116	C	10/31/2023	11:50	-133.051	47.365	0	200.60	0	6.0570	0	33.7240	0	26.540	0	198.832	0	158.1	4	52.2	4	-1E+10	1	-1E+10	1	-1E+10	1	-1E+10	1	-1E+10	1	-1E+10	1
4902549	116	C	10/31/2023	11:50	-133.051	47.365	0	201.70	0	6.0060	0	33.7280	0	26.549	0	199.921	0	156.8	4	51.7	4	-1E+10	1	-1E+10	1	-1E+10	1	-1E+10	1	-1E+10	1	-1E+10	1
4902549	116	C	10/31/2023	11:50	-133.051	47.365	0	202.80	0	5.9570	0	33.7340	0	26.560	0	201.011	0	155.6	4	51.3	4	-1E+10	1	-1E+10	1	-1E+10	1	-1E+10	1	-1E+10	1	-1E+10	1
4902549	116	C	10/31/2023	11:50	-133.051	47.365	0	203.90	0	5.9440	0	33.7370	0	26.564	0	202.101	0	154.5	4	50.9	4	-1E+10	1	-1E+10	1	-1E+10	1	-1E+10	1	-1E+10	1	-1E+10	1
4902549	116	C	10/31/2023	11:50	-133.051	47.365	0	205.00	0	5.9290	0	33.7400	0	26.568	0	203.191	0	153.4	4	50.5	4	-1E+10	1	-1E+10	1	-1E+10	1	-1E+10	1	-1E+10	1	-1E+10	1
4902549	116	C	10/31/2023	11:50	-133.051	47.365	0	206.10	0	5.8850	0	33.7450	0	26.578	0	204.280	0	152.6	4	50.2	4	-1E+10	1	-1E+10	1	-1E+10	1	-1E+10	1	-1E+10	1	-1E+10	1
4902549	116	C	10/31/2023	11:50	-133.051	47.365	0	207.20	0	5.8690	0	33.7460	0	26.580	0	205.370	0	151.9	4	50.0	4	-1E+10	1	-1E+10	1	-1E+10	1	-1E+10	1	-1E+10	1	-1E+10	1
4902549	116	C	10/31/2023	11:50	-133.051	47.365	0	208.30	0	5.8630	0	33.7470	0	26.582	0	206.460	0	151.1	4	49.7	4	-1E+10	1	-1E+10	1	-1E+10	1	-1E+10	1	-1E+10	1	-1E+10	1
4902549	116	C	10/31/2023	11:50	-133.051	47.365	0	209.30	0	5.8560	0	33.7460	0	26.582	0	207.451	0	150.3	4	49.4	4	-1E+10	1	-1E+10	1	-1E+10	1	-1E+10	1	-1E+10	1	-1E+10	1
4902549	116	C	10/31/2023	11:50	-133.051	47.365	0	210.40	0	5.8230	0	33.7540	0	26.592	0	208.540	0	149.5	4	49.1	4	-1E+10	1	-1E+10	1	-1E+10	1	-1E+10	1	-1E+10	1	-1E+10	1
4902549	116	C	10/31/2023	11:50	-133.051	47.365	0	211.50	0	5.7680	0	33.7430	0	26.590	0	209.630	0	148.9	4	48.9	4	-1E+10	1	-1E+10	1	-1E+10	1	-1E+10	1	-1E+10	1	-1E+10	1
4902549	116	C	10/31/2023	11:50	-133.051	47.365	0	212.60	0	5.7650	0	33.7440	0	26.592	0	210.720	0	148.1	4	48.6	4	-1E+10	1	-1E+10	1	-1E+10	1	-1E+10	1	-1E+10	1	-1E+10	1
4902549	116	C	10/31/2023	11:50	-133.051	47.365	0	213.70	0	5.7530	0	33.7440	0	26.593	0	211.809	0	147.1	4	48.3	4	-1E+10	1	-1E+10	1	-1E+10	1	-1E+10	1	-1E+10	1	-1E+10	1
4902549	116	C	10/31/2023	11:50	-133.051	47.365	0	214.80	0	5.7380	0	33.7440	0	26.595	0	212.899	0	146.2	4	47.9	4	-1E+10	1	-1E+10	1	-1E+10	1	-1E+10	1	-1E+10	1	-1E+10	1
4902549	116	C	10/31/2023	11:50	-133.051	47.365	0	215.90	0	5.7610	0	33.7510	0	26.598	0	213.989	0	145.1	4	47.6	4	-1E+10	1	-1E+10	1	-1E+10	1	-1E+10	1	-1E+10	1	-1E+10	1
4902549	116	C	10/31/2023	11:50	-133.051	47.365	0	217.00	0	5.7720	0	33.7530	0	26.598	0	215.079	0	144.0	4	47.3	4	-1E+10	1	-1E+10	1	-1E+10	1	-1E+10	1	-1E+10	1	-1E+10	1
4902549	116	C	10/31/2023	11:50	-133.051	47.365	0	218.00	0	5.7730	0	33.7560	0	26.600	0	216.069	0	142.9	4	46.9	4	-1E+10	1	-1E+10	1	-1E+10	1	-1E+10	1	-1E+10	1	-1E+10	1
4902549	116	C	10/31/2023	11:50	-133.051	47.365	0	219.10	0	5.7600	0	33.7570	0	26.603	0	217.159	0	141.9	4	46.6	4	-1E+10	1	-1E+10	1	-1E+10	1	-1E+10	1	-1E+10	1	-1E+10	1
4902549	116	C	10/31/2023	11:50	-133.051	47.365	0	220.20	0	5.7350	0	33.7610	0	26.609	0	218.249	0	140.9	4	46.2	4	-1E+10	1	-1E+10	1	-1E+10	1	-1E+10	1	-1E+10	1	-1E+10	1
4902549	116	C	10/31/2023	11:50	-133.051	47.365	0	221.20	0	5.7090	0	33.7590	0	26.610	0	219.239	0	140.0	4	45.9	4	-1E+10	1	-1E+10	1	-1E+10	1	-1E+10	1	-1E+10	1	-1E+10	1
4902549	116	C	10/31/2023	11:50	-133.051	47.365	0	222.30	0	5.7020	0	33.7600	0	26.612	0	220.329	0	139.1	4	45.6	4	-1E+10	1	-1E+10	1	-1E+10	1	-1E+10	1	-1E+10	1	-1E+10	1
4902549	116	C	10/31/2023	11:50	-133.051	47.365	0	223.30	0	5.7000	0	33.7610	0	26.613	0	221.319	0	138.1	4	45.2	4	-1E+10	1	-1E+10	1	-1E+10	1	-1E+10	1	-1E+10	1	-1E+10	1
4902549	116	C	10/31/2023	11:50	-133.051	47.365	0	224.40	0	5.6820	0	33.7600	0	26.614	0	222.409	0	137.1	4	44.9	4	-1E+10	1	-1E+10	1	-1E+10	1	-1E+10	1	-1E+10	1	-1E+10	1
4902549	116	C	10/31/2023	11:50	-133.051	47.365	0	225.50	0	5.6850	0	33.7630	0	26.616	0	223.499	0	136.3	4	44.7	4	-1E+10	1	-1E+10	1	-1E+10	1	-1E+10	1	-1E+10	1	-1E+10	1
4902549	116	C	10/31/2023	11:50	-133.051	47.365	0	226.50	0	5.6720	0	33.7670	0	26.621	0	224.489	0	135.6	4	44.4	4	-1E+10	1	-1E+10	1	-1E+10	1	-1E+10	1	-1E+10	1	-1E+10	1
4902549	116	C	10/31/2023	11:50	-133.051	47.365	0	227.60	0	5.6460	0	33.7670	0	26.624	0	225.579	0	134.7	4	44.1	4	-1E+10	1	-1E+10	1	-1E+10	1	-1E+10	1	-1E+10	1	-1E+10	1
4902549	116	C	10/31/2023	11:50	-133.051	47.365	0	228.60	0	5.6330	0	33.7670	0	26.626	0	226.570	0	133.9	4	43.8	4	-1E+10	1	-1E+10	1	-1E+10	1	-1E+10	1	-1E+10	1	-1E+10	1
4902549	116	C	10/31/2023	11:50	-133.051	47.365	0	229.60	0	5.6210	0	33.7660	0	26.627	0	227.560	0	133.1	4	43.5	4	-1E+10	1	-1E+10	1	-1E+10	1	-1E+10	1	-1E+10	1	-1E+10	1
4902549	116	C	10/31/2023	11:50	-133.051	47.365	0	230.70	0	5.6090	0	33.7670	0	26.629	0	228.650	0	132.0	4	43.2	4	-1E+10	1	-1E+10	1	-1E+10	1	-1E+10	1	-1E+10	1	-1E+10	1
4902549	116	C	10/31/2023	11:50	-133.051	47.365	0	231.70	0	5.5910	0	33.7650	0	26.629	0	229.640	0	131.0	4	42.8	4	-1E+10	1	-1E+10	1	-1E+10	1	-1E+10	1	-1E+10	1	-1E+10	1
4902549	116	C	10/31/2023	11:50	-133.051	47.365	0	232.70	0	5.5720	0	33.7620	0	26.629	0	230.631	0	129.9	4	42.4	4	-1E+10	1	-1E+10	1	-1E+10	1	-1E+10	1	-1E+10	1	-1E+10	1
4902549	116	C	10/31/2023	11:50	-133.051	47.365	0	233.80	0	5.5620	0	33.7640	0	26.632	0	231.720	0	128.7	4	42.0	4	-1E+10	1	-1E+10	1	-1E+10	1	-1E+10	1	-1E+10	1	-1E+10	1
4902549	116	C	10/31/2023	11:50	-133.051	47.365	0	234.80	0	5.5660	0	33.7700	0	26.636	0	232.711	0	127.4	4	41.6	4	-1E+10	1	-1E+10	1	-1E+10	1	-1E+10	1	-1E+10	1	-1E+10	1
4902549	116	C	10/31/2023	11:50	-133.051	47.365	0	235.80	0	5.5430	0	33.7690	0	26.638	0	233.702	0	126.2	4	41.2	4	-1E+10	1	-1E+10	1	-1E+10	1	-1E+10	1	-1E+10	1	-1E+10	1
4902549	116	C	10/31/2023	11:50	-133.051	47.365	0	236.80	0	5.5360	0	33.7740	0	26.643	0	234.692	0	124.9	4	40.8	4	-1E+10	1	-1E+10	1	-1E+10	1	-1E+10	1	-1E+10	1	-1E+10	1
4902549	116	C	10/31/2023	11:50	-133.051	47.365	0	237.80	0	5.4860	0	33.7720	0	26.648	0	235.683	0	123.8	4	40.4	4	-1E+10	1	-1E+10	1	-1E+10	1	-1E+10	1	-1E+10	1	-1E+10	1
4902549	116	C	10/31/2023	11:50	-133.051	47.365	0	238.80	0	5.4470	0	33.7710	0	26.651	0	236.673	0	122.8	4	40.0	4	-1E+10	1	-1E+10	1	-1E+10	1	-1E+10	1	-1E+10	1	-1E+10	1
4902549	116	C	10/31/2023	11:50	-133.051	47.365	0	239.90	0	5.4630	0	33.7770	0	26.654	0	237.763	0	121.8	4	39.7	4	-1E+10	1	-1E+10	1	-1E+10	1	-1E+10	1	-1E+10	1	-1E+10	1
4902549	116	C	10/31/2023	11:50	-133.051	47.365	0	240.90	0	5.4640	0	33.7810	0	26.657	0	238.753	0	121.0	4	39.4	4	-1E+10	1	-1E+10	1	-1E+10	1	-1E+10	1	-1E+10	1	-1E+10	1
4902549	116	C	10/31/2023	11:50	-133.051	47.365	0	241.90	0	5.4550	0	33.7840	0	26.661	0	239.744	0	120.3	4	39.2	4	-1E+10	1	-1E+10	1	-1E+10	1	-1E+10	1	-1E+10	1	-1E+10	1
4902549	116	C	10/31/2023	11:50	-133.051	47.365	0	242.90	0	5.4350	0	33.7840	0	26.663	0	240.734	0	119.8	4	39.0	4	-1E+10	1	-1E+10	1	-1E+10	1	-1E+10	1	-1E+10	1	-1E+10	1
4902549	116	C	10/31/2023	11:50	-133.051	47.365	0	243.90	0	5.4280	0	33.7840	0	26.664	0	241.725	0	119.1	4	38.8	4	-1E+10	1	-1E+10	1	-1E+10	1	-1E+10	1	-1E+10	1	-1E+10	1
4902549	116	C	10/31/2023	11:50	-133.051	47.365	0	244.90	0	5.4160	0	33.7840	0	26.665	0	242.715	0	118.4	4	38.5	4	-1E+10	1	-1E+10	1	-1E+10	1	-1E+10	1	-1E+10	1	-1E+10	1
4902549	116	C	10/31/2023	11:50	-133.051	47.365	0	245.90	0	5.4030	0	33.7840	0	26.667	0	243.706	0	117.7	4	38.3	4	-1E+10	1	-1E+10	1	-1E+10	1	-1E+10	1	-1E+10	1	-1E+10	1
4902549	116	C	10/31/2023	11:50	-133.051	47.365	0	246.90	0	5.3790	0	33.7840	0	26.670	0	244.696	0	116.8	4	38.0	4	-1E+10	1	-1E+10	1	-1E+10	1	-1E+10	1	-1E+10	1	-1E+10	1
4902549	116	C	10/31/2023	11:50	-133.051	47.365	0	247.90	0	5.3560	0	33.7800	0	26.669	0	245.687	0	115.9	4	37.7	4	-1E+10	1	-1E+10	1	-1E+10	1	-1E+10	1	-1E+10	1	-1E+10	1
4902549	116	C	10/31/2023	11:50	-133.051	47.365	0	248.90	0	5.3370	0	33.7820	0	26.673	0	246.677	0	115.1	4	37.4	4	-1E+10	1	-1E+10	1	-1E+10	1	-1E+10	1	-1E+10	1	-1E+10	1
4902549	116	C	10/31/2023	11:50	-133.051	47.365	0	249.90	0	5.3400	0	33.7890	0	26.678	0	247.668	0	114.4	4	37.2	4	-1E+10	1	-1E+10	1	-1E+10	1	-1E+10	1	-1E+10	1	-1E+10	1
4902549	116	C	10/31/2023	11:50	-133.051	47.365	0	250.90	0	5.3350	0	33.7880	0	26.678	0	248.658	0	113.6	4	36.9	4	-1E+10	1	-1E+10	1	-1E+10	1	-1E+10	1	-1E+10	1	-1E+10	1
4902549	116	C	10/31/2023	11:50	-133.051	47.365	0	251.90	0	5.3310	0	33.7870	0	26.678	0	249.649	0	112.8	4	36.7	4	-1E+10	1	-1E+10	1	-1E+10	1	-1E+10	1	-1E+10	1	-1E+10	1
4902549	116	C	10/31/2023	11:50	-133.051	47.365	0	252.90	0	5.3120	0	33.7890	0	26.682	0	250.639	0	112.0	4	36.4	4	-1E+10	1	-1E+10	1	-1E+10	1	-1E+10	1	-1E+10	1	-1E+10	1
4902549	116	C	10/31/2023	11:50	-133.051	47.365	0	253.90	0	5.3070	0	33.7890	0	26.682	0	251.629	0	111.2	4	36.1	4	-1E+10	1	-1E+10	1	-1E+10	1	-1E+10	1	-1E+10	1	-1E+10	1
4902549	116	C	10/31/2023	11:50	-133.051	47.365	0	254.90	0	5.2740	0	33.8060	0	26.700	0	252.620	0	110.4	4	35.8	4	-1E+10	1	-1E+10	1	-1E+10	1	-1E+10	1	-1E+10	1	-1E+10	1
4902549	116	C	10/31/2023	11:50	-133.051	47.365	0	255.90	0	5.2350	0	33.7920	0	26.693	0	253.610	0	110.0	4	35.7	4	-1E+10	1	-1E+10	1	-1E+10	1	-1E+10	1	-1E+10	1	-1E+10	1
4902549	116	C	10/31/2023	11:50	-133.051	47.365	0	256.90	0	5.2160	0	33.7940	0	26.697	0	254.601	0	109.6	4	35.5	4	-1E+10	1	-1E+10	1	-1E+10	1	-1E+10	1	-1E+10	1	-1E+10	1
4902549	116	C	10/31/2023	11:50	-133.051	47.365	0	257.90	0	5.2070	0	33.7930	0	26.697	0	255.591	0	109.1	4	35.4	4	-1E+10	1	-1E+10	1	-1E+10	1	-1E+10	1	-1E+10	1	-1E+10	1
4902549	116	C	10/31/2023	11:50	-133.051	47.365	0	258.90	0	5.2080	0	33.7930	0	26.697	0	256.582	0	108.5	4	35.2	4	-1E+10	1	-1E+10	1	-1E+10	1	-1E+10	1	-1E+10	1	-1E+10	1
4902549	116	C	10/31/2023	11:50	-133.051	47.365	0	259.90	0	5.2070	0	33.7940	0	26.698	0	257.572	0	107.9	4	35.0	4	-1E+10	1	-1E+10	1	-1E+10	1	-1E+10	1	-1E+10	1	-1E+10	1
4902549	116	C	10/31/2023	11:50	-133.051	47.365	0	260.90	0	5.2060	0	33.7940	0	26.698	0	258.562	0	107.1	4	34.7	4	-1E+10	1	-1E+10	1	-1E+10	1	-1E+10	1	-1E+10	1	-1E+10	1
4902549	116	C	10/31/2023	11:50	-133.051	47.365	0	261.90	0	5.2140	0	33.7970	0	26.699	0	259.553	0	106.3	4	34.5	4	-1E+10	1	-1E+10	1	-1E+10	1	-1E+10	1	-1E+10	1	-1E+10	1
4902549	116	C	10/31/2023	11:50	-133.051	47.365	0	262.90	0	5.2190	0	33.8000	0	26.701	0	260.543	0	105.5	4	34.2	4	-1E+10	1	-1E+10	1	-1E+10	1	-1E+10	1	-1E+10	1	-1E+10	1
4902549	116	C	10/31/2023	11:50	-133.051	47.365	0	263.90	0	5.2210	0	33.8000	0	26.701	0	261.534	0	104.7	4	33.9	4	-1E+10	1	-1E+10	1	-1E+10	1	-1E+10	1	-1E+10	1	-1E+10	1
4902549	116	C	10/31/2023	11:50	-133.051	47.365	0	264.90	0	5.2310	0	33.8060	0	26.705	0	262.524	0	104.1	4	33.7	4	-1E+10	1	-1E+10	1	-1E+10	1	-1E+10	1	-1E+10	1	-1E+10	1
4902549	116	C	10/31/2023	11:50	-133.051	47.365	0	265.90	0	5.2330	0	33.8070	0	26.705	0	263.514	0	103.6	4	33.6	4	-1E+10	1	-1E+10	1	-1E+10	1	-1E+10	1	-1E+10	1	-1E+10	1
4902549	116	C	10/31/2023	11:50	-133.051	47.365	0	266.90	0	5.1890	0	33.8200	0	26.721	0	264.505	0	103.2	4	33.4	4	-1E+10	1	-1E+10	1	-1E+10	1	-1E+10	1	-1E+10	1	-1E+10	1
4902549	116	C	10/31/2023	11:50	-133.051	47.365	0	267.90	0	5.1270	0	33.8070	0	26.717	0	265.495	0	103.0	4	33.3	4	-1E+10	1	-1E+10	1	-1E+10	1	-1E+10	1	-1E+10	1	-1E+10	1
4902549	116	C	10/31/2023	11:50	-133.051	47.365	0	269.00	0	5.1150	0	33.8060	0	26.718	0	266.585	0	102.6	4	33.2	4	-1E+10	1	-1E+10	1	-1E+10	1	-1E+10	1	-1E+10	1	-1E+10	1
4902549	116	C	10/31/2023	11:50	-133.051	47.365	0	270.00	0	5.1010	0	33.8090	0	26.722	0	267.575	0	102.2	4	33.0	4	-1E+10	1	-1E+10	1	-1E+10	1	-1E+10	1	-1E+10	1	-1E+10	1
4902549	116	C	10/31/2023	11:50	-133.051	47.365	0	271.00	0	5.0830	0	33.8020	0	26.719	0	268.565	0	101.7	4	32.8	4	-1E+10	1	-1E+10	1	-1E+10	1	-1E+10	1	-1E+10	1	-1E+10	1
4902549	116	C	10/31/2023	11:50	-133.051	47.365	0	272.00	0	5.0580	0	33.8010	0	26.721	0	269.556	0	101.0	4	32.6	4	-1E+10	1	-1E+10	1	-1E+10	1	-1E+10	1	-1E+10	1	-1E+10	1
4902549	116	C	10/31/2023	11:50	-133.051	47.365	0	273.10	0	5.0440	0	33.8000	0	26.721	0	270.645	0	100.2	4	32.3	4	-1E+10	1	-1E+10	1	-1E+10	1	-1E+10	1	-1E+10	1	-1E+10	1
4902549	116	C	10/31/2023	11:50	-133.051	47.365	0	274.10	0	5.0210	0	33.7980	0	26.722	0	271.636	0	99.5	4	32.1	4	-1E+10	1	-1E+10	1	-1E+10	1	-1E+10	1	-1E+10	1	-1E+10	1
4902549	116	C	10/31/2023	11:50	-133.051	47.365	0	275.10	0	5.0350	0	33.8030	0	26.725	0	272.626	0	98.7	4	31.9	4	-1E+10	1	-1E+10	1	-1E+10	1	-1E+10	1	-1E+10	1	-1E+10	1
4902549	116	C	10/31/2023	11:50	-133.051	47.365	0	276.20	0	5.0400	0	33.8020	0	26.723	0	273.715	0	98.0	4	31.6	4	-1E+10	1	-1E+10	1	-1E+10	1	-1E+10	1	-1E+10	1	-1E+10	1
4902549	116	C	10/31/2023	11:50	-133.051	47.365	0	277.20	0	5.0590	0	33.8150	0	26.732	0	274.706	0	97.4	4	31.5	4	-1E+10	1	-1E+10	1	-1E+10	1	-1E+10	1	-1E+10	1	-1E+10	1
4902549	116	C	10/31/2023	11:50	-133.051	47.365	0	278.20	0	5.0510	0	33.8140	0	26.732	0	275.696	0	97.0	4	31.3	4	-1E+10	1	-1E+10	1	-1E+10	1	-1E+10	1	-1E+10	1	-1E+10	1
4902549	116	C	10/31/2023	11:50	-133.051	47.365	0	279.20	0	5.0420	0	33.8140	0	26.733	0	276.686	0	96.4	4	31.1	4	-1E+10	1	-1E+10	1	-1E+10	1	-1E+10	1	-1E+10	1	-1E+10	1
4902549	116	C	10/31/2023	11:50	-133.051	47.365	0	280.30	0	5.0360	0	33.8130	0	26.733	0	277.776	0	95.9	4	30.9	4	-1E+10	1	-1E+10	1	-1E+10	1	-1E+10	1	-1E+10	1	-1E+10	1
4902549	116	C	10/31/2023	11:50	-133.051	47.365	0	281.30	0	5.0060	0	33.8170	0	26.739	0	278.766	0	95.2	4	30.7	4	-1E+10	1	-1E+10	1	-1E+10	1	-1E+10	1	-1E+10	1	-1E+10	1
4902549	116	C	10/31/2023	11:50	-133.051	47.365	0	282.30	0	5.0000	0	33.8110	0	26.735	0	279.756	0	94.6	4	30.5	4	-1E+10	1	-1E+10	1	-1E+10	1	-1E+10	1	-1E+10	1	-1E+10	1
4902549	116	C	10/31/2023	11:50	-133.051	47.365	0	283.30	0	5.0200	0	33.8130	0	26.735	0	280.747	0	94.1	4	30.4	4	-1E+10	1	-1E+10	1	-1E+10	1	-1E+10	1	-1E+10	1	-1E+10	1
4902549	116	C	10/31/2023	11:50	-133.051	47.365	0	284.40	0	5.0230	0	33.8170	0	26.737	0	281.836	0	93.6	4	30.2	4	-1E+10	1	-1E+10	1	-1E+10	1	-1E+10	1	-1E+10	1	-1E+10	1
4902549	116	C	10/31/2023	11:50	-133.051	47.365	0	285.40	0	4.9770	0	33.8170	0	26.743	0	282.826	0	93.2	4	30.0	4	-1E+10	1	-1E+10	1	-1E+10	1	-1E+10	1	-1E+10	1	-1E+10	1
4902549	116	C	10/31/2023	11:50	-133.051	47.365	0	286.40	0	4.9570	0	33.8140	0	26.742	0	283.817	0	92.7	4	29.9	4	-1E+10	1	-1E+10	1	-1E+10	1	-1E+10	1	-1E+10	1	-1E+10	1
4902549	116	C	10/31/2023	11:50	-133.051	47.365	0	287.40	0	4.9180	0	33.8160	0	26.748	0	284.807	0	92.1	4	29.6	4	-1E+10	1	-1E+10	1	-1E+10	1	-1E+10	1	-1E+10	1	-1E+10	1
4902549	116	C	10/31/2023	11:50	-133.051	47.365	0	288.50	0	4.8510	0	33.8120	0	26.753	0	285.896	0	91.6	4	29.4	4	-1E+10	1	-1E+10	1	-1E+10	1	-1E+10	1	-1E+10	1	-1E+10	1
4902549	116	C	10/31/2023	11:50	-133.051	47.365	0	289.50	0	4.8430	0	33.8100	0	26.752	0	286.886	0	91.0	4	29.2	4	-1E+10	1	-1E+10	1	-1E+10	1	-1E+10	1	-1E+10	1	-1E+10	1
4902549	116	C	10/31/2023	11:50	-133.051	47.365	0	290.60	0	4.8330	0	33.8090	0	26.752	0	287.976	0	90.4	4	29.0	4	-1E+10	1	-1E+10	1	-1E+10	1	-1E+10	1	-1E+10	1	-1E+10	1
4902549	116	C	10/31/2023	11:50	-133.051	47.365	0	291.60	0	4.8410	0	33.8110	0	26.753	0	288.966	0	89.8	4	28.9	4	-1E+10	1	-1E+10	1	-1E+10	1	-1E+10	1	-1E+10	1	-1E+10	1
4902549	116	C	10/31/2023	11:50	-133.051	47.365	0	292.60	0	4.8490	0	33.8190	0	26.759	0	289.956	0	89.4	4	28.7	4	-1E+10	1	-1E+10	1	-1E+10	1	-1E+10	1	-1E+10	1	-1E+10	1
4902549	116	C	10/31/2023	11:50	-133.051	47.365	0	293.70	0	4.8760	0	33.8170	0	26.754	0	291.046	0	88.9	4	28.6	4	-1E+10	1	-1E+10	1	-1E+10	1	-1E+10	1	-1E+10	1	-1E+10	1
4902549	116	C	10/31/2023	11:50	-133.051	47.365	0	294.70	0	4.8930	0	33.8300	0	26.762	0	292.036	0	88.5	4	28.5	4	-1E+10	1	-1E+10	1	-1E+10	1	-1E+10	1	-1E+10	1	-1E+10	1
4902549	116	C	10/31/2023	11:50	-133.051	47.365	0	295.80	0	4.8900	0	33.8310	0	26.764	0	293.125	0	88.2	4	28.4	4	-1E+10	1	-1E+10	1	-1E+10	1	-1E+10	1	-1E+10	1	-1E+10	1
4902549	116	C	10/31/2023	11:50	-133.051	47.365	0	296.80	0	4.8770	0	33.8300	0	26.764	0	294.115	0	87.8	4	28.2	4	-1E+10	1	-1E+10	1	-1E+10	1	-1E+10	1	-1E+10	1	-1E+10	1
4902549	116	C	10/31/2023	11:50	-133.051	47.365	0	297.80	0	4.8720	0	33.8280	0	26.763	0	295.106	0	87.4	4	28.1	4	-1E+10	1	-1E+10	1	-1E+10	1	-1E+10	1	-1E+10	1	-1E+10	1
4902549	116	C	10/31/2023	11:50	-133.051	47.365	0	298.80	0	4.8740	0	33.8270	0	26.762	0	296.096	0	86.9	4	28.0	4	-1E+10	1	-1E+10	1	-1E+10	1	-1E+10	1	-1E+10	1	-1E+10	1
4902549	116	C	10/31/2023	11:50	-133.051	47.365	0	299.90	0	4.8630	0	33.8270	0	26.763	0	297.185	0	86.5	4	27.8	4	-1E+10	1	-1E+10	1	-1E+10	1	-1E+10	1	-1E+10	1	-1E+10	1
4902549	116	C	10/31/2023	11:50	-133.051	47.365	0	300.90	0	4.8300	0	33.8300	0	26.770	0	298.175	0	86.0	4	27.6	4	-1E+10	1	-1E+10	1	-1E+10	1	-1E+10	1	-1E+10	1	-1E+10	1
4902549	116	C	10/31/2023	11:50	-133.051	47.365	0	301.90	0	4.8170	0	33.8270	0	26.769	0	299.165	0	85.6	4	27.5	4	-1E+10	1	-1E+10	1	-1E+10	1	-1E+10	1	-1E+10	1	-1E+10	1
4902549	116	C	10/31/2023	11:50	-133.051	47.365	0	302.90	0	4.8390	0	33.8270	0	26.766	0	300.156	0	85.0	4	27.3	4	-1E+10	1	-1E+10	1	-1E+10	1	-1E+10	1	-1E+10	1	-1E+10	1
4902549	116	C	10/31/2023	11:50	-133.051	47.365	0	303.90	0	4.8530	0	33.8380	0	26.773	0	301.146	0	84.5	4	27.2	4	-1E+10	1	-1E+10	1	-1E+10	1	-1E+10	1	-1E+10	1	-1E+10	1
4902549	116	C	10/31/2023	11:50	-133.051	47.365	0	304.90	0	4.8110	0	33.8340	0	26.775	0	302.136	0	84.1	4	27.0	4	-1E+10	1	-1E+10	1	-1E+10	1	-1E+10	1	-1E+10	1	-1E+10	1
4902549	116	C	10/31/2023	11:50	-133.051	47.365	0	306.00	0	4.8100	0	33.8340	0	26.775	0	303.225	0	83.4	4	26.8	4	-1E+10	1	-1E+10	1	-1E+10	1	-1E+10	1	-1E+10	1	-1E+10	1
4902549	116	C	10/31/2023	11:50	-133.051	47.365	0	306.80	0	4.8270	0	33.8350	0	26.774	0	304.018	0	83.0	4	26.7	4	-1E+10	1	-1E+10	1	-1E+10	1	-1E+10	1	-1E+10	1	-1E+10	1
4902549	116	C	10/31/2023	11:50	-133.051	47.365	0	307.90	0	4.8520	0	33.8430	0	26.777	0	305.107	0	82.3	4	26.5	4	-1E+10	1	-1E+10	1	-1E+10	1	-1E+10	1	-1E+10	1	-1E+10	1
4902549	116	C	10/31/2023	11:50	-133.051	47.365	0	309.10	0	4.8400	0	33.8460	0	26.781	0	306.295	0	81.8	4	26.3	4	-1E+10	1	-1E+10	1	-1E+10	1	-1E+10	1	-1E+10	1	-1E+10	1
4902549	116	C	10/31/2023	11:50	-133.051	47.365	0	309.90	0	4.8140	0	33.8440	0	26.782	0	307.087	0	81.5	4	26.2	4	-1E+10	1	-1E+10	1	-1E+10	1	-1E+10	1	-1E+10	1	-1E+10	1
4902549	116	C	10/31/2023	11:50	-133.051	47.365	0	311.00	0	4.7920	0	33.8400	0	26.782	0	308.176	0	81.0	4	26.0	4	-1E+10	1	-1E+10	1	-1E+10	1	-1E+10	1	-1E+10	1	-1E+10	1
4902549	116	C	10/31/2023	11:50	-133.051	47.365	0	312.20	0	4.7680	0	33.8450	0	26.788	0	309.365	0	80.6	4	25.8	4	-1E+10	1	-1E+10	1	-1E+10	1	-1E+10	1	-1E+10	1	-1E+10	1
4902549	116	C	10/31/2023	11:50	-133.051	47.365	0	313.00	0	4.7470	0	33.8420	0	26.788	0	310.157	0	80.3	4	25.7	4	-1E+10	1	-1E+10	1	-1E+10	1	-1E+10	1	-1E+10	1	-1E+10	1
4902549	116	C	10/31/2023	11:50	-133.051	47.365	0	313.80	0	4.7410	0	33.8410	0	26.788	0	310.949	0	80.0	4	25.6	4	-1E+10	1	-1E+10	1	-1E+10	1	-1E+10	1	-1E+10	1	-1E+10	1
4902549	116	C	10/31/2023	11:50	-133.051	47.365	0	314.90	0	4.7330	0	33.8420	0	26.790	0	312.038	0	79.4	4	25.5	4	-1E+10	1	-1E+10	1	-1E+10	1	-1E+10	1	-1E+10	1	-1E+10	1
4902549	116	C	10/31/2023	11:50	-133.051	47.365	0	316.10	0	4.7190	0	33.8420	0	26.791	0	313.226	0	78.9	4	25.3	4	-1E+10	1	-1E+10	1	-1E+10	1	-1E+10	1	-1E+10	1	-1E+10	1
4902549	116	C	10/31/2023	11:50	-133.051	47.365	0	316.90	0	4.7220	0	33.8440	0	26.793	0	314.018	0	78.5	4	25.2	4	-1E+10	1	-1E+10	1	-1E+10	1	-1E+10	1	-1E+10	1	-1E+10	1
4902549	116	C	10/31/2023	11:50	-133.051	47.365	0	318.00	0	4.7450	0	33.8470	0	26.793	0	315.107	0	78.0	4	25.0	4	-1E+10	1	-1E+10	1	-1E+10	1	-1E+10	1	-1E+10	1	-1E+10	1
4902549	116	C	10/31/2023	11:50	-133.051	47.365	0	319.20	0	4.7640	0	33.8540	0	26.796	0	316.296	0	77.5	4	24.8	4	-1E+10	1	-1E+10	1	-1E+10	1	-1E+10	1	-1E+10	1	-1E+10	1
4902549	116	C	10/31/2023	11:50	-133.051	47.365	0	320.00	0	4.7640	0	33.8560	0	26.798	0	317.088	0	77.2	4	24.7	4	-1E+10	1	-1E+10	1	-1E+10	1	-1E+10	1	-1E+10	1	-1E+10	1
4902549	116	C	10/31/2023	11:50	-133.051	47.365	0	320.80	0	4.7650	0	33.8560	0	26.798	0	317.880	0	76.8	4	24.6	4	-1E+10	1	-1E+10	1	-1E+10	1	-1E+10	1	-1E+10	1	-1E+10	1
4902549	116	C	10/31/2023	11:50	-133.051	47.365	0	322.00	0	4.7520	0	33.8560	0	26.799	0	319.068	0	76.3	4	24.5	4	-1E+10	1	-1E+10	1	-1E+10	1	-1E+10	1	-1E+10	1	-1E+10	1
4902549	116	C	10/31/2023	11:50	-133.051	47.365	0	323.20	0	4.7400	0	33.8560	0	26.800	0	320.256	0	75.8	4	24.3	4	-1E+10	1	-1E+10	1	-1E+10	1	-1E+10	1	-1E+10	1	-1E+10	1
4902549	116	C	10/31/2023	11:50	-133.051	47.365	0	324.00	0	4.7250	0	33.8510	0	26.798	0	321.048	0	75.4	4	24.2	4	-1E+10	1	-1E+10	1	-1E+10	1	-1E+10	1	-1E+10	1	-1E+10	1
4902549	116	C	10/31/2023	11:50	-133.051	47.365	0	324.80	0	4.6650	0	33.8470	0	26.801	0	321.840	0	75.1	4	24.0	4	-1E+10	1	-1E+10	1	-1E+10	1	-1E+10	1	-1E+10	1	-1E+10	1
4902549	116	C	10/31/2023	11:50	-133.051	47.365	0	326.00	0	4.6600	0	33.8490	0	26.804	0	323.028	0	74.4	4	23.8	4	-1E+10	1	-1E+10	1	-1E+10	1	-1E+10	1	-1E+10	1	-1E+10	1
4902549	116	C	10/31/2023	11:50	-133.051	47.365	0	327.20	0	4.6400	0	33.8500	0	26.807	0	324.217	0	73.8	4	23.6	4	-1E+10	1	-1E+10	1	-1E+10	1	-1E+10	1	-1E+10	1	-1E+10	1
4902549	116	C	10/31/2023	11:50	-133.051	47.365	0	328.00	0	4.6440	0	33.8520	0	26.808	0	325.009	0	73.4	4	23.5	4	-1E+10	1	-1E+10	1	-1E+10	1	-1E+10	1	-1E+10	1	-1E+10	1
4902549	116	C	10/31/2023	11:50	-133.051	47.365	0	328.80	0	4.6420	0	33.8560	0	26.811	0	325.801	0	73.0	4	23.4	4	-1E+10	1	-1E+10	1	-1E+10	1	-1E+10	1	-1E+10	1	-1E+10	1
4902549	116	C	10/31/2023	11:50	-133.051	47.365	0	330.00	0	4.6120	0	33.8570	0	26.815	0	326.989	0	72.6	4	23.2	4	-1E+10	1	-1E+10	1	-1E+10	1	-1E+10	1	-1E+10	1	-1E+10	1
4902549	116	C	10/31/2023	11:50	-133.051	47.365	0	331.20	0	4.5640	0	33.8500	0	26.815	0	328.177	0	72.2	4	23.1	4	-1E+10	1	-1E+10	1	-1E+10	1	-1E+10	1	-1E+10	1	-1E+10	1
4902549	116	C	10/31/2023	11:50	-133.051	47.365	0	332.10	0	4.5400	0	33.8520	0	26.819	0	329.068	0	72.0	4	23.0	4	-1E+10	1	-1E+10	1	-1E+10	1	-1E+10	1	-1E+10	1	-1E+10	1
4902549	116	C	10/31/2023	11:50	-133.051	47.365	0	332.90	0	4.5390	0	33.8500	0	26.817	0	329.860	0	71.8	4	22.9	4	-1E+10	1	-1E+10	1	-1E+10	1	-1E+10	1	-1E+10	1	-1E+10	1
4902549	116	C	10/31/2023	11:50	-133.051	47.365	0	333.80	0	4.5390	0	33.8520	0	26.819	0	330.751	0	71.5	4	22.8	4	-1E+10	1	-1E+10	1	-1E+10	1	-1E+10	1	-1E+10	1	-1E+10	1
4902549	116	C	10/31/2023	11:50	-133.051	47.365	0	334.60	0	4.5400	0	33.8540	0	26.821	0	331.543	0	71.2	4	22.7	4	-1E+10	1	-1E+10	1	-1E+10	1	-1E+10	1	-1E+10	1	-1E+10	1
4902549	116	C	10/31/2023	11:50	-133.051	47.365	0	335.90	0	4.5410	0	33.8550	0	26.821	0	332.830	0	70.8	4	22.6	4	-1E+10	1	-1E+10	1	-1E+10	1	-1E+10	1	-1E+10	1	-1E+10	1
4902549	116	C	10/31/2023	11:50	-133.051	47.365	0	337.20	0	4.5360	0	33.8570	0	26.823	0	334.117	0	70.3	4	22.4	4	-1E+10	1	-1E+10	1	-1E+10	1	-1E+10	1	-1E+10	1	-1E+10	1
4902549	116	C	10/31/2023	11:50	-133.051	47.365	0	338.10	0	4.5320	0	33.8570	0	26.824	0	335.008	0	70.0	4	22.3	4	-1E+10	1	-1E+10	1	-1E+10	1	-1E+10	1	-1E+10	1	-1E+10	1
4902549	116	C	10/31/2023	11:50	-133.051	47.365	0	338.90	0	4.5210	0	33.8630	0	26.830	0	335.800	0	69.7	4	22.2	4	-1E+10	1	-1E+10	1	-1E+10	1	-1E+10	1	-1E+10	1	-1E+10	1
4902549	116	C	10/31/2023	11:50	-133.051	47.365	0	339.80	0	4.5180	0	33.8640	0	26.831	0	336.691	0	69.5	4	22.2	4	-1E+10	1	-1E+10	1	-1E+10	1	-1E+10	1	-1E+10	1	-1E+10	1
4902549	116	C	10/31/2023	11:50	-133.051	47.365	0	340.70	0	4.5140	0	33.8650	0	26.832	0	337.582	0	69.3	4	22.1	4	-1E+10	1	-1E+10	1	-1E+10	1	-1E+10	1	-1E+10	1	-1E+10	1
4902549	116	C	10/31/2023	11:50	-133.051	47.365	0	342.00	0	4.5120	0	33.8650	0	26.832	0	338.869	0	69.0	4	22.0	4	-1E+10	1	-1E+10	1	-1E+10	1	-1E+10	1	-1E+10	1	-1E+10	1
4902549	116	C	10/31/2023	11:50	-133.051	47.365	0	343.30	0	4.5100	0	33.8660	0	26.833	0	340.157	0	68.6	4	21.9	4	-1E+10	1	-1E+10	1	-1E+10	1	-1E+10	1	-1E+10	1	-1E+10	1
4902549	116	C	10/31/2023	11:50	-133.051	47.365	0	344.20	0	4.5090	0	33.8660	0	26.834	0	341.048	0	68.4	4	21.8	4	-1E+10	1	-1E+10	1	-1E+10	1	-1E+10	1	-1E+10	1	-1E+10	1
4902549	116	C	10/31/2023	11:50	-133.051	47.365	0	345.10	0	4.5080	0	33.8660	0	26.834	0	341.939	0	68.1	4	21.7	4	-1E+10	1	-1E+10	1	-1E+10	1	-1E+10	1	-1E+10	1	-1E+10	1
4902549	116	C	10/31/2023	11:50	-133.051	47.365	0	346.00	0	4.5050	0	33.8670	0	26.835	0	342.830	0	67.8	4	21.6	4	-1E+10	1	-1E+10	1	-1E+10	1	-1E+10	1	-1E+10	1	-1E+10	1
4902549	116	C	10/31/2023	11:50	-133.051	47.365	0	346.90	0	4.5010	0	33.8680	0	26.836	0	343.721	0	67.5	4	21.5	4	-1E+10	1	-1E+10	1	-1E+10	1	-1E+10	1	-1E+10	1	-1E+10	1
4902549	116	C	10/31/2023	11:50	-133.051	47.365	0	347.80	0	4.4990	0	33.8690	0	26.837	0	344.612	0	67.1	4	21.4	4	-1E+10	1	-1E+10	1	-1E+10	1	-1E+10	1	-1E+10	1	-1E+10	1
4902549	116	C	10/31/2023	11:50	-133.051	47.365	0	348.80	0	4.4970	0	33.8690	0	26.837	0	345.602	0	66.8	4	21.3	4	-1E+10	1	-1E+10	1	-1E+10	1	-1E+10	1	-1E+10	1	-1E+10	1
4902549	116	C	10/31/2023	11:50	-133.051	47.365	0	349.70	0	4.4960	0	33.8690	0	26.837	0	346.493	0	66.4	4	21.2	4	-1E+10	1	-1E+10	1	-1E+10	1	-1E+10	1	-1E+10	1	-1E+10	1
4902549	116	C	10/31/2023	11:50	-133.051	47.365	0	352.90	0	4.4830	0	33.8780	0	26.846	0	349.661	0	65.3	4	20.8	4	-1E+10	1	-1E+10	1	-1E+10	1	-1E+10	1	-1E+10	1	-1E+10	1
4902549	116	C	10/31/2023	11:50	-133.051	47.365	0	358.00	0	4.4610	0	33.8850	0	26.854	0	354.709	0	63.7	4	20.3	4	-1E+10	1	-1E+10	1	-1E+10	1	-1E+10	1	-1E+10	1	-1E+10	1
4902549	116	C	10/31/2023	11:50	-133.051	47.365	0	362.90	0	4.4460	0	33.8890	0	26.859	0	359.560	0	62.5	4	19.9	4	-1E+10	1	-1E+10	1	-1E+10	1	-1E+10	1	-1E+10	1	-1E+10	1
4902549	116	C	10/31/2023	11:50	-133.051	47.365	0	367.80	0	4.4290	0	33.8930	0	26.864	0	364.411	0	60.9	4	19.4	4	-1E+10	1	-1E+10	1	-1E+10	1	-1E+10	1	-1E+10	1	-1E+10	1
4902549	116	C	10/31/2023	11:50	-133.051	47.365	0	372.80	0	4.4090	0	33.9000	0	26.871	0	369.360	0	59.4	4	18.9	4	-1E+10	1	-1E+10	1	-1E+10	1	-1E+10	1	-1E+10	1	-1E+10	1
4902549	116	C	10/31/2023	11:50	-133.051	47.365	0	377.80	0	4.3940	0	33.9060	0	26.878	0	374.309	0	58.2	4	18.5	4	-1E+10	1	-1E+10	1	-1E+10	1	-1E+10	1	-1E+10	1	-1E+10	1
4902549	116	C	10/31/2023	11:50	-133.051	47.365	0	382.80	0	4.3770	0	33.9110	0	26.884	0	379.259	0	56.7	4	18.0	4	-1E+10	1	-1E+10	1	-1E+10	1	-1E+10	1	-1E+10	1	-1E+10	1
4902549	116	C	10/31/2023	11:50	-133.051	47.365	0	387.80	0	4.3830	0	33.9190	0	26.889	0	384.208	0	55.2	4	17.6	4	-1E+10	1	-1E+10	1	-1E+10	1	-1E+10	1	-1E+10	1	-1E+10	1
4902549	116	C	10/31/2023	11:50	-133.051	47.365	0	392.90	0	4.3670	0	33.9290	0	26.899	0	389.256	0	53.7	4	17.1	4	-1E+10	1	-1E+10	1	-1E+10	1	-1E+10	1	-1E+10	1	-1E+10	1
4902549	116	C	10/31/2023	11:50	-133.051	47.365	0	398.00	0	4.3410	0	33.9330	0	26.905	0	394.304	0	52.6	4	16.7	4	-1E+10	1	-1E+10	1	-1E+10	1	-1E+10	1	-1E+10	1	-1E+10	1
4902549	116	C	10/31/2023	11:50	-133.051	47.365	0	403.20	0	4.3240	0	33.9360	0	26.909	0	399.450	0	51.4	4	16.3	4	-1E+10	1	-1E+10	1	-1E+10	1	-1E+10	1	-1E+10	1	-1E+10	1
4902549	116	C	10/31/2023	11:50	-133.051	47.365	0	408.30	0	4.3110	0	33.9430	0	26.916	0	404.498	0	50.4	4	16.0	4	-1E+10	1	-1E+10	1	-1E+10	1	-1E+10	1	-1E+10	1	-1E+10	1
4902549	116	C	10/31/2023	11:50	-133.051	47.365	0	412.90	0	4.2980	0	33.9470	0	26.921	0	409.051	0	49.5	4	15.7	4	-1E+10	1	-1E+10	1	-1E+10	1	-1E+10	1	-1E+10	1	-1E+10	1
4902549	116	C	10/31/2023	11:50	-133.051	47.365	0	417.50	0	4.2870	0	33.9500	0	26.924	0	413.603	0	48.7	4	15.4	4	-1E+10	1	-1E+10	1	-1E+10	1	-1E+10	1	-1E+10	1	-1E+10	1
4902549	116	C	10/31/2023	11:50	-133.051	47.365	0	422.60	0	4.2830	0	33.9530	0	26.927	0	418.650	0	47.5	4	15.1	4	-1E+10	1	-1E+10	1	-1E+10	1	-1E+10	1	-1E+10	1	-1E+10	1
4902549	116	C	10/31/2023	11:50	-133.051	47.365	0	427.80	0	4.2620	0	33.9580	0	26.933	0	423.796	0	46.2	4	14.6	4	-1E+10	1	-1E+10	1	-1E+10	1	-1E+10	1	-1E+10	1	-1E+10	1
4902549	116	C	10/31/2023	11:50	-133.051	47.365	0	432.80	0	4.2470	0	33.9640	0	26.940	0	428.745	0	45.0	4	14.3	4	-1E+10	1	-1E+10	1	-1E+10	1	-1E+10	1	-1E+10	1	-1E+10	1
4902549	116	C	10/31/2023	11:50	-133.051	47.365	0	437.90	0	4.2370	0	33.9710	0	26.946	0	433.791	0	44.0	4	14.0	4	-1E+10	1	-1E+10	1	-1E+10	1	-1E+10	1	-1E+10	1	-1E+10	1
4902549	116	C	10/31/2023	11:50	-133.051	47.365	0	442.90	0	4.2270	0	33.9730	0	26.949	0	438.739	0	43.0	4	13.6	4	-1E+10	1	-1E+10	1	-1E+10	1	-1E+10	1	-1E+10	1	-1E+10	1
4902549	116	C	10/31/2023	11:50	-133.051	47.365	0	447.90	0	4.2120	0	33.9800	0	26.956	0	443.687	0	42.1	4	13.3	4	-1E+10	1	-1E+10	1	-1E+10	1	-1E+10	1	-1E+10	1	-1E+10	1
4902549	116	C	10/31/2023	11:50	-133.051	47.365	0	453.00	0	4.2050	0	33.9840	0	26.960	0	448.733	0	41.2	4	13.1	4	-1E+10	1	-1E+10	1	-1E+10	1	-1E+10	1	-1E+10	1	-1E+10	1
4902549	116	C	10/31/2023	11:50	-133.051	47.365	0	458.20	0	4.1960	0	33.9910	0	26.967	0	453.879	0	40.6	4	12.8	4	-1E+10	1	-1E+10	1	-1E+10	1	-1E+10	1	-1E+10	1	-1E+10	1
4902549	116	C	10/31/2023	11:50	-133.051	47.365	0	462.80	0	4.1980	0	33.9930	0	26.968	0	458.430	0	40.0	4	12.7	4	-1E+10	1	-1E+10	1	-1E+10	1	-1E+10	1	-1E+10	1	-1E+10	1
4902549	116	C	10/31/2023	11:50	-133.051	47.365	0	467.90	0	4.1910	0	33.9990	0	26.974	0	463.476	0	39.3	4	12.4	4	-1E+10	1	-1E+10	1	-1E+10	1	-1E+10	1	-1E+10	1	-1E+10	1
4902549	116	C	10/31/2023	11:50	-133.051	47.365	0	473.00	0	4.1840	0	34.0020	0	26.977	0	468.523	0	38.6	4	12.2	4	-1E+10	1	-1E+10	1	-1E+10	1	-1E+10	1	-1E+10	1	-1E+10	1
4902549	116	C	10/31/2023	11:50	-133.051	47.365	0	477.90	0	4.1730	0	34.0080	0	26.983	0	473.371	0	37.8	4	12.0	4	-1E+10	1	-1E+10	1	-1E+10	1	-1E+10	1	-1E+10	1	-1E+10	1
4902549	116	C	10/31/2023	11:50	-133.051	47.365	0	483.00	0	4.1710	0	34.0140	0	26.988	0	478.416	0	37.1	4	11.7	4	-1E+10	1	-1E+10	1	-1E+10	1	-1E+10	1	-1E+10	1	-1E+10	1
4902549	116	C	10/31/2023	11:50	-133.051	47.365	0	488.10	0	4.1700	0	34.0190	0	26.992	0	483.462	0	36.1	4	11.4	4	-1E+10	1	-1E+10	1	-1E+10	1	-1E+10	1	-1E+10	1	-1E+10	1
4902549	116	C	10/31/2023	11:50	-133.051	47.365	0	492.80	0	4.1640	0	34.0250	0	26.997	0	488.112	0	35.3	4	11.2	4	-1E+10	1	-1E+10	1	-1E+10	1	-1E+10	1	-1E+10	1	-1E+10	1
4902549	116	C	10/31/2023	11:50	-133.051	47.365	0	497.60	0	4.1600	0	34.0280	0	27.000	0	492.860	0	34.6	4	10.9	4	-1E+10	1	-1E+10	1	-1E+10	1	-1E+10	1	-1E+10	1	-1E+10	1
4902549	116	C	10/31/2023	11:50	-133.051	47.365	0	503.00	0	4.1480	0	34.0360	0	27.008	0	498.203	0	33.6	4	10.6	4	-1E+10	1	-1E+10	1	-1E+10	1	-1E+10	1	-1E+10	1	-1E+10	1
4902549	116	C	10/31/2023	11:50	-133.051	47.365	0	508.00	0	4.1350	0	34.0430	0	27.015	0	503.149	0	32.7	4	10.3	4	-1E+10	1	-1E+10	1	-1E+10	1	-1E+10	1	-1E+10	1	-1E+10	1
4902549	116	C	10/31/2023	11:50	-133.051	47.365	0	512.70	0	4.1250	0	34.0470	0	27.019	0	507.798	0	32.0	4	10.1	4	-1E+10	1	-1E+10	1	-1E+10	1	-1E+10	1	-1E+10	1	-1E+10	1
4902549	116	C	10/31/2023	11:50	-133.051	47.365	0	517.90	0	4.1130	0	34.0530	0	27.025	0	512.942	0	31.3	4	9.9	4	-1E+10	1	-1E+10	1	-1E+10	1	-1E+10	1	-1E+10	1	-1E+10	1
4902549	116	C	10/31/2023	11:50	-133.051	47.365	0	523.30	0	4.1010	0	34.0580	0	27.030	0	518.284	0	30.7	4	9.7	4	-1E+10	1	-1E+10	1	-1E+10	1	-1E+10	1	-1E+10	1	-1E+10	1
4902549	116	C	10/31/2023	11:50	-133.051	47.365	0	528.20	0	4.0970	0	34.0600	0	27.032	0	523.131	0	30.2	4	9.5	4	-1E+10	1	-1E+10	1	-1E+10	1	-1E+10	1	-1E+10	1	-1E+10	1
4902549	116	C	10/31/2023	11:50	-133.051	47.365	0	533.20	0	4.0880	0	34.0640	0	27.037	0	528.076	0	29.7	4	9.4	4	-1E+10	1	-1E+10	1	-1E+10	1	-1E+10	1	-1E+10	1	-1E+10	1
4902549	116	C	10/31/2023	11:50	-133.051	47.365	0	538.10	0	4.0800	0	34.0680	0	27.041	0	532.923	0	29.1	4	9.2	4	-1E+10	1	-1E+10	1	-1E+10	1	-1E+10	1	-1E+10	1	-1E+10	1
4902549	116	C	10/31/2023	11:50	-133.051	47.365	0	543.10	0	4.0720	0	34.0720	0	27.045	0	537.868	0	28.4	4	9.0	4	-1E+10	1	-1E+10	1	-1E+10	1	-1E+10	1	-1E+10	1	-1E+10	1
4902549	116	C	10/31/2023	11:50	-133.051	47.365	0	548.00	0	4.0600	0	34.0780	0	27.051	0	542.715	0	27.7	4	8.8	4	-1E+10	1	-1E+10	1	-1E+10	1	-1E+10	1	-1E+10	1	-1E+10	1
4902549	116	C	10/31/2023	11:50	-133.051	47.365	0	553.00	0	4.0520	0	34.0830	0	27.056	0	547.660	0	27.2	4	8.6	4	-1E+10	1	-1E+10	1	-1E+10	1	-1E+10	1	-1E+10	1	-1E+10	1
4902549	116	C	10/31/2023	11:50	-133.051	47.365	0	557.90	0	4.0430	0	34.0880	0	27.060	0	552.506	0	26.6	4	8.4	4	-1E+10	1	-1E+10	1	-1E+10	1	-1E+10	1	-1E+10	1	-1E+10	1
4902549	116	C	10/31/2023	11:50	-133.051	47.365	0	562.80	0	4.0370	0	34.0910	0	27.064	0	557.352	0	26.0	4	8.2	4	-1E+10	1	-1E+10	1	-1E+10	1	-1E+10	1	-1E+10	1	-1E+10	1
4902549	116	C	10/31/2023	11:50	-133.051	47.365	0	567.70	0	4.0250	0	34.0980	0	27.070	0	562.198	0	25.4	4	8.0	4	-1E+10	1	-1E+10	1	-1E+10	1	-1E+10	1	-1E+10	1	-1E+10	1
4902549	116	C	10/31/2023	11:50	-133.051	47.365	0	572.60	0	4.0190	0	34.1010	0	27.073	0	567.044	0	24.6	4	7.8	4	-1E+10	1	-1E+10	1	-1E+10	1	-1E+10	1	-1E+10	1	-1E+10	1
4902549	116	C	10/31/2023	11:50	-133.051	47.365	0	577.90	0	4.0100	0	34.1080	0	27.080	0	572.285	0	23.6	4	7.5	4	-1E+10	1	-1E+10	1	-1E+10	1	-1E+10	1	-1E+10	1	-1E+10	1
4902549	116	C	10/31/2023	11:50	-133.051	47.365	0	583.20	0	3.9930	0	34.1160	0	27.088	0	577.526	0	22.9	4	7.2	4	-1E+10	1	-1E+10	1	-1E+10	1	-1E+10	1	-1E+10	1	-1E+10	1
4902549	116	C	10/31/2023	11:50	-133.051	47.365	0	588.10	0	3.9840	0	34.1200	0	27.092	0	582.372	0	22.3	4	7.0	4	-1E+10	1	-1E+10	1	-1E+10	1	-1E+10	1	-1E+10	1	-1E+10	1
4902549	116	C	10/31/2023	11:50	-133.051	47.365	0	592.90	0	3.9740	0	34.1240	0	27.096	0	587.118	0	21.7	4	6.8	4	-1E+10	1	-1E+10	1	-1E+10	1	-1E+10	1	-1E+10	1	-1E+10	1
4902549	116	C	10/31/2023	11:50	-133.051	47.365	0	597.70	0	3.9660	0	34.1270	0	27.100	0	591.865	0	20.9	4	6.6	4	-1E+10	1	-1E+10	1	-1E+10	1	-1E+10	1	-1E+10	1	-1E+10	1
4902549	116	C	10/31/2023	11:50	-133.051	47.365	0	602.90	0	3.9570	0	34.1320	0	27.105	0	597.006	0	19.7	4	6.2	4	-1E+10	1	-1E+10	1	-1E+10	1	-1E+10	1	-1E+10	1	-1E+10	1
4902549	116	C	10/31/2023	11:50	-133.051	47.365	0	608.00	0	3.9530	0	34.1380	0	27.110	0	602.049	0	18.5	4	5.8	4	-1E+10	1	-1E+10	1	-1E+10	1	-1E+10	1	-1E+10	1	-1E+10	1
4902549	116	C	10/31/2023	11:50	-133.051	47.365	0	612.70	0	3.9430	0	34.1420	0	27.114	0	606.696	0	18.0	4	5.7	4	-1E+10	1	-1E+10	1	-1E+10	1	-1E+10	1	-1E+10	1	-1E+10	1
4902549	116	C	10/31/2023	11:50	-133.051	47.365	0	617.70	0	3.9250	0	34.1470	0	27.120	0	611.640	0	17.6	4	5.5	4	-1E+10	1	-1E+10	1	-1E+10	1	-1E+10	1	-1E+10	1	-1E+10	1
4902549	116	C	10/31/2023	11:50	-133.051	47.365	0	622.80	0	3.9130	0	34.1510	0	27.124	0	616.682	0	17.3	4	5.4	4	-1E+10	1	-1E+10	1	-1E+10	1	-1E+10	1	-1E+10	1	-1E+10	1
4902549	116	C	10/31/2023	11:50	-133.051	47.365	0	627.70	0	3.8960	0	34.1550	0	27.129	0	621.527	0	17.0	4	5.3	4	-1E+10	1	-1E+10	1	-1E+10	1	-1E+10	1	-1E+10	1	-1E+10	1
4902549	116	C	10/31/2023	11:50	-133.051	47.365	0	632.80	0	3.8760	0	34.1600	0	27.135	0	626.569	0	16.7	4	5.3	4	-1E+10	1	-1E+10	1	-1E+10	1	-1E+10	1	-1E+10	1	-1E+10	1
4902549	116	C	10/31/2023	11:50	-133.051	47.365	0	637.60	0	3.8620	0	34.1630	0	27.139	0	631.315	0	16.4	4	5.2	4	-1E+10	1	-1E+10	1	-1E+10	1	-1E+10	1	-1E+10	1	-1E+10	1
4902549	116	C	10/31/2023	11:50	-133.051	47.365	0	642.70	0	3.8440	0	34.1680	0	27.145	0	636.357	0	16.2	4	5.1	4	-1E+10	1	-1E+10	1	-1E+10	1	-1E+10	1	-1E+10	1	-1E+10	1
4902549	116	C	10/31/2023	11:50	-133.051	47.365	0	647.80	0	3.8330	0	34.1710	0	27.148	0	641.398	0	15.9	4	5.0	4	-1E+10	1	-1E+10	1	-1E+10	1	-1E+10	1	-1E+10	1	-1E+10	1
4902549	116	C	10/31/2023	11:50	-133.051	47.365	0	653.00	0	3.8210	0	34.1740	0	27.152	0	646.539	0	15.5	4	4.9	4	-1E+10	1	-1E+10	1	-1E+10	1	-1E+10	1	-1E+10	1	-1E+10	1
4902549	116	C	10/31/2023	11:50	-133.051	47.365	0	657.80	0	3.8030	0	34.1810	0	27.159	0	651.284	0	15.1	4	4.8	4	-1E+10	1	-1E+10	1	-1E+10	1	-1E+10	1	-1E+10	1	-1E+10	1
4902549	116	C	10/31/2023	11:50	-133.051	47.365	0	662.70	0	3.7890	0	34.1860	0	27.165	0	656.128	0	14.8	4	4.7	4	-1E+10	1	-1E+10	1	-1E+10	1	-1E+10	1	-1E+10	1	-1E+10	1
4902549	116	C	10/31/2023	11:50	-133.051	47.365	0	667.60	0	3.7830	0	34.1890	0	27.168	0	660.971	0	14.6	4	4.6	4	-1E+10	1	-1E+10	1	-1E+10	1	-1E+10	1	-1E+10	1	-1E+10	1
4902549	116	C	10/31/2023	11:50	-133.051	47.365	0	672.70	0	3.7790	0	34.1920	0	27.171	0	666.013	0	14.2	4	4.5	4	-1E+10	1	-1E+10	1	-1E+10	1	-1E+10	1	-1E+10	1	-1E+10	1
4902549	116	C	10/31/2023	11:50	-133.051	47.365	0	678.20	0	3.7720	0	34.1960	0	27.175	0	671.449	0	13.9	4	4.4	4	-1E+10	1	-1E+10	1	-1E+10	1	-1E+10	1	-1E+10	1	-1E+10	1
4902549	116	C	10/31/2023	11:50	-133.051	47.365	0	683.10	0	3.7660	0	34.2000	0	27.178	0	676.292	0	13.4	4	4.2	4	-1E+10	1	-1E+10	1	-1E+10	1	-1E+10	1	-1E+10	1	-1E+10	1
4902549	116	C	10/31/2023	11:50	-133.051	47.365	0	688.00	0	3.7580	0	34.2040	0	27.182	0	681.135	0	13.0	4	4.1	4	-1E+10	1	-1E+10	1	-1E+10	1	-1E+10	1	-1E+10	1	-1E+10	1
4902549	116	C	10/31/2023	11:50	-133.051	47.365	0	692.80	0	3.7500	0	34.2080	0	27.186	0	685.880	0	12.7	4	4.0	4	-1E+10	1	-1E+10	1	-1E+10	1	-1E+10	1	-1E+10	1	-1E+10	1
4902549	116	C	10/31/2023	11:50	-133.051	47.365	0	697.80	0	3.7430	0	34.2120	0	27.190	0	690.821	0	12.2	4	3.8	4	-1E+10	1	-1E+10	1	-1E+10	1	-1E+10	1	-1E+10	1	-1E+10	1
4902549	116	C	10/31/2023	11:50	-133.051	47.365	0	702.90	0	3.7350	0	34.2150	0	27.194	0	695.862	0	11.7	4	3.7	4	-1E+10	1	-1E+10	1	-1E+10	1	-1E+10	1	-1E+10	1	-1E+10	1
4902549	116	C	10/31/2023	11:50	-133.051	47.365	0	708.10	0	3.7220	0	34.2210	0	27.200	0	701.001	0	10.9	4	3.4	4	-1E+10	1	-1E+10	1	-1E+10	1	-1E+10	1	-1E+10	1	-1E+10	1
4902549	116	C	10/31/2023	11:50	-133.051	47.365	0	713.00	0	3.7130	0	34.2280	0	27.206	0	705.844	0	10.6	4	3.3	4	-1E+10	1	-1E+10	1	-1E+10	1	-1E+10	1	-1E+10	1	-1E+10	1
4902549	116	C	10/31/2023	11:50	-133.051	47.365	0	717.90	0	3.7030	0	34.2310	0	27.210	0	710.686	0	10.2	4	3.2	4	-1E+10	1	-1E+10	1	-1E+10	1	-1E+10	1	-1E+10	1	-1E+10	1
4902549	116	C	10/31/2023	11:50	-133.051	47.365	0	723.00	0	3.6950	0	34.2350	0	27.214	0	715.726	0	10.0	4	3.1	4	-1E+10	1	-1E+10	1	-1E+10	1	-1E+10	1	-1E+10	1	-1E+10	1
4902549	116	C	10/31/2023	11:50	-133.051	47.365	0	727.60	0	3.6850	0	34.2390	0	27.218	0	720.272	0	9.8	4	3.1	4	-1E+10	1	-1E+10	1	-1E+10	1	-1E+10	1	-1E+10	1	-1E+10	1
4902549	116	C	10/31/2023	11:50	-133.051	47.365	0	732.80	0	3.6700	0	34.2420	0	27.222	0	725.411	0	9.5	4	3.0	4	-1E+10	1	-1E+10	1	-1E+10	1	-1E+10	1	-1E+10	1	-1E+10	1
4902549	116	C	10/31/2023	11:50	-133.051	47.365	0	738.20	0	3.6540	0	34.2470	0	27.227	0	730.747	0	9.3	4	2.9	4	-1E+10	1	-1E+10	1	-1E+10	1	-1E+10	1	-1E+10	1	-1E+10	1
4902549	116	C	10/31/2023	11:50	-133.051	47.365	0	743.10	0	3.6470	0	34.2490	0	27.230	0	735.589	0	9.1	4	2.9	4	-1E+10	1	-1E+10	1	-1E+10	1	-1E+10	1	-1E+10	1	-1E+10	1
4902549	116	C	10/31/2023	11:50	-133.051	47.365	0	748.10	0	3.6420	0	34.2520	0	27.232	0	740.529	0	8.9	4	2.8	4	-1E+10	1	-1E+10	1	-1E+10	1	-1E+10	1	-1E+10	1	-1E+10	1
4902549	116	C	10/31/2023	11:50	-133.051	47.365	0	753.10	0	3.6320	0	34.2550	0	27.236	0	745.470	0	8.8	4	2.8	4	-1E+10	1	-1E+10	1	-1E+10	1	-1E+10	1	-1E+10	1	-1E+10	1
4902549	116	C	10/31/2023	11:50	-133.051	47.365	0	758.10	0	3.6160	0	34.2580	0	27.240	0	750.410	0	8.6	4	2.7	4	-1E+10	1	-1E+10	1	-1E+10	1	-1E+10	1	-1E+10	1	-1E+10	1
4902549	116	C	10/31/2023	11:50	-133.051	47.365	0	763.20	0	3.6060	0	34.2610	0	27.243	0	755.449	0	8.4	4	2.6	4	-1E+10	1	-1E+10	1	-1E+10	1	-1E+10	1	-1E+10	1	-1E+10	1
4902549	116	C	10/31/2023	11:50	-133.051	47.365	0	767.90	0	3.5980	0	34.2630	0	27.246	0	760.093	0	8.3	4	2.6	4	-1E+10	1	-1E+10	1	-1E+10	1	-1E+10	1	-1E+10	1	-1E+10	1
4902549	116	C	10/31/2023	11:50	-133.051	47.365	0	772.60	0	3.5860	0	34.2670	0	27.250	0	764.736	0	8.1	4	2.5	4	-1E+10	1	-1E+10	1	-1E+10	1	-1E+10	1	-1E+10	1	-1E+10	1
4902549	116	C	10/31/2023	11:50	-133.051	47.365	0	777.90	0	3.5790	0	34.2690	0	27.252	0	769.973	0	7.9	4	2.5	4	-1E+10	1	-1E+10	1	-1E+10	1	-1E+10	1	-1E+10	1	-1E+10	1
4902549	116	C	10/31/2023	11:50	-133.051	47.365	0	783.20	0	3.5710	0	34.2740	0	27.257	0	775.209	0	7.7	4	2.4	4	-1E+10	1	-1E+10	1	-1E+10	1	-1E+10	1	-1E+10	1	-1E+10	1
4902549	116	C	10/31/2023	11:50	-133.051	47.365	0	788.00	0	3.5620	0	34.2790	0	27.262	0	779.951	0	7.6	4	2.4	4	-1E+10	1	-1E+10	1	-1E+10	1	-1E+10	1	-1E+10	1	-1E+10	1
4902549	116	C	10/31/2023	11:50	-133.051	47.365	0	792.70	0	3.5590	0	34.2810	0	27.264	0	784.594	0	7.5	4	2.3	4	-1E+10	1	-1E+10	1	-1E+10	1	-1E+10	1	-1E+10	1	-1E+10	1
4902549	116	C	10/31/2023	11:50	-133.051	47.365	0	798.00	0	3.5520	0	34.2840	0	27.267	0	789.830	0	7.3	4	2.3	4	-1E+10	1	-1E+10	1	-1E+10	1	-1E+10	1	-1E+10	1	-1E+10	1
4902549	116	C	10/31/2023	11:50	-133.051	47.365	0	802.80	0	3.5480	0	34.2880	0	27.271	0	794.572	0	7.2	4	2.2	4	-1E+10	1	-1E+10	1	-1E+10	1	-1E+10	1	-1E+10	1	-1E+10	1
4902549	116	C	10/31/2023	11:50	-133.051	47.365	0	807.70	0	3.5450	0	34.2900	0	27.273	0	799.412	0	7.0	4	2.2	4	-1E+10	1	-1E+10	1	-1E+10	1	-1E+10	1	-1E+10	1	-1E+10	1
4902549	116	C	10/31/2023	11:50	-133.051	47.365	0	813.10	0	3.5460	0	34.2940	0	27.276	0	804.746	0	6.8	4	2.1	4	-1E+10	1	-1E+10	1	-1E+10	1	-1E+10	1	-1E+10	1	-1E+10	1
4902549	116	C	10/31/2023	11:50	-133.051	47.365	0	817.90	0	3.5520	0	34.2970	0	27.278	0	809.488	0	6.7	4	2.1	4	-1E+10	1	-1E+10	1	-1E+10	1	-1E+10	1	-1E+10	1	-1E+10	1
4902549	116	C	10/31/2023	11:50	-133.051	47.365	0	822.80	0	3.5460	0	34.2990	0	27.280	0	814.328	0	6.7	4	2.1	4	-1E+10	1	-1E+10	1	-1E+10	1	-1E+10	1	-1E+10	1	-1E+10	1
4902549	116	C	10/31/2023	11:50	-133.051	47.365	0	828.20	0	3.5370	0	34.3010	0	27.282	0	819.661	0	6.7	4	2.1	4	-1E+10	1	-1E+10	1	-1E+10	1	-1E+10	1	-1E+10	1	-1E+10	1
4902549	116	C	10/31/2023	11:50	-133.051	47.365	0	833.10	0	3.5300	0	34.3030	0	27.285	0	824.501	0	6.7	4	2.1	4	-1E+10	1	-1E+10	1	-1E+10	1	-1E+10	1	-1E+10	1	-1E+10	1
4902549	116	C	10/31/2023	11:50	-133.051	47.365	0	837.90	0	3.5160	0	34.3060	0	27.288	0	829.242	0	6.7	4	2.1	4	-1E+10	1	-1E+10	1	-1E+10	1	-1E+10	1	-1E+10	1	-1E+10	1
4902549	116	C	10/31/2023	11:50	-133.051	47.365	0	842.70	0	3.5110	0	34.3090	0	27.291	0	833.983	0	6.7	4	2.1	4	-1E+10	1	-1E+10	1	-1E+10	1	-1E+10	1	-1E+10	1	-1E+10	1
4902549	116	C	10/31/2023	11:50	-133.051	47.365	0	847.60	0	3.5010	0	34.3100	0	27.293	0	838.822	0	6.7	4	2.1	4	-1E+10	1	-1E+10	1	-1E+10	1	-1E+10	1	-1E+10	1	-1E+10	1
4902549	116	C	10/31/2023	11:50	-133.051	47.365	0	852.90	0	3.4860	0	34.3130	0	27.297	0	844.057	0	6.7	4	2.1	4	-1E+10	1	-1E+10	1	-1E+10	1	-1E+10	1	-1E+10	1	-1E+10	1
4902549	116	C	10/31/2023	11:50	-133.051	47.365	0	858.20	0	3.4720	0	34.3140	0	27.299	0	849.291	0	6.8	4	2.1	4	-1E+10	1	-1E+10	1	-1E+10	1	-1E+10	1	-1E+10	1	-1E+10	1
4902549	116	C	10/31/2023	11:50	-133.051	47.365	0	863.00	0	3.4570	0	34.3160	0	27.302	0	854.032	0	6.8	4	2.1	4	-1E+10	1	-1E+10	1	-1E+10	1	-1E+10	1	-1E+10	1	-1E+10	1
4902549	116	C	10/31/2023	11:50	-133.051	47.365	0	868.10	0	3.4490	0	34.3180	0	27.305	0	859.068	0	6.8	4	2.1	4	-1E+10	1	-1E+10	1	-1E+10	1	-1E+10	1	-1E+10	1	-1E+10	1
4902549	116	C	10/31/2023	11:50	-133.051	47.365	0	873.10	0	3.4340	0	34.3210	0	27.308	0	864.006	0	6.9	4	2.2	4	-1E+10	1	-1E+10	1	-1E+10	1	-1E+10	1	-1E+10	1	-1E+10	1
4902549	116	C	10/31/2023	11:50	-133.051	47.365	0	877.80	0	3.4080	0	34.3210	0	27.311	0	868.647	0	7.1	4	2.2	4	-1E+10	1	-1E+10	1	-1E+10	1	-1E+10	1	-1E+10	1	-1E+10	1
4902549	116	C	10/31/2023	11:50	-133.051	47.365	0	882.70	0	3.3850	0	34.3230	0	27.315	0	873.486	0	7.1	4	2.2	4	-1E+10	1	-1E+10	1	-1E+10	1	-1E+10	1	-1E+10	1	-1E+10	1
4902549	116	C	10/31/2023	11:50	-133.051	47.365	0	887.50	0	3.3740	0	34.3240	0	27.317	0	878.226	0	7.3	4	2.3	4	-1E+10	1	-1E+10	1	-1E+10	1	-1E+10	1	-1E+10	1	-1E+10	1
4902549	116	C	10/31/2023	11:50	-133.051	47.365	0	892.90	0	3.3520	0	34.3230	0	27.318	0	883.558	0	7.4	4	2.3	4	-1E+10	1	-1E+10	1	-1E+10	1	-1E+10	1	-1E+10	1	-1E+10	1
4902549	116	C	10/31/2023	11:50	-133.051	47.365	0	898.30	0	3.3300	0	34.3250	0	27.322	0	888.890	0	7.5	4	2.3	4	-1E+10	1	-1E+10	1	-1E+10	1	-1E+10	1	-1E+10	1	-1E+10	1
4902549	116	C	10/31/2023	11:50	-133.051	47.365	0	902.90	0	3.3120	0	34.3260	0	27.324	0	893.432	0	7.5	4	2.3	4	-1E+10	1	-1E+10	1	-1E+10	1	-1E+10	1	-1E+10	1	-1E+10	1
4902549	116	C	10/31/2023	11:50	-133.051	47.365	0	907.60	0	3.3020	0	34.3260	0	27.325	0	898.072	0	7.5	4	2.3	4	-1E+10	1	-1E+10	1	-1E+10	1	-1E+10	1	-1E+10	1	-1E+10	1
4902549	116	C	10/31/2023	11:50	-133.051	47.365	0	912.80	0	3.2920	0	34.3280	0	27.328	0	903.207	0	7.5	4	2.3	4	-1E+10	1	-1E+10	1	-1E+10	1	-1E+10	1	-1E+10	1	-1E+10	1
4902549	116	C	10/31/2023	11:50	-133.051	47.365	0	918.00	0	3.2800	0	34.3290	0	27.330	0	908.341	0	7.5	4	2.3	4	-1E+10	1	-1E+10	1	-1E+10	1	-1E+10	1	-1E+10	1	-1E+10	1
4902549	116	C	10/31/2023	11:50	-133.051	47.365	0	922.90	0	3.2700	0	34.3300	0	27.331	0	913.178	0	7.6	4	2.3	4	-1E+10	1	-1E+10	1	-1E+10	1	-1E+10	1	-1E+10	1	-1E+10	1
4902549	116	C	10/31/2023	11:50	-133.051	47.365	0	927.80	0	3.2510	0	34.3320	0	27.335	0	918.016	0	7.6	4	2.4	4	-1E+10	1	-1E+10	1	-1E+10	1	-1E+10	1	-1E+10	1	-1E+10	1
4902549	116	C	10/31/2023	11:50	-133.051	47.365	0	932.70	0	3.2320	0	34.3340	0	27.338	0	922.854	0	7.6	4	2.4	4	-1E+10	1	-1E+10	1	-1E+10	1	-1E+10	1	-1E+10	1	-1E+10	1
4902549	116	C	10/31/2023	11:50	-133.051	47.365	0	937.70	0	3.2300	0	34.3340	0	27.338	0	927.790	0	7.5	4	2.3	4	-1E+10	1	-1E+10	1	-1E+10	1	-1E+10	1	-1E+10	1	-1E+10	1
4902549	116	C	10/31/2023	11:50	-133.051	47.365	0	942.90	0	3.2220	0	34.3370	0	27.341	0	932.923	0	7.5	4	2.3	4	-1E+10	1	-1E+10	1	-1E+10	1	-1E+10	1	-1E+10	1	-1E+10	1
4902549	116	C	10/31/2023	11:50	-133.051	47.365	0	947.70	0	3.2160	0	34.3380	0	27.343	0	937.662	0	7.5	4	2.3	4	-1E+10	1	-1E+10	1	-1E+10	1	-1E+10	1	-1E+10	1	-1E+10	1
4902549	116	C	10/31/2023	11:50	-133.051	47.365	0	952.50	0	3.2030	0	34.3390	0	27.345	0	942.400	0	7.6	4	2.3	4	-1E+10	1	-1E+10	1	-1E+10	1	-1E+10	1	-1E+10	1	-1E+10	1
4902549	116	C	10/31/2023	11:50	-133.051	47.365	0	957.50	0	3.1970	0	34.3410	0	27.347	0	947.336	0	7.6	4	2.3	4	-1E+10	1	-1E+10	1	-1E+10	1	-1E+10	1	-1E+10	1	-1E+10	1
4902549	116	C	10/31/2023	11:50	-133.051	47.365	0	962.50	0	3.1760	0	34.3420	0	27.350	0	952.271	0	7.6	4	2.3	4	-1E+10	1	-1E+10	1	-1E+10	1	-1E+10	1	-1E+10	1	-1E+10	1
4902549	116	C	10/31/2023	11:50	-133.051	47.365	0	967.50	0	3.1660	0	34.3430	0	27.352	0	957.207	0	7.5	4	2.3	4	-1E+10	1	-1E+10	1	-1E+10	1	-1E+10	1	-1E+10	1	-1E+10	1
4902549	116	C	10/31/2023	11:50	-133.051	47.365	0	972.60	0	3.1610	0	34.3440	0	27.353	0	962.241	0	7.4	4	2.3	4	-1E+10	1	-1E+10	1	-1E+10	1	-1E+10	1	-1E+10	1	-1E+10	1
4902549	116	C	10/31/2023	11:50	-133.051	47.365	0	977.90	0	3.1520	0	34.3470	0	27.356	0	967.472	0	7.3	4	2.2	4	-1E+10	1	-1E+10	1	-1E+10	1	-1E+10	1	-1E+10	1	-1E+10	1
4902549	116	C	10/31/2023	11:50	-133.051	47.365	0	982.90	0	3.1650	0	34.3510	0	27.358	0	972.407	0	7.1	4	2.2	4	-1E+10	1	-1E+10	1	-1E+10	1	-1E+10	1	-1E+10	1	-1E+10	1
4902549	116	C	10/31/2023	11:50	-133.051	47.365	0	987.70	0	3.1850	0	34.3570	0	27.361	0	977.145	0	7.1	4	2.2	4	-1E+10	1	-1E+10	1	-1E+10	1	-1E+10	1	-1E+10	1	-1E+10	1
4902549	116	C	10/31/2023	11:50	-133.051	47.365	0	992.60	0	3.1650	0	34.3580	0	27.364	0	981.981	0	7.0	4	2.2	4	-1E+10	1	-1E+10	1	-1E+10	1	-1E+10	1	-1E+10	1	-1E+10	1
4902549	116	C	10/31/2023	11:50	-133.051	47.365	0	997.60	0	3.1650	0	34.3600	0	27.365	0	986.916	0	7.1	4	2.2	4	-1E+10	1	-1E+10	1	-1E+10	1	-1E+10	1	-1E+10	1	-1E+10	1
4902549	116	C	10/31/2023	11:50	-133.051	47.365	0	1005.50	0	3.1430	0	34.3620	0	27.369	0	994.712	0	7.2	4	2.2	4	-1E+10	1	-1E+10	1	-1E+10	1	-1E+10	1	-1E+10	1	-1E+10	1
4902549	116	C	10/31/2023	11:50	-133.051	47.365	0	1015.80	0	3.0920	0	34.3610	0	27.373	0	1004.877	0	7.4	4	2.3	4	-1E+10	1	-1E+10	1	-1E+10	1	-1E+10	1	-1E+10	1	-1E+10	1
4902549	116	C	10/31/2023	11:50	-133.051	47.365	0	1025.70	0	3.0760	0	34.3630	0	27.376	0	1014.647	0	7.4	4	2.3	4	-1E+10	1	-1E+10	1	-1E+10	1	-1E+10	1	-1E+10	1	-1E+10	1
4902549	116	C	10/31/2023	11:50	-133.051	47.365	0	1035.50	0	3.0560	0	34.3650	0	27.380	0	1024.317	0	7.4	4	2.3	4	-1E+10	1	-1E+10	1	-1E+10	1	-1E+10	1	-1E+10	1	-1E+10	1
4902549	116	C	10/31/2023	11:50	-133.051	47.365	0	1045.40	0	3.0510	0	34.3710	0	27.385	0	1034.086	0	7.3	4	2.3	4	-1E+10	1	-1E+10	1	-1E+10	1	-1E+10	1	-1E+10	1	-1E+10	1
4902549	116	C	10/31/2023	11:50	-133.051	47.365	0	1055.30	0	3.0330	0	34.3750	0	27.390	0	1043.854	0	7.2	4	2.2	4	-1E+10	1	-1E+10	1	-1E+10	1	-1E+10	1	-1E+10	1	-1E+10	1
4902549	116	C	10/31/2023	11:50	-133.051	47.365	0	1065.20	0	3.0320	0	34.3850	0	27.398	0	1053.622	0	7.2	4	2.2	4	-1E+10	1	-1E+10	1	-1E+10	1	-1E+10	1	-1E+10	1	-1E+10	1
4902549	116	C	10/31/2023	11:50	-133.051	47.365	0	1075.30	0	3.0220	0	34.3900	0	27.403	0	1063.586	0	7.3	4	2.2	4	-1E+10	1	-1E+10	1	-1E+10	1	-1E+10	1	-1E+10	1	-1E+10	1
4902549	116	C	10/31/2023	11:50	-133.051	47.365	0	1085.40	0	3.0060	0	34.3930	0	27.407	0	1073.551	0	7.3	4	2.3	4	-1E+10	1	-1E+10	1	-1E+10	1	-1E+10	1	-1E+10	1	-1E+10	1
4902549	116	C	10/31/2023	11:50	-133.051	47.365	0	1095.60	0	2.9900	0	34.3960	0	27.411	0	1083.613	0	7.4	4	2.3	4	-1E+10	1	-1E+10	1	-1E+10	1	-1E+10	1	-1E+10	1	-1E+10	1
4902549	116	C	10/31/2023	11:50	-133.051	47.365	0	1105.50	0	2.9760	0	34.3990	0	27.414	0	1093.379	0	7.5	4	2.3	4	-1E+10	1	-1E+10	1	-1E+10	1	-1E+10	1	-1E+10	1	-1E+10	1
4902549	116	C	10/31/2023	11:50	-133.051	47.365	0	1115.40	0	2.9650	0	34.4020	0	27.418	0	1103.144	0	7.6	4	2.3	4	-1E+10	1	-1E+10	1	-1E+10	1	-1E+10	1	-1E+10	1	-1E+10	1
4902549	116	C	10/31/2023	11:50	-133.051	47.365	0	1125.30	0	2.9530	0	34.4040	0	27.421	0	1112.909	0	7.7	4	2.4	4	-1E+10	1	-1E+10	1	-1E+10	1	-1E+10	1	-1E+10	1	-1E+10	1
4902549	116	C	10/31/2023	11:50	-133.051	47.365	0	1135.10	0	2.9320	0	34.4090	0	27.426	0	1122.575	0	7.9	4	2.4	4	-1E+10	1	-1E+10	1	-1E+10	1	-1E+10	1	-1E+10	1	-1E+10	1
4902549	116	C	10/31/2023	11:50	-133.051	47.365	0	1145.40	0	2.9030	0	34.4120	0	27.432	0	1132.734	0	8.1	4	2.5	4	-1E+10	1	-1E+10	1	-1E+10	1	-1E+10	1	-1E+10	1	-1E+10	1
4902549	116	C	10/31/2023	11:50	-133.051	47.365	0	1155.70	0	2.8910	0	34.4170	0	27.437	0	1142.892	0	8.3	4	2.6	4	-1E+10	1	-1E+10	1	-1E+10	1	-1E+10	1	-1E+10	1	-1E+10	1
4902549	116	C	10/31/2023	11:50	-133.051	47.365	0	1165.50	0	2.8810	0	34.4210	0	27.441	0	1152.556	0	8.5	4	2.6	4	-1E+10	1	-1E+10	1	-1E+10	1	-1E+10	1	-1E+10	1	-1E+10	1
4902549	116	C	10/31/2023	11:50	-133.051	47.365	0	1175.50	0	2.8600	0	34.4240	0	27.445	0	1162.418	0	8.6	4	2.6	4	-1E+10	1	-1E+10	1	-1E+10	1	-1E+10	1	-1E+10	1	-1E+10	1
4902549	116	C	10/31/2023	11:50	-133.051	47.365	0	1185.50	0	2.8320	0	34.4260	0	27.449	0	1172.279	0	8.8	4	2.7	4	-1E+10	1	-1E+10	1	-1E+10	1	-1E+10	1	-1E+10	1	-1E+10	1
4902549	116	C	10/31/2023	11:50	-133.051	47.365	0	1195.30	0	2.8130	0	34.4280	0	27.453	0	1181.942	0	8.9	4	2.7	4	-1E+10	1	-1E+10	1	-1E+10	1	-1E+10	1	-1E+10	1	-1E+10	1
4902549	116	C	10/31/2023	11:50	-133.051	47.365	0	1205.10	0	2.7980	0	34.4300	0	27.455	0	1191.604	0	9.1	4	2.8	4	-1E+10	1	-1E+10	1	-1E+10	1	-1E+10	1	-1E+10	1	-1E+10	1
4902549	116	C	10/31/2023	11:50	-133.051	47.365	0	1215.10	0	2.7880	0	34.4340	0	27.460	0	1201.464	0	9.3	4	2.9	4	-1E+10	1	-1E+10	1	-1E+10	1	-1E+10	1	-1E+10	1	-1E+10	1
4902549	116	C	10/31/2023	11:50	-133.051	47.365	0	1225.00	0	2.7700	0	34.4360	0	27.463	0	1211.224	0	9.5	4	2.9	4	-1E+10	1	-1E+10	1	-1E+10	1	-1E+10	1	-1E+10	1	-1E+10	1
4902549	116	C	10/31/2023	11:50	-133.051	47.365	0	1235.10	0	2.7580	0	34.4380	0	27.466	0	1221.181	0	9.8	4	3.0	4	-1E+10	1	-1E+10	1	-1E+10	1	-1E+10	1	-1E+10	1	-1E+10	1
4902549	116	C	10/31/2023	11:50	-133.051	47.365	0	1245.20	0	2.7370	0	34.4420	0	27.471	0	1231.138	0	10.1	4	3.1	4	-1E+10	1	-1E+10	1	-1E+10	1	-1E+10	1	-1E+10	1	-1E+10	1
4902549	116	C	10/31/2023	11:50	-133.051	47.365	0	1255.40	0	2.7360	0	34.4450	0	27.473	0	1241.193	0	10.4	4	3.2	4	-1E+10	1	-1E+10	1	-1E+10	1	-1E+10	1	-1E+10	1	-1E+10	1
4902549	116	C	10/31/2023	11:50	-133.051	47.365	0	1265.70	0	2.7210	0	34.4480	0	27.477	0	1251.346	0	10.7	4	3.3	4	-1E+10	1	-1E+10	1	-1E+10	1	-1E+10	1	-1E+10	1	-1E+10	1
4902549	116	C	10/31/2023	11:50	-133.051	47.365	0	1276.00	0	2.7000	0	34.4500	0	27.480	0	1261.498	0	10.9	4	3.3	4	-1E+10	1	-1E+10	1	-1E+10	1	-1E+10	1	-1E+10	1	-1E+10	1
4902549	116	C	10/31/2023	11:50	-133.051	47.365	0	1285.30	0	2.6780	0	34.4530	0	27.485	0	1270.664	0	11.2	4	3.4	4	-1E+10	1	-1E+10	1	-1E+10	1	-1E+10	1	-1E+10	1	-1E+10	1
4902549	116	C	10/31/2023	11:50	-133.051	47.365	0	1295.30	0	2.6580	0	34.4550	0	27.488	0	1280.520	0	11.5	4	3.5	4	-1E+10	1	-1E+10	1	-1E+10	1	-1E+10	1	-1E+10	1	-1E+10	1
4902549	116	C	10/31/2023	11:50	-133.051	47.365	0	1305.60	0	2.6460	0	34.4570	0	27.491	0	1290.671	0	11.8	4	3.6	4	-1E+10	1	-1E+10	1	-1E+10	1	-1E+10	1	-1E+10	1	-1E+10	1
4902549	116	C	10/31/2023	11:50	-133.051	47.365	0	1315.50	0	2.6280	0	34.4600	0	27.495	0	1300.427	0	12.2	4	3.7	4	-1E+10	1	-1E+10	1	-1E+10	1	-1E+10	1	-1E+10	1	-1E+10	1
4902549	116	C	10/31/2023	11:50	-133.051	47.365	0	1325.30	0	2.6070	0	34.4630	0	27.499	0	1310.085	0	12.6	4	3.9	4	-1E+10	1	-1E+10	1	-1E+10	1	-1E+10	1	-1E+10	1	-1E+10	1
4902549	116	C	10/31/2023	11:50	-133.051	47.365	0	1335.30	0	2.5890	0	34.4660	0	27.503	0	1319.938	0	13.1	4	4.0	4	-1E+10	1	-1E+10	1	-1E+10	1	-1E+10	1	-1E+10	1	-1E+10	1
4902549	116	C	10/31/2023	11:50	-133.051	47.365	0	1345.70	0	2.5720	0	34.4700	0	27.508	0	1330.186	0	13.6	4	4.1	4	-1E+10	1	-1E+10	1	-1E+10	1	-1E+10	1	-1E+10	1	-1E+10	1
4902549	116	C	10/31/2023	11:50	-133.051	47.365	0	1355.70	0	2.5640	0	34.4710	0	27.509	0	1340.039	0	14.0	4	4.3	4	-1E+10	1	-1E+10	1	-1E+10	1	-1E+10	1	-1E+10	1	-1E+10	1
4902549	116	C	10/31/2023	11:50	-133.051	47.365	0	1365.30	0	2.5440	0	34.4750	0	27.514	0	1349.497	0	14.4	4	4.4	4	-1E+10	1	-1E+10	1	-1E+10	1	-1E+10	1	-1E+10	1	-1E+10	1
4902549	116	C	10/31/2023	11:50	-133.051	47.365	0	1375.10	0	2.5370	0	34.4770	0	27.516	0	1359.152	0	14.8	4	4.5	4	-1E+10	1	-1E+10	1	-1E+10	1	-1E+10	1	-1E+10	1	-1E+10	1
4902549	116	C	10/31/2023	11:50	-133.051	47.365	0	1385.20	0	2.5310	0	34.4780	0	27.518	0	1369.102	0	15.2	4	4.6	4	-1E+10	1	-1E+10	1	-1E+10	1	-1E+10	1	-1E+10	1	-1E+10	1
4902549	116	C	10/31/2023	11:50	-133.051	47.365	0	1395.60	0	2.5210	0	34.4820	0	27.522	0	1379.347	0	15.8	4	4.8	4	-1E+10	1	-1E+10	1	-1E+10	1	-1E+10	1	-1E+10	1	-1E+10	1
4902549	116	C	10/31/2023	11:50	-133.051	47.365	0	1405.40	0	2.5150	0	34.4840	0	27.524	0	1389.001	0	16.4	4	5.0	4	-1E+10	1	-1E+10	1	-1E+10	1	-1E+10	1	-1E+10	1	-1E+10	1
4902549	116	C	10/31/2023	11:50	-133.051	47.365	0	1415.40	0	2.5050	0	34.4860	0	27.527	0	1398.851	0	16.8	4	5.1	4	-1E+10	1	-1E+10	1	-1E+10	1	-1E+10	1	-1E+10	1	-1E+10	1
4902549	116	C	10/31/2023	11:50	-133.051	47.365	0	1425.10	0	2.5040	0	34.4890	0	27.529	0	1408.406	0	17.4	4	5.3	4	-1E+10	1	-1E+10	1	-1E+10	1	-1E+10	1	-1E+10	1	-1E+10	1
4902549	116	C	10/31/2023	11:50	-133.051	47.365	0	1435.10	0	2.4930	0	34.4920	0	27.532	0	1418.255	0	17.8	4	5.4	4	-1E+10	1	-1E+10	1	-1E+10	1	-1E+10	1	-1E+10	1	-1E+10	1
4902549	116	C	10/31/2023	11:50	-133.051	47.365	0	1445.40	0	2.4840	0	34.4930	0	27.534	0	1428.399	0	18.2	4	5.5	4	-1E+10	1	-1E+10	1	-1E+10	1	-1E+10	1	-1E+10	1	-1E+10	1
4902549	116	C	10/31/2023	11:50	-133.051	47.365	0	1455.70	0	2.4710	0	34.4950	0	27.537	0	1438.543	0	18.4	4	5.6	4	-1E+10	1	-1E+10	1	-1E+10	1	-1E+10	1	-1E+10	1	-1E+10	1
4902549	116	C	10/31/2023	11:50	-133.051	47.365	0	1465.40	0	2.4610	0	34.4950	0	27.538	0	1448.095	0	18.9	4	5.8	4	-1E+10	1	-1E+10	1	-1E+10	1	-1E+10	1	-1E+10	1	-1E+10	1
4902549	116	C	10/31/2023	11:50	-133.051	47.365	0	1475.30	0	2.4530	0	34.4980	0	27.541	0	1457.844	0	19.4	4	5.9	4	-1E+10	1	-1E+10	1	-1E+10	1	-1E+10	1	-1E+10	1	-1E+10	1
4902549	116	C	10/31/2023	11:50	-133.051	47.365	0	1485.20	0	2.4490	0	34.5000	0	27.543	0	1467.593	0	19.9	4	6.1	4	-1E+10	1	-1E+10	1	-1E+10	1	-1E+10	1	-1E+10	1	-1E+10	1
4902549	116	C	10/31/2023	11:50	-133.051	47.365	0	1495.30	0	2.4370	0	34.5020	0	27.546	0	1477.538	0	20.2	4	6.1	4	-1E+10	1	-1E+10	1	-1E+10	1	-1E+10	1	-1E+10	1	-1E+10	1
4902549	116	C	10/31/2023	11:50	-133.051	47.365	0	1505.40	0	2.4100	0	34.5030	0	27.549	0	1487.482	0	20.3	4	6.2	4	-1E+10	1	-1E+10	1	-1E+10	1	-1E+10	1	-1E+10	1	-1E+10	1
4902549	116	C	10/31/2023	11:50	-133.051	47.365	0	1515.20	0	2.3970	0	34.5030	0	27.550	0	1497.131	0	20.7	4	6.3	4	-1E+10	1	-1E+10	1	-1E+10	1	-1E+10	1	-1E+10	1	-1E+10	1
4902549	116	C	10/31/2023	11:50	-133.051	47.365	0	1525.20	0	2.3780	0	34.5050	0	27.553	0	1506.976	0	21.5	4	6.5	4	-1E+10	1	-1E+10	1	-1E+10	1	-1E+10	1	-1E+10	1	-1E+10	1
4902549	116	C	10/31/2023	11:50	-133.051	47.365	0	1535.30	0	2.3540	0	34.5080	0	27.557	0	1516.919	0	22.2	4	6.7	4	-1E+10	1	-1E+10	1	-1E+10	1	-1E+10	1	-1E+10	1	-1E+10	1
4902549	116	C	10/31/2023	11:50	-133.051	47.365	0	1545.60	0	2.3450	0	34.5110	0	27.561	0	1527.059	0	23.0	4	7.0	4	-1E+10	1	-1E+10	1	-1E+10	1	-1E+10	1	-1E+10	1	-1E+10	1
4902549	116	C	10/31/2023	11:50	-133.051	47.365	0	1555.30	0	2.3370	0	34.5130	0	27.563	0	1536.607	0	23.6	4	7.2	4	-1E+10	1	-1E+10	1	-1E+10	1	-1E+10	1	-1E+10	1	-1E+10	1
4902549	116	C	10/31/2023	11:50	-133.051	47.365	0	1565.10	0	2.3240	0	34.5150	0	27.566	0	1546.254	0	24.1	4	7.3	4	-1E+10	1	-1E+10	1	-1E+10	1	-1E+10	1	-1E+10	1	-1E+10	1
4902549	116	C	10/31/2023	11:50	-133.051	47.365	0	1575.30	0	2.3100	0	34.5170	0	27.568	0	1556.293	0	24.8	4	7.5	4	-1E+10	1	-1E+10	1	-1E+10	1	-1E+10	1	-1E+10	1	-1E+10	1
4902549	116	C	10/31/2023	11:50	-133.051	47.365	0	1585.60	0	2.2930	0	34.5190	0	27.571	0	1566.431	0	25.5	4	7.7	4	-1E+10	1	-1E+10	1	-1E+10	1	-1E+10	1	-1E+10	1	-1E+10	1
4902549	116	C	10/31/2023	11:50	-133.051	47.365	0	1595.30	0	2.2810	0	34.5210	0	27.574	0	1575.978	0	26.0	4	7.9	4	-1E+10	1	-1E+10	1	-1E+10	1	-1E+10	1	-1E+10	1	-1E+10	1
4902549	116	C	10/31/2023	11:50	-133.051	47.365	0	1605.10	0	2.2590	0	34.5230	0	27.577	0	1585.622	0	26.6	4	8.1	4	-1E+10	1	-1E+10	1	-1E+10	1	-1E+10	1	-1E+10	1	-1E+10	1
4902549	116	C	10/31/2023	11:50	-133.051	47.365	0	1615.40	0	2.2470	0	34.5250	0	27.580	0	1595.758	0	27.2	4	8.3	4	-1E+10	1	-1E+10	1	-1E+10	1	-1E+10	1	-1E+10	1	-1E+10	1
4902549	116	C	10/31/2023	11:50	-133.051	47.365	0	1625.40	0	2.2480	0	34.5270	0	27.582	0	1605.599	0	27.9	4	8.5	4	-1E+10	1	-1E+10	1	-1E+10	1	-1E+10	1	-1E+10	1	-1E+10	1
4902549	116	C	10/31/2023	11:50	-133.051	47.365	0	1635.50	0	2.2350	0	34.5300	0	27.585	0	1615.537	0	28.5	4	8.7	4	-1E+10	1	-1E+10	1	-1E+10	1	-1E+10	1	-1E+10	1	-1E+10	1
4902549	116	C	10/31/2023	11:50	-133.051	47.365	0	1645.90	0	2.2230	0	34.5310	0	27.587	0	1625.771	0	29.0	4	8.8	4	-1E+10	1	-1E+10	1	-1E+10	1	-1E+10	1	-1E+10	1	-1E+10	1
4902549	116	C	10/31/2023	11:50	-133.051	47.365	0	1655.80	0	2.2110	0	34.5330	0	27.590	0	1635.511	0	29.7	4	9.0	4	-1E+10	1	-1E+10	1	-1E+10	1	-1E+10	1	-1E+10	1	-1E+10	1
4902549	116	C	10/31/2023	11:50	-133.051	47.365	0	1665.80	0	2.2030	0	34.5350	0	27.592	0	1645.350	0	30.2	4	9.1	4	-1E+10	1	-1E+10	1	-1E+10	1	-1E+10	1	-1E+10	1	-1E+10	1
4902549	116	C	10/31/2023	11:50	-133.051	47.365	0	1675.90	0	2.2000	0	34.5360	0	27.593	0	1655.287	0	30.8	4	9.3	4	-1E+10	1	-1E+10	1	-1E+10	1	-1E+10	1	-1E+10	1	-1E+10	1
4902549	116	C	10/31/2023	11:50	-133.051	47.365	0	1685.40	0	2.1940	0	34.5380	0	27.595	0	1664.632	0	31.1	4	9.4	4	-1E+10	1	-1E+10	1	-1E+10	1	-1E+10	1	-1E+10	1	-1E+10	1
4902549	116	C	10/31/2023	11:50	-133.051	47.365	0	1694.90	0	2.1840	0	34.5380	0	27.596	0	1673.978	0	31.5	4	9.5	4	-1E+10	1	-1E+10	1	-1E+10	1	-1E+10	1	-1E+10	1	-1E+10	1
4902549	116	C	10/31/2023	11:50	-133.051	47.365	0	1705.00	0	2.1760	0	34.5390	0	27.597	0	1683.913	0	32.0	4	9.7	4	-1E+10	1	-1E+10	1	-1E+10	1	-1E+10	1	-1E+10	1	-1E+10	1
4902549	116	C	10/31/2023	11:50	-133.051	47.365	0	1715.30	0	2.1670	0	34.5410	0	27.600	0	1694.045	0	32.7	4	9.9	4	-1E+10	1	-1E+10	1	-1E+10	1	-1E+10	1	-1E+10	1	-1E+10	1
4902549	116	C	10/31/2023	11:50	-133.051	47.365	0	1725.70	0	2.1550	0	34.5430	0	27.602	0	1704.274	0	33.4	4	10.1	4	-1E+10	1	-1E+10	1	-1E+10	1	-1E+10	1	-1E+10	1	-1E+10	1
4902549	116	C	10/31/2023	11:50	-133.051	47.365	0	1735.50	0	2.1430	0	34.5440	0	27.604	0	1713.913	0	33.9	4	10.3	4	-1E+10	1	-1E+10	1	-1E+10	1	-1E+10	1	-1E+10	1	-1E+10	1
4902549	116	C	10/31/2023	11:50	-133.051	47.365	0	1745.30	0	2.1330	0	34.5460	0	27.607	0	1723.551	0	34.5	4	10.4	4	-1E+10	1	-1E+10	1	-1E+10	1	-1E+10	1	-1E+10	1	-1E+10	1
4902549	116	C	10/31/2023	11:50	-133.051	47.365	0	1755.10	0	2.1290	0	34.5470	0	27.608	0	1733.189	0	35.1	4	10.6	4	-1E+10	1	-1E+10	1	-1E+10	1	-1E+10	1	-1E+10	1	-1E+10	1
4902549	116	C	10/31/2023	11:50	-133.051	47.365	0	1765.40	0	2.1210	0	34.5490	0	27.610	0	1743.318	0	35.6	4	10.8	4	-1E+10	1	-1E+10	1	-1E+10	1	-1E+10	1	-1E+10	1	-1E+10	1
4902549	116	C	10/31/2023	11:50	-133.051	47.365	0	1775.30	0	2.1100	0	34.5500	0	27.612	0	1753.053	0	36.4	4	11.0	4	-1E+10	1	-1E+10	1	-1E+10	1	-1E+10	1	-1E+10	1	-1E+10	1
4902549	116	C	10/31/2023	11:50	-133.051	47.365	0	1785.20	0	2.0950	0	34.5520	0	27.615	0	1762.788	0	37.1	4	11.2	4	-1E+10	1	-1E+10	1	-1E+10	1	-1E+10	1	-1E+10	1	-1E+10	1
4902549	116	C	10/31/2023	11:50	-133.051	47.365	0	1795.40	0	2.0820	0	34.5540	0	27.617	0	1772.818	0	37.9	4	11.4	4	-1E+10	1	-1E+10	1	-1E+10	1	-1E+10	1	-1E+10	1	-1E+10	1
4902549	116	C	10/31/2023	11:50	-133.051	47.365	0	1805.70	0	2.0740	0	34.5560	0	27.620	0	1782.945	0	38.8	4	11.7	4	-1E+10	1	-1E+10	1	-1E+10	1	-1E+10	1	-1E+10	1	-1E+10	1
4902549	116	C	10/31/2023	11:50	-133.051	47.365	0	1815.40	0	2.0660	0	34.5580	0	27.622	0	1792.482	0	39.7	4	12.0	4	-1E+10	1	-1E+10	1	-1E+10	1	-1E+10	1	-1E+10	1	-1E+10	1
4902549	116	C	10/31/2023	11:50	-133.051	47.365	0	1825.80	0	2.0570	0	34.5610	0	27.625	0	1802.706	0	40.7	4	12.3	4	-1E+10	1	-1E+10	1	-1E+10	1	-1E+10	1	-1E+10	1	-1E+10	1
4902549	116	C	10/31/2023	11:50	-133.051	47.365	0	1835.40	0	2.0420	0	34.5630	0	27.628	0	1812.144	0	41.8	4	12.6	4	-1E+10	1	-1E+10	1	-1E+10	1	-1E+10	1	-1E+10	1	-1E+10	1
4902549	116	C	10/31/2023	11:50	-133.051	47.365	0	1845.30	0	2.0380	0	34.5660	0	27.631	0	1821.876	0	42.4	4	12.8	4	-1E+10	1	-1E+10	1	-1E+10	1	-1E+10	1	-1E+10	1	-1E+10	1
4902549	116	C	10/31/2023	11:50	-133.051	47.365	0	1855.40	0	2.0270	0	34.5660	0	27.632	0	1831.805	0	42.6	4	12.8	4	-1E+10	1	-1E+10	1	-1E+10	1	-1E+10	1	-1E+10	1	-1E+10	1
4902549	116	C	10/31/2023	11:50	-133.051	47.365	0	1865.20	0	2.0170	0	34.5670	0	27.633	0	1841.437	0	43.1	4	13.0	4	-1E+10	1	-1E+10	1	-1E+10	1	-1E+10	1	-1E+10	1	-1E+10	1
4902549	116	C	10/31/2023	11:50	-133.051	47.365	0	1875.30	0	2.0120	0	34.5680	0	27.635	0	1851.365	0	43.8	4	13.2	4	-1E+10	1	-1E+10	1	-1E+10	1	-1E+10	1	-1E+10	1	-1E+10	1
4902549	116	C	10/31/2023	11:50	-133.051	47.365	0	1885.50	0	2.0030	0	34.5690	0	27.636	0	1861.390	0	44.4	4	13.4	4	-1E+10	1	-1E+10	1	-1E+10	1	-1E+10	1	-1E+10	1	-1E+10	1
4902549	116	C	10/31/2023	11:50	-133.051	47.365	0	1895.40	0	1.9920	0	34.5710	0	27.639	0	1871.120	0	45.2	4	13.6	4	-1E+10	1	-1E+10	1	-1E+10	1	-1E+10	1	-1E+10	1	-1E+10	1
4902549	116	C	10/31/2023	11:50	-133.051	47.365	0	1905.00	0	1.9890	0	34.5730	0	27.640	0	1880.555	0	46.0	4	13.9	4	-1E+10	1	-1E+10	1	-1E+10	1	-1E+10	1	-1E+10	1	-1E+10	1
4902549	116	C	10/31/2023	11:50	-133.051	47.365	0	1914.90	0	1.9840	0	34.5750	0	27.643	0	1890.284	0	46.8	4	14.1	4	-1E+10	1	-1E+10	1	-1E+10	1	-1E+10	1	-1E+10	1	-1E+10	1
4902549	116	C	10/31/2023	11:50	-133.051	47.365	0	1925.50	0	1.9760	0	34.5770	0	27.645	0	1900.700	0	47.4	4	14.3	4	-1E+10	1	-1E+10	1	-1E+10	1	-1E+10	1	-1E+10	1	-1E+10	1
4902549	116	C	10/31/2023	11:50	-133.051	47.365	0	1935.40	0	1.9610	0	34.5780	0	27.647	0	1910.428	0	47.9	4	14.4	4	-1E+10	1	-1E+10	1	-1E+10	1	-1E+10	1	-1E+10	1	-1E+10	1
4902549	116	C	10/31/2023	11:50	-133.051	47.365	0	1945.40	0	1.9540	0	34.5780	0	27.647	0	1920.254	0	48.5	4	14.6	4	-1E+10	1	-1E+10	1	-1E+10	1	-1E+10	1	-1E+10	1	-1E+10	1
4902549	116	C	10/31/2023	11:50	-133.051	47.365	0	1955.40	0	1.9490	0	34.5800	0	27.649	0	1930.080	0	49.1	4	14.8	4	-1E+10	1	-1E+10	1	-1E+10	1	-1E+10	1	-1E+10	1	-1E+10	1
4902549	116	C	10/31/2023	11:50	-133.051	47.365	0	1965.10	0	1.9420	0	34.5820	0	27.652	0	1939.610	0	49.4	4	14.9	4	-1E+10	1	-1E+10	1	-1E+10	1	-1E+10	1	-1E+10	1	-1E+10	1
4902549	116	C	10/31/2023	11:50	-133.051	47.365	0	1975.60	0	1.9340	0	34.5820	0	27.652	0	1949.926	0	49.5	4	14.9	4	-1E+10	1	-1E+10	1	-1E+10	1	-1E+10	1	-1E+10	1	-1E+10	1
4902549	116	C	10/31/2023	11:50	-133.051	47.365	0	1981.40	0	1.9320	0	34.5830	0	27.653	0	1955.624	0	48.9	4	14.7	4	-1E+10	1	-1E+10	1	-1E+10	1	-1E+10	1	-1E+10	1	-1E+10	1
4902549	116	C	10/31/2023	11:50	-133.051	47.365	0																										
4902549	117	C	11/10/2023	16:55	-132.952	47.400	0	0.10	0	12.1540	0	32.2860	0	24.454	0	0.099	0	-1e10	1	-1e10	1	-1E+10	1	-1E+10	1	-1E+10	1	-1E+10	1	-1E+10	1	-1E+10	1
4902549	117	C	11/10/2023	16:55	-132.952	47.400	0	0.30	0	12.1543	0	32.2857	0	24.453	0	0.297	0	250.7	4	93.7	4	-1E+10	1	-1E+10	1	-1E+10	1	-1E+10	1	-1E+10	1	-1E+10	1
4902549	117	C	11/10/2023	16:55	-132.952	47.400	0	0.80	0	12.1550	0	32.2850	0	24.453	0	0.793	0	250.7	4	93.7	4	-1E+10	1	-1E+10	1	-1E+10	1	-1E+10	1	-1E+10	1	-1E+10	1
4902549	117	C	11/10/2023	16:55	-132.952	47.400	0	1.80	0	12.1550	0	32.2860	0	24.454	0	1.785	0	250.7	4	93.7	4	-1E+10	1	-1E+10	1	-1E+10	1	-1E+10	1	-1E+10	1	-1E+10	1
4902549	117	C	11/10/2023	16:55	-132.952	47.400	0	3.00	0	12.1570	0	32.2850	0	24.452	0	2.975	0	250.6	4	93.7	4	-1E+10	1	-1E+10	1	-1E+10	1	-1E+10	1	-1E+10	1	-1E+10	1
4902549	117	C	11/10/2023	16:55	-132.952	47.400	0	4.00	0	12.1570	0	32.2860	0	24.453	0	3.967	0	250.5	4	93.7	4	-1E+10	1	-1E+10	1	-1E+10	1	-1E+10	1	-1E+10	1	-1E+10	1
4902549	117	C	11/10/2023	16:55	-132.952	47.400	0	4.70	0	12.1570	0	32.2860	0	24.453	0	4.661	0	250.6	4	93.7	4	-1E+10	1	-1E+10	1	-1E+10	1	-1E+10	1	-1E+10	1	-1E+10	1
4902549	117	C	11/10/2023	16:55	-132.952	47.400	0	5.80	0	12.1570	0	32.2860	0	24.453	0	5.752	0	250.6	4	93.7	4	-1E+10	1	-1E+10	1	-1E+10	1	-1E+10	1	-1E+10	1	-1E+10	1
4902549	117	C	11/10/2023	16:55	-132.952	47.400	0	6.90	0	12.1560	0	32.2860	0	24.454	0	6.842	0	250.5	4	93.7	4	-1E+10	1	-1E+10	1	-1E+10	1	-1E+10	1	-1E+10	1	-1E+10	1
4902549	117	C	11/10/2023	16:55	-132.952	47.400	0	8.00	0	12.1550	0	32.2860	0	24.454	0	7.933	0	250.5	4	93.6	4	-1E+10	1	-1E+10	1	-1E+10	1	-1E+10	1	-1E+10	1	-1E+10	1
4902549	117	C	11/10/2023	16:55	-132.952	47.400	0	9.10	0	12.1550	0	32.2860	0	24.454	0	9.024	0	250.5	4	93.6	4	-1E+10	1	-1E+10	1	-1E+10	1	-1E+10	1	-1E+10	1	-1E+10	1
4902549	117	C	11/10/2023	16:55	-132.952	47.400	0	9.90	0	12.1550	0	32.2870	0	24.455	0	9.817	0	250.4	4	93.6	4	-1E+10	1	-1E+10	1	-1E+10	1	-1E+10	1	-1E+10	1	-1E+10	1
4902549	117	C	11/10/2023	16:55	-132.952	47.400	0	10.70	0	12.1550	0	32.2870	0	24.455	0	10.611	0	250.4	4	93.6	4	-1E+10	1	-1E+10	1	-1E+10	1	-1E+10	1	-1E+10	1	-1E+10	1
4902549	117	C	11/10/2023	16:55	-132.952	47.400	0	11.50	0	12.1540	0	32.2870	0	24.455	0	11.404	0	250.5	4	93.6	4	-1E+10	1	-1E+10	1	-1E+10	1	-1E+10	1	-1E+10	1	-1E+10	1
4902549	117	C	11/10/2023	16:55	-132.952	47.400	0	13.00	0	12.1520	0	32.2870	0	24.455	0	12.891	0	250.4	4	93.6	4	-1E+10	1	-1E+10	1	-1E+10	1	-1E+10	1	-1E+10	1	-1E+10	1
4902549	117	C	11/10/2023	16:55	-132.952	47.400	0	14.40	0	12.1510	0	32.2870	0	24.455	0	14.279	0	250.3	4	93.6	4	-1E+10	1	-1E+10	1	-1E+10	1	-1E+10	1	-1E+10	1	-1E+10	1
4902549	117	C	11/10/2023	16:55	-132.952	47.400	0	15.30	0	12.1540	0	32.2850	0	24.453	0	15.172	0	250.4	4	93.6	4	-1E+10	1	-1E+10	1	-1E+10	1	-1E+10	1	-1E+10	1	-1E+10	1
4902549	117	C	11/10/2023	16:55	-132.952	47.400	0	16.30	0	12.1540	0	32.2860	0	24.454	0	16.163	0	250.3	4	93.6	4	-1E+10	1	-1E+10	1	-1E+10	1	-1E+10	1	-1E+10	1	-1E+10	1
4902549	117	C	11/10/2023	16:55	-132.952	47.400	0	17.40	0	12.1550	0	32.2870	0	24.455	0	17.254	0	250.4	4	93.6	4	-1E+10	1	-1E+10	1	-1E+10	1	-1E+10	1	-1E+10	1	-1E+10	1
4902549	117	C	11/10/2023	16:55	-132.952	47.400	0	18.30	0	12.1560	0	32.2860	0	24.454	0	18.147	0	250.3	4	93.6	4	-1E+10	1	-1E+10	1	-1E+10	1	-1E+10	1	-1E+10	1	-1E+10	1
4902549	117	C	11/10/2023	16:55	-132.952	47.400	0	19.20	0	12.1580	0	32.2850	0	24.453	0	19.039	0	250.3	4	93.6	4	-1E+10	1	-1E+10	1	-1E+10	1	-1E+10	1	-1E+10	1	-1E+10	1
4902549	117	C	11/10/2023	16:55	-132.952	47.400	0	20.20	0	12.1570	0	32.2860	0	24.454	0	20.031	0	250.2	4	93.6	4	-1E+10	1	-1E+10	1	-1E+10	1	-1E+10	1	-1E+10	1	-1E+10	1
4902549	117	C	11/10/2023	16:55	-132.952	47.400	0	21.10	0	12.1570	0	32.2870	0	24.454	0	20.923	0	250.4	4	93.6	4	-1E+10	1	-1E+10	1	-1E+10	1	-1E+10	1	-1E+10	1	-1E+10	1
4902549	117	C	11/10/2023	16:55	-132.952	47.400	0	22.00	0	12.1570	0	32.2860	0	24.454	0	21.815	0	250.3	4	93.6	4	-1E+10	1	-1E+10	1	-1E+10	1	-1E+10	1	-1E+10	1	-1E+10	1
4902549	117	C	11/10/2023	16:55	-132.952	47.400	0	22.90	0	12.1570	0	32.2860	0	24.454	0	22.708	0	250.3	4	93.6	4	-1E+10	1	-1E+10	1	-1E+10	1	-1E+10	1	-1E+10	1	-1E+10	1
4902549	117	C	11/10/2023	16:55	-132.952	47.400	0	23.70	0	12.1560	0	32.2860	0	24.454	0	23.501	0	250.4	4	93.6	4	-1E+10	1	-1E+10	1	-1E+10	1	-1E+10	1	-1E+10	1	-1E+10	1
4902549	117	C	11/10/2023	16:55	-132.952	47.400	0	24.60	0	12.1560	0	32.2870	0	24.455	0	24.393	0	250.4	4	93.6	4	-1E+10	1	-1E+10	1	-1E+10	1	-1E+10	1	-1E+10	1	-1E+10	1
4902549	117	C	11/10/2023	16:55	-132.952	47.400	0	25.90	0	12.1550	0	32.2860	0	24.454	0	25.682	0	250.4	4	93.6	4	-1E+10	1	-1E+10	1	-1E+10	1	-1E+10	1	-1E+10	1	-1E+10	1
4902549	117	C	11/10/2023	16:55	-132.952	47.400	0	27.10	0	12.1520	0	32.2880	0	24.456	0	26.872	0	250.3	4	93.6	4	-1E+10	1	-1E+10	1	-1E+10	1	-1E+10	1	-1E+10	1	-1E+10	1
4902549	117	C	11/10/2023	16:55	-132.952	47.400	0	28.00	0	12.1520	0	32.2880	0	24.456	0	27.765	0	250.4	4	93.6	4	-1E+10	1	-1E+10	1	-1E+10	1	-1E+10	1	-1E+10	1	-1E+10	1
4902549	117	C	11/10/2023	16:55	-132.952	47.400	0	28.80	0	12.1530	0	32.2860	0	24.455	0	28.558	0	250.3	4	93.6	4	-1E+10	1	-1E+10	1	-1E+10	1	-1E+10	1	-1E+10	1	-1E+10	1
4902549	117	C	11/10/2023	16:55	-132.952	47.400	0	29.90	0	12.1530	0	32.2870	0	24.455	0	29.649	0	250.2	4	93.5	4	-1E+10	1	-1E+10	1	-1E+10	1	-1E+10	1	-1E+10	1	-1E+10	1
4902549	117	C	11/10/2023	16:55	-132.952	47.400	0	31.00	0	12.1540	0	32.2870	0	24.455	0	30.739	0	250.2	4	93.6	4	-1E+10	1	-1E+10	1	-1E+10	1	-1E+10	1	-1E+10	1	-1E+10	1
4902549	117	C	11/10/2023	16:55	-132.952	47.400	0	32.00	0	12.1530	0	32.2860	0	24.455	0	31.731	0	250.3	4	93.6	4	-1E+10	1	-1E+10	1	-1E+10	1	-1E+10	1	-1E+10	1	-1E+10	1
4902549	117	C	11/10/2023	16:55	-132.952	47.400	0	33.10	0	12.1480	0	32.2880	0	24.457	0	32.821	0	250.3	4	93.5	4	-1E+10	1	-1E+10	1	-1E+10	1	-1E+10	1	-1E+10	1	-1E+10	1
4902549	117	C	11/10/2023	16:55	-132.952	47.400	0	33.90	0	12.1490	0	32.2870	0	24.456	0	33.615	0	250.2	4	93.5	4	-1E+10	1	-1E+10	1	-1E+10	1	-1E+10	1	-1E+10	1	-1E+10	1
4902549	117	C	11/10/2023	16:55	-132.952	47.400	0	35.10	0	12.1510	0	32.2870	0	24.456	0	34.804	0	250.1	4	93.5	4	-1E+10	1	-1E+10	1	-1E+10	1	-1E+10	1	-1E+10	1	-1E+10	1
4902549	117	C	11/10/2023	16:55	-132.952	47.400	0	36.40	0	12.1470	0	32.2860	0	24.456	0	36.093	0	250.1	4	93.5	4	-1E+10	1	-1E+10	1	-1E+10	1	-1E+10	1	-1E+10	1	-1E+10	1
4902549	117	C	11/10/2023	16:55	-132.952	47.400	0	37.10	0	12.1510	0	32.2870	0	24.456	0	36.787	0	250.1	4	93.5	4	-1E+10	1	-1E+10	1	-1E+10	1	-1E+10	1	-1E+10	1	-1E+10	1
4902549	117	C	11/10/2023	16:55	-132.952	47.400	0	37.90	0	12.1450	0	32.2880	0	24.458	0	37.581	0	250.0	4	93.5	4	-1E+10	1	-1E+10	1	-1E+10	1	-1E+10	1	-1E+10	1	-1E+10	1
4902549	117	C	11/10/2023	16:55	-132.952	47.400	0	39.00	0	12.1410	0	32.2880	0	24.459	0	38.671	0	250.1	4	93.5	4	-1E+10	1	-1E+10	1	-1E+10	1	-1E+10	1	-1E+10	1	-1E+10	1
4902549	117	C	11/10/2023	16:55	-132.952	47.400	0	40.00	0	12.1380	0	32.2870	0	24.458	0	39.663	0	249.9	4	93.4	4	-1E+10	1	-1E+10	1	-1E+10	1	-1E+10	1	-1E+10	1	-1E+10	1
4902549	117	C	11/10/2023	16:55	-132.952	47.400	0	41.10	0	12.1360	0	32.2890	0	24.460	0	40.753	0	249.9	4	93.4	4	-1E+10	1	-1E+10	1	-1E+10	1	-1E+10	1	-1E+10	1	-1E+10	1
4902549	117	C	11/10/2023	16:55	-132.952	47.400	0	41.80	0	12.1120	0	32.2880	0	24.464	0	41.447	0	249.9	4	93.3	4	-1E+10	1	-1E+10	1	-1E+10	1	-1E+10	1	-1E+10	1	-1E+10	1
4902549	117	C	11/10/2023	16:55	-132.952	47.400	0	42.90	0	12.0560	0	32.3010	0	24.485	0	42.538	0	249.9	4	93.2	4	-1E+10	1	-1E+10	1	-1E+10	1	-1E+10	1	-1E+10	1	-1E+10	1
4902549	117	C	11/10/2023	16:55	-132.952	47.400	0	44.00	0	12.0350	0	32.2980	0	24.486	0	43.629	0	249.9	4	93.2	4	-1E+10	1	-1E+10	1	-1E+10	1	-1E+10	1	-1E+10	1	-1E+10	1
4902549	117	C	11/10/2023	16:55	-132.952	47.400	0	44.90	0	12.0530	0	32.2900	0	24.477	0	44.521	0	249.8	4	93.2	4	-1E+10	1	-1E+10	1	-1E+10	1	-1E+10	1	-1E+10	1	-1E+10	1
4902549	117	C	11/10/2023	16:55	-132.952	47.400	0	46.00	0	11.9940	0	32.2910	0	24.489	0	45.611	0	249.7	4	93.1	4	-1E+10	1	-1E+10	1	-1E+10	1	-1E+10	1	-1E+10	1	-1E+10	1
4902549	117	C	11/10/2023	16:55	-132.952	47.400	0	46.90	0	11.8960	0	32.3090	0	24.521	0	46.504	0	249.9	4	92.9	4	-1E+10	1	-1E+10	1	-1E+10	1	-1E+10	1	-1E+10	1	-1E+10	1
4902549	117	C	11/10/2023	16:55	-132.952	47.400	0	47.80	0	11.6810	0	32.3190	0	24.568	0	47.396	0	250.7	4	92.8	4	-1E+10	1	-1E+10	1	-1E+10	1	-1E+10	1	-1E+10	1	-1E+10	1
4902549	117	C	11/10/2023	16:55	-132.952	47.400	0	48.80	0	11.6000	0	32.3180	0	24.582	0	48.387	0	250.8	4	92.7	4	-1E+10	1	-1E+10	1	-1E+10	1	-1E+10	1	-1E+10	1	-1E+10	1
4902549	117	C	11/10/2023	16:55	-132.952	47.400	0	50.00	0	11.3640	0	32.3450	0	24.646	0	49.577	0	251.4	4	92.5	4	-1E+10	1	-1E+10	1	-1E+10	1	-1E+10	1	-1E+10	1	-1E+10	1
4902549	117	C	11/10/2023	16:55	-132.952	47.400	0	51.00	0	11.2590	0	32.3480	0	24.667	0	50.569	0	251.5	4	92.3	4	-1E+10	1	-1E+10	1	-1E+10	1	-1E+10	1	-1E+10	1	-1E+10	1
4902549	117	C	11/10/2023	16:55	-132.952	47.400	0	51.90	0	11.1460	0	32.3510	0	24.689	0	51.461	0	250.3	4	91.6	4	-1E+10	1	-1E+10	1	-1E+10	1	-1E+10	1	-1E+10	1	-1E+10	1
4902549	117	C	11/10/2023	16:55	-132.952	47.400	0	53.00	0	9.6750	0	32.4250	0	24.996	0	52.551	0	255.3	4	90.6	4	-1E+10	1	-1E+10	1	-1E+10	1	-1E+10	1	-1E+10	1	-1E+10	1
4902549	117	C	11/10/2023	16:55	-132.952	47.400	0	54.00	0	9.0180	0	32.4770	0	25.141	0	53.543	0	258.0	4	90.3	4	-1E+10	1	-1E+10	1	-1E+10	1	-1E+10	1	-1E+10	1	-1E+10	1
4902549	117	C	11/10/2023	16:55	-132.952	47.400	0	55.10	0	8.7640	0	32.4940	0	25.194	0	54.633	0	258.4	4	90.0	4	-1E+10	1	-1E+10	1	-1E+10	1	-1E+10	1	-1E+10	1	-1E+10	1
4902549	117	C	11/10/2023	16:55	-132.952	47.400	0	56.10	0	8.5840	0	32.4920	0	25.220	0	55.625	0	258.9	4	89.8	4	-1E+10	1	-1E+10	1	-1E+10	1	-1E+10	1	-1E+10	1	-1E+10	1
4902549	117	C	11/10/2023	16:55	-132.952	47.400	0	57.00	0	8.4780	0	32.4930	0	25.236	0	56.517	0	259.0	4	89.6	4	-1E+10	1	-1E+10	1	-1E+10	1	-1E+10	1	-1E+10	1	-1E+10	1
4902549	117	C	11/10/2023	16:55	-132.952	47.400	0	57.90	0	8.3670	0	32.4970	0	25.256	0	57.409	0	259.4	4	89.5	4	-1E+10	1	-1E+10	1	-1E+10	1	-1E+10	1	-1E+10	1	-1E+10	1
4902549	117	C	11/10/2023	16:55	-132.952	47.400	0	59.10	0	8.2660	0	32.5110	0	25.282	0	58.599	0	259.7	4	89.4	4	-1E+10	1	-1E+10	1	-1E+10	1	-1E+10	1	-1E+10	1	-1E+10	1
4902549	117	C	11/10/2023	16:55	-132.952	47.400	0	59.90	0	8.2850	0	32.5220	0	25.288	0	59.392	0	259.3	4	89.3	4	-1E+10	1	-1E+10	1	-1E+10	1	-1E+10	1	-1E+10	1	-1E+10	1
4902549	117	C	11/10/2023	16:55	-132.952	47.400	0	60.70	0	8.2990	0	32.5280	0	25.290	0	60.185	0	258.9	4	89.2	4	-1E+10	1	-1E+10	1	-1E+10	1	-1E+10	1	-1E+10	1	-1E+10	1
4902549	117	C	11/10/2023	16:55	-132.952	47.400	0	61.80	0	8.2840	0	32.5360	0	25.299	0	61.276	0	258.5	4	89.1	4	-1E+10	1	-1E+10	1	-1E+10	1	-1E+10	1	-1E+10	1	-1E+10	1
4902549	117	C	11/10/2023	16:55	-132.952	47.400	0	62.80	0	8.2510	0	32.5410	0	25.308	0	62.267	0	258.2	4	88.9	4	-1E+10	1	-1E+10	1	-1E+10	1	-1E+10	1	-1E+10	1	-1E+10	1
4902549	117	C	11/10/2023	16:55	-132.952	47.400	0	63.80	0	8.2060	0	32.5400	0	25.313	0	63.258	0	258.2	4	88.8	4	-1E+10	1	-1E+10	1	-1E+10	1	-1E+10	1	-1E+10	1	-1E+10	1
4902549	117	C	11/10/2023	16:55	-132.952	47.400	0	65.00	0	8.1320	0	32.5430	0	25.327	0	64.448	0	258.2	4	88.7	4	-1E+10	1	-1E+10	1	-1E+10	1	-1E+10	1	-1E+10	1	-1E+10	1
4902549	117	C	11/10/2023	16:55	-132.952	47.400	0	65.90	0	8.1050	0	32.5450	0	25.332	0	65.340	0	258.2	4	88.6	4	-1E+10	1	-1E+10	1	-1E+10	1	-1E+10	1	-1E+10	1	-1E+10	1
4902549	117	C	11/10/2023	16:55	-132.952	47.400	0	67.10	0	8.0460	0	32.5450	0	25.341	0	66.530	0	258.2	4	88.5	4	-1E+10	1	-1E+10	1	-1E+10	1	-1E+10	1	-1E+10	1	-1E+10	1
4902549	117	C	11/10/2023	16:55	-132.952	47.400	0	68.10	0	8.0220	0	32.5480	0	25.347	0	67.521	0	258.0	4	88.4	4	-1E+10	1	-1E+10	1	-1E+10	1	-1E+10	1	-1E+10	1	-1E+10	1
4902549	117	C	11/10/2023	16:55	-132.952	47.400	0	69.10	0	7.9890	0	32.5480	0	25.351	0	68.512	0	258.1	4	88.4	4	-1E+10	1	-1E+10	1	-1E+10	1	-1E+10	1	-1E+10	1	-1E+10	1
4902549	117	C	11/10/2023	16:55	-132.952	47.400	0	70.10	0	7.9780	0	32.5490	0	25.354	0	69.504	0	257.9	4	88.3	4	-1E+10	1	-1E+10	1	-1E+10	1	-1E+10	1	-1E+10	1	-1E+10	1
4902549	117	C	11/10/2023	16:55	-132.952	47.400	0	71.20	0	7.9590	0	32.5500	0	25.357	0	70.594	0	257.8	4	88.2	4	-1E+10	1	-1E+10	1	-1E+10	1	-1E+10	1	-1E+10	1	-1E+10	1
4902549	117	C	11/10/2023	16:55	-132.952	47.400	0	72.00	0	7.9340	0	32.5500	0	25.361	0	71.387	0	257.9	4	88.2	4	-1E+10	1	-1E+10	1	-1E+10	1	-1E+10	1	-1E+10	1	-1E+10	1
4902549	117	C	11/10/2023	16:55	-132.952	47.400	0	72.90	0	7.8820	0	32.5520	0	25.370	0	72.279	0	258.0	4	88.1	4	-1E+10	1	-1E+10	1	-1E+10	1	-1E+10	1	-1E+10	1	-1E+10	1
4902549	117	C	11/10/2023	16:55	-132.952	47.400	0	74.00	0	7.8540	0	32.5560	0	25.377	0	73.370	0	258.1	4	88.1	4	-1E+10	1	-1E+10	1	-1E+10	1	-1E+10	1	-1E+10	1	-1E+10	1
4902549	117	C	11/10/2023	16:55	-132.952	47.400	0	75.10	0	7.8530	0	32.5570	0	25.378	0	74.460	0	257.9	4	88.0	4	-1E+10	1	-1E+10	1	-1E+10	1	-1E+10	1	-1E+10	1	-1E+10	1
4902549	117	C	11/10/2023	16:55	-132.952	47.400	0	76.00	0	7.8540	0	32.5570	0	25.378	0	75.353	0	257.9	4	88.0	4	-1E+10	1	-1E+10	1	-1E+10	1	-1E+10	1	-1E+10	1	-1E+10	1
4902549	117	C	11/10/2023	16:55	-132.952	47.400	0	76.90	0	7.8560	0	32.5590	0	25.379	0	76.245	0	257.8	4	88.0	4	-1E+10	1	-1E+10	1	-1E+10	1	-1E+10	1	-1E+10	1	-1E+10	1
4902549	117	C	11/10/2023	16:55	-132.952	47.400	0	77.80	0	7.8580	0	32.5600	0	25.380	0	77.137	0	257.7	4	88.0	4	-1E+10	1	-1E+10	1	-1E+10	1	-1E+10	1	-1E+10	1	-1E+10	1
4902549	117	C	11/10/2023	16:55	-132.952	47.400	0	78.70	0	7.8620	0	32.5620	0	25.381	0	78.029	0	257.6	4	87.9	4	-1E+10	1	-1E+10	1	-1E+10	1	-1E+10	1	-1E+10	1	-1E+10	1
4902549	117	C	11/10/2023	16:55	-132.952	47.400	0	79.90	0	7.8690	0	32.5630	0	25.381	0	79.219	0	257.5	4	87.9	4	-1E+10	1	-1E+10	1	-1E+10	1	-1E+10	1	-1E+10	1	-1E+10	1
4902549	117	C	11/10/2023	16:55	-132.952	47.400	0	81.20	0	7.8760	0	32.5650	0	25.381	0	80.507	0	257.2	4	87.8	4	-1E+10	1	-1E+10	1	-1E+10	1	-1E+10	1	-1E+10	1	-1E+10	1
4902549	117	C	11/10/2023	16:55	-132.952	47.400	0	81.80	0	7.8760	0	32.5630	0	25.380	0	81.102	0	256.9	4	87.7	4	-1E+10	1	-1E+10	1	-1E+10	1	-1E+10	1	-1E+10	1	-1E+10	1
4902549	117	C	11/10/2023	16:55	-132.952	47.400	0	82.90	0	7.8340	0	32.5710	0	25.392	0	82.192	0	263.3	4	89.8	4	-1E+10	1	-1E+10	1	-1E+10	1	-1E+10	1	-1E+10	1	-1E+10	1
4902549	117	C	11/10/2023	16:55	-132.952	47.400	0	84.20	0	7.8000	0	32.5750	0	25.400	0	83.481	0	263.1	4	89.7	4	-1E+10	1	-1E+10	1	-1E+10	1	-1E+10	1	-1E+10	1	-1E+10	1
4902549	117	C	11/10/2023	16:55	-132.952	47.400	0	84.90	0	7.7830	0	32.5740	0	25.402	0	84.175	0	262.9	4	89.6	4	-1E+10	1	-1E+10	1	-1E+10	1	-1E+10	1	-1E+10	1	-1E+10	1
4902549	117	C	11/10/2023	16:55	-132.952	47.400	0	86.00	0	7.7480	0	32.5750	0	25.407	0	85.265	0	262.5	4	89.4	4	-1E+10	1	-1E+10	1	-1E+10	1	-1E+10	1	-1E+10	1	-1E+10	1
4902549	117	C	11/10/2023	16:55	-132.952	47.400	0	87.10	0	7.7050	0	32.5760	0	25.414	0	86.356	0	262.0	4	89.1	4	-1E+10	1	-1E+10	1	-1E+10	1	-1E+10	1	-1E+10	1	-1E+10	1
4902549	117	C	11/10/2023	16:55	-132.952	47.400	0	87.80	0	7.6910	0	32.5770	0	25.417	0	87.050	0	261.5	4	88.9	4	-1E+10	1	-1E+10	1	-1E+10	1	-1E+10	1	-1E+10	1	-1E+10	1
4902549	117	C	11/10/2023	16:55	-132.952	47.400	0	88.90	0	7.6470	0	32.5780	0	25.424	0	88.140	0	260.8	4	88.6	4	-1E+10	1	-1E+10	1	-1E+10	1	-1E+10	1	-1E+10	1	-1E+10	1
4902549	117	C	11/10/2023	16:55	-132.952	47.400	0	90.00	0	7.6080	0	32.5800	0	25.431	0	89.230	0	259.8	4	88.2	4	-1E+10	1	-1E+10	1	-1E+10	1	-1E+10	1	-1E+10	1	-1E+10	1
4902549	117	C	11/10/2023	16:55	-132.952	47.400	0	91.20	0	7.5860	0	32.5840	0	25.437	0	90.420	0	258.5	4	87.7	4	-1E+10	1	-1E+10	1	-1E+10	1	-1E+10	1	-1E+10	1	-1E+10	1
4902549	117	C	11/10/2023	16:55	-132.952	47.400	0	91.80	0	7.5710	0	32.5850	0	25.440	0	91.014	0	257.7	4	87.4	4	-1E+10	1	-1E+10	1	-1E+10	1	-1E+10	1	-1E+10	1	-1E+10	1
4902549	117	C	11/10/2023	16:55	-132.952	47.400	0	92.70	0	7.5400	0	32.5930	0	25.451	0	91.907	0	256.6	4	87.0	4	-1E+10	1	-1E+10	1	-1E+10	1	-1E+10	1	-1E+10	1	-1E+10	1
4902549	117	C	11/10/2023	16:55	-132.952	47.400	0	93.70	0	7.5160	0	32.6120	0	25.469	0	92.898	0	255.7	4	86.6	4	-1E+10	1	-1E+10	1	-1E+10	1	-1E+10	1	-1E+10	1	-1E+10	1
4902549	117	C	11/10/2023	16:55	-132.952	47.400	0	94.70	0	7.5090	0	32.6160	0	25.473	0	93.889	0	254.7	4	86.3	4	-1E+10	1	-1E+10	1	-1E+10	1	-1E+10	1	-1E+10	1	-1E+10	1
4902549	117	C	11/10/2023	16:55	-132.952	47.400	0	95.70	0	7.5010	0	32.6210	0	25.478	0	94.880	0	253.4	4	85.8	4	-1E+10	1	-1E+10	1	-1E+10	1	-1E+10	1	-1E+10	1	-1E+10	1
4902549	117	C	11/10/2023	16:55	-132.952	47.400	0	96.70	0	7.4920	0	32.6270	0	25.484	0	95.871	0	252.0	4	85.3	4	-1E+10	1	-1E+10	1	-1E+10	1	-1E+10	1	-1E+10	1	-1E+10	1
4902549	117	C	11/10/2023	16:55	-132.952	47.400	0	97.90	0	7.4690	0	32.6460	0	25.502	0	97.061	0	250.6	4	84.8	4	-1E+10	1	-1E+10	1	-1E+10	1	-1E+10	1	-1E+10	1	-1E+10	1
4902549	117	C	11/10/2023	16:55	-132.952	47.400	0	99.10	0	7.4510	0	32.6620	0	25.517	0	98.250	0	249.1	4	84.3	4	-1E+10	1	-1E+10	1	-1E+10	1	-1E+10	1	-1E+10	1	-1E+10	1
4902549	117	C	11/10/2023	16:55	-132.952	47.400	0	100.00	0	7.4280	0	32.6790	0	25.534	0	99.142	0	248.0	4	83.9	4	-1E+10	1	-1E+10	1	-1E+10	1	-1E+10	1	-1E+10	1	-1E+10	1
4902549	117	C	11/10/2023	16:55	-132.952	47.400	0	100.90	0	7.4070	0	32.6990	0	25.553	0	100.034	0	246.8	4	83.5	4	-1E+10	1	-1E+10	1	-1E+10	1	-1E+10	1	-1E+10	1	-1E+10	1
4902549	117	C	11/10/2023	16:55	-132.952	47.400	0	101.90	0	7.3860	0	32.7170	0	25.570	0	101.026	0	245.8	4	83.1	4	-1E+10	1	-1E+10	1	-1E+10	1	-1E+10	1	-1E+10	1	-1E+10	1
4902549	117	C	11/10/2023	16:55	-132.952	47.400	0	102.80	0	7.3700	0	32.7260	0	25.579	0	101.918	0	244.4	4	82.6	4	-1E+10	1	-1E+10	1	-1E+10	1	-1E+10	1	-1E+10	1	-1E+10	1
4902549	117	C	11/10/2023	16:55	-132.952	47.400	0	103.90	0	7.3470	0	32.7370	0	25.591	0	103.008	0	242.9	4	82.1	4	-1E+10	1	-1E+10	1	-1E+10	1	-1E+10	1	-1E+10	1	-1E+10	1
4902549	117	C	11/10/2023	16:55	-132.952	47.400	0	104.80	0	7.3550	0	32.7530	0	25.602	0	103.900	0	241.5	4	81.6	4	-1E+10	1	-1E+10	1	-1E+10	1	-1E+10	1	-1E+10	1	-1E+10	1
4902549	117	C	11/10/2023	16:55	-132.952	47.400	0	105.90	0	7.3430	0	32.7760	0	25.622	0	104.990	0	240.0	4	81.1	4	-1E+10	1	-1E+10	1	-1E+10	1	-1E+10	1	-1E+10	1	-1E+10	1
4902549	117	C	11/10/2023	16:55	-132.952	47.400	0	106.80	0	7.3050	0	32.7910	0	25.639	0	105.882	0	238.5	4	80.5	4	-1E+10	1	-1E+10	1	-1E+10	1	-1E+10	1	-1E+10	1	-1E+10	1
4902549	117	C	11/10/2023	16:55	-132.952	47.400	0	107.90	0	7.2340	0	32.8280	0	25.678	0	106.972	0	237.1	4	79.9	4	-1E+10	1	-1E+10	1	-1E+10	1	-1E+10	1	-1E+10	1	-1E+10	1
4902549	117	C	11/10/2023	16:55	-132.952	47.400	0	108.90	0	7.1660	0	32.8420	0	25.698	0	107.964	0	235.5	4	79.3	4	-1E+10	1	-1E+10	1	-1E+10	1	-1E+10	1	-1E+10	1	-1E+10	1
4902549	117	C	11/10/2023	16:55	-132.952	47.400	0	110.00	0	7.0090	0	32.8930	0	25.760	0	109.054	0	234.4	4	78.7	4	-1E+10	1	-1E+10	1	-1E+10	1	-1E+10	1	-1E+10	1	-1E+10	1
4902549	117	C	11/10/2023	16:55	-132.952	47.400	0	110.70	0	7.0030	0	32.9180	0	25.780	0	109.748	0	233.4	4	78.3	4	-1E+10	1	-1E+10	1	-1E+10	1	-1E+10	1	-1E+10	1	-1E+10	1
4902549	117	C	11/10/2023	16:55	-132.952	47.400	0	111.90	0	6.9920	0	32.9470	0	25.804	0	110.937	0	231.9	4	77.8	4	-1E+10	1	-1E+10	1	-1E+10	1	-1E+10	1	-1E+10	1	-1E+10	1
4902549	117	C	11/10/2023	16:55	-132.952	47.400	0	113.10	0	6.9210	0	33.0070	0	25.861	0	112.126	0	230.7	4	77.3	4	-1E+10	1	-1E+10	1	-1E+10	1	-1E+10	1	-1E+10	1	-1E+10	1
4902549	117	C	11/10/2023	16:55	-132.952	47.400	0	113.90	0	6.9070	0	33.0200	0	25.873	0	112.919	0	230.1	4	77.1	4	-1E+10	1	-1E+10	1	-1E+10	1	-1E+10	1	-1E+10	1	-1E+10	1
4902549	117	C	11/10/2023	16:55	-132.952	47.400	0	114.70	0	6.8920	0	33.0430	0	25.893	0	113.712	0	229.5	4	76.9	4	-1E+10	1	-1E+10	1	-1E+10	1	-1E+10	1	-1E+10	1	-1E+10	1
4902549	117	C	11/10/2023	16:55	-132.952	47.400	0	115.90	0	6.8650	0	33.0620	0	25.912	0	114.901	0	228.5	4	76.5	4	-1E+10	1	-1E+10	1	-1E+10	1	-1E+10	1	-1E+10	1	-1E+10	1
4902549	117	C	11/10/2023	16:55	-132.952	47.400	0	117.10	0	6.8380	0	33.1100	0	25.953	0	116.091	0	227.4	4	76.1	4	-1E+10	1	-1E+10	1	-1E+10	1	-1E+10	1	-1E+10	1	-1E+10	1
4902549	117	C	11/10/2023	16:55	-132.952	47.400	0	117.90	0	6.7920	0	33.1280	0	25.974	0	116.884	0	227.0	4	75.9	4	-1E+10	1	-1E+10	1	-1E+10	1	-1E+10	1	-1E+10	1	-1E+10	1
4902549	117	C	11/10/2023	16:55	-132.952	47.400	0	119.00	0	6.7690	0	33.1360	0	25.983	0	117.974	0	226.0	4	75.6	4	-1E+10	1	-1E+10	1	-1E+10	1	-1E+10	1	-1E+10	1	-1E+10	1
4902549	117	C	11/10/2023	16:55	-132.952	47.400	0	120.10	0	6.7460	0	33.1460	0	25.994	0	119.064	0	224.8	4	75.1	4	-1E+10	1	-1E+10	1	-1E+10	1	-1E+10	1	-1E+10	1	-1E+10	1
4902549	117	C	11/10/2023	16:55	-132.952	47.400	0	120.90	0	6.7230	0	33.1610	0	26.009	0	119.857	0	223.9	4	74.8	4	-1E+10	1	-1E+10	1	-1E+10	1	-1E+10	1	-1E+10	1	-1E+10	1
4902549	117	C	11/10/2023	16:55	-132.952	47.400	0	121.70	0	6.7240	0	33.1570	0	26.006	0	120.650	0	222.9	4	74.5	4	-1E+10	1	-1E+10	1	-1E+10	1	-1E+10	1	-1E+10	1	-1E+10	1
4902549	117	C	11/10/2023	16:55	-132.952	47.400	0	122.60	0	6.6020	0	33.2380	0	26.085	0	121.542	0	222.6	4	74.2	4	-1E+10	1	-1E+10	1	-1E+10	1	-1E+10	1	-1E+10	1	-1E+10	1
4902549	117	C	11/10/2023	16:55	-132.952	47.400	0	123.90	0	6.5760	0	33.2660	0	26.111	0	122.830	0	222.0	4	74.0	4	-1E+10	1	-1E+10	1	-1E+10	1	-1E+10	1	-1E+10	1	-1E+10	1
4902549	117	C	11/10/2023	16:55	-132.952	47.400	0	125.20	0	6.5670	0	33.2750	0	26.119	0	124.119	0	221.5	4	73.8	4	-1E+10	1	-1E+10	1	-1E+10	1	-1E+10	1	-1E+10	1	-1E+10	1
4902549	117	C	11/10/2023	16:55	-132.952	47.400	0	126.00	0	6.5600	0	33.2790	0	26.123	0	124.911	0	221.0	4	73.6	4	-1E+10	1	-1E+10	1	-1E+10	1	-1E+10	1	-1E+10	1	-1E+10	1
4902549	117	C	11/10/2023	16:55	-132.952	47.400	0	126.90	0	6.5560	0	33.2820	0	26.126	0	125.803	0	220.6	4	73.5	4	-1E+10	1	-1E+10	1	-1E+10	1	-1E+10	1	-1E+10	1	-1E+10	1
4902549	117	C	11/10/2023	16:55	-132.952	47.400	0	127.70	0	6.5410	0	33.2910	0	26.135	0	126.596	0	220.2	4	73.3	4	-1E+10	1	-1E+10	1	-1E+10	1	-1E+10	1	-1E+10	1	-1E+10	1
4902549	117	C	11/10/2023	16:55	-132.952	47.400	0	129.00	0	6.5280	0	33.2970	0	26.142	0	127.885	0	219.4	4	73.0	4	-1E+10	1	-1E+10	1	-1E+10	1	-1E+10	1	-1E+10	1	-1E+10	1
4902549	117	C	11/10/2023	16:55	-132.952	47.400	0	130.30	0	6.5060	0	33.3070	0	26.152	0	129.173	0	218.5	4	72.7	4	-1E+10	1	-1E+10	1	-1E+10	1	-1E+10	1	-1E+10	1	-1E+10	1
4902549	117	C	11/10/2023	16:55	-132.952	47.400	0	131.20	0	6.4970	0	33.3200	0	26.164	0	130.065	0	217.8	4	72.5	4	-1E+10	1	-1E+10	1	-1E+10	1	-1E+10	1	-1E+10	1	-1E+10	1
4902549	117	C	11/10/2023	16:55	-132.952	47.400	0	132.10	0	6.4690	0	33.3420	0	26.185	0	130.957	0	217.2	4	72.3	4	-1E+10	1	-1E+10	1	-1E+10	1	-1E+10	1	-1E+10	1	-1E+10	1
4902549	117	C	11/10/2023	16:55	-132.952	47.400	0	133.00	0	6.4530	0	33.3510	0	26.194	0	131.849	0	216.7	4	72.0	4	-1E+10	1	-1E+10	1	-1E+10	1	-1E+10	1	-1E+10	1	-1E+10	1
4902549	117	C	11/10/2023	16:55	-132.952	47.400	0	133.90	0	6.4560	0	33.3550	0	26.197	0	132.741	0	215.9	4	71.8	4	-1E+10	1	-1E+10	1	-1E+10	1	-1E+10	1	-1E+10	1	-1E+10	1
4902549	117	C	11/10/2023	16:55	-132.952	47.400	0	134.80	0	6.4590	0	33.3650	0	26.204	0	133.633	0	215.2	4	71.6	4	-1E+10	1	-1E+10	1	-1E+10	1	-1E+10	1	-1E+10	1	-1E+10	1
4902549	117	C	11/10/2023	16:55	-132.952	47.400	0	135.70	0	6.4580	0	33.3670	0	26.206	0	134.524	0	214.5	4	71.3	4	-1E+10	1	-1E+10	1	-1E+10	1	-1E+10	1	-1E+10	1	-1E+10	1
4902549	117	C	11/10/2023	16:55	-132.952	47.400	0	136.60	0	6.4560	0	33.3710	0	26.209	0	135.416	0	213.8	4	71.1	4	-1E+10	1	-1E+10	1	-1E+10	1	-1E+10	1	-1E+10	1	-1E+10	1
4902549	117	C	11/10/2023	16:55	-132.952	47.400	0	137.90	0	6.4480	0	33.3800	0	26.218	0	136.705	0	212.6	4	70.7	4	-1E+10	1	-1E+10	1	-1E+10	1	-1E+10	1	-1E+10	1	-1E+10	1
4902549	117	C	11/10/2023	16:55	-132.952	47.400	0	139.30	0	6.4360	0	33.3890	0	26.226	0	138.092	0	211.2	4	70.2	4	-1E+10	1	-1E+10	1	-1E+10	1	-1E+10	1	-1E+10	1	-1E+10	1
4902549	117	C	11/10/2023	16:55	-132.952	47.400	0	140.20	0	6.4340	0	33.3940	0	26.230	0	138.984	0	210.2	4	69.9	4	-1E+10	1	-1E+10	1	-1E+10	1	-1E+10	1	-1E+10	1	-1E+10	1
4902549	117	C	11/10/2023	16:55	-132.952	47.400	0	141.10	0	6.4340	0	33.4070	0	26.241	0	139.876	0	209.3	4	69.6	4	-1E+10	1	-1E+10	1	-1E+10	1	-1E+10	1	-1E+10	1	-1E+10	1
4902549	117	C	11/10/2023	16:55	-132.952	47.400	0	142.00	0	6.4340	0	33.4220	0	26.253	0	140.768	0	208.3	4	69.3	4	-1E+10	1	-1E+10	1	-1E+10	1	-1E+10	1	-1E+10	1	-1E+10	1
4902549	117	C	11/10/2023	16:55	-132.952	47.400	0	143.00	0	6.4330	0	33.4410	0	26.268	0	141.759	0	207.3	4	68.9	4	-1E+10	1	-1E+10	1	-1E+10	1	-1E+10	1	-1E+10	1	-1E+10	1
4902549	117	C	11/10/2023	16:55	-132.952	47.400	0	144.00	0	6.4360	0	33.4480	0	26.273	0	142.750	0	206.4	4	68.7	4	-1E+10	1	-1E+10	1	-1E+10	1	-1E+10	1	-1E+10	1	-1E+10	1
4902549	117	C	11/10/2023	16:55	-132.952	47.400	0	145.00	0	6.4370	0	33.4550	0	26.278	0	143.741	0	205.6	4	68.4	4	-1E+10	1	-1E+10	1	-1E+10	1	-1E+10	1	-1E+10	1	-1E+10	1
4902549	117	C	11/10/2023	16:55	-132.952	47.400	0	146.00	0	6.4310	0	33.4600	0	26.283	0	144.732	0	204.6	4	68.0	4	-1E+10	1	-1E+10	1	-1E+10	1	-1E+10	1	-1E+10	1	-1E+10	1
4902549	117	C	11/10/2023	16:55	-132.952	47.400	0	147.00	0	6.4200	0	33.4740	0	26.295	0	145.723	0	203.5	4	67.7	4	-1E+10	1	-1E+10	1	-1E+10	1	-1E+10	1	-1E+10	1	-1E+10	1
4902549	117	C	11/10/2023	16:55	-132.952	47.400	0	147.90	0	6.4220	0	33.4830	0	26.302	0	146.614	0	202.4	4	67.3	4	-1E+10	1	-1E+10	1	-1E+10	1	-1E+10	1	-1E+10	1	-1E+10	1
4902549	117	C	11/10/2023	16:55	-132.952	47.400	0	149.00	0	6.4110	0	33.4900	0	26.309	0	147.704	0	201.3	4	66.9	4	-1E+10	1	-1E+10	1	-1E+10	1	-1E+10	1	-1E+10	1	-1E+10	1
4902549	117	C	11/10/2023	16:55	-132.952	47.400	0	150.00	0	6.4140	0	33.5110	0	26.325	0	148.695	0	200.2	4	66.6	4	-1E+10	1	-1E+10	1	-1E+10	1	-1E+10	1	-1E+10	1	-1E+10	1
4902549	117	C	11/10/2023	16:55	-132.952	47.400	0	151.00	0	6.4020	0	33.5260	0	26.339	0	149.686	0	199.2	4	66.2	4	-1E+10	1	-1E+10	1	-1E+10	1	-1E+10	1	-1E+10	1	-1E+10	1
4902549	117	C	11/10/2023	16:55	-132.952	47.400	0	152.10	0	6.3990	0	33.5410	0	26.351	0	150.776	0	198.3	4	66.0	4	-1E+10	1	-1E+10	1	-1E+10	1	-1E+10	1	-1E+10	1	-1E+10	1
4902549	117	C	11/10/2023	16:55	-132.952	47.400	0	153.10	0	6.3850	0	33.5510	0	26.361	0	151.767	0	197.5	4	65.7	4	-1E+10	1	-1E+10	1	-1E+10	1	-1E+10	1	-1E+10	1	-1E+10	1
4902549	117	C	11/10/2023	16:55	-132.952	47.400	0	154.10	0	6.3790	0	33.5530	0	26.363	0	152.758	0	196.5	4	65.3	4	-1E+10	1	-1E+10	1	-1E+10	1	-1E+10	1	-1E+10	1	-1E+10	1
4902549	117	C	11/10/2023	16:55	-132.952	47.400	0	155.20	0	6.3460	0	33.5620	0	26.374	0	153.848	0	195.3	4	64.9	4	-1E+10	1	-1E+10	1	-1E+10	1	-1E+10	1	-1E+10	1	-1E+10	1
4902549	117	C	11/10/2023	16:55	-132.952	47.400	0	156.30	0	6.2750	0	33.5620	0	26.384	0	154.938	0	193.8	4	64.3	4	-1E+10	1	-1E+10	1	-1E+10	1	-1E+10	1	-1E+10	1	-1E+10	1
4902549	117	C	11/10/2023	16:55	-132.952	47.400	0	157.30	0	6.3060	0	33.5430	0	26.365	0	155.929	0	192.0	4	63.7	4	-1E+10	1	-1E+10	1	-1E+10	1	-1E+10	1	-1E+10	1	-1E+10	1
4902549	117	C	11/10/2023	16:55	-132.952	47.400	0	158.30	0	6.3780	0	33.6090	0	26.407	0	156.920	0	190.6	4	63.4	4	-1E+10	1	-1E+10	1	-1E+10	1	-1E+10	1	-1E+10	1	-1E+10	1
4902549	117	C	11/10/2023	16:55	-132.952	47.400	0	159.90	0	6.3630	0	33.6220	0	26.420	0	158.506	0	189.3	4	62.9	4	-1E+10	1	-1E+10	1	-1E+10	1	-1E+10	1	-1E+10	1	-1E+10	1
4902549	117	C	11/10/2023	16:55	-132.952	47.400	0	161.10	0	6.3520	0	33.6270	0	26.425	0	159.695	0	188.3	4	62.6	4	-1E+10	1	-1E+10	1	-1E+10	1	-1E+10	1	-1E+10	1	-1E+10	1
4902549	117	C	11/10/2023	16:55	-132.952	47.400	0	161.90	0	6.3170	0	33.6380	0	26.438	0	160.487	0	187.7	4	62.3	4	-1E+10	1	-1E+10	1	-1E+10	1	-1E+10	1	-1E+10	1	-1E+10	1
4902549	117	C	11/10/2023	16:55	-132.952	47.400	0	162.70	0	6.2930	0	33.6460	0	26.448	0	161.280	0	187.0	4	62.1	4	-1E+10	1	-1E+10	1	-1E+10	1	-1E+10	1	-1E+10	1	-1E+10	1
4902549	117	C	11/10/2023	16:55	-132.952	47.400	0	163.90	0	6.2670	0	33.6540	0	26.457	0	162.469	0	186.0	4	61.7	4	-1E+10	1	-1E+10	1	-1E+10	1	-1E+10	1	-1E+10	1	-1E+10	1
4902549	117	C	11/10/2023	16:55	-132.952	47.400	0	165.20	0	6.2550	0	33.6580	0	26.462	0	163.757	0	184.8	4	61.3	4	-1E+10	1	-1E+10	1	-1E+10	1	-1E+10	1	-1E+10	1	-1E+10	1
4902549	117	C	11/10/2023	16:55	-132.952	47.400	0	166.00	0	6.2250	0	33.6680	0	26.474	0	164.550	0	184.1	4	61.0	4	-1E+10	1	-1E+10	1	-1E+10	1	-1E+10	1	-1E+10	1	-1E+10	1
4902549	117	C	11/10/2023	16:55	-132.952	47.400	0	166.90	0	6.2100	0	33.6720	0	26.479	0	165.442	0	183.6	4	60.8	4	-1E+10	1	-1E+10	1	-1E+10	1	-1E+10	1	-1E+10	1	-1E+10	1
4902549	117	C	11/10/2023	16:55	-132.952	47.400	0	167.70	0	6.2040	0	33.6740	0	26.481	0	166.234	0	182.9	4	60.6	4	-1E+10	1	-1E+10	1	-1E+10	1	-1E+10	1	-1E+10	1	-1E+10	1
4902549	117	C	11/10/2023	16:55	-132.952	47.400	0	168.90	0	6.1890	0	33.6800	0	26.488	0	167.423	0	181.9	4	60.3	4	-1E+10	1	-1E+10	1	-1E+10	1	-1E+10	1	-1E+10	1	-1E+10	1
4902549	117	C	11/10/2023	16:55	-132.952	47.400	0	170.20	0	6.1850	0	33.6820	0	26.490	0	168.712	0	180.8	4	59.9	4	-1E+10	1	-1E+10	1	-1E+10	1	-1E+10	1	-1E+10	1	-1E+10	1
4902549	117	C	11/10/2023	16:55	-132.952	47.400	0	171.00	0	6.1840	0	33.6820	0	26.490	0	169.504	0	179.9	4	59.6	4	-1E+10	1	-1E+10	1	-1E+10	1	-1E+10	1	-1E+10	1	-1E+10	1
4902549	117	C	11/10/2023	16:55	-132.952	47.400	0	171.80	0	6.1760	0	33.6840	0	26.493	0	170.297	0	179.1	4	59.3	4	-1E+10	1	-1E+10	1	-1E+10	1	-1E+10	1	-1E+10	1	-1E+10	1
4902549	117	C	11/10/2023	16:55	-132.952	47.400	0	172.90	0	6.1720	0	33.6860	0	26.495	0	171.387	0	177.6	4	58.8	4	-1E+10	1	-1E+10	1	-1E+10	1	-1E+10	1	-1E+10	1	-1E+10	1
4902549	117	C	11/10/2023	16:55	-132.952	47.400	0	174.10	0	6.1690	0	33.6880	0	26.497	0	172.576	0	176.0	4	58.3	4	-1E+10	1	-1E+10	1	-1E+10	1	-1E+10	1	-1E+10	1	-1E+10	1
4902549	117	C	11/10/2023	16:55	-132.952	47.400	0	174.90	0	6.1260	0	33.6960	0	26.508	0	173.368	0	174.9	4	57.9	4	-1E+10	1	-1E+10	1	-1E+10	1	-1E+10	1	-1E+10	1	-1E+10	1
4902549	117	C	11/10/2023	16:55	-132.952	47.400	0	175.70	0	6.1260	0	33.6970	0	26.509	0	174.161	0	173.8	4	57.5	4	-1E+10	1	-1E+10	1	-1E+10	1	-1E+10	1	-1E+10	1	-1E+10	1
4902549	117	C	11/10/2023	16:55	-132.952	47.400	0	176.90	0	6.1200	0	33.7060	0	26.517	0	175.350	0	172.3	4	57.0	4	-1E+10	1	-1E+10	1	-1E+10	1	-1E+10	1	-1E+10	1	-1E+10	1
4902549	117	C	11/10/2023	16:55	-132.952	47.400	0	178.10	0	6.1180	0	33.7100	0	26.521	0	176.539	0	171.1	4	56.6	4	-1E+10	1	-1E+10	1	-1E+10	1	-1E+10	1	-1E+10	1	-1E+10	1
4902549	117	C	11/10/2023	16:55	-132.952	47.400	0	178.90	0	6.1060	0	33.7130	0	26.524	0	177.332	0	170.2	4	56.3	4	-1E+10	1	-1E+10	1	-1E+10	1	-1E+10	1	-1E+10	1	-1E+10	1
4902549	117	C	11/10/2023	16:55	-132.952	47.400	0	179.70	0	6.1000	0	33.7160	0	26.528	0	178.124	0	169.4	4	56.0	4	-1E+10	1	-1E+10	1	-1E+10	1	-1E+10	1	-1E+10	1	-1E+10	1
4902549	117	C	11/10/2023	16:55	-132.952	47.400	0	180.90	0	6.0870	0	33.7190	0	26.532	0	179.313	0	168.1	4	55.6	4	-1E+10	1	-1E+10	1	-1E+10	1	-1E+10	1	-1E+10	1	-1E+10	1
4902549	117	C	11/10/2023	16:55	-132.952	47.400	0	182.10	0	6.0800	0	33.7210	0	26.534	0	180.502	0	166.8	4	55.1	4	-1E+10	1	-1E+10	1	-1E+10	1	-1E+10	1	-1E+10	1	-1E+10	1
4902549	117	C	11/10/2023	16:55	-132.952	47.400	0	182.90	0	6.0800	0	33.7230	0	26.536	0	181.295	0	165.8	4	54.8	4	-1E+10	1	-1E+10	1	-1E+10	1	-1E+10	1	-1E+10	1	-1E+10	1
4902549	117	C	11/10/2023	16:55	-132.952	47.400	0	183.70	0	6.0680	0	33.7250	0	26.539	0	182.087	0	164.8	4	54.5	4	-1E+10	1	-1E+10	1	-1E+10	1	-1E+10	1	-1E+10	1	-1E+10	1
4902549	117	C	11/10/2023	16:55	-132.952	47.400	0	184.90	0	6.0760	0	33.7330	0	26.544	0	183.276	0	163.8	4	54.2	4	-1E+10	1	-1E+10	1	-1E+10	1	-1E+10	1	-1E+10	1	-1E+10	1
4902549	117	C	11/10/2023	16:55	-132.952	47.400	0	186.20	0	6.0660	0	33.7360	0	26.548	0	184.564	0	163.0	4	53.9	4	-1E+10	1	-1E+10	1	-1E+10	1	-1E+10	1	-1E+10	1	-1E+10	1
4902549	117	C	11/10/2023	16:55	-132.952	47.400	0	187.00	0	6.0420	0	33.7420	0	26.555	0	185.357	0	162.3	4	53.6	4	-1E+10	1	-1E+10	1	-1E+10	1	-1E+10	1	-1E+10	1	-1E+10	1
4902549	117	C	11/10/2023	16:55	-132.952	47.400	0	187.90	0	6.0110	0	33.7370	0	26.555	0	186.249	0	161.9	4	53.4	4	-1E+10	1	-1E+10	1	-1E+10	1	-1E+10	1	-1E+10	1	-1E+10	1
4902549	117	C	11/10/2023	16:55	-132.952	47.400	0	188.70	0	5.9820	0	33.7400	0	26.561	0	187.041	0	161.4	4	53.2	4	-1E+10	1	-1E+10	1	-1E+10	1	-1E+10	1	-1E+10	1	-1E+10	1
4902549	117	C	11/10/2023	16:55	-132.952	47.400	0	190.00	0	5.9780	0	33.7420	0	26.564	0	188.329	0	160.7	4	53.0	4	-1E+10	1	-1E+10	1	-1E+10	1	-1E+10	1	-1E+10	1	-1E+10	1
4902549	117	C	11/10/2023	16:55	-132.952	47.400	0	191.30	0	5.9770	0	33.7420	0	26.564	0	189.617	0	159.9	4	52.7	4	-1E+10	1	-1E+10	1	-1E+10	1	-1E+10	1	-1E+10	1	-1E+10	1
4902549	117	C	11/10/2023	16:55	-132.952	47.400	0	192.10	0	5.9760	0	33.7420	0	26.564	0	190.410	0	159.2	4	52.5	4	-1E+10	1	-1E+10	1	-1E+10	1	-1E+10	1	-1E+10	1	-1E+10	1
4902549	117	C	11/10/2023	16:55	-132.952	47.400	0	193.00	0	5.9730	0	33.7420	0	26.564	0	191.302	0	158.4	4	52.2	4	-1E+10	1	-1E+10	1	-1E+10	1	-1E+10	1	-1E+10	1	-1E+10	1
4902549	117	C	11/10/2023	16:55	-132.952	47.400	0	193.90	0	5.9700	0	33.7420	0	26.565	0	192.193	0	157.6	4	52.0	4	-1E+10	1	-1E+10	1	-1E+10	1	-1E+10	1	-1E+10	1	-1E+10	1
4902549	117	C	11/10/2023	16:55	-132.952	47.400	0	194.80	0	5.9550	0	33.7460	0	26.570	0	193.085	0	156.9	4	51.7	4	-1E+10	1	-1E+10	1	-1E+10	1	-1E+10	1	-1E+10	1	-1E+10	1
4902549	117	C	11/10/2023	16:55	-132.952	47.400	0	195.70	0	5.9450	0	33.7460	0	26.571	0	193.977	0	156.1	4	51.4	4	-1E+10	1	-1E+10	1	-1E+10	1	-1E+10	1	-1E+10	1	-1E+10	1
4902549	117	C	11/10/2023	16:55	-132.952	47.400	0	196.70	0	5.9320	0	33.7490	0	26.575	0	194.967	0	155.4	4	51.2	4	-1E+10	1	-1E+10	1	-1E+10	1	-1E+10	1	-1E+10	1	-1E+10	1
4902549	117	C	11/10/2023	16:55	-132.952	47.400	0	197.60	0	5.9260	0	33.7480	0	26.575	0	195.859	0	154.8	4	51.0	4	-1E+10	1	-1E+10	1	-1E+10	1	-1E+10	1	-1E+10	1	-1E+10	1
4902549	117	C	11/10/2023	16:55	-132.952	47.400	0	198.90	0	5.9220	0	33.7470	0	26.575	0	197.147	0	153.8	4	50.6	4	-1E+10	1	-1E+10	1	-1E+10	1	-1E+10	1	-1E+10	1	-1E+10	1
4902549	117	C	11/10/2023	16:55	-132.952	47.400	0	200.40	0	5.9180	0	33.7470	0	26.575	0	198.633	0	152.5	4	50.2	4	-1E+10	1	-1E+10	1	-1E+10	1	-1E+10	1	-1E+10	1	-1E+10	1
4902549	117	C	11/10/2023	16:55	-132.952	47.400	0	201.30	0	5.8810	0	33.7510	0	26.583	0	199.525	0	151.8	4	50.0	4	-1E+10	1	-1E+10	1	-1E+10	1	-1E+10	1	-1E+10	1	-1E+10	1
4902549	117	C	11/10/2023	16:55	-132.952	47.400	0	202.30	0	5.8540	0	33.7500	0	26.585	0	200.515	0	151.2	4	49.7	4	-1E+10	1	-1E+10	1	-1E+10	1	-1E+10	1	-1E+10	1	-1E+10	1
4902549	117	C	11/10/2023	16:55	-132.952	47.400	0	203.30	0	5.8250	0	33.7520	0	26.590	0	201.506	0	150.6	4	49.5	4	-1E+10	1	-1E+10	1	-1E+10	1	-1E+10	1	-1E+10	1	-1E+10	1
4902549	117	C	11/10/2023	16:55	-132.952	47.400	0	204.20	0	5.8040	0	33.7490	0	26.591	0	202.398	0	150.0	4	49.3	4	-1E+10	1	-1E+10	1	-1E+10	1	-1E+10	1	-1E+10	1	-1E+10	1
4902549	117	C	11/10/2023	16:55	-132.952	47.400	0	205.20	0	5.7860	0	33.7540	0	26.597	0	203.388	0	149.4	4	49.1	4	-1E+10	1	-1E+10	1	-1E+10	1	-1E+10	1	-1E+10	1	-1E+10	1
4902549	117	C	11/10/2023	16:55	-132.952	47.400	0	206.20	0	5.7630	0	33.7520	0	26.598	0	204.379	0	149.0	4	48.9	4	-1E+10	1	-1E+10	1	-1E+10	1	-1E+10	1	-1E+10	1	-1E+10	1
4902549	117	C	11/10/2023	16:55	-132.952	47.400	0	207.20	0	5.7540	0	33.7530	0	26.600	0	205.370	0	148.5	4	48.7	4	-1E+10	1	-1E+10	1	-1E+10	1	-1E+10	1	-1E+10	1	-1E+10	1
4902549	117	C	11/10/2023	16:55	-132.952	47.400	0	208.20	0	5.7370	0	33.7520	0	26.601	0	206.360	0	148.0	4	48.5	4	-1E+10	1	-1E+10	1	-1E+10	1	-1E+10	1	-1E+10	1	-1E+10	1
4902549	117	C	11/10/2023	16:55	-132.952	47.400	0	209.20	0	5.7310	0	33.7520	0	26.602	0	207.351	0	147.4	4	48.3	4	-1E+10	1	-1E+10	1	-1E+10	1	-1E+10	1	-1E+10	1	-1E+10	1
4902549	117	C	11/10/2023	16:55	-132.952	47.400	0	210.20	0	5.7130	0	33.7510	0	26.603	0	208.342	0	146.8	4	48.1	4	-1E+10	1	-1E+10	1	-1E+10	1	-1E+10	1	-1E+10	1	-1E+10	1
4902549	117	C	11/10/2023	16:55	-132.952	47.400	0	211.20	0	5.7020	0	33.7500	0	26.604	0	209.332	0	146.1	4	47.9	4	-1E+10	1	-1E+10	1	-1E+10	1	-1E+10	1	-1E+10	1	-1E+10	1
4902549	117	C	11/10/2023	16:55	-132.952	47.400	0	212.20	0	5.6640	0	33.7500	0	26.609	0	210.323	0	145.5	4	47.6	4	-1E+10	1	-1E+10	1	-1E+10	1	-1E+10	1	-1E+10	1	-1E+10	1
4902549	117	C	11/10/2023	16:55	-132.952	47.400	0	213.30	0	5.6630	0	33.7500	0	26.609	0	211.413	0	144.8	4	47.4	4	-1E+10	1	-1E+10	1	-1E+10	1	-1E+10	1	-1E+10	1	-1E+10	1
4902549	117	C	11/10/2023	16:55	-132.952	47.400	0	214.30	0	5.6510	0	33.7510	0	26.611	0	212.403	0	144.0	4	47.1	4	-1E+10	1	-1E+10	1	-1E+10	1	-1E+10	1	-1E+10	1	-1E+10	1
4902549	117	C	11/10/2023	16:55	-132.952	47.400	0	215.30	0	5.6360	0	33.7510	0	26.613	0	213.394	0	143.3	4	46.9	4	-1E+10	1	-1E+10	1	-1E+10	1	-1E+10	1	-1E+10	1	-1E+10	1
4902549	117	C	11/10/2023	16:55	-132.952	47.400	0	216.30	0	5.6310	0	33.7510	0	26.613	0	214.384	0	142.5	4	46.6	4	-1E+10	1	-1E+10	1	-1E+10	1	-1E+10	1	-1E+10	1	-1E+10	1
4902549	117	C	11/10/2023	16:55	-132.952	47.400	0	217.40	0	5.6250	0	33.7510	0	26.614	0	215.474	0	141.5	4	46.3	4	-1E+10	1	-1E+10	1	-1E+10	1	-1E+10	1	-1E+10	1	-1E+10	1
4902549	117	C	11/10/2023	16:55	-132.952	47.400	0	218.40	0	5.6050	0	33.7520	0	26.617	0	216.465	0	140.5	4	46.0	4	-1E+10	1	-1E+10	1	-1E+10	1	-1E+10	1	-1E+10	1	-1E+10	1
4902549	117	C	11/10/2023	16:55	-132.952	47.400	0	219.40	0	5.5890	0	33.7530	0	26.620	0	217.455	0	139.6	4	45.6	4	-1E+10	1	-1E+10	1	-1E+10	1	-1E+10	1	-1E+10	1	-1E+10	1
4902549	117	C	11/10/2023	16:55	-132.952	47.400	0	220.40	0	5.6050	0	33.7580	0	26.622	0	218.446	0	138.6	4	45.3	4	-1E+10	1	-1E+10	1	-1E+10	1	-1E+10	1	-1E+10	1	-1E+10	1
4902549	117	C	11/10/2023	16:55	-132.952	47.400	0	221.40	0	5.5780	0	33.7560	0	26.624	0	219.437	0	137.7	4	45.0	4	-1E+10	1	-1E+10	1	-1E+10	1	-1E+10	1	-1E+10	1	-1E+10	1
4902549	117	C	11/10/2023	16:55	-132.952	47.400	0	222.40	0	5.5700	0	33.7540	0	26.623	0	220.427	0	136.6	4	44.6	4	-1E+10	1	-1E+10	1	-1E+10	1	-1E+10	1	-1E+10	1	-1E+10	1
4902549	117	C	11/10/2023	16:55	-132.952	47.400	0	223.50	0	5.5690	0	33.7570	0	26.626	0	221.517	0	135.5	4	44.3	4	-1E+10	1	-1E+10	1	-1E+10	1	-1E+10	1	-1E+10	1	-1E+10	1
4902549	117	C	11/10/2023	16:55	-132.952	47.400	0	224.50	0	5.5710	0	33.7560	0	26.625	0	222.507	0	134.3	4	43.9	4	-1E+10	1	-1E+10	1	-1E+10	1	-1E+10	1	-1E+10	1	-1E+10	1
4902549	117	C	11/10/2023	16:55	-132.952	47.400	0	225.50	0	5.5470	0	33.7660	0	26.635	0	223.498	0	133.3	4	43.5	4	-1E+10	1	-1E+10	1	-1E+10	1	-1E+10	1	-1E+10	1	-1E+10	1
4902549	117	C	11/10/2023	16:55	-132.952	47.400	0	226.50	0	5.5210	0	33.7620	0	26.635	0	224.489	0	132.4	4	43.2	4	-1E+10	1	-1E+10	1	-1E+10	1	-1E+10	1	-1E+10	1	-1E+10	1
4902549	117	C	11/10/2023	16:55	-132.952	47.400	0	227.60	0	5.5140	0	33.7620	0	26.636	0	225.578	0	131.4	4	42.9	4	-1E+10	1	-1E+10	1	-1E+10	1	-1E+10	1	-1E+10	1	-1E+10	1
4902549	117	C	11/10/2023	16:55	-132.952	47.400	0	228.60	0	5.4960	0	33.7650	0	26.641	0	226.569	0	130.5	4	42.6	4	-1E+10	1	-1E+10	1	-1E+10	1	-1E+10	1	-1E+10	1	-1E+10	1
4902549	117	C	11/10/2023	16:55	-132.952	47.400	0	229.60	0	5.4680	0	33.7660	0	26.645	0	227.559	0	129.7	4	42.3	4	-1E+10	1	-1E+10	1	-1E+10	1	-1E+10	1	-1E+10	1	-1E+10	1
4902549	117	C	11/10/2023	16:55	-132.952	47.400	0	230.70	0	5.4490	0	33.7660	0	26.647	0	228.649	0	128.9	4	42.0	4	-1E+10	1	-1E+10	1	-1E+10	1	-1E+10	1	-1E+10	1	-1E+10	1
4902549	117	C	11/10/2023	16:55	-132.952	47.400	0	231.70	0	5.4380	0	33.7660	0	26.648	0	229.640	0	128.1	4	41.7	4	-1E+10	1	-1E+10	1	-1E+10	1	-1E+10	1	-1E+10	1	-1E+10	1
4902549	117	C	11/10/2023	16:55	-132.952	47.400	0	232.70	0	5.4220	0	33.7660	0	26.650	0	230.630	0	127.2	4	41.4	4	-1E+10	1	-1E+10	1	-1E+10	1	-1E+10	1	-1E+10	1	-1E+10	1
4902549	117	C	11/10/2023	16:55	-132.952	47.400	0	233.70	0	5.4090	0	33.7670	0	26.653	0	231.621	0	126.4	4	41.1	4	-1E+10	1	-1E+10	1	-1E+10	1	-1E+10	1	-1E+10	1	-1E+10	1
4902549	117	C	11/10/2023	16:55	-132.952	47.400	0	234.70	0	5.3970	0	33.7660	0	26.653	0	232.611	0	125.5	4	40.8	4	-1E+10	1	-1E+10	1	-1E+10	1	-1E+10	1	-1E+10	1	-1E+10	1
4902549	117	C	11/10/2023	16:55	-132.952	47.400	0	235.70	0	5.3870	0	33.7660	0	26.654	0	233.602	0	124.5	4	40.5	4	-1E+10	1	-1E+10	1	-1E+10	1	-1E+10	1	-1E+10	1	-1E+10	1
4902549	117	C	11/10/2023	16:55	-132.952	47.400	0	236.80	0	5.3660	0	33.7670	0	26.658	0	234.691	0	123.6	4	40.2	4	-1E+10	1	-1E+10	1	-1E+10	1	-1E+10	1	-1E+10	1	-1E+10	1
4902549	117	C	11/10/2023	16:55	-132.952	47.400	0	237.80	0	5.3550	0	33.7710	0	26.662	0	235.682	0	122.7	4	39.9	4	-1E+10	1	-1E+10	1	-1E+10	1	-1E+10	1	-1E+10	1	-1E+10	1
4902549	117	C	11/10/2023	16:55	-132.952	47.400	0	238.80	0	5.3310	0	33.7720	0	26.666	0	236.672	0	121.9	4	39.6	4	-1E+10	1	-1E+10	1	-1E+10	1	-1E+10	1	-1E+10	1	-1E+10	1
4902549	117	C	11/10/2023	16:55	-132.952	47.400	0	239.80	0	5.3230	0	33.7760	0	26.670	0	237.663	0	121.2	4	39.4	4	-1E+10	1	-1E+10	1	-1E+10	1	-1E+10	1	-1E+10	1	-1E+10	1
4902549	117	C	11/10/2023	16:55	-132.952	47.400	0	240.90	0	5.3010	0	33.7740	0	26.671	0	238.752	0	120.6	4	39.1	4	-1E+10	1	-1E+10	1	-1E+10	1	-1E+10	1	-1E+10	1	-1E+10	1
4902549	117	C	11/10/2023	16:55	-132.952	47.400	0	241.90	0	5.2900	0	33.7780	0	26.675	0	239.743	0	119.9	4	38.9	4	-1E+10	1	-1E+10	1	-1E+10	1	-1E+10	1	-1E+10	1	-1E+10	1
4902549	117	C	11/10/2023	16:55	-132.952	47.400	0	242.90	0	5.2870	0	33.7760	0	26.674	0	240.733	0	119.3	4	38.7	4	-1E+10	1	-1E+10	1	-1E+10	1	-1E+10	1	-1E+10	1	-1E+10	1
4902549	117	C	11/10/2023	16:55	-132.952	47.400	0	243.90	0	5.2840	0	33.7760	0	26.675	0	241.724	0	118.6	4	38.5	4	-1E+10	1	-1E+10	1	-1E+10	1	-1E+10	1	-1E+10	1	-1E+10	1
4902549	117	C	11/10/2023	16:55	-132.952	47.400	0	244.90	0	5.2750	0	33.7790	0	26.678	0	242.714	0	117.9	4	38.2	4	-1E+10	1	-1E+10	1	-1E+10	1	-1E+10	1	-1E+10	1	-1E+10	1
4902549	117	C	11/10/2023	16:55	-132.952	47.400	0	245.90	0	5.2680	0	33.7790	0	26.679	0	243.705	0	117.1	4	38.0	4	-1E+10	1	-1E+10	1	-1E+10	1	-1E+10	1	-1E+10	1	-1E+10	1
4902549	117	C	11/10/2023	16:55	-132.952	47.400	0	246.90	0	5.2590	0	33.7800	0	26.681	0	244.695	0	116.4	4	37.8	4	-1E+10	1	-1E+10	1	-1E+10	1	-1E+10	1	-1E+10	1	-1E+10	1
4902549	117	C	11/10/2023	16:55	-132.952	47.400	0	247.90	0	5.2510	0	33.7810	0	26.682	0	245.686	0	115.7	4	37.5	4	-1E+10	1	-1E+10	1	-1E+10	1	-1E+10	1	-1E+10	1	-1E+10	1
4902549	117	C	11/10/2023	16:55	-132.952	47.400	0	248.90	0	5.2440	0	33.7820	0	26.684	0	246.676	0	115.0	4	37.3	4	-1E+10	1	-1E+10	1	-1E+10	1	-1E+10	1	-1E+10	1	-1E+10	1
4902549	117	C	11/10/2023	16:55	-132.952	47.400	0	249.90	0	5.2230	0	33.7850	0	26.689	0	247.667	0	114.4	4	37.1	4	-1E+10	1	-1E+10	1	-1E+10	1	-1E+10	1	-1E+10	1	-1E+10	1
4902549	117	C	11/10/2023	16:55	-132.952	47.400	0	250.90	0	5.2040	0	33.7880	0	26.693	0	248.657	0	113.9	4	36.9	4	-1E+10	1	-1E+10	1	-1E+10	1	-1E+10	1	-1E+10	1	-1E+10	1
4902549	117	C	11/10/2023	16:55	-132.952	47.400	0	251.90	0	5.1960	0	33.7860	0	26.693	0	249.648	0	113.5	4	36.7	4	-1E+10	1	-1E+10	1	-1E+10	1	-1E+10	1	-1E+10	1	-1E+10	1
4902549	117	C	11/10/2023	16:55	-132.952	47.400	0	252.90	0	5.1900	0	33.7870	0	26.694	0	250.638	0	112.9	4	36.6	4	-1E+10	1	-1E+10	1	-1E+10	1	-1E+10	1	-1E+10	1	-1E+10	1
4902549	117	C	11/10/2023	16:55	-132.952	47.400	0	253.90	0	5.1880	0	33.7870	0	26.694	0	251.629	0	112.4	4	36.4	4	-1E+10	1	-1E+10	1	-1E+10	1	-1E+10	1	-1E+10	1	-1E+10	1
4902549	117	C	11/10/2023	16:55	-132.952	47.400	0	254.90	0	5.1860	0	33.7870	0	26.695	0	252.619	0	111.8	4	36.2	4	-1E+10	1	-1E+10	1	-1E+10	1	-1E+10	1	-1E+10	1	-1E+10	1
4902549	117	C	11/10/2023	16:55	-132.952	47.400	0	255.90	0	5.1840	0	33.7880	0	26.696	0	253.609	0	111.1	4	36.0	4	-1E+10	1	-1E+10	1	-1E+10	1	-1E+10	1	-1E+10	1	-1E+10	1
4902549	117	C	11/10/2023	16:55	-132.952	47.400	0	256.90	0	5.1830	0	33.7870	0	26.695	0	254.600	0	110.3	4	35.7	4	-1E+10	1	-1E+10	1	-1E+10	1	-1E+10	1	-1E+10	1	-1E+10	1
4902549	117	C	11/10/2023	16:55	-132.952	47.400	0	257.90	0	5.1760	0	33.7890	0	26.697	0	255.590	0	109.7	4	35.5	4	-1E+10	1	-1E+10	1	-1E+10	1	-1E+10	1	-1E+10	1	-1E+10	1
4902549	117	C	11/10/2023	16:55	-132.952	47.400	0	258.90	0	5.1560	0	33.7910	0	26.701	0	256.581	0	109.0	4	35.3	4	-1E+10	1	-1E+10	1	-1E+10	1	-1E+10	1	-1E+10	1	-1E+10	1
4902549	117	C	11/10/2023	16:55	-132.952	47.400	0	259.90	0	5.1470	0	33.7930	0	26.704	0	257.571	0	108.4	4	35.1	4	-1E+10	1	-1E+10	1	-1E+10	1	-1E+10	1	-1E+10	1	-1E+10	1
4902549	117	C	11/10/2023	16:55	-132.952	47.400	0	261.00	0	5.1410	0	33.7930	0	26.705	0	258.661	0	107.7	4	34.8	4	-1E+10	1	-1E+10	1	-1E+10	1	-1E+10	1	-1E+10	1	-1E+10	1
4902549	117	C	11/10/2023	16:55	-132.952	47.400	0	262.00	0	5.1380	0	33.7930	0	26.705	0	259.651	0	107.1	4	34.6	4	-1E+10	1	-1E+10	1	-1E+10	1	-1E+10	1	-1E+10	1	-1E+10	1
4902549	117	C	11/10/2023	16:55	-132.952	47.400	0	262.90	0	5.1280	0	33.7930	0	26.706	0	260.542	0	106.4	4	34.4	4	-1E+10	1	-1E+10	1	-1E+10	1	-1E+10	1	-1E+10	1	-1E+10	1
4902549	117	C	11/10/2023	16:55	-132.952	47.400	0	263.90	0	5.1090	0	33.7960	0	26.711	0	261.533	0	105.9	4	34.2	4	-1E+10	1	-1E+10	1	-1E+10	1	-1E+10	1	-1E+10	1	-1E+10	1
4902549	117	C	11/10/2023	16:55	-132.952	47.400	0	265.00	0	5.1030	0	33.7960	0	26.711	0	262.622	0	105.3	4	34.0	4	-1E+10	1	-1E+10	1	-1E+10	1	-1E+10	1	-1E+10	1	-1E+10	1
4902549	117	C	11/10/2023	16:55	-132.952	47.400	0	266.00	0	5.1010	0	33.7950	0	26.711	0	263.613	0	104.7	4	33.8	4	-1E+10	1	-1E+10	1	-1E+10	1	-1E+10	1	-1E+10	1	-1E+10	1
4902549	117	C	11/10/2023	16:55	-132.952	47.400	0	266.90	0	5.0650	0	33.8040	0	26.722	0	264.504	0	104.1	4	33.6	4	-1E+10	1	-1E+10	1	-1E+10	1	-1E+10	1	-1E+10	1	-1E+10	1
4902549	117	C	11/10/2023	16:55	-132.952	47.400	0	268.00	0	5.0340	0	33.7990	0	26.722	0	265.593	0	103.6	4	33.4	4	-1E+10	1	-1E+10	1	-1E+10	1	-1E+10	1	-1E+10	1	-1E+10	1
4902549	117	C	11/10/2023	16:55	-132.952	47.400	0	268.90	0	5.0130	0	33.7930	0	26.719	0	266.485	0	103.1	4	33.3	4	-1E+10	1	-1E+10	1	-1E+10	1	-1E+10	1	-1E+10	1	-1E+10	1
4902549	117	C	11/10/2023	16:55	-132.952	47.400	0	269.90	0	4.9800	0	33.7950	0	26.725	0	267.475	0	102.6	4	33.1	4	-1E+10	1	-1E+10	1	-1E+10	1	-1E+10	1	-1E+10	1	-1E+10	1
4902549	117	C	11/10/2023	16:55	-132.952	47.400	0	270.80	0	4.9870	0	33.7960	0	26.725	0	268.366	0	102.1	4	32.9	4	-1E+10	1	-1E+10	1	-1E+10	1	-1E+10	1	-1E+10	1	-1E+10	1
4902549	117	C	11/10/2023	16:55	-132.952	47.400	0	272.00	0	4.9940	0	33.7990	0	26.726	0	269.555	0	101.4	4	32.7	4	-1E+10	1	-1E+10	1	-1E+10	1	-1E+10	1	-1E+10	1	-1E+10	1
4902549	117	C	11/10/2023	16:55	-132.952	47.400	0	272.70	0	4.9980	0	33.8000	0	26.727	0	270.248	0	100.9	4	32.5	4	-1E+10	1	-1E+10	1	-1E+10	1	-1E+10	1	-1E+10	1	-1E+10	1
4902549	117	C	11/10/2023	16:55	-132.952	47.400	0	273.80	0	5.0020	0	33.8030	0	26.729	0	271.338	0	100.2	4	32.3	4	-1E+10	1	-1E+10	1	-1E+10	1	-1E+10	1	-1E+10	1	-1E+10	1
4902549	117	C	11/10/2023	16:55	-132.952	47.400	0	275.00	0	5.0000	0	33.8030	0	26.729	0	272.526	0	99.6	4	32.1	4	-1E+10	1	-1E+10	1	-1E+10	1	-1E+10	1	-1E+10	1	-1E+10	1
4902549	117	C	11/10/2023	16:55	-132.952	47.400	0	275.80	0	4.9810	0	33.8040	0	26.732	0	273.318	0	99.2	4	32.0	4	-1E+10	1	-1E+10	1	-1E+10	1	-1E+10	1	-1E+10	1	-1E+10	1
4902549	117	C	11/10/2023	16:55	-132.952	47.400	0	276.90	0	4.9660	0	33.8020	0	26.732	0	274.408	0	98.5	4	31.7	4	-1E+10	1	-1E+10	1	-1E+10	1	-1E+10	1	-1E+10	1	-1E+10	1
4902549	117	C	11/10/2023	16:55	-132.952	47.400	0	278.10	0	4.9450	0	33.8030	0	26.735	0	275.596	0	97.8	4	31.5	4	-1E+10	1	-1E+10	1	-1E+10	1	-1E+10	1	-1E+10	1	-1E+10	1
4902549	117	C	11/10/2023	16:55	-132.952	47.400	0	278.90	0	4.9320	0	33.8010	0	26.735	0	276.388	0	97.3	4	31.3	4	-1E+10	1	-1E+10	1	-1E+10	1	-1E+10	1	-1E+10	1	-1E+10	1
4902549	117	C	11/10/2023	16:55	-132.952	47.400	0	279.70	0	4.9270	0	33.8010	0	26.735	0	277.181	0	96.7	4	31.1	4	-1E+10	1	-1E+10	1	-1E+10	1	-1E+10	1	-1E+10	1	-1E+10	1
4902549	117	C	11/10/2023	16:55	-132.952	47.400	0	280.90	0	4.9010	0	33.8030	0	26.740	0	278.369	0	96.0	4	30.9	4	-1E+10	1	-1E+10	1	-1E+10	1	-1E+10	1	-1E+10	1	-1E+10	1
4902549	117	C	11/10/2023	16:55	-132.952	47.400	0	282.10	0	4.8910	0	33.8050	0	26.743	0	279.557	0	95.3	4	30.6	4	-1E+10	1	-1E+10	1	-1E+10	1	-1E+10	1	-1E+10	1	-1E+10	1
4902549	117	C	11/10/2023	16:55	-132.952	47.400	0	282.90	0	4.8820	0	33.8040	0	26.743	0	280.350	0	94.8	4	30.5	4	-1E+10	1	-1E+10	1	-1E+10	1	-1E+10	1	-1E+10	1	-1E+10	1
4902549	117	C	11/10/2023	16:55	-132.952	47.400	0	283.70	0	4.8810	0	33.8030	0	26.742	0	281.142	0	94.2	4	30.3	4	-1E+10	1	-1E+10	1	-1E+10	1	-1E+10	1	-1E+10	1	-1E+10	1
4902549	117	C	11/10/2023	16:55	-132.952	47.400	0	284.90	0	4.8700	0	33.8040	0	26.744	0	282.330	0	93.3	4	30.0	4	-1E+10	1	-1E+10	1	-1E+10	1	-1E+10	1	-1E+10	1	-1E+10	1
4902549	117	C	11/10/2023	16:55	-132.952	47.400	0	286.10	0	4.8640	0	33.8040	0	26.745	0	283.518	0	92.4	4	29.7	4	-1E+10	1	-1E+10	1	-1E+10	1	-1E+10	1	-1E+10	1	-1E+10	1
4902549	117	C	11/10/2023	16:55	-132.952	47.400	0	286.90	0	4.8550	0	33.8050	0	26.747	0	284.311	0	91.8	4	29.5	4	-1E+10	1	-1E+10	1	-1E+10	1	-1E+10	1	-1E+10	1	-1E+10	1
4902549	117	C	11/10/2023	16:55	-132.952	47.400	0	287.70	0	4.8480	0	33.8050	0	26.748	0	285.103	0	91.2	4	29.3	4	-1E+10	1	-1E+10	1	-1E+10	1	-1E+10	1	-1E+10	1	-1E+10	1
4902549	117	C	11/10/2023	16:55	-132.952	47.400	0	288.90	0	4.8370	0	33.8050	0	26.749	0	286.291	0	90.2	4	29.0	4	-1E+10	1	-1E+10	1	-1E+10	1	-1E+10	1	-1E+10	1	-1E+10	1
4902549	117	C	11/10/2023	16:55	-132.952	47.400	0	290.20	0	4.8090	0	33.8050	0	26.752	0	287.579	0	89.3	4	28.7	4	-1E+10	1	-1E+10	1	-1E+10	1	-1E+10	1	-1E+10	1	-1E+10	1
4902549	117	C	11/10/2023	16:55	-132.952	47.400	0	291.10	0	4.7960	0	33.8080	0	26.756	0	288.470	0	88.8	4	28.5	4	-1E+10	1	-1E+10	1	-1E+10	1	-1E+10	1	-1E+10	1	-1E+10	1
4902549	117	C	11/10/2023	16:55	-132.952	47.400	0	291.90	0	4.7640	0	33.8110	0	26.762	0	289.262	0	88.4	4	28.4	4	-1E+10	1	-1E+10	1	-1E+10	1	-1E+10	1	-1E+10	1	-1E+10	1
4902549	117	C	11/10/2023	16:55	-132.952	47.400	0	292.70	0	4.7610	0	33.8110	0	26.762	0	290.054	0	88.1	4	28.2	4	-1E+10	1	-1E+10	1	-1E+10	1	-1E+10	1	-1E+10	1	-1E+10	1
4902549	117	C	11/10/2023	16:55	-132.952	47.400	0	294.00	0	4.7610	0	33.8130	0	26.764	0	291.342	0	87.6	4	28.1	4	-1E+10	1	-1E+10	1	-1E+10	1	-1E+10	1	-1E+10	1	-1E+10	1
4902549	117	C	11/10/2023	16:55	-132.952	47.400	0	295.30	0	4.7580	0	33.8150	0	26.766	0	292.629	0	87.1	4	27.9	4	-1E+10	1	-1E+10	1	-1E+10	1	-1E+10	1	-1E+10	1	-1E+10	1
4902549	117	C	11/10/2023	16:55	-132.952	47.400	0	296.10	0	4.7520	0	33.8180	0	26.769	0	293.421	0	86.7	4	27.8	4	-1E+10	1	-1E+10	1	-1E+10	1	-1E+10	1	-1E+10	1	-1E+10	1
4902549	117	C	11/10/2023	16:55	-132.952	47.400	0	296.90	0	4.7540	0	33.8150	0	26.766	0	294.213	0	86.3	4	27.7	4	-1E+10	1	-1E+10	1	-1E+10	1	-1E+10	1	-1E+10	1	-1E+10	1
4902549	117	C	11/10/2023	16:55	-132.952	47.400	0	297.80	0	4.7910	0	33.8230	0	26.768	0	295.105	0	85.9	4	27.6	4	-1E+10	1	-1E+10	1	-1E+10	1	-1E+10	1	-1E+10	1	-1E+10	1
4902549	117	C	11/10/2023	16:55	-132.952	47.400	0	298.70	0	4.8020	0	33.8280	0	26.771	0	295.996	0	85.4	4	27.4	4	-1E+10	1	-1E+10	1	-1E+10	1	-1E+10	1	-1E+10	1	-1E+10	1
4902549	117	C	11/10/2023	16:55	-132.952	47.400	0	299.90	0	4.8020	0	33.8270	0	26.770	0	297.184	0	84.9	4	27.2	4	-1E+10	1	-1E+10	1	-1E+10	1	-1E+10	1	-1E+10	1	-1E+10	1
4902549	117	C	11/10/2023	16:55	-132.952	47.400	0	301.20	0	4.8340	0	33.8320	0	26.771	0	298.471	0	84.2	4	27.0	4	-1E+10	1	-1E+10	1	-1E+10	1	-1E+10	1	-1E+10	1	-1E+10	1
4902549	117	C	11/10/2023	16:55	-132.952	47.400	0	302.00	0	4.8340	0	33.8340	0	26.772	0	299.264	0	83.8	4	26.9	4	-1E+10	1	-1E+10	1	-1E+10	1	-1E+10	1	-1E+10	1	-1E+10	1
4902549	117	C	11/10/2023	16:55	-132.952	47.400	0	302.90	0	4.8250	0	33.8350	0	26.774	0	300.155	0	83.4	4	26.8	4	-1E+10	1	-1E+10	1	-1E+10	1	-1E+10	1	-1E+10	1	-1E+10	1
4902549	117	C	11/10/2023	16:55	-132.952	47.400	0	303.80	0	4.8070	0	33.8340	0	26.775	0	301.046	0	83.0	4	26.6	4	-1E+10	1	-1E+10	1	-1E+10	1	-1E+10	1	-1E+10	1	-1E+10	1
4902549	117	C	11/10/2023	16:55	-132.952	47.400	0	304.60	0	4.8000	0	33.8340	0	26.776	0	301.838	0	82.7	4	26.5	4	-1E+10	1	-1E+10	1	-1E+10	1	-1E+10	1	-1E+10	1	-1E+10	1
4902549	117	C	11/10/2023	16:55	-132.952	47.400	0	305.90	0	4.7550	0	33.8350	0	26.782	0	303.125	0	82.3	4	26.4	4	-1E+10	1	-1E+10	1	-1E+10	1	-1E+10	1	-1E+10	1	-1E+10	1
4902549	117	C	11/10/2023	16:55	-132.952	47.400	0	307.20	0	4.7130	0	33.8310	0	26.783	0	304.413	0	81.9	4	26.2	4	-1E+10	1	-1E+10	1	-1E+10	1	-1E+10	1	-1E+10	1	-1E+10	1
4902549	117	C	11/10/2023	16:55	-132.952	47.400	0	308.10	0	4.7130	0	33.8300	0	26.782	0	305.304	0	81.6	4	26.1	4	-1E+10	1	-1E+10	1	-1E+10	1	-1E+10	1	-1E+10	1	-1E+10	1
4902549	117	C	11/10/2023	16:55	-132.952	47.400	0	309.00	0	4.7100	0	33.8310	0	26.784	0	306.195	0	81.3	4	26.0	4	-1E+10	1	-1E+10	1	-1E+10	1	-1E+10	1	-1E+10	1	-1E+10	1
4902549	117	C	11/10/2023	16:55	-132.952	47.400	0	309.90	0	4.7120	0	33.8300	0	26.783	0	307.086	0	80.9	4	25.9	4	-1E+10	1	-1E+10	1	-1E+10	1	-1E+10	1	-1E+10	1	-1E+10	1
4902549	117	C	11/10/2023	16:55	-132.952	47.400	0	310.70	0	4.7290	0	33.8350	0	26.785	0	307.878	0	80.5	4	25.8	4	-1E+10	1	-1E+10	1	-1E+10	1	-1E+10	1	-1E+10	1	-1E+10	1
4902549	117	C	11/10/2023	16:55	-132.952	47.400	0	311.60	0	4.7320	0	33.8370	0	26.786	0	308.769	0	80.2	4	25.7	4	-1E+10	1	-1E+10	1	-1E+10	1	-1E+10	1	-1E+10	1	-1E+10	1
4902549	117	C	11/10/2023	16:55	-132.952	47.400	0	312.90	0	4.7340	0	33.8390	0	26.787	0	310.057	0	79.7	4	25.5	4	-1E+10	1	-1E+10	1	-1E+10	1	-1E+10	1	-1E+10	1	-1E+10	1
4902549	117	C	11/10/2023	16:55	-132.952	47.400	0	314.20	0	4.7220	0	33.8440	0	26.793	0	311.344	0	79.3	4	25.4	4	-1E+10	1	-1E+10	1	-1E+10	1	-1E+10	1	-1E+10	1	-1E+10	1
4902549	117	C	11/10/2023	16:55	-132.952	47.400	0	315.00	0	4.7220	0	33.8440	0	26.793	0	312.136	0	79.1	4	25.3	4	-1E+10	1	-1E+10	1	-1E+10	1	-1E+10	1	-1E+10	1	-1E+10	1
4902549	117	C	11/10/2023	16:55	-132.952	47.400	0	315.90	0	4.7200	0	33.8440	0	26.793	0	313.027	0	78.8	4	25.3	4	-1E+10	1	-1E+10	1	-1E+10	1	-1E+10	1	-1E+10	1	-1E+10	1
4902549	117	C	11/10/2023	16:55	-132.952	47.400	0	316.70	0	4.7240	0	33.8450	0	26.793	0	313.819	0	78.5	4	25.2	4	-1E+10	1	-1E+10	1	-1E+10	1	-1E+10	1	-1E+10	1	-1E+10	1
4902549	117	C	11/10/2023	16:55	-132.952	47.400	0	317.60	0	4.7300	0	33.8480	0	26.795	0	314.710	0	78.2	4	25.1	4	-1E+10	1	-1E+10	1	-1E+10	1	-1E+10	1	-1E+10	1	-1E+10	1
4902549	117	C	11/10/2023	16:55	-132.952	47.400	0	318.90	0	4.7330	0	33.8490	0	26.795	0	315.998	0	77.7	4	24.9	4	-1E+10	1	-1E+10	1	-1E+10	1	-1E+10	1	-1E+10	1	-1E+10	1
4902549	117	C	11/10/2023	16:55	-132.952	47.400	0	320.20	0	4.7350	0	33.8510	0	26.797	0	317.285	0	77.2	4	24.8	4	-1E+10	1	-1E+10	1	-1E+10	1	-1E+10	1	-1E+10	1	-1E+10	1
4902549	117	C	11/10/2023	16:55	-132.952	47.400	0	321.00	0	4.7500	0	33.8540	0	26.798	0	318.077	0	76.9	4	24.6	4	-1E+10	1	-1E+10	1	-1E+10	1	-1E+10	1	-1E+10	1	-1E+10	1
4902549	117	C	11/10/2023	16:55	-132.952	47.400	0	321.90	0	4.7650	0	33.8550	0	26.797	0	318.968	0	76.4	4	24.5	4	-1E+10	1	-1E+10	1	-1E+10	1	-1E+10	1	-1E+10	1	-1E+10	1
4902549	117	C	11/10/2023	16:55	-132.952	47.400	0	322.80	0	4.7700	0	33.8590	0	26.799	0	319.859	0	76.0	4	24.4	4	-1E+10	1	-1E+10	1	-1E+10	1	-1E+10	1	-1E+10	1	-1E+10	1
4902549	117	C	11/10/2023	16:55	-132.952	47.400	0	323.60	0	4.7740	0	33.8600	0	26.800	0	320.651	0	75.6	4	24.3	4	-1E+10	1	-1E+10	1	-1E+10	1	-1E+10	1	-1E+10	1	-1E+10	1
4902549	117	C	11/10/2023	16:55	-132.952	47.400	0	324.90	0	4.7680	0	33.8610	0	26.801	0	321.938	0	75.0	4	24.1	4	-1E+10	1	-1E+10	1	-1E+10	1	-1E+10	1	-1E+10	1	-1E+10	1
4902549	117	C	11/10/2023	16:55	-132.952	47.400	0	326.20	0	4.7420	0	33.8580	0	26.802	0	323.225	0	74.5	4	23.9	4	-1E+10	1	-1E+10	1	-1E+10	1	-1E+10	1	-1E+10	1	-1E+10	1
4902549	117	C	11/10/2023	16:55	-132.952	47.400	0	327.00	0	4.6510	0	33.8550	0	26.809	0	324.017	0	74.3	4	23.8	4	-1E+10	1	-1E+10	1	-1E+10	1	-1E+10	1	-1E+10	1	-1E+10	1
4902549	117	C	11/10/2023	16:55	-132.952	47.400	0	327.90	0	4.6590	0	33.8480	0	26.803	0	324.909	0	74.0	4	23.7	4	-1E+10	1	-1E+10	1	-1E+10	1	-1E+10	1	-1E+10	1	-1E+10	1
4902549	117	C	11/10/2023	16:55	-132.952	47.400	0	328.70	0	4.6740	0	33.8590	0	26.810	0	325.701	0	73.7	4	23.6	4	-1E+10	1	-1E+10	1	-1E+10	1	-1E+10	1	-1E+10	1	-1E+10	1
4902549	117	C	11/10/2023	16:55	-132.952	47.400	0	329.60	0	4.6880	0	33.8630	0	26.812	0	326.592	0	73.3	4	23.5	4	-1E+10	1	-1E+10	1	-1E+10	1	-1E+10	1	-1E+10	1	-1E+10	1
4902549	117	C	11/10/2023	16:55	-132.952	47.400	0	330.90	0	4.6860	0	33.8630	0	26.812	0	327.879	0	72.8	4	23.3	4	-1E+10	1	-1E+10	1	-1E+10	1	-1E+10	1	-1E+10	1	-1E+10	1
4902549	117	C	11/10/2023	16:55	-132.952	47.400	0	332.20	0	4.6860	0	33.8660	0	26.814	0	329.166	0	72.3	4	23.1	4	-1E+10	1	-1E+10	1	-1E+10	1	-1E+10	1	-1E+10	1	-1E+10	1
4902549	117	C	11/10/2023	16:55	-132.952	47.400	0	333.00	0	4.6530	0	33.8660	0	26.818	0	329.958	0	72.0	4	23.0	4	-1E+10	1	-1E+10	1	-1E+10	1	-1E+10	1	-1E+10	1	-1E+10	1
4902549	117	C	11/10/2023	16:55	-132.952	47.400	0	333.90	0	4.6430	0	33.8640	0	26.817	0	330.849	0	71.7	4	22.9	4	-1E+10	1	-1E+10	1	-1E+10	1	-1E+10	1	-1E+10	1	-1E+10	1
4902549	117	C	11/10/2023	16:55	-132.952	47.400	0	334.80	0	4.6490	0	33.8690	0	26.821	0	331.740	0	71.4	4	22.8	4	-1E+10	1	-1E+10	1	-1E+10	1	-1E+10	1	-1E+10	1	-1E+10	1
4902549	117	C	11/10/2023	16:55	-132.952	47.400	0	335.60	0	4.6530	0	33.8680	0	26.819	0	332.532	0	71.1	4	22.7	4	-1E+10	1	-1E+10	1	-1E+10	1	-1E+10	1	-1E+10	1	-1E+10	1
4902549	117	C	11/10/2023	16:55	-132.952	47.400	0	336.90	0	4.6700	0	33.8730	0	26.822	0	333.819	0	70.6	4	22.6	4	-1E+10	1	-1E+10	1	-1E+10	1	-1E+10	1	-1E+10	1	-1E+10	1
4902549	117	C	11/10/2023	16:55	-132.952	47.400	0	338.20	0	4.7130	0	33.8820	0	26.824	0	335.106	0	70.0	4	22.4	4	-1E+10	1	-1E+10	1	-1E+10	1	-1E+10	1	-1E+10	1	-1E+10	1
4902549	117	C	11/10/2023	16:55	-132.952	47.400	0	339.10	0	4.7130	0	33.8820	0	26.824	0	335.997	0	69.8	4	22.4	4	-1E+10	1	-1E+10	1	-1E+10	1	-1E+10	1	-1E+10	1	-1E+10	1
4902549	117	C	11/10/2023	16:55	-132.952	47.400	0	339.90	0	4.7110	0	33.8820	0	26.824	0	336.789	0	69.4	4	22.3	4	-1E+10	1	-1E+10	1	-1E+10	1	-1E+10	1	-1E+10	1	-1E+10	1
4902549	117	C	11/10/2023	16:55	-132.952	47.400	0	340.70	0	4.6940	0	33.8810	0	26.825	0	337.581	0	69.1	4	22.1	4	-1E+10	1	-1E+10	1	-1E+10	1	-1E+10	1	-1E+10	1	-1E+10	1
4902549	117	C	11/10/2023	16:55	-132.952	47.400	0	341.60	0	4.6770	0	33.8810	0	26.827	0	338.472	0	68.8	4	22.0	4	-1E+10	1	-1E+10	1	-1E+10	1	-1E+10	1	-1E+10	1	-1E+10	1
4902549	117	C	11/10/2023	16:55	-132.952	47.400	0	342.90	0	4.6460	0	33.8810	0	26.831	0	339.759	0	68.3	4	21.9	4	-1E+10	1	-1E+10	1	-1E+10	1	-1E+10	1	-1E+10	1	-1E+10	1
4902549	117	C	11/10/2023	16:55	-132.952	47.400	0	344.20	0	4.6310	0	33.8840	0	26.835	0	341.046	0	68.0	4	21.7	4	-1E+10	1	-1E+10	1	-1E+10	1	-1E+10	1	-1E+10	1	-1E+10	1
4902549	117	C	11/10/2023	16:55	-132.952	47.400	0	345.10	0	4.6380	0	33.8850	0	26.835	0	341.937	0	67.8	4	21.7	4	-1E+10	1	-1E+10	1	-1E+10	1	-1E+10	1	-1E+10	1	-1E+10	1
4902549	117	C	11/10/2023	16:55	-132.952	47.400	0	346.00	0	4.6370	0	33.8870	0	26.836	0	342.828	0	67.6	4	21.6	4	-1E+10	1	-1E+10	1	-1E+10	1	-1E+10	1	-1E+10	1	-1E+10	1
4902549	117	C	11/10/2023	16:55	-132.952	47.400	0	346.80	0	4.6370	0	33.8870	0	26.836	0	343.620	0	67.5	4	21.6	4	-1E+10	1	-1E+10	1	-1E+10	1	-1E+10	1	-1E+10	1	-1E+10	1
4902549	117	C	11/10/2023	16:55	-132.952	47.400	0	347.70	0	4.6370	0	33.8880	0	26.837	0	344.511	0	67.3	4	21.5	4	-1E+10	1	-1E+10	1	-1E+10	1	-1E+10	1	-1E+10	1	-1E+10	1
4902549	117	C	11/10/2023	16:55	-132.952	47.400	0	348.60	0	4.6340	0	33.8880	0	26.838	0	345.402	0	67.0	4	21.4	4	-1E+10	1	-1E+10	1	-1E+10	1	-1E+10	1	-1E+10	1	-1E+10	1
4902549	117	C	11/10/2023	16:55	-132.952	47.400	0	349.90	0	4.6250	0	33.8860	0	26.837	0	346.689	0	66.8	4	21.3	4	-1E+10	1	-1E+10	1	-1E+10	1	-1E+10	1	-1E+10	1	-1E+10	1
4902549	117	C	11/10/2023	16:55	-132.952	47.400	0	353.00	0	4.5810	0	33.8840	0	26.840	0	349.758	0	66.0	4	21.1	4	-1E+10	1	-1E+10	1	-1E+10	1	-1E+10	1	-1E+10	1	-1E+10	1
4902549	117	C	11/10/2023	16:55	-132.952	47.400	0	357.80	0	4.5450	0	33.8850	0	26.845	0	354.510	0	64.8	4	20.7	4	-1E+10	1	-1E+10	1	-1E+10	1	-1E+10	1	-1E+10	1	-1E+10	1
4902549	117	C	11/10/2023	16:55	-132.952	47.400	0	362.80	0	4.5200	0	33.8880	0	26.850	0	359.460	0	63.4	4	20.2	4	-1E+10	1	-1E+10	1	-1E+10	1	-1E+10	1	-1E+10	1	-1E+10	1
4902549	117	C	11/10/2023	16:55	-132.952	47.400	0	367.70	0	4.4850	0	33.8910	0	26.856	0	364.310	0	62.0	4	19.8	4	-1E+10	1	-1E+10	1	-1E+10	1	-1E+10	1	-1E+10	1	-1E+10	1
4902549	117	C	11/10/2023	16:55	-132.952	47.400	0	373.20	0	4.4630	0	33.8970	0	26.863	0	369.755	0	60.6	4	19.3	4	-1E+10	1	-1E+10	1	-1E+10	1	-1E+10	1	-1E+10	1	-1E+10	1
4902549	117	C	11/10/2023	16:55	-132.952	47.400	0	378.10	0	4.4980	0	33.9090	0	26.869	0	374.605	0	59.2	4	18.9	4	-1E+10	1	-1E+10	1	-1E+10	1	-1E+10	1	-1E+10	1	-1E+10	1
4902549	117	C	11/10/2023	16:55	-132.952	47.400	0	382.70	0	4.4610	0	33.9110	0	26.875	0	379.159	0	58.2	4	18.5	4	-1E+10	1	-1E+10	1	-1E+10	1	-1E+10	1	-1E+10	1	-1E+10	1
4902549	117	C	11/10/2023	16:55	-132.952	47.400	0	387.70	0	4.4540	0	33.9150	0	26.879	0	384.108	0	56.8	4	18.1	4	-1E+10	1	-1E+10	1	-1E+10	1	-1E+10	1	-1E+10	1	-1E+10	1
4902549	117	C	11/10/2023	16:55	-132.952	47.400	0	392.90	0	4.4350	0	33.9250	0	26.889	0	389.255	0	55.7	4	17.7	4	-1E+10	1	-1E+10	1	-1E+10	1	-1E+10	1	-1E+10	1	-1E+10	1
4902549	117	C	11/10/2023	16:55	-132.952	47.400	0	397.80	0	4.3610	0	33.9210	0	26.893	0	394.104	0	55.0	4	17.5	4	-1E+10	1	-1E+10	1	-1E+10	1	-1E+10	1	-1E+10	1	-1E+10	1
4902549	117	C	11/10/2023	16:55	-132.952	47.400	0	402.60	0	4.3520	0	33.9250	0	26.898	0	398.855	0	54.0	4	17.2	4	-1E+10	1	-1E+10	1	-1E+10	1	-1E+10	1	-1E+10	1	-1E+10	1
4902549	117	C	11/10/2023	16:55	-132.952	47.400	0	407.50	0	4.3580	0	33.9320	0	26.903	0	403.705	0	53.0	4	16.9	4	-1E+10	1	-1E+10	1	-1E+10	1	-1E+10	1	-1E+10	1	-1E+10	1
4902549	117	C	11/10/2023	16:55	-132.952	47.400	0	412.50	0	4.3650	0	33.9400	0	26.908	0	408.653	0	51.9	4	16.5	4	-1E+10	1	-1E+10	1	-1E+10	1	-1E+10	1	-1E+10	1	-1E+10	1
4902549	117	C	11/10/2023	16:55	-132.952	47.400	0	417.50	0	4.3550	0	33.9480	0	26.916	0	413.602	0	51.0	4	16.2	4	-1E+10	1	-1E+10	1	-1E+10	1	-1E+10	1	-1E+10	1	-1E+10	1
4902549	117	C	11/10/2023	16:55	-132.952	47.400	0	422.60	0	4.3410	0	33.9530	0	26.921	0	418.649	0	49.9	4	15.9	4	-1E+10	1	-1E+10	1	-1E+10	1	-1E+10	1	-1E+10	1	-1E+10	1
4902549	117	C	11/10/2023	16:55	-132.952	47.400	0	427.80	0	4.3290	0	33.9600	0	26.928	0	423.795	0	48.9	4	15.5	4	-1E+10	1	-1E+10	1	-1E+10	1	-1E+10	1	-1E+10	1	-1E+10	1
4902549	117	C	11/10/2023	16:55	-132.952	47.400	0	433.00	0	4.3160	0	33.9670	0	26.935	0	428.941	0	48.0	4	15.3	4	-1E+10	1	-1E+10	1	-1E+10	1	-1E+10	1	-1E+10	1	-1E+10	1
4902549	117	C	11/10/2023	16:55	-132.952	47.400	0	437.80	0	4.3080	0	33.9720	0	26.940	0	433.691	0	47.3	4	15.0	4	-1E+10	1	-1E+10	1	-1E+10	1	-1E+10	1	-1E+10	1	-1E+10	1
4902549	117	C	11/10/2023	16:55	-132.952	47.400	0	442.50	0	4.3000	0	33.9780	0	26.945	0	438.342	0	46.4	4	14.7	4	-1E+10	1	-1E+10	1	-1E+10	1	-1E+10	1	-1E+10	1	-1E+10	1
4902549	117	C	11/10/2023	16:55	-132.952	47.400	0	447.70	0	4.2900	0	33.9830	0	26.951	0	443.488	0	45.3	4	14.4	4	-1E+10	1	-1E+10	1	-1E+10	1	-1E+10	1	-1E+10	1	-1E+10	1
4902549	117	C	11/10/2023	16:55	-132.952	47.400	0	452.90	0	4.2860	0	33.9900	0	26.957	0	448.633	0	44.0	4	14.0	4	-1E+10	1	-1E+10	1	-1E+10	1	-1E+10	1	-1E+10	1	-1E+10	1
4902549	117	C	11/10/2023	16:55	-132.952	47.400	0	458.20	0	4.2780	0	33.9940	0	26.961	0	453.877	0	42.9	4	13.6	4	-1E+10	1	-1E+10	1	-1E+10	1	-1E+10	1	-1E+10	1	-1E+10	1
4902549	117	C	11/10/2023	16:55	-132.952	47.400	0	463.20	0	4.2720	0	33.9990	0	26.965	0	458.825	0	41.7	4	13.2	4	-1E+10	1	-1E+10	1	-1E+10	1	-1E+10	1	-1E+10	1	-1E+10	1
4902549	117	C	11/10/2023	16:55	-132.952	47.400	0	468.30	0	4.2700	0	34.0050	0	26.970	0	463.871	0	40.3	4	12.8	4	-1E+10	1	-1E+10	1	-1E+10	1	-1E+10	1	-1E+10	1	-1E+10	1
4902549	117	C	11/10/2023	16:55	-132.952	47.400	0	473.00	0	4.2640	0	34.0090	0	26.974	0	468.521	0	39.2	4	12.5	4	-1E+10	1	-1E+10	1	-1E+10	1	-1E+10	1	-1E+10	1	-1E+10	1
4902549	117	C	11/10/2023	16:55	-132.952	47.400	0	477.80	0	4.2560	0	34.0150	0	26.980	0	473.270	0	38.3	4	12.1	4	-1E+10	1	-1E+10	1	-1E+10	1	-1E+10	1	-1E+10	1	-1E+10	1
4902549	117	C	11/10/2023	16:55	-132.952	47.400	0	483.10	0	4.2500	0	34.0190	0	26.984	0	478.514	0	37.6	4	11.9	4	-1E+10	1	-1E+10	1	-1E+10	1	-1E+10	1	-1E+10	1	-1E+10	1
4902549	117	C	11/10/2023	16:55	-132.952	47.400	0	488.10	0	4.2450	0	34.0220	0	26.987	0	483.460	0	36.9	4	11.7	4	-1E+10	1	-1E+10	1	-1E+10	1	-1E+10	1	-1E+10	1	-1E+10	1
4902549	117	C	11/10/2023	16:55	-132.952	47.400	0	493.00	0	4.2440	0	34.0270	0	26.991	0	488.308	0	36.1	4	11.5	4	-1E+10	1	-1E+10	1	-1E+10	1	-1E+10	1	-1E+10	1	-1E+10	1
4902549	117	C	11/10/2023	16:55	-132.952	47.400	0	498.10	0	4.2310	0	34.0300	0	26.994	0	493.354	0	35.7	4	11.3	4	-1E+10	1	-1E+10	1	-1E+10	1	-1E+10	1	-1E+10	1	-1E+10	1
4902549	117	C	11/10/2023	16:55	-132.952	47.400	0	502.80	0	4.1760	0	34.0290	0	26.999	0	498.003	0	35.4	4	11.2	4	-1E+10	1	-1E+10	1	-1E+10	1	-1E+10	1	-1E+10	1	-1E+10	1
4902549	117	C	11/10/2023	16:55	-132.952	47.400	0	507.90	0	4.1610	0	34.0320	0	27.003	0	503.048	0	34.7	4	11.0	4	-1E+10	1	-1E+10	1	-1E+10	1	-1E+10	1	-1E+10	1	-1E+10	1
4902549	117	C	11/10/2023	16:55	-132.952	47.400	0	513.10	0	4.1600	0	34.0350	0	27.006	0	508.192	0	34.1	4	10.8	4	-1E+10	1	-1E+10	1	-1E+10	1	-1E+10	1	-1E+10	1	-1E+10	1
4902549	117	C	11/10/2023	16:55	-132.952	47.400	0	518.00	0	4.1520	0	34.0390	0	27.010	0	513.039	0	33.3	4	10.5	4	-1E+10	1	-1E+10	1	-1E+10	1	-1E+10	1	-1E+10	1	-1E+10	1
4902549	117	C	11/10/2023	16:55	-132.952	47.400	0	522.70	0	4.1580	0	34.0460	0	27.015	0	517.688	0	32.7	4	10.3	4	-1E+10	1	-1E+10	1	-1E+10	1	-1E+10	1	-1E+10	1	-1E+10	1
4902549	117	C	11/10/2023	16:55	-132.952	47.400	0	528.00	0	4.1300	0	34.0500	0	27.021	0	522.931	0	32.1	4	10.1	4	-1E+10	1	-1E+10	1	-1E+10	1	-1E+10	1	-1E+10	1	-1E+10	1
4902549	117	C	11/10/2023	16:55	-132.952	47.400	0	533.20	0	4.1220	0	34.0530	0	27.024	0	528.074	0	31.4	4	9.9	4	-1E+10	1	-1E+10	1	-1E+10	1	-1E+10	1	-1E+10	1	-1E+10	1
4902549	117	C	11/10/2023	16:55	-132.952	47.400	0	538.00	0	4.1200	0	34.0570	0	27.028	0	532.822	0	30.5	4	9.6	4	-1E+10	1	-1E+10	1	-1E+10	1	-1E+10	1	-1E+10	1	-1E+10	1
4902549	117	C	11/10/2023	16:55	-132.952	47.400	0	542.80	0	4.1000	0	34.0650	0	27.036	0	537.570	0	29.7	4	9.4	4	-1E+10	1	-1E+10	1	-1E+10	1	-1E+10	1	-1E+10	1	-1E+10	1
4902549	117	C	11/10/2023	16:55	-132.952	47.400	0	548.00	0	4.0840	0	34.0690	0	27.041	0	542.713	0	28.8	4	9.1	4	-1E+10	1	-1E+10	1	-1E+10	1	-1E+10	1	-1E+10	1	-1E+10	1
4902549	117	C	11/10/2023	16:55	-132.952	47.400	0	553.20	0	4.0650	0	34.0750	0	27.048	0	547.856	0	28.0	4	8.9	4	-1E+10	1	-1E+10	1	-1E+10	1	-1E+10	1	-1E+10	1	-1E+10	1
4902549	117	C	11/10/2023	16:55	-132.952	47.400	0	557.80	0	4.0560	0	34.0800	0	27.053	0	552.405	0	27.5	4	8.7	4	-1E+10	1	-1E+10	1	-1E+10	1	-1E+10	1	-1E+10	1	-1E+10	1
4902549	117	C	11/10/2023	16:55	-132.952	47.400	0	562.80	0	4.0490	0	34.0840	0	27.057	0	557.350	0	26.8	4	8.5	4	-1E+10	1	-1E+10	1	-1E+10	1	-1E+10	1	-1E+10	1	-1E+10	1
4902549	117	C	11/10/2023	16:55	-132.952	47.400	0	567.80	0	4.0370	0	34.0920	0	27.064	0	562.295	0	25.9	4	8.2	4	-1E+10	1	-1E+10	1	-1E+10	1	-1E+10	1	-1E+10	1	-1E+10	1
4902549	117	C	11/10/2023	16:55	-132.952	47.400	0	572.80	0	4.0250	0	34.0980	0	27.070	0	567.240	0	25.1	4	7.9	4	-1E+10	1	-1E+10	1	-1E+10	1	-1E+10	1	-1E+10	1	-1E+10	1
4902549	117	C	11/10/2023	16:55	-132.952	47.400	0	578.10	0	4.0080	0	34.1070	0	27.079	0	572.481	0	24.1	4	7.6	4	-1E+10	1	-1E+10	1	-1E+10	1	-1E+10	1	-1E+10	1	-1E+10	1
4902549	117	C	11/10/2023	16:55	-132.952	47.400	0	582.90	0	3.9940	0	34.1130	0	27.086	0	577.228	0	23.3	4	7.4	4	-1E+10	1	-1E+10	1	-1E+10	1	-1E+10	1	-1E+10	1	-1E+10	1
4902549	117	C	11/10/2023	16:55	-132.952	47.400	0	587.70	0	3.9790	0	34.1200	0	27.093	0	581.974	0	22.7	4	7.2	4	-1E+10	1	-1E+10	1	-1E+10	1	-1E+10	1	-1E+10	1	-1E+10	1
4902549	117	C	11/10/2023	16:55	-132.952	47.400	0	592.90	0	3.9650	0	34.1250	0	27.098	0	587.116	0	22.1	4	7.0	4	-1E+10	1	-1E+10	1	-1E+10	1	-1E+10	1	-1E+10	1	-1E+10	1
4902549	117	C	11/10/2023	16:55	-132.952	47.400	0	598.10	0	3.9500	0	34.1310	0	27.104	0	592.258	0	21.3	4	6.7	4	-1E+10	1	-1E+10	1	-1E+10	1	-1E+10	1	-1E+10	1	-1E+10	1
4902549	117	C	11/10/2023	16:55	-132.952	47.400	0	602.90	0	3.9330	0	34.1370	0	27.111	0	597.004	0	20.7	4	6.5	4	-1E+10	1	-1E+10	1	-1E+10	1	-1E+10	1	-1E+10	1	-1E+10	1
4902549	117	C	11/10/2023	16:55	-132.952	47.400	0	607.90	0	3.9210	0	34.1410	0	27.115	0	601.948	0	20.3	4	6.4	4	-1E+10	1	-1E+10	1	-1E+10	1	-1E+10	1	-1E+10	1	-1E+10	1
4902549	117	C	11/10/2023	16:55	-132.952	47.400	0	612.80	0	3.9130	0	34.1450	0	27.119	0	606.793	0	19.9	4	6.3	4	-1E+10	1	-1E+10	1	-1E+10	1	-1E+10	1	-1E+10	1	-1E+10	1
4902549	117	C	11/10/2023	16:55	-132.952	47.400	0	617.90	0	3.9020	0	34.1480	0	27.123	0	611.836	0	19.5	4	6.1	4	-1E+10	1	-1E+10	1	-1E+10	1	-1E+10	1	-1E+10	1	-1E+10	1
4902549	117	C	11/10/2023	16:55	-132.952	47.400	0	623.00	0	3.8890	0	34.1520	0	27.127	0	616.878	0	19.0	4	6.0	4	-1E+10	1	-1E+10	1	-1E+10	1	-1E+10	1	-1E+10	1	-1E+10	1
4902549	117	C	11/10/2023	16:55	-132.952	47.400	0	627.80	0	3.8720	0	34.1570	0	27.133	0	621.624	0	18.4	4	5.8	4	-1E+10	1	-1E+10	1	-1E+10	1	-1E+10	1	-1E+10	1	-1E+10	1
4902549	117	C	11/10/2023	16:55	-132.952	47.400	0	632.70	0	3.8660	0	34.1610	0	27.137	0	626.468	0	18.0	4	5.7	4	-1E+10	1	-1E+10	1	-1E+10	1	-1E+10	1	-1E+10	1	-1E+10	1
4902549	117	C	11/10/2023	16:55	-132.952	47.400	0	637.70	0	3.8620	0	34.1620	0	27.138	0	631.411	0	17.6	4	5.5	4	-1E+10	1	-1E+10	1	-1E+10	1	-1E+10	1	-1E+10	1	-1E+10	1
4902549	117	C	11/10/2023	16:55	-132.952	47.400	0	643.00	0	3.8550	0	34.1650	0	27.141	0	636.651	0	17.1	4	5.4	4	-1E+10	1	-1E+10	1	-1E+10	1	-1E+10	1	-1E+10	1	-1E+10	1
4902549	117	C	11/10/2023	16:55	-132.952	47.400	0	647.90	0	3.8380	0	34.1700	0	27.147	0	641.495	0	16.7	4	5.3	4	-1E+10	1	-1E+10	1	-1E+10	1	-1E+10	1	-1E+10	1	-1E+10	1
4902549	117	C	11/10/2023	16:55	-132.952	47.400	0	652.70	0	3.8280	0	34.1730	0	27.151	0	646.240	0	16.3	4	5.1	4	-1E+10	1	-1E+10	1	-1E+10	1	-1E+10	1	-1E+10	1	-1E+10	1
4902549	117	C	11/10/2023	16:55	-132.952	47.400	0	657.80	0	3.8120	0	34.1770	0	27.155	0	651.282	0	15.8	4	5.0	4	-1E+10	1	-1E+10	1	-1E+10	1	-1E+10	1	-1E+10	1	-1E+10	1
4902549	117	C	11/10/2023	16:55	-132.952	47.400	0	663.00	0	3.8040	0	34.1800	0	27.159	0	656.422	0	15.2	4	4.8	4	-1E+10	1	-1E+10	1	-1E+10	1	-1E+10	1	-1E+10	1	-1E+10	1
4902549	117	C	11/10/2023	16:55	-132.952	47.400	0	667.90	0	3.7930	0	34.1850	0	27.164	0	661.266	0	15.0	4	4.7	4	-1E+10	1	-1E+10	1	-1E+10	1	-1E+10	1	-1E+10	1	-1E+10	1
4902549	117	C	11/10/2023	16:55	-132.952	47.400	0	672.90	0	3.7860	0	34.1870	0	27.166	0	666.208	0	14.7	4	4.6	4	-1E+10	1	-1E+10	1	-1E+10	1	-1E+10	1	-1E+10	1	-1E+10	1
4902549	117	C	11/10/2023	16:55	-132.952	47.400	0	678.00	0	3.7810	0	34.1890	0	27.168	0	671.249	0	14.5	4	4.6	4	-1E+10	1	-1E+10	1	-1E+10	1	-1E+10	1	-1E+10	1	-1E+10	1
4902549	117	C	11/10/2023	16:55	-132.952	47.400	0	682.70	0	3.7710	0	34.1920	0	27.172	0	675.895	0	14.3	4	4.5	4	-1E+10	1	-1E+10	1	-1E+10	1	-1E+10	1	-1E+10	1	-1E+10	1
4902549	117	C	11/10/2023	16:55	-132.952	47.400	0	687.90	0	3.7620	0	34.1960	0	27.176	0	681.034	0	14.0	4	4.4	4	-1E+10	1	-1E+10	1	-1E+10	1	-1E+10	1	-1E+10	1	-1E+10	1
4902549	117	C	11/10/2023	16:55	-132.952	47.400	0	693.10	0	3.7530	0	34.2000	0	27.180	0	686.174	0	13.6	4	4.3	4	-1E+10	1	-1E+10	1	-1E+10	1	-1E+10	1	-1E+10	1	-1E+10	1
4902549	117	C	11/10/2023	16:55	-132.952	47.400	0	697.90	0	3.7490	0	34.2030	0	27.183	0	690.918	0	13.3	4	4.2	4	-1E+10	1	-1E+10	1	-1E+10	1	-1E+10	1	-1E+10	1	-1E+10	1
4902549	117	C	11/10/2023	16:55	-132.952	47.400	0	702.70	0	3.7450	0	34.2060	0	27.185	0	695.662	0	13.1	4	4.1	4	-1E+10	1	-1E+10	1	-1E+10	1	-1E+10	1	-1E+10	1	-1E+10	1
4902549	117	C	11/10/2023	16:55	-132.952	47.400	0	707.60	0	3.7290	0	34.2090	0	27.189	0	700.505	0	12.9	4	4.1	4	-1E+10	1	-1E+10	1	-1E+10	1	-1E+10	1	-1E+10	1	-1E+10	1
4902549	117	C	11/10/2023	16:55	-132.952	47.400	0	712.60	0	3.7210	0	34.2130	0	27.193	0	705.446	0	12.7	4	4.0	4	-1E+10	1	-1E+10	1	-1E+10	1	-1E+10	1	-1E+10	1	-1E+10	1
4902549	117	C	11/10/2023	16:55	-132.952	47.400	0	717.60	0	3.7220	0	34.2140	0	27.194	0	710.387	0	12.3	4	3.9	4	-1E+10	1	-1E+10	1	-1E+10	1	-1E+10	1	-1E+10	1	-1E+10	1
4902549	117	C	11/10/2023	16:55	-132.952	47.400	0	722.60	0	3.7190	0	34.2170	0	27.197	0	715.329	0	11.9	4	3.7	4	-1E+10	1	-1E+10	1	-1E+10	1	-1E+10	1	-1E+10	1	-1E+10	1
4902549	117	C	11/10/2023	16:55	-132.952	47.400	0	727.60	0	3.7180	0	34.2200	0	27.199	0	720.270	0	11.6	4	3.6	4	-1E+10	1	-1E+10	1	-1E+10	1	-1E+10	1	-1E+10	1	-1E+10	1
4902549	117	C	11/10/2023	16:55	-132.952	47.400	0	732.50	0	3.7150	0	34.2220	0	27.201	0	725.112	0	11.4	4	3.6	4	-1E+10	1	-1E+10	1	-1E+10	1	-1E+10	1	-1E+10	1	-1E+10	1
4902549	117	C	11/10/2023	16:55	-132.952	47.400	0	737.90	0	3.7030	0	34.2250	0	27.205	0	730.448	0	11.2	4	3.5	4	-1E+10	1	-1E+10	1	-1E+10	1	-1E+10	1	-1E+10	1	-1E+10	1
4902549	117	C	11/10/2023	16:55	-132.952	47.400	0	743.30	0	3.6950	0	34.2280	0	27.208	0	735.784	0	10.9	4	3.4	4	-1E+10	1	-1E+10	1	-1E+10	1	-1E+10	1	-1E+10	1	-1E+10	1
4902549	117	C	11/10/2023	16:55	-132.952	47.400	0	748.20	0	3.6850	0	34.2310	0	27.212	0	740.626	0	10.6	4	3.3	4	-1E+10	1	-1E+10	1	-1E+10	1	-1E+10	1	-1E+10	1	-1E+10	1
4902549	117	C	11/10/2023	16:55	-132.952	47.400	0	753.20	0	3.6730	0	34.2360	0	27.217	0	745.566	0	10.2	4	3.2	4	-1E+10	1	-1E+10	1	-1E+10	1	-1E+10	1	-1E+10	1	-1E+10	1
4902549	117	C	11/10/2023	16:55	-132.952	47.400	0	758.20	0	3.6740	0	34.2380	0	27.218	0	750.506	0	10.0	4	3.1	4	-1E+10	1	-1E+10	1	-1E+10	1	-1E+10	1	-1E+10	1	-1E+10	1
4902549	117	C	11/10/2023	16:55	-132.952	47.400	0	763.20	0	3.6670	0	34.2410	0	27.221	0	755.447	0	9.9	4	3.1	4	-1E+10	1	-1E+10	1	-1E+10	1	-1E+10	1	-1E+10	1	-1E+10	1
4902549	117	C	11/10/2023	16:55	-132.952	47.400	0	768.10	0	3.6540	0	34.2440	0	27.225	0	760.288	0	9.7	4	3.0	4	-1E+10	1	-1E+10	1	-1E+10	1	-1E+10	1	-1E+10	1	-1E+10	1
4902549	117	C	11/10/2023	16:55	-132.952	47.400	0	773.10	0	3.6480	0	34.2460	0	27.227	0	765.228	0	9.6	4	3.0	4	-1E+10	1	-1E+10	1	-1E+10	1	-1E+10	1	-1E+10	1	-1E+10	1
4902549	117	C	11/10/2023	16:55	-132.952	47.400	0	778.20	0	3.6390	0	34.2470	0	27.229	0	770.267	0	9.4	4	2.9	4	-1E+10	1	-1E+10	1	-1E+10	1	-1E+10	1	-1E+10	1	-1E+10	1
4902549	117	C	11/10/2023	16:55	-132.952	47.400	0	783.20	0	3.6270	0	34.2510	0	27.233	0	775.206	0	9.0	4	2.8	4	-1E+10	1	-1E+10	1	-1E+10	1	-1E+10	1	-1E+10	1	-1E+10	1
4902549	117	C	11/10/2023	16:55	-132.952	47.400	0	788.20	0	3.6210	0	34.2550	0	27.237	0	780.146	0	8.7	4	2.7	4	-1E+10	1	-1E+10	1	-1E+10	1	-1E+10	1	-1E+10	1	-1E+10	1
4902549	117	C	11/10/2023	16:55	-132.952	47.400	0	793.20	0	3.6110	0	34.2590	0	27.241	0	785.085	0	8.4	4	2.6	4	-1E+10	1	-1E+10	1	-1E+10	1	-1E+10	1	-1E+10	1	-1E+10	1
4902549	117	C	11/10/2023	16:55	-132.952	47.400	0	797.90	0	3.6040	0	34.2630	0	27.245	0	789.728	0	8.2	4	2.6	4	-1E+10	1	-1E+10	1	-1E+10	1	-1E+10	1	-1E+10	1	-1E+10	1
4902549	117	C	11/10/2023	16:55	-132.952	47.400	0	802.50	0	3.5950	0	34.2660	0	27.249	0	794.273	0	8.0	4	2.5	4	-1E+10	1	-1E+10	1	-1E+10	1	-1E+10	1	-1E+10	1	-1E+10	1
4902549	117	C	11/10/2023	16:55	-132.952	47.400	0	807.60	0	3.5850	0	34.2710	0	27.254	0	799.311	0	7.8	4	2.4	4	-1E+10	1	-1E+10	1	-1E+10	1	-1E+10	1	-1E+10	1	-1E+10	1
4902549	117	C	11/10/2023	16:55	-132.952	47.400	0	812.70	0	3.5760	0	34.2760	0	27.258	0	804.348	0	7.7	4	2.4	4	-1E+10	1	-1E+10	1	-1E+10	1	-1E+10	1	-1E+10	1	-1E+10	1
4902549	117	C	11/10/2023	16:55	-132.952	47.400	0	817.90	0	3.5620	0	34.2770	0	27.261	0	809.485	0	7.6	4	2.4	4	-1E+10	1	-1E+10	1	-1E+10	1	-1E+10	1	-1E+10	1	-1E+10	1
4902549	117	C	11/10/2023	16:55	-132.952	47.400	0	823.10	0	3.5440	0	34.2810	0	27.266	0	814.621	0	7.4	4	2.3	4	-1E+10	1	-1E+10	1	-1E+10	1	-1E+10	1	-1E+10	1	-1E+10	1
4902549	117	C	11/10/2023	16:55	-132.952	47.400	0	828.20	0	3.5250	0	34.2870	0	27.272	0	819.659	0	7.2	4	2.3	4	-1E+10	1	-1E+10	1	-1E+10	1	-1E+10	1	-1E+10	1	-1E+10	1
4902549	117	C	11/10/2023	16:55	-132.952	47.400	0	832.90	0	3.5170	0	34.2900	0	27.275	0	824.301	0	7.1	4	2.2	4	-1E+10	1	-1E+10	1	-1E+10	1	-1E+10	1	-1E+10	1	-1E+10	1
4902549	117	C	11/10/2023	16:55	-132.952	47.400	0	837.90	0	3.5060	0	34.2930	0	27.279	0	829.239	0	7.0	4	2.2	4	-1E+10	1	-1E+10	1	-1E+10	1	-1E+10	1	-1E+10	1	-1E+10	1
4902549	117	C	11/10/2023	16:55	-132.952	47.400	0	842.80	0	3.4970	0	34.2960	0	27.282	0	834.079	0	6.9	4	2.1	4	-1E+10	1	-1E+10	1	-1E+10	1	-1E+10	1	-1E+10	1	-1E+10	1
4902549	117	C	11/10/2023	16:55	-132.952	47.400	0	848.00	0	3.4930	0	34.3000	0	27.286	0	839.215	0	6.8	4	2.1	4	-1E+10	1	-1E+10	1	-1E+10	1	-1E+10	1	-1E+10	1	-1E+10	1
4902549	117	C	11/10/2023	16:55	-132.952	47.400	0	853.20	0	3.4890	0	34.3020	0	27.288	0	844.350	0	6.7	4	2.1	4	-1E+10	1	-1E+10	1	-1E+10	1	-1E+10	1	-1E+10	1	-1E+10	1
4902549	117	C	11/10/2023	16:55	-132.952	47.400	0	858.00	0	3.4750	0	34.3060	0	27.292	0	849.091	0	6.6	4	2.1	4	-1E+10	1	-1E+10	1	-1E+10	1	-1E+10	1	-1E+10	1	-1E+10	1
4902549	117	C	11/10/2023	16:55	-132.952	47.400	0	862.90	0	3.4620	0	34.3090	0	27.296	0	853.930	0	6.5	4	2.0	4	-1E+10	1	-1E+10	1	-1E+10	1	-1E+10	1	-1E+10	1	-1E+10	1
4902549	117	C	11/10/2023	16:55	-132.952	47.400	0	868.00	0	3.4640	0	34.3120	0	27.298	0	858.967	0	6.5	4	2.0	4	-1E+10	1	-1E+10	1	-1E+10	1	-1E+10	1	-1E+10	1	-1E+10	1
4902549	117	C	11/10/2023	16:55	-132.952	47.400	0	873.10	0	3.4610	0	34.3140	0	27.300	0	864.003	0	6.4	4	2.0	4	-1E+10	1	-1E+10	1	-1E+10	1	-1E+10	1	-1E+10	1	-1E+10	1
4902549	117	C	11/10/2023	16:55	-132.952	47.400	0	878.20	0	3.4510	0	34.3180	0	27.304	0	869.039	0	6.4	4	2.0	4	-1E+10	1	-1E+10	1	-1E+10	1	-1E+10	1	-1E+10	1	-1E+10	1
4902549	117	C	11/10/2023	16:55	-132.952	47.400	0	882.90	0	3.4490	0	34.3190	0	27.305	0	873.680	0	6.4	4	2.0	4	-1E+10	1	-1E+10	1	-1E+10	1	-1E+10	1	-1E+10	1	-1E+10	1
4902549	117	C	11/10/2023	16:55	-132.952	47.400	0	887.70	0	3.4380	0	34.3220	0	27.309	0	878.420	0	6.3	4	2.0	4	-1E+10	1	-1E+10	1	-1E+10	1	-1E+10	1	-1E+10	1	-1E+10	1
4902549	117	C	11/10/2023	16:55	-132.952	47.400	0	893.00	0	3.4290	0	34.3250	0	27.312	0	883.654	0	6.3	4	2.0	4	-1E+10	1	-1E+10	1	-1E+10	1	-1E+10	1	-1E+10	1	-1E+10	1
4902549	117	C	11/10/2023	16:55	-132.952	47.400	0	898.00	0	3.4160	0	34.3270	0	27.315	0	888.591	0	6.4	4	2.0	4	-1E+10	1	-1E+10	1	-1E+10	1	-1E+10	1	-1E+10	1	-1E+10	1
4902549	117	C	11/10/2023	16:55	-132.952	47.400	0	903.00	0	3.4030	0	34.3290	0	27.318	0	893.528	0	6.4	4	2.0	4	-1E+10	1	-1E+10	1	-1E+10	1	-1E+10	1	-1E+10	1	-1E+10	1
4902549	117	C	11/10/2023	16:55	-132.952	47.400	0	908.00	0	3.3880	0	34.3300	0	27.320	0	898.464	0	6.5	4	2.0	4	-1E+10	1	-1E+10	1	-1E+10	1	-1E+10	1	-1E+10	1	-1E+10	1
4902549	117	C	11/10/2023	16:55	-132.952	47.400	0	913.10	0	3.3730	0	34.3320	0	27.323	0	903.500	0	6.5	4	2.0	4	-1E+10	1	-1E+10	1	-1E+10	1	-1E+10	1	-1E+10	1	-1E+10	1
4902549	117	C	11/10/2023	16:55	-132.952	47.400	0	918.20	0	3.3640	0	34.3340	0	27.326	0	908.535	0	6.5	4	2.0	4	-1E+10	1	-1E+10	1	-1E+10	1	-1E+10	1	-1E+10	1	-1E+10	1
4902549	117	C	11/10/2023	16:55	-132.952	47.400	0	922.80	0	3.3590	0	34.3370	0	27.329	0	913.077	0	6.5	4	2.0	4	-1E+10	1	-1E+10	1	-1E+10	1	-1E+10	1	-1E+10	1	-1E+10	1
4902549	117	C	11/10/2023	16:55	-132.952	47.400	0	927.80	0	3.3500	0	34.3370	0	27.329	0	918.013	0	6.5	4	2.0	4	-1E+10	1	-1E+10	1	-1E+10	1	-1E+10	1	-1E+10	1	-1E+10	1
4902549	117	C	11/10/2023	16:55	-132.952	47.400	0	932.90	0	3.3420	0	34.3390	0	27.332	0	923.048	0	6.5	4	2.0	4	-1E+10	1	-1E+10	1	-1E+10	1	-1E+10	1	-1E+10	1	-1E+10	1
4902549	117	C	11/10/2023	16:55	-132.952	47.400	0	938.00	0	3.3260	0	34.3410	0	27.335	0	928.083	0	6.6	4	2.0	4	-1E+10	1	-1E+10	1	-1E+10	1	-1E+10	1	-1E+10	1	-1E+10	1
4902549	117	C	11/10/2023	16:55	-132.952	47.400	0	943.10	0	3.3100	0	34.3420	0	27.337	0	933.117	0	6.6	4	2.1	4	-1E+10	1	-1E+10	1	-1E+10	1	-1E+10	1	-1E+10	1	-1E+10	1
4902549	117	C	11/10/2023	16:55	-132.952	47.400	0	947.80	0	3.2980	0	34.3440	0	27.340	0	937.757	0	6.6	4	2.0	4	-1E+10	1	-1E+10	1	-1E+10	1	-1E+10	1	-1E+10	1	-1E+10	1
4902549	117	C	11/10/2023	16:55	-132.952	47.400	0	952.60	0	3.2990	0	34.3460	0	27.342	0	942.496	0	6.5	4	2.0	4	-1E+10	1	-1E+10	1	-1E+10	1	-1E+10	1	-1E+10	1	-1E+10	1
4902549	117	C	11/10/2023	16:55	-132.952	47.400	0	957.50	0	3.2940	0	34.3480	0	27.344	0	947.333	0	6.4	4	2.0	4	-1E+10	1	-1E+10	1	-1E+10	1	-1E+10	1	-1E+10	1	-1E+10	1
4902549	117	C	11/10/2023	16:55	-132.952	47.400	0	962.90	0	3.2940	0	34.3520	0	27.347	0	952.663	0	6.4	4	2.0	4	-1E+10	1	-1E+10	1	-1E+10	1	-1E+10	1	-1E+10	1	-1E+10	1
4902549	117	C	11/10/2023	16:55	-132.952	47.400	0	968.20	0	3.2930	0	34.3540	0	27.349	0	957.894	0	6.4	4	2.0	4	-1E+10	1	-1E+10	1	-1E+10	1	-1E+10	1	-1E+10	1	-1E+10	1
4902549	117	C	11/10/2023	16:55	-132.952	47.400	0	973.10	0	3.2850	0	34.3550	0	27.350	0	962.731	0	6.4	4	2.0	4	-1E+10	1	-1E+10	1	-1E+10	1	-1E+10	1	-1E+10	1	-1E+10	1
4902549	117	C	11/10/2023	16:55	-132.952	47.400	0	978.00	0	3.2660	0	34.3560	0	27.353	0	967.568	0	6.4	4	2.0	4	-1E+10	1	-1E+10	1	-1E+10	1	-1E+10	1	-1E+10	1	-1E+10	1
4902549	117	C	11/10/2023	16:55	-132.952	47.400	0	982.80	0	3.2690	0	34.3590	0	27.355	0	972.305	0	6.4	4	2.0	4	-1E+10	1	-1E+10	1	-1E+10	1	-1E+10	1	-1E+10	1	-1E+10	1
4902549	117	C	11/10/2023	16:55	-132.952	47.400	0	987.70	0	3.2660	0	34.3620	0	27.358	0	977.141	0	6.5	4	2.0	4	-1E+10	1	-1E+10	1	-1E+10	1	-1E+10	1	-1E+10	1	-1E+10	1
4902549	117	C	11/10/2023	16:55	-132.952	47.400	0	992.60	0	3.2450	0	34.3630	0	27.360	0	981.978	0	6.6	4	2.1	4	-1E+10	1	-1E+10	1	-1E+10	1	-1E+10	1	-1E+10	1	-1E+10	1
4902549	117	C	11/10/2023	16:55	-132.952	47.400	0	997.50	0	3.2170	0	34.3630	0	27.363	0	986.814	0	6.7	4	2.1	4	-1E+10	1	-1E+10	1	-1E+10	1	-1E+10	1	-1E+10	1	-1E+10	1
4902549	117	C	11/10/2023	16:55	-132.952	47.400	0	1005.40	0	3.1970	0	34.3660	0	27.367	0	994.610	0	6.9	4	2.1	4	-1E+10	1	-1E+10	1	-1E+10	1	-1E+10	1	-1E+10	1	-1E+10	1
4902549	117	C	11/10/2023	16:55	-132.952	47.400	0	1015.70	0	3.1230	0	34.3650	0	27.373	0	1004.775	0	7.2	4	2.2	4	-1E+10	1	-1E+10	1	-1E+10	1	-1E+10	1	-1E+10	1	-1E+10	1
4902549	117	C	11/10/2023	16:55	-132.952	47.400	0	1025.40	0	3.0880	0	34.3670	0	27.378	0	1014.347	0	7.2	4	2.2	4	-1E+10	1	-1E+10	1	-1E+10	1	-1E+10	1	-1E+10	1	-1E+10	1
4902549	117	C	11/10/2023	16:55	-132.952	47.400	0	1035.30	0	3.0850	0	34.3720	0	27.383	0	1024.116	0	7.0	4	2.2	4	-1E+10	1	-1E+10	1	-1E+10	1	-1E+10	1	-1E+10	1	-1E+10	1
4902549	117	C	11/10/2023	16:55	-132.952	47.400	0	1045.30	0	3.0970	0	34.3780	0	27.386	0	1033.984	0	7.0	4	2.2	4	-1E+10	1	-1E+10	1	-1E+10	1	-1E+10	1	-1E+10	1	-1E+10	1
4902549	117	C	11/10/2023	16:55	-132.952	47.400	0	1055.50	0	3.0760	0	34.3790	0	27.389	0	1044.048	0	7.2	4	2.2	4	-1E+10	1	-1E+10	1	-1E+10	1	-1E+10	1	-1E+10	1	-1E+10	1
4902549	117	C	11/10/2023	16:55	-132.952	47.400	0	1065.70	0	3.0240	0	34.3800	0	27.395	0	1054.112	0	7.2	4	2.2	4	-1E+10	1	-1E+10	1	-1E+10	1	-1E+10	1	-1E+10	1	-1E+10	1
4902549	117	C	11/10/2023	16:55	-132.952	47.400	0	1075.50	0	3.0310	0	34.3880	0	27.400	0	1063.780	0	7.2	4	2.2	4	-1E+10	1	-1E+10	1	-1E+10	1	-1E+10	1	-1E+10	1	-1E+10	1
4902549	117	C	11/10/2023	16:55	-132.952	47.400	0	1085.20	0	3.0180	0	34.3900	0	27.403	0	1073.350	0	7.2	4	2.2	4	-1E+10	1	-1E+10	1	-1E+10	1	-1E+10	1	-1E+10	1	-1E+10	1
4902549	117	C	11/10/2023	16:55	-132.952	47.400	0	1095.10	0	3.0050	0	34.3930	0	27.407	0	1083.116	0	7.3	4	2.3	4	-1E+10	1	-1E+10	1	-1E+10	1	-1E+10	1	-1E+10	1	-1E+10	1
4902549	117	C	11/10/2023	16:55	-132.952	47.400	0	1105.30	0	2.9870	0	34.3970	0	27.412	0	1093.178	0	7.4	4	2.3	4	-1E+10	1	-1E+10	1	-1E+10	1	-1E+10	1	-1E+10	1	-1E+10	1
4902549	117	C	11/10/2023	16:55	-132.952	47.400	0	1115.60	0	2.9630	0	34.4010	0	27.417	0	1103.338	0	7.5	4	2.3	4	-1E+10	1	-1E+10	1	-1E+10	1	-1E+10	1	-1E+10	1	-1E+10	1
4902549	117	C	11/10/2023	16:55	-132.952	47.400	0	1125.70	0	2.9470	0	34.4040	0	27.421	0	1113.300	0	7.7	4	2.4	4	-1E+10	1	-1E+10	1	-1E+10	1	-1E+10	1	-1E+10	1	-1E+10	1
4902549	117	C	11/10/2023	16:55	-132.952	47.400	0	1135.50	0	2.9260	0	34.4060	0	27.425	0	1122.966	0	7.8	4	2.4	4	-1E+10	1	-1E+10	1	-1E+10	1	-1E+10	1	-1E+10	1	-1E+10	1
4902549	117	C	11/10/2023	16:55	-132.952	47.400	0	1145.40	0	2.9030	0	34.4100	0	27.430	0	1132.730	0	8.0	4	2.5	4	-1E+10	1	-1E+10	1	-1E+10	1	-1E+10	1	-1E+10	1	-1E+10	1
4902549	117	C	11/10/2023	16:55	-132.952	47.400	0	1155.60	0	2.8910	0	34.4150	0	27.435	0	1142.789	0	8.2	4	2.5	4	-1E+10	1	-1E+10	1	-1E+10	1	-1E+10	1	-1E+10	1	-1E+10	1
4902549	117	C	11/10/2023	16:55	-132.952	47.400	0	1165.40	0	2.8730	0	34.4180	0	27.439	0	1152.454	0	8.3	4	2.6	4	-1E+10	1	-1E+10	1	-1E+10	1	-1E+10	1	-1E+10	1	-1E+10	1
4902549	117	C	11/10/2023	16:55	-132.952	47.400	0	1175.50	0	2.8530	0	34.4200	0	27.443	0	1162.414	0	8.5	4	2.6	4	-1E+10	1	-1E+10	1	-1E+10	1	-1E+10	1	-1E+10	1	-1E+10	1
4902549	117	C	11/10/2023	16:55	-132.952	47.400	0	1185.80	0	2.8300	0	34.4240	0	27.448	0	1172.571	0	8.8	4	2.7	4	-1E+10	1	-1E+10	1	-1E+10	1	-1E+10	1	-1E+10	1	-1E+10	1
4902549	117	C	11/10/2023	16:55	-132.952	47.400	0	1195.30	0	2.8160	0	34.4290	0	27.453	0	1181.938	0	9.0	4	2.8	4	-1E+10	1	-1E+10	1	-1E+10	1	-1E+10	1	-1E+10	1	-1E+10	1
4902549	117	C	11/10/2023	16:55	-132.952	47.400	0	1205.00	0	2.7970	0	34.4330	0	27.458	0	1191.502	0	9.3	4	2.9	4	-1E+10	1	-1E+10	1	-1E+10	1	-1E+10	1	-1E+10	1	-1E+10	1
4902549	117	C	11/10/2023	16:55	-132.952	47.400	0	1215.30	0	2.7810	0	34.4360	0	27.462	0	1201.657	0	9.5	4	2.9	4	-1E+10	1	-1E+10	1	-1E+10	1	-1E+10	1	-1E+10	1	-1E+10	1
4902549	117	C	11/10/2023	16:55	-132.952	47.400	0	1225.60	0	2.7710	0	34.4390	0	27.465	0	1211.812	0	9.7	4	3.0	4	-1E+10	1	-1E+10	1	-1E+10	1	-1E+10	1	-1E+10	1	-1E+10	1
4902549	117	C	11/10/2023	16:55	-132.952	47.400	0	1235.80	0	2.7600	0	34.4410	0	27.468	0	1221.868	0	10.0	4	3.1	4	-1E+10	1	-1E+10	1	-1E+10	1	-1E+10	1	-1E+10	1	-1E+10	1
4902549	117	C	11/10/2023	16:55	-132.952	47.400	0	1245.40	0	2.7480	0	34.4440	0	27.471	0	1231.331	0	10.2	4	3.1	4	-1E+10	1	-1E+10	1	-1E+10	1	-1E+10	1	-1E+10	1	-1E+10	1
4902549	117	C	11/10/2023	16:55	-132.952	47.400	0	1255.60	0	2.7360	0	34.4470	0	27.475	0	1241.386	0	10.4	4	3.2	4	-1E+10	1	-1E+10	1	-1E+10	1	-1E+10	1	-1E+10	1	-1E+10	1
4902549	117	C	11/10/2023	16:55	-132.952	47.400	0	1265.50	0	2.7240	0	34.4480	0	27.477	0	1251.144	0	10.6	4	3.3	4	-1E+10	1	-1E+10	1	-1E+10	1	-1E+10	1	-1E+10	1	-1E+10	1
4902549	117	C	11/10/2023	16:55	-132.952	47.400	0	1275.50	0	2.7080	0	34.4500	0	27.480	0	1261.001	0	10.8	4	3.3	4	-1E+10	1	-1E+10	1	-1E+10	1	-1E+10	1	-1E+10	1	-1E+10	1
4902549	117	C	11/10/2023	16:55	-132.952	47.400	0	1285.70	0	2.6900	0	34.4510	0	27.482	0	1271.054	0	11.0	4	3.4	4	-1E+10	1	-1E+10	1	-1E+10	1	-1E+10	1	-1E+10	1	-1E+10	1
4902549	117	C	11/10/2023	16:55	-132.952	47.400	0	1295.40	0	2.6750	0	34.4540	0	27.486	0	1280.614	0	11.2	4	3.4	4	-1E+10	1	-1E+10	1	-1E+10	1	-1E+10	1	-1E+10	1	-1E+10	1
4902549	117	C	11/10/2023	16:55	-132.952	47.400	0	1305.40	0	2.6590	0	34.4550	0	27.488	0	1290.470	0	11.4	4	3.5	4	-1E+10	1	-1E+10	1	-1E+10	1	-1E+10	1	-1E+10	1	-1E+10	1
4902549	117	C	11/10/2023	16:55	-132.952	47.400	0	1315.60	0	2.6480	0	34.4570	0	27.491	0	1300.521	0	11.7	4	3.6	4	-1E+10	1	-1E+10	1	-1E+10	1	-1E+10	1	-1E+10	1	-1E+10	1
4902549	117	C	11/10/2023	16:55	-132.952	47.400	0	1325.40	0	2.6380	0	34.4590	0	27.493	0	1310.179	0	12.0	4	3.7	4	-1E+10	1	-1E+10	1	-1E+10	1	-1E+10	1	-1E+10	1	-1E+10	1
4902549	117	C	11/10/2023	16:55	-132.952	47.400	0	1335.10	0	2.6220	0	34.4620	0	27.497	0	1319.737	0	12.5	4	3.8	4	-1E+10	1	-1E+10	1	-1E+10	1	-1E+10	1	-1E+10	1	-1E+10	1
4902549	117	C	11/10/2023	16:55	-132.952	47.400	0	1345.10	0	2.5960	0	34.4650	0	27.502	0	1329.590	0	13.0	4	4.0	4	-1E+10	1	-1E+10	1	-1E+10	1	-1E+10	1	-1E+10	1	-1E+10	1
4902549	117	C	11/10/2023	16:55	-132.952	47.400	0	1355.10	0	2.5800	0	34.4680	0	27.506	0	1339.443	0	13.4	4	4.1	4	-1E+10	1	-1E+10	1	-1E+10	1	-1E+10	1	-1E+10	1	-1E+10	1
4902549	117	C	11/10/2023	16:55	-132.952	47.400	0	1365.40	0	2.5640	0	34.4710	0	27.509	0	1349.591	0	13.8	4	4.2	4	-1E+10	1	-1E+10	1	-1E+10	1	-1E+10	1	-1E+10	1	-1E+10	1
4902549	117	C	11/10/2023	16:55	-132.952	47.400	0	1375.80	0	2.5520	0	34.4730	0	27.512	0	1359.837	0	14.2	4	4.3	4	-1E+10	1	-1E+10	1	-1E+10	1	-1E+10	1	-1E+10	1	-1E+10	1
4902549	117	C	11/10/2023	16:55	-132.952	47.400	0	1385.50	0	2.5390	0	34.4750	0	27.515	0	1369.393	0	14.6	4	4.4	4	-1E+10	1	-1E+10	1	-1E+10	1	-1E+10	1	-1E+10	1	-1E+10	1
4902549	117	C	11/10/2023	16:55	-132.952	47.400	0	1395.10	0	2.5260	0	34.4780	0	27.518	0	1378.850	0	15.1	4	4.6	4	-1E+10	1	-1E+10	1	-1E+10	1	-1E+10	1	-1E+10	1	-1E+10	1
4902549	117	C	11/10/2023	16:55	-132.952	47.400	0	1405.20	0	2.5080	0	34.4820	0	27.523	0	1388.800	0	15.9	4	4.8	4	-1E+10	1	-1E+10	1	-1E+10	1	-1E+10	1	-1E+10	1	-1E+10	1
4902549	117	C	11/10/2023	16:55	-132.952	47.400	0	1415.20	0	2.4910	0	34.4850	0	27.527	0	1398.650	0	16.5	4	5.0	4	-1E+10	1	-1E+10	1	-1E+10	1	-1E+10	1	-1E+10	1	-1E+10	1
4902549	117	C	11/10/2023	16:55	-132.952	47.400	0	1425.40	0	2.4730	0	34.4880	0	27.531	0	1408.696	0	17.0	4	5.2	4	-1E+10	1	-1E+10	1	-1E+10	1	-1E+10	1	-1E+10	1	-1E+10	1
4902549	117	C	11/10/2023	16:55	-132.952	47.400	0	1435.30	0	2.4600	0	34.4900	0	27.534	0	1418.447	0	17.5	4	5.3	4	-1E+10	1	-1E+10	1	-1E+10	1	-1E+10	1	-1E+10	1	-1E+10	1
4902549	117	C	11/10/2023	16:55	-132.952	47.400	0	1445.50	0	2.4440	0	34.4930	0	27.537	0	1428.493	0	18.1	4	5.5	4	-1E+10	1	-1E+10	1	-1E+10	1	-1E+10	1	-1E+10	1	-1E+10	1
4902549	117	C	11/10/2023	16:55	-132.952	47.400	0	1455.70	0	2.4280	0	34.4950	0	27.540	0	1438.538	0	18.6	4	5.7	4	-1E+10	1	-1E+10	1	-1E+10	1	-1E+10	1	-1E+10	1	-1E+10	1
4902549	117	C	11/10/2023	16:55	-132.952	47.400	0	1465.70	0	2.4160	0	34.4970	0	27.543	0	1448.386	0	19.0	4	5.8	4	-1E+10	1	-1E+10	1	-1E+10	1	-1E+10	1	-1E+10	1	-1E+10	1
4902549	117	C	11/10/2023	16:55	-132.952	47.400	0	1475.80	0	2.4050	0	34.4990	0	27.546	0	1458.332	0	19.7	4	6.0	4	-1E+10	1	-1E+10	1	-1E+10	1	-1E+10	1	-1E+10	1	-1E+10	1
4902549	117	C	11/10/2023	16:55	-132.952	47.400	0	1486.00	0	2.3840	0	34.5030	0	27.551	0	1468.376	0	20.5	4	6.2	4	-1E+10	1	-1E+10	1	-1E+10	1	-1E+10	1	-1E+10	1	-1E+10	1
4902549	117	C	11/10/2023	16:55	-132.952	47.400	0	1495.50	0	2.3740	0	34.5050	0	27.553	0	1477.730	0	20.8	4	6.3	4	-1E+10	1	-1E+10	1	-1E+10	1	-1E+10	1	-1E+10	1	-1E+10	1
4902549	117	C	11/10/2023	16:55	-132.952	47.400	0	1505.30	0	2.3650	0	34.5060	0	27.555	0	1487.379	0	21.4	4	6.5	4	-1E+10	1	-1E+10	1	-1E+10	1	-1E+10	1	-1E+10	1	-1E+10	1
4902549	117	C	11/10/2023	16:55	-132.952	47.400	0	1515.40	0	2.3510	0	34.5080	0	27.557	0	1497.323	0	21.9	4	6.7	4	-1E+10	1	-1E+10	1	-1E+10	1	-1E+10	1	-1E+10	1	-1E+10	1
4902549	117	C	11/10/2023	16:55	-132.952	47.400	0	1525.40	0	2.3380	0	34.5110	0	27.561	0	1507.168	0	22.4	4	6.8	4	-1E+10	1	-1E+10	1	-1E+10	1	-1E+10	1	-1E+10	1	-1E+10	1
4902549	117	C	11/10/2023	16:55	-132.952	47.400	0	1535.50	0	2.3290	0	34.5120	0	27.563	0	1517.111	0	22.9	4	6.9	4	-1E+10	1	-1E+10	1	-1E+10	1	-1E+10	1	-1E+10	1	-1E+10	1
4902549	117	C	11/10/2023	16:55	-132.952	47.400	0	1545.60	0	2.3190	0	34.5130	0	27.564	0	1527.054	0	23.6	4	7.2	4	-1E+10	1	-1E+10	1	-1E+10	1	-1E+10	1	-1E+10	1	-1E+10	1
4902549	117	C	11/10/2023	16:55	-132.952	47.400	0	1555.40	0	2.3000	0	34.5170	0	27.569	0	1536.701	0	24.4	4	7.4	4	-1E+10	1	-1E+10	1	-1E+10	1	-1E+10	1	-1E+10	1	-1E+10	1
4902549	117	C	11/10/2023	16:55	-132.952	47.400	0	1565.20	0	2.2870	0	34.5190	0	27.572	0	1546.347	0	25.1	4	7.6	4	-1E+10	1	-1E+10	1	-1E+10	1	-1E+10	1	-1E+10	1	-1E+10	1
4902549	117	C	11/10/2023	16:55	-132.952	47.400	0	1575.30	0	2.2700	0	34.5220	0	27.576	0	1556.288	0	26.1	4	7.9	4	-1E+10	1	-1E+10	1	-1E+10	1	-1E+10	1	-1E+10	1	-1E+10	1
4902549	117	C	11/10/2023	16:55	-132.952	47.400	0	1585.50	0	2.2530	0	34.5250	0	27.579	0	1566.327	0	26.9	4	8.2	4	-1E+10	1	-1E+10	1	-1E+10	1	-1E+10	1	-1E+10	1	-1E+10	1
4902549	117	C	11/10/2023	16:55	-132.952	47.400	0	1595.40	0	2.2430	0	34.5270	0	27.582	0	1576.071	0	27.7	4	8.4	4	-1E+10	1	-1E+10	1	-1E+10	1	-1E+10	1	-1E+10	1	-1E+10	1
4902549	117	C	11/10/2023	16:55	-132.952	47.400	0	1605.40	0	2.2320	0	34.5290	0	27.584	0	1585.912	0	28.6	4	8.7	4	-1E+10	1	-1E+10	1	-1E+10	1	-1E+10	1	-1E+10	1	-1E+10	1
4902549	117	C	11/10/2023	16:55	-132.952	47.400	0	1615.50	0	2.2260	0	34.5320	0	27.587	0	1595.852	0	29.3	4	8.9	4	-1E+10	1	-1E+10	1	-1E+10	1	-1E+10	1	-1E+10	1	-1E+10	1
4902549	117	C	11/10/2023	16:55	-132.952	47.400	0	1625.30	0	2.2180	0	34.5330	0	27.589	0	1605.495	0	29.9	4	9.1	4	-1E+10	1	-1E+10	1	-1E+10	1	-1E+10	1	-1E+10	1	-1E+10	1
4902549	117	C	11/10/2023	16:55	-132.952	47.400	0	1635.50	0	2.2070	0	34.5350	0	27.591	0	1615.532	0	30.7	4	9.3	4	-1E+10	1	-1E+10	1	-1E+10	1	-1E+10	1	-1E+10	1	-1E+10	1
4902549	117	C	11/10/2023	16:55	-132.952	47.400	0	1645.80	0	2.1960	0	34.5370	0	27.594	0	1625.667	0	31.3	4	9.5	4	-1E+10	1	-1E+10	1	-1E+10	1	-1E+10	1	-1E+10	1	-1E+10	1
4902549	117	C	11/10/2023	16:55	-132.952	47.400	0	1655.80	0	2.1790	0	34.5390	0	27.597	0	1635.506	0	32.1	4	9.7	4	-1E+10	1	-1E+10	1	-1E+10	1	-1E+10	1	-1E+10	1	-1E+10	1
4902549	117	C	11/10/2023	16:55	-132.952	47.400	0	1665.40	0	2.1670	0	34.5410	0	27.600	0	1644.951	0	32.8	4	9.9	4	-1E+10	1	-1E+10	1	-1E+10	1	-1E+10	1	-1E+10	1	-1E+10	1
4902549	117	C	11/10/2023	16:55	-132.952	47.400	0	1675.00	0	2.1570	0	34.5430	0	27.602	0	1654.396	0	33.4	4	10.1	4	-1E+10	1	-1E+10	1	-1E+10	1	-1E+10	1	-1E+10	1	-1E+10	1
4902549	117	C	11/10/2023	16:55	-132.952	47.400	0	1685.70	0	2.1460	0	34.5450	0	27.605	0	1664.922	0	34.1	4	10.3	4	-1E+10	1	-1E+10	1	-1E+10	1	-1E+10	1	-1E+10	1	-1E+10	1
4902549	117	C	11/10/2023	16:55	-132.952	47.400	0	1695.50	0	2.1350	0	34.5460	0	27.606	0	1674.563	0	34.8	4	10.5	4	-1E+10	1	-1E+10	1	-1E+10	1	-1E+10	1	-1E+10	1	-1E+10	1
4902549	117	C	11/10/2023	16:55	-132.952	47.400	0	1705.30	0	2.1230	0	34.5490	0	27.610	0	1684.203	0	35.6	4	10.8	4	-1E+10	1	-1E+10	1	-1E+10	1	-1E+10	1	-1E+10	1	-1E+10	1
4902549	117	C	11/10/2023	16:55	-132.952	47.400	0	1715.40	0	2.1120	0	34.5500	0	27.611	0	1694.137	0	36.3	4	11.0	4	-1E+10	1	-1E+10	1	-1E+10	1	-1E+10	1	-1E+10	1	-1E+10	1
4902549	117	C	11/10/2023	16:55	-132.952	47.400	0	1725.30	0	2.1040	0	34.5520	0	27.614	0	1703.875	0	37.0	4	11.2	4	-1E+10	1	-1E+10	1	-1E+10	1	-1E+10	1	-1E+10	1	-1E+10	1
4902549	117	C	11/10/2023	16:55	-132.952	47.400	0	1735.20	0	2.0960	0	34.5540	0	27.616	0	1713.612	0	37.6	4	11.4	4	-1E+10	1	-1E+10	1	-1E+10	1	-1E+10	1	-1E+10	1	-1E+10	1
4902549	117	C	11/10/2023	16:55	-132.952	47.400	0	1745.30	0	2.0870	0	34.5550	0	27.618	0	1723.545	0	38.2	4	11.6	4	-1E+10	1	-1E+10	1	-1E+10	1	-1E+10	1	-1E+10	1	-1E+10	1
4902549	117	C	11/10/2023	16:55	-132.952	47.400	0	1755.20	0	2.0770	0	34.5570	0	27.620	0	1733.282	0	38.7	4	11.7	4	-1E+10	1	-1E+10	1	-1E+10	1	-1E+10	1	-1E+10	1	-1E+10	1
4902549	117	C	11/10/2023	16:55	-132.952	47.400	0	1765.00	0	2.0710	0	34.5580	0	27.621	0	1742.919	0	39.1	4	11.8	4	-1E+10	1	-1E+10	1	-1E+10	1	-1E+10	1	-1E+10	1	-1E+10	1
4902549	117	C	11/10/2023	16:55	-132.952	47.400	0	1775.10	0	2.0670	0	34.5590	0	27.622	0	1752.851	0	39.4	4	11.9	4	-1E+10	1	-1E+10	1	-1E+10	1	-1E+10	1	-1E+10	1	-1E+10	1
4902549	117	C	11/10/2023	16:55	-132.952	47.400	0	1785.60	0	2.0620	0	34.5590	0	27.623	0	1763.176	0	40.0	4	12.1	4	-1E+10	1	-1E+10	1	-1E+10	1	-1E+10	1	-1E+10	1	-1E+10	1
4902549	117	C	11/10/2023	16:55	-132.952	47.400	0	1795.50	0	2.0540	0	34.5610	0	27.625	0	1772.910	0	40.6	4	12.3	4	-1E+10	1	-1E+10	1	-1E+10	1	-1E+10	1	-1E+10	1	-1E+10	1
4902549	117	C	11/10/2023	16:55	-132.952	47.400	0	1805.30	0	2.0470	0	34.5620	0	27.627	0	1782.546	0	41.3	4	12.5	4	-1E+10	1	-1E+10	1	-1E+10	1	-1E+10	1	-1E+10	1	-1E+10	1
4902549	117	C	11/10/2023	16:55	-132.952	47.400	0	1815.50	0	2.0400	0	34.5640	0	27.629	0	1792.574	0	42.1	4	12.7	4	-1E+10	1	-1E+10	1	-1E+10	1	-1E+10	1	-1E+10	1	-1E+10	1
4902549	117	C	11/10/2023	16:55	-132.952	47.400	0	1825.70	0	2.0320	0	34.5650	0	27.630	0	1802.602	0	42.7	4	12.9	4	-1E+10	1	-1E+10	1	-1E+10	1	-1E+10	1	-1E+10	1	-1E+10	1
4902549	117	C	11/10/2023	16:55	-132.952	47.400	0	1835.30	0	2.0230	0	34.5670	0	27.633	0	1812.040	0	43.2	4	13.0	4	-1E+10	1	-1E+10	1	-1E+10	1	-1E+10	1	-1E+10	1	-1E+10	1
4902549	117	C	11/10/2023	16:55	-132.952	47.400	0	1845.20	0	2.0180	0	34.5680	0	27.634	0	1821.772	0	43.7	4	13.2	4	-1E+10	1	-1E+10	1	-1E+10	1	-1E+10	1	-1E+10	1	-1E+10	1
4902549	117	C	11/10/2023	16:55	-132.952	47.400	0	1855.40	0	2.0120	0	34.5690	0	27.635	0	1831.799	0	44.2	4	13.3	4	-1E+10	1	-1E+10	1	-1E+10	1	-1E+10	1	-1E+10	1	-1E+10	1
4902549	117	C	11/10/2023	16:55	-132.952	47.400	0	1865.20	0	2.0060	0	34.5700	0	27.637	0	1841.431	0	44.7	4	13.5	4	-1E+10	1	-1E+10	1	-1E+10	1	-1E+10	1	-1E+10	1	-1E+10	1
4902549	117	C	11/10/2023	16:55	-132.952	47.400	0	1875.20	0	1.9990	0	34.5720	0	27.639	0	1851.261	0	45.1	4	13.6	4	-1E+10	1	-1E+10	1	-1E+10	1	-1E+10	1	-1E+10	1	-1E+10	1
4902549	117	C	11/10/2023	16:55	-132.952	47.400	0	1885.50	0	1.9940	0	34.5720	0	27.639	0	1861.384	0	45.4	4	13.7	4	-1E+10	1	-1E+10	1	-1E+10	1	-1E+10	1	-1E+10	1	-1E+10	1
4902549	117	C	11/10/2023	16:55	-132.952	47.400	0	1895.60	0	1.9910	0	34.5730	0	27.640	0	1871.310	0	45.8	4	13.8	4	-1E+10	1	-1E+10	1	-1E+10	1	-1E+10	1	-1E+10	1	-1E+10	1
4902549	117	C	11/10/2023	16:55	-132.952	47.400	0	1905.10	0	1.9880	0	34.5730	0	27.641	0	1880.647	0	46.1	4	13.9	4	-1E+10	1	-1E+10	1	-1E+10	1	-1E+10	1	-1E+10	1	-1E+10	1
4902549	117	C	11/10/2023	16:55	-132.952	47.400	0	1915.40	0	1.9860	0	34.5740	0	27.642	0	1890.769	0	46.5	4	14.0	4	-1E+10	1	-1E+10	1	-1E+10	1	-1E+10	1	-1E+10	1	-1E+10	1
4902549	117	C	11/10/2023	16:55	-132.952	47.400	0	1925.60	0	1.9840	0	34.5760	0	27.643	0	1900.792	0	46.9	4	14.1	4	-1E+10	1	-1E+10	1	-1E+10	1	-1E+10	1	-1E+10	1	-1E+10	1
4902549	117	C	11/10/2023	16:55	-132.952	47.400	0	1935.50	0	1.9770	0	34.5760	0	27.644	0	1910.520	0	47.2	4	14.2	4	-1E+10	1	-1E+10	1	-1E+10	1	-1E+10	1	-1E+10	1	-1E+10	1
4902549	117	C	11/10/2023	16:55	-132.952	47.400	0	1945.40	0	1.9730	0	34.5770	0	27.645	0	1920.248	0	47.5	4	14.3	4	-1E+10	1	-1E+10	1	-1E+10	1	-1E+10	1	-1E+10	1	-1E+10	1
4902549	117	C	11/10/2023	16:55	-132.952	47.400	0	1955.40	0	1.9710	0	34.5780	0	27.646	0	1930.073	0	47.8	4	14.4	4	-1E+10	1	-1E+10	1	-1E+10	1	-1E+10	1	-1E+10	1	-1E+10	1
4902549	117	C	11/10/2023	16:55	-132.952	47.400	0	1965.40	0	1.9670	0	34.5780	0	27.647	0	1939.898	0	48.1	4	14.5	4	-1E+10	1	-1E+10	1	-1E+10	1	-1E+10	1	-1E+10	1	-1E+10	1
4902549	117	C	11/10/2023	16:55	-132.952	47.400	0	1975.20	0	1.9660	0	34.5790	0	27.647	0	1949.526	0	48.4	4	14.6	4	-1E+10	1	-1E+10	1	-1E+10	1	-1E+10	1	-1E+10	1	-1E+10	1
4902549	117	C	11/10/2023	16:55	-132.952	47.400	0	1985.80	0	1.9600	0	34.5800	0	27.649	0	1959.940	0	48.3	4	14.6	4	-1E+10	1	-1E+10	1	-1E+10	1	-1E+10	1	-1E+10	1	-1E+10	1
4902549	117	C	11/10/2023	16:55	-132.952	47.400	0	1991.00	0	1.9600	0	34.5810	0	27.650	0	1965.048	0	47.9	4	14.4	4	-1E+10	1	-1E+10	1	-1E+10	1	-1E+10	1	-1E+10	1	-1E+10	1
4902549	117	C	11/10/2023	16:55	-132.952	47.400	0																										
4902549	118	C	11/20/2023	22:06	-132.862	47.456	0	0.30	0	11.4290	0	32.3120	0	24.607	0	0.297	0	254.9	4	93.9	4	-1E+10	1	-1E+10	1	-1E+10	1	-1E+10	1	-1E+10	1	-1E+10	1
4902549	118	C	11/20/2023	22:06	-132.862	47.456	0	0.70	0	11.4282	0	32.3120	0	24.607	0	0.694	0	254.9	4	93.9	4	-1E+10	1	-1E+10	1	-1E+10	1	-1E+10	1	-1E+10	1	-1E+10	1
4902549	118	C	11/20/2023	22:06	-132.862	47.456	0	0.80	0	11.4280	0	32.3120	0	24.607	0	0.793	0	254.9	4	93.9	4	-1E+10	1	-1E+10	1	-1E+10	1	-1E+10	1	-1E+10	1	-1E+10	1
4902549	118	C	11/20/2023	22:06	-132.862	47.456	0	1.80	0	11.4270	0	32.3130	0	24.608	0	1.785	0	254.9	4	93.9	4	-1E+10	1	-1E+10	1	-1E+10	1	-1E+10	1	-1E+10	1	-1E+10	1
4902549	118	C	11/20/2023	22:06	-132.862	47.456	0	3.00	0	11.4280	0	32.3140	0	24.609	0	2.975	0	254.9	4	93.9	4	-1E+10	1	-1E+10	1	-1E+10	1	-1E+10	1	-1E+10	1	-1E+10	1
4902549	118	C	11/20/2023	22:06	-132.862	47.456	0	4.00	0	11.4270	0	32.3150	0	24.610	0	3.967	0	254.9	4	93.9	4	-1E+10	1	-1E+10	1	-1E+10	1	-1E+10	1	-1E+10	1	-1E+10	1
4902549	118	C	11/20/2023	22:06	-132.862	47.456	0	5.10	0	11.4270	0	32.3150	0	24.610	0	5.057	0	254.9	4	93.9	4	-1E+10	1	-1E+10	1	-1E+10	1	-1E+10	1	-1E+10	1	-1E+10	1
4902549	118	C	11/20/2023	22:06	-132.862	47.456	0	6.00	0	11.4260	0	32.3150	0	24.610	0	5.950	0	254.9	4	93.9	4	-1E+10	1	-1E+10	1	-1E+10	1	-1E+10	1	-1E+10	1	-1E+10	1
4902549	118	C	11/20/2023	22:06	-132.862	47.456	0	7.00	0	11.4280	0	32.3150	0	24.610	0	6.941	0	254.9	4	93.9	4	-1E+10	1	-1E+10	1	-1E+10	1	-1E+10	1	-1E+10	1	-1E+10	1
4902549	118	C	11/20/2023	22:06	-132.862	47.456	0	7.70	0	11.4270	0	32.3150	0	24.610	0	7.636	0	254.8	4	93.8	4	-1E+10	1	-1E+10	1	-1E+10	1	-1E+10	1	-1E+10	1	-1E+10	1
4902549	118	C	11/20/2023	22:06	-132.862	47.456	0	8.70	0	11.4280	0	32.3140	0	24.609	0	8.627	0	254.8	4	93.8	4	-1E+10	1	-1E+10	1	-1E+10	1	-1E+10	1	-1E+10	1	-1E+10	1
4902549	118	C	11/20/2023	22:06	-132.862	47.456	0	9.80	0	11.4290	0	32.3160	0	24.610	0	9.718	0	254.8	4	93.9	4	-1E+10	1	-1E+10	1	-1E+10	1	-1E+10	1	-1E+10	1	-1E+10	1
4902549	118	C	11/20/2023	22:06	-132.862	47.456	0	10.90	0	11.4290	0	32.3150	0	24.610	0	10.809	0	254.8	4	93.8	4	-1E+10	1	-1E+10	1	-1E+10	1	-1E+10	1	-1E+10	1	-1E+10	1
4902549	118	C	11/20/2023	22:06	-132.862	47.456	0	12.30	0	11.4300	0	32.3150	0	24.610	0	12.197	0	254.8	4	93.8	4	-1E+10	1	-1E+10	1	-1E+10	1	-1E+10	1	-1E+10	1	-1E+10	1
4902549	118	C	11/20/2023	22:06	-132.862	47.456	0	12.90	0	11.4290	0	32.3160	0	24.611	0	12.792	0	254.7	4	93.8	4	-1E+10	1	-1E+10	1	-1E+10	1	-1E+10	1	-1E+10	1	-1E+10	1
4902549	118	C	11/20/2023	22:06	-132.862	47.456	0	14.00	0	11.4290	0	32.3150	0	24.610	0	13.883	0	254.8	4	93.8	4	-1E+10	1	-1E+10	1	-1E+10	1	-1E+10	1	-1E+10	1	-1E+10	1
4902549	118	C	11/20/2023	22:06	-132.862	47.456	0	15.10	0	11.4280	0	32.3150	0	24.610	0	14.973	0	254.8	4	93.8	4	-1E+10	1	-1E+10	1	-1E+10	1	-1E+10	1	-1E+10	1	-1E+10	1
4902549	118	C	11/20/2023	22:06	-132.862	47.456	0	16.30	0	11.4270	0	32.3150	0	24.610	0	16.163	0	254.8	4	93.8	4	-1E+10	1	-1E+10	1	-1E+10	1	-1E+10	1	-1E+10	1	-1E+10	1
4902549	118	C	11/20/2023	22:06	-132.862	47.456	0	17.00	0	11.4280	0	32.3150	0	24.610	0	16.857	0	254.7	4	93.8	4	-1E+10	1	-1E+10	1	-1E+10	1	-1E+10	1	-1E+10	1	-1E+10	1
4902549	118	C	11/20/2023	22:06	-132.862	47.456	0	18.20	0	11.4290	0	32.3150	0	24.610	0	18.047	0	254.8	4	93.8	4	-1E+10	1	-1E+10	1	-1E+10	1	-1E+10	1	-1E+10	1	-1E+10	1
4902549	118	C	11/20/2023	22:06	-132.862	47.456	0	18.90	0	11.4290	0	32.3150	0	24.610	0	18.741	0	254.8	4	93.8	4	-1E+10	1	-1E+10	1	-1E+10	1	-1E+10	1	-1E+10	1	-1E+10	1
4902549	118	C	11/20/2023	22:06	-132.862	47.456	0	19.90	0	11.4270	0	32.3160	0	24.611	0	19.733	0	254.6	4	93.8	4	-1E+10	1	-1E+10	1	-1E+10	1	-1E+10	1	-1E+10	1	-1E+10	1
4902549	118	C	11/20/2023	22:06	-132.862	47.456	0	20.80	0	11.4270	0	32.3150	0	24.610	0	20.625	0	254.6	4	93.8	4	-1E+10	1	-1E+10	1	-1E+10	1	-1E+10	1	-1E+10	1	-1E+10	1
4902549	118	C	11/20/2023	22:06	-132.862	47.456	0	22.00	0	11.4260	0	32.3150	0	24.610	0	21.815	0	254.7	4	93.8	4	-1E+10	1	-1E+10	1	-1E+10	1	-1E+10	1	-1E+10	1	-1E+10	1
4902549	118	C	11/20/2023	22:06	-132.862	47.456	0	23.00	0	11.4270	0	32.3150	0	24.610	0	22.807	0	254.7	4	93.8	4	-1E+10	1	-1E+10	1	-1E+10	1	-1E+10	1	-1E+10	1	-1E+10	1
4902549	118	C	11/20/2023	22:06	-132.862	47.456	0	24.10	0	11.4270	0	32.3150	0	24.610	0	23.898	0	254.7	4	93.8	4	-1E+10	1	-1E+10	1	-1E+10	1	-1E+10	1	-1E+10	1	-1E+10	1
4902549	118	C	11/20/2023	22:06	-132.862	47.456	0	25.10	0	11.4270	0	32.3160	0	24.611	0	24.889	0	254.6	4	93.8	4	-1E+10	1	-1E+10	1	-1E+10	1	-1E+10	1	-1E+10	1	-1E+10	1
4902549	118	C	11/20/2023	22:06	-132.862	47.456	0	25.90	0	11.4290	0	32.3150	0	24.610	0	25.682	0	254.7	4	93.8	4	-1E+10	1	-1E+10	1	-1E+10	1	-1E+10	1	-1E+10	1	-1E+10	1
4902549	118	C	11/20/2023	22:06	-132.862	47.456	0	27.10	0	11.4290	0	32.3150	0	24.610	0	26.872	0	254.6	4	93.8	4	-1E+10	1	-1E+10	1	-1E+10	1	-1E+10	1	-1E+10	1	-1E+10	1
4902549	118	C	11/20/2023	22:06	-132.862	47.456	0	28.30	0	11.4280	0	32.3150	0	24.610	0	28.062	0	254.5	4	93.7	4	-1E+10	1	-1E+10	1	-1E+10	1	-1E+10	1	-1E+10	1	-1E+10	1
4902549	118	C	11/20/2023	22:06	-132.862	47.456	0	29.00	0	11.4280	0	32.3150	0	24.610	0	28.756	0	254.6	4	93.7	4	-1E+10	1	-1E+10	1	-1E+10	1	-1E+10	1	-1E+10	1	-1E+10	1
4902549	118	C	11/20/2023	22:06	-132.862	47.456	0	29.90	0	11.4250	0	32.3150	0	24.611	0	29.648	0	254.6	4	93.7	4	-1E+10	1	-1E+10	1	-1E+10	1	-1E+10	1	-1E+10	1	-1E+10	1
4902549	118	C	11/20/2023	22:06	-132.862	47.456	0	31.00	0	11.4270	0	32.3150	0	24.611	0	30.739	0	254.6	4	93.8	4	-1E+10	1	-1E+10	1	-1E+10	1	-1E+10	1	-1E+10	1	-1E+10	1
4902549	118	C	11/20/2023	22:06	-132.862	47.456	0	31.90	0	11.4280	0	32.3150	0	24.610	0	31.631	0	254.6	4	93.8	4	-1E+10	1	-1E+10	1	-1E+10	1	-1E+10	1	-1E+10	1	-1E+10	1
4902549	118	C	11/20/2023	22:06	-132.862	47.456	0	32.80	0	11.4290	0	32.3150	0	24.610	0	32.524	0	254.5	4	93.7	4	-1E+10	1	-1E+10	1	-1E+10	1	-1E+10	1	-1E+10	1	-1E+10	1
4902549	118	C	11/20/2023	22:06	-132.862	47.456	0	33.90	0	11.4300	0	32.3150	0	24.610	0	33.614	0	254.6	4	93.8	4	-1E+10	1	-1E+10	1	-1E+10	1	-1E+10	1	-1E+10	1	-1E+10	1
4902549	118	C	11/20/2023	22:06	-132.862	47.456	0	34.90	0	11.4310	0	32.3150	0	24.610	0	34.606	0	254.5	4	93.7	4	-1E+10	1	-1E+10	1	-1E+10	1	-1E+10	1	-1E+10	1	-1E+10	1
4902549	118	C	11/20/2023	22:06	-132.862	47.456	0	35.70	0	11.4300	0	32.3150	0	24.610	0	35.399	0	254.5	4	93.7	4	-1E+10	1	-1E+10	1	-1E+10	1	-1E+10	1	-1E+10	1	-1E+10	1
4902549	118	C	11/20/2023	22:06	-132.862	47.456	0	36.70	0	11.4300	0	32.3150	0	24.610	0	36.391	0	254.5	4	93.7	4	-1E+10	1	-1E+10	1	-1E+10	1	-1E+10	1	-1E+10	1	-1E+10	1
4902549	118	C	11/20/2023	22:06	-132.862	47.456	0	37.80	0	11.4310	0	32.3150	0	24.610	0	37.481	0	254.5	4	93.7	4	-1E+10	1	-1E+10	1	-1E+10	1	-1E+10	1	-1E+10	1	-1E+10	1
4902549	118	C	11/20/2023	22:06	-132.862	47.456	0	38.80	0	11.4300	0	32.3150	0	24.610	0	38.473	0	254.5	4	93.7	4	-1E+10	1	-1E+10	1	-1E+10	1	-1E+10	1	-1E+10	1	-1E+10	1
4902549	118	C	11/20/2023	22:06	-132.862	47.456	0	40.00	0	11.4280	0	32.3150	0	24.611	0	39.662	0	254.4	4	93.7	4	-1E+10	1	-1E+10	1	-1E+10	1	-1E+10	1	-1E+10	1	-1E+10	1
4902549	118	C	11/20/2023	22:06	-132.862	47.456	0	41.00	0	11.4310	0	32.3150	0	24.610	0	40.654	0	254.4	4	93.7	4	-1E+10	1	-1E+10	1	-1E+10	1	-1E+10	1	-1E+10	1	-1E+10	1
4902549	118	C	11/20/2023	22:06	-132.862	47.456	0	41.90	0	11.4310	0	32.3150	0	24.610	0	41.546	0	254.5	4	93.7	4	-1E+10	1	-1E+10	1	-1E+10	1	-1E+10	1	-1E+10	1	-1E+10	1
4902549	118	C	11/20/2023	22:06	-132.862	47.456	0	43.00	0	11.4300	0	32.3150	0	24.610	0	42.637	0	254.4	4	93.7	4	-1E+10	1	-1E+10	1	-1E+10	1	-1E+10	1	-1E+10	1	-1E+10	1
4902549	118	C	11/20/2023	22:06	-132.862	47.456	0	44.10	0	11.4240	0	32.3150	0	24.611	0	43.727	0	254.3	4	93.7	4	-1E+10	1	-1E+10	1	-1E+10	1	-1E+10	1	-1E+10	1	-1E+10	1
4902549	118	C	11/20/2023	22:06	-132.862	47.456	0	44.70	0	11.4240	0	32.3170	0	24.613	0	44.322	0	254.3	4	93.7	4	-1E+10	1	-1E+10	1	-1E+10	1	-1E+10	1	-1E+10	1	-1E+10	1
4902549	118	C	11/20/2023	22:06	-132.862	47.456	0	45.70	0	11.4310	0	32.3150	0	24.610	0	45.314	0	254.3	4	93.7	4	-1E+10	1	-1E+10	1	-1E+10	1	-1E+10	1	-1E+10	1	-1E+10	1
4902549	118	C	11/20/2023	22:06	-132.862	47.456	0	46.80	0	11.4260	0	32.3160	0	24.612	0	46.404	0	254.3	4	93.7	4	-1E+10	1	-1E+10	1	-1E+10	1	-1E+10	1	-1E+10	1	-1E+10	1
4902549	118	C	11/20/2023	22:06	-132.862	47.456	0	48.00	0	11.4220	0	32.3150	0	24.612	0	47.594	0	254.2	4	93.6	4	-1E+10	1	-1E+10	1	-1E+10	1	-1E+10	1	-1E+10	1	-1E+10	1
4902549	118	C	11/20/2023	22:06	-132.862	47.456	0	49.00	0	11.4230	0	32.3160	0	24.612	0	48.585	0	254.1	4	93.6	4	-1E+10	1	-1E+10	1	-1E+10	1	-1E+10	1	-1E+10	1	-1E+10	1
4902549	118	C	11/20/2023	22:06	-132.862	47.456	0	50.10	0	11.4230	0	32.3150	0	24.612	0	49.676	0	254.1	4	93.6	4	-1E+10	1	-1E+10	1	-1E+10	1	-1E+10	1	-1E+10	1	-1E+10	1
4902549	118	C	11/20/2023	22:06	-132.862	47.456	0	51.00	0	11.4230	0	32.3150	0	24.612	0	50.568	0	253.9	4	93.5	4	-1E+10	1	-1E+10	1	-1E+10	1	-1E+10	1	-1E+10	1	-1E+10	1
4902549	118	C	11/20/2023	22:06	-132.862	47.456	0	51.80	0	11.4090	0	32.3090	0	24.610	0	51.361	0	253.9	4	93.5	4	-1E+10	1	-1E+10	1	-1E+10	1	-1E+10	1	-1E+10	1	-1E+10	1
4902549	118	C	11/20/2023	22:06	-132.862	47.456	0	52.90	0	11.3860	0	32.3180	0	24.621	0	52.452	0	253.9	4	93.4	4	-1E+10	1	-1E+10	1	-1E+10	1	-1E+10	1	-1E+10	1	-1E+10	1
4902549	118	C	11/20/2023	22:06	-132.862	47.456	0	54.00	0	11.3860	0	32.3130	0	24.617	0	53.543	0	253.6	4	93.3	4	-1E+10	1	-1E+10	1	-1E+10	1	-1E+10	1	-1E+10	1	-1E+10	1
4902549	118	C	11/20/2023	22:06	-132.862	47.456	0	55.00	0	11.3570	0	32.3130	0	24.622	0	54.534	0	253.2	4	93.1	4	-1E+10	1	-1E+10	1	-1E+10	1	-1E+10	1	-1E+10	1	-1E+10	1
4902549	118	C	11/20/2023	22:06	-132.862	47.456	0	55.80	0	11.2090	0	32.3460	0	24.674	0	55.327	0	253.5	4	93.0	4	-1E+10	1	-1E+10	1	-1E+10	1	-1E+10	1	-1E+10	1	-1E+10	1
4902549	118	C	11/20/2023	22:06	-132.862	47.456	0	56.90	0	11.1430	0	32.3220	0	24.667	0	56.418	0	253.7	4	92.9	4	-1E+10	1	-1E+10	1	-1E+10	1	-1E+10	1	-1E+10	1	-1E+10	1
4902549	118	C	11/20/2023	22:06	-132.862	47.456	0	58.20	0	11.0640	0	32.3340	0	24.691	0	57.706	0	253.5	4	92.7	4	-1E+10	1	-1E+10	1	-1E+10	1	-1E+10	1	-1E+10	1	-1E+10	1
4902549	118	C	11/20/2023	22:06	-132.862	47.456	0	59.10	0	10.7510	0	32.3410	0	24.751	0	58.599	0	251.1	4	91.2	4	-1E+10	1	-1E+10	1	-1E+10	1	-1E+10	1	-1E+10	1	-1E+10	1
4902549	118	C	11/20/2023	22:06	-132.862	47.456	0	60.00	0	9.6250	0	32.4100	0	24.993	0	59.491	0	252.8	4	89.6	4	-1E+10	1	-1E+10	1	-1E+10	1	-1E+10	1	-1E+10	1	-1E+10	1
4902549	118	C	11/20/2023	22:06	-132.862	47.456	0	60.90	0	8.3200	0	32.5250	0	25.285	0	60.383	0	258.7	4	89.2	4	-1E+10	1	-1E+10	1	-1E+10	1	-1E+10	1	-1E+10	1	-1E+10	1
4902549	118	C	11/20/2023	22:06	-132.862	47.456	0	62.10	0	8.2670	0	32.5300	0	25.297	0	61.573	0	258.7	4	89.1	4	-1E+10	1	-1E+10	1	-1E+10	1	-1E+10	1	-1E+10	1	-1E+10	1
4902549	118	C	11/20/2023	22:06	-132.862	47.456	0	62.90	0	8.2560	0	32.5310	0	25.299	0	62.366	0	258.8	4	89.1	4	-1E+10	1	-1E+10	1	-1E+10	1	-1E+10	1	-1E+10	1	-1E+10	1
4902549	118	C	11/20/2023	22:06	-132.862	47.456	0	64.00	0	8.2350	0	32.5380	0	25.308	0	63.456	0	258.7	4	89.0	4	-1E+10	1	-1E+10	1	-1E+10	1	-1E+10	1	-1E+10	1	-1E+10	1
4902549	118	C	11/20/2023	22:06	-132.862	47.456	0	65.20	0	8.2310	0	32.5420	0	25.311	0	64.646	0	258.5	4	89.0	4	-1E+10	1	-1E+10	1	-1E+10	1	-1E+10	1	-1E+10	1	-1E+10	1
4902549	118	C	11/20/2023	22:06	-132.862	47.456	0	66.10	0	8.2300	0	32.5430	0	25.312	0	65.538	0	258.4	4	88.9	4	-1E+10	1	-1E+10	1	-1E+10	1	-1E+10	1	-1E+10	1	-1E+10	1
4902549	118	C	11/20/2023	22:06	-132.862	47.456	0	67.00	0	8.2180	0	32.5460	0	25.316	0	66.430	0	258.3	4	88.9	4	-1E+10	1	-1E+10	1	-1E+10	1	-1E+10	1	-1E+10	1	-1E+10	1
4902549	118	C	11/20/2023	22:06	-132.862	47.456	0	68.00	0	8.2080	0	32.5500	0	25.321	0	67.422	0	258.1	4	88.8	4	-1E+10	1	-1E+10	1	-1E+10	1	-1E+10	1	-1E+10	1	-1E+10	1
4902549	118	C	11/20/2023	22:06	-132.862	47.456	0	68.90	0	8.1830	0	32.5540	0	25.328	0	68.314	0	258.1	4	88.7	4	-1E+10	1	-1E+10	1	-1E+10	1	-1E+10	1	-1E+10	1	-1E+10	1
4902549	118	C	11/20/2023	22:06	-132.862	47.456	0	70.00	0	8.1740	0	32.5570	0	25.332	0	69.404	0	258.0	4	88.7	4	-1E+10	1	-1E+10	1	-1E+10	1	-1E+10	1	-1E+10	1	-1E+10	1
4902549	118	C	11/20/2023	22:06	-132.862	47.456	0	71.10	0	8.1870	0	32.5690	0	25.339	0	70.495	0	257.7	4	88.6	4	-1E+10	1	-1E+10	1	-1E+10	1	-1E+10	1	-1E+10	1	-1E+10	1
4902549	118	C	11/20/2023	22:06	-132.862	47.456	0	71.90	0	8.1530	0	32.5690	0	25.344	0	71.288	0	257.8	4	88.6	4	-1E+10	1	-1E+10	1	-1E+10	1	-1E+10	1	-1E+10	1	-1E+10	1
4902549	118	C	11/20/2023	22:06	-132.862	47.456	0	73.30	0	8.1130	0	32.5710	0	25.352	0	72.676	0	257.7	4	88.5	4	-1E+10	1	-1E+10	1	-1E+10	1	-1E+10	1	-1E+10	1	-1E+10	1
4902549	118	C	11/20/2023	22:06	-132.862	47.456	0	74.10	0	8.0950	0	32.5700	0	25.353	0	73.469	0	257.8	4	88.5	4	-1E+10	1	-1E+10	1	-1E+10	1	-1E+10	1	-1E+10	1	-1E+10	1
4902549	118	C	11/20/2023	22:06	-132.862	47.456	0	74.80	0	8.0740	0	32.5710	0	25.357	0	74.163	0	257.7	4	88.4	4	-1E+10	1	-1E+10	1	-1E+10	1	-1E+10	1	-1E+10	1	-1E+10	1
4902549	118	C	11/20/2023	22:06	-132.862	47.456	0	76.00	0	8.0470	0	32.5720	0	25.362	0	75.352	0	257.7	4	88.3	4	-1E+10	1	-1E+10	1	-1E+10	1	-1E+10	1	-1E+10	1	-1E+10	1
4902549	118	C	11/20/2023	22:06	-132.862	47.456	0	77.10	0	7.9580	0	32.5770	0	25.379	0	76.443	0	258.1	4	88.3	4	-1E+10	1	-1E+10	1	-1E+10	1	-1E+10	1	-1E+10	1	-1E+10	1
4902549	118	C	11/20/2023	22:06	-132.862	47.456	0	78.10	0	7.9340	0	32.5730	0	25.379	0	77.434	0	258.2	4	88.3	4	-1E+10	1	-1E+10	1	-1E+10	1	-1E+10	1	-1E+10	1	-1E+10	1
4902549	118	C	11/20/2023	22:06	-132.862	47.456	0	79.10	0	7.9260	0	32.5710	0	25.379	0	78.425	0	258.2	4	88.3	4	-1E+10	1	-1E+10	1	-1E+10	1	-1E+10	1	-1E+10	1	-1E+10	1
4902549	118	C	11/20/2023	22:06	-132.862	47.456	0	80.00	0	7.9220	0	32.5680	0	25.377	0	79.317	0	258.2	4	88.2	4	-1E+10	1	-1E+10	1	-1E+10	1	-1E+10	1	-1E+10	1	-1E+10	1
4902549	118	C	11/20/2023	22:06	-132.862	47.456	0	80.80	0	7.8670	0	32.5660	0	25.383	0	80.110	0	258.5	4	88.2	4	-1E+10	1	-1E+10	1	-1E+10	1	-1E+10	1	-1E+10	1	-1E+10	1
4902549	118	C	11/20/2023	22:06	-132.862	47.456	0	81.90	0	7.7490	0	32.5540	0	25.391	0	81.201	0	259.0	4	88.2	4	-1E+10	1	-1E+10	1	-1E+10	1	-1E+10	1	-1E+10	1	-1E+10	1
4902549	118	C	11/20/2023	22:06	-132.862	47.456	0	83.00	0	7.7250	0	32.5510	0	25.392	0	82.291	0	259.1	4	88.2	4	-1E+10	1	-1E+10	1	-1E+10	1	-1E+10	1	-1E+10	1	-1E+10	1
4902549	118	C	11/20/2023	22:06	-132.862	47.456	0	83.90	0	7.7190	0	32.5500	0	25.392	0	83.183	0	265.6	4	90.4	4	-1E+10	1	-1E+10	1	-1E+10	1	-1E+10	1	-1E+10	1	-1E+10	1
4902549	118	C	11/20/2023	22:06	-132.862	47.456	0	84.80	0	7.6990	0	32.5490	0	25.394	0	84.075	0	265.4	4	90.3	4	-1E+10	1	-1E+10	1	-1E+10	1	-1E+10	1	-1E+10	1	-1E+10	1
4902549	118	C	11/20/2023	22:06	-132.862	47.456	0	86.10	0	7.6770	0	32.5480	0	25.396	0	85.364	0	265.4	4	90.2	4	-1E+10	1	-1E+10	1	-1E+10	1	-1E+10	1	-1E+10	1	-1E+10	1
4902549	118	C	11/20/2023	22:06	-132.862	47.456	0	87.10	0	7.6540	0	32.5490	0	25.400	0	86.355	0	265.4	4	90.2	4	-1E+10	1	-1E+10	1	-1E+10	1	-1E+10	1	-1E+10	1	-1E+10	1
4902549	118	C	11/20/2023	22:06	-132.862	47.456	0	88.00	0	7.6280	0	32.5480	0	25.403	0	87.247	0	265.4	4	90.1	4	-1E+10	1	-1E+10	1	-1E+10	1	-1E+10	1	-1E+10	1	-1E+10	1
4902549	118	C	11/20/2023	22:06	-132.862	47.456	0	88.90	0	7.6150	0	32.5480	0	25.405	0	88.139	0	265.3	4	90.1	4	-1E+10	1	-1E+10	1	-1E+10	1	-1E+10	1	-1E+10	1	-1E+10	1
4902549	118	C	11/20/2023	22:06	-132.862	47.456	0	89.90	0	7.6080	0	32.5480	0	25.406	0	89.131	0	265.2	4	90.0	4	-1E+10	1	-1E+10	1	-1E+10	1	-1E+10	1	-1E+10	1	-1E+10	1
4902549	118	C	11/20/2023	22:06	-132.862	47.456	0	90.80	0	7.5980	0	32.5500	0	25.409	0	90.023	0	264.9	4	89.9	4	-1E+10	1	-1E+10	1	-1E+10	1	-1E+10	1	-1E+10	1	-1E+10	1
4902549	118	C	11/20/2023	22:06	-132.862	47.456	0	91.80	0	7.5830	0	32.5510	0	25.412	0	91.014	0	264.8	4	89.8	4	-1E+10	1	-1E+10	1	-1E+10	1	-1E+10	1	-1E+10	1	-1E+10	1
4902549	118	C	11/20/2023	22:06	-132.862	47.456	0	92.90	0	7.5600	0	32.5530	0	25.417	0	92.104	0	264.7	4	89.7	4	-1E+10	1	-1E+10	1	-1E+10	1	-1E+10	1	-1E+10	1	-1E+10	1
4902549	118	C	11/20/2023	22:06	-132.862	47.456	0	94.00	0	7.5290	0	32.5520	0	25.420	0	93.195	0	264.6	4	89.6	4	-1E+10	1	-1E+10	1	-1E+10	1	-1E+10	1	-1E+10	1	-1E+10	1
4902549	118	C	11/20/2023	22:06	-132.862	47.456	0	95.00	0	7.4680	0	32.5500	0	25.427	0	94.186	0	264.6	4	89.5	4	-1E+10	1	-1E+10	1	-1E+10	1	-1E+10	1	-1E+10	1	-1E+10	1
4902549	118	C	11/20/2023	22:06	-132.862	47.456	0	95.90	0	7.4440	0	32.5450	0	25.426	0	95.078	0	264.3	4	89.3	4	-1E+10	1	-1E+10	1	-1E+10	1	-1E+10	1	-1E+10	1	-1E+10	1
4902549	118	C	11/20/2023	22:06	-132.862	47.456	0	96.90	0	7.4100	0	32.5450	0	25.431	0	96.069	0	263.9	4	89.1	4	-1E+10	1	-1E+10	1	-1E+10	1	-1E+10	1	-1E+10	1	-1E+10	1
4902549	118	C	11/20/2023	22:06	-132.862	47.456	0	97.90	0	7.3830	0	32.5440	0	25.434	0	97.060	0	263.4	4	88.9	4	-1E+10	1	-1E+10	1	-1E+10	1	-1E+10	1	-1E+10	1	-1E+10	1
4902549	118	C	11/20/2023	22:06	-132.862	47.456	0	98.90	0	7.3770	0	32.5450	0	25.436	0	98.051	0	262.7	4	88.7	4	-1E+10	1	-1E+10	1	-1E+10	1	-1E+10	1	-1E+10	1	-1E+10	1
4902549	118	C	11/20/2023	22:06	-132.862	47.456	0	99.90	0	7.3570	0	32.5470	0	25.440	0	99.043	0	261.9	4	88.4	4	-1E+10	1	-1E+10	1	-1E+10	1	-1E+10	1	-1E+10	1	-1E+10	1
4902549	118	C	11/20/2023	22:06	-132.862	47.456	0	100.90	0	7.3400	0	32.5510	0	25.445	0	100.034	0	260.7	4	87.9	4	-1E+10	1	-1E+10	1	-1E+10	1	-1E+10	1	-1E+10	1	-1E+10	1
4902549	118	C	11/20/2023	22:06	-132.862	47.456	0	101.90	0	7.3500	0	32.5570	0	25.449	0	101.025	0	258.9	4	87.4	4	-1E+10	1	-1E+10	1	-1E+10	1	-1E+10	1	-1E+10	1	-1E+10	1
4902549	118	C	11/20/2023	22:06	-132.862	47.456	0	103.00	0	7.3740	0	32.5790	0	25.463	0	102.115	0	256.2	4	86.5	4	-1E+10	1	-1E+10	1	-1E+10	1	-1E+10	1	-1E+10	1	-1E+10	1
4902549	118	C	11/20/2023	22:06	-132.862	47.456	0	103.90	0	7.4620	0	32.6260	0	25.488	0	103.007	0	254.1	4	86.0	4	-1E+10	1	-1E+10	1	-1E+10	1	-1E+10	1	-1E+10	1	-1E+10	1
4902549	118	C	11/20/2023	22:06	-132.862	47.456	0	105.00	0	7.4160	0	32.6560	0	25.518	0	104.098	0	253.1	4	85.6	4	-1E+10	1	-1E+10	1	-1E+10	1	-1E+10	1	-1E+10	1	-1E+10	1
4902549	118	C	11/20/2023	22:06	-132.862	47.456	0	106.10	0	7.4260	0	32.6700	0	25.527	0	105.188	0	251.1	4	84.9	4	-1E+10	1	-1E+10	1	-1E+10	1	-1E+10	1	-1E+10	1	-1E+10	1
4902549	118	C	11/20/2023	22:06	-132.862	47.456	0	107.00	0	7.4320	0	32.6700	0	25.526	0	106.080	0	249.2	4	84.3	4	-1E+10	1	-1E+10	1	-1E+10	1	-1E+10	1	-1E+10	1	-1E+10	1
4902549	118	C	11/20/2023	22:06	-132.862	47.456	0	107.90	0	7.4530	0	32.6780	0	25.530	0	106.972	0	247.1	4	83.6	4	-1E+10	1	-1E+10	1	-1E+10	1	-1E+10	1	-1E+10	1	-1E+10	1
4902549	118	C	11/20/2023	22:06	-132.862	47.456	0	109.20	0	7.4740	0	32.6950	0	25.540	0	108.260	0	244.4	4	82.8	4	-1E+10	1	-1E+10	1	-1E+10	1	-1E+10	1	-1E+10	1	-1E+10	1
4902549	118	C	11/20/2023	22:06	-132.862	47.456	0	109.80	0	7.4430	0	32.7380	0	25.578	0	108.855	0	243.3	4	82.4	4	-1E+10	1	-1E+10	1	-1E+10	1	-1E+10	1	-1E+10	1	-1E+10	1
4902549	118	C	11/20/2023	22:06	-132.862	47.456	0	110.90	0	7.4210	0	32.7590	0	25.598	0	109.945	0	241.8	4	81.8	4	-1E+10	1	-1E+10	1	-1E+10	1	-1E+10	1	-1E+10	1	-1E+10	1
4902549	118	C	11/20/2023	22:06	-132.862	47.456	0	112.10	0	7.3970	0	32.7990	0	25.633	0	111.135	0	240.4	4	81.4	4	-1E+10	1	-1E+10	1	-1E+10	1	-1E+10	1	-1E+10	1	-1E+10	1
4902549	118	C	11/20/2023	22:06	-132.862	47.456	0	113.00	0	7.3850	0	32.8130	0	25.645	0	112.027	0	239.3	4	81.0	4	-1E+10	1	-1E+10	1	-1E+10	1	-1E+10	1	-1E+10	1	-1E+10	1
4902549	118	C	11/20/2023	22:06	-132.862	47.456	0	113.90	0	7.3590	0	32.8190	0	25.654	0	112.919	0	238.1	4	80.5	4	-1E+10	1	-1E+10	1	-1E+10	1	-1E+10	1	-1E+10	1	-1E+10	1
4902549	118	C	11/20/2023	22:06	-132.862	47.456	0	114.90	0	7.3300	0	32.8510	0	25.683	0	113.910	0	237.0	4	80.1	4	-1E+10	1	-1E+10	1	-1E+10	1	-1E+10	1	-1E+10	1	-1E+10	1
4902549	118	C	11/20/2023	22:06	-132.862	47.456	0	115.90	0	7.3030	0	32.8730	0	25.704	0	114.901	0	235.8	4	79.7	4	-1E+10	1	-1E+10	1	-1E+10	1	-1E+10	1	-1E+10	1	-1E+10	1
4902549	118	C	11/20/2023	22:06	-132.862	47.456	0	117.00	0	7.2600	0	32.8980	0	25.730	0	115.991	0	234.8	4	79.2	4	-1E+10	1	-1E+10	1	-1E+10	1	-1E+10	1	-1E+10	1	-1E+10	1
4902549	118	C	11/20/2023	22:06	-132.862	47.456	0	117.80	0	7.2370	0	32.9200	0	25.750	0	116.784	0	234.1	4	79.0	4	-1E+10	1	-1E+10	1	-1E+10	1	-1E+10	1	-1E+10	1	-1E+10	1
4902549	118	C	11/20/2023	22:06	-132.862	47.456	0	118.90	0	7.1290	0	32.9620	0	25.798	0	117.874	0	233.5	4	78.6	4	-1E+10	1	-1E+10	1	-1E+10	1	-1E+10	1	-1E+10	1	-1E+10	1
4902549	118	C	11/20/2023	22:06	-132.862	47.456	0	120.10	0	7.1130	0	32.9760	0	25.811	0	119.063	0	232.5	4	78.3	4	-1E+10	1	-1E+10	1	-1E+10	1	-1E+10	1	-1E+10	1	-1E+10	1
4902549	118	C	11/20/2023	22:06	-132.862	47.456	0	120.90	0	7.0680	0	32.9950	0	25.832	0	119.856	0	232.0	4	78.0	4	-1E+10	1	-1E+10	1	-1E+10	1	-1E+10	1	-1E+10	1	-1E+10	1
4902549	118	C	11/20/2023	22:06	-132.862	47.456	0	121.80	0	7.0130	0	33.0170	0	25.857	0	120.748	0	231.6	4	77.8	4	-1E+10	1	-1E+10	1	-1E+10	1	-1E+10	1	-1E+10	1	-1E+10	1
4902549	118	C	11/20/2023	22:06	-132.862	47.456	0	122.60	0	7.0210	0	33.0420	0	25.875	0	121.541	0	231.0	4	77.6	4	-1E+10	1	-1E+10	1	-1E+10	1	-1E+10	1	-1E+10	1	-1E+10	1
4902549	118	C	11/20/2023	22:06	-132.862	47.456	0	123.90	0	6.9630	0	33.0750	0	25.909	0	122.830	0	230.5	4	77.4	4	-1E+10	1	-1E+10	1	-1E+10	1	-1E+10	1	-1E+10	1	-1E+10	1
4902549	118	C	11/20/2023	22:06	-132.862	47.456	0	125.10	0	6.9350	0	33.0880	0	25.923	0	124.019	0	229.9	4	77.1	4	-1E+10	1	-1E+10	1	-1E+10	1	-1E+10	1	-1E+10	1	-1E+10	1
4902549	118	C	11/20/2023	22:06	-132.862	47.456	0	125.90	0	6.8770	0	33.1210	0	25.957	0	124.812	0	229.7	4	77.0	4	-1E+10	1	-1E+10	1	-1E+10	1	-1E+10	1	-1E+10	1	-1E+10	1
4902549	118	C	11/20/2023	22:06	-132.862	47.456	0	126.70	0	6.8360	0	33.1170	0	25.959	0	125.605	0	229.5	4	76.8	4	-1E+10	1	-1E+10	1	-1E+10	1	-1E+10	1	-1E+10	1	-1E+10	1
4902549	118	C	11/20/2023	22:06	-132.862	47.456	0	128.00	0	6.8270	0	33.1270	0	25.968	0	126.893	0	228.9	4	76.6	4	-1E+10	1	-1E+10	1	-1E+10	1	-1E+10	1	-1E+10	1	-1E+10	1
4902549	118	C	11/20/2023	22:06	-132.862	47.456	0	129.20	0	6.7810	0	33.1530	0	25.995	0	128.082	0	228.4	4	76.4	4	-1E+10	1	-1E+10	1	-1E+10	1	-1E+10	1	-1E+10	1	-1E+10	1
4902549	118	C	11/20/2023	22:06	-132.862	47.456	0	130.00	0	6.7500	0	33.1690	0	26.012	0	128.875	0	228.2	4	76.3	4	-1E+10	1	-1E+10	1	-1E+10	1	-1E+10	1	-1E+10	1	-1E+10	1
4902549	118	C	11/20/2023	22:06	-132.862	47.456	0	130.80	0	6.7500	0	33.1690	0	26.012	0	129.668	0	227.7	4	76.1	4	-1E+10	1	-1E+10	1	-1E+10	1	-1E+10	1	-1E+10	1	-1E+10	1
4902549	118	C	11/20/2023	22:06	-132.862	47.456	0	131.90	0	6.7240	0	33.1790	0	26.023	0	130.758	0	227.0	4	75.9	4	-1E+10	1	-1E+10	1	-1E+10	1	-1E+10	1	-1E+10	1	-1E+10	1
4902549	118	C	11/20/2023	22:06	-132.862	47.456	0	133.10	0	6.6380	0	33.2130	0	26.061	0	131.947	0	226.9	4	75.7	4	-1E+10	1	-1E+10	1	-1E+10	1	-1E+10	1	-1E+10	1	-1E+10	1
4902549	118	C	11/20/2023	22:06	-132.862	47.456	0	133.90	0	6.5520	0	33.2260	0	26.083	0	132.740	0	226.8	4	75.5	4	-1E+10	1	-1E+10	1	-1E+10	1	-1E+10	1	-1E+10	1	-1E+10	1
4902549	118	C	11/20/2023	22:06	-132.862	47.456	0	135.00	0	6.5040	0	33.2330	0	26.094	0	133.830	0	226.2	4	75.2	4	-1E+10	1	-1E+10	1	-1E+10	1	-1E+10	1	-1E+10	1	-1E+10	1
4902549	118	C	11/20/2023	22:06	-132.862	47.456	0	136.20	0	6.3830	0	33.2670	0	26.137	0	135.019	0	225.6	4	74.8	4	-1E+10	1	-1E+10	1	-1E+10	1	-1E+10	1	-1E+10	1	-1E+10	1
4902549	118	C	11/20/2023	22:06	-132.862	47.456	0	137.00	0	6.3820	0	33.2800	0	26.147	0	135.812	0	225.0	4	74.6	4	-1E+10	1	-1E+10	1	-1E+10	1	-1E+10	1	-1E+10	1	-1E+10	1
4902549	118	C	11/20/2023	22:06	-132.862	47.456	0	137.80	0	6.3720	0	33.2920	0	26.158	0	136.605	0	224.2	4	74.4	4	-1E+10	1	-1E+10	1	-1E+10	1	-1E+10	1	-1E+10	1	-1E+10	1
4902549	118	C	11/20/2023	22:06	-132.862	47.456	0	139.00	0	6.3110	0	33.3010	0	26.173	0	137.794	0	223.2	4	73.9	4	-1E+10	1	-1E+10	1	-1E+10	1	-1E+10	1	-1E+10	1	-1E+10	1
4902549	118	C	11/20/2023	22:06	-132.862	47.456	0	140.20	0	6.2500	0	33.3080	0	26.186	0	138.983	0	221.6	4	73.3	4	-1E+10	1	-1E+10	1	-1E+10	1	-1E+10	1	-1E+10	1	-1E+10	1
4902549	118	C	11/20/2023	22:06	-132.862	47.456	0	141.00	0	6.2530	0	33.3320	0	26.205	0	139.776	0	220.4	4	72.9	4	-1E+10	1	-1E+10	1	-1E+10	1	-1E+10	1	-1E+10	1	-1E+10	1
4902549	118	C	11/20/2023	22:06	-132.862	47.456	0	141.80	0	6.3000	0	33.3410	0	26.206	0	140.569	0	219.0	4	72.6	4	-1E+10	1	-1E+10	1	-1E+10	1	-1E+10	1	-1E+10	1	-1E+10	1
4902549	118	C	11/20/2023	22:06	-132.862	47.456	0	142.60	0	6.3230	0	33.3680	0	26.224	0	141.362	0	217.7	4	72.2	4	-1E+10	1	-1E+10	1	-1E+10	1	-1E+10	1	-1E+10	1	-1E+10	1
4902549	118	C	11/20/2023	22:06	-132.862	47.456	0	143.90	0	6.3040	0	33.3820	0	26.238	0	142.650	0	216.1	4	71.6	4	-1E+10	1	-1E+10	1	-1E+10	1	-1E+10	1	-1E+10	1	-1E+10	1
4902549	118	C	11/20/2023	22:06	-132.862	47.456	0	145.20	0	6.2940	0	33.4050	0	26.257	0	143.938	0	214.4	4	71.1	4	-1E+10	1	-1E+10	1	-1E+10	1	-1E+10	1	-1E+10	1	-1E+10	1
4902549	118	C	11/20/2023	22:06	-132.862	47.456	0	146.10	0	6.2520	0	33.4130	0	26.269	0	144.830	0	213.1	4	70.6	4	-1E+10	1	-1E+10	1	-1E+10	1	-1E+10	1	-1E+10	1	-1E+10	1
4902549	118	C	11/20/2023	22:06	-132.862	47.456	0	147.00	0	6.2580	0	33.4380	0	26.288	0	145.722	0	211.7	4	70.1	4	-1E+10	1	-1E+10	1	-1E+10	1	-1E+10	1	-1E+10	1	-1E+10	1
4902549	118	C	11/20/2023	22:06	-132.862	47.456	0	148.00	0	6.2950	0	33.4700	0	26.308	0	146.713	0	210.3	4	69.7	4	-1E+10	1	-1E+10	1	-1E+10	1	-1E+10	1	-1E+10	1	-1E+10	1
4902549	118	C	11/20/2023	22:06	-132.862	47.456	0	148.90	0	6.3110	0	33.4830	0	26.317	0	147.605	0	209.2	4	69.4	4	-1E+10	1	-1E+10	1	-1E+10	1	-1E+10	1	-1E+10	1	-1E+10	1
4902549	118	C	11/20/2023	22:06	-132.862	47.456	0	149.90	0	6.3160	0	33.4950	0	26.325	0	148.596	0	208.3	4	69.1	4	-1E+10	1	-1E+10	1	-1E+10	1	-1E+10	1	-1E+10	1	-1E+10	1
4902549	118	C	11/20/2023	22:06	-132.862	47.456	0	150.80	0	6.3170	0	33.4980	0	26.328	0	149.487	0	207.3	4	68.8	4	-1E+10	1	-1E+10	1	-1E+10	1	-1E+10	1	-1E+10	1	-1E+10	1
4902549	118	C	11/20/2023	22:06	-132.862	47.456	0	151.80	0	6.3180	0	33.5030	0	26.331	0	150.478	0	206.2	4	68.4	4	-1E+10	1	-1E+10	1	-1E+10	1	-1E+10	1	-1E+10	1	-1E+10	1
4902549	118	C	11/20/2023	22:06	-132.862	47.456	0	152.80	0	6.3180	0	33.5080	0	26.335	0	151.469	0	205.1	4	68.1	4	-1E+10	1	-1E+10	1	-1E+10	1	-1E+10	1	-1E+10	1	-1E+10	1
4902549	118	C	11/20/2023	22:06	-132.862	47.456	0	153.80	0	6.3240	0	33.5330	0	26.354	0	152.460	0	204.2	4	67.8	4	-1E+10	1	-1E+10	1	-1E+10	1	-1E+10	1	-1E+10	1	-1E+10	1
4902549	118	C	11/20/2023	22:06	-132.862	47.456	0	154.70	0	6.3250	0	33.5360	0	26.357	0	153.352	0	203.4	4	67.5	4	-1E+10	1	-1E+10	1	-1E+10	1	-1E+10	1	-1E+10	1	-1E+10	1
4902549	118	C	11/20/2023	22:06	-132.862	47.456	0	155.70	0	6.3290	0	33.5460	0	26.364	0	154.343	0	202.6	4	67.3	4	-1E+10	1	-1E+10	1	-1E+10	1	-1E+10	1	-1E+10	1	-1E+10	1
4902549	118	C	11/20/2023	22:06	-132.862	47.456	0	156.80	0	6.3310	0	33.5530	0	26.369	0	155.433	0	201.8	4	67.0	4	-1E+10	1	-1E+10	1	-1E+10	1	-1E+10	1	-1E+10	1	-1E+10	1
4902549	118	C	11/20/2023	22:06	-132.862	47.456	0	157.80	0	6.3330	0	33.5590	0	26.374	0	156.424	0	201.0	4	66.8	4	-1E+10	1	-1E+10	1	-1E+10	1	-1E+10	1	-1E+10	1	-1E+10	1
4902549	118	C	11/20/2023	22:06	-132.862	47.456	0	158.80	0	6.3350	0	33.5630	0	26.377	0	157.415	0	200.2	4	66.5	4	-1E+10	1	-1E+10	1	-1E+10	1	-1E+10	1	-1E+10	1	-1E+10	1
4902549	118	C	11/20/2023	22:06	-132.862	47.456	0	159.80	0	6.3420	0	33.5710	0	26.382	0	158.406	0	199.3	4	66.2	4	-1E+10	1	-1E+10	1	-1E+10	1	-1E+10	1	-1E+10	1	-1E+10	1
4902549	118	C	11/20/2023	22:06	-132.862	47.456	0	160.80	0	6.3460	0	33.5850	0	26.393	0	159.397	0	198.5	4	65.9	4	-1E+10	1	-1E+10	1	-1E+10	1	-1E+10	1	-1E+10	1	-1E+10	1
4902549	118	C	11/20/2023	22:06	-132.862	47.456	0	161.80	0	6.3470	0	33.5880	0	26.395	0	160.387	0	197.7	4	65.7	4	-1E+10	1	-1E+10	1	-1E+10	1	-1E+10	1	-1E+10	1	-1E+10	1
4902549	118	C	11/20/2023	22:06	-132.862	47.456	0	162.80	0	6.3490	0	33.5920	0	26.398	0	161.378	0	196.9	4	65.4	4	-1E+10	1	-1E+10	1	-1E+10	1	-1E+10	1	-1E+10	1	-1E+10	1
4902549	118	C	11/20/2023	22:06	-132.862	47.456	0	163.80	0	6.3470	0	33.5970	0	26.402	0	162.369	0	196.0	4	65.1	4	-1E+10	1	-1E+10	1	-1E+10	1	-1E+10	1	-1E+10	1	-1E+10	1
4902549	118	C	11/20/2023	22:06	-132.862	47.456	0	164.90	0	6.3460	0	33.6000	0	26.405	0	163.459	0	195.2	4	64.9	4	-1E+10	1	-1E+10	1	-1E+10	1	-1E+10	1	-1E+10	1	-1E+10	1
4902549	118	C	11/20/2023	22:06	-132.862	47.456	0	165.90	0	6.3470	0	33.6020	0	26.406	0	164.450	0	194.3	4	64.6	4	-1E+10	1	-1E+10	1	-1E+10	1	-1E+10	1	-1E+10	1	-1E+10	1
4902549	118	C	11/20/2023	22:06	-132.862	47.456	0	167.00	0	6.3220	0	33.6120	0	26.417	0	165.540	0	193.6	4	64.3	4	-1E+10	1	-1E+10	1	-1E+10	1	-1E+10	1	-1E+10	1	-1E+10	1
4902549	118	C	11/20/2023	22:06	-132.862	47.456	0	168.00	0	6.3450	0	33.6170	0	26.418	0	166.531	0	192.8	4	64.1	4	-1E+10	1	-1E+10	1	-1E+10	1	-1E+10	1	-1E+10	1	-1E+10	1
4902549	118	C	11/20/2023	22:06	-132.862	47.456	0	169.00	0	6.3440	0	33.6230	0	26.423	0	167.522	0	192.0	4	63.8	4	-1E+10	1	-1E+10	1	-1E+10	1	-1E+10	1	-1E+10	1	-1E+10	1
4902549	118	C	11/20/2023	22:06	-132.862	47.456	0	170.00	0	6.3290	0	33.6230	0	26.425	0	168.512	0	191.3	4	63.6	4	-1E+10	1	-1E+10	1	-1E+10	1	-1E+10	1	-1E+10	1	-1E+10	1
4902549	118	C	11/20/2023	22:06	-132.862	47.456	0	171.00	0	6.3260	0	33.6240	0	26.426	0	169.503	0	190.6	4	63.3	4	-1E+10	1	-1E+10	1	-1E+10	1	-1E+10	1	-1E+10	1	-1E+10	1
4902549	118	C	11/20/2023	22:06	-132.862	47.456	0	172.10	0	6.3220	0	33.6320	0	26.433	0	170.593	0	189.7	4	63.0	4	-1E+10	1	-1E+10	1	-1E+10	1	-1E+10	1	-1E+10	1	-1E+10	1
4902549	118	C	11/20/2023	22:06	-132.862	47.456	0	173.10	0	6.2940	0	33.6350	0	26.439	0	171.584	0	189.1	4	62.8	4	-1E+10	1	-1E+10	1	-1E+10	1	-1E+10	1	-1E+10	1	-1E+10	1
4902549	118	C	11/20/2023	22:06	-132.862	47.456	0	174.10	0	6.2890	0	33.6460	0	26.448	0	172.575	0	188.2	4	62.5	4	-1E+10	1	-1E+10	1	-1E+10	1	-1E+10	1	-1E+10	1	-1E+10	1
4902549	118	C	11/20/2023	22:06	-132.862	47.456	0	175.10	0	6.2880	0	33.6500	0	26.452	0	173.566	0	187.5	4	62.3	4	-1E+10	1	-1E+10	1	-1E+10	1	-1E+10	1	-1E+10	1	-1E+10	1
4902549	118	C	11/20/2023	22:06	-132.862	47.456	0	176.10	0	6.2860	0	33.6570	0	26.457	0	174.557	0	186.6	4	61.9	4	-1E+10	1	-1E+10	1	-1E+10	1	-1E+10	1	-1E+10	1	-1E+10	1
4902549	118	C	11/20/2023	22:06	-132.862	47.456	0	177.20	0	6.2900	0	33.6610	0	26.460	0	175.646	0	186.0	4	61.7	4	-1E+10	1	-1E+10	1	-1E+10	1	-1E+10	1	-1E+10	1	-1E+10	1
4902549	118	C	11/20/2023	22:06	-132.862	47.456	0	178.10	0	6.2940	0	33.6700	0	26.467	0	176.538	0	185.6	4	61.6	4	-1E+10	1	-1E+10	1	-1E+10	1	-1E+10	1	-1E+10	1	-1E+10	1
4902549	118	C	11/20/2023	22:06	-132.862	47.456	0	179.10	0	6.2880	0	33.6730	0	26.470	0	177.529	0	185.3	4	61.5	4	-1E+10	1	-1E+10	1	-1E+10	1	-1E+10	1	-1E+10	1	-1E+10	1
4902549	118	C	11/20/2023	22:06	-132.862	47.456	0	180.00	0	6.2600	0	33.6720	0	26.473	0	178.421	0	185.0	4	61.4	4	-1E+10	1	-1E+10	1	-1E+10	1	-1E+10	1	-1E+10	1	-1E+10	1
4902549	118	C	11/20/2023	22:06	-132.862	47.456	0	181.10	0	6.2490	0	33.6720	0	26.474	0	179.511	0	184.6	4	61.2	4	-1E+10	1	-1E+10	1	-1E+10	1	-1E+10	1	-1E+10	1	-1E+10	1
4902549	118	C	11/20/2023	22:06	-132.862	47.456	0	181.90	0	6.2460	0	33.6720	0	26.474	0	180.303	0	184.1	4	61.1	4	-1E+10	1	-1E+10	1	-1E+10	1	-1E+10	1	-1E+10	1	-1E+10	1
4902549	118	C	11/20/2023	22:06	-132.862	47.456	0	183.00	0	6.2460	0	33.6730	0	26.475	0	181.393	0	183.3	4	60.8	4	-1E+10	1	-1E+10	1	-1E+10	1	-1E+10	1	-1E+10	1	-1E+10	1
4902549	118	C	11/20/2023	22:06	-132.862	47.456	0	184.10	0	6.2510	0	33.6770	0	26.478	0	182.483	0	182.4	4	60.5	4	-1E+10	1	-1E+10	1	-1E+10	1	-1E+10	1	-1E+10	1	-1E+10	1
4902549	118	C	11/20/2023	22:06	-132.862	47.456	0	184.80	0	6.2520	0	33.6780	0	26.478	0	183.176	0	181.9	4	60.3	4	-1E+10	1	-1E+10	1	-1E+10	1	-1E+10	1	-1E+10	1	-1E+10	1
4902549	118	C	11/20/2023	22:06	-132.862	47.456	0	185.90	0	6.2540	0	33.6770	0	26.477	0	184.266	0	180.9	4	60.0	4	-1E+10	1	-1E+10	1	-1E+10	1	-1E+10	1	-1E+10	1	-1E+10	1
4902549	118	C	11/20/2023	22:06	-132.862	47.456	0	187.10	0	6.2560	0	33.6820	0	26.481	0	185.455	0	180.0	4	59.7	4	-1E+10	1	-1E+10	1	-1E+10	1	-1E+10	1	-1E+10	1	-1E+10	1
4902549	118	C	11/20/2023	22:06	-132.862	47.456	0	187.80	0	6.2540	0	33.6860	0	26.484	0	186.149	0	179.4	4	59.5	4	-1E+10	1	-1E+10	1	-1E+10	1	-1E+10	1	-1E+10	1	-1E+10	1
4902549	118	C	11/20/2023	22:06	-132.862	47.456	0	188.90	0	6.2430	0	33.6880	0	26.487	0	187.239	0	178.6	4	59.2	4	-1E+10	1	-1E+10	1	-1E+10	1	-1E+10	1	-1E+10	1	-1E+10	1
4902549	118	C	11/20/2023	22:06	-132.862	47.456	0	190.10	0	6.2350	0	33.6900	0	26.490	0	188.427	0	177.7	4	58.9	4	-1E+10	1	-1E+10	1	-1E+10	1	-1E+10	1	-1E+10	1	-1E+10	1
4902549	118	C	11/20/2023	22:06	-132.862	47.456	0	190.80	0	6.2320	0	33.6910	0	26.491	0	189.121	0	177.1	4	58.7	4	-1E+10	1	-1E+10	1	-1E+10	1	-1E+10	1	-1E+10	1	-1E+10	1
4902549	118	C	11/20/2023	22:06	-132.862	47.456	0	192.00	0	6.1910	0	33.6930	0	26.498	0	190.310	0	176.1	4	58.3	4	-1E+10	1	-1E+10	1	-1E+10	1	-1E+10	1	-1E+10	1	-1E+10	1
4902549	118	C	11/20/2023	22:06	-132.862	47.456	0	193.20	0	6.1160	0	33.7020	0	26.515	0	191.499	0	175.1	4	57.9	4	-1E+10	1	-1E+10	1	-1E+10	1	-1E+10	1	-1E+10	1	-1E+10	1
4902549	118	C	11/20/2023	22:06	-132.862	47.456	0	194.00	0	6.0960	0	33.6970	0	26.513	0	192.291	0	174.3	4	57.6	4	-1E+10	1	-1E+10	1	-1E+10	1	-1E+10	1	-1E+10	1	-1E+10	1
4902549	118	C	11/20/2023	22:06	-132.862	47.456	0	194.80	0	6.0430	0	33.7030	0	26.525	0	193.084	0	173.4	4	57.3	4	-1E+10	1	-1E+10	1	-1E+10	1	-1E+10	1	-1E+10	1	-1E+10	1
4902549	118	C	11/20/2023	22:06	-132.862	47.456	0	196.00	0	6.0180	0	33.7030	0	26.528	0	194.273	0	171.9	4	56.7	4	-1E+10	1	-1E+10	1	-1E+10	1	-1E+10	1	-1E+10	1	-1E+10	1
4902549	118	C	11/20/2023	22:06	-132.862	47.456	0	197.20	0	6.0090	0	33.7130	0	26.537	0	195.462	0	170.3	4	56.2	4	-1E+10	1	-1E+10	1	-1E+10	1	-1E+10	1	-1E+10	1	-1E+10	1
4902549	118	C	11/20/2023	22:06	-132.862	47.456	0	198.00	0	5.9940	0	33.7140	0	26.539	0	196.254	0	169.2	4	55.8	4	-1E+10	1	-1E+10	1	-1E+10	1	-1E+10	1	-1E+10	1	-1E+10	1
4902549	118	C	11/20/2023	22:06	-132.862	47.456	0	198.90	0	6.0020	0	33.7200	0	26.543	0	197.146	0	168.3	4	55.5	4	-1E+10	1	-1E+10	1	-1E+10	1	-1E+10	1	-1E+10	1	-1E+10	1
4902549	118	C	11/20/2023	22:06	-132.862	47.456	0	199.70	0	5.9950	0	33.7230	0	26.546	0	197.938	0	167.7	4	55.3	4	-1E+10	1	-1E+10	1	-1E+10	1	-1E+10	1	-1E+10	1	-1E+10	1
4902549	118	C	11/20/2023	22:06	-132.862	47.456	0	201.00	0	5.9860	0	33.7250	0	26.549	0	199.226	0	166.7	4	55.0	4	-1E+10	1	-1E+10	1	-1E+10	1	-1E+10	1	-1E+10	1	-1E+10	1
4902549	118	C	11/20/2023	22:06	-132.862	47.456	0	202.30	0	5.9530	0	33.7320	0	26.559	0	200.514	0	166.0	4	54.7	4	-1E+10	1	-1E+10	1	-1E+10	1	-1E+10	1	-1E+10	1	-1E+10	1
4902549	118	C	11/20/2023	22:06	-132.862	47.456	0	203.10	0	5.9210	0	33.7330	0	26.564	0	201.307	0	165.7	4	54.6	4	-1E+10	1	-1E+10	1	-1E+10	1	-1E+10	1	-1E+10	1	-1E+10	1
4902549	118	C	11/20/2023	22:06	-132.862	47.456	0	204.00	0	5.9030	0	33.7300	0	26.563	0	202.198	0	165.4	4	54.4	4	-1E+10	1	-1E+10	1	-1E+10	1	-1E+10	1	-1E+10	1	-1E+10	1
4902549	118	C	11/20/2023	22:06	-132.862	47.456	0	204.80	0	5.8840	0	33.7310	0	26.567	0	202.991	0	165.0	4	54.3	4	-1E+10	1	-1E+10	1	-1E+10	1	-1E+10	1	-1E+10	1	-1E+10	1
4902549	118	C	11/20/2023	22:06	-132.862	47.456	0	205.60	0	5.8620	0	33.7320	0	26.570	0	203.783	0	164.4	4	54.1	4	-1E+10	1	-1E+10	1	-1E+10	1	-1E+10	1	-1E+10	1	-1E+10	1
4902549	118	C	11/20/2023	22:06	-132.862	47.456	0	206.90	0	5.8370	0	33.7290	0	26.571	0	205.071	0	163.4	4	53.7	4	-1E+10	1	-1E+10	1	-1E+10	1	-1E+10	1	-1E+10	1	-1E+10	1
4902549	118	C	11/20/2023	22:06	-132.862	47.456	0	208.20	0	5.8330	0	33.7280	0	26.571	0	206.359	0	162.0	4	53.2	4	-1E+10	1	-1E+10	1	-1E+10	1	-1E+10	1	-1E+10	1	-1E+10	1
4902549	118	C	11/20/2023	22:06	-132.862	47.456	0	209.00	0	5.8040	0	33.7350	0	26.580	0	207.152	0	161.2	4	52.9	4	-1E+10	1	-1E+10	1	-1E+10	1	-1E+10	1	-1E+10	1	-1E+10	1
4902549	118	C	11/20/2023	22:06	-132.862	47.456	0	210.00	0	5.7850	0	33.7320	0	26.580	0	208.142	0	160.2	4	52.6	4	-1E+10	1	-1E+10	1	-1E+10	1	-1E+10	1	-1E+10	1	-1E+10	1
4902549	118	C	11/20/2023	22:06	-132.862	47.456	0	210.80	0	5.7850	0	33.7330	0	26.580	0	208.935	0	159.2	4	52.3	4	-1E+10	1	-1E+10	1	-1E+10	1	-1E+10	1	-1E+10	1	-1E+10	1
4902549	118	C	11/20/2023	22:06	-132.862	47.456	0	211.70	0	5.7810	0	33.7350	0	26.582	0	209.826	0	158.0	4	51.9	4	-1E+10	1	-1E+10	1	-1E+10	1	-1E+10	1	-1E+10	1	-1E+10	1
4902549	118	C	11/20/2023	22:06	-132.862	47.456	0	212.70	0	5.8010	0	33.7380	0	26.582	0	210.817	0	157.0	4	51.6	4	-1E+10	1	-1E+10	1	-1E+10	1	-1E+10	1	-1E+10	1	-1E+10	1
4902549	118	C	11/20/2023	22:06	-132.862	47.456	0	213.60	0	5.8020	0	33.7440	0	26.587	0	211.709	0	156.4	4	51.4	4	-1E+10	1	-1E+10	1	-1E+10	1	-1E+10	1	-1E+10	1	-1E+10	1
4902549	118	C	11/20/2023	22:06	-132.862	47.456	0	214.90	0	5.8050	0	33.7470	0	26.589	0	212.996	0	155.6	4	51.1	4	-1E+10	1	-1E+10	1	-1E+10	1	-1E+10	1	-1E+10	1	-1E+10	1
4902549	118	C	11/20/2023	22:06	-132.862	47.456	0	216.30	0	5.8040	0	33.7490	0	26.591	0	214.383	0	155.0	4	50.9	4	-1E+10	1	-1E+10	1	-1E+10	1	-1E+10	1	-1E+10	1	-1E+10	1
4902549	118	C	11/20/2023	22:06	-132.862	47.456	0	217.20	0	5.7970	0	33.7490	0	26.592	0	215.275	0	154.8	4	50.8	4	-1E+10	1	-1E+10	1	-1E+10	1	-1E+10	1	-1E+10	1	-1E+10	1
4902549	118	C	11/20/2023	22:06	-132.862	47.456	0	218.20	0	5.7800	0	33.7490	0	26.594	0	216.266	0	154.4	4	50.7	4	-1E+10	1	-1E+10	1	-1E+10	1	-1E+10	1	-1E+10	1	-1E+10	1
4902549	118	C	11/20/2023	22:06	-132.862	47.456	0	219.10	0	5.7340	0	33.7450	0	26.596	0	217.157	0	154.0	4	50.5	4	-1E+10	1	-1E+10	1	-1E+10	1	-1E+10	1	-1E+10	1	-1E+10	1
4902549	118	C	11/20/2023	22:06	-132.862	47.456	0	220.00	0	5.7090	0	33.7440	0	26.598	0	218.049	0	153.2	4	50.2	4	-1E+10	1	-1E+10	1	-1E+10	1	-1E+10	1	-1E+10	1	-1E+10	1
4902549	118	C	11/20/2023	22:06	-132.862	47.456	0	221.00	0	5.7020	0	33.7430	0	26.599	0	219.039	0	152.3	4	49.9	4	-1E+10	1	-1E+10	1	-1E+10	1	-1E+10	1	-1E+10	1	-1E+10	1
4902549	118	C	11/20/2023	22:06	-132.862	47.456	0	221.90	0	5.6800	0	33.7520	0	26.608	0	219.931	0	151.4	4	49.6	4	-1E+10	1	-1E+10	1	-1E+10	1	-1E+10	1	-1E+10	1	-1E+10	1
4902549	118	C	11/20/2023	22:06	-132.862	47.456	0	222.90	0	5.6710	0	33.7430	0	26.602	0	220.921	0	150.5	4	49.3	4	-1E+10	1	-1E+10	1	-1E+10	1	-1E+10	1	-1E+10	1	-1E+10	1
4902549	118	C	11/20/2023	22:06	-132.862	47.456	0	223.80	0	5.6640	0	33.7440	0	26.604	0	221.813	0	149.4	4	48.9	4	-1E+10	1	-1E+10	1	-1E+10	1	-1E+10	1	-1E+10	1	-1E+10	1
4902549	118	C	11/20/2023	22:06	-132.862	47.456	0	224.80	0	5.6550	0	33.7460	0	26.607	0	222.803	0	148.1	4	48.5	4	-1E+10	1	-1E+10	1	-1E+10	1	-1E+10	1	-1E+10	1	-1E+10	1
4902549	118	C	11/20/2023	22:06	-132.862	47.456	0	225.80	0	5.6430	0	33.7470	0	26.609	0	223.794	0	146.9	4	48.1	4	-1E+10	1	-1E+10	1	-1E+10	1	-1E+10	1	-1E+10	1	-1E+10	1
4902549	118	C	11/20/2023	22:06	-132.862	47.456	0	226.70	0	5.6390	0	33.7520	0	26.613	0	224.686	0	145.8	4	47.7	4	-1E+10	1	-1E+10	1	-1E+10	1	-1E+10	1	-1E+10	1	-1E+10	1
4902549	118	C	11/20/2023	22:06	-132.862	47.456	0	227.70	0	5.6220	0	33.7530	0	26.616	0	225.676	0	144.7	4	47.3	4	-1E+10	1	-1E+10	1	-1E+10	1	-1E+10	1	-1E+10	1	-1E+10	1
4902549	118	C	11/20/2023	22:06	-132.862	47.456	0	228.70	0	5.6100	0	33.7520	0	26.617	0	226.667	0	143.3	4	46.9	4	-1E+10	1	-1E+10	1	-1E+10	1	-1E+10	1	-1E+10	1	-1E+10	1
4902549	118	C	11/20/2023	22:06	-132.862	47.456	0	229.70	0	5.6080	0	33.7520	0	26.617	0	227.657	0	141.8	4	46.4	4	-1E+10	1	-1E+10	1	-1E+10	1	-1E+10	1	-1E+10	1	-1E+10	1
4902549	118	C	11/20/2023	22:06	-132.862	47.456	0	230.70	0	5.6250	0	33.7580	0	26.620	0	228.648	0	140.5	4	46.0	4	-1E+10	1	-1E+10	1	-1E+10	1	-1E+10	1	-1E+10	1	-1E+10	1
4902549	118	C	11/20/2023	22:06	-132.862	47.456	0	231.70	0	5.6820	0	33.7660	0	26.619	0	229.638	0	139.5	4	45.7	4	-1E+10	1	-1E+10	1	-1E+10	1	-1E+10	1	-1E+10	1	-1E+10	1
4902549	118	C	11/20/2023	22:06	-132.862	47.456	0	232.70	0	5.6730	0	33.7670	0	26.621	0	230.629	0	138.7	4	45.4	4	-1E+10	1	-1E+10	1	-1E+10	1	-1E+10	1	-1E+10	1	-1E+10	1
4902549	118	C	11/20/2023	22:06	-132.862	47.456	0	233.60	0	5.6690	0	33.7670	0	26.622	0	231.520	0	137.9	4	45.2	4	-1E+10	1	-1E+10	1	-1E+10	1	-1E+10	1	-1E+10	1	-1E+10	1
4902549	118	C	11/20/2023	22:06	-132.862	47.456	0	234.70	0	5.6630	0	33.7680	0	26.623	0	232.610	0	137.0	4	44.9	4	-1E+10	1	-1E+10	1	-1E+10	1	-1E+10	1	-1E+10	1	-1E+10	1
4902549	118	C	11/20/2023	22:06	-132.862	47.456	0	235.60	0	5.6590	0	33.7680	0	26.624	0	233.501	0	136.1	4	44.6	4	-1E+10	1	-1E+10	1	-1E+10	1	-1E+10	1	-1E+10	1	-1E+10	1
4902549	118	C	11/20/2023	22:06	-132.862	47.456	0	236.60	0	5.6550	0	33.7680	0	26.624	0	234.492	0	135.1	4	44.2	4	-1E+10	1	-1E+10	1	-1E+10	1	-1E+10	1	-1E+10	1	-1E+10	1
4902549	118	C	11/20/2023	22:06	-132.862	47.456	0	237.60	0	5.6520	0	33.7680	0	26.625	0	235.482	0	134.0	4	43.9	4	-1E+10	1	-1E+10	1	-1E+10	1	-1E+10	1	-1E+10	1	-1E+10	1
4902549	118	C	11/20/2023	22:06	-132.862	47.456	0	238.60	0	5.6430	0	33.7700	0	26.627	0	236.473	0	133.0	4	43.5	4	-1E+10	1	-1E+10	1	-1E+10	1	-1E+10	1	-1E+10	1	-1E+10	1
4902549	118	C	11/20/2023	22:06	-132.862	47.456	0	239.60	0	5.6410	0	33.7710	0	26.628	0	237.464	0	131.9	4	43.2	4	-1E+10	1	-1E+10	1	-1E+10	1	-1E+10	1	-1E+10	1	-1E+10	1
4902549	118	C	11/20/2023	22:06	-132.862	47.456	0	240.60	0	5.6260	0	33.7730	0	26.632	0	238.454	0	130.8	4	42.8	4	-1E+10	1	-1E+10	1	-1E+10	1	-1E+10	1	-1E+10	1	-1E+10	1
4902549	118	C	11/20/2023	22:06	-132.862	47.456	0	241.60	0	5.5610	0	33.7720	0	26.639	0	239.445	0	130.0	4	42.5	4	-1E+10	1	-1E+10	1	-1E+10	1	-1E+10	1	-1E+10	1	-1E+10	1
4902549	118	C	11/20/2023	22:06	-132.862	47.456	0	242.60	0	5.5440	0	33.7730	0	26.641	0	240.435	0	128.9	4	42.1	4	-1E+10	1	-1E+10	1	-1E+10	1	-1E+10	1	-1E+10	1	-1E+10	1
4902549	118	C	11/20/2023	22:06	-132.862	47.456	0	243.60	0	5.5260	0	33.7740	0	26.644	0	241.426	0	127.8	4	41.7	4	-1E+10	1	-1E+10	1	-1E+10	1	-1E+10	1	-1E+10	1	-1E+10	1
4902549	118	C	11/20/2023	22:06	-132.862	47.456	0	244.60	0	5.5040	0	33.7760	0	26.649	0	242.416	0	127.0	4	41.4	4	-1E+10	1	-1E+10	1	-1E+10	1	-1E+10	1	-1E+10	1	-1E+10	1
4902549	118	C	11/20/2023	22:06	-132.862	47.456	0	245.50	0	5.5020	0	33.7780	0	26.650	0	243.307	0	126.2	4	41.2	4	-1E+10	1	-1E+10	1	-1E+10	1	-1E+10	1	-1E+10	1	-1E+10	1
4902549	118	C	11/20/2023	22:06	-132.862	47.456	0	246.50	0	5.4970	0	33.7780	0	26.651	0	244.298	0	125.4	4	40.9	4	-1E+10	1	-1E+10	1	-1E+10	1	-1E+10	1	-1E+10	1	-1E+10	1
4902549	118	C	11/20/2023	22:06	-132.862	47.456	0	247.60	0	5.5080	0	33.7840	0	26.655	0	245.387	0	124.7	4	40.7	4	-1E+10	1	-1E+10	1	-1E+10	1	-1E+10	1	-1E+10	1	-1E+10	1
4902549	118	C	11/20/2023	22:06	-132.862	47.456	0	248.60	0	5.5240	0	33.7890	0	26.657	0	246.378	0	124.4	4	40.6	4	-1E+10	1	-1E+10	1	-1E+10	1	-1E+10	1	-1E+10	1	-1E+10	1
4902549	118	C	11/20/2023	22:06	-132.862	47.456	0	249.60	0	5.5130	0	33.7900	0	26.659	0	247.368	0	124.2	4	40.5	4	-1E+10	1	-1E+10	1	-1E+10	1	-1E+10	1	-1E+10	1	-1E+10	1
4902549	118	C	11/20/2023	22:06	-132.862	47.456	0	250.60	0	5.4990	0	33.7870	0	26.658	0	248.359	0	124.1	4	40.5	4	-1E+10	1	-1E+10	1	-1E+10	1	-1E+10	1	-1E+10	1	-1E+10	1
4902549	118	C	11/20/2023	22:06	-132.862	47.456	0	251.60	0	5.4690	0	33.7870	0	26.662	0	249.349	0	124.0	4	40.4	4	-1E+10	1	-1E+10	1	-1E+10	1	-1E+10	1	-1E+10	1	-1E+10	1
4902549	118	C	11/20/2023	22:06	-132.862	47.456	0	252.60	0	5.4630	0	33.7870	0	26.662	0	250.340	0	123.9	4	40.4	4	-1E+10	1	-1E+10	1	-1E+10	1	-1E+10	1	-1E+10	1	-1E+10	1
4902549	118	C	11/20/2023	22:06	-132.862	47.456	0	253.60	0	5.4530	0	33.7870	0	26.663	0	251.330	0	123.8	4	40.3	4	-1E+10	1	-1E+10	1	-1E+10	1	-1E+10	1	-1E+10	1	-1E+10	1
4902549	118	C	11/20/2023	22:06	-132.862	47.456	0	254.60	0	5.4350	0	33.7840	0	26.663	0	252.321	0	123.6	4	40.3	4	-1E+10	1	-1E+10	1	-1E+10	1	-1E+10	1	-1E+10	1	-1E+10	1
4902549	118	C	11/20/2023	22:06	-132.862	47.456	0	255.60	0	5.3820	0	33.7780	0	26.665	0	253.311	0	123.2	4	40.1	4	-1E+10	1	-1E+10	1	-1E+10	1	-1E+10	1	-1E+10	1	-1E+10	1
4902549	118	C	11/20/2023	22:06	-132.862	47.456	0	256.70	0	5.3530	0	33.7760	0	26.667	0	254.401	0	122.7	4	39.9	4	-1E+10	1	-1E+10	1	-1E+10	1	-1E+10	1	-1E+10	1	-1E+10	1
4902549	118	C	11/20/2023	22:06	-132.862	47.456	0	257.60	0	5.3360	0	33.7740	0	26.667	0	255.292	0	121.9	4	39.6	4	-1E+10	1	-1E+10	1	-1E+10	1	-1E+10	1	-1E+10	1	-1E+10	1
4902549	118	C	11/20/2023	22:06	-132.862	47.456	0	258.60	0	5.3250	0	33.7750	0	26.669	0	256.282	0	121.0	4	39.3	4	-1E+10	1	-1E+10	1	-1E+10	1	-1E+10	1	-1E+10	1	-1E+10	1
4902549	118	C	11/20/2023	22:06	-132.862	47.456	0	259.60	0	5.3190	0	33.7760	0	26.671	0	257.273	0	120.2	4	39.0	4	-1E+10	1	-1E+10	1	-1E+10	1	-1E+10	1	-1E+10	1	-1E+10	1
4902549	118	C	11/20/2023	22:06	-132.862	47.456	0	260.60	0	5.3190	0	33.7760	0	26.671	0	258.263	0	119.2	4	38.7	4	-1E+10	1	-1E+10	1	-1E+10	1	-1E+10	1	-1E+10	1	-1E+10	1
4902549	118	C	11/20/2023	22:06	-132.862	47.456	0	261.50	0	5.3220	0	33.7750	0	26.669	0	259.155	0	118.2	4	38.4	4	-1E+10	1	-1E+10	1	-1E+10	1	-1E+10	1	-1E+10	1	-1E+10	1
4902549	118	C	11/20/2023	22:06	-132.862	47.456	0	262.90	0	5.3000	0	33.7790	0	26.675	0	260.541	0	116.8	4	37.9	4	-1E+10	1	-1E+10	1	-1E+10	1	-1E+10	1	-1E+10	1	-1E+10	1
4902549	118	C	11/20/2023	22:06	-132.862	47.456	0	264.40	0	5.2640	0	33.7770	0	26.678	0	262.027	0	115.2	4	37.4	4	-1E+10	1	-1E+10	1	-1E+10	1	-1E+10	1	-1E+10	1	-1E+10	1
4902549	118	C	11/20/2023	22:06	-132.862	47.456	0	265.40	0	5.2490	0	33.7780	0	26.680	0	263.017	0	114.1	4	37.0	4	-1E+10	1	-1E+10	1	-1E+10	1	-1E+10	1	-1E+10	1	-1E+10	1
4902549	118	C	11/20/2023	22:06	-132.862	47.456	0	266.30	0	5.2330	0	33.7800	0	26.684	0	263.908	0	112.9	4	36.6	4	-1E+10	1	-1E+10	1	-1E+10	1	-1E+10	1	-1E+10	1	-1E+10	1
4902549	118	C	11/20/2023	22:06	-132.862	47.456	0	267.30	0	5.1940	0	33.7820	0	26.690	0	264.899	0	111.7	4	36.2	4	-1E+10	1	-1E+10	1	-1E+10	1	-1E+10	1	-1E+10	1	-1E+10	1
4902549	118	C	11/20/2023	22:06	-132.862	47.456	0	268.20	0	5.1810	0	33.7810	0	26.691	0	265.790	0	110.7	4	35.8	4	-1E+10	1	-1E+10	1	-1E+10	1	-1E+10	1	-1E+10	1	-1E+10	1
4902549	118	C	11/20/2023	22:06	-132.862	47.456	0	269.20	0	5.1680	0	33.7850	0	26.695	0	266.780	0	109.6	4	35.5	4	-1E+10	1	-1E+10	1	-1E+10	1	-1E+10	1	-1E+10	1	-1E+10	1
4902549	118	C	11/20/2023	22:06	-132.862	47.456	0	270.10	0	5.1700	0	33.7850	0	26.695	0	267.672	0	108.6	4	35.1	4	-1E+10	1	-1E+10	1	-1E+10	1	-1E+10	1	-1E+10	1	-1E+10	1
4902549	118	C	11/20/2023	22:06	-132.862	47.456	0	271.10	0	5.1670	0	33.7860	0	26.696	0	268.662	0	107.4	4	34.8	4	-1E+10	1	-1E+10	1	-1E+10	1	-1E+10	1	-1E+10	1	-1E+10	1
4902549	118	C	11/20/2023	22:06	-132.862	47.456	0	272.00	0	5.1440	0	33.7890	0	26.701	0	269.553	0	106.3	4	34.4	4	-1E+10	1	-1E+10	1	-1E+10	1	-1E+10	1	-1E+10	1	-1E+10	1
4902549	118	C	11/20/2023	22:06	-132.862	47.456	0	272.90	0	5.1370	0	33.7920	0	26.704	0	270.445	0	105.5	4	34.1	4	-1E+10	1	-1E+10	1	-1E+10	1	-1E+10	1	-1E+10	1	-1E+10	1
4902549	118	C	11/20/2023	22:06	-132.862	47.456	0	273.90	0	5.1220	0	33.7980	0	26.711	0	271.435	0	104.6	4	33.8	4	-1E+10	1	-1E+10	1	-1E+10	1	-1E+10	1	-1E+10	1	-1E+10	1
4902549	118	C	11/20/2023	22:06	-132.862	47.456	0	274.90	0	5.1080	0	33.7980	0	26.713	0	272.426	0	103.9	4	33.6	4	-1E+10	1	-1E+10	1	-1E+10	1	-1E+10	1	-1E+10	1	-1E+10	1
4902549	118	C	11/20/2023	22:06	-132.862	47.456	0	275.80	0	5.1040	0	33.7980	0	26.713	0	273.317	0	103.0	4	33.3	4	-1E+10	1	-1E+10	1	-1E+10	1	-1E+10	1	-1E+10	1	-1E+10	1
4902549	118	C	11/20/2023	22:06	-132.862	47.456	0	276.80	0	5.0900	0	33.8000	0	26.716	0	274.307	0	102.2	4	33.0	4	-1E+10	1	-1E+10	1	-1E+10	1	-1E+10	1	-1E+10	1	-1E+10	1
4902549	118	C	11/20/2023	22:06	-132.862	47.456	0	277.80	0	5.0670	0	33.8060	0	26.724	0	275.297	0	101.7	4	32.9	4	-1E+10	1	-1E+10	1	-1E+10	1	-1E+10	1	-1E+10	1	-1E+10	1
4902549	118	C	11/20/2023	22:06	-132.862	47.456	0	278.70	0	5.0550	0	33.8040	0	26.723	0	276.189	0	101.3	4	32.7	4	-1E+10	1	-1E+10	1	-1E+10	1	-1E+10	1	-1E+10	1	-1E+10	1
4902549	118	C	11/20/2023	22:06	-132.862	47.456	0	279.70	0	5.0480	0	33.8040	0	26.724	0	277.179	0	100.7	4	32.5	4	-1E+10	1	-1E+10	1	-1E+10	1	-1E+10	1	-1E+10	1	-1E+10	1
4902549	118	C	11/20/2023	22:06	-132.862	47.456	0	280.70	0	5.0470	0	33.8040	0	26.724	0	278.169	0	100.0	4	32.3	4	-1E+10	1	-1E+10	1	-1E+10	1	-1E+10	1	-1E+10	1	-1E+10	1
4902549	118	C	11/20/2023	22:06	-132.862	47.456	0	281.60	0	5.0440	0	33.8040	0	26.725	0	279.061	0	99.2	4	32.0	4	-1E+10	1	-1E+10	1	-1E+10	1	-1E+10	1	-1E+10	1	-1E+10	1
4902549	118	C	11/20/2023	22:06	-132.862	47.456	0	282.60	0	5.0330	0	33.8090	0	26.730	0	280.051	0	98.4	4	31.8	4	-1E+10	1	-1E+10	1	-1E+10	1	-1E+10	1	-1E+10	1	-1E+10	1
4902549	118	C	11/20/2023	22:06	-132.862	47.456	0	283.50	0	5.0190	0	33.8080	0	26.731	0	280.942	0	97.8	4	31.5	4	-1E+10	1	-1E+10	1	-1E+10	1	-1E+10	1	-1E+10	1	-1E+10	1
4902549	118	C	11/20/2023	22:06	-132.862	47.456	0	284.50	0	5.0120	0	33.8070	0	26.731	0	281.933	0	97.1	4	31.3	4	-1E+10	1	-1E+10	1	-1E+10	1	-1E+10	1	-1E+10	1	-1E+10	1
4902549	118	C	11/20/2023	22:06	-132.862	47.456	0	285.90	0	4.9870	0	33.8120	0	26.738	0	283.319	0	96.2	4	31.0	4	-1E+10	1	-1E+10	1	-1E+10	1	-1E+10	1	-1E+10	1	-1E+10	1
4902549	118	C	11/20/2023	22:06	-132.862	47.456	0	287.40	0	4.9790	0	33.8120	0	26.738	0	284.804	0	95.4	4	30.7	4	-1E+10	1	-1E+10	1	-1E+10	1	-1E+10	1	-1E+10	1	-1E+10	1
4902549	118	C	11/20/2023	22:06	-132.862	47.456	0	288.40	0	4.9710	0	33.8140	0	26.741	0	285.795	0	94.8	4	30.6	4	-1E+10	1	-1E+10	1	-1E+10	1	-1E+10	1	-1E+10	1	-1E+10	1
4902549	118	C	11/20/2023	22:06	-132.862	47.456	0	289.40	0	4.9690	0	33.8130	0	26.740	0	286.785	0	94.3	4	30.4	4	-1E+10	1	-1E+10	1	-1E+10	1	-1E+10	1	-1E+10	1	-1E+10	1
4902549	118	C	11/20/2023	22:06	-132.862	47.456	0	290.40	0	4.9380	0	33.8190	0	26.749	0	287.775	0	93.8	4	30.2	4	-1E+10	1	-1E+10	1	-1E+10	1	-1E+10	1	-1E+10	1	-1E+10	1
4902549	118	C	11/20/2023	22:06	-132.862	47.456	0	291.50	0	4.9260	0	33.8160	0	26.748	0	288.865	0	93.4	4	30.1	4	-1E+10	1	-1E+10	1	-1E+10	1	-1E+10	1	-1E+10	1	-1E+10	1
4902549	118	C	11/20/2023	22:06	-132.862	47.456	0	292.50	0	4.9310	0	33.8190	0	26.749	0	289.855	0	93.0	4	29.9	4	-1E+10	1	-1E+10	1	-1E+10	1	-1E+10	1	-1E+10	1	-1E+10	1
4902549	118	C	11/20/2023	22:06	-132.862	47.456	0	293.90	0	4.9360	0	33.8210	0	26.750	0	291.241	0	92.5	4	29.8	4	-1E+10	1	-1E+10	1	-1E+10	1	-1E+10	1	-1E+10	1	-1E+10	1
4902549	118	C	11/20/2023	22:06	-132.862	47.456	0	295.40	0	4.9370	0	33.8220	0	26.751	0	292.726	0	91.9	4	29.6	4	-1E+10	1	-1E+10	1	-1E+10	1	-1E+10	1	-1E+10	1	-1E+10	1
4902549	118	C	11/20/2023	22:06	-132.862	47.456	0	296.40	0	4.9350	0	33.8210	0	26.751	0	293.717	0	91.4	4	29.4	4	-1E+10	1	-1E+10	1	-1E+10	1	-1E+10	1	-1E+10	1	-1E+10	1
4902549	118	C	11/20/2023	22:06	-132.862	47.456	0	297.30	0	4.9340	0	33.8210	0	26.751	0	294.608	0	90.9	4	29.3	4	-1E+10	1	-1E+10	1	-1E+10	1	-1E+10	1	-1E+10	1	-1E+10	1
4902549	118	C	11/20/2023	22:06	-132.862	47.456	0	298.30	0	4.9290	0	33.8220	0	26.752	0	295.598	0	90.3	4	29.1	4	-1E+10	1	-1E+10	1	-1E+10	1	-1E+10	1	-1E+10	1	-1E+10	1
4902549	118	C	11/20/2023	22:06	-132.862	47.456	0	299.30	0	4.9090	0	33.8240	0	26.756	0	296.588	0	89.7	4	28.9	4	-1E+10	1	-1E+10	1	-1E+10	1	-1E+10	1	-1E+10	1	-1E+10	1
4902549	118	C	11/20/2023	22:06	-132.862	47.456	0	300.30	0	4.8910	0	33.8220	0	26.756	0	297.579	0	89.2	4	28.7	4	-1E+10	1	-1E+10	1	-1E+10	1	-1E+10	1	-1E+10	1	-1E+10	1
4902549	118	C	11/20/2023	22:06	-132.862	47.456	0	301.30	0	4.8880	0	33.8210	0	26.756	0	298.569	0	88.6	4	28.5	4	-1E+10	1	-1E+10	1	-1E+10	1	-1E+10	1	-1E+10	1	-1E+10	1
4902549	118	C	11/20/2023	22:06	-132.862	47.456	0	302.10	0	4.8750	0	33.8230	0	26.759	0	299.361	0	87.9	4	28.3	4	-1E+10	1	-1E+10	1	-1E+10	1	-1E+10	1	-1E+10	1	-1E+10	1
4902549	118	C	11/20/2023	22:06	-132.862	47.456	0	303.20	0	4.8470	0	33.8210	0	26.760	0	300.450	0	87.2	4	28.0	4	-1E+10	1	-1E+10	1	-1E+10	1	-1E+10	1	-1E+10	1	-1E+10	1
4902549	118	C	11/20/2023	22:06	-132.862	47.456	0	303.90	0	4.8350	0	33.8190	0	26.760	0	301.143	0	86.6	4	27.8	4	-1E+10	1	-1E+10	1	-1E+10	1	-1E+10	1	-1E+10	1	-1E+10	1
4902549	118	C	11/20/2023	22:06	-132.862	47.456	0	305.00	0	4.7700	0	33.8160	0	26.765	0	302.233	0	85.9	4	27.6	4	-1E+10	1	-1E+10	1	-1E+10	1	-1E+10	1	-1E+10	1	-1E+10	1
4902549	118	C	11/20/2023	22:06	-132.862	47.456	0	306.20	0	4.7400	0	33.8160	0	26.768	0	303.421	0	85.2	4	27.3	4	-1E+10	1	-1E+10	1	-1E+10	1	-1E+10	1	-1E+10	1	-1E+10	1
4902549	118	C	11/20/2023	22:06	-132.862	47.456	0	306.90	0	4.7330	0	33.8150	0	26.768	0	304.114	0	84.7	4	27.1	4	-1E+10	1	-1E+10	1	-1E+10	1	-1E+10	1	-1E+10	1	-1E+10	1
4902549	118	C	11/20/2023	22:06	-132.862	47.456	0	308.00	0	4.7270	0	33.8160	0	26.770	0	305.203	0	83.9	4	26.9	4	-1E+10	1	-1E+10	1	-1E+10	1	-1E+10	1	-1E+10	1	-1E+10	1
4902549	118	C	11/20/2023	22:06	-132.862	47.456	0	309.20	0	4.7230	0	33.8160	0	26.770	0	306.391	0	82.9	4	26.6	4	-1E+10	1	-1E+10	1	-1E+10	1	-1E+10	1	-1E+10	1	-1E+10	1
4902549	118	C	11/20/2023	22:06	-132.862	47.456	0	310.00	0	4.7170	0	33.8180	0	26.773	0	307.184	0	82.3	4	26.4	4	-1E+10	1	-1E+10	1	-1E+10	1	-1E+10	1	-1E+10	1	-1E+10	1
4902549	118	C	11/20/2023	22:06	-132.862	47.456	0	310.70	0	4.7220	0	33.8200	0	26.774	0	307.877	0	81.7	4	26.2	4	-1E+10	1	-1E+10	1	-1E+10	1	-1E+10	1	-1E+10	1	-1E+10	1
4902549	118	C	11/20/2023	22:06	-132.862	47.456	0	311.90	0	4.7100	0	33.8220	0	26.776	0	309.065	0	80.7	4	25.9	4	-1E+10	1	-1E+10	1	-1E+10	1	-1E+10	1	-1E+10	1	-1E+10	1
4902549	118	C	11/20/2023	22:06	-132.862	47.456	0	313.00	0	4.6960	0	33.8250	0	26.780	0	310.154	0	79.9	4	25.6	4	-1E+10	1	-1E+10	1	-1E+10	1	-1E+10	1	-1E+10	1	-1E+10	1
4902549	118	C	11/20/2023	22:06	-132.862	47.456	0	313.80	0	4.6920	0	33.8280	0	26.783	0	310.946	0	79.4	4	25.4	4	-1E+10	1	-1E+10	1	-1E+10	1	-1E+10	1	-1E+10	1	-1E+10	1
4902549	118	C	11/20/2023	22:06	-132.862	47.456	0	314.90	0	4.6900	0	33.8330	0	26.787	0	312.035	0	78.8	4	25.2	4	-1E+10	1	-1E+10	1	-1E+10	1	-1E+10	1	-1E+10	1	-1E+10	1
4902549	118	C	11/20/2023	22:06	-132.862	47.456	0	316.10	0	4.6780	0	33.8340	0	26.790	0	313.224	0	78.2	4	25.0	4	-1E+10	1	-1E+10	1	-1E+10	1	-1E+10	1	-1E+10	1	-1E+10	1
4902549	118	C	11/20/2023	22:06	-132.862	47.456	0	316.90	0	4.6730	0	33.8340	0	26.790	0	314.016	0	77.8	4	24.9	4	-1E+10	1	-1E+10	1	-1E+10	1	-1E+10	1	-1E+10	1	-1E+10	1
4902549	118	C	11/20/2023	22:06	-132.862	47.456	0	318.00	0	4.6460	0	33.8340	0	26.793	0	315.105	0	77.1	4	24.7	4	-1E+10	1	-1E+10	1	-1E+10	1	-1E+10	1	-1E+10	1	-1E+10	1
4902549	118	C	11/20/2023	22:06	-132.862	47.456	0	319.10	0	4.6450	0	33.8380	0	26.796	0	316.194	0	76.5	4	24.5	4	-1E+10	1	-1E+10	1	-1E+10	1	-1E+10	1	-1E+10	1	-1E+10	1
4902549	118	C	11/20/2023	22:06	-132.862	47.456	0	319.90	0	4.6280	0	33.8370	0	26.797	0	316.986	0	76.2	4	24.4	4	-1E+10	1	-1E+10	1	-1E+10	1	-1E+10	1	-1E+10	1	-1E+10	1
4902549	118	C	11/20/2023	22:06	-132.862	47.456	0	320.60	0	4.6270	0	33.8410	0	26.801	0	317.679	0	75.9	4	24.3	4	-1E+10	1	-1E+10	1	-1E+10	1	-1E+10	1	-1E+10	1	-1E+10	1
4902549	118	C	11/20/2023	22:06	-132.862	47.456	0	321.90	0	4.6220	0	33.8410	0	26.801	0	318.966	0	75.4	4	24.1	4	-1E+10	1	-1E+10	1	-1E+10	1	-1E+10	1	-1E+10	1	-1E+10	1
4902549	118	C	11/20/2023	22:06	-132.862	47.456	0	323.20	0	4.6130	0	33.8420	0	26.803	0	320.253	0	74.9	4	23.9	4	-1E+10	1	-1E+10	1	-1E+10	1	-1E+10	1	-1E+10	1	-1E+10	1
4902549	118	C	11/20/2023	22:06	-132.862	47.456	0	324.00	0	4.6100	0	33.8420	0	26.803	0	321.045	0	74.5	4	23.8	4	-1E+10	1	-1E+10	1	-1E+10	1	-1E+10	1	-1E+10	1	-1E+10	1
4902549	118	C	11/20/2023	22:06	-132.862	47.456	0	324.80	0	4.6090	0	33.8420	0	26.804	0	321.838	0	74.1	4	23.7	4	-1E+10	1	-1E+10	1	-1E+10	1	-1E+10	1	-1E+10	1	-1E+10	1
4902549	118	C	11/20/2023	22:06	-132.862	47.456	0	326.00	0	4.6110	0	33.8450	0	26.806	0	323.026	0	73.5	4	23.5	4	-1E+10	1	-1E+10	1	-1E+10	1	-1E+10	1	-1E+10	1	-1E+10	1
4902549	118	C	11/20/2023	22:06	-132.862	47.456	0	327.30	0	4.6030	0	33.8500	0	26.811	0	324.313	0	73.0	4	23.3	4	-1E+10	1	-1E+10	1	-1E+10	1	-1E+10	1	-1E+10	1	-1E+10	1
4902549	118	C	11/20/2023	22:06	-132.862	47.456	0	328.10	0	4.6070	0	33.8520	0	26.812	0	325.105	0	72.7	4	23.2	4	-1E+10	1	-1E+10	1	-1E+10	1	-1E+10	1	-1E+10	1	-1E+10	1
4902549	118	C	11/20/2023	22:06	-132.862	47.456	0	329.00	0	4.6140	0	33.8550	0	26.813	0	325.996	0	72.3	4	23.1	4	-1E+10	1	-1E+10	1	-1E+10	1	-1E+10	1	-1E+10	1	-1E+10	1
4902549	118	C	11/20/2023	22:06	-132.862	47.456	0	329.80	0	4.6140	0	33.8560	0	26.814	0	326.788	0	72.0	4	23.0	4	-1E+10	1	-1E+10	1	-1E+10	1	-1E+10	1	-1E+10	1	-1E+10	1
4902549	118	C	11/20/2023	22:06	-132.862	47.456	0	330.70	0	4.6190	0	33.8580	0	26.815	0	327.679	0	71.6	4	22.9	4	-1E+10	1	-1E+10	1	-1E+10	1	-1E+10	1	-1E+10	1	-1E+10	1
4902549	118	C	11/20/2023	22:06	-132.862	47.456	0	331.90	0	4.6110	0	33.8590	0	26.817	0	328.867	0	71.1	4	22.7	4	-1E+10	1	-1E+10	1	-1E+10	1	-1E+10	1	-1E+10	1	-1E+10	1
4902549	118	C	11/20/2023	22:06	-132.862	47.456	0	333.20	0	4.6010	0	33.8610	0	26.820	0	330.154	0	70.5	4	22.5	4	-1E+10	1	-1E+10	1	-1E+10	1	-1E+10	1	-1E+10	1	-1E+10	1
4902549	118	C	11/20/2023	22:06	-132.862	47.456	0	334.10	0	4.5980	0	33.8620	0	26.821	0	331.045	0	70.2	4	22.4	4	-1E+10	1	-1E+10	1	-1E+10	1	-1E+10	1	-1E+10	1	-1E+10	1
4902549	118	C	11/20/2023	22:06	-132.862	47.456	0	335.00	0	4.5960	0	33.8630	0	26.822	0	331.936	0	69.8	4	22.3	4	-1E+10	1	-1E+10	1	-1E+10	1	-1E+10	1	-1E+10	1	-1E+10	1
4902549	118	C	11/20/2023	22:06	-132.862	47.456	0	335.80	0	4.5870	0	33.8640	0	26.823	0	332.728	0	69.5	4	22.2	4	-1E+10	1	-1E+10	1	-1E+10	1	-1E+10	1	-1E+10	1	-1E+10	1
4902549	118	C	11/20/2023	22:06	-132.862	47.456	0	336.70	0	4.5780	0	33.8660	0	26.826	0	333.619	0	69.2	4	22.1	4	-1E+10	1	-1E+10	1	-1E+10	1	-1E+10	1	-1E+10	1	-1E+10	1
4902549	118	C	11/20/2023	22:06	-132.862	47.456	0	337.60	0	4.5890	0	33.8680	0	26.826	0	334.511	0	68.9	4	22.0	4	-1E+10	1	-1E+10	1	-1E+10	1	-1E+10	1	-1E+10	1	-1E+10	1
4902549	118	C	11/20/2023	22:06	-132.862	47.456	0	338.90	0	4.5810	0	33.8690	0	26.828	0	335.798	0	68.5	4	21.9	4	-1E+10	1	-1E+10	1	-1E+10	1	-1E+10	1	-1E+10	1	-1E+10	1
4902549	118	C	11/20/2023	22:06	-132.862	47.456	0	340.20	0	4.5770	0	33.8700	0	26.829	0	337.085	0	68.1	4	21.8	4	-1E+10	1	-1E+10	1	-1E+10	1	-1E+10	1	-1E+10	1	-1E+10	1
4902549	118	C	11/20/2023	22:06	-132.862	47.456	0	341.10	0	4.5760	0	33.8710	0	26.830	0	337.976	0	67.9	4	21.7	4	-1E+10	1	-1E+10	1	-1E+10	1	-1E+10	1	-1E+10	1	-1E+10	1
4902549	118	C	11/20/2023	22:06	-132.862	47.456	0	342.00	0	4.5710	0	33.8720	0	26.832	0	338.867	0	67.6	4	21.6	4	-1E+10	1	-1E+10	1	-1E+10	1	-1E+10	1	-1E+10	1	-1E+10	1
4902549	118	C	11/20/2023	22:06	-132.862	47.456	0	342.90	0	4.5700	0	33.8720	0	26.832	0	339.758	0	67.3	4	21.5	4	-1E+10	1	-1E+10	1	-1E+10	1	-1E+10	1	-1E+10	1	-1E+10	1
4902549	118	C	11/20/2023	22:06	-132.862	47.456	0	343.80	0	4.5680	0	33.8720	0	26.832	0	340.649	0	67.0	4	21.4	4	-1E+10	1	-1E+10	1	-1E+10	1	-1E+10	1	-1E+10	1	-1E+10	1
4902549	118	C	11/20/2023	22:06	-132.862	47.456	0	344.70	0	4.5720	0	33.8750	0	26.834	0	341.540	0	66.7	4	21.3	4	-1E+10	1	-1E+10	1	-1E+10	1	-1E+10	1	-1E+10	1	-1E+10	1
4902549	118	C	11/20/2023	22:06	-132.862	47.456	0	345.60	0	4.5710	0	33.8760	0	26.835	0	342.431	0	66.4	4	21.2	4	-1E+10	1	-1E+10	1	-1E+10	1	-1E+10	1	-1E+10	1	-1E+10	1
4902549	118	C	11/20/2023	22:06	-132.862	47.456	0	346.90	0	4.5790	0	33.8800	0	26.837	0	343.718	0	65.9	4	21.0	4	-1E+10	1	-1E+10	1	-1E+10	1	-1E+10	1	-1E+10	1	-1E+10	1
4902549	118	C	11/20/2023	22:06	-132.862	47.456	0	348.30	0	4.5780	0	33.8840	0	26.840	0	345.104	0	65.5	4	20.9	4	-1E+10	1	-1E+10	1	-1E+10	1	-1E+10	1	-1E+10	1	-1E+10	1
4902549	118	C	11/20/2023	22:06	-132.862	47.456	0	349.20	0	4.5720	0	33.8840	0	26.841	0	345.995	0	65.2	4	20.8	4	-1E+10	1	-1E+10	1	-1E+10	1	-1E+10	1	-1E+10	1	-1E+10	1
4902549	118	C	11/20/2023	22:06	-132.862	47.456	0	350.10	0	4.5600	0	33.8860	0	26.844	0	346.886	0	65.0	4	20.8	4	-1E+10	1	-1E+10	1	-1E+10	1	-1E+10	1	-1E+10	1	-1E+10	1
4902549	118	C	11/20/2023	22:06	-132.862	47.456	0	352.80	0	4.5490	0	33.8860	0	26.845	0	349.559	0	64.2	4	20.5	4	-1E+10	1	-1E+10	1	-1E+10	1	-1E+10	1	-1E+10	1	-1E+10	1
4902549	118	C	11/20/2023	22:06	-132.862	47.456	0	357.90	0	4.5660	0	33.8980	0	26.853	0	354.607	0	62.6	4	20.0	4	-1E+10	1	-1E+10	1	-1E+10	1	-1E+10	1	-1E+10	1	-1E+10	1
4902549	118	C	11/20/2023	22:06	-132.862	47.456	0	363.10	0	4.5480	0	33.9040	0	26.860	0	359.755	0	61.4	4	19.6	4	-1E+10	1	-1E+10	1	-1E+10	1	-1E+10	1	-1E+10	1	-1E+10	1
4902549	118	C	11/20/2023	22:06	-132.862	47.456	0	367.90	0	4.5480	0	33.9080	0	26.863	0	364.507	0	60.4	4	19.3	4	-1E+10	1	-1E+10	1	-1E+10	1	-1E+10	1	-1E+10	1	-1E+10	1
4902549	118	C	11/20/2023	22:06	-132.862	47.456	0	372.60	0	4.5510	0	33.9130	0	26.867	0	369.159	0	59.3	4	18.9	4	-1E+10	1	-1E+10	1	-1E+10	1	-1E+10	1	-1E+10	1	-1E+10	1
4902549	118	C	11/20/2023	22:06	-132.862	47.456	0	377.90	0	4.5200	0	33.9180	0	26.874	0	374.405	0	58.1	4	18.5	4	-1E+10	1	-1E+10	1	-1E+10	1	-1E+10	1	-1E+10	1	-1E+10	1
4902549	118	C	11/20/2023	22:06	-132.862	47.456	0	383.10	0	4.4950	0	33.9210	0	26.879	0	379.552	0	57.1	4	18.2	4	-1E+10	1	-1E+10	1	-1E+10	1	-1E+10	1	-1E+10	1	-1E+10	1
4902549	118	C	11/20/2023	22:06	-132.862	47.456	0	387.90	0	4.4900	0	33.9260	0	26.884	0	384.304	0	56.1	4	17.9	4	-1E+10	1	-1E+10	1	-1E+10	1	-1E+10	1	-1E+10	1	-1E+10	1
4902549	118	C	11/20/2023	22:06	-132.862	47.456	0	392.70	0	4.4830	0	33.9300	0	26.888	0	389.055	0	55.0	4	17.5	4	-1E+10	1	-1E+10	1	-1E+10	1	-1E+10	1	-1E+10	1	-1E+10	1
4902549	118	C	11/20/2023	22:06	-132.862	47.456	0	398.00	0	4.4740	0	33.9380	0	26.895	0	394.300	0	53.9	4	17.2	4	-1E+10	1	-1E+10	1	-1E+10	1	-1E+10	1	-1E+10	1	-1E+10	1
4902549	118	C	11/20/2023	22:06	-132.862	47.456	0	403.20	0	4.4660	0	33.9420	0	26.899	0	399.447	0	53.1	4	16.9	4	-1E+10	1	-1E+10	1	-1E+10	1	-1E+10	1	-1E+10	1	-1E+10	1
4902549	118	C	11/20/2023	22:06	-132.862	47.456	0	407.90	0	4.4420	0	33.9460	0	26.905	0	404.099	0	52.3	4	16.7	4	-1E+10	1	-1E+10	1	-1E+10	1	-1E+10	1	-1E+10	1	-1E+10	1
4902549	118	C	11/20/2023	22:06	-132.862	47.456	0	413.00	0	4.4300	0	33.9500	0	26.909	0	409.146	0	51.5	4	16.4	4	-1E+10	1	-1E+10	1	-1E+10	1	-1E+10	1	-1E+10	1	-1E+10	1
4902549	118	C	11/20/2023	22:06	-132.862	47.456	0	418.00	0	4.4130	0	33.9540	0	26.914	0	414.094	0	50.8	4	16.2	4	-1E+10	1	-1E+10	1	-1E+10	1	-1E+10	1	-1E+10	1	-1E+10	1
4902549	118	C	11/20/2023	22:06	-132.862	47.456	0	422.80	0	4.3980	0	33.9580	0	26.919	0	418.845	0	50.1	4	16.0	4	-1E+10	1	-1E+10	1	-1E+10	1	-1E+10	1	-1E+10	1	-1E+10	1
4902549	118	C	11/20/2023	22:06	-132.862	47.456	0	428.20	0	4.3970	0	33.9630	0	26.923	0	424.189	0	49.5	4	15.7	4	-1E+10	1	-1E+10	1	-1E+10	1	-1E+10	1	-1E+10	1	-1E+10	1
4902549	118	C	11/20/2023	22:06	-132.862	47.456	0	433.10	0	4.3650	0	33.9640	0	26.927	0	429.038	0	48.9	4	15.5	4	-1E+10	1	-1E+10	1	-1E+10	1	-1E+10	1	-1E+10	1	-1E+10	1
4902549	118	C	11/20/2023	22:06	-132.862	47.456	0	437.90	0	4.3450	0	33.9660	0	26.931	0	433.788	0	48.0	4	15.3	4	-1E+10	1	-1E+10	1	-1E+10	1	-1E+10	1	-1E+10	1	-1E+10	1
4902549	118	C	11/20/2023	22:06	-132.862	47.456	0	443.20	0	4.3310	0	33.9680	0	26.934	0	439.032	0	46.9	4	14.9	4	-1E+10	1	-1E+10	1	-1E+10	1	-1E+10	1	-1E+10	1	-1E+10	1
4902549	118	C	11/20/2023	22:06	-132.862	47.456	0	448.10	0	4.3140	0	33.9780	0	26.944	0	443.881	0	45.7	4	14.5	4	-1E+10	1	-1E+10	1	-1E+10	1	-1E+10	1	-1E+10	1	-1E+10	1
4902549	118	C	11/20/2023	22:06	-132.862	47.456	0	453.00	0	4.2940	0	33.9850	0	26.952	0	448.730	0	44.3	4	14.1	4	-1E+10	1	-1E+10	1	-1E+10	1	-1E+10	1	-1E+10	1	-1E+10	1
4902549	118	C	11/20/2023	22:06	-132.862	47.456	0	457.80	0	4.2800	0	33.9920	0	26.959	0	453.479	0	42.7	4	13.5	4	-1E+10	1	-1E+10	1	-1E+10	1	-1E+10	1	-1E+10	1	-1E+10	1
4902549	118	C	11/20/2023	22:06	-132.862	47.456	0	462.70	0	4.2590	0	34.0020	0	26.969	0	458.328	0	41.3	4	13.1	4	-1E+10	1	-1E+10	1	-1E+10	1	-1E+10	1	-1E+10	1	-1E+10	1
4902549	118	C	11/20/2023	22:06	-132.862	47.456	0	468.00	0	4.2320	0	34.0040	0	26.973	0	463.572	0	39.5	4	12.5	4	-1E+10	1	-1E+10	1	-1E+10	1	-1E+10	1	-1E+10	1	-1E+10	1
4902549	118	C	11/20/2023	22:06	-132.862	47.456	0	473.10	0	4.1950	0	34.0060	0	26.979	0	468.618	0	38.2	4	12.1	4	-1E+10	1	-1E+10	1	-1E+10	1	-1E+10	1	-1E+10	1	-1E+10	1
4902549	118	C	11/20/2023	22:06	-132.862	47.456	0	477.70	0	4.1830	0	34.0110	0	26.984	0	473.169	0	37.5	4	11.9	4	-1E+10	1	-1E+10	1	-1E+10	1	-1E+10	1	-1E+10	1	-1E+10	1
4902549	118	C	11/20/2023	22:06	-132.862	47.456	0	482.50	0	4.1780	0	34.0160	0	26.989	0	477.918	0	36.9	4	11.7	4	-1E+10	1	-1E+10	1	-1E+10	1	-1E+10	1	-1E+10	1	-1E+10	1
4902549	118	C	11/20/2023	22:06	-132.862	47.456	0	487.90	0	4.1780	0	34.0200	0	26.992	0	483.260	0	36.3	4	11.5	4	-1E+10	1	-1E+10	1	-1E+10	1	-1E+10	1	-1E+10	1	-1E+10	1
4902549	118	C	11/20/2023	22:06	-132.862	47.456	0	493.30	0	4.1690	0	34.0230	0	26.995	0	488.602	0	35.5	4	11.3	4	-1E+10	1	-1E+10	1	-1E+10	1	-1E+10	1	-1E+10	1	-1E+10	1
4902549	118	C	11/20/2023	22:06	-132.862	47.456	0	498.30	0	4.1700	0	34.0280	0	26.999	0	493.549	0	34.5	4	10.9	4	-1E+10	1	-1E+10	1	-1E+10	1	-1E+10	1	-1E+10	1	-1E+10	1
4902549	118	C	11/20/2023	22:06	-132.862	47.456	0	503.30	0	4.1490	0	34.0350	0	27.007	0	498.495	0	33.6	4	10.6	4	-1E+10	1	-1E+10	1	-1E+10	1	-1E+10	1	-1E+10	1	-1E+10	1
4902549	118	C	11/20/2023	22:06	-132.862	47.456	0	507.90	0	4.1400	0	34.0420	0	27.014	0	503.046	0	33.0	4	10.4	4	-1E+10	1	-1E+10	1	-1E+10	1	-1E+10	1	-1E+10	1	-1E+10	1
4902549	118	C	11/20/2023	22:06	-132.862	47.456	0	512.80	0	4.1380	0	34.0460	0	27.017	0	507.893	0	32.5	4	10.3	4	-1E+10	1	-1E+10	1	-1E+10	1	-1E+10	1	-1E+10	1	-1E+10	1
4902549	118	C	11/20/2023	22:06	-132.862	47.456	0	518.00	0	4.1220	0	34.0490	0	27.021	0	513.037	0	31.9	4	10.1	4	-1E+10	1	-1E+10	1	-1E+10	1	-1E+10	1	-1E+10	1	-1E+10	1
4902549	118	C	11/20/2023	22:06	-132.862	47.456	0	522.80	0	4.1130	0	34.0530	0	27.025	0	517.785	0	31.3	4	9.9	4	-1E+10	1	-1E+10	1	-1E+10	1	-1E+10	1	-1E+10	1	-1E+10	1
4902549	118	C	11/20/2023	22:06	-132.862	47.456	0	527.70	0	4.1040	0	34.0580	0	27.030	0	522.632	0	30.8	4	9.7	4	-1E+10	1	-1E+10	1	-1E+10	1	-1E+10	1	-1E+10	1	-1E+10	1
4902549	118	C	11/20/2023	22:06	-132.862	47.456	0	532.70	0	4.0990	0	34.0600	0	27.032	0	527.577	0	30.4	4	9.6	4	-1E+10	1	-1E+10	1	-1E+10	1	-1E+10	1	-1E+10	1	-1E+10	1
4902549	118	C	11/20/2023	22:06	-132.862	47.456	0	537.70	0	4.0910	0	34.0620	0	27.035	0	532.523	0	29.9	4	9.5	4	-1E+10	1	-1E+10	1	-1E+10	1	-1E+10	1	-1E+10	1	-1E+10	1
4902549	118	C	11/20/2023	22:06	-132.862	47.456	0	542.90	0	4.0860	0	34.0660	0	27.038	0	537.666	0	29.2	4	9.2	4	-1E+10	1	-1E+10	1	-1E+10	1	-1E+10	1	-1E+10	1	-1E+10	1
4902549	118	C	11/20/2023	22:06	-132.862	47.456	0	548.10	0	4.0770	0	34.0730	0	27.045	0	542.809	0	28.4	4	9.0	4	-1E+10	1	-1E+10	1	-1E+10	1	-1E+10	1	-1E+10	1	-1E+10	1
4902549	118	C	11/20/2023	22:06	-132.862	47.456	0	553.00	0	4.0650	0	34.0770	0	27.049	0	547.655	0	27.7	4	8.8	4	-1E+10	1	-1E+10	1	-1E+10	1	-1E+10	1	-1E+10	1	-1E+10	1
4902549	118	C	11/20/2023	22:06	-132.862	47.456	0	557.90	0	4.0520	0	34.0820	0	27.055	0	552.501	0	27.0	4	8.5	4	-1E+10	1	-1E+10	1	-1E+10	1	-1E+10	1	-1E+10	1	-1E+10	1
4902549	118	C	11/20/2023	22:06	-132.862	47.456	0	562.90	0	4.0390	0	34.0900	0	27.063	0	557.446	0	26.3	4	8.3	4	-1E+10	1	-1E+10	1	-1E+10	1	-1E+10	1	-1E+10	1	-1E+10	1
4902549	118	C	11/20/2023	22:06	-132.862	47.456	0	568.00	0	4.0340	0	34.0930	0	27.065	0	562.490	0	25.5	4	8.1	4	-1E+10	1	-1E+10	1	-1E+10	1	-1E+10	1	-1E+10	1	-1E+10	1
4902549	118	C	11/20/2023	22:06	-132.862	47.456	0	573.10	0	4.0230	0	34.1010	0	27.073	0	567.534	0	24.6	4	7.8	4	-1E+10	1	-1E+10	1	-1E+10	1	-1E+10	1	-1E+10	1	-1E+10	1
4902549	118	C	11/20/2023	22:06	-132.862	47.456	0	577.80	0	4.0090	0	34.1070	0	27.079	0	572.181	0	24.0	4	7.6	4	-1E+10	1	-1E+10	1	-1E+10	1	-1E+10	1	-1E+10	1	-1E+10	1
4902549	118	C	11/20/2023	22:06	-132.862	47.456	0	582.60	0	4.0010	0	34.1120	0	27.084	0	576.928	0	23.5	4	7.4	4	-1E+10	1	-1E+10	1	-1E+10	1	-1E+10	1	-1E+10	1	-1E+10	1
4902549	118	C	11/20/2023	22:06	-132.862	47.456	0	587.80	0	3.9900	0	34.1160	0	27.088	0	582.070	0	22.8	4	7.2	4	-1E+10	1	-1E+10	1	-1E+10	1	-1E+10	1	-1E+10	1	-1E+10	1
4902549	118	C	11/20/2023	22:06	-132.862	47.456	0	593.10	0	3.9830	0	34.1200	0	27.092	0	587.311	0	21.9	4	6.9	4	-1E+10	1	-1E+10	1	-1E+10	1	-1E+10	1	-1E+10	1	-1E+10	1
4902549	118	C	11/20/2023	22:06	-132.862	47.456	0	598.00	0	3.9760	0	34.1240	0	27.096	0	592.156	0	21.2	4	6.7	4	-1E+10	1	-1E+10	1	-1E+10	1	-1E+10	1	-1E+10	1	-1E+10	1
4902549	118	C	11/20/2023	22:06	-132.862	47.456	0	603.00	0	3.9700	0	34.1280	0	27.100	0	597.100	0	20.4	4	6.4	4	-1E+10	1	-1E+10	1	-1E+10	1	-1E+10	1	-1E+10	1	-1E+10	1
4902549	118	C	11/20/2023	22:06	-132.862	47.456	0	607.90	0	3.9600	0	34.1330	0	27.105	0	601.945	0	19.8	4	6.2	4	-1E+10	1	-1E+10	1	-1E+10	1	-1E+10	1	-1E+10	1	-1E+10	1
4902549	118	C	11/20/2023	22:06	-132.862	47.456	0	612.90	0	3.9480	0	34.1380	0	27.110	0	606.889	0	19.3	4	6.1	4	-1E+10	1	-1E+10	1	-1E+10	1	-1E+10	1	-1E+10	1	-1E+10	1
4902549	118	C	11/20/2023	22:06	-132.862	47.456	0	617.90	0	3.9370	0	34.1410	0	27.114	0	611.833	0	19.0	4	6.0	4	-1E+10	1	-1E+10	1	-1E+10	1	-1E+10	1	-1E+10	1	-1E+10	1
4902549	118	C	11/20/2023	22:06	-132.862	47.456	0	623.00	0	3.9240	0	34.1450	0	27.118	0	616.875	0	18.6	4	5.9	4	-1E+10	1	-1E+10	1	-1E+10	1	-1E+10	1	-1E+10	1	-1E+10	1
4902549	118	C	11/20/2023	22:06	-132.862	47.456	0	628.00	0	3.9140	0	34.1480	0	27.122	0	621.818	0	18.3	4	5.8	4	-1E+10	1	-1E+10	1	-1E+10	1	-1E+10	1	-1E+10	1	-1E+10	1
4902549	118	C	11/20/2023	22:06	-132.862	47.456	0	633.20	0	3.9030	0	34.1510	0	27.125	0	626.959	0	17.9	4	5.6	4	-1E+10	1	-1E+10	1	-1E+10	1	-1E+10	1	-1E+10	1	-1E+10	1
4902549	118	C	11/20/2023	22:06	-132.862	47.456	0	638.30	0	3.8840	0	34.1570	0	27.132	0	632.001	0	17.5	4	5.5	4	-1E+10	1	-1E+10	1	-1E+10	1	-1E+10	1	-1E+10	1	-1E+10	1
4902549	118	C	11/20/2023	22:06	-132.862	47.456	0	643.30	0	3.8720	0	34.1600	0	27.136	0	636.944	0	17.2	4	5.4	4	-1E+10	1	-1E+10	1	-1E+10	1	-1E+10	1	-1E+10	1	-1E+10	1
4902549	118	C	11/20/2023	22:06	-132.862	47.456	0	648.00	0	3.8610	0	34.1640	0	27.140	0	641.591	0	16.9	4	5.3	4	-1E+10	1	-1E+10	1	-1E+10	1	-1E+10	1	-1E+10	1	-1E+10	1
4902549	118	C	11/20/2023	22:06	-132.862	47.456	0	653.00	0	3.8510	0	34.1670	0	27.143	0	646.533	0	16.7	4	5.2	4	-1E+10	1	-1E+10	1	-1E+10	1	-1E+10	1	-1E+10	1	-1E+10	1
4902549	118	C	11/20/2023	22:06	-132.862	47.456	0	658.00	0	3.8390	0	34.1700	0	27.147	0	651.476	0	16.4	4	5.2	4	-1E+10	1	-1E+10	1	-1E+10	1	-1E+10	1	-1E+10	1	-1E+10	1
4902549	118	C	11/20/2023	22:06	-132.862	47.456	0	663.00	0	3.8270	0	34.1740	0	27.151	0	656.419	0	16.2	4	5.1	4	-1E+10	1	-1E+10	1	-1E+10	1	-1E+10	1	-1E+10	1	-1E+10	1
4902549	118	C	11/20/2023	22:06	-132.862	47.456	0	668.10	0	3.8200	0	34.1770	0	27.155	0	661.460	0	15.9	4	5.0	4	-1E+10	1	-1E+10	1	-1E+10	1	-1E+10	1	-1E+10	1	-1E+10	1
4902549	118	C	11/20/2023	22:06	-132.862	47.456	0	673.10	0	3.8110	0	34.1800	0	27.158	0	666.402	0	15.7	4	4.9	4	-1E+10	1	-1E+10	1	-1E+10	1	-1E+10	1	-1E+10	1	-1E+10	1
4902549	118	C	11/20/2023	22:06	-132.862	47.456	0	678.10	0	3.8030	0	34.1830	0	27.161	0	671.344	0	15.5	4	4.9	4	-1E+10	1	-1E+10	1	-1E+10	1	-1E+10	1	-1E+10	1	-1E+10	1
4902549	118	C	11/20/2023	22:06	-132.862	47.456	0	683.20	0	3.7980	0	34.1850	0	27.163	0	676.385	0	15.3	4	4.8	4	-1E+10	1	-1E+10	1	-1E+10	1	-1E+10	1	-1E+10	1	-1E+10	1
4902549	118	C	11/20/2023	22:06	-132.862	47.456	0	687.90	0	3.7900	0	34.1880	0	27.167	0	681.031	0	15.1	4	4.7	4	-1E+10	1	-1E+10	1	-1E+10	1	-1E+10	1	-1E+10	1	-1E+10	1
4902549	118	C	11/20/2023	22:06	-132.862	47.456	0	692.70	0	3.7850	0	34.1900	0	27.169	0	685.775	0	14.9	4	4.7	4	-1E+10	1	-1E+10	1	-1E+10	1	-1E+10	1	-1E+10	1	-1E+10	1
4902549	118	C	11/20/2023	22:06	-132.862	47.456	0	698.10	0	3.7750	0	34.1930	0	27.172	0	691.112	0	14.6	4	4.6	4	-1E+10	1	-1E+10	1	-1E+10	1	-1E+10	1	-1E+10	1	-1E+10	1
4902549	118	C	11/20/2023	22:06	-132.862	47.456	0	703.10	0	3.7710	0	34.1950	0	27.174	0	696.054	0	14.4	4	4.5	4	-1E+10	1	-1E+10	1	-1E+10	1	-1E+10	1	-1E+10	1	-1E+10	1
4902549	118	C	11/20/2023	22:06	-132.862	47.456	0	708.10	0	3.7650	0	34.1980	0	27.177	0	700.995	0	14.1	4	4.4	4	-1E+10	1	-1E+10	1	-1E+10	1	-1E+10	1	-1E+10	1	-1E+10	1
4902549	118	C	11/20/2023	22:06	-132.862	47.456	0	713.20	0	3.7570	0	34.2000	0	27.180	0	706.035	0	13.9	4	4.4	4	-1E+10	1	-1E+10	1	-1E+10	1	-1E+10	1	-1E+10	1	-1E+10	1
4902549	118	C	11/20/2023	22:06	-132.862	47.456	0	717.80	0	3.7470	0	34.2030	0	27.183	0	710.581	0	13.5	4	4.2	4	-1E+10	1	-1E+10	1	-1E+10	1	-1E+10	1	-1E+10	1	-1E+10	1
4902549	118	C	11/20/2023	22:06	-132.862	47.456	0	723.00	0	3.7390	0	34.2080	0	27.188	0	715.720	0	13.1	4	4.1	4	-1E+10	1	-1E+10	1	-1E+10	1	-1E+10	1	-1E+10	1	-1E+10	1
4902549	118	C	11/20/2023	22:06	-132.862	47.456	0	728.20	0	3.7320	0	34.2110	0	27.191	0	720.859	0	12.9	4	4.0	4	-1E+10	1	-1E+10	1	-1E+10	1	-1E+10	1	-1E+10	1	-1E+10	1
4902549	118	C	11/20/2023	22:06	-132.862	47.456	0	732.90	0	3.7290	0	34.2130	0	27.193	0	725.503	0	12.8	4	4.0	4	-1E+10	1	-1E+10	1	-1E+10	1	-1E+10	1	-1E+10	1	-1E+10	1
4902549	118	C	11/20/2023	22:06	-132.862	47.456	0	738.10	0	3.7150	0	34.2160	0	27.197	0	730.642	0	12.6	4	4.0	4	-1E+10	1	-1E+10	1	-1E+10	1	-1E+10	1	-1E+10	1	-1E+10	1
4902549	118	C	11/20/2023	22:06	-132.862	47.456	0	743.20	0	3.7060	0	34.2180	0	27.199	0	735.681	0	12.3	4	3.9	4	-1E+10	1	-1E+10	1	-1E+10	1	-1E+10	1	-1E+10	1	-1E+10	1
4902549	118	C	11/20/2023	22:06	-132.862	47.456	0	747.90	0	3.7040	0	34.2210	0	27.202	0	740.325	0	11.9	4	3.7	4	-1E+10	1	-1E+10	1	-1E+10	1	-1E+10	1	-1E+10	1	-1E+10	1
4902549	118	C	11/20/2023	22:06	-132.862	47.456	0	753.00	0	3.7000	0	34.2240	0	27.205	0	745.365	0	11.7	4	3.7	4	-1E+10	1	-1E+10	1	-1E+10	1	-1E+10	1	-1E+10	1	-1E+10	1
4902549	118	C	11/20/2023	22:06	-132.862	47.456	0	758.10	0	3.6930	0	34.2260	0	27.207	0	750.404	0	11.4	4	3.6	4	-1E+10	1	-1E+10	1	-1E+10	1	-1E+10	1	-1E+10	1	-1E+10	1
4902549	118	C	11/20/2023	22:06	-132.862	47.456	0	762.80	0	3.6910	0	34.2290	0	27.209	0	755.047	0	11.2	4	3.5	4	-1E+10	1	-1E+10	1	-1E+10	1	-1E+10	1	-1E+10	1	-1E+10	1
4902549	118	C	11/20/2023	22:06	-132.862	47.456	0	767.80	0	3.6730	0	34.2320	0	27.214	0	759.988	0	10.9	4	3.4	4	-1E+10	1	-1E+10	1	-1E+10	1	-1E+10	1	-1E+10	1	-1E+10	1
4902549	118	C	11/20/2023	22:06	-132.862	47.456	0	772.80	0	3.6700	0	34.2360	0	27.217	0	764.927	0	10.4	4	3.3	4	-1E+10	1	-1E+10	1	-1E+10	1	-1E+10	1	-1E+10	1	-1E+10	1
4902549	118	C	11/20/2023	22:06	-132.862	47.456	0	777.80	0	3.6680	0	34.2390	0	27.220	0	769.867	0	10.1	4	3.2	4	-1E+10	1	-1E+10	1	-1E+10	1	-1E+10	1	-1E+10	1	-1E+10	1
4902549	118	C	11/20/2023	22:06	-132.862	47.456	0	782.80	0	3.6610	0	34.2430	0	27.224	0	774.807	0	9.9	4	3.1	4	-1E+10	1	-1E+10	1	-1E+10	1	-1E+10	1	-1E+10	1	-1E+10	1
4902549	118	C	11/20/2023	22:06	-132.862	47.456	0	787.60	0	3.6540	0	34.2440	0	27.225	0	779.549	0	9.8	4	3.1	4	-1E+10	1	-1E+10	1	-1E+10	1	-1E+10	1	-1E+10	1	-1E+10	1
4902549	118	C	11/20/2023	22:06	-132.862	47.456	0	792.90	0	3.6380	0	34.2480	0	27.230	0	784.785	0	9.7	4	3.0	4	-1E+10	1	-1E+10	1	-1E+10	1	-1E+10	1	-1E+10	1	-1E+10	1
4902549	118	C	11/20/2023	22:06	-132.862	47.456	0	798.20	0	3.6170	0	34.2520	0	27.235	0	790.021	0	9.4	4	2.9	4	-1E+10	1	-1E+10	1	-1E+10	1	-1E+10	1	-1E+10	1	-1E+10	1
4902549	118	C	11/20/2023	22:06	-132.862	47.456	0	803.00	0	3.6010	0	34.2560	0	27.240	0	794.762	0	8.9	4	2.8	4	-1E+10	1	-1E+10	1	-1E+10	1	-1E+10	1	-1E+10	1	-1E+10	1
4902549	118	C	11/20/2023	22:06	-132.862	47.456	0	807.80	0	3.5970	0	34.2630	0	27.246	0	799.504	0	8.3	4	2.6	4	-1E+10	1	-1E+10	1	-1E+10	1	-1E+10	1	-1E+10	1	-1E+10	1
4902549	118	C	11/20/2023	22:06	-132.862	47.456	0	813.00	0	3.5950	0	34.2700	0	27.252	0	804.641	0	7.9	4	2.5	4	-1E+10	1	-1E+10	1	-1E+10	1	-1E+10	1	-1E+10	1	-1E+10	1
4902549	118	C	11/20/2023	22:06	-132.862	47.456	0	817.80	0	3.5890	0	34.2730	0	27.255	0	809.382	0	7.8	4	2.4	4	-1E+10	1	-1E+10	1	-1E+10	1	-1E+10	1	-1E+10	1	-1E+10	1
4902549	118	C	11/20/2023	22:06	-132.862	47.456	0	822.60	0	3.5790	0	34.2760	0	27.258	0	814.123	0	7.7	4	2.4	4	-1E+10	1	-1E+10	1	-1E+10	1	-1E+10	1	-1E+10	1	-1E+10	1
4902549	118	C	11/20/2023	22:06	-132.862	47.456	0	827.80	0	3.5700	0	34.2790	0	27.262	0	819.259	0	7.7	4	2.4	4	-1E+10	1	-1E+10	1	-1E+10	1	-1E+10	1	-1E+10	1	-1E+10	1
4902549	118	C	11/20/2023	22:06	-132.862	47.456	0	832.70	0	3.5550	0	34.2820	0	27.265	0	824.099	0	7.7	4	2.4	4	-1E+10	1	-1E+10	1	-1E+10	1	-1E+10	1	-1E+10	1	-1E+10	1
4902549	118	C	11/20/2023	22:06	-132.862	47.456	0	837.60	0	3.5460	0	34.2850	0	27.269	0	828.939	0	7.7	4	2.4	4	-1E+10	1	-1E+10	1	-1E+10	1	-1E+10	1	-1E+10	1	-1E+10	1
4902549	118	C	11/20/2023	22:06	-132.862	47.456	0	842.90	0	3.5250	0	34.2880	0	27.273	0	834.173	0	8.0	4	2.5	4	-1E+10	1	-1E+10	1	-1E+10	1	-1E+10	1	-1E+10	1	-1E+10	1
4902549	118	C	11/20/2023	22:06	-132.862	47.456	0	848.00	0	3.4910	0	34.2890	0	27.277	0	839.210	0	8.2	4	2.5	4	-1E+10	1	-1E+10	1	-1E+10	1	-1E+10	1	-1E+10	1	-1E+10	1
4902549	118	C	11/20/2023	22:06	-132.862	47.456	0	852.60	0	3.4700	0	34.2900	0	27.280	0	843.753	0	8.0	4	2.5	4	-1E+10	1	-1E+10	1	-1E+10	1	-1E+10	1	-1E+10	1	-1E+10	1
4902549	118	C	11/20/2023	22:06	-132.862	47.456	0	857.90	0	3.4670	0	34.2940	0	27.284	0	848.988	0	7.7	4	2.4	4	-1E+10	1	-1E+10	1	-1E+10	1	-1E+10	1	-1E+10	1	-1E+10	1
4902549	118	C	11/20/2023	22:06	-132.862	47.456	0	863.30	0	3.4510	0	34.3000	0	27.290	0	854.321	0	7.3	4	2.3	4	-1E+10	1	-1E+10	1	-1E+10	1	-1E+10	1	-1E+10	1	-1E+10	1
4902549	118	C	11/20/2023	22:06	-132.862	47.456	0	868.20	0	3.4630	0	34.3050	0	27.293	0	859.160	0	6.9	4	2.1	4	-1E+10	1	-1E+10	1	-1E+10	1	-1E+10	1	-1E+10	1	-1E+10	1
4902549	118	C	11/20/2023	22:06	-132.862	47.456	0	872.90	0	3.4770	0	34.3110	0	27.296	0	863.801	0	6.7	4	2.1	4	-1E+10	1	-1E+10	1	-1E+10	1	-1E+10	1	-1E+10	1	-1E+10	1
4902549	118	C	11/20/2023	22:06	-132.862	47.456	0	878.00	0	3.4640	0	34.3140	0	27.300	0	868.837	0	6.7	4	2.1	4	-1E+10	1	-1E+10	1	-1E+10	1	-1E+10	1	-1E+10	1	-1E+10	1
4902549	118	C	11/20/2023	22:06	-132.862	47.456	0	882.80	0	3.4450	0	34.3160	0	27.303	0	873.577	0	6.8	4	2.1	4	-1E+10	1	-1E+10	1	-1E+10	1	-1E+10	1	-1E+10	1	-1E+10	1
4902549	118	C	11/20/2023	22:06	-132.862	47.456	0	887.70	0	3.4380	0	34.3190	0	27.307	0	878.416	0	6.8	4	2.1	4	-1E+10	1	-1E+10	1	-1E+10	1	-1E+10	1	-1E+10	1	-1E+10	1
4902549	118	C	11/20/2023	22:06	-132.862	47.456	0	892.90	0	3.4220	0	34.3210	0	27.310	0	883.550	0	6.9	4	2.1	4	-1E+10	1	-1E+10	1	-1E+10	1	-1E+10	1	-1E+10	1	-1E+10	1
4902549	118	C	11/20/2023	22:06	-132.862	47.456	0	898.10	0	3.4030	0	34.3220	0	27.312	0	888.685	0	7.0	4	2.2	4	-1E+10	1	-1E+10	1	-1E+10	1	-1E+10	1	-1E+10	1	-1E+10	1
4902549	118	C	11/20/2023	22:06	-132.862	47.456	0	903.10	0	3.3740	0	34.3220	0	27.315	0	893.622	0	7.0	4	2.2	4	-1E+10	1	-1E+10	1	-1E+10	1	-1E+10	1	-1E+10	1	-1E+10	1
4902549	118	C	11/20/2023	22:06	-132.862	47.456	0	907.70	0	3.3730	0	34.3250	0	27.318	0	898.164	0	6.9	4	2.1	4	-1E+10	1	-1E+10	1	-1E+10	1	-1E+10	1	-1E+10	1	-1E+10	1
4902549	118	C	11/20/2023	22:06	-132.862	47.456	0	912.80	0	3.3600	0	34.3290	0	27.322	0	903.199	0	6.8	4	2.1	4	-1E+10	1	-1E+10	1	-1E+10	1	-1E+10	1	-1E+10	1	-1E+10	1
4902549	118	C	11/20/2023	22:06	-132.862	47.456	0	918.10	0	3.3620	0	34.3310	0	27.323	0	908.432	0	6.8	4	2.1	4	-1E+10	1	-1E+10	1	-1E+10	1	-1E+10	1	-1E+10	1	-1E+10	1
4902549	118	C	11/20/2023	22:06	-132.862	47.456	0	922.90	0	3.3590	0	34.3320	0	27.325	0	913.171	0	6.9	4	2.1	4	-1E+10	1	-1E+10	1	-1E+10	1	-1E+10	1	-1E+10	1	-1E+10	1
4902549	118	C	11/20/2023	22:06	-132.862	47.456	0	927.90	0	3.3460	0	34.3320	0	27.326	0	918.107	0	6.9	4	2.2	4	-1E+10	1	-1E+10	1	-1E+10	1	-1E+10	1	-1E+10	1	-1E+10	1
4902549	118	C	11/20/2023	22:06	-132.862	47.456	0	932.90	0	3.3400	0	34.3320	0	27.326	0	923.043	0	7.0	4	2.2	4	-1E+10	1	-1E+10	1	-1E+10	1	-1E+10	1	-1E+10	1	-1E+10	1
4902549	118	C	11/20/2023	22:06	-132.862	47.456	0	938.00	0	3.3170	0	34.3320	0	27.329	0	928.078	0	7.1	4	2.2	4	-1E+10	1	-1E+10	1	-1E+10	1	-1E+10	1	-1E+10	1	-1E+10	1
4902549	118	C	11/20/2023	22:06	-132.862	47.456	0	943.10	0	3.3010	0	34.3330	0	27.331	0	933.113	0	7.2	4	2.2	4	-1E+10	1	-1E+10	1	-1E+10	1	-1E+10	1	-1E+10	1	-1E+10	1
4902549	118	C	11/20/2023	22:06	-132.862	47.456	0	948.20	0	3.2820	0	34.3350	0	27.334	0	938.147	0	7.1	4	2.2	4	-1E+10	1	-1E+10	1	-1E+10	1	-1E+10	1	-1E+10	1	-1E+10	1
4902549	118	C	11/20/2023	22:06	-132.862	47.456	0	953.30	0	3.2790	0	34.3370	0	27.336	0	943.182	0	7.1	4	2.2	4	-1E+10	1	-1E+10	1	-1E+10	1	-1E+10	1	-1E+10	1	-1E+10	1
4902549	118	C	11/20/2023	22:06	-132.862	47.456	0	957.90	0	3.2790	0	34.3390	0	27.338	0	947.723	0	7.1	4	2.2	4	-1E+10	1	-1E+10	1	-1E+10	1	-1E+10	1	-1E+10	1	-1E+10	1
4902549	118	C	11/20/2023	22:06	-132.862	47.456	0	962.50	0	3.2520	0	34.3410	0	27.342	0	952.263	0	7.2	4	2.2	4	-1E+10	1	-1E+10	1	-1E+10	1	-1E+10	1	-1E+10	1	-1E+10	1
4902549	118	C	11/20/2023	22:06	-132.862	47.456	0	967.70	0	3.2490	0	34.3410	0	27.342	0	957.396	0	7.2	4	2.2	4	-1E+10	1	-1E+10	1	-1E+10	1	-1E+10	1	-1E+10	1	-1E+10	1
4902549	118	C	11/20/2023	22:06	-132.862	47.456	0	972.80	0	3.2290	0	34.3420	0	27.345	0	962.430	0	7.3	4	2.3	4	-1E+10	1	-1E+10	1	-1E+10	1	-1E+10	1	-1E+10	1	-1E+10	1
4902549	118	C	11/20/2023	22:06	-132.862	47.456	0	977.80	0	3.2130	0	34.3430	0	27.347	0	967.365	0	7.3	4	2.3	4	-1E+10	1	-1E+10	1	-1E+10	1	-1E+10	1	-1E+10	1	-1E+10	1
4902549	118	C	11/20/2023	22:06	-132.862	47.456	0	982.70	0	3.2010	0	34.3450	0	27.350	0	972.201	0	7.3	4	2.3	4	-1E+10	1	-1E+10	1	-1E+10	1	-1E+10	1	-1E+10	1	-1E+10	1
4902549	118	C	11/20/2023	22:06	-132.862	47.456	0	987.70	0	3.1940	0	34.3460	0	27.352	0	977.136	0	7.3	4	2.3	4	-1E+10	1	-1E+10	1	-1E+10	1	-1E+10	1	-1E+10	1	-1E+10	1
4902549	118	C	11/20/2023	22:06	-132.862	47.456	0	992.60	0	3.1770	0	34.3480	0	27.355	0	981.972	0	7.3	4	2.3	4	-1E+10	1	-1E+10	1	-1E+10	1	-1E+10	1	-1E+10	1	-1E+10	1
4902549	118	C	11/20/2023	22:06	-132.862	47.456	0	997.60	0	3.1620	0	34.3500	0	27.358	0	986.907	0	7.3	4	2.3	4	-1E+10	1	-1E+10	1	-1E+10	1	-1E+10	1	-1E+10	1	-1E+10	1
4902549	118	C	11/20/2023	22:06	-132.862	47.456	0	1005.30	0	3.1600	0	34.3520	0	27.360	0	994.506	0	7.2	4	2.2	4	-1E+10	1	-1E+10	1	-1E+10	1	-1E+10	1	-1E+10	1	-1E+10	1
4902549	118	C	11/20/2023	22:06	-132.862	47.456	0	1015.40	0	3.1530	0	34.3550	0	27.363	0	1004.474	0	7.2	4	2.2	4	-1E+10	1	-1E+10	1	-1E+10	1	-1E+10	1	-1E+10	1	-1E+10	1
4902549	118	C	11/20/2023	22:06	-132.862	47.456	0	1025.40	0	3.1420	0	34.3560	0	27.365	0	1014.342	0	7.2	4	2.2	4	-1E+10	1	-1E+10	1	-1E+10	1	-1E+10	1	-1E+10	1	-1E+10	1
4902549	118	C	11/20/2023	22:06	-132.862	47.456	0	1035.60	0	3.1230	0	34.3610	0	27.370	0	1024.407	0	7.1	4	2.2	4	-1E+10	1	-1E+10	1	-1E+10	1	-1E+10	1	-1E+10	1	-1E+10	1
4902549	118	C	11/20/2023	22:06	-132.862	47.456	0	1045.30	0	3.1020	0	34.3660	0	27.376	0	1033.978	0	7.1	4	2.2	4	-1E+10	1	-1E+10	1	-1E+10	1	-1E+10	1	-1E+10	1	-1E+10	1
4902549	118	C	11/20/2023	22:06	-132.862	47.456	0	1055.20	0	3.0790	0	34.3710	0	27.382	0	1043.746	0	7.1	4	2.2	4	-1E+10	1	-1E+10	1	-1E+10	1	-1E+10	1	-1E+10	1	-1E+10	1
4902549	118	C	11/20/2023	22:06	-132.862	47.456	0	1065.40	0	3.0730	0	34.3730	0	27.385	0	1053.810	0	7.1	4	2.2	4	-1E+10	1	-1E+10	1	-1E+10	1	-1E+10	1	-1E+10	1	-1E+10	1
4902549	118	C	11/20/2023	22:06	-132.862	47.456	0	1075.40	0	3.0580	0	34.3770	0	27.389	0	1063.676	0	7.1	4	2.2	4	-1E+10	1	-1E+10	1	-1E+10	1	-1E+10	1	-1E+10	1	-1E+10	1
4902549	118	C	11/20/2023	22:06	-132.862	47.456	0	1085.30	0	3.0520	0	34.3840	0	27.395	0	1073.443	0	7.1	4	2.2	4	-1E+10	1	-1E+10	1	-1E+10	1	-1E+10	1	-1E+10	1	-1E+10	1
4902549	118	C	11/20/2023	22:06	-132.862	47.456	0	1095.70	0	3.0230	0	34.3880	0	27.401	0	1083.702	0	7.2	4	2.2	4	-1E+10	1	-1E+10	1	-1E+10	1	-1E+10	1	-1E+10	1	-1E+10	1
4902549	118	C	11/20/2023	22:06	-132.862	47.456	0	1105.30	0	3.0120	0	34.3910	0	27.405	0	1093.172	0	7.3	4	2.3	4	-1E+10	1	-1E+10	1	-1E+10	1	-1E+10	1	-1E+10	1	-1E+10	1
4902549	118	C	11/20/2023	22:06	-132.862	47.456	0	1115.30	0	2.9800	0	34.3930	0	27.409	0	1103.036	0	7.4	4	2.3	4	-1E+10	1	-1E+10	1	-1E+10	1	-1E+10	1	-1E+10	1	-1E+10	1
4902549	118	C	11/20/2023	22:06	-132.862	47.456	0	1125.30	0	2.9570	0	34.3970	0	27.415	0	1112.900	0	7.5	4	2.3	4	-1E+10	1	-1E+10	1	-1E+10	1	-1E+10	1	-1E+10	1	-1E+10	1
4902549	118	C	11/20/2023	22:06	-132.862	47.456	0	1135.30	0	2.9490	0	34.4000	0	27.418	0	1122.763	0	7.6	4	2.3	4	-1E+10	1	-1E+10	1	-1E+10	1	-1E+10	1	-1E+10	1	-1E+10	1
4902549	118	C	11/20/2023	22:06	-132.862	47.456	0	1145.30	0	2.9390	0	34.4020	0	27.420	0	1132.626	0	7.7	4	2.4	4	-1E+10	1	-1E+10	1	-1E+10	1	-1E+10	1	-1E+10	1	-1E+10	1
4902549	118	C	11/20/2023	22:06	-132.862	47.456	0	1155.10	0	2.9240	0	34.4050	0	27.424	0	1142.290	0	7.8	4	2.4	4	-1E+10	1	-1E+10	1	-1E+10	1	-1E+10	1	-1E+10	1	-1E+10	1
4902549	118	C	11/20/2023	22:06	-132.862	47.456	0	1165.20	0	2.9120	0	34.4070	0	27.427	0	1152.251	0	7.9	4	2.4	4	-1E+10	1	-1E+10	1	-1E+10	1	-1E+10	1	-1E+10	1	-1E+10	1
4902549	118	C	11/20/2023	22:06	-132.862	47.456	0	1175.10	0	2.8980	0	34.4090	0	27.430	0	1162.013	0	7.9	4	2.4	4	-1E+10	1	-1E+10	1	-1E+10	1	-1E+10	1	-1E+10	1	-1E+10	1
4902549	118	C	11/20/2023	22:06	-132.862	47.456	0	1185.30	0	2.8820	0	34.4110	0	27.433	0	1172.071	0	8.1	4	2.5	4	-1E+10	1	-1E+10	1	-1E+10	1	-1E+10	1	-1E+10	1	-1E+10	1
4902549	118	C	11/20/2023	22:06	-132.862	47.456	0	1195.20	0	2.8700	0	34.4140	0	27.436	0	1181.833	0	8.2	4	2.5	4	-1E+10	1	-1E+10	1	-1E+10	1	-1E+10	1	-1E+10	1	-1E+10	1
4902549	118	C	11/20/2023	22:06	-132.862	47.456	0	1205.20	0	2.8570	0	34.4170	0	27.440	0	1191.693	0	8.3	4	2.6	4	-1E+10	1	-1E+10	1	-1E+10	1	-1E+10	1	-1E+10	1	-1E+10	1
4902549	118	C	11/20/2023	22:06	-132.862	47.456	0	1215.20	0	2.8370	0	34.4190	0	27.443	0	1201.552	0	8.5	4	2.6	4	-1E+10	1	-1E+10	1	-1E+10	1	-1E+10	1	-1E+10	1	-1E+10	1
4902549	118	C	11/20/2023	22:06	-132.862	47.456	0	1225.20	0	2.8220	0	34.4220	0	27.447	0	1211.411	0	8.6	4	2.7	4	-1E+10	1	-1E+10	1	-1E+10	1	-1E+10	1	-1E+10	1	-1E+10	1
4902549	118	C	11/20/2023	22:06	-132.862	47.456	0	1235.30	0	2.8110	0	34.4250	0	27.451	0	1221.368	0	8.8	4	2.7	4	-1E+10	1	-1E+10	1	-1E+10	1	-1E+10	1	-1E+10	1	-1E+10	1
4902549	118	C	11/20/2023	22:06	-132.862	47.456	0	1245.30	0	2.8080	0	34.4290	0	27.454	0	1231.226	0	9.1	4	2.8	4	-1E+10	1	-1E+10	1	-1E+10	1	-1E+10	1	-1E+10	1	-1E+10	1
4902549	118	C	11/20/2023	22:06	-132.862	47.456	0	1255.40	0	2.7970	0	34.4320	0	27.458	0	1241.182	0	9.2	4	2.8	4	-1E+10	1	-1E+10	1	-1E+10	1	-1E+10	1	-1E+10	1	-1E+10	1
4902549	118	C	11/20/2023	22:06	-132.862	47.456	0	1265.40	0	2.7850	0	34.4330	0	27.459	0	1251.039	0	9.4	4	2.9	4	-1E+10	1	-1E+10	1	-1E+10	1	-1E+10	1	-1E+10	1	-1E+10	1
4902549	118	C	11/20/2023	22:06	-132.862	47.456	0	1275.60	0	2.7650	0	34.4370	0	27.464	0	1261.093	0	9.7	4	3.0	4	-1E+10	1	-1E+10	1	-1E+10	1	-1E+10	1	-1E+10	1	-1E+10	1
4902549	118	C	11/20/2023	22:06	-132.862	47.456	0	1285.60	0	2.7510	0	34.4410	0	27.469	0	1270.949	0	10.1	4	3.1	4	-1E+10	1	-1E+10	1	-1E+10	1	-1E+10	1	-1E+10	1	-1E+10	1
4902549	118	C	11/20/2023	22:06	-132.862	47.456	0	1296.00	0	2.7400	0	34.4470	0	27.475	0	1281.199	0	10.5	4	3.2	4	-1E+10	1	-1E+10	1	-1E+10	1	-1E+10	1	-1E+10	1	-1E+10	1
4902549	118	C	11/20/2023	22:06	-132.862	47.456	0	1305.40	0	2.7210	0	34.4500	0	27.479	0	1290.463	0	10.8	4	3.3	4	-1E+10	1	-1E+10	1	-1E+10	1	-1E+10	1	-1E+10	1	-1E+10	1
4902549	118	C	11/20/2023	22:06	-132.862	47.456	0	1315.30	0	2.7080	0	34.4520	0	27.482	0	1300.219	0	11.0	4	3.4	4	-1E+10	1	-1E+10	1	-1E+10	1	-1E+10	1	-1E+10	1	-1E+10	1
4902549	118	C	11/20/2023	22:06	-132.862	47.456	0	1325.40	0	2.6920	0	34.4540	0	27.485	0	1310.172	0	11.2	4	3.4	4	-1E+10	1	-1E+10	1	-1E+10	1	-1E+10	1	-1E+10	1	-1E+10	1
4902549	118	C	11/20/2023	22:06	-132.862	47.456	0	1335.50	0	2.6760	0	34.4550	0	27.487	0	1320.124	0	11.5	4	3.5	4	-1E+10	1	-1E+10	1	-1E+10	1	-1E+10	1	-1E+10	1	-1E+10	1
4902549	118	C	11/20/2023	22:06	-132.862	47.456	0	1345.50	0	2.6580	0	34.4580	0	27.491	0	1329.978	0	11.9	4	3.6	4	-1E+10	1	-1E+10	1	-1E+10	1	-1E+10	1	-1E+10	1	-1E+10	1
4902549	118	C	11/20/2023	22:06	-132.862	47.456	0	1355.40	0	2.6410	0	34.4610	0	27.495	0	1339.732	0	12.2	4	3.7	4	-1E+10	1	-1E+10	1	-1E+10	1	-1E+10	1	-1E+10	1	-1E+10	1
4902549	118	C	11/20/2023	22:06	-132.862	47.456	0	1365.40	0	2.6180	0	34.4620	0	27.498	0	1349.584	0	12.6	4	3.9	4	-1E+10	1	-1E+10	1	-1E+10	1	-1E+10	1	-1E+10	1	-1E+10	1
4902549	118	C	11/20/2023	22:06	-132.862	47.456	0	1375.30	0	2.6030	0	34.4670	0	27.503	0	1359.338	0	13.2	4	4.0	4	-1E+10	1	-1E+10	1	-1E+10	1	-1E+10	1	-1E+10	1	-1E+10	1
4902549	118	C	11/20/2023	22:06	-132.862	47.456	0	1385.60	0	2.5850	0	34.4700	0	27.507	0	1369.485	0	13.7	4	4.2	4	-1E+10	1	-1E+10	1	-1E+10	1	-1E+10	1	-1E+10	1	-1E+10	1
4902549	118	C	11/20/2023	22:06	-132.862	47.456	0	1395.60	0	2.5680	0	34.4730	0	27.511	0	1379.336	0	14.1	4	4.3	4	-1E+10	1	-1E+10	1	-1E+10	1	-1E+10	1	-1E+10	1	-1E+10	1
4902549	118	C	11/20/2023	22:06	-132.862	47.456	0	1405.40	0	2.5520	0	34.4760	0	27.515	0	1388.989	0	14.6	4	4.4	4	-1E+10	1	-1E+10	1	-1E+10	1	-1E+10	1	-1E+10	1	-1E+10	1
4902549	118	C	11/20/2023	22:06	-132.862	47.456	0	1415.60	0	2.5380	0	34.4780	0	27.517	0	1399.036	0	15.0	4	4.6	4	-1E+10	1	-1E+10	1	-1E+10	1	-1E+10	1	-1E+10	1	-1E+10	1
4902549	118	C	11/20/2023	22:06	-132.862	47.456	0	1425.50	0	2.5220	0	34.4810	0	27.521	0	1408.788	0	15.4	4	4.7	4	-1E+10	1	-1E+10	1	-1E+10	1	-1E+10	1	-1E+10	1	-1E+10	1
4902549	118	C	11/20/2023	22:06	-132.862	47.456	0	1435.10	0	2.5120	0	34.4820	0	27.523	0	1418.243	0	15.8	4	4.8	4	-1E+10	1	-1E+10	1	-1E+10	1	-1E+10	1	-1E+10	1	-1E+10	1
4902549	118	C	11/20/2023	22:06	-132.862	47.456	0	1444.90	0	2.4990	0	34.4840	0	27.526	0	1427.895	0	16.2	4	4.9	4	-1E+10	1	-1E+10	1	-1E+10	1	-1E+10	1	-1E+10	1	-1E+10	1
4902549	118	C	11/20/2023	22:06	-132.862	47.456	0	1455.00	0	2.4870	0	34.4860	0	27.528	0	1437.841	0	16.8	4	5.1	4	-1E+10	1	-1E+10	1	-1E+10	1	-1E+10	1	-1E+10	1	-1E+10	1
4902549	118	C	11/20/2023	22:06	-132.862	47.456	0	1465.30	0	2.4700	0	34.4890	0	27.532	0	1447.985	0	17.5	4	5.3	4	-1E+10	1	-1E+10	1	-1E+10	1	-1E+10	1	-1E+10	1	-1E+10	1
4902549	118	C	11/20/2023	22:06	-132.862	47.456	0	1475.70	0	2.4560	0	34.4930	0	27.537	0	1458.226	0	18.1	4	5.5	4	-1E+10	1	-1E+10	1	-1E+10	1	-1E+10	1	-1E+10	1	-1E+10	1
4902549	118	C	11/20/2023	22:06	-132.862	47.456	0	1485.40	0	2.4380	0	34.4960	0	27.541	0	1467.777	0	18.7	4	5.7	4	-1E+10	1	-1E+10	1	-1E+10	1	-1E+10	1	-1E+10	1	-1E+10	1
4902549	118	C	11/20/2023	22:06	-132.862	47.456	0	1495.30	0	2.4260	0	34.4970	0	27.542	0	1477.525	0	19.2	4	5.9	4	-1E+10	1	-1E+10	1	-1E+10	1	-1E+10	1	-1E+10	1	-1E+10	1
4902549	118	C	11/20/2023	22:06	-132.862	47.456	0	1505.40	0	2.4130	0	34.5000	0	27.546	0	1487.470	0	19.9	4	6.1	4	-1E+10	1	-1E+10	1	-1E+10	1	-1E+10	1	-1E+10	1	-1E+10	1
4902549	118	C	11/20/2023	22:06	-132.862	47.456	0	1515.60	0	2.3950	0	34.5030	0	27.550	0	1497.512	0	20.6	4	6.3	4	-1E+10	1	-1E+10	1	-1E+10	1	-1E+10	1	-1E+10	1	-1E+10	1
4902549	118	C	11/20/2023	22:06	-132.862	47.456	0	1525.40	0	2.3830	0	34.5050	0	27.553	0	1507.160	0	21.2	4	6.4	4	-1E+10	1	-1E+10	1	-1E+10	1	-1E+10	1	-1E+10	1	-1E+10	1
4902549	118	C	11/20/2023	22:06	-132.862	47.456	0	1535.00	0	2.3620	0	34.5080	0	27.557	0	1516.611	0	21.9	4	6.7	4	-1E+10	1	-1E+10	1	-1E+10	1	-1E+10	1	-1E+10	1	-1E+10	1
4902549	118	C	11/20/2023	22:06	-132.862	47.456	0	1545.10	0	2.3460	0	34.5100	0	27.560	0	1526.554	0	22.6	4	6.9	4	-1E+10	1	-1E+10	1	-1E+10	1	-1E+10	1	-1E+10	1	-1E+10	1
4902549	118	C	11/20/2023	22:06	-132.862	47.456	0	1555.20	0	2.3310	0	34.5130	0	27.563	0	1536.496	0	23.2	4	7.1	4	-1E+10	1	-1E+10	1	-1E+10	1	-1E+10	1	-1E+10	1	-1E+10	1
4902549	118	C	11/20/2023	22:06	-132.862	47.456	0	1565.30	0	2.3220	0	34.5150	0	27.566	0	1546.437	0	23.8	4	7.2	4	-1E+10	1	-1E+10	1	-1E+10	1	-1E+10	1	-1E+10	1	-1E+10	1
4902549	118	C	11/20/2023	22:06	-132.862	47.456	0	1575.60	0	2.3160	0	34.5160	0	27.567	0	1556.575	0	24.3	4	7.4	4	-1E+10	1	-1E+10	1	-1E+10	1	-1E+10	1	-1E+10	1	-1E+10	1
4902549	118	C	11/20/2023	22:06	-132.862	47.456	0	1585.40	0	2.3090	0	34.5180	0	27.569	0	1566.221	0	25.2	4	7.7	4	-1E+10	1	-1E+10	1	-1E+10	1	-1E+10	1	-1E+10	1	-1E+10	1
4902549	118	C	11/20/2023	22:06	-132.862	47.456	0	1595.20	0	2.3020	0	34.5210	0	27.572	0	1575.866	0	26.3	4	8.0	4	-1E+10	1	-1E+10	1	-1E+10	1	-1E+10	1	-1E+10	1	-1E+10	1
4902549	118	C	11/20/2023	22:06	-132.862	47.456	0	1605.10	0	2.2810	0	34.5250	0	27.577	0	1585.609	0	27.4	4	8.3	4	-1E+10	1	-1E+10	1	-1E+10	1	-1E+10	1	-1E+10	1	-1E+10	1
4902549	118	C	11/20/2023	22:06	-132.862	47.456	0	1615.20	0	2.2640	0	34.5290	0	27.582	0	1595.548	0	28.4	4	8.6	4	-1E+10	1	-1E+10	1	-1E+10	1	-1E+10	1	-1E+10	1	-1E+10	1
4902549	118	C	11/20/2023	22:06	-132.862	47.456	0	1625.30	0	2.2510	0	34.5310	0	27.585	0	1605.487	0	29.4	4	8.9	4	-1E+10	1	-1E+10	1	-1E+10	1	-1E+10	1	-1E+10	1	-1E+10	1
4902549	118	C	11/20/2023	22:06	-132.862	47.456	0	1635.50	0	2.2370	0	34.5340	0	27.588	0	1615.524	0	30.4	4	9.2	4	-1E+10	1	-1E+10	1	-1E+10	1	-1E+10	1	-1E+10	1	-1E+10	1
4902549	118	C	11/20/2023	22:06	-132.862	47.456	0	1645.80	0	2.2260	0	34.5370	0	27.592	0	1625.658	0	31.2	4	9.5	4	-1E+10	1	-1E+10	1	-1E+10	1	-1E+10	1	-1E+10	1	-1E+10	1
4902549	118	C	11/20/2023	22:06	-132.862	47.456	0	1655.60	0	2.2170	0	34.5390	0	27.594	0	1635.301	0	31.9	4	9.7	4	-1E+10	1	-1E+10	1	-1E+10	1	-1E+10	1	-1E+10	1	-1E+10	1
4902549	118	C	11/20/2023	22:06	-132.862	47.456	0	1665.50	0	2.2060	0	34.5410	0	27.596	0	1645.041	0	32.6	4	9.9	4	-1E+10	1	-1E+10	1	-1E+10	1	-1E+10	1	-1E+10	1	-1E+10	1
4902549	118	C	11/20/2023	22:06	-132.862	47.456	0	1675.50	0	2.1970	0	34.5420	0	27.598	0	1654.879	0	33.1	4	10.0	4	-1E+10	1	-1E+10	1	-1E+10	1	-1E+10	1	-1E+10	1	-1E+10	1
4902549	118	C	11/20/2023	22:06	-132.862	47.456	0	1685.70	0	2.1880	0	34.5440	0	27.600	0	1664.913	0	33.8	4	10.2	4	-1E+10	1	-1E+10	1	-1E+10	1	-1E+10	1	-1E+10	1	-1E+10	1
4902549	118	C	11/20/2023	22:06	-132.862	47.456	0	1695.40	0	2.1760	0	34.5460	0	27.603	0	1674.456	0	34.7	4	10.5	4	-1E+10	1	-1E+10	1	-1E+10	1	-1E+10	1	-1E+10	1	-1E+10	1
4902549	118	C	11/20/2023	22:06	-132.862	47.456	0	1705.10	0	2.1570	0	34.5490	0	27.607	0	1683.997	0	35.5	4	10.8	4	-1E+10	1	-1E+10	1	-1E+10	1	-1E+10	1	-1E+10	1	-1E+10	1
4902549	118	C	11/20/2023	22:06	-132.862	47.456	0	1715.40	0	2.1500	0	34.5500	0	27.608	0	1694.129	0	36.0	4	10.9	4	-1E+10	1	-1E+10	1	-1E+10	1	-1E+10	1	-1E+10	1	-1E+10	1
4902549	118	C	11/20/2023	22:06	-132.862	47.456	0	1725.30	0	2.1430	0	34.5510	0	27.610	0	1703.866	0	36.7	4	11.1	4	-1E+10	1	-1E+10	1	-1E+10	1	-1E+10	1	-1E+10	1	-1E+10	1
4902549	118	C	11/20/2023	22:06	-132.862	47.456	0	1735.30	0	2.1320	0	34.5540	0	27.613	0	1713.702	0	37.4	4	11.3	4	-1E+10	1	-1E+10	1	-1E+10	1	-1E+10	1	-1E+10	1	-1E+10	1
4902549	118	C	11/20/2023	22:06	-132.862	47.456	0	1745.60	0	2.1260	0	34.5550	0	27.614	0	1723.832	0	37.7	4	11.4	4	-1E+10	1	-1E+10	1	-1E+10	1	-1E+10	1	-1E+10	1	-1E+10	1
4902549	118	C	11/20/2023	22:06	-132.862	47.456	0	1755.60	0	2.1220	0	34.5550	0	27.615	0	1733.666	0	38.3	4	11.6	4	-1E+10	1	-1E+10	1	-1E+10	1	-1E+10	1	-1E+10	1	-1E+10	1
4902549	118	C	11/20/2023	22:06	-132.862	47.456	0	1765.70	0	2.1130	0	34.5570	0	27.617	0	1743.598	0	38.8	4	11.7	4	-1E+10	1	-1E+10	1	-1E+10	1	-1E+10	1	-1E+10	1	-1E+10	1
4902549	118	C	11/20/2023	22:06	-132.862	47.456	0	1775.10	0	2.1090	0	34.5580	0	27.618	0	1752.842	0	39.3	4	11.9	4	-1E+10	1	-1E+10	1	-1E+10	1	-1E+10	1	-1E+10	1	-1E+10	1
4902549	118	C	11/20/2023	22:06	-132.862	47.456	0	1785.20	0	2.1010	0	34.5590	0	27.620	0	1762.773	0	39.9	4	12.0	4	-1E+10	1	-1E+10	1	-1E+10	1	-1E+10	1	-1E+10	1	-1E+10	1
4902549	118	C	11/20/2023	22:06	-132.862	47.456	0	1795.40	0	2.0910	0	34.5610	0	27.622	0	1772.803	0	40.6	4	12.3	4	-1E+10	1	-1E+10	1	-1E+10	1	-1E+10	1	-1E+10	1	-1E+10	1
4902549	118	C	11/20/2023	22:06	-132.862	47.456	0	1805.40	0	2.0820	0	34.5630	0	27.625	0	1782.635	0	41.3	4	12.5	4	-1E+10	1	-1E+10	1	-1E+10	1	-1E+10	1	-1E+10	1	-1E+10	1
4902549	118	C	11/20/2023	22:06	-132.862	47.456	0	1815.40	0	2.0730	0	34.5640	0	27.626	0	1792.467	0	42.0	4	12.7	4	-1E+10	1	-1E+10	1	-1E+10	1	-1E+10	1	-1E+10	1	-1E+10	1
4902549	118	C	11/20/2023	22:06	-132.862	47.456	0	1825.40	0	2.0620	0	34.5660	0	27.629	0	1802.298	0	42.7	4	12.9	4	-1E+10	1	-1E+10	1	-1E+10	1	-1E+10	1	-1E+10	1	-1E+10	1
4902549	118	C	11/20/2023	22:06	-132.862	47.456	0	1835.30	0	2.0490	0	34.5680	0	27.631	0	1812.031	0	43.3	4	13.1	4	-1E+10	1	-1E+10	1	-1E+10	1	-1E+10	1	-1E+10	1	-1E+10	1
4902549	118	C	11/20/2023	22:06	-132.862	47.456	0	1845.50	0	2.0330	0	34.5690	0	27.634	0	1822.057	0	43.9	4	13.2	4	-1E+10	1	-1E+10	1	-1E+10	1	-1E+10	1	-1E+10	1	-1E+10	1
4902549	118	C	11/20/2023	22:06	-132.862	47.456	0	1855.50	0	2.0290	0	34.5700	0	27.635	0	1831.887	0	44.4	4	13.4	4	-1E+10	1	-1E+10	1	-1E+10	1	-1E+10	1	-1E+10	1	-1E+10	1
4902549	118	C	11/20/2023	22:06	-132.862	47.456	0	1865.70	0	2.0180	0	34.5710	0	27.636	0	1841.913	0	44.9	4	13.5	4	-1E+10	1	-1E+10	1	-1E+10	1	-1E+10	1	-1E+10	1	-1E+10	1
4902549	118	C	11/20/2023	22:06	-132.862	47.456	0	1875.80	0	2.0070	0	34.5720	0	27.638	0	1851.841	0	45.6	4	13.7	4	-1E+10	1	-1E+10	1	-1E+10	1	-1E+10	1	-1E+10	1	-1E+10	1
4902549	118	C	11/20/2023	22:06	-132.862	47.456	0	1885.10	0	1.9980	0	34.5740	0	27.640	0	1860.981	0	45.9	4	13.8	4	-1E+10	1	-1E+10	1	-1E+10	1	-1E+10	1	-1E+10	1	-1E+10	1
4902549	118	C	11/20/2023	22:06	-132.862	47.456	0	1895.10	0	1.9900	0	34.5740	0	27.641	0	1870.809	0	46.4	4	14.0	4	-1E+10	1	-1E+10	1	-1E+10	1	-1E+10	1	-1E+10	1	-1E+10	1
4902549	118	C	11/20/2023	22:06	-132.862	47.456	0	1905.20	0	1.9830	0	34.5750	0	27.643	0	1880.735	0	47.0	4	14.2	4	-1E+10	1	-1E+10	1	-1E+10	1	-1E+10	1	-1E+10	1	-1E+10	1
4902549	118	C	11/20/2023	22:06	-132.862	47.456	0	1915.40	0	1.9760	0	34.5760	0	27.644	0	1890.759	0	47.7	4	14.4	4	-1E+10	1	-1E+10	1	-1E+10	1	-1E+10	1	-1E+10	1	-1E+10	1
4902549	118	C	11/20/2023	22:06	-132.862	47.456	0	1925.40	0	1.9660	0	34.5780	0	27.646	0	1900.586	0	48.4	4	14.6	4	-1E+10	1	-1E+10	1	-1E+10	1	-1E+10	1	-1E+10	1	-1E+10	1
4902549	118	C	11/20/2023	22:06	-132.862	47.456	0	1935.50	0	1.9590	0	34.5790	0	27.648	0	1910.510	0	49.1	4	14.8	4	-1E+10	1	-1E+10	1	-1E+10	1	-1E+10	1	-1E+10	1	-1E+10	1
4902549	118	C	11/20/2023	22:06	-132.862	47.456	0	1945.80	0	1.9490	0	34.5810	0	27.650	0	1920.631	0	49.7	4	15.0	4	-1E+10	1	-1E+10	1	-1E+10	1	-1E+10	1	-1E+10	1	-1E+10	1
4902549	118	C	11/20/2023	22:06	-132.862	47.456	0	1955.80	0	1.9440	0	34.5820	0	27.651	0	1930.456	0	50.1	4	15.1	4	-1E+10	1	-1E+10	1	-1E+10	1	-1E+10	1	-1E+10	1	-1E+10	1
4902549	118	C	11/20/2023	22:06	-132.862	47.456	0	1965.40	0	1.9410	0	34.5830	0	27.653	0	1939.888	0	50.4	4	15.2	4	-1E+10	1	-1E+10	1	-1E+10	1	-1E+10	1	-1E+10	1	-1E+10	1
4902549	118	C	11/20/2023	22:06	-132.862	47.456	0	1975.20	0	1.9400	0	34.5840	0	27.653	0	1949.516	0	50.7	4	15.3	4	-1E+10	1	-1E+10	1	-1E+10	1	-1E+10	1	-1E+10	1	-1E+10	1
4902549	118	C	11/20/2023	22:06	-132.862	47.456	0	1985.50	0	1.9340	0	34.5850	0	27.655	0	1959.635	0	51.2	4	15.4	4	-1E+10	1	-1E+10	1	-1E+10	1	-1E+10	1	-1E+10	1	-1E+10	1
4902549	118	C	11/20/2023	22:06	-132.862	47.456	0	1995.50	0	1.9320	0	34.5850	0	27.655	0	1969.458	0	51.5	4	15.5	4	-1E+10	1	-1E+10	1	-1E+10	1	-1E+10	1	-1E+10	1	-1E+10	1
4902549	118	C	11/20/2023	22:06	-132.862	47.456	0	2005.60	0	1.9290	0	34.5870	0	27.657	0	1979.380	0	52.2	4	15.7	4	-1E+10	1	-1E+10	1	-1E+10	1	-1E+10	1	-1E+10	1	-1E+10	1
4902549	118	C	11/20/2023	22:06	-132.862	47.456	0	2015.60	0	1.9250	0	34.5880	0	27.658	0	1989.202	0	52.6	4	15.8	4	-1E+10	1	-1E+10	1	-1E+10	1	-1E+10	1	-1E+10	1	-1E+10	1
4902549	118	C	11/20/2023	22:06	-132.862	47.456	0	2025.90	0	1.9210	0	34.5890	0	27.659	0	1999.319	0	52.9	4	15.9	4	-1E+10	1	-1E+10	1	-1E+10	1	-1E+10	1	-1E+10	1	-1E+10	1
4902549	118	C	11/20/2023	22:06	-132.862	47.456	0	2033.20	0	1.9190	0	34.5910	0	27.661	0	2006.489	0	52.8	4	15.9	4	-1E+10	1	-1E+10	1	-1E+10	1	-1E+10	1	-1E+10	1	-1E+10	1
4902549	118	C	11/20/2023	22:06	-132.862	47.456	0																										
4902549	119	C	12/01/2023	03:02	-132.886	47.535	0	0.30	0	11.0760	0	32.3220	0	24.678	0	0.297	0	258.1	4	94.4	4	-1E+10	1	-1E+10	1	-1E+10	1	-1E+10	1	-1E+10	1	-1E+10	1
4902549	119	C	12/01/2023	03:02	-132.886	47.535	0	0.90	0	11.0770	0	32.3210	0	24.677	0	0.892	0	258.2	4	94.4	4	-1E+10	1	-1E+10	1	-1E+10	1	-1E+10	1	-1E+10	1	-1E+10	1
4902549	119	C	12/01/2023	03:02	-132.886	47.535	0	2.00	0	11.0770	0	32.3210	0	24.677	0	1.983	0	258.2	4	94.4	4	-1E+10	1	-1E+10	1	-1E+10	1	-1E+10	1	-1E+10	1	-1E+10	1
4902549	119	C	12/01/2023	03:02	-132.886	47.535	0	3.00	0	11.0780	0	32.3210	0	24.677	0	2.975	0	258.1	4	94.4	4	-1E+10	1	-1E+10	1	-1E+10	1	-1E+10	1	-1E+10	1	-1E+10	1
4902549	119	C	12/01/2023	03:02	-132.886	47.535	0	4.10	0	11.0780	0	32.3220	0	24.678	0	4.066	0	258.0	4	94.3	4	-1E+10	1	-1E+10	1	-1E+10	1	-1E+10	1	-1E+10	1	-1E+10	1
4902549	119	C	12/01/2023	03:02	-132.886	47.535	0	4.90	0	11.0780	0	32.3220	0	24.678	0	4.859	0	258.0	4	94.3	4	-1E+10	1	-1E+10	1	-1E+10	1	-1E+10	1	-1E+10	1	-1E+10	1
4902549	119	C	12/01/2023	03:02	-132.886	47.535	0	5.80	0	11.0790	0	32.3220	0	24.677	0	5.751	0	258.1	4	94.4	4	-1E+10	1	-1E+10	1	-1E+10	1	-1E+10	1	-1E+10	1	-1E+10	1
4902549	119	C	12/01/2023	03:02	-132.886	47.535	0	6.70	0	11.0780	0	32.3230	0	24.678	0	6.644	0	258.0	4	94.3	4	-1E+10	1	-1E+10	1	-1E+10	1	-1E+10	1	-1E+10	1	-1E+10	1
4902549	119	C	12/01/2023	03:02	-132.886	47.535	0	7.90	0	11.0790	0	32.3230	0	24.678	0	7.834	0	258.0	4	94.3	4	-1E+10	1	-1E+10	1	-1E+10	1	-1E+10	1	-1E+10	1	-1E+10	1
4902549	119	C	12/01/2023	03:02	-132.886	47.535	0	8.90	0	11.0790	0	32.3230	0	24.678	0	8.826	0	258.0	4	94.3	4	-1E+10	1	-1E+10	1	-1E+10	1	-1E+10	1	-1E+10	1	-1E+10	1
4902549	119	C	12/01/2023	03:02	-132.886	47.535	0	9.90	0	11.0790	0	32.3220	0	24.678	0	9.817	0	258.0	4	94.3	4	-1E+10	1	-1E+10	1	-1E+10	1	-1E+10	1	-1E+10	1	-1E+10	1
4902549	119	C	12/01/2023	03:02	-132.886	47.535	0	11.10	0	11.0800	0	32.3230	0	24.678	0	11.007	0	257.9	4	94.3	4	-1E+10	1	-1E+10	1	-1E+10	1	-1E+10	1	-1E+10	1	-1E+10	1
4902549	119	C	12/01/2023	03:02	-132.886	47.535	0	11.90	0	11.0800	0	32.3220	0	24.677	0	11.800	0	258.0	4	94.3	4	-1E+10	1	-1E+10	1	-1E+10	1	-1E+10	1	-1E+10	1	-1E+10	1
4902549	119	C	12/01/2023	03:02	-132.886	47.535	0	12.70	0	11.0800	0	32.3230	0	24.678	0	12.594	0	257.9	4	94.3	4	-1E+10	1	-1E+10	1	-1E+10	1	-1E+10	1	-1E+10	1	-1E+10	1
4902549	119	C	12/01/2023	03:02	-132.886	47.535	0	13.90	0	11.0790	0	32.3230	0	24.678	0	13.783	0	257.9	4	94.3	4	-1E+10	1	-1E+10	1	-1E+10	1	-1E+10	1	-1E+10	1	-1E+10	1
4902549	119	C	12/01/2023	03:02	-132.886	47.535	0	14.90	0	11.0800	0	32.3220	0	24.677	0	14.775	0	257.9	4	94.3	4	-1E+10	1	-1E+10	1	-1E+10	1	-1E+10	1	-1E+10	1	-1E+10	1
4902549	119	C	12/01/2023	03:02	-132.886	47.535	0	15.90	0	11.0800	0	32.3220	0	24.677	0	15.767	0	257.9	4	94.3	4	-1E+10	1	-1E+10	1	-1E+10	1	-1E+10	1	-1E+10	1	-1E+10	1
4902549	119	C	12/01/2023	03:02	-132.886	47.535	0	17.10	0	11.0810	0	32.3230	0	24.678	0	16.957	0	257.9	4	94.3	4	-1E+10	1	-1E+10	1	-1E+10	1	-1E+10	1	-1E+10	1	-1E+10	1
4902549	119	C	12/01/2023	03:02	-132.886	47.535	0	18.10	0	11.0800	0	32.3220	0	24.678	0	17.948	0	257.8	4	94.3	4	-1E+10	1	-1E+10	1	-1E+10	1	-1E+10	1	-1E+10	1	-1E+10	1
4902549	119	C	12/01/2023	03:02	-132.886	47.535	0	19.00	0	11.0820	0	32.3230	0	24.678	0	18.840	0	257.8	4	94.3	4	-1E+10	1	-1E+10	1	-1E+10	1	-1E+10	1	-1E+10	1	-1E+10	1
4902549	119	C	12/01/2023	03:02	-132.886	47.535	0	20.00	0	11.0820	0	32.3230	0	24.678	0	19.832	0	257.8	4	94.2	4	-1E+10	1	-1E+10	1	-1E+10	1	-1E+10	1	-1E+10	1	-1E+10	1
4902549	119	C	12/01/2023	03:02	-132.886	47.535	0	21.00	0	11.0820	0	32.3240	0	24.679	0	20.824	0	257.9	4	94.3	4	-1E+10	1	-1E+10	1	-1E+10	1	-1E+10	1	-1E+10	1	-1E+10	1
4902549	119	C	12/01/2023	03:02	-132.886	47.535	0	21.80	0	11.0820	0	32.3240	0	24.679	0	21.617	0	257.8	4	94.3	4	-1E+10	1	-1E+10	1	-1E+10	1	-1E+10	1	-1E+10	1	-1E+10	1
4902549	119	C	12/01/2023	03:02	-132.886	47.535	0	22.90	0	11.0820	0	32.3230	0	24.678	0	22.708	0	257.7	4	94.2	4	-1E+10	1	-1E+10	1	-1E+10	1	-1E+10	1	-1E+10	1	-1E+10	1
4902549	119	C	12/01/2023	03:02	-132.886	47.535	0	24.10	0	11.0820	0	32.3240	0	24.679	0	23.897	0	257.8	4	94.3	4	-1E+10	1	-1E+10	1	-1E+10	1	-1E+10	1	-1E+10	1	-1E+10	1
4902549	119	C	12/01/2023	03:02	-132.886	47.535	0	24.80	0	11.0830	0	32.3240	0	24.679	0	24.591	0	257.7	4	94.2	4	-1E+10	1	-1E+10	1	-1E+10	1	-1E+10	1	-1E+10	1	-1E+10	1
4902549	119	C	12/01/2023	03:02	-132.886	47.535	0	25.90	0	11.0830	0	32.3230	0	24.678	0	25.682	0	257.7	4	94.2	4	-1E+10	1	-1E+10	1	-1E+10	1	-1E+10	1	-1E+10	1	-1E+10	1
4902549	119	C	12/01/2023	03:02	-132.886	47.535	0	27.00	0	11.0820	0	32.3230	0	24.678	0	26.773	0	257.7	4	94.2	4	-1E+10	1	-1E+10	1	-1E+10	1	-1E+10	1	-1E+10	1	-1E+10	1
4902549	119	C	12/01/2023	03:02	-132.886	47.535	0	28.00	0	11.0820	0	32.3230	0	24.678	0	27.764	0	257.8	4	94.3	4	-1E+10	1	-1E+10	1	-1E+10	1	-1E+10	1	-1E+10	1	-1E+10	1
4902549	119	C	12/01/2023	03:02	-132.886	47.535	0	28.90	0	11.0820	0	32.3230	0	24.678	0	28.657	0	257.8	4	94.2	4	-1E+10	1	-1E+10	1	-1E+10	1	-1E+10	1	-1E+10	1	-1E+10	1
4902549	119	C	12/01/2023	03:02	-132.886	47.535	0	29.90	0	11.0830	0	32.3230	0	24.678	0	29.648	0	257.7	4	94.2	4	-1E+10	1	-1E+10	1	-1E+10	1	-1E+10	1	-1E+10	1	-1E+10	1
4902549	119	C	12/01/2023	03:02	-132.886	47.535	0	31.20	0	11.0820	0	32.3230	0	24.678	0	30.937	0	257.6	4	94.2	4	-1E+10	1	-1E+10	1	-1E+10	1	-1E+10	1	-1E+10	1	-1E+10	1
4902549	119	C	12/01/2023	03:02	-132.886	47.535	0	31.90	0	11.0820	0	32.3220	0	24.677	0	31.631	0	257.7	4	94.2	4	-1E+10	1	-1E+10	1	-1E+10	1	-1E+10	1	-1E+10	1	-1E+10	1
4902549	119	C	12/01/2023	03:02	-132.886	47.535	0	32.90	0	11.0830	0	32.3230	0	24.678	0	32.623	0	257.6	4	94.2	4	-1E+10	1	-1E+10	1	-1E+10	1	-1E+10	1	-1E+10	1	-1E+10	1
4902549	119	C	12/01/2023	03:02	-132.886	47.535	0	34.00	0	11.0850	0	32.3240	0	24.679	0	33.713	0	257.5	4	94.2	4	-1E+10	1	-1E+10	1	-1E+10	1	-1E+10	1	-1E+10	1	-1E+10	1
4902549	119	C	12/01/2023	03:02	-132.886	47.535	0	35.10	0	11.0840	0	32.3240	0	24.679	0	34.804	0	257.6	4	94.2	4	-1E+10	1	-1E+10	1	-1E+10	1	-1E+10	1	-1E+10	1	-1E+10	1
4902549	119	C	12/01/2023	03:02	-132.886	47.535	0	36.10	0	11.0850	0	32.3250	0	24.679	0	35.795	0	257.5	4	94.2	4	-1E+10	1	-1E+10	1	-1E+10	1	-1E+10	1	-1E+10	1	-1E+10	1
4902549	119	C	12/01/2023	03:02	-132.886	47.535	0	37.10	0	11.0850	0	32.3240	0	24.679	0	36.787	0	257.4	4	94.1	4	-1E+10	1	-1E+10	1	-1E+10	1	-1E+10	1	-1E+10	1	-1E+10	1
4902549	119	C	12/01/2023	03:02	-132.886	47.535	0	38.00	0	11.0850	0	32.3250	0	24.679	0	37.679	0	257.4	4	94.1	4	-1E+10	1	-1E+10	1	-1E+10	1	-1E+10	1	-1E+10	1	-1E+10	1
4902549	119	C	12/01/2023	03:02	-132.886	47.535	0	39.00	0	11.0840	0	32.3230	0	24.678	0	38.671	0	257.4	4	94.1	4	-1E+10	1	-1E+10	1	-1E+10	1	-1E+10	1	-1E+10	1	-1E+10	1
4902549	119	C	12/01/2023	03:02	-132.886	47.535	0	40.10	0	11.0850	0	32.3250	0	24.679	0	39.761	0	257.2	4	94.1	4	-1E+10	1	-1E+10	1	-1E+10	1	-1E+10	1	-1E+10	1	-1E+10	1
4902549	119	C	12/01/2023	03:02	-132.886	47.535	0	40.80	0	11.0850	0	32.3250	0	24.679	0	40.455	0	257.3	4	94.1	4	-1E+10	1	-1E+10	1	-1E+10	1	-1E+10	1	-1E+10	1	-1E+10	1
4902549	119	C	12/01/2023	03:02	-132.886	47.535	0	41.80	0	11.0880	0	32.3260	0	24.680	0	41.447	0	257.2	4	94.0	4	-1E+10	1	-1E+10	1	-1E+10	1	-1E+10	1	-1E+10	1	-1E+10	1
4902549	119	C	12/01/2023	03:02	-132.886	47.535	0	43.00	0	11.0880	0	32.3260	0	24.680	0	42.637	0	257.0	4	94.0	4	-1E+10	1	-1E+10	1	-1E+10	1	-1E+10	1	-1E+10	1	-1E+10	1
4902549	119	C	12/01/2023	03:02	-132.886	47.535	0	44.00	0	11.0880	0	32.3260	0	24.680	0	43.628	0	257.0	4	94.0	4	-1E+10	1	-1E+10	1	-1E+10	1	-1E+10	1	-1E+10	1	-1E+10	1
4902549	119	C	12/01/2023	03:02	-132.886	47.535	0	45.20	0	11.0900	0	32.3260	0	24.679	0	44.818	0	256.8	4	93.9	4	-1E+10	1	-1E+10	1	-1E+10	1	-1E+10	1	-1E+10	1	-1E+10	1
4902549	119	C	12/01/2023	03:02	-132.886	47.535	0	45.90	0	11.0900	0	32.3270	0	24.680	0	45.512	0	256.7	4	93.9	4	-1E+10	1	-1E+10	1	-1E+10	1	-1E+10	1	-1E+10	1	-1E+10	1
4902549	119	C	12/01/2023	03:02	-132.886	47.535	0	47.00	0	11.0890	0	32.3260	0	24.680	0	46.602	0	256.4	4	93.8	4	-1E+10	1	-1E+10	1	-1E+10	1	-1E+10	1	-1E+10	1	-1E+10	1
4902549	119	C	12/01/2023	03:02	-132.886	47.535	0	48.10	0	11.0900	0	32.3260	0	24.680	0	47.693	0	256.1	4	93.7	4	-1E+10	1	-1E+10	1	-1E+10	1	-1E+10	1	-1E+10	1	-1E+10	1
4902549	119	C	12/01/2023	03:02	-132.886	47.535	0	48.80	0	11.0910	0	32.3260	0	24.679	0	48.387	0	256.2	4	93.7	4	-1E+10	1	-1E+10	1	-1E+10	1	-1E+10	1	-1E+10	1	-1E+10	1
4902549	119	C	12/01/2023	03:02	-132.886	47.535	0	49.80	0	11.0900	0	32.3270	0	24.680	0	49.378	0	255.8	4	93.5	4	-1E+10	1	-1E+10	1	-1E+10	1	-1E+10	1	-1E+10	1	-1E+10	1
4902549	119	C	12/01/2023	03:02	-132.886	47.535	0	51.00	0	11.0900	0	32.3270	0	24.680	0	50.568	0	255.2	4	93.3	4	-1E+10	1	-1E+10	1	-1E+10	1	-1E+10	1	-1E+10	1	-1E+10	1
4902549	119	C	12/01/2023	03:02	-132.886	47.535	0	52.10	0	11.0900	0	32.3270	0	24.680	0	51.658	0	254.6	4	93.1	4	-1E+10	1	-1E+10	1	-1E+10	1	-1E+10	1	-1E+10	1	-1E+10	1
4902549	119	C	12/01/2023	03:02	-132.886	47.535	0	53.10	0	11.0900	0	32.3260	0	24.680	0	52.650	0	253.9	4	92.8	4	-1E+10	1	-1E+10	1	-1E+10	1	-1E+10	1	-1E+10	1	-1E+10	1
4902549	119	C	12/01/2023	03:02	-132.886	47.535	0	54.00	0	11.0840	0	32.3250	0	24.680	0	53.542	0	252.7	4	92.4	4	-1E+10	1	-1E+10	1	-1E+10	1	-1E+10	1	-1E+10	1	-1E+10	1
4902549	119	C	12/01/2023	03:02	-132.886	47.535	0	55.00	0	11.0770	0	32.3070	0	24.667	0	54.534	0	250.8	4	91.7	4	-1E+10	1	-1E+10	1	-1E+10	1	-1E+10	1	-1E+10	1	-1E+10	1
4902549	119	C	12/01/2023	03:02	-132.886	47.535	0	55.90	0	10.3670	0	32.3910	0	24.855	0	55.426	0	252.5	4	90.9	4	-1E+10	1	-1E+10	1	-1E+10	1	-1E+10	1	-1E+10	1	-1E+10	1
4902549	119	C	12/01/2023	03:02	-132.886	47.535	0	56.90	0	10.1050	0	32.4090	0	24.913	0	56.417	0	252.9	4	90.6	4	-1E+10	1	-1E+10	1	-1E+10	1	-1E+10	1	-1E+10	1	-1E+10	1
4902549	119	C	12/01/2023	03:02	-132.886	47.535	0	58.00	0	9.8720	0	32.4330	0	24.971	0	57.508	0	253.0	4	90.2	4	-1E+10	1	-1E+10	1	-1E+10	1	-1E+10	1	-1E+10	1	-1E+10	1
4902549	119	C	12/01/2023	03:02	-132.886	47.535	0	59.20	0	9.6370	0	32.4330	0	25.009	0	58.697	0	253.8	4	90.0	4	-1E+10	1	-1E+10	1	-1E+10	1	-1E+10	1	-1E+10	1	-1E+10	1
4902549	119	C	12/01/2023	03:02	-132.886	47.535	0	59.80	0	9.4260	0	32.4650	0	25.068	0	59.292	0	254.5	4	89.9	4	-1E+10	1	-1E+10	1	-1E+10	1	-1E+10	1	-1E+10	1	-1E+10	1
4902549	119	C	12/01/2023	03:02	-132.886	47.535	0	60.80	0	9.1730	0	32.4720	0	25.113	0	60.283	0	255.4	4	89.7	4	-1E+10	1	-1E+10	1	-1E+10	1	-1E+10	1	-1E+10	1	-1E+10	1
4902549	119	C	12/01/2023	03:02	-132.886	47.535	0	62.00	0	8.9020	0	32.4900	0	25.170	0	61.473	0	255.9	4	89.4	4	-1E+10	1	-1E+10	1	-1E+10	1	-1E+10	1	-1E+10	1	-1E+10	1
4902549	119	C	12/01/2023	03:02	-132.886	47.535	0	63.10	0	8.7040	0	32.5110	0	25.216	0	62.564	0	256.5	4	89.2	4	-1E+10	1	-1E+10	1	-1E+10	1	-1E+10	1	-1E+10	1	-1E+10	1
4902549	119	C	12/01/2023	03:02	-132.886	47.535	0	64.00	0	8.6500	0	32.5210	0	25.232	0	63.456	0	256.4	4	89.0	4	-1E+10	1	-1E+10	1	-1E+10	1	-1E+10	1	-1E+10	1	-1E+10	1
4902549	119	C	12/01/2023	03:02	-132.886	47.535	0	65.10	0	8.5470	0	32.5210	0	25.248	0	64.546	0	256.3	4	88.8	4	-1E+10	1	-1E+10	1	-1E+10	1	-1E+10	1	-1E+10	1	-1E+10	1
4902549	119	C	12/01/2023	03:02	-132.886	47.535	0	66.10	0	8.4160	0	32.5270	0	25.272	0	65.538	0	256.6	4	88.7	4	-1E+10	1	-1E+10	1	-1E+10	1	-1E+10	1	-1E+10	1	-1E+10	1
4902549	119	C	12/01/2023	03:02	-132.886	47.535	0	67.00	0	8.2950	0	32.5350	0	25.297	0	66.430	0	257.1	4	88.6	4	-1E+10	1	-1E+10	1	-1E+10	1	-1E+10	1	-1E+10	1	-1E+10	1
4902549	119	C	12/01/2023	03:02	-132.886	47.535	0	67.90	0	8.2600	0	32.5470	0	25.311	0	67.322	0	257.1	4	88.5	4	-1E+10	1	-1E+10	1	-1E+10	1	-1E+10	1	-1E+10	1	-1E+10	1
4902549	119	C	12/01/2023	03:02	-132.886	47.535	0	68.90	0	8.2080	0	32.5470	0	25.319	0	68.313	0	257.2	4	88.5	4	-1E+10	1	-1E+10	1	-1E+10	1	-1E+10	1	-1E+10	1	-1E+10	1
4902549	119	C	12/01/2023	03:02	-132.886	47.535	0	69.90	0	8.1690	0	32.5450	0	25.323	0	69.305	0	257.2	4	88.4	4	-1E+10	1	-1E+10	1	-1E+10	1	-1E+10	1	-1E+10	1	-1E+10	1
4902549	119	C	12/01/2023	03:02	-132.886	47.535	0	70.90	0	8.1490	0	32.5460	0	25.327	0	70.296	0	257.2	4	88.3	4	-1E+10	1	-1E+10	1	-1E+10	1	-1E+10	1	-1E+10	1	-1E+10	1
4902549	119	C	12/01/2023	03:02	-132.886	47.535	0	71.90	0	8.1300	0	32.5470	0	25.330	0	71.287	0	257.1	4	88.3	4	-1E+10	1	-1E+10	1	-1E+10	1	-1E+10	1	-1E+10	1	-1E+10	1
4902549	119	C	12/01/2023	03:02	-132.886	47.535	0	72.90	0	8.1240	0	32.5470	0	25.331	0	72.279	0	256.9	4	88.2	4	-1E+10	1	-1E+10	1	-1E+10	1	-1E+10	1	-1E+10	1	-1E+10	1
4902549	119	C	12/01/2023	03:02	-132.886	47.535	0	74.00	0	8.0990	0	32.5490	0	25.336	0	73.369	0	256.7	4	88.1	4	-1E+10	1	-1E+10	1	-1E+10	1	-1E+10	1	-1E+10	1	-1E+10	1
4902549	119	C	12/01/2023	03:02	-132.886	47.535	0	75.20	0	8.0690	0	32.5500	0	25.341	0	74.559	0	256.8	4	88.1	4	-1E+10	1	-1E+10	1	-1E+10	1	-1E+10	1	-1E+10	1	-1E+10	1
4902549	119	C	12/01/2023	03:02	-132.886	47.535	0	76.10	0	8.0110	0	32.5490	0	25.349	0	75.451	0	256.9	4	88.0	4	-1E+10	1	-1E+10	1	-1E+10	1	-1E+10	1	-1E+10	1	-1E+10	1
4902549	119	C	12/01/2023	03:02	-132.886	47.535	0	77.10	0	7.9720	0	32.5510	0	25.356	0	76.442	0	257.0	4	87.9	4	-1E+10	1	-1E+10	1	-1E+10	1	-1E+10	1	-1E+10	1	-1E+10	1
4902549	119	C	12/01/2023	03:02	-132.886	47.535	0	77.90	0	7.9970	0	32.5570	0	25.357	0	77.235	0	256.8	4	87.9	4	-1E+10	1	-1E+10	1	-1E+10	1	-1E+10	1	-1E+10	1	-1E+10	1
4902549	119	C	12/01/2023	03:02	-132.886	47.535	0	79.20	0	8.0110	0	32.5610	0	25.359	0	78.524	0	256.5	4	87.9	4	-1E+10	1	-1E+10	1	-1E+10	1	-1E+10	1	-1E+10	1	-1E+10	1
4902549	119	C	12/01/2023	03:02	-132.886	47.535	0	80.00	0	7.9660	0	32.5620	0	25.366	0	79.317	0	256.5	4	87.8	4	-1E+10	1	-1E+10	1	-1E+10	1	-1E+10	1	-1E+10	1	-1E+10	1
4902549	119	C	12/01/2023	03:02	-132.886	47.535	0	81.00	0	7.9230	0	32.5610	0	25.371	0	80.308	0	256.6	4	87.7	4	-1E+10	1	-1E+10	1	-1E+10	1	-1E+10	1	-1E+10	1	-1E+10	1
4902549	119	C	12/01/2023	03:02	-132.886	47.535	0	82.10	0	7.8990	0	32.5630	0	25.376	0	81.398	0	256.5	4	87.6	4	-1E+10	1	-1E+10	1	-1E+10	1	-1E+10	1	-1E+10	1	-1E+10	1
4902549	119	C	12/01/2023	03:02	-132.886	47.535	0	83.00	0	7.8780	0	32.5660	0	25.382	0	82.290	0	263.0	4	89.8	4	-1E+10	1	-1E+10	1	-1E+10	1	-1E+10	1	-1E+10	1	-1E+10	1
4902549	119	C	12/01/2023	03:02	-132.886	47.535	0	83.90	0	7.8450	0	32.5630	0	25.384	0	83.183	0	263.1	4	89.8	4	-1E+10	1	-1E+10	1	-1E+10	1	-1E+10	1	-1E+10	1	-1E+10	1
4902549	119	C	12/01/2023	03:02	-132.886	47.535	0	85.20	0	7.8240	0	32.5640	0	25.388	0	84.471	0	262.9	4	89.7	4	-1E+10	1	-1E+10	1	-1E+10	1	-1E+10	1	-1E+10	1	-1E+10	1
4902549	119	C	12/01/2023	03:02	-132.886	47.535	0	85.80	0	7.7990	0	32.5590	0	25.387	0	85.066	0	263.0	4	89.6	4	-1E+10	1	-1E+10	1	-1E+10	1	-1E+10	1	-1E+10	1	-1E+10	1
4902549	119	C	12/01/2023	03:02	-132.886	47.535	0	87.10	0	7.7620	0	32.5580	0	25.392	0	86.355	0	263.0	4	89.6	4	-1E+10	1	-1E+10	1	-1E+10	1	-1E+10	1	-1E+10	1	-1E+10	1
4902549	119	C	12/01/2023	03:02	-132.886	47.535	0	88.20	0	7.7550	0	32.5580	0	25.393	0	87.445	0	262.6	4	89.4	4	-1E+10	1	-1E+10	1	-1E+10	1	-1E+10	1	-1E+10	1	-1E+10	1
4902549	119	C	12/01/2023	03:02	-132.886	47.535	0	89.00	0	7.7540	0	32.5580	0	25.393	0	88.238	0	262.3	4	89.3	4	-1E+10	1	-1E+10	1	-1E+10	1	-1E+10	1	-1E+10	1	-1E+10	1
4902549	119	C	12/01/2023	03:02	-132.886	47.535	0	89.90	0	7.7280	0	32.5640	0	25.402	0	89.130	0	262.0	4	89.2	4	-1E+10	1	-1E+10	1	-1E+10	1	-1E+10	1	-1E+10	1	-1E+10	1
4902549	119	C	12/01/2023	03:02	-132.886	47.535	0	90.90	0	7.7020	0	32.5670	0	25.408	0	90.121	0	261.7	4	89.0	4	-1E+10	1	-1E+10	1	-1E+10	1	-1E+10	1	-1E+10	1	-1E+10	1
4902549	119	C	12/01/2023	03:02	-132.886	47.535	0	92.00	0	7.7020	0	32.5660	0	25.407	0	91.212	0	261.0	4	88.8	4	-1E+10	1	-1E+10	1	-1E+10	1	-1E+10	1	-1E+10	1	-1E+10	1
4902549	119	C	12/01/2023	03:02	-132.886	47.535	0	93.30	0	7.7040	0	32.5700	0	25.410	0	92.500	0	260.1	4	88.5	4	-1E+10	1	-1E+10	1	-1E+10	1	-1E+10	1	-1E+10	1	-1E+10	1
4902549	119	C	12/01/2023	03:02	-132.886	47.535	0	94.10	0	7.6690	0	32.5740	0	25.418	0	93.293	0	259.6	4	88.2	4	-1E+10	1	-1E+10	1	-1E+10	1	-1E+10	1	-1E+10	1	-1E+10	1
4902549	119	C	12/01/2023	03:02	-132.886	47.535	0	94.80	0	7.6450	0	32.5750	0	25.422	0	93.987	0	259.0	4	88.0	4	-1E+10	1	-1E+10	1	-1E+10	1	-1E+10	1	-1E+10	1	-1E+10	1
4902549	119	C	12/01/2023	03:02	-132.886	47.535	0	95.90	0	7.6170	0	32.5790	0	25.429	0	95.077	0	257.8	4	87.5	4	-1E+10	1	-1E+10	1	-1E+10	1	-1E+10	1	-1E+10	1	-1E+10	1
4902549	119	C	12/01/2023	03:02	-132.886	47.535	0	97.10	0	7.5840	0	32.5940	0	25.445	0	96.267	0	256.8	4	87.1	4	-1E+10	1	-1E+10	1	-1E+10	1	-1E+10	1	-1E+10	1	-1E+10	1
4902549	119	C	12/01/2023	03:02	-132.886	47.535	0	97.90	0	7.5590	0	32.6040	0	25.457	0	97.060	0	256.1	4	86.8	4	-1E+10	1	-1E+10	1	-1E+10	1	-1E+10	1	-1E+10	1	-1E+10	1
4902549	119	C	12/01/2023	03:02	-132.886	47.535	0	99.20	0	7.5380	0	32.6190	0	25.472	0	98.348	0	254.7	4	86.3	4	-1E+10	1	-1E+10	1	-1E+10	1	-1E+10	1	-1E+10	1	-1E+10	1
4902549	119	C	12/01/2023	03:02	-132.886	47.535	0	99.80	0	7.5340	0	32.6230	0	25.475	0	98.943	0	254.0	4	86.1	4	-1E+10	1	-1E+10	1	-1E+10	1	-1E+10	1	-1E+10	1	-1E+10	1
4902549	119	C	12/01/2023	03:02	-132.886	47.535	0	101.10	0	7.5090	0	32.6430	0	25.494	0	100.231	0	252.6	4	85.6	4	-1E+10	1	-1E+10	1	-1E+10	1	-1E+10	1	-1E+10	1	-1E+10	1
4902549	119	C	12/01/2023	03:02	-132.886	47.535	0	102.00	0	7.5080	0	32.6500	0	25.500	0	101.123	0	251.6	4	85.3	4	-1E+10	1	-1E+10	1	-1E+10	1	-1E+10	1	-1E+10	1	-1E+10	1
4902549	119	C	12/01/2023	03:02	-132.886	47.535	0	102.90	0	7.4990	0	32.6540	0	25.505	0	102.015	0	250.7	4	84.9	4	-1E+10	1	-1E+10	1	-1E+10	1	-1E+10	1	-1E+10	1	-1E+10	1
4902549	119	C	12/01/2023	03:02	-132.886	47.535	0	103.80	0	7.4920	0	32.6570	0	25.508	0	102.907	0	249.3	4	84.4	4	-1E+10	1	-1E+10	1	-1E+10	1	-1E+10	1	-1E+10	1	-1E+10	1
4902549	119	C	12/01/2023	03:02	-132.886	47.535	0	104.70	0	7.4910	0	32.6650	0	25.514	0	103.800	0	247.7	4	83.9	4	-1E+10	1	-1E+10	1	-1E+10	1	-1E+10	1	-1E+10	1	-1E+10	1
4902549	119	C	12/01/2023	03:02	-132.886	47.535	0	106.10	0	7.4770	0	32.6910	0	25.537	0	105.187	0	245.4	4	83.1	4	-1E+10	1	-1E+10	1	-1E+10	1	-1E+10	1	-1E+10	1	-1E+10	1
4902549	119	C	12/01/2023	03:02	-132.886	47.535	0	107.00	0	7.4340	0	32.7280	0	25.572	0	106.079	0	244.3	4	82.7	4	-1E+10	1	-1E+10	1	-1E+10	1	-1E+10	1	-1E+10	1	-1E+10	1
4902549	119	C	12/01/2023	03:02	-132.886	47.535	0	108.10	0	7.4240	0	32.7550	0	25.594	0	107.169	0	243.2	4	82.3	4	-1E+10	1	-1E+10	1	-1E+10	1	-1E+10	1	-1E+10	1	-1E+10	1
4902549	119	C	12/01/2023	03:02	-132.886	47.535	0	109.10	0	7.4200	0	32.7640	0	25.602	0	108.161	0	241.9	4	81.9	4	-1E+10	1	-1E+10	1	-1E+10	1	-1E+10	1	-1E+10	1	-1E+10	1
4902549	119	C	12/01/2023	03:02	-132.886	47.535	0	110.00	0	7.4190	0	32.7710	0	25.608	0	109.053	0	240.9	4	81.5	4	-1E+10	1	-1E+10	1	-1E+10	1	-1E+10	1	-1E+10	1	-1E+10	1
4902549	119	C	12/01/2023	03:02	-132.886	47.535	0	110.70	0	7.4140	0	32.7750	0	25.612	0	109.746	0	239.6	4	81.1	4	-1E+10	1	-1E+10	1	-1E+10	1	-1E+10	1	-1E+10	1	-1E+10	1
4902549	119	C	12/01/2023	03:02	-132.886	47.535	0	111.80	0	7.4110	0	32.7820	0	25.618	0	110.837	0	237.8	4	80.5	4	-1E+10	1	-1E+10	1	-1E+10	1	-1E+10	1	-1E+10	1	-1E+10	1
4902549	119	C	12/01/2023	03:02	-132.886	47.535	0	113.00	0	7.3890	0	32.8120	0	25.644	0	112.026	0	235.9	4	79.8	4	-1E+10	1	-1E+10	1	-1E+10	1	-1E+10	1	-1E+10	1	-1E+10	1
4902549	119	C	12/01/2023	03:02	-132.886	47.535	0	113.90	0	7.3480	0	32.8540	0	25.683	0	112.918	0	234.9	4	79.4	4	-1E+10	1	-1E+10	1	-1E+10	1	-1E+10	1	-1E+10	1	-1E+10	1
4902549	119	C	12/01/2023	03:02	-132.886	47.535	0	114.80	0	7.2940	0	32.9000	0	25.726	0	113.810	0	234.2	4	79.1	4	-1E+10	1	-1E+10	1	-1E+10	1	-1E+10	1	-1E+10	1	-1E+10	1
4902549	119	C	12/01/2023	03:02	-132.886	47.535	0	115.80	0	7.2550	0	32.9310	0	25.756	0	114.801	0	233.7	4	78.9	4	-1E+10	1	-1E+10	1	-1E+10	1	-1E+10	1	-1E+10	1	-1E+10	1
4902549	119	C	12/01/2023	03:02	-132.886	47.535	0	116.80	0	7.1970	0	32.9720	0	25.796	0	115.792	0	233.4	4	78.7	4	-1E+10	1	-1E+10	1	-1E+10	1	-1E+10	1	-1E+10	1	-1E+10	1
4902549	119	C	12/01/2023	03:02	-132.886	47.535	0	117.90	0	7.0810	0	33.0050	0	25.838	0	116.882	0	233.4	4	78.5	4	-1E+10	1	-1E+10	1	-1E+10	1	-1E+10	1	-1E+10	1	-1E+10	1
4902549	119	C	12/01/2023	03:02	-132.886	47.535	0	119.00	0	7.0040	0	33.0320	0	25.870	0	117.972	0	233.1	4	78.3	4	-1E+10	1	-1E+10	1	-1E+10	1	-1E+10	1	-1E+10	1	-1E+10	1
4902549	119	C	12/01/2023	03:02	-132.886	47.535	0	120.10	0	6.9300	0	33.0570	0	25.899	0	119.063	0	232.8	4	78.1	4	-1E+10	1	-1E+10	1	-1E+10	1	-1E+10	1	-1E+10	1	-1E+10	1
4902549	119	C	12/01/2023	03:02	-132.886	47.535	0	120.90	0	6.9210	0	33.0580	0	25.901	0	119.855	0	232.4	4	77.9	4	-1E+10	1	-1E+10	1	-1E+10	1	-1E+10	1	-1E+10	1	-1E+10	1
4902549	119	C	12/01/2023	03:02	-132.886	47.535	0	122.00	0	6.9000	0	33.0660	0	25.911	0	120.946	0	231.8	4	77.7	4	-1E+10	1	-1E+10	1	-1E+10	1	-1E+10	1	-1E+10	1	-1E+10	1
4902549	119	C	12/01/2023	03:02	-132.886	47.535	0	123.20	0	6.8830	0	33.0680	0	25.914	0	122.135	0	231.0	4	77.4	4	-1E+10	1	-1E+10	1	-1E+10	1	-1E+10	1	-1E+10	1	-1E+10	1
4902549	119	C	12/01/2023	03:02	-132.886	47.535	0	124.00	0	6.7860	0	33.1140	0	25.964	0	122.928	0	231.0	4	77.3	4	-1E+10	1	-1E+10	1	-1E+10	1	-1E+10	1	-1E+10	1	-1E+10	1
4902549	119	C	12/01/2023	03:02	-132.886	47.535	0	124.80	0	6.7440	0	33.1310	0	25.982	0	123.721	0	230.7	4	77.1	4	-1E+10	1	-1E+10	1	-1E+10	1	-1E+10	1	-1E+10	1	-1E+10	1
4902549	119	C	12/01/2023	03:02	-132.886	47.535	0	126.00	0	6.6130	0	33.1820	0	26.040	0	124.910	0	230.7	4	76.9	4	-1E+10	1	-1E+10	1	-1E+10	1	-1E+10	1	-1E+10	1	-1E+10	1
4902549	119	C	12/01/2023	03:02	-132.886	47.535	0	127.20	0	6.6030	0	33.1850	0	26.044	0	126.099	0	230.1	4	76.7	4	-1E+10	1	-1E+10	1	-1E+10	1	-1E+10	1	-1E+10	1	-1E+10	1
4902549	119	C	12/01/2023	03:02	-132.886	47.535	0	128.10	0	6.6020	0	33.1860	0	26.044	0	126.991	0	229.6	4	76.5	4	-1E+10	1	-1E+10	1	-1E+10	1	-1E+10	1	-1E+10	1	-1E+10	1
4902549	119	C	12/01/2023	03:02	-132.886	47.535	0	128.80	0	6.6000	0	33.1870	0	26.046	0	127.685	0	228.9	4	76.3	4	-1E+10	1	-1E+10	1	-1E+10	1	-1E+10	1	-1E+10	1	-1E+10	1
4902549	119	C	12/01/2023	03:02	-132.886	47.535	0	129.90	0	6.5940	0	33.1880	0	26.047	0	128.775	0	227.9	4	75.9	4	-1E+10	1	-1E+10	1	-1E+10	1	-1E+10	1	-1E+10	1	-1E+10	1
4902549	119	C	12/01/2023	03:02	-132.886	47.535	0	131.10	0	6.5790	0	33.1950	0	26.055	0	129.964	0	226.7	4	75.5	4	-1E+10	1	-1E+10	1	-1E+10	1	-1E+10	1	-1E+10	1	-1E+10	1
4902549	119	C	12/01/2023	03:02	-132.886	47.535	0	131.80	0	6.5480	0	33.2040	0	26.066	0	130.658	0	225.8	4	75.1	4	-1E+10	1	-1E+10	1	-1E+10	1	-1E+10	1	-1E+10	1	-1E+10	1
4902549	119	C	12/01/2023	03:02	-132.886	47.535	0	133.00	0	6.4410	0	33.2470	0	26.113	0	131.847	0	224.7	4	74.6	4	-1E+10	1	-1E+10	1	-1E+10	1	-1E+10	1	-1E+10	1	-1E+10	1
4902549	119	C	12/01/2023	03:02	-132.886	47.535	0	134.30	0	6.3500	0	33.3190	0	26.182	0	133.135	0	223.7	4	74.2	4	-1E+10	1	-1E+10	1	-1E+10	1	-1E+10	1	-1E+10	1	-1E+10	1
4902549	119	C	12/01/2023	03:02	-132.886	47.535	0	135.20	0	6.3020	0	33.3340	0	26.200	0	134.027	0	223.3	4	74.0	4	-1E+10	1	-1E+10	1	-1E+10	1	-1E+10	1	-1E+10	1	-1E+10	1
4902549	119	C	12/01/2023	03:02	-132.886	47.535	0	136.00	0	6.3350	0	33.3600	0	26.216	0	134.820	0	222.5	4	73.8	4	-1E+10	1	-1E+10	1	-1E+10	1	-1E+10	1	-1E+10	1	-1E+10	1
4902549	119	C	12/01/2023	03:02	-132.886	47.535	0	136.90	0	6.2690	0	33.3690	0	26.232	0	135.712	0	222.3	4	73.6	4	-1E+10	1	-1E+10	1	-1E+10	1	-1E+10	1	-1E+10	1	-1E+10	1
4902549	119	C	12/01/2023	03:02	-132.886	47.535	0	137.80	0	6.2250	0	33.3940	0	26.257	0	136.604	0	221.9	4	73.4	4	-1E+10	1	-1E+10	1	-1E+10	1	-1E+10	1	-1E+10	1	-1E+10	1
4902549	119	C	12/01/2023	03:02	-132.886	47.535	0	138.70	0	6.2150	0	33.3950	0	26.259	0	137.496	0	221.7	4	73.3	4	-1E+10	1	-1E+10	1	-1E+10	1	-1E+10	1	-1E+10	1	-1E+10	1
4902549	119	C	12/01/2023	03:02	-132.886	47.535	0	139.90	0	6.1880	0	33.4040	0	26.270	0	138.685	0	221.1	4	73.1	4	-1E+10	1	-1E+10	1	-1E+10	1	-1E+10	1	-1E+10	1	-1E+10	1
4902549	119	C	12/01/2023	03:02	-132.886	47.535	0	141.30	0	6.1820	0	33.4100	0	26.275	0	140.072	0	220.4	4	72.8	4	-1E+10	1	-1E+10	1	-1E+10	1	-1E+10	1	-1E+10	1	-1E+10	1
4902549	119	C	12/01/2023	03:02	-132.886	47.535	0	142.20	0	6.1920	0	33.4220	0	26.283	0	140.964	0	219.9	4	72.7	4	-1E+10	1	-1E+10	1	-1E+10	1	-1E+10	1	-1E+10	1	-1E+10	1
4902549	119	C	12/01/2023	03:02	-132.886	47.535	0	143.10	0	6.1840	0	33.4230	0	26.285	0	141.856	0	219.3	4	72.5	4	-1E+10	1	-1E+10	1	-1E+10	1	-1E+10	1	-1E+10	1	-1E+10	1
4902549	119	C	12/01/2023	03:02	-132.886	47.535	0	144.00	0	6.1770	0	33.4250	0	26.288	0	142.748	0	218.8	4	72.3	4	-1E+10	1	-1E+10	1	-1E+10	1	-1E+10	1	-1E+10	1	-1E+10	1
4902549	119	C	12/01/2023	03:02	-132.886	47.535	0	145.00	0	6.1630	0	33.4510	0	26.310	0	143.739	0	218.4	4	72.2	4	-1E+10	1	-1E+10	1	-1E+10	1	-1E+10	1	-1E+10	1	-1E+10	1
4902549	119	C	12/01/2023	03:02	-132.886	47.535	0	145.90	0	6.1470	0	33.4610	0	26.320	0	144.631	0	218.0	4	72.0	4	-1E+10	1	-1E+10	1	-1E+10	1	-1E+10	1	-1E+10	1	-1E+10	1
4902549	119	C	12/01/2023	03:02	-132.886	47.535	0	146.80	0	6.1360	0	33.4590	0	26.320	0	145.523	0	217.6	4	71.9	4	-1E+10	1	-1E+10	1	-1E+10	1	-1E+10	1	-1E+10	1	-1E+10	1
4902549	119	C	12/01/2023	03:02	-132.886	47.535	0	147.80	0	6.1330	0	33.4620	0	26.322	0	146.514	0	217.2	4	71.7	4	-1E+10	1	-1E+10	1	-1E+10	1	-1E+10	1	-1E+10	1	-1E+10	1
4902549	119	C	12/01/2023	03:02	-132.886	47.535	0	148.70	0	6.0850	0	33.4660	0	26.332	0	147.405	0	216.9	4	71.6	4	-1E+10	1	-1E+10	1	-1E+10	1	-1E+10	1	-1E+10	1	-1E+10	1
4902549	119	C	12/01/2023	03:02	-132.886	47.535	0	149.70	0	6.0950	0	33.4710	0	26.334	0	148.396	0	216.4	4	71.4	4	-1E+10	1	-1E+10	1	-1E+10	1	-1E+10	1	-1E+10	1	-1E+10	1
4902549	119	C	12/01/2023	03:02	-132.886	47.535	0	150.50	0	6.1110	0	33.4800	0	26.339	0	149.189	0	215.7	4	71.2	4	-1E+10	1	-1E+10	1	-1E+10	1	-1E+10	1	-1E+10	1	-1E+10	1
4902549	119	C	12/01/2023	03:02	-132.886	47.535	0	152.00	0	6.1070	0	33.4930	0	26.350	0	150.675	0	215.1	4	71.0	4	-1E+10	1	-1E+10	1	-1E+10	1	-1E+10	1	-1E+10	1	-1E+10	1
4902549	119	C	12/01/2023	03:02	-132.886	47.535	0	153.10	0	6.0970	0	33.5000	0	26.357	0	151.765	0	214.4	4	70.8	4	-1E+10	1	-1E+10	1	-1E+10	1	-1E+10	1	-1E+10	1	-1E+10	1
4902549	119	C	12/01/2023	03:02	-132.886	47.535	0	153.80	0	6.0960	0	33.5030	0	26.360	0	152.459	0	213.9	4	70.6	4	-1E+10	1	-1E+10	1	-1E+10	1	-1E+10	1	-1E+10	1	-1E+10	1
4902549	119	C	12/01/2023	03:02	-132.886	47.535	0	155.00	0	6.1010	0	33.5050	0	26.361	0	153.648	0	213.1	4	70.4	4	-1E+10	1	-1E+10	1	-1E+10	1	-1E+10	1	-1E+10	1	-1E+10	1
4902549	119	C	12/01/2023	03:02	-132.886	47.535	0	156.20	0	6.1150	0	33.5110	0	26.364	0	154.837	0	212.2	4	70.1	4	-1E+10	1	-1E+10	1	-1E+10	1	-1E+10	1	-1E+10	1	-1E+10	1
4902549	119	C	12/01/2023	03:02	-132.886	47.535	0	157.00	0	6.1100	0	33.5170	0	26.369	0	155.630	0	211.7	4	69.9	4	-1E+10	1	-1E+10	1	-1E+10	1	-1E+10	1	-1E+10	1	-1E+10	1
4902549	119	C	12/01/2023	03:02	-132.886	47.535	0	157.90	0	6.1110	0	33.5200	0	26.371	0	156.522	0	211.1	4	69.7	4	-1E+10	1	-1E+10	1	-1E+10	1	-1E+10	1	-1E+10	1	-1E+10	1
4902549	119	C	12/01/2023	03:02	-132.886	47.535	0	158.70	0	6.1120	0	33.5230	0	26.373	0	157.315	0	210.6	4	69.6	4	-1E+10	1	-1E+10	1	-1E+10	1	-1E+10	1	-1E+10	1	-1E+10	1
4902549	119	C	12/01/2023	03:02	-132.886	47.535	0	160.00	0	6.1170	0	33.5290	0	26.378	0	158.603	0	209.6	4	69.2	4	-1E+10	1	-1E+10	1	-1E+10	1	-1E+10	1	-1E+10	1	-1E+10	1
4902549	119	C	12/01/2023	03:02	-132.886	47.535	0	161.20	0	6.1260	0	33.5340	0	26.380	0	159.792	0	208.5	4	68.9	4	-1E+10	1	-1E+10	1	-1E+10	1	-1E+10	1	-1E+10	1	-1E+10	1
4902549	119	C	12/01/2023	03:02	-132.886	47.535	0	162.10	0	6.1170	0	33.5440	0	26.389	0	160.684	0	207.7	4	68.6	4	-1E+10	1	-1E+10	1	-1E+10	1	-1E+10	1	-1E+10	1	-1E+10	1
4902549	119	C	12/01/2023	03:02	-132.886	47.535	0	162.90	0	6.1430	0	33.5520	0	26.392	0	161.476	0	207.0	4	68.4	4	-1E+10	1	-1E+10	1	-1E+10	1	-1E+10	1	-1E+10	1	-1E+10	1
4902549	119	C	12/01/2023	03:02	-132.886	47.535	0	163.70	0	6.1450	0	33.5620	0	26.400	0	162.269	0	206.3	4	68.2	4	-1E+10	1	-1E+10	1	-1E+10	1	-1E+10	1	-1E+10	1	-1E+10	1
4902549	119	C	12/01/2023	03:02	-132.886	47.535	0	164.60	0	6.1350	0	33.5680	0	26.406	0	163.161	0	205.7	4	68.0	4	-1E+10	1	-1E+10	1	-1E+10	1	-1E+10	1	-1E+10	1	-1E+10	1
4902549	119	C	12/01/2023	03:02	-132.886	47.535	0	165.90	0	6.1370	0	33.5760	0	26.412	0	164.449	0	204.8	4	67.7	4	-1E+10	1	-1E+10	1	-1E+10	1	-1E+10	1	-1E+10	1	-1E+10	1
4902549	119	C	12/01/2023	03:02	-132.886	47.535	0	167.30	0	6.1420	0	33.5800	0	26.415	0	165.836	0	203.7	4	67.4	4	-1E+10	1	-1E+10	1	-1E+10	1	-1E+10	1	-1E+10	1	-1E+10	1
4902549	119	C	12/01/2023	03:02	-132.886	47.535	0	168.20	0	6.1490	0	33.5820	0	26.415	0	166.728	0	202.9	4	67.1	4	-1E+10	1	-1E+10	1	-1E+10	1	-1E+10	1	-1E+10	1	-1E+10	1
4902549	119	C	12/01/2023	03:02	-132.886	47.535	0	169.10	0	6.1550	0	33.5920	0	26.423	0	167.620	0	202.0	4	66.8	4	-1E+10	1	-1E+10	1	-1E+10	1	-1E+10	1	-1E+10	1	-1E+10	1
4902549	119	C	12/01/2023	03:02	-132.886	47.535	0	170.00	0	6.1490	0	33.5930	0	26.424	0	168.511	0	201.2	4	66.5	4	-1E+10	1	-1E+10	1	-1E+10	1	-1E+10	1	-1E+10	1	-1E+10	1
4902549	119	C	12/01/2023	03:02	-132.886	47.535	0	170.90	0	6.1440	0	33.6090	0	26.437	0	169.403	0	200.3	4	66.3	4	-1E+10	1	-1E+10	1	-1E+10	1	-1E+10	1	-1E+10	1	-1E+10	1
4902549	119	C	12/01/2023	03:02	-132.886	47.535	0	171.80	0	6.1460	0	33.6020	0	26.432	0	170.295	0	199.5	4	66.0	4	-1E+10	1	-1E+10	1	-1E+10	1	-1E+10	1	-1E+10	1	-1E+10	1
4902549	119	C	12/01/2023	03:02	-132.886	47.535	0	172.70	0	6.1600	0	33.6200	0	26.444	0	171.186	0	198.4	4	65.6	4	-1E+10	1	-1E+10	1	-1E+10	1	-1E+10	1	-1E+10	1	-1E+10	1
4902549	119	C	12/01/2023	03:02	-132.886	47.535	0	173.60	0	6.1480	0	33.6100	0	26.438	0	172.078	0	197.4	4	65.3	4	-1E+10	1	-1E+10	1	-1E+10	1	-1E+10	1	-1E+10	1	-1E+10	1
4902549	119	C	12/01/2023	03:02	-132.886	47.535	0	174.90	0	6.1100	0	33.6120	0	26.444	0	173.366	0	195.4	4	64.6	4	-1E+10	1	-1E+10	1	-1E+10	1	-1E+10	1	-1E+10	1	-1E+10	1
4902549	119	C	12/01/2023	03:02	-132.886	47.535	0	176.30	0	6.1130	0	33.6150	0	26.446	0	174.753	0	192.8	4	63.7	4	-1E+10	1	-1E+10	1	-1E+10	1	-1E+10	1	-1E+10	1	-1E+10	1
4902549	119	C	12/01/2023	03:02	-132.886	47.535	0	177.20	0	6.1140	0	33.6250	0	26.454	0	175.645	0	190.9	4	63.1	4	-1E+10	1	-1E+10	1	-1E+10	1	-1E+10	1	-1E+10	1	-1E+10	1
4902549	119	C	12/01/2023	03:02	-132.886	47.535	0	178.10	0	6.1090	0	33.6280	0	26.457	0	176.537	0	188.9	4	62.4	4	-1E+10	1	-1E+10	1	-1E+10	1	-1E+10	1	-1E+10	1	-1E+10	1
4902549	119	C	12/01/2023	03:02	-132.886	47.535	0	179.00	0	6.1210	0	33.6430	0	26.467	0	177.429	0	187.0	4	61.8	4	-1E+10	1	-1E+10	1	-1E+10	1	-1E+10	1	-1E+10	1	-1E+10	1
4902549	119	C	12/01/2023	03:02	-132.886	47.535	0	179.90	0	6.1610	0	33.6570	0	26.473	0	178.320	0	185.1	4	61.3	4	-1E+10	1	-1E+10	1	-1E+10	1	-1E+10	1	-1E+10	1	-1E+10	1
4902549	119	C	12/01/2023	03:02	-132.886	47.535	0	180.80	0	6.1580	0	33.6690	0	26.483	0	179.212	0	183.5	4	60.8	4	-1E+10	1	-1E+10	1	-1E+10	1	-1E+10	1	-1E+10	1	-1E+10	1
4902549	119	C	12/01/2023	03:02	-132.886	47.535	0	181.70	0	6.1500	0	33.6710	0	26.486	0	180.104	0	182.0	4	60.2	4	-1E+10	1	-1E+10	1	-1E+10	1	-1E+10	1	-1E+10	1	-1E+10	1
4902549	119	C	12/01/2023	03:02	-132.886	47.535	0	182.60	0	6.1320	0	33.6830	0	26.498	0	180.995	0	180.6	4	59.8	4	-1E+10	1	-1E+10	1	-1E+10	1	-1E+10	1	-1E+10	1	-1E+10	1
4902549	119	C	12/01/2023	03:02	-132.886	47.535	0	183.50	0	6.1050	0	33.6920	0	26.508	0	181.887	0	179.9	4	59.5	4	-1E+10	1	-1E+10	1	-1E+10	1	-1E+10	1	-1E+10	1	-1E+10	1
4902549	119	C	12/01/2023	03:02	-132.886	47.535	0	184.90	0	6.0990	0	33.6970	0	26.513	0	183.274	0	178.8	4	59.1	4	-1E+10	1	-1E+10	1	-1E+10	1	-1E+10	1	-1E+10	1	-1E+10	1
4902549	119	C	12/01/2023	03:02	-132.886	47.535	0	186.30	0	6.0970	0	33.7000	0	26.515	0	184.661	0	177.6	4	58.7	4	-1E+10	1	-1E+10	1	-1E+10	1	-1E+10	1	-1E+10	1	-1E+10	1
4902549	119	C	12/01/2023	03:02	-132.886	47.535	0	187.30	0	6.0950	0	33.7010	0	26.516	0	185.652	0	176.9	4	58.5	4	-1E+10	1	-1E+10	1	-1E+10	1	-1E+10	1	-1E+10	1	-1E+10	1
4902549	119	C	12/01/2023	03:02	-132.886	47.535	0	188.20	0	6.0930	0	33.7050	0	26.520	0	186.544	0	176.3	4	58.3	4	-1E+10	1	-1E+10	1	-1E+10	1	-1E+10	1	-1E+10	1	-1E+10	1
4902549	119	C	12/01/2023	03:02	-132.886	47.535	0	189.10	0	6.0810	0	33.7090	0	26.525	0	187.435	0	175.9	4	58.1	4	-1E+10	1	-1E+10	1	-1E+10	1	-1E+10	1	-1E+10	1	-1E+10	1
4902549	119	C	12/01/2023	03:02	-132.886	47.535	0	190.10	0	6.0800	0	33.7090	0	26.525	0	188.426	0	175.4	4	58.0	4	-1E+10	1	-1E+10	1	-1E+10	1	-1E+10	1	-1E+10	1	-1E+10	1
4902549	119	C	12/01/2023	03:02	-132.886	47.535	0	191.00	0	6.0770	0	33.7100	0	26.526	0	189.318	0	174.8	4	57.8	4	-1E+10	1	-1E+10	1	-1E+10	1	-1E+10	1	-1E+10	1	-1E+10	1
4902549	119	C	12/01/2023	03:02	-132.886	47.535	0	191.90	0	6.0700	0	33.7100	0	26.527	0	190.209	0	174.2	4	57.5	4	-1E+10	1	-1E+10	1	-1E+10	1	-1E+10	1	-1E+10	1	-1E+10	1
4902549	119	C	12/01/2023	03:02	-132.886	47.535	0	192.80	0	6.0640	0	33.7100	0	26.528	0	191.101	0	173.5	4	57.3	4	-1E+10	1	-1E+10	1	-1E+10	1	-1E+10	1	-1E+10	1	-1E+10	1
4902549	119	C	12/01/2023	03:02	-132.886	47.535	0	193.70	0	6.0530	0	33.7110	0	26.530	0	191.993	0	172.7	4	57.1	4	-1E+10	1	-1E+10	1	-1E+10	1	-1E+10	1	-1E+10	1	-1E+10	1
4902549	119	C	12/01/2023	03:02	-132.886	47.535	0	194.60	0	6.0510	0	33.7110	0	26.530	0	192.884	0	172.0	4	56.8	4	-1E+10	1	-1E+10	1	-1E+10	1	-1E+10	1	-1E+10	1	-1E+10	1
4902549	119	C	12/01/2023	03:02	-132.886	47.535	0	195.90	0	6.0610	0	33.7160	0	26.533	0	194.172	0	170.9	4	56.5	4	-1E+10	1	-1E+10	1	-1E+10	1	-1E+10	1	-1E+10	1	-1E+10	1
4902549	119	C	12/01/2023	03:02	-132.886	47.535	0	197.30	0	6.0600	0	33.7200	0	26.536	0	195.559	0	169.9	4	56.1	4	-1E+10	1	-1E+10	1	-1E+10	1	-1E+10	1	-1E+10	1	-1E+10	1
4902549	119	C	12/01/2023	03:02	-132.886	47.535	0	198.20	0	6.0560	0	33.7230	0	26.539	0	196.451	0	169.4	4	56.0	4	-1E+10	1	-1E+10	1	-1E+10	1	-1E+10	1	-1E+10	1	-1E+10	1
4902549	119	C	12/01/2023	03:02	-132.886	47.535	0	199.10	0	6.0540	0	33.7240	0	26.540	0	197.343	0	168.9	4	55.8	4	-1E+10	1	-1E+10	1	-1E+10	1	-1E+10	1	-1E+10	1	-1E+10	1
4902549	119	C	12/01/2023	03:02	-132.886	47.535	0	200.00	0	6.0490	0	33.7250	0	26.541	0	198.234	0	168.4	4	55.6	4	-1E+10	1	-1E+10	1	-1E+10	1	-1E+10	1	-1E+10	1	-1E+10	1
4902549	119	C	12/01/2023	03:02	-132.886	47.535	0	200.90	0	6.0340	0	33.7250	0	26.543	0	199.126	0	167.8	4	55.4	4	-1E+10	1	-1E+10	1	-1E+10	1	-1E+10	1	-1E+10	1	-1E+10	1
4902549	119	C	12/01/2023	03:02	-132.886	47.535	0	201.80	0	6.0220	0	33.7250	0	26.545	0	200.017	0	167.2	4	55.2	4	-1E+10	1	-1E+10	1	-1E+10	1	-1E+10	1	-1E+10	1	-1E+10	1
4902549	119	C	12/01/2023	03:02	-132.886	47.535	0	202.70	0	6.0170	0	33.7270	0	26.547	0	200.909	0	166.7	4	55.0	4	-1E+10	1	-1E+10	1	-1E+10	1	-1E+10	1	-1E+10	1	-1E+10	1
4902549	119	C	12/01/2023	03:02	-132.886	47.535	0	203.60	0	6.0020	0	33.7320	0	26.553	0	201.801	0	166.2	4	54.8	4	-1E+10	1	-1E+10	1	-1E+10	1	-1E+10	1	-1E+10	1	-1E+10	1
4902549	119	C	12/01/2023	03:02	-132.886	47.535	0	204.90	0	5.9770	0	33.7350	0	26.558	0	203.088	0	165.8	4	54.7	4	-1E+10	1	-1E+10	1	-1E+10	1	-1E+10	1	-1E+10	1	-1E+10	1
4902549	119	C	12/01/2023	03:02	-132.886	47.535	0	206.40	0	5.9660	0	33.7360	0	26.560	0	204.574	0	165.5	4	54.6	4	-1E+10	1	-1E+10	1	-1E+10	1	-1E+10	1	-1E+10	1	-1E+10	1
4902549	119	C	12/01/2023	03:02	-132.886	47.535	0	207.30	0	5.9610	0	33.7340	0	26.559	0	205.466	0	165.4	4	54.5	4	-1E+10	1	-1E+10	1	-1E+10	1	-1E+10	1	-1E+10	1	-1E+10	1
4902549	119	C	12/01/2023	03:02	-132.886	47.535	0	208.20	0	5.9610	0	33.7340	0	26.559	0	206.358	0	165.1	4	54.4	4	-1E+10	1	-1E+10	1	-1E+10	1	-1E+10	1	-1E+10	1	-1E+10	1
4902549	119	C	12/01/2023	03:02	-132.886	47.535	0	209.10	0	5.9590	0	33.7350	0	26.561	0	207.249	0	164.9	4	54.3	4	-1E+10	1	-1E+10	1	-1E+10	1	-1E+10	1	-1E+10	1	-1E+10	1
4902549	119	C	12/01/2023	03:02	-132.886	47.535	0	210.20	0	5.9560	0	33.7350	0	26.561	0	208.339	0	164.6	4	54.2	4	-1E+10	1	-1E+10	1	-1E+10	1	-1E+10	1	-1E+10	1	-1E+10	1
4902549	119	C	12/01/2023	03:02	-132.886	47.535	0	211.10	0	5.9190	0	33.7320	0	26.563	0	209.231	0	164.3	4	54.1	4	-1E+10	1	-1E+10	1	-1E+10	1	-1E+10	1	-1E+10	1	-1E+10	1
4902549	119	C	12/01/2023	03:02	-132.886	47.535	0	212.00	0	5.9080	0	33.7320	0	26.565	0	210.122	0	163.9	4	54.0	4	-1E+10	1	-1E+10	1	-1E+10	1	-1E+10	1	-1E+10	1	-1E+10	1
4902549	119	C	12/01/2023	03:02	-132.886	47.535	0	212.90	0	5.8840	0	33.7330	0	26.568	0	211.014	0	163.4	4	53.8	4	-1E+10	1	-1E+10	1	-1E+10	1	-1E+10	1	-1E+10	1	-1E+10	1
4902549	119	C	12/01/2023	03:02	-132.886	47.535	0	213.90	0	5.8710	0	33.7330	0	26.570	0	212.004	0	162.9	4	53.6	4	-1E+10	1	-1E+10	1	-1E+10	1	-1E+10	1	-1E+10	1	-1E+10	1
4902549	119	C	12/01/2023	03:02	-132.886	47.535	0	214.80	0	5.8640	0	33.7320	0	26.570	0	212.896	0	162.3	4	53.4	4	-1E+10	1	-1E+10	1	-1E+10	1	-1E+10	1	-1E+10	1	-1E+10	1
4902549	119	C	12/01/2023	03:02	-132.886	47.535	0	215.70	0	5.8630	0	33.7320	0	26.570	0	213.787	0	161.5	4	53.1	4	-1E+10	1	-1E+10	1	-1E+10	1	-1E+10	1	-1E+10	1	-1E+10	1
4902549	119	C	12/01/2023	03:02	-132.886	47.535	0	216.60	0	5.8520	0	33.7330	0	26.572	0	214.679	0	160.8	4	52.9	4	-1E+10	1	-1E+10	1	-1E+10	1	-1E+10	1	-1E+10	1	-1E+10	1
4902549	119	C	12/01/2023	03:02	-132.886	47.535	0	217.60	0	5.8490	0	33.7340	0	26.573	0	215.670	0	160.0	4	52.6	4	-1E+10	1	-1E+10	1	-1E+10	1	-1E+10	1	-1E+10	1	-1E+10	1
4902549	119	C	12/01/2023	03:02	-132.886	47.535	0	218.90	0	5.8340	0	33.7360	0	26.577	0	216.957	0	158.8	4	52.2	4	-1E+10	1	-1E+10	1	-1E+10	1	-1E+10	1	-1E+10	1	-1E+10	1
4902549	119	C	12/01/2023	03:02	-132.886	47.535	0	220.30	0	5.8250	0	33.7370	0	26.579	0	218.344	0	157.7	4	51.8	4	-1E+10	1	-1E+10	1	-1E+10	1	-1E+10	1	-1E+10	1	-1E+10	1
4902549	119	C	12/01/2023	03:02	-132.886	47.535	0	221.30	0	5.8090	0	33.7380	0	26.582	0	219.335	0	156.8	4	51.5	4	-1E+10	1	-1E+10	1	-1E+10	1	-1E+10	1	-1E+10	1	-1E+10	1
4902549	119	C	12/01/2023	03:02	-132.886	47.535	0	222.20	0	5.7930	0	33.7390	0	26.584	0	220.226	0	156.0	4	51.2	4	-1E+10	1	-1E+10	1	-1E+10	1	-1E+10	1	-1E+10	1	-1E+10	1
4902549	119	C	12/01/2023	03:02	-132.886	47.535	0	223.10	0	5.7700	0	33.7400	0	26.588	0	221.118	0	155.1	4	50.9	4	-1E+10	1	-1E+10	1	-1E+10	1	-1E+10	1	-1E+10	1	-1E+10	1
4902549	119	C	12/01/2023	03:02	-132.886	47.535	0	224.30	0	5.7250	0	33.7410	0	26.594	0	222.307	0	154.2	4	50.6	4	-1E+10	1	-1E+10	1	-1E+10	1	-1E+10	1	-1E+10	1	-1E+10	1
4902549	119	C	12/01/2023	03:02	-132.886	47.535	0	225.20	0	5.7170	0	33.7410	0	26.595	0	223.198	0	153.3	4	50.2	4	-1E+10	1	-1E+10	1	-1E+10	1	-1E+10	1	-1E+10	1	-1E+10	1
4902549	119	C	12/01/2023	03:02	-132.886	47.535	0	226.20	0	5.7070	0	33.7400	0	26.596	0	224.189	0	152.1	4	49.8	4	-1E+10	1	-1E+10	1	-1E+10	1	-1E+10	1	-1E+10	1	-1E+10	1
4902549	119	C	12/01/2023	03:02	-132.886	47.535	0	227.20	0	5.6980	0	33.7400	0	26.597	0	225.179	0	150.7	4	49.4	4	-1E+10	1	-1E+10	1	-1E+10	1	-1E+10	1	-1E+10	1	-1E+10	1
4902549	119	C	12/01/2023	03:02	-132.886	47.535	0	228.10	0	5.6380	0	33.7440	0	26.607	0	226.071	0	149.5	4	48.9	4	-1E+10	1	-1E+10	1	-1E+10	1	-1E+10	1	-1E+10	1	-1E+10	1
4902549	119	C	12/01/2023	03:02	-132.886	47.535	0	229.10	0	5.6120	0	33.7460	0	26.612	0	227.061	0	148.5	4	48.5	4	-1E+10	1	-1E+10	1	-1E+10	1	-1E+10	1	-1E+10	1	-1E+10	1
4902549	119	C	12/01/2023	03:02	-132.886	47.535	0	230.10	0	5.5720	0	33.7500	0	26.620	0	228.052	0	147.7	4	48.3	4	-1E+10	1	-1E+10	1	-1E+10	1	-1E+10	1	-1E+10	1	-1E+10	1
4902549	119	C	12/01/2023	03:02	-132.886	47.535	0	231.10	0	5.5630	0	33.7500	0	26.621	0	229.042	0	147.0	4	48.0	4	-1E+10	1	-1E+10	1	-1E+10	1	-1E+10	1	-1E+10	1	-1E+10	1
4902549	119	C	12/01/2023	03:02	-132.886	47.535	0	232.10	0	5.5530	0	33.7500	0	26.622	0	230.033	0	146.2	4	47.8	4	-1E+10	1	-1E+10	1	-1E+10	1	-1E+10	1	-1E+10	1	-1E+10	1
4902549	119	C	12/01/2023	03:02	-132.886	47.535	0	233.10	0	5.5450	0	33.7510	0	26.624	0	231.023	0	145.5	4	47.5	4	-1E+10	1	-1E+10	1	-1E+10	1	-1E+10	1	-1E+10	1	-1E+10	1
4902549	119	C	12/01/2023	03:02	-132.886	47.535	0	234.10	0	5.5340	0	33.7530	0	26.627	0	232.014	0	144.8	4	47.3	4	-1E+10	1	-1E+10	1	-1E+10	1	-1E+10	1	-1E+10	1	-1E+10	1
4902549	119	C	12/01/2023	03:02	-132.886	47.535	0	235.10	0	5.5320	0	33.7530	0	26.627	0	233.004	0	144.0	4	47.0	4	-1E+10	1	-1E+10	1	-1E+10	1	-1E+10	1	-1E+10	1	-1E+10	1
4902549	119	C	12/01/2023	03:02	-132.886	47.535	0	236.10	0	5.5280	0	33.7520	0	26.627	0	233.995	0	143.1	4	46.7	4	-1E+10	1	-1E+10	1	-1E+10	1	-1E+10	1	-1E+10	1	-1E+10	1
4902549	119	C	12/01/2023	03:02	-132.886	47.535	0	237.10	0	5.5230	0	33.7530	0	26.628	0	234.986	0	142.1	4	46.4	4	-1E+10	1	-1E+10	1	-1E+10	1	-1E+10	1	-1E+10	1	-1E+10	1
4902549	119	C	12/01/2023	03:02	-132.886	47.535	0	238.10	0	5.5150	0	33.7560	0	26.631	0	235.976	0	141.1	4	46.0	4	-1E+10	1	-1E+10	1	-1E+10	1	-1E+10	1	-1E+10	1	-1E+10	1
4902549	119	C	12/01/2023	03:02	-132.886	47.535	0	239.20	0	5.5110	0	33.7540	0	26.630	0	237.066	0	140.0	4	45.7	4	-1E+10	1	-1E+10	1	-1E+10	1	-1E+10	1	-1E+10	1	-1E+10	1
4902549	119	C	12/01/2023	03:02	-132.886	47.535	0	240.20	0	5.5110	0	33.7600	0	26.635	0	238.056	0	139.1	4	45.4	4	-1E+10	1	-1E+10	1	-1E+10	1	-1E+10	1	-1E+10	1	-1E+10	1
4902549	119	C	12/01/2023	03:02	-132.886	47.535	0	241.20	0	5.4940	0	33.7600	0	26.637	0	239.047	0	138.5	4	45.2	4	-1E+10	1	-1E+10	1	-1E+10	1	-1E+10	1	-1E+10	1	-1E+10	1
4902549	119	C	12/01/2023	03:02	-132.886	47.535	0	242.20	0	5.4840	0	33.7610	0	26.639	0	240.037	0	137.7	4	44.9	4	-1E+10	1	-1E+10	1	-1E+10	1	-1E+10	1	-1E+10	1	-1E+10	1
4902549	119	C	12/01/2023	03:02	-132.886	47.535	0	243.30	0	5.4610	0	33.7610	0	26.642	0	241.127	0	137.0	4	44.7	4	-1E+10	1	-1E+10	1	-1E+10	1	-1E+10	1	-1E+10	1	-1E+10	1
4902549	119	C	12/01/2023	03:02	-132.886	47.535	0	244.30	0	5.4550	0	33.7610	0	26.643	0	242.117	0	136.2	4	44.4	4	-1E+10	1	-1E+10	1	-1E+10	1	-1E+10	1	-1E+10	1	-1E+10	1
4902549	119	C	12/01/2023	03:02	-132.886	47.535	0	245.30	0	5.4410	0	33.7610	0	26.644	0	243.108	0	135.3	4	44.1	4	-1E+10	1	-1E+10	1	-1E+10	1	-1E+10	1	-1E+10	1	-1E+10	1
4902549	119	C	12/01/2023	03:02	-132.886	47.535	0	246.40	0	5.4320	0	33.7620	0	26.646	0	244.197	0	134.4	4	43.8	4	-1E+10	1	-1E+10	1	-1E+10	1	-1E+10	1	-1E+10	1	-1E+10	1
4902549	119	C	12/01/2023	03:02	-132.886	47.535	0	247.40	0	5.4230	0	33.7600	0	26.646	0	245.188	0	133.5	4	43.5	4	-1E+10	1	-1E+10	1	-1E+10	1	-1E+10	1	-1E+10	1	-1E+10	1
4902549	119	C	12/01/2023	03:02	-132.886	47.535	0	248.40	0	5.4090	0	33.7620	0	26.649	0	246.178	0	132.6	4	43.1	4	-1E+10	1	-1E+10	1	-1E+10	1	-1E+10	1	-1E+10	1	-1E+10	1
4902549	119	C	12/01/2023	03:02	-132.886	47.535	0	249.40	0	5.3800	0	33.7640	0	26.654	0	247.168	0	131.7	4	42.8	4	-1E+10	1	-1E+10	1	-1E+10	1	-1E+10	1	-1E+10	1	-1E+10	1
4902549	119	C	12/01/2023	03:02	-132.886	47.535	0	250.40	0	5.3660	0	33.7650	0	26.656	0	248.159	0	130.9	4	42.6	4	-1E+10	1	-1E+10	1	-1E+10	1	-1E+10	1	-1E+10	1	-1E+10	1
4902549	119	C	12/01/2023	03:02	-132.886	47.535	0	251.90	0	5.3500	0	33.7640	0	26.657	0	249.645	0	129.4	4	42.1	4	-1E+10	1	-1E+10	1	-1E+10	1	-1E+10	1	-1E+10	1	-1E+10	1
4902549	119	C	12/01/2023	03:02	-132.886	47.535	0	253.00	0	5.3280	0	33.7650	0	26.661	0	250.734	0	128.2	4	41.7	4	-1E+10	1	-1E+10	1	-1E+10	1	-1E+10	1	-1E+10	1	-1E+10	1
4902549	119	C	12/01/2023	03:02	-132.886	47.535	0	253.80	0	5.3260	0	33.7620	0	26.659	0	251.526	0	127.5	4	41.4	4	-1E+10	1	-1E+10	1	-1E+10	1	-1E+10	1	-1E+10	1	-1E+10	1
4902549	119	C	12/01/2023	03:02	-132.886	47.535	0	254.90	0	5.3020	0	33.7680	0	26.666	0	252.616	0	126.5	4	41.1	4	-1E+10	1	-1E+10	1	-1E+10	1	-1E+10	1	-1E+10	1	-1E+10	1
4902549	119	C	12/01/2023	03:02	-132.886	47.535	0	256.10	0	5.2930	0	33.7680	0	26.667	0	253.804	0	125.5	4	40.8	4	-1E+10	1	-1E+10	1	-1E+10	1	-1E+10	1	-1E+10	1	-1E+10	1
4902549	119	C	12/01/2023	03:02	-132.886	47.535	0	257.10	0	5.2770	0	33.7710	0	26.672	0	254.795	0	124.8	4	40.5	4	-1E+10	1	-1E+10	1	-1E+10	1	-1E+10	1	-1E+10	1	-1E+10	1
4902549	119	C	12/01/2023	03:02	-132.886	47.535	0	257.90	0	5.2620	0	33.7730	0	26.675	0	255.587	0	124.4	4	40.3	4	-1E+10	1	-1E+10	1	-1E+10	1	-1E+10	1	-1E+10	1	-1E+10	1
4902549	119	C	12/01/2023	03:02	-132.886	47.535	0	259.00	0	5.2540	0	33.7720	0	26.675	0	256.677	0	123.6	4	40.1	4	-1E+10	1	-1E+10	1	-1E+10	1	-1E+10	1	-1E+10	1	-1E+10	1
4902549	119	C	12/01/2023	03:02	-132.886	47.535	0	260.20	0	5.2510	0	33.7720	0	26.675	0	257.865	0	122.6	4	39.8	4	-1E+10	1	-1E+10	1	-1E+10	1	-1E+10	1	-1E+10	1	-1E+10	1
4902549	119	C	12/01/2023	03:02	-132.886	47.535	0	261.00	0	5.2450	0	33.7730	0	26.677	0	258.657	0	122.0	4	39.5	4	-1E+10	1	-1E+10	1	-1E+10	1	-1E+10	1	-1E+10	1	-1E+10	1
4902549	119	C	12/01/2023	03:02	-132.886	47.535	0	261.80	0	5.2420	0	33.7730	0	26.677	0	259.450	0	121.2	4	39.3	4	-1E+10	1	-1E+10	1	-1E+10	1	-1E+10	1	-1E+10	1	-1E+10	1
4902549	119	C	12/01/2023	03:02	-132.886	47.535	0	263.00	0	5.2370	0	33.7720	0	26.677	0	260.638	0	119.9	4	38.9	4	-1E+10	1	-1E+10	1	-1E+10	1	-1E+10	1	-1E+10	1	-1E+10	1
4902549	119	C	12/01/2023	03:02	-132.886	47.535	0	264.20	0	5.2200	0	33.7730	0	26.680	0	261.827	0	118.6	4	38.4	4	-1E+10	1	-1E+10	1	-1E+10	1	-1E+10	1	-1E+10	1	-1E+10	1
4902549	119	C	12/01/2023	03:02	-132.886	47.535	0	265.00	0	5.2030	0	33.7770	0	26.685	0	262.619	0	117.8	4	38.2	4	-1E+10	1	-1E+10	1	-1E+10	1	-1E+10	1	-1E+10	1	-1E+10	1
4902549	119	C	12/01/2023	03:02	-132.886	47.535	0	265.80	0	5.1630	0	33.7780	0	26.690	0	263.411	0	117.4	4	38.0	4	-1E+10	1	-1E+10	1	-1E+10	1	-1E+10	1	-1E+10	1	-1E+10	1
4902549	119	C	12/01/2023	03:02	-132.886	47.535	0	267.00	0	5.1550	0	33.7760	0	26.690	0	264.600	0	116.6	4	37.7	4	-1E+10	1	-1E+10	1	-1E+10	1	-1E+10	1	-1E+10	1	-1E+10	1
4902549	119	C	12/01/2023	03:02	-132.886	47.535	0	268.20	0	5.1400	0	33.7780	0	26.693	0	265.788	0	115.8	4	37.5	4	-1E+10	1	-1E+10	1	-1E+10	1	-1E+10	1	-1E+10	1	-1E+10	1
4902549	119	C	12/01/2023	03:02	-132.886	47.535	0	269.00	0	5.1240	0	33.7770	0	26.694	0	266.580	0	115.4	4	37.3	4	-1E+10	1	-1E+10	1	-1E+10	1	-1E+10	1	-1E+10	1	-1E+10	1
4902549	119	C	12/01/2023	03:02	-132.886	47.535	0	269.80	0	5.1200	0	33.7770	0	26.694	0	267.373	0	114.9	4	37.1	4	-1E+10	1	-1E+10	1	-1E+10	1	-1E+10	1	-1E+10	1	-1E+10	1
4902549	119	C	12/01/2023	03:02	-132.886	47.535	0	270.60	0	5.1180	0	33.7770	0	26.695	0	268.165	0	114.3	4	37.0	4	-1E+10	1	-1E+10	1	-1E+10	1	-1E+10	1	-1E+10	1	-1E+10	1
4902549	119	C	12/01/2023	03:02	-132.886	47.535	0	271.90	0	5.1090	0	33.7770	0	26.696	0	269.453	0	113.5	4	36.7	4	-1E+10	1	-1E+10	1	-1E+10	1	-1E+10	1	-1E+10	1	-1E+10	1
4902549	119	C	12/01/2023	03:02	-132.886	47.535	0	273.20	0	5.0900	0	33.7780	0	26.699	0	270.740	0	112.7	4	36.4	4	-1E+10	1	-1E+10	1	-1E+10	1	-1E+10	1	-1E+10	1	-1E+10	1
4902549	119	C	12/01/2023	03:02	-132.886	47.535	0	274.00	0	5.0760	0	33.7810	0	26.703	0	271.532	0	112.2	4	36.2	4	-1E+10	1	-1E+10	1	-1E+10	1	-1E+10	1	-1E+10	1	-1E+10	1
4902549	119	C	12/01/2023	03:02	-132.886	47.535	0	274.90	0	5.0620	0	33.7790	0	26.703	0	272.424	0	111.9	4	36.1	4	-1E+10	1	-1E+10	1	-1E+10	1	-1E+10	1	-1E+10	1	-1E+10	1
4902549	119	C	12/01/2023	03:02	-132.886	47.535	0	275.70	0	5.0540	0	33.7810	0	26.705	0	273.216	0	111.5	4	36.0	4	-1E+10	1	-1E+10	1	-1E+10	1	-1E+10	1	-1E+10	1	-1E+10	1
4902549	119	C	12/01/2023	03:02	-132.886	47.535	0	276.60	0	5.0500	0	33.7810	0	26.706	0	274.107	0	111.3	4	35.9	4	-1E+10	1	-1E+10	1	-1E+10	1	-1E+10	1	-1E+10	1	-1E+10	1
4902549	119	C	12/01/2023	03:02	-132.886	47.535	0	277.90	0	5.0480	0	33.7810	0	26.706	0	275.395	0	110.8	4	35.8	4	-1E+10	1	-1E+10	1	-1E+10	1	-1E+10	1	-1E+10	1	-1E+10	1
4902549	119	C	12/01/2023	03:02	-132.886	47.535	0	279.20	0	5.0480	0	33.7820	0	26.707	0	276.682	0	110.2	4	35.6	4	-1E+10	1	-1E+10	1	-1E+10	1	-1E+10	1	-1E+10	1	-1E+10	1
4902549	119	C	12/01/2023	03:02	-132.886	47.535	0	280.10	0	5.0470	0	33.7820	0	26.707	0	277.573	0	109.8	4	35.4	4	-1E+10	1	-1E+10	1	-1E+10	1	-1E+10	1	-1E+10	1	-1E+10	1
4902549	119	C	12/01/2023	03:02	-132.886	47.535	0	280.90	0	5.0460	0	33.7820	0	26.707	0	278.365	0	109.4	4	35.3	4	-1E+10	1	-1E+10	1	-1E+10	1	-1E+10	1	-1E+10	1	-1E+10	1
4902549	119	C	12/01/2023	03:02	-132.886	47.535	0	281.80	0	5.0440	0	33.7830	0	26.708	0	279.257	0	108.9	4	35.1	4	-1E+10	1	-1E+10	1	-1E+10	1	-1E+10	1	-1E+10	1	-1E+10	1
4902549	119	C	12/01/2023	03:02	-132.886	47.535	0	282.60	0	5.0430	0	33.7830	0	26.708	0	280.049	0	108.4	4	35.0	4	-1E+10	1	-1E+10	1	-1E+10	1	-1E+10	1	-1E+10	1	-1E+10	1
4902549	119	C	12/01/2023	03:02	-132.886	47.535	0	283.90	0	5.0410	0	33.7840	0	26.709	0	281.336	0	107.7	4	34.8	4	-1E+10	1	-1E+10	1	-1E+10	1	-1E+10	1	-1E+10	1	-1E+10	1
4902549	119	C	12/01/2023	03:02	-132.886	47.535	0	285.40	0	5.0390	0	33.7860	0	26.711	0	282.822	0	106.8	4	34.5	4	-1E+10	1	-1E+10	1	-1E+10	1	-1E+10	1	-1E+10	1	-1E+10	1
4902549	119	C	12/01/2023	03:02	-132.886	47.535	0	286.30	0	5.0380	0	33.7860	0	26.711	0	283.713	0	106.4	4	34.3	4	-1E+10	1	-1E+10	1	-1E+10	1	-1E+10	1	-1E+10	1	-1E+10	1
4902549	119	C	12/01/2023	03:02	-132.886	47.535	0	287.20	0	5.0370	0	33.7870	0	26.712	0	284.604	0	105.8	4	34.1	4	-1E+10	1	-1E+10	1	-1E+10	1	-1E+10	1	-1E+10	1	-1E+10	1
4902549	119	C	12/01/2023	03:02	-132.886	47.535	0	288.00	0	5.0360	0	33.7870	0	26.712	0	285.397	0	105.2	4	33.9	4	-1E+10	1	-1E+10	1	-1E+10	1	-1E+10	1	-1E+10	1	-1E+10	1
4902549	119	C	12/01/2023	03:02	-132.886	47.535	0	288.90	0	5.0310	0	33.7890	0	26.714	0	286.288	0	104.6	4	33.8	4	-1E+10	1	-1E+10	1	-1E+10	1	-1E+10	1	-1E+10	1	-1E+10	1
4902549	119	C	12/01/2023	03:02	-132.886	47.535	0	289.80	0	5.0100	0	33.7910	0	26.718	0	287.179	0	104.1	4	33.6	4	-1E+10	1	-1E+10	1	-1E+10	1	-1E+10	1	-1E+10	1	-1E+10	1
4902549	119	C	12/01/2023	03:02	-132.886	47.535	0	290.70	0	5.0010	0	33.7930	0	26.721	0	288.070	0	103.6	4	33.4	4	-1E+10	1	-1E+10	1	-1E+10	1	-1E+10	1	-1E+10	1	-1E+10	1
4902549	119	C	12/01/2023	03:02	-132.886	47.535	0	292.00	0	5.0040	0	33.7920	0	26.720	0	289.358	0	102.8	4	33.2	4	-1E+10	1	-1E+10	1	-1E+10	1	-1E+10	1	-1E+10	1	-1E+10	1
4902549	119	C	12/01/2023	03:02	-132.886	47.535	0	293.30	0	5.0060	0	33.7940	0	26.721	0	290.645	0	102.1	4	32.9	4	-1E+10	1	-1E+10	1	-1E+10	1	-1E+10	1	-1E+10	1	-1E+10	1
4902549	119	C	12/01/2023	03:02	-132.886	47.535	0	294.20	0	5.0000	0	33.7960	0	26.723	0	291.536	0	101.7	4	32.8	4	-1E+10	1	-1E+10	1	-1E+10	1	-1E+10	1	-1E+10	1	-1E+10	1
4902549	119	C	12/01/2023	03:02	-132.886	47.535	0	295.10	0	4.9930	0	33.7970	0	26.725	0	292.427	0	101.3	4	32.6	4	-1E+10	1	-1E+10	1	-1E+10	1	-1E+10	1	-1E+10	1	-1E+10	1
4902549	119	C	12/01/2023	03:02	-132.886	47.535	0	296.00	0	4.9940	0	33.7970	0	26.725	0	293.319	0	100.8	4	32.5	4	-1E+10	1	-1E+10	1	-1E+10	1	-1E+10	1	-1E+10	1	-1E+10	1
4902549	119	C	12/01/2023	03:02	-132.886	47.535	0	296.90	0	4.9960	0	33.7970	0	26.725	0	294.210	0	100.4	4	32.4	4	-1E+10	1	-1E+10	1	-1E+10	1	-1E+10	1	-1E+10	1	-1E+10	1
4902549	119	C	12/01/2023	03:02	-132.886	47.535	0	297.80	0	5.0000	0	33.8010	0	26.727	0	295.101	0	99.9	4	32.2	4	-1E+10	1	-1E+10	1	-1E+10	1	-1E+10	1	-1E+10	1	-1E+10	1
4902549	119	C	12/01/2023	03:02	-132.886	47.535	0	298.70	0	5.0160	0	33.7980	0	26.723	0	295.992	0	99.3	4	32.0	4	-1E+10	1	-1E+10	1	-1E+10	1	-1E+10	1	-1E+10	1	-1E+10	1
4902549	119	C	12/01/2023	03:02	-132.886	47.535	0	299.90	0	5.0510	0	33.8050	0	26.725	0	297.180	0	98.6	4	31.8	4	-1E+10	1	-1E+10	1	-1E+10	1	-1E+10	1	-1E+10	1	-1E+10	1
4902549	119	C	12/01/2023	03:02	-132.886	47.535	0	301.30	0	5.0840	0	33.8150	0	26.729	0	298.567	0	98.0	4	31.7	4	-1E+10	1	-1E+10	1	-1E+10	1	-1E+10	1	-1E+10	1	-1E+10	1
4902549	119	C	12/01/2023	03:02	-132.886	47.535	0	302.20	0	5.0870	0	33.8150	0	26.729	0	299.458	0	97.6	4	31.5	4	-1E+10	1	-1E+10	1	-1E+10	1	-1E+10	1	-1E+10	1	-1E+10	1
4902549	119	C	12/01/2023	03:02	-132.886	47.535	0	303.10	0	5.0730	0	33.8150	0	26.730	0	300.349	0	97.2	4	31.4	4	-1E+10	1	-1E+10	1	-1E+10	1	-1E+10	1	-1E+10	1	-1E+10	1
4902549	119	C	12/01/2023	03:02	-132.886	47.535	0	304.00	0	5.0260	0	33.8140	0	26.735	0	301.240	0	96.8	4	31.2	4	-1E+10	1	-1E+10	1	-1E+10	1	-1E+10	1	-1E+10	1	-1E+10	1
4902549	119	C	12/01/2023	03:02	-132.886	47.535	0	304.90	0	5.0160	0	33.8120	0	26.734	0	302.131	0	96.4	4	31.1	4	-1E+10	1	-1E+10	1	-1E+10	1	-1E+10	1	-1E+10	1	-1E+10	1
4902549	119	C	12/01/2023	03:02	-132.886	47.535	0	305.80	0	5.0560	0	33.8200	0	26.736	0	303.023	0	96.0	4	31.0	4	-1E+10	1	-1E+10	1	-1E+10	1	-1E+10	1	-1E+10	1	-1E+10	1
4902549	119	C	12/01/2023	03:02	-132.886	47.535	0	306.60	0	5.0650	0	33.8190	0	26.734	0	303.815	0	95.7	4	30.9	4	-1E+10	1	-1E+10	1	-1E+10	1	-1E+10	1	-1E+10	1	-1E+10	1
4902549	119	C	12/01/2023	03:02	-132.886	47.535	0	307.90	0	5.0640	0	33.8220	0	26.737	0	305.102	0	95.2	4	30.7	4	-1E+10	1	-1E+10	1	-1E+10	1	-1E+10	1	-1E+10	1	-1E+10	1
4902549	119	C	12/01/2023	03:02	-132.886	47.535	0	309.30	0	5.0580	0	33.8220	0	26.738	0	306.488	0	94.7	4	30.6	4	-1E+10	1	-1E+10	1	-1E+10	1	-1E+10	1	-1E+10	1	-1E+10	1
4902549	119	C	12/01/2023	03:02	-132.886	47.535	0	310.20	0	5.0610	0	33.8240	0	26.739	0	307.379	0	94.3	4	30.5	4	-1E+10	1	-1E+10	1	-1E+10	1	-1E+10	1	-1E+10	1	-1E+10	1
4902549	119	C	12/01/2023	03:02	-132.886	47.535	0	311.00	0	5.0560	0	33.8240	0	26.739	0	308.171	0	93.9	4	30.3	4	-1E+10	1	-1E+10	1	-1E+10	1	-1E+10	1	-1E+10	1	-1E+10	1
4902549	119	C	12/01/2023	03:02	-132.886	47.535	0	311.90	0	5.0560	0	33.8240	0	26.739	0	309.063	0	93.5	4	30.2	4	-1E+10	1	-1E+10	1	-1E+10	1	-1E+10	1	-1E+10	1	-1E+10	1
4902549	119	C	12/01/2023	03:02	-132.886	47.535	0	312.80	0	5.0540	0	33.8250	0	26.740	0	309.954	0	93.1	4	30.1	4	-1E+10	1	-1E+10	1	-1E+10	1	-1E+10	1	-1E+10	1	-1E+10	1
4902549	119	C	12/01/2023	03:02	-132.886	47.535	0	313.70	0	5.0520	0	33.8250	0	26.741	0	310.845	0	92.6	4	29.9	4	-1E+10	1	-1E+10	1	-1E+10	1	-1E+10	1	-1E+10	1	-1E+10	1
4902549	119	C	12/01/2023	03:02	-132.886	47.535	0	314.90	0	5.0470	0	33.8250	0	26.741	0	312.033	0	91.8	4	29.7	4	-1E+10	1	-1E+10	1	-1E+10	1	-1E+10	1	-1E+10	1	-1E+10	1
4902549	119	C	12/01/2023	03:02	-132.886	47.535	0	316.30	0	5.0310	0	33.8240	0	26.742	0	313.419	0	91.0	4	29.4	4	-1E+10	1	-1E+10	1	-1E+10	1	-1E+10	1	-1E+10	1	-1E+10	1
4902549	119	C	12/01/2023	03:02	-132.886	47.535	0	317.10	0	5.0340	0	33.8270	0	26.744	0	314.211	0	90.4	4	29.2	4	-1E+10	1	-1E+10	1	-1E+10	1	-1E+10	1	-1E+10	1	-1E+10	1
4902549	119	C	12/01/2023	03:02	-132.886	47.535	0	318.00	0	5.0430	0	33.8300	0	26.746	0	315.102	0	89.8	4	29.0	4	-1E+10	1	-1E+10	1	-1E+10	1	-1E+10	1	-1E+10	1	-1E+10	1
4902549	119	C	12/01/2023	03:02	-132.886	47.535	0	318.90	0	5.0420	0	33.8320	0	26.747	0	315.994	0	89.2	4	28.8	4	-1E+10	1	-1E+10	1	-1E+10	1	-1E+10	1	-1E+10	1	-1E+10	1
4902549	119	C	12/01/2023	03:02	-132.886	47.535	0	319.70	0	5.0400	0	33.8330	0	26.748	0	316.786	0	88.6	4	28.6	4	-1E+10	1	-1E+10	1	-1E+10	1	-1E+10	1	-1E+10	1	-1E+10	1
4902549	119	C	12/01/2023	03:02	-132.886	47.535	0	321.00	0	5.0380	0	33.8340	0	26.749	0	318.073	0	87.7	4	28.3	4	-1E+10	1	-1E+10	1	-1E+10	1	-1E+10	1	-1E+10	1	-1E+10	1
4902549	119	C	12/01/2023	03:02	-132.886	47.535	0	322.30	0	5.0370	0	33.8380	0	26.753	0	319.360	0	86.7	4	28.0	4	-1E+10	1	-1E+10	1	-1E+10	1	-1E+10	1	-1E+10	1	-1E+10	1
4902549	119	C	12/01/2023	03:02	-132.886	47.535	0	323.20	0	5.0300	0	33.8390	0	26.754	0	320.251	0	86.1	4	27.8	4	-1E+10	1	-1E+10	1	-1E+10	1	-1E+10	1	-1E+10	1	-1E+10	1
4902549	119	C	12/01/2023	03:02	-132.886	47.535	0	324.00	0	5.0270	0	33.8400	0	26.756	0	321.043	0	85.5	4	27.6	4	-1E+10	1	-1E+10	1	-1E+10	1	-1E+10	1	-1E+10	1	-1E+10	1
4902549	119	C	12/01/2023	03:02	-132.886	47.535	0	324.90	0	5.0250	0	33.8400	0	26.756	0	321.934	0	84.8	4	27.4	4	-1E+10	1	-1E+10	1	-1E+10	1	-1E+10	1	-1E+10	1	-1E+10	1
4902549	119	C	12/01/2023	03:02	-132.886	47.535	0	325.70	0	5.0210	0	33.8410	0	26.757	0	322.726	0	84.1	4	27.1	4	-1E+10	1	-1E+10	1	-1E+10	1	-1E+10	1	-1E+10	1	-1E+10	1
4902549	119	C	12/01/2023	03:02	-132.886	47.535	0	326.60	0	5.0160	0	33.8420	0	26.758	0	323.617	0	83.4	4	26.9	4	-1E+10	1	-1E+10	1	-1E+10	1	-1E+10	1	-1E+10	1	-1E+10	1
4902549	119	C	12/01/2023	03:02	-132.886	47.535	0	327.90	0	4.9960	0	33.8470	0	26.765	0	324.905	0	82.6	4	26.6	4	-1E+10	1	-1E+10	1	-1E+10	1	-1E+10	1	-1E+10	1	-1E+10	1
4902549	119	C	12/01/2023	03:02	-132.886	47.535	0	329.20	0	4.9910	0	33.8500	0	26.768	0	326.192	0	81.7	4	26.4	4	-1E+10	1	-1E+10	1	-1E+10	1	-1E+10	1	-1E+10	1	-1E+10	1
4902549	119	C	12/01/2023	03:02	-132.886	47.535	0	330.10	0	4.9760	0	33.8520	0	26.771	0	327.083	0	81.2	4	26.2	4	-1E+10	1	-1E+10	1	-1E+10	1	-1E+10	1	-1E+10	1	-1E+10	1
4902549	119	C	12/01/2023	03:02	-132.886	47.535	0	330.90	0	4.9610	0	33.8570	0	26.777	0	327.875	0	80.7	4	26.0	4	-1E+10	1	-1E+10	1	-1E+10	1	-1E+10	1	-1E+10	1	-1E+10	1
4902549	119	C	12/01/2023	03:02	-132.886	47.535	0	331.80	0	4.9350	0	33.8540	0	26.777	0	328.766	0	80.4	4	25.9	4	-1E+10	1	-1E+10	1	-1E+10	1	-1E+10	1	-1E+10	1	-1E+10	1
4902549	119	C	12/01/2023	03:02	-132.886	47.535	0	332.70	0	4.9230	0	33.8570	0	26.781	0	329.657	0	79.9	4	25.7	4	-1E+10	1	-1E+10	1	-1E+10	1	-1E+10	1	-1E+10	1	-1E+10	1
4902549	119	C	12/01/2023	03:02	-132.886	47.535	0	333.90	0	4.8980	0	33.8560	0	26.783	0	330.845	0	79.3	4	25.5	4	-1E+10	1	-1E+10	1	-1E+10	1	-1E+10	1	-1E+10	1	-1E+10	1
4902549	119	C	12/01/2023	03:02	-132.886	47.535	0	335.30	0	4.8950	0	33.8550	0	26.782	0	332.231	0	78.7	4	25.3	4	-1E+10	1	-1E+10	1	-1E+10	1	-1E+10	1	-1E+10	1	-1E+10	1
4902549	119	C	12/01/2023	03:02	-132.886	47.535	0	336.10	0	4.8910	0	33.8650	0	26.791	0	333.023	0	78.5	4	25.3	4	-1E+10	1	-1E+10	1	-1E+10	1	-1E+10	1	-1E+10	1	-1E+10	1
4902549	119	C	12/01/2023	03:02	-132.886	47.535	0	337.00	0	4.8790	0	33.8630	0	26.791	0	333.914	0	78.3	4	25.2	4	-1E+10	1	-1E+10	1	-1E+10	1	-1E+10	1	-1E+10	1	-1E+10	1
4902549	119	C	12/01/2023	03:02	-132.886	47.535	0	337.90	0	4.8780	0	33.8630	0	26.791	0	334.805	0	78.1	4	25.1	4	-1E+10	1	-1E+10	1	-1E+10	1	-1E+10	1	-1E+10	1	-1E+10	1
4902549	119	C	12/01/2023	03:02	-132.886	47.535	0	338.70	0	4.8790	0	33.8630	0	26.791	0	335.597	0	77.8	4	25.0	4	-1E+10	1	-1E+10	1	-1E+10	1	-1E+10	1	-1E+10	1	-1E+10	1
4902549	119	C	12/01/2023	03:02	-132.886	47.535	0	340.00	0	4.8740	0	33.8630	0	26.791	0	336.884	0	77.4	4	24.9	4	-1E+10	1	-1E+10	1	-1E+10	1	-1E+10	1	-1E+10	1	-1E+10	1
4902549	119	C	12/01/2023	03:02	-132.886	47.535	0	341.20	0	4.8720	0	33.8630	0	26.791	0	338.072	0	77.0	4	24.8	4	-1E+10	1	-1E+10	1	-1E+10	1	-1E+10	1	-1E+10	1	-1E+10	1
4902549	119	C	12/01/2023	03:02	-132.886	47.535	0	342.10	0	4.8700	0	33.8630	0	26.792	0	338.963	0	76.7	4	24.7	4	-1E+10	1	-1E+10	1	-1E+10	1	-1E+10	1	-1E+10	1	-1E+10	1
4902549	119	C	12/01/2023	03:02	-132.886	47.535	0	342.90	0	4.8690	0	33.8650	0	26.793	0	339.755	0	76.4	4	24.6	4	-1E+10	1	-1E+10	1	-1E+10	1	-1E+10	1	-1E+10	1	-1E+10	1
4902549	119	C	12/01/2023	03:02	-132.886	47.535	0	343.70	0	4.8410	0	33.8680	0	26.799	0	340.547	0	76.1	4	24.5	4	-1E+10	1	-1E+10	1	-1E+10	1	-1E+10	1	-1E+10	1	-1E+10	1
4902549	119	C	12/01/2023	03:02	-132.886	47.535	0	344.90	0	4.7820	0	33.8620	0	26.801	0	341.735	0	75.6	4	24.3	4	-1E+10	1	-1E+10	1	-1E+10	1	-1E+10	1	-1E+10	1	-1E+10	1
4902549	119	C	12/01/2023	03:02	-132.886	47.535	0	346.20	0	4.7580	0	33.8600	0	26.802	0	343.022	0	75.0	4	24.0	4	-1E+10	1	-1E+10	1	-1E+10	1	-1E+10	1	-1E+10	1	-1E+10	1
4902549	119	C	12/01/2023	03:02	-132.886	47.535	0	347.10	0	4.7720	0	33.8530	0	26.795	0	343.913	0	74.6	4	23.9	4	-1E+10	1	-1E+10	1	-1E+10	1	-1E+10	1	-1E+10	1	-1E+10	1
4902549	119	C	12/01/2023	03:02	-132.886	47.535	0	347.90	0	4.7860	0	33.8670	0	26.804	0	344.705	0	74.1	4	23.8	4	-1E+10	1	-1E+10	1	-1E+10	1	-1E+10	1	-1E+10	1	-1E+10	1
4902549	119	C	12/01/2023	03:02	-132.886	47.535	0	348.70	0	4.7780	0	33.8660	0	26.804	0	345.497	0	73.8	4	23.7	4	-1E+10	1	-1E+10	1	-1E+10	1	-1E+10	1	-1E+10	1	-1E+10	1
4902549	119	C	12/01/2023	03:02	-132.886	47.535	0	350.00	0	4.7830	0	33.8680	0	26.805	0	346.784	0	73.1	4	23.5	4	-1E+10	1	-1E+10	1	-1E+10	1	-1E+10	1	-1E+10	1	-1E+10	1
4902549	119	C	12/01/2023	03:02	-132.886	47.535	0	353.30	0	4.7770	0	33.8770	0	26.813	0	350.051	0	71.8	4	23.0	4	-1E+10	1	-1E+10	1	-1E+10	1	-1E+10	1	-1E+10	1	-1E+10	1
4902549	119	C	12/01/2023	03:02	-132.886	47.535	0	358.30	0	4.7510	0	33.8810	0	26.819	0	355.001	0	70.1	4	22.5	4	-1E+10	1	-1E+10	1	-1E+10	1	-1E+10	1	-1E+10	1	-1E+10	1
4902549	119	C	12/01/2023	03:02	-132.886	47.535	0	362.90	0	4.7140	0	33.8870	0	26.828	0	359.554	0	68.6	4	22.0	4	-1E+10	1	-1E+10	1	-1E+10	1	-1E+10	1	-1E+10	1	-1E+10	1
4902549	119	C	12/01/2023	03:02	-132.886	47.535	0	367.60	0	4.6850	0	33.8900	0	26.834	0	364.207	0	67.1	4	21.5	4	-1E+10	1	-1E+10	1	-1E+10	1	-1E+10	1	-1E+10	1	-1E+10	1
4902549	119	C	12/01/2023	03:02	-132.886	47.535	0	372.80	0	4.6380	0	33.8920	0	26.840	0	369.354	0	64.9	4	20.8	4	-1E+10	1	-1E+10	1	-1E+10	1	-1E+10	1	-1E+10	1	-1E+10	1
4902549	119	C	12/01/2023	03:02	-132.886	47.535	0	377.90	0	4.5920	0	33.8990	0	26.851	0	374.403	0	62.2	4	19.9	4	-1E+10	1	-1E+10	1	-1E+10	1	-1E+10	1	-1E+10	1	-1E+10	1
4902549	119	C	12/01/2023	03:02	-132.886	47.535	0	383.10	0	4.5950	0	33.9110	0	26.860	0	379.550	0	59.7	4	19.1	4	-1E+10	1	-1E+10	1	-1E+10	1	-1E+10	1	-1E+10	1	-1E+10	1
4902549	119	C	12/01/2023	03:02	-132.886	47.535	0	387.80	0	4.5810	0	33.9210	0	26.870	0	384.202	0	57.9	4	18.5	4	-1E+10	1	-1E+10	1	-1E+10	1	-1E+10	1	-1E+10	1	-1E+10	1
4902549	119	C	12/01/2023	03:02	-132.886	47.535	0	392.70	0	4.5080	0	33.9270	0	26.882	0	389.052	0	56.9	4	18.1	4	-1E+10	1	-1E+10	1	-1E+10	1	-1E+10	1	-1E+10	1	-1E+10	1
4902549	119	C	12/01/2023	03:02	-132.886	47.535	0	397.80	0	4.4860	0	33.9300	0	26.887	0	394.100	0	56.0	4	17.9	4	-1E+10	1	-1E+10	1	-1E+10	1	-1E+10	1	-1E+10	1	-1E+10	1
4902549	119	C	12/01/2023	03:02	-132.886	47.535	0	402.90	0	4.4700	0	33.9310	0	26.890	0	399.147	0	54.9	4	17.5	4	-1E+10	1	-1E+10	1	-1E+10	1	-1E+10	1	-1E+10	1	-1E+10	1
4902549	119	C	12/01/2023	03:02	-132.886	47.535	0	408.00	0	4.4570	0	33.9370	0	26.896	0	404.195	0	53.6	4	17.1	4	-1E+10	1	-1E+10	1	-1E+10	1	-1E+10	1	-1E+10	1	-1E+10	1
4902549	119	C	12/01/2023	03:02	-132.886	47.535	0	413.00	0	4.4540	0	33.9430	0	26.901	0	409.143	0	52.2	4	16.6	4	-1E+10	1	-1E+10	1	-1E+10	1	-1E+10	1	-1E+10	1	-1E+10	1
4902549	119	C	12/01/2023	03:02	-132.886	47.535	0	418.20	0	4.4360	0	33.9510	0	26.909	0	414.289	0	51.0	4	16.2	4	-1E+10	1	-1E+10	1	-1E+10	1	-1E+10	1	-1E+10	1	-1E+10	1
4902549	119	C	12/01/2023	03:02	-132.886	47.535	0	423.10	0	4.4330	0	33.9570	0	26.915	0	419.139	0	50.3	4	16.0	4	-1E+10	1	-1E+10	1	-1E+10	1	-1E+10	1	-1E+10	1	-1E+10	1
4902549	119	C	12/01/2023	03:02	-132.886	47.535	0	428.00	0	4.4320	0	33.9580	0	26.916	0	423.988	0	49.3	4	15.7	4	-1E+10	1	-1E+10	1	-1E+10	1	-1E+10	1	-1E+10	1	-1E+10	1
4902549	119	C	12/01/2023	03:02	-132.886	47.535	0	433.00	0	4.4210	0	33.9640	0	26.921	0	428.936	0	48.0	4	15.3	4	-1E+10	1	-1E+10	1	-1E+10	1	-1E+10	1	-1E+10	1	-1E+10	1
4902549	119	C	12/01/2023	03:02	-132.886	47.535	0	438.20	0	4.4170	0	33.9710	0	26.928	0	434.082	0	46.5	4	14.8	4	-1E+10	1	-1E+10	1	-1E+10	1	-1E+10	1	-1E+10	1	-1E+10	1
4902549	119	C	12/01/2023	03:02	-132.886	47.535	0	442.90	0	4.3920	0	33.9820	0	26.939	0	438.732	0	45.4	4	14.5	4	-1E+10	1	-1E+10	1	-1E+10	1	-1E+10	1	-1E+10	1	-1E+10	1
4902549	119	C	12/01/2023	03:02	-132.886	47.535	0	447.60	0	4.3540	0	33.9850	0	26.945	0	443.383	0	44.6	4	14.2	4	-1E+10	1	-1E+10	1	-1E+10	1	-1E+10	1	-1E+10	1	-1E+10	1
4902549	119	C	12/01/2023	03:02	-132.886	47.535	0	452.90	0	4.3050	0	33.9870	0	26.952	0	448.627	0	43.5	4	13.8	4	-1E+10	1	-1E+10	1	-1E+10	1	-1E+10	1	-1E+10	1	-1E+10	1
4902549	119	C	12/01/2023	03:02	-132.886	47.535	0	458.20	0	4.2930	0	33.9940	0	26.959	0	453.872	0	42.5	4	13.5	4	-1E+10	1	-1E+10	1	-1E+10	1	-1E+10	1	-1E+10	1	-1E+10	1
4902549	119	C	12/01/2023	03:02	-132.886	47.535	0	463.00	0	4.2960	0	34.0010	0	26.964	0	458.621	0	41.4	4	13.2	4	-1E+10	1	-1E+10	1	-1E+10	1	-1E+10	1	-1E+10	1	-1E+10	1
4902549	119	C	12/01/2023	03:02	-132.886	47.535	0	467.70	0	4.2560	0	34.0070	0	26.973	0	463.271	0	40.5	4	12.8	4	-1E+10	1	-1E+10	1	-1E+10	1	-1E+10	1	-1E+10	1	-1E+10	1
4902549	119	C	12/01/2023	03:02	-132.886	47.535	0	473.20	0	4.2440	0	34.0090	0	26.976	0	468.713	0	39.3	4	12.5	4	-1E+10	1	-1E+10	1	-1E+10	1	-1E+10	1	-1E+10	1	-1E+10	1
4902549	119	C	12/01/2023	03:02	-132.886	47.535	0	478.00	0	4.2210	0	34.0100	0	26.979	0	473.462	0	38.1	4	12.1	4	-1E+10	1	-1E+10	1	-1E+10	1	-1E+10	1	-1E+10	1	-1E+10	1
4902549	119	C	12/01/2023	03:02	-132.886	47.535	0	482.80	0	4.2060	0	34.0160	0	26.986	0	478.211	0	37.3	4	11.8	4	-1E+10	1	-1E+10	1	-1E+10	1	-1E+10	1	-1E+10	1	-1E+10	1
4902549	119	C	12/01/2023	03:02	-132.886	47.535	0	488.10	0	4.1930	0	34.0190	0	26.990	0	483.454	0	36.5	4	11.6	4	-1E+10	1	-1E+10	1	-1E+10	1	-1E+10	1	-1E+10	1	-1E+10	1
4902549	119	C	12/01/2023	03:02	-132.886	47.535	0	492.90	0	4.1840	0	34.0240	0	26.995	0	488.203	0	35.8	4	11.3	4	-1E+10	1	-1E+10	1	-1E+10	1	-1E+10	1	-1E+10	1	-1E+10	1
4902549	119	C	12/01/2023	03:02	-132.886	47.535	0	497.70	0	4.1740	0	34.0290	0	27.000	0	492.952	0	35.2	4	11.2	4	-1E+10	1	-1E+10	1	-1E+10	1	-1E+10	1	-1E+10	1	-1E+10	1
4902549	119	C	12/01/2023	03:02	-132.886	47.535	0	503.00	0	4.1720	0	34.0330	0	27.003	0	498.195	0	34.6	4	10.9	4	-1E+10	1	-1E+10	1	-1E+10	1	-1E+10	1	-1E+10	1	-1E+10	1
4902549	119	C	12/01/2023	03:02	-132.886	47.535	0	507.80	0	4.1640	0	34.0340	0	27.005	0	502.943	0	33.7	4	10.7	4	-1E+10	1	-1E+10	1	-1E+10	1	-1E+10	1	-1E+10	1	-1E+10	1
4902549	119	C	12/01/2023	03:02	-132.886	47.535	0	512.60	0	4.1440	0	34.0410	0	27.012	0	507.691	0	32.9	4	10.4	4	-1E+10	1	-1E+10	1	-1E+10	1	-1E+10	1	-1E+10	1	-1E+10	1
4902549	119	C	12/01/2023	03:02	-132.886	47.535	0	518.00	0	4.1340	0	34.0460	0	27.017	0	513.033	0	32.1	4	10.2	4	-1E+10	1	-1E+10	1	-1E+10	1	-1E+10	1	-1E+10	1	-1E+10	1
4902549	119	C	12/01/2023	03:02	-132.886	47.535	0	523.30	0	4.1250	0	34.0510	0	27.022	0	518.276	0	31.3	4	9.9	4	-1E+10	1	-1E+10	1	-1E+10	1	-1E+10	1	-1E+10	1	-1E+10	1
4902549	119	C	12/01/2023	03:02	-132.886	47.535	0	527.90	0	4.1170	0	34.0560	0	27.027	0	522.826	0	30.7	4	9.7	4	-1E+10	1	-1E+10	1	-1E+10	1	-1E+10	1	-1E+10	1	-1E+10	1
4902549	119	C	12/01/2023	03:02	-132.886	47.535	0	533.00	0	4.1060	0	34.0620	0	27.033	0	527.870	0	30.2	4	9.5	4	-1E+10	1	-1E+10	1	-1E+10	1	-1E+10	1	-1E+10	1	-1E+10	1
4902549	119	C	12/01/2023	03:02	-132.886	47.535	0	538.10	0	4.0990	0	34.0650	0	27.036	0	532.914	0	29.6	4	9.4	4	-1E+10	1	-1E+10	1	-1E+10	1	-1E+10	1	-1E+10	1	-1E+10	1
4902549	119	C	12/01/2023	03:02	-132.886	47.535	0	543.00	0	4.0880	0	34.0690	0	27.041	0	537.761	0	29.0	4	9.2	4	-1E+10	1	-1E+10	1	-1E+10	1	-1E+10	1	-1E+10	1	-1E+10	1
4902549	119	C	12/01/2023	03:02	-132.886	47.535	0	548.00	0	4.0770	0	34.0740	0	27.046	0	542.706	0	28.2	4	8.9	4	-1E+10	1	-1E+10	1	-1E+10	1	-1E+10	1	-1E+10	1	-1E+10	1
4902549	119	C	12/01/2023	03:02	-132.886	47.535	0	552.90	0	4.0650	0	34.0790	0	27.051	0	547.552	0	27.5	4	8.7	4	-1E+10	1	-1E+10	1	-1E+10	1	-1E+10	1	-1E+10	1	-1E+10	1
4902549	119	C	12/01/2023	03:02	-132.886	47.535	0	557.90	0	4.0560	0	34.0840	0	27.056	0	552.497	0	26.6	4	8.4	4	-1E+10	1	-1E+10	1	-1E+10	1	-1E+10	1	-1E+10	1	-1E+10	1
4902549	119	C	12/01/2023	03:02	-132.886	47.535	0	563.00	0	4.0400	0	34.0920	0	27.064	0	557.541	0	25.9	4	8.2	4	-1E+10	1	-1E+10	1	-1E+10	1	-1E+10	1	-1E+10	1	-1E+10	1
4902549	119	C	12/01/2023	03:02	-132.886	47.535	0	568.10	0	4.0320	0	34.0970	0	27.069	0	562.585	0	25.4	4	8.0	4	-1E+10	1	-1E+10	1	-1E+10	1	-1E+10	1	-1E+10	1	-1E+10	1
4902549	119	C	12/01/2023	03:02	-132.886	47.535	0	573.20	0	4.0250	0	34.1010	0	27.073	0	567.628	0	25.0	4	7.9	4	-1E+10	1	-1E+10	1	-1E+10	1	-1E+10	1	-1E+10	1	-1E+10	1
4902549	119	C	12/01/2023	03:02	-132.886	47.535	0	577.90	0	4.0170	0	34.1050	0	27.077	0	572.276	0	24.5	4	7.7	4	-1E+10	1	-1E+10	1	-1E+10	1	-1E+10	1	-1E+10	1	-1E+10	1
4902549	119	C	12/01/2023	03:02	-132.886	47.535	0	582.70	0	4.0130	0	34.1070	0	27.079	0	577.023	0	24.1	4	7.6	4	-1E+10	1	-1E+10	1	-1E+10	1	-1E+10	1	-1E+10	1	-1E+10	1
4902549	119	C	12/01/2023	03:02	-132.886	47.535	0	588.10	0	4.0080	0	34.1100	0	27.082	0	582.363	0	23.4	4	7.4	4	-1E+10	1	-1E+10	1	-1E+10	1	-1E+10	1	-1E+10	1	-1E+10	1
4902549	119	C	12/01/2023	03:02	-132.886	47.535	0	593.10	0	4.0010	0	34.1130	0	27.085	0	587.307	0	22.5	4	7.1	4	-1E+10	1	-1E+10	1	-1E+10	1	-1E+10	1	-1E+10	1	-1E+10	1
4902549	119	C	12/01/2023	03:02	-132.886	47.535	0	597.70	0	3.9890	0	34.1190	0	27.091	0	591.855	0	21.5	4	6.8	4	-1E+10	1	-1E+10	1	-1E+10	1	-1E+10	1	-1E+10	1	-1E+10	1
4902549	119	C	12/01/2023	03:02	-132.886	47.535	0	602.90	0	3.9670	0	34.1280	0	27.100	0	596.997	0	20.7	4	6.5	4	-1E+10	1	-1E+10	1	-1E+10	1	-1E+10	1	-1E+10	1	-1E+10	1
4902549	119	C	12/01/2023	03:02	-132.886	47.535	0	608.30	0	3.9480	0	34.1350	0	27.108	0	602.336	0	20.0	4	6.3	4	-1E+10	1	-1E+10	1	-1E+10	1	-1E+10	1	-1E+10	1	-1E+10	1
4902549	119	C	12/01/2023	03:02	-132.886	47.535	0	613.30	0	3.9350	0	34.1400	0	27.113	0	607.280	0	19.5	4	6.1	4	-1E+10	1	-1E+10	1	-1E+10	1	-1E+10	1	-1E+10	1	-1E+10	1
4902549	119	C	12/01/2023	03:02	-132.886	47.535	0	618.30	0	3.9290	0	34.1430	0	27.116	0	612.224	0	19.0	4	6.0	4	-1E+10	1	-1E+10	1	-1E+10	1	-1E+10	1	-1E+10	1	-1E+10	1
4902549	119	C	12/01/2023	03:02	-132.886	47.535	0	623.40	0	3.9230	0	34.1450	0	27.118	0	617.266	0	18.4	4	5.8	4	-1E+10	1	-1E+10	1	-1E+10	1	-1E+10	1	-1E+10	1	-1E+10	1
4902549	119	C	12/01/2023	03:02	-132.886	47.535	0	628.10	0	3.9120	0	34.1500	0	27.124	0	621.913	0	18.0	4	5.7	4	-1E+10	1	-1E+10	1	-1E+10	1	-1E+10	1	-1E+10	1	-1E+10	1
4902549	119	C	12/01/2023	03:02	-132.886	47.535	0	632.90	0	3.8960	0	34.1530	0	27.128	0	626.658	0	17.6	4	5.5	4	-1E+10	1	-1E+10	1	-1E+10	1	-1E+10	1	-1E+10	1	-1E+10	1
4902549	119	C	12/01/2023	03:02	-132.886	47.535	0	638.10	0	3.8830	0	34.1580	0	27.133	0	631.799	0	17.0	4	5.4	4	-1E+10	1	-1E+10	1	-1E+10	1	-1E+10	1	-1E+10	1	-1E+10	1
4902549	119	C	12/01/2023	03:02	-132.886	47.535	0	643.00	0	3.8700	0	34.1620	0	27.137	0	636.643	0	16.8	4	5.3	4	-1E+10	1	-1E+10	1	-1E+10	1	-1E+10	1	-1E+10	1	-1E+10	1
4902549	119	C	12/01/2023	03:02	-132.886	47.535	0	648.00	0	3.8570	0	34.1660	0	27.142	0	641.586	0	16.5	4	5.2	4	-1E+10	1	-1E+10	1	-1E+10	1	-1E+10	1	-1E+10	1	-1E+10	1
4902549	119	C	12/01/2023	03:02	-132.886	47.535	0	653.00	0	3.8500	0	34.1680	0	27.144	0	646.529	0	16.3	4	5.1	4	-1E+10	1	-1E+10	1	-1E+10	1	-1E+10	1	-1E+10	1	-1E+10	1
4902549	119	C	12/01/2023	03:02	-132.886	47.535	0	658.20	0	3.8420	0	34.1700	0	27.147	0	651.669	0	16.1	4	5.1	4	-1E+10	1	-1E+10	1	-1E+10	1	-1E+10	1	-1E+10	1	-1E+10	1
4902549	119	C	12/01/2023	03:02	-132.886	47.535	0	663.10	0	3.8340	0	34.1720	0	27.149	0	656.513	0	16.0	4	5.0	4	-1E+10	1	-1E+10	1	-1E+10	1	-1E+10	1	-1E+10	1	-1E+10	1
4902549	119	C	12/01/2023	03:02	-132.886	47.535	0	668.10	0	3.8290	0	34.1730	0	27.151	0	661.455	0	15.7	4	4.9	4	-1E+10	1	-1E+10	1	-1E+10	1	-1E+10	1	-1E+10	1	-1E+10	1
4902549	119	C	12/01/2023	03:02	-132.886	47.535	0	673.20	0	3.8150	0	34.1770	0	27.155	0	666.496	0	15.3	4	4.8	4	-1E+10	1	-1E+10	1	-1E+10	1	-1E+10	1	-1E+10	1	-1E+10	1
4902549	119	C	12/01/2023	03:02	-132.886	47.535	0	677.80	0	3.7920	0	34.1840	0	27.163	0	671.043	0	14.9	4	4.7	4	-1E+10	1	-1E+10	1	-1E+10	1	-1E+10	1	-1E+10	1	-1E+10	1
4902549	119	C	12/01/2023	03:02	-132.886	47.535	0	682.90	0	3.7800	0	34.1890	0	27.168	0	676.084	0	14.7	4	4.6	4	-1E+10	1	-1E+10	1	-1E+10	1	-1E+10	1	-1E+10	1	-1E+10	1
4902549	119	C	12/01/2023	03:02	-132.886	47.535	0	688.10	0	3.7730	0	34.1920	0	27.171	0	681.224	0	14.4	4	4.5	4	-1E+10	1	-1E+10	1	-1E+10	1	-1E+10	1	-1E+10	1	-1E+10	1
4902549	119	C	12/01/2023	03:02	-132.886	47.535	0	692.80	0	3.7690	0	34.1940	0	27.173	0	685.869	0	14.2	4	4.5	4	-1E+10	1	-1E+10	1	-1E+10	1	-1E+10	1	-1E+10	1	-1E+10	1
4902549	119	C	12/01/2023	03:02	-132.886	47.535	0	697.60	0	3.7640	0	34.1960	0	27.176	0	690.613	0	14.0	4	4.4	4	-1E+10	1	-1E+10	1	-1E+10	1	-1E+10	1	-1E+10	1	-1E+10	1
4902549	119	C	12/01/2023	03:02	-132.886	47.535	0	702.50	0	3.7560	0	34.1980	0	27.178	0	695.456	0	13.7	4	4.3	4	-1E+10	1	-1E+10	1	-1E+10	1	-1E+10	1	-1E+10	1	-1E+10	1
4902549	119	C	12/01/2023	03:02	-132.886	47.535	0	707.90	0	3.7500	0	34.2020	0	27.182	0	700.793	0	13.4	4	4.2	4	-1E+10	1	-1E+10	1	-1E+10	1	-1E+10	1	-1E+10	1	-1E+10	1
4902549	119	C	12/01/2023	03:02	-132.886	47.535	0	712.90	0	3.7440	0	34.2050	0	27.185	0	705.734	0	13.2	4	4.1	4	-1E+10	1	-1E+10	1	-1E+10	1	-1E+10	1	-1E+10	1	-1E+10	1
4902549	119	C	12/01/2023	03:02	-132.886	47.535	0	717.50	0	3.7410	0	34.2070	0	27.187	0	710.280	0	12.9	4	4.0	4	-1E+10	1	-1E+10	1	-1E+10	1	-1E+10	1	-1E+10	1	-1E+10	1
4902549	119	C	12/01/2023	03:02	-132.886	47.535	0	722.70	0	3.7350	0	34.2110	0	27.191	0	715.419	0	12.6	4	3.9	4	-1E+10	1	-1E+10	1	-1E+10	1	-1E+10	1	-1E+10	1	-1E+10	1
4902549	119	C	12/01/2023	03:02	-132.886	47.535	0	727.90	0	3.7280	0	34.2140	0	27.194	0	720.557	0	12.3	4	3.9	4	-1E+10	1	-1E+10	1	-1E+10	1	-1E+10	1	-1E+10	1	-1E+10	1
4902549	119	C	12/01/2023	03:02	-132.886	47.535	0	733.10	0	3.7220	0	34.2170	0	27.197	0	725.696	0	12.0	4	3.8	4	-1E+10	1	-1E+10	1	-1E+10	1	-1E+10	1	-1E+10	1	-1E+10	1
4902549	119	C	12/01/2023	03:02	-132.886	47.535	0	737.90	0	3.7170	0	34.2200	0	27.200	0	730.439	0	11.8	4	3.7	4	-1E+10	1	-1E+10	1	-1E+10	1	-1E+10	1	-1E+10	1	-1E+10	1
4902549	119	C	12/01/2023	03:02	-132.886	47.535	0	742.80	0	3.7160	0	34.2210	0	27.200	0	735.281	0	11.5	4	3.6	4	-1E+10	1	-1E+10	1	-1E+10	1	-1E+10	1	-1E+10	1	-1E+10	1
4902549	119	C	12/01/2023	03:02	-132.886	47.535	0	748.20	0	3.7080	0	34.2250	0	27.205	0	740.616	0	11.2	4	3.5	4	-1E+10	1	-1E+10	1	-1E+10	1	-1E+10	1	-1E+10	1	-1E+10	1
4902549	119	C	12/01/2023	03:02	-132.886	47.535	0	753.10	0	3.7010	0	34.2270	0	27.207	0	745.458	0	11.0	4	3.4	4	-1E+10	1	-1E+10	1	-1E+10	1	-1E+10	1	-1E+10	1	-1E+10	1
4902549	119	C	12/01/2023	03:02	-132.886	47.535	0	758.00	0	3.6980	0	34.2280	0	27.208	0	750.299	0	10.7	4	3.3	4	-1E+10	1	-1E+10	1	-1E+10	1	-1E+10	1	-1E+10	1	-1E+10	1
4902549	119	C	12/01/2023	03:02	-132.886	47.535	0	762.90	0	3.6920	0	34.2320	0	27.212	0	755.141	0	10.3	4	3.2	4	-1E+10	1	-1E+10	1	-1E+10	1	-1E+10	1	-1E+10	1	-1E+10	1
4902549	119	C	12/01/2023	03:02	-132.886	47.535	0	767.80	0	3.6820	0	34.2350	0	27.215	0	759.982	0	9.9	4	3.1	4	-1E+10	1	-1E+10	1	-1E+10	1	-1E+10	1	-1E+10	1	-1E+10	1
4902549	119	C	12/01/2023	03:02	-132.886	47.535	0	773.20	0	3.6680	0	34.2420	0	27.222	0	765.317	0	9.6	4	3.0	4	-1E+10	1	-1E+10	1	-1E+10	1	-1E+10	1	-1E+10	1	-1E+10	1
4902549	119	C	12/01/2023	03:02	-132.886	47.535	0	778.00	0	3.6610	0	34.2440	0	27.224	0	770.059	0	9.4	4	2.9	4	-1E+10	1	-1E+10	1	-1E+10	1	-1E+10	1	-1E+10	1	-1E+10	1
4902549	119	C	12/01/2023	03:02	-132.886	47.535	0	782.90	0	3.6520	0	34.2480	0	27.229	0	774.900	0	9.2	4	2.9	4	-1E+10	1	-1E+10	1	-1E+10	1	-1E+10	1	-1E+10	1	-1E+10	1
4902549	119	C	12/01/2023	03:02	-132.886	47.535	0	787.70	0	3.6490	0	34.2500	0	27.230	0	779.642	0	9.1	4	2.8	4	-1E+10	1	-1E+10	1	-1E+10	1	-1E+10	1	-1E+10	1	-1E+10	1
4902549	119	C	12/01/2023	03:02	-132.886	47.535	0	792.50	0	3.6400	0	34.2530	0	27.234	0	784.384	0	9.0	4	2.8	4	-1E+10	1	-1E+10	1	-1E+10	1	-1E+10	1	-1E+10	1	-1E+10	1
4902549	119	C	12/01/2023	03:02	-132.886	47.535	0	797.80	0	3.6290	0	34.2550	0	27.236	0	789.620	0	8.9	4	2.8	4	-1E+10	1	-1E+10	1	-1E+10	1	-1E+10	1	-1E+10	1	-1E+10	1
4902549	119	C	12/01/2023	03:02	-132.886	47.535	0	803.10	0	3.6210	0	34.2560	0	27.238	0	794.855	0	8.8	4	2.7	4	-1E+10	1	-1E+10	1	-1E+10	1	-1E+10	1	-1E+10	1	-1E+10	1
4902549	119	C	12/01/2023	03:02	-132.886	47.535	0	808.30	0	3.6150	0	34.2580	0	27.240	0	799.992	0	8.5	4	2.7	4	-1E+10	1	-1E+10	1	-1E+10	1	-1E+10	1	-1E+10	1	-1E+10	1
4902549	119	C	12/01/2023	03:02	-132.886	47.535	0	812.90	0	3.6140	0	34.2620	0	27.244	0	804.536	0	8.3	4	2.6	4	-1E+10	1	-1E+10	1	-1E+10	1	-1E+10	1	-1E+10	1	-1E+10	1
4902549	119	C	12/01/2023	03:02	-132.886	47.535	0	817.50	0	3.6050	0	34.2650	0	27.247	0	809.080	0	8.2	4	2.6	4	-1E+10	1	-1E+10	1	-1E+10	1	-1E+10	1	-1E+10	1	-1E+10	1
4902549	119	C	12/01/2023	03:02	-132.886	47.535	0	822.80	0	3.5940	0	34.2680	0	27.250	0	814.315	0	8.1	4	2.5	4	-1E+10	1	-1E+10	1	-1E+10	1	-1E+10	1	-1E+10	1	-1E+10	1
4902549	119	C	12/01/2023	03:02	-132.886	47.535	0	828.00	0	3.5910	0	34.2690	0	27.252	0	819.451	0	7.9	4	2.5	4	-1E+10	1	-1E+10	1	-1E+10	1	-1E+10	1	-1E+10	1	-1E+10	1
4902549	119	C	12/01/2023	03:02	-132.886	47.535	0	833.10	0	3.5860	0	34.2740	0	27.256	0	824.488	0	7.6	4	2.4	4	-1E+10	1	-1E+10	1	-1E+10	1	-1E+10	1	-1E+10	1	-1E+10	1
4902549	119	C	12/01/2023	03:02	-132.886	47.535	0	838.30	0	3.5870	0	34.2770	0	27.258	0	829.624	0	7.5	4	2.3	4	-1E+10	1	-1E+10	1	-1E+10	1	-1E+10	1	-1E+10	1	-1E+10	1
4902549	119	C	12/01/2023	03:02	-132.886	47.535	0	842.90	0	3.5830	0	34.2800	0	27.261	0	834.167	0	7.4	4	2.3	4	-1E+10	1	-1E+10	1	-1E+10	1	-1E+10	1	-1E+10	1	-1E+10	1
4902549	119	C	12/01/2023	03:02	-132.886	47.535	0	847.60	0	3.5710	0	34.2820	0	27.264	0	838.809	0	7.4	4	2.3	4	-1E+10	1	-1E+10	1	-1E+10	1	-1E+10	1	-1E+10	1	-1E+10	1
4902549	119	C	12/01/2023	03:02	-132.886	47.535	0	852.80	0	3.5520	0	34.2860	0	27.269	0	843.945	0	7.2	4	2.3	4	-1E+10	1	-1E+10	1	-1E+10	1	-1E+10	1	-1E+10	1	-1E+10	1
4902549	119	C	12/01/2023	03:02	-132.886	47.535	0	858.00	0	3.5440	0	34.2900	0	27.273	0	849.080	0	7.1	4	2.2	4	-1E+10	1	-1E+10	1	-1E+10	1	-1E+10	1	-1E+10	1	-1E+10	1
4902549	119	C	12/01/2023	03:02	-132.886	47.535	0	863.30	0	3.5370	0	34.2930	0	27.276	0	854.314	0	7.0	4	2.2	4	-1E+10	1	-1E+10	1	-1E+10	1	-1E+10	1	-1E+10	1	-1E+10	1
4902549	119	C	12/01/2023	03:02	-132.886	47.535	0	868.00	0	3.5290	0	34.2950	0	27.279	0	858.956	0	7.0	4	2.2	4	-1E+10	1	-1E+10	1	-1E+10	1	-1E+10	1	-1E+10	1	-1E+10	1
4902549	119	C	12/01/2023	03:02	-132.886	47.535	0	872.70	0	3.5100	0	34.2980	0	27.283	0	863.597	0	6.9	4	2.2	4	-1E+10	1	-1E+10	1	-1E+10	1	-1E+10	1	-1E+10	1	-1E+10	1
4902549	119	C	12/01/2023	03:02	-132.886	47.535	0	877.90	0	3.5030	0	34.3020	0	27.287	0	868.732	0	6.9	4	2.2	4	-1E+10	1	-1E+10	1	-1E+10	1	-1E+10	1	-1E+10	1	-1E+10	1
4902549	119	C	12/01/2023	03:02	-132.886	47.535	0	883.10	0	3.4880	0	34.3060	0	27.291	0	873.867	0	6.9	4	2.2	4	-1E+10	1	-1E+10	1	-1E+10	1	-1E+10	1	-1E+10	1	-1E+10	1
4902549	119	C	12/01/2023	03:02	-132.886	47.535	0	887.80	0	3.4710	0	34.3090	0	27.295	0	878.508	0	6.9	4	2.2	4	-1E+10	1	-1E+10	1	-1E+10	1	-1E+10	1	-1E+10	1	-1E+10	1
4902549	119	C	12/01/2023	03:02	-132.886	47.535	0	892.50	0	3.4530	0	34.3120	0	27.300	0	883.149	0	7.0	4	2.2	4	-1E+10	1	-1E+10	1	-1E+10	1	-1E+10	1	-1E+10	1	-1E+10	1
4902549	119	C	12/01/2023	03:02	-132.886	47.535	0	897.70	0	3.4370	0	34.3140	0	27.303	0	888.283	0	7.0	4	2.2	4	-1E+10	1	-1E+10	1	-1E+10	1	-1E+10	1	-1E+10	1	-1E+10	1
4902549	119	C	12/01/2023	03:02	-132.886	47.535	0	902.90	0	3.4200	0	34.3160	0	27.306	0	893.418	0	7.0	4	2.2	4	-1E+10	1	-1E+10	1	-1E+10	1	-1E+10	1	-1E+10	1	-1E+10	1
4902549	119	C	12/01/2023	03:02	-132.886	47.535	0	907.80	0	3.4030	0	34.3190	0	27.310	0	898.256	0	7.0	4	2.2	4	-1E+10	1	-1E+10	1	-1E+10	1	-1E+10	1	-1E+10	1	-1E+10	1
4902549	119	C	12/01/2023	03:02	-132.886	47.535	0	912.60	0	3.3820	0	34.3210	0	27.314	0	902.995	0	6.9	4	2.2	4	-1E+10	1	-1E+10	1	-1E+10	1	-1E+10	1	-1E+10	1	-1E+10	1
4902549	119	C	12/01/2023	03:02	-132.886	47.535	0	917.90	0	3.3780	0	34.3250	0	27.317	0	908.228	0	6.7	4	2.1	4	-1E+10	1	-1E+10	1	-1E+10	1	-1E+10	1	-1E+10	1	-1E+10	1
4902549	119	C	12/01/2023	03:02	-132.886	47.535	0	923.30	0	3.3750	0	34.3290	0	27.321	0	913.559	0	6.6	4	2.1	4	-1E+10	1	-1E+10	1	-1E+10	1	-1E+10	1	-1E+10	1	-1E+10	1
4902549	119	C	12/01/2023	03:02	-132.886	47.535	0	927.90	0	3.3670	0	34.3320	0	27.324	0	918.100	0	6.7	4	2.1	4	-1E+10	1	-1E+10	1	-1E+10	1	-1E+10	1	-1E+10	1	-1E+10	1
4902549	119	C	12/01/2023	03:02	-132.886	47.535	0	932.70	0	3.3550	0	34.3330	0	27.326	0	922.839	0	6.7	4	2.1	4	-1E+10	1	-1E+10	1	-1E+10	1	-1E+10	1	-1E+10	1	-1E+10	1
4902549	119	C	12/01/2023	03:02	-132.886	47.535	0	938.00	0	3.3450	0	34.3340	0	27.328	0	928.071	0	6.8	4	2.1	4	-1E+10	1	-1E+10	1	-1E+10	1	-1E+10	1	-1E+10	1	-1E+10	1
4902549	119	C	12/01/2023	03:02	-132.886	47.535	0	942.90	0	3.3300	0	34.3350	0	27.330	0	932.909	0	6.9	4	2.1	4	-1E+10	1	-1E+10	1	-1E+10	1	-1E+10	1	-1E+10	1	-1E+10	1
4902549	119	C	12/01/2023	03:02	-132.886	47.535	0	947.60	0	3.3010	0	34.3370	0	27.334	0	937.548	0	6.9	4	2.1	4	-1E+10	1	-1E+10	1	-1E+10	1	-1E+10	1	-1E+10	1	-1E+10	1
4902549	119	C	12/01/2023	03:02	-132.886	47.535	0	952.80	0	3.2880	0	34.3380	0	27.336	0	942.681	0	6.8	4	2.1	4	-1E+10	1	-1E+10	1	-1E+10	1	-1E+10	1	-1E+10	1	-1E+10	1
4902549	119	C	12/01/2023	03:02	-132.886	47.535	0	957.90	0	3.2890	0	34.3420	0	27.339	0	947.716	0	6.6	4	2.1	4	-1E+10	1	-1E+10	1	-1E+10	1	-1E+10	1	-1E+10	1	-1E+10	1
4902549	119	C	12/01/2023	03:02	-132.886	47.535	0	962.70	0	3.2930	0	34.3460	0	27.342	0	952.454	0	6.6	4	2.0	4	-1E+10	1	-1E+10	1	-1E+10	1	-1E+10	1	-1E+10	1	-1E+10	1
4902549	119	C	12/01/2023	03:02	-132.886	47.535	0	968.00	0	3.2930	0	34.3490	0	27.345	0	957.685	0	6.6	4	2.1	4	-1E+10	1	-1E+10	1	-1E+10	1	-1E+10	1	-1E+10	1	-1E+10	1
4902549	119	C	12/01/2023	03:02	-132.886	47.535	0	973.30	0	3.2820	0	34.3500	0	27.346	0	962.917	0	6.7	4	2.1	4	-1E+10	1	-1E+10	1	-1E+10	1	-1E+10	1	-1E+10	1	-1E+10	1
4902549	119	C	12/01/2023	03:02	-132.886	47.535	0	978.10	0	3.2590	0	34.3490	0	27.348	0	967.654	0	6.8	4	2.1	4	-1E+10	1	-1E+10	1	-1E+10	1	-1E+10	1	-1E+10	1	-1E+10	1
4902549	119	C	12/01/2023	03:02	-132.886	47.535	0	983.00	0	3.2350	0	34.3510	0	27.352	0	972.491	0	6.9	4	2.1	4	-1E+10	1	-1E+10	1	-1E+10	1	-1E+10	1	-1E+10	1	-1E+10	1
4902549	119	C	12/01/2023	03:02	-132.886	47.535	0	988.00	0	3.2250	0	34.3520	0	27.353	0	977.425	0	6.9	4	2.1	4	-1E+10	1	-1E+10	1	-1E+10	1	-1E+10	1	-1E+10	1	-1E+10	1
4902549	119	C	12/01/2023	03:02	-132.886	47.535	0	993.10	0	3.2110	0	34.3530	0	27.356	0	982.459	0	7.0	4	2.2	4	-1E+10	1	-1E+10	1	-1E+10	1	-1E+10	1	-1E+10	1	-1E+10	1
4902549	119	C	12/01/2023	03:02	-132.886	47.535	0	998.20	0	3.1940	0	34.3540	0	27.358	0	987.492	0	7.0	4	2.2	4	-1E+10	1	-1E+10	1	-1E+10	1	-1E+10	1	-1E+10	1	-1E+10	1
4902549	119	C	12/01/2023	03:02	-132.886	47.535	0	1005.50	0	3.1740	0	34.3550	0	27.361	0	994.697	0	7.0	4	2.2	4	-1E+10	1	-1E+10	1	-1E+10	1	-1E+10	1	-1E+10	1	-1E+10	1
4902549	119	C	12/01/2023	03:02	-132.886	47.535	0	1015.40	0	3.1670	0	34.3600	0	27.365	0	1004.467	0	6.9	4	2.1	4	-1E+10	1	-1E+10	1	-1E+10	1	-1E+10	1	-1E+10	1	-1E+10	1
4902549	119	C	12/01/2023	03:02	-132.886	47.535	0	1025.70	0	3.1560	0	34.3650	0	27.370	0	1014.631	0	6.9	4	2.1	4	-1E+10	1	-1E+10	1	-1E+10	1	-1E+10	1	-1E+10	1	-1E+10	1
4902549	119	C	12/01/2023	03:02	-132.886	47.535	0	1035.40	0	3.1290	0	34.3660	0	27.374	0	1024.202	0	7.0	4	2.2	4	-1E+10	1	-1E+10	1	-1E+10	1	-1E+10	1	-1E+10	1	-1E+10	1
4902549	119	C	12/01/2023	03:02	-132.886	47.535	0	1045.40	0	3.1140	0	34.3690	0	27.378	0	1034.070	0	7.0	4	2.2	4	-1E+10	1	-1E+10	1	-1E+10	1	-1E+10	1	-1E+10	1	-1E+10	1
4902549	119	C	12/01/2023	03:02	-132.886	47.535	0	1055.30	0	3.0920	0	34.3710	0	27.381	0	1043.838	0	7.1	4	2.2	4	-1E+10	1	-1E+10	1	-1E+10	1	-1E+10	1	-1E+10	1	-1E+10	1
4902549	119	C	12/01/2023	03:02	-132.886	47.535	0	1065.20	0	3.0570	0	34.3750	0	27.388	0	1053.605	0	7.2	4	2.2	4	-1E+10	1	-1E+10	1	-1E+10	1	-1E+10	1	-1E+10	1	-1E+10	1
4902549	119	C	12/01/2023	03:02	-132.886	47.535	0	1075.40	0	3.0380	0	34.3790	0	27.393	0	1063.668	0	7.2	4	2.2	4	-1E+10	1	-1E+10	1	-1E+10	1	-1E+10	1	-1E+10	1	-1E+10	1
4902549	119	C	12/01/2023	03:02	-132.886	47.535	0	1085.70	0	3.0190	0	34.3830	0	27.398	0	1073.830	0	7.3	4	2.2	4	-1E+10	1	-1E+10	1	-1E+10	1	-1E+10	1	-1E+10	1	-1E+10	1
4902549	119	C	12/01/2023	03:02	-132.886	47.535	0	1095.60	0	3.0000	0	34.3860	0	27.402	0	1083.596	0	7.3	4	2.3	4	-1E+10	1	-1E+10	1	-1E+10	1	-1E+10	1	-1E+10	1	-1E+10	1
4902549	119	C	12/01/2023	03:02	-132.886	47.535	0	1105.60	0	2.9900	0	34.3910	0	27.407	0	1093.460	0	7.4	4	2.3	4	-1E+10	1	-1E+10	1	-1E+10	1	-1E+10	1	-1E+10	1	-1E+10	1
4902549	119	C	12/01/2023	03:02	-132.886	47.535	0	1115.50	0	2.9770	0	34.3940	0	27.410	0	1103.226	0	7.4	4	2.3	4	-1E+10	1	-1E+10	1	-1E+10	1	-1E+10	1	-1E+10	1	-1E+10	1
4902549	119	C	12/01/2023	03:02	-132.886	47.535	0	1125.50	0	2.9650	0	34.3960	0	27.413	0	1113.089	0	7.5	4	2.3	4	-1E+10	1	-1E+10	1	-1E+10	1	-1E+10	1	-1E+10	1	-1E+10	1
4902549	119	C	12/01/2023	03:02	-132.886	47.535	0	1135.70	0	2.9530	0	34.3990	0	27.417	0	1123.149	0	7.5	4	2.3	4	-1E+10	1	-1E+10	1	-1E+10	1	-1E+10	1	-1E+10	1	-1E+10	1
4902549	119	C	12/01/2023	03:02	-132.886	47.535	0	1145.50	0	2.9400	0	34.4010	0	27.419	0	1132.815	0	7.6	4	2.4	4	-1E+10	1	-1E+10	1	-1E+10	1	-1E+10	1	-1E+10	1	-1E+10	1
4902549	119	C	12/01/2023	03:02	-132.886	47.535	0	1155.50	0	2.9180	0	34.4050	0	27.425	0	1142.677	0	7.7	4	2.4	4	-1E+10	1	-1E+10	1	-1E+10	1	-1E+10	1	-1E+10	1	-1E+10	1
4902549	119	C	12/01/2023	03:02	-132.886	47.535	0	1165.70	0	2.9040	0	34.4080	0	27.428	0	1152.736	0	7.9	4	2.4	4	-1E+10	1	-1E+10	1	-1E+10	1	-1E+10	1	-1E+10	1	-1E+10	1
4902549	119	C	12/01/2023	03:02	-132.886	47.535	0	1175.40	0	2.8910	0	34.4100	0	27.431	0	1162.301	0	8.0	4	2.5	4	-1E+10	1	-1E+10	1	-1E+10	1	-1E+10	1	-1E+10	1	-1E+10	1
4902549	119	C	12/01/2023	03:02	-132.886	47.535	0	1185.30	0	2.8680	0	34.4140	0	27.436	0	1172.063	0	8.2	4	2.5	4	-1E+10	1	-1E+10	1	-1E+10	1	-1E+10	1	-1E+10	1	-1E+10	1
4902549	119	C	12/01/2023	03:02	-132.886	47.535	0	1195.10	0	2.8450	0	34.4180	0	27.442	0	1181.726	0	8.4	4	2.6	4	-1E+10	1	-1E+10	1	-1E+10	1	-1E+10	1	-1E+10	1	-1E+10	1
4902549	119	C	12/01/2023	03:02	-132.886	47.535	0	1205.20	0	2.8270	0	34.4210	0	27.446	0	1191.684	0	8.6	4	2.6	4	-1E+10	1	-1E+10	1	-1E+10	1	-1E+10	1	-1E+10	1	-1E+10	1
4902549	119	C	12/01/2023	03:02	-132.886	47.535	0	1215.30	0	2.8100	0	34.4250	0	27.451	0	1201.642	0	8.8	4	2.7	4	-1E+10	1	-1E+10	1	-1E+10	1	-1E+10	1	-1E+10	1	-1E+10	1
4902549	119	C	12/01/2023	03:02	-132.886	47.535	0	1225.40	0	2.8020	0	34.4290	0	27.454	0	1211.600	0	9.0	4	2.8	4	-1E+10	1	-1E+10	1	-1E+10	1	-1E+10	1	-1E+10	1	-1E+10	1
4902549	119	C	12/01/2023	03:02	-132.886	47.535	0	1235.60	0	2.7870	0	34.4330	0	27.459	0	1221.655	0	9.3	4	2.8	4	-1E+10	1	-1E+10	1	-1E+10	1	-1E+10	1	-1E+10	1	-1E+10	1
4902549	119	C	12/01/2023	03:02	-132.886	47.535	0	1245.40	0	2.7670	0	34.4360	0	27.463	0	1231.316	0	9.5	4	2.9	4	-1E+10	1	-1E+10	1	-1E+10	1	-1E+10	1	-1E+10	1	-1E+10	1
4902549	119	C	12/01/2023	03:02	-132.886	47.535	0	1255.30	0	2.7550	0	34.4380	0	27.466	0	1241.075	0	9.6	4	3.0	4	-1E+10	1	-1E+10	1	-1E+10	1	-1E+10	1	-1E+10	1	-1E+10	1
4902549	119	C	12/01/2023	03:02	-132.886	47.535	0	1265.30	0	2.7420	0	34.4400	0	27.469	0	1250.932	0	9.9	4	3.0	4	-1E+10	1	-1E+10	1	-1E+10	1	-1E+10	1	-1E+10	1	-1E+10	1
4902549	119	C	12/01/2023	03:02	-132.886	47.535	0	1275.30	0	2.7260	0	34.4430	0	27.473	0	1260.788	0	10.2	4	3.1	4	-1E+10	1	-1E+10	1	-1E+10	1	-1E+10	1	-1E+10	1	-1E+10	1
4902549	119	C	12/01/2023	03:02	-132.886	47.535	0	1285.30	0	2.7180	0	34.4460	0	27.476	0	1270.644	0	10.5	4	3.2	4	-1E+10	1	-1E+10	1	-1E+10	1	-1E+10	1	-1E+10	1	-1E+10	1
4902549	119	C	12/01/2023	03:02	-132.886	47.535	0	1295.50	0	2.7010	0	34.4490	0	27.480	0	1280.697	0	10.8	4	3.3	4	-1E+10	1	-1E+10	1	-1E+10	1	-1E+10	1	-1E+10	1	-1E+10	1
4902549	119	C	12/01/2023	03:02	-132.886	47.535	0	1305.30	0	2.6880	0	34.4520	0	27.483	0	1290.355	0	11.2	4	3.4	4	-1E+10	1	-1E+10	1	-1E+10	1	-1E+10	1	-1E+10	1	-1E+10	1
4902549	119	C	12/01/2023	03:02	-132.886	47.535	0	1315.10	0	2.6710	0	34.4560	0	27.488	0	1300.013	0	11.6	4	3.6	4	-1E+10	1	-1E+10	1	-1E+10	1	-1E+10	1	-1E+10	1	-1E+10	1
4902549	119	C	12/01/2023	03:02	-132.886	47.535	0	1325.30	0	2.6600	0	34.4590	0	27.491	0	1310.064	0	12.0	4	3.7	4	-1E+10	1	-1E+10	1	-1E+10	1	-1E+10	1	-1E+10	1	-1E+10	1
4902549	119	C	12/01/2023	03:02	-132.886	47.535	0	1335.50	0	2.6510	0	34.4610	0	27.494	0	1320.115	0	12.4	4	3.8	4	-1E+10	1	-1E+10	1	-1E+10	1	-1E+10	1	-1E+10	1	-1E+10	1
4902549	119	C	12/01/2023	03:02	-132.886	47.535	0	1345.70	0	2.6320	0	34.4650	0	27.499	0	1330.165	0	12.9	4	4.0	4	-1E+10	1	-1E+10	1	-1E+10	1	-1E+10	1	-1E+10	1	-1E+10	1
4902549	119	C	12/01/2023	03:02	-132.886	47.535	0	1355.40	0	2.6130	0	34.4680	0	27.503	0	1339.722	0	13.5	4	4.1	4	-1E+10	1	-1E+10	1	-1E+10	1	-1E+10	1	-1E+10	1	-1E+10	1
4902549	119	C	12/01/2023	03:02	-132.886	47.535	0	1365.10	0	2.5940	0	34.4720	0	27.508	0	1349.279	0	14.0	4	4.3	4	-1E+10	1	-1E+10	1	-1E+10	1	-1E+10	1	-1E+10	1	-1E+10	1
4902549	119	C	12/01/2023	03:02	-132.886	47.535	0	1375.20	0	2.5680	0	34.4760	0	27.513	0	1359.229	0	14.7	4	4.5	4	-1E+10	1	-1E+10	1	-1E+10	1	-1E+10	1	-1E+10	1	-1E+10	1
4902549	119	C	12/01/2023	03:02	-132.886	47.535	0	1385.40	0	2.5500	0	34.4790	0	27.517	0	1369.278	0	15.3	4	4.7	4	-1E+10	1	-1E+10	1	-1E+10	1	-1E+10	1	-1E+10	1	-1E+10	1
4902549	119	C	12/01/2023	03:02	-132.886	47.535	0	1395.50	0	2.5300	0	34.4820	0	27.521	0	1379.227	0	15.9	4	4.9	4	-1E+10	1	-1E+10	1	-1E+10	1	-1E+10	1	-1E+10	1	-1E+10	1
4902549	119	C	12/01/2023	03:02	-132.886	47.535	0	1405.30	0	2.5110	0	34.4850	0	27.525	0	1388.881	0	16.5	4	5.0	4	-1E+10	1	-1E+10	1	-1E+10	1	-1E+10	1	-1E+10	1	-1E+10	1
4902549	119	C	12/01/2023	03:02	-132.886	47.535	0	1415.10	0	2.4950	0	34.4870	0	27.528	0	1398.534	0	17.1	4	5.2	4	-1E+10	1	-1E+10	1	-1E+10	1	-1E+10	1	-1E+10	1	-1E+10	1
4902549	119	C	12/01/2023	03:02	-132.886	47.535	0	1425.20	0	2.4670	0	34.4910	0	27.534	0	1408.482	0	17.9	4	5.5	4	-1E+10	1	-1E+10	1	-1E+10	1	-1E+10	1	-1E+10	1	-1E+10	1
4902549	119	C	12/01/2023	03:02	-132.886	47.535	0	1435.00	0	2.4420	0	34.4950	0	27.539	0	1418.134	0	18.7	4	5.7	4	-1E+10	1	-1E+10	1	-1E+10	1	-1E+10	1	-1E+10	1	-1E+10	1
4902549	119	C	12/01/2023	03:02	-132.886	47.535	0	1445.00	0	2.4270	0	34.4980	0	27.543	0	1427.983	0	19.3	4	5.9	4	-1E+10	1	-1E+10	1	-1E+10	1	-1E+10	1	-1E+10	1	-1E+10	1
4902549	119	C	12/01/2023	03:02	-132.886	47.535	0	1455.30	0	2.4160	0	34.5000	0	27.545	0	1438.127	0	19.9	4	6.1	4	-1E+10	1	-1E+10	1	-1E+10	1	-1E+10	1	-1E+10	1	-1E+10	1
4902549	119	C	12/01/2023	03:02	-132.886	47.535	0	1465.30	0	2.3990	0	34.5030	0	27.549	0	1447.974	0	20.6	4	6.3	4	-1E+10	1	-1E+10	1	-1E+10	1	-1E+10	1	-1E+10	1	-1E+10	1
4902549	119	C	12/01/2023	03:02	-132.886	47.535	0	1475.50	0	2.3800	0	34.5050	0	27.552	0	1458.018	0	21.0	4	6.4	4	-1E+10	1	-1E+10	1	-1E+10	1	-1E+10	1	-1E+10	1	-1E+10	1
4902549	119	C	12/01/2023	03:02	-132.886	47.535	0	1485.90	0	2.3710	0	34.5070	0	27.555	0	1468.259	0	21.4	4	6.5	4	-1E+10	1	-1E+10	1	-1E+10	1	-1E+10	1	-1E+10	1	-1E+10	1
4902549	119	C	12/01/2023	03:02	-132.886	47.535	0	1495.90	0	2.3630	0	34.5080	0	27.556	0	1478.105	0	22.1	4	6.7	4	-1E+10	1	-1E+10	1	-1E+10	1	-1E+10	1	-1E+10	1	-1E+10	1
4902549	119	C	12/01/2023	03:02	-132.886	47.535	0	1505.60	0	2.3570	0	34.5110	0	27.559	0	1487.656	0	22.8	4	6.9	4	-1E+10	1	-1E+10	1	-1E+10	1	-1E+10	1	-1E+10	1	-1E+10	1
4902549	119	C	12/01/2023	03:02	-132.886	47.535	0	1515.00	0	2.3460	0	34.5130	0	27.562	0	1496.911	0	23.3	4	7.1	4	-1E+10	1	-1E+10	1	-1E+10	1	-1E+10	1	-1E+10	1	-1E+10	1
4902549	119	C	12/01/2023	03:02	-132.886	47.535	0	1525.20	0	2.3350	0	34.5150	0	27.564	0	1506.952	0	23.9	4	7.3	4	-1E+10	1	-1E+10	1	-1E+10	1	-1E+10	1	-1E+10	1	-1E+10	1
4902549	119	C	12/01/2023	03:02	-132.886	47.535	0	1535.60	0	2.3210	0	34.5170	0	27.567	0	1517.191	0	24.5	4	7.4	4	-1E+10	1	-1E+10	1	-1E+10	1	-1E+10	1	-1E+10	1	-1E+10	1
4902549	119	C	12/01/2023	03:02	-132.886	47.535	0	1545.60	0	2.3090	0	34.5190	0	27.570	0	1527.035	0	25.2	4	7.7	4	-1E+10	1	-1E+10	1	-1E+10	1	-1E+10	1	-1E+10	1	-1E+10	1
4902549	119	C	12/01/2023	03:02	-132.886	47.535	0	1555.30	0	2.2980	0	34.5210	0	27.572	0	1536.583	0	25.8	4	7.8	4	-1E+10	1	-1E+10	1	-1E+10	1	-1E+10	1	-1E+10	1	-1E+10	1
4902549	119	C	12/01/2023	03:02	-132.886	47.535	0	1565.20	0	2.2910	0	34.5230	0	27.575	0	1546.328	0	26.4	4	8.0	4	-1E+10	1	-1E+10	1	-1E+10	1	-1E+10	1	-1E+10	1	-1E+10	1
4902549	119	C	12/01/2023	03:02	-132.886	47.535	0	1575.30	0	2.2770	0	34.5250	0	27.577	0	1556.269	0	27.3	4	8.3	4	-1E+10	1	-1E+10	1	-1E+10	1	-1E+10	1	-1E+10	1	-1E+10	1
4902549	119	C	12/01/2023	03:02	-132.886	47.535	0	1585.20	0	2.2640	0	34.5280	0	27.581	0	1566.013	0	28.3	4	8.6	4	-1E+10	1	-1E+10	1	-1E+10	1	-1E+10	1	-1E+10	1	-1E+10	1
4902549	119	C	12/01/2023	03:02	-132.886	47.535	0	1595.40	0	2.2560	0	34.5300	0	27.583	0	1576.051	0	29.0	4	8.8	4	-1E+10	1	-1E+10	1	-1E+10	1	-1E+10	1	-1E+10	1	-1E+10	1
4902549	119	C	12/01/2023	03:02	-132.886	47.535	0	1605.40	0	2.2460	0	34.5330	0	27.586	0	1585.893	0	29.6	4	9.0	4	-1E+10	1	-1E+10	1	-1E+10	1	-1E+10	1	-1E+10	1	-1E+10	1
4902549	119	C	12/01/2023	03:02	-132.886	47.535	0	1615.00	0	2.2380	0	34.5340	0	27.588	0	1595.340	0	30.1	4	9.1	4	-1E+10	1	-1E+10	1	-1E+10	1	-1E+10	1	-1E+10	1	-1E+10	1
4902549	119	C	12/01/2023	03:02	-132.886	47.535	0	1625.30	0	2.2310	0	34.5360	0	27.590	0	1605.475	0	30.7	4	9.3	4	-1E+10	1	-1E+10	1	-1E+10	1	-1E+10	1	-1E+10	1	-1E+10	1
4902549	119	C	12/01/2023	03:02	-132.886	47.535	0	1635.70	0	2.2210	0	34.5380	0	27.593	0	1615.709	0	31.4	4	9.5	4	-1E+10	1	-1E+10	1	-1E+10	1	-1E+10	1	-1E+10	1	-1E+10	1
4902549	119	C	12/01/2023	03:02	-132.886	47.535	0	1645.90	0	2.2130	0	34.5390	0	27.594	0	1625.745	0	31.9	4	9.7	4	-1E+10	1	-1E+10	1	-1E+10	1	-1E+10	1	-1E+10	1	-1E+10	1
4902549	119	C	12/01/2023	03:02	-132.886	47.535	0	1655.50	0	2.2030	0	34.5410	0	27.597	0	1635.191	0	32.5	4	9.8	4	-1E+10	1	-1E+10	1	-1E+10	1	-1E+10	1	-1E+10	1	-1E+10	1
4902549	119	C	12/01/2023	03:02	-132.886	47.535	0	1665.70	0	2.1940	0	34.5420	0	27.598	0	1645.226	0	33.0	4	10.0	4	-1E+10	1	-1E+10	1	-1E+10	1	-1E+10	1	-1E+10	1	-1E+10	1
4902549	119	C	12/01/2023	03:02	-132.886	47.535	0	1675.50	0	2.1870	0	34.5440	0	27.600	0	1654.867	0	33.3	4	10.1	4	-1E+10	1	-1E+10	1	-1E+10	1	-1E+10	1	-1E+10	1	-1E+10	1
4902549	119	C	12/01/2023	03:02	-132.886	47.535	0	1685.30	0	2.1830	0	34.5440	0	27.601	0	1664.508	0	33.5	4	10.2	4	-1E+10	1	-1E+10	1	-1E+10	1	-1E+10	1	-1E+10	1	-1E+10	1
4902549	119	C	12/01/2023	03:02	-132.886	47.535	0	1695.10	0	2.1770	0	34.5450	0	27.602	0	1674.148	0	34.1	4	10.3	4	-1E+10	1	-1E+10	1	-1E+10	1	-1E+10	1	-1E+10	1	-1E+10	1
4902549	119	C	12/01/2023	03:02	-132.886	47.535	0	1705.10	0	2.1640	0	34.5470	0	27.605	0	1683.985	0	34.8	4	10.5	4	-1E+10	1	-1E+10	1	-1E+10	1	-1E+10	1	-1E+10	1	-1E+10	1
4902549	119	C	12/01/2023	03:02	-132.886	47.535	0	1715.40	0	2.1550	0	34.5480	0	27.606	0	1694.116	0	35.5	4	10.8	4	-1E+10	1	-1E+10	1	-1E+10	1	-1E+10	1	-1E+10	1	-1E+10	1
4902549	119	C	12/01/2023	03:02	-132.886	47.535	0	1725.40	0	2.1430	0	34.5500	0	27.609	0	1703.952	0	36.2	4	11.0	4	-1E+10	1	-1E+10	1	-1E+10	1	-1E+10	1	-1E+10	1	-1E+10	1
4902549	119	C	12/01/2023	03:02	-132.886	47.535	0	1735.40	0	2.1350	0	34.5520	0	27.611	0	1713.788	0	36.9	4	11.2	4	-1E+10	1	-1E+10	1	-1E+10	1	-1E+10	1	-1E+10	1	-1E+10	1
4902549	119	C	12/01/2023	03:02	-132.886	47.535	0	1745.40	0	2.1200	0	34.5540	0	27.614	0	1723.622	0	37.8	4	11.4	4	-1E+10	1	-1E+10	1	-1E+10	1	-1E+10	1	-1E+10	1	-1E+10	1
4902549	119	C	12/01/2023	03:02	-132.886	47.535	0	1755.40	0	2.1010	0	34.5570	0	27.618	0	1733.457	0	38.7	4	11.7	4	-1E+10	1	-1E+10	1	-1E+10	1	-1E+10	1	-1E+10	1	-1E+10	1
4902549	119	C	12/01/2023	03:02	-132.886	47.535	0	1765.60	0	2.0940	0	34.5580	0	27.619	0	1743.487	0	39.3	4	11.9	4	-1E+10	1	-1E+10	1	-1E+10	1	-1E+10	1	-1E+10	1	-1E+10	1
4902549	119	C	12/01/2023	03:02	-132.886	47.535	0	1775.40	0	2.0840	0	34.5600	0	27.622	0	1753.124	0	39.8	4	12.0	4	-1E+10	1	-1E+10	1	-1E+10	1	-1E+10	1	-1E+10	1	-1E+10	1
4902549	119	C	12/01/2023	03:02	-132.886	47.535	0	1785.30	0	2.0790	0	34.5610	0	27.623	0	1762.859	0	40.3	4	12.2	4	-1E+10	1	-1E+10	1	-1E+10	1	-1E+10	1	-1E+10	1	-1E+10	1
4902549	119	C	12/01/2023	03:02	-132.886	47.535	0	1795.40	0	2.0670	0	34.5620	0	27.625	0	1772.790	0	40.8	4	12.3	4	-1E+10	1	-1E+10	1	-1E+10	1	-1E+10	1	-1E+10	1	-1E+10	1
4902549	119	C	12/01/2023	03:02	-132.886	47.535	0	1805.50	0	2.0530	0	34.5630	0	27.627	0	1782.720	0	41.3	4	12.5	4	-1E+10	1	-1E+10	1	-1E+10	1	-1E+10	1	-1E+10	1	-1E+10	1
4902549	119	C	12/01/2023	03:02	-132.886	47.535	0	1815.90	0	2.0440	0	34.5640	0	27.628	0	1792.945	0	41.9	4	12.6	4	-1E+10	1	-1E+10	1	-1E+10	1	-1E+10	1	-1E+10	1	-1E+10	1
4902549	119	C	12/01/2023	03:02	-132.886	47.535	0	1825.30	0	2.0350	0	34.5660	0	27.631	0	1802.187	0	42.3	4	12.8	4	-1E+10	1	-1E+10	1	-1E+10	1	-1E+10	1	-1E+10	1	-1E+10	1
4902549	119	C	12/01/2023	03:02	-132.886	47.535	0	1835.30	0	2.0340	0	34.5660	0	27.631	0	1812.017	0	42.7	4	12.9	4	-1E+10	1	-1E+10	1	-1E+10	1	-1E+10	1	-1E+10	1	-1E+10	1
4902549	119	C	12/01/2023	03:02	-132.886	47.535	0	1845.50	0	2.0260	0	34.5680	0	27.633	0	1822.044	0	43.2	4	13.0	4	-1E+10	1	-1E+10	1	-1E+10	1	-1E+10	1	-1E+10	1	-1E+10	1
4902549	119	C	12/01/2023	03:02	-132.886	47.535	0	1855.60	0	2.0230	0	34.5680	0	27.634	0	1831.972	0	43.6	4	13.1	4	-1E+10	1	-1E+10	1	-1E+10	1	-1E+10	1	-1E+10	1	-1E+10	1
4902549	119	C	12/01/2023	03:02	-132.886	47.535	0	1865.60	0	2.0180	0	34.5690	0	27.635	0	1841.802	0	44.2	4	13.3	4	-1E+10	1	-1E+10	1	-1E+10	1	-1E+10	1	-1E+10	1	-1E+10	1
4902549	119	C	12/01/2023	03:02	-132.886	47.535	0	1875.60	0	2.0090	0	34.5710	0	27.637	0	1851.631	0	44.7	4	13.5	4	-1E+10	1	-1E+10	1	-1E+10	1	-1E+10	1	-1E+10	1	-1E+10	1
4902549	119	C	12/01/2023	03:02	-132.886	47.535	0	1885.70	0	2.0050	0	34.5720	0	27.638	0	1861.558	0	45.3	4	13.7	4	-1E+10	1	-1E+10	1	-1E+10	1	-1E+10	1	-1E+10	1	-1E+10	1
4902549	119	C	12/01/2023	03:02	-132.886	47.535	0	1895.50	0	2.0000	0	34.5730	0	27.640	0	1871.189	0	45.8	4	13.8	4	-1E+10	1	-1E+10	1	-1E+10	1	-1E+10	1	-1E+10	1	-1E+10	1
4902549	119	C	12/01/2023	03:02	-132.886	47.535	0	1905.10	0	1.9970	0	34.5740	0	27.641	0	1880.623	0	46.3	4	14.0	4	-1E+10	1	-1E+10	1	-1E+10	1	-1E+10	1	-1E+10	1	-1E+10	1
4902549	119	C	12/01/2023	03:02	-132.886	47.535	0	1915.00	0	1.9910	0	34.5750	0	27.642	0	1890.352	0	47.0	4	14.2	4	-1E+10	1	-1E+10	1	-1E+10	1	-1E+10	1	-1E+10	1	-1E+10	1
4902549	119	C	12/01/2023	03:02	-132.886	47.535	0	1924.90	0	1.9840	0	34.5770	0	27.644	0	1900.081	0	47.7	4	14.4	4	-1E+10	1	-1E+10	1	-1E+10	1	-1E+10	1	-1E+10	1	-1E+10	1
4902549	119	C	12/01/2023	03:02	-132.886	47.535	0	1935.00	0	1.9810	0	34.5790	0	27.646	0	1910.005	0	48.4	4	14.6	4	-1E+10	1	-1E+10	1	-1E+10	1	-1E+10	1	-1E+10	1	-1E+10	1
4902549	119	C	12/01/2023	03:02	-132.886	47.535	0	1945.10	0	1.9790	0	34.5800	0	27.647	0	1919.929	0	48.9	4	14.7	4	-1E+10	1	-1E+10	1	-1E+10	1	-1E+10	1	-1E+10	1	-1E+10	1
4902549	119	C	12/01/2023	03:02	-132.886	47.535	0	1955.40	0	1.9740	0	34.5810	0	27.648	0	1930.049	0	49.4	4	14.9	4	-1E+10	1	-1E+10	1	-1E+10	1	-1E+10	1	-1E+10	1	-1E+10	1
4902549	119	C	12/01/2023	03:02	-132.886	47.535	0	1965.30	0	1.9640	0	34.5820	0	27.650	0	1939.776	0	49.8	4	15.0	4	-1E+10	1	-1E+10	1	-1E+10	1	-1E+10	1	-1E+10	1	-1E+10	1
4902549	119	C	12/01/2023	03:02	-132.886	47.535	0	1975.30	0	1.9570	0	34.5830	0	27.651	0	1949.600	0	50.4	4	15.2	4	-1E+10	1	-1E+10	1	-1E+10	1	-1E+10	1	-1E+10	1	-1E+10	1
4902549	119	C	12/01/2023	03:02	-132.886	47.535	0	1985.30	0	1.9530	0	34.5840	0	27.653	0	1959.424	0	50.7	4	15.3	4	-1E+10	1	-1E+10	1	-1E+10	1	-1E+10	1	-1E+10	1	-1E+10	1
4902549	119	C	12/01/2023	03:02	-132.886	47.535	0																										
4902549	120	C	12/11/2023	07:57	-132.883	47.587	0	0.40	0	10.4180	0	32.3180	0	24.789	0	0.397	0	259.2	4	93.4	4	-1E+10	1	-1E+10	1	-1E+10	1	-1E+10	1	-1E+10	1	-1E+10	1
4902549	120	C	12/11/2023	07:57	-132.883	47.587	0	0.50	0	10.4195	0	32.3167	0	24.787	0	0.496	0	259.2	4	93.4	4	-1E+10	1	-1E+10	1	-1E+10	1	-1E+10	1	-1E+10	1	-1E+10	1
4902549	120	C	12/11/2023	07:57	-132.883	47.587	0	1.00	0	10.4270	0	32.3100	0	24.781	0	0.992	0	259.2	4	93.4	4	-1E+10	1	-1E+10	1	-1E+10	1	-1E+10	1	-1E+10	1	-1E+10	1
4902549	120	C	12/11/2023	07:57	-132.883	47.587	0	2.20	0	10.4300	0	32.3080	0	24.779	0	2.182	0	259.2	4	93.5	4	-1E+10	1	-1E+10	1	-1E+10	1	-1E+10	1	-1E+10	1	-1E+10	1
4902549	120	C	12/11/2023	07:57	-132.883	47.587	0	2.80	0	10.4300	0	32.3080	0	24.779	0	2.777	0	259.2	4	93.4	4	-1E+10	1	-1E+10	1	-1E+10	1	-1E+10	1	-1E+10	1	-1E+10	1
4902549	120	C	12/11/2023	07:57	-132.883	47.587	0	3.90	0	10.4300	0	32.3080	0	24.779	0	3.867	0	259.2	4	93.4	4	-1E+10	1	-1E+10	1	-1E+10	1	-1E+10	1	-1E+10	1	-1E+10	1
4902549	120	C	12/11/2023	07:57	-132.883	47.587	0	4.80	0	10.4300	0	32.3100	0	24.781	0	4.760	0	259.1	4	93.4	4	-1E+10	1	-1E+10	1	-1E+10	1	-1E+10	1	-1E+10	1	-1E+10	1
4902549	120	C	12/11/2023	07:57	-132.883	47.587	0	5.80	0	10.4300	0	32.3090	0	24.780	0	5.751	0	259.0	4	93.4	4	-1E+10	1	-1E+10	1	-1E+10	1	-1E+10	1	-1E+10	1	-1E+10	1
4902549	120	C	12/11/2023	07:57	-132.883	47.587	0	7.10	0	10.4300	0	32.3090	0	24.780	0	7.041	0	259.1	4	93.4	4	-1E+10	1	-1E+10	1	-1E+10	1	-1E+10	1	-1E+10	1	-1E+10	1
4902549	120	C	12/11/2023	07:57	-132.883	47.587	0	8.10	0	10.4300	0	32.3090	0	24.780	0	8.032	0	259.2	4	93.4	4	-1E+10	1	-1E+10	1	-1E+10	1	-1E+10	1	-1E+10	1	-1E+10	1
4902549	120	C	12/11/2023	07:57	-132.883	47.587	0	9.10	0	10.4300	0	32.3090	0	24.780	0	9.024	0	259.0	4	93.4	4	-1E+10	1	-1E+10	1	-1E+10	1	-1E+10	1	-1E+10	1	-1E+10	1
4902549	120	C	12/11/2023	07:57	-132.883	47.587	0	10.10	0	10.4310	0	32.3090	0	24.780	0	10.015	0	259.0	4	93.4	4	-1E+10	1	-1E+10	1	-1E+10	1	-1E+10	1	-1E+10	1	-1E+10	1
4902549	120	C	12/11/2023	07:57	-132.883	47.587	0	10.80	0	10.4310	0	32.3100	0	24.780	0	10.709	0	259.0	4	93.4	4	-1E+10	1	-1E+10	1	-1E+10	1	-1E+10	1	-1E+10	1	-1E+10	1
4902549	120	C	12/11/2023	07:57	-132.883	47.587	0	11.80	0	10.4300	0	32.3090	0	24.780	0	11.701	0	259.0	4	93.4	4	-1E+10	1	-1E+10	1	-1E+10	1	-1E+10	1	-1E+10	1	-1E+10	1
4902549	120	C	12/11/2023	07:57	-132.883	47.587	0	13.10	0	10.4300	0	32.3090	0	24.780	0	12.990	0	259.0	4	93.4	4	-1E+10	1	-1E+10	1	-1E+10	1	-1E+10	1	-1E+10	1	-1E+10	1
4902549	120	C	12/11/2023	07:57	-132.883	47.587	0	14.10	0	10.4290	0	32.3090	0	24.780	0	13.982	0	259.0	4	93.4	4	-1E+10	1	-1E+10	1	-1E+10	1	-1E+10	1	-1E+10	1	-1E+10	1
4902549	120	C	12/11/2023	07:57	-132.883	47.587	0	14.80	0	10.4310	0	32.3090	0	24.780	0	14.676	0	259.1	4	93.4	4	-1E+10	1	-1E+10	1	-1E+10	1	-1E+10	1	-1E+10	1	-1E+10	1
4902549	120	C	12/11/2023	07:57	-132.883	47.587	0	15.80	0	10.4300	0	32.3090	0	24.780	0	15.667	0	259.0	4	93.4	4	-1E+10	1	-1E+10	1	-1E+10	1	-1E+10	1	-1E+10	1	-1E+10	1
4902549	120	C	12/11/2023	07:57	-132.883	47.587	0	17.00	0	10.4300	0	32.3090	0	24.780	0	16.857	0	259.1	4	93.4	4	-1E+10	1	-1E+10	1	-1E+10	1	-1E+10	1	-1E+10	1	-1E+10	1
4902549	120	C	12/11/2023	07:57	-132.883	47.587	0	17.80	0	10.4300	0	32.3090	0	24.780	0	17.651	0	258.9	4	93.3	4	-1E+10	1	-1E+10	1	-1E+10	1	-1E+10	1	-1E+10	1	-1E+10	1
4902549	120	C	12/11/2023	07:57	-132.883	47.587	0	18.90	0	10.4300	0	32.3090	0	24.780	0	18.741	0	259.0	4	93.4	4	-1E+10	1	-1E+10	1	-1E+10	1	-1E+10	1	-1E+10	1	-1E+10	1
4902549	120	C	12/11/2023	07:57	-132.883	47.587	0	20.10	0	10.4300	0	32.3090	0	24.780	0	19.931	0	259.0	4	93.4	4	-1E+10	1	-1E+10	1	-1E+10	1	-1E+10	1	-1E+10	1	-1E+10	1
4902549	120	C	12/11/2023	07:57	-132.883	47.587	0	20.80	0	10.4300	0	32.3090	0	24.780	0	20.625	0	259.0	4	93.4	4	-1E+10	1	-1E+10	1	-1E+10	1	-1E+10	1	-1E+10	1	-1E+10	1
4902549	120	C	12/11/2023	07:57	-132.883	47.587	0	21.90	0	10.4310	0	32.3090	0	24.780	0	21.716	0	258.9	4	93.3	4	-1E+10	1	-1E+10	1	-1E+10	1	-1E+10	1	-1E+10	1	-1E+10	1
4902549	120	C	12/11/2023	07:57	-132.883	47.587	0	23.00	0	10.4310	0	32.3090	0	24.780	0	22.807	0	258.9	4	93.4	4	-1E+10	1	-1E+10	1	-1E+10	1	-1E+10	1	-1E+10	1	-1E+10	1
4902549	120	C	12/11/2023	07:57	-132.883	47.587	0	24.00	0	10.4310	0	32.3090	0	24.780	0	23.798	0	259.0	4	93.4	4	-1E+10	1	-1E+10	1	-1E+10	1	-1E+10	1	-1E+10	1	-1E+10	1
4902549	120	C	12/11/2023	07:57	-132.883	47.587	0	25.10	0	10.4310	0	32.3100	0	24.781	0	24.889	0	258.9	4	93.3	4	-1E+10	1	-1E+10	1	-1E+10	1	-1E+10	1	-1E+10	1	-1E+10	1
4902549	120	C	12/11/2023	07:57	-132.883	47.587	0	25.80	0	10.4310	0	32.3090	0	24.780	0	25.583	0	258.9	4	93.3	4	-1E+10	1	-1E+10	1	-1E+10	1	-1E+10	1	-1E+10	1	-1E+10	1
4902549	120	C	12/11/2023	07:57	-132.883	47.587	0	26.90	0	10.4310	0	32.3090	0	24.780	0	26.674	0	258.9	4	93.3	4	-1E+10	1	-1E+10	1	-1E+10	1	-1E+10	1	-1E+10	1	-1E+10	1
4902549	120	C	12/11/2023	07:57	-132.883	47.587	0	28.00	0	10.4310	0	32.3100	0	24.781	0	27.764	0	258.8	4	93.3	4	-1E+10	1	-1E+10	1	-1E+10	1	-1E+10	1	-1E+10	1	-1E+10	1
4902549	120	C	12/11/2023	07:57	-132.883	47.587	0	28.80	0	10.4310	0	32.3100	0	24.781	0	28.557	0	258.9	4	93.3	4	-1E+10	1	-1E+10	1	-1E+10	1	-1E+10	1	-1E+10	1	-1E+10	1
4902549	120	C	12/11/2023	07:57	-132.883	47.587	0	29.90	0	10.4320	0	32.3090	0	24.780	0	29.648	0	258.9	4	93.3	4	-1E+10	1	-1E+10	1	-1E+10	1	-1E+10	1	-1E+10	1	-1E+10	1
4902549	120	C	12/11/2023	07:57	-132.883	47.587	0	31.10	0	10.4310	0	32.3100	0	24.781	0	30.838	0	258.8	4	93.3	4	-1E+10	1	-1E+10	1	-1E+10	1	-1E+10	1	-1E+10	1	-1E+10	1
4902549	120	C	12/11/2023	07:57	-132.883	47.587	0	31.90	0	10.4330	0	32.3090	0	24.780	0	31.631	0	258.8	4	93.3	4	-1E+10	1	-1E+10	1	-1E+10	1	-1E+10	1	-1E+10	1	-1E+10	1
4902549	120	C	12/11/2023	07:57	-132.883	47.587	0	32.70	0	10.4330	0	32.3090	0	24.780	0	32.424	0	258.8	4	93.3	4	-1E+10	1	-1E+10	1	-1E+10	1	-1E+10	1	-1E+10	1	-1E+10	1
4902549	120	C	12/11/2023	07:57	-132.883	47.587	0	33.90	0	10.4330	0	32.3090	0	24.780	0	33.614	0	258.8	4	93.3	4	-1E+10	1	-1E+10	1	-1E+10	1	-1E+10	1	-1E+10	1	-1E+10	1
4902549	120	C	12/11/2023	07:57	-132.883	47.587	0	35.10	0	10.4330	0	32.3090	0	24.780	0	34.804	0	258.7	4	93.3	4	-1E+10	1	-1E+10	1	-1E+10	1	-1E+10	1	-1E+10	1	-1E+10	1
4902549	120	C	12/11/2023	07:57	-132.883	47.587	0	35.90	0	10.4330	0	32.3090	0	24.780	0	35.597	0	258.8	4	93.3	4	-1E+10	1	-1E+10	1	-1E+10	1	-1E+10	1	-1E+10	1	-1E+10	1
4902549	120	C	12/11/2023	07:57	-132.883	47.587	0	36.70	0	10.4330	0	32.3090	0	24.780	0	36.390	0	258.7	4	93.3	4	-1E+10	1	-1E+10	1	-1E+10	1	-1E+10	1	-1E+10	1	-1E+10	1
4902549	120	C	12/11/2023	07:57	-132.883	47.587	0	37.90	0	10.4330	0	32.3090	0	24.780	0	37.580	0	258.7	4	93.3	4	-1E+10	1	-1E+10	1	-1E+10	1	-1E+10	1	-1E+10	1	-1E+10	1
4902549	120	C	12/11/2023	07:57	-132.883	47.587	0	39.00	0	10.4330	0	32.3100	0	24.781	0	38.671	0	258.7	4	93.3	4	-1E+10	1	-1E+10	1	-1E+10	1	-1E+10	1	-1E+10	1	-1E+10	1
4902549	120	C	12/11/2023	07:57	-132.883	47.587	0	39.80	0	10.4330	0	32.3100	0	24.781	0	39.464	0	258.7	4	93.3	4	-1E+10	1	-1E+10	1	-1E+10	1	-1E+10	1	-1E+10	1	-1E+10	1
4902549	120	C	12/11/2023	07:57	-132.883	47.587	0	40.90	0	10.4330	0	32.3090	0	24.780	0	40.554	0	258.7	4	93.3	4	-1E+10	1	-1E+10	1	-1E+10	1	-1E+10	1	-1E+10	1	-1E+10	1
4902549	120	C	12/11/2023	07:57	-132.883	47.587	0	42.10	0	10.4330	0	32.3090	0	24.780	0	41.744	0	258.6	4	93.2	4	-1E+10	1	-1E+10	1	-1E+10	1	-1E+10	1	-1E+10	1	-1E+10	1
4902549	120	C	12/11/2023	07:57	-132.883	47.587	0	42.90	0	10.4340	0	32.3100	0	24.781	0	42.537	0	258.7	4	93.3	4	-1E+10	1	-1E+10	1	-1E+10	1	-1E+10	1	-1E+10	1	-1E+10	1
4902549	120	C	12/11/2023	07:57	-132.883	47.587	0	44.00	0	10.4340	0	32.3090	0	24.780	0	43.628	0	258.6	4	93.2	4	-1E+10	1	-1E+10	1	-1E+10	1	-1E+10	1	-1E+10	1	-1E+10	1
4902549	120	C	12/11/2023	07:57	-132.883	47.587	0	45.20	0	10.4340	0	32.3090	0	24.780	0	44.817	0	258.6	4	93.2	4	-1E+10	1	-1E+10	1	-1E+10	1	-1E+10	1	-1E+10	1	-1E+10	1
4902549	120	C	12/11/2023	07:57	-132.883	47.587	0	46.00	0	10.4350	0	32.3090	0	24.780	0	45.611	0	258.6	4	93.2	4	-1E+10	1	-1E+10	1	-1E+10	1	-1E+10	1	-1E+10	1	-1E+10	1
4902549	120	C	12/11/2023	07:57	-132.883	47.587	0	46.70	0	10.4340	0	32.3090	0	24.780	0	46.305	0	258.5	4	93.2	4	-1E+10	1	-1E+10	1	-1E+10	1	-1E+10	1	-1E+10	1	-1E+10	1
4902549	120	C	12/11/2023	07:57	-132.883	47.587	0	47.80	0	10.4340	0	32.3090	0	24.780	0	47.395	0	258.5	4	93.2	4	-1E+10	1	-1E+10	1	-1E+10	1	-1E+10	1	-1E+10	1	-1E+10	1
4902549	120	C	12/11/2023	07:57	-132.883	47.587	0	49.00	0	10.4340	0	32.3090	0	24.780	0	48.585	0	258.5	4	93.2	4	-1E+10	1	-1E+10	1	-1E+10	1	-1E+10	1	-1E+10	1	-1E+10	1
4902549	120	C	12/11/2023	07:57	-132.883	47.587	0	49.80	0	10.4340	0	32.3100	0	24.781	0	49.378	0	258.4	4	93.2	4	-1E+10	1	-1E+10	1	-1E+10	1	-1E+10	1	-1E+10	1	-1E+10	1
4902549	120	C	12/11/2023	07:57	-132.883	47.587	0	50.90	0	10.4340	0	32.3090	0	24.780	0	50.469	0	258.4	4	93.1	4	-1E+10	1	-1E+10	1	-1E+10	1	-1E+10	1	-1E+10	1	-1E+10	1
4902549	120	C	12/11/2023	07:57	-132.883	47.587	0	52.00	0	10.4340	0	32.3100	0	24.781	0	51.559	0	258.4	4	93.2	4	-1E+10	1	-1E+10	1	-1E+10	1	-1E+10	1	-1E+10	1	-1E+10	1
4902549	120	C	12/11/2023	07:57	-132.883	47.587	0	52.80	0	10.4340	0	32.3100	0	24.781	0	52.352	0	258.3	4	93.1	4	-1E+10	1	-1E+10	1	-1E+10	1	-1E+10	1	-1E+10	1	-1E+10	1
4902549	120	C	12/11/2023	07:57	-132.883	47.587	0	53.90	0	10.4350	0	32.3090	0	24.780	0	53.443	0	258.3	4	93.1	4	-1E+10	1	-1E+10	1	-1E+10	1	-1E+10	1	-1E+10	1	-1E+10	1
4902549	120	C	12/11/2023	07:57	-132.883	47.587	0	55.00	0	10.4340	0	32.3100	0	24.781	0	54.533	0	258.3	4	93.1	4	-1E+10	1	-1E+10	1	-1E+10	1	-1E+10	1	-1E+10	1	-1E+10	1
4902549	120	C	12/11/2023	07:57	-132.883	47.587	0	55.80	0	10.4340	0	32.3090	0	24.780	0	55.326	0	258.2	4	93.1	4	-1E+10	1	-1E+10	1	-1E+10	1	-1E+10	1	-1E+10	1	-1E+10	1
4902549	120	C	12/11/2023	07:57	-132.883	47.587	0	56.80	0	10.4340	0	32.3090	0	24.780	0	56.318	0	258.1	4	93.1	4	-1E+10	1	-1E+10	1	-1E+10	1	-1E+10	1	-1E+10	1	-1E+10	1
4902549	120	C	12/11/2023	07:57	-132.883	47.587	0	58.00	0	10.4330	0	32.3100	0	24.781	0	57.507	0	258.0	4	93.0	4	-1E+10	1	-1E+10	1	-1E+10	1	-1E+10	1	-1E+10	1	-1E+10	1
4902549	120	C	12/11/2023	07:57	-132.883	47.587	0	59.00	0	10.4300	0	32.3060	0	24.778	0	58.499	0	258.0	4	93.0	4	-1E+10	1	-1E+10	1	-1E+10	1	-1E+10	1	-1E+10	1	-1E+10	1
4902549	120	C	12/11/2023	07:57	-132.883	47.587	0	60.00	0	10.4300	0	32.3100	0	24.782	0	59.490	0	257.9	4	93.0	4	-1E+10	1	-1E+10	1	-1E+10	1	-1E+10	1	-1E+10	1	-1E+10	1
4902549	120	C	12/11/2023	07:57	-132.883	47.587	0	61.00	0	10.4310	0	32.3100	0	24.781	0	60.481	0	257.7	4	92.9	4	-1E+10	1	-1E+10	1	-1E+10	1	-1E+10	1	-1E+10	1	-1E+10	1
4902549	120	C	12/11/2023	07:57	-132.883	47.587	0	62.10	0	10.4310	0	32.3100	0	24.781	0	61.572	0	257.6	4	92.9	4	-1E+10	1	-1E+10	1	-1E+10	1	-1E+10	1	-1E+10	1	-1E+10	1
4902549	120	C	12/11/2023	07:57	-132.883	47.587	0	63.10	0	10.4300	0	32.3100	0	24.782	0	62.563	0	257.4	4	92.8	4	-1E+10	1	-1E+10	1	-1E+10	1	-1E+10	1	-1E+10	1	-1E+10	1
4902549	120	C	12/11/2023	07:57	-132.883	47.587	0	64.10	0	10.4300	0	32.3100	0	24.782	0	63.555	0	257.2	4	92.7	4	-1E+10	1	-1E+10	1	-1E+10	1	-1E+10	1	-1E+10	1	-1E+10	1
4902549	120	C	12/11/2023	07:57	-132.883	47.587	0	64.80	0	10.4280	0	32.3100	0	24.782	0	64.249	0	257.1	4	92.7	4	-1E+10	1	-1E+10	1	-1E+10	1	-1E+10	1	-1E+10	1	-1E+10	1
4902549	120	C	12/11/2023	07:57	-132.883	47.587	0	65.80	0	10.4270	0	32.3100	0	24.782	0	65.240	0	256.8	4	92.6	4	-1E+10	1	-1E+10	1	-1E+10	1	-1E+10	1	-1E+10	1	-1E+10	1
4902549	120	C	12/11/2023	07:57	-132.883	47.587	0	66.80	0	10.4270	0	32.3100	0	24.782	0	66.231	0	256.6	4	92.5	4	-1E+10	1	-1E+10	1	-1E+10	1	-1E+10	1	-1E+10	1	-1E+10	1
4902549	120	C	12/11/2023	07:57	-132.883	47.587	0	67.80	0	10.4190	0	32.3110	0	24.784	0	67.223	0	256.3	4	92.4	4	-1E+10	1	-1E+10	1	-1E+10	1	-1E+10	1	-1E+10	1	-1E+10	1
4902549	120	C	12/11/2023	07:57	-132.883	47.587	0	69.00	0	10.3990	0	32.3130	0	24.789	0	68.412	0	255.9	4	92.2	4	-1E+10	1	-1E+10	1	-1E+10	1	-1E+10	1	-1E+10	1	-1E+10	1
4902549	120	C	12/11/2023	07:57	-132.883	47.587	0	70.10	0	10.3660	0	32.3150	0	24.797	0	69.503	0	255.7	4	92.0	4	-1E+10	1	-1E+10	1	-1E+10	1	-1E+10	1	-1E+10	1	-1E+10	1
4902549	120	C	12/11/2023	07:57	-132.883	47.587	0	71.30	0	10.2900	0	32.3280	0	24.819	0	70.692	0	255.5	4	91.9	4	-1E+10	1	-1E+10	1	-1E+10	1	-1E+10	1	-1E+10	1	-1E+10	1
4902549	120	C	12/11/2023	07:57	-132.883	47.587	0	72.00	0	10.2380	0	32.3320	0	24.831	0	71.386	0	255.3	4	91.7	4	-1E+10	1	-1E+10	1	-1E+10	1	-1E+10	1	-1E+10	1	-1E+10	1
4902549	120	C	12/11/2023	07:57	-132.883	47.587	0	73.00	0	10.1280	0	32.3470	0	24.861	0	72.377	0	254.8	4	91.3	4	-1E+10	1	-1E+10	1	-1E+10	1	-1E+10	1	-1E+10	1	-1E+10	1
4902549	120	C	12/11/2023	07:57	-132.883	47.587	0	73.90	0	10.0130	0	32.3570	0	24.888	0	73.270	0	254.4	4	90.9	4	-1E+10	1	-1E+10	1	-1E+10	1	-1E+10	1	-1E+10	1	-1E+10	1
4902549	120	C	12/11/2023	07:57	-132.883	47.587	0	75.00	0	9.8570	0	32.3720	0	24.926	0	74.360	0	253.9	4	90.4	4	-1E+10	1	-1E+10	1	-1E+10	1	-1E+10	1	-1E+10	1	-1E+10	1
4902549	120	C	12/11/2023	07:57	-132.883	47.587	0	76.00	0	9.5650	0	32.4150	0	25.007	0	75.351	0	253.9	4	89.9	4	-1E+10	1	-1E+10	1	-1E+10	1	-1E+10	1	-1E+10	1	-1E+10	1
4902549	120	C	12/11/2023	07:57	-132.883	47.587	0	77.10	0	9.1870	0	32.4400	0	25.086	0	76.442	0	254.6	4	89.4	4	-1E+10	1	-1E+10	1	-1E+10	1	-1E+10	1	-1E+10	1	-1E+10	1
4902549	120	C	12/11/2023	07:57	-132.883	47.587	0	78.10	0	8.9610	0	32.4830	0	25.155	0	77.433	0	254.2	4	88.9	4	-1E+10	1	-1E+10	1	-1E+10	1	-1E+10	1	-1E+10	1	-1E+10	1
4902549	120	C	12/11/2023	07:57	-132.883	47.587	0	78.90	0	8.6130	0	32.5020	0	25.223	0	78.226	0	254.3	4	88.2	4	-1E+10	1	-1E+10	1	-1E+10	1	-1E+10	1	-1E+10	1	-1E+10	1
4902549	120	C	12/11/2023	07:57	-132.883	47.587	0	80.10	0	8.1660	0	32.5440	0	25.323	0	79.415	0	255.7	4	87.9	4	-1E+10	1	-1E+10	1	-1E+10	1	-1E+10	1	-1E+10	1	-1E+10	1
4902549	120	C	12/11/2023	07:57	-132.883	47.587	0	81.00	0	8.0940	0	32.5600	0	25.346	0	80.308	0	255.7	4	87.7	4	-1E+10	1	-1E+10	1	-1E+10	1	-1E+10	1	-1E+10	1	-1E+10	1
4902549	120	C	12/11/2023	07:57	-132.883	47.587	0	82.10	0	8.0720	0	32.5640	0	25.352	0	81.398	0	255.6	4	87.7	4	-1E+10	1	-1E+10	1	-1E+10	1	-1E+10	1	-1E+10	1	-1E+10	1
4902549	120	C	12/11/2023	07:57	-132.883	47.587	0	82.80	0	8.0590	0	32.5650	0	25.355	0	82.092	0	262.0	4	89.8	4	-1E+10	1	-1E+10	1	-1E+10	1	-1E+10	1	-1E+10	1	-1E+10	1
4902549	120	C	12/11/2023	07:57	-132.883	47.587	0	84.10	0	8.0510	0	32.5660	0	25.357	0	83.380	0	261.8	4	89.7	4	-1E+10	1	-1E+10	1	-1E+10	1	-1E+10	1	-1E+10	1	-1E+10	1
4902549	120	C	12/11/2023	07:57	-132.883	47.587	0	85.10	0	8.0300	0	32.5670	0	25.361	0	84.372	0	261.6	4	89.6	4	-1E+10	1	-1E+10	1	-1E+10	1	-1E+10	1	-1E+10	1	-1E+10	1
4902549	120	C	12/11/2023	07:57	-132.883	47.587	0	86.00	0	7.9460	0	32.5670	0	25.373	0	85.264	0	261.7	4	89.5	4	-1E+10	1	-1E+10	1	-1E+10	1	-1E+10	1	-1E+10	1	-1E+10	1
4902549	120	C	12/11/2023	07:57	-132.883	47.587	0	86.90	0	7.8850	0	32.5630	0	25.378	0	86.156	0	261.8	4	89.4	4	-1E+10	1	-1E+10	1	-1E+10	1	-1E+10	1	-1E+10	1	-1E+10	1
4902549	120	C	12/11/2023	07:57	-132.883	47.587	0	87.90	0	7.8800	0	32.5650	0	25.381	0	87.147	0	261.3	4	89.2	4	-1E+10	1	-1E+10	1	-1E+10	1	-1E+10	1	-1E+10	1	-1E+10	1
4902549	120	C	12/11/2023	07:57	-132.883	47.587	0	88.90	0	7.8800	0	32.5700	0	25.385	0	88.138	0	261.0	4	89.1	4	-1E+10	1	-1E+10	1	-1E+10	1	-1E+10	1	-1E+10	1	-1E+10	1
4902549	120	C	12/11/2023	07:57	-132.883	47.587	0	89.90	0	7.8770	0	32.5700	0	25.385	0	89.130	0	260.5	4	89.0	4	-1E+10	1	-1E+10	1	-1E+10	1	-1E+10	1	-1E+10	1	-1E+10	1
4902549	120	C	12/11/2023	07:57	-132.883	47.587	0	90.90	0	7.8590	0	32.5750	0	25.392	0	90.121	0	260.0	4	88.8	4	-1E+10	1	-1E+10	1	-1E+10	1	-1E+10	1	-1E+10	1	-1E+10	1
4902549	120	C	12/11/2023	07:57	-132.883	47.587	0	91.90	0	7.8440	0	32.5810	0	25.398	0	91.112	0	259.6	4	88.6	4	-1E+10	1	-1E+10	1	-1E+10	1	-1E+10	1	-1E+10	1	-1E+10	1
4902549	120	C	12/11/2023	07:57	-132.883	47.587	0	92.90	0	7.8190	0	32.5810	0	25.402	0	92.103	0	259.1	4	88.4	4	-1E+10	1	-1E+10	1	-1E+10	1	-1E+10	1	-1E+10	1	-1E+10	1
4902549	120	C	12/11/2023	07:57	-132.883	47.587	0	93.90	0	7.8070	0	32.5810	0	25.404	0	93.094	0	258.3	4	88.1	4	-1E+10	1	-1E+10	1	-1E+10	1	-1E+10	1	-1E+10	1	-1E+10	1
4902549	120	C	12/11/2023	07:57	-132.883	47.587	0	95.00	0	7.7850	0	32.5850	0	25.410	0	94.185	0	257.6	4	87.8	4	-1E+10	1	-1E+10	1	-1E+10	1	-1E+10	1	-1E+10	1	-1E+10	1
4902549	120	C	12/11/2023	07:57	-132.883	47.587	0	96.00	0	7.7530	0	32.5920	0	25.420	0	95.176	0	256.8	4	87.5	4	-1E+10	1	-1E+10	1	-1E+10	1	-1E+10	1	-1E+10	1	-1E+10	1
4902549	120	C	12/11/2023	07:57	-132.883	47.587	0	97.20	0	7.7380	0	32.5940	0	25.424	0	96.365	0	255.5	4	87.0	4	-1E+10	1	-1E+10	1	-1E+10	1	-1E+10	1	-1E+10	1	-1E+10	1
4902549	120	C	12/11/2023	07:57	-132.883	47.587	0	97.90	0	7.7250	0	32.5950	0	25.426	0	97.059	0	254.5	4	86.6	4	-1E+10	1	-1E+10	1	-1E+10	1	-1E+10	1	-1E+10	1	-1E+10	1
4902549	120	C	12/11/2023	07:57	-132.883	47.587	0	98.80	0	7.7100	0	32.5990	0	25.432	0	97.951	0	253.2	4	86.1	4	-1E+10	1	-1E+10	1	-1E+10	1	-1E+10	1	-1E+10	1	-1E+10	1
4902549	120	C	12/11/2023	07:57	-132.883	47.587	0	99.70	0	7.6710	0	32.6130	0	25.448	0	98.843	0	252.1	4	85.7	4	-1E+10	1	-1E+10	1	-1E+10	1	-1E+10	1	-1E+10	1	-1E+10	1
4902549	120	C	12/11/2023	07:57	-132.883	47.587	0	101.10	0	7.6110	0	32.6320	0	25.472	0	100.231	0	250.3	4	85.0	4	-1E+10	1	-1E+10	1	-1E+10	1	-1E+10	1	-1E+10	1	-1E+10	1
4902549	120	C	12/11/2023	07:57	-132.883	47.587	0	102.10	0	7.5480	0	32.6510	0	25.495	0	101.222	0	249.1	4	84.5	4	-1E+10	1	-1E+10	1	-1E+10	1	-1E+10	1	-1E+10	1	-1E+10	1
4902549	120	C	12/11/2023	07:57	-132.883	47.587	0	103.10	0	7.4440	0	32.6620	0	25.518	0	102.213	0	247.9	4	83.9	4	-1E+10	1	-1E+10	1	-1E+10	1	-1E+10	1	-1E+10	1	-1E+10	1
4902549	120	C	12/11/2023	07:57	-132.883	47.587	0	104.30	0	7.3650	0	32.6760	0	25.540	0	103.403	0	246.1	4	83.1	4	-1E+10	1	-1E+10	1	-1E+10	1	-1E+10	1	-1E+10	1	-1E+10	1
4902549	120	C	12/11/2023	07:57	-132.883	47.587	0	105.00	0	7.3940	0	32.6990	0	25.554	0	104.096	0	244.3	4	82.6	4	-1E+10	1	-1E+10	1	-1E+10	1	-1E+10	1	-1E+10	1	-1E+10	1
4902549	120	C	12/11/2023	07:57	-132.883	47.587	0	106.10	0	7.4090	0	32.7490	0	25.592	0	105.187	0	242.5	4	82.0	4	-1E+10	1	-1E+10	1	-1E+10	1	-1E+10	1	-1E+10	1	-1E+10	1
4902549	120	C	12/11/2023	07:57	-132.883	47.587	0	107.00	0	7.4070	0	32.7840	0	25.620	0	106.079	0	241.4	4	81.7	4	-1E+10	1	-1E+10	1	-1E+10	1	-1E+10	1	-1E+10	1	-1E+10	1
4902549	120	C	12/11/2023	07:57	-132.883	47.587	0	107.80	0	7.4010	0	32.8070	0	25.638	0	106.872	0	240.5	4	81.4	4	-1E+10	1	-1E+10	1	-1E+10	1	-1E+10	1	-1E+10	1	-1E+10	1
4902549	120	C	12/11/2023	07:57	-132.883	47.587	0	109.00	0	7.3970	0	32.8320	0	25.659	0	108.061	0	239.4	4	81.0	4	-1E+10	1	-1E+10	1	-1E+10	1	-1E+10	1	-1E+10	1	-1E+10	1
4902549	120	C	12/11/2023	07:57	-132.883	47.587	0	109.90	0	7.3910	0	32.8460	0	25.671	0	108.953	0	238.6	4	80.8	4	-1E+10	1	-1E+10	1	-1E+10	1	-1E+10	1	-1E+10	1	-1E+10	1
4902549	120	C	12/11/2023	07:57	-132.883	47.587	0	110.80	0	7.3850	0	32.8520	0	25.676	0	109.845	0	237.8	4	80.5	4	-1E+10	1	-1E+10	1	-1E+10	1	-1E+10	1	-1E+10	1	-1E+10	1
4902549	120	C	12/11/2023	07:57	-132.883	47.587	0	112.10	0	7.3770	0	32.8610	0	25.684	0	111.133	0	236.4	4	80.0	4	-1E+10	1	-1E+10	1	-1E+10	1	-1E+10	1	-1E+10	1	-1E+10	1
4902549	120	C	12/11/2023	07:57	-132.883	47.587	0	113.00	0	7.3660	0	32.8720	0	25.695	0	112.025	0	235.3	4	79.6	4	-1E+10	1	-1E+10	1	-1E+10	1	-1E+10	1	-1E+10	1	-1E+10	1
4902549	120	C	12/11/2023	07:57	-132.883	47.587	0	113.90	0	7.3500	0	32.8850	0	25.707	0	112.917	0	234.1	4	79.2	4	-1E+10	1	-1E+10	1	-1E+10	1	-1E+10	1	-1E+10	1	-1E+10	1
4902549	120	C	12/11/2023	07:57	-132.883	47.587	0	114.80	0	7.3320	0	32.9030	0	25.724	0	113.809	0	232.9	4	78.7	4	-1E+10	1	-1E+10	1	-1E+10	1	-1E+10	1	-1E+10	1	-1E+10	1
4902549	120	C	12/11/2023	07:57	-132.883	47.587	0	115.80	0	7.3000	0	32.9290	0	25.748	0	114.800	0	231.7	4	78.3	4	-1E+10	1	-1E+10	1	-1E+10	1	-1E+10	1	-1E+10	1	-1E+10	1
4902549	120	C	12/11/2023	07:57	-132.883	47.587	0	117.10	0	7.2500	0	32.9640	0	25.783	0	116.089	0	230.4	4	77.8	4	-1E+10	1	-1E+10	1	-1E+10	1	-1E+10	1	-1E+10	1	-1E+10	1
4902549	120	C	12/11/2023	07:57	-132.883	47.587	0	118.10	0	7.2230	0	32.9880	0	25.805	0	117.080	0	229.5	4	77.5	4	-1E+10	1	-1E+10	1	-1E+10	1	-1E+10	1	-1E+10	1	-1E+10	1
4902549	120	C	12/11/2023	07:57	-132.883	47.587	0	118.90	0	7.1840	0	33.0240	0	25.839	0	117.873	0	229.1	4	77.3	4	-1E+10	1	-1E+10	1	-1E+10	1	-1E+10	1	-1E+10	1	-1E+10	1
4902549	120	C	12/11/2023	07:57	-132.883	47.587	0	119.90	0	7.1250	0	33.0600	0	25.876	0	118.864	0	228.7	4	77.0	4	-1E+10	1	-1E+10	1	-1E+10	1	-1E+10	1	-1E+10	1	-1E+10	1
4902549	120	C	12/11/2023	07:57	-132.883	47.587	0	121.10	0	7.0720	0	33.0930	0	25.909	0	120.053	0	228.3	4	76.8	4	-1E+10	1	-1E+10	1	-1E+10	1	-1E+10	1	-1E+10	1	-1E+10	1
4902549	120	C	12/11/2023	07:57	-132.883	47.587	0	121.90	0	7.0540	0	33.1070	0	25.922	0	120.846	0	228.1	4	76.8	4	-1E+10	1	-1E+10	1	-1E+10	1	-1E+10	1	-1E+10	1	-1E+10	1
4902549	120	C	12/11/2023	07:57	-132.883	47.587	0	122.70	0	7.0500	0	33.1090	0	25.924	0	121.639	0	227.9	4	76.7	4	-1E+10	1	-1E+10	1	-1E+10	1	-1E+10	1	-1E+10	1	-1E+10	1
4902549	120	C	12/11/2023	07:57	-132.883	47.587	0	123.90	0	7.0410	0	33.1150	0	25.930	0	122.828	0	227.4	4	76.5	4	-1E+10	1	-1E+10	1	-1E+10	1	-1E+10	1	-1E+10	1	-1E+10	1
4902549	120	C	12/11/2023	07:57	-132.883	47.587	0	125.20	0	7.0360	0	33.1180	0	25.933	0	124.116	0	227.0	4	76.4	4	-1E+10	1	-1E+10	1	-1E+10	1	-1E+10	1	-1E+10	1	-1E+10	1
4902549	120	C	12/11/2023	07:57	-132.883	47.587	0	126.00	0	7.0290	0	33.1240	0	25.939	0	124.909	0	226.6	4	76.2	4	-1E+10	1	-1E+10	1	-1E+10	1	-1E+10	1	-1E+10	1	-1E+10	1
4902549	120	C	12/11/2023	07:57	-132.883	47.587	0	126.80	0	7.0240	0	33.1280	0	25.943	0	125.702	0	226.2	4	76.1	4	-1E+10	1	-1E+10	1	-1E+10	1	-1E+10	1	-1E+10	1	-1E+10	1
4902549	120	C	12/11/2023	07:57	-132.883	47.587	0	127.90	0	7.0100	0	33.1320	0	25.948	0	126.792	0	225.6	4	75.8	4	-1E+10	1	-1E+10	1	-1E+10	1	-1E+10	1	-1E+10	1	-1E+10	1
4902549	120	C	12/11/2023	07:57	-132.883	47.587	0	129.10	0	6.9940	0	33.1370	0	25.954	0	127.981	0	224.9	4	75.6	4	-1E+10	1	-1E+10	1	-1E+10	1	-1E+10	1	-1E+10	1	-1E+10	1
4902549	120	C	12/11/2023	07:57	-132.883	47.587	0	129.80	0	6.8980	0	33.1760	0	25.998	0	128.675	0	224.4	4	75.3	4	-1E+10	1	-1E+10	1	-1E+10	1	-1E+10	1	-1E+10	1	-1E+10	1
4902549	120	C	12/11/2023	07:57	-132.883	47.587	0	130.60	0	6.8580	0	33.1900	0	26.014	0	129.468	0	223.9	4	75.0	4	-1E+10	1	-1E+10	1	-1E+10	1	-1E+10	1	-1E+10	1	-1E+10	1
4902549	120	C	12/11/2023	07:57	-132.883	47.587	0	131.90	0	6.7860	0	33.2130	0	26.042	0	130.756	0	223.1	4	74.7	4	-1E+10	1	-1E+10	1	-1E+10	1	-1E+10	1	-1E+10	1	-1E+10	1
4902549	120	C	12/11/2023	07:57	-132.883	47.587	0	133.20	0	6.7290	0	33.2390	0	26.070	0	132.045	0	222.1	4	74.2	4	-1E+10	1	-1E+10	1	-1E+10	1	-1E+10	1	-1E+10	1	-1E+10	1
4902549	120	C	12/11/2023	07:57	-132.883	47.587	0	134.10	0	6.7200	0	33.2440	0	26.075	0	132.937	0	221.4	4	74.0	4	-1E+10	1	-1E+10	1	-1E+10	1	-1E+10	1	-1E+10	1	-1E+10	1
4902549	120	C	12/11/2023	07:57	-132.883	47.587	0	135.00	0	6.7190	0	33.2570	0	26.085	0	133.828	0	220.6	4	73.8	4	-1E+10	1	-1E+10	1	-1E+10	1	-1E+10	1	-1E+10	1	-1E+10	1
4902549	120	C	12/11/2023	07:57	-132.883	47.587	0	135.90	0	6.6180	0	33.2850	0	26.121	0	134.720	0	220.2	4	73.4	4	-1E+10	1	-1E+10	1	-1E+10	1	-1E+10	1	-1E+10	1	-1E+10	1
4902549	120	C	12/11/2023	07:57	-132.883	47.587	0	136.80	0	6.5950	0	33.2950	0	26.131	0	135.612	0	219.6	4	73.2	4	-1E+10	1	-1E+10	1	-1E+10	1	-1E+10	1	-1E+10	1	-1E+10	1
4902549	120	C	12/11/2023	07:57	-132.883	47.587	0	137.80	0	6.5690	0	33.3310	0	26.163	0	136.603	0	218.8	4	72.9	4	-1E+10	1	-1E+10	1	-1E+10	1	-1E+10	1	-1E+10	1	-1E+10	1
4902549	120	C	12/11/2023	07:57	-132.883	47.587	0	138.80	0	6.5540	0	33.3370	0	26.170	0	137.594	0	218.2	4	72.7	4	-1E+10	1	-1E+10	1	-1E+10	1	-1E+10	1	-1E+10	1	-1E+10	1
4902549	120	C	12/11/2023	07:57	-132.883	47.587	0	139.80	0	6.5450	0	33.3560	0	26.186	0	138.585	0	217.7	4	72.5	4	-1E+10	1	-1E+10	1	-1E+10	1	-1E+10	1	-1E+10	1	-1E+10	1
4902549	120	C	12/11/2023	07:57	-132.883	47.587	0	140.80	0	6.5310	0	33.3690	0	26.198	0	139.576	0	217.2	4	72.3	4	-1E+10	1	-1E+10	1	-1E+10	1	-1E+10	1	-1E+10	1	-1E+10	1
4902549	120	C	12/11/2023	07:57	-132.883	47.587	0	141.80	0	6.5160	0	33.3800	0	26.209	0	140.567	0	216.6	4	72.1	4	-1E+10	1	-1E+10	1	-1E+10	1	-1E+10	1	-1E+10	1	-1E+10	1
4902549	120	C	12/11/2023	07:57	-132.883	47.587	0	142.80	0	6.5130	0	33.3820	0	26.211	0	141.558	0	216.1	4	72.0	4	-1E+10	1	-1E+10	1	-1E+10	1	-1E+10	1	-1E+10	1	-1E+10	1
4902549	120	C	12/11/2023	07:57	-132.883	47.587	0	143.70	0	6.4980	0	33.3890	0	26.218	0	142.450	0	215.6	4	71.8	4	-1E+10	1	-1E+10	1	-1E+10	1	-1E+10	1	-1E+10	1	-1E+10	1
4902549	120	C	12/11/2023	07:57	-132.883	47.587	0	144.70	0	6.4550	0	33.4120	0	26.242	0	143.441	0	215.0	4	71.5	4	-1E+10	1	-1E+10	1	-1E+10	1	-1E+10	1	-1E+10	1	-1E+10	1
4902549	120	C	12/11/2023	07:57	-132.883	47.587	0	145.70	0	6.4270	0	33.4200	0	26.252	0	144.432	0	214.6	4	71.4	4	-1E+10	1	-1E+10	1	-1E+10	1	-1E+10	1	-1E+10	1	-1E+10	1
4902549	120	C	12/11/2023	07:57	-132.883	47.587	0	146.70	0	6.4000	0	33.4390	0	26.270	0	145.423	0	214.1	4	71.1	4	-1E+10	1	-1E+10	1	-1E+10	1	-1E+10	1	-1E+10	1	-1E+10	1
4902549	120	C	12/11/2023	07:57	-132.883	47.587	0	147.70	0	6.3890	0	33.4570	0	26.286	0	146.414	0	213.7	4	71.0	4	-1E+10	1	-1E+10	1	-1E+10	1	-1E+10	1	-1E+10	1	-1E+10	1
4902549	120	C	12/11/2023	07:57	-132.883	47.587	0	148.70	0	6.3720	0	33.4690	0	26.298	0	147.405	0	213.3	4	70.9	4	-1E+10	1	-1E+10	1	-1E+10	1	-1E+10	1	-1E+10	1	-1E+10	1
4902549	120	C	12/11/2023	07:57	-132.883	47.587	0	149.70	0	6.3410	0	33.4820	0	26.312	0	148.396	0	212.9	4	70.7	4	-1E+10	1	-1E+10	1	-1E+10	1	-1E+10	1	-1E+10	1	-1E+10	1
4902549	120	C	12/11/2023	07:57	-132.883	47.587	0	150.70	0	6.3110	0	33.4940	0	26.325	0	149.387	0	212.5	4	70.5	4	-1E+10	1	-1E+10	1	-1E+10	1	-1E+10	1	-1E+10	1	-1E+10	1
4902549	120	C	12/11/2023	07:57	-132.883	47.587	0	151.70	0	6.2970	0	33.5000	0	26.332	0	150.377	0	212.0	4	70.3	4	-1E+10	1	-1E+10	1	-1E+10	1	-1E+10	1	-1E+10	1	-1E+10	1
4902549	120	C	12/11/2023	07:57	-132.883	47.587	0	152.70	0	6.2740	0	33.5080	0	26.341	0	151.368	0	211.4	4	70.1	4	-1E+10	1	-1E+10	1	-1E+10	1	-1E+10	1	-1E+10	1	-1E+10	1
4902549	120	C	12/11/2023	07:57	-132.883	47.587	0	153.70	0	6.2460	0	33.5120	0	26.348	0	152.359	0	211.0	4	69.9	4	-1E+10	1	-1E+10	1	-1E+10	1	-1E+10	1	-1E+10	1	-1E+10	1
4902549	120	C	12/11/2023	07:57	-132.883	47.587	0	154.70	0	6.2530	0	33.5200	0	26.353	0	153.350	0	210.3	4	69.7	4	-1E+10	1	-1E+10	1	-1E+10	1	-1E+10	1	-1E+10	1	-1E+10	1
4902549	120	C	12/11/2023	07:57	-132.883	47.587	0	155.80	0	6.2310	0	33.5370	0	26.369	0	154.440	0	209.6	4	69.4	4	-1E+10	1	-1E+10	1	-1E+10	1	-1E+10	1	-1E+10	1	-1E+10	1
4902549	120	C	12/11/2023	07:57	-132.883	47.587	0	156.80	0	6.2210	0	33.5360	0	26.370	0	155.431	0	209.1	4	69.2	4	-1E+10	1	-1E+10	1	-1E+10	1	-1E+10	1	-1E+10	1	-1E+10	1
4902549	120	C	12/11/2023	07:57	-132.883	47.587	0	157.80	0	6.2140	0	33.5390	0	26.373	0	156.422	0	208.3	4	69.0	4	-1E+10	1	-1E+10	1	-1E+10	1	-1E+10	1	-1E+10	1	-1E+10	1
4902549	120	C	12/11/2023	07:57	-132.883	47.587	0	158.90	0	6.2070	0	33.5420	0	26.376	0	157.512	0	207.6	4	68.7	4	-1E+10	1	-1E+10	1	-1E+10	1	-1E+10	1	-1E+10	1	-1E+10	1
4902549	120	C	12/11/2023	07:57	-132.883	47.587	0	159.90	0	6.2200	0	33.5540	0	26.384	0	158.503	0	206.8	4	68.5	4	-1E+10	1	-1E+10	1	-1E+10	1	-1E+10	1	-1E+10	1	-1E+10	1
4902549	120	C	12/11/2023	07:57	-132.883	47.587	0	160.90	0	6.2120	0	33.5580	0	26.388	0	159.494	0	206.0	4	68.2	4	-1E+10	1	-1E+10	1	-1E+10	1	-1E+10	1	-1E+10	1	-1E+10	1
4902549	120	C	12/11/2023	07:57	-132.883	47.587	0	162.00	0	6.1740	0	33.5700	0	26.403	0	160.584	0	205.1	4	67.9	4	-1E+10	1	-1E+10	1	-1E+10	1	-1E+10	1	-1E+10	1	-1E+10	1
4902549	120	C	12/11/2023	07:57	-132.883	47.587	0	163.00	0	6.1710	0	33.5660	0	26.400	0	161.575	0	204.3	4	67.6	4	-1E+10	1	-1E+10	1	-1E+10	1	-1E+10	1	-1E+10	1	-1E+10	1
4902549	120	C	12/11/2023	07:57	-132.883	47.587	0	164.10	0	6.1860	0	33.5770	0	26.407	0	162.664	0	203.2	4	67.2	4	-1E+10	1	-1E+10	1	-1E+10	1	-1E+10	1	-1E+10	1	-1E+10	1
4902549	120	C	12/11/2023	07:57	-132.883	47.587	0	165.20	0	6.2640	0	33.5900	0	26.407	0	163.754	0	202.1	4	67.0	4	-1E+10	1	-1E+10	1	-1E+10	1	-1E+10	1	-1E+10	1	-1E+10	1
4902549	120	C	12/11/2023	07:57	-132.883	47.587	0	166.20	0	6.2250	0	33.5880	0	26.411	0	164.745	0	201.4	4	66.7	4	-1E+10	1	-1E+10	1	-1E+10	1	-1E+10	1	-1E+10	1	-1E+10	1
4902549	120	C	12/11/2023	07:57	-132.883	47.587	0	167.30	0	6.2460	0	33.5930	0	26.412	0	165.835	0	200.6	4	66.5	4	-1E+10	1	-1E+10	1	-1E+10	1	-1E+10	1	-1E+10	1	-1E+10	1
4902549	120	C	12/11/2023	07:57	-132.883	47.587	0	168.30	0	6.2500	0	33.5940	0	26.412	0	166.826	0	199.8	4	66.2	4	-1E+10	1	-1E+10	1	-1E+10	1	-1E+10	1	-1E+10	1	-1E+10	1
4902549	120	C	12/11/2023	07:57	-132.883	47.587	0	169.30	0	6.2600	0	33.5990	0	26.415	0	167.817	0	199.0	4	66.0	4	-1E+10	1	-1E+10	1	-1E+10	1	-1E+10	1	-1E+10	1	-1E+10	1
4902549	120	C	12/11/2023	07:57	-132.883	47.587	0	170.90	0	6.2610	0	33.6150	0	26.427	0	169.402	0	197.9	4	65.6	4	-1E+10	1	-1E+10	1	-1E+10	1	-1E+10	1	-1E+10	1	-1E+10	1
4902549	120	C	12/11/2023	07:57	-132.883	47.587	0	172.10	0	6.2520	0	33.6200	0	26.432	0	170.591	0	196.9	4	65.3	4	-1E+10	1	-1E+10	1	-1E+10	1	-1E+10	1	-1E+10	1	-1E+10	1
4902549	120	C	12/11/2023	07:57	-132.883	47.587	0	172.90	0	6.2580	0	33.6190	0	26.431	0	171.384	0	196.3	4	65.1	4	-1E+10	1	-1E+10	1	-1E+10	1	-1E+10	1	-1E+10	1	-1E+10	1
4902549	120	C	12/11/2023	07:57	-132.883	47.587	0	173.80	0	6.2540	0	33.6230	0	26.435	0	172.276	0	195.5	4	64.8	4	-1E+10	1	-1E+10	1	-1E+10	1	-1E+10	1	-1E+10	1	-1E+10	1
4902549	120	C	12/11/2023	07:57	-132.883	47.587	0	175.00	0	6.2420	0	33.6300	0	26.442	0	173.465	0	194.5	4	64.5	4	-1E+10	1	-1E+10	1	-1E+10	1	-1E+10	1	-1E+10	1	-1E+10	1
4902549	120	C	12/11/2023	07:57	-132.883	47.587	0	176.20	0	6.2220	0	33.6330	0	26.447	0	174.653	0	193.2	4	64.0	4	-1E+10	1	-1E+10	1	-1E+10	1	-1E+10	1	-1E+10	1	-1E+10	1
4902549	120	C	12/11/2023	07:57	-132.883	47.587	0	177.10	0	6.2130	0	33.6360	0	26.450	0	175.545	0	192.3	4	63.7	4	-1E+10	1	-1E+10	1	-1E+10	1	-1E+10	1	-1E+10	1	-1E+10	1
4902549	120	C	12/11/2023	07:57	-132.883	47.587	0	177.90	0	6.2110	0	33.6440	0	26.457	0	176.338	0	191.2	4	63.4	4	-1E+10	1	-1E+10	1	-1E+10	1	-1E+10	1	-1E+10	1	-1E+10	1
4902549	120	C	12/11/2023	07:57	-132.883	47.587	0	178.70	0	6.2160	0	33.6450	0	26.457	0	177.130	0	190.3	4	63.0	4	-1E+10	1	-1E+10	1	-1E+10	1	-1E+10	1	-1E+10	1	-1E+10	1
4902549	120	C	12/11/2023	07:57	-132.883	47.587	0	180.00	0	6.2260	0	33.6530	0	26.462	0	178.419	0	188.8	4	62.6	4	-1E+10	1	-1E+10	1	-1E+10	1	-1E+10	1	-1E+10	1	-1E+10	1
4902549	120	C	12/11/2023	07:57	-132.883	47.587	0	181.30	0	6.2440	0	33.6680	0	26.471	0	179.707	0	187.5	4	62.2	4	-1E+10	1	-1E+10	1	-1E+10	1	-1E+10	1	-1E+10	1	-1E+10	1
4902549	120	C	12/11/2023	07:57	-132.883	47.587	0	182.10	0	6.2420	0	33.6730	0	26.476	0	180.499	0	186.9	4	62.0	4	-1E+10	1	-1E+10	1	-1E+10	1	-1E+10	1	-1E+10	1	-1E+10	1
4902549	120	C	12/11/2023	07:57	-132.883	47.587	0	183.00	0	6.2460	0	33.6750	0	26.477	0	181.391	0	186.4	4	61.8	4	-1E+10	1	-1E+10	1	-1E+10	1	-1E+10	1	-1E+10	1	-1E+10	1
4902549	120	C	12/11/2023	07:57	-132.883	47.587	0	183.80	0	6.2490	0	33.6780	0	26.479	0	182.183	0	185.8	4	61.6	4	-1E+10	1	-1E+10	1	-1E+10	1	-1E+10	1	-1E+10	1	-1E+10	1
4902549	120	C	12/11/2023	07:57	-132.883	47.587	0	184.70	0	6.2490	0	33.6830	0	26.483	0	183.075	0	185.4	4	61.5	4	-1E+10	1	-1E+10	1	-1E+10	1	-1E+10	1	-1E+10	1	-1E+10	1
4902549	120	C	12/11/2023	07:57	-132.883	47.587	0	186.00	0	6.2490	0	33.6830	0	26.483	0	184.363	0	184.8	4	61.3	4	-1E+10	1	-1E+10	1	-1E+10	1	-1E+10	1	-1E+10	1	-1E+10	1
4902549	120	C	12/11/2023	07:57	-132.883	47.587	0	187.30	0	6.2210	0	33.6890	0	26.491	0	185.651	0	184.3	4	61.1	4	-1E+10	1	-1E+10	1	-1E+10	1	-1E+10	1	-1E+10	1	-1E+10	1
4902549	120	C	12/11/2023	07:57	-132.883	47.587	0	188.20	0	6.2060	0	33.6880	0	26.492	0	186.543	0	183.8	4	60.9	4	-1E+10	1	-1E+10	1	-1E+10	1	-1E+10	1	-1E+10	1	-1E+10	1
4902549	120	C	12/11/2023	07:57	-132.883	47.587	0	189.10	0	6.2030	0	33.6910	0	26.495	0	187.434	0	183.3	4	60.7	4	-1E+10	1	-1E+10	1	-1E+10	1	-1E+10	1	-1E+10	1	-1E+10	1
4902549	120	C	12/11/2023	07:57	-132.883	47.587	0	189.90	0	6.1860	0	33.6890	0	26.496	0	188.227	0	182.8	4	60.6	4	-1E+10	1	-1E+10	1	-1E+10	1	-1E+10	1	-1E+10	1	-1E+10	1
4902549	120	C	12/11/2023	07:57	-132.883	47.587	0	190.80	0	6.1800	0	33.6890	0	26.496	0	189.119	0	182.2	4	60.4	4	-1E+10	1	-1E+10	1	-1E+10	1	-1E+10	1	-1E+10	1	-1E+10	1
4902549	120	C	12/11/2023	07:57	-132.883	47.587	0	191.70	0	6.1730	0	33.6900	0	26.498	0	190.010	0	181.5	4	60.1	4	-1E+10	1	-1E+10	1	-1E+10	1	-1E+10	1	-1E+10	1	-1E+10	1
4902549	120	C	12/11/2023	07:57	-132.883	47.587	0	192.60	0	6.1750	0	33.6920	0	26.499	0	190.902	0	180.8	4	59.9	4	-1E+10	1	-1E+10	1	-1E+10	1	-1E+10	1	-1E+10	1	-1E+10	1
4902549	120	C	12/11/2023	07:57	-132.883	47.587	0	193.90	0	6.1680	0	33.6970	0	26.504	0	192.190	0	179.6	4	59.5	4	-1E+10	1	-1E+10	1	-1E+10	1	-1E+10	1	-1E+10	1	-1E+10	1
4902549	120	C	12/11/2023	07:57	-132.883	47.587	0	195.30	0	6.1740	0	33.7000	0	26.506	0	193.577	0	178.4	4	59.1	4	-1E+10	1	-1E+10	1	-1E+10	1	-1E+10	1	-1E+10	1	-1E+10	1
4902549	120	C	12/11/2023	07:57	-132.883	47.587	0	196.20	0	6.1570	0	33.7010	0	26.509	0	194.469	0	177.5	4	58.8	4	-1E+10	1	-1E+10	1	-1E+10	1	-1E+10	1	-1E+10	1	-1E+10	1
4902549	120	C	12/11/2023	07:57	-132.883	47.587	0	197.10	0	6.1320	0	33.7090	0	26.518	0	195.360	0	176.6	4	58.5	4	-1E+10	1	-1E+10	1	-1E+10	1	-1E+10	1	-1E+10	1	-1E+10	1
4902549	120	C	12/11/2023	07:57	-132.883	47.587	0	198.00	0	6.1300	0	33.7070	0	26.517	0	196.252	0	175.8	4	58.2	4	-1E+10	1	-1E+10	1	-1E+10	1	-1E+10	1	-1E+10	1	-1E+10	1
4902549	120	C	12/11/2023	07:57	-132.883	47.587	0	198.90	0	6.1160	0	33.7110	0	26.522	0	197.143	0	175.1	4	57.9	4	-1E+10	1	-1E+10	1	-1E+10	1	-1E+10	1	-1E+10	1	-1E+10	1
4902549	120	C	12/11/2023	07:57	-132.883	47.587	0	199.80	0	6.1310	0	33.7130	0	26.522	0	198.035	0	174.4	4	57.7	4	-1E+10	1	-1E+10	1	-1E+10	1	-1E+10	1	-1E+10	1	-1E+10	1
4902549	120	C	12/11/2023	07:57	-132.883	47.587	0	200.80	0	6.1290	0	33.7190	0	26.527	0	199.026	0	173.8	4	57.5	4	-1E+10	1	-1E+10	1	-1E+10	1	-1E+10	1	-1E+10	1	-1E+10	1
4902549	120	C	12/11/2023	07:57	-132.883	47.587	0	201.70	0	6.0950	0	33.7170	0	26.529	0	199.917	0	173.2	4	57.3	4	-1E+10	1	-1E+10	1	-1E+10	1	-1E+10	1	-1E+10	1	-1E+10	1
4902549	120	C	12/11/2023	07:57	-132.883	47.587	0	202.60	0	6.0680	0	33.7180	0	26.533	0	200.809	0	172.5	4	57.0	4	-1E+10	1	-1E+10	1	-1E+10	1	-1E+10	1	-1E+10	1	-1E+10	1
4902549	120	C	12/11/2023	07:57	-132.883	47.587	0	203.60	0	6.0880	0	33.7150	0	26.529	0	201.800	0	171.7	4	56.8	4	-1E+10	1	-1E+10	1	-1E+10	1	-1E+10	1	-1E+10	1	-1E+10	1
4902549	120	C	12/11/2023	07:57	-132.883	47.587	0	204.50	0	6.0640	0	33.7250	0	26.539	0	202.691	0	170.9	4	56.5	4	-1E+10	1	-1E+10	1	-1E+10	1	-1E+10	1	-1E+10	1	-1E+10	1
4902549	120	C	12/11/2023	07:57	-132.883	47.587	0	205.90	0	6.0140	0	33.7210	0	26.543	0	204.078	0	169.5	4	55.9	4	-1E+10	1	-1E+10	1	-1E+10	1	-1E+10	1	-1E+10	1	-1E+10	1
4902549	120	C	12/11/2023	07:57	-132.883	47.587	0	207.40	0	6.0120	0	33.7170	0	26.540	0	205.564	0	167.7	4	55.3	4	-1E+10	1	-1E+10	1	-1E+10	1	-1E+10	1	-1E+10	1	-1E+10	1
4902549	120	C	12/11/2023	07:57	-132.883	47.587	0	208.30	0	5.9830	0	33.7190	0	26.545	0	206.456	0	166.3	4	54.8	4	-1E+10	1	-1E+10	1	-1E+10	1	-1E+10	1	-1E+10	1	-1E+10	1
4902549	120	C	12/11/2023	07:57	-132.883	47.587	0	209.30	0	5.9450	0	33.7200	0	26.550	0	207.446	0	164.9	4	54.3	4	-1E+10	1	-1E+10	1	-1E+10	1	-1E+10	1	-1E+10	1	-1E+10	1
4902549	120	C	12/11/2023	07:57	-132.883	47.587	0	210.30	0	5.9390	0	33.7210	0	26.552	0	208.437	0	163.3	4	53.8	4	-1E+10	1	-1E+10	1	-1E+10	1	-1E+10	1	-1E+10	1	-1E+10	1
4902549	120	C	12/11/2023	07:57	-132.883	47.587	0	211.20	0	5.9370	0	33.7220	0	26.553	0	209.329	0	161.5	4	53.2	4	-1E+10	1	-1E+10	1	-1E+10	1	-1E+10	1	-1E+10	1	-1E+10	1
4902549	120	C	12/11/2023	07:57	-132.883	47.587	0	212.20	0	5.9330	0	33.7280	0	26.558	0	210.319	0	160.0	4	52.7	4	-1E+10	1	-1E+10	1	-1E+10	1	-1E+10	1	-1E+10	1	-1E+10	1
4902549	120	C	12/11/2023	07:57	-132.883	47.587	0	213.20	0	5.9200	0	33.7340	0	26.565	0	211.310	0	158.7	4	52.3	4	-1E+10	1	-1E+10	1	-1E+10	1	-1E+10	1	-1E+10	1	-1E+10	1
4902549	120	C	12/11/2023	07:57	-132.883	47.587	0	214.20	0	5.8870	0	33.7420	0	26.575	0	212.300	0	157.7	4	51.9	4	-1E+10	1	-1E+10	1	-1E+10	1	-1E+10	1	-1E+10	1	-1E+10	1
4902549	120	C	12/11/2023	07:57	-132.883	47.587	0	215.20	0	5.8630	0	33.7450	0	26.580	0	213.291	0	156.8	4	51.6	4	-1E+10	1	-1E+10	1	-1E+10	1	-1E+10	1	-1E+10	1	-1E+10	1
4902549	120	C	12/11/2023	07:57	-132.883	47.587	0	216.10	0	5.8390	0	33.7380	0	26.578	0	214.183	0	156.0	4	51.3	4	-1E+10	1	-1E+10	1	-1E+10	1	-1E+10	1	-1E+10	1	-1E+10	1
4902549	120	C	12/11/2023	07:57	-132.883	47.587	0	217.10	0	5.8320	0	33.7380	0	26.579	0	215.173	0	154.7	4	50.9	4	-1E+10	1	-1E+10	1	-1E+10	1	-1E+10	1	-1E+10	1	-1E+10	1
4902549	120	C	12/11/2023	07:57	-132.883	47.587	0	218.10	0	5.8240	0	33.7390	0	26.580	0	216.164	0	153.4	4	50.4	4	-1E+10	1	-1E+10	1	-1E+10	1	-1E+10	1	-1E+10	1	-1E+10	1
4902549	120	C	12/11/2023	07:57	-132.883	47.587	0	219.00	0	5.8200	0	33.7390	0	26.581	0	217.055	0	152.0	4	49.9	4	-1E+10	1	-1E+10	1	-1E+10	1	-1E+10	1	-1E+10	1	-1E+10	1
4902549	120	C	12/11/2023	07:57	-132.883	47.587	0	220.00	0	5.8150	0	33.7390	0	26.582	0	218.046	0	150.4	4	49.4	4	-1E+10	1	-1E+10	1	-1E+10	1	-1E+10	1	-1E+10	1	-1E+10	1
4902549	120	C	12/11/2023	07:57	-132.883	47.587	0	221.00	0	5.7930	0	33.7410	0	26.586	0	219.037	0	148.7	4	48.8	4	-1E+10	1	-1E+10	1	-1E+10	1	-1E+10	1	-1E+10	1	-1E+10	1
4902549	120	C	12/11/2023	07:57	-132.883	47.587	0	221.90	0	5.7720	0	33.7460	0	26.592	0	219.928	0	147.2	4	48.3	4	-1E+10	1	-1E+10	1	-1E+10	1	-1E+10	1	-1E+10	1	-1E+10	1
4902549	120	C	12/11/2023	07:57	-132.883	47.587	0	222.90	0	5.7580	0	33.7500	0	26.597	0	220.919	0	145.7	4	47.8	4	-1E+10	1	-1E+10	1	-1E+10	1	-1E+10	1	-1E+10	1	-1E+10	1
4902549	120	C	12/11/2023	07:57	-132.883	47.587	0	223.90	0	5.7390	0	33.7540	0	26.603	0	221.909	0	144.4	4	47.3	4	-1E+10	1	-1E+10	1	-1E+10	1	-1E+10	1	-1E+10	1	-1E+10	1
4902549	120	C	12/11/2023	07:57	-132.883	47.587	0	224.90	0	5.7320	0	33.7540	0	26.604	0	222.900	0	142.9	4	46.9	4	-1E+10	1	-1E+10	1	-1E+10	1	-1E+10	1	-1E+10	1	-1E+10	1
4902549	120	C	12/11/2023	07:57	-132.883	47.587	0	225.80	0	5.7220	0	33.7560	0	26.606	0	223.791	0	141.4	4	46.4	4	-1E+10	1	-1E+10	1	-1E+10	1	-1E+10	1	-1E+10	1	-1E+10	1
4902549	120	C	12/11/2023	07:57	-132.883	47.587	0	226.80	0	5.7130	0	33.7590	0	26.610	0	224.782	0	139.9	4	45.9	4	-1E+10	1	-1E+10	1	-1E+10	1	-1E+10	1	-1E+10	1	-1E+10	1
4902549	120	C	12/11/2023	07:57	-132.883	47.587	0	227.80	0	5.7130	0	33.7580	0	26.609	0	225.772	0	138.3	4	45.3	4	-1E+10	1	-1E+10	1	-1E+10	1	-1E+10	1	-1E+10	1	-1E+10	1
4902549	120	C	12/11/2023	07:57	-132.883	47.587	0	228.80	0	5.7080	0	33.7590	0	26.611	0	226.763	0	136.5	4	44.7	4	-1E+10	1	-1E+10	1	-1E+10	1	-1E+10	1	-1E+10	1	-1E+10	1
4902549	120	C	12/11/2023	07:57	-132.883	47.587	0	229.80	0	5.6980	0	33.7610	0	26.613	0	227.754	0	134.7	4	44.1	4	-1E+10	1	-1E+10	1	-1E+10	1	-1E+10	1	-1E+10	1	-1E+10	1
4902549	120	C	12/11/2023	07:57	-132.883	47.587	0	230.80	0	5.6920	0	33.7610	0	26.614	0	228.744	0	132.6	4	43.4	4	-1E+10	1	-1E+10	1	-1E+10	1	-1E+10	1	-1E+10	1	-1E+10	1
4902549	120	C	12/11/2023	07:57	-132.883	47.587	0	231.80	0	5.6790	0	33.7650	0	26.619	0	229.735	0	130.4	4	42.7	4	-1E+10	1	-1E+10	1	-1E+10	1	-1E+10	1	-1E+10	1	-1E+10	1
4902549	120	C	12/11/2023	07:57	-132.883	47.587	0	232.70	0	5.6800	0	33.7670	0	26.620	0	230.626	0	128.2	4	42.0	4	-1E+10	1	-1E+10	1	-1E+10	1	-1E+10	1	-1E+10	1	-1E+10	1
4902549	120	C	12/11/2023	07:57	-132.883	47.587	0	233.80	0	5.6830	0	33.7690	0	26.622	0	231.716	0	125.9	4	41.3	4	-1E+10	1	-1E+10	1	-1E+10	1	-1E+10	1	-1E+10	1	-1E+10	1
4902549	120	C	12/11/2023	07:57	-132.883	47.587	0	234.80	0	5.6840	0	33.7710	0	26.623	0	232.706	0	123.5	4	40.4	4	-1E+10	1	-1E+10	1	-1E+10	1	-1E+10	1	-1E+10	1	-1E+10	1
4902549	120	C	12/11/2023	07:57	-132.883	47.587	0	235.80	0	5.6770	0	33.7770	0	26.629	0	233.697	0	120.9	4	39.6	4	-1E+10	1	-1E+10	1	-1E+10	1	-1E+10	1	-1E+10	1	-1E+10	1
4902549	120	C	12/11/2023	07:57	-132.883	47.587	0	236.80	0	5.6580	0	33.7740	0	26.629	0	234.687	0	118.0	4	38.6	4	-1E+10	1	-1E+10	1	-1E+10	1	-1E+10	1	-1E+10	1	-1E+10	1
4902549	120	C	12/11/2023	07:57	-132.883	47.587	0	237.80	0	5.6500	0	33.7780	0	26.633	0	235.678	0	115.1	4	37.7	4	-1E+10	1	-1E+10	1	-1E+10	1	-1E+10	1	-1E+10	1	-1E+10	1
4902549	120	C	12/11/2023	07:57	-132.883	47.587	0	238.70	0	5.6740	0	33.7820	0	26.633	0	236.569	0	112.1	4	36.7	4	-1E+10	1	-1E+10	1	-1E+10	1	-1E+10	1	-1E+10	1	-1E+10	1
4902549	120	C	12/11/2023	07:57	-132.883	47.587	0	239.70	0	5.7090	0	33.7860	0	26.632	0	237.560	0	109.5	4	35.9	4	-1E+10	1	-1E+10	1	-1E+10	1	-1E+10	1	-1E+10	1	-1E+10	1
4902549	120	C	12/11/2023	07:57	-132.883	47.587	0	240.70	0	5.7690	0	33.8060	0	26.640	0	238.550	0	107.6	4	35.3	4	-1E+10	1	-1E+10	1	-1E+10	1	-1E+10	1	-1E+10	1	-1E+10	1
4902549	120	C	12/11/2023	07:57	-132.883	47.587	0	241.70	0	5.8000	0	33.8130	0	26.642	0	239.541	0	106.4	4	35.0	4	-1E+10	1	-1E+10	1	-1E+10	1	-1E+10	1	-1E+10	1	-1E+10	1
4902549	120	C	12/11/2023	07:57	-132.883	47.587	0	242.70	0	5.8080	0	33.8150	0	26.643	0	240.531	0	105.4	4	34.7	4	-1E+10	1	-1E+10	1	-1E+10	1	-1E+10	1	-1E+10	1	-1E+10	1
4902549	120	C	12/11/2023	07:57	-132.883	47.587	0	243.70	0	5.8100	0	33.8170	0	26.644	0	241.522	0	104.6	4	34.4	4	-1E+10	1	-1E+10	1	-1E+10	1	-1E+10	1	-1E+10	1	-1E+10	1
4902549	120	C	12/11/2023	07:57	-132.883	47.587	0	244.70	0	5.8160	0	33.8200	0	26.646	0	242.512	0	103.8	4	34.1	4	-1E+10	1	-1E+10	1	-1E+10	1	-1E+10	1	-1E+10	1	-1E+10	1
4902549	120	C	12/11/2023	07:57	-132.883	47.587	0	245.70	0	5.8170	0	33.8210	0	26.646	0	243.503	0	103.3	4	34.0	4	-1E+10	1	-1E+10	1	-1E+10	1	-1E+10	1	-1E+10	1	-1E+10	1
4902549	120	C	12/11/2023	07:57	-132.883	47.587	0	246.70	0	5.8070	0	33.8230	0	26.649	0	244.493	0	102.9	4	33.8	4	-1E+10	1	-1E+10	1	-1E+10	1	-1E+10	1	-1E+10	1	-1E+10	1
4902549	120	C	12/11/2023	07:57	-132.883	47.587	0	247.70	0	5.8050	0	33.8230	0	26.650	0	245.484	0	102.4	4	33.7	4	-1E+10	1	-1E+10	1	-1E+10	1	-1E+10	1	-1E+10	1	-1E+10	1
4902549	120	C	12/11/2023	07:57	-132.883	47.587	0	248.60	0	5.8010	0	33.8230	0	26.650	0	246.375	0	101.9	4	33.5	4	-1E+10	1	-1E+10	1	-1E+10	1	-1E+10	1	-1E+10	1	-1E+10	1
4902549	120	C	12/11/2023	07:57	-132.883	47.587	0	249.60	0	5.7970	0	33.8230	0	26.651	0	247.365	0	101.4	4	33.3	4	-1E+10	1	-1E+10	1	-1E+10	1	-1E+10	1	-1E+10	1	-1E+10	1
4902549	120	C	12/11/2023	07:57	-132.883	47.587	0	250.60	0	5.7930	0	33.8240	0	26.652	0	248.356	0	101.0	4	33.2	4	-1E+10	1	-1E+10	1	-1E+10	1	-1E+10	1	-1E+10	1	-1E+10	1
4902549	120	C	12/11/2023	07:57	-132.883	47.587	0	251.60	0	5.7780	0	33.8260	0	26.655	0	249.346	0	100.7	4	33.1	4	-1E+10	1	-1E+10	1	-1E+10	1	-1E+10	1	-1E+10	1	-1E+10	1
4902549	120	C	12/11/2023	07:57	-132.883	47.587	0	252.60	0	5.7720	0	33.8250	0	26.655	0	250.337	0	100.3	4	32.9	4	-1E+10	1	-1E+10	1	-1E+10	1	-1E+10	1	-1E+10	1	-1E+10	1
4902549	120	C	12/11/2023	07:57	-132.883	47.587	0	253.60	0	5.7630	0	33.8280	0	26.659	0	251.327	0	100.1	4	32.9	4	-1E+10	1	-1E+10	1	-1E+10	1	-1E+10	1	-1E+10	1	-1E+10	1
4902549	120	C	12/11/2023	07:57	-132.883	47.587	0	254.60	0	5.7220	0	33.8270	0	26.663	0	252.318	0	100.0	4	32.8	4	-1E+10	1	-1E+10	1	-1E+10	1	-1E+10	1	-1E+10	1	-1E+10	1
4902549	120	C	12/11/2023	07:57	-132.883	47.587	0	255.60	0	5.7160	0	33.8270	0	26.664	0	253.308	0	99.8	4	32.7	4	-1E+10	1	-1E+10	1	-1E+10	1	-1E+10	1	-1E+10	1	-1E+10	1
4902549	120	C	12/11/2023	07:57	-132.883	47.587	0	256.60	0	5.7040	0	33.8260	0	26.664	0	254.298	0	99.6	4	32.7	4	-1E+10	1	-1E+10	1	-1E+10	1	-1E+10	1	-1E+10	1	-1E+10	1
4902549	120	C	12/11/2023	07:57	-132.883	47.587	0	257.60	0	5.7010	0	33.8240	0	26.663	0	255.289	0	99.4	4	32.6	4	-1E+10	1	-1E+10	1	-1E+10	1	-1E+10	1	-1E+10	1	-1E+10	1
4902549	120	C	12/11/2023	07:57	-132.883	47.587	0	258.60	0	5.6520	0	33.8350	0	26.678	0	256.279	0	99.1	4	32.5	4	-1E+10	1	-1E+10	1	-1E+10	1	-1E+10	1	-1E+10	1	-1E+10	1
4902549	120	C	12/11/2023	07:57	-132.883	47.587	0	259.60	0	5.5960	0	33.8200	0	26.673	0	257.270	0	98.5	4	32.2	4	-1E+10	1	-1E+10	1	-1E+10	1	-1E+10	1	-1E+10	1	-1E+10	1
4902549	120	C	12/11/2023	07:57	-132.883	47.587	0	260.60	0	5.6210	0	33.8250	0	26.674	0	258.260	0	97.9	4	32.0	4	-1E+10	1	-1E+10	1	-1E+10	1	-1E+10	1	-1E+10	1	-1E+10	1
4902549	120	C	12/11/2023	07:57	-132.883	47.587	0	261.70	0	5.6350	0	33.8290	0	26.675	0	259.349	0	97.6	4	32.0	4	-1E+10	1	-1E+10	1	-1E+10	1	-1E+10	1	-1E+10	1	-1E+10	1
4902549	120	C	12/11/2023	07:57	-132.883	47.587	0	262.70	0	5.6280	0	33.8290	0	26.676	0	260.340	0	97.6	4	31.9	4	-1E+10	1	-1E+10	1	-1E+10	1	-1E+10	1	-1E+10	1	-1E+10	1
4902549	120	C	12/11/2023	07:57	-132.883	47.587	0	263.70	0	5.6260	0	33.8290	0	26.676	0	261.330	0	97.5	4	31.9	4	-1E+10	1	-1E+10	1	-1E+10	1	-1E+10	1	-1E+10	1	-1E+10	1
4902549	120	C	12/11/2023	07:57	-132.883	47.587	0	264.70	0	5.6210	0	33.8290	0	26.677	0	262.321	0	97.5	4	31.9	4	-1E+10	1	-1E+10	1	-1E+10	1	-1E+10	1	-1E+10	1	-1E+10	1
4902549	120	C	12/11/2023	07:57	-132.883	47.587	0	265.70	0	5.6140	0	33.8300	0	26.678	0	263.311	0	97.6	4	31.9	4	-1E+10	1	-1E+10	1	-1E+10	1	-1E+10	1	-1E+10	1	-1E+10	1
4902549	120	C	12/11/2023	07:57	-132.883	47.587	0	266.70	0	5.6090	0	33.8290	0	26.678	0	264.301	0	97.7	4	32.0	4	-1E+10	1	-1E+10	1	-1E+10	1	-1E+10	1	-1E+10	1	-1E+10	1
4902549	120	C	12/11/2023	07:57	-132.883	47.587	0	267.80	0	5.6040	0	33.8290	0	26.679	0	265.391	0	97.8	4	32.0	4	-1E+10	1	-1E+10	1	-1E+10	1	-1E+10	1	-1E+10	1	-1E+10	1
4902549	120	C	12/11/2023	07:57	-132.883	47.587	0	268.80	0	5.5950	0	33.8280	0	26.679	0	266.381	0	97.9	4	32.0	4	-1E+10	1	-1E+10	1	-1E+10	1	-1E+10	1	-1E+10	1	-1E+10	1
4902549	120	C	12/11/2023	07:57	-132.883	47.587	0	269.80	0	5.5920	0	33.8270	0	26.679	0	267.371	0	98.1	4	32.1	4	-1E+10	1	-1E+10	1	-1E+10	1	-1E+10	1	-1E+10	1	-1E+10	1
4902549	120	C	12/11/2023	07:57	-132.883	47.587	0	270.90	0	5.5530	0	33.8290	0	26.685	0	268.461	0	98.3	4	32.1	4	-1E+10	1	-1E+10	1	-1E+10	1	-1E+10	1	-1E+10	1	-1E+10	1
4902549	120	C	12/11/2023	07:57	-132.883	47.587	0	271.90	0	5.5280	0	33.8250	0	26.685	0	269.451	0	98.4	4	32.1	4	-1E+10	1	-1E+10	1	-1E+10	1	-1E+10	1	-1E+10	1	-1E+10	1
4902549	120	C	12/11/2023	07:57	-132.883	47.587	0	272.90	0	5.5120	0	33.8240	0	26.686	0	270.442	0	98.5	4	32.1	4	-1E+10	1	-1E+10	1	-1E+10	1	-1E+10	1	-1E+10	1	-1E+10	1
4902549	120	C	12/11/2023	07:57	-132.883	47.587	0	274.00	0	5.5090	0	33.8240	0	26.686	0	271.531	0	98.7	4	32.2	4	-1E+10	1	-1E+10	1	-1E+10	1	-1E+10	1	-1E+10	1	-1E+10	1
4902549	120	C	12/11/2023	07:57	-132.883	47.587	0	275.00	0	5.4780	0	33.8250	0	26.691	0	272.521	0	99.0	4	32.3	4	-1E+10	1	-1E+10	1	-1E+10	1	-1E+10	1	-1E+10	1	-1E+10	1
4902549	120	C	12/11/2023	07:57	-132.883	47.587	0	276.10	0	5.4370	0	33.8250	0	26.696	0	273.611	0	99.4	4	32.4	4	-1E+10	1	-1E+10	1	-1E+10	1	-1E+10	1	-1E+10	1	-1E+10	1
4902549	120	C	12/11/2023	07:57	-132.883	47.587	0	277.10	0	5.4070	0	33.8220	0	26.697	0	274.601	0	99.7	4	32.5	4	-1E+10	1	-1E+10	1	-1E+10	1	-1E+10	1	-1E+10	1	-1E+10	1
4902549	120	C	12/11/2023	07:57	-132.883	47.587	0	278.20	0	5.4000	0	33.8200	0	26.696	0	275.690	0	100.1	4	32.6	4	-1E+10	1	-1E+10	1	-1E+10	1	-1E+10	1	-1E+10	1	-1E+10	1
4902549	120	C	12/11/2023	07:57	-132.883	47.587	0	279.20	0	5.3960	0	33.8190	0	26.696	0	276.681	0	100.4	4	32.7	4	-1E+10	1	-1E+10	1	-1E+10	1	-1E+10	1	-1E+10	1	-1E+10	1
4902549	120	C	12/11/2023	07:57	-132.883	47.587	0	280.30	0	5.3830	0	33.8200	0	26.698	0	277.770	0	100.9	4	32.8	4	-1E+10	1	-1E+10	1	-1E+10	1	-1E+10	1	-1E+10	1	-1E+10	1
4902549	120	C	12/11/2023	07:57	-132.883	47.587	0	281.30	0	5.3130	0	33.8160	0	26.703	0	278.760	0	101.4	4	32.9	4	-1E+10	1	-1E+10	1	-1E+10	1	-1E+10	1	-1E+10	1	-1E+10	1
4902549	120	C	12/11/2023	07:57	-132.883	47.587	0	282.40	0	5.2510	0	33.8130	0	26.708	0	279.850	0	101.6	4	33.0	4	-1E+10	1	-1E+10	1	-1E+10	1	-1E+10	1	-1E+10	1	-1E+10	1
4902549	120	C	12/11/2023	07:57	-132.883	47.587	0	283.40	0	5.1980	0	33.8110	0	26.713	0	280.840	0	101.7	4	33.0	4	-1E+10	1	-1E+10	1	-1E+10	1	-1E+10	1	-1E+10	1	-1E+10	1
4902549	120	C	12/11/2023	07:57	-132.883	47.587	0	284.50	0	5.1780	0	33.8060	0	26.711	0	281.929	0	101.7	4	32.9	4	-1E+10	1	-1E+10	1	-1E+10	1	-1E+10	1	-1E+10	1	-1E+10	1
4902549	120	C	12/11/2023	07:57	-132.883	47.587	0	285.50	0	5.1780	0	33.8070	0	26.712	0	282.919	0	101.6	4	32.9	4	-1E+10	1	-1E+10	1	-1E+10	1	-1E+10	1	-1E+10	1	-1E+10	1
4902549	120	C	12/11/2023	07:57	-132.883	47.587	0	286.60	0	5.1720	0	33.8060	0	26.712	0	284.009	0	101.4	4	32.8	4	-1E+10	1	-1E+10	1	-1E+10	1	-1E+10	1	-1E+10	1	-1E+10	1
4902549	120	C	12/11/2023	07:57	-132.883	47.587	0	287.60	0	5.1720	0	33.8050	0	26.711	0	284.999	0	101.3	4	32.8	4	-1E+10	1	-1E+10	1	-1E+10	1	-1E+10	1	-1E+10	1	-1E+10	1
4902549	120	C	12/11/2023	07:57	-132.883	47.587	0	288.60	0	5.1530	0	33.8060	0	26.714	0	285.989	0	101.2	4	32.7	4	-1E+10	1	-1E+10	1	-1E+10	1	-1E+10	1	-1E+10	1	-1E+10	1
4902549	120	C	12/11/2023	07:57	-132.883	47.587	0	289.70	0	5.1190	0	33.8040	0	26.716	0	287.079	0	101.0	4	32.7	4	-1E+10	1	-1E+10	1	-1E+10	1	-1E+10	1	-1E+10	1	-1E+10	1
4902549	120	C	12/11/2023	07:57	-132.883	47.587	0	290.70	0	5.1060	0	33.8050	0	26.718	0	288.069	0	101.0	4	32.7	4	-1E+10	1	-1E+10	1	-1E+10	1	-1E+10	1	-1E+10	1	-1E+10	1
4902549	120	C	12/11/2023	07:57	-132.883	47.587	0	291.80	0	5.0930	0	33.8060	0	26.721	0	289.158	0	100.9	4	32.6	4	-1E+10	1	-1E+10	1	-1E+10	1	-1E+10	1	-1E+10	1	-1E+10	1
4902549	120	C	12/11/2023	07:57	-132.883	47.587	0	292.80	0	5.0650	0	33.8040	0	26.722	0	290.148	0	100.8	4	32.6	4	-1E+10	1	-1E+10	1	-1E+10	1	-1E+10	1	-1E+10	1	-1E+10	1
4902549	120	C	12/11/2023	07:57	-132.883	47.587	0	293.90	0	5.0470	0	33.8010	0	26.722	0	291.238	0	100.5	4	32.4	4	-1E+10	1	-1E+10	1	-1E+10	1	-1E+10	1	-1E+10	1	-1E+10	1
4902549	120	C	12/11/2023	07:57	-132.883	47.587	0	294.90	0	5.0330	0	33.8000	0	26.723	0	292.228	0	100.1	4	32.3	4	-1E+10	1	-1E+10	1	-1E+10	1	-1E+10	1	-1E+10	1	-1E+10	1
4902549	120	C	12/11/2023	07:57	-132.883	47.587	0	295.90	0	5.0140	0	33.8040	0	26.728	0	293.218	0	99.7	4	32.1	4	-1E+10	1	-1E+10	1	-1E+10	1	-1E+10	1	-1E+10	1	-1E+10	1
4902549	120	C	12/11/2023	07:57	-132.883	47.587	0	297.00	0	4.9690	0	33.8070	0	26.736	0	294.307	0	99.2	4	32.0	4	-1E+10	1	-1E+10	1	-1E+10	1	-1E+10	1	-1E+10	1	-1E+10	1
4902549	120	C	12/11/2023	07:57	-132.883	47.587	0	298.00	0	4.9610	0	33.8000	0	26.731	0	295.298	0	98.8	4	31.8	4	-1E+10	1	-1E+10	1	-1E+10	1	-1E+10	1	-1E+10	1	-1E+10	1
4902549	120	C	12/11/2023	07:57	-132.883	47.587	0	299.00	0	4.9440	0	33.8020	0	26.735	0	296.288	0	98.2	4	31.6	4	-1E+10	1	-1E+10	1	-1E+10	1	-1E+10	1	-1E+10	1	-1E+10	1
4902549	120	C	12/11/2023	07:57	-132.883	47.587	0	300.10	0	4.9350	0	33.8010	0	26.735	0	297.377	0	97.6	4	31.4	4	-1E+10	1	-1E+10	1	-1E+10	1	-1E+10	1	-1E+10	1	-1E+10	1
4902549	120	C	12/11/2023	07:57	-132.883	47.587	0	301.10	0	4.9350	0	33.8000	0	26.734	0	298.367	0	96.9	4	31.2	4	-1E+10	1	-1E+10	1	-1E+10	1	-1E+10	1	-1E+10	1	-1E+10	1
4902549	120	C	12/11/2023	07:57	-132.883	47.587	0	302.20	0	4.9170	0	33.8020	0	26.738	0	299.456	0	96.4	4	31.0	4	-1E+10	1	-1E+10	1	-1E+10	1	-1E+10	1	-1E+10	1	-1E+10	1
4902549	120	C	12/11/2023	07:57	-132.883	47.587	0	303.30	0	4.9040	0	33.8020	0	26.739	0	300.546	0	95.8	4	30.8	4	-1E+10	1	-1E+10	1	-1E+10	1	-1E+10	1	-1E+10	1	-1E+10	1
4902549	120	C	12/11/2023	07:57	-132.883	47.587	0	304.30	0	4.8980	0	33.8030	0	26.741	0	301.536	0	95.1	4	30.6	4	-1E+10	1	-1E+10	1	-1E+10	1	-1E+10	1	-1E+10	1	-1E+10	1
4902549	120	C	12/11/2023	07:57	-132.883	47.587	0	305.40	0	4.8970	0	33.8020	0	26.740	0	302.625	0	94.5	4	30.4	4	-1E+10	1	-1E+10	1	-1E+10	1	-1E+10	1	-1E+10	1	-1E+10	1
4902549	120	C	12/11/2023	07:57	-132.883	47.587	0	306.40	0	4.9060	0	33.8010	0	26.738	0	303.615	0	93.9	4	30.2	4	-1E+10	1	-1E+10	1	-1E+10	1	-1E+10	1	-1E+10	1	-1E+10	1
4902549	120	C	12/11/2023	07:57	-132.883	47.587	0	307.40	0	4.9050	0	33.8070	0	26.743	0	304.605	0	93.5	4	30.1	4	-1E+10	1	-1E+10	1	-1E+10	1	-1E+10	1	-1E+10	1	-1E+10	1
4902549	120	C	12/11/2023	07:57	-132.883	47.587	0	308.50	0	4.8700	0	33.8070	0	26.747	0	305.695	0	92.9	4	29.9	4	-1E+10	1	-1E+10	1	-1E+10	1	-1E+10	1	-1E+10	1	-1E+10	1
4902549	120	C	12/11/2023	07:57	-132.883	47.587	0	309.50	0	4.8590	0	33.8010	0	26.743	0	306.685	0	92.4	4	29.7	4	-1E+10	1	-1E+10	1	-1E+10	1	-1E+10	1	-1E+10	1	-1E+10	1
4902549	120	C	12/11/2023	07:57	-132.883	47.587	0	310.60	0	4.8380	0	33.8060	0	26.750	0	307.774	0	91.8	4	29.5	4	-1E+10	1	-1E+10	1	-1E+10	1	-1E+10	1	-1E+10	1	-1E+10	1
4902549	120	C	12/11/2023	07:57	-132.883	47.587	0	311.60	0	4.8210	0	33.8040	0	26.750	0	308.764	0	91.2	4	29.3	4	-1E+10	1	-1E+10	1	-1E+10	1	-1E+10	1	-1E+10	1	-1E+10	1
4902549	120	C	12/11/2023	07:57	-132.883	47.587	0	312.70	0	4.8060	0	33.8050	0	26.752	0	309.853	0	90.4	4	29.0	4	-1E+10	1	-1E+10	1	-1E+10	1	-1E+10	1	-1E+10	1	-1E+10	1
4902549	120	C	12/11/2023	07:57	-132.883	47.587	0	313.70	0	4.7910	0	33.8050	0	26.754	0	310.843	0	89.7	4	28.8	4	-1E+10	1	-1E+10	1	-1E+10	1	-1E+10	1	-1E+10	1	-1E+10	1
4902549	120	C	12/11/2023	07:57	-132.883	47.587	0	314.70	0	4.7790	0	33.8060	0	26.756	0	311.834	0	88.9	4	28.5	4	-1E+10	1	-1E+10	1	-1E+10	1	-1E+10	1	-1E+10	1	-1E+10	1
4902549	120	C	12/11/2023	07:57	-132.883	47.587	0	315.70	0	4.7640	0	33.8070	0	26.759	0	312.824	0	88.2	4	28.3	4	-1E+10	1	-1E+10	1	-1E+10	1	-1E+10	1	-1E+10	1	-1E+10	1
4902549	120	C	12/11/2023	07:57	-132.883	47.587	0	316.80	0	4.7560	0	33.8060	0	26.759	0	313.913	0	87.4	4	28.0	4	-1E+10	1	-1E+10	1	-1E+10	1	-1E+10	1	-1E+10	1	-1E+10	1
4902549	120	C	12/11/2023	07:57	-132.883	47.587	0	317.80	0	4.7380	0	33.8100	0	26.764	0	314.903	0	86.7	4	27.8	4	-1E+10	1	-1E+10	1	-1E+10	1	-1E+10	1	-1E+10	1	-1E+10	1
4902549	120	C	12/11/2023	07:57	-132.883	47.587	0	318.80	0	4.7170	0	33.8090	0	26.765	0	315.893	0	86.2	4	27.6	4	-1E+10	1	-1E+10	1	-1E+10	1	-1E+10	1	-1E+10	1	-1E+10	1
4902549	120	C	12/11/2023	07:57	-132.883	47.587	0	319.80	0	4.7130	0	33.8090	0	26.766	0	316.883	0	85.5	4	27.4	4	-1E+10	1	-1E+10	1	-1E+10	1	-1E+10	1	-1E+10	1	-1E+10	1
4902549	120	C	12/11/2023	07:57	-132.883	47.587	0	320.80	0	4.7130	0	33.8090	0	26.766	0	317.873	0	84.7	4	27.1	4	-1E+10	1	-1E+10	1	-1E+10	1	-1E+10	1	-1E+10	1	-1E+10	1
4902549	120	C	12/11/2023	07:57	-132.883	47.587	0	321.80	0	4.7060	0	33.8100	0	26.768	0	318.863	0	83.9	4	26.9	4	-1E+10	1	-1E+10	1	-1E+10	1	-1E+10	1	-1E+10	1	-1E+10	1
4902549	120	C	12/11/2023	07:57	-132.883	47.587	0	322.90	0	4.6830	0	33.8110	0	26.771	0	319.953	0	83.0	4	26.6	4	-1E+10	1	-1E+10	1	-1E+10	1	-1E+10	1	-1E+10	1	-1E+10	1
4902549	120	C	12/11/2023	07:57	-132.883	47.587	0	323.70	0	4.6780	0	33.8120	0	26.772	0	320.745	0	82.3	4	26.3	4	-1E+10	1	-1E+10	1	-1E+10	1	-1E+10	1	-1E+10	1	-1E+10	1
4902549	120	C	12/11/2023	07:57	-132.883	47.587	0	324.80	0	4.6660	0	33.8130	0	26.774	0	321.834	0	81.3	4	26.0	4	-1E+10	1	-1E+10	1	-1E+10	1	-1E+10	1	-1E+10	1	-1E+10	1
4902549	120	C	12/11/2023	07:57	-132.883	47.587	0	326.00	0	4.6480	0	33.8200	0	26.782	0	323.022	0	80.3	4	25.7	4	-1E+10	1	-1E+10	1	-1E+10	1	-1E+10	1	-1E+10	1	-1E+10	1
4902549	120	C	12/11/2023	07:57	-132.883	47.587	0	326.80	0	4.6240	0	33.8180	0	26.783	0	323.814	0	79.9	4	25.5	4	-1E+10	1	-1E+10	1	-1E+10	1	-1E+10	1	-1E+10	1	-1E+10	1
4902549	120	C	12/11/2023	07:57	-132.883	47.587	0	327.90	0	4.6360	0	33.8200	0	26.783	0	324.903	0	79.2	4	25.3	4	-1E+10	1	-1E+10	1	-1E+10	1	-1E+10	1	-1E+10	1	-1E+10	1
4902549	120	C	12/11/2023	07:57	-132.883	47.587	0	329.20	0	4.6560	0	33.8240	0	26.784	0	326.190	0	78.4	4	25.1	4	-1E+10	1	-1E+10	1	-1E+10	1	-1E+10	1	-1E+10	1	-1E+10	1
4902549	120	C	12/11/2023	07:57	-132.883	47.587	0	330.00	0	4.6610	0	33.8280	0	26.787	0	326.982	0	78.0	4	24.9	4	-1E+10	1	-1E+10	1	-1E+10	1	-1E+10	1	-1E+10	1	-1E+10	1
4902549	120	C	12/11/2023	07:57	-132.883	47.587	0	330.80	0	4.6640	0	33.8310	0	26.789	0	327.774	0	77.5	4	24.8	4	-1E+10	1	-1E+10	1	-1E+10	1	-1E+10	1	-1E+10	1	-1E+10	1
4902549	120	C	12/11/2023	07:57	-132.883	47.587	0	331.90	0	4.7280	0	33.8420	0	26.791	0	328.863	0	76.8	4	24.6	4	-1E+10	1	-1E+10	1	-1E+10	1	-1E+10	1	-1E+10	1	-1E+10	1
4902549	120	C	12/11/2023	07:57	-132.883	47.587	0	333.10	0	4.7430	0	33.8490	0	26.794	0	330.051	0	76.3	4	24.5	4	-1E+10	1	-1E+10	1	-1E+10	1	-1E+10	1	-1E+10	1	-1E+10	1
4902549	120	C	12/11/2023	07:57	-132.883	47.587	0	333.90	0	4.7540	0	33.8530	0	26.796	0	330.843	0	75.9	4	24.4	4	-1E+10	1	-1E+10	1	-1E+10	1	-1E+10	1	-1E+10	1	-1E+10	1
4902549	120	C	12/11/2023	07:57	-132.883	47.587	0	334.80	0	4.7620	0	33.8550	0	26.797	0	331.734	0	75.5	4	24.2	4	-1E+10	1	-1E+10	1	-1E+10	1	-1E+10	1	-1E+10	1	-1E+10	1
4902549	120	C	12/11/2023	07:57	-132.883	47.587	0	336.00	0	4.7630	0	33.8560	0	26.798	0	332.922	0	74.9	4	24.0	4	-1E+10	1	-1E+10	1	-1E+10	1	-1E+10	1	-1E+10	1	-1E+10	1
4902549	120	C	12/11/2023	07:57	-132.883	47.587	0	337.20	0	4.7720	0	33.8620	0	26.802	0	334.110	0	74.3	4	23.8	4	-1E+10	1	-1E+10	1	-1E+10	1	-1E+10	1	-1E+10	1	-1E+10	1
4902549	120	C	12/11/2023	07:57	-132.883	47.587	0	338.00	0	4.7730	0	33.8630	0	26.802	0	334.902	0	73.9	4	23.7	4	-1E+10	1	-1E+10	1	-1E+10	1	-1E+10	1	-1E+10	1	-1E+10	1
4902549	120	C	12/11/2023	07:57	-132.883	47.587	0	338.80	0	4.7840	0	33.8640	0	26.802	0	335.695	0	73.5	4	23.6	4	-1E+10	1	-1E+10	1	-1E+10	1	-1E+10	1	-1E+10	1	-1E+10	1
4902549	120	C	12/11/2023	07:57	-132.883	47.587	0	339.60	0	4.8240	0	33.8530	0	26.789	0	336.487	0	73.2	4	23.5	4	-1E+10	1	-1E+10	1	-1E+10	1	-1E+10	1	-1E+10	1	-1E+10	1
4902549	120	C	12/11/2023	07:57	-132.883	47.587	0	340.90	0	4.8170	0	33.8790	0	26.810	0	337.774	0	72.7	4	23.4	4	-1E+10	1	-1E+10	1	-1E+10	1	-1E+10	1	-1E+10	1	-1E+10	1
4902549	120	C	12/11/2023	07:57	-132.883	47.587	0	342.10	0	4.7880	0	33.8820	0	26.816	0	338.962	0	72.4	4	23.2	4	-1E+10	1	-1E+10	1	-1E+10	1	-1E+10	1	-1E+10	1	-1E+10	1
4902549	120	C	12/11/2023	07:57	-132.883	47.587	0	342.90	0	4.7810	0	33.8740	0	26.810	0	339.754	0	72.1	4	23.1	4	-1E+10	1	-1E+10	1	-1E+10	1	-1E+10	1	-1E+10	1	-1E+10	1
4902549	120	C	12/11/2023	07:57	-132.883	47.587	0	343.80	0	4.7900	0	33.8750	0	26.810	0	340.645	0	71.8	4	23.0	4	-1E+10	1	-1E+10	1	-1E+10	1	-1E+10	1	-1E+10	1	-1E+10	1
4902549	120	C	12/11/2023	07:57	-132.883	47.587	0	345.00	0	4.7760	0	33.8740	0	26.811	0	341.833	0	71.3	4	22.9	4	-1E+10	1	-1E+10	1	-1E+10	1	-1E+10	1	-1E+10	1	-1E+10	1
4902549	120	C	12/11/2023	07:57	-132.883	47.587	0	346.30	0	4.7430	0	33.8750	0	26.815	0	343.120	0	70.8	4	22.7	4	-1E+10	1	-1E+10	1	-1E+10	1	-1E+10	1	-1E+10	1	-1E+10	1
4902549	120	C	12/11/2023	07:57	-132.883	47.587	0	347.10	0	4.7420	0	33.8770	0	26.817	0	343.912	0	70.5	4	22.6	4	-1E+10	1	-1E+10	1	-1E+10	1	-1E+10	1	-1E+10	1	-1E+10	1
4902549	120	C	12/11/2023	07:57	-132.883	47.587	0	347.90	0	4.7650	0	33.8790	0	26.816	0	344.704	0	70.2	4	22.5	4	-1E+10	1	-1E+10	1	-1E+10	1	-1E+10	1	-1E+10	1	-1E+10	1
4902549	120	C	12/11/2023	07:57	-132.883	47.587	0	348.80	0	4.8010	0	33.8900	0	26.821	0	345.595	0	69.9	4	22.4	4	-1E+10	1	-1E+10	1	-1E+10	1	-1E+10	1	-1E+10	1	-1E+10	1
4902549	120	C	12/11/2023	07:57	-132.883	47.587	0	349.60	0	4.7990	0	33.8900	0	26.821	0	346.387	0	69.7	4	22.4	4	-1E+10	1	-1E+10	1	-1E+10	1	-1E+10	1	-1E+10	1	-1E+10	1
4902549	120	C	12/11/2023	07:57	-132.883	47.587	0	352.50	0	4.8010	0	33.8910	0	26.822	0	349.257	0	68.7	4	22.1	4	-1E+10	1	-1E+10	1	-1E+10	1	-1E+10	1	-1E+10	1	-1E+10	1
4902549	120	C	12/11/2023	07:57	-132.883	47.587	0	357.60	0	4.7580	0	33.8930	0	26.828	0	354.306	0	66.8	4	21.4	4	-1E+10	1	-1E+10	1	-1E+10	1	-1E+10	1	-1E+10	1	-1E+10	1
4902549	120	C	12/11/2023	07:57	-132.883	47.587	0	362.70	0	4.7310	0	33.8990	0	26.836	0	359.355	0	64.6	4	20.7	4	-1E+10	1	-1E+10	1	-1E+10	1	-1E+10	1	-1E+10	1	-1E+10	1
4902549	120	C	12/11/2023	07:57	-132.883	47.587	0	368.10	0	4.7280	0	33.9110	0	26.846	0	364.700	0	62.8	4	20.1	4	-1E+10	1	-1E+10	1	-1E+10	1	-1E+10	1	-1E+10	1	-1E+10	1
4902549	120	C	12/11/2023	07:57	-132.883	47.587	0	373.10	0	4.6740	0	33.9120	0	26.852	0	369.650	0	61.6	4	19.7	4	-1E+10	1	-1E+10	1	-1E+10	1	-1E+10	1	-1E+10	1	-1E+10	1
4902549	120	C	12/11/2023	07:57	-132.883	47.587	0	378.00	0	4.5720	0	33.9080	0	26.860	0	374.500	0	59.8	4	19.1	4	-1E+10	1	-1E+10	1	-1E+10	1	-1E+10	1	-1E+10	1	-1E+10	1
4902549	120	C	12/11/2023	07:57	-132.883	47.587	0	383.00	0	4.5900	0	33.9170	0	26.866	0	379.449	0	57.4	4	18.4	4	-1E+10	1	-1E+10	1	-1E+10	1	-1E+10	1	-1E+10	1	-1E+10	1
4902549	120	C	12/11/2023	07:57	-132.883	47.587	0	387.60	0	4.6330	0	33.9360	0	26.876	0	384.002	0	56.0	4	17.9	4	-1E+10	1	-1E+10	1	-1E+10	1	-1E+10	1	-1E+10	1	-1E+10	1
4902549	120	C	12/11/2023	07:57	-132.883	47.587	0	392.80	0	4.5980	0	33.9390	0	26.882	0	389.149	0	55.2	4	17.6	4	-1E+10	1	-1E+10	1	-1E+10	1	-1E+10	1	-1E+10	1	-1E+10	1
4902549	120	C	12/11/2023	07:57	-132.883	47.587	0	398.10	0	4.5600	0	33.9410	0	26.888	0	394.395	0	54.4	4	17.4	4	-1E+10	1	-1E+10	1	-1E+10	1	-1E+10	1	-1E+10	1	-1E+10	1
4902549	120	C	12/11/2023	07:57	-132.883	47.587	0	402.90	0	4.4990	0	33.9400	0	26.894	0	399.145	0	53.7	4	17.1	4	-1E+10	1	-1E+10	1	-1E+10	1	-1E+10	1	-1E+10	1	-1E+10	1
4902549	120	C	12/11/2023	07:57	-132.883	47.587	0	407.80	0	4.4350	0	33.9390	0	26.900	0	403.995	0	52.8	4	16.8	4	-1E+10	1	-1E+10	1	-1E+10	1	-1E+10	1	-1E+10	1	-1E+10	1
4902549	120	C	12/11/2023	07:57	-132.883	47.587	0	412.80	0	4.4080	0	33.9420	0	26.905	0	408.943	0	51.7	4	16.5	4	-1E+10	1	-1E+10	1	-1E+10	1	-1E+10	1	-1E+10	1	-1E+10	1
4902549	120	C	12/11/2023	07:57	-132.883	47.587	0	417.70	0	4.3640	0	33.9450	0	26.912	0	413.793	0	50.3	4	16.0	4	-1E+10	1	-1E+10	1	-1E+10	1	-1E+10	1	-1E+10	1	-1E+10	1
4902549	120	C	12/11/2023	07:57	-132.883	47.587	0	422.80	0	4.3260	0	33.9520	0	26.922	0	418.840	0	48.9	4	15.5	4	-1E+10	1	-1E+10	1	-1E+10	1	-1E+10	1	-1E+10	1	-1E+10	1
4902549	120	C	12/11/2023	07:57	-132.883	47.587	0	427.90	0	4.3060	0	33.9550	0	26.926	0	423.887	0	47.6	4	15.1	4	-1E+10	1	-1E+10	1	-1E+10	1	-1E+10	1	-1E+10	1	-1E+10	1
4902549	120	C	12/11/2023	07:57	-132.883	47.587	0	433.10	0	4.2920	0	33.9610	0	26.933	0	429.033	0	46.1	4	14.6	4	-1E+10	1	-1E+10	1	-1E+10	1	-1E+10	1	-1E+10	1	-1E+10	1
4902549	120	C	12/11/2023	07:57	-132.883	47.587	0	438.30	0	4.2760	0	33.9660	0	26.938	0	434.178	0	44.7	4	14.2	4	-1E+10	1	-1E+10	1	-1E+10	1	-1E+10	1	-1E+10	1	-1E+10	1
4902549	120	C	12/11/2023	07:57	-132.883	47.587	0	443.10	0	4.2540	0	33.9760	0	26.949	0	438.928	0	43.7	4	13.9	4	-1E+10	1	-1E+10	1	-1E+10	1	-1E+10	1	-1E+10	1	-1E+10	1
4902549	120	C	12/11/2023	07:57	-132.883	47.587	0	447.90	0	4.2460	0	33.9790	0	26.952	0	443.678	0	42.9	4	13.6	4	-1E+10	1	-1E+10	1	-1E+10	1	-1E+10	1	-1E+10	1	-1E+10	1
4902549	120	C	12/11/2023	07:57	-132.883	47.587	0	453.20	0	4.2340	0	33.9840	0	26.957	0	448.922	0	42.0	4	13.3	4	-1E+10	1	-1E+10	1	-1E+10	1	-1E+10	1	-1E+10	1	-1E+10	1
4902549	120	C	12/11/2023	07:57	-132.883	47.587	0	458.00	0	4.2290	0	33.9870	0	26.960	0	453.672	0	41.2	4	13.1	4	-1E+10	1	-1E+10	1	-1E+10	1	-1E+10	1	-1E+10	1	-1E+10	1
4902549	120	C	12/11/2023	07:57	-132.883	47.587	0	462.90	0	4.2240	0	33.9930	0	26.966	0	458.520	0	40.1	4	12.7	4	-1E+10	1	-1E+10	1	-1E+10	1	-1E+10	1	-1E+10	1	-1E+10	1
4902549	120	C	12/11/2023	07:57	-132.883	47.587	0	468.10	0	4.2070	0	34.0020	0	26.974	0	463.665	0	39.1	4	12.4	4	-1E+10	1	-1E+10	1	-1E+10	1	-1E+10	1	-1E+10	1	-1E+10	1
4902549	120	C	12/11/2023	07:57	-132.883	47.587	0	473.00	0	4.2000	0	34.0050	0	26.978	0	468.513	0	38.5	4	12.2	4	-1E+10	1	-1E+10	1	-1E+10	1	-1E+10	1	-1E+10	1	-1E+10	1
4902549	120	C	12/11/2023	07:57	-132.883	47.587	0	477.90	0	4.1950	0	34.0100	0	26.982	0	473.361	0	37.8	4	12.0	4	-1E+10	1	-1E+10	1	-1E+10	1	-1E+10	1	-1E+10	1	-1E+10	1
4902549	120	C	12/11/2023	07:57	-132.883	47.587	0	482.90	0	4.1870	0	34.0140	0	26.986	0	478.308	0	37.0	4	11.7	4	-1E+10	1	-1E+10	1	-1E+10	1	-1E+10	1	-1E+10	1	-1E+10	1
4902549	120	C	12/11/2023	07:57	-132.883	47.587	0	487.90	0	4.1770	0	34.0200	0	26.992	0	483.254	0	36.2	4	11.5	4	-1E+10	1	-1E+10	1	-1E+10	1	-1E+10	1	-1E+10	1	-1E+10	1
4902549	120	C	12/11/2023	07:57	-132.883	47.587	0	492.90	0	4.1710	0	34.0230	0	26.995	0	488.201	0	35.5	4	11.3	4	-1E+10	1	-1E+10	1	-1E+10	1	-1E+10	1	-1E+10	1	-1E+10	1
4902549	120	C	12/11/2023	07:57	-132.883	47.587	0	498.10	0	4.1620	0	34.0280	0	27.000	0	493.345	0	34.7	4	11.0	4	-1E+10	1	-1E+10	1	-1E+10	1	-1E+10	1	-1E+10	1	-1E+10	1
4902549	120	C	12/11/2023	07:57	-132.883	47.587	0	503.00	0	4.1570	0	34.0330	0	27.005	0	498.192	0	34.0	4	10.8	4	-1E+10	1	-1E+10	1	-1E+10	1	-1E+10	1	-1E+10	1	-1E+10	1
4902549	120	C	12/11/2023	07:57	-132.883	47.587	0	507.80	0	4.1510	0	34.0380	0	27.009	0	502.941	0	33.2	4	10.5	4	-1E+10	1	-1E+10	1	-1E+10	1	-1E+10	1	-1E+10	1	-1E+10	1
4902549	120	C	12/11/2023	07:57	-132.883	47.587	0	512.80	0	4.1470	0	34.0420	0	27.013	0	507.887	0	32.3	4	10.2	4	-1E+10	1	-1E+10	1	-1E+10	1	-1E+10	1	-1E+10	1	-1E+10	1
4902549	120	C	12/11/2023	07:57	-132.883	47.587	0	517.70	0	4.1330	0	34.0490	0	27.020	0	512.734	0	31.3	4	9.9	4	-1E+10	1	-1E+10	1	-1E+10	1	-1E+10	1	-1E+10	1	-1E+10	1
4902549	120	C	12/11/2023	07:57	-132.883	47.587	0	522.80	0	4.1190	0	34.0540	0	27.025	0	517.778	0	30.6	4	9.7	4	-1E+10	1	-1E+10	1	-1E+10	1	-1E+10	1	-1E+10	1	-1E+10	1
4902549	120	C	12/11/2023	07:57	-132.883	47.587	0	527.90	0	4.1180	0	34.0600	0	27.030	0	522.823	0	30.0	4	9.5	4	-1E+10	1	-1E+10	1	-1E+10	1	-1E+10	1	-1E+10	1	-1E+10	1
4902549	120	C	12/11/2023	07:57	-132.883	47.587	0	533.10	0	4.1090	0	34.0650	0	27.035	0	527.966	0	29.2	4	9.2	4	-1E+10	1	-1E+10	1	-1E+10	1	-1E+10	1	-1E+10	1	-1E+10	1
4902549	120	C	12/11/2023	07:57	-132.883	47.587	0	537.80	0	4.1000	0	34.0720	0	27.042	0	532.615	0	28.5	4	9.0	4	-1E+10	1	-1E+10	1	-1E+10	1	-1E+10	1	-1E+10	1	-1E+10	1
4902549	120	C	12/11/2023	07:57	-132.883	47.587	0	542.90	0	4.0890	0	34.0770	0	27.047	0	537.659	0	27.7	4	8.8	4	-1E+10	1	-1E+10	1	-1E+10	1	-1E+10	1	-1E+10	1	-1E+10	1
4902549	120	C	12/11/2023	07:57	-132.883	47.587	0	548.10	0	4.0750	0	34.0820	0	27.052	0	542.802	0	27.0	4	8.5	4	-1E+10	1	-1E+10	1	-1E+10	1	-1E+10	1	-1E+10	1	-1E+10	1
4902549	120	C	12/11/2023	07:57	-132.883	47.587	0	552.90	0	4.0580	0	34.0860	0	27.057	0	547.550	0	26.5	4	8.4	4	-1E+10	1	-1E+10	1	-1E+10	1	-1E+10	1	-1E+10	1	-1E+10	1
4902549	120	C	12/11/2023	07:57	-132.883	47.587	0	557.80	0	4.0590	0	34.0910	0	27.061	0	552.396	0	25.9	4	8.2	4	-1E+10	1	-1E+10	1	-1E+10	1	-1E+10	1	-1E+10	1	-1E+10	1
4902549	120	C	12/11/2023	07:57	-132.883	47.587	0	562.60	0	4.0480	0	34.0960	0	27.066	0	557.143	0	25.2	4	8.0	4	-1E+10	1	-1E+10	1	-1E+10	1	-1E+10	1	-1E+10	1	-1E+10	1
4902549	120	C	12/11/2023	07:57	-132.883	47.587	0	567.50	0	4.0380	0	34.1010	0	27.071	0	561.989	0	24.6	4	7.8	4	-1E+10	1	-1E+10	1	-1E+10	1	-1E+10	1	-1E+10	1	-1E+10	1
4902549	120	C	12/11/2023	07:57	-132.883	47.587	0	572.90	0	4.0290	0	34.1070	0	27.077	0	567.329	0	24.0	4	7.6	4	-1E+10	1	-1E+10	1	-1E+10	1	-1E+10	1	-1E+10	1	-1E+10	1
4902549	120	C	12/11/2023	07:57	-132.883	47.587	0	578.30	0	4.0220	0	34.1110	0	27.081	0	572.669	0	23.5	4	7.4	4	-1E+10	1	-1E+10	1	-1E+10	1	-1E+10	1	-1E+10	1	-1E+10	1
4902549	120	C	12/11/2023	07:57	-132.883	47.587	0	583.20	0	4.0170	0	34.1140	0	27.084	0	577.515	0	23.1	4	7.3	4	-1E+10	1	-1E+10	1	-1E+10	1	-1E+10	1	-1E+10	1	-1E+10	1
4902549	120	C	12/11/2023	07:57	-132.883	47.587	0	588.20	0	3.9990	0	34.1180	0	27.089	0	582.459	0	22.6	4	7.1	4	-1E+10	1	-1E+10	1	-1E+10	1	-1E+10	1	-1E+10	1	-1E+10	1
4902549	120	C	12/11/2023	07:57	-132.883	47.587	0	593.20	0	3.9850	0	34.1220	0	27.094	0	587.403	0	21.9	4	6.9	4	-1E+10	1	-1E+10	1	-1E+10	1	-1E+10	1	-1E+10	1	-1E+10	1
4902549	120	C	12/11/2023	07:57	-132.883	47.587	0	598.20	0	3.9670	0	34.1270	0	27.100	0	592.347	0	21.4	4	6.8	4	-1E+10	1	-1E+10	1	-1E+10	1	-1E+10	1	-1E+10	1	-1E+10	1
4902549	120	C	12/11/2023	07:57	-132.883	47.587	0	603.30	0	3.9590	0	34.1300	0	27.103	0	597.390	0	21.0	4	6.6	4	-1E+10	1	-1E+10	1	-1E+10	1	-1E+10	1	-1E+10	1	-1E+10	1
4902549	120	C	12/11/2023	07:57	-132.883	47.587	0	608.30	0	3.9490	0	34.1340	0	27.107	0	602.334	0	20.6	4	6.5	4	-1E+10	1	-1E+10	1	-1E+10	1	-1E+10	1	-1E+10	1	-1E+10	1
4902549	120	C	12/11/2023	07:57	-132.883	47.587	0	612.90	0	3.9430	0	34.1370	0	27.110	0	606.882	0	20.4	4	6.4	4	-1E+10	1	-1E+10	1	-1E+10	1	-1E+10	1	-1E+10	1	-1E+10	1
4902549	120	C	12/11/2023	07:57	-132.883	47.587	0	617.60	0	3.9400	0	34.1380	0	27.111	0	611.529	0	20.0	4	6.3	4	-1E+10	1	-1E+10	1	-1E+10	1	-1E+10	1	-1E+10	1	-1E+10	1
4902549	120	C	12/11/2023	07:57	-132.883	47.587	0	623.00	0	3.9300	0	34.1420	0	27.115	0	616.868	0	19.6	4	6.2	4	-1E+10	1	-1E+10	1	-1E+10	1	-1E+10	1	-1E+10	1	-1E+10	1
4902549	120	C	12/11/2023	07:57	-132.883	47.587	0	627.90	0	3.9140	0	34.1460	0	27.120	0	621.712	0	19.1	4	6.0	4	-1E+10	1	-1E+10	1	-1E+10	1	-1E+10	1	-1E+10	1	-1E+10	1
4902549	120	C	12/11/2023	07:57	-132.883	47.587	0	632.70	0	3.9000	0	34.1520	0	27.126	0	626.458	0	18.7	4	5.9	4	-1E+10	1	-1E+10	1	-1E+10	1	-1E+10	1	-1E+10	1	-1E+10	1
4902549	120	C	12/11/2023	07:57	-132.883	47.587	0	637.60	0	3.8890	0	34.1570	0	27.132	0	631.302	0	18.3	4	5.8	4	-1E+10	1	-1E+10	1	-1E+10	1	-1E+10	1	-1E+10	1	-1E+10	1
4902549	120	C	12/11/2023	07:57	-132.883	47.587	0	642.50	0	3.8770	0	34.1610	0	27.136	0	636.146	0	18.1	4	5.7	4	-1E+10	1	-1E+10	1	-1E+10	1	-1E+10	1	-1E+10	1	-1E+10	1
4902549	120	C	12/11/2023	07:57	-132.883	47.587	0	647.60	0	3.8650	0	34.1630	0	27.139	0	641.188	0	17.9	4	5.6	4	-1E+10	1	-1E+10	1	-1E+10	1	-1E+10	1	-1E+10	1	-1E+10	1
4902549	120	C	12/11/2023	07:57	-132.883	47.587	0	652.80	0	3.8500	0	34.1670	0	27.144	0	646.328	0	17.6	4	5.5	4	-1E+10	1	-1E+10	1	-1E+10	1	-1E+10	1	-1E+10	1	-1E+10	1
4902549	120	C	12/11/2023	07:57	-132.883	47.587	0	658.00	0	3.8470	0	34.1680	0	27.145	0	651.468	0	17.2	4	5.4	4	-1E+10	1	-1E+10	1	-1E+10	1	-1E+10	1	-1E+10	1	-1E+10	1
4902549	120	C	12/11/2023	07:57	-132.883	47.587	0	663.10	0	3.8410	0	34.1710	0	27.148	0	656.510	0	16.9	4	5.3	4	-1E+10	1	-1E+10	1	-1E+10	1	-1E+10	1	-1E+10	1	-1E+10	1
4902549	120	C	12/11/2023	07:57	-132.883	47.587	0	668.00	0	3.8320	0	34.1750	0	27.152	0	661.353	0	16.5	4	5.2	4	-1E+10	1	-1E+10	1	-1E+10	1	-1E+10	1	-1E+10	1	-1E+10	1
4902549	120	C	12/11/2023	07:57	-132.883	47.587	0	672.80	0	3.8160	0	34.1780	0	27.156	0	666.098	0	16.2	4	5.1	4	-1E+10	1	-1E+10	1	-1E+10	1	-1E+10	1	-1E+10	1	-1E+10	1
4902549	120	C	12/11/2023	07:57	-132.883	47.587	0	678.10	0	3.8030	0	34.1810	0	27.160	0	671.336	0	15.8	4	5.0	4	-1E+10	1	-1E+10	1	-1E+10	1	-1E+10	1	-1E+10	1	-1E+10	1
4902549	120	C	12/11/2023	07:57	-132.883	47.587	0	683.00	0	3.7890	0	34.1850	0	27.164	0	676.180	0	15.5	4	4.9	4	-1E+10	1	-1E+10	1	-1E+10	1	-1E+10	1	-1E+10	1	-1E+10	1
4902549	120	C	12/11/2023	07:57	-132.883	47.587	0	687.80	0	3.7820	0	34.1870	0	27.166	0	680.924	0	15.4	4	4.8	4	-1E+10	1	-1E+10	1	-1E+10	1	-1E+10	1	-1E+10	1	-1E+10	1
4902549	120	C	12/11/2023	07:57	-132.883	47.587	0	693.10	0	3.7720	0	34.1910	0	27.171	0	686.162	0	15.1	4	4.8	4	-1E+10	1	-1E+10	1	-1E+10	1	-1E+10	1	-1E+10	1	-1E+10	1
4902549	120	C	12/11/2023	07:57	-132.883	47.587	0	697.90	0	3.7620	0	34.1940	0	27.174	0	690.906	0	14.9	4	4.7	4	-1E+10	1	-1E+10	1	-1E+10	1	-1E+10	1	-1E+10	1	-1E+10	1
4902549	120	C	12/11/2023	07:57	-132.883	47.587	0	702.70	0	3.7510	0	34.1970	0	27.178	0	695.650	0	14.5	4	4.6	4	-1E+10	1	-1E+10	1	-1E+10	1	-1E+10	1	-1E+10	1	-1E+10	1
4902549	120	C	12/11/2023	07:57	-132.883	47.587	0	707.90	0	3.7420	0	34.2010	0	27.182	0	700.789	0	14.2	4	4.4	4	-1E+10	1	-1E+10	1	-1E+10	1	-1E+10	1	-1E+10	1	-1E+10	1
4902549	120	C	12/11/2023	07:57	-132.883	47.587	0	713.10	0	3.7280	0	34.2060	0	27.187	0	705.928	0	13.8	4	4.3	4	-1E+10	1	-1E+10	1	-1E+10	1	-1E+10	1	-1E+10	1	-1E+10	1
4902549	120	C	12/11/2023	07:57	-132.883	47.587	0	717.90	0	3.7230	0	34.2080	0	27.189	0	710.672	0	13.6	4	4.3	4	-1E+10	1	-1E+10	1	-1E+10	1	-1E+10	1	-1E+10	1	-1E+10	1
4902549	120	C	12/11/2023	07:57	-132.883	47.587	0	722.70	0	3.7100	0	34.2120	0	27.194	0	715.415	0	13.3	4	4.2	4	-1E+10	1	-1E+10	1	-1E+10	1	-1E+10	1	-1E+10	1	-1E+10	1
4902549	120	C	12/11/2023	07:57	-132.883	47.587	0	728.00	0	3.7000	0	34.2150	0	27.197	0	720.653	0	12.9	4	4.1	4	-1E+10	1	-1E+10	1	-1E+10	1	-1E+10	1	-1E+10	1	-1E+10	1
4902549	120	C	12/11/2023	07:57	-132.883	47.587	0	732.80	0	3.6880	0	34.2200	0	27.202	0	725.396	0	12.6	4	3.9	4	-1E+10	1	-1E+10	1	-1E+10	1	-1E+10	1	-1E+10	1	-1E+10	1
4902549	120	C	12/11/2023	07:57	-132.883	47.587	0	737.60	0	3.6750	0	34.2240	0	27.207	0	730.139	0	12.1	4	3.8	4	-1E+10	1	-1E+10	1	-1E+10	1	-1E+10	1	-1E+10	1	-1E+10	1
4902549	120	C	12/11/2023	07:57	-132.883	47.587	0	742.90	0	3.6680	0	34.2280	0	27.211	0	735.376	0	11.6	4	3.6	4	-1E+10	1	-1E+10	1	-1E+10	1	-1E+10	1	-1E+10	1	-1E+10	1
4902549	120	C	12/11/2023	07:57	-132.883	47.587	0	747.80	0	3.6600	0	34.2320	0	27.215	0	740.218	0	11.2	4	3.5	4	-1E+10	1	-1E+10	1	-1E+10	1	-1E+10	1	-1E+10	1	-1E+10	1
4902549	120	C	12/11/2023	07:57	-132.883	47.587	0	752.80	0	3.6550	0	34.2360	0	27.218	0	745.158	0	10.5	4	3.3	4	-1E+10	1	-1E+10	1	-1E+10	1	-1E+10	1	-1E+10	1	-1E+10	1
4902549	120	C	12/11/2023	07:57	-132.883	47.587	0	757.90	0	3.6490	0	34.2410	0	27.223	0	750.197	0	10.3	4	3.2	4	-1E+10	1	-1E+10	1	-1E+10	1	-1E+10	1	-1E+10	1	-1E+10	1
4902549	120	C	12/11/2023	07:57	-132.883	47.587	0	762.60	0	3.6440	0	34.2430	0	27.225	0	754.841	0	10.1	4	3.2	4	-1E+10	1	-1E+10	1	-1E+10	1	-1E+10	1	-1E+10	1	-1E+10	1
4902549	120	C	12/11/2023	07:57	-132.883	47.587	0	767.90	0	3.6390	0	34.2450	0	27.227	0	760.077	0	9.9	4	3.1	4	-1E+10	1	-1E+10	1	-1E+10	1	-1E+10	1	-1E+10	1	-1E+10	1
4902549	120	C	12/11/2023	07:57	-132.883	47.587	0	773.30	0	3.6310	0	34.2480	0	27.231	0	765.412	0	9.7	4	3.0	4	-1E+10	1	-1E+10	1	-1E+10	1	-1E+10	1	-1E+10	1	-1E+10	1
4902549	120	C	12/11/2023	07:57	-132.883	47.587	0	778.30	0	3.6210	0	34.2520	0	27.235	0	770.352	0	9.7	4	3.0	4	-1E+10	1	-1E+10	1	-1E+10	1	-1E+10	1	-1E+10	1	-1E+10	1
4902549	120	C	12/11/2023	07:57	-132.883	47.587	0	783.30	0	3.6060	0	34.2530	0	27.237	0	775.292	0	9.5	4	3.0	4	-1E+10	1	-1E+10	1	-1E+10	1	-1E+10	1	-1E+10	1	-1E+10	1
4902549	120	C	12/11/2023	07:57	-132.883	47.587	0	787.90	0	3.6020	0	34.2550	0	27.239	0	779.836	0	9.2	4	2.9	4	-1E+10	1	-1E+10	1	-1E+10	1	-1E+10	1	-1E+10	1	-1E+10	1
4902549	120	C	12/11/2023	07:57	-132.883	47.587	0	792.50	0	3.6020	0	34.2570	0	27.241	0	784.380	0	8.8	4	2.8	4	-1E+10	1	-1E+10	1	-1E+10	1	-1E+10	1	-1E+10	1	-1E+10	1
4902549	120	C	12/11/2023	07:57	-132.883	47.587	0	797.70	0	3.6000	0	34.2630	0	27.246	0	789.517	0	8.6	4	2.7	4	-1E+10	1	-1E+10	1	-1E+10	1	-1E+10	1	-1E+10	1	-1E+10	1
4902549	120	C	12/11/2023	07:57	-132.883	47.587	0	803.00	0	3.5930	0	34.2650	0	27.248	0	794.753	0	8.5	4	2.7	4	-1E+10	1	-1E+10	1	-1E+10	1	-1E+10	1	-1E+10	1	-1E+10	1
4902549	120	C	12/11/2023	07:57	-132.883	47.587	0	807.80	0	3.5800	0	34.2660	0	27.250	0	799.494	0	8.4	4	2.6	4	-1E+10	1	-1E+10	1	-1E+10	1	-1E+10	1	-1E+10	1	-1E+10	1
4902549	120	C	12/11/2023	07:57	-132.883	47.587	0	812.60	0	3.5610	0	34.2700	0	27.255	0	804.236	0	8.3	4	2.6	4	-1E+10	1	-1E+10	1	-1E+10	1	-1E+10	1	-1E+10	1	-1E+10	1
4902549	120	C	12/11/2023	07:57	-132.883	47.587	0	818.10	0	3.5520	0	34.2740	0	27.259	0	809.669	0	8.1	4	2.5	4	-1E+10	1	-1E+10	1	-1E+10	1	-1E+10	1	-1E+10	1	-1E+10	1
4902549	120	C	12/11/2023	07:57	-132.883	47.587	0	823.10	0	3.5420	0	34.2760	0	27.262	0	814.607	0	8.0	4	2.5	4	-1E+10	1	-1E+10	1	-1E+10	1	-1E+10	1	-1E+10	1	-1E+10	1
4902549	120	C	12/11/2023	07:57	-132.883	47.587	0	828.10	0	3.5340	0	34.2780	0	27.264	0	819.546	0	7.9	4	2.5	4	-1E+10	1	-1E+10	1	-1E+10	1	-1E+10	1	-1E+10	1	-1E+10	1
4902549	120	C	12/11/2023	07:57	-132.883	47.587	0	833.20	0	3.5240	0	34.2820	0	27.268	0	824.583	0	7.7	4	2.4	4	-1E+10	1	-1E+10	1	-1E+10	1	-1E+10	1	-1E+10	1	-1E+10	1
4902549	120	C	12/11/2023	07:57	-132.883	47.587	0	837.90	0	3.5170	0	34.2850	0	27.272	0	829.225	0	7.6	4	2.4	4	-1E+10	1	-1E+10	1	-1E+10	1	-1E+10	1	-1E+10	1	-1E+10	1
4902549	120	C	12/11/2023	07:57	-132.883	47.587	0	842.80	0	3.5090	0	34.2880	0	27.275	0	834.065	0	7.4	4	2.3	4	-1E+10	1	-1E+10	1	-1E+10	1	-1E+10	1	-1E+10	1	-1E+10	1
4902549	120	C	12/11/2023	07:57	-132.883	47.587	0	847.70	0	3.5120	0	34.2920	0	27.278	0	838.904	0	7.4	4	2.3	4	-1E+10	1	-1E+10	1	-1E+10	1	-1E+10	1	-1E+10	1	-1E+10	1
4902549	120	C	12/11/2023	07:57	-132.883	47.587	0	852.90	0	3.5080	0	34.2960	0	27.281	0	844.040	0	7.3	4	2.3	4	-1E+10	1	-1E+10	1	-1E+10	1	-1E+10	1	-1E+10	1	-1E+10	1
4902549	120	C	12/11/2023	07:57	-132.883	47.587	0	858.20	0	3.5040	0	34.2980	0	27.283	0	849.274	0	7.1	4	2.2	4	-1E+10	1	-1E+10	1	-1E+10	1	-1E+10	1	-1E+10	1	-1E+10	1
4902549	120	C	12/11/2023	07:57	-132.883	47.587	0	863.10	0	3.4990	0	34.3020	0	27.287	0	854.113	0	7.1	4	2.2	4	-1E+10	1	-1E+10	1	-1E+10	1	-1E+10	1	-1E+10	1	-1E+10	1
4902549	120	C	12/11/2023	07:57	-132.883	47.587	0	868.10	0	3.4870	0	34.3050	0	27.291	0	859.050	0	7.1	4	2.2	4	-1E+10	1	-1E+10	1	-1E+10	1	-1E+10	1	-1E+10	1	-1E+10	1
4902549	120	C	12/11/2023	07:57	-132.883	47.587	0	873.10	0	3.4820	0	34.3050	0	27.291	0	863.988	0	7.2	4	2.2	4	-1E+10	1	-1E+10	1	-1E+10	1	-1E+10	1	-1E+10	1	-1E+10	1
4902549	120	C	12/11/2023	07:57	-132.883	47.587	0	878.10	0	3.4710	0	34.3070	0	27.294	0	868.925	0	7.2	4	2.3	4	-1E+10	1	-1E+10	1	-1E+10	1	-1E+10	1	-1E+10	1	-1E+10	1
4902549	120	C	12/11/2023	07:57	-132.883	47.587	0	883.20	0	3.4530	0	34.3080	0	27.296	0	873.962	0	7.3	4	2.3	4	-1E+10	1	-1E+10	1	-1E+10	1	-1E+10	1	-1E+10	1	-1E+10	1
4902549	120	C	12/11/2023	07:57	-132.883	47.587	0	888.30	0	3.4400	0	34.3100	0	27.299	0	878.997	0	7.3	4	2.3	4	-1E+10	1	-1E+10	1	-1E+10	1	-1E+10	1	-1E+10	1	-1E+10	1
4902549	120	C	12/11/2023	07:57	-132.883	47.587	0	892.90	0	3.4240	0	34.3120	0	27.302	0	883.540	0	7.3	4	2.3	4	-1E+10	1	-1E+10	1	-1E+10	1	-1E+10	1	-1E+10	1	-1E+10	1
4902549	120	C	12/11/2023	07:57	-132.883	47.587	0	897.60	0	3.4100	0	34.3150	0	27.306	0	888.180	0	7.3	4	2.3	4	-1E+10	1	-1E+10	1	-1E+10	1	-1E+10	1	-1E+10	1	-1E+10	1
4902549	120	C	12/11/2023	07:57	-132.883	47.587	0	902.80	0	3.3910	0	34.3160	0	27.309	0	893.315	0	7.3	4	2.3	4	-1E+10	1	-1E+10	1	-1E+10	1	-1E+10	1	-1E+10	1	-1E+10	1
4902549	120	C	12/11/2023	07:57	-132.883	47.587	0	907.90	0	3.3790	0	34.3180	0	27.311	0	898.350	0	7.3	4	2.3	4	-1E+10	1	-1E+10	1	-1E+10	1	-1E+10	1	-1E+10	1	-1E+10	1
4902549	120	C	12/11/2023	07:57	-132.883	47.587	0	913.10	0	3.3580	0	34.3200	0	27.315	0	903.484	0	7.3	4	2.3	4	-1E+10	1	-1E+10	1	-1E+10	1	-1E+10	1	-1E+10	1	-1E+10	1
4902549	120	C	12/11/2023	07:57	-132.883	47.587	0	917.90	0	3.3420	0	34.3240	0	27.320	0	908.223	0	7.2	4	2.2	4	-1E+10	1	-1E+10	1	-1E+10	1	-1E+10	1	-1E+10	1	-1E+10	1
4902549	120	C	12/11/2023	07:57	-132.883	47.587	0	922.70	0	3.3350	0	34.3250	0	27.321	0	912.962	0	7.2	4	2.2	4	-1E+10	1	-1E+10	1	-1E+10	1	-1E+10	1	-1E+10	1	-1E+10	1
4902549	120	C	12/11/2023	07:57	-132.883	47.587	0	928.00	0	3.3250	0	34.3280	0	27.325	0	918.195	0	7.1	4	2.2	4	-1E+10	1	-1E+10	1	-1E+10	1	-1E+10	1	-1E+10	1	-1E+10	1
4902549	120	C	12/11/2023	07:57	-132.883	47.587	0	932.90	0	3.3160	0	34.3310	0	27.328	0	923.032	0	7.1	4	2.2	4	-1E+10	1	-1E+10	1	-1E+10	1	-1E+10	1	-1E+10	1	-1E+10	1
4902549	120	C	12/11/2023	07:57	-132.883	47.587	0	937.90	0	3.3120	0	34.3320	0	27.329	0	927.968	0	7.1	4	2.2	4	-1E+10	1	-1E+10	1	-1E+10	1	-1E+10	1	-1E+10	1	-1E+10	1
4902549	120	C	12/11/2023	07:57	-132.883	47.587	0	942.90	0	3.3040	0	34.3340	0	27.331	0	932.904	0	7.2	4	2.2	4	-1E+10	1	-1E+10	1	-1E+10	1	-1E+10	1	-1E+10	1	-1E+10	1
4902549	120	C	12/11/2023	07:57	-132.883	47.587	0	947.80	0	3.2880	0	34.3340	0	27.333	0	937.741	0	7.2	4	2.2	4	-1E+10	1	-1E+10	1	-1E+10	1	-1E+10	1	-1E+10	1	-1E+10	1
4902549	120	C	12/11/2023	07:57	-132.883	47.587	0	953.20	0	3.2750	0	34.3350	0	27.335	0	943.072	0	7.3	4	2.3	4	-1E+10	1	-1E+10	1	-1E+10	1	-1E+10	1	-1E+10	1	-1E+10	1
4902549	120	C	12/11/2023	07:57	-132.883	47.587	0	958.10	0	3.2540	0	34.3350	0	27.337	0	947.909	0	7.3	4	2.3	4	-1E+10	1	-1E+10	1	-1E+10	1	-1E+10	1	-1E+10	1	-1E+10	1
4902549	120	C	12/11/2023	07:57	-132.883	47.587	0	963.10	0	3.2420	0	34.3380	0	27.341	0	952.844	0	7.2	4	2.2	4	-1E+10	1	-1E+10	1	-1E+10	1	-1E+10	1	-1E+10	1	-1E+10	1
4902549	120	C	12/11/2023	07:57	-132.883	47.587	0	968.10	0	3.2370	0	34.3410	0	27.343	0	957.779	0	7.2	4	2.2	4	-1E+10	1	-1E+10	1	-1E+10	1	-1E+10	1	-1E+10	1	-1E+10	1
4902549	120	C	12/11/2023	07:57	-132.883	47.587	0	972.70	0	3.2290	0	34.3420	0	27.345	0	962.320	0	7.2	4	2.2	4	-1E+10	1	-1E+10	1	-1E+10	1	-1E+10	1	-1E+10	1	-1E+10	1
4902549	120	C	12/11/2023	07:57	-132.883	47.587	0	977.80	0	3.2070	0	34.3440	0	27.349	0	967.353	0	7.2	4	2.2	4	-1E+10	1	-1E+10	1	-1E+10	1	-1E+10	1	-1E+10	1	-1E+10	1
4902549	120	C	12/11/2023	07:57	-132.883	47.587	0	983.00	0	3.1830	0	34.3490	0	27.355	0	972.486	0	7.2	4	2.2	4	-1E+10	1	-1E+10	1	-1E+10	1	-1E+10	1	-1E+10	1	-1E+10	1
4902549	120	C	12/11/2023	07:57	-132.883	47.587	0	987.90	0	3.1740	0	34.3500	0	27.357	0	977.322	0	7.1	4	2.2	4	-1E+10	1	-1E+10	1	-1E+10	1	-1E+10	1	-1E+10	1	-1E+10	1
4902549	120	C	12/11/2023	07:57	-132.883	47.587	0	992.80	0	3.1720	0	34.3520	0	27.358	0	982.158	0	7.1	4	2.2	4	-1E+10	1	-1E+10	1	-1E+10	1	-1E+10	1	-1E+10	1	-1E+10	1
4902549	120	C	12/11/2023	07:57	-132.883	47.587	0	997.90	0	3.1690	0	34.3560	0	27.362	0	987.191	0	7.1	4	2.2	4	-1E+10	1	-1E+10	1	-1E+10	1	-1E+10	1	-1E+10	1	-1E+10	1
4902549	120	C	12/11/2023	07:57	-132.883	47.587	0	1005.60	0	3.1500	0	34.3580	0	27.365	0	994.791	0	7.1	4	2.2	4	-1E+10	1	-1E+10	1	-1E+10	1	-1E+10	1	-1E+10	1	-1E+10	1
4902549	120	C	12/11/2023	07:57	-132.883	47.587	0	1015.50	0	3.1360	0	34.3610	0	27.369	0	1004.560	0	7.1	4	2.2	4	-1E+10	1	-1E+10	1	-1E+10	1	-1E+10	1	-1E+10	1	-1E+10	1
4902549	120	C	12/11/2023	07:57	-132.883	47.587	0	1025.50	0	3.1290	0	34.3650	0	27.373	0	1014.429	0	7.0	4	2.2	4	-1E+10	1	-1E+10	1	-1E+10	1	-1E+10	1	-1E+10	1	-1E+10	1
4902549	120	C	12/11/2023	07:57	-132.883	47.587	0	1035.60	0	3.1080	0	34.3670	0	27.376	0	1024.395	0	7.1	4	2.2	4	-1E+10	1	-1E+10	1	-1E+10	1	-1E+10	1	-1E+10	1	-1E+10	1
4902549	120	C	12/11/2023	07:57	-132.883	47.587	0	1045.40	0	3.1040	0	34.3700	0	27.379	0	1034.065	0	7.0	4	2.2	4	-1E+10	1	-1E+10	1	-1E+10	1	-1E+10	1	-1E+10	1	-1E+10	1
4902549	120	C	12/11/2023	07:57	-132.883	47.587	0	1055.40	0	3.0940	0	34.3740	0	27.383	0	1043.931	0	7.0	4	2.2	4	-1E+10	1	-1E+10	1	-1E+10	1	-1E+10	1	-1E+10	1	-1E+10	1
4902549	120	C	12/11/2023	07:57	-132.883	47.587	0	1065.60	0	3.0840	0	34.3780	0	27.388	0	1053.995	0	7.0	4	2.2	4	-1E+10	1	-1E+10	1	-1E+10	1	-1E+10	1	-1E+10	1	-1E+10	1
4902549	120	C	12/11/2023	07:57	-132.883	47.587	0	1075.40	0	3.0670	0	34.3810	0	27.392	0	1063.663	0	7.1	4	2.2	4	-1E+10	1	-1E+10	1	-1E+10	1	-1E+10	1	-1E+10	1	-1E+10	1
4902549	120	C	12/11/2023	07:57	-132.883	47.587	0	1085.40	0	3.0470	0	34.3850	0	27.397	0	1073.529	0	7.2	4	2.2	4	-1E+10	1	-1E+10	1	-1E+10	1	-1E+10	1	-1E+10	1	-1E+10	1
4902549	120	C	12/11/2023	07:57	-132.883	47.587	0	1095.40	0	3.0120	0	34.3860	0	27.401	0	1083.393	0	7.2	4	2.2	4	-1E+10	1	-1E+10	1	-1E+10	1	-1E+10	1	-1E+10	1	-1E+10	1
4902549	120	C	12/11/2023	07:57	-132.883	47.587	0	1105.30	0	2.9960	0	34.3890	0	27.405	0	1093.159	0	7.3	4	2.3	4	-1E+10	1	-1E+10	1	-1E+10	1	-1E+10	1	-1E+10	1	-1E+10	1
4902549	120	C	12/11/2023	07:57	-132.883	47.587	0	1115.20	0	2.9840	0	34.3920	0	27.408	0	1102.924	0	7.4	4	2.3	4	-1E+10	1	-1E+10	1	-1E+10	1	-1E+10	1	-1E+10	1	-1E+10	1
4902549	120	C	12/11/2023	07:57	-132.883	47.587	0	1125.20	0	2.9710	0	34.3950	0	27.412	0	1112.788	0	7.5	4	2.3	4	-1E+10	1	-1E+10	1	-1E+10	1	-1E+10	1	-1E+10	1	-1E+10	1
4902549	120	C	12/11/2023	07:57	-132.883	47.587	0	1135.20	0	2.9480	0	34.4000	0	27.418	0	1122.651	0	7.6	4	2.3	4	-1E+10	1	-1E+10	1	-1E+10	1	-1E+10	1	-1E+10	1	-1E+10	1
4902549	120	C	12/11/2023	07:57	-132.883	47.587	0	1145.30	0	2.9240	0	34.4040	0	27.423	0	1132.612	0	7.7	4	2.4	4	-1E+10	1	-1E+10	1	-1E+10	1	-1E+10	1	-1E+10	1	-1E+10	1
4902549	120	C	12/11/2023	07:57	-132.883	47.587	0	1155.30	0	2.9050	0	34.4070	0	27.427	0	1142.474	0	7.9	4	2.4	4	-1E+10	1	-1E+10	1	-1E+10	1	-1E+10	1	-1E+10	1	-1E+10	1
4902549	120	C	12/11/2023	07:57	-132.883	47.587	0	1165.50	0	2.8890	0	34.4110	0	27.432	0	1152.533	0	8.0	4	2.5	4	-1E+10	1	-1E+10	1	-1E+10	1	-1E+10	1	-1E+10	1	-1E+10	1
4902549	120	C	12/11/2023	07:57	-132.883	47.587	0	1175.60	0	2.8730	0	34.4150	0	27.437	0	1162.493	0	8.1	4	2.5	4	-1E+10	1	-1E+10	1	-1E+10	1	-1E+10	1	-1E+10	1	-1E+10	1
4902549	120	C	12/11/2023	07:57	-132.883	47.587	0	1185.60	0	2.8630	0	34.4170	0	27.439	0	1172.353	0	8.3	4	2.5	4	-1E+10	1	-1E+10	1	-1E+10	1	-1E+10	1	-1E+10	1	-1E+10	1
4902549	120	C	12/11/2023	07:57	-132.883	47.587	0	1195.10	0	2.8410	0	34.4200	0	27.444	0	1181.720	0	8.5	4	2.6	4	-1E+10	1	-1E+10	1	-1E+10	1	-1E+10	1	-1E+10	1	-1E+10	1
4902549	120	C	12/11/2023	07:57	-132.883	47.587	0	1205.40	0	2.8240	0	34.4230	0	27.448	0	1191.876	0	8.6	4	2.6	4	-1E+10	1	-1E+10	1	-1E+10	1	-1E+10	1	-1E+10	1	-1E+10	1
4902549	120	C	12/11/2023	07:57	-132.883	47.587	0	1215.70	0	2.8130	0	34.4250	0	27.450	0	1202.031	0	8.8	4	2.7	4	-1E+10	1	-1E+10	1	-1E+10	1	-1E+10	1	-1E+10	1	-1E+10	1
4902549	120	C	12/11/2023	07:57	-132.883	47.587	0	1225.60	0	2.8000	0	34.4280	0	27.454	0	1211.791	0	9.0	4	2.8	4	-1E+10	1	-1E+10	1	-1E+10	1	-1E+10	1	-1E+10	1	-1E+10	1
4902549	120	C	12/11/2023	07:57	-132.883	47.587	0	1235.50	0	2.7850	0	34.4320	0	27.458	0	1221.551	0	9.3	4	2.8	4	-1E+10	1	-1E+10	1	-1E+10	1	-1E+10	1	-1E+10	1	-1E+10	1
4902549	120	C	12/11/2023	07:57	-132.883	47.587	0	1245.60	0	2.7620	0	34.4360	0	27.464	0	1231.507	0	9.5	4	2.9	4	-1E+10	1	-1E+10	1	-1E+10	1	-1E+10	1	-1E+10	1	-1E+10	1
4902549	120	C	12/11/2023	07:57	-132.883	47.587	0	1255.40	0	2.7490	0	34.4390	0	27.467	0	1241.167	0	9.7	4	3.0	4	-1E+10	1	-1E+10	1	-1E+10	1	-1E+10	1	-1E+10	1	-1E+10	1
4902549	120	C	12/11/2023	07:57	-132.883	47.587	0	1265.30	0	2.7420	0	34.4400	0	27.469	0	1250.926	0	9.9	4	3.0	4	-1E+10	1	-1E+10	1	-1E+10	1	-1E+10	1	-1E+10	1	-1E+10	1
4902549	120	C	12/11/2023	07:57	-132.883	47.587	0	1275.80	0	2.7250	0	34.4440	0	27.473	0	1261.275	0	10.1	4	3.1	4	-1E+10	1	-1E+10	1	-1E+10	1	-1E+10	1	-1E+10	1	-1E+10	1
4902549	120	C	12/11/2023	07:57	-132.883	47.587	0	1285.30	0	2.7200	0	34.4450	0	27.475	0	1270.638	0	10.3	4	3.2	4	-1E+10	1	-1E+10	1	-1E+10	1	-1E+10	1	-1E+10	1	-1E+10	1
4902549	120	C	12/11/2023	07:57	-132.883	47.587	0	1295.30	0	2.7060	0	34.4480	0	27.478	0	1280.494	0	10.8	4	3.3	4	-1E+10	1	-1E+10	1	-1E+10	1	-1E+10	1	-1E+10	1	-1E+10	1
4902549	120	C	12/11/2023	07:57	-132.883	47.587	0	1305.60	0	2.6860	0	34.4520	0	27.483	0	1290.645	0	11.1	4	3.4	4	-1E+10	1	-1E+10	1	-1E+10	1	-1E+10	1	-1E+10	1	-1E+10	1
4902549	120	C	12/11/2023	07:57	-132.883	47.587	0	1315.50	0	2.6740	0	34.4550	0	27.487	0	1300.401	0	11.4	4	3.5	4	-1E+10	1	-1E+10	1	-1E+10	1	-1E+10	1	-1E+10	1	-1E+10	1
4902549	120	C	12/11/2023	07:57	-132.883	47.587	0	1325.50	0	2.6560	0	34.4580	0	27.491	0	1310.255	0	11.8	4	3.6	4	-1E+10	1	-1E+10	1	-1E+10	1	-1E+10	1	-1E+10	1	-1E+10	1
4902549	120	C	12/11/2023	07:57	-132.883	47.587	0	1335.50	0	2.6480	0	34.4600	0	27.493	0	1320.108	0	12.1	4	3.7	4	-1E+10	1	-1E+10	1	-1E+10	1	-1E+10	1	-1E+10	1	-1E+10	1
4902549	120	C	12/11/2023	07:57	-132.883	47.587	0	1345.10	0	2.6350	0	34.4620	0	27.496	0	1329.567	0	12.4	4	3.8	4	-1E+10	1	-1E+10	1	-1E+10	1	-1E+10	1	-1E+10	1	-1E+10	1
4902549	120	C	12/11/2023	07:57	-132.883	47.587	0	1355.40	0	2.6250	0	34.4640	0	27.499	0	1339.716	0	12.8	4	3.9	4	-1E+10	1	-1E+10	1	-1E+10	1	-1E+10	1	-1E+10	1	-1E+10	1
4902549	120	C	12/11/2023	07:57	-132.883	47.587	0	1365.50	0	2.6150	0	34.4670	0	27.502	0	1349.667	0	13.3	4	4.1	4	-1E+10	1	-1E+10	1	-1E+10	1	-1E+10	1	-1E+10	1	-1E+10	1
4902549	120	C	12/11/2023	07:57	-132.883	47.587	0	1375.30	0	2.5990	0	34.4710	0	27.506	0	1359.322	0	13.8	4	4.2	4	-1E+10	1	-1E+10	1	-1E+10	1	-1E+10	1	-1E+10	1	-1E+10	1
4902549	120	C	12/11/2023	07:57	-132.883	47.587	0	1385.30	0	2.5790	0	34.4740	0	27.511	0	1369.173	0	14.3	4	4.4	4	-1E+10	1	-1E+10	1	-1E+10	1	-1E+10	1	-1E+10	1	-1E+10	1
4902549	120	C	12/11/2023	07:57	-132.883	47.587	0	1395.40	0	2.5650	0	34.4760	0	27.513	0	1379.122	0	14.7	4	4.5	4	-1E+10	1	-1E+10	1	-1E+10	1	-1E+10	1	-1E+10	1	-1E+10	1
4902549	120	C	12/11/2023	07:57	-132.883	47.587	0	1405.60	0	2.5480	0	34.4790	0	27.517	0	1389.170	0	15.2	4	4.6	4	-1E+10	1	-1E+10	1	-1E+10	1	-1E+10	1	-1E+10	1	-1E+10	1
4902549	120	C	12/11/2023	07:57	-132.883	47.587	0	1415.60	0	2.5330	0	34.4810	0	27.520	0	1399.020	0	15.7	4	4.8	4	-1E+10	1	-1E+10	1	-1E+10	1	-1E+10	1	-1E+10	1	-1E+10	1
4902549	120	C	12/11/2023	07:57	-132.883	47.587	0	1425.70	0	2.5130	0	34.4840	0	27.524	0	1408.968	0	16.2	4	4.9	4	-1E+10	1	-1E+10	1	-1E+10	1	-1E+10	1	-1E+10	1	-1E+10	1
4902549	120	C	12/11/2023	07:57	-132.883	47.587	0	1435.50	0	2.4980	0	34.4870	0	27.528	0	1418.620	0	16.7	4	5.1	4	-1E+10	1	-1E+10	1	-1E+10	1	-1E+10	1	-1E+10	1	-1E+10	1
4902549	120	C	12/11/2023	07:57	-132.883	47.587	0	1445.50	0	2.4880	0	34.4890	0	27.531	0	1428.468	0	17.0	4	5.2	4	-1E+10	1	-1E+10	1	-1E+10	1	-1E+10	1	-1E+10	1	-1E+10	1
4902549	120	C	12/11/2023	07:57	-132.883	47.587	0	1455.20	0	2.4740	0	34.4900	0	27.533	0	1438.021	0	17.5	4	5.3	4	-1E+10	1	-1E+10	1	-1E+10	1	-1E+10	1	-1E+10	1	-1E+10	1
4902549	120	C	12/11/2023	07:57	-132.883	47.587	0	1465.10	0	2.4620	0	34.4920	0	27.535	0	1447.770	0	18.0	4	5.5	4	-1E+10	1	-1E+10	1	-1E+10	1	-1E+10	1	-1E+10	1	-1E+10	1
4902549	120	C	12/11/2023	07:57	-132.883	47.587	0	1475.20	0	2.4480	0	34.4940	0	27.538	0	1457.716	0	18.4	4	5.6	4	-1E+10	1	-1E+10	1	-1E+10	1	-1E+10	1	-1E+10	1	-1E+10	1
4902549	120	C	12/11/2023	07:57	-132.883	47.587	0	1485.40	0	2.4350	0	34.4960	0	27.541	0	1467.760	0	19.1	4	5.8	4	-1E+10	1	-1E+10	1	-1E+10	1	-1E+10	1	-1E+10	1	-1E+10	1
4902549	120	C	12/11/2023	07:57	-132.883	47.587	0	1495.20	0	2.4200	0	34.4990	0	27.545	0	1477.409	0	19.7	4	6.0	4	-1E+10	1	-1E+10	1	-1E+10	1	-1E+10	1	-1E+10	1	-1E+10	1
4902549	120	C	12/11/2023	07:57	-132.883	47.587	0	1505.30	0	2.4060	0	34.5020	0	27.548	0	1487.353	0	20.4	4	6.2	4	-1E+10	1	-1E+10	1	-1E+10	1	-1E+10	1	-1E+10	1	-1E+10	1
4902549	120	C	12/11/2023	07:57	-132.883	47.587	0	1515.70	0	2.3930	0	34.5050	0	27.552	0	1497.593	0	21.0	4	6.4	4	-1E+10	1	-1E+10	1	-1E+10	1	-1E+10	1	-1E+10	1	-1E+10	1
4902549	120	C	12/11/2023	07:57	-132.883	47.587	0	1525.40	0	2.3790	0	34.5070	0	27.554	0	1507.142	0	21.5	4	6.6	4	-1E+10	1	-1E+10	1	-1E+10	1	-1E+10	1	-1E+10	1	-1E+10	1
4902549	120	C	12/11/2023	07:57	-132.883	47.587	0	1535.30	0	2.3680	0	34.5090	0	27.557	0	1516.888	0	22.0	4	6.7	4	-1E+10	1	-1E+10	1	-1E+10	1	-1E+10	1	-1E+10	1	-1E+10	1
4902549	120	C	12/11/2023	07:57	-132.883	47.587	0	1545.40	0	2.3620	0	34.5100	0	27.558	0	1526.831	0	22.5	4	6.8	4	-1E+10	1	-1E+10	1	-1E+10	1	-1E+10	1	-1E+10	1	-1E+10	1
4902549	120	C	12/11/2023	07:57	-132.883	47.587	0	1555.50	0	2.3460	0	34.5130	0	27.562	0	1536.773	0	23.1	4	7.0	4	-1E+10	1	-1E+10	1	-1E+10	1	-1E+10	1	-1E+10	1	-1E+10	1
4902549	120	C	12/11/2023	07:57	-132.883	47.587	0	1565.50	0	2.3350	0	34.5140	0	27.564	0	1546.616	0	23.5	4	7.2	4	-1E+10	1	-1E+10	1	-1E+10	1	-1E+10	1	-1E+10	1	-1E+10	1
4902549	120	C	12/11/2023	07:57	-132.883	47.587	0	1575.10	0	2.3280	0	34.5150	0	27.565	0	1556.065	0	24.2	4	7.4	4	-1E+10	1	-1E+10	1	-1E+10	1	-1E+10	1	-1E+10	1	-1E+10	1
4902549	120	C	12/11/2023	07:57	-132.883	47.587	0	1585.20	0	2.3130	0	34.5190	0	27.570	0	1566.005	0	25.0	4	7.6	4	-1E+10	1	-1E+10	1	-1E+10	1	-1E+10	1	-1E+10	1	-1E+10	1
4902549	120	C	12/11/2023	07:57	-132.883	47.587	0	1595.30	0	2.3010	0	34.5210	0	27.572	0	1575.945	0	25.5	4	7.8	4	-1E+10	1	-1E+10	1	-1E+10	1	-1E+10	1	-1E+10	1	-1E+10	1
4902549	120	C	12/11/2023	07:57	-132.883	47.587	0	1605.40	0	2.2870	0	34.5220	0	27.574	0	1585.885	0	26.2	4	7.9	4	-1E+10	1	-1E+10	1	-1E+10	1	-1E+10	1	-1E+10	1	-1E+10	1
4902549	120	C	12/11/2023	07:57	-132.883	47.587	0	1615.70	0	2.2760	0	34.5240	0	27.577	0	1596.021	0	26.7	4	8.1	4	-1E+10	1	-1E+10	1	-1E+10	1	-1E+10	1	-1E+10	1	-1E+10	1
4902549	120	C	12/11/2023	07:57	-132.883	47.587	0	1625.50	0	2.2630	0	34.5260	0	27.580	0	1605.664	0	27.3	4	8.3	4	-1E+10	1	-1E+10	1	-1E+10	1	-1E+10	1	-1E+10	1	-1E+10	1
4902549	120	C	12/11/2023	07:57	-132.883	47.587	0	1635.40	0	2.2510	0	34.5280	0	27.582	0	1615.406	0	28.1	4	8.5	4	-1E+10	1	-1E+10	1	-1E+10	1	-1E+10	1	-1E+10	1	-1E+10	1
4902549	120	C	12/11/2023	07:57	-132.883	47.587	0	1645.30	0	2.2380	0	34.5300	0	27.585	0	1625.147	0	28.9	4	8.8	4	-1E+10	1	-1E+10	1	-1E+10	1	-1E+10	1	-1E+10	1	-1E+10	1
4902549	120	C	12/11/2023	07:57	-132.883	47.587	0	1655.20	0	2.2250	0	34.5330	0	27.588	0	1634.887	0	29.8	4	9.0	4	-1E+10	1	-1E+10	1	-1E+10	1	-1E+10	1	-1E+10	1	-1E+10	1
4902549	120	C	12/11/2023	07:57	-132.883	47.587	0	1665.20	0	2.2210	0	34.5350	0	27.590	0	1644.726	0	30.6	4	9.3	4	-1E+10	1	-1E+10	1	-1E+10	1	-1E+10	1	-1E+10	1	-1E+10	1
4902549	120	C	12/11/2023	07:57	-132.883	47.587	0	1675.40	0	2.2230	0	34.5370	0	27.592	0	1654.761	0	31.5	4	9.5	4	-1E+10	1	-1E+10	1	-1E+10	1	-1E+10	1	-1E+10	1	-1E+10	1
4902549	120	C	12/11/2023	07:57	-132.883	47.587	0	1685.30	0	2.2100	0	34.5400	0	27.595	0	1664.500	0	32.3	4	9.8	4	-1E+10	1	-1E+10	1	-1E+10	1	-1E+10	1	-1E+10	1	-1E+10	1
4902549	120	C	12/11/2023	07:57	-132.883	47.587	0	1695.20	0	2.2010	0	34.5420	0	27.598	0	1674.239	0	32.8	4	9.9	4	-1E+10	1	-1E+10	1	-1E+10	1	-1E+10	1	-1E+10	1	-1E+10	1
4902549	120	C	12/11/2023	07:57	-132.883	47.587	0	1705.40	0	2.1900	0	34.5430	0	27.600	0	1684.272	0	33.3	4	10.1	4	-1E+10	1	-1E+10	1	-1E+10	1	-1E+10	1	-1E+10	1	-1E+10	1
4902549	120	C	12/11/2023	07:57	-132.883	47.587	0	1715.40	0	2.1820	0	34.5450	0	27.602	0	1694.108	0	33.7	4	10.2	4	-1E+10	1	-1E+10	1	-1E+10	1	-1E+10	1	-1E+10	1	-1E+10	1
4902549	120	C	12/11/2023	07:57	-132.883	47.587	0	1725.80	0	2.1720	0	34.5460	0	27.604	0	1704.338	0	34.1	4	10.3	4	-1E+10	1	-1E+10	1	-1E+10	1	-1E+10	1	-1E+10	1	-1E+10	1
4902549	120	C	12/11/2023	07:57	-132.883	47.587	0	1735.30	0	2.1620	0	34.5470	0	27.605	0	1713.681	0	34.6	4	10.5	4	-1E+10	1	-1E+10	1	-1E+10	1	-1E+10	1	-1E+10	1	-1E+10	1
4902549	120	C	12/11/2023	07:57	-132.883	47.587	0	1745.40	0	2.1500	0	34.5480	0	27.607	0	1723.614	0	35.1	4	10.6	4	-1E+10	1	-1E+10	1	-1E+10	1	-1E+10	1	-1E+10	1	-1E+10	1
4902549	120	C	12/11/2023	07:57	-132.883	47.587	0	1755.20	0	2.1430	0	34.5490	0	27.608	0	1733.252	0	35.7	4	10.8	4	-1E+10	1	-1E+10	1	-1E+10	1	-1E+10	1	-1E+10	1	-1E+10	1
4902549	120	C	12/11/2023	07:57	-132.883	47.587	0	1765.20	0	2.1340	0	34.5510	0	27.611	0	1743.086	0	36.2	4	11.0	4	-1E+10	1	-1E+10	1	-1E+10	1	-1E+10	1	-1E+10	1	-1E+10	1
4902549	120	C	12/11/2023	07:57	-132.883	47.587	0	1775.30	0	2.1240	0	34.5520	0	27.612	0	1753.018	0	36.7	4	11.1	4	-1E+10	1	-1E+10	1	-1E+10	1	-1E+10	1	-1E+10	1	-1E+10	1
4902549	120	C	12/11/2023	07:57	-132.883	47.587	0	1785.60	0	2.1130	0	34.5530	0	27.614	0	1763.146	0	37.3	4	11.3	4	-1E+10	1	-1E+10	1	-1E+10	1	-1E+10	1	-1E+10	1	-1E+10	1
4902549	120	C	12/11/2023	07:57	-132.883	47.587	0	1795.60	0	2.1010	0	34.5550	0	27.617	0	1772.978	0	38.0	4	11.5	4	-1E+10	1	-1E+10	1	-1E+10	1	-1E+10	1	-1E+10	1	-1E+10	1
4902549	120	C	12/11/2023	07:57	-132.883	47.587	0	1805.60	0	2.0910	0	34.5570	0	27.619	0	1782.810	0	38.7	4	11.7	4	-1E+10	1	-1E+10	1	-1E+10	1	-1E+10	1	-1E+10	1	-1E+10	1
4902549	120	C	12/11/2023	07:57	-132.883	47.587	0	1815.60	0	2.0780	0	34.5580	0	27.621	0	1792.642	0	39.5	4	11.9	4	-1E+10	1	-1E+10	1	-1E+10	1	-1E+10	1	-1E+10	1	-1E+10	1
4902549	120	C	12/11/2023	07:57	-132.883	47.587	0	1825.40	0	2.0640	0	34.5610	0	27.625	0	1802.276	0	40.4	4	12.2	4	-1E+10	1	-1E+10	1	-1E+10	1	-1E+10	1	-1E+10	1	-1E+10	1
4902549	120	C	12/11/2023	07:57	-132.883	47.587	0	1835.50	0	2.0550	0	34.5630	0	27.627	0	1812.205	0	41.3	4	12.5	4	-1E+10	1	-1E+10	1	-1E+10	1	-1E+10	1	-1E+10	1	-1E+10	1
4902549	120	C	12/11/2023	07:57	-132.883	47.587	0	1845.70	0	2.0450	0	34.5650	0	27.629	0	1822.232	0	42.1	4	12.7	4	-1E+10	1	-1E+10	1	-1E+10	1	-1E+10	1	-1E+10	1	-1E+10	1
4902549	120	C	12/11/2023	07:57	-132.883	47.587	0	1855.70	0	2.0370	0	34.5660	0	27.631	0	1832.062	0	42.7	4	12.9	4	-1E+10	1	-1E+10	1	-1E+10	1	-1E+10	1	-1E+10	1	-1E+10	1
4902549	120	C	12/11/2023	07:57	-132.883	47.587	0	1865.30	0	2.0270	0	34.5680	0	27.633	0	1841.498	0	43.3	4	13.1	4	-1E+10	1	-1E+10	1	-1E+10	1	-1E+10	1	-1E+10	1	-1E+10	1
4902549	120	C	12/11/2023	07:57	-132.883	47.587	0	1875.30	0	2.0230	0	34.5680	0	27.634	0	1851.327	0	44.0	4	13.3	4	-1E+10	1	-1E+10	1	-1E+10	1	-1E+10	1	-1E+10	1	-1E+10	1
4902549	120	C	12/11/2023	07:57	-132.883	47.587	0	1885.60	0	2.0180	0	34.5710	0	27.637	0	1861.450	0	44.9	4	13.5	4	-1E+10	1	-1E+10	1	-1E+10	1	-1E+10	1	-1E+10	1	-1E+10	1
4902549	120	C	12/11/2023	07:57	-132.883	47.587	0	1895.10	0	2.0120	0	34.5720	0	27.638	0	1870.787	0	45.4	4	13.7	4	-1E+10	1	-1E+10	1	-1E+10	1	-1E+10	1	-1E+10	1	-1E+10	1
4902549	120	C	12/11/2023	07:57	-132.883	47.587	0	1905.50	0	2.0070	0	34.5740	0	27.640	0	1881.008	0	46.0	4	13.9	4	-1E+10	1	-1E+10	1	-1E+10	1	-1E+10	1	-1E+10	1	-1E+10	1
4902549	120	C	12/11/2023	07:57	-132.883	47.587	0	1915.40	0	2.0020	0	34.5750	0	27.641	0	1890.736	0	46.6	4	14.0	4	-1E+10	1	-1E+10	1	-1E+10	1	-1E+10	1	-1E+10	1	-1E+10	1
4902549	120	C	12/11/2023	07:57	-132.883	47.587	0	1925.20	0	1.9960	0	34.5770	0	27.643	0	1900.366	0	47.3	4	14.3	4	-1E+10	1	-1E+10	1	-1E+10	1	-1E+10	1	-1E+10	1	-1E+10	1
4902549	120	C	12/11/2023	07:57	-132.883	47.587	0	1935.60	0	1.9880	0	34.5780	0	27.645	0	1910.586	0	47.7	4	14.4	4	-1E+10	1	-1E+10	1	-1E+10	1	-1E+10	1	-1E+10	1	-1E+10	1
4902549	120	C	12/11/2023	07:57	-132.883	47.587	0	1945.70	0	1.9830	0	34.5790	0	27.646	0	1920.510	0	48.1	4	14.5	4	-1E+10	1	-1E+10	1	-1E+10	1	-1E+10	1	-1E+10	1	-1E+10	1
4902549	120	C	12/11/2023	07:57	-132.883	47.587	0	1955.50	0	1.9770	0	34.5800	0	27.647	0	1930.138	0	48.4	4	14.6	4	-1E+10	1	-1E+10	1	-1E+10	1	-1E+10	1	-1E+10	1	-1E+10	1
4902549	120	C	12/11/2023	07:57	-132.883	47.587	0	1966.00	0	1.9710	0	34.5810	0	27.649	0	1940.454	0	48.4	4	14.6	4	-1E+10	1	-1E+10	1	-1E+10	1	-1E+10	1	-1E+10	1	-1E+10	1
4902549	120	C	12/11/2023	07:57	-132.883	47.587	0	1971.90	0	1.9680	0	34.5820	0	27.650	0	1946.251	0	47.7	4	14.4	4	-1E+10	1	-1E+10	1	-1E+10	1	-1E+10	1	-1E+10	1	-1E+10	1
4902549	120	C	12/11/2023	07:57	-132.883	47.587	0																										
4902549	121	C	12/21/2023	13:05	-132.943	47.685	0	0.20	0	10.2080	0	32.3130	0	24.820	0	0.198	0	260.2	4	93.4	4	-1E+10	1	-1E+10	1	-1E+10	1	-1E+10	1	-1E+10	1	-1E+10	1
4902549	121	C	12/21/2023	13:05	-132.943	47.685	0	0.70	0	10.2080	0	32.3124	0	24.820	0	0.694	0	-1e10	1	-1e10	1	-1E+10	1	-1E+10	1	-1E+10	1	-1E+10	1	-1E+10	1	-1E+10	1
4902549	121	C	12/21/2023	13:05	-132.943	47.685	0	1.00	0	10.2080	0	32.3120	0	24.819	0	0.992	0	260.2	4	93.4	4	-1E+10	1	-1E+10	1	-1E+10	1	-1E+10	1	-1E+10	1	-1E+10	1
4902549	121	C	12/21/2023	13:05	-132.943	47.685	0	1.20	0	10.2082	0	32.3120	0	24.819	0	1.190	0	-1e10	1	-1e10	1	-1E+10	1	-1E+10	1	-1E+10	1	-1E+10	1	-1E+10	1	-1E+10	1
4902549	121	C	12/21/2023	13:05	-132.943	47.685	0	1.90	0	10.2090	0	32.3120	0	24.819	0	1.884	0	260.2	4	93.4	4	-1E+10	1	-1E+10	1	-1E+10	1	-1E+10	1	-1E+10	1	-1E+10	1
4902549	121	C	12/21/2023	13:05	-132.943	47.685	0	2.90	0	10.2090	0	32.3120	0	24.819	0	2.876	0	260.2	4	93.4	4	-1E+10	1	-1E+10	1	-1E+10	1	-1E+10	1	-1E+10	1	-1E+10	1
4902549	121	C	12/21/2023	13:05	-132.943	47.685	0	3.90	0	10.2090	0	32.3130	0	24.820	0	3.867	0	260.1	4	93.3	4	-1E+10	1	-1E+10	1	-1E+10	1	-1E+10	1	-1E+10	1	-1E+10	1
4902549	121	C	12/21/2023	13:05	-132.943	47.685	0	4.90	0	10.2090	0	32.3140	0	24.821	0	4.859	0	260.1	4	93.3	4	-1E+10	1	-1E+10	1	-1E+10	1	-1E+10	1	-1E+10	1	-1E+10	1
4902549	121	C	12/21/2023	13:05	-132.943	47.685	0	6.00	0	10.2090	0	32.3140	0	24.821	0	5.950	0	260.1	4	93.3	4	-1E+10	1	-1E+10	1	-1E+10	1	-1E+10	1	-1E+10	1	-1E+10	1
4902549	121	C	12/21/2023	13:05	-132.943	47.685	0	7.00	0	10.2110	0	32.3140	0	24.821	0	6.941	0	260.0	4	93.3	4	-1E+10	1	-1E+10	1	-1E+10	1	-1E+10	1	-1E+10	1	-1E+10	1
4902549	121	C	12/21/2023	13:05	-132.943	47.685	0	8.10	0	10.2100	0	32.3130	0	24.820	0	8.032	0	260.0	4	93.3	4	-1E+10	1	-1E+10	1	-1E+10	1	-1E+10	1	-1E+10	1	-1E+10	1
4902549	121	C	12/21/2023	13:05	-132.943	47.685	0	9.10	0	10.2120	0	32.3140	0	24.820	0	9.024	0	259.9	4	93.3	4	-1E+10	1	-1E+10	1	-1E+10	1	-1E+10	1	-1E+10	1	-1E+10	1
4902549	121	C	12/21/2023	13:05	-132.943	47.685	0	10.10	0	10.2120	0	32.3130	0	24.820	0	10.015	0	260.0	4	93.3	4	-1E+10	1	-1E+10	1	-1E+10	1	-1E+10	1	-1E+10	1	-1E+10	1
4902549	121	C	12/21/2023	13:05	-132.943	47.685	0	10.90	0	10.2110	0	32.3140	0	24.821	0	10.809	0	260.0	4	93.3	4	-1E+10	1	-1E+10	1	-1E+10	1	-1E+10	1	-1E+10	1	-1E+10	1
4902549	121	C	12/21/2023	13:05	-132.943	47.685	0	11.70	0	10.2100	0	32.3140	0	24.821	0	11.602	0	260.0	4	93.3	4	-1E+10	1	-1E+10	1	-1E+10	1	-1E+10	1	-1E+10	1	-1E+10	1
4902549	121	C	12/21/2023	13:05	-132.943	47.685	0	12.90	0	10.2070	0	32.3130	0	24.821	0	12.792	0	259.9	4	93.3	4	-1E+10	1	-1E+10	1	-1E+10	1	-1E+10	1	-1E+10	1	-1E+10	1
4902549	121	C	12/21/2023	13:05	-132.943	47.685	0	14.00	0	10.2100	0	32.3140	0	24.821	0	13.882	0	259.9	4	93.3	4	-1E+10	1	-1E+10	1	-1E+10	1	-1E+10	1	-1E+10	1	-1E+10	1
4902549	121	C	12/21/2023	13:05	-132.943	47.685	0	14.90	0	10.2100	0	32.3140	0	24.821	0	14.775	0	259.9	4	93.2	4	-1E+10	1	-1E+10	1	-1E+10	1	-1E+10	1	-1E+10	1	-1E+10	1
4902549	121	C	12/21/2023	13:05	-132.943	47.685	0	15.80	0	10.2100	0	32.3130	0	24.820	0	15.667	0	259.9	4	93.3	4	-1E+10	1	-1E+10	1	-1E+10	1	-1E+10	1	-1E+10	1	-1E+10	1
4902549	121	C	12/21/2023	13:05	-132.943	47.685	0	17.10	0	10.2100	0	32.3140	0	24.821	0	16.956	0	260.0	4	93.3	4	-1E+10	1	-1E+10	1	-1E+10	1	-1E+10	1	-1E+10	1	-1E+10	1
4902549	121	C	12/21/2023	13:05	-132.943	47.685	0	18.00	0	10.2110	0	32.3140	0	24.821	0	17.849	0	259.9	4	93.3	4	-1E+10	1	-1E+10	1	-1E+10	1	-1E+10	1	-1E+10	1	-1E+10	1
4902549	121	C	12/21/2023	13:05	-132.943	47.685	0	18.90	0	10.2110	0	32.3130	0	24.820	0	18.741	0	259.9	4	93.3	4	-1E+10	1	-1E+10	1	-1E+10	1	-1E+10	1	-1E+10	1	-1E+10	1
4902549	121	C	12/21/2023	13:05	-132.943	47.685	0	20.10	0	10.2100	0	32.3130	0	24.820	0	19.931	0	259.9	4	93.3	4	-1E+10	1	-1E+10	1	-1E+10	1	-1E+10	1	-1E+10	1	-1E+10	1
4902549	121	C	12/21/2023	13:05	-132.943	47.685	0	21.10	0	10.2110	0	32.3140	0	24.821	0	20.922	0	259.9	4	93.3	4	-1E+10	1	-1E+10	1	-1E+10	1	-1E+10	1	-1E+10	1	-1E+10	1
4902549	121	C	12/21/2023	13:05	-132.943	47.685	0	21.80	0	10.2100	0	32.3140	0	24.821	0	21.617	0	260.0	4	93.3	4	-1E+10	1	-1E+10	1	-1E+10	1	-1E+10	1	-1E+10	1	-1E+10	1
4902549	121	C	12/21/2023	13:05	-132.943	47.685	0	22.80	0	10.2100	0	32.3130	0	24.820	0	22.608	0	259.9	4	93.3	4	-1E+10	1	-1E+10	1	-1E+10	1	-1E+10	1	-1E+10	1	-1E+10	1
4902549	121	C	12/21/2023	13:05	-132.943	47.685	0	23.90	0	10.2110	0	32.3130	0	24.820	0	23.699	0	259.9	4	93.2	4	-1E+10	1	-1E+10	1	-1E+10	1	-1E+10	1	-1E+10	1	-1E+10	1
4902549	121	C	12/21/2023	13:05	-132.943	47.685	0	24.90	0	10.2090	0	32.3130	0	24.821	0	24.690	0	259.9	4	93.3	4	-1E+10	1	-1E+10	1	-1E+10	1	-1E+10	1	-1E+10	1	-1E+10	1
4902549	121	C	12/21/2023	13:05	-132.943	47.685	0	25.90	0	10.2080	0	32.3130	0	24.821	0	25.682	0	259.9	4	93.3	4	-1E+10	1	-1E+10	1	-1E+10	1	-1E+10	1	-1E+10	1	-1E+10	1
4902549	121	C	12/21/2023	13:05	-132.943	47.685	0	27.00	0	10.2090	0	32.3130	0	24.821	0	26.772	0	259.9	4	93.2	4	-1E+10	1	-1E+10	1	-1E+10	1	-1E+10	1	-1E+10	1	-1E+10	1
4902549	121	C	12/21/2023	13:05	-132.943	47.685	0	28.00	0	10.2100	0	32.3130	0	24.820	0	27.764	0	259.9	4	93.3	4	-1E+10	1	-1E+10	1	-1E+10	1	-1E+10	1	-1E+10	1	-1E+10	1
4902549	121	C	12/21/2023	13:05	-132.943	47.685	0	28.80	0	10.2100	0	32.3140	0	24.821	0	28.557	0	259.9	4	93.3	4	-1E+10	1	-1E+10	1	-1E+10	1	-1E+10	1	-1E+10	1	-1E+10	1
4902549	121	C	12/21/2023	13:05	-132.943	47.685	0	29.90	0	10.2100	0	32.3130	0	24.820	0	29.648	0	259.8	4	93.2	4	-1E+10	1	-1E+10	1	-1E+10	1	-1E+10	1	-1E+10	1	-1E+10	1
4902549	121	C	12/21/2023	13:05	-132.943	47.685	0	31.00	0	10.2110	0	32.3130	0	24.820	0	30.738	0	259.9	4	93.2	4	-1E+10	1	-1E+10	1	-1E+10	1	-1E+10	1	-1E+10	1	-1E+10	1
4902549	121	C	12/21/2023	13:05	-132.943	47.685	0	32.00	0	10.2040	0	32.3110	0	24.820	0	31.730	0	259.9	4	93.2	4	-1E+10	1	-1E+10	1	-1E+10	1	-1E+10	1	-1E+10	1	-1E+10	1
4902549	121	C	12/21/2023	13:05	-132.943	47.685	0	33.10	0	10.2030	0	32.3120	0	24.821	0	32.821	0	259.8	4	93.2	4	-1E+10	1	-1E+10	1	-1E+10	1	-1E+10	1	-1E+10	1	-1E+10	1
4902549	121	C	12/21/2023	13:05	-132.943	47.685	0	33.90	0	10.2090	0	32.3100	0	24.818	0	33.614	0	259.8	4	93.2	4	-1E+10	1	-1E+10	1	-1E+10	1	-1E+10	1	-1E+10	1	-1E+10	1
4902549	121	C	12/21/2023	13:05	-132.943	47.685	0	34.90	0	10.2060	0	32.3120	0	24.820	0	34.605	0	259.8	4	93.2	4	-1E+10	1	-1E+10	1	-1E+10	1	-1E+10	1	-1E+10	1	-1E+10	1
4902549	121	C	12/21/2023	13:05	-132.943	47.685	0	36.00	0	10.2030	0	32.3100	0	24.819	0	35.696	0	259.8	4	93.2	4	-1E+10	1	-1E+10	1	-1E+10	1	-1E+10	1	-1E+10	1	-1E+10	1
4902549	121	C	12/21/2023	13:05	-132.943	47.685	0	37.00	0	10.2080	0	32.3120	0	24.820	0	36.687	0	259.8	4	93.2	4	-1E+10	1	-1E+10	1	-1E+10	1	-1E+10	1	-1E+10	1	-1E+10	1
4902549	121	C	12/21/2023	13:05	-132.943	47.685	0	38.10	0	10.2060	0	32.3120	0	24.820	0	37.778	0	259.7	4	93.2	4	-1E+10	1	-1E+10	1	-1E+10	1	-1E+10	1	-1E+10	1	-1E+10	1
4902549	121	C	12/21/2023	13:05	-132.943	47.685	0	38.80	0	10.2030	0	32.3120	0	24.821	0	38.472	0	259.8	4	93.2	4	-1E+10	1	-1E+10	1	-1E+10	1	-1E+10	1	-1E+10	1	-1E+10	1
4902549	121	C	12/21/2023	13:05	-132.943	47.685	0	39.80	0	10.2040	0	32.3140	0	24.822	0	39.463	0	259.7	4	93.2	4	-1E+10	1	-1E+10	1	-1E+10	1	-1E+10	1	-1E+10	1	-1E+10	1
4902549	121	C	12/21/2023	13:05	-132.943	47.685	0	41.00	0	10.2080	0	32.3130	0	24.821	0	40.653	0	259.6	4	93.2	4	-1E+10	1	-1E+10	1	-1E+10	1	-1E+10	1	-1E+10	1	-1E+10	1
4902549	121	C	12/21/2023	13:05	-132.943	47.685	0	42.00	0	10.2070	0	32.3130	0	24.821	0	41.645	0	259.6	4	93.1	4	-1E+10	1	-1E+10	1	-1E+10	1	-1E+10	1	-1E+10	1	-1E+10	1
4902549	121	C	12/21/2023	13:05	-132.943	47.685	0	42.90	0	10.2060	0	32.3130	0	24.821	0	42.537	0	259.6	4	93.1	4	-1E+10	1	-1E+10	1	-1E+10	1	-1E+10	1	-1E+10	1	-1E+10	1
4902549	121	C	12/21/2023	13:05	-132.943	47.685	0	43.90	0	10.2120	0	32.3130	0	24.820	0	43.528	0	259.6	4	93.2	4	-1E+10	1	-1E+10	1	-1E+10	1	-1E+10	1	-1E+10	1	-1E+10	1
4902549	121	C	12/21/2023	13:05	-132.943	47.685	0	44.80	0	10.2080	0	32.3130	0	24.821	0	44.421	0	259.5	4	93.1	4	-1E+10	1	-1E+10	1	-1E+10	1	-1E+10	1	-1E+10	1	-1E+10	1
4902549	121	C	12/21/2023	13:05	-132.943	47.685	0	45.90	0	10.2040	0	32.3120	0	24.821	0	45.511	0	259.4	4	93.1	4	-1E+10	1	-1E+10	1	-1E+10	1	-1E+10	1	-1E+10	1	-1E+10	1
4902549	121	C	12/21/2023	13:05	-132.943	47.685	0	47.10	0	10.2040	0	32.3110	0	24.820	0	46.701	0	259.3	4	93.0	4	-1E+10	1	-1E+10	1	-1E+10	1	-1E+10	1	-1E+10	1	-1E+10	1
4902549	121	C	12/21/2023	13:05	-132.943	47.685	0	47.90	0	10.2040	0	32.3120	0	24.821	0	47.494	0	259.3	4	93.0	4	-1E+10	1	-1E+10	1	-1E+10	1	-1E+10	1	-1E+10	1	-1E+10	1
4902549	121	C	12/21/2023	13:05	-132.943	47.685	0	48.70	0	10.2040	0	32.3120	0	24.821	0	48.287	0	259.2	4	93.0	4	-1E+10	1	-1E+10	1	-1E+10	1	-1E+10	1	-1E+10	1	-1E+10	1
4902549	121	C	12/21/2023	13:05	-132.943	47.685	0	49.80	0	10.2070	0	32.3130	0	24.821	0	49.378	0	259.1	4	93.0	4	-1E+10	1	-1E+10	1	-1E+10	1	-1E+10	1	-1E+10	1	-1E+10	1
4902549	121	C	12/21/2023	13:05	-132.943	47.685	0	50.90	0	10.2060	0	32.3130	0	24.822	0	50.468	0	258.9	4	92.9	4	-1E+10	1	-1E+10	1	-1E+10	1	-1E+10	1	-1E+10	1	-1E+10	1
4902549	121	C	12/21/2023	13:05	-132.943	47.685	0	52.00	0	10.2070	0	32.3120	0	24.821	0	51.559	0	258.7	4	92.8	4	-1E+10	1	-1E+10	1	-1E+10	1	-1E+10	1	-1E+10	1	-1E+10	1
4902549	121	C	12/21/2023	13:05	-132.943	47.685	0	53.10	0	10.2070	0	32.3130	0	24.821	0	52.649	0	258.6	4	92.8	4	-1E+10	1	-1E+10	1	-1E+10	1	-1E+10	1	-1E+10	1	-1E+10	1
4902549	121	C	12/21/2023	13:05	-132.943	47.685	0	54.10	0	10.2080	0	32.3130	0	24.821	0	53.641	0	258.4	4	92.7	4	-1E+10	1	-1E+10	1	-1E+10	1	-1E+10	1	-1E+10	1	-1E+10	1
4902549	121	C	12/21/2023	13:05	-132.943	47.685	0	55.00	0	10.2060	0	32.3120	0	24.821	0	54.533	0	258.1	4	92.6	4	-1E+10	1	-1E+10	1	-1E+10	1	-1E+10	1	-1E+10	1	-1E+10	1
4902549	121	C	12/21/2023	13:05	-132.943	47.685	0	55.90	0	10.2060	0	32.3120	0	24.821	0	55.425	0	257.9	4	92.5	4	-1E+10	1	-1E+10	1	-1E+10	1	-1E+10	1	-1E+10	1	-1E+10	1
4902549	121	C	12/21/2023	13:05	-132.943	47.685	0	56.80	0	10.2070	0	32.3110	0	24.820	0	56.317	0	257.6	4	92.4	4	-1E+10	1	-1E+10	1	-1E+10	1	-1E+10	1	-1E+10	1	-1E+10	1
4902549	121	C	12/21/2023	13:05	-132.943	47.685	0	58.00	0	10.2050	0	32.3110	0	24.820	0	57.507	0	257.1	4	92.2	4	-1E+10	1	-1E+10	1	-1E+10	1	-1E+10	1	-1E+10	1	-1E+10	1
4902549	121	C	12/21/2023	13:05	-132.943	47.685	0	58.90	0	10.1970	0	32.3130	0	24.823	0	58.399	0	256.7	4	92.1	4	-1E+10	1	-1E+10	1	-1E+10	1	-1E+10	1	-1E+10	1	-1E+10	1
4902549	121	C	12/21/2023	13:05	-132.943	47.685	0	59.70	0	10.1900	0	32.3130	0	24.824	0	59.192	0	256.2	4	91.9	4	-1E+10	1	-1E+10	1	-1E+10	1	-1E+10	1	-1E+10	1	-1E+10	1
4902549	121	C	12/21/2023	13:05	-132.943	47.685	0	60.80	0	10.1780	0	32.3140	0	24.827	0	60.283	0	255.5	4	91.6	4	-1E+10	1	-1E+10	1	-1E+10	1	-1E+10	1	-1E+10	1	-1E+10	1
4902549	121	C	12/21/2023	13:05	-132.943	47.685	0	61.80	0	10.1500	0	32.3160	0	24.833	0	61.274	0	254.9	4	91.4	4	-1E+10	1	-1E+10	1	-1E+10	1	-1E+10	1	-1E+10	1	-1E+10	1
4902549	121	C	12/21/2023	13:05	-132.943	47.685	0	63.10	0	10.1060	0	32.3130	0	24.838	0	62.563	0	253.7	4	90.8	4	-1E+10	1	-1E+10	1	-1E+10	1	-1E+10	1	-1E+10	1	-1E+10	1
4902549	121	C	12/21/2023	13:05	-132.943	47.685	0	64.00	0	10.0000	0	32.3320	0	24.871	0	63.455	0	252.3	4	90.1	4	-1E+10	1	-1E+10	1	-1E+10	1	-1E+10	1	-1E+10	1	-1E+10	1
4902549	121	C	12/21/2023	13:05	-132.943	47.685	0	65.10	0	9.5710	0	32.3870	0	24.984	0	64.545	0	251.9	4	89.2	4	-1E+10	1	-1E+10	1	-1E+10	1	-1E+10	1	-1E+10	1	-1E+10	1
4902549	121	C	12/21/2023	13:05	-132.943	47.685	0	66.00	0	9.1930	0	32.4570	0	25.099	0	65.438	0	252.5	4	88.7	4	-1E+10	1	-1E+10	1	-1E+10	1	-1E+10	1	-1E+10	1	-1E+10	1
4902549	121	C	12/21/2023	13:05	-132.943	47.685	0	67.20	0	9.1000	0	32.4560	0	25.112	0	66.627	0	252.0	4	88.4	4	-1E+10	1	-1E+10	1	-1E+10	1	-1E+10	1	-1E+10	1	-1E+10	1
4902549	121	C	12/21/2023	13:05	-132.943	47.685	0	68.00	0	8.8510	0	32.4770	0	25.167	0	67.420	0	252.9	4	88.2	4	-1E+10	1	-1E+10	1	-1E+10	1	-1E+10	1	-1E+10	1	-1E+10	1
4902549	121	C	12/21/2023	13:05	-132.943	47.685	0	69.30	0	8.5510	0	32.5060	0	25.236	0	68.709	0	253.9	4	88.0	4	-1E+10	1	-1E+10	1	-1E+10	1	-1E+10	1	-1E+10	1	-1E+10	1
4902549	121	C	12/21/2023	13:05	-132.943	47.685	0	70.00	0	8.4090	0	32.5290	0	25.275	0	69.403	0	254.4	4	87.9	4	-1E+10	1	-1E+10	1	-1E+10	1	-1E+10	1	-1E+10	1	-1E+10	1
4902549	121	C	12/21/2023	13:05	-132.943	47.685	0	71.00	0	8.3110	0	32.5360	0	25.295	0	70.394	0	254.8	4	87.8	4	-1E+10	1	-1E+10	1	-1E+10	1	-1E+10	1	-1E+10	1	-1E+10	1
4902549	121	C	12/21/2023	13:05	-132.943	47.685	0	72.00	0	8.2260	0	32.5430	0	25.313	0	71.385	0	254.9	4	87.7	4	-1E+10	1	-1E+10	1	-1E+10	1	-1E+10	1	-1E+10	1	-1E+10	1
4902549	121	C	12/21/2023	13:05	-132.943	47.685	0	73.10	0	8.1530	0	32.5510	0	25.330	0	72.476	0	255.1	4	87.6	4	-1E+10	1	-1E+10	1	-1E+10	1	-1E+10	1	-1E+10	1	-1E+10	1
4902549	121	C	12/21/2023	13:05	-132.943	47.685	0	73.90	0	8.1390	0	32.5510	0	25.332	0	73.269	0	255.0	4	87.6	4	-1E+10	1	-1E+10	1	-1E+10	1	-1E+10	1	-1E+10	1	-1E+10	1
4902549	121	C	12/21/2023	13:05	-132.943	47.685	0	74.80	0	8.1150	0	32.5530	0	25.337	0	74.161	0	255.0	4	87.5	4	-1E+10	1	-1E+10	1	-1E+10	1	-1E+10	1	-1E+10	1	-1E+10	1
4902549	121	C	12/21/2023	13:05	-132.943	47.685	0	76.10	0	8.0390	0	32.5600	0	25.354	0	75.450	0	255.2	4	87.5	4	-1E+10	1	-1E+10	1	-1E+10	1	-1E+10	1	-1E+10	1	-1E+10	1
4902549	121	C	12/21/2023	13:05	-132.943	47.685	0	77.10	0	8.0050	0	32.5620	0	25.360	0	76.441	0	255.2	4	87.4	4	-1E+10	1	-1E+10	1	-1E+10	1	-1E+10	1	-1E+10	1	-1E+10	1
4902549	121	C	12/21/2023	13:05	-132.943	47.685	0	78.10	0	7.9880	0	32.5630	0	25.363	0	77.432	0	255.2	4	87.4	4	-1E+10	1	-1E+10	1	-1E+10	1	-1E+10	1	-1E+10	1	-1E+10	1
4902549	121	C	12/21/2023	13:05	-132.943	47.685	0	79.00	0	7.9630	0	32.5650	0	25.369	0	78.324	0	255.2	4	87.3	4	-1E+10	1	-1E+10	1	-1E+10	1	-1E+10	1	-1E+10	1	-1E+10	1
4902549	121	C	12/21/2023	13:05	-132.943	47.685	0	80.00	0	7.9320	0	32.5660	0	25.374	0	79.316	0	255.2	4	87.2	4	-1E+10	1	-1E+10	1	-1E+10	1	-1E+10	1	-1E+10	1	-1E+10	1
4902549	121	C	12/21/2023	13:05	-132.943	47.685	0	80.90	0	7.9050	0	32.5670	0	25.379	0	80.208	0	255.3	4	87.2	4	-1E+10	1	-1E+10	1	-1E+10	1	-1E+10	1	-1E+10	1	-1E+10	1
4902549	121	C	12/21/2023	13:05	-132.943	47.685	0	81.90	0	7.8680	0	32.5710	0	25.387	0	81.199	0	255.2	4	87.1	4	-1E+10	1	-1E+10	1	-1E+10	1	-1E+10	1	-1E+10	1	-1E+10	1
4902549	121	C	12/21/2023	13:05	-132.943	47.685	0	82.80	0	7.8380	0	32.5670	0	25.388	0	82.091	0	261.8	4	89.3	4	-1E+10	1	-1E+10	1	-1E+10	1	-1E+10	1	-1E+10	1	-1E+10	1
4902549	121	C	12/21/2023	13:05	-132.943	47.685	0	83.80	0	7.7860	0	32.5690	0	25.397	0	83.082	0	262.0	4	89.3	4	-1E+10	1	-1E+10	1	-1E+10	1	-1E+10	1	-1E+10	1	-1E+10	1
4902549	121	C	12/21/2023	13:05	-132.943	47.685	0	84.80	0	7.7570	0	32.5690	0	25.401	0	84.074	0	262.0	4	89.2	4	-1E+10	1	-1E+10	1	-1E+10	1	-1E+10	1	-1E+10	1	-1E+10	1
4902549	121	C	12/21/2023	13:05	-132.943	47.685	0	85.90	0	7.7280	0	32.5690	0	25.405	0	85.164	0	262.1	4	89.2	4	-1E+10	1	-1E+10	1	-1E+10	1	-1E+10	1	-1E+10	1	-1E+10	1
4902549	121	C	12/21/2023	13:05	-132.943	47.685	0	86.90	0	7.7060	0	32.5690	0	25.409	0	86.155	0	261.9	4	89.1	4	-1E+10	1	-1E+10	1	-1E+10	1	-1E+10	1	-1E+10	1	-1E+10	1
4902549	121	C	12/21/2023	13:05	-132.943	47.685	0	88.00	0	7.6810	0	32.5680	0	25.411	0	87.245	0	261.8	4	89.0	4	-1E+10	1	-1E+10	1	-1E+10	1	-1E+10	1	-1E+10	1	-1E+10	1
4902549	121	C	12/21/2023	13:05	-132.943	47.685	0	89.10	0	7.6470	0	32.5670	0	25.415	0	88.336	0	261.8	4	88.9	4	-1E+10	1	-1E+10	1	-1E+10	1	-1E+10	1	-1E+10	1	-1E+10	1
4902549	121	C	12/21/2023	13:05	-132.943	47.685	0	89.80	0	7.6360	0	32.5660	0	25.416	0	89.030	0	261.5	4	88.8	4	-1E+10	1	-1E+10	1	-1E+10	1	-1E+10	1	-1E+10	1	-1E+10	1
4902549	121	C	12/21/2023	13:05	-132.943	47.685	0	90.90	0	7.6320	0	32.5680	0	25.418	0	90.120	0	261.0	4	88.6	4	-1E+10	1	-1E+10	1	-1E+10	1	-1E+10	1	-1E+10	1	-1E+10	1
4902549	121	C	12/21/2023	13:05	-132.943	47.685	0	92.00	0	7.6270	0	32.5690	0	25.420	0	91.210	0	260.5	4	88.5	4	-1E+10	1	-1E+10	1	-1E+10	1	-1E+10	1	-1E+10	1	-1E+10	1
4902549	121	C	12/21/2023	13:05	-132.943	47.685	0	93.20	0	7.6110	0	32.5710	0	25.424	0	92.400	0	259.9	4	88.2	4	-1E+10	1	-1E+10	1	-1E+10	1	-1E+10	1	-1E+10	1	-1E+10	1
4902549	121	C	12/21/2023	13:05	-132.943	47.685	0	93.90	0	7.6110	0	32.5730	0	25.425	0	93.094	0	259.4	4	88.0	4	-1E+10	1	-1E+10	1	-1E+10	1	-1E+10	1	-1E+10	1	-1E+10	1
4902549	121	C	12/21/2023	13:05	-132.943	47.685	0	95.00	0	7.5920	0	32.5800	0	25.433	0	94.184	0	258.7	4	87.8	4	-1E+10	1	-1E+10	1	-1E+10	1	-1E+10	1	-1E+10	1	-1E+10	1
4902549	121	C	12/21/2023	13:05	-132.943	47.685	0	96.10	0	7.5240	0	32.5780	0	25.441	0	95.274	0	258.0	4	87.4	4	-1E+10	1	-1E+10	1	-1E+10	1	-1E+10	1	-1E+10	1	-1E+10	1
4902549	121	C	12/21/2023	13:05	-132.943	47.685	0	96.80	0	7.4980	0	32.5780	0	25.445	0	95.968	0	257.3	4	87.1	4	-1E+10	1	-1E+10	1	-1E+10	1	-1E+10	1	-1E+10	1	-1E+10	1
4902549	121	C	12/21/2023	13:05	-132.943	47.685	0	98.00	0	7.4630	0	32.5860	0	25.456	0	97.157	0	255.9	4	86.6	4	-1E+10	1	-1E+10	1	-1E+10	1	-1E+10	1	-1E+10	1	-1E+10	1
4902549	121	C	12/21/2023	13:05	-132.943	47.685	0	99.20	0	7.3890	0	32.6010	0	25.478	0	98.347	0	254.5	4	86.0	4	-1E+10	1	-1E+10	1	-1E+10	1	-1E+10	1	-1E+10	1	-1E+10	1
4902549	121	C	12/21/2023	13:05	-132.943	47.685	0	100.10	0	7.3210	0	32.6090	0	25.494	0	99.239	0	253.7	4	85.6	4	-1E+10	1	-1E+10	1	-1E+10	1	-1E+10	1	-1E+10	1	-1E+10	1
4902549	121	C	12/21/2023	13:05	-132.943	47.685	0	100.90	0	7.3640	0	32.6240	0	25.500	0	100.032	0	252.1	4	85.1	4	-1E+10	1	-1E+10	1	-1E+10	1	-1E+10	1	-1E+10	1	-1E+10	1
4902549	121	C	12/21/2023	13:05	-132.943	47.685	0	102.30	0	7.3730	0	32.6470	0	25.516	0	101.419	0	250.0	4	84.4	4	-1E+10	1	-1E+10	1	-1E+10	1	-1E+10	1	-1E+10	1	-1E+10	1
4902549	121	C	12/21/2023	13:05	-132.943	47.685	0	103.20	0	7.3400	0	32.6550	0	25.527	0	102.311	0	248.6	4	83.9	4	-1E+10	1	-1E+10	1	-1E+10	1	-1E+10	1	-1E+10	1	-1E+10	1
4902549	121	C	12/21/2023	13:05	-132.943	47.685	0	104.10	0	7.3250	0	32.6860	0	25.554	0	103.203	0	247.2	4	83.4	4	-1E+10	1	-1E+10	1	-1E+10	1	-1E+10	1	-1E+10	1	-1E+10	1
4902549	121	C	12/21/2023	13:05	-132.943	47.685	0	104.80	0	7.2910	0	32.7000	0	25.569	0	103.897	0	246.4	4	83.1	4	-1E+10	1	-1E+10	1	-1E+10	1	-1E+10	1	-1E+10	1	-1E+10	1
4902549	121	C	12/21/2023	13:05	-132.943	47.685	0	105.90	0	7.2940	0	32.7290	0	25.592	0	104.987	0	245.2	4	82.7	4	-1E+10	1	-1E+10	1	-1E+10	1	-1E+10	1	-1E+10	1	-1E+10	1
4902549	121	C	12/21/2023	13:05	-132.943	47.685	0	106.90	0	7.3050	0	32.7550	0	25.611	0	105.979	0	244.1	4	82.4	4	-1E+10	1	-1E+10	1	-1E+10	1	-1E+10	1	-1E+10	1	-1E+10	1
4902549	121	C	12/21/2023	13:05	-132.943	47.685	0	107.90	0	7.2900	0	32.7620	0	25.618	0	106.970	0	243.0	4	82.0	4	-1E+10	1	-1E+10	1	-1E+10	1	-1E+10	1	-1E+10	1	-1E+10	1
4902549	121	C	12/21/2023	13:05	-132.943	47.685	0	108.90	0	7.3100	0	32.7730	0	25.624	0	107.961	0	241.4	4	81.5	4	-1E+10	1	-1E+10	1	-1E+10	1	-1E+10	1	-1E+10	1	-1E+10	1
4902549	121	C	12/21/2023	13:05	-132.943	47.685	0	109.90	0	7.3160	0	32.7820	0	25.631	0	108.952	0	239.8	4	81.0	4	-1E+10	1	-1E+10	1	-1E+10	1	-1E+10	1	-1E+10	1	-1E+10	1
4902549	121	C	12/21/2023	13:05	-132.943	47.685	0	111.20	0	7.3380	0	32.8030	0	25.644	0	110.240	0	237.5	4	80.2	4	-1E+10	1	-1E+10	1	-1E+10	1	-1E+10	1	-1E+10	1	-1E+10	1
4902549	121	C	12/21/2023	13:05	-132.943	47.685	0	112.00	0	7.3270	0	32.8180	0	25.657	0	111.033	0	236.1	4	79.8	4	-1E+10	1	-1E+10	1	-1E+10	1	-1E+10	1	-1E+10	1	-1E+10	1
4902549	121	C	12/21/2023	13:05	-132.943	47.685	0	113.10	0	7.3400	0	32.8480	0	25.679	0	112.123	0	234.1	4	79.1	4	-1E+10	1	-1E+10	1	-1E+10	1	-1E+10	1	-1E+10	1	-1E+10	1
4902549	121	C	12/21/2023	13:05	-132.943	47.685	0	114.10	0	7.3260	0	32.8990	0	25.721	0	113.115	0	232.7	4	78.7	4	-1E+10	1	-1E+10	1	-1E+10	1	-1E+10	1	-1E+10	1	-1E+10	1
4902549	121	C	12/21/2023	13:05	-132.943	47.685	0	115.00	0	7.2940	0	32.9410	0	25.759	0	114.007	0	231.9	4	78.4	4	-1E+10	1	-1E+10	1	-1E+10	1	-1E+10	1	-1E+10	1	-1E+10	1
4902549	121	C	12/21/2023	13:05	-132.943	47.685	0	115.90	0	7.2870	0	32.9460	0	25.764	0	114.898	0	230.9	4	78.0	4	-1E+10	1	-1E+10	1	-1E+10	1	-1E+10	1	-1E+10	1	-1E+10	1
4902549	121	C	12/21/2023	13:05	-132.943	47.685	0	116.90	0	7.2710	0	32.9590	0	25.776	0	115.890	0	229.9	4	77.6	4	-1E+10	1	-1E+10	1	-1E+10	1	-1E+10	1	-1E+10	1	-1E+10	1
4902549	121	C	12/21/2023	13:05	-132.943	47.685	0	117.80	0	7.2580	0	32.9720	0	25.788	0	116.782	0	228.8	4	77.3	4	-1E+10	1	-1E+10	1	-1E+10	1	-1E+10	1	-1E+10	1	-1E+10	1
4902549	121	C	12/21/2023	13:05	-132.943	47.685	0	118.80	0	7.2330	0	32.9900	0	25.806	0	117.773	0	227.9	4	76.9	4	-1E+10	1	-1E+10	1	-1E+10	1	-1E+10	1	-1E+10	1	-1E+10	1
4902549	121	C	12/21/2023	13:05	-132.943	47.685	0	119.80	0	7.2010	0	33.0180	0	25.832	0	118.764	0	226.7	4	76.5	4	-1E+10	1	-1E+10	1	-1E+10	1	-1E+10	1	-1E+10	1	-1E+10	1
4902549	121	C	12/21/2023	13:05	-132.943	47.685	0	120.80	0	7.1670	0	33.0490	0	25.861	0	119.755	0	226.0	4	76.2	4	-1E+10	1	-1E+10	1	-1E+10	1	-1E+10	1	-1E+10	1	-1E+10	1
4902549	121	C	12/21/2023	13:05	-132.943	47.685	0	121.90	0	7.1420	0	33.0710	0	25.882	0	120.845	0	225.3	4	75.9	4	-1E+10	1	-1E+10	1	-1E+10	1	-1E+10	1	-1E+10	1	-1E+10	1
4902549	121	C	12/21/2023	13:05	-132.943	47.685	0	123.00	0	7.1260	0	33.0820	0	25.893	0	121.935	0	224.4	4	75.6	4	-1E+10	1	-1E+10	1	-1E+10	1	-1E+10	1	-1E+10	1	-1E+10	1
4902549	121	C	12/21/2023	13:05	-132.943	47.685	0	124.10	0	7.0830	0	33.1150	0	25.925	0	123.025	0	223.8	4	75.4	4	-1E+10	1	-1E+10	1	-1E+10	1	-1E+10	1	-1E+10	1	-1E+10	1
4902549	121	C	12/21/2023	13:05	-132.943	47.685	0	124.90	0	7.0340	0	33.1510	0	25.960	0	123.818	0	223.7	4	75.3	4	-1E+10	1	-1E+10	1	-1E+10	1	-1E+10	1	-1E+10	1	-1E+10	1
4902549	121	C	12/21/2023	13:05	-132.943	47.685	0	125.70	0	7.0140	0	33.1620	0	25.971	0	124.611	0	223.5	4	75.2	4	-1E+10	1	-1E+10	1	-1E+10	1	-1E+10	1	-1E+10	1	-1E+10	1
4902549	121	C	12/21/2023	13:05	-132.943	47.685	0	126.90	0	7.0050	0	33.1670	0	25.976	0	125.800	0	223.0	4	75.0	4	-1E+10	1	-1E+10	1	-1E+10	1	-1E+10	1	-1E+10	1	-1E+10	1
4902549	121	C	12/21/2023	13:05	-132.943	47.685	0	128.10	0	6.9820	0	33.1780	0	25.988	0	126.989	0	222.4	4	74.8	4	-1E+10	1	-1E+10	1	-1E+10	1	-1E+10	1	-1E+10	1	-1E+10	1
4902549	121	C	12/21/2023	13:05	-132.943	47.685	0	128.90	0	6.9780	0	33.1790	0	25.989	0	127.782	0	222.0	4	74.6	4	-1E+10	1	-1E+10	1	-1E+10	1	-1E+10	1	-1E+10	1	-1E+10	1
4902549	121	C	12/21/2023	13:05	-132.943	47.685	0	130.00	0	6.9590	0	33.1930	0	26.003	0	128.872	0	221.3	4	74.4	4	-1E+10	1	-1E+10	1	-1E+10	1	-1E+10	1	-1E+10	1	-1E+10	1
4902549	121	C	12/21/2023	13:05	-132.943	47.685	0	131.30	0	6.8940	0	33.2260	0	26.038	0	130.161	0	221.0	4	74.1	4	-1E+10	1	-1E+10	1	-1E+10	1	-1E+10	1	-1E+10	1	-1E+10	1
4902549	121	C	12/21/2023	13:05	-132.943	47.685	0	132.10	0	6.8530	0	33.2530	0	26.064	0	130.953	0	220.7	4	74.0	4	-1E+10	1	-1E+10	1	-1E+10	1	-1E+10	1	-1E+10	1	-1E+10	1
4902549	121	C	12/21/2023	13:05	-132.943	47.685	0	132.90	0	6.8480	0	33.2580	0	26.069	0	131.746	0	220.3	4	73.9	4	-1E+10	1	-1E+10	1	-1E+10	1	-1E+10	1	-1E+10	1	-1E+10	1
4902549	121	C	12/21/2023	13:05	-132.943	47.685	0	133.70	0	6.8480	0	33.2580	0	26.069	0	132.539	0	220.0	4	73.8	4	-1E+10	1	-1E+10	1	-1E+10	1	-1E+10	1	-1E+10	1	-1E+10	1
4902549	121	C	12/21/2023	13:05	-132.943	47.685	0	134.90	0	6.8440	0	33.2600	0	26.071	0	133.728	0	219.3	4	73.5	4	-1E+10	1	-1E+10	1	-1E+10	1	-1E+10	1	-1E+10	1	-1E+10	1
4902549	121	C	12/21/2023	13:05	-132.943	47.685	0	136.10	0	6.8290	0	33.2680	0	26.079	0	134.917	0	218.5	4	73.2	4	-1E+10	1	-1E+10	1	-1E+10	1	-1E+10	1	-1E+10	1	-1E+10	1
4902549	121	C	12/21/2023	13:05	-132.943	47.685	0	136.90	0	6.7550	0	33.3100	0	26.122	0	135.710	0	218.4	4	73.1	4	-1E+10	1	-1E+10	1	-1E+10	1	-1E+10	1	-1E+10	1	-1E+10	1
4902549	121	C	12/21/2023	13:05	-132.943	47.685	0	137.80	0	6.7440	0	33.3100	0	26.124	0	136.602	0	218.2	4	73.0	4	-1E+10	1	-1E+10	1	-1E+10	1	-1E+10	1	-1E+10	1	-1E+10	1
4902549	121	C	12/21/2023	13:05	-132.943	47.685	0	138.70	0	6.7080	0	33.3280	0	26.143	0	137.494	0	218.0	4	72.9	4	-1E+10	1	-1E+10	1	-1E+10	1	-1E+10	1	-1E+10	1	-1E+10	1
4902549	121	C	12/21/2023	13:05	-132.943	47.685	0	140.00	0	6.6770	0	33.3360	0	26.153	0	138.782	0	217.5	4	72.7	4	-1E+10	1	-1E+10	1	-1E+10	1	-1E+10	1	-1E+10	1	-1E+10	1
4902549	121	C	12/21/2023	13:05	-132.943	47.685	0	141.30	0	6.6320	0	33.3440	0	26.165	0	140.070	0	216.8	4	72.4	4	-1E+10	1	-1E+10	1	-1E+10	1	-1E+10	1	-1E+10	1	-1E+10	1
4902549	121	C	12/21/2023	13:05	-132.943	47.685	0	142.20	0	6.6220	0	33.3540	0	26.174	0	140.962	0	216.2	4	72.2	4	-1E+10	1	-1E+10	1	-1E+10	1	-1E+10	1	-1E+10	1	-1E+10	1
4902549	121	C	12/21/2023	13:05	-132.943	47.685	0	143.10	0	6.6040	0	33.3770	0	26.195	0	141.854	0	215.6	4	72.0	4	-1E+10	1	-1E+10	1	-1E+10	1	-1E+10	1	-1E+10	1	-1E+10	1
4902549	121	C	12/21/2023	13:05	-132.943	47.685	0	144.00	0	6.5690	0	33.3850	0	26.206	0	142.746	0	215.2	4	71.7	4	-1E+10	1	-1E+10	1	-1E+10	1	-1E+10	1	-1E+10	1	-1E+10	1
4902549	121	C	12/21/2023	13:05	-132.943	47.685	0	145.00	0	6.5430	0	33.3910	0	26.214	0	143.737	0	214.7	4	71.5	4	-1E+10	1	-1E+10	1	-1E+10	1	-1E+10	1	-1E+10	1	-1E+10	1
4902549	121	C	12/21/2023	13:05	-132.943	47.685	0	145.90	0	6.5380	0	33.3940	0	26.217	0	144.629	0	214.0	4	71.3	4	-1E+10	1	-1E+10	1	-1E+10	1	-1E+10	1	-1E+10	1	-1E+10	1
4902549	121	C	12/21/2023	13:05	-132.943	47.685	0	146.80	0	6.5220	0	33.4040	0	26.227	0	145.521	0	213.4	4	71.1	4	-1E+10	1	-1E+10	1	-1E+10	1	-1E+10	1	-1E+10	1	-1E+10	1
4902549	121	C	12/21/2023	13:05	-132.943	47.685	0	147.70	0	6.4960	0	33.4150	0	26.239	0	146.412	0	212.7	4	70.8	4	-1E+10	1	-1E+10	1	-1E+10	1	-1E+10	1	-1E+10	1	-1E+10	1
4902549	121	C	12/21/2023	13:05	-132.943	47.685	0	148.60	0	6.5020	0	33.4170	0	26.240	0	147.304	0	211.8	4	70.5	4	-1E+10	1	-1E+10	1	-1E+10	1	-1E+10	1	-1E+10	1	-1E+10	1
4902549	121	C	12/21/2023	13:05	-132.943	47.685	0	149.90	0	6.4770	0	33.4300	0	26.253	0	148.592	0	210.3	4	70.0	4	-1E+10	1	-1E+10	1	-1E+10	1	-1E+10	1	-1E+10	1	-1E+10	1
4902549	121	C	12/21/2023	13:05	-132.943	47.685	0	151.20	0	6.4430	0	33.4460	0	26.270	0	149.881	0	208.8	4	69.4	4	-1E+10	1	-1E+10	1	-1E+10	1	-1E+10	1	-1E+10	1	-1E+10	1
4902549	121	C	12/21/2023	13:05	-132.943	47.685	0	152.10	0	6.4250	0	33.4590	0	26.283	0	150.772	0	207.6	4	69.0	4	-1E+10	1	-1E+10	1	-1E+10	1	-1E+10	1	-1E+10	1	-1E+10	1
4902549	121	C	12/21/2023	13:05	-132.943	47.685	0	152.90	0	6.4210	0	33.4850	0	26.304	0	151.565	0	206.5	4	68.7	4	-1E+10	1	-1E+10	1	-1E+10	1	-1E+10	1	-1E+10	1	-1E+10	1
4902549	121	C	12/21/2023	13:05	-132.943	47.685	0	153.90	0	6.4230	0	33.5070	0	26.321	0	152.556	0	205.4	4	68.3	4	-1E+10	1	-1E+10	1	-1E+10	1	-1E+10	1	-1E+10	1	-1E+10	1
4902549	121	C	12/21/2023	13:05	-132.943	47.685	0	154.90	0	6.4060	0	33.5170	0	26.331	0	153.547	0	204.2	4	67.9	4	-1E+10	1	-1E+10	1	-1E+10	1	-1E+10	1	-1E+10	1	-1E+10	1
4902549	121	C	12/21/2023	13:05	-132.943	47.685	0	155.90	0	6.4010	0	33.5200	0	26.334	0	154.538	0	202.9	4	67.5	4	-1E+10	1	-1E+10	1	-1E+10	1	-1E+10	1	-1E+10	1	-1E+10	1
4902549	121	C	12/21/2023	13:05	-132.943	47.685	0	156.90	0	6.3980	0	33.5310	0	26.343	0	155.529	0	201.4	4	67.0	4	-1E+10	1	-1E+10	1	-1E+10	1	-1E+10	1	-1E+10	1	-1E+10	1
4902549	121	C	12/21/2023	13:05	-132.943	47.685	0	158.00	0	6.3970	0	33.5350	0	26.347	0	156.619	0	199.8	4	66.4	4	-1E+10	1	-1E+10	1	-1E+10	1	-1E+10	1	-1E+10	1	-1E+10	1
4902549	121	C	12/21/2023	13:05	-132.943	47.685	0	159.00	0	6.3970	0	33.5420	0	26.352	0	157.610	0	197.9	4	65.8	4	-1E+10	1	-1E+10	1	-1E+10	1	-1E+10	1	-1E+10	1	-1E+10	1
4902549	121	C	12/21/2023	13:05	-132.943	47.685	0	160.10	0	6.4080	0	33.5620	0	26.367	0	158.700	0	196.1	4	65.2	4	-1E+10	1	-1E+10	1	-1E+10	1	-1E+10	1	-1E+10	1	-1E+10	1
4902549	121	C	12/21/2023	13:05	-132.943	47.685	0	160.90	0	6.4030	0	33.5820	0	26.383	0	159.492	0	195.2	4	64.9	4	-1E+10	1	-1E+10	1	-1E+10	1	-1E+10	1	-1E+10	1	-1E+10	1
4902549	121	C	12/21/2023	13:05	-132.943	47.685	0	162.00	0	6.3990	0	33.5950	0	26.394	0	160.582	0	194.0	4	64.5	4	-1E+10	1	-1E+10	1	-1E+10	1	-1E+10	1	-1E+10	1	-1E+10	1
4902549	121	C	12/21/2023	13:05	-132.943	47.685	0	163.20	0	6.3880	0	33.6080	0	26.405	0	161.771	0	192.9	4	64.2	4	-1E+10	1	-1E+10	1	-1E+10	1	-1E+10	1	-1E+10	1	-1E+10	1
4902549	121	C	12/21/2023	13:05	-132.943	47.685	0	164.00	0	6.3770	0	33.6150	0	26.412	0	162.564	0	192.2	4	63.9	4	-1E+10	1	-1E+10	1	-1E+10	1	-1E+10	1	-1E+10	1	-1E+10	1
4902549	121	C	12/21/2023	13:05	-132.943	47.685	0	164.70	0	6.3690	0	33.6160	0	26.414	0	163.258	0	191.4	4	63.7	4	-1E+10	1	-1E+10	1	-1E+10	1	-1E+10	1	-1E+10	1	-1E+10	1
4902549	121	C	12/21/2023	13:05	-132.943	47.685	0	165.90	0	6.3630	0	33.6190	0	26.417	0	164.447	0	190.1	4	63.2	4	-1E+10	1	-1E+10	1	-1E+10	1	-1E+10	1	-1E+10	1	-1E+10	1
4902549	121	C	12/21/2023	13:05	-132.943	47.685	0	167.10	0	6.3580	0	33.6230	0	26.421	0	165.636	0	188.3	4	62.6	4	-1E+10	1	-1E+10	1	-1E+10	1	-1E+10	1	-1E+10	1	-1E+10	1
4902549	121	C	12/21/2023	13:05	-132.943	47.685	0	167.90	0	6.3510	0	33.6310	0	26.428	0	166.428	0	187.1	4	62.2	4	-1E+10	1	-1E+10	1	-1E+10	1	-1E+10	1	-1E+10	1	-1E+10	1
4902549	121	C	12/21/2023	13:05	-132.943	47.685	0	168.70	0	6.3420	0	33.6490	0	26.444	0	167.221	0	186.2	4	61.9	4	-1E+10	1	-1E+10	1	-1E+10	1	-1E+10	1	-1E+10	1	-1E+10	1
4902549	121	C	12/21/2023	13:05	-132.943	47.685	0	169.60	0	6.3360	0	33.6560	0	26.450	0	168.113	0	185.3	4	61.6	4	-1E+10	1	-1E+10	1	-1E+10	1	-1E+10	1	-1E+10	1	-1E+10	1
4902549	121	C	12/21/2023	13:05	-132.943	47.685	0	171.00	0	6.3300	0	33.6610	0	26.455	0	169.500	0	183.6	4	61.0	4	-1E+10	1	-1E+10	1	-1E+10	1	-1E+10	1	-1E+10	1	-1E+10	1
4902549	121	C	12/21/2023	13:05	-132.943	47.685	0	172.30	0	6.3110	0	33.6770	0	26.470	0	170.788	0	182.3	4	60.6	4	-1E+10	1	-1E+10	1	-1E+10	1	-1E+10	1	-1E+10	1	-1E+10	1
4902549	121	C	12/21/2023	13:05	-132.943	47.685	0	173.10	0	6.3070	0	33.6790	0	26.472	0	171.580	0	181.5	4	60.3	4	-1E+10	1	-1E+10	1	-1E+10	1	-1E+10	1	-1E+10	1	-1E+10	1
4902549	121	C	12/21/2023	13:05	-132.943	47.685	0	173.90	0	6.3020	0	33.6820	0	26.475	0	172.373	0	180.6	4	60.0	4	-1E+10	1	-1E+10	1	-1E+10	1	-1E+10	1	-1E+10	1	-1E+10	1
4902549	121	C	12/21/2023	13:05	-132.943	47.685	0	174.80	0	6.2950	0	33.6860	0	26.479	0	173.265	0	179.9	4	59.7	4	-1E+10	1	-1E+10	1	-1E+10	1	-1E+10	1	-1E+10	1	-1E+10	1
4902549	121	C	12/21/2023	13:05	-132.943	47.685	0	175.70	0	6.2920	0	33.6870	0	26.480	0	174.157	0	179.0	4	59.4	4	-1E+10	1	-1E+10	1	-1E+10	1	-1E+10	1	-1E+10	1	-1E+10	1
4902549	121	C	12/21/2023	13:05	-132.943	47.685	0	176.90	0	6.2780	0	33.6940	0	26.488	0	175.345	0	177.8	4	59.0	4	-1E+10	1	-1E+10	1	-1E+10	1	-1E+10	1	-1E+10	1	-1E+10	1
4902549	121	C	12/21/2023	13:05	-132.943	47.685	0	178.30	0	6.2670	0	33.7000	0	26.494	0	176.733	0	176.7	4	58.6	4	-1E+10	1	-1E+10	1	-1E+10	1	-1E+10	1	-1E+10	1	-1E+10	1
4902549	121	C	12/21/2023	13:05	-132.943	47.685	0	179.10	0	6.2610	0	33.7020	0	26.496	0	177.525	0	175.9	4	58.4	4	-1E+10	1	-1E+10	1	-1E+10	1	-1E+10	1	-1E+10	1	-1E+10	1
4902549	121	C	12/21/2023	13:05	-132.943	47.685	0	180.00	0	6.2510	0	33.7060	0	26.501	0	178.417	0	175.1	4	58.1	4	-1E+10	1	-1E+10	1	-1E+10	1	-1E+10	1	-1E+10	1	-1E+10	1
4902549	121	C	12/21/2023	13:05	-132.943	47.685	0	180.90	0	6.2420	0	33.7080	0	26.503	0	179.309	0	174.2	4	57.8	4	-1E+10	1	-1E+10	1	-1E+10	1	-1E+10	1	-1E+10	1	-1E+10	1
4902549	121	C	12/21/2023	13:05	-132.943	47.685	0	181.80	0	6.2380	0	33.7090	0	26.505	0	180.200	0	173.2	4	57.5	4	-1E+10	1	-1E+10	1	-1E+10	1	-1E+10	1	-1E+10	1	-1E+10	1
4902549	121	C	12/21/2023	13:05	-132.943	47.685	0	182.70	0	6.2330	0	33.7110	0	26.507	0	181.092	0	172.3	4	57.1	4	-1E+10	1	-1E+10	1	-1E+10	1	-1E+10	1	-1E+10	1	-1E+10	1
4902549	121	C	12/21/2023	13:05	-132.943	47.685	0	183.90	0	6.2080	0	33.7170	0	26.515	0	182.281	0	170.9	4	56.7	4	-1E+10	1	-1E+10	1	-1E+10	1	-1E+10	1	-1E+10	1	-1E+10	1
4902549	121	C	12/21/2023	13:05	-132.943	47.685	0	185.30	0	6.1850	0	33.7220	0	26.522	0	183.668	0	169.7	4	56.2	4	-1E+10	1	-1E+10	1	-1E+10	1	-1E+10	1	-1E+10	1	-1E+10	1
4902549	121	C	12/21/2023	13:05	-132.943	47.685	0	186.20	0	6.1830	0	33.7220	0	26.522	0	184.560	0	168.8	4	55.9	4	-1E+10	1	-1E+10	1	-1E+10	1	-1E+10	1	-1E+10	1	-1E+10	1
4902549	121	C	12/21/2023	13:05	-132.943	47.685	0	187.00	0	6.1830	0	33.7220	0	26.522	0	185.352	0	167.7	4	55.6	4	-1E+10	1	-1E+10	1	-1E+10	1	-1E+10	1	-1E+10	1	-1E+10	1
4902549	121	C	12/21/2023	13:05	-132.943	47.685	0	187.90	0	6.1770	0	33.7230	0	26.523	0	186.244	0	166.5	4	55.2	4	-1E+10	1	-1E+10	1	-1E+10	1	-1E+10	1	-1E+10	1	-1E+10	1
4902549	121	C	12/21/2023	13:05	-132.943	47.685	0	188.80	0	6.1560	0	33.7300	0	26.532	0	187.136	0	165.5	4	54.8	4	-1E+10	1	-1E+10	1	-1E+10	1	-1E+10	1	-1E+10	1	-1E+10	1
4902549	121	C	12/21/2023	13:05	-132.943	47.685	0	189.70	0	6.1440	0	33.7310	0	26.534	0	188.027	0	164.8	4	54.5	4	-1E+10	1	-1E+10	1	-1E+10	1	-1E+10	1	-1E+10	1	-1E+10	1
4902549	121	C	12/21/2023	13:05	-132.943	47.685	0	191.00	0	6.1350	0	33.7330	0	26.537	0	189.315	0	163.5	4	54.1	4	-1E+10	1	-1E+10	1	-1E+10	1	-1E+10	1	-1E+10	1	-1E+10	1
4902549	121	C	12/21/2023	13:05	-132.943	47.685	0	192.30	0	6.1330	0	33.7330	0	26.537	0	190.603	0	162.1	4	53.6	4	-1E+10	1	-1E+10	1	-1E+10	1	-1E+10	1	-1E+10	1	-1E+10	1
4902549	121	C	12/21/2023	13:05	-132.943	47.685	0	193.20	0	6.1300	0	33.7340	0	26.538	0	191.495	0	160.9	4	53.3	4	-1E+10	1	-1E+10	1	-1E+10	1	-1E+10	1	-1E+10	1	-1E+10	1
4902549	121	C	12/21/2023	13:05	-132.943	47.685	0	194.00	0	6.1020	0	33.7420	0	26.548	0	192.287	0	160.1	4	53.0	4	-1E+10	1	-1E+10	1	-1E+10	1	-1E+10	1	-1E+10	1	-1E+10	1
4902549	121	C	12/21/2023	13:05	-132.943	47.685	0	194.90	0	6.0820	0	33.7420	0	26.551	0	193.179	0	159.5	4	52.7	4	-1E+10	1	-1E+10	1	-1E+10	1	-1E+10	1	-1E+10	1	-1E+10	1
4902549	121	C	12/21/2023	13:05	-132.943	47.685	0	195.80	0	6.0700	0	33.7440	0	26.554	0	194.071	0	158.9	4	52.5	4	-1E+10	1	-1E+10	1	-1E+10	1	-1E+10	1	-1E+10	1	-1E+10	1
4902549	121	C	12/21/2023	13:05	-132.943	47.685	0	196.70	0	6.0580	0	33.7450	0	26.556	0	194.962	0	158.3	4	52.3	4	-1E+10	1	-1E+10	1	-1E+10	1	-1E+10	1	-1E+10	1	-1E+10	1
4902549	121	C	12/21/2023	13:05	-132.943	47.685	0	197.60	0	6.0540	0	33.7450	0	26.556	0	195.854	0	157.6	4	52.1	4	-1E+10	1	-1E+10	1	-1E+10	1	-1E+10	1	-1E+10	1	-1E+10	1
4902549	121	C	12/21/2023	13:05	-132.943	47.685	0	198.90	0	6.0390	0	33.7460	0	26.559	0	197.142	0	156.6	4	51.7	4	-1E+10	1	-1E+10	1	-1E+10	1	-1E+10	1	-1E+10	1	-1E+10	1
4902549	121	C	12/21/2023	13:05	-132.943	47.685	0	200.20	0	6.0260	0	33.7480	0	26.562	0	198.430	0	155.5	4	51.4	4	-1E+10	1	-1E+10	1	-1E+10	1	-1E+10	1	-1E+10	1	-1E+10	1
4902549	121	C	12/21/2023	13:05	-132.943	47.685	0	201.10	0	6.0220	0	33.7480	0	26.563	0	199.321	0	154.7	4	51.1	4	-1E+10	1	-1E+10	1	-1E+10	1	-1E+10	1	-1E+10	1	-1E+10	1
4902549	121	C	12/21/2023	13:05	-132.943	47.685	0	202.00	0	6.0160	0	33.7490	0	26.564	0	200.213	0	154.0	4	50.8	4	-1E+10	1	-1E+10	1	-1E+10	1	-1E+10	1	-1E+10	1	-1E+10	1
4902549	121	C	12/21/2023	13:05	-132.943	47.685	0	202.90	0	6.0010	0	33.7510	0	26.568	0	201.104	0	153.3	4	50.6	4	-1E+10	1	-1E+10	1	-1E+10	1	-1E+10	1	-1E+10	1	-1E+10	1
4902549	121	C	12/21/2023	13:05	-132.943	47.685	0	203.70	0	5.9870	0	33.7500	0	26.569	0	201.897	0	152.5	4	50.3	4	-1E+10	1	-1E+10	1	-1E+10	1	-1E+10	1	-1E+10	1	-1E+10	1
4902549	121	C	12/21/2023	13:05	-132.943	47.685	0	204.60	0	5.9720	0	33.7520	0	26.572	0	202.788	0	151.8	4	50.0	4	-1E+10	1	-1E+10	1	-1E+10	1	-1E+10	1	-1E+10	1	-1E+10	1
4902549	121	C	12/21/2023	13:05	-132.943	47.685	0	205.90	0	5.9530	0	33.7530	0	26.575	0	204.076	0	150.7	4	49.7	4	-1E+10	1	-1E+10	1	-1E+10	1	-1E+10	1	-1E+10	1	-1E+10	1
4902549	121	C	12/21/2023	13:05	-132.943	47.685	0	207.30	0	5.9280	0	33.7580	0	26.583	0	205.463	0	149.9	4	49.4	4	-1E+10	1	-1E+10	1	-1E+10	1	-1E+10	1	-1E+10	1	-1E+10	1
4902549	121	C	12/21/2023	13:05	-132.943	47.685	0	208.20	0	5.9000	0	33.7610	0	26.588	0	206.355	0	149.5	4	49.2	4	-1E+10	1	-1E+10	1	-1E+10	1	-1E+10	1	-1E+10	1	-1E+10	1
4902549	121	C	12/21/2023	13:05	-132.943	47.685	0	209.10	0	5.8970	0	33.7600	0	26.588	0	207.246	0	149.0	4	49.1	4	-1E+10	1	-1E+10	1	-1E+10	1	-1E+10	1	-1E+10	1	-1E+10	1
4902549	121	C	12/21/2023	13:05	-132.943	47.685	0	210.00	0	5.8930	0	33.7600	0	26.588	0	208.138	0	148.5	4	48.9	4	-1E+10	1	-1E+10	1	-1E+10	1	-1E+10	1	-1E+10	1	-1E+10	1
4902549	121	C	12/21/2023	13:05	-132.943	47.685	0	211.00	0	5.8880	0	33.7610	0	26.590	0	209.129	0	148.0	4	48.7	4	-1E+10	1	-1E+10	1	-1E+10	1	-1E+10	1	-1E+10	1	-1E+10	1
4902549	121	C	12/21/2023	13:05	-132.943	47.685	0	211.90	0	5.8850	0	33.7610	0	26.590	0	210.020	0	147.5	4	48.5	4	-1E+10	1	-1E+10	1	-1E+10	1	-1E+10	1	-1E+10	1	-1E+10	1
4902549	121	C	12/21/2023	13:05	-132.943	47.685	0	212.80	0	5.8780	0	33.7610	0	26.591	0	210.912	0	147.0	4	48.4	4	-1E+10	1	-1E+10	1	-1E+10	1	-1E+10	1	-1E+10	1	-1E+10	1
4902549	121	C	12/21/2023	13:05	-132.943	47.685	0	213.80	0	5.8690	0	33.7620	0	26.593	0	211.902	0	146.4	4	48.2	4	-1E+10	1	-1E+10	1	-1E+10	1	-1E+10	1	-1E+10	1	-1E+10	1
4902549	121	C	12/21/2023	13:05	-132.943	47.685	0	214.70	0	5.8650	0	33.7620	0	26.594	0	212.794	0	145.8	4	48.0	4	-1E+10	1	-1E+10	1	-1E+10	1	-1E+10	1	-1E+10	1	-1E+10	1
4902549	121	C	12/21/2023	13:05	-132.943	47.685	0	215.60	0	5.8650	0	33.7610	0	26.593	0	213.685	0	145.0	4	47.7	4	-1E+10	1	-1E+10	1	-1E+10	1	-1E+10	1	-1E+10	1	-1E+10	1
4902549	121	C	12/21/2023	13:05	-132.943	47.685	0	216.60	0	5.8640	0	33.7620	0	26.594	0	214.676	0	144.3	4	47.5	4	-1E+10	1	-1E+10	1	-1E+10	1	-1E+10	1	-1E+10	1	-1E+10	1
4902549	121	C	12/21/2023	13:05	-132.943	47.685	0	217.90	0	5.8480	0	33.7630	0	26.596	0	215.964	0	143.1	4	47.1	4	-1E+10	1	-1E+10	1	-1E+10	1	-1E+10	1	-1E+10	1	-1E+10	1
4902549	121	C	12/21/2023	13:05	-132.943	47.685	0	219.40	0	5.8330	0	33.7630	0	26.598	0	217.450	0	141.9	4	46.6	4	-1E+10	1	-1E+10	1	-1E+10	1	-1E+10	1	-1E+10	1	-1E+10	1
4902549	121	C	12/21/2023	13:05	-132.943	47.685	0	220.30	0	5.8210	0	33.7640	0	26.601	0	218.341	0	141.1	4	46.4	4	-1E+10	1	-1E+10	1	-1E+10	1	-1E+10	1	-1E+10	1	-1E+10	1
4902549	121	C	12/21/2023	13:05	-132.943	47.685	0	221.30	0	5.8050	0	33.7640	0	26.603	0	219.332	0	140.3	4	46.1	4	-1E+10	1	-1E+10	1	-1E+10	1	-1E+10	1	-1E+10	1	-1E+10	1
4902549	121	C	12/21/2023	13:05	-132.943	47.685	0	222.20	0	5.7820	0	33.7670	0	26.608	0	220.223	0	139.7	4	45.9	4	-1E+10	1	-1E+10	1	-1E+10	1	-1E+10	1	-1E+10	1	-1E+10	1
4902549	121	C	12/21/2023	13:05	-132.943	47.685	0	223.20	0	5.7630	0	33.7690	0	26.612	0	221.214	0	139.0	4	45.6	4	-1E+10	1	-1E+10	1	-1E+10	1	-1E+10	1	-1E+10	1	-1E+10	1
4902549	121	C	12/21/2023	13:05	-132.943	47.685	0	224.20	0	5.7390	0	33.7690	0	26.615	0	222.204	0	138.5	4	45.4	4	-1E+10	1	-1E+10	1	-1E+10	1	-1E+10	1	-1E+10	1	-1E+10	1
4902549	121	C	12/21/2023	13:05	-132.943	47.685	0	225.10	0	5.7330	0	33.7680	0	26.615	0	223.096	0	137.9	4	45.2	4	-1E+10	1	-1E+10	1	-1E+10	1	-1E+10	1	-1E+10	1	-1E+10	1
4902549	121	C	12/21/2023	13:05	-132.943	47.685	0	226.10	0	5.7270	0	33.7680	0	26.615	0	224.086	0	137.2	4	45.0	4	-1E+10	1	-1E+10	1	-1E+10	1	-1E+10	1	-1E+10	1	-1E+10	1
4902549	121	C	12/21/2023	13:05	-132.943	47.685	0	227.10	0	5.7110	0	33.7750	0	26.623	0	225.077	0	136.4	4	44.7	4	-1E+10	1	-1E+10	1	-1E+10	1	-1E+10	1	-1E+10	1	-1E+10	1
4902549	121	C	12/21/2023	13:05	-132.943	47.685	0	228.10	0	5.6880	0	33.7710	0	26.622	0	226.068	0	136.0	4	44.5	4	-1E+10	1	-1E+10	1	-1E+10	1	-1E+10	1	-1E+10	1	-1E+10	1
4902549	121	C	12/21/2023	13:05	-132.943	47.685	0	229.10	0	5.6570	0	33.7720	0	26.627	0	227.058	0	135.5	4	44.4	4	-1E+10	1	-1E+10	1	-1E+10	1	-1E+10	1	-1E+10	1	-1E+10	1
4902549	121	C	12/21/2023	13:05	-132.943	47.685	0	230.10	0	5.6530	0	33.7730	0	26.628	0	228.049	0	135.0	4	44.2	4	-1E+10	1	-1E+10	1	-1E+10	1	-1E+10	1	-1E+10	1	-1E+10	1
4902549	121	C	12/21/2023	13:05	-132.943	47.685	0	231.10	0	5.6430	0	33.7720	0	26.629	0	229.039	0	134.5	4	44.0	4	-1E+10	1	-1E+10	1	-1E+10	1	-1E+10	1	-1E+10	1	-1E+10	1
4902549	121	C	12/21/2023	13:05	-132.943	47.685	0	232.10	0	5.6440	0	33.7720	0	26.629	0	230.030	0	133.9	4	43.8	4	-1E+10	1	-1E+10	1	-1E+10	1	-1E+10	1	-1E+10	1	-1E+10	1
4902549	121	C	12/21/2023	13:05	-132.943	47.685	0	233.00	0	5.6330	0	33.7740	0	26.631	0	230.921	0	133.3	4	43.6	4	-1E+10	1	-1E+10	1	-1E+10	1	-1E+10	1	-1E+10	1	-1E+10	1
4902549	121	C	12/21/2023	13:05	-132.943	47.685	0	234.00	0	5.6300	0	33.7730	0	26.631	0	231.912	0	132.7	4	43.4	4	-1E+10	1	-1E+10	1	-1E+10	1	-1E+10	1	-1E+10	1	-1E+10	1
4902549	121	C	12/21/2023	13:05	-132.943	47.685	0	235.00	0	5.6230	0	33.7740	0	26.633	0	232.902	0	132.0	4	43.2	4	-1E+10	1	-1E+10	1	-1E+10	1	-1E+10	1	-1E+10	1	-1E+10	1
4902549	121	C	12/21/2023	13:05	-132.943	47.685	0	236.10	0	5.6120	0	33.7740	0	26.634	0	233.992	0	131.4	4	43.0	4	-1E+10	1	-1E+10	1	-1E+10	1	-1E+10	1	-1E+10	1	-1E+10	1
4902549	121	C	12/21/2023	13:05	-132.943	47.685	0	237.10	0	5.6090	0	33.7740	0	26.634	0	234.982	0	130.7	4	42.7	4	-1E+10	1	-1E+10	1	-1E+10	1	-1E+10	1	-1E+10	1	-1E+10	1
4902549	121	C	12/21/2023	13:05	-132.943	47.685	0	238.10	0	5.5990	0	33.7760	0	26.637	0	235.973	0	129.9	4	42.5	4	-1E+10	1	-1E+10	1	-1E+10	1	-1E+10	1	-1E+10	1	-1E+10	1
4902549	121	C	12/21/2023	13:05	-132.943	47.685	0	239.10	0	5.5910	0	33.7750	0	26.637	0	236.963	0	129.0	4	42.2	4	-1E+10	1	-1E+10	1	-1E+10	1	-1E+10	1	-1E+10	1	-1E+10	1
4902549	121	C	12/21/2023	13:05	-132.943	47.685	0	240.20	0	5.5620	0	33.7760	0	26.642	0	238.053	0	128.1	4	41.8	4	-1E+10	1	-1E+10	1	-1E+10	1	-1E+10	1	-1E+10	1	-1E+10	1
4902549	121	C	12/21/2023	13:05	-132.943	47.685	0	241.20	0	5.5200	0	33.7760	0	26.647	0	239.043	0	127.4	4	41.6	4	-1E+10	1	-1E+10	1	-1E+10	1	-1E+10	1	-1E+10	1	-1E+10	1
4902549	121	C	12/21/2023	13:05	-132.943	47.685	0	242.30	0	5.5120	0	33.7760	0	26.648	0	240.133	0	126.6	4	41.3	4	-1E+10	1	-1E+10	1	-1E+10	1	-1E+10	1	-1E+10	1	-1E+10	1
4902549	121	C	12/21/2023	13:05	-132.943	47.685	0	243.30	0	5.5080	0	33.7770	0	26.649	0	241.123	0	125.9	4	41.1	4	-1E+10	1	-1E+10	1	-1E+10	1	-1E+10	1	-1E+10	1	-1E+10	1
4902549	121	C	12/21/2023	13:05	-132.943	47.685	0	244.30	0	5.5120	0	33.7770	0	26.648	0	242.114	0	125.1	4	40.8	4	-1E+10	1	-1E+10	1	-1E+10	1	-1E+10	1	-1E+10	1	-1E+10	1
4902549	121	C	12/21/2023	13:05	-132.943	47.685	0	245.30	0	5.5040	0	33.7800	0	26.652	0	243.104	0	124.5	4	40.6	4	-1E+10	1	-1E+10	1	-1E+10	1	-1E+10	1	-1E+10	1	-1E+10	1
4902549	121	C	12/21/2023	13:05	-132.943	47.685	0	246.30	0	5.4870	0	33.7830	0	26.656	0	244.095	0	124.0	4	40.5	4	-1E+10	1	-1E+10	1	-1E+10	1	-1E+10	1	-1E+10	1	-1E+10	1
4902549	121	C	12/21/2023	13:05	-132.943	47.685	0	247.30	0	5.4690	0	33.7810	0	26.657	0	245.085	0	123.5	4	40.3	4	-1E+10	1	-1E+10	1	-1E+10	1	-1E+10	1	-1E+10	1	-1E+10	1
4902549	121	C	12/21/2023	13:05	-132.943	47.685	0	248.40	0	5.4450	0	33.7820	0	26.660	0	246.175	0	122.9	4	40.1	4	-1E+10	1	-1E+10	1	-1E+10	1	-1E+10	1	-1E+10	1	-1E+10	1
4902549	121	C	12/21/2023	13:05	-132.943	47.685	0	249.40	0	5.4380	0	33.7810	0	26.660	0	247.165	0	122.4	4	39.9	4	-1E+10	1	-1E+10	1	-1E+10	1	-1E+10	1	-1E+10	1	-1E+10	1
4902549	121	C	12/21/2023	13:05	-132.943	47.685	0	250.40	0	5.4260	0	33.7810	0	26.662	0	248.155	0	121.7	4	39.6	4	-1E+10	1	-1E+10	1	-1E+10	1	-1E+10	1	-1E+10	1	-1E+10	1
4902549	121	C	12/21/2023	13:05	-132.943	47.685	0	251.40	0	5.4200	0	33.7810	0	26.663	0	249.146	0	120.9	4	39.4	4	-1E+10	1	-1E+10	1	-1E+10	1	-1E+10	1	-1E+10	1	-1E+10	1
4902549	121	C	12/21/2023	13:05	-132.943	47.685	0	252.50	0	5.3960	0	33.7830	0	26.667	0	250.235	0	120.2	4	39.1	4	-1E+10	1	-1E+10	1	-1E+10	1	-1E+10	1	-1E+10	1	-1E+10	1
4902549	121	C	12/21/2023	13:05	-132.943	47.685	0	253.50	0	5.3870	0	33.7820	0	26.667	0	251.226	0	119.4	4	38.9	4	-1E+10	1	-1E+10	1	-1E+10	1	-1E+10	1	-1E+10	1	-1E+10	1
4902549	121	C	12/21/2023	13:05	-132.943	47.685	0	254.50	0	5.3750	0	33.7830	0	26.670	0	252.216	0	118.7	4	38.6	4	-1E+10	1	-1E+10	1	-1E+10	1	-1E+10	1	-1E+10	1	-1E+10	1
4902549	121	C	12/21/2023	13:05	-132.943	47.685	0	255.60	0	5.3660	0	33.7840	0	26.671	0	253.306	0	118.0	4	38.4	4	-1E+10	1	-1E+10	1	-1E+10	1	-1E+10	1	-1E+10	1	-1E+10	1
4902549	121	C	12/21/2023	13:05	-132.943	47.685	0	256.60	0	5.3560	0	33.7830	0	26.672	0	254.296	0	117.3	4	38.1	4	-1E+10	1	-1E+10	1	-1E+10	1	-1E+10	1	-1E+10	1	-1E+10	1
4902549	121	C	12/21/2023	13:05	-132.943	47.685	0	257.60	0	5.3440	0	33.7840	0	26.674	0	255.287	0	116.4	4	37.8	4	-1E+10	1	-1E+10	1	-1E+10	1	-1E+10	1	-1E+10	1	-1E+10	1
4902549	121	C	12/21/2023	13:05	-132.943	47.685	0	258.70	0	5.3210	0	33.7850	0	26.677	0	256.376	0	115.6	4	37.5	4	-1E+10	1	-1E+10	1	-1E+10	1	-1E+10	1	-1E+10	1	-1E+10	1
4902549	121	C	12/21/2023	13:05	-132.943	47.685	0	259.70	0	5.3140	0	33.7850	0	26.678	0	257.366	0	114.6	4	37.2	4	-1E+10	1	-1E+10	1	-1E+10	1	-1E+10	1	-1E+10	1	-1E+10	1
4902549	121	C	12/21/2023	13:05	-132.943	47.685	0	260.70	0	5.3040	0	33.7850	0	26.679	0	258.357	0	113.7	4	36.9	4	-1E+10	1	-1E+10	1	-1E+10	1	-1E+10	1	-1E+10	1	-1E+10	1
4902549	121	C	12/21/2023	13:05	-132.943	47.685	0	261.70	0	5.2960	0	33.7860	0	26.681	0	259.347	0	112.7	4	36.6	4	-1E+10	1	-1E+10	1	-1E+10	1	-1E+10	1	-1E+10	1	-1E+10	1
4902549	121	C	12/21/2023	13:05	-132.943	47.685	0	262.80	0	5.2910	0	33.7900	0	26.685	0	260.437	0	111.5	4	36.2	4	-1E+10	1	-1E+10	1	-1E+10	1	-1E+10	1	-1E+10	1	-1E+10	1
4902549	121	C	12/21/2023	13:05	-132.943	47.685	0	263.80	0	5.2710	0	33.7900	0	26.687	0	261.427	0	110.8	4	35.9	4	-1E+10	1	-1E+10	1	-1E+10	1	-1E+10	1	-1E+10	1	-1E+10	1
4902549	121	C	12/21/2023	13:05	-132.943	47.685	0	264.80	0	5.2960	0	33.7940	0	26.688	0	262.417	0	110.3	4	35.8	4	-1E+10	1	-1E+10	1	-1E+10	1	-1E+10	1	-1E+10	1	-1E+10	1
4902549	121	C	12/21/2023	13:05	-132.943	47.685	0	265.90	0	5.2850	0	33.7960	0	26.690	0	263.507	0	109.8	4	35.6	4	-1E+10	1	-1E+10	1	-1E+10	1	-1E+10	1	-1E+10	1	-1E+10	1
4902549	121	C	12/21/2023	13:05	-132.943	47.685	0	266.90	0	5.2850	0	33.7950	0	26.690	0	264.497	0	109.3	4	35.5	4	-1E+10	1	-1E+10	1	-1E+10	1	-1E+10	1	-1E+10	1	-1E+10	1
4902549	121	C	12/21/2023	13:05	-132.943	47.685	0	267.90	0	5.2490	0	33.7970	0	26.695	0	265.487	0	108.7	4	35.3	4	-1E+10	1	-1E+10	1	-1E+10	1	-1E+10	1	-1E+10	1	-1E+10	1
4902549	121	C	12/21/2023	13:05	-132.943	47.685	0	269.00	0	5.2360	0	33.7920	0	26.693	0	266.577	0	108.0	4	35.0	4	-1E+10	1	-1E+10	1	-1E+10	1	-1E+10	1	-1E+10	1	-1E+10	1
4902549	121	C	12/21/2023	13:05	-132.943	47.685	0	270.00	0	5.2270	0	33.7960	0	26.697	0	267.567	0	107.3	4	34.8	4	-1E+10	1	-1E+10	1	-1E+10	1	-1E+10	1	-1E+10	1	-1E+10	1
4902549	121	C	12/21/2023	13:05	-132.943	47.685	0	271.00	0	5.2230	0	33.7930	0	26.695	0	268.557	0	106.6	4	34.5	4	-1E+10	1	-1E+10	1	-1E+10	1	-1E+10	1	-1E+10	1	-1E+10	1
4902549	121	C	12/21/2023	13:05	-132.943	47.685	0	272.10	0	5.2180	0	33.7940	0	26.697	0	269.647	0	105.6	4	34.2	4	-1E+10	1	-1E+10	1	-1E+10	1	-1E+10	1	-1E+10	1	-1E+10	1
4902549	121	C	12/21/2023	13:05	-132.943	47.685	0	273.10	0	5.2190	0	33.7940	0	26.697	0	270.637	0	104.6	4	33.9	4	-1E+10	1	-1E+10	1	-1E+10	1	-1E+10	1	-1E+10	1	-1E+10	1
4902549	121	C	12/21/2023	13:05	-132.943	47.685	0	274.10	0	5.2120	0	33.7930	0	26.697	0	271.628	0	103.4	4	33.5	4	-1E+10	1	-1E+10	1	-1E+10	1	-1E+10	1	-1E+10	1	-1E+10	1
4902549	121	C	12/21/2023	13:05	-132.943	47.685	0	275.20	0	5.2050	0	33.7950	0	26.699	0	272.717	0	102.1	4	33.1	4	-1E+10	1	-1E+10	1	-1E+10	1	-1E+10	1	-1E+10	1	-1E+10	1
4902549	121	C	12/21/2023	13:05	-132.943	47.685	0	276.20	0	5.1990	0	33.7970	0	26.701	0	273.707	0	100.8	4	32.7	4	-1E+10	1	-1E+10	1	-1E+10	1	-1E+10	1	-1E+10	1	-1E+10	1
4902549	121	C	12/21/2023	13:05	-132.943	47.685	0	277.20	0	5.1940	0	33.7990	0	26.703	0	274.698	0	99.4	4	32.2	4	-1E+10	1	-1E+10	1	-1E+10	1	-1E+10	1	-1E+10	1	-1E+10	1
4902549	121	C	12/21/2023	13:05	-132.943	47.685	0	278.30	0	5.1800	0	33.7970	0	26.704	0	275.787	0	98.0	4	31.7	4	-1E+10	1	-1E+10	1	-1E+10	1	-1E+10	1	-1E+10	1	-1E+10	1
4902549	121	C	12/21/2023	13:05	-132.943	47.685	0	279.30	0	5.1840	0	33.8020	0	26.707	0	276.777	0	96.7	4	31.3	4	-1E+10	1	-1E+10	1	-1E+10	1	-1E+10	1	-1E+10	1	-1E+10	1
4902549	121	C	12/21/2023	13:05	-132.943	47.685	0	280.30	0	5.1870	0	33.8060	0	26.710	0	277.767	0	95.6	4	31.0	4	-1E+10	1	-1E+10	1	-1E+10	1	-1E+10	1	-1E+10	1	-1E+10	1
4902549	121	C	12/21/2023	13:05	-132.943	47.685	0	281.30	0	5.1890	0	33.8070	0	26.710	0	278.758	0	94.6	4	30.6	4	-1E+10	1	-1E+10	1	-1E+10	1	-1E+10	1	-1E+10	1	-1E+10	1
4902549	121	C	12/21/2023	13:05	-132.943	47.685	0	282.40	0	5.2020	0	33.8120	0	26.713	0	279.847	0	93.8	4	30.4	4	-1E+10	1	-1E+10	1	-1E+10	1	-1E+10	1	-1E+10	1	-1E+10	1
4902549	121	C	12/21/2023	13:05	-132.943	47.685	0	283.40	0	5.1970	0	33.8160	0	26.717	0	280.837	0	93.0	4	30.1	4	-1E+10	1	-1E+10	1	-1E+10	1	-1E+10	1	-1E+10	1	-1E+10	1
4902549	121	C	12/21/2023	13:05	-132.943	47.685	0	284.40	0	5.1940	0	33.8180	0	26.719	0	281.828	0	92.2	4	29.9	4	-1E+10	1	-1E+10	1	-1E+10	1	-1E+10	1	-1E+10	1	-1E+10	1
4902549	121	C	12/21/2023	13:05	-132.943	47.685	0	285.50	0	5.1880	0	33.8180	0	26.719	0	282.917	0	91.4	4	29.6	4	-1E+10	1	-1E+10	1	-1E+10	1	-1E+10	1	-1E+10	1	-1E+10	1
4902549	121	C	12/21/2023	13:05	-132.943	47.685	0	286.50	0	5.1930	0	33.8160	0	26.717	0	283.907	0	90.5	4	29.3	4	-1E+10	1	-1E+10	1	-1E+10	1	-1E+10	1	-1E+10	1	-1E+10	1
4902549	121	C	12/21/2023	13:05	-132.943	47.685	0	287.50	0	5.2010	0	33.8230	0	26.722	0	284.897	0	89.8	4	29.1	4	-1E+10	1	-1E+10	1	-1E+10	1	-1E+10	1	-1E+10	1	-1E+10	1
4902549	121	C	12/21/2023	13:05	-132.943	47.685	0	288.60	0	5.1990	0	33.8250	0	26.724	0	285.987	0	89.3	4	28.9	4	-1E+10	1	-1E+10	1	-1E+10	1	-1E+10	1	-1E+10	1	-1E+10	1
4902549	121	C	12/21/2023	13:05	-132.943	47.685	0	289.60	0	5.2150	0	33.8310	0	26.727	0	286.977	0	89.0	4	28.9	4	-1E+10	1	-1E+10	1	-1E+10	1	-1E+10	1	-1E+10	1	-1E+10	1
4902549	121	C	12/21/2023	13:05	-132.943	47.685	0	290.70	0	5.1940	0	33.8330	0	26.731	0	288.066	0	89.1	4	28.9	4	-1E+10	1	-1E+10	1	-1E+10	1	-1E+10	1	-1E+10	1	-1E+10	1
4902549	121	C	12/21/2023	13:05	-132.943	47.685	0	291.70	0	5.1840	0	33.8290	0	26.729	0	289.056	0	89.2	4	28.9	4	-1E+10	1	-1E+10	1	-1E+10	1	-1E+10	1	-1E+10	1	-1E+10	1
4902549	121	C	12/21/2023	13:05	-132.943	47.685	0	292.70	0	5.1650	0	33.8330	0	26.734	0	290.047	0	89.3	4	28.9	4	-1E+10	1	-1E+10	1	-1E+10	1	-1E+10	1	-1E+10	1	-1E+10	1
4902549	121	C	12/21/2023	13:05	-132.943	47.685	0	293.80	0	5.1340	0	33.8350	0	26.739	0	291.136	0	89.5	4	28.9	4	-1E+10	1	-1E+10	1	-1E+10	1	-1E+10	1	-1E+10	1	-1E+10	1
4902549	121	C	12/21/2023	13:05	-132.943	47.685	0	294.80	0	5.1020	0	33.8300	0	26.739	0	292.126	0	89.5	4	28.9	4	-1E+10	1	-1E+10	1	-1E+10	1	-1E+10	1	-1E+10	1	-1E+10	1
4902549	121	C	12/21/2023	13:05	-132.943	47.685	0	295.80	0	5.0750	0	33.8250	0	26.738	0	293.116	0	89.4	4	28.9	4	-1E+10	1	-1E+10	1	-1E+10	1	-1E+10	1	-1E+10	1	-1E+10	1
4902549	121	C	12/21/2023	13:05	-132.943	47.685	0	296.90	0	5.0540	0	33.8240	0	26.740	0	294.206	0	89.2	4	28.8	4	-1E+10	1	-1E+10	1	-1E+10	1	-1E+10	1	-1E+10	1	-1E+10	1
4902549	121	C	12/21/2023	13:05	-132.943	47.685	0	297.90	0	5.0390	0	33.8250	0	26.742	0	295.196	0	89.1	4	28.7	4	-1E+10	1	-1E+10	1	-1E+10	1	-1E+10	1	-1E+10	1	-1E+10	1
4902549	121	C	12/21/2023	13:05	-132.943	47.685	0	299.00	0	5.0350	0	33.8240	0	26.742	0	296.285	0	88.9	4	28.7	4	-1E+10	1	-1E+10	1	-1E+10	1	-1E+10	1	-1E+10	1	-1E+10	1
4902549	121	C	12/21/2023	13:05	-132.943	47.685	0	300.00	0	5.0100	0	33.8240	0	26.745	0	297.275	0	88.7	4	28.6	4	-1E+10	1	-1E+10	1	-1E+10	1	-1E+10	1	-1E+10	1	-1E+10	1
4902549	121	C	12/21/2023	13:05	-132.943	47.685	0	301.10	0	4.9880	0	33.8220	0	26.745	0	298.365	0	88.5	4	28.5	4	-1E+10	1	-1E+10	1	-1E+10	1	-1E+10	1	-1E+10	1	-1E+10	1
4902549	121	C	12/21/2023	13:05	-132.943	47.685	0	302.10	0	4.9570	0	33.8200	0	26.747	0	299.355	0	88.3	4	28.4	4	-1E+10	1	-1E+10	1	-1E+10	1	-1E+10	1	-1E+10	1	-1E+10	1
4902549	121	C	12/21/2023	13:05	-132.943	47.685	0	303.10	0	4.9630	0	33.8250	0	26.751	0	300.345	0	88.1	4	28.4	4	-1E+10	1	-1E+10	1	-1E+10	1	-1E+10	1	-1E+10	1	-1E+10	1
4902549	121	C	12/21/2023	13:05	-132.943	47.685	0	304.20	0	4.9300	0	33.8240	0	26.754	0	301.434	0	88.0	4	28.3	4	-1E+10	1	-1E+10	1	-1E+10	1	-1E+10	1	-1E+10	1	-1E+10	1
4902549	121	C	12/21/2023	13:05	-132.943	47.685	0	305.20	0	4.9000	0	33.8190	0	26.753	0	302.424	0	87.7	4	28.2	4	-1E+10	1	-1E+10	1	-1E+10	1	-1E+10	1	-1E+10	1	-1E+10	1
4902549	121	C	12/21/2023	13:05	-132.943	47.685	0	306.20	0	4.8900	0	33.8210	0	26.756	0	303.414	0	87.4	4	28.1	4	-1E+10	1	-1E+10	1	-1E+10	1	-1E+10	1	-1E+10	1	-1E+10	1
4902549	121	C	12/21/2023	13:05	-132.943	47.685	0	307.20	0	4.8800	0	33.8190	0	26.755	0	304.405	0	87.2	4	28.0	4	-1E+10	1	-1E+10	1	-1E+10	1	-1E+10	1	-1E+10	1	-1E+10	1
4902549	121	C	12/21/2023	13:05	-132.943	47.685	0	308.30	0	4.8480	0	33.8230	0	26.762	0	305.494	0	87.0	4	28.0	4	-1E+10	1	-1E+10	1	-1E+10	1	-1E+10	1	-1E+10	1	-1E+10	1
4902549	121	C	12/21/2023	13:05	-132.943	47.685	0	309.30	0	4.8290	0	33.8190	0	26.761	0	306.484	0	86.7	4	27.8	4	-1E+10	1	-1E+10	1	-1E+10	1	-1E+10	1	-1E+10	1	-1E+10	1
4902549	121	C	12/21/2023	13:05	-132.943	47.685	0	310.30	0	4.8120	0	33.8160	0	26.760	0	307.474	0	86.3	4	27.7	4	-1E+10	1	-1E+10	1	-1E+10	1	-1E+10	1	-1E+10	1	-1E+10	1
4902549	121	C	12/21/2023	13:05	-132.943	47.685	0	311.40	0	4.7940	0	33.8170	0	26.763	0	308.563	0	85.8	4	27.5	4	-1E+10	1	-1E+10	1	-1E+10	1	-1E+10	1	-1E+10	1	-1E+10	1
4902549	121	C	12/21/2023	13:05	-132.943	47.685	0	312.40	0	4.7790	0	33.8140	0	26.763	0	309.553	0	85.4	4	27.4	4	-1E+10	1	-1E+10	1	-1E+10	1	-1E+10	1	-1E+10	1	-1E+10	1
4902549	121	C	12/21/2023	13:05	-132.943	47.685	0	313.40	0	4.7740	0	33.8160	0	26.765	0	310.544	0	84.8	4	27.2	4	-1E+10	1	-1E+10	1	-1E+10	1	-1E+10	1	-1E+10	1	-1E+10	1
4902549	121	C	12/21/2023	13:05	-132.943	47.685	0	314.40	0	4.7760	0	33.8150	0	26.764	0	311.534	0	84.3	4	27.0	4	-1E+10	1	-1E+10	1	-1E+10	1	-1E+10	1	-1E+10	1	-1E+10	1
4902549	121	C	12/21/2023	13:05	-132.943	47.685	0	315.40	0	4.7780	0	33.8190	0	26.767	0	312.524	0	83.8	4	26.9	4	-1E+10	1	-1E+10	1	-1E+10	1	-1E+10	1	-1E+10	1	-1E+10	1
4902549	121	C	12/21/2023	13:05	-132.943	47.685	0	316.50	0	4.7590	0	33.8180	0	26.768	0	313.613	0	83.2	4	26.7	4	-1E+10	1	-1E+10	1	-1E+10	1	-1E+10	1	-1E+10	1	-1E+10	1
4902549	121	C	12/21/2023	13:05	-132.943	47.685	0	317.50	0	4.7560	0	33.8160	0	26.767	0	314.603	0	82.7	4	26.5	4	-1E+10	1	-1E+10	1	-1E+10	1	-1E+10	1	-1E+10	1	-1E+10	1
4902549	121	C	12/21/2023	13:05	-132.943	47.685	0	318.50	0	4.7100	0	33.8180	0	26.773	0	315.593	0	82.1	4	26.3	4	-1E+10	1	-1E+10	1	-1E+10	1	-1E+10	1	-1E+10	1	-1E+10	1
4902549	121	C	12/21/2023	13:05	-132.943	47.685	0	319.50	0	4.7020	0	33.8190	0	26.775	0	316.583	0	81.6	4	26.1	4	-1E+10	1	-1E+10	1	-1E+10	1	-1E+10	1	-1E+10	1	-1E+10	1
4902549	121	C	12/21/2023	13:05	-132.943	47.685	0	320.50	0	4.6950	0	33.8200	0	26.777	0	317.573	0	81.0	4	25.9	4	-1E+10	1	-1E+10	1	-1E+10	1	-1E+10	1	-1E+10	1	-1E+10	1
4902549	121	C	12/21/2023	13:05	-132.943	47.685	0	321.50	0	4.6920	0	33.8200	0	26.777	0	318.564	0	80.4	4	25.7	4	-1E+10	1	-1E+10	1	-1E+10	1	-1E+10	1	-1E+10	1	-1E+10	1
4902549	121	C	12/21/2023	13:05	-132.943	47.685	0	322.50	0	4.6890	0	33.8230	0	26.780	0	319.554	0	79.9	4	25.6	4	-1E+10	1	-1E+10	1	-1E+10	1	-1E+10	1	-1E+10	1	-1E+10	1
4902549	121	C	12/21/2023	13:05	-132.943	47.685	0	323.50	0	4.6860	0	33.8240	0	26.781	0	320.544	0	79.4	4	25.4	4	-1E+10	1	-1E+10	1	-1E+10	1	-1E+10	1	-1E+10	1	-1E+10	1
4902549	121	C	12/21/2023	13:05	-132.943	47.685	0	324.60	0	4.6850	0	33.8270	0	26.783	0	321.633	0	78.9	4	25.3	4	-1E+10	1	-1E+10	1	-1E+10	1	-1E+10	1	-1E+10	1	-1E+10	1
4902549	121	C	12/21/2023	13:05	-132.943	47.685	0	325.60	0	4.6730	0	33.8260	0	26.784	0	322.623	0	78.4	4	25.1	4	-1E+10	1	-1E+10	1	-1E+10	1	-1E+10	1	-1E+10	1	-1E+10	1
4902549	121	C	12/21/2023	13:05	-132.943	47.685	0	326.60	0	4.6700	0	33.8270	0	26.785	0	323.613	0	77.8	4	24.9	4	-1E+10	1	-1E+10	1	-1E+10	1	-1E+10	1	-1E+10	1	-1E+10	1
4902549	121	C	12/21/2023	13:05	-132.943	47.685	0	327.60	0	4.6670	0	33.8310	0	26.788	0	324.603	0	77.3	4	24.7	4	-1E+10	1	-1E+10	1	-1E+10	1	-1E+10	1	-1E+10	1	-1E+10	1
4902549	121	C	12/21/2023	13:05	-132.943	47.685	0	328.60	0	4.6630	0	33.8320	0	26.790	0	325.593	0	76.9	4	24.6	4	-1E+10	1	-1E+10	1	-1E+10	1	-1E+10	1	-1E+10	1	-1E+10	1
4902549	121	C	12/21/2023	13:05	-132.943	47.685	0	329.60	0	4.6590	0	33.8330	0	26.791	0	326.583	0	76.4	4	24.4	4	-1E+10	1	-1E+10	1	-1E+10	1	-1E+10	1	-1E+10	1	-1E+10	1
4902549	121	C	12/21/2023	13:05	-132.943	47.685	0	330.60	0	4.6450	0	33.8340	0	26.793	0	327.573	0	76.0	4	24.3	4	-1E+10	1	-1E+10	1	-1E+10	1	-1E+10	1	-1E+10	1	-1E+10	1
4902549	121	C	12/21/2023	13:05	-132.943	47.685	0	331.60	0	4.6220	0	33.8350	0	26.797	0	328.563	0	75.7	4	24.2	4	-1E+10	1	-1E+10	1	-1E+10	1	-1E+10	1	-1E+10	1	-1E+10	1
4902549	121	C	12/21/2023	13:05	-132.943	47.685	0	332.60	0	4.6190	0	33.8360	0	26.798	0	329.553	0	75.3	4	24.1	4	-1E+10	1	-1E+10	1	-1E+10	1	-1E+10	1	-1E+10	1	-1E+10	1
4902549	121	C	12/21/2023	13:05	-132.943	47.685	0	333.60	0	4.6130	0	33.8360	0	26.798	0	330.543	0	74.9	4	23.9	4	-1E+10	1	-1E+10	1	-1E+10	1	-1E+10	1	-1E+10	1	-1E+10	1
4902549	121	C	12/21/2023	13:05	-132.943	47.685	0	334.60	0	4.6100	0	33.8360	0	26.799	0	331.533	0	74.5	4	23.8	4	-1E+10	1	-1E+10	1	-1E+10	1	-1E+10	1	-1E+10	1	-1E+10	1
4902549	121	C	12/21/2023	13:05	-132.943	47.685	0	335.70	0	4.6030	0	33.8360	0	26.799	0	332.622	0	74.0	4	23.6	4	-1E+10	1	-1E+10	1	-1E+10	1	-1E+10	1	-1E+10	1	-1E+10	1
4902549	121	C	12/21/2023	13:05	-132.943	47.685	0	336.70	0	4.5990	0	33.8380	0	26.802	0	333.612	0	73.5	4	23.5	4	-1E+10	1	-1E+10	1	-1E+10	1	-1E+10	1	-1E+10	1	-1E+10	1
4902549	121	C	12/21/2023	13:05	-132.943	47.685	0	337.70	0	4.6210	0	33.8440	0	26.804	0	334.602	0	73.0	4	23.3	4	-1E+10	1	-1E+10	1	-1E+10	1	-1E+10	1	-1E+10	1	-1E+10	1
4902549	121	C	12/21/2023	13:05	-132.943	47.685	0	338.70	0	4.5870	0	33.8470	0	26.810	0	335.592	0	72.4	4	23.1	4	-1E+10	1	-1E+10	1	-1E+10	1	-1E+10	1	-1E+10	1	-1E+10	1
4902549	121	C	12/21/2023	13:05	-132.943	47.685	0	339.80	0	4.5870	0	33.8450	0	26.808	0	336.681	0	72.0	4	23.0	4	-1E+10	1	-1E+10	1	-1E+10	1	-1E+10	1	-1E+10	1	-1E+10	1
4902549	121	C	12/21/2023	13:05	-132.943	47.685	0	340.80	0	4.6040	0	33.8510	0	26.811	0	337.671	0	71.5	4	22.8	4	-1E+10	1	-1E+10	1	-1E+10	1	-1E+10	1	-1E+10	1	-1E+10	1
4902549	121	C	12/21/2023	13:05	-132.943	47.685	0	341.80	0	4.6220	0	33.8550	0	26.813	0	338.661	0	70.9	4	22.7	4	-1E+10	1	-1E+10	1	-1E+10	1	-1E+10	1	-1E+10	1	-1E+10	1
4902549	121	C	12/21/2023	13:05	-132.943	47.685	0	342.90	0	4.6660	0	33.8630	0	26.814	0	339.751	0	70.3	4	22.5	4	-1E+10	1	-1E+10	1	-1E+10	1	-1E+10	1	-1E+10	1	-1E+10	1
4902549	121	C	12/21/2023	13:05	-132.943	47.685	0	343.90	0	4.6790	0	33.8690	0	26.817	0	340.740	0	69.8	4	22.4	4	-1E+10	1	-1E+10	1	-1E+10	1	-1E+10	1	-1E+10	1	-1E+10	1
4902549	121	C	12/21/2023	13:05	-132.943	47.685	0	344.90	0	4.7060	0	33.8750	0	26.819	0	341.730	0	69.3	4	22.2	4	-1E+10	1	-1E+10	1	-1E+10	1	-1E+10	1	-1E+10	1	-1E+10	1
4902549	121	C	12/21/2023	13:05	-132.943	47.685	0	346.00	0	4.7100	0	33.8760	0	26.820	0	342.819	0	68.7	4	22.0	4	-1E+10	1	-1E+10	1	-1E+10	1	-1E+10	1	-1E+10	1	-1E+10	1
4902549	121	C	12/21/2023	13:05	-132.943	47.685	0	347.00	0	4.7010	0	33.8740	0	26.819	0	343.809	0	68.2	4	21.8	4	-1E+10	1	-1E+10	1	-1E+10	1	-1E+10	1	-1E+10	1	-1E+10	1
4902549	121	C	12/21/2023	13:05	-132.943	47.685	0	348.10	0	4.7220	0	33.8810	0	26.822	0	344.898	0	67.6	4	21.7	4	-1E+10	1	-1E+10	1	-1E+10	1	-1E+10	1	-1E+10	1	-1E+10	1
4902549	121	C	12/21/2023	13:05	-132.943	47.685	0	349.10	0	4.7390	0	33.8850	0	26.824	0	345.888	0	67.0	4	21.5	4	-1E+10	1	-1E+10	1	-1E+10	1	-1E+10	1	-1E+10	1	-1E+10	1
4902549	121	C	12/21/2023	13:05	-132.943	47.685	0	350.10	0	4.7640	0	33.8950	0	26.829	0	346.878	0	66.6	4	21.4	4	-1E+10	1	-1E+10	1	-1E+10	1	-1E+10	1	-1E+10	1	-1E+10	1
4902549	121	C	12/21/2023	13:05	-132.943	47.685	0	353.20	0	4.7720	0	33.9000	0	26.832	0	349.947	0	65.5	4	21.0	4	-1E+10	1	-1E+10	1	-1E+10	1	-1E+10	1	-1E+10	1	-1E+10	1
4902549	121	C	12/21/2023	13:05	-132.943	47.685	0	357.90	0	4.7590	0	33.9080	0	26.840	0	354.600	0	64.1	4	20.6	4	-1E+10	1	-1E+10	1	-1E+10	1	-1E+10	1	-1E+10	1	-1E+10	1
4902549	121	C	12/21/2023	13:05	-132.943	47.685	0	362.70	0	4.7390	0	33.9130	0	26.846	0	359.352	0	63.1	4	20.2	4	-1E+10	1	-1E+10	1	-1E+10	1	-1E+10	1	-1E+10	1	-1E+10	1
4902549	121	C	12/21/2023	13:05	-132.943	47.685	0	367.60	0	4.7120	0	33.9150	0	26.851	0	364.202	0	62.3	4	20.0	4	-1E+10	1	-1E+10	1	-1E+10	1	-1E+10	1	-1E+10	1	-1E+10	1
4902549	121	C	12/21/2023	13:05	-132.943	47.685	0	372.60	0	4.6910	0	33.9160	0	26.854	0	369.151	0	61.5	4	19.7	4	-1E+10	1	-1E+10	1	-1E+10	1	-1E+10	1	-1E+10	1	-1E+10	1
4902549	121	C	12/21/2023	13:05	-132.943	47.685	0	377.70	0	4.6320	0	33.9160	0	26.860	0	374.199	0	60.6	4	19.4	4	-1E+10	1	-1E+10	1	-1E+10	1	-1E+10	1	-1E+10	1	-1E+10	1
4902549	121	C	12/21/2023	13:05	-132.943	47.685	0	382.90	0	4.5820	0	33.9160	0	26.866	0	379.347	0	60.1	4	19.2	4	-1E+10	1	-1E+10	1	-1E+10	1	-1E+10	1	-1E+10	1	-1E+10	1
4902549	121	C	12/21/2023	13:05	-132.943	47.685	0	387.80	0	4.5540	0	33.9160	0	26.869	0	384.197	0	59.4	4	19.0	4	-1E+10	1	-1E+10	1	-1E+10	1	-1E+10	1	-1E+10	1	-1E+10	1
4902549	121	C	12/21/2023	13:05	-132.943	47.685	0	392.70	0	4.5370	0	33.9170	0	26.871	0	389.046	0	58.3	4	18.6	4	-1E+10	1	-1E+10	1	-1E+10	1	-1E+10	1	-1E+10	1	-1E+10	1
4902549	121	C	12/21/2023	13:05	-132.943	47.685	0	397.70	0	4.4960	0	33.9190	0	26.877	0	393.995	0	57.1	4	18.2	4	-1E+10	1	-1E+10	1	-1E+10	1	-1E+10	1	-1E+10	1	-1E+10	1
4902549	121	C	12/21/2023	13:05	-132.943	47.685	0	402.80	0	4.4830	0	33.9250	0	26.884	0	399.043	0	55.6	4	17.7	4	-1E+10	1	-1E+10	1	-1E+10	1	-1E+10	1	-1E+10	1	-1E+10	1
4902549	121	C	12/21/2023	13:05	-132.943	47.685	0	408.00	0	4.4710	0	33.9300	0	26.889	0	404.189	0	54.3	4	17.3	4	-1E+10	1	-1E+10	1	-1E+10	1	-1E+10	1	-1E+10	1	-1E+10	1
4902549	121	C	12/21/2023	13:05	-132.943	47.685	0	412.80	0	4.4150	0	33.9330	0	26.897	0	408.940	0	53.3	4	17.0	4	-1E+10	1	-1E+10	1	-1E+10	1	-1E+10	1	-1E+10	1	-1E+10	1
4902549	121	C	12/21/2023	13:05	-132.943	47.685	0	417.60	0	4.3770	0	33.9330	0	26.901	0	413.690	0	52.2	4	16.6	4	-1E+10	1	-1E+10	1	-1E+10	1	-1E+10	1	-1E+10	1	-1E+10	1
4902549	121	C	12/21/2023	13:05	-132.943	47.685	0	422.50	0	4.3490	0	33.9340	0	26.905	0	418.539	0	50.7	4	16.1	4	-1E+10	1	-1E+10	1	-1E+10	1	-1E+10	1	-1E+10	1	-1E+10	1
4902549	121	C	12/21/2023	13:05	-132.943	47.685	0	427.50	0	4.3160	0	33.9400	0	26.913	0	423.487	0	49.2	4	15.6	4	-1E+10	1	-1E+10	1	-1E+10	1	-1E+10	1	-1E+10	1	-1E+10	1
4902549	121	C	12/21/2023	13:05	-132.943	47.685	0	432.60	0	4.2900	0	33.9470	0	26.922	0	428.534	0	48.2	4	15.3	4	-1E+10	1	-1E+10	1	-1E+10	1	-1E+10	1	-1E+10	1	-1E+10	1
4902549	121	C	12/21/2023	13:05	-132.943	47.685	0	437.80	0	4.2810	0	33.9490	0	26.924	0	433.680	0	47.3	4	15.0	4	-1E+10	1	-1E+10	1	-1E+10	1	-1E+10	1	-1E+10	1	-1E+10	1
4902549	121	C	12/21/2023	13:05	-132.943	47.685	0	443.10	0	4.2700	0	33.9560	0	26.931	0	438.924	0	46.2	4	14.7	4	-1E+10	1	-1E+10	1	-1E+10	1	-1E+10	1	-1E+10	1	-1E+10	1
4902549	121	C	12/21/2023	13:05	-132.943	47.685	0	448.30	0	4.2580	0	33.9620	0	26.937	0	444.070	0	45.5	4	14.4	4	-1E+10	1	-1E+10	1	-1E+10	1	-1E+10	1	-1E+10	1	-1E+10	1
4902549	121	C	12/21/2023	13:05	-132.943	47.685	0	453.10	0	4.2610	0	33.9660	0	26.940	0	448.819	0	44.9	4	14.2	4	-1E+10	1	-1E+10	1	-1E+10	1	-1E+10	1	-1E+10	1	-1E+10	1
4902549	121	C	12/21/2023	13:05	-132.943	47.685	0	457.90	0	4.2620	0	33.9720	0	26.945	0	453.569	0	44.1	4	14.0	4	-1E+10	1	-1E+10	1	-1E+10	1	-1E+10	1	-1E+10	1	-1E+10	1
4902549	121	C	12/21/2023	13:05	-132.943	47.685	0	463.10	0	4.2530	0	33.9770	0	26.950	0	458.714	0	43.3	4	13.7	4	-1E+10	1	-1E+10	1	-1E+10	1	-1E+10	1	-1E+10	1	-1E+10	1
4902549	121	C	12/21/2023	13:05	-132.943	47.685	0	467.90	0	4.2500	0	33.9800	0	26.953	0	463.463	0	42.5	4	13.5	4	-1E+10	1	-1E+10	1	-1E+10	1	-1E+10	1	-1E+10	1	-1E+10	1
4902549	121	C	12/21/2023	13:05	-132.943	47.685	0	472.80	0	4.2450	0	33.9830	0	26.955	0	468.311	0	41.2	4	13.1	4	-1E+10	1	-1E+10	1	-1E+10	1	-1E+10	1	-1E+10	1	-1E+10	1
4902549	121	C	12/21/2023	13:05	-132.943	47.685	0	477.70	0	4.2230	0	33.9900	0	26.963	0	473.159	0	40.0	4	12.7	4	-1E+10	1	-1E+10	1	-1E+10	1	-1E+10	1	-1E+10	1	-1E+10	1
4902549	121	C	12/21/2023	13:05	-132.943	47.685	0	482.70	0	4.2130	0	33.9990	0	26.972	0	478.105	0	39.0	4	12.4	4	-1E+10	1	-1E+10	1	-1E+10	1	-1E+10	1	-1E+10	1	-1E+10	1
4902549	121	C	12/21/2023	13:05	-132.943	47.685	0	487.90	0	4.2060	0	34.0060	0	26.978	0	483.250	0	38.2	4	12.1	4	-1E+10	1	-1E+10	1	-1E+10	1	-1E+10	1	-1E+10	1	-1E+10	1
4902549	121	C	12/21/2023	13:05	-132.943	47.685	0	493.10	0	4.2010	0	34.0100	0	26.982	0	488.394	0	37.2	4	11.8	4	-1E+10	1	-1E+10	1	-1E+10	1	-1E+10	1	-1E+10	1	-1E+10	1
4902549	121	C	12/21/2023	13:05	-132.943	47.685	0	498.20	0	4.1960	0	34.0160	0	26.987	0	493.440	0	36.2	4	11.5	4	-1E+10	1	-1E+10	1	-1E+10	1	-1E+10	1	-1E+10	1	-1E+10	1
4902549	121	C	12/21/2023	13:05	-132.943	47.685	0	502.90	0	4.1890	0	34.0230	0	26.993	0	498.089	0	35.5	4	11.3	4	-1E+10	1	-1E+10	1	-1E+10	1	-1E+10	1	-1E+10	1	-1E+10	1
4902549	121	C	12/21/2023	13:05	-132.943	47.685	0	507.60	0	4.1820	0	34.0260	0	26.996	0	502.738	0	34.9	4	11.0	4	-1E+10	1	-1E+10	1	-1E+10	1	-1E+10	1	-1E+10	1	-1E+10	1
4902549	121	C	12/21/2023	13:05	-132.943	47.685	0	512.70	0	4.1760	0	34.0300	0	27.000	0	507.783	0	33.8	4	10.7	4	-1E+10	1	-1E+10	1	-1E+10	1	-1E+10	1	-1E+10	1	-1E+10	1
4902549	121	C	12/21/2023	13:05	-132.943	47.685	0	517.70	0	4.1670	0	34.0370	0	27.007	0	512.729	0	32.7	4	10.3	4	-1E+10	1	-1E+10	1	-1E+10	1	-1E+10	1	-1E+10	1	-1E+10	1
4902549	121	C	12/21/2023	13:05	-132.943	47.685	0	522.80	0	4.1560	0	34.0450	0	27.014	0	517.774	0	31.6	4	10.0	4	-1E+10	1	-1E+10	1	-1E+10	1	-1E+10	1	-1E+10	1	-1E+10	1
4902549	121	C	12/21/2023	13:05	-132.943	47.685	0	528.00	0	4.1510	0	34.0480	0	27.017	0	522.917	0	30.6	4	9.7	4	-1E+10	1	-1E+10	1	-1E+10	1	-1E+10	1	-1E+10	1	-1E+10	1
4902549	121	C	12/21/2023	13:05	-132.943	47.685	0	533.20	0	4.1460	0	34.0540	0	27.023	0	528.061	0	29.3	4	9.3	4	-1E+10	1	-1E+10	1	-1E+10	1	-1E+10	1	-1E+10	1	-1E+10	1
4902549	121	C	12/21/2023	13:05	-132.943	47.685	0	538.10	0	4.1440	0	34.0600	0	27.028	0	532.907	0	28.4	4	9.0	4	-1E+10	1	-1E+10	1	-1E+10	1	-1E+10	1	-1E+10	1	-1E+10	1
4902549	121	C	12/21/2023	13:05	-132.943	47.685	0	543.00	0	4.1370	0	34.0640	0	27.032	0	537.753	0	27.7	4	8.8	4	-1E+10	1	-1E+10	1	-1E+10	1	-1E+10	1	-1E+10	1	-1E+10	1
4902549	121	C	12/21/2023	13:05	-132.943	47.685	0	547.90	0	4.1270	0	34.0690	0	27.037	0	542.600	0	26.9	4	8.5	4	-1E+10	1	-1E+10	1	-1E+10	1	-1E+10	1	-1E+10	1	-1E+10	1
4902549	121	C	12/21/2023	13:05	-132.943	47.685	0	552.90	0	4.1090	0	34.0770	0	27.045	0	547.545	0	26.3	4	8.3	4	-1E+10	1	-1E+10	1	-1E+10	1	-1E+10	1	-1E+10	1	-1E+10	1
4902549	121	C	12/21/2023	13:05	-132.943	47.685	0	557.90	0	4.0960	0	34.0810	0	27.049	0	552.490	0	25.7	4	8.1	4	-1E+10	1	-1E+10	1	-1E+10	1	-1E+10	1	-1E+10	1	-1E+10	1
4902549	121	C	12/21/2023	13:05	-132.943	47.685	0	562.90	0	4.0820	0	34.0870	0	27.056	0	557.435	0	25.3	4	8.0	4	-1E+10	1	-1E+10	1	-1E+10	1	-1E+10	1	-1E+10	1	-1E+10	1
4902549	121	C	12/21/2023	13:05	-132.943	47.685	0	568.10	0	4.0720	0	34.0910	0	27.060	0	562.577	0	24.9	4	7.9	4	-1E+10	1	-1E+10	1	-1E+10	1	-1E+10	1	-1E+10	1	-1E+10	1
4902549	121	C	12/21/2023	13:05	-132.943	47.685	0	572.80	0	4.0570	0	34.0960	0	27.066	0	567.225	0	24.5	4	7.7	4	-1E+10	1	-1E+10	1	-1E+10	1	-1E+10	1	-1E+10	1	-1E+10	1
4902549	121	C	12/21/2023	13:05	-132.943	47.685	0	577.60	0	4.0480	0	34.0990	0	27.069	0	571.972	0	24.0	4	7.6	4	-1E+10	1	-1E+10	1	-1E+10	1	-1E+10	1	-1E+10	1	-1E+10	1
4902549	121	C	12/21/2023	13:05	-132.943	47.685	0	582.90	0	4.0430	0	34.1020	0	27.072	0	577.213	0	23.4	4	7.4	4	-1E+10	1	-1E+10	1	-1E+10	1	-1E+10	1	-1E+10	1	-1E+10	1
4902549	121	C	12/21/2023	13:05	-132.943	47.685	0	588.20	0	4.0390	0	34.1060	0	27.075	0	582.454	0	22.9	4	7.2	4	-1E+10	1	-1E+10	1	-1E+10	1	-1E+10	1	-1E+10	1	-1E+10	1
4902549	121	C	12/21/2023	13:05	-132.943	47.685	0	593.00	0	4.0330	0	34.1080	0	27.078	0	587.200	0	22.4	4	7.1	4	-1E+10	1	-1E+10	1	-1E+10	1	-1E+10	1	-1E+10	1	-1E+10	1
4902549	121	C	12/21/2023	13:05	-132.943	47.685	0	597.70	0	4.0230	0	34.1120	0	27.082	0	591.847	0	21.8	4	6.9	4	-1E+10	1	-1E+10	1	-1E+10	1	-1E+10	1	-1E+10	1	-1E+10	1
4902549	121	C	12/21/2023	13:05	-132.943	47.685	0	602.80	0	4.0060	0	34.1170	0	27.088	0	596.890	0	21.0	4	6.6	4	-1E+10	1	-1E+10	1	-1E+10	1	-1E+10	1	-1E+10	1	-1E+10	1
4902549	121	C	12/21/2023	13:05	-132.943	47.685	0	608.10	0	3.9870	0	34.1250	0	27.096	0	602.130	0	20.2	4	6.4	4	-1E+10	1	-1E+10	1	-1E+10	1	-1E+10	1	-1E+10	1	-1E+10	1
4902549	121	C	12/21/2023	13:05	-132.943	47.685	0	612.90	0	3.9690	0	34.1310	0	27.103	0	606.876	0	19.7	4	6.2	4	-1E+10	1	-1E+10	1	-1E+10	1	-1E+10	1	-1E+10	1	-1E+10	1
4902549	121	C	12/21/2023	13:05	-132.943	47.685	0	617.70	0	3.9530	0	34.1360	0	27.108	0	611.622	0	19.2	4	6.1	4	-1E+10	1	-1E+10	1	-1E+10	1	-1E+10	1	-1E+10	1	-1E+10	1
4902549	121	C	12/21/2023	13:05	-132.943	47.685	0	622.60	0	3.9390	0	34.1410	0	27.114	0	616.467	0	18.9	4	6.0	4	-1E+10	1	-1E+10	1	-1E+10	1	-1E+10	1	-1E+10	1	-1E+10	1
4902549	121	C	12/21/2023	13:05	-132.943	47.685	0	627.60	0	3.9280	0	34.1440	0	27.117	0	621.410	0	18.6	4	5.8	4	-1E+10	1	-1E+10	1	-1E+10	1	-1E+10	1	-1E+10	1	-1E+10	1
4902549	121	C	12/21/2023	13:05	-132.943	47.685	0	632.60	0	3.9170	0	34.1480	0	27.122	0	626.353	0	18.3	4	5.8	4	-1E+10	1	-1E+10	1	-1E+10	1	-1E+10	1	-1E+10	1	-1E+10	1
4902549	121	C	12/21/2023	13:05	-132.943	47.685	0	637.60	0	3.9080	0	34.1500	0	27.124	0	631.296	0	18.0	4	5.7	4	-1E+10	1	-1E+10	1	-1E+10	1	-1E+10	1	-1E+10	1	-1E+10	1
4902549	121	C	12/21/2023	13:05	-132.943	47.685	0	642.70	0	3.8960	0	34.1530	0	27.128	0	636.338	0	17.7	4	5.6	4	-1E+10	1	-1E+10	1	-1E+10	1	-1E+10	1	-1E+10	1	-1E+10	1
4902549	121	C	12/21/2023	13:05	-132.943	47.685	0	647.70	0	3.8820	0	34.1560	0	27.132	0	641.281	0	17.4	4	5.5	4	-1E+10	1	-1E+10	1	-1E+10	1	-1E+10	1	-1E+10	1	-1E+10	1
4902549	121	C	12/21/2023	13:05	-132.943	47.685	0	652.90	0	3.8710	0	34.1600	0	27.136	0	646.421	0	17.1	4	5.4	4	-1E+10	1	-1E+10	1	-1E+10	1	-1E+10	1	-1E+10	1	-1E+10	1
4902549	121	C	12/21/2023	13:05	-132.943	47.685	0	658.00	0	3.8570	0	34.1640	0	27.141	0	651.462	0	16.8	4	5.3	4	-1E+10	1	-1E+10	1	-1E+10	1	-1E+10	1	-1E+10	1	-1E+10	1
4902549	121	C	12/21/2023	13:05	-132.943	47.685	0	663.20	0	3.8450	0	34.1670	0	27.144	0	656.603	0	16.5	4	5.2	4	-1E+10	1	-1E+10	1	-1E+10	1	-1E+10	1	-1E+10	1	-1E+10	1
4902549	121	C	12/21/2023	13:05	-132.943	47.685	0	667.80	0	3.8350	0	34.1710	0	27.148	0	661.150	0	16.2	4	5.1	4	-1E+10	1	-1E+10	1	-1E+10	1	-1E+10	1	-1E+10	1	-1E+10	1
4902549	121	C	12/21/2023	13:05	-132.943	47.685	0	672.80	0	3.8220	0	34.1750	0	27.153	0	666.092	0	15.9	4	5.0	4	-1E+10	1	-1E+10	1	-1E+10	1	-1E+10	1	-1E+10	1	-1E+10	1
4902549	121	C	12/21/2023	13:05	-132.943	47.685	0	678.00	0	3.8050	0	34.1810	0	27.159	0	671.232	0	15.6	4	4.9	4	-1E+10	1	-1E+10	1	-1E+10	1	-1E+10	1	-1E+10	1	-1E+10	1
4902549	121	C	12/21/2023	13:05	-132.943	47.685	0	682.80	0	3.7960	0	34.1840	0	27.163	0	675.976	0	15.3	4	4.8	4	-1E+10	1	-1E+10	1	-1E+10	1	-1E+10	1	-1E+10	1	-1E+10	1
4902549	121	C	12/21/2023	13:05	-132.943	47.685	0	687.70	0	3.7830	0	34.1880	0	27.167	0	680.819	0	15.1	4	4.7	4	-1E+10	1	-1E+10	1	-1E+10	1	-1E+10	1	-1E+10	1	-1E+10	1
4902549	121	C	12/21/2023	13:05	-132.943	47.685	0	692.80	0	3.7760	0	34.1900	0	27.170	0	685.859	0	14.9	4	4.7	4	-1E+10	1	-1E+10	1	-1E+10	1	-1E+10	1	-1E+10	1	-1E+10	1
4902549	121	C	12/21/2023	13:05	-132.943	47.685	0	697.90	0	3.7720	0	34.1920	0	27.172	0	690.900	0	14.7	4	4.6	4	-1E+10	1	-1E+10	1	-1E+10	1	-1E+10	1	-1E+10	1	-1E+10	1
4902549	121	C	12/21/2023	13:05	-132.943	47.685	0	703.00	0	3.7620	0	34.1950	0	27.175	0	695.940	0	14.4	4	4.5	4	-1E+10	1	-1E+10	1	-1E+10	1	-1E+10	1	-1E+10	1	-1E+10	1
4902549	121	C	12/21/2023	13:05	-132.943	47.685	0	708.20	0	3.7460	0	34.2000	0	27.181	0	701.079	0	14.1	4	4.4	4	-1E+10	1	-1E+10	1	-1E+10	1	-1E+10	1	-1E+10	1	-1E+10	1
4902549	121	C	12/21/2023	13:05	-132.943	47.685	0	713.00	0	3.7380	0	34.2020	0	27.183	0	705.823	0	13.8	4	4.3	4	-1E+10	1	-1E+10	1	-1E+10	1	-1E+10	1	-1E+10	1	-1E+10	1
4902549	121	C	12/21/2023	13:05	-132.943	47.685	0	717.80	0	3.7230	0	34.2070	0	27.188	0	710.566	0	13.6	4	4.3	4	-1E+10	1	-1E+10	1	-1E+10	1	-1E+10	1	-1E+10	1	-1E+10	1
4902549	121	C	12/21/2023	13:05	-132.943	47.685	0	723.00	0	3.7070	0	34.2120	0	27.194	0	715.705	0	13.2	4	4.1	4	-1E+10	1	-1E+10	1	-1E+10	1	-1E+10	1	-1E+10	1	-1E+10	1
4902549	121	C	12/21/2023	13:05	-132.943	47.685	0	727.90	0	3.6970	0	34.2150	0	27.197	0	720.547	0	12.8	4	4.0	4	-1E+10	1	-1E+10	1	-1E+10	1	-1E+10	1	-1E+10	1	-1E+10	1
4902549	121	C	12/21/2023	13:05	-132.943	47.685	0	732.90	0	3.6940	0	34.2190	0	27.201	0	725.488	0	12.3	4	3.9	4	-1E+10	1	-1E+10	1	-1E+10	1	-1E+10	1	-1E+10	1	-1E+10	1
4902549	121	C	12/21/2023	13:05	-132.943	47.685	0	737.90	0	3.6910	0	34.2230	0	27.205	0	730.429	0	12.0	4	3.8	4	-1E+10	1	-1E+10	1	-1E+10	1	-1E+10	1	-1E+10	1	-1E+10	1
4902549	121	C	12/21/2023	13:05	-132.943	47.685	0	742.80	0	3.6810	0	34.2250	0	27.207	0	735.270	0	11.7	4	3.7	4	-1E+10	1	-1E+10	1	-1E+10	1	-1E+10	1	-1E+10	1	-1E+10	1
4902549	121	C	12/21/2023	13:05	-132.943	47.685	0	747.80	0	3.6730	0	34.2290	0	27.211	0	740.211	0	11.2	4	3.5	4	-1E+10	1	-1E+10	1	-1E+10	1	-1E+10	1	-1E+10	1	-1E+10	1
4902549	121	C	12/21/2023	13:05	-132.943	47.685	0	752.90	0	3.6630	0	34.2350	0	27.217	0	745.250	0	11.1	4	3.5	4	-1E+10	1	-1E+10	1	-1E+10	1	-1E+10	1	-1E+10	1	-1E+10	1
4902549	121	C	12/21/2023	13:05	-132.943	47.685	0	758.10	0	3.6580	0	34.2370	0	27.219	0	750.388	0	11.2	4	3.5	4	-1E+10	1	-1E+10	1	-1E+10	1	-1E+10	1	-1E+10	1	-1E+10	1
4902549	121	C	12/21/2023	13:05	-132.943	47.685	0	762.80	0	3.6390	0	34.2380	0	27.222	0	755.032	0	11.3	4	3.5	4	-1E+10	1	-1E+10	1	-1E+10	1	-1E+10	1	-1E+10	1	-1E+10	1
4902549	121	C	12/21/2023	13:05	-132.943	47.685	0	767.60	0	3.6160	0	34.2400	0	27.226	0	759.774	0	11.1	4	3.5	4	-1E+10	1	-1E+10	1	-1E+10	1	-1E+10	1	-1E+10	1	-1E+10	1
4902549	121	C	12/21/2023	13:05	-132.943	47.685	0	772.50	0	3.6090	0	34.2440	0	27.229	0	764.615	0	10.7	4	3.4	4	-1E+10	1	-1E+10	1	-1E+10	1	-1E+10	1	-1E+10	1	-1E+10	1
4902549	121	C	12/21/2023	13:05	-132.943	47.685	0	777.90	0	3.6050	0	34.2470	0	27.232	0	769.950	0	10.4	4	3.3	4	-1E+10	1	-1E+10	1	-1E+10	1	-1E+10	1	-1E+10	1	-1E+10	1
4902549	121	C	12/21/2023	13:05	-132.943	47.685	0	783.30	0	3.6050	0	34.2500	0	27.235	0	775.285	0	10.1	4	3.2	4	-1E+10	1	-1E+10	1	-1E+10	1	-1E+10	1	-1E+10	1	-1E+10	1
4902549	121	C	12/21/2023	13:05	-132.943	47.685	0	788.20	0	3.5980	0	34.2530	0	27.238	0	780.125	0	10.0	4	3.1	4	-1E+10	1	-1E+10	1	-1E+10	1	-1E+10	1	-1E+10	1	-1E+10	1
4902549	121	C	12/21/2023	13:05	-132.943	47.685	0	793.20	0	3.5880	0	34.2570	0	27.242	0	785.065	0	9.9	4	3.1	4	-1E+10	1	-1E+10	1	-1E+10	1	-1E+10	1	-1E+10	1	-1E+10	1
4902549	121	C	12/21/2023	13:05	-132.943	47.685	0	798.20	0	3.5750	0	34.2620	0	27.247	0	790.004	0	10.1	4	3.2	4	-1E+10	1	-1E+10	1	-1E+10	1	-1E+10	1	-1E+10	1	-1E+10	1
4902549	121	C	12/21/2023	13:05	-132.943	47.685	0	803.30	0	3.5480	0	34.2610	0	27.249	0	795.042	0	10.1	4	3.2	4	-1E+10	1	-1E+10	1	-1E+10	1	-1E+10	1	-1E+10	1	-1E+10	1
4902549	121	C	12/21/2023	13:05	-132.943	47.685	0	808.30	0	3.5390	0	34.2630	0	27.252	0	799.981	0	10.0	4	3.1	4	-1E+10	1	-1E+10	1	-1E+10	1	-1E+10	1	-1E+10	1	-1E+10	1
4902549	121	C	12/21/2023	13:05	-132.943	47.685	0	812.90	0	3.5330	0	34.2650	0	27.254	0	804.525	0	9.7	4	3.0	4	-1E+10	1	-1E+10	1	-1E+10	1	-1E+10	1	-1E+10	1	-1E+10	1
4902549	121	C	12/21/2023	13:05	-132.943	47.685	0	817.50	0	3.5310	0	34.2680	0	27.256	0	809.069	0	9.6	4	3.0	4	-1E+10	1	-1E+10	1	-1E+10	1	-1E+10	1	-1E+10	1	-1E+10	1
4902549	121	C	12/21/2023	13:05	-132.943	47.685	0	822.60	0	3.5230	0	34.2700	0	27.259	0	814.106	0	9.5	4	3.0	4	-1E+10	1	-1E+10	1	-1E+10	1	-1E+10	1	-1E+10	1	-1E+10	1
4902549	121	C	12/21/2023	13:05	-132.943	47.685	0	827.90	0	3.5030	0	34.2730	0	27.263	0	819.341	0	9.4	4	2.9	4	-1E+10	1	-1E+10	1	-1E+10	1	-1E+10	1	-1E+10	1	-1E+10	1
4902549	121	C	12/21/2023	13:05	-132.943	47.685	0	833.00	0	3.4940	0	34.2750	0	27.266	0	824.378	0	9.2	4	2.9	4	-1E+10	1	-1E+10	1	-1E+10	1	-1E+10	1	-1E+10	1	-1E+10	1
4902549	121	C	12/21/2023	13:05	-132.943	47.685	0	837.90	0	3.4870	0	34.2780	0	27.269	0	829.218	0	9.0	4	2.8	4	-1E+10	1	-1E+10	1	-1E+10	1	-1E+10	1	-1E+10	1	-1E+10	1
4902549	121	C	12/21/2023	13:05	-132.943	47.685	0	842.80	0	3.4780	0	34.2810	0	27.272	0	834.057	0	8.8	4	2.8	4	-1E+10	1	-1E+10	1	-1E+10	1	-1E+10	1	-1E+10	1	-1E+10	1
4902549	121	C	12/21/2023	13:05	-132.943	47.685	0	847.90	0	3.4680	0	34.2850	0	27.276	0	839.094	0	8.6	4	2.7	4	-1E+10	1	-1E+10	1	-1E+10	1	-1E+10	1	-1E+10	1	-1E+10	1
4902549	121	C	12/21/2023	13:05	-132.943	47.685	0	853.10	0	3.4660	0	34.2870	0	27.278	0	844.229	0	8.4	4	2.6	4	-1E+10	1	-1E+10	1	-1E+10	1	-1E+10	1	-1E+10	1	-1E+10	1
4902549	121	C	12/21/2023	13:05	-132.943	47.685	0	858.00	0	3.4600	0	34.2870	0	27.279	0	849.069	0	8.1	4	2.5	4	-1E+10	1	-1E+10	1	-1E+10	1	-1E+10	1	-1E+10	1	-1E+10	1
4902549	121	C	12/21/2023	13:05	-132.943	47.685	0	862.80	0	3.4630	0	34.2920	0	27.282	0	853.809	0	7.6	4	2.4	4	-1E+10	1	-1E+10	1	-1E+10	1	-1E+10	1	-1E+10	1	-1E+10	1
4902549	121	C	12/21/2023	13:05	-132.943	47.685	0	867.90	0	3.4730	0	34.2990	0	27.287	0	858.845	0	7.5	4	2.4	4	-1E+10	1	-1E+10	1	-1E+10	1	-1E+10	1	-1E+10	1	-1E+10	1
4902549	121	C	12/21/2023	13:05	-132.943	47.685	0	872.80	0	3.4550	0	34.3000	0	27.290	0	863.684	0	7.7	4	2.4	4	-1E+10	1	-1E+10	1	-1E+10	1	-1E+10	1	-1E+10	1	-1E+10	1
4902549	121	C	12/21/2023	13:05	-132.943	47.685	0	877.60	0	3.4350	0	34.3030	0	27.294	0	868.424	0	7.6	4	2.4	4	-1E+10	1	-1E+10	1	-1E+10	1	-1E+10	1	-1E+10	1	-1E+10	1
4902549	121	C	12/21/2023	13:05	-132.943	47.685	0	882.90	0	3.4430	0	34.3060	0	27.296	0	873.657	0	7.5	4	2.3	4	-1E+10	1	-1E+10	1	-1E+10	1	-1E+10	1	-1E+10	1	-1E+10	1
4902549	121	C	12/21/2023	13:05	-132.943	47.685	0	888.10	0	3.4250	0	34.3080	0	27.299	0	878.792	0	7.7	4	2.4	4	-1E+10	1	-1E+10	1	-1E+10	1	-1E+10	1	-1E+10	1	-1E+10	1
4902549	121	C	12/21/2023	13:05	-132.943	47.685	0	892.90	0	3.4160	0	34.3080	0	27.300	0	883.532	0	7.7	4	2.4	4	-1E+10	1	-1E+10	1	-1E+10	1	-1E+10	1	-1E+10	1	-1E+10	1
4902549	121	C	12/21/2023	13:05	-132.943	47.685	0	897.80	0	3.4100	0	34.3090	0	27.301	0	888.370	0	7.7	4	2.4	4	-1E+10	1	-1E+10	1	-1E+10	1	-1E+10	1	-1E+10	1	-1E+10	1
4902549	121	C	12/21/2023	13:05	-132.943	47.685	0	902.90	0	3.3950	0	34.3100	0	27.304	0	893.405	0	7.6	4	2.4	4	-1E+10	1	-1E+10	1	-1E+10	1	-1E+10	1	-1E+10	1	-1E+10	1
4902549	121	C	12/21/2023	13:05	-132.943	47.685	0	907.80	0	3.3870	0	34.3120	0	27.306	0	898.243	0	7.5	4	2.3	4	-1E+10	1	-1E+10	1	-1E+10	1	-1E+10	1	-1E+10	1	-1E+10	1
4902549	121	C	12/21/2023	13:05	-132.943	47.685	0	912.80	0	3.3870	0	34.3140	0	27.308	0	903.180	0	7.4	4	2.3	4	-1E+10	1	-1E+10	1	-1E+10	1	-1E+10	1	-1E+10	1	-1E+10	1
4902549	121	C	12/21/2023	13:05	-132.943	47.685	0	917.70	0	3.3830	0	34.3170	0	27.310	0	908.018	0	7.3	4	2.3	4	-1E+10	1	-1E+10	1	-1E+10	1	-1E+10	1	-1E+10	1	-1E+10	1
4902549	121	C	12/21/2023	13:05	-132.943	47.685	0	922.80	0	3.3720	0	34.3200	0	27.314	0	913.053	0	7.3	4	2.3	4	-1E+10	1	-1E+10	1	-1E+10	1	-1E+10	1	-1E+10	1	-1E+10	1
4902549	121	C	12/21/2023	13:05	-132.943	47.685	0	927.80	0	3.3610	0	34.3210	0	27.316	0	917.989	0	7.4	4	2.3	4	-1E+10	1	-1E+10	1	-1E+10	1	-1E+10	1	-1E+10	1	-1E+10	1
4902549	121	C	12/21/2023	13:05	-132.943	47.685	0	932.90	0	3.3340	0	34.3220	0	27.319	0	923.024	0	7.5	4	2.3	4	-1E+10	1	-1E+10	1	-1E+10	1	-1E+10	1	-1E+10	1	-1E+10	1
4902549	121	C	12/21/2023	13:05	-132.943	47.685	0	938.00	0	3.3240	0	34.3240	0	27.322	0	928.058	0	7.5	4	2.3	4	-1E+10	1	-1E+10	1	-1E+10	1	-1E+10	1	-1E+10	1	-1E+10	1
4902549	121	C	12/21/2023	13:05	-132.943	47.685	0	943.20	0	3.3080	0	34.3250	0	27.324	0	933.192	0	7.5	4	2.3	4	-1E+10	1	-1E+10	1	-1E+10	1	-1E+10	1	-1E+10	1	-1E+10	1
4902549	121	C	12/21/2023	13:05	-132.943	47.685	0	947.90	0	3.2890	0	34.3270	0	27.327	0	937.831	0	7.5	4	2.3	4	-1E+10	1	-1E+10	1	-1E+10	1	-1E+10	1	-1E+10	1	-1E+10	1
4902549	121	C	12/21/2023	13:05	-132.943	47.685	0	953.00	0	3.2740	0	34.3290	0	27.330	0	942.866	0	7.5	4	2.3	4	-1E+10	1	-1E+10	1	-1E+10	1	-1E+10	1	-1E+10	1	-1E+10	1
4902549	121	C	12/21/2023	13:05	-132.943	47.685	0	958.20	0	3.2640	0	34.3310	0	27.333	0	947.999	0	7.4	4	2.3	4	-1E+10	1	-1E+10	1	-1E+10	1	-1E+10	1	-1E+10	1	-1E+10	1
4902549	121	C	12/21/2023	13:05	-132.943	47.685	0	963.00	0	3.2570	0	34.3320	0	27.334	0	952.737	0	7.4	4	2.3	4	-1E+10	1	-1E+10	1	-1E+10	1	-1E+10	1	-1E+10	1	-1E+10	1
4902549	121	C	12/21/2023	13:05	-132.943	47.685	0	967.70	0	3.2520	0	34.3350	0	27.337	0	957.376	0	7.3	4	2.3	4	-1E+10	1	-1E+10	1	-1E+10	1	-1E+10	1	-1E+10	1	-1E+10	1
4902549	121	C	12/21/2023	13:05	-132.943	47.685	0	973.00	0	3.2470	0	34.3360	0	27.339	0	962.607	0	7.2	4	2.2	4	-1E+10	1	-1E+10	1	-1E+10	1	-1E+10	1	-1E+10	1	-1E+10	1
4902549	121	C	12/21/2023	13:05	-132.943	47.685	0	978.20	0	3.2420	0	34.3380	0	27.341	0	967.740	0	7.0	4	2.2	4	-1E+10	1	-1E+10	1	-1E+10	1	-1E+10	1	-1E+10	1	-1E+10	1
4902549	121	C	12/21/2023	13:05	-132.943	47.685	0	982.90	0	3.2610	0	34.3440	0	27.344	0	972.378	0	7.0	4	2.2	4	-1E+10	1	-1E+10	1	-1E+10	1	-1E+10	1	-1E+10	1	-1E+10	1
4902549	121	C	12/21/2023	13:05	-132.943	47.685	0	988.00	0	3.2370	0	34.3440	0	27.346	0	977.412	0	7.1	4	2.2	4	-1E+10	1	-1E+10	1	-1E+10	1	-1E+10	1	-1E+10	1	-1E+10	1
4902549	121	C	12/21/2023	13:05	-132.943	47.685	0	993.10	0	3.2250	0	34.3440	0	27.347	0	982.445	0	7.1	4	2.2	4	-1E+10	1	-1E+10	1	-1E+10	1	-1E+10	1	-1E+10	1	-1E+10	1
4902549	121	C	12/21/2023	13:05	-132.943	47.685	0	997.70	0	3.2250	0	34.3470	0	27.350	0	986.985	0	7.1	4	2.2	4	-1E+10	1	-1E+10	1	-1E+10	1	-1E+10	1	-1E+10	1	-1E+10	1
4902549	121	C	12/21/2023	13:05	-132.943	47.685	0	1005.00	0	3.1880	0	34.3500	0	27.355	0	994.189	0	7.1	4	2.2	4	-1E+10	1	-1E+10	1	-1E+10	1	-1E+10	1	-1E+10	1	-1E+10	1
4902549	121	C	12/21/2023	13:05	-132.943	47.685	0	1015.30	0	3.1650	0	34.3540	0	27.361	0	1004.354	0	7.1	4	2.2	4	-1E+10	1	-1E+10	1	-1E+10	1	-1E+10	1	-1E+10	1	-1E+10	1
4902549	121	C	12/21/2023	13:05	-132.943	47.685	0	1025.70	0	3.1350	0	34.3590	0	27.368	0	1014.617	0	7.1	4	2.2	4	-1E+10	1	-1E+10	1	-1E+10	1	-1E+10	1	-1E+10	1	-1E+10	1
4902549	121	C	12/21/2023	13:05	-132.943	47.685	0	1035.80	0	3.1100	0	34.3660	0	27.376	0	1024.583	0	7.0	4	2.2	4	-1E+10	1	-1E+10	1	-1E+10	1	-1E+10	1	-1E+10	1	-1E+10	1
4902549	121	C	12/21/2023	13:05	-132.943	47.685	0	1045.80	0	3.1060	0	34.3720	0	27.381	0	1034.450	0	7.0	4	2.2	4	-1E+10	1	-1E+10	1	-1E+10	1	-1E+10	1	-1E+10	1	-1E+10	1
4902549	121	C	12/21/2023	13:05	-132.943	47.685	0	1055.40	0	3.0850	0	34.3760	0	27.386	0	1043.922	0	7.0	4	2.2	4	-1E+10	1	-1E+10	1	-1E+10	1	-1E+10	1	-1E+10	1	-1E+10	1
4902549	121	C	12/21/2023	13:05	-132.943	47.685	0	1065.20	0	3.0750	0	34.3800	0	27.390	0	1053.591	0	7.0	4	2.2	4	-1E+10	1	-1E+10	1	-1E+10	1	-1E+10	1	-1E+10	1	-1E+10	1
4902549	121	C	12/21/2023	13:05	-132.943	47.685	0	1075.60	0	3.0410	0	34.3830	0	27.396	0	1063.851	0	7.1	4	2.2	4	-1E+10	1	-1E+10	1	-1E+10	1	-1E+10	1	-1E+10	1	-1E+10	1
4902549	121	C	12/21/2023	13:05	-132.943	47.685	0	1085.50	0	3.0260	0	34.3850	0	27.399	0	1073.618	0	7.2	4	2.2	4	-1E+10	1	-1E+10	1	-1E+10	1	-1E+10	1	-1E+10	1	-1E+10	1
4902549	121	C	12/21/2023	13:05	-132.943	47.685	0	1095.50	0	3.0100	0	34.3870	0	27.402	0	1083.482	0	7.3	4	2.2	4	-1E+10	1	-1E+10	1	-1E+10	1	-1E+10	1	-1E+10	1	-1E+10	1
4902549	121	C	12/21/2023	13:05	-132.943	47.685	0	1105.80	0	2.9900	0	34.3910	0	27.407	0	1093.643	0	7.4	4	2.3	4	-1E+10	1	-1E+10	1	-1E+10	1	-1E+10	1	-1E+10	1	-1E+10	1
4902549	121	C	12/21/2023	13:05	-132.943	47.685	0	1115.70	0	2.9680	0	34.3960	0	27.413	0	1103.408	0	7.5	4	2.3	4	-1E+10	1	-1E+10	1	-1E+10	1	-1E+10	1	-1E+10	1	-1E+10	1
4902549	121	C	12/21/2023	13:05	-132.943	47.685	0	1125.80	0	2.9480	0	34.4000	0	27.418	0	1113.370	0	7.6	4	2.3	4	-1E+10	1	-1E+10	1	-1E+10	1	-1E+10	1	-1E+10	1	-1E+10	1
4902549	121	C	12/21/2023	13:05	-132.943	47.685	0	1135.70	0	2.9300	0	34.4040	0	27.423	0	1123.134	0	7.6	4	2.4	4	-1E+10	1	-1E+10	1	-1E+10	1	-1E+10	1	-1E+10	1	-1E+10	1
4902549	121	C	12/21/2023	13:05	-132.943	47.685	0	1145.00	0	2.9220	0	34.4050	0	27.424	0	1132.306	0	7.8	4	2.4	4	-1E+10	1	-1E+10	1	-1E+10	1	-1E+10	1	-1E+10	1	-1E+10	1
4902549	121	C	12/21/2023	13:05	-132.943	47.685	0	1155.10	0	2.9010	0	34.4090	0	27.429	0	1142.266	0	7.9	4	2.4	4	-1E+10	1	-1E+10	1	-1E+10	1	-1E+10	1	-1E+10	1	-1E+10	1
4902549	121	C	12/21/2023	13:05	-132.943	47.685	0	1165.20	0	2.8860	0	34.4120	0	27.433	0	1152.227	0	8.0	4	2.5	4	-1E+10	1	-1E+10	1	-1E+10	1	-1E+10	1	-1E+10	1	-1E+10	1
4902549	121	C	12/21/2023	13:05	-132.943	47.685	0	1175.30	0	2.8700	0	34.4140	0	27.436	0	1162.186	0	8.2	4	2.5	4	-1E+10	1	-1E+10	1	-1E+10	1	-1E+10	1	-1E+10	1	-1E+10	1
4902549	121	C	12/21/2023	13:05	-132.943	47.685	0	1185.50	0	2.8540	0	34.4170	0	27.440	0	1172.244	0	8.3	4	2.6	4	-1E+10	1	-1E+10	1	-1E+10	1	-1E+10	1	-1E+10	1	-1E+10	1
4902549	121	C	12/21/2023	13:05	-132.943	47.685	0	1195.50	0	2.8370	0	34.4200	0	27.444	0	1182.104	0	8.5	4	2.6	4	-1E+10	1	-1E+10	1	-1E+10	1	-1E+10	1	-1E+10	1	-1E+10	1
4902549	121	C	12/21/2023	13:05	-132.943	47.685	0	1205.40	0	2.8240	0	34.4230	0	27.448	0	1191.865	0	8.7	4	2.7	4	-1E+10	1	-1E+10	1	-1E+10	1	-1E+10	1	-1E+10	1	-1E+10	1
4902549	121	C	12/21/2023	13:05	-132.943	47.685	0	1215.40	0	2.8090	0	34.4260	0	27.451	0	1201.724	0	8.8	4	2.7	4	-1E+10	1	-1E+10	1	-1E+10	1	-1E+10	1	-1E+10	1	-1E+10	1
4902549	121	C	12/21/2023	13:05	-132.943	47.685	0	1225.60	0	2.7940	0	34.4300	0	27.456	0	1211.780	0	9.1	4	2.8	4	-1E+10	1	-1E+10	1	-1E+10	1	-1E+10	1	-1E+10	1	-1E+10	1
4902549	121	C	12/21/2023	13:05	-132.943	47.685	0	1235.50	0	2.7810	0	34.4330	0	27.460	0	1221.540	0	9.4	4	2.9	4	-1E+10	1	-1E+10	1	-1E+10	1	-1E+10	1	-1E+10	1	-1E+10	1
4902549	121	C	12/21/2023	13:05	-132.943	47.685	0	1245.50	0	2.7620	0	34.4370	0	27.464	0	1231.398	0	9.7	4	3.0	4	-1E+10	1	-1E+10	1	-1E+10	1	-1E+10	1	-1E+10	1	-1E+10	1
4902549	121	C	12/21/2023	13:05	-132.943	47.685	0	1255.40	0	2.7420	0	34.4410	0	27.469	0	1241.156	0	9.8	4	3.0	4	-1E+10	1	-1E+10	1	-1E+10	1	-1E+10	1	-1E+10	1	-1E+10	1
4902549	121	C	12/21/2023	13:05	-132.943	47.685	0	1265.60	0	2.7400	0	34.4420	0	27.471	0	1251.210	0	10.0	4	3.1	4	-1E+10	1	-1E+10	1	-1E+10	1	-1E+10	1	-1E+10	1	-1E+10	1
4902549	121	C	12/21/2023	13:05	-132.943	47.685	0	1275.80	0	2.7290	0	34.4440	0	27.473	0	1261.264	0	10.2	4	3.1	4	-1E+10	1	-1E+10	1	-1E+10	1	-1E+10	1	-1E+10	1	-1E+10	1
4902549	121	C	12/21/2023	13:05	-132.943	47.685	0	1285.50	0	2.7210	0	34.4450	0	27.475	0	1270.824	0	10.4	4	3.2	4	-1E+10	1	-1E+10	1	-1E+10	1	-1E+10	1	-1E+10	1	-1E+10	1
4902549	121	C	12/21/2023	13:05	-132.943	47.685	0	1295.10	0	2.7050	0	34.4480	0	27.479	0	1280.285	0	10.8	4	3.3	4	-1E+10	1	-1E+10	1	-1E+10	1	-1E+10	1	-1E+10	1	-1E+10	1
4902549	121	C	12/21/2023	13:05	-132.943	47.685	0	1305.30	0	2.6900	0	34.4520	0	27.483	0	1290.337	0	11.1	4	3.4	4	-1E+10	1	-1E+10	1	-1E+10	1	-1E+10	1	-1E+10	1	-1E+10	1
4902549	121	C	12/21/2023	13:05	-132.943	47.685	0	1315.40	0	2.6790	0	34.4550	0	27.486	0	1300.290	0	11.3	4	3.5	4	-1E+10	1	-1E+10	1	-1E+10	1	-1E+10	1	-1E+10	1	-1E+10	1
4902549	121	C	12/21/2023	13:05	-132.943	47.685	0	1325.10	0	2.6740	0	34.4560	0	27.488	0	1309.849	0	11.6	4	3.5	4	-1E+10	1	-1E+10	1	-1E+10	1	-1E+10	1	-1E+10	1	-1E+10	1
4902549	121	C	12/21/2023	13:05	-132.943	47.685	0	1335.30	0	2.6620	0	34.4590	0	27.491	0	1319.899	0	11.9	4	3.7	4	-1E+10	1	-1E+10	1	-1E+10	1	-1E+10	1	-1E+10	1	-1E+10	1
4902549	121	C	12/21/2023	13:05	-132.943	47.685	0	1345.60	0	2.6490	0	34.4610	0	27.494	0	1330.048	0	12.3	4	3.8	4	-1E+10	1	-1E+10	1	-1E+10	1	-1E+10	1	-1E+10	1	-1E+10	1
4902549	121	C	12/21/2023	13:05	-132.943	47.685	0	1355.60	0	2.6340	0	34.4640	0	27.498	0	1339.901	0	12.7	4	3.9	4	-1E+10	1	-1E+10	1	-1E+10	1	-1E+10	1	-1E+10	1	-1E+10	1
4902549	121	C	12/21/2023	13:05	-132.943	47.685	0	1365.70	0	2.6210	0	34.4670	0	27.501	0	1349.851	0	13.1	4	4.0	4	-1E+10	1	-1E+10	1	-1E+10	1	-1E+10	1	-1E+10	1	-1E+10	1
4902549	121	C	12/21/2023	13:05	-132.943	47.685	0	1375.50	0	2.6080	0	34.4700	0	27.505	0	1359.506	0	13.6	4	4.2	4	-1E+10	1	-1E+10	1	-1E+10	1	-1E+10	1	-1E+10	1	-1E+10	1
4902549	121	C	12/21/2023	13:05	-132.943	47.685	0	1385.10	0	2.5910	0	34.4730	0	27.509	0	1368.963	0	14.0	4	4.3	4	-1E+10	1	-1E+10	1	-1E+10	1	-1E+10	1	-1E+10	1	-1E+10	1
4902549	121	C	12/21/2023	13:05	-132.943	47.685	0	1395.20	0	2.5750	0	34.4750	0	27.512	0	1378.913	0	14.5	4	4.4	4	-1E+10	1	-1E+10	1	-1E+10	1	-1E+10	1	-1E+10	1	-1E+10	1
4902549	121	C	12/21/2023	13:05	-132.943	47.685	0	1405.60	0	2.5610	0	34.4780	0	27.515	0	1389.157	0	14.9	4	4.5	4	-1E+10	1	-1E+10	1	-1E+10	1	-1E+10	1	-1E+10	1	-1E+10	1
4902549	121	C	12/21/2023	13:05	-132.943	47.685	0	1415.60	0	2.5470	0	34.4790	0	27.517	0	1399.007	0	15.3	4	4.7	4	-1E+10	1	-1E+10	1	-1E+10	1	-1E+10	1	-1E+10	1	-1E+10	1
4902549	121	C	12/21/2023	13:05	-132.943	47.685	0	1425.40	0	2.5310	0	34.4820	0	27.521	0	1408.660	0	15.9	4	4.9	4	-1E+10	1	-1E+10	1	-1E+10	1	-1E+10	1	-1E+10	1	-1E+10	1
4902549	121	C	12/21/2023	13:05	-132.943	47.685	0	1435.30	0	2.5090	0	34.4850	0	27.526	0	1418.410	0	16.4	4	5.0	4	-1E+10	1	-1E+10	1	-1E+10	1	-1E+10	1	-1E+10	1	-1E+10	1
4902549	121	C	12/21/2023	13:05	-132.943	47.685	0	1445.30	0	2.4940	0	34.4880	0	27.529	0	1428.259	0	16.9	4	5.1	4	-1E+10	1	-1E+10	1	-1E+10	1	-1E+10	1	-1E+10	1	-1E+10	1
4902549	121	C	12/21/2023	13:05	-132.943	47.685	0	1455.40	0	2.4790	0	34.4900	0	27.532	0	1438.205	0	17.4	4	5.3	4	-1E+10	1	-1E+10	1	-1E+10	1	-1E+10	1	-1E+10	1	-1E+10	1
4902549	121	C	12/21/2023	13:05	-132.943	47.685	0	1465.20	0	2.4610	0	34.4920	0	27.535	0	1447.856	0	17.9	4	5.5	4	-1E+10	1	-1E+10	1	-1E+10	1	-1E+10	1	-1E+10	1	-1E+10	1
4902549	121	C	12/21/2023	13:05	-132.943	47.685	0	1475.30	0	2.4420	0	34.4950	0	27.539	0	1457.801	0	18.4	4	5.6	4	-1E+10	1	-1E+10	1	-1E+10	1	-1E+10	1	-1E+10	1	-1E+10	1
4902549	121	C	12/21/2023	13:05	-132.943	47.685	0	1485.30	0	2.4330	0	34.4960	0	27.541	0	1467.648	0	18.9	4	5.7	4	-1E+10	1	-1E+10	1	-1E+10	1	-1E+10	1	-1E+10	1	-1E+10	1
4902549	121	C	12/21/2023	13:05	-132.943	47.685	0	1495.20	0	2.4230	0	34.4980	0	27.543	0	1477.396	0	19.4	4	5.9	4	-1E+10	1	-1E+10	1	-1E+10	1	-1E+10	1	-1E+10	1	-1E+10	1
4902549	121	C	12/21/2023	13:05	-132.943	47.685	0	1505.20	0	2.4110	0	34.5000	0	27.546	0	1487.241	0	19.9	4	6.1	4	-1E+10	1	-1E+10	1	-1E+10	1	-1E+10	1	-1E+10	1	-1E+10	1
4902549	121	C	12/21/2023	13:05	-132.943	47.685	0	1515.40	0	2.3940	0	34.5030	0	27.550	0	1497.284	0	20.6	4	6.3	4	-1E+10	1	-1E+10	1	-1E+10	1	-1E+10	1	-1E+10	1	-1E+10	1
4902549	121	C	12/21/2023	13:05	-132.943	47.685	0	1525.40	0	2.3790	0	34.5050	0	27.553	0	1507.129	0	21.3	4	6.5	4	-1E+10	1	-1E+10	1	-1E+10	1	-1E+10	1	-1E+10	1	-1E+10	1
4902549	121	C	12/21/2023	13:05	-132.943	47.685	0	1535.30	0	2.3620	0	34.5080	0	27.557	0	1516.875	0	21.9	4	6.7	4	-1E+10	1	-1E+10	1	-1E+10	1	-1E+10	1	-1E+10	1	-1E+10	1
4902549	121	C	12/21/2023	13:05	-132.943	47.685	0	1545.40	0	2.3520	0	34.5100	0	27.559	0	1526.817	0	22.4	4	6.8	4	-1E+10	1	-1E+10	1	-1E+10	1	-1E+10	1	-1E+10	1	-1E+10	1
4902549	121	C	12/21/2023	13:05	-132.943	47.685	0	1555.30	0	2.3420	0	34.5120	0	27.562	0	1536.562	0	22.8	4	6.9	4	-1E+10	1	-1E+10	1	-1E+10	1	-1E+10	1	-1E+10	1	-1E+10	1
4902549	121	C	12/21/2023	13:05	-132.943	47.685	0	1565.50	0	2.3330	0	34.5130	0	27.563	0	1546.602	0	23.3	4	7.1	4	-1E+10	1	-1E+10	1	-1E+10	1	-1E+10	1	-1E+10	1	-1E+10	1
4902549	121	C	12/21/2023	13:05	-132.943	47.685	0	1575.40	0	2.3260	0	34.5150	0	27.565	0	1556.346	0	23.8	4	7.2	4	-1E+10	1	-1E+10	1	-1E+10	1	-1E+10	1	-1E+10	1	-1E+10	1
4902549	121	C	12/21/2023	13:05	-132.943	47.685	0	1585.50	0	2.3170	0	34.5160	0	27.567	0	1566.286	0	24.5	4	7.4	4	-1E+10	1	-1E+10	1	-1E+10	1	-1E+10	1	-1E+10	1	-1E+10	1
4902549	121	C	12/21/2023	13:05	-132.943	47.685	0	1595.50	0	2.3020	0	34.5190	0	27.571	0	1576.128	0	25.1	4	7.6	4	-1E+10	1	-1E+10	1	-1E+10	1	-1E+10	1	-1E+10	1	-1E+10	1
4902549	121	C	12/21/2023	13:05	-132.943	47.685	0	1605.40	0	2.2920	0	34.5210	0	27.573	0	1585.871	0	25.7	4	7.8	4	-1E+10	1	-1E+10	1	-1E+10	1	-1E+10	1	-1E+10	1	-1E+10	1
4902549	121	C	12/21/2023	13:05	-132.943	47.685	0	1615.30	0	2.2840	0	34.5220	0	27.575	0	1595.613	0	26.2	4	8.0	4	-1E+10	1	-1E+10	1	-1E+10	1	-1E+10	1	-1E+10	1	-1E+10	1
4902549	121	C	12/21/2023	13:05	-132.943	47.685	0	1625.10	0	2.2730	0	34.5240	0	27.577	0	1605.256	0	26.9	4	8.2	4	-1E+10	1	-1E+10	1	-1E+10	1	-1E+10	1	-1E+10	1	-1E+10	1
4902549	121	C	12/21/2023	13:05	-132.943	47.685	0	1635.30	0	2.2580	0	34.5270	0	27.581	0	1615.293	0	27.8	4	8.4	4	-1E+10	1	-1E+10	1	-1E+10	1	-1E+10	1	-1E+10	1	-1E+10	1
4902549	121	C	12/21/2023	13:05	-132.943	47.685	0	1645.20	0	2.2410	0	34.5300	0	27.585	0	1625.034	0	28.5	4	8.7	4	-1E+10	1	-1E+10	1	-1E+10	1	-1E+10	1	-1E+10	1	-1E+10	1
4902549	121	C	12/21/2023	13:05	-132.943	47.685	0	1655.00	0	2.2320	0	34.5310	0	27.586	0	1634.676	0	29.1	4	8.8	4	-1E+10	1	-1E+10	1	-1E+10	1	-1E+10	1	-1E+10	1	-1E+10	1
4902549	121	C	12/21/2023	13:05	-132.943	47.685	0	1665.10	0	2.2250	0	34.5330	0	27.589	0	1644.613	0	30.1	4	9.1	4	-1E+10	1	-1E+10	1	-1E+10	1	-1E+10	1	-1E+10	1	-1E+10	1
4902549	121	C	12/21/2023	13:05	-132.943	47.685	0	1675.20	0	2.2170	0	34.5360	0	27.592	0	1654.549	0	30.9	4	9.4	4	-1E+10	1	-1E+10	1	-1E+10	1	-1E+10	1	-1E+10	1	-1E+10	1
4902549	121	C	12/21/2023	13:05	-132.943	47.685	0	1685.40	0	2.1950	0	34.5380	0	27.595	0	1664.583	0	31.7	4	9.6	4	-1E+10	1	-1E+10	1	-1E+10	1	-1E+10	1	-1E+10	1	-1E+10	1
4902549	121	C	12/21/2023	13:05	-132.943	47.685	0	1695.60	0	2.1890	0	34.5400	0	27.597	0	1674.617	0	32.3	4	9.8	4	-1E+10	1	-1E+10	1	-1E+10	1	-1E+10	1	-1E+10	1	-1E+10	1
4902549	121	C	12/21/2023	13:05	-132.943	47.685	0	1705.50	0	2.1810	0	34.5420	0	27.599	0	1684.355	0	32.7	4	9.9	4	-1E+10	1	-1E+10	1	-1E+10	1	-1E+10	1	-1E+10	1	-1E+10	1
4902549	121	C	12/21/2023	13:05	-132.943	47.685	0	1715.40	0	2.1690	0	34.5430	0	27.601	0	1694.093	0	33.3	4	10.1	4	-1E+10	1	-1E+10	1	-1E+10	1	-1E+10	1	-1E+10	1	-1E+10	1
4902549	121	C	12/21/2023	13:05	-132.943	47.685	0	1725.40	0	2.1590	0	34.5450	0	27.604	0	1703.929	0	34.1	4	10.3	4	-1E+10	1	-1E+10	1	-1E+10	1	-1E+10	1	-1E+10	1	-1E+10	1
4902549	121	C	12/21/2023	13:05	-132.943	47.685	0	1735.40	0	2.1440	0	34.5460	0	27.606	0	1713.764	0	34.8	4	10.5	4	-1E+10	1	-1E+10	1	-1E+10	1	-1E+10	1	-1E+10	1	-1E+10	1
4902549	121	C	12/21/2023	13:05	-132.943	47.685	0	1745.50	0	2.1320	0	34.5490	0	27.609	0	1723.697	0	35.8	4	10.8	4	-1E+10	1	-1E+10	1	-1E+10	1	-1E+10	1	-1E+10	1	-1E+10	1
4902549	121	C	12/21/2023	13:05	-132.943	47.685	0	1755.50	0	2.1200	0	34.5510	0	27.612	0	1733.531	0	36.7	4	11.1	4	-1E+10	1	-1E+10	1	-1E+10	1	-1E+10	1	-1E+10	1	-1E+10	1
4902549	121	C	12/21/2023	13:05	-132.943	47.685	0	1765.50	0	2.1130	0	34.5530	0	27.614	0	1743.365	0	37.5	4	11.3	4	-1E+10	1	-1E+10	1	-1E+10	1	-1E+10	1	-1E+10	1	-1E+10	1
4902549	121	C	12/21/2023	13:05	-132.943	47.685	0	1775.40	0	2.1050	0	34.5550	0	27.616	0	1753.100	0	38.2	4	11.5	4	-1E+10	1	-1E+10	1	-1E+10	1	-1E+10	1	-1E+10	1	-1E+10	1
4902549	121	C	12/21/2023	13:05	-132.943	47.685	0	1785.50	0	2.0960	0	34.5570	0	27.619	0	1763.031	0	38.7	4	11.7	4	-1E+10	1	-1E+10	1	-1E+10	1	-1E+10	1	-1E+10	1	-1E+10	1
4902549	121	C	12/21/2023	13:05	-132.943	47.685	0	1795.20	0	2.0880	0	34.5580	0	27.620	0	1772.569	0	39.3	4	11.9	4	-1E+10	1	-1E+10	1	-1E+10	1	-1E+10	1	-1E+10	1	-1E+10	1
4902549	121	C	12/21/2023	13:05	-132.943	47.685	0	1805.20	0	2.0830	0	34.5590	0	27.621	0	1782.401	0	39.9	4	12.1	4	-1E+10	1	-1E+10	1	-1E+10	1	-1E+10	1	-1E+10	1	-1E+10	1
4902549	121	C	12/21/2023	13:05	-132.943	47.685	0	1815.20	0	2.0720	0	34.5610	0	27.624	0	1792.232	0	40.8	4	12.3	4	-1E+10	1	-1E+10	1	-1E+10	1	-1E+10	1	-1E+10	1	-1E+10	1
4902549	121	C	12/21/2023	13:05	-132.943	47.685	0	1825.40	0	2.0550	0	34.5640	0	27.628	0	1802.260	0	41.6	4	12.6	4	-1E+10	1	-1E+10	1	-1E+10	1	-1E+10	1	-1E+10	1	-1E+10	1
4902549	121	C	12/21/2023	13:05	-132.943	47.685	0	1835.80	0	2.0500	0	34.5650	0	27.629	0	1812.484	0	42.3	4	12.8	4	-1E+10	1	-1E+10	1	-1E+10	1	-1E+10	1	-1E+10	1	-1E+10	1
4902549	121	C	12/21/2023	13:05	-132.943	47.685	0	1845.70	0	2.0390	0	34.5660	0	27.631	0	1822.216	0	43.1	4	13.0	4	-1E+10	1	-1E+10	1	-1E+10	1	-1E+10	1	-1E+10	1	-1E+10	1
4902549	121	C	12/21/2023	13:05	-132.943	47.685	0	1855.40	0	2.0250	0	34.5690	0	27.634	0	1831.751	0	44.0	4	13.3	4	-1E+10	1	-1E+10	1	-1E+10	1	-1E+10	1	-1E+10	1	-1E+10	1
4902549	121	C	12/21/2023	13:05	-132.943	47.685	0	1865.50	0	2.0140	0	34.5710	0	27.637	0	1841.678	0	44.9	4	13.5	4	-1E+10	1	-1E+10	1	-1E+10	1	-1E+10	1	-1E+10	1	-1E+10	1
4902549	121	C	12/21/2023	13:05	-132.943	47.685	0	1875.80	0	2.0070	0	34.5720	0	27.638	0	1851.802	0	45.5	4	13.7	4	-1E+10	1	-1E+10	1	-1E+10	1	-1E+10	1	-1E+10	1	-1E+10	1
4902549	121	C	12/21/2023	13:05	-132.943	47.685	0	1885.70	0	1.9990	0	34.5730	0	27.640	0	1861.532	0	46.2	4	13.9	4	-1E+10	1	-1E+10	1	-1E+10	1	-1E+10	1	-1E+10	1	-1E+10	1
4902549	121	C	12/21/2023	13:05	-132.943	47.685	0	1895.60	0	1.9910	0	34.5750	0	27.642	0	1871.261	0	46.8	4	14.1	4	-1E+10	1	-1E+10	1	-1E+10	1	-1E+10	1	-1E+10	1	-1E+10	1
4902549	121	C	12/21/2023	13:05	-132.943	47.685	0	1905.70	0	1.9830	0	34.5760	0	27.643	0	1881.187	0	47.6	4	14.3	4	-1E+10	1	-1E+10	1	-1E+10	1	-1E+10	1	-1E+10	1	-1E+10	1
4902549	121	C	12/21/2023	13:05	-132.943	47.685	0	1915.80	0	1.9740	0	34.5780	0	27.646	0	1891.112	0	48.4	4	14.6	4	-1E+10	1	-1E+10	1	-1E+10	1	-1E+10	1	-1E+10	1	-1E+10	1
4902549	121	C	12/21/2023	13:05	-132.943	47.685	0	1925.50	0	1.9690	0	34.5800	0	27.648	0	1900.644	0	48.8	4	14.7	4	-1E+10	1	-1E+10	1	-1E+10	1	-1E+10	1	-1E+10	1	-1E+10	1
4902549	121	C	12/21/2023	13:05	-132.943	47.685	0	1935.60	0	1.9650	0	34.5810	0	27.649	0	1910.568	0	49.1	4	14.8	4	-1E+10	1	-1E+10	1	-1E+10	1	-1E+10	1	-1E+10	1	-1E+10	1
4902549	121	C	12/21/2023	13:05	-132.943	47.685	0	1945.30	0	1.9640	0	34.5810	0	27.649	0	1920.099	0	49.5	4	14.9	4	-1E+10	1	-1E+10	1	-1E+10	1	-1E+10	1	-1E+10	1	-1E+10	1
4902549	121	C	12/21/2023	13:05	-132.943	47.685	0	1955.20	0	1.9560	0	34.5820	0	27.651	0	1929.826	0	50.2	4	15.1	4	-1E+10	1	-1E+10	1	-1E+10	1	-1E+10	1	-1E+10	1	-1E+10	1
4902549	121	C	12/21/2023	13:05	-132.943	47.685	0	1965.20	0	1.9510	0	34.5840	0	27.653	0	1939.651	0	51.0	4	15.4	4	-1E+10	1	-1E+10	1	-1E+10	1	-1E+10	1	-1E+10	1	-1E+10	1
4902549	121	C	12/21/2023	13:05	-132.943	47.685	0	1975.20	0	1.9440	0	34.5860	0	27.655	0	1949.475	0	51.7	4	15.6	4	-1E+10	1	-1E+10	1	-1E+10	1	-1E+10	1	-1E+10	1	-1E+10	1
4902549	121	C	12/21/2023	13:05	-132.943	47.685	0	1985.20	0	1.9380	0	34.5870	0	27.656	0	1959.299	0	52.1	4	15.7	4	-1E+10	1	-1E+10	1	-1E+10	1	-1E+10	1	-1E+10	1	-1E+10	1
4902549	121	C	12/21/2023	13:05	-132.943	47.685	0	1995.20	0	1.9350	0	34.5880	0	27.657	0	1969.122	0	52.4	4	15.8	4	-1E+10	1	-1E+10	1	-1E+10	1	-1E+10	1	-1E+10	1	-1E+10	1
4902549	121	C	12/21/2023	13:05	-132.943	47.685	0	2005.40	0	1.9310	0	34.5890	0	27.658	0	1979.142	0	52.8	4	15.9	4	-1E+10	1	-1E+10	1	-1E+10	1	-1E+10	1	-1E+10	1	-1E+10	1
4902549	121	C	12/21/2023	13:05	-132.943	47.685	0	2015.90	0	1.9240	0	34.5900	0	27.660	0	1989.455	0	53.4	4	16.1	4	-1E+10	1	-1E+10	1	-1E+10	1	-1E+10	1	-1E+10	1	-1E+10	1
4902549	121	C	12/21/2023	13:05	-132.943	47.685	0	2021.40	0	1.9190	0	34.5910	0	27.661	0	1994.857	0	53.5	4	16.1	4	-1E+10	1	-1E+10	1	-1E+10	1	-1E+10	1	-1E+10	1	-1E+10	1
4902549	121	C	12/21/2023	13:05	-132.943	47.685	0																										
4902549	122	C	12/31/2023	18:12	-133.015	47.814	0	0.70	0	9.9010	0	32.3190	0	24.876	0	0.694	0	258.9	4	92.3	4	-1E+10	1	-1E+10	1	-1E+10	1	-1E+10	1	-1E+10	1	-1E+10	1
4902549	122	C	12/31/2023	18:12	-133.015	47.814	0	2.00	0	9.9010	0	32.3190	0	24.876	0	1.983	0	258.8	4	92.3	4	-1E+10	1	-1E+10	1	-1E+10	1	-1E+10	1	-1E+10	1	-1E+10	1
4902549	122	C	12/31/2023	18:12	-133.015	47.814	0	3.00	0	9.9020	0	32.3180	0	24.875	0	2.975	0	-1e10	1	-1e10	1	-1E+10	1	-1E+10	1	-1E+10	1	-1E+10	1	-1E+10	1	-1E+10	1
4902549	122	C	12/31/2023	18:12	-133.015	47.814	0	3.10	0	9.9030	0	32.3220	0	24.878	0	3.074	0	258.8	4	92.2	4	-1E+10	1	-1E+10	1	-1E+10	1	-1E+10	1	-1E+10	1	-1E+10	1
4902549	122	C	12/31/2023	18:12	-133.015	47.814	0	3.60	0	9.9050	0	32.3210	0	24.877	0	3.570	0	-1e10	1	-1e10	1	-1E+10	1	-1E+10	1	-1E+10	1	-1E+10	1	-1E+10	1	-1E+10	1
4902549	122	C	12/31/2023	18:12	-133.015	47.814	0	4.10	0	9.9070	0	32.3200	0	24.876	0	4.066	0	258.6	4	92.2	4	-1E+10	1	-1E+10	1	-1E+10	1	-1E+10	1	-1E+10	1	-1E+10	1
4902549	122	C	12/31/2023	18:12	-133.015	47.814	0	4.50	0	9.9070	0	32.3200	0	24.876	0	4.462	0	-1e10	1	-1e10	1	-1E+10	1	-1E+10	1	-1E+10	1	-1E+10	1	-1E+10	1	-1E+10	1
4902549	122	C	12/31/2023	18:12	-133.015	47.814	0	5.10	0	9.9070	0	32.3200	0	24.876	0	5.057	0	258.6	4	92.2	4	-1E+10	1	-1E+10	1	-1E+10	1	-1E+10	1	-1E+10	1	-1E+10	1
4902549	122	C	12/31/2023	18:12	-133.015	47.814	0	6.10	0	9.9070	0	32.3200	0	24.876	0	6.049	0	258.6	4	92.2	4	-1E+10	1	-1E+10	1	-1E+10	1	-1E+10	1	-1E+10	1	-1E+10	1
4902549	122	C	12/31/2023	18:12	-133.015	47.814	0	7.10	0	9.9070	0	32.3200	0	24.876	0	7.040	0	258.5	4	92.2	4	-1E+10	1	-1E+10	1	-1E+10	1	-1E+10	1	-1E+10	1	-1E+10	1
4902549	122	C	12/31/2023	18:12	-133.015	47.814	0	8.10	0	9.9080	0	32.3200	0	24.876	0	8.032	0	258.5	4	92.1	4	-1E+10	1	-1E+10	1	-1E+10	1	-1E+10	1	-1E+10	1	-1E+10	1
4902549	122	C	12/31/2023	18:12	-133.015	47.814	0	9.00	0	9.9090	0	32.3200	0	24.875	0	8.924	0	258.4	4	92.1	4	-1E+10	1	-1E+10	1	-1E+10	1	-1E+10	1	-1E+10	1	-1E+10	1
4902549	122	C	12/31/2023	18:12	-133.015	47.814	0	10.00	0	9.9080	0	32.3200	0	24.876	0	9.916	0	258.4	4	92.1	4	-1E+10	1	-1E+10	1	-1E+10	1	-1E+10	1	-1E+10	1	-1E+10	1
4902549	122	C	12/31/2023	18:12	-133.015	47.814	0	10.90	0	9.9080	0	32.3200	0	24.876	0	10.808	0	258.4	4	92.1	4	-1E+10	1	-1E+10	1	-1E+10	1	-1E+10	1	-1E+10	1	-1E+10	1
4902549	122	C	12/31/2023	18:12	-133.015	47.814	0	12.00	0	9.9090	0	32.3210	0	24.876	0	11.899	0	258.4	4	92.1	4	-1E+10	1	-1E+10	1	-1E+10	1	-1E+10	1	-1E+10	1	-1E+10	1
4902549	122	C	12/31/2023	18:12	-133.015	47.814	0	13.10	0	9.9100	0	32.3200	0	24.875	0	12.990	0	258.4	4	92.1	4	-1E+10	1	-1E+10	1	-1E+10	1	-1E+10	1	-1E+10	1	-1E+10	1
4902549	122	C	12/31/2023	18:12	-133.015	47.814	0	13.80	0	9.9090	0	32.3210	0	24.876	0	13.684	0	258.3	4	92.1	4	-1E+10	1	-1E+10	1	-1E+10	1	-1E+10	1	-1E+10	1	-1E+10	1
4902549	122	C	12/31/2023	18:12	-133.015	47.814	0	14.90	0	9.9090	0	32.3210	0	24.876	0	14.775	0	258.4	4	92.1	4	-1E+10	1	-1E+10	1	-1E+10	1	-1E+10	1	-1E+10	1	-1E+10	1
4902549	122	C	12/31/2023	18:12	-133.015	47.814	0	16.10	0	9.9110	0	32.3200	0	24.875	0	15.965	0	258.4	4	92.1	4	-1E+10	1	-1E+10	1	-1E+10	1	-1E+10	1	-1E+10	1	-1E+10	1
4902549	122	C	12/31/2023	18:12	-133.015	47.814	0	16.90	0	9.9100	0	32.3210	0	24.876	0	16.758	0	258.3	4	92.1	4	-1E+10	1	-1E+10	1	-1E+10	1	-1E+10	1	-1E+10	1	-1E+10	1
4902549	122	C	12/31/2023	18:12	-133.015	47.814	0	18.20	0	9.9110	0	32.3200	0	24.875	0	18.047	0	258.4	4	92.1	4	-1E+10	1	-1E+10	1	-1E+10	1	-1E+10	1	-1E+10	1	-1E+10	1
4902549	122	C	12/31/2023	18:12	-133.015	47.814	0	19.00	0	9.9110	0	32.3200	0	24.875	0	18.840	0	258.4	4	92.1	4	-1E+10	1	-1E+10	1	-1E+10	1	-1E+10	1	-1E+10	1	-1E+10	1
4902549	122	C	12/31/2023	18:12	-133.015	47.814	0	20.30	0	9.9110	0	32.3210	0	24.876	0	20.129	0	258.3	4	92.1	4	-1E+10	1	-1E+10	1	-1E+10	1	-1E+10	1	-1E+10	1	-1E+10	1
4902549	122	C	12/31/2023	18:12	-133.015	47.814	0	21.10	0	9.9110	0	32.3200	0	24.875	0	20.922	0	258.2	4	92.1	4	-1E+10	1	-1E+10	1	-1E+10	1	-1E+10	1	-1E+10	1	-1E+10	1
4902549	122	C	12/31/2023	18:12	-133.015	47.814	0	21.90	0	9.9110	0	32.3200	0	24.875	0	21.715	0	258.3	4	92.1	4	-1E+10	1	-1E+10	1	-1E+10	1	-1E+10	1	-1E+10	1	-1E+10	1
4902549	122	C	12/31/2023	18:12	-133.015	47.814	0	23.20	0	9.9110	0	32.3210	0	24.876	0	23.004	0	258.3	4	92.1	4	-1E+10	1	-1E+10	1	-1E+10	1	-1E+10	1	-1E+10	1	-1E+10	1
4902549	122	C	12/31/2023	18:12	-133.015	47.814	0	23.80	0	9.9110	0	32.3190	0	24.875	0	23.599	0	258.3	4	92.1	4	-1E+10	1	-1E+10	1	-1E+10	1	-1E+10	1	-1E+10	1	-1E+10	1
4902549	122	C	12/31/2023	18:12	-133.015	47.814	0	24.70	0	9.9110	0	32.3200	0	24.875	0	24.492	0	258.2	4	92.1	4	-1E+10	1	-1E+10	1	-1E+10	1	-1E+10	1	-1E+10	1	-1E+10	1
4902549	122	C	12/31/2023	18:12	-133.015	47.814	0	25.90	0	9.9110	0	32.3210	0	24.876	0	25.681	0	258.2	4	92.1	4	-1E+10	1	-1E+10	1	-1E+10	1	-1E+10	1	-1E+10	1	-1E+10	1
4902549	122	C	12/31/2023	18:12	-133.015	47.814	0	27.30	0	9.9120	0	32.3200	0	24.875	0	27.070	0	258.2	4	92.0	4	-1E+10	1	-1E+10	1	-1E+10	1	-1E+10	1	-1E+10	1	-1E+10	1
4902549	122	C	12/31/2023	18:12	-133.015	47.814	0	28.20	0	9.9110	0	32.3210	0	24.876	0	27.962	0	258.2	4	92.1	4	-1E+10	1	-1E+10	1	-1E+10	1	-1E+10	1	-1E+10	1	-1E+10	1
4902549	122	C	12/31/2023	18:12	-133.015	47.814	0	28.90	0	9.9110	0	32.3210	0	24.876	0	28.656	0	258.2	4	92.1	4	-1E+10	1	-1E+10	1	-1E+10	1	-1E+10	1	-1E+10	1	-1E+10	1
4902549	122	C	12/31/2023	18:12	-133.015	47.814	0	30.10	0	9.9120	0	32.3200	0	24.875	0	29.846	0	258.2	4	92.1	4	-1E+10	1	-1E+10	1	-1E+10	1	-1E+10	1	-1E+10	1	-1E+10	1
4902549	122	C	12/31/2023	18:12	-133.015	47.814	0	30.80	0	9.9120	0	32.3210	0	24.876	0	30.540	0	258.2	4	92.1	4	-1E+10	1	-1E+10	1	-1E+10	1	-1E+10	1	-1E+10	1	-1E+10	1
4902549	122	C	12/31/2023	18:12	-133.015	47.814	0	31.80	0	9.9120	0	32.3200	0	24.875	0	31.531	0	258.2	4	92.0	4	-1E+10	1	-1E+10	1	-1E+10	1	-1E+10	1	-1E+10	1	-1E+10	1
4902549	122	C	12/31/2023	18:12	-133.015	47.814	0	32.80	0	9.9120	0	32.3200	0	24.875	0	32.523	0	258.1	4	92.0	4	-1E+10	1	-1E+10	1	-1E+10	1	-1E+10	1	-1E+10	1	-1E+10	1
4902549	122	C	12/31/2023	18:12	-133.015	47.814	0	33.80	0	9.9120	0	32.3200	0	24.875	0	33.514	0	258.2	4	92.1	4	-1E+10	1	-1E+10	1	-1E+10	1	-1E+10	1	-1E+10	1	-1E+10	1
4902549	122	C	12/31/2023	18:12	-133.015	47.814	0	34.80	0	9.9120	0	32.3200	0	24.875	0	34.506	0	258.2	4	92.0	4	-1E+10	1	-1E+10	1	-1E+10	1	-1E+10	1	-1E+10	1	-1E+10	1
4902549	122	C	12/31/2023	18:12	-133.015	47.814	0	35.70	0	9.9120	0	32.3200	0	24.875	0	35.398	0	258.1	4	92.0	4	-1E+10	1	-1E+10	1	-1E+10	1	-1E+10	1	-1E+10	1	-1E+10	1
4902549	122	C	12/31/2023	18:12	-133.015	47.814	0	36.70	0	9.9120	0	32.3200	0	24.875	0	36.389	0	258.0	4	92.0	4	-1E+10	1	-1E+10	1	-1E+10	1	-1E+10	1	-1E+10	1	-1E+10	1
4902549	122	C	12/31/2023	18:12	-133.015	47.814	0	37.80	0	9.9120	0	32.3200	0	24.876	0	37.480	0	258.0	4	92.0	4	-1E+10	1	-1E+10	1	-1E+10	1	-1E+10	1	-1E+10	1	-1E+10	1
4902549	122	C	12/31/2023	18:12	-133.015	47.814	0	38.90	0	9.9120	0	32.3200	0	24.876	0	38.571	0	258.0	4	92.0	4	-1E+10	1	-1E+10	1	-1E+10	1	-1E+10	1	-1E+10	1	-1E+10	1
4902549	122	C	12/31/2023	18:12	-133.015	47.814	0	40.00	0	9.9130	0	32.3200	0	24.875	0	39.661	0	258.0	4	92.0	4	-1E+10	1	-1E+10	1	-1E+10	1	-1E+10	1	-1E+10	1	-1E+10	1
4902549	122	C	12/31/2023	18:12	-133.015	47.814	0	41.10	0	9.9130	0	32.3190	0	24.875	0	40.752	0	257.9	4	91.9	4	-1E+10	1	-1E+10	1	-1E+10	1	-1E+10	1	-1E+10	1	-1E+10	1
4902549	122	C	12/31/2023	18:12	-133.015	47.814	0	42.10	0	9.9120	0	32.3200	0	24.876	0	41.743	0	257.9	4	91.9	4	-1E+10	1	-1E+10	1	-1E+10	1	-1E+10	1	-1E+10	1	-1E+10	1
4902549	122	C	12/31/2023	18:12	-133.015	47.814	0	43.00	0	9.9130	0	32.3200	0	24.875	0	42.635	0	257.8	4	91.9	4	-1E+10	1	-1E+10	1	-1E+10	1	-1E+10	1	-1E+10	1	-1E+10	1
4902549	122	C	12/31/2023	18:12	-133.015	47.814	0	43.90	0	9.9140	0	32.3200	0	24.875	0	43.528	0	257.9	4	91.9	4	-1E+10	1	-1E+10	1	-1E+10	1	-1E+10	1	-1E+10	1	-1E+10	1
4902549	122	C	12/31/2023	18:12	-133.015	47.814	0	45.30	0	9.9140	0	32.3210	0	24.876	0	44.916	0	257.8	4	91.9	4	-1E+10	1	-1E+10	1	-1E+10	1	-1E+10	1	-1E+10	1	-1E+10	1
4902549	122	C	12/31/2023	18:12	-133.015	47.814	0	46.00	0	9.9140	0	32.3200	0	24.875	0	45.610	0	257.8	4	91.9	4	-1E+10	1	-1E+10	1	-1E+10	1	-1E+10	1	-1E+10	1	-1E+10	1
4902549	122	C	12/31/2023	18:12	-133.015	47.814	0	47.00	0	9.9140	0	32.3200	0	24.875	0	46.601	0	257.8	4	91.9	4	-1E+10	1	-1E+10	1	-1E+10	1	-1E+10	1	-1E+10	1	-1E+10	1
4902549	122	C	12/31/2023	18:12	-133.015	47.814	0	48.00	0	9.9140	0	32.3200	0	24.875	0	47.592	0	257.6	4	91.9	4	-1E+10	1	-1E+10	1	-1E+10	1	-1E+10	1	-1E+10	1	-1E+10	1
4902549	122	C	12/31/2023	18:12	-133.015	47.814	0	49.20	0	9.9140	0	32.3210	0	24.876	0	48.782	0	257.7	4	91.9	4	-1E+10	1	-1E+10	1	-1E+10	1	-1E+10	1	-1E+10	1	-1E+10	1
4902549	122	C	12/31/2023	18:12	-133.015	47.814	0	49.90	0	9.9140	0	32.3210	0	24.876	0	49.476	0	257.6	4	91.9	4	-1E+10	1	-1E+10	1	-1E+10	1	-1E+10	1	-1E+10	1	-1E+10	1
4902549	122	C	12/31/2023	18:12	-133.015	47.814	0	50.80	0	9.9140	0	32.3200	0	24.875	0	50.368	0	257.6	4	91.8	4	-1E+10	1	-1E+10	1	-1E+10	1	-1E+10	1	-1E+10	1	-1E+10	1
4902549	122	C	12/31/2023	18:12	-133.015	47.814	0	51.70	0	9.9140	0	32.3200	0	24.875	0	51.261	0	257.5	4	91.8	4	-1E+10	1	-1E+10	1	-1E+10	1	-1E+10	1	-1E+10	1	-1E+10	1
4902549	122	C	12/31/2023	18:12	-133.015	47.814	0	52.90	0	9.9140	0	32.3210	0	24.876	0	52.450	0	257.4	4	91.8	4	-1E+10	1	-1E+10	1	-1E+10	1	-1E+10	1	-1E+10	1	-1E+10	1
4902549	122	C	12/31/2023	18:12	-133.015	47.814	0	53.70	0	9.9140	0	32.3210	0	24.876	0	53.243	0	257.3	4	91.8	4	-1E+10	1	-1E+10	1	-1E+10	1	-1E+10	1	-1E+10	1	-1E+10	1
4902549	122	C	12/31/2023	18:12	-133.015	47.814	0	54.80	0	9.9130	0	32.3210	0	24.876	0	54.334	0	257.3	4	91.8	4	-1E+10	1	-1E+10	1	-1E+10	1	-1E+10	1	-1E+10	1	-1E+10	1
4902549	122	C	12/31/2023	18:12	-133.015	47.814	0	55.90	0	9.9140	0	32.3210	0	24.876	0	55.424	0	257.3	4	91.7	4	-1E+10	1	-1E+10	1	-1E+10	1	-1E+10	1	-1E+10	1	-1E+10	1
4902549	122	C	12/31/2023	18:12	-133.015	47.814	0	57.00	0	9.9140	0	32.3210	0	24.876	0	56.515	0	257.2	4	91.7	4	-1E+10	1	-1E+10	1	-1E+10	1	-1E+10	1	-1E+10	1	-1E+10	1
4902549	122	C	12/31/2023	18:12	-133.015	47.814	0	58.10	0	9.9140	0	32.3210	0	24.876	0	57.605	0	257.1	4	91.7	4	-1E+10	1	-1E+10	1	-1E+10	1	-1E+10	1	-1E+10	1	-1E+10	1
4902549	122	C	12/31/2023	18:12	-133.015	47.814	0	59.10	0	9.9140	0	32.3210	0	24.876	0	58.597	0	256.9	4	91.6	4	-1E+10	1	-1E+10	1	-1E+10	1	-1E+10	1	-1E+10	1	-1E+10	1
4902549	122	C	12/31/2023	18:12	-133.015	47.814	0	60.00	0	9.9140	0	32.3210	0	24.876	0	59.489	0	256.9	4	91.6	4	-1E+10	1	-1E+10	1	-1E+10	1	-1E+10	1	-1E+10	1	-1E+10	1
4902549	122	C	12/31/2023	18:12	-133.015	47.814	0	60.70	0	9.9140	0	32.3210	0	24.876	0	60.183	0	256.7	4	91.5	4	-1E+10	1	-1E+10	1	-1E+10	1	-1E+10	1	-1E+10	1	-1E+10	1
4902549	122	C	12/31/2023	18:12	-133.015	47.814	0	61.80	0	9.9140	0	32.3210	0	24.876	0	61.273	0	256.5	4	91.5	4	-1E+10	1	-1E+10	1	-1E+10	1	-1E+10	1	-1E+10	1	-1E+10	1
4902549	122	C	12/31/2023	18:12	-133.015	47.814	0	62.80	0	9.9130	0	32.3210	0	24.877	0	62.265	0	256.2	4	91.4	4	-1E+10	1	-1E+10	1	-1E+10	1	-1E+10	1	-1E+10	1	-1E+10	1
4902549	122	C	12/31/2023	18:12	-133.015	47.814	0	63.80	0	9.9090	0	32.3220	0	24.878	0	63.256	0	256.0	4	91.3	4	-1E+10	1	-1E+10	1	-1E+10	1	-1E+10	1	-1E+10	1	-1E+10	1
4902549	122	C	12/31/2023	18:12	-133.015	47.814	0	64.80	0	9.9100	0	32.3210	0	24.877	0	64.247	0	255.6	4	91.1	4	-1E+10	1	-1E+10	1	-1E+10	1	-1E+10	1	-1E+10	1	-1E+10	1
4902549	122	C	12/31/2023	18:12	-133.015	47.814	0	65.90	0	9.9030	0	32.3220	0	24.879	0	65.338	0	255.0	4	90.9	4	-1E+10	1	-1E+10	1	-1E+10	1	-1E+10	1	-1E+10	1	-1E+10	1
4902549	122	C	12/31/2023	18:12	-133.015	47.814	0	67.30	0	9.8720	0	32.3280	0	24.889	0	66.726	0	254.2	4	90.5	4	-1E+10	1	-1E+10	1	-1E+10	1	-1E+10	1	-1E+10	1	-1E+10	1
4902549	122	C	12/31/2023	18:12	-133.015	47.814	0	68.00	0	9.8680	0	32.3260	0	24.888	0	67.419	0	253.6	4	90.3	4	-1E+10	1	-1E+10	1	-1E+10	1	-1E+10	1	-1E+10	1	-1E+10	1
4902549	122	C	12/31/2023	18:12	-133.015	47.814	0	69.20	0	9.8040	0	32.3390	0	24.909	0	68.609	0	252.5	4	89.8	4	-1E+10	1	-1E+10	1	-1E+10	1	-1E+10	1	-1E+10	1	-1E+10	1
4902549	122	C	12/31/2023	18:12	-133.015	47.814	0	69.90	0	9.5840	0	32.3680	0	24.967	0	69.303	0	252.8	4	89.5	4	-1E+10	1	-1E+10	1	-1E+10	1	-1E+10	1	-1E+10	1	-1E+10	1
4902549	122	C	12/31/2023	18:12	-133.015	47.814	0	71.00	0	9.3080	0	32.4000	0	25.036	0	70.393	0	252.4	4	88.9	4	-1E+10	1	-1E+10	1	-1E+10	1	-1E+10	1	-1E+10	1	-1E+10	1
4902549	122	C	12/31/2023	18:12	-133.015	47.814	0	71.90	0	8.9520	0	32.4470	0	25.128	0	71.285	0	252.8	4	88.3	4	-1E+10	1	-1E+10	1	-1E+10	1	-1E+10	1	-1E+10	1	-1E+10	1
4902549	122	C	12/31/2023	18:12	-133.015	47.814	0	73.00	0	8.5720	0	32.4900	0	25.220	0	72.376	0	253.2	4	87.8	4	-1E+10	1	-1E+10	1	-1E+10	1	-1E+10	1	-1E+10	1	-1E+10	1
4902549	122	C	12/31/2023	18:12	-133.015	47.814	0	74.10	0	8.2530	0	32.5130	0	25.286	0	73.466	0	254.3	4	87.5	4	-1E+10	1	-1E+10	1	-1E+10	1	-1E+10	1	-1E+10	1	-1E+10	1
4902549	122	C	12/31/2023	18:12	-133.015	47.814	0	75.10	0	7.9610	0	32.5460	0	25.354	0	74.458	0	254.9	4	87.2	4	-1E+10	1	-1E+10	1	-1E+10	1	-1E+10	1	-1E+10	1	-1E+10	1
4902549	122	C	12/31/2023	18:12	-133.015	47.814	0	76.00	0	7.8790	0	32.5470	0	25.367	0	75.350	0	255.1	4	87.1	4	-1E+10	1	-1E+10	1	-1E+10	1	-1E+10	1	-1E+10	1	-1E+10	1
4902549	122	C	12/31/2023	18:12	-133.015	47.814	0	77.10	0	7.8390	0	32.5490	0	25.374	0	76.440	0	255.0	4	87.0	4	-1E+10	1	-1E+10	1	-1E+10	1	-1E+10	1	-1E+10	1	-1E+10	1
4902549	122	C	12/31/2023	18:12	-133.015	47.814	0	78.00	0	7.7320	0	32.5590	0	25.397	0	77.332	0	255.4	4	86.9	4	-1E+10	1	-1E+10	1	-1E+10	1	-1E+10	1	-1E+10	1	-1E+10	1
4902549	122	C	12/31/2023	18:12	-133.015	47.814	0	79.10	0	7.6880	0	32.5610	0	25.405	0	78.423	0	255.6	4	86.9	4	-1E+10	1	-1E+10	1	-1E+10	1	-1E+10	1	-1E+10	1	-1E+10	1
4902549	122	C	12/31/2023	18:12	-133.015	47.814	0	79.80	0	7.6790	0	32.5630	0	25.408	0	79.116	0	255.5	4	86.9	4	-1E+10	1	-1E+10	1	-1E+10	1	-1E+10	1	-1E+10	1	-1E+10	1
4902549	122	C	12/31/2023	18:12	-133.015	47.814	0	81.00	0	7.6710	0	32.5640	0	25.409	0	80.306	0	255.4	4	86.8	4	-1E+10	1	-1E+10	1	-1E+10	1	-1E+10	1	-1E+10	1	-1E+10	1
4902549	122	C	12/31/2023	18:12	-133.015	47.814	0	82.20	0	7.6510	0	32.5640	0	25.412	0	81.495	0	255.3	4	86.7	4	-1E+10	1	-1E+10	1	-1E+10	1	-1E+10	1	-1E+10	1	-1E+10	1
4902549	122	C	12/31/2023	18:12	-133.015	47.814	0	82.90	0	7.6390	0	32.5630	0	25.413	0	82.189	0	255.3	4	86.7	4	-1E+10	1	-1E+10	1	-1E+10	1	-1E+10	1	-1E+10	1	-1E+10	1
4902549	122	C	12/31/2023	18:12	-133.015	47.814	0	84.10	0	7.6290	0	32.5620	0	25.414	0	83.379	0	255.1	4	86.6	4	-1E+10	1	-1E+10	1	-1E+10	1	-1E+10	1	-1E+10	1	-1E+10	1
4902549	122	C	12/31/2023	18:12	-133.015	47.814	0	84.80	0	7.6200	0	32.5620	0	25.415	0	84.073	0	261.5	4	88.8	4	-1E+10	1	-1E+10	1	-1E+10	1	-1E+10	1	-1E+10	1	-1E+10	1
4902549	122	C	12/31/2023	18:12	-133.015	47.814	0	86.00	0	7.6180	0	32.5610	0	25.415	0	85.262	0	261.0	4	88.6	4	-1E+10	1	-1E+10	1	-1E+10	1	-1E+10	1	-1E+10	1	-1E+10	1
4902549	122	C	12/31/2023	18:12	-133.015	47.814	0	87.20	0	7.6150	0	32.5600	0	25.414	0	86.451	0	260.5	4	88.4	4	-1E+10	1	-1E+10	1	-1E+10	1	-1E+10	1	-1E+10	1	-1E+10	1
4902549	122	C	12/31/2023	18:12	-133.015	47.814	0	88.00	0	7.5450	0	32.5620	0	25.426	0	87.244	0	260.6	4	88.3	4	-1E+10	1	-1E+10	1	-1E+10	1	-1E+10	1	-1E+10	1	-1E+10	1
4902549	122	C	12/31/2023	18:12	-133.015	47.814	0	89.20	0	7.5110	0	32.5630	0	25.431	0	88.434	0	260.0	4	88.0	4	-1E+10	1	-1E+10	1	-1E+10	1	-1E+10	1	-1E+10	1	-1E+10	1
4902549	122	C	12/31/2023	18:12	-133.015	47.814	0	89.90	0	7.4940	0	32.5650	0	25.435	0	89.128	0	259.6	4	87.9	4	-1E+10	1	-1E+10	1	-1E+10	1	-1E+10	1	-1E+10	1	-1E+10	1
4902549	122	C	12/31/2023	18:12	-133.015	47.814	0	91.00	0	7.4800	0	32.5670	0	25.439	0	90.218	0	258.7	4	87.5	4	-1E+10	1	-1E+10	1	-1E+10	1	-1E+10	1	-1E+10	1	-1E+10	1
4902549	122	C	12/31/2023	18:12	-133.015	47.814	0	92.20	0	7.4790	0	32.5700	0	25.441	0	91.407	0	257.4	4	87.1	4	-1E+10	1	-1E+10	1	-1E+10	1	-1E+10	1	-1E+10	1	-1E+10	1
4902549	122	C	12/31/2023	18:12	-133.015	47.814	0	92.80	0	7.4650	0	32.5770	0	25.449	0	92.002	0	256.6	4	86.8	4	-1E+10	1	-1E+10	1	-1E+10	1	-1E+10	1	-1E+10	1	-1E+10	1
4902549	122	C	12/31/2023	18:12	-133.015	47.814	0	93.90	0	7.4020	0	32.5880	0	25.466	0	93.092	0	255.5	4	86.3	4	-1E+10	1	-1E+10	1	-1E+10	1	-1E+10	1	-1E+10	1	-1E+10	1
4902549	122	C	12/31/2023	18:12	-133.015	47.814	0	95.00	0	7.3490	0	32.6030	0	25.485	0	94.183	0	254.4	4	85.9	4	-1E+10	1	-1E+10	1	-1E+10	1	-1E+10	1	-1E+10	1	-1E+10	1
4902549	122	C	12/31/2023	18:12	-133.015	47.814	0	96.20	0	7.3420	0	32.6230	0	25.502	0	95.372	0	252.9	4	85.3	4	-1E+10	1	-1E+10	1	-1E+10	1	-1E+10	1	-1E+10	1	-1E+10	1
4902549	122	C	12/31/2023	18:12	-133.015	47.814	0	96.90	0	7.3340	0	32.6320	0	25.510	0	96.066	0	251.9	4	85.0	4	-1E+10	1	-1E+10	1	-1E+10	1	-1E+10	1	-1E+10	1	-1E+10	1
4902549	122	C	12/31/2023	18:12	-133.015	47.814	0	97.90	0	7.3260	0	32.6430	0	25.520	0	97.057	0	250.5	4	84.5	4	-1E+10	1	-1E+10	1	-1E+10	1	-1E+10	1	-1E+10	1	-1E+10	1
4902549	122	C	12/31/2023	18:12	-133.015	47.814	0	99.00	0	7.3120	0	32.6790	0	25.550	0	98.147	0	249.3	4	84.1	4	-1E+10	1	-1E+10	1	-1E+10	1	-1E+10	1	-1E+10	1	-1E+10	1
4902549	122	C	12/31/2023	18:12	-133.015	47.814	0	99.90	0	7.3020	0	32.7000	0	25.568	0	99.039	0	248.3	4	83.8	4	-1E+10	1	-1E+10	1	-1E+10	1	-1E+10	1	-1E+10	1	-1E+10	1
4902549	122	C	12/31/2023	18:12	-133.015	47.814	0	101.10	0	7.3190	0	32.7330	0	25.592	0	100.229	0	247.1	4	83.4	4	-1E+10	1	-1E+10	1	-1E+10	1	-1E+10	1	-1E+10	1	-1E+10	1
4902549	122	C	12/31/2023	18:12	-133.015	47.814	0	101.90	0	7.3180	0	32.7430	0	25.600	0	101.022	0	246.5	4	83.2	4	-1E+10	1	-1E+10	1	-1E+10	1	-1E+10	1	-1E+10	1	-1E+10	1
4902549	122	C	12/31/2023	18:12	-133.015	47.814	0	102.70	0	7.3110	0	32.7560	0	25.611	0	101.815	0	246.1	4	83.1	4	-1E+10	1	-1E+10	1	-1E+10	1	-1E+10	1	-1E+10	1	-1E+10	1
4902549	122	C	12/31/2023	18:12	-133.015	47.814	0	103.80	0	7.2960	0	32.7770	0	25.629	0	102.905	0	245.6	4	82.9	4	-1E+10	1	-1E+10	1	-1E+10	1	-1E+10	1	-1E+10	1	-1E+10	1
4902549	122	C	12/31/2023	18:12	-133.015	47.814	0	104.90	0	7.2880	0	32.7820	0	25.634	0	103.995	0	245.0	4	82.7	4	-1E+10	1	-1E+10	1	-1E+10	1	-1E+10	1	-1E+10	1	-1E+10	1
4902549	122	C	12/31/2023	18:12	-133.015	47.814	0	106.10	0	7.2790	0	32.7870	0	25.640	0	105.184	0	244.3	4	82.4	4	-1E+10	1	-1E+10	1	-1E+10	1	-1E+10	1	-1E+10	1	-1E+10	1
4902549	122	C	12/31/2023	18:12	-133.015	47.814	0	106.90	0	7.2660	0	32.7960	0	25.648	0	105.977	0	243.8	4	82.3	4	-1E+10	1	-1E+10	1	-1E+10	1	-1E+10	1	-1E+10	1	-1E+10	1
4902549	122	C	12/31/2023	18:12	-133.015	47.814	0	107.80	0	7.2590	0	32.8000	0	25.653	0	106.869	0	243.4	4	82.1	4	-1E+10	1	-1E+10	1	-1E+10	1	-1E+10	1	-1E+10	1	-1E+10	1
4902549	122	C	12/31/2023	18:12	-133.015	47.814	0	108.80	0	7.2450	0	32.8090	0	25.662	0	107.860	0	242.7	4	81.9	4	-1E+10	1	-1E+10	1	-1E+10	1	-1E+10	1	-1E+10	1	-1E+10	1
4902549	122	C	12/31/2023	18:12	-133.015	47.814	0	110.00	0	7.2430	0	32.8130	0	25.665	0	109.050	0	241.8	4	81.5	4	-1E+10	1	-1E+10	1	-1E+10	1	-1E+10	1	-1E+10	1	-1E+10	1
4902549	122	C	12/31/2023	18:12	-133.015	47.814	0	111.10	0	7.2420	0	32.8140	0	25.666	0	110.140	0	241.1	4	81.3	4	-1E+10	1	-1E+10	1	-1E+10	1	-1E+10	1	-1E+10	1	-1E+10	1
4902549	122	C	12/31/2023	18:12	-133.015	47.814	0	112.10	0	7.2420	0	32.8150	0	25.667	0	111.131	0	240.3	4	81.0	4	-1E+10	1	-1E+10	1	-1E+10	1	-1E+10	1	-1E+10	1	-1E+10	1
4902549	122	C	12/31/2023	18:12	-133.015	47.814	0	112.90	0	7.2410	0	32.8150	0	25.667	0	111.924	0	239.6	4	80.8	4	-1E+10	1	-1E+10	1	-1E+10	1	-1E+10	1	-1E+10	1	-1E+10	1
4902549	122	C	12/31/2023	18:12	-133.015	47.814	0	114.10	0	7.2380	0	32.8180	0	25.670	0	113.113	0	238.3	4	80.4	4	-1E+10	1	-1E+10	1	-1E+10	1	-1E+10	1	-1E+10	1	-1E+10	1
4902549	122	C	12/31/2023	18:12	-133.015	47.814	0	114.90	0	7.2310	0	32.8290	0	25.679	0	113.906	0	236.9	4	79.9	4	-1E+10	1	-1E+10	1	-1E+10	1	-1E+10	1	-1E+10	1	-1E+10	1
4902549	122	C	12/31/2023	18:12	-133.015	47.814	0	115.90	0	7.2340	0	32.8550	0	25.699	0	114.897	0	235.2	4	79.3	4	-1E+10	1	-1E+10	1	-1E+10	1	-1E+10	1	-1E+10	1	-1E+10	1
4902549	122	C	12/31/2023	18:12	-133.015	47.814	0	116.90	0	7.2450	0	32.8710	0	25.710	0	115.888	0	233.6	4	78.8	4	-1E+10	1	-1E+10	1	-1E+10	1	-1E+10	1	-1E+10	1	-1E+10	1
4902549	122	C	12/31/2023	18:12	-133.015	47.814	0	117.90	0	7.2240	0	32.9080	0	25.742	0	116.879	0	232.3	4	78.4	4	-1E+10	1	-1E+10	1	-1E+10	1	-1E+10	1	-1E+10	1	-1E+10	1
4902549	122	C	12/31/2023	18:12	-133.015	47.814	0	119.00	0	7.1590	0	32.9380	0	25.775	0	117.969	0	230.9	4	77.8	4	-1E+10	1	-1E+10	1	-1E+10	1	-1E+10	1	-1E+10	1	-1E+10	1
4902549	122	C	12/31/2023	18:12	-133.015	47.814	0	120.00	0	7.1190	0	32.9710	0	25.806	0	118.960	0	229.2	4	77.2	4	-1E+10	1	-1E+10	1	-1E+10	1	-1E+10	1	-1E+10	1	-1E+10	1
4902549	122	C	12/31/2023	18:12	-133.015	47.814	0	121.00	0	7.0990	0	33.0180	0	25.846	0	119.952	0	227.2	4	76.5	4	-1E+10	1	-1E+10	1	-1E+10	1	-1E+10	1	-1E+10	1	-1E+10	1
4902549	122	C	12/31/2023	18:12	-133.015	47.814	0	122.10	0	7.1040	0	33.0720	0	25.888	0	121.042	0	225.5	4	75.9	4	-1E+10	1	-1E+10	1	-1E+10	1	-1E+10	1	-1E+10	1	-1E+10	1
4902549	122	C	12/31/2023	18:12	-133.015	47.814	0	122.80	0	7.0820	0	33.1080	0	25.919	0	121.735	0	224.6	4	75.6	4	-1E+10	1	-1E+10	1	-1E+10	1	-1E+10	1	-1E+10	1	-1E+10	1
4902549	122	C	12/31/2023	18:12	-133.015	47.814	0	124.00	0	7.0420	0	33.1350	0	25.946	0	122.925	0	223.5	4	75.2	4	-1E+10	1	-1E+10	1	-1E+10	1	-1E+10	1	-1E+10	1	-1E+10	1
4902549	122	C	12/31/2023	18:12	-133.015	47.814	0	125.30	0	7.0110	0	33.1610	0	25.971	0	124.213	0	222.3	4	74.8	4	-1E+10	1	-1E+10	1	-1E+10	1	-1E+10	1	-1E+10	1	-1E+10	1
4902549	122	C	12/31/2023	18:12	-133.015	47.814	0	126.00	0	6.9920	0	33.1740	0	25.983	0	124.907	0	221.8	4	74.6	4	-1E+10	1	-1E+10	1	-1E+10	1	-1E+10	1	-1E+10	1	-1E+10	1
4902549	122	C	12/31/2023	18:12	-133.015	47.814	0	127.00	0	6.9790	0	33.1850	0	25.994	0	125.898	0	221.1	4	74.3	4	-1E+10	1	-1E+10	1	-1E+10	1	-1E+10	1	-1E+10	1	-1E+10	1
4902549	122	C	12/31/2023	18:12	-133.015	47.814	0	128.00	0	6.9600	0	33.2000	0	26.008	0	126.889	0	220.2	4	74.0	4	-1E+10	1	-1E+10	1	-1E+10	1	-1E+10	1	-1E+10	1	-1E+10	1
4902549	122	C	12/31/2023	18:12	-133.015	47.814	0	128.90	0	6.9380	0	33.2180	0	26.025	0	127.781	0	219.6	4	73.8	4	-1E+10	1	-1E+10	1	-1E+10	1	-1E+10	1	-1E+10	1	-1E+10	1
4902549	122	C	12/31/2023	18:12	-133.015	47.814	0	129.70	0	6.9130	0	33.2360	0	26.043	0	128.573	0	219.0	4	73.5	4	-1E+10	1	-1E+10	1	-1E+10	1	-1E+10	1	-1E+10	1	-1E+10	1
4902549	122	C	12/31/2023	18:12	-133.015	47.814	0	131.00	0	6.8940	0	33.2460	0	26.053	0	129.862	0	218.2	4	73.2	4	-1E+10	1	-1E+10	1	-1E+10	1	-1E+10	1	-1E+10	1	-1E+10	1
4902549	122	C	12/31/2023	18:12	-133.015	47.814	0	131.90	0	6.8750	0	33.2620	0	26.068	0	130.754	0	217.5	4	73.0	4	-1E+10	1	-1E+10	1	-1E+10	1	-1E+10	1	-1E+10	1	-1E+10	1
4902549	122	C	12/31/2023	18:12	-133.015	47.814	0	132.90	0	6.8650	0	33.2650	0	26.072	0	131.745	0	216.7	4	72.7	4	-1E+10	1	-1E+10	1	-1E+10	1	-1E+10	1	-1E+10	1	-1E+10	1
4902549	122	C	12/31/2023	18:12	-133.015	47.814	0	134.00	0	6.8450	0	33.2780	0	26.085	0	132.835	0	215.8	4	72.4	4	-1E+10	1	-1E+10	1	-1E+10	1	-1E+10	1	-1E+10	1	-1E+10	1
4902549	122	C	12/31/2023	18:12	-133.015	47.814	0	135.00	0	6.7980	0	33.3120	0	26.118	0	133.826	0	215.1	4	72.1	4	-1E+10	1	-1E+10	1	-1E+10	1	-1E+10	1	-1E+10	1	-1E+10	1
4902549	122	C	12/31/2023	18:12	-133.015	47.814	0	136.20	0	6.7820	0	33.3250	0	26.130	0	135.015	0	214.4	4	71.8	4	-1E+10	1	-1E+10	1	-1E+10	1	-1E+10	1	-1E+10	1	-1E+10	1
4902549	122	C	12/31/2023	18:12	-133.015	47.814	0	136.90	0	6.7530	0	33.3460	0	26.151	0	135.709	0	214.0	4	71.7	4	-1E+10	1	-1E+10	1	-1E+10	1	-1E+10	1	-1E+10	1	-1E+10	1
4902549	122	C	12/31/2023	18:12	-133.015	47.814	0	137.70	0	6.7410	0	33.3520	0	26.157	0	136.501	0	213.7	4	71.5	4	-1E+10	1	-1E+10	1	-1E+10	1	-1E+10	1	-1E+10	1	-1E+10	1
4902549	122	C	12/31/2023	18:12	-133.015	47.814	0	138.90	0	6.7140	0	33.3710	0	26.176	0	137.690	0	213.0	4	71.3	4	-1E+10	1	-1E+10	1	-1E+10	1	-1E+10	1	-1E+10	1	-1E+10	1
4902549	122	C	12/31/2023	18:12	-133.015	47.814	0	140.10	0	6.6890	0	33.3870	0	26.192	0	138.880	0	212.5	4	71.1	4	-1E+10	1	-1E+10	1	-1E+10	1	-1E+10	1	-1E+10	1	-1E+10	1
4902549	122	C	12/31/2023	18:12	-133.015	47.814	0	140.80	0	6.6830	0	33.3920	0	26.196	0	139.573	0	212.0	4	70.9	4	-1E+10	1	-1E+10	1	-1E+10	1	-1E+10	1	-1E+10	1	-1E+10	1
4902549	122	C	12/31/2023	18:12	-133.015	47.814	0	142.00	0	6.6770	0	33.3950	0	26.200	0	140.762	0	211.4	4	70.7	4	-1E+10	1	-1E+10	1	-1E+10	1	-1E+10	1	-1E+10	1	-1E+10	1
4902549	122	C	12/31/2023	18:12	-133.015	47.814	0	143.10	0	6.6750	0	33.4070	0	26.209	0	141.852	0	210.7	4	70.5	4	-1E+10	1	-1E+10	1	-1E+10	1	-1E+10	1	-1E+10	1	-1E+10	1
4902549	122	C	12/31/2023	18:12	-133.015	47.814	0	143.90	0	6.6700	0	33.4170	0	26.218	0	142.645	0	210.4	4	70.3	4	-1E+10	1	-1E+10	1	-1E+10	1	-1E+10	1	-1E+10	1	-1E+10	1
4902549	122	C	12/31/2023	18:12	-133.015	47.814	0	145.00	0	6.6420	0	33.4280	0	26.230	0	143.735	0	209.8	4	70.1	4	-1E+10	1	-1E+10	1	-1E+10	1	-1E+10	1	-1E+10	1	-1E+10	1
4902549	122	C	12/31/2023	18:12	-133.015	47.814	0	146.20	0	6.6310	0	33.4300	0	26.233	0	144.924	0	209.1	4	69.8	4	-1E+10	1	-1E+10	1	-1E+10	1	-1E+10	1	-1E+10	1	-1E+10	1
4902549	122	C	12/31/2023	18:12	-133.015	47.814	0	146.90	0	6.6210	0	33.4320	0	26.236	0	145.618	0	208.5	4	69.6	4	-1E+10	1	-1E+10	1	-1E+10	1	-1E+10	1	-1E+10	1	-1E+10	1
4902549	122	C	12/31/2023	18:12	-133.015	47.814	0	148.00	0	6.5860	0	33.4500	0	26.255	0	146.708	0	207.7	4	69.3	4	-1E+10	1	-1E+10	1	-1E+10	1	-1E+10	1	-1E+10	1	-1E+10	1
4902549	122	C	12/31/2023	18:12	-133.015	47.814	0	149.20	0	6.5680	0	33.4700	0	26.273	0	147.897	0	206.9	4	69.0	4	-1E+10	1	-1E+10	1	-1E+10	1	-1E+10	1	-1E+10	1	-1E+10	1
4902549	122	C	12/31/2023	18:12	-133.015	47.814	0	149.90	0	6.5630	0	33.4730	0	26.276	0	148.591	0	206.4	4	68.9	4	-1E+10	1	-1E+10	1	-1E+10	1	-1E+10	1	-1E+10	1	-1E+10	1
4902549	122	C	12/31/2023	18:12	-133.015	47.814	0	151.00	0	6.5610	0	33.4740	0	26.277	0	149.681	0	205.3	4	68.5	4	-1E+10	1	-1E+10	1	-1E+10	1	-1E+10	1	-1E+10	1	-1E+10	1
4902549	122	C	12/31/2023	18:12	-133.015	47.814	0	152.20	0	6.5570	0	33.4800	0	26.282	0	150.870	0	204.2	4	68.1	4	-1E+10	1	-1E+10	1	-1E+10	1	-1E+10	1	-1E+10	1	-1E+10	1
4902549	122	C	12/31/2023	18:12	-133.015	47.814	0	152.90	0	6.5530	0	33.4860	0	26.288	0	151.563	0	203.4	4	67.9	4	-1E+10	1	-1E+10	1	-1E+10	1	-1E+10	1	-1E+10	1	-1E+10	1
4902549	122	C	12/31/2023	18:12	-133.015	47.814	0	154.00	0	6.5330	0	33.5080	0	26.308	0	152.653	0	202.3	4	67.5	4	-1E+10	1	-1E+10	1	-1E+10	1	-1E+10	1	-1E+10	1	-1E+10	1
4902549	122	C	12/31/2023	18:12	-133.015	47.814	0	155.00	0	6.5210	0	33.5200	0	26.319	0	153.644	0	201.2	4	67.1	4	-1E+10	1	-1E+10	1	-1E+10	1	-1E+10	1	-1E+10	1	-1E+10	1
4902549	122	C	12/31/2023	18:12	-133.015	47.814	0	156.00	0	6.5150	0	33.5260	0	26.324	0	154.635	0	199.9	4	66.6	4	-1E+10	1	-1E+10	1	-1E+10	1	-1E+10	1	-1E+10	1	-1E+10	1
4902549	122	C	12/31/2023	18:12	-133.015	47.814	0	157.10	0	6.5090	0	33.5320	0	26.330	0	155.725	0	198.5	4	66.2	4	-1E+10	1	-1E+10	1	-1E+10	1	-1E+10	1	-1E+10	1	-1E+10	1
4902549	122	C	12/31/2023	18:12	-133.015	47.814	0	157.90	0	6.4890	0	33.5490	0	26.346	0	156.518	0	197.4	4	65.8	4	-1E+10	1	-1E+10	1	-1E+10	1	-1E+10	1	-1E+10	1	-1E+10	1
4902549	122	C	12/31/2023	18:12	-133.015	47.814	0	158.70	0	6.4480	0	33.5780	0	26.374	0	157.310	0	196.9	4	65.6	4	-1E+10	1	-1E+10	1	-1E+10	1	-1E+10	1	-1E+10	1	-1E+10	1
4902549	122	C	12/31/2023	18:12	-133.015	47.814	0	159.90	0	6.3970	0	33.5910	0	26.391	0	158.500	0	196.0	4	65.2	4	-1E+10	1	-1E+10	1	-1E+10	1	-1E+10	1	-1E+10	1	-1E+10	1
4902549	122	C	12/31/2023	18:12	-133.015	47.814	0	161.10	0	6.3740	0	33.5930	0	26.395	0	159.689	0	195.0	4	64.8	4	-1E+10	1	-1E+10	1	-1E+10	1	-1E+10	1	-1E+10	1	-1E+10	1
4902549	122	C	12/31/2023	18:12	-133.015	47.814	0	162.00	0	6.3680	0	33.6040	0	26.405	0	160.580	0	194.3	4	64.6	4	-1E+10	1	-1E+10	1	-1E+10	1	-1E+10	1	-1E+10	1	-1E+10	1
4902549	122	C	12/31/2023	18:12	-133.015	47.814	0	162.80	0	6.3700	0	33.6060	0	26.406	0	161.373	0	193.5	4	64.3	4	-1E+10	1	-1E+10	1	-1E+10	1	-1E+10	1	-1E+10	1	-1E+10	1
4902549	122	C	12/31/2023	18:12	-133.015	47.814	0	163.60	0	6.3760	0	33.6100	0	26.409	0	162.166	0	192.5	4	64.0	4	-1E+10	1	-1E+10	1	-1E+10	1	-1E+10	1	-1E+10	1	-1E+10	1
4902549	122	C	12/31/2023	18:12	-133.015	47.814	0	164.90	0	6.3800	0	33.6150	0	26.412	0	163.454	0	191.0	4	63.5	4	-1E+10	1	-1E+10	1	-1E+10	1	-1E+10	1	-1E+10	1	-1E+10	1
4902549	122	C	12/31/2023	18:12	-133.015	47.814	0	166.20	0	6.3820	0	33.6320	0	26.425	0	164.742	0	189.7	4	63.1	4	-1E+10	1	-1E+10	1	-1E+10	1	-1E+10	1	-1E+10	1	-1E+10	1
4902549	122	C	12/31/2023	18:12	-133.015	47.814	0	167.10	0	6.3770	0	33.6450	0	26.436	0	165.634	0	189.0	4	62.9	4	-1E+10	1	-1E+10	1	-1E+10	1	-1E+10	1	-1E+10	1	-1E+10	1
4902549	122	C	12/31/2023	18:12	-133.015	47.814	0	167.90	0	6.3760	0	33.6470	0	26.438	0	166.426	0	188.2	4	62.6	4	-1E+10	1	-1E+10	1	-1E+10	1	-1E+10	1	-1E+10	1	-1E+10	1
4902549	122	C	12/31/2023	18:12	-133.015	47.814	0	168.80	0	6.3750	0	33.6480	0	26.439	0	167.318	0	187.5	4	62.4	4	-1E+10	1	-1E+10	1	-1E+10	1	-1E+10	1	-1E+10	1	-1E+10	1
4902549	122	C	12/31/2023	18:12	-133.015	47.814	0	169.70	0	6.3690	0	33.6550	0	26.445	0	168.210	0	186.8	4	62.1	4	-1E+10	1	-1E+10	1	-1E+10	1	-1E+10	1	-1E+10	1	-1E+10	1
4902549	122	C	12/31/2023	18:12	-133.015	47.814	0	170.60	0	6.3600	0	33.6600	0	26.450	0	169.101	0	186.2	4	61.9	4	-1E+10	1	-1E+10	1	-1E+10	1	-1E+10	1	-1E+10	1	-1E+10	1
4902549	122	C	12/31/2023	18:12	-133.015	47.814	0	171.90	0	6.3570	0	33.6620	0	26.452	0	170.389	0	185.2	4	61.6	4	-1E+10	1	-1E+10	1	-1E+10	1	-1E+10	1	-1E+10	1	-1E+10	1
4902549	122	C	12/31/2023	18:12	-133.015	47.814	0	173.30	0	6.3540	0	33.6650	0	26.455	0	171.777	0	184.1	4	61.2	4	-1E+10	1	-1E+10	1	-1E+10	1	-1E+10	1	-1E+10	1	-1E+10	1
4902549	122	C	12/31/2023	18:12	-133.015	47.814	0	174.10	0	6.3510	0	33.6680	0	26.458	0	172.569	0	183.3	4	60.9	4	-1E+10	1	-1E+10	1	-1E+10	1	-1E+10	1	-1E+10	1	-1E+10	1
4902549	122	C	12/31/2023	18:12	-133.015	47.814	0	175.00	0	6.3440	0	33.6710	0	26.461	0	173.461	0	182.6	4	60.7	4	-1E+10	1	-1E+10	1	-1E+10	1	-1E+10	1	-1E+10	1	-1E+10	1
4902549	122	C	12/31/2023	18:12	-133.015	47.814	0	175.90	0	6.3400	0	33.6740	0	26.464	0	174.353	0	181.9	4	60.5	4	-1E+10	1	-1E+10	1	-1E+10	1	-1E+10	1	-1E+10	1	-1E+10	1
4902549	122	C	12/31/2023	18:12	-133.015	47.814	0	176.80	0	6.3340	0	33.6770	0	26.467	0	175.244	0	181.1	4	60.2	4	-1E+10	1	-1E+10	1	-1E+10	1	-1E+10	1	-1E+10	1	-1E+10	1
4902549	122	C	12/31/2023	18:12	-133.015	47.814	0	177.70	0	6.3260	0	33.6840	0	26.474	0	176.136	0	180.5	4	60.0	4	-1E+10	1	-1E+10	1	-1E+10	1	-1E+10	1	-1E+10	1	-1E+10	1
4902549	122	C	12/31/2023	18:12	-133.015	47.814	0	178.70	0	6.3210	0	33.6850	0	26.475	0	177.127	0	179.8	4	59.7	4	-1E+10	1	-1E+10	1	-1E+10	1	-1E+10	1	-1E+10	1	-1E+10	1
4902549	122	C	12/31/2023	18:12	-133.015	47.814	0	179.60	0	6.3150	0	33.6900	0	26.480	0	178.018	0	179.1	4	59.5	4	-1E+10	1	-1E+10	1	-1E+10	1	-1E+10	1	-1E+10	1	-1E+10	1
4902549	122	C	12/31/2023	18:12	-133.015	47.814	0	180.90	0	6.3070	0	33.6960	0	26.486	0	179.306	0	178.4	4	59.3	4	-1E+10	1	-1E+10	1	-1E+10	1	-1E+10	1	-1E+10	1	-1E+10	1
4902549	122	C	12/31/2023	18:12	-133.015	47.814	0	182.30	0	6.2930	0	33.6990	0	26.490	0	180.694	0	177.6	4	59.0	4	-1E+10	1	-1E+10	1	-1E+10	1	-1E+10	1	-1E+10	1	-1E+10	1
4902549	122	C	12/31/2023	18:12	-133.015	47.814	0	183.30	0	6.2880	0	33.7000	0	26.491	0	181.684	0	177.2	4	58.8	4	-1E+10	1	-1E+10	1	-1E+10	1	-1E+10	1	-1E+10	1	-1E+10	1
4902549	122	C	12/31/2023	18:12	-133.015	47.814	0	184.20	0	6.2810	0	33.7010	0	26.493	0	182.576	0	176.6	4	58.6	4	-1E+10	1	-1E+10	1	-1E+10	1	-1E+10	1	-1E+10	1	-1E+10	1
4902549	122	C	12/31/2023	18:12	-133.015	47.814	0	185.10	0	6.2790	0	33.7000	0	26.492	0	183.468	0	175.9	4	58.4	4	-1E+10	1	-1E+10	1	-1E+10	1	-1E+10	1	-1E+10	1	-1E+10	1
4902549	122	C	12/31/2023	18:12	-133.015	47.814	0	186.00	0	6.2740	0	33.7010	0	26.494	0	184.359	0	175.2	4	58.2	4	-1E+10	1	-1E+10	1	-1E+10	1	-1E+10	1	-1E+10	1	-1E+10	1
4902549	122	C	12/31/2023	18:12	-133.015	47.814	0	186.90	0	6.2740	0	33.7000	0	26.493	0	185.251	0	174.3	4	57.9	4	-1E+10	1	-1E+10	1	-1E+10	1	-1E+10	1	-1E+10	1	-1E+10	1
4902549	122	C	12/31/2023	18:12	-133.015	47.814	0	187.80	0	6.2550	0	33.7110	0	26.504	0	186.143	0	173.3	4	57.5	4	-1E+10	1	-1E+10	1	-1E+10	1	-1E+10	1	-1E+10	1	-1E+10	1
4902549	122	C	12/31/2023	18:12	-133.015	47.814	0	188.70	0	6.2360	0	33.7090	0	26.505	0	187.034	0	172.5	4	57.2	4	-1E+10	1	-1E+10	1	-1E+10	1	-1E+10	1	-1E+10	1	-1E+10	1
4902549	122	C	12/31/2023	18:12	-133.015	47.814	0	189.60	0	6.2350	0	33.7140	0	26.509	0	187.926	0	171.6	4	56.9	4	-1E+10	1	-1E+10	1	-1E+10	1	-1E+10	1	-1E+10	1	-1E+10	1
4902549	122	C	12/31/2023	18:12	-133.015	47.814	0	190.60	0	6.2390	0	33.7170	0	26.511	0	188.917	0	170.7	4	56.6	4	-1E+10	1	-1E+10	1	-1E+10	1	-1E+10	1	-1E+10	1	-1E+10	1
4902549	122	C	12/31/2023	18:12	-133.015	47.814	0	191.90	0	6.2380	0	33.7190	0	26.513	0	190.205	0	169.4	4	56.2	4	-1E+10	1	-1E+10	1	-1E+10	1	-1E+10	1	-1E+10	1	-1E+10	1
4902549	122	C	12/31/2023	18:12	-133.015	47.814	0	193.30	0	6.2380	0	33.7200	0	26.513	0	191.592	0	167.8	4	55.7	4	-1E+10	1	-1E+10	1	-1E+10	1	-1E+10	1	-1E+10	1	-1E+10	1
4902549	122	C	12/31/2023	18:12	-133.015	47.814	0	194.30	0	6.2360	0	33.7210	0	26.514	0	192.582	0	166.7	4	55.3	4	-1E+10	1	-1E+10	1	-1E+10	1	-1E+10	1	-1E+10	1	-1E+10	1
4902549	122	C	12/31/2023	18:12	-133.015	47.814	0	195.30	0	6.2310	0	33.7240	0	26.518	0	193.573	0	165.6	4	54.9	4	-1E+10	1	-1E+10	1	-1E+10	1	-1E+10	1	-1E+10	1	-1E+10	1
4902549	122	C	12/31/2023	18:12	-133.015	47.814	0	196.20	0	6.2110	0	33.7270	0	26.522	0	194.464	0	164.4	4	54.5	4	-1E+10	1	-1E+10	1	-1E+10	1	-1E+10	1	-1E+10	1	-1E+10	1
4902549	122	C	12/31/2023	18:12	-133.015	47.814	0	197.20	0	6.1690	0	33.7300	0	26.530	0	195.455	0	163.4	4	54.1	4	-1E+10	1	-1E+10	1	-1E+10	1	-1E+10	1	-1E+10	1	-1E+10	1
4902549	122	C	12/31/2023	18:12	-133.015	47.814	0	198.10	0	6.1440	0	33.7320	0	26.535	0	196.347	0	162.5	4	53.8	4	-1E+10	1	-1E+10	1	-1E+10	1	-1E+10	1	-1E+10	1	-1E+10	1
4902549	122	C	12/31/2023	18:12	-133.015	47.814	0	199.10	0	6.1260	0	33.7350	0	26.540	0	197.337	0	161.6	4	53.5	4	-1E+10	1	-1E+10	1	-1E+10	1	-1E+10	1	-1E+10	1	-1E+10	1
4902549	122	C	12/31/2023	18:12	-133.015	47.814	0	200.10	0	6.1120	0	33.7380	0	26.544	0	198.328	0	160.8	4	53.2	4	-1E+10	1	-1E+10	1	-1E+10	1	-1E+10	1	-1E+10	1	-1E+10	1
4902549	122	C	12/31/2023	18:12	-133.015	47.814	0	201.10	0	6.1040	0	33.7390	0	26.545	0	199.319	0	160.0	4	52.9	4	-1E+10	1	-1E+10	1	-1E+10	1	-1E+10	1	-1E+10	1	-1E+10	1
4902549	122	C	12/31/2023	18:12	-133.015	47.814	0	202.10	0	6.0980	0	33.7400	0	26.547	0	200.309	0	159.1	4	52.6	4	-1E+10	1	-1E+10	1	-1E+10	1	-1E+10	1	-1E+10	1	-1E+10	1
4902549	122	C	12/31/2023	18:12	-133.015	47.814	0	203.10	0	6.0910	0	33.7410	0	26.549	0	201.300	0	158.1	4	52.3	4	-1E+10	1	-1E+10	1	-1E+10	1	-1E+10	1	-1E+10	1	-1E+10	1
4902549	122	C	12/31/2023	18:12	-133.015	47.814	0	204.10	0	6.0870	0	33.7410	0	26.549	0	202.291	0	157.1	4	52.0	4	-1E+10	1	-1E+10	1	-1E+10	1	-1E+10	1	-1E+10	1	-1E+10	1
4902549	122	C	12/31/2023	18:12	-133.015	47.814	0	205.00	0	6.0790	0	33.7430	0	26.552	0	203.182	0	156.1	4	51.6	4	-1E+10	1	-1E+10	1	-1E+10	1	-1E+10	1	-1E+10	1	-1E+10	1
4902549	122	C	12/31/2023	18:12	-133.015	47.814	0	206.00	0	6.0740	0	33.7430	0	26.552	0	204.173	0	155.1	4	51.3	4	-1E+10	1	-1E+10	1	-1E+10	1	-1E+10	1	-1E+10	1	-1E+10	1
4902549	122	C	12/31/2023	18:12	-133.015	47.814	0	207.00	0	6.0700	0	33.7430	0	26.553	0	205.164	0	153.8	4	50.8	4	-1E+10	1	-1E+10	1	-1E+10	1	-1E+10	1	-1E+10	1	-1E+10	1
4902549	122	C	12/31/2023	18:12	-133.015	47.814	0	208.00	0	6.0620	0	33.7440	0	26.555	0	206.154	0	152.6	4	50.4	4	-1E+10	1	-1E+10	1	-1E+10	1	-1E+10	1	-1E+10	1	-1E+10	1
4902549	122	C	12/31/2023	18:12	-133.015	47.814	0	209.00	0	6.0450	0	33.7480	0	26.560	0	207.145	0	151.4	4	50.0	4	-1E+10	1	-1E+10	1	-1E+10	1	-1E+10	1	-1E+10	1	-1E+10	1
4902549	122	C	12/31/2023	18:12	-133.015	47.814	0	210.00	0	6.0030	0	33.7540	0	26.570	0	208.135	0	150.6	4	49.7	4	-1E+10	1	-1E+10	1	-1E+10	1	-1E+10	1	-1E+10	1	-1E+10	1
4902549	122	C	12/31/2023	18:12	-133.015	47.814	0	211.00	0	5.9680	0	33.7570	0	26.577	0	209.126	0	149.8	4	49.4	4	-1E+10	1	-1E+10	1	-1E+10	1	-1E+10	1	-1E+10	1	-1E+10	1
4902549	122	C	12/31/2023	18:12	-133.015	47.814	0	212.00	0	5.9650	0	33.7570	0	26.577	0	210.117	0	148.8	4	49.1	4	-1E+10	1	-1E+10	1	-1E+10	1	-1E+10	1	-1E+10	1	-1E+10	1
4902549	122	C	12/31/2023	18:12	-133.015	47.814	0	213.00	0	5.9600	0	33.7580	0	26.579	0	211.107	0	147.8	4	48.7	4	-1E+10	1	-1E+10	1	-1E+10	1	-1E+10	1	-1E+10	1	-1E+10	1
4902549	122	C	12/31/2023	18:12	-133.015	47.814	0	214.00	0	5.9570	0	33.7580	0	26.579	0	212.098	0	146.9	4	48.4	4	-1E+10	1	-1E+10	1	-1E+10	1	-1E+10	1	-1E+10	1	-1E+10	1
4902549	122	C	12/31/2023	18:12	-133.015	47.814	0	215.00	0	5.9500	0	33.7580	0	26.580	0	213.089	0	145.9	4	48.1	4	-1E+10	1	-1E+10	1	-1E+10	1	-1E+10	1	-1E+10	1	-1E+10	1
4902549	122	C	12/31/2023	18:12	-133.015	47.814	0	216.00	0	5.9240	0	33.7610	0	26.586	0	214.079	0	145.1	4	47.8	4	-1E+10	1	-1E+10	1	-1E+10	1	-1E+10	1	-1E+10	1	-1E+10	1
4902549	122	C	12/31/2023	18:12	-133.015	47.814	0	217.00	0	5.9050	0	33.7630	0	26.589	0	215.070	0	144.3	4	47.5	4	-1E+10	1	-1E+10	1	-1E+10	1	-1E+10	1	-1E+10	1	-1E+10	1
4902549	122	C	12/31/2023	18:12	-133.015	47.814	0	218.00	0	5.8830	0	33.7650	0	26.594	0	216.060	0	143.7	4	47.3	4	-1E+10	1	-1E+10	1	-1E+10	1	-1E+10	1	-1E+10	1	-1E+10	1
4902549	122	C	12/31/2023	18:12	-133.015	47.814	0	219.00	0	5.8810	0	33.7640	0	26.593	0	217.051	0	143.0	4	47.1	4	-1E+10	1	-1E+10	1	-1E+10	1	-1E+10	1	-1E+10	1	-1E+10	1
4902549	122	C	12/31/2023	18:12	-133.015	47.814	0	220.00	0	5.8690	0	33.7660	0	26.596	0	218.041	0	142.2	4	46.8	4	-1E+10	1	-1E+10	1	-1E+10	1	-1E+10	1	-1E+10	1	-1E+10	1
4902549	122	C	12/31/2023	18:12	-133.015	47.814	0	221.00	0	5.8470	0	33.7670	0	26.600	0	219.032	0	141.6	4	46.6	4	-1E+10	1	-1E+10	1	-1E+10	1	-1E+10	1	-1E+10	1	-1E+10	1
4902549	122	C	12/31/2023	18:12	-133.015	47.814	0	222.00	0	5.8390	0	33.7680	0	26.602	0	220.023	0	140.8	4	46.3	4	-1E+10	1	-1E+10	1	-1E+10	1	-1E+10	1	-1E+10	1	-1E+10	1
4902549	122	C	12/31/2023	18:12	-133.015	47.814	0	223.00	0	5.8150	0	33.7700	0	26.606	0	221.013	0	140.1	4	46.0	4	-1E+10	1	-1E+10	1	-1E+10	1	-1E+10	1	-1E+10	1	-1E+10	1
4902549	122	C	12/31/2023	18:12	-133.015	47.814	0	224.10	0	5.8060	0	33.7700	0	26.607	0	222.103	0	139.5	4	45.8	4	-1E+10	1	-1E+10	1	-1E+10	1	-1E+10	1	-1E+10	1	-1E+10	1
4902549	122	C	12/31/2023	18:12	-133.015	47.814	0	225.10	0	5.8030	0	33.7690	0	26.607	0	223.093	0	138.8	4	45.6	4	-1E+10	1	-1E+10	1	-1E+10	1	-1E+10	1	-1E+10	1	-1E+10	1
4902549	122	C	12/31/2023	18:12	-133.015	47.814	0	226.10	0	5.7970	0	33.7690	0	26.608	0	224.084	0	138.0	4	45.3	4	-1E+10	1	-1E+10	1	-1E+10	1	-1E+10	1	-1E+10	1	-1E+10	1
4902549	122	C	12/31/2023	18:12	-133.015	47.814	0	227.10	0	5.7800	0	33.7720	0	26.612	0	225.074	0	137.2	4	45.1	4	-1E+10	1	-1E+10	1	-1E+10	1	-1E+10	1	-1E+10	1	-1E+10	1
4902549	122	C	12/31/2023	18:12	-133.015	47.814	0	228.20	0	5.7680	0	33.7710	0	26.613	0	226.164	0	136.5	4	44.8	4	-1E+10	1	-1E+10	1	-1E+10	1	-1E+10	1	-1E+10	1	-1E+10	1
4902549	122	C	12/31/2023	18:12	-133.015	47.814	0	229.20	0	5.7580	0	33.7720	0	26.615	0	227.154	0	135.9	4	44.6	4	-1E+10	1	-1E+10	1	-1E+10	1	-1E+10	1	-1E+10	1	-1E+10	1
4902549	122	C	12/31/2023	18:12	-133.015	47.814	0	230.20	0	5.7410	0	33.7730	0	26.618	0	228.145	0	135.2	4	44.4	4	-1E+10	1	-1E+10	1	-1E+10	1	-1E+10	1	-1E+10	1	-1E+10	1
4902549	122	C	12/31/2023	18:12	-133.015	47.814	0	231.20	0	5.7200	0	33.7740	0	26.621	0	229.136	0	134.5	4	44.1	4	-1E+10	1	-1E+10	1	-1E+10	1	-1E+10	1	-1E+10	1	-1E+10	1
4902549	122	C	12/31/2023	18:12	-133.015	47.814	0	232.20	0	5.6950	0	33.7750	0	26.625	0	230.126	0	134.0	4	43.9	4	-1E+10	1	-1E+10	1	-1E+10	1	-1E+10	1	-1E+10	1	-1E+10	1
4902549	122	C	12/31/2023	18:12	-133.015	47.814	0	233.30	0	5.6790	0	33.7760	0	26.628	0	231.216	0	133.5	4	43.7	4	-1E+10	1	-1E+10	1	-1E+10	1	-1E+10	1	-1E+10	1	-1E+10	1
4902549	122	C	12/31/2023	18:12	-133.015	47.814	0	234.30	0	5.6630	0	33.7760	0	26.629	0	232.206	0	133.1	4	43.6	4	-1E+10	1	-1E+10	1	-1E+10	1	-1E+10	1	-1E+10	1	-1E+10	1
4902549	122	C	12/31/2023	18:12	-133.015	47.814	0	235.30	0	5.6560	0	33.7750	0	26.630	0	233.197	0	132.6	4	43.4	4	-1E+10	1	-1E+10	1	-1E+10	1	-1E+10	1	-1E+10	1	-1E+10	1
4902549	122	C	12/31/2023	18:12	-133.015	47.814	0	236.40	0	5.6460	0	33.7760	0	26.632	0	234.286	0	132.1	4	43.2	4	-1E+10	1	-1E+10	1	-1E+10	1	-1E+10	1	-1E+10	1	-1E+10	1
4902549	122	C	12/31/2023	18:12	-133.015	47.814	0	237.40	0	5.6270	0	33.7780	0	26.635	0	235.277	0	131.8	4	43.1	4	-1E+10	1	-1E+10	1	-1E+10	1	-1E+10	1	-1E+10	1	-1E+10	1
4902549	122	C	12/31/2023	18:12	-133.015	47.814	0	238.40	0	5.6020	0	33.7770	0	26.638	0	236.267	0	131.5	4	43.0	4	-1E+10	1	-1E+10	1	-1E+10	1	-1E+10	1	-1E+10	1	-1E+10	1
4902549	122	C	12/31/2023	18:12	-133.015	47.814	0	239.50	0	5.5980	0	33.7770	0	26.638	0	237.357	0	131.1	4	42.9	4	-1E+10	1	-1E+10	1	-1E+10	1	-1E+10	1	-1E+10	1	-1E+10	1
4902549	122	C	12/31/2023	18:12	-133.015	47.814	0	240.50	0	5.5960	0	33.7760	0	26.638	0	238.347	0	130.6	4	42.7	4	-1E+10	1	-1E+10	1	-1E+10	1	-1E+10	1	-1E+10	1	-1E+10	1
4902549	122	C	12/31/2023	18:12	-133.015	47.814	0	241.50	0	5.5930	0	33.7770	0	26.639	0	239.338	0	130.1	4	42.5	4	-1E+10	1	-1E+10	1	-1E+10	1	-1E+10	1	-1E+10	1	-1E+10	1
4902549	122	C	12/31/2023	18:12	-133.015	47.814	0	242.60	0	5.6010	0	33.7770	0	26.638	0	240.427	0	129.4	4	42.3	4	-1E+10	1	-1E+10	1	-1E+10	1	-1E+10	1	-1E+10	1	-1E+10	1
4902549	122	C	12/31/2023	18:12	-133.015	47.814	0	243.60	0	5.5730	0	33.7820	0	26.645	0	241.418	0	128.9	4	42.1	4	-1E+10	1	-1E+10	1	-1E+10	1	-1E+10	1	-1E+10	1	-1E+10	1
4902549	122	C	12/31/2023	18:12	-133.015	47.814	0	244.70	0	5.5550	0	33.7790	0	26.645	0	242.507	0	128.6	4	42.0	4	-1E+10	1	-1E+10	1	-1E+10	1	-1E+10	1	-1E+10	1	-1E+10	1
4902549	122	C	12/31/2023	18:12	-133.015	47.814	0	245.70	0	5.5400	0	33.7790	0	26.647	0	243.498	0	128.1	4	41.8	4	-1E+10	1	-1E+10	1	-1E+10	1	-1E+10	1	-1E+10	1	-1E+10	1
4902549	122	C	12/31/2023	18:12	-133.015	47.814	0	246.80	0	5.5250	0	33.7790	0	26.649	0	244.587	0	127.7	4	41.7	4	-1E+10	1	-1E+10	1	-1E+10	1	-1E+10	1	-1E+10	1	-1E+10	1
4902549	122	C	12/31/2023	18:12	-133.015	47.814	0	247.80	0	5.5180	0	33.7800	0	26.650	0	245.577	0	127.2	4	41.5	4	-1E+10	1	-1E+10	1	-1E+10	1	-1E+10	1	-1E+10	1	-1E+10	1
4902549	122	C	12/31/2023	18:12	-133.015	47.814	0	248.90	0	5.5100	0	33.7800	0	26.651	0	246.667	0	126.8	4	41.4	4	-1E+10	1	-1E+10	1	-1E+10	1	-1E+10	1	-1E+10	1	-1E+10	1
4902549	122	C	12/31/2023	18:12	-133.015	47.814	0	249.90	0	5.5020	0	33.7790	0	26.651	0	247.657	0	126.3	4	41.2	4	-1E+10	1	-1E+10	1	-1E+10	1	-1E+10	1	-1E+10	1	-1E+10	1
4902549	122	C	12/31/2023	18:12	-133.015	47.814	0	250.90	0	5.4860	0	33.7830	0	26.656	0	248.648	0	126.0	4	41.1	4	-1E+10	1	-1E+10	1	-1E+10	1	-1E+10	1	-1E+10	1	-1E+10	1
4902549	122	C	12/31/2023	18:12	-133.015	47.814	0	251.90	0	5.4760	0	33.7810	0	26.656	0	249.638	0	125.6	4	41.0	4	-1E+10	1	-1E+10	1	-1E+10	1	-1E+10	1	-1E+10	1	-1E+10	1
4902549	122	C	12/31/2023	18:12	-133.015	47.814	0	253.00	0	5.4750	0	33.7800	0	26.655	0	250.728	0	125.2	4	40.8	4	-1E+10	1	-1E+10	1	-1E+10	1	-1E+10	1	-1E+10	1	-1E+10	1
4902549	122	C	12/31/2023	18:12	-133.015	47.814	0	254.00	0	5.4740	0	33.7810	0	26.656	0	251.718	0	124.7	4	40.6	4	-1E+10	1	-1E+10	1	-1E+10	1	-1E+10	1	-1E+10	1	-1E+10	1
4902549	122	C	12/31/2023	18:12	-133.015	47.814	0	255.10	0	5.4700	0	33.7810	0	26.657	0	252.808	0	124.1	4	40.5	4	-1E+10	1	-1E+10	1	-1E+10	1	-1E+10	1	-1E+10	1	-1E+10	1
4902549	122	C	12/31/2023	18:12	-133.015	47.814	0	256.10	0	5.4660	0	33.7810	0	26.657	0	253.798	0	123.4	4	40.2	4	-1E+10	1	-1E+10	1	-1E+10	1	-1E+10	1	-1E+10	1	-1E+10	1
4902549	122	C	12/31/2023	18:12	-133.015	47.814	0	257.20	0	5.4640	0	33.7810	0	26.657	0	254.887	0	122.7	4	40.0	4	-1E+10	1	-1E+10	1	-1E+10	1	-1E+10	1	-1E+10	1	-1E+10	1
4902549	122	C	12/31/2023	18:12	-133.015	47.814	0	258.20	0	5.4620	0	33.7800	0	26.657	0	255.878	0	121.9	4	39.7	4	-1E+10	1	-1E+10	1	-1E+10	1	-1E+10	1	-1E+10	1	-1E+10	1
4902549	122	C	12/31/2023	18:12	-133.015	47.814	0	259.20	0	5.4550	0	33.7810	0	26.659	0	256.868	0	121.1	4	39.4	4	-1E+10	1	-1E+10	1	-1E+10	1	-1E+10	1	-1E+10	1	-1E+10	1
4902549	122	C	12/31/2023	18:12	-133.015	47.814	0	260.20	0	5.4330	0	33.7810	0	26.661	0	257.859	0	120.2	4	39.2	4	-1E+10	1	-1E+10	1	-1E+10	1	-1E+10	1	-1E+10	1	-1E+10	1
4902549	122	C	12/31/2023	18:12	-133.015	47.814	0	261.30	0	5.4230	0	33.7830	0	26.664	0	258.948	0	119.3	4	38.8	4	-1E+10	1	-1E+10	1	-1E+10	1	-1E+10	1	-1E+10	1	-1E+10	1
4902549	122	C	12/31/2023	18:12	-133.015	47.814	0	262.30	0	5.3900	0	33.7830	0	26.668	0	259.938	0	118.6	4	38.6	4	-1E+10	1	-1E+10	1	-1E+10	1	-1E+10	1	-1E+10	1	-1E+10	1
4902549	122	C	12/31/2023	18:12	-133.015	47.814	0	263.30	0	5.3600	0	33.7860	0	26.674	0	260.929	0	118.0	4	38.4	4	-1E+10	1	-1E+10	1	-1E+10	1	-1E+10	1	-1E+10	1	-1E+10	1
4902549	122	C	12/31/2023	18:12	-133.015	47.814	0	264.40	0	5.3320	0	33.7870	0	26.678	0	262.018	0	117.5	4	38.2	4	-1E+10	1	-1E+10	1	-1E+10	1	-1E+10	1	-1E+10	1	-1E+10	1
4902549	122	C	12/31/2023	18:12	-133.015	47.814	0	265.40	0	5.3220	0	33.7860	0	26.678	0	263.008	0	116.9	4	38.0	4	-1E+10	1	-1E+10	1	-1E+10	1	-1E+10	1	-1E+10	1	-1E+10	1
4902549	122	C	12/31/2023	18:12	-133.015	47.814	0	266.50	0	5.3110	0	33.7840	0	26.678	0	264.098	0	116.2	4	37.8	4	-1E+10	1	-1E+10	1	-1E+10	1	-1E+10	1	-1E+10	1	-1E+10	1
4902549	122	C	12/31/2023	18:12	-133.015	47.814	0	267.50	0	5.2870	0	33.7860	0	26.682	0	265.088	0	115.6	4	37.5	4	-1E+10	1	-1E+10	1	-1E+10	1	-1E+10	1	-1E+10	1	-1E+10	1
4902549	122	C	12/31/2023	18:12	-133.015	47.814	0	268.50	0	5.2840	0	33.7870	0	26.683	0	266.078	0	114.9	4	37.3	4	-1E+10	1	-1E+10	1	-1E+10	1	-1E+10	1	-1E+10	1	-1E+10	1
4902549	122	C	12/31/2023	18:12	-133.015	47.814	0	269.60	0	5.2770	0	33.7900	0	26.687	0	267.168	0	114.2	4	37.1	4	-1E+10	1	-1E+10	1	-1E+10	1	-1E+10	1	-1E+10	1	-1E+10	1
4902549	122	C	12/31/2023	18:12	-133.015	47.814	0	270.60	0	5.2630	0	33.7900	0	26.688	0	268.158	0	113.6	4	36.8	4	-1E+10	1	-1E+10	1	-1E+10	1	-1E+10	1	-1E+10	1	-1E+10	1
4902549	122	C	12/31/2023	18:12	-133.015	47.814	0	271.60	0	5.2440	0	33.7920	0	26.692	0	269.149	0	112.9	4	36.6	4	-1E+10	1	-1E+10	1	-1E+10	1	-1E+10	1	-1E+10	1	-1E+10	1
4902549	122	C	12/31/2023	18:12	-133.015	47.814	0	272.60	0	5.2370	0	33.7910	0	26.692	0	270.139	0	112.3	4	36.4	4	-1E+10	1	-1E+10	1	-1E+10	1	-1E+10	1	-1E+10	1	-1E+10	1
4902549	122	C	12/31/2023	18:12	-133.015	47.814	0	273.70	0	5.2330	0	33.7910	0	26.693	0	271.228	0	111.6	4	36.2	4	-1E+10	1	-1E+10	1	-1E+10	1	-1E+10	1	-1E+10	1	-1E+10	1
4902549	122	C	12/31/2023	18:12	-133.015	47.814	0	274.60	0	5.2310	0	33.7930	0	26.694	0	272.119	0	110.8	4	35.9	4	-1E+10	1	-1E+10	1	-1E+10	1	-1E+10	1	-1E+10	1	-1E+10	1
4902549	122	C	12/31/2023	18:12	-133.015	47.814	0	275.70	0	5.2090	0	33.7940	0	26.698	0	273.209	0	110.2	4	35.7	4	-1E+10	1	-1E+10	1	-1E+10	1	-1E+10	1	-1E+10	1	-1E+10	1
4902549	122	C	12/31/2023	18:12	-133.015	47.814	0	276.90	0	5.2020	0	33.7940	0	26.699	0	274.397	0	109.3	4	35.4	4	-1E+10	1	-1E+10	1	-1E+10	1	-1E+10	1	-1E+10	1	-1E+10	1
4902549	122	C	12/31/2023	18:12	-133.015	47.814	0	278.10	0	5.1860	0	33.7940	0	26.700	0	275.586	0	108.4	4	35.1	4	-1E+10	1	-1E+10	1	-1E+10	1	-1E+10	1	-1E+10	1	-1E+10	1
4902549	122	C	12/31/2023	18:12	-133.015	47.814	0	278.90	0	5.1770	0	33.7940	0	26.702	0	276.378	0	107.7	4	34.9	4	-1E+10	1	-1E+10	1	-1E+10	1	-1E+10	1	-1E+10	1	-1E+10	1
4902549	122	C	12/31/2023	18:12	-133.015	47.814	0	279.70	0	5.1660	0	33.7950	0	26.704	0	277.170	0	107.1	4	34.7	4	-1E+10	1	-1E+10	1	-1E+10	1	-1E+10	1	-1E+10	1	-1E+10	1
4902549	122	C	12/31/2023	18:12	-133.015	47.814	0	280.90	0	5.1420	0	33.7950	0	26.706	0	278.358	0	106.1	4	34.3	4	-1E+10	1	-1E+10	1	-1E+10	1	-1E+10	1	-1E+10	1	-1E+10	1
4902549	122	C	12/31/2023	18:12	-133.015	47.814	0	282.10	0	5.1310	0	33.7980	0	26.710	0	279.547	0	105.2	4	34.0	4	-1E+10	1	-1E+10	1	-1E+10	1	-1E+10	1	-1E+10	1	-1E+10	1
4902549	122	C	12/31/2023	18:12	-133.015	47.814	0	282.90	0	5.1140	0	33.7980	0	26.712	0	280.339	0	104.6	4	33.8	4	-1E+10	1	-1E+10	1	-1E+10	1	-1E+10	1	-1E+10	1	-1E+10	1
4902549	122	C	12/31/2023	18:12	-133.015	47.814	0	283.70	0	5.1070	0	33.7980	0	26.713	0	281.131	0	103.9	4	33.6	4	-1E+10	1	-1E+10	1	-1E+10	1	-1E+10	1	-1E+10	1	-1E+10	1
4902549	122	C	12/31/2023	18:12	-133.015	47.814	0	284.90	0	5.0970	0	33.7980	0	26.714	0	282.319	0	102.9	4	33.2	4	-1E+10	1	-1E+10	1	-1E+10	1	-1E+10	1	-1E+10	1	-1E+10	1
4902549	122	C	12/31/2023	18:12	-133.015	47.814	0	286.10	0	5.0880	0	33.7960	0	26.713	0	283.508	0	101.7	4	32.9	4	-1E+10	1	-1E+10	1	-1E+10	1	-1E+10	1	-1E+10	1	-1E+10	1
4902549	122	C	12/31/2023	18:12	-133.015	47.814	0	287.00	0	5.0730	0	33.7970	0	26.716	0	284.399	0	101.1	4	32.7	4	-1E+10	1	-1E+10	1	-1E+10	1	-1E+10	1	-1E+10	1	-1E+10	1
4902549	122	C	12/31/2023	18:12	-133.015	47.814	0	287.80	0	5.0710	0	33.8030	0	26.721	0	285.191	0	100.5	4	32.5	4	-1E+10	1	-1E+10	1	-1E+10	1	-1E+10	1	-1E+10	1	-1E+10	1
4902549	122	C	12/31/2023	18:12	-133.015	47.814	0	289.00	0	5.0550	0	33.8050	0	26.724	0	286.379	0	99.8	4	32.2	4	-1E+10	1	-1E+10	1	-1E+10	1	-1E+10	1	-1E+10	1	-1E+10	1
4902549	122	C	12/31/2023	18:12	-133.015	47.814	0	290.30	0	5.0160	0	33.8030	0	26.727	0	287.667	0	99.2	4	32.0	4	-1E+10	1	-1E+10	1	-1E+10	1	-1E+10	1	-1E+10	1	-1E+10	1
4902549	122	C	12/31/2023	18:12	-133.015	47.814	0	291.10	0	4.9990	0	33.8020	0	26.728	0	288.459	0	98.6	4	31.8	4	-1E+10	1	-1E+10	1	-1E+10	1	-1E+10	1	-1E+10	1	-1E+10	1
4902549	122	C	12/31/2023	18:12	-133.015	47.814	0	291.90	0	4.9880	0	33.8030	0	26.730	0	289.251	0	98.1	4	31.6	4	-1E+10	1	-1E+10	1	-1E+10	1	-1E+10	1	-1E+10	1	-1E+10	1
4902549	122	C	12/31/2023	18:12	-133.015	47.814	0	292.70	0	4.9860	0	33.8010	0	26.729	0	290.043	0	97.5	4	31.4	4	-1E+10	1	-1E+10	1	-1E+10	1	-1E+10	1	-1E+10	1	-1E+10	1
4902549	122	C	12/31/2023	18:12	-133.015	47.814	0	293.60	0	4.9620	0	33.8050	0	26.735	0	290.934	0	97.1	4	31.3	4	-1E+10	1	-1E+10	1	-1E+10	1	-1E+10	1	-1E+10	1	-1E+10	1
4902549	122	C	12/31/2023	18:12	-133.015	47.814	0	294.90	0	4.9470	0	33.8040	0	26.736	0	292.222	0	96.4	4	31.0	4	-1E+10	1	-1E+10	1	-1E+10	1	-1E+10	1	-1E+10	1	-1E+10	1
4902549	122	C	12/31/2023	18:12	-133.015	47.814	0	296.20	0	4.9410	0	33.8060	0	26.738	0	293.509	0	95.7	4	30.8	4	-1E+10	1	-1E+10	1	-1E+10	1	-1E+10	1	-1E+10	1	-1E+10	1
4902549	122	C	12/31/2023	18:12	-133.015	47.814	0	297.00	0	4.9350	0	33.8070	0	26.739	0	294.301	0	95.2	4	30.7	4	-1E+10	1	-1E+10	1	-1E+10	1	-1E+10	1	-1E+10	1	-1E+10	1
4902549	122	C	12/31/2023	18:12	-133.015	47.814	0	297.90	0	4.9350	0	33.8070	0	26.740	0	295.192	0	94.7	4	30.5	4	-1E+10	1	-1E+10	1	-1E+10	1	-1E+10	1	-1E+10	1	-1E+10	1
4902549	122	C	12/31/2023	18:12	-133.015	47.814	0	298.80	0	4.9350	0	33.8080	0	26.740	0	296.084	0	94.1	4	30.3	4	-1E+10	1	-1E+10	1	-1E+10	1	-1E+10	1	-1E+10	1	-1E+10	1
4902549	122	C	12/31/2023	18:12	-133.015	47.814	0	299.60	0	4.9340	0	33.8080	0	26.740	0	296.876	0	93.5	4	30.1	4	-1E+10	1	-1E+10	1	-1E+10	1	-1E+10	1	-1E+10	1	-1E+10	1
4902549	122	C	12/31/2023	18:12	-133.015	47.814	0	300.90	0	4.9190	0	33.8110	0	26.744	0	298.163	0	92.7	4	29.8	4	-1E+10	1	-1E+10	1	-1E+10	1	-1E+10	1	-1E+10	1	-1E+10	1
4902549	122	C	12/31/2023	18:12	-133.015	47.814	0	302.30	0	4.9070	0	33.8120	0	26.747	0	299.549	0	91.9	4	29.6	4	-1E+10	1	-1E+10	1	-1E+10	1	-1E+10	1	-1E+10	1	-1E+10	1
4902549	122	C	12/31/2023	18:12	-133.015	47.814	0	303.20	0	4.9060	0	33.8110	0	26.746	0	300.440	0	91.3	4	29.4	4	-1E+10	1	-1E+10	1	-1E+10	1	-1E+10	1	-1E+10	1	-1E+10	1
4902549	122	C	12/31/2023	18:12	-133.015	47.814	0	304.00	0	4.9010	0	33.8130	0	26.748	0	301.233	0	90.7	4	29.2	4	-1E+10	1	-1E+10	1	-1E+10	1	-1E+10	1	-1E+10	1	-1E+10	1
4902549	122	C	12/31/2023	18:12	-133.015	47.814	0	304.90	0	4.8940	0	33.8150	0	26.751	0	302.124	0	90.1	4	29.0	4	-1E+10	1	-1E+10	1	-1E+10	1	-1E+10	1	-1E+10	1	-1E+10	1
4902549	122	C	12/31/2023	18:12	-133.015	47.814	0	305.80	0	4.8950	0	33.8160	0	26.751	0	303.015	0	89.6	4	28.8	4	-1E+10	1	-1E+10	1	-1E+10	1	-1E+10	1	-1E+10	1	-1E+10	1
4902549	122	C	12/31/2023	18:12	-133.015	47.814	0	306.70	0	4.9070	0	33.8180	0	26.751	0	303.906	0	89.0	4	28.6	4	-1E+10	1	-1E+10	1	-1E+10	1	-1E+10	1	-1E+10	1	-1E+10	1
4902549	122	C	12/31/2023	18:12	-133.015	47.814	0	307.60	0	4.9090	0	33.8220	0	26.754	0	304.797	0	88.5	4	28.5	4	-1E+10	1	-1E+10	1	-1E+10	1	-1E+10	1	-1E+10	1	-1E+10	1
4902549	122	C	12/31/2023	18:12	-133.015	47.814	0	308.50	0	4.9040	0	33.8200	0	26.753	0	305.688	0	88.1	4	28.3	4	-1E+10	1	-1E+10	1	-1E+10	1	-1E+10	1	-1E+10	1	-1E+10	1
4902549	122	C	12/31/2023	18:12	-133.015	47.814	0	309.90	0	4.9110	0	33.8260	0	26.757	0	307.074	0	87.4	4	28.1	4	-1E+10	1	-1E+10	1	-1E+10	1	-1E+10	1	-1E+10	1	-1E+10	1
4902549	122	C	12/31/2023	18:12	-133.015	47.814	0	311.30	0	4.9140	0	33.8270	0	26.758	0	308.461	0	86.8	4	27.9	4	-1E+10	1	-1E+10	1	-1E+10	1	-1E+10	1	-1E+10	1	-1E+10	1
4902549	122	C	12/31/2023	18:12	-133.015	47.814	0	312.20	0	4.9040	0	33.8280	0	26.760	0	309.352	0	86.3	4	27.8	4	-1E+10	1	-1E+10	1	-1E+10	1	-1E+10	1	-1E+10	1	-1E+10	1
4902549	122	C	12/31/2023	18:12	-133.015	47.814	0	313.10	0	4.8890	0	33.8270	0	26.761	0	310.243	0	85.8	4	27.6	4	-1E+10	1	-1E+10	1	-1E+10	1	-1E+10	1	-1E+10	1	-1E+10	1
4902549	122	C	12/31/2023	18:12	-133.015	47.814	0	314.10	0	4.8570	0	33.8260	0	26.763	0	311.233	0	85.4	4	27.4	4	-1E+10	1	-1E+10	1	-1E+10	1	-1E+10	1	-1E+10	1	-1E+10	1
4902549	122	C	12/31/2023	18:12	-133.015	47.814	0	315.00	0	4.8550	0	33.8280	0	26.765	0	312.124	0	84.8	4	27.3	4	-1E+10	1	-1E+10	1	-1E+10	1	-1E+10	1	-1E+10	1	-1E+10	1
4902549	122	C	12/31/2023	18:12	-133.015	47.814	0	316.00	0	4.8630	0	33.8260	0	26.763	0	313.114	0	84.3	4	27.1	4	-1E+10	1	-1E+10	1	-1E+10	1	-1E+10	1	-1E+10	1	-1E+10	1
4902549	122	C	12/31/2023	18:12	-133.015	47.814	0	316.90	0	4.8720	0	33.8340	0	26.768	0	314.005	0	83.9	4	27.0	4	-1E+10	1	-1E+10	1	-1E+10	1	-1E+10	1	-1E+10	1	-1E+10	1
4902549	122	C	12/31/2023	18:12	-133.015	47.814	0	317.90	0	4.8570	0	33.8300	0	26.767	0	314.995	0	83.4	4	26.8	4	-1E+10	1	-1E+10	1	-1E+10	1	-1E+10	1	-1E+10	1	-1E+10	1
4902549	122	C	12/31/2023	18:12	-133.015	47.814	0	318.80	0	4.8550	0	33.8300	0	26.767	0	315.886	0	82.9	4	26.6	4	-1E+10	1	-1E+10	1	-1E+10	1	-1E+10	1	-1E+10	1	-1E+10	1
4902549	122	C	12/31/2023	18:12	-133.015	47.814	0	319.80	0	4.8450	0	33.8320	0	26.770	0	316.877	0	82.3	4	26.4	4	-1E+10	1	-1E+10	1	-1E+10	1	-1E+10	1	-1E+10	1	-1E+10	1
4902549	122	C	12/31/2023	18:12	-133.015	47.814	0	320.80	0	4.8390	0	33.8330	0	26.771	0	317.867	0	81.6	4	26.2	4	-1E+10	1	-1E+10	1	-1E+10	1	-1E+10	1	-1E+10	1	-1E+10	1
4902549	122	C	12/31/2023	18:12	-133.015	47.814	0	321.70	0	4.8330	0	33.8360	0	26.774	0	318.758	0	81.0	4	26.0	4	-1E+10	1	-1E+10	1	-1E+10	1	-1E+10	1	-1E+10	1	-1E+10	1
4902549	122	C	12/31/2023	18:12	-133.015	47.814	0	322.70	0	4.8280	0	33.8430	0	26.780	0	319.748	0	80.5	4	25.9	4	-1E+10	1	-1E+10	1	-1E+10	1	-1E+10	1	-1E+10	1	-1E+10	1
4902549	122	C	12/31/2023	18:12	-133.015	47.814	0	323.70	0	4.8580	0	33.8440	0	26.778	0	320.738	0	80.1	4	25.7	4	-1E+10	1	-1E+10	1	-1E+10	1	-1E+10	1	-1E+10	1	-1E+10	1
4902549	122	C	12/31/2023	18:12	-133.015	47.814	0	324.70	0	4.8810	0	33.8560	0	26.785	0	321.728	0	79.7	4	25.6	4	-1E+10	1	-1E+10	1	-1E+10	1	-1E+10	1	-1E+10	1	-1E+10	1
4902549	122	C	12/31/2023	18:12	-133.015	47.814	0	325.70	0	4.8930	0	33.8530	0	26.781	0	322.718	0	79.4	4	25.5	4	-1E+10	1	-1E+10	1	-1E+10	1	-1E+10	1	-1E+10	1	-1E+10	1
4902549	122	C	12/31/2023	18:12	-133.015	47.814	0	326.70	0	4.8970	0	33.8590	0	26.785	0	323.708	0	79.0	4	25.4	4	-1E+10	1	-1E+10	1	-1E+10	1	-1E+10	1	-1E+10	1	-1E+10	1
4902549	122	C	12/31/2023	18:12	-133.015	47.814	0	327.70	0	4.8990	0	33.8580	0	26.784	0	324.698	0	78.6	4	25.3	4	-1E+10	1	-1E+10	1	-1E+10	1	-1E+10	1	-1E+10	1	-1E+10	1
4902549	122	C	12/31/2023	18:12	-133.015	47.814	0	328.70	0	4.9040	0	33.8590	0	26.784	0	325.688	0	78.3	4	25.2	4	-1E+10	1	-1E+10	1	-1E+10	1	-1E+10	1	-1E+10	1	-1E+10	1
4902549	122	C	12/31/2023	18:12	-133.015	47.814	0	329.70	0	4.9090	0	33.8610	0	26.786	0	326.678	0	78.0	4	25.1	4	-1E+10	1	-1E+10	1	-1E+10	1	-1E+10	1	-1E+10	1	-1E+10	1
4902549	122	C	12/31/2023	18:12	-133.015	47.814	0	330.70	0	4.9050	0	33.8660	0	26.790	0	327.668	0	77.7	4	25.0	4	-1E+10	1	-1E+10	1	-1E+10	1	-1E+10	1	-1E+10	1	-1E+10	1
4902549	122	C	12/31/2023	18:12	-133.015	47.814	0	331.70	0	4.9010	0	33.8660	0	26.790	0	328.658	0	77.6	4	25.0	4	-1E+10	1	-1E+10	1	-1E+10	1	-1E+10	1	-1E+10	1	-1E+10	1
4902549	122	C	12/31/2023	18:12	-133.015	47.814	0	332.70	0	4.9000	0	33.8660	0	26.791	0	329.648	0	77.3	4	24.9	4	-1E+10	1	-1E+10	1	-1E+10	1	-1E+10	1	-1E+10	1	-1E+10	1
4902549	122	C	12/31/2023	18:12	-133.015	47.814	0	333.70	0	4.8980	0	33.8660	0	26.791	0	330.638	0	77.0	4	24.8	4	-1E+10	1	-1E+10	1	-1E+10	1	-1E+10	1	-1E+10	1	-1E+10	1
4902549	122	C	12/31/2023	18:12	-133.015	47.814	0	334.70	0	4.8970	0	33.8670	0	26.792	0	331.628	0	76.8	4	24.7	4	-1E+10	1	-1E+10	1	-1E+10	1	-1E+10	1	-1E+10	1	-1E+10	1
4902549	122	C	12/31/2023	18:12	-133.015	47.814	0	335.70	0	4.8950	0	33.8680	0	26.793	0	332.618	0	76.6	4	24.6	4	-1E+10	1	-1E+10	1	-1E+10	1	-1E+10	1	-1E+10	1	-1E+10	1
4902549	122	C	12/31/2023	18:12	-133.015	47.814	0	336.70	0	4.8930	0	33.8700	0	26.795	0	333.609	0	76.4	4	24.6	4	-1E+10	1	-1E+10	1	-1E+10	1	-1E+10	1	-1E+10	1	-1E+10	1
4902549	122	C	12/31/2023	18:12	-133.015	47.814	0	337.80	0	4.8920	0	33.8710	0	26.795	0	334.697	0	76.1	4	24.5	4	-1E+10	1	-1E+10	1	-1E+10	1	-1E+10	1	-1E+10	1	-1E+10	1
4902549	122	C	12/31/2023	18:12	-133.015	47.814	0	338.80	0	4.8910	0	33.8720	0	26.796	0	335.688	0	75.9	4	24.4	4	-1E+10	1	-1E+10	1	-1E+10	1	-1E+10	1	-1E+10	1	-1E+10	1
4902549	122	C	12/31/2023	18:12	-133.015	47.814	0	339.80	0	4.8890	0	33.8730	0	26.797	0	336.678	0	75.7	4	24.4	4	-1E+10	1	-1E+10	1	-1E+10	1	-1E+10	1	-1E+10	1	-1E+10	1
4902549	122	C	12/31/2023	18:12	-133.015	47.814	0	340.80	0	4.8890	0	33.8730	0	26.797	0	337.668	0	75.5	4	24.3	4	-1E+10	1	-1E+10	1	-1E+10	1	-1E+10	1	-1E+10	1	-1E+10	1
4902549	122	C	12/31/2023	18:12	-133.015	47.814	0	341.80	0	4.8890	0	33.8730	0	26.797	0	338.657	0	75.3	4	24.2	4	-1E+10	1	-1E+10	1	-1E+10	1	-1E+10	1	-1E+10	1	-1E+10	1
4902549	122	C	12/31/2023	18:12	-133.015	47.814	0	342.80	0	4.8890	0	33.8750	0	26.799	0	339.647	0	75.0	4	24.1	4	-1E+10	1	-1E+10	1	-1E+10	1	-1E+10	1	-1E+10	1	-1E+10	1
4902549	122	C	12/31/2023	18:12	-133.015	47.814	0	343.80	0	4.8880	0	33.8760	0	26.800	0	340.637	0	74.8	4	24.1	4	-1E+10	1	-1E+10	1	-1E+10	1	-1E+10	1	-1E+10	1	-1E+10	1
4902549	122	C	12/31/2023	18:12	-133.015	47.814	0	344.90	0	4.8860	0	33.8760	0	26.800	0	341.726	0	74.7	4	24.0	4	-1E+10	1	-1E+10	1	-1E+10	1	-1E+10	1	-1E+10	1	-1E+10	1
4902549	122	C	12/31/2023	18:12	-133.015	47.814	0	345.90	0	4.8860	0	33.8770	0	26.801	0	342.716	0	74.4	4	23.9	4	-1E+10	1	-1E+10	1	-1E+10	1	-1E+10	1	-1E+10	1	-1E+10	1
4902549	122	C	12/31/2023	18:12	-133.015	47.814	0	346.90	0	4.8850	0	33.8770	0	26.801	0	343.706	0	74.2	4	23.9	4	-1E+10	1	-1E+10	1	-1E+10	1	-1E+10	1	-1E+10	1	-1E+10	1
4902549	122	C	12/31/2023	18:12	-133.015	47.814	0	348.00	0	4.8840	0	33.8770	0	26.801	0	344.795	0	74.0	4	23.8	4	-1E+10	1	-1E+10	1	-1E+10	1	-1E+10	1	-1E+10	1	-1E+10	1
4902549	122	C	12/31/2023	18:12	-133.015	47.814	0	349.00	0	4.8790	0	33.8790	0	26.803	0	345.785	0	73.8	4	23.7	4	-1E+10	1	-1E+10	1	-1E+10	1	-1E+10	1	-1E+10	1	-1E+10	1
4902549	122	C	12/31/2023	18:12	-133.015	47.814	0	350.10	0	4.8720	0	33.8780	0	26.803	0	346.874	0	73.5	4	23.7	4	-1E+10	1	-1E+10	1	-1E+10	1	-1E+10	1	-1E+10	1	-1E+10	1
4902549	122	C	12/31/2023	18:12	-133.015	47.814	0	353.10	0	4.8530	0	33.8780	0	26.805	0	349.844	0	72.8	4	23.4	4	-1E+10	1	-1E+10	1	-1E+10	1	-1E+10	1	-1E+10	1	-1E+10	1
4902549	122	C	12/31/2023	18:12	-133.015	47.814	0	358.30	0	4.8380	0	33.8810	0	26.810	0	354.992	0	71.4	4	23.0	4	-1E+10	1	-1E+10	1	-1E+10	1	-1E+10	1	-1E+10	1	-1E+10	1
4902549	122	C	12/31/2023	18:12	-133.015	47.814	0	363.40	0	4.8260	0	33.8840	0	26.813	0	360.040	0	69.8	4	22.4	4	-1E+10	1	-1E+10	1	-1E+10	1	-1E+10	1	-1E+10	1	-1E+10	1
4902549	122	C	12/31/2023	18:12	-133.015	47.814	0	368.40	0	4.8160	0	33.8900	0	26.819	0	364.990	0	67.8	4	21.8	4	-1E+10	1	-1E+10	1	-1E+10	1	-1E+10	1	-1E+10	1	-1E+10	1
4902549	122	C	12/31/2023	18:12	-133.015	47.814	0	373.40	0	4.7690	0	33.8960	0	26.829	0	369.939	0	66.2	4	21.2	4	-1E+10	1	-1E+10	1	-1E+10	1	-1E+10	1	-1E+10	1	-1E+10	1
4902549	122	C	12/31/2023	18:12	-133.015	47.814	0	378.00	0	4.7210	0	33.9000	0	26.838	0	374.492	0	65.2	4	20.9	4	-1E+10	1	-1E+10	1	-1E+10	1	-1E+10	1	-1E+10	1	-1E+10	1
4902549	122	C	12/31/2023	18:12	-133.015	47.814	0	382.60	0	4.6910	0	33.9010	0	26.842	0	379.045	0	64.3	4	20.6	4	-1E+10	1	-1E+10	1	-1E+10	1	-1E+10	1	-1E+10	1	-1E+10	1
4902549	122	C	12/31/2023	18:12	-133.015	47.814	0	387.80	0	4.6690	0	33.9030	0	26.846	0	384.192	0	63.0	4	20.2	4	-1E+10	1	-1E+10	1	-1E+10	1	-1E+10	1	-1E+10	1	-1E+10	1
4902549	122	C	12/31/2023	18:12	-133.015	47.814	0	393.00	0	4.6370	0	33.9060	0	26.852	0	389.339	0	61.7	4	19.7	4	-1E+10	1	-1E+10	1	-1E+10	1	-1E+10	1	-1E+10	1	-1E+10	1
4902549	122	C	12/31/2023	18:12	-133.015	47.814	0	398.20	0	4.6000	0	33.9090	0	26.858	0	394.485	0	60.3	4	19.3	4	-1E+10	1	-1E+10	1	-1E+10	1	-1E+10	1	-1E+10	1	-1E+10	1
4902549	122	C	12/31/2023	18:12	-133.015	47.814	0	402.80	0	4.5530	0	33.9090	0	26.863	0	399.038	0	59.3	4	18.9	4	-1E+10	1	-1E+10	1	-1E+10	1	-1E+10	1	-1E+10	1	-1E+10	1
4902549	122	C	12/31/2023	18:12	-133.015	47.814	0	407.50	0	4.5300	0	33.9120	0	26.868	0	403.690	0	57.7	4	18.4	4	-1E+10	1	-1E+10	1	-1E+10	1	-1E+10	1	-1E+10	1	-1E+10	1
4902549	122	C	12/31/2023	18:12	-133.015	47.814	0	412.80	0	4.5180	0	33.9230	0	26.878	0	408.935	0	56.4	4	18.0	4	-1E+10	1	-1E+10	1	-1E+10	1	-1E+10	1	-1E+10	1	-1E+10	1
4902549	122	C	12/31/2023	18:12	-133.015	47.814	0	418.10	0	4.5010	0	33.9260	0	26.883	0	414.180	0	55.3	4	17.6	4	-1E+10	1	-1E+10	1	-1E+10	1	-1E+10	1	-1E+10	1	-1E+10	1
4902549	122	C	12/31/2023	18:12	-133.015	47.814	0	422.80	0	4.4930	0	33.9310	0	26.888	0	418.831	0	54.1	4	17.3	4	-1E+10	1	-1E+10	1	-1E+10	1	-1E+10	1	-1E+10	1	-1E+10	1
4902549	122	C	12/31/2023	18:12	-133.015	47.814	0	427.70	0	4.4850	0	33.9380	0	26.894	0	423.680	0	53.2	4	17.0	4	-1E+10	1	-1E+10	1	-1E+10	1	-1E+10	1	-1E+10	1	-1E+10	1
4902549	122	C	12/31/2023	18:12	-133.015	47.814	0	432.70	0	4.4650	0	33.9410	0	26.899	0	428.628	0	52.6	4	16.8	4	-1E+10	1	-1E+10	1	-1E+10	1	-1E+10	1	-1E+10	1	-1E+10	1
4902549	122	C	12/31/2023	18:12	-133.015	47.814	0	437.90	0	4.3730	0	33.9350	0	26.904	0	433.773	0	51.5	4	16.4	4	-1E+10	1	-1E+10	1	-1E+10	1	-1E+10	1	-1E+10	1	-1E+10	1
4902549	122	C	12/31/2023	18:12	-133.015	47.814	0	443.20	0	4.3530	0	33.9430	0	26.912	0	439.018	0	50.5	4	16.1	4	-1E+10	1	-1E+10	1	-1E+10	1	-1E+10	1	-1E+10	1	-1E+10	1
4902549	122	C	12/31/2023	18:12	-133.015	47.814	0	448.20	0	4.3430	0	33.9470	0	26.916	0	443.965	0	49.7	4	15.8	4	-1E+10	1	-1E+10	1	-1E+10	1	-1E+10	1	-1E+10	1	-1E+10	1
4902549	122	C	12/31/2023	18:12	-133.015	47.814	0	453.20	0	4.3340	0	33.9510	0	26.921	0	448.913	0	48.6	4	15.5	4	-1E+10	1	-1E+10	1	-1E+10	1	-1E+10	1	-1E+10	1	-1E+10	1
4902549	122	C	12/31/2023	18:12	-133.015	47.814	0	458.20	0	4.3240	0	33.9550	0	26.925	0	453.860	0	47.7	4	15.2	4	-1E+10	1	-1E+10	1	-1E+10	1	-1E+10	1	-1E+10	1	-1E+10	1
4902549	122	C	12/31/2023	18:12	-133.015	47.814	0	462.90	0	4.3130	0	33.9600	0	26.930	0	458.510	0	46.8	4	14.9	4	-1E+10	1	-1E+10	1	-1E+10	1	-1E+10	1	-1E+10	1	-1E+10	1
4902549	122	C	12/31/2023	18:12	-133.015	47.814	0	467.60	0	4.3020	0	33.9630	0	26.934	0	463.161	0	46.0	4	14.6	4	-1E+10	1	-1E+10	1	-1E+10	1	-1E+10	1	-1E+10	1	-1E+10	1
4902549	122	C	12/31/2023	18:12	-133.015	47.814	0	472.70	0	4.2990	0	33.9680	0	26.938	0	468.206	0	45.0	4	14.3	4	-1E+10	1	-1E+10	1	-1E+10	1	-1E+10	1	-1E+10	1	-1E+10	1
4902549	122	C	12/31/2023	18:12	-133.015	47.814	0	477.80	0	4.2990	0	33.9740	0	26.943	0	473.252	0	43.7	4	13.9	4	-1E+10	1	-1E+10	1	-1E+10	1	-1E+10	1	-1E+10	1	-1E+10	1
4902549	122	C	12/31/2023	18:12	-133.015	47.814	0	483.00	0	4.2780	0	33.9810	0	26.950	0	478.397	0	42.5	4	13.5	4	-1E+10	1	-1E+10	1	-1E+10	1	-1E+10	1	-1E+10	1	-1E+10	1
4902549	122	C	12/31/2023	18:12	-133.015	47.814	0	488.10	0	4.2680	0	33.9850	0	26.955	0	483.442	0	41.4	4	13.1	4	-1E+10	1	-1E+10	1	-1E+10	1	-1E+10	1	-1E+10	1	-1E+10	1
4902549	122	C	12/31/2023	18:12	-133.015	47.814	0	492.80	0	4.2550	0	33.9900	0	26.960	0	488.092	0	40.1	4	12.7	4	-1E+10	1	-1E+10	1	-1E+10	1	-1E+10	1	-1E+10	1	-1E+10	1
4902549	122	C	12/31/2023	18:12	-133.015	47.814	0	497.60	0	4.2440	0	33.9960	0	26.966	0	492.840	0	38.9	4	12.3	4	-1E+10	1	-1E+10	1	-1E+10	1	-1E+10	1	-1E+10	1	-1E+10	1
4902549	122	C	12/31/2023	18:12	-133.015	47.814	0	502.80	0	4.2300	0	34.0040	0	26.974	0	497.984	0	37.7	4	11.9	4	-1E+10	1	-1E+10	1	-1E+10	1	-1E+10	1	-1E+10	1	-1E+10	1
4902549	122	C	12/31/2023	18:12	-133.015	47.814	0	508.10	0	4.2170	0	34.0130	0	26.983	0	503.227	0	36.7	4	11.6	4	-1E+10	1	-1E+10	1	-1E+10	1	-1E+10	1	-1E+10	1	-1E+10	1
4902549	122	C	12/31/2023	18:12	-133.015	47.814	0	513.00	0	4.2090	0	34.0180	0	26.987	0	508.074	0	35.9	4	11.4	4	-1E+10	1	-1E+10	1	-1E+10	1	-1E+10	1	-1E+10	1	-1E+10	1
4902549	122	C	12/31/2023	18:12	-133.015	47.814	0	517.90	0	4.2100	0	34.0230	0	26.991	0	512.921	0	35.1	4	11.1	4	-1E+10	1	-1E+10	1	-1E+10	1	-1E+10	1	-1E+10	1	-1E+10	1
4902549	122	C	12/31/2023	18:12	-133.015	47.814	0	523.00	0	4.2090	0	34.0260	0	26.994	0	517.966	0	34.2	4	10.8	4	-1E+10	1	-1E+10	1	-1E+10	1	-1E+10	1	-1E+10	1	-1E+10	1
4902549	122	C	12/31/2023	18:12	-133.015	47.814	0	527.90	0	4.2030	0	34.0300	0	26.998	0	522.812	0	33.0	4	10.5	4	-1E+10	1	-1E+10	1	-1E+10	1	-1E+10	1	-1E+10	1	-1E+10	1
4902549	122	C	12/31/2023	18:12	-133.015	47.814	0	533.00	0	4.1910	0	34.0370	0	27.004	0	527.857	0	31.8	4	10.1	4	-1E+10	1	-1E+10	1	-1E+10	1	-1E+10	1	-1E+10	1	-1E+10	1
4902549	122	C	12/31/2023	18:12	-133.015	47.814	0	538.00	0	4.1840	0	34.0450	0	27.012	0	532.802	0	30.7	4	9.7	4	-1E+10	1	-1E+10	1	-1E+10	1	-1E+10	1	-1E+10	1	-1E+10	1
4902549	122	C	12/31/2023	18:12	-133.015	47.814	0	543.10	0	4.1750	0	34.0510	0	27.017	0	537.846	0	29.8	4	9.4	4	-1E+10	1	-1E+10	1	-1E+10	1	-1E+10	1	-1E+10	1	-1E+10	1
4902549	122	C	12/31/2023	18:12	-133.015	47.814	0	547.80	0	4.1650	0	34.0560	0	27.022	0	542.494	0	29.1	4	9.2	4	-1E+10	1	-1E+10	1	-1E+10	1	-1E+10	1	-1E+10	1	-1E+10	1
4902549	122	C	12/31/2023	18:12	-133.015	47.814	0	553.00	0	4.1530	0	34.0620	0	27.028	0	547.637	0	28.5	4	9.0	4	-1E+10	1	-1E+10	1	-1E+10	1	-1E+10	1	-1E+10	1	-1E+10	1
4902549	122	C	12/31/2023	18:12	-133.015	47.814	0	558.30	0	4.1430	0	34.0670	0	27.034	0	552.879	0	27.7	4	8.8	4	-1E+10	1	-1E+10	1	-1E+10	1	-1E+10	1	-1E+10	1	-1E+10	1
4902549	122	C	12/31/2023	18:12	-133.015	47.814	0	563.00	0	4.1320	0	34.0700	0	27.037	0	557.527	0	27.0	4	8.5	4	-1E+10	1	-1E+10	1	-1E+10	1	-1E+10	1	-1E+10	1	-1E+10	1
4902549	122	C	12/31/2023	18:12	-133.015	47.814	0	567.90	0	4.1190	0	34.0750	0	27.042	0	562.373	0	26.3	4	8.3	4	-1E+10	1	-1E+10	1	-1E+10	1	-1E+10	1	-1E+10	1	-1E+10	1
4902549	122	C	12/31/2023	18:12	-133.015	47.814	0	572.70	0	4.1010	0	34.0810	0	27.049	0	567.119	0	25.5	4	8.1	4	-1E+10	1	-1E+10	1	-1E+10	1	-1E+10	1	-1E+10	1	-1E+10	1
4902549	122	C	12/31/2023	18:12	-133.015	47.814	0	577.70	0	4.0800	0	34.0860	0	27.055	0	572.064	0	24.7	4	7.8	4	-1E+10	1	-1E+10	1	-1E+10	1	-1E+10	1	-1E+10	1	-1E+10	1
4902549	122	C	12/31/2023	18:12	-133.015	47.814	0	582.70	0	4.0770	0	34.0910	0	27.060	0	577.008	0	24.0	4	7.6	4	-1E+10	1	-1E+10	1	-1E+10	1	-1E+10	1	-1E+10	1	-1E+10	1
4902549	122	C	12/31/2023	18:12	-133.015	47.814	0	587.70	0	4.0700	0	34.0960	0	27.064	0	581.952	0	23.6	4	7.4	4	-1E+10	1	-1E+10	1	-1E+10	1	-1E+10	1	-1E+10	1	-1E+10	1
4902549	122	C	12/31/2023	18:12	-133.015	47.814	0	592.70	0	4.0560	0	34.1010	0	27.070	0	586.896	0	23.3	4	7.4	4	-1E+10	1	-1E+10	1	-1E+10	1	-1E+10	1	-1E+10	1	-1E+10	1
4902549	122	C	12/31/2023	18:12	-133.015	47.814	0	597.80	0	4.0450	0	34.1050	0	27.074	0	591.939	0	23.2	4	7.3	4	-1E+10	1	-1E+10	1	-1E+10	1	-1E+10	1	-1E+10	1	-1E+10	1
4902549	122	C	12/31/2023	18:12	-133.015	47.814	0	602.90	0	4.0310	0	34.1080	0	27.078	0	596.982	0	23.0	4	7.3	4	-1E+10	1	-1E+10	1	-1E+10	1	-1E+10	1	-1E+10	1	-1E+10	1
4902549	122	C	12/31/2023	18:12	-133.015	47.814	0	607.90	0	4.0120	0	34.1130	0	27.084	0	601.925	0	22.5	4	7.1	4	-1E+10	1	-1E+10	1	-1E+10	1	-1E+10	1	-1E+10	1	-1E+10	1
4902549	122	C	12/31/2023	18:12	-133.015	47.814	0	613.00	0	3.9950	0	34.1190	0	27.090	0	606.968	0	22.0	4	6.9	4	-1E+10	1	-1E+10	1	-1E+10	1	-1E+10	1	-1E+10	1	-1E+10	1
4902549	122	C	12/31/2023	18:12	-133.015	47.814	0	618.20	0	3.9840	0	34.1230	0	27.095	0	612.109	0	21.4	4	6.7	4	-1E+10	1	-1E+10	1	-1E+10	1	-1E+10	1	-1E+10	1	-1E+10	1
4902549	122	C	12/31/2023	18:12	-133.015	47.814	0	622.90	0	3.9670	0	34.1290	0	27.101	0	616.756	0	20.7	4	6.5	4	-1E+10	1	-1E+10	1	-1E+10	1	-1E+10	1	-1E+10	1	-1E+10	1
4902549	122	C	12/31/2023	18:12	-133.015	47.814	0	627.60	0	3.9520	0	34.1350	0	27.108	0	621.402	0	20.1	4	6.4	4	-1E+10	1	-1E+10	1	-1E+10	1	-1E+10	1	-1E+10	1	-1E+10	1
4902549	122	C	12/31/2023	18:12	-133.015	47.814	0	632.90	0	3.9400	0	34.1400	0	27.113	0	626.642	0	19.7	4	6.2	4	-1E+10	1	-1E+10	1	-1E+10	1	-1E+10	1	-1E+10	1	-1E+10	1
4902549	122	C	12/31/2023	18:12	-133.015	47.814	0	638.20	0	3.9320	0	34.1440	0	27.117	0	631.882	0	19.3	4	6.1	4	-1E+10	1	-1E+10	1	-1E+10	1	-1E+10	1	-1E+10	1	-1E+10	1
4902549	122	C	12/31/2023	18:12	-133.015	47.814	0	642.80	0	3.9170	0	34.1480	0	27.122	0	636.429	0	19.1	4	6.0	4	-1E+10	1	-1E+10	1	-1E+10	1	-1E+10	1	-1E+10	1	-1E+10	1
4902549	122	C	12/31/2023	18:12	-133.015	47.814	0	647.90	0	3.9090	0	34.1500	0	27.124	0	641.471	0	18.7	4	5.9	4	-1E+10	1	-1E+10	1	-1E+10	1	-1E+10	1	-1E+10	1	-1E+10	1
4902549	122	C	12/31/2023	18:12	-133.015	47.814	0	653.10	0	3.8910	0	34.1540	0	27.129	0	646.611	0	18.2	4	5.7	4	-1E+10	1	-1E+10	1	-1E+10	1	-1E+10	1	-1E+10	1	-1E+10	1
4902549	122	C	12/31/2023	18:12	-133.015	47.814	0	657.90	0	3.8750	0	34.1580	0	27.134	0	651.356	0	17.6	4	5.6	4	-1E+10	1	-1E+10	1	-1E+10	1	-1E+10	1	-1E+10	1	-1E+10	1
4902549	122	C	12/31/2023	18:12	-133.015	47.814	0	662.70	0	3.8630	0	34.1630	0	27.139	0	656.101	0	17.2	4	5.4	4	-1E+10	1	-1E+10	1	-1E+10	1	-1E+10	1	-1E+10	1	-1E+10	1
4902549	122	C	12/31/2023	18:12	-133.015	47.814	0	667.60	0	3.8530	0	34.1660	0	27.143	0	660.944	0	16.7	4	5.3	4	-1E+10	1	-1E+10	1	-1E+10	1	-1E+10	1	-1E+10	1	-1E+10	1
4902549	122	C	12/31/2023	18:12	-133.015	47.814	0	672.60	0	3.8370	0	34.1720	0	27.149	0	665.886	0	16.2	4	5.1	4	-1E+10	1	-1E+10	1	-1E+10	1	-1E+10	1	-1E+10	1	-1E+10	1
4902549	122	C	12/31/2023	18:12	-133.015	47.814	0	677.60	0	3.8220	0	34.1760	0	27.154	0	670.828	0	15.8	4	5.0	4	-1E+10	1	-1E+10	1	-1E+10	1	-1E+10	1	-1E+10	1	-1E+10	1
4902549	122	C	12/31/2023	18:12	-133.015	47.814	0	682.70	0	3.8060	0	34.1820	0	27.160	0	675.869	0	15.5	4	4.9	4	-1E+10	1	-1E+10	1	-1E+10	1	-1E+10	1	-1E+10	1	-1E+10	1
4902549	122	C	12/31/2023	18:12	-133.015	47.814	0	687.70	0	3.7870	0	34.1860	0	27.165	0	680.811	0	15.3	4	4.8	4	-1E+10	1	-1E+10	1	-1E+10	1	-1E+10	1	-1E+10	1	-1E+10	1
4902549	122	C	12/31/2023	18:12	-133.015	47.814	0	692.80	0	3.7750	0	34.1900	0	27.170	0	685.851	0	15.0	4	4.7	4	-1E+10	1	-1E+10	1	-1E+10	1	-1E+10	1	-1E+10	1	-1E+10	1
4902549	122	C	12/31/2023	18:12	-133.015	47.814	0	697.90	0	3.7690	0	34.1920	0	27.172	0	690.892	0	14.7	4	4.6	4	-1E+10	1	-1E+10	1	-1E+10	1	-1E+10	1	-1E+10	1	-1E+10	1
4902549	122	C	12/31/2023	18:12	-133.015	47.814	0	703.00	0	3.7460	0	34.1990	0	27.180	0	695.932	0	14.2	4	4.5	4	-1E+10	1	-1E+10	1	-1E+10	1	-1E+10	1	-1E+10	1	-1E+10	1
4902549	122	C	12/31/2023	18:12	-133.015	47.814	0	708.10	0	3.7250	0	34.2050	0	27.187	0	700.972	0	13.9	4	4.4	4	-1E+10	1	-1E+10	1	-1E+10	1	-1E+10	1	-1E+10	1	-1E+10	1
4902549	122	C	12/31/2023	18:12	-133.015	47.814	0	712.80	0	3.7170	0	34.2080	0	27.190	0	705.617	0	13.6	4	4.3	4	-1E+10	1	-1E+10	1	-1E+10	1	-1E+10	1	-1E+10	1	-1E+10	1
4902549	122	C	12/31/2023	18:12	-133.015	47.814	0	717.70	0	3.7060	0	34.2120	0	27.194	0	710.459	0	13.3	4	4.2	4	-1E+10	1	-1E+10	1	-1E+10	1	-1E+10	1	-1E+10	1	-1E+10	1
4902549	122	C	12/31/2023	18:12	-133.015	47.814	0	723.00	0	3.6900	0	34.2170	0	27.200	0	715.697	0	13.0	4	4.1	4	-1E+10	1	-1E+10	1	-1E+10	1	-1E+10	1	-1E+10	1	-1E+10	1
4902549	122	C	12/31/2023	18:12	-133.015	47.814	0	728.10	0	3.6810	0	34.2200	0	27.203	0	720.736	0	12.9	4	4.0	4	-1E+10	1	-1E+10	1	-1E+10	1	-1E+10	1	-1E+10	1	-1E+10	1
4902549	122	C	12/31/2023	18:12	-133.015	47.814	0	733.00	0	3.6800	0	34.2220	0	27.205	0	725.578	0	12.6	4	3.9	4	-1E+10	1	-1E+10	1	-1E+10	1	-1E+10	1	-1E+10	1	-1E+10	1
4902549	122	C	12/31/2023	18:12	-133.015	47.814	0	738.10	0	3.6730	0	34.2240	0	27.207	0	730.618	0	12.4	4	3.9	4	-1E+10	1	-1E+10	1	-1E+10	1	-1E+10	1	-1E+10	1	-1E+10	1
4902549	122	C	12/31/2023	18:12	-133.015	47.814	0	743.10	0	3.6650	0	34.2270	0	27.210	0	735.558	0	12.2	4	3.8	4	-1E+10	1	-1E+10	1	-1E+10	1	-1E+10	1	-1E+10	1	-1E+10	1
4902549	122	C	12/31/2023	18:12	-133.015	47.814	0	748.10	0	3.6540	0	34.2300	0	27.214	0	740.499	0	11.9	4	3.7	4	-1E+10	1	-1E+10	1	-1E+10	1	-1E+10	1	-1E+10	1	-1E+10	1
4902549	122	C	12/31/2023	18:12	-133.015	47.814	0	752.70	0	3.6460	0	34.2330	0	27.217	0	745.044	0	11.7	4	3.7	4	-1E+10	1	-1E+10	1	-1E+10	1	-1E+10	1	-1E+10	1	-1E+10	1
4902549	122	C	12/31/2023	18:12	-133.015	47.814	0	757.90	0	3.6400	0	34.2360	0	27.220	0	750.181	0	11.6	4	3.6	4	-1E+10	1	-1E+10	1	-1E+10	1	-1E+10	1	-1E+10	1	-1E+10	1
4902549	122	C	12/31/2023	18:12	-133.015	47.814	0	763.30	0	3.6330	0	34.2380	0	27.222	0	755.517	0	11.6	4	3.6	4	-1E+10	1	-1E+10	1	-1E+10	1	-1E+10	1	-1E+10	1	-1E+10	1
4902549	122	C	12/31/2023	18:12	-133.015	47.814	0	768.20	0	3.6250	0	34.2400	0	27.225	0	760.358	0	11.6	4	3.6	4	-1E+10	1	-1E+10	1	-1E+10	1	-1E+10	1	-1E+10	1	-1E+10	1
4902549	122	C	12/31/2023	18:12	-133.015	47.814	0	773.30	0	3.6130	0	34.2410	0	27.227	0	765.396	0	11.6	4	3.6	4	-1E+10	1	-1E+10	1	-1E+10	1	-1E+10	1	-1E+10	1	-1E+10	1
4902549	122	C	12/31/2023	18:12	-133.015	47.814	0	777.90	0	3.6020	0	34.2430	0	27.229	0	769.941	0	11.5	4	3.6	4	-1E+10	1	-1E+10	1	-1E+10	1	-1E+10	1	-1E+10	1	-1E+10	1
4902549	122	C	12/31/2023	18:12	-133.015	47.814	0	782.60	0	3.5960	0	34.2440	0	27.231	0	774.584	0	11.4	4	3.6	4	-1E+10	1	-1E+10	1	-1E+10	1	-1E+10	1	-1E+10	1	-1E+10	1
4902549	122	C	12/31/2023	18:12	-133.015	47.814	0	788.00	0	3.5930	0	34.2450	0	27.232	0	779.919	0	11.3	4	3.5	4	-1E+10	1	-1E+10	1	-1E+10	1	-1E+10	1	-1E+10	1	-1E+10	1
4902549	122	C	12/31/2023	18:12	-133.015	47.814	0	793.10	0	3.5880	0	34.2470	0	27.234	0	784.957	0	11.2	4	3.5	4	-1E+10	1	-1E+10	1	-1E+10	1	-1E+10	1	-1E+10	1	-1E+10	1
4902549	122	C	12/31/2023	18:12	-133.015	47.814	0	798.00	0	3.5830	0	34.2480	0	27.235	0	789.797	0	11.0	4	3.4	4	-1E+10	1	-1E+10	1	-1E+10	1	-1E+10	1	-1E+10	1	-1E+10	1
4902549	122	C	12/31/2023	18:12	-133.015	47.814	0	802.80	0	3.5760	0	34.2510	0	27.238	0	794.539	0	10.8	4	3.4	4	-1E+10	1	-1E+10	1	-1E+10	1	-1E+10	1	-1E+10	1	-1E+10	1
4902549	122	C	12/31/2023	18:12	-133.015	47.814	0	807.70	0	3.5610	0	34.2550	0	27.243	0	799.379	0	10.6	4	3.3	4	-1E+10	1	-1E+10	1	-1E+10	1	-1E+10	1	-1E+10	1	-1E+10	1
4902549	122	C	12/31/2023	18:12	-133.015	47.814	0	812.70	0	3.5510	0	34.2580	0	27.247	0	804.318	0	10.4	4	3.3	4	-1E+10	1	-1E+10	1	-1E+10	1	-1E+10	1	-1E+10	1	-1E+10	1
4902549	122	C	12/31/2023	18:12	-133.015	47.814	0	817.60	0	3.5460	0	34.2620	0	27.250	0	809.158	0	10.6	4	3.3	4	-1E+10	1	-1E+10	1	-1E+10	1	-1E+10	1	-1E+10	1	-1E+10	1
4902549	122	C	12/31/2023	18:12	-133.015	47.814	0	822.60	0	3.5260	0	34.2610	0	27.251	0	814.096	0	10.6	4	3.3	4	-1E+10	1	-1E+10	1	-1E+10	1	-1E+10	1	-1E+10	1	-1E+10	1
4902549	122	C	12/31/2023	18:12	-133.015	47.814	0	827.60	0	3.5160	0	34.2630	0	27.254	0	819.035	0	10.4	4	3.3	4	-1E+10	1	-1E+10	1	-1E+10	1	-1E+10	1	-1E+10	1	-1E+10	1
4902549	122	C	12/31/2023	18:12	-133.015	47.814	0	832.50	0	3.5080	0	34.2650	0	27.256	0	823.875	0	10.2	4	3.2	4	-1E+10	1	-1E+10	1	-1E+10	1	-1E+10	1	-1E+10	1	-1E+10	1
4902549	122	C	12/31/2023	18:12	-133.015	47.814	0	837.50	0	3.4980	0	34.2680	0	27.260	0	828.813	0	9.8	4	3.0	4	-1E+10	1	-1E+10	1	-1E+10	1	-1E+10	1	-1E+10	1	-1E+10	1
4902549	122	C	12/31/2023	18:12	-133.015	47.814	0	842.60	0	3.4920	0	34.2730	0	27.264	0	833.850	0	9.1	4	2.8	4	-1E+10	1	-1E+10	1	-1E+10	1	-1E+10	1	-1E+10	1	-1E+10	1
4902549	122	C	12/31/2023	18:12	-133.015	47.814	0	847.60	0	3.4950	0	34.2770	0	27.267	0	838.788	0	8.4	4	2.6	4	-1E+10	1	-1E+10	1	-1E+10	1	-1E+10	1	-1E+10	1	-1E+10	1
4902549	122	C	12/31/2023	18:12	-133.015	47.814	0	852.70	0	3.5010	0	34.2840	0	27.272	0	843.825	0	8.1	4	2.5	4	-1E+10	1	-1E+10	1	-1E+10	1	-1E+10	1	-1E+10	1	-1E+10	1
4902549	122	C	12/31/2023	18:12	-133.015	47.814	0	857.70	0	3.4990	0	34.2870	0	27.275	0	848.762	0	8.1	4	2.5	4	-1E+10	1	-1E+10	1	-1E+10	1	-1E+10	1	-1E+10	1	-1E+10	1
4902549	122	C	12/31/2023	18:12	-133.015	47.814	0	862.70	0	3.4830	0	34.2880	0	27.277	0	853.700	0	8.1	4	2.5	4	-1E+10	1	-1E+10	1	-1E+10	1	-1E+10	1	-1E+10	1	-1E+10	1
4902549	122	C	12/31/2023	18:12	-133.015	47.814	0	867.80	0	3.4820	0	34.2910	0	27.280	0	858.736	0	8.0	4	2.5	4	-1E+10	1	-1E+10	1	-1E+10	1	-1E+10	1	-1E+10	1	-1E+10	1
4902549	122	C	12/31/2023	18:12	-133.015	47.814	0	872.90	0	3.4690	0	34.2930	0	27.283	0	863.773	0	8.1	4	2.5	4	-1E+10	1	-1E+10	1	-1E+10	1	-1E+10	1	-1E+10	1	-1E+10	1
4902549	122	C	12/31/2023	18:12	-133.015	47.814	0	878.00	0	3.4610	0	34.2960	0	27.286	0	868.809	0	8.0	4	2.5	4	-1E+10	1	-1E+10	1	-1E+10	1	-1E+10	1	-1E+10	1	-1E+10	1
4902549	122	C	12/31/2023	18:12	-133.015	47.814	0	883.00	0	3.4470	0	34.2980	0	27.289	0	873.746	0	8.0	4	2.5	4	-1E+10	1	-1E+10	1	-1E+10	1	-1E+10	1	-1E+10	1	-1E+10	1
4902549	122	C	12/31/2023	18:12	-133.015	47.814	0	888.10	0	3.4200	0	34.3000	0	27.293	0	878.782	0	7.8	4	2.4	4	-1E+10	1	-1E+10	1	-1E+10	1	-1E+10	1	-1E+10	1	-1E+10	1
4902549	122	C	12/31/2023	18:12	-133.015	47.814	0	893.20	0	3.4390	0	34.3040	0	27.294	0	883.817	0	7.3	4	2.3	4	-1E+10	1	-1E+10	1	-1E+10	1	-1E+10	1	-1E+10	1	-1E+10	1
4902549	122	C	12/31/2023	18:12	-133.015	47.814	0	897.90	0	3.4480	0	34.3080	0	27.297	0	888.458	0	7.4	4	2.3	4	-1E+10	1	-1E+10	1	-1E+10	1	-1E+10	1	-1E+10	1	-1E+10	1
4902549	122	C	12/31/2023	18:12	-133.015	47.814	0	902.70	0	3.4170	0	34.3090	0	27.301	0	893.197	0	7.7	4	2.4	4	-1E+10	1	-1E+10	1	-1E+10	1	-1E+10	1	-1E+10	1	-1E+10	1
4902549	122	C	12/31/2023	18:12	-133.015	47.814	0	908.00	0	3.3850	0	34.3090	0	27.304	0	898.430	0	7.6	4	2.4	4	-1E+10	1	-1E+10	1	-1E+10	1	-1E+10	1	-1E+10	1	-1E+10	1
4902549	122	C	12/31/2023	18:12	-133.015	47.814	0	912.80	0	3.3910	0	34.3120	0	27.306	0	903.169	0	7.3	4	2.3	4	-1E+10	1	-1E+10	1	-1E+10	1	-1E+10	1	-1E+10	1	-1E+10	1
4902549	122	C	12/31/2023	18:12	-133.015	47.814	0	917.70	0	3.3980	0	34.3160	0	27.308	0	908.007	0	7.2	4	2.2	4	-1E+10	1	-1E+10	1	-1E+10	1	-1E+10	1	-1E+10	1	-1E+10	1
4902549	122	C	12/31/2023	18:12	-133.015	47.814	0	923.00	0	3.3880	0	34.3190	0	27.311	0	913.239	0	7.1	4	2.2	4	-1E+10	1	-1E+10	1	-1E+10	1	-1E+10	1	-1E+10	1	-1E+10	1
4902549	122	C	12/31/2023	18:12	-133.015	47.814	0	927.90	0	3.3710	0	34.3220	0	27.316	0	918.077	0	7.1	4	2.2	4	-1E+10	1	-1E+10	1	-1E+10	1	-1E+10	1	-1E+10	1	-1E+10	1
4902549	122	C	12/31/2023	18:12	-133.015	47.814	0	932.80	0	3.3500	0	34.3250	0	27.320	0	922.914	0	7.1	4	2.2	4	-1E+10	1	-1E+10	1	-1E+10	1	-1E+10	1	-1E+10	1	-1E+10	1
4902549	122	C	12/31/2023	18:12	-133.015	47.814	0	938.10	0	3.3270	0	34.3280	0	27.324	0	928.146	0	7.1	4	2.2	4	-1E+10	1	-1E+10	1	-1E+10	1	-1E+10	1	-1E+10	1	-1E+10	1
4902549	122	C	12/31/2023	18:12	-133.015	47.814	0	943.20	0	3.3100	0	34.3310	0	27.329	0	933.181	0	7.1	4	2.2	4	-1E+10	1	-1E+10	1	-1E+10	1	-1E+10	1	-1E+10	1	-1E+10	1
4902549	122	C	12/31/2023	18:12	-133.015	47.814	0	947.80	0	3.3040	0	34.3320	0	27.330	0	937.722	0	7.1	4	2.2	4	-1E+10	1	-1E+10	1	-1E+10	1	-1E+10	1	-1E+10	1	-1E+10	1
4902549	122	C	12/31/2023	18:12	-133.015	47.814	0	952.90	0	3.2890	0	34.3330	0	27.332	0	942.756	0	7.2	4	2.2	4	-1E+10	1	-1E+10	1	-1E+10	1	-1E+10	1	-1E+10	1	-1E+10	1
4902549	122	C	12/31/2023	18:12	-133.015	47.814	0	958.10	0	3.2700	0	34.3340	0	27.335	0	947.889	0	7.2	4	2.2	4	-1E+10	1	-1E+10	1	-1E+10	1	-1E+10	1	-1E+10	1	-1E+10	1
4902549	122	C	12/31/2023	18:12	-133.015	47.814	0	962.80	0	3.2540	0	34.3370	0	27.339	0	952.528	0	7.1	4	2.2	4	-1E+10	1	-1E+10	1	-1E+10	1	-1E+10	1	-1E+10	1	-1E+10	1
4902549	122	C	12/31/2023	18:12	-133.015	47.814	0	967.60	0	3.2420	0	34.3400	0	27.342	0	957.266	0	7.1	4	2.2	4	-1E+10	1	-1E+10	1	-1E+10	1	-1E+10	1	-1E+10	1	-1E+10	1
4902549	122	C	12/31/2023	18:12	-133.015	47.814	0	972.50	0	3.2270	0	34.3440	0	27.347	0	962.102	0	7.0	4	2.2	4	-1E+10	1	-1E+10	1	-1E+10	1	-1E+10	1	-1E+10	1	-1E+10	1
4902549	122	C	12/31/2023	18:12	-133.015	47.814	0	977.90	0	3.2260	0	34.3470	0	27.349	0	967.432	0	7.0	4	2.2	4	-1E+10	1	-1E+10	1	-1E+10	1	-1E+10	1	-1E+10	1	-1E+10	1
4902549	122	C	12/31/2023	18:12	-133.015	47.814	0	983.40	0	3.2200	0	34.3490	0	27.352	0	972.860	0	7.0	4	2.2	4	-1E+10	1	-1E+10	1	-1E+10	1	-1E+10	1	-1E+10	1	-1E+10	1
4902549	122	C	12/31/2023	18:12	-133.015	47.814	0	987.90	0	3.2060	0	34.3500	0	27.354	0	977.302	0	7.0	4	2.2	4	-1E+10	1	-1E+10	1	-1E+10	1	-1E+10	1	-1E+10	1	-1E+10	1
4902549	122	C	12/31/2023	18:12	-133.015	47.814	0	992.50	0	3.2040	0	34.3510	0	27.355	0	981.842	0	6.9	4	2.2	4	-1E+10	1	-1E+10	1	-1E+10	1	-1E+10	1	-1E+10	1	-1E+10	1
4902549	122	C	12/31/2023	18:12	-133.015	47.814	0	997.50	0	3.2030	0	34.3520	0	27.356	0	986.776	0	6.9	4	2.1	4	-1E+10	1	-1E+10	1	-1E+10	1	-1E+10	1	-1E+10	1	-1E+10	1
4902549	122	C	12/31/2023	18:12	-133.015	47.814	0	1005.10	0	3.1880	0	34.3550	0	27.359	0	994.276	0	6.9	4	2.1	4	-1E+10	1	-1E+10	1	-1E+10	1	-1E+10	1	-1E+10	1	-1E+10	1
4902549	122	C	12/31/2023	18:12	-133.015	47.814	0	1015.70	0	3.1710	0	34.3590	0	27.364	0	1004.737	0	6.9	4	2.1	4	-1E+10	1	-1E+10	1	-1E+10	1	-1E+10	1	-1E+10	1	-1E+10	1
4902549	122	C	12/31/2023	18:12	-133.015	47.814	0	1025.40	0	3.1470	0	34.3630	0	27.370	0	1014.309	0	7.0	4	2.2	4	-1E+10	1	-1E+10	1	-1E+10	1	-1E+10	1	-1E+10	1	-1E+10	1
4902549	122	C	12/31/2023	18:12	-133.015	47.814	0	1035.40	0	3.1350	0	34.3640	0	27.372	0	1024.176	0	7.0	4	2.2	4	-1E+10	1	-1E+10	1	-1E+10	1	-1E+10	1	-1E+10	1	-1E+10	1
4902549	122	C	12/31/2023	18:12	-133.015	47.814	0	1045.40	0	3.1160	0	34.3680	0	27.377	0	1034.043	0	7.0	4	2.2	4	-1E+10	1	-1E+10	1	-1E+10	1	-1E+10	1	-1E+10	1	-1E+10	1
4902549	122	C	12/31/2023	18:12	-133.015	47.814	0	1055.30	0	3.0990	0	34.3720	0	27.381	0	1043.811	0	7.0	4	2.2	4	-1E+10	1	-1E+10	1	-1E+10	1	-1E+10	1	-1E+10	1	-1E+10	1
4902549	122	C	12/31/2023	18:12	-133.015	47.814	0	1065.30	0	3.0870	0	34.3780	0	27.387	0	1053.677	0	7.0	4	2.2	4	-1E+10	1	-1E+10	1	-1E+10	1	-1E+10	1	-1E+10	1	-1E+10	1
4902549	122	C	12/31/2023	18:12	-133.015	47.814	0	1075.20	0	3.0860	0	34.3840	0	27.392	0	1063.444	0	7.0	4	2.2	4	-1E+10	1	-1E+10	1	-1E+10	1	-1E+10	1	-1E+10	1	-1E+10	1
4902549	122	C	12/31/2023	18:12	-133.015	47.814	0	1085.50	0	3.0680	0	34.3860	0	27.396	0	1073.605	0	7.1	4	2.2	4	-1E+10	1	-1E+10	1	-1E+10	1	-1E+10	1	-1E+10	1	-1E+10	1
4902549	122	C	12/31/2023	18:12	-133.015	47.814	0	1095.60	0	3.0540	0	34.3890	0	27.399	0	1083.568	0	7.1	4	2.2	4	-1E+10	1	-1E+10	1	-1E+10	1	-1E+10	1	-1E+10	1	-1E+10	1
4902549	122	C	12/31/2023	18:12	-133.015	47.814	0	1105.50	0	3.0390	0	34.3930	0	27.404	0	1093.334	0	7.2	4	2.2	4	-1E+10	1	-1E+10	1	-1E+10	1	-1E+10	1	-1E+10	1	-1E+10	1
4902549	122	C	12/31/2023	18:12	-133.015	47.814	0	1115.70	0	3.0230	0	34.3980	0	27.409	0	1103.395	0	7.3	4	2.3	4	-1E+10	1	-1E+10	1	-1E+10	1	-1E+10	1	-1E+10	1	-1E+10	1
4902549	122	C	12/31/2023	18:12	-133.015	47.814	0	1125.40	0	3.0110	0	34.4000	0	27.412	0	1112.962	0	7.4	4	2.3	4	-1E+10	1	-1E+10	1	-1E+10	1	-1E+10	1	-1E+10	1	-1E+10	1
4902549	122	C	12/31/2023	18:12	-133.015	47.814	0	1135.20	0	2.9780	0	34.4020	0	27.417	0	1122.627	0	7.5	4	2.3	4	-1E+10	1	-1E+10	1	-1E+10	1	-1E+10	1	-1E+10	1	-1E+10	1
4902549	122	C	12/31/2023	18:12	-133.015	47.814	0	1145.30	0	2.9570	0	34.4050	0	27.421	0	1132.588	0	7.6	4	2.4	4	-1E+10	1	-1E+10	1	-1E+10	1	-1E+10	1	-1E+10	1	-1E+10	1
4902549	122	C	12/31/2023	18:12	-133.015	47.814	0	1155.50	0	2.9380	0	34.4060	0	27.424	0	1142.647	0	7.8	4	2.4	4	-1E+10	1	-1E+10	1	-1E+10	1	-1E+10	1	-1E+10	1	-1E+10	1
4902549	122	C	12/31/2023	18:12	-133.015	47.814	0	1165.70	0	2.9140	0	34.4100	0	27.429	0	1152.706	0	8.0	4	2.5	4	-1E+10	1	-1E+10	1	-1E+10	1	-1E+10	1	-1E+10	1	-1E+10	1
4902549	122	C	12/31/2023	18:12	-133.015	47.814	0	1175.50	0	2.8890	0	34.4140	0	27.435	0	1162.370	0	8.2	4	2.5	4	-1E+10	1	-1E+10	1	-1E+10	1	-1E+10	1	-1E+10	1	-1E+10	1
4902549	122	C	12/31/2023	18:12	-133.015	47.814	0	1185.50	0	2.8650	0	34.4180	0	27.440	0	1172.230	0	8.3	4	2.6	4	-1E+10	1	-1E+10	1	-1E+10	1	-1E+10	1	-1E+10	1	-1E+10	1
4902549	122	C	12/31/2023	18:12	-133.015	47.814	0	1195.70	0	2.8430	0	34.4210	0	27.444	0	1182.287	0	8.5	4	2.6	4	-1E+10	1	-1E+10	1	-1E+10	1	-1E+10	1	-1E+10	1	-1E+10	1
4902549	122	C	12/31/2023	18:12	-133.015	47.814	0	1205.50	0	2.8270	0	34.4240	0	27.448	0	1191.950	0	8.7	4	2.7	4	-1E+10	1	-1E+10	1	-1E+10	1	-1E+10	1	-1E+10	1	-1E+10	1
4902549	122	C	12/31/2023	18:12	-133.015	47.814	0	1215.40	0	2.8130	0	34.4280	0	27.453	0	1201.710	0	8.9	4	2.7	4	-1E+10	1	-1E+10	1	-1E+10	1	-1E+10	1	-1E+10	1	-1E+10	1
4902549	122	C	12/31/2023	18:12	-133.015	47.814	0	1225.30	0	2.8020	0	34.4300	0	27.455	0	1211.470	0	9.0	4	2.8	4	-1E+10	1	-1E+10	1	-1E+10	1	-1E+10	1	-1E+10	1	-1E+10	1
4902549	122	C	12/31/2023	18:12	-133.015	47.814	0	1235.30	0	2.7960	0	34.4330	0	27.458	0	1221.328	0	9.2	4	2.8	4	-1E+10	1	-1E+10	1	-1E+10	1	-1E+10	1	-1E+10	1	-1E+10	1
4902549	122	C	12/31/2023	18:12	-133.015	47.814	0	1245.30	0	2.7830	0	34.4360	0	27.462	0	1231.186	0	9.5	4	2.9	4	-1E+10	1	-1E+10	1	-1E+10	1	-1E+10	1	-1E+10	1	-1E+10	1
4902549	122	C	12/31/2023	18:12	-133.015	47.814	0	1255.50	0	2.7650	0	34.4390	0	27.466	0	1241.240	0	9.8	4	3.0	4	-1E+10	1	-1E+10	1	-1E+10	1	-1E+10	1	-1E+10	1	-1E+10	1
4902549	122	C	12/31/2023	18:12	-133.015	47.814	0	1265.70	0	2.7530	0	34.4430	0	27.470	0	1251.294	0	10.2	4	3.1	4	-1E+10	1	-1E+10	1	-1E+10	1	-1E+10	1	-1E+10	1	-1E+10	1
4902549	122	C	12/31/2023	18:12	-133.015	47.814	0	1275.70	0	2.7460	0	34.4460	0	27.473	0	1261.150	0	10.6	4	3.3	4	-1E+10	1	-1E+10	1	-1E+10	1	-1E+10	1	-1E+10	1	-1E+10	1
4902549	122	C	12/31/2023	18:12	-133.015	47.814	0	1285.50	0	2.7300	0	34.4520	0	27.479	0	1270.809	0	11.0	4	3.4	4	-1E+10	1	-1E+10	1	-1E+10	1	-1E+10	1	-1E+10	1	-1E+10	1
4902549	122	C	12/31/2023	18:12	-133.015	47.814	0	1295.40	0	2.7160	0	34.4540	0	27.482	0	1280.566	0	11.3	4	3.5	4	-1E+10	1	-1E+10	1	-1E+10	1	-1E+10	1	-1E+10	1	-1E+10	1
4902549	122	C	12/31/2023	18:12	-133.015	47.814	0	1305.70	0	2.6990	0	34.4570	0	27.486	0	1290.716	0	11.6	4	3.6	4	-1E+10	1	-1E+10	1	-1E+10	1	-1E+10	1	-1E+10	1	-1E+10	1
4902549	122	C	12/31/2023	18:12	-133.015	47.814	0	1315.50	0	2.6790	0	34.4600	0	27.490	0	1300.373	0	12.1	4	3.7	4	-1E+10	1	-1E+10	1	-1E+10	1	-1E+10	1	-1E+10	1	-1E+10	1
4902549	122	C	12/31/2023	18:12	-133.015	47.814	0	1325.60	0	2.6640	0	34.4620	0	27.493	0	1310.326	0	12.3	4	3.8	4	-1E+10	1	-1E+10	1	-1E+10	1	-1E+10	1	-1E+10	1	-1E+10	1
4902549	122	C	12/31/2023	18:12	-133.015	47.814	0	1335.60	0	2.6570	0	34.4640	0	27.496	0	1320.179	0	12.6	4	3.8	4	-1E+10	1	-1E+10	1	-1E+10	1	-1E+10	1	-1E+10	1	-1E+10	1
4902549	122	C	12/31/2023	18:12	-133.015	47.814	0	1345.20	0	2.6470	0	34.4660	0	27.498	0	1329.638	0	12.8	4	3.9	4	-1E+10	1	-1E+10	1	-1E+10	1	-1E+10	1	-1E+10	1	-1E+10	1
4902549	122	C	12/31/2023	18:12	-133.015	47.814	0	1355.20	0	2.6380	0	34.4680	0	27.501	0	1339.491	0	13.2	4	4.0	4	-1E+10	1	-1E+10	1	-1E+10	1	-1E+10	1	-1E+10	1	-1E+10	1
4902549	122	C	12/31/2023	18:12	-133.015	47.814	0	1365.60	0	2.6210	0	34.4700	0	27.504	0	1349.737	0	13.5	4	4.1	4	-1E+10	1	-1E+10	1	-1E+10	1	-1E+10	1	-1E+10	1	-1E+10	1
4902549	122	C	12/31/2023	18:12	-133.015	47.814	0	1375.40	0	2.6060	0	34.4720	0	27.507	0	1359.392	0	13.9	4	4.2	4	-1E+10	1	-1E+10	1	-1E+10	1	-1E+10	1	-1E+10	1	-1E+10	1
4902549	122	C	12/31/2023	18:12	-133.015	47.814	0	1385.20	0	2.5860	0	34.4740	0	27.510	0	1369.046	0	14.4	4	4.4	4	-1E+10	1	-1E+10	1	-1E+10	1	-1E+10	1	-1E+10	1	-1E+10	1
4902549	122	C	12/31/2023	18:12	-133.015	47.814	0	1395.20	0	2.5730	0	34.4770	0	27.514	0	1378.896	0	14.9	4	4.6	4	-1E+10	1	-1E+10	1	-1E+10	1	-1E+10	1	-1E+10	1	-1E+10	1
4902549	122	C	12/31/2023	18:12	-133.015	47.814	0	1405.20	0	2.5760	0	34.4810	0	27.517	0	1388.747	0	15.5	4	4.7	4	-1E+10	1	-1E+10	1	-1E+10	1	-1E+10	1	-1E+10	1	-1E+10	1
4902549	122	C	12/31/2023	18:12	-133.015	47.814	0	1415.30	0	2.5740	0	34.4840	0	27.519	0	1398.695	0	16.0	4	4.9	4	-1E+10	1	-1E+10	1	-1E+10	1	-1E+10	1	-1E+10	1	-1E+10	1
4902549	122	C	12/31/2023	18:12	-133.015	47.814	0	1425.50	0	2.5490	0	34.4860	0	27.523	0	1408.741	0	16.5	4	5.0	4	-1E+10	1	-1E+10	1	-1E+10	1	-1E+10	1	-1E+10	1	-1E+10	1
4902549	122	C	12/31/2023	18:12	-133.015	47.814	0	1435.80	0	2.5350	0	34.4880	0	27.526	0	1418.886	0	16.9	4	5.2	4	-1E+10	1	-1E+10	1	-1E+10	1	-1E+10	1	-1E+10	1	-1E+10	1
4902549	122	C	12/31/2023	18:12	-133.015	47.814	0	1445.80	0	2.5240	0	34.4910	0	27.529	0	1428.734	0	17.4	4	5.3	4	-1E+10	1	-1E+10	1	-1E+10	1	-1E+10	1	-1E+10	1	-1E+10	1
4902549	122	C	12/31/2023	18:12	-133.015	47.814	0	1455.40	0	2.5130	0	34.4920	0	27.531	0	1438.188	0	17.9	4	5.5	4	-1E+10	1	-1E+10	1	-1E+10	1	-1E+10	1	-1E+10	1	-1E+10	1
4902549	122	C	12/31/2023	18:12	-133.015	47.814	0	1465.00	0	2.4980	0	34.4940	0	27.534	0	1447.642	0	18.4	4	5.6	4	-1E+10	1	-1E+10	1	-1E+10	1	-1E+10	1	-1E+10	1	-1E+10	1
4902549	122	C	12/31/2023	18:12	-133.015	47.814	0	1475.10	0	2.4730	0	34.4970	0	27.538	0	1457.587	0	19.0	4	5.8	4	-1E+10	1	-1E+10	1	-1E+10	1	-1E+10	1	-1E+10	1	-1E+10	1
4902549	122	C	12/31/2023	18:12	-133.015	47.814	0	1485.30	0	2.4530	0	34.4990	0	27.542	0	1467.631	0	19.5	4	6.0	4	-1E+10	1	-1E+10	1	-1E+10	1	-1E+10	1	-1E+10	1	-1E+10	1
4902549	122	C	12/31/2023	18:12	-133.015	47.814	0	1495.40	0	2.4390	0	34.5010	0	27.545	0	1477.575	0	20.2	4	6.2	4	-1E+10	1	-1E+10	1	-1E+10	1	-1E+10	1	-1E+10	1	-1E+10	1
4902549	122	C	12/31/2023	18:12	-133.015	47.814	0	1505.50	0	2.4130	0	34.5040	0	27.549	0	1487.519	0	20.8	4	6.3	4	-1E+10	1	-1E+10	1	-1E+10	1	-1E+10	1	-1E+10	1	-1E+10	1
4902549	122	C	12/31/2023	18:12	-133.015	47.814	0	1515.80	0	2.3860	0	34.5060	0	27.553	0	1497.660	0	21.4	4	6.5	4	-1E+10	1	-1E+10	1	-1E+10	1	-1E+10	1	-1E+10	1	-1E+10	1
4902549	122	C	12/31/2023	18:12	-133.015	47.814	0	1525.60	0	2.3740	0	34.5080	0	27.556	0	1507.308	0	22.2	4	6.8	4	-1E+10	1	-1E+10	1	-1E+10	1	-1E+10	1	-1E+10	1	-1E+10	1
4902549	122	C	12/31/2023	18:12	-133.015	47.814	0	1535.10	0	2.3620	0	34.5120	0	27.560	0	1516.660	0	23.0	4	7.0	4	-1E+10	1	-1E+10	1	-1E+10	1	-1E+10	1	-1E+10	1	-1E+10	1
4902549	122	C	12/31/2023	18:12	-133.015	47.814	0	1545.10	0	2.3570	0	34.5140	0	27.562	0	1526.503	0	23.7	4	7.2	4	-1E+10	1	-1E+10	1	-1E+10	1	-1E+10	1	-1E+10	1	-1E+10	1
4902549	122	C	12/31/2023	18:12	-133.015	47.814	0	1555.30	0	2.3290	0	34.5160	0	27.566	0	1536.544	0	24.5	4	7.5	4	-1E+10	1	-1E+10	1	-1E+10	1	-1E+10	1	-1E+10	1	-1E+10	1
4902549	122	C	12/31/2023	18:12	-133.015	47.814	0	1565.30	0	2.3200	0	34.5200	0	27.570	0	1546.387	0	25.3	4	7.7	4	-1E+10	1	-1E+10	1	-1E+10	1	-1E+10	1	-1E+10	1	-1E+10	1
4902549	122	C	12/31/2023	18:12	-133.015	47.814	0	1575.20	0	2.3100	0	34.5210	0	27.572	0	1556.130	0	25.9	4	7.9	4	-1E+10	1	-1E+10	1	-1E+10	1	-1E+10	1	-1E+10	1	-1E+10	1
4902549	122	C	12/31/2023	18:12	-133.015	47.814	0	1585.40	0	2.2970	0	34.5230	0	27.574	0	1566.169	0	26.5	4	8.0	4	-1E+10	1	-1E+10	1	-1E+10	1	-1E+10	1	-1E+10	1	-1E+10	1
4902549	122	C	12/31/2023	18:12	-133.015	47.814	0	1595.30	0	2.2860	0	34.5250	0	27.577	0	1575.912	0	26.9	4	8.2	4	-1E+10	1	-1E+10	1	-1E+10	1	-1E+10	1	-1E+10	1	-1E+10	1
4902549	122	C	12/31/2023	18:12	-133.015	47.814	0	1605.40	0	2.2720	0	34.5260	0	27.579	0	1585.852	0	27.6	4	8.4	4	-1E+10	1	-1E+10	1	-1E+10	1	-1E+10	1	-1E+10	1	-1E+10	1
4902549	122	C	12/31/2023	18:12	-133.015	47.814	0	1616.00	0	2.2530	0	34.5290	0	27.583	0	1596.283	0	28.2	4	8.5	4	-1E+10	1	-1E+10	1	-1E+10	1	-1E+10	1	-1E+10	1	-1E+10	1
4902549	122	C	12/31/2023	18:12	-133.015	47.814	0	1625.70	0	2.2440	0	34.5300	0	27.584	0	1605.828	0	28.6	4	8.7	4	-1E+10	1	-1E+10	1	-1E+10	1	-1E+10	1	-1E+10	1	-1E+10	1
4902549	122	C	12/31/2023	18:12	-133.015	47.814	0	1635.50	0	2.2320	0	34.5310	0	27.586	0	1615.471	0	29.2	4	8.9	4	-1E+10	1	-1E+10	1	-1E+10	1	-1E+10	1	-1E+10	1	-1E+10	1
4902549	122	C	12/31/2023	18:12	-133.015	47.814	0	1645.30	0	2.2220	0	34.5330	0	27.589	0	1625.113	0	29.9	4	9.1	4	-1E+10	1	-1E+10	1	-1E+10	1	-1E+10	1	-1E+10	1	-1E+10	1
4902549	122	C	12/31/2023	18:12	-133.015	47.814	0	1655.30	0	2.2090	0	34.5350	0	27.591	0	1634.952	0	30.7	4	9.3	4	-1E+10	1	-1E+10	1	-1E+10	1	-1E+10	1	-1E+10	1	-1E+10	1
4902549	122	C	12/31/2023	18:12	-133.015	47.814	0	1665.20	0	2.1980	0	34.5370	0	27.594	0	1644.692	0	31.4	4	9.5	4	-1E+10	1	-1E+10	1	-1E+10	1	-1E+10	1	-1E+10	1	-1E+10	1
4902549	122	C	12/31/2023	18:12	-133.015	47.814	0	1675.40	0	2.1800	0	34.5390	0	27.597	0	1654.726	0	32.3	4	9.8	4	-1E+10	1	-1E+10	1	-1E+10	1	-1E+10	1	-1E+10	1	-1E+10	1
4902549	122	C	12/31/2023	18:12	-133.015	47.814	0	1685.40	0	2.1640	0	34.5420	0	27.601	0	1664.564	0	33.1	4	10.0	4	-1E+10	1	-1E+10	1	-1E+10	1	-1E+10	1	-1E+10	1	-1E+10	1
4902549	122	C	12/31/2023	18:12	-133.015	47.814	0	1695.00	0	2.1540	0	34.5430	0	27.602	0	1674.007	0	33.8	4	10.2	4	-1E+10	1	-1E+10	1	-1E+10	1	-1E+10	1	-1E+10	1	-1E+10	1
4902549	122	C	12/31/2023	18:12	-133.015	47.814	0	1705.40	0	2.1410	0	34.5460	0	27.606	0	1684.237	0	34.5	4	10.4	4	-1E+10	1	-1E+10	1	-1E+10	1	-1E+10	1	-1E+10	1	-1E+10	1
4902549	122	C	12/31/2023	18:12	-133.015	47.814	0	1715.80	0	2.1300	0	34.5480	0	27.608	0	1694.466	0	35.2	4	10.6	4	-1E+10	1	-1E+10	1	-1E+10	1	-1E+10	1	-1E+10	1	-1E+10	1
4902549	122	C	12/31/2023	18:12	-133.015	47.814	0	1725.40	0	2.1200	0	34.5490	0	27.610	0	1703.909	0	35.9	4	10.8	4	-1E+10	1	-1E+10	1	-1E+10	1	-1E+10	1	-1E+10	1	-1E+10	1
4902549	122	C	12/31/2023	18:12	-133.015	47.814	0	1735.20	0	2.1070	0	34.5510	0	27.613	0	1713.547	0	36.5	4	11.0	4	-1E+10	1	-1E+10	1	-1E+10	1	-1E+10	1	-1E+10	1	-1E+10	1
4902549	122	C	12/31/2023	18:12	-133.015	47.814	0	1745.50	0	2.0970	0	34.5520	0	27.614	0	1723.677	0	37.0	4	11.2	4	-1E+10	1	-1E+10	1	-1E+10	1	-1E+10	1	-1E+10	1	-1E+10	1
4902549	122	C	12/31/2023	18:12	-133.015	47.814	0	1755.70	0	2.0910	0	34.5530	0	27.616	0	1733.707	0	37.4	4	11.3	4	-1E+10	1	-1E+10	1	-1E+10	1	-1E+10	1	-1E+10	1	-1E+10	1
4902549	122	C	12/31/2023	18:12	-133.015	47.814	0	1765.40	0	2.0860	0	34.5550	0	27.618	0	1743.246	0	37.9	4	11.5	4	-1E+10	1	-1E+10	1	-1E+10	1	-1E+10	1	-1E+10	1	-1E+10	1
4902549	122	C	12/31/2023	18:12	-133.015	47.814	0	1775.00	0	2.0770	0	34.5560	0	27.619	0	1752.686	0	38.7	4	11.7	4	-1E+10	1	-1E+10	1	-1E+10	1	-1E+10	1	-1E+10	1	-1E+10	1
4902549	122	C	12/31/2023	18:12	-133.015	47.814	0	1785.50	0	2.0640	0	34.5580	0	27.622	0	1763.010	0	39.5	4	11.9	4	-1E+10	1	-1E+10	1	-1E+10	1	-1E+10	1	-1E+10	1	-1E+10	1
4902549	122	C	12/31/2023	18:12	-133.015	47.814	0	1795.80	0	2.0540	0	34.5600	0	27.624	0	1773.138	0	40.2	4	12.1	4	-1E+10	1	-1E+10	1	-1E+10	1	-1E+10	1	-1E+10	1	-1E+10	1
4902549	122	C	12/31/2023	18:12	-133.015	47.814	0	1805.80	0	2.0470	0	34.5610	0	27.626	0	1782.970	0	40.7	4	12.3	4	-1E+10	1	-1E+10	1	-1E+10	1	-1E+10	1	-1E+10	1	-1E+10	1
4902549	122	C	12/31/2023	18:12	-133.015	47.814	0	1815.30	0	2.0440	0	34.5620	0	27.627	0	1792.310	0	41.2	4	12.4	4	-1E+10	1	-1E+10	1	-1E+10	1	-1E+10	1	-1E+10	1	-1E+10	1
4902549	122	C	12/31/2023	18:12	-133.015	47.814	0	1825.20	0	2.0320	0	34.5640	0	27.629	0	1802.042	0	42.0	4	12.7	4	-1E+10	1	-1E+10	1	-1E+10	1	-1E+10	1	-1E+10	1	-1E+10	1
4902549	122	C	12/31/2023	18:12	-133.015	47.814	0	1835.60	0	2.0270	0	34.5650	0	27.631	0	1812.266	0	42.4	4	12.8	4	-1E+10	1	-1E+10	1	-1E+10	1	-1E+10	1	-1E+10	1	-1E+10	1
4902549	122	C	12/31/2023	18:12	-133.015	47.814	0	1845.40	0	2.0230	0	34.5660	0	27.632	0	1821.899	0	42.8	4	12.9	4	-1E+10	1	-1E+10	1	-1E+10	1	-1E+10	1	-1E+10	1	-1E+10	1
4902549	122	C	12/31/2023	18:12	-133.015	47.814	0	1855.20	0	2.0180	0	34.5670	0	27.633	0	1831.532	0	43.4	4	13.1	4	-1E+10	1	-1E+10	1	-1E+10	1	-1E+10	1	-1E+10	1	-1E+10	1
4902549	122	C	12/31/2023	18:12	-133.015	47.814	0	1865.40	0	2.0080	0	34.5680	0	27.635	0	1841.558	0	44.3	4	13.3	4	-1E+10	1	-1E+10	1	-1E+10	1	-1E+10	1	-1E+10	1	-1E+10	1
4902549	122	C	12/31/2023	18:12	-133.015	47.814	0	1875.50	0	1.9960	0	34.5710	0	27.638	0	1851.485	0	45.2	4	13.6	4	-1E+10	1	-1E+10	1	-1E+10	1	-1E+10	1	-1E+10	1	-1E+10	1
4902549	122	C	12/31/2023	18:12	-133.015	47.814	0	1885.50	0	1.9890	0	34.5730	0	27.640	0	1861.313	0	46.2	4	13.9	4	-1E+10	1	-1E+10	1	-1E+10	1	-1E+10	1	-1E+10	1	-1E+10	1
4902549	122	C	12/31/2023	18:12	-133.015	47.814	0	1895.50	0	1.9800	0	34.5750	0	27.643	0	1871.141	0	46.8	4	14.1	4	-1E+10	1	-1E+10	1	-1E+10	1	-1E+10	1	-1E+10	1	-1E+10	1
4902549	122	C	12/31/2023	18:12	-133.015	47.814	0	1905.50	0	1.9730	0	34.5760	0	27.644	0	1880.968	0	47.4	4	14.3	4	-1E+10	1	-1E+10	1	-1E+10	1	-1E+10	1	-1E+10	1	-1E+10	1
4902549	122	C	12/31/2023	18:12	-133.015	47.814	0	1915.60	0	1.9640	0	34.5770	0	27.646	0	1890.893	0	48.0	4	14.5	4	-1E+10	1	-1E+10	1	-1E+10	1	-1E+10	1	-1E+10	1	-1E+10	1
4902549	122	C	12/31/2023	18:12	-133.015	47.814	0	1925.30	0	1.9580	0	34.5790	0	27.648	0	1900.425	0	48.7	4	14.7	4	-1E+10	1	-1E+10	1	-1E+10	1	-1E+10	1	-1E+10	1	-1E+10	1
4902549	122	C	12/31/2023	18:12	-133.015	47.814	0	1935.70	0	1.9580	0	34.5810	0	27.649	0	1910.644	0	49.7	4	15.0	4	-1E+10	1	-1E+10	1	-1E+10	1	-1E+10	1	-1E+10	1	-1E+10	1
4902549	122	C	12/31/2023	18:12	-133.015	47.814	0	1945.60	0	1.9550	0	34.5830	0	27.651	0	1920.371	0	50.4	4	15.2	4	-1E+10	1	-1E+10	1	-1E+10	1	-1E+10	1	-1E+10	1	-1E+10	1
4902549	122	C	12/31/2023	18:12	-133.015	47.814	0	1955.40	0	1.9510	0	34.5850	0	27.653	0	1930.000	0	50.9	4	15.3	4	-1E+10	1	-1E+10	1	-1E+10	1	-1E+10	1	-1E+10	1	-1E+10	1
4902549	122	C	12/31/2023	18:12	-133.015	47.814	0	1965.90	0	1.9440	0	34.5870	0	27.656	0	1940.316	0	51.2	4	15.4	4	-1E+10	1	-1E+10	1	-1E+10	1	-1E+10	1	-1E+10	1	-1E+10	1
4902549	122	C	12/31/2023	18:12	-133.015	47.814	0	1972.00	0	1.9400	0	34.5880	0	27.657	0	1946.308	0	50.7	4	15.3	4	-1E+10	1	-1E+10	1	-1E+10	1	-1E+10	1	-1E+10	1	-1E+10	1
4902549	122	C	12/31/2023	18:12	-133.015	47.814	0																										
4902549	123	C	01/10/2024	22:52	-133.164	47.916	0	0.40	0	9.3210	0	32.3320	0	24.980	0	0.397	0	263.9	4	92.9	4	-1E+10	1	-1E+10	1	-1E+10	1	-1E+10	1	-1E+10	1	-1E+10	1
4902549	123	C	01/10/2024	22:52	-133.164	47.916	0	0.80	0	9.3220	0	32.3300	0	24.978	0	0.793	0	-1e10	1	-1e10	1	-1E+10	1	-1E+10	1	-1E+10	1	-1E+10	1	-1E+10	1	-1E+10	1
4902549	123	C	01/10/2024	22:52	-133.164	47.916	0	1.10	0	9.3220	0	32.3297	0	24.978	0	1.091	0	263.8	4	92.9	4	-1E+10	1	-1E+10	1	-1E+10	1	-1E+10	1	-1E+10	1	-1E+10	1
4902549	123	C	01/10/2024	22:52	-133.164	47.916	0	1.90	0	9.3220	0	32.3290	0	24.977	0	1.884	0	-1e10	1	-1e10	1	-1E+10	1	-1E+10	1	-1E+10	1	-1E+10	1	-1E+10	1	-1E+10	1
4902549	123	C	01/10/2024	22:52	-133.164	47.916	0	2.00	0	9.3219	0	32.3291	0	24.977	0	1.983	0	263.8	4	92.9	4	-1E+10	1	-1E+10	1	-1E+10	1	-1E+10	1	-1E+10	1	-1E+10	1
4902549	123	C	01/10/2024	22:52	-133.164	47.916	0	3.00	0	9.3210	0	32.3300	0	24.978	0	2.975	0	263.8	4	92.8	4	-1E+10	1	-1E+10	1	-1E+10	1	-1E+10	1	-1E+10	1	-1E+10	1
4902549	123	C	01/10/2024	22:52	-133.164	47.916	0	3.10	0	9.3211	0	32.3299	0	24.978	0	3.074	0	-1e10	1	-1e10	1	-1E+10	1	-1E+10	1	-1E+10	1	-1E+10	1	-1E+10	1	-1E+10	1
4902549	123	C	01/10/2024	22:52	-133.164	47.916	0	3.30	0	9.3213	0	32.3297	0	24.978	0	3.272	0	-1e10	1	-1e10	1	-1E+10	1	-1E+10	1	-1E+10	1	-1E+10	1	-1E+10	1	-1E+10	1
4902549	123	C	01/10/2024	22:52	-133.164	47.916	0	3.90	0	9.3220	0	32.3290	0	24.977	0	3.867	0	263.8	4	92.9	4	-1E+10	1	-1E+10	1	-1E+10	1	-1E+10	1	-1E+10	1	-1E+10	1
4902549	123	C	01/10/2024	22:52	-133.164	47.916	0	4.70	0	9.3190	0	32.3320	0	24.980	0	4.661	0	263.8	4	92.8	4	-1E+10	1	-1E+10	1	-1E+10	1	-1E+10	1	-1E+10	1	-1E+10	1
4902549	123	C	01/10/2024	22:52	-133.164	47.916	0	4.90	0	9.3190	0	32.3318	0	24.980	0	4.859	0	263.8	4	92.8	4	-1E+10	1	-1E+10	1	-1E+10	1	-1E+10	1	-1E+10	1	-1E+10	1
4902549	123	C	01/10/2024	22:52	-133.164	47.916	0	5.80	0	9.3190	0	32.3310	0	24.979	0	5.751	0	263.7	4	92.8	4	-1E+10	1	-1E+10	1	-1E+10	1	-1E+10	1	-1E+10	1	-1E+10	1
4902549	123	C	01/10/2024	22:52	-133.164	47.916	0	6.80	0	9.3190	0	32.3310	0	24.979	0	6.743	0	263.7	4	92.8	4	-1E+10	1	-1E+10	1	-1E+10	1	-1E+10	1	-1E+10	1	-1E+10	1
4902549	123	C	01/10/2024	22:52	-133.164	47.916	0	8.00	0	9.3200	0	32.3310	0	24.979	0	7.933	0	263.7	4	92.8	4	-1E+10	1	-1E+10	1	-1E+10	1	-1E+10	1	-1E+10	1	-1E+10	1
4902549	123	C	01/10/2024	22:52	-133.164	47.916	0	9.10	0	9.3200	0	32.3310	0	24.979	0	9.024	0	263.7	4	92.8	4	-1E+10	1	-1E+10	1	-1E+10	1	-1E+10	1	-1E+10	1	-1E+10	1
4902549	123	C	01/10/2024	22:52	-133.164	47.916	0	9.90	0	9.3190	0	32.3310	0	24.979	0	9.817	0	263.6	4	92.8	4	-1E+10	1	-1E+10	1	-1E+10	1	-1E+10	1	-1E+10	1	-1E+10	1
4902549	123	C	01/10/2024	22:52	-133.164	47.916	0	10.90	0	9.3180	0	32.3310	0	24.979	0	10.808	0	263.6	4	92.8	4	-1E+10	1	-1E+10	1	-1E+10	1	-1E+10	1	-1E+10	1	-1E+10	1
4902549	123	C	01/10/2024	22:52	-133.164	47.916	0	11.80	0	9.3180	0	32.3310	0	24.979	0	11.701	0	263.6	4	92.8	4	-1E+10	1	-1E+10	1	-1E+10	1	-1E+10	1	-1E+10	1	-1E+10	1
4902549	123	C	01/10/2024	22:52	-133.164	47.916	0	12.80	0	9.3180	0	32.3310	0	24.980	0	12.692	0	263.5	4	92.8	4	-1E+10	1	-1E+10	1	-1E+10	1	-1E+10	1	-1E+10	1	-1E+10	1
4902549	123	C	01/10/2024	22:52	-133.164	47.916	0	13.80	0	9.3180	0	32.3310	0	24.980	0	13.684	0	263.6	4	92.8	4	-1E+10	1	-1E+10	1	-1E+10	1	-1E+10	1	-1E+10	1	-1E+10	1
4902549	123	C	01/10/2024	22:52	-133.164	47.916	0	14.90	0	9.3180	0	32.3310	0	24.980	0	14.775	0	263.5	4	92.8	4	-1E+10	1	-1E+10	1	-1E+10	1	-1E+10	1	-1E+10	1	-1E+10	1
4902549	123	C	01/10/2024	22:52	-133.164	47.916	0	16.30	0	9.3190	0	32.3310	0	24.979	0	16.163	0	263.4	4	92.7	4	-1E+10	1	-1E+10	1	-1E+10	1	-1E+10	1	-1E+10	1	-1E+10	1
4902549	123	C	01/10/2024	22:52	-133.164	47.916	0	17.10	0	9.3180	0	32.3310	0	24.980	0	16.956	0	263.4	4	92.7	4	-1E+10	1	-1E+10	1	-1E+10	1	-1E+10	1	-1E+10	1	-1E+10	1
4902549	123	C	01/10/2024	22:52	-133.164	47.916	0	18.00	0	9.3180	0	32.3310	0	24.980	0	17.848	0	263.4	4	92.7	4	-1E+10	1	-1E+10	1	-1E+10	1	-1E+10	1	-1E+10	1	-1E+10	1
4902549	123	C	01/10/2024	22:52	-133.164	47.916	0	18.90	0	9.3170	0	32.3310	0	24.980	0	18.741	0	263.5	4	92.7	4	-1E+10	1	-1E+10	1	-1E+10	1	-1E+10	1	-1E+10	1	-1E+10	1
4902549	123	C	01/10/2024	22:52	-133.164	47.916	0	19.90	0	9.3170	0	32.3310	0	24.980	0	19.732	0	263.4	4	92.7	4	-1E+10	1	-1E+10	1	-1E+10	1	-1E+10	1	-1E+10	1	-1E+10	1
4902549	123	C	01/10/2024	22:52	-133.164	47.916	0	20.90	0	9.3180	0	32.3310	0	24.980	0	20.724	0	263.4	4	92.7	4	-1E+10	1	-1E+10	1	-1E+10	1	-1E+10	1	-1E+10	1	-1E+10	1
4902549	123	C	01/10/2024	22:52	-133.164	47.916	0	22.10	0	9.3170	0	32.3310	0	24.980	0	21.914	0	263.4	4	92.7	4	-1E+10	1	-1E+10	1	-1E+10	1	-1E+10	1	-1E+10	1	-1E+10	1
4902549	123	C	01/10/2024	22:52	-133.164	47.916	0	22.70	0	9.3170	0	32.3310	0	24.980	0	22.508	0	263.3	4	92.7	4	-1E+10	1	-1E+10	1	-1E+10	1	-1E+10	1	-1E+10	1	-1E+10	1
4902549	123	C	01/10/2024	22:52	-133.164	47.916	0	23.90	0	9.3180	0	32.3310	0	24.980	0	23.698	0	263.3	4	92.7	4	-1E+10	1	-1E+10	1	-1E+10	1	-1E+10	1	-1E+10	1	-1E+10	1
4902549	123	C	01/10/2024	22:52	-133.164	47.916	0	24.80	0	9.3190	0	32.3310	0	24.980	0	24.591	0	263.3	4	92.7	4	-1E+10	1	-1E+10	1	-1E+10	1	-1E+10	1	-1E+10	1	-1E+10	1
4902549	123	C	01/10/2024	22:52	-133.164	47.916	0	25.90	0	9.3190	0	32.3310	0	24.980	0	25.681	0	263.3	4	92.7	4	-1E+10	1	-1E+10	1	-1E+10	1	-1E+10	1	-1E+10	1	-1E+10	1
4902549	123	C	01/10/2024	22:52	-133.164	47.916	0	27.20	0	9.3190	0	32.3310	0	24.980	0	26.970	0	263.3	4	92.7	4	-1E+10	1	-1E+10	1	-1E+10	1	-1E+10	1	-1E+10	1	-1E+10	1
4902549	123	C	01/10/2024	22:52	-133.164	47.916	0	28.00	0	9.3190	0	32.3310	0	24.980	0	27.763	0	263.3	4	92.7	4	-1E+10	1	-1E+10	1	-1E+10	1	-1E+10	1	-1E+10	1	-1E+10	1
4902549	123	C	01/10/2024	22:52	-133.164	47.916	0	29.10	0	9.3190	0	32.3310	0	24.980	0	28.854	0	263.2	4	92.6	4	-1E+10	1	-1E+10	1	-1E+10	1	-1E+10	1	-1E+10	1	-1E+10	1
4902549	123	C	01/10/2024	22:52	-133.164	47.916	0	30.00	0	9.3200	0	32.3310	0	24.979	0	29.746	0	263.2	4	92.6	4	-1E+10	1	-1E+10	1	-1E+10	1	-1E+10	1	-1E+10	1	-1E+10	1
4902549	123	C	01/10/2024	22:52	-133.164	47.916	0	30.80	0	9.3210	0	32.3310	0	24.979	0	30.539	0	263.1	4	92.6	4	-1E+10	1	-1E+10	1	-1E+10	1	-1E+10	1	-1E+10	1	-1E+10	1
4902549	123	C	01/10/2024	22:52	-133.164	47.916	0	31.90	0	9.3210	0	32.3310	0	24.979	0	31.630	0	263.2	4	92.6	4	-1E+10	1	-1E+10	1	-1E+10	1	-1E+10	1	-1E+10	1	-1E+10	1
4902549	123	C	01/10/2024	22:52	-133.164	47.916	0	33.20	0	9.3220	0	32.3310	0	24.979	0	32.919	0	263.1	4	92.6	4	-1E+10	1	-1E+10	1	-1E+10	1	-1E+10	1	-1E+10	1	-1E+10	1
4902549	123	C	01/10/2024	22:52	-133.164	47.916	0	33.90	0	9.3220	0	32.3310	0	24.979	0	33.613	0	263.1	4	92.6	4	-1E+10	1	-1E+10	1	-1E+10	1	-1E+10	1	-1E+10	1	-1E+10	1
4902549	123	C	01/10/2024	22:52	-133.164	47.916	0	34.80	0	9.3220	0	32.3310	0	24.979	0	34.505	0	263.1	4	92.6	4	-1E+10	1	-1E+10	1	-1E+10	1	-1E+10	1	-1E+10	1	-1E+10	1
4902549	123	C	01/10/2024	22:52	-133.164	47.916	0	35.60	0	9.3230	0	32.3310	0	24.979	0	35.298	0	263.2	4	92.6	4	-1E+10	1	-1E+10	1	-1E+10	1	-1E+10	1	-1E+10	1	-1E+10	1
4902549	123	C	01/10/2024	22:52	-133.164	47.916	0	36.90	0	9.3230	0	32.3310	0	24.979	0	36.587	0	263.1	4	92.6	4	-1E+10	1	-1E+10	1	-1E+10	1	-1E+10	1	-1E+10	1	-1E+10	1
4902549	123	C	01/10/2024	22:52	-133.164	47.916	0	38.20	0	9.3230	0	32.3310	0	24.979	0	37.876	0	263.0	4	92.6	4	-1E+10	1	-1E+10	1	-1E+10	1	-1E+10	1	-1E+10	1	-1E+10	1
4902549	123	C	01/10/2024	22:52	-133.164	47.916	0	39.10	0	9.3230	0	32.3310	0	24.979	0	38.769	0	263.1	4	92.6	4	-1E+10	1	-1E+10	1	-1E+10	1	-1E+10	1	-1E+10	1	-1E+10	1
4902549	123	C	01/10/2024	22:52	-133.164	47.916	0	40.10	0	9.3230	0	32.3310	0	24.979	0	39.760	0	263.0	4	92.6	4	-1E+10	1	-1E+10	1	-1E+10	1	-1E+10	1	-1E+10	1	-1E+10	1
4902549	123	C	01/10/2024	22:52	-133.164	47.916	0	41.00	0	9.3230	0	32.3310	0	24.979	0	40.652	0	263.0	4	92.6	4	-1E+10	1	-1E+10	1	-1E+10	1	-1E+10	1	-1E+10	1	-1E+10	1
4902549	123	C	01/10/2024	22:52	-133.164	47.916	0	41.90	0	9.3230	0	32.3310	0	24.979	0	41.545	0	262.9	4	92.6	4	-1E+10	1	-1E+10	1	-1E+10	1	-1E+10	1	-1E+10	1	-1E+10	1
4902549	123	C	01/10/2024	22:52	-133.164	47.916	0	43.00	0	9.3230	0	32.3310	0	24.979	0	42.635	0	263.0	4	92.6	4	-1E+10	1	-1E+10	1	-1E+10	1	-1E+10	1	-1E+10	1	-1E+10	1
4902549	123	C	01/10/2024	22:52	-133.164	47.916	0	43.90	0	9.3230	0	32.3310	0	24.979	0	43.527	0	263.0	4	92.6	4	-1E+10	1	-1E+10	1	-1E+10	1	-1E+10	1	-1E+10	1	-1E+10	1
4902549	123	C	01/10/2024	22:52	-133.164	47.916	0	44.90	0	9.3230	0	32.3310	0	24.979	0	44.519	0	263.0	4	92.6	4	-1E+10	1	-1E+10	1	-1E+10	1	-1E+10	1	-1E+10	1	-1E+10	1
4902549	123	C	01/10/2024	22:52	-133.164	47.916	0	45.80	0	9.3240	0	32.3310	0	24.979	0	45.411	0	262.9	4	92.6	4	-1E+10	1	-1E+10	1	-1E+10	1	-1E+10	1	-1E+10	1	-1E+10	1
4902549	123	C	01/10/2024	22:52	-133.164	47.916	0	46.70	0	9.3240	0	32.3310	0	24.979	0	46.303	0	262.9	4	92.6	4	-1E+10	1	-1E+10	1	-1E+10	1	-1E+10	1	-1E+10	1	-1E+10	1
4902549	123	C	01/10/2024	22:52	-133.164	47.916	0	47.60	0	9.3240	0	32.3310	0	24.979	0	47.195	0	262.9	4	92.6	4	-1E+10	1	-1E+10	1	-1E+10	1	-1E+10	1	-1E+10	1	-1E+10	1
4902549	123	C	01/10/2024	22:52	-133.164	47.916	0	48.90	0	9.3240	0	32.3310	0	24.979	0	48.484	0	262.9	4	92.6	4	-1E+10	1	-1E+10	1	-1E+10	1	-1E+10	1	-1E+10	1	-1E+10	1
4902549	123	C	01/10/2024	22:52	-133.164	47.916	0	50.20	0	9.3240	0	32.3310	0	24.979	0	49.773	0	262.9	4	92.5	4	-1E+10	1	-1E+10	1	-1E+10	1	-1E+10	1	-1E+10	1	-1E+10	1
4902549	123	C	01/10/2024	22:52	-133.164	47.916	0	50.90	0	9.3240	0	32.3310	0	24.979	0	50.467	0	262.9	4	92.5	4	-1E+10	1	-1E+10	1	-1E+10	1	-1E+10	1	-1E+10	1	-1E+10	1
4902549	123	C	01/10/2024	22:52	-133.164	47.916	0	52.00	0	9.3240	0	32.3310	0	24.979	0	51.558	0	262.9	4	92.5	4	-1E+10	1	-1E+10	1	-1E+10	1	-1E+10	1	-1E+10	1	-1E+10	1
4902549	123	C	01/10/2024	22:52	-133.164	47.916	0	53.10	0	9.3250	0	32.3310	0	24.979	0	52.648	0	262.8	4	92.5	4	-1E+10	1	-1E+10	1	-1E+10	1	-1E+10	1	-1E+10	1	-1E+10	1
4902549	123	C	01/10/2024	22:52	-133.164	47.916	0	54.10	0	9.3250	0	32.3310	0	24.979	0	53.639	0	262.8	4	92.5	4	-1E+10	1	-1E+10	1	-1E+10	1	-1E+10	1	-1E+10	1	-1E+10	1
4902549	123	C	01/10/2024	22:52	-133.164	47.916	0	55.10	0	9.3250	0	32.3310	0	24.979	0	54.631	0	262.6	4	92.5	4	-1E+10	1	-1E+10	1	-1E+10	1	-1E+10	1	-1E+10	1	-1E+10	1
4902549	123	C	01/10/2024	22:52	-133.164	47.916	0	56.10	0	9.3250	0	32.3310	0	24.979	0	55.622	0	262.8	4	92.5	4	-1E+10	1	-1E+10	1	-1E+10	1	-1E+10	1	-1E+10	1	-1E+10	1
4902549	123	C	01/10/2024	22:52	-133.164	47.916	0	57.00	0	9.3250	0	32.3310	0	24.979	0	56.514	0	262.7	4	92.5	4	-1E+10	1	-1E+10	1	-1E+10	1	-1E+10	1	-1E+10	1	-1E+10	1
4902549	123	C	01/10/2024	22:52	-133.164	47.916	0	57.90	0	9.3250	0	32.3310	0	24.979	0	57.407	0	262.6	4	92.5	4	-1E+10	1	-1E+10	1	-1E+10	1	-1E+10	1	-1E+10	1	-1E+10	1
4902549	123	C	01/10/2024	22:52	-133.164	47.916	0	59.10	0	9.3250	0	32.3310	0	24.979	0	58.596	0	262.6	4	92.4	4	-1E+10	1	-1E+10	1	-1E+10	1	-1E+10	1	-1E+10	1	-1E+10	1
4902549	123	C	01/10/2024	22:52	-133.164	47.916	0	59.80	0	9.3240	0	32.3310	0	24.979	0	59.290	0	262.6	4	92.4	4	-1E+10	1	-1E+10	1	-1E+10	1	-1E+10	1	-1E+10	1	-1E+10	1
4902549	123	C	01/10/2024	22:52	-133.164	47.916	0	60.80	0	9.3240	0	32.3310	0	24.979	0	60.281	0	262.5	4	92.4	4	-1E+10	1	-1E+10	1	-1E+10	1	-1E+10	1	-1E+10	1	-1E+10	1
4902549	123	C	01/10/2024	22:52	-133.164	47.916	0	62.00	0	9.3240	0	32.3310	0	24.979	0	61.471	0	262.4	4	92.4	4	-1E+10	1	-1E+10	1	-1E+10	1	-1E+10	1	-1E+10	1	-1E+10	1
4902549	123	C	01/10/2024	22:52	-133.164	47.916	0	62.70	0	9.3240	0	32.3310	0	24.979	0	62.165	0	262.4	4	92.4	4	-1E+10	1	-1E+10	1	-1E+10	1	-1E+10	1	-1E+10	1	-1E+10	1
4902549	123	C	01/10/2024	22:52	-133.164	47.916	0	63.90	0	9.3240	0	32.3310	0	24.979	0	63.354	0	262.4	4	92.4	4	-1E+10	1	-1E+10	1	-1E+10	1	-1E+10	1	-1E+10	1	-1E+10	1
4902549	123	C	01/10/2024	22:52	-133.164	47.916	0	65.20	0	9.3240	0	32.3310	0	24.979	0	64.643	0	262.4	4	92.4	4	-1E+10	1	-1E+10	1	-1E+10	1	-1E+10	1	-1E+10	1	-1E+10	1
4902549	123	C	01/10/2024	22:52	-133.164	47.916	0	66.00	0	9.3250	0	32.3310	0	24.979	0	65.436	0	262.3	4	92.3	4	-1E+10	1	-1E+10	1	-1E+10	1	-1E+10	1	-1E+10	1	-1E+10	1
4902549	123	C	01/10/2024	22:52	-133.164	47.916	0	66.90	0	9.3250	0	32.3310	0	24.979	0	66.328	0	262.2	4	92.3	4	-1E+10	1	-1E+10	1	-1E+10	1	-1E+10	1	-1E+10	1	-1E+10	1
4902549	123	C	01/10/2024	22:52	-133.164	47.916	0	67.90	0	9.3250	0	32.3310	0	24.979	0	67.320	0	262.1	4	92.3	4	-1E+10	1	-1E+10	1	-1E+10	1	-1E+10	1	-1E+10	1	-1E+10	1
4902549	123	C	01/10/2024	22:52	-133.164	47.916	0	68.80	0	9.3250	0	32.3310	0	24.979	0	68.212	0	262.1	4	92.3	4	-1E+10	1	-1E+10	1	-1E+10	1	-1E+10	1	-1E+10	1	-1E+10	1
4902549	123	C	01/10/2024	22:52	-133.164	47.916	0	69.60	0	9.3250	0	32.3310	0	24.979	0	69.005	0	262.1	4	92.3	4	-1E+10	1	-1E+10	1	-1E+10	1	-1E+10	1	-1E+10	1	-1E+10	1
4902549	123	C	01/10/2024	22:52	-133.164	47.916	0	70.90	0	9.3250	0	32.3310	0	24.979	0	70.294	0	262.0	4	92.2	4	-1E+10	1	-1E+10	1	-1E+10	1	-1E+10	1	-1E+10	1	-1E+10	1
4902549	123	C	01/10/2024	22:52	-133.164	47.916	0	72.10	0	9.3260	0	32.3310	0	24.979	0	71.483	0	262.0	4	92.2	4	-1E+10	1	-1E+10	1	-1E+10	1	-1E+10	1	-1E+10	1	-1E+10	1
4902549	123	C	01/10/2024	22:52	-133.164	47.916	0	72.90	0	9.3250	0	32.3310	0	24.979	0	72.276	0	261.9	4	92.2	4	-1E+10	1	-1E+10	1	-1E+10	1	-1E+10	1	-1E+10	1	-1E+10	1
4902549	123	C	01/10/2024	22:52	-133.164	47.916	0	73.90	0	9.3250	0	32.3310	0	24.979	0	73.267	0	261.8	4	92.2	4	-1E+10	1	-1E+10	1	-1E+10	1	-1E+10	1	-1E+10	1	-1E+10	1
4902549	123	C	01/10/2024	22:52	-133.164	47.916	0	75.00	0	9.3260	0	32.3310	0	24.979	0	74.358	0	261.7	4	92.1	4	-1E+10	1	-1E+10	1	-1E+10	1	-1E+10	1	-1E+10	1	-1E+10	1
4902549	123	C	01/10/2024	22:52	-133.164	47.916	0	75.90	0	9.3260	0	32.3310	0	24.979	0	75.250	0	261.6	4	92.1	4	-1E+10	1	-1E+10	1	-1E+10	1	-1E+10	1	-1E+10	1	-1E+10	1
4902549	123	C	01/10/2024	22:52	-133.164	47.916	0	77.00	0	9.3260	0	32.3310	0	24.979	0	76.340	0	261.4	4	92.0	4	-1E+10	1	-1E+10	1	-1E+10	1	-1E+10	1	-1E+10	1	-1E+10	1
4902549	123	C	01/10/2024	22:52	-133.164	47.916	0	78.00	0	9.3260	0	32.3310	0	24.979	0	77.331	0	261.3	4	92.0	4	-1E+10	1	-1E+10	1	-1E+10	1	-1E+10	1	-1E+10	1	-1E+10	1
4902549	123	C	01/10/2024	22:52	-133.164	47.916	0	79.10	0	9.3260	0	32.3310	0	24.979	0	78.422	0	261.0	4	91.9	4	-1E+10	1	-1E+10	1	-1E+10	1	-1E+10	1	-1E+10	1	-1E+10	1
4902549	123	C	01/10/2024	22:52	-133.164	47.916	0	79.90	0	9.3260	0	32.3310	0	24.979	0	79.215	0	260.9	4	91.8	4	-1E+10	1	-1E+10	1	-1E+10	1	-1E+10	1	-1E+10	1	-1E+10	1
4902549	123	C	01/10/2024	22:52	-133.164	47.916	0	81.00	0	9.3270	0	32.3310	0	24.979	0	80.305	0	260.6	4	91.7	4	-1E+10	1	-1E+10	1	-1E+10	1	-1E+10	1	-1E+10	1	-1E+10	1
4902549	123	C	01/10/2024	22:52	-133.164	47.916	0	82.10	0	9.3270	0	32.3310	0	24.979	0	81.395	0	260.3	4	91.6	4	-1E+10	1	-1E+10	1	-1E+10	1	-1E+10	1	-1E+10	1	-1E+10	1
4902549	123	C	01/10/2024	22:52	-133.164	47.916	0	82.90	0	9.3270	0	32.3310	0	24.979	0	82.188	0	260.0	4	91.5	4	-1E+10	1	-1E+10	1	-1E+10	1	-1E+10	1	-1E+10	1	-1E+10	1
4902549	123	C	01/10/2024	22:52	-133.164	47.916	0	84.00	0	9.3270	0	32.3310	0	24.979	0	83.279	0	266.0	4	93.6	4	-1E+10	1	-1E+10	1	-1E+10	1	-1E+10	1	-1E+10	1	-1E+10	1
4902549	123	C	01/10/2024	22:52	-133.164	47.916	0	85.20	0	9.3290	0	32.3310	0	24.979	0	84.468	0	265.5	4	93.5	4	-1E+10	1	-1E+10	1	-1E+10	1	-1E+10	1	-1E+10	1	-1E+10	1
4902549	123	C	01/10/2024	22:52	-133.164	47.916	0	86.00	0	9.3290	0	32.3310	0	24.979	0	85.261	0	265.1	4	93.3	4	-1E+10	1	-1E+10	1	-1E+10	1	-1E+10	1	-1E+10	1	-1E+10	1
4902549	123	C	01/10/2024	22:52	-133.164	47.916	0	87.00	0	9.3280	0	32.3310	0	24.979	0	86.252	0	264.3	4	93.1	4	-1E+10	1	-1E+10	1	-1E+10	1	-1E+10	1	-1E+10	1	-1E+10	1
4902549	123	C	01/10/2024	22:52	-133.164	47.916	0	88.30	0	9.3270	0	32.3300	0	24.979	0	87.541	0	263.1	4	92.6	4	-1E+10	1	-1E+10	1	-1E+10	1	-1E+10	1	-1E+10	1	-1E+10	1
4902549	123	C	01/10/2024	22:52	-133.164	47.916	0	89.10	0	9.2700	0	32.3520	0	25.005	0	88.334	0	261.4	4	91.9	4	-1E+10	1	-1E+10	1	-1E+10	1	-1E+10	1	-1E+10	1	-1E+10	1
4902549	123	C	01/10/2024	22:52	-133.164	47.916	0	89.90	0	9.1570	0	32.3560	0	25.026	0	89.127	0	260.3	4	91.3	4	-1E+10	1	-1E+10	1	-1E+10	1	-1E+10	1	-1E+10	1	-1E+10	1
4902549	123	C	01/10/2024	22:52	-133.164	47.916	0	91.10	0	8.7470	0	32.4200	0	25.139	0	90.316	0	257.4	4	89.5	4	-1E+10	1	-1E+10	1	-1E+10	1	-1E+10	1	-1E+10	1	-1E+10	1
4902549	123	C	01/10/2024	22:52	-133.164	47.916	0	91.90	0	8.4580	0	32.4670	0	25.219	0	91.109	0	257.7	4	89.1	4	-1E+10	1	-1E+10	1	-1E+10	1	-1E+10	1	-1E+10	1	-1E+10	1
4902549	123	C	01/10/2024	22:52	-133.164	47.916	0	93.00	0	8.2270	0	32.4980	0	25.278	0	92.200	0	257.1	4	88.4	4	-1E+10	1	-1E+10	1	-1E+10	1	-1E+10	1	-1E+10	1	-1E+10	1
4902549	123	C	01/10/2024	22:52	-133.164	47.916	0	94.00	0	8.1400	0	32.5120	0	25.302	0	93.191	0	256.7	4	88.1	4	-1E+10	1	-1E+10	1	-1E+10	1	-1E+10	1	-1E+10	1	-1E+10	1
4902549	123	C	01/10/2024	22:52	-133.164	47.916	0	95.20	0	7.9880	0	32.5410	0	25.346	0	94.380	0	256.4	4	87.8	4	-1E+10	1	-1E+10	1	-1E+10	1	-1E+10	1	-1E+10	1	-1E+10	1
4902549	123	C	01/10/2024	22:52	-133.164	47.916	0	95.80	0	7.9420	0	32.5400	0	25.352	0	94.975	0	255.9	4	87.5	4	-1E+10	1	-1E+10	1	-1E+10	1	-1E+10	1	-1E+10	1	-1E+10	1
4902549	123	C	01/10/2024	22:52	-133.164	47.916	0	96.80	0	7.7660	0	32.5590	0	25.392	0	95.966	0	255.3	4	87.0	4	-1E+10	1	-1E+10	1	-1E+10	1	-1E+10	1	-1E+10	1	-1E+10	1
4902549	123	C	01/10/2024	22:52	-133.164	47.916	0	97.90	0	7.5650	0	32.5910	0	25.446	0	97.056	0	254.6	4	86.3	4	-1E+10	1	-1E+10	1	-1E+10	1	-1E+10	1	-1E+10	1	-1E+10	1
4902549	123	C	01/10/2024	22:52	-133.164	47.916	0	99.00	0	7.5390	0	32.5990	0	25.456	0	98.146	0	252.9	4	85.7	4	-1E+10	1	-1E+10	1	-1E+10	1	-1E+10	1	-1E+10	1	-1E+10	1
4902549	123	C	01/10/2024	22:52	-133.164	47.916	0	100.20	0	7.5250	0	32.6110	0	25.467	0	99.336	0	250.8	4	85.0	4	-1E+10	1	-1E+10	1	-1E+10	1	-1E+10	1	-1E+10	1	-1E+10	1
4902549	123	C	01/10/2024	22:52	-133.164	47.916	0	101.00	0	7.5240	0	32.6210	0	25.475	0	100.129	0	249.1	4	84.4	4	-1E+10	1	-1E+10	1	-1E+10	1	-1E+10	1	-1E+10	1	-1E+10	1
4902549	123	C	01/10/2024	22:52	-133.164	47.916	0	102.20	0	7.4920	0	32.6580	0	25.509	0	101.318	0	246.8	4	83.6	4	-1E+10	1	-1E+10	1	-1E+10	1	-1E+10	1	-1E+10	1	-1E+10	1
4902549	123	C	01/10/2024	22:52	-133.164	47.916	0	102.80	0	7.4780	0	32.6870	0	25.533	0	101.913	0	245.8	4	83.3	4	-1E+10	1	-1E+10	1	-1E+10	1	-1E+10	1	-1E+10	1	-1E+10	1
4902549	123	C	01/10/2024	22:52	-133.164	47.916	0	103.70	0	7.4690	0	32.7040	0	25.548	0	102.805	0	244.5	4	82.8	4	-1E+10	1	-1E+10	1	-1E+10	1	-1E+10	1	-1E+10	1	-1E+10	1
4902549	123	C	01/10/2024	22:52	-133.164	47.916	0	105.10	0	7.4560	0	32.7270	0	25.568	0	104.192	0	242.3	4	82.0	4	-1E+10	1	-1E+10	1	-1E+10	1	-1E+10	1	-1E+10	1	-1E+10	1
4902549	123	C	01/10/2024	22:52	-133.164	47.916	0	106.10	0	7.4320	0	32.7580	0	25.596	0	105.183	0	241.0	4	81.6	4	-1E+10	1	-1E+10	1	-1E+10	1	-1E+10	1	-1E+10	1	-1E+10	1
4902549	123	C	01/10/2024	22:52	-133.164	47.916	0	107.00	0	7.4040	0	32.7850	0	25.621	0	106.075	0	240.1	4	81.3	4	-1E+10	1	-1E+10	1	-1E+10	1	-1E+10	1	-1E+10	1	-1E+10	1
4902549	123	C	01/10/2024	22:52	-133.164	47.916	0	107.70	0	7.3960	0	32.7890	0	25.625	0	106.769	0	239.1	4	80.9	4	-1E+10	1	-1E+10	1	-1E+10	1	-1E+10	1	-1E+10	1	-1E+10	1
4902549	123	C	01/10/2024	22:52	-133.164	47.916	0	108.70	0	7.3890	0	32.7940	0	25.630	0	107.760	0	237.5	4	80.4	4	-1E+10	1	-1E+10	1	-1E+10	1	-1E+10	1	-1E+10	1	-1E+10	1
4902549	123	C	01/10/2024	22:52	-133.164	47.916	0	109.70	0	7.3790	0	32.8020	0	25.638	0	108.751	0	235.5	4	79.7	4	-1E+10	1	-1E+10	1	-1E+10	1	-1E+10	1	-1E+10	1	-1E+10	1
4902549	123	C	01/10/2024	22:52	-133.164	47.916	0	110.90	0	7.3400	0	32.8440	0	25.676	0	109.941	0	233.6	4	79.0	4	-1E+10	1	-1E+10	1	-1E+10	1	-1E+10	1	-1E+10	1	-1E+10	1
4902549	123	C	01/10/2024	22:52	-133.164	47.916	0	111.80	0	7.3100	0	32.8790	0	25.708	0	110.833	0	232.6	4	78.6	4	-1E+10	1	-1E+10	1	-1E+10	1	-1E+10	1	-1E+10	1	-1E+10	1
4902549	123	C	01/10/2024	22:52	-133.164	47.916	0	112.80	0	7.2840	0	32.9150	0	25.740	0	111.824	0	231.5	4	78.2	4	-1E+10	1	-1E+10	1	-1E+10	1	-1E+10	1	-1E+10	1	-1E+10	1
4902549	123	C	01/10/2024	22:52	-133.164	47.916	0	114.10	0	7.2260	0	32.9730	0	25.793	0	113.112	0	230.8	4	77.9	4	-1E+10	1	-1E+10	1	-1E+10	1	-1E+10	1	-1E+10	1	-1E+10	1
4902549	123	C	01/10/2024	22:52	-133.164	47.916	0	115.10	0	7.2230	0	32.9790	0	25.798	0	114.103	0	230.0	4	77.6	4	-1E+10	1	-1E+10	1	-1E+10	1	-1E+10	1	-1E+10	1	-1E+10	1
4902549	123	C	01/10/2024	22:52	-133.164	47.916	0	116.10	0	7.2220	0	32.9800	0	25.799	0	115.094	0	229.2	4	77.4	4	-1E+10	1	-1E+10	1	-1E+10	1	-1E+10	1	-1E+10	1	-1E+10	1
4902549	123	C	01/10/2024	22:52	-133.164	47.916	0	117.00	0	7.2220	0	32.9810	0	25.800	0	115.986	0	228.2	4	77.0	4	-1E+10	1	-1E+10	1	-1E+10	1	-1E+10	1	-1E+10	1	-1E+10	1
4902549	123	C	01/10/2024	22:52	-133.164	47.916	0	118.00	0	7.2200	0	32.9830	0	25.802	0	116.977	0	226.9	4	76.6	4	-1E+10	1	-1E+10	1	-1E+10	1	-1E+10	1	-1E+10	1	-1E+10	1
4902549	123	C	01/10/2024	22:52	-133.164	47.916	0	118.90	0	7.2140	0	32.9890	0	25.808	0	117.869	0	225.5	4	76.1	4	-1E+10	1	-1E+10	1	-1E+10	1	-1E+10	1	-1E+10	1	-1E+10	1
4902549	123	C	01/10/2024	22:52	-133.164	47.916	0	119.80	0	7.1890	0	33.0130	0	25.830	0	118.761	0	224.2	4	75.6	4	-1E+10	1	-1E+10	1	-1E+10	1	-1E+10	1	-1E+10	1	-1E+10	1
4902549	123	C	01/10/2024	22:52	-133.164	47.916	0	121.00	0	7.1350	0	33.0560	0	25.871	0	119.950	0	223.1	4	75.2	4	-1E+10	1	-1E+10	1	-1E+10	1	-1E+10	1	-1E+10	1	-1E+10	1
4902549	123	C	01/10/2024	22:52	-133.164	47.916	0	121.70	0	7.1020	0	33.0830	0	25.897	0	120.644	0	222.4	4	74.9	4	-1E+10	1	-1E+10	1	-1E+10	1	-1E+10	1	-1E+10	1	-1E+10	1
4902549	123	C	01/10/2024	22:52	-133.164	47.916	0	122.80	0	7.0570	0	33.1310	0	25.941	0	121.734	0	221.8	4	74.7	4	-1E+10	1	-1E+10	1	-1E+10	1	-1E+10	1	-1E+10	1	-1E+10	1
4902549	123	C	01/10/2024	22:52	-133.164	47.916	0	124.10	0	7.0190	0	33.1760	0	25.981	0	123.023	0	221.5	4	74.5	4	-1E+10	1	-1E+10	1	-1E+10	1	-1E+10	1	-1E+10	1	-1E+10	1
4902549	123	C	01/10/2024	22:52	-133.164	47.916	0	124.90	0	6.9850	0	33.1980	0	26.003	0	123.815	0	221.2	4	74.4	4	-1E+10	1	-1E+10	1	-1E+10	1	-1E+10	1	-1E+10	1	-1E+10	1
4902549	123	C	01/10/2024	22:52	-133.164	47.916	0	125.70	0	6.9690	0	33.2090	0	26.014	0	124.608	0	221.0	4	74.3	4	-1E+10	1	-1E+10	1	-1E+10	1	-1E+10	1	-1E+10	1	-1E+10	1
4902549	123	C	01/10/2024	22:52	-133.164	47.916	0	127.00	0	6.9630	0	33.2130	0	26.018	0	125.897	0	220.6	4	74.1	4	-1E+10	1	-1E+10	1	-1E+10	1	-1E+10	1	-1E+10	1	-1E+10	1
4902549	123	C	01/10/2024	22:52	-133.164	47.916	0	128.30	0	6.9370	0	33.2370	0	26.040	0	127.185	0	220.1	4	73.9	4	-1E+10	1	-1E+10	1	-1E+10	1	-1E+10	1	-1E+10	1	-1E+10	1
4902549	123	C	01/10/2024	22:52	-133.164	47.916	0	129.20	0	6.9310	0	33.2440	0	26.047	0	128.077	0	219.8	4	73.8	4	-1E+10	1	-1E+10	1	-1E+10	1	-1E+10	1	-1E+10	1	-1E+10	1
4902549	123	C	01/10/2024	22:52	-133.164	47.916	0	130.10	0	6.9100	0	33.2650	0	26.066	0	128.969	0	219.6	4	73.7	4	-1E+10	1	-1E+10	1	-1E+10	1	-1E+10	1	-1E+10	1	-1E+10	1
4902549	123	C	01/10/2024	22:52	-133.164	47.916	0	131.00	0	6.8970	0	33.2790	0	26.079	0	129.861	0	219.5	4	73.7	4	-1E+10	1	-1E+10	1	-1E+10	1	-1E+10	1	-1E+10	1	-1E+10	1
4902549	123	C	01/10/2024	22:52	-133.164	47.916	0	131.90	0	6.8860	0	33.2890	0	26.088	0	130.752	0	219.3	4	73.6	4	-1E+10	1	-1E+10	1	-1E+10	1	-1E+10	1	-1E+10	1	-1E+10	1
4902549	123	C	01/10/2024	22:52	-133.164	47.916	0	132.90	0	6.8710	0	33.3000	0	26.099	0	131.743	0	219.3	4	73.6	4	-1E+10	1	-1E+10	1	-1E+10	1	-1E+10	1	-1E+10	1	-1E+10	1
4902549	123	C	01/10/2024	22:52	-133.164	47.916	0	133.80	0	6.8590	0	33.3100	0	26.108	0	132.635	0	219.1	4	73.5	4	-1E+10	1	-1E+10	1	-1E+10	1	-1E+10	1	-1E+10	1	-1E+10	1
4902549	123	C	01/10/2024	22:52	-133.164	47.916	0	134.80	0	6.8470	0	33.3140	0	26.113	0	133.626	0	219.1	4	73.5	4	-1E+10	1	-1E+10	1	-1E+10	1	-1E+10	1	-1E+10	1	-1E+10	1
4902549	123	C	01/10/2024	22:52	-133.164	47.916	0	135.80	0	6.8310	0	33.3220	0	26.122	0	134.617	0	219.0	4	73.4	4	-1E+10	1	-1E+10	1	-1E+10	1	-1E+10	1	-1E+10	1	-1E+10	1
4902549	123	C	01/10/2024	22:52	-133.164	47.916	0	136.70	0	6.8030	0	33.3290	0	26.131	0	135.509	0	219.0	4	73.4	4	-1E+10	1	-1E+10	1	-1E+10	1	-1E+10	1	-1E+10	1	-1E+10	1
4902549	123	C	01/10/2024	22:52	-133.164	47.916	0	137.70	0	6.7860	0	33.3380	0	26.140	0	136.500	0	218.8	4	73.3	4	-1E+10	1	-1E+10	1	-1E+10	1	-1E+10	1	-1E+10	1	-1E+10	1
4902549	123	C	01/10/2024	22:52	-133.164	47.916	0	138.70	0	6.7690	0	33.3440	0	26.147	0	137.491	0	218.7	4	73.3	4	-1E+10	1	-1E+10	1	-1E+10	1	-1E+10	1	-1E+10	1	-1E+10	1
4902549	123	C	01/10/2024	22:52	-133.164	47.916	0	139.60	0	6.7600	0	33.3500	0	26.153	0	138.383	0	218.6	4	73.2	4	-1E+10	1	-1E+10	1	-1E+10	1	-1E+10	1	-1E+10	1	-1E+10	1
4902549	123	C	01/10/2024	22:52	-133.164	47.916	0	140.60	0	6.7490	0	33.3560	0	26.159	0	139.374	0	218.3	4	73.1	4	-1E+10	1	-1E+10	1	-1E+10	1	-1E+10	1	-1E+10	1	-1E+10	1
4902549	123	C	01/10/2024	22:52	-133.164	47.916	0	141.60	0	6.7240	0	33.3670	0	26.171	0	140.365	0	218.3	4	73.0	4	-1E+10	1	-1E+10	1	-1E+10	1	-1E+10	1	-1E+10	1	-1E+10	1
4902549	123	C	01/10/2024	22:52	-133.164	47.916	0	142.90	0	6.7010	0	33.3720	0	26.178	0	141.653	0	218.1	4	72.9	4	-1E+10	1	-1E+10	1	-1E+10	1	-1E+10	1	-1E+10	1	-1E+10	1
4902549	123	C	01/10/2024	22:52	-133.164	47.916	0	144.40	0	6.6580	0	33.3770	0	26.188	0	143.139	0	217.8	4	72.8	4	-1E+10	1	-1E+10	1	-1E+10	1	-1E+10	1	-1E+10	1	-1E+10	1
4902549	123	C	01/10/2024	22:52	-133.164	47.916	0	145.30	0	6.6510	0	33.3770	0	26.189	0	144.031	0	217.4	4	72.6	4	-1E+10	1	-1E+10	1	-1E+10	1	-1E+10	1	-1E+10	1	-1E+10	1
4902549	123	C	01/10/2024	22:52	-133.164	47.916	0	146.30	0	6.5990	0	33.4000	0	26.214	0	145.022	0	217.0	4	72.4	4	-1E+10	1	-1E+10	1	-1E+10	1	-1E+10	1	-1E+10	1	-1E+10	1
4902549	123	C	01/10/2024	22:52	-133.164	47.916	0	147.20	0	6.5930	0	33.3990	0	26.214	0	145.914	0	216.7	4	72.3	4	-1E+10	1	-1E+10	1	-1E+10	1	-1E+10	1	-1E+10	1	-1E+10	1
4902549	123	C	01/10/2024	22:52	-133.164	47.916	0	148.10	0	6.5900	0	33.4090	0	26.222	0	146.806	0	216.1	4	72.1	4	-1E+10	1	-1E+10	1	-1E+10	1	-1E+10	1	-1E+10	1	-1E+10	1
4902549	123	C	01/10/2024	22:52	-133.164	47.916	0	149.00	0	6.5700	0	33.4160	0	26.230	0	147.697	0	215.8	4	72.0	4	-1E+10	1	-1E+10	1	-1E+10	1	-1E+10	1	-1E+10	1	-1E+10	1
4902549	123	C	01/10/2024	22:52	-133.164	47.916	0	149.80	0	6.5650	0	33.4150	0	26.230	0	148.490	0	215.2	4	71.8	4	-1E+10	1	-1E+10	1	-1E+10	1	-1E+10	1	-1E+10	1	-1E+10	1
4902549	123	C	01/10/2024	22:52	-133.164	47.916	0	150.70	0	6.5580	0	33.4170	0	26.233	0	149.382	0	214.6	4	71.5	4	-1E+10	1	-1E+10	1	-1E+10	1	-1E+10	1	-1E+10	1	-1E+10	1
4902549	123	C	01/10/2024	22:52	-133.164	47.916	0	151.90	0	6.5240	0	33.4290	0	26.247	0	150.571	0	213.5	4	71.1	4	-1E+10	1	-1E+10	1	-1E+10	1	-1E+10	1	-1E+10	1	-1E+10	1
4902549	123	C	01/10/2024	22:52	-133.164	47.916	0	153.20	0	6.4830	0	33.4470	0	26.266	0	151.859	0	212.3	4	70.7	4	-1E+10	1	-1E+10	1	-1E+10	1	-1E+10	1	-1E+10	1	-1E+10	1
4902549	123	C	01/10/2024	22:52	-133.164	47.916	0	154.10	0	6.4820	0	33.4490	0	26.268	0	152.751	0	211.3	4	70.4	4	-1E+10	1	-1E+10	1	-1E+10	1	-1E+10	1	-1E+10	1	-1E+10	1
4902549	123	C	01/10/2024	22:52	-133.164	47.916	0	154.90	0	6.4740	0	33.4560	0	26.274	0	153.544	0	210.3	4	70.0	4	-1E+10	1	-1E+10	1	-1E+10	1	-1E+10	1	-1E+10	1	-1E+10	1
4902549	123	C	01/10/2024	22:52	-133.164	47.916	0	155.80	0	6.4620	0	33.4810	0	26.296	0	154.436	0	209.2	4	69.6	4	-1E+10	1	-1E+10	1	-1E+10	1	-1E+10	1	-1E+10	1	-1E+10	1
4902549	123	C	01/10/2024	22:52	-133.164	47.916	0	156.70	0	6.4580	0	33.4960	0	26.308	0	155.327	0	208.4	4	69.4	4	-1E+10	1	-1E+10	1	-1E+10	1	-1E+10	1	-1E+10	1	-1E+10	1
4902549	123	C	01/10/2024	22:52	-133.164	47.916	0	157.90	0	6.4540	0	33.5080	0	26.318	0	156.516	0	207.3	4	69.0	4	-1E+10	1	-1E+10	1	-1E+10	1	-1E+10	1	-1E+10	1	-1E+10	1
4902549	123	C	01/10/2024	22:52	-133.164	47.916	0	159.30	0	6.4480	0	33.5160	0	26.325	0	157.904	0	206.0	4	68.6	4	-1E+10	1	-1E+10	1	-1E+10	1	-1E+10	1	-1E+10	1	-1E+10	1
4902549	123	C	01/10/2024	22:52	-133.164	47.916	0	160.20	0	6.4420	0	33.5220	0	26.331	0	158.795	0	205.1	4	68.3	4	-1E+10	1	-1E+10	1	-1E+10	1	-1E+10	1	-1E+10	1	-1E+10	1
4902549	123	C	01/10/2024	22:52	-133.164	47.916	0	161.10	0	6.4320	0	33.5330	0	26.341	0	159.687	0	204.2	4	68.0	4	-1E+10	1	-1E+10	1	-1E+10	1	-1E+10	1	-1E+10	1	-1E+10	1
4902549	123	C	01/10/2024	22:52	-133.164	47.916	0	162.00	0	6.4320	0	33.5370	0	26.344	0	160.579	0	203.2	4	67.6	4	-1E+10	1	-1E+10	1	-1E+10	1	-1E+10	1	-1E+10	1	-1E+10	1
4902549	123	C	01/10/2024	22:52	-133.164	47.916	0	162.70	0	6.4210	0	33.5440	0	26.351	0	161.272	0	202.1	4	67.3	4	-1E+10	1	-1E+10	1	-1E+10	1	-1E+10	1	-1E+10	1	-1E+10	1
4902549	123	C	01/10/2024	22:52	-133.164	47.916	0	164.00	0	6.4140	0	33.5580	0	26.363	0	162.560	0	200.4	4	66.7	4	-1E+10	1	-1E+10	1	-1E+10	1	-1E+10	1	-1E+10	1	-1E+10	1
4902549	123	C	01/10/2024	22:52	-133.164	47.916	0	165.00	0	6.4070	0	33.5750	0	26.377	0	163.551	0	199.3	4	66.3	4	-1E+10	1	-1E+10	1	-1E+10	1	-1E+10	1	-1E+10	1	-1E+10	1
4902549	123	C	01/10/2024	22:52	-133.164	47.916	0	165.70	0	6.3910	0	33.5890	0	26.390	0	164.245	0	198.8	4	66.1	4	-1E+10	1	-1E+10	1	-1E+10	1	-1E+10	1	-1E+10	1	-1E+10	1
4902549	123	C	01/10/2024	22:52	-133.164	47.916	0	166.80	0	6.3870	0	33.5940	0	26.395	0	165.335	0	197.8	4	65.8	4	-1E+10	1	-1E+10	1	-1E+10	1	-1E+10	1	-1E+10	1	-1E+10	1
4902549	123	C	01/10/2024	22:52	-133.164	47.916	0	167.90	0	6.3620	0	33.6070	0	26.408	0	166.425	0	196.9	4	65.4	4	-1E+10	1	-1E+10	1	-1E+10	1	-1E+10	1	-1E+10	1	-1E+10	1
4902549	123	C	01/10/2024	22:52	-133.164	47.916	0	168.90	0	6.3320	0	33.6070	0	26.412	0	167.415	0	195.9	4	65.1	4	-1E+10	1	-1E+10	1	-1E+10	1	-1E+10	1	-1E+10	1	-1E+10	1
4902549	123	C	01/10/2024	22:52	-133.164	47.916	0	170.00	0	6.3340	0	33.6120	0	26.416	0	168.505	0	194.8	4	64.7	4	-1E+10	1	-1E+10	1	-1E+10	1	-1E+10	1	-1E+10	1	-1E+10	1
4902549	123	C	01/10/2024	22:52	-133.164	47.916	0	170.80	0	6.3330	0	33.6130	0	26.417	0	169.298	0	193.8	4	64.4	4	-1E+10	1	-1E+10	1	-1E+10	1	-1E+10	1	-1E+10	1	-1E+10	1
4902549	123	C	01/10/2024	22:52	-133.164	47.916	0	172.00	0	6.3310	0	33.6210	0	26.423	0	170.487	0	192.4	4	63.9	4	-1E+10	1	-1E+10	1	-1E+10	1	-1E+10	1	-1E+10	1	-1E+10	1
4902549	123	C	01/10/2024	22:52	-133.164	47.916	0	173.20	0	6.3370	0	33.6260	0	26.426	0	171.676	0	190.9	4	63.4	4	-1E+10	1	-1E+10	1	-1E+10	1	-1E+10	1	-1E+10	1	-1E+10	1
4902549	123	C	01/10/2024	22:52	-133.164	47.916	0	174.00	0	6.3370	0	33.6420	0	26.439	0	172.469	0	190.2	4	63.2	4	-1E+10	1	-1E+10	1	-1E+10	1	-1E+10	1	-1E+10	1	-1E+10	1
4902549	123	C	01/10/2024	22:52	-133.164	47.916	0	174.80	0	6.3260	0	33.6510	0	26.448	0	173.261	0	189.5	4	63.0	4	-1E+10	1	-1E+10	1	-1E+10	1	-1E+10	1	-1E+10	1	-1E+10	1
4902549	123	C	01/10/2024	22:52	-133.164	47.916	0	176.00	0	6.3220	0	33.6560	0	26.452	0	174.450	0	188.6	4	62.6	4	-1E+10	1	-1E+10	1	-1E+10	1	-1E+10	1	-1E+10	1	-1E+10	1
4902549	123	C	01/10/2024	22:52	-133.164	47.916	0	177.30	0	6.3200	0	33.6580	0	26.454	0	175.738	0	187.5	4	62.3	4	-1E+10	1	-1E+10	1	-1E+10	1	-1E+10	1	-1E+10	1	-1E+10	1
4902549	123	C	01/10/2024	22:52	-133.164	47.916	0	178.10	0	6.3190	0	33.6640	0	26.459	0	176.531	0	186.7	4	62.0	4	-1E+10	1	-1E+10	1	-1E+10	1	-1E+10	1	-1E+10	1	-1E+10	1
4902549	123	C	01/10/2024	22:52	-133.164	47.916	0	179.00	0	6.3180	0	33.6660	0	26.460	0	177.422	0	186.0	4	61.8	4	-1E+10	1	-1E+10	1	-1E+10	1	-1E+10	1	-1E+10	1	-1E+10	1
4902549	123	C	01/10/2024	22:52	-133.164	47.916	0	179.80	0	6.3160	0	33.6680	0	26.462	0	178.215	0	185.1	4	61.5	4	-1E+10	1	-1E+10	1	-1E+10	1	-1E+10	1	-1E+10	1	-1E+10	1
4902549	123	C	01/10/2024	22:52	-133.164	47.916	0	180.70	0	6.3070	0	33.6740	0	26.468	0	179.107	0	184.3	4	61.2	4	-1E+10	1	-1E+10	1	-1E+10	1	-1E+10	1	-1E+10	1	-1E+10	1
4902549	123	C	01/10/2024	22:52	-133.164	47.916	0	182.00	0	6.2930	0	33.6800	0	26.475	0	180.395	0	183.1	4	60.8	4	-1E+10	1	-1E+10	1	-1E+10	1	-1E+10	1	-1E+10	1	-1E+10	1
4902549	123	C	01/10/2024	22:52	-133.164	47.916	0	183.30	0	6.2760	0	33.6890	0	26.484	0	181.683	0	182.1	4	60.4	4	-1E+10	1	-1E+10	1	-1E+10	1	-1E+10	1	-1E+10	1	-1E+10	1
4902549	123	C	01/10/2024	22:52	-133.164	47.916	0	184.20	0	6.2640	0	33.6910	0	26.487	0	182.574	0	181.5	4	60.2	4	-1E+10	1	-1E+10	1	-1E+10	1	-1E+10	1	-1E+10	1	-1E+10	1
4902549	123	C	01/10/2024	22:52	-133.164	47.916	0	185.10	0	6.2610	0	33.6930	0	26.489	0	183.466	0	180.8	4	60.0	4	-1E+10	1	-1E+10	1	-1E+10	1	-1E+10	1	-1E+10	1	-1E+10	1
4902549	123	C	01/10/2024	22:52	-133.164	47.916	0	185.90	0	6.2590	0	33.6930	0	26.489	0	184.258	0	180.1	4	59.8	4	-1E+10	1	-1E+10	1	-1E+10	1	-1E+10	1	-1E+10	1	-1E+10	1
4902549	123	C	01/10/2024	22:52	-133.164	47.916	0	186.80	0	6.2500	0	33.6940	0	26.491	0	185.150	0	179.3	4	59.5	4	-1E+10	1	-1E+10	1	-1E+10	1	-1E+10	1	-1E+10	1	-1E+10	1
4902549	123	C	01/10/2024	22:52	-133.164	47.916	0	187.70	0	6.2430	0	33.6960	0	26.494	0	186.042	0	178.5	4	59.2	4	-1E+10	1	-1E+10	1	-1E+10	1	-1E+10	1	-1E+10	1	-1E+10	1
4902549	123	C	01/10/2024	22:52	-133.164	47.916	0	188.60	0	6.2340	0	33.6960	0	26.495	0	186.933	0	177.6	4	58.9	4	-1E+10	1	-1E+10	1	-1E+10	1	-1E+10	1	-1E+10	1	-1E+10	1
4902549	123	C	01/10/2024	22:52	-133.164	47.916	0	189.90	0	6.2130	0	33.6990	0	26.500	0	188.221	0	176.2	4	58.4	4	-1E+10	1	-1E+10	1	-1E+10	1	-1E+10	1	-1E+10	1	-1E+10	1
4902549	123	C	01/10/2024	22:52	-133.164	47.916	0	191.20	0	6.1900	0	33.7010	0	26.505	0	189.509	0	174.5	4	57.8	4	-1E+10	1	-1E+10	1	-1E+10	1	-1E+10	1	-1E+10	1	-1E+10	1
4902549	123	C	01/10/2024	22:52	-133.164	47.916	0	192.10	0	6.1740	0	33.7020	0	26.507	0	190.401	0	173.3	4	57.4	4	-1E+10	1	-1E+10	1	-1E+10	1	-1E+10	1	-1E+10	1	-1E+10	1
4902549	123	C	01/10/2024	22:52	-133.164	47.916	0	193.00	0	6.1580	0	33.7070	0	26.513	0	191.293	0	172.1	4	57.0	4	-1E+10	1	-1E+10	1	-1E+10	1	-1E+10	1	-1E+10	1	-1E+10	1
4902549	123	C	01/10/2024	22:52	-133.164	47.916	0	193.90	0	6.1450	0	33.7070	0	26.515	0	192.184	0	170.9	4	56.6	4	-1E+10	1	-1E+10	1	-1E+10	1	-1E+10	1	-1E+10	1	-1E+10	1
4902549	123	C	01/10/2024	22:52	-133.164	47.916	0	194.80	0	6.1300	0	33.7070	0	26.517	0	193.076	0	169.6	4	56.1	4	-1E+10	1	-1E+10	1	-1E+10	1	-1E+10	1	-1E+10	1	-1E+10	1
4902549	123	C	01/10/2024	22:52	-133.164	47.916	0	195.70	0	6.1000	0	33.7120	0	26.525	0	193.967	0	168.2	4	55.6	4	-1E+10	1	-1E+10	1	-1E+10	1	-1E+10	1	-1E+10	1	-1E+10	1
4902549	123	C	01/10/2024	22:52	-133.164	47.916	0	196.60	0	6.0780	0	33.7170	0	26.531	0	194.859	0	166.9	4	55.2	4	-1E+10	1	-1E+10	1	-1E+10	1	-1E+10	1	-1E+10	1	-1E+10	1
4902549	123	C	01/10/2024	22:52	-133.164	47.916	0	197.90	0	6.0540	0	33.7250	0	26.541	0	196.147	0	165.5	4	54.7	4	-1E+10	1	-1E+10	1	-1E+10	1	-1E+10	1	-1E+10	1	-1E+10	1
4902549	123	C	01/10/2024	22:52	-133.164	47.916	0	199.40	0	6.0330	0	33.7280	0	26.546	0	197.633	0	163.9	4	54.1	4	-1E+10	1	-1E+10	1	-1E+10	1	-1E+10	1	-1E+10	1	-1E+10	1
4902549	123	C	01/10/2024	22:52	-133.164	47.916	0	200.30	0	6.0340	0	33.7290	0	26.546	0	198.524	0	162.7	4	53.7	4	-1E+10	1	-1E+10	1	-1E+10	1	-1E+10	1	-1E+10	1	-1E+10	1
4902549	123	C	01/10/2024	22:52	-133.164	47.916	0	201.20	0	6.0360	0	33.7310	0	26.548	0	199.416	0	161.5	4	53.3	4	-1E+10	1	-1E+10	1	-1E+10	1	-1E+10	1	-1E+10	1	-1E+10	1
4902549	123	C	01/10/2024	22:52	-133.164	47.916	0	202.10	0	6.0110	0	33.7360	0	26.555	0	200.308	0	160.2	4	52.9	4	-1E+10	1	-1E+10	1	-1E+10	1	-1E+10	1	-1E+10	1	-1E+10	1
4902549	123	C	01/10/2024	22:52	-133.164	47.916	0	203.00	0	6.0040	0	33.7370	0	26.556	0	201.199	0	159.2	4	52.5	4	-1E+10	1	-1E+10	1	-1E+10	1	-1E+10	1	-1E+10	1	-1E+10	1
4902549	123	C	01/10/2024	22:52	-133.164	47.916	0	203.90	0	6.0030	0	33.7390	0	26.558	0	202.091	0	158.1	4	52.2	4	-1E+10	1	-1E+10	1	-1E+10	1	-1E+10	1	-1E+10	1	-1E+10	1
4902549	123	C	01/10/2024	22:52	-133.164	47.916	0	204.80	0	5.9990	0	33.7440	0	26.563	0	202.982	0	157.3	4	51.9	4	-1E+10	1	-1E+10	1	-1E+10	1	-1E+10	1	-1E+10	1	-1E+10	1
4902549	123	C	01/10/2024	22:52	-133.164	47.916	0	205.70	0	5.9990	0	33.7440	0	26.563	0	203.874	0	156.3	4	51.6	4	-1E+10	1	-1E+10	1	-1E+10	1	-1E+10	1	-1E+10	1	-1E+10	1
4902549	123	C	01/10/2024	22:52	-133.164	47.916	0	206.60	0	5.9880	0	33.7480	0	26.567	0	204.765	0	155.5	4	51.3	4	-1E+10	1	-1E+10	1	-1E+10	1	-1E+10	1	-1E+10	1	-1E+10	1
4902549	123	C	01/10/2024	22:52	-133.164	47.916	0	207.90	0	5.9710	0	33.7480	0	26.569	0	206.053	0	154.3	4	50.9	4	-1E+10	1	-1E+10	1	-1E+10	1	-1E+10	1	-1E+10	1	-1E+10	1
4902549	123	C	01/10/2024	22:52	-133.164	47.916	0	209.40	0	5.9500	0	33.7500	0	26.574	0	207.539	0	153.1	4	50.5	4	-1E+10	1	-1E+10	1	-1E+10	1	-1E+10	1	-1E+10	1	-1E+10	1
4902549	123	C	01/10/2024	22:52	-133.164	47.916	0	210.30	0	5.9390	0	33.7530	0	26.577	0	208.431	0	152.4	4	50.2	4	-1E+10	1	-1E+10	1	-1E+10	1	-1E+10	1	-1E+10	1	-1E+10	1
4902549	123	C	01/10/2024	22:52	-133.164	47.916	0	211.10	0	5.9240	0	33.7560	0	26.581	0	209.223	0	151.7	4	50.0	4	-1E+10	1	-1E+10	1	-1E+10	1	-1E+10	1	-1E+10	1	-1E+10	1
4902549	123	C	01/10/2024	22:52	-133.164	47.916	0	212.00	0	5.9140	0	33.7550	0	26.582	0	210.115	0	151.0	4	49.7	4	-1E+10	1	-1E+10	1	-1E+10	1	-1E+10	1	-1E+10	1	-1E+10	1
4902549	123	C	01/10/2024	22:52	-133.164	47.916	0	212.80	0	5.9110	0	33.7550	0	26.582	0	210.907	0	150.3	4	49.5	4	-1E+10	1	-1E+10	1	-1E+10	1	-1E+10	1	-1E+10	1	-1E+10	1
4902549	123	C	01/10/2024	22:52	-133.164	47.916	0	213.80	0	5.9020	0	33.7570	0	26.585	0	211.898	0	149.2	4	49.1	4	-1E+10	1	-1E+10	1	-1E+10	1	-1E+10	1	-1E+10	1	-1E+10	1
4902549	123	C	01/10/2024	22:52	-133.164	47.916	0	215.00	0	5.8950	0	33.7590	0	26.587	0	213.087	0	148.0	4	48.7	4	-1E+10	1	-1E+10	1	-1E+10	1	-1E+10	1	-1E+10	1	-1E+10	1
4902549	123	C	01/10/2024	22:52	-133.164	47.916	0	215.80	0	5.8890	0	33.7590	0	26.588	0	213.879	0	147.1	4	48.4	4	-1E+10	1	-1E+10	1	-1E+10	1	-1E+10	1	-1E+10	1	-1E+10	1
4902549	123	C	01/10/2024	22:52	-133.164	47.916	0	216.70	0	5.8850	0	33.7620	0	26.591	0	214.771	0	146.3	4	48.1	4	-1E+10	1	-1E+10	1	-1E+10	1	-1E+10	1	-1E+10	1	-1E+10	1
4902549	123	C	01/10/2024	22:52	-133.164	47.916	0	217.80	0	5.8810	0	33.7660	0	26.595	0	215.860	0	145.3	4	47.8	4	-1E+10	1	-1E+10	1	-1E+10	1	-1E+10	1	-1E+10	1	-1E+10	1
4902549	123	C	01/10/2024	22:52	-133.164	47.916	0	219.10	0	5.8660	0	33.7660	0	26.597	0	217.148	0	144.4	4	47.5	4	-1E+10	1	-1E+10	1	-1E+10	1	-1E+10	1	-1E+10	1	-1E+10	1
4902549	123	C	01/10/2024	22:52	-133.164	47.916	0	220.00	0	5.8560	0	33.7650	0	26.597	0	218.039	0	143.7	4	47.3	4	-1E+10	1	-1E+10	1	-1E+10	1	-1E+10	1	-1E+10	1	-1E+10	1
4902549	123	C	01/10/2024	22:52	-133.164	47.916	0	220.90	0	5.8550	0	33.7660	0	26.598	0	218.931	0	142.8	4	47.0	4	-1E+10	1	-1E+10	1	-1E+10	1	-1E+10	1	-1E+10	1	-1E+10	1
4902549	123	C	01/10/2024	22:52	-133.164	47.916	0	221.80	0	5.8490	0	33.7660	0	26.599	0	219.822	0	142.1	4	46.7	4	-1E+10	1	-1E+10	1	-1E+10	1	-1E+10	1	-1E+10	1	-1E+10	1
4902549	123	C	01/10/2024	22:52	-133.164	47.916	0	222.80	0	5.8300	0	33.7720	0	26.606	0	220.813	0	141.4	4	46.5	4	-1E+10	1	-1E+10	1	-1E+10	1	-1E+10	1	-1E+10	1	-1E+10	1
4902549	123	C	01/10/2024	22:52	-133.164	47.916	0	223.70	0	5.8060	0	33.7700	0	26.607	0	221.704	0	140.6	4	46.2	4	-1E+10	1	-1E+10	1	-1E+10	1	-1E+10	1	-1E+10	1	-1E+10	1
4902549	123	C	01/10/2024	22:52	-133.164	47.916	0	224.60	0	5.7840	0	33.7680	0	26.608	0	222.596	0	139.7	4	45.9	4	-1E+10	1	-1E+10	1	-1E+10	1	-1E+10	1	-1E+10	1	-1E+10	1
4902549	123	C	01/10/2024	22:52	-133.164	47.916	0	225.50	0	5.7740	0	33.7660	0	26.608	0	223.487	0	138.6	4	45.5	4	-1E+10	1	-1E+10	1	-1E+10	1	-1E+10	1	-1E+10	1	-1E+10	1
4902549	123	C	01/10/2024	22:52	-133.164	47.916	0	226.90	0	5.8280	0	33.7770	0	26.610	0	224.874	0	137.6	4	45.2	4	-1E+10	1	-1E+10	1	-1E+10	1	-1E+10	1	-1E+10	1	-1E+10	1
4902549	123	C	01/10/2024	22:52	-133.164	47.916	0	228.20	0	5.8280	0	33.7890	0	26.620	0	226.162	0	137.2	4	45.1	4	-1E+10	1	-1E+10	1	-1E+10	1	-1E+10	1	-1E+10	1	-1E+10	1
4902549	123	C	01/10/2024	22:52	-133.164	47.916	0	229.10	0	5.7390	0	33.7810	0	26.624	0	227.053	0	137.1	4	45.0	4	-1E+10	1	-1E+10	1	-1E+10	1	-1E+10	1	-1E+10	1	-1E+10	1
4902549	123	C	01/10/2024	22:52	-133.164	47.916	0	229.90	0	5.7180	0	33.7780	0	26.624	0	227.846	0	136.7	4	44.8	4	-1E+10	1	-1E+10	1	-1E+10	1	-1E+10	1	-1E+10	1	-1E+10	1
4902549	123	C	01/10/2024	22:52	-133.164	47.916	0	230.90	0	5.7020	0	33.7710	0	26.621	0	228.836	0	136.0	4	44.6	4	-1E+10	1	-1E+10	1	-1E+10	1	-1E+10	1	-1E+10	1	-1E+10	1
4902549	123	C	01/10/2024	22:52	-133.164	47.916	0	231.90	0	5.6770	0	33.7680	0	26.621	0	229.827	0	134.8	4	44.2	4	-1E+10	1	-1E+10	1	-1E+10	1	-1E+10	1	-1E+10	1	-1E+10	1
4902549	123	C	01/10/2024	22:52	-133.164	47.916	0	232.80	0	5.7110	0	33.7750	0	26.623	0	230.718	0	134.0	4	43.9	4	-1E+10	1	-1E+10	1	-1E+10	1	-1E+10	1	-1E+10	1	-1E+10	1
4902549	123	C	01/10/2024	22:52	-133.164	47.916	0	233.70	0	5.6850	0	33.7750	0	26.626	0	231.610	0	133.4	4	43.7	4	-1E+10	1	-1E+10	1	-1E+10	1	-1E+10	1	-1E+10	1	-1E+10	1
4902549	123	C	01/10/2024	22:52	-133.164	47.916	0	235.00	0	5.6510	0	33.7700	0	26.626	0	232.897	0	132.4	4	43.3	4	-1E+10	1	-1E+10	1	-1E+10	1	-1E+10	1	-1E+10	1	-1E+10	1
4902549	123	C	01/10/2024	22:52	-133.164	47.916	0	236.30	0	5.6320	0	33.7700	0	26.628	0	234.185	0	131.2	4	42.9	4	-1E+10	1	-1E+10	1	-1E+10	1	-1E+10	1	-1E+10	1	-1E+10	1
4902549	123	C	01/10/2024	22:52	-133.164	47.916	0	237.10	0	5.6040	0	33.7710	0	26.633	0	234.977	0	130.5	4	42.7	4	-1E+10	1	-1E+10	1	-1E+10	1	-1E+10	1	-1E+10	1	-1E+10	1
4902549	123	C	01/10/2024	22:52	-133.164	47.916	0	238.10	0	5.5560	0	33.7750	0	26.642	0	235.968	0	129.9	4	42.4	4	-1E+10	1	-1E+10	1	-1E+10	1	-1E+10	1	-1E+10	1	-1E+10	1
4902549	123	C	01/10/2024	22:52	-133.164	47.916	0	239.10	0	5.5470	0	33.7710	0	26.640	0	236.958	0	129.2	4	42.2	4	-1E+10	1	-1E+10	1	-1E+10	1	-1E+10	1	-1E+10	1	-1E+10	1
4902549	123	C	01/10/2024	22:52	-133.164	47.916	0	240.00	0	5.5380	0	33.7740	0	26.643	0	237.850	0	128.5	4	42.0	4	-1E+10	1	-1E+10	1	-1E+10	1	-1E+10	1	-1E+10	1	-1E+10	1
4902549	123	C	01/10/2024	22:52	-133.164	47.916	0	240.90	0	5.5240	0	33.7730	0	26.644	0	238.741	0	128.0	4	41.8	4	-1E+10	1	-1E+10	1	-1E+10	1	-1E+10	1	-1E+10	1	-1E+10	1
4902549	123	C	01/10/2024	22:52	-133.164	47.916	0	241.90	0	5.5170	0	33.7730	0	26.645	0	239.732	0	127.3	4	41.6	4	-1E+10	1	-1E+10	1	-1E+10	1	-1E+10	1	-1E+10	1	-1E+10	1
4902549	123	C	01/10/2024	22:52	-133.164	47.916	0	242.80	0	5.5100	0	33.7740	0	26.646	0	240.623	0	126.7	4	41.3	4	-1E+10	1	-1E+10	1	-1E+10	1	-1E+10	1	-1E+10	1	-1E+10	1
4902549	123	C	01/10/2024	22:52	-133.164	47.916	0	243.80	0	5.5050	0	33.7760	0	26.649	0	241.613	0	126.0	4	41.1	4	-1E+10	1	-1E+10	1	-1E+10	1	-1E+10	1	-1E+10	1	-1E+10	1
4902549	123	C	01/10/2024	22:52	-133.164	47.916	0	244.80	0	5.4920	0	33.7760	0	26.650	0	242.604	0	125.4	4	40.9	4	-1E+10	1	-1E+10	1	-1E+10	1	-1E+10	1	-1E+10	1	-1E+10	1
4902549	123	C	01/10/2024	22:52	-133.164	47.916	0	245.80	0	5.4840	0	33.7760	0	26.651	0	243.594	0	124.8	4	40.7	4	-1E+10	1	-1E+10	1	-1E+10	1	-1E+10	1	-1E+10	1	-1E+10	1
4902549	123	C	01/10/2024	22:52	-133.164	47.916	0	246.80	0	5.4790	0	33.7760	0	26.652	0	244.585	0	124.0	4	40.4	4	-1E+10	1	-1E+10	1	-1E+10	1	-1E+10	1	-1E+10	1	-1E+10	1
4902549	123	C	01/10/2024	22:52	-133.164	47.916	0	247.80	0	5.4740	0	33.7770	0	26.653	0	245.575	0	123.1	4	40.1	4	-1E+10	1	-1E+10	1	-1E+10	1	-1E+10	1	-1E+10	1	-1E+10	1
4902549	123	C	01/10/2024	22:52	-133.164	47.916	0	248.80	0	5.4660	0	33.7750	0	26.652	0	246.566	0	122.5	4	39.9	4	-1E+10	1	-1E+10	1	-1E+10	1	-1E+10	1	-1E+10	1	-1E+10	1
4902549	123	C	01/10/2024	22:52	-133.164	47.916	0	249.80	0	5.4710	0	33.7840	0	26.659	0	247.556	0	121.9	4	39.7	4	-1E+10	1	-1E+10	1	-1E+10	1	-1E+10	1	-1E+10	1	-1E+10	1
4902549	123	C	01/10/2024	22:52	-133.164	47.916	0	250.70	0	5.4580	0	33.7860	0	26.662	0	248.447	0	121.3	4	39.5	4	-1E+10	1	-1E+10	1	-1E+10	1	-1E+10	1	-1E+10	1	-1E+10	1
4902549	123	C	01/10/2024	22:52	-133.164	47.916	0	251.70	0	5.4510	0	33.7830	0	26.661	0	249.438	0	120.8	4	39.4	4	-1E+10	1	-1E+10	1	-1E+10	1	-1E+10	1	-1E+10	1	-1E+10	1
4902549	123	C	01/10/2024	22:52	-133.164	47.916	0	252.70	0	5.4360	0	33.7840	0	26.663	0	250.428	0	120.2	4	39.2	4	-1E+10	1	-1E+10	1	-1E+10	1	-1E+10	1	-1E+10	1	-1E+10	1
4902549	123	C	01/10/2024	22:52	-133.164	47.916	0	253.70	0	5.4330	0	33.7830	0	26.663	0	251.419	0	119.4	4	38.9	4	-1E+10	1	-1E+10	1	-1E+10	1	-1E+10	1	-1E+10	1	-1E+10	1
4902549	123	C	01/10/2024	22:52	-133.164	47.916	0	254.60	0	5.4230	0	33.7830	0	26.664	0	252.310	0	118.6	4	38.6	4	-1E+10	1	-1E+10	1	-1E+10	1	-1E+10	1	-1E+10	1	-1E+10	1
4902549	123	C	01/10/2024	22:52	-133.164	47.916	0	255.60	0	5.4130	0	33.7830	0	26.665	0	253.300	0	117.7	4	38.3	4	-1E+10	1	-1E+10	1	-1E+10	1	-1E+10	1	-1E+10	1	-1E+10	1
4902549	123	C	01/10/2024	22:52	-133.164	47.916	0	256.60	0	5.4110	0	33.7860	0	26.668	0	254.291	0	116.8	4	38.0	4	-1E+10	1	-1E+10	1	-1E+10	1	-1E+10	1	-1E+10	1	-1E+10	1
4902549	123	C	01/10/2024	22:52	-133.164	47.916	0	257.60	0	5.3820	0	33.7880	0	26.673	0	255.281	0	116.0	4	37.7	4	-1E+10	1	-1E+10	1	-1E+10	1	-1E+10	1	-1E+10	1	-1E+10	1
4902549	123	C	01/10/2024	22:52	-133.164	47.916	0	258.60	0	5.3480	0	33.7900	0	26.678	0	256.272	0	115.5	4	37.5	4	-1E+10	1	-1E+10	1	-1E+10	1	-1E+10	1	-1E+10	1	-1E+10	1
4902549	123	C	01/10/2024	22:52	-133.164	47.916	0	259.60	0	5.3470	0	33.7900	0	26.678	0	257.262	0	114.9	4	37.4	4	-1E+10	1	-1E+10	1	-1E+10	1	-1E+10	1	-1E+10	1	-1E+10	1
4902549	123	C	01/10/2024	22:52	-133.164	47.916	0	260.60	0	5.3480	0	33.7910	0	26.679	0	258.252	0	114.2	4	37.1	4	-1E+10	1	-1E+10	1	-1E+10	1	-1E+10	1	-1E+10	1	-1E+10	1
4902549	123	C	01/10/2024	22:52	-133.164	47.916	0	261.60	0	5.3490	0	33.7920	0	26.680	0	259.243	0	113.5	4	36.9	4	-1E+10	1	-1E+10	1	-1E+10	1	-1E+10	1	-1E+10	1	-1E+10	1
4902549	123	C	01/10/2024	22:52	-133.164	47.916	0	262.60	0	5.3460	0	33.7940	0	26.682	0	260.233	0	112.9	4	36.7	4	-1E+10	1	-1E+10	1	-1E+10	1	-1E+10	1	-1E+10	1	-1E+10	1
4902549	123	C	01/10/2024	22:52	-133.164	47.916	0	263.60	0	5.3430	0	33.7930	0	26.681	0	261.223	0	112.2	4	36.5	4	-1E+10	1	-1E+10	1	-1E+10	1	-1E+10	1	-1E+10	1	-1E+10	1
4902549	123	C	01/10/2024	22:52	-133.164	47.916	0	264.60	0	5.3320	0	33.7960	0	26.685	0	262.214	0	111.5	4	36.2	4	-1E+10	1	-1E+10	1	-1E+10	1	-1E+10	1	-1E+10	1	-1E+10	1
4902549	123	C	01/10/2024	22:52	-133.164	47.916	0	265.60	0	5.3200	0	33.7960	0	26.686	0	263.204	0	110.8	4	36.0	4	-1E+10	1	-1E+10	1	-1E+10	1	-1E+10	1	-1E+10	1	-1E+10	1
4902549	123	C	01/10/2024	22:52	-133.164	47.916	0	266.60	0	5.3160	0	33.7980	0	26.688	0	264.194	0	110.1	4	35.8	4	-1E+10	1	-1E+10	1	-1E+10	1	-1E+10	1	-1E+10	1	-1E+10	1
4902549	123	C	01/10/2024	22:52	-133.164	47.916	0	267.60	0	5.3070	0	33.8010	0	26.692	0	265.185	0	109.4	4	35.5	4	-1E+10	1	-1E+10	1	-1E+10	1	-1E+10	1	-1E+10	1	-1E+10	1
4902549	123	C	01/10/2024	22:52	-133.164	47.916	0	268.60	0	5.3020	0	33.8030	0	26.694	0	266.175	0	108.8	4	35.3	4	-1E+10	1	-1E+10	1	-1E+10	1	-1E+10	1	-1E+10	1	-1E+10	1
4902549	123	C	01/10/2024	22:52	-133.164	47.916	0	269.60	0	5.2980	0	33.8020	0	26.694	0	267.165	0	108.2	4	35.1	4	-1E+10	1	-1E+10	1	-1E+10	1	-1E+10	1	-1E+10	1	-1E+10	1
4902549	123	C	01/10/2024	22:52	-133.164	47.916	0	270.60	0	5.2930	0	33.8030	0	26.695	0	268.156	0	107.4	4	34.9	4	-1E+10	1	-1E+10	1	-1E+10	1	-1E+10	1	-1E+10	1	-1E+10	1
4902549	123	C	01/10/2024	22:52	-133.164	47.916	0	271.50	0	5.2810	0	33.8050	0	26.698	0	269.047	0	106.7	4	34.6	4	-1E+10	1	-1E+10	1	-1E+10	1	-1E+10	1	-1E+10	1	-1E+10	1
4902549	123	C	01/10/2024	22:52	-133.164	47.916	0	272.50	0	5.2760	0	33.8050	0	26.699	0	270.037	0	105.9	4	34.4	4	-1E+10	1	-1E+10	1	-1E+10	1	-1E+10	1	-1E+10	1	-1E+10	1
4902549	123	C	01/10/2024	22:52	-133.164	47.916	0	273.60	0	5.2700	0	33.8090	0	26.703	0	271.127	0	105.1	4	34.1	4	-1E+10	1	-1E+10	1	-1E+10	1	-1E+10	1	-1E+10	1	-1E+10	1
4902549	123	C	01/10/2024	22:52	-133.164	47.916	0	274.50	0	5.2670	0	33.8100	0	26.704	0	272.018	0	104.4	4	33.9	4	-1E+10	1	-1E+10	1	-1E+10	1	-1E+10	1	-1E+10	1	-1E+10	1
4902549	123	C	01/10/2024	22:52	-133.164	47.916	0	275.60	0	5.2680	0	33.8110	0	26.704	0	273.107	0	103.6	4	33.6	4	-1E+10	1	-1E+10	1	-1E+10	1	-1E+10	1	-1E+10	1	-1E+10	1
4902549	123	C	01/10/2024	22:52	-133.164	47.916	0	276.60	0	5.2500	0	33.8140	0	26.709	0	274.098	0	102.9	4	33.4	4	-1E+10	1	-1E+10	1	-1E+10	1	-1E+10	1	-1E+10	1	-1E+10	1
4902549	123	C	01/10/2024	22:52	-133.164	47.916	0	277.60	0	5.2420	0	33.8180	0	26.713	0	275.088	0	102.4	4	33.2	4	-1E+10	1	-1E+10	1	-1E+10	1	-1E+10	1	-1E+10	1	-1E+10	1
4902549	123	C	01/10/2024	22:52	-133.164	47.916	0	278.60	0	5.2320	0	33.8170	0	26.713	0	276.078	0	101.8	4	33.0	4	-1E+10	1	-1E+10	1	-1E+10	1	-1E+10	1	-1E+10	1	-1E+10	1
4902549	123	C	01/10/2024	22:52	-133.164	47.916	0	279.60	0	5.2320	0	33.8170	0	26.713	0	277.068	0	101.2	4	32.8	4	-1E+10	1	-1E+10	1	-1E+10	1	-1E+10	1	-1E+10	1	-1E+10	1
4902549	123	C	01/10/2024	22:52	-133.164	47.916	0	280.60	0	5.2320	0	33.8170	0	26.713	0	278.059	0	100.5	4	32.6	4	-1E+10	1	-1E+10	1	-1E+10	1	-1E+10	1	-1E+10	1	-1E+10	1
4902549	123	C	01/10/2024	22:52	-133.164	47.916	0	281.60	0	5.2220	0	33.8200	0	26.717	0	279.049	0	99.9	4	32.4	4	-1E+10	1	-1E+10	1	-1E+10	1	-1E+10	1	-1E+10	1	-1E+10	1
4902549	123	C	01/10/2024	22:52	-133.164	47.916	0	282.60	0	5.1940	0	33.8170	0	26.718	0	280.039	0	99.3	4	32.2	4	-1E+10	1	-1E+10	1	-1E+10	1	-1E+10	1	-1E+10	1	-1E+10	1
4902549	123	C	01/10/2024	22:52	-133.164	47.916	0	283.60	0	5.1580	0	33.8180	0	26.723	0	281.029	0	98.8	4	32.0	4	-1E+10	1	-1E+10	1	-1E+10	1	-1E+10	1	-1E+10	1	-1E+10	1
4902549	123	C	01/10/2024	22:52	-133.164	47.916	0	284.60	0	5.1070	0	33.8190	0	26.729	0	282.020	0	98.5	4	31.9	4	-1E+10	1	-1E+10	1	-1E+10	1	-1E+10	1	-1E+10	1	-1E+10	1
4902549	123	C	01/10/2024	22:52	-133.164	47.916	0	285.60	0	5.1020	0	33.8180	0	26.729	0	283.010	0	98.2	4	31.7	4	-1E+10	1	-1E+10	1	-1E+10	1	-1E+10	1	-1E+10	1	-1E+10	1
4902549	123	C	01/10/2024	22:52	-133.164	47.916	0	286.70	0	5.1000	0	33.8190	0	26.730	0	284.099	0	97.7	4	31.6	4	-1E+10	1	-1E+10	1	-1E+10	1	-1E+10	1	-1E+10	1	-1E+10	1
4902549	123	C	01/10/2024	22:52	-133.164	47.916	0	287.70	0	5.0920	0	33.8180	0	26.730	0	285.089	0	97.2	4	31.4	4	-1E+10	1	-1E+10	1	-1E+10	1	-1E+10	1	-1E+10	1	-1E+10	1
4902549	123	C	01/10/2024	22:52	-133.164	47.916	0	288.70	0	5.0900	0	33.8180	0	26.731	0	286.080	0	96.7	4	31.3	4	-1E+10	1	-1E+10	1	-1E+10	1	-1E+10	1	-1E+10	1	-1E+10	1
4902549	123	C	01/10/2024	22:52	-133.164	47.916	0	289.70	0	5.0600	0	33.8200	0	26.736	0	287.070	0	96.3	4	31.1	4	-1E+10	1	-1E+10	1	-1E+10	1	-1E+10	1	-1E+10	1	-1E+10	1
4902549	123	C	01/10/2024	22:52	-133.164	47.916	0	290.70	0	5.0530	0	33.8200	0	26.736	0	288.060	0	95.9	4	31.0	4	-1E+10	1	-1E+10	1	-1E+10	1	-1E+10	1	-1E+10	1	-1E+10	1
4902549	123	C	01/10/2024	22:52	-133.164	47.916	0	291.70	0	5.0480	0	33.8200	0	26.737	0	289.050	0	95.5	4	30.8	4	-1E+10	1	-1E+10	1	-1E+10	1	-1E+10	1	-1E+10	1	-1E+10	1
4902549	123	C	01/10/2024	22:52	-133.164	47.916	0	292.60	0	5.0430	0	33.8200	0	26.738	0	289.942	0	95.0	4	30.7	4	-1E+10	1	-1E+10	1	-1E+10	1	-1E+10	1	-1E+10	1	-1E+10	1
4902549	123	C	01/10/2024	22:52	-133.164	47.916	0	293.70	0	5.0260	0	33.8210	0	26.740	0	291.031	0	94.4	4	30.5	4	-1E+10	1	-1E+10	1	-1E+10	1	-1E+10	1	-1E+10	1	-1E+10	1
4902549	123	C	01/10/2024	22:52	-133.164	47.916	0	294.80	0	5.0090	0	33.8220	0	26.743	0	292.120	0	93.9	4	30.3	4	-1E+10	1	-1E+10	1	-1E+10	1	-1E+10	1	-1E+10	1	-1E+10	1
4902549	123	C	01/10/2024	22:52	-133.164	47.916	0	296.00	0	4.9900	0	33.8240	0	26.747	0	293.308	0	93.3	4	30.1	4	-1E+10	1	-1E+10	1	-1E+10	1	-1E+10	1	-1E+10	1	-1E+10	1
4902549	123	C	01/10/2024	22:52	-133.164	47.916	0	296.80	0	4.9790	0	33.8220	0	26.746	0	294.100	0	92.9	4	29.9	4	-1E+10	1	-1E+10	1	-1E+10	1	-1E+10	1	-1E+10	1	-1E+10	1
4902549	123	C	01/10/2024	22:52	-133.164	47.916	0	297.90	0	4.9630	0	33.8240	0	26.750	0	295.190	0	92.4	4	29.8	4	-1E+10	1	-1E+10	1	-1E+10	1	-1E+10	1	-1E+10	1	-1E+10	1
4902549	123	C	01/10/2024	22:52	-133.164	47.916	0	299.10	0	4.9560	0	33.8220	0	26.749	0	296.378	0	91.8	4	29.6	4	-1E+10	1	-1E+10	1	-1E+10	1	-1E+10	1	-1E+10	1	-1E+10	1
4902549	123	C	01/10/2024	22:52	-133.164	47.916	0	299.90	0	4.9540	0	33.8230	0	26.750	0	297.170	0	91.3	4	29.4	4	-1E+10	1	-1E+10	1	-1E+10	1	-1E+10	1	-1E+10	1	-1E+10	1
4902549	123	C	01/10/2024	22:52	-133.164	47.916	0	301.00	0	4.9400	0	33.8220	0	26.751	0	298.259	0	90.6	4	29.2	4	-1E+10	1	-1E+10	1	-1E+10	1	-1E+10	1	-1E+10	1	-1E+10	1
4902549	123	C	01/10/2024	22:52	-133.164	47.916	0	302.20	0	4.9220	0	33.8230	0	26.754	0	299.447	0	89.8	4	28.9	4	-1E+10	1	-1E+10	1	-1E+10	1	-1E+10	1	-1E+10	1	-1E+10	1
4902549	123	C	01/10/2024	22:52	-133.164	47.916	0	303.00	0	4.9060	0	33.8250	0	26.757	0	300.240	0	89.3	4	28.7	4	-1E+10	1	-1E+10	1	-1E+10	1	-1E+10	1	-1E+10	1	-1E+10	1
4902549	123	C	01/10/2024	22:52	-133.164	47.916	0	303.80	0	4.8930	0	33.8250	0	26.759	0	301.032	0	88.9	4	28.6	4	-1E+10	1	-1E+10	1	-1E+10	1	-1E+10	1	-1E+10	1	-1E+10	1
4902549	123	C	01/10/2024	22:52	-133.164	47.916	0	305.00	0	4.8860	0	33.8240	0	26.759	0	302.220	0	88.2	4	28.4	4	-1E+10	1	-1E+10	1	-1E+10	1	-1E+10	1	-1E+10	1	-1E+10	1
4902549	123	C	01/10/2024	22:52	-133.164	47.916	0	306.20	0	4.8580	0	33.8250	0	26.762	0	303.408	0	87.6	4	28.2	4	-1E+10	1	-1E+10	1	-1E+10	1	-1E+10	1	-1E+10	1	-1E+10	1
4902549	123	C	01/10/2024	22:52	-133.164	47.916	0	307.00	0	4.8530	0	33.8260	0	26.764	0	304.200	0	87.2	4	28.0	4	-1E+10	1	-1E+10	1	-1E+10	1	-1E+10	1	-1E+10	1	-1E+10	1
4902549	123	C	01/10/2024	22:52	-133.164	47.916	0	307.80	0	4.8510	0	33.8260	0	26.764	0	304.992	0	86.8	4	27.9	4	-1E+10	1	-1E+10	1	-1E+10	1	-1E+10	1	-1E+10	1	-1E+10	1
4902549	123	C	01/10/2024	22:52	-133.164	47.916	0	309.00	0	4.8450	0	33.8280	0	26.766	0	306.180	0	86.2	4	27.7	4	-1E+10	1	-1E+10	1	-1E+10	1	-1E+10	1	-1E+10	1	-1E+10	1
4902549	123	C	01/10/2024	22:52	-133.164	47.916	0	310.20	0	4.8370	0	33.8280	0	26.767	0	307.369	0	85.6	4	27.5	4	-1E+10	1	-1E+10	1	-1E+10	1	-1E+10	1	-1E+10	1	-1E+10	1
4902549	123	C	01/10/2024	22:52	-133.164	47.916	0	311.10	0	4.8330	0	33.8290	0	26.768	0	308.260	0	85.1	4	27.4	4	-1E+10	1	-1E+10	1	-1E+10	1	-1E+10	1	-1E+10	1	-1E+10	1
4902549	123	C	01/10/2024	22:52	-133.164	47.916	0	311.90	0	4.8260	0	33.8300	0	26.770	0	309.052	0	84.7	4	27.2	4	-1E+10	1	-1E+10	1	-1E+10	1	-1E+10	1	-1E+10	1	-1E+10	1
4902549	123	C	01/10/2024	22:52	-133.164	47.916	0	312.70	0	4.8230	0	33.8300	0	26.770	0	309.844	0	84.2	4	27.0	4	-1E+10	1	-1E+10	1	-1E+10	1	-1E+10	1	-1E+10	1	-1E+10	1
4902549	123	C	01/10/2024	22:52	-133.164	47.916	0	313.90	0	4.8130	0	33.8300	0	26.772	0	311.032	0	83.4	4	26.8	4	-1E+10	1	-1E+10	1	-1E+10	1	-1E+10	1	-1E+10	1	-1E+10	1
4902549	123	C	01/10/2024	22:52	-133.164	47.916	0	315.20	0	4.7990	0	33.8320	0	26.775	0	312.319	0	82.7	4	26.5	4	-1E+10	1	-1E+10	1	-1E+10	1	-1E+10	1	-1E+10	1	-1E+10	1
4902549	123	C	01/10/2024	22:52	-133.164	47.916	0	316.10	0	4.7920	0	33.8320	0	26.775	0	313.210	0	82.3	4	26.4	4	-1E+10	1	-1E+10	1	-1E+10	1	-1E+10	1	-1E+10	1	-1E+10	1
4902549	123	C	01/10/2024	22:52	-133.164	47.916	0	316.90	0	4.7860	0	33.8330	0	26.777	0	314.002	0	82.0	4	26.3	4	-1E+10	1	-1E+10	1	-1E+10	1	-1E+10	1	-1E+10	1	-1E+10	1
4902549	123	C	01/10/2024	22:52	-133.164	47.916	0	317.70	0	4.7840	0	33.8320	0	26.776	0	314.794	0	81.6	4	26.2	4	-1E+10	1	-1E+10	1	-1E+10	1	-1E+10	1	-1E+10	1	-1E+10	1
4902549	123	C	01/10/2024	22:52	-133.164	47.916	0	318.60	0	4.7830	0	33.8320	0	26.776	0	315.686	0	81.2	4	26.1	4	-1E+10	1	-1E+10	1	-1E+10	1	-1E+10	1	-1E+10	1	-1E+10	1
4902549	123	C	01/10/2024	22:52	-133.164	47.916	0	319.90	0	4.7600	0	33.8330	0	26.780	0	316.973	0	80.7	4	25.9	4	-1E+10	1	-1E+10	1	-1E+10	1	-1E+10	1	-1E+10	1	-1E+10	1
4902549	123	C	01/10/2024	22:52	-133.164	47.916	0	321.20	0	4.7490	0	33.8360	0	26.783	0	318.260	0	80.1	4	25.7	4	-1E+10	1	-1E+10	1	-1E+10	1	-1E+10	1	-1E+10	1	-1E+10	1
4902549	123	C	01/10/2024	22:52	-133.164	47.916	0	322.00	0	4.7410	0	33.8340	0	26.783	0	319.052	0	79.7	4	25.6	4	-1E+10	1	-1E+10	1	-1E+10	1	-1E+10	1	-1E+10	1	-1E+10	1
4902549	123	C	01/10/2024	22:52	-133.164	47.916	0	322.90	0	4.7280	0	33.8340	0	26.784	0	319.943	0	79.4	4	25.4	4	-1E+10	1	-1E+10	1	-1E+10	1	-1E+10	1	-1E+10	1	-1E+10	1
4902549	123	C	01/10/2024	22:52	-133.164	47.916	0	323.70	0	4.7180	0	33.8340	0	26.785	0	320.735	0	79.0	4	25.3	4	-1E+10	1	-1E+10	1	-1E+10	1	-1E+10	1	-1E+10	1	-1E+10	1
4902549	123	C	01/10/2024	22:52	-133.164	47.916	0	325.00	0	4.7030	0	33.8350	0	26.788	0	322.022	0	78.4	4	25.1	4	-1E+10	1	-1E+10	1	-1E+10	1	-1E+10	1	-1E+10	1	-1E+10	1
4902549	123	C	01/10/2024	22:52	-133.164	47.916	0	326.30	0	4.6950	0	33.8360	0	26.789	0	323.309	0	77.8	4	24.9	4	-1E+10	1	-1E+10	1	-1E+10	1	-1E+10	1	-1E+10	1	-1E+10	1
4902549	123	C	01/10/2024	22:52	-133.164	47.916	0	327.10	0	4.6870	0	33.8380	0	26.792	0	324.101	0	77.4	4	24.8	4	-1E+10	1	-1E+10	1	-1E+10	1	-1E+10	1	-1E+10	1	-1E+10	1
4902549	123	C	01/10/2024	22:52	-133.164	47.916	0	328.00	0	4.6770	0	33.8390	0	26.794	0	324.992	0	77.0	4	24.7	4	-1E+10	1	-1E+10	1	-1E+10	1	-1E+10	1	-1E+10	1	-1E+10	1
4902549	123	C	01/10/2024	22:52	-133.164	47.916	0	328.90	0	4.6790	0	33.8390	0	26.794	0	325.883	0	76.8	4	24.6	4	-1E+10	1	-1E+10	1	-1E+10	1	-1E+10	1	-1E+10	1	-1E+10	1
4902549	123	C	01/10/2024	22:52	-133.164	47.916	0	329.70	0	4.6660	0	33.8400	0	26.796	0	326.675	0	76.6	4	24.5	4	-1E+10	1	-1E+10	1	-1E+10	1	-1E+10	1	-1E+10	1	-1E+10	1
4902549	123	C	01/10/2024	22:52	-133.164	47.916	0	331.00	0	4.6490	0	33.8400	0	26.798	0	327.962	0	76.3	4	24.4	4	-1E+10	1	-1E+10	1	-1E+10	1	-1E+10	1	-1E+10	1	-1E+10	1
4902549	123	C	01/10/2024	22:52	-133.164	47.916	0	332.30	0	4.6440	0	33.8400	0	26.798	0	329.249	0	76.0	4	24.3	4	-1E+10	1	-1E+10	1	-1E+10	1	-1E+10	1	-1E+10	1	-1E+10	1
4902549	123	C	01/10/2024	22:52	-133.164	47.916	0	333.10	0	4.6350	0	33.8390	0	26.798	0	330.041	0	75.7	4	24.2	4	-1E+10	1	-1E+10	1	-1E+10	1	-1E+10	1	-1E+10	1	-1E+10	1
4902549	123	C	01/10/2024	22:52	-133.164	47.916	0	334.00	0	4.6340	0	33.8390	0	26.798	0	330.932	0	75.4	4	24.1	4	-1E+10	1	-1E+10	1	-1E+10	1	-1E+10	1	-1E+10	1	-1E+10	1
4902549	123	C	01/10/2024	22:52	-133.164	47.916	0	334.80	0	4.6340	0	33.8380	0	26.798	0	331.724	0	75.0	4	24.0	4	-1E+10	1	-1E+10	1	-1E+10	1	-1E+10	1	-1E+10	1	-1E+10	1
4902549	123	C	01/10/2024	22:52	-133.164	47.916	0	335.70	0	4.6340	0	33.8380	0	26.798	0	332.615	0	74.6	4	23.9	4	-1E+10	1	-1E+10	1	-1E+10	1	-1E+10	1	-1E+10	1	-1E+10	1
4902549	123	C	01/10/2024	22:52	-133.164	47.916	0	336.90	0	4.6220	0	33.8390	0	26.800	0	333.803	0	74.0	4	23.6	4	-1E+10	1	-1E+10	1	-1E+10	1	-1E+10	1	-1E+10	1	-1E+10	1
4902549	123	C	01/10/2024	22:52	-133.164	47.916	0	338.30	0	4.6070	0	33.8430	0	26.805	0	335.189	0	73.4	4	23.5	4	-1E+10	1	-1E+10	1	-1E+10	1	-1E+10	1	-1E+10	1	-1E+10	1
4902549	123	C	01/10/2024	22:52	-133.164	47.916	0	339.10	0	4.5920	0	33.8430	0	26.806	0	335.981	0	73.1	4	23.3	4	-1E+10	1	-1E+10	1	-1E+10	1	-1E+10	1	-1E+10	1	-1E+10	1
4902549	123	C	01/10/2024	22:52	-133.164	47.916	0	340.00	0	4.5870	0	33.8430	0	26.807	0	336.872	0	72.7	4	23.2	4	-1E+10	1	-1E+10	1	-1E+10	1	-1E+10	1	-1E+10	1	-1E+10	1
4902549	123	C	01/10/2024	22:52	-133.164	47.916	0	340.80	0	4.5860	0	33.8440	0	26.808	0	337.664	0	72.4	4	23.1	4	-1E+10	1	-1E+10	1	-1E+10	1	-1E+10	1	-1E+10	1	-1E+10	1
4902549	123	C	01/10/2024	22:52	-133.164	47.916	0	341.70	0	4.5770	0	33.8460	0	26.810	0	338.555	0	72.1	4	23.0	4	-1E+10	1	-1E+10	1	-1E+10	1	-1E+10	1	-1E+10	1	-1E+10	1
4902549	123	C	01/10/2024	22:52	-133.164	47.916	0	342.90	0	4.5740	0	33.8460	0	26.811	0	339.743	0	71.7	4	22.9	4	-1E+10	1	-1E+10	1	-1E+10	1	-1E+10	1	-1E+10	1	-1E+10	1
4902549	123	C	01/10/2024	22:52	-133.164	47.916	0	344.20	0	4.5730	0	33.8470	0	26.812	0	341.030	0	71.2	4	22.7	4	-1E+10	1	-1E+10	1	-1E+10	1	-1E+10	1	-1E+10	1	-1E+10	1
4902549	123	C	01/10/2024	22:52	-133.164	47.916	0	345.10	0	4.5720	0	33.8470	0	26.812	0	341.921	0	70.7	4	22.6	4	-1E+10	1	-1E+10	1	-1E+10	1	-1E+10	1	-1E+10	1	-1E+10	1
4902549	123	C	01/10/2024	22:52	-133.164	47.916	0	346.00	0	4.5710	0	33.8470	0	26.812	0	342.812	0	70.3	4	22.4	4	-1E+10	1	-1E+10	1	-1E+10	1	-1E+10	1	-1E+10	1	-1E+10	1
4902549	123	C	01/10/2024	22:52	-133.164	47.916	0	346.90	0	4.5680	0	33.8480	0	26.813	0	343.703	0	69.9	4	22.3	4	-1E+10	1	-1E+10	1	-1E+10	1	-1E+10	1	-1E+10	1	-1E+10	1
4902549	123	C	01/10/2024	22:52	-133.164	47.916	0	347.70	0	4.5660	0	33.8480	0	26.813	0	344.495	0	69.4	4	22.1	4	-1E+10	1	-1E+10	1	-1E+10	1	-1E+10	1	-1E+10	1	-1E+10	1
4902549	123	C	01/10/2024	22:52	-133.164	47.916	0	348.90	0	4.5600	0	33.8500	0	26.815	0	345.683	0	68.6	4	21.9	4	-1E+10	1	-1E+10	1	-1E+10	1	-1E+10	1	-1E+10	1	-1E+10	1
4902549	123	C	01/10/2024	22:52	-133.164	47.916	0	350.30	0	4.5460	0	33.8530	0	26.819	0	347.069	0	67.7	4	21.6	4	-1E+10	1	-1E+10	1	-1E+10	1	-1E+10	1	-1E+10	1	-1E+10	1
4902549	123	C	01/10/2024	22:52	-133.164	47.916	0	353.10	0	4.5480	0	33.8600	0	26.825	0	349.841	0	66.2	4	21.1	4	-1E+10	1	-1E+10	1	-1E+10	1	-1E+10	1	-1E+10	1	-1E+10	1
4902549	123	C	01/10/2024	22:52	-133.164	47.916	0	358.10	0	4.5190	0	33.8690	0	26.835	0	354.790	0	64.6	4	20.6	4	-1E+10	1	-1E+10	1	-1E+10	1	-1E+10	1	-1E+10	1	-1E+10	1
4902549	123	C	01/10/2024	22:52	-133.164	47.916	0	363.20	0	4.4820	0	33.8740	0	26.843	0	359.839	0	63.5	4	20.2	4	-1E+10	1	-1E+10	1	-1E+10	1	-1E+10	1	-1E+10	1	-1E+10	1
4902549	123	C	01/10/2024	22:52	-133.164	47.916	0	367.90	0	4.4650	0	33.8780	0	26.848	0	364.491	0	62.4	4	19.9	4	-1E+10	1	-1E+10	1	-1E+10	1	-1E+10	1	-1E+10	1	-1E+10	1
4902549	123	C	01/10/2024	22:52	-133.164	47.916	0	372.60	0	4.4540	0	33.8860	0	26.856	0	369.143	0	61.4	4	19.6	4	-1E+10	1	-1E+10	1	-1E+10	1	-1E+10	1	-1E+10	1	-1E+10	1
4902549	123	C	01/10/2024	22:52	-133.164	47.916	0	377.80	0	4.4680	0	33.8970	0	26.863	0	374.291	0	59.6	4	19.0	4	-1E+10	1	-1E+10	1	-1E+10	1	-1E+10	1	-1E+10	1	-1E+10	1
4902549	123	C	01/10/2024	22:52	-133.164	47.916	0	383.10	0	4.4840	0	33.9080	0	26.870	0	379.536	0	57.6	4	18.4	4	-1E+10	1	-1E+10	1	-1E+10	1	-1E+10	1	-1E+10	1	-1E+10	1
4902549	123	C	01/10/2024	22:52	-133.164	47.916	0	388.10	0	4.5230	0	33.9230	0	26.878	0	384.485	0	55.4	4	17.7	4	-1E+10	1	-1E+10	1	-1E+10	1	-1E+10	1	-1E+10	1	-1E+10	1
4902549	123	C	01/10/2024	22:52	-133.164	47.916	0	392.70	0	4.5530	0	33.9380	0	26.886	0	389.038	0	53.9	4	17.2	4	-1E+10	1	-1E+10	1	-1E+10	1	-1E+10	1	-1E+10	1	-1E+10	1
4902549	123	C	01/10/2024	22:52	-133.164	47.916	0	397.80	0	4.5750	0	33.9470	0	26.891	0	394.086	0	52.7	4	16.8	4	-1E+10	1	-1E+10	1	-1E+10	1	-1E+10	1	-1E+10	1	-1E+10	1
4902549	123	C	01/10/2024	22:52	-133.164	47.916	0	403.00	0	4.5830	0	33.9520	0	26.894	0	399.232	0	51.8	4	16.5	4	-1E+10	1	-1E+10	1	-1E+10	1	-1E+10	1	-1E+10	1	-1E+10	1
4902549	123	C	01/10/2024	22:52	-133.164	47.916	0	407.80	0	4.4990	0	33.9500	0	26.902	0	403.983	0	51.0	4	16.3	4	-1E+10	1	-1E+10	1	-1E+10	1	-1E+10	1	-1E+10	1	-1E+10	1
4902549	123	C	01/10/2024	22:52	-133.164	47.916	0	412.60	0	4.4460	0	33.9490	0	26.907	0	408.733	0	49.5	4	15.8	4	-1E+10	1	-1E+10	1	-1E+10	1	-1E+10	1	-1E+10	1	-1E+10	1
4902549	123	C	01/10/2024	22:52	-133.164	47.916	0	417.90	0	4.4730	0	33.9620	0	26.914	0	413.978	0	47.2	4	15.0	4	-1E+10	1	-1E+10	1	-1E+10	1	-1E+10	1	-1E+10	1	-1E+10	1
4902549	123	C	01/10/2024	22:52	-133.164	47.916	0	423.30	0	4.4750	0	33.9750	0	26.924	0	419.322	0	46.0	4	14.7	4	-1E+10	1	-1E+10	1	-1E+10	1	-1E+10	1	-1E+10	1	-1E+10	1
4902549	123	C	01/10/2024	22:52	-133.164	47.916	0	428.20	0	4.4300	0	33.9780	0	26.932	0	424.171	0	45.3	4	14.4	4	-1E+10	1	-1E+10	1	-1E+10	1	-1E+10	1	-1E+10	1	-1E+10	1
4902549	123	C	01/10/2024	22:52	-133.164	47.916	0	433.20	0	4.4100	0	33.9830	0	26.938	0	429.119	0	45.0	4	14.3	4	-1E+10	1	-1E+10	1	-1E+10	1	-1E+10	1	-1E+10	1	-1E+10	1
4902549	123	C	01/10/2024	22:52	-133.164	47.916	0	438.20	0	4.3300	0	33.9790	0	26.943	0	434.066	0	44.7	4	14.2	4	-1E+10	1	-1E+10	1	-1E+10	1	-1E+10	1	-1E+10	1	-1E+10	1
4902549	123	C	01/10/2024	22:52	-133.164	47.916	0	442.90	0	4.2960	0	33.9780	0	26.946	0	438.717	0	44.1	4	14.0	4	-1E+10	1	-1E+10	1	-1E+10	1	-1E+10	1	-1E+10	1	-1E+10	1
4902549	123	C	01/10/2024	22:52	-133.164	47.916	0	447.50	0	4.2860	0	33.9790	0	26.948	0	443.269	0	43.3	4	13.8	4	-1E+10	1	-1E+10	1	-1E+10	1	-1E+10	1	-1E+10	1	-1E+10	1
4902549	123	C	01/10/2024	22:52	-133.164	47.916	0	452.60	0	4.2800	0	33.9850	0	26.953	0	448.315	0	42.3	4	13.4	4	-1E+10	1	-1E+10	1	-1E+10	1	-1E+10	1	-1E+10	1	-1E+10	1
4902549	123	C	01/10/2024	22:52	-133.164	47.916	0	457.90	0	4.2600	0	33.9900	0	26.959	0	453.559	0	41.3	4	13.1	4	-1E+10	1	-1E+10	1	-1E+10	1	-1E+10	1	-1E+10	1	-1E+10	1
4902549	123	C	01/10/2024	22:52	-133.164	47.916	0	463.00	0	4.2410	0	33.9970	0	26.967	0	458.605	0	40.4	4	12.8	4	-1E+10	1	-1E+10	1	-1E+10	1	-1E+10	1	-1E+10	1	-1E+10	1
4902549	123	C	01/10/2024	22:52	-133.164	47.916	0	467.90	0	4.2300	0	34.0000	0	26.970	0	463.453	0	39.7	4	12.6	4	-1E+10	1	-1E+10	1	-1E+10	1	-1E+10	1	-1E+10	1	-1E+10	1
4902549	123	C	01/10/2024	22:52	-133.164	47.916	0	472.80	0	4.2240	0	34.0040	0	26.974	0	468.301	0	38.8	4	12.3	4	-1E+10	1	-1E+10	1	-1E+10	1	-1E+10	1	-1E+10	1	-1E+10	1
4902549	123	C	01/10/2024	22:52	-133.164	47.916	0	477.90	0	4.2150	0	34.0090	0	26.979	0	473.347	0	37.8	4	12.0	4	-1E+10	1	-1E+10	1	-1E+10	1	-1E+10	1	-1E+10	1	-1E+10	1
4902549	123	C	01/10/2024	22:52	-133.164	47.916	0	483.10	0	4.2050	0	34.0170	0	26.987	0	478.491	0	36.9	4	11.7	4	-1E+10	1	-1E+10	1	-1E+10	1	-1E+10	1	-1E+10	1	-1E+10	1
4902549	123	C	01/10/2024	22:52	-133.164	47.916	0	488.00	0	4.2000	0	34.0210	0	26.990	0	483.339	0	36.3	4	11.5	4	-1E+10	1	-1E+10	1	-1E+10	1	-1E+10	1	-1E+10	1	-1E+10	1
4902549	123	C	01/10/2024	22:52	-133.164	47.916	0	492.90	0	4.1950	0	34.0240	0	26.993	0	488.186	0	35.5	4	11.3	4	-1E+10	1	-1E+10	1	-1E+10	1	-1E+10	1	-1E+10	1	-1E+10	1
4902549	123	C	01/10/2024	22:52	-133.164	47.916	0	497.90	0	4.1860	0	34.0300	0	26.999	0	493.132	0	34.7	4	11.0	4	-1E+10	1	-1E+10	1	-1E+10	1	-1E+10	1	-1E+10	1	-1E+10	1
4902549	123	C	01/10/2024	22:52	-133.164	47.916	0	502.90	0	4.1780	0	34.0350	0	27.004	0	498.078	0	34.2	4	10.8	4	-1E+10	1	-1E+10	1	-1E+10	1	-1E+10	1	-1E+10	1	-1E+10	1
4902549	123	C	01/10/2024	22:52	-133.164	47.916	0	507.90	0	4.1720	0	34.0370	0	27.006	0	503.024	0	33.6	4	10.6	4	-1E+10	1	-1E+10	1	-1E+10	1	-1E+10	1	-1E+10	1	-1E+10	1
4902549	123	C	01/10/2024	22:52	-133.164	47.916	0	512.90	0	4.1610	0	34.0400	0	27.010	0	507.970	0	32.8	4	10.4	4	-1E+10	1	-1E+10	1	-1E+10	1	-1E+10	1	-1E+10	1	-1E+10	1
4902549	123	C	01/10/2024	22:52	-133.164	47.916	0	518.00	0	4.1550	0	34.0430	0	27.013	0	513.015	0	31.9	4	10.1	4	-1E+10	1	-1E+10	1	-1E+10	1	-1E+10	1	-1E+10	1	-1E+10	1
4902549	123	C	01/10/2024	22:52	-133.164	47.916	0	523.00	0	4.1490	0	34.0500	0	27.019	0	517.961	0	30.9	4	9.8	4	-1E+10	1	-1E+10	1	-1E+10	1	-1E+10	1	-1E+10	1	-1E+10	1
4902549	123	C	01/10/2024	22:52	-133.164	47.916	0	528.10	0	4.1370	0	34.0560	0	27.025	0	523.005	0	29.9	4	9.5	4	-1E+10	1	-1E+10	1	-1E+10	1	-1E+10	1	-1E+10	1	-1E+10	1
4902549	123	C	01/10/2024	22:52	-133.164	47.916	0	532.80	0	4.1300	0	34.0610	0	27.030	0	527.654	0	29.1	4	9.2	4	-1E+10	1	-1E+10	1	-1E+10	1	-1E+10	1	-1E+10	1	-1E+10	1
4902549	123	C	01/10/2024	22:52	-133.164	47.916	0	537.90	0	4.1230	0	34.0640	0	27.033	0	532.698	0	28.2	4	8.9	4	-1E+10	1	-1E+10	1	-1E+10	1	-1E+10	1	-1E+10	1	-1E+10	1
4902549	123	C	01/10/2024	22:52	-133.164	47.916	0	543.00	0	4.1150	0	34.0700	0	27.039	0	537.742	0	27.2	4	8.6	4	-1E+10	1	-1E+10	1	-1E+10	1	-1E+10	1	-1E+10	1	-1E+10	1
4902549	123	C	01/10/2024	22:52	-133.164	47.916	0	547.70	0	4.1100	0	34.0760	0	27.044	0	542.390	0	26.7	4	8.4	4	-1E+10	1	-1E+10	1	-1E+10	1	-1E+10	1	-1E+10	1	-1E+10	1
4902549	123	C	01/10/2024	22:52	-133.164	47.916	0	552.80	0	4.1080	0	34.0780	0	27.046	0	547.434	0	26.0	4	8.2	4	-1E+10	1	-1E+10	1	-1E+10	1	-1E+10	1	-1E+10	1	-1E+10	1
4902549	123	C	01/10/2024	22:52	-133.164	47.916	0	557.90	0	4.0950	0	34.0840	0	27.052	0	552.478	0	25.3	4	8.0	4	-1E+10	1	-1E+10	1	-1E+10	1	-1E+10	1	-1E+10	1	-1E+10	1
4902549	123	C	01/10/2024	22:52	-133.164	47.916	0	562.90	0	4.0820	0	34.0890	0	27.057	0	557.423	0	24.7	4	7.8	4	-1E+10	1	-1E+10	1	-1E+10	1	-1E+10	1	-1E+10	1	-1E+10	1
4902549	123	C	01/10/2024	22:52	-133.164	47.916	0	567.90	0	4.0720	0	34.0930	0	27.062	0	562.367	0	24.0	4	7.6	4	-1E+10	1	-1E+10	1	-1E+10	1	-1E+10	1	-1E+10	1	-1E+10	1
4902549	123	C	01/10/2024	22:52	-133.164	47.916	0	572.90	0	4.0620	0	34.0990	0	27.067	0	567.312	0	23.3	4	7.4	4	-1E+10	1	-1E+10	1	-1E+10	1	-1E+10	1	-1E+10	1	-1E+10	1
4902549	123	C	01/10/2024	22:52	-133.164	47.916	0	577.90	0	4.0550	0	34.1020	0	27.071	0	572.256	0	22.8	4	7.2	4	-1E+10	1	-1E+10	1	-1E+10	1	-1E+10	1	-1E+10	1	-1E+10	1
4902549	123	C	01/10/2024	22:52	-133.164	47.916	0	582.80	0	4.0410	0	34.1080	0	27.077	0	577.102	0	22.4	4	7.1	4	-1E+10	1	-1E+10	1	-1E+10	1	-1E+10	1	-1E+10	1	-1E+10	1
4902549	123	C	01/10/2024	22:52	-133.164	47.916	0	587.80	0	4.0280	0	34.1120	0	27.081	0	582.046	0	22.1	4	7.0	4	-1E+10	1	-1E+10	1	-1E+10	1	-1E+10	1	-1E+10	1	-1E+10	1
4902549	123	C	01/10/2024	22:52	-133.164	47.916	0	592.80	0	4.0090	0	34.1170	0	27.087	0	586.990	0	21.9	4	6.9	4	-1E+10	1	-1E+10	1	-1E+10	1	-1E+10	1	-1E+10	1	-1E+10	1
4902549	123	C	01/10/2024	22:52	-133.164	47.916	0	597.80	0	4.0040	0	34.1190	0	27.089	0	591.934	0	21.3	4	6.7	4	-1E+10	1	-1E+10	1	-1E+10	1	-1E+10	1	-1E+10	1	-1E+10	1
4902549	123	C	01/10/2024	22:52	-133.164	47.916	0	602.80	0	3.9940	0	34.1240	0	27.094	0	596.877	0	20.9	4	6.6	4	-1E+10	1	-1E+10	1	-1E+10	1	-1E+10	1	-1E+10	1	-1E+10	1
4902549	123	C	01/10/2024	22:52	-133.164	47.916	0	607.80	0	3.9820	0	34.1280	0	27.099	0	601.821	0	20.5	4	6.5	4	-1E+10	1	-1E+10	1	-1E+10	1	-1E+10	1	-1E+10	1	-1E+10	1
4902549	123	C	01/10/2024	22:52	-133.164	47.916	0	612.90	0	3.9740	0	34.1300	0	27.101	0	606.863	0	20.1	4	6.3	4	-1E+10	1	-1E+10	1	-1E+10	1	-1E+10	1	-1E+10	1	-1E+10	1
4902549	123	C	01/10/2024	22:52	-133.164	47.916	0	618.20	0	3.9550	0	34.1360	0	27.108	0	612.103	0	19.7	4	6.2	4	-1E+10	1	-1E+10	1	-1E+10	1	-1E+10	1	-1E+10	1	-1E+10	1
4902549	123	C	01/10/2024	22:52	-133.164	47.916	0	623.00	0	3.9340	0	34.1410	0	27.114	0	616.849	0	19.4	4	6.1	4	-1E+10	1	-1E+10	1	-1E+10	1	-1E+10	1	-1E+10	1	-1E+10	1
4902549	123	C	01/10/2024	22:52	-133.164	47.916	0	627.80	0	3.9250	0	34.1440	0	27.118	0	621.594	0	19.2	4	6.0	4	-1E+10	1	-1E+10	1	-1E+10	1	-1E+10	1	-1E+10	1	-1E+10	1
4902549	123	C	01/10/2024	22:52	-133.164	47.916	0	632.60	0	3.9160	0	34.1470	0	27.121	0	626.340	0	19.0	4	6.0	4	-1E+10	1	-1E+10	1	-1E+10	1	-1E+10	1	-1E+10	1	-1E+10	1
4902549	123	C	01/10/2024	22:52	-133.164	47.916	0	637.60	0	3.9070	0	34.1490	0	27.123	0	631.283	0	18.7	4	5.9	4	-1E+10	1	-1E+10	1	-1E+10	1	-1E+10	1	-1E+10	1	-1E+10	1
4902549	123	C	01/10/2024	22:52	-133.164	47.916	0	642.50	0	3.8890	0	34.1540	0	27.129	0	636.127	0	18.4	4	5.8	4	-1E+10	1	-1E+10	1	-1E+10	1	-1E+10	1	-1E+10	1	-1E+10	1
4902549	123	C	01/10/2024	22:52	-133.164	47.916	0	648.00	0	3.8780	0	34.1570	0	27.133	0	641.564	0	18.0	4	5.7	4	-1E+10	1	-1E+10	1	-1E+10	1	-1E+10	1	-1E+10	1	-1E+10	1
4902549	123	C	01/10/2024	22:52	-133.164	47.916	0	653.40	0	3.8640	0	34.1620	0	27.138	0	646.902	0	17.6	4	5.5	4	-1E+10	1	-1E+10	1	-1E+10	1	-1E+10	1	-1E+10	1	-1E+10	1
4902549	123	C	01/10/2024	22:52	-133.164	47.916	0	658.00	0	3.8540	0	34.1650	0	27.142	0	651.449	0	17.3	4	5.4	4	-1E+10	1	-1E+10	1	-1E+10	1	-1E+10	1	-1E+10	1	-1E+10	1
4902549	123	C	01/10/2024	22:52	-133.164	47.916	0	662.80	0	3.8460	0	34.1680	0	27.145	0	656.193	0	17.0	4	5.4	4	-1E+10	1	-1E+10	1	-1E+10	1	-1E+10	1	-1E+10	1	-1E+10	1
4902549	123	C	01/10/2024	22:52	-133.164	47.916	0	667.80	0	3.8430	0	34.1690	0	27.146	0	661.136	0	16.7	4	5.2	4	-1E+10	1	-1E+10	1	-1E+10	1	-1E+10	1	-1E+10	1	-1E+10	1
4902549	123	C	01/10/2024	22:52	-133.164	47.916	0	672.90	0	3.8280	0	34.1730	0	27.151	0	666.177	0	16.2	4	5.1	4	-1E+10	1	-1E+10	1	-1E+10	1	-1E+10	1	-1E+10	1	-1E+10	1
4902549	123	C	01/10/2024	22:52	-133.164	47.916	0	678.00	0	3.8100	0	34.1790	0	27.157	0	671.217	0	15.6	4	4.9	4	-1E+10	1	-1E+10	1	-1E+10	1	-1E+10	1	-1E+10	1	-1E+10	1
4902549	123	C	01/10/2024	22:52	-133.164	47.916	0	683.00	0	3.7930	0	34.1840	0	27.163	0	676.159	0	15.2	4	4.8	4	-1E+10	1	-1E+10	1	-1E+10	1	-1E+10	1	-1E+10	1	-1E+10	1
4902549	123	C	01/10/2024	22:52	-133.164	47.916	0	688.00	0	3.7820	0	34.1880	0	27.167	0	681.101	0	14.9	4	4.7	4	-1E+10	1	-1E+10	1	-1E+10	1	-1E+10	1	-1E+10	1	-1E+10	1
4902549	123	C	01/10/2024	22:52	-133.164	47.916	0	693.20	0	3.7650	0	34.1930	0	27.173	0	686.240	0	14.6	4	4.6	4	-1E+10	1	-1E+10	1	-1E+10	1	-1E+10	1	-1E+10	1	-1E+10	1
4902549	123	C	01/10/2024	22:52	-133.164	47.916	0	698.00	0	3.7540	0	34.1970	0	27.177	0	690.984	0	14.4	4	4.5	4	-1E+10	1	-1E+10	1	-1E+10	1	-1E+10	1	-1E+10	1	-1E+10	1
4902549	123	C	01/10/2024	22:52	-133.164	47.916	0	702.80	0	3.7460	0	34.2000	0	27.181	0	695.728	0	14.3	4	4.5	4	-1E+10	1	-1E+10	1	-1E+10	1	-1E+10	1	-1E+10	1	-1E+10	1
4902549	123	C	01/10/2024	22:52	-133.164	47.916	0	707.70	0	3.7410	0	34.2010	0	27.182	0	700.570	0	14.1	4	4.4	4	-1E+10	1	-1E+10	1	-1E+10	1	-1E+10	1	-1E+10	1	-1E+10	1
4902549	123	C	01/10/2024	22:52	-133.164	47.916	0	712.70	0	3.7360	0	34.2030	0	27.184	0	705.512	0	13.9	4	4.4	4	-1E+10	1	-1E+10	1	-1E+10	1	-1E+10	1	-1E+10	1	-1E+10	1
4902549	123	C	01/10/2024	22:52	-133.164	47.916	0	717.60	0	3.7350	0	34.2040	0	27.185	0	710.354	0	13.7	4	4.3	4	-1E+10	1	-1E+10	1	-1E+10	1	-1E+10	1	-1E+10	1	-1E+10	1
4902549	123	C	01/10/2024	22:52	-133.164	47.916	0	722.60	0	3.7140	0	34.2100	0	27.192	0	715.295	0	13.4	4	4.2	4	-1E+10	1	-1E+10	1	-1E+10	1	-1E+10	1	-1E+10	1	-1E+10	1
4902549	123	C	01/10/2024	22:52	-133.164	47.916	0	727.60	0	3.7030	0	34.2140	0	27.196	0	720.235	0	13.2	4	4.1	4	-1E+10	1	-1E+10	1	-1E+10	1	-1E+10	1	-1E+10	1	-1E+10	1
4902549	123	C	01/10/2024	22:52	-133.164	47.916	0	732.70	0	3.6960	0	34.2170	0	27.199	0	725.275	0	12.9	4	4.1	4	-1E+10	1	-1E+10	1	-1E+10	1	-1E+10	1	-1E+10	1	-1E+10	1
4902549	123	C	01/10/2024	22:52	-133.164	47.916	0	737.90	0	3.6900	0	34.2190	0	27.201	0	730.413	0	12.8	4	4.0	4	-1E+10	1	-1E+10	1	-1E+10	1	-1E+10	1	-1E+10	1	-1E+10	1
4902549	123	C	01/10/2024	22:52	-133.164	47.916	0	743.00	0	3.6820	0	34.2220	0	27.205	0	735.453	0	12.6	4	3.9	4	-1E+10	1	-1E+10	1	-1E+10	1	-1E+10	1	-1E+10	1	-1E+10	1
4902549	123	C	01/10/2024	22:52	-133.164	47.916	0	748.20	0	3.6690	0	34.2250	0	27.208	0	740.590	0	12.5	4	3.9	4	-1E+10	1	-1E+10	1	-1E+10	1	-1E+10	1	-1E+10	1	-1E+10	1
4902549	123	C	01/10/2024	22:52	-133.164	47.916	0	752.80	0	3.6620	0	34.2270	0	27.211	0	745.135	0	12.3	4	3.9	4	-1E+10	1	-1E+10	1	-1E+10	1	-1E+10	1	-1E+10	1	-1E+10	1
4902549	123	C	01/10/2024	22:52	-133.164	47.916	0	757.50	0	3.6550	0	34.2290	0	27.213	0	749.779	0	12.2	4	3.8	4	-1E+10	1	-1E+10	1	-1E+10	1	-1E+10	1	-1E+10	1	-1E+10	1
4902549	123	C	01/10/2024	22:52	-133.164	47.916	0	762.70	0	3.6400	0	34.2330	0	27.218	0	754.917	0	12.1	4	3.8	4	-1E+10	1	-1E+10	1	-1E+10	1	-1E+10	1	-1E+10	1	-1E+10	1
4902549	123	C	01/10/2024	22:52	-133.164	47.916	0	767.90	0	3.6300	0	34.2340	0	27.219	0	760.054	0	12.0	4	3.7	4	-1E+10	1	-1E+10	1	-1E+10	1	-1E+10	1	-1E+10	1	-1E+10	1
4902549	123	C	01/10/2024	22:52	-133.164	47.916	0	773.00	0	3.6160	0	34.2380	0	27.224	0	765.093	0	11.8	4	3.7	4	-1E+10	1	-1E+10	1	-1E+10	1	-1E+10	1	-1E+10	1	-1E+10	1
4902549	123	C	01/10/2024	22:52	-133.164	47.916	0	778.20	0	3.6070	0	34.2400	0	27.227	0	770.230	0	11.6	4	3.6	4	-1E+10	1	-1E+10	1	-1E+10	1	-1E+10	1	-1E+10	1	-1E+10	1
4902549	123	C	01/10/2024	22:52	-133.164	47.916	0	782.90	0	3.5930	0	34.2450	0	27.232	0	774.873	0	11.5	4	3.6	4	-1E+10	1	-1E+10	1	-1E+10	1	-1E+10	1	-1E+10	1	-1E+10	1
4902549	123	C	01/10/2024	22:52	-133.164	47.916	0	787.60	0	3.5860	0	34.2460	0	27.233	0	779.516	0	11.4	4	3.6	4	-1E+10	1	-1E+10	1	-1E+10	1	-1E+10	1	-1E+10	1	-1E+10	1
4902549	123	C	01/10/2024	22:52	-133.164	47.916	0	792.90	0	3.5800	0	34.2480	0	27.236	0	784.752	0	11.2	4	3.5	4	-1E+10	1	-1E+10	1	-1E+10	1	-1E+10	1	-1E+10	1	-1E+10	1
4902549	123	C	01/10/2024	22:52	-133.164	47.916	0	798.20	0	3.5700	0	34.2500	0	27.238	0	789.987	0	11.1	4	3.5	4	-1E+10	1	-1E+10	1	-1E+10	1	-1E+10	1	-1E+10	1	-1E+10	1
4902549	123	C	01/10/2024	22:52	-133.164	47.916	0	802.90	0	3.5600	0	34.2530	0	27.242	0	794.630	0	11.0	4	3.4	4	-1E+10	1	-1E+10	1	-1E+10	1	-1E+10	1	-1E+10	1	-1E+10	1
4902549	123	C	01/10/2024	22:52	-133.164	47.916	0	807.70	0	3.5460	0	34.2550	0	27.245	0	799.371	0	10.9	4	3.4	4	-1E+10	1	-1E+10	1	-1E+10	1	-1E+10	1	-1E+10	1	-1E+10	1
4902549	123	C	01/10/2024	22:52	-133.164	47.916	0	813.00	0	3.5430	0	34.2580	0	27.247	0	804.607	0	10.7	4	3.4	4	-1E+10	1	-1E+10	1	-1E+10	1	-1E+10	1	-1E+10	1	-1E+10	1
4902549	123	C	01/10/2024	22:52	-133.164	47.916	0	818.20	0	3.5220	0	34.2610	0	27.252	0	809.743	0	10.7	4	3.3	4	-1E+10	1	-1E+10	1	-1E+10	1	-1E+10	1	-1E+10	1	-1E+10	1
4902549	123	C	01/10/2024	22:52	-133.164	47.916	0	823.00	0	3.5190	0	34.2630	0	27.254	0	814.484	0	10.5	4	3.3	4	-1E+10	1	-1E+10	1	-1E+10	1	-1E+10	1	-1E+10	1	-1E+10	1
4902549	123	C	01/10/2024	22:52	-133.164	47.916	0	827.60	0	3.5090	0	34.2650	0	27.256	0	819.027	0	10.4	4	3.3	4	-1E+10	1	-1E+10	1	-1E+10	1	-1E+10	1	-1E+10	1	-1E+10	1
4902549	123	C	01/10/2024	22:52	-133.164	47.916	0	832.90	0	3.4880	0	34.2680	0	27.261	0	824.262	0	10.4	4	3.2	4	-1E+10	1	-1E+10	1	-1E+10	1	-1E+10	1	-1E+10	1	-1E+10	1
4902549	123	C	01/10/2024	22:52	-133.164	47.916	0	838.10	0	3.4750	0	34.2720	0	27.265	0	829.398	0	10.2	4	3.2	4	-1E+10	1	-1E+10	1	-1E+10	1	-1E+10	1	-1E+10	1	-1E+10	1
4902549	123	C	01/10/2024	22:52	-133.164	47.916	0	843.20	0	3.4670	0	34.2750	0	27.268	0	834.435	0	10.0	4	3.1	4	-1E+10	1	-1E+10	1	-1E+10	1	-1E+10	1	-1E+10	1	-1E+10	1
4902549	123	C	01/10/2024	22:52	-133.164	47.916	0	848.40	0	3.4530	0	34.2760	0	27.271	0	839.570	0	9.8	4	3.0	4	-1E+10	1	-1E+10	1	-1E+10	1	-1E+10	1	-1E+10	1	-1E+10	1
4902549	123	C	01/10/2024	22:52	-133.164	47.916	0	852.90	0	3.4510	0	34.2800	0	27.274	0	844.014	0	9.5	4	3.0	4	-1E+10	1	-1E+10	1	-1E+10	1	-1E+10	1	-1E+10	1	-1E+10	1
4902549	123	C	01/10/2024	22:52	-133.164	47.916	0	857.50	0	3.4560	0	34.2820	0	27.275	0	848.557	0	9.4	4	2.9	4	-1E+10	1	-1E+10	1	-1E+10	1	-1E+10	1	-1E+10	1	-1E+10	1
4902549	123	C	01/10/2024	22:52	-133.164	47.916	0	862.60	0	3.4360	0	34.2830	0	27.278	0	853.593	0	9.3	4	2.9	4	-1E+10	1	-1E+10	1	-1E+10	1	-1E+10	1	-1E+10	1	-1E+10	1
4902549	123	C	01/10/2024	22:52	-133.164	47.916	0	867.60	0	3.4280	0	34.2860	0	27.281	0	858.531	0	9.1	4	2.8	4	-1E+10	1	-1E+10	1	-1E+10	1	-1E+10	1	-1E+10	1	-1E+10	1
4902549	123	C	01/10/2024	22:52	-133.164	47.916	0	872.60	0	3.4240	0	34.2880	0	27.283	0	863.468	0	8.7	4	2.7	4	-1E+10	1	-1E+10	1	-1E+10	1	-1E+10	1	-1E+10	1	-1E+10	1
4902549	123	C	01/10/2024	22:52	-133.164	47.916	0	877.70	0	3.4190	0	34.2920	0	27.287	0	868.504	0	8.4	4	2.6	4	-1E+10	1	-1E+10	1	-1E+10	1	-1E+10	1	-1E+10	1	-1E+10	1
4902549	123	C	01/10/2024	22:52	-133.164	47.916	0	882.80	0	3.4210	0	34.2950	0	27.289	0	873.540	0	7.9	4	2.5	4	-1E+10	1	-1E+10	1	-1E+10	1	-1E+10	1	-1E+10	1	-1E+10	1
4902549	123	C	01/10/2024	22:52	-133.164	47.916	0	887.90	0	3.4270	0	34.3030	0	27.295	0	878.576	0	7.7	4	2.4	4	-1E+10	1	-1E+10	1	-1E+10	1	-1E+10	1	-1E+10	1	-1E+10	1
4902549	123	C	01/10/2024	22:52	-133.164	47.916	0	893.00	0	3.4260	0	34.3060	0	27.297	0	883.612	0	7.5	4	2.3	4	-1E+10	1	-1E+10	1	-1E+10	1	-1E+10	1	-1E+10	1	-1E+10	1
4902549	123	C	01/10/2024	22:52	-133.164	47.916	0	898.10	0	3.4120	0	34.3090	0	27.301	0	888.647	0	7.4	4	2.3	4	-1E+10	1	-1E+10	1	-1E+10	1	-1E+10	1	-1E+10	1	-1E+10	1
4902549	123	C	01/10/2024	22:52	-133.164	47.916	0	903.20	0	3.4030	0	34.3130	0	27.305	0	893.683	0	7.3	4	2.3	4	-1E+10	1	-1E+10	1	-1E+10	1	-1E+10	1	-1E+10	1	-1E+10	1
4902549	123	C	01/10/2024	22:52	-133.164	47.916	0	908.30	0	3.3930	0	34.3160	0	27.309	0	898.718	0	7.3	4	2.3	4	-1E+10	1	-1E+10	1	-1E+10	1	-1E+10	1	-1E+10	1	-1E+10	1
4902549	123	C	01/10/2024	22:52	-133.164	47.916	0	913.20	0	3.3710	0	34.3180	0	27.312	0	903.556	0	7.4	4	2.3	4	-1E+10	1	-1E+10	1	-1E+10	1	-1E+10	1	-1E+10	1	-1E+10	1
4902549	123	C	01/10/2024	22:52	-133.164	47.916	0	917.70	0	3.3540	0	34.3180	0	27.314	0	907.998	0	7.4	4	2.3	4	-1E+10	1	-1E+10	1	-1E+10	1	-1E+10	1	-1E+10	1	-1E+10	1
4902549	123	C	01/10/2024	22:52	-133.164	47.916	0	922.90	0	3.3480	0	34.3190	0	27.315	0	913.132	0	7.2	4	2.3	4	-1E+10	1	-1E+10	1	-1E+10	1	-1E+10	1	-1E+10	1	-1E+10	1
4902549	123	C	01/10/2024	22:52	-133.164	47.916	0	928.10	0	3.3340	0	34.3230	0	27.320	0	918.266	0	7.1	4	2.2	4	-1E+10	1	-1E+10	1	-1E+10	1	-1E+10	1	-1E+10	1	-1E+10	1
4902549	123	C	01/10/2024	22:52	-133.164	47.916	0	933.00	0	3.3250	0	34.3280	0	27.325	0	923.103	0	6.9	4	2.2	4	-1E+10	1	-1E+10	1	-1E+10	1	-1E+10	1	-1E+10	1	-1E+10	1
4902549	123	C	01/10/2024	22:52	-133.164	47.916	0	938.00	0	3.3190	0	34.3310	0	27.328	0	928.039	0	6.9	4	2.1	4	-1E+10	1	-1E+10	1	-1E+10	1	-1E+10	1	-1E+10	1	-1E+10	1
4902549	123	C	01/10/2024	22:52	-133.164	47.916	0	942.90	0	3.3100	0	34.3350	0	27.332	0	932.876	0	6.9	4	2.1	4	-1E+10	1	-1E+10	1	-1E+10	1	-1E+10	1	-1E+10	1	-1E+10	1
4902549	123	C	01/10/2024	22:52	-133.164	47.916	0	947.90	0	3.2980	0	34.3370	0	27.334	0	937.812	0	6.9	4	2.1	4	-1E+10	1	-1E+10	1	-1E+10	1	-1E+10	1	-1E+10	1	-1E+10	1
4902549	123	C	01/10/2024	22:52	-133.164	47.916	0	953.10	0	3.2800	0	34.3390	0	27.338	0	942.944	0	6.8	4	2.1	4	-1E+10	1	-1E+10	1	-1E+10	1	-1E+10	1	-1E+10	1	-1E+10	1
4902549	123	C	01/10/2024	22:52	-133.164	47.916	0	958.00	0	3.2730	0	34.3410	0	27.340	0	947.781	0	6.8	4	2.1	4	-1E+10	1	-1E+10	1	-1E+10	1	-1E+10	1	-1E+10	1	-1E+10	1
4902549	123	C	01/10/2024	22:52	-133.164	47.916	0	962.70	0	3.2700	0	34.3430	0	27.342	0	952.420	0	6.8	4	2.1	4	-1E+10	1	-1E+10	1	-1E+10	1	-1E+10	1	-1E+10	1	-1E+10	1
4902549	123	C	01/10/2024	22:52	-133.164	47.916	0	967.80	0	3.2640	0	34.3460	0	27.345	0	957.454	0	6.7	4	2.1	4	-1E+10	1	-1E+10	1	-1E+10	1	-1E+10	1	-1E+10	1	-1E+10	1
4902549	123	C	01/10/2024	22:52	-133.164	47.916	0	973.00	0	3.2550	0	34.3490	0	27.348	0	962.587	0	6.7	4	2.1	4	-1E+10	1	-1E+10	1	-1E+10	1	-1E+10	1	-1E+10	1	-1E+10	1
4902549	123	C	01/10/2024	22:52	-133.164	47.916	0	977.90	0	3.2410	0	34.3490	0	27.350	0	967.423	0	6.8	4	2.1	4	-1E+10	1	-1E+10	1	-1E+10	1	-1E+10	1	-1E+10	1	-1E+10	1
4902549	123	C	01/10/2024	22:52	-133.164	47.916	0	982.80	0	3.2280	0	34.3510	0	27.352	0	972.259	0	6.8	4	2.1	4	-1E+10	1	-1E+10	1	-1E+10	1	-1E+10	1	-1E+10	1	-1E+10	1
4902549	123	C	01/10/2024	22:52	-133.164	47.916	0	987.80	0	3.2140	0	34.3530	0	27.355	0	977.194	0	6.8	4	2.1	4	-1E+10	1	-1E+10	1	-1E+10	1	-1E+10	1	-1E+10	1	-1E+10	1
4902549	123	C	01/10/2024	22:52	-133.164	47.916	0	992.90	0	3.2010	0	34.3560	0	27.359	0	982.227	0	6.8	4	2.1	4	-1E+10	1	-1E+10	1	-1E+10	1	-1E+10	1	-1E+10	1	-1E+10	1
4902549	123	C	01/10/2024	22:52	-133.164	47.916	0	998.10	0	3.1950	0	34.3570	0	27.360	0	987.359	0	6.8	4	2.1	4	-1E+10	1	-1E+10	1	-1E+10	1	-1E+10	1	-1E+10	1	-1E+10	1
4902549	123	C	01/10/2024	22:52	-133.164	47.916	0	1005.50	0	3.1730	0	34.3600	0	27.365	0	994.662	0	6.9	4	2.1	4	-1E+10	1	-1E+10	1	-1E+10	1	-1E+10	1	-1E+10	1	-1E+10	1
4902549	123	C	01/10/2024	22:52	-133.164	47.916	0	1015.50	0	3.1480	0	34.3650	0	27.371	0	1004.530	0	6.9	4	2.1	4	-1E+10	1	-1E+10	1	-1E+10	1	-1E+10	1	-1E+10	1	-1E+10	1
4902549	123	C	01/10/2024	22:52	-133.164	47.916	0	1025.70	0	3.1280	0	34.3680	0	27.375	0	1014.595	0	6.9	4	2.1	4	-1E+10	1	-1E+10	1	-1E+10	1	-1E+10	1	-1E+10	1	-1E+10	1
4902549	123	C	01/10/2024	22:52	-133.164	47.916	0	1035.30	0	3.1050	0	34.3710	0	27.380	0	1024.068	0	6.9	4	2.1	4	-1E+10	1	-1E+10	1	-1E+10	1	-1E+10	1	-1E+10	1	-1E+10	1
4902549	123	C	01/10/2024	22:52	-133.164	47.916	0	1045.00	0	3.1140	0	34.3770	0	27.384	0	1033.639	0	6.9	4	2.1	4	-1E+10	1	-1E+10	1	-1E+10	1	-1E+10	1	-1E+10	1	-1E+10	1
4902549	123	C	01/10/2024	22:52	-133.164	47.916	0	1055.40	0	3.0930	0	34.3820	0	27.390	0	1043.900	0	7.0	4	2.2	4	-1E+10	1	-1E+10	1	-1E+10	1	-1E+10	1	-1E+10	1	-1E+10	1
4902549	123	C	01/10/2024	22:52	-133.164	47.916	0	1065.80	0	3.0840	0	34.3860	0	27.394	0	1054.160	0	7.0	4	2.2	4	-1E+10	1	-1E+10	1	-1E+10	1	-1E+10	1	-1E+10	1	-1E+10	1
4902549	123	C	01/10/2024	22:52	-133.164	47.916	0	1075.40	0	3.0830	0	34.3920	0	27.399	0	1063.631	0	7.0	4	2.1	4	-1E+10	1	-1E+10	1	-1E+10	1	-1E+10	1	-1E+10	1	-1E+10	1
4902549	123	C	01/10/2024	22:52	-133.164	47.916	0	1085.10	0	3.0800	0	34.3940	0	27.401	0	1073.200	0	7.0	4	2.2	4	-1E+10	1	-1E+10	1	-1E+10	1	-1E+10	1	-1E+10	1	-1E+10	1
4902549	123	C	01/10/2024	22:52	-133.164	47.916	0	1095.20	0	3.0690	0	34.3990	0	27.406	0	1083.163	0	7.1	4	2.2	4	-1E+10	1	-1E+10	1	-1E+10	1	-1E+10	1	-1E+10	1	-1E+10	1
4902549	123	C	01/10/2024	22:52	-133.164	47.916	0	1105.40	0	3.0580	0	34.4030	0	27.410	0	1093.225	0	7.3	4	2.2	4	-1E+10	1	-1E+10	1	-1E+10	1	-1E+10	1	-1E+10	1	-1E+10	1
4902549	123	C	01/10/2024	22:52	-133.164	47.916	0	1115.30	0	2.9940	0	34.4000	0	27.414	0	1102.990	0	7.4	4	2.3	4	-1E+10	1	-1E+10	1	-1E+10	1	-1E+10	1	-1E+10	1	-1E+10	1
4902549	123	C	01/10/2024	22:52	-133.164	47.916	0	1125.10	0	2.9720	0	34.4030	0	27.418	0	1112.656	0	7.5	4	2.3	4	-1E+10	1	-1E+10	1	-1E+10	1	-1E+10	1	-1E+10	1	-1E+10	1
4902549	123	C	01/10/2024	22:52	-133.164	47.916	0	1135.10	0	2.9500	0	34.4040	0	27.421	0	1122.518	0	7.6	4	2.3	4	-1E+10	1	-1E+10	1	-1E+10	1	-1E+10	1	-1E+10	1	-1E+10	1
4902549	123	C	01/10/2024	22:52	-133.164	47.916	0	1145.40	0	2.9330	0	34.4060	0	27.424	0	1132.676	0	7.7	4	2.4	4	-1E+10	1	-1E+10	1	-1E+10	1	-1E+10	1	-1E+10	1	-1E+10	1
4902549	123	C	01/10/2024	22:52	-133.164	47.916	0	1155.40	0	2.9290	0	34.4100	0	27.428	0	1142.538	0	7.8	4	2.4	4	-1E+10	1	-1E+10	1	-1E+10	1	-1E+10	1	-1E+10	1	-1E+10	1
4902549	123	C	01/10/2024	22:52	-133.164	47.916	0	1165.50	0	2.9150	0	34.4120	0	27.431	0	1152.498	0	8.0	4	2.5	4	-1E+10	1	-1E+10	1	-1E+10	1	-1E+10	1	-1E+10	1	-1E+10	1
4902549	123	C	01/10/2024	22:52	-133.164	47.916	0	1175.80	0	2.8980	0	34.4150	0	27.435	0	1162.655	0	8.1	4	2.5	4	-1E+10	1	-1E+10	1	-1E+10	1	-1E+10	1	-1E+10	1	-1E+10	1
4902549	123	C	01/10/2024	22:52	-133.164	47.916	0	1185.70	0	2.8750	0	34.4180	0	27.439	0	1172.416	0	8.3	4	2.6	4	-1E+10	1	-1E+10	1	-1E+10	1	-1E+10	1	-1E+10	1	-1E+10	1
4902549	123	C	01/10/2024	22:52	-133.164	47.916	0	1195.70	0	2.8590	0	34.4230	0	27.445	0	1182.276	0	8.6	4	2.6	4	-1E+10	1	-1E+10	1	-1E+10	1	-1E+10	1	-1E+10	1	-1E+10	1
4902549	123	C	01/10/2024	22:52	-133.164	47.916	0	1205.40	0	2.8500	0	34.4270	0	27.449	0	1191.840	0	8.8	4	2.7	4	-1E+10	1	-1E+10	1	-1E+10	1	-1E+10	1	-1E+10	1	-1E+10	1
4902549	123	C	01/10/2024	22:52	-133.164	47.916	0	1215.10	0	2.8320	0	34.4300	0	27.453	0	1201.403	0	9.0	4	2.8	4	-1E+10	1	-1E+10	1	-1E+10	1	-1E+10	1	-1E+10	1	-1E+10	1
4902549	123	C	01/10/2024	22:52	-133.164	47.916	0	1225.10	0	2.8310	0	34.4340	0	27.456	0	1211.262	0	9.2	4	2.8	4	-1E+10	1	-1E+10	1	-1E+10	1	-1E+10	1	-1E+10	1	-1E+10	1
4902549	123	C	01/10/2024	22:52	-133.164	47.916	0	1235.20	0	2.8100	0	34.4350	0	27.459	0	1221.218	0	9.3	4	2.9	4	-1E+10	1	-1E+10	1	-1E+10	1	-1E+10	1	-1E+10	1	-1E+10	1
4902549	123	C	01/10/2024	22:52	-133.164	47.916	0	1245.60	0	2.8010	0	34.4360	0	27.460	0	1231.470	0	9.5	4	2.9	4	-1E+10	1	-1E+10	1	-1E+10	1	-1E+10	1	-1E+10	1	-1E+10	1
4902549	123	C	01/10/2024	22:52	-133.164	47.916	0	1255.50	0	2.7920	0	34.4400	0	27.464	0	1241.229	0	9.8	4	3.0	4	-1E+10	1	-1E+10	1	-1E+10	1	-1E+10	1	-1E+10	1	-1E+10	1
4902549	123	C	01/10/2024	22:52	-133.164	47.916	0	1265.30	0	2.7800	0	34.4420	0	27.467	0	1250.888	0	10.0	4	3.1	4	-1E+10	1	-1E+10	1	-1E+10	1	-1E+10	1	-1E+10	1	-1E+10	1
4902549	123	C	01/10/2024	22:52	-133.164	47.916	0	1275.60	0	2.7620	0	34.4440	0	27.470	0	1261.040	0	10.3	4	3.2	4	-1E+10	1	-1E+10	1	-1E+10	1	-1E+10	1	-1E+10	1	-1E+10	1
4902549	123	C	01/10/2024	22:52	-133.164	47.916	0	1285.30	0	2.7520	0	34.4480	0	27.474	0	1270.600	0	10.6	4	3.3	4	-1E+10	1	-1E+10	1	-1E+10	1	-1E+10	1	-1E+10	1	-1E+10	1
4902549	123	C	01/10/2024	22:52	-133.164	47.916	0	1295.10	0	2.7380	0	34.4510	0	27.478	0	1280.258	0	11.1	4	3.4	4	-1E+10	1	-1E+10	1	-1E+10	1	-1E+10	1	-1E+10	1	-1E+10	1
4902549	123	C	01/10/2024	22:52	-133.164	47.916	0	1305.60	0	2.7110	0	34.4570	0	27.485	0	1290.606	0	11.7	4	3.6	4	-1E+10	1	-1E+10	1	-1E+10	1	-1E+10	1	-1E+10	1	-1E+10	1
4902549	123	C	01/10/2024	22:52	-133.164	47.916	0	1315.50	0	2.6960	0	34.4610	0	27.490	0	1300.361	0	12.2	4	3.7	4	-1E+10	1	-1E+10	1	-1E+10	1	-1E+10	1	-1E+10	1	-1E+10	1
4902549	123	C	01/10/2024	22:52	-133.164	47.916	0	1325.40	0	2.6820	0	34.4640	0	27.493	0	1310.117	0	12.7	4	3.9	4	-1E+10	1	-1E+10	1	-1E+10	1	-1E+10	1	-1E+10	1	-1E+10	1
4902549	123	C	01/10/2024	22:52	-133.164	47.916	0	1335.50	0	2.6680	0	34.4690	0	27.499	0	1320.069	0	13.1	4	4.0	4	-1E+10	1	-1E+10	1	-1E+10	1	-1E+10	1	-1E+10	1	-1E+10	1
4902549	123	C	01/10/2024	22:52	-133.164	47.916	0	1345.70	0	2.6520	0	34.4700	0	27.501	0	1330.119	0	13.4	4	4.1	4	-1E+10	1	-1E+10	1	-1E+10	1	-1E+10	1	-1E+10	1	-1E+10	1
4902549	123	C	01/10/2024	22:52	-133.164	47.916	0	1355.50	0	2.6400	0	34.4720	0	27.504	0	1339.774	0	13.7	4	4.2	4	-1E+10	1	-1E+10	1	-1E+10	1	-1E+10	1	-1E+10	1	-1E+10	1
4902549	123	C	01/10/2024	22:52	-133.164	47.916	0	1365.50	0	2.6280	0	34.4740	0	27.506	0	1349.626	0	14.3	4	4.4	4	-1E+10	1	-1E+10	1	-1E+10	1	-1E+10	1	-1E+10	1	-1E+10	1
4902549	123	C	01/10/2024	22:52	-133.164	47.916	0	1375.60	0	2.6210	0	34.4780	0	27.510	0	1359.576	0	14.9	4	4.5	4	-1E+10	1	-1E+10	1	-1E+10	1	-1E+10	1	-1E+10	1	-1E+10	1
4902549	123	C	01/10/2024	22:52	-133.164	47.916	0	1385.50	0	2.6020	0	34.4810	0	27.514	0	1369.329	0	15.4	4	4.7	4	-1E+10	1	-1E+10	1	-1E+10	1	-1E+10	1	-1E+10	1	-1E+10	1
4902549	123	C	01/10/2024	22:52	-133.164	47.916	0	1395.50	0	2.5760	0	34.4840	0	27.519	0	1379.179	0	16.0	4	4.9	4	-1E+10	1	-1E+10	1	-1E+10	1	-1E+10	1	-1E+10	1	-1E+10	1
4902549	123	C	01/10/2024	22:52	-133.164	47.916	0	1405.30	0	2.5570	0	34.4860	0	27.522	0	1388.832	0	16.5	4	5.1	4	-1E+10	1	-1E+10	1	-1E+10	1	-1E+10	1	-1E+10	1	-1E+10	1
4902549	123	C	01/10/2024	22:52	-133.164	47.916	0	1415.40	0	2.5390	0	34.4890	0	27.526	0	1398.781	0	17.0	4	5.2	4	-1E+10	1	-1E+10	1	-1E+10	1	-1E+10	1	-1E+10	1	-1E+10	1
4902549	123	C	01/10/2024	22:52	-133.164	47.916	0	1425.80	0	2.5260	0	34.4910	0	27.529	0	1409.024	0	17.3	4	5.3	4	-1E+10	1	-1E+10	1	-1E+10	1	-1E+10	1	-1E+10	1	-1E+10	1
4902549	123	C	01/10/2024	22:52	-133.164	47.916	0	1435.80	0	2.5170	0	34.4920	0	27.531	0	1418.872	0	17.7	4	5.4	4	-1E+10	1	-1E+10	1	-1E+10	1	-1E+10	1	-1E+10	1	-1E+10	1
4902549	123	C	01/10/2024	22:52	-133.164	47.916	0	1445.70	0	2.5070	0	34.4930	0	27.532	0	1428.622	0	18.0	4	5.5	4	-1E+10	1	-1E+10	1	-1E+10	1	-1E+10	1	-1E+10	1	-1E+10	1
4902549	123	C	01/10/2024	22:52	-133.164	47.916	0	1455.40	0	2.4960	0	34.4950	0	27.535	0	1438.175	0	18.4	4	5.6	4	-1E+10	1	-1E+10	1	-1E+10	1	-1E+10	1	-1E+10	1	-1E+10	1
4902549	123	C	01/10/2024	22:52	-133.164	47.916	0	1465.20	0	2.4830	0	34.4970	0	27.538	0	1447.825	0	18.8	4	5.7	4	-1E+10	1	-1E+10	1	-1E+10	1	-1E+10	1	-1E+10	1	-1E+10	1
4902549	123	C	01/10/2024	22:52	-133.164	47.916	0	1475.60	0	2.4660	0	34.4990	0	27.541	0	1458.066	0	19.4	4	5.9	4	-1E+10	1	-1E+10	1	-1E+10	1	-1E+10	1	-1E+10	1	-1E+10	1
4902549	123	C	01/10/2024	22:52	-133.164	47.916	0	1485.40	0	2.4590	0	34.5010	0	27.543	0	1467.715	0	19.8	4	6.0	4	-1E+10	1	-1E+10	1	-1E+10	1	-1E+10	1	-1E+10	1	-1E+10	1
4902549	123	C	01/10/2024	22:52	-133.164	47.916	0	1495.20	0	2.4430	0	34.5030	0	27.546	0	1477.364	0	20.1	4	6.1	4	-1E+10	1	-1E+10	1	-1E+10	1	-1E+10	1	-1E+10	1	-1E+10	1
4902549	123	C	01/10/2024	22:52	-133.164	47.916	0	1505.30	0	2.4270	0	34.5030	0	27.547	0	1487.309	0	20.2	4	6.2	4	-1E+10	1	-1E+10	1	-1E+10	1	-1E+10	1	-1E+10	1	-1E+10	1
4902549	123	C	01/10/2024	22:52	-133.164	47.916	0	1515.10	0	2.4120	0	34.5040	0	27.549	0	1496.957	0	20.6	4	6.3	4	-1E+10	1	-1E+10	1	-1E+10	1	-1E+10	1	-1E+10	1	-1E+10	1
4902549	123	C	01/10/2024	22:52	-133.164	47.916	0	1525.40	0	2.3980	0	34.5050	0	27.551	0	1507.097	0	21.2	4	6.5	4	-1E+10	1	-1E+10	1	-1E+10	1	-1E+10	1	-1E+10	1	-1E+10	1
4902549	123	C	01/10/2024	22:52	-133.164	47.916	0	1535.70	0	2.3860	0	34.5090	0	27.556	0	1517.236	0	22.2	4	6.7	4	-1E+10	1	-1E+10	1	-1E+10	1	-1E+10	1	-1E+10	1	-1E+10	1
4902549	123	C	01/10/2024	22:52	-133.164	47.916	0	1545.70	0	2.3790	0	34.5110	0	27.558	0	1527.080	0	22.9	4	7.0	4	-1E+10	1	-1E+10	1	-1E+10	1	-1E+10	1	-1E+10	1	-1E+10	1
4902549	123	C	01/10/2024	22:52	-133.164	47.916	0	1555.50	0	2.3610	0	34.5140	0	27.562	0	1536.726	0	23.4	4	7.1	4	-1E+10	1	-1E+10	1	-1E+10	1	-1E+10	1	-1E+10	1	-1E+10	1
4902549	123	C	01/10/2024	22:52	-133.164	47.916	0	1565.30	0	2.3520	0	34.5160	0	27.564	0	1546.372	0	23.9	4	7.3	4	-1E+10	1	-1E+10	1	-1E+10	1	-1E+10	1	-1E+10	1	-1E+10	1
4902549	123	C	01/10/2024	22:52	-133.164	47.916	0	1575.30	0	2.3430	0	34.5170	0	27.566	0	1556.214	0	24.4	4	7.4	4	-1E+10	1	-1E+10	1	-1E+10	1	-1E+10	1	-1E+10	1	-1E+10	1
4902549	123	C	01/10/2024	22:52	-133.164	47.916	0	1585.60	0	2.3350	0	34.5180	0	27.567	0	1566.352	0	24.9	4	7.6	4	-1E+10	1	-1E+10	1	-1E+10	1	-1E+10	1	-1E+10	1	-1E+10	1
4902549	123	C	01/10/2024	22:52	-133.164	47.916	0	1595.50	0	2.3260	0	34.5200	0	27.570	0	1576.095	0	25.5	4	7.7	4	-1E+10	1	-1E+10	1	-1E+10	1	-1E+10	1	-1E+10	1	-1E+10	1
4902549	123	C	01/10/2024	22:52	-133.164	47.916	0	1605.20	0	2.3160	0	34.5210	0	27.571	0	1585.640	0	26.1	4	7.9	4	-1E+10	1	-1E+10	1	-1E+10	1	-1E+10	1	-1E+10	1	-1E+10	1
4902549	123	C	01/10/2024	22:52	-133.164	47.916	0	1615.00	0	2.2970	0	34.5240	0	27.575	0	1595.284	0	26.8	4	8.1	4	-1E+10	1	-1E+10	1	-1E+10	1	-1E+10	1	-1E+10	1	-1E+10	1
4902549	123	C	01/10/2024	22:52	-133.164	47.916	0	1624.90	0	2.2850	0	34.5250	0	27.577	0	1605.026	0	27.6	4	8.4	4	-1E+10	1	-1E+10	1	-1E+10	1	-1E+10	1	-1E+10	1	-1E+10	1
4902549	123	C	01/10/2024	22:52	-133.164	47.916	0	1635.40	0	2.2700	0	34.5290	0	27.582	0	1615.357	0	28.7	4	8.7	4	-1E+10	1	-1E+10	1	-1E+10	1	-1E+10	1	-1E+10	1	-1E+10	1
4902549	123	C	01/10/2024	22:52	-133.164	47.916	0	1645.40	0	2.2560	0	34.5320	0	27.585	0	1625.196	0	29.4	4	8.9	4	-1E+10	1	-1E+10	1	-1E+10	1	-1E+10	1	-1E+10	1	-1E+10	1
4902549	123	C	01/10/2024	22:52	-133.164	47.916	0	1655.00	0	2.2440	0	34.5340	0	27.588	0	1634.641	0	29.9	4	9.1	4	-1E+10	1	-1E+10	1	-1E+10	1	-1E+10	1	-1E+10	1	-1E+10	1
4902549	123	C	01/10/2024	22:52	-133.164	47.916	0	1665.50	0	2.2160	0	34.5350	0	27.591	0	1644.971	0	30.4	4	9.2	4	-1E+10	1	-1E+10	1	-1E+10	1	-1E+10	1	-1E+10	1	-1E+10	1
4902549	123	C	01/10/2024	22:52	-133.164	47.916	0	1675.30	0	2.2090	0	34.5360	0	27.592	0	1654.612	0	31.0	4	9.4	4	-1E+10	1	-1E+10	1	-1E+10	1	-1E+10	1	-1E+10	1	-1E+10	1
4902549	123	C	01/10/2024	22:52	-133.164	47.916	0	1685.30	0	2.1990	0	34.5380	0	27.595	0	1664.450	0	31.8	4	9.6	4	-1E+10	1	-1E+10	1	-1E+10	1	-1E+10	1	-1E+10	1	-1E+10	1
4902549	123	C	01/10/2024	22:52	-133.164	47.916	0	1695.30	0	2.1840	0	34.5410	0	27.598	0	1674.287	0	32.7	4	9.9	4	-1E+10	1	-1E+10	1	-1E+10	1	-1E+10	1	-1E+10	1	-1E+10	1
4902549	123	C	01/10/2024	22:52	-133.164	47.916	0	1705.10	0	2.1710	0	34.5430	0	27.601	0	1683.926	0	33.4	4	10.1	4	-1E+10	1	-1E+10	1	-1E+10	1	-1E+10	1	-1E+10	1	-1E+10	1
4902549	123	C	01/10/2024	22:52	-133.164	47.916	0	1715.30	0	2.1630	0	34.5450	0	27.603	0	1693.959	0	33.8	4	10.2	4	-1E+10	1	-1E+10	1	-1E+10	1	-1E+10	1	-1E+10	1	-1E+10	1
4902549	123	C	01/10/2024	22:52	-133.164	47.916	0	1725.20	0	2.1560	0	34.5460	0	27.605	0	1703.696	0	34.2	4	10.4	4	-1E+10	1	-1E+10	1	-1E+10	1	-1E+10	1	-1E+10	1	-1E+10	1
4902549	123	C	01/10/2024	22:52	-133.164	47.916	0	1735.00	0	2.1510	0	34.5460	0	27.605	0	1713.334	0	34.8	4	10.5	4	-1E+10	1	-1E+10	1	-1E+10	1	-1E+10	1	-1E+10	1	-1E+10	1
4902549	123	C	01/10/2024	22:52	-133.164	47.916	0	1745.40	0	2.1440	0	34.5470	0	27.607	0	1723.562	0	35.4	4	10.7	4	-1E+10	1	-1E+10	1	-1E+10	1	-1E+10	1	-1E+10	1	-1E+10	1
4902549	123	C	01/10/2024	22:52	-133.164	47.916	0	1755.80	0	2.1360	0	34.5490	0	27.609	0	1733.790	0	35.8	4	10.8	4	-1E+10	1	-1E+10	1	-1E+10	1	-1E+10	1	-1E+10	1	-1E+10	1
4902549	123	C	01/10/2024	22:52	-133.164	47.916	0	1765.50	0	2.1260	0	34.5500	0	27.611	0	1743.328	0	36.4	4	11.0	4	-1E+10	1	-1E+10	1	-1E+10	1	-1E+10	1	-1E+10	1	-1E+10	1
4902549	123	C	01/10/2024	22:52	-133.164	47.916	0	1775.10	0	2.1170	0	34.5510	0	27.612	0	1752.768	0	37.0	4	11.2	4	-1E+10	1	-1E+10	1	-1E+10	1	-1E+10	1	-1E+10	1	-1E+10	1
4902549	123	C	01/10/2024	22:52	-133.164	47.916	0	1785.30	0	2.1050	0	34.5530	0	27.615	0	1762.797	0	37.7	4	11.4	4	-1E+10	1	-1E+10	1	-1E+10	1	-1E+10	1	-1E+10	1	-1E+10	1
4902549	123	C	01/10/2024	22:52	-133.164	47.916	0	1795.40	0	2.0960	0	34.5540	0	27.616	0	1772.728	0	38.1	4	11.5	4	-1E+10	1	-1E+10	1	-1E+10	1	-1E+10	1	-1E+10	1	-1E+10	1
4902549	123	C	01/10/2024	22:52	-133.164	47.916	0	1805.70	0	2.0890	0	34.5560	0	27.619	0	1782.855	0	38.7	4	11.7	4	-1E+10	1	-1E+10	1	-1E+10	1	-1E+10	1	-1E+10	1	-1E+10	1
4902549	123	C	01/10/2024	22:52	-133.164	47.916	0	1815.50	0	2.0780	0	34.5570	0	27.620	0	1792.489	0	39.1	4	11.8	4	-1E+10	1	-1E+10	1	-1E+10	1	-1E+10	1	-1E+10	1	-1E+10	1
4902549	123	C	01/10/2024	22:52	-133.164	47.916	0	1825.40	0	2.0720	0	34.5580	0	27.622	0	1802.222	0	39.6	4	12.0	4	-1E+10	1	-1E+10	1	-1E+10	1	-1E+10	1	-1E+10	1	-1E+10	1
4902549	123	C	01/10/2024	22:52	-133.164	47.916	0	1835.40	0	2.0620	0	34.5600	0	27.624	0	1812.052	0	40.2	4	12.1	4	-1E+10	1	-1E+10	1	-1E+10	1	-1E+10	1	-1E+10	1	-1E+10	1
4902549	123	C	01/10/2024	22:52	-133.164	47.916	0	1845.30	0	2.0550	0	34.5610	0	27.625	0	1821.784	0	41.1	4	12.4	4	-1E+10	1	-1E+10	1	-1E+10	1	-1E+10	1	-1E+10	1	-1E+10	1
4902549	123	C	01/10/2024	22:52	-133.164	47.916	0	1855.60	0	2.0490	0	34.5630	0	27.628	0	1831.908	0	41.9	4	12.6	4	-1E+10	1	-1E+10	1	-1E+10	1	-1E+10	1	-1E+10	1	-1E+10	1
4902549	123	C	01/10/2024	22:52	-133.164	47.916	0	1865.80	0	2.0380	0	34.5640	0	27.629	0	1841.934	0	42.6	4	12.9	4	-1E+10	1	-1E+10	1	-1E+10	1	-1E+10	1	-1E+10	1	-1E+10	1
4902549	123	C	01/10/2024	22:52	-133.164	47.916	0	1875.40	0	2.0300	0	34.5660	0	27.632	0	1851.369	0	43.1	4	13.0	4	-1E+10	1	-1E+10	1	-1E+10	1	-1E+10	1	-1E+10	1	-1E+10	1
4902549	123	C	01/10/2024	22:52	-133.164	47.916	0	1885.40	0	2.0220	0	34.5670	0	27.633	0	1861.198	0	43.8	4	13.2	4	-1E+10	1	-1E+10	1	-1E+10	1	-1E+10	1	-1E+10	1	-1E+10	1
4902549	123	C	01/10/2024	22:52	-133.164	47.916	0	1895.80	0	2.0090	0	34.5700	0	27.636	0	1871.418	0	44.9	4	13.5	4	-1E+10	1	-1E+10	1	-1E+10	1	-1E+10	1	-1E+10	1	-1E+10	1
4902549	123	C	01/10/2024	22:52	-133.164	47.916	0	1905.60	0	1.9990	0	34.5710	0	27.638	0	1881.049	0	46.0	4	13.9	4	-1E+10	1	-1E+10	1	-1E+10	1	-1E+10	1	-1E+10	1	-1E+10	1
4902549	123	C	01/10/2024	22:52	-133.164	47.916	0	1915.10	0	1.9870	0	34.5740	0	27.642	0	1890.384	0	46.7	4	14.1	4	-1E+10	1	-1E+10	1	-1E+10	1	-1E+10	1	-1E+10	1	-1E+10	1
4902549	123	C	01/10/2024	22:52	-133.164	47.916	0	1925.30	0	1.9790	0	34.5750	0	27.643	0	1900.407	0	47.3	4	14.3	4	-1E+10	1	-1E+10	1	-1E+10	1	-1E+10	1	-1E+10	1	-1E+10	1
4902549	123	C	01/10/2024	22:52	-133.164	47.916	0	1935.40	0	1.9700	0	34.5770	0	27.645	0	1910.331	0	48.1	4	14.5	4	-1E+10	1	-1E+10	1	-1E+10	1	-1E+10	1	-1E+10	1	-1E+10	1
4902549	123	C	01/10/2024	22:52	-133.164	47.916	0	1945.50	0	1.9620	0	34.5790	0	27.648	0	1920.255	0	48.9	4	14.7	4	-1E+10	1	-1E+10	1	-1E+10	1	-1E+10	1	-1E+10	1	-1E+10	1
4902549	123	C	01/10/2024	22:52	-133.164	47.916	0	1955.60	0	1.9540	0	34.5790	0	27.648	0	1930.178	0	49.5	4	14.9	4	-1E+10	1	-1E+10	1	-1E+10	1	-1E+10	1	-1E+10	1	-1E+10	1
4902549	123	C	01/10/2024	22:52	-133.164	47.916	0	1965.30	0	1.9470	0	34.5810	0	27.650	0	1939.708	0	50.3	4	15.1	4	-1E+10	1	-1E+10	1	-1E+10	1	-1E+10	1	-1E+10	1	-1E+10	1
4902549	123	C	01/10/2024	22:52	-133.164	47.916	0	1975.10	0	1.9370	0	34.5820	0	27.652	0	1949.336	0	50.9	4	15.3	4	-1E+10	1	-1E+10	1	-1E+10	1	-1E+10	1	-1E+10	1	-1E+10	1
4902549	123	C	01/10/2024	22:52	-133.164	47.916	0	1985.00	0	1.9290	0	34.5840	0	27.654	0	1959.061	0	51.6	4	15.5	4	-1E+10	1	-1E+10	1	-1E+10	1	-1E+10	1	-1E+10	1	-1E+10	1
4902549	123	C	01/10/2024	22:52	-133.164	47.916	0	1995.50	0	1.9210	0	34.5850	0	27.656	0	1969.375	0	52.2	4	15.7	4	-1E+10	1	-1E+10	1	-1E+10	1	-1E+10	1	-1E+10	1	-1E+10	1
4902549	123	C	01/10/2024	22:52	-133.164	47.916	0	2002.40	0	1.9140	0	34.5870	0	27.658	0	1976.153	0	52.5	4	15.8	4	-1E+10	1	-1E+10	1	-1E+10	1	-1E+10	1	-1E+10	1	-1E+10	1
4902549	123	C	01/10/2024	22:52	-133.164	47.916	0																										
